date time	SYS.CALC.date_ddmmyy	SYS.CALC.date_ddmmyyyy	SYS.CALC.time_hhmmss	SYS.STR.HDG	SYS.STR.PosLat	SYS.STR.PosLon	SEAPATH.PSXN.Heading	SEAPATH.PSXN.Heave	SEAPATH.PSXN.Pitch	SEAPATH.PSXN.Roll	FOG.HEHDT.heading	FOG.PPPRP.pitch	FOG.PPPRP.roll	WEATHER.PBWWI.AirPress	WEATHER.PBWWI.AirTempPort	WEATHER.PBWWI.AirTempStarboard	WEATHER.PBWWI.DewPointPort	WEATHER.PBWWI.DewPointStarboard	WEATHER.PBWWI.GlobalRadiation	WEATHER.PBWWI.HumidityPort	WEATHER.PBWWI.HumidityStarboard	WEATHER.PBWWI.LwRadiation	WEATHER.PBWWI.PyrradiometerTemp	WEATHER.PBWWI.RealWindDir	WEATHER.PBWWI.RelWindSpeed	WEATHER.PBWWI.TrueWindDir	WEATHER.PBWWI.TrueWindSpeed	WEATHER.PBWWI.UvRadiation	WEATHER.PBWWI.Visibility	WEATHER.PBWWI.WaterTempPort	WEATHER.PBWWI.WaterTempStarboard	SYS.CALC.Timestamp	SYS.STR.Speed	SYS.CALC.SPEED_kmh
	spot	spot	spot	spot	spot	spot	spot	spot	spot	spot	spot	spot	spot	spot	spot	spot	spot	spot	spot	spot	spot	spot	spot	spot	spot	spot	spot	spot	spot	spot	spot	spot	spot	spot
				°	°	°	°	m	°	°	deg	deg	deg	hPa	°C	°C	°C	°C	W/m²	%	%	W/m²	°C	deg	m/s	deg	m/s	mW/m2	m	°C	°C	s	kn	
12/02/2020 00:00:00	120220	12022020	000000	115.98	13.920660	-56.974087	116.13	-0.970	0.980	2.450	115.98	-0.80	3.00	 	 	 	 	 	 	 	 	 	 	 	 	 	 	 	 	 	 	1581465600	5.22	9.67
12/02/2020 00:00:01	120220	12022020	000001	115.88	13.920642	-56.974062	115.99	-0.120	-0.710	2.530	115.84	-2.50	3.00	 	 	 	 	 	 	 	 	 	 	 	 	 	 	 	 	 	 	1581465601	6.72	12.45
12/02/2020 00:00:02	120220	12022020	000002	115.58	13.920623	-56.974035	115.67	0.710	-2.000	2.650	115.51	-3.40	3.20	1016.70	26.20	26.20	20.90	21.00	-1.0	72.0	73.0	401.0	25.8	321.00	14.60	68.00	12.50	16	9709.0	27.2	27.2	1581465602	7.00	12.96
12/02/2020 00:00:03	120220	12022020	000003	115.24	13.920610	-56.974010	115.35	0.930	-1.750	2.660	115.20	-2.60	3.10	 	 	 	 	 	 	 	 	 	 	 	 	 	 	 	 	 	 	1581465603	5.92	10.96
12/02/2020 00:00:04	120220	12022020	000004	115.18	13.920600	-56.973993	115.35	0.380	0.040	2.270	115.21	-0.60	2.60	 	 	 	 	 	 	 	 	 	 	 	 	 	 	 	 	 	 	1581465604	4.08	7.56
12/02/2020 00:00:05	120220	12022020	000005	115.45	13.920595	-56.973980	115.64	-0.540	1.940	1.660	115.52	1.00	2.00	 	 	 	 	 	 	 	 	 	 	 	 	 	 	 	 	 	 	1581465605	2.98	5.52
12/02/2020 00:00:06	120220	12022020	000006	115.78	13.920587	-56.973965	115.96	-1.110	2.280	1.260	115.84	0.60	1.70	 	 	 	 	 	 	 	 	 	 	 	 	 	 	 	 	 	 	1581465606	3.59	6.65
12/02/2020 00:00:07	120220	12022020	000007	115.96	13.920572	-56.973942	116.09	-0.680	0.330	1.210	115.96	-1.90	1.70	 	 	 	 	 	 	 	 	 	 	 	 	 	 	 	 	 	 	1581465607	5.79	10.72
12/02/2020 00:00:08	120220	12022020	000008	115.77	13.920553	-56.973912	115.85	0.490	-2.330	1.450	115.71	-4.10	2.10	 	 	 	 	 	 	 	 	 	 	 	 	 	 	 	 	 	 	1581465608	7.65	14.17
12/02/2020 00:00:09	120220	12022020	000009	115.43	13.920535	-56.973883	115.55	1.220	-3.070	1.890	115.38	-4.00	2.60	 	 	 	 	 	 	 	 	 	 	 	 	 	 	 	 	 	 	1581465609	6.90	12.78
12/02/2020 00:00:10	120220	12022020	000010	115.26	13.920523	-56.973867	115.47	0.810	-1.320	2.500	115.26	-1.80	3.10	 	 	 	 	 	 	 	 	 	 	 	 	 	 	 	 	 	 	1581465610	4.38	8.11
12/02/2020 00:00:11	120220	12022020	000011	115.39	13.920513	-56.973858	115.67	-0.310	1.190	2.880	115.45	0.50	3.40	 	 	 	 	 	 	 	 	 	 	 	 	 	 	 	 	 	 	1581465611	2.84	5.26
12/02/2020 00:00:12	120220	12022020	000012	115.74	13.920502	-56.973848	116.03	-1.180	2.470	2.740	115.82	1.10	3.10	 	 	 	 	 	 	 	 	 	 	 	 	 	 	 	 	 	 	1581465612	3.18	5.89
12/02/2020 00:00:13	120220	12022020	000013	116.02	13.920490	-56.973828	116.24	-1.210	1.710	2.400	116.04	-0.20	2.80	 	 	 	 	 	 	 	 	 	 	 	 	 	 	 	 	 	 	1581465613	4.84	8.96
12/02/2020 00:00:14	120220	12022020	000014	115.98	13.920473	-56.973803	116.10	-0.420	-0.380	2.330	115.92	-2.40	2.90	 	 	 	 	 	 	 	 	 	 	 	 	 	 	 	 	 	 	1581465614	6.52	12.08
12/02/2020 00:00:15	120220	12022020	000015	115.62	13.920455	-56.973775	115.72	0.620	-2.160	2.500	115.54	-3.70	3.00	 	 	 	 	 	 	 	 	 	 	 	 	 	 	 	 	 	 	1581465615	7.01	12.98
12/02/2020 00:00:16	120220	12022020	000016	115.30	13.920440	-56.973752	115.45	1.160	-2.300	2.570	115.26	-3.30	3.00	 	 	 	 	 	 	 	 	 	 	 	 	 	 	 	 	 	 	1581465616	5.94	11.00
12/02/2020 00:00:17	120220	12022020	000017	115.17	13.920430	-56.973733	115.35	0.940	-0.970	2.420	115.16	-1.70	2.80	 	 	 	 	 	 	 	 	 	 	 	 	 	 	 	 	 	 	1581465617	4.28	7.93
12/02/2020 00:00:18	120220	12022020	000018	115.16	13.920423	-56.973718	115.36	0.360	0.700	2.030	115.18	-0.20	2.40	 	 	 	 	 	 	 	 	 	 	 	 	 	 	 	 	 	 	1581465618	3.50	6.48
12/02/2020 00:00:19	120220	12022020	000019	115.32	13.920418	-56.973702	115.57	-0.240	1.780	1.630	115.38	0.60	2.00	 	 	 	 	 	 	 	 	 	 	 	 	 	 	 	 	 	 	1581465619	3.69	6.83
12/02/2020 00:00:20	120220	12022020	000020	115.65	13.920408	-56.973683	115.89	-0.660	1.730	1.420	115.72	0.10	1.90	 	 	 	 	 	 	 	 	 	 	 	 	 	 	 	 	 	 	1581465620	4.38	8.11
12/02/2020 00:00:21	120220	12022020	000021	115.90	13.920393	-56.973662	116.07	-0.790	0.540	1.430	115.91	-1.30	2.00	 	 	 	 	 	 	 	 	 	 	 	 	 	 	 	 	 	 	1581465621	5.41	10.02
12/02/2020 00:00:22	120220	12022020	000022	115.75	13.920377	-56.973638	115.82	-0.550	-1.140	1.930	115.66	-2.90	2.70	 	 	 	 	 	 	 	 	 	 	 	 	 	 	 	 	 	 	1581465622	6.24	11.56
12/02/2020 00:00:23	120220	12022020	000023	115.19	13.920357	-56.973617	115.25	-0.020	-2.310	2.810	115.08	-3.70	3.50	 	 	 	 	 	 	 	 	 	 	 	 	 	 	 	 	 	 	1581465623	6.43	11.91
12/02/2020 00:00:24	120220	12022020	000024	114.70	13.920338	-56.973595	114.82	0.540	-2.290	3.310	114.63	-3.30	3.80	 	 	 	 	 	 	 	 	 	 	 	 	 	 	 	 	 	 	1581465624	5.70	10.56
12/02/2020 00:00:25	120220	12022020	000025	114.38	13.920327	-56.973578	114.49	0.840	-1.170	3.280	114.31	-2.00	3.70	 	 	 	 	 	 	 	 	 	 	 	 	 	 	 	 	 	 	1581465625	4.68	8.67
12/02/2020 00:00:26	120220	12022020	000026	114.09	13.920317	-56.973560	114.21	0.710	0.270	3.000	114.05	-0.60	3.30	 	 	 	 	 	 	 	 	 	 	 	 	 	 	 	 	 	 	1581465626	4.20	7.78
12/02/2020 00:00:27	120220	12022020	000027	114.13	13.920310	-56.973542	114.37	0.170	1.460	2.270	114.21	0.40	2.50	 	 	 	 	 	 	 	 	 	 	 	 	 	 	 	 	 	 	1581465627	4.22	7.82
12/02/2020 00:00:28	120220	12022020	000028	114.67	13.920305	-56.973522	114.98	-0.540	2.170	1.360	114.80	0.90	1.70	 	 	 	 	 	 	 	 	 	 	 	 	 	 	 	 	 	 	1581465628	4.10	7.59
12/02/2020 00:00:29	120220	12022020	000029	115.25	13.920297	-56.973503	115.49	-0.940	1.750	1.020	115.32	0.00	1.60	 	 	 	 	 	 	 	 	 	 	 	 	 	 	 	 	 	 	1581465629	4.39	8.13
12/02/2020 00:00:30	120220	12022020	000030	115.43	13.920282	-56.973480	115.59	-0.630	-0.110	1.340	115.42	-2.20	2.00	 	 	 	 	 	 	 	 	 	 	 	 	 	 	 	 	 	 	1581465630	5.75	10.65
12/02/2020 00:00:31	120220	12022020	000031	115.20	13.920262	-56.973455	115.27	0.130	-2.210	1.960	115.10	-3.90	2.70	 	 	 	 	 	 	 	 	 	 	 	 	 	 	 	 	 	 	1581465631	6.88	12.74
12/02/2020 00:00:32	120220	12022020	000032	114.60	13.920243	-56.973432	114.65	0.710	-2.810	2.750	114.47	-3.90	3.40	 	 	 	 	 	 	 	 	 	 	 	 	 	 	 	 	 	 	1581465632	6.28	11.63
12/02/2020 00:00:33	120220	12022020	000033	114.07	13.920232	-56.973413	114.17	0.770	-1.620	3.070	114.01	-2.40	3.50	 	 	 	 	 	 	 	 	 	 	 	 	 	 	 	 	 	 	1581465633	4.49	8.32
12/02/2020 00:00:34	120220	12022020	000034	113.90	13.920223	-56.973400	114.07	0.480	0.040	2.780	113.91	-0.90	3.10	 	 	 	 	 	 	 	 	 	 	 	 	 	 	 	 	 	 	1581465634	3.50	6.48
12/02/2020 00:00:35	120220	12022020	000035	114.10	13.920217	-56.973380	114.32	0.180	0.820	2.160	114.17	-0.50	2.40	 	 	 	 	 	 	 	 	 	 	 	 	 	 	 	 	 	 	1581465635	4.14	7.67
12/02/2020 00:00:36	120220	12022020	000036	114.41	13.920208	-56.973358	114.59	-0.050	0.770	1.620	114.45	-0.60	2.00	 	 	 	 	 	 	 	 	 	 	 	 	 	 	 	 	 	 	1581465636	5.21	9.65
12/02/2020 00:00:37	120220	12022020	000037	114.49	13.920197	-56.973335	114.61	-0.390	0.600	1.490	114.48	-0.70	2.00	 	 	 	 	 	 	 	 	 	 	 	 	 	 	 	 	 	 	1581465637	5.40	10.00
12/02/2020 00:00:38	120220	12022020	000038	114.46	13.920182	-56.973317	114.63	-0.820	0.670	1.740	114.48	-0.60	2.30	 	 	 	 	 	 	 	 	 	 	 	 	 	 	 	 	 	 	1581465638	5.00	9.26
12/02/2020 00:00:39	120220	12022020	000039	114.64	13.920168	-56.973300	114.86	-1.010	0.770	1.980	114.70	-0.60	2.50	 	 	 	 	 	 	 	 	 	 	 	 	 	 	 	 	 	 	1581465639	4.53	8.39
12/02/2020 00:00:40	120220	12022020	000040	114.78	13.920153	-56.973283	114.91	-0.570	0.070	2.180	114.75	-1.70	2.70	 	 	 	 	 	 	 	 	 	 	 	 	 	 	 	 	 	 	1581465640	4.76	8.82
12/02/2020 00:00:41	120220	12022020	000041	114.45	13.920138	-56.973258	114.47	0.510	-1.620	2.510	114.33	-3.40	3.10	 	 	 	 	 	 	 	 	 	 	 	 	 	 	 	 	 	 	1581465641	6.09	11.28
12/02/2020 00:00:42	120220	12022020	000042	113.87	13.920123	-56.973230	113.95	1.490	-2.760	2.870	113.79	-4.00	3.40	 	 	 	 	 	 	 	 	 	 	 	 	 	 	 	 	 	 	1581465642	6.76	12.52
12/02/2020 00:00:43	120220	12022020	000043	113.74	13.920113	-56.973207	113.98	1.510	-1.720	2.920	113.80	-2.30	3.40	 	 	 	 	 	 	 	 	 	 	 	 	 	 	 	 	 	 	1581465643	5.21	9.65
12/02/2020 00:00:44	120220	12022020	000044	114.22	13.920108	-56.973195	114.56	0.530	0.700	2.730	114.36	0.10	3.10	 	 	 	 	 	 	 	 	 	 	 	 	 	 	 	 	 	 	1581465644	3.01	5.57
12/02/2020 00:00:45	120220	12022020	000045	114.85	13.920102	-56.973183	115.12	-0.710	2.380	2.600	114.94	1.20	3.10	 	 	 	 	 	 	 	 	 	 	 	 	 	 	 	 	 	 	1581465645	2.63	4.87
12/02/2020 00:00:46	120220	12022020	000046	115.19	13.920090	-56.973167	115.40	-1.310	2.120	2.580	115.23	0.40	3.00	 	 	 	 	 	 	 	 	 	 	 	 	 	 	 	 	 	 	1581465646	4.22	7.82
12/02/2020 00:00:47	120220	12022020	000047	115.35	13.920073	-56.973145	115.54	-1.020	0.430	2.540	115.36	-1.50	3.00	 	 	 	 	 	 	 	 	 	 	 	 	 	 	 	 	 	 	1581465647	5.93	10.98
12/02/2020 00:00:48	120220	12022020	000048	115.32	13.920057	-56.973120	115.48	-0.250	-1.420	2.700	115.28	-3.10	3.30	 	 	 	 	 	 	 	 	 	 	 	 	 	 	 	 	 	 	1581465648	6.55	12.13
12/02/2020 00:00:49	120220	12022020	000049	115.01	13.920040	-56.973095	115.10	0.420	-2.300	2.920	114.91	-3.50	3.40	 	 	 	 	 	 	 	 	 	 	 	 	 	 	 	 	 	 	1581465649	6.14	11.37
12/02/2020 00:00:50	120220	12022020	000050	114.59	13.920028	-56.973077	114.70	0.630	-1.620	2.690	114.52	-2.40	3.00	 	 	 	 	 	 	 	 	 	 	 	 	 	 	 	 	 	 	1581465650	4.78	8.85
12/02/2020 00:00:51	120220	12022020	000051	114.45	13.920023	-56.973060	114.66	0.390	0.080	1.890	114.48	-0.70	2.10	 	 	 	 	 	 	 	 	 	 	 	 	 	 	 	 	 	 	1581465651	3.46	6.41
12/02/2020 00:00:52	120220	12022020	000052	114.75	13.920022	-56.973045	115.00	-0.030	1.280	1.040	114.84	0.00	1.30	 	 	 	 	 	 	 	 	 	 	 	 	 	 	 	 	 	 	1581465652	3.34	6.19
12/02/2020 00:00:53	120220	12022020	000053	115.08	13.920013	-56.973023	115.25	-0.230	0.790	0.690	115.10	-1.00	1.20	 	 	 	 	 	 	 	 	 	 	 	 	 	 	 	 	 	 	1581465653	4.65	8.61
12/02/2020 00:00:54	120220	12022020	000054	114.97	13.919998	-56.972998	115.02	-0.110	-0.650	0.970	114.89	-2.30	1.60	 	 	 	 	 	 	 	 	 	 	 	 	 	 	 	 	 	 	1581465654	6.30	11.67
12/02/2020 00:00:55	120220	12022020	000055	114.58	13.919980	-56.972975	114.65	0.030	-1.230	1.680	114.51	-2.30	2.40	 	 	 	 	 	 	 	 	 	 	 	 	 	 	 	 	 	 	1581465655	6.28	11.63
12/02/2020 00:00:56	120220	12022020	000056	114.36	13.919965	-56.972960	114.51	0.010	-0.290	2.330	114.36	-2.00	2.60	 	 	 	 	 	 	 	 	 	 	 	 	 	 	 	 	 	 	1581465656	4.71	8.72
12/02/2020 00:00:57	120220	12022020	000057	114.33	13.919953	-56.972947	114.50	-0.080	0.870	2.520	114.34	-0.30	2.90	 	 	 	 	 	 	 	 	 	 	 	 	 	 	 	 	 	 	1581465657	3.53	6.54
12/02/2020 00:00:58	120220	12022020	000058	114.43	13.919945	-56.972930	114.65	-0.150	1.030	2.240	114.48	-0.40	2.60	 	 	 	 	 	 	 	 	 	 	 	 	 	 	 	 	 	 	1581465658	4.00	7.41
12/02/2020 00:00:59	120220	12022020	000059	114.71	13.919935	-56.972908	114.92	-0.150	0.200	2.030	114.76	-1.40	2.50	 	 	 	 	 	 	 	 	 	 	 	 	 	 	 	 	 	 	1581465659	5.03	9.32
12/02/2020 00:01:00	120220	12022020	000100	114.82	13.919922	-56.972885	114.97	-0.050	-0.940	2.290	114.80	-2.50	2.90	 	 	 	 	 	 	 	 	 	 	 	 	 	 	 	 	 	 	1581465660	5.59	10.35
12/02/2020 00:01:01	120220	12022020	000101	114.58	13.919907	-56.972863	114.68	0.210	-1.660	2.700	114.51	-3.00	3.30	 	 	 	 	 	 	 	 	 	 	 	 	 	 	 	 	 	 	1581465661	5.61	10.39
12/02/2020 00:01:02	120220	12022020	000102	114.25	13.919893	-56.972843	114.40	0.530	-1.580	2.990	114.21	-2.70	3.50	1016.70	26.20	26.20	21.00	21.10	-1.0	73.0	73.0	401.0	25.8	325.00	14.30	73.00	12.20	16	10635.0	27.2	27.2	1581465662	5.21	9.65
12/02/2020 00:01:03	120220	12022020	000103	114.08	13.919880	-56.972825	114.25	0.590	-0.850	3.250	114.06	-1.80	3.80	 	 	 	 	 	 	 	 	 	 	 	 	 	 	 	 	 	 	1581465663	4.76	8.82
12/02/2020 00:01:04	120220	12022020	000104	113.91	13.919868	-56.972807	114.05	0.220	0.160	3.350	113.87	-0.80	3.80	 	 	 	 	 	 	 	 	 	 	 	 	 	 	 	 	 	 	1581465664	4.44	8.22
12/02/2020 00:01:05	120220	12022020	000105	113.79	13.919860	-56.972790	113.99	-0.390	1.080	2.990	113.81	0.00	3.30	 	 	 	 	 	 	 	 	 	 	 	 	 	 	 	 	 	 	1581465665	4.27	7.91
12/02/2020 00:01:06	120220	12022020	000106	114.11	13.919852	-56.972772	114.42	-0.940	1.690	2.250	114.24	0.50	2.50	 	 	 	 	 	 	 	 	 	 	 	 	 	 	 	 	 	 	1581465666	4.11	7.61
12/02/2020 00:01:07	120220	12022020	000107	114.83	13.919843	-56.972753	115.15	-1.100	1.470	1.600	114.97	-0.20	2.00	 	 	 	 	 	 	 	 	 	 	 	 	 	 	 	 	 	 	1581465667	4.31	7.98
12/02/2020 00:01:08	120220	12022020	000108	115.31	13.919830	-56.972730	115.49	-0.630	0.020	1.400	115.33	-1.90	1.90	 	 	 	 	 	 	 	 	 	 	 	 	 	 	 	 	 	 	1581465668	5.38	9.96
12/02/2020 00:01:09	120220	12022020	000109	115.21	13.919813	-56.972705	115.29	0.240	-1.750	1.560	115.15	-3.40	2.10	 	 	 	 	 	 	 	 	 	 	 	 	 	 	 	 	 	 	1581465669	6.37	11.80
12/02/2020 00:01:10	120220	12022020	000110	114.92	13.919798	-56.972682	115.03	0.950	-2.340	1.890	114.88	-3.40	2.50	 	 	 	 	 	 	 	 	 	 	 	 	 	 	 	 	 	 	1581465670	5.93	10.98
12/02/2020 00:01:11	120220	12022020	000111	114.81	13.919788	-56.972663	114.96	1.150	-1.340	2.090	114.81	-2.10	2.60	 	 	 	 	 	 	 	 	 	 	 	 	 	 	 	 	 	 	1581465671	4.42	8.19
12/02/2020 00:01:12	120220	12022020	000112	114.88	13.919782	-56.972650	115.06	0.800	0.190	1.940	114.90	-0.70	2.30	 	 	 	 	 	 	 	 	 	 	 	 	 	 	 	 	 	 	1581465672	3.42	6.33
12/02/2020 00:01:13	120220	12022020	000113	114.98	13.919775	-56.972632	115.14	0.210	0.910	1.660	114.99	-0.40	2.10	 	 	 	 	 	 	 	 	 	 	 	 	 	 	 	 	 	 	1581465673	3.86	7.15
12/02/2020 00:01:14	120220	12022020	000114	114.96	13.919765	-56.972610	115.11	-0.250	0.560	1.690	114.95	-0.90	2.20	 	 	 	 	 	 	 	 	 	 	 	 	 	 	 	 	 	 	1581465674	5.10	9.45
12/02/2020 00:01:15	120220	12022020	000115	114.96	13.919750	-56.972587	115.16	-0.520	-0.050	1.920	114.98	-1.50	2.50	 	 	 	 	 	 	 	 	 	 	 	 	 	 	 	 	 	 	1581465675	5.73	10.61
12/02/2020 00:01:16	120220	12022020	000116	115.03	13.919735	-56.972567	115.21	-0.720	-0.380	2.240	115.02	-1.70	2.90	 	 	 	 	 	 	 	 	 	 	 	 	 	 	 	 	 	 	1581465676	5.52	10.22
12/02/2020 00:01:17	120220	12022020	000117	114.91	13.919718	-56.972548	115.04	-0.840	-0.410	2.750	114.86	-1.70	3.40	 	 	 	 	 	 	 	 	 	 	 	 	 	 	 	 	 	 	1581465677	5.22	9.67
12/02/2020 00:01:18	120220	12022020	000118	114.62	13.919702	-56.972532	114.76	-0.740	-0.230	3.190	114.57	-1.40	3.70	 	 	 	 	 	 	 	 	 	 	 	 	 	 	 	 	 	 	1581465678	5.06	9.37
12/02/2020 00:01:19	120220	12022020	000119	114.48	13.919688	-56.972513	114.68	-0.350	0.030	3.060	114.49	-1.20	3.40	 	 	 	 	 	 	 	 	 	 	 	 	 	 	 	 	 	 	1581465679	4.81	8.91
12/02/2020 00:01:20	120220	12022020	000120	114.65	13.919677	-56.972493	114.88	0.220	0.080	2.430	114.71	-1.30	2.70	 	 	 	 	 	 	 	 	 	 	 	 	 	 	 	 	 	 	1581465680	4.79	8.87
12/02/2020 00:01:21	120220	12022020	000121	114.96	13.919667	-56.972470	115.17	0.770	-0.250	1.780	115.01	-1.70	2.10	 	 	 	 	 	 	 	 	 	 	 	 	 	 	 	 	 	 	1581465681	5.18	9.59
12/02/2020 00:01:22	120220	12022020	000122	115.13	13.919658	-56.972447	115.28	1.040	-0.640	1.420	115.13	-1.90	1.90	 	 	 	 	 	 	 	 	 	 	 	 	 	 	 	 	 	 	1581465682	5.46	10.11
12/02/2020 00:01:23	120220	12022020	000123	115.09	13.919650	-56.972423	115.21	0.840	-0.490	1.340	115.07	-1.60	1.90	 	 	 	 	 	 	 	 	 	 	 	 	 	 	 	 	 	 	1581465683	5.07	9.39
12/02/2020 00:01:24	120220	12022020	000124	114.97	13.919642	-56.972405	115.11	0.330	0.150	1.450	114.96	-1.00	2.00	 	 	 	 	 	 	 	 	 	 	 	 	 	 	 	 	 	 	1581465684	4.34	8.04
12/02/2020 00:01:25	120220	12022020	000125	114.87	13.919632	-56.972387	115.02	-0.180	0.490	1.770	114.85	-0.80	2.40	 	 	 	 	 	 	 	 	 	 	 	 	 	 	 	 	 	 	1581465685	4.31	7.98
12/02/2020 00:01:26	120220	12022020	000126	114.76	13.919617	-56.972368	114.93	-0.480	0.230	2.330	114.75	-1.20	3.00	 	 	 	 	 	 	 	 	 	 	 	 	 	 	 	 	 	 	1581465686	5.00	9.26
12/02/2020 00:01:27	120220	12022020	000127	114.70	13.919600	-56.972347	114.89	-0.510	-0.390	2.920	114.69	-1.90	3.60	 	 	 	 	 	 	 	 	 	 	 	 	 	 	 	 	 	 	1581465687	5.60	10.37
12/02/2020 00:01:28	120220	12022020	000128	114.61	13.919583	-56.972327	114.78	-0.350	-0.950	3.380	114.58	-2.30	3.90	 	 	 	 	 	 	 	 	 	 	 	 	 	 	 	 	 	 	1581465688	5.78	10.70
12/02/2020 00:01:29	120220	12022020	000129	114.43	13.919568	-56.972305	114.59	-0.150	-1.030	3.590	114.40	-2.20	4.10	 	 	 	 	 	 	 	 	 	 	 	 	 	 	 	 	 	 	1581465689	5.52	10.22
12/02/2020 00:01:30	120220	12022020	000130	114.36	13.919555	-56.972287	114.55	-0.070	-0.600	3.540	114.36	-1.70	3.90	 	 	 	 	 	 	 	 	 	 	 	 	 	 	 	 	 	 	1581465690	5.00	9.26
12/02/2020 00:01:31	120220	12022020	000131	114.43	13.919543	-56.972267	114.63	-0.060	-0.120	3.160	114.45	-1.30	3.50	 	 	 	 	 	 	 	 	 	 	 	 	 	 	 	 	 	 	1581465691	4.84	8.96
12/02/2020 00:01:32	120220	12022020	000132	114.47	13.919532	-56.972245	114.62	-0.050	0.110	2.610	114.47	-1.20	3.30	 	 	 	 	 	 	 	 	 	 	 	 	 	 	 	 	 	 	1581465692	5.09	9.43
12/02/2020 00:01:33	120220	12022020	000133	114.47	13.919522	-56.972222	114.66	-0.010	0.330	1.950	114.49	-0.80	2.20	 	 	 	 	 	 	 	 	 	 	 	 	 	 	 	 	 	 	1581465693	5.21	9.65
12/02/2020 00:01:34	120220	12022020	000134	114.70	13.919515	-56.972200	114.94	-0.020	0.690	1.220	114.77	-0.50	1.50	 	 	 	 	 	 	 	 	 	 	 	 	 	 	 	 	 	 	1581465694	4.84	8.96
12/02/2020 00:01:35	120220	12022020	000135	115.05	13.919508	-56.972178	115.27	-0.020	0.690	0.640	115.11	-0.80	1.00	 	 	 	 	 	 	 	 	 	 	 	 	 	 	 	 	 	 	1581465695	4.71	8.72
12/02/2020 00:01:36	120220	12022020	000136	115.27	13.919498	-56.972157	115.44	0.110	-0.050	0.560	115.29	-1.70	1.20	 	 	 	 	 	 	 	 	 	 	 	 	 	 	 	 	 	 	1581465696	5.33	9.87
12/02/2020 00:01:37	120220	12022020	000137	115.28	13.919483	-56.972132	115.42	0.290	-0.920	1.120	115.27	-2.40	1.90	 	 	 	 	 	 	 	 	 	 	 	 	 	 	 	 	 	 	1581465697	5.93	10.98
12/02/2020 00:01:38	120220	12022020	000138	115.19	13.919467	-56.972112	115.35	0.260	-1.040	1.970	115.16	-2.20	2.70	 	 	 	 	 	 	 	 	 	 	 	 	 	 	 	 	 	 	1581465698	5.55	10.28
12/02/2020 00:01:39	120220	12022020	000139	115.06	13.919450	-56.972095	115.22	-0.010	-0.480	2.760	115.03	-1.60	3.40	 	 	 	 	 	 	 	 	 	 	 	 	 	 	 	 	 	 	1581465699	4.82	8.93
12/02/2020 00:01:40	120220	12022020	000140	114.88	13.919435	-56.972078	115.04	-0.170	-0.040	3.320	114.84	-1.30	3.90	 	 	 	 	 	 	 	 	 	 	 	 	 	 	 	 	 	 	1581465700	4.72	8.74
12/02/2020 00:01:41	120220	12022020	000141	114.67	13.919420	-56.972060	114.82	0.010	-0.150	3.630	114.63	-1.60	4.10	 	 	 	 	 	 	 	 	 	 	 	 	 	 	 	 	 	 	1581465701	5.26	9.74
12/02/2020 00:01:42	120220	12022020	000142	114.52	13.919407	-56.972037	114.70	0.350	-0.520	3.590	114.51	-1.90	4.00	 	 	 	 	 	 	 	 	 	 	 	 	 	 	 	 	 	 	1581465702	5.72	10.59
12/02/2020 00:01:43	120220	12022020	000143	114.58	13.919397	-56.972012	114.79	0.430	-0.640	3.170	114.62	-1.90	3.50	 	 	 	 	 	 	 	 	 	 	 	 	 	 	 	 	 	 	1581465703	5.74	10.63
12/02/2020 00:01:44	120220	12022020	000144	114.71	13.919385	-56.971988	114.88	0.100	-0.280	2.750	114.71	-1.70	3.30	 	 	 	 	 	 	 	 	 	 	 	 	 	 	 	 	 	 	1581465704	5.20	9.63
12/02/2020 00:01:45	120220	12022020	000145	114.73	13.919375	-56.971968	114.90	-0.420	0.260	2.680	114.73	-0.90	3.20	 	 	 	 	 	 	 	 	 	 	 	 	 	 	 	 	 	 	1581465705	4.76	8.82
12/02/2020 00:01:46	120220	12022020	000146	114.80	13.919362	-56.971950	115.02	-0.660	0.450	2.670	114.84	-0.90	3.10	 	 	 	 	 	 	 	 	 	 	 	 	 	 	 	 	 	 	1581465706	4.98	9.22
12/02/2020 00:01:47	120220	12022020	000147	115.07	13.919347	-56.971928	115.31	-0.540	0.320	2.430	115.13	-1.00	2.80	 	 	 	 	 	 	 	 	 	 	 	 	 	 	 	 	 	 	1581465707	5.35	9.91
12/02/2020 00:01:48	120220	12022020	000148	115.38	13.919335	-56.971907	115.60	-0.300	0.120	2.140	115.43	-1.30	2.60	 	 	 	 	 	 	 	 	 	 	 	 	 	 	 	 	 	 	1581465708	5.37	9.95
12/02/2020 00:01:49	120220	12022020	000149	115.48	13.919322	-56.971885	115.63	-0.090	-0.140	2.110	115.47	-1.50	2.60	 	 	 	 	 	 	 	 	 	 	 	 	 	 	 	 	 	 	1581465709	5.33	9.87
12/02/2020 00:01:50	120220	12022020	000150	115.35	13.919307	-56.971863	115.46	0.140	-0.400	2.340	115.31	-1.80	2.90	 	 	 	 	 	 	 	 	 	 	 	 	 	 	 	 	 	 	1581465710	5.38	9.96
12/02/2020 00:01:51	120220	12022020	000151	115.13	13.919293	-56.971843	115.23	0.460	-0.580	2.380	115.08	-1.90	2.80	 	 	 	 	 	 	 	 	 	 	 	 	 	 	 	 	 	 	1581465711	5.33	9.87
12/02/2020 00:01:52	120220	12022020	000152	114.87	13.919283	-56.971820	114.96	0.740	-0.600	2.110	114.82	-1.90	2.50	 	 	 	 	 	 	 	 	 	 	 	 	 	 	 	 	 	 	1581465712	5.26	9.74
12/02/2020 00:01:53	120220	12022020	000153	114.70	13.919273	-56.971797	114.83	0.730	-0.440	1.880	114.69	-1.70	2.30	 	 	 	 	 	 	 	 	 	 	 	 	 	 	 	 	 	 	1581465713	5.15	9.54
12/02/2020 00:01:54	120220	12022020	000154	114.71	13.919265	-56.971775	114.86	0.390	-0.310	1.720	114.73	-1.60	2.20	 	 	 	 	 	 	 	 	 	 	 	 	 	 	 	 	 	 	1581465714	5.12	9.48
12/02/2020 00:01:55	120220	12022020	000155	114.68	13.919252	-56.971752	114.80	-0.010	-0.450	1.850	114.65	-1.80	2.50	 	 	 	 	 	 	 	 	 	 	 	 	 	 	 	 	 	 	1581465715	5.51	10.20
12/02/2020 00:01:56	120220	12022020	000156	114.58	13.919237	-56.971730	114.75	-0.360	-0.480	2.430	114.57	-1.70	3.10	 	 	 	 	 	 	 	 	 	 	 	 	 	 	 	 	 	 	1581465716	5.88	10.89
12/02/2020 00:01:57	120220	12022020	000157	114.65	13.919218	-56.971710	114.88	-0.720	0.020	3.130	114.69	-1.10	3.80	 	 	 	 	 	 	 	 	 	 	 	 	 	 	 	 	 	 	1581465717	5.59	10.35
12/02/2020 00:01:58	120220	12022020	000158	114.88	13.919202	-56.971693	115.13	-1.090	0.740	3.480	114.88	-0.80	3.90	 	 	 	 	 	 	 	 	 	 	 	 	 	 	 	 	 	 	1581465718	4.99	9.24
12/02/2020 00:01:59	120220	12022020	000159	115.10	13.919185	-56.971677	115.30	-1.240	1.090	3.420	115.13	-0.40	3.80	 	 	 	 	 	 	 	 	 	 	 	 	 	 	 	 	 	 	1581465719	4.84	8.96
12/02/2020 00:02:00	120220	12022020	000200	115.16	13.919170	-56.971658	115.32	-0.800	0.510	3.140	115.15	-1.20	3.50	 	 	 	 	 	 	 	 	 	 	 	 	 	 	 	 	 	 	1581465720	5.35	9.91
12/02/2020 00:02:01	120220	12022020	000201	115.08	13.919155	-56.971632	115.21	0.280	-0.800	2.620	115.05	-2.50	2.90	 	 	 	 	 	 	 	 	 	 	 	 	 	 	 	 	 	 	1581465721	6.23	11.54
12/02/2020 00:02:02	120220	12022020	000202	114.86	13.919145	-56.971603	114.94	1.420	-1.820	1.990	114.81	-3.20	2.30	1016.80	26.20	26.20	21.00	21.10	-1.0	73.0	73.0	398.0	25.8	317.00	14.60	63.00	12.80	16	9872.0	27.2	27.2	1581465722	6.61	12.24
12/02/2020 00:02:03	120220	12022020	000203	114.63	13.919138	-56.971575	114.72	1.790	-1.590	1.420	114.59	-2.60	1.80	 	 	 	 	 	 	 	 	 	 	 	 	 	 	 	 	 	 	1581465723	5.93	10.98
12/02/2020 00:02:04	120220	12022020	000204	114.54	13.919133	-56.971553	114.68	1.150	-0.330	1.210	114.56	-1.20	1.70	 	 	 	 	 	 	 	 	 	 	 	 	 	 	 	 	 	 	1581465724	4.66	8.63
12/02/2020 00:02:05	120220	12022020	000205	114.74	13.919125	-56.971537	114.98	-0.020	0.930	1.460	114.82	-0.20	2.10	 	 	 	 	 	 	 	 	 	 	 	 	 	 	 	 	 	 	1581465725	4.13	7.65
12/02/2020 00:02:06	120220	12022020	000206	115.16	13.919108	-56.971520	115.41	-0.970	1.350	2.050	115.24	-0.10	2.70	 	 	 	 	 	 	 	 	 	 	 	 	 	 	 	 	 	 	1581465726	4.77	8.83
12/02/2020 00:02:07	120220	12022020	000207	115.39	13.919088	-56.971500	115.57	-1.200	0.700	2.790	115.39	-1.00	3.50	 	 	 	 	 	 	 	 	 	 	 	 	 	 	 	 	 	 	1581465727	5.93	10.98
12/02/2020 00:02:08	120220	12022020	000208	115.25	13.919068	-56.971478	115.37	-0.870	-0.360	3.500	115.19	-2.00	4.20	 	 	 	 	 	 	 	 	 	 	 	 	 	 	 	 	 	 	1581465728	6.59	12.20
12/02/2020 00:02:09	120220	12022020	000209	114.92	13.919048	-56.971455	115.05	-0.420	-1.060	4.090	114.86	-2.50	4.60	 	 	 	 	 	 	 	 	 	 	 	 	 	 	 	 	 	 	1581465729	6.36	11.78
12/02/2020 00:02:10	120220	12022020	000210	114.67	13.919032	-56.971433	114.82	-0.100	-1.180	4.130	114.63	-2.40	4.50	 	 	 	 	 	 	 	 	 	 	 	 	 	 	 	 	 	 	1581465730	5.78	10.70
12/02/2020 00:02:11	120220	12022020	000211	114.51	13.919020	-56.971412	114.66	0.100	-0.830	3.620	114.48	-2.00	3.90	 	 	 	 	 	 	 	 	 	 	 	 	 	 	 	 	 	 	1581465731	5.33	9.87
12/02/2020 00:02:12	120220	12022020	000212	114.42	13.919010	-56.971388	114.59	0.250	-0.200	2.860	114.43	-1.30	3.10	 	 	 	 	 	 	 	 	 	 	 	 	 	 	 	 	 	 	1581465732	5.06	9.37
12/02/2020 00:02:13	120220	12022020	000213	114.58	13.919003	-56.971367	114.79	0.390	0.290	1.960	114.63	-1.00	2.20	 	 	 	 	 	 	 	 	 	 	 	 	 	 	 	 	 	 	1581465733	5.03	9.32
12/02/2020 00:02:14	120220	12022020	000214	114.90	13.918997	-56.971342	115.11	0.540	0.250	1.130	114.96	-1.20	1.40	 	 	 	 	 	 	 	 	 	 	 	 	 	 	 	 	 	 	1581465734	5.49	10.17
12/02/2020 00:02:15	120220	12022020	000215	115.15	13.918987	-56.971315	115.30	0.570	-0.060	0.760	115.17	-1.50	1.30	 	 	 	 	 	 	 	 	 	 	 	 	 	 	 	 	 	 	1581465735	5.91	10.95
12/02/2020 00:02:16	120220	12022020	000216	115.11	13.918972	-56.971292	115.20	0.280	-0.170	1.220	115.06	-1.50	2.00	 	 	 	 	 	 	 	 	 	 	 	 	 	 	 	 	 	 	1581465736	5.79	10.72
12/02/2020 00:02:17	120220	12022020	000217	114.76	13.918955	-56.971272	114.84	-0.220	-0.020	2.210	114.68	-1.30	3.00	 	 	 	 	 	 	 	 	 	 	 	 	 	 	 	 	 	 	1581465737	5.57	10.32
12/02/2020 00:02:18	120220	12022020	000218	114.40	13.918937	-56.971253	114.53	-0.530	0.270	2.870	114.36	-1.00	3.40	 	 	 	 	 	 	 	 	 	 	 	 	 	 	 	 	 	 	1581465738	5.30	9.82
12/02/2020 00:02:19	120220	12022020	000219	114.31	13.918923	-56.971233	114.49	-0.490	0.380	3.030	114.32	-1.00	3.50	 	 	 	 	 	 	 	 	 	 	 	 	 	 	 	 	 	 	1581465739	5.04	9.33
12/02/2020 00:02:20	120220	12022020	000220	114.37	13.918912	-56.971212	114.56	-0.180	-0.160	3.100	114.38	-1.80	3.60	 	 	 	 	 	 	 	 	 	 	 	 	 	 	 	 	 	 	1581465740	5.45	10.09
12/02/2020 00:02:21	120220	12022020	000221	114.37	13.918897	-56.971185	114.55	0.160	-1.240	3.140	114.37	-2.90	3.60	 	 	 	 	 	 	 	 	 	 	 	 	 	 	 	 	 	 	1581465741	6.36	11.78
12/02/2020 00:02:22	120220	12022020	000222	114.36	13.918880	-56.971158	114.54	0.330	-1.840	3.240	114.36	-3.10	3.70	 	 	 	 	 	 	 	 	 	 	 	 	 	 	 	 	 	 	1581465742	6.60	12.22
12/02/2020 00:02:23	120220	12022020	000223	114.41	13.918865	-56.971137	114.59	0.280	-1.120	3.420	114.42	-2.00	3.90	 	 	 	 	 	 	 	 	 	 	 	 	 	 	 	 	 	 	1581465743	5.64	10.45
12/02/2020 00:02:24	120220	12022020	000224	114.47	13.918852	-56.971120	114.64	0.100	0.290	3.350	114.48	-0.70	3.70	 	 	 	 	 	 	 	 	 	 	 	 	 	 	 	 	 	 	1581465744	4.52	8.37
12/02/2020 00:02:25	120220	12022020	000225	114.46	13.918842	-56.971100	114.58	-0.000	1.080	2.900	114.45	-0.30	3.20	 	 	 	 	 	 	 	 	 	 	 	 	 	 	 	 	 	 	1581465745	4.60	8.52
12/02/2020 00:02:26	120220	12022020	000226	114.41	13.918832	-56.971075	114.56	-0.060	0.910	2.290	114.42	-0.60	2.60	 	 	 	 	 	 	 	 	 	 	 	 	 	 	 	 	 	 	1581465746	5.61	10.39
12/02/2020 00:02:27	120220	12022020	000227	114.56	13.918820	-56.971050	114.78	-0.260	0.570	1.840	114.62	-0.80	2.20	 	 	 	 	 	 	 	 	 	 	 	 	 	 	 	 	 	 	1581465747	5.86	10.85
12/02/2020 00:02:28	120220	12022020	000228	114.98	13.918810	-56.971028	115.23	-0.550	0.490	1.400	115.07	-0.90	1.80	 	 	 	 	 	 	 	 	 	 	 	 	 	 	 	 	 	 	1581465748	5.21	9.65
12/02/2020 00:02:29	120220	12022020	000229	115.36	13.918798	-56.971008	115.54	-0.580	0.120	1.270	115.40	-1.50	1.90	 	 	 	 	 	 	 	 	 	 	 	 	 	 	 	 	 	 	1581465749	4.99	9.24
12/02/2020 00:02:30	120220	12022020	000230	115.31	13.918783	-56.970985	115.39	-0.100	-0.970	1.780	115.24	-2.70	2.50	 	 	 	 	 	 	 	 	 	 	 	 	 	 	 	 	 	 	1581465750	5.81	10.76
12/02/2020 00:02:31	120220	12022020	000231	114.88	13.918765	-56.970958	114.95	0.690	-2.130	2.460	114.80	-3.70	3.10	 	 	 	 	 	 	 	 	 	 	 	 	 	 	 	 	 	 	1581465751	6.71	12.43
12/02/2020 00:02:32	120220	12022020	000232	114.60	13.918748	-56.970933	114.73	1.230	-2.230	2.900	114.57	-3.30	3.50	 	 	 	 	 	 	 	 	 	 	 	 	 	 	 	 	 	 	1581465752	6.43	11.91
12/02/2020 00:02:33	120220	12022020	000233	114.56	13.918735	-56.970912	114.71	1.100	-1.020	3.060	114.55	-1.90	3.60	 	 	 	 	 	 	 	 	 	 	 	 	 	 	 	 	 	 	1581465753	5.21	9.65
12/02/2020 00:02:34	120220	12022020	000234	114.51	13.918725	-56.970895	114.64	0.400	0.560	3.060	114.50	-0.40	3.50	 	 	 	 	 	 	 	 	 	 	 	 	 	 	 	 	 	 	1581465754	4.45	8.24
12/02/2020 00:02:35	120220	12022020	000235	114.54	13.918715	-56.970875	114.72	-0.560	1.780	2.800	114.58	0.70	3.20	 	 	 	 	 	 	 	 	 	 	 	 	 	 	 	 	 	 	1581465755	4.49	8.32
12/02/2020 00:02:36	120220	12022020	000236	114.82	13.918703	-56.970857	115.05	-1.400	2.270	2.470	114.90	0.80	2.90	 	 	 	 	 	 	 	 	 	 	 	 	 	 	 	 	 	 	1581465756	4.63	8.57
12/02/2020 00:02:37	120220	12022020	000237	115.21	13.918688	-56.970837	115.45	-1.540	1.480	2.260	115.29	-0.40	2.70	 	 	 	 	 	 	 	 	 	 	 	 	 	 	 	 	 	 	1581465757	5.34	9.89
12/02/2020 00:02:38	120220	12022020	000238	115.62	13.918672	-56.970810	115.82	-0.800	-0.400	2.040	115.67	-2.40	2.50	 	 	 	 	 	 	 	 	 	 	 	 	 	 	 	 	 	 	1581465758	6.56	12.15
12/02/2020 00:02:39	120220	12022020	000239	115.74	13.918653	-56.970783	115.83	0.250	-2.120	2.100	115.70	-3.80	2.70	 	 	 	 	 	 	 	 	 	 	 	 	 	 	 	 	 	 	1581465759	7.03	13.02
12/02/2020 00:02:40	120220	12022020	000240	115.35	13.918637	-56.970758	115.36	0.900	-2.530	2.510	115.23	-3.70	3.20	 	 	 	 	 	 	 	 	 	 	 	 	 	 	 	 	 	 	1581465760	6.27	11.61
12/02/2020 00:02:41	120220	12022020	000241	114.64	13.918623	-56.970738	114.61	0.940	-1.460	2.900	114.48	-2.30	3.40	 	 	 	 	 	 	 	 	 	 	 	 	 	 	 	 	 	 	1581465761	4.89	9.06
12/02/2020 00:02:42	120220	12022020	000242	113.98	13.918615	-56.970722	114.03	0.650	0.220	2.770	113.91	-0.70	3.10	 	 	 	 	 	 	 	 	 	 	 	 	 	 	 	 	 	 	1581465762	3.97	7.35
12/02/2020 00:02:43	120220	12022020	000243	113.86	13.918610	-56.970702	114.02	0.330	1.170	2.180	113.89	-0.20	2.50	 	 	 	 	 	 	 	 	 	 	 	 	 	 	 	 	 	 	1581465763	4.31	7.98
12/02/2020 00:02:44	120220	12022020	000244	114.01	13.918600	-56.970677	114.15	0.120	0.670	1.960	114.02	-1.00	2.50	 	 	 	 	 	 	 	 	 	 	 	 	 	 	 	 	 	 	1581465764	5.65	10.46
12/02/2020 00:02:45	120220	12022020	000245	113.90	13.918583	-56.970650	113.97	-0.120	-0.250	2.370	113.84	-1.70	3.00	 	 	 	 	 	 	 	 	 	 	 	 	 	 	 	 	 	 	1581465765	6.69	12.39
12/02/2020 00:02:46	120220	12022020	000246	113.64	13.918565	-56.970628	113.76	-0.500	-0.170	2.840	113.61	-1.30	3.40	 	 	 	 	 	 	 	 	 	 	 	 	 	 	 	 	 	 	1581465766	6.01	11.13
12/02/2020 00:02:47	120220	12022020	000247	113.67	13.918552	-56.970613	113.89	-0.910	0.740	3.090	113.72	-0.40	3.60	 	 	 	 	 	 	 	 	 	 	 	 	 	 	 	 	 	 	1581465767	4.46	8.26
12/02/2020 00:02:48	120220	12022020	000248	114.01	13.918538	-56.970597	114.26	-0.940	0.900	3.160	114.01	-0.30	3.60	 	 	 	 	 	 	 	 	 	 	 	 	 	 	 	 	 	 	1581465768	4.29	7.95
12/02/2020 00:02:49	120220	12022020	000249	114.29	13.918522	-56.970575	114.47	-0.230	-0.480	3.150	114.29	-2.50	3.60	 	 	 	 	 	 	 	 	 	 	 	 	 	 	 	 	 	 	1581465769	5.74	10.63
12/02/2020 00:02:50	120220	12022020	000250	114.09	13.918507	-56.970545	114.16	0.920	-2.280	3.150	113.99	-3.90	3.60	 	 	 	 	 	 	 	 	 	 	 	 	 	 	 	 	 	 	1581465770	7.14	13.22
12/02/2020 00:02:51	120220	12022020	000251	113.52	13.918493	-56.970517	113.57	1.580	-2.480	3.220	113.41	-3.40	3.70	 	 	 	 	 	 	 	 	 	 	 	 	 	 	 	 	 	 	1581465771	6.58	12.19
12/02/2020 00:02:52	120220	12022020	000252	113.07	13.918485	-56.970497	113.19	1.160	-0.730	3.320	113.03	-1.30	3.80	 	 	 	 	 	 	 	 	 	 	 	 	 	 	 	 	 	 	1581465772	4.56	8.45
12/02/2020 00:02:53	120220	12022020	000253	113.16	13.918478	-56.970483	113.43	-0.030	1.430	3.020	113.27	0.60	3.30	 	 	 	 	 	 	 	 	 	 	 	 	 	 	 	 	 	 	1581465773	3.30	6.11
12/02/2020 00:02:54	120220	12022020	000254	113.92	13.918472	-56.970467	114.27	-1.120	2.430	2.200	114.11	1.00	2.40	 	 	 	 	 	 	 	 	 	 	 	 	 	 	 	 	 	 	1581465774	3.65	6.76
12/02/2020 00:02:55	120220	12022020	000255	114.79	13.918460	-56.970445	115.07	-1.410	1.710	1.560	114.92	-0.20	2.00	 	 	 	 	 	 	 	 	 	 	 	 	 	 	 	 	 	 	1581465775	5.05	9.35
12/02/2020 00:02:56	120220	12022020	000256	115.23	13.918445	-56.970420	115.39	-0.810	-0.100	1.580	115.25	-2.00	2.20	 	 	 	 	 	 	 	 	 	 	 	 	 	 	 	 	 	 	1581465776	6.46	11.96
12/02/2020 00:02:57	120220	12022020	000257	115.15	13.918427	-56.970393	115.24	0.110	-1.630	2.130	115.09	-3.20	2.80	 	 	 	 	 	 	 	 	 	 	 	 	 	 	 	 	 	 	1581465777	6.77	12.54
12/02/2020 00:02:58	120220	12022020	000258	114.80	13.918410	-56.970372	114.89	0.690	-1.940	2.690	114.73	-3.10	3.30	 	 	 	 	 	 	 	 	 	 	 	 	 	 	 	 	 	 	1581465778	5.94	11.00
12/02/2020 00:02:59	120220	12022020	000259	114.51	13.918397	-56.970353	114.64	0.700	-1.140	2.910	114.47	-2.10	3.40	 	 	 	 	 	 	 	 	 	 	 	 	 	 	 	 	 	 	1581465779	4.76	8.82
12/02/2020 00:03:00	120220	12022020	000300	114.41	13.918387	-56.970335	114.56	0.330	-0.000	2.770	114.41	-1.10	3.10	 	 	 	 	 	 	 	 	 	 	 	 	 	 	 	 	 	 	1581465780	4.09	7.57
12/02/2020 00:03:01	120220	12022020	000301	114.44	13.918380	-56.970317	114.62	0.040	0.480	2.220	114.46	-0.90	2.50	 	 	 	 	 	 	 	 	 	 	 	 	 	 	 	 	 	 	1581465781	4.46	8.26
12/02/2020 00:03:02	120220	12022020	000302	114.61	13.918370	-56.970292	114.80	0.070	0.060	1.500	114.65	-1.50	1.90	1016.80	26.20	26.20	20.80	20.90	-1.0	72.0	72.0	400.0	25.8	316.00	15.50	63.00	13.60	16	9786.0	27.2	27.2	1581465782	5.54	10.26
12/02/2020 00:03:03	120220	12022020	000303	114.71	13.918358	-56.970263	114.84	0.220	-0.600	1.320	114.70	-2.10	1.90	 	 	 	 	 	 	 	 	 	 	 	 	 	 	 	 	 	 	1581465783	6.27	11.61
12/02/2020 00:03:04	120220	12022020	000304	114.56	13.918345	-56.970240	114.64	0.110	-0.620	1.760	114.51	-1.80	2.40	 	 	 	 	 	 	 	 	 	 	 	 	 	 	 	 	 	 	1581465784	5.96	11.04
12/02/2020 00:03:05	120220	12022020	000305	114.35	13.918330	-56.970220	114.47	-0.270	0.140	2.340	114.33	-0.90	3.00	 	 	 	 	 	 	 	 	 	 	 	 	 	 	 	 	 	 	1581465785	5.10	9.45
12/02/2020 00:03:06	120220	12022020	000306	114.36	13.918317	-56.970205	114.57	-0.590	0.980	2.760	114.40	-0.20	3.30	 	 	 	 	 	 	 	 	 	 	 	 	 	 	 	 	 	 	1581465786	4.52	8.37
12/02/2020 00:03:07	120220	12022020	000307	114.65	13.918302	-56.970187	114.92	-0.590	1.130	2.820	114.74	-0.40	3.20	 	 	 	 	 	 	 	 	 	 	 	 	 	 	 	 	 	 	1581465787	4.77	8.83
12/02/2020 00:03:08	120220	12022020	000308	115.04	13.918288	-56.970165	115.25	-0.320	0.490	2.560	115.08	-1.20	3.00	 	 	 	 	 	 	 	 	 	 	 	 	 	 	 	 	 	 	1581465788	5.31	9.83
12/02/2020 00:03:09	120220	12022020	000309	115.09	13.918275	-56.970142	115.20	0.110	-0.630	2.490	115.04	-2.40	3.00	 	 	 	 	 	 	 	 	 	 	 	 	 	 	 	 	 	 	1581465789	5.80	10.74
12/02/2020 00:03:10	120220	12022020	000310	114.75	13.918260	-56.970117	114.80	0.630	-1.680	2.790	114.65	-3.20	3.40	 	 	 	 	 	 	 	 	 	 	 	 	 	 	 	 	 	 	1581465790	6.12	11.33
12/02/2020 00:03:11	120220	12022020	000311	114.26	13.918247	-56.970092	114.33	1.000	-1.970	3.040	114.17	-3.20	3.50	 	 	 	 	 	 	 	 	 	 	 	 	 	 	 	 	 	 	1581465791	5.95	11.02
12/02/2020 00:03:12	120220	12022020	000312	113.89	13.918237	-56.970070	114.02	0.920	-1.140	2.890	113.85	-2.00	3.30	 	 	 	 	 	 	 	 	 	 	 	 	 	 	 	 	 	 	1581465792	5.15	9.54
12/02/2020 00:03:13	120220	12022020	000313	113.88	13.918228	-56.970052	114.11	0.270	0.330	2.480	113.93	-0.60	2.80	 	 	 	 	 	 	 	 	 	 	 	 	 	 	 	 	 	 	1581465793	4.29	7.95
12/02/2020 00:03:14	120220	12022020	000314	114.24	13.918220	-56.970033	114.53	-0.570	1.440	2.160	114.34	0.20	2.60	 	 	 	 	 	 	 	 	 	 	 	 	 	 	 	 	 	 	1581465794	4.08	7.56
12/02/2020 00:03:15	120220	12022020	000315	114.72	13.918208	-56.970015	114.98	-1.050	1.500	1.990	114.80	-0.10	2.50	 	 	 	 	 	 	 	 	 	 	 	 	 	 	 	 	 	 	1581465795	4.75	8.80
12/02/2020 00:03:16	120220	12022020	000316	114.95	13.918193	-56.969992	115.11	-0.890	0.480	2.160	114.94	-1.40	2.80	 	 	 	 	 	 	 	 	 	 	 	 	 	 	 	 	 	 	1581465796	5.77	10.69
12/02/2020 00:03:17	120220	12022020	000317	114.75	13.918175	-56.969967	114.83	-0.200	-1.110	2.830	114.68	-2.90	3.60	 	 	 	 	 	 	 	 	 	 	 	 	 	 	 	 	 	 	1581465797	6.74	12.48
12/02/2020 00:03:18	120220	12022020	000318	114.32	13.918153	-56.969940	114.40	0.550	-2.170	3.740	114.23	-3.50	4.50	 	 	 	 	 	 	 	 	 	 	 	 	 	 	 	 	 	 	1581465798	7.07	13.09
12/02/2020 00:03:19	120220	12022020	000319	113.95	13.918135	-56.969920	114.09	0.840	-1.600	4.210	113.90	-2.50	4.70	 	 	 	 	 	 	 	 	 	 	 	 	 	 	 	 	 	 	1581465799	5.88	10.89
12/02/2020 00:03:20	120220	12022020	000320	113.86	13.918125	-56.969903	114.05	0.610	0.150	3.790	113.87	-0.70	4.00	 	 	 	 	 	 	 	 	 	 	 	 	 	 	 	 	 	 	1581465800	4.06	7.52
12/02/2020 00:03:21	120220	12022020	000321	114.04	13.918122	-56.969885	114.25	0.170	1.490	2.760	114.09	0.30	2.90	 	 	 	 	 	 	 	 	 	 	 	 	 	 	 	 	 	 	1581465801	3.70	6.85
12/02/2020 00:03:22	120220	12022020	000322	114.29	13.918117	-56.969863	114.48	-0.130	1.450	1.790	114.32	-0.20	2.10	 	 	 	 	 	 	 	 	 	 	 	 	 	 	 	 	 	 	1581465802	4.81	8.91
12/02/2020 00:03:23	120220	12022020	000323	114.47	13.918108	-56.969837	114.65	-0.290	0.380	1.280	114.50	-1.40	1.70	 	 	 	 	 	 	 	 	 	 	 	 	 	 	 	 	 	 	1581465803	5.89	10.91
12/02/2020 00:03:24	120220	12022020	000324	114.66	13.918095	-56.969812	114.86	-0.450	-0.700	1.360	114.70	-2.30	2.00	 	 	 	 	 	 	 	 	 	 	 	 	 	 	 	 	 	 	1581465804	6.15	11.39
12/02/2020 00:03:25	120220	12022020	000325	114.80	13.918077	-56.969790	114.96	-0.580	-1.110	1.870	114.81	-2.50	2.50	 	 	 	 	 	 	 	 	 	 	 	 	 	 	 	 	 	 	1581465805	5.72	10.59
12/02/2020 00:03:26	120220	12022020	000326	114.69	13.918060	-56.969772	114.78	-0.400	-1.130	2.490	114.69	-2.50	2.80	 	 	 	 	 	 	 	 	 	 	 	 	 	 	 	 	 	 	1581465806	5.37	9.95
12/02/2020 00:03:27	120220	12022020	000327	114.27	13.918042	-56.969752	114.31	0.280	-1.270	3.040	114.17	-2.60	3.60	 	 	 	 	 	 	 	 	 	 	 	 	 	 	 	 	 	 	1581465807	5.67	10.50
12/02/2020 00:03:28	120220	12022020	000328	113.79	13.918027	-56.969728	113.89	1.000	-1.080	3.280	113.73	-2.20	3.70	 	 	 	 	 	 	 	 	 	 	 	 	 	 	 	 	 	 	1581465808	5.91	10.95
12/02/2020 00:03:29	120220	12022020	000329	113.68	13.918017	-56.969707	113.87	0.980	0.040	2.830	113.71	-0.90	3.00	 	 	 	 	 	 	 	 	 	 	 	 	 	 	 	 	 	 	1581465809	5.01	9.28
12/02/2020 00:03:30	120220	12022020	000330	114.03	13.918013	-56.969688	114.28	0.170	1.360	1.940	114.13	0.20	2.20	 	 	 	 	 	 	 	 	 	 	 	 	 	 	 	 	 	 	1581465810	4.10	7.59
12/02/2020 00:03:31	120220	12022020	000331	114.48	13.918007	-56.969668	114.67	-0.700	1.610	1.410	114.53	0.00	1.90	 	 	 	 	 	 	 	 	 	 	 	 	 	 	 	 	 	 	1581465811	4.33	8.02
12/02/2020 00:03:32	120220	12022020	000332	114.55	13.917993	-56.969645	114.67	-0.900	0.470	1.650	114.53	-1.40	2.30	 	 	 	 	 	 	 	 	 	 	 	 	 	 	 	 	 	 	1581465812	5.74	10.63
12/02/2020 00:03:33	120220	12022020	000333	114.43	13.917977	-56.969618	114.58	-0.490	-0.990	2.150	114.42	-2.70	2.80	 	 	 	 	 	 	 	 	 	 	 	 	 	 	 	 	 	 	1581465813	6.68	12.37
12/02/2020 00:03:34	120220	12022020	000334	114.43	13.917958	-56.969593	114.61	0.080	-1.680	2.610	114.45	-3.00	3.20	 	 	 	 	 	 	 	 	 	 	 	 	 	 	 	 	 	 	1581465814	6.41	11.87
12/02/2020 00:03:35	120220	12022020	000335	114.49	13.917942	-56.969575	114.64	0.360	-1.140	2.830	114.49	-2.10	3.30	 	 	 	 	 	 	 	 	 	 	 	 	 	 	 	 	 	 	1581465815	5.34	9.89
12/02/2020 00:03:36	120220	12022020	000336	114.52	13.917930	-56.969558	114.67	0.280	0.120	2.730	114.53	-0.90	3.10	 	 	 	 	 	 	 	 	 	 	 	 	 	 	 	 	 	 	1581465816	4.21	7.80
12/02/2020 00:03:37	120220	12022020	000337	114.60	13.917922	-56.969542	114.77	0.010	1.050	2.410	114.63	-0.30	2.70	 	 	 	 	 	 	 	 	 	 	 	 	 	 	 	 	 	 	1581465817	3.89	7.20
12/02/2020 00:03:38	120220	12022020	000338	114.68	13.917912	-56.969522	114.79	-0.060	0.580	1.990	114.67	-1.20	2.40	 	 	 	 	 	 	 	 	 	 	 	 	 	 	 	 	 	 	1581465818	4.95	9.17
12/02/2020 00:03:39	120220	12022020	000339	114.49	13.917898	-56.969493	114.56	0.180	-0.880	1.790	114.44	-2.60	2.30	 	 	 	 	 	 	 	 	 	 	 	 	 	 	 	 	 	 	1581465819	6.52	12.08
12/02/2020 00:03:40	120220	12022020	000340	114.25	13.917883	-56.969465	114.37	0.470	-1.630	1.840	114.23	-2.90	2.30	 	 	 	 	 	 	 	 	 	 	 	 	 	 	 	 	 	 	1581465820	6.63	12.28
12/02/2020 00:03:41	120220	12022020	000341	114.24	13.917873	-56.969443	114.40	0.430	-0.900	1.850	114.26	-1.80	2.30	 	 	 	 	 	 	 	 	 	 	 	 	 	 	 	 	 	 	1581465821	5.23	9.69
12/02/2020 00:03:42	120220	12022020	000342	114.42	13.917865	-56.969425	114.62	-0.130	0.560	1.810	114.48	-0.40	2.30	 	 	 	 	 	 	 	 	 	 	 	 	 	 	 	 	 	 	1581465822	3.99	7.39
12/02/2020 00:03:43	120220	12022020	000343	114.82	13.917855	-56.969412	115.07	-1.000	1.620	1.950	114.92	0.30	2.60	 	 	 	 	 	 	 	 	 	 	 	 	 	 	 	 	 	 	1581465823	3.71	6.87
12/02/2020 00:03:44	120220	12022020	000344	115.23	13.917840	-56.969395	115.45	-1.460	1.270	2.520	115.28	-0.60	3.20	 	 	 	 	 	 	 	 	 	 	 	 	 	 	 	 	 	 	1581465824	4.83	8.95
12/02/2020 00:03:45	120220	12022020	000345	115.27	13.917817	-56.969373	115.37	-0.860	-0.560	3.210	115.21	-2.60	3.90	 	 	 	 	 	 	 	 	 	 	 	 	 	 	 	 	 	 	1581465825	6.68	12.37
12/02/2020 00:03:46	120220	12022020	000346	114.82	13.917793	-56.969347	114.85	0.490	-2.350	3.680	114.71	-4.00	4.20	 	 	 	 	 	 	 	 	 	 	 	 	 	 	 	 	 	 	1581465826	7.49	13.87
12/02/2020 00:03:47	120220	12022020	000347	114.38	13.917777	-56.969322	114.50	1.570	-2.440	3.680	114.34	-3.40	4.00	 	 	 	 	 	 	 	 	 	 	 	 	 	 	 	 	 	 	1581465827	6.44	11.93
12/02/2020 00:03:48	120220	12022020	000348	114.39	13.917770	-56.969302	114.60	1.570	-0.710	3.040	114.44	-1.40	3.20	 	 	 	 	 	 	 	 	 	 	 	 	 	 	 	 	 	 	1581465828	4.34	8.04
12/02/2020 00:03:49	120220	12022020	000349	114.69	13.917768	-56.969285	114.90	0.610	1.310	2.000	114.76	0.40	2.20	 	 	 	 	 	 	 	 	 	 	 	 	 	 	 	 	 	 	1581465829	3.40	6.30
12/02/2020 00:03:50	120220	12022020	000350	115.05	13.917767	-56.969268	115.27	-0.630	2.350	1.040	115.14	1.00	1.30	 	 	 	 	 	 	 	 	 	 	 	 	 	 	 	 	 	 	1581465830	3.74	6.93
12/02/2020 00:03:51	120220	12022020	000351	115.47	13.917758	-56.969248	115.68	-1.470	1.920	0.750	115.53	0.10	1.30	 	 	 	 	 	 	 	 	 	 	 	 	 	 	 	 	 	 	1581465831	4.54	8.41
12/02/2020 00:03:52	120220	12022020	000352	115.68	13.917740	-56.969227	115.81	-1.440	0.230	1.230	115.67	-1.80	1.90	 	 	 	 	 	 	 	 	 	 	 	 	 	 	 	 	 	 	1581465832	5.98	11.07
12/02/2020 00:03:53	120220	12022020	000353	115.48	13.917718	-56.969203	115.57	-0.590	-1.710	1.970	115.41	-3.60	2.70	 	 	 	 	 	 	 	 	 	 	 	 	 	 	 	 	 	 	1581465833	6.87	12.72
12/02/2020 00:03:54	120220	12022020	000354	114.97	13.917697	-56.969180	115.01	0.560	-2.850	2.730	114.85	-4.30	3.40	 	 	 	 	 	 	 	 	 	 	 	 	 	 	 	 	 	 	1581465834	6.65	12.32
12/02/2020 00:03:55	120220	12022020	000355	114.35	13.917680	-56.969158	114.42	1.330	-2.550	3.260	114.25	-3.50	3.80	 	 	 	 	 	 	 	 	 	 	 	 	 	 	 	 	 	 	1581465835	5.74	10.63
12/02/2020 00:03:56	120220	12022020	000356	114.10	13.917670	-56.969140	114.31	1.260	-0.840	3.240	114.13	-1.50	3.60	 	 	 	 	 	 	 	 	 	 	 	 	 	 	 	 	 	 	1581465836	4.42	8.19
12/02/2020 00:03:57	120220	12022020	000357	114.41	13.917665	-56.969125	114.67	0.470	1.280	2.720	114.51	0.40	3.00	 	 	 	 	 	 	 	 	 	 	 	 	 	 	 	 	 	 	1581465837	3.39	6.28
12/02/2020 00:03:58	120220	12022020	000358	114.77	13.917658	-56.969108	114.94	-0.480	2.360	2.060	114.81	1.00	2.40	 	 	 	 	 	 	 	 	 	 	 	 	 	 	 	 	 	 	1581465838	3.68	6.82
12/02/2020 00:03:59	120220	12022020	000359	114.80	13.917647	-56.969088	114.90	-1.020	1.840	1.740	114.77	0.00	2.20	 	 	 	 	 	 	 	 	 	 	 	 	 	 	 	 	 	 	1581465839	4.94	9.15
12/02/2020 00:04:00	120220	12022020	000400	114.68	13.917632	-56.969063	114.80	-0.870	0.240	1.860	114.67	-1.70	2.40	 	 	 	 	 	 	 	 	 	 	 	 	 	 	 	 	 	 	1581465840	6.18	11.45
12/02/2020 00:04:01	120220	12022020	000401	114.65	13.917613	-56.969038	114.81	-0.230	-1.240	2.060	114.65	-2.90	2.60	 	 	 	 	 	 	 	 	 	 	 	 	 	 	 	 	 	 	1581465841	6.49	12.02
12/02/2020 00:04:02	120220	12022020	000402	114.61	13.917598	-56.969015	114.72	0.320	-1.720	2.310	114.58	-3.00	2.90	1016.90	26.10	26.20	20.80	20.90	-1.0	72.0	72.0	394.0	25.8	317.00	15.30	64.00	13.50	16	9930.0	27.2	27.2	1581465842	5.78	10.70
12/02/2020 00:04:03	120220	12022020	000403	114.42	13.917585	-56.968997	114.48	0.440	-1.300	2.630	114.35	-2.40	3.20	 	 	 	 	 	 	 	 	 	 	 	 	 	 	 	 	 	 	1581465843	4.85	8.98
12/02/2020 00:04:04	120220	12022020	000404	114.02	13.917573	-56.968980	114.05	0.330	-0.590	2.950	113.92	-1.70	3.50	 	 	 	 	 	 	 	 	 	 	 	 	 	 	 	 	 	 	1581465844	4.53	8.39
12/02/2020 00:04:05	120220	12022020	000405	113.65	13.917562	-56.968960	113.77	0.300	0.000	2.990	113.63	-1.20	3.40	 	 	 	 	 	 	 	 	 	 	 	 	 	 	 	 	 	 	1581465845	4.65	8.61
12/02/2020 00:04:06	120220	12022020	000406	113.72	13.917552	-56.968938	113.94	0.340	0.270	2.650	113.79	-1.10	3.00	 	 	 	 	 	 	 	 	 	 	 	 	 	 	 	 	 	 	1581465846	4.99	9.24
12/02/2020 00:04:07	120220	12022020	000407	114.17	13.917543	-56.968917	114.41	0.280	0.250	2.160	114.25	-1.10	2.60	 	 	 	 	 	 	 	 	 	 	 	 	 	 	 	 	 	 	1581465847	5.26	9.74
12/02/2020 00:04:08	120220	12022020	000408	114.49	13.917530	-56.968893	114.65	0.020	0.140	2.080	114.51	-1.20	2.70	 	 	 	 	 	 	 	 	 	 	 	 	 	 	 	 	 	 	1581465848	5.36	9.93
12/02/2020 00:04:09	120220	12022020	000409	114.41	13.917517	-56.968873	114.50	-0.340	0.180	2.530	114.36	-1.10	3.20	 	 	 	 	 	 	 	 	 	 	 	 	 	 	 	 	 	 	1581465849	5.27	9.76
12/02/2020 00:04:10	120220	12022020	000410	114.14	13.917500	-56.968855	114.25	-0.610	0.270	3.010	114.10	-1.10	3.60	 	 	 	 	 	 	 	 	 	 	 	 	 	 	 	 	 	 	1581465850	5.02	9.30
12/02/2020 00:04:11	120220	12022020	000411	113.98	13.917487	-56.968837	114.13	-0.520	-0.010	3.160	113.96	-1.60	3.60	 	 	 	 	 	 	 	 	 	 	 	 	 	 	 	 	 	 	1581465851	5.11	9.46
12/02/2020 00:04:12	120220	12022020	000412	113.89	13.917472	-56.968813	114.02	0.010	-0.740	2.980	113.86	-2.30	3.30	 	 	 	 	 	 	 	 	 	 	 	 	 	 	 	 	 	 	1581465852	5.64	10.45
12/02/2020 00:04:13	120220	12022020	000413	113.75	13.917462	-56.968788	113.89	0.620	-1.230	2.520	113.73	-2.60	2.80	 	 	 	 	 	 	 	 	 	 	 	 	 	 	 	 	 	 	1581465853	5.88	10.89
12/02/2020 00:04:14	120220	12022020	000414	113.79	13.917453	-56.968763	113.98	0.810	-0.920	1.990	113.85	-2.00	2.40	 	 	 	 	 	 	 	 	 	 	 	 	 	 	 	 	 	 	1581465854	5.35	9.91
12/02/2020 00:04:15	120220	12022020	000415	114.22	13.917447	-56.968743	114.48	0.380	-0.050	1.700	114.35	-1.10	2.20	 	 	 	 	 	 	 	 	 	 	 	 	 	 	 	 	 	 	1581465855	4.58	8.48
12/02/2020 00:04:16	120220	12022020	000416	114.86	13.917435	-56.968727	115.11	-0.380	0.740	1.820	114.97	-0.50	2.40	 	 	 	 	 	 	 	 	 	 	 	 	 	 	 	 	 	 	1581465856	4.29	7.95
12/02/2020 00:04:17	120220	12022020	000417	115.19	13.917418	-56.968710	115.31	-0.830	0.810	2.290	115.18	-0.70	3.00	 	 	 	 	 	 	 	 	 	 	 	 	 	 	 	 	 	 	1581465857	4.87	9.02
12/02/2020 00:04:18	120220	12022020	000418	114.92	13.917400	-56.968688	114.94	-0.520	-0.020	2.870	114.81	-1.70	3.50	 	 	 	 	 	 	 	 	 	 	 	 	 	 	 	 	 	 	1581465858	5.90	10.93
12/02/2020 00:04:19	120220	12022020	000419	114.30	13.917383	-56.968665	114.32	0.350	-0.980	3.240	114.19	-2.50	3.70	 	 	 	 	 	 	 	 	 	 	 	 	 	 	 	 	 	 	1581465859	6.43	11.91
12/02/2020 00:04:20	120220	12022020	000420	113.86	13.917372	-56.968638	114.00	1.040	-1.110	3.120	113.83	-2.30	3.50	 	 	 	 	 	 	 	 	 	 	 	 	 	 	 	 	 	 	1581465860	5.88	10.89
12/02/2020 00:04:21	120220	12022020	000421	113.92	13.917363	-56.968617	114.13	0.930	-0.470	2.550	113.97	-1.60	2.80	 	 	 	 	 	 	 	 	 	 	 	 	 	 	 	 	 	 	1581465861	5.00	9.26
12/02/2020 00:04:22	120220	12022020	000422	114.28	13.917357	-56.968597	114.53	0.120	0.270	1.970	114.37	-0.90	2.40	 	 	 	 	 	 	 	 	 	 	 	 	 	 	 	 	 	 	1581465862	4.55	8.43
12/02/2020 00:04:23	120220	12022020	000423	114.76	13.917347	-56.968577	114.99	-0.830	0.780	1.840	114.85	-0.50	2.40	 	 	 	 	 	 	 	 	 	 	 	 	 	 	 	 	 	 	1581465863	4.52	8.37
12/02/2020 00:04:24	120220	12022020	000424	115.16	13.917332	-56.968560	115.35	-1.320	0.800	2.170	115.23	-0.70	2.80	 	 	 	 	 	 	 	 	 	 	 	 	 	 	 	 	 	 	1581465864	4.90	9.07
12/02/2020 00:04:25	120220	12022020	000425	115.33	13.917312	-56.968542	115.44	-0.950	0.060	2.530	115.32	-1.60	3.10	 	 	 	 	 	 	 	 	 	 	 	 	 	 	 	 	 	 	1581465865	5.68	10.52
12/02/2020 00:04:26	120220	12022020	000426	115.10	13.917293	-56.968518	115.12	0.030	-1.040	2.850	115.01	-2.70	3.40	 	 	 	 	 	 	 	 	 	 	 	 	 	 	 	 	 	 	1581465866	6.36	11.78
12/02/2020 00:04:27	120220	12022020	000427	114.54	13.917277	-56.968493	114.50	0.900	-1.570	3.060	114.41	-2.90	3.50	 	 	 	 	 	 	 	 	 	 	 	 	 	 	 	 	 	 	1581465867	6.19	11.46
12/02/2020 00:04:28	120220	12022020	000428	114.01	13.917267	-56.968470	114.03	1.120	-1.050	2.710	114.01	-2.70	3.40	 	 	 	 	 	 	 	 	 	 	 	 	 	 	 	 	 	 	1581465868	5.30	9.82
12/02/2020 00:04:29	120220	12022020	000429	113.85	13.917263	-56.968448	113.97	0.650	0.020	1.940	113.87	-1.00	2.20	 	 	 	 	 	 	 	 	 	 	 	 	 	 	 	 	 	 	1581465869	4.60	8.52
12/02/2020 00:04:30	120220	12022020	000430	114.09	13.917257	-56.968428	114.29	-0.170	0.830	1.400	114.18	-0.40	1.80	 	 	 	 	 	 	 	 	 	 	 	 	 	 	 	 	 	 	1581465870	4.45	8.24
12/02/2020 00:04:31	120220	12022020	000431	114.57	13.917245	-56.968408	114.78	-0.850	0.860	1.360	114.66	-0.60	1.90	 	 	 	 	 	 	 	 	 	 	 	 	 	 	 	 	 	 	1581465871	4.95	9.17
12/02/2020 00:04:32	120220	12022020	000432	114.97	13.917228	-56.968387	115.13	-1.000	0.230	1.770	115.00	-1.40	2.50	 	 	 	 	 	 	 	 	 	 	 	 	 	 	 	 	 	 	1581465872	5.81	10.76
12/02/2020 00:04:33	120220	12022020	000433	114.92	13.917208	-56.968365	114.98	-0.540	-0.570	2.550	114.85	-2.10	3.30	 	 	 	 	 	 	 	 	 	 	 	 	 	 	 	 	 	 	1581465873	6.34	11.74
12/02/2020 00:04:34	120220	12022020	000434	114.42	13.917188	-56.968343	114.45	0.160	-0.970	3.390	114.30	-2.30	4.10	 	 	 	 	 	 	 	 	 	 	 	 	 	 	 	 	 	 	1581465874	6.21	11.50
12/02/2020 00:04:35	120220	12022020	000435	113.81	13.917172	-56.968322	113.85	0.640	-0.810	3.860	113.70	-2.00	4.40	 	 	 	 	 	 	 	 	 	 	 	 	 	 	 	 	 	 	1581465875	5.64	10.45
12/02/2020 00:04:36	120220	12022020	000436	113.37	13.917160	-56.968302	113.49	0.680	-0.280	3.650	113.34	-1.40	3.90	 	 	 	 	 	 	 	 	 	 	 	 	 	 	 	 	 	 	1581465876	5.09	9.43
12/02/2020 00:04:37	120220	12022020	000437	113.34	13.917153	-56.968280	113.55	0.360	0.380	2.810	113.39	-0.80	3.00	 	 	 	 	 	 	 	 	 	 	 	 	 	 	 	 	 	 	1581465877	4.77	8.83
12/02/2020 00:04:38	120220	12022020	000438	113.75	13.917148	-56.968257	114.03	-0.100	0.810	1.790	113.88	-0.50	2.00	 	 	 	 	 	 	 	 	 	 	 	 	 	 	 	 	 	 	1581465878	4.74	8.78
12/02/2020 00:04:39	120220	12022020	000439	114.44	13.917142	-56.968235	114.70	-0.390	0.610	1.040	114.57	-1.00	1.40	 	 	 	 	 	 	 	 	 	 	 	 	 	 	 	 	 	 	1581465879	4.98	9.22
12/02/2020 00:04:40	120220	12022020	000440	114.86	13.917128	-56.968210	114.99	-0.280	-0.460	0.930	114.86	-2.30	1.60	 	 	 	 	 	 	 	 	 	 	 	 	 	 	 	 	 	 	1581465880	5.84	10.82
12/02/2020 00:04:41	120220	12022020	000441	114.63	13.917110	-56.968185	114.65	0.100	-1.660	1.640	114.53	-3.20	2.50	 	 	 	 	 	 	 	 	 	 	 	 	 	 	 	 	 	 	1581465881	6.72	12.45
12/02/2020 00:04:42	120220	12022020	000442	114.02	13.917090	-56.968162	114.01	0.340	-1.740	2.750	113.87	-2.80	3.50	 	 	 	 	 	 	 	 	 	 	 	 	 	 	 	 	 	 	1581465882	6.34	11.74
12/02/2020 00:04:43	120220	12022020	000443	113.36	13.917073	-56.968145	113.40	0.250	-0.570	3.470	113.26	-1.40	4.00	 	 	 	 	 	 	 	 	 	 	 	 	 	 	 	 	 	 	1581465883	5.03	9.32
12/02/2020 00:04:44	120220	12022020	000444	113.11	13.917063	-56.968128	113.33	-0.130	0.840	3.350	113.15	-0.20	3.60	 	 	 	 	 	 	 	 	 	 	 	 	 	 	 	 	 	 	1581465884	4.19	7.76
12/02/2020 00:04:45	120220	12022020	000445	113.59	13.917055	-56.968108	113.91	-0.600	1.460	2.660	113.74	0.00	2.90	 	 	 	 	 	 	 	 	 	 	 	 	 	 	 	 	 	 	1581465885	4.32	8.00
12/02/2020 00:04:46	120220	12022020	000446	114.25	13.917045	-56.968085	114.51	-0.670	0.640	2.150	114.35	-1.20	2.60	 	 	 	 	 	 	 	 	 	 	 	 	 	 	 	 	 	 	1581465886	5.45	10.09
12/02/2020 00:04:47	120220	12022020	000447	114.55	13.917028	-56.968058	114.71	-0.070	-0.930	2.140	114.56	-2.60	2.70	 	 	 	 	 	 	 	 	 	 	 	 	 	 	 	 	 	 	1581465887	6.83	12.65
12/02/2020 00:04:48	120220	12022020	000448	114.46	13.917012	-56.968030	114.56	0.630	-1.540	2.440	114.42	-2.70	3.00	 	 	 	 	 	 	 	 	 	 	 	 	 	 	 	 	 	 	1581465888	6.65	12.32
12/02/2020 00:04:49	120220	12022020	000449	114.25	13.916998	-56.968012	114.36	0.760	-0.710	2.760	114.22	-1.70	3.30	 	 	 	 	 	 	 	 	 	 	 	 	 	 	 	 	 	 	1581465889	5.03	9.32
12/02/2020 00:04:50	120220	12022020	000450	114.15	13.916990	-56.967995	114.27	0.320	0.470	2.720	114.15	-0.70	3.10	 	 	 	 	 	 	 	 	 	 	 	 	 	 	 	 	 	 	1581465890	3.99	7.39
12/02/2020 00:04:51	120220	12022020	000451	114.20	13.916982	-56.967975	114.34	-0.100	0.840	2.320	114.23	-0.60	2.70	 	 	 	 	 	 	 	 	 	 	 	 	 	 	 	 	 	 	1581465891	4.37	8.09
12/02/2020 00:04:52	120220	12022020	000452	114.41	13.916972	-56.967952	114.61	-0.240	0.330	1.950	114.49	-1.20	2.40	 	 	 	 	 	 	 	 	 	 	 	 	 	 	 	 	 	 	1581465892	5.48	10.15
12/02/2020 00:04:53	120220	12022020	000453	114.99	13.916958	-56.967928	115.29	-0.410	-0.240	1.770	115.14	-1.70	2.30	 	 	 	 	 	 	 	 	 	 	 	 	 	 	 	 	 	 	1581465893	5.76	10.67
12/02/2020 00:04:54	120220	12022020	000454	115.67	13.916942	-56.967908	115.92	-0.580	-0.540	1.970	115.77	-1.90	2.60	 	 	 	 	 	 	 	 	 	 	 	 	 	 	 	 	 	 	1581465894	5.59	10.35
12/02/2020 00:04:55	120220	12022020	000455	115.91	13.916922	-56.967890	116.00	-0.360	-0.670	2.530	115.86	-2.10	3.20	 	 	 	 	 	 	 	 	 	 	 	 	 	 	 	 	 	 	1581465895	5.49	10.17
12/02/2020 00:04:56	120220	12022020	000456	115.45	13.916905	-56.967870	115.45	0.370	-0.760	3.120	115.32	-2.10	3.70	 	 	 	 	 	 	 	 	 	 	 	 	 	 	 	 	 	 	1581465896	5.54	10.26
12/02/2020 00:04:57	120220	12022020	000457	114.91	13.916893	-56.967848	114.99	0.950	-0.540	3.140	114.86	-1.80	3.50	 	 	 	 	 	 	 	 	 	 	 	 	 	 	 	 	 	 	1581465897	5.34	9.89
12/02/2020 00:04:58	120220	12022020	000458	114.77	13.916887	-56.967825	114.92	0.840	-0.150	2.670	114.78	-1.40	3.00	 	 	 	 	 	 	 	 	 	 	 	 	 	 	 	 	 	 	1581465898	5.07	9.39
12/02/2020 00:04:59	120220	12022020	000459	114.91	13.916878	-56.967802	115.08	0.180	0.050	2.200	114.95	-1.30	2.60	 	 	 	 	 	 	 	 	 	 	 	 	 	 	 	 	 	 	1581465899	5.11	9.46
12/02/2020 00:05:00	120220	12022020	000500	115.21	13.916867	-56.967780	115.43	-0.560	0.150	1.990	115.30	-1.20	2.50	 	 	 	 	 	 	 	 	 	 	 	 	 	 	 	 	 	 	1581465900	5.26	9.74
12/02/2020 00:05:01	120220	12022020	000501	115.70	13.916852	-56.967760	115.93	-0.980	0.270	1.960	115.80	-1.10	2.50	 	 	 	 	 	 	 	 	 	 	 	 	 	 	 	 	 	 	1581465901	5.24	9.70
12/02/2020 00:05:02	120220	12022020	000502	116.05	13.916833	-56.967742	116.20	-0.840	0.110	2.270	116.07	-1.40	2.90	1016.80	26.20	26.20	20.70	20.80	-1.0	71.0	72.0	390.0	25.8	319.00	15.20	65.00	13.30	16	10277.0	27.2	27.2	1581465902	5.49	10.17
12/02/2020 00:05:03	120220	12022020	000503	115.92	13.916813	-56.967722	115.96	-0.200	-0.430	2.920	115.83	-1.90	3.60	 	 	 	 	 	 	 	 	 	 	 	 	 	 	 	 	 	 	1581465903	6.07	11.24
12/02/2020 00:05:04	120220	12022020	000504	115.43	13.916795	-56.967700	115.47	0.480	-0.800	3.340	115.34	-2.10	3.80	 	 	 	 	 	 	 	 	 	 	 	 	 	 	 	 	 	 	1581465904	6.19	11.46
12/02/2020 00:05:05	120220	12022020	000505	115.09	13.916782	-56.967677	115.21	0.660	-0.390	3.100	115.08	-1.40	3.40	 	 	 	 	 	 	 	 	 	 	 	 	 	 	 	 	 	 	1581465905	5.42	10.04
12/02/2020 00:05:06	120220	12022020	000506	115.24	13.916775	-56.967657	115.46	0.280	0.570	2.290	115.32	-0.50	2.50	 	 	 	 	 	 	 	 	 	 	 	 	 	 	 	 	 	 	1581465906	4.36	8.07
12/02/2020 00:05:07	120220	12022020	000507	115.75	13.916770	-56.967638	115.98	-0.240	1.040	1.450	115.86	-0.50	1.80	 	 	 	 	 	 	 	 	 	 	 	 	 	 	 	 	 	 	1581465907	4.15	7.69
12/02/2020 00:05:08	120220	12022020	000508	116.20	13.916760	-56.967615	116.33	-0.270	0.060	1.150	116.24	-1.90	1.70	 	 	 	 	 	 	 	 	 	 	 	 	 	 	 	 	 	 	1581465908	5.22	9.67
12/02/2020 00:05:09	120220	12022020	000509	116.13	13.916742	-56.967588	116.13	0.340	-1.770	1.710	116.03	-3.50	2.50	 	 	 	 	 	 	 	 	 	 	 	 	 	 	 	 	 	 	1581465909	6.97	12.91
12/02/2020 00:05:10	120220	12022020	000510	115.47	13.916722	-56.967563	115.45	0.770	-2.210	2.760	115.33	-3.20	3.50	 	 	 	 	 	 	 	 	 	 	 	 	 	 	 	 	 	 	1581465910	7.00	12.96
12/02/2020 00:05:11	120220	12022020	000511	114.91	13.916705	-56.967547	114.99	0.310	-0.470	3.430	114.86	-1.10	4.00	 	 	 	 	 	 	 	 	 	 	 	 	 	 	 	 	 	 	1581465911	4.76	8.82
12/02/2020 00:05:12	120220	12022020	000512	114.88	13.916695	-56.967538	115.08	-0.700	1.710	3.460	114.92	0.70	3.90	 	 	 	 	 	 	 	 	 	 	 	 	 	 	 	 	 	 	1581465912	3.02	5.59
12/02/2020 00:05:13	120220	12022020	000513	115.17	13.916683	-56.967523	115.39	-1.250	2.120	3.180	115.23	0.40	3.50	 	 	 	 	 	 	 	 	 	 	 	 	 	 	 	 	 	 	1581465913	3.65	6.76
12/02/2020 00:05:14	120220	12022020	000514	115.40	13.916670	-56.967500	115.57	-0.790	0.350	2.740	115.42	-1.80	3.10	 	 	 	 	 	 	 	 	 	 	 	 	 	 	 	 	 	 	1581465914	5.95	11.02
12/02/2020 00:05:15	120220	12022020	000515	115.36	13.916652	-56.967470	115.45	0.210	-1.890	2.430	115.32	-3.70	2.90	 	 	 	 	 	 	 	 	 	 	 	 	 	 	 	 	 	 	1581465915	7.37	13.65
12/02/2020 00:05:16	120220	12022020	000516	115.11	13.916637	-56.967442	115.19	0.960	-2.680	2.480	115.06	-3.80	3.00	 	 	 	 	 	 	 	 	 	 	 	 	 	 	 	 	 	 	1581465916	6.77	12.54
12/02/2020 00:05:17	120220	12022020	000517	114.84	13.916625	-56.967423	114.95	1.010	-1.390	2.700	114.80	-2.00	3.30	 	 	 	 	 	 	 	 	 	 	 	 	 	 	 	 	 	 	1581465917	4.83	8.95
12/02/2020 00:05:18	120220	12022020	000518	114.76	13.916617	-56.967408	114.96	0.450	0.790	2.720	114.79	0.10	3.10	 	 	 	 	 	 	 	 	 	 	 	 	 	 	 	 	 	 	1581465918	3.32	6.15
12/02/2020 00:05:19	120220	12022020	000519	115.12	13.916610	-56.967395	115.39	-0.370	2.250	2.260	115.24	1.00	2.60	 	 	 	 	 	 	 	 	 	 	 	 	 	 	 	 	 	 	1581465919	3.26	6.04
12/02/2020 00:05:20	120220	12022020	000520	115.74	13.916600	-56.967377	115.98	-0.980	2.070	1.810	115.84	0.30	2.30	 	 	 	 	 	 	 	 	 	 	 	 	 	 	 	 	 	 	1581465920	4.30	7.96
12/02/2020 00:05:21	120220	12022020	000521	116.03	13.916585	-56.967355	116.14	-0.930	0.420	2.040	116.01	-1.60	2.80	 	 	 	 	 	 	 	 	 	 	 	 	 	 	 	 	 	 	1581465921	5.83	10.80
12/02/2020 00:05:22	120220	12022020	000522	115.70	13.916563	-56.967330	115.74	-0.250	-1.580	2.840	115.60	-3.40	3.60	 	 	 	 	 	 	 	 	 	 	 	 	 	 	 	 	 	 	1581465922	6.86	12.70
12/02/2020 00:05:23	120220	12022020	000523	115.19	13.916545	-56.967305	115.27	0.450	-2.540	3.430	115.10	-3.80	4.00	 	 	 	 	 	 	 	 	 	 	 	 	 	 	 	 	 	 	1581465923	6.47	11.98
12/02/2020 00:05:24	120220	12022020	000524	114.88	13.916530	-56.967287	115.01	0.610	-1.900	3.690	114.86	-2.80	4.20	 	 	 	 	 	 	 	 	 	 	 	 	 	 	 	 	 	 	1581465924	5.10	9.45
12/02/2020 00:05:25	120220	12022020	000525	114.83	13.916518	-56.967272	114.99	0.320	-0.410	3.630	114.84	-1.30	4.00	 	 	 	 	 	 	 	 	 	 	 	 	 	 	 	 	 	 	1581465925	4.02	7.45
12/02/2020 00:05:26	120220	12022020	000526	114.95	13.916508	-56.967257	115.11	0.120	0.710	3.020	114.99	-0.50	3.20	 	 	 	 	 	 	 	 	 	 	 	 	 	 	 	 	 	 	1581465926	4.01	7.43
12/02/2020 00:05:27	120220	12022020	000527	115.19	13.916500	-56.967233	115.34	0.280	0.880	1.910	115.24	-0.60	2.10	 	 	 	 	 	 	 	 	 	 	 	 	 	 	 	 	 	 	1581465927	4.97	9.20
12/02/2020 00:05:28	120220	12022020	000528	115.47	13.916493	-56.967207	115.60	0.430	0.500	1.040	115.52	-1.00	1.50	 	 	 	 	 	 	 	 	 	 	 	 	 	 	 	 	 	 	1581465928	5.77	10.69
12/02/2020 00:05:29	120220	12022020	000529	115.64	13.916483	-56.967183	115.75	0.080	0.270	0.940	115.66	-1.10	1.50	 	 	 	 	 	 	 	 	 	 	 	 	 	 	 	 	 	 	1581465929	5.47	10.13
12/02/2020 00:05:30	120220	12022020	000530	115.74	13.916472	-56.967165	115.85	-0.710	0.400	1.230	115.76	-0.90	1.90	 	 	 	 	 	 	 	 	 	 	 	 	 	 	 	 	 	 	1581465930	4.77	8.83
12/02/2020 00:05:31	120220	12022020	000531	115.86	13.916457	-56.967148	115.98	-1.300	0.360	1.710	115.87	-1.10	2.40	 	 	 	 	 	 	 	 	 	 	 	 	 	 	 	 	 	 	1581465931	4.64	8.59
12/02/2020 00:05:32	120220	12022020	000532	115.86	13.916437	-56.967132	115.96	-1.030	-0.380	2.410	115.84	-2.10	3.10	 	 	 	 	 	 	 	 	 	 	 	 	 	 	 	 	 	 	1581465932	5.45	10.09
12/02/2020 00:05:33	120220	12022020	000533	115.71	13.916417	-56.967112	115.80	0.090	-1.510	3.060	115.66	-3.10	3.70	 	 	 	 	 	 	 	 	 	 	 	 	 	 	 	 	 	 	1581465933	6.27	11.61
12/02/2020 00:05:34	120220	12022020	000534	115.41	13.916398	-56.967087	115.47	1.240	-2.150	3.410	115.34	-3.50	3.90	 	 	 	 	 	 	 	 	 	 	 	 	 	 	 	 	 	 	1581465934	6.30	11.67
12/02/2020 00:05:35	120220	12022020	000535	115.04	13.916385	-56.967065	115.13	1.610	-1.680	3.280	114.98	-2.60	3.70	 	 	 	 	 	 	 	 	 	 	 	 	 	 	 	 	 	 	1581465935	5.55	10.28
12/02/2020 00:05:36	120220	12022020	000536	114.85	13.916377	-56.967045	115.00	0.980	-0.080	2.880	114.85	-0.80	3.20	 	 	 	 	 	 	 	 	 	 	 	 	 	 	 	 	 	 	1581465936	4.43	8.20
12/02/2020 00:05:37	120220	12022020	000537	114.93	13.916372	-56.967030	115.11	-0.200	1.720	2.260	114.98	0.80	2.60	 	 	 	 	 	 	 	 	 	 	 	 	 	 	 	 	 	 	1581465937	3.54	6.56
12/02/2020 00:05:38	120220	12022020	000538	115.21	13.916363	-56.967013	115.41	-1.270	2.510	1.640	115.29	1.10	2.00	 	 	 	 	 	 	 	 	 	 	 	 	 	 	 	 	 	 	1581465938	3.78	7.00
12/02/2020 00:05:39	120220	12022020	000539	115.64	13.916352	-56.966993	115.84	-1.680	1.850	1.310	115.73	0.00	1.80	 	 	 	 	 	 	 	 	 	 	 	 	 	 	 	 	 	 	1581465939	4.83	8.95
12/02/2020 00:05:40	120220	12022020	000540	116.01	13.916337	-56.966970	116.16	-1.230	0.120	1.380	116.04	-1.90	2.00	 	 	 	 	 	 	 	 	 	 	 	 	 	 	 	 	 	 	1581465940	5.92	10.96
12/02/2020 00:05:41	120220	12022020	000541	116.02	13.916317	-56.966947	116.06	-0.100	-1.810	1.740	115.96	-3.60	2.40	 	 	 	 	 	 	 	 	 	 	 	 	 	 	 	 	 	 	1581465941	6.56	12.15
12/02/2020 00:05:42	120220	12022020	000542	115.57	13.916300	-56.966922	115.55	1.100	-2.870	2.390	115.44	-4.20	3.10	 	 	 	 	 	 	 	 	 	 	 	 	 	 	 	 	 	 	1581465942	6.39	11.83
12/02/2020 00:05:43	120220	12022020	000543	114.95	13.916285	-56.966900	114.97	1.700	-2.520	3.130	114.85	-3.50	3.80	 	 	 	 	 	 	 	 	 	 	 	 	 	 	 	 	 	 	1581465943	5.54	10.26
12/02/2020 00:05:44	120220	12022020	000544	114.59	13.916272	-56.966883	114.70	1.430	-1.020	3.580	114.56	-1.70	4.10	 	 	 	 	 	 	 	 	 	 	 	 	 	 	 	 	 	 	1581465944	4.60	8.52
12/02/2020 00:05:45	120220	12022020	000545	114.59	13.916260	-56.966868	114.76	0.480	0.900	3.500	114.62	0.10	3.80	 	 	 	 	 	 	 	 	 	 	 	 	 	 	 	 	 	 	1581465945	3.94	7.30
12/02/2020 00:05:46	120220	12022020	000546	114.81	13.916252	-56.966852	114.99	-0.670	2.310	2.840	114.86	1.20	3.10	 	 	 	 	 	 	 	 	 	 	 	 	 	 	 	 	 	 	1581465946	3.74	6.93
12/02/2020 00:05:47	120220	12022020	000547	115.04	13.916243	-56.966833	115.19	-1.420	2.450	2.010	115.08	0.80	2.30	 	 	 	 	 	 	 	 	 	 	 	 	 	 	 	 	 	 	1581465947	4.29	7.95
12/02/2020 00:05:48	120220	12022020	000548	115.20	13.916232	-56.966810	115.34	-1.290	1.160	1.530	115.22	-0.80	2.00	 	 	 	 	 	 	 	 	 	 	 	 	 	 	 	 	 	 	1581465948	5.42	10.04
12/02/2020 00:05:49	120220	12022020	000549	115.29	13.916218	-56.966783	115.41	-0.400	-0.820	1.450	115.30	-2.70	2.00	 	 	 	 	 	 	 	 	 	 	 	 	 	 	 	 	 	 	1581465949	6.38	11.82
12/02/2020 00:05:50	120220	12022020	000550	115.35	13.916203	-56.966757	115.45	0.550	-2.360	1.620	115.35	-3.90	2.30	 	 	 	 	 	 	 	 	 	 	 	 	 	 	 	 	 	 	1581465950	6.51	12.06
12/02/2020 00:05:51	120220	12022020	000551	115.31	13.916187	-56.966735	115.38	0.910	-2.520	2.210	115.29	-3.60	3.00	 	 	 	 	 	 	 	 	 	 	 	 	 	 	 	 	 	 	1581465951	5.85	10.83
12/02/2020 00:05:52	120220	12022020	000552	115.06	13.916170	-56.966720	115.08	0.610	-1.220	3.070	114.97	-2.00	3.80	 	 	 	 	 	 	 	 	 	 	 	 	 	 	 	 	 	 	1581465952	4.74	8.78
12/02/2020 00:05:53	120220	12022020	000553	114.57	13.916157	-56.966707	114.60	0.090	0.540	3.620	114.48	-0.40	4.10	 	 	 	 	 	 	 	 	 	 	 	 	 	 	 	 	 	 	1581465953	3.88	7.19
12/02/2020 00:05:54	120220	12022020	000554	114.24	13.916147	-56.966692	114.38	-0.220	1.480	3.390	114.23	0.10	3.70	 	 	 	 	 	 	 	 	 	 	 	 	 	 	 	 	 	 	1581465954	3.98	7.37
12/02/2020 00:05:55	120220	12022020	000555	114.39	13.916138	-56.966668	114.62	-0.170	1.030	2.560	114.47	-0.70	2.80	 	 	 	 	 	 	 	 	 	 	 	 	 	 	 	 	 	 	1581465955	5.18	9.59
12/02/2020 00:05:56	120220	12022020	000556	114.77	13.916128	-56.966642	114.96	0.010	-0.080	1.860	114.77	-1.10	2.60	 	 	 	 	 	 	 	 	 	 	 	 	 	 	 	 	 	 	1581465956	6.12	11.33
12/02/2020 00:05:57	120220	12022020	000557	114.90	13.916115	-56.966617	114.99	0.060	-0.730	1.540	114.88	-2.10	2.00	 	 	 	 	 	 	 	 	 	 	 	 	 	 	 	 	 	 	1581465957	5.88	10.89
12/02/2020 00:05:58	120220	12022020	000558	114.71	13.916105	-56.966597	114.75	-0.050	-0.510	1.570	114.66	-1.70	2.20	 	 	 	 	 	 	 	 	 	 	 	 	 	 	 	 	 	 	1581465958	4.89	9.06
12/02/2020 00:05:59	120220	12022020	000559	114.45	13.916093	-56.966578	114.51	-0.070	-0.170	1.880	114.41	-1.50	2.50	 	 	 	 	 	 	 	 	 	 	 	 	 	 	 	 	 	 	1581465959	4.49	8.32
12/02/2020 00:06:00	120220	12022020	000600	114.41	13.916080	-56.966558	114.56	0.090	-0.270	2.030	114.45	-1.70	2.50	 	 	 	 	 	 	 	 	 	 	 	 	 	 	 	 	 	 	1581465960	4.98	9.22
12/02/2020 00:06:01	120220	12022020	000601	114.70	13.916068	-56.966535	114.90	0.210	-0.480	1.970	114.77	-1.80	2.50	 	 	 	 	 	 	 	 	 	 	 	 	 	 	 	 	 	 	1581465961	5.39	9.98
12/02/2020 00:06:02	120220	12022020	000602	115.05	13.916057	-56.966515	115.21	0.130	-0.400	2.080	115.09	-1.60	2.70	1016.90	26.20	26.20	20.40	20.60	-1.0	70.0	71.0	388.0	25.8	318.00	15.50	65.00	13.70	16	10007.0	27.2	27.2	1581465962	5.22	9.67
12/02/2020 00:06:03	120220	12022020	000603	115.13	13.916042	-56.966497	115.25	-0.120	-0.030	2.640	115.12	-1.20	3.40	 	 	 	 	 	 	 	 	 	 	 	 	 	 	 	 	 	 	1581465963	4.94	9.15
12/02/2020 00:06:04	120220	12022020	000604	114.98	13.916025	-56.966480	115.08	-0.320	0.370	3.260	114.94	-0.90	3.90	 	 	 	 	 	 	 	 	 	 	 	 	 	 	 	 	 	 	1581465964	4.85	8.98
12/02/2020 00:06:05	120220	12022020	000605	114.83	13.916010	-56.966463	114.96	-0.220	0.390	3.370	114.81	-1.10	3.80	 	 	 	 	 	 	 	 	 	 	 	 	 	 	 	 	 	 	1581465965	4.86	9.00
12/02/2020 00:06:06	120220	12022020	000606	114.72	13.915998	-56.966440	114.83	0.300	-0.320	3.030	114.68	-2.00	3.40	 	 	 	 	 	 	 	 	 	 	 	 	 	 	 	 	 	 	1581465966	5.38	9.96
12/02/2020 00:06:07	120220	12022020	000607	114.46	13.915988	-56.966413	114.54	0.890	-1.220	2.590	114.41	-2.60	2.90	 	 	 	 	 	 	 	 	 	 	 	 	 	 	 	 	 	 	1581465967	6.16	11.41
12/02/2020 00:06:08	120220	12022020	000608	114.34	13.915980	-56.966387	114.48	0.860	-1.090	2.150	114.36	-2.10	2.60	 	 	 	 	 	 	 	 	 	 	 	 	 	 	 	 	 	 	1581465968	5.72	10.59
12/02/2020 00:06:09	120220	12022020	000609	114.60	13.915973	-56.966368	114.84	0.040	0.220	1.920	114.70	-0.60	2.40	 	 	 	 	 	 	 	 	 	 	 	 	 	 	 	 	 	 	1581465969	4.15	7.69
12/02/2020 00:06:10	120220	12022020	000610	115.25	13.915965	-56.966355	115.55	-0.950	1.380	1.860	115.41	0.10	2.40	 	 	 	 	 	 	 	 	 	 	 	 	 	 	 	 	 	 	1581465970	3.43	6.35
12/02/2020 00:06:11	120220	12022020	000611	116.01	13.915952	-56.966338	116.26	-1.220	0.930	1.930	116.12	-0.90	2.50	 	 	 	 	 	 	 	 	 	 	 	 	 	 	 	 	 	 	1581465971	4.63	8.57
12/02/2020 00:06:12	120220	12022020	000612	116.26	13.915930	-56.966313	116.35	-0.480	-0.870	2.410	116.23	-2.70	3.20	 	 	 	 	 	 	 	 	 	 	 	 	 	 	 	 	 	 	1581465972	6.69	12.39
12/02/2020 00:06:13	120220	12022020	000613	115.87	13.915908	-56.966288	115.91	0.500	-2.060	3.170	115.76	-3.40	3.80	 	 	 	 	 	 	 	 	 	 	 	 	 	 	 	 	 	 	1581465973	7.21	13.35
12/02/2020 00:06:14	120220	12022020	000614	115.32	13.915892	-56.966268	115.38	0.830	-1.410	3.410	115.23	-2.20	3.80	 	 	 	 	 	 	 	 	 	 	 	 	 	 	 	 	 	 	1581465974	5.52	10.22
12/02/2020 00:06:15	120220	12022020	000615	114.99	13.915883	-56.966253	115.10	0.390	0.420	2.780	114.97	-0.30	2.90	 	 	 	 	 	 	 	 	 	 	 	 	 	 	 	 	 	 	1581465975	3.59	6.65
12/02/2020 00:06:16	120220	12022020	000616	115.03	13.915882	-56.966237	115.20	-0.190	1.780	1.660	115.08	0.50	1.80	 	 	 	 	 	 	 	 	 	 	 	 	 	 	 	 	 	 	1581465976	3.34	6.19
12/02/2020 00:06:17	120220	12022020	000617	115.25	13.915878	-56.966215	115.36	-0.290	1.390	0.790	115.27	-0.40	1.10	 	 	 	 	 	 	 	 	 	 	 	 	 	 	 	 	 	 	1581465977	4.66	8.63
12/02/2020 00:06:18	120220	12022020	000618	115.34	13.915868	-56.966187	115.44	-0.040	-0.250	0.480	115.35	-2.00	1.00	 	 	 	 	 	 	 	 	 	 	 	 	 	 	 	 	 	 	1581465978	6.26	11.59
12/02/2020 00:06:19	120220	12022020	000619	115.49	13.915853	-56.966162	115.63	0.050	-1.430	0.810	115.53	-2.90	1.60	 	 	 	 	 	 	 	 	 	 	 	 	 	 	 	 	 	 	1581465979	6.41	11.87
12/02/2020 00:06:20	120220	12022020	000620	115.70	13.915833	-56.966143	115.84	-0.150	-1.400	1.810	115.70	-2.80	1.90	 	 	 	 	 	 	 	 	 	 	 	 	 	 	 	 	 	 	1581465980	5.60	10.37
12/02/2020 00:06:21	120220	12022020	000621	115.70	13.915813	-56.966132	115.78	-0.250	-0.740	2.990	115.65	-1.90	3.80	 	 	 	 	 	 	 	 	 	 	 	 	 	 	 	 	 	 	1581465981	5.15	9.54
12/02/2020 00:06:22	120220	12022020	000622	115.40	13.915795	-56.966117	115.47	0.010	-0.190	3.640	115.34	-1.40	4.20	 	 	 	 	 	 	 	 	 	 	 	 	 	 	 	 	 	 	1581465982	4.94	9.15
12/02/2020 00:06:23	120220	12022020	000623	115.17	13.915783	-56.966098	115.30	0.280	0.240	3.520	115.15	-1.00	3.90	 	 	 	 	 	 	 	 	 	 	 	 	 	 	 	 	 	 	1581465983	4.76	8.82
12/02/2020 00:06:24	120220	12022020	000624	115.12	13.915775	-56.966077	115.27	0.260	0.400	3.030	115.12	-1.00	3.40	 	 	 	 	 	 	 	 	 	 	 	 	 	 	 	 	 	 	1581465984	4.81	8.91
12/02/2020 00:06:25	120220	12022020	000625	115.13	13.915767	-56.966053	115.28	0.070	0.030	2.530	115.14	-1.40	2.90	 	 	 	 	 	 	 	 	 	 	 	 	 	 	 	 	 	 	1581465985	5.26	9.74
12/02/2020 00:06:26	120220	12022020	000626	115.21	13.915755	-56.966028	115.38	-0.030	-0.480	2.290	115.23	-1.80	2.80	 	 	 	 	 	 	 	 	 	 	 	 	 	 	 	 	 	 	1581465986	5.66	10.48
12/02/2020 00:06:27	120220	12022020	000627	115.29	13.915742	-56.966007	115.46	-0.050	-0.480	2.380	115.30	-1.70	2.90	 	 	 	 	 	 	 	 	 	 	 	 	 	 	 	 	 	 	1581465987	5.42	10.04
12/02/2020 00:06:28	120220	12022020	000628	115.31	13.915727	-56.965988	115.47	-0.110	-0.030	2.420	115.32	-1.20	2.90	 	 	 	 	 	 	 	 	 	 	 	 	 	 	 	 	 	 	1581465988	4.83	8.95
12/02/2020 00:06:29	120220	12022020	000629	115.35	13.915715	-56.965972	115.50	-0.220	0.400	2.290	115.35	-0.90	2.80	 	 	 	 	 	 	 	 	 	 	 	 	 	 	 	 	 	 	1581465989	4.51	8.35
12/02/2020 00:06:30	120220	12022020	000630	115.38	13.915703	-56.965952	115.53	-0.260	0.280	2.200	115.39	-1.20	2.70	 	 	 	 	 	 	 	 	 	 	 	 	 	 	 	 	 	 	1581465990	4.78	8.85
12/02/2020 00:06:31	120220	12022020	000631	115.53	13.915690	-56.965930	115.74	-0.170	-0.310	2.160	115.59	-1.80	2.60	 	 	 	 	 	 	 	 	 	 	 	 	 	 	 	 	 	 	1581465991	5.41	10.02
12/02/2020 00:06:32	120220	12022020	000632	115.86	13.915677	-56.965908	116.07	-0.040	-0.680	2.020	115.92	-2.00	2.50	 	 	 	 	 	 	 	 	 	 	 	 	 	 	 	 	 	 	1581465992	5.44	10.07
12/02/2020 00:06:33	120220	12022020	000633	116.07	13.915663	-56.965888	116.18	0.160	-0.570	1.970	116.06	-1.80	2.60	 	 	 	 	 	 	 	 	 	 	 	 	 	 	 	 	 	 	1581465993	4.99	9.24
12/02/2020 00:06:34	120220	12022020	000634	115.82	13.915650	-56.965868	115.83	0.480	-0.500	2.310	115.73	-1.80	2.90	 	 	 	 	 	 	 	 	 	 	 	 	 	 	 	 	 	 	1581465994	4.94	9.15
12/02/2020 00:06:35	120220	12022020	000635	115.36	13.915637	-56.965847	115.44	0.670	-0.570	2.610	115.30	-1.80	3.20	 	 	 	 	 	 	 	 	 	 	 	 	 	 	 	 	 	 	1581465995	5.42	10.04
12/02/2020 00:06:36	120220	12022020	000636	115.29	13.915625	-56.965825	115.50	0.330	-0.240	2.730	115.33	-1.30	3.30	 	 	 	 	 	 	 	 	 	 	 	 	 	 	 	 	 	 	1581465996	5.21	9.65
12/02/2020 00:06:37	120220	12022020	000637	115.60	13.915612	-56.965808	115.84	-0.440	0.390	2.890	115.68	-0.70	3.40	 	 	 	 	 	 	 	 	 	 	 	 	 	 	 	 	 	 	1581465997	4.63	8.57
12/02/2020 00:06:38	120220	12022020	000638	115.96	13.915598	-56.965792	116.16	-0.990	0.740	2.970	116.01	-0.60	3.50	 	 	 	 	 	 	 	 	 	 	 	 	 	 	 	 	 	 	1581465998	4.57	8.46
12/02/2020 00:06:39	120220	12022020	000639	116.07	13.915583	-56.965773	116.20	-0.770	0.300	2.880	116.06	-1.30	3.40	 	 	 	 	 	 	 	 	 	 	 	 	 	 	 	 	 	 	1581465999	5.17	9.57
12/02/2020 00:06:40	120220	12022020	000640	115.91	13.915567	-56.965750	116.00	-0.060	-0.620	2.900	115.87	-2.20	3.50	 	 	 	 	 	 	 	 	 	 	 	 	 	 	 	 	 	 	1581466000	5.97	11.06
12/02/2020 00:06:41	120220	12022020	000641	115.72	13.915552	-56.965725	115.85	0.480	-1.180	3.140	115.70	-2.50	3.70	 	 	 	 	 	 	 	 	 	 	 	 	 	 	 	 	 	 	1581466001	6.06	11.22
12/02/2020 00:06:42	120220	12022020	000642	115.71	13.915537	-56.965705	115.88	0.530	-0.840	2.980	115.73	-1.90	3.40	 	 	 	 	 	 	 	 	 	 	 	 	 	 	 	 	 	 	1581466002	5.26	9.74
12/02/2020 00:06:43	120220	12022020	000643	115.82	13.915528	-56.965687	115.96	0.310	-0.060	2.470	115.85	-1.20	2.80	 	 	 	 	 	 	 	 	 	 	 	 	 	 	 	 	 	 	1581466003	4.47	8.28
12/02/2020 00:06:44	120220	12022020	000644	115.96	13.915518	-56.965667	116.10	0.070	0.450	2.070	115.99	-0.80	2.60	 	 	 	 	 	 	 	 	 	 	 	 	 	 	 	 	 	 	1581466004	4.55	8.43
12/02/2020 00:06:45	120220	12022020	000645	116.12	13.915507	-56.965647	116.26	-0.180	0.590	2.100	116.15	-0.80	2.70	 	 	 	 	 	 	 	 	 	 	 	 	 	 	 	 	 	 	1581466005	4.86	9.00
12/02/2020 00:06:46	120220	12022020	000646	116.22	13.915492	-56.965628	116.36	-0.340	0.410	2.350	116.23	-1.00	2.90	 	 	 	 	 	 	 	 	 	 	 	 	 	 	 	 	 	 	1581466006	5.13	9.50
12/02/2020 00:06:47	120220	12022020	000647	116.15	13.915477	-56.965608	116.24	-0.300	-0.110	2.600	116.10	-1.60	3.20	 	 	 	 	 	 	 	 	 	 	 	 	 	 	 	 	 	 	1581466007	5.40	10.00
12/02/2020 00:06:48	120220	12022020	000648	115.75	13.915460	-56.965585	115.78	-0.070	-0.860	2.950	115.64	-2.40	3.60	 	 	 	 	 	 	 	 	 	 	 	 	 	 	 	 	 	 	1581466008	5.78	10.70
12/02/2020 00:06:49	120220	12022020	000649	115.13	13.915443	-56.965563	115.18	0.210	-1.320	3.380	115.03	-2.60	4.00	 	 	 	 	 	 	 	 	 	 	 	 	 	 	 	 	 	 	1581466009	5.90	10.93
12/02/2020 00:06:50	120220	12022020	000650	114.78	13.915430	-56.965542	114.94	0.330	-1.010	3.540	114.78	-2.10	4.00	 	 	 	 	 	 	 	 	 	 	 	 	 	 	 	 	 	 	1581466010	5.42	10.04
12/02/2020 00:06:51	120220	12022020	000651	115.02	13.915418	-56.965523	115.29	0.130	-0.120	3.250	115.13	-1.20	3.60	 	 	 	 	 	 	 	 	 	 	 	 	 	 	 	 	 	 	1581466011	4.66	8.63
12/02/2020 00:06:52	120220	12022020	000652	115.60	13.915407	-56.965505	115.84	-0.230	0.470	2.690	115.70	-0.80	3.10	 	 	 	 	 	 	 	 	 	 	 	 	 	 	 	 	 	 	1581466012	4.54	8.41
12/02/2020 00:06:53	120220	12022020	000653	115.92	13.915392	-56.965485	116.05	-0.340	0.280	2.480	115.92	-1.20	3.00	 	 	 	 	 	 	 	 	 	 	 	 	 	 	 	 	 	 	1581466013	5.32	9.85
12/02/2020 00:06:54	120220	12022020	000654	115.63	13.915375	-56.965462	115.64	-0.070	-0.150	2.750	115.51	-1.50	3.30	 	 	 	 	 	 	 	 	 	 	 	 	 	 	 	 	 	 	1581466014	6.01	11.13
12/02/2020 00:06:55	120220	12022020	000655	115.06	13.915360	-56.965440	115.12	0.200	-0.010	2.840	114.98	-1.20	3.30	 	 	 	 	 	 	 	 	 	 	 	 	 	 	 	 	 	 	1581466015	5.56	10.30
12/02/2020 00:06:56	120220	12022020	000656	114.97	13.915350	-56.965420	115.17	0.110	0.500	2.380	115.03	-0.70	2.70	 	 	 	 	 	 	 	 	 	 	 	 	 	 	 	 	 	 	1581466016	4.62	8.56
12/02/2020 00:06:57	120220	12022020	000657	115.33	13.915342	-56.965400	115.52	-0.130	0.440	1.900	115.40	-1.10	2.40	 	 	 	 	 	 	 	 	 	 	 	 	 	 	 	 	 	 	1581466017	4.59	8.50
12/02/2020 00:06:58	120220	12022020	000658	115.52	13.915330	-56.965377	115.63	-0.110	-0.360	1.920	115.52	-2.00	2.50	 	 	 	 	 	 	 	 	 	 	 	 	 	 	 	 	 	 	1581466018	5.49	10.17
12/02/2020 00:06:59	120220	12022020	000659	115.43	13.915315	-56.965353	115.52	0.110	-1.100	2.230	115.40	-2.50	2.90	 	 	 	 	 	 	 	 	 	 	 	 	 	 	 	 	 	 	1581466019	5.95	11.02
12/02/2020 00:07:00	120220	12022020	000700	115.24	13.915298	-56.965332	115.33	0.270	-1.390	2.810	115.19	-2.70	3.50	 	 	 	 	 	 	 	 	 	 	 	 	 	 	 	 	 	 	1581466020	5.82	10.78
12/02/2020 00:07:01	120220	12022020	000701	115.00	13.915280	-56.965312	115.12	0.190	-1.150	3.530	114.96	-2.20	4.20	 	 	 	 	 	 	 	 	 	 	 	 	 	 	 	 	 	 	1581466021	5.77	10.69
12/02/2020 00:07:02	120220	12022020	000702	114.85	13.915263	-56.965293	115.02	-0.140	-0.140	3.870	114.84	-1.00	4.40	1016.80	26.20	26.20	20.20	20.40	-1.0	69.0	70.0	388.0	25.8	319.00	16.00	68.00	14.10	16	10430.0	27.2	27.2	1581466022	5.12	9.48
12/02/2020 00:07:03	120220	12022020	000703	114.90	13.915252	-56.965278	115.11	-0.510	1.080	3.670	114.94	0.00	4.00	 	 	 	 	 	 	 	 	 	 	 	 	 	 	 	 	 	 	1581466023	4.23	7.83
12/02/2020 00:07:04	120220	12022020	000704	115.13	13.915240	-56.965260	115.34	-0.670	1.360	3.090	115.18	-0.20	3.40	 	 	 	 	 	 	 	 	 	 	 	 	 	 	 	 	 	 	1581466024	4.46	8.26
12/02/2020 00:07:05	120220	12022020	000705	115.29	13.915228	-56.965237	115.41	-0.430	0.400	2.470	115.28	-1.30	2.80	 	 	 	 	 	 	 	 	 	 	 	 	 	 	 	 	 	 	1581466025	5.63	10.43
12/02/2020 00:07:06	120220	12022020	000706	115.15	13.915213	-56.965210	115.21	0.110	-0.920	2.120	115.10	-2.50	2.60	 	 	 	 	 	 	 	 	 	 	 	 	 	 	 	 	 	 	1581466026	6.47	11.98
12/02/2020 00:07:07	120220	12022020	000707	114.91	13.915200	-56.965183	114.99	0.650	-1.510	1.940	114.88	-2.80	2.40	 	 	 	 	 	 	 	 	 	 	 	 	 	 	 	 	 	 	1581466027	6.21	11.50
12/02/2020 00:07:08	120220	12022020	000708	114.86	13.915190	-56.965160	115.00	0.790	-1.090	1.770	114.88	-2.10	2.30	 	 	 	 	 	 	 	 	 	 	 	 	 	 	 	 	 	 	1581466028	5.29	9.80
12/02/2020 00:07:09	120220	12022020	000709	114.97	13.915180	-56.965142	115.12	0.370	-0.150	1.820	115.01	-1.10	2.40	 	 	 	 	 	 	 	 	 	 	 	 	 	 	 	 	 	 	1581466029	4.59	8.50
12/02/2020 00:07:10	120220	12022020	000710	115.15	13.915168	-56.965125	115.34	-0.390	0.780	2.140	115.20	-0.30	2.80	 	 	 	 	 	 	 	 	 	 	 	 	 	 	 	 	 	 	1581466030	4.42	8.19
12/02/2020 00:07:11	120220	12022020	000711	115.45	13.915153	-56.965108	115.66	-1.030	1.260	2.500	115.51	-0.10	3.10	 	 	 	 	 	 	 	 	 	 	 	 	 	 	 	 	 	 	1581466031	4.57	8.46
12/02/2020 00:07:12	120220	12022020	000712	115.70	13.915137	-56.965090	115.87	-1.010	0.780	2.810	115.72	-1.00	3.40	 	 	 	 	 	 	 	 	 	 	 	 	 	 	 	 	 	 	1581466032	5.12	9.48
12/02/2020 00:07:13	120220	12022020	000713	115.65	13.915118	-56.965067	115.76	-0.070	-0.880	3.070	115.60	-2.80	3.70	 	 	 	 	 	 	 	 	 	 	 	 	 	 	 	 	 	 	1581466033	6.37	11.80
12/02/2020 00:07:14	120220	12022020	000714	115.30	13.915100	-56.965038	115.38	1.060	-2.450	3.440	115.23	-3.90	4.10	 	 	 	 	 	 	 	 	 	 	 	 	 	 	 	 	 	 	1581466034	7.26	13.45
12/02/2020 00:07:15	120220	12022020	000715	115.07	13.915083	-56.965013	115.25	1.230	-2.080	3.750	115.08	-2.80	4.30	 	 	 	 	 	 	 	 	 	 	 	 	 	 	 	 	 	 	1581466035	6.15	11.39
12/02/2020 00:07:16	120220	12022020	000716	115.24	13.915073	-56.965000	115.46	0.290	0.160	3.510	115.31	-0.30	3.80	 	 	 	 	 	 	 	 	 	 	 	 	 	 	 	 	 	 	1581466036	3.81	7.06
12/02/2020 00:07:17	120220	12022020	000717	115.59	13.915067	-56.964988	115.80	-0.860	2.340	2.790	115.66	1.40	3.00	 	 	 	 	 	 	 	 	 	 	 	 	 	 	 	 	 	 	1581466037	2.61	4.83
12/02/2020 00:07:18	120220	12022020	000718	115.92	13.915058	-56.964973	116.11	-1.190	2.600	1.920	115.98	0.90	2.20	 	 	 	 	 	 	 	 	 	 	 	 	 	 	 	 	 	 	1581466038	3.70	6.85
12/02/2020 00:07:19	120220	12022020	000719	116.23	13.915048	-56.964948	116.38	-0.680	0.930	1.250	116.27	-1.10	1.70	 	 	 	 	 	 	 	 	 	 	 	 	 	 	 	 	 	 	1581466039	5.77	10.69
12/02/2020 00:07:20	120220	12022020	000720	116.38	13.915033	-56.964920	116.48	0.070	-1.320	1.040	116.38	-3.20	1.60	 	 	 	 	 	 	 	 	 	 	 	 	 	 	 	 	 	 	1581466040	6.81	12.61
12/02/2020 00:07:21	120220	12022020	000721	116.21	13.915017	-56.964893	116.23	0.610	-2.730	1.330	116.14	-4.10	2.00	 	 	 	 	 	 	 	 	 	 	 	 	 	 	 	 	 	 	1581466041	6.62	12.26
12/02/2020 00:07:22	120220	12022020	000722	115.76	13.915000	-56.964872	115.78	0.830	-2.540	2.010	115.66	-3.50	2.70	 	 	 	 	 	 	 	 	 	 	 	 	 	 	 	 	 	 	1581466042	5.67	10.50
12/02/2020 00:07:23	120220	12022020	000723	115.40	13.914985	-56.964857	115.51	0.690	-1.030	2.500	115.37	-1.70	3.10	 	 	 	 	 	 	 	 	 	 	 	 	 	 	 	 	 	 	1581466043	4.53	8.39
12/02/2020 00:07:24	120220	12022020	000724	115.38	13.914975	-56.964842	115.56	0.200	0.770	2.580	115.42	-0.10	3.00	 	 	 	 	 	 	 	 	 	 	 	 	 	 	 	 	 	 	1581466044	3.82	7.07
12/02/2020 00:07:25	120220	12022020	000725	115.63	13.914963	-56.964827	115.82	-0.410	1.840	2.390	115.69	0.60	2.80	 	 	 	 	 	 	 	 	 	 	 	 	 	 	 	 	 	 	1581466045	3.92	7.26
12/02/2020 00:07:26	120220	12022020	000726	115.87	13.914952	-56.964807	116.02	-0.750	1.580	2.270	115.90	-0.10	2.80	 	 	 	 	 	 	 	 	 	 	 	 	 	 	 	 	 	 	1581466046	4.86	9.00
12/02/2020 00:07:27	120220	12022020	000727	115.86	13.914935	-56.964783	115.95	-0.580	0.290	2.400	115.82	-1.50	3.00	 	 	 	 	 	 	 	 	 	 	 	 	 	 	 	 	 	 	1581466047	6.06	11.22
12/02/2020 00:07:28	120220	12022020	000728	115.62	13.914917	-56.964758	115.72	-0.190	-0.940	2.790	115.57	-2.50	3.40	 	 	 	 	 	 	 	 	 	 	 	 	 	 	 	 	 	 	1581466048	6.46	11.96
12/02/2020 00:07:29	120220	12022020	000729	115.50	13.914900	-56.964738	115.67	0.060	-1.240	3.120	115.52	-2.40	3.60	 	 	 	 	 	 	 	 	 	 	 	 	 	 	 	 	 	 	1581466049	5.72	10.59
12/02/2020 00:07:30	120220	12022020	000730	115.70	13.914887	-56.964722	115.90	0.090	-0.660	2.960	115.76	-1.70	3.30	 	 	 	 	 	 	 	 	 	 	 	 	 	 	 	 	 	 	1581466050	4.59	8.50
12/02/2020 00:07:31	120220	12022020	000731	115.91	13.914877	-56.964705	116.05	0.180	-0.080	2.550	115.92	-1.30	2.90	 	 	 	 	 	 	 	 	 	 	 	 	 	 	 	 	 	 	1581466051	4.18	7.74
12/02/2020 00:07:32	120220	12022020	000732	115.88	13.914865	-56.964685	115.97	0.490	-0.100	2.210	115.86	-1.50	2.70	 	 	 	 	 	 	 	 	 	 	 	 	 	 	 	 	 	 	1581466052	4.86	9.00
12/02/2020 00:07:33	120220	12022020	000733	115.85	13.914853	-56.964662	115.96	0.730	-0.300	2.070	115.86	-1.60	2.60	 	 	 	 	 	 	 	 	 	 	 	 	 	 	 	 	 	 	1581466053	5.41	10.02
12/02/2020 00:07:34	120220	12022020	000734	115.91	13.914842	-56.964640	116.03	0.570	-0.270	2.060	115.92	-1.50	2.60	 	 	 	 	 	 	 	 	 	 	 	 	 	 	 	 	 	 	1581466054	5.23	9.69
12/02/2020 00:07:35	120220	12022020	000735	115.89	13.914830	-56.964620	115.96	0.050	-0.050	2.130	115.86	-1.30	2.70	 	 	 	 	 	 	 	 	 	 	 	 	 	 	 	 	 	 	1581466055	4.88	9.04
12/02/2020 00:07:36	120220	12022020	000736	115.60	13.914815	-56.964602	115.63	-0.410	-0.050	2.560	115.60	-1.30	2.90	 	 	 	 	 	 	 	 	 	 	 	 	 	 	 	 	 	 	1581466056	4.99	9.24
12/02/2020 00:07:37	120220	12022020	000737	115.13	13.914798	-56.964582	115.19	-0.500	-0.390	3.200	115.05	-1.80	3.80	 	 	 	 	 	 	 	 	 	 	 	 	 	 	 	 	 	 	1581466057	5.64	10.45
12/02/2020 00:07:38	120220	12022020	000738	114.89	13.914780	-56.964560	115.07	-0.330	-0.630	3.410	114.90	-1.90	3.90	 	 	 	 	 	 	 	 	 	 	 	 	 	 	 	 	 	 	1581466058	5.90	10.93
12/02/2020 00:07:39	120220	12022020	000739	115.04	13.914765	-56.964540	115.26	-0.120	-0.330	3.140	115.09	-1.40	3.50	 	 	 	 	 	 	 	 	 	 	 	 	 	 	 	 	 	 	1581466059	5.37	9.95
12/02/2020 00:07:40	120220	12022020	000740	115.26	13.914753	-56.964522	115.41	0.030	0.260	2.690	115.27	-0.90	3.10	 	 	 	 	 	 	 	 	 	 	 	 	 	 	 	 	 	 	1581466060	4.66	8.63
12/02/2020 00:07:41	120220	12022020	000741	115.23	13.914743	-56.964502	115.36	0.170	0.400	2.280	115.21	-1.00	2.70	 	 	 	 	 	 	 	 	 	 	 	 	 	 	 	 	 	 	1581466061	4.79	8.87
12/02/2020 00:07:42	120220	12022020	000742	115.17	13.914732	-56.964478	115.31	0.200	0.050	2.110	115.17	-1.40	2.60	 	 	 	 	 	 	 	 	 	 	 	 	 	 	 	 	 	 	1581466062	5.36	9.93
12/02/2020 00:07:43	120220	12022020	000743	115.21	13.914718	-56.964455	115.38	0.140	-0.310	2.250	115.23	-1.70	2.80	 	 	 	 	 	 	 	 	 	 	 	 	 	 	 	 	 	 	1581466063	5.50	10.19
12/02/2020 00:07:44	120220	12022020	000744	115.32	13.914705	-56.964435	115.49	0.110	-0.440	2.390	115.35	-1.80	2.90	 	 	 	 	 	 	 	 	 	 	 	 	 	 	 	 	 	 	1581466064	5.32	9.85
12/02/2020 00:07:45	120220	12022020	000745	115.38	13.914692	-56.964415	115.50	0.240	-0.400	2.430	115.37	-1.70	3.00	 	 	 	 	 	 	 	 	 	 	 	 	 	 	 	 	 	 	1581466065	5.13	9.50
12/02/2020 00:07:46	120220	12022020	000746	115.23	13.914678	-56.964393	115.30	0.380	-0.380	2.650	115.18	-1.70	3.30	 	 	 	 	 	 	 	 	 	 	 	 	 	 	 	 	 	 	1581466066	5.18	9.59
12/02/2020 00:07:47	120220	12022020	000747	114.97	13.914663	-56.964373	115.05	0.280	-0.340	3.060	114.92	-1.60	3.70	 	 	 	 	 	 	 	 	 	 	 	 	 	 	 	 	 	 	1581466067	5.34	9.89
12/02/2020 00:07:48	120220	12022020	000748	114.79	13.914648	-56.964355	114.91	-0.110	-0.140	3.350	114.77	-1.40	3.80	 	 	 	 	 	 	 	 	 	 	 	 	 	 	 	 	 	 	1581466068	5.24	9.70
12/02/2020 00:07:49	120220	12022020	000749	114.76	13.914635	-56.964335	114.89	-0.490	0.170	3.140	114.76	-1.10	3.50	 	 	 	 	 	 	 	 	 	 	 	 	 	 	 	 	 	 	1581466069	4.90	9.07
12/02/2020 00:07:50	120220	12022020	000750	114.77	13.914623	-56.964315	114.88	-0.500	0.190	2.620	114.77	-1.20	3.00	 	 	 	 	 	 	 	 	 	 	 	 	 	 	 	 	 	 	1581466070	4.91	9.09
12/02/2020 00:07:51	120220	12022020	000751	114.73	13.914613	-56.964292	114.82	-0.140	-0.270	2.270	114.72	-1.80	2.70	 	 	 	 	 	 	 	 	 	 	 	 	 	 	 	 	 	 	1581466071	5.44	10.07
12/02/2020 00:07:52	120220	12022020	000752	114.69	13.914600	-56.964267	114.81	0.230	-0.900	2.250	114.69	-2.30	2.80	 	 	 	 	 	 	 	 	 	 	 	 	 	 	 	 	 	 	1581466072	5.94	11.00
12/02/2020 00:07:53	120220	12022020	000753	114.73	13.914585	-56.964242	114.84	0.270	-1.100	2.410	114.73	-2.30	3.00	 	 	 	 	 	 	 	 	 	 	 	 	 	 	 	 	 	 	1581466073	5.90	10.93
12/02/2020 00:07:54	120220	12022020	000754	114.64	13.914570	-56.964222	114.72	0.040	-0.550	2.760	114.59	-1.60	3.40	 	 	 	 	 	 	 	 	 	 	 	 	 	 	 	 	 	 	1581466074	5.39	9.98
12/02/2020 00:07:55	120220	12022020	000755	114.43	13.914555	-56.964205	114.55	-0.180	0.380	3.000	114.42	-0.70	3.40	 	 	 	 	 	 	 	 	 	 	 	 	 	 	 	 	 	 	1581466075	4.89	9.06
12/02/2020 00:07:56	120220	12022020	000756	114.54	13.914542	-56.964187	114.72	-0.140	1.040	2.610	114.60	-0.20	2.90	 	 	 	 	 	 	 	 	 	 	 	 	 	 	 	 	 	 	1581466076	4.64	8.59
12/02/2020 00:07:57	120220	12022020	000757	114.86	13.914533	-56.964165	115.02	0.090	0.860	1.910	114.91	-0.70	2.20	 	 	 	 	 	 	 	 	 	 	 	 	 	 	 	 	 	 	1581466077	5.05	9.35
12/02/2020 00:07:58	120220	12022020	000758	115.02	13.914523	-56.964140	115.13	0.290	0.000	1.450	115.03	-1.60	1.90	 	 	 	 	 	 	 	 	 	 	 	 	 	 	 	 	 	 	1581466078	5.79	10.72
12/02/2020 00:07:59	120220	12022020	000759	114.99	13.914512	-56.964113	115.07	0.240	-0.650	1.500	114.97	-2.00	2.10	 	 	 	 	 	 	 	 	 	 	 	 	 	 	 	 	 	 	1581466079	5.83	10.80
12/02/2020 00:08:00	120220	12022020	000800	114.92	13.914500	-56.964093	115.01	-0.050	-0.630	1.840	114.91	-1.90	2.50	 	 	 	 	 	 	 	 	 	 	 	 	 	 	 	 	 	 	1581466080	5.15	9.54
12/02/2020 00:08:01	120220	12022020	000801	114.87	13.914487	-56.964075	114.95	-0.250	-0.480	2.250	114.85	-1.90	2.90	 	 	 	 	 	 	 	 	 	 	 	 	 	 	 	 	 	 	1581466081	4.87	9.02
12/02/2020 00:08:02	120220	12022020	000802	114.76	13.914470	-56.964055	114.85	-0.080	-0.820	2.720	114.74	-2.30	3.30	1016.90	26.20	26.30	20.40	20.50	-1.0	70.0	70.0	390.0	25.8	320.00	15.60	68.00	13.70	16	10611.0	27.2	27.2	1581466082	5.50	10.19
12/02/2020 00:08:03	120220	12022020	000803	114.64	13.914453	-56.964030	114.75	0.370	-1.310	3.030	114.63	-2.60	3.60	 	 	 	 	 	 	 	 	 	 	 	 	 	 	 	 	 	 	1581466083	6.24	11.56
12/02/2020 00:08:04	120220	12022020	000804	114.66	13.914438	-56.964007	114.81	0.530	-1.060	3.000	114.69	-2.10	3.40	 	 	 	 	 	 	 	 	 	 	 	 	 	 	 	 	 	 	1581466084	5.96	11.04
12/02/2020 00:08:05	120220	12022020	000805	114.84	13.914427	-56.963987	115.00	0.050	0.160	2.750	114.88	-0.70	3.20	 	 	 	 	 	 	 	 	 	 	 	 	 	 	 	 	 	 	1581466085	4.87	9.02
12/02/2020 00:08:06	120220	12022020	000806	115.02	13.914417	-56.963970	115.16	-0.820	1.540	2.490	115.03	0.50	2.90	 	 	 	 	 	 	 	 	 	 	 	 	 	 	 	 	 	 	1581466086	3.99	7.39
12/02/2020 00:08:07	120220	12022020	000807	115.03	13.914405	-56.963953	115.12	-1.370	1.880	2.250	115.02	0.30	2.70	 	 	 	 	 	 	 	 	 	 	 	 	 	 	 	 	 	 	1581466087	4.32	8.00
12/02/2020 00:08:08	120220	12022020	000808	114.95	13.914392	-56.963930	115.05	-1.080	0.760	1.940	114.94	-1.10	2.30	 	 	 	 	 	 	 	 	 	 	 	 	 	 	 	 	 	 	1581466088	5.64	10.45
12/02/2020 00:08:09	120220	12022020	000809	114.97	13.914377	-56.963903	115.10	-0.080	-0.900	1.550	114.99	-2.60	2.00	 	 	 	 	 	 	 	 	 	 	 	 	 	 	 	 	 	 	1581466089	6.59	12.20
12/02/2020 00:08:10	120220	12022020	000810	115.03	13.914363	-56.963875	115.11	1.010	-2.000	1.350	115.02	-3.40	1.90	 	 	 	 	 	 	 	 	 	 	 	 	 	 	 	 	 	 	1581466090	6.49	12.02
12/02/2020 00:08:11	120220	12022020	000811	114.83	13.914352	-56.963850	114.87	1.570	-2.040	1.510	114.77	-3.10	2.10	 	 	 	 	 	 	 	 	 	 	 	 	 	 	 	 	 	 	1581466091	5.85	10.83
12/02/2020 00:08:12	120220	12022020	000812	114.62	13.914342	-56.963828	114.75	1.260	-0.890	1.820	114.63	-1.70	2.50	 	 	 	 	 	 	 	 	 	 	 	 	 	 	 	 	 	 	1581466092	4.89	9.06
12/02/2020 00:08:13	120220	12022020	000813	114.84	13.914332	-56.963813	115.07	0.310	0.870	2.320	114.92	0.10	3.00	 	 	 	 	 	 	 	 	 	 	 	 	 	 	 	 	 	 	1581466093	3.92	7.26
12/02/2020 00:08:14	120220	12022020	000814	115.24	13.914318	-56.963800	115.46	-0.740	2.090	2.950	115.30	0.90	3.60	 	 	 	 	 	 	 	 	 	 	 	 	 	 	 	 	 	 	1581466094	3.88	7.19
12/02/2020 00:08:15	120220	12022020	000815	115.49	13.914303	-56.963785	115.68	-1.330	1.870	3.260	115.52	0.10	3.80	 	 	 	 	 	 	 	 	 	 	 	 	 	 	 	 	 	 	1581466095	4.70	8.70
12/02/2020 00:08:16	120220	12022020	000816	115.56	13.914287	-56.963760	115.70	-1.100	0.090	3.270	115.54	-2.00	3.80	 	 	 	 	 	 	 	 	 	 	 	 	 	 	 	 	 	 	1581466096	6.09	11.28
12/02/2020 00:08:17	120220	12022020	000817	115.34	13.914268	-56.963732	115.42	-0.200	-2.130	3.550	115.27	-3.90	4.20	 	 	 	 	 	 	 	 	 	 	 	 	 	 	 	 	 	 	1581466097	7.24	13.41
12/02/2020 00:08:18	120220	12022020	000818	114.86	13.914250	-56.963705	114.93	0.680	-3.030	3.980	114.76	-4.10	4.50	 	 	 	 	 	 	 	 	 	 	 	 	 	 	 	 	 	 	1581466098	7.03	13.02
12/02/2020 00:08:19	120220	12022020	000819	114.49	13.914237	-56.963685	114.63	0.780	-1.780	3.810	114.47	-2.40	4.10	 	 	 	 	 	 	 	 	 	 	 	 	 	 	 	 	 	 	1581466099	5.15	9.54
12/02/2020 00:08:20	120220	12022020	000820	114.54	13.914230	-56.963670	114.75	0.140	0.590	2.970	114.60	-0.10	3.20	 	 	 	 	 	 	 	 	 	 	 	 	 	 	 	 	 	 	1581466100	3.38	6.26
12/02/2020 00:08:21	120220	12022020	000821	114.94	13.914227	-56.963655	115.15	-0.590	2.270	1.970	115.03	1.10	2.20	 	 	 	 	 	 	 	 	 	 	 	 	 	 	 	 	 	 	1581466101	3.21	5.94
12/02/2020 00:08:22	120220	12022020	000822	115.37	13.914218	-56.963635	115.53	-0.810	2.070	1.170	115.43	0.30	1.50	 	 	 	 	 	 	 	 	 	 	 	 	 	 	 	 	 	 	1581466102	4.55	8.43
12/02/2020 00:08:23	120220	12022020	000823	115.55	13.914205	-56.963608	115.61	-0.360	0.290	0.820	115.53	-1.70	1.40	 	 	 	 	 	 	 	 	 	 	 	 	 	 	 	 	 	 	1581466103	6.30	11.67
12/02/2020 00:08:24	120220	12022020	000824	115.29	13.914188	-56.963578	115.27	0.400	-1.630	1.080	115.20	-3.30	1.80	 	 	 	 	 	 	 	 	 	 	 	 	 	 	 	 	 	 	1581466104	7.10	13.15
12/02/2020 00:08:25	120220	12022020	000825	114.91	13.914173	-56.963553	114.98	0.920	-2.130	1.570	114.88	-3.20	2.20	 	 	 	 	 	 	 	 	 	 	 	 	 	 	 	 	 	 	1581466105	6.41	11.87
12/02/2020 00:08:26	120220	12022020	000826	115.02	13.914160	-56.963535	115.23	0.730	-0.750	1.920	115.10	-1.40	2.50	 	 	 	 	 	 	 	 	 	 	 	 	 	 	 	 	 	 	1581466106	4.48	8.30
12/02/2020 00:08:27	120220	12022020	000827	115.53	13.914152	-56.963525	115.77	-0.060	1.110	2.190	115.63	0.20	2.80	 	 	 	 	 	 	 	 	 	 	 	 	 	 	 	 	 	 	1581466107	3.12	5.78
12/02/2020 00:08:28	120220	12022020	000828	115.94	13.914140	-56.963512	116.10	-0.730	1.650	2.460	115.97	0.10	3.10	 	 	 	 	 	 	 	 	 	 	 	 	 	 	 	 	 	 	1581466108	3.63	6.72
12/02/2020 00:08:29	120220	12022020	000829	115.92	13.914123	-56.963490	116.01	-0.600	0.330	2.930	115.88	-1.60	3.60	 	 	 	 	 	 	 	 	 	 	 	 	 	 	 	 	 	 	1581466109	5.55	10.28
12/02/2020 00:08:30	120220	12022020	000830	115.62	13.914103	-56.963463	115.69	0.220	-1.610	3.530	115.54	-3.30	4.20	 	 	 	 	 	 	 	 	 	 	 	 	 	 	 	 	 	 	1581466110	7.06	13.08
12/02/2020 00:08:31	120220	12022020	000831	115.20	13.914085	-56.963438	115.26	0.910	-2.400	4.050	115.10	-3.60	4.60	 	 	 	 	 	 	 	 	 	 	 	 	 	 	 	 	 	 	1581466111	6.75	12.50
12/02/2020 00:08:32	120220	12022020	000832	114.70	13.914072	-56.963418	114.77	0.870	-1.610	4.200	114.61	-2.40	4.60	 	 	 	 	 	 	 	 	 	 	 	 	 	 	 	 	 	 	1581466112	5.34	9.89
12/02/2020 00:08:33	120220	12022020	000833	114.43	13.914062	-56.963400	114.63	0.170	0.120	3.620	114.46	-0.60	3.80	 	 	 	 	 	 	 	 	 	 	 	 	 	 	 	 	 	 	1581466113	4.14	7.67
12/02/2020 00:08:34	120220	12022020	000834	114.91	13.914057	-56.963385	115.27	-0.790	1.890	2.520	115.09	1.00	2.70	 	 	 	 	 	 	 	 	 	 	 	 	 	 	 	 	 	 	1581466114	3.48	6.44
12/02/2020 00:08:35	120220	12022020	000835	115.94	13.914050	-56.963368	116.29	-1.470	2.660	1.460	116.14	1.20	1.70	 	 	 	 	 	 	 	 	 	 	 	 	 	 	 	 	 	 	1581466115	3.59	6.65
12/02/2020 00:08:36	120220	12022020	000836	116.69	13.914037	-56.963350	116.86	-1.340	1.690	1.000	116.75	-0.30	1.50	 	 	 	 	 	 	 	 	 	 	 	 	 	 	 	 	 	 	1581466116	4.80	8.89
12/02/2020 00:08:37	120220	12022020	000837	116.66	13.914020	-56.963325	116.69	-0.320	-0.630	1.190	116.59	-2.70	1.80	 	 	 	 	 	 	 	 	 	 	 	 	 	 	 	 	 	 	1581466117	6.47	11.98
12/02/2020 00:08:38	120220	12022020	000838	116.14	13.914002	-56.963298	116.10	1.000	-2.650	1.720	116.02	-4.30	2.50	 	 	 	 	 	 	 	 	 	 	 	 	 	 	 	 	 	 	1581466118	7.01	12.98
12/02/2020 00:08:39	120220	12022020	000839	115.62	13.913985	-56.963273	115.67	1.770	-3.070	2.470	115.55	-4.10	3.20	 	 	 	 	 	 	 	 	 	 	 	 	 	 	 	 	 	 	1581466119	6.16	11.41
12/02/2020 00:08:40	120220	12022020	000840	115.40	13.913972	-56.963255	115.53	1.550	-1.820	3.080	115.40	-3.70	3.40	 	 	 	 	 	 	 	 	 	 	 	 	 	 	 	 	 	 	1581466120	4.80	8.89
12/02/2020 00:08:41	120220	12022020	000841	115.51	13.913962	-56.963240	115.71	0.500	0.350	3.050	115.57	-0.30	3.40	 	 	 	 	 	 	 	 	 	 	 	 	 	 	 	 	 	 	1581466121	3.69	6.83
12/02/2020 00:08:42	120220	12022020	000842	115.87	13.913953	-56.963228	116.07	-0.710	2.150	2.630	115.93	1.10	3.00	 	 	 	 	 	 	 	 	 	 	 	 	 	 	 	 	 	 	1581466122	3.29	6.09
12/02/2020 00:08:43	120220	12022020	000843	116.13	13.913942	-56.963212	116.29	-1.300	2.470	2.480	116.15	0.90	3.00	 	 	 	 	 	 	 	 	 	 	 	 	 	 	 	 	 	 	1581466123	4.18	7.74
12/02/2020 00:08:44	120220	12022020	000844	116.22	13.913927	-56.963190	116.37	-1.030	1.200	2.540	116.23	-0.70	3.00	 	 	 	 	 	 	 	 	 	 	 	 	 	 	 	 	 	 	1581466124	5.71	10.57
12/02/2020 00:08:45	120220	12022020	000845	116.21	13.913908	-56.963163	116.31	-0.250	-0.690	2.550	116.19	-2.50	3.10	 	 	 	 	 	 	 	 	 	 	 	 	 	 	 	 	 	 	1581466125	6.59	12.20
12/02/2020 00:08:46	120220	12022020	000846	116.03	13.913892	-56.963138	116.11	0.470	-1.970	2.580	115.97	-3.40	3.10	 	 	 	 	 	 	 	 	 	 	 	 	 	 	 	 	 	 	1581466126	6.47	11.98
12/02/2020 00:08:47	120220	12022020	000847	115.80	13.913878	-56.963117	115.90	0.720	-1.910	2.760	115.77	-3.00	3.40	 	 	 	 	 	 	 	 	 	 	 	 	 	 	 	 	 	 	1581466127	5.46	10.11
12/02/2020 00:08:48	120220	12022020	000848	115.62	13.913863	-56.963100	115.71	0.530	-0.950	3.130	115.57	-1.90	3.70	 	 	 	 	 	 	 	 	 	 	 	 	 	 	 	 	 	 	1581466128	4.48	8.30
12/02/2020 00:08:49	120220	12022020	000849	115.35	13.913850	-56.963085	115.42	0.220	0.080	3.300	115.29	-1.00	3.70	 	 	 	 	 	 	 	 	 	 	 	 	 	 	 	 	 	 	1581466129	4.32	8.00
12/02/2020 00:08:50	120220	12022020	000850	115.12	13.913840	-56.963067	115.22	0.050	0.710	2.800	115.09	-0.50	3.10	 	 	 	 	 	 	 	 	 	 	 	 	 	 	 	 	 	 	1581466130	4.49	8.32
12/02/2020 00:08:51	120220	12022020	000851	115.04	13.913832	-56.963045	115.16	0.010	0.700	2.150	115.04	-0.70	2.50	 	 	 	 	 	 	 	 	 	 	 	 	 	 	 	 	 	 	1581466131	5.04	9.33
12/02/2020 00:08:52	120220	12022020	000852	115.10	13.913822	-56.963020	115.26	-0.100	0.260	1.850	115.14	-1.20	2.30	 	 	 	 	 	 	 	 	 	 	 	 	 	 	 	 	 	 	1581466132	5.54	10.26
12/02/2020 00:08:53	120220	12022020	000853	115.40	13.913808	-56.962998	115.60	-0.360	-0.050	1.750	115.47	-1.40	2.30	 	 	 	 	 	 	 	 	 	 	 	 	 	 	 	 	 	 	1581466133	5.47	10.13
12/02/2020 00:08:54	120220	12022020	000854	115.73	13.913793	-56.962980	115.89	-0.590	-0.160	1.900	115.77	-1.50	2.50	 	 	 	 	 	 	 	 	 	 	 	 	 	 	 	 	 	 	1581466134	5.13	9.50
12/02/2020 00:08:55	120220	12022020	000855	115.77	13.913777	-56.962962	115.85	-0.490	-0.340	2.470	115.74	-1.80	3.20	 	 	 	 	 	 	 	 	 	 	 	 	 	 	 	 	 	 	1581466135	5.18	9.59
12/02/2020 00:08:56	120220	12022020	000856	115.43	13.913757	-56.962943	115.44	0.070	-0.760	3.240	115.34	-2.20	3.90	 	 	 	 	 	 	 	 	 	 	 	 	 	 	 	 	 	 	1581466136	5.61	10.39
12/02/2020 00:08:57	120220	12022020	000857	114.91	13.913740	-56.962922	114.93	0.850	-1.170	3.580	114.81	-2.50	4.00	 	 	 	 	 	 	 	 	 	 	 	 	 	 	 	 	 	 	1581466137	5.87	10.87
12/02/2020 00:08:58	120220	12022020	000858	114.54	13.913728	-56.962898	114.65	1.300	-0.970	3.230	114.52	-2.00	3.50	 	 	 	 	 	 	 	 	 	 	 	 	 	 	 	 	 	 	1581466138	5.55	10.28
12/02/2020 00:08:59	120220	12022020	000859	114.59	13.913722	-56.962877	114.79	0.970	0.000	2.600	114.66	-0.90	2.90	 	 	 	 	 	 	 	 	 	 	 	 	 	 	 	 	 	 	1581466139	4.78	8.85
12/02/2020 00:09:00	120220	12022020	000900	115.03	13.913717	-56.962858	115.28	-0.000	1.140	2.070	115.15	0.00	2.40	 	 	 	 	 	 	 	 	 	 	 	 	 	 	 	 	 	 	1581466140	3.98	7.37
12/02/2020 00:09:01	120220	12022020	000901	115.60	13.913708	-56.962842	115.83	-0.960	1.510	1.840	115.70	0.00	2.40	 	 	 	 	 	 	 	 	 	 	 	 	 	 	 	 	 	 	1581466141	4.01	7.43
12/02/2020 00:09:02	120220	12022020	000902	115.95	13.913693	-56.962822	116.11	-1.140	0.500	2.140	115.98	-1.40	2.80	1016.90	26.20	26.20	20.20	20.30	-1.0	69.0	70.0	392.0	25.8	321.00	16.60	70.00	14.60	16	10661.0	27.2	27.1	1581466142	5.23	9.69
12/02/2020 00:09:03	120220	12022020	000903	115.88	13.913672	-56.962798	115.95	-0.390	-1.390	2.830	115.81	-3.20	3.60	 	 	 	 	 	 	 	 	 	 	 	 	 	 	 	 	 	 	1581466143	6.86	12.70
12/02/2020 00:09:04	120220	12022020	000904	115.42	13.913650	-56.962773	115.47	0.510	-2.400	3.510	115.42	-3.60	3.80	 	 	 	 	 	 	 	 	 	 	 	 	 	 	 	 	 	 	1581466144	7.01	12.98
12/02/2020 00:09:05	120220	12022020	000905	115.06	13.913633	-56.962755	115.20	0.620	-1.470	3.750	115.02	-2.20	4.20	 	 	 	 	 	 	 	 	 	 	 	 	 	 	 	 	 	 	1581466145	5.28	9.78
12/02/2020 00:09:06	120220	12022020	000906	115.09	13.913625	-56.962742	115.30	-0.080	0.530	3.350	115.14	-0.20	3.60	 	 	 	 	 	 	 	 	 	 	 	 	 	 	 	 	 	 	1581466146	3.42	6.33
12/02/2020 00:09:07	120220	12022020	000907	115.45	13.913618	-56.962728	115.69	-0.800	1.900	2.440	115.53	0.60	2.60	 	 	 	 	 	 	 	 	 	 	 	 	 	 	 	 	 	 	1581466147	3.10	5.74
12/02/2020 00:09:08	120220	12022020	000908	115.94	13.913610	-56.962708	116.17	-0.820	1.570	1.500	116.03	-0.20	1.80	 	 	 	 	 	 	 	 	 	 	 	 	 	 	 	 	 	 	1581466148	4.40	8.15
12/02/2020 00:09:09	120220	12022020	000909	116.31	13.913598	-56.962682	116.45	-0.110	-0.070	1.020	116.34	-2.00	1.50	 	 	 	 	 	 	 	 	 	 	 	 	 	 	 	 	 	 	1581466149	6.03	11.17
12/02/2020 00:09:10	120220	12022020	000910	116.28	13.913582	-56.962655	116.30	0.790	-1.640	1.150	116.21	-3.20	1.80	 	 	 	 	 	 	 	 	 	 	 	 	 	 	 	 	 	 	1581466150	6.64	12.30
12/02/2020 00:09:11	120220	12022020	000911	115.81	13.913567	-56.962632	115.78	1.250	-2.020	1.760	115.69	-3.20	2.50	 	 	 	 	 	 	 	 	 	 	 	 	 	 	 	 	 	 	1581466151	5.99	11.09
12/02/2020 00:09:12	120220	12022020	000912	115.29	13.913553	-56.962613	115.35	1.010	-1.060	2.470	115.23	-1.90	3.10	 	 	 	 	 	 	 	 	 	 	 	 	 	 	 	 	 	 	1581466152	4.81	8.91
12/02/2020 00:09:13	120220	12022020	000913	115.28	13.913542	-56.962600	115.52	0.210	0.530	2.830	115.36	-0.40	3.40	 	 	 	 	 	 	 	 	 	 	 	 	 	 	 	 	 	 	1581466153	3.81	7.06
12/02/2020 00:09:14	120220	12022020	000914	115.80	13.913530	-56.962587	116.08	-0.630	1.530	2.850	115.92	0.20	3.30	 	 	 	 	 	 	 	 	 	 	 	 	 	 	 	 	 	 	1581466154	3.70	6.85
12/02/2020 00:09:15	120220	12022020	000915	116.23	13.913517	-56.962568	116.40	-0.930	1.130	2.860	116.25	-0.60	3.40	 	 	 	 	 	 	 	 	 	 	 	 	 	 	 	 	 	 	1581466155	4.71	8.72
12/02/2020 00:09:16	120220	12022020	000916	116.09	13.913500	-56.962545	116.16	-0.570	-0.220	3.240	116.09	-1.10	3.60	 	 	 	 	 	 	 	 	 	 	 	 	 	 	 	 	 	 	1581466156	6.10	11.30
12/02/2020 00:09:17	120220	12022020	000917	115.76	13.913482	-56.962522	115.89	-0.080	-1.200	3.650	115.73	-2.60	4.20	 	 	 	 	 	 	 	 	 	 	 	 	 	 	 	 	 	 	1581466157	6.34	11.74
12/02/2020 00:09:18	120220	12022020	000918	115.72	13.913465	-56.962502	115.91	0.040	-1.110	3.800	115.74	-2.30	4.30	 	 	 	 	 	 	 	 	 	 	 	 	 	 	 	 	 	 	1581466158	5.34	9.89
12/02/2020 00:09:19	120220	12022020	000919	115.91	13.913452	-56.962485	116.11	-0.150	-0.510	3.610	115.95	-1.70	4.00	 	 	 	 	 	 	 	 	 	 	 	 	 	 	 	 	 	 	1581466159	4.49	8.32
12/02/2020 00:09:20	120220	12022020	000920	116.13	13.913440	-56.962468	116.31	-0.210	-0.180	3.260	116.16	-1.50	3.60	 	 	 	 	 	 	 	 	 	 	 	 	 	 	 	 	 	 	1581466160	4.63	8.57
12/02/2020 00:09:21	120220	12022020	000921	116.20	13.913427	-56.962447	116.32	0.110	-0.240	2.780	116.18	-1.60	3.10	 	 	 	 	 	 	 	 	 	 	 	 	 	 	 	 	 	 	1581466161	5.24	9.70
12/02/2020 00:09:22	120220	12022020	000922	116.03	13.913413	-56.962425	116.10	0.580	-0.270	2.190	115.98	-1.60	2.50	 	 	 	 	 	 	 	 	 	 	 	 	 	 	 	 	 	 	1581466162	5.48	10.15
12/02/2020 00:09:23	120220	12022020	000923	115.81	13.913405	-56.962402	115.88	0.720	0.030	1.610	115.79	-1.10	2.00	 	 	 	 	 	 	 	 	 	 	 	 	 	 	 	 	 	 	1581466163	5.19	9.61
12/02/2020 00:09:24	120220	12022020	000924	115.75	13.913397	-56.962382	115.84	0.250	0.600	1.280	115.75	-0.60	1.70	 	 	 	 	 	 	 	 	 	 	 	 	 	 	 	 	 	 	1581466164	4.58	8.48
12/02/2020 00:09:25	120220	12022020	000925	115.84	13.913388	-56.962363	115.97	-0.500	0.890	1.110	115.87	-0.50	1.60	 	 	 	 	 	 	 	 	 	 	 	 	 	 	 	 	 	 	1581466165	4.32	8.00
12/02/2020 00:09:26	120220	12022020	000926	115.99	13.913373	-56.962345	116.10	-0.870	0.470	1.260	116.01	-1.20	1.90	 	 	 	 	 	 	 	 	 	 	 	 	 	 	 	 	 	 	1581466166	4.84	8.96
12/02/2020 00:09:27	120220	12022020	000927	115.92	13.913355	-56.962325	115.97	-0.490	-0.600	2.020	115.87	-2.30	2.80	 	 	 	 	 	 	 	 	 	 	 	 	 	 	 	 	 	 	1581466167	5.85	10.83
12/02/2020 00:09:28	120220	12022020	000928	115.63	13.913335	-56.962302	115.69	0.290	-1.570	2.830	115.58	-3.00	3.50	 	 	 	 	 	 	 	 	 	 	 	 	 	 	 	 	 	 	1581466168	6.40	11.85
12/02/2020 00:09:29	120220	12022020	000929	115.50	13.913318	-56.962282	115.63	0.750	-1.560	3.310	115.50	-2.70	3.90	 	 	 	 	 	 	 	 	 	 	 	 	 	 	 	 	 	 	1581466169	5.78	10.70
12/02/2020 00:09:30	120220	12022020	000930	115.56	13.913303	-56.962263	115.72	0.600	-0.610	3.480	115.58	-1.60	4.00	 	 	 	 	 	 	 	 	 	 	 	 	 	 	 	 	 	 	1581466170	4.62	8.56
12/02/2020 00:09:31	120220	12022020	000931	115.64	13.913293	-56.962248	115.79	0.110	0.370	3.420	115.64	-0.80	3.90	 	 	 	 	 	 	 	 	 	 	 	 	 	 	 	 	 	 	1581466171	4.12	7.63
12/02/2020 00:09:32	120220	12022020	000932	115.62	13.913282	-56.962230	115.74	-0.270	0.670	3.210	115.60	-0.70	3.60	 	 	 	 	 	 	 	 	 	 	 	 	 	 	 	 	 	 	1581466172	4.64	8.59
12/02/2020 00:09:33	120220	12022020	000933	115.56	13.913270	-56.962208	115.68	-0.400	0.460	2.690	115.55	-1.00	3.00	 	 	 	 	 	 	 	 	 	 	 	 	 	 	 	 	 	 	1581466173	5.28	9.78
12/02/2020 00:09:34	120220	12022020	000934	115.55	13.913258	-56.962185	115.65	-0.370	0.180	2.220	115.54	-1.30	2.70	 	 	 	 	 	 	 	 	 	 	 	 	 	 	 	 	 	 	1581466174	5.34	9.89
12/02/2020 00:09:35	120220	12022020	000935	115.44	13.913245	-56.962163	115.52	-0.280	-0.080	2.240	115.41	-1.50	2.80	 	 	 	 	 	 	 	 	 	 	 	 	 	 	 	 	 	 	1581466175	5.27	9.76
12/02/2020 00:09:36	120220	12022020	000936	115.34	13.913230	-56.962143	115.42	-0.170	-0.300	2.240	115.34	-1.70	2.70	 	 	 	 	 	 	 	 	 	 	 	 	 	 	 	 	 	 	1581466176	5.21	9.65
12/02/2020 00:09:37	120220	12022020	000937	115.40	13.913218	-56.962122	115.52	-0.010	-0.490	1.950	115.43	-1.90	2.40	 	 	 	 	 	 	 	 	 	 	 	 	 	 	 	 	 	 	1581466177	5.16	9.56
12/02/2020 00:09:38	120220	12022020	000938	115.53	13.913207	-56.962100	115.63	0.180	-0.700	1.860	115.54	-2.10	2.40	 	 	 	 	 	 	 	 	 	 	 	 	 	 	 	 	 	 	1581466178	5.27	9.76
12/02/2020 00:09:39	120220	12022020	000939	115.47	13.913192	-56.962080	115.52	0.230	-0.680	2.170	115.43	-1.90	2.80	 	 	 	 	 	 	 	 	 	 	 	 	 	 	 	 	 	 	1581466179	5.32	9.85
12/02/2020 00:09:40	120220	12022020	000940	115.22	13.913177	-56.962062	115.24	0.130	-0.380	2.530	115.15	-1.60	3.10	 	 	 	 	 	 	 	 	 	 	 	 	 	 	 	 	 	 	1581466180	5.10	9.45
12/02/2020 00:09:41	120220	12022020	000941	114.91	13.913163	-56.962042	114.96	0.050	-0.050	2.740	114.86	-1.30	3.30	 	 	 	 	 	 	 	 	 	 	 	 	 	 	 	 	 	 	1581466181	5.02	9.30
12/02/2020 00:09:42	120220	12022020	000942	114.82	13.913150	-56.962022	114.95	0.090	0.220	2.660	114.85	-1.00	3.10	 	 	 	 	 	 	 	 	 	 	 	 	 	 	 	 	 	 	1581466182	5.09	9.43
12/02/2020 00:09:43	120220	12022020	000943	115.14	13.913138	-56.962002	115.36	0.100	0.470	2.270	115.23	-0.80	2.60	 	 	 	 	 	 	 	 	 	 	 	 	 	 	 	 	 	 	1581466183	4.92	9.11
12/02/2020 00:09:44	120220	12022020	000944	115.58	13.913128	-56.961980	115.74	-0.020	0.440	1.830	115.63	-1.00	2.30	 	 	 	 	 	 	 	 	 	 	 	 	 	 	 	 	 	 	1581466184	4.89	9.06
12/02/2020 00:09:45	120220	12022020	000945	115.64	13.913118	-56.961958	115.67	-0.180	0.020	1.760	115.59	-1.50	2.40	 	 	 	 	 	 	 	 	 	 	 	 	 	 	 	 	 	 	1581466185	5.19	9.61
12/02/2020 00:09:46	120220	12022020	000946	115.25	13.913103	-56.961937	115.23	-0.290	-0.500	2.270	115.15	-2.00	3.00	 	 	 	 	 	 	 	 	 	 	 	 	 	 	 	 	 	 	1581466186	5.45	10.09
12/02/2020 00:09:47	120220	12022020	000947	114.82	13.913088	-56.961917	114.88	-0.200	-0.850	2.880	114.76	-2.30	3.50	 	 	 	 	 	 	 	 	 	 	 	 	 	 	 	 	 	 	1581466187	5.51	10.20
12/02/2020 00:09:48	120220	12022020	000948	114.62	13.913073	-56.961895	114.71	0.150	-1.070	3.170	114.59	-2.50	3.70	 	 	 	 	 	 	 	 	 	 	 	 	 	 	 	 	 	 	1581466188	5.46	10.11
12/02/2020 00:09:49	120220	12022020	000949	114.45	13.913058	-56.961872	114.56	0.530	-1.230	3.310	114.42	-2.50	3.80	 	 	 	 	 	 	 	 	 	 	 	 	 	 	 	 	 	 	1581466189	5.74	10.63
12/02/2020 00:09:50	120220	12022020	000950	114.45	13.913045	-56.961850	114.64	0.460	-0.670	3.190	114.51	-1.60	3.60	 	 	 	 	 	 	 	 	 	 	 	 	 	 	 	 	 	 	1581466190	5.56	10.30
12/02/2020 00:09:51	120220	12022020	000951	114.87	13.913033	-56.961833	115.14	-0.210	0.770	2.940	114.99	-0.10	3.40	 	 	 	 	 	 	 	 	 	 	 	 	 	 	 	 	 	 	1581466191	4.35	8.06
12/02/2020 00:09:52	120220	12022020	000952	115.44	13.913022	-56.961820	115.66	-0.990	2.010	2.790	115.53	0.80	3.20	 	 	 	 	 	 	 	 	 	 	 	 	 	 	 	 	 	 	1581466192	3.64	6.74
12/02/2020 00:09:53	120220	12022020	000953	115.70	13.913010	-56.961803	115.82	-1.100	1.690	2.600	115.70	-0.20	3.00	 	 	 	 	 	 	 	 	 	 	 	 	 	 	 	 	 	 	1581466193	4.39	8.13
12/02/2020 00:09:54	120220	12022020	000954	115.56	13.912997	-56.961778	115.61	-0.350	-0.270	2.250	115.49	-2.30	2.70	 	 	 	 	 	 	 	 	 	 	 	 	 	 	 	 	 	 	1581466194	6.18	11.45
12/02/2020 00:09:55	120220	12022020	000955	115.15	13.912982	-56.961747	115.16	0.610	-2.190	2.100	115.06	-3.80	2.60	 	 	 	 	 	 	 	 	 	 	 	 	 	 	 	 	 	 	1581466195	7.07	13.09
12/02/2020 00:09:56	120220	12022020	000956	114.75	13.912970	-56.961722	114.83	1.050	-2.420	2.160	114.71	-3.40	2.70	 	 	 	 	 	 	 	 	 	 	 	 	 	 	 	 	 	 	1581466196	6.12	11.33
12/02/2020 00:09:57	120220	12022020	000957	114.78	13.912962	-56.961703	114.97	0.720	-0.910	1.980	114.85	-1.70	2.40	 	 	 	 	 	 	 	 	 	 	 	 	 	 	 	 	 	 	1581466197	4.25	7.87
12/02/2020 00:09:58	120220	12022020	000958	115.31	13.912955	-56.961688	115.56	-0.060	0.890	1.690	115.45	-0.10	2.20	 	 	 	 	 	 	 	 	 	 	 	 	 	 	 	 	 	 	1581466198	3.31	6.13
12/02/2020 00:09:59	120220	12022020	000959	115.88	13.912943	-56.961673	116.08	-0.710	1.560	1.850	115.96	0.10	2.50	 	 	 	 	 	 	 	 	 	 	 	 	 	 	 	 	 	 	1581466199	4.04	7.48
12/02/2020 00:10:00	120220	12022020	001000	116.05	13.912923	-56.961655	116.18	-0.820	0.840	2.480	116.03	-0.90	3.20	 	 	 	 	 	 	 	 	 	 	 	 	 	 	 	 	 	 	1581466200	5.72	10.59
12/02/2020 00:10:01	120220	12022020	001001	115.85	13.912902	-56.961633	115.92	-0.350	-0.350	3.020	115.79	-2.00	3.60	 	 	 	 	 	 	 	 	 	 	 	 	 	 	 	 	 	 	1581466201	6.56	12.15
12/02/2020 00:10:02	120220	12022020	001002	115.45	13.912885	-56.961608	115.47	0.360	-1.160	3.260	115.34	-2.60	3.80	1016.80	26.20	26.20	20.20	20.30	-1.0	69.0	70.0	392.0	25.8	321.00	15.70	70.00	13.80	16	10103.0	27.2	27.2	1581466202	6.23	11.54
12/02/2020 00:10:03	120220	12022020	001003	114.91	13.912872	-56.961585	114.94	0.810	-1.190	3.130	114.81	-2.40	3.50	 	 	 	 	 	 	 	 	 	 	 	 	 	 	 	 	 	 	1581466203	5.55	10.28
12/02/2020 00:10:04	120220	12022020	001004	114.60	13.912865	-56.961565	114.72	0.600	-0.420	2.560	114.60	-1.50	2.90	 	 	 	 	 	 	 	 	 	 	 	 	 	 	 	 	 	 	1581466204	4.74	8.78
12/02/2020 00:10:05	120220	12022020	001005	114.77	13.912860	-56.961545	114.98	-0.110	0.610	1.810	114.85	-0.50	2.10	 	 	 	 	 	 	 	 	 	 	 	 	 	 	 	 	 	 	1581466205	4.08	7.56
12/02/2020 00:10:06	120220	12022020	001006	115.16	13.912853	-56.961527	115.32	-0.790	0.930	1.360	115.16	-0.40	2.00	 	 	 	 	 	 	 	 	 	 	 	 	 	 	 	 	 	 	1581466206	4.19	7.76
12/02/2020 00:10:07	120220	12022020	001007	115.24	13.912838	-56.961505	115.32	-0.860	-0.010	1.580	115.21	-1.80	2.30	 	 	 	 	 	 	 	 	 	 	 	 	 	 	 	 	 	 	1581466207	5.55	10.28
12/02/2020 00:10:08	120220	12022020	001008	114.96	13.912817	-56.961482	115.02	-0.370	-1.280	2.360	114.88	-2.90	3.20	 	 	 	 	 	 	 	 	 	 	 	 	 	 	 	 	 	 	1581466208	6.86	12.70
12/02/2020 00:10:09	120220	12022020	001009	114.63	13.912795	-56.961460	114.73	0.110	-1.430	3.160	114.59	-2.50	3.80	 	 	 	 	 	 	 	 	 	 	 	 	 	 	 	 	 	 	1581466209	6.48	12.00
12/02/2020 00:10:10	120220	12022020	001010	114.56	13.912778	-56.961443	114.73	0.230	-0.270	3.190	114.58	-1.20	3.50	 	 	 	 	 	 	 	 	 	 	 	 	 	 	 	 	 	 	1581466210	4.78	8.85
12/02/2020 00:10:11	120220	12022020	001011	114.70	13.912770	-56.961428	114.85	0.170	0.930	2.550	114.73	-0.30	2.80	 	 	 	 	 	 	 	 	 	 	 	 	 	 	 	 	 	 	1581466211	3.70	6.85
12/02/2020 00:10:12	120220	12022020	001012	114.70	13.912765	-56.961408	114.77	0.320	0.850	1.890	114.66	-0.80	2.30	 	 	 	 	 	 	 	 	 	 	 	 	 	 	 	 	 	 	1581466212	4.57	8.46
12/02/2020 00:10:13	120220	12022020	001013	114.42	13.912755	-56.961380	114.46	0.630	-0.320	1.670	114.36	-2.00	2.20	 	 	 	 	 	 	 	 	 	 	 	 	 	 	 	 	 	 	1581466213	6.09	11.28
12/02/2020 00:10:14	120220	12022020	001014	114.24	13.912743	-56.961353	114.36	0.640	-0.980	1.720	114.25	-2.30	2.30	 	 	 	 	 	 	 	 	 	 	 	 	 	 	 	 	 	 	1581466214	6.24	11.56
12/02/2020 00:10:15	120220	12022020	001015	114.45	13.912733	-56.961333	114.66	0.080	-0.280	1.830	114.53	-1.30	2.40	 	 	 	 	 	 	 	 	 	 	 	 	 	 	 	 	 	 	1581466215	4.82	8.93
12/02/2020 00:10:16	120220	12022020	001016	114.87	13.912720	-56.961320	115.08	-0.670	0.690	2.110	114.95	-0.60	2.70	 	 	 	 	 	 	 	 	 	 	 	 	 	 	 	 	 	 	1581466216	3.85	7.13
12/02/2020 00:10:17	120220	12022020	001017	115.20	13.912705	-56.961303	115.40	-0.850	0.510	2.530	115.25	-1.20	3.20	 	 	 	 	 	 	 	 	 	 	 	 	 	 	 	 	 	 	1581466217	4.68	8.67
12/02/2020 00:10:18	120220	12022020	001018	115.46	13.912687	-56.961282	115.64	-0.280	-0.710	2.920	115.51	-2.50	3.60	 	 	 	 	 	 	 	 	 	 	 	 	 	 	 	 	 	 	1581466218	6.11	11.32
12/02/2020 00:10:19	120220	12022020	001019	115.46	13.912668	-56.961257	115.50	0.420	-1.640	3.410	115.38	-3.10	4.10	 	 	 	 	 	 	 	 	 	 	 	 	 	 	 	 	 	 	1581466219	6.53	12.09
12/02/2020 00:10:20	120220	12022020	001020	114.87	13.912652	-56.961235	114.79	0.650	-1.470	3.700	114.69	-2.60	4.20	 	 	 	 	 	 	 	 	 	 	 	 	 	 	 	 	 	 	1581466220	5.72	10.59
12/02/2020 00:10:21	120220	12022020	001021	114.03	13.912642	-56.961217	114.04	0.390	-0.390	3.460	113.92	-1.40	3.80	 	 	 	 	 	 	 	 	 	 	 	 	 	 	 	 	 	 	1581466221	4.68	8.67
12/02/2020 00:10:22	120220	12022020	001022	113.82	13.912635	-56.961197	114.03	-0.090	0.800	2.590	113.89	-0.30	2.80	 	 	 	 	 	 	 	 	 	 	 	 	 	 	 	 	 	 	1581466222	4.26	7.89
12/02/2020 00:10:23	120220	12022020	001023	114.47	13.912628	-56.961177	114.79	-0.470	1.420	1.460	114.65	0.00	1.70	 	 	 	 	 	 	 	 	 	 	 	 	 	 	 	 	 	 	1581466223	4.39	8.13
12/02/2020 00:10:24	120220	12022020	001024	115.31	13.912622	-56.961155	115.53	-0.510	1.070	0.590	115.42	-0.60	1.00	 	 	 	 	 	 	 	 	 	 	 	 	 	 	 	 	 	 	1581466224	4.98	9.22
12/02/2020 00:10:25	120220	12022020	001025	115.59	13.912610	-56.961130	115.65	-0.190	-0.080	0.410	115.57	-1.80	1.10	 	 	 	 	 	 	 	 	 	 	 	 	 	 	 	 	 	 	1581466225	5.87	10.87
12/02/2020 00:10:26	120220	12022020	001026	115.28	13.912593	-56.961105	115.28	0.150	-1.120	1.180	115.18	-2.70	2.10	 	 	 	 	 	 	 	 	 	 	 	 	 	 	 	 	 	 	1581466226	6.18	11.45
12/02/2020 00:10:27	120220	12022020	001027	114.81	13.912575	-56.961085	114.87	0.260	-1.390	2.570	114.74	-2.70	3.50	 	 	 	 	 	 	 	 	 	 	 	 	 	 	 	 	 	 	1581466227	5.92	10.96
12/02/2020 00:10:28	120220	12022020	001028	114.56	13.912555	-56.961068	114.70	0.120	-0.820	3.620	114.54	-1.90	4.30	 	 	 	 	 	 	 	 	 	 	 	 	 	 	 	 	 	 	1581466228	5.28	9.78
12/02/2020 00:10:29	120220	12022020	001029	114.54	13.912542	-56.961053	114.69	-0.040	0.030	3.790	114.54	-1.20	4.20	 	 	 	 	 	 	 	 	 	 	 	 	 	 	 	 	 	 	1581466229	4.48	8.30
12/02/2020 00:10:30	120220	12022020	001030	114.48	13.912532	-56.961033	114.61	0.030	0.340	3.310	114.47	-1.10	3.60	 	 	 	 	 	 	 	 	 	 	 	 	 	 	 	 	 	 	1581466230	4.63	8.57
12/02/2020 00:10:31	120220	12022020	001031	114.43	13.912522	-56.961010	114.57	0.310	0.000	2.680	114.44	-1.50	3.00	 	 	 	 	 	 	 	 	 	 	 	 	 	 	 	 	 	 	1581466231	5.43	10.06
12/02/2020 00:10:32	120220	12022020	001032	114.50	13.912512	-56.960983	114.65	0.510	-0.460	2.230	114.52	-1.90	2.60	 	 	 	 	 	 	 	 	 	 	 	 	 	 	 	 	 	 	1581466232	5.83	10.80
12/02/2020 00:10:33	120220	12022020	001033	114.60	13.912502	-56.960960	114.73	0.440	-0.530	1.890	114.62	-1.80	2.30	 	 	 	 	 	 	 	 	 	 	 	 	 	 	 	 	 	 	1581466233	5.57	10.32
12/02/2020 00:10:34	120220	12022020	001034	114.68	13.912492	-56.960938	114.79	0.070	-0.130	1.760	114.70	-1.30	2.30	 	 	 	 	 	 	 	 	 	 	 	 	 	 	 	 	 	 	1581466234	5.05	9.35
12/02/2020 00:10:35	120220	12022020	001035	114.79	13.912480	-56.960918	114.92	-0.410	0.410	1.920	114.81	-0.90	2.50	 	 	 	 	 	 	 	 	 	 	 	 	 	 	 	 	 	 	1581466235	4.67	8.65
12/02/2020 00:10:36	120220	12022020	001036	114.93	13.912467	-56.960900	115.09	-0.740	0.530	2.170	114.96	-0.90	2.70	 	 	 	 	 	 	 	 	 	 	 	 	 	 	 	 	 	 	1581466236	4.88	9.04
12/02/2020 00:10:37	120220	12022020	001037	115.08	13.912450	-56.960880	115.25	-0.740	0.140	2.350	115.11	-1.40	2.90	 	 	 	 	 	 	 	 	 	 	 	 	 	 	 	 	 	 	1581466237	5.38	9.96
12/02/2020 00:10:38	120220	12022020	001038	115.18	13.912435	-56.960858	115.31	-0.340	-0.470	2.410	115.17	-2.00	2.90	 	 	 	 	 	 	 	 	 	 	 	 	 	 	 	 	 	 	1581466238	5.69	10.54
12/02/2020 00:10:39	120220	12022020	001039	115.02	13.912422	-56.960835	115.07	0.330	-1.010	2.430	114.95	-2.50	3.00	 	 	 	 	 	 	 	 	 	 	 	 	 	 	 	 	 	 	1581466239	5.73	10.61
12/02/2020 00:10:40	120220	12022020	001040	114.62	13.912410	-56.960810	114.64	0.890	-1.190	2.510	114.53	-2.50	3.00	 	 	 	 	 	 	 	 	 	 	 	 	 	 	 	 	 	 	1581466240	5.77	10.69
12/02/2020 00:10:41	120220	12022020	001041	114.37	13.912398	-56.960788	114.52	0.800	-0.640	2.540	114.38	-1.70	3.00	 	 	 	 	 	 	 	 	 	 	 	 	 	 	 	 	 	 	1581466241	5.31	9.83
12/02/2020 00:10:42	120220	12022020	001042	114.64	13.912388	-56.960770	114.89	0.060	0.400	2.450	114.74	-0.70	2.90	 	 	 	 	 	 	 	 	 	 	 	 	 	 	 	 	 	 	1581466242	4.46	8.26
12/02/2020 00:10:43	120220	12022020	001043	115.16	13.912377	-56.960752	115.42	-0.730	1.000	2.370	115.26	-0.40	2.90	 	 	 	 	 	 	 	 	 	 	 	 	 	 	 	 	 	 	1581466243	4.37	8.09
12/02/2020 00:10:44	120220	12022020	001044	115.51	13.912362	-56.960733	115.69	-0.830	0.530	2.410	115.53	-1.20	2.90	 	 	 	 	 	 	 	 	 	 	 	 	 	 	 	 	 	 	1581466244	5.37	9.95
12/02/2020 00:10:45	120220	12022020	001045	115.49	13.912343	-56.960708	115.59	-0.150	-0.420	2.550	115.45	-2.00	3.10	 	 	 	 	 	 	 	 	 	 	 	 	 	 	 	 	 	 	1581466245	6.30	11.67
12/02/2020 00:10:46	120220	12022020	001046	115.26	13.912328	-56.960685	115.39	0.580	-0.760	2.560	115.25	-2.10	3.00	 	 	 	 	 	 	 	 	 	 	 	 	 	 	 	 	 	 	1581466246	6.04	11.19
12/02/2020 00:10:47	120220	12022020	001047	115.30	13.912318	-56.960663	115.48	0.650	-0.330	2.340	115.33	-1.50	2.80	 	 	 	 	 	 	 	 	 	 	 	 	 	 	 	 	 	 	1581466247	4.98	9.22
12/02/2020 00:10:48	120220	12022020	001048	115.43	13.912312	-56.960643	115.56	0.130	0.120	2.170	115.42	-1.30	2.70	 	 	 	 	 	 	 	 	 	 	 	 	 	 	 	 	 	 	1581466248	4.46	8.26
12/02/2020 00:10:49	120220	12022020	001049	115.32	13.912300	-56.960622	115.41	-0.370	-0.090	2.220	115.28	-1.60	2.80	 	 	 	 	 	 	 	 	 	 	 	 	 	 	 	 	 	 	1581466249	5.03	9.32
12/02/2020 00:10:50	120220	12022020	001050	115.21	13.912285	-56.960598	115.36	-0.420	-0.620	2.330	115.21	-2.10	2.90	 	 	 	 	 	 	 	 	 	 	 	 	 	 	 	 	 	 	1581466250	5.81	10.76
12/02/2020 00:10:51	120220	12022020	001051	115.25	13.912268	-56.960577	115.40	-0.090	-0.970	2.590	115.26	-2.40	3.20	 	 	 	 	 	 	 	 	 	 	 	 	 	 	 	 	 	 	1581466251	6.02	11.15
12/02/2020 00:10:52	120220	12022020	001052	115.26	13.912250	-56.960555	115.38	0.310	-0.810	2.840	115.24	-2.00	3.40	 	 	 	 	 	 	 	 	 	 	 	 	 	 	 	 	 	 	1581466252	5.83	10.80
12/02/2020 00:10:53	120220	12022020	001053	115.15	13.912237	-56.960535	115.25	0.400	0.010	2.810	115.13	-1.00	3.20	 	 	 	 	 	 	 	 	 	 	 	 	 	 	 	 	 	 	1581466253	5.11	9.46
12/02/2020 00:10:54	120220	12022020	001054	115.03	13.912227	-56.960517	115.13	0.080	1.070	2.550	115.01	-0.10	3.00	 	 	 	 	 	 	 	 	 	 	 	 	 	 	 	 	 	 	1581466254	4.32	8.00
12/02/2020 00:10:55	120220	12022020	001055	114.90	13.912218	-56.960498	115.00	-0.350	1.350	2.230	114.88	-0.20	2.60	 	 	 	 	 	 	 	 	 	 	 	 	 	 	 	 	 	 	1581466255	4.43	8.20
12/02/2020 00:10:56	120220	12022020	001056	114.91	13.912208	-56.960475	115.08	-0.550	0.460	1.810	114.91	-0.50	2.50	 	 	 	 	 	 	 	 	 	 	 	 	 	 	 	 	 	 	1581466256	5.43	10.06
12/02/2020 00:10:57	120220	12022020	001057	115.09	13.912195	-56.960448	115.28	-0.360	-0.970	1.500	115.13	-2.80	2.00	 	 	 	 	 	 	 	 	 	 	 	 	 	 	 	 	 	 	1581466257	6.27	11.61
12/02/2020 00:10:58	120220	12022020	001058	115.16	13.912178	-56.960422	115.28	0.120	-1.990	1.690	115.14	-3.40	2.40	 	 	 	 	 	 	 	 	 	 	 	 	 	 	 	 	 	 	1581466258	6.47	11.98
12/02/2020 00:10:59	120220	12022020	001059	114.97	13.912162	-56.960400	115.07	0.500	-1.800	2.210	114.93	-2.80	2.90	 	 	 	 	 	 	 	 	 	 	 	 	 	 	 	 	 	 	1581466259	5.87	10.87
12/02/2020 00:11:00	120220	12022020	001100	114.80	13.912148	-56.960382	114.93	0.460	-0.540	2.550	114.79	-1.50	3.10	 	 	 	 	 	 	 	 	 	 	 	 	 	 	 	 	 	 	1581466260	4.73	8.76
12/02/2020 00:11:01	120220	12022020	001101	114.84	13.912138	-56.960365	115.02	0.110	0.740	2.560	114.87	-0.40	3.00	 	 	 	 	 	 	 	 	 	 	 	 	 	 	 	 	 	 	1581466261	4.21	7.80
12/02/2020 00:11:02	120220	12022020	001102	115.05	13.912127	-56.960345	115.26	-0.260	1.200	2.510	115.09	-0.20	3.00	1016.90	26.20	26.20	20.30	20.40	-1.0	70.0	70.0	391.0	25.8	322.00	15.90	70.00	13.90	16	10207.0	27.2	27.2	1581466262	4.71	8.72
12/02/2020 00:11:03	120220	12022020	001103	115.25	13.912113	-56.960323	115.43	-0.450	0.880	2.500	115.26	-0.70	3.00	 	 	 	 	 	 	 	 	 	 	 	 	 	 	 	 	 	 	1581466263	5.45	10.09
12/02/2020 00:11:04	120220	12022020	001104	115.25	13.912098	-56.960300	115.37	-0.440	0.170	2.590	115.23	-1.50	3.10	 	 	 	 	 	 	 	 	 	 	 	 	 	 	 	 	 	 	1581466264	5.83	10.80
12/02/2020 00:11:05	120220	12022020	001105	115.14	13.912083	-56.960277	115.27	-0.190	-0.600	2.720	115.12	-2.10	3.30	 	 	 	 	 	 	 	 	 	 	 	 	 	 	 	 	 	 	1581466265	6.01	11.13
12/02/2020 00:11:06	120220	12022020	001106	115.08	13.912068	-56.960253	115.22	0.210	-0.970	2.820	115.08	-2.40	3.30	 	 	 	 	 	 	 	 	 	 	 	 	 	 	 	 	 	 	1581466266	5.82	10.78
12/02/2020 00:11:07	120220	12022020	001107	115.07	13.912055	-56.960232	115.22	0.530	-0.860	2.660	115.08	-2.10	3.00	 	 	 	 	 	 	 	 	 	 	 	 	 	 	 	 	 	 	1581466267	5.35	9.91
12/02/2020 00:11:08	120220	12022020	001108	115.18	13.912047	-56.960210	115.35	0.510	-0.440	2.170	115.21	-1.70	2.50	 	 	 	 	 	 	 	 	 	 	 	 	 	 	 	 	 	 	1581466268	5.00	9.26
12/02/2020 00:11:09	120220	12022020	001109	115.35	13.912037	-56.960188	115.49	0.210	-0.090	1.870	115.36	-1.40	2.40	 	 	 	 	 	 	 	 	 	 	 	 	 	 	 	 	 	 	1581466269	4.89	9.06
12/02/2020 00:11:10	120220	12022020	001110	115.38	13.912025	-56.960167	115.51	0.060	-0.110	2.000	115.38	-1.50	2.50	 	 	 	 	 	 	 	 	 	 	 	 	 	 	 	 	 	 	1581466270	5.30	9.82
12/02/2020 00:11:11	120220	12022020	001111	115.44	13.912012	-56.960143	115.60	0.110	-0.230	2.080	115.46	-1.60	2.60	 	 	 	 	 	 	 	 	 	 	 	 	 	 	 	 	 	 	1581466271	5.74	10.63
12/02/2020 00:11:12	120220	12022020	001112	115.60	13.911997	-56.960122	115.76	0.030	-0.110	2.200	115.62	-1.40	2.80	 	 	 	 	 	 	 	 	 	 	 	 	 	 	 	 	 	 	1581466272	5.58	10.33
12/02/2020 00:11:13	120220	12022020	001113	115.64	13.911982	-56.960102	115.76	-0.360	0.170	2.640	115.61	-1.10	3.30	 	 	 	 	 	 	 	 	 	 	 	 	 	 	 	 	 	 	1581466273	5.31	9.83
12/02/2020 00:11:14	120220	12022020	001114	115.43	13.911965	-56.960083	115.53	-0.780	0.350	3.120	115.37	-1.00	3.70	 	 	 	 	 	 	 	 	 	 	 	 	 	 	 	 	 	 	1581466274	5.27	9.76
12/02/2020 00:11:15	120220	12022020	001115	115.15	13.911948	-56.960063	115.27	-0.860	0.250	3.190	115.10	-1.20	3.60	 	 	 	 	 	 	 	 	 	 	 	 	 	 	 	 	 	 	1581466275	5.35	9.91
12/02/2020 00:11:16	120220	12022020	001116	114.97	13.911935	-56.960042	115.12	-0.460	-0.250	2.840	114.96	-1.80	3.20	 	 	 	 	 	 	 	 	 	 	 	 	 	 	 	 	 	 	1581466276	5.65	10.46
12/02/2020 00:11:17	120220	12022020	001117	114.99	13.911922	-56.960015	115.18	0.260	-0.860	2.220	115.03	-2.40	2.50	 	 	 	 	 	 	 	 	 	 	 	 	 	 	 	 	 	 	1581466277	5.98	11.07
12/02/2020 00:11:18	120220	12022020	001118	115.23	13.911912	-56.959990	115.43	0.910	-1.090	1.510	115.29	-2.40	1.80	 	 	 	 	 	 	 	 	 	 	 	 	 	 	 	 	 	 	1581466278	5.88	10.89
12/02/2020 00:11:19	120220	12022020	001119	115.47	13.911903	-56.959965	115.61	1.160	-0.820	1.070	115.49	-2.00	1.50	 	 	 	 	 	 	 	 	 	 	 	 	 	 	 	 	 	 	1581466279	5.50	10.19
12/02/2020 00:11:20	120220	12022020	001120	115.42	13.911892	-56.959943	115.48	0.950	-0.220	1.160	115.37	-1.40	1.80	 	 	 	 	 	 	 	 	 	 	 	 	 	 	 	 	 	 	1581466280	5.17	9.57
12/02/2020 00:11:21	120220	12022020	001121	115.11	13.911880	-56.959923	115.17	0.320	0.510	1.710	115.04	-0.60	2.40	 	 	 	 	 	 	 	 	 	 	 	 	 	 	 	 	 	 	1581466281	4.99	9.24
12/02/2020 00:11:22	120220	12022020	001122	114.84	13.911867	-56.959905	114.95	-0.540	1.130	2.370	114.81	-0.20	3.00	 	 	 	 	 	 	 	 	 	 	 	 	 	 	 	 	 	 	1581466282	4.85	8.98
12/02/2020 00:11:23	120220	12022020	001123	114.76	13.911852	-56.959887	114.95	-1.150	1.100	2.720	114.77	-0.50	3.30	 	 	 	 	 	 	 	 	 	 	 	 	 	 	 	 	 	 	1581466283	5.03	9.32
12/02/2020 00:11:24	120220	12022020	001124	114.84	13.911835	-56.959865	115.06	-1.110	0.110	2.830	114.86	-1.70	3.30	 	 	 	 	 	 	 	 	 	 	 	 	 	 	 	 	 	 	1581466284	5.80	10.74
12/02/2020 00:11:25	120220	12022020	001125	114.95	13.911817	-56.959838	115.14	-0.530	-1.260	2.930	114.96	-3.00	3.50	 	 	 	 	 	 	 	 	 	 	 	 	 	 	 	 	 	 	1581466285	6.56	12.15
12/02/2020 00:11:26	120220	12022020	001126	114.87	13.911798	-56.959813	114.99	0.160	-2.140	3.140	114.81	-3.50	3.70	 	 	 	 	 	 	 	 	 	 	 	 	 	 	 	 	 	 	1581466286	6.66	12.33
12/02/2020 00:11:27	120220	12022020	001127	114.45	13.911782	-56.959790	114.51	0.650	-1.860	3.350	114.34	-2.90	3.80	 	 	 	 	 	 	 	 	 	 	 	 	 	 	 	 	 	 	1581466287	6.02	11.15
12/02/2020 00:11:28	120220	12022020	001128	113.95	13.911770	-56.959770	114.04	0.810	-0.460	3.080	113.89	-1.30	3.30	 	 	 	 	 	 	 	 	 	 	 	 	 	 	 	 	 	 	1581466288	4.91	9.09
12/02/2020 00:11:29	120220	12022020	001129	113.84	13.911765	-56.959752	114.03	0.550	1.220	2.170	113.87	0.20	2.30	 	 	 	 	 	 	 	 	 	 	 	 	 	 	 	 	 	 	1581466289	4.17	7.72
12/02/2020 00:11:30	120220	12022020	001130	114.10	13.911762	-56.959730	114.33	0.000	1.920	1.190	114.18	0.50	1.50	 	 	 	 	 	 	 	 	 	 	 	 	 	 	 	 	 	 	1581466290	4.48	8.30
12/02/2020 00:11:31	120220	12022020	001131	114.46	13.911755	-56.959705	114.67	-0.470	1.230	0.640	114.52	-0.50	1.10	 	 	 	 	 	 	 	 	 	 	 	 	 	 	 	 	 	 	1581466291	5.45	10.09
12/02/2020 00:11:32	120220	12022020	001132	114.71	13.911742	-56.959678	114.89	-0.530	-0.240	0.590	114.71	-1.10	1.00	 	 	 	 	 	 	 	 	 	 	 	 	 	 	 	 	 	 	1581466292	6.32	11.70
12/02/2020 00:11:33	120220	12022020	001133	114.65	13.911723	-56.959652	114.73	-0.080	-1.610	1.270	114.58	-3.20	2.10	 	 	 	 	 	 	 	 	 	 	 	 	 	 	 	 	 	 	1581466293	6.72	12.45
12/02/2020 00:11:34	120220	12022020	001134	114.21	13.911703	-56.959628	114.28	0.480	-2.010	2.310	114.12	-3.20	3.10	 	 	 	 	 	 	 	 	 	 	 	 	 	 	 	 	 	 	1581466294	6.45	11.95
12/02/2020 00:11:35	120220	12022020	001135	113.91	13.911687	-56.959610	114.08	0.600	-1.250	3.040	113.90	-2.20	3.60	 	 	 	 	 	 	 	 	 	 	 	 	 	 	 	 	 	 	1581466295	5.45	10.09
12/02/2020 00:11:36	120220	12022020	001136	114.05	13.911675	-56.959593	114.33	0.160	0.070	3.220	114.12	-0.90	3.60	 	 	 	 	 	 	 	 	 	 	 	 	 	 	 	 	 	 	1581466296	4.48	8.30
12/02/2020 00:11:37	120220	12022020	001137	114.51	13.911665	-56.959575	114.79	-0.410	1.040	2.880	114.60	-0.20	3.20	 	 	 	 	 	 	 	 	 	 	 	 	 	 	 	 	 	 	1581466297	4.27	7.91
12/02/2020 00:11:38	120220	12022020	001138	114.88	13.911655	-56.959553	115.09	-0.550	0.940	2.350	114.92	-0.70	2.70	 	 	 	 	 	 	 	 	 	 	 	 	 	 	 	 	 	 	1581466298	5.08	9.41
12/02/2020 00:11:39	120220	12022020	001139	114.92	13.911643	-56.959525	115.07	-0.170	-0.060	2.070	114.91	-1.70	2.60	 	 	 	 	 	 	 	 	 	 	 	 	 	 	 	 	 	 	1581466299	6.27	11.61
12/02/2020 00:11:40	120220	12022020	001140	114.87	13.911628	-56.959498	115.06	0.130	-0.730	2.170	114.88	-2.10	2.70	 	 	 	 	 	 	 	 	 	 	 	 	 	 	 	 	 	 	1581466300	6.50	12.04
12/02/2020 00:11:41	120220	12022020	001141	115.04	13.911615	-56.959477	115.28	-0.090	-0.410	2.310	115.10	-1.50	2.80	 	 	 	 	 	 	 	 	 	 	 	 	 	 	 	 	 	 	1581466301	5.41	10.02
12/02/2020 00:11:42	120220	12022020	001142	115.35	13.911602	-56.959460	115.54	-0.480	0.220	2.120	115.39	-1.10	2.50	 	 	 	 	 	 	 	 	 	 	 	 	 	 	 	 	 	 	1581466302	4.48	8.30
12/02/2020 00:11:43	120220	12022020	001143	115.46	13.911590	-56.959440	115.60	-0.310	0.070	1.790	115.46	-1.50	2.20	 	 	 	 	 	 	 	 	 	 	 	 	 	 	 	 	 	 	1581466303	4.91	9.09
12/02/2020 00:11:44	120220	12022020	001144	115.35	13.911578	-56.959413	115.44	0.430	-0.800	1.630	115.30	-2.40	2.10	 	 	 	 	 	 	 	 	 	 	 	 	 	 	 	 	 	 	1581466304	6.12	11.33
12/02/2020 00:11:45	120220	12022020	001145	115.15	13.911563	-56.959387	115.26	0.980	-1.210	1.660	115.12	-2.50	2.20	 	 	 	 	 	 	 	 	 	 	 	 	 	 	 	 	 	 	1581466305	6.32	11.70
12/02/2020 00:11:46	120220	12022020	001146	115.08	13.911552	-56.959365	115.23	0.790	-0.550	1.540	115.10	-1.50	2.00	 	 	 	 	 	 	 	 	 	 	 	 	 	 	 	 	 	 	1581466306	5.37	9.95
12/02/2020 00:11:47	120220	12022020	001147	115.24	13.911543	-56.959347	115.43	0.040	0.670	1.300	115.30	-0.40	1.80	 	 	 	 	 	 	 	 	 	 	 	 	 	 	 	 	 	 	1581466307	4.34	8.04
12/02/2020 00:11:48	120220	12022020	001148	115.53	13.911535	-56.959328	115.73	-0.680	1.320	1.280	115.58	-0.10	1.80	 	 	 	 	 	 	 	 	 	 	 	 	 	 	 	 	 	 	1581466308	4.26	7.89
12/02/2020 00:11:49	120220	12022020	001149	115.79	13.911520	-56.959307	115.98	-0.830	0.680	1.640	115.82	-1.10	2.30	 	 	 	 	 	 	 	 	 	 	 	 	 	 	 	 	 	 	1581466309	5.32	9.85
12/02/2020 00:11:50	120220	12022020	001150	115.84	13.911502	-56.959282	115.95	-0.360	-0.780	2.230	115.80	-2.60	2.90	 	 	 	 	 	 	 	 	 	 	 	 	 	 	 	 	 	 	1581466310	6.63	12.28
12/02/2020 00:11:51	120220	12022020	001151	115.52	13.911482	-56.959257	115.56	0.320	-1.800	2.770	115.43	-3.20	3.40	 	 	 	 	 	 	 	 	 	 	 	 	 	 	 	 	 	 	1581466311	6.91	12.80
12/02/2020 00:11:52	120220	12022020	001152	115.02	13.911465	-56.959233	115.05	0.680	-1.550	3.270	114.91	-2.60	3.90	 	 	 	 	 	 	 	 	 	 	 	 	 	 	 	 	 	 	1581466312	6.00	11.11
12/02/2020 00:11:53	120220	12022020	001153	114.57	13.911452	-56.959213	114.67	0.460	-0.380	3.590	114.51	-1.30	4.10	 	 	 	 	 	 	 	 	 	 	 	 	 	 	 	 	 	 	1581466313	4.90	9.07
12/02/2020 00:11:54	120220	12022020	001154	114.41	13.911442	-56.959197	114.60	-0.220	0.880	3.250	114.44	-0.20	3.50	 	 	 	 	 	 	 	 	 	 	 	 	 	 	 	 	 	 	1581466314	4.37	8.09
12/02/2020 00:11:55	120220	12022020	001155	114.69	13.911433	-56.959177	114.97	-0.900	1.570	2.370	114.78	0.20	2.60	 	 	 	 	 	 	 	 	 	 	 	 	 	 	 	 	 	 	1581466315	4.42	8.19
12/02/2020 00:11:56	120220	12022020	001156	115.14	13.911423	-56.959155	115.42	-0.950	1.120	1.660	115.23	-0.60	2.00	 	 	 	 	 	 	 	 	 	 	 	 	 	 	 	 	 	 	1581466316	5.14	9.52
12/02/2020 00:11:57	120220	12022020	001157	115.45	13.911408	-56.959128	115.65	-0.170	-0.400	1.320	115.48	-2.30	1.80	 	 	 	 	 	 	 	 	 	 	 	 	 	 	 	 	 	 	1581466317	6.37	11.80
12/02/2020 00:11:58	120220	12022020	001158	115.46	13.911392	-56.959100	115.57	0.840	-1.770	1.210	115.43	-3.30	1.70	 	 	 	 	 	 	 	 	 	 	 	 	 	 	 	 	 	 	1581466318	6.91	12.80
12/02/2020 00:11:59	120220	12022020	001159	115.24	13.911380	-56.959075	115.32	1.300	-1.800	1.260	115.19	-2.90	1.80	 	 	 	 	 	 	 	 	 	 	 	 	 	 	 	 	 	 	1581466319	6.05	11.20
12/02/2020 00:12:00	120220	12022020	001200	115.04	13.911370	-56.959053	115.15	0.970	-0.580	1.420	115.03	-1.40	2.00	 	 	 	 	 	 	 	 	 	 	 	 	 	 	 	 	 	 	1581466320	4.69	8.69
12/02/2020 00:12:01	120220	12022020	001201	115.08	13.911363	-56.959037	115.25	0.110	0.770	1.620	115.11	-0.40	2.20	 	 	 	 	 	 	 	 	 	 	 	 	 	 	 	 	 	 	1581466321	4.05	7.50
12/02/2020 00:12:02	120220	12022020	001202	115.26	13.911350	-56.959018	115.45	-0.710	1.030	2.030	115.29	-0.50	2.70	1017.00	26.30	26.30	20.70	20.70	-1.0	71.0	71.0	391.0	25.8	324.00	14.70	71.00	12.50	16	9717.0	27.2	27.2	1581466322	4.76	8.82
12/02/2020 00:12:03	120220	12022020	001203	115.30	13.911332	-56.958995	115.45	-0.970	0.210	2.670	115.27	-1.40	3.40	 	 	 	 	 	 	 	 	 	 	 	 	 	 	 	 	 	 	1581466323	6.21	11.50
12/02/2020 00:12:04	120220	12022020	001204	115.11	13.911312	-56.958972	115.24	-0.660	-0.570	3.260	115.06	-2.00	3.90	 	 	 	 	 	 	 	 	 	 	 	 	 	 	 	 	 	 	1581466324	6.75	12.50
12/02/2020 00:12:05	120220	12022020	001205	114.91	13.911293	-56.958948	115.09	-0.240	-0.550	3.450	114.90	-1.80	3.90	 	 	 	 	 	 	 	 	 	 	 	 	 	 	 	 	 	 	1581466325	5.97	11.06
12/02/2020 00:12:06	120220	12022020	001206	115.01	13.911280	-56.958928	115.25	-0.070	-0.050	3.220	115.07	-1.30	3.60	 	 	 	 	 	 	 	 	 	 	 	 	 	 	 	 	 	 	1581466326	4.99	9.24
12/02/2020 00:12:07	120220	12022020	001207	115.29	13.911270	-56.958910	115.49	-0.060	0.150	2.750	115.33	-1.30	3.10	 	 	 	 	 	 	 	 	 	 	 	 	 	 	 	 	 	 	1581466327	4.84	8.96
12/02/2020 00:12:08	120220	12022020	001208	115.32	13.911258	-56.958885	115.42	0.180	-0.350	2.210	115.29	-2.00	2.60	 	 	 	 	 	 	 	 	 	 	 	 	 	 	 	 	 	 	1581466328	5.57	10.32
12/02/2020 00:12:09	120220	12022020	001209	115.02	13.911247	-56.958858	115.09	0.720	-1.110	1.840	114.95	-2.60	2.30	 	 	 	 	 	 	 	 	 	 	 	 	 	 	 	 	 	 	1581466329	6.37	11.80
12/02/2020 00:12:10	120220	12022020	001210	114.85	13.911235	-56.958830	115.00	1.080	-1.140	1.470	114.87	-2.20	1.90	 	 	 	 	 	 	 	 	 	 	 	 	 	 	 	 	 	 	1581466330	6.28	11.63
12/02/2020 00:12:11	120220	12022020	001211	115.14	13.911227	-56.958808	115.38	0.730	-0.010	1.210	115.25	-0.90	1.70	 	 	 	 	 	 	 	 	 	 	 	 	 	 	 	 	 	 	1581466331	5.04	9.33
12/02/2020 00:12:12	120220	12022020	001212	115.65	13.911217	-56.958792	115.87	-0.250	1.310	1.300	115.74	0.20	1.90	 	 	 	 	 	 	 	 	 	 	 	 	 	 	 	 	 	 	1581466332	4.00	7.41
12/02/2020 00:12:13	120220	12022020	001213	115.93	13.911203	-56.958775	116.07	-1.060	1.520	1.670	115.93	-0.10	2.30	 	 	 	 	 	 	 	 	 	 	 	 	 	 	 	 	 	 	1581466333	4.50	8.33
12/02/2020 00:12:14	120220	12022020	001214	115.77	13.911187	-56.958753	115.86	-0.970	0.320	2.260	115.71	-1.60	3.00	 	 	 	 	 	 	 	 	 	 	 	 	 	 	 	 	 	 	1581466334	5.94	11.00
12/02/2020 00:12:15	120220	12022020	001215	115.42	13.911167	-56.958727	115.55	-0.110	-1.330	2.900	115.37	-3.10	3.50	 	 	 	 	 	 	 	 	 	 	 	 	 	 	 	 	 	 	1581466335	7.01	12.98
12/02/2020 00:12:16	120220	12022020	001216	115.32	13.911148	-56.958700	115.52	0.720	-2.090	3.200	115.34	-3.40	3.70	 	 	 	 	 	 	 	 	 	 	 	 	 	 	 	 	 	 	1581466336	6.76	12.52
12/02/2020 00:12:17	120220	12022020	001217	115.49	13.911135	-56.958678	115.71	0.880	-1.450	3.010	115.53	-2.40	3.40	 	 	 	 	 	 	 	 	 	 	 	 	 	 	 	 	 	 	1581466337	5.48	10.15
12/02/2020 00:12:18	120220	12022020	001218	115.62	13.911125	-56.958660	115.75	0.460	-0.120	2.620	115.60	-1.10	3.00	 	 	 	 	 	 	 	 	 	 	 	 	 	 	 	 	 	 	1581466338	4.39	8.13
12/02/2020 00:12:19	120220	12022020	001219	115.37	13.911117	-56.958640	115.43	-0.040	0.770	2.400	115.29	-0.50	2.90	 	 	 	 	 	 	 	 	 	 	 	 	 	 	 	 	 	 	1581466339	4.53	8.39
12/02/2020 00:12:20	120220	12022020	001220	115.06	13.911105	-56.958618	115.22	-0.390	0.940	2.100	115.06	-0.40	2.50	 	 	 	 	 	 	 	 	 	 	 	 	 	 	 	 	 	 	1581466340	5.30	9.82
12/02/2020 00:12:21	120220	12022020	001221	115.28	13.911093	-56.958595	115.55	-0.640	0.820	1.650	115.37	-0.60	2.10	 	 	 	 	 	 	 	 	 	 	 	 	 	 	 	 	 	 	1581466341	5.50	10.19
12/02/2020 00:12:22	120220	12022020	001222	115.71	13.911080	-56.958572	115.93	-0.760	0.370	1.510	115.77	-1.20	2.10	 	 	 	 	 	 	 	 	 	 	 	 	 	 	 	 	 	 	1581466342	5.50	10.19
12/02/2020 00:12:23	120220	12022020	001223	115.86	13.911063	-56.958550	116.00	-0.580	-0.470	1.690	115.86	-2.10	2.30	 	 	 	 	 	 	 	 	 	 	 	 	 	 	 	 	 	 	1581466343	6.01	11.13
12/02/2020 00:12:24	120220	12022020	001224	115.73	13.911045	-56.958527	115.80	-0.100	-1.130	2.020	115.67	-2.60	2.70	 	 	 	 	 	 	 	 	 	 	 	 	 	 	 	 	 	 	1581466344	6.22	11.52
12/02/2020 00:12:25	120220	12022020	001225	115.36	13.911028	-56.958505	115.41	0.520	-1.170	2.420	115.28	-2.40	3.00	 	 	 	 	 	 	 	 	 	 	 	 	 	 	 	 	 	 	1581466345	5.81	10.76
12/02/2020 00:12:26	120220	12022020	001226	115.03	13.911015	-56.958483	115.14	1.010	-0.760	2.490	115.01	-1.90	2.90	 	 	 	 	 	 	 	 	 	 	 	 	 	 	 	 	 	 	1581466346	5.25	9.72
12/02/2020 00:12:27	120220	12022020	001227	115.01	13.911007	-56.958460	115.16	1.090	-0.260	2.090	115.02	-1.50	2.40	 	 	 	 	 	 	 	 	 	 	 	 	 	 	 	 	 	 	1581466347	5.12	9.48
12/02/2020 00:12:28	120220	12022020	001228	115.07	13.911000	-56.958437	115.19	0.690	0.100	1.520	115.07	-1.20	1.90	 	 	 	 	 	 	 	 	 	 	 	 	 	 	 	 	 	 	1581466348	5.28	9.78
12/02/2020 00:12:29	120220	12022020	001229	115.07	13.910990	-56.958412	115.20	0.010	0.270	1.250	115.08	-1.10	1.80	 	 	 	 	 	 	 	 	 	 	 	 	 	 	 	 	 	 	1581466349	5.47	10.13
12/02/2020 00:12:30	120220	12022020	001230	115.24	13.910975	-56.958390	115.47	-0.710	0.430	1.550	115.32	-0.80	2.20	 	 	 	 	 	 	 	 	 	 	 	 	 	 	 	 	 	 	1581466350	5.51	10.20
12/02/2020 00:12:31	120220	12022020	001231	115.70	13.910958	-56.958372	115.97	-1.260	0.750	2.180	115.80	-0.60	2.90	 	 	 	 	 	 	 	 	 	 	 	 	 	 	 	 	 	 	1581466351	5.32	9.85
12/02/2020 00:12:32	120220	12022020	001232	116.08	13.910940	-56.958357	116.27	-1.370	0.710	2.710	116.10	-0.90	3.40	 	 	 	 	 	 	 	 	 	 	 	 	 	 	 	 	 	 	1581466352	5.26	9.74
12/02/2020 00:12:33	120220	12022020	001233	115.91	13.910920	-56.958335	115.97	-0.710	-0.360	3.170	115.81	-2.20	3.80	 	 	 	 	 	 	 	 	 	 	 	 	 	 	 	 	 	 	1581466353	5.97	11.06
12/02/2020 00:12:34	120220	12022020	001234	115.27	13.910902	-56.958308	115.31	0.440	-1.840	3.530	115.14	-3.50	4.10	 	 	 	 	 	 	 	 	 	 	 	 	 	 	 	 	 	 	1581466354	6.98	12.93
12/02/2020 00:12:35	120220	12022020	001235	114.73	13.910885	-56.958282	114.84	1.360	-2.350	3.650	114.66	-3.50	4.10	 	 	 	 	 	 	 	 	 	 	 	 	 	 	 	 	 	 	1581466355	6.76	12.52
12/02/2020 00:12:36	120220	12022020	001236	114.62	13.910875	-56.958257	114.83	1.530	-1.370	3.180	114.62	-3.20	3.90	 	 	 	 	 	 	 	 	 	 	 	 	 	 	 	 	 	 	1581466356	5.50	10.19
12/02/2020 00:12:37	120220	12022020	001237	114.91	13.910870	-56.958237	115.14	0.950	0.520	2.080	114.99	-0.20	2.20	 	 	 	 	 	 	 	 	 	 	 	 	 	 	 	 	 	 	1581466357	4.34	8.04
12/02/2020 00:12:38	120220	12022020	001238	115.42	13.910867	-56.958218	115.68	-0.120	2.210	1.000	115.53	1.10	1.30	 	 	 	 	 	 	 	 	 	 	 	 	 	 	 	 	 	 	1581466358	3.89	7.20
12/02/2020 00:12:39	120220	12022020	001239	115.97	13.910860	-56.958200	116.20	-1.210	2.550	0.780	116.04	0.90	1.40	 	 	 	 	 	 	 	 	 	 	 	 	 	 	 	 	 	 	1581466359	4.17	7.72
12/02/2020 00:12:40	120220	12022020	001240	116.23	13.910842	-56.958180	116.38	-1.700	1.090	1.400	116.23	-1.00	2.20	 	 	 	 	 	 	 	 	 	 	 	 	 	 	 	 	 	 	1581466360	5.73	10.61
12/02/2020 00:12:41	120220	12022020	001241	116.06	13.910818	-56.958155	116.16	-1.240	-1.300	2.210	115.99	-3.40	3.00	 	 	 	 	 	 	 	 	 	 	 	 	 	 	 	 	 	 	1581466361	7.32	13.56
12/02/2020 00:12:42	120220	12022020	001242	115.60	13.910795	-56.958128	115.65	-0.150	-3.030	3.080	115.47	-4.60	3.90	 	 	 	 	 	 	 	 	 	 	 	 	 	 	 	 	 	 	1581466362	7.52	13.93
12/02/2020 00:12:43	120220	12022020	001243	114.92	13.910773	-56.958107	114.97	0.900	-2.980	3.810	114.79	-3.90	4.40	 	 	 	 	 	 	 	 	 	 	 	 	 	 	 	 	 	 	1581466363	6.45	11.95
12/02/2020 00:12:44	120220	12022020	001244	114.37	13.910762	-56.958088	114.47	1.360	-1.300	3.660	114.30	-2.00	3.90	 	 	 	 	 	 	 	 	 	 	 	 	 	 	 	 	 	 	1581466364	4.68	8.67
12/02/2020 00:12:45	120220	12022020	001245	114.13	13.910757	-56.958072	114.28	1.110	0.760	2.610	114.12	-0.10	2.70	 	 	 	 	 	 	 	 	 	 	 	 	 	 	 	 	 	 	1581466365	3.85	7.13
12/02/2020 00:12:46	120220	12022020	001246	114.16	13.910755	-56.958050	114.36	0.410	1.850	1.370	114.19	0.50	1.60	 	 	 	 	 	 	 	 	 	 	 	 	 	 	 	 	 	 	1581466366	4.47	8.28
12/02/2020 00:12:47	120220	12022020	001247	114.34	13.910750	-56.958025	114.53	-0.290	1.600	0.550	114.37	-0.00	0.90	 	 	 	 	 	 	 	 	 	 	 	 	 	 	 	 	 	 	1581466367	5.44	10.07
12/02/2020 00:12:48	120220	12022020	001248	114.45	13.910738	-56.957998	114.63	-0.720	0.710	0.390	114.46	-1.00	1.00	 	 	 	 	 	 	 	 	 	 	 	 	 	 	 	 	 	 	1581466368	6.06	11.22
12/02/2020 00:12:49	120220	12022020	001249	114.52	13.910722	-56.957975	114.71	-0.850	-0.070	0.850	114.53	-1.60	1.60	 	 	 	 	 	 	 	 	 	 	 	 	 	 	 	 	 	 	1581466369	5.96	11.04
12/02/2020 00:12:50	120220	12022020	001250	114.56	13.910703	-56.957955	114.74	-0.750	-0.650	1.810	114.54	-2.20	2.70	 	 	 	 	 	 	 	 	 	 	 	 	 	 	 	 	 	 	1581466370	5.75	10.65
12/02/2020 00:12:51	120220	12022020	001251	114.38	13.910683	-56.957937	114.52	-0.390	-1.270	3.020	114.31	-2.80	3.90	 	 	 	 	 	 	 	 	 	 	 	 	 	 	 	 	 	 	1581466371	5.96	11.04
12/02/2020 00:12:52	120220	12022020	001252	113.89	13.910662	-56.957917	114.00	0.100	-1.690	4.160	113.79	-3.00	4.90	 	 	 	 	 	 	 	 	 	 	 	 	 	 	 	 	 	 	1581466372	6.21	11.50
12/02/2020 00:12:53	120220	12022020	001253	113.41	13.910643	-56.957895	113.57	0.490	-1.420	4.780	113.35	-2.60	5.30	 	 	 	 	 	 	 	 	 	 	 	 	 	 	 	 	 	 	1581466373	5.89	10.91
12/02/2020 00:12:54	120220	12022020	001254	113.23	13.910630	-56.957875	113.43	0.680	-0.560	4.600	113.22	-1.60	4.90	 	 	 	 	 	 	 	 	 	 	 	 	 	 	 	 	 	 	1581466374	5.22	9.67
12/02/2020 00:12:55	120220	12022020	001255	113.26	13.910622	-56.957853	113.47	0.730	0.310	3.630	113.28	-0.80	3.70	 	 	 	 	 	 	 	 	 	 	 	 	 	 	 	 	 	 	1581466375	4.95	9.17
12/02/2020 00:12:56	120220	12022020	001256	113.42	13.910617	-56.957828	113.65	0.580	0.920	2.280	113.48	-0.30	2.40	 	 	 	 	 	 	 	 	 	 	 	 	 	 	 	 	 	 	1581466376	5.27	9.76
12/02/2020 00:12:57	120220	12022020	001257	113.81	13.910615	-56.957803	114.08	0.020	1.330	1.140	113.92	0.00	1.40	 	 	 	 	 	 	 	 	 	 	 	 	 	 	 	 	 	 	1581466377	5.21	9.65
12/02/2020 00:12:58	120220	12022020	001258	114.42	13.910610	-56.957782	114.70	-0.720	1.200	0.620	114.54	-0.40	1.10	 	 	 	 	 	 	 	 	 	 	 	 	 	 	 	 	 	 	1581466378	4.86	9.00
12/02/2020 00:12:59	120220	12022020	001259	114.82	13.910595	-56.957758	114.99	-0.940	-0.000	0.890	114.83	-1.90	1.60	 	 	 	 	 	 	 	 	 	 	 	 	 	 	 	 	 	 	1581466379	5.59	10.35
12/02/2020 00:13:00	120220	12022020	001300	114.65	13.910573	-56.957733	114.76	-0.370	-1.700	1.730	114.59	-3.40	2.50	 	 	 	 	 	 	 	 	 	 	 	 	 	 	 	 	 	 	1581466380	6.99	12.95
12/02/2020 00:13:01	120220	12022020	001301	114.45	13.910552	-56.957710	114.63	0.420	-2.260	2.510	114.44	-3.40	3.20	 	 	 	 	 	 	 	 	 	 	 	 	 	 	 	 	 	 	1581466381	6.79	12.58
12/02/2020 00:13:02	120220	12022020	001302	114.56	13.910537	-56.957693	114.81	0.790	-1.260	2.760	114.61	-2.20	3.20	1016.90	26.20	26.20	20.60	20.70	-1.0	71.0	71.0	392.0	25.8	324.00	15.20	72.00	13.00	16	10382.0	27.2	27.2	1581466382	5.07	9.39
12/02/2020 00:13:03	120220	12022020	001303	114.70	13.910527	-56.957677	114.86	0.650	0.140	2.570	114.69	-0.90	3.00	 	 	 	 	 	 	 	 	 	 	 	 	 	 	 	 	 	 	1581466383	3.89	7.20
12/02/2020 00:13:04	120220	12022020	001304	114.58	13.910520	-56.957657	114.73	0.280	0.840	2.170	114.57	-0.50	2.50	 	 	 	 	 	 	 	 	 	 	 	 	 	 	 	 	 	 	1581466384	4.43	8.20
12/02/2020 00:13:05	120220	12022020	001305	114.62	13.910512	-56.957633	114.85	-0.160	0.810	1.710	114.67	-0.70	2.10	 	 	 	 	 	 	 	 	 	 	 	 	 	 	 	 	 	 	1581466385	5.25	9.72
12/02/2020 00:13:06	120220	12022020	001306	114.97	13.910500	-56.957610	115.26	-0.510	0.290	1.440	115.06	-1.30	2.00	 	 	 	 	 	 	 	 	 	 	 	 	 	 	 	 	 	 	1581466386	5.65	10.46
12/02/2020 00:13:07	120220	12022020	001307	115.32	13.910483	-56.957587	115.54	-0.590	-0.380	1.690	115.36	-1.90	2.40	 	 	 	 	 	 	 	 	 	 	 	 	 	 	 	 	 	 	1581466387	5.97	11.06
12/02/2020 00:13:08	120220	12022020	001308	115.30	13.910465	-56.957565	115.43	-0.360	-0.750	2.230	115.25	-2.10	2.90	 	 	 	 	 	 	 	 	 	 	 	 	 	 	 	 	 	 	1581466388	5.95	11.02
12/02/2020 00:13:09	120220	12022020	001309	114.98	13.910448	-56.957545	115.09	-0.130	-0.550	2.700	114.91	-1.80	3.30	 	 	 	 	 	 	 	 	 	 	 	 	 	 	 	 	 	 	1581466389	5.47	10.13
12/02/2020 00:13:10	120220	12022020	001310	114.79	13.910435	-56.957527	114.98	-0.130	-0.000	2.800	114.80	-1.20	3.20	 	 	 	 	 	 	 	 	 	 	 	 	 	 	 	 	 	 	1581466390	4.88	9.04
12/02/2020 00:13:11	120220	12022020	001311	114.98	13.910423	-56.957508	115.23	-0.140	0.260	2.500	115.04	-1.10	2.90	 	 	 	 	 	 	 	 	 	 	 	 	 	 	 	 	 	 	1581466391	4.79	8.87
12/02/2020 00:13:12	120220	12022020	001312	115.27	13.910412	-56.957485	115.48	0.170	-0.070	2.060	115.31	-1.60	2.50	 	 	 	 	 	 	 	 	 	 	 	 	 	 	 	 	 	 	1581466392	5.38	9.96
12/02/2020 00:13:13	120220	12022020	001313	115.34	13.910400	-56.957460	115.48	0.640	-0.580	1.800	115.32	-2.00	2.30	 	 	 	 	 	 	 	 	 	 	 	 	 	 	 	 	 	 	1581466393	5.89	10.91
12/02/2020 00:13:14	120220	12022020	001314	115.20	13.910388	-56.957437	115.29	0.800	-0.730	1.810	115.15	-2.00	2.40	 	 	 	 	 	 	 	 	 	 	 	 	 	 	 	 	 	 	1581466394	5.68	10.52
12/02/2020 00:13:15	120220	12022020	001315	114.87	13.910375	-56.957415	114.93	0.550	-0.410	2.080	114.77	-1.60	2.70	 	 	 	 	 	 	 	 	 	 	 	 	 	 	 	 	 	 	1581466395	5.20	9.63
12/02/2020 00:13:16	120220	12022020	001316	114.42	13.910363	-56.957395	114.53	0.120	0.090	2.430	114.36	-1.10	3.00	 	 	 	 	 	 	 	 	 	 	 	 	 	 	 	 	 	 	1581466396	4.99	9.24
12/02/2020 00:13:17	120220	12022020	001317	114.30	13.910350	-56.957375	114.54	-0.320	0.470	2.560	114.34	-0.80	3.00	 	 	 	 	 	 	 	 	 	 	 	 	 	 	 	 	 	 	1581466397	5.03	9.32
12/02/2020 00:13:18	120220	12022020	001318	114.65	13.910337	-56.957353	114.93	-0.710	0.480	2.480	114.74	-1.00	3.00	 	 	 	 	 	 	 	 	 	 	 	 	 	 	 	 	 	 	1581466398	5.14	9.52
12/02/2020 00:13:19	120220	12022020	001319	114.94	13.910322	-56.957333	115.13	-0.880	-0.030	2.570	114.94	-1.60	3.20	 	 	 	 	 	 	 	 	 	 	 	 	 	 	 	 	 	 	1581466399	5.52	10.22
12/02/2020 00:13:20	120220	12022020	001320	114.77	13.910303	-56.957310	114.89	-0.540	-0.800	3.010	114.70	-2.30	3.70	 	 	 	 	 	 	 	 	 	 	 	 	 	 	 	 	 	 	1581466400	6.13	11.35
12/02/2020 00:13:21	120220	12022020	001321	114.45	13.910287	-56.957287	114.59	0.170	-1.180	3.370	114.40	-2.50	3.90	 	 	 	 	 	 	 	 	 	 	 	 	 	 	 	 	 	 	1581466401	6.19	11.46
12/02/2020 00:13:22	120220	12022020	001322	114.31	13.910272	-56.957265	114.50	0.750	-0.950	3.260	114.31	-2.10	3.60	 	 	 	 	 	 	 	 	 	 	 	 	 	 	 	 	 	 	1581466402	5.66	10.48
12/02/2020 00:13:23	120220	12022020	001323	114.31	13.910262	-56.957243	114.48	0.740	-0.230	2.740	114.32	-1.30	3.00	 	 	 	 	 	 	 	 	 	 	 	 	 	 	 	 	 	 	1581466403	5.08	9.41
12/02/2020 00:13:24	120220	12022020	001324	114.36	13.910255	-56.957222	114.54	0.150	0.760	2.030	114.38	-0.30	2.30	 	 	 	 	 	 	 	 	 	 	 	 	 	 	 	 	 	 	1581466404	4.53	8.39
12/02/2020 00:13:25	120220	12022020	001325	114.46	13.910248	-56.957203	114.64	-0.490	1.370	1.370	114.49	-0.00	1.70	 	 	 	 	 	 	 	 	 	 	 	 	 	 	 	 	 	 	1581466405	4.30	7.96
12/02/2020 00:13:26	120220	12022020	001326	114.60	13.910240	-56.957180	114.78	-0.600	0.730	0.970	114.63	-1.10	1.40	 	 	 	 	 	 	 	 	 	 	 	 	 	 	 	 	 	 	1581466406	5.13	9.50
12/02/2020 00:13:27	120220	12022020	001327	114.73	13.910227	-56.957153	114.91	-0.240	-0.790	0.980	114.75	-2.60	1.60	 	 	 	 	 	 	 	 	 	 	 	 	 	 	 	 	 	 	1581466407	6.43	11.91
12/02/2020 00:13:28	120220	12022020	001328	114.74	13.910208	-56.957127	114.88	0.120	-1.880	1.550	114.71	-3.30	2.30	 	 	 	 	 	 	 	 	 	 	 	 	 	 	 	 	 	 	1581466408	6.75	12.50
12/02/2020 00:13:29	120220	12022020	001329	114.47	13.910188	-56.957107	114.55	0.240	-1.680	2.320	114.39	-2.70	3.00	 	 	 	 	 	 	 	 	 	 	 	 	 	 	 	 	 	 	1581466409	5.95	11.02
12/02/2020 00:13:30	120220	12022020	001330	114.02	13.910175	-56.957090	114.10	0.260	-0.370	2.710	113.94	-1.30	3.20	 	 	 	 	 	 	 	 	 	 	 	 	 	 	 	 	 	 	1581466410	4.61	8.54
12/02/2020 00:13:31	120220	12022020	001331	113.79	13.910167	-56.957072	113.98	0.240	0.930	2.490	113.80	-0.20	2.90	 	 	 	 	 	 	 	 	 	 	 	 	 	 	 	 	 	 	1581466411	4.05	7.50
12/02/2020 00:13:32	120220	12022020	001332	113.98	13.910160	-56.957052	114.24	0.030	1.290	2.110	114.05	-0.20	2.50	 	 	 	 	 	 	 	 	 	 	 	 	 	 	 	 	 	 	1581466412	4.63	8.57
12/02/2020 00:13:33	120220	12022020	001333	114.43	13.910148	-56.957028	114.73	-0.400	0.730	1.910	114.53	-0.90	2.40	 	 	 	 	 	 	 	 	 	 	 	 	 	 	 	 	 	 	1581466413	5.44	10.07
12/02/2020 00:13:34	120220	12022020	001334	114.82	13.910133	-56.957005	115.04	-0.770	-0.150	2.120	114.85	-1.80	2.80	 	 	 	 	 	 	 	 	 	 	 	 	 	 	 	 	 	 	1581466414	5.78	10.70
12/02/2020 00:13:35	120220	12022020	001335	114.74	13.910115	-56.956983	114.86	-0.670	-1.060	2.770	114.67	-2.60	3.50	 	 	 	 	 	 	 	 	 	 	 	 	 	 	 	 	 	 	1581466415	6.05	11.20
12/02/2020 00:13:36	120220	12022020	001336	114.34	13.910097	-56.956962	114.44	-0.080	-1.550	3.330	114.25	-2.90	3.90	 	 	 	 	 	 	 	 	 	 	 	 	 	 	 	 	 	 	1581466416	6.13	11.35
12/02/2020 00:13:37	120220	12022020	001337	113.96	13.910082	-56.956940	114.09	0.520	-1.270	3.490	113.91	-2.40	3.90	 	 	 	 	 	 	 	 	 	 	 	 	 	 	 	 	 	 	1581466417	5.52	10.22
12/02/2020 00:13:38	120220	12022020	001338	113.78	13.910070	-56.956920	113.93	0.800	-0.570	3.120	113.78	-2.20	3.80	 	 	 	 	 	 	 	 	 	 	 	 	 	 	 	 	 	 	1581466418	4.97	9.20
12/02/2020 00:13:39	120220	12022020	001339	113.73	13.910063	-56.956897	113.90	0.740	0.150	2.340	113.74	-1.00	2.50	 	 	 	 	 	 	 	 	 	 	 	 	 	 	 	 	 	 	1581466419	4.99	9.24
12/02/2020 00:13:40	120220	12022020	001340	113.93	13.910058	-56.956873	114.16	0.350	0.840	1.350	114.00	-0.30	1.60	 	 	 	 	 	 	 	 	 	 	 	 	 	 	 	 	 	 	1581466420	5.04	9.33
12/02/2020 00:13:41	120220	12022020	001341	114.36	13.910053	-56.956850	114.61	-0.250	1.210	0.700	114.45	-0.20	1.10	 	 	 	 	 	 	 	 	 	 	 	 	 	 	 	 	 	 	1581466421	4.86	9.00
12/02/2020 00:13:42	120220	12022020	001342	114.80	13.910043	-56.956828	115.03	-0.740	0.900	0.700	114.86	-0.70	1.30	 	 	 	 	 	 	 	 	 	 	 	 	 	 	 	 	 	 	1581466422	5.05	9.35
12/02/2020 00:13:43	120220	12022020	001343	115.07	13.910028	-56.956807	115.26	-0.870	-0.030	1.260	115.09	-1.70	2.00	 	 	 	 	 	 	 	 	 	 	 	 	 	 	 	 	 	 	1581466423	5.73	10.61
12/02/2020 00:13:44	120220	12022020	001344	114.96	13.910007	-56.956785	115.08	-0.600	-1.160	2.220	114.89	-2.80	3.00	 	 	 	 	 	 	 	 	 	 	 	 	 	 	 	 	 	 	1581466424	6.41	11.87
12/02/2020 00:13:45	120220	12022020	001345	114.49	13.909985	-56.956763	114.58	-0.040	-1.860	3.070	114.38	-3.20	3.70	 	 	 	 	 	 	 	 	 	 	 	 	 	 	 	 	 	 	1581466425	6.52	12.08
12/02/2020 00:13:46	120220	12022020	001346	114.01	13.909968	-56.956742	114.12	0.570	-1.520	3.310	113.93	-2.50	3.70	 	 	 	 	 	 	 	 	 	 	 	 	 	 	 	 	 	 	1581466426	5.69	10.54
12/02/2020 00:13:47	120220	12022020	001347	113.80	13.909960	-56.956722	113.98	0.850	-0.390	2.920	113.80	-1.40	3.20	 	 	 	 	 	 	 	 	 	 	 	 	 	 	 	 	 	 	1581466427	4.66	8.63
12/02/2020 00:13:48	120220	12022020	001348	113.87	13.909953	-56.956702	114.06	0.700	0.490	2.190	113.90	-0.80	2.50	 	 	 	 	 	 	 	 	 	 	 	 	 	 	 	 	 	 	1581466428	4.59	8.50
12/02/2020 00:13:49	120220	12022020	001349	113.95	13.909948	-56.956677	114.13	0.310	0.470	1.500	113.97	-1.00	1.90	 	 	 	 	 	 	 	 	 	 	 	 	 	 	 	 	 	 	1581466429	5.48	10.15
12/02/2020 00:13:50	120220	12022020	001350	114.27	13.909938	-56.956650	114.55	-0.220	0.240	1.160	114.27	-1.00	1.70	 	 	 	 	 	 	 	 	 	 	 	 	 	 	 	 	 	 	1581466430	5.92	10.96
12/02/2020 00:13:51	120220	12022020	001351	114.82	13.909923	-56.956628	115.10	-0.730	0.360	1.390	114.92	-0.90	2.10	 	 	 	 	 	 	 	 	 	 	 	 	 	 	 	 	 	 	1581466431	5.42	10.04
12/02/2020 00:13:52	120220	12022020	001352	115.07	13.909907	-56.956610	115.21	-0.910	0.510	2.020	115.04	-0.90	2.80	 	 	 	 	 	 	 	 	 	 	 	 	 	 	 	 	 	 	1581466432	5.12	9.48
12/02/2020 00:13:53	120220	12022020	001353	114.77	13.909890	-56.956592	114.89	-0.600	0.170	2.670	114.71	-1.40	3.30	 	 	 	 	 	 	 	 	 	 	 	 	 	 	 	 	 	 	1581466433	5.48	10.15
12/02/2020 00:13:54	120220	12022020	001354	114.57	13.909875	-56.956570	114.76	-0.110	-0.440	2.890	114.58	-2.00	3.40	 	 	 	 	 	 	 	 	 	 	 	 	 	 	 	 	 	 	1581466434	5.72	10.59
12/02/2020 00:13:55	120220	12022020	001355	114.69	13.909862	-56.956545	114.91	0.300	-1.090	2.830	114.72	-2.60	3.30	 	 	 	 	 	 	 	 	 	 	 	 	 	 	 	 	 	 	1581466435	5.83	10.80
12/02/2020 00:13:56	120220	12022020	001356	114.73	13.909847	-56.956520	114.87	0.620	-1.550	2.860	114.69	-2.90	3.40	 	 	 	 	 	 	 	 	 	 	 	 	 	 	 	 	 	 	1581466436	5.98	11.07
12/02/2020 00:13:57	120220	12022020	001357	114.52	13.909833	-56.956497	114.66	0.810	-1.420	2.860	114.49	-2.50	3.30	 	 	 	 	 	 	 	 	 	 	 	 	 	 	 	 	 	 	1581466437	5.94	11.00
12/02/2020 00:13:58	120220	12022020	001358	114.46	13.909823	-56.956473	114.65	0.710	-0.440	2.510	114.48	-1.40	2.90	 	 	 	 	 	 	 	 	 	 	 	 	 	 	 	 	 	 	1581466438	5.24	9.70
12/02/2020 00:13:59	120220	12022020	001359	114.63	13.909815	-56.956453	114.82	0.340	0.800	2.030	114.67	-0.20	2.50	 	 	 	 	 	 	 	 	 	 	 	 	 	 	 	 	 	 	1581466439	4.57	8.46
12/02/2020 00:14:00	120220	12022020	001400	114.81	13.909805	-56.956433	115.01	-0.180	1.580	1.720	114.85	0.30	2.20	 	 	 	 	 	 	 	 	 	 	 	 	 	 	 	 	 	 	1581466440	4.60	8.52
12/02/2020 00:14:01	120220	12022020	001401	115.03	13.909795	-56.956412	115.25	-0.680	1.520	1.470	115.09	-0.00	1.90	 	 	 	 	 	 	 	 	 	 	 	 	 	 	 	 	 	 	1581466441	5.02	9.30
12/02/2020 00:14:02	120220	12022020	001402	115.31	13.909783	-56.956388	115.54	-0.940	0.650	1.360	115.36	-1.10	1.90	1017.00	26.20	26.30	20.80	20.80	-1.0	71.0	72.0	391.0	25.8	321.00	14.30	68.00	12.30	16	9445.0	27.2	27.2	1581466442	5.60	10.37
12/02/2020 00:14:03	120220	12022020	001403	115.52	13.909767	-56.956365	115.73	-0.800	-0.610	1.580	115.55	-2.30	2.30	 	 	 	 	 	 	 	 	 	 	 	 	 	 	 	 	 	 	1581466443	6.11	11.32
12/02/2020 00:14:04	120220	12022020	001404	115.55	13.909748	-56.956342	115.70	-0.210	-1.710	2.070	115.52	-3.30	2.80	 	 	 	 	 	 	 	 	 	 	 	 	 	 	 	 	 	 	1581466444	6.30	11.67
12/02/2020 00:14:05	120220	12022020	001405	115.15	13.909730	-56.956318	115.19	0.640	-2.410	2.810	115.01	-3.80	3.60	 	 	 	 	 	 	 	 	 	 	 	 	 	 	 	 	 	 	1581466445	6.37	11.80
12/02/2020 00:14:06	120220	12022020	001406	114.36	13.909713	-56.956293	114.41	1.200	-2.170	3.480	114.22	-3.20	4.00	 	 	 	 	 	 	 	 	 	 	 	 	 	 	 	 	 	 	1581466446	6.20	11.48
12/02/2020 00:14:07	120220	12022020	001407	113.93	13.909702	-56.956272	114.14	1.000	-0.730	3.320	113.95	-1.40	3.60	 	 	 	 	 	 	 	 	 	 	 	 	 	 	 	 	 	 	1581466447	5.25	9.72
12/02/2020 00:14:08	120220	12022020	001408	114.33	13.909695	-56.956253	114.68	0.200	1.310	2.530	114.48	0.50	2.80	 	 	 	 	 	 	 	 	 	 	 	 	 	 	 	 	 	 	1581466448	4.12	7.63
12/02/2020 00:14:09	120220	12022020	001409	115.12	13.909688	-56.956237	115.45	-0.680	2.660	1.790	115.26	1.40	2.20	 	 	 	 	 	 	 	 	 	 	 	 	 	 	 	 	 	 	1581466449	3.87	7.17
12/02/2020 00:14:10	120220	12022020	001410	115.63	13.909678	-56.956215	115.84	-1.160	2.330	1.420	115.67	0.50	1.90	 	 	 	 	 	 	 	 	 	 	 	 	 	 	 	 	 	 	1581466450	4.87	9.02
12/02/2020 00:14:11	120220	12022020	001411	115.68	13.909665	-56.956190	115.82	-1.040	0.580	1.380	115.64	-1.50	2.00	 	 	 	 	 	 	 	 	 	 	 	 	 	 	 	 	 	 	1581466451	6.24	11.56
12/02/2020 00:14:12	120220	12022020	001412	115.40	13.909647	-56.956160	115.49	-0.370	-1.650	1.820	115.32	-3.60	2.60	 	 	 	 	 	 	 	 	 	 	 	 	 	 	 	 	 	 	1581466452	7.09	13.13
12/02/2020 00:14:13	120220	12022020	001413	114.97	13.909627	-56.956133	115.07	0.510	-3.120	2.520	114.89	-4.60	3.20	 	 	 	 	 	 	 	 	 	 	 	 	 	 	 	 	 	 	1581466453	7.23	13.39
12/02/2020 00:14:14	120220	12022020	001414	114.69	13.909610	-56.956110	114.87	1.010	-2.780	2.880	114.68	-3.60	3.40	 	 	 	 	 	 	 	 	 	 	 	 	 	 	 	 	 	 	1581466454	6.17	11.43
12/02/2020 00:14:15	120220	12022020	001415	114.76	13.909598	-56.956092	115.00	0.860	-0.790	2.650	114.81	-1.40	3.00	 	 	 	 	 	 	 	 	 	 	 	 	 	 	 	 	 	 	1581466455	4.40	8.15
12/02/2020 00:14:16	120220	12022020	001416	115.02	13.909592	-56.956077	115.23	0.270	1.450	2.090	115.06	0.60	2.40	 	 	 	 	 	 	 	 	 	 	 	 	 	 	 	 	 	 	1581466456	3.42	6.33
12/02/2020 00:14:17	120220	12022020	001417	115.19	13.909585	-56.956058	115.39	-0.300	2.400	1.470	115.23	1.00	1.80	 	 	 	 	 	 	 	 	 	 	 	 	 	 	 	 	 	 	1581466457	4.08	7.56
12/02/2020 00:14:18	120220	12022020	001418	115.41	13.909577	-56.956035	115.61	-0.590	1.660	0.990	115.45	-0.20	1.50	 	 	 	 	 	 	 	 	 	 	 	 	 	 	 	 	 	 	1581466458	5.54	10.26
12/02/2020 00:14:19	120220	12022020	001419	115.57	13.909562	-56.956007	115.74	-0.540	-0.040	0.990	115.57	-2.00	1.60	 	 	 	 	 	 	 	 	 	 	 	 	 	 	 	 	 	 	1581466459	6.62	12.26
12/02/2020 00:14:20	120220	12022020	001420	115.47	13.909543	-56.955980	115.59	-0.200	-1.500	1.450	115.42	-3.10	2.20	 	 	 	 	 	 	 	 	 	 	 	 	 	 	 	 	 	 	1581466460	6.83	12.65
12/02/2020 00:14:21	120220	12022020	001421	115.20	13.909527	-56.955957	115.33	0.220	-1.880	2.110	115.15	-3.10	2.80	 	 	 	 	 	 	 	 	 	 	 	 	 	 	 	 	 	 	1581466461	6.18	11.45
12/02/2020 00:14:22	120220	12022020	001422	115.02	13.909512	-56.955937	115.20	0.380	-1.180	2.550	115.00	-2.20	3.10	 	 	 	 	 	 	 	 	 	 	 	 	 	 	 	 	 	 	1581466462	5.14	9.52
12/02/2020 00:14:23	120220	12022020	001423	115.00	13.909498	-56.955920	115.18	0.140	-0.050	2.620	115.01	-1.10	3.10	 	 	 	 	 	 	 	 	 	 	 	 	 	 	 	 	 	 	1581466463	4.41	8.17
12/02/2020 00:14:24	120220	12022020	001424	115.03	13.909488	-56.955902	115.20	-0.240	0.600	2.520	115.03	-0.80	3.00	 	 	 	 	 	 	 	 	 	 	 	 	 	 	 	 	 	 	1581466464	4.57	8.46
12/02/2020 00:14:25	120220	12022020	001425	114.95	13.909475	-56.955880	115.09	-0.330	0.330	2.450	114.92	-1.30	2.90	 	 	 	 	 	 	 	 	 	 	 	 	 	 	 	 	 	 	1581466465	5.48	10.15
12/02/2020 00:14:26	120220	12022020	001426	114.79	13.909460	-56.955853	114.94	0.000	-0.390	2.390	114.77	-1.90	2.90	 	 	 	 	 	 	 	 	 	 	 	 	 	 	 	 	 	 	1581466466	6.34	11.74
12/02/2020 00:14:27	120220	12022020	001427	114.85	13.909447	-56.955827	115.08	0.370	-0.620	2.250	114.91	-1.90	2.70	 	 	 	 	 	 	 	 	 	 	 	 	 	 	 	 	 	 	1581466467	6.19	11.46
12/02/2020 00:14:28	120220	12022020	001428	115.24	13.909435	-56.955805	115.49	0.400	-0.260	1.980	115.24	-1.80	2.60	 	 	 	 	 	 	 	 	 	 	 	 	 	 	 	 	 	 	1581466468	5.39	9.98
12/02/2020 00:14:29	120220	12022020	001429	115.51	13.909423	-56.955783	115.66	0.140	0.130	1.910	115.49	-1.20	2.50	 	 	 	 	 	 	 	 	 	 	 	 	 	 	 	 	 	 	1581466469	5.01	9.28
12/02/2020 00:14:30	120220	12022020	001430	115.25	13.909410	-56.955763	115.31	-0.060	0.270	2.260	115.15	-1.10	2.90	 	 	 	 	 	 	 	 	 	 	 	 	 	 	 	 	 	 	1581466470	5.24	9.70
12/02/2020 00:14:31	120220	12022020	001431	114.84	13.909397	-56.955742	114.97	-0.160	0.310	2.480	114.80	-1.10	3.00	 	 	 	 	 	 	 	 	 	 	 	 	 	 	 	 	 	 	1581466471	5.31	9.83
12/02/2020 00:14:32	120220	12022020	001432	114.81	13.909385	-56.955718	115.03	-0.170	0.060	2.300	114.85	-1.40	2.70	 	 	 	 	 	 	 	 	 	 	 	 	 	 	 	 	 	 	1581466472	5.43	10.06
12/02/2020 00:14:33	120220	12022020	001433	115.09	13.909373	-56.955695	115.34	-0.090	-0.330	2.110	115.17	-1.80	2.60	 	 	 	 	 	 	 	 	 	 	 	 	 	 	 	 	 	 	1581466473	5.69	10.54
12/02/2020 00:14:34	120220	12022020	001434	115.42	13.909358	-56.955672	115.63	0.020	-0.570	2.130	115.47	-2.00	2.70	 	 	 	 	 	 	 	 	 	 	 	 	 	 	 	 	 	 	1581466474	5.64	10.45
12/02/2020 00:14:35	120220	12022020	001435	115.52	13.909343	-56.955650	115.66	0.150	-0.680	2.330	115.50	-2.10	3.00	 	 	 	 	 	 	 	 	 	 	 	 	 	 	 	 	 	 	1581466475	5.55	10.28
12/02/2020 00:14:36	120220	12022020	001436	115.27	13.909328	-56.955628	115.35	0.270	-0.680	2.770	115.19	-2.00	3.40	 	 	 	 	 	 	 	 	 	 	 	 	 	 	 	 	 	 	1581466476	5.64	10.45
12/02/2020 00:14:37	120220	12022020	001437	114.77	13.909313	-56.955608	114.83	0.300	-0.490	3.080	114.67	-1.80	3.60	 	 	 	 	 	 	 	 	 	 	 	 	 	 	 	 	 	 	1581466477	5.60	10.37
12/02/2020 00:14:38	120220	12022020	001438	114.40	13.909300	-56.955585	114.55	0.150	-0.210	2.900	114.38	-1.50	3.30	 	 	 	 	 	 	 	 	 	 	 	 	 	 	 	 	 	 	1581466478	5.44	10.07
12/02/2020 00:14:39	120220	12022020	001439	114.54	13.909290	-56.955562	114.80	-0.150	0.050	2.310	114.63	-1.20	2.60	 	 	 	 	 	 	 	 	 	 	 	 	 	 	 	 	 	 	1581466479	5.40	10.00
12/02/2020 00:14:40	120220	12022020	001440	114.99	13.909280	-56.955538	115.22	-0.420	0.290	1.830	115.06	-1.00	2.30	 	 	 	 	 	 	 	 	 	 	 	 	 	 	 	 	 	 	1581466480	5.26	9.74
12/02/2020 00:14:41	120220	12022020	001441	115.15	13.909268	-56.955517	115.28	-0.350	0.230	1.800	115.13	-1.30	2.40	 	 	 	 	 	 	 	 	 	 	 	 	 	 	 	 	 	 	1581466481	5.45	10.09
12/02/2020 00:14:42	120220	12022020	001442	115.02	13.909253	-56.955492	115.15	0.020	-0.180	1.940	115.00	-1.70	2.50	 	 	 	 	 	 	 	 	 	 	 	 	 	 	 	 	 	 	1581466482	6.00	11.11
12/02/2020 00:14:43	120220	12022020	001443	115.02	13.909238	-56.955467	115.22	0.320	-0.410	2.040	115.06	-1.70	2.60	 	 	 	 	 	 	 	 	 	 	 	 	 	 	 	 	 	 	1581466483	6.00	11.11
12/02/2020 00:14:44	120220	12022020	001444	115.29	13.909227	-56.955445	115.52	0.300	-0.170	2.090	115.35	-1.40	2.60	 	 	 	 	 	 	 	 	 	 	 	 	 	 	 	 	 	 	1581466484	5.38	9.96
12/02/2020 00:14:45	120220	12022020	001445	115.53	13.909213	-56.955425	115.72	0.110	0.040	2.220	115.55	-1.40	2.80	 	 	 	 	 	 	 	 	 	 	 	 	 	 	 	 	 	 	1581466485	5.10	9.45
12/02/2020 00:14:46	120220	12022020	001446	115.55	13.909198	-56.955403	115.72	-0.010	-0.220	2.490	115.53	-1.70	3.10	 	 	 	 	 	 	 	 	 	 	 	 	 	 	 	 	 	 	1581466486	5.63	10.43
12/02/2020 00:14:47	120220	12022020	001447	115.47	13.909182	-56.955380	115.63	-0.030	-0.530	2.840	115.45	-1.90	3.40	 	 	 	 	 	 	 	 	 	 	 	 	 	 	 	 	 	 	1581466487	6.07	11.24
12/02/2020 00:14:48	120220	12022020	001448	115.38	13.909165	-56.955358	115.52	-0.100	-0.450	2.980	115.35	-1.70	3.50	 	 	 	 	 	 	 	 	 	 	 	 	 	 	 	 	 	 	1581466488	5.76	10.67
12/02/2020 00:14:49	120220	12022020	001449	115.22	13.909152	-56.955337	115.35	-0.220	-0.000	2.830	115.19	-1.20	3.20	 	 	 	 	 	 	 	 	 	 	 	 	 	 	 	 	 	 	1581466489	5.20	9.63
12/02/2020 00:14:50	120220	12022020	001450	115.14	13.909140	-56.955317	115.33	-0.240	0.440	2.400	115.16	-0.90	2.70	 	 	 	 	 	 	 	 	 	 	 	 	 	 	 	 	 	 	1581466490	4.88	9.04
12/02/2020 00:14:51	120220	12022020	001451	115.37	13.909132	-56.955293	115.60	-0.040	0.280	1.610	115.45	-1.40	1.90	 	 	 	 	 	 	 	 	 	 	 	 	 	 	 	 	 	 	1581466491	5.19	9.61
12/02/2020 00:14:52	120220	12022020	001452	115.64	13.909123	-56.955265	115.78	0.370	-0.840	1.010	115.64	-1.80	1.60	 	 	 	 	 	 	 	 	 	 	 	 	 	 	 	 	 	 	1581466492	6.28	11.63
12/02/2020 00:14:53	120220	12022020	001453	115.43	13.909107	-56.955235	115.49	0.650	-1.980	1.420	115.35	-3.40	2.30	 	 	 	 	 	 	 	 	 	 	 	 	 	 	 	 	 	 	1581466493	7.17	13.28
12/02/2020 00:14:54	120220	12022020	001454	115.09	13.909088	-56.955212	115.22	0.280	-1.500	2.590	115.05	-2.30	3.50	 	 	 	 	 	 	 	 	 	 	 	 	 	 	 	 	 	 	1581466494	6.56	12.15
12/02/2020 00:14:55	120220	12022020	001455	115.09	13.909068	-56.955198	115.34	-0.700	0.590	3.600	115.14	-0.10	4.30	 	 	 	 	 	 	 	 	 	 	 	 	 	 	 	 	 	 	1581466495	4.91	9.09
12/02/2020 00:14:56	120220	12022020	001456	115.41	13.909053	-56.955190	115.70	-1.500	2.460	3.820	115.48	1.30	4.20	 	 	 	 	 	 	 	 	 	 	 	 	 	 	 	 	 	 	1581466496	3.93	7.28
12/02/2020 00:14:57	120220	12022020	001457	115.80	13.909038	-56.955173	116.09	-1.390	2.400	3.210	115.87	0.50	3.40	 	 	 	 	 	 	 	 	 	 	 	 	 	 	 	 	 	 	1581466497	4.49	8.32
12/02/2020 00:14:58	120220	12022020	001458	116.09	13.909027	-56.955145	116.29	-0.290	0.320	2.350	116.10	-1.90	2.60	 	 	 	 	 	 	 	 	 	 	 	 	 	 	 	 	 	 	1581466498	6.42	11.89
12/02/2020 00:14:59	120220	12022020	001459	116.08	13.909012	-56.955112	116.22	1.130	-2.170	1.720	116.05	-4.00	2.10	 	 	 	 	 	 	 	 	 	 	 	 	 	 	 	 	 	 	1581466499	7.74	14.33
12/02/2020 00:15:00	120220	12022020	001500	115.91	13.909000	-56.955080	116.03	1.870	-3.070	1.460	115.87	-4.20	2.00	 	 	 	 	 	 	 	 	 	 	 	 	 	 	 	 	 	 	1581466500	7.13	13.20
12/02/2020 00:15:01	120220	12022020	001501	115.75	13.908990	-56.955058	115.89	1.430	-1.820	1.630	115.74	-2.50	2.30	 	 	 	 	 	 	 	 	 	 	 	 	 	 	 	 	 	 	1581466501	5.10	9.45
12/02/2020 00:15:02	120220	12022020	001502	115.73	13.908982	-56.955043	115.89	0.300	0.370	1.990	115.74	-0.40	2.60	1017.00	26.10	26.20	20.70	20.90	-1.0	72.0	72.0	390.0	25.8	322.00	15.10	70.00	13.00	16	9420.0	27.2	27.2	1581466502	3.69	6.83
12/02/2020 00:15:03	120220	12022020	001503	115.90	13.908970	-56.955030	116.16	-0.750	1.980	2.200	115.98	0.80	2.70	 	 	 	 	 	 	 	 	 	 	 	 	 	 	 	 	 	 	1581466503	3.82	7.07
12/02/2020 00:15:04	120220	12022020	001504	116.40	13.908955	-56.955012	116.70	-1.320	2.150	2.190	116.51	0.50	2.70	 	 	 	 	 	 	 	 	 	 	 	 	 	 	 	 	 	 	1581466504	4.85	8.98
12/02/2020 00:15:05	120220	12022020	001505	116.82	13.908937	-56.954990	117.04	-1.290	0.860	2.230	116.85	-1.10	2.80	 	 	 	 	 	 	 	 	 	 	 	 	 	 	 	 	 	 	1581466505	6.19	11.46
12/02/2020 00:15:06	120220	12022020	001506	116.66	13.908915	-56.954965	116.71	-0.720	-0.940	2.640	116.54	-2.80	3.30	 	 	 	 	 	 	 	 	 	 	 	 	 	 	 	 	 	 	1581466506	7.09	13.13
12/02/2020 00:15:07	120220	12022020	001507	115.93	13.908895	-56.954940	115.95	0.060	-1.880	3.210	115.77	-3.20	3.80	 	 	 	 	 	 	 	 	 	 	 	 	 	 	 	 	 	 	1581466507	6.77	12.54
12/02/2020 00:15:08	120220	12022020	001508	115.27	13.908880	-56.954917	115.37	0.550	-1.500	3.190	115.20	-2.60	3.50	 	 	 	 	 	 	 	 	 	 	 	 	 	 	 	 	 	 	1581466508	5.49	10.17
12/02/2020 00:15:09	120220	12022020	001509	115.04	13.908872	-56.954897	115.20	0.630	-0.630	2.560	115.04	-1.80	2.90	 	 	 	 	 	 	 	 	 	 	 	 	 	 	 	 	 	 	1581466509	4.70	8.70
12/02/2020 00:15:10	120220	12022020	001510	115.09	13.908863	-56.954875	115.27	0.520	-0.110	2.040	115.12	-1.40	2.40	 	 	 	 	 	 	 	 	 	 	 	 	 	 	 	 	 	 	1581466510	4.98	9.22
12/02/2020 00:15:11	120220	12022020	001511	115.25	13.908852	-56.954852	115.46	0.390	0.070	1.720	115.29	-1.30	2.10	 	 	 	 	 	 	 	 	 	 	 	 	 	 	 	 	 	 	1581466511	5.52	10.22
12/02/2020 00:15:12	120220	12022020	001512	115.44	13.908840	-56.954827	115.61	0.290	0.160	1.410	115.46	-1.20	1.90	 	 	 	 	 	 	 	 	 	 	 	 	 	 	 	 	 	 	1581466512	5.65	10.46
12/02/2020 00:15:13	120220	12022020	001513	115.35	13.908827	-56.954803	115.43	0.230	0.070	1.560	115.27	-1.40	2.30	 	 	 	 	 	 	 	 	 	 	 	 	 	 	 	 	 	 	1581466513	5.78	10.70
12/02/2020 00:15:14	120220	12022020	001514	114.88	13.908810	-56.954780	114.97	0.070	-0.040	2.520	114.79	-1.30	3.40	 	 	 	 	 	 	 	 	 	 	 	 	 	 	 	 	 	 	1581466514	6.13	11.35
12/02/2020 00:15:15	120220	12022020	001515	114.64	13.908790	-56.954762	114.87	-0.410	0.450	3.440	114.66	-0.60	4.10	 	 	 	 	 	 	 	 	 	 	 	 	 	 	 	 	 	 	1581466515	5.79	10.72
12/02/2020 00:15:16	120220	12022020	001516	114.98	13.908775	-56.954747	115.34	-1.100	1.320	3.550	115.10	0.10	3.90	 	 	 	 	 	 	 	 	 	 	 	 	 	 	 	 	 	 	1581466516	4.53	8.39
12/02/2020 00:15:17	120220	12022020	001517	115.68	13.908763	-56.954730	116.04	-1.390	1.410	3.020	115.82	-0.30	3.30	 	 	 	 	 	 	 	 	 	 	 	 	 	 	 	 	 	 	1581466517	4.13	7.65
12/02/2020 00:15:18	120220	12022020	001518	116.18	13.908750	-56.954708	116.39	-0.530	-0.300	2.450	116.21	-2.50	2.90	 	 	 	 	 	 	 	 	 	 	 	 	 	 	 	 	 	 	1581466518	5.53	10.24
12/02/2020 00:15:19	120220	12022020	001519	115.94	13.908732	-56.954677	115.96	1.190	-2.850	2.490	115.80	-4.80	3.10	 	 	 	 	 	 	 	 	 	 	 	 	 	 	 	 	 	 	1581466519	7.53	13.95
12/02/2020 00:15:20	120220	12022020	001520	115.16	13.908717	-56.954647	115.21	2.300	-3.690	2.890	115.04	-4.70	3.50	 	 	 	 	 	 	 	 	 	 	 	 	 	 	 	 	 	 	1581466520	7.44	13.78
12/02/2020 00:15:21	120220	12022020	001521	114.92	13.908707	-56.954625	115.18	1.660	-1.610	3.080	114.97	-1.90	3.60	 	 	 	 	 	 	 	 	 	 	 	 	 	 	 	 	 	 	1581466521	4.87	9.02
12/02/2020 00:15:22	120220	12022020	001522	115.60	13.908700	-56.954615	116.05	-0.260	1.710	2.900	115.81	1.20	3.30	 	 	 	 	 	 	 	 	 	 	 	 	 	 	 	 	 	 	1581466522	2.40	4.44
12/02/2020 00:15:23	120220	12022020	001523	116.83	13.908692	-56.954607	117.32	-2.050	3.640	2.650	117.09	2.30	3.10	 	 	 	 	 	 	 	 	 	 	 	 	 	 	 	 	 	 	1581466523	2.56	4.74
12/02/2020 00:15:24	120220	12022020	001524	117.94	13.908673	-56.954592	118.31	-2.370	2.640	2.480	118.11	0.40	2.90	 	 	 	 	 	 	 	 	 	 	 	 	 	 	 	 	 	 	1581466524	5.00	9.26
12/02/2020 00:15:25	120220	12022020	001525	118.46	13.908650	-56.954565	118.63	-1.100	-0.310	2.520	118.46	-2.60	3.10	 	 	 	 	 	 	 	 	 	 	 	 	 	 	 	 	 	 	1581466525	7.61	14.09
12/02/2020 00:15:26	120220	12022020	001526	118.16	13.908627	-56.954537	118.25	0.540	-2.480	2.890	118.07	-4.00	3.50	 	 	 	 	 	 	 	 	 	 	 	 	 	 	 	 	 	 	1581466526	7.92	14.67
12/02/2020 00:15:27	120220	12022020	001527	117.80	13.908610	-56.954515	117.94	1.300	-2.230	2.990	117.76	-3.10	3.40	 	 	 	 	 	 	 	 	 	 	 	 	 	 	 	 	 	 	1581466527	5.70	10.56
12/02/2020 00:15:28	120220	12022020	001528	117.84	13.908603	-56.954500	118.07	1.010	-0.460	2.600	117.90	-1.30	2.90	 	 	 	 	 	 	 	 	 	 	 	 	 	 	 	 	 	 	1581466528	3.48	6.44
12/02/2020 00:15:29	120220	12022020	001529	118.11	13.908598	-56.954485	118.30	0.380	0.910	1.990	118.16	-0.30	2.30	 	 	 	 	 	 	 	 	 	 	 	 	 	 	 	 	 	 	1581466529	3.23	5.98
12/02/2020 00:15:30	120220	12022020	001530	118.35	13.908590	-56.954465	118.49	0.010	0.930	1.310	118.38	-0.70	1.70	 	 	 	 	 	 	 	 	 	 	 	 	 	 	 	 	 	 	1581466530	4.48	8.30
12/02/2020 00:15:31	120220	12022020	001531	118.38	13.908577	-56.954442	118.46	0.020	0.020	1.020	118.36	-1.70	1.60	 	 	 	 	 	 	 	 	 	 	 	 	 	 	 	 	 	 	1581466531	5.75	10.65
12/02/2020 00:15:32	120220	12022020	001532	118.16	13.908558	-56.954418	118.22	0.150	-0.720	1.260	118.11	-2.20	1.90	 	 	 	 	 	 	 	 	 	 	 	 	 	 	 	 	 	 	1581466532	6.11	11.32
12/02/2020 00:15:33	120220	12022020	001533	117.95	13.908543	-56.954400	118.05	0.140	-0.630	1.510	117.93	-1.80	2.10	 	 	 	 	 	 	 	 	 	 	 	 	 	 	 	 	 	 	1581466533	5.34	9.89
12/02/2020 00:15:34	120220	12022020	001534	117.85	13.908528	-56.954383	117.95	-0.070	-0.050	1.690	117.82	-1.30	2.30	 	 	 	 	 	 	 	 	 	 	 	 	 	 	 	 	 	 	1581466534	4.48	8.30
12/02/2020 00:15:35	120220	12022020	001535	117.64	13.908515	-56.954368	117.68	-0.270	0.160	2.100	117.55	-1.30	2.80	 	 	 	 	 	 	 	 	 	 	 	 	 	 	 	 	 	 	1581466535	4.56	8.45
12/02/2020 00:15:36	120220	12022020	001536	117.12	13.908497	-56.954350	117.13	-0.320	-0.200	2.780	116.99	-1.70	3.50	 	 	 	 	 	 	 	 	 	 	 	 	 	 	 	 	 	 	1581466536	5.42	10.04
12/02/2020 00:15:37	120220	12022020	001537	116.59	13.908480	-56.954330	116.68	-0.390	-0.470	3.270	116.52	-1.90	3.80	 	 	 	 	 	 	 	 	 	 	 	 	 	 	 	 	 	 	1581466537	5.67	10.50
12/02/2020 00:15:38	120220	12022020	001538	116.38	13.908463	-56.954312	116.57	-0.410	-0.340	3.370	116.38	-1.60	3.80	 	 	 	 	 	 	 	 	 	 	 	 	 	 	 	 	 	 	1581466538	5.22	9.67
12/02/2020 00:15:39	120220	12022020	001539	116.43	13.908448	-56.954293	116.61	-0.170	-0.200	3.280	116.44	-1.60	3.70	 	 	 	 	 	 	 	 	 	 	 	 	 	 	 	 	 	 	1581466539	4.89	9.06
12/02/2020 00:15:40	120220	12022020	001540	116.46	13.908435	-56.954272	116.61	0.340	-0.430	3.110	116.44	-1.90	3.50	 	 	 	 	 	 	 	 	 	 	 	 	 	 	 	 	 	 	1581466540	5.29	9.80
12/02/2020 00:15:41	120220	12022020	001541	116.37	13.908420	-56.954248	116.52	0.840	-0.760	2.920	116.36	-2.10	3.40	 	 	 	 	 	 	 	 	 	 	 	 	 	 	 	 	 	 	1581466541	5.77	10.69
12/02/2020 00:15:42	120220	12022020	001542	116.36	13.908408	-56.954227	116.53	0.900	-0.410	2.740	116.37	-1.50	3.20	 	 	 	 	 	 	 	 	 	 	 	 	 	 	 	 	 	 	1581466542	5.40	10.00
12/02/2020 00:15:43	120220	12022020	001543	116.42	13.908397	-56.954210	116.61	0.440	0.630	2.570	116.43	-0.40	3.00	 	 	 	 	 	 	 	 	 	 	 	 	 	 	 	 	 	 	1581466543	4.28	7.93
12/02/2020 00:15:44	120220	12022020	001544	116.44	13.908388	-56.954195	116.60	-0.180	1.410	2.410	116.42	0.00	2.90	 	 	 	 	 	 	 	 	 	 	 	 	 	 	 	 	 	 	1581466544	3.76	6.96
12/02/2020 00:15:45	120220	12022020	001545	116.28	13.908377	-56.954177	116.41	-0.460	0.990	2.260	116.23	-0.80	2.70	 	 	 	 	 	 	 	 	 	 	 	 	 	 	 	 	 	 	1581466545	4.52	8.37
12/02/2020 00:15:46	120220	12022020	001546	116.01	13.908363	-56.954152	116.16	-0.290	-0.430	2.210	115.97	-2.30	2.80	 	 	 	 	 	 	 	 	 	 	 	 	 	 	 	 	 	 	1581466546	5.80	10.74
12/02/2020 00:15:47	120220	12022020	001547	115.85	13.908347	-56.954128	116.05	0.010	-1.620	2.380	115.84	-3.10	3.00	 	 	 	 	 	 	 	 	 	 	 	 	 	 	 	 	 	 	1581466547	6.23	11.54
12/02/2020 00:15:48	120220	12022020	001548	115.90	13.908332	-56.954107	116.16	0.130	-1.610	2.620	115.94	-2.70	3.20	 	 	 	 	 	 	 	 	 	 	 	 	 	 	 	 	 	 	1581466548	5.47	10.13
12/02/2020 00:15:49	120220	12022020	001549	116.14	13.908317	-56.954092	116.42	0.020	-0.640	2.610	116.20	-1.70	3.00	 	 	 	 	 	 	 	 	 	 	 	 	 	 	 	 	 	 	1581466549	4.36	8.07
12/02/2020 00:15:50	120220	12022020	001550	116.42	13.908307	-56.954077	116.68	-0.110	0.270	2.380	116.47	-1.00	2.80	 	 	 	 	 	 	 	 	 	 	 	 	 	 	 	 	 	 	1581466550	4.01	7.43
12/02/2020 00:15:51	120220	12022020	001551	116.54	13.908293	-56.954058	116.72	-0.000	0.290	2.330	116.52	-1.30	2.90	 	 	 	 	 	 	 	 	 	 	 	 	 	 	 	 	 	 	1581466551	4.72	8.74
12/02/2020 00:15:52	120220	12022020	001552	116.23	13.908278	-56.954035	116.30	0.310	-0.550	2.690	116.11	-2.20	3.30	 	 	 	 	 	 	 	 	 	 	 	 	 	 	 	 	 	 	1581466552	5.97	11.06
12/02/2020 00:15:53	120220	12022020	001553	115.65	13.908262	-56.954010	115.77	0.440	-0.980	2.980	115.57	-2.20	3.50	 	 	 	 	 	 	 	 	 	 	 	 	 	 	 	 	 	 	1581466553	6.35	11.76
12/02/2020 00:15:54	120220	12022020	001554	115.52	13.908248	-56.953990	115.77	0.060	-0.030	2.820	115.57	-0.90	3.20	 	 	 	 	 	 	 	 	 	 	 	 	 	 	 	 	 	 	1581466554	5.01	9.28
12/02/2020 00:15:55	120220	12022020	001555	115.91	13.908240	-56.953977	116.19	-0.570	1.540	2.400	116.01	0.50	2.80	 	 	 	 	 	 	 	 	 	 	 	 	 	 	 	 	 	 	1581466555	3.45	6.39
12/02/2020 00:15:56	120220	12022020	001556	116.32	13.908232	-56.953962	116.54	-0.900	1.910	2.010	116.37	0.20	2.40	 	 	 	 	 	 	 	 	 	 	 	 	 	 	 	 	 	 	1581466556	3.60	6.67
12/02/2020 00:15:57	120220	12022020	001557	116.53	13.908218	-56.953940	116.74	-0.590	0.510	1.660	116.57	-1.50	2.10	 	 	 	 	 	 	 	 	 	 	 	 	 	 	 	 	 	 	1581466557	5.29	9.80
12/02/2020 00:15:58	120220	12022020	001558	116.65	13.908203	-56.953913	116.82	0.200	-1.550	1.630	116.65	-3.40	2.20	 	 	 	 	 	 	 	 	 	 	 	 	 	 	 	 	 	 	1581466558	6.63	12.28
12/02/2020 00:15:59	120220	12022020	001559	116.52	13.908185	-56.953887	116.62	0.970	-2.720	2.030	116.47	-4.10	2.70	 	 	 	 	 	 	 	 	 	 	 	 	 	 	 	 	 	 	1581466559	6.61	12.24
12/02/2020 00:16:00	120220	12022020	001600	116.18	13.908168	-56.953867	116.26	1.240	-2.260	2.530	116.10	-3.20	3.10	 	 	 	 	 	 	 	 	 	 	 	 	 	 	 	 	 	 	1581466560	5.52	10.22
12/02/2020 00:16:01	120220	12022020	001601	115.84	13.908157	-56.953852	115.97	0.800	-0.490	2.700	115.80	-1.20	3.20	 	 	 	 	 	 	 	 	 	 	 	 	 	 	 	 	 	 	1581466561	4.13	7.65
12/02/2020 00:16:02	120220	12022020	001602	115.71	13.908150	-56.953838	115.91	-0.140	1.540	2.440	115.73	0.60	2.80	1016.90	26.20	26.20	20.50	20.60	-1.0	71.0	71.0	390.0	25.8	322.00	14.50	70.00	12.50	16	9998.0	27.2	27.1	1581466562	3.21	5.94
12/02/2020 00:16:03	120220	12022020	001603	115.89	13.908142	-56.953823	116.13	-1.060	2.530	1.940	115.96	1.10	2.30	 	 	 	 	 	 	 	 	 	 	 	 	 	 	 	 	 	 	1581466563	3.40	6.30
12/02/2020 00:16:04	120220	12022020	001604	116.21	13.908132	-56.953803	116.43	-1.370	1.660	1.480	116.26	-0.30	1.90	 	 	 	 	 	 	 	 	 	 	 	 	 	 	 	 	 	 	1581466564	4.78	8.85
12/02/2020 00:16:05	120220	12022020	001605	116.35	13.908115	-56.953778	116.53	-0.940	-0.490	1.420	116.36	-2.50	2.00	 	 	 	 	 	 	 	 	 	 	 	 	 	 	 	 	 	 	1581466565	6.45	11.95
12/02/2020 00:16:06	120220	12022020	001606	116.33	13.908095	-56.953752	116.48	-0.190	-2.300	1.790	116.31	-3.90	2.40	 	 	 	 	 	 	 	 	 	 	 	 	 	 	 	 	 	 	1581466566	6.97	12.91
12/02/2020 00:16:07	120220	12022020	001607	116.18	13.908077	-56.953730	116.30	0.430	-2.550	2.280	116.13	-3.70	2.90	 	 	 	 	 	 	 	 	 	 	 	 	 	 	 	 	 	 	1581466567	5.98	11.07
12/02/2020 00:16:08	120220	12022020	001608	115.83	13.908063	-56.953713	115.92	0.770	-1.410	2.610	115.75	-2.30	3.10	 	 	 	 	 	 	 	 	 	 	 	 	 	 	 	 	 	 	1581466568	4.58	8.48
12/02/2020 00:16:09	120220	12022020	001609	115.50	13.908053	-56.953698	115.65	0.740	0.250	2.600	115.48	-0.60	3.00	 	 	 	 	 	 	 	 	 	 	 	 	 	 	 	 	 	 	1581466569	3.85	7.13
12/02/2020 00:16:10	120220	12022020	001610	115.56	13.908045	-56.953683	115.80	0.290	1.570	2.340	115.62	0.40	2.70	 	 	 	 	 	 	 	 	 	 	 	 	 	 	 	 	 	 	1581466570	3.70	6.85
12/02/2020 00:16:11	120220	12022020	001611	115.86	13.908035	-56.953665	116.08	-0.260	1.750	1.860	115.90	0.10	2.20	 	 	 	 	 	 	 	 	 	 	 	 	 	 	 	 	 	 	1581466571	4.27	7.91
12/02/2020 00:16:12	120220	12022020	001612	115.97	13.908023	-56.953642	116.13	-0.480	0.690	1.510	115.97	-1.10	2.00	 	 	 	 	 	 	 	 	 	 	 	 	 	 	 	 	 	 	1581466572	5.44	10.07
12/02/2020 00:16:13	120220	12022020	001613	115.94	13.908008	-56.953618	116.13	-0.370	-0.590	1.630	115.95	-2.20	2.20	 	 	 	 	 	 	 	 	 	 	 	 	 	 	 	 	 	 	1581466573	6.09	11.28
12/02/2020 00:16:14	120220	12022020	001614	115.98	13.907992	-56.953597	116.19	-0.220	-1.090	1.980	116.00	-2.40	2.60	 	 	 	 	 	 	 	 	 	 	 	 	 	 	 	 	 	 	1581466574	5.59	10.35
12/02/2020 00:16:15	120220	12022020	001615	116.03	13.907977	-56.953580	116.21	-0.110	-0.920	2.210	116.02	-2.20	2.80	 	 	 	 	 	 	 	 	 	 	 	 	 	 	 	 	 	 	1581466575	4.82	8.93
12/02/2020 00:16:16	120220	12022020	001616	115.90	13.907963	-56.953563	116.03	0.150	-0.800	2.380	115.84	-2.20	2.90	 	 	 	 	 	 	 	 	 	 	 	 	 	 	 	 	 	 	1581466576	4.72	8.74
12/02/2020 00:16:17	120220	12022020	001617	115.62	13.907950	-56.953542	115.76	0.590	-0.850	2.430	115.57	-2.20	2.90	 	 	 	 	 	 	 	 	 	 	 	 	 	 	 	 	 	 	1581466577	5.17	9.57
12/02/2020 00:16:18	120220	12022020	001618	115.51	13.907938	-56.953520	115.71	0.780	-0.540	2.250	115.53	-1.70	2.60	 	 	 	 	 	 	 	 	 	 	 	 	 	 	 	 	 	 	1581466578	5.22	9.67
12/02/2020 00:16:19	120220	12022020	001619	115.71	13.907930	-56.953500	115.94	0.360	0.180	1.920	115.77	-1.00	2.40	 	 	 	 	 	 	 	 	 	 	 	 	 	 	 	 	 	 	1581466579	4.68	8.67
12/02/2020 00:16:20	120220	12022020	001620	115.87	13.907917	-56.953482	116.01	-0.380	0.660	2.010	115.87	-0.80	2.40	 	 	 	 	 	 	 	 	 	 	 	 	 	 	 	 	 	 	1581466580	4.55	8.43
12/02/2020 00:16:21	120220	12022020	001621	115.62	13.907900	-56.953463	115.70	-0.740	0.390	2.550	115.53	-1.20	3.20	 	 	 	 	 	 	 	 	 	 	 	 	 	 	 	 	 	 	1581466581	5.35	9.91
12/02/2020 00:16:22	120220	12022020	001622	115.24	13.907883	-56.953442	115.38	-0.540	-0.160	2.810	115.19	-1.60	3.30	 	 	 	 	 	 	 	 	 	 	 	 	 	 	 	 	 	 	1581466582	5.93	10.98
12/02/2020 00:16:23	120220	12022020	001623	115.21	13.907868	-56.953420	115.46	-0.340	-0.120	2.740	115.25	-1.30	3.20	 	 	 	 	 	 	 	 	 	 	 	 	 	 	 	 	 	 	1581466583	5.40	10.00
12/02/2020 00:16:24	120220	12022020	001624	115.54	13.907857	-56.953403	115.83	-0.450	0.360	2.490	115.62	-0.90	2.90	 	 	 	 	 	 	 	 	 	 	 	 	 	 	 	 	 	 	1581466584	4.44	8.22
12/02/2020 00:16:25	120220	12022020	001625	115.90	13.907843	-56.953387	116.12	-0.520	0.360	2.140	115.93	-1.20	2.50	 	 	 	 	 	 	 	 	 	 	 	 	 	 	 	 	 	 	1581466585	4.39	8.13
12/02/2020 00:16:26	120220	12022020	001626	115.91	13.907828	-56.953367	116.03	0.010	-0.610	1.920	115.86	-2.40	2.40	 	 	 	 	 	 	 	 	 	 	 	 	 	 	 	 	 	 	1581466586	5.43	10.06
12/02/2020 00:16:27	120220	12022020	001627	115.57	13.907813	-56.953342	115.66	0.920	-1.610	2.010	115.49	-3.10	2.50	 	 	 	 	 	 	 	 	 	 	 	 	 	 	 	 	 	 	1581466587	6.26	11.59
12/02/2020 00:16:28	120220	12022020	001628	115.32	13.907802	-56.953317	115.46	1.420	-1.500	1.980	115.30	-2.60	2.40	 	 	 	 	 	 	 	 	 	 	 	 	 	 	 	 	 	 	1581466588	5.66	10.48
12/02/2020 00:16:29	120220	12022020	001629	115.35	13.907793	-56.953297	115.52	1.120	-0.470	1.680	115.37	-1.50	2.10	 	 	 	 	 	 	 	 	 	 	 	 	 	 	 	 	 	 	1581466589	4.56	8.45
12/02/2020 00:16:30	120220	12022020	001630	115.46	13.907785	-56.953278	115.62	0.330	0.500	1.620	115.47	-0.70	2.20	 	 	 	 	 	 	 	 	 	 	 	 	 	 	 	 	 	 	1581466590	4.30	7.96
12/02/2020 00:16:31	120220	12022020	001631	115.53	13.907772	-56.953262	115.75	-0.570	1.150	2.140	115.55	-0.10	2.80	 	 	 	 	 	 	 	 	 	 	 	 	 	 	 	 	 	 	1581466591	4.64	8.59
12/02/2020 00:16:32	120220	12022020	001632	115.63	13.907755	-56.953245	115.85	-1.200	1.450	2.720	115.65	0.00	3.30	 	 	 	 	 	 	 	 	 	 	 	 	 	 	 	 	 	 	1581466592	4.85	8.98
12/02/2020 00:16:33	120220	12022020	001633	115.68	13.907737	-56.953228	115.88	-1.200	0.930	2.960	115.68	-0.80	3.40	 	 	 	 	 	 	 	 	 	 	 	 	 	 	 	 	 	 	1581466593	5.19	9.61
12/02/2020 00:16:34	120220	12022020	001634	115.62	13.907720	-56.953207	115.78	-0.470	-0.480	2.940	115.58	-2.30	3.40	 	 	 	 	 	 	 	 	 	 	 	 	 	 	 	 	 	 	1581466594	5.94	11.00
12/02/2020 00:16:35	120220	12022020	001635	115.43	13.907703	-56.953182	115.60	0.490	-1.870	2.950	115.40	-3.50	3.50	 	 	 	 	 	 	 	 	 	 	 	 	 	 	 	 	 	 	1581466595	6.40	11.85
12/02/2020 00:16:36	120220	12022020	001636	115.24	13.907690	-56.953155	115.37	1.030	-2.380	2.940	115.19	-3.60	3.40	 	 	 	 	 	 	 	 	 	 	 	 	 	 	 	 	 	 	1581466596	6.09	11.28
12/02/2020 00:16:37	120220	12022020	001637	115.01	13.907677	-56.953133	115.13	0.860	-1.660	2.860	114.97	-2.50	3.30	 	 	 	 	 	 	 	 	 	 	 	 	 	 	 	 	 	 	1581466597	5.32	9.85
12/02/2020 00:16:38	120220	12022020	001638	114.88	13.907665	-56.953118	115.04	0.130	0.070	2.760	114.88	-0.70	3.20	 	 	 	 	 	 	 	 	 	 	 	 	 	 	 	 	 	 	1581466598	4.33	8.02
12/02/2020 00:16:39	120220	12022020	001639	114.97	13.907655	-56.953105	115.17	-0.720	1.880	2.520	115.02	0.90	2.90	 	 	 	 	 	 	 	 	 	 	 	 	 	 	 	 	 	 	1581466599	3.64	6.74
12/02/2020 00:16:40	120220	12022020	001640	115.25	13.907645	-56.953088	115.48	-1.250	2.590	2.070	115.33	1.10	2.40	 	 	 	 	 	 	 	 	 	 	 	 	 	 	 	 	 	 	1581466600	3.84	7.11
12/02/2020 00:16:41	120220	12022020	001641	115.64	13.907633	-56.953068	115.84	-1.110	1.560	1.400	115.70	-0.40	1.70	 	 	 	 	 	 	 	 	 	 	 	 	 	 	 	 	 	 	1581466601	5.05	9.35
12/02/2020 00:16:42	120220	12022020	001642	115.82	13.907618	-56.953040	115.93	-0.240	-0.760	0.950	115.79	-2.90	1.50	 	 	 	 	 	 	 	 	 	 	 	 	 	 	 	 	 	 	1581466602	6.52	12.08
12/02/2020 00:16:43	120220	12022020	001643	115.44	13.907602	-56.953010	115.43	1.010	-2.940	1.320	115.30	-4.60	2.10	 	 	 	 	 	 	 	 	 	 	 	 	 	 	 	 	 	 	1581466603	7.30	13.52
12/02/2020 00:16:44	120220	12022020	001644	114.75	13.907585	-56.952983	114.80	1.900	-3.180	2.010	114.65	-4.10	2.70	 	 	 	 	 	 	 	 	 	 	 	 	 	 	 	 	 	 	1581466604	6.55	12.13
12/02/2020 00:16:45	120220	12022020	001645	114.54	13.907575	-56.952967	114.79	1.590	-0.970	2.390	114.60	-1.40	3.00	 	 	 	 	 	 	 	 	 	 	 	 	 	 	 	 	 	 	1581466605	4.18	7.74
12/02/2020 00:16:46	120220	12022020	001646	115.08	13.907568	-56.952958	115.45	0.170	1.840	2.620	115.25	1.10	3.20	 	 	 	 	 	 	 	 	 	 	 	 	 	 	 	 	 	 	1581466606	2.46	4.56
12/02/2020 00:16:47	120220	12022020	001647	115.93	13.907557	-56.952948	116.27	-1.330	3.010	3.030	116.07	1.40	3.70	 	 	 	 	 	 	 	 	 	 	 	 	 	 	 	 	 	 	1581466607	3.20	5.93
12/02/2020 00:16:48	120220	12022020	001648	116.43	13.907537	-56.952932	116.66	-1.760	1.660	3.510	116.46	-0.50	4.10	 	 	 	 	 	 	 	 	 	 	 	 	 	 	 	 	 	 	1581466608	5.47	10.13
12/02/2020 00:16:49	120220	12022020	001649	116.37	13.907513	-56.952907	116.51	-0.980	-0.900	3.930	116.31	-3.00	4.50	 	 	 	 	 	 	 	 	 	 	 	 	 	 	 	 	 	 	1581466609	7.35	13.61
12/02/2020 00:16:50	120220	12022020	001650	115.93	13.907492	-56.952880	116.02	0.220	-2.670	4.250	115.82	-4.20	4.80	 	 	 	 	 	 	 	 	 	 	 	 	 	 	 	 	 	 	1581466610	7.40	13.70
12/02/2020 00:16:51	120220	12022020	001651	115.39	13.907475	-56.952857	115.49	0.920	-2.410	4.200	115.30	-3.30	4.50	 	 	 	 	 	 	 	 	 	 	 	 	 	 	 	 	 	 	1581466611	5.77	10.69
12/02/2020 00:16:52	120220	12022020	001652	115.08	13.907468	-56.952840	115.23	0.700	-0.620	3.360	115.06	-1.40	3.50	 	 	 	 	 	 	 	 	 	 	 	 	 	 	 	 	 	 	1581466612	3.87	7.17
12/02/2020 00:16:53	120220	12022020	001653	115.09	13.907465	-56.952825	115.28	-0.010	1.110	2.000	115.13	0.00	2.10	 	 	 	 	 	 	 	 	 	 	 	 	 	 	 	 	 	 	1581466613	3.38	6.26
12/02/2020 00:16:54	120220	12022020	001654	115.34	13.907462	-56.952805	115.52	-0.500	1.560	0.660	115.40	0.00	0.80	 	 	 	 	 	 	 	 	 	 	 	 	 	 	 	 	 	 	1581466614	4.21	7.80
12/02/2020 00:16:55	120220	12022020	001655	115.60	13.907453	-56.952780	115.75	-0.320	0.680	-0.150	115.63	-1.10	0.30	 	 	 	 	 	 	 	 	 	 	 	 	 	 	 	 	 	 	1581466615	5.55	10.28
12/02/2020 00:16:56	120220	12022020	001656	115.68	13.907438	-56.952753	115.79	0.250	-0.600	-0.260	115.68	-2.20	0.30	 	 	 	 	 	 	 	 	 	 	 	 	 	 	 	 	 	 	1581466616	6.38	11.82
12/02/2020 00:16:57	120220	12022020	001657	115.64	13.907423	-56.952728	115.75	0.590	-1.120	0.170	115.63	-2.40	0.90	 	 	 	 	 	 	 	 	 	 	 	 	 	 	 	 	 	 	1581466617	6.06	11.22
12/02/2020 00:16:58	120220	12022020	001658	115.50	13.907408	-56.952712	115.60	0.310	-0.500	1.030	115.46	-1.50	1.90	 	 	 	 	 	 	 	 	 	 	 	 	 	 	 	 	 	 	1581466618	4.92	9.11
12/02/2020 00:16:59	120220	12022020	001659	115.23	13.907393	-56.952698	115.31	-0.320	0.440	2.170	115.16	-0.80	3.00	 	 	 	 	 	 	 	 	 	 	 	 	 	 	 	 	 	 	1581466619	4.24	7.85
12/02/2020 00:17:00	120220	12022020	001700	114.84	13.907377	-56.952685	114.92	-0.620	0.570	3.210	114.75	-1.00	3.90	 	 	 	 	 	 	 	 	 	 	 	 	 	 	 	 	 	 	1581466620	4.74	8.78
12/02/2020 00:17:01	120220	12022020	001701	114.42	13.907358	-56.952665	114.56	-0.200	-0.260	3.720	114.37	-1.90	4.20	 	 	 	 	 	 	 	 	 	 	 	 	 	 	 	 	 	 	1581466621	5.75	10.65
12/02/2020 00:17:02	120220	12022020	001702	114.28	13.907343	-56.952640	114.47	0.530	-1.080	3.640	114.28	-2.60	4.00	1016.90	26.20	26.30	20.90	21.00	-1.0	72.0	72.0	391.0	25.8	318.00	13.90	65.00	12.00	16	9969.0	27.1	27.1	1581466622	6.07	11.24
12/02/2020 00:17:03	120220	12022020	001703	114.32	13.907332	-56.952615	114.53	0.880	-1.240	3.370	114.34	-2.50	3.80	 	 	 	 	 	 	 	 	 	 	 	 	 	 	 	 	 	 	1581466623	5.60	10.37
12/02/2020 00:17:04	120220	12022020	001704	114.31	13.907322	-56.952593	114.48	0.620	-0.820	3.150	114.30	-2.00	3.60	 	 	 	 	 	 	 	 	 	 	 	 	 	 	 	 	 	 	1581466624	5.04	9.33
12/02/2020 00:17:05	120220	12022020	001705	114.21	13.907312	-56.952573	114.39	-0.040	-0.090	2.910	114.20	-1.20	3.30	 	 	 	 	 	 	 	 	 	 	 	 	 	 	 	 	 	 	1581466625	4.76	8.82
12/02/2020 00:17:06	120220	12022020	001706	114.25	13.907300	-56.952557	114.47	-0.630	0.730	2.630	114.28	-0.40	3.00	 	 	 	 	 	 	 	 	 	 	 	 	 	 	 	 	 	 	1581466626	4.55	8.43
12/02/2020 00:17:07	120220	12022020	001707	114.49	13.907288	-56.952538	114.74	-0.830	1.180	2.270	114.56	-0.20	2.60	 	 	 	 	 	 	 	 	 	 	 	 	 	 	 	 	 	 	1581466627	4.52	8.37
12/02/2020 00:17:08	120220	12022020	001708	114.74	13.907277	-56.952518	114.92	-0.580	0.810	1.930	114.75	-0.80	2.30	 	 	 	 	 	 	 	 	 	 	 	 	 	 	 	 	 	 	1581466628	5.01	9.28
12/02/2020 00:17:09	120220	12022020	001709	114.71	13.907263	-56.952493	114.84	-0.160	-0.140	1.630	114.68	-1.80	2.10	 	 	 	 	 	 	 	 	 	 	 	 	 	 	 	 	 	 	1581466629	5.71	10.57
12/02/2020 00:17:10	120220	12022020	001710	114.48	13.907252	-56.952470	114.57	0.160	-0.850	1.580	114.42	-2.30	2.10	 	 	 	 	 	 	 	 	 	 	 	 	 	 	 	 	 	 	1581466630	5.73	10.61
12/02/2020 00:17:11	120220	12022020	001711	114.23	13.907240	-56.952448	114.35	0.370	-0.960	1.750	114.20	-2.30	2.30	 	 	 	 	 	 	 	 	 	 	 	 	 	 	 	 	 	 	1581466631	5.20	9.63
12/02/2020 00:17:12	120220	12022020	001712	114.18	13.907228	-56.952427	114.33	0.560	-0.760	1.750	114.19	-2.10	2.20	 	 	 	 	 	 	 	 	 	 	 	 	 	 	 	 	 	 	1581466632	4.86	9.00
12/02/2020 00:17:13	120220	12022020	001713	114.34	13.907220	-56.952405	114.50	0.660	-0.620	1.520	114.38	-1.90	2.00	 	 	 	 	 	 	 	 	 	 	 	 	 	 	 	 	 	 	1581466633	5.02	9.30
12/02/2020 00:17:14	120220	12022020	001714	114.58	13.907210	-56.952383	114.76	0.550	-0.500	1.550	114.63	-1.80	2.20	 	 	 	 	 	 	 	 	 	 	 	 	 	 	 	 	 	 	1581466634	5.24	9.70
12/02/2020 00:17:15	120220	12022020	001715	114.76	13.907195	-56.952362	114.93	0.220	-0.300	2.080	114.79	-1.60	2.80	 	 	 	 	 	 	 	 	 	 	 	 	 	 	 	 	 	 	1581466635	5.33	9.87
12/02/2020 00:17:16	120220	12022020	001716	114.77	13.907178	-56.952343	114.88	-0.170	0.010	2.770	114.74	-1.20	3.50	 	 	 	 	 	 	 	 	 	 	 	 	 	 	 	 	 	 	1581466636	5.39	9.98
12/02/2020 00:17:17	120220	12022020	001717	114.54	13.907162	-56.952325	114.65	-0.510	0.380	3.340	114.48	-0.90	3.90	 	 	 	 	 	 	 	 	 	 	 	 	 	 	 	 	 	 	1581466637	5.33	9.87
12/02/2020 00:17:18	120220	12022020	001718	114.32	13.907147	-56.952307	114.48	-0.780	0.700	3.570	114.30	-0.60	4.00	 	 	 	 	 	 	 	 	 	 	 	 	 	 	 	 	 	 	1581466638	5.10	9.45
12/02/2020 00:17:19	120220	12022020	001719	114.33	13.907133	-56.952287	114.52	-0.890	0.680	3.270	114.35	-0.80	3.60	 	 	 	 	 	 	 	 	 	 	 	 	 	 	 	 	 	 	1581466639	4.96	9.19
12/02/2020 00:17:20	120220	12022020	001720	114.45	13.907123	-56.952263	114.60	-0.680	0.160	2.610	114.47	-1.60	2.80	 	 	 	 	 	 	 	 	 	 	 	 	 	 	 	 	 	 	1581466640	5.28	9.78
12/02/2020 00:17:21	120220	12022020	001721	114.59	13.907113	-56.952237	114.76	0.060	-0.890	1.720	114.63	-2.50	2.00	 	 	 	 	 	 	 	 	 	 	 	 	 	 	 	 	 	 	1581466641	5.93	10.98
12/02/2020 00:17:22	120220	12022020	001722	114.76	13.907103	-56.952210	114.92	0.810	-1.480	1.300	114.79	-2.90	1.80	 	 	 	 	 	 	 	 	 	 	 	 	 	 	 	 	 	 	1581466642	6.02	11.15
12/02/2020 00:17:23	120220	12022020	001723	114.80	13.907093	-56.952187	114.90	1.140	-1.270	1.330	114.79	-2.40	1.90	 	 	 	 	 	 	 	 	 	 	 	 	 	 	 	 	 	 	1581466643	5.47	10.13
12/02/2020 00:17:24	120220	12022020	001724	114.73	13.907082	-56.952165	114.83	0.880	-0.500	1.430	114.72	-1.60	2.00	 	 	 	 	 	 	 	 	 	 	 	 	 	 	 	 	 	 	1581466644	4.93	9.13
12/02/2020 00:17:25	120220	12022020	001725	114.70	13.907072	-56.952147	114.81	0.250	0.390	1.670	114.69	-0.80	2.30	 	 	 	 	 	 	 	 	 	 	 	 	 	 	 	 	 	 	1581466645	4.68	8.67
12/02/2020 00:17:26	120220	12022020	001726	114.67	13.907058	-56.952128	114.81	-0.450	1.100	2.190	114.67	-0.20	2.90	 	 	 	 	 	 	 	 	 	 	 	 	 	 	 	 	 	 	1581466646	4.72	8.74
12/02/2020 00:17:27	120220	12022020	001727	114.71	13.907043	-56.952112	114.88	-0.950	1.320	2.550	114.73	-0.20	3.10	 	 	 	 	 	 	 	 	 	 	 	 	 	 	 	 	 	 	1581466647	4.77	8.83
12/02/2020 00:17:28	120220	12022020	001728	114.84	13.907030	-56.952090	115.02	-0.910	0.560	2.530	114.87	-1.30	3.00	 	 	 	 	 	 	 	 	 	 	 	 	 	 	 	 	 	 	1581466648	5.30	9.82
12/02/2020 00:17:29	120220	12022020	001729	114.97	13.907015	-56.952065	115.13	-0.340	-0.900	2.450	114.98	-2.70	3.00	 	 	 	 	 	 	 	 	 	 	 	 	 	 	 	 	 	 	1581466649	6.28	11.63
12/02/2020 00:17:30	120220	12022020	001730	114.91	13.906998	-56.952038	115.01	0.330	-2.050	2.750	114.87	-3.60	3.40	 	 	 	 	 	 	 	 	 	 	 	 	 	 	 	 	 	 	1581466650	6.63	12.28
12/02/2020 00:17:31	120220	12022020	001731	114.59	13.906982	-56.952015	114.66	0.660	-2.000	3.100	114.51	-3.10	3.60	 	 	 	 	 	 	 	 	 	 	 	 	 	 	 	 	 	 	1581466651	6.03	11.17
12/02/2020 00:17:32	120220	12022020	001732	114.23	13.906970	-56.951997	114.33	0.480	-0.630	2.940	114.19	-1.50	3.30	 	 	 	 	 	 	 	 	 	 	 	 	 	 	 	 	 	 	1581466652	4.69	8.69
12/02/2020 00:17:33	120220	12022020	001733	114.16	13.906965	-56.951980	114.34	-0.100	1.090	2.350	114.19	0.00	2.60	 	 	 	 	 	 	 	 	 	 	 	 	 	 	 	 	 	 	1581466653	3.76	6.96
12/02/2020 00:17:34	120220	12022020	001734	114.43	13.906957	-56.951960	114.65	-0.620	1.740	1.620	114.51	0.20	1.90	 	 	 	 	 	 	 	 	 	 	 	 	 	 	 	 	 	 	1581466654	4.16	7.70
12/02/2020 00:17:35	120220	12022020	001735	114.82	13.906947	-56.951937	115.01	-0.690	1.020	1.040	114.88	-0.80	1.40	 	 	 	 	 	 	 	 	 	 	 	 	 	 	 	 	 	 	1581466655	5.47	10.13
12/02/2020 00:17:36	120220	12022020	001736	115.02	13.906933	-56.951910	115.15	-0.300	-0.210	0.890	115.03	-2.00	1.50	 	 	 	 	 	 	 	 	 	 	 	 	 	 	 	 	 	 	1581466656	6.23	11.54
12/02/2020 00:17:37	120220	12022020	001737	114.92	13.906918	-56.951885	115.02	0.240	-1.120	1.280	114.88	-2.70	2.00	 	 	 	 	 	 	 	 	 	 	 	 	 	 	 	 	 	 	1581466657	6.14	11.37
12/02/2020 00:17:38	120220	12022020	001738	114.69	13.906903	-56.951863	114.81	0.690	-1.390	1.790	114.66	-2.70	2.40	 	 	 	 	 	 	 	 	 	 	 	 	 	 	 	 	 	 	1581466658	5.74	10.63
12/02/2020 00:17:39	120220	12022020	001739	114.62	13.906890	-56.951842	114.77	0.840	-1.100	2.110	114.62	-2.20	2.80	 	 	 	 	 	 	 	 	 	 	 	 	 	 	 	 	 	 	1581466659	5.28	9.78
12/02/2020 00:17:40	120220	12022020	001740	114.59	13.906878	-56.951823	114.74	0.530	-0.280	2.580	114.57	-1.40	3.20	 	 	 	 	 	 	 	 	 	 	 	 	 	 	 	 	 	 	1581466660	4.90	9.07
12/02/2020 00:17:41	120220	12022020	001741	114.43	13.906865	-56.951803	114.56	-0.020	0.380	2.830	114.38	-0.80	3.30	 	 	 	 	 	 	 	 	 	 	 	 	 	 	 	 	 	 	1581466661	4.73	8.76
12/02/2020 00:17:42	120220	12022020	001742	114.21	13.906853	-56.951783	114.33	-0.550	0.650	2.710	114.19	-0.80	3.10	 	 	 	 	 	 	 	 	 	 	 	 	 	 	 	 	 	 	1581466662	5.01	9.28
12/02/2020 00:17:43	120220	12022020	001743	114.24	13.906842	-56.951760	114.45	-0.580	0.330	2.440	114.30	-1.20	2.90	 	 	 	 	 	 	 	 	 	 	 	 	 	 	 	 	 	 	1581466663	5.55	10.28
12/02/2020 00:17:44	120220	12022020	001744	114.57	13.906828	-56.951737	114.79	-0.370	-0.020	2.310	114.63	-1.50	2.70	 	 	 	 	 	 	 	 	 	 	 	 	 	 	 	 	 	 	1581466664	5.74	10.63
12/02/2020 00:17:45	120220	12022020	001745	114.79	13.906815	-56.951713	114.94	-0.290	-0.190	2.100	114.80	-1.60	2.50	 	 	 	 	 	 	 	 	 	 	 	 	 	 	 	 	 	 	1581466665	5.42	10.04
12/02/2020 00:17:46	120220	12022020	001746	114.65	13.906803	-56.951692	114.71	-0.340	-0.370	1.970	114.59	-1.90	2.50	 	 	 	 	 	 	 	 	 	 	 	 	 	 	 	 	 	 	1581466666	5.22	9.67
12/02/2020 00:17:47	120220	12022020	001747	114.28	13.906792	-56.951670	114.38	-0.210	-0.670	2.100	114.21	-2.30	2.70	 	 	 	 	 	 	 	 	 	 	 	 	 	 	 	 	 	 	1581466667	5.49	10.17
12/02/2020 00:17:48	120220	12022020	001748	114.02	13.906777	-56.951645	114.14	0.260	-1.150	2.270	114.02	-2.40	2.70	 	 	 	 	 	 	 	 	 	 	 	 	 	 	 	 	 	 	1581466668	5.99	11.09
12/02/2020 00:17:49	120220	12022020	001749	113.89	13.906762	-56.951620	114.01	0.760	-1.180	2.370	113.87	-2.40	2.80	 	 	 	 	 	 	 	 	 	 	 	 	 	 	 	 	 	 	1581466669	6.09	11.28
12/02/2020 00:17:50	120220	12022020	001750	113.92	13.906752	-56.951598	114.11	0.620	-0.160	2.040	113.97	-1.00	2.40	 	 	 	 	 	 	 	 	 	 	 	 	 	 	 	 	 	 	1581466670	5.21	9.65
12/02/2020 00:17:51	120220	12022020	001751	114.33	13.906745	-56.951580	114.59	-0.120	1.460	1.490	114.44	0.50	1.80	 	 	 	 	 	 	 	 	 	 	 	 	 	 	 	 	 	 	1581466671	3.96	7.33
12/02/2020 00:17:52	120220	12022020	001752	114.96	13.906738	-56.951565	115.22	-0.860	2.290	1.170	115.08	0.80	1.70	 	 	 	 	 	 	 	 	 	 	 	 	 	 	 	 	 	 	1581466672	3.69	6.83
12/02/2020 00:17:53	120220	12022020	001753	115.46	13.906725	-56.951545	115.64	-0.860	1.400	1.280	115.51	-0.60	1.90	 	 	 	 	 	 	 	 	 	 	 	 	 	 	 	 	 	 	1581466673	4.92	9.11
12/02/2020 00:17:54	120220	12022020	001754	115.52	13.906708	-56.951518	115.61	0.080	-0.920	1.660	115.47	-3.10	2.30	 	 	 	 	 	 	 	 	 	 	 	 	 	 	 	 	 	 	1581466674	6.62	12.26
12/02/2020 00:17:55	120220	12022020	001755	115.10	13.906692	-56.951487	115.17	1.150	-2.930	2.170	114.98	-4.70	3.00	 	 	 	 	 	 	 	 	 	 	 	 	 	 	 	 	 	 	1581466675	7.52	13.93
12/02/2020 00:17:56	120220	12022020	001756	114.62	13.906678	-56.951460	114.74	1.450	-2.970	2.990	114.57	-3.80	3.70	 	 	 	 	 	 	 	 	 	 	 	 	 	 	 	 	 	 	1581466676	6.43	11.91
12/02/2020 00:17:57	120220	12022020	001757	114.64	13.906665	-56.951445	114.93	0.370	-0.610	3.640	114.73	-1.10	4.20	 	 	 	 	 	 	 	 	 	 	 	 	 	 	 	 	 	 	1581466677	3.97	7.35
12/02/2020 00:17:58	120220	12022020	001758	115.29	13.906655	-56.951438	115.59	-1.000	1.710	3.670	115.45	0.90	4.00	 	 	 	 	 	 	 	 	 	 	 	 	 	 	 	 	 	 	1581466678	2.92	5.41
12/02/2020 00:17:59	120220	12022020	001759	115.99	13.906642	-56.951423	116.25	-1.700	2.290	3.220	116.10	0.40	3.50	 	 	 	 	 	 	 	 	 	 	 	 	 	 	 	 	 	 	1581466679	4.08	7.56
12/02/2020 00:18:00	120220	12022020	001800	116.30	13.906623	-56.951398	116.50	-1.060	0.640	2.660	116.32	-1.60	3.00	 	 	 	 	 	 	 	 	 	 	 	 	 	 	 	 	 	 	1581466680	6.60	12.22
12/02/2020 00:18:01	120220	12022020	001801	116.30	13.906607	-56.951368	116.47	0.090	-1.060	2.300	116.29	-2.70	2.70	 	 	 	 	 	 	 	 	 	 	 	 	 	 	 	 	 	 	1581466681	7.40	13.70
12/02/2020 00:18:02	120220	12022020	001802	116.33	13.906593	-56.951343	116.51	0.640	-1.170	1.950	116.36	-2.10	2.20	1017.00	26.20	26.20	21.00	21.10	-1.0	73.0	73.0	393.0	25.8	319.00	15.20	66.00	13.20	16	9355.0	27.1	27.1	1581466682	5.88	10.89
12/02/2020 00:18:03	120220	12022020	001803	116.55	13.906585	-56.951327	116.75	0.320	0.030	1.380	116.62	-0.90	1.60	 	 	 	 	 	 	 	 	 	 	 	 	 	 	 	 	 	 	1581466683	4.02	7.45
12/02/2020 00:18:04	120220	12022020	001804	116.88	13.906578	-56.951310	117.05	-0.200	1.020	0.780	116.94	-0.30	1.10	 	 	 	 	 	 	 	 	 	 	 	 	 	 	 	 	 	 	1581466684	3.54	6.56
12/02/2020 00:18:05	120220	12022020	001805	117.12	13.906570	-56.951290	117.25	-0.210	0.710	0.500	117.13	-1.20	1.10	 	 	 	 	 	 	 	 	 	 	 	 	 	 	 	 	 	 	1581466685	4.63	8.57
12/02/2020 00:18:06	120220	12022020	001806	117.00	13.906555	-56.951265	117.11	0.370	-0.650	0.760	116.92	-2.60	1.50	 	 	 	 	 	 	 	 	 	 	 	 	 	 	 	 	 	 	1581466686	6.12	11.33
12/02/2020 00:18:07	120220	12022020	001807	116.53	13.906537	-56.951240	116.63	0.870	-1.630	1.410	116.43	-3.00	2.20	 	 	 	 	 	 	 	 	 	 	 	 	 	 	 	 	 	 	1581466687	6.45	11.95
12/02/2020 00:18:08	120220	12022020	001808	116.15	13.906522	-56.951222	116.30	0.760	-1.270	2.080	116.13	-2.20	2.80	 	 	 	 	 	 	 	 	 	 	 	 	 	 	 	 	 	 	1581466688	5.37	9.95
12/02/2020 00:18:09	120220	12022020	001809	116.21	13.906508	-56.951207	116.42	0.190	0.050	2.560	116.26	-0.90	3.20	 	 	 	 	 	 	 	 	 	 	 	 	 	 	 	 	 	 	1581466689	4.13	7.65
12/02/2020 00:18:10	120220	12022020	001810	116.46	13.906495	-56.951193	116.66	-0.330	0.880	2.890	116.48	-0.60	3.50	 	 	 	 	 	 	 	 	 	 	 	 	 	 	 	 	 	 	1581466690	4.05	7.50
12/02/2020 00:18:11	120220	12022020	001811	116.36	13.906480	-56.951172	116.52	-0.460	0.360	3.180	116.30	-1.50	3.80	 	 	 	 	 	 	 	 	 	 	 	 	 	 	 	 	 	 	1581466691	5.42	10.04
12/02/2020 00:18:12	120220	12022020	001812	115.97	13.906462	-56.951148	116.11	-0.360	-0.640	3.380	115.88	-2.30	3.90	 	 	 	 	 	 	 	 	 	 	 	 	 	 	 	 	 	 	1581466692	6.39	11.83
12/02/2020 00:18:13	120220	12022020	001813	115.57	13.906443	-56.951127	115.72	-0.270	-0.960	3.610	115.50	-2.20	4.20	 	 	 	 	 	 	 	 	 	 	 	 	 	 	 	 	 	 	1581466693	6.05	11.20
12/02/2020 00:18:14	120220	12022020	001814	115.25	13.906427	-56.951107	115.42	-0.240	-0.520	3.820	115.20	-1.60	4.30	 	 	 	 	 	 	 	 	 	 	 	 	 	 	 	 	 	 	1581466694	5.23	9.69
12/02/2020 00:18:15	120220	12022020	001815	115.09	13.906413	-56.951090	115.31	-0.160	0.080	3.490	115.10	-1.20	3.60	 	 	 	 	 	 	 	 	 	 	 	 	 	 	 	 	 	 	1581466695	4.80	8.89
12/02/2020 00:18:16	120220	12022020	001816	115.23	13.906405	-56.951067	115.45	0.080	0.330	2.370	115.29	-1.10	2.30	 	 	 	 	 	 	 	 	 	 	 	 	 	 	 	 	 	 	1581466696	4.99	9.24
12/02/2020 00:18:17	120220	12022020	001817	115.68	13.906398	-56.951043	115.90	0.340	0.350	1.170	115.80	-1.00	1.40	 	 	 	 	 	 	 	 	 	 	 	 	 	 	 	 	 	 	1581466697	5.29	9.80
12/02/2020 00:18:18	120220	12022020	001818	116.28	13.906388	-56.951022	116.48	0.350	0.370	0.660	116.38	-1.10	1.20	 	 	 	 	 	 	 	 	 	 	 	 	 	 	 	 	 	 	1581466698	4.98	9.22
12/02/2020 00:18:19	120220	12022020	001819	116.64	13.906377	-56.951002	116.77	0.160	0.180	0.840	116.65	-1.40	1.60	 	 	 	 	 	 	 	 	 	 	 	 	 	 	 	 	 	 	1581466699	4.90	9.07
12/02/2020 00:18:20	120220	12022020	001820	116.41	13.906360	-56.950982	116.47	0.140	-0.470	1.640	116.28	-2.20	2.60	 	 	 	 	 	 	 	 	 	 	 	 	 	 	 	 	 	 	1581466700	5.47	10.13
12/02/2020 00:18:21	120220	12022020	001821	115.64	13.906342	-56.950960	115.70	0.380	-1.130	2.770	115.48	-2.60	3.60	 	 	 	 	 	 	 	 	 	 	 	 	 	 	 	 	 	 	1581466701	5.99	11.09
12/02/2020 00:18:22	120220	12022020	001822	115.13	13.906327	-56.950940	115.30	0.470	-1.030	3.440	115.12	-2.10	4.00	 	 	 	 	 	 	 	 	 	 	 	 	 	 	 	 	 	 	1581466702	5.52	10.22
12/02/2020 00:18:23	120220	12022020	001823	115.35	13.906313	-56.950922	115.60	0.150	-0.220	3.580	115.46	-1.30	4.00	 	 	 	 	 	 	 	 	 	 	 	 	 	 	 	 	 	 	1581466703	4.60	8.52
12/02/2020 00:18:24	120220	12022020	001824	115.96	13.906302	-56.950905	116.22	-0.350	0.420	3.390	116.07	-1.00	3.80	 	 	 	 	 	 	 	 	 	 	 	 	 	 	 	 	 	 	1581466704	4.37	8.09
12/02/2020 00:18:25	120220	12022020	001825	116.35	13.906287	-56.950885	116.57	-0.540	0.080	3.140	116.37	-1.70	3.60	 	 	 	 	 	 	 	 	 	 	 	 	 	 	 	 	 	 	1581466705	5.31	9.83
12/02/2020 00:18:26	120220	12022020	001826	116.24	13.906268	-56.950860	116.39	-0.260	-0.910	3.140	116.17	-2.60	3.70	 	 	 	 	 	 	 	 	 	 	 	 	 	 	 	 	 	 	1581466706	6.51	12.06
12/02/2020 00:18:27	120220	12022020	001827	115.82	13.906248	-56.950837	115.95	0.160	-1.290	3.300	115.75	-2.40	3.70	 	 	 	 	 	 	 	 	 	 	 	 	 	 	 	 	 	 	1581466707	6.53	12.09
12/02/2020 00:18:28	120220	12022020	001828	115.58	13.906235	-56.950817	115.77	0.270	-0.280	3.030	115.58	-1.00	3.20	 	 	 	 	 	 	 	 	 	 	 	 	 	 	 	 	 	 	1581466708	5.06	9.37
12/02/2020 00:18:29	120220	12022020	001829	115.69	13.906228	-56.950802	115.88	-0.080	1.300	2.120	115.73	0.30	2.10	 	 	 	 	 	 	 	 	 	 	 	 	 	 	 	 	 	 	1581466709	3.70	6.85
12/02/2020 00:18:30	120220	12022020	001830	115.87	13.906223	-56.950782	116.03	-0.510	1.890	1.070	115.90	0.20	1.20	 	 	 	 	 	 	 	 	 	 	 	 	 	 	 	 	 	 	1581466710	4.07	7.54
12/02/2020 00:18:31	120220	12022020	001831	116.02	13.906217	-56.950757	116.18	-0.590	0.850	0.370	116.03	-1.30	0.80	 	 	 	 	 	 	 	 	 	 	 	 	 	 	 	 	 	 	1581466711	5.44	10.07
12/02/2020 00:18:32	120220	12022020	001832	116.03	13.906202	-56.950730	116.17	-0.120	-1.100	0.430	116.01	-3.30	1.20	 	 	 	 	 	 	 	 	 	 	 	 	 	 	 	 	 	 	1581466712	6.66	12.33
12/02/2020 00:18:33	120220	12022020	001833	115.81	13.906180	-56.950703	115.93	0.590	-2.570	1.190	115.75	-4.10	2.10	 	 	 	 	 	 	 	 	 	 	 	 	 	 	 	 	 	 	1581466713	7.08	13.11
12/02/2020 00:18:34	120220	12022020	001834	115.55	13.906160	-56.950683	115.69	0.890	-2.180	2.120	115.52	-2.90	2.90	 	 	 	 	 	 	 	 	 	 	 	 	 	 	 	 	 	 	1581466714	5.97	11.06
12/02/2020 00:18:35	120220	12022020	001835	115.51	13.906145	-56.950672	115.69	0.480	-0.120	2.630	115.52	-0.60	3.20	 	 	 	 	 	 	 	 	 	 	 	 	 	 	 	 	 	 	1581466715	3.94	7.30
12/02/2020 00:18:36	120220	12022020	001836	115.50	13.906135	-56.950662	115.65	-0.180	1.770	2.760	115.47	0.60	3.20	 	 	 	 	 	 	 	 	 	 	 	 	 	 	 	 	 	 	1581466716	3.04	5.63
12/02/2020 00:18:37	120220	12022020	001837	115.27	13.906125	-56.950643	115.39	-0.410	1.810	2.670	115.22	-0.10	3.10	 	 	 	 	 	 	 	 	 	 	 	 	 	 	 	 	 	 	1581466717	4.37	8.09
12/02/2020 00:18:38	120220	12022020	001838	115.09	13.906113	-56.950617	115.24	-0.230	0.320	2.430	115.08	-1.80	2.80	 	 	 	 	 	 	 	 	 	 	 	 	 	 	 	 	 	 	1581466718	6.19	11.46
12/02/2020 00:18:39	120220	12022020	001839	115.18	13.906100	-56.950588	115.38	-0.010	-1.230	2.200	115.23	-3.00	2.60	 	 	 	 	 	 	 	 	 	 	 	 	 	 	 	 	 	 	1581466719	6.62	12.26
12/02/2020 00:18:40	120220	12022020	001840	115.43	13.906085	-56.950565	115.62	-0.010	-1.780	2.180	115.47	-3.10	2.80	 	 	 	 	 	 	 	 	 	 	 	 	 	 	 	 	 	 	1581466720	5.89	10.91
12/02/2020 00:18:41	120220	12022020	001841	115.55	13.906070	-56.950547	115.72	-0.120	-1.320	2.610	115.54	-2.40	3.40	 	 	 	 	 	 	 	 	 	 	 	 	 	 	 	 	 	 	1581466721	5.12	9.48
12/02/2020 00:18:42	120220	12022020	001842	115.53	13.906053	-56.950532	115.70	-0.240	-0.390	3.210	115.53	-1.40	3.80	 	 	 	 	 	 	 	 	 	 	 	 	 	 	 	 	 	 	1581466722	4.87	9.02
12/02/2020 00:18:43	120220	12022020	001843	115.57	13.906037	-56.950517	115.75	-0.360	0.580	3.410	115.57	-0.50	3.80	 	 	 	 	 	 	 	 	 	 	 	 	 	 	 	 	 	 	1581466723	4.70	8.70
12/02/2020 00:18:44	120220	12022020	001844	115.52	13.906023	-56.950500	115.65	-0.440	1.190	3.130	115.48	-0.20	3.40	 	 	 	 	 	 	 	 	 	 	 	 	 	 	 	 	 	 	1581466724	4.55	8.43
12/02/2020 00:18:45	120220	12022020	001845	115.31	13.906012	-56.950478	115.43	-0.260	0.960	2.620	115.27	-0.80	2.80	 	 	 	 	 	 	 	 	 	 	 	 	 	 	 	 	 	 	1581466725	5.01	9.28
12/02/2020 00:18:46	120220	12022020	001846	115.24	13.906002	-56.950453	115.40	0.220	0.010	1.850	115.26	-1.80	2.00	 	 	 	 	 	 	 	 	 	 	 	 	 	 	 	 	 	 	1581466726	5.82	10.78
12/02/2020 00:18:47	120220	12022020	001847	115.46	13.905995	-56.950425	115.63	0.590	-0.750	1.020	115.52	-2.30	1.20	 	 	 	 	 	 	 	 	 	 	 	 	 	 	 	 	 	 	1581466727	5.90	10.93
12/02/2020 00:18:48	120220	12022020	001848	115.81	13.905987	-56.950403	115.98	0.480	-0.850	0.540	115.88	-2.20	1.00	 	 	 	 	 	 	 	 	 	 	 	 	 	 	 	 	 	 	1581466728	5.13	9.50
12/02/2020 00:18:49	120220	12022020	001849	116.09	13.905975	-56.950385	116.26	0.000	-0.570	0.840	116.13	-1.90	1.70	 	 	 	 	 	 	 	 	 	 	 	 	 	 	 	 	 	 	1581466729	4.56	8.45
12/02/2020 00:18:50	120220	12022020	001850	116.13	13.905957	-56.950368	116.28	-0.250	-0.510	1.830	116.13	-1.90	2.00	 	 	 	 	 	 	 	 	 	 	 	 	 	 	 	 	 	 	1581466730	5.07	9.39
12/02/2020 00:18:51	120220	12022020	001851	115.85	13.905937	-56.950350	115.98	0.080	-0.900	3.030	115.74	-2.50	3.90	 	 	 	 	 	 	 	 	 	 	 	 	 	 	 	 	 	 	1581466731	6.02	11.15
12/02/2020 00:18:52	120220	12022020	001852	115.27	13.905917	-56.950328	115.40	0.570	-1.110	3.930	115.15	-2.30	4.60	 	 	 	 	 	 	 	 	 	 	 	 	 	 	 	 	 	 	1581466732	6.31	11.69
12/02/2020 00:18:53	120220	12022020	001853	114.80	13.905902	-56.950307	115.00	0.500	-0.320	4.070	114.77	-1.10	4.40	 	 	 	 	 	 	 	 	 	 	 	 	 	 	 	 	 	 	1581466733	5.31	9.83
12/02/2020 00:18:54	120220	12022020	001854	114.94	13.905893	-56.950292	115.20	-0.230	1.240	3.560	115.04	0.40	3.70	 	 	 	 	 	 	 	 	 	 	 	 	 	 	 	 	 	 	1581466734	3.88	7.19
12/02/2020 00:18:55	120220	12022020	001855	115.68	13.905887	-56.950277	115.97	-1.030	2.260	2.700	115.86	0.80	2.80	 	 	 	 	 	 	 	 	 	 	 	 	 	 	 	 	 	 	1581466735	3.45	6.39
12/02/2020 00:18:56	120220	12022020	001856	116.47	13.905877	-56.950255	116.69	-1.230	1.460	1.840	116.56	-0.80	2.10	 	 	 	 	 	 	 	 	 	 	 	 	 	 	 	 	 	 	1581466736	4.73	8.76
12/02/2020 00:18:57	120220	12022020	001857	116.57	13.905860	-56.950228	116.69	-0.660	-0.830	1.630	116.48	-3.10	2.30	 	 	 	 	 	 	 	 	 	 	 	 	 	 	 	 	 	 	1581466737	6.65	12.32
12/02/2020 00:18:58	120220	12022020	001858	115.96	13.905838	-56.950203	116.05	0.200	-2.660	2.190	115.82	-4.30	2.90	 	 	 	 	 	 	 	 	 	 	 	 	 	 	 	 	 	 	1581466738	7.20	13.33
12/02/2020 00:18:59	120220	12022020	001859	115.32	13.905820	-56.950183	115.45	0.810	-2.560	2.730	115.24	-3.40	3.30	 	 	 	 	 	 	 	 	 	 	 	 	 	 	 	 	 	 	1581466739	5.79	10.72
12/02/2020 00:19:00	120220	12022020	001900	115.07	13.905810	-56.950168	115.23	0.950	-0.950	2.710	115.06	-1.70	3.00	 	 	 	 	 	 	 	 	 	 	 	 	 	 	 	 	 	 	1581466740	3.95	7.32
12/02/2020 00:19:01	120220	12022020	001901	115.00	13.905803	-56.950150	115.15	0.710	0.440	2.220	114.99	-0.70	2.40	 	 	 	 	 	 	 	 	 	 	 	 	 	 	 	 	 	 	1581466741	3.83	7.09
12/02/2020 00:19:02	120220	12022020	001902	114.99	13.905795	-56.950128	115.15	0.210	0.900	1.610	115.01	-0.40	1.90	1016.90	26.10	26.20	20.80	20.90	-1.0	72.0	72.0	393.0	25.8	318.00	14.40	66.00	12.60	16	9571.0	27.1	27.1	1581466742	4.89	9.06
12/02/2020 00:19:03	120220	12022020	001903	115.17	13.905783	-56.950108	115.36	-0.480	1.130	1.360	115.23	-0.10	1.90	 	 	 	 	 	 	 	 	 	 	 	 	 	 	 	 	 	 	1581466743	5.08	9.41
12/02/2020 00:19:04	120220	12022020	001904	115.49	13.905770	-56.950092	115.69	-1.010	1.410	1.480	115.56	-0.10	2.10	 	 	 	 	 	 	 	 	 	 	 	 	 	 	 	 	 	 	1581466744	4.62	8.56
12/02/2020 00:19:05	120220	12022020	001905	115.70	13.905755	-56.950073	115.86	-0.890	0.870	1.760	115.71	-1.20	2.40	 	 	 	 	 	 	 	 	 	 	 	 	 	 	 	 	 	 	1581466745	4.88	9.04
12/02/2020 00:19:06	120220	12022020	001906	115.62	13.905738	-56.950050	115.75	0.030	-0.860	2.120	115.57	-3.10	2.90	 	 	 	 	 	 	 	 	 	 	 	 	 	 	 	 	 	 	1581466746	6.11	11.32
12/02/2020 00:19:07	120220	12022020	001907	115.27	13.905720	-56.950023	115.41	1.010	-2.550	2.870	115.20	-4.20	3.80	 	 	 	 	 	 	 	 	 	 	 	 	 	 	 	 	 	 	1581466747	6.94	12.85
12/02/2020 00:19:08	120220	12022020	001908	115.01	13.905702	-56.950002	115.20	1.080	-2.420	3.850	114.98	-3.20	4.60	 	 	 	 	 	 	 	 	 	 	 	 	 	 	 	 	 	 	1581466748	5.97	11.06
12/02/2020 00:19:09	120220	12022020	001909	115.04	13.905687	-56.949990	115.26	0.210	-0.450	4.390	115.08	-0.90	4.90	 	 	 	 	 	 	 	 	 	 	 	 	 	 	 	 	 	 	1581466749	4.13	7.65
12/02/2020 00:19:10	120220	12022020	001910	115.22	13.905675	-56.949980	115.44	-0.710	1.630	4.280	115.25	0.60	4.50	 	 	 	 	 	 	 	 	 	 	 	 	 	 	 	 	 	 	1581466750	3.14	5.82
12/02/2020 00:19:11	120220	12022020	001911	115.33	13.905663	-56.949965	115.52	-0.840	2.010	3.620	115.34	0.20	3.70	 	 	 	 	 	 	 	 	 	 	 	 	 	 	 	 	 	 	1581466751	4.12	7.63
12/02/2020 00:19:12	120220	12022020	001912	115.42	13.905652	-56.949938	115.60	-0.300	0.790	2.630	115.45	-1.20	2.70	 	 	 	 	 	 	 	 	 	 	 	 	 	 	 	 	 	 	1581466752	5.86	10.85
12/02/2020 00:19:13	120220	12022020	001913	115.58	13.905642	-56.949912	115.76	0.240	-0.610	1.730	115.62	-2.40	2.00	 	 	 	 	 	 	 	 	 	 	 	 	 	 	 	 	 	 	1581466753	6.29	11.65
12/02/2020 00:19:14	120220	12022020	001914	115.72	13.905630	-56.949887	115.88	0.400	-1.290	1.300	115.73	-2.80	1.80	 	 	 	 	 	 	 	 	 	 	 	 	 	 	 	 	 	 	1581466754	5.60	10.37
12/02/2020 00:19:15	120220	12022020	001915	115.67	13.905617	-56.949867	115.80	0.260	-1.340	1.380	115.64	-2.60	2.00	 	 	 	 	 	 	 	 	 	 	 	 	 	 	 	 	 	 	1581466755	5.10	9.45
12/02/2020 00:19:16	120220	12022020	001916	115.53	13.905602	-56.949850	115.66	0.070	-0.860	1.650	115.50	-1.90	2.30	 	 	 	 	 	 	 	 	 	 	 	 	 	 	 	 	 	 	1581466756	4.98	9.22
12/02/2020 00:19:17	120220	12022020	001917	115.47	13.905587	-56.949833	115.61	-0.060	0.090	1.900	115.47	-0.90	2.40	 	 	 	 	 	 	 	 	 	 	 	 	 	 	 	 	 	 	1581466757	4.49	8.32
12/02/2020 00:19:18	120220	12022020	001918	115.51	13.905577	-56.949818	115.64	-0.140	0.910	1.930	115.51	-0.40	2.40	 	 	 	 	 	 	 	 	 	 	 	 	 	 	 	 	 	 	1581466758	4.11	7.61
12/02/2020 00:19:19	120220	12022020	001919	115.48	13.905567	-56.949798	115.59	-0.140	0.820	1.890	115.47	-0.90	2.40	 	 	 	 	 	 	 	 	 	 	 	 	 	 	 	 	 	 	1581466759	4.70	8.70
12/02/2020 00:19:20	120220	12022020	001920	115.35	13.905552	-56.949775	115.45	-0.030	-0.120	2.030	115.31	-2.00	2.70	 	 	 	 	 	 	 	 	 	 	 	 	 	 	 	 	 	 	1581466760	5.70	10.56
12/02/2020 00:19:21	120220	12022020	001921	115.14	13.905535	-56.949752	115.27	0.180	-1.080	2.550	115.11	-2.70	3.30	 	 	 	 	 	 	 	 	 	 	 	 	 	 	 	 	 	 	1581466761	6.21	11.50
12/02/2020 00:19:22	120220	12022020	001922	115.05	13.905517	-56.949730	115.21	0.390	-1.290	3.050	115.06	-2.50	3.60	 	 	 	 	 	 	 	 	 	 	 	 	 	 	 	 	 	 	1581466762	5.89	10.91
12/02/2020 00:19:23	120220	12022020	001923	115.09	13.905502	-56.949713	115.24	0.470	-0.660	3.240	115.08	-1.70	3.70	 	 	 	 	 	 	 	 	 	 	 	 	 	 	 	 	 	 	1581466763	4.97	9.20
12/02/2020 00:19:24	120220	12022020	001924	114.99	13.905488	-56.949695	115.11	0.350	0.070	3.210	114.94	-1.10	3.70	 	 	 	 	 	 	 	 	 	 	 	 	 	 	 	 	 	 	1581466764	4.51	8.35
12/02/2020 00:19:25	120220	12022020	001925	114.73	13.905478	-56.949675	114.86	0.010	0.430	3.130	114.69	-0.90	3.50	 	 	 	 	 	 	 	 	 	 	 	 	 	 	 	 	 	 	1581466765	4.79	8.87
12/02/2020 00:19:26	120220	12022020	001926	114.64	13.905465	-56.949655	114.81	-0.510	0.590	2.910	114.67	-0.80	3.20	 	 	 	 	 	 	 	 	 	 	 	 	 	 	 	 	 	 	1581466766	4.94	9.15
12/02/2020 00:19:27	120220	12022020	001927	114.82	13.905453	-56.949637	115.01	-0.950	0.680	2.580	114.87	-0.80	2.90	 	 	 	 	 	 	 	 	 	 	 	 	 	 	 	 	 	 	1581466767	4.78	8.85
12/02/2020 00:19:28	120220	12022020	001928	115.02	13.905440	-56.949618	115.18	-0.950	0.410	2.370	115.05	-1.20	2.80	 	 	 	 	 	 	 	 	 	 	 	 	 	 	 	 	 	 	1581466768	4.89	9.06
12/02/2020 00:19:29	120220	12022020	001929	115.21	13.905425	-56.949597	115.38	-0.480	-0.320	2.280	115.25	-2.10	2.80	 	 	 	 	 	 	 	 	 	 	 	 	 	 	 	 	 	 	1581466769	5.39	9.98
12/02/2020 00:19:30	120220	12022020	001930	115.29	13.905408	-56.949575	115.42	0.300	-1.270	2.420	115.26	-3.00	3.00	 	 	 	 	 	 	 	 	 	 	 	 	 	 	 	 	 	 	1581466770	5.88	10.89
12/02/2020 00:19:31	120220	12022020	001931	114.98	13.905392	-56.949552	115.07	1.170	-2.010	2.790	114.90	-3.40	3.30	 	 	 	 	 	 	 	 	 	 	 	 	 	 	 	 	 	 	1581466771	6.18	11.45
12/02/2020 00:19:32	120220	12022020	001932	114.59	13.905378	-56.949527	114.72	1.690	-1.690	2.870	114.56	-2.50	3.30	 	 	 	 	 	 	 	 	 	 	 	 	 	 	 	 	 	 	1581466772	5.69	10.54
12/02/2020 00:19:33	120220	12022020	001933	114.54	13.905372	-56.949508	114.72	1.290	-0.020	2.740	114.57	-0.60	3.20	 	 	 	 	 	 	 	 	 	 	 	 	 	 	 	 	 	 	1581466773	4.26	7.89
12/02/2020 00:19:34	120220	12022020	001934	114.76	13.905363	-56.949495	114.94	0.100	1.760	2.620	114.82	0.80	3.00	 	 	 	 	 	 	 	 	 	 	 	 	 	 	 	 	 	 	1581466774	3.37	6.24
12/02/2020 00:19:35	120220	12022020	001935	115.04	13.905353	-56.949478	115.26	-1.120	2.260	2.510	115.12	0.60	2.90	 	 	 	 	 	 	 	 	 	 	 	 	 	 	 	 	 	 	1581466775	4.13	7.65
12/02/2020 00:19:36	120220	12022020	001936	115.40	13.905337	-56.949458	115.62	-1.740	1.400	2.510	115.47	-0.60	3.00	 	 	 	 	 	 	 	 	 	 	 	 	 	 	 	 	 	 	1581466776	5.34	9.89
12/02/2020 00:19:37	120220	12022020	001937	115.70	13.905317	-56.949438	115.90	-1.430	-0.180	2.770	115.73	-2.30	3.40	 	 	 	 	 	 	 	 	 	 	 	 	 	 	 	 	 	 	1581466777	6.10	11.30
12/02/2020 00:19:38	120220	12022020	001938	115.63	13.905297	-56.949415	115.77	-0.360	-1.880	3.340	115.54	-3.80	4.00	 	 	 	 	 	 	 	 	 	 	 	 	 	 	 	 	 	 	1581466778	6.52	12.08
12/02/2020 00:19:39	120220	12022020	001939	115.09	13.905278	-56.949390	115.18	0.790	-2.880	3.910	114.96	-4.30	4.60	 	 	 	 	 	 	 	 	 	 	 	 	 	 	 	 	 	 	1581466779	6.46	11.96
12/02/2020 00:19:40	120220	12022020	001940	114.51	13.905263	-56.949368	114.66	1.280	-2.480	4.320	114.44	-3.30	4.90	 	 	 	 	 	 	 	 	 	 	 	 	 	 	 	 	 	 	1581466780	5.70	10.56
12/02/2020 00:19:41	120220	12022020	001941	114.36	13.905250	-56.949352	114.58	0.900	-0.740	4.390	114.39	-1.20	4.70	 	 	 	 	 	 	 	 	 	 	 	 	 	 	 	 	 	 	1581466781	4.50	8.33
12/02/2020 00:19:42	120220	12022020	001942	114.71	13.905240	-56.949338	114.98	0.050	1.460	3.800	114.84	0.80	3.80	 	 	 	 	 	 	 	 	 	 	 	 	 	 	 	 	 	 	1581466782	3.51	6.50
12/02/2020 00:19:43	120220	12022020	001943	115.37	13.905233	-56.949323	115.61	-0.610	2.840	2.560	115.50	1.50	2.50	 	 	 	 	 	 	 	 	 	 	 	 	 	 	 	 	 	 	1581466783	3.47	6.43
12/02/2020 00:19:44	120220	12022020	001944	115.94	13.905227	-56.949302	116.13	-0.660	2.330	1.380	116.01	0.10	1.60	 	 	 	 	 	 	 	 	 	 	 	 	 	 	 	 	 	 	1581466784	4.83	8.95
12/02/2020 00:19:45	120220	12022020	001945	116.03	13.905215	-56.949273	116.13	-0.180	0.180	1.000	115.97	-2.20	1.60	 	 	 	 	 	 	 	 	 	 	 	 	 	 	 	 	 	 	1581466785	6.49	12.02
12/02/2020 00:19:46	120220	12022020	001946	115.55	13.905197	-56.949245	115.63	0.260	-1.910	1.500	115.42	-3.70	2.30	 	 	 	 	 	 	 	 	 	 	 	 	 	 	 	 	 	 	1581466786	7.03	13.02
12/02/2020 00:19:47	120220	12022020	001947	114.98	13.905178	-56.949223	115.10	0.220	-2.380	2.370	114.90	-3.40	3.10	 	 	 	 	 	 	 	 	 	 	 	 	 	 	 	 	 	 	1581466787	5.97	11.06
12/02/2020 00:19:48	120220	12022020	001948	114.84	13.905163	-56.949210	115.04	-0.090	-1.240	2.920	114.88	-2.00	3.40	 	 	 	 	 	 	 	 	 	 	 	 	 	 	 	 	 	 	1581466788	4.43	8.20
12/02/2020 00:19:49	120220	12022020	001949	115.15	13.905150	-56.949198	115.37	-0.260	0.150	2.940	115.23	-1.00	3.30	 	 	 	 	 	 	 	 	 	 	 	 	 	 	 	 	 	 	1581466789	3.77	6.98
12/02/2020 00:19:50	120220	12022020	001950	115.41	13.905137	-56.949180	115.56	0.060	0.450	2.780	115.41	-1.20	3.20	 	 	 	 	 	 	 	 	 	 	 	 	 	 	 	 	 	 	1581466790	4.59	8.50
12/02/2020 00:19:51	120220	12022020	001951	115.30	13.905122	-56.949157	115.42	0.600	-0.220	2.750	115.24	-1.90	3.20	 	 	 	 	 	 	 	 	 	 	 	 	 	 	 	 	 	 	1581466791	5.93	10.98
12/02/2020 00:19:52	120220	12022020	001952	115.01	13.905108	-56.949132	115.13	0.750	-0.640	2.760	114.96	-2.00	3.30	 	 	 	 	 	 	 	 	 	 	 	 	 	 	 	 	 	 	1581466792	6.08	11.26
12/02/2020 00:19:53	120220	12022020	001953	114.84	13.905095	-56.949110	115.00	0.240	-0.260	2.850	114.84	-1.40	3.40	 	 	 	 	 	 	 	 	 	 	 	 	 	 	 	 	 	 	1581466793	5.21	9.65
12/02/2020 00:19:54	120220	12022020	001954	114.87	13.905080	-56.949093	115.05	-0.570	0.430	3.090	114.88	-0.80	3.60	 	 	 	 	 	 	 	 	 	 	 	 	 	 	 	 	 	 	1581466794	4.72	8.74
12/02/2020 00:19:55	120220	12022020	001955	114.95	13.905065	-56.949077	115.13	-0.970	0.680	3.210	114.96	-0.80	3.60	 	 	 	 	 	 	 	 	 	 	 	 	 	 	 	 	 	 	1581466795	4.93	9.13
12/02/2020 00:19:56	120220	12022020	001956	114.99	13.905052	-56.949057	115.16	-0.630	0.340	2.800	115.01	-1.20	3.00	 	 	 	 	 	 	 	 	 	 	 	 	 	 	 	 	 	 	1581466796	5.34	9.89
12/02/2020 00:19:57	120220	12022020	001957	115.15	13.905040	-56.949033	115.32	-0.100	-0.050	2.190	115.20	-1.60	2.50	 	 	 	 	 	 	 	 	 	 	 	 	 	 	 	 	 	 	1581466797	5.43	10.06
12/02/2020 00:19:58	120220	12022020	001958	115.42	13.905028	-56.949012	115.60	0.130	-0.300	2.030	115.47	-1.80	2.60	 	 	 	 	 	 	 	 	 	 	 	 	 	 	 	 	 	 	1581466798	5.15	9.54
12/02/2020 00:19:59	120220	12022020	001959	115.54	13.905013	-56.948992	115.69	0.100	-0.690	2.380	115.52	-2.30	3.00	 	 	 	 	 	 	 	 	 	 	 	 	 	 	 	 	 	 	1581466799	5.35	9.91
12/02/2020 00:20:00	120220	12022020	002000	115.30	13.904993	-56.948970	115.41	0.180	-1.300	2.900	115.20	-2.90	3.50	 	 	 	 	 	 	 	 	 	 	 	 	 	 	 	 	 	 	1581466800	5.97	11.06
12/02/2020 00:20:01	120220	12022020	002001	114.69	13.904975	-56.948948	114.77	0.580	-1.580	3.270	114.54	-2.80	3.80	 	 	 	 	 	 	 	 	 	 	 	 	 	 	 	 	 	 	1581466801	6.20	11.48
12/02/2020 00:20:02	120220	12022020	002002	113.98	13.904962	-56.948927	114.08	1.060	-0.800	3.170	113.87	-1.60	3.40	1016.90	26.20	26.20	20.50	20.60	-1.0	71.0	71.0	392.0	25.8	317.00	16.30	65.00	14.50	16	9732.0	27.1	27.1	1581466802	5.34	9.89
12/02/2020 00:20:03	120220	12022020	002003	113.69	13.904955	-56.948908	113.88	1.000	0.750	2.630	113.70	-0.10	2.80	 	 	 	 	 	 	 	 	 	 	 	 	 	 	 	 	 	 	1581466803	4.22	7.82
12/02/2020 00:20:04	120220	12022020	002004	114.00	13.904952	-56.948890	114.25	0.090	1.900	1.850	114.13	0.60	2.00	 	 	 	 	 	 	 	 	 	 	 	 	 	 	 	 	 	 	1581466804	3.95	7.32
12/02/2020 00:20:05	120220	12022020	002005	114.71	13.904943	-56.948870	114.96	-1.200	1.770	1.280	114.86	-0.10	1.80	 	 	 	 	 	 	 	 	 	 	 	 	 	 	 	 	 	 	1581466805	4.51	8.35
12/02/2020 00:20:06	120220	12022020	002006	115.27	13.904925	-56.948850	115.49	-1.950	0.470	1.570	115.33	-1.60	2.40	 	 	 	 	 	 	 	 	 	 	 	 	 	 	 	 	 	 	1581466806	5.81	10.76
12/02/2020 00:20:07	120220	12022020	002007	115.36	13.904900	-56.948830	115.52	-1.450	-1.200	2.410	115.32	-3.20	3.20	 	 	 	 	 	 	 	 	 	 	 	 	 	 	 	 	 	 	1581466807	6.89	12.76
12/02/2020 00:20:08	120220	12022020	002008	114.95	13.904875	-56.948808	115.07	0.080	-2.460	3.200	114.81	-4.10	3.90	 	 	 	 	 	 	 	 	 	 	 	 	 	 	 	 	 	 	1581466808	6.84	12.67
12/02/2020 00:20:09	120220	12022020	002009	114.14	13.904858	-56.948785	114.24	1.590	-2.670	3.590	113.99	-3.80	4.00	 	 	 	 	 	 	 	 	 	 	 	 	 	 	 	 	 	 	1581466809	6.00	11.11
12/02/2020 00:20:10	120220	12022020	002010	113.49	13.904848	-56.948763	113.64	2.040	-1.670	3.360	113.42	-2.40	3.50	 	 	 	 	 	 	 	 	 	 	 	 	 	 	 	 	 	 	1581466810	5.11	9.46
12/02/2020 00:20:11	120220	12022020	002011	113.47	13.904845	-56.948743	113.70	1.220	0.120	2.550	113.54	-0.40	2.70	 	 	 	 	 	 	 	 	 	 	 	 	 	 	 	 	 	 	1581466811	4.40	8.15
12/02/2020 00:20:12	120220	12022020	002012	114.00	13.904838	-56.948727	114.25	-0.320	2.020	1.790	114.14	1.20	2.10	 	 	 	 	 	 	 	 	 	 	 	 	 	 	 	 	 	 	1581466812	3.74	6.93
12/02/2020 00:20:13	120220	12022020	002013	114.65	13.904828	-56.948710	114.87	-1.700	2.980	1.480	114.77	1.50	1.90	 	 	 	 	 	 	 	 	 	 	 	 	 	 	 	 	 	 	1581466813	3.87	7.17
12/02/2020 00:20:14	120220	12022020	002014	115.12	13.904813	-56.948693	115.31	-2.220	2.390	1.600	115.18	0.30	2.20	 	 	 	 	 	 	 	 	 	 	 	 	 	 	 	 	 	 	1581466814	4.97	9.20
12/02/2020 00:20:15	120220	12022020	002015	115.33	13.904793	-56.948672	115.50	-1.560	0.390	1.950	115.34	-2.10	2.60	 	 	 	 	 	 	 	 	 	 	 	 	 	 	 	 	 	 	1581466815	6.28	11.63
12/02/2020 00:20:16	120220	12022020	002016	115.19	13.904772	-56.948645	115.31	-0.030	-2.190	2.530	115.09	-4.40	3.30	 	 	 	 	 	 	 	 	 	 	 	 	 	 	 	 	 	 	1581466816	7.22	13.37
12/02/2020 00:20:17	120220	12022020	002017	114.54	13.904750	-56.948618	114.62	1.510	-3.770	3.370	114.38	-5.10	4.10	 	 	 	 	 	 	 	 	 	 	 	 	 	 	 	 	 	 	1581466817	7.16	13.26
12/02/2020 00:20:18	120220	12022020	002018	113.99	13.904737	-56.948597	114.04	2.110	-3.020	3.700	113.90	-4.80	4.20	 	 	 	 	 	 	 	 	 	 	 	 	 	 	 	 	 	 	1581466818	5.48	10.15
12/02/2020 00:20:19	120220	12022020	002019	113.82	13.904732	-56.948582	114.03	1.480	-0.330	3.270	113.87	-0.50	3.40	 	 	 	 	 	 	 	 	 	 	 	 	 	 	 	 	 	 	1581466819	3.30	6.11
12/02/2020 00:20:20	120220	12022020	002020	114.20	13.904730	-56.948570	114.43	0.090	2.300	2.620	114.29	1.50	2.80	 	 	 	 	 	 	 	 	 	 	 	 	 	 	 	 	 	 	1581466820	2.50	4.63
12/02/2020 00:20:21	120220	12022020	002021	114.63	13.904722	-56.948555	114.82	-1.160	3.020	2.040	114.69	1.20	2.30	 	 	 	 	 	 	 	 	 	 	 	 	 	 	 	 	 	 	1581466821	3.63	6.72
12/02/2020 00:20:22	120220	12022020	002022	114.83	13.904707	-56.948532	114.96	-1.450	1.480	1.620	114.84	-0.90	2.00	 	 	 	 	 	 	 	 	 	 	 	 	 	 	 	 	 	 	1581466822	5.86	10.85
12/02/2020 00:20:23	120220	12022020	002023	114.74	13.904688	-56.948503	114.86	-0.680	-0.920	1.620	114.71	-3.10	2.20	 	 	 	 	 	 	 	 	 	 	 	 	 	 	 	 	 	 	1581466823	7.24	13.41
12/02/2020 00:20:24	120220	12022020	002024	114.57	13.904670	-56.948477	114.70	0.440	-2.330	1.890	114.53	-3.80	2.50	 	 	 	 	 	 	 	 	 	 	 	 	 	 	 	 	 	 	1581466824	6.83	12.65
12/02/2020 00:20:25	120220	12022020	002025	114.43	13.904655	-56.948457	114.57	1.000	-2.010	2.160	114.40	-2.90	2.70	 	 	 	 	 	 	 	 	 	 	 	 	 	 	 	 	 	 	1581466825	5.22	9.67
12/02/2020 00:20:26	120220	12022020	002026	114.29	13.904647	-56.948440	114.43	0.680	-0.610	2.210	114.25	-1.40	2.60	 	 	 	 	 	 	 	 	 	 	 	 	 	 	 	 	 	 	1581466826	3.90	7.22
12/02/2020 00:20:27	120220	12022020	002027	114.10	13.904638	-56.948425	114.23	-0.140	0.780	2.160	114.06	-0.20	2.70	 	 	 	 	 	 	 	 	 	 	 	 	 	 	 	 	 	 	1581466827	3.65	6.76
12/02/2020 00:20:28	120220	12022020	002028	113.95	13.904627	-56.948408	114.11	-0.910	1.450	2.410	113.94	0.00	3.00	 	 	 	 	 	 	 	 	 	 	 	 	 	 	 	 	 	 	1581466828	4.21	7.80
12/02/2020 00:20:29	120220	12022020	002029	113.98	13.904612	-56.948390	114.17	-1.150	1.120	2.680	114.02	-0.70	3.10	 	 	 	 	 	 	 	 	 	 	 	 	 	 	 	 	 	 	1581466829	5.13	9.50
12/02/2020 00:20:30	120220	12022020	002030	114.17	13.904593	-56.948368	114.37	-0.690	-0.020	2.610	114.21	-2.00	3.00	 	 	 	 	 	 	 	 	 	 	 	 	 	 	 	 	 	 	1581466830	5.89	10.91
12/02/2020 00:20:31	120220	12022020	002031	114.36	13.904577	-56.948343	114.54	0.240	-1.290	2.530	114.37	-3.10	3.00	 	 	 	 	 	 	 	 	 	 	 	 	 	 	 	 	 	 	1581466831	6.28	11.63
12/02/2020 00:20:32	120220	12022020	002032	114.30	13.904562	-56.948320	114.45	1.160	-1.950	2.680	114.24	-3.30	3.20	 	 	 	 	 	 	 	 	 	 	 	 	 	 	 	 	 	 	1581466832	6.03	11.17
12/02/2020 00:20:33	120220	12022020	002033	113.95	13.904550	-56.948298	114.09	1.540	-1.430	2.850	113.89	-2.20	3.30	 	 	 	 	 	 	 	 	 	 	 	 	 	 	 	 	 	 	1581466833	5.18	9.59
12/02/2020 00:20:34	120220	12022020	002034	113.71	13.904543	-56.948282	113.89	1.100	0.160	2.660	113.69	-0.50	2.90	 	 	 	 	 	 	 	 	 	 	 	 	 	 	 	 	 	 	1581466834	3.90	7.22
12/02/2020 00:20:35	120220	12022020	002035	113.75	13.904538	-56.948265	113.93	0.150	1.670	2.190	113.77	0.50	2.50	 	 	 	 	 	 	 	 	 	 	 	 	 	 	 	 	 	 	1581466835	3.33	6.17
12/02/2020 00:20:36	120220	12022020	002036	113.89	13.904532	-56.948247	114.07	-0.680	1.800	1.820	113.92	-0.00	2.20	 	 	 	 	 	 	 	 	 	 	 	 	 	 	 	 	 	 	1581466836	4.20	7.78
12/02/2020 00:20:37	120220	12022020	002037	114.03	13.904520	-56.948223	114.21	-0.980	0.540	1.770	114.05	-1.50	2.30	 	 	 	 	 	 	 	 	 	 	 	 	 	 	 	 	 	 	1581466837	5.64	10.45
12/02/2020 00:20:38	120220	12022020	002038	114.12	13.904502	-56.948200	114.31	-0.770	-1.080	2.050	114.14	-3.00	2.70	 	 	 	 	 	 	 	 	 	 	 	 	 	 	 	 	 	 	1581466838	6.46	11.96
12/02/2020 00:20:39	120220	12022020	002039	114.18	13.904482	-56.948177	114.36	-0.240	-2.030	2.440	114.17	-3.50	3.10	 	 	 	 	 	 	 	 	 	 	 	 	 	 	 	 	 	 	1581466839	6.24	11.56
12/02/2020 00:20:40	120220	12022020	002040	114.01	13.904467	-56.948158	114.22	0.320	-1.850	2.850	114.01	-2.90	3.50	 	 	 	 	 	 	 	 	 	 	 	 	 	 	 	 	 	 	1581466840	5.36	9.93
12/02/2020 00:20:41	120220	12022020	002041	113.66	13.904453	-56.948140	113.88	0.660	-0.810	3.120	113.66	-1.70	3.50	 	 	 	 	 	 	 	 	 	 	 	 	 	 	 	 	 	 	1581466841	4.55	8.43
12/02/2020 00:20:42	120220	12022020	002042	113.47	13.904443	-56.948123	113.65	0.540	0.520	2.840	113.46	-0.40	3.00	 	 	 	 	 	 	 	 	 	 	 	 	 	 	 	 	 	 	1581466842	4.05	7.50
12/02/2020 00:20:43	120220	12022020	002043	113.58	13.904438	-56.948105	113.79	0.020	1.440	2.090	113.65	0.20	2.20	 	 	 	 	 	 	 	 	 	 	 	 	 	 	 	 	 	 	1581466843	4.09	7.57
12/02/2020 00:20:44	120220	12022020	002044	114.02	13.904430	-56.948085	114.24	-0.530	1.450	1.380	114.13	-0.20	1.60	 	 	 	 	 	 	 	 	 	 	 	 	 	 	 	 	 	 	1581466844	4.57	8.46
12/02/2020 00:20:45	120220	12022020	002045	114.56	13.904420	-56.948062	114.74	-0.670	0.540	1.020	114.64	-1.50	1.50	 	 	 	 	 	 	 	 	 	 	 	 	 	 	 	 	 	 	1581466845	5.29	9.80
12/02/2020 00:20:46	120220	12022020	002046	114.76	13.904403	-56.948038	114.90	-0.130	-1.050	1.170	114.76	-3.10	1.90	 	 	 	 	 	 	 	 	 	 	 	 	 	 	 	 	 	 	1581466846	6.17	11.43
12/02/2020 00:20:47	120220	12022020	002047	114.42	13.904385	-56.948012	114.50	0.770	-2.390	1.960	114.32	-3.90	2.80	 	 	 	 	 	 	 	 	 	 	 	 	 	 	 	 	 	 	1581466847	6.70	12.41
12/02/2020 00:20:48	120220	12022020	002048	113.78	13.904370	-56.947990	113.98	1.200	-2.020	2.770	113.78	-2.70	3.40	 	 	 	 	 	 	 	 	 	 	 	 	 	 	 	 	 	 	1581466848	5.70	10.56
12/02/2020 00:20:49	120220	12022020	002049	113.68	13.904360	-56.947977	113.89	0.670	0.080	2.980	113.72	-0.40	3.30	 	 	 	 	 	 	 	 	 	 	 	 	 	 	 	 	 	 	1581466849	3.62	6.70
12/02/2020 00:20:50	120220	12022020	002050	114.17	13.904353	-56.947965	114.44	-0.430	2.130	2.630	114.34	1.10	2.90	 	 	 	 	 	 	 	 	 	 	 	 	 	 	 	 	 	 	1581466850	2.64	4.89
12/02/2020 00:20:51	120220	12022020	002051	115.15	13.904343	-56.947950	115.26	-1.200	2.320	2.300	115.15	0.30	2.70	 	 	 	 	 	 	 	 	 	 	 	 	 	 	 	 	 	 	1581466851	3.82	7.07
12/02/2020 00:20:52	120220	12022020	002052	115.52	13.904328	-56.947927	115.69	-0.990	0.420	2.200	115.52	-2.00	2.80	 	 	 	 	 	 	 	 	 	 	 	 	 	 	 	 	 	 	1581466852	6.02	11.15
12/02/2020 00:20:53	120220	12022020	002053	115.21	13.904308	-56.947898	115.30	0.000	-2.000	2.690	115.07	-4.00	3.50	 	 	 	 	 	 	 	 	 	 	 	 	 	 	 	 	 	 	1581466853	7.36	13.63
12/02/2020 00:20:54	120220	12022020	002054	114.45	13.904288	-56.947873	114.54	0.940	-2.960	3.670	114.31	-4.10	4.40	 	 	 	 	 	 	 	 	 	 	 	 	 	 	 	 	 	 	1581466854	6.86	12.70
12/02/2020 00:20:55	120220	12022020	002055	114.07	13.904273	-56.947855	114.26	1.090	-1.740	4.180	114.09	-2.20	4.60	 	 	 	 	 	 	 	 	 	 	 	 	 	 	 	 	 	 	1581466855	4.87	9.02
12/02/2020 00:20:56	120220	12022020	002056	114.42	13.904265	-56.947843	114.67	0.450	0.540	3.780	114.54	-0.00	3.90	 	 	 	 	 	 	 	 	 	 	 	 	 	 	 	 	 	 	1581466856	3.04	5.63
12/02/2020 00:20:57	120220	12022020	002057	115.15	13.904258	-56.947830	115.25	-0.440	2.130	2.780	115.15	0.90	2.80	 	 	 	 	 	 	 	 	 	 	 	 	 	 	 	 	 	 	1581466857	3.00	5.56
12/02/2020 00:20:58	120220	12022020	002058	115.58	13.904252	-56.947812	115.75	-0.980	2.180	1.700	115.66	0.30	1.80	 	 	 	 	 	 	 	 	 	 	 	 	 	 	 	 	 	 	1581466858	4.16	7.70
12/02/2020 00:20:59	120220	12022020	002059	115.91	13.904240	-56.947788	116.01	-0.730	0.750	1.020	115.91	-1.50	1.40	 	 	 	 	 	 	 	 	 	 	 	 	 	 	 	 	 	 	1581466859	5.52	10.22
12/02/2020 00:21:00	120220	12022020	002100	115.74	13.904223	-56.947762	115.80	0.170	-1.380	1.110	115.64	-3.50	1.80	 	 	 	 	 	 	 	 	 	 	 	 	 	 	 	 	 	 	1581466860	6.62	12.26
12/02/2020 00:21:01	120220	12022020	002101	115.25	13.904207	-56.947735	115.33	0.970	-2.690	1.750	115.16	-4.00	2.50	 	 	 	 	 	 	 	 	 	 	 	 	 	 	 	 	 	 	1581466861	6.62	12.26
12/02/2020 00:21:02	120220	12022020	002102	114.98	13.904193	-56.947717	115.12	0.960	-2.050	2.310	114.98	-2.70	2.90	1017.00	26.20	26.30	20.50	20.60	-1.0	70.0	71.0	391.0	25.9	319.00	16.10	66.00	14.20	16	9305.0	27.1	27.1	1581466862	4.95	9.17
12/02/2020 00:21:03	120220	12022020	002103	115.19	13.904185	-56.947705	115.32	0.150	-0.040	2.550	115.19	-0.70	3.10	 	 	 	 	 	 	 	 	 	 	 	 	 	 	 	 	 	 	1581466863	3.20	5.93
12/02/2020 00:21:04	120220	12022020	002104	115.43	13.904173	-56.947693	115.62	-0.720	1.440	2.800	115.47	0.20	3.40	 	 	 	 	 	 	 	 	 	 	 	 	 	 	 	 	 	 	1581466864	3.29	6.09
12/02/2020 00:21:05	120220	12022020	002105	115.53	13.904155	-56.947678	115.69	-0.960	1.280	3.200	115.53	-0.50	3.80	 	 	 	 	 	 	 	 	 	 	 	 	 	 	 	 	 	 	1581466865	5.12	9.48
12/02/2020 00:21:06	120220	12022020	002106	115.43	13.904133	-56.947657	115.59	-0.550	0.130	3.540	115.41	-1.70	4.00	 	 	 	 	 	 	 	 	 	 	 	 	 	 	 	 	 	 	1581466866	6.48	12.00
12/02/2020 00:21:07	120220	12022020	002107	115.37	13.904115	-56.947635	115.56	0.060	-0.620	3.320	115.38	-2.00	3.50	 	 	 	 	 	 	 	 	 	 	 	 	 	 	 	 	 	 	1581466867	6.10	11.30
12/02/2020 00:21:08	120220	12022020	002108	115.48	13.904107	-56.947615	115.64	0.370	-0.280	2.550	115.48	-1.30	2.70	 	 	 	 	 	 	 	 	 	 	 	 	 	 	 	 	 	 	1581466868	4.55	8.43
12/02/2020 00:21:09	120220	12022020	002109	115.52	13.904102	-56.947598	115.65	0.240	0.430	1.790	115.50	-0.80	2.10	 	 	 	 	 	 	 	 	 	 	 	 	 	 	 	 	 	 	1581466869	3.65	6.76
12/02/2020 00:21:10	120220	12022020	002110	115.38	13.904095	-56.947580	115.52	-0.040	0.420	1.370	115.38	-0.90	1.90	 	 	 	 	 	 	 	 	 	 	 	 	 	 	 	 	 	 	1581466870	4.04	7.48
12/02/2020 00:21:11	120220	12022020	002111	115.27	13.904082	-56.947560	115.40	-0.080	-0.450	1.360	115.24	-2.30	2.00	 	 	 	 	 	 	 	 	 	 	 	 	 	 	 	 	 	 	1581466871	5.10	9.45
12/02/2020 00:21:12	120220	12022020	002112	115.09	13.904065	-56.947537	115.22	0.250	-1.490	1.840	115.04	-3.10	2.60	 	 	 	 	 	 	 	 	 	 	 	 	 	 	 	 	 	 	1581466872	5.91	10.95
12/02/2020 00:21:13	120220	12022020	002113	114.64	13.904047	-56.947517	114.86	0.650	-1.780	2.590	114.64	-2.90	3.30	 	 	 	 	 	 	 	 	 	 	 	 	 	 	 	 	 	 	1581466873	5.84	10.82
12/02/2020 00:21:14	120220	12022020	002114	114.24	13.904032	-56.947500	114.45	0.610	-0.900	3.170	114.24	-1.70	3.70	 	 	 	 	 	 	 	 	 	 	 	 	 	 	 	 	 	 	1581466874	4.84	8.96
12/02/2020 00:21:15	120220	12022020	002115	114.11	13.904020	-56.947487	114.31	0.040	0.630	3.300	114.12	-0.20	3.70	 	 	 	 	 	 	 	 	 	 	 	 	 	 	 	 	 	 	1581466875	3.73	6.91
12/02/2020 00:21:16	120220	12022020	002116	114.22	13.904010	-56.947472	114.42	-0.600	1.590	3.120	114.25	0.20	3.50	 	 	 	 	 	 	 	 	 	 	 	 	 	 	 	 	 	 	1581466876	3.64	6.74
12/02/2020 00:21:17	120220	12022020	002117	114.37	13.903998	-56.947453	114.55	-0.770	1.240	2.970	114.40	-0.60	3.40	 	 	 	 	 	 	 	 	 	 	 	 	 	 	 	 	 	 	1581466877	4.69	8.69
12/02/2020 00:21:18	120220	12022020	002118	114.49	13.903983	-56.947430	114.66	-0.440	-0.090	2.770	114.51	-2.00	3.20	 	 	 	 	 	 	 	 	 	 	 	 	 	 	 	 	 	 	1581466878	5.84	10.82
12/02/2020 00:21:19	120220	12022020	002119	114.51	13.903970	-56.947405	114.70	-0.010	-1.220	2.630	114.51	-2.80	3.10	 	 	 	 	 	 	 	 	 	 	 	 	 	 	 	 	 	 	1581466879	6.02	11.15
12/02/2020 00:21:20	120220	12022020	002120	114.47	13.903955	-56.947387	114.64	0.100	-1.200	2.730	114.46	-2.70	3.20	 	 	 	 	 	 	 	 	 	 	 	 	 	 	 	 	 	 	1581466880	5.09	9.43
12/02/2020 00:21:21	120220	12022020	002121	114.45	13.903943	-56.947372	114.65	-0.080	-0.220	2.800	114.45	-1.20	3.20	 	 	 	 	 	 	 	 	 	 	 	 	 	 	 	 	 	 	1581466881	3.87	7.17
12/02/2020 00:21:22	120220	12022020	002122	114.49	13.903933	-56.947358	114.69	-0.180	0.590	2.640	114.50	-0.80	3.00	 	 	 	 	 	 	 	 	 	 	 	 	 	 	 	 	 	 	1581466882	3.51	6.50
12/02/2020 00:21:23	120220	12022020	002123	114.49	13.903923	-56.947340	114.66	0.190	0.150	2.370	114.48	-1.70	2.80	 	 	 	 	 	 	 	 	 	 	 	 	 	 	 	 	 	 	1581466883	4.65	8.61
12/02/2020 00:21:24	120220	12022020	002124	114.29	13.903910	-56.947313	114.50	0.810	-1.100	2.300	114.29	-2.80	2.90	 	 	 	 	 	 	 	 	 	 	 	 	 	 	 	 	 	 	1581466884	6.12	11.33
12/02/2020 00:21:25	120220	12022020	002125	114.15	13.903897	-56.947290	114.34	0.950	-1.460	2.480	114.14	-2.50	3.00	 	 	 	 	 	 	 	 	 	 	 	 	 	 	 	 	 	 	1581466885	5.91	10.95
12/02/2020 00:21:26	120220	12022020	002126	114.28	13.903885	-56.947273	114.45	0.280	-0.200	2.630	114.28	-0.80	3.10	 	 	 	 	 	 	 	 	 	 	 	 	 	 	 	 	 	 	1581466886	4.09	7.57
12/02/2020 00:21:27	120220	12022020	002127	114.59	13.903877	-56.947263	114.84	-0.760	1.590	2.690	114.68	0.60	3.20	 	 	 	 	 	 	 	 	 	 	 	 	 	 	 	 	 	 	1581466887	2.76	5.11
12/02/2020 00:21:28	120220	12022020	002128	115.05	13.903867	-56.947252	115.29	-1.330	2.030	2.580	115.14	0.20	2.90	 	 	 	 	 	 	 	 	 	 	 	 	 	 	 	 	 	 	1581466888	3.38	6.26
12/02/2020 00:21:29	120220	12022020	002129	115.44	13.903852	-56.947232	115.66	-1.020	0.570	2.250	115.49	-1.70	2.70	 	 	 	 	 	 	 	 	 	 	 	 	 	 	 	 	 	 	1581466889	5.25	9.72
12/02/2020 00:21:30	120220	12022020	002130	115.48	13.903833	-56.947207	115.66	-0.160	-1.500	2.290	115.48	-3.50	2.90	 	 	 	 	 	 	 	 	 	 	 	 	 	 	 	 	 	 	1581466890	6.52	12.08
12/02/2020 00:21:31	120220	12022020	002131	115.22	13.903817	-56.947183	115.34	0.560	-2.470	2.690	115.13	-3.70	3.30	 	 	 	 	 	 	 	 	 	 	 	 	 	 	 	 	 	 	1581466891	6.09	11.28
12/02/2020 00:21:32	120220	12022020	002132	114.67	13.903803	-56.947167	114.87	0.770	-1.820	2.830	114.67	-2.60	3.20	 	 	 	 	 	 	 	 	 	 	 	 	 	 	 	 	 	 	1581466892	4.59	8.50
12/02/2020 00:21:33	120220	12022020	002133	114.40	13.903797	-56.947152	114.55	0.580	-0.290	2.380	114.37	-1.00	2.50	 	 	 	 	 	 	 	 	 	 	 	 	 	 	 	 	 	 	1581466893	3.52	6.52
12/02/2020 00:21:34	120220	12022020	002134	114.37	13.903792	-56.947135	114.53	0.220	1.020	1.550	114.39	-0.10	1.70	 	 	 	 	 	 	 	 	 	 	 	 	 	 	 	 	 	 	1581466894	3.53	6.54
12/02/2020 00:21:35	120220	12022020	002135	114.57	13.903785	-56.947117	114.69	-0.170	1.490	0.970	114.57	0.00	1.30	 	 	 	 	 	 	 	 	 	 	 	 	 	 	 	 	 	 	1581466895	4.09	7.57
12/02/2020 00:21:36	120220	12022020	002136	114.88	13.903775	-56.947097	114.98	-0.480	1.130	0.860	114.88	-0.60	1.40	 	 	 	 	 	 	 	 	 	 	 	 	 	 	 	 	 	 	1581466896	4.73	8.76
12/02/2020 00:21:37	120220	12022020	002137	115.17	13.903762	-56.947077	115.35	-0.560	0.320	1.080	115.23	-1.50	1.70	 	 	 	 	 	 	 	 	 	 	 	 	 	 	 	 	 	 	1581466897	5.13	9.50
12/02/2020 00:21:38	120220	12022020	002138	115.31	13.903743	-56.947058	115.46	-0.340	-0.740	1.690	115.28	-2.60	2.50	 	 	 	 	 	 	 	 	 	 	 	 	 	 	 	 	 	 	1581466898	5.51	10.20
12/02/2020 00:21:39	120220	12022020	002139	115.01	13.903723	-56.947038	115.14	0.090	-1.740	2.710	114.91	-3.30	3.70	 	 	 	 	 	 	 	 	 	 	 	 	 	 	 	 	 	 	1581466899	5.96	11.04
12/02/2020 00:21:40	120220	12022020	002140	114.47	13.903703	-56.947020	114.62	0.420	-1.900	3.820	114.36	-3.00	4.60	 	 	 	 	 	 	 	 	 	 	 	 	 	 	 	 	 	 	1581466900	5.70	10.56
12/02/2020 00:21:41	120220	12022020	002141	113.94	13.903688	-56.947007	114.18	0.380	-0.810	4.320	113.94	-1.50	4.70	 	 	 	 	 	 	 	 	 	 	 	 	 	 	 	 	 	 	1581466901	4.41	8.17
12/02/2020 00:21:42	120220	12022020	002142	113.78	13.903680	-56.946993	113.99	0.050	0.690	3.940	113.78	-0.30	4.00	 	 	 	 	 	 	 	 	 	 	 	 	 	 	 	 	 	 	1581466902	3.38	6.26
12/02/2020 00:21:43	120220	12022020	002143	113.92	13.903675	-56.946975	114.14	-0.280	1.380	2.840	113.98	-0.10	2.80	 	 	 	 	 	 	 	 	 	 	 	 	 	 	 	 	 	 	1581466903	3.80	7.04
12/02/2020 00:21:44	120220	12022020	002144	114.28	13.903668	-56.946953	114.48	-0.400	0.940	1.740	114.35	-0.80	1.90	 	 	 	 	 	 	 	 	 	 	 	 	 	 	 	 	 	 	1581466904	4.83	8.95
12/02/2020 00:21:45	120220	12022020	002145	114.63	13.903657	-56.946930	114.81	-0.260	-0.090	1.170	114.69	-1.90	1.50	 	 	 	 	 	 	 	 	 	 	 	 	 	 	 	 	 	 	1581466905	5.47	10.13
12/02/2020 00:21:46	120220	12022020	002146	114.87	13.903645	-56.946907	115.02	0.060	-0.950	1.050	114.87	-2.50	1.60	 	 	 	 	 	 	 	 	 	 	 	 	 	 	 	 	 	 	1581466906	5.48	10.15
12/02/2020 00:21:47	120220	12022020	002147	114.73	13.903632	-56.946887	114.90	0.340	-1.120	1.260	114.73	-2.40	1.90	 	 	 	 	 	 	 	 	 	 	 	 	 	 	 	 	 	 	1581466907	4.96	9.19
12/02/2020 00:21:48	120220	12022020	002148	114.42	13.903620	-56.946870	114.60	0.410	-0.760	1.810	114.42	-1.90	2.60	 	 	 	 	 	 	 	 	 	 	 	 	 	 	 	 	 	 	1581466908	4.53	8.39
12/02/2020 00:21:49	120220	12022020	002149	114.22	13.903605	-56.946855	114.38	0.220	-0.220	2.520	114.18	-1.40	3.30	 	 	 	 	 	 	 	 	 	 	 	 	 	 	 	 	 	 	1581466909	4.42	8.19
12/02/2020 00:21:50	120220	12022020	002150	114.05	13.903592	-56.946838	114.24	-0.060	0.200	3.150	114.02	-1.10	3.70	 	 	 	 	 	 	 	 	 	 	 	 	 	 	 	 	 	 	1581466910	4.56	8.45
12/02/2020 00:21:51	120220	12022020	002151	113.93	13.903578	-56.946822	114.15	-0.180	0.380	3.410	113.92	-1.00	3.90	 	 	 	 	 	 	 	 	 	 	 	 	 	 	 	 	 	 	1581466911	4.67	8.65
12/02/2020 00:21:52	120220	12022020	002152	113.87	13.903565	-56.946802	114.11	-0.110	0.250	3.470	113.87	-1.30	3.90	 	 	 	 	 	 	 	 	 	 	 	 	 	 	 	 	 	 	1581466912	4.87	9.02
12/02/2020 00:21:53	120220	12022020	002153	113.92	13.903552	-56.946782	114.15	-0.020	-0.300	3.420	113.92	-1.90	3.90	 	 	 	 	 	 	 	 	 	 	 	 	 	 	 	 	 	 	1581466913	5.28	9.78
12/02/2020 00:21:54	120220	12022020	002154	113.99	13.903538	-56.946760	114.25	-0.050	-0.840	3.370	114.02	-2.30	3.80	 	 	 	 	 	 	 	 	 	 	 	 	 	 	 	 	 	 	1581466914	5.46	10.11
12/02/2020 00:21:55	120220	12022020	002155	114.18	13.903523	-56.946740	114.46	-0.200	-0.690	3.320	114.24	-1.80	3.70	 	 	 	 	 	 	 	 	 	 	 	 	 	 	 	 	 	 	1581466915	4.95	9.17
12/02/2020 00:21:56	120220	12022020	002156	114.52	13.903512	-56.946725	114.77	-0.330	0.120	3.060	114.58	-1.00	3.30	 	 	 	 	 	 	 	 	 	 	 	 	 	 	 	 	 	 	1581466916	4.10	7.59
12/02/2020 00:21:57	120220	12022020	002157	114.72	13.903502	-56.946710	114.92	-0.230	0.580	2.590	114.72	-0.90	2.90	 	 	 	 	 	 	 	 	 	 	 	 	 	 	 	 	 	 	1581466917	3.99	7.39
12/02/2020 00:21:58	120220	12022020	002158	114.62	13.903490	-56.946688	114.70	0.150	0.100	2.230	114.56	-1.10	2.80	 	 	 	 	 	 	 	 	 	 	 	 	 	 	 	 	 	 	1581466918	4.98	9.22
12/02/2020 00:21:59	120220	12022020	002159	114.20	13.903480	-56.946665	114.35	0.490	-0.490	2.090	114.14	-1.90	2.50	 	 	 	 	 	 	 	 	 	 	 	 	 	 	 	 	 	 	1581466919	5.48	10.15
12/02/2020 00:22:00	120220	12022020	002200	114.01	13.903472	-56.946643	114.20	0.420	-0.380	1.990	114.01	-1.60	2.40	 	 	 	 	 	 	 	 	 	 	 	 	 	 	 	 	 	 	1581466920	4.78	8.85
12/02/2020 00:22:01	120220	12022020	002201	114.11	13.903462	-56.946627	114.33	0.040	-0.040	1.920	114.15	-1.50	2.40	 	 	 	 	 	 	 	 	 	 	 	 	 	 	 	 	 	 	1581466921	4.21	7.80
12/02/2020 00:22:02	120220	12022020	002202	114.27	13.903448	-56.946608	114.48	-0.130	-0.290	2.180	114.29	-2.00	2.80	1016.80	26.20	26.30	20.20	20.30	-1.0	69.0	70.0	389.0	25.9	319.00	16.40	67.00	14.60	16	9815.0	27.1	27.1	1581466922	4.86	9.00
12/02/2020 00:22:03	120220	12022020	002203	114.29	13.903432	-56.946587	114.51	0.190	-0.990	2.590	114.29	-2.50	3.20	 	 	 	 	 	 	 	 	 	 	 	 	 	 	 	 	 	 	1581466923	5.85	10.83
12/02/2020 00:22:04	120220	12022020	002204	114.27	13.903415	-56.946565	114.49	0.510	-1.080	2.910	114.26	-2.20	3.50	 	 	 	 	 	 	 	 	 	 	 	 	 	 	 	 	 	 	1581466924	5.70	10.56
12/02/2020 00:22:05	120220	12022020	002205	114.26	13.903402	-56.946548	114.49	0.220	-0.100	3.140	114.26	-0.90	3.70	 	 	 	 	 	 	 	 	 	 	 	 	 	 	 	 	 	 	1581466925	4.49	8.32
12/02/2020 00:22:06	120220	12022020	002206	114.26	13.903390	-56.946535	114.49	-0.590	1.170	3.250	114.26	0.10	3.70	 	 	 	 	 	 	 	 	 	 	 	 	 	 	 	 	 	 	1581466926	3.64	6.74
12/02/2020 00:22:07	120220	12022020	002207	114.24	13.903378	-56.946522	114.45	-1.150	1.480	3.130	114.24	-0.20	3.40	 	 	 	 	 	 	 	 	 	 	 	 	 	 	 	 	 	 	1581466927	3.96	7.33
12/02/2020 00:22:08	120220	12022020	002208	114.20	13.903367	-56.946500	114.41	-0.850	0.400	2.700	114.20	-1.70	3.00	 	 	 	 	 	 	 	 	 	 	 	 	 	 	 	 	 	 	1581466928	5.24	9.70
12/02/2020 00:22:09	120220	12022020	002209	114.14	13.903353	-56.946473	114.34	0.090	-1.150	2.380	114.12	-3.00	2.80	 	 	 	 	 	 	 	 	 	 	 	 	 	 	 	 	 	 	1581466929	6.19	11.46
12/02/2020 00:22:10	120220	12022020	002210	114.04	13.903342	-56.946448	114.25	0.830	-1.840	2.310	114.04	-3.10	2.80	 	 	 	 	 	 	 	 	 	 	 	 	 	 	 	 	 	 	1581466930	5.85	10.83
12/02/2020 00:22:11	120220	12022020	002211	114.08	13.903330	-56.946430	114.30	0.790	-1.180	2.250	114.10	-2.00	2.70	 	 	 	 	 	 	 	 	 	 	 	 	 	 	 	 	 	 	1581466931	4.62	8.56
12/02/2020 00:22:12	120220	12022020	002212	114.24	13.903320	-56.946415	114.48	0.150	0.180	2.230	114.29	-0.70	2.70	 	 	 	 	 	 	 	 	 	 	 	 	 	 	 	 	 	 	1581466932	3.67	6.80
12/02/2020 00:22:13	120220	12022020	002213	114.44	13.903308	-56.946402	114.65	-0.350	1.100	2.260	114.46	-0.20	2.80	 	 	 	 	 	 	 	 	 	 	 	 	 	 	 	 	 	 	1581466933	3.69	6.83
12/02/2020 00:22:14	120220	12022020	002214	114.47	13.903297	-56.946383	114.66	-0.300	0.920	2.410	114.47	-0.90	3.00	 	 	 	 	 	 	 	 	 	 	 	 	 	 	 	 	 	 	1581466934	4.56	8.45
12/02/2020 00:22:15	120220	12022020	002215	114.42	13.903283	-56.946360	114.60	0.020	-0.170	2.610	114.41	-2.10	3.10	 	 	 	 	 	 	 	 	 	 	 	 	 	 	 	 	 	 	1581466935	5.67	10.50
12/02/2020 00:22:16	120220	12022020	002216	114.36	13.903268	-56.946337	114.55	0.210	-1.230	2.770	114.34	-2.90	3.40	 	 	 	 	 	 	 	 	 	 	 	 	 	 	 	 	 	 	1581466936	6.06	11.22
12/02/2020 00:22:17	120220	12022020	002217	114.21	13.903252	-56.946317	114.40	0.110	-1.460	3.160	114.17	-2.60	3.80	 	 	 	 	 	 	 	 	 	 	 	 	 	 	 	 	 	 	1581466937	5.63	10.43
12/02/2020 00:22:18	120220	12022020	002218	114.03	13.903237	-56.946300	114.24	-0.120	-0.680	3.510	114.00	-1.60	4.00	 	 	 	 	 	 	 	 	 	 	 	 	 	 	 	 	 	 	1581466938	4.77	8.83
12/02/2020 00:22:19	120220	12022020	002219	113.89	13.903225	-56.946285	114.12	-0.240	0.480	3.300	113.89	-0.50	3.50	 	 	 	 	 	 	 	 	 	 	 	 	 	 	 	 	 	 	1581466939	3.92	7.26
12/02/2020 00:22:20	120220	12022020	002220	113.89	13.903218	-56.946267	114.11	-0.210	1.140	2.610	113.90	-0.30	2.70	 	 	 	 	 	 	 	 	 	 	 	 	 	 	 	 	 	 	1581466940	4.00	7.41
12/02/2020 00:22:21	120220	12022020	002221	113.98	13.903210	-56.946247	114.18	-0.080	0.840	1.860	114.01	-0.90	2.10	 	 	 	 	 	 	 	 	 	 	 	 	 	 	 	 	 	 	1581466941	4.77	8.83
12/02/2020 00:22:22	120220	12022020	002222	114.17	13.903200	-56.946222	114.37	0.070	-0.060	1.440	114.23	-1.90	1.80	 	 	 	 	 	 	 	 	 	 	 	 	 	 	 	 	 	 	1581466942	5.43	10.06
12/02/2020 00:22:23	120220	12022020	002223	114.48	13.903188	-56.946198	114.69	0.250	-0.930	1.230	114.55	-2.60	1.70	 	 	 	 	 	 	 	 	 	 	 	 	 	 	 	 	 	 	1581466943	5.59	10.35
12/02/2020 00:22:24	120220	12022020	002224	114.71	13.903175	-56.946177	114.89	0.350	-1.330	1.340	114.71	-2.70	2.00	 	 	 	 	 	 	 	 	 	 	 	 	 	 	 	 	 	 	1581466944	5.34	9.89
12/02/2020 00:22:25	120220	12022020	002225	114.54	13.903160	-56.946158	114.75	0.240	-1.180	2.110	114.54	-2.40	3.10	 	 	 	 	 	 	 	 	 	 	 	 	 	 	 	 	 	 	1581466945	5.16	9.56
12/02/2020 00:22:26	120220	12022020	002226	114.17	13.903140	-56.946143	114.31	-0.040	-0.520	3.360	114.07	-1.50	4.20	 	 	 	 	 	 	 	 	 	 	 	 	 	 	 	 	 	 	1581466946	5.10	9.45
12/02/2020 00:22:27	120220	12022020	002227	113.62	13.903125	-56.946130	113.89	-0.360	0.450	4.130	113.62	-0.60	4.60	 	 	 	 	 	 	 	 	 	 	 	 	 	 	 	 	 	 	1581466947	4.59	8.50
12/02/2020 00:22:28	120220	12022020	002228	113.55	13.903113	-56.946113	113.80	-0.550	1.150	3.920	113.57	-0.20	4.10	 	 	 	 	 	 	 	 	 	 	 	 	 	 	 	 	 	 	1581466948	4.14	7.67
12/02/2020 00:22:29	120220	12022020	002229	113.76	13.903103	-56.946093	114.00	-0.440	0.910	3.230	113.81	-0.90	3.40	 	 	 	 	 	 	 	 	 	 	 	 	 	 	 	 	 	 	1581466949	4.67	8.65
12/02/2020 00:22:30	120220	12022020	002230	113.94	13.903093	-56.946068	114.13	-0.010	-0.300	2.680	113.94	-2.30	3.00	 	 	 	 	 	 	 	 	 	 	 	 	 	 	 	 	 	 	1581466950	5.71	10.57
12/02/2020 00:22:31	120220	12022020	002231	113.82	13.903082	-56.946042	114.02	0.520	-1.580	2.470	113.82	-3.20	2.90	 	 	 	 	 	 	 	 	 	 	 	 	 	 	 	 	 	 	1581466951	6.28	11.63
12/02/2020 00:22:32	120220	12022020	002232	113.76	13.903070	-56.946017	113.96	0.640	-1.730	2.480	113.78	-2.80	3.00	 	 	 	 	 	 	 	 	 	 	 	 	 	 	 	 	 	 	1581466952	5.62	10.41
12/02/2020 00:22:33	120220	12022020	002233	113.96	13.903057	-56.946002	114.22	0.170	-0.540	2.710	114.04	-1.30	3.30	 	 	 	 	 	 	 	 	 	 	 	 	 	 	 	 	 	 	1581466953	4.26	7.89
12/02/2020 00:22:34	120220	12022020	002234	114.39	13.903045	-56.945990	114.65	-0.530	0.970	2.880	114.48	-0.10	3.30	 	 	 	 	 	 	 	 	 	 	 	 	 	 	 	 	 	 	1581466954	3.62	6.70
12/02/2020 00:22:35	120220	12022020	002235	114.72	13.903032	-56.945975	114.92	-0.860	1.460	2.780	114.75	-0.20	3.20	 	 	 	 	 	 	 	 	 	 	 	 	 	 	 	 	 	 	1581466955	4.12	7.63
12/02/2020 00:22:36	120220	12022020	002236	114.64	13.903017	-56.945955	114.83	-0.520	0.620	2.630	114.64	-1.30	3.10	 	 	 	 	 	 	 	 	 	 	 	 	 	 	 	 	 	 	1581466956	5.42	10.04
12/02/2020 00:22:37	120220	12022020	002237	114.43	13.903002	-56.945930	114.58	0.170	-0.550	2.510	114.41	-2.20	2.80	 	 	 	 	 	 	 	 	 	 	 	 	 	 	 	 	 	 	1581466957	6.07	11.24
12/02/2020 00:22:38	120220	12022020	002238	114.45	13.902992	-56.945907	114.64	0.700	-0.950	2.050	114.48	-2.30	2.30	 	 	 	 	 	 	 	 	 	 	 	 	 	 	 	 	 	 	1581466958	5.41	10.02
12/02/2020 00:22:39	120220	12022020	002239	114.66	13.902987	-56.945885	114.84	0.780	-0.710	1.520	114.69	-2.00	1.90	 	 	 	 	 	 	 	 	 	 	 	 	 	 	 	 	 	 	1581466959	4.57	8.46
12/02/2020 00:22:40	120220	12022020	002240	114.74	13.902978	-56.945865	114.90	0.540	-0.520	1.350	114.74	-1.90	1.90	 	 	 	 	 	 	 	 	 	 	 	 	 	 	 	 	 	 	1581466960	4.57	8.46
12/02/2020 00:22:41	120220	12022020	002241	114.75	13.902967	-56.945845	114.92	0.120	-0.450	1.750	114.75	-1.80	2.60	 	 	 	 	 	 	 	 	 	 	 	 	 	 	 	 	 	 	1581466961	4.94	9.15
12/02/2020 00:22:42	120220	12022020	002242	114.77	13.902948	-56.945827	114.98	-0.370	-0.350	2.630	114.77	-1.70	3.50	 	 	 	 	 	 	 	 	 	 	 	 	 	 	 	 	 	 	1581466962	5.34	9.89
12/02/2020 00:22:43	120220	12022020	002243	114.71	13.902928	-56.945810	114.90	-0.730	-0.160	3.490	114.68	-1.40	4.20	 	 	 	 	 	 	 	 	 	 	 	 	 	 	 	 	 	 	1581466963	5.59	10.35
12/02/2020 00:22:44	120220	12022020	002244	114.48	13.902910	-56.945793	114.66	-0.800	0.110	3.870	114.43	-1.20	4.30	 	 	 	 	 	 	 	 	 	 	 	 	 	 	 	 	 	 	1581466964	5.37	9.95
12/02/2020 00:22:45	120220	12022020	002245	114.29	13.902895	-56.945775	114.49	-0.570	0.390	3.720	114.28	-0.90	4.00	 	 	 	 	 	 	 	 	 	 	 	 	 	 	 	 	 	 	1581466965	4.98	9.22
12/02/2020 00:22:46	120220	12022020	002246	114.32	13.902883	-56.945757	114.53	-0.220	0.540	3.100	114.36	-0.90	3.20	 	 	 	 	 	 	 	 	 	 	 	 	 	 	 	 	 	 	1581466966	4.72	8.74
12/02/2020 00:22:47	120220	12022020	002247	114.62	13.902875	-56.945733	114.76	0.180	0.180	2.170	114.62	-1.60	2.30	 	 	 	 	 	 	 	 	 	 	 	 	 	 	 	 	 	 	1581466967	4.97	9.20
12/02/2020 00:22:48	120220	12022020	002248	114.80	13.902867	-56.945708	114.97	0.650	-0.760	1.320	114.82	-2.50	1.60	 	 	 	 	 	 	 	 	 	 	 	 	 	 	 	 	 	 	1581466968	5.75	10.65
12/02/2020 00:22:49	120220	12022020	002249	114.82	13.902857	-56.945682	114.99	0.920	-1.400	0.990	114.82	-2.80	1.60	 	 	 	 	 	 	 	 	 	 	 	 	 	 	 	 	 	 	1581466969	5.95	11.02
12/02/2020 00:22:50	120220	12022020	002250	114.71	13.902845	-56.945662	114.86	0.650	-0.940	1.390	114.69	-1.90	2.20	 	 	 	 	 	 	 	 	 	 	 	 	 	 	 	 	 	 	1581466970	4.99	9.24
12/02/2020 00:22:51	120220	12022020	002251	114.65	13.902832	-56.945647	114.83	0.020	0.220	2.060	114.67	-0.80	2.70	 	 	 	 	 	 	 	 	 	 	 	 	 	 	 	 	 	 	1581466971	4.18	7.74
12/02/2020 00:22:52	120220	12022020	002252	114.80	13.902818	-56.945633	114.96	-0.460	1.020	2.460	114.80	-0.40	3.00	 	 	 	 	 	 	 	 	 	 	 	 	 	 	 	 	 	 	1581466972	4.13	7.65
12/02/2020 00:22:53	120220	12022020	002253	114.90	13.902805	-56.945615	115.07	-0.510	0.810	2.630	114.90	-1.00	3.20	 	 	 	 	 	 	 	 	 	 	 	 	 	 	 	 	 	 	1581466973	4.93	9.13
12/02/2020 00:22:54	120220	12022020	002254	114.81	13.902788	-56.945592	115.01	-0.200	-0.230	2.910	114.81	-2.10	3.50	 	 	 	 	 	 	 	 	 	 	 	 	 	 	 	 	 	 	1581466974	5.93	10.98
12/02/2020 00:22:55	120220	12022020	002255	114.64	13.902770	-56.945568	114.82	0.130	-1.180	3.290	114.60	-2.70	3.80	 	 	 	 	 	 	 	 	 	 	 	 	 	 	 	 	 	 	1581466975	6.27	11.61
12/02/2020 00:22:56	120220	12022020	002256	114.53	13.902757	-56.945547	114.74	0.120	-1.040	3.320	114.55	-2.10	3.70	 	 	 	 	 	 	 	 	 	 	 	 	 	 	 	 	 	 	1581466976	5.33	9.87
12/02/2020 00:22:57	120220	12022020	002257	114.74	13.902747	-56.945532	114.98	-0.300	0.010	2.970	114.82	-1.00	3.20	 	 	 	 	 	 	 	 	 	 	 	 	 	 	 	 	 	 	1581466977	3.97	7.35
12/02/2020 00:22:58	120220	12022020	002258	115.18	13.902737	-56.945517	115.34	-0.700	0.670	2.490	115.18	-0.90	2.80	 	 	 	 	 	 	 	 	 	 	 	 	 	 	 	 	 	 	1581466978	3.83	7.09
12/02/2020 00:22:59	120220	12022020	002259	115.21	13.902722	-56.945495	115.39	-0.420	-0.050	2.170	115.21	-2.00	2.60	 	 	 	 	 	 	 	 	 	 	 	 	 	 	 	 	 	 	1581466979	5.29	9.80
12/02/2020 00:23:00	120220	12022020	002300	114.94	13.902705	-56.945468	115.05	0.450	-1.310	2.160	114.84	-2.90	2.70	 	 	 	 	 	 	 	 	 	 	 	 	 	 	 	 	 	 	1581466980	6.62	12.26
12/02/2020 00:23:01	120220	12022020	002301	114.46	13.902692	-56.945445	114.58	1.010	-1.360	2.290	114.39	-2.30	2.70	 	 	 	 	 	 	 	 	 	 	 	 	 	 	 	 	 	 	1581466981	5.97	11.06
12/02/2020 00:23:02	120220	12022020	002302	114.34	13.902683	-56.945427	114.55	0.680	0.060	2.070	114.40	-0.60	2.30	1016.90	26.20	26.20	20.20	20.30	-1.0	69.0	69.0	390.0	25.9	321.00	16.20	69.00	14.30	16	11260.0	27.1	27.1	1581466982	4.20	7.78
12/02/2020 00:23:03	120220	12022020	002303	114.91	13.902677	-56.945413	115.17	-0.260	1.720	1.480	115.08	0.60	1.70	 	 	 	 	 	 	 	 	 	 	 	 	 	 	 	 	 	 	1581466983	3.12	5.78
12/02/2020 00:23:04	120220	12022020	002304	115.91	13.902667	-56.945398	116.01	-1.020	2.080	1.150	115.91	0.20	1.70	 	 	 	 	 	 	 	 	 	 	 	 	 	 	 	 	 	 	1581466984	3.71	6.87
12/02/2020 00:23:05	120220	12022020	002305	116.16	13.902648	-56.945378	116.30	-0.810	0.530	1.520	116.15	-1.90	2.30	 	 	 	 	 	 	 	 	 	 	 	 	 	 	 	 	 	 	1581466985	5.63	10.43
12/02/2020 00:23:06	120220	12022020	002306	115.80	13.902628	-56.945353	115.89	0.270	-1.780	2.420	115.67	-3.90	3.30	 	 	 	 	 	 	 	 	 	 	 	 	 	 	 	 	 	 	1581466986	7.13	13.20
12/02/2020 00:23:07	120220	12022020	002307	115.26	13.902610	-56.945328	115.40	1.170	-2.690	3.280	115.19	-3.90	4.10	 	 	 	 	 	 	 	 	 	 	 	 	 	 	 	 	 	 	1581466987	6.51	12.06
12/02/2020 00:23:08	120220	12022020	002308	115.16	13.902597	-56.945312	115.38	1.080	-1.560	3.850	115.20	-2.20	4.40	 	 	 	 	 	 	 	 	 	 	 	 	 	 	 	 	 	 	1581466988	4.51	8.35
12/02/2020 00:23:09	120220	12022020	002309	115.53	13.902585	-56.945300	115.72	0.230	0.170	3.950	115.53	-0.80	4.40	 	 	 	 	 	 	 	 	 	 	 	 	 	 	 	 	 	 	1581466989	3.49	6.46
12/02/2020 00:23:10	120220	12022020	002310	115.66	13.902572	-56.945285	115.86	-0.500	0.870	3.840	115.66	-0.60	4.20	 	 	 	 	 	 	 	 	 	 	 	 	 	 	 	 	 	 	1581466990	4.32	8.00
12/02/2020 00:23:11	120220	12022020	002311	115.58	13.902557	-56.945263	115.79	-0.690	0.640	3.640	115.58	-0.90	4.00	 	 	 	 	 	 	 	 	 	 	 	 	 	 	 	 	 	 	1581466991	5.54	10.26
12/02/2020 00:23:12	120220	12022020	002312	115.62	13.902542	-56.945242	115.81	-0.600	0.460	3.190	115.65	-1.00	3.40	 	 	 	 	 	 	 	 	 	 	 	 	 	 	 	 	 	 	1581466992	5.50	10.19
12/02/2020 00:23:13	120220	12022020	002313	115.85	13.902528	-56.945223	116.06	-0.490	0.530	2.560	115.90	-1.00	2.80	 	 	 	 	 	 	 	 	 	 	 	 	 	 	 	 	 	 	1581466993	4.80	8.89
12/02/2020 00:23:14	120220	12022020	002314	115.97	13.902518	-56.945203	116.12	-0.270	0.130	1.970	115.95	-1.70	2.30	 	 	 	 	 	 	 	 	 	 	 	 	 	 	 	 	 	 	1581466994	4.85	8.98
12/02/2020 00:23:15	120220	12022020	002315	115.67	13.902505	-56.945178	115.83	0.230	-0.950	1.640	115.67	-2.80	2.10	 	 	 	 	 	 	 	 	 	 	 	 	 	 	 	 	 	 	1581466995	5.79	10.72
12/02/2020 00:23:16	120220	12022020	002316	115.43	13.902490	-56.945153	115.53	0.830	-1.690	1.530	115.38	-3.10	2.10	 	 	 	 	 	 	 	 	 	 	 	 	 	 	 	 	 	 	1581466996	6.13	11.35
12/02/2020 00:23:17	120220	12022020	002317	115.26	13.902478	-56.945132	115.39	1.030	-1.190	1.650	115.24	-2.10	2.30	 	 	 	 	 	 	 	 	 	 	 	 	 	 	 	 	 	 	1581466997	5.14	9.52
12/02/2020 00:23:18	120220	12022020	002318	115.30	13.902468	-56.945117	115.49	0.580	0.110	1.970	115.34	-0.80	2.60	 	 	 	 	 	 	 	 	 	 	 	 	 	 	 	 	 	 	1581466998	4.08	7.56
12/02/2020 00:23:19	120220	12022020	002319	115.54	13.902455	-56.945103	115.75	-0.230	1.160	2.420	115.60	-0.10	3.10	 	 	 	 	 	 	 	 	 	 	 	 	 	 	 	 	 	 	1581466999	4.03	7.46
12/02/2020 00:23:20	120220	12022020	002320	115.82	13.902438	-56.945088	115.98	-0.870	1.300	2.930	115.82	-0.40	3.60	 	 	 	 	 	 	 	 	 	 	 	 	 	 	 	 	 	 	1581467000	4.79	8.87
12/02/2020 00:23:21	120220	12022020	002321	115.87	13.902418	-56.945070	116.03	-0.930	0.520	3.510	115.85	-1.50	4.30	 	 	 	 	 	 	 	 	 	 	 	 	 	 	 	 	 	 	1581467001	5.71	10.57
12/02/2020 00:23:22	120220	12022020	002322	115.58	13.902395	-56.945048	115.70	-0.250	-0.850	4.170	115.47	-2.80	4.80	 	 	 	 	 	 	 	 	 	 	 	 	 	 	 	 	 	 	1581467002	6.51	12.06
12/02/2020 00:23:23	120220	12022020	002323	115.04	13.902377	-56.945025	115.17	0.750	-1.860	4.370	114.95	-3.30	4.70	 	 	 	 	 	 	 	 	 	 	 	 	 	 	 	 	 	 	1581467003	6.47	11.98
12/02/2020 00:23:24	120220	12022020	002324	114.71	13.902367	-56.945003	114.88	1.270	-1.480	3.810	114.69	-2.40	3.90	 	 	 	 	 	 	 	 	 	 	 	 	 	 	 	 	 	 	1581467004	5.22	9.67
12/02/2020 00:23:25	120220	12022020	002325	114.87	13.902362	-56.944985	115.03	0.860	-0.130	2.940	114.87	-1.10	3.10	 	 	 	 	 	 	 	 	 	 	 	 	 	 	 	 	 	 	1581467005	3.96	7.33
12/02/2020 00:23:26	120220	12022020	002326	115.26	13.902357	-56.944967	115.40	-0.040	0.730	2.240	115.26	-0.70	2.50	 	 	 	 	 	 	 	 	 	 	 	 	 	 	 	 	 	 	1581467006	3.95	7.32
12/02/2020 00:23:27	120220	12022020	002327	115.46	13.902343	-56.944945	115.62	-0.700	0.510	1.970	115.47	-1.20	2.50	 	 	 	 	 	 	 	 	 	 	 	 	 	 	 	 	 	 	1581467007	5.13	9.50
12/02/2020 00:23:28	120220	12022020	002328	115.42	13.902327	-56.944923	115.56	-0.810	-0.020	2.230	115.40	-1.60	2.90	 	 	 	 	 	 	 	 	 	 	 	 	 	 	 	 	 	 	1581467008	5.92	10.96
12/02/2020 00:23:29	120220	12022020	002329	115.29	13.902307	-56.944905	115.45	-0.570	-0.100	2.750	115.27	-1.50	3.40	 	 	 	 	 	 	 	 	 	 	 	 	 	 	 	 	 	 	1581467009	5.65	10.46
12/02/2020 00:23:30	120220	12022020	002330	115.22	13.902290	-56.944888	115.39	-0.250	0.090	2.940	115.22	-1.40	3.30	 	 	 	 	 	 	 	 	 	 	 	 	 	 	 	 	 	 	1581467010	5.07	9.39
12/02/2020 00:23:31	120220	12022020	002331	115.25	13.902277	-56.944870	115.41	0.060	-0.000	2.650	115.25	-1.60	3.00	 	 	 	 	 	 	 	 	 	 	 	 	 	 	 	 	 	 	1581467011	4.97	9.20
12/02/2020 00:23:32	120220	12022020	002332	115.25	13.902263	-56.944848	115.41	0.270	-0.440	2.340	115.25	-2.10	2.80	 	 	 	 	 	 	 	 	 	 	 	 	 	 	 	 	 	 	1581467012	5.33	9.87
12/02/2020 00:23:33	120220	12022020	002333	115.12	13.902250	-56.944825	115.24	0.330	-0.810	2.320	115.06	-2.30	2.90	 	 	 	 	 	 	 	 	 	 	 	 	 	 	 	 	 	 	1581467013	5.46	10.11
12/02/2020 00:23:34	120220	12022020	002334	114.77	13.902238	-56.944805	114.89	0.280	-0.770	2.450	114.70	-2.10	3.00	 	 	 	 	 	 	 	 	 	 	 	 	 	 	 	 	 	 	1581467014	5.18	9.59
12/02/2020 00:23:35	120220	12022020	002335	114.49	13.902225	-56.944785	114.66	0.270	-0.440	2.430	114.47	-1.70	2.90	 	 	 	 	 	 	 	 	 	 	 	 	 	 	 	 	 	 	1581467015	4.92	9.11
12/02/2020 00:23:36	120220	12022020	002336	114.48	13.902213	-56.944765	114.67	0.350	-0.120	2.280	114.50	-1.40	2.70	 	 	 	 	 	 	 	 	 	 	 	 	 	 	 	 	 	 	1581467016	4.98	9.22
12/02/2020 00:23:37	120220	12022020	002337	114.62	13.902202	-56.944743	114.82	0.290	0.250	2.160	114.65	-1.00	2.60	 	 	 	 	 	 	 	 	 	 	 	 	 	 	 	 	 	 	1581467017	5.00	9.26
12/02/2020 00:23:38	120220	12022020	002338	114.85	13.902190	-56.944725	115.07	-0.090	0.610	2.010	114.91	-0.80	2.50	 	 	 	 	 	 	 	 	 	 	 	 	 	 	 	 	 	 	1581467018	4.76	8.82
12/02/2020 00:23:39	120220	12022020	002339	115.20	13.902177	-56.944707	115.43	-0.540	0.610	2.070	115.27	-1.00	2.70	 	 	 	 	 	 	 	 	 	 	 	 	 	 	 	 	 	 	1581467019	4.81	8.91
12/02/2020 00:23:40	120220	12022020	002340	115.40	13.902160	-56.944687	115.57	-0.630	-0.120	2.550	115.37	-2.00	3.40	 	 	 	 	 	 	 	 	 	 	 	 	 	 	 	 	 	 	1581467020	5.55	10.28
12/02/2020 00:23:41	120220	12022020	002341	115.04	13.902140	-56.944663	115.16	-0.160	-1.270	3.360	114.92	-3.00	4.10	 	 	 	 	 	 	 	 	 	 	 	 	 	 	 	 	 	 	1581467021	6.53	12.09
12/02/2020 00:23:42	120220	12022020	002342	114.40	13.902120	-56.944640	114.56	0.450	-1.650	3.860	114.32	-2.80	4.30	 	 	 	 	 	 	 	 	 	 	 	 	 	 	 	 	 	 	1581467022	6.29	11.65
12/02/2020 00:23:43	120220	12022020	002343	114.21	13.902110	-56.944622	114.45	0.610	-0.600	3.590	114.25	-1.40	3.80	 	 	 	 	 	 	 	 	 	 	 	 	 	 	 	 	 	 	1581467023	4.70	8.70
12/02/2020 00:23:44	120220	12022020	002344	114.58	13.902103	-56.944605	114.85	0.120	0.910	2.800	114.69	-0.20	2.90	 	 	 	 	 	 	 	 	 	 	 	 	 	 	 	 	 	 	1581467024	3.57	6.61
12/02/2020 00:23:45	120220	12022020	002345	115.10	13.902097	-56.944588	115.32	-0.630	1.450	1.950	115.17	-0.20	2.20	 	 	 	 	 	 	 	 	 	 	 	 	 	 	 	 	 	 	1581467025	3.97	7.35
12/02/2020 00:23:46	120220	12022020	002346	115.29	13.902083	-56.944567	115.45	-1.020	0.560	1.650	115.26	-1.50	2.20	 	 	 	 	 	 	 	 	 	 	 	 	 	 	 	 	 	 	1581467026	5.36	9.93
12/02/2020 00:23:47	120220	12022020	002347	114.91	13.902065	-56.944542	115.12	-0.640	-1.060	2.050	114.91	-3.00	2.80	 	 	 	 	 	 	 	 	 	 	 	 	 	 	 	 	 	 	1581467027	6.67	12.35
12/02/2020 00:23:48	120220	12022020	002348	114.52	13.902043	-56.944517	114.64	0.230	-2.110	2.640	114.42	-3.50	3.30	 	 	 	 	 	 	 	 	 	 	 	 	 	 	 	 	 	 	1581467028	6.83	12.65
12/02/2020 00:23:49	120220	12022020	002349	114.17	13.902028	-56.944497	114.33	0.930	-1.690	2.750	114.14	-2.50	3.10	 	 	 	 	 	 	 	 	 	 	 	 	 	 	 	 	 	 	1581467029	5.59	10.35
12/02/2020 00:23:50	120220	12022020	002350	114.22	13.902020	-56.944478	114.43	0.920	-0.060	2.260	114.28	-0.70	2.50	 	 	 	 	 	 	 	 	 	 	 	 	 	 	 	 	 	 	1581467030	4.06	7.52
12/02/2020 00:23:51	120220	12022020	002351	114.60	13.902015	-56.944463	114.82	0.230	1.500	1.640	114.69	0.40	2.00	 	 	 	 	 	 	 	 	 	 	 	 	 	 	 	 	 	 	1581467031	3.52	6.52
12/02/2020 00:23:52	120220	12022020	002352	114.87	13.902007	-56.944445	115.04	-0.540	1.840	1.440	114.87	0.10	2.00	 	 	 	 	 	 	 	 	 	 	 	 	 	 	 	 	 	 	1581467032	4.18	7.74
12/02/2020 00:23:53	120220	12022020	002353	114.70	13.901992	-56.944423	114.83	-0.770	0.750	1.800	114.64	-1.30	2.60	 	 	 	 	 	 	 	 	 	 	 	 	 	 	 	 	 	 	1581467033	5.62	10.41
12/02/2020 00:23:54	120220	12022020	002354	114.36	13.901972	-56.944398	114.52	-0.410	-0.800	2.470	114.31	-2.70	3.20	 	 	 	 	 	 	 	 	 	 	 	 	 	 	 	 	 	 	1581467034	6.56	12.15
12/02/2020 00:23:55	120220	12022020	002355	114.23	13.901953	-56.944375	114.44	0.090	-1.680	3.090	114.23	-3.10	3.70	 	 	 	 	 	 	 	 	 	 	 	 	 	 	 	 	 	 	1581467035	6.26	11.59
12/02/2020 00:23:56	120220	12022020	002356	114.25	13.901938	-56.944357	114.46	0.320	-1.550	3.400	114.24	-2.70	3.90	 	 	 	 	 	 	 	 	 	 	 	 	 	 	 	 	 	 	1581467036	5.28	9.78
12/02/2020 00:23:57	120220	12022020	002357	114.14	13.901925	-56.944338	114.34	0.310	-0.830	3.420	114.10	-1.90	3.80	 	 	 	 	 	 	 	 	 	 	 	 	 	 	 	 	 	 	1581467037	4.64	8.59
12/02/2020 00:23:58	120220	12022020	002358	113.97	13.901913	-56.944320	114.18	0.180	-0.030	3.200	113.97	-1.20	3.50	 	 	 	 	 	 	 	 	 	 	 	 	 	 	 	 	 	 	1581467038	4.51	8.35
12/02/2020 00:23:59	120220	12022020	002359	113.97	13.901903	-56.944300	114.17	-0.010	0.520	2.820	113.98	-0.80	3.10	 	 	 	 	 	 	 	 	 	 	 	 	 	 	 	 	 	 	1581467039	4.72	8.74
12/02/2020 00:24:00	120220	12022020	002400	114.08	13.901892	-56.944280	114.28	-0.200	0.700	2.390	114.11	-0.80	2.70	 	 	 	 	 	 	 	 	 	 	 	 	 	 	 	 	 	 	1581467040	4.96	9.19
12/02/2020 00:24:01	120220	12022020	002401	114.20	13.901882	-56.944258	114.37	-0.200	0.450	1.970	114.20	-1.30	2.40	 	 	 	 	 	 	 	 	 	 	 	 	 	 	 	 	 	 	1581467041	5.19	9.61
12/02/2020 00:24:02	120220	12022020	002402	114.09	13.901870	-56.944233	114.23	0.100	-0.370	1.850	114.04	-2.20	2.40	1016.90	26.20	26.20	20.30	20.40	-1.0	70.0	70.0	390.0	25.9	319.00	16.30	68.00	14.40	16	9338.0	27.1	27.1	1581467042	5.80	10.74
12/02/2020 00:24:03	120220	12022020	002403	113.91	13.901857	-56.944207	114.10	0.330	-1.000	1.900	113.92	-2.40	2.50	 	 	 	 	 	 	 	 	 	 	 	 	 	 	 	 	 	 	1581467043	6.09	11.28
12/02/2020 00:24:04	120220	12022020	002404	114.14	13.901843	-56.944187	114.42	0.010	-0.540	2.210	114.24	-1.50	2.90	 	 	 	 	 	 	 	 	 	 	 	 	 	 	 	 	 	 	1581467044	5.05	9.35
12/02/2020 00:24:05	120220	12022020	002405	114.75	13.901830	-56.944173	115.08	-0.660	0.520	2.650	114.89	-0.60	3.30	 	 	 	 	 	 	 	 	 	 	 	 	 	 	 	 	 	 	1581467045	4.19	7.76
12/02/2020 00:24:06	120220	12022020	002406	115.30	13.901813	-56.944160	115.55	-0.930	0.870	2.990	115.35	-0.80	3.60	 	 	 	 	 	 	 	 	 	 	 	 	 	 	 	 	 	 	1581467046	4.53	8.39
12/02/2020 00:24:07	120220	12022020	002407	115.29	13.901795	-56.944140	115.45	-0.270	-0.130	3.300	115.22	-2.10	3.90	 	 	 	 	 	 	 	 	 	 	 	 	 	 	 	 	 	 	1581467047	5.81	10.76
12/02/2020 00:24:08	120220	12022020	002408	114.79	13.901777	-56.944113	114.94	0.820	-1.390	3.570	114.69	-3.00	4.10	 	 	 	 	 	 	 	 	 	 	 	 	 	 	 	 	 	 	1581467048	6.66	12.33
12/02/2020 00:24:09	120220	12022020	002409	114.49	13.901765	-56.944088	114.71	1.300	-1.480	3.390	114.51	-2.50	3.70	 	 	 	 	 	 	 	 	 	 	 	 	 	 	 	 	 	 	1581467049	5.86	10.85
12/02/2020 00:24:10	120220	12022020	002410	114.81	13.901760	-56.944068	115.09	0.800	-0.350	2.790	114.93	-1.20	3.00	 	 	 	 	 	 	 	 	 	 	 	 	 	 	 	 	 	 	1581467050	4.35	8.06
12/02/2020 00:24:11	120220	12022020	002411	115.50	13.901752	-56.944052	115.78	-0.170	0.780	2.110	115.64	-0.50	2.40	 	 	 	 	 	 	 	 	 	 	 	 	 	 	 	 	 	 	1581467051	3.81	7.06
12/02/2020 00:24:12	120220	12022020	002412	116.04	13.901740	-56.944033	116.23	-0.770	0.890	1.770	116.09	-0.80	2.30	 	 	 	 	 	 	 	 	 	 	 	 	 	 	 	 	 	 	1581467052	4.67	8.65
12/02/2020 00:24:13	120220	12022020	002413	115.99	13.901723	-56.944012	116.10	-0.700	0.180	2.010	115.92	-1.60	2.70	 	 	 	 	 	 	 	 	 	 	 	 	 	 	 	 	 	 	1581467053	5.83	10.80
12/02/2020 00:24:14	120220	12022020	002414	115.51	13.901705	-56.943990	115.59	-0.270	-0.520	2.520	115.41	-2.10	3.20	 	 	 	 	 	 	 	 	 	 	 	 	 	 	 	 	 	 	1581467054	6.14	11.37
12/02/2020 00:24:15	120220	12022020	002415	115.13	13.901688	-56.943968	115.26	0.060	-0.800	2.760	115.09	-2.20	3.20	 	 	 	 	 	 	 	 	 	 	 	 	 	 	 	 	 	 	1581467055	5.75	10.65
12/02/2020 00:24:16	120220	12022020	002416	115.09	13.901675	-56.943948	115.26	0.150	-0.630	2.600	115.12	-1.90	2.90	 	 	 	 	 	 	 	 	 	 	 	 	 	 	 	 	 	 	1581467056	5.21	9.65
12/02/2020 00:24:17	120220	12022020	002417	115.29	13.901663	-56.943927	115.46	0.120	-0.310	2.160	115.33	-1.60	2.50	 	 	 	 	 	 	 	 	 	 	 	 	 	 	 	 	 	 	1581467057	4.95	9.17
12/02/2020 00:24:18	120220	12022020	002418	115.47	13.901653	-56.943907	115.61	0.090	0.080	1.750	115.48	-1.20	2.20	 	 	 	 	 	 	 	 	 	 	 	 	 	 	 	 	 	 	1581467058	4.85	8.98
12/02/2020 00:24:19	120220	12022020	002419	115.48	13.901642	-56.943887	115.60	0.020	0.420	1.580	115.46	-1.00	2.10	 	 	 	 	 	 	 	 	 	 	 	 	 	 	 	 	 	 	1581467059	4.78	8.85
12/02/2020 00:24:20	120220	12022020	002420	115.32	13.901628	-56.943867	115.43	-0.050	0.300	1.750	115.25	-1.40	2.40	 	 	 	 	 	 	 	 	 	 	 	 	 	 	 	 	 	 	1581467060	5.07	9.39
12/02/2020 00:24:21	120220	12022020	002421	114.90	13.901613	-56.943845	115.02	-0.000	-0.430	2.250	114.79	-2.20	3.00	 	 	 	 	 	 	 	 	 	 	 	 	 	 	 	 	 	 	1581467061	5.86	10.85
12/02/2020 00:24:22	120220	12022020	002422	114.45	13.901595	-56.943820	114.62	0.110	-1.100	2.790	114.39	-2.60	3.50	 	 	 	 	 	 	 	 	 	 	 	 	 	 	 	 	 	 	1581467062	6.29	11.65
12/02/2020 00:24:23	120220	12022020	002423	114.32	13.901578	-56.943800	114.56	0.130	-0.910	3.140	114.34	-2.00	3.70	 	 	 	 	 	 	 	 	 	 	 	 	 	 	 	 	 	 	1581467063	5.67	10.50
12/02/2020 00:24:24	120220	12022020	002424	114.51	13.901565	-56.943782	114.77	0.050	-0.020	3.030	114.56	-1.10	3.40	 	 	 	 	 	 	 	 	 	 	 	 	 	 	 	 	 	 	1581467064	4.62	8.56
12/02/2020 00:24:25	120220	12022020	002425	114.68	13.901555	-56.943763	114.89	0.040	0.550	2.580	114.69	-0.90	3.00	 	 	 	 	 	 	 	 	 	 	 	 	 	 	 	 	 	 	1581467065	4.46	8.26
12/02/2020 00:24:26	120220	12022020	002426	114.63	13.901545	-56.943742	114.81	0.150	0.320	2.400	114.60	-1.40	3.00	 	 	 	 	 	 	 	 	 	 	 	 	 	 	 	 	 	 	1581467066	5.31	9.83
12/02/2020 00:24:27	120220	12022020	002427	114.52	13.901530	-56.943717	114.72	0.120	-0.260	2.620	114.50	-1.90	3.30	 	 	 	 	 	 	 	 	 	 	 	 	 	 	 	 	 	 	1581467067	5.93	10.98
12/02/2020 00:24:28	120220	12022020	002428	114.52	13.901513	-56.943695	114.77	-0.180	-0.530	2.880	114.53	-1.90	3.30	 	 	 	 	 	 	 	 	 	 	 	 	 	 	 	 	 	 	1581467068	5.81	10.76
12/02/2020 00:24:29	120220	12022020	002429	114.74	13.901498	-56.943677	114.98	-0.570	-0.150	2.890	114.79	-1.30	3.30	 	 	 	 	 	 	 	 	 	 	 	 	 	 	 	 	 	 	1581467069	5.07	9.39
12/02/2020 00:24:30	120220	12022020	002430	114.90	13.901487	-56.943660	115.10	-0.660	0.460	2.690	114.90	-0.90	3.10	 	 	 	 	 	 	 	 	 	 	 	 	 	 	 	 	 	 	1581467070	4.36	8.07
12/02/2020 00:24:31	120220	12022020	002431	114.75	13.901475	-56.943640	114.90	-0.250	0.320	2.450	114.70	-1.50	2.80	 	 	 	 	 	 	 	 	 	 	 	 	 	 	 	 	 	 	1581467071	4.77	8.83
12/02/2020 00:24:32	120220	12022020	002432	114.49	13.901463	-56.943615	114.67	0.500	-0.770	2.130	114.47	-2.70	2.50	 	 	 	 	 	 	 	 	 	 	 	 	 	 	 	 	 	 	1581467072	6.02	11.15
12/02/2020 00:24:33	120220	12022020	002433	114.43	13.901450	-56.943587	114.63	1.000	-1.700	1.880	114.45	-3.20	2.30	 	 	 	 	 	 	 	 	 	 	 	 	 	 	 	 	 	 	1581467073	6.53	12.09
12/02/2020 00:24:34	120220	12022020	002434	114.59	13.901438	-56.943562	114.81	0.770	-1.370	1.800	114.64	-2.30	2.30	 	 	 	 	 	 	 	 	 	 	 	 	 	 	 	 	 	 	1581467074	5.63	10.43
12/02/2020 00:24:35	120220	12022020	002435	114.90	13.901427	-56.943545	115.12	-0.040	0.110	1.960	114.96	-0.60	2.60	 	 	 	 	 	 	 	 	 	 	 	 	 	 	 	 	 	 	1581467075	4.25	7.87
12/02/2020 00:24:36	120220	12022020	002436	115.18	13.901415	-56.943533	115.38	-0.860	1.580	2.340	115.21	0.40	3.00	 	 	 	 	 	 	 	 	 	 	 	 	 	 	 	 	 	 	1581467076	3.82	7.07
12/02/2020 00:24:37	120220	12022020	002437	115.26	13.901400	-56.943518	115.43	-1.100	1.830	2.600	115.25	0.10	3.10	 	 	 	 	 	 	 	 	 	 	 	 	 	 	 	 	 	 	1581467077	4.57	8.46
12/02/2020 00:24:38	120220	12022020	002438	115.16	13.901383	-56.943495	115.32	-0.640	0.650	2.630	115.14	-1.50	3.10	 	 	 	 	 	 	 	 	 	 	 	 	 	 	 	 	 	 	1581467078	5.81	10.76
12/02/2020 00:24:39	120220	12022020	002439	115.02	13.901367	-56.943468	115.18	0.200	-1.130	2.590	114.99	-3.20	3.10	 	 	 	 	 	 	 	 	 	 	 	 	 	 	 	 	 	 	1581467079	6.66	12.33
12/02/2020 00:24:40	120220	12022020	002440	114.88	13.901353	-56.943440	115.05	0.850	-2.320	2.500	114.86	-3.80	3.00	 	 	 	 	 	 	 	 	 	 	 	 	 	 	 	 	 	 	1581467080	6.59	12.20
12/02/2020 00:24:41	120220	12022020	002441	114.71	13.901342	-56.943417	114.87	0.940	-2.020	2.380	114.68	-2.80	2.80	 	 	 	 	 	 	 	 	 	 	 	 	 	 	 	 	 	 	1581467081	5.54	10.26
12/02/2020 00:24:42	120220	12022020	002442	114.59	13.901332	-56.943400	114.77	0.440	-0.300	2.200	114.60	-0.80	2.60	 	 	 	 	 	 	 	 	 	 	 	 	 	 	 	 	 	 	1581467082	4.07	7.54
12/02/2020 00:24:43	120220	12022020	002443	114.74	13.901325	-56.943387	114.94	-0.460	1.680	2.010	114.80	0.80	2.40	 	 	 	 	 	 	 	 	 	 	 	 	 	 	 	 	 	 	1581467083	3.22	5.96
12/02/2020 00:24:44	120220	12022020	002444	115.14	13.901315	-56.943373	115.35	-1.300	2.540	1.850	115.23	0.90	2.30	 	 	 	 	 	 	 	 	 	 	 	 	 	 	 	 	 	 	1581467084	3.62	6.70
12/02/2020 00:24:45	120220	12022020	002445	115.56	13.901300	-56.943353	115.76	-1.460	1.490	1.680	115.61	-0.90	2.10	 	 	 	 	 	 	 	 	 	 	 	 	 	 	 	 	 	 	1581467085	5.10	9.45
12/02/2020 00:24:46	120220	12022020	002446	115.66	13.901282	-56.943327	115.80	-0.470	-1.240	1.630	115.62	-3.90	2.30	 	 	 	 	 	 	 	 	 	 	 	 	 	 	 	 	 	 	1581467086	7.03	13.02
12/02/2020 00:24:47	120220	12022020	002447	115.19	13.901260	-56.943295	115.26	1.170	-3.690	2.180	115.03	-5.30	3.00	 	 	 	 	 	 	 	 	 	 	 	 	 	 	 	 	 	 	1581467087	7.99	14.80
12/02/2020 00:24:48	120220	12022020	002448	114.54	13.901245	-56.943272	114.68	1.940	-3.240	2.830	114.48	-3.50	3.50	 	 	 	 	 	 	 	 	 	 	 	 	 	 	 	 	 	 	1581467088	6.13	11.35
12/02/2020 00:24:49	120220	12022020	002449	114.56	13.901237	-56.943260	114.81	1.090	-0.090	3.090	114.67	-0.00	3.50	 	 	 	 	 	 	 	 	 	 	 	 	 	 	 	 	 	 	1581467089	2.80	5.19
12/02/2020 00:24:50	120220	12022020	002450	115.40	13.901232	-56.943257	115.71	-0.650	3.090	2.820	115.62	2.30	3.10	 	 	 	 	 	 	 	 	 	 	 	 	 	 	 	 	 	 	1581467090	1.42	2.63
12/02/2020 00:24:51	120220	12022020	002451	116.49	13.901223	-56.943245	116.77	-1.810	3.790	2.260	116.70	1.70	2.50	 	 	 	 	 	 	 	 	 	 	 	 	 	 	 	 	 	 	1581467091	2.83	5.24
12/02/2020 00:24:52	120220	12022020	002452	117.39	13.901208	-56.943223	117.47	-1.410	1.480	1.560	117.39	-1.40	1.90	 	 	 	 	 	 	 	 	 	 	 	 	 	 	 	 	 	 	1581467092	5.76	10.67
12/02/2020 00:24:53	120220	12022020	002453	117.44	13.901188	-56.943193	117.54	0.080	-1.870	1.360	117.38	-4.30	2.00	 	 	 	 	 	 	 	 	 	 	 	 	 	 	 	 	 	 	1581467093	7.63	14.13
12/02/2020 00:24:54	120220	12022020	002454	117.04	13.901170	-56.943167	117.14	1.220	-3.440	1.820	116.97	-4.60	2.50	 	 	 	 	 	 	 	 	 	 	 	 	 	 	 	 	 	 	1581467094	6.88	12.74
12/02/2020 00:24:55	120220	12022020	002455	116.83	13.901160	-56.943150	117.01	1.080	-2.040	2.100	116.86	-2.30	2.60	 	 	 	 	 	 	 	 	 	 	 	 	 	 	 	 	 	 	1581467095	3.92	7.26
12/02/2020 00:24:56	120220	12022020	002456	117.17	13.901153	-56.943145	117.39	-0.030	0.740	1.950	117.28	0.20	2.30	 	 	 	 	 	 	 	 	 	 	 	 	 	 	 	 	 	 	1581467096	1.71	3.17
12/02/2020 00:24:57	120220	12022020	002457	117.76	13.901147	-56.943138	117.95	-0.950	2.250	1.580	117.85	0.70	2.00	 	 	 	 	 	 	 	 	 	 	 	 	 	 	 	 	 	 	1581467097	2.27	4.20
12/02/2020 00:24:58	120220	12022020	002458	118.05	13.901132	-56.943122	118.16	-0.810	1.320	1.410	118.06	-1.00	1.90	 	 	 	 	 	 	 	 	 	 	 	 	 	 	 	 	 	 	1581467098	4.73	8.76
12/02/2020 00:24:59	120220	12022020	002459	117.93	13.901112	-56.943097	118.02	0.160	-0.830	1.430	117.88	-3.00	1.90	 	 	 	 	 	 	 	 	 	 	 	 	 	 	 	 	 	 	1581467099	6.60	12.22
12/02/2020 00:25:00	120220	12022020	002500	117.66	13.901097	-56.943072	117.75	0.970	-2.080	1.430	117.61	-3.50	1.90	 	 	 	 	 	 	 	 	 	 	 	 	 	 	 	 	 	 	1581467100	6.29	11.65
12/02/2020 00:25:01	120220	12022020	002501	117.48	13.901085	-56.943053	117.59	0.940	-1.550	1.440	117.46	-2.40	2.00	 	 	 	 	 	 	 	 	 	 	 	 	 	 	 	 	 	 	1581467101	4.54	8.41
12/02/2020 00:25:02	120220	12022020	002502	117.41	13.901075	-56.943040	117.51	0.250	-0.070	1.590	117.38	-0.90	2.20	1017.00	26.20	26.20	20.40	20.50	-1.0	70.0	70.0	392.0	25.9	321.00	14.50	69.00	12.60	16	10276.0	27.1	27.1	1581467102	3.29	6.09
12/02/2020 00:25:03	120220	12022020	002503	117.26	13.901063	-56.943028	117.36	-0.430	1.040	1.980	117.22	-0.20	2.70	 	 	 	 	 	 	 	 	 	 	 	 	 	 	 	 	 	 	1581467103	3.51	6.50
12/02/2020 00:25:04	120220	12022020	002504	117.07	13.901050	-56.943013	117.20	-0.720	1.240	2.340	117.05	-0.30	2.90	 	 	 	 	 	 	 	 	 	 	 	 	 	 	 	 	 	 	1581467104	4.43	8.20
12/02/2020 00:25:05	120220	12022020	002505	117.07	13.901033	-56.942997	117.22	-0.690	0.850	2.390	117.09	-0.80	2.80	 	 	 	 	 	 	 	 	 	 	 	 	 	 	 	 	 	 	1581467105	4.93	9.13
12/02/2020 00:25:06	120220	12022020	002506	117.19	13.901018	-56.942980	117.37	-0.440	0.210	2.340	117.21	-1.50	2.80	 	 	 	 	 	 	 	 	 	 	 	 	 	 	 	 	 	 	1581467106	4.97	9.20
12/02/2020 00:25:07	120220	12022020	002507	117.13	13.901002	-56.942962	117.27	0.090	-0.640	2.440	117.07	-2.50	3.00	 	 	 	 	 	 	 	 	 	 	 	 	 	 	 	 	 	 	1581467107	5.06	9.37
12/02/2020 00:25:08	120220	12022020	002508	116.67	13.900987	-56.942942	116.77	0.900	-1.570	2.570	116.56	-3.20	3.10	 	 	 	 	 	 	 	 	 	 	 	 	 	 	 	 	 	 	1581467108	5.39	9.98
12/02/2020 00:25:09	120220	12022020	002509	116.15	13.900975	-56.942920	116.26	1.400	-1.660	2.530	116.07	-2.80	3.00	 	 	 	 	 	 	 	 	 	 	 	 	 	 	 	 	 	 	1581467109	5.07	9.39
12/02/2020 00:25:10	120220	12022020	002510	115.88	13.900967	-56.942903	116.04	1.080	-0.660	2.410	115.88	-1.50	2.80	 	 	 	 	 	 	 	 	 	 	 	 	 	 	 	 	 	 	1581467110	3.98	7.37
12/02/2020 00:25:11	120220	12022020	002511	116.04	13.900960	-56.942890	116.26	0.180	0.630	2.180	116.13	-0.40	2.60	 	 	 	 	 	 	 	 	 	 	 	 	 	 	 	 	 	 	1581467111	3.35	6.20
12/02/2020 00:25:12	120220	12022020	002512	116.49	13.900948	-56.942877	116.71	-0.630	1.310	1.970	116.58	-0.10	2.40	 	 	 	 	 	 	 	 	 	 	 	 	 	 	 	 	 	 	1581467112	3.66	6.78
12/02/2020 00:25:13	120220	12022020	002513	116.83	13.900935	-56.942860	117.02	-0.850	0.960	2.010	116.87	-0.90	2.60	 	 	 	 	 	 	 	 	 	 	 	 	 	 	 	 	 	 	1581467113	4.61	8.54
12/02/2020 00:25:14	120220	12022020	002514	116.77	13.900917	-56.942840	116.97	-0.510	-0.180	2.420	116.77	-2.10	3.20	 	 	 	 	 	 	 	 	 	 	 	 	 	 	 	 	 	 	1581467114	5.64	10.45
12/02/2020 00:25:15	120220	12022020	002515	116.44	13.900897	-56.942820	116.55	0.060	-1.290	3.140	116.35	-2.90	3.80	 	 	 	 	 	 	 	 	 	 	 	 	 	 	 	 	 	 	1581467115	6.10	11.30
12/02/2020 00:25:16	120220	12022020	002516	116.04	13.900880	-56.942802	116.18	0.460	-1.390	3.380	115.99	-2.50	3.70	 	 	 	 	 	 	 	 	 	 	 	 	 	 	 	 	 	 	1581467116	5.29	9.80
12/02/2020 00:25:17	120220	12022020	002517	115.84	13.900870	-56.942785	115.98	0.510	-0.490	2.870	115.81	-1.50	3.10	 	 	 	 	 	 	 	 	 	 	 	 	 	 	 	 	 	 	1581467117	3.89	7.20
12/02/2020 00:25:18	120220	12022020	002518	115.69	13.900865	-56.942768	115.84	0.330	0.310	2.260	115.68	-1.00	2.60	 	 	 	 	 	 	 	 	 	 	 	 	 	 	 	 	 	 	1581467118	3.71	6.87
12/02/2020 00:25:19	120220	12022020	002519	115.72	13.900857	-56.942748	115.89	0.060	0.410	1.850	115.75	-1.10	2.20	 	 	 	 	 	 	 	 	 	 	 	 	 	 	 	 	 	 	1581467119	4.43	8.20
12/02/2020 00:25:20	120220	12022020	002520	115.93	13.900845	-56.942730	116.12	-0.270	0.160	1.620	115.98	-1.40	2.10	 	 	 	 	 	 	 	 	 	 	 	 	 	 	 	 	 	 	1581467120	4.94	9.15
12/02/2020 00:25:21	120220	12022020	002521	116.19	13.900828	-56.942712	116.35	-0.480	-0.040	1.600	116.21	-1.50	2.20	 	 	 	 	 	 	 	 	 	 	 	 	 	 	 	 	 	 	1581467121	5.01	9.28
12/02/2020 00:25:22	120220	12022020	002522	116.23	13.900812	-56.942695	116.36	-0.300	-0.130	1.880	116.21	-1.60	2.50	 	 	 	 	 	 	 	 	 	 	 	 	 	 	 	 	 	 	1581467122	4.96	9.19
12/02/2020 00:25:23	120220	12022020	002523	116.05	13.900797	-56.942680	116.18	0.270	-0.140	2.160	116.01	-1.60	2.70	 	 	 	 	 	 	 	 	 	 	 	 	 	 	 	 	 	 	1581467123	4.73	8.76
12/02/2020 00:25:24	120220	12022020	002524	115.90	13.900785	-56.942660	116.05	0.790	-0.230	2.080	115.88	-1.80	2.50	 	 	 	 	 	 	 	 	 	 	 	 	 	 	 	 	 	 	1581467124	4.61	8.54
12/02/2020 00:25:25	120220	12022020	002525	115.81	13.900777	-56.942640	115.96	0.830	-0.480	1.860	115.78	-2.00	2.40	 	 	 	 	 	 	 	 	 	 	 	 	 	 	 	 	 	 	1581467125	4.82	8.93
12/02/2020 00:25:26	120220	12022020	002526	115.64	13.900767	-56.942618	115.80	0.330	-0.680	2.020	115.60	-2.10	2.70	 	 	 	 	 	 	 	 	 	 	 	 	 	 	 	 	 	 	1581467126	4.92	9.11
12/02/2020 00:25:27	120220	12022020	002527	115.53	13.900752	-56.942602	115.73	-0.330	-0.460	2.500	115.54	-1.70	3.10	 	 	 	 	 	 	 	 	 	 	 	 	 	 	 	 	 	 	1581467127	4.77	8.83
12/02/2020 00:25:28	120220	12022020	002528	115.74	13.900737	-56.942587	115.98	-0.700	0.150	2.890	115.80	-1.10	3.50	 	 	 	 	 	 	 	 	 	 	 	 	 	 	 	 	 	 	1581467128	4.49	8.32
12/02/2020 00:25:29	120220	12022020	002529	115.97	13.900720	-56.942573	116.17	-0.590	0.500	3.210	115.97	-1.00	3.80	 	 	 	 	 	 	 	 	 	 	 	 	 	 	 	 	 	 	1581467129	4.55	8.43
12/02/2020 00:25:30	120220	12022020	002530	115.78	13.900703	-56.942555	115.91	-0.090	0.080	3.410	115.69	-1.70	3.80	 	 	 	 	 	 	 	 	 	 	 	 	 	 	 	 	 	 	1581467130	5.12	9.48
12/02/2020 00:25:31	120220	12022020	002531	115.41	13.900690	-56.942533	115.57	0.370	-0.590	3.160	115.37	-2.20	3.50	 	 	 	 	 	 	 	 	 	 	 	 	 	 	 	 	 	 	1581467131	5.55	10.28
12/02/2020 00:25:32	120220	12022020	002532	115.36	13.900678	-56.942512	115.55	0.490	-0.820	2.720	115.39	-2.20	3.00	 	 	 	 	 	 	 	 	 	 	 	 	 	 	 	 	 	 	1581467132	5.17	9.57
12/02/2020 00:25:33	120220	12022020	002533	115.55	13.900670	-56.942492	115.74	0.410	-0.570	2.280	115.59	-1.90	2.60	 	 	 	 	 	 	 	 	 	 	 	 	 	 	 	 	 	 	1581467133	4.62	8.56
12/02/2020 00:25:34	120220	12022020	002534	115.70	13.900662	-56.942472	115.89	0.330	-0.240	1.870	115.74	-1.50	2.20	 	 	 	 	 	 	 	 	 	 	 	 	 	 	 	 	 	 	1581467134	4.59	8.50
12/02/2020 00:25:35	120220	12022020	002535	115.97	13.900652	-56.942452	116.17	0.050	0.160	1.550	116.03	-1.10	2.00	 	 	 	 	 	 	 	 	 	 	 	 	 	 	 	 	 	 	1581467135	4.56	8.45
12/02/2020 00:25:36	120220	12022020	002536	116.27	13.900638	-56.942435	116.46	-0.460	0.560	1.640	116.31	-0.80	2.30	 	 	 	 	 	 	 	 	 	 	 	 	 	 	 	 	 	 	1581467136	4.42	8.19
12/02/2020 00:25:37	120220	12022020	002537	116.37	13.900623	-56.942420	116.55	-0.850	0.660	2.050	116.37	-0.80	2.70	 	 	 	 	 	 	 	 	 	 	 	 	 	 	 	 	 	 	1581467137	4.66	8.63
12/02/2020 00:25:38	120220	12022020	002538	116.32	13.900607	-56.942405	116.49	-0.840	0.390	2.420	116.30	-1.30	3.00	 	 	 	 	 	 	 	 	 	 	 	 	 	 	 	 	 	 	1581467138	4.93	9.13
12/02/2020 00:25:39	120220	12022020	002539	116.23	13.900592	-56.942385	116.40	-0.440	-0.280	2.600	116.21	-2.10	3.20	 	 	 	 	 	 	 	 	 	 	 	 	 	 	 	 	 	 	1581467139	5.13	9.50
12/02/2020 00:25:40	120220	12022020	002540	116.04	13.900577	-56.942363	116.19	0.170	-1.280	2.710	115.98	-3.10	3.30	 	 	 	 	 	 	 	 	 	 	 	 	 	 	 	 	 	 	1581467140	5.59	10.35
12/02/2020 00:25:41	120220	12022020	002541	115.70	13.900562	-56.942340	115.84	0.760	-2.000	2.770	115.64	-3.40	3.30	 	 	 	 	 	 	 	 	 	 	 	 	 	 	 	 	 	 	1581467141	5.96	11.04
12/02/2020 00:25:42	120220	12022020	002542	115.49	13.900548	-56.942320	115.67	0.980	-1.400	2.680	115.48	-2.20	3.10	 	 	 	 	 	 	 	 	 	 	 	 	 	 	 	 	 	 	1581467142	5.15	9.54
12/02/2020 00:25:43	120220	12022020	002543	115.51	13.900540	-56.942303	115.70	0.700	0.270	2.410	115.53	-0.50	2.80	 	 	 	 	 	 	 	 	 	 	 	 	 	 	 	 	 	 	1581467143	3.74	6.93
12/02/2020 00:25:44	120220	12022020	002544	115.57	13.900532	-56.942290	115.75	0.130	1.570	2.040	115.58	0.30	2.40	 	 	 	 	 	 	 	 	 	 	 	 	 	 	 	 	 	 	1581467144	3.45	6.39
12/02/2020 00:25:45	120220	12022020	002545	115.63	13.900523	-56.942270	115.78	-0.440	1.600	1.630	115.63	-0.10	2.00	 	 	 	 	 	 	 	 	 	 	 	 	 	 	 	 	 	 	1581467145	4.43	8.20
12/02/2020 00:25:46	120220	12022020	002546	115.65	13.900512	-56.942248	115.81	-0.800	0.710	1.410	115.65	-1.20	2.00	 	 	 	 	 	 	 	 	 	 	 	 	 	 	 	 	 	 	1581467146	5.34	9.89
12/02/2020 00:25:47	120220	12022020	002547	115.64	13.900495	-56.942227	115.82	-0.850	-0.450	1.670	115.65	-2.30	2.40	 	 	 	 	 	 	 	 	 	 	 	 	 	 	 	 	 	 	1581467147	5.70	10.56
12/02/2020 00:25:48	120220	12022020	002548	115.68	13.900478	-56.942205	115.86	-0.550	-1.400	2.110	115.68	-3.00	2.80	 	 	 	 	 	 	 	 	 	 	 	 	 	 	 	 	 	 	1581467148	5.78	10.70
12/02/2020 00:25:49	120220	12022020	002549	115.60	13.900460	-56.942187	115.76	-0.050	-1.690	2.570	115.55	-3.00	3.30	 	 	 	 	 	 	 	 	 	 	 	 	 	 	 	 	 	 	1581467149	5.51	10.20
12/02/2020 00:25:50	120220	12022020	002550	115.27	13.900445	-56.942170	115.42	0.320	-1.110	3.030	115.19	-2.10	3.70	 	 	 	 	 	 	 	 	 	 	 	 	 	 	 	 	 	 	1581467150	4.86	9.00
12/02/2020 00:25:51	120220	12022020	002551	114.85	13.900432	-56.942153	115.01	0.340	-0.100	3.230	114.78	-1.20	3.70	 	 	 	 	 	 	 	 	 	 	 	 	 	 	 	 	 	 	1581467151	4.25	7.87
12/02/2020 00:25:52	120220	12022020	002552	114.57	13.900422	-56.942137	114.74	0.170	0.560	2.990	114.54	-0.80	3.30	 	 	 	 	 	 	 	 	 	 	 	 	 	 	 	 	 	 	1581467152	4.30	7.96
12/02/2020 00:25:53	120220	12022020	002553	114.51	13.900412	-56.942115	114.70	0.060	0.480	2.460	114.53	-1.10	2.70	 	 	 	 	 	 	 	 	 	 	 	 	 	 	 	 	 	 	1581467153	5.00	9.26
12/02/2020 00:25:54	120220	12022020	002554	114.68	13.900402	-56.942092	114.87	0.030	0.090	1.890	114.72	-1.40	2.20	 	 	 	 	 	 	 	 	 	 	 	 	 	 	 	 	 	 	1581467154	5.45	10.09
12/02/2020 00:25:55	120220	12022020	002555	114.85	13.900392	-56.942068	115.00	-0.030	-0.100	1.470	114.86	-1.50	1.90	 	 	 	 	 	 	 	 	 	 	 	 	 	 	 	 	 	 	1581467155	5.18	9.59
12/02/2020 00:25:56	120220	12022020	002556	114.79	13.900380	-56.942048	114.91	-0.090	-0.140	1.450	114.75	-1.60	2.10	 	 	 	 	 	 	 	 	 	 	 	 	 	 	 	 	 	 	1581467156	4.91	9.09
12/02/2020 00:25:57	120220	12022020	002557	114.56	13.900367	-56.942030	114.69	-0.080	-0.200	1.760	114.52	-1.60	2.40	 	 	 	 	 	 	 	 	 	 	 	 	 	 	 	 	 	 	1581467157	4.98	9.22
12/02/2020 00:25:58	120220	12022020	002558	114.43	13.900353	-56.942010	114.61	-0.020	-0.190	2.180	114.45	-1.60	2.80	 	 	 	 	 	 	 	 	 	 	 	 	 	 	 	 	 	 	1581467158	5.03	9.32
12/02/2020 00:25:59	120220	12022020	002559	114.62	13.900340	-56.941992	114.83	-0.070	-0.050	2.490	114.68	-1.40	3.10	 	 	 	 	 	 	 	 	 	 	 	 	 	 	 	 	 	 	1581467159	4.84	8.96
12/02/2020 00:26:00	120220	12022020	002600	114.95	13.900328	-56.941973	115.18	-0.230	0.060	2.560	115.01	-1.40	3.00	 	 	 	 	 	 	 	 	 	 	 	 	 	 	 	 	 	 	1581467160	4.62	8.56
12/02/2020 00:26:01	120220	12022020	002601	115.13	13.900315	-56.941953	115.31	-0.280	-0.200	2.480	115.13	-1.80	3.00	 	 	 	 	 	 	 	 	 	 	 	 	 	 	 	 	 	 	1581467161	4.85	8.98
12/02/2020 00:26:02	120220	12022020	002602	115.01	13.900302	-56.941932	115.17	-0.030	-0.810	2.640	114.96	-2.50	3.30	1017.00	26.20	26.20	20.80	20.90	-1.0	72.0	72.0	392.0	25.9	321.00	13.80	70.00	12.00	16	9314.0	27.1	27.1	1581467162	5.45	10.09
12/02/2020 00:26:03	120220	12022020	002603	114.68	13.900285	-56.941910	114.82	0.380	-1.310	3.120	114.59	-2.70	3.80	 	 	 	 	 	 	 	 	 	 	 	 	 	 	 	 	 	 	1581467163	5.92	10.96
12/02/2020 00:26:04	120220	12022020	002604	114.31	13.900270	-56.941890	114.47	0.540	-0.960	3.260	114.28	-1.90	3.60	 	 	 	 	 	 	 	 	 	 	 	 	 	 	 	 	 	 	1581467164	5.45	10.09
12/02/2020 00:26:05	120220	12022020	002605	114.26	13.900262	-56.941872	114.47	0.160	0.340	2.750	114.30	-0.50	2.90	 	 	 	 	 	 	 	 	 	 	 	 	 	 	 	 	 	 	1581467165	4.14	7.67
12/02/2020 00:26:06	120220	12022020	002606	114.52	13.900257	-56.941855	114.72	-0.510	1.470	2.010	114.59	0.20	2.30	 	 	 	 	 	 	 	 	 	 	 	 	 	 	 	 	 	 	1581467166	3.59	6.65
12/02/2020 00:26:07	120220	12022020	002607	114.84	13.900248	-56.941835	115.03	-0.910	1.260	1.410	114.90	-0.70	1.70	 	 	 	 	 	 	 	 	 	 	 	 	 	 	 	 	 	 	1581467167	4.45	8.24
12/02/2020 00:26:08	120220	12022020	002608	115.04	13.900235	-56.941810	115.20	-0.640	-0.270	1.090	115.04	-2.40	1.60	 	 	 	 	 	 	 	 	 	 	 	 	 	 	 	 	 	 	1581467168	6.01	11.13
12/02/2020 00:26:09	120220	12022020	002609	115.01	13.900218	-56.941783	115.19	0.030	-1.660	1.330	114.99	-3.30	2.10	 	 	 	 	 	 	 	 	 	 	 	 	 	 	 	 	 	 	1581467169	6.63	12.28
12/02/2020 00:26:10	120220	12022020	002610	114.93	13.900202	-56.941763	115.14	0.530	-1.620	1.870	114.93	-2.60	2.50	 	 	 	 	 	 	 	 	 	 	 	 	 	 	 	 	 	 	1581467170	5.68	10.52
12/02/2020 00:26:11	120220	12022020	002611	114.97	13.900188	-56.941748	115.18	0.570	-0.290	2.110	114.98	-1.10	2.60	 	 	 	 	 	 	 	 	 	 	 	 	 	 	 	 	 	 	1581467171	4.01	7.43
12/02/2020 00:26:12	120220	12022020	002612	114.98	13.900180	-56.941735	115.17	0.330	0.910	2.130	114.96	-0.40	2.60	 	 	 	 	 	 	 	 	 	 	 	 	 	 	 	 	 	 	1581467172	3.43	6.35
12/02/2020 00:26:13	120220	12022020	002613	114.81	13.900172	-56.941715	114.99	0.100	0.860	2.190	114.76	-0.90	2.80	 	 	 	 	 	 	 	 	 	 	 	 	 	 	 	 	 	 	1581467173	4.51	8.35
12/02/2020 00:26:14	120220	12022020	002614	114.67	13.900158	-56.941692	114.90	-0.100	0.010	2.360	114.68	-1.70	2.90	 	 	 	 	 	 	 	 	 	 	 	 	 	 	 	 	 	 	1581467174	5.66	10.48
12/02/2020 00:26:15	120220	12022020	002615	114.82	13.900143	-56.941670	115.07	-0.330	-0.480	2.530	114.87	-1.80	3.10	 	 	 	 	 	 	 	 	 	 	 	 	 	 	 	 	 	 	1581467175	5.55	10.28
12/02/2020 00:26:16	120220	12022020	002616	115.04	13.900130	-56.941653	115.27	-0.480	-0.320	2.680	115.07	-1.60	3.20	 	 	 	 	 	 	 	 	 	 	 	 	 	 	 	 	 	 	1581467176	4.75	8.80
12/02/2020 00:26:17	120220	12022020	002617	115.01	13.900115	-56.941637	115.18	-0.300	-0.310	2.870	114.96	-1.90	3.50	 	 	 	 	 	 	 	 	 	 	 	 	 	 	 	 	 	 	1581467177	4.64	8.59
12/02/2020 00:26:18	120220	12022020	002618	114.63	13.900102	-56.941615	114.76	0.240	-0.950	3.170	114.53	-2.60	3.80	 	 	 	 	 	 	 	 	 	 	 	 	 	 	 	 	 	 	1581467178	5.51	10.20
12/02/2020 00:26:19	120220	12022020	002619	114.19	13.900087	-56.941590	114.37	0.710	-1.480	3.340	114.15	-2.80	3.80	 	 	 	 	 	 	 	 	 	 	 	 	 	 	 	 	 	 	1581467179	6.07	11.24
12/02/2020 00:26:20	120220	12022020	002620	114.24	13.900075	-56.941568	114.51	0.610	-0.860	3.000	114.34	-1.60	3.30	 	 	 	 	 	 	 	 	 	 	 	 	 	 	 	 	 	 	1581467180	5.21	9.65
12/02/2020 00:26:21	120220	12022020	002621	114.88	13.900067	-56.941552	115.18	-0.050	0.660	2.440	115.03	-0.10	2.70	 	 	 	 	 	 	 	 	 	 	 	 	 	 	 	 	 	 	1581467181	3.86	7.15
12/02/2020 00:26:22	120220	12022020	002622	115.51	13.900057	-56.941537	115.76	-0.780	1.760	2.040	115.59	0.50	2.40	 	 	 	 	 	 	 	 	 	 	 	 	 	 	 	 	 	 	1581467182	3.65	6.76
12/02/2020 00:26:23	120220	12022020	002623	115.74	13.900045	-56.941520	115.92	-1.040	1.650	1.790	115.75	-0.10	2.30	 	 	 	 	 	 	 	 	 	 	 	 	 	 	 	 	 	 	1581467183	4.54	8.41
12/02/2020 00:26:24	120220	12022020	002624	115.69	13.900032	-56.941498	115.85	-0.740	0.570	1.850	115.65	-1.40	2.50	 	 	 	 	 	 	 	 	 	 	 	 	 	 	 	 	 	 	1581467184	5.42	10.04
12/02/2020 00:26:25	120220	12022020	002625	115.52	13.900017	-56.941473	115.69	-0.060	-0.880	2.100	115.49	-2.80	2.70	 	 	 	 	 	 	 	 	 	 	 	 	 	 	 	 	 	 	1581467185	5.92	10.96
12/02/2020 00:26:26	120220	12022020	002626	115.36	13.900002	-56.941450	115.52	0.740	-2.160	2.200	115.31	-3.90	2.80	 	 	 	 	 	 	 	 	 	 	 	 	 	 	 	 	 	 	1581467186	6.11	11.32
12/02/2020 00:26:27	120220	12022020	002627	115.03	13.899987	-56.941425	115.18	1.370	-2.700	2.330	114.94	-3.90	2.90	 	 	 	 	 	 	 	 	 	 	 	 	 	 	 	 	 	 	1581467187	6.04	11.19
12/02/2020 00:26:28	120220	12022020	002628	114.67	13.899973	-56.941403	114.83	1.440	-1.850	2.480	114.63	-2.40	3.00	 	 	 	 	 	 	 	 	 	 	 	 	 	 	 	 	 	 	1581467188	5.28	9.78
12/02/2020 00:26:29	120220	12022020	002629	114.72	13.899965	-56.941388	114.94	0.760	0.340	2.290	114.80	-0.00	2.60	 	 	 	 	 	 	 	 	 	 	 	 	 	 	 	 	 	 	1581467189	3.80	7.04
12/02/2020 00:26:30	120220	12022020	002630	115.24	13.899960	-56.941375	115.49	-0.460	2.550	1.810	115.36	1.70	2.20	 	 	 	 	 	 	 	 	 	 	 	 	 	 	 	 	 	 	1581467190	2.90	5.37
12/02/2020 00:26:31	120220	12022020	002631	115.73	13.899952	-56.941360	115.93	-1.680	3.180	1.610	115.79	1.40	2.20	 	 	 	 	 	 	 	 	 	 	 	 	 	 	 	 	 	 	1581467191	3.57	6.61
12/02/2020 00:26:32	120220	12022020	002632	115.83	13.899933	-56.941342	115.98	-2.150	1.750	1.980	115.80	-0.70	2.70	 	 	 	 	 	 	 	 	 	 	 	 	 	 	 	 	 	 	1581467192	5.48	10.15
12/02/2020 00:26:33	120220	12022020	002633	115.63	13.899910	-56.941318	115.77	-1.480	-0.880	2.530	115.57	-3.30	3.20	 	 	 	 	 	 	 	 	 	 	 	 	 	 	 	 	 	 	1581467193	7.09	13.13
12/02/2020 00:26:34	120220	12022020	002634	115.29	13.899888	-56.941293	115.43	-0.030	-3.040	2.930	115.20	-4.80	3.60	 	 	 	 	 	 	 	 	 	 	 	 	 	 	 	 	 	 	1581467194	7.17	13.28
12/02/2020 00:26:35	120220	12022020	002635	114.84	13.899872	-56.941270	114.97	1.350	-3.540	3.130	114.74	-4.60	3.60	 	 	 	 	 	 	 	 	 	 	 	 	 	 	 	 	 	 	1581467195	6.06	11.22
12/02/2020 00:26:36	120220	12022020	002636	114.36	13.899862	-56.941250	114.50	1.920	-2.310	2.920	114.28	-2.80	3.20	 	 	 	 	 	 	 	 	 	 	 	 	 	 	 	 	 	 	1581467196	4.63	8.57
12/02/2020 00:26:37	120220	12022020	002637	114.06	13.899857	-56.941233	114.23	1.530	-0.120	2.240	114.04	-0.50	2.40	 	 	 	 	 	 	 	 	 	 	 	 	 	 	 	 	 	 	1581467197	3.80	7.04
12/02/2020 00:26:38	120220	12022020	002638	114.10	13.899853	-56.941217	114.29	0.490	2.020	1.510	114.14	1.20	1.80	 	 	 	 	 	 	 	 	 	 	 	 	 	 	 	 	 	 	1581467198	3.44	6.37
12/02/2020 00:26:39	120220	12022020	002639	114.32	13.899847	-56.941200	114.51	-0.600	3.050	1.060	114.37	1.60	1.50	 	 	 	 	 	 	 	 	 	 	 	 	 	 	 	 	 	 	1581467199	3.76	6.96
12/02/2020 00:26:40	120220	12022020	002640	114.57	13.899837	-56.941180	114.74	-1.230	2.340	0.910	114.61	0.20	1.50	 	 	 	 	 	 	 	 	 	 	 	 	 	 	 	 	 	 	1581467200	4.91	9.09
12/02/2020 00:26:41	120220	12022020	002641	114.73	13.899818	-56.941155	114.89	-1.160	0.270	1.240	114.74	-2.10	2.10	 	 	 	 	 	 	 	 	 	 	 	 	 	 	 	 	 	 	1581467201	6.28	11.63
12/02/2020 00:26:42	120220	12022020	002642	114.62	13.899797	-56.941132	114.77	-0.560	-1.870	2.230	114.56	-3.80	3.20	 	 	 	 	 	 	 	 	 	 	 	 	 	 	 	 	 	 	1581467202	6.98	12.93
12/02/2020 00:26:43	120220	12022020	002643	114.19	13.899775	-56.941110	114.31	0.180	-2.830	3.330	114.07	-4.10	4.20	 	 	 	 	 	 	 	 	 	 	 	 	 	 	 	 	 	 	1581467203	6.44	11.93
12/02/2020 00:26:44	120220	12022020	002644	113.60	13.899758	-56.941093	113.73	0.620	-2.180	4.080	113.48	-2.90	4.70	 	 	 	 	 	 	 	 	 	 	 	 	 	 	 	 	 	 	1581467204	5.06	9.37
12/02/2020 00:26:45	120220	12022020	002645	113.09	13.899747	-56.941080	113.26	0.540	-0.550	4.330	113.02	-1.20	4.80	 	 	 	 	 	 	 	 	 	 	 	 	 	 	 	 	 	 	1581467205	3.85	7.13
12/02/2020 00:26:46	120220	12022020	002646	112.78	13.899738	-56.941063	112.98	0.130	0.860	4.030	112.75	-0.30	4.20	 	 	 	 	 	 	 	 	 	 	 	 	 	 	 	 	 	 	1581467206	3.71	6.87
12/02/2020 00:26:47	120220	12022020	002647	112.78	13.899730	-56.941043	113.02	-0.120	1.130	3.090	112.84	-0.50	3.00	 	 	 	 	 	 	 	 	 	 	 	 	 	 	 	 	 	 	1581467207	4.60	8.52
12/02/2020 00:26:48	120220	12022020	002648	113.24	13.899722	-56.941018	113.49	0.120	0.370	1.720	113.35	-1.40	1.70	 	 	 	 	 	 	 	 	 	 	 	 	 	 	 	 	 	 	1581467208	5.76	10.67
12/02/2020 00:26:49	120220	12022020	002649	113.75	13.899713	-56.940990	113.92	0.620	-0.500	0.650	113.80	-2.10	1.00	 	 	 	 	 	 	 	 	 	 	 	 	 	 	 	 	 	 	1581467209	6.15	11.39
12/02/2020 00:26:50	120220	12022020	002650	113.81	13.899705	-56.940963	113.94	0.800	-0.740	0.480	113.78	-1.90	1.20	 	 	 	 	 	 	 	 	 	 	 	 	 	 	 	 	 	 	1581467210	5.63	10.43
12/02/2020 00:26:51	120220	12022020	002651	113.71	13.899695	-56.940945	113.88	0.160	-0.030	1.130	113.73	-0.90	2.10	 	 	 	 	 	 	 	 	 	 	 	 	 	 	 	 	 	 	1581467211	4.57	8.46
12/02/2020 00:26:52	120220	12022020	002652	113.93	13.899680	-56.940935	114.18	-1.010	1.050	2.300	114.03	-0.10	3.30	 	 	 	 	 	 	 	 	 	 	 	 	 	 	 	 	 	 	1581467212	4.00	7.41
12/02/2020 00:26:53	120220	12022020	002653	114.54	13.899660	-56.940923	114.83	-1.650	1.280	3.350	114.67	-0.50	4.20	 	 	 	 	 	 	 	 	 	 	 	 	 	 	 	 	 	 	1581467213	4.61	8.54
12/02/2020 00:26:54	120220	12022020	002654	114.98	13.899640	-56.940907	115.22	-0.920	-0.230	4.010	115.00	-2.50	4.70	 	 	 	 	 	 	 	 	 	 	 	 	 	 	 	 	 	 	1581467214	5.91	10.95
12/02/2020 00:26:55	120220	12022020	002655	114.71	13.899618	-56.940880	114.87	0.700	-2.290	4.480	114.58	-4.10	5.10	 	 	 	 	 	 	 	 	 	 	 	 	 	 	 	 	 	 	1581467215	7.16	13.26
12/02/2020 00:26:56	120220	12022020	002656	114.08	13.899603	-56.940853	114.29	1.770	-2.650	4.730	114.01	-3.50	5.20	 	 	 	 	 	 	 	 	 	 	 	 	 	 	 	 	 	 	1581467216	6.31	11.69
12/02/2020 00:26:57	120220	12022020	002657	114.04	13.899595	-56.940837	114.35	1.530	-0.920	4.430	114.14	-1.30	4.60	 	 	 	 	 	 	 	 	 	 	 	 	 	 	 	 	 	 	1581467217	4.00	7.41
12/02/2020 00:26:58	120220	12022020	002658	114.75	13.899592	-56.940823	115.08	0.450	1.190	3.350	114.92	0.30	3.30	 	 	 	 	 	 	 	 	 	 	 	 	 	 	 	 	 	 	1581467218	2.86	5.30
12/02/2020 00:26:59	120220	12022020	002659	115.49	13.899588	-56.940805	115.73	-0.470	1.920	1.970	115.58	0.40	2.00	 	 	 	 	 	 	 	 	 	 	 	 	 	 	 	 	 	 	1581467219	3.80	7.04
12/02/2020 00:27:00	120220	12022020	002700	115.74	13.899580	-56.940782	115.90	-0.770	1.200	1.100	115.74	-0.60	1.50	 	 	 	 	 	 	 	 	 	 	 	 	 	 	 	 	 	 	1581467220	5.31	9.83
12/02/2020 00:27:01	120220	12022020	002701	115.66	13.899565	-56.940760	115.82	-0.720	0.200	1.090	115.66	-1.50	1.70	 	 	 	 	 	 	 	 	 	 	 	 	 	 	 	 	 	 	1581467221	5.76	10.67
12/02/2020 00:27:02	120220	12022020	002702	115.74	13.899550	-56.940740	115.91	-0.610	-0.340	1.260	115.77	-1.90	1.80	1016.90	26.10	26.20	20.60	20.80	-1.0	71.0	72.0	392.0	25.8	319.00	15.60	67.00	13.80	17	9706.0	27.1	27.1	1581467222	5.23	9.69
12/02/2020 00:27:03	120220	12022020	002703	115.91	13.899535	-56.940722	116.08	-0.460	-0.750	1.310	115.92	-2.40	1.90	 	 	 	 	 	 	 	 	 	 	 	 	 	 	 	 	 	 	1581467223	4.85	8.98
12/02/2020 00:27:04	120220	12022020	002704	115.78	13.899518	-56.940703	115.91	-0.090	-1.440	1.580	115.70	-3.10	2.30	 	 	 	 	 	 	 	 	 	 	 	 	 	 	 	 	 	 	1581467224	5.42	10.04
12/02/2020 00:27:05	120220	12022020	002705	115.21	13.899500	-56.940682	115.32	0.510	-1.930	2.210	115.06	-3.20	3.00	 	 	 	 	 	 	 	 	 	 	 	 	 	 	 	 	 	 	1581467225	5.97	11.06
12/02/2020 00:27:06	120220	12022020	002706	114.42	13.899483	-56.940662	114.53	1.030	-1.430	2.700	114.28	-2.30	3.20	 	 	 	 	 	 	 	 	 	 	 	 	 	 	 	 	 	 	1581467226	5.43	10.06
12/02/2020 00:27:07	120220	12022020	002707	113.96	13.899475	-56.940643	114.14	0.980	0.060	2.560	113.95	-0.60	2.80	 	 	 	 	 	 	 	 	 	 	 	 	 	 	 	 	 	 	1581467227	4.28	7.93
12/02/2020 00:27:08	120220	12022020	002708	114.12	13.899470	-56.940628	114.35	0.230	1.610	1.940	114.20	0.60	2.20	 	 	 	 	 	 	 	 	 	 	 	 	 	 	 	 	 	 	1581467228	3.57	6.61
12/02/2020 00:27:09	120220	12022020	002709	114.53	13.899462	-56.940610	114.75	-0.630	2.040	1.480	114.62	0.40	1.90	 	 	 	 	 	 	 	 	 	 	 	 	 	 	 	 	 	 	1581467229	4.03	7.46
12/02/2020 00:27:10	120220	12022020	002710	114.95	13.899448	-56.940588	115.16	-0.930	1.090	1.410	115.04	-0.90	1.90	 	 	 	 	 	 	 	 	 	 	 	 	 	 	 	 	 	 	1581467230	5.34	9.89
12/02/2020 00:27:11	120220	12022020	002711	115.35	13.899430	-56.940567	115.54	-0.530	-0.410	1.610	115.39	-2.30	2.30	 	 	 	 	 	 	 	 	 	 	 	 	 	 	 	 	 	 	1581467231	6.15	11.39
12/02/2020 00:27:12	120220	12022020	002712	115.31	13.899412	-56.940545	115.44	0.100	-1.450	2.290	115.23	-3.00	3.20	 	 	 	 	 	 	 	 	 	 	 	 	 	 	 	 	 	 	1581467232	6.02	11.15
12/02/2020 00:27:13	120220	12022020	002713	114.78	13.899393	-56.940527	114.91	0.390	-1.560	3.270	114.68	-2.70	4.10	 	 	 	 	 	 	 	 	 	 	 	 	 	 	 	 	 	 	1581467233	5.41	10.02
12/02/2020 00:27:14	120220	12022020	002714	114.36	13.899378	-56.940512	114.54	0.190	-0.920	3.950	114.31	-2.00	4.50	 	 	 	 	 	 	 	 	 	 	 	 	 	 	 	 	 	 	1581467234	4.69	8.69
12/02/2020 00:27:15	120220	12022020	002715	114.18	13.899363	-56.940495	114.37	-0.050	-0.350	3.900	114.14	-1.60	4.20	 	 	 	 	 	 	 	 	 	 	 	 	 	 	 	 	 	 	1581467235	4.46	8.26
12/02/2020 00:27:16	120220	12022020	002716	113.91	13.899352	-56.940475	114.07	0.160	-0.320	3.380	113.84	-1.70	3.60	 	 	 	 	 	 	 	 	 	 	 	 	 	 	 	 	 	 	1581467236	5.06	9.37
12/02/2020 00:27:17	120220	12022020	002717	113.64	13.899343	-56.940450	113.84	0.540	-0.270	2.640	113.64	-1.40	2.80	 	 	 	 	 	 	 	 	 	 	 	 	 	 	 	 	 	 	1581467237	5.51	10.20
12/02/2020 00:27:18	120220	12022020	002718	113.91	13.899338	-56.940428	114.17	0.440	0.390	1.650	114.03	-0.60	1.80	 	 	 	 	 	 	 	 	 	 	 	 	 	 	 	 	 	 	1581467238	4.87	9.02
12/02/2020 00:27:19	120220	12022020	002719	114.58	13.899332	-56.940410	114.81	-0.220	1.170	0.930	114.72	-0.10	1.40	 	 	 	 	 	 	 	 	 	 	 	 	 	 	 	 	 	 	1581467239	4.04	7.48
12/02/2020 00:27:20	120220	12022020	002720	115.13	13.899322	-56.940392	115.31	-0.820	1.150	0.970	115.19	-0.60	1.70	 	 	 	 	 	 	 	 	 	 	 	 	 	 	 	 	 	 	1581467240	4.29	7.95
12/02/2020 00:27:21	120220	12022020	002721	115.21	13.899303	-56.940372	115.34	-0.650	-0.190	1.660	115.17	-2.30	2.50	 	 	 	 	 	 	 	 	 	 	 	 	 	 	 	 	 	 	1581467241	5.79	10.72
12/02/2020 00:27:22	120220	12022020	002722	114.87	13.899282	-56.940347	114.99	0.170	-1.900	2.540	114.77	-3.60	3.40	 	 	 	 	 	 	 	 	 	 	 	 	 	 	 	 	 	 	1581467242	6.99	12.95
12/02/2020 00:27:23	120220	12022020	002723	114.49	13.899262	-56.940325	114.67	0.810	-2.180	3.230	114.45	-3.00	3.80	 	 	 	 	 	 	 	 	 	 	 	 	 	 	 	 	 	 	1581467243	6.27	11.61
12/02/2020 00:27:24	120220	12022020	002724	114.43	13.899250	-56.940310	114.66	0.630	-0.590	3.290	114.46	-1.10	3.60	 	 	 	 	 	 	 	 	 	 	 	 	 	 	 	 	 	 	1581467244	4.06	7.52
12/02/2020 00:27:25	120220	12022020	002725	114.62	13.899243	-56.940298	114.84	-0.150	1.360	2.680	114.66	0.40	2.80	 	 	 	 	 	 	 	 	 	 	 	 	 	 	 	 	 	 	1581467245	2.74	5.07
12/02/2020 00:27:26	120220	12022020	002726	114.86	13.899238	-56.940282	115.05	-0.800	1.930	1.620	114.91	0.20	1.70	 	 	 	 	 	 	 	 	 	 	 	 	 	 	 	 	 	 	1581467246	3.56	6.59
12/02/2020 00:27:27	120220	12022020	002727	115.05	13.899230	-56.940258	115.19	-0.750	0.660	0.890	115.06	-1.50	1.40	 	 	 	 	 	 	 	 	 	 	 	 	 	 	 	 	 	 	1581467247	5.36	9.93
12/02/2020 00:27:28	120220	12022020	002728	115.02	13.899215	-56.940232	115.18	-0.160	-1.270	0.980	114.99	-3.20	1.70	 	 	 	 	 	 	 	 	 	 	 	 	 	 	 	 	 	 	1581467248	6.64	12.30
12/02/2020 00:27:29	120220	12022020	002729	114.90	13.899198	-56.940207	115.08	0.340	-2.220	1.410	114.88	-3.50	2.10	 	 	 	 	 	 	 	 	 	 	 	 	 	 	 	 	 	 	1581467249	6.37	11.80
12/02/2020 00:27:30	120220	12022020	002730	114.84	13.899180	-56.940190	115.04	0.340	-1.540	1.850	114.84	-2.30	2.50	 	 	 	 	 	 	 	 	 	 	 	 	 	 	 	 	 	 	1581467250	5.09	9.43
12/02/2020 00:27:31	120220	12022020	002731	114.85	13.899167	-56.940178	115.05	0.070	0.010	2.150	114.86	-0.80	2.70	 	 	 	 	 	 	 	 	 	 	 	 	 	 	 	 	 	 	1581467251	4.02	7.45
12/02/2020 00:27:32	120220	12022020	002732	114.90	13.899155	-56.940163	115.10	-0.060	1.280	2.110	114.91	0.10	2.50	 	 	 	 	 	 	 	 	 	 	 	 	 	 	 	 	 	 	1581467252	3.66	6.78
12/02/2020 00:27:33	120220	12022020	002733	114.93	13.899148	-56.940145	115.10	-0.020	1.490	1.800	114.92	-0.20	2.20	 	 	 	 	 	 	 	 	 	 	 	 	 	 	 	 	 	 	1581467253	4.30	7.96
12/02/2020 00:27:34	120220	12022020	002734	114.77	13.899138	-56.940122	114.91	0.080	0.500	1.590	114.72	-1.40	2.10	 	 	 	 	 	 	 	 	 	 	 	 	 	 	 	 	 	 	1581467254	5.42	10.04
12/02/2020 00:27:35	120220	12022020	002735	114.57	13.899125	-56.940095	114.75	0.090	-0.800	1.740	114.56	-2.50	2.40	 	 	 	 	 	 	 	 	 	 	 	 	 	 	 	 	 	 	1581467255	6.02	11.15
12/02/2020 00:27:36	120220	12022020	002736	114.67	13.899110	-56.940073	114.90	0.030	-1.420	2.110	114.72	-2.80	2.80	 	 	 	 	 	 	 	 	 	 	 	 	 	 	 	 	 	 	1581467256	5.70	10.56
12/02/2020 00:27:37	120220	12022020	002737	114.94	13.899093	-56.940057	115.18	-0.020	-1.150	2.500	114.99	-2.20	3.10	 	 	 	 	 	 	 	 	 	 	 	 	 	 	 	 	 	 	1581467257	5.05	9.35
12/02/2020 00:27:38	120220	12022020	002738	115.12	13.899078	-56.940042	115.33	-0.060	-0.360	2.750	115.12	-1.40	3.30	 	 	 	 	 	 	 	 	 	 	 	 	 	 	 	 	 	 	1581467258	4.50	8.33
12/02/2020 00:27:39	120220	12022020	002739	114.97	13.899065	-56.940027	115.14	0.000	0.260	2.870	114.91	-1.00	3.30	 	 	 	 	 	 	 	 	 	 	 	 	 	 	 	 	 	 	1581467259	4.41	8.17
12/02/2020 00:27:40	120220	12022020	002740	114.59	13.899053	-56.940007	114.76	0.200	0.280	2.750	114.53	-1.30	3.10	 	 	 	 	 	 	 	 	 	 	 	 	 	 	 	 	 	 	1581467260	4.85	8.98
12/02/2020 00:27:41	120220	12022020	002741	114.34	13.899043	-56.939983	114.53	0.370	-0.170	2.360	114.32	-1.70	2.70	 	 	 	 	 	 	 	 	 	 	 	 	 	 	 	 	 	 	1581467261	5.48	10.15
12/02/2020 00:27:42	120220	12022020	002742	114.38	13.899032	-56.939958	114.62	0.180	-0.420	1.970	114.42	-1.70	2.30	 	 	 	 	 	 	 	 	 	 	 	 	 	 	 	 	 	 	1581467262	5.47	10.13
12/02/2020 00:27:43	120220	12022020	002743	114.64	13.899022	-56.939938	114.87	-0.380	-0.130	1.630	114.70	-1.30	2.00	 	 	 	 	 	 	 	 	 	 	 	 	 	 	 	 	 	 	1581467263	4.83	8.95
12/02/2020 00:27:44	120220	12022020	002744	114.90	13.899010	-56.939922	115.11	-0.810	0.330	1.420	114.93	-0.90	1.90	 	 	 	 	 	 	 	 	 	 	 	 	 	 	 	 	 	 	1581467264	4.41	8.17
12/02/2020 00:27:45	120220	12022020	002745	114.98	13.898997	-56.939903	115.18	-0.630	0.430	1.540	114.97	-1.10	2.20	 	 	 	 	 	 	 	 	 	 	 	 	 	 	 	 	 	 	1581467265	4.64	8.59
12/02/2020 00:27:46	120220	12022020	002746	114.95	13.898983	-56.939883	115.16	-0.030	-0.000	1.900	114.95	-1.60	2.50	 	 	 	 	 	 	 	 	 	 	 	 	 	 	 	 	 	 	1581467266	5.22	9.67
12/02/2020 00:27:47	120220	12022020	002747	114.98	13.898970	-56.939862	115.20	0.370	-0.580	2.200	114.99	-2.10	2.80	 	 	 	 	 	 	 	 	 	 	 	 	 	 	 	 	 	 	1581467267	5.49	10.17
12/02/2020 00:27:48	120220	12022020	002748	114.98	13.898953	-56.939840	115.20	0.340	-0.960	2.530	114.96	-2.40	3.20	 	 	 	 	 	 	 	 	 	 	 	 	 	 	 	 	 	 	1581467268	5.45	10.09
12/02/2020 00:27:49	120220	12022020	002749	114.81	13.898937	-56.939822	115.00	0.210	-0.920	3.090	114.77	-2.10	3.70	 	 	 	 	 	 	 	 	 	 	 	 	 	 	 	 	 	 	1581467269	5.40	10.00
12/02/2020 00:27:50	120220	12022020	002750	114.64	13.898922	-56.939805	114.84	0.350	-0.360	3.270	114.63	-1.40	3.60	 	 	 	 	 	 	 	 	 	 	 	 	 	 	 	 	 	 	1581467270	4.96	9.19
12/02/2020 00:27:51	120220	12022020	002751	114.70	13.898912	-56.939785	114.93	0.560	0.320	2.660	114.74	-0.90	2.80	 	 	 	 	 	 	 	 	 	 	 	 	 	 	 	 	 	 	1581467271	4.47	8.28
12/02/2020 00:27:52	120220	12022020	002752	114.90	13.898905	-56.939763	115.12	0.460	0.590	1.890	114.92	-0.80	2.20	 	 	 	 	 	 	 	 	 	 	 	 	 	 	 	 	 	 	1581467272	4.65	8.61
12/02/2020 00:27:53	120220	12022020	002753	114.95	13.898898	-56.939742	115.14	-0.000	0.310	1.570	114.95	-1.30	2.00	 	 	 	 	 	 	 	 	 	 	 	 	 	 	 	 	 	 	1581467273	5.06	9.37
12/02/2020 00:27:54	120220	12022020	002754	114.87	13.898887	-56.939718	115.05	-0.550	-0.240	1.620	114.84	-1.80	2.20	 	 	 	 	 	 	 	 	 	 	 	 	 	 	 	 	 	 	1581467274	5.37	9.95
12/02/2020 00:27:55	120220	12022020	002755	114.68	13.898870	-56.939698	114.87	-0.820	-0.710	2.020	114.64	-2.20	2.70	 	 	 	 	 	 	 	 	 	 	 	 	 	 	 	 	 	 	1581467275	5.58	10.33
12/02/2020 00:27:56	120220	12022020	002756	114.53	13.898852	-56.939678	114.72	-0.640	-0.870	2.510	114.52	-2.20	3.10	 	 	 	 	 	 	 	 	 	 	 	 	 	 	 	 	 	 	1581467276	5.71	10.57
12/02/2020 00:27:57	120220	12022020	002757	114.56	13.898833	-56.939660	114.78	-0.160	-0.590	2.650	114.59	-1.70	3.00	 	 	 	 	 	 	 	 	 	 	 	 	 	 	 	 	 	 	1581467277	5.34	9.89
12/02/2020 00:27:58	120220	12022020	002758	114.75	13.898822	-56.939642	114.97	0.240	-0.040	2.320	114.80	-1.20	2.60	 	 	 	 	 	 	 	 	 	 	 	 	 	 	 	 	 	 	1581467278	4.75	8.80
12/02/2020 00:27:59	120220	12022020	002759	114.87	13.898812	-56.939622	115.03	0.290	0.380	1.900	114.85	-1.00	2.30	 	 	 	 	 	 	 	 	 	 	 	 	 	 	 	 	 	 	1581467279	4.57	8.46
12/02/2020 00:28:00	120220	12022020	002800	114.62	13.898803	-56.939602	114.71	0.070	0.350	1.760	114.53	-1.20	2.30	 	 	 	 	 	 	 	 	 	 	 	 	 	 	 	 	 	 	1581467280	4.84	8.96
12/02/2020 00:28:01	120220	12022020	002801	114.16	13.898792	-56.939578	114.27	0.000	-0.170	1.730	114.09	-1.80	2.20	 	 	 	 	 	 	 	 	 	 	 	 	 	 	 	 	 	 	1581467281	5.41	10.02
12/02/2020 00:28:02	120220	12022020	002802	113.96	13.898780	-56.939553	114.13	0.250	-0.760	1.590	113.98	-2.20	2.00	1017.00	26.20	26.20	20.80	20.80	-1.0	72.0	72.0	391.0	25.8	325.00	14.70	74.00	12.60	27	9847.0	27.1	27.1	1581467282	5.82	10.78
12/02/2020 00:28:03	120220	12022020	002803	114.23	13.898768	-56.939530	114.43	0.440	-0.700	1.410	114.30	-1.80	1.90	 	 	 	 	 	 	 	 	 	 	 	 	 	 	 	 	 	 	1581467283	5.39	9.98
12/02/2020 00:28:04	120220	12022020	002804	114.64	13.898757	-56.939513	114.85	0.220	-0.030	1.480	114.71	-1.10	2.10	 	 	 	 	 	 	 	 	 	 	 	 	 	 	 	 	 	 	1581467284	4.55	8.43
12/02/2020 00:28:05	120220	12022020	002805	114.87	13.898743	-56.939497	115.04	-0.270	0.580	1.820	114.87	-0.80	2.50	 	 	 	 	 	 	 	 	 	 	 	 	 	 	 	 	 	 	1581467285	4.27	7.91
12/02/2020 00:28:06	120220	12022020	002806	114.79	13.898730	-56.939480	114.93	-0.590	0.520	2.230	114.74	-1.10	2.90	 	 	 	 	 	 	 	 	 	 	 	 	 	 	 	 	 	 	1581467286	4.76	8.82
12/02/2020 00:28:07	120220	12022020	002807	114.47	13.898713	-56.939458	114.61	-0.520	-0.170	2.720	114.38	-1.90	3.50	 	 	 	 	 	 	 	 	 	 	 	 	 	 	 	 	 	 	1581467287	5.53	10.24
12/02/2020 00:28:08	120220	12022020	002808	114.02	13.898697	-56.939435	114.16	-0.230	-0.970	3.340	113.92	-2.60	4.00	 	 	 	 	 	 	 	 	 	 	 	 	 	 	 	 	 	 	1581467288	5.98	11.07
12/02/2020 00:28:09	120220	12022020	002809	113.64	13.898682	-56.939413	113.83	0.050	-1.260	3.560	113.60	-2.50	3.90	 	 	 	 	 	 	 	 	 	 	 	 	 	 	 	 	 	 	1581467289	5.75	10.65
12/02/2020 00:28:10	120220	12022020	002810	113.58	13.898672	-56.939392	113.80	0.250	-0.790	3.070	113.62	-1.80	3.20	 	 	 	 	 	 	 	 	 	 	 	 	 	 	 	 	 	 	1581467290	5.01	9.28
12/02/2020 00:28:11	120220	12022020	002811	113.90	13.898665	-56.939372	114.16	0.440	0.090	2.110	113.99	-1.00	2.20	 	 	 	 	 	 	 	 	 	 	 	 	 	 	 	 	 	 	1581467291	4.45	8.24
12/02/2020 00:28:12	120220	12022020	002812	114.26	13.898658	-56.939352	114.55	0.530	0.620	1.360	114.33	-0.80	2.00	 	 	 	 	 	 	 	 	 	 	 	 	 	 	 	 	 	 	1581467292	4.57	8.46
12/02/2020 00:28:13	120220	12022020	002813	114.43	13.898648	-56.939328	114.58	0.320	0.500	1.250	114.40	-1.00	1.80	 	 	 	 	 	 	 	 	 	 	 	 	 	 	 	 	 	 	1581467293	5.14	9.52
12/02/2020 00:28:14	120220	12022020	002814	114.25	13.898635	-56.939307	114.39	-0.210	0.160	1.480	114.23	-1.30	2.10	 	 	 	 	 	 	 	 	 	 	 	 	 	 	 	 	 	 	1581467294	5.44	10.07
12/02/2020 00:28:15	120220	12022020	002815	114.18	13.898622	-56.939287	114.33	-0.740	0.020	1.690	114.18	-1.40	2.30	 	 	 	 	 	 	 	 	 	 	 	 	 	 	 	 	 	 	1581467295	5.12	9.48
12/02/2020 00:28:16	120220	12022020	002816	114.20	13.898608	-56.939268	114.36	-0.830	-0.110	1.930	114.20	-1.70	2.60	 	 	 	 	 	 	 	 	 	 	 	 	 	 	 	 	 	 	1581467296	4.91	9.09
12/02/2020 00:28:17	120220	12022020	002817	114.18	13.898593	-56.939247	114.35	-0.390	-0.590	2.290	114.17	-2.20	2.90	 	 	 	 	 	 	 	 	 	 	 	 	 	 	 	 	 	 	1581467297	5.33	9.87
12/02/2020 00:28:18	120220	12022020	002818	114.15	13.898580	-56.939225	114.34	0.160	-1.110	2.520	114.15	-2.60	3.00	 	 	 	 	 	 	 	 	 	 	 	 	 	 	 	 	 	 	1581467298	5.68	10.52
12/02/2020 00:28:19	120220	12022020	002819	114.17	13.898567	-56.939202	114.37	0.450	-1.220	2.490	114.16	-2.50	2.90	 	 	 	 	 	 	 	 	 	 	 	 	 	 	 	 	 	 	1581467299	5.57	10.32
12/02/2020 00:28:20	120220	12022020	002820	114.10	13.898553	-56.939182	114.29	0.460	-0.690	2.490	114.09	-1.70	3.00	 	 	 	 	 	 	 	 	 	 	 	 	 	 	 	 	 	 	1581467300	5.13	9.50
12/02/2020 00:28:21	120220	12022020	002821	114.09	13.898542	-56.939163	114.28	0.300	0.320	2.520	114.10	-0.70	2.90	 	 	 	 	 	 	 	 	 	 	 	 	 	 	 	 	 	 	1581467301	4.53	8.39
12/02/2020 00:28:22	120220	12022020	002822	114.15	13.898533	-56.939145	114.32	0.120	1.050	2.250	114.16	-0.30	2.50	 	 	 	 	 	 	 	 	 	 	 	 	 	 	 	 	 	 	1581467302	4.40	8.15
12/02/2020 00:28:23	120220	12022020	002823	114.14	13.898525	-56.939122	114.30	0.020	0.940	1.750	114.14	-0.70	2.00	 	 	 	 	 	 	 	 	 	 	 	 	 	 	 	 	 	 	1581467303	5.05	9.35
12/02/2020 00:28:24	120220	12022020	002824	114.19	13.898517	-56.939097	114.36	-0.080	0.280	1.310	114.23	-1.40	1.70	 	 	 	 	 	 	 	 	 	 	 	 	 	 	 	 	 	 	1581467304	5.64	10.45
12/02/2020 00:28:25	120220	12022020	002825	114.43	13.898505	-56.939072	114.63	-0.270	-0.420	1.230	114.49	-2.10	1.80	 	 	 	 	 	 	 	 	 	 	 	 	 	 	 	 	 	 	1581467305	5.64	10.45
12/02/2020 00:28:26	120220	12022020	002826	114.69	13.898490	-56.939050	114.87	-0.470	-0.970	1.580	114.72	-2.50	2.30	 	 	 	 	 	 	 	 	 	 	 	 	 	 	 	 	 	 	1581467306	5.64	10.45
12/02/2020 00:28:27	120220	12022020	002827	114.76	13.898470	-56.939032	114.94	-0.410	-1.290	2.200	114.75	-2.70	2.90	 	 	 	 	 	 	 	 	 	 	 	 	 	 	 	 	 	 	1581467307	5.79	10.72
12/02/2020 00:28:28	120220	12022020	002828	114.68	13.898453	-56.939012	114.85	0.010	-1.090	2.690	114.65	-2.20	3.30	 	 	 	 	 	 	 	 	 	 	 	 	 	 	 	 	 	 	1581467308	5.58	10.33
12/02/2020 00:28:29	120220	12022020	002829	114.53	13.898440	-56.938993	114.71	0.380	-0.140	2.780	114.51	-1.00	3.10	 	 	 	 	 	 	 	 	 	 	 	 	 	 	 	 	 	 	1581467309	4.75	8.80
12/02/2020 00:28:30	120220	12022020	002830	114.49	13.898432	-56.938977	114.68	0.290	0.920	2.370	114.49	-0.30	2.60	 	 	 	 	 	 	 	 	 	 	 	 	 	 	 	 	 	 	1581467310	4.11	7.61
12/02/2020 00:28:31	120220	12022020	002831	114.50	13.898425	-56.938955	114.67	-0.050	0.930	1.870	114.49	-0.90	2.30	 	 	 	 	 	 	 	 	 	 	 	 	 	 	 	 	 	 	1581467311	4.72	8.74
12/02/2020 00:28:32	120220	12022020	002832	114.37	13.898412	-56.938928	114.55	-0.110	-0.290	1.800	114.35	-2.20	2.30	 	 	 	 	 	 	 	 	 	 	 	 	 	 	 	 	 	 	1581467312	6.14	11.37
12/02/2020 00:28:33	120220	12022020	002833	114.42	13.898398	-56.938900	114.66	0.130	-1.300	1.770	114.47	-2.70	2.20	 	 	 	 	 	 	 	 	 	 	 	 	 	 	 	 	 	 	1581467313	6.65	12.32
12/02/2020 00:28:34	120220	12022020	002834	114.77	13.898385	-56.938878	115.02	0.260	-0.850	1.680	114.85	-1.70	2.10	 	 	 	 	 	 	 	 	 	 	 	 	 	 	 	 	 	 	1581467314	5.26	9.74
12/02/2020 00:28:35	120220	12022020	002835	115.14	13.898375	-56.938863	115.36	0.060	0.320	1.630	115.18	-0.80	2.20	 	 	 	 	 	 	 	 	 	 	 	 	 	 	 	 	 	 	1581467315	3.93	7.28
12/02/2020 00:28:36	120220	12022020	002836	115.16	13.898363	-56.938847	115.34	-0.220	0.710	1.970	115.13	-0.90	2.70	 	 	 	 	 	 	 	 	 	 	 	 	 	 	 	 	 	 	1581467316	4.34	8.04
12/02/2020 00:28:37	120220	12022020	002837	114.96	13.898348	-56.938825	115.12	-0.330	0.080	2.490	114.91	-1.60	3.20	 	 	 	 	 	 	 	 	 	 	 	 	 	 	 	 	 	 	1581467317	5.67	10.50
12/02/2020 00:28:38	120220	12022020	002838	114.70	13.898330	-56.938802	114.88	-0.290	-0.640	3.110	114.65	-2.20	3.80	 	 	 	 	 	 	 	 	 	 	 	 	 	 	 	 	 	 	1581467318	6.18	11.45
12/02/2020 00:28:39	120220	12022020	002839	114.48	13.898312	-56.938782	114.66	-0.100	-0.810	3.430	114.45	-2.10	3.80	 	 	 	 	 	 	 	 	 	 	 	 	 	 	 	 	 	 	1581467319	5.77	10.69
12/02/2020 00:28:40	120220	12022020	002840	114.41	13.898300	-56.938762	114.62	0.230	-0.400	3.060	114.43	-1.50	3.20	 	 	 	 	 	 	 	 	 	 	 	 	 	 	 	 	 	 	1581467320	4.97	9.20
12/02/2020 00:28:41	120220	12022020	002841	114.63	13.898293	-56.938740	114.84	0.530	0.160	2.180	114.69	-1.10	2.30	 	 	 	 	 	 	 	 	 	 	 	 	 	 	 	 	 	 	1581467321	4.63	8.57
12/02/2020 00:28:42	120220	12022020	002842	115.00	13.898287	-56.938718	115.20	0.490	0.310	1.380	115.06	-1.20	1.70	 	 	 	 	 	 	 	 	 	 	 	 	 	 	 	 	 	 	1581467322	4.87	9.02
12/02/2020 00:28:43	120220	12022020	002843	115.24	13.898277	-56.938695	115.40	0.130	-0.060	1.210	115.26	-1.60	1.80	 	 	 	 	 	 	 	 	 	 	 	 	 	 	 	 	 	 	1581467323	5.34	9.89
12/02/2020 00:28:44	120220	12022020	002844	115.20	13.898262	-56.938673	115.34	-0.320	-0.430	1.670	115.15	-1.90	2.40	 	 	 	 	 	 	 	 	 	 	 	 	 	 	 	 	 	 	1581467324	5.59	10.35
12/02/2020 00:28:45	120220	12022020	002845	114.83	13.898245	-56.938653	114.94	-0.480	-0.540	2.300	114.73	-2.00	3.00	 	 	 	 	 	 	 	 	 	 	 	 	 	 	 	 	 	 	1581467325	5.44	10.07
12/02/2020 00:28:46	120220	12022020	002846	114.28	13.898228	-56.938633	114.40	-0.240	-0.630	2.830	114.18	-2.00	3.40	 	 	 	 	 	 	 	 	 	 	 	 	 	 	 	 	 	 	1581467326	5.49	10.17
12/02/2020 00:28:47	120220	12022020	002847	113.97	13.898213	-56.938612	114.19	0.120	-0.640	3.030	113.97	-2.00	3.40	 	 	 	 	 	 	 	 	 	 	 	 	 	 	 	 	 	 	1581467327	5.64	10.45
12/02/2020 00:28:48	120220	12022020	002848	114.18	13.898202	-56.938590	114.44	0.270	-0.360	2.750	114.26	-1.60	3.00	 	 	 	 	 	 	 	 	 	 	 	 	 	 	 	 	 	 	1581467328	5.40	10.00
12/02/2020 00:28:49	120220	12022020	002849	114.53	13.898190	-56.938568	114.74	0.170	0.140	2.240	114.57	-1.10	2.50	 	 	 	 	 	 	 	 	 	 	 	 	 	 	 	 	 	 	1581467329	4.99	9.24
12/02/2020 00:28:50	120220	12022020	002850	114.59	13.898180	-56.938547	114.75	-0.020	0.550	1.880	114.57	-0.70	2.30	 	 	 	 	 	 	 	 	 	 	 	 	 	 	 	 	 	 	1581467330	4.87	9.02
12/02/2020 00:28:51	120220	12022020	002851	114.48	13.898170	-56.938527	114.64	-0.210	0.710	1.830	114.47	-0.70	2.40	 	 	 	 	 	 	 	 	 	 	 	 	 	 	 	 	 	 	1581467331	4.94	9.15
12/02/2020 00:28:52	120220	12022020	002852	114.52	13.898158	-56.938505	114.72	-0.350	0.500	1.910	114.56	-1.10	2.40	 	 	 	 	 	 	 	 	 	 	 	 	 	 	 	 	 	 	1581467332	5.09	9.43
12/02/2020 00:28:53	120220	12022020	002853	114.77	13.898145	-56.938483	114.99	-0.300	-0.140	1.910	114.82	-1.90	2.40	 	 	 	 	 	 	 	 	 	 	 	 	 	 	 	 	 	 	1581467333	5.46	10.11
12/02/2020 00:28:54	120220	12022020	002854	114.91	13.898130	-56.938460	115.10	-0.040	-0.970	2.020	114.90	-2.60	2.60	 	 	 	 	 	 	 	 	 	 	 	 	 	 	 	 	 	 	1581467334	5.90	10.93
12/02/2020 00:28:55	120220	12022020	002855	114.76	13.898113	-56.938437	114.94	0.310	-1.480	2.340	114.72	-2.90	3.00	 	 	 	 	 	 	 	 	 	 	 	 	 	 	 	 	 	 	1581467335	5.94	11.00
12/02/2020 00:28:56	120220	12022020	002856	114.50	13.898098	-56.938415	114.68	0.590	-1.340	2.670	114.45	-2.50	3.20	 	 	 	 	 	 	 	 	 	 	 	 	 	 	 	 	 	 	1581467336	5.56	10.30
12/02/2020 00:28:57	120220	12022020	002857	114.24	13.898087	-56.938395	114.42	0.710	-0.680	2.760	114.19	-1.70	3.20	 	 	 	 	 	 	 	 	 	 	 	 	 	 	 	 	 	 	1581467337	5.16	9.56
12/02/2020 00:28:58	120220	12022020	002858	114.12	13.898077	-56.938373	114.31	0.480	0.300	2.460	114.13	-0.60	2.80	 	 	 	 	 	 	 	 	 	 	 	 	 	 	 	 	 	 	1581467338	4.83	8.95
12/02/2020 00:28:59	120220	12022020	002859	114.28	13.898070	-56.938353	114.49	-0.140	1.240	2.050	114.34	0.10	2.40	 	 	 	 	 	 	 	 	 	 	 	 	 	 	 	 	 	 	1581467339	4.50	8.33
12/02/2020 00:29:00	120220	12022020	002900	114.62	13.898060	-56.938333	114.82	-0.830	1.500	1.710	114.69	-0.10	2.10	 	 	 	 	 	 	 	 	 	 	 	 	 	 	 	 	 	 	1581467340	4.64	8.59
12/02/2020 00:29:01	120220	12022020	002901	114.90	13.898047	-56.938310	115.10	-1.110	0.620	1.600	114.93	-1.40	2.10	 	 	 	 	 	 	 	 	 	 	 	 	 	 	 	 	 	 	1581467341	5.56	10.30
12/02/2020 00:29:02	120220	12022020	002902	114.96	13.898028	-56.938285	115.11	-0.750	-0.920	1.820	114.95	-1.90	2.20	1017.00	26.10	26.20	20.80	20.90	-1.0	72.0	72.0	390.0	25.8	325.00	15.00	72.00	12.90	39	10476.0	27.1	27.1	1581467342	6.60	12.22
12/02/2020 00:29:03	120220	12022020	002903	114.74	13.898008	-56.938260	114.89	-0.010	-2.020	2.330	114.68	-3.50	3.00	 	 	 	 	 	 	 	 	 	 	 	 	 	 	 	 	 	 	1581467343	6.79	12.58
12/02/2020 00:29:04	120220	12022020	002904	114.49	13.897993	-56.938238	114.68	0.630	-1.800	2.560	114.47	-2.70	3.00	 	 	 	 	 	 	 	 	 	 	 	 	 	 	 	 	 	 	1581467344	5.82	10.78
12/02/2020 00:29:05	120220	12022020	002905	114.44	13.897982	-56.938220	114.66	0.760	-0.440	2.370	114.45	-1.20	2.70	 	 	 	 	 	 	 	 	 	 	 	 	 	 	 	 	 	 	1581467345	4.43	8.20
12/02/2020 00:29:06	120220	12022020	002906	114.44	13.897975	-56.938202	114.63	0.490	0.870	2.100	114.43	-0.30	2.50	 	 	 	 	 	 	 	 	 	 	 	 	 	 	 	 	 	 	1581467346	3.99	7.39
12/02/2020 00:29:07	120220	12022020	002907	114.37	13.897967	-56.938182	114.56	0.180	1.140	1.750	114.37	-0.40	2.00	 	 	 	 	 	 	 	 	 	 	 	 	 	 	 	 	 	 	1581467347	4.84	8.96
12/02/2020 00:29:08	120220	12022020	002908	114.49	13.897957	-56.938155	114.71	0.020	0.550	1.230	114.56	-1.10	1.60	 	 	 	 	 	 	 	 	 	 	 	 	 	 	 	 	 	 	1581467348	5.84	10.82
12/02/2020 00:29:09	120220	12022020	002909	114.90	13.897947	-56.938130	115.14	-0.170	-0.020	0.980	114.99	-1.50	1.60	 	 	 	 	 	 	 	 	 	 	 	 	 	 	 	 	 	 	1581467349	5.85	10.83
12/02/2020 00:29:10	120220	12022020	002910	115.29	13.897932	-56.938108	115.51	-0.560	-0.280	1.390	115.33	-1.70	2.20	 	 	 	 	 	 	 	 	 	 	 	 	 	 	 	 	 	 	1581467350	5.40	10.00
12/02/2020 00:29:11	120220	12022020	002911	115.33	13.897912	-56.938092	115.49	-0.760	-0.540	2.250	115.29	-2.10	3.10	 	 	 	 	 	 	 	 	 	 	 	 	 	 	 	 	 	 	1581467351	5.56	10.30
12/02/2020 00:29:12	120220	12022020	002912	114.97	13.897892	-56.938072	115.10	-0.250	-1.070	3.010	114.87	-2.70	3.70	 	 	 	 	 	 	 	 	 	 	 	 	 	 	 	 	 	 	1581467352	5.95	11.02
12/02/2020 00:29:13	120220	12022020	002913	114.47	13.897875	-56.938047	114.63	0.660	-1.460	3.460	114.38	-2.80	4.00	 	 	 	 	 	 	 	 	 	 	 	 	 	 	 	 	 	 	1581467353	6.19	11.46
12/02/2020 00:29:14	120220	12022020	002914	114.21	13.897863	-56.938023	114.43	1.090	-1.010	3.450	114.21	-2.00	3.70	 	 	 	 	 	 	 	 	 	 	 	 	 	 	 	 	 	 	1581467354	5.63	10.43
12/02/2020 00:29:15	120220	12022020	002915	114.40	13.897855	-56.938003	114.67	0.660	0.210	2.810	114.48	-0.60	3.00	 	 	 	 	 	 	 	 	 	 	 	 	 	 	 	 	 	 	1581467355	4.58	8.48
12/02/2020 00:29:16	120220	12022020	002916	114.84	13.897848	-56.937985	115.08	-0.200	1.370	2.050	114.92	0.20	2.30	 	 	 	 	 	 	 	 	 	 	 	 	 	 	 	 	 	 	1581467356	4.05	7.50
12/02/2020 00:29:17	120220	12022020	002917	115.18	13.897840	-56.937965	115.38	-0.770	1.460	1.680	115.23	-0.30	2.10	 	 	 	 	 	 	 	 	 	 	 	 	 	 	 	 	 	 	1581467357	4.65	8.61
12/02/2020 00:29:18	120220	12022020	002918	115.36	13.897825	-56.937942	115.53	-0.730	0.310	1.630	115.37	-1.70	2.20	 	 	 	 	 	 	 	 	 	 	 	 	 	 	 	 	 	 	1581467358	5.96	11.04
12/02/2020 00:29:19	120220	12022020	002919	115.32	13.897807	-56.937915	115.48	-0.290	-1.140	1.890	115.29	-2.90	2.60	 	 	 	 	 	 	 	 	 	 	 	 	 	 	 	 	 	 	1581467359	6.75	12.50
12/02/2020 00:29:20	120220	12022020	002920	115.05	13.897788	-56.937892	115.20	0.110	-1.650	2.360	114.98	-2.80	3.00	 	 	 	 	 	 	 	 	 	 	 	 	 	 	 	 	 	 	1581467360	6.30	11.67
12/02/2020 00:29:21	120220	12022020	002921	114.76	13.897773	-56.937873	114.92	0.150	-0.840	2.710	114.72	-1.70	3.20	 	 	 	 	 	 	 	 	 	 	 	 	 	 	 	 	 	 	1581467361	4.98	9.22
12/02/2020 00:29:22	120220	12022020	002922	114.68	13.897762	-56.937858	114.88	-0.040	0.370	2.600	114.69	-0.70	2.90	 	 	 	 	 	 	 	 	 	 	 	 	 	 	 	 	 	 	1581467362	4.09	7.57
12/02/2020 00:29:23	120220	12022020	002923	114.76	13.897752	-56.937838	114.95	-0.040	0.780	2.140	114.77	-0.80	2.40	 	 	 	 	 	 	 	 	 	 	 	 	 	 	 	 	 	 	1581467363	4.51	8.35
12/02/2020 00:29:24	120220	12022020	002924	114.81	13.897742	-56.937813	114.99	0.330	0.070	1.690	114.81	-1.70	2.10	 	 	 	 	 	 	 	 	 	 	 	 	 	 	 	 	 	 	1581467364	5.78	10.70
12/02/2020 00:29:25	120220	12022020	002925	114.78	13.897730	-56.937785	114.93	0.660	-0.850	1.510	114.76	-2.40	2.10	 	 	 	 	 	 	 	 	 	 	 	 	 	 	 	 	 	 	1581467365	6.42	11.89
12/02/2020 00:29:26	120220	12022020	002926	114.71	13.897717	-56.937762	114.87	0.570	-1.050	1.730	114.71	-2.20	2.40	 	 	 	 	 	 	 	 	 	 	 	 	 	 	 	 	 	 	1581467366	5.92	10.96
12/02/2020 00:29:27	120220	12022020	002927	114.76	13.897703	-56.937742	114.96	0.090	-0.290	2.150	114.80	-1.20	2.80	 	 	 	 	 	 	 	 	 	 	 	 	 	 	 	 	 	 	1581467367	4.99	9.24
12/02/2020 00:29:28	120220	12022020	002928	114.91	13.897688	-56.937727	115.17	-0.430	0.770	2.470	114.96	-0.80	2.90	 	 	 	 	 	 	 	 	 	 	 	 	 	 	 	 	 	 	1581467368	4.38	8.11
12/02/2020 00:29:29	120220	12022020	002929	115.07	13.897675	-56.937710	115.25	-0.690	1.110	2.730	115.06	-0.50	3.30	 	 	 	 	 	 	 	 	 	 	 	 	 	 	 	 	 	 	1581467369	4.64	8.59
12/02/2020 00:29:30	120220	12022020	002930	114.84	13.897660	-56.937688	114.98	-0.520	0.280	2.990	114.75	-1.70	3.60	 	 	 	 	 	 	 	 	 	 	 	 	 	 	 	 	 	 	1581467370	5.66	10.48
12/02/2020 00:29:31	120220	12022020	002931	114.36	13.897643	-56.937660	114.51	0.020	-1.200	3.100	114.28	-3.10	3.60	 	 	 	 	 	 	 	 	 	 	 	 	 	 	 	 	 	 	1581467371	6.66	12.33
12/02/2020 00:29:32	120220	12022020	002932	114.09	13.897630	-56.937633	114.29	0.570	-2.040	3.010	114.09	-3.30	3.40	 	 	 	 	 	 	 	 	 	 	 	 	 	 	 	 	 	 	1581467372	6.69	12.39
12/02/2020 00:29:33	120220	12022020	002933	114.21	13.897617	-56.937610	114.44	0.670	-1.440	2.830	114.26	-2.30	3.20	 	 	 	 	 	 	 	 	 	 	 	 	 	 	 	 	 	 	1581467373	5.48	10.15
12/02/2020 00:29:34	120220	12022020	002934	114.43	13.897607	-56.937592	114.63	0.230	-0.060	2.590	114.46	-0.90	3.00	 	 	 	 	 	 	 	 	 	 	 	 	 	 	 	 	 	 	1581467374	4.45	8.24
12/02/2020 00:29:35	120220	12022020	002935	114.44	13.897593	-56.937575	114.59	-0.320	1.060	2.350	114.42	-0.10	2.70	 	 	 	 	 	 	 	 	 	 	 	 	 	 	 	 	 	 	1581467375	4.51	8.35
12/02/2020 00:29:36	120220	12022020	002936	114.41	13.897582	-56.937555	114.57	-0.580	1.540	1.980	114.43	0.20	2.30	 	 	 	 	 	 	 	 	 	 	 	 	 	 	 	 	 	 	1581467376	4.91	9.09
12/02/2020 00:29:37	120220	12022020	002937	114.67	13.897572	-56.937533	114.87	-0.510	1.400	1.490	114.75	-0.20	1.80	 	 	 	 	 	 	 	 	 	 	 	 	 	 	 	 	 	 	1581467377	5.13	9.50
12/02/2020 00:29:38	120220	12022020	002938	115.07	13.897560	-56.937508	115.26	-0.260	0.570	1.050	115.14	-1.30	1.40	 	 	 	 	 	 	 	 	 	 	 	 	 	 	 	 	 	 	1581467378	5.47	10.13
12/02/2020 00:29:39	120220	12022020	002939	115.21	13.897548	-56.937483	115.32	0.050	-0.820	0.890	115.17	-2.80	1.50	 	 	 	 	 	 	 	 	 	 	 	 	 	 	 	 	 	 	1581467379	6.03	11.17
12/02/2020 00:29:40	120220	12022020	002940	114.86	13.897533	-56.937457	114.94	0.420	-2.010	1.340	114.76	-3.60	2.20	 	 	 	 	 	 	 	 	 	 	 	 	 	 	 	 	 	 	1581467380	6.31	11.69
12/02/2020 00:29:41	120220	12022020	002941	114.35	13.897518	-56.937433	114.46	0.750	-2.220	2.210	114.26	-3.40	3.10	 	 	 	 	 	 	 	 	 	 	 	 	 	 	 	 	 	 	1581467381	5.96	11.04
12/02/2020 00:29:42	120220	12022020	002942	114.03	13.897502	-56.937413	114.20	0.810	-1.470	2.910	113.99	-2.40	3.50	 	 	 	 	 	 	 	 	 	 	 	 	 	 	 	 	 	 	1581467382	5.35	9.91
12/02/2020 00:29:43	120220	12022020	002943	113.92	13.897488	-56.937395	114.09	0.510	-0.330	3.150	113.90	-1.30	3.60	 	 	 	 	 	 	 	 	 	 	 	 	 	 	 	 	 	 	1581467383	4.98	9.22
12/02/2020 00:29:44	120220	12022020	002944	113.85	13.897477	-56.937375	114.02	-0.050	0.720	2.990	113.85	-0.30	3.30	 	 	 	 	 	 	 	 	 	 	 	 	 	 	 	 	 	 	1581467384	4.94	9.15
12/02/2020 00:29:45	120220	12022020	002945	113.93	13.897467	-56.937355	114.12	-0.620	1.540	2.490	113.97	0.30	2.80	 	 	 	 	 	 	 	 	 	 	 	 	 	 	 	 	 	 	1581467385	4.81	8.91
12/02/2020 00:29:46	120220	12022020	002946	114.19	13.897455	-56.937333	114.36	-0.930	1.590	1.930	114.25	-0.10	2.20	 	 	 	 	 	 	 	 	 	 	 	 	 	 	 	 	 	 	1581467386	5.07	9.39
12/02/2020 00:29:47	120220	12022020	002947	114.40	13.897442	-56.937308	114.54	-0.810	0.520	1.560	114.41	-1.50	2.00	 	 	 	 	 	 	 	 	 	 	 	 	 	 	 	 	 	 	1581467387	6.05	11.20
12/02/2020 00:29:48	120220	12022020	002948	114.43	13.897427	-56.937282	114.56	-0.370	-0.800	1.510	114.44	-2.50	2.00	 	 	 	 	 	 	 	 	 	 	 	 	 	 	 	 	 	 	1581467388	6.62	12.26
12/02/2020 00:29:49	120220	12022020	002949	114.52	13.897412	-56.937257	114.67	0.080	-1.220	1.510	114.54	-2.50	2.00	 	 	 	 	 	 	 	 	 	 	 	 	 	 	 	 	 	 	1581467389	5.89	10.91
12/02/2020 00:29:50	120220	12022020	002950	114.57	13.897400	-56.937237	114.68	0.360	-0.810	1.600	114.54	-2.00	2.20	 	 	 	 	 	 	 	 	 	 	 	 	 	 	 	 	 	 	1581467390	4.83	8.95
12/02/2020 00:29:51	120220	12022020	002951	114.33	13.897388	-56.937217	114.41	0.540	-0.440	1.870	114.26	-1.80	2.50	 	 	 	 	 	 	 	 	 	 	 	 	 	 	 	 	 	 	1581467391	4.83	8.95
12/02/2020 00:29:52	120220	12022020	002952	114.09	13.897377	-56.937195	114.19	0.620	-0.370	2.080	114.06	-1.80	2.60	 	 	 	 	 	 	 	 	 	 	 	 	 	 	 	 	 	 	1581467392	5.41	10.02
12/02/2020 00:29:53	120220	12022020	002953	114.17	13.897363	-56.937172	114.35	0.480	-0.230	2.050	114.23	-1.50	2.60	 	 	 	 	 	 	 	 	 	 	 	 	 	 	 	 	 	 	1581467393	5.45	10.09
12/02/2020 00:29:54	120220	12022020	002954	114.46	13.897352	-56.937152	114.64	0.150	0.110	2.080	114.51	-1.20	2.70	 	 	 	 	 	 	 	 	 	 	 	 	 	 	 	 	 	 	1581467394	5.10	9.45
12/02/2020 00:29:55	120220	12022020	002955	114.53	13.897340	-56.937130	114.68	-0.130	0.200	2.280	114.51	-1.30	2.90	 	 	 	 	 	 	 	 	 	 	 	 	 	 	 	 	 	 	1581467395	5.15	9.54
12/02/2020 00:29:56	120220	12022020	002956	114.41	13.897327	-56.937107	114.57	-0.280	-0.160	2.470	114.40	-1.70	3.10	 	 	 	 	 	 	 	 	 	 	 	 	 	 	 	 	 	 	1581467396	5.73	10.61
12/02/2020 00:29:57	120220	12022020	002957	114.38	13.897310	-56.937083	114.58	-0.360	-0.570	2.840	114.39	-2.00	3.60	 	 	 	 	 	 	 	 	 	 	 	 	 	 	 	 	 	 	1581467397	6.07	11.24
12/02/2020 00:29:58	120220	12022020	002958	114.41	13.897292	-56.937062	114.62	-0.420	-0.620	3.310	114.42	-1.90	3.90	 	 	 	 	 	 	 	 	 	 	 	 	 	 	 	 	 	 	1581467398	5.99	11.09
12/02/2020 00:29:59	120220	12022020	002959	114.45	13.897275	-56.937042	114.64	-0.320	-0.330	3.280	114.45	-1.60	3.50	 	 	 	 	 	 	 	 	 	 	 	 	 	 	 	 	 	 	1581467399	5.53	10.24
12/02/2020 00:30:00	120220	12022020	003000	114.55	13.897263	-56.937020	114.76	0.060	0.000	2.540	114.59	-1.30	2.70	 	 	 	 	 	 	 	 	 	 	 	 	 	 	 	 	 	 	1581467400	5.27	9.76
12/02/2020 00:30:01	120220	12022020	003001	114.74	13.897257	-56.936995	114.93	0.430	0.200	1.780	114.76	-1.20	2.00	 	 	 	 	 	 	 	 	 	 	 	 	 	 	 	 	 	 	1581467401	5.42	10.04
12/02/2020 00:30:02	120220	12022020	003002	114.82	13.897248	-56.936970	114.99	0.440	0.170	1.280	114.82	-1.30	1.70	1016.90	26.20	26.20	20.90	21.00	-1.0	72.0	72.0	392.0	25.8	324.00	14.80	71.00	12.70	38	8981.0	27.1	27.1	1581467402	5.54	10.26
12/02/2020 00:30:03	120220	12022020	003003	114.81	13.897237	-56.936945	114.98	0.100	0.040	1.100	114.81	-1.40	1.60	 	 	 	 	 	 	 	 	 	 	 	 	 	 	 	 	 	 	1581467403	5.56	10.30
12/02/2020 00:30:04	120220	12022020	003004	114.91	13.897225	-56.936923	115.12	-0.290	0.120	1.190	114.97	-1.10	1.80	 	 	 	 	 	 	 	 	 	 	 	 	 	 	 	 	 	 	1581467404	5.32	9.85
12/02/2020 00:30:05	120220	12022020	003005	115.20	13.897212	-56.936905	115.41	-0.530	0.360	1.550	115.26	-1.10	2.30	 	 	 	 	 	 	 	 	 	 	 	 	 	 	 	 	 	 	1581467405	4.93	9.13
12/02/2020 00:30:06	120220	12022020	003006	115.39	13.897193	-56.936887	115.56	-0.460	0.020	2.050	115.38	-1.80	2.80	 	 	 	 	 	 	 	 	 	 	 	 	 	 	 	 	 	 	1581467406	5.36	9.93
12/02/2020 00:30:07	120220	12022020	003007	115.16	13.897175	-56.936863	115.29	0.040	-1.060	2.610	115.06	-2.80	3.30	 	 	 	 	 	 	 	 	 	 	 	 	 	 	 	 	 	 	1581467407	6.45	11.95
12/02/2020 00:30:08	120220	12022020	003008	114.60	13.897157	-56.936838	114.75	0.600	-1.730	3.060	114.51	-3.00	3.70	 	 	 	 	 	 	 	 	 	 	 	 	 	 	 	 	 	 	1581467408	6.63	12.28
12/02/2020 00:30:09	120220	12022020	003009	114.13	13.897143	-56.936815	114.30	0.760	-1.290	3.210	114.07	-2.30	3.60	 	 	 	 	 	 	 	 	 	 	 	 	 	 	 	 	 	 	1581467409	5.60	10.37
12/02/2020 00:30:10	120220	12022020	003010	113.93	13.897133	-56.936793	114.14	0.470	-0.300	2.840	113.95	-1.30	3.00	 	 	 	 	 	 	 	 	 	 	 	 	 	 	 	 	 	 	1581467410	4.88	9.04
12/02/2020 00:30:11	120220	12022020	003011	114.15	13.897125	-56.936772	114.38	-0.050	0.530	2.100	114.23	-0.60	2.30	 	 	 	 	 	 	 	 	 	 	 	 	 	 	 	 	 	 	1581467411	4.98	9.22
12/02/2020 00:30:12	120220	12022020	003012	114.55	13.897115	-56.936750	114.77	-0.500	1.010	1.580	114.62	-0.30	2.00	 	 	 	 	 	 	 	 	 	 	 	 	 	 	 	 	 	 	1581467412	5.17	9.57
12/02/2020 00:30:13	120220	12022020	003013	114.82	13.897102	-56.936727	114.99	-0.640	0.970	1.450	114.85	-0.70	2.00	 	 	 	 	 	 	 	 	 	 	 	 	 	 	 	 	 	 	1581467413	5.47	10.13
12/02/2020 00:30:14	120220	12022020	003014	114.81	13.897085	-56.936703	114.95	-0.380	0.190	1.670	114.77	-1.60	2.40	 	 	 	 	 	 	 	 	 	 	 	 	 	 	 	 	 	 	1581467414	6.14	11.37
12/02/2020 00:30:15	120220	12022020	003015	114.56	13.897068	-56.936678	114.68	-0.050	-0.640	2.210	114.49	-2.10	2.90	 	 	 	 	 	 	 	 	 	 	 	 	 	 	 	 	 	 	1581467415	6.50	12.04
12/02/2020 00:30:16	120220	12022020	003016	114.36	13.897052	-56.936657	114.51	-0.050	-0.660	2.600	114.36	-1.80	3.10	 	 	 	 	 	 	 	 	 	 	 	 	 	 	 	 	 	 	1581467416	5.72	10.59
12/02/2020 00:30:17	120220	12022020	003017	114.47	13.897038	-56.936638	114.65	-0.320	-0.020	2.620	114.52	-1.20	3.00	 	 	 	 	 	 	 	 	 	 	 	 	 	 	 	 	 	 	1581467417	4.65	8.61
12/02/2020 00:30:18	120220	12022020	003018	114.66	13.897027	-56.936620	114.80	-0.330	0.190	2.490	114.67	-1.50	2.90	 	 	 	 	 	 	 	 	 	 	 	 	 	 	 	 	 	 	1581467418	4.65	8.61
12/02/2020 00:30:19	120220	12022020	003019	114.56	13.897013	-56.936595	114.68	0.310	-0.750	2.450	114.52	-2.70	2.90	 	 	 	 	 	 	 	 	 	 	 	 	 	 	 	 	 	 	1581467419	6.03	11.17
12/02/2020 00:30:20	120220	12022020	003020	114.39	13.896998	-56.936565	114.54	1.080	-1.770	2.400	114.38	-3.20	2.90	 	 	 	 	 	 	 	 	 	 	 	 	 	 	 	 	 	 	1581467420	6.96	12.89
12/02/2020 00:30:21	120220	12022020	003021	114.46	13.896987	-56.936540	114.65	1.150	-1.320	2.290	114.50	-2.00	2.70	 	 	 	 	 	 	 	 	 	 	 	 	 	 	 	 	 	 	1581467421	5.91	10.95
12/02/2020 00:30:22	120220	12022020	003022	114.76	13.896978	-56.936523	114.95	0.410	0.450	2.020	114.83	-0.20	2.40	 	 	 	 	 	 	 	 	 	 	 	 	 	 	 	 	 	 	1581467422	4.11	7.61
12/02/2020 00:30:23	120220	12022020	003023	115.13	13.896970	-56.936507	115.31	-0.540	1.870	1.720	115.20	0.60	2.10	 	 	 	 	 	 	 	 	 	 	 	 	 	 	 	 	 	 	1581467423	3.68	6.82
12/02/2020 00:30:24	120220	12022020	003024	115.43	13.896958	-56.936487	115.59	-1.010	1.690	1.600	115.47	-0.20	2.10	 	 	 	 	 	 	 	 	 	 	 	 	 	 	 	 	 	 	1581467424	4.93	9.13
12/02/2020 00:30:25	120220	12022020	003025	115.56	13.896942	-56.936462	115.71	-0.810	0.270	1.760	115.56	-1.80	2.40	 	 	 	 	 	 	 	 	 	 	 	 	 	 	 	 	 	 	1581467425	6.36	11.78
12/02/2020 00:30:26	120220	12022020	003026	115.49	13.896923	-56.936437	115.65	-0.350	-1.200	2.160	115.46	-3.00	2.80	 	 	 	 	 	 	 	 	 	 	 	 	 	 	 	 	 	 	1581467426	6.76	12.52
12/02/2020 00:30:27	120220	12022020	003027	115.28	13.896905	-56.936412	115.45	-0.030	-1.950	2.590	115.22	-3.30	3.20	 	 	 	 	 	 	 	 	 	 	 	 	 	 	 	 	 	 	1581467427	6.34	11.74
12/02/2020 00:30:28	120220	12022020	003028	114.98	13.896888	-56.936392	115.16	0.110	-1.730	2.860	114.91	-2.80	3.40	 	 	 	 	 	 	 	 	 	 	 	 	 	 	 	 	 	 	1581467428	5.69	10.54
12/02/2020 00:30:29	120220	12022020	003029	114.66	13.896873	-56.936372	114.84	0.260	-0.790	2.890	114.60	-1.70	3.30	 	 	 	 	 	 	 	 	 	 	 	 	 	 	 	 	 	 	1581467429	5.09	9.43
12/02/2020 00:30:30	120220	12022020	003030	114.47	13.896863	-56.936352	114.67	0.500	0.330	2.400	114.47	-0.70	2.50	 	 	 	 	 	 	 	 	 	 	 	 	 	 	 	 	 	 	1581467430	4.80	8.89
12/02/2020 00:30:31	120220	12022020	003031	114.69	13.896857	-56.936330	114.92	0.590	1.080	1.400	114.78	-0.20	1.50	 	 	 	 	 	 	 	 	 	 	 	 	 	 	 	 	 	 	1581467431	4.97	9.20
12/02/2020 00:30:32	120220	12022020	003032	115.13	13.896850	-56.936305	115.33	0.320	1.090	0.720	115.20	-0.50	1.20	 	 	 	 	 	 	 	 	 	 	 	 	 	 	 	 	 	 	1581467432	5.37	9.95
12/02/2020 00:30:33	120220	12022020	003033	115.35	13.896838	-56.936280	115.48	-0.170	0.490	0.800	115.36	-1.20	1.50	 	 	 	 	 	 	 	 	 	 	 	 	 	 	 	 	 	 	1581467433	5.74	10.63
12/02/2020 00:30:34	120220	12022020	003034	115.37	13.896822	-56.936257	115.52	-0.520	-0.250	1.360	115.37	-1.80	2.10	 	 	 	 	 	 	 	 	 	 	 	 	 	 	 	 	 	 	1581467434	6.04	11.19
12/02/2020 00:30:35	120220	12022020	003035	115.34	13.896803	-56.936237	115.49	-0.530	-0.560	2.070	115.31	-2.00	2.80	 	 	 	 	 	 	 	 	 	 	 	 	 	 	 	 	 	 	1581467435	5.78	10.70
12/02/2020 00:30:36	120220	12022020	003036	115.15	13.896785	-56.936218	115.30	-0.250	-0.620	2.780	115.09	-2.10	3.50	 	 	 	 	 	 	 	 	 	 	 	 	 	 	 	 	 	 	1581467436	5.41	10.02
12/02/2020 00:30:37	120220	12022020	003037	114.79	13.896768	-56.936198	114.95	0.200	-0.880	3.340	114.71	-2.40	3.90	 	 	 	 	 	 	 	 	 	 	 	 	 	 	 	 	 	 	1581467437	5.68	10.52
12/02/2020 00:30:38	120220	12022020	003038	114.46	13.896753	-56.936175	114.65	0.610	-1.100	3.530	114.42	-2.40	3.90	 	 	 	 	 	 	 	 	 	 	 	 	 	 	 	 	 	 	1581467438	5.97	11.06
12/02/2020 00:30:39	120220	12022020	003039	114.35	13.896740	-56.936150	114.57	0.770	-0.850	3.220	114.35	-2.00	3.50	 	 	 	 	 	 	 	 	 	 	 	 	 	 	 	 	 	 	1581467439	5.67	10.50
12/02/2020 00:30:40	120220	12022020	003040	114.41	13.896732	-56.936127	114.64	0.570	-0.210	2.620	114.43	-1.30	2.90	 	 	 	 	 	 	 	 	 	 	 	 	 	 	 	 	 	 	1581467440	5.22	9.67
12/02/2020 00:30:41	120220	12022020	003041	114.52	13.896723	-56.936105	114.75	0.070	0.380	2.050	114.55	-0.90	2.40	 	 	 	 	 	 	 	 	 	 	 	 	 	 	 	 	 	 	1581467441	5.11	9.46
12/02/2020 00:30:42	120220	12022020	003042	114.71	13.896713	-56.936082	114.94	-0.550	0.650	1.750	114.76	-0.70	2.20	 	 	 	 	 	 	 	 	 	 	 	 	 	 	 	 	 	 	1581467442	5.26	9.74
12/02/2020 00:30:43	120220	12022020	003043	114.93	13.896697	-56.936060	115.17	-0.970	0.550	1.830	114.97	-0.90	2.40	 	 	 	 	 	 	 	 	 	 	 	 	 	 	 	 	 	 	1581467443	5.62	10.41
12/02/2020 00:30:44	120220	12022020	003044	115.07	13.896678	-56.936040	115.27	-0.920	0.290	2.090	115.08	-1.20	2.70	 	 	 	 	 	 	 	 	 	 	 	 	 	 	 	 	 	 	1581467444	5.88	10.89
12/02/2020 00:30:45	120220	12022020	003045	115.02	13.896662	-56.936018	115.19	-0.430	-0.070	2.250	114.98	-1.70	2.80	 	 	 	 	 	 	 	 	 	 	 	 	 	 	 	 	 	 	1581467445	5.79	10.72
12/02/2020 00:30:46	120220	12022020	003046	114.80	13.896648	-56.935995	114.96	0.200	-0.600	2.250	114.76	-2.20	2.70	 	 	 	 	 	 	 	 	 	 	 	 	 	 	 	 	 	 	1581467446	5.85	10.83
12/02/2020 00:30:47	120220	12022020	003047	114.65	13.896637	-56.935968	114.82	0.690	-1.110	1.990	114.65	-2.60	2.40	 	 	 	 	 	 	 	 	 	 	 	 	 	 	 	 	 	 	1581467447	6.03	11.17
12/02/2020 00:30:48	120220	12022020	003048	114.76	13.896627	-56.935943	114.97	0.860	-1.040	1.680	114.81	-2.10	2.10	 	 	 	 	 	 	 	 	 	 	 	 	 	 	 	 	 	 	1581467448	5.81	10.76
12/02/2020 00:30:49	120220	12022020	003049	115.07	13.896617	-56.935922	115.28	0.580	-0.200	1.570	115.12	-1.20	2.10	 	 	 	 	 	 	 	 	 	 	 	 	 	 	 	 	 	 	1581467449	4.98	9.22
12/02/2020 00:30:50	120220	12022020	003050	115.16	13.896605	-56.935903	115.31	0.050	0.580	1.790	115.13	-0.70	2.50	 	 	 	 	 	 	 	 	 	 	 	 	 	 	 	 	 	 	1581467450	4.68	8.67
12/02/2020 00:30:51	120220	12022020	003051	114.87	13.896590	-56.935882	114.99	-0.310	0.590	2.250	114.80	-1.00	2.90	 	 	 	 	 	 	 	 	 	 	 	 	 	 	 	 	 	 	1581467451	5.38	9.96
12/02/2020 00:30:52	120220	12022020	003052	114.58	13.896573	-56.935858	114.75	-0.330	0.070	2.640	114.56	-1.50	3.20	 	 	 	 	 	 	 	 	 	 	 	 	 	 	 	 	 	 	1581467452	6.10	11.30
12/02/2020 00:30:53	120220	12022020	003053	114.54	13.896557	-56.935835	114.72	-0.200	-0.320	2.820	114.55	-1.80	3.30	 	 	 	 	 	 	 	 	 	 	 	 	 	 	 	 	 	 	1581467453	6.08	11.26
12/02/2020 00:30:54	120220	12022020	003054	114.60	13.896543	-56.935812	114.78	-0.120	-0.470	2.630	114.60	-1.90	3.00	 	 	 	 	 	 	 	 	 	 	 	 	 	 	 	 	 	 	1581467454	5.66	10.48
12/02/2020 00:30:55	120220	12022020	003055	114.51	13.896530	-56.935788	114.66	-0.030	-0.680	2.320	114.47	-2.20	2.80	 	 	 	 	 	 	 	 	 	 	 	 	 	 	 	 	 	 	1581467455	5.69	10.54
12/02/2020 00:30:56	120220	12022020	003056	114.29	13.896518	-56.935763	114.43	0.110	-0.840	2.260	114.24	-2.20	2.80	 	 	 	 	 	 	 	 	 	 	 	 	 	 	 	 	 	 	1581467456	5.92	10.96
12/02/2020 00:30:57	120220	12022020	003057	114.14	13.896505	-56.935740	114.32	0.150	-0.570	2.220	114.15	-1.70	2.60	 	 	 	 	 	 	 	 	 	 	 	 	 	 	 	 	 	 	1581467457	5.69	10.54
12/02/2020 00:30:58	120220	12022020	003058	114.30	13.896493	-56.935717	114.51	-0.050	0.050	1.930	114.36	-1.10	2.30	 	 	 	 	 	 	 	 	 	 	 	 	 	 	 	 	 	 	1581467458	5.20	9.63
12/02/2020 00:30:59	120220	12022020	003059	114.56	13.896482	-56.935697	114.73	-0.370	0.520	1.800	114.58	-0.80	2.40	 	 	 	 	 	 	 	 	 	 	 	 	 	 	 	 	 	 	1581467459	5.11	9.46
12/02/2020 00:31:00	120220	12022020	003100	114.54	13.896467	-56.935675	114.69	-0.480	0.490	1.980	114.52	-1.00	2.50	 	 	 	 	 	 	 	 	 	 	 	 	 	 	 	 	 	 	1581467460	5.60	10.37
12/02/2020 00:31:01	120220	12022020	003101	114.52	13.896452	-56.935650	114.69	-0.310	0.220	2.000	114.54	-1.30	2.50	 	 	 	 	 	 	 	 	 	 	 	 	 	 	 	 	 	 	1581467461	5.91	10.95
12/02/2020 00:31:02	120220	12022020	003102	114.64	13.896437	-56.935628	114.82	-0.020	-0.100	2.100	114.66	-1.60	2.70	1017.10	26.10	26.20	20.70	20.80	-1.0	72.0	72.0	395.0	25.8	326.00	15.40	74.00	13.10	39	10152.0	27.1	27.1	1581467462	5.80	10.74
12/02/2020 00:31:03	120220	12022020	003103	114.69	13.896423	-56.935603	114.84	0.340	-0.550	2.320	114.67	-2.10	2.90	 	 	 	 	 	 	 	 	 	 	 	 	 	 	 	 	 	 	1581467463	5.92	10.96
12/02/2020 00:31:04	120220	12022020	003104	114.52	13.896410	-56.935578	114.63	0.710	-0.910	2.340	114.47	-2.30	2.80	 	 	 	 	 	 	 	 	 	 	 	 	 	 	 	 	 	 	1581467464	6.01	11.13
12/02/2020 00:31:05	120220	12022020	003105	114.30	13.896400	-56.935553	114.42	0.870	-0.700	2.120	114.27	-1.80	2.50	 	 	 	 	 	 	 	 	 	 	 	 	 	 	 	 	 	 	1581467465	5.68	10.52
12/02/2020 00:31:06	120220	12022020	003106	114.29	13.896390	-56.935530	114.46	0.610	-0.110	2.070	114.32	-1.30	2.60	 	 	 	 	 	 	 	 	 	 	 	 	 	 	 	 	 	 	1581467466	5.15	9.54
12/02/2020 00:31:07	120220	12022020	003107	114.54	13.896378	-56.935510	114.75	0.030	0.230	2.310	114.60	-1.20	2.90	 	 	 	 	 	 	 	 	 	 	 	 	 	 	 	 	 	 	1581467467	5.22	9.67
12/02/2020 00:31:08	120220	12022020	003108	114.76	13.896362	-56.935488	114.93	-0.500	0.060	2.550	114.77	-1.50	3.10	 	 	 	 	 	 	 	 	 	 	 	 	 	 	 	 	 	 	1581467468	5.80	10.74
12/02/2020 00:31:09	120220	12022020	003109	114.75	13.896345	-56.935465	114.90	-0.660	-0.270	2.760	114.74	-1.70	3.30	 	 	 	 	 	 	 	 	 	 	 	 	 	 	 	 	 	 	1581467469	6.14	11.37
12/02/2020 00:31:10	120220	12022020	003110	114.64	13.896328	-56.935442	114.78	-0.460	-0.300	2.930	114.61	-1.60	3.40	 	 	 	 	 	 	 	 	 	 	 	 	 	 	 	 	 	 	1581467470	5.92	10.96
12/02/2020 00:31:11	120220	12022020	003111	114.56	13.896315	-56.935418	114.73	-0.230	-0.110	2.880	114.56	-1.40	3.30	 	 	 	 	 	 	 	 	 	 	 	 	 	 	 	 	 	 	1581467471	5.55	10.28
12/02/2020 00:31:12	120220	12022020	003112	114.52	13.896302	-56.935397	114.67	-0.200	-0.170	2.680	114.50	-1.70	3.10	 	 	 	 	 	 	 	 	 	 	 	 	 	 	 	 	 	 	1581467472	5.62	10.41
12/02/2020 00:31:13	120220	12022020	003113	114.38	13.896287	-56.935370	114.53	-0.220	-0.630	2.600	114.34	-2.20	3.10	 	 	 	 	 	 	 	 	 	 	 	 	 	 	 	 	 	 	1581467473	6.16	11.41
12/02/2020 00:31:14	120220	12022020	003114	114.15	13.896272	-56.935345	114.31	-0.010	-0.920	2.560	114.10	-2.20	3.00	 	 	 	 	 	 	 	 	 	 	 	 	 	 	 	 	 	 	1581467474	6.38	11.82
12/02/2020 00:31:15	120220	12022020	003115	114.03	13.896260	-56.935320	114.22	0.340	-0.520	2.310	114.04	-1.50	2.60	 	 	 	 	 	 	 	 	 	 	 	 	 	 	 	 	 	 	1581467475	5.88	10.89
12/02/2020 00:31:16	120220	12022020	003116	114.23	13.896250	-56.935298	114.47	0.460	0.420	1.860	114.31	-0.60	2.20	 	 	 	 	 	 	 	 	 	 	 	 	 	 	 	 	 	 	1581467476	5.10	9.45
12/02/2020 00:31:17	120220	12022020	003117	114.69	13.896240	-56.935277	114.94	0.230	1.130	1.450	114.79	-0.20	1.90	 	 	 	 	 	 	 	 	 	 	 	 	 	 	 	 	 	 	1581467477	4.81	8.91
12/02/2020 00:31:18	120220	12022020	003118	115.09	13.896228	-56.935255	115.30	-0.120	1.030	1.360	115.13	-0.70	2.00	 	 	 	 	 	 	 	 	 	 	 	 	 	 	 	 	 	 	1581467478	5.21	9.65
12/02/2020 00:31:19	120220	12022020	003119	115.06	13.896213	-56.935230	115.20	-0.230	0.020	1.780	114.99	-1.90	2.50	 	 	 	 	 	 	 	 	 	 	 	 	 	 	 	 	 	 	1581467479	6.11	11.32
12/02/2020 00:31:20	120220	12022020	003120	114.70	13.896195	-56.935203	114.74	0.040	-1.290	2.430	114.60	-2.40	2.80	 	 	 	 	 	 	 	 	 	 	 	 	 	 	 	 	 	 	1581467480	6.87	12.72
12/02/2020 00:31:21	120220	12022020	003121	114.20	13.896178	-56.935177	114.40	0.400	-1.840	2.910	114.16	-3.10	3.50	 	 	 	 	 	 	 	 	 	 	 	 	 	 	 	 	 	 	1581467481	6.58	12.19
12/02/2020 00:31:22	120220	12022020	003122	114.10	13.896165	-56.935155	114.34	0.470	-1.230	3.110	114.10	-2.80	3.60	 	 	 	 	 	 	 	 	 	 	 	 	 	 	 	 	 	 	1581467482	5.50	10.19
12/02/2020 00:31:23	120220	12022020	003123	114.32	13.896155	-56.935135	114.57	0.160	-0.160	2.850	114.39	-1.20	3.20	 	 	 	 	 	 	 	 	 	 	 	 	 	 	 	 	 	 	1581467483	4.80	8.89
12/02/2020 00:31:24	120220	12022020	003124	114.66	13.896143	-56.935113	114.88	-0.230	0.440	2.470	114.70	-0.90	2.90	 	 	 	 	 	 	 	 	 	 	 	 	 	 	 	 	 	 	1581467484	5.10	9.45
12/02/2020 00:31:25	120220	12022020	003125	114.77	13.896130	-56.935090	114.95	-0.370	0.430	2.470	114.77	-1.10	3.00	 	 	 	 	 	 	 	 	 	 	 	 	 	 	 	 	 	 	1581467485	5.84	10.82
12/02/2020 00:31:26	120220	12022020	003126	114.68	13.896113	-56.935065	114.82	-0.340	0.140	2.590	114.64	-1.30	3.10	 	 	 	 	 	 	 	 	 	 	 	 	 	 	 	 	 	 	1581467486	6.27	11.61
12/02/2020 00:31:27	120220	12022020	003127	114.52	13.896097	-56.935040	114.65	-0.370	-0.090	2.680	114.49	-1.50	3.20	 	 	 	 	 	 	 	 	 	 	 	 	 	 	 	 	 	 	1581467487	6.21	11.50
12/02/2020 00:31:28	120220	12022020	003128	114.45	13.896082	-56.935018	114.59	-0.450	-0.050	2.690	114.45	-1.40	3.10	 	 	 	 	 	 	 	 	 	 	 	 	 	 	 	 	 	 	1581467488	5.84	10.82
12/02/2020 00:31:29	120220	12022020	003129	114.48	13.896068	-56.934995	114.64	-0.370	0.030	2.410	114.51	-1.40	2.70	 	 	 	 	 	 	 	 	 	 	 	 	 	 	 	 	 	 	1581467489	5.53	10.24
12/02/2020 00:31:30	120220	12022020	003130	114.68	13.896058	-56.934970	114.85	-0.040	-0.130	1.790	114.73	-1.60	2.10	 	 	 	 	 	 	 	 	 	 	 	 	 	 	 	 	 	 	1581467490	5.70	10.56
12/02/2020 00:31:31	120220	12022020	003131	114.88	13.896047	-56.934943	115.03	0.370	-0.420	1.400	114.90	-1.90	1.90	 	 	 	 	 	 	 	 	 	 	 	 	 	 	 	 	 	 	1581467491	5.93	10.98
12/02/2020 00:31:32	120220	12022020	003132	114.91	13.896035	-56.934918	115.06	0.650	-0.600	1.460	114.91	-2.00	2.00	 	 	 	 	 	 	 	 	 	 	 	 	 	 	 	 	 	 	1581467492	5.97	11.06
12/02/2020 00:31:33	120220	12022020	003133	114.93	13.896022	-56.934895	115.11	0.560	-0.510	1.620	114.95	-1.80	2.20	 	 	 	 	 	 	 	 	 	 	 	 	 	 	 	 	 	 	1581467493	5.78	10.70
12/02/2020 00:31:34	120220	12022020	003134	115.00	13.896007	-56.934873	115.19	0.170	-0.200	2.000	115.00	-1.60	2.40	 	 	 	 	 	 	 	 	 	 	 	 	 	 	 	 	 	 	1581467494	5.53	10.24
12/02/2020 00:31:35	120220	12022020	003135	114.99	13.895990	-56.934852	115.16	-0.190	-0.010	2.560	114.97	-1.40	3.30	 	 	 	 	 	 	 	 	 	 	 	 	 	 	 	 	 	 	1581467495	5.63	10.43
12/02/2020 00:31:36	120220	12022020	003136	114.79	13.895973	-56.934830	114.95	-0.270	0.000	3.050	114.74	-1.40	3.70	 	 	 	 	 	 	 	 	 	 	 	 	 	 	 	 	 	 	1581467496	5.88	10.89
12/02/2020 00:31:37	120220	12022020	003137	114.47	13.895958	-56.934807	114.62	-0.220	-0.030	3.350	114.42	-1.50	3.80	 	 	 	 	 	 	 	 	 	 	 	 	 	 	 	 	 	 	1581467497	5.93	10.98
12/02/2020 00:31:38	120220	12022020	003138	114.28	13.895945	-56.934782	114.44	-0.160	-0.270	3.180	114.27	-1.80	3.50	 	 	 	 	 	 	 	 	 	 	 	 	 	 	 	 	 	 	1581467498	6.02	11.15
12/02/2020 00:31:39	120220	12022020	003139	114.30	13.895932	-56.934755	114.50	-0.070	-0.650	2.830	114.32	-2.10	3.20	 	 	 	 	 	 	 	 	 	 	 	 	 	 	 	 	 	 	1581467499	6.28	11.63
12/02/2020 00:31:40	120220	12022020	003140	114.45	13.895918	-56.934728	114.64	0.060	-0.700	2.460	114.49	-1.90	2.80	 	 	 	 	 	 	 	 	 	 	 	 	 	 	 	 	 	 	1581467500	6.16	11.41
12/02/2020 00:31:41	120220	12022020	003141	114.73	13.895907	-56.934705	114.93	0.040	-0.120	2.130	114.80	-1.20	2.50	 	 	 	 	 	 	 	 	 	 	 	 	 	 	 	 	 	 	1581467501	5.50	10.19
12/02/2020 00:31:42	120220	12022020	003142	115.07	13.895895	-56.934685	115.24	-0.190	0.590	1.860	115.12	-0.60	2.30	 	 	 	 	 	 	 	 	 	 	 	 	 	 	 	 	 	 	1581467502	5.01	9.28
12/02/2020 00:31:43	120220	12022020	003143	115.15	13.895880	-56.934663	115.29	-0.390	0.680	1.830	115.12	-0.90	2.40	 	 	 	 	 	 	 	 	 	 	 	 	 	 	 	 	 	 	1581467503	5.38	9.96
12/02/2020 00:31:44	120220	12022020	003144	114.87	13.895863	-56.934640	114.98	-0.260	-0.010	2.070	114.79	-1.80	2.70	 	 	 	 	 	 	 	 	 	 	 	 	 	 	 	 	 	 	1581467504	6.24	11.56
12/02/2020 00:31:45	120220	12022020	003145	114.46	13.895848	-56.934612	114.57	0.220	-0.910	2.210	114.39	-2.50	2.60	 	 	 	 	 	 	 	 	 	 	 	 	 	 	 	 	 	 	1581467505	6.71	12.43
12/02/2020 00:31:46	120220	12022020	003146	114.31	13.895837	-56.934583	114.48	0.690	-1.180	1.920	114.31	-2.60	2.50	 	 	 	 	 	 	 	 	 	 	 	 	 	 	 	 	 	 	1581467506	6.43	11.91
12/02/2020 00:31:47	120220	12022020	003147	114.57	13.895828	-56.934560	114.77	0.660	-0.500	1.570	114.64	-1.50	2.00	 	 	 	 	 	 	 	 	 	 	 	 	 	 	 	 	 	 	1581467507	5.44	10.07
12/02/2020 00:31:48	120220	12022020	003148	114.93	13.895818	-56.934540	115.13	0.100	0.370	1.660	114.93	-1.20	2.10	 	 	 	 	 	 	 	 	 	 	 	 	 	 	 	 	 	 	1581467508	4.81	8.91
12/02/2020 00:31:49	120220	12022020	003149	115.13	13.895803	-56.934518	115.30	-0.530	0.510	2.150	115.13	-1.10	2.90	 	 	 	 	 	 	 	 	 	 	 	 	 	 	 	 	 	 	1581467509	5.40	10.00
12/02/2020 00:31:50	120220	12022020	003150	115.03	13.895783	-56.934495	115.17	-0.730	-0.100	2.760	115.03	-1.30	3.10	 	 	 	 	 	 	 	 	 	 	 	 	 	 	 	 	 	 	1581467510	6.47	11.98
12/02/2020 00:31:51	120220	12022020	003151	114.81	13.895763	-56.934470	114.99	-0.520	-0.620	3.420	114.77	-2.00	4.20	 	 	 	 	 	 	 	 	 	 	 	 	 	 	 	 	 	 	1581467511	6.76	12.52
12/02/2020 00:31:52	120220	12022020	003152	114.68	13.895743	-56.934448	114.88	-0.220	-0.590	3.890	114.67	-1.80	4.30	 	 	 	 	 	 	 	 	 	 	 	 	 	 	 	 	 	 	1581467512	6.30	11.67
12/02/2020 00:31:53	120220	12022020	003153	114.62	13.895728	-56.934427	114.81	0.040	-0.220	3.550	114.59	-1.50	3.70	 	 	 	 	 	 	 	 	 	 	 	 	 	 	 	 	 	 	1581467513	5.57	10.32
12/02/2020 00:31:54	120220	12022020	003154	114.41	13.895718	-56.934402	114.54	0.390	-0.090	2.720	114.34	-1.50	2.90	 	 	 	 	 	 	 	 	 	 	 	 	 	 	 	 	 	 	1581467514	5.63	10.43
12/02/2020 00:31:55	120220	12022020	003155	114.10	13.895712	-56.934373	114.27	0.770	-0.300	1.960	114.09	-1.70	2.20	 	 	 	 	 	 	 	 	 	 	 	 	 	 	 	 	 	 	1581467515	6.28	11.63
12/02/2020 00:31:56	120220	12022020	003156	114.40	13.895703	-56.934345	114.65	0.710	-0.230	1.380	114.54	-1.40	1.80	 	 	 	 	 	 	 	 	 	 	 	 	 	 	 	 	 	 	1581467516	6.16	11.41
12/02/2020 00:31:57	120220	12022020	003157	115.21	13.895693	-56.934322	115.47	0.020	0.330	1.220	115.38	-0.80	1.80	 	 	 	 	 	 	 	 	 	 	 	 	 	 	 	 	 	 	1581467517	5.22	9.67
12/02/2020 00:31:58	120220	12022020	003158	115.88	13.895678	-56.934305	116.08	-0.850	0.800	1.610	115.94	-0.60	2.40	 	 	 	 	 	 	 	 	 	 	 	 	 	 	 	 	 	 	1581467518	4.94	9.15
12/02/2020 00:31:59	120220	12022020	003159	115.94	13.895658	-56.934287	116.10	-1.150	0.450	2.490	115.90	-1.40	3.40	 	 	 	 	 	 	 	 	 	 	 	 	 	 	 	 	 	 	1581467519	5.83	10.80
12/02/2020 00:32:00	120220	12022020	003200	115.59	13.895635	-56.934263	115.75	-0.560	-0.720	3.400	115.51	-2.60	4.10	 	 	 	 	 	 	 	 	 	 	 	 	 	 	 	 	 	 	1581467520	6.93	12.83
12/02/2020 00:32:01	120220	12022020	003201	115.24	13.895615	-56.934237	115.46	0.520	-1.780	3.810	115.20	-3.30	4.30	 	 	 	 	 	 	 	 	 	 	 	 	 	 	 	 	 	 	1581467521	7.15	13.24
12/02/2020 00:32:02	120220	12022020	003202	115.10	13.895602	-56.934210	115.32	1.290	-1.790	3.540	115.09	-2.80	3.70	1017.00	26.10	26.20	20.70	20.80	-1.0	72.0	72.0	396.0	25.8	326.00	16.10	74.00	13.70	31	10003.0	27.1	27.1	1581467522	6.38	11.82
12/02/2020 00:32:03	120220	12022020	003203	115.10	13.895593	-56.934185	115.33	1.200	-0.730	2.770	115.12	-1.50	2.90	 	 	 	 	 	 	 	 	 	 	 	 	 	 	 	 	 	 	1581467523	5.39	9.98
12/02/2020 00:32:04	120220	12022020	003204	115.27	13.895587	-56.934163	115.51	0.370	0.660	1.920	115.34	-0.20	2.10	 	 	 	 	 	 	 	 	 	 	 	 	 	 	 	 	 	 	1581467524	4.80	8.89
12/02/2020 00:32:05	120220	12022020	003205	115.70	13.895578	-56.934143	115.94	-0.690	1.790	1.370	115.82	0.70	1.70	 	 	 	 	 	 	 	 	 	 	 	 	 	 	 	 	 	 	1581467525	4.57	8.46
12/02/2020 00:32:06	120220	12022020	003206	116.33	13.895567	-56.934123	116.59	-1.450	2.110	1.160	116.46	0.40	1.70	 	 	 	 	 	 	 	 	 	 	 	 	 	 	 	 	 	 	1581467526	4.73	8.76
12/02/2020 00:32:07	120220	12022020	003207	116.71	13.895550	-56.934102	116.89	-1.450	0.880	1.290	116.70	-1.50	2.00	 	 	 	 	 	 	 	 	 	 	 	 	 	 	 	 	 	 	1581467527	5.89	10.91
12/02/2020 00:32:08	120220	12022020	003208	116.35	13.895527	-56.934073	116.45	-0.480	-1.670	1.880	116.18	-4.00	2.80	 	 	 	 	 	 	 	 	 	 	 	 	 	 	 	 	 	 	1581467528	7.76	14.37
12/02/2020 00:32:09	120220	12022020	003209	115.37	13.895502	-56.934043	115.46	0.850	-3.470	2.830	115.16	-4.80	3.60	 	 	 	 	 	 	 	 	 	 	 	 	 	 	 	 	 	 	1581467529	8.26	15.30
12/02/2020 00:32:10	120220	12022020	003210	114.63	13.895485	-56.934020	114.65	1.580	-2.640	3.230	114.49	-4.40	3.70	 	 	 	 	 	 	 	 	 	 	 	 	 	 	 	 	 	 	1581467530	6.13	11.35
12/02/2020 00:32:11	120220	12022020	003211	114.30	13.895478	-56.934003	114.55	1.200	-0.100	2.760	114.36	-0.40	2.90	 	 	 	 	 	 	 	 	 	 	 	 	 	 	 	 	 	 	1581467531	3.85	7.13
12/02/2020 00:32:12	120220	12022020	003212	114.80	13.895473	-56.933987	115.08	0.070	1.980	2.030	114.80	0.20	2.70	 	 	 	 	 	 	 	 	 	 	 	 	 	 	 	 	 	 	1581467532	3.55	6.57
12/02/2020 00:32:13	120220	12022020	003213	115.26	13.895462	-56.933967	115.45	-0.940	2.270	1.840	115.29	0.50	2.40	 	 	 	 	 	 	 	 	 	 	 	 	 	 	 	 	 	 	1581467533	4.87	9.02
12/02/2020 00:32:14	120220	12022020	003214	115.12	13.895443	-56.933943	115.23	-1.160	1.110	2.110	115.04	-0.90	2.80	 	 	 	 	 	 	 	 	 	 	 	 	 	 	 	 	 	 	1581467534	6.53	12.09
12/02/2020 00:32:15	120220	12022020	003215	114.66	13.895423	-56.933917	114.78	-0.650	-0.290	2.550	114.57	-2.10	3.20	 	 	 	 	 	 	 	 	 	 	 	 	 	 	 	 	 	 	1581467535	6.98	12.93
12/02/2020 00:32:16	120220	12022020	003216	114.31	13.895405	-56.933892	114.48	0.060	-1.080	2.920	114.28	-2.60	3.50	 	 	 	 	 	 	 	 	 	 	 	 	 	 	 	 	 	 	1581467536	6.36	11.78
12/02/2020 00:32:17	120220	12022020	003217	114.22	13.895392	-56.933868	114.42	0.490	-1.300	2.970	114.22	-2.70	3.40	 	 	 	 	 	 	 	 	 	 	 	 	 	 	 	 	 	 	1581467537	5.70	10.56
12/02/2020 00:32:18	120220	12022020	003218	114.26	13.895378	-56.933847	114.48	0.560	-1.260	2.930	114.28	-2.50	3.40	 	 	 	 	 	 	 	 	 	 	 	 	 	 	 	 	 	 	1581467538	5.57	10.32
12/02/2020 00:32:19	120220	12022020	003219	114.30	13.895363	-56.933825	114.51	0.460	-0.910	2.950	114.29	-2.00	3.40	 	 	 	 	 	 	 	 	 	 	 	 	 	 	 	 	 	 	1581467539	5.60	10.37
12/02/2020 00:32:20	120220	12022020	003220	114.17	13.895350	-56.933803	114.33	0.360	-0.270	2.880	114.10	-1.40	3.30	 	 	 	 	 	 	 	 	 	 	 	 	 	 	 	 	 	 	1581467540	5.37	9.95
12/02/2020 00:32:21	120220	12022020	003221	113.80	13.895338	-56.933780	113.94	0.290	0.260	2.670	113.72	-1.00	3.10	 	 	 	 	 	 	 	 	 	 	 	 	 	 	 	 	 	 	1581467541	5.38	9.96
12/02/2020 00:32:22	120220	12022020	003222	113.47	13.895327	-56.933755	113.64	0.160	0.470	2.420	113.43	-0.90	2.80	 	 	 	 	 	 	 	 	 	 	 	 	 	 	 	 	 	 	1581467542	5.61	10.39
12/02/2020 00:32:23	120220	12022020	003223	113.40	13.895317	-56.933730	113.59	-0.040	0.430	2.090	113.42	-1.00	2.40	 	 	 	 	 	 	 	 	 	 	 	 	 	 	 	 	 	 	1581467543	5.78	10.70
12/02/2020 00:32:24	120220	12022020	003224	113.60	13.895307	-56.933705	113.82	-0.280	0.270	1.710	113.60	-1.10	2.30	 	 	 	 	 	 	 	 	 	 	 	 	 	 	 	 	 	 	1581467544	5.82	10.78
12/02/2020 00:32:25	120220	12022020	003225	113.92	13.895293	-56.933680	114.13	-0.520	0.060	1.630	113.98	-1.40	2.30	 	 	 	 	 	 	 	 	 	 	 	 	 	 	 	 	 	 	1581467545	5.77	10.69
12/02/2020 00:32:26	120220	12022020	003226	114.12	13.895277	-56.933658	114.28	-0.610	-0.330	2.080	114.14	-1.90	2.80	 	 	 	 	 	 	 	 	 	 	 	 	 	 	 	 	 	 	1581467546	5.98	11.07
12/02/2020 00:32:27	120220	12022020	003227	114.13	13.895257	-56.933637	114.29	-0.350	-0.860	2.750	114.12	-2.40	3.50	 	 	 	 	 	 	 	 	 	 	 	 	 	 	 	 	 	 	1581467547	6.39	11.83
12/02/2020 00:32:28	120220	12022020	003228	113.96	13.895237	-56.933613	114.11	0.160	-0.990	3.300	113.92	-2.20	3.90	 	 	 	 	 	 	 	 	 	 	 	 	 	 	 	 	 	 	1581467548	6.32	11.70
12/02/2020 00:32:29	120220	12022020	003229	113.81	13.895223	-56.933592	113.99	0.550	-0.320	3.260	113.80	-1.30	3.50	 	 	 	 	 	 	 	 	 	 	 	 	 	 	 	 	 	 	1581467549	5.38	9.96
12/02/2020 00:32:30	120220	12022020	003230	113.82	13.895215	-56.933570	114.01	0.610	0.460	2.580	113.84	-0.80	2.70	 	 	 	 	 	 	 	 	 	 	 	 	 	 	 	 	 	 	1581467550	4.78	8.85
12/02/2020 00:32:31	120220	12022020	003231	113.92	13.895210	-56.933545	114.10	0.470	0.380	1.740	113.96	-1.30	1.90	 	 	 	 	 	 	 	 	 	 	 	 	 	 	 	 	 	 	1581467551	5.52	10.22
12/02/2020 00:32:32	120220	12022020	003232	114.20	13.895202	-56.933517	114.39	0.220	-0.270	1.160	114.28	-1.90	1.60	 	 	 	 	 	 	 	 	 	 	 	 	 	 	 	 	 	 	1581467552	6.33	11.72
12/02/2020 00:32:33	120220	12022020	003233	114.52	13.895188	-56.933490	114.68	-0.160	-0.570	1.220	114.55	-1.90	1.90	 	 	 	 	 	 	 	 	 	 	 	 	 	 	 	 	 	 	1581467553	6.06	11.22
12/02/2020 00:32:34	120220	12022020	003234	114.53	13.895172	-56.933470	114.66	-0.510	-0.400	1.810	114.49	-1.70	2.60	 	 	 	 	 	 	 	 	 	 	 	 	 	 	 	 	 	 	1581467554	5.62	10.41
12/02/2020 00:32:35	120220	12022020	003235	114.31	13.895155	-56.933450	114.45	-0.590	-0.180	2.350	114.28	-1.50	3.00	 	 	 	 	 	 	 	 	 	 	 	 	 	 	 	 	 	 	1581467555	5.57	10.32
12/02/2020 00:32:36	120220	12022020	003236	114.15	13.895138	-56.933428	114.29	-0.310	-0.130	2.590	114.15	-1.50	3.00	 	 	 	 	 	 	 	 	 	 	 	 	 	 	 	 	 	 	1581467556	5.72	10.59
12/02/2020 00:32:37	120220	12022020	003237	114.01	13.895123	-56.933403	114.16	0.170	-0.260	2.610	113.99	-1.70	3.00	 	 	 	 	 	 	 	 	 	 	 	 	 	 	 	 	 	 	1581467557	5.95	11.02
12/02/2020 00:32:38	120220	12022020	003238	114.02	13.895112	-56.933378	114.20	0.480	-0.440	2.270	114.02	-1.80	2.90	 	 	 	 	 	 	 	 	 	 	 	 	 	 	 	 	 	 	1581467558	6.07	11.24
12/02/2020 00:32:39	120220	12022020	003239	114.42	13.895103	-56.933352	114.64	0.340	-0.340	1.770	114.52	-1.60	2.20	 	 	 	 	 	 	 	 	 	 	 	 	 	 	 	 	 	 	1581467559	5.84	10.82
12/02/2020 00:32:40	120220	12022020	003240	114.93	13.895092	-56.933328	115.11	-0.070	-0.040	1.680	115.00	-1.40	2.30	 	 	 	 	 	 	 	 	 	 	 	 	 	 	 	 	 	 	1581467560	5.41	10.02
12/02/2020 00:32:41	120220	12022020	003241	115.03	13.895075	-56.933307	115.14	-0.300	-0.080	2.120	114.98	-1.60	2.80	 	 	 	 	 	 	 	 	 	 	 	 	 	 	 	 	 	 	1581467561	5.77	10.69
12/02/2020 00:32:42	120220	12022020	003242	114.64	13.895057	-56.933283	114.74	-0.210	-0.260	2.640	114.55	-1.50	3.30	 	 	 	 	 	 	 	 	 	 	 	 	 	 	 	 	 	 	1581467562	6.30	11.67
12/02/2020 00:32:43	120220	12022020	003243	114.31	13.895042	-56.933262	114.48	-0.130	0.170	2.800	114.30	-0.90	3.20	 	 	 	 	 	 	 	 	 	 	 	 	 	 	 	 	 	 	1581467563	5.64	10.45
12/02/2020 00:32:44	120220	12022020	003244	114.44	13.895030	-56.933242	114.66	-0.220	0.800	2.390	114.51	-0.50	2.60	 	 	 	 	 	 	 	 	 	 	 	 	 	 	 	 	 	 	1581467564	4.76	8.82
12/02/2020 00:32:45	120220	12022020	003245	114.82	13.895022	-56.933218	115.01	-0.170	0.460	1.700	114.88	-1.40	2.00	 	 	 	 	 	 	 	 	 	 	 	 	 	 	 	 	 	 	1581467565	5.23	9.69
12/02/2020 00:32:46	120220	12022020	003246	114.96	13.895008	-56.933190	115.10	0.320	-1.070	1.440	114.95	-3.10	2.00	 	 	 	 	 	 	 	 	 	 	 	 	 	 	 	 	 	 	1581467566	6.81	12.61
12/02/2020 00:32:47	120220	12022020	003247	114.96	13.894992	-56.933158	115.14	0.850	-2.200	1.650	114.99	-3.50	2.30	 	 	 	 	 	 	 	 	 	 	 	 	 	 	 	 	 	 	1581467567	7.40	13.70
12/02/2020 00:32:48	120220	12022020	003248	115.12	13.894975	-56.933137	115.35	0.730	-1.340	2.170	115.18	-1.80	2.90	 	 	 	 	 	 	 	 	 	 	 	 	 	 	 	 	 	 	1581467568	5.73	10.61
12/02/2020 00:32:49	120220	12022020	003249	115.43	13.894963	-56.933125	115.66	-0.120	0.920	2.810	115.48	0.30	3.50	 	 	 	 	 	 	 	 	 	 	 	 	 	 	 	 	 	 	1581467569	3.78	7.00
12/02/2020 00:32:50	120220	12022020	003250	115.59	13.894950	-56.933113	115.76	-0.930	2.180	3.040	115.59	0.60	3.40	 	 	 	 	 	 	 	 	 	 	 	 	 	 	 	 	 	 	1581467570	3.74	6.93
12/02/2020 00:32:51	120220	12022020	003251	115.49	13.894935	-56.933090	115.64	-0.930	1.180	2.820	115.45	-1.10	3.30	 	 	 	 	 	 	 	 	 	 	 	 	 	 	 	 	 	 	1581467571	5.68	10.52
12/02/2020 00:32:52	120220	12022020	003252	115.18	13.894918	-56.933060	115.32	-0.230	-0.990	2.910	115.12	-3.10	3.50	 	 	 	 	 	 	 	 	 	 	 	 	 	 	 	 	 	 	1581467572	7.47	13.83
12/02/2020 00:32:53	120220	12022020	003253	115.07	13.894900	-56.933030	115.31	0.410	-2.260	3.020	115.11	-3.60	3.50	 	 	 	 	 	 	 	 	 	 	 	 	 	 	 	 	 	 	1581467573	7.32	13.56
12/02/2020 00:32:54	120220	12022020	003254	115.40	13.894885	-56.933008	115.68	0.500	-1.680	2.870	115.51	-2.40	3.20	 	 	 	 	 	 	 	 	 	 	 	 	 	 	 	 	 	 	1581467574	5.53	10.24
12/02/2020 00:32:55	120220	12022020	003255	115.91	13.894872	-56.932993	116.15	0.220	-0.130	2.600	115.99	-1.00	3.00	 	 	 	 	 	 	 	 	 	 	 	 	 	 	 	 	 	 	1581467575	4.16	7.70
12/02/2020 00:32:56	120220	12022020	003256	116.14	13.894860	-56.932977	116.32	0.160	0.780	2.350	116.14	-0.60	2.70	 	 	 	 	 	 	 	 	 	 	 	 	 	 	 	 	 	 	1581467576	4.43	8.20
12/02/2020 00:32:57	120220	12022020	003257	116.09	13.894848	-56.932953	116.27	0.360	0.720	1.970	116.12	-0.70	2.30	 	 	 	 	 	 	 	 	 	 	 	 	 	 	 	 	 	 	1581467577	5.65	10.46
12/02/2020 00:32:58	120220	12022020	003258	116.41	13.894837	-56.932930	116.65	0.070	0.900	1.770	116.51	-0.30	2.40	 	 	 	 	 	 	 	 	 	 	 	 	 	 	 	 	 	 	1581467578	5.40	10.00
12/02/2020 00:32:59	120220	12022020	003259	116.92	13.894823	-56.932913	117.18	-0.750	1.210	2.120	117.02	-0.20	2.80	 	 	 	 	 	 	 	 	 	 	 	 	 	 	 	 	 	 	1581467579	4.47	8.28
12/02/2020 00:33:00	120220	12022020	003300	117.25	13.894807	-56.932898	117.45	-1.280	0.610	2.630	117.25	-0.50	3.00	 	 	 	 	 	 	 	 	 	 	 	 	 	 	 	 	 	 	1581467580	4.90	9.07
12/02/2020 00:33:01	120220	12022020	003301	117.02	13.894785	-56.932875	117.15	-0.450	-1.630	3.020	116.90	-4.10	3.70	 	 	 	 	 	 	 	 	 	 	 	 	 	 	 	 	 	 	1581467581	6.70	12.41
12/02/2020 00:33:02	120220	12022020	003302	116.31	13.894762	-56.932845	116.46	1.250	-3.660	3.580	116.31	-4.70	3.90	1017.00	26.20	26.20	20.80	20.90	-1.0	72.0	72.0	396.0	25.8	325.00	15.40	72.00	13.20	29	10218.0	27.1	27.1	1581467582	7.92	14.67
12/02/2020 00:33:03	120220	12022020	003303	116.10	13.894747	-56.932822	116.40	2.050	-2.740	3.840	116.16	-2.90	4.20	 	 	 	 	 	 	 	 	 	 	 	 	 	 	 	 	 	 	1581467583	5.90	10.93
12/02/2020 00:33:04	120220	12022020	003304	116.73	13.894738	-56.932812	117.09	1.100	0.420	3.450	116.90	0.40	3.60	 	 	 	 	 	 	 	 	 	 	 	 	 	 	 	 	 	 	1581467584	2.77	5.13
12/02/2020 00:33:05	120220	12022020	003305	117.52	13.894732	-56.932805	117.79	-0.760	3.080	2.780	117.61	2.10	3.10	 	 	 	 	 	 	 	 	 	 	 	 	 	 	 	 	 	 	1581467585	1.93	3.57
12/02/2020 00:33:06	120220	12022020	003306	117.74	13.894720	-56.932792	117.93	-1.990	3.260	2.470	117.72	1.20	2.90	 	 	 	 	 	 	 	 	 	 	 	 	 	 	 	 	 	 	1581467586	3.89	7.20
12/02/2020 00:33:07	120220	12022020	003307	117.53	13.894700	-56.932770	117.68	-1.790	1.200	2.460	117.47	-1.30	3.00	 	 	 	 	 	 	 	 	 	 	 	 	 	 	 	 	 	 	1581467587	6.32	11.70
12/02/2020 00:33:08	120220	12022020	003308	117.20	13.894677	-56.932743	117.36	-0.590	-1.350	2.430	117.13	-3.50	2.90	 	 	 	 	 	 	 	 	 	 	 	 	 	 	 	 	 	 	1581467588	7.25	13.43
12/02/2020 00:33:09	120220	12022020	003309	116.88	13.894660	-56.932718	117.04	0.660	-2.720	2.210	116.82	-4.10	2.50	 	 	 	 	 	 	 	 	 	 	 	 	 	 	 	 	 	 	1581467589	6.45	11.95
12/02/2020 00:33:10	120220	12022020	003310	116.61	13.894648	-56.932698	116.77	1.250	-2.350	1.740	116.56	-3.20	2.00	 	 	 	 	 	 	 	 	 	 	 	 	 	 	 	 	 	 	1581467590	4.88	9.04
12/02/2020 00:33:11	120220	12022020	003311	116.42	13.894642	-56.932682	116.59	1.150	-0.940	1.320	116.40	-1.70	1.70	 	 	 	 	 	 	 	 	 	 	 	 	 	 	 	 	 	 	1581467591	3.87	7.17
12/02/2020 00:33:12	120220	12022020	003312	116.37	13.894633	-56.932667	116.55	0.550	0.540	1.240	116.37	-1.10	1.70	 	 	 	 	 	 	 	 	 	 	 	 	 	 	 	 	 	 	1581467592	3.67	6.80
12/02/2020 00:33:13	120220	12022020	003313	116.33	13.894622	-56.932650	116.50	-0.260	1.330	1.650	116.30	-0.00	2.40	 	 	 	 	 	 	 	 	 	 	 	 	 	 	 	 	 	 	1581467593	4.25	7.87
12/02/2020 00:33:14	120220	12022020	003314	116.14	13.894603	-56.932633	116.31	-0.880	1.230	2.340	116.14	-0.10	2.70	 	 	 	 	 	 	 	 	 	 	 	 	 	 	 	 	 	 	1581467594	5.27	9.76
12/02/2020 00:33:15	120220	12022020	003315	115.79	13.894582	-56.932617	115.94	-0.990	0.620	3.120	115.70	-1.10	3.90	 	 	 	 	 	 	 	 	 	 	 	 	 	 	 	 	 	 	1581467595	5.82	10.78
12/02/2020 00:33:16	120220	12022020	003316	115.34	13.894562	-56.932598	115.51	-0.520	-0.260	3.780	115.26	-2.00	4.40	 	 	 	 	 	 	 	 	 	 	 	 	 	 	 	 	 	 	1581467596	5.91	10.95
12/02/2020 00:33:17	120220	12022020	003317	114.93	13.894543	-56.932577	115.11	0.310	-1.200	3.970	114.86	-2.90	4.40	 	 	 	 	 	 	 	 	 	 	 	 	 	 	 	 	 	 	1581467597	5.86	10.85
12/02/2020 00:33:18	120220	12022020	003318	114.53	13.894532	-56.932553	114.72	0.980	-1.640	3.690	114.47	-2.90	4.00	 	 	 	 	 	 	 	 	 	 	 	 	 	 	 	 	 	 	1581467598	5.63	10.43
12/02/2020 00:33:19	120220	12022020	003319	114.40	13.894522	-56.932532	114.64	1.000	-1.080	3.230	114.45	-2.00	3.50	 	 	 	 	 	 	 	 	 	 	 	 	 	 	 	 	 	 	1581467599	4.85	8.98
12/02/2020 00:33:20	120220	12022020	003320	114.84	13.894513	-56.932515	115.14	0.350	0.140	2.760	114.97	-0.80	3.10	 	 	 	 	 	 	 	 	 	 	 	 	 	 	 	 	 	 	1581467600	3.92	7.26
12/02/2020 00:33:21	120220	12022020	003321	115.46	13.894503	-56.932500	115.69	-0.460	1.010	2.350	115.54	-0.30	2.80	 	 	 	 	 	 	 	 	 	 	 	 	 	 	 	 	 	 	1581467601	3.88	7.19
12/02/2020 00:33:22	120220	12022020	003322	115.59	13.894488	-56.932483	115.73	-0.720	0.830	2.290	115.54	-0.90	2.90	 	 	 	 	 	 	 	 	 	 	 	 	 	 	 	 	 	 	1581467602	4.85	8.98
12/02/2020 00:33:23	120220	12022020	003323	115.21	13.894472	-56.932462	115.32	-0.220	-0.090	2.510	115.10	-1.80	3.10	 	 	 	 	 	 	 	 	 	 	 	 	 	 	 	 	 	 	1581467603	5.87	10.87
12/02/2020 00:33:24	120220	12022020	003324	114.75	13.894457	-56.932438	114.89	0.420	-0.660	2.740	114.70	-2.00	3.20	 	 	 	 	 	 	 	 	 	 	 	 	 	 	 	 	 	 	1581467604	5.78	10.70
12/02/2020 00:33:25	120220	12022020	003325	114.70	13.894447	-56.932418	114.91	0.460	-0.450	2.620	114.75	-1.60	3.00	 	 	 	 	 	 	 	 	 	 	 	 	 	 	 	 	 	 	1581467605	4.82	8.93
12/02/2020 00:33:26	120220	12022020	003326	115.04	13.894437	-56.932400	115.25	-0.050	-0.040	2.230	115.11	-1.40	2.60	 	 	 	 	 	 	 	 	 	 	 	 	 	 	 	 	 	 	1581467606	4.21	7.80
12/02/2020 00:33:27	120220	12022020	003327	115.32	13.894423	-56.932382	115.51	-0.420	-0.070	2.170	115.36	-1.60	2.80	 	 	 	 	 	 	 	 	 	 	 	 	 	 	 	 	 	 	1581467607	4.63	8.57
12/02/2020 00:33:28	120220	12022020	003328	115.42	13.894408	-56.932363	115.61	-0.180	-0.450	2.410	115.42	-1.70	2.80	 	 	 	 	 	 	 	 	 	 	 	 	 	 	 	 	 	 	1581467608	5.30	9.82
12/02/2020 00:33:29	120220	12022020	003329	115.49	13.894393	-56.932342	115.69	0.320	-0.820	2.550	115.50	-2.30	3.10	 	 	 	 	 	 	 	 	 	 	 	 	 	 	 	 	 	 	1581467609	5.50	10.19
12/02/2020 00:33:30	120220	12022020	003330	115.51	13.894380	-56.932320	115.69	0.580	-0.910	2.580	115.50	-2.20	3.10	 	 	 	 	 	 	 	 	 	 	 	 	 	 	 	 	 	 	1581467610	5.41	10.02
12/02/2020 00:33:31	120220	12022020	003331	115.41	13.894367	-56.932300	115.58	0.390	-0.500	2.740	115.38	-1.60	3.30	 	 	 	 	 	 	 	 	 	 	 	 	 	 	 	 	 	 	1581467611	5.07	9.39
12/02/2020 00:33:32	120220	12022020	003332	115.31	13.894352	-56.932283	115.49	-0.020	0.220	2.880	115.31	-0.90	3.30	 	 	 	 	 	 	 	 	 	 	 	 	 	 	 	 	 	 	1581467612	4.72	8.74
12/02/2020 00:33:33	120220	12022020	003333	115.43	13.894340	-56.932265	115.62	-0.410	0.880	2.610	115.47	-0.30	2.90	 	 	 	 	 	 	 	 	 	 	 	 	 	 	 	 	 	 	1581467613	4.50	8.33
12/02/2020 00:33:34	120220	12022020	003334	115.62	13.894330	-56.932247	115.81	-0.700	1.190	2.170	115.65	-0.30	2.50	 	 	 	 	 	 	 	 	 	 	 	 	 	 	 	 	 	 	1581467614	4.45	8.24
12/02/2020 00:33:35	120220	12022020	003335	115.63	13.894318	-56.932227	115.78	-0.650	0.700	1.890	115.60	-1.10	2.40	 	 	 	 	 	 	 	 	 	 	 	 	 	 	 	 	 	 	1581467615	4.91	9.09
12/02/2020 00:33:36	120220	12022020	003336	115.46	13.894303	-56.932203	115.61	-0.180	-0.490	1.800	115.43	-2.40	2.30	 	 	 	 	 	 	 	 	 	 	 	 	 	 	 	 	 	 	1581467616	5.75	10.65
12/02/2020 00:33:37	120220	12022020	003337	115.37	13.894290	-56.932178	115.54	0.430	-1.560	1.700	115.37	-3.10	2.20	 	 	 	 	 	 	 	 	 	 	 	 	 	 	 	 	 	 	1581467617	6.02	11.15
12/02/2020 00:33:38	120220	12022020	003338	115.40	13.894277	-56.932157	115.60	0.790	-1.730	1.710	115.41	-3.20	2.20	 	 	 	 	 	 	 	 	 	 	 	 	 	 	 	 	 	 	1581467618	5.46	10.11
12/02/2020 00:33:39	120220	12022020	003339	115.51	13.894265	-56.932138	115.71	0.740	-0.950	1.880	115.53	-1.90	2.50	 	 	 	 	 	 	 	 	 	 	 	 	 	 	 	 	 	 	1581467619	4.65	8.61
12/02/2020 00:33:40	120220	12022020	003340	115.49	13.894252	-56.932123	115.62	0.410	0.040	2.160	115.44	-1.10	2.80	 	 	 	 	 	 	 	 	 	 	 	 	 	 	 	 	 	 	1581467620	4.36	8.07
12/02/2020 00:33:41	120220	12022020	003341	115.10	13.894237	-56.932105	115.19	0.020	0.530	2.640	115.00	-0.80	3.40	 	 	 	 	 	 	 	 	 	 	 	 	 	 	 	 	 	 	1581467621	4.89	9.06
12/02/2020 00:33:42	120220	12022020	003342	114.58	13.894222	-56.932085	114.72	-0.360	0.570	3.150	114.51	-0.80	3.70	 	 	 	 	 	 	 	 	 	 	 	 	 	 	 	 	 	 	1581467622	5.37	9.95
12/02/2020 00:33:43	120220	12022020	003343	114.37	13.894207	-56.932065	114.58	-0.610	0.450	3.140	114.37	-1.00	3.50	 	 	 	 	 	 	 	 	 	 	 	 	 	 	 	 	 	 	1581467623	5.35	9.91
12/02/2020 00:33:44	120220	12022020	003344	114.47	13.894193	-56.932043	114.68	-0.550	0.230	2.820	114.49	-1.30	3.20	 	 	 	 	 	 	 	 	 	 	 	 	 	 	 	 	 	 	1581467624	5.19	9.61
12/02/2020 00:33:45	120220	12022020	003345	114.62	13.894182	-56.932022	114.85	-0.250	-0.190	2.620	114.66	-1.80	3.10	 	 	 	 	 	 	 	 	 	 	 	 	 	 	 	 	 	 	1581467625	5.34	9.89
12/02/2020 00:33:46	120220	12022020	003346	114.77	13.894170	-56.931998	114.99	-0.010	-0.660	2.630	114.79	-2.20	3.20	 	 	 	 	 	 	 	 	 	 	 	 	 	 	 	 	 	 	1581467626	5.45	10.09
12/02/2020 00:33:47	120220	12022020	003347	114.73	13.894155	-56.931978	114.91	0.080	-0.850	2.930	114.69	-2.20	3.60	 	 	 	 	 	 	 	 	 	 	 	 	 	 	 	 	 	 	1581467627	5.39	9.98
12/02/2020 00:33:48	120220	12022020	003348	114.43	13.894138	-56.931960	114.61	0.160	-0.650	3.370	114.36	-1.90	4.00	 	 	 	 	 	 	 	 	 	 	 	 	 	 	 	 	 	 	1581467628	5.20	9.63
12/02/2020 00:33:49	120220	12022020	003349	114.14	13.894123	-56.931942	114.35	0.280	-0.300	3.570	114.10	-1.50	4.00	 	 	 	 	 	 	 	 	 	 	 	 	 	 	 	 	 	 	1581467629	5.07	9.39
12/02/2020 00:33:50	120220	12022020	003350	114.01	13.894112	-56.931920	114.24	0.400	-0.050	3.300	114.00	-1.40	3.50	 	 	 	 	 	 	 	 	 	 	 	 	 	 	 	 	 	 	1581467630	5.01	9.28
12/02/2020 00:33:51	120220	12022020	003351	113.95	13.894103	-56.931898	114.15	0.370	0.060	2.590	113.93	-1.30	2.70	 	 	 	 	 	 	 	 	 	 	 	 	 	 	 	 	 	 	1581467631	5.08	9.41
12/02/2020 00:33:52	120220	12022020	003352	113.93	13.894097	-56.931875	114.14	0.140	0.190	1.750	113.93	-1.20	2.40	 	 	 	 	 	 	 	 	 	 	 	 	 	 	 	 	 	 	1581467632	5.07	9.39
12/02/2020 00:33:53	120220	12022020	003353	114.01	13.894088	-56.931853	114.22	-0.170	0.180	1.300	114.03	-1.30	1.70	 	 	 	 	 	 	 	 	 	 	 	 	 	 	 	 	 	 	1581467633	4.94	9.15
12/02/2020 00:33:54	120220	12022020	003354	114.18	13.894077	-56.931830	114.40	-0.310	-0.240	1.220	114.23	-1.90	1.70	 	 	 	 	 	 	 	 	 	 	 	 	 	 	 	 	 	 	1581467634	5.37	9.95
12/02/2020 00:33:55	120220	12022020	003355	114.40	13.894062	-56.931807	114.60	-0.240	-0.760	1.320	114.42	-2.20	1.90	 	 	 	 	 	 	 	 	 	 	 	 	 	 	 	 	 	 	1581467635	5.86	10.85
12/02/2020 00:33:56	120220	12022020	003356	114.42	13.894045	-56.931787	114.59	-0.170	-0.750	1.730	114.40	-1.90	2.50	 	 	 	 	 	 	 	 	 	 	 	 	 	 	 	 	 	 	1581467636	5.60	10.37
12/02/2020 00:33:57	120220	12022020	003357	114.24	13.894032	-56.931768	114.39	-0.180	-0.160	2.290	114.19	-1.20	3.00	 	 	 	 	 	 	 	 	 	 	 	 	 	 	 	 	 	 	1581467637	4.89	9.06
12/02/2020 00:33:58	120220	12022020	003358	114.05	13.894018	-56.931752	114.24	-0.200	0.480	2.570	114.04	-0.80	3.00	 	 	 	 	 	 	 	 	 	 	 	 	 	 	 	 	 	 	1581467638	4.46	8.26
12/02/2020 00:33:59	120220	12022020	003359	114.21	13.894008	-56.931730	114.46	-0.180	0.630	2.280	114.30	-0.90	2.60	 	 	 	 	 	 	 	 	 	 	 	 	 	 	 	 	 	 	1581467639	4.71	8.72
12/02/2020 00:34:00	120220	12022020	003400	114.70	13.893998	-56.931708	114.94	-0.160	0.130	1.980	114.78	-1.50	2.50	 	 	 	 	 	 	 	 	 	 	 	 	 	 	 	 	 	 	1581467640	5.24	9.70
12/02/2020 00:34:01	120220	12022020	003401	114.84	13.893982	-56.931687	114.99	-0.060	-0.730	2.260	114.77	-2.40	3.00	 	 	 	 	 	 	 	 	 	 	 	 	 	 	 	 	 	 	1581467641	5.88	10.89
12/02/2020 00:34:02	120220	12022020	003402	114.31	13.893963	-56.931663	114.41	0.240	-1.320	2.810	114.17	-2.70	3.40	1017.00	26.10	26.20	20.80	20.90	-1.0	72.0	72.0	395.0	25.8	322.00	15.50	71.00	13.60	35	9648.0	27.1	27.1	1581467642	6.06	11.22
12/02/2020 00:34:03	120220	12022020	003403	113.66	13.893950	-56.931642	113.80	0.590	-1.110	3.030	113.57	-2.10	3.50	 	 	 	 	 	 	 	 	 	 	 	 	 	 	 	 	 	 	1581467643	5.47	10.13
12/02/2020 00:34:04	120220	12022020	003404	113.41	13.893940	-56.931622	113.63	0.620	-0.310	2.800	113.41	-1.90	3.40	 	 	 	 	 	 	 	 	 	 	 	 	 	 	 	 	 	 	1581467644	4.77	8.83
12/02/2020 00:34:05	120220	12022020	003405	113.64	13.893933	-56.931602	113.92	0.210	0.520	2.100	113.73	-0.60	2.20	 	 	 	 	 	 	 	 	 	 	 	 	 	 	 	 	 	 	1581467645	4.53	8.39
12/02/2020 00:34:06	120220	12022020	003406	114.12	13.893927	-56.931580	114.39	-0.460	0.980	1.350	114.20	-0.30	1.70	 	 	 	 	 	 	 	 	 	 	 	 	 	 	 	 	 	 	1581467646	4.62	8.56
12/02/2020 00:34:07	120220	12022020	003407	114.46	13.893917	-56.931560	114.70	-0.950	0.860	1.210	114.49	-0.70	1.80	 	 	 	 	 	 	 	 	 	 	 	 	 	 	 	 	 	 	1581467647	4.92	9.11
12/02/2020 00:34:08	120220	12022020	003408	114.54	13.893902	-56.931538	114.75	-0.930	0.190	1.540	114.54	-1.50	2.20	 	 	 	 	 	 	 	 	 	 	 	 	 	 	 	 	 	 	1581467648	5.49	10.17
12/02/2020 00:34:09	120220	12022020	003409	114.49	13.893883	-56.931517	114.69	-0.390	-0.760	2.050	114.47	-2.50	2.80	 	 	 	 	 	 	 	 	 	 	 	 	 	 	 	 	 	 	1581467649	6.00	11.11
12/02/2020 00:34:10	120220	12022020	003410	114.29	13.893865	-56.931493	114.47	0.360	-1.480	2.670	114.24	-2.90	3.40	 	 	 	 	 	 	 	 	 	 	 	 	 	 	 	 	 	 	1581467650	6.15	11.39
12/02/2020 00:34:11	120220	12022020	003411	113.97	13.893850	-56.931472	114.13	0.860	-1.460	3.070	113.90	-2.60	3.60	 	 	 	 	 	 	 	 	 	 	 	 	 	 	 	 	 	 	1581467651	5.67	10.50
12/02/2020 00:34:12	120220	12022020	003412	113.69	13.893840	-56.931452	113.88	0.840	-0.690	2.910	113.67	-1.60	3.20	 	 	 	 	 	 	 	 	 	 	 	 	 	 	 	 	 	 	1581467652	4.92	9.11
12/02/2020 00:34:13	120220	12022020	003413	113.69	13.893833	-56.931432	113.90	0.390	0.430	2.340	113.71	-0.50	2.60	 	 	 	 	 	 	 	 	 	 	 	 	 	 	 	 	 	 	1581467653	4.38	8.11
12/02/2020 00:34:14	120220	12022020	003414	113.90	13.893828	-56.931412	114.13	-0.160	1.160	1.770	113.96	-0.20	2.10	 	 	 	 	 	 	 	 	 	 	 	 	 	 	 	 	 	 	1581467654	4.39	8.13
12/02/2020 00:34:15	120220	12022020	003415	114.20	13.893820	-56.931388	114.44	-0.470	0.880	1.370	114.25	-0.90	1.80	 	 	 	 	 	 	 	 	 	 	 	 	 	 	 	 	 	 	1581467655	5.12	9.48
12/02/2020 00:34:16	120220	12022020	003416	114.34	13.893807	-56.931363	114.54	-0.480	-0.190	1.330	114.34	-1.30	1.80	 	 	 	 	 	 	 	 	 	 	 	 	 	 	 	 	 	 	1581467656	6.11	11.32
12/02/2020 00:34:17	120220	12022020	003417	114.24	13.893788	-56.931338	114.42	-0.400	-0.970	1.910	114.21	-2.30	2.70	 	 	 	 	 	 	 	 	 	 	 	 	 	 	 	 	 	 	1581467657	6.31	11.69
12/02/2020 00:34:18	120220	12022020	003418	114.14	13.893770	-56.931320	114.35	-0.340	-0.700	2.560	114.14	-2.20	2.90	 	 	 	 	 	 	 	 	 	 	 	 	 	 	 	 	 	 	1581467658	5.45	10.09
12/02/2020 00:34:19	120220	12022020	003419	114.20	13.893757	-56.931305	114.43	-0.240	0.000	2.740	114.21	-1.20	3.20	 	 	 	 	 	 	 	 	 	 	 	 	 	 	 	 	 	 	1581467659	4.49	8.32
12/02/2020 00:34:20	120220	12022020	003420	114.24	13.893745	-56.931285	114.46	0.060	0.010	2.650	114.23	-1.60	3.10	 	 	 	 	 	 	 	 	 	 	 	 	 	 	 	 	 	 	1581467660	4.85	8.98
12/02/2020 00:34:21	120220	12022020	003421	114.07	13.893732	-56.931260	114.24	0.520	-0.730	2.640	114.01	-2.30	3.10	 	 	 	 	 	 	 	 	 	 	 	 	 	 	 	 	 	 	1581467661	5.98	11.07
12/02/2020 00:34:22	120220	12022020	003422	113.79	13.893718	-56.931233	113.97	0.760	-1.070	2.530	113.76	-2.20	2.90	 	 	 	 	 	 	 	 	 	 	 	 	 	 	 	 	 	 	1581467662	6.15	11.39
12/02/2020 00:34:23	120220	12022020	003423	113.90	13.893710	-56.931212	114.15	0.480	-0.260	2.130	113.98	-1.10	2.50	 	 	 	 	 	 	 	 	 	 	 	 	 	 	 	 	 	 	1581467663	4.99	9.24
12/02/2020 00:34:24	120220	12022020	003424	114.42	13.893703	-56.931195	114.71	-0.210	1.030	1.750	114.54	0.00	2.20	 	 	 	 	 	 	 	 	 	 	 	 	 	 	 	 	 	 	1581467664	3.84	7.11
12/02/2020 00:34:25	120220	12022020	003425	114.94	13.893693	-56.931178	115.20	-0.730	1.370	1.670	115.01	-0.30	2.20	 	 	 	 	 	 	 	 	 	 	 	 	 	 	 	 	 	 	1581467665	4.14	7.67
12/02/2020 00:34:26	120220	12022020	003426	115.12	13.893680	-56.931155	115.31	-0.550	0.210	1.900	115.10	-1.80	2.60	 	 	 	 	 	 	 	 	 	 	 	 	 	 	 	 	 	 	1581467666	5.71	10.57
12/02/2020 00:34:27	120220	12022020	003427	114.87	13.893662	-56.931128	115.04	0.170	-1.430	2.510	114.80	-3.20	3.30	 	 	 	 	 	 	 	 	 	 	 	 	 	 	 	 	 	 	1581467667	6.88	12.74
12/02/2020 00:34:28	120220	12022020	003428	114.52	13.893643	-56.931102	114.71	0.710	-2.080	3.310	114.47	-3.20	4.10	 	 	 	 	 	 	 	 	 	 	 	 	 	 	 	 	 	 	1581467668	6.57	12.17
12/02/2020 00:34:29	120220	12022020	003429	114.47	13.893628	-56.931083	114.75	0.570	-1.170	3.740	114.52	-1.80	4.20	 	 	 	 	 	 	 	 	 	 	 	 	 	 	 	 	 	 	1581467669	5.17	9.57
12/02/2020 00:34:30	120220	12022020	003430	114.86	13.893617	-56.931068	115.17	-0.110	0.490	3.450	114.97	-0.30	3.70	 	 	 	 	 	 	 	 	 	 	 	 	 	 	 	 	 	 	1581467670	3.85	7.13
12/02/2020 00:34:31	120220	12022020	003431	115.41	13.893608	-56.931053	115.68	-0.780	1.580	2.790	115.48	0.30	3.00	 	 	 	 	 	 	 	 	 	 	 	 	 	 	 	 	 	 	1581467671	3.79	7.02
12/02/2020 00:34:32	120220	12022020	003432	115.69	13.893597	-56.931033	115.93	-0.930	1.340	2.250	115.70	-0.50	2.60	 	 	 	 	 	 	 	 	 	 	 	 	 	 	 	 	 	 	1581467672	4.87	9.02
12/02/2020 00:34:33	120220	12022020	003433	115.69	13.893583	-56.931008	115.88	-0.460	0.060	1.890	115.65	-1.90	2.30	 	 	 	 	 	 	 	 	 	 	 	 	 	 	 	 	 	 	1581467673	6.07	11.24
12/02/2020 00:34:34	120220	12022020	003434	115.43	13.893568	-56.930980	115.61	0.300	-1.280	1.740	115.38	-3.00	2.20	 	 	 	 	 	 	 	 	 	 	 	 	 	 	 	 	 	 	1581467674	6.51	12.06
12/02/2020 00:34:35	120220	12022020	003435	115.27	13.893557	-56.930955	115.48	0.800	-1.750	1.620	115.28	-2.90	2.10	 	 	 	 	 	 	 	 	 	 	 	 	 	 	 	 	 	 	1581467675	6.04	11.19
12/02/2020 00:34:36	120220	12022020	003436	115.47	13.893545	-56.930935	115.69	0.710	-0.980	1.460	115.54	-1.80	1.90	 	 	 	 	 	 	 	 	 	 	 	 	 	 	 	 	 	 	1581467676	4.86	9.00
12/02/2020 00:34:37	120220	12022020	003437	115.82	13.893537	-56.930918	116.04	0.270	0.290	1.240	115.87	-0.70	1.70	 	 	 	 	 	 	 	 	 	 	 	 	 	 	 	 	 	 	1581467677	4.00	7.41
12/02/2020 00:34:38	120220	12022020	003438	115.92	13.893527	-56.930900	116.10	-0.140	0.930	1.350	115.90	-0.40	2.00	 	 	 	 	 	 	 	 	 	 	 	 	 	 	 	 	 	 	1581467678	4.34	8.04
12/02/2020 00:34:39	120220	12022020	003439	115.78	13.893512	-56.930880	115.97	-0.420	0.770	1.880	115.77	-0.80	2.60	 	 	 	 	 	 	 	 	 	 	 	 	 	 	 	 	 	 	1581467679	5.25	9.72
12/02/2020 00:34:40	120220	12022020	003440	115.82	13.893495	-56.930858	116.05	-0.530	0.080	2.420	115.82	-1.10	2.80	 	 	 	 	 	 	 	 	 	 	 	 	 	 	 	 	 	 	1581467680	5.81	10.76
12/02/2020 00:34:41	120220	12022020	003441	115.81	13.893475	-56.930837	116.00	-0.320	-0.880	3.070	115.74	-2.60	3.90	 	 	 	 	 	 	 	 	 	 	 	 	 	 	 	 	 	 	1581467681	6.25	11.58
12/02/2020 00:34:42	120220	12022020	003442	115.31	13.893455	-56.930813	115.46	0.190	-1.560	3.840	115.31	-2.80	4.20	 	 	 	 	 	 	 	 	 	 	 	 	 	 	 	 	 	 	1581467682	6.48	12.00
12/02/2020 00:34:43	120220	12022020	003443	114.90	13.893440	-56.930793	115.14	0.440	-1.020	4.000	114.88	-1.80	4.30	 	 	 	 	 	 	 	 	 	 	 	 	 	 	 	 	 	 	1581467683	5.52	10.22
12/02/2020 00:34:44	120220	12022020	003444	115.09	13.893430	-56.930777	115.39	0.150	0.380	3.490	115.09	-1.30	4.10	 	 	 	 	 	 	 	 	 	 	 	 	 	 	 	 	 	 	1581467684	4.06	7.52
12/02/2020 00:34:45	120220	12022020	003445	115.70	13.893422	-56.930760	115.98	-0.290	1.240	2.820	115.81	-0.20	3.10	 	 	 	 	 	 	 	 	 	 	 	 	 	 	 	 	 	 	1581467685	3.87	7.17
12/02/2020 00:34:46	120220	12022020	003446	116.08	13.893410	-56.930738	116.29	-0.220	0.540	2.420	116.09	-1.50	2.90	 	 	 	 	 	 	 	 	 	 	 	 	 	 	 	 	 	 	1581467686	5.27	9.76
12/02/2020 00:34:47	120220	12022020	003447	115.94	13.893393	-56.930710	116.10	0.440	-0.980	2.400	115.88	-2.70	3.00	 	 	 	 	 	 	 	 	 	 	 	 	 	 	 	 	 	 	1581467687	6.83	12.65
12/02/2020 00:34:48	120220	12022020	003448	115.76	13.893378	-56.930685	115.97	0.750	-1.260	2.590	115.76	-2.20	3.20	 	 	 	 	 	 	 	 	 	 	 	 	 	 	 	 	 	 	1581467688	6.22	11.52
12/02/2020 00:34:49	120220	12022020	003449	115.91	13.893365	-56.930670	116.18	0.170	0.040	2.920	115.99	-0.60	3.50	 	 	 	 	 	 	 	 	 	 	 	 	 	 	 	 	 	 	1581467689	4.25	7.87
12/02/2020 00:34:50	120220	12022020	003450	116.42	13.893353	-56.930660	116.71	-0.780	1.500	2.970	116.55	0.40	3.40	 	 	 	 	 	 	 	 	 	 	 	 	 	 	 	 	 	 	1581467690	3.27	6.06
12/02/2020 00:34:51	120220	12022020	003451	116.95	13.893342	-56.930645	117.17	-1.090	1.400	2.700	117.01	-0.60	3.10	 	 	 	 	 	 	 	 	 	 	 	 	 	 	 	 	 	 	1581467691	4.10	7.59
12/02/2020 00:34:52	120220	12022020	003452	117.05	13.893323	-56.930620	117.16	-0.260	-0.670	2.640	117.02	-1.40	3.10	 	 	 	 	 	 	 	 	 	 	 	 	 	 	 	 	 	 	1581467692	6.32	11.70
12/02/2020 00:34:53	120220	12022020	003453	116.47	13.893303	-56.930590	116.57	1.000	-2.900	3.030	116.31	-4.60	3.70	 	 	 	 	 	 	 	 	 	 	 	 	 	 	 	 	 	 	1581467693	7.64	14.15
12/02/2020 00:34:54	120220	12022020	003454	115.82	13.893288	-56.930565	115.98	1.520	-2.930	3.230	115.82	-4.50	3.70	 	 	 	 	 	 	 	 	 	 	 	 	 	 	 	 	 	 	1581467694	6.42	11.89
12/02/2020 00:34:55	120220	12022020	003455	115.73	13.893278	-56.930550	115.99	0.790	-0.480	3.030	115.79	-0.60	3.40	 	 	 	 	 	 	 	 	 	 	 	 	 	 	 	 	 	 	1581467695	3.67	6.80
12/02/2020 00:34:56	120220	12022020	003456	116.21	13.893272	-56.930542	116.50	-0.590	2.260	2.650	116.21	0.40	3.20	 	 	 	 	 	 	 	 	 	 	 	 	 	 	 	 	 	 	1581467696	2.31	4.28
12/02/2020 00:34:57	120220	12022020	003457	116.79	13.893262	-56.930528	117.02	-1.550	3.110	2.240	116.87	1.30	2.60	 	 	 	 	 	 	 	 	 	 	 	 	 	 	 	 	 	 	1581467697	3.44	6.37
12/02/2020 00:34:58	120220	12022020	003458	117.14	13.893247	-56.930507	117.32	-1.420	1.550	1.810	117.18	-0.90	2.20	 	 	 	 	 	 	 	 	 	 	 	 	 	 	 	 	 	 	1581467698	5.71	10.57
12/02/2020 00:34:59	120220	12022020	003459	117.18	13.893227	-56.930480	117.34	-0.380	-0.930	1.660	117.14	-3.10	2.20	 	 	 	 	 	 	 	 	 	 	 	 	 	 	 	 	 	 	1581467699	7.18	13.30
12/02/2020 00:35:00	120220	12022020	003500	116.87	13.893208	-56.930453	117.01	0.700	-2.390	1.860	116.78	-3.80	2.50	 	 	 	 	 	 	 	 	 	 	 	 	 	 	 	 	 	 	1581467700	6.72	12.45
12/02/2020 00:35:01	120220	12022020	003501	116.40	13.893195	-56.930433	116.53	1.050	-2.020	2.060	116.30	-2.80	2.60	 	 	 	 	 	 	 	 	 	 	 	 	 	 	 	 	 	 	1581467701	5.03	9.32
12/02/2020 00:35:02	120220	12022020	003502	115.97	13.893185	-56.930420	116.12	0.580	-0.520	2.030	115.90	-1.20	2.50	1017.00	26.10	26.20	21.00	21.10	-1.0	73.0	73.0	397.0	25.8	323.00	15.10	71.00	13.10	43	9590.0	27.1	27.1	1581467702	3.64	6.74
12/02/2020 00:35:03	120220	12022020	003503	115.75	13.893177	-56.930407	115.94	-0.070	0.820	1.850	115.74	-0.30	2.30	 	 	 	 	 	 	 	 	 	 	 	 	 	 	 	 	 	 	1581467703	3.50	6.48
12/02/2020 00:35:04	120220	12022020	003504	115.75	13.893163	-56.930388	115.97	-0.320	1.140	1.680	115.76	-0.40	2.10	 	 	 	 	 	 	 	 	 	 	 	 	 	 	 	 	 	 	1581467704	4.40	8.15
12/02/2020 00:35:05	120220	12022020	003505	115.82	13.893150	-56.930368	116.03	-0.100	0.520	1.550	115.82	-1.30	2.00	 	 	 	 	 	 	 	 	 	 	 	 	 	 	 	 	 	 	1581467705	5.34	9.89
12/02/2020 00:35:06	120220	12022020	003506	115.74	13.893137	-56.930343	115.89	0.300	-0.610	1.580	115.74	-1.70	2.10	 	 	 	 	 	 	 	 	 	 	 	 	 	 	 	 	 	 	1581467706	5.99	11.09
12/02/2020 00:35:07	120220	12022020	003507	115.38	13.893122	-56.930318	115.52	0.560	-1.440	1.970	115.29	-2.80	2.80	 	 	 	 	 	 	 	 	 	 	 	 	 	 	 	 	 	 	1581467707	6.14	11.37
12/02/2020 00:35:08	120220	12022020	003508	114.97	13.893105	-56.930298	115.14	0.380	-1.080	2.680	114.97	-2.60	3.00	 	 	 	 	 	 	 	 	 	 	 	 	 	 	 	 	 	 	1581467708	5.35	9.91
12/02/2020 00:35:09	120220	12022020	003509	114.88	13.893092	-56.930285	115.13	-0.210	0.220	3.200	114.92	-0.60	3.70	 	 	 	 	 	 	 	 	 	 	 	 	 	 	 	 	 	 	1581467709	4.18	7.74
12/02/2020 00:35:10	120220	12022020	003510	115.22	13.893078	-56.930272	115.50	-0.830	1.180	3.210	115.30	-0.10	3.60	 	 	 	 	 	 	 	 	 	 	 	 	 	 	 	 	 	 	1581467710	3.84	7.11
12/02/2020 00:35:11	120220	12022020	003511	115.53	13.893065	-56.930253	115.77	-1.040	0.910	2.910	115.54	-0.90	3.30	 	 	 	 	 	 	 	 	 	 	 	 	 	 	 	 	 	 	1581467711	4.77	8.83
12/02/2020 00:35:12	120220	12022020	003512	115.38	13.893048	-56.930232	115.55	-0.600	-0.260	2.810	115.30	-2.10	3.40	 	 	 	 	 	 	 	 	 	 	 	 	 	 	 	 	 	 	1581467712	5.92	10.96
12/02/2020 00:35:13	120220	12022020	003513	114.87	13.893032	-56.930207	115.02	0.310	-1.320	3.000	114.77	-2.80	3.50	 	 	 	 	 	 	 	 	 	 	 	 	 	 	 	 	 	 	1581467713	6.30	11.67
12/02/2020 00:35:14	120220	12022020	003514	114.55	13.893020	-56.930183	114.76	1.120	-1.340	2.780	114.56	-2.40	3.00	 	 	 	 	 	 	 	 	 	 	 	 	 	 	 	 	 	 	1581467714	5.53	10.24
12/02/2020 00:35:15	120220	12022020	003515	114.76	13.893015	-56.930163	115.02	1.220	-0.390	1.950	114.85	-1.30	2.10	 	 	 	 	 	 	 	 	 	 	 	 	 	 	 	 	 	 	1581467715	4.44	8.22
12/02/2020 00:35:16	120220	12022020	003516	115.20	13.893010	-56.930145	115.43	0.550	0.620	1.310	115.27	-0.50	1.80	 	 	 	 	 	 	 	 	 	 	 	 	 	 	 	 	 	 	1581467716	3.90	7.22
12/02/2020 00:35:17	120220	12022020	003517	115.43	13.892998	-56.930128	115.63	-0.290	0.820	1.560	115.45	-0.70	2.30	 	 	 	 	 	 	 	 	 	 	 	 	 	 	 	 	 	 	1581467717	4.42	8.19
12/02/2020 00:35:18	120220	12022020	003518	115.37	13.892978	-56.930110	115.55	-0.670	0.210	2.300	115.33	-1.40	3.10	 	 	 	 	 	 	 	 	 	 	 	 	 	 	 	 	 	 	1581467718	5.58	10.33
12/02/2020 00:35:19	120220	12022020	003519	115.12	13.892960	-56.930088	115.29	-0.460	-0.430	2.920	115.06	-1.90	3.50	 	 	 	 	 	 	 	 	 	 	 	 	 	 	 	 	 	 	1581467719	5.87	10.87
12/02/2020 00:35:20	120220	12022020	003520	114.92	13.892945	-56.930068	115.12	-0.060	-0.570	3.130	114.90	-1.90	3.70	 	 	 	 	 	 	 	 	 	 	 	 	 	 	 	 	 	 	1581467720	5.26	9.74
12/02/2020 00:35:21	120220	12022020	003521	114.91	13.892933	-56.930050	115.15	0.040	-0.410	3.160	114.92	-1.70	3.60	 	 	 	 	 	 	 	 	 	 	 	 	 	 	 	 	 	 	1581467721	4.75	8.80
12/02/2020 00:35:22	120220	12022020	003522	115.03	13.892922	-56.930030	115.27	-0.120	-0.380	3.040	115.06	-1.80	3.40	 	 	 	 	 	 	 	 	 	 	 	 	 	 	 	 	 	 	1581467722	4.83	8.95
12/02/2020 00:35:23	120220	12022020	003523	115.08	13.892908	-56.930010	115.30	-0.110	-0.670	2.780	115.07	-2.20	3.10	 	 	 	 	 	 	 	 	 	 	 	 	 	 	 	 	 	 	1581467723	5.31	9.83
12/02/2020 00:35:24	120220	12022020	003524	114.97	13.892895	-56.929987	115.15	0.290	-0.970	2.430	114.95	-2.30	2.80	 	 	 	 	 	 	 	 	 	 	 	 	 	 	 	 	 	 	1581467724	5.71	10.57
12/02/2020 00:35:25	120220	12022020	003525	114.86	13.892882	-56.929963	115.04	0.740	-0.740	2.210	114.85	-1.80	2.70	 	 	 	 	 	 	 	 	 	 	 	 	 	 	 	 	 	 	1581467725	5.47	10.13
12/02/2020 00:35:26	120220	12022020	003526	114.89	13.892872	-56.929943	115.11	0.740	0.070	2.030	114.92	-0.90	2.40	 	 	 	 	 	 	 	 	 	 	 	 	 	 	 	 	 	 	1581467726	4.84	8.96
12/02/2020 00:35:27	120220	12022020	003527	115.08	13.892862	-56.929925	115.30	0.180	1.000	1.650	115.12	-0.10	1.90	 	 	 	 	 	 	 	 	 	 	 	 	 	 	 	 	 	 	1581467727	4.32	8.00
12/02/2020 00:35:28	120220	12022020	003528	115.23	13.892853	-56.929907	115.43	-0.570	1.420	1.170	115.24	0.00	1.60	 	 	 	 	 	 	 	 	 	 	 	 	 	 	 	 	 	 	1581467728	4.35	8.06
12/02/2020 00:35:29	120220	12022020	003529	115.29	13.892842	-56.929887	115.50	-1.020	1.030	1.170	115.30	-0.70	1.80	 	 	 	 	 	 	 	 	 	 	 	 	 	 	 	 	 	 	1581467729	4.85	8.98
12/02/2020 00:35:30	120220	12022020	003530	115.40	13.892827	-56.929865	115.63	-0.870	0.020	1.550	115.40	-1.00	2.00	 	 	 	 	 	 	 	 	 	 	 	 	 	 	 	 	 	 	1581467730	5.53	10.24
12/02/2020 00:35:31	120220	12022020	003531	115.54	13.892808	-56.929843	115.76	-0.180	-1.240	2.000	115.54	-3.10	2.70	 	 	 	 	 	 	 	 	 	 	 	 	 	 	 	 	 	 	1581467731	6.01	11.13
12/02/2020 00:35:32	120220	12022020	003532	115.31	13.892790	-56.929822	115.47	0.660	-2.260	2.590	115.31	-3.40	2.90	 	 	 	 	 	 	 	 	 	 	 	 	 	 	 	 	 	 	1581467732	6.25	11.58
12/02/2020 00:35:33	120220	12022020	003533	114.71	13.892773	-56.929798	114.89	1.130	-2.210	3.110	114.63	-3.00	3.70	 	 	 	 	 	 	 	 	 	 	 	 	 	 	 	 	 	 	1581467733	5.86	10.85
12/02/2020 00:35:34	120220	12022020	003534	114.58	13.892762	-56.929782	114.87	0.800	-0.580	3.320	114.64	-1.00	3.90	 	 	 	 	 	 	 	 	 	 	 	 	 	 	 	 	 	 	1581467734	4.37	8.09
12/02/2020 00:35:35	120220	12022020	003535	115.16	13.892752	-56.929770	115.51	-0.100	1.540	3.310	115.33	0.70	3.70	 	 	 	 	 	 	 	 	 	 	 	 	 	 	 	 	 	 	1581467735	3.09	5.72
12/02/2020 00:35:36	120220	12022020	003536	115.81	13.892742	-56.929755	116.06	-0.800	2.040	3.010	115.85	0.20	3.40	 	 	 	 	 	 	 	 	 	 	 	 	 	 	 	 	 	 	1581467736	3.83	7.09
12/02/2020 00:35:37	120220	12022020	003537	115.66	13.892725	-56.929730	115.80	-0.650	0.320	2.910	115.54	-1.90	3.50	 	 	 	 	 	 	 	 	 	 	 	 	 	 	 	 	 	 	1581467737	6.35	11.76
12/02/2020 00:35:38	120220	12022020	003538	115.02	13.892705	-56.929702	115.18	-0.080	-1.450	3.320	114.92	-3.00	3.90	 	 	 	 	 	 	 	 	 	 	 	 	 	 	 	 	 	 	1581467738	7.41	13.72
12/02/2020 00:35:39	120220	12022020	003539	114.85	13.892688	-56.929680	115.14	0.240	-1.380	3.440	114.91	-2.20	3.80	 	 	 	 	 	 	 	 	 	 	 	 	 	 	 	 	 	 	1581467739	5.83	10.80
12/02/2020 00:35:40	120220	12022020	003540	115.37	13.892678	-56.929667	115.69	0.050	0.080	2.950	115.51	-0.70	3.20	 	 	 	 	 	 	 	 	 	 	 	 	 	 	 	 	 	 	1581467740	3.65	6.76
12/02/2020 00:35:41	120220	12022020	003541	115.97	13.892672	-56.929652	116.24	-0.290	1.060	2.260	116.05	-0.30	2.60	 	 	 	 	 	 	 	 	 	 	 	 	 	 	 	 	 	 	1581467741	3.36	6.22
12/02/2020 00:35:42	120220	12022020	003542	116.14	13.892660	-56.929632	116.33	-0.220	0.540	1.820	116.12	-1.30	2.20	 	 	 	 	 	 	 	 	 	 	 	 	 	 	 	 	 	 	1581467742	4.84	8.96
12/02/2020 00:35:43	120220	12022020	003543	116.02	13.892645	-56.929607	116.20	0.300	-0.770	1.590	115.99	-2.50	2.10	 	 	 	 	 	 	 	 	 	 	 	 	 	 	 	 	 	 	1581467743	6.20	11.48
12/02/2020 00:35:44	120220	12022020	003544	115.91	13.892630	-56.929583	116.11	0.750	-1.370	1.760	115.91	-2.70	2.20	 	 	 	 	 	 	 	 	 	 	 	 	 	 	 	 	 	 	1581467744	6.02	11.15
12/02/2020 00:35:45	120220	12022020	003545	115.77	13.892617	-56.929565	115.95	0.660	-0.800	2.090	115.73	-1.70	2.70	 	 	 	 	 	 	 	 	 	 	 	 	 	 	 	 	 	 	1581467745	4.81	8.91
12/02/2020 00:35:46	120220	12022020	003546	115.52	13.892605	-56.929548	115.68	0.060	0.120	2.170	115.47	-0.90	2.70	 	 	 	 	 	 	 	 	 	 	 	 	 	 	 	 	 	 	1581467746	4.12	7.63
12/02/2020 00:35:47	120220	12022020	003547	115.26	13.892592	-56.929532	115.43	-0.570	0.570	2.200	115.23	-0.80	2.80	 	 	 	 	 	 	 	 	 	 	 	 	 	 	 	 	 	 	1581467747	4.46	8.26
12/02/2020 00:35:48	120220	12022020	003548	115.14	13.892577	-56.929512	115.35	-0.810	0.400	2.350	115.14	-1.10	2.90	 	 	 	 	 	 	 	 	 	 	 	 	 	 	 	 	 	 	1581467748	5.20	9.63
12/02/2020 00:35:49	120220	12022020	003549	115.19	13.892560	-56.929492	115.43	-0.600	-0.070	2.430	115.21	-1.60	2.90	 	 	 	 	 	 	 	 	 	 	 	 	 	 	 	 	 	 	1581467749	5.55	10.28
12/02/2020 00:35:50	120220	12022020	003550	115.31	13.892545	-56.929470	115.55	-0.190	-0.580	2.260	115.32	-2.10	2.70	 	 	 	 	 	 	 	 	 	 	 	 	 	 	 	 	 	 	1581467750	5.55	10.28
12/02/2020 00:35:51	120220	12022020	003551	115.30	13.892532	-56.929448	115.51	0.190	-0.950	2.110	115.29	-2.30	2.70	 	 	 	 	 	 	 	 	 	 	 	 	 	 	 	 	 	 	1581467751	5.54	10.26
12/02/2020 00:35:52	120220	12022020	003552	115.09	13.892517	-56.929427	115.27	0.440	-0.840	2.340	115.02	-1.90	3.00	 	 	 	 	 	 	 	 	 	 	 	 	 	 	 	 	 	 	1581467752	5.37	9.95
12/02/2020 00:35:53	120220	12022020	003553	114.71	13.892503	-56.929408	114.89	0.500	-0.130	2.660	114.64	-1.10	3.20	 	 	 	 	 	 	 	 	 	 	 	 	 	 	 	 	 	 	1581467753	4.84	8.96
12/02/2020 00:35:54	120220	12022020	003554	114.58	13.892493	-56.929390	114.83	0.310	0.630	2.500	114.62	-0.50	2.90	 	 	 	 	 	 	 	 	 	 	 	 	 	 	 	 	 	 	1581467754	4.39	8.13
12/02/2020 00:35:55	120220	12022020	003555	114.85	13.892483	-56.929370	115.12	0.020	0.750	2.110	114.91	-0.70	2.50	 	 	 	 	 	 	 	 	 	 	 	 	 	 	 	 	 	 	1581467755	4.70	8.70
12/02/2020 00:35:56	120220	12022020	003556	114.95	13.892472	-56.929348	115.15	-0.100	0.120	1.990	114.95	-1.00	2.50	 	 	 	 	 	 	 	 	 	 	 	 	 	 	 	 	 	 	1581467756	5.45	10.09
12/02/2020 00:35:57	120220	12022020	003557	114.62	13.892457	-56.929325	114.80	-0.040	-0.600	2.200	114.57	-2.00	2.80	 	 	 	 	 	 	 	 	 	 	 	 	 	 	 	 	 	 	1581467757	5.88	10.89
12/02/2020 00:35:58	120220	12022020	003558	114.61	13.892443	-56.929303	114.86	-0.100	-0.610	2.410	114.61	-2.00	2.90	 	 	 	 	 	 	 	 	 	 	 	 	 	 	 	 	 	 	1581467758	5.32	9.85
12/02/2020 00:35:59	120220	12022020	003559	115.07	13.892430	-56.929287	115.36	-0.410	0.050	2.650	115.17	-1.00	3.20	 	 	 	 	 	 	 	 	 	 	 	 	 	 	 	 	 	 	1581467759	4.42	8.19
12/02/2020 00:36:00	120220	12022020	003600	115.52	13.892415	-56.929273	115.77	-0.660	0.390	2.890	115.55	-1.10	3.50	 	 	 	 	 	 	 	 	 	 	 	 	 	 	 	 	 	 	1581467760	4.40	8.15
12/02/2020 00:36:01	120220	12022020	003601	115.41	13.892397	-56.929253	115.60	-0.340	-0.460	3.200	115.32	-2.30	3.90	 	 	 	 	 	 	 	 	 	 	 	 	 	 	 	 	 	 	1581467761	5.61	10.39
12/02/2020 00:36:02	120220	12022020	003602	114.84	13.892378	-56.929228	115.03	0.420	-1.750	3.620	114.72	-3.30	4.20	1017.00	26.10	26.20	21.00	21.10	-1.0	73.0	73.0	399.0	25.8	321.00	15.20	70.00	13.30	31	9482.0	27.1	27.1	1581467762	6.81	12.61
12/02/2020 00:36:03	120220	12022020	003603	114.41	13.892362	-56.929203	114.65	0.940	-1.910	3.760	114.38	-2.80	4.20	 	 	 	 	 	 	 	 	 	 	 	 	 	 	 	 	 	 	1581467763	6.29	11.65
12/02/2020 00:36:04	120220	12022020	003604	114.48	13.892352	-56.929183	114.78	0.750	-0.420	3.350	114.56	-0.90	3.50	 	 	 	 	 	 	 	 	 	 	 	 	 	 	 	 	 	 	1581467764	4.48	8.30
12/02/2020 00:36:05	120220	12022020	003605	114.84	13.892345	-56.929170	115.10	0.060	1.420	2.530	114.90	0.50	2.70	 	 	 	 	 	 	 	 	 	 	 	 	 	 	 	 	 	 	1581467765	3.34	6.19
12/02/2020 00:36:06	120220	12022020	003606	115.07	13.892338	-56.929152	115.31	-0.560	2.000	1.730	115.11	0.50	2.00	 	 	 	 	 	 	 	 	 	 	 	 	 	 	 	 	 	 	1581467766	4.06	7.52
12/02/2020 00:36:07	120220	12022020	003607	115.34	13.892328	-56.929128	115.61	-0.800	1.310	1.230	115.43	-0.40	1.70	 	 	 	 	 	 	 	 	 	 	 	 	 	 	 	 	 	 	1581467767	5.30	9.82
12/02/2020 00:36:08	120220	12022020	003608	115.85	13.892313	-56.929107	116.13	-0.690	0.230	1.270	115.94	-1.50	2.00	 	 	 	 	 	 	 	 	 	 	 	 	 	 	 	 	 	 	1581467768	5.71	10.57
12/02/2020 00:36:09	120220	12022020	003609	116.14	13.892295	-56.929085	116.36	-0.460	-0.820	1.820	116.13	-2.50	2.60	 	 	 	 	 	 	 	 	 	 	 	 	 	 	 	 	 	 	1581467769	5.73	10.61
12/02/2020 00:36:10	120220	12022020	003610	115.80	13.892277	-56.929067	115.95	-0.050	-1.760	2.520	115.66	-3.40	3.30	 	 	 	 	 	 	 	 	 	 	 	 	 	 	 	 	 	 	1581467770	5.88	10.89
12/02/2020 00:36:11	120220	12022020	003611	114.92	13.892257	-56.929045	115.06	0.610	-2.300	3.270	114.74	-3.60	4.00	 	 	 	 	 	 	 	 	 	 	 	 	 	 	 	 	 	 	1581467771	5.95	11.02
12/02/2020 00:36:12	120220	12022020	003612	114.04	13.892242	-56.929025	114.26	1.230	-1.860	3.760	113.95	-2.60	4.20	 	 	 	 	 	 	 	 	 	 	 	 	 	 	 	 	 	 	1581467772	5.53	10.24
12/02/2020 00:36:13	120220	12022020	003613	113.92	13.892232	-56.929005	114.25	1.180	-0.330	3.360	113.99	-0.90	3.40	 	 	 	 	 	 	 	 	 	 	 	 	 	 	 	 	 	 	1581467773	4.46	8.26
12/02/2020 00:36:14	120220	12022020	003614	114.43	13.892227	-56.928988	114.76	0.350	1.300	2.280	114.54	0.30	2.40	 	 	 	 	 	 	 	 	 	 	 	 	 	 	 	 	 	 	1581467774	3.78	7.00
12/02/2020 00:36:15	120220	12022020	003615	114.72	13.892220	-56.928968	114.96	-0.620	1.760	1.640	114.70	0.30	2.20	 	 	 	 	 	 	 	 	 	 	 	 	 	 	 	 	 	 	1581467775	4.37	8.09
12/02/2020 00:36:16	120220	12022020	003616	114.52	13.892207	-56.928947	114.74	-1.160	1.140	1.880	114.47	-0.50	2.60	 	 	 	 	 	 	 	 	 	 	 	 	 	 	 	 	 	 	1581467776	5.54	10.26
12/02/2020 00:36:17	120220	12022020	003617	114.37	13.892188	-56.928925	114.64	-1.280	0.380	2.360	114.37	-1.20	3.00	 	 	 	 	 	 	 	 	 	 	 	 	 	 	 	 	 	 	1581467777	5.84	10.82
12/02/2020 00:36:18	120220	12022020	003618	114.45	13.892170	-56.928907	114.74	-1.140	-0.180	2.770	114.48	-1.70	3.40	 	 	 	 	 	 	 	 	 	 	 	 	 	 	 	 	 	 	1581467778	5.51	10.20
12/02/2020 00:36:19	120220	12022020	003619	114.62	13.892152	-56.928888	114.93	-0.690	-0.790	2.990	114.65	-2.40	3.50	 	 	 	 	 	 	 	 	 	 	 	 	 	 	 	 	 	 	1581467779	5.51	10.20
12/02/2020 00:36:20	120220	12022020	003620	114.69	13.892133	-56.928868	114.95	0.130	-1.530	3.050	114.69	-2.70	3.50	 	 	 	 	 	 	 	 	 	 	 	 	 	 	 	 	 	 	1581467780	5.81	10.76
12/02/2020 00:36:21	120220	12022020	003621	114.40	13.892118	-56.928847	114.58	1.180	-1.950	2.980	114.29	-3.20	3.40	 	 	 	 	 	 	 	 	 	 	 	 	 	 	 	 	 	 	1581467781	5.86	10.85
12/02/2020 00:36:22	120220	12022020	003622	113.78	13.892107	-56.928823	113.95	1.910	-1.470	2.810	113.65	-2.30	3.10	 	 	 	 	 	 	 	 	 	 	 	 	 	 	 	 	 	 	1581467782	5.39	9.98
12/02/2020 00:36:23	120220	12022020	003623	113.39	13.892103	-56.928802	113.63	1.720	-0.010	2.240	113.39	-0.60	2.40	 	 	 	 	 	 	 	 	 	 	 	 	 	 	 	 	 	 	1581467783	4.59	8.50
12/02/2020 00:36:24	120220	12022020	003624	113.70	13.892102	-56.928783	114.03	0.530	1.640	1.420	113.82	0.80	1.60	 	 	 	 	 	 	 	 	 	 	 	 	 	 	 	 	 	 	1581467784	3.91	7.24
12/02/2020 00:36:25	120220	12022020	003625	114.42	13.892095	-56.928765	114.73	-0.920	2.290	0.990	114.56	0.80	1.50	 	 	 	 	 	 	 	 	 	 	 	 	 	 	 	 	 	 	1581467785	3.86	7.15
12/02/2020 00:36:26	120220	12022020	003626	114.95	13.892080	-56.928747	115.21	-1.700	1.360	1.330	115.00	-0.80	2.20	 	 	 	 	 	 	 	 	 	 	 	 	 	 	 	 	 	 	1581467786	5.22	9.67
12/02/2020 00:36:27	120220	12022020	003627	114.94	13.892057	-56.928723	115.15	-1.410	-0.760	2.340	114.87	-2.90	3.40	 	 	 	 	 	 	 	 	 	 	 	 	 	 	 	 	 	 	1581467787	7.04	13.04
12/02/2020 00:36:28	120220	12022020	003628	114.45	13.892030	-56.928700	114.66	-0.540	-2.350	3.630	114.33	-3.80	4.50	 	 	 	 	 	 	 	 	 	 	 	 	 	 	 	 	 	 	1581467788	7.43	13.76
12/02/2020 00:36:29	120220	12022020	003629	114.01	13.892010	-56.928682	114.28	0.130	-2.150	4.400	113.97	-2.90	4.90	 	 	 	 	 	 	 	 	 	 	 	 	 	 	 	 	 	 	1581467789	5.85	10.83
12/02/2020 00:36:30	120220	12022020	003630	113.99	13.891998	-56.928667	114.31	0.300	-0.710	4.130	114.03	-1.50	4.30	 	 	 	 	 	 	 	 	 	 	 	 	 	 	 	 	 	 	1581467790	3.98	7.37
12/02/2020 00:36:31	120220	12022020	003631	114.19	13.891990	-56.928650	114.48	0.370	0.340	3.230	114.22	-0.90	3.30	 	 	 	 	 	 	 	 	 	 	 	 	 	 	 	 	 	 	1581467791	3.88	7.19
12/02/2020 00:36:32	120220	12022020	003632	114.18	13.891983	-56.928627	114.41	0.750	0.160	2.380	114.14	-1.40	2.60	 	 	 	 	 	 	 	 	 	 	 	 	 	 	 	 	 	 	1581467792	5.34	9.89
12/02/2020 00:36:33	120220	12022020	003633	113.92	13.891973	-56.928597	114.15	1.120	-0.340	1.660	113.90	-1.60	1.90	 	 	 	 	 	 	 	 	 	 	 	 	 	 	 	 	 	 	1581467793	6.31	11.69
12/02/2020 00:36:34	120220	12022020	003634	114.17	13.891967	-56.928573	114.49	0.770	0.170	1.080	114.17	-1.40	1.70	 	 	 	 	 	 	 	 	 	 	 	 	 	 	 	 	 	 	1581467794	5.36	9.93
12/02/2020 00:36:35	120220	12022020	003635	114.96	13.891958	-56.928557	115.33	-0.310	1.340	1.140	115.14	0.40	1.90	 	 	 	 	 	 	 	 	 	 	 	 	 	 	 	 	 	 	1581467795	3.76	6.96
12/02/2020 00:36:36	120220	12022020	003636	115.73	13.891945	-56.928545	116.02	-1.340	1.770	1.800	115.73	0.50	2.10	 	 	 	 	 	 	 	 	 	 	 	 	 	 	 	 	 	 	1581467796	3.91	7.24
12/02/2020 00:36:37	120220	12022020	003637	115.90	13.891925	-56.928528	116.15	-1.430	0.520	2.730	115.89	-1.60	3.60	 	 	 	 	 	 	 	 	 	 	 	 	 	 	 	 	 	 	1581467797	5.64	10.45
12/02/2020 00:36:38	120220	12022020	003638	115.74	13.891902	-56.928505	115.99	-0.600	-1.450	3.610	115.68	-3.40	4.50	 	 	 	 	 	 	 	 	 	 	 	 	 	 	 	 	 	 	1581467798	6.93	12.83
12/02/2020 00:36:39	120220	12022020	003639	115.34	13.891880	-56.928483	115.58	0.480	-2.600	4.350	115.24	-3.90	5.00	 	 	 	 	 	 	 	 	 	 	 	 	 	 	 	 	 	 	1581467799	6.66	12.33
12/02/2020 00:36:40	120220	12022020	003640	114.91	13.891865	-56.928463	115.16	1.130	-2.250	4.330	114.84	-3.10	4.50	 	 	 	 	 	 	 	 	 	 	 	 	 	 	 	 	 	 	1581467800	5.26	9.74
12/02/2020 00:36:41	120220	12022020	003641	114.70	13.891858	-56.928443	114.97	1.210	-0.960	3.340	114.70	-1.70	3.30	 	 	 	 	 	 	 	 	 	 	 	 	 	 	 	 	 	 	1581467801	4.28	7.93
12/02/2020 00:36:42	120220	12022020	003642	114.75	13.891855	-56.928423	115.01	0.880	0.370	2.180	114.77	-0.50	2.30	 	 	 	 	 	 	 	 	 	 	 	 	 	 	 	 	 	 	1581467802	4.32	8.00
12/02/2020 00:36:43	120220	12022020	003643	114.86	13.891848	-56.928403	115.12	0.310	1.250	1.420	114.87	0.10	1.70	 	 	 	 	 	 	 	 	 	 	 	 	 	 	 	 	 	 	1581467803	4.57	8.46
12/02/2020 00:36:44	120220	12022020	003644	114.88	13.891840	-56.928382	115.13	-0.370	1.440	0.940	114.89	0.00	1.30	 	 	 	 	 	 	 	 	 	 	 	 	 	 	 	 	 	 	1581467804	4.93	9.13
12/02/2020 00:36:45	120220	12022020	003645	115.03	13.891827	-56.928360	115.32	-1.030	1.110	0.710	115.10	-0.40	1.30	 	 	 	 	 	 	 	 	 	 	 	 	 	 	 	 	 	 	1581467805	5.27	9.76
12/02/2020 00:36:46	120220	12022020	003646	115.48	13.891810	-56.928342	115.80	-1.390	0.620	1.150	115.48	-0.60	1.50	 	 	 	 	 	 	 	 	 	 	 	 	 	 	 	 	 	 	1581467806	5.36	9.93
12/02/2020 00:36:47	120220	12022020	003647	115.90	13.891788	-56.928325	116.16	-1.130	-0.130	1.890	115.92	-2.00	2.70	 	 	 	 	 	 	 	 	 	 	 	 	 	 	 	 	 	 	1581467807	5.53	10.24
12/02/2020 00:36:48	120220	12022020	003648	115.73	13.891768	-56.928305	115.92	-0.050	-1.510	2.510	115.73	-2.50	2.90	 	 	 	 	 	 	 	 	 	 	 	 	 	 	 	 	 	 	1581467808	6.04	11.19
12/02/2020 00:36:49	120220	12022020	003649	115.01	13.891752	-56.928280	115.16	1.170	-2.490	3.040	114.85	-3.80	3.80	 	 	 	 	 	 	 	 	 	 	 	 	 	 	 	 	 	 	1581467809	6.35	11.76
12/02/2020 00:36:50	120220	12022020	003650	114.29	13.891738	-56.928258	114.49	1.610	-1.930	3.570	114.20	-2.60	4.20	 	 	 	 	 	 	 	 	 	 	 	 	 	 	 	 	 	 	1581467810	5.36	9.93
12/02/2020 00:36:51	120220	12022020	003651	114.13	13.891730	-56.928242	114.42	1.120	-0.280	3.570	114.18	-0.90	3.80	 	 	 	 	 	 	 	 	 	 	 	 	 	 	 	 	 	 	1581467811	4.14	7.67
12/02/2020 00:36:52	120220	12022020	003652	114.57	13.891722	-56.928225	114.91	0.120	1.300	2.920	114.69	0.40	3.10	 	 	 	 	 	 	 	 	 	 	 	 	 	 	 	 	 	 	1581467812	3.77	6.98
12/02/2020 00:36:53	120220	12022020	003653	115.10	13.891712	-56.928208	115.40	-0.750	1.920	2.320	115.16	0.50	2.70	 	 	 	 	 	 	 	 	 	 	 	 	 	 	 	 	 	 	1581467813	4.25	7.87
12/02/2020 00:36:54	120220	12022020	003654	115.25	13.891698	-56.928187	115.51	-1.050	1.300	2.290	115.23	-0.60	2.90	 	 	 	 	 	 	 	 	 	 	 	 	 	 	 	 	 	 	1581467814	5.32	9.85
12/02/2020 00:36:55	120220	12022020	003655	115.06	13.891680	-56.928163	115.31	-0.750	-0.050	2.500	115.01	-1.90	3.00	 	 	 	 	 	 	 	 	 	 	 	 	 	 	 	 	 	 	1581467815	6.24	11.56
12/02/2020 00:36:56	120220	12022020	003656	114.81	13.891662	-56.928140	115.06	-0.190	-1.110	2.630	114.77	-2.60	3.20	 	 	 	 	 	 	 	 	 	 	 	 	 	 	 	 	 	 	1581467816	6.20	11.48
12/02/2020 00:36:57	120220	12022020	003657	114.63	13.891648	-56.928120	114.89	0.190	-1.270	2.670	114.59	-2.50	3.10	 	 	 	 	 	 	 	 	 	 	 	 	 	 	 	 	 	 	1581467817	5.33	9.87
12/02/2020 00:36:58	120220	12022020	003658	114.38	13.891637	-56.928102	114.60	0.320	-0.870	2.590	114.32	-2.00	3.00	 	 	 	 	 	 	 	 	 	 	 	 	 	 	 	 	 	 	1581467818	4.59	8.50
12/02/2020 00:36:59	120220	12022020	003659	114.04	13.891625	-56.928082	114.25	0.480	-0.600	2.400	113.98	-1.90	2.80	 	 	 	 	 	 	 	 	 	 	 	 	 	 	 	 	 	 	1581467819	4.76	8.82
12/02/2020 00:37:00	120220	12022020	003700	113.92	13.891615	-56.928058	114.18	0.730	-0.500	2.010	113.92	-1.90	2.60	 	 	 	 	 	 	 	 	 	 	 	 	 	 	 	 	 	 	1581467820	5.29	9.80
12/02/2020 00:37:01	120220	12022020	003701	114.05	13.891607	-56.928035	114.29	0.790	-0.270	1.700	114.07	-1.50	2.20	 	 	 	 	 	 	 	 	 	 	 	 	 	 	 	 	 	 	1581467821	5.33	9.87
12/02/2020 00:37:02	120220	12022020	003702	114.09	13.891595	-56.928013	114.31	0.500	0.040	1.660	114.09	-1.20	2.20	1017.20	26.10	26.10	20.90	21.10	-1.0	73.0	73.0	400.0	25.8	319.00	15.60	66.00	13.70	37	9321.0	27.1	27.1	1581467822	5.21	9.65
12/02/2020 00:37:03	120220	12022020	003703	114.10	13.891583	-56.927992	114.33	-0.070	0.340	1.910	114.12	-0.80	2.60	 	 	 	 	 	 	 	 	 	 	 	 	 	 	 	 	 	 	1581467823	5.17	9.57
12/02/2020 00:37:04	120220	12022020	003704	114.28	13.891568	-56.927973	114.54	-0.710	0.730	2.460	114.33	-0.50	3.20	 	 	 	 	 	 	 	 	 	 	 	 	 	 	 	 	 	 	1581467824	5.01	9.28
12/02/2020 00:37:05	120220	12022020	003705	114.60	13.891553	-56.927957	114.89	-1.210	1.030	2.950	114.66	-0.30	3.60	 	 	 	 	 	 	 	 	 	 	 	 	 	 	 	 	 	 	1581467825	4.84	8.96
12/02/2020 00:37:06	120220	12022020	003706	114.83	13.891535	-56.927940	115.10	-1.320	0.800	3.250	114.84	-0.90	3.80	 	 	 	 	 	 	 	 	 	 	 	 	 	 	 	 	 	 	1581467826	4.98	9.22
12/02/2020 00:37:07	120220	12022020	003707	114.77	13.891518	-56.927922	115.01	-0.810	-0.270	3.520	114.73	-2.20	4.10	 	 	 	 	 	 	 	 	 	 	 	 	 	 	 	 	 	 	1581467827	5.65	10.46
12/02/2020 00:37:08	120220	12022020	003708	114.48	13.891500	-56.927897	114.70	0.310	-1.790	3.660	114.41	-3.60	4.10	 	 	 	 	 	 	 	 	 	 	 	 	 	 	 	 	 	 	1581467828	6.42	11.89
12/02/2020 00:37:09	120220	12022020	003709	114.13	13.891487	-56.927868	114.36	1.510	-2.690	3.410	114.07	-4.00	3.70	 	 	 	 	 	 	 	 	 	 	 	 	 	 	 	 	 	 	1581467829	6.52	12.08
12/02/2020 00:37:10	120220	12022020	003710	113.98	13.891478	-56.927843	114.26	1.920	-2.000	2.690	113.98	-3.70	3.40	 	 	 	 	 	 	 	 	 	 	 	 	 	 	 	 	 	 	1581467830	5.59	10.35
12/02/2020 00:37:11	120220	12022020	003711	114.29	13.891477	-56.927825	114.61	1.140	0.180	1.960	114.41	-0.20	2.30	 	 	 	 	 	 	 	 	 	 	 	 	 	 	 	 	 	 	1581467831	3.93	7.28
12/02/2020 00:37:12	120220	12022020	003712	114.93	13.891472	-56.927812	115.26	-0.380	2.340	1.630	114.93	0.60	2.20	 	 	 	 	 	 	 	 	 	 	 	 	 	 	 	 	 	 	1581467832	2.91	5.39
12/02/2020 00:37:13	120220	12022020	003713	115.49	13.891460	-56.927798	115.77	-1.670	2.880	1.640	115.55	1.00	2.30	 	 	 	 	 	 	 	 	 	 	 	 	 	 	 	 	 	 	1581467833	3.83	7.09
12/02/2020 00:37:14	120220	12022020	003714	115.63	13.891440	-56.927777	115.86	-1.790	1.190	1.980	115.60	-1.30	2.70	 	 	 	 	 	 	 	 	 	 	 	 	 	 	 	 	 	 	1581467834	6.01	11.13
12/02/2020 00:37:15	120220	12022020	003715	115.38	13.891418	-56.927750	115.60	-0.660	-1.390	2.430	115.30	-3.50	3.10	 	 	 	 	 	 	 	 	 	 	 	 	 	 	 	 	 	 	1581467835	7.56	14.00
12/02/2020 00:37:16	120220	12022020	003716	114.93	13.891398	-56.927723	115.13	0.710	-2.640	2.780	114.85	-3.90	3.30	 	 	 	 	 	 	 	 	 	 	 	 	 	 	 	 	 	 	1581467836	6.82	12.63
12/02/2020 00:37:17	120220	12022020	003717	114.60	13.891388	-56.927703	114.82	1.280	-1.900	2.720	114.56	-2.60	3.10	 	 	 	 	 	 	 	 	 	 	 	 	 	 	 	 	 	 	1581467837	4.81	8.91
12/02/2020 00:37:18	120220	12022020	003718	114.47	13.891382	-56.927688	114.70	0.880	-0.350	2.410	114.46	-1.20	2.80	 	 	 	 	 	 	 	 	 	 	 	 	 	 	 	 	 	 	1581467838	3.63	6.72
12/02/2020 00:37:19	120220	12022020	003719	114.47	13.891373	-56.927672	114.70	0.060	0.710	2.160	114.48	-0.40	2.60	 	 	 	 	 	 	 	 	 	 	 	 	 	 	 	 	 	 	1581467839	3.91	7.24
12/02/2020 00:37:20	120220	12022020	003720	114.62	13.891362	-56.927652	114.87	-0.610	1.010	2.010	114.66	-0.40	2.50	 	 	 	 	 	 	 	 	 	 	 	 	 	 	 	 	 	 	1581467840	4.70	8.70
12/02/2020 00:37:21	120220	12022020	003721	114.84	13.891347	-56.927632	115.09	-0.770	0.670	2.030	114.86	-1.00	2.60	 	 	 	 	 	 	 	 	 	 	 	 	 	 	 	 	 	 	1581467841	5.35	9.91
12/02/2020 00:37:22	120220	12022020	003722	114.86	13.891330	-56.927610	115.08	-0.390	-0.050	2.200	114.86	-1.20	2.60	 	 	 	 	 	 	 	 	 	 	 	 	 	 	 	 	 	 	1581467842	5.84	10.82
12/02/2020 00:37:23	120220	12022020	003723	114.64	13.891315	-56.927588	114.85	0.190	-0.600	2.370	114.59	-2.00	2.90	 	 	 	 	 	 	 	 	 	 	 	 	 	 	 	 	 	 	1581467843	5.79	10.72
12/02/2020 00:37:24	120220	12022020	003724	114.41	13.891302	-56.927567	114.64	0.520	-0.630	2.530	114.41	-2.00	3.00	 	 	 	 	 	 	 	 	 	 	 	 	 	 	 	 	 	 	1581467844	5.20	9.63
12/02/2020 00:37:25	120220	12022020	003725	114.29	13.891292	-56.927547	114.54	0.410	-0.380	2.620	114.29	-1.60	3.10	 	 	 	 	 	 	 	 	 	 	 	 	 	 	 	 	 	 	1581467845	4.75	8.80
12/02/2020 00:37:26	120220	12022020	003726	114.33	13.891280	-56.927527	114.58	0.070	-0.250	2.470	114.35	-1.60	2.90	 	 	 	 	 	 	 	 	 	 	 	 	 	 	 	 	 	 	1581467846	4.81	8.91
12/02/2020 00:37:27	120220	12022020	003727	114.38	13.891268	-56.927505	114.62	-0.130	-0.430	2.370	114.36	-1.90	3.00	 	 	 	 	 	 	 	 	 	 	 	 	 	 	 	 	 	 	1581467847	5.30	9.82
12/02/2020 00:37:28	120220	12022020	003728	114.17	13.891252	-56.927483	114.39	-0.040	-0.570	2.740	114.11	-1.80	3.40	 	 	 	 	 	 	 	 	 	 	 	 	 	 	 	 	 	 	1581467848	5.71	10.57
12/02/2020 00:37:29	120220	12022020	003729	113.90	13.891237	-56.927463	114.15	0.090	-0.170	2.940	113.88	-1.20	3.30	 	 	 	 	 	 	 	 	 	 	 	 	 	 	 	 	 	 	1581467849	5.26	9.74
12/02/2020 00:37:30	120220	12022020	003730	113.90	13.891227	-56.927445	114.15	-0.000	0.490	2.530	113.92	-0.70	2.80	 	 	 	 	 	 	 	 	 	 	 	 	 	 	 	 	 	 	1581467850	4.54	8.41
12/02/2020 00:37:31	120220	12022020	003731	114.05	13.891218	-56.927425	114.30	-0.210	0.750	1.990	114.09	-0.70	2.40	 	 	 	 	 	 	 	 	 	 	 	 	 	 	 	 	 	 	1581467851	4.55	8.43
12/02/2020 00:37:32	120220	12022020	003732	114.21	13.891208	-56.927402	114.44	-0.190	0.190	1.820	114.23	-1.60	2.30	 	 	 	 	 	 	 	 	 	 	 	 	 	 	 	 	 	 	1581467852	5.25	9.72
12/02/2020 00:37:33	120220	12022020	003733	114.34	13.891193	-56.927378	114.56	0.160	-0.860	1.820	114.37	-2.50	2.30	 	 	 	 	 	 	 	 	 	 	 	 	 	 	 	 	 	 	1581467853	6.12	11.33
12/02/2020 00:37:34	120220	12022020	003734	114.55	13.891178	-56.927353	114.78	0.550	-1.350	1.720	114.60	-2.60	2.20	 	 	 	 	 	 	 	 	 	 	 	 	 	 	 	 	 	 	1581467854	6.02	11.15
12/02/2020 00:37:35	120220	12022020	003735	114.76	13.891168	-56.927332	114.98	0.490	-0.750	1.790	114.80	-1.70	2.40	 	 	 	 	 	 	 	 	 	 	 	 	 	 	 	 	 	 	1581467855	4.93	9.13
12/02/2020 00:37:36	120220	12022020	003736	114.94	13.891157	-56.927317	115.17	-0.060	0.260	2.140	114.94	-1.30	2.60	 	 	 	 	 	 	 	 	 	 	 	 	 	 	 	 	 	 	1581467856	4.19	7.76
12/02/2020 00:37:37	120220	12022020	003737	115.06	13.891142	-56.927300	115.27	-0.610	0.690	2.420	115.05	-0.80	3.00	 	 	 	 	 	 	 	 	 	 	 	 	 	 	 	 	 	 	1581467857	4.55	8.43
12/02/2020 00:37:38	120220	12022020	003738	114.83	13.891127	-56.927280	115.01	-0.660	0.300	2.760	114.83	-0.90	3.20	 	 	 	 	 	 	 	 	 	 	 	 	 	 	 	 	 	 	1581467858	5.47	10.13
12/02/2020 00:37:39	120220	12022020	003739	114.38	13.891112	-56.927257	114.59	-0.310	-0.140	2.970	114.34	-1.50	3.40	 	 	 	 	 	 	 	 	 	 	 	 	 	 	 	 	 	 	1581467859	5.77	10.69
12/02/2020 00:37:40	120220	12022020	003740	114.36	13.891102	-56.927233	114.64	-0.010	-0.200	2.610	114.43	-1.60	2.80	 	 	 	 	 	 	 	 	 	 	 	 	 	 	 	 	 	 	1581467860	5.23	9.69
12/02/2020 00:37:41	120220	12022020	003741	114.84	13.891092	-56.927212	115.14	0.110	-0.360	1.980	114.95	-1.90	2.30	 	 	 	 	 	 	 	 	 	 	 	 	 	 	 	 	 	 	1581467861	5.06	9.37
12/02/2020 00:37:42	120220	12022020	003742	115.16	13.891078	-56.927188	115.39	0.250	-0.920	1.860	115.14	-2.50	2.50	 	 	 	 	 	 	 	 	 	 	 	 	 	 	 	 	 	 	1581467862	5.63	10.43
12/02/2020 00:37:43	120220	12022020	003743	114.82	13.891062	-56.927165	114.99	0.520	-1.420	2.370	114.70	-2.70	3.10	 	 	 	 	 	 	 	 	 	 	 	 	 	 	 	 	 	 	1581467863	6.20	11.48
12/02/2020 00:37:44	120220	12022020	003744	114.25	13.891047	-56.927143	114.44	0.670	-0.990	2.670	114.17	-1.80	3.10	 	 	 	 	 	 	 	 	 	 	 	 	 	 	 	 	 	 	1581467864	5.73	10.61
12/02/2020 00:37:45	120220	12022020	003745	114.10	13.891037	-56.927125	114.38	0.420	0.470	2.350	114.15	-0.30	2.60	 	 	 	 	 	 	 	 	 	 	 	 	 	 	 	 	 	 	1581467865	4.39	8.13
12/02/2020 00:37:46	120220	12022020	003746	114.57	13.891030	-56.927107	114.89	-0.140	1.750	1.690	114.71	0.50	1.90	 	 	 	 	 	 	 	 	 	 	 	 	 	 	 	 	 	 	1581467866	3.83	7.09
12/02/2020 00:37:47	120220	12022020	003747	115.21	13.891022	-56.927087	115.50	-0.720	1.640	1.230	115.30	-0.20	1.70	 	 	 	 	 	 	 	 	 	 	 	 	 	 	 	 	 	 	1581467867	4.62	8.56
12/02/2020 00:37:48	120220	12022020	003748	115.38	13.891007	-56.927063	115.56	-1.030	0.300	1.420	115.36	-0.70	1.80	 	 	 	 	 	 	 	 	 	 	 	 	 	 	 	 	 	 	1581467868	5.95	11.02
12/02/2020 00:37:49	120220	12022020	003749	114.99	13.890987	-56.927040	115.16	-0.920	-1.070	2.200	114.88	-2.80	3.00	 	 	 	 	 	 	 	 	 	 	 	 	 	 	 	 	 	 	1581467869	6.49	12.02
12/02/2020 00:37:50	120220	12022020	003750	114.47	13.890967	-56.927020	114.66	-0.290	-1.700	2.960	114.37	-3.10	3.70	 	 	 	 	 	 	 	 	 	 	 	 	 	 	 	 	 	 	1581467870	6.04	11.19
12/02/2020 00:37:51	120220	12022020	003751	113.97	13.890952	-56.926998	114.18	0.680	-1.760	3.350	113.90	-3.00	3.90	 	 	 	 	 	 	 	 	 	 	 	 	 	 	 	 	 	 	1581467871	5.50	10.19
12/02/2020 00:37:52	120220	12022020	003752	113.62	13.890940	-56.926975	113.85	1.390	-1.480	3.290	113.57	-2.60	3.70	 	 	 	 	 	 	 	 	 	 	 	 	 	 	 	 	 	 	1581467872	5.49	10.17
12/02/2020 00:37:53	120220	12022020	003753	113.45	13.890930	-56.926952	113.71	1.250	-0.760	3.010	113.44	-1.60	3.40	 	 	 	 	 	 	 	 	 	 	 	 	 	 	 	 	 	 	1581467873	5.41	10.02
12/02/2020 00:37:54	120220	12022020	003754	113.51	13.890922	-56.926932	113.80	0.300	0.520	2.820	113.56	-0.20	3.20	 	 	 	 	 	 	 	 	 	 	 	 	 	 	 	 	 	 	1581467874	4.73	8.76
12/02/2020 00:37:55	120220	12022020	003755	113.84	13.890912	-56.926915	114.16	-0.840	1.940	2.650	113.92	0.90	3.10	 	 	 	 	 	 	 	 	 	 	 	 	 	 	 	 	 	 	1581467875	3.95	7.32
12/02/2020 00:37:56	120220	12022020	003756	114.20	13.890900	-56.926898	114.50	-1.400	2.270	2.460	114.26	0.50	2.80	 	 	 	 	 	 	 	 	 	 	 	 	 	 	 	 	 	 	1581467876	4.24	7.85
12/02/2020 00:37:57	120220	12022020	003757	114.51	13.890887	-56.926875	114.79	-1.140	0.860	2.100	114.56	-1.30	2.50	 	 	 	 	 	 	 	 	 	 	 	 	 	 	 	 	 	 	1581467877	5.86	10.85
12/02/2020 00:37:58	120220	12022020	003758	114.70	13.890868	-56.926848	114.95	-0.570	-0.980	2.110	114.70	-2.80	2.70	 	 	 	 	 	 	 	 	 	 	 	 	 	 	 	 	 	 	1581467878	6.75	12.50
12/02/2020 00:37:59	120220	12022020	003759	114.62	13.890850	-56.926827	114.83	-0.110	-1.810	2.470	114.56	-3.10	3.10	 	 	 	 	 	 	 	 	 	 	 	 	 	 	 	 	 	 	1581467879	6.14	11.37
12/02/2020 00:38:00	120220	12022020	003800	114.24	13.890837	-56.926807	114.42	0.310	-1.450	2.720	114.24	-2.90	3.20	 	 	 	 	 	 	 	 	 	 	 	 	 	 	 	 	 	 	1581467880	4.89	9.06
12/02/2020 00:38:01	120220	12022020	003801	113.86	13.890827	-56.926788	114.08	0.810	-0.790	2.430	113.82	-1.90	2.70	 	 	 	 	 	 	 	 	 	 	 	 	 	 	 	 	 	 	1581467881	4.51	8.35
12/02/2020 00:38:02	120220	12022020	003802	113.81	13.890820	-56.926765	114.07	1.120	-0.400	1.890	113.81	-1.80	2.50	1017.10	26.10	26.20	21.10	21.20	-1.0	74.0	74.0	409.0	25.8	318.00	14.30	65.00	12.50	37	9631.0	27.1	27.1	1581467882	4.97	9.20
12/02/2020 00:38:03	120220	12022020	003803	114.07	13.890812	-56.926742	114.36	0.980	-0.210	1.620	114.13	-1.40	2.10	 	 	 	 	 	 	 	 	 	 	 	 	 	 	 	 	 	 	1581467883	5.28	9.78
12/02/2020 00:38:04	120220	12022020	003804	114.35	13.890800	-56.926720	114.60	0.490	0.050	1.570	114.35	-1.40	2.10	 	 	 	 	 	 	 	 	 	 	 	 	 	 	 	 	 	 	1581467884	5.29	9.80
12/02/2020 00:38:05	120220	12022020	003805	114.42	13.890788	-56.926698	114.64	-0.100	0.440	1.720	114.42	-0.70	2.40	 	 	 	 	 	 	 	 	 	 	 	 	 	 	 	 	 	 	1581467885	5.07	9.39
12/02/2020 00:38:06	120220	12022020	003806	114.42	13.890775	-56.926678	114.68	-0.670	0.700	2.180	114.43	-0.60	2.90	 	 	 	 	 	 	 	 	 	 	 	 	 	 	 	 	 	 	1581467886	5.09	9.43
12/02/2020 00:38:07	120220	12022020	003807	114.63	13.890757	-56.926662	114.94	-1.110	0.650	2.860	114.69	-0.80	3.60	 	 	 	 	 	 	 	 	 	 	 	 	 	 	 	 	 	 	1581467887	5.37	9.95
12/02/2020 00:38:08	120220	12022020	003808	114.93	13.890738	-56.926643	115.25	-1.250	0.290	3.360	114.97	-1.30	3.90	 	 	 	 	 	 	 	 	 	 	 	 	 	 	 	 	 	 	1581467888	5.54	10.26
12/02/2020 00:38:09	120220	12022020	003809	114.98	13.890722	-56.926622	115.27	-0.840	-0.480	3.440	114.96	-2.20	3.90	 	 	 	 	 	 	 	 	 	 	 	 	 	 	 	 	 	 	1581467889	5.72	10.59
12/02/2020 00:38:10	120220	12022020	003810	114.74	13.890705	-56.926598	114.99	0.030	-1.400	3.380	114.68	-3.00	3.80	 	 	 	 	 	 	 	 	 	 	 	 	 	 	 	 	 	 	1581467890	6.09	11.28
12/02/2020 00:38:11	120220	12022020	003811	114.43	13.890692	-56.926573	114.70	0.900	-1.810	3.210	114.40	-3.00	3.50	 	 	 	 	 	 	 	 	 	 	 	 	 	 	 	 	 	 	1581467891	6.09	11.28
12/02/2020 00:38:12	120220	12022020	003812	114.42	13.890682	-56.926550	114.72	1.220	-1.200	2.650	114.42	-2.80	3.30	 	 	 	 	 	 	 	 	 	 	 	 	 	 	 	 	 	 	1581467892	5.39	9.98
12/02/2020 00:38:13	120220	12022020	003813	114.67	13.890675	-56.926530	114.96	0.820	0.190	1.880	114.73	-0.50	2.10	 	 	 	 	 	 	 	 	 	 	 	 	 	 	 	 	 	 	1581467893	4.47	8.28
12/02/2020 00:38:14	120220	12022020	003814	114.90	13.890667	-56.926512	115.17	-0.020	1.500	1.480	114.90	-0.10	2.00	 	 	 	 	 	 	 	 	 	 	 	 	 	 	 	 	 	 	1581467894	4.06	7.52
12/02/2020 00:38:15	120220	12022020	003815	115.06	13.890657	-56.926495	115.35	-0.790	2.100	1.510	115.10	0.70	2.00	 	 	 	 	 	 	 	 	 	 	 	 	 	 	 	 	 	 	1581467895	4.24	7.85
12/02/2020 00:38:16	120220	12022020	003816	115.25	13.890643	-56.926475	115.52	-1.020	1.540	1.590	115.27	-0.50	2.10	 	 	 	 	 	 	 	 	 	 	 	 	 	 	 	 	 	 	1581467896	4.91	9.09
12/02/2020 00:38:17	120220	12022020	003817	115.21	13.890628	-56.926450	115.42	-0.430	-0.410	1.700	115.15	-2.80	2.40	 	 	 	 	 	 	 	 	 	 	 	 	 	 	 	 	 	 	1581467897	6.18	11.45
12/02/2020 00:38:18	120220	12022020	003818	114.73	13.890608	-56.926422	114.91	0.700	-2.760	2.230	114.62	-4.70	3.00	 	 	 	 	 	 	 	 	 	 	 	 	 	 	 	 	 	 	1581467898	7.39	13.69
12/02/2020 00:38:19	120220	12022020	003819	114.39	13.890590	-56.926393	114.67	1.450	-3.580	2.990	114.38	-4.50	3.70	 	 	 	 	 	 	 	 	 	 	 	 	 	 	 	 	 	 	1581467899	7.00	12.96
12/02/2020 00:38:20	120220	12022020	003820	114.55	13.890575	-56.926377	114.90	1.130	-1.840	3.430	114.62	-2.00	3.90	 	 	 	 	 	 	 	 	 	 	 	 	 	 	 	 	 	 	1581467900	4.79	8.87
12/02/2020 00:38:21	120220	12022020	003821	114.85	13.890567	-56.926367	115.16	0.000	1.010	3.280	114.88	0.60	3.60	 	 	 	 	 	 	 	 	 	 	 	 	 	 	 	 	 	 	1581467901	2.96	5.48
12/02/2020 00:38:22	120220	12022020	003822	114.87	13.890557	-56.926353	115.13	-1.060	2.700	2.870	114.85	1.40	3.20	 	 	 	 	 	 	 	 	 	 	 	 	 	 	 	 	 	 	1581467902	3.30	6.11
12/02/2020 00:38:23	120220	12022020	003823	114.74	13.890545	-56.926333	114.98	-1.420	2.310	2.510	114.73	0.40	2.90	 	 	 	 	 	 	 	 	 	 	 	 	 	 	 	 	 	 	1581467903	5.15	9.54
12/02/2020 00:38:24	120220	12022020	003824	114.82	13.890528	-56.926307	115.11	-1.140	0.790	2.210	114.87	-1.20	2.50	 	 	 	 	 	 	 	 	 	 	 	 	 	 	 	 	 	 	1581467904	6.38	11.82
12/02/2020 00:38:25	120220	12022020	003825	115.15	13.890513	-56.926282	115.44	-0.570	-0.600	1.790	115.21	-2.40	2.10	 	 	 	 	 	 	 	 	 	 	 	 	 	 	 	 	 	 	1581467905	6.22	11.52
12/02/2020 00:38:26	120220	12022020	003826	115.26	13.890502	-56.926258	115.46	0.120	-1.470	1.430	115.26	-2.70	2.00	 	 	 	 	 	 	 	 	 	 	 	 	 	 	 	 	 	 	1581467906	5.61	10.39
12/02/2020 00:38:27	120220	12022020	003827	114.95	13.890488	-56.926237	115.11	0.830	-1.800	1.500	114.86	-3.10	2.20	 	 	 	 	 	 	 	 	 	 	 	 	 	 	 	 	 	 	1581467907	5.36	9.93
12/02/2020 00:38:28	120220	12022020	003828	114.56	13.890477	-56.926215	114.76	1.230	-1.450	2.100	114.56	-2.90	2.40	 	 	 	 	 	 	 	 	 	 	 	 	 	 	 	 	 	 	1581467908	5.16	9.56
12/02/2020 00:38:29	120220	12022020	003829	114.61	13.890462	-56.926198	114.90	0.990	-0.400	2.560	114.68	-1.20	3.10	 	 	 	 	 	 	 	 	 	 	 	 	 	 	 	 	 	 	1581467909	4.71	8.72
12/02/2020 00:38:30	120220	12022020	003830	115.03	13.890450	-56.926183	115.35	0.210	0.910	2.660	115.11	-0.10	3.10	 	 	 	 	 	 	 	 	 	 	 	 	 	 	 	 	 	 	1581467910	4.10	7.59
12/02/2020 00:38:31	120220	12022020	003831	115.23	13.890437	-56.926168	115.48	-0.490	1.430	2.750	115.20	-0.10	3.40	 	 	 	 	 	 	 	 	 	 	 	 	 	 	 	 	 	 	1581467911	4.28	7.93
12/02/2020 00:38:32	120220	12022020	003832	114.93	13.890422	-56.926147	115.14	-0.560	0.590	3.090	114.84	-1.40	3.70	 	 	 	 	 	 	 	 	 	 	 	 	 	 	 	 	 	 	1581467912	5.55	10.28
12/02/2020 00:38:33	120220	12022020	003833	114.48	13.890405	-56.926120	114.71	-0.050	-0.860	3.310	114.40	-2.60	3.90	 	 	 	 	 	 	 	 	 	 	 	 	 	 	 	 	 	 	1581467913	6.57	12.17
12/02/2020 00:38:34	120220	12022020	003834	114.18	13.890392	-56.926093	114.45	0.380	-1.560	3.410	114.17	-2.80	3.90	 	 	 	 	 	 	 	 	 	 	 	 	 	 	 	 	 	 	1581467914	6.30	11.67
12/02/2020 00:38:35	120220	12022020	003835	114.24	13.890380	-56.926073	114.57	0.210	-0.990	3.360	114.30	-1.90	3.80	 	 	 	 	 	 	 	 	 	 	 	 	 	 	 	 	 	 	1581467915	5.08	9.41
12/02/2020 00:38:36	120220	12022020	003836	114.62	13.890367	-56.926057	114.96	-0.400	0.170	3.250	114.70	-0.80	3.70	 	 	 	 	 	 	 	 	 	 	 	 	 	 	 	 	 	 	1581467916	4.18	7.74
12/02/2020 00:38:37	120220	12022020	003837	114.96	13.890353	-56.926042	115.28	-0.750	0.890	3.130	115.00	-0.40	3.50	 	 	 	 	 	 	 	 	 	 	 	 	 	 	 	 	 	 	1581467917	4.35	8.06
12/02/2020 00:38:38	120220	12022020	003838	115.10	13.890340	-56.926022	115.39	-0.430	0.650	2.840	115.12	-1.00	3.20	 	 	 	 	 	 	 	 	 	 	 	 	 	 	 	 	 	 	1581467918	5.17	9.57
12/02/2020 00:38:39	120220	12022020	003839	115.15	13.890325	-56.925998	115.42	0.340	-0.220	2.540	115.14	-1.90	3.00	 	 	 	 	 	 	 	 	 	 	 	 	 	 	 	 	 	 	1581467919	5.96	11.04
12/02/2020 00:38:40	120220	12022020	003840	115.04	13.890312	-56.925972	115.27	0.870	-0.870	2.360	114.99	-2.20	2.80	 	 	 	 	 	 	 	 	 	 	 	 	 	 	 	 	 	 	1581467920	6.03	11.17
12/02/2020 00:38:41	120220	12022020	003841	114.81	13.890302	-56.925950	115.05	0.680	-0.620	2.140	114.77	-1.70	2.60	 	 	 	 	 	 	 	 	 	 	 	 	 	 	 	 	 	 	1581467921	5.15	9.54
12/02/2020 00:38:42	120220	12022020	003842	114.64	13.890293	-56.925932	114.88	-0.060	0.150	1.990	114.62	-0.90	2.50	 	 	 	 	 	 	 	 	 	 	 	 	 	 	 	 	 	 	1581467922	4.24	7.85
12/02/2020 00:38:43	120220	12022020	003843	114.70	13.890282	-56.925915	114.99	-0.690	0.530	1.990	114.75	-0.90	2.50	 	 	 	 	 	 	 	 	 	 	 	 	 	 	 	 	 	 	1581467923	4.38	8.11
12/02/2020 00:38:44	120220	12022020	003844	115.02	13.890267	-56.925895	115.32	-0.680	0.030	1.950	115.08	-1.70	2.40	 	 	 	 	 	 	 	 	 	 	 	 	 	 	 	 	 	 	1581467924	5.31	9.83
12/02/2020 00:38:45	120220	12022020	003845	115.13	13.890248	-56.925872	115.36	0.040	-1.040	2.020	115.09	-2.80	2.60	 	 	 	 	 	 	 	 	 	 	 	 	 	 	 	 	 	 	1581467925	6.27	11.61
12/02/2020 00:38:46	120220	12022020	003846	114.76	13.890232	-56.925845	114.96	0.960	-1.680	2.400	114.67	-2.90	3.00	 	 	 	 	 	 	 	 	 	 	 	 	 	 	 	 	 	 	1581467926	6.49	12.02
12/02/2020 00:38:47	120220	12022020	003847	114.49	13.890220	-56.925823	114.76	1.180	-0.940	2.710	114.50	-1.60	3.20	 	 	 	 	 	 	 	 	 	 	 	 	 	 	 	 	 	 	1581467927	5.34	9.89
12/02/2020 00:38:48	120220	12022020	003848	114.78	13.890212	-56.925807	115.12	0.390	0.740	2.720	114.88	0.00	3.20	 	 	 	 	 	 	 	 	 	 	 	 	 	 	 	 	 	 	1581467928	3.82	7.07
12/02/2020 00:38:49	120220	12022020	003849	115.35	13.890202	-56.925793	115.68	-0.840	1.960	2.650	115.45	0.70	3.20	 	 	 	 	 	 	 	 	 	 	 	 	 	 	 	 	 	 	1581467929	3.55	6.57
12/02/2020 00:38:50	120220	12022020	003850	115.74	13.890187	-56.925777	116.02	-1.630	1.820	2.770	115.74	0.60	3.20	 	 	 	 	 	 	 	 	 	 	 	 	 	 	 	 	 	 	1581467930	4.65	8.61
12/02/2020 00:38:51	120220	12022020	003851	115.70	13.890167	-56.925757	115.93	-1.420	0.380	3.110	115.63	-1.80	3.80	 	 	 	 	 	 	 	 	 	 	 	 	 	 	 	 	 	 	1581467931	6.10	11.30
12/02/2020 00:38:52	120220	12022020	003852	115.21	13.890145	-56.925733	115.41	-0.260	-1.550	3.450	115.08	-3.50	4.00	 	 	 	 	 	 	 	 	 	 	 	 	 	 	 	 	 	 	1581467932	6.90	12.78
12/02/2020 00:38:53	120220	12022020	003853	114.59	13.890128	-56.925705	114.81	1.160	-2.780	3.470	114.50	-4.20	3.80	 	 	 	 	 	 	 	 	 	 	 	 	 	 	 	 	 	 	1581467933	6.68	12.37
12/02/2020 00:38:54	120220	12022020	003854	114.27	13.890120	-56.925680	114.53	1.890	-2.400	2.860	114.26	-3.10	2.90	 	 	 	 	 	 	 	 	 	 	 	 	 	 	 	 	 	 	1581467934	5.65	10.46
12/02/2020 00:38:55	120220	12022020	003855	114.45	13.890117	-56.925662	114.75	1.410	-0.480	1.820	114.54	-0.90	1.90	 	 	 	 	 	 	 	 	 	 	 	 	 	 	 	 	 	 	1581467935	4.19	7.76
12/02/2020 00:38:56	120220	12022020	003856	115.04	13.890113	-56.925647	115.36	0.080	1.680	1.000	115.18	0.90	1.40	 	 	 	 	 	 	 	 	 	 	 	 	 	 	 	 	 	 	1581467936	3.15	5.83
12/02/2020 00:38:57	120220	12022020	003857	115.59	13.890103	-56.925632	115.86	-1.200	2.550	1.110	115.65	1.00	1.90	 	 	 	 	 	 	 	 	 	 	 	 	 	 	 	 	 	 	1581467937	3.70	6.85
12/02/2020 00:38:58	120220	12022020	003858	115.71	13.890083	-56.925615	115.96	-1.700	1.650	2.080	115.69	-0.40	3.00	 	 	 	 	 	 	 	 	 	 	 	 	 	 	 	 	 	 	1581467938	5.66	10.48
12/02/2020 00:38:59	120220	12022020	003859	115.45	13.890058	-56.925593	115.66	-1.290	-0.210	3.100	115.35	-2.30	3.90	 	 	 	 	 	 	 	 	 	 	 	 	 	 	 	 	 	 	1581467939	6.92	12.82
12/02/2020 00:39:00	120220	12022020	003900	114.88	13.890037	-56.925570	115.10	-0.350	-1.790	3.850	114.76	-3.50	4.60	 	 	 	 	 	 	 	 	 	 	 	 	 	 	 	 	 	 	1581467940	6.86	12.70
12/02/2020 00:39:01	120220	12022020	003901	114.38	13.890020	-56.925547	114.65	0.580	-2.300	4.280	114.32	-3.50	4.80	 	 	 	 	 	 	 	 	 	 	 	 	 	 	 	 	 	 	1581467941	5.96	11.04
12/02/2020 00:39:02	120220	12022020	003902	114.20	13.890008	-56.925527	114.51	1.150	-1.740	4.190	114.19	-2.70	4.50	1017.00	26.10	26.10	21.00	21.10	-1.0	73.0	73.0	409.0	25.8	316.00	15.70	63.00	13.90	30	10405.0	27.1	27.1	1581467942	4.96	9.19
12/02/2020 00:39:03	120220	12022020	003903	114.17	13.890000	-56.925507	114.45	1.230	-0.650	3.530	114.17	-1.50	3.60	 	 	 	 	 	 	 	 	 	 	 	 	 	 	 	 	 	 	1581467943	4.53	8.39
12/02/2020 00:39:04	120220	12022020	003904	114.20	13.889995	-56.925485	114.47	0.870	0.470	2.600	114.20	-1.10	3.30	 	 	 	 	 	 	 	 	 	 	 	 	 	 	 	 	 	 	1581467944	4.57	8.46
12/02/2020 00:39:05	120220	12022020	003905	114.30	13.889988	-56.925465	114.57	0.200	1.280	1.970	114.34	0.20	2.30	 	 	 	 	 	 	 	 	 	 	 	 	 	 	 	 	 	 	1581467945	4.62	8.56
12/02/2020 00:39:06	120220	12022020	003906	114.57	13.889978	-56.925447	114.83	-0.640	1.710	1.690	114.57	0.30	2.20	 	 	 	 	 	 	 	 	 	 	 	 	 	 	 	 	 	 	1581467946	4.54	8.41
12/02/2020 00:39:07	120220	12022020	003907	114.98	13.889963	-56.925428	115.26	-1.280	1.460	1.720	115.06	-0.30	2.30	 	 	 	 	 	 	 	 	 	 	 	 	 	 	 	 	 	 	1581467947	4.68	8.67
12/02/2020 00:39:08	120220	12022020	003908	115.26	13.889947	-56.925408	115.51	-1.130	0.060	2.030	115.27	-2.20	2.70	 	 	 	 	 	 	 	 	 	 	 	 	 	 	 	 	 	 	1581467948	5.60	10.37
12/02/2020 00:39:09	120220	12022020	003909	115.07	13.889927	-56.925383	115.25	-0.120	-2.050	2.630	114.97	-4.10	3.50	 	 	 	 	 	 	 	 	 	 	 	 	 	 	 	 	 	 	1581467949	6.89	12.76
12/02/2020 00:39:10	120220	12022020	003910	114.52	13.889907	-56.925358	114.72	0.900	-3.130	3.450	114.42	-4.30	4.30	 	 	 	 	 	 	 	 	 	 	 	 	 	 	 	 	 	 	1581467950	6.84	12.67
12/02/2020 00:39:11	120220	12022020	003911	114.22	13.889892	-56.925338	114.50	1.110	-2.120	4.070	114.23	-2.60	4.60	 	 	 	 	 	 	 	 	 	 	 	 	 	 	 	 	 	 	1581467951	5.14	9.52
12/02/2020 00:39:12	120220	12022020	003912	114.46	13.889882	-56.925327	114.80	0.450	0.220	4.020	114.55	-0.20	4.30	 	 	 	 	 	 	 	 	 	 	 	 	 	 	 	 	 	 	1581467952	3.31	6.13
12/02/2020 00:39:13	120220	12022020	003913	114.94	13.889875	-56.925315	115.25	-0.420	2.190	3.460	115.03	1.10	3.70	 	 	 	 	 	 	 	 	 	 	 	 	 	 	 	 	 	 	1581467953	2.86	5.30
12/02/2020 00:39:14	120220	12022020	003914	115.32	13.889867	-56.925298	115.59	-0.800	2.400	2.740	115.37	0.60	3.00	 	 	 	 	 	 	 	 	 	 	 	 	 	 	 	 	 	 	1581467954	4.11	7.61
12/02/2020 00:39:15	120220	12022020	003915	115.53	13.889853	-56.925272	115.79	-0.530	0.850	2.090	115.56	-1.40	2.40	 	 	 	 	 	 	 	 	 	 	 	 	 	 	 	 	 	 	1581467955	5.91	10.95
12/02/2020 00:39:16	120220	12022020	003916	115.66	13.889838	-56.925243	115.91	0.100	-1.250	1.730	115.66	-2.10	2.30	 	 	 	 	 	 	 	 	 	 	 	 	 	 	 	 	 	 	1581467956	6.85	12.69
12/02/2020 00:39:17	120220	12022020	003917	115.65	13.889822	-56.925218	115.85	0.660	-2.330	1.730	115.62	-3.60	2.30	 	 	 	 	 	 	 	 	 	 	 	 	 	 	 	 	 	 	1581467957	6.38	11.82
12/02/2020 00:39:18	120220	12022020	003918	115.42	13.889810	-56.925198	115.58	0.840	-1.810	1.910	115.42	-3.40	2.40	 	 	 	 	 	 	 	 	 	 	 	 	 	 	 	 	 	 	1581467958	4.92	9.11
12/02/2020 00:39:19	120220	12022020	003919	115.17	13.889800	-56.925183	115.35	0.510	-0.400	1.980	115.14	-1.20	2.50	 	 	 	 	 	 	 	 	 	 	 	 	 	 	 	 	 	 	1581467959	3.90	7.22
12/02/2020 00:39:20	120220	12022020	003920	115.03	13.889788	-56.925168	115.21	-0.170	0.820	2.000	115.03	-0.80	2.50	 	 	 	 	 	 	 	 	 	 	 	 	 	 	 	 	 	 	1581467960	3.90	7.22
12/02/2020 00:39:21	120220	12022020	003921	114.99	13.889775	-56.925152	115.20	-0.860	1.400	2.160	115.01	0.10	2.70	 	 	 	 	 	 	 	 	 	 	 	 	 	 	 	 	 	 	1581467961	4.46	8.26
12/02/2020 00:39:22	120220	12022020	003922	115.24	13.889760	-56.925135	115.49	-1.250	1.410	2.160	115.32	-0.20	2.60	 	 	 	 	 	 	 	 	 	 	 	 	 	 	 	 	 	 	1581467962	4.76	8.82
12/02/2020 00:39:23	120220	12022020	003923	115.61	13.889747	-56.925117	115.85	-1.050	0.650	2.060	115.66	-1.30	2.50	 	 	 	 	 	 	 	 	 	 	 	 	 	 	 	 	 	 	1581467963	5.11	9.46
12/02/2020 00:39:24	120220	12022020	003924	115.74	13.889730	-56.925093	115.93	-0.180	-0.870	2.110	115.71	-2.90	2.70	 	 	 	 	 	 	 	 	 	 	 	 	 	 	 	 	 	 	1581467964	5.93	10.98
12/02/2020 00:39:25	120220	12022020	003925	115.47	13.889713	-56.925067	115.62	0.910	-2.250	2.420	115.38	-3.80	3.10	 	 	 	 	 	 	 	 	 	 	 	 	 	 	 	 	 	 	1581467965	6.45	11.95
12/02/2020 00:39:26	120220	12022020	003926	115.01	13.889698	-56.925045	115.17	1.470	-2.330	2.970	114.92	-3.30	3.70	 	 	 	 	 	 	 	 	 	 	 	 	 	 	 	 	 	 	1581467966	5.82	10.78
12/02/2020 00:39:27	120220	12022020	003927	114.69	13.889685	-56.925027	114.93	1.150	-1.000	3.440	114.68	-1.60	4.00	 	 	 	 	 	 	 	 	 	 	 	 	 	 	 	 	 	 	1581467967	4.55	8.43
12/02/2020 00:39:28	120220	12022020	003928	114.73	13.889675	-56.925013	115.01	0.280	0.810	3.370	114.76	0.10	3.70	 	 	 	 	 	 	 	 	 	 	 	 	 	 	 	 	 	 	1581467968	3.66	6.78
12/02/2020 00:39:29	120220	12022020	003929	114.90	13.889667	-56.924998	115.16	-0.520	1.990	2.860	114.93	0.80	3.10	 	 	 	 	 	 	 	 	 	 	 	 	 	 	 	 	 	 	1581467969	3.71	6.87
12/02/2020 00:39:30	120220	12022020	003930	114.98	13.889657	-56.924980	115.20	-0.850	1.910	2.270	114.98	0.70	2.90	 	 	 	 	 	 	 	 	 	 	 	 	 	 	 	 	 	 	1581467970	4.58	8.48
12/02/2020 00:39:31	120220	12022020	003931	115.01	13.889643	-56.924957	115.22	-0.720	0.730	1.840	115.01	-1.30	2.30	 	 	 	 	 	 	 	 	 	 	 	 	 	 	 	 	 	 	1581467971	5.53	10.24
12/02/2020 00:39:32	120220	12022020	003932	115.01	13.889630	-56.924932	115.22	-0.300	-0.890	1.730	115.01	-1.90	2.20	 	 	 	 	 	 	 	 	 	 	 	 	 	 	 	 	 	 	1581467972	6.10	11.30
12/02/2020 00:39:33	120220	12022020	003933	114.93	13.889613	-56.924907	115.11	0.180	-2.170	1.960	114.90	-3.80	2.60	 	 	 	 	 	 	 	 	 	 	 	 	 	 	 	 	 	 	1581467973	6.22	11.52
12/02/2020 00:39:34	120220	12022020	003934	114.80	13.889597	-56.924883	115.00	0.480	-2.490	2.320	114.79	-3.60	3.00	 	 	 	 	 	 	 	 	 	 	 	 	 	 	 	 	 	 	1581467974	5.92	10.96
12/02/2020 00:39:35	120220	12022020	003935	114.81	13.889582	-56.924867	115.06	0.440	-1.390	2.730	114.84	-1.90	3.30	 	 	 	 	 	 	 	 	 	 	 	 	 	 	 	 	 	 	1581467975	4.96	9.19
12/02/2020 00:39:36	120220	12022020	003936	115.07	13.889568	-56.924855	115.34	0.050	0.660	2.910	115.14	0.10	3.40	 	 	 	 	 	 	 	 	 	 	 	 	 	 	 	 	 	 	1581467976	3.69	6.83
12/02/2020 00:39:37	120220	12022020	003937	115.41	13.889560	-56.924842	115.67	-0.410	2.150	2.660	115.47	0.90	2.90	 	 	 	 	 	 	 	 	 	 	 	 	 	 	 	 	 	 	1581467977	3.32	6.15
12/02/2020 00:39:38	120220	12022020	003938	115.60	13.889550	-56.924822	115.81	-0.550	1.810	2.090	115.61	-0.20	2.40	 	 	 	 	 	 	 	 	 	 	 	 	 	 	 	 	 	 	1581467978	4.68	8.67
12/02/2020 00:39:39	120220	12022020	003939	115.52	13.889537	-56.924797	115.71	-0.290	0.100	1.930	115.48	-2.00	2.50	 	 	 	 	 	 	 	 	 	 	 	 	 	 	 	 	 	 	1581467979	6.29	11.65
12/02/2020 00:39:40	120220	12022020	003940	115.34	13.889518	-56.924770	115.47	0.160	-1.390	2.240	115.28	-2.50	2.60	 	 	 	 	 	 	 	 	 	 	 	 	 	 	 	 	 	 	1581467980	6.59	12.20
12/02/2020 00:39:41	120220	12022020	003941	115.06	13.889503	-56.924748	115.27	0.480	-1.600	2.490	115.04	-2.60	3.00	 	 	 	 	 	 	 	 	 	 	 	 	 	 	 	 	 	 	1581467981	5.57	10.32
12/02/2020 00:39:42	120220	12022020	003942	115.07	13.889492	-56.924733	115.32	0.440	-0.650	2.440	115.07	-2.30	3.00	 	 	 	 	 	 	 	 	 	 	 	 	 	 	 	 	 	 	1581467982	4.21	7.80
12/02/2020 00:39:43	120220	12022020	003943	115.21	13.889482	-56.924718	115.44	0.190	0.350	2.240	115.23	-0.90	2.60	 	 	 	 	 	 	 	 	 	 	 	 	 	 	 	 	 	 	1581467983	3.71	6.87
12/02/2020 00:39:44	120220	12022020	003944	115.22	13.889472	-56.924700	115.41	0.110	0.360	2.020	115.20	-1.30	2.50	 	 	 	 	 	 	 	 	 	 	 	 	 	 	 	 	 	 	1581467984	4.57	8.46
12/02/2020 00:39:45	120220	12022020	003945	115.09	13.889458	-56.924675	115.28	0.260	-0.470	1.940	115.07	-2.20	2.50	 	 	 	 	 	 	 	 	 	 	 	 	 	 	 	 	 	 	1581467985	5.79	10.72
12/02/2020 00:39:46	120220	12022020	003946	114.97	13.889443	-56.924650	115.17	0.330	-1.160	2.250	114.95	-2.60	3.00	 	 	 	 	 	 	 	 	 	 	 	 	 	 	 	 	 	 	1581467986	6.15	11.39
12/02/2020 00:39:47	120220	12022020	003947	114.95	13.889427	-56.924630	115.18	0.050	-0.960	2.760	114.96	-2.00	3.40	 	 	 	 	 	 	 	 	 	 	 	 	 	 	 	 	 	 	1581467987	5.62	10.41
12/02/2020 00:39:48	120220	12022020	003948	114.99	13.889410	-56.924615	115.22	-0.460	0.070	3.070	115.00	-0.80	3.60	 	 	 	 	 	 	 	 	 	 	 	 	 	 	 	 	 	 	1581467988	4.71	8.72
12/02/2020 00:39:49	120220	12022020	003949	115.02	13.889397	-56.924600	115.25	-0.800	1.130	3.070	115.03	-0.00	3.50	 	 	 	 	 	 	 	 	 	 	 	 	 	 	 	 	 	 	1581467989	4.16	7.70
12/02/2020 00:39:50	120220	12022020	003950	115.13	13.889387	-56.924582	115.36	-0.740	1.350	2.760	115.16	-0.30	3.10	 	 	 	 	 	 	 	 	 	 	 	 	 	 	 	 	 	 	1581467990	4.47	8.28
12/02/2020 00:39:51	120220	12022020	003951	115.25	13.889373	-56.924558	115.47	-0.340	0.420	2.400	115.25	-1.50	2.80	 	 	 	 	 	 	 	 	 	 	 	 	 	 	 	 	 	 	1581467991	5.48	10.15
12/02/2020 00:39:52	120220	12022020	003952	115.20	13.889360	-56.924533	115.41	0.150	-0.890	2.240	115.20	-2.00	2.80	 	 	 	 	 	 	 	 	 	 	 	 	 	 	 	 	 	 	1581467992	6.24	11.56
12/02/2020 00:39:53	120220	12022020	003953	115.20	13.889345	-56.924510	115.42	0.410	-1.420	2.250	115.21	-2.60	2.80	 	 	 	 	 	 	 	 	 	 	 	 	 	 	 	 	 	 	1581467993	5.80	10.74
12/02/2020 00:39:54	120220	12022020	003954	115.23	13.889332	-56.924492	115.44	0.410	-0.840	2.370	115.23	-2.40	2.80	 	 	 	 	 	 	 	 	 	 	 	 	 	 	 	 	 	 	1581467994	4.65	8.61
12/02/2020 00:39:55	120220	12022020	003955	115.06	13.889320	-56.924477	115.25	0.370	-0.030	2.430	115.01	-1.20	2.90	 	 	 	 	 	 	 	 	 	 	 	 	 	 	 	 	 	 	1581467995	4.13	7.65
12/02/2020 00:39:56	120220	12022020	003956	114.79	13.889310	-56.924458	114.97	0.450	0.210	2.340	114.74	-1.30	2.80	 	 	 	 	 	 	 	 	 	 	 	 	 	 	 	 	 	 	1581467996	4.60	8.52
12/02/2020 00:39:57	120220	12022020	003957	114.56	13.889298	-56.924435	114.77	0.600	-0.280	2.330	114.53	-1.90	2.80	 	 	 	 	 	 	 	 	 	 	 	 	 	 	 	 	 	 	1581467997	5.53	10.24
12/02/2020 00:39:58	120220	12022020	003958	114.54	13.889285	-56.924410	114.79	0.550	-0.850	2.350	114.57	-2.30	2.90	 	 	 	 	 	 	 	 	 	 	 	 	 	 	 	 	 	 	1581467998	6.02	11.15
12/02/2020 00:39:59	120220	12022020	003959	114.76	13.889272	-56.924387	115.02	0.090	-0.660	2.410	114.82	-1.70	2.90	 	 	 	 	 	 	 	 	 	 	 	 	 	 	 	 	 	 	1581467999	5.48	10.15
12/02/2020 00:40:00	120220	12022020	004000	115.06	13.889258	-56.924370	115.34	-0.650	0.370	2.570	115.12	-0.50	3.20	 	 	 	 	 	 	 	 	 	 	 	 	 	 	 	 	 	 	1581468000	4.44	8.22
12/02/2020 00:40:01	120220	12022020	004001	115.38	13.889245	-56.924357	115.68	-1.330	1.310	2.870	115.46	0.10	3.50	 	 	 	 	 	 	 	 	 	 	 	 	 	 	 	 	 	 	1581468001	4.10	7.59
12/02/2020 00:40:02	120220	12022020	004002	115.70	13.889228	-56.924342	116.00	-1.520	1.270	3.100	115.75	-0.50	3.60	1017.20	26.10	26.10	20.60	20.70	-1.0	71.0	72.0	399.0	25.8	316.00	15.90	63.00	14.20	33	10981.0	27.2	27.1	1581468002	4.73	8.76
12/02/2020 00:40:03	120220	12022020	004003	115.86	13.889210	-56.924322	116.12	-0.890	0.110	3.140	115.85	-1.90	3.60	 	 	 	 	 	 	 	 	 	 	 	 	 	 	 	 	 	 	1581468003	5.74	10.63
12/02/2020 00:40:04	120220	12022020	004004	115.74	13.889193	-56.924297	115.85	0.410	-1.430	3.200	115.65	-2.50	3.70	 	 	 	 	 	 	 	 	 	 	 	 	 	 	 	 	 	 	1581468004	6.45	11.95
12/02/2020 00:40:05	120220	12022020	004005	115.05	13.889178	-56.924270	115.22	1.570	-2.280	3.290	114.92	-3.60	3.80	 	 	 	 	 	 	 	 	 	 	 	 	 	 	 	 	 	 	1581468005	6.33	11.72
12/02/2020 00:40:06	120220	12022020	004006	114.52	13.889168	-56.924247	114.75	1.800	-1.800	3.160	114.52	-3.40	3.70	 	 	 	 	 	 	 	 	 	 	 	 	 	 	 	 	 	 	1581468006	5.42	10.04
12/02/2020 00:40:07	120220	12022020	004007	114.52	13.889162	-56.924228	114.82	0.960	-0.200	2.800	114.58	-0.80	3.10	 	 	 	 	 	 	 	 	 	 	 	 	 	 	 	 	 	 	1581468007	4.19	7.76
12/02/2020 00:40:08	120220	12022020	004008	114.95	13.889155	-56.924213	115.26	-0.350	1.530	2.320	114.95	-0.20	2.90	 	 	 	 	 	 	 	 	 	 	 	 	 	 	 	 	 	 	1581468008	3.47	6.43
12/02/2020 00:40:09	120220	12022020	004009	115.46	13.889143	-56.924198	115.76	-1.320	2.290	1.850	115.55	0.80	2.20	 	 	 	 	 	 	 	 	 	 	 	 	 	 	 	 	 	 	1581468009	3.91	7.24
12/02/2020 00:40:10	120220	12022020	004010	115.84	13.889130	-56.924180	116.12	-1.520	1.640	1.740	115.88	-0.40	2.40	 	 	 	 	 	 	 	 	 	 	 	 	 	 	 	 	 	 	1581468010	5.04	9.33
12/02/2020 00:40:11	120220	12022020	004011	115.90	13.889110	-56.924157	116.14	-0.970	-0.130	2.150	115.87	-2.30	2.90	 	 	 	 	 	 	 	 	 	 	 	 	 	 	 	 	 	 	1581468011	6.31	11.69
12/02/2020 00:40:12	120220	12022020	004012	115.66	13.889088	-56.924132	115.87	-0.020	-1.980	2.660	115.58	-3.80	3.30	 	 	 	 	 	 	 	 	 	 	 	 	 	 	 	 	 	 	1581468012	6.91	12.80
12/02/2020 00:40:13	120220	12022020	004013	115.21	13.889070	-56.924108	115.40	0.790	-2.680	3.080	115.11	-3.80	3.60	 	 	 	 	 	 	 	 	 	 	 	 	 	 	 	 	 	 	1581468013	6.32	11.70
12/02/2020 00:40:14	120220	12022020	004014	114.73	13.889058	-56.924088	114.93	1.120	-1.780	3.120	114.64	-2.50	3.50	 	 	 	 	 	 	 	 	 	 	 	 	 	 	 	 	 	 	1581468014	4.88	9.04
12/02/2020 00:40:15	120220	12022020	004015	114.35	13.889052	-56.924072	114.57	0.930	-0.080	2.740	114.30	-0.80	3.00	 	 	 	 	 	 	 	 	 	 	 	 	 	 	 	 	 	 	1581468015	3.87	7.17
12/02/2020 00:40:16	120220	12022020	004016	114.23	13.889047	-56.924053	114.47	0.360	1.260	2.110	114.24	0.20	2.30	 	 	 	 	 	 	 	 	 	 	 	 	 	 	 	 	 	 	1581468016	4.02	7.45
12/02/2020 00:40:17	120220	12022020	004017	114.46	13.889040	-56.924032	114.73	-0.400	1.630	1.440	114.54	0.10	1.80	 	 	 	 	 	 	 	 	 	 	 	 	 	 	 	 	 	 	1581468017	4.66	8.63
12/02/2020 00:40:18	120220	12022020	004018	114.87	13.889027	-56.924010	115.15	-0.980	0.980	1.270	114.93	-0.80	2.00	 	 	 	 	 	 	 	 	 	 	 	 	 	 	 	 	 	 	1581468018	5.48	10.15
12/02/2020 00:40:19	120220	12022020	004019	114.96	13.889005	-56.923990	115.18	-1.050	-0.090	2.000	114.90	-1.80	2.90	 	 	 	 	 	 	 	 	 	 	 	 	 	 	 	 	 	 	1581468019	6.30	11.67
12/02/2020 00:40:20	120220	12022020	004020	114.54	13.888983	-56.923970	114.73	-0.550	-0.820	2.940	114.43	-2.30	3.70	 	 	 	 	 	 	 	 	 	 	 	 	 	 	 	 	 	 	1581468020	6.28	11.63
12/02/2020 00:40:21	120220	12022020	004021	114.06	13.888967	-56.923952	114.30	0.170	-0.850	3.320	114.01	-2.10	3.80	 	 	 	 	 	 	 	 	 	 	 	 	 	 	 	 	 	 	1581468021	5.29	9.80
12/02/2020 00:40:22	120220	12022020	004022	113.97	13.888957	-56.923932	114.25	0.630	-0.570	3.080	113.99	-1.90	3.40	 	 	 	 	 	 	 	 	 	 	 	 	 	 	 	 	 	 	1581468022	4.62	8.56
12/02/2020 00:40:23	120220	12022020	004023	114.10	13.888947	-56.923912	114.38	0.700	-0.560	2.750	114.12	-2.00	3.20	 	 	 	 	 	 	 	 	 	 	 	 	 	 	 	 	 	 	1581468023	4.85	8.98
12/02/2020 00:40:24	120220	12022020	004024	114.07	13.888935	-56.923888	114.29	0.590	-0.820	2.630	114.03	-2.20	3.10	 	 	 	 	 	 	 	 	 	 	 	 	 	 	 	 	 	 	1581468024	5.42	10.04
12/02/2020 00:40:25	120220	12022020	004025	113.94	13.888923	-56.923865	114.20	0.380	-0.740	2.600	113.95	-1.90	3.10	 	 	 	 	 	 	 	 	 	 	 	 	 	 	 	 	 	 	1581468025	5.52	10.22
12/02/2020 00:40:26	120220	12022020	004026	114.10	13.888912	-56.923845	114.39	-0.020	-0.040	2.560	114.15	-1.10	3.10	 	 	 	 	 	 	 	 	 	 	 	 	 	 	 	 	 	 	1581468026	4.90	9.07
12/02/2020 00:40:27	120220	12022020	004027	114.31	13.888898	-56.923828	114.59	-0.510	0.710	2.760	114.32	-0.50	3.40	 	 	 	 	 	 	 	 	 	 	 	 	 	 	 	 	 	 	1581468027	4.57	8.46
12/02/2020 00:40:28	120220	12022020	004028	114.31	13.888883	-56.923810	114.56	-0.710	0.770	3.020	114.30	-0.80	3.50	 	 	 	 	 	 	 	 	 	 	 	 	 	 	 	 	 	 	1581468028	5.09	9.43
12/02/2020 00:40:29	120220	12022020	004029	114.31	13.888868	-56.923787	114.58	-0.470	0.230	2.960	114.32	-1.40	3.40	 	 	 	 	 	 	 	 	 	 	 	 	 	 	 	 	 	 	1581468029	5.67	10.50
12/02/2020 00:40:30	120220	12022020	004030	114.38	13.888855	-56.923763	114.63	-0.030	-0.350	2.810	114.38	-1.60	3.30	 	 	 	 	 	 	 	 	 	 	 	 	 	 	 	 	 	 	1581468030	5.75	10.65
12/02/2020 00:40:31	120220	12022020	004031	114.24	13.888840	-56.923742	114.44	0.310	-0.590	2.770	114.19	-1.90	3.20	 	 	 	 	 	 	 	 	 	 	 	 	 	 	 	 	 	 	1581468031	5.46	10.11
12/02/2020 00:40:32	120220	12022020	004032	114.10	13.888830	-56.923720	114.34	0.440	-0.440	2.390	114.13	-1.60	2.60	 	 	 	 	 	 	 	 	 	 	 	 	 	 	 	 	 	 	1581468032	5.08	9.41
12/02/2020 00:40:33	120220	12022020	004033	114.37	13.888823	-56.923700	114.62	0.340	-0.070	1.750	114.44	-1.40	2.10	 	 	 	 	 	 	 	 	 	 	 	 	 	 	 	 	 	 	1581468033	4.68	8.67
12/02/2020 00:40:34	120220	12022020	004034	114.60	13.888813	-56.923678	114.81	0.180	-0.120	1.570	114.60	-1.70	2.20	 	 	 	 	 	 	 	 	 	 	 	 	 	 	 	 	 	 	1581468034	4.87	9.02
12/02/2020 00:40:35	120220	12022020	004035	114.47	13.888800	-56.923655	114.67	0.210	-0.790	2.000	114.44	-2.40	2.70	 	 	 	 	 	 	 	 	 	 	 	 	 	 	 	 	 	 	1581468035	5.85	10.83
12/02/2020 00:40:36	120220	12022020	004036	114.48	13.888783	-56.923632	114.74	0.220	-0.980	2.440	114.53	-2.00	3.10	 	 	 	 	 	 	 	 	 	 	 	 	 	 	 	 	 	 	1581468036	6.09	11.28
12/02/2020 00:40:37	120220	12022020	004037	114.86	13.888768	-56.923613	115.16	-0.150	-0.060	2.720	114.96	-0.90	3.30	 	 	 	 	 	 	 	 	 	 	 	 	 	 	 	 	 	 	1581468037	4.86	9.00
12/02/2020 00:40:38	120220	12022020	004038	115.21	13.888753	-56.923600	115.46	-0.680	0.920	3.010	115.23	-0.30	3.60	 	 	 	 	 	 	 	 	 	 	 	 	 	 	 	 	 	 	1581468038	4.27	7.91
12/02/2020 00:40:39	120220	12022020	004039	115.13	13.888737	-56.923583	115.33	-0.740	0.790	3.320	115.07	-0.90	3.90	 	 	 	 	 	 	 	 	 	 	 	 	 	 	 	 	 	 	1581468039	5.05	9.35
12/02/2020 00:40:40	120220	12022020	004040	114.69	13.888720	-56.923558	114.87	-0.100	-0.300	3.360	114.58	-2.10	3.80	 	 	 	 	 	 	 	 	 	 	 	 	 	 	 	 	 	 	1581468040	6.15	11.39
12/02/2020 00:40:41	120220	12022020	004041	114.23	13.888708	-56.923530	114.42	0.700	-1.280	3.000	114.17	-2.80	3.30	 	 	 	 	 	 	 	 	 	 	 	 	 	 	 	 	 	 	1581468041	6.49	12.02
12/02/2020 00:40:42	120220	12022020	004042	114.12	13.888700	-56.923505	114.37	0.930	-1.270	2.450	114.15	-2.30	2.70	 	 	 	 	 	 	 	 	 	 	 	 	 	 	 	 	 	 	1581468042	5.80	10.74
12/02/2020 00:40:43	120220	12022020	004043	114.48	13.888690	-56.923485	114.78	0.390	-0.330	2.010	114.60	-1.20	2.50	 	 	 	 	 	 	 	 	 	 	 	 	 	 	 	 	 	 	1581468043	4.65	8.61
12/02/2020 00:40:44	120220	12022020	004044	115.11	13.888678	-56.923468	115.42	-0.390	0.790	2.010	115.11	-0.80	2.50	 	 	 	 	 	 	 	 	 	 	 	 	 	 	 	 	 	 	1581468044	4.14	7.67
12/02/2020 00:40:45	120220	12022020	004045	115.59	13.888663	-56.923453	115.84	-0.740	1.290	2.240	115.63	-0.20	2.90	 	 	 	 	 	 	 	 	 	 	 	 	 	 	 	 	 	 	1581468045	4.52	8.37
12/02/2020 00:40:46	120220	12022020	004046	115.47	13.888648	-56.923433	115.62	-0.380	0.610	2.640	115.36	-1.30	3.40	 	 	 	 	 	 	 	 	 	 	 	 	 	 	 	 	 	 	1581468046	5.46	10.11
12/02/2020 00:40:47	120220	12022020	004047	114.79	13.888630	-56.923408	114.93	0.260	-0.800	3.340	114.65	-2.60	4.20	 	 	 	 	 	 	 	 	 	 	 	 	 	 	 	 	 	 	1581468047	6.58	12.19
12/02/2020 00:40:48	120220	12022020	004048	114.21	13.888612	-56.923383	114.44	0.570	-1.690	3.990	114.16	-3.00	4.60	 	 	 	 	 	 	 	 	 	 	 	 	 	 	 	 	 	 	1581468048	6.56	12.15
12/02/2020 00:40:49	120220	12022020	004049	114.15	13.888597	-56.923362	114.42	0.390	-1.330	3.970	114.18	-2.20	4.30	 	 	 	 	 	 	 	 	 	 	 	 	 	 	 	 	 	 	1581468049	5.39	9.98
12/02/2020 00:40:50	120220	12022020	004050	114.38	13.888587	-56.923345	114.66	0.010	-0.150	3.420	114.45	-1.00	3.60	 	 	 	 	 	 	 	 	 	 	 	 	 	 	 	 	 	 	1581468050	4.30	7.96
12/02/2020 00:40:51	120220	12022020	004051	114.73	13.888580	-56.923327	115.01	-0.330	0.960	2.710	114.81	-0.20	3.00	 	 	 	 	 	 	 	 	 	 	 	 	 	 	 	 	 	 	1581468051	4.02	7.45
12/02/2020 00:40:52	120220	12022020	004052	115.02	13.888568	-56.923308	115.26	-0.490	1.130	2.240	115.04	-0.50	2.70	 	 	 	 	 	 	 	 	 	 	 	 	 	 	 	 	 	 	1581468052	4.60	8.52
12/02/2020 00:40:53	120220	12022020	004053	114.97	13.888553	-56.923285	115.15	-0.290	0.120	2.220	114.91	-1.80	2.80	 	 	 	 	 	 	 	 	 	 	 	 	 	 	 	 	 	 	1581468053	5.84	10.82
12/02/2020 00:40:54	120220	12022020	004054	114.62	13.888537	-56.923258	114.64	0.250	-1.200	2.450	114.51	-2.30	2.90	 	 	 	 	 	 	 	 	 	 	 	 	 	 	 	 	 	 	1581468054	6.71	12.43
12/02/2020 00:40:55	120220	12022020	004055	113.97	13.888522	-56.923233	114.13	0.630	-1.530	2.690	113.90	-2.60	3.30	 	 	 	 	 	 	 	 	 	 	 	 	 	 	 	 	 	 	1581468055	6.18	11.45
12/02/2020 00:40:56	120220	12022020	004056	113.78	13.888510	-56.923213	113.99	0.470	-0.670	2.700	113.78	-2.30	3.30	 	 	 	 	 	 	 	 	 	 	 	 	 	 	 	 	 	 	1581468056	4.86	9.00
12/02/2020 00:40:57	120220	12022020	004057	114.05	13.888502	-56.923195	114.30	-0.090	0.470	2.330	114.15	-0.60	2.70	 	 	 	 	 	 	 	 	 	 	 	 	 	 	 	 	 	 	1581468057	4.14	7.67
12/02/2020 00:40:58	120220	12022020	004058	114.59	13.888492	-56.923177	114.83	-0.550	0.960	2.070	114.59	-0.40	2.60	 	 	 	 	 	 	 	 	 	 	 	 	 	 	 	 	 	 	1581468058	4.50	8.33
12/02/2020 00:40:59	120220	12022020	004059	114.87	13.888475	-56.923157	115.06	-0.570	0.570	2.310	114.87	-1.10	3.00	 	 	 	 	 	 	 	 	 	 	 	 	 	 	 	 	 	 	1581468059	5.48	10.15
12/02/2020 00:41:00	120220	12022020	004100	114.63	13.888458	-56.923133	114.78	-0.280	-0.150	2.770	114.54	-1.70	3.50	 	 	 	 	 	 	 	 	 	 	 	 	 	 	 	 	 	 	1581468060	6.06	11.22
12/02/2020 00:41:01	120220	12022020	004101	114.19	13.888442	-56.923112	114.38	-0.040	-0.600	3.220	114.14	-2.00	3.90	 	 	 	 	 	 	 	 	 	 	 	 	 	 	 	 	 	 	1581468061	5.84	10.82
12/02/2020 00:41:02	120220	12022020	004102	114.10	13.888427	-56.923092	114.36	0.040	-0.700	3.390	114.13	-2.10	3.90	1017.20	26.10	26.20	20.40	20.60	-1.0	71.0	71.0	395.0	25.8	316.00	15.50	63.00	13.70	32	10947.0	27.1	27.1	1581468062	5.36	9.93
12/02/2020 00:41:03	120220	12022020	004103	114.27	13.888413	-56.923070	114.53	0.110	-0.760	3.180	114.30	-2.20	3.50	 	 	 	 	 	 	 	 	 	 	 	 	 	 	 	 	 	 	1581468063	5.26	9.74
12/02/2020 00:41:04	120220	12022020	004104	114.29	13.888402	-56.923047	114.51	0.320	-0.920	2.780	114.28	-2.30	3.10	 	 	 	 	 	 	 	 	 	 	 	 	 	 	 	 	 	 	1581468064	5.60	10.37
12/02/2020 00:41:05	120220	12022020	004105	114.21	13.888392	-56.923022	114.42	0.520	-0.680	2.370	114.19	-1.80	2.80	 	 	 	 	 	 	 	 	 	 	 	 	 	 	 	 	 	 	1581468065	5.59	10.35
12/02/2020 00:41:06	120220	12022020	004106	114.15	13.888380	-56.923002	114.34	0.430	0.150	2.250	114.14	-0.80	2.80	 	 	 	 	 	 	 	 	 	 	 	 	 	 	 	 	 	 	1581468066	4.92	9.11
12/02/2020 00:41:07	120220	12022020	004107	114.14	13.888370	-56.922983	114.37	0.010	1.020	2.270	114.17	-0.20	2.70	 	 	 	 	 	 	 	 	 	 	 	 	 	 	 	 	 	 	1581468067	4.52	8.37
12/02/2020 00:41:08	120220	12022020	004108	114.35	13.888358	-56.922963	114.61	-0.470	1.180	2.060	114.42	-0.40	2.50	 	 	 	 	 	 	 	 	 	 	 	 	 	 	 	 	 	 	1581468068	4.83	8.95
12/02/2020 00:41:09	120220	12022020	004109	114.65	13.888347	-56.922940	114.89	-0.730	0.500	1.920	114.68	-1.30	2.50	 	 	 	 	 	 	 	 	 	 	 	 	 	 	 	 	 	 	1581468069	5.52	10.22
12/02/2020 00:41:10	120220	12022020	004110	114.70	13.888330	-56.922917	114.90	-0.580	-0.550	2.130	114.67	-2.30	2.80	 	 	 	 	 	 	 	 	 	 	 	 	 	 	 	 	 	 	1581468070	6.03	11.17
12/02/2020 00:41:11	120220	12022020	004111	114.43	13.888315	-56.922892	114.61	-0.070	-1.360	2.480	114.37	-2.90	3.10	 	 	 	 	 	 	 	 	 	 	 	 	 	 	 	 	 	 	1581468071	6.09	11.28
12/02/2020 00:41:12	120220	12022020	004112	114.12	13.888298	-56.922868	114.33	0.530	-1.660	2.840	114.08	-3.00	3.50	 	 	 	 	 	 	 	 	 	 	 	 	 	 	 	 	 	 	1581468072	5.88	10.89
12/02/2020 00:41:13	120220	12022020	004113	113.99	13.888285	-56.922847	114.22	0.850	-1.400	3.080	113.98	-2.40	3.60	 	 	 	 	 	 	 	 	 	 	 	 	 	 	 	 	 	 	1581468073	5.68	10.52
12/02/2020 00:41:14	120220	12022020	004114	113.97	13.888273	-56.922825	114.19	0.610	-0.460	2.980	113.97	-1.20	3.40	 	 	 	 	 	 	 	 	 	 	 	 	 	 	 	 	 	 	1581468074	5.15	9.54
12/02/2020 00:41:15	120220	12022020	004115	114.07	13.888263	-56.922807	114.31	-0.200	1.000	2.600	114.12	0.20	3.00	 	 	 	 	 	 	 	 	 	 	 	 	 	 	 	 	 	 	1581468075	4.27	7.91
12/02/2020 00:41:16	120220	12022020	004116	114.36	13.888255	-56.922790	114.61	-1.110	2.040	2.230	114.43	0.70	2.60	 	 	 	 	 	 	 	 	 	 	 	 	 	 	 	 	 	 	1581468076	3.97	7.35
12/02/2020 00:41:17	120220	12022020	004117	114.65	13.888242	-56.922772	114.88	-1.400	1.660	1.960	114.69	-0.30	2.40	 	 	 	 	 	 	 	 	 	 	 	 	 	 	 	 	 	 	1581468077	4.92	9.11
12/02/2020 00:41:18	120220	12022020	004118	114.74	13.888225	-56.922745	114.94	-0.750	-0.110	1.770	114.73	-2.30	2.30	 	 	 	 	 	 	 	 	 	 	 	 	 	 	 	 	 	 	1581468078	6.44	11.93
12/02/2020 00:41:19	120220	12022020	004119	114.62	13.888208	-56.922715	114.82	0.380	-1.970	1.750	114.60	-3.70	2.30	 	 	 	 	 	 	 	 	 	 	 	 	 	 	 	 	 	 	1581468079	7.14	13.22
12/02/2020 00:41:20	120220	12022020	004120	114.63	13.888195	-56.922688	114.86	1.180	-2.470	1.830	114.63	-3.90	2.30	 	 	 	 	 	 	 	 	 	 	 	 	 	 	 	 	 	 	1581468080	6.31	11.69
12/02/2020 00:41:21	120220	12022020	004121	114.77	13.888185	-56.922668	114.98	1.140	-1.410	1.940	114.78	-2.10	2.50	 	 	 	 	 	 	 	 	 	 	 	 	 	 	 	 	 	 	1581468081	4.77	8.83
12/02/2020 00:41:22	120220	12022020	004122	114.72	13.888175	-56.922653	114.90	0.490	0.200	2.240	114.72	-1.50	2.70	 	 	 	 	 	 	 	 	 	 	 	 	 	 	 	 	 	 	1581468082	4.03	7.46
12/02/2020 00:41:23	120220	12022020	004123	114.50	13.888163	-56.922637	114.70	-0.290	1.410	2.700	114.47	0.30	3.30	 	 	 	 	 	 	 	 	 	 	 	 	 	 	 	 	 	 	1581468083	4.27	7.91
12/02/2020 00:41:24	120220	12022020	004124	114.42	13.888150	-56.922618	114.64	-0.730	1.720	2.770	114.43	0.10	3.20	 	 	 	 	 	 	 	 	 	 	 	 	 	 	 	 	 	 	1581468084	4.78	8.85
12/02/2020 00:41:25	120220	12022020	004125	114.46	13.888137	-56.922595	114.67	-0.640	0.840	2.550	114.46	-1.20	3.10	 	 	 	 	 	 	 	 	 	 	 	 	 	 	 	 	 	 	1581468085	5.68	10.52
12/02/2020 00:41:26	120220	12022020	004126	114.37	13.888120	-56.922568	114.58	-0.210	-0.690	2.660	114.35	-2.60	3.30	 	 	 	 	 	 	 	 	 	 	 	 	 	 	 	 	 	 	1581468086	6.61	12.24
12/02/2020 00:41:27	120220	12022020	004127	114.36	13.888103	-56.922542	114.60	0.140	-1.720	2.880	114.39	-3.20	3.50	 	 	 	 	 	 	 	 	 	 	 	 	 	 	 	 	 	 	1581468087	6.58	12.19
12/02/2020 00:41:28	120220	12022020	004128	114.57	13.888087	-56.922522	114.82	0.180	-1.500	2.970	114.62	-2.40	3.40	 	 	 	 	 	 	 	 	 	 	 	 	 	 	 	 	 	 	1581468088	5.52	10.22
12/02/2020 00:41:29	120220	12022020	004129	114.76	13.888075	-56.922505	114.98	0.080	-0.340	2.820	114.76	-1.20	3.30	 	 	 	 	 	 	 	 	 	 	 	 	 	 	 	 	 	 	1581468089	4.31	7.98
12/02/2020 00:41:30	120220	12022020	004130	114.63	13.888065	-56.922488	114.80	0.010	0.640	2.640	114.57	-0.60	3.00	 	 	 	 	 	 	 	 	 	 	 	 	 	 	 	 	 	 	1581468090	4.11	7.61
12/02/2020 00:41:31	120220	12022020	004131	114.28	13.888055	-56.922467	114.44	0.010	0.660	2.380	114.20	-1.00	2.80	 	 	 	 	 	 	 	 	 	 	 	 	 	 	 	 	 	 	1581468091	4.96	9.19
12/02/2020 00:41:32	120220	12022020	004132	114.00	13.888045	-56.922442	114.19	0.050	-0.120	2.040	113.98	-1.80	2.40	 	 	 	 	 	 	 	 	 	 	 	 	 	 	 	 	 	 	1581468092	6.00	11.11
12/02/2020 00:41:33	120220	12022020	004133	114.02	13.888032	-56.922413	114.25	0.140	-0.860	1.710	114.07	-2.30	2.10	 	 	 	 	 	 	 	 	 	 	 	 	 	 	 	 	 	 	1581468093	6.26	11.59
12/02/2020 00:41:34	120220	12022020	004134	114.26	13.888020	-56.922390	114.48	0.240	-0.880	1.550	114.26	-2.30	2.10	 	 	 	 	 	 	 	 	 	 	 	 	 	 	 	 	 	 	1581468094	5.72	10.59
12/02/2020 00:41:35	120220	12022020	004135	114.42	13.888008	-56.922368	114.64	0.230	-0.340	1.670	114.46	-1.40	2.30	 	 	 	 	 	 	 	 	 	 	 	 	 	 	 	 	 	 	1581468095	5.13	9.50
12/02/2020 00:41:36	120220	12022020	004136	114.63	13.887995	-56.922350	114.88	-0.020	0.410	2.010	114.63	-1.10	2.40	 	 	 	 	 	 	 	 	 	 	 	 	 	 	 	 	 	 	1581468096	4.80	8.89
12/02/2020 00:41:37	120220	12022020	004137	114.93	13.887980	-56.922333	115.20	-0.420	1.020	2.390	114.99	-0.30	3.00	 	 	 	 	 	 	 	 	 	 	 	 	 	 	 	 	 	 	1581468097	4.60	8.52
12/02/2020 00:41:38	120220	12022020	004138	115.17	13.887967	-56.922317	115.42	-0.640	0.950	2.730	115.18	-0.80	3.40	 	 	 	 	 	 	 	 	 	 	 	 	 	 	 	 	 	 	1581468098	4.85	8.98
12/02/2020 00:41:39	120220	12022020	004139	115.07	13.887950	-56.922293	115.27	-0.350	-0.150	3.140	115.00	-2.20	3.80	 	 	 	 	 	 	 	 	 	 	 	 	 	 	 	 	 	 	1581468099	5.83	10.80
12/02/2020 00:41:40	120220	12022020	004140	114.67	13.887932	-56.922268	114.85	0.290	-1.640	3.550	114.57	-3.40	4.20	 	 	 	 	 	 	 	 	 	 	 	 	 	 	 	 	 	 	1581468100	6.76	12.52
12/02/2020 00:41:41	120220	12022020	004141	114.20	13.887915	-56.922242	114.41	0.780	-2.240	3.780	114.12	-3.40	4.20	 	 	 	 	 	 	 	 	 	 	 	 	 	 	 	 	 	 	1581468101	6.55	12.13
12/02/2020 00:41:42	120220	12022020	004142	113.94	13.887903	-56.922220	114.18	0.740	-1.250	3.500	113.94	-1.90	3.70	 	 	 	 	 	 	 	 	 	 	 	 	 	 	 	 	 	 	1581468102	5.16	9.56
12/02/2020 00:41:43	120220	12022020	004143	114.11	13.887897	-56.922203	114.38	0.190	0.610	2.670	114.19	-0.10	2.80	 	 	 	 	 	 	 	 	 	 	 	 	 	 	 	 	 	 	1581468103	3.85	7.13
12/02/2020 00:41:44	120220	12022020	004144	114.60	13.887892	-56.922187	114.88	-0.480	1.870	1.660	114.71	0.60	1.80	 	 	 	 	 	 	 	 	 	 	 	 	 	 	 	 	 	 	1581468104	3.78	7.00
12/02/2020 00:41:45	120220	12022020	004145	115.12	13.887883	-56.922165	115.36	-0.770	1.600	0.890	115.20	-0.30	1.20	 	 	 	 	 	 	 	 	 	 	 	 	 	 	 	 	 	 	1581468105	4.91	9.09
12/02/2020 00:41:46	120220	12022020	004146	115.46	13.887870	-56.922138	115.67	-0.470	0.100	0.660	115.46	-0.90	1.20	 	 	 	 	 	 	 	 	 	 	 	 	 	 	 	 	 	 	1581468106	6.26	11.59
12/02/2020 00:41:47	120220	12022020	004147	115.42	13.887852	-56.922112	115.55	0.190	-1.440	1.110	115.35	-3.20	2.00	 	 	 	 	 	 	 	 	 	 	 	 	 	 	 	 	 	 	1581468107	6.79	12.58
12/02/2020 00:41:48	120220	12022020	004148	114.88	13.887833	-56.922087	115.01	0.760	-2.110	2.040	114.88	-3.40	2.30	 	 	 	 	 	 	 	 	 	 	 	 	 	 	 	 	 	 	1581468108	6.46	11.96
12/02/2020 00:41:49	120220	12022020	004149	114.26	13.887817	-56.922065	114.42	0.810	-1.540	2.870	114.18	-2.30	3.60	 	 	 	 	 	 	 	 	 	 	 	 	 	 	 	 	 	 	1581468109	5.62	10.41
12/02/2020 00:41:50	120220	12022020	004150	114.06	13.887805	-56.922050	114.29	0.230	0.110	3.190	114.08	-0.50	3.60	 	 	 	 	 	 	 	 	 	 	 	 	 	 	 	 	 	 	1581468110	4.40	8.15
12/02/2020 00:41:51	120220	12022020	004151	114.41	13.887795	-56.922035	114.70	-0.580	1.730	2.800	114.53	0.60	3.00	 	 	 	 	 	 	 	 	 	 	 	 	 	 	 	 	 	 	1581468111	3.60	6.67
12/02/2020 00:41:52	120220	12022020	004152	115.06	13.887787	-56.922017	115.35	-1.000	1.880	2.080	115.18	-0.00	2.40	 	 	 	 	 	 	 	 	 	 	 	 	 	 	 	 	 	 	1581468112	4.35	8.06
12/02/2020 00:41:53	120220	12022020	004153	115.52	13.887773	-56.921990	115.75	-0.700	0.260	1.720	115.54	-2.00	2.30	 	 	 	 	 	 	 	 	 	 	 	 	 	 	 	 	 	 	1581468113	6.20	11.48
12/02/2020 00:41:54	120220	12022020	004154	115.31	13.887755	-56.921962	115.45	0.000	-1.650	2.080	115.18	-3.50	2.90	 	 	 	 	 	 	 	 	 	 	 	 	 	 	 	 	 	 	1581468114	7.27	13.46
12/02/2020 00:41:55	120220	12022020	004155	114.54	13.887735	-56.921937	114.67	0.550	-2.360	2.790	114.38	-3.50	3.50	 	 	 	 	 	 	 	 	 	 	 	 	 	 	 	 	 	 	1581468115	6.74	12.48
12/02/2020 00:41:56	120220	12022020	004156	113.98	13.887720	-56.921917	114.18	0.690	-1.320	3.000	113.95	-1.90	3.30	 	 	 	 	 	 	 	 	 	 	 	 	 	 	 	 	 	 	1581468116	5.17	9.57
12/02/2020 00:41:57	120220	12022020	004157	114.12	13.887713	-56.921902	114.39	0.490	0.570	2.420	114.20	-0.20	2.60	 	 	 	 	 	 	 	 	 	 	 	 	 	 	 	 	 	 	1581468117	3.66	6.78
12/02/2020 00:41:58	120220	12022020	004158	114.56	13.887708	-56.921883	114.80	0.110	1.530	1.690	114.62	0.00	2.00	 	 	 	 	 	 	 	 	 	 	 	 	 	 	 	 	 	 	1581468118	4.00	7.41
12/02/2020 00:41:59	120220	12022020	004159	114.69	13.887698	-56.921858	114.88	-0.200	0.870	1.420	114.67	-1.10	2.00	 	 	 	 	 	 	 	 	 	 	 	 	 	 	 	 	 	 	1581468119	5.52	10.22
12/02/2020 00:42:00	120220	12022020	004200	114.51	13.887682	-56.921832	114.68	-0.330	-0.400	1.640	114.47	-2.10	2.30	 	 	 	 	 	 	 	 	 	 	 	 	 	 	 	 	 	 	1581468120	6.60	12.22
12/02/2020 00:42:01	120220	12022020	004201	114.36	13.887665	-56.921808	114.57	-0.280	-0.960	2.120	114.35	-2.30	2.90	 	 	 	 	 	 	 	 	 	 	 	 	 	 	 	 	 	 	1581468121	6.20	11.48
12/02/2020 00:42:02	120220	12022020	004202	114.23	13.887647	-56.921790	114.43	-0.080	-0.760	2.820	114.18	-2.00	3.60	1017.10	26.20	26.20	20.70	20.80	-1.0	72.0	72.0	393.0	25.8	317.00	14.60	63.00	12.70	27	10133.0	27.2	27.1	1581468122	5.42	10.04
12/02/2020 00:42:03	120220	12022020	004203	113.95	13.887632	-56.921770	114.15	0.200	-0.410	3.320	113.89	-1.70	3.80	 	 	 	 	 	 	 	 	 	 	 	 	 	 	 	 	 	 	1581468123	5.15	9.54
12/02/2020 00:42:04	120220	12022020	004204	113.69	13.887620	-56.921750	113.91	0.330	-0.150	3.200	113.67	-1.40	3.50	 	 	 	 	 	 	 	 	 	 	 	 	 	 	 	 	 	 	1581468124	5.18	9.59
12/02/2020 00:42:05	120220	12022020	004205	113.64	13.887610	-56.921727	113.86	0.220	0.110	2.740	113.67	-1.20	3.00	 	 	 	 	 	 	 	 	 	 	 	 	 	 	 	 	 	 	1581468125	5.12	9.48
12/02/2020 00:42:06	120220	12022020	004206	113.79	13.887602	-56.921705	114.02	0.030	0.160	2.350	113.82	-1.30	2.80	 	 	 	 	 	 	 	 	 	 	 	 	 	 	 	 	 	 	1581468126	5.14	9.52
12/02/2020 00:42:07	120220	12022020	004207	113.93	13.887590	-56.921680	114.17	-0.020	-0.270	2.210	113.96	-1.90	2.70	 	 	 	 	 	 	 	 	 	 	 	 	 	 	 	 	 	 	1581468127	5.64	10.45
12/02/2020 00:42:08	120220	12022020	004208	114.09	13.887575	-56.921655	114.33	0.040	-0.790	2.210	114.12	-2.20	2.70	 	 	 	 	 	 	 	 	 	 	 	 	 	 	 	 	 	 	1581468128	6.10	11.30
12/02/2020 00:42:09	120220	12022020	004209	114.23	13.887560	-56.921632	114.45	0.030	-0.800	2.380	114.24	-2.00	3.00	 	 	 	 	 	 	 	 	 	 	 	 	 	 	 	 	 	 	1581468129	5.85	10.83
12/02/2020 00:42:10	120220	12022020	004210	114.23	13.887545	-56.921613	114.45	-0.140	-0.200	2.780	114.23	-1.70	3.20	 	 	 	 	 	 	 	 	 	 	 	 	 	 	 	 	 	 	1581468130	5.23	9.69
12/02/2020 00:42:11	120220	12022020	004211	114.18	13.887530	-56.921595	114.38	-0.350	0.530	3.040	114.16	-0.60	3.50	 	 	 	 	 	 	 	 	 	 	 	 	 	 	 	 	 	 	1581468131	4.86	9.00
12/02/2020 00:42:12	120220	12022020	004212	114.08	13.887518	-56.921575	114.27	-0.420	0.910	2.800	114.08	-0.50	3.40	 	 	 	 	 	 	 	 	 	 	 	 	 	 	 	 	 	 	1581468132	4.81	8.91
12/02/2020 00:42:13	120220	12022020	004213	114.03	13.887508	-56.921552	114.25	-0.190	0.590	2.240	114.05	-1.10	2.50	 	 	 	 	 	 	 	 	 	 	 	 	 	 	 	 	 	 	1581468133	5.28	9.78
12/02/2020 00:42:14	120220	12022020	004214	114.21	13.887500	-56.921525	114.45	0.270	-0.380	1.680	114.27	-2.20	2.10	 	 	 	 	 	 	 	 	 	 	 	 	 	 	 	 	 	 	1581468134	6.04	11.19
12/02/2020 00:42:15	120220	12022020	004215	114.44	13.887488	-56.921497	114.64	0.560	-1.340	1.580	114.46	-2.90	2.20	 	 	 	 	 	 	 	 	 	 	 	 	 	 	 	 	 	 	1581468135	6.35	11.76
12/02/2020 00:42:16	120220	12022020	004216	114.40	13.887473	-56.921473	114.58	0.410	-1.580	2.050	114.36	-2.70	2.80	 	 	 	 	 	 	 	 	 	 	 	 	 	 	 	 	 	 	1581468136	6.00	11.11
12/02/2020 00:42:17	120220	12022020	004217	114.09	13.887457	-56.921453	114.25	-0.020	-0.920	2.690	114.02	-1.80	3.40	 	 	 	 	 	 	 	 	 	 	 	 	 	 	 	 	 	 	1581468137	5.38	9.96
12/02/2020 00:42:18	120220	12022020	004218	113.82	13.887442	-56.921437	114.02	-0.280	0.180	2.980	113.80	-0.80	3.40	 	 	 	 	 	 	 	 	 	 	 	 	 	 	 	 	 	 	1581468138	4.83	8.95
12/02/2020 00:42:19	120220	12022020	004219	113.86	13.887430	-56.921418	114.11	-0.150	0.930	2.810	113.91	-0.30	3.20	 	 	 	 	 	 	 	 	 	 	 	 	 	 	 	 	 	 	1581468139	4.73	8.76
12/02/2020 00:42:20	120220	12022020	004220	114.14	13.887420	-56.921395	114.41	0.110	0.810	2.390	114.21	-0.80	2.70	 	 	 	 	 	 	 	 	 	 	 	 	 	 	 	 	 	 	1581468140	5.40	10.00
12/02/2020 00:42:21	120220	12022020	004221	114.37	13.887408	-56.921367	114.59	0.120	0.000	2.030	114.38	-1.70	2.50	 	 	 	 	 	 	 	 	 	 	 	 	 	 	 	 	 	 	1581468141	6.14	11.37
12/02/2020 00:42:22	120220	12022020	004222	114.27	13.887395	-56.921342	114.44	-0.150	-0.660	2.200	114.27	-1.90	2.60	 	 	 	 	 	 	 	 	 	 	 	 	 	 	 	 	 	 	1581468142	6.25	11.58
12/02/2020 00:42:23	120220	12022020	004223	114.00	13.887378	-56.921320	114.18	-0.400	-0.560	2.800	113.95	-1.70	3.50	 	 	 	 	 	 	 	 	 	 	 	 	 	 	 	 	 	 	1581468143	5.69	10.54
12/02/2020 00:42:24	120220	12022020	004224	113.90	13.887363	-56.921302	114.13	-0.420	-0.000	2.990	113.90	-1.40	3.50	 	 	 	 	 	 	 	 	 	 	 	 	 	 	 	 	 	 	1581468144	4.96	9.19
12/02/2020 00:42:25	120220	12022020	004225	114.10	13.887353	-56.921282	114.37	-0.150	0.160	2.450	114.16	-1.30	2.60	 	 	 	 	 	 	 	 	 	 	 	 	 	 	 	 	 	 	1581468145	4.94	9.15
12/02/2020 00:42:26	120220	12022020	004226	114.43	13.887343	-56.921257	114.67	0.260	-0.250	1.710	114.49	-1.80	2.00	 	 	 	 	 	 	 	 	 	 	 	 	 	 	 	 	 	 	1581468146	5.63	10.43
12/02/2020 00:42:27	120220	12022020	004227	114.65	13.887332	-56.921230	114.85	0.560	-0.740	1.330	114.67	-2.20	1.80	 	 	 	 	 	 	 	 	 	 	 	 	 	 	 	 	 	 	1581468147	5.93	10.98
12/02/2020 00:42:28	120220	12022020	004228	114.54	13.887320	-56.921205	114.70	0.590	-0.970	1.480	114.48	-2.30	2.20	 	 	 	 	 	 	 	 	 	 	 	 	 	 	 	 	 	 	1581468148	5.85	10.83
12/02/2020 00:42:29	120220	12022020	004229	114.22	13.887307	-56.921182	114.39	0.300	-0.780	1.980	114.17	-1.80	2.70	 	 	 	 	 	 	 	 	 	 	 	 	 	 	 	 	 	 	1581468149	5.72	10.59
12/02/2020 00:42:30	120220	12022020	004230	114.09	13.887292	-56.921162	114.32	-0.260	-0.030	2.520	114.10	-1.00	3.20	 	 	 	 	 	 	 	 	 	 	 	 	 	 	 	 	 	 	1581468150	5.33	9.87
12/02/2020 00:42:31	120220	12022020	004231	114.18	13.887277	-56.921143	114.42	-0.780	0.740	2.920	114.21	-0.40	3.50	 	 	 	 	 	 	 	 	 	 	 	 	 	 	 	 	 	 	1581468151	5.07	9.39
12/02/2020 00:42:32	120220	12022020	004232	114.31	13.887262	-56.921123	114.55	-0.860	0.880	2.970	114.33	-0.60	3.40	 	 	 	 	 	 	 	 	 	 	 	 	 	 	 	 	 	 	1581468152	5.35	9.91
12/02/2020 00:42:33	120220	12022020	004233	114.41	13.887248	-56.921098	114.64	-0.390	0.330	2.640	114.44	-1.30	3.00	 	 	 	 	 	 	 	 	 	 	 	 	 	 	 	 	 	 	1581468153	5.91	10.95
12/02/2020 00:42:34	120220	12022020	004234	114.56	13.887237	-56.921072	114.80	0.230	-0.420	2.230	114.59	-2.00	2.60	 	 	 	 	 	 	 	 	 	 	 	 	 	 	 	 	 	 	1581468154	6.23	11.54
12/02/2020 00:42:35	120220	12022020	004235	114.76	13.887225	-56.921045	114.99	0.540	-0.920	1.920	114.80	-2.30	2.40	 	 	 	 	 	 	 	 	 	 	 	 	 	 	 	 	 	 	1581468155	6.08	11.26
12/02/2020 00:42:36	120220	12022020	004236	114.87	13.887213	-56.921020	115.08	0.410	-1.000	1.990	114.87	-2.30	2.40	 	 	 	 	 	 	 	 	 	 	 	 	 	 	 	 	 	 	1581468156	5.78	10.70
12/02/2020 00:42:37	120220	12022020	004237	114.85	13.887198	-56.921000	115.07	0.070	-0.500	2.290	114.85	-1.50	2.90	 	 	 	 	 	 	 	 	 	 	 	 	 	 	 	 	 	 	1581468157	5.39	9.98
12/02/2020 00:42:38	120220	12022020	004238	114.80	13.887183	-56.920982	115.03	-0.160	0.200	2.490	114.80	-1.30	3.00	 	 	 	 	 	 	 	 	 	 	 	 	 	 	 	 	 	 	1581468158	5.03	9.32
12/02/2020 00:42:39	120220	12022020	004239	114.70	13.887170	-56.920960	114.92	-0.120	0.380	2.490	114.67	-1.00	3.00	 	 	 	 	 	 	 	 	 	 	 	 	 	 	 	 	 	 	1581468159	5.32	9.85
12/02/2020 00:42:40	120220	12022020	004240	114.49	13.887157	-56.920935	114.71	0.070	0.060	2.370	114.44	-1.40	2.80	 	 	 	 	 	 	 	 	 	 	 	 	 	 	 	 	 	 	1581468160	5.93	10.98
12/02/2020 00:42:41	120220	12022020	004241	114.20	13.887145	-56.920910	114.40	0.170	-0.210	2.130	114.15	-1.60	2.50	 	 	 	 	 	 	 	 	 	 	 	 	 	 	 	 	 	 	1581468161	5.97	11.06
12/02/2020 00:42:42	120220	12022020	004242	114.05	13.887137	-56.920883	114.26	0.140	-0.360	1.720	114.05	-1.70	2.10	 	 	 	 	 	 	 	 	 	 	 	 	 	 	 	 	 	 	1581468162	5.80	10.74
12/02/2020 00:42:43	120220	12022020	004243	114.13	13.887125	-56.920858	114.35	0.010	-0.570	1.630	114.15	-2.00	2.30	 	 	 	 	 	 	 	 	 	 	 	 	 	 	 	 	 	 	1581468163	5.89	10.91
12/02/2020 00:42:44	120220	12022020	004244	114.26	13.887110	-56.920833	114.50	-0.180	-0.650	2.110	114.30	-1.80	2.90	 	 	 	 	 	 	 	 	 	 	 	 	 	 	 	 	 	 	1581468164	6.04	11.19
12/02/2020 00:42:45	120220	12022020	004245	114.44	13.887092	-56.920813	114.69	-0.410	-0.210	2.700	114.48	-1.20	3.40	 	 	 	 	 	 	 	 	 	 	 	 	 	 	 	 	 	 	1581468165	5.80	10.74
12/02/2020 00:42:46	120220	12022020	004246	114.66	13.887075	-56.920795	114.93	-0.510	0.480	3.000	114.69	-0.70	3.50	 	 	 	 	 	 	 	 	 	 	 	 	 	 	 	 	 	 	1581468166	5.32	9.85
12/02/2020 00:42:47	120220	12022020	004247	114.73	13.887058	-56.920775	114.95	-0.270	0.560	3.060	114.69	-1.00	3.50	 	 	 	 	 	 	 	 	 	 	 	 	 	 	 	 	 	 	1581468167	5.45	10.09
12/02/2020 00:42:48	120220	12022020	004248	114.52	13.887045	-56.920748	114.63	0.270	-0.140	2.950	114.45	-1.20	3.50	 	 	 	 	 	 	 	 	 	 	 	 	 	 	 	 	 	 	1581468168	6.21	11.50
12/02/2020 00:42:49	120220	12022020	004249	114.08	13.887033	-56.920720	114.26	0.700	-0.900	2.520	114.03	-2.30	2.80	 	 	 	 	 	 	 	 	 	 	 	 	 	 	 	 	 	 	1581468169	6.59	12.20
12/02/2020 00:42:50	120220	12022020	004250	113.94	13.887025	-56.920692	114.14	0.740	-0.980	1.900	113.94	-2.10	2.20	 	 	 	 	 	 	 	 	 	 	 	 	 	 	 	 	 	 	1581468170	6.18	11.45
12/02/2020 00:42:51	120220	12022020	004251	114.04	13.887018	-56.920667	114.26	0.370	-0.360	1.420	114.08	-1.40	1.80	 	 	 	 	 	 	 	 	 	 	 	 	 	 	 	 	 	 	1581468171	5.41	10.02
12/02/2020 00:42:52	120220	12022020	004252	114.28	13.887008	-56.920645	114.49	-0.220	0.310	1.350	114.32	-0.80	2.00	 	 	 	 	 	 	 	 	 	 	 	 	 	 	 	 	 	 	1581468172	5.13	9.50
12/02/2020 00:42:53	120220	12022020	004253	114.59	13.886993	-56.920623	114.86	-0.900	0.720	1.750	114.68	-0.50	2.50	 	 	 	 	 	 	 	 	 	 	 	 	 	 	 	 	 	 	1581468173	5.41	10.02
12/02/2020 00:42:54	120220	12022020	004254	114.97	13.886975	-56.920605	115.25	-1.350	0.800	2.430	115.03	-0.70	3.20	 	 	 	 	 	 	 	 	 	 	 	 	 	 	 	 	 	 	1581468174	5.64	10.45
12/02/2020 00:42:55	120220	12022020	004255	115.09	13.886953	-56.920585	115.33	-1.020	0.180	3.010	115.06	-1.70	3.70	 	 	 	 	 	 	 	 	 	 	 	 	 	 	 	 	 	 	1581468175	6.04	11.19
12/02/2020 00:42:56	120220	12022020	004256	114.76	13.886935	-56.920558	114.96	0.420	-1.460	3.350	114.64	-3.40	3.90	 	 	 	 	 	 	 	 	 	 	 	 	 	 	 	 	 	 	1581468176	7.06	13.08
12/02/2020 00:42:57	120220	12022020	004257	114.19	13.886918	-56.920527	114.40	1.940	-2.590	3.450	114.12	-3.70	3.90	 	 	 	 	 	 	 	 	 	 	 	 	 	 	 	 	 	 	1581468177	7.64	14.15
12/02/2020 00:42:58	120220	12022020	004258	114.14	13.886910	-56.920500	114.45	2.020	-1.480	3.220	114.23	-1.80	3.60	 	 	 	 	 	 	 	 	 	 	 	 	 	 	 	 	 	 	1581468178	5.87	10.87
12/02/2020 00:42:59	120220	12022020	004259	114.81	13.886903	-56.920485	115.19	0.500	1.100	2.870	115.01	0.80	3.20	 	 	 	 	 	 	 	 	 	 	 	 	 	 	 	 	 	 	1581468179	3.48	6.44
12/02/2020 00:43:00	120220	12022020	004300	115.79	13.886897	-56.920473	116.14	-1.390	3.190	2.540	115.79	1.50	3.10	 	 	 	 	 	 	 	 	 	 	 	 	 	 	 	 	 	 	1581468180	2.80	5.19
12/02/2020 00:43:01	120220	12022020	004301	116.53	13.886883	-56.920458	116.81	-2.330	3.150	2.470	116.63	1.00	3.00	 	 	 	 	 	 	 	 	 	 	 	 	 	 	 	 	 	 	1581468181	4.18	7.74
12/02/2020 00:43:02	120220	12022020	004302	116.81	13.886863	-56.920433	117.03	-1.760	0.580	2.560	116.81	0.00	3.00	1017.00	26.20	26.20	20.80	20.90	-1.0	72.0	72.0	393.0	25.8	316.00	14.90	62.00	13.00	33	10004.0	27.1	27.1	1581468182	6.71	12.43
12/02/2020 00:43:03	120220	12022020	004303	116.53	13.886840	-56.920402	116.70	-0.170	-2.800	2.830	116.43	-5.20	3.50	 	 	 	 	 	 	 	 	 	 	 	 	 	 	 	 	 	 	1581468183	8.36	15.48
12/02/2020 00:43:04	120220	12022020	004304	115.95	13.886820	-56.920372	116.13	1.360	-4.530	3.040	115.85	-5.60	3.60	 	 	 	 	 	 	 	 	 	 	 	 	 	 	 	 	 	 	1581468184	7.85	14.54
12/02/2020 00:43:05	120220	12022020	004305	115.57	13.886808	-56.920348	115.78	1.940	-3.220	2.850	115.53	-3.30	3.10	 	 	 	 	 	 	 	 	 	 	 	 	 	 	 	 	 	 	1581468185	5.43	10.06
12/02/2020 00:43:06	120220	12022020	004306	115.58	13.886805	-56.920333	115.83	1.390	-0.040	2.100	115.63	-0.10	2.20	 	 	 	 	 	 	 	 	 	 	 	 	 	 	 	 	 	 	1581468186	3.25	6.02
12/02/2020 00:43:07	120220	12022020	004307	115.95	13.886802	-56.920320	116.22	0.140	2.700	1.180	116.05	1.90	1.40	 	 	 	 	 	 	 	 	 	 	 	 	 	 	 	 	 	 	1581468187	2.93	5.43
12/02/2020 00:43:08	120220	12022020	004308	116.40	13.886795	-56.920302	116.62	-1.090	3.400	0.550	116.45	1.70	1.00	 	 	 	 	 	 	 	 	 	 	 	 	 	 	 	 	 	 	1581468188	4.13	7.65
12/02/2020 00:43:09	120220	12022020	004309	116.46	13.886778	-56.920278	116.62	-1.590	1.950	0.570	116.41	-0.30	1.30	 	 	 	 	 	 	 	 	 	 	 	 	 	 	 	 	 	 	1581468189	6.11	11.32
12/02/2020 00:43:10	120220	12022020	004310	116.12	13.886757	-56.920252	116.27	-1.230	-0.250	1.140	116.04	-2.30	1.90	 	 	 	 	 	 	 	 	 	 	 	 	 	 	 	 	 	 	1581468190	7.27	13.46
12/02/2020 00:43:11	120220	12022020	004311	115.85	13.886737	-56.920227	116.07	-0.460	-1.600	1.710	115.83	-3.10	2.40	 	 	 	 	 	 	 	 	 	 	 	 	 	 	 	 	 	 	1581468191	6.70	12.41
12/02/2020 00:43:12	120220	12022020	004312	115.86	13.886720	-56.920208	116.10	0.220	-1.780	2.080	115.87	-3.00	2.70	 	 	 	 	 	 	 	 	 	 	 	 	 	 	 	 	 	 	1581468192	5.37	9.95
12/02/2020 00:43:13	120220	12022020	004313	115.86	13.886707	-56.920188	116.07	0.770	-1.630	2.200	115.82	-3.00	2.70	 	 	 	 	 	 	 	 	 	 	 	 	 	 	 	 	 	 	1581468193	4.90	9.07
12/02/2020 00:43:14	120220	12022020	004314	115.55	13.886693	-56.920167	115.73	1.350	-1.680	2.220	115.55	-3.00	2.70	 	 	 	 	 	 	 	 	 	 	 	 	 	 	 	 	 	 	1581468194	5.65	10.46
12/02/2020 00:43:15	120220	12022020	004315	115.15	13.886680	-56.920142	115.36	1.590	-1.150	2.380	115.09	-1.90	3.00	 	 	 	 	 	 	 	 	 	 	 	 	 	 	 	 	 	 	1581468195	5.85	10.83
12/02/2020 00:43:16	120220	12022020	004316	114.95	13.886668	-56.920123	115.19	0.950	0.580	2.570	114.95	0.10	3.10	 	 	 	 	 	 	 	 	 	 	 	 	 	 	 	 	 	 	1581468196	4.57	8.46
12/02/2020 00:43:17	120220	12022020	004317	114.98	13.886660	-56.920110	115.23	-0.400	2.530	2.410	115.01	1.60	2.80	 	 	 	 	 	 	 	 	 	 	 	 	 	 	 	 	 	 	1581468197	3.38	6.26
12/02/2020 00:43:18	120220	12022020	004318	115.06	13.886652	-56.920093	115.27	-1.570	2.920	1.970	115.05	1.00	2.40	 	 	 	 	 	 	 	 	 	 	 	 	 	 	 	 	 	 	1581468198	3.87	7.17
12/02/2020 00:43:19	120220	12022020	004319	114.96	13.886637	-56.920068	115.17	-1.640	0.940	1.770	114.94	-1.60	2.30	 	 	 	 	 	 	 	 	 	 	 	 	 	 	 	 	 	 	1581468199	6.02	11.15
12/02/2020 00:43:20	120220	12022020	004320	114.87	13.886617	-56.920038	115.12	-0.620	-1.940	1.940	114.87	-4.20	2.60	 	 	 	 	 	 	 	 	 	 	 	 	 	 	 	 	 	 	1581468200	7.69	14.24
12/02/2020 00:43:21	120220	12022020	004321	114.81	13.886597	-56.920010	115.03	0.650	-3.520	2.230	114.79	-4.80	2.80	 	 	 	 	 	 	 	 	 	 	 	 	 	 	 	 	 	 	1581468201	7.33	13.58
12/02/2020 00:43:22	120220	12022020	004322	114.64	13.886582	-56.919990	114.83	1.240	-2.740	2.430	114.59	-3.20	3.00	 	 	 	 	 	 	 	 	 	 	 	 	 	 	 	 	 	 	1581468202	5.44	10.07
12/02/2020 00:43:23	120220	12022020	004323	114.36	13.886570	-56.919977	114.52	0.900	-0.420	2.620	114.30	-0.70	3.20	 	 	 	 	 	 	 	 	 	 	 	 	 	 	 	 	 	 	1581468203	3.65	6.76
12/02/2020 00:43:24	120220	12022020	004324	114.09	13.886562	-56.919965	114.28	0.080	1.830	2.700	114.06	1.00	3.10	 	 	 	 	 	 	 	 	 	 	 	 	 	 	 	 	 	 	1581468204	3.07	5.69
12/02/2020 00:43:25	120220	12022020	004325	114.05	13.886555	-56.919948	114.27	-0.510	2.590	2.230	114.08	1.00	2.40	 	 	 	 	 	 	 	 	 	 	 	 	 	 	 	 	 	 	1581468205	3.89	7.20
12/02/2020 00:43:26	120220	12022020	004326	114.29	13.886547	-56.919922	114.54	-0.510	1.490	1.450	114.29	0.50	2.10	 	 	 	 	 	 	 	 	 	 	 	 	 	 	 	 	 	 	1581468206	5.62	10.41
12/02/2020 00:43:27	120220	12022020	004327	114.57	13.886535	-56.919893	114.80	-0.140	-0.420	1.140	114.60	-2.40	1.80	 	 	 	 	 	 	 	 	 	 	 	 	 	 	 	 	 	 	1581468207	6.64	12.30
12/02/2020 00:43:28	120220	12022020	004328	114.63	13.886520	-56.919867	114.81	0.190	-1.760	1.510	114.63	-2.90	1.90	 	 	 	 	 	 	 	 	 	 	 	 	 	 	 	 	 	 	1581468208	6.42	11.89
12/02/2020 00:43:29	120220	12022020	004329	114.39	13.886503	-56.919847	114.55	0.280	-1.800	2.350	114.32	-2.80	3.20	 	 	 	 	 	 	 	 	 	 	 	 	 	 	 	 	 	 	1581468209	5.49	10.17
12/02/2020 00:43:30	120220	12022020	004330	114.01	13.886488	-56.919832	114.15	0.230	-0.920	3.200	113.93	-1.90	3.90	 	 	 	 	 	 	 	 	 	 	 	 	 	 	 	 	 	 	1581468210	4.68	8.67
12/02/2020 00:43:31	120220	12022020	004331	113.73	13.886473	-56.919815	113.93	0.200	-0.110	3.570	113.70	-1.30	4.00	 	 	 	 	 	 	 	 	 	 	 	 	 	 	 	 	 	 	1581468211	4.56	8.45
12/02/2020 00:43:32	120220	12022020	004332	113.75	13.886462	-56.919795	114.00	0.280	0.130	3.330	113.79	-1.20	3.60	 	 	 	 	 	 	 	 	 	 	 	 	 	 	 	 	 	 	1581468212	5.05	9.35
12/02/2020 00:43:33	120220	12022020	004333	114.02	13.886452	-56.919772	114.27	0.380	0.170	2.620	114.08	-1.10	2.80	 	 	 	 	 	 	 	 	 	 	 	 	 	 	 	 	 	 	1581468213	5.41	10.02
12/02/2020 00:43:34	120220	12022020	004334	114.36	13.886445	-56.919748	114.59	0.230	0.490	1.770	114.43	-0.70	2.00	 	 	 	 	 	 	 	 	 	 	 	 	 	 	 	 	 	 	1581468214	5.07	9.39
12/02/2020 00:43:35	120220	12022020	004335	114.68	13.886438	-56.919727	114.91	-0.220	0.830	1.200	114.73	-0.60	1.70	 	 	 	 	 	 	 	 	 	 	 	 	 	 	 	 	 	 	1581468215	4.55	8.43
12/02/2020 00:43:36	120220	12022020	004336	114.80	13.886428	-56.919707	115.00	-0.580	0.480	1.230	114.80	-1.30	1.80	 	 	 	 	 	 	 	 	 	 	 	 	 	 	 	 	 	 	1581468216	4.83	8.95
12/02/2020 00:43:37	120220	12022020	004337	114.76	13.886413	-56.919683	114.97	-0.400	-0.610	1.450	114.74	-2.40	2.10	 	 	 	 	 	 	 	 	 	 	 	 	 	 	 	 	 	 	1581468217	5.78	10.70
12/02/2020 00:43:38	120220	12022020	004338	114.58	13.886398	-56.919658	114.77	0.130	-1.480	1.820	114.52	-2.90	2.60	 	 	 	 	 	 	 	 	 	 	 	 	 	 	 	 	 	 	1581468218	6.13	11.35
12/02/2020 00:43:39	120220	12022020	004339	114.31	13.886383	-56.919637	114.52	0.460	-1.390	2.360	114.28	-2.50	3.10	 	 	 	 	 	 	 	 	 	 	 	 	 	 	 	 	 	 	1581468219	5.51	10.20
12/02/2020 00:43:40	120220	12022020	004340	114.21	13.886370	-56.919618	114.44	0.430	-0.730	2.700	114.21	-2.20	3.20	 	 	 	 	 	 	 	 	 	 	 	 	 	 	 	 	 	 	1581468220	4.90	9.07
12/02/2020 00:43:41	120220	12022020	004341	114.25	13.886357	-56.919598	114.49	0.350	-0.220	2.700	114.26	-1.40	3.10	 	 	 	 	 	 	 	 	 	 	 	 	 	 	 	 	 	 	1581468221	5.05	9.35
12/02/2020 00:43:42	120220	12022020	004342	114.34	13.886345	-56.919577	114.59	0.390	0.180	2.400	114.37	-0.90	2.70	 	 	 	 	 	 	 	 	 	 	 	 	 	 	 	 	 	 	1581468222	5.36	9.93
12/02/2020 00:43:43	120220	12022020	004343	114.58	13.886335	-56.919555	114.85	0.250	0.860	1.870	114.65	-0.20	2.20	 	 	 	 	 	 	 	 	 	 	 	 	 	 	 	 	 	 	1581468223	4.91	9.09
12/02/2020 00:43:44	120220	12022020	004344	114.98	13.886330	-56.919535	115.27	-0.300	1.470	1.400	115.07	0.20	1.80	 	 	 	 	 	 	 	 	 	 	 	 	 	 	 	 	 	 	1581468224	4.34	8.04
12/02/2020 00:43:45	120220	12022020	004345	115.36	13.886320	-56.919517	115.63	-0.960	1.300	1.200	115.40	-0.40	1.80	 	 	 	 	 	 	 	 	 	 	 	 	 	 	 	 	 	 	1581468225	4.47	8.28
12/02/2020 00:43:46	120220	12022020	004346	115.37	13.886305	-56.919495	115.57	-1.080	0.000	1.470	115.31	-2.10	2.20	 	 	 	 	 	 	 	 	 	 	 	 	 	 	 	 	 	 	1581468226	5.53	10.24
12/02/2020 00:43:47	120220	12022020	004347	114.97	13.886285	-56.919470	115.15	-0.410	-1.890	2.130	114.86	-3.80	2.90	 	 	 	 	 	 	 	 	 	 	 	 	 	 	 	 	 	 	1581468227	6.81	12.61
12/02/2020 00:43:48	120220	12022020	004348	114.43	13.886265	-56.919445	114.61	0.680	-2.990	2.790	114.33	-4.30	3.40	 	 	 	 	 	 	 	 	 	 	 	 	 	 	 	 	 	 	1581468228	6.89	12.76
12/02/2020 00:43:49	120220	12022020	004349	114.07	13.886250	-56.919423	114.27	1.410	-2.280	2.950	114.03	-2.90	3.30	 	 	 	 	 	 	 	 	 	 	 	 	 	 	 	 	 	 	1581468229	5.57	10.32
12/02/2020 00:43:50	120220	12022020	004350	114.04	13.886243	-56.919407	114.26	1.250	-0.220	2.450	114.04	-2.10	3.10	 	 	 	 	 	 	 	 	 	 	 	 	 	 	 	 	 	 	1581468230	3.91	7.24
12/02/2020 00:43:51	120220	12022020	004351	114.31	13.886240	-56.919390	114.57	0.350	1.700	1.570	114.40	0.80	1.80	 	 	 	 	 	 	 	 	 	 	 	 	 	 	 	 	 	 	1581468231	3.51	6.50
12/02/2020 00:43:52	120220	12022020	004352	114.80	13.886235	-56.919372	115.07	-0.800	2.410	0.990	114.91	0.90	1.40	 	 	 	 	 	 	 	 	 	 	 	 	 	 	 	 	 	 	1581468232	4.08	7.56
12/02/2020 00:43:53	120220	12022020	004353	115.22	13.886222	-56.919350	115.45	-1.420	1.580	1.020	115.26	-0.50	1.70	 	 	 	 	 	 	 	 	 	 	 	 	 	 	 	 	 	 	1581468233	5.22	9.67
12/02/2020 00:43:54	120220	12022020	004354	115.23	13.886203	-56.919325	115.42	-1.110	-0.330	1.600	115.18	-2.50	2.50	 	 	 	 	 	 	 	 	 	 	 	 	 	 	 	 	 	 	1581468234	6.61	12.24
12/02/2020 00:43:55	120220	12022020	004355	114.90	13.886182	-56.919300	115.10	-0.240	-1.960	2.540	114.84	-3.60	3.40	 	 	 	 	 	 	 	 	 	 	 	 	 	 	 	 	 	 	1581468235	7.08	13.11
12/02/2020 00:43:56	120220	12022020	004356	114.75	13.886162	-56.919278	114.99	0.550	-2.100	3.230	114.76	-3.00	3.80	 	 	 	 	 	 	 	 	 	 	 	 	 	 	 	 	 	 	1581468236	6.03	11.17
12/02/2020 00:43:57	120220	12022020	004357	114.96	13.886150	-56.919263	115.22	0.830	-0.880	3.230	115.02	-1.60	3.60	 	 	 	 	 	 	 	 	 	 	 	 	 	 	 	 	 	 	1581468237	4.27	7.91
12/02/2020 00:43:58	120220	12022020	004358	115.24	13.886142	-56.919247	115.49	0.590	0.380	2.730	115.28	-0.70	3.00	 	 	 	 	 	 	 	 	 	 	 	 	 	 	 	 	 	 	1581468238	3.70	6.85
12/02/2020 00:43:59	120220	12022020	004359	115.40	13.886135	-56.919228	115.63	0.160	0.760	2.120	115.42	-0.70	2.40	 	 	 	 	 	 	 	 	 	 	 	 	 	 	 	 	 	 	1581468239	4.44	8.22
12/02/2020 00:44:00	120220	12022020	004400	115.47	13.886125	-56.919205	115.69	-0.150	0.480	1.630	115.48	-1.00	2.10	 	 	 	 	 	 	 	 	 	 	 	 	 	 	 	 	 	 	1581468240	5.23	9.69
12/02/2020 00:44:01	120220	12022020	004401	115.39	13.886113	-56.919182	115.57	-0.200	0.010	1.540	115.35	-1.50	2.10	 	 	 	 	 	 	 	 	 	 	 	 	 	 	 	 	 	 	1581468241	5.47	10.13
12/02/2020 00:44:02	120220	12022020	004402	115.13	13.886100	-56.919158	115.32	-0.120	-0.420	1.790	115.13	-1.70	2.20	1017.30	26.20	26.20	21.20	21.20	-1.0	73.0	73.0	395.0	25.8	319.00	14.00	65.00	12.10	31	9699.0	27.1	27.1	1581468242	5.57	10.32
12/02/2020 00:44:03	120220	12022020	004403	115.15	13.886087	-56.919137	115.43	-0.250	-0.470	1.980	115.21	-1.70	2.60	 	 	 	 	 	 	 	 	 	 	 	 	 	 	 	 	 	 	1581468243	5.32	9.85
12/02/2020 00:44:04	120220	12022020	004404	115.57	13.886072	-56.919120	115.90	-0.570	-0.170	2.230	115.57	-1.60	2.70	 	 	 	 	 	 	 	 	 	 	 	 	 	 	 	 	 	 	1581468244	4.84	8.96
12/02/2020 00:44:05	120220	12022020	004405	116.01	13.886055	-56.919103	116.30	-0.630	-0.150	2.660	116.05	-1.70	3.40	 	 	 	 	 	 	 	 	 	 	 	 	 	 	 	 	 	 	1581468245	5.04	9.33
12/02/2020 00:44:06	120220	12022020	004406	116.01	13.886035	-56.919083	116.25	0.090	-0.950	3.100	115.96	-2.70	3.70	 	 	 	 	 	 	 	 	 	 	 	 	 	 	 	 	 	 	1581468246	6.03	11.17
12/02/2020 00:44:07	120220	12022020	004407	115.62	13.886017	-56.919057	115.86	1.130	-1.570	3.380	115.54	-2.70	3.90	 	 	 	 	 	 	 	 	 	 	 	 	 	 	 	 	 	 	1581468247	6.65	12.32
12/02/2020 00:44:08	120220	12022020	004408	115.32	13.886005	-56.919035	115.61	1.280	-0.600	3.260	115.31	-1.10	3.60	 	 	 	 	 	 	 	 	 	 	 	 	 	 	 	 	 	 	1581468248	5.31	9.83
12/02/2020 00:44:09	120220	12022020	004409	115.53	13.886000	-56.919020	115.89	0.170	1.530	2.620	115.64	1.00	2.80	 	 	 	 	 	 	 	 	 	 	 	 	 	 	 	 	 	 	1581468249	3.25	6.02
12/02/2020 00:44:10	120220	12022020	004410	116.27	13.885995	-56.919008	116.64	-1.300	3.000	1.750	116.46	1.70	2.00	 	 	 	 	 	 	 	 	 	 	 	 	 	 	 	 	 	 	1581468250	2.63	4.87
12/02/2020 00:44:11	120220	12022020	004411	117.16	13.885987	-56.918992	117.48	-1.880	2.310	1.140	117.30	-0.10	1.50	 	 	 	 	 	 	 	 	 	 	 	 	 	 	 	 	 	 	1581468251	4.00	7.41
12/02/2020 00:44:12	120220	12022020	004412	117.60	13.885968	-56.918967	117.82	-1.030	-0.630	1.010	117.59	-3.40	1.70	 	 	 	 	 	 	 	 	 	 	 	 	 	 	 	 	 	 	1581468252	6.54	12.11
12/02/2020 00:44:13	120220	12022020	004413	117.21	13.885945	-56.918938	117.34	0.530	-3.670	1.610	117.04	-5.70	2.50	 	 	 	 	 	 	 	 	 	 	 	 	 	 	 	 	 	 	1581468253	7.93	14.69
12/02/2020 00:44:14	120220	12022020	004414	116.32	13.885925	-56.918913	116.44	1.670	-4.340	2.530	116.15	-5.00	3.30	 	 	 	 	 	 	 	 	 	 	 	 	 	 	 	 	 	 	1581468254	6.81	12.61
12/02/2020 00:44:15	120220	12022020	004415	115.63	13.885913	-56.918898	115.80	1.700	-2.110	2.980	115.53	-2.10	3.50	 	 	 	 	 	 	 	 	 	 	 	 	 	 	 	 	 	 	1581468255	4.03	7.46
12/02/2020 00:44:16	120220	12022020	004416	115.40	13.885908	-56.918888	115.64	0.710	1.080	2.710	115.43	0.80	2.90	 	 	 	 	 	 	 	 	 	 	 	 	 	 	 	 	 	 	1581468256	2.40	4.44
12/02/2020 00:44:17	120220	12022020	004417	115.79	13.885902	-56.918877	116.08	-0.660	3.160	1.980	115.93	2.10	2.20	 	 	 	 	 	 	 	 	 	 	 	 	 	 	 	 	 	 	1581468257	2.74	5.07
12/02/2020 00:44:18	120220	12022020	004418	116.53	13.885892	-56.918860	116.79	-1.680	3.280	1.410	116.53	2.10	2.00	 	 	 	 	 	 	 	 	 	 	 	 	 	 	 	 	 	 	1581468258	4.14	7.67
12/02/2020 00:44:19	120220	12022020	004419	117.13	13.885873	-56.918840	117.35	-1.710	1.630	1.290	117.19	-0.70	1.90	 	 	 	 	 	 	 	 	 	 	 	 	 	 	 	 	 	 	1581468259	5.74	10.63
12/02/2020 00:44:20	120220	12022020	004420	117.22	13.885852	-56.918817	117.39	-0.770	-0.880	1.650	117.18	-3.20	2.40	 	 	 	 	 	 	 	 	 	 	 	 	 	 	 	 	 	 	1581468260	6.86	12.70
12/02/2020 00:44:21	120220	12022020	004421	116.80	13.885830	-56.918792	116.95	0.440	-2.700	2.290	116.68	-4.20	3.10	 	 	 	 	 	 	 	 	 	 	 	 	 	 	 	 	 	 	1581468261	6.80	12.59
12/02/2020 00:44:22	120220	12022020	004422	116.23	13.885815	-56.918773	116.41	1.070	-2.620	2.910	116.13	-3.40	3.60	 	 	 	 	 	 	 	 	 	 	 	 	 	 	 	 	 	 	1581468262	5.22	9.67
12/02/2020 00:44:23	120220	12022020	004423	115.86	13.885805	-56.918760	116.07	0.920	-1.140	3.070	115.81	-1.80	3.50	 	 	 	 	 	 	 	 	 	 	 	 	 	 	 	 	 	 	1581468263	3.54	6.56
12/02/2020 00:44:24	120220	12022020	004424	115.69	13.885798	-56.918745	115.90	0.420	0.210	2.650	115.66	-0.90	3.00	 	 	 	 	 	 	 	 	 	 	 	 	 	 	 	 	 	 	1581468264	3.40	6.30
12/02/2020 00:44:25	120220	12022020	004425	115.49	13.885788	-56.918725	115.69	0.120	0.490	2.220	115.45	-1.00	2.70	 	 	 	 	 	 	 	 	 	 	 	 	 	 	 	 	 	 	1581468265	4.61	8.54
12/02/2020 00:44:26	120220	12022020	004426	115.27	13.885775	-56.918702	115.50	0.060	0.180	2.160	115.26	-1.20	2.70	 	 	 	 	 	 	 	 	 	 	 	 	 	 	 	 	 	 	1581468266	5.71	10.57
12/02/2020 00:44:27	120220	12022020	004427	115.34	13.885758	-56.918682	115.62	-0.100	0.320	2.190	115.40	-0.70	2.60	 	 	 	 	 	 	 	 	 	 	 	 	 	 	 	 	 	 	1581468267	5.48	10.15
12/02/2020 00:44:28	120220	12022020	004428	115.79	13.885747	-56.918667	116.12	-0.500	1.150	2.020	115.91	0.10	2.40	 	 	 	 	 	 	 	 	 	 	 	 	 	 	 	 	 	 	1581468268	4.22	7.82
12/02/2020 00:44:29	120220	12022020	004429	116.41	13.885735	-56.918653	116.72	-0.840	1.650	1.750	116.52	0.10	2.20	 	 	 	 	 	 	 	 	 	 	 	 	 	 	 	 	 	 	1581468269	3.57	6.61
12/02/2020 00:44:30	120220	12022020	004430	116.79	13.885722	-56.918637	117.02	-0.650	0.760	1.680	116.80	-1.40	2.30	 	 	 	 	 	 	 	 	 	 	 	 	 	 	 	 	 	 	1581468270	4.44	8.22
12/02/2020 00:44:31	120220	12022020	004431	116.53	13.885705	-56.918613	116.70	0.200	-1.410	2.090	116.41	-3.60	2.90	 	 	 	 	 	 	 	 	 	 	 	 	 	 	 	 	 	 	1581468271	6.14	11.37
12/02/2020 00:44:32	120220	12022020	004432	115.71	13.885687	-56.918588	115.85	1.150	-3.100	2.890	115.54	-4.50	3.70	 	 	 	 	 	 	 	 	 	 	 	 	 	 	 	 	 	 	1581468272	6.80	12.59
12/02/2020 00:44:33	120220	12022020	004433	114.97	13.885672	-56.918567	115.18	1.300	-2.610	3.490	114.89	-3.10	4.10	 	 	 	 	 	 	 	 	 	 	 	 	 	 	 	 	 	 	1581468273	5.30	9.82
12/02/2020 00:44:34	120220	12022020	004434	114.90	13.885663	-56.918555	115.21	0.480	-0.310	3.600	114.98	-0.70	4.00	 	 	 	 	 	 	 	 	 	 	 	 	 	 	 	 	 	 	1581468274	3.21	5.94
12/02/2020 00:44:35	120220	12022020	004435	115.51	13.885655	-56.918547	115.87	-0.600	1.800	3.260	115.66	0.80	3.50	 	 	 	 	 	 	 	 	 	 	 	 	 	 	 	 	 	 	1581468275	2.67	4.94
12/02/2020 00:44:36	120220	12022020	004436	116.21	13.885642	-56.918532	116.51	-1.030	2.090	2.720	116.32	0.30	3.00	 	 	 	 	 	 	 	 	 	 	 	 	 	 	 	 	 	 	1581468276	4.05	7.50
12/02/2020 00:44:37	120220	12022020	004437	116.53	13.885627	-56.918508	116.76	-0.640	0.750	2.170	116.53	-1.30	2.60	 	 	 	 	 	 	 	 	 	 	 	 	 	 	 	 	 	 	1581468277	5.87	10.87
12/02/2020 00:44:38	120220	12022020	004438	116.34	13.885612	-56.918482	116.54	0.060	-0.750	2.090	116.26	-2.40	2.70	 	 	 	 	 	 	 	 	 	 	 	 	 	 	 	 	 	 	1581468278	6.40	11.85
12/02/2020 00:44:39	120220	12022020	004439	115.90	13.885597	-56.918460	116.11	0.550	-1.280	2.380	115.82	-2.50	3.00	 	 	 	 	 	 	 	 	 	 	 	 	 	 	 	 	 	 	1581468279	5.66	10.48
12/02/2020 00:44:40	120220	12022020	004440	115.64	13.885585	-56.918442	115.89	0.570	-0.750	2.430	115.63	-1.70	2.90	 	 	 	 	 	 	 	 	 	 	 	 	 	 	 	 	 	 	1581468280	4.52	8.37
12/02/2020 00:44:41	120220	12022020	004441	115.70	13.885575	-56.918427	116.01	0.160	0.110	2.180	115.75	-1.00	2.60	 	 	 	 	 	 	 	 	 	 	 	 	 	 	 	 	 	 	1581468281	3.82	7.07
12/02/2020 00:44:42	120220	12022020	004442	115.92	13.885563	-56.918410	116.22	-0.280	0.410	2.030	115.92	-0.90	2.60	 	 	 	 	 	 	 	 	 	 	 	 	 	 	 	 	 	 	1581468282	4.16	7.70
12/02/2020 00:44:43	120220	12022020	004443	116.01	13.885550	-56.918392	116.27	-0.350	0.110	2.060	115.99	-1.40	2.60	 	 	 	 	 	 	 	 	 	 	 	 	 	 	 	 	 	 	1581468283	4.95	9.17
12/02/2020 00:44:44	120220	12022020	004444	115.84	13.885535	-56.918372	116.07	0.020	-0.300	2.170	115.78	-1.80	2.80	 	 	 	 	 	 	 	 	 	 	 	 	 	 	 	 	 	 	1581468284	5.23	9.69
12/02/2020 00:44:45	120220	12022020	004445	115.56	13.885522	-56.918352	115.81	0.430	-0.620	2.400	115.52	-2.10	3.10	 	 	 	 	 	 	 	 	 	 	 	 	 	 	 	 	 	 	1581468285	5.22	9.67
12/02/2020 00:44:46	120220	12022020	004446	115.40	13.885508	-56.918332	115.66	0.490	-0.800	2.750	115.37	-2.10	3.40	 	 	 	 	 	 	 	 	 	 	 	 	 	 	 	 	 	 	1581468286	5.22	9.67
12/02/2020 00:44:47	120220	12022020	004447	115.24	13.885493	-56.918312	115.50	0.180	-0.690	3.060	115.20	-1.90	3.60	 	 	 	 	 	 	 	 	 	 	 	 	 	 	 	 	 	 	1581468287	5.14	9.52
12/02/2020 00:44:48	120220	12022020	004448	115.04	13.885478	-56.918293	115.31	-0.120	-0.220	3.140	115.02	-1.30	3.60	 	 	 	 	 	 	 	 	 	 	 	 	 	 	 	 	 	 	1581468288	4.81	8.91
12/02/2020 00:44:49	120220	12022020	004449	114.96	13.885467	-56.918277	115.23	-0.130	0.340	2.960	114.96	-0.80	3.40	 	 	 	 	 	 	 	 	 	 	 	 	 	 	 	 	 	 	1581468289	4.54	8.41
12/02/2020 00:44:50	120220	12022020	004450	114.94	13.885455	-56.918258	115.21	-0.060	0.690	2.860	114.95	-0.60	3.30	 	 	 	 	 	 	 	 	 	 	 	 	 	 	 	 	 	 	1581468290	4.62	8.56
12/02/2020 00:44:51	120220	12022020	004451	115.02	13.885443	-56.918238	115.29	-0.160	0.690	2.590	115.05	-0.80	2.90	 	 	 	 	 	 	 	 	 	 	 	 	 	 	 	 	 	 	1581468291	4.72	8.74
12/02/2020 00:44:52	120220	12022020	004452	115.20	13.885433	-56.918218	115.46	-0.290	0.220	2.070	115.23	-1.40	2.40	 	 	 	 	 	 	 	 	 	 	 	 	 	 	 	 	 	 	1581468292	4.91	9.09
12/02/2020 00:44:53	120220	12022020	004453	115.20	13.885420	-56.918195	115.41	-0.060	-0.700	1.820	115.15	-2.50	2.40	 	 	 	 	 	 	 	 	 	 	 	 	 	 	 	 	 	 	1581468293	5.41	10.02
12/02/2020 00:44:54	120220	12022020	004454	114.91	13.885407	-56.918172	115.11	0.540	-1.650	2.040	114.91	-2.80	2.50	 	 	 	 	 	 	 	 	 	 	 	 	 	 	 	 	 	 	1581468294	5.96	11.04
12/02/2020 00:44:55	120220	12022020	004455	114.62	13.885392	-56.918148	114.85	0.880	-1.660	2.440	114.59	-2.60	3.00	 	 	 	 	 	 	 	 	 	 	 	 	 	 	 	 	 	 	1581468295	5.62	10.41
12/02/2020 00:44:56	120220	12022020	004456	114.64	13.885382	-56.918132	114.92	0.410	-0.380	2.490	114.70	-0.90	2.90	 	 	 	 	 	 	 	 	 	 	 	 	 	 	 	 	 	 	1581468296	4.33	8.02
12/02/2020 00:44:57	120220	12022020	004457	115.10	13.885373	-56.918120	115.42	-0.680	1.420	2.280	115.22	0.60	2.80	 	 	 	 	 	 	 	 	 	 	 	 	 	 	 	 	 	 	1581468297	3.14	5.82
12/02/2020 00:44:58	120220	12022020	004458	115.63	13.885362	-56.918108	115.91	-1.540	2.210	2.330	115.70	0.60	3.00	 	 	 	 	 	 	 	 	 	 	 	 	 	 	 	 	 	 	1581468298	3.46	6.41
12/02/2020 00:44:59	120220	12022020	004459	115.85	13.885345	-56.918090	116.09	-1.350	1.010	2.590	115.86	-1.30	3.20	 	 	 	 	 	 	 	 	 	 	 	 	 	 	 	 	 	 	1581468299	5.24	9.70
12/02/2020 00:45:00	120220	12022020	004500	115.77	13.885325	-56.918063	115.99	-0.190	-1.340	2.830	115.72	-3.50	3.50	 	 	 	 	 	 	 	 	 	 	 	 	 	 	 	 	 	 	1581468300	6.90	12.78
12/02/2020 00:45:01	120220	12022020	004501	115.44	13.885307	-56.918037	115.66	1.030	-2.840	3.230	115.37	-4.20	3.90	 	 	 	 	 	 	 	 	 	 	 	 	 	 	 	 	 	 	1581468301	6.96	12.89
12/02/2020 00:45:02	120220	12022020	004502	115.18	13.885293	-56.918015	115.42	1.460	-2.200	3.410	115.16	-2.70	3.80	1017.40	26.10	26.20	20.90	21.00	-1.0	73.0	73.0	398.0	25.8	317.00	15.10	66.00	13.40	24	9043.0	27.1	27.1	1581468302	5.24	9.70
12/02/2020 00:45:03	120220	12022020	004503	115.26	13.885287	-56.918002	115.55	1.020	-0.070	3.000	115.32	-0.50	3.20	 	 	 	 	 	 	 	 	 	 	 	 	 	 	 	 	 	 	1581468303	3.30	6.11
12/02/2020 00:45:04	120220	12022020	004504	115.63	13.885283	-56.917988	115.93	0.150	1.800	2.150	115.73	0.80	2.30	 	 	 	 	 	 	 	 	 	 	 	 	 	 	 	 	 	 	1581468304	2.90	5.37
12/02/2020 00:45:05	120220	12022020	004505	116.05	13.885278	-56.917970	116.29	-0.620	2.190	1.360	116.10	0.50	1.70	 	 	 	 	 	 	 	 	 	 	 	 	 	 	 	 	 	 	1581468305	3.83	7.09
12/02/2020 00:45:06	120220	12022020	004506	116.21	13.885265	-56.917948	116.42	-0.860	0.980	1.170	116.21	0.00	1.70	 	 	 	 	 	 	 	 	 	 	 	 	 	 	 	 	 	 	1581468306	5.34	9.89
12/02/2020 00:45:07	120220	12022020	004507	116.22	13.885250	-56.917923	116.44	-0.610	-0.680	1.330	116.22	-2.50	2.00	 	 	 	 	 	 	 	 	 	 	 	 	 	 	 	 	 	 	1581468307	6.24	11.56
12/02/2020 00:45:08	120220	12022020	004508	116.16	13.885232	-56.917903	116.37	-0.310	-1.560	1.790	116.16	-2.80	2.20	 	 	 	 	 	 	 	 	 	 	 	 	 	 	 	 	 	 	1581468308	5.79	10.72
12/02/2020 00:45:09	120220	12022020	004509	115.87	13.885215	-56.917887	116.08	-0.170	-1.550	2.540	115.79	-2.70	3.40	 	 	 	 	 	 	 	 	 	 	 	 	 	 	 	 	 	 	1581468309	5.11	9.46
12/02/2020 00:45:10	120220	12022020	004510	115.42	13.885197	-56.917872	115.64	0.030	-1.150	3.170	115.34	-2.30	3.80	 	 	 	 	 	 	 	 	 	 	 	 	 	 	 	 	 	 	1581468310	4.90	9.07
12/02/2020 00:45:11	120220	12022020	004511	115.11	13.885185	-56.917853	115.37	0.390	-0.560	3.160	115.08	-1.60	3.50	 	 	 	 	 	 	 	 	 	 	 	 	 	 	 	 	 	 	1581468311	4.75	8.80
12/02/2020 00:45:12	120220	12022020	004512	115.11	13.885175	-56.917833	115.41	0.500	0.250	2.650	115.15	-0.80	2.90	 	 	 	 	 	 	 	 	 	 	 	 	 	 	 	 	 	 	1581468312	4.44	8.22
12/02/2020 00:45:13	120220	12022020	004513	115.36	13.885168	-56.917815	115.65	0.180	0.850	2.010	115.41	-0.40	2.40	 	 	 	 	 	 	 	 	 	 	 	 	 	 	 	 	 	 	1581468313	4.30	7.96
12/02/2020 00:45:14	120220	12022020	004514	115.52	13.885157	-56.917795	115.76	-0.240	0.710	1.820	115.52	-0.90	2.40	 	 	 	 	 	 	 	 	 	 	 	 	 	 	 	 	 	 	1581468314	4.82	8.93
12/02/2020 00:45:15	120220	12022020	004515	115.56	13.885143	-56.917773	115.81	-0.420	0.100	1.890	115.57	-1.40	2.50	 	 	 	 	 	 	 	 	 	 	 	 	 	 	 	 	 	 	1581468315	5.51	10.20
12/02/2020 00:45:16	120220	12022020	004516	115.59	13.885127	-56.917753	115.84	-0.370	-0.290	2.190	115.59	-1.60	2.90	 	 	 	 	 	 	 	 	 	 	 	 	 	 	 	 	 	 	1581468316	5.45	10.09
12/02/2020 00:45:17	120220	12022020	004517	115.55	13.885112	-56.917737	115.81	-0.190	-0.250	2.510	115.55	-1.50	3.10	 	 	 	 	 	 	 	 	 	 	 	 	 	 	 	 	 	 	1581468317	4.88	9.04
12/02/2020 00:45:18	120220	12022020	004518	115.55	13.885098	-56.917718	115.83	0.090	-0.130	2.490	115.56	-1.50	3.00	 	 	 	 	 	 	 	 	 	 	 	 	 	 	 	 	 	 	1581468318	4.48	8.30
12/02/2020 00:45:19	120220	12022020	004519	115.61	13.885088	-56.917698	115.84	0.380	-0.410	2.320	115.59	-2.00	2.90	 	 	 	 	 	 	 	 	 	 	 	 	 	 	 	 	 	 	1581468319	4.82	8.93
12/02/2020 00:45:20	120220	12022020	004520	115.37	13.885075	-56.917675	115.57	0.500	-0.980	2.490	115.30	-2.50	3.10	 	 	 	 	 	 	 	 	 	 	 	 	 	 	 	 	 	 	1581468320	5.50	10.19
12/02/2020 00:45:21	120220	12022020	004521	115.01	13.885062	-56.917653	115.23	0.300	-1.140	2.830	114.96	-2.20	3.50	 	 	 	 	 	 	 	 	 	 	 	 	 	 	 	 	 	 	1581468321	5.53	10.24
12/02/2020 00:45:22	120220	12022020	004522	114.94	13.885047	-56.917637	115.22	-0.150	-0.310	3.080	114.98	-1.10	3.60	 	 	 	 	 	 	 	 	 	 	 	 	 	 	 	 	 	 	1581468322	4.70	8.70
12/02/2020 00:45:23	120220	12022020	004523	115.29	13.885035	-56.917623	115.60	-0.500	0.950	3.050	115.40	-0.10	3.50	 	 	 	 	 	 	 	 	 	 	 	 	 	 	 	 	 	 	1581468323	3.79	7.02
12/02/2020 00:45:24	120220	12022020	004524	115.80	13.885023	-56.917608	116.08	-0.450	1.170	2.790	115.87	-0.60	3.20	 	 	 	 	 	 	 	 	 	 	 	 	 	 	 	 	 	 	1581468324	4.18	7.74
12/02/2020 00:45:25	120220	12022020	004525	115.90	13.885008	-56.917583	116.09	0.030	-0.190	2.630	115.85	-2.20	3.20	 	 	 	 	 	 	 	 	 	 	 	 	 	 	 	 	 	 	1581468325	5.87	10.87
12/02/2020 00:45:26	120220	12022020	004526	115.52	13.884992	-56.917557	115.71	0.470	-1.640	2.850	115.43	-3.10	3.50	 	 	 	 	 	 	 	 	 	 	 	 	 	 	 	 	 	 	1581468326	6.83	12.65
12/02/2020 00:45:27	120220	12022020	004527	115.17	13.884977	-56.917535	115.40	0.360	-1.300	3.260	115.14	-1.90	3.80	 	 	 	 	 	 	 	 	 	 	 	 	 	 	 	 	 	 	1581468327	5.51	10.20
12/02/2020 00:45:28	120220	12022020	004528	115.21	13.884965	-56.917525	115.50	-0.310	0.530	3.220	115.26	-0.10	3.50	 	 	 	 	 	 	 	 	 	 	 	 	 	 	 	 	 	 	1581468328	3.36	6.22
12/02/2020 00:45:29	120220	12022020	004529	115.54	13.884958	-56.917513	115.81	-0.830	1.630	2.510	115.60	0.10	2.60	 	 	 	 	 	 	 	 	 	 	 	 	 	 	 	 	 	 	1581468329	3.01	5.57
12/02/2020 00:45:30	120220	12022020	004530	115.76	13.884948	-56.917492	115.98	-0.490	0.640	1.590	115.76	-0.30	2.30	 	 	 	 	 	 	 	 	 	 	 	 	 	 	 	 	 	 	1581468330	5.01	9.28
12/02/2020 00:45:31	120220	12022020	004531	115.70	13.884933	-56.917462	115.89	0.430	-1.180	1.250	115.67	-2.90	1.80	 	 	 	 	 	 	 	 	 	 	 	 	 	 	 	 	 	 	1581468331	6.71	12.43
12/02/2020 00:45:32	120220	12022020	004532	115.61	13.884920	-56.917437	115.83	0.960	-1.730	1.410	115.61	-3.10	1.90	 	 	 	 	 	 	 	 	 	 	 	 	 	 	 	 	 	 	1581468332	6.09	11.28
12/02/2020 00:45:33	120220	12022020	004533	115.69	13.884910	-56.917420	115.92	0.530	-0.570	1.600	115.71	-1.20	2.20	 	 	 	 	 	 	 	 	 	 	 	 	 	 	 	 	 	 	1581468333	4.10	7.59
12/02/2020 00:45:34	120220	12022020	004534	115.81	13.884900	-56.917410	116.03	-0.410	0.860	1.810	115.82	-0.20	2.50	 	 	 	 	 	 	 	 	 	 	 	 	 	 	 	 	 	 	1581468334	3.17	5.87
12/02/2020 00:45:35	120220	12022020	004535	115.81	13.884885	-56.917395	116.02	-0.910	0.930	2.230	115.79	-0.80	3.00	 	 	 	 	 	 	 	 	 	 	 	 	 	 	 	 	 	 	1581468335	4.38	8.11
12/02/2020 00:45:36	120220	12022020	004536	115.56	13.884865	-56.917375	115.76	-0.490	-0.350	2.800	115.47	-2.20	3.60	 	 	 	 	 	 	 	 	 	 	 	 	 	 	 	 	 	 	1581468336	6.17	11.43
12/02/2020 00:45:37	120220	12022020	004537	115.07	13.884845	-56.917350	115.26	0.380	-1.440	3.310	114.97	-2.80	3.90	 	 	 	 	 	 	 	 	 	 	 	 	 	 	 	 	 	 	1581468337	6.61	12.24
12/02/2020 00:45:38	120220	12022020	004538	114.71	13.884833	-56.917328	114.94	0.780	-1.110	3.250	114.69	-1.90	3.60	 	 	 	 	 	 	 	 	 	 	 	 	 	 	 	 	 	 	1581468338	5.27	9.76
12/02/2020 00:45:39	120220	12022020	004539	114.78	13.884827	-56.917312	115.05	0.310	0.220	2.720	114.83	-0.60	3.10	 	 	 	 	 	 	 	 	 	 	 	 	 	 	 	 	 	 	1581468339	3.76	6.96
12/02/2020 00:45:40	120220	12022020	004540	114.97	13.884818	-56.917297	115.22	-0.450	1.030	2.580	114.99	-0.30	3.20	 	 	 	 	 	 	 	 	 	 	 	 	 	 	 	 	 	 	1581468340	3.70	6.85
12/02/2020 00:45:41	120220	12022020	004541	115.00	13.884803	-56.917277	115.26	-0.740	0.710	2.770	115.02	-0.80	3.20	 	 	 	 	 	 	 	 	 	 	 	 	 	 	 	 	 	 	1581468341	5.02	9.30
12/02/2020 00:45:42	120220	12022020	004542	115.20	13.884788	-56.917257	115.50	-0.570	0.160	2.620	115.27	-1.30	3.00	 	 	 	 	 	 	 	 	 	 	 	 	 	 	 	 	 	 	1581468342	5.48	10.15
12/02/2020 00:45:43	120220	12022020	004543	115.49	13.884773	-56.917238	115.76	-0.250	-0.140	2.450	115.52	-1.60	3.00	 	 	 	 	 	 	 	 	 	 	 	 	 	 	 	 	 	 	1581468343	5.00	9.26
12/02/2020 00:45:44	120220	12022020	004544	115.43	13.884760	-56.917220	115.62	0.160	-0.630	2.600	115.35	-2.30	3.20	 	 	 	 	 	 	 	 	 	 	 	 	 	 	 	 	 	 	1581468344	4.98	9.22
12/02/2020 00:45:45	120220	12022020	004545	114.80	13.884745	-56.917197	114.94	0.770	-1.500	2.850	114.64	-3.00	3.40	 	 	 	 	 	 	 	 	 	 	 	 	 	 	 	 	 	 	1581468345	5.68	10.52
12/02/2020 00:45:46	120220	12022020	004546	114.22	13.884733	-56.917173	114.44	1.120	-1.640	2.740	114.20	-2.50	3.20	 	 	 	 	 	 	 	 	 	 	 	 	 	 	 	 	 	 	1581468346	5.76	10.67
12/02/2020 00:45:47	120220	12022020	004547	114.40	13.884725	-56.917155	114.71	0.590	-0.220	2.620	114.51	-0.70	3.10	 	 	 	 	 	 	 	 	 	 	 	 	 	 	 	 	 	 	1581468347	4.18	7.74
12/02/2020 00:45:48	120220	12022020	004548	115.14	13.884715	-56.917145	115.49	-0.570	1.600	2.490	115.31	0.70	2.90	 	 	 	 	 	 	 	 	 	 	 	 	 	 	 	 	 	 	1581468348	2.96	5.48
12/02/2020 00:45:49	120220	12022020	004549	115.80	13.884703	-56.917132	116.07	-1.340	2.020	2.380	115.87	0.20	2.90	 	 	 	 	 	 	 	 	 	 	 	 	 	 	 	 	 	 	1581468349	3.66	6.78
12/02/2020 00:45:50	120220	12022020	004550	115.93	13.884687	-56.917110	116.14	-0.940	0.430	2.410	115.91	-1.80	3.00	 	 	 	 	 	 	 	 	 	 	 	 	 	 	 	 	 	 	1581468350	5.71	10.57
12/02/2020 00:45:51	120220	12022020	004551	115.71	13.884668	-56.917083	115.92	0.220	-1.690	2.640	115.65	-3.60	3.30	 	 	 	 	 	 	 	 	 	 	 	 	 	 	 	 	 	 	1581468351	7.00	12.96
12/02/2020 00:45:52	120220	12022020	004552	115.42	13.884650	-56.917058	115.65	1.130	-2.590	3.040	115.37	-3.70	3.60	 	 	 	 	 	 	 	 	 	 	 	 	 	 	 	 	 	 	1581468352	6.44	11.93
12/02/2020 00:45:53	120220	12022020	004553	115.31	13.884638	-56.917040	115.57	1.170	-1.650	3.060	115.32	-2.20	3.40	 	 	 	 	 	 	 	 	 	 	 	 	 	 	 	 	 	 	1581468353	4.77	8.83
12/02/2020 00:45:54	120220	12022020	004554	115.54	13.884632	-56.917025	115.83	0.460	0.350	2.500	115.63	-0.20	2.70	 	 	 	 	 	 	 	 	 	 	 	 	 	 	 	 	 	 	1581468354	3.37	6.24
12/02/2020 00:45:55	120220	12022020	004555	116.08	13.884625	-56.917012	116.37	-0.560	2.080	1.750	116.20	1.10	2.00	 	 	 	 	 	 	 	 	 	 	 	 	 	 	 	 	 	 	1581468355	2.99	5.54
12/02/2020 00:45:56	120220	12022020	004556	116.63	13.884615	-56.916998	116.87	-1.320	2.450	1.350	116.63	1.20	1.90	 	 	 	 	 	 	 	 	 	 	 	 	 	 	 	 	 	 	1581468356	3.75	6.95
12/02/2020 00:45:57	120220	12022020	004557	116.80	13.884600	-56.916978	116.98	-1.290	1.130	1.530	116.77	-1.10	2.20	 	 	 	 	 	 	 	 	 	 	 	 	 	 	 	 	 	 	1581468357	5.27	9.76
12/02/2020 00:45:58	120220	12022020	004558	116.49	13.884580	-56.916955	116.64	-0.450	-1.090	2.050	116.49	-1.90	2.40	 	 	 	 	 	 	 	 	 	 	 	 	 	 	 	 	 	 	1581468358	6.54	12.11
12/02/2020 00:45:59	120220	12022020	004559	115.89	13.884562	-56.916930	116.05	0.580	-2.800	2.640	115.77	-4.40	3.40	 	 	 	 	 	 	 	 	 	 	 	 	 	 	 	 	 	 	1581468359	6.68	12.37
12/02/2020 00:46:00	120220	12022020	004600	115.33	13.884545	-56.916908	115.50	1.150	-2.930	3.080	115.25	-3.80	3.70	 	 	 	 	 	 	 	 	 	 	 	 	 	 	 	 	 	 	1581468360	5.74	10.63
12/02/2020 00:46:01	120220	12022020	004601	115.03	13.884533	-56.916892	115.25	1.010	-1.390	3.240	115.02	-1.80	3.70	 	 	 	 	 	 	 	 	 	 	 	 	 	 	 	 	 	 	1581468361	4.32	8.00
12/02/2020 00:46:02	120220	12022020	004602	115.12	13.884523	-56.916878	115.39	0.350	0.770	2.920	115.18	0.20	3.20	1017.30	26.10	26.20	20.80	20.90	-1.0	72.0	72.0	399.0	25.8	316.00	14.90	63.00	13.20	16	9057.0	27.1	27.1	1581468362	3.31	6.13
12/02/2020 00:46:03	120220	12022020	004603	115.43	13.884515	-56.916865	115.68	-0.350	2.150	2.310	115.49	0.90	2.60	 	 	 	 	 	 	 	 	 	 	 	 	 	 	 	 	 	 	1581468363	3.51	6.50
12/02/2020 00:46:04	120220	12022020	004604	115.70	13.884505	-56.916845	115.92	-0.680	2.020	1.730	115.74	0.30	2.10	 	 	 	 	 	 	 	 	 	 	 	 	 	 	 	 	 	 	1581468364	4.68	8.67
12/02/2020 00:46:05	120220	12022020	004605	115.82	13.884492	-56.916822	116.02	-0.590	0.930	1.490	115.84	-0.90	2.00	 	 	 	 	 	 	 	 	 	 	 	 	 	 	 	 	 	 	1581468365	5.62	10.41
12/02/2020 00:46:06	120220	12022020	004606	115.81	13.884478	-56.916798	116.00	-0.260	-0.360	1.590	115.80	-2.10	2.20	 	 	 	 	 	 	 	 	 	 	 	 	 	 	 	 	 	 	1581468366	5.78	10.70
12/02/2020 00:46:07	120220	12022020	004607	115.65	13.884463	-56.916777	115.83	0.120	-1.430	1.960	115.59	-3.00	2.70	 	 	 	 	 	 	 	 	 	 	 	 	 	 	 	 	 	 	1581468367	5.63	10.43
12/02/2020 00:46:08	120220	12022020	004608	115.26	13.884447	-56.916755	115.43	0.460	-1.980	2.540	115.15	-3.30	3.30	 	 	 	 	 	 	 	 	 	 	 	 	 	 	 	 	 	 	1581468368	5.55	10.28
12/02/2020 00:46:09	120220	12022020	004609	114.67	13.884432	-56.916737	114.84	0.610	-1.670	3.220	114.55	-2.60	3.90	 	 	 	 	 	 	 	 	 	 	 	 	 	 	 	 	 	 	1581468369	5.21	9.65
12/02/2020 00:46:10	120220	12022020	004610	114.20	13.884417	-56.916720	114.42	0.440	-0.590	3.550	114.20	-2.20	4.00	 	 	 	 	 	 	 	 	 	 	 	 	 	 	 	 	 	 	1581468370	4.55	8.43
12/02/2020 00:46:11	120220	12022020	004611	114.16	13.884407	-56.916703	114.43	0.040	0.510	3.320	114.20	-0.50	3.60	 	 	 	 	 	 	 	 	 	 	 	 	 	 	 	 	 	 	1581468371	4.23	7.83
12/02/2020 00:46:12	120220	12022020	004612	114.48	13.884397	-56.916685	114.77	-0.400	1.100	2.760	114.56	-0.20	3.00	 	 	 	 	 	 	 	 	 	 	 	 	 	 	 	 	 	 	1581468372	4.51	8.35
12/02/2020 00:46:13	120220	12022020	004613	114.91	13.884385	-56.916665	115.17	-0.660	1.000	2.210	114.98	-0.60	2.60	 	 	 	 	 	 	 	 	 	 	 	 	 	 	 	 	 	 	1581468373	4.97	9.20
12/02/2020 00:46:14	120220	12022020	004614	115.09	13.884370	-56.916642	115.32	-0.560	0.310	2.010	115.09	-1.30	2.50	 	 	 	 	 	 	 	 	 	 	 	 	 	 	 	 	 	 	1581468374	5.54	10.26
12/02/2020 00:46:15	120220	12022020	004615	115.06	13.884357	-56.916620	115.28	-0.200	-0.330	1.960	115.04	-1.80	2.50	 	 	 	 	 	 	 	 	 	 	 	 	 	 	 	 	 	 	1581468375	5.62	10.41
12/02/2020 00:46:16	120220	12022020	004616	115.08	13.884343	-56.916600	115.32	0.160	-0.470	1.910	115.10	-1.80	2.40	 	 	 	 	 	 	 	 	 	 	 	 	 	 	 	 	 	 	1581468376	5.03	9.32
12/02/2020 00:46:17	120220	12022020	004617	115.18	13.884332	-56.916580	115.41	0.430	-0.470	1.830	115.18	-1.90	2.30	 	 	 	 	 	 	 	 	 	 	 	 	 	 	 	 	 	 	1581468377	4.65	8.61
12/02/2020 00:46:18	120220	12022020	004618	115.06	13.884322	-56.916558	115.23	0.760	-0.880	1.820	114.99	-2.40	2.40	 	 	 	 	 	 	 	 	 	 	 	 	 	 	 	 	 	 	1581468378	5.17	9.57
12/02/2020 00:46:19	120220	12022020	004619	114.67	13.884310	-56.916533	114.84	1.030	-1.310	2.020	114.60	-2.50	2.70	 	 	 	 	 	 	 	 	 	 	 	 	 	 	 	 	 	 	1581468379	5.85	10.83
12/02/2020 00:46:20	120220	12022020	004620	114.52	13.884298	-56.916512	114.76	0.760	-0.730	2.390	114.55	-1.50	3.10	 	 	 	 	 	 	 	 	 	 	 	 	 	 	 	 	 	 	1581468380	5.22	9.67
12/02/2020 00:46:21	120220	12022020	004621	114.85	13.884285	-56.916497	115.15	-0.120	0.490	2.830	114.95	-0.40	3.50	 	 	 	 	 	 	 	 	 	 	 	 	 	 	 	 	 	 	1581468381	4.24	7.85
12/02/2020 00:46:22	120220	12022020	004622	115.35	13.884270	-56.916483	115.65	-1.070	1.240	3.170	115.35	-0.20	3.60	 	 	 	 	 	 	 	 	 	 	 	 	 	 	 	 	 	 	1581468382	4.38	8.11
12/02/2020 00:46:23	120220	12022020	004623	115.63	13.884252	-56.916465	115.89	-1.360	0.890	3.420	115.65	-0.80	4.00	 	 	 	 	 	 	 	 	 	 	 	 	 	 	 	 	 	 	1581468383	5.38	9.96
12/02/2020 00:46:24	120220	12022020	004624	115.73	13.884233	-56.916443	116.00	-0.920	0.010	3.520	115.75	-1.60	4.00	 	 	 	 	 	 	 	 	 	 	 	 	 	 	 	 	 	 	1581468384	6.02	11.15
12/02/2020 00:46:25	120220	12022020	004625	115.78	13.884217	-56.916422	116.04	-0.210	-0.670	3.330	115.78	-2.10	3.70	 	 	 	 	 	 	 	 	 	 	 	 	 	 	 	 	 	 	1581468385	5.83	10.80
12/02/2020 00:46:26	120220	12022020	004626	115.66	13.884203	-56.916400	115.88	0.370	-0.980	2.830	115.60	-2.30	3.10	 	 	 	 	 	 	 	 	 	 	 	 	 	 	 	 	 	 	1581468386	5.32	9.85
12/02/2020 00:46:27	120220	12022020	004627	115.28	13.884195	-56.916378	115.45	0.770	-0.980	2.280	115.19	-2.20	2.60	 	 	 	 	 	 	 	 	 	 	 	 	 	 	 	 	 	 	1581468387	5.17	9.57
12/02/2020 00:46:28	120220	12022020	004628	114.92	13.884187	-56.916353	115.11	1.010	-0.770	1.670	114.88	-1.90	2.00	 	 	 	 	 	 	 	 	 	 	 	 	 	 	 	 	 	 	1581468388	5.25	9.72
12/02/2020 00:46:29	120220	12022020	004629	114.83	13.884180	-56.916330	115.03	0.940	-0.340	1.110	114.84	-1.40	1.50	 	 	 	 	 	 	 	 	 	 	 	 	 	 	 	 	 	 	1581468389	5.21	9.65
12/02/2020 00:46:30	120220	12022020	004630	114.93	13.884170	-56.916308	115.14	0.490	0.280	0.850	114.96	-0.80	1.40	 	 	 	 	 	 	 	 	 	 	 	 	 	 	 	 	 	 	1581468390	4.92	9.11
12/02/2020 00:46:31	120220	12022020	004631	115.14	13.884160	-56.916290	115.38	-0.220	0.930	1.000	115.19	-0.20	1.70	 	 	 	 	 	 	 	 	 	 	 	 	 	 	 	 	 	 	1581468391	4.60	8.52
12/02/2020 00:46:32	120220	12022020	004632	115.36	13.884145	-56.916273	115.66	-0.930	1.250	1.540	115.42	-0.10	1.90	 	 	 	 	 	 	 	 	 	 	 	 	 	 	 	 	 	 	1581468392	4.63	8.57
12/02/2020 00:46:33	120220	12022020	004633	115.71	13.884127	-56.916257	115.96	-1.290	0.830	2.330	115.75	-1.00	3.20	 	 	 	 	 	 	 	 	 	 	 	 	 	 	 	 	 	 	1581468393	5.23	9.69
12/02/2020 00:46:34	120220	12022020	004634	115.72	13.884103	-56.916238	115.91	-0.970	-0.490	3.300	115.72	-1.40	3.60	 	 	 	 	 	 	 	 	 	 	 	 	 	 	 	 	 	 	1581468394	6.24	11.56
12/02/2020 00:46:35	120220	12022020	004635	115.07	13.884080	-56.916215	115.21	0.030	-2.180	4.360	114.86	-4.00	5.20	 	 	 	 	 	 	 	 	 	 	 	 	 	 	 	 	 	 	1581468395	7.11	13.17
12/02/2020 00:46:36	120220	12022020	004636	114.07	13.884062	-56.916190	114.26	1.090	-2.860	4.890	113.92	-3.90	5.30	 	 	 	 	 	 	 	 	 	 	 	 	 	 	 	 	 	 	1581468396	6.79	12.58
12/02/2020 00:46:37	120220	12022020	004637	113.59	13.884052	-56.916168	113.85	1.330	-1.580	4.440	113.58	-2.00	4.50	 	 	 	 	 	 	 	 	 	 	 	 	 	 	 	 	 	 	1581468397	5.02	9.30
12/02/2020 00:46:38	120220	12022020	004638	113.78	13.884048	-56.916152	114.07	0.530	0.730	3.330	113.87	0.30	3.30	 	 	 	 	 	 	 	 	 	 	 	 	 	 	 	 	 	 	1581468398	3.51	6.50
12/02/2020 00:46:39	120220	12022020	004639	114.32	13.884045	-56.916137	114.59	-0.640	2.440	2.090	114.43	1.30	2.20	 	 	 	 	 	 	 	 	 	 	 	 	 	 	 	 	 	 	1581468399	3.29	6.09
12/02/2020 00:46:40	120220	12022020	004640	114.79	13.884037	-56.916117	115.00	-1.170	2.260	1.160	114.85	0.20	1.50	 	 	 	 	 	 	 	 	 	 	 	 	 	 	 	 	 	 	1581468400	4.54	8.41
12/02/2020 00:46:41	120220	12022020	004641	114.87	13.884022	-56.916088	115.03	-0.640	0.290	0.930	114.84	-2.00	1.60	 	 	 	 	 	 	 	 	 	 	 	 	 	 	 	 	 	 	1581468401	6.57	12.17
12/02/2020 00:46:42	120220	12022020	004642	114.74	13.884003	-56.916060	114.91	0.310	-1.610	1.250	114.73	-3.20	1.90	 	 	 	 	 	 	 	 	 	 	 	 	 	 	 	 	 	 	1581468402	7.24	13.41
12/02/2020 00:46:43	120220	12022020	004643	114.80	13.883988	-56.916038	115.01	0.780	-1.720	1.600	114.84	-2.60	2.20	 	 	 	 	 	 	 	 	 	 	 	 	 	 	 	 	 	 	1581468403	5.69	10.54
12/02/2020 00:46:44	120220	12022020	004644	115.02	13.883978	-56.916023	115.23	0.500	-0.410	1.820	115.06	-1.20	2.40	 	 	 	 	 	 	 	 	 	 	 	 	 	 	 	 	 	 	1581468404	3.74	6.93
12/02/2020 00:46:45	120220	12022020	004645	115.16	13.883968	-56.916010	115.36	-0.090	0.710	2.110	115.16	-0.50	2.80	 	 	 	 	 	 	 	 	 	 	 	 	 	 	 	 	 	 	1581468405	3.40	6.30
12/02/2020 00:46:46	120220	12022020	004646	115.07	13.883955	-56.915993	115.25	-0.420	0.560	2.610	115.07	-0.60	3.00	 	 	 	 	 	 	 	 	 	 	 	 	 	 	 	 	 	 	1581468406	4.60	8.52
12/02/2020 00:46:47	120220	12022020	004647	114.73	13.883938	-56.915970	114.90	-0.260	-0.630	3.220	114.63	-2.50	4.00	 	 	 	 	 	 	 	 	 	 	 	 	 	 	 	 	 	 	1581468407	6.13	11.35
12/02/2020 00:46:48	120220	12022020	004648	114.23	13.883920	-56.915945	114.42	0.130	-1.580	3.820	114.23	-2.80	4.20	 	 	 	 	 	 	 	 	 	 	 	 	 	 	 	 	 	 	1581468408	6.55	12.13
12/02/2020 00:46:49	120220	12022020	004649	113.84	13.883903	-56.915923	114.05	0.380	-1.470	4.100	113.80	-2.50	4.50	 	 	 	 	 	 	 	 	 	 	 	 	 	 	 	 	 	 	1581468409	5.78	10.70
12/02/2020 00:46:50	120220	12022020	004650	113.84	13.883892	-56.915905	114.10	0.340	-0.470	3.670	113.89	-1.30	3.80	 	 	 	 	 	 	 	 	 	 	 	 	 	 	 	 	 	 	1581468410	4.73	8.76
12/02/2020 00:46:51	120220	12022020	004651	114.25	13.883885	-56.915885	114.54	0.100	0.760	2.760	114.36	-0.20	2.90	 	 	 	 	 	 	 	 	 	 	 	 	 	 	 	 	 	 	1581468411	4.20	7.78
12/02/2020 00:46:52	120220	12022020	004652	114.77	13.883878	-56.915867	115.03	-0.260	1.530	1.880	114.86	0.30	2.10	 	 	 	 	 	 	 	 	 	 	 	 	 	 	 	 	 	 	1581468412	4.22	7.82
12/02/2020 00:46:53	120220	12022020	004653	115.13	13.883868	-56.915847	115.33	-0.560	1.380	1.300	115.17	-0.30	1.80	 	 	 	 	 	 	 	 	 	 	 	 	 	 	 	 	 	 	1581468413	4.69	8.69
12/02/2020 00:46:54	120220	12022020	004654	115.16	13.883857	-56.915823	115.33	-0.510	0.310	1.330	115.13	-1.60	2.00	 	 	 	 	 	 	 	 	 	 	 	 	 	 	 	 	 	 	1581468414	5.52	10.22
12/02/2020 00:46:55	120220	12022020	004655	114.84	13.883840	-56.915800	114.97	-0.070	-0.980	1.880	114.74	-2.70	2.60	 	 	 	 	 	 	 	 	 	 	 	 	 	 	 	 	 	 	1581468415	6.14	11.37
12/02/2020 00:46:56	120220	12022020	004656	114.42	13.883823	-56.915778	114.58	0.390	-1.570	2.370	114.36	-2.90	3.00	 	 	 	 	 	 	 	 	 	 	 	 	 	 	 	 	 	 	1581468416	5.82	10.78
12/02/2020 00:46:57	120220	12022020	004657	114.28	13.883812	-56.915758	114.49	0.580	-1.250	2.530	114.30	-2.30	3.10	 	 	 	 	 	 	 	 	 	 	 	 	 	 	 	 	 	 	1581468417	4.86	9.00
12/02/2020 00:46:58	120220	12022020	004658	114.41	13.883802	-56.915740	114.63	0.570	-0.670	2.540	114.43	-1.90	3.10	 	 	 	 	 	 	 	 	 	 	 	 	 	 	 	 	 	 	1581468418	4.44	8.22
12/02/2020 00:46:59	120220	12022020	004659	114.45	13.883790	-56.915720	114.65	0.550	-0.400	2.570	114.45	-1.70	3.10	 	 	 	 	 	 	 	 	 	 	 	 	 	 	 	 	 	 	1581468419	4.93	9.13
12/02/2020 00:47:00	120220	12022020	004700	114.38	13.883778	-56.915697	114.57	0.440	-0.180	2.570	114.38	-1.60	3.10	 	 	 	 	 	 	 	 	 	 	 	 	 	 	 	 	 	 	1581468420	5.36	9.93
12/02/2020 00:47:01	120220	12022020	004701	114.42	13.883767	-56.915677	114.65	-0.020	0.390	2.710	114.46	-0.70	3.30	 	 	 	 	 	 	 	 	 	 	 	 	 	 	 	 	 	 	1581468421	5.06	9.37
12/02/2020 00:47:02	120220	12022020	004702	114.78	13.883753	-56.915658	115.06	-0.770	1.020	3.030	114.87	-0.20	3.70	1017.20	26.10	26.20	20.80	20.90	-1.0	72.0	72.0	399.0	25.8	318.00	15.50	66.00	13.60	16	9542.0	27.1	27.1	1581468422	4.60	8.52
12/02/2020 00:47:03	120220	12022020	004703	115.19	13.883737	-56.915642	115.42	-1.330	1.000	3.360	115.23	-0.70	4.00	 	 	 	 	 	 	 	 	 	 	 	 	 	 	 	 	 	 	1581468423	4.88	9.04
12/02/2020 00:47:04	120220	12022020	004704	115.12	13.883718	-56.915622	115.29	-1.130	-0.000	3.650	115.04	-1.90	4.20	 	 	 	 	 	 	 	 	 	 	 	 	 	 	 	 	 	 	1581468424	5.87	10.87
12/02/2020 00:47:05	120220	12022020	004705	114.68	13.883700	-56.915598	114.84	-0.210	-1.220	3.710	114.59	-2.80	4.10	 	 	 	 	 	 	 	 	 	 	 	 	 	 	 	 	 	 	1581468425	6.53	12.09
12/02/2020 00:47:06	120220	12022020	004706	114.49	13.883688	-56.915573	114.73	0.770	-1.390	3.190	114.52	-2.50	3.30	 	 	 	 	 	 	 	 	 	 	 	 	 	 	 	 	 	 	1581468426	5.70	10.56
12/02/2020 00:47:07	120220	12022020	004707	114.82	13.883683	-56.915552	115.09	1.070	-0.580	2.160	114.92	-1.60	2.30	 	 	 	 	 	 	 	 	 	 	 	 	 	 	 	 	 	 	1581468427	4.55	8.43
12/02/2020 00:47:08	120220	12022020	004708	115.29	13.883678	-56.915532	115.52	0.630	0.170	1.260	115.35	-1.10	1.60	 	 	 	 	 	 	 	 	 	 	 	 	 	 	 	 	 	 	1581468428	4.29	7.95
12/02/2020 00:47:09	120220	12022020	004709	115.41	13.883668	-56.915513	115.58	-0.030	0.320	1.160	115.38	-1.20	1.80	 	 	 	 	 	 	 	 	 	 	 	 	 	 	 	 	 	 	1581468429	4.75	8.80
12/02/2020 00:47:10	120220	12022020	004710	115.24	13.883652	-56.915492	115.33	-0.250	-0.130	1.580	115.18	-1.40	2.00	 	 	 	 	 	 	 	 	 	 	 	 	 	 	 	 	 	 	1581468430	5.69	10.54
12/02/2020 00:47:11	120220	12022020	004711	114.88	13.883633	-56.915468	115.06	0.030	-0.570	1.970	114.83	-1.90	2.60	 	 	 	 	 	 	 	 	 	 	 	 	 	 	 	 	 	 	1581468431	6.07	11.24
12/02/2020 00:47:12	120220	12022020	004712	114.79	13.883620	-56.915448	115.02	0.190	-0.170	2.110	114.79	-1.70	2.60	 	 	 	 	 	 	 	 	 	 	 	 	 	 	 	 	 	 	1581468432	5.22	9.67
12/02/2020 00:47:13	120220	12022020	004713	115.02	13.883612	-56.915432	115.24	-0.150	0.680	2.010	115.07	-0.50	2.50	 	 	 	 	 	 	 	 	 	 	 	 	 	 	 	 	 	 	1581468433	4.09	7.57
12/02/2020 00:47:14	120220	12022020	004714	115.17	13.883602	-56.915413	115.36	-0.570	0.760	1.890	115.17	-0.50	2.40	 	 	 	 	 	 	 	 	 	 	 	 	 	 	 	 	 	 	1581468434	4.28	7.93
12/02/2020 00:47:15	120220	12022020	004715	114.96	13.883587	-56.915390	115.11	-0.380	-0.530	2.180	114.87	-2.60	3.00	 	 	 	 	 	 	 	 	 	 	 	 	 	 	 	 	 	 	1581468435	5.85	10.83
12/02/2020 00:47:16	120220	12022020	004716	114.47	13.883567	-56.915363	114.64	0.280	-2.000	2.920	114.40	-3.50	3.70	 	 	 	 	 	 	 	 	 	 	 	 	 	 	 	 	 	 	1581468436	7.11	13.17
12/02/2020 00:47:17	120220	12022020	004717	114.34	13.883548	-56.915340	114.59	0.570	-1.800	3.400	114.39	-2.60	3.90	 	 	 	 	 	 	 	 	 	 	 	 	 	 	 	 	 	 	1581468437	6.10	11.30
12/02/2020 00:47:18	120220	12022020	004718	114.74	13.883537	-56.915327	115.02	0.110	-0.030	3.230	114.84	-0.60	3.60	 	 	 	 	 	 	 	 	 	 	 	 	 	 	 	 	 	 	1581468438	3.98	7.37
12/02/2020 00:47:19	120220	12022020	004719	115.19	13.883527	-56.915315	115.42	-0.530	1.600	2.810	115.24	0.50	3.20	 	 	 	 	 	 	 	 	 	 	 	 	 	 	 	 	 	 	1581468439	3.25	6.02
12/02/2020 00:47:20	120220	12022020	004720	115.35	13.883515	-56.915298	115.53	-0.560	1.660	2.410	115.35	-0.20	2.80	 	 	 	 	 	 	 	 	 	 	 	 	 	 	 	 	 	 	1581468440	4.34	8.04
12/02/2020 00:47:21	120220	12022020	004721	115.25	13.883503	-56.915272	115.40	0.040	0.290	2.070	115.21	-1.70	2.50	 	 	 	 	 	 	 	 	 	 	 	 	 	 	 	 	 	 	1581468441	6.02	11.15
12/02/2020 00:47:22	120220	12022020	004722	115.10	13.883490	-56.915243	115.29	0.530	-1.040	1.940	115.09	-2.60	2.50	 	 	 	 	 	 	 	 	 	 	 	 	 	 	 	 	 	 	1581468442	6.46	11.96
12/02/2020 00:47:23	120220	12022020	004723	115.19	13.883478	-56.915222	115.42	0.370	-1.210	2.040	115.24	-2.30	2.60	 	 	 	 	 	 	 	 	 	 	 	 	 	 	 	 	 	 	1581468443	5.35	9.91
12/02/2020 00:47:24	120220	12022020	004724	115.55	13.883467	-56.915205	115.81	-0.160	-0.480	2.180	115.55	-2.10	2.70	 	 	 	 	 	 	 	 	 	 	 	 	 	 	 	 	 	 	1581468444	4.18	7.74
12/02/2020 00:47:25	120220	12022020	004725	115.87	13.883453	-56.915190	116.10	-0.390	-0.050	2.430	115.90	-1.50	3.10	 	 	 	 	 	 	 	 	 	 	 	 	 	 	 	 	 	 	1581468445	4.32	8.00
12/02/2020 00:47:26	120220	12022020	004726	115.83	13.883437	-56.915172	116.03	-0.060	-0.300	2.910	115.79	-1.90	3.60	 	 	 	 	 	 	 	 	 	 	 	 	 	 	 	 	 	 	1581468446	5.36	9.93
12/02/2020 00:47:27	120220	12022020	004727	115.52	13.883420	-56.915150	115.72	0.410	-0.640	3.270	115.46	-2.00	3.80	 	 	 	 	 	 	 	 	 	 	 	 	 	 	 	 	 	 	1581468447	5.84	10.82
12/02/2020 00:47:28	120220	12022020	004728	115.20	13.883407	-56.915128	115.41	0.510	-0.460	3.260	115.16	-1.60	3.70	 	 	 	 	 	 	 	 	 	 	 	 	 	 	 	 	 	 	1581468448	5.39	9.98
12/02/2020 00:47:29	120220	12022020	004729	115.12	13.883397	-56.915108	115.36	0.100	0.230	3.000	115.13	-0.90	3.30	 	 	 	 	 	 	 	 	 	 	 	 	 	 	 	 	 	 	1581468449	4.62	8.56
12/02/2020 00:47:30	120220	12022020	004730	115.23	13.883388	-56.915090	115.47	-0.470	0.750	2.540	115.27	-0.60	2.80	 	 	 	 	 	 	 	 	 	 	 	 	 	 	 	 	 	 	1581468450	4.35	8.06
12/02/2020 00:47:31	120220	12022020	004731	115.47	13.883377	-56.915070	115.71	-0.750	0.550	1.950	115.54	-1.10	2.20	 	 	 	 	 	 	 	 	 	 	 	 	 	 	 	 	 	 	1581468451	4.86	9.00
12/02/2020 00:47:32	120220	12022020	004732	115.79	13.883363	-56.915047	116.02	-0.570	-0.290	1.520	115.83	-2.00	2.00	 	 	 	 	 	 	 	 	 	 	 	 	 	 	 	 	 	 	1581468452	5.64	10.45
12/02/2020 00:47:33	120220	12022020	004733	115.76	13.883345	-56.915023	115.94	-0.060	-1.100	1.720	115.69	-2.60	2.40	 	 	 	 	 	 	 	 	 	 	 	 	 	 	 	 	 	 	1581468453	6.09	11.28
12/02/2020 00:47:34	120220	12022020	004734	115.30	13.883328	-56.915002	115.46	0.450	-1.210	2.130	115.21	-2.40	2.70	 	 	 	 	 	 	 	 	 	 	 	 	 	 	 	 	 	 	1581468454	5.80	10.74
12/02/2020 00:47:35	120220	12022020	004735	114.96	13.883317	-56.914983	115.15	0.590	-0.430	2.260	114.92	-1.40	2.70	 	 	 	 	 	 	 	 	 	 	 	 	 	 	 	 	 	 	1581468455	4.81	8.91
12/02/2020 00:47:36	120220	12022020	004736	114.91	13.883307	-56.914967	115.13	0.250	0.630	2.110	114.91	-1.00	2.70	 	 	 	 	 	 	 	 	 	 	 	 	 	 	 	 	 	 	1581468456	4.10	7.59
12/02/2020 00:47:37	120220	12022020	004737	115.11	13.883298	-56.914948	115.35	-0.230	1.110	1.830	115.18	-0.40	2.30	 	 	 	 	 	 	 	 	 	 	 	 	 	 	 	 	 	 	1581468457	4.24	7.85
12/02/2020 00:47:38	120220	12022020	004738	115.43	13.883287	-56.914927	115.65	-0.410	0.620	1.740	115.43	-0.60	2.20	 	 	 	 	 	 	 	 	 	 	 	 	 	 	 	 	 	 	1581468458	5.06	9.37
12/02/2020 00:47:39	120220	12022020	004739	115.48	13.883272	-56.914903	115.65	-0.140	-0.460	2.180	115.43	-2.30	3.00	 	 	 	 	 	 	 	 	 	 	 	 	 	 	 	 	 	 	1581468459	5.91	10.95
12/02/2020 00:47:40	120220	12022020	004740	115.06	13.883253	-56.914882	115.21	0.320	-1.370	2.910	114.96	-2.90	3.70	 	 	 	 	 	 	 	 	 	 	 	 	 	 	 	 	 	 	1581468460	6.22	11.52
12/02/2020 00:47:41	120220	12022020	004741	114.57	13.883237	-56.914858	114.76	0.600	-1.530	3.400	114.49	-2.70	4.00	 	 	 	 	 	 	 	 	 	 	 	 	 	 	 	 	 	 	1581468461	5.80	10.74
12/02/2020 00:47:42	120220	12022020	004742	114.37	13.883223	-56.914840	114.64	0.520	-0.890	3.600	114.39	-1.80	4.10	 	 	 	 	 	 	 	 	 	 	 	 	 	 	 	 	 	 	1581468462	5.08	9.41
12/02/2020 00:47:43	120220	12022020	004743	114.63	13.883212	-56.914822	114.91	0.070	0.230	3.380	114.72	-0.70	3.70	 	 	 	 	 	 	 	 	 	 	 	 	 	 	 	 	 	 	1581468463	4.38	8.11
12/02/2020 00:47:44	120220	12022020	004744	115.08	13.883203	-56.914803	115.31	-0.550	1.080	2.790	115.14	-0.30	3.10	 	 	 	 	 	 	 	 	 	 	 	 	 	 	 	 	 	 	1581468464	4.17	7.72
12/02/2020 00:47:45	120220	12022020	004745	115.21	13.883192	-56.914783	115.39	-0.880	0.910	2.350	115.20	-0.80	2.80	 	 	 	 	 	 	 	 	 	 	 	 	 	 	 	 	 	 	1581468465	4.94	9.15
12/02/2020 00:47:46	120220	12022020	004746	115.15	13.883177	-56.914760	115.35	-0.610	-0.090	2.120	115.15	-1.90	2.50	 	 	 	 	 	 	 	 	 	 	 	 	 	 	 	 	 	 	1581468466	6.02	11.15
12/02/2020 00:47:47	120220	12022020	004747	115.16	13.883160	-56.914735	115.35	0.050	-0.980	1.960	115.15	-2.50	2.40	 	 	 	 	 	 	 	 	 	 	 	 	 	 	 	 	 	 	1581468467	6.27	11.61
12/02/2020 00:47:48	120220	12022020	004748	115.05	13.883148	-56.914712	115.23	0.480	-1.030	1.820	115.02	-2.20	2.20	 	 	 	 	 	 	 	 	 	 	 	 	 	 	 	 	 	 	1581468468	5.58	10.33
12/02/2020 00:47:49	120220	12022020	004749	114.95	13.883140	-56.914692	115.14	0.330	-0.210	1.420	114.96	-1.10	1.80	 	 	 	 	 	 	 	 	 	 	 	 	 	 	 	 	 	 	1581468469	4.58	8.48
12/02/2020 00:47:50	120220	12022020	004750	115.13	13.883133	-56.914675	115.35	-0.200	0.900	1.060	115.20	-0.20	1.50	 	 	 	 	 	 	 	 	 	 	 	 	 	 	 	 	 	 	1581468470	3.81	7.06
12/02/2020 00:47:51	120220	12022020	004751	115.51	13.883123	-56.914658	115.72	-0.540	1.270	0.990	115.57	-0.40	1.50	 	 	 	 	 	 	 	 	 	 	 	 	 	 	 	 	 	 	1581468471	3.99	7.39
12/02/2020 00:47:52	120220	12022020	004752	115.69	13.883108	-56.914637	115.86	-0.190	0.080	1.180	115.69	-2.20	1.90	 	 	 	 	 	 	 	 	 	 	 	 	 	 	 	 	 	 	1581468472	5.48	10.15
12/02/2020 00:47:53	120220	12022020	004753	115.49	13.883090	-56.914608	115.62	0.710	-1.940	1.670	115.41	-3.90	2.50	 	 	 	 	 	 	 	 	 	 	 	 	 	 	 	 	 	 	1581468473	7.09	13.13
12/02/2020 00:47:54	120220	12022020	004754	115.01	13.883072	-56.914582	115.15	1.370	-2.740	2.450	114.91	-3.80	3.30	 	 	 	 	 	 	 	 	 	 	 	 	 	 	 	 	 	 	1581468474	6.94	12.85
12/02/2020 00:47:55	120220	12022020	004755	114.58	13.883058	-56.914563	114.76	1.090	-1.300	3.040	114.52	-1.70	3.60	 	 	 	 	 	 	 	 	 	 	 	 	 	 	 	 	 	 	1581468475	4.88	9.04
12/02/2020 00:47:56	120220	12022020	004756	114.43	13.883050	-56.914552	114.66	-0.030	1.130	3.080	114.45	0.50	3.40	 	 	 	 	 	 	 	 	 	 	 	 	 	 	 	 	 	 	1581468476	3.12	5.78
12/02/2020 00:47:57	120220	12022020	004757	114.70	13.883043	-56.914537	114.98	-1.270	2.630	2.570	114.82	1.30	2.80	 	 	 	 	 	 	 	 	 	 	 	 	 	 	 	 	 	 	1581468477	3.18	5.89
12/02/2020 00:47:58	120220	12022020	004758	115.40	13.883033	-56.914518	115.68	-1.840	2.260	1.870	115.55	0.20	2.20	 	 	 	 	 	 	 	 	 	 	 	 	 	 	 	 	 	 	1581468478	4.60	8.52
12/02/2020 00:47:59	120220	12022020	004759	115.94	13.883017	-56.914493	116.15	-1.490	0.410	1.640	115.97	-1.90	2.20	 	 	 	 	 	 	 	 	 	 	 	 	 	 	 	 	 	 	1581468479	6.14	11.37
12/02/2020 00:48:00	120220	12022020	004800	115.76	13.882997	-56.914468	115.88	-0.490	-1.790	2.000	115.76	-2.70	2.40	 	 	 	 	 	 	 	 	 	 	 	 	 	 	 	 	 	 	1581468480	7.06	13.08
12/02/2020 00:48:01	120220	12022020	004801	115.07	13.882977	-56.914443	115.18	0.620	-2.900	2.520	114.92	-4.20	3.20	 	 	 	 	 	 	 	 	 	 	 	 	 	 	 	 	 	 	1581468481	6.67	12.35
12/02/2020 00:48:02	120220	12022020	004802	114.46	13.882963	-56.914423	114.61	1.390	-2.180	2.670	114.46	-3.90	3.20	1017.20	26.10	26.10	20.50	20.60	-1.0	71.0	71.0	399.0	25.8	320.00	15.10	68.00	13.10	16	9573.0	27.1	27.1	1581468482	5.15	9.54
12/02/2020 00:48:03	120220	12022020	004803	114.20	13.882957	-56.914405	114.40	1.520	-0.350	2.310	114.19	-1.00	2.50	 	 	 	 	 	 	 	 	 	 	 	 	 	 	 	 	 	 	1581468483	3.84	7.11
12/02/2020 00:48:04	120220	12022020	004804	114.13	13.882955	-56.914387	114.29	1.040	1.120	1.520	114.12	-0.00	1.70	 	 	 	 	 	 	 	 	 	 	 	 	 	 	 	 	 	 	1581468484	3.98	7.37
12/02/2020 00:48:05	120220	12022020	004805	114.15	13.882952	-56.914363	114.31	0.210	1.440	0.790	114.19	-0.10	1.20	 	 	 	 	 	 	 	 	 	 	 	 	 	 	 	 	 	 	1581468485	4.95	9.17
12/02/2020 00:48:06	120220	12022020	004806	114.58	13.882942	-56.914340	114.80	-0.670	1.020	0.700	114.71	-0.60	1.40	 	 	 	 	 	 	 	 	 	 	 	 	 	 	 	 	 	 	1581468486	5.47	10.13
12/02/2020 00:48:07	120220	12022020	004807	115.18	13.882923	-56.914320	115.39	-1.290	0.560	1.360	115.27	-1.00	2.20	 	 	 	 	 	 	 	 	 	 	 	 	 	 	 	 	 	 	1581468487	5.58	10.33
12/02/2020 00:48:08	120220	12022020	004808	115.34	13.882902	-56.914305	115.49	-1.310	0.000	2.280	115.28	-1.70	3.20	 	 	 	 	 	 	 	 	 	 	 	 	 	 	 	 	 	 	1581468488	5.73	10.61
12/02/2020 00:48:09	120220	12022020	004809	114.87	13.882880	-56.914285	115.00	-0.560	-0.860	3.070	114.75	-2.60	3.70	 	 	 	 	 	 	 	 	 	 	 	 	 	 	 	 	 	 	1581468489	5.94	11.00
12/02/2020 00:48:10	120220	12022020	004810	114.38	13.882865	-56.914263	114.55	0.500	-1.430	3.310	114.32	-2.80	3.80	 	 	 	 	 	 	 	 	 	 	 	 	 	 	 	 	 	 	1581468490	5.75	10.65
12/02/2020 00:48:11	120220	12022020	004811	114.30	13.882857	-56.914240	114.53	1.090	-1.320	2.980	114.33	-2.60	3.30	 	 	 	 	 	 	 	 	 	 	 	 	 	 	 	 	 	 	1581468491	5.15	9.54
12/02/2020 00:48:12	120220	12022020	004812	114.48	13.882848	-56.914218	114.69	1.010	-1.020	2.450	114.48	-2.50	3.10	 	 	 	 	 	 	 	 	 	 	 	 	 	 	 	 	 	 	1581468492	4.96	9.19
12/02/2020 00:48:13	120220	12022020	004813	114.46	13.882838	-56.914195	114.64	0.660	-0.900	2.330	114.42	-2.10	2.90	 	 	 	 	 	 	 	 	 	 	 	 	 	 	 	 	 	 	1581468493	5.46	10.11
12/02/2020 00:48:14	120220	12022020	004814	114.23	13.882825	-56.914172	114.40	0.280	-0.270	2.390	114.23	-1.90	2.90	 	 	 	 	 	 	 	 	 	 	 	 	 	 	 	 	 	 	1581468494	5.50	10.19
12/02/2020 00:48:15	120220	12022020	004815	114.17	13.882815	-56.914155	114.38	-0.340	1.180	2.400	114.20	0.30	2.90	 	 	 	 	 	 	 	 	 	 	 	 	 	 	 	 	 	 	1581468495	4.37	8.09
12/02/2020 00:48:16	120220	12022020	004816	114.57	13.882805	-56.914140	114.84	-1.120	2.240	2.260	114.70	0.80	2.70	 	 	 	 	 	 	 	 	 	 	 	 	 	 	 	 	 	 	1581468496	3.85	7.13
12/02/2020 00:48:17	120220	12022020	004817	115.30	13.882790	-56.914122	115.57	-1.490	1.770	2.000	115.42	-0.30	2.40	 	 	 	 	 	 	 	 	 	 	 	 	 	 	 	 	 	 	1581468497	4.79	8.87
12/02/2020 00:48:18	120220	12022020	004818	115.77	13.882773	-56.914098	115.97	-0.920	-0.110	1.870	115.80	-2.40	2.40	 	 	 	 	 	 	 	 	 	 	 	 	 	 	 	 	 	 	1581468498	6.25	11.58
12/02/2020 00:48:19	120220	12022020	004819	115.65	13.882755	-56.914070	115.79	0.430	-2.160	2.000	115.57	-4.00	2.60	 	 	 	 	 	 	 	 	 	 	 	 	 	 	 	 	 	 	1581468499	7.07	13.09
12/02/2020 00:48:20	120220	12022020	004820	115.18	13.882740	-56.914043	115.33	1.580	-2.700	2.200	115.09	-3.70	2.70	 	 	 	 	 	 	 	 	 	 	 	 	 	 	 	 	 	 	1581468500	6.28	11.63
12/02/2020 00:48:21	120220	12022020	004821	114.86	13.882733	-56.914025	115.05	1.640	-1.340	2.150	114.84	-1.90	2.60	 	 	 	 	 	 	 	 	 	 	 	 	 	 	 	 	 	 	1581468501	4.43	8.20
12/02/2020 00:48:22	120220	12022020	004822	114.85	13.882727	-56.914010	115.04	0.710	0.600	1.970	114.86	-0.30	2.40	 	 	 	 	 	 	 	 	 	 	 	 	 	 	 	 	 	 	1581468502	3.33	6.17
12/02/2020 00:48:23	120220	12022020	004823	114.89	13.882718	-56.913993	115.07	-0.310	1.530	1.890	114.90	0.10	2.40	 	 	 	 	 	 	 	 	 	 	 	 	 	 	 	 	 	 	1581468503	3.90	7.22
12/02/2020 00:48:24	120220	12022020	004824	114.95	13.882705	-56.913972	115.14	-0.790	1.180	1.900	114.97	-0.60	2.40	 	 	 	 	 	 	 	 	 	 	 	 	 	 	 	 	 	 	1581468504	5.28	9.78
12/02/2020 00:48:25	120220	12022020	004825	115.14	13.882688	-56.913948	115.36	-0.690	0.270	2.080	115.19	-1.50	2.70	 	 	 	 	 	 	 	 	 	 	 	 	 	 	 	 	 	 	1581468505	5.98	11.07
12/02/2020 00:48:26	120220	12022020	004826	115.28	13.882672	-56.913927	115.47	-0.320	-0.620	2.430	115.28	-1.80	2.80	 	 	 	 	 	 	 	 	 	 	 	 	 	 	 	 	 	 	1581468506	6.01	11.13
12/02/2020 00:48:27	120220	12022020	004827	115.02	13.882655	-56.913905	115.16	0.090	-1.280	2.850	114.92	-2.80	3.50	 	 	 	 	 	 	 	 	 	 	 	 	 	 	 	 	 	 	1581468507	5.86	10.85
12/02/2020 00:48:28	120220	12022020	004828	114.54	13.882640	-56.913883	114.70	0.360	-1.520	3.070	114.54	-2.90	3.50	 	 	 	 	 	 	 	 	 	 	 	 	 	 	 	 	 	 	1581468508	5.71	10.57
12/02/2020 00:48:29	120220	12022020	004829	114.15	13.882627	-56.913860	114.33	0.370	-1.150	3.250	114.09	-2.20	3.80	 	 	 	 	 	 	 	 	 	 	 	 	 	 	 	 	 	 	1581468509	5.37	9.95
12/02/2020 00:48:30	120220	12022020	004830	113.90	13.882615	-56.913840	114.13	0.120	-0.190	3.350	113.90	-1.10	3.70	 	 	 	 	 	 	 	 	 	 	 	 	 	 	 	 	 	 	1581468510	4.95	9.17
12/02/2020 00:48:31	120220	12022020	004831	114.14	13.882605	-56.913823	114.41	-0.350	1.100	2.860	114.24	0.10	3.00	 	 	 	 	 	 	 	 	 	 	 	 	 	 	 	 	 	 	1581468511	4.32	8.00
12/02/2020 00:48:32	120220	12022020	004832	114.70	13.882597	-56.913805	114.96	-0.750	1.880	2.050	114.81	0.40	2.30	 	 	 	 	 	 	 	 	 	 	 	 	 	 	 	 	 	 	1581468512	4.10	7.59
12/02/2020 00:48:33	120220	12022020	004833	115.10	13.882585	-56.913785	115.29	-0.690	1.330	1.760	115.13	-0.70	2.30	 	 	 	 	 	 	 	 	 	 	 	 	 	 	 	 	 	 	1581468513	4.96	9.19
12/02/2020 00:48:34	120220	12022020	004834	115.17	13.882570	-56.913760	115.34	0.010	-0.360	1.870	115.16	-2.50	2.40	 	 	 	 	 	 	 	 	 	 	 	 	 	 	 	 	 	 	1581468514	6.30	11.67
12/02/2020 00:48:35	120220	12022020	004835	115.10	13.882555	-56.913732	115.25	0.960	-1.950	1.860	115.07	-3.60	2.40	 	 	 	 	 	 	 	 	 	 	 	 	 	 	 	 	 	 	1581468515	6.74	12.48
12/02/2020 00:48:36	120220	12022020	004836	114.92	13.882543	-56.913705	115.06	1.410	-2.200	1.980	114.88	-3.20	2.60	 	 	 	 	 	 	 	 	 	 	 	 	 	 	 	 	 	 	1581468516	5.94	11.00
12/02/2020 00:48:37	120220	12022020	004837	114.73	13.882533	-56.913688	114.90	0.960	-0.890	2.380	114.70	-1.50	3.00	 	 	 	 	 	 	 	 	 	 	 	 	 	 	 	 	 	 	1581468517	4.37	8.09
12/02/2020 00:48:38	120220	12022020	004838	114.66	13.882523	-56.913675	114.86	-0.060	0.880	2.690	114.67	-0.10	3.20	 	 	 	 	 	 	 	 	 	 	 	 	 	 	 	 	 	 	1581468518	3.42	6.33
12/02/2020 00:48:39	120220	12022020	004839	114.69	13.882512	-56.913658	114.89	-0.810	1.490	2.710	114.70	-0.20	3.20	 	 	 	 	 	 	 	 	 	 	 	 	 	 	 	 	 	 	1581468519	4.03	7.46
12/02/2020 00:48:40	120220	12022020	004840	114.67	13.882498	-56.913635	114.84	-0.760	0.380	2.700	114.67	-0.70	3.20	 	 	 	 	 	 	 	 	 	 	 	 	 	 	 	 	 	 	1581468520	5.84	10.82
12/02/2020 00:48:41	120220	12022020	004841	114.61	13.882482	-56.913607	114.83	-0.270	-1.010	2.800	114.62	-2.60	3.30	 	 	 	 	 	 	 	 	 	 	 	 	 	 	 	 	 	 	1581468521	6.87	12.72
12/02/2020 00:48:42	120220	12022020	004842	114.77	13.882467	-56.913583	115.03	-0.120	-1.170	2.840	114.84	-2.30	3.30	 	 	 	 	 	 	 	 	 	 	 	 	 	 	 	 	 	 	1581468522	5.90	10.93
12/02/2020 00:48:43	120220	12022020	004843	115.14	13.882452	-56.913567	115.41	-0.390	-0.340	2.870	115.21	-1.40	3.40	 	 	 	 	 	 	 	 	 	 	 	 	 	 	 	 	 	 	1581468523	4.64	8.59
12/02/2020 00:48:44	120220	12022020	004844	115.34	13.882437	-56.913552	115.56	-0.460	0.240	2.930	115.32	-1.20	3.40	 	 	 	 	 	 	 	 	 	 	 	 	 	 	 	 	 	 	1581468524	4.59	8.50
12/02/2020 00:48:45	120220	12022020	004845	115.12	13.882423	-56.913530	115.30	0.080	-0.030	2.830	115.05	-1.60	3.20	 	 	 	 	 	 	 	 	 	 	 	 	 	 	 	 	 	 	1581468525	5.46	10.11
12/02/2020 00:48:46	120220	12022020	004846	114.82	13.882412	-56.913503	115.02	0.790	-0.450	2.380	114.80	-1.80	2.60	 	 	 	 	 	 	 	 	 	 	 	 	 	 	 	 	 	 	1581468526	6.01	11.13
12/02/2020 00:48:47	120220	12022020	004847	114.83	13.882405	-56.913478	115.05	0.950	-0.200	1.650	114.87	-1.30	1.80	 	 	 	 	 	 	 	 	 	 	 	 	 	 	 	 	 	 	1581468527	5.47	10.13
12/02/2020 00:48:48	120220	12022020	004848	115.12	13.882400	-56.913458	115.36	0.410	0.620	1.000	115.20	-0.50	1.40	 	 	 	 	 	 	 	 	 	 	 	 	 	 	 	 	 	 	1581468528	4.46	8.26
12/02/2020 00:48:49	120220	12022020	004849	115.51	13.882393	-56.913440	115.72	-0.400	1.070	0.960	115.57	-0.50	1.60	 	 	 	 	 	 	 	 	 	 	 	 	 	 	 	 	 	 	1581468529	4.08	7.56
12/02/2020 00:48:50	120220	12022020	004850	115.70	13.882377	-56.913422	115.88	-0.730	0.290	1.490	115.70	-0.80	1.80	 	 	 	 	 	 	 	 	 	 	 	 	 	 	 	 	 	 	1581468530	5.23	9.69
12/02/2020 00:48:51	120220	12022020	004851	115.59	13.882357	-56.913397	115.79	-0.340	-1.210	2.240	115.55	-3.00	3.10	 	 	 	 	 	 	 	 	 	 	 	 	 	 	 	 	 	 	1581468531	6.65	12.32
12/02/2020 00:48:52	120220	12022020	004852	115.41	13.882337	-56.913375	115.63	0.170	-1.860	3.030	115.41	-3.20	3.30	 	 	 	 	 	 	 	 	 	 	 	 	 	 	 	 	 	 	1581468532	6.49	12.02
12/02/2020 00:48:53	120220	12022020	004853	115.28	13.882320	-56.913358	115.52	0.240	-1.100	3.530	115.26	-2.00	4.00	 	 	 	 	 	 	 	 	 	 	 	 	 	 	 	 	 	 	1581468533	5.07	9.39
12/02/2020 00:48:54	120220	12022020	004854	115.15	13.882307	-56.913343	115.38	-0.040	0.000	3.480	115.12	-1.10	3.80	 	 	 	 	 	 	 	 	 	 	 	 	 	 	 	 	 	 	1581468534	4.12	7.63
12/02/2020 00:48:55	120220	12022020	004855	115.01	13.882298	-56.913323	115.21	-0.180	0.310	3.010	114.98	-1.20	3.30	 	 	 	 	 	 	 	 	 	 	 	 	 	 	 	 	 	 	1581468535	4.73	8.76
12/02/2020 00:48:56	120220	12022020	004856	114.86	13.882287	-56.913297	115.05	0.010	-0.090	2.500	114.83	-1.60	2.80	 	 	 	 	 	 	 	 	 	 	 	 	 	 	 	 	 	 	1581468536	5.85	10.83
12/02/2020 00:48:57	120220	12022020	004857	114.82	13.882277	-56.913272	115.04	0.160	-0.290	2.130	114.84	-1.60	2.60	 	 	 	 	 	 	 	 	 	 	 	 	 	 	 	 	 	 	1581468537	5.95	11.02
12/02/2020 00:48:58	120220	12022020	004858	114.96	13.882263	-56.913248	115.18	-0.040	-0.000	2.080	115.00	-1.20	2.60	 	 	 	 	 	 	 	 	 	 	 	 	 	 	 	 	 	 	1581468538	5.29	9.80
12/02/2020 00:48:59	120220	12022020	004859	115.19	13.882250	-56.913232	115.43	-0.450	0.570	2.250	115.25	-0.60	2.80	 	 	 	 	 	 	 	 	 	 	 	 	 	 	 	 	 	 	1581468539	4.77	8.83
12/02/2020 00:49:00	120220	12022020	004900	115.57	13.882237	-56.913215	115.84	-0.640	1.030	2.240	115.67	-0.30	2.70	 	 	 	 	 	 	 	 	 	 	 	 	 	 	 	 	 	 	1581468540	4.55	8.43
12/02/2020 00:49:01	120220	12022020	004901	116.03	13.882223	-56.913197	116.29	-0.410	0.810	2.130	116.09	-0.90	2.60	 	 	 	 	 	 	 	 	 	 	 	 	 	 	 	 	 	 	1581468541	4.79	8.87
12/02/2020 00:49:02	120220	12022020	004902	116.20	13.882210	-56.913173	116.42	0.090	-0.240	2.190	116.19	-2.20	2.70	1017.30	26.10	26.20	20.60	20.70	-1.0	71.0	72.0	398.0	25.8	320.00	15.40	67.00	13.50	16	10465.0	27.1	27.1	1581468542	5.60	10.37
12/02/2020 00:49:03	120220	12022020	004903	116.00	13.882193	-56.913150	116.16	0.620	-1.490	2.380	115.91	-3.20	3.00	 	 	 	 	 	 	 	 	 	 	 	 	 	 	 	 	 	 	1581468543	6.16	11.41
12/02/2020 00:49:04	120220	12022020	004904	115.43	13.882178	-56.913125	115.56	1.020	-2.110	2.790	115.43	-3.40	3.20	 	 	 	 	 	 	 	 	 	 	 	 	 	 	 	 	 	 	1581468544	6.06	11.22
12/02/2020 00:49:05	120220	12022020	004905	114.84	13.882167	-56.913103	115.03	1.050	-1.550	3.020	114.78	-2.40	3.40	 	 	 	 	 	 	 	 	 	 	 	 	 	 	 	 	 	 	1581468545	5.31	9.83
12/02/2020 00:49:06	120220	12022020	004906	114.78	13.882158	-56.913083	115.02	0.500	-0.120	2.660	114.78	-1.90	3.30	 	 	 	 	 	 	 	 	 	 	 	 	 	 	 	 	 	 	1581468546	4.30	7.96
12/02/2020 00:49:07	120220	12022020	004907	115.09	13.882152	-56.913067	115.33	-0.420	1.120	2.100	115.15	-0.00	2.50	 	 	 	 	 	 	 	 	 	 	 	 	 	 	 	 	 	 	1581468547	4.06	7.52
12/02/2020 00:49:08	120220	12022020	004908	115.37	13.882140	-56.913047	115.58	-1.210	1.450	1.920	115.42	-0.10	2.50	 	 	 	 	 	 	 	 	 	 	 	 	 	 	 	 	 	 	1581468548	4.71	8.72
12/02/2020 00:49:09	120220	12022020	004909	115.55	13.882123	-56.913027	115.77	-1.430	0.870	2.070	115.58	-1.00	2.70	 	 	 	 	 	 	 	 	 	 	 	 	 	 	 	 	 	 	1581468549	5.65	10.46
12/02/2020 00:49:10	120220	12022020	004910	115.68	13.882103	-56.913003	115.90	-0.930	-0.250	2.340	115.69	-2.10	3.00	 	 	 	 	 	 	 	 	 	 	 	 	 	 	 	 	 	 	1581468550	6.31	11.69
12/02/2020 00:49:11	120220	12022020	004911	115.65	13.882085	-56.912980	115.86	-0.050	-1.250	2.660	115.61	-2.90	3.30	 	 	 	 	 	 	 	 	 	 	 	 	 	 	 	 	 	 	1581468551	6.46	11.96
12/02/2020 00:49:12	120220	12022020	004912	115.31	13.882068	-56.912957	115.47	0.700	-1.550	2.960	115.21	-2.80	3.50	 	 	 	 	 	 	 	 	 	 	 	 	 	 	 	 	 	 	1581468552	6.03	11.17
12/02/2020 00:49:13	120220	12022020	004913	114.80	13.882055	-56.912935	114.96	0.980	-1.000	3.050	114.71	-2.00	3.50	 	 	 	 	 	 	 	 	 	 	 	 	 	 	 	 	 	 	1581468553	5.29	9.80
12/02/2020 00:49:14	120220	12022020	004914	114.53	13.882047	-56.912917	114.73	0.720	0.160	2.690	114.53	-0.70	2.90	 	 	 	 	 	 	 	 	 	 	 	 	 	 	 	 	 	 	1581468554	4.49	8.32
12/02/2020 00:49:15	120220	12022020	004915	114.73	13.882040	-56.912898	115.00	0.100	1.380	1.970	114.82	0.30	2.10	 	 	 	 	 	 	 	 	 	 	 	 	 	 	 	 	 	 	1581468555	3.97	7.35
12/02/2020 00:49:16	120220	12022020	004916	115.34	13.882035	-56.912880	115.61	-0.500	1.870	1.180	115.34	0.50	1.90	 	 	 	 	 	 	 	 	 	 	 	 	 	 	 	 	 	 	1581468556	4.06	7.52
12/02/2020 00:49:17	120220	12022020	004917	115.95	13.882027	-56.912857	116.16	-0.650	0.830	0.740	116.01	-1.40	1.30	 	 	 	 	 	 	 	 	 	 	 	 	 	 	 	 	 	 	1581468557	5.14	9.52
12/02/2020 00:49:18	120220	12022020	004918	116.02	13.882008	-56.912830	116.11	-0.210	-1.440	1.240	115.97	-2.30	1.50	 	 	 	 	 	 	 	 	 	 	 	 	 	 	 	 	 	 	1581468558	6.85	12.69
12/02/2020 00:49:19	120220	12022020	004919	115.42	13.881985	-56.912803	115.56	0.480	-3.220	2.540	115.30	-4.70	3.60	 	 	 	 	 	 	 	 	 	 	 	 	 	 	 	 	 	 	1581468559	7.65	14.17
12/02/2020 00:49:20	120220	12022020	004920	114.75	13.881963	-56.912782	114.90	0.850	-2.850	3.640	114.64	-3.40	4.30	 	 	 	 	 	 	 	 	 	 	 	 	 	 	 	 	 	 	1581468560	6.43	11.91
12/02/2020 00:49:21	120220	12022020	004921	114.38	13.881950	-56.912768	114.62	0.560	-0.510	3.710	114.39	-0.80	3.90	 	 	 	 	 	 	 	 	 	 	 	 	 	 	 	 	 	 	1581468561	4.05	7.50
12/02/2020 00:49:22	120220	12022020	004922	114.69	13.881945	-56.912757	115.00	-0.280	2.090	2.870	114.84	1.40	2.90	 	 	 	 	 	 	 	 	 	 	 	 	 	 	 	 	 	 	1581468562	2.75	5.09
12/02/2020 00:49:23	120220	12022020	004923	115.58	13.881940	-56.912742	115.89	-1.210	3.280	1.680	115.77	1.70	1.70	 	 	 	 	 	 	 	 	 	 	 	 	 	 	 	 	 	 	1581468563	3.25	6.02
12/02/2020 00:49:24	120220	12022020	004924	116.37	13.881932	-56.912720	116.59	-1.560	2.290	0.790	116.46	-0.10	1.10	 	 	 	 	 	 	 	 	 	 	 	 	 	 	 	 	 	 	1581468564	4.82	8.93
12/02/2020 00:49:25	120220	12022020	004925	116.44	13.881913	-56.912693	116.57	-0.800	-0.560	0.650	116.36	-3.30	1.30	 	 	 	 	 	 	 	 	 	 	 	 	 	 	 	 	 	 	1581468565	6.83	12.65
12/02/2020 00:49:26	120220	12022020	004926	115.80	13.881893	-56.912662	115.89	0.750	-3.430	1.200	115.65	-5.30	2.00	 	 	 	 	 	 	 	 	 	 	 	 	 	 	 	 	 	 	1581468566	7.93	14.69
12/02/2020 00:49:27	120220	12022020	004927	115.32	13.881877	-56.912635	115.55	1.800	-3.730	1.870	115.33	-4.30	2.60	 	 	 	 	 	 	 	 	 	 	 	 	 	 	 	 	 	 	1581468567	6.55	12.13
12/02/2020 00:49:28	120220	12022020	004928	115.72	13.881867	-56.912622	116.08	1.370	-1.180	2.320	115.90	-1.20	2.90	 	 	 	 	 	 	 	 	 	 	 	 	 	 	 	 	 	 	1581468568	3.53	6.54
12/02/2020 00:49:29	120220	12022020	004929	116.75	13.881858	-56.912617	117.13	-0.110	1.860	2.460	116.96	1.20	3.00	 	 	 	 	 	 	 	 	 	 	 	 	 	 	 	 	 	 	1581468569	2.13	3.94
12/02/2020 00:49:30	120220	12022020	004930	117.59	13.881845	-56.912608	117.89	-1.320	3.000	2.660	117.59	1.50	3.10	 	 	 	 	 	 	 	 	 	 	 	 	 	 	 	 	 	 	1581468570	3.30	6.11
12/02/2020 00:49:31	120220	12022020	004931	117.86	13.881827	-56.912590	118.12	-1.360	1.870	3.050	117.85	-0.40	3.80	 	 	 	 	 	 	 	 	 	 	 	 	 	 	 	 	 	 	1581468571	5.58	10.33
12/02/2020 00:49:32	120220	12022020	004932	117.59	13.881803	-56.912567	117.79	-0.420	-0.260	3.580	117.50	-2.40	4.20	 	 	 	 	 	 	 	 	 	 	 	 	 	 	 	 	 	 	1581468572	6.89	12.76
12/02/2020 00:49:33	120220	12022020	004933	117.14	13.881787	-56.912542	117.37	0.600	-1.830	3.760	117.08	-3.50	4.10	 	 	 	 	 	 	 	 	 	 	 	 	 	 	 	 	 	 	1581468573	6.60	12.22
12/02/2020 00:49:34	120220	12022020	004934	116.99	13.881775	-56.912518	117.27	0.940	-1.960	3.270	116.99	-3.00	3.50	 	 	 	 	 	 	 	 	 	 	 	 	 	 	 	 	 	 	1581468574	5.29	9.80
12/02/2020 00:49:35	120220	12022020	004935	117.10	13.881770	-56.912500	117.39	0.520	-0.900	2.600	117.14	-1.80	2.90	 	 	 	 	 	 	 	 	 	 	 	 	 	 	 	 	 	 	1581468575	4.00	7.41
12/02/2020 00:49:36	120220	12022020	004936	117.20	13.881762	-56.912485	117.44	-0.050	0.190	2.220	117.19	-1.00	2.70	 	 	 	 	 	 	 	 	 	 	 	 	 	 	 	 	 	 	1581468576	3.65	6.76
12/02/2020 00:49:37	120220	12022020	004937	117.05	13.881748	-56.912468	117.26	-0.190	0.440	2.140	117.01	-1.10	2.60	 	 	 	 	 	 	 	 	 	 	 	 	 	 	 	 	 	 	1581468577	4.59	8.50
12/02/2020 00:49:38	120220	12022020	004938	116.91	13.881733	-56.912447	117.15	0.060	0.090	1.980	116.92	-1.40	2.40	 	 	 	 	 	 	 	 	 	 	 	 	 	 	 	 	 	 	1581468578	5.56	10.30
12/02/2020 00:49:39	120220	12022020	004939	116.98	13.881717	-56.912425	117.25	0.250	-0.170	1.880	117.01	-1.60	2.40	 	 	 	 	 	 	 	 	 	 	 	 	 	 	 	 	 	 	1581468579	5.60	10.37
12/02/2020 00:49:40	120220	12022020	004940	117.03	13.881702	-56.912407	117.25	0.200	-0.140	1.940	117.01	-1.60	2.40	 	 	 	 	 	 	 	 	 	 	 	 	 	 	 	 	 	 	1581468580	5.23	9.69
12/02/2020 00:49:41	120220	12022020	004941	116.76	13.881687	-56.912388	116.98	0.090	-0.040	1.920	116.70	-1.40	2.30	 	 	 	 	 	 	 	 	 	 	 	 	 	 	 	 	 	 	1581468581	4.94	9.15
12/02/2020 00:49:42	120220	12022020	004942	116.46	13.881677	-56.912368	116.67	-0.030	0.080	1.770	116.46	-1.40	2.30	 	 	 	 	 	 	 	 	 	 	 	 	 	 	 	 	 	 	1581468582	4.80	8.89
12/02/2020 00:49:43	120220	12022020	004943	116.35	13.881667	-56.912348	116.61	-0.300	0.260	1.800	116.36	-1.10	2.40	 	 	 	 	 	 	 	 	 	 	 	 	 	 	 	 	 	 	1581468583	4.62	8.56
12/02/2020 00:49:44	120220	12022020	004944	116.53	13.881653	-56.912332	116.82	-0.700	0.350	2.060	116.59	-1.10	2.70	 	 	 	 	 	 	 	 	 	 	 	 	 	 	 	 	 	 	1581468584	4.54	8.41
12/02/2020 00:49:45	120220	12022020	004945	116.80	13.881637	-56.912315	117.08	-0.890	0.080	2.430	116.82	-1.60	3.10	 	 	 	 	 	 	 	 	 	 	 	 	 	 	 	 	 	 	1581468585	4.90	9.07
12/02/2020 00:49:46	120220	12022020	004946	116.74	13.881617	-56.912297	116.95	-0.370	-0.930	3.040	116.65	-2.90	3.90	 	 	 	 	 	 	 	 	 	 	 	 	 	 	 	 	 	 	1581468586	5.86	10.85
12/02/2020 00:49:47	120220	12022020	004947	116.11	13.881593	-56.912275	116.29	0.890	-2.230	3.980	115.93	-3.80	4.80	 	 	 	 	 	 	 	 	 	 	 	 	 	 	 	 	 	 	1581468587	6.95	12.87
12/02/2020 00:49:48	120220	12022020	004948	115.40	13.881573	-56.912252	115.64	1.900	-2.140	4.430	115.34	-2.90	4.80	 	 	 	 	 	 	 	 	 	 	 	 	 	 	 	 	 	 	1581468588	6.39	11.83
12/02/2020 00:49:49	120220	12022020	004949	115.51	13.881567	-56.912233	115.87	1.620	-0.010	3.860	115.65	-0.30	3.90	 	 	 	 	 	 	 	 	 	 	 	 	 	 	 	 	 	 	1581468589	3.91	7.24
12/02/2020 00:49:50	120220	12022020	004950	116.47	13.881565	-56.912223	116.85	0.180	2.490	2.760	116.71	1.70	2.90	 	 	 	 	 	 	 	 	 	 	 	 	 	 	 	 	 	 	1581468590	2.36	4.37
12/02/2020 00:49:51	120220	12022020	004951	117.49	13.881562	-56.912210	117.80	-1.300	3.250	2.070	117.64	1.40	2.40	 	 	 	 	 	 	 	 	 	 	 	 	 	 	 	 	 	 	1581468591	2.85	5.28
12/02/2020 00:49:52	120220	12022020	004952	117.97	13.881547	-56.912192	118.21	-1.820	1.630	1.940	118.00	-0.90	2.50	 	 	 	 	 	 	 	 	 	 	 	 	 	 	 	 	 	 	1581468592	5.00	9.26
12/02/2020 00:49:53	120220	12022020	004953	117.93	13.881525	-56.912167	118.13	-1.170	-1.260	2.210	117.87	-3.70	3.00	 	 	 	 	 	 	 	 	 	 	 	 	 	 	 	 	 	 	1581468593	6.95	12.87
12/02/2020 00:49:54	120220	12022020	004954	117.45	13.881500	-56.912145	117.63	0.010	-3.370	3.000	117.45	-4.40	3.30	 	 	 	 	 	 	 	 	 	 	 	 	 	 	 	 	 	 	1581468594	7.25	13.43
12/02/2020 00:49:55	120220	12022020	004955	116.85	13.881480	-56.912127	117.05	0.870	-3.340	3.540	116.74	-4.20	4.00	 	 	 	 	 	 	 	 	 	 	 	 	 	 	 	 	 	 	1581468595	5.68	10.52
12/02/2020 00:49:56	120220	12022020	004956	116.41	13.881470	-56.912112	116.64	1.090	-1.690	3.120	116.36	-2.20	3.20	 	 	 	 	 	 	 	 	 	 	 	 	 	 	 	 	 	 	1581468596	3.76	6.96
12/02/2020 00:49:57	120220	12022020	004957	116.23	13.881467	-56.912095	116.47	0.830	0.280	1.960	116.24	-0.40	1.90	 	 	 	 	 	 	 	 	 	 	 	 	 	 	 	 	 	 	1581468597	3.49	6.46
12/02/2020 00:49:58	120220	12022020	004958	116.41	13.881463	-56.912077	116.68	0.300	1.730	0.710	116.49	0.60	0.80	 	 	 	 	 	 	 	 	 	 	 	 	 	 	 	 	 	 	1581468598	3.92	7.26
12/02/2020 00:49:59	120220	12022020	004959	116.91	13.881458	-56.912057	117.17	-0.320	2.100	-0.140	117.01	0.50	0.20	 	 	 	 	 	 	 	 	 	 	 	 	 	 	 	 	 	 	1581468599	4.41	8.17
12/02/2020 00:50:00	120220	12022020	005000	117.31	13.881445	-56.912037	117.53	-0.790	1.450	-0.260	117.36	-0.40	0.40	 	 	 	 	 	 	 	 	 	 	 	 	 	 	 	 	 	 	1581468600	5.05	9.35
12/02/2020 00:50:01	120220	12022020	005001	117.35	13.881428	-56.912017	117.55	-0.850	0.270	0.410	117.31	-1.60	1.30	 	 	 	 	 	 	 	 	 	 	 	 	 	 	 	 	 	 	1581468601	5.59	10.35
12/02/2020 00:50:02	120220	12022020	005002	117.07	13.881408	-56.911998	117.28	-0.420	-0.950	1.570	117.00	-2.70	2.60	1017.20	26.10	26.20	20.60	20.60	-1.0	71.0	71.0	395.0	25.8	317.00	15.50	66.00	13.70	16	10088.0	27.1	27.1	1581468602	5.90	10.93
12/02/2020 00:50:03	120220	12022020	005003	116.71	13.881387	-56.911980	116.97	0.180	-1.670	2.910	116.64	-3.10	3.90	 	 	 	 	 	 	 	 	 	 	 	 	 	 	 	 	 	 	1581468603	5.87	10.87
12/02/2020 00:50:04	120220	12022020	005004	116.42	13.881367	-56.911965	116.70	0.500	-1.530	4.040	116.37	-2.60	4.80	 	 	 	 	 	 	 	 	 	 	 	 	 	 	 	 	 	 	1581468604	5.35	9.91
12/02/2020 00:50:05	120220	12022020	005005	116.23	13.881350	-56.911952	116.51	0.520	-0.760	4.450	116.19	-1.80	4.80	 	 	 	 	 	 	 	 	 	 	 	 	 	 	 	 	 	 	1581468605	4.60	8.52
12/02/2020 00:50:06	120220	12022020	005006	116.01	13.881338	-56.911935	116.26	0.490	-0.020	4.000	116.01	-1.60	4.60	 	 	 	 	 	 	 	 	 	 	 	 	 	 	 	 	 	 	1581468606	4.19	7.76
12/02/2020 00:50:07	120220	12022020	005007	115.73	13.881332	-56.911915	115.95	0.460	0.280	3.080	115.69	-1.10	3.20	 	 	 	 	 	 	 	 	 	 	 	 	 	 	 	 	 	 	1581468607	4.64	8.59
12/02/2020 00:50:08	120220	12022020	005008	115.58	13.881325	-56.911892	115.81	0.200	0.310	2.190	115.58	-1.10	2.90	 	 	 	 	 	 	 	 	 	 	 	 	 	 	 	 	 	 	1581468608	4.97	9.20
12/02/2020 00:50:09	120220	12022020	005009	115.58	13.881317	-56.911870	115.80	-0.270	0.260	1.610	115.58	-1.20	1.90	 	 	 	 	 	 	 	 	 	 	 	 	 	 	 	 	 	 	1581468609	4.85	8.98
12/02/2020 00:50:10	120220	12022020	005010	115.65	13.881305	-56.911850	115.88	-0.630	0.130	1.350	115.68	-1.40	1.80	 	 	 	 	 	 	 	 	 	 	 	 	 	 	 	 	 	 	1581468610	4.84	8.96
12/02/2020 00:50:11	120220	12022020	005011	115.77	13.881292	-56.911832	115.99	-0.560	-0.160	1.470	115.77	-1.80	2.10	 	 	 	 	 	 	 	 	 	 	 	 	 	 	 	 	 	 	1581468611	5.05	9.35
12/02/2020 00:50:12	120220	12022020	005012	115.68	13.881273	-56.911812	115.89	-0.120	-0.670	2.100	115.63	-2.20	2.90	 	 	 	 	 	 	 	 	 	 	 	 	 	 	 	 	 	 	1581468612	5.58	10.33
12/02/2020 00:50:13	120220	12022020	005013	115.54	13.881255	-56.911792	115.81	0.220	-0.890	2.920	115.54	-2.20	3.70	 	 	 	 	 	 	 	 	 	 	 	 	 	 	 	 	 	 	1581468613	5.76	10.67
12/02/2020 00:50:14	120220	12022020	005014	115.66	13.881237	-56.911777	115.97	0.180	-0.440	3.510	115.72	-1.50	4.00	 	 	 	 	 	 	 	 	 	 	 	 	 	 	 	 	 	 	1581468614	5.14	9.52
12/02/2020 00:50:15	120220	12022020	005015	115.94	13.881222	-56.911762	116.23	0.050	0.300	3.560	115.98	-0.90	3.90	 	 	 	 	 	 	 	 	 	 	 	 	 	 	 	 	 	 	1581468615	4.32	8.00
12/02/2020 00:50:16	120220	12022020	005016	115.98	13.881212	-56.911745	116.23	0.240	0.570	3.260	115.96	-0.90	3.50	 	 	 	 	 	 	 	 	 	 	 	 	 	 	 	 	 	 	1581468616	4.37	8.09
12/02/2020 00:50:17	120220	12022020	005017	115.85	13.881203	-56.911722	116.07	0.500	0.310	2.730	115.83	-1.20	3.00	 	 	 	 	 	 	 	 	 	 	 	 	 	 	 	 	 	 	1581468617	5.00	9.26
12/02/2020 00:50:18	120220	12022020	005018	115.84	13.881197	-56.911698	116.09	0.320	-0.020	2.230	115.87	-1.50	2.60	 	 	 	 	 	 	 	 	 	 	 	 	 	 	 	 	 	 	1581468618	5.11	9.46
12/02/2020 00:50:19	120220	12022020	005019	116.09	13.881187	-56.911678	116.37	-0.260	-0.270	2.050	116.16	-1.80	2.60	 	 	 	 	 	 	 	 	 	 	 	 	 	 	 	 	 	 	1581468619	4.76	8.82
12/02/2020 00:50:20	120220	12022020	005020	116.44	13.881170	-56.911662	116.72	-0.710	-0.580	2.350	116.44	-1.90	2.70	 	 	 	 	 	 	 	 	 	 	 	 	 	 	 	 	 	 	1581468620	5.06	9.37
12/02/2020 00:50:21	120220	12022020	005021	116.53	13.881148	-56.911645	116.75	-0.450	-1.070	2.840	116.49	-2.60	3.40	 	 	 	 	 	 	 	 	 	 	 	 	 	 	 	 	 	 	1581468621	5.81	10.76
12/02/2020 00:50:22	120220	12022020	005022	116.10	13.881130	-56.911625	116.26	0.480	-1.430	3.070	115.98	-2.80	3.50	 	 	 	 	 	 	 	 	 	 	 	 	 	 	 	 	 	 	1581468622	5.89	10.91
12/02/2020 00:50:23	120220	12022020	005023	115.57	13.881117	-56.911603	115.77	1.110	-1.010	2.930	115.52	-1.90	3.30	 	 	 	 	 	 	 	 	 	 	 	 	 	 	 	 	 	 	1581468623	5.39	9.98
12/02/2020 00:50:24	120220	12022020	005024	115.57	13.881108	-56.911585	115.84	0.650	0.300	2.630	115.64	-0.50	2.90	 	 	 	 	 	 	 	 	 	 	 	 	 	 	 	 	 	 	1581468624	4.21	7.80
12/02/2020 00:50:25	120220	12022020	005025	116.02	13.881102	-56.911570	116.31	-0.570	1.670	2.180	116.12	0.60	2.50	 	 	 	 	 	 	 	 	 	 	 	 	 	 	 	 	 	 	1581468625	3.36	6.22
12/02/2020 00:50:26	120220	12022020	005026	116.40	13.881092	-56.911555	116.65	-1.500	1.980	1.890	116.43	0.20	2.30	 	 	 	 	 	 	 	 	 	 	 	 	 	 	 	 	 	 	1581468626	3.82	7.07
12/02/2020 00:50:27	120220	12022020	005027	116.46	13.881075	-56.911537	116.69	-1.300	0.700	1.980	116.44	-1.50	2.50	 	 	 	 	 	 	 	 	 	 	 	 	 	 	 	 	 	 	1581468627	5.33	9.87
12/02/2020 00:50:28	120220	12022020	005028	116.36	13.881055	-56.911512	116.59	-0.110	-1.390	2.200	116.34	-3.40	2.70	 	 	 	 	 	 	 	 	 	 	 	 	 	 	 	 	 	 	1581468628	6.71	12.43
12/02/2020 00:50:29	120220	12022020	005029	116.27	13.881037	-56.911487	116.52	1.120	-2.530	2.370	116.27	-3.80	2.80	 	 	 	 	 	 	 	 	 	 	 	 	 	 	 	 	 	 	1581468629	6.53	12.09
12/02/2020 00:50:30	120220	12022020	005030	116.28	13.881025	-56.911468	116.54	1.380	-1.740	2.330	116.29	-3.50	2.80	 	 	 	 	 	 	 	 	 	 	 	 	 	 	 	 	 	 	1581468630	4.75	8.80
12/02/2020 00:50:31	120220	12022020	005031	116.24	13.881018	-56.911455	116.43	0.650	0.130	2.170	116.19	-0.60	2.60	 	 	 	 	 	 	 	 	 	 	 	 	 	 	 	 	 	 	1581468631	3.08	5.70
12/02/2020 00:50:32	120220	12022020	005032	115.88	13.881012	-56.911443	116.03	-0.380	1.530	2.130	115.88	-0.10	2.60	 	 	 	 	 	 	 	 	 	 	 	 	 	 	 	 	 	 	1581468632	2.98	5.52
12/02/2020 00:50:33	120220	12022020	005033	115.39	13.881000	-56.911427	115.56	-1.100	1.710	2.290	115.31	0.00	2.80	 	 	 	 	 	 	 	 	 	 	 	 	 	 	 	 	 	 	1581468633	4.01	7.43
12/02/2020 00:50:34	120220	12022020	005034	115.09	13.880985	-56.911408	115.30	-1.210	0.660	2.510	115.07	-1.40	3.00	 	 	 	 	 	 	 	 	 	 	 	 	 	 	 	 	 	 	1581468634	5.26	9.74
12/02/2020 00:50:35	120220	12022020	005035	115.08	13.880967	-56.911385	115.32	-0.690	-1.070	2.520	115.09	-3.10	2.90	 	 	 	 	 	 	 	 	 	 	 	 	 	 	 	 	 	 	1581468635	6.20	11.48
12/02/2020 00:50:36	120220	12022020	005036	115.16	13.880948	-56.911362	115.39	0.160	-2.410	2.400	115.16	-3.90	2.90	 	 	 	 	 	 	 	 	 	 	 	 	 	 	 	 	 	 	1581468636	6.38	11.82
12/02/2020 00:50:37	120220	12022020	005037	115.10	13.880933	-56.911340	115.29	0.870	-2.160	2.440	115.07	-2.90	2.90	 	 	 	 	 	 	 	 	 	 	 	 	 	 	 	 	 	 	1581468637	5.39	9.98
12/02/2020 00:50:38	120220	12022020	005038	114.89	13.880923	-56.911325	115.09	1.000	-0.340	2.500	114.85	-0.80	2.90	 	 	 	 	 	 	 	 	 	 	 	 	 	 	 	 	 	 	1581468638	3.64	6.74
12/02/2020 00:50:39	120220	12022020	005039	114.68	13.880920	-56.911313	114.87	0.500	1.670	2.300	114.65	0.80	2.60	 	 	 	 	 	 	 	 	 	 	 	 	 	 	 	 	 	 	1581468639	2.74	5.07
12/02/2020 00:50:40	120220	12022020	005040	114.59	13.880915	-56.911298	114.80	-0.250	2.360	1.810	114.59	0.70	2.10	 	 	 	 	 	 	 	 	 	 	 	 	 	 	 	 	 	 	1581468640	3.40	6.30
12/02/2020 00:50:41	120220	12022020	005041	114.68	13.880907	-56.911277	114.88	-0.700	1.290	1.470	114.71	-0.90	1.90	 	 	 	 	 	 	 	 	 	 	 	 	 	 	 	 	 	 	1581468641	4.87	9.02
12/02/2020 00:50:42	120220	12022020	005042	114.85	13.880893	-56.911252	115.08	-0.560	-0.620	1.500	114.87	-2.70	2.10	 	 	 	 	 	 	 	 	 	 	 	 	 	 	 	 	 	 	1581468642	6.01	11.13
12/02/2020 00:50:43	120220	12022020	005043	114.85	13.880875	-56.911228	115.05	-0.070	-2.000	1.970	114.82	-3.50	2.70	 	 	 	 	 	 	 	 	 	 	 	 	 	 	 	 	 	 	1581468643	6.09	11.28
12/02/2020 00:50:44	120220	12022020	005044	114.65	13.880860	-56.911212	114.83	0.230	-1.930	2.610	114.65	-3.50	2.90	 	 	 	 	 	 	 	 	 	 	 	 	 	 	 	 	 	 	1581468644	5.06	9.37
12/02/2020 00:50:45	120220	12022020	005045	114.38	13.880847	-56.911200	114.59	0.120	-0.810	3.120	114.32	-1.70	3.70	 	 	 	 	 	 	 	 	 	 	 	 	 	 	 	 	 	 	1581468645	3.88	7.19
12/02/2020 00:50:46	120220	12022020	005046	114.08	13.880835	-56.911187	114.30	-0.130	0.150	3.260	114.03	-1.10	3.70	 	 	 	 	 	 	 	 	 	 	 	 	 	 	 	 	 	 	1581468646	3.65	6.76
12/02/2020 00:50:47	120220	12022020	005047	113.91	13.880825	-56.911168	114.14	-0.160	0.290	3.050	113.90	-1.20	3.40	 	 	 	 	 	 	 	 	 	 	 	 	 	 	 	 	 	 	1581468647	4.45	8.24
12/02/2020 00:50:48	120220	12022020	005048	113.97	13.880815	-56.911145	114.24	0.070	-0.050	2.630	114.01	-1.60	2.90	 	 	 	 	 	 	 	 	 	 	 	 	 	 	 	 	 	 	1581468648	5.24	9.70
12/02/2020 00:50:49	120220	12022020	005049	114.16	13.880805	-56.911122	114.41	0.320	-0.280	2.150	114.20	-1.70	2.40	 	 	 	 	 	 	 	 	 	 	 	 	 	 	 	 	 	 	1581468649	5.30	9.82
12/02/2020 00:50:50	120220	12022020	005050	114.34	13.880797	-56.911100	114.58	0.310	-0.160	1.790	114.37	-1.40	2.20	 	 	 	 	 	 	 	 	 	 	 	 	 	 	 	 	 	 	1581468650	4.92	9.11
12/02/2020 00:50:51	120220	12022020	005051	114.53	13.880787	-56.911082	114.78	-0.020	0.370	1.840	114.58	-0.70	2.40	 	 	 	 	 	 	 	 	 	 	 	 	 	 	 	 	 	 	1581468651	4.32	8.00
12/02/2020 00:50:52	120220	12022020	005052	114.81	13.880777	-56.911068	115.07	-0.410	1.080	2.020	114.88	-0.20	2.50	 	 	 	 	 	 	 	 	 	 	 	 	 	 	 	 	 	 	1581468652	3.75	6.95
12/02/2020 00:50:53	120220	12022020	005053	115.09	13.880767	-56.911052	115.31	-0.490	1.010	2.100	115.13	-0.80	2.60	 	 	 	 	 	 	 	 	 	 	 	 	 	 	 	 	 	 	1581468653	3.94	7.30
12/02/2020 00:50:54	120220	12022020	005054	115.10	13.880752	-56.911032	115.27	-0.110	-0.350	2.300	115.06	-2.40	2.90	 	 	 	 	 	 	 	 	 	 	 	 	 	 	 	 	 	 	1581468654	5.32	9.85
12/02/2020 00:50:55	120220	12022020	005055	114.88	13.880735	-56.911007	115.06	0.380	-1.800	2.750	114.84	-3.40	3.40	 	 	 	 	 	 	 	 	 	 	 	 	 	 	 	 	 	 	1581468655	6.19	11.46
12/02/2020 00:50:56	120220	12022020	005056	114.70	13.880722	-56.910987	114.92	0.560	-1.810	3.020	114.70	-3.30	3.50	 	 	 	 	 	 	 	 	 	 	 	 	 	 	 	 	 	 	1581468656	5.20	9.63
12/02/2020 00:50:57	120220	12022020	005057	114.55	13.880713	-56.910972	114.74	0.370	-0.620	2.830	114.51	-1.50	3.10	 	 	 	 	 	 	 	 	 	 	 	 	 	 	 	 	 	 	1581468657	3.62	6.70
12/02/2020 00:50:58	120220	12022020	005058	114.35	13.880707	-56.910957	114.56	0.030	0.370	2.400	114.35	-1.20	3.00	 	 	 	 	 	 	 	 	 	 	 	 	 	 	 	 	 	 	1581468658	3.54	6.56
12/02/2020 00:50:59	120220	12022020	005059	114.23	13.880698	-56.910937	114.43	-0.210	0.360	2.080	114.21	-1.20	2.50	 	 	 	 	 	 	 	 	 	 	 	 	 	 	 	 	 	 	1581468659	4.61	8.54
12/02/2020 00:51:00	120220	12022020	005100	114.20	13.880685	-56.910913	114.43	-0.240	-0.150	1.930	114.21	-1.60	2.30	 	 	 	 	 	 	 	 	 	 	 	 	 	 	 	 	 	 	1581468660	5.55	10.28
12/02/2020 00:51:01	120220	12022020	005101	114.38	13.880672	-56.910893	114.64	-0.230	-0.160	1.770	114.44	-1.40	2.10	 	 	 	 	 	 	 	 	 	 	 	 	 	 	 	 	 	 	1581468661	5.24	9.70
12/02/2020 00:51:02	120220	12022020	005102	114.69	13.880660	-56.910877	114.93	-0.230	0.400	1.520	114.75	-0.80	1.90	1017.20	26.10	26.20	20.60	20.70	-1.0	71.0	71.0	394.0	25.8	318.00	14.60	66.00	12.90	16	9959.0	27.1	27.1	1581468662	4.28	7.93
12/02/2020 00:51:03	120220	12022020	005103	114.91	13.880652	-56.910860	115.12	-0.220	0.720	1.450	114.93	-0.80	2.00	 	 	 	 	 	 	 	 	 	 	 	 	 	 	 	 	 	 	1581468663	4.04	7.48
12/02/2020 00:51:04	120220	12022020	005104	114.87	13.880640	-56.910840	115.04	-0.150	0.260	1.700	114.83	-1.50	2.30	 	 	 	 	 	 	 	 	 	 	 	 	 	 	 	 	 	 	1581468664	4.69	8.69
12/02/2020 00:51:05	120220	12022020	005105	114.59	13.880627	-56.910818	114.76	-0.040	-0.570	2.170	114.52	-2.20	2.90	 	 	 	 	 	 	 	 	 	 	 	 	 	 	 	 	 	 	1581468665	5.37	9.95
12/02/2020 00:51:06	120220	12022020	005106	114.27	13.880612	-56.910798	114.46	0.110	-1.090	2.730	114.21	-2.50	3.30	 	 	 	 	 	 	 	 	 	 	 	 	 	 	 	 	 	 	1581468666	5.37	9.95
12/02/2020 00:51:07	120220	12022020	005107	114.10	13.880597	-56.910780	114.34	0.330	-1.050	3.040	114.09	-2.30	3.50	 	 	 	 	 	 	 	 	 	 	 	 	 	 	 	 	 	 	1581468667	4.98	9.22
12/02/2020 00:51:08	120220	12022020	005108	114.07	13.880587	-56.910762	114.32	0.600	-0.600	2.920	114.08	-1.80	3.20	 	 	 	 	 	 	 	 	 	 	 	 	 	 	 	 	 	 	1581468668	4.56	8.45
12/02/2020 00:51:09	120220	12022020	005109	114.14	13.880578	-56.910742	114.41	0.670	-0.080	2.470	114.17	-1.30	2.80	 	 	 	 	 	 	 	 	 	 	 	 	 	 	 	 	 	 	1581468669	4.45	8.24
12/02/2020 00:51:10	120220	12022020	005110	114.29	13.880572	-56.910720	114.54	0.350	0.200	2.210	114.32	-1.20	2.70	 	 	 	 	 	 	 	 	 	 	 	 	 	 	 	 	 	 	1581468670	4.60	8.52
12/02/2020 00:51:11	120220	12022020	005111	114.38	13.880560	-56.910700	114.62	-0.190	0.200	2.350	114.37	-1.20	2.90	 	 	 	 	 	 	 	 	 	 	 	 	 	 	 	 	 	 	1581468671	4.92	9.11
12/02/2020 00:51:12	120220	12022020	005112	114.36	13.880545	-56.910682	114.61	-0.670	0.300	2.550	114.35	-1.00	3.00	 	 	 	 	 	 	 	 	 	 	 	 	 	 	 	 	 	 	1581468672	5.00	9.26
12/02/2020 00:51:13	120220	12022020	005113	114.36	13.880532	-56.910665	114.62	-0.850	0.460	2.630	114.37	-1.00	3.10	 	 	 	 	 	 	 	 	 	 	 	 	 	 	 	 	 	 	1581468673	4.69	8.69
12/02/2020 00:51:14	120220	12022020	005114	114.38	13.880518	-56.910647	114.63	-0.700	0.260	2.640	114.38	-1.40	3.10	 	 	 	 	 	 	 	 	 	 	 	 	 	 	 	 	 	 	1581468674	4.72	8.74
12/02/2020 00:51:15	120220	12022020	005115	114.31	13.880505	-56.910627	114.52	-0.310	-0.420	2.450	114.28	-2.10	2.80	 	 	 	 	 	 	 	 	 	 	 	 	 	 	 	 	 	 	1581468675	5.11	9.46
12/02/2020 00:51:16	120220	12022020	005116	114.15	13.880493	-56.910603	114.34	0.230	-1.270	2.160	114.10	-2.90	2.60	 	 	 	 	 	 	 	 	 	 	 	 	 	 	 	 	 	 	1581468676	5.59	10.35
12/02/2020 00:51:17	120220	12022020	005117	113.91	13.880482	-56.910578	114.08	0.740	-1.820	2.150	113.85	-3.10	2.70	 	 	 	 	 	 	 	 	 	 	 	 	 	 	 	 	 	 	1581468677	5.83	10.80
12/02/2020 00:51:18	120220	12022020	005118	113.63	13.880470	-56.910555	113.82	0.990	-1.370	2.190	113.60	-2.10	2.60	 	 	 	 	 	 	 	 	 	 	 	 	 	 	 	 	 	 	1581468678	5.39	9.98
12/02/2020 00:51:19	120220	12022020	005119	113.68	13.880463	-56.910538	113.93	0.630	0.400	1.840	113.75	-0.10	2.20	 	 	 	 	 	 	 	 	 	 	 	 	 	 	 	 	 	 	1581468679	3.97	7.35
12/02/2020 00:51:20	120220	12022020	005120	114.16	13.880458	-56.910525	114.42	-0.280	2.350	1.510	114.16	0.60	2.00	 	 	 	 	 	 	 	 	 	 	 	 	 	 	 	 	 	 	1581468680	2.75	5.09
12/02/2020 00:51:21	120220	12022020	005121	114.75	13.880450	-56.910512	114.99	-1.030	2.560	1.450	114.84	0.50	1.90	 	 	 	 	 	 	 	 	 	 	 	 	 	 	 	 	 	 	1581468681	3.46	6.41
12/02/2020 00:51:22	120220	12022020	005122	115.02	13.880433	-56.910488	115.20	-0.770	0.180	1.540	115.02	-0.40	2.00	 	 	 	 	 	 	 	 	 	 	 	 	 	 	 	 	 	 	1581468682	5.97	11.06
12/02/2020 00:51:23	120220	12022020	005123	114.75	13.880413	-56.910457	114.89	0.290	-2.850	2.020	114.64	-4.80	2.80	 	 	 	 	 	 	 	 	 	 	 	 	 	 	 	 	 	 	1581468683	7.89	14.61
12/02/2020 00:51:24	120220	12022020	005124	114.21	13.880395	-56.910432	114.39	0.910	-3.320	2.740	114.15	-3.90	3.30	 	 	 	 	 	 	 	 	 	 	 	 	 	 	 	 	 	 	1581468684	6.57	12.17
12/02/2020 00:51:25	120220	12022020	005125	114.06	13.880385	-56.910422	114.28	0.410	-0.780	2.750	114.09	-0.80	3.00	 	 	 	 	 	 	 	 	 	 	 	 	 	 	 	 	 	 	1581468685	3.10	5.74
12/02/2020 00:51:26	120220	12022020	005126	114.34	13.880382	-56.910417	114.58	-0.660	2.070	2.010	114.42	1.20	2.10	 	 	 	 	 	 	 	 	 	 	 	 	 	 	 	 	 	 	1581468686	1.32	2.44
12/02/2020 00:51:27	120220	12022020	005127	114.68	13.880378	-56.910402	114.87	-1.140	2.500	1.160	114.71	0.40	1.40	 	 	 	 	 	 	 	 	 	 	 	 	 	 	 	 	 	 	1581468687	3.00	5.56
12/02/2020 00:51:28	120220	12022020	005128	114.76	13.880367	-56.910377	114.91	-0.560	0.360	0.770	114.74	-2.10	1.30	 	 	 	 	 	 	 	 	 	 	 	 	 	 	 	 	 	 	1581468688	6.00	11.11
12/02/2020 00:51:29	120220	12022020	005129	114.60	13.880350	-56.910347	114.73	0.360	-1.970	0.920	114.56	-3.80	1.50	 	 	 	 	 	 	 	 	 	 	 	 	 	 	 	 	 	 	1581468689	7.18	13.30
12/02/2020 00:51:30	120220	12022020	005130	114.39	13.880335	-56.910323	114.55	0.730	-2.460	1.300	114.36	-3.40	2.00	 	 	 	 	 	 	 	 	 	 	 	 	 	 	 	 	 	 	1581468690	5.93	10.98
12/02/2020 00:51:31	120220	12022020	005131	114.33	13.880323	-56.910310	114.54	0.400	-0.870	1.700	114.36	-1.30	2.20	 	 	 	 	 	 	 	 	 	 	 	 	 	 	 	 	 	 	1581468691	3.71	6.87
12/02/2020 00:51:32	120220	12022020	005132	114.53	13.880317	-56.910302	114.89	-0.180	1.320	1.820	114.63	-0.50	2.30	 	 	 	 	 	 	 	 	 	 	 	 	 	 	 	 	 	 	1581468692	2.33	4.32
12/02/2020 00:51:33	120220	12022020	005133	115.15	13.880308	-56.910292	115.40	-0.480	2.100	1.730	115.24	0.40	2.10	 	 	 	 	 	 	 	 	 	 	 	 	 	 	 	 	 	 	1581468693	2.90	5.37
12/02/2020 00:51:34	120220	12022020	005134	115.42	13.880295	-56.910270	115.60	-0.190	0.800	1.650	115.42	-0.20	2.10	 	 	 	 	 	 	 	 	 	 	 	 	 	 	 	 	 	 	1581468694	5.01	9.28
12/02/2020 00:51:35	120220	12022020	005135	115.15	13.880280	-56.910245	115.28	0.430	-1.220	2.050	115.06	-3.20	2.80	 	 	 	 	 	 	 	 	 	 	 	 	 	 	 	 	 	 	1581468695	6.43	11.91
12/02/2020 00:51:36	120220	12022020	005136	114.71	13.880263	-56.910222	114.89	0.770	-2.060	2.660	114.66	-3.20	3.30	 	 	 	 	 	 	 	 	 	 	 	 	 	 	 	 	 	 	1581468696	5.97	11.06
12/02/2020 00:51:37	120220	12022020	005137	114.63	13.880253	-56.910207	114.88	0.450	-0.920	2.870	114.67	-1.50	3.30	 	 	 	 	 	 	 	 	 	 	 	 	 	 	 	 	 	 	1581468697	3.87	7.17
12/02/2020 00:51:38	120220	12022020	005138	114.93	13.880247	-56.910198	115.22	-0.350	0.900	2.750	115.02	-0.00	3.10	 	 	 	 	 	 	 	 	 	 	 	 	 	 	 	 	 	 	1581468698	2.39	4.43
12/02/2020 00:51:39	120220	12022020	005139	115.35	13.880237	-56.910187	115.63	-0.960	1.500	2.440	115.42	-0.30	2.70	 	 	 	 	 	 	 	 	 	 	 	 	 	 	 	 	 	 	1581468699	2.97	5.50
12/02/2020 00:51:40	120220	12022020	005140	115.53	13.880223	-56.910167	115.73	-0.690	0.070	2.110	115.49	-2.20	2.60	 	 	 	 	 	 	 	 	 	 	 	 	 	 	 	 	 	 	1581468700	5.14	9.52
12/02/2020 00:51:41	120220	12022020	005141	115.08	13.880205	-56.910142	115.20	0.270	-1.860	2.310	114.93	-3.60	2.90	 	 	 	 	 	 	 	 	 	 	 	 	 	 	 	 	 	 	1581468701	6.70	12.41
12/02/2020 00:51:42	120220	12022020	005142	114.40	13.880192	-56.910118	114.56	0.860	-1.960	2.640	114.30	-2.70	3.10	 	 	 	 	 	 	 	 	 	 	 	 	 	 	 	 	 	 	1581468702	5.63	10.43
12/02/2020 00:51:43	120220	12022020	005143	114.19	13.880183	-56.910107	114.45	0.430	-0.090	2.550	114.25	-0.60	2.80	 	 	 	 	 	 	 	 	 	 	 	 	 	 	 	 	 	 	1581468703	3.12	5.78
12/02/2020 00:51:44	120220	12022020	005144	114.70	13.880178	-56.910098	115.01	-0.560	1.820	1.970	114.85	0.70	2.20	 	 	 	 	 	 	 	 	 	 	 	 	 	 	 	 	 	 	1581468704	2.01	3.72
12/02/2020 00:51:45	120220	12022020	005145	115.45	13.880172	-56.910085	115.73	-1.070	1.980	1.380	115.57	0.10	1.70	 	 	 	 	 	 	 	 	 	 	 	 	 	 	 	 	 	 	1581468705	3.22	5.96
12/02/2020 00:51:46	120220	12022020	005146	115.80	13.880157	-56.910063	116.05	-0.590	0.290	1.260	115.83	-0.60	1.70	 	 	 	 	 	 	 	 	 	 	 	 	 	 	 	 	 	 	1581468706	5.33	9.87
12/02/2020 00:51:47	120220	12022020	005147	115.69	13.880140	-56.910038	115.87	0.450	-1.710	1.700	115.63	-3.60	2.40	 	 	 	 	 	 	 	 	 	 	 	 	 	 	 	 	 	 	1581468707	6.44	11.93
12/02/2020 00:51:48	120220	12022020	005148	115.38	13.880123	-56.910018	115.48	1.210	-2.310	2.320	115.29	-3.70	2.70	 	 	 	 	 	 	 	 	 	 	 	 	 	 	 	 	 	 	1581468708	5.63	10.43
12/02/2020 00:51:49	120220	12022020	005149	114.90	13.880112	-56.910003	115.11	1.150	-1.130	2.700	114.85	-1.70	3.20	 	 	 	 	 	 	 	 	 	 	 	 	 	 	 	 	 	 	1581468709	3.84	7.11
12/02/2020 00:51:50	120220	12022020	005150	114.80	13.880105	-56.909993	115.06	0.410	0.650	2.670	114.82	-0.20	3.00	 	 	 	 	 	 	 	 	 	 	 	 	 	 	 	 	 	 	1581468710	2.66	4.93
12/02/2020 00:51:51	120220	12022020	005151	114.99	13.880098	-56.909980	115.24	-0.380	1.570	2.310	115.03	0.20	2.60	 	 	 	 	 	 	 	 	 	 	 	 	 	 	 	 	 	 	1581468711	3.02	5.59
12/02/2020 00:51:52	120220	12022020	005152	115.22	13.880090	-56.909962	115.47	-0.740	1.120	1.740	115.27	-0.70	2.00	 	 	 	 	 	 	 	 	 	 	 	 	 	 	 	 	 	 	1581468712	4.28	7.93
12/02/2020 00:51:53	120220	12022020	005153	115.41	13.880078	-56.909940	115.62	-0.600	-0.050	1.390	115.41	-1.90	1.90	 	 	 	 	 	 	 	 	 	 	 	 	 	 	 	 	 	 	1581468713	5.24	9.70
12/02/2020 00:51:54	120220	12022020	005154	115.26	13.880062	-56.909920	115.44	-0.230	-1.140	1.770	115.18	-2.80	2.50	 	 	 	 	 	 	 	 	 	 	 	 	 	 	 	 	 	 	1581468714	5.49	10.17
12/02/2020 00:51:55	120220	12022020	005155	114.76	13.880045	-56.909902	114.92	0.120	-1.670	2.400	114.66	-3.00	3.00	 	 	 	 	 	 	 	 	 	 	 	 	 	 	 	 	 	 	1581468715	5.34	9.89
12/02/2020 00:51:56	120220	12022020	005156	114.43	13.880032	-56.909883	114.67	0.270	-1.330	2.650	114.43	-2.30	3.10	 	 	 	 	 	 	 	 	 	 	 	 	 	 	 	 	 	 	1581468716	4.69	8.69
12/02/2020 00:51:57	120220	12022020	005157	114.61	13.880022	-56.909870	114.91	0.240	-0.190	2.450	114.69	-1.10	2.80	 	 	 	 	 	 	 	 	 	 	 	 	 	 	 	 	 	 	1581468717	3.74	6.93
12/02/2020 00:51:58	120220	12022020	005158	115.06	13.880013	-56.909855	115.34	0.160	0.900	2.030	115.14	-0.30	2.30	 	 	 	 	 	 	 	 	 	 	 	 	 	 	 	 	 	 	1581468718	3.37	6.24
12/02/2020 00:51:59	120220	12022020	005159	115.31	13.880003	-56.909838	115.53	0.120	1.080	1.620	115.32	-0.40	2.00	 	 	 	 	 	 	 	 	 	 	 	 	 	 	 	 	 	 	1581468719	4.10	7.59
12/02/2020 00:52:00	120220	12022020	005200	115.30	13.879993	-56.909820	115.51	-0.100	0.760	1.570	115.28	-0.80	2.20	 	 	 	 	 	 	 	 	 	 	 	 	 	 	 	 	 	 	1581468720	4.60	8.52
12/02/2020 00:52:01	120220	12022020	005201	115.23	13.879982	-56.909803	115.45	-0.390	0.370	1.890	115.22	-1.20	2.50	 	 	 	 	 	 	 	 	 	 	 	 	 	 	 	 	 	 	1581468721	4.43	8.20
12/02/2020 00:52:02	120220	12022020	005202	115.18	13.879968	-56.909787	115.39	-0.330	-0.230	2.210	115.15	-2.10	2.80	1017.20	26.10	26.20	20.90	21.00	-1.0	73.0	73.0	399.0	25.8	320.00	14.30	68.00	12.50	16	9482.0	27.1	27.1	1581468722	4.36	8.07
12/02/2020 00:52:03	120220	12022020	005203	114.96	13.879955	-56.909765	115.17	0.290	-1.420	2.490	114.91	-3.30	3.10	 	 	 	 	 	 	 	 	 	 	 	 	 	 	 	 	 	 	1581468723	5.14	9.52
12/02/2020 00:52:04	120220	12022020	005204	114.71	13.879940	-56.909743	114.94	0.950	-2.360	2.850	114.68	-3.80	3.50	 	 	 	 	 	 	 	 	 	 	 	 	 	 	 	 	 	 	1581468724	5.80	10.74
12/02/2020 00:52:05	120220	12022020	005205	114.62	13.879925	-56.909723	114.88	0.980	-1.920	3.380	114.62	-2.70	4.00	 	 	 	 	 	 	 	 	 	 	 	 	 	 	 	 	 	 	1581468725	5.12	9.48
12/02/2020 00:52:06	120220	12022020	005206	114.71	13.879913	-56.909712	115.00	0.330	-0.100	3.570	114.75	-0.60	3.90	 	 	 	 	 	 	 	 	 	 	 	 	 	 	 	 	 	 	1581468726	3.64	6.74
12/02/2020 00:52:07	120220	12022020	005207	114.92	13.879905	-56.909703	115.20	-0.460	1.810	3.230	114.95	0.90	3.50	 	 	 	 	 	 	 	 	 	 	 	 	 	 	 	 	 	 	1581468727	2.68	4.96
12/02/2020 00:52:08	120220	12022020	005208	115.02	13.879897	-56.909690	115.27	-0.880	2.460	2.660	115.03	0.80	2.90	 	 	 	 	 	 	 	 	 	 	 	 	 	 	 	 	 	 	1581468728	3.22	5.96
12/02/2020 00:52:09	120220	12022020	005209	115.03	13.879888	-56.909668	115.27	-0.800	1.410	2.060	115.04	-0.70	2.30	 	 	 	 	 	 	 	 	 	 	 	 	 	 	 	 	 	 	1581468729	4.71	8.72
12/02/2020 00:52:10	120220	12022020	005210	115.20	13.879877	-56.909645	115.46	-0.450	-0.410	1.350	115.25	-2.40	1.60	 	 	 	 	 	 	 	 	 	 	 	 	 	 	 	 	 	 	1581468730	5.68	10.52
12/02/2020 00:52:11	120220	12022020	005211	115.42	13.879863	-56.909622	115.65	-0.090	-1.660	1.000	115.43	-3.20	1.50	 	 	 	 	 	 	 	 	 	 	 	 	 	 	 	 	 	 	1581468731	5.47	10.13
12/02/2020 00:52:12	120220	12022020	005212	115.37	13.879852	-56.909605	115.55	0.200	-1.740	1.250	115.37	-3.20	1.60	 	 	 	 	 	 	 	 	 	 	 	 	 	 	 	 	 	 	1581468732	4.50	8.33
12/02/2020 00:52:13	120220	12022020	005213	115.02	13.879840	-56.909590	115.18	0.430	-1.230	1.710	114.94	-2.40	2.40	 	 	 	 	 	 	 	 	 	 	 	 	 	 	 	 	 	 	1581468733	3.99	7.39
12/02/2020 00:52:14	120220	12022020	005214	114.64	13.879827	-56.909575	114.83	0.560	-0.700	2.060	114.59	-1.80	2.60	 	 	 	 	 	 	 	 	 	 	 	 	 	 	 	 	 	 	1581468734	4.19	7.76
12/02/2020 00:52:15	120220	12022020	005215	114.48	13.879815	-56.909558	114.69	0.520	-0.090	2.130	114.47	-1.10	2.60	 	 	 	 	 	 	 	 	 	 	 	 	 	 	 	 	 	 	1581468735	4.32	8.00
12/02/2020 00:52:16	120220	12022020	005216	114.53	13.879807	-56.909542	114.75	0.240	0.730	2.020	114.56	-0.40	2.50	 	 	 	 	 	 	 	 	 	 	 	 	 	 	 	 	 	 	1581468736	3.94	7.30
12/02/2020 00:52:17	120220	12022020	005217	114.64	13.879798	-56.909525	114.84	-0.160	1.030	1.990	114.65	-0.50	2.50	 	 	 	 	 	 	 	 	 	 	 	 	 	 	 	 	 	 	1581468737	4.01	7.43
12/02/2020 00:52:18	120220	12022020	005218	114.69	13.879785	-56.909507	114.89	-0.380	0.430	2.150	114.69	-1.30	2.70	 	 	 	 	 	 	 	 	 	 	 	 	 	 	 	 	 	 	1581468738	4.83	8.95
12/02/2020 00:52:19	120220	12022020	005219	114.65	13.879770	-56.909485	114.85	-0.270	-0.430	2.430	114.63	-2.00	3.00	 	 	 	 	 	 	 	 	 	 	 	 	 	 	 	 	 	 	1581468739	5.45	10.09
12/02/2020 00:52:20	120220	12022020	005220	114.57	13.879757	-56.909467	114.80	-0.030	-0.620	2.610	114.57	-1.80	3.10	 	 	 	 	 	 	 	 	 	 	 	 	 	 	 	 	 	 	1581468740	4.96	9.19
12/02/2020 00:52:21	120220	12022020	005221	114.58	13.879745	-56.909450	114.83	0.000	-0.180	2.760	114.59	-1.40	3.30	 	 	 	 	 	 	 	 	 	 	 	 	 	 	 	 	 	 	1581468741	3.99	7.39
12/02/2020 00:52:22	120220	12022020	005222	114.57	13.879733	-56.909437	114.81	-0.140	-0.000	3.050	114.54	-1.50	3.60	 	 	 	 	 	 	 	 	 	 	 	 	 	 	 	 	 	 	1581468742	3.98	7.37
12/02/2020 00:52:23	120220	12022020	005223	114.43	13.879720	-56.909418	114.69	-0.210	-0.500	3.240	114.40	-2.10	3.70	 	 	 	 	 	 	 	 	 	 	 	 	 	 	 	 	 	 	1581468743	4.84	8.96
12/02/2020 00:52:24	120220	12022020	005224	114.35	13.879707	-56.909397	114.63	-0.120	-0.960	3.020	114.35	-2.30	3.60	 	 	 	 	 	 	 	 	 	 	 	 	 	 	 	 	 	 	1581468744	5.25	9.72
12/02/2020 00:52:25	120220	12022020	005225	114.37	13.879695	-56.909378	114.65	0.040	-0.640	2.580	114.38	-1.70	2.80	 	 	 	 	 	 	 	 	 	 	 	 	 	 	 	 	 	 	1581468745	4.62	8.56
12/02/2020 00:52:26	120220	12022020	005226	114.42	13.879687	-56.909362	114.69	0.200	0.170	2.070	114.43	-0.90	2.30	 	 	 	 	 	 	 	 	 	 	 	 	 	 	 	 	 	 	1581468746	3.85	7.13
12/02/2020 00:52:27	120220	12022020	005227	114.50	13.879680	-56.909345	114.74	0.280	0.540	1.610	114.51	-0.90	1.90	 	 	 	 	 	 	 	 	 	 	 	 	 	 	 	 	 	 	1581468747	4.01	7.43
12/02/2020 00:52:28	120220	12022020	005228	114.50	13.879672	-56.909323	114.72	0.280	0.160	1.250	114.49	-1.50	1.60	 	 	 	 	 	 	 	 	 	 	 	 	 	 	 	 	 	 	1581468748	4.80	8.89
12/02/2020 00:52:29	120220	12022020	005229	114.42	13.879662	-56.909300	114.63	0.200	-0.460	1.140	114.40	-1.90	1.70	 	 	 	 	 	 	 	 	 	 	 	 	 	 	 	 	 	 	1581468749	5.27	9.76
12/02/2020 00:52:30	120220	12022020	005230	114.34	13.879650	-56.909280	114.57	-0.010	-0.550	1.430	114.34	-1.70	2.10	 	 	 	 	 	 	 	 	 	 	 	 	 	 	 	 	 	 	1581468750	4.90	9.07
12/02/2020 00:52:31	120220	12022020	005231	114.43	13.879638	-56.909265	114.68	-0.360	-0.050	1.850	114.47	-1.20	2.50	 	 	 	 	 	 	 	 	 	 	 	 	 	 	 	 	 	 	1581468751	4.20	7.78
12/02/2020 00:52:32	120220	12022020	005232	114.66	13.879625	-56.909250	114.91	-0.620	0.340	2.230	114.70	-1.10	2.80	 	 	 	 	 	 	 	 	 	 	 	 	 	 	 	 	 	 	1581468752	4.10	7.59
12/02/2020 00:52:33	120220	12022020	005233	114.80	13.879608	-56.909233	115.04	-0.450	-0.010	2.600	114.80	-1.70	3.20	 	 	 	 	 	 	 	 	 	 	 	 	 	 	 	 	 	 	1581468753	4.88	9.04
12/02/2020 00:52:34	120220	12022020	005234	114.77	13.879593	-56.909213	115.02	0.180	-0.750	2.790	114.77	-2.30	3.20	 	 	 	 	 	 	 	 	 	 	 	 	 	 	 	 	 	 	1581468754	5.58	10.33
12/02/2020 00:52:35	120220	12022020	005235	114.75	13.879582	-56.909192	115.02	0.700	-0.970	2.710	114.76	-2.20	3.10	 	 	 	 	 	 	 	 	 	 	 	 	 	 	 	 	 	 	1581468755	5.27	9.76
12/02/2020 00:52:36	120220	12022020	005236	114.81	13.879572	-56.909172	115.08	0.590	-0.440	2.600	114.81	-2.00	3.10	 	 	 	 	 	 	 	 	 	 	 	 	 	 	 	 	 	 	1581468756	4.39	8.13
12/02/2020 00:52:37	120220	12022020	005237	114.87	13.879562	-56.909157	115.12	0.010	0.280	2.460	114.87	-0.90	2.80	 	 	 	 	 	 	 	 	 	 	 	 	 	 	 	 	 	 	1581468757	3.90	7.22
12/02/2020 00:52:38	120220	12022020	005238	114.84	13.879552	-56.909140	115.08	-0.470	0.600	2.180	114.84	-0.80	2.70	 	 	 	 	 	 	 	 	 	 	 	 	 	 	 	 	 	 	1581468758	4.19	7.76
12/02/2020 00:52:39	120220	12022020	005239	114.90	13.879542	-56.909120	115.16	-0.560	0.510	1.720	114.93	-1.00	2.00	 	 	 	 	 	 	 	 	 	 	 	 	 	 	 	 	 	 	1581468759	4.65	8.61
12/02/2020 00:52:40	120220	12022020	005240	115.16	13.879532	-56.909100	115.43	-0.470	0.260	1.410	115.21	-1.30	1.90	 	 	 	 	 	 	 	 	 	 	 	 	 	 	 	 	 	 	1581468760	4.70	8.70
12/02/2020 00:52:41	120220	12022020	005241	115.41	13.879518	-56.909082	115.65	-0.360	-0.180	1.460	115.44	-1.80	2.00	 	 	 	 	 	 	 	 	 	 	 	 	 	 	 	 	 	 	1581468761	4.74	8.78
12/02/2020 00:52:42	120220	12022020	005242	115.37	13.879505	-56.909062	115.56	-0.090	-0.890	1.710	115.31	-2.50	2.40	 	 	 	 	 	 	 	 	 	 	 	 	 	 	 	 	 	 	1581468762	5.09	9.43
12/02/2020 00:52:43	120220	12022020	005243	114.99	13.879492	-56.909040	115.16	0.370	-1.440	2.180	114.91	-2.90	2.90	 	 	 	 	 	 	 	 	 	 	 	 	 	 	 	 	 	 	1581468763	5.40	10.00
12/02/2020 00:52:44	120220	12022020	005244	114.69	13.879477	-56.909020	114.91	0.720	-1.380	2.660	114.67	-2.50	3.30	 	 	 	 	 	 	 	 	 	 	 	 	 	 	 	 	 	 	1581468764	5.24	9.70
12/02/2020 00:52:45	120220	12022020	005245	114.62	13.879463	-56.909002	114.88	0.640	-0.660	2.990	114.62	-1.60	3.50	 	 	 	 	 	 	 	 	 	 	 	 	 	 	 	 	 	 	1581468765	4.85	8.98
12/02/2020 00:52:46	120220	12022020	005246	114.62	13.879450	-56.908987	114.88	0.120	0.570	3.040	114.62	-0.30	3.40	 	 	 	 	 	 	 	 	 	 	 	 	 	 	 	 	 	 	1581468766	4.17	7.72
12/02/2020 00:52:47	120220	12022020	005247	114.71	13.879442	-56.908973	115.00	-0.590	1.800	2.670	114.76	0.70	2.90	 	 	 	 	 	 	 	 	 	 	 	 	 	 	 	 	 	 	1581468767	3.50	6.48
12/02/2020 00:52:48	120220	12022020	005248	114.93	13.879435	-56.908957	115.20	-1.040	2.030	1.990	114.97	0.20	2.20	 	 	 	 	 	 	 	 	 	 	 	 	 	 	 	 	 	 	1581468768	3.72	6.89
12/02/2020 00:52:49	120220	12022020	005249	115.07	13.879427	-56.908933	115.30	-0.770	0.550	1.390	115.07	-1.80	1.70	 	 	 	 	 	 	 	 	 	 	 	 	 	 	 	 	 	 	1581468769	5.15	9.54
12/02/2020 00:52:50	120220	12022020	005250	115.02	13.879413	-56.908905	115.22	0.110	-1.730	1.230	114.99	-3.80	1.80	 	 	 	 	 	 	 	 	 	 	 	 	 	 	 	 	 	 	1581468770	6.59	12.20
12/02/2020 00:52:51	120220	12022020	005251	114.91	13.879398	-56.908880	115.15	0.810	-2.810	1.480	114.92	-3.90	2.10	 	 	 	 	 	 	 	 	 	 	 	 	 	 	 	 	 	 	1581468771	6.32	11.70
12/02/2020 00:52:52	120220	12022020	005252	115.05	13.879385	-56.908863	115.32	0.660	-1.700	1.870	115.10	-2.20	2.50	 	 	 	 	 	 	 	 	 	 	 	 	 	 	 	 	 	 	1581468772	4.44	8.22
12/02/2020 00:52:53	120220	12022020	005253	115.27	13.879372	-56.908855	115.52	-0.100	0.360	2.350	115.28	-0.30	3.00	 	 	 	 	 	 	 	 	 	 	 	 	 	 	 	 	 	 	1581468773	3.26	6.04
12/02/2020 00:52:54	120220	12022020	005254	115.16	13.879358	-56.908845	115.38	-0.630	1.550	2.750	115.10	0.20	3.30	 	 	 	 	 	 	 	 	 	 	 	 	 	 	 	 	 	 	1581468774	3.57	6.61
12/02/2020 00:52:55	120220	12022020	005255	114.87	13.879347	-56.908827	115.08	-0.460	1.220	2.710	114.83	-0.60	3.00	 	 	 	 	 	 	 	 	 	 	 	 	 	 	 	 	 	 	1581468775	4.77	8.83
12/02/2020 00:52:56	120220	12022020	005256	114.75	13.879335	-56.908802	114.99	0.120	0.060	2.300	114.75	-1.70	2.60	 	 	 	 	 	 	 	 	 	 	 	 	 	 	 	 	 	 	1581468776	5.78	10.70
12/02/2020 00:52:57	120220	12022020	005257	114.79	13.879327	-56.908775	115.01	0.540	-0.870	1.860	114.80	-2.40	2.20	 	 	 	 	 	 	 	 	 	 	 	 	 	 	 	 	 	 	1581468777	5.80	10.74
12/02/2020 00:52:58	120220	12022020	005258	114.84	13.879318	-56.908752	115.07	0.440	-1.170	1.610	114.85	-2.50	2.10	 	 	 	 	 	 	 	 	 	 	 	 	 	 	 	 	 	 	1581468778	5.19	9.61
12/02/2020 00:52:59	120220	12022020	005259	114.95	13.879307	-56.908733	115.21	-0.050	-0.840	1.870	114.99	-1.90	2.60	 	 	 	 	 	 	 	 	 	 	 	 	 	 	 	 	 	 	1581468779	4.70	8.70
12/02/2020 00:53:00	120220	12022020	005300	115.20	13.879290	-56.908720	115.58	-0.520	0.030	2.410	115.28	-1.60	2.80	 	 	 	 	 	 	 	 	 	 	 	 	 	 	 	 	 	 	1581468780	4.47	8.28
12/02/2020 00:53:01	120220	12022020	005301	115.64	13.879273	-56.908708	115.91	-0.590	0.760	2.850	115.67	-0.50	3.40	 	 	 	 	 	 	 	 	 	 	 	 	 	 	 	 	 	 	1581468781	4.42	8.19
12/02/2020 00:53:02	120220	12022020	005302	115.64	13.879258	-56.908692	115.86	-0.190	0.670	2.910	115.64	-0.60	3.40	1017.30	26.10	26.10	20.90	21.00	-1.0	73.0	73.0	400.0	25.8	323.00	14.90	72.00	13.10	16	9672.0	27.1	27.1	1581468782	4.75	8.80
12/02/2020 00:53:03	120220	12022020	005303	115.46	13.879247	-56.908670	115.68	0.360	0.020	2.620	115.43	-1.60	2.90	 	 	 	 	 	 	 	 	 	 	 	 	 	 	 	 	 	 	1581468783	5.27	9.76
12/02/2020 00:53:04	120220	12022020	005304	115.34	13.879238	-56.908645	115.56	0.680	-0.620	2.230	115.31	-2.20	2.60	 	 	 	 	 	 	 	 	 	 	 	 	 	 	 	 	 	 	1581468784	5.36	9.93
12/02/2020 00:53:05	120220	12022020	005305	115.11	13.879228	-56.908622	115.32	0.630	-1.140	1.980	115.06	-2.60	2.40	 	 	 	 	 	 	 	 	 	 	 	 	 	 	 	 	 	 	1581468785	5.33	9.87
12/02/2020 00:53:06	120220	12022020	005306	114.82	13.879217	-56.908600	115.03	0.310	-1.350	2.060	114.77	-2.60	2.70	 	 	 	 	 	 	 	 	 	 	 	 	 	 	 	 	 	 	1581468786	5.38	9.96
12/02/2020 00:53:07	120220	12022020	005307	114.74	13.879202	-56.908580	115.01	-0.080	-0.750	2.290	114.77	-1.60	2.80	 	 	 	 	 	 	 	 	 	 	 	 	 	 	 	 	 	 	1581468787	5.00	9.26
12/02/2020 00:53:08	120220	12022020	005308	115.07	13.879190	-56.908565	115.38	-0.470	0.630	2.160	115.18	-0.20	2.50	 	 	 	 	 	 	 	 	 	 	 	 	 	 	 	 	 	 	1581468788	4.02	7.45
12/02/2020 00:53:09	120220	12022020	005309	115.69	13.879180	-56.908553	116.00	-0.780	1.770	1.780	115.81	0.50	2.10	 	 	 	 	 	 	 	 	 	 	 	 	 	 	 	 	 	 	1581468789	3.53	6.54
12/02/2020 00:53:10	120220	12022020	005310	116.13	13.879167	-56.908537	116.38	-0.740	1.490	1.690	116.15	-0.50	2.30	 	 	 	 	 	 	 	 	 	 	 	 	 	 	 	 	 	 	1581468790	4.40	8.15
12/02/2020 00:53:11	120220	12022020	005311	115.99	13.879150	-56.908513	116.18	-0.110	-0.290	2.070	115.90	-2.40	2.70	 	 	 	 	 	 	 	 	 	 	 	 	 	 	 	 	 	 	1581468791	6.07	11.24
12/02/2020 00:53:12	120220	12022020	005312	115.45	13.879133	-56.908487	115.63	0.710	-1.930	2.580	115.34	-3.50	3.30	 	 	 	 	 	 	 	 	 	 	 	 	 	 	 	 	 	 	1581468792	6.70	12.41
12/02/2020 00:53:13	120220	12022020	005313	114.98	13.879120	-56.908463	115.22	0.990	-2.050	3.040	114.93	-3.00	3.60	 	 	 	 	 	 	 	 	 	 	 	 	 	 	 	 	 	 	1581468793	5.60	10.37
12/02/2020 00:53:14	120220	12022020	005314	114.84	13.879108	-56.908448	115.12	0.500	-0.900	3.190	114.84	-2.60	3.70	 	 	 	 	 	 	 	 	 	 	 	 	 	 	 	 	 	 	1581468794	4.25	7.87
12/02/2020 00:53:15	120220	12022020	005315	115.08	13.879095	-56.908435	115.41	-0.260	0.460	3.090	115.16	-0.50	3.40	 	 	 	 	 	 	 	 	 	 	 	 	 	 	 	 	 	 	1581468795	3.83	7.09
12/02/2020 00:53:16	120220	12022020	005316	115.50	13.879083	-56.908418	115.80	-0.580	1.120	2.790	115.57	-0.30	3.00	 	 	 	 	 	 	 	 	 	 	 	 	 	 	 	 	 	 	1581468796	4.19	7.76
12/02/2020 00:53:17	120220	12022020	005317	115.81	13.879072	-56.908398	116.10	-0.330	0.800	2.230	115.85	-0.90	2.50	 	 	 	 	 	 	 	 	 	 	 	 	 	 	 	 	 	 	1581468797	5.04	9.33
12/02/2020 00:53:18	120220	12022020	005318	115.92	13.879062	-56.908373	116.16	0.060	-0.040	1.750	115.90	-1.70	2.20	 	 	 	 	 	 	 	 	 	 	 	 	 	 	 	 	 	 	1581468798	5.67	10.50
12/02/2020 00:53:19	120220	12022020	005319	115.66	13.879047	-56.908350	115.85	0.220	-0.740	1.860	115.57	-2.30	2.50	 	 	 	 	 	 	 	 	 	 	 	 	 	 	 	 	 	 	1581468799	5.71	10.57
12/02/2020 00:53:20	120220	12022020	005320	115.14	13.879032	-56.908330	115.33	0.150	-1.000	2.360	115.03	-2.30	3.00	 	 	 	 	 	 	 	 	 	 	 	 	 	 	 	 	 	 	1581468800	5.51	10.20
12/02/2020 00:53:21	120220	12022020	005321	114.70	13.879017	-56.908310	114.94	0.030	-0.760	2.650	114.65	-1.90	3.10	 	 	 	 	 	 	 	 	 	 	 	 	 	 	 	 	 	 	1581468801	5.16	9.56
12/02/2020 00:53:22	120220	12022020	005322	114.69	13.879003	-56.908292	115.00	-0.060	-0.120	2.490	114.75	-1.10	2.80	 	 	 	 	 	 	 	 	 	 	 	 	 	 	 	 	 	 	1581468802	4.75	8.80
12/02/2020 00:53:23	120220	12022020	005323	115.15	13.878993	-56.908275	115.48	-0.210	0.810	2.000	115.27	-0.30	2.20	 	 	 	 	 	 	 	 	 	 	 	 	 	 	 	 	 	 	1581468803	4.18	7.74
12/02/2020 00:53:24	120220	12022020	005324	115.68	13.878985	-56.908258	115.95	-0.400	1.330	1.490	115.74	-0.20	1.90	 	 	 	 	 	 	 	 	 	 	 	 	 	 	 	 	 	 	1581468804	3.91	7.24
12/02/2020 00:53:25	120220	12022020	005325	115.73	13.878973	-56.908238	115.92	-0.280	0.500	1.590	115.66	-1.70	2.30	 	 	 	 	 	 	 	 	 	 	 	 	 	 	 	 	 	 	1581468805	4.86	9.00
12/02/2020 00:53:26	120220	12022020	005326	115.27	13.878955	-56.908213	115.44	0.320	-1.530	2.130	115.27	-2.40	2.50	 	 	 	 	 	 	 	 	 	 	 	 	 	 	 	 	 	 	1581468806	6.65	12.32
12/02/2020 00:53:27	120220	12022020	005327	114.72	13.878935	-56.908187	114.92	0.980	-2.790	2.760	114.63	-4.00	3.40	 	 	 	 	 	 	 	 	 	 	 	 	 	 	 	 	 	 	1581468807	7.06	13.08
12/02/2020 00:53:28	120220	12022020	005328	114.48	13.878922	-56.908167	114.76	1.000	-1.790	3.040	114.48	-3.60	3.50	 	 	 	 	 	 	 	 	 	 	 	 	 	 	 	 	 	 	1581468808	5.16	9.56
12/02/2020 00:53:29	120220	12022020	005329	114.61	13.878915	-56.908153	114.90	0.220	0.660	2.780	114.64	0.20	3.10	 	 	 	 	 	 	 	 	 	 	 	 	 	 	 	 	 	 	1581468809	2.95	5.46
12/02/2020 00:53:30	120220	12022020	005330	114.75	13.878908	-56.908143	115.01	-0.940	2.540	2.410	114.76	1.40	2.70	 	 	 	 	 	 	 	 	 	 	 	 	 	 	 	 	 	 	1581468810	2.60	4.82
12/02/2020 00:53:31	120220	12022020	005331	114.77	13.878898	-56.908128	115.02	-1.740	2.470	2.090	114.77	0.40	2.40	 	 	 	 	 	 	 	 	 	 	 	 	 	 	 	 	 	 	1581468811	3.96	7.33
12/02/2020 00:53:32	120220	12022020	005332	114.76	13.878882	-56.908105	115.01	-1.500	0.310	1.880	114.77	-2.20	2.30	 	 	 	 	 	 	 	 	 	 	 	 	 	 	 	 	 	 	1581468812	6.11	11.32
12/02/2020 00:53:33	120220	12022020	005333	114.75	13.878862	-56.908075	114.97	-0.250	-2.360	1.900	114.71	-4.40	2.40	 	 	 	 	 	 	 	 	 	 	 	 	 	 	 	 	 	 	1581468813	7.44	13.78
12/02/2020 00:53:34	120220	12022020	005334	114.47	13.878845	-56.908048	114.64	1.130	-3.320	2.080	114.38	-4.30	2.60	 	 	 	 	 	 	 	 	 	 	 	 	 	 	 	 	 	 	1581468814	6.63	12.28
12/02/2020 00:53:35	120220	12022020	005335	114.03	13.878835	-56.908030	114.21	1.580	-1.810	2.170	113.96	-2.20	2.70	 	 	 	 	 	 	 	 	 	 	 	 	 	 	 	 	 	 	1581468815	4.37	8.09
12/02/2020 00:53:36	120220	12022020	005336	113.79	13.878828	-56.908018	114.03	0.900	0.680	2.370	113.79	0.10	2.90	 	 	 	 	 	 	 	 	 	 	 	 	 	 	 	 	 	 	1581468816	2.81	5.20
12/02/2020 00:53:37	120220	12022020	005337	113.99	13.878820	-56.908008	114.31	-0.220	2.370	2.540	114.09	1.20	3.00	 	 	 	 	 	 	 	 	 	 	 	 	 	 	 	 	 	 	1581468817	3.00	5.56
12/02/2020 00:53:38	120220	12022020	005338	114.52	13.878808	-56.907993	114.84	-0.960	2.540	2.430	114.62	0.80	2.80	 	 	 	 	 	 	 	 	 	 	 	 	 	 	 	 	 	 	1581468818	3.98	7.37
12/02/2020 00:53:39	120220	12022020	005339	114.88	13.878797	-56.907972	115.14	-0.880	1.260	2.300	114.89	-1.00	2.80	 	 	 	 	 	 	 	 	 	 	 	 	 	 	 	 	 	 	1581468819	5.03	9.32
12/02/2020 00:53:40	120220	12022020	005340	114.75	13.878783	-56.907947	114.97	-0.100	-0.950	2.490	114.68	-3.20	3.10	 	 	 	 	 	 	 	 	 	 	 	 	 	 	 	 	 	 	1581468820	6.14	11.37
12/02/2020 00:53:41	120220	12022020	005341	114.30	13.878767	-56.907920	114.51	0.750	-2.790	3.030	114.20	-4.50	3.80	 	 	 	 	 	 	 	 	 	 	 	 	 	 	 	 	 	 	1581468821	6.49	12.02
12/02/2020 00:53:42	120220	12022020	005342	113.82	13.878752	-56.907898	114.08	1.060	-3.110	3.780	113.76	-4.10	4.50	 	 	 	 	 	 	 	 	 	 	 	 	 	 	 	 	 	 	1581468822	5.80	10.74
12/02/2020 00:53:43	120220	12022020	005343	113.68	13.878737	-56.907882	114.01	0.690	-1.760	4.220	113.70	-2.30	4.70	 	 	 	 	 	 	 	 	 	 	 	 	 	 	 	 	 	 	1581468823	4.51	8.35
12/02/2020 00:53:44	120220	12022020	005344	113.94	13.878727	-56.907870	114.30	-0.060	0.290	3.940	114.03	-0.30	4.10	 	 	 	 	 	 	 	 	 	 	 	 	 	 	 	 	 	 	1581468824	3.54	6.56
12/02/2020 00:53:45	120220	12022020	005345	114.42	13.878718	-56.907855	114.75	-0.720	2.000	3.070	114.52	1.00	3.10	 	 	 	 	 	 	 	 	 	 	 	 	 	 	 	 	 	 	1581468825	3.33	6.17
12/02/2020 00:53:46	120220	12022020	005346	114.87	13.878710	-56.907838	115.17	-0.970	2.450	2.180	114.95	0.80	2.40	 	 	 	 	 	 	 	 	 	 	 	 	 	 	 	 	 	 	1581468826	4.02	7.45
12/02/2020 00:53:47	120220	12022020	005347	115.09	13.878700	-56.907815	115.34	-0.770	1.310	1.640	115.09	-0.80	2.00	 	 	 	 	 	 	 	 	 	 	 	 	 	 	 	 	 	 	1581468827	5.37	9.95
12/02/2020 00:53:48	120220	12022020	005348	115.02	13.878687	-56.907788	115.22	-0.320	-0.460	1.300	114.99	-2.40	1.70	 	 	 	 	 	 	 	 	 	 	 	 	 	 	 	 	 	 	1581468828	6.21	11.50
12/02/2020 00:53:49	120220	12022020	005349	114.87	13.878673	-56.907765	115.07	0.180	-1.540	1.040	114.85	-3.00	1.50	 	 	 	 	 	 	 	 	 	 	 	 	 	 	 	 	 	 	1581468829	5.82	10.78
12/02/2020 00:53:50	120220	12022020	005350	114.79	13.878663	-56.907745	114.97	0.630	-1.490	1.010	114.77	-2.60	1.50	 	 	 	 	 	 	 	 	 	 	 	 	 	 	 	 	 	 	1581468830	4.75	8.80
12/02/2020 00:53:51	120220	12022020	005351	114.76	13.878655	-56.907727	114.97	0.860	-0.860	1.100	114.77	-2.00	1.60	 	 	 	 	 	 	 	 	 	 	 	 	 	 	 	 	 	 	1581468831	4.13	7.65
12/02/2020 00:53:52	120220	12022020	005352	114.88	13.878647	-56.907708	115.11	0.770	-0.390	1.180	114.88	-1.80	1.60	 	 	 	 	 	 	 	 	 	 	 	 	 	 	 	 	 	 	1581468832	4.34	8.04
12/02/2020 00:53:53	120220	12022020	005353	114.98	13.878633	-56.907688	115.20	0.430	-0.240	1.570	114.98	-1.50	2.40	 	 	 	 	 	 	 	 	 	 	 	 	 	 	 	 	 	 	1581468833	4.95	9.17
12/02/2020 00:53:54	120220	12022020	005354	114.95	13.878617	-56.907672	115.18	-0.070	0.080	2.390	114.94	-1.00	3.20	 	 	 	 	 	 	 	 	 	 	 	 	 	 	 	 	 	 	1581468834	5.17	9.57
12/02/2020 00:53:55	120220	12022020	005355	114.88	13.878600	-56.907657	115.13	-0.580	0.720	3.120	114.87	-0.50	3.80	 	 	 	 	 	 	 	 	 	 	 	 	 	 	 	 	 	 	1581468835	4.68	8.67
12/02/2020 00:53:56	120220	12022020	005356	114.75	13.878585	-56.907642	114.97	-0.810	0.930	3.400	114.70	-0.70	3.80	 	 	 	 	 	 	 	 	 	 	 	 	 	 	 	 	 	 	1581468836	4.45	8.24
12/02/2020 00:53:57	120220	12022020	005357	114.45	13.878572	-56.907620	114.64	-0.460	0.010	3.320	114.36	-2.00	3.80	 	 	 	 	 	 	 	 	 	 	 	 	 	 	 	 	 	 	1581468837	5.29	9.80
12/02/2020 00:53:58	120220	12022020	005358	113.89	13.878558	-56.907595	114.07	0.320	-1.380	3.380	113.76	-3.10	3.90	 	 	 	 	 	 	 	 	 	 	 	 	 	 	 	 	 	 	1581468838	6.34	11.74
12/02/2020 00:53:59	120220	12022020	005359	113.47	13.878545	-56.907568	113.75	0.890	-1.880	3.300	113.47	-3.00	3.60	 	 	 	 	 	 	 	 	 	 	 	 	 	 	 	 	 	 	1581468839	6.06	11.22
12/02/2020 00:54:00	120220	12022020	005400	113.79	13.878537	-56.907548	114.16	0.790	-0.930	2.730	113.95	-1.60	2.90	 	 	 	 	 	 	 	 	 	 	 	 	 	 	 	 	 	 	1581468840	4.68	8.67
12/02/2020 00:54:01	120220	12022020	005401	114.69	13.878532	-56.907533	115.06	0.150	0.790	1.930	114.88	0.00	2.20	 	 	 	 	 	 	 	 	 	 	 	 	 	 	 	 	 	 	1581468841	3.37	6.24
12/02/2020 00:54:02	120220	12022020	005402	115.51	13.878523	-56.907518	115.83	-0.500	1.900	1.450	115.63	0.50	1.90	1017.20	26.10	26.10	20.70	20.80	-1.0	72.0	72.0	397.0	25.8	322.00	15.30	70.00	13.40	16	9994.0	27.1	27.1	1581468842	3.30	6.11
12/02/2020 00:54:03	120220	12022020	005403	115.88	13.878512	-56.907502	116.14	-0.790	1.550	1.520	115.90	-0.40	2.20	 	 	 	 	 	 	 	 	 	 	 	 	 	 	 	 	 	 	1581468843	4.49	8.32
12/02/2020 00:54:04	120220	12022020	005404	115.79	13.878495	-56.907480	116.01	-0.650	0.090	1.950	115.79	-0.90	2.30	 	 	 	 	 	 	 	 	 	 	 	 	 	 	 	 	 	 	1581468844	5.78	10.70
12/02/2020 00:54:05	120220	12022020	005405	115.45	13.878477	-56.907457	115.65	-0.230	-1.400	2.460	115.36	-3.20	3.20	 	 	 	 	 	 	 	 	 	 	 	 	 	 	 	 	 	 	1581468845	6.16	11.41
12/02/2020 00:54:06	120220	12022020	005406	114.95	13.878460	-56.907435	115.14	0.320	-2.220	3.050	114.84	-3.70	3.80	 	 	 	 	 	 	 	 	 	 	 	 	 	 	 	 	 	 	1581468846	5.81	10.76
12/02/2020 00:54:07	120220	12022020	005407	114.33	13.878445	-56.907413	114.53	0.880	-2.270	3.470	114.23	-3.40	3.90	 	 	 	 	 	 	 	 	 	 	 	 	 	 	 	 	 	 	1581468847	5.47	10.13
12/02/2020 00:54:08	120220	12022020	005408	114.07	13.878437	-56.907393	114.36	1.070	-1.300	3.150	114.10	-1.90	3.30	 	 	 	 	 	 	 	 	 	 	 	 	 	 	 	 	 	 	1581468848	4.94	9.15
12/02/2020 00:54:09	120220	12022020	005409	114.52	13.878430	-56.907375	114.88	0.530	0.630	2.300	114.68	0.10	2.40	 	 	 	 	 	 	 	 	 	 	 	 	 	 	 	 	 	 	1581468849	3.82	7.07
12/02/2020 00:54:10	120220	12022020	005410	115.38	13.878425	-56.907362	115.73	-0.480	2.320	1.420	115.54	1.20	1.70	 	 	 	 	 	 	 	 	 	 	 	 	 	 	 	 	 	 	1581468850	3.16	5.85
12/02/2020 00:54:11	120220	12022020	005411	115.93	13.878415	-56.907345	116.21	-1.190	2.350	1.130	115.97	0.40	1.70	 	 	 	 	 	 	 	 	 	 	 	 	 	 	 	 	 	 	1581468851	4.12	7.63
12/02/2020 00:54:12	120220	12022020	005412	115.87	13.878398	-56.907323	116.10	-1.130	0.760	1.560	115.81	-1.40	2.40	 	 	 	 	 	 	 	 	 	 	 	 	 	 	 	 	 	 	1581468852	5.94	11.00
12/02/2020 00:54:13	120220	12022020	005413	115.48	13.878377	-56.907298	115.71	-0.410	-1.060	2.330	115.40	-2.90	3.10	 	 	 	 	 	 	 	 	 	 	 	 	 	 	 	 	 	 	1581468853	6.75	12.50
12/02/2020 00:54:14	120220	12022020	005414	115.13	13.878360	-56.907277	115.39	0.460	-1.820	2.820	115.08	-3.20	3.40	 	 	 	 	 	 	 	 	 	 	 	 	 	 	 	 	 	 	1581468854	5.89	10.91
12/02/2020 00:54:15	120220	12022020	005415	114.97	13.878348	-56.907258	115.25	0.940	-1.510	2.880	114.96	-2.60	3.30	 	 	 	 	 	 	 	 	 	 	 	 	 	 	 	 	 	 	1581468855	4.68	8.67
12/02/2020 00:54:16	120220	12022020	005416	114.88	13.878338	-56.907240	115.15	0.920	-0.920	2.720	114.88	-2.40	3.30	 	 	 	 	 	 	 	 	 	 	 	 	 	 	 	 	 	 	1581468856	4.31	7.98
12/02/2020 00:54:17	120220	12022020	005417	114.76	13.878328	-56.907220	115.02	0.620	-0.470	2.510	114.74	-1.70	2.90	 	 	 	 	 	 	 	 	 	 	 	 	 	 	 	 	 	 	1581468857	4.68	8.67
12/02/2020 00:54:18	120220	12022020	005418	114.71	13.878318	-56.907200	114.99	0.220	0.070	2.240	114.71	-1.50	2.80	 	 	 	 	 	 	 	 	 	 	 	 	 	 	 	 	 	 	1581468858	4.85	8.98
12/02/2020 00:54:19	120220	12022020	005419	114.85	13.878307	-56.907182	115.13	-0.250	0.820	1.940	114.88	-0.30	2.30	 	 	 	 	 	 	 	 	 	 	 	 	 	 	 	 	 	 	1581468859	4.44	8.22
12/02/2020 00:54:20	120220	12022020	005420	114.99	13.878297	-56.907163	115.24	-0.720	1.070	1.860	114.99	-0.50	2.40	 	 	 	 	 	 	 	 	 	 	 	 	 	 	 	 	 	 	1581468860	4.46	8.26
12/02/2020 00:54:21	120220	12022020	005421	114.90	13.878280	-56.907143	115.11	-0.900	0.280	2.170	114.84	-1.60	2.90	 	 	 	 	 	 	 	 	 	 	 	 	 	 	 	 	 	 	1581468861	5.48	10.15
12/02/2020 00:54:22	120220	12022020	005422	114.48	13.878262	-56.907120	114.68	-0.690	-0.810	2.820	114.38	-2.40	3.50	 	 	 	 	 	 	 	 	 	 	 	 	 	 	 	 	 	 	1581468862	6.33	11.72
12/02/2020 00:54:23	120220	12022020	005423	114.04	13.878243	-56.907100	114.27	-0.290	-1.110	3.230	113.99	-2.30	3.70	 	 	 	 	 	 	 	 	 	 	 	 	 	 	 	 	 	 	1581468863	5.83	10.80
12/02/2020 00:54:24	120220	12022020	005424	113.97	13.878232	-56.907080	114.27	0.110	-0.610	3.040	114.01	-1.70	3.30	 	 	 	 	 	 	 	 	 	 	 	 	 	 	 	 	 	 	1581468864	4.79	8.87
12/02/2020 00:54:25	120220	12022020	005425	114.23	13.878222	-56.907062	114.52	0.420	-0.080	2.590	114.28	-1.40	2.90	 	 	 	 	 	 	 	 	 	 	 	 	 	 	 	 	 	 	1581468865	4.47	8.28
12/02/2020 00:54:26	120220	12022020	005426	114.36	13.878212	-56.907040	114.58	0.640	0.040	2.270	114.35	-1.30	2.70	 	 	 	 	 	 	 	 	 	 	 	 	 	 	 	 	 	 	1581468866	4.88	9.04
12/02/2020 00:54:27	120220	12022020	005427	114.30	13.878203	-56.907018	114.53	0.630	0.080	2.010	114.30	-1.20	2.40	 	 	 	 	 	 	 	 	 	 	 	 	 	 	 	 	 	 	1581468867	5.09	9.43
12/02/2020 00:54:28	120220	12022020	005428	114.42	13.878193	-56.906997	114.68	0.360	0.260	1.730	114.47	-1.10	2.10	 	 	 	 	 	 	 	 	 	 	 	 	 	 	 	 	 	 	1581468868	4.76	8.82
12/02/2020 00:54:29	120220	12022020	005429	114.66	13.878183	-56.906977	114.90	0.110	0.100	1.640	114.69	-1.50	2.20	 	 	 	 	 	 	 	 	 	 	 	 	 	 	 	 	 	 	1581468869	4.85	8.98
12/02/2020 00:54:30	120220	12022020	005430	114.72	13.878170	-56.906955	114.95	0.040	-0.470	2.000	114.71	-2.10	2.70	 	 	 	 	 	 	 	 	 	 	 	 	 	 	 	 	 	 	1581468870	5.51	10.20
12/02/2020 00:54:31	120220	12022020	005431	114.53	13.878152	-56.906933	114.75	0.030	-0.900	2.660	114.47	-2.20	3.40	 	 	 	 	 	 	 	 	 	 	 	 	 	 	 	 	 	 	1581468871	5.84	10.82
12/02/2020 00:54:32	120220	12022020	005432	114.19	13.878137	-56.906915	114.42	-0.140	-0.610	3.140	114.14	-1.60	3.70	 	 	 	 	 	 	 	 	 	 	 	 	 	 	 	 	 	 	1581468872	5.25	9.72
12/02/2020 00:54:33	120220	12022020	005433	114.01	13.878125	-56.906898	114.25	-0.500	0.200	3.110	114.01	-0.90	3.50	 	 	 	 	 	 	 	 	 	 	 	 	 	 	 	 	 	 	1581468873	4.31	7.98
12/02/2020 00:54:34	120220	12022020	005434	114.12	13.878115	-56.906880	114.39	-0.780	0.540	2.750	114.15	-1.00	3.10	 	 	 	 	 	 	 	 	 	 	 	 	 	 	 	 	 	 	1581468874	4.29	7.95
12/02/2020 00:54:35	120220	12022020	005435	114.31	13.878103	-56.906858	114.56	-0.700	-0.100	2.380	114.34	-1.80	2.80	 	 	 	 	 	 	 	 	 	 	 	 	 	 	 	 	 	 	1581468875	5.37	9.95
12/02/2020 00:54:36	120220	12022020	005436	114.34	13.878088	-56.906833	114.56	-0.230	-1.000	2.190	114.32	-2.50	2.60	 	 	 	 	 	 	 	 	 	 	 	 	 	 	 	 	 	 	1581468876	6.22	11.52
12/02/2020 00:54:37	120220	12022020	005437	114.29	13.878073	-56.906808	114.53	0.370	-1.160	2.050	114.29	-2.30	2.40	 	 	 	 	 	 	 	 	 	 	 	 	 	 	 	 	 	 	1581468877	5.90	10.93
12/02/2020 00:54:38	120220	12022020	005438	114.40	13.878063	-56.906788	114.68	0.720	-0.310	1.820	114.45	-1.20	2.20	 	 	 	 	 	 	 	 	 	 	 	 	 	 	 	 	 	 	1581468878	4.76	8.82
12/02/2020 00:54:39	120220	12022020	005439	114.68	13.878055	-56.906772	114.95	0.540	0.820	1.670	114.73	-0.20	2.10	 	 	 	 	 	 	 	 	 	 	 	 	 	 	 	 	 	 	1581468879	3.92	7.26
12/02/2020 00:54:40	120220	12022020	005440	114.85	13.878047	-56.906755	115.09	0.010	1.200	1.600	114.86	-0.10	2.10	 	 	 	 	 	 	 	 	 	 	 	 	 	 	 	 	 	 	1581468880	4.14	7.67
12/02/2020 00:54:41	120220	12022020	005441	114.67	13.878033	-56.906733	114.84	-0.310	0.380	1.760	114.59	-1.50	2.40	 	 	 	 	 	 	 	 	 	 	 	 	 	 	 	 	 	 	1581468881	5.31	9.83
12/02/2020 00:54:42	120220	12022020	005442	114.30	13.878018	-56.906708	114.40	-0.190	-0.810	2.180	114.21	-1.90	2.60	 	 	 	 	 	 	 	 	 	 	 	 	 	 	 	 	 	 	1581468882	6.22	11.52
12/02/2020 00:54:43	120220	12022020	005443	114.00	13.878003	-56.906685	114.25	0.060	-1.170	2.560	114.02	-2.30	3.10	 	 	 	 	 	 	 	 	 	 	 	 	 	 	 	 	 	 	1581468883	5.77	10.69
12/02/2020 00:54:44	120220	12022020	005444	114.26	13.877990	-56.906668	114.57	0.070	-0.510	2.550	114.35	-1.50	2.90	 	 	 	 	 	 	 	 	 	 	 	 	 	 	 	 	 	 	1581468884	4.53	8.39
12/02/2020 00:54:45	120220	12022020	005445	114.75	13.877982	-56.906652	115.04	-0.150	0.250	2.070	114.83	-1.00	2.30	 	 	 	 	 	 	 	 	 	 	 	 	 	 	 	 	 	 	1581468885	3.91	7.24
12/02/2020 00:54:46	120220	12022020	005446	115.02	13.877972	-56.906632	115.25	-0.200	0.080	1.680	115.02	-1.60	2.20	 	 	 	 	 	 	 	 	 	 	 	 	 	 	 	 	 	 	1581468886	4.68	8.67
12/02/2020 00:54:47	120220	12022020	005447	114.82	13.877957	-56.906608	115.01	0.090	-0.820	2.020	114.75	-2.50	2.80	 	 	 	 	 	 	 	 	 	 	 	 	 	 	 	 	 	 	1581468887	6.03	11.17
12/02/2020 00:54:48	120220	12022020	005448	114.48	13.877938	-56.906585	114.70	0.340	-1.240	2.650	114.42	-2.40	3.30	 	 	 	 	 	 	 	 	 	 	 	 	 	 	 	 	 	 	1581468888	6.22	11.52
12/02/2020 00:54:49	120220	12022020	005449	114.24	13.877923	-56.906565	114.49	0.210	-0.570	3.010	114.21	-1.40	3.50	 	 	 	 	 	 	 	 	 	 	 	 	 	 	 	 	 	 	1581468889	5.18	9.59
12/02/2020 00:54:50	120220	12022020	005450	114.14	13.877912	-56.906548	114.38	-0.250	0.600	2.780	114.13	-0.40	3.00	 	 	 	 	 	 	 	 	 	 	 	 	 	 	 	 	 	 	1581468890	4.11	7.61
12/02/2020 00:54:51	120220	12022020	005451	114.15	13.877905	-56.906532	114.39	-0.610	1.240	2.130	114.16	-0.20	2.30	 	 	 	 	 	 	 	 	 	 	 	 	 	 	 	 	 	 	1581468891	4.10	7.59
12/02/2020 00:54:52	120220	12022020	005452	114.25	13.877897	-56.906508	114.50	-0.490	0.810	1.520	114.29	-1.00	1.80	 	 	 	 	 	 	 	 	 	 	 	 	 	 	 	 	 	 	1581468892	5.01	9.28
12/02/2020 00:54:53	120220	12022020	005453	114.48	13.877887	-56.906482	114.74	0.080	-0.380	1.040	114.55	-2.20	1.40	 	 	 	 	 	 	 	 	 	 	 	 	 	 	 	 	 	 	1581468893	6.00	11.11
12/02/2020 00:54:54	120220	12022020	005454	114.84	13.877873	-56.906457	115.11	0.540	-1.240	0.870	114.84	-2.50	1.40	 	 	 	 	 	 	 	 	 	 	 	 	 	 	 	 	 	 	1581468894	6.13	11.35
12/02/2020 00:54:55	120220	12022020	005455	115.17	13.877860	-56.906437	115.42	0.410	-1.010	1.380	115.21	-2.00	2.20	 	 	 	 	 	 	 	 	 	 	 	 	 	 	 	 	 	 	1581468895	5.24	9.70
12/02/2020 00:54:56	120220	12022020	005456	115.26	13.877843	-56.906423	115.50	-0.130	-0.010	2.320	115.24	-1.00	3.10	 	 	 	 	 	 	 	 	 	 	 	 	 	 	 	 	 	 	1581468896	4.40	8.15
12/02/2020 00:54:57	120220	12022020	005457	114.95	13.877828	-56.906410	115.16	-0.460	0.700	3.080	114.85	-0.70	3.70	 	 	 	 	 	 	 	 	 	 	 	 	 	 	 	 	 	 	1581468897	4.19	7.76
12/02/2020 00:54:58	120220	12022020	005458	114.35	13.877815	-56.906392	114.54	-0.170	0.350	3.420	114.21	-1.40	3.90	 	 	 	 	 	 	 	 	 	 	 	 	 	 	 	 	 	 	1581468898	4.93	9.13
12/02/2020 00:54:59	120220	12022020	005459	113.81	13.877802	-56.906367	114.05	0.420	-0.620	3.460	113.76	-2.30	3.80	 	 	 	 	 	 	 	 	 	 	 	 	 	 	 	 	 	 	1581468899	5.98	11.07
12/02/2020 00:55:00	120220	12022020	005500	113.82	13.877792	-56.906340	114.12	0.620	-1.060	3.020	113.88	-2.30	3.20	 	 	 	 	 	 	 	 	 	 	 	 	 	 	 	 	 	 	1581468900	5.78	10.70
12/02/2020 00:55:01	120220	12022020	005501	114.24	13.877783	-56.906320	114.56	0.220	-0.650	2.350	114.34	-1.70	2.70	 	 	 	 	 	 	 	 	 	 	 	 	 	 	 	 	 	 	1581468901	4.79	8.87
12/02/2020 00:55:02	120220	12022020	005502	114.59	13.877773	-56.906302	114.87	-0.340	0.020	2.100	114.62	-1.20	2.60	1017.10	26.10	26.20	20.80	20.90	-1.0	72.0	72.0	395.0	25.8	323.00	14.90	71.00	12.90	16	9701.0	27.1	27.1	1581468902	4.26	7.89
12/02/2020 00:55:03	120220	12022020	005503	114.62	13.877760	-56.906285	114.86	-0.430	0.220	2.260	114.59	-1.20	2.80	 	 	 	 	 	 	 	 	 	 	 	 	 	 	 	 	 	 	1581468903	4.72	8.74
12/02/2020 00:55:04	120220	12022020	005504	114.43	13.877745	-56.906263	114.66	-0.020	-0.140	2.510	114.38	-1.60	3.10	 	 	 	 	 	 	 	 	 	 	 	 	 	 	 	 	 	 	1581468904	5.49	10.17
12/02/2020 00:55:05	120220	12022020	005505	114.25	13.877732	-56.906240	114.50	0.300	-0.370	2.570	114.25	-1.60	3.00	 	 	 	 	 	 	 	 	 	 	 	 	 	 	 	 	 	 	1581468905	5.68	10.52
12/02/2020 00:55:06	120220	12022020	005506	114.38	13.877722	-56.906218	114.67	0.080	0.070	2.370	114.38	-1.40	2.90	 	 	 	 	 	 	 	 	 	 	 	 	 	 	 	 	 	 	1581468906	4.89	9.06
12/02/2020 00:55:07	120220	12022020	005507	114.70	13.877710	-56.906202	115.01	-0.440	0.650	2.250	114.76	-0.60	2.70	 	 	 	 	 	 	 	 	 	 	 	 	 	 	 	 	 	 	1581468907	4.24	7.85
12/02/2020 00:55:08	120220	12022020	005508	114.93	13.877698	-56.906185	115.20	-0.640	0.560	2.240	114.93	-0.70	2.70	 	 	 	 	 	 	 	 	 	 	 	 	 	 	 	 	 	 	1581468908	4.60	8.52
12/02/2020 00:55:09	120220	12022020	005509	114.96	13.877685	-56.906163	115.23	-0.300	-0.170	2.130	114.96	-1.80	2.50	 	 	 	 	 	 	 	 	 	 	 	 	 	 	 	 	 	 	1581468909	5.36	9.93
12/02/2020 00:55:10	120220	12022020	005510	114.96	13.877672	-56.906140	115.23	0.240	-0.840	1.970	114.96	-2.30	2.40	 	 	 	 	 	 	 	 	 	 	 	 	 	 	 	 	 	 	1581468910	5.56	10.30
12/02/2020 00:55:11	120220	12022020	005511	114.89	13.877660	-56.906118	115.14	0.630	-1.020	1.930	114.86	-2.30	2.40	 	 	 	 	 	 	 	 	 	 	 	 	 	 	 	 	 	 	1581468911	5.20	9.63
12/02/2020 00:55:12	120220	12022020	005512	114.70	13.877650	-56.906097	114.94	0.770	-0.930	1.960	114.66	-2.20	2.40	 	 	 	 	 	 	 	 	 	 	 	 	 	 	 	 	 	 	1581468912	5.02	9.30
12/02/2020 00:55:13	120220	12022020	005513	114.62	13.877640	-56.906073	114.89	0.660	-0.800	1.910	114.64	-2.00	2.40	 	 	 	 	 	 	 	 	 	 	 	 	 	 	 	 	 	 	1581468913	5.27	9.76
12/02/2020 00:55:14	120220	12022020	005514	114.84	13.877628	-56.906053	115.15	0.270	-0.270	2.010	114.91	-1.20	2.60	 	 	 	 	 	 	 	 	 	 	 	 	 	 	 	 	 	 	1581468914	5.15	9.54
12/02/2020 00:55:15	120220	12022020	005515	115.19	13.877615	-56.906037	115.50	-0.370	0.790	2.340	115.25	-0.10	3.00	 	 	 	 	 	 	 	 	 	 	 	 	 	 	 	 	 	 	1581468915	4.51	8.35
12/02/2020 00:55:16	120220	12022020	005516	115.43	13.877602	-56.906022	115.72	-0.970	1.600	2.570	115.46	0.30	3.10	 	 	 	 	 	 	 	 	 	 	 	 	 	 	 	 	 	 	1581468916	4.13	7.65
12/02/2020 00:55:17	120220	12022020	005517	115.49	13.877588	-56.906003	115.75	-1.120	1.140	2.550	115.47	-0.80	3.00	 	 	 	 	 	 	 	 	 	 	 	 	 	 	 	 	 	 	1581468917	4.75	8.80
12/02/2020 00:55:18	120220	12022020	005518	115.30	13.877572	-56.905978	115.53	-0.620	-0.610	2.610	115.24	-2.70	3.20	 	 	 	 	 	 	 	 	 	 	 	 	 	 	 	 	 	 	1581468918	6.28	11.63
12/02/2020 00:55:19	120220	12022020	005519	114.97	13.877553	-56.905952	115.20	0.170	-2.150	2.790	114.91	-3.70	3.30	 	 	 	 	 	 	 	 	 	 	 	 	 	 	 	 	 	 	1581468919	6.88	12.74
12/02/2020 00:55:20	120220	12022020	005520	114.70	13.877538	-56.905928	114.95	0.740	-2.190	2.780	114.67	-3.10	3.10	 	 	 	 	 	 	 	 	 	 	 	 	 	 	 	 	 	 	1581468920	5.85	10.83
12/02/2020 00:55:21	120220	12022020	005521	114.57	13.877530	-56.905910	114.81	0.940	-0.890	2.310	114.55	-1.60	2.50	 	 	 	 	 	 	 	 	 	 	 	 	 	 	 	 	 	 	1581468921	4.35	8.06
12/02/2020 00:55:22	120220	12022020	005522	114.56	13.877525	-56.905892	114.82	0.780	0.550	1.570	114.59	-0.30	1.80	 	 	 	 	 	 	 	 	 	 	 	 	 	 	 	 	 	 	1581468922	4.04	7.48
12/02/2020 00:55:23	120220	12022020	005523	114.85	13.877520	-56.905872	115.13	0.230	1.420	0.980	114.94	0.20	1.40	 	 	 	 	 	 	 	 	 	 	 	 	 	 	 	 	 	 	1581468923	4.35	8.06
12/02/2020 00:55:24	120220	12022020	005524	115.34	13.877510	-56.905852	115.63	-0.530	1.590	0.950	115.44	0.10	1.60	 	 	 	 	 	 	 	 	 	 	 	 	 	 	 	 	 	 	1581468924	4.60	8.52
12/02/2020 00:55:25	120220	12022020	005525	115.77	13.877497	-56.905833	116.05	-1.090	1.080	1.330	115.82	-0.70	2.10	 	 	 	 	 	 	 	 	 	 	 	 	 	 	 	 	 	 	1581468925	5.02	9.30
12/02/2020 00:55:26	120220	12022020	005526	115.82	13.877478	-56.905813	116.05	-1.040	-0.090	2.050	115.76	-2.00	2.90	 	 	 	 	 	 	 	 	 	 	 	 	 	 	 	 	 	 	1581468926	5.69	10.54
12/02/2020 00:55:27	120220	12022020	005527	115.34	13.877457	-56.905792	115.55	-0.330	-1.630	3.120	115.20	-3.50	4.00	 	 	 	 	 	 	 	 	 	 	 	 	 	 	 	 	 	 	1581468927	6.47	11.98
12/02/2020 00:55:28	120220	12022020	005528	114.70	13.877437	-56.905768	114.95	0.640	-2.670	3.990	114.59	-4.00	4.60	 	 	 	 	 	 	 	 	 	 	 	 	 	 	 	 	 	 	1581468928	6.66	12.33
12/02/2020 00:55:29	120220	12022020	005529	114.35	13.877420	-56.905747	114.65	1.210	-2.240	4.120	114.34	-2.90	4.40	 	 	 	 	 	 	 	 	 	 	 	 	 	 	 	 	 	 	1581468929	5.63	10.43
12/02/2020 00:55:30	120220	12022020	005530	114.40	13.877413	-56.905728	114.71	1.020	-0.510	3.380	114.43	-1.00	3.40	 	 	 	 	 	 	 	 	 	 	 	 	 	 	 	 	 	 	1581468930	4.14	7.67
12/02/2020 00:55:31	120220	12022020	005531	114.56	13.877408	-56.905712	114.84	0.390	1.130	2.230	114.58	0.20	2.30	 	 	 	 	 	 	 	 	 	 	 	 	 	 	 	 	 	 	1581468931	3.81	7.06
12/02/2020 00:55:32	120220	12022020	005532	114.65	13.877403	-56.905690	114.90	-0.260	1.790	1.390	114.65	0.40	2.00	 	 	 	 	 	 	 	 	 	 	 	 	 	 	 	 	 	 	1581468932	4.53	8.39
12/02/2020 00:55:33	120220	12022020	005533	114.85	13.877393	-56.905668	115.11	-0.760	1.610	1.010	114.91	0.00	1.40	 	 	 	 	 	 	 	 	 	 	 	 	 	 	 	 	 	 	1581468933	5.09	9.43
12/02/2020 00:55:34	120220	12022020	005534	115.14	13.877382	-56.905647	115.39	-1.010	0.920	0.850	115.18	-0.80	1.40	 	 	 	 	 	 	 	 	 	 	 	 	 	 	 	 	 	 	1581468934	5.29	9.80
12/02/2020 00:55:35	120220	12022020	005535	115.21	13.877367	-56.905625	115.44	-0.870	-0.180	1.060	115.19	-2.00	1.80	 	 	 	 	 	 	 	 	 	 	 	 	 	 	 	 	 	 	1581468935	5.54	10.26
12/02/2020 00:55:36	120220	12022020	005536	115.03	13.877350	-56.905602	115.25	-0.290	-1.400	1.710	114.96	-3.20	2.50	 	 	 	 	 	 	 	 	 	 	 	 	 	 	 	 	 	 	1581468936	5.92	10.96
12/02/2020 00:55:37	120220	12022020	005537	114.63	13.877332	-56.905580	114.85	0.570	-2.320	2.580	114.52	-3.80	3.40	 	 	 	 	 	 	 	 	 	 	 	 	 	 	 	 	 	 	1581468937	6.17	11.43
12/02/2020 00:55:38	120220	12022020	005538	114.13	13.877315	-56.905557	114.39	1.310	-2.450	3.270	114.06	-3.50	3.90	 	 	 	 	 	 	 	 	 	 	 	 	 	 	 	 	 	 	1581468938	6.05	11.20
12/02/2020 00:55:39	120220	12022020	005539	113.96	13.877302	-56.905537	114.28	1.440	-1.320	3.480	113.97	-1.80	3.90	 	 	 	 	 	 	 	 	 	 	 	 	 	 	 	 	 	 	1581468939	5.21	9.65
12/02/2020 00:55:40	120220	12022020	005540	114.18	13.877292	-56.905520	114.53	0.750	0.770	3.150	114.25	0.30	3.40	 	 	 	 	 	 	 	 	 	 	 	 	 	 	 	 	 	 	1581468940	3.89	7.20
12/02/2020 00:55:41	120220	12022020	005541	114.58	13.877287	-56.905505	114.92	-0.440	2.620	2.440	114.67	1.70	2.60	 	 	 	 	 	 	 	 	 	 	 	 	 	 	 	 	 	 	1581468941	3.29	6.09
12/02/2020 00:55:42	120220	12022020	005542	114.95	13.877280	-56.905488	115.25	-1.500	3.050	1.740	115.01	1.30	2.00	 	 	 	 	 	 	 	 	 	 	 	 	 	 	 	 	 	 	1581468942	3.83	7.09
12/02/2020 00:55:43	120220	12022020	005543	115.15	13.877268	-56.905467	115.42	-1.770	1.560	1.360	115.16	-0.80	1.80	 	 	 	 	 	 	 	 	 	 	 	 	 	 	 	 	 	 	1581468943	5.29	9.80
12/02/2020 00:55:44	120220	12022020	005544	115.12	13.877252	-56.905438	115.35	-1.020	-1.130	1.310	115.12	-1.80	1.80	 	 	 	 	 	 	 	 	 	 	 	 	 	 	 	 	 	 	1581468944	6.75	12.50
12/02/2020 00:55:45	120220	12022020	005545	114.80	13.877233	-56.905410	115.00	0.340	-3.480	1.610	114.70	-5.20	2.30	 	 	 	 	 	 	 	 	 	 	 	 	 	 	 	 	 	 	1581468945	7.29	13.50
12/02/2020 00:55:46	120220	12022020	005546	114.41	13.877218	-56.905385	114.63	1.360	-3.720	2.030	114.37	-4.40	2.70	 	 	 	 	 	 	 	 	 	 	 	 	 	 	 	 	 	 	1581468946	6.21	11.50
12/02/2020 00:55:47	120220	12022020	005547	114.35	13.877207	-56.905370	114.61	1.420	-1.640	2.270	114.37	-1.80	2.80	 	 	 	 	 	 	 	 	 	 	 	 	 	 	 	 	 	 	1581468947	4.04	7.48
12/02/2020 00:55:48	120220	12022020	005548	114.43	13.877200	-56.905358	114.68	0.780	0.910	2.260	114.42	0.30	2.70	 	 	 	 	 	 	 	 	 	 	 	 	 	 	 	 	 	 	1581468948	2.98	5.52
12/02/2020 00:55:49	120220	12022020	005549	114.34	13.877192	-56.905342	114.59	0.130	2.180	2.090	114.33	0.90	2.40	 	 	 	 	 	 	 	 	 	 	 	 	 	 	 	 	 	 	1581468949	3.88	7.19
12/02/2020 00:55:50	120220	12022020	005550	114.41	13.877182	-56.905318	114.70	-0.350	2.060	1.820	114.47	0.40	2.30	 	 	 	 	 	 	 	 	 	 	 	 	 	 	 	 	 	 	1581468950	5.19	9.61
12/02/2020 00:55:51	120220	12022020	005551	114.82	13.877170	-56.905295	115.13	-0.740	1.290	1.740	114.93	-0.40	2.20	 	 	 	 	 	 	 	 	 	 	 	 	 	 	 	 	 	 	1581468951	5.55	10.28
12/02/2020 00:55:52	120220	12022020	005552	115.33	13.877157	-56.905273	115.63	-0.970	0.300	1.790	115.40	-1.50	2.40	 	 	 	 	 	 	 	 	 	 	 	 	 	 	 	 	 	 	1581468952	5.41	10.02
12/02/2020 00:55:53	120220	12022020	005553	115.47	13.877140	-56.905253	115.71	-0.760	-0.900	2.180	115.43	-2.70	2.90	 	 	 	 	 	 	 	 	 	 	 	 	 	 	 	 	 	 	1581468953	5.58	10.33
12/02/2020 00:55:54	120220	12022020	005554	115.10	13.877122	-56.905232	115.33	-0.070	-2.000	2.910	115.01	-3.60	3.60	 	 	 	 	 	 	 	 	 	 	 	 	 	 	 	 	 	 	1581468954	5.98	11.07
12/02/2020 00:55:55	120220	12022020	005555	114.65	13.877105	-56.905210	114.91	0.700	-2.300	3.440	114.58	-3.40	4.00	 	 	 	 	 	 	 	 	 	 	 	 	 	 	 	 	 	 	1581468955	5.77	10.69
12/02/2020 00:55:56	120220	12022020	005556	114.38	13.877093	-56.905190	114.65	1.070	-1.580	3.470	114.38	-3.10	4.00	 	 	 	 	 	 	 	 	 	 	 	 	 	 	 	 	 	 	1581468956	4.97	9.20
12/02/2020 00:55:57	120220	12022020	005557	114.15	13.877083	-56.905170	114.41	0.910	-0.420	3.050	114.11	-1.30	3.20	 	 	 	 	 	 	 	 	 	 	 	 	 	 	 	 	 	 	1581468957	4.58	8.48
12/02/2020 00:55:58	120220	12022020	005558	114.12	13.877077	-56.905148	114.41	0.330	0.710	2.230	114.12	-0.90	2.90	 	 	 	 	 	 	 	 	 	 	 	 	 	 	 	 	 	 	1581468958	4.64	8.59
12/02/2020 00:55:59	120220	12022020	005559	114.48	13.877070	-56.905128	114.78	-0.390	1.510	1.420	114.57	0.30	1.70	 	 	 	 	 	 	 	 	 	 	 	 	 	 	 	 	 	 	1581468959	4.61	8.54
12/02/2020 00:56:00	120220	12022020	005600	114.88	13.877060	-56.905108	115.15	-0.860	1.620	1.070	114.93	0.10	1.50	 	 	 	 	 	 	 	 	 	 	 	 	 	 	 	 	 	 	1581468960	4.81	8.91
12/02/2020 00:56:01	120220	12022020	005601	115.10	13.877047	-56.905087	115.34	-0.800	1.040	0.980	115.13	-0.70	1.40	 	 	 	 	 	 	 	 	 	 	 	 	 	 	 	 	 	 	1581468961	5.24	9.70
12/02/2020 00:56:02	120220	12022020	005602	115.21	13.877035	-56.905063	115.44	-0.300	-0.050	0.980	115.21	-1.90	1.60	1017.30	26.10	26.10	21.00	21.10	-1.0	73.0	73.0	394.0	25.8	323.00	15.10	71.00	13.10	16	9219.0	27.1	27.1	1581468962	5.64	10.45
12/02/2020 00:56:03	120220	12022020	005603	115.12	13.877020	-56.905038	115.33	0.300	-1.340	1.510	115.07	-3.20	2.40	 	 	 	 	 	 	 	 	 	 	 	 	 	 	 	 	 	 	1581468963	6.04	11.19
12/02/2020 00:56:04	120220	12022020	005604	114.84	13.877002	-56.905015	115.07	0.740	-2.290	2.470	114.79	-3.70	3.30	 	 	 	 	 	 	 	 	 	 	 	 	 	 	 	 	 	 	1581468964	6.33	11.72
12/02/2020 00:56:05	120220	12022020	005605	114.63	13.876985	-56.904993	114.91	0.760	-1.970	3.190	114.62	-2.70	3.80	 	 	 	 	 	 	 	 	 	 	 	 	 	 	 	 	 	 	1581468965	5.72	10.59
12/02/2020 00:56:06	120220	12022020	005606	114.59	13.876972	-56.904978	114.88	0.290	-0.290	3.470	114.59	-0.90	4.00	 	 	 	 	 	 	 	 	 	 	 	 	 	 	 	 	 	 	1581468966	4.25	7.87
12/02/2020 00:56:07	120220	12022020	005607	114.60	13.876962	-56.904965	114.88	-0.290	1.350	3.430	114.59	0.30	3.80	 	 	 	 	 	 	 	 	 	 	 	 	 	 	 	 	 	 	1581468967	3.57	6.61
12/02/2020 00:56:08	120220	12022020	005608	114.59	13.876952	-56.904947	114.86	-0.480	1.560	2.940	114.59	-0.20	3.10	 	 	 	 	 	 	 	 	 	 	 	 	 	 	 	 	 	 	1581468968	4.50	8.33
12/02/2020 00:56:09	120220	12022020	005609	114.63	13.876942	-56.904918	114.89	-0.180	0.340	2.180	114.63	-1.60	2.40	 	 	 	 	 	 	 	 	 	 	 	 	 	 	 	 	 	 	1581468969	6.11	11.32
12/02/2020 00:56:10	120220	12022020	005610	114.60	13.876930	-56.904888	114.85	0.220	-1.070	1.770	114.59	-2.70	2.20	 	 	 	 	 	 	 	 	 	 	 	 	 	 	 	 	 	 	1581468970	6.78	12.56
12/02/2020 00:56:11	120220	12022020	005611	114.58	13.876917	-56.904863	114.85	0.240	-1.300	1.730	114.58	-2.30	2.20	 	 	 	 	 	 	 	 	 	 	 	 	 	 	 	 	 	 	1581468971	5.97	11.06
12/02/2020 00:56:12	120220	12022020	005612	114.69	13.876907	-56.904847	114.99	-0.190	-0.240	1.790	114.73	-1.00	2.30	 	 	 	 	 	 	 	 	 	 	 	 	 	 	 	 	 	 	1581468972	4.40	8.15
12/02/2020 00:56:13	120220	12022020	005613	114.93	13.876895	-56.904833	115.23	-0.680	0.970	2.000	114.97	-0.20	2.60	 	 	 	 	 	 	 	 	 	 	 	 	 	 	 	 	 	 	1581468973	3.65	6.76
12/02/2020 00:56:14	120220	12022020	005614	115.06	13.876882	-56.904817	115.33	-0.650	0.930	2.320	115.05	-0.90	2.90	 	 	 	 	 	 	 	 	 	 	 	 	 	 	 	 	 	 	1581468974	4.48	8.30
12/02/2020 00:56:15	120220	12022020	005615	114.92	13.876867	-56.904792	115.15	0.080	-0.540	2.500	114.86	-2.50	3.10	 	 	 	 	 	 	 	 	 	 	 	 	 	 	 	 	 	 	1581468975	6.21	11.50
12/02/2020 00:56:16	120220	12022020	005616	114.57	13.876850	-56.904763	114.81	0.900	-1.870	2.780	114.51	-3.30	3.40	 	 	 	 	 	 	 	 	 	 	 	 	 	 	 	 	 	 	1581468976	6.93	12.83
12/02/2020 00:56:17	120220	12022020	005617	114.41	13.876835	-56.904740	114.70	1.060	-1.630	2.950	114.43	-2.40	3.30	 	 	 	 	 	 	 	 	 	 	 	 	 	 	 	 	 	 	1581468977	5.78	10.70
12/02/2020 00:56:18	120220	12022020	005618	114.68	13.876827	-56.904723	115.00	0.450	0.020	2.640	114.76	-0.60	2.90	 	 	 	 	 	 	 	 	 	 	 	 	 	 	 	 	 	 	1581468978	3.93	7.28
12/02/2020 00:56:19	120220	12022020	005619	115.06	13.876820	-56.904710	115.35	-0.360	1.520	2.160	115.11	0.40	2.50	 	 	 	 	 	 	 	 	 	 	 	 	 	 	 	 	 	 	1581468979	3.28	6.07
12/02/2020 00:56:20	120220	12022020	005620	115.19	13.876812	-56.904690	115.43	-0.750	1.600	1.790	115.19	0.40	2.30	 	 	 	 	 	 	 	 	 	 	 	 	 	 	 	 	 	 	1581468980	4.30	7.96
12/02/2020 00:56:21	120220	12022020	005621	115.08	13.876800	-56.904667	115.31	-0.530	0.320	1.720	115.05	-1.60	2.30	 	 	 	 	 	 	 	 	 	 	 	 	 	 	 	 	 	 	1581468981	5.83	10.80
12/02/2020 00:56:22	120220	12022020	005622	114.93	13.876785	-56.904640	115.17	-0.050	-1.060	1.890	114.93	-2.10	2.30	 	 	 	 	 	 	 	 	 	 	 	 	 	 	 	 	 	 	1581468982	6.43	11.91
12/02/2020 00:56:23	120220	12022020	005623	114.76	13.876770	-56.904617	115.01	0.200	-1.580	2.100	114.74	-2.80	2.70	 	 	 	 	 	 	 	 	 	 	 	 	 	 	 	 	 	 	1581468983	5.84	10.82
12/02/2020 00:56:24	120220	12022020	005624	114.64	13.876758	-56.904597	114.91	0.090	-1.190	2.300	114.64	-2.20	2.90	 	 	 	 	 	 	 	 	 	 	 	 	 	 	 	 	 	 	1581468984	4.99	9.24
12/02/2020 00:56:25	120220	12022020	005625	114.67	13.876745	-56.904578	114.96	-0.160	-0.390	2.650	114.68	-1.40	3.30	 	 	 	 	 	 	 	 	 	 	 	 	 	 	 	 	 	 	1581468985	4.60	8.52
12/02/2020 00:56:26	120220	12022020	005626	114.76	13.876730	-56.904562	115.06	-0.290	0.300	2.940	114.78	-0.90	3.40	 	 	 	 	 	 	 	 	 	 	 	 	 	 	 	 	 	 	1581468986	4.74	8.78
12/02/2020 00:56:27	120220	12022020	005627	114.88	13.876717	-56.904543	115.18	-0.190	0.590	2.700	114.91	-0.80	2.90	 	 	 	 	 	 	 	 	 	 	 	 	 	 	 	 	 	 	1581468987	4.97	9.20
12/02/2020 00:56:28	120220	12022020	005628	115.03	13.876705	-56.904520	115.29	0.100	0.370	2.060	115.04	-1.10	2.30	 	 	 	 	 	 	 	 	 	 	 	 	 	 	 	 	 	 	1581468988	5.33	9.87
12/02/2020 00:56:29	120220	12022020	005629	114.99	13.876695	-56.904495	115.22	0.440	-0.110	1.640	114.96	-1.60	2.10	 	 	 	 	 	 	 	 	 	 	 	 	 	 	 	 	 	 	1581468989	5.65	10.46
12/02/2020 00:56:30	120220	12022020	005630	114.79	13.876687	-56.904470	115.01	0.590	-0.470	1.540	114.75	-1.80	2.00	 	 	 	 	 	 	 	 	 	 	 	 	 	 	 	 	 	 	1581468990	5.62	10.41
12/02/2020 00:56:31	120220	12022020	005631	114.65	13.876677	-56.904447	114.90	0.380	-0.480	1.540	114.65	-1.70	2.00	 	 	 	 	 	 	 	 	 	 	 	 	 	 	 	 	 	 	1581468991	5.30	9.82
12/02/2020 00:56:32	120220	12022020	005632	114.74	13.876667	-56.904427	115.08	-0.070	-0.180	1.540	114.79	-1.60	2.00	 	 	 	 	 	 	 	 	 	 	 	 	 	 	 	 	 	 	1581468992	4.92	9.11
12/02/2020 00:56:33	120220	12022020	005633	115.15	13.876653	-56.904408	115.48	-0.450	0.130	1.710	115.24	-1.10	2.40	 	 	 	 	 	 	 	 	 	 	 	 	 	 	 	 	 	 	1581468993	4.83	8.95
12/02/2020 00:56:34	120220	12022020	005634	115.51	13.876637	-56.904390	115.83	-0.550	0.220	2.220	115.51	-1.10	2.50	 	 	 	 	 	 	 	 	 	 	 	 	 	 	 	 	 	 	1581468994	5.04	9.33
12/02/2020 00:56:35	120220	12022020	005635	115.52	13.876620	-56.904370	115.78	-0.300	-0.240	2.870	115.47	-1.90	3.50	 	 	 	 	 	 	 	 	 	 	 	 	 	 	 	 	 	 	1581468995	5.61	10.39
12/02/2020 00:56:36	120220	12022020	005636	115.18	13.876602	-56.904347	115.43	0.130	-1.000	3.260	115.18	-2.10	3.70	 	 	 	 	 	 	 	 	 	 	 	 	 	 	 	 	 	 	1581468996	6.24	11.56
12/02/2020 00:56:37	120220	12022020	005637	114.84	13.876587	-56.904323	115.11	0.350	-1.020	3.370	114.80	-2.00	3.80	 	 	 	 	 	 	 	 	 	 	 	 	 	 	 	 	 	 	1581468997	5.93	10.98
12/02/2020 00:56:38	120220	12022020	005638	114.82	13.876577	-56.904303	115.13	0.170	-0.020	3.000	114.86	-0.90	3.20	 	 	 	 	 	 	 	 	 	 	 	 	 	 	 	 	 	 	1581468998	4.60	8.52
12/02/2020 00:56:39	120220	12022020	005639	115.16	13.876572	-56.904285	115.49	-0.190	0.930	2.190	115.24	-0.30	2.40	 	 	 	 	 	 	 	 	 	 	 	 	 	 	 	 	 	 	1581468999	4.02	7.45
12/02/2020 00:56:40	120220	12022020	005640	115.48	13.876563	-56.904263	115.75	-0.310	0.750	1.550	115.51	-1.00	1.90	 	 	 	 	 	 	 	 	 	 	 	 	 	 	 	 	 	 	1581469000	4.83	8.95
12/02/2020 00:56:41	120220	12022020	005641	115.45	13.876552	-56.904238	115.65	-0.080	-0.400	1.460	115.39	-2.20	2.00	 	 	 	 	 	 	 	 	 	 	 	 	 	 	 	 	 	 	1581469001	6.07	11.24
12/02/2020 00:56:42	120220	12022020	005642	115.07	13.876535	-56.904212	115.27	0.280	-1.510	1.720	114.98	-3.00	2.40	 	 	 	 	 	 	 	 	 	 	 	 	 	 	 	 	 	 	1581469002	6.60	12.22
12/02/2020 00:56:43	120220	12022020	005643	114.67	13.876518	-56.904187	114.91	0.460	-1.640	2.160	114.63	-2.60	2.80	 	 	 	 	 	 	 	 	 	 	 	 	 	 	 	 	 	 	1581469003	6.16	11.41
12/02/2020 00:56:44	120220	12022020	005644	114.64	13.876505	-56.904168	115.00	0.280	-0.530	2.420	114.69	-2.20	2.90	 	 	 	 	 	 	 	 	 	 	 	 	 	 	 	 	 	 	1581469004	5.04	9.33
12/02/2020 00:56:45	120220	12022020	005645	115.19	13.876493	-56.904153	115.55	-0.230	1.160	2.320	115.32	0.40	2.60	 	 	 	 	 	 	 	 	 	 	 	 	 	 	 	 	 	 	1581469005	3.87	7.17
12/02/2020 00:56:46	120220	12022020	005646	115.80	13.876485	-56.904138	116.14	-0.710	2.120	1.990	115.80	0.70	2.50	 	 	 	 	 	 	 	 	 	 	 	 	 	 	 	 	 	 	1581469006	3.70	6.85
12/02/2020 00:56:47	120220	12022020	005647	116.03	13.876473	-56.904117	116.30	-0.740	1.380	1.770	116.02	-0.70	2.30	 	 	 	 	 	 	 	 	 	 	 	 	 	 	 	 	 	 	1581469007	4.97	9.20
12/02/2020 00:56:48	120220	12022020	005648	115.78	13.876460	-56.904090	116.01	-0.250	-0.640	1.880	115.78	-1.40	2.30	 	 	 	 	 	 	 	 	 	 	 	 	 	 	 	 	 	 	1581469008	6.56	12.15
12/02/2020 00:56:49	120220	12022020	005649	115.36	13.876443	-56.904062	115.60	0.400	-2.390	2.290	115.29	-4.00	3.00	 	 	 	 	 	 	 	 	 	 	 	 	 	 	 	 	 	 	1581469009	7.05	13.06
12/02/2020 00:56:50	120220	12022020	005650	115.09	13.876427	-56.904037	115.37	0.730	-2.650	2.700	115.08	-3.50	3.20	 	 	 	 	 	 	 	 	 	 	 	 	 	 	 	 	 	 	1581469010	6.17	11.43
12/02/2020 00:56:51	120220	12022020	005651	115.07	13.876413	-56.904020	115.35	0.630	-1.320	2.650	115.08	-1.90	3.00	 	 	 	 	 	 	 	 	 	 	 	 	 	 	 	 	 	 	1581469011	4.67	8.65
12/02/2020 00:56:52	120220	12022020	005652	115.09	13.876405	-56.904003	115.34	0.370	0.490	2.190	115.08	-0.20	2.40	 	 	 	 	 	 	 	 	 	 	 	 	 	 	 	 	 	 	1581469012	3.80	7.04
12/02/2020 00:56:53	120220	12022020	005653	115.10	13.876398	-56.903985	115.35	0.040	1.630	1.670	115.13	0.50	2.00	 	 	 	 	 	 	 	 	 	 	 	 	 	 	 	 	 	 	1581469013	4.22	7.82
12/02/2020 00:56:54	120220	12022020	005654	115.36	13.876390	-56.903963	115.64	-0.540	1.780	1.280	115.46	0.30	1.70	 	 	 	 	 	 	 	 	 	 	 	 	 	 	 	 	 	 	1581469014	4.88	9.04
12/02/2020 00:56:55	120220	12022020	005655	115.92	13.876377	-56.903940	116.21	-1.150	1.020	1.130	116.03	-0.80	1.70	 	 	 	 	 	 	 	 	 	 	 	 	 	 	 	 	 	 	1581469015	5.41	10.02
12/02/2020 00:56:56	120220	12022020	005656	116.29	13.876360	-56.903918	116.56	-1.280	-0.300	1.520	116.33	-1.30	1.80	 	 	 	 	 	 	 	 	 	 	 	 	 	 	 	 	 	 	1581469016	6.02	11.15
12/02/2020 00:56:57	120220	12022020	005657	116.10	13.876337	-56.903897	116.27	-0.610	-1.660	2.530	115.98	-3.30	3.40	 	 	 	 	 	 	 	 	 	 	 	 	 	 	 	 	 	 	1581469017	6.63	12.28
12/02/2020 00:56:58	120220	12022020	005658	115.46	13.876317	-56.903873	115.65	0.470	-2.220	3.280	115.35	-3.30	3.80	 	 	 	 	 	 	 	 	 	 	 	 	 	 	 	 	 	 	1581469018	6.39	11.83
12/02/2020 00:56:59	120220	12022020	005659	115.09	13.876305	-56.903853	115.35	1.230	-1.460	3.190	115.07	-2.20	3.50	 	 	 	 	 	 	 	 	 	 	 	 	 	 	 	 	 	 	1581469019	5.10	9.45
12/02/2020 00:57:00	120220	12022020	005700	115.17	13.876298	-56.903835	115.49	1.250	-0.030	2.630	115.23	-0.90	2.90	 	 	 	 	 	 	 	 	 	 	 	 	 	 	 	 	 	 	1581469020	4.10	7.59
12/02/2020 00:57:01	120220	12022020	005701	115.46	13.876293	-56.903815	115.74	0.710	0.810	2.050	115.51	-0.40	2.30	 	 	 	 	 	 	 	 	 	 	 	 	 	 	 	 	 	 	1581469021	4.37	8.09
12/02/2020 00:57:02	120220	12022020	005702	115.71	13.876285	-56.903790	115.98	0.070	0.730	1.520	115.75	-0.70	1.90	1017.30	26.10	26.10	20.90	21.00	-1.0	73.0	73.0	392.0	25.8	323.00	14.90	71.00	12.90	16	9495.0	27.1	27.1	1581469022	5.35	9.91
12/02/2020 00:57:03	120220	12022020	005703	115.83	13.876272	-56.903767	116.07	-0.480	0.410	1.520	115.84	-1.00	2.20	 	 	 	 	 	 	 	 	 	 	 	 	 	 	 	 	 	 	1581469023	5.77	10.69
12/02/2020 00:57:04	120220	12022020	005704	115.82	13.876255	-56.903748	116.09	-0.970	0.350	2.150	115.84	-0.90	2.90	 	 	 	 	 	 	 	 	 	 	 	 	 	 	 	 	 	 	1581469024	5.56	10.30
12/02/2020 00:57:05	120220	12022020	005705	116.03	13.876235	-56.903732	116.35	-1.300	0.420	2.740	116.10	-0.90	3.30	 	 	 	 	 	 	 	 	 	 	 	 	 	 	 	 	 	 	1581469025	5.21	9.65
12/02/2020 00:57:06	120220	12022020	005706	116.37	13.876218	-56.903715	116.67	-1.110	0.110	2.820	116.41	-1.50	3.20	 	 	 	 	 	 	 	 	 	 	 	 	 	 	 	 	 	 	1581469026	5.06	9.37
12/02/2020 00:57:07	120220	12022020	005707	116.42	13.876203	-56.903693	116.68	-0.240	-0.800	2.560	116.39	-2.50	2.90	 	 	 	 	 	 	 	 	 	 	 	 	 	 	 	 	 	 	1581469027	5.60	10.37
12/02/2020 00:57:08	120220	12022020	005708	116.23	13.876190	-56.903668	116.48	0.930	-1.770	2.210	116.19	-3.30	2.60	 	 	 	 	 	 	 	 	 	 	 	 	 	 	 	 	 	 	1581469028	6.11	11.32
12/02/2020 00:57:09	120220	12022020	005709	116.03	13.876178	-56.903642	116.28	1.710	-2.060	2.110	115.99	-3.20	2.60	 	 	 	 	 	 	 	 	 	 	 	 	 	 	 	 	 	 	1581469029	6.04	11.19
12/02/2020 00:57:10	120220	12022020	005710	115.90	13.876170	-56.903618	116.13	1.550	-1.200	2.060	115.88	-2.80	2.60	 	 	 	 	 	 	 	 	 	 	 	 	 	 	 	 	 	 	1581469030	5.33	9.87
12/02/2020 00:57:11	120220	12022020	005711	115.89	13.876160	-56.903600	116.16	0.380	0.650	2.000	115.91	0.20	2.50	 	 	 	 	 	 	 	 	 	 	 	 	 	 	 	 	 	 	1581469031	4.17	7.72
12/02/2020 00:57:12	120220	12022020	005712	116.11	13.876150	-56.903588	116.43	-1.170	2.410	2.170	116.11	0.80	2.60	 	 	 	 	 	 	 	 	 	 	 	 	 	 	 	 	 	 	1581469032	3.58	6.63
12/02/2020 00:57:13	120220	12022020	005713	116.54	13.876135	-56.903575	116.87	-2.100	2.840	2.340	116.63	1.10	2.80	 	 	 	 	 	 	 	 	 	 	 	 	 	 	 	 	 	 	1581469033	4.26	7.89
12/02/2020 00:57:14	120220	12022020	005714	116.92	13.876117	-56.903555	117.23	-1.680	1.280	2.340	116.96	-1.10	2.80	 	 	 	 	 	 	 	 	 	 	 	 	 	 	 	 	 	 	1581469034	5.69	10.54
12/02/2020 00:57:15	120220	12022020	005715	116.95	13.876097	-56.903527	117.19	-0.120	-1.540	2.430	116.90	-3.90	3.10	 	 	 	 	 	 	 	 	 	 	 	 	 	 	 	 	 	 	1581469035	7.32	13.56
12/02/2020 00:57:16	120220	12022020	005716	116.51	13.876077	-56.903497	116.73	1.430	-3.510	2.870	116.40	-4.80	3.50	 	 	 	 	 	 	 	 	 	 	 	 	 	 	 	 	 	 	1581469036	7.60	14.08
12/02/2020 00:57:17	120220	12022020	005717	116.07	13.876063	-56.903475	116.32	1.770	-2.750	3.240	116.02	-3.00	3.70	 	 	 	 	 	 	 	 	 	 	 	 	 	 	 	 	 	 	1581469037	5.53	10.24
12/02/2020 00:57:18	120220	12022020	005718	116.01	13.876055	-56.903463	116.33	0.860	0.010	3.070	116.05	-0.20	3.30	 	 	 	 	 	 	 	 	 	 	 	 	 	 	 	 	 	 	1581469038	2.93	5.43
12/02/2020 00:57:19	120220	12022020	005719	116.29	13.876050	-56.903453	116.60	-0.380	2.320	2.400	116.35	1.30	2.60	 	 	 	 	 	 	 	 	 	 	 	 	 	 	 	 	 	 	1581469039	2.27	4.20
12/02/2020 00:57:20	120220	12022020	005720	116.53	13.876042	-56.903435	116.79	-0.920	2.280	1.690	116.56	0.30	2.00	 	 	 	 	 	 	 	 	 	 	 	 	 	 	 	 	 	 	1581469040	4.13	7.65
12/02/2020 00:57:21	120220	12022020	005721	116.58	13.876028	-56.903408	116.82	-0.570	0.370	1.260	116.57	-1.80	1.70	 	 	 	 	 	 	 	 	 	 	 	 	 	 	 	 	 	 	1581469041	6.47	11.98
12/02/2020 00:57:22	120220	12022020	005722	116.46	13.876012	-56.903380	116.67	-0.030	-1.400	1.250	116.42	-3.10	1.90	 	 	 	 	 	 	 	 	 	 	 	 	 	 	 	 	 	 	1581469042	6.93	12.83
12/02/2020 00:57:23	120220	12022020	005723	116.21	13.875995	-56.903358	116.42	0.160	-1.870	1.710	116.15	-3.00	2.40	 	 	 	 	 	 	 	 	 	 	 	 	 	 	 	 	 	 	1581469043	5.86	10.85
12/02/2020 00:57:24	120220	12022020	005724	115.93	13.875980	-56.903342	116.17	0.070	-1.180	2.290	115.93	-2.70	2.60	 	 	 	 	 	 	 	 	 	 	 	 	 	 	 	 	 	 	1581469044	4.81	8.91
12/02/2020 00:57:25	120220	12022020	005725	115.82	13.875965	-56.903327	116.10	0.050	-0.120	2.530	115.82	-1.00	3.00	 	 	 	 	 	 	 	 	 	 	 	 	 	 	 	 	 	 	1581469045	4.35	8.06
12/02/2020 00:57:26	120220	12022020	005726	115.90	13.875953	-56.903310	116.19	0.100	0.720	2.390	115.90	-0.80	2.90	 	 	 	 	 	 	 	 	 	 	 	 	 	 	 	 	 	 	1581469046	4.35	8.06
12/02/2020 00:57:27	120220	12022020	005727	116.12	13.875943	-56.903292	116.40	-0.000	1.090	2.120	116.16	-0.20	2.50	 	 	 	 	 	 	 	 	 	 	 	 	 	 	 	 	 	 	1581469047	4.53	8.39
12/02/2020 00:57:28	120220	12022020	005728	116.25	13.875932	-56.903272	116.48	-0.210	0.920	1.940	116.24	-0.60	2.40	 	 	 	 	 	 	 	 	 	 	 	 	 	 	 	 	 	 	1581469048	4.75	8.80
12/02/2020 00:57:29	120220	12022020	005729	116.12	13.875918	-56.903250	116.35	-0.170	0.140	2.010	116.08	-1.60	2.60	 	 	 	 	 	 	 	 	 	 	 	 	 	 	 	 	 	 	1581469049	5.22	9.67
12/02/2020 00:57:30	120220	12022020	005730	115.94	13.875903	-56.903227	116.18	0.220	-1.050	2.190	115.91	-2.80	2.80	 	 	 	 	 	 	 	 	 	 	 	 	 	 	 	 	 	 	1581469050	5.87	10.87
12/02/2020 00:57:31	120220	12022020	005731	115.80	13.875888	-56.903203	116.03	0.610	-1.920	2.450	115.77	-3.30	3.00	 	 	 	 	 	 	 	 	 	 	 	 	 	 	 	 	 	 	1581469051	6.04	11.19
12/02/2020 00:57:32	120220	12022020	005732	115.65	13.875873	-56.903182	115.89	0.680	-1.740	2.660	115.62	-2.60	3.20	 	 	 	 	 	 	 	 	 	 	 	 	 	 	 	 	 	 	1581469052	5.45	10.09
12/02/2020 00:57:33	120220	12022020	005733	115.52	13.875862	-56.903167	115.79	0.370	-0.430	2.800	115.51	-1.10	3.20	 	 	 	 	 	 	 	 	 	 	 	 	 	 	 	 	 	 	1581469053	4.33	8.02
12/02/2020 00:57:34	120220	12022020	005734	115.57	13.875852	-56.903153	115.87	-0.170	1.160	2.660	115.60	0.30	3.00	 	 	 	 	 	 	 	 	 	 	 	 	 	 	 	 	 	 	1581469054	3.55	6.57
12/02/2020 00:57:35	120220	12022020	005735	115.83	13.875842	-56.903137	116.14	-0.560	1.730	2.190	115.89	0.20	2.40	 	 	 	 	 	 	 	 	 	 	 	 	 	 	 	 	 	 	1581469055	3.94	7.30
12/02/2020 00:57:36	120220	12022020	005736	116.04	13.875830	-56.903113	116.29	-0.450	0.710	1.620	116.04	-0.20	2.20	 	 	 	 	 	 	 	 	 	 	 	 	 	 	 	 	 	 	1581469056	5.44	10.07
12/02/2020 00:57:37	120220	12022020	005737	115.92	13.875817	-56.903085	116.13	0.010	-0.950	1.510	115.87	-2.70	2.10	 	 	 	 	 	 	 	 	 	 	 	 	 	 	 	 	 	 	1581469057	6.58	12.19
12/02/2020 00:57:38	120220	12022020	005738	115.74	13.875800	-56.903060	115.97	0.370	-1.730	1.850	115.71	-3.00	2.20	 	 	 	 	 	 	 	 	 	 	 	 	 	 	 	 	 	 	1581469058	6.25	11.58
12/02/2020 00:57:39	120220	12022020	005739	115.80	13.875787	-56.903042	116.10	0.360	-1.050	2.100	115.85	-1.80	2.60	 	 	 	 	 	 	 	 	 	 	 	 	 	 	 	 	 	 	1581469059	4.82	8.93
12/02/2020 00:57:40	120220	12022020	005740	116.12	13.875775	-56.903028	116.40	0.020	0.170	2.130	116.17	-0.80	2.60	 	 	 	 	 	 	 	 	 	 	 	 	 	 	 	 	 	 	1581469060	3.88	7.19
12/02/2020 00:57:41	120220	12022020	005741	116.29	13.875763	-56.903013	116.54	-0.340	0.810	2.120	116.27	-0.50	2.60	 	 	 	 	 	 	 	 	 	 	 	 	 	 	 	 	 	 	1581469061	4.18	7.74
12/02/2020 00:57:42	120220	12022020	005742	116.10	13.875747	-56.902995	116.32	-0.370	0.550	2.310	116.03	-1.00	2.90	 	 	 	 	 	 	 	 	 	 	 	 	 	 	 	 	 	 	1581469062	5.13	9.50
12/02/2020 00:57:43	120220	12022020	005743	115.78	13.875732	-56.902972	116.01	-0.070	-0.140	2.420	115.75	-1.60	2.80	 	 	 	 	 	 	 	 	 	 	 	 	 	 	 	 	 	 	1581469063	5.73	10.61
12/02/2020 00:57:44	120220	12022020	005744	115.76	13.875720	-56.902950	116.05	0.190	-0.430	2.150	115.80	-1.70	2.40	 	 	 	 	 	 	 	 	 	 	 	 	 	 	 	 	 	 	1581469064	5.41	10.02
12/02/2020 00:57:45	120220	12022020	005745	116.05	13.875710	-56.902930	116.35	0.150	-0.280	1.720	116.12	-1.50	2.10	 	 	 	 	 	 	 	 	 	 	 	 	 	 	 	 	 	 	1581469065	4.70	8.70
12/02/2020 00:57:46	120220	12022020	005746	116.30	13.875700	-56.902910	116.55	0.030	-0.290	1.590	116.31	-1.80	2.20	 	 	 	 	 	 	 	 	 	 	 	 	 	 	 	 	 	 	1581469066	4.66	8.63
12/02/2020 00:57:47	120220	12022020	005747	116.20	13.875685	-56.902890	116.40	0.160	-0.740	1.940	116.14	-2.20	2.60	 	 	 	 	 	 	 	 	 	 	 	 	 	 	 	 	 	 	1581469067	5.40	10.00
12/02/2020 00:57:48	120220	12022020	005748	115.87	13.875668	-56.902868	116.07	0.530	-1.000	2.390	115.81	-2.20	3.00	 	 	 	 	 	 	 	 	 	 	 	 	 	 	 	 	 	 	1581469068	5.78	10.70
12/02/2020 00:57:49	120220	12022020	005749	115.58	13.875655	-56.902847	115.81	0.740	-0.610	2.680	115.53	-1.60	3.20	 	 	 	 	 	 	 	 	 	 	 	 	 	 	 	 	 	 	1581469069	5.29	9.80
12/02/2020 00:57:50	120220	12022020	005750	115.46	13.875643	-56.902828	115.72	0.440	0.170	2.680	115.46	-1.30	3.20	 	 	 	 	 	 	 	 	 	 	 	 	 	 	 	 	 	 	1581469070	4.66	8.63
12/02/2020 00:57:51	120220	12022020	005751	115.55	13.875633	-56.902810	115.83	-0.290	0.840	2.380	115.58	-0.30	2.70	 	 	 	 	 	 	 	 	 	 	 	 	 	 	 	 	 	 	1581469071	4.39	8.13
12/02/2020 00:57:52	120220	12022020	005752	115.68	13.875622	-56.902792	115.95	-0.990	1.030	2.120	115.70	-0.40	2.60	 	 	 	 	 	 	 	 	 	 	 	 	 	 	 	 	 	 	1581469072	4.55	8.43
12/02/2020 00:57:53	120220	12022020	005753	115.80	13.875608	-56.902772	116.06	-1.260	0.570	2.100	115.82	-1.20	2.60	 	 	 	 	 	 	 	 	 	 	 	 	 	 	 	 	 	 	1581469073	5.09	9.43
12/02/2020 00:57:54	120220	12022020	005754	115.89	13.875590	-56.902750	116.16	-0.890	-0.520	2.260	115.89	-2.30	2.80	 	 	 	 	 	 	 	 	 	 	 	 	 	 	 	 	 	 	1581469074	5.89	10.91
12/02/2020 00:57:55	120220	12022020	005755	115.79	13.875572	-56.902727	116.03	-0.040	-1.500	2.400	115.73	-3.00	2.90	 	 	 	 	 	 	 	 	 	 	 	 	 	 	 	 	 	 	1581469075	6.23	11.54
12/02/2020 00:57:56	120220	12022020	005756	115.52	13.875558	-56.902705	115.77	0.730	-1.500	2.330	115.47	-2.50	2.80	 	 	 	 	 	 	 	 	 	 	 	 	 	 	 	 	 	 	1581469076	5.55	10.28
12/02/2020 00:57:57	120220	12022020	005757	115.27	13.875548	-56.902687	115.53	0.940	-0.570	2.220	115.23	-1.50	2.70	 	 	 	 	 	 	 	 	 	 	 	 	 	 	 	 	 	 	1581469077	4.48	8.30
12/02/2020 00:57:58	120220	12022020	005758	115.12	13.875540	-56.902668	115.38	0.640	0.310	2.050	115.10	-0.80	2.40	 	 	 	 	 	 	 	 	 	 	 	 	 	 	 	 	 	 	1581469078	4.24	7.85
12/02/2020 00:57:59	120220	12022020	005759	115.16	13.875530	-56.902648	115.43	0.250	0.540	1.690	115.19	-0.90	2.10	 	 	 	 	 	 	 	 	 	 	 	 	 	 	 	 	 	 	1581469079	4.83	8.95
12/02/2020 00:58:00	120220	12022020	005800	115.24	13.875518	-56.902625	115.48	0.040	0.210	1.600	115.24	-1.00	2.10	 	 	 	 	 	 	 	 	 	 	 	 	 	 	 	 	 	 	1581469080	5.46	10.11
12/02/2020 00:58:01	120220	12022020	005801	115.14	13.875503	-56.902602	115.37	-0.040	-0.200	1.970	115.11	-1.60	2.60	 	 	 	 	 	 	 	 	 	 	 	 	 	 	 	 	 	 	1581469081	5.80	10.74
12/02/2020 00:58:02	120220	12022020	005802	115.06	13.875488	-56.902582	115.34	-0.230	-0.130	2.270	115.06	-1.50	2.70	1017.20	26.00	26.10	20.60	20.80	-1.0	72.0	72.0	393.0	25.8	323.00	15.10	73.00	13.10	16	9939.0	27.1	27.1	1581469082	5.41	10.02
12/02/2020 00:58:03	120220	12022020	005803	115.21	13.875475	-56.902563	115.54	-0.520	0.370	2.460	115.27	-0.80	3.00	 	 	 	 	 	 	 	 	 	 	 	 	 	 	 	 	 	 	1581469083	4.66	8.63
12/02/2020 00:58:04	120220	12022020	005804	115.57	13.875462	-56.902547	115.90	-0.700	0.620	2.520	115.64	-0.90	3.00	 	 	 	 	 	 	 	 	 	 	 	 	 	 	 	 	 	 	1581469084	4.39	8.13
12/02/2020 00:58:05	120220	12022020	005805	115.80	13.875448	-56.902528	116.08	-0.500	-0.040	2.460	115.80	-1.90	2.90	 	 	 	 	 	 	 	 	 	 	 	 	 	 	 	 	 	 	1581469085	5.05	9.35
12/02/2020 00:58:06	120220	12022020	005806	115.55	13.875433	-56.902503	115.75	0.200	-1.480	2.580	115.45	-3.40	3.20	 	 	 	 	 	 	 	 	 	 	 	 	 	 	 	 	 	 	1581469086	6.29	11.65
12/02/2020 00:58:07	120220	12022020	005807	114.95	13.875415	-56.902475	115.16	1.050	-2.510	2.990	114.86	-3.70	3.50	 	 	 	 	 	 	 	 	 	 	 	 	 	 	 	 	 	 	1581469087	6.89	12.76
12/02/2020 00:58:08	120220	12022020	005808	114.80	13.875402	-56.902452	115.12	1.210	-1.610	3.040	114.86	-2.00	3.40	 	 	 	 	 	 	 	 	 	 	 	 	 	 	 	 	 	 	1581469088	5.56	10.30
12/02/2020 00:58:09	120220	12022020	005809	115.37	13.875395	-56.902438	115.77	0.300	0.880	2.790	115.55	0.60	3.10	 	 	 	 	 	 	 	 	 	 	 	 	 	 	 	 	 	 	1581469089	3.26	6.04
12/02/2020 00:58:10	120220	12022020	005810	116.29	13.875387	-56.902430	116.67	-1.100	2.990	2.550	116.45	1.90	3.00	 	 	 	 	 	 	 	 	 	 	 	 	 	 	 	 	 	 	1581469090	2.45	4.54
12/02/2020 00:58:11	120220	12022020	005811	116.91	13.875375	-56.902417	117.20	-1.840	2.840	2.380	116.98	0.70	2.70	 	 	 	 	 	 	 	 	 	 	 	 	 	 	 	 	 	 	1581469091	3.94	7.30
12/02/2020 00:58:12	120220	12022020	005812	117.15	13.875357	-56.902393	117.39	-1.190	0.330	2.090	117.14	-2.30	2.60	 	 	 	 	 	 	 	 	 	 	 	 	 	 	 	 	 	 	1581469092	6.39	11.83
12/02/2020 00:58:13	120220	12022020	005813	116.86	13.875335	-56.902363	117.04	0.370	-2.660	2.240	116.73	-4.70	2.90	 	 	 	 	 	 	 	 	 	 	 	 	 	 	 	 	 	 	1581469093	7.76	14.37
12/02/2020 00:58:14	120220	12022020	005814	116.22	13.875318	-56.902335	116.42	1.670	-3.710	2.500	116.22	-5.00	3.00	 	 	 	 	 	 	 	 	 	 	 	 	 	 	 	 	 	 	1581469094	6.88	12.74
12/02/2020 00:58:15	120220	12022020	005815	116.07	13.875310	-56.902317	116.37	1.740	-1.900	2.170	116.13	-2.00	2.40	 	 	 	 	 	 	 	 	 	 	 	 	 	 	 	 	 	 	1581469095	4.17	7.72
12/02/2020 00:58:16	120220	12022020	005816	116.57	13.875308	-56.902307	116.88	0.640	1.010	1.460	116.57	-1.00	2.10	 	 	 	 	 	 	 	 	 	 	 	 	 	 	 	 	 	 	1581469096	2.28	4.22
12/02/2020 00:58:17	120220	12022020	005817	117.03	13.875305	-56.902295	117.28	-0.730	2.580	1.100	117.08	1.20	1.70	 	 	 	 	 	 	 	 	 	 	 	 	 	 	 	 	 	 	1581469097	2.65	4.91
12/02/2020 00:58:18	120220	12022020	005818	117.15	13.875290	-56.902277	117.41	-1.540	2.050	1.480	117.15	0.10	2.20	 	 	 	 	 	 	 	 	 	 	 	 	 	 	 	 	 	 	1581469098	4.73	8.76
12/02/2020 00:58:19	120220	12022020	005819	117.10	13.875268	-56.902257	117.36	-1.510	0.380	2.240	117.07	-1.70	3.00	 	 	 	 	 	 	 	 	 	 	 	 	 	 	 	 	 	 	1581469099	6.41	11.87
12/02/2020 00:58:20	120220	12022020	005820	116.85	13.875243	-56.902237	117.09	-0.820	-1.310	3.000	116.76	-3.10	3.70	 	 	 	 	 	 	 	 	 	 	 	 	 	 	 	 	 	 	1581469100	6.81	12.61
12/02/2020 00:58:21	120220	12022020	005821	116.30	13.875222	-56.902217	116.51	0.200	-2.290	3.560	116.16	-3.70	4.10	 	 	 	 	 	 	 	 	 	 	 	 	 	 	 	 	 	 	1581469101	6.38	11.82
12/02/2020 00:58:22	120220	12022020	005822	115.65	13.875205	-56.902197	115.87	1.120	-2.100	3.570	115.54	-3.00	3.80	 	 	 	 	 	 	 	 	 	 	 	 	 	 	 	 	 	 	1581469102	5.35	9.91
12/02/2020 00:58:23	120220	12022020	005823	115.25	13.875198	-56.902178	115.49	1.410	-0.770	2.750	115.22	-1.40	2.70	 	 	 	 	 	 	 	 	 	 	 	 	 	 	 	 	 	 	1581469103	4.21	7.80
12/02/2020 00:58:24	120220	12022020	005824	115.27	13.875198	-56.902160	115.53	0.860	0.920	1.380	115.32	0.20	1.30	 	 	 	 	 	 	 	 	 	 	 	 	 	 	 	 	 	 	1581469104	3.80	7.04
12/02/2020 00:58:25	120220	12022020	005825	115.57	13.875198	-56.902143	115.82	-0.190	2.000	0.260	115.63	0.80	0.50	 	 	 	 	 	 	 	 	 	 	 	 	 	 	 	 	 	 	1581469105	3.70	6.85
12/02/2020 00:58:26	120220	12022020	005826	115.81	13.875188	-56.902125	116.02	-1.020	1.760	0.030	115.81	0.60	0.50	 	 	 	 	 	 	 	 	 	 	 	 	 	 	 	 	 	 	1581469106	4.24	7.85
12/02/2020 00:58:27	120220	12022020	005827	115.73	13.875170	-56.902103	115.90	-0.980	0.060	0.570	115.66	-2.20	1.40	 	 	 	 	 	 	 	 	 	 	 	 	 	 	 	 	 	 	1581469107	5.86	10.85
12/02/2020 00:58:28	120220	12022020	005828	115.30	13.875148	-56.902080	115.50	-0.200	-1.940	1.590	115.30	-2.80	1.80	 	 	 	 	 	 	 	 	 	 	 	 	 	 	 	 	 	 	1581469108	6.99	12.95
12/02/2020 00:58:29	120220	12022020	005829	114.90	13.875128	-56.902058	115.16	0.450	-2.340	2.630	114.86	-3.20	3.40	 	 	 	 	 	 	 	 	 	 	 	 	 	 	 	 	 	 	1581469109	6.20	11.48
12/02/2020 00:58:30	120220	12022020	005830	114.86	13.875113	-56.902047	115.16	0.330	-0.760	3.180	114.89	-1.20	3.70	 	 	 	 	 	 	 	 	 	 	 	 	 	 	 	 	 	 	1581469110	4.00	7.41
12/02/2020 00:58:31	120220	12022020	005831	115.14	13.875103	-56.902040	115.47	-0.290	1.160	3.080	115.21	0.20	3.40	 	 	 	 	 	 	 	 	 	 	 	 	 	 	 	 	 	 	1581469111	2.65	4.91
12/02/2020 00:58:32	120220	12022020	005832	115.40	13.875093	-56.902027	115.67	-0.510	1.340	2.700	115.40	-0.60	3.00	 	 	 	 	 	 	 	 	 	 	 	 	 	 	 	 	 	 	1581469112	3.53	6.54
12/02/2020 00:58:33	120220	12022020	005833	115.18	13.875080	-56.902000	115.37	0.240	-0.530	2.440	115.08	-2.70	2.90	 	 	 	 	 	 	 	 	 	 	 	 	 	 	 	 	 	 	1581469113	6.06	11.22
12/02/2020 00:58:34	120220	12022020	005834	114.75	13.875068	-56.901970	115.01	1.120	-2.000	2.320	114.74	-3.30	2.80	 	 	 	 	 	 	 	 	 	 	 	 	 	 	 	 	 	 	1581469114	6.92	12.82
12/02/2020 00:58:35	120220	12022020	005835	115.02	13.875058	-56.901948	115.39	1.040	-1.260	2.330	115.18	-1.80	2.80	 	 	 	 	 	 	 	 	 	 	 	 	 	 	 	 	 	 	1581469115	4.91	9.09
12/02/2020 00:58:36	120220	12022020	005836	116.00	13.875048	-56.901938	116.43	-0.010	0.720	2.410	116.23	0.10	2.90	 	 	 	 	 	 	 	 	 	 	 	 	 	 	 	 	 	 	1581469116	2.96	5.48
12/02/2020 00:58:37	120220	12022020	005837	117.01	13.875035	-56.901932	117.37	-0.990	1.900	2.570	117.16	0.50	3.10	 	 	 	 	 	 	 	 	 	 	 	 	 	 	 	 	 	 	1581469117	3.28	6.07
12/02/2020 00:58:38	120220	12022020	005838	117.52	13.875018	-56.901917	117.80	-0.930	1.370	2.680	117.55	-0.50	3.10	 	 	 	 	 	 	 	 	 	 	 	 	 	 	 	 	 	 	1581469118	4.73	8.76
12/02/2020 00:58:39	120220	12022020	005839	117.54	13.875003	-56.901895	117.75	-0.090	0.020	2.690	117.49	-1.80	3.20	 	 	 	 	 	 	 	 	 	 	 	 	 	 	 	 	 	 	1581469119	5.68	10.52
12/02/2020 00:58:40	120220	12022020	005840	117.26	13.874990	-56.901872	117.46	0.580	-1.060	2.860	117.19	-2.70	3.40	 	 	 	 	 	 	 	 	 	 	 	 	 	 	 	 	 	 	1581469120	5.53	10.24
12/02/2020 00:58:41	120220	12022020	005841	116.87	13.874977	-56.901852	117.07	0.620	-1.660	3.080	116.80	-3.10	3.60	 	 	 	 	 	 	 	 	 	 	 	 	 	 	 	 	 	 	1581469121	5.11	9.46
12/02/2020 00:58:42	120220	12022020	005842	116.49	13.874963	-56.901832	116.70	0.330	-1.840	3.120	116.43	-3.10	3.50	 	 	 	 	 	 	 	 	 	 	 	 	 	 	 	 	 	 	1581469122	5.07	9.39
12/02/2020 00:58:43	120220	12022020	005843	116.30	13.874948	-56.901813	116.54	0.170	-1.400	2.860	116.30	-2.30	3.10	 	 	 	 	 	 	 	 	 	 	 	 	 	 	 	 	 	 	1581469123	4.99	9.24
12/02/2020 00:58:44	120220	12022020	005844	116.47	13.874938	-56.901797	116.73	0.140	-0.130	2.200	116.55	-0.80	2.30	 	 	 	 	 	 	 	 	 	 	 	 	 	 	 	 	 	 	1581469124	4.31	7.98
12/02/2020 00:58:45	120220	12022020	005845	116.94	13.874930	-56.901780	117.19	-0.100	1.390	1.270	117.04	0.50	1.40	 	 	 	 	 	 	 	 	 	 	 	 	 	 	 	 	 	 	1581469125	3.60	6.67
12/02/2020 00:58:46	120220	12022020	005846	117.37	13.874923	-56.901765	117.58	-0.570	2.060	0.580	117.42	0.60	1.00	 	 	 	 	 	 	 	 	 	 	 	 	 	 	 	 	 	 	1581469126	3.73	6.91
12/02/2020 00:58:47	120220	12022020	005847	117.42	13.874910	-56.901747	117.57	-0.880	1.390	0.610	117.37	-0.50	1.30	 	 	 	 	 	 	 	 	 	 	 	 	 	 	 	 	 	 	1581469127	4.71	8.72
12/02/2020 00:58:48	120220	12022020	005848	117.02	13.874892	-56.901725	117.14	-0.580	-0.290	1.220	116.89	-2.40	2.00	 	 	 	 	 	 	 	 	 	 	 	 	 	 	 	 	 	 	1581469128	5.91	10.95
12/02/2020 00:58:49	120220	12022020	005849	116.29	13.874872	-56.901703	116.40	0.290	-2.000	2.090	116.12	-3.70	2.90	 	 	 	 	 	 	 	 	 	 	 	 	 	 	 	 	 	 	1581469129	6.53	12.09
12/02/2020 00:58:50	120220	12022020	005850	115.68	13.874853	-56.901680	115.71	1.120	-2.580	2.910	115.54	-3.90	3.20	 	 	 	 	 	 	 	 	 	 	 	 	 	 	 	 	 	 	1581469130	6.07	11.24
12/02/2020 00:58:51	120220	12022020	005851	115.07	13.874840	-56.901663	115.29	1.220	-1.540	3.270	115.02	-2.10	3.70	 	 	 	 	 	 	 	 	 	 	 	 	 	 	 	 	 	 	1581469131	4.60	8.52
12/02/2020 00:58:52	120220	12022020	005852	114.92	13.874830	-56.901652	115.20	0.540	0.400	3.160	114.92	-1.40	3.70	 	 	 	 	 	 	 	 	 	 	 	 	 	 	 	 	 	 	1581469132	3.31	6.13
12/02/2020 00:58:53	120220	12022020	005853	115.11	13.874823	-56.901640	115.41	-0.390	2.030	2.670	115.18	1.00	2.90	 	 	 	 	 	 	 	 	 	 	 	 	 	 	 	 	 	 	1581469133	2.94	5.44
12/02/2020 00:58:54	120220	12022020	005854	115.55	13.874815	-56.901623	115.84	-1.000	2.220	1.970	115.62	0.40	2.20	 	 	 	 	 	 	 	 	 	 	 	 	 	 	 	 	 	 	1581469134	3.74	6.93
12/02/2020 00:58:55	120220	12022020	005855	115.77	13.874803	-56.901602	116.00	-1.000	0.670	1.650	115.75	-1.50	2.20	 	 	 	 	 	 	 	 	 	 	 	 	 	 	 	 	 	 	1581469135	5.38	9.96
12/02/2020 00:58:56	120220	12022020	005856	115.48	13.874785	-56.901577	115.66	-0.560	-1.450	2.030	115.37	-3.40	2.80	 	 	 	 	 	 	 	 	 	 	 	 	 	 	 	 	 	 	1581469136	6.56	12.15
12/02/2020 00:58:57	120220	12022020	005857	114.87	13.874765	-56.901553	115.04	0.050	-2.590	2.880	114.73	-3.90	3.80	 	 	 	 	 	 	 	 	 	 	 	 	 	 	 	 	 	 	1581469137	6.39	11.83
12/02/2020 00:58:58	120220	12022020	005858	114.20	13.874747	-56.901537	114.39	0.570	-2.230	3.720	114.08	-3.10	4.30	 	 	 	 	 	 	 	 	 	 	 	 	 	 	 	 	 	 	1581469138	5.36	9.93
12/02/2020 00:58:59	120220	12022020	005859	113.79	13.874733	-56.901520	114.02	0.860	-0.950	3.810	113.75	-1.60	4.00	 	 	 	 	 	 	 	 	 	 	 	 	 	 	 	 	 	 	1581469139	4.33	8.02
12/02/2020 00:59:00	120220	12022020	005900	113.71	13.874727	-56.901503	113.98	0.790	0.550	3.030	113.74	-0.20	3.00	 	 	 	 	 	 	 	 	 	 	 	 	 	 	 	 	 	 	1581469140	3.90	7.22
12/02/2020 00:59:01	120220	12022020	005901	113.96	13.874723	-56.901485	114.24	0.280	1.740	1.830	114.05	0.70	1.80	 	 	 	 	 	 	 	 	 	 	 	 	 	 	 	 	 	 	1581469141	3.97	7.35
12/02/2020 00:59:02	120220	12022020	005902	114.51	13.874720	-56.901465	114.79	-0.470	2.070	0.850	114.63	0.60	1.10	1017.40	26.10	26.10	20.40	20.60	-1.0	71.0	71.0	395.0	25.8	324.00	14.30	73.00	12.40	16	10140.0	27.1	27.1	1581469142	4.12	7.63
12/02/2020 00:59:03	120220	12022020	005903	115.08	13.874710	-56.901445	115.36	-1.000	1.280	0.540	115.17	-0.60	1.10	 	 	 	 	 	 	 	 	 	 	 	 	 	 	 	 	 	 	1581469143	4.68	8.67
12/02/2020 00:59:04	120220	12022020	005904	115.32	13.874693	-56.901425	115.54	-0.920	-0.310	0.850	115.32	-1.20	1.20	 	 	 	 	 	 	 	 	 	 	 	 	 	 	 	 	 	 	1581469144	5.61	10.39
12/02/2020 00:59:05	120220	12022020	005905	115.01	13.874673	-56.901403	115.19	-0.200	-1.980	1.670	114.89	-3.70	2.60	 	 	 	 	 	 	 	 	 	 	 	 	 	 	 	 	 	 	1581469145	6.18	11.45
12/02/2020 00:59:06	120220	12022020	005906	114.45	13.874655	-56.901382	114.68	0.660	-2.720	2.670	114.45	-4.00	2.90	 	 	 	 	 	 	 	 	 	 	 	 	 	 	 	 	 	 	1581469146	5.97	11.06
12/02/2020 00:59:07	120220	12022020	005907	114.25	13.874642	-56.901365	114.57	0.950	-1.930	3.220	114.28	-2.60	3.70	 	 	 	 	 	 	 	 	 	 	 	 	 	 	 	 	 	 	1581469147	4.79	8.87
12/02/2020 00:59:08	120220	12022020	005908	114.48	13.874632	-56.901350	114.79	0.520	-0.270	3.100	114.54	-1.00	3.40	 	 	 	 	 	 	 	 	 	 	 	 	 	 	 	 	 	 	1581469148	3.66	6.78
12/02/2020 00:59:09	120220	12022020	005909	114.68	13.874623	-56.901335	114.95	-0.110	0.900	2.630	114.70	-0.20	2.90	 	 	 	 	 	 	 	 	 	 	 	 	 	 	 	 	 	 	1581469149	3.79	7.02
12/02/2020 00:59:10	120220	12022020	005910	114.80	13.874613	-56.901313	115.05	-0.380	1.110	2.180	114.83	-0.30	2.50	 	 	 	 	 	 	 	 	 	 	 	 	 	 	 	 	 	 	1581469150	4.81	8.91
12/02/2020 00:59:11	120220	12022020	005911	115.00	13.874603	-56.901292	115.25	-0.280	0.940	1.850	115.04	-0.50	2.30	 	 	 	 	 	 	 	 	 	 	 	 	 	 	 	 	 	 	1581469151	5.23	9.69
12/02/2020 00:59:12	120220	12022020	005912	115.16	13.874592	-56.901270	115.39	-0.130	0.670	1.610	115.18	-0.80	2.00	 	 	 	 	 	 	 	 	 	 	 	 	 	 	 	 	 	 	1581469152	5.05	9.35
12/02/2020 00:59:13	120220	12022020	005913	115.15	13.874582	-56.901248	115.36	-0.090	0.170	1.410	115.12	-1.40	1.90	 	 	 	 	 	 	 	 	 	 	 	 	 	 	 	 	 	 	1581469153	5.00	9.26
12/02/2020 00:59:14	120220	12022020	005914	114.98	13.874570	-56.901227	115.21	-0.090	-0.510	1.490	114.96	-2.00	2.10	 	 	 	 	 	 	 	 	 	 	 	 	 	 	 	 	 	 	1581469154	5.22	9.67
12/02/2020 00:59:15	120220	12022020	005915	114.95	13.874555	-56.901207	115.24	-0.070	-0.940	1.840	114.99	-2.30	2.40	 	 	 	 	 	 	 	 	 	 	 	 	 	 	 	 	 	 	1581469155	5.22	9.67
12/02/2020 00:59:16	120220	12022020	005916	115.18	13.874540	-56.901188	115.48	0.010	-0.870	2.080	115.23	-2.10	2.60	 	 	 	 	 	 	 	 	 	 	 	 	 	 	 	 	 	 	1581469156	4.87	9.02
12/02/2020 00:59:17	120220	12022020	005917	115.26	13.874527	-56.901172	115.52	0.160	-0.640	2.140	115.24	-1.90	2.60	 	 	 	 	 	 	 	 	 	 	 	 	 	 	 	 	 	 	1581469157	4.67	8.65
12/02/2020 00:59:18	120220	12022020	005918	115.03	13.874515	-56.901152	115.26	0.390	-0.660	2.160	115.03	-1.90	2.60	 	 	 	 	 	 	 	 	 	 	 	 	 	 	 	 	 	 	1581469158	4.97	9.20
12/02/2020 00:59:19	120220	12022020	005919	114.66	13.874502	-56.901130	114.88	0.510	-0.700	2.360	114.58	-1.90	2.90	 	 	 	 	 	 	 	 	 	 	 	 	 	 	 	 	 	 	1581469159	5.35	9.91
12/02/2020 00:59:20	120220	12022020	005920	114.28	13.874488	-56.901108	114.52	0.310	-0.440	2.430	114.23	-1.50	2.90	 	 	 	 	 	 	 	 	 	 	 	 	 	 	 	 	 	 	1581469160	5.27	9.76
12/02/2020 00:59:21	120220	12022020	005921	114.09	13.874478	-56.901088	114.35	-0.170	0.260	2.250	114.08	-0.70	2.60	 	 	 	 	 	 	 	 	 	 	 	 	 	 	 	 	 	 	1581469161	4.77	8.83
12/02/2020 00:59:22	120220	12022020	005922	114.21	13.874468	-56.901072	114.49	-0.680	1.090	1.960	114.27	-0.00	2.30	 	 	 	 	 	 	 	 	 	 	 	 	 	 	 	 	 	 	1581469162	4.25	7.87
12/02/2020 00:59:23	120220	12022020	005923	114.52	13.874460	-56.901053	114.78	-0.860	1.240	1.690	114.58	-0.40	2.10	 	 	 	 	 	 	 	 	 	 	 	 	 	 	 	 	 	 	1581469163	4.35	8.06
12/02/2020 00:59:24	120220	12022020	005924	114.76	13.874447	-56.901030	115.02	-0.550	0.230	1.550	114.82	-1.60	2.00	 	 	 	 	 	 	 	 	 	 	 	 	 	 	 	 	 	 	1581469164	5.51	10.20
12/02/2020 00:59:25	120220	12022020	005925	115.03	13.874430	-56.901005	115.31	-0.060	-0.980	1.640	115.08	-2.50	2.30	 	 	 	 	 	 	 	 	 	 	 	 	 	 	 	 	 	 	1581469165	6.16	11.41
12/02/2020 00:59:26	120220	12022020	005926	115.24	13.874413	-56.900985	115.52	0.310	-1.280	2.120	115.25	-2.40	2.80	 	 	 	 	 	 	 	 	 	 	 	 	 	 	 	 	 	 	1581469166	5.59	10.35
12/02/2020 00:59:27	120220	12022020	005927	115.16	13.874400	-56.900968	115.39	0.550	-0.830	2.710	115.10	-1.90	3.40	 	 	 	 	 	 	 	 	 	 	 	 	 	 	 	 	 	 	1581469167	4.68	8.67
12/02/2020 00:59:28	120220	12022020	005928	114.80	13.874387	-56.900950	115.02	0.680	-0.440	3.010	114.73	-1.70	3.50	 	 	 	 	 	 	 	 	 	 	 	 	 	 	 	 	 	 	1581469168	4.64	8.59
12/02/2020 00:59:29	120220	12022020	005929	114.48	13.874377	-56.900930	114.70	0.630	-0.310	2.810	114.43	-1.50	3.20	 	 	 	 	 	 	 	 	 	 	 	 	 	 	 	 	 	 	1581469169	5.05	9.35
12/02/2020 00:59:30	120220	12022020	005930	114.35	13.874367	-56.900907	114.62	0.320	-0.080	2.420	114.36	-1.20	2.70	 	 	 	 	 	 	 	 	 	 	 	 	 	 	 	 	 	 	1581469170	5.13	9.50
12/02/2020 00:59:31	120220	12022020	005931	114.56	13.874358	-56.900887	114.85	-0.210	0.460	1.920	114.64	-0.60	2.20	 	 	 	 	 	 	 	 	 	 	 	 	 	 	 	 	 	 	1581469171	4.67	8.65
12/02/2020 00:59:32	120220	12022020	005932	115.18	13.874350	-56.900868	115.48	-0.810	0.980	1.300	115.31	-0.30	1.60	 	 	 	 	 	 	 	 	 	 	 	 	 	 	 	 	 	 	1581469172	4.25	7.87
12/02/2020 00:59:33	120220	12022020	005933	115.75	13.874338	-56.900850	116.00	-1.100	0.760	0.950	115.80	-1.00	1.50	 	 	 	 	 	 	 	 	 	 	 	 	 	 	 	 	 	 	1581469173	4.55	8.43
12/02/2020 00:59:34	120220	12022020	005934	115.68	13.874322	-56.900828	115.87	-0.670	-0.550	1.300	115.59	-2.50	2.10	 	 	 	 	 	 	 	 	 	 	 	 	 	 	 	 	 	 	1581469174	5.83	10.80
12/02/2020 00:59:35	120220	12022020	005935	115.10	13.874303	-56.900802	115.29	0.260	-1.940	2.010	114.99	-3.40	2.70	 	 	 	 	 	 	 	 	 	 	 	 	 	 	 	 	 	 	1581469175	6.78	12.56
12/02/2020 00:59:36	120220	12022020	005936	114.71	13.874287	-56.900780	114.97	0.870	-1.860	2.480	114.68	-2.60	3.00	 	 	 	 	 	 	 	 	 	 	 	 	 	 	 	 	 	 	1581469176	5.88	10.89
12/02/2020 00:59:37	120220	12022020	005937	114.74	13.874277	-56.900763	115.04	0.610	-0.290	2.480	114.78	-0.90	2.90	 	 	 	 	 	 	 	 	 	 	 	 	 	 	 	 	 	 	1581469177	4.05	7.50
12/02/2020 00:59:38	120220	12022020	005938	114.98	13.874268	-56.900750	115.28	-0.170	1.230	2.160	115.03	0.20	2.50	 	 	 	 	 	 	 	 	 	 	 	 	 	 	 	 	 	 	1581469178	3.40	6.30
12/02/2020 00:59:39	120220	12022020	005939	115.21	13.874258	-56.900732	115.48	-0.670	1.450	1.760	115.25	-0.10	2.10	 	 	 	 	 	 	 	 	 	 	 	 	 	 	 	 	 	 	1581469179	4.41	8.17
12/02/2020 00:59:40	120220	12022020	005940	115.31	13.874243	-56.900708	115.57	-0.430	0.590	1.570	115.32	-0.50	2.10	 	 	 	 	 	 	 	 	 	 	 	 	 	 	 	 	 	 	1581469180	5.67	10.50
12/02/2020 00:59:41	120220	12022020	005941	115.31	13.874228	-56.900685	115.54	0.250	-0.500	1.530	115.30	-2.10	2.00	 	 	 	 	 	 	 	 	 	 	 	 	 	 	 	 	 	 	1581469181	6.08	11.26
12/02/2020 00:59:42	120220	12022020	005942	115.29	13.874217	-56.900660	115.53	0.680	-1.020	1.320	115.29	-2.30	1.90	 	 	 	 	 	 	 	 	 	 	 	 	 	 	 	 	 	 	1581469182	5.63	10.43
12/02/2020 00:59:43	120220	12022020	005943	115.35	13.874208	-56.900638	115.61	0.500	-0.810	1.100	115.37	-1.90	1.70	 	 	 	 	 	 	 	 	 	 	 	 	 	 	 	 	 	 	1581469183	4.82	8.93
12/02/2020 00:59:44	120220	12022020	005944	115.35	13.874197	-56.900622	115.57	-0.040	-0.410	1.530	115.31	-1.60	2.40	 	 	 	 	 	 	 	 	 	 	 	 	 	 	 	 	 	 	1581469184	4.52	8.37
12/02/2020 00:59:45	120220	12022020	005945	115.04	13.874180	-56.900605	115.25	-0.450	-0.230	2.540	114.96	-1.50	3.40	 	 	 	 	 	 	 	 	 	 	 	 	 	 	 	 	 	 	1581469185	5.20	9.63
12/02/2020 00:59:46	120220	12022020	005946	114.65	13.874162	-56.900587	114.89	-0.470	-0.150	3.240	114.59	-1.50	3.80	 	 	 	 	 	 	 	 	 	 	 	 	 	 	 	 	 	 	1581469186	5.47	10.13
12/02/2020 00:59:47	120220	12022020	005947	114.40	13.874145	-56.900565	114.65	-0.180	-0.280	3.360	114.37	-1.70	3.80	 	 	 	 	 	 	 	 	 	 	 	 	 	 	 	 	 	 	1581469187	5.49	10.17
12/02/2020 00:59:48	120220	12022020	005948	114.31	13.874132	-56.900542	114.58	0.130	-0.540	3.120	114.31	-1.90	3.50	 	 	 	 	 	 	 	 	 	 	 	 	 	 	 	 	 	 	1581469188	5.70	10.56
12/02/2020 00:59:49	120220	12022020	005949	114.31	13.874122	-56.900518	114.58	0.150	-0.430	2.810	114.31	-1.50	3.20	 	 	 	 	 	 	 	 	 	 	 	 	 	 	 	 	 	 	1581469189	5.47	10.13
12/02/2020 00:59:50	120220	12022020	005950	114.41	13.874112	-56.900498	114.69	-0.160	0.330	2.430	114.45	-0.60	2.80	 	 	 	 	 	 	 	 	 	 	 	 	 	 	 	 	 	 	1581469190	4.67	8.65
12/02/2020 00:59:51	120220	12022020	005951	114.69	13.874102	-56.900482	114.97	-0.470	1.010	2.010	114.76	-0.30	2.40	 	 	 	 	 	 	 	 	 	 	 	 	 	 	 	 	 	 	1581469191	4.19	7.76
12/02/2020 00:59:52	120220	12022020	005952	114.95	13.874090	-56.900462	115.19	-0.270	0.670	1.680	114.98	-1.10	2.10	 	 	 	 	 	 	 	 	 	 	 	 	 	 	 	 	 	 	1581469192	4.94	9.15
12/02/2020 00:59:53	120220	12022020	005953	115.04	13.874075	-56.900437	115.27	0.370	-0.380	1.540	115.05	-2.00	2.10	 	 	 	 	 	 	 	 	 	 	 	 	 	 	 	 	 	 	1581469193	6.01	11.13
12/02/2020 00:59:54	120220	12022020	005954	115.03	13.874062	-56.900413	115.26	0.700	-0.930	1.800	115.03	-2.20	2.20	 	 	 	 	 	 	 	 	 	 	 	 	 	 	 	 	 	 	1581469194	5.78	10.70
12/02/2020 00:59:55	120220	12022020	005955	114.92	13.874050	-56.900395	115.15	0.350	-0.650	2.230	114.88	-1.80	2.90	 	 	 	 	 	 	 	 	 	 	 	 	 	 	 	 	 	 	1581469195	4.76	8.82
12/02/2020 00:59:56	120220	12022020	005956	114.69	13.874037	-56.900378	114.92	-0.210	-0.270	2.460	114.69	-1.60	2.90	 	 	 	 	 	 	 	 	 	 	 	 	 	 	 	 	 	 	1581469196	4.39	8.13
12/02/2020 00:59:57	120220	12022020	005957	114.47	13.874025	-56.900358	114.73	-0.230	-0.380	2.500	114.46	-1.80	3.00	 	 	 	 	 	 	 	 	 	 	 	 	 	 	 	 	 	 	1581469197	5.02	9.30
12/02/2020 00:59:58	120220	12022020	005958	114.48	13.874012	-56.900335	114.77	0.220	-0.670	2.450	114.51	-2.00	3.00	 	 	 	 	 	 	 	 	 	 	 	 	 	 	 	 	 	 	1581469198	5.60	10.37
12/02/2020 00:59:59	120220	12022020	005959	114.57	13.873998	-56.900312	114.85	0.450	-0.670	2.520	114.57	-1.80	3.10	 	 	 	 	 	 	 	 	 	 	 	 	 	 	 	 	 	 	1581469199	5.50	10.19
12/02/2020 01:00:00	120220	12022020	010000	114.42	13.873987	-56.900292	114.66	0.130	-0.340	2.730	114.36	-1.40	3.30	 	 	 	 	 	 	 	 	 	 	 	 	 	 	 	 	 	 	1581469200	5.17	9.57
12/02/2020 01:00:01	120220	12022020	010001	114.09	13.873972	-56.900272	114.33	-0.410	0.190	2.960	114.03	-0.80	3.50	 	 	 	 	 	 	 	 	 	 	 	 	 	 	 	 	 	 	1581469201	5.01	9.28
12/02/2020 01:00:02	120220	12022020	010002	114.00	13.873958	-56.900253	114.30	-0.710	0.740	2.930	114.04	-0.40	3.30	1017.40	26.20	26.20	20.70	20.80	-1.0	72.0	72.0	393.0	25.8	323.00	14.40	71.00	12.40	16	9626.0	27.2	27.1	1581469202	4.84	8.96
12/02/2020 01:00:03	120220	12022020	010003	114.40	13.873947	-56.900235	114.73	-0.640	1.000	2.480	114.51	-0.40	2.70	 	 	 	 	 	 	 	 	 	 	 	 	 	 	 	 	 	 	1581469203	4.69	8.69
12/02/2020 01:00:04	120220	12022020	010004	114.94	13.873937	-56.900213	115.24	-0.280	0.530	1.820	115.02	-1.10	2.10	 	 	 	 	 	 	 	 	 	 	 	 	 	 	 	 	 	 	1581469204	5.07	9.39
12/02/2020 01:00:05	120220	12022020	010005	115.15	13.873925	-56.900188	115.38	0.150	-0.450	1.410	115.13	-2.10	1.90	 	 	 	 	 	 	 	 	 	 	 	 	 	 	 	 	 	 	1581469205	5.72	10.59
12/02/2020 01:00:06	120220	12022020	010006	114.81	13.873912	-56.900165	114.98	0.440	-1.150	1.580	114.81	-2.30	2.00	 	 	 	 	 	 	 	 	 	 	 	 	 	 	 	 	 	 	1581469206	5.71	10.57
12/02/2020 01:00:07	120220	12022020	010007	114.25	13.873900	-56.900143	114.45	0.450	-1.110	2.050	114.17	-2.20	2.70	 	 	 	 	 	 	 	 	 	 	 	 	 	 	 	 	 	 	1581469207	5.16	9.56
12/02/2020 01:00:08	120220	12022020	010008	114.10	13.873888	-56.900125	114.39	0.300	-0.650	2.220	114.10	-2.00	2.70	 	 	 	 	 	 	 	 	 	 	 	 	 	 	 	 	 	 	1581469208	4.70	8.70
12/02/2020 01:00:09	120220	12022020	010009	114.31	13.873877	-56.900105	114.59	0.220	-0.310	2.050	114.34	-1.50	2.50	 	 	 	 	 	 	 	 	 	 	 	 	 	 	 	 	 	 	1581469209	4.83	8.95
12/02/2020 01:00:10	120220	12022020	010010	114.34	13.873865	-56.900082	114.59	0.280	-0.250	1.810	114.31	-1.50	2.30	 	 	 	 	 	 	 	 	 	 	 	 	 	 	 	 	 	 	1581469210	5.28	9.78
12/02/2020 01:00:11	120220	12022020	010011	114.14	13.873855	-56.900058	114.37	0.350	-0.180	1.780	114.09	-1.30	2.40	 	 	 	 	 	 	 	 	 	 	 	 	 	 	 	 	 	 	1581469211	5.48	10.15
12/02/2020 01:00:12	120220	12022020	010012	113.94	13.873843	-56.900037	114.19	0.200	0.170	1.950	113.92	-0.90	2.50	 	 	 	 	 	 	 	 	 	 	 	 	 	 	 	 	 	 	1581469212	5.24	9.70
12/02/2020 01:00:13	120220	12022020	010013	113.99	13.873832	-56.900017	114.30	-0.310	0.670	2.150	114.06	-0.40	2.70	 	 	 	 	 	 	 	 	 	 	 	 	 	 	 	 	 	 	1581469213	4.82	8.93
12/02/2020 01:00:14	120220	12022020	010014	114.37	13.873818	-56.899998	114.70	-0.950	0.840	2.260	114.46	-0.50	2.80	 	 	 	 	 	 	 	 	 	 	 	 	 	 	 	 	 	 	1581469214	4.79	8.87
12/02/2020 01:00:15	120220	12022020	010015	114.69	13.873803	-56.899978	114.97	-1.120	0.230	2.280	114.71	-1.50	2.80	 	 	 	 	 	 	 	 	 	 	 	 	 	 	 	 	 	 	1581469215	5.39	9.98
12/02/2020 01:00:16	120220	12022020	010016	114.65	13.873787	-56.899955	114.88	-0.460	-1.040	2.300	114.60	-2.70	2.90	 	 	 	 	 	 	 	 	 	 	 	 	 	 	 	 	 	 	1581469216	6.28	11.63
12/02/2020 01:00:17	120220	12022020	010017	114.31	13.873770	-56.899928	114.51	0.560	-1.840	2.470	114.22	-3.00	3.10	 	 	 	 	 	 	 	 	 	 	 	 	 	 	 	 	 	 	1581469217	6.46	11.96
12/02/2020 01:00:18	120220	12022020	010018	113.93	13.873758	-56.899905	114.16	0.980	-1.250	2.540	113.90	-1.80	2.90	 	 	 	 	 	 	 	 	 	 	 	 	 	 	 	 	 	 	1581469218	5.37	9.95
12/02/2020 01:00:19	120220	12022020	010019	113.93	13.873752	-56.899888	114.19	0.460	0.370	2.000	113.98	-0.20	2.20	 	 	 	 	 	 	 	 	 	 	 	 	 	 	 	 	 	 	1581469219	3.98	7.37
12/02/2020 01:00:20	120220	12022020	010020	114.30	13.873745	-56.899872	114.57	-0.430	1.580	1.290	114.39	0.40	1.60	 	 	 	 	 	 	 	 	 	 	 	 	 	 	 	 	 	 	1581469220	3.61	6.69
12/02/2020 01:00:21	120220	12022020	010021	114.67	13.873735	-56.899852	114.90	-0.680	1.240	1.030	114.71	-0.60	1.60	 	 	 	 	 	 	 	 	 	 	 	 	 	 	 	 	 	 	1581469221	4.81	8.91
12/02/2020 01:00:22	120220	12022020	010022	114.80	13.873720	-56.899825	115.01	0.030	-0.340	1.110	114.80	-2.20	1.70	 	 	 	 	 	 	 	 	 	 	 	 	 	 	 	 	 	 	1581469222	6.45	11.95
12/02/2020 01:00:23	120220	12022020	010023	114.75	13.873707	-56.899797	114.97	0.860	-1.650	1.320	114.73	-3.00	2.00	 	 	 	 	 	 	 	 	 	 	 	 	 	 	 	 	 	 	1581469223	6.80	12.59
12/02/2020 01:00:24	120220	12022020	010024	114.65	13.873693	-56.899772	114.90	0.880	-1.560	1.760	114.64	-2.30	2.60	 	 	 	 	 	 	 	 	 	 	 	 	 	 	 	 	 	 	1581469224	5.73	10.61
12/02/2020 01:00:25	120220	12022020	010025	114.64	13.873682	-56.899757	114.93	0.030	-0.280	2.580	114.66	-0.90	3.40	 	 	 	 	 	 	 	 	 	 	 	 	 	 	 	 	 	 	1581469225	4.31	7.98
12/02/2020 01:00:26	120220	12022020	010026	114.80	13.873665	-56.899745	115.10	-0.890	0.920	3.350	114.83	-0.20	4.10	 	 	 	 	 	 	 	 	 	 	 	 	 	 	 	 	 	 	1581469226	4.15	7.69
12/02/2020 01:00:27	120220	12022020	010027	114.87	13.873648	-56.899727	115.14	-0.970	0.830	3.720	114.86	-0.80	4.20	 	 	 	 	 	 	 	 	 	 	 	 	 	 	 	 	 	 	1581469227	5.07	9.39
12/02/2020 01:00:28	120220	12022020	010028	114.79	13.873632	-56.899703	115.05	-0.180	-0.270	3.510	114.77	-1.90	3.80	 	 	 	 	 	 	 	 	 	 	 	 	 	 	 	 	 	 	1581469228	6.32	11.70
12/02/2020 01:00:29	120220	12022020	010029	114.78	13.873618	-56.899675	115.05	0.580	-0.970	2.990	114.80	-2.20	3.30	 	 	 	 	 	 	 	 	 	 	 	 	 	 	 	 	 	 	1581469229	6.34	11.74
12/02/2020 01:00:30	120220	12022020	010030	114.91	13.873610	-56.899653	115.19	0.630	-0.620	2.480	114.91	-2.00	3.10	 	 	 	 	 	 	 	 	 	 	 	 	 	 	 	 	 	 	1581469230	5.19	9.61
12/02/2020 01:00:31	120220	12022020	010031	115.09	13.873602	-56.899633	115.36	0.080	0.190	1.940	115.12	-0.80	2.20	 	 	 	 	 	 	 	 	 	 	 	 	 	 	 	 	 	 	1581469231	4.28	7.93
12/02/2020 01:00:32	120220	12022020	010032	115.20	13.873593	-56.899615	115.44	-0.430	0.590	1.330	115.20	-0.70	2.00	 	 	 	 	 	 	 	 	 	 	 	 	 	 	 	 	 	 	1581469232	4.42	8.19
12/02/2020 01:00:33	120220	12022020	010033	115.28	13.873583	-56.899593	115.51	-0.480	0.300	0.940	115.29	-1.20	1.40	 	 	 	 	 	 	 	 	 	 	 	 	 	 	 	 	 	 	1581469233	5.12	9.48
12/02/2020 01:00:34	120220	12022020	010034	115.23	13.873570	-56.899570	115.45	-0.090	-0.320	1.000	115.21	-1.80	1.60	 	 	 	 	 	 	 	 	 	 	 	 	 	 	 	 	 	 	1581469234	5.68	10.52
12/02/2020 01:00:35	120220	12022020	010035	115.14	13.873557	-56.899547	115.37	0.350	-0.740	1.150	115.13	-2.00	1.70	 	 	 	 	 	 	 	 	 	 	 	 	 	 	 	 	 	 	1581469235	5.63	10.43
12/02/2020 01:00:36	120220	12022020	010036	115.15	13.873545	-56.899525	115.40	0.470	-0.770	1.330	115.15	-1.90	2.00	 	 	 	 	 	 	 	 	 	 	 	 	 	 	 	 	 	 	1581469236	5.27	9.76
12/02/2020 01:00:37	120220	12022020	010037	115.06	13.873530	-56.899505	115.28	0.290	-0.610	1.860	114.99	-1.80	2.70	 	 	 	 	 	 	 	 	 	 	 	 	 	 	 	 	 	 	1581469237	5.15	9.54
12/02/2020 01:00:38	120220	12022020	010038	114.72	13.873515	-56.899485	114.96	0.050	-0.400	2.610	114.65	-1.50	3.40	 	 	 	 	 	 	 	 	 	 	 	 	 	 	 	 	 	 	1581469238	5.43	10.06
12/02/2020 01:00:39	120220	12022020	010039	114.42	13.873497	-56.899465	114.68	-0.200	-0.080	3.210	114.38	-1.10	3.80	 	 	 	 	 	 	 	 	 	 	 	 	 	 	 	 	 	 	1581469239	5.49	10.17
12/02/2020 01:00:40	120220	12022020	010040	114.31	13.873482	-56.899447	114.60	-0.340	0.320	3.350	114.32	-0.80	3.70	 	 	 	 	 	 	 	 	 	 	 	 	 	 	 	 	 	 	1581469240	5.21	9.65
12/02/2020 01:00:41	120220	12022020	010041	114.46	13.873470	-56.899427	114.77	-0.260	0.630	2.860	114.52	-0.60	3.10	 	 	 	 	 	 	 	 	 	 	 	 	 	 	 	 	 	 	1581469241	4.88	9.04
12/02/2020 01:00:42	120220	12022020	010042	114.71	13.873462	-56.899403	114.99	0.020	0.430	2.170	114.74	-1.10	2.50	 	 	 	 	 	 	 	 	 	 	 	 	 	 	 	 	 	 	1581469242	5.14	9.52
12/02/2020 01:00:43	120220	12022020	010043	114.81	13.873452	-56.899378	115.07	0.310	-0.380	1.780	114.81	-1.90	2.20	 	 	 	 	 	 	 	 	 	 	 	 	 	 	 	 	 	 	1581469243	5.84	10.82
12/02/2020 01:00:44	120220	12022020	010044	114.85	13.873440	-56.899352	115.12	0.310	-1.050	1.710	114.85	-2.20	2.20	 	 	 	 	 	 	 	 	 	 	 	 	 	 	 	 	 	 	1581469244	6.03	11.17
12/02/2020 01:00:45	120220	12022020	010045	114.90	13.873427	-56.899332	115.17	-0.030	-0.810	2.060	114.91	-1.70	2.80	 	 	 	 	 	 	 	 	 	 	 	 	 	 	 	 	 	 	1581469245	5.32	9.85
12/02/2020 01:00:46	120220	12022020	010046	114.92	13.873412	-56.899315	115.19	-0.390	0.020	2.590	114.92	-0.90	3.20	 	 	 	 	 	 	 	 	 	 	 	 	 	 	 	 	 	 	1581469246	4.59	8.50
12/02/2020 01:00:47	120220	12022020	010047	114.88	13.873397	-56.899298	115.13	-0.400	0.390	2.850	114.86	-0.90	3.30	 	 	 	 	 	 	 	 	 	 	 	 	 	 	 	 	 	 	1581469247	4.74	8.78
12/02/2020 01:00:48	120220	12022020	010048	114.72	13.873382	-56.899277	114.95	0.040	-0.100	2.740	114.68	-1.60	3.10	 	 	 	 	 	 	 	 	 	 	 	 	 	 	 	 	 	 	1581469248	5.63	10.43
12/02/2020 01:00:49	120220	12022020	010049	114.48	13.873368	-56.899252	114.71	0.590	-0.760	2.460	114.43	-2.10	2.80	 	 	 	 	 	 	 	 	 	 	 	 	 	 	 	 	 	 	1581469249	6.14	11.37
12/02/2020 01:00:50	120220	12022020	010050	114.23	13.873358	-56.899225	114.45	0.780	-0.870	2.110	114.19	-1.90	2.40	 	 	 	 	 	 	 	 	 	 	 	 	 	 	 	 	 	 	1581469250	5.80	10.74
12/02/2020 01:00:51	120220	12022020	010051	114.14	13.873352	-56.899202	114.40	0.450	-0.360	1.710	114.17	-1.20	2.10	 	 	 	 	 	 	 	 	 	 	 	 	 	 	 	 	 	 	1581469251	5.18	9.59
12/02/2020 01:00:52	120220	12022020	010052	114.45	13.873343	-56.899182	114.75	-0.210	0.480	1.460	114.56	-0.40	2.00	 	 	 	 	 	 	 	 	 	 	 	 	 	 	 	 	 	 	1581469252	4.56	8.45
12/02/2020 01:00:53	120220	12022020	010053	115.01	13.873330	-56.899165	115.30	-0.760	1.010	1.550	115.10	-0.20	2.20	 	 	 	 	 	 	 	 	 	 	 	 	 	 	 	 	 	 	1581469253	4.52	8.37
12/02/2020 01:00:54	120220	12022020	010054	115.31	13.873315	-56.899145	115.55	-0.770	0.630	2.010	115.31	-1.00	2.70	 	 	 	 	 	 	 	 	 	 	 	 	 	 	 	 	 	 	1581469254	5.29	9.80
12/02/2020 01:00:55	120220	12022020	010055	115.24	13.873297	-56.899122	115.47	-0.270	-0.480	2.520	115.19	-2.20	3.20	 	 	 	 	 	 	 	 	 	 	 	 	 	 	 	 	 	 	1581469255	6.25	11.58
12/02/2020 01:00:56	120220	12022020	010056	114.98	13.873280	-56.899097	115.22	0.330	-1.430	3.030	114.98	-2.50	3.40	 	 	 	 	 	 	 	 	 	 	 	 	 	 	 	 	 	 	1581469256	6.51	12.06
12/02/2020 01:00:57	120220	12022020	010057	114.80	13.873265	-56.899073	115.09	0.570	-1.390	3.320	114.80	-2.30	3.80	 	 	 	 	 	 	 	 	 	 	 	 	 	 	 	 	 	 	1581469257	5.83	10.80
12/02/2020 01:00:58	120220	12022020	010058	114.91	13.873253	-56.899053	115.22	0.360	-0.410	3.120	114.91	-1.90	3.70	 	 	 	 	 	 	 	 	 	 	 	 	 	 	 	 	 	 	1581469258	4.73	8.76
12/02/2020 01:00:59	120220	12022020	010059	115.21	13.873243	-56.899037	115.51	-0.030	0.790	2.530	115.27	-0.10	2.70	 	 	 	 	 	 	 	 	 	 	 	 	 	 	 	 	 	 	1581469259	4.08	7.56
12/02/2020 01:01:00	120220	12022020	010100	115.41	13.873235	-56.899017	115.64	-0.210	1.130	1.830	115.41	-0.30	2.10	 	 	 	 	 	 	 	 	 	 	 	 	 	 	 	 	 	 	1581469260	4.53	8.39
12/02/2020 01:01:01	120220	12022020	010101	115.38	13.873227	-56.898992	115.59	-0.020	0.310	1.260	115.36	-1.40	1.60	 	 	 	 	 	 	 	 	 	 	 	 	 	 	 	 	 	 	1581469261	5.75	10.65
12/02/2020 01:01:02	120220	12022020	010102	115.29	13.873215	-56.898963	115.50	0.220	-0.740	1.030	115.27	-2.20	1.60	1017.40	26.10	26.20	21.00	21.00	-1.0	73.0	73.0	392.0	25.8	322.00	14.40	69.00	12.40	16	10618.0	27.2	27.2	1581469262	6.35	11.76
12/02/2020 01:01:03	120220	12022020	010103	115.19	13.873202	-56.898940	115.41	0.090	-1.030	1.160	115.16	-2.10	1.80	 	 	 	 	 	 	 	 	 	 	 	 	 	 	 	 	 	 	1581469263	5.76	10.67
12/02/2020 01:01:04	120220	12022020	010104	115.11	13.873190	-56.898918	115.34	-0.320	-0.730	1.470	115.10	-1.80	2.10	 	 	 	 	 	 	 	 	 	 	 	 	 	 	 	 	 	 	1581469264	5.06	9.37
12/02/2020 01:01:05	120220	12022020	010105	115.14	13.873173	-56.898900	115.40	-0.490	-0.520	1.940	115.14	-1.70	2.70	 	 	 	 	 	 	 	 	 	 	 	 	 	 	 	 	 	 	1581469265	5.29	9.80
12/02/2020 01:01:06	120220	12022020	010106	115.15	13.873155	-56.898878	115.42	-0.160	-0.570	2.540	115.14	-1.70	3.20	 	 	 	 	 	 	 	 	 	 	 	 	 	 	 	 	 	 	1581469266	6.00	11.11
12/02/2020 01:01:07	120220	12022020	010107	115.10	13.873138	-56.898857	115.37	0.290	-0.290	2.810	115.10	-1.20	3.30	 	 	 	 	 	 	 	 	 	 	 	 	 	 	 	 	 	 	1581469267	5.94	11.00
12/02/2020 01:01:08	120220	12022020	010108	115.16	13.873127	-56.898837	115.45	0.260	0.720	2.580	115.21	0.00	2.90	 	 	 	 	 	 	 	 	 	 	 	 	 	 	 	 	 	 	1581469268	4.83	8.95
12/02/2020 01:01:09	120220	12022020	010109	115.51	13.873118	-56.898820	115.81	-0.250	1.700	2.100	115.60	0.50	2.40	 	 	 	 	 	 	 	 	 	 	 	 	 	 	 	 	 	 	1581469269	3.96	7.33
12/02/2020 01:01:10	120220	12022020	010110	115.94	13.873110	-56.898800	116.20	-0.530	1.270	1.510	115.99	-0.70	1.90	 	 	 	 	 	 	 	 	 	 	 	 	 	 	 	 	 	 	1581469270	4.64	8.59
12/02/2020 01:01:11	120220	12022020	010111	115.96	13.873095	-56.898772	116.15	-0.070	-0.740	1.400	115.90	-2.80	2.10	 	 	 	 	 	 	 	 	 	 	 	 	 	 	 	 	 	 	1581469271	6.54	12.11
12/02/2020 01:01:12	120220	12022020	010112	115.48	13.873077	-56.898742	115.66	0.670	-2.520	1.920	115.37	-3.90	2.70	 	 	 	 	 	 	 	 	 	 	 	 	 	 	 	 	 	 	1581469272	7.35	13.61
12/02/2020 01:01:13	120220	12022020	010113	114.99	13.873063	-56.898718	115.21	0.830	-2.230	2.320	114.93	-2.70	2.90	 	 	 	 	 	 	 	 	 	 	 	 	 	 	 	 	 	 	1581469273	5.90	10.93
12/02/2020 01:01:14	120220	12022020	010114	114.90	13.873053	-56.898703	115.20	0.130	-0.160	2.400	114.95	-0.50	2.90	 	 	 	 	 	 	 	 	 	 	 	 	 	 	 	 	 	 	1581469274	3.67	6.80
12/02/2020 01:01:15	120220	12022020	010115	115.22	13.873043	-56.898693	115.54	-0.820	1.560	2.380	115.30	0.50	2.90	 	 	 	 	 	 	 	 	 	 	 	 	 	 	 	 	 	 	1581469275	3.23	5.98
12/02/2020 01:01:16	120220	12022020	010116	115.53	13.873028	-56.898675	115.81	-1.110	1.290	2.390	115.56	-0.50	2.90	 	 	 	 	 	 	 	 	 	 	 	 	 	 	 	 	 	 	1581469276	4.99	9.24
12/02/2020 01:01:17	120220	12022020	010117	115.50	13.873010	-56.898647	115.73	-0.490	-0.360	2.450	115.45	-2.10	3.00	 	 	 	 	 	 	 	 	 	 	 	 	 	 	 	 	 	 	1581469277	6.93	12.83
12/02/2020 01:01:18	120220	12022020	010118	115.20	13.872992	-56.898620	115.42	0.420	-1.440	2.610	115.14	-2.60	3.20	 	 	 	 	 	 	 	 	 	 	 	 	 	 	 	 	 	 	1581469278	6.97	12.91
12/02/2020 01:01:19	120220	12022020	010119	114.99	13.872978	-56.898597	115.25	0.870	-1.100	2.600	114.98	-1.90	3.00	 	 	 	 	 	 	 	 	 	 	 	 	 	 	 	 	 	 	1581469279	5.57	10.32
12/02/2020 01:01:20	120220	12022020	010120	115.04	13.872970	-56.898577	115.31	0.710	-0.020	2.250	115.07	-0.80	2.60	 	 	 	 	 	 	 	 	 	 	 	 	 	 	 	 	 	 	1581469280	4.46	8.26
12/02/2020 01:01:21	120220	12022020	010121	115.16	13.872963	-56.898557	115.42	0.240	0.690	2.000	115.18	-0.40	2.50	 	 	 	 	 	 	 	 	 	 	 	 	 	 	 	 	 	 	1581469281	4.54	8.41
12/02/2020 01:01:22	120220	12022020	010122	115.21	13.872952	-56.898535	115.47	-0.300	0.800	2.060	115.21	-0.40	2.50	 	 	 	 	 	 	 	 	 	 	 	 	 	 	 	 	 	 	1581469282	5.14	9.52
12/02/2020 01:01:23	120220	12022020	010123	115.29	13.872937	-56.898515	115.56	-0.750	0.660	2.290	115.31	-0.60	2.90	 	 	 	 	 	 	 	 	 	 	 	 	 	 	 	 	 	 	1581469283	5.29	9.80
12/02/2020 01:01:24	120220	12022020	010124	115.36	13.872922	-56.898497	115.62	-0.830	0.310	2.460	115.36	-1.20	3.00	 	 	 	 	 	 	 	 	 	 	 	 	 	 	 	 	 	 	1581469284	5.23	9.69
12/02/2020 01:01:25	120220	12022020	010125	115.26	13.872907	-56.898475	115.50	-0.350	-0.520	2.600	115.21	-2.20	3.20	 	 	 	 	 	 	 	 	 	 	 	 	 	 	 	 	 	 	1581469285	5.58	10.33
12/02/2020 01:01:26	120220	12022020	010126	114.91	13.872890	-56.898450	115.12	0.470	-1.670	2.800	114.82	-3.20	3.40	 	 	 	 	 	 	 	 	 	 	 	 	 	 	 	 	 	 	1581469286	6.29	11.65
12/02/2020 01:01:27	120220	12022020	010127	114.58	13.872875	-56.898423	114.84	1.120	-2.220	2.780	114.56	-3.20	3.20	 	 	 	 	 	 	 	 	 	 	 	 	 	 	 	 	 	 	1581469287	6.44	11.93
12/02/2020 01:01:28	120220	12022020	010128	114.61	13.872865	-56.898400	114.90	1.060	-1.300	2.490	114.65	-1.80	2.90	 	 	 	 	 	 	 	 	 	 	 	 	 	 	 	 	 	 	1581469288	5.35	9.91
12/02/2020 01:01:29	120220	12022020	010129	114.80	13.872857	-56.898383	115.07	0.200	0.530	2.290	114.83	-0.00	2.80	 	 	 	 	 	 	 	 	 	 	 	 	 	 	 	 	 	 	1581469289	3.98	7.37
12/02/2020 01:01:30	120220	12022020	010130	114.88	13.872845	-56.898368	115.12	-0.910	1.720	2.380	114.87	0.60	2.90	 	 	 	 	 	 	 	 	 	 	 	 	 	 	 	 	 	 	1581469290	4.00	7.41
12/02/2020 01:01:31	120220	12022020	010131	114.84	13.872830	-56.898348	115.08	-1.420	1.570	2.420	114.83	0.00	2.90	 	 	 	 	 	 	 	 	 	 	 	 	 	 	 	 	 	 	1581469291	5.19	9.61
12/02/2020 01:01:32	120220	12022020	010132	114.86	13.872815	-56.898323	115.11	-0.970	0.610	2.210	114.87	-1.00	2.70	 	 	 	 	 	 	 	 	 	 	 	 	 	 	 	 	 	 	1581469292	6.02	11.15
12/02/2020 01:01:33	120220	12022020	010133	114.92	13.872802	-56.898298	115.16	0.010	-0.520	2.090	114.92	-2.20	2.60	 	 	 	 	 	 	 	 	 	 	 	 	 	 	 	 	 	 	1581469293	6.24	11.56
12/02/2020 01:01:34	120220	12022020	010134	114.93	13.872788	-56.898272	115.18	0.820	-1.410	2.110	114.93	-2.40	2.60	 	 	 	 	 	 	 	 	 	 	 	 	 	 	 	 	 	 	1581469294	6.20	11.48
12/02/2020 01:01:35	120220	12022020	010135	115.01	13.872777	-56.898248	115.29	0.940	-1.380	2.270	115.03	-2.20	2.90	 	 	 	 	 	 	 	 	 	 	 	 	 	 	 	 	 	 	1581469295	5.55	10.28
12/02/2020 01:01:36	120220	12022020	010136	115.14	13.872765	-56.898230	115.41	0.520	-0.360	2.560	115.15	-1.10	3.30	 	 	 	 	 	 	 	 	 	 	 	 	 	 	 	 	 	 	1581469296	4.46	8.26
12/02/2020 01:01:37	120220	12022020	010137	115.01	13.872752	-56.898215	115.23	0.100	0.480	3.010	114.94	-0.70	3.70	 	 	 	 	 	 	 	 	 	 	 	 	 	 	 	 	 	 	1581469297	4.23	7.83
12/02/2020 01:01:38	120220	12022020	010138	114.59	13.872738	-56.898193	114.83	0.080	0.110	3.240	114.53	-1.40	3.70	 	 	 	 	 	 	 	 	 	 	 	 	 	 	 	 	 	 	1581469298	5.52	10.22
12/02/2020 01:01:39	120220	12022020	010139	114.42	13.872723	-56.898167	114.70	0.140	-0.490	3.000	114.43	-1.70	3.30	 	 	 	 	 	 	 	 	 	 	 	 	 	 	 	 	 	 	1581469299	6.32	11.70
12/02/2020 01:01:40	120220	12022020	010140	114.70	13.872712	-56.898145	115.04	-0.170	-0.160	2.420	114.81	-1.00	2.70	 	 	 	 	 	 	 	 	 	 	 	 	 	 	 	 	 	 	1581469300	5.32	9.85
12/02/2020 01:01:41	120220	12022020	010141	115.23	13.872703	-56.898127	115.54	-0.750	0.660	1.770	115.32	-0.40	2.10	 	 	 	 	 	 	 	 	 	 	 	 	 	 	 	 	 	 	1581469301	4.16	7.70
12/02/2020 01:01:42	120220	12022020	010142	115.53	13.872693	-56.898108	115.78	-0.970	0.660	1.410	115.54	-0.90	1.90	 	 	 	 	 	 	 	 	 	 	 	 	 	 	 	 	 	 	1581469302	4.48	8.30
12/02/2020 01:01:43	120220	12022020	010143	115.46	13.872678	-56.898085	115.68	-0.450	-0.410	1.380	115.42	-2.10	2.00	 	 	 	 	 	 	 	 	 	 	 	 	 	 	 	 	 	 	1581469303	5.93	10.98
12/02/2020 01:01:44	120220	12022020	010144	115.24	13.872662	-56.898058	115.46	0.370	-1.380	1.590	115.19	-2.70	2.20	 	 	 	 	 	 	 	 	 	 	 	 	 	 	 	 	 	 	1581469304	6.43	11.91
12/02/2020 01:01:45	120220	12022020	010145	115.01	13.872648	-56.898035	115.25	0.890	-1.480	1.740	114.98	-2.40	2.30	 	 	 	 	 	 	 	 	 	 	 	 	 	 	 	 	 	 	1581469305	5.85	10.83
12/02/2020 01:01:46	120220	12022020	010146	114.91	13.872638	-56.898013	115.19	0.850	-0.720	1.690	114.91	-2.10	2.20	 	 	 	 	 	 	 	 	 	 	 	 	 	 	 	 	 	 	1581469306	5.03	9.32
12/02/2020 01:01:47	120220	12022020	010147	115.07	13.872630	-56.897995	115.38	0.350	0.490	1.630	115.13	-0.30	2.20	 	 	 	 	 	 	 	 	 	 	 	 	 	 	 	 	 	 	1581469307	4.41	8.17
12/02/2020 01:01:48	120220	12022020	010148	115.44	13.872618	-56.897977	115.77	-0.320	1.260	1.740	115.44	-0.00	2.20	 	 	 	 	 	 	 	 	 	 	 	 	 	 	 	 	 	 	1581469308	4.39	8.13
12/02/2020 01:01:49	120220	12022020	010149	115.79	13.872603	-56.897957	116.08	-0.740	1.030	1.990	115.82	-0.50	2.70	 	 	 	 	 	 	 	 	 	 	 	 	 	 	 	 	 	 	1581469309	5.22	9.67
12/02/2020 01:01:50	120220	12022020	010150	115.77	13.872585	-56.897935	116.02	-0.590	0.160	2.500	115.72	-1.40	3.20	 	 	 	 	 	 	 	 	 	 	 	 	 	 	 	 	 	 	1581469310	6.06	11.22
12/02/2020 01:01:51	120220	12022020	010151	115.41	13.872568	-56.897913	115.64	-0.060	-0.560	2.940	115.32	-1.90	3.60	 	 	 	 	 	 	 	 	 	 	 	 	 	 	 	 	 	 	1581469311	6.02	11.15
12/02/2020 01:01:52	120220	12022020	010152	115.01	13.872555	-56.897890	115.25	0.390	-0.880	3.140	114.94	-2.10	3.70	 	 	 	 	 	 	 	 	 	 	 	 	 	 	 	 	 	 	1581469312	5.52	10.22
12/02/2020 01:01:53	120220	12022020	010153	114.82	13.872543	-56.897868	115.11	0.490	-1.010	2.990	114.83	-2.20	3.40	 	 	 	 	 	 	 	 	 	 	 	 	 	 	 	 	 	 	1581469313	5.32	9.85
12/02/2020 01:01:54	120220	12022020	010154	114.95	13.872532	-56.897845	115.26	0.320	-0.990	2.600	114.99	-2.10	3.00	 	 	 	 	 	 	 	 	 	 	 	 	 	 	 	 	 	 	1581469314	5.40	10.00
12/02/2020 01:01:55	120220	12022020	010155	115.14	13.872518	-56.897823	115.42	0.040	-0.650	2.360	115.15	-1.60	2.90	 	 	 	 	 	 	 	 	 	 	 	 	 	 	 	 	 	 	1581469315	5.33	9.87
12/02/2020 01:01:56	120220	12022020	010156	115.13	13.872505	-56.897803	115.36	-0.100	-0.080	2.340	115.09	-1.10	2.90	 	 	 	 	 	 	 	 	 	 	 	 	 	 	 	 	 	 	1581469316	5.18	9.59
12/02/2020 01:01:57	120220	12022020	010157	114.93	13.872492	-56.897782	115.15	-0.010	0.350	2.220	114.90	-0.70	2.60	 	 	 	 	 	 	 	 	 	 	 	 	 	 	 	 	 	 	1581469317	5.22	9.67
12/02/2020 01:01:58	120220	12022020	010158	114.89	13.872482	-56.897760	115.14	-0.010	0.660	1.840	114.92	-0.40	2.30	 	 	 	 	 	 	 	 	 	 	 	 	 	 	 	 	 	 	1581469318	5.25	9.72
12/02/2020 01:01:59	120220	12022020	010159	115.11	13.872472	-56.897738	115.37	-0.290	0.840	1.620	115.16	-0.40	2.20	 	 	 	 	 	 	 	 	 	 	 	 	 	 	 	 	 	 	1581469319	5.02	9.30
12/02/2020 01:02:00	120220	12022020	010200	115.37	13.872460	-56.897717	115.64	-0.540	0.390	1.670	115.37	-0.60	2.20	 	 	 	 	 	 	 	 	 	 	 	 	 	 	 	 	 	 	1581469320	5.29	9.80
12/02/2020 01:02:01	120220	12022020	010201	115.57	13.872443	-56.897692	115.82	-0.310	-0.730	1.770	115.58	-2.40	2.40	 	 	 	 	 	 	 	 	 	 	 	 	 	 	 	 	 	 	1581469321	6.17	11.43
12/02/2020 01:02:02	120220	12022020	010202	115.42	13.872425	-56.897667	115.64	0.470	-1.730	2.130	115.35	-3.00	2.90	1017.20	26.10	26.10	20.90	21.00	-1.0	73.0	73.0	394.0	25.8	320.00	15.00	68.00	13.00	16	9843.0	27.2	27.1	1581469322	6.67	12.35
12/02/2020 01:02:03	120220	12022020	010203	114.94	13.872410	-56.897642	115.16	1.120	-1.550	2.620	114.85	-2.30	3.30	 	 	 	 	 	 	 	 	 	 	 	 	 	 	 	 	 	 	1581469323	5.98	11.07
12/02/2020 01:02:04	120220	12022020	010204	114.71	13.872400	-56.897625	114.98	0.870	-0.080	2.820	114.73	-0.60	3.20	 	 	 	 	 	 	 	 	 	 	 	 	 	 	 	 	 	 	1581469324	4.45	8.24
12/02/2020 01:02:05	120220	12022020	010205	115.07	13.872392	-56.897610	115.41	-0.140	1.510	2.430	115.20	0.60	2.70	 	 	 	 	 	 	 	 	 	 	 	 	 	 	 	 	 	 	1581469325	3.48	6.44
12/02/2020 01:02:06	120220	12022020	010206	115.73	13.872382	-56.897592	116.04	-0.990	1.750	1.940	115.84	0.10	2.40	 	 	 	 	 	 	 	 	 	 	 	 	 	 	 	 	 	 	1581469326	4.17	7.72
12/02/2020 01:02:07	120220	12022020	010207	116.01	13.872365	-56.897568	116.24	-1.000	0.220	2.070	115.99	-1.90	2.80	 	 	 	 	 	 	 	 	 	 	 	 	 	 	 	 	 	 	1581469327	6.10	11.30
12/02/2020 01:02:08	120220	12022020	010208	115.71	13.872343	-56.897542	115.90	-0.330	-1.790	2.600	115.61	-3.50	3.30	 	 	 	 	 	 	 	 	 	 	 	 	 	 	 	 	 	 	1581469328	7.45	13.80
12/02/2020 01:02:09	120220	12022020	010209	115.24	13.872323	-56.897515	115.47	0.340	-2.490	3.060	115.18	-3.40	3.70	 	 	 	 	 	 	 	 	 	 	 	 	 	 	 	 	 	 	1581469329	6.84	12.67
12/02/2020 01:02:10	120220	12022020	010210	115.10	13.872310	-56.897497	115.41	0.550	-1.430	3.080	115.12	-3.00	3.70	 	 	 	 	 	 	 	 	 	 	 	 	 	 	 	 	 	 	1581469330	5.08	9.41
12/02/2020 01:02:11	120220	12022020	010211	115.30	13.872302	-56.897480	115.58	0.370	0.320	2.520	115.34	-0.30	2.70	 	 	 	 	 	 	 	 	 	 	 	 	 	 	 	 	 	 	1581469331	3.84	7.11
12/02/2020 01:02:12	120220	12022020	010212	115.40	13.872295	-56.897462	115.62	0.090	1.370	1.660	115.40	0.00	2.40	 	 	 	 	 	 	 	 	 	 	 	 	 	 	 	 	 	 	1581469332	4.24	7.85
12/02/2020 01:02:13	120220	12022020	010213	115.34	13.872288	-56.897438	115.55	-0.140	1.410	1.070	115.34	-0.00	1.60	 	 	 	 	 	 	 	 	 	 	 	 	 	 	 	 	 	 	1581469333	5.16	9.56
12/02/2020 01:02:14	120220	12022020	010214	115.42	13.872277	-56.897413	115.66	-0.220	0.730	1.050	115.47	-0.90	1.60	 	 	 	 	 	 	 	 	 	 	 	 	 	 	 	 	 	 	1581469334	5.71	10.57
12/02/2020 01:02:15	120220	12022020	010215	115.71	13.872262	-56.897390	115.96	-0.060	-0.240	1.230	115.76	-1.90	1.90	 	 	 	 	 	 	 	 	 	 	 	 	 	 	 	 	 	 	1581469335	5.97	11.06
12/02/2020 01:02:16	120220	12022020	010216	115.75	13.872245	-56.897365	115.95	0.290	-1.250	1.630	115.70	-2.70	2.40	 	 	 	 	 	 	 	 	 	 	 	 	 	 	 	 	 	 	1581469336	6.15	11.39
12/02/2020 01:02:17	120220	12022020	010217	115.40	13.872227	-56.897343	115.61	0.450	-1.620	2.400	115.31	-2.60	3.30	 	 	 	 	 	 	 	 	 	 	 	 	 	 	 	 	 	 	1581469337	6.05	11.20
12/02/2020 01:02:18	120220	12022020	010218	115.04	13.872210	-56.897327	115.29	0.160	-0.870	3.360	114.99	-1.60	4.20	 	 	 	 	 	 	 	 	 	 	 	 	 	 	 	 	 	 	1581469338	5.27	9.76
12/02/2020 01:02:19	120220	12022020	010219	114.90	13.872193	-56.897313	115.18	-0.290	0.360	3.880	114.90	-0.50	4.40	 	 	 	 	 	 	 	 	 	 	 	 	 	 	 	 	 	 	1581469339	4.41	8.17
12/02/2020 01:02:20	120220	12022020	010220	114.94	13.872180	-56.897297	115.22	-0.470	0.800	3.680	114.95	-0.60	4.00	 	 	 	 	 	 	 	 	 	 	 	 	 	 	 	 	 	 	1581469340	4.54	8.41
12/02/2020 01:02:21	120220	12022020	010221	114.91	13.872168	-56.897272	115.14	-0.230	0.090	3.070	114.87	-1.50	3.40	 	 	 	 	 	 	 	 	 	 	 	 	 	 	 	 	 	 	1581469341	5.75	10.65
12/02/2020 01:02:22	120220	12022020	010222	114.74	13.872155	-56.897245	114.89	0.160	-0.830	2.600	114.69	-1.90	3.20	 	 	 	 	 	 	 	 	 	 	 	 	 	 	 	 	 	 	1581469342	6.42	11.89
12/02/2020 01:02:23	120220	12022020	010223	114.53	13.872143	-56.897218	114.73	0.380	-1.000	2.310	114.51	-2.00	2.80	 	 	 	 	 	 	 	 	 	 	 	 	 	 	 	 	 	 	1581469343	5.93	10.98
12/02/2020 01:02:24	120220	12022020	010224	114.46	13.872133	-56.897197	114.67	0.270	-0.450	2.140	114.46	-1.80	2.70	 	 	 	 	 	 	 	 	 	 	 	 	 	 	 	 	 	 	1581469344	5.11	9.46
12/02/2020 01:02:25	120220	12022020	010225	114.45	13.872122	-56.897177	114.68	-0.100	0.240	2.050	114.47	-0.70	2.60	 	 	 	 	 	 	 	 	 	 	 	 	 	 	 	 	 	 	1581469345	4.81	8.91
12/02/2020 01:02:26	120220	12022020	010226	114.59	13.872108	-56.897158	114.83	-0.500	0.700	2.130	114.63	-0.40	2.70	 	 	 	 	 	 	 	 	 	 	 	 	 	 	 	 	 	 	1581469346	4.90	9.07
12/02/2020 01:02:27	120220	12022020	010227	114.81	13.872093	-56.897138	115.07	-0.660	0.740	2.280	114.86	-0.60	2.80	 	 	 	 	 	 	 	 	 	 	 	 	 	 	 	 	 	 	1581469347	5.16	9.56
12/02/2020 01:02:28	120220	12022020	010228	114.99	13.872078	-56.897118	115.24	-0.410	0.300	2.310	115.01	-1.20	2.80	 	 	 	 	 	 	 	 	 	 	 	 	 	 	 	 	 	 	1581469348	5.47	10.13
12/02/2020 01:02:29	120220	12022020	010229	114.96	13.872063	-56.897095	115.18	0.170	-0.480	2.380	114.92	-2.00	3.00	 	 	 	 	 	 	 	 	 	 	 	 	 	 	 	 	 	 	1581469349	5.82	10.78
12/02/2020 01:02:30	120220	12022020	010230	114.62	13.872048	-56.897070	114.81	0.780	-1.280	2.570	114.52	-2.70	3.20	 	 	 	 	 	 	 	 	 	 	 	 	 	 	 	 	 	 	1581469350	6.09	11.28
12/02/2020 01:02:31	120220	12022020	010231	114.13	13.872037	-56.897045	114.34	1.080	-1.440	2.640	114.06	-2.40	3.10	 	 	 	 	 	 	 	 	 	 	 	 	 	 	 	 	 	 	1581469351	5.88	10.89
12/02/2020 01:02:32	120220	12022020	010232	114.01	13.872028	-56.897023	114.30	0.720	-0.450	2.450	114.06	-1.10	2.90	 	 	 	 	 	 	 	 	 	 	 	 	 	 	 	 	 	 	1581469352	4.86	9.00
12/02/2020 01:02:33	120220	12022020	010233	114.40	13.872022	-56.897007	114.71	-0.110	0.820	2.170	114.49	-0.20	2.60	 	 	 	 	 	 	 	 	 	 	 	 	 	 	 	 	 	 	1581469353	3.93	7.28
12/02/2020 01:02:34	120220	12022020	010234	114.70	13.872010	-56.896987	114.95	-0.740	0.860	2.140	114.70	-0.80	2.80	 	 	 	 	 	 	 	 	 	 	 	 	 	 	 	 	 	 	1581469354	4.75	8.80
12/02/2020 01:02:35	120220	12022020	010235	114.49	13.871990	-56.896962	114.70	-0.690	-0.440	2.690	114.40	-2.20	3.50	 	 	 	 	 	 	 	 	 	 	 	 	 	 	 	 	 	 	1581469355	6.61	12.24
12/02/2020 01:02:36	120220	12022020	010236	114.02	13.871970	-56.896935	114.26	-0.190	-1.400	3.360	114.02	-2.50	3.80	 	 	 	 	 	 	 	 	 	 	 	 	 	 	 	 	 	 	1581469356	7.20	13.33
12/02/2020 01:02:37	120220	12022020	010237	113.88	13.871953	-56.896915	114.21	0.060	-0.670	3.470	113.93	-1.20	3.80	 	 	 	 	 	 	 	 	 	 	 	 	 	 	 	 	 	 	1581469357	5.58	10.33
12/02/2020 01:02:38	120220	12022020	010238	114.37	13.871943	-56.896900	114.74	-0.260	0.860	2.990	114.37	-0.70	3.60	 	 	 	 	 	 	 	 	 	 	 	 	 	 	 	 	 	 	1581469358	3.82	7.07
12/02/2020 01:02:39	120220	12022020	010239	114.96	13.871933	-56.896883	115.27	-0.690	1.340	2.420	115.02	-0.20	2.80	 	 	 	 	 	 	 	 	 	 	 	 	 	 	 	 	 	 	1581469359	4.06	7.52
12/02/2020 01:02:40	120220	12022020	010240	114.95	13.871920	-56.896860	115.14	-0.550	0.110	2.340	114.86	-1.80	3.00	 	 	 	 	 	 	 	 	 	 	 	 	 	 	 	 	 	 	1581469360	5.85	10.83
12/02/2020 01:02:41	120220	12022020	010241	114.34	13.871902	-56.896830	114.51	0.170	-1.440	2.530	114.21	-2.90	3.10	 	 	 	 	 	 	 	 	 	 	 	 	 	 	 	 	 	 	1581469361	7.05	13.06
12/02/2020 01:02:42	120220	12022020	010242	113.90	13.871888	-56.896805	114.14	0.830	-1.610	2.520	113.87	-2.40	2.90	 	 	 	 	 	 	 	 	 	 	 	 	 	 	 	 	 	 	1581469362	6.13	11.35
12/02/2020 01:02:43	120220	12022020	010243	113.99	13.871880	-56.896785	114.29	0.950	-0.540	2.170	114.06	-1.30	2.50	 	 	 	 	 	 	 	 	 	 	 	 	 	 	 	 	 	 	1581469363	4.57	8.46
12/02/2020 01:02:44	120220	12022020	010244	114.34	13.871875	-56.896765	114.62	0.620	0.390	1.640	114.40	-0.70	2.00	 	 	 	 	 	 	 	 	 	 	 	 	 	 	 	 	 	 	1581469364	4.28	7.93
12/02/2020 01:02:45	120220	12022020	010245	114.60	13.871867	-56.896742	114.84	0.180	0.420	1.280	114.63	-1.00	1.80	 	 	 	 	 	 	 	 	 	 	 	 	 	 	 	 	 	 	1581469365	5.18	9.59
12/02/2020 01:02:46	120220	12022020	010246	114.74	13.871853	-56.896718	114.97	-0.170	-0.010	1.520	114.76	-1.40	2.40	 	 	 	 	 	 	 	 	 	 	 	 	 	 	 	 	 	 	1581469366	5.88	10.89
12/02/2020 01:02:47	120220	12022020	010247	114.74	13.871833	-56.896697	114.97	-0.420	-0.170	2.350	114.72	-1.30	3.20	 	 	 	 	 	 	 	 	 	 	 	 	 	 	 	 	 	 	1581469367	6.01	11.13
12/02/2020 01:02:48	120220	12022020	010248	114.62	13.871815	-56.896680	114.87	-0.560	0.180	3.140	114.60	-0.90	3.90	 	 	 	 	 	 	 	 	 	 	 	 	 	 	 	 	 	 	1581469368	5.49	10.17
12/02/2020 01:02:49	120220	12022020	010249	114.61	13.871798	-56.896663	114.90	-0.530	0.410	3.390	114.63	-0.90	3.90	 	 	 	 	 	 	 	 	 	 	 	 	 	 	 	 	 	 	1581469369	5.00	9.26
12/02/2020 01:02:50	120220	12022020	010250	114.67	13.871785	-56.896640	114.93	-0.210	-0.200	3.160	114.65	-1.90	3.50	 	 	 	 	 	 	 	 	 	 	 	 	 	 	 	 	 	 	1581469370	5.47	10.13
12/02/2020 01:02:51	120220	12022020	010251	114.43	13.871773	-56.896613	114.65	0.320	-1.280	2.780	114.37	-2.80	3.20	 	 	 	 	 	 	 	 	 	 	 	 	 	 	 	 	 	 	1581469371	6.41	11.87
12/02/2020 01:02:52	120220	12022020	010252	114.09	13.871762	-56.896585	114.31	0.680	-1.620	2.450	114.06	-2.60	2.90	 	 	 	 	 	 	 	 	 	 	 	 	 	 	 	 	 	 	1581469372	6.29	11.65
12/02/2020 01:02:53	120220	12022020	010253	114.01	13.871752	-56.896562	114.27	0.550	-0.860	2.250	114.02	-1.60	2.70	 	 	 	 	 	 	 	 	 	 	 	 	 	 	 	 	 	 	1581469373	5.25	9.72
12/02/2020 01:02:54	120220	12022020	010254	114.17	13.871742	-56.896543	114.45	0.010	0.210	2.100	114.22	-0.70	2.50	 	 	 	 	 	 	 	 	 	 	 	 	 	 	 	 	 	 	1581469374	4.69	8.69
12/02/2020 01:02:55	120220	12022020	010255	114.54	13.871730	-56.896523	114.85	-0.610	0.920	1.780	114.64	-0.10	2.20	 	 	 	 	 	 	 	 	 	 	 	 	 	 	 	 	 	 	1581469375	4.91	9.09
12/02/2020 01:02:56	120220	12022020	010256	114.97	13.871717	-56.896503	115.25	-1.030	1.320	1.680	115.04	0.10	2.30	 	 	 	 	 	 	 	 	 	 	 	 	 	 	 	 	 	 	1581469376	5.05	9.35
12/02/2020 01:02:57	120220	12022020	010257	115.21	13.871702	-56.896485	115.46	-1.020	1.250	1.980	115.23	-0.30	2.70	 	 	 	 	 	 	 	 	 	 	 	 	 	 	 	 	 	 	1581469377	5.12	9.48
12/02/2020 01:02:58	120220	12022020	010258	115.13	13.871685	-56.896463	115.33	-0.470	0.300	2.220	115.08	-1.50	2.80	 	 	 	 	 	 	 	 	 	 	 	 	 	 	 	 	 	 	1581469378	5.69	10.54
12/02/2020 01:02:59	120220	12022020	010259	114.81	13.871670	-56.896437	115.01	0.410	-1.230	2.200	114.74	-3.00	2.70	 	 	 	 	 	 	 	 	 	 	 	 	 	 	 	 	 	 	1581469379	6.48	12.00
12/02/2020 01:03:00	120220	12022020	010300	114.52	13.871657	-56.896408	114.76	1.210	-2.400	2.170	114.48	-3.80	2.70	 	 	 	 	 	 	 	 	 	 	 	 	 	 	 	 	 	 	1581469380	6.71	12.43
12/02/2020 01:03:01	120220	12022020	010301	114.47	13.871645	-56.896382	114.76	1.530	-2.330	2.140	114.50	-3.10	2.60	 	 	 	 	 	 	 	 	 	 	 	 	 	 	 	 	 	 	1581469381	6.08	11.26
12/02/2020 01:03:02	120220	12022020	010302	114.70	13.871635	-56.896360	115.00	1.110	-0.890	1.980	114.70	-2.50	2.60	1017.20	26.10	26.10	21.00	21.10	-1.0	73.0	73.0	402.0	25.8	320.00	14.60	67.00	12.60	16	10146.0	27.2	27.1	1581469382	4.85	8.98
12/02/2020 01:03:03	120220	12022020	010303	115.02	13.871627	-56.896343	115.29	0.130	1.030	1.840	115.07	0.40	2.40	 	 	 	 	 	 	 	 	 	 	 	 	 	 	 	 	 	 	1581469383	3.90	7.22
12/02/2020 01:03:04	120220	12022020	010304	115.09	13.871617	-56.896327	115.30	-0.860	2.180	2.060	115.08	1.10	2.80	 	 	 	 	 	 	 	 	 	 	 	 	 	 	 	 	 	 	1581469384	4.21	7.80
12/02/2020 01:03:05	120220	12022020	010305	115.04	13.871600	-56.896308	115.27	-1.480	2.100	2.500	115.05	0.50	3.20	 	 	 	 	 	 	 	 	 	 	 	 	 	 	 	 	 	 	1581469385	5.23	9.69
12/02/2020 01:03:06	120220	12022020	010306	115.15	13.871582	-56.896287	115.41	-1.540	0.950	2.840	115.19	-1.00	3.50	 	 	 	 	 	 	 	 	 	 	 	 	 	 	 	 	 	 	1581469386	6.00	11.11
12/02/2020 01:03:07	120220	12022020	010307	115.20	13.871563	-56.896262	115.40	-0.970	-0.870	3.000	115.15	-2.90	3.60	 	 	 	 	 	 	 	 	 	 	 	 	 	 	 	 	 	 	1581469387	6.57	12.17
12/02/2020 01:03:08	120220	12022020	010308	114.69	13.871545	-56.896233	114.83	0.120	-2.610	3.270	114.53	-4.20	4.00	 	 	 	 	 	 	 	 	 	 	 	 	 	 	 	 	 	 	1581469388	7.02	13.00
12/02/2020 01:03:09	120220	12022020	010309	113.97	13.871528	-56.896208	114.16	1.130	-3.030	3.700	113.87	-3.90	4.40	 	 	 	 	 	 	 	 	 	 	 	 	 	 	 	 	 	 	1581469389	6.64	12.30
12/02/2020 01:03:10	120220	12022020	010310	113.71	13.871515	-56.896187	113.99	1.400	-1.670	3.850	113.74	-2.00	4.20	 	 	 	 	 	 	 	 	 	 	 	 	 	 	 	 	 	 	1581469390	5.18	9.59
12/02/2020 01:03:11	120220	12022020	010311	114.02	13.871507	-56.896170	114.34	0.940	0.480	3.150	114.13	-0.00	3.20	 	 	 	 	 	 	 	 	 	 	 	 	 	 	 	 	 	 	1581469391	3.89	7.20
12/02/2020 01:03:12	120220	12022020	010312	114.57	13.871503	-56.896152	114.85	0.250	1.890	1.900	114.68	0.90	2.00	 	 	 	 	 	 	 	 	 	 	 	 	 	 	 	 	 	 	1581469392	4.17	7.72
12/02/2020 01:03:13	120220	12022020	010313	115.08	13.871498	-56.896127	115.32	-0.390	2.140	1.030	115.16	0.80	1.50	 	 	 	 	 	 	 	 	 	 	 	 	 	 	 	 	 	 	1581469393	5.09	9.43
12/02/2020 01:03:14	120220	12022020	010314	115.37	13.871487	-56.896105	115.62	-1.000	1.680	1.020	115.42	0.60	1.50	 	 	 	 	 	 	 	 	 	 	 	 	 	 	 	 	 	 	1581469394	5.36	9.93
12/02/2020 01:03:15	120220	12022020	010315	115.51	13.871470	-56.896083	115.68	-1.380	0.740	1.410	115.49	-1.10	2.20	 	 	 	 	 	 	 	 	 	 	 	 	 	 	 	 	 	 	1581469395	5.45	10.09
12/02/2020 01:03:16	120220	12022020	010316	115.32	13.871452	-56.896063	115.48	-1.070	-0.900	1.950	115.32	-1.70	2.40	 	 	 	 	 	 	 	 	 	 	 	 	 	 	 	 	 	 	1581469396	6.07	11.24
12/02/2020 01:03:17	120220	12022020	010317	114.99	13.871430	-56.896037	115.15	0.210	-3.030	2.520	114.91	-5.00	3.30	 	 	 	 	 	 	 	 	 	 	 	 	 	 	 	 	 	 	1581469397	7.12	13.19
12/02/2020 01:03:18	120220	12022020	010318	114.44	13.871412	-56.896008	114.59	1.790	-4.160	3.070	114.31	-5.10	3.70	 	 	 	 	 	 	 	 	 	 	 	 	 	 	 	 	 	 	1581469398	7.39	13.69
12/02/2020 01:03:19	120220	12022020	010319	113.96	13.871400	-56.895983	114.15	2.290	-2.610	3.010	113.92	-2.50	3.30	 	 	 	 	 	 	 	 	 	 	 	 	 	 	 	 	 	 	1581469399	5.63	10.43
12/02/2020 01:03:20	120220	12022020	010320	114.02	13.871397	-56.895970	114.28	1.140	1.030	2.400	114.10	1.30	2.60	 	 	 	 	 	 	 	 	 	 	 	 	 	 	 	 	 	 	1581469400	2.97	5.50
12/02/2020 01:03:21	120220	12022020	010321	114.57	13.871395	-56.895962	114.84	-0.850	4.130	1.810	114.69	3.40	2.20	 	 	 	 	 	 	 	 	 	 	 	 	 	 	 	 	 	 	1581469401	1.90	3.52
12/02/2020 01:03:22	120220	12022020	010322	115.09	13.871385	-56.895947	115.34	-2.200	4.330	1.690	115.18	2.20	2.30	 	 	 	 	 	 	 	 	 	 	 	 	 	 	 	 	 	 	1581469402	3.65	6.76
12/02/2020 01:03:23	120220	12022020	010323	115.42	13.871368	-56.895922	115.64	-2.140	1.690	1.780	115.48	-0.90	2.40	 	 	 	 	 	 	 	 	 	 	 	 	 	 	 	 	 	 	1581469403	6.56	12.15
12/02/2020 01:03:24	120220	12022020	010324	115.65	13.871347	-56.895892	115.87	-1.070	-1.540	1.920	115.68	-3.80	2.60	 	 	 	 	 	 	 	 	 	 	 	 	 	 	 	 	 	 	1581469404	7.75	14.35
12/02/2020 01:03:25	120220	12022020	010325	115.67	13.871327	-56.895865	115.86	0.200	-3.390	2.300	115.62	-4.80	3.10	 	 	 	 	 	 	 	 	 	 	 	 	 	 	 	 	 	 	1581469405	6.96	12.89
12/02/2020 01:03:26	120220	12022020	010326	115.25	13.871308	-56.895847	115.40	1.170	-3.400	2.910	115.25	-4.80	3.30	 	 	 	 	 	 	 	 	 	 	 	 	 	 	 	 	 	 	1581469406	5.51	10.20
12/02/2020 01:03:27	120220	12022020	010327	114.47	13.871297	-56.895828	114.63	1.700	-2.230	3.220	114.32	-2.70	3.60	 	 	 	 	 	 	 	 	 	 	 	 	 	 	 	 	 	 	1581469407	4.60	8.52
12/02/2020 01:03:28	120220	12022020	010328	114.02	13.871290	-56.895810	114.27	1.450	-0.170	2.750	114.02	-2.00	3.50	 	 	 	 	 	 	 	 	 	 	 	 	 	 	 	 	 	 	1581469408	4.11	7.61
12/02/2020 01:03:29	120220	12022020	010329	114.26	13.871287	-56.895795	114.54	0.340	2.190	1.750	114.36	1.60	1.80	 	 	 	 	 	 	 	 	 	 	 	 	 	 	 	 	 	 	1581469409	3.29	6.09
12/02/2020 01:03:30	120220	12022020	010330	114.74	13.871285	-56.895778	114.97	-0.940	3.280	0.780	114.81	1.80	1.10	 	 	 	 	 	 	 	 	 	 	 	 	 	 	 	 	 	 	1581469410	3.43	6.35
12/02/2020 01:03:31	120220	12022020	010331	114.90	13.871275	-56.895757	115.07	-1.390	2.030	0.430	114.89	-0.30	1.00	 	 	 	 	 	 	 	 	 	 	 	 	 	 	 	 	 	 	1581469411	5.07	9.39
12/02/2020 01:03:32	120220	12022020	010332	114.77	13.871258	-56.895727	114.94	-0.740	-0.770	0.710	114.74	-3.10	1.50	 	 	 	 	 	 	 	 	 	 	 	 	 	 	 	 	 	 	1581469412	7.05	13.06
12/02/2020 01:03:33	120220	12022020	010333	114.63	13.871238	-56.895698	114.82	0.270	-2.950	1.440	114.60	-4.50	2.30	 	 	 	 	 	 	 	 	 	 	 	 	 	 	 	 	 	 	1581469413	7.44	13.78
12/02/2020 01:03:34	120220	12022020	010334	114.51	13.871218	-56.895678	114.73	0.760	-2.920	2.230	114.49	-3.50	3.00	 	 	 	 	 	 	 	 	 	 	 	 	 	 	 	 	 	 	1581469414	5.99	11.09
12/02/2020 01:03:35	120220	12022020	010335	114.47	13.871205	-56.895667	114.70	0.590	-1.120	2.590	114.47	-1.50	3.10	 	 	 	 	 	 	 	 	 	 	 	 	 	 	 	 	 	 	1581469415	4.05	7.50
12/02/2020 01:03:36	120220	12022020	010336	114.49	13.871195	-56.895655	114.72	0.280	0.890	2.450	114.50	0.20	2.90	 	 	 	 	 	 	 	 	 	 	 	 	 	 	 	 	 	 	1581469416	3.14	5.82
12/02/2020 01:03:37	120220	12022020	010337	114.49	13.871188	-56.895638	114.71	0.110	1.850	2.180	114.49	0.60	2.60	 	 	 	 	 	 	 	 	 	 	 	 	 	 	 	 	 	 	1581469417	3.70	6.85
12/02/2020 01:03:38	120220	12022020	010338	114.47	13.871180	-56.895617	114.66	0.040	1.440	1.800	114.47	-0.30	2.10	 	 	 	 	 	 	 	 	 	 	 	 	 	 	 	 	 	 	1581469418	4.90	9.07
12/02/2020 01:03:39	120220	12022020	010339	114.42	13.871172	-56.895590	114.60	0.030	0.060	1.390	114.41	-1.80	1.80	 	 	 	 	 	 	 	 	 	 	 	 	 	 	 	 	 	 	1581469419	5.93	10.98
12/02/2020 01:03:40	120220	12022020	010340	114.44	13.871160	-56.895563	114.66	0.090	-1.280	1.220	114.47	-2.80	1.80	 	 	 	 	 	 	 	 	 	 	 	 	 	 	 	 	 	 	1581469420	6.19	11.46
12/02/2020 01:03:41	120220	12022020	010341	114.66	13.871147	-56.895540	114.90	0.110	-1.670	1.540	114.69	-2.70	2.40	 	 	 	 	 	 	 	 	 	 	 	 	 	 	 	 	 	 	1581469421	5.62	10.41
12/02/2020 01:03:42	120220	12022020	010342	114.74	13.871130	-56.895523	114.96	-0.060	-0.980	2.360	114.72	-1.80	3.20	 	 	 	 	 	 	 	 	 	 	 	 	 	 	 	 	 	 	1581469422	4.89	9.06
12/02/2020 01:03:43	120220	12022020	010343	114.49	13.871113	-56.895512	114.70	-0.290	0.100	3.120	114.43	-0.80	3.70	 	 	 	 	 	 	 	 	 	 	 	 	 	 	 	 	 	 	1581469423	4.44	8.22
12/02/2020 01:03:44	120220	12022020	010344	114.24	13.871100	-56.895495	114.48	-0.350	0.760	3.140	114.23	-0.50	3.50	 	 	 	 	 	 	 	 	 	 	 	 	 	 	 	 	 	 	1581469424	4.27	7.91
12/02/2020 01:03:45	120220	12022020	010345	114.23	13.871092	-56.895475	114.46	-0.110	0.470	2.600	114.24	-1.10	2.90	 	 	 	 	 	 	 	 	 	 	 	 	 	 	 	 	 	 	1581469425	4.95	9.17
12/02/2020 01:03:46	120220	12022020	010346	114.32	13.871082	-56.895448	114.56	0.350	-0.500	1.910	114.35	-2.10	2.20	 	 	 	 	 	 	 	 	 	 	 	 	 	 	 	 	 	 	1581469426	5.92	10.96
12/02/2020 01:03:47	120220	12022020	010347	114.57	13.871072	-56.895420	114.84	0.680	-1.090	1.320	114.65	-2.20	1.70	 	 	 	 	 	 	 	 	 	 	 	 	 	 	 	 	 	 	1581469427	6.03	11.17
12/02/2020 01:03:48	120220	12022020	010348	115.03	13.871062	-56.895400	115.32	0.540	-0.520	1.180	115.13	-1.30	1.80	 	 	 	 	 	 	 	 	 	 	 	 	 	 	 	 	 	 	1581469428	4.90	9.07
12/02/2020 01:03:49	120220	12022020	010349	115.44	13.871052	-56.895387	115.67	0.060	0.670	1.410	115.47	-0.20	2.10	 	 	 	 	 	 	 	 	 	 	 	 	 	 	 	 	 	 	1581469429	3.78	7.00
12/02/2020 01:03:50	120220	12022020	010350	115.40	13.871040	-56.895372	115.44	-0.290	1.140	1.840	115.32	-0.10	2.20	 	 	 	 	 	 	 	 	 	 	 	 	 	 	 	 	 	 	1581469430	3.86	7.15
12/02/2020 01:03:51	120220	12022020	010351	114.71	13.871027	-56.895350	114.84	-0.160	0.240	2.310	114.60	-1.50	2.90	 	 	 	 	 	 	 	 	 	 	 	 	 	 	 	 	 	 	1581469431	5.25	9.72
12/02/2020 01:03:52	120220	12022020	010352	114.44	13.871013	-56.895325	114.69	0.200	-0.940	2.470	114.44	-1.90	3.00	 	 	 	 	 	 	 	 	 	 	 	 	 	 	 	 	 	 	1581469432	6.15	11.39
12/02/2020 01:03:53	120220	12022020	010353	114.85	13.871002	-56.895302	115.15	0.280	-1.240	2.480	114.96	-2.30	3.00	 	 	 	 	 	 	 	 	 	 	 	 	 	 	 	 	 	 	1581469433	5.47	10.13
12/02/2020 01:03:54	120220	12022020	010354	115.34	13.870988	-56.895283	115.61	-0.030	-0.840	2.510	115.39	-1.90	3.10	 	 	 	 	 	 	 	 	 	 	 	 	 	 	 	 	 	 	1581469434	4.66	8.63
12/02/2020 01:03:55	120220	12022020	010355	115.35	13.870973	-56.895267	115.55	-0.300	-0.430	2.790	115.28	-1.50	3.50	 	 	 	 	 	 	 	 	 	 	 	 	 	 	 	 	 	 	1581469435	4.80	8.89
12/02/2020 01:03:56	120220	12022020	010356	114.87	13.870957	-56.895250	115.05	-0.200	0.030	3.120	114.77	-1.00	3.70	 	 	 	 	 	 	 	 	 	 	 	 	 	 	 	 	 	 	1581469436	4.97	9.20
12/02/2020 01:03:57	120220	12022020	010357	114.43	13.870945	-56.895232	114.64	0.110	0.510	3.030	114.38	-0.70	3.40	 	 	 	 	 	 	 	 	 	 	 	 	 	 	 	 	 	 	1581469437	4.64	8.59
12/02/2020 01:03:58	120220	12022020	010358	114.29	13.870937	-56.895210	114.54	0.340	0.390	2.550	114.30	-1.10	2.80	 	 	 	 	 	 	 	 	 	 	 	 	 	 	 	 	 	 	1581469438	4.95	9.17
12/02/2020 01:03:59	120220	12022020	010359	114.40	13.870928	-56.895185	114.65	0.290	-0.220	1.790	114.45	-1.70	2.00	 	 	 	 	 	 	 	 	 	 	 	 	 	 	 	 	 	 	1581469439	5.61	10.39
12/02/2020 01:04:00	120220	12022020	010400	114.74	13.870920	-56.895160	115.01	-0.000	-0.500	1.060	114.82	-1.60	1.40	 	 	 	 	 	 	 	 	 	 	 	 	 	 	 	 	 	 	1581469440	5.46	10.11
12/02/2020 01:04:01	120220	12022020	010401	115.13	13.870910	-56.895142	115.38	-0.310	-0.090	0.980	115.18	-1.10	1.70	 	 	 	 	 	 	 	 	 	 	 	 	 	 	 	 	 	 	1581469441	4.55	8.43
12/02/2020 01:04:02	120220	12022020	010402	115.21	13.870897	-56.895125	115.39	-0.400	0.320	1.670	115.19	-1.00	2.00	1017.40	26.10	26.10	21.20	21.30	-1.0	74.0	74.0	402.0	25.8	319.00	14.60	66.00	12.80	16	9520.0	27.1	27.1	1581469442	4.38	8.11
12/02/2020 01:04:03	120220	12022020	010403	114.99	13.870880	-56.895108	115.21	-0.220	0.170	2.360	114.96	-1.30	3.10	 	 	 	 	 	 	 	 	 	 	 	 	 	 	 	 	 	 	1581469443	4.92	9.11
12/02/2020 01:04:04	120220	12022020	010404	114.85	13.870865	-56.895088	115.09	0.090	-0.530	2.840	114.85	-1.60	3.20	 	 	 	 	 	 	 	 	 	 	 	 	 	 	 	 	 	 	1581469444	5.53	10.24
12/02/2020 01:04:05	120220	12022020	010405	114.61	13.870848	-56.895065	114.82	0.380	-1.270	3.420	114.53	-2.60	4.10	 	 	 	 	 	 	 	 	 	 	 	 	 	 	 	 	 	 	1581469445	5.94	11.00
12/02/2020 01:04:06	120220	12022020	010406	114.19	13.870833	-56.895043	114.42	0.520	-1.310	3.740	114.14	-2.20	4.20	 	 	 	 	 	 	 	 	 	 	 	 	 	 	 	 	 	 	1581469446	5.67	10.50
12/02/2020 01:04:07	120220	12022020	010407	114.09	13.870825	-56.895023	114.37	0.330	-0.300	3.330	114.13	-1.00	3.60	 	 	 	 	 	 	 	 	 	 	 	 	 	 	 	 	 	 	1581469447	4.56	8.45
12/02/2020 01:04:08	120220	12022020	010408	114.44	13.870818	-56.895007	114.73	-0.090	0.910	2.670	114.53	-0.10	3.00	 	 	 	 	 	 	 	 	 	 	 	 	 	 	 	 	 	 	1581469448	3.79	7.02
12/02/2020 01:04:09	120220	12022020	010409	114.85	13.870808	-56.894988	115.11	-0.390	1.110	2.370	114.91	-0.40	2.90	 	 	 	 	 	 	 	 	 	 	 	 	 	 	 	 	 	 	1581469449	4.39	8.13
12/02/2020 01:04:10	120220	12022020	010410	115.07	13.870795	-56.894965	115.30	-0.350	0.320	2.340	115.09	-1.30	2.80	 	 	 	 	 	 	 	 	 	 	 	 	 	 	 	 	 	 	1581469450	5.63	10.43
12/02/2020 01:04:11	120220	12022020	010411	115.11	13.870780	-56.894942	115.32	-0.140	-0.380	2.200	115.10	-1.70	2.70	 	 	 	 	 	 	 	 	 	 	 	 	 	 	 	 	 	 	1581469451	5.78	10.70
12/02/2020 01:04:12	120220	12022020	010412	115.04	13.870770	-56.894922	115.23	-0.080	-0.460	2.090	115.02	-1.60	2.60	 	 	 	 	 	 	 	 	 	 	 	 	 	 	 	 	 	 	1581469452	4.99	9.24
12/02/2020 01:04:13	120220	12022020	010413	114.99	13.870758	-56.894903	115.19	-0.220	-0.340	2.150	114.99	-1.60	2.70	 	 	 	 	 	 	 	 	 	 	 	 	 	 	 	 	 	 	1581469453	4.52	8.37
12/02/2020 01:04:14	120220	12022020	010414	115.03	13.870745	-56.894883	115.24	-0.280	-0.590	2.240	115.03	-2.00	2.80	 	 	 	 	 	 	 	 	 	 	 	 	 	 	 	 	 	 	1581469454	4.92	9.11
12/02/2020 01:04:15	120220	12022020	010415	114.97	13.870730	-56.894862	115.15	-0.000	-1.130	2.460	114.93	-2.50	3.10	 	 	 	 	 	 	 	 	 	 	 	 	 	 	 	 	 	 	1581469455	5.66	10.48
12/02/2020 01:04:16	120220	12022020	010416	114.73	13.870715	-56.894838	114.80	0.470	-1.320	2.740	114.65	-2.60	3.20	 	 	 	 	 	 	 	 	 	 	 	 	 	 	 	 	 	 	1581469456	5.89	10.91
12/02/2020 01:04:17	120220	12022020	010417	114.30	13.870702	-56.894817	114.49	0.650	-0.580	2.790	114.26	-1.30	3.20	 	 	 	 	 	 	 	 	 	 	 	 	 	 	 	 	 	 	1581469457	5.18	9.59
12/02/2020 01:04:18	120220	12022020	010418	114.28	13.870693	-56.894800	114.52	0.300	0.830	2.540	114.28	-0.80	3.10	 	 	 	 	 	 	 	 	 	 	 	 	 	 	 	 	 	 	1581469458	4.07	7.54
12/02/2020 01:04:19	120220	12022020	010419	114.64	13.870688	-56.894783	114.91	-0.320	1.800	2.120	114.74	0.60	2.50	 	 	 	 	 	 	 	 	 	 	 	 	 	 	 	 	 	 	1581469459	3.77	6.98
12/02/2020 01:04:20	120220	12022020	010420	115.16	13.870678	-56.894763	115.40	-0.780	1.410	1.700	115.24	-0.40	2.10	 	 	 	 	 	 	 	 	 	 	 	 	 	 	 	 	 	 	1581469460	4.67	8.65
12/02/2020 01:04:21	120220	12022020	010421	115.37	13.870665	-56.894738	115.54	-0.810	-0.140	1.670	115.35	-2.10	2.40	 	 	 	 	 	 	 	 	 	 	 	 	 	 	 	 	 	 	1581469461	6.00	11.11
12/02/2020 01:04:22	120220	12022020	010422	115.06	13.870645	-56.894715	115.20	-0.500	-1.650	2.300	114.95	-3.20	3.20	 	 	 	 	 	 	 	 	 	 	 	 	 	 	 	 	 	 	1581469462	6.59	12.20
12/02/2020 01:04:23	120220	12022020	010423	114.59	13.870625	-56.894693	114.80	-0.070	-2.040	3.110	114.54	-3.10	3.80	 	 	 	 	 	 	 	 	 	 	 	 	 	 	 	 	 	 	1581469463	6.03	11.17
12/02/2020 01:04:24	120220	12022020	010424	114.47	13.870610	-56.894677	114.74	0.320	-1.260	3.390	114.49	-2.00	3.80	 	 	 	 	 	 	 	 	 	 	 	 	 	 	 	 	 	 	1581469464	4.83	8.95
12/02/2020 01:04:25	120220	12022020	010425	114.56	13.870600	-56.894660	114.81	0.610	-0.150	2.870	114.58	-1.00	3.00	 	 	 	 	 	 	 	 	 	 	 	 	 	 	 	 	 	 	1581469465	4.15	7.69
12/02/2020 01:04:26	120220	12022020	010426	114.54	13.870593	-56.894640	114.75	0.720	0.530	2.020	114.53	-0.60	2.30	 	 	 	 	 	 	 	 	 	 	 	 	 	 	 	 	 	 	1581469466	4.55	8.43
12/02/2020 01:04:27	120220	12022020	010427	114.48	13.870587	-56.894617	114.69	0.510	0.740	1.520	114.49	-0.50	2.00	 	 	 	 	 	 	 	 	 	 	 	 	 	 	 	 	 	 	1581469467	5.04	9.33
12/02/2020 01:04:28	120220	12022020	010428	114.57	13.870578	-56.894595	114.80	-0.000	0.650	1.420	114.60	-0.70	2.00	 	 	 	 	 	 	 	 	 	 	 	 	 	 	 	 	 	 	1581469468	5.06	9.37
12/02/2020 01:04:29	120220	12022020	010429	114.71	13.870567	-56.894572	114.93	-0.600	0.190	1.500	114.72	-1.30	2.20	 	 	 	 	 	 	 	 	 	 	 	 	 	 	 	 	 	 	1581469469	5.18	9.59
12/02/2020 01:04:30	120220	12022020	010430	114.69	13.870552	-56.894552	114.90	-0.920	-0.500	1.990	114.66	-2.00	2.90	 	 	 	 	 	 	 	 	 	 	 	 	 	 	 	 	 	 	1581469470	5.62	10.41
12/02/2020 01:04:31	120220	12022020	010431	114.57	13.870532	-56.894532	114.82	-0.860	-0.910	2.890	114.56	-2.20	3.70	 	 	 	 	 	 	 	 	 	 	 	 	 	 	 	 	 	 	1581469471	5.92	10.96
12/02/2020 01:04:32	120220	12022020	010432	114.59	13.870512	-56.894515	114.87	-0.490	-0.790	3.520	114.61	-1.90	4.10	 	 	 	 	 	 	 	 	 	 	 	 	 	 	 	 	 	 	1581469472	5.61	10.39
12/02/2020 01:04:33	120220	12022020	010433	114.67	13.870495	-56.894497	114.94	0.060	-0.520	3.560	114.67	-1.70	4.00	 	 	 	 	 	 	 	 	 	 	 	 	 	 	 	 	 	 	1581469473	5.11	9.46
12/02/2020 01:04:34	120220	12022020	010434	114.54	13.870483	-56.894475	114.75	0.600	-0.490	3.220	114.48	-1.70	3.50	 	 	 	 	 	 	 	 	 	 	 	 	 	 	 	 	 	 	1581469474	5.22	9.67
12/02/2020 01:04:35	120220	12022020	010435	114.16	13.870473	-56.894452	114.34	0.840	-0.330	2.720	114.08	-1.30	3.00	 	 	 	 	 	 	 	 	 	 	 	 	 	 	 	 	 	 	1581469475	5.34	9.89
12/02/2020 01:04:36	120220	12022020	010436	113.85	13.870468	-56.894430	114.06	0.570	0.400	2.060	113.84	-0.50	2.30	 	 	 	 	 	 	 	 	 	 	 	 	 	 	 	 	 	 	1581469476	4.77	8.83
12/02/2020 01:04:37	120220	12022020	010437	113.99	13.870463	-56.894410	114.24	0.020	1.100	1.260	114.07	-0.20	1.50	 	 	 	 	 	 	 	 	 	 	 	 	 	 	 	 	 	 	1581469477	4.23	7.83
12/02/2020 01:04:38	120220	12022020	010438	114.41	13.870457	-56.894388	114.64	-0.340	0.680	0.660	114.48	-1.10	1.10	 	 	 	 	 	 	 	 	 	 	 	 	 	 	 	 	 	 	1581469478	4.83	8.95
12/02/2020 01:04:39	120220	12022020	010439	114.58	13.870443	-56.894362	114.76	-0.300	-0.810	0.830	114.56	-2.60	1.70	 	 	 	 	 	 	 	 	 	 	 	 	 	 	 	 	 	 	1581469479	6.26	11.59
12/02/2020 01:04:40	120220	12022020	010440	114.36	13.870422	-56.894338	114.54	-0.190	-1.850	1.900	114.29	-3.10	2.90	 	 	 	 	 	 	 	 	 	 	 	 	 	 	 	 	 	 	1581469480	6.84	12.67
12/02/2020 01:04:41	120220	12022020	010441	114.02	13.870398	-56.894322	114.23	-0.230	-1.270	3.000	113.96	-1.90	3.80	 	 	 	 	 	 	 	 	 	 	 	 	 	 	 	 	 	 	1581469481	5.83	10.80
12/02/2020 01:04:42	120220	12022020	010442	113.75	13.870385	-56.894310	113.98	-0.290	0.260	3.410	113.75	-1.30	3.90	 	 	 	 	 	 	 	 	 	 	 	 	 	 	 	 	 	 	1581469482	4.01	7.43
12/02/2020 01:04:43	120220	12022020	010443	113.57	13.870375	-56.894295	113.80	-0.210	1.080	3.180	113.55	-0.20	3.50	 	 	 	 	 	 	 	 	 	 	 	 	 	 	 	 	 	 	1581469483	3.82	7.07
12/02/2020 01:04:44	120220	12022020	010444	113.50	13.870367	-56.894272	113.72	-0.010	0.650	2.590	113.50	-1.00	2.90	 	 	 	 	 	 	 	 	 	 	 	 	 	 	 	 	 	 	1581469484	5.07	9.39
12/02/2020 01:04:45	120220	12022020	010445	113.50	13.870358	-56.894245	113.71	0.170	-0.310	2.030	113.50	-1.90	2.40	 	 	 	 	 	 	 	 	 	 	 	 	 	 	 	 	 	 	1581469485	5.86	10.85
12/02/2020 01:04:46	120220	12022020	010446	113.49	13.870348	-56.894220	113.70	0.280	-0.960	1.810	113.48	-2.30	2.40	 	 	 	 	 	 	 	 	 	 	 	 	 	 	 	 	 	 	1581469486	5.69	10.54
12/02/2020 01:04:47	120220	12022020	010447	113.50	13.870337	-56.894198	113.73	0.300	-0.960	1.890	113.51	-2.00	2.50	 	 	 	 	 	 	 	 	 	 	 	 	 	 	 	 	 	 	1581469487	5.19	9.61
12/02/2020 01:04:48	120220	12022020	010448	113.61	13.870323	-56.894180	113.86	0.100	-0.430	2.110	113.64	-1.40	2.70	 	 	 	 	 	 	 	 	 	 	 	 	 	 	 	 	 	 	1581469488	4.68	8.67
12/02/2020 01:04:49	120220	12022020	010449	113.71	13.870310	-56.894163	113.94	-0.180	0.070	2.390	113.71	-1.10	3.00	 	 	 	 	 	 	 	 	 	 	 	 	 	 	 	 	 	 	1581469489	4.59	8.50
12/02/2020 01:04:50	120220	12022020	010450	113.59	13.870297	-56.894145	113.81	-0.230	0.120	2.700	113.55	-1.20	3.30	 	 	 	 	 	 	 	 	 	 	 	 	 	 	 	 	 	 	1581469490	4.99	9.24
12/02/2020 01:04:51	120220	12022020	010451	113.40	13.870282	-56.894125	113.63	-0.110	0.030	2.960	113.38	-1.20	3.50	 	 	 	 	 	 	 	 	 	 	 	 	 	 	 	 	 	 	1581469491	5.25	9.72
12/02/2020 01:04:52	120220	12022020	010452	113.41	13.870270	-56.894105	113.67	0.010	0.100	2.980	113.43	-1.10	3.40	 	 	 	 	 	 	 	 	 	 	 	 	 	 	 	 	 	 	1581469492	4.98	9.22
12/02/2020 01:04:53	120220	12022020	010453	113.65	13.870260	-56.894085	113.92	0.100	0.190	2.510	113.72	-1.10	2.80	 	 	 	 	 	 	 	 	 	 	 	 	 	 	 	 	 	 	1581469493	4.71	8.72
12/02/2020 01:04:54	120220	12022020	010454	113.91	13.870252	-56.894063	114.13	0.200	-0.050	1.920	113.91	-1.20	2.60	 	 	 	 	 	 	 	 	 	 	 	 	 	 	 	 	 	 	1581469494	4.85	8.98
12/02/2020 01:04:55	120220	12022020	010455	113.82	13.870242	-56.894040	113.99	0.250	-0.630	1.930	113.76	-2.10	2.60	 	 	 	 	 	 	 	 	 	 	 	 	 	 	 	 	 	 	1581469495	5.31	9.83
12/02/2020 01:04:56	120220	12022020	010456	113.62	13.870230	-56.894017	113.84	0.090	-0.960	2.280	113.62	-2.20	2.70	 	 	 	 	 	 	 	 	 	 	 	 	 	 	 	 	 	 	1581469496	5.46	10.11
12/02/2020 01:04:57	120220	12022020	010457	113.72	13.870217	-56.893998	113.98	-0.360	-0.460	2.540	113.77	-1.40	3.10	 	 	 	 	 	 	 	 	 	 	 	 	 	 	 	 	 	 	1581469497	4.71	8.72
12/02/2020 01:04:58	120220	12022020	010458	114.01	13.870203	-56.893985	114.27	-0.780	0.240	2.790	114.06	-0.90	3.40	 	 	 	 	 	 	 	 	 	 	 	 	 	 	 	 	 	 	1581469498	4.23	7.83
12/02/2020 01:04:59	120220	12022020	010459	114.13	13.870187	-56.893968	114.37	-0.670	0.120	3.170	114.12	-1.50	3.80	 	 	 	 	 	 	 	 	 	 	 	 	 	 	 	 	 	 	1581469499	4.98	9.22
12/02/2020 01:05:00	120220	12022020	010500	113.89	13.870168	-56.893945	114.09	0.090	-0.760	3.440	113.79	-2.30	4.00	 	 	 	 	 	 	 	 	 	 	 	 	 	 	 	 	 	 	1581469500	6.09	11.28
12/02/2020 01:05:01	120220	12022020	010501	113.41	13.870155	-56.893920	113.61	0.900	-1.180	3.300	113.34	-2.20	3.60	 	 	 	 	 	 	 	 	 	 	 	 	 	 	 	 	 	 	1581469501	6.10	11.30
12/02/2020 01:05:02	120220	12022020	010502	113.28	13.870147	-56.893898	113.57	1.010	-0.340	2.710	113.34	-1.00	2.90	1017.30	26.00	26.00	20.60	20.70	-1.0	72.0	72.0	393.0	25.8	320.00	15.90	67.00	14.00	16	10203.0	27.2	27.1	1581469502	4.83	8.95
12/02/2020 01:05:03	120220	12022020	010503	113.76	13.870145	-56.893882	114.09	0.270	1.140	1.980	113.91	0.30	2.20	 	 	 	 	 	 	 	 	 	 	 	 	 	 	 	 	 	 	1581469503	3.50	6.48
12/02/2020 01:05:04	120220	12022020	010504	114.51	13.870140	-56.893867	114.81	-0.780	1.900	1.320	114.65	0.50	1.70	 	 	 	 	 	 	 	 	 	 	 	 	 	 	 	 	 	 	1581469504	3.27	6.06
12/02/2020 01:05:05	120220	12022020	010505	115.03	13.870130	-56.893848	115.25	-1.250	1.070	1.050	115.07	-1.00	1.70	 	 	 	 	 	 	 	 	 	 	 	 	 	 	 	 	 	 	1581469505	4.46	8.26
12/02/2020 01:05:06	120220	12022020	010506	115.03	13.870112	-56.893827	115.11	-0.710	-0.970	1.510	114.96	-1.70	1.90	 	 	 	 	 	 	 	 	 	 	 	 	 	 	 	 	 	 	1581469506	6.25	11.58
12/02/2020 01:05:07	120220	12022020	010507	114.38	13.870090	-56.893802	114.54	0.330	-2.510	2.510	114.26	-3.90	3.40	 	 	 	 	 	 	 	 	 	 	 	 	 	 	 	 	 	 	1581469507	6.78	12.56
12/02/2020 01:05:08	120220	12022020	010508	113.85	13.870073	-56.893783	114.09	0.920	-2.250	3.350	113.85	-3.70	3.70	 	 	 	 	 	 	 	 	 	 	 	 	 	 	 	 	 	 	1581469508	5.39	9.98
12/02/2020 01:05:09	120220	12022020	010509	113.69	13.870062	-56.893770	113.96	0.690	-0.640	3.430	113.70	-1.20	3.70	 	 	 	 	 	 	 	 	 	 	 	 	 	 	 	 	 	 	1581469509	3.59	6.65
12/02/2020 01:05:10	120220	12022020	010510	113.73	13.870057	-56.893757	113.98	0.140	0.740	2.780	113.74	-0.30	3.00	 	 	 	 	 	 	 	 	 	 	 	 	 	 	 	 	 	 	1581469510	3.28	6.07
12/02/2020 01:05:11	120220	12022020	010511	113.79	13.870048	-56.893737	114.02	-0.170	0.950	2.060	113.80	-0.50	2.40	 	 	 	 	 	 	 	 	 	 	 	 	 	 	 	 	 	 	1581469511	4.41	8.17
12/02/2020 01:05:12	120220	12022020	010512	113.89	13.870038	-56.893713	114.12	-0.150	0.340	1.660	113.92	-1.20	2.10	 	 	 	 	 	 	 	 	 	 	 	 	 	 	 	 	 	 	1581469512	5.45	10.09
12/02/2020 01:05:13	120220	12022020	010513	114.10	13.870027	-56.893690	114.34	-0.080	-0.080	1.350	114.15	-1.30	1.80	 	 	 	 	 	 	 	 	 	 	 	 	 	 	 	 	 	 	1581469513	5.39	9.98
12/02/2020 01:05:14	120220	12022020	010514	114.29	13.870017	-56.893672	114.49	-0.180	0.120	1.250	114.29	-1.00	1.90	 	 	 	 	 	 	 	 	 	 	 	 	 	 	 	 	 	 	1581469514	4.49	8.32
12/02/2020 01:05:15	120220	12022020	010515	114.15	13.870005	-56.893655	114.32	-0.390	0.370	1.650	114.09	-0.90	2.40	 	 	 	 	 	 	 	 	 	 	 	 	 	 	 	 	 	 	1581469515	4.08	7.56
12/02/2020 01:05:16	120220	12022020	010516	113.95	13.869992	-56.893640	114.16	-0.510	0.160	2.190	113.95	-1.30	2.90	 	 	 	 	 	 	 	 	 	 	 	 	 	 	 	 	 	 	1581469516	4.56	8.45
12/02/2020 01:05:17	120220	12022020	010517	114.03	13.869977	-56.893622	114.28	-0.380	-0.400	2.540	114.07	-1.90	3.20	 	 	 	 	 	 	 	 	 	 	 	 	 	 	 	 	 	 	1581469517	5.04	9.33
12/02/2020 01:05:18	120220	12022020	010518	114.15	13.869960	-56.893603	114.38	0.030	-1.080	2.890	114.15	-2.60	3.50	 	 	 	 	 	 	 	 	 	 	 	 	 	 	 	 	 	 	1581469518	5.32	9.85
12/02/2020 01:05:19	120220	12022020	010519	114.02	13.869943	-56.893583	114.22	0.580	-1.530	3.120	113.96	-2.80	3.60	 	 	 	 	 	 	 	 	 	 	 	 	 	 	 	 	 	 	1581469519	5.35	9.91
12/02/2020 01:05:20	120220	12022020	010520	113.64	13.869933	-56.893562	113.83	0.850	-1.270	3.080	113.64	-2.70	3.60	 	 	 	 	 	 	 	 	 	 	 	 	 	 	 	 	 	 	1581469520	4.92	9.11
12/02/2020 01:05:21	120220	12022020	010521	113.15	13.869925	-56.893545	113.35	0.500	-0.150	3.000	113.07	-0.90	3.40	 	 	 	 	 	 	 	 	 	 	 	 	 	 	 	 	 	 	1581469521	4.06	7.52
12/02/2020 01:05:22	120220	12022020	010522	112.90	13.869918	-56.893530	113.15	-0.240	1.080	2.670	112.90	0.10	2.90	 	 	 	 	 	 	 	 	 	 	 	 	 	 	 	 	 	 	1581469522	3.49	6.46
12/02/2020 01:05:23	120220	12022020	010523	113.10	13.869910	-56.893513	113.39	-0.720	1.480	2.010	113.18	0.10	2.20	 	 	 	 	 	 	 	 	 	 	 	 	 	 	 	 	 	 	1581469523	3.91	7.24
12/02/2020 01:05:24	120220	12022020	010524	113.54	13.869900	-56.893492	113.82	-0.600	0.890	1.410	113.63	-0.80	1.70	 	 	 	 	 	 	 	 	 	 	 	 	 	 	 	 	 	 	1581469524	4.78	8.85
12/02/2020 01:05:25	120220	12022020	010525	113.92	13.869888	-56.893470	114.17	-0.060	-0.120	1.070	113.97	-1.80	1.60	 	 	 	 	 	 	 	 	 	 	 	 	 	 	 	 	 	 	1581469525	5.29	9.80
12/02/2020 01:05:26	120220	12022020	010526	113.99	13.869877	-56.893448	114.19	0.480	-0.910	1.160	113.95	-2.30	1.90	 	 	 	 	 	 	 	 	 	 	 	 	 	 	 	 	 	 	1581469526	5.21	9.65
12/02/2020 01:05:27	120220	12022020	010527	113.65	13.869865	-56.893430	113.82	0.680	-1.130	1.710	113.56	-2.40	2.50	 	 	 	 	 	 	 	 	 	 	 	 	 	 	 	 	 	 	1581469527	4.73	8.76
12/02/2020 01:05:28	120220	12022020	010528	113.17	13.869853	-56.893412	113.37	0.470	-1.010	2.550	113.08	-2.20	3.40	 	 	 	 	 	 	 	 	 	 	 	 	 	 	 	 	 	 	1581469528	4.44	8.22
12/02/2020 01:05:29	120220	12022020	010529	112.93	13.869840	-56.893395	113.22	0.070	-0.850	3.190	112.94	-2.00	3.80	 	 	 	 	 	 	 	 	 	 	 	 	 	 	 	 	 	 	1581469529	4.66	8.63
12/02/2020 01:05:30	120220	12022020	010530	113.04	13.869825	-56.893378	113.36	-0.260	-0.490	3.390	113.04	-1.90	3.90	 	 	 	 	 	 	 	 	 	 	 	 	 	 	 	 	 	 	1581469530	4.73	8.76
12/02/2020 01:05:31	120220	12022020	010531	113.12	13.869813	-56.893362	113.40	-0.410	0.300	3.460	113.10	-0.60	3.90	 	 	 	 	 	 	 	 	 	 	 	 	 	 	 	 	 	 	1581469531	4.28	7.93
12/02/2020 01:05:32	120220	12022020	010532	112.96	13.869802	-56.893347	113.21	-0.450	0.960	3.380	112.96	-0.40	3.90	 	 	 	 	 	 	 	 	 	 	 	 	 	 	 	 	 	 	1581469532	3.97	7.35
12/02/2020 01:05:33	120220	12022020	010533	112.75	13.869793	-56.893328	112.99	-0.370	0.920	2.840	112.73	-0.60	3.00	 	 	 	 	 	 	 	 	 	 	 	 	 	 	 	 	 	 	1581469533	4.30	7.96
12/02/2020 01:05:34	120220	12022020	010534	112.72	13.869787	-56.893307	112.97	-0.180	0.220	2.000	112.75	-1.40	2.20	 	 	 	 	 	 	 	 	 	 	 	 	 	 	 	 	 	 	1581469534	4.94	9.15
12/02/2020 01:05:35	120220	12022020	010535	112.97	13.869780	-56.893282	113.23	0.040	-0.610	1.380	113.03	-2.10	1.80	 	 	 	 	 	 	 	 	 	 	 	 	 	 	 	 	 	 	1581469535	5.20	9.63
12/02/2020 01:05:36	120220	12022020	010536	113.28	13.869770	-56.893260	113.52	0.210	-1.130	1.230	113.31	-2.50	1.80	 	 	 	 	 	 	 	 	 	 	 	 	 	 	 	 	 	 	1581469536	5.06	9.37
12/02/2020 01:05:37	120220	12022020	010537	113.31	13.869757	-56.893242	113.50	0.350	-1.170	1.410	113.27	-2.30	2.00	 	 	 	 	 	 	 	 	 	 	 	 	 	 	 	 	 	 	1581469537	4.82	8.93
12/02/2020 01:05:38	120220	12022020	010538	113.03	13.869745	-56.893223	113.21	0.480	-0.730	1.750	112.96	-1.70	2.40	 	 	 	 	 	 	 	 	 	 	 	 	 	 	 	 	 	 	1581469538	4.54	8.41
12/02/2020 01:05:39	120220	12022020	010539	112.72	13.869733	-56.893207	112.93	0.520	0.070	2.070	112.68	-0.90	2.60	 	 	 	 	 	 	 	 	 	 	 	 	 	 	 	 	 	 	1581469539	4.12	7.63
12/02/2020 01:05:40	120220	12022020	010540	112.68	13.869725	-56.893190	112.95	0.400	0.790	2.110	112.74	-0.30	2.50	 	 	 	 	 	 	 	 	 	 	 	 	 	 	 	 	 	 	1581469540	3.95	7.32
12/02/2020 01:05:41	120220	12022020	010541	113.11	13.869718	-56.893172	113.42	0.130	0.910	1.770	113.22	-0.50	2.20	 	 	 	 	 	 	 	 	 	 	 	 	 	 	 	 	 	 	1581469541	4.26	7.89
12/02/2020 01:05:42	120220	12022020	010542	113.55	13.869710	-56.893150	113.82	-0.230	0.280	1.640	113.59	-1.30	2.30	 	 	 	 	 	 	 	 	 	 	 	 	 	 	 	 	 	 	1581469542	4.90	9.07
12/02/2020 01:05:43	120220	12022020	010543	113.59	13.869697	-56.893128	113.82	-0.570	-0.540	2.140	113.57	-2.00	3.00	 	 	 	 	 	 	 	 	 	 	 	 	 	 	 	 	 	 	1581469543	5.34	9.89
12/02/2020 01:05:44	120220	12022020	010544	113.43	13.869680	-56.893110	113.66	-0.730	-0.940	3.000	113.43	-2.10	3.30	 	 	 	 	 	 	 	 	 	 	 	 	 	 	 	 	 	 	1581469544	5.31	9.83
12/02/2020 01:05:45	120220	12022020	010545	113.20	13.869663	-56.893093	113.45	-0.510	-1.010	3.670	113.15	-2.30	4.30	 	 	 	 	 	 	 	 	 	 	 	 	 	 	 	 	 	 	1581469545	5.15	9.54
12/02/2020 01:05:46	120220	12022020	010546	112.89	13.869647	-56.893075	113.12	0.090	-0.990	3.900	112.82	-2.10	4.30	 	 	 	 	 	 	 	 	 	 	 	 	 	 	 	 	 	 	1581469546	5.17	9.57
12/02/2020 01:05:47	120220	12022020	010547	112.58	13.869637	-56.893053	112.84	0.630	-0.600	3.530	112.57	-1.50	3.70	 	 	 	 	 	 	 	 	 	 	 	 	 	 	 	 	 	 	1581469547	5.00	9.26
12/02/2020 01:05:48	120220	12022020	010548	112.71	13.869632	-56.893033	113.02	0.620	0.250	2.590	112.81	-0.60	2.70	 	 	 	 	 	 	 	 	 	 	 	 	 	 	 	 	 	 	1581469548	4.48	8.30
12/02/2020 01:05:49	120220	12022020	010549	113.39	13.869628	-56.893013	113.73	0.060	1.100	1.570	113.55	0.00	1.80	 	 	 	 	 	 	 	 	 	 	 	 	 	 	 	 	 	 	1581469549	3.97	7.35
12/02/2020 01:05:50	120220	12022020	010550	114.09	13.869622	-56.892997	114.38	-0.510	1.190	1.060	114.18	-0.40	1.60	 	 	 	 	 	 	 	 	 	 	 	 	 	 	 	 	 	 	1581469550	4.10	7.59
12/02/2020 01:05:51	120220	12022020	010551	114.32	13.869608	-56.892975	114.54	-0.500	0.120	1.160	114.31	-1.70	1.80	 	 	 	 	 	 	 	 	 	 	 	 	 	 	 	 	 	 	1581469551	5.27	9.76
12/02/2020 01:05:52	120220	12022020	010552	114.16	13.869593	-56.892950	114.36	0.060	-1.180	1.570	114.10	-2.70	2.30	 	 	 	 	 	 	 	 	 	 	 	 	 	 	 	 	 	 	1581469552	6.10	11.30
12/02/2020 01:05:53	120220	12022020	010553	113.89	13.869578	-56.892928	114.11	0.660	-1.560	2.200	113.86	-2.60	3.00	 	 	 	 	 	 	 	 	 	 	 	 	 	 	 	 	 	 	1581469553	5.67	10.50
12/02/2020 01:05:54	120220	12022020	010554	113.89	13.869567	-56.892910	114.17	0.770	-0.850	2.740	113.93	-1.70	3.30	 	 	 	 	 	 	 	 	 	 	 	 	 	 	 	 	 	 	1581469554	4.58	8.48
12/02/2020 01:05:55	120220	12022020	010555	114.17	13.869557	-56.892893	114.46	0.340	0.100	2.720	114.24	-0.90	3.10	 	 	 	 	 	 	 	 	 	 	 	 	 	 	 	 	 	 	1581469555	3.95	7.32
12/02/2020 01:05:56	120220	12022020	010556	114.38	13.869548	-56.892875	114.69	-0.240	0.510	2.430	114.42	-0.80	3.00	 	 	 	 	 	 	 	 	 	 	 	 	 	 	 	 	 	 	1581469556	4.33	8.02
12/02/2020 01:05:57	120220	12022020	010557	114.60	13.869537	-56.892855	114.86	-0.590	0.420	2.340	114.63	-1.00	2.90	 	 	 	 	 	 	 	 	 	 	 	 	 	 	 	 	 	 	1581469557	4.93	9.13
12/02/2020 01:05:58	120220	12022020	010558	114.75	13.869523	-56.892833	114.99	-0.520	0.070	2.440	114.75	-1.10	2.90	 	 	 	 	 	 	 	 	 	 	 	 	 	 	 	 	 	 	1581469558	5.28	9.78
12/02/2020 01:05:59	120220	12022020	010559	114.71	13.869508	-56.892812	114.95	-0.140	-0.480	2.540	114.70	-1.90	3.00	 	 	 	 	 	 	 	 	 	 	 	 	 	 	 	 	 	 	1581469559	5.64	10.45
12/02/2020 01:06:00	120220	12022020	010600	114.69	13.869495	-56.892788	114.95	0.170	-0.760	2.410	114.71	-2.00	2.80	 	 	 	 	 	 	 	 	 	 	 	 	 	 	 	 	 	 	1581469560	5.61	10.39
12/02/2020 01:06:01	120220	12022020	010601	114.80	13.869483	-56.892768	115.05	0.170	-0.510	2.270	114.81	-1.60	2.70	 	 	 	 	 	 	 	 	 	 	 	 	 	 	 	 	 	 	1581469561	5.03	9.32
12/02/2020 01:06:02	120220	12022020	010602	114.75	13.869472	-56.892748	114.96	0.060	-0.160	2.250	114.70	-1.30	2.70	1017.20	26.00	26.10	20.70	20.80	-1.0	72.0	72.0	391.0	25.8	317.00	14.60	64.00	12.90	16	9610.0	27.1	27.1	1581469562	4.80	8.89
12/02/2020 01:06:03	120220	12022020	010603	114.56	13.869460	-56.892728	114.79	0.040	0.060	2.080	114.55	-1.00	2.40	 	 	 	 	 	 	 	 	 	 	 	 	 	 	 	 	 	 	1581469563	5.02	9.30
12/02/2020 01:06:04	120220	12022020	010604	114.70	13.869452	-56.892707	114.97	-0.010	0.510	1.550	114.77	-0.60	1.80	 	 	 	 	 	 	 	 	 	 	 	 	 	 	 	 	 	 	1581469564	4.82	8.93
12/02/2020 01:06:05	120220	12022020	010605	115.14	13.869443	-56.892687	115.40	-0.240	0.810	1.080	115.23	-0.60	1.50	 	 	 	 	 	 	 	 	 	 	 	 	 	 	 	 	 	 	1581469565	4.44	8.22
12/02/2020 01:06:06	120220	12022020	010606	115.37	13.869430	-56.892667	115.54	-0.390	0.130	1.160	115.34	-1.70	1.90	 	 	 	 	 	 	 	 	 	 	 	 	 	 	 	 	 	 	1581469566	5.14	9.52
12/02/2020 01:06:07	120220	12022020	010607	114.98	13.869412	-56.892642	115.10	-0.050	-1.410	1.950	114.85	-3.20	2.80	 	 	 	 	 	 	 	 	 	 	 	 	 	 	 	 	 	 	1581469567	6.59	12.20
12/02/2020 01:06:08	120220	12022020	010608	114.38	13.869392	-56.892617	114.55	0.600	-2.250	2.720	114.31	-3.30	3.40	 	 	 	 	 	 	 	 	 	 	 	 	 	 	 	 	 	 	1581469568	6.93	12.83
12/02/2020 01:06:09	120220	12022020	010609	114.29	13.869378	-56.892595	114.56	0.900	-1.240	2.990	114.34	-1.70	3.50	 	 	 	 	 	 	 	 	 	 	 	 	 	 	 	 	 	 	1581469569	5.29	9.80
12/02/2020 01:06:10	120220	12022020	010610	114.59	13.869370	-56.892580	114.87	0.520	0.600	2.880	114.59	-1.10	3.40	 	 	 	 	 	 	 	 	 	 	 	 	 	 	 	 	 	 	1581469570	3.77	6.98
12/02/2020 01:06:11	120220	12022020	010611	114.78	13.869360	-56.892562	115.02	-0.180	1.590	2.710	114.79	0.30	3.20	 	 	 	 	 	 	 	 	 	 	 	 	 	 	 	 	 	 	1581469571	4.08	7.56
12/02/2020 01:06:12	120220	12022020	010612	114.82	13.869348	-56.892542	115.05	-0.720	1.380	2.750	114.82	-0.20	3.30	 	 	 	 	 	 	 	 	 	 	 	 	 	 	 	 	 	 	1581469572	5.22	9.67
12/02/2020 01:06:13	120220	12022020	010613	114.84	13.869332	-56.892518	115.08	-0.810	0.440	2.930	114.84	-1.30	3.50	 	 	 	 	 	 	 	 	 	 	 	 	 	 	 	 	 	 	1581469573	6.00	11.11
12/02/2020 01:06:14	120220	12022020	010614	114.82	13.869313	-56.892493	115.06	-0.420	-0.780	3.040	114.80	-2.50	3.60	 	 	 	 	 	 	 	 	 	 	 	 	 	 	 	 	 	 	1581469574	6.38	11.82
12/02/2020 01:06:15	120220	12022020	010615	114.74	13.869297	-56.892468	114.99	0.160	-1.630	3.170	114.72	-3.00	3.70	 	 	 	 	 	 	 	 	 	 	 	 	 	 	 	 	 	 	1581469575	6.37	11.80
12/02/2020 01:06:16	120220	12022020	010616	114.67	13.869282	-56.892447	114.93	0.500	-1.490	3.240	114.65	-2.40	3.70	 	 	 	 	 	 	 	 	 	 	 	 	 	 	 	 	 	 	1581469576	5.62	10.41
12/02/2020 01:06:17	120220	12022020	010617	114.57	13.869272	-56.892427	114.81	0.470	-0.530	2.960	114.54	-1.30	3.20	 	 	 	 	 	 	 	 	 	 	 	 	 	 	 	 	 	 	1581469577	4.69	8.69
12/02/2020 01:06:18	120220	12022020	010618	114.51	13.869265	-56.892407	114.76	0.250	0.450	2.380	114.53	-0.60	2.70	 	 	 	 	 	 	 	 	 	 	 	 	 	 	 	 	 	 	1581469578	4.51	8.35
12/02/2020 01:06:19	120220	12022020	010619	114.77	13.869257	-56.892383	115.07	0.020	0.780	1.870	114.87	-0.60	2.20	 	 	 	 	 	 	 	 	 	 	 	 	 	 	 	 	 	 	1581469579	5.01	9.28
12/02/2020 01:06:20	120220	12022020	010620	115.21	13.869247	-56.892360	115.61	-0.160	0.390	1.560	115.32	-0.70	2.10	 	 	 	 	 	 	 	 	 	 	 	 	 	 	 	 	 	 	1581469580	5.65	10.46
12/02/2020 01:06:21	120220	12022020	010621	115.72	13.869232	-56.892333	115.95	-0.160	-0.480	1.470	115.76	-2.10	2.10	 	 	 	 	 	 	 	 	 	 	 	 	 	 	 	 	 	 	1581469581	6.26	11.59
12/02/2020 01:06:22	120220	12022020	010622	115.79	13.869213	-56.892308	115.99	0.090	-1.210	1.870	115.79	-2.40	2.20	 	 	 	 	 	 	 	 	 	 	 	 	 	 	 	 	 	 	1581469582	6.59	12.20
12/02/2020 01:06:23	120220	12022020	010623	115.72	13.869197	-56.892285	115.94	0.330	-0.980	2.520	115.70	-1.80	3.20	 	 	 	 	 	 	 	 	 	 	 	 	 	 	 	 	 	 	1581469583	6.07	11.24
12/02/2020 01:06:24	120220	12022020	010624	115.60	13.869183	-56.892267	115.82	0.180	0.190	2.840	115.58	-0.60	3.30	 	 	 	 	 	 	 	 	 	 	 	 	 	 	 	 	 	 	1581469584	4.81	8.91
12/02/2020 01:06:25	120220	12022020	010625	115.58	13.869175	-56.892248	115.82	-0.420	1.220	2.690	115.60	0.10	3.10	 	 	 	 	 	 	 	 	 	 	 	 	 	 	 	 	 	 	1581469585	4.32	8.00
12/02/2020 01:06:26	120220	12022020	010626	115.88	13.869163	-56.892228	116.15	-0.950	1.210	2.400	115.98	-0.40	2.80	 	 	 	 	 	 	 	 	 	 	 	 	 	 	 	 	 	 	1581469586	4.98	9.22
12/02/2020 01:06:27	120220	12022020	010627	116.38	13.869147	-56.892205	116.66	-0.800	0.220	2.120	116.47	-1.60	2.50	 	 	 	 	 	 	 	 	 	 	 	 	 	 	 	 	 	 	1581469587	6.03	11.17
12/02/2020 01:06:28	120220	12022020	010628	116.73	13.869130	-56.892177	116.97	0.100	-1.130	1.900	116.76	-2.90	2.40	 	 	 	 	 	 	 	 	 	 	 	 	 	 	 	 	 	 	1581469588	6.68	12.37
12/02/2020 01:06:29	120220	12022020	010629	116.73	13.869115	-56.892148	116.94	1.110	-2.060	1.880	116.70	-3.40	2.40	 	 	 	 	 	 	 	 	 	 	 	 	 	 	 	 	 	 	1581469589	6.79	12.58
12/02/2020 01:06:30	120220	12022020	010630	116.51	13.869102	-56.892123	116.71	1.450	-1.750	2.040	116.46	-2.40	2.60	 	 	 	 	 	 	 	 	 	 	 	 	 	 	 	 	 	 	1581469590	6.08	11.26
12/02/2020 01:06:31	120220	12022020	010631	116.37	13.869092	-56.892105	116.62	0.770	-0.060	2.110	116.38	-0.50	2.60	 	 	 	 	 	 	 	 	 	 	 	 	 	 	 	 	 	 	1581469591	4.63	8.57
12/02/2020 01:06:32	120220	12022020	010632	116.55	13.869083	-56.892090	116.91	-0.530	1.830	2.050	116.63	0.20	2.60	 	 	 	 	 	 	 	 	 	 	 	 	 	 	 	 	 	 	1581469592	3.61	6.69
12/02/2020 01:06:33	120220	12022020	010633	117.02	13.869070	-56.892072	117.28	-1.460	2.110	2.160	117.07	0.30	2.80	 	 	 	 	 	 	 	 	 	 	 	 	 	 	 	 	 	 	1581469593	4.45	8.24
12/02/2020 01:06:34	120220	12022020	010634	117.18	13.869052	-56.892047	117.41	-1.300	0.340	2.410	117.18	-0.40	2.90	 	 	 	 	 	 	 	 	 	 	 	 	 	 	 	 	 	 	1581469594	6.70	12.41
12/02/2020 01:06:35	120220	12022020	010635	117.12	13.869032	-56.892017	117.33	-0.330	-1.750	2.750	117.07	-3.50	3.50	 	 	 	 	 	 	 	 	 	 	 	 	 	 	 	 	 	 	1581469595	7.85	14.54
12/02/2020 01:06:36	120220	12022020	010636	116.74	13.869010	-56.891990	116.93	0.630	-2.550	3.290	116.74	-3.80	3.70	 	 	 	 	 	 	 	 	 	 	 	 	 	 	 	 	 	 	1581469596	7.24	13.41
12/02/2020 01:06:37	120220	12022020	010637	116.26	13.868995	-56.891967	116.49	1.020	-1.640	3.560	116.20	-2.20	4.00	 	 	 	 	 	 	 	 	 	 	 	 	 	 	 	 	 	 	1581469597	5.75	10.65
12/02/2020 01:06:38	120220	12022020	010638	116.16	13.868985	-56.891948	116.44	0.740	0.210	3.120	116.21	-0.30	3.30	 	 	 	 	 	 	 	 	 	 	 	 	 	 	 	 	 	 	1581469598	4.49	8.32
12/02/2020 01:06:39	120220	12022020	010639	116.66	13.868980	-56.891930	116.99	-0.000	1.860	2.280	116.81	0.90	2.40	 	 	 	 	 	 	 	 	 	 	 	 	 	 	 	 	 	 	1581469599	4.12	7.63
12/02/2020 01:06:40	120220	12022020	010640	117.47	13.868972	-56.891908	117.78	-0.680	2.190	1.470	117.61	0.50	1.70	 	 	 	 	 	 	 	 	 	 	 	 	 	 	 	 	 	 	1581469600	4.69	8.69
12/02/2020 01:06:41	120220	12022020	010641	118.01	13.868958	-56.891883	118.24	-0.710	0.840	1.030	118.05	-1.20	1.50	 	 	 	 	 	 	 	 	 	 	 	 	 	 	 	 	 	 	1581469601	6.17	11.43
12/02/2020 01:06:42	120220	12022020	010642	118.02	13.868940	-56.891853	118.22	-0.120	-1.080	1.200	117.98	-2.90	1.90	 	 	 	 	 	 	 	 	 	 	 	 	 	 	 	 	 	 	1581469602	7.32	13.56
12/02/2020 01:06:43	120220	12022020	010643	117.83	13.868922	-56.891827	118.07	0.420	-1.970	1.840	117.81	-3.10	2.60	 	 	 	 	 	 	 	 	 	 	 	 	 	 	 	 	 	 	1581469603	6.88	12.74
12/02/2020 01:06:44	120220	12022020	010644	117.83	13.868907	-56.891807	118.11	0.420	-1.380	2.350	117.86	-2.20	2.90	 	 	 	 	 	 	 	 	 	 	 	 	 	 	 	 	 	 	1581469604	5.46	10.11
12/02/2020 01:06:45	120220	12022020	010645	117.94	13.868893	-56.891788	118.20	0.050	-0.350	2.420	117.95	-1.40	2.90	 	 	 	 	 	 	 	 	 	 	 	 	 	 	 	 	 	 	1581469605	4.60	8.52
12/02/2020 01:06:46	120220	12022020	010646	117.92	13.868880	-56.891767	118.12	-0.120	-0.070	2.510	117.90	-1.30	3.00	 	 	 	 	 	 	 	 	 	 	 	 	 	 	 	 	 	 	1581469606	5.31	9.83
12/02/2020 01:06:47	120220	12022020	010647	117.72	13.868863	-56.891740	117.96	0.080	-0.480	2.780	117.71	-1.90	3.40	 	 	 	 	 	 	 	 	 	 	 	 	 	 	 	 	 	 	1581469607	6.53	12.09
12/02/2020 01:06:48	120220	12022020	010648	117.79	13.868847	-56.891713	118.08	0.220	-0.560	2.910	117.79	-1.90	3.40	 	 	 	 	 	 	 	 	 	 	 	 	 	 	 	 	 	 	1581469608	6.70	12.41
12/02/2020 01:06:49	120220	12022020	010649	118.19	13.868832	-56.891692	118.52	0.010	0.090	2.730	118.29	-0.90	3.10	 	 	 	 	 	 	 	 	 	 	 	 	 	 	 	 	 	 	1581469609	5.81	10.76
12/02/2020 01:06:50	120220	12022020	010650	118.67	13.868818	-56.891670	118.98	-0.340	0.780	2.480	118.74	-0.40	2.90	 	 	 	 	 	 	 	 	 	 	 	 	 	 	 	 	 	 	1581469610	5.28	9.78
12/02/2020 01:06:51	120220	12022020	010651	118.93	13.868803	-56.891647	119.21	-0.460	0.800	2.410	118.96	-0.60	2.90	 	 	 	 	 	 	 	 	 	 	 	 	 	 	 	 	 	 	1581469611	5.75	10.65
12/02/2020 01:06:52	120220	12022020	010652	119.07	13.868787	-56.891623	119.36	-0.320	0.440	2.330	119.10	-1.00	2.70	 	 	 	 	 	 	 	 	 	 	 	 	 	 	 	 	 	 	1581469612	6.22	11.52
12/02/2020 01:06:53	120220	12022020	010653	119.37	13.868773	-56.891598	119.71	-0.110	0.150	1.980	119.47	-1.20	2.30	 	 	 	 	 	 	 	 	 	 	 	 	 	 	 	 	 	 	1581469613	5.99	11.09
12/02/2020 01:06:54	120220	12022020	010654	119.87	13.868760	-56.891573	120.19	0.110	-0.230	1.620	119.95	-1.80	2.10	 	 	 	 	 	 	 	 	 	 	 	 	 	 	 	 	 	 	1581469614	5.83	10.80
12/02/2020 01:06:55	120220	12022020	010655	120.11	13.868745	-56.891547	120.38	0.410	-1.050	1.690	120.11	-2.70	2.30	 	 	 	 	 	 	 	 	 	 	 	 	 	 	 	 	 	 	1581469615	6.38	11.82
12/02/2020 01:06:56	120220	12022020	010656	119.98	13.868727	-56.891520	120.24	0.770	-1.710	2.030	119.93	-2.90	2.70	 	 	 	 	 	 	 	 	 	 	 	 	 	 	 	 	 	 	1581469616	6.90	12.78
12/02/2020 01:06:57	120220	12022020	010657	119.76	13.868710	-56.891497	120.03	0.880	-1.230	2.290	119.74	-2.00	2.80	 	 	 	 	 	 	 	 	 	 	 	 	 	 	 	 	 	 	1581469617	6.23	11.54
12/02/2020 01:06:58	120220	12022020	010658	119.78	13.868698	-56.891475	120.10	0.530	0.170	2.280	119.83	-0.60	2.70	 	 	 	 	 	 	 	 	 	 	 	 	 	 	 	 	 	 	1581469618	5.03	9.32
12/02/2020 01:06:59	120220	12022020	010659	120.10	13.868688	-56.891457	120.44	-0.140	1.240	2.060	120.17	0.00	2.50	 	 	 	 	 	 	 	 	 	 	 	 	 	 	 	 	 	 	1581469619	4.74	8.78
12/02/2020 01:07:00	120220	12022020	010700	120.34	13.868673	-56.891432	120.65	-0.710	0.950	1.890	120.37	-0.10	2.40	 	 	 	 	 	 	 	 	 	 	 	 	 	 	 	 	 	 	1581469620	5.78	10.70
12/02/2020 01:07:01	120220	12022020	010701	120.35	13.868653	-56.891405	120.59	-0.850	-0.540	2.180	120.31	-2.50	3.00	 	 	 	 	 	 	 	 	 	 	 	 	 	 	 	 	 	 	1581469621	7.35	13.61
12/02/2020 01:07:02	120220	12022020	010702	120.05	13.868628	-56.891377	120.30	-0.570	-1.840	2.910	120.05	-2.90	3.20	1017.30	26.00	26.00	20.80	20.90	-1.0	73.0	73.0	393.0	25.7	315.00	15.00	63.00	13.10	16	10091.0	27.2	27.1	1581469622	8.12	15.04
12/02/2020 01:07:03	120220	12022020	010703	119.85	13.868605	-56.891353	120.16	-0.220	-1.570	3.350	119.86	-2.30	3.80	 	 	 	 	 	 	 	 	 	 	 	 	 	 	 	 	 	 	1581469623	6.99	12.95
12/02/2020 01:07:04	120220	12022020	010704	120.06	13.868590	-56.891333	120.41	-0.050	-0.040	3.060	120.15	-0.70	3.30	 	 	 	 	 	 	 	 	 	 	 	 	 	 	 	 	 	 	1581469624	5.18	9.59
12/02/2020 01:07:05	120220	12022020	010705	120.55	13.868580	-56.891313	120.89	-0.010	1.170	2.320	120.65	-0.00	2.50	 	 	 	 	 	 	 	 	 	 	 	 	 	 	 	 	 	 	1581469625	4.81	8.91
12/02/2020 01:07:06	120220	12022020	010706	120.95	13.868568	-56.891288	121.23	0.120	1.080	1.720	121.00	-0.50	2.20	 	 	 	 	 	 	 	 	 	 	 	 	 	 	 	 	 	 	1581469626	5.96	11.04
12/02/2020 01:07:07	120220	12022020	010707	121.15	13.868552	-56.891258	121.43	0.280	0.250	1.630	121.21	-1.30	2.20	 	 	 	 	 	 	 	 	 	 	 	 	 	 	 	 	 	 	1581469627	6.98	12.93
12/02/2020 01:07:08	120220	12022020	010708	121.52	13.868535	-56.891232	121.84	0.250	-0.230	1.810	121.62	-1.50	2.40	 	 	 	 	 	 	 	 	 	 	 	 	 	 	 	 	 	 	1581469628	6.66	12.33
12/02/2020 01:07:09	120220	12022020	010709	122.07	13.868517	-56.891210	122.37	0.150	-0.200	1.900	122.17	-1.50	2.40	 	 	 	 	 	 	 	 	 	 	 	 	 	 	 	 	 	 	1581469629	5.86	10.85
12/02/2020 01:07:10	120220	12022020	010710	122.38	13.868502	-56.891188	122.66	0.270	-0.360	2.030	122.42	-1.60	2.50	 	 	 	 	 	 	 	 	 	 	 	 	 	 	 	 	 	 	1581469630	5.77	10.69
12/02/2020 01:07:11	120220	12022020	010711	122.36	13.868483	-56.891163	122.56	0.600	-1.050	2.410	122.32	-2.60	3.10	 	 	 	 	 	 	 	 	 	 	 	 	 	 	 	 	 	 	1581469631	6.58	12.19
12/02/2020 01:07:12	120220	12022020	010712	122.21	13.868465	-56.891137	122.42	0.720	-1.580	2.840	122.21	-2.80	3.30	 	 	 	 	 	 	 	 	 	 	 	 	 	 	 	 	 	 	1581469632	7.03	13.02
12/02/2020 01:07:13	120220	12022020	010713	122.16	13.868447	-56.891112	122.39	0.300	-1.240	3.100	122.17	-2.10	3.70	 	 	 	 	 	 	 	 	 	 	 	 	 	 	 	 	 	 	1581469633	6.52	12.08
12/02/2020 01:07:14	120220	12022020	010714	122.31	13.868430	-56.891090	122.56	-0.480	-0.080	3.190	122.36	-0.90	3.70	 	 	 	 	 	 	 	 	 	 	 	 	 	 	 	 	 	 	1581469634	5.69	10.54
12/02/2020 01:07:15	120220	12022020	010715	122.70	13.868412	-56.891072	122.96	-1.090	0.950	3.160	122.78	-0.20	3.60	 	 	 	 	 	 	 	 	 	 	 	 	 	 	 	 	 	 	1581469635	5.49	10.17
12/02/2020 01:07:16	120220	12022020	010716	123.13	13.868392	-56.891048	123.36	-1.010	0.880	2.890	123.13	-0.30	3.50	 	 	 	 	 	 	 	 	 	 	 	 	 	 	 	 	 	 	1581469636	6.40	11.85
12/02/2020 01:07:17	120220	12022020	010717	123.40	13.868372	-56.891020	123.60	-0.340	0.100	2.400	123.45	-1.40	2.70	 	 	 	 	 	 	 	 	 	 	 	 	 	 	 	 	 	 	1581469637	7.43	13.76
12/02/2020 01:07:18	120220	12022020	010718	123.71	13.868355	-56.890992	123.92	0.170	-0.130	1.900	123.80	-1.30	2.20	 	 	 	 	 	 	 	 	 	 	 	 	 	 	 	 	 	 	1581469638	7.03	13.02
12/02/2020 01:07:19	120220	12022020	010719	124.23	13.868340	-56.890967	124.45	0.090	0.200	1.510	124.36	-1.00	1.90	 	 	 	 	 	 	 	 	 	 	 	 	 	 	 	 	 	 	1581469639	5.92	10.96
12/02/2020 01:07:20	120220	12022020	010720	124.78	13.868325	-56.890945	124.96	-0.140	0.150	1.300	124.85	-1.50	1.80	 	 	 	 	 	 	 	 	 	 	 	 	 	 	 	 	 	 	1581469640	5.81	10.76
12/02/2020 01:07:21	120220	12022020	010721	124.92	13.868303	-56.890920	125.03	0.170	-0.810	1.470	124.88	-2.50	2.10	 	 	 	 	 	 	 	 	 	 	 	 	 	 	 	 	 	 	1581469641	6.95	12.87
12/02/2020 01:07:22	120220	12022020	010722	124.73	13.868282	-56.890892	124.85	0.870	-1.570	1.730	124.72	-2.80	2.30	 	 	 	 	 	 	 	 	 	 	 	 	 	 	 	 	 	 	1581469642	7.62	14.11
12/02/2020 01:07:23	120220	12022020	010723	124.92	13.868263	-56.890867	125.11	1.010	-0.900	1.920	125.00	-1.60	2.50	 	 	 	 	 	 	 	 	 	 	 	 	 	 	 	 	 	 	1581469643	6.43	11.91
12/02/2020 01:07:24	120220	12022020	010724	125.38	13.868250	-56.890848	125.55	0.280	0.450	1.960	125.38	-1.20	2.50	 	 	 	 	 	 	 	 	 	 	 	 	 	 	 	 	 	 	1581469644	5.11	9.46
12/02/2020 01:07:25	120220	12022020	010725	125.51	13.868232	-56.890828	125.63	-0.690	1.010	2.110	125.49	-0.40	2.80	 	 	 	 	 	 	 	 	 	 	 	 	 	 	 	 	 	 	1581469645	5.42	10.04
12/02/2020 01:07:26	120220	12022020	010726	125.33	13.868210	-56.890807	125.46	-1.150	0.470	2.570	125.31	-1.20	3.20	 	 	 	 	 	 	 	 	 	 	 	 	 	 	 	 	 	 	1581469646	6.79	12.58
12/02/2020 01:07:27	120220	12022020	010727	125.30	13.868183	-56.890783	125.45	-0.840	-0.450	2.930	125.31	-2.10	3.50	 	 	 	 	 	 	 	 	 	 	 	 	 	 	 	 	 	 	1581469647	7.54	13.96
12/02/2020 01:07:28	120220	12022020	010728	125.39	13.868158	-56.890758	125.53	-0.040	-1.050	2.980	125.43	-2.50	3.40	 	 	 	 	 	 	 	 	 	 	 	 	 	 	 	 	 	 	1581469648	7.41	13.72
12/02/2020 01:07:29	120220	12022020	010729	125.55	13.868138	-56.890733	125.67	0.710	-1.160	2.600	125.57	-2.30	2.90	 	 	 	 	 	 	 	 	 	 	 	 	 	 	 	 	 	 	1581469649	6.96	12.89
12/02/2020 01:07:30	120220	12022020	010730	125.65	13.868122	-56.890707	125.74	0.990	-0.730	2.200	125.65	-1.80	2.60	 	 	 	 	 	 	 	 	 	 	 	 	 	 	 	 	 	 	1581469650	6.50	12.04
12/02/2020 01:07:31	120220	12022020	010731	125.57	13.868107	-56.890682	125.64	0.750	-0.040	2.090	125.54	-1.10	2.60	 	 	 	 	 	 	 	 	 	 	 	 	 	 	 	 	 	 	1581469651	6.17	11.43
12/02/2020 01:07:32	120220	12022020	010732	125.43	13.868090	-56.890658	125.53	0.170	0.570	2.210	125.43	-0.50	2.80	 	 	 	 	 	 	 	 	 	 	 	 	 	 	 	 	 	 	1581469652	6.14	11.37
12/02/2020 01:07:33	120220	12022020	010733	125.56	13.868072	-56.890635	125.73	-0.540	0.980	2.370	125.63	-0.30	3.00	 	 	 	 	 	 	 	 	 	 	 	 	 	 	 	 	 	 	1581469653	6.18	11.45
12/02/2020 01:07:34	120220	12022020	010734	126.00	13.868048	-56.890615	126.20	-0.990	0.820	2.620	126.10	-0.70	3.20	 	 	 	 	 	 	 	 	 	 	 	 	 	 	 	 	 	 	1581469654	6.53	12.09
12/02/2020 01:07:35	120220	12022020	010735	126.40	13.868023	-56.890593	126.57	-0.850	0.030	2.850	126.45	-1.70	3.40	 	 	 	 	 	 	 	 	 	 	 	 	 	 	 	 	 	 	1581469655	7.17	13.28
12/02/2020 01:07:36	120220	12022020	010736	126.49	13.867998	-56.890568	126.62	-0.230	-0.840	2.940	126.49	-2.00	3.50	 	 	 	 	 	 	 	 	 	 	 	 	 	 	 	 	 	 	1581469656	7.41	13.72
12/02/2020 01:07:37	120220	12022020	010737	126.42	13.867977	-56.890545	126.54	0.360	-1.100	2.800	126.40	-2.30	3.20	 	 	 	 	 	 	 	 	 	 	 	 	 	 	 	 	 	 	1581469657	6.89	12.76
12/02/2020 01:07:38	120220	12022020	010738	126.35	13.867960	-56.890520	126.47	0.570	-0.810	2.480	126.35	-2.20	3.10	 	 	 	 	 	 	 	 	 	 	 	 	 	 	 	 	 	 	1581469658	6.27	11.61
12/02/2020 01:07:39	120220	12022020	010739	126.24	13.867943	-56.890495	126.35	0.470	-0.640	2.170	126.23	-2.00	2.60	 	 	 	 	 	 	 	 	 	 	 	 	 	 	 	 	 	 	1581469659	6.39	11.83
12/02/2020 01:07:40	120220	12022020	010740	126.23	13.867925	-56.890467	126.36	0.230	-0.790	2.010	126.24	-2.20	2.60	 	 	 	 	 	 	 	 	 	 	 	 	 	 	 	 	 	 	1581469660	7.03	13.02
12/02/2020 01:07:41	120220	12022020	010741	126.18	13.867902	-56.890442	126.29	0.030	-0.850	2.390	126.14	-2.00	3.20	 	 	 	 	 	 	 	 	 	 	 	 	 	 	 	 	 	 	1581469661	7.37	13.65
12/02/2020 01:07:42	120220	12022020	010742	125.92	13.867877	-56.890418	126.02	-0.060	-0.380	3.030	125.87	-1.30	3.70	 	 	 	 	 	 	 	 	 	 	 	 	 	 	 	 	 	 	1581469662	7.25	13.43
12/02/2020 01:07:43	120220	12022020	010743	125.91	13.867855	-56.890397	126.11	-0.080	0.680	3.140	125.99	-0.20	3.50	 	 	 	 	 	 	 	 	 	 	 	 	 	 	 	 	 	 	1581469663	6.51	12.06
12/02/2020 01:07:44	120220	12022020	010744	126.60	13.867838	-56.890375	126.88	-0.180	1.700	2.500	126.81	0.60	2.70	 	 	 	 	 	 	 	 	 	 	 	 	 	 	 	 	 	 	1581469664	5.86	10.85
12/02/2020 01:07:45	120220	12022020	010745	127.75	13.867823	-56.890350	128.04	-0.390	1.770	1.690	127.99	0.10	2.00	 	 	 	 	 	 	 	 	 	 	 	 	 	 	 	 	 	 	1581469665	6.05	11.20
12/02/2020 01:07:46	120220	12022020	010746	128.74	13.867803	-56.890323	128.94	-0.460	0.550	1.370	128.85	-1.50	2.00	 	 	 	 	 	 	 	 	 	 	 	 	 	 	 	 	 	 	1581469666	6.95	12.87
12/02/2020 01:07:47	120220	12022020	010747	128.88	13.867780	-56.890297	128.94	-0.140	-1.290	1.970	128.79	-3.20	2.90	 	 	 	 	 	 	 	 	 	 	 	 	 	 	 	 	 	 	1581469667	7.82	14.48
12/02/2020 01:07:48	120220	12022020	010748	128.26	13.867753	-56.890270	128.31	0.390	-2.550	3.150	128.11	-4.00	4.10	 	 	 	 	 	 	 	 	 	 	 	 	 	 	 	 	 	 	1581469668	8.03	14.87
12/02/2020 01:07:49	120220	12022020	010749	127.71	13.867727	-56.890247	127.84	0.660	-2.440	4.130	127.65	-3.40	4.80	 	 	 	 	 	 	 	 	 	 	 	 	 	 	 	 	 	 	1581469669	7.26	13.45
12/02/2020 01:07:50	120220	12022020	010750	127.62	13.867705	-56.890227	127.82	0.530	-1.320	4.340	127.62	-2.90	4.90	 	 	 	 	 	 	 	 	 	 	 	 	 	 	 	 	 	 	1581469670	6.38	11.82
12/02/2020 01:07:51	120220	12022020	010751	127.98	13.867687	-56.890205	128.22	0.200	0.010	3.650	128.10	-0.80	3.70	 	 	 	 	 	 	 	 	 	 	 	 	 	 	 	 	 	 	1581469671	6.16	11.41
12/02/2020 01:07:52	120220	12022020	010752	128.77	13.867670	-56.890180	129.01	-0.130	1.170	2.320	128.94	0.20	2.30	 	 	 	 	 	 	 	 	 	 	 	 	 	 	 	 	 	 	1581469672	6.22	11.52
12/02/2020 01:07:53	120220	12022020	010753	129.66	13.867655	-56.890153	129.83	-0.400	1.710	1.060	129.80	0.30	1.30	 	 	 	 	 	 	 	 	 	 	 	 	 	 	 	 	 	 	1581469673	6.40	11.85
12/02/2020 01:07:54	120220	12022020	010754	130.15	13.867637	-56.890125	130.25	-0.510	1.160	0.480	130.18	-0.60	1.00	 	 	 	 	 	 	 	 	 	 	 	 	 	 	 	 	 	 	1581469674	7.07	13.09
12/02/2020 01:07:55	120220	12022020	010755	130.17	13.867615	-56.890097	130.22	-0.420	-0.090	0.570	130.13	-1.90	1.30	 	 	 	 	 	 	 	 	 	 	 	 	 	 	 	 	 	 	1581469675	7.79	14.43
12/02/2020 01:07:56	120220	12022020	010756	129.94	13.867588	-56.890070	130.00	-0.150	-1.220	1.210	129.88	-2.80	2.10	 	 	 	 	 	 	 	 	 	 	 	 	 	 	 	 	 	 	1581469676	7.97	14.76
12/02/2020 01:07:57	120220	12022020	010757	129.75	13.867562	-56.890045	129.87	0.120	-1.570	2.060	129.77	-2.70	2.80	 	 	 	 	 	 	 	 	 	 	 	 	 	 	 	 	 	 	1581469677	7.65	14.17
12/02/2020 01:07:58	120220	12022020	010758	130.01	13.867538	-56.890025	130.19	0.150	-0.880	2.460	130.11	-1.80	3.00	 	 	 	 	 	 	 	 	 	 	 	 	 	 	 	 	 	 	1581469678	6.71	12.43
12/02/2020 01:07:59	120220	12022020	010759	130.45	13.867515	-56.890007	130.61	0.010	-0.010	2.540	130.51	-1.20	3.00	 	 	 	 	 	 	 	 	 	 	 	 	 	 	 	 	 	 	1581469679	6.17	11.43
12/02/2020 01:08:00	120220	12022020	010800	130.56	13.867493	-56.889985	130.65	0.070	0.220	2.520	130.55	-1.10	3.00	 	 	 	 	 	 	 	 	 	 	 	 	 	 	 	 	 	 	1581469680	6.68	12.37
12/02/2020 01:08:01	120220	12022020	010801	130.45	13.867470	-56.889960	130.55	0.340	0.090	2.220	130.44	-1.20	2.60	 	 	 	 	 	 	 	 	 	 	 	 	 	 	 	 	 	 	1581469681	7.27	13.46
12/02/2020 01:08:02	120220	12022020	010802	130.46	13.867450	-56.889932	130.56	0.430	0.080	1.860	130.46	-1.20	2.40	1017.30	26.00	26.10	21.10	21.10	-1.0	74.0	74.0	394.0	25.7	309.00	14.50	63.00	12.60	16	9192.0	27.2	27.2	1581469682	7.13	13.20
12/02/2020 01:08:03	120220	12022020	010803	130.47	13.867432	-56.889905	130.57	0.250	-0.080	1.830	130.47	-1.60	2.40	 	 	 	 	 	 	 	 	 	 	 	 	 	 	 	 	 	 	1581469683	7.06	13.08
12/02/2020 01:08:04	120220	12022020	010804	130.46	13.867408	-56.889878	130.57	-0.040	-0.560	2.080	130.47	-2.10	2.70	 	 	 	 	 	 	 	 	 	 	 	 	 	 	 	 	 	 	1581469684	7.49	13.87
12/02/2020 01:08:05	120220	12022020	010805	130.63	13.867382	-56.889853	130.79	-0.280	-0.810	2.350	130.69	-2.00	3.00	 	 	 	 	 	 	 	 	 	 	 	 	 	 	 	 	 	 	1581469685	7.66	14.19
12/02/2020 01:08:06	120220	12022020	010806	131.00	13.867357	-56.889832	131.19	-0.430	-0.370	2.680	131.08	-1.40	3.30	 	 	 	 	 	 	 	 	 	 	 	 	 	 	 	 	 	 	1581469686	7.12	13.19
12/02/2020 01:08:07	120220	12022020	010807	131.39	13.867332	-56.889813	131.58	-0.460	0.340	2.820	131.46	-0.80	3.30	 	 	 	 	 	 	 	 	 	 	 	 	 	 	 	 	 	 	1581469687	6.50	12.04
12/02/2020 01:08:08	120220	12022020	010808	131.64	13.867310	-56.889792	131.81	-0.340	0.490	2.780	131.67	-1.00	3.20	 	 	 	 	 	 	 	 	 	 	 	 	 	 	 	 	 	 	1581469688	6.70	12.41
12/02/2020 01:08:09	120220	12022020	010809	131.77	13.867287	-56.889765	131.93	-0.070	-0.050	2.660	131.78	-1.60	3.10	 	 	 	 	 	 	 	 	 	 	 	 	 	 	 	 	 	 	1581469689	7.47	13.83
12/02/2020 01:08:10	120220	12022020	010810	131.81	13.867262	-56.889738	131.97	0.230	-0.670	2.540	131.82	-2.10	3.00	 	 	 	 	 	 	 	 	 	 	 	 	 	 	 	 	 	 	1581469690	7.80	14.45
12/02/2020 01:08:11	120220	12022020	010811	131.90	13.867238	-56.889712	132.06	0.490	-0.930	2.230	131.92	-2.20	2.60	 	 	 	 	 	 	 	 	 	 	 	 	 	 	 	 	 	 	1581469691	7.62	14.11
12/02/2020 01:08:12	120220	12022020	010812	132.09	13.867217	-56.889683	132.26	0.630	-0.690	1.740	132.15	-1.80	2.10	 	 	 	 	 	 	 	 	 	 	 	 	 	 	 	 	 	 	1581469692	7.27	13.46
12/02/2020 01:08:13	120220	12022020	010813	132.41	13.867197	-56.889658	132.59	0.500	-0.110	1.330	132.48	-1.20	1.80	 	 	 	 	 	 	 	 	 	 	 	 	 	 	 	 	 	 	1581469693	6.91	12.80
12/02/2020 01:08:14	120220	12022020	010814	132.83	13.867177	-56.889633	133.04	0.030	0.440	1.370	132.83	-1.00	1.90	 	 	 	 	 	 	 	 	 	 	 	 	 	 	 	 	 	 	1581469694	6.68	12.37
12/02/2020 01:08:15	120220	12022020	010815	133.33	13.867153	-56.889612	133.52	-0.600	0.600	1.760	133.41	-0.80	2.50	 	 	 	 	 	 	 	 	 	 	 	 	 	 	 	 	 	 	1581469695	6.81	12.61
12/02/2020 01:08:16	120220	12022020	010816	133.62	13.867125	-56.889592	133.80	-0.960	0.240	2.350	133.62	-1.00	2.70	 	 	 	 	 	 	 	 	 	 	 	 	 	 	 	 	 	 	1581469696	7.32	13.56
12/02/2020 01:08:17	120220	12022020	010817	133.64	13.867097	-56.889570	133.83	-0.650	-0.520	2.870	133.63	-2.20	3.50	 	 	 	 	 	 	 	 	 	 	 	 	 	 	 	 	 	 	1581469697	7.88	14.59
12/02/2020 01:08:18	120220	12022020	010818	133.55	13.867067	-56.889545	133.75	0.210	-1.230	3.040	133.53	-2.70	3.50	 	 	 	 	 	 	 	 	 	 	 	 	 	 	 	 	 	 	1581469698	8.17	15.13
12/02/2020 01:08:19	120220	12022020	010819	133.56	13.867042	-56.889518	133.80	0.860	-1.270	2.800	133.61	-2.30	3.20	 	 	 	 	 	 	 	 	 	 	 	 	 	 	 	 	 	 	1581469699	7.88	14.59
12/02/2020 01:08:20	120220	12022020	010820	133.97	13.867020	-56.889493	134.26	0.670	-0.400	2.420	134.10	-1.20	2.80	 	 	 	 	 	 	 	 	 	 	 	 	 	 	 	 	 	 	1581469700	6.88	12.74
12/02/2020 01:08:21	120220	12022020	010821	134.64	13.867000	-56.889473	134.92	-0.110	0.700	2.180	134.76	-0.40	2.70	 	 	 	 	 	 	 	 	 	 	 	 	 	 	 	 	 	 	1581469701	6.07	11.24
12/02/2020 01:08:22	120220	12022020	010822	135.04	13.866978	-56.889452	135.26	-0.560	1.020	2.170	135.07	-0.60	2.80	 	 	 	 	 	 	 	 	 	 	 	 	 	 	 	 	 	 	1581469702	6.44	11.93
12/02/2020 01:08:23	120220	12022020	010823	134.97	13.866952	-56.889427	135.15	-0.120	0.090	2.430	134.93	-1.80	3.00	 	 	 	 	 	 	 	 	 	 	 	 	 	 	 	 	 	 	1581469703	7.82	14.48
12/02/2020 01:08:24	120220	12022020	010824	134.87	13.866922	-56.889398	135.13	0.520	-0.970	2.520	134.92	-2.40	3.00	 	 	 	 	 	 	 	 	 	 	 	 	 	 	 	 	 	 	1581469704	8.68	16.08
12/02/2020 01:08:25	120220	12022020	010825	135.34	13.866897	-56.889373	135.69	0.480	-0.870	2.470	135.50	-1.80	3.00	 	 	 	 	 	 	 	 	 	 	 	 	 	 	 	 	 	 	1581469705	7.61	14.09
12/02/2020 01:08:26	120220	12022020	010826	135.99	13.866873	-56.889355	136.48	-0.240	0.140	2.410	136.14	-1.40	3.00	 	 	 	 	 	 	 	 	 	 	 	 	 	 	 	 	 	 	1581469706	6.15	11.39
12/02/2020 01:08:27	120220	12022020	010827	136.67	13.866852	-56.889338	136.95	-0.820	0.640	2.460	136.72	-0.90	3.10	 	 	 	 	 	 	 	 	 	 	 	 	 	 	 	 	 	 	1581469707	6.11	11.32
12/02/2020 01:08:28	120220	12022020	010828	136.74	13.866823	-56.889317	136.96	-0.630	-0.080	2.620	136.74	-1.20	3.10	 	 	 	 	 	 	 	 	 	 	 	 	 	 	 	 	 	 	1581469708	7.54	13.96
12/02/2020 01:08:29	120220	12022020	010829	136.57	13.866792	-56.889293	136.79	0.070	-1.130	2.810	136.53	-2.70	3.40	 	 	 	 	 	 	 	 	 	 	 	 	 	 	 	 	 	 	1581469709	8.49	15.72
12/02/2020 01:08:30	120220	12022020	010830	136.42	13.866762	-56.889268	136.66	0.610	-1.420	2.760	136.41	-2.50	3.20	 	 	 	 	 	 	 	 	 	 	 	 	 	 	 	 	 	 	1581469710	8.12	15.04
12/02/2020 01:08:31	120220	12022020	010831	136.40	13.866738	-56.889245	136.63	0.600	-0.670	2.370	136.40	-1.50	2.70	 	 	 	 	 	 	 	 	 	 	 	 	 	 	 	 	 	 	1581469711	7.08	13.11
12/02/2020 01:08:32	120220	12022020	010832	136.56	13.866718	-56.889222	136.83	0.170	0.470	1.740	136.64	-0.50	2.00	 	 	 	 	 	 	 	 	 	 	 	 	 	 	 	 	 	 	1581469712	6.44	11.93
12/02/2020 01:08:33	120220	12022020	010833	137.04	13.866698	-56.889200	137.32	-0.360	1.100	1.260	137.14	-0.30	1.80	 	 	 	 	 	 	 	 	 	 	 	 	 	 	 	 	 	 	1581469713	6.54	12.11
12/02/2020 01:08:34	120220	12022020	010834	137.42	13.866670	-56.889177	137.67	-0.600	0.620	1.410	137.46	-1.10	2.20	 	 	 	 	 	 	 	 	 	 	 	 	 	 	 	 	 	 	1581469714	7.51	13.91
12/02/2020 01:08:35	120220	12022020	010835	137.47	13.866638	-56.889155	137.68	-0.410	-0.350	1.920	137.45	-2.00	2.70	 	 	 	 	 	 	 	 	 	 	 	 	 	 	 	 	 	 	1581469715	8.34	15.45
12/02/2020 01:08:36	120220	12022020	010836	137.31	13.866607	-56.889133	137.53	0.040	-0.780	2.390	137.28	-2.10	3.10	 	 	 	 	 	 	 	 	 	 	 	 	 	 	 	 	 	 	1581469716	7.98	14.78
12/02/2020 01:08:37	120220	12022020	010837	137.17	13.866582	-56.889113	137.39	0.470	-0.590	2.710	137.14	-1.80	3.30	 	 	 	 	 	 	 	 	 	 	 	 	 	 	 	 	 	 	1581469717	7.18	13.30
12/02/2020 01:08:38	120220	12022020	010838	137.12	13.866557	-56.889090	137.37	0.700	-0.440	2.800	137.13	-1.80	3.30	 	 	 	 	 	 	 	 	 	 	 	 	 	 	 	 	 	 	1581469718	7.19	13.32
12/02/2020 01:08:39	120220	12022020	010839	137.36	13.866530	-56.889065	137.68	0.510	-0.420	2.700	137.45	-1.70	3.20	 	 	 	 	 	 	 	 	 	 	 	 	 	 	 	 	 	 	1581469719	7.50	13.89
12/02/2020 01:08:40	120220	12022020	010840	137.82	13.866503	-56.889045	138.11	-0.030	-0.150	2.680	137.89	-1.30	3.30	 	 	 	 	 	 	 	 	 	 	 	 	 	 	 	 	 	 	1581469720	7.25	13.43
12/02/2020 01:08:41	120220	12022020	010841	138.02	13.866477	-56.889025	138.24	-0.500	0.190	2.950	138.01	-1.10	3.60	 	 	 	 	 	 	 	 	 	 	 	 	 	 	 	 	 	 	1581469721	6.94	12.85
12/02/2020 01:08:42	120220	12022020	010842	137.93	13.866450	-56.889005	138.14	-0.550	0.090	3.220	137.91	-1.40	3.80	 	 	 	 	 	 	 	 	 	 	 	 	 	 	 	 	 	 	1581469722	7.28	13.48
12/02/2020 01:08:43	120220	12022020	010843	137.86	13.866420	-56.888982	138.07	-0.220	-0.480	3.210	137.86	-2.10	3.70	 	 	 	 	 	 	 	 	 	 	 	 	 	 	 	 	 	 	1581469723	7.92	14.67
12/02/2020 01:08:44	120220	12022020	010844	137.89	13.866392	-56.888957	138.12	0.190	-1.010	2.950	137.91	-2.40	3.40	 	 	 	 	 	 	 	 	 	 	 	 	 	 	 	 	 	 	1581469724	8.24	15.26
12/02/2020 01:08:45	120220	12022020	010845	138.08	13.866363	-56.888932	138.33	0.320	-0.970	2.570	138.14	-2.10	3.00	 	 	 	 	 	 	 	 	 	 	 	 	 	 	 	 	 	 	1581469725	7.91	14.65
12/02/2020 01:08:46	120220	12022020	010846	138.45	13.866338	-56.888908	138.70	0.140	-0.340	2.250	138.53	-1.30	2.70	 	 	 	 	 	 	 	 	 	 	 	 	 	 	 	 	 	 	1581469726	7.25	13.43
12/02/2020 01:08:47	120220	12022020	010847	138.90	13.866315	-56.888887	139.15	-0.150	0.430	2.110	138.99	-0.60	2.60	 	 	 	 	 	 	 	 	 	 	 	 	 	 	 	 	 	 	1581469727	6.88	12.74
12/02/2020 01:08:48	120220	12022020	010848	139.51	13.866290	-56.888867	139.80	-0.510	0.980	2.040	139.66	-0.30	2.60	 	 	 	 	 	 	 	 	 	 	 	 	 	 	 	 	 	 	1581469728	6.91	12.80
12/02/2020 01:08:49	120220	12022020	010849	140.28	13.866262	-56.888848	140.56	-0.680	0.990	1.920	140.43	-0.60	2.40	 	 	 	 	 	 	 	 	 	 	 	 	 	 	 	 	 	 	1581469729	7.06	13.08
12/02/2020 01:08:50	120220	12022020	010850	140.86	13.866233	-56.888827	141.07	-0.260	0.140	1.820	140.92	-1.80	2.40	 	 	 	 	 	 	 	 	 	 	 	 	 	 	 	 	 	 	1581469730	7.71	14.28
12/02/2020 01:08:51	120220	12022020	010851	140.96	13.866202	-56.888802	141.12	0.670	-1.120	1.930	140.96	-2.80	2.60	 	 	 	 	 	 	 	 	 	 	 	 	 	 	 	 	 	 	1581469731	8.56	15.85
12/02/2020 01:08:52	120220	12022020	010852	140.81	13.866173	-56.888775	140.98	1.220	-1.570	2.250	140.81	-2.90	2.80	 	 	 	 	 	 	 	 	 	 	 	 	 	 	 	 	 	 	1581469732	8.29	15.35
12/02/2020 01:08:53	120220	12022020	010853	140.94	13.866148	-56.888753	141.17	0.840	-0.880	2.330	140.94	-2.50	2.90	 	 	 	 	 	 	 	 	 	 	 	 	 	 	 	 	 	 	1581469733	7.14	13.22
12/02/2020 01:08:54	120220	12022020	010854	141.46	13.866123	-56.888735	141.72	-0.070	0.160	2.200	141.57	-0.90	2.70	 	 	 	 	 	 	 	 	 	 	 	 	 	 	 	 	 	 	1581469734	6.44	11.93
12/02/2020 01:08:55	120220	12022020	010855	142.00	13.866097	-56.888718	142.24	-0.680	0.670	2.170	142.08	-0.70	2.70	 	 	 	 	 	 	 	 	 	 	 	 	 	 	 	 	 	 	1581469735	6.79	12.58
12/02/2020 01:08:56	120220	12022020	010856	142.30	13.866067	-56.888698	142.49	-0.550	0.240	2.110	142.32	-1.50	2.70	 	 	 	 	 	 	 	 	 	 	 	 	 	 	 	 	 	 	1581469736	7.73	14.32
12/02/2020 01:08:57	120220	12022020	010857	142.32	13.866033	-56.888673	142.51	-0.040	-0.780	2.120	142.32	-2.50	2.70	 	 	 	 	 	 	 	 	 	 	 	 	 	 	 	 	 	 	1581469737	8.71	16.13
12/02/2020 01:08:58	120220	12022020	010858	142.44	13.866000	-56.888652	142.68	0.180	-1.290	2.310	142.49	-2.50	3.00	 	 	 	 	 	 	 	 	 	 	 	 	 	 	 	 	 	 	1581469738	8.64	16.00
12/02/2020 01:08:59	120220	12022020	010859	142.70	13.865970	-56.888633	142.93	-0.140	-0.680	2.590	142.75	-1.60	3.20	 	 	 	 	 	 	 	 	 	 	 	 	 	 	 	 	 	 	1581469739	7.54	13.96
12/02/2020 01:09:00	120220	12022020	010900	142.84	13.865943	-56.888618	143.05	-0.570	0.340	2.700	142.84	-0.80	3.30	 	 	 	 	 	 	 	 	 	 	 	 	 	 	 	 	 	 	1581469740	6.70	12.41
12/02/2020 01:09:01	120220	12022020	010901	142.76	13.865915	-56.888600	142.94	-0.530	0.620	2.660	142.76	-0.90	3.20	 	 	 	 	 	 	 	 	 	 	 	 	 	 	 	 	 	 	1581469741	7.21	13.35
12/02/2020 01:09:02	120220	12022020	010902	142.65	13.865883	-56.888577	142.83	-0.040	0.130	2.610	142.65	-1.10	3.20	1017.40	26.10	26.10	21.40	21.40	-1.0	75.0	75.0	394.0	25.7	308.00	14.40	71.00	12.50	16	9362.0	27.2	27.2	1581469742	8.24	15.26
12/02/2020 01:09:03	120220	12022020	010903	142.78	13.865852	-56.888555	143.02	0.440	-0.290	2.500	142.78	-1.60	3.10	 	 	 	 	 	 	 	 	 	 	 	 	 	 	 	 	 	 	1581469743	8.37	15.50
12/02/2020 01:09:04	120220	12022020	010904	143.16	13.865822	-56.888532	143.58	0.530	-0.220	2.050	143.29	-1.60	2.80	 	 	 	 	 	 	 	 	 	 	 	 	 	 	 	 	 	 	1581469744	7.79	14.43
12/02/2020 01:09:05	120220	12022020	010905	144.13	13.865797	-56.888512	144.43	0.260	0.150	1.540	144.13	-1.30	2.20	 	 	 	 	 	 	 	 	 	 	 	 	 	 	 	 	 	 	1581469745	7.12	13.19
12/02/2020 01:09:06	120220	12022020	010906	144.91	13.865770	-56.888493	145.15	-0.050	0.370	1.510	144.91	-1.00	2.00	 	 	 	 	 	 	 	 	 	 	 	 	 	 	 	 	 	 	1581469746	6.90	12.78
12/02/2020 01:09:07	120220	12022020	010907	145.19	13.865740	-56.888475	145.35	-0.060	-0.010	2.030	145.18	-1.70	2.90	 	 	 	 	 	 	 	 	 	 	 	 	 	 	 	 	 	 	1581469747	7.36	13.63
12/02/2020 01:09:08	120220	12022020	010908	145.01	13.865707	-56.888457	145.16	0.140	-0.910	2.690	144.95	-2.60	3.60	 	 	 	 	 	 	 	 	 	 	 	 	 	 	 	 	 	 	1581469748	8.20	15.19
12/02/2020 01:09:09	120220	12022020	010909	144.64	13.865670	-56.888438	144.78	0.310	-1.630	3.410	144.56	-3.00	4.20	 	 	 	 	 	 	 	 	 	 	 	 	 	 	 	 	 	 	1581469749	8.63	15.98
12/02/2020 01:09:10	120220	12022020	010910	144.26	13.865637	-56.888420	144.41	0.310	-1.440	3.860	144.20	-2.40	4.40	 	 	 	 	 	 	 	 	 	 	 	 	 	 	 	 	 	 	1581469750	8.15	15.09
12/02/2020 01:09:11	120220	12022020	010911	144.09	13.865608	-56.888403	144.26	0.240	-0.420	3.630	144.10	-1.30	3.90	 	 	 	 	 	 	 	 	 	 	 	 	 	 	 	 	 	 	1581469751	7.24	13.41
12/02/2020 01:09:12	120220	12022020	010912	144.32	13.865583	-56.888382	144.56	0.090	0.670	2.800	144.32	-0.40	3.00	 	 	 	 	 	 	 	 	 	 	 	 	 	 	 	 	 	 	1581469752	6.95	12.87
12/02/2020 01:09:13	120220	12022020	010913	145.02	13.865558	-56.888360	145.28	-0.300	1.220	1.970	145.02	-0.20	2.30	 	 	 	 	 	 	 	 	 	 	 	 	 	 	 	 	 	 	1581469753	7.14	13.22
12/02/2020 01:09:14	120220	12022020	010914	145.80	13.865528	-56.888340	146.04	-0.750	0.930	1.540	145.80	-0.30	2.20	 	 	 	 	 	 	 	 	 	 	 	 	 	 	 	 	 	 	1581469754	7.58	14.04
12/02/2020 01:09:15	120220	12022020	010915	146.31	13.865495	-56.888322	146.51	-0.870	0.020	1.560	146.31	-1.10	2.10	 	 	 	 	 	 	 	 	 	 	 	 	 	 	 	 	 	 	1581469755	8.21	15.20
12/02/2020 01:09:16	120220	12022020	010916	146.49	13.865458	-56.888305	146.65	-0.480	-0.920	1.920	146.49	-2.10	2.40	 	 	 	 	 	 	 	 	 	 	 	 	 	 	 	 	 	 	1581469756	8.42	15.59
12/02/2020 01:09:17	120220	12022020	010917	146.39	13.865425	-56.888287	146.52	0.180	-1.600	2.410	146.39	-2.80	2.90	 	 	 	 	 	 	 	 	 	 	 	 	 	 	 	 	 	 	1581469757	8.35	15.46
12/02/2020 01:09:18	120220	12022020	010918	146.12	13.865390	-56.888268	146.26	0.660	-1.790	2.770	146.12	-3.20	3.30	 	 	 	 	 	 	 	 	 	 	 	 	 	 	 	 	 	 	1581469758	8.33	15.43
12/02/2020 01:09:19	120220	12022020	010919	145.84	13.865358	-56.888250	145.99	0.740	-1.220	3.010	145.84	-2.10	3.60	 	 	 	 	 	 	 	 	 	 	 	 	 	 	 	 	 	 	1581469759	7.95	14.72
12/02/2020 01:09:20	120220	12022020	010920	145.73	13.865328	-56.888232	145.93	0.490	0.090	3.020	145.73	-1.60	3.60	 	 	 	 	 	 	 	 	 	 	 	 	 	 	 	 	 	 	1581469760	7.34	13.59
12/02/2020 01:09:21	120220	12022020	010921	146.33	13.865303	-56.888212	146.64	-0.000	1.590	2.430	146.33	-0.10	3.20	 	 	 	 	 	 	 	 	 	 	 	 	 	 	 	 	 	 	1581469761	6.75	12.50
12/02/2020 01:09:22	120220	12022020	010922	147.44	13.865278	-56.888193	147.75	-0.560	2.180	1.870	147.65	0.60	2.40	 	 	 	 	 	 	 	 	 	 	 	 	 	 	 	 	 	 	1581469762	6.78	12.56
12/02/2020 01:09:23	120220	12022020	010923	148.32	13.865247	-56.888175	148.58	-0.750	1.260	1.900	148.32	0.20	2.40	 	 	 	 	 	 	 	 	 	 	 	 	 	 	 	 	 	 	1581469763	7.83	14.50
12/02/2020 01:09:24	120220	12022020	010924	148.78	13.865208	-56.888157	149.04	-0.340	-0.440	2.160	148.78	-1.40	2.70	 	 	 	 	 	 	 	 	 	 	 	 	 	 	 	 	 	 	1581469764	8.93	16.54
12/02/2020 01:09:25	120220	12022020	010925	149.10	13.865173	-56.888140	149.36	0.210	-1.440	2.520	149.10	-2.70	3.00	 	 	 	 	 	 	 	 	 	 	 	 	 	 	 	 	 	 	1581469765	8.53	15.80
12/02/2020 01:09:26	120220	12022020	010926	149.05	13.865142	-56.888125	149.24	0.550	-1.550	3.090	149.05	-2.90	3.50	 	 	 	 	 	 	 	 	 	 	 	 	 	 	 	 	 	 	1581469766	7.51	13.91
12/02/2020 01:09:27	120220	12022020	010927	148.54	13.865110	-56.888108	148.72	0.720	-1.560	3.530	148.54	-2.90	4.20	 	 	 	 	 	 	 	 	 	 	 	 	 	 	 	 	 	 	1581469767	7.55	13.98
12/02/2020 01:09:28	120220	12022020	010928	148.05	13.865077	-56.888088	148.27	0.730	-1.490	3.500	148.05	-2.90	4.10	 	 	 	 	 	 	 	 	 	 	 	 	 	 	 	 	 	 	1581469768	8.10	15.00
12/02/2020 01:09:29	120220	12022020	010929	148.01	13.865045	-56.888068	148.32	0.430	-0.940	3.110	148.01	-2.50	3.80	 	 	 	 	 	 	 	 	 	 	 	 	 	 	 	 	 	 	1581469769	8.08	14.96
12/02/2020 01:09:30	120220	12022020	010930	148.40	13.865015	-56.888050	148.73	-0.180	-0.000	2.470	148.40	-1.60	3.20	 	 	 	 	 	 	 	 	 	 	 	 	 	 	 	 	 	 	1581469770	7.64	14.15
12/02/2020 01:09:31	120220	12022020	010931	148.94	13.864985	-56.888033	149.23	-0.790	0.900	1.840	148.94	-0.70	2.60	 	 	 	 	 	 	 	 	 	 	 	 	 	 	 	 	 	 	1581469771	7.40	13.70
12/02/2020 01:09:32	120220	12022020	010932	149.41	13.864953	-56.888017	149.69	-0.990	1.310	1.410	149.41	-0.10	2.10	 	 	 	 	 	 	 	 	 	 	 	 	 	 	 	 	 	 	1581469772	7.60	14.08
12/02/2020 01:09:33	120220	12022020	010933	149.86	13.864920	-56.887998	150.13	-0.680	1.040	1.240	149.86	-0.20	1.80	 	 	 	 	 	 	 	 	 	 	 	 	 	 	 	 	 	 	1581469773	8.06	14.93
12/02/2020 01:09:34	120220	12022020	010934	150.23	13.864885	-56.887978	150.48	-0.180	0.200	1.380	150.29	-1.60	2.20	 	 	 	 	 	 	 	 	 	 	 	 	 	 	 	 	 	 	1581469774	8.55	15.83
12/02/2020 01:09:35	120220	12022020	010935	150.42	13.864848	-56.887960	150.66	0.150	-0.770	1.990	150.42	-1.90	2.40	 	 	 	 	 	 	 	 	 	 	 	 	 	 	 	 	 	 	1581469775	8.78	16.26
12/02/2020 01:09:36	120220	12022020	010936	150.38	13.864812	-56.887947	150.63	0.160	-1.100	2.860	150.38	-2.50	3.20	 	 	 	 	 	 	 	 	 	 	 	 	 	 	 	 	 	 	1581469776	8.42	15.59
12/02/2020 01:09:37	120220	12022020	010937	150.27	13.864780	-56.887935	150.53	0.000	-0.500	3.450	150.27	-2.10	3.90	 	 	 	 	 	 	 	 	 	 	 	 	 	 	 	 	 	 	1581469777	7.43	13.76
12/02/2020 01:09:38	120220	12022020	010938	150.20	13.864750	-56.887922	150.45	-0.000	0.150	3.530	150.20	-1.30	4.10	 	 	 	 	 	 	 	 	 	 	 	 	 	 	 	 	 	 	1581469778	6.97	12.91
12/02/2020 01:09:39	120220	12022020	010939	150.22	13.864718	-56.887903	150.48	0.310	-0.050	3.210	150.22	-1.70	3.60	 	 	 	 	 	 	 	 	 	 	 	 	 	 	 	 	 	 	1581469779	7.71	14.28
12/02/2020 01:09:40	120220	12022020	010940	150.35	13.864683	-56.887883	150.61	0.820	-0.890	2.750	150.35	-2.10	3.40	 	 	 	 	 	 	 	 	 	 	 	 	 	 	 	 	 	 	1581469780	8.75	16.21
12/02/2020 01:09:41	120220	12022020	010941	150.46	13.864648	-56.887862	150.72	1.120	-1.240	2.310	150.46	-2.40	2.70	 	 	 	 	 	 	 	 	 	 	 	 	 	 	 	 	 	 	1581469781	8.81	16.32
12/02/2020 01:09:42	120220	12022020	010942	150.74	13.864618	-56.887842	151.03	0.800	-0.330	1.890	150.74	-2.00	2.60	 	 	 	 	 	 	 	 	 	 	 	 	 	 	 	 	 	 	1581469782	7.58	14.04
12/02/2020 01:09:43	120220	12022020	010943	151.30	13.864593	-56.887825	151.60	-0.050	0.970	1.660	151.30	-0.70	2.30	 	 	 	 	 	 	 	 	 	 	 	 	 	 	 	 	 	 	1581469783	6.42	11.89
12/02/2020 01:09:44	120220	12022020	010944	151.84	13.864565	-56.887810	152.11	-0.830	1.120	1.770	151.84	-0.10	2.30	 	 	 	 	 	 	 	 	 	 	 	 	 	 	 	 	 	 	1581469784	7.00	12.96
12/02/2020 01:09:45	120220	12022020	010945	152.09	13.864527	-56.887793	152.34	-1.100	-0.140	2.310	152.09	-1.10	2.70	 	 	 	 	 	 	 	 	 	 	 	 	 	 	 	 	 	 	1581469785	8.68	16.08
12/02/2020 01:09:46	120220	12022020	010946	152.09	13.864485	-56.887780	152.37	-0.920	-1.590	3.080	152.09	-2.70	3.50	 	 	 	 	 	 	 	 	 	 	 	 	 	 	 	 	 	 	1581469786	9.65	17.87
12/02/2020 01:09:47	120220	12022020	010947	152.16	13.864443	-56.887768	152.48	-0.550	-1.940	3.570	152.16	-3.40	4.10	 	 	 	 	 	 	 	 	 	 	 	 	 	 	 	 	 	 	1581469787	9.16	16.96
12/02/2020 01:09:48	120220	12022020	010948	152.48	13.864410	-56.887757	152.82	-0.160	-0.930	3.280	152.48	-2.60	4.00	 	 	 	 	 	 	 	 	 	 	 	 	 	 	 	 	 	 	1581469788	7.71	14.28
12/02/2020 01:09:49	120220	12022020	010949	152.95	13.864382	-56.887742	153.25	0.290	0.460	2.190	152.95	-1.20	3.10	 	 	 	 	 	 	 	 	 	 	 	 	 	 	 	 	 	 	1581469789	6.82	12.63
12/02/2020 01:09:50	120220	12022020	010950	153.41	13.864355	-56.887718	153.69	0.810	1.050	0.750	153.41	-0.40	1.70	 	 	 	 	 	 	 	 	 	 	 	 	 	 	 	 	 	 	1581469790	7.51	13.91
12/02/2020 01:09:51	120220	12022020	010951	153.90	13.864325	-56.887692	154.16	1.090	0.730	-0.300	153.90	-0.50	0.50	 	 	 	 	 	 	 	 	 	 	 	 	 	 	 	 	 	 	1581469791	8.55	15.83
12/02/2020 01:09:52	120220	12022020	010952	154.19	13.864293	-56.887667	154.46	0.760	0.030	-0.230	154.23	-1.20	0.20	 	 	 	 	 	 	 	 	 	 	 	 	 	 	 	 	 	 	1581469792	8.61	15.95
12/02/2020 01:09:53	120220	12022020	010953	154.18	13.864257	-56.887652	154.36	-0.050	-0.660	0.790	154.18	-1.90	1.10	 	 	 	 	 	 	 	 	 	 	 	 	 	 	 	 	 	 	1581469793	8.45	15.65
12/02/2020 01:09:54	120220	12022020	010954	153.89	13.864218	-56.887643	154.10	-0.880	-0.820	2.140	153.89	-2.20	2.40	 	 	 	 	 	 	 	 	 	 	 	 	 	 	 	 	 	 	1581469794	8.40	15.56
12/02/2020 01:09:55	120220	12022020	010955	153.89	13.864182	-56.887642	154.20	-1.280	-0.380	3.160	153.89	-1.90	3.60	 	 	 	 	 	 	 	 	 	 	 	 	 	 	 	 	 	 	1581469795	8.15	15.09
12/02/2020 01:09:56	120220	12022020	010956	154.53	13.864147	-56.887637	154.88	-0.940	0.160	3.150	154.53	-1.30	3.80	 	 	 	 	 	 	 	 	 	 	 	 	 	 	 	 	 	 	1581469796	7.61	14.09
12/02/2020 01:09:57	120220	12022020	010957	155.31	13.864113	-56.887623	155.62	0.040	0.070	2.330	155.31	-1.20	3.10	 	 	 	 	 	 	 	 	 	 	 	 	 	 	 	 	 	 	1581469797	7.66	14.19
12/02/2020 01:09:58	120220	12022020	010958	155.86	13.864078	-56.887603	156.11	0.970	-0.670	1.530	155.86	-1.90	2.30	 	 	 	 	 	 	 	 	 	 	 	 	 	 	 	 	 	 	1581469798	8.64	16.00
12/02/2020 01:09:59	120220	12022020	010959	156.22	13.864043	-56.887582	156.45	1.110	-1.170	1.180	156.22	-2.50	1.80	 	 	 	 	 	 	 	 	 	 	 	 	 	 	 	 	 	 	1581469799	8.72	16.15
12/02/2020 01:10:00	120220	12022020	011000	156.46	13.864010	-56.887567	156.67	0.510	-0.910	1.300	156.46	-2.40	1.80	 	 	 	 	 	 	 	 	 	 	 	 	 	 	 	 	 	 	1581469800	7.99	14.80
12/02/2020 01:10:01	120220	12022020	011001	156.60	13.863977	-56.887555	156.78	-0.150	-0.260	1.720	156.60	-1.80	2.20	 	 	 	 	 	 	 	 	 	 	 	 	 	 	 	 	 	 	1581469801	7.43	13.76
12/02/2020 01:10:02	120220	12022020	011002	156.55	13.863942	-56.887543	156.70	-0.370	0.040	2.190	156.55	-1.40	2.60	1017.40	26.00	26.00	21.00	21.10	-1.0	74.0	74.0	391.0	25.7	297.00	14.40	70.00	13.10	16	9407.0	27.2	27.1	1581469802	7.80	14.45
12/02/2020 01:10:03	120220	12022020	011003	156.47	13.863905	-56.887530	156.65	-0.320	0.160	2.510	156.47	-1.20	3.10	 	 	 	 	 	 	 	 	 	 	 	 	 	 	 	 	 	 	1581469803	8.28	15.33
12/02/2020 01:10:04	120220	12022020	011004	156.61	13.863870	-56.887518	156.85	-0.340	0.430	2.580	156.61	-1.10	3.10	 	 	 	 	 	 	 	 	 	 	 	 	 	 	 	 	 	 	1581469804	8.09	14.98
12/02/2020 01:10:05	120220	12022020	011005	157.08	13.863835	-56.887505	157.35	-0.400	0.540	2.340	157.08	-1.00	2.70	 	 	 	 	 	 	 	 	 	 	 	 	 	 	 	 	 	 	1581469805	7.88	14.59
12/02/2020 01:10:06	120220	12022020	011006	157.59	13.863800	-56.887492	157.96	-0.310	0.070	2.000	157.71	-1.20	2.60	 	 	 	 	 	 	 	 	 	 	 	 	 	 	 	 	 	 	1581469806	8.28	15.33
12/02/2020 01:10:07	120220	12022020	011007	158.09	13.863762	-56.887477	158.27	0.030	-0.730	1.970	158.09	-2.00	2.50	 	 	 	 	 	 	 	 	 	 	 	 	 	 	 	 	 	 	1581469807	8.77	16.24
12/02/2020 01:10:08	120220	12022020	011008	158.05	13.863723	-56.887465	158.18	0.420	-1.120	2.270	158.05	-2.50	2.80	 	 	 	 	 	 	 	 	 	 	 	 	 	 	 	 	 	 	1581469808	8.67	16.06
12/02/2020 01:10:09	120220	12022020	011009	157.89	13.863688	-56.887453	158.02	0.550	-0.640	2.340	157.89	-2.20	2.90	 	 	 	 	 	 	 	 	 	 	 	 	 	 	 	 	 	 	1581469809	7.86	14.56
12/02/2020 01:10:10	120220	12022020	011010	158.01	13.863658	-56.887440	158.17	0.330	0.360	2.060	158.01	-1.30	2.70	 	 	 	 	 	 	 	 	 	 	 	 	 	 	 	 	 	 	1581469810	7.01	12.98
12/02/2020 01:10:11	120220	12022020	011011	158.28	13.863627	-56.887427	158.44	0.060	0.650	1.840	158.28	-0.70	2.40	 	 	 	 	 	 	 	 	 	 	 	 	 	 	 	 	 	 	1581469811	7.20	13.33
12/02/2020 01:10:12	120220	12022020	011012	158.43	13.863590	-56.887412	158.58	0.040	-0.290	1.830	158.43	-1.40	2.40	 	 	 	 	 	 	 	 	 	 	 	 	 	 	 	 	 	 	1581469812	8.63	15.98
12/02/2020 01:10:13	120220	12022020	011013	158.57	13.863548	-56.887397	158.72	0.110	-1.260	2.080	158.57	-2.50	2.50	 	 	 	 	 	 	 	 	 	 	 	 	 	 	 	 	 	 	1581469813	9.34	17.30
12/02/2020 01:10:14	120220	12022020	011014	158.78	13.863510	-56.887385	158.95	0.020	-1.220	2.550	158.78	-2.70	3.00	 	 	 	 	 	 	 	 	 	 	 	 	 	 	 	 	 	 	1581469814	8.62	15.96
12/02/2020 01:10:15	120220	12022020	011015	159.03	13.863475	-56.887378	159.19	-0.270	-0.470	2.880	159.03	-2.10	3.40	 	 	 	 	 	 	 	 	 	 	 	 	 	 	 	 	 	 	1581469815	7.74	14.33
12/02/2020 01:10:16	120220	12022020	011016	159.26	13.863442	-56.887368	159.43	-0.480	0.240	2.870	159.26	-1.30	3.40	 	 	 	 	 	 	 	 	 	 	 	 	 	 	 	 	 	 	1581469816	7.57	14.02
12/02/2020 01:10:17	120220	12022020	011017	159.57	13.863407	-56.887358	159.75	-0.490	0.610	2.720	159.57	-0.80	3.10	 	 	 	 	 	 	 	 	 	 	 	 	 	 	 	 	 	 	1581469817	7.81	14.46
12/02/2020 01:10:18	120220	12022020	011018	159.97	13.863370	-56.887345	160.13	-0.320	0.480	2.270	159.97	-0.90	2.90	 	 	 	 	 	 	 	 	 	 	 	 	 	 	 	 	 	 	1581469818	8.17	15.13
12/02/2020 01:10:19	120220	12022020	011019	160.23	13.863333	-56.887330	160.37	0.040	-0.130	1.790	160.23	-1.40	2.40	 	 	 	 	 	 	 	 	 	 	 	 	 	 	 	 	 	 	1581469819	8.71	16.13
12/02/2020 01:10:20	120220	12022020	011020	160.51	13.863295	-56.887315	160.68	0.420	-0.590	1.500	160.51	-1.90	2.10	 	 	 	 	 	 	 	 	 	 	 	 	 	 	 	 	 	 	1581469820	8.82	16.33
12/02/2020 01:10:21	120220	12022020	011021	161.04	13.863260	-56.887302	161.22	0.580	-0.390	1.230	161.04	-1.90	1.90	 	 	 	 	 	 	 	 	 	 	 	 	 	 	 	 	 	 	1581469821	8.05	14.91
12/02/2020 01:10:22	120220	12022020	011022	161.51	13.863227	-56.887288	161.64	0.530	-0.140	1.080	161.51	-1.60	1.70	 	 	 	 	 	 	 	 	 	 	 	 	 	 	 	 	 	 	1581469822	7.64	14.15
12/02/2020 01:10:23	120220	12022020	011023	161.64	13.863192	-56.887275	161.74	0.440	-0.400	1.370	161.64	-1.70	1.80	 	 	 	 	 	 	 	 	 	 	 	 	 	 	 	 	 	 	1581469823	8.20	15.19
12/02/2020 01:10:24	120220	12022020	011024	161.55	13.863152	-56.887263	161.67	0.260	-0.760	2.090	161.55	-2.10	2.50	 	 	 	 	 	 	 	 	 	 	 	 	 	 	 	 	 	 	1581469824	8.71	16.13
12/02/2020 01:10:25	120220	12022020	011025	161.58	13.863113	-56.887255	161.74	-0.170	-0.630	2.850	161.58	-2.10	3.20	 	 	 	 	 	 	 	 	 	 	 	 	 	 	 	 	 	 	1581469825	8.50	15.74
12/02/2020 01:10:26	120220	12022020	011026	161.79	13.863077	-56.887252	161.99	-0.720	-0.010	3.350	161.79	-1.60	3.80	 	 	 	 	 	 	 	 	 	 	 	 	 	 	 	 	 	 	1581469826	7.93	14.69
12/02/2020 01:10:27	120220	12022020	011027	162.17	13.863042	-56.887247	162.38	-0.970	0.520	3.200	162.17	-0.90	3.50	 	 	 	 	 	 	 	 	 	 	 	 	 	 	 	 	 	 	1581469827	7.65	14.17
12/02/2020 01:10:28	120220	12022020	011028	162.53	13.863005	-56.887237	162.72	-0.590	0.340	2.650	162.53	-1.00	3.30	 	 	 	 	 	 	 	 	 	 	 	 	 	 	 	 	 	 	1581469828	8.11	15.02
12/02/2020 01:10:29	120220	12022020	011029	162.71	13.862965	-56.887223	162.87	0.150	-0.590	2.210	162.71	-2.40	2.70	 	 	 	 	 	 	 	 	 	 	 	 	 	 	 	 	 	 	1581469829	9.08	16.82
12/02/2020 01:10:30	120220	12022020	011030	162.70	13.862923	-56.887208	162.85	0.720	-1.410	2.080	162.70	-2.70	2.70	 	 	 	 	 	 	 	 	 	 	 	 	 	 	 	 	 	 	1581469830	9.51	17.61
12/02/2020 01:10:31	120220	12022020	011031	162.85	13.862883	-56.887197	163.05	0.720	-1.090	1.910	162.85	-2.00	2.40	 	 	 	 	 	 	 	 	 	 	 	 	 	 	 	 	 	 	1581469831	8.72	16.15
12/02/2020 01:10:32	120220	12022020	011032	163.44	13.862852	-56.887185	163.71	0.230	0.280	1.620	163.44	-1.50	2.30	 	 	 	 	 	 	 	 	 	 	 	 	 	 	 	 	 	 	1581469832	7.27	13.46
12/02/2020 01:10:33	120220	12022020	011033	164.26	13.862822	-56.887175	164.50	-0.270	1.280	1.300	164.26	-0.30	1.90	 	 	 	 	 	 	 	 	 	 	 	 	 	 	 	 	 	 	1581469833	6.90	12.78
12/02/2020 01:10:34	120220	12022020	011034	164.82	13.862787	-56.887163	165.04	-0.450	0.920	1.220	164.82	-0.30	1.70	 	 	 	 	 	 	 	 	 	 	 	 	 	 	 	 	 	 	1581469834	8.00	14.82
12/02/2020 01:10:35	120220	12022020	011035	164.94	13.862745	-56.887153	165.13	-0.360	-0.360	1.780	164.94	-1.40	2.10	 	 	 	 	 	 	 	 	 	 	 	 	 	 	 	 	 	 	1581469835	9.21	17.06
12/02/2020 01:10:36	120220	12022020	011036	164.69	13.862700	-56.887148	164.88	-0.180	-1.530	2.660	164.69	-2.70	3.00	 	 	 	 	 	 	 	 	 	 	 	 	 	 	 	 	 	 	1581469836	9.65	17.87
12/02/2020 01:10:37	120220	12022020	011037	164.37	13.862657	-56.887145	164.58	0.010	-1.740	3.250	164.37	-3.20	3.70	 	 	 	 	 	 	 	 	 	 	 	 	 	 	 	 	 	 	1581469837	9.18	17.00
12/02/2020 01:10:38	120220	12022020	011038	164.34	13.862620	-56.887138	164.60	0.160	-0.810	3.120	164.34	-2.60	3.80	 	 	 	 	 	 	 	 	 	 	 	 	 	 	 	 	 	 	1581469838	8.09	14.98
12/02/2020 01:10:39	120220	12022020	011039	164.79	13.862588	-56.887130	165.09	0.220	0.600	2.250	164.79	-1.10	3.00	 	 	 	 	 	 	 	 	 	 	 	 	 	 	 	 	 	 	1581469839	7.16	13.26
12/02/2020 01:10:40	120220	12022020	011040	165.54	13.862557	-56.887117	165.82	0.170	1.360	1.140	165.54	-0.10	1.90	 	 	 	 	 	 	 	 	 	 	 	 	 	 	 	 	 	 	1581469840	7.30	13.52
12/02/2020 01:10:41	120220	12022020	011041	166.13	13.862520	-56.887102	166.36	0.140	0.800	0.550	166.13	-0.40	1.20	 	 	 	 	 	 	 	 	 	 	 	 	 	 	 	 	 	 	1581469841	8.36	15.48
12/02/2020 01:10:42	120220	12022020	011042	166.30	13.862478	-56.887090	166.48	0.210	-0.650	0.790	166.30	-1.70	1.20	 	 	 	 	 	 	 	 	 	 	 	 	 	 	 	 	 	 	1581469842	9.45	17.50
12/02/2020 01:10:43	120220	12022020	011043	166.30	13.862435	-56.887080	166.54	0.180	-1.720	1.520	166.30	-3.00	1.90	 	 	 	 	 	 	 	 	 	 	 	 	 	 	 	 	 	 	1581469843	9.64	17.85
12/02/2020 01:10:44	120220	12022020	011044	166.54	13.862395	-56.887077	166.84	-0.140	-1.490	2.310	166.54	-3.10	2.70	 	 	 	 	 	 	 	 	 	 	 	 	 	 	 	 	 	 	1581469844	8.60	15.93
12/02/2020 01:10:45	120220	12022020	011045	166.87	13.862358	-56.887077	167.14	-0.610	-0.500	2.890	166.87	-2.20	3.30	 	 	 	 	 	 	 	 	 	 	 	 	 	 	 	 	 	 	1581469845	7.60	14.08
12/02/2020 01:10:46	120220	12022020	011046	166.91	13.862322	-56.887075	167.12	-0.770	0.030	3.320	166.91	-1.50	3.70	 	 	 	 	 	 	 	 	 	 	 	 	 	 	 	 	 	 	1581469846	7.93	14.69
12/02/2020 01:10:47	120220	12022020	011047	166.65	13.862282	-56.887072	166.87	-0.400	-0.140	3.440	166.65	-1.50	4.00	 	 	 	 	 	 	 	 	 	 	 	 	 	 	 	 	 	 	1581469847	8.93	16.54
12/02/2020 01:10:48	120220	12022020	011048	166.59	13.862240	-56.887063	166.87	0.150	-0.040	3.110	166.59	-1.60	3.80	 	 	 	 	 	 	 	 	 	 	 	 	 	 	 	 	 	 	1581469848	9.05	16.76
12/02/2020 01:10:49	120220	12022020	011049	167.14	13.862203	-56.887053	167.49	0.430	0.750	2.150	167.14	-0.90	3.00	 	 	 	 	 	 	 	 	 	 	 	 	 	 	 	 	 	 	1581469849	8.07	14.95
12/02/2020 01:10:50	120220	12022020	011050	168.24	13.862172	-56.887040	168.58	0.350	1.420	0.770	168.24	-0.10	1.60	 	 	 	 	 	 	 	 	 	 	 	 	 	 	 	 	 	 	1581469850	7.47	13.83
12/02/2020 01:10:51	120220	12022020	011051	169.23	13.862137	-56.887025	169.49	0.210	0.830	0.120	169.23	-0.30	0.70	 	 	 	 	 	 	 	 	 	 	 	 	 	 	 	 	 	 	1581469851	8.07	14.95
12/02/2020 01:10:52	120220	12022020	011052	169.46	13.862093	-56.887017	169.64	0.340	-1.050	0.920	169.46	-2.00	1.20	 	 	 	 	 	 	 	 	 	 	 	 	 	 	 	 	 	 	1581469852	9.40	17.41
12/02/2020 01:10:53	120220	12022020	011053	169.01	13.862047	-56.887012	169.19	0.480	-2.810	2.510	169.01	-3.90	2.70	 	 	 	 	 	 	 	 	 	 	 	 	 	 	 	 	 	 	1581469853	10.24	18.96
12/02/2020 01:10:54	120220	12022020	011054	168.56	13.862002	-56.887013	168.72	0.220	-2.830	4.100	168.47	-4.40	4.30	 	 	 	 	 	 	 	 	 	 	 	 	 	 	 	 	 	 	1581469854	9.43	17.46
12/02/2020 01:10:55	120220	12022020	011055	168.30	13.861967	-56.887018	168.63	-0.400	-1.070	4.970	168.30	-3.00	5.40	 	 	 	 	 	 	 	 	 	 	 	 	 	 	 	 	 	 	1581469855	7.80	14.45
12/02/2020 01:10:56	120220	12022020	011056	168.54	13.861935	-56.887020	168.98	-0.870	1.020	4.680	168.64	-0.90	5.40	 	 	 	 	 	 	 	 	 	 	 	 	 	 	 	 	 	 	1581469856	6.72	12.45
12/02/2020 01:10:57	120220	12022020	011057	169.25	13.861902	-56.887013	169.55	-0.760	1.790	3.570	169.25	0.30	4.40	 	 	 	 	 	 	 	 	 	 	 	 	 	 	 	 	 	 	1581469857	7.39	13.69
12/02/2020 01:10:58	120220	12022020	011058	169.73	13.861860	-56.887002	169.98	-0.100	0.780	2.390	169.73	-0.30	3.20	 	 	 	 	 	 	 	 	 	 	 	 	 	 	 	 	 	 	1581469858	9.27	17.17
12/02/2020 01:10:59	120220	12022020	011059	170.04	13.861813	-56.886988	170.26	0.580	-0.600	1.570	170.04	-1.80	2.30	 	 	 	 	 	 	 	 	 	 	 	 	 	 	 	 	 	 	1581469859	10.21	18.91
12/02/2020 01:11:00	120220	12022020	011100	170.33	13.861772	-56.886977	170.57	0.700	-0.920	1.140	170.33	-2.40	1.80	 	 	 	 	 	 	 	 	 	 	 	 	 	 	 	 	 	 	1581469860	9.27	17.17
12/02/2020 01:11:01	120220	12022020	011101	170.76	13.861737	-56.886968	171.05	0.230	-0.210	1.050	170.76	-1.90	1.60	 	 	 	 	 	 	 	 	 	 	 	 	 	 	 	 	 	 	1581469861	7.78	14.41
12/02/2020 01:11:02	120220	12022020	011102	171.28	13.861703	-56.886965	171.57	-0.310	0.400	1.310	171.28	-1.10	1.80	1017.50	26.00	26.10	20.90	20.90	-1.0	73.0	73.0	389.0	25.7	286.00	13.20	71.00	12.70	16	9654.0	27.2	27.1	1581469862	7.39	13.69
12/02/2020 01:11:03	120220	12022020	011103	171.71	13.861665	-56.886963	171.98	-0.410	0.260	1.700	171.71	-1.10	2.10	 	 	 	 	 	 	 	 	 	 	 	 	 	 	 	 	 	 	1581469863	8.17	15.13
12/02/2020 01:11:04	120220	12022020	011104	172.11	13.861625	-56.886962	172.38	-0.110	-0.240	1.850	172.11	-1.60	2.40	 	 	 	 	 	 	 	 	 	 	 	 	 	 	 	 	 	 	1581469864	8.79	16.28
12/02/2020 01:11:05	120220	12022020	011105	172.48	13.861583	-56.886958	172.75	0.260	-0.540	1.730	172.48	-1.90	2.30	 	 	 	 	 	 	 	 	 	 	 	 	 	 	 	 	 	 	1581469865	8.65	16.02
12/02/2020 01:11:06	120220	12022020	011106	172.74	13.861545	-56.886952	172.97	0.470	-0.720	1.430	172.74	-2.10	2.00	 	 	 	 	 	 	 	 	 	 	 	 	 	 	 	 	 	 	1581469866	8.43	15.61
12/02/2020 01:11:07	120220	12022020	011107	172.73	13.861505	-56.886943	172.91	0.460	-1.000	1.310	172.73	-2.50	1.90	 	 	 	 	 	 	 	 	 	 	 	 	 	 	 	 	 	 	1581469867	8.66	16.04
12/02/2020 01:11:08	120220	12022020	011108	172.70	13.861465	-56.886938	172.91	0.180	-0.990	1.480	172.70	-2.50	2.00	 	 	 	 	 	 	 	 	 	 	 	 	 	 	 	 	 	 	1581469868	8.74	16.19
12/02/2020 01:11:09	120220	12022020	011109	172.90	13.861427	-56.886935	173.14	-0.270	-0.560	1.760	172.90	-2.10	2.20	 	 	 	 	 	 	 	 	 	 	 	 	 	 	 	 	 	 	1581469869	8.37	15.50
12/02/2020 01:11:10	120220	12022020	011110	173.11	13.861388	-56.886935	173.32	-0.560	-0.130	2.020	173.11	-1.70	2.50	 	 	 	 	 	 	 	 	 	 	 	 	 	 	 	 	 	 	1581469870	8.34	15.45
12/02/2020 01:11:11	120220	12022020	011111	173.16	13.861348	-56.886935	173.34	-0.550	0.140	2.400	173.16	-1.40	2.80	 	 	 	 	 	 	 	 	 	 	 	 	 	 	 	 	 	 	1581469871	8.64	16.00
12/02/2020 01:11:12	120220	12022020	011112	173.27	13.861307	-56.886933	173.48	-0.320	0.410	2.570	173.27	-1.10	3.10	 	 	 	 	 	 	 	 	 	 	 	 	 	 	 	 	 	 	1581469872	8.69	16.09
12/02/2020 01:11:13	120220	12022020	011113	173.63	13.861268	-56.886930	173.86	-0.060	0.470	2.340	173.63	-1.00	2.90	 	 	 	 	 	 	 	 	 	 	 	 	 	 	 	 	 	 	1581469873	8.58	15.89
12/02/2020 01:11:14	120220	12022020	011114	174.00	13.861227	-56.886925	174.21	0.170	0.030	2.090	174.00	-1.30	2.70	 	 	 	 	 	 	 	 	 	 	 	 	 	 	 	 	 	 	1581469874	8.97	16.61
12/02/2020 01:11:15	120220	12022020	011115	174.46	13.861183	-56.886920	174.68	0.360	-0.390	1.710	174.46	-1.80	2.40	 	 	 	 	 	 	 	 	 	 	 	 	 	 	 	 	 	 	1581469875	9.13	16.91
12/02/2020 01:11:16	120220	12022020	011116	175.08	13.861145	-56.886913	175.33	0.410	-0.250	1.280	175.08	-1.80	1.90	 	 	 	 	 	 	 	 	 	 	 	 	 	 	 	 	 	 	1581469876	8.47	15.69
12/02/2020 01:11:17	120220	12022020	011117	175.50	13.861108	-56.886908	175.69	0.270	-0.110	1.260	175.50	-1.60	1.80	 	 	 	 	 	 	 	 	 	 	 	 	 	 	 	 	 	 	1581469877	8.05	14.91
12/02/2020 01:11:18	120220	12022020	011118	175.57	13.861068	-56.886907	175.75	0.010	-0.370	1.580	175.57	-1.70	2.00	 	 	 	 	 	 	 	 	 	 	 	 	 	 	 	 	 	 	1581469878	8.55	15.83
12/02/2020 01:11:19	120220	12022020	011119	175.67	13.861027	-56.886908	175.91	-0.280	-0.690	2.020	175.67	-2.20	2.70	 	 	 	 	 	 	 	 	 	 	 	 	 	 	 	 	 	 	1581469879	8.88	16.45
12/02/2020 01:11:20	120220	12022020	011120	175.95	13.860987	-56.886912	176.19	-0.410	-0.640	2.200	175.95	-2.10	2.70	 	 	 	 	 	 	 	 	 	 	 	 	 	 	 	 	 	 	1581469880	8.70	16.11
12/02/2020 01:11:21	120220	12022020	011121	176.27	13.860948	-56.886912	176.52	-0.200	-0.300	1.880	176.27	-1.70	2.20	 	 	 	 	 	 	 	 	 	 	 	 	 	 	 	 	 	 	1581469881	8.28	15.33
12/02/2020 01:11:22	120220	12022020	011122	176.49	13.860908	-56.886907	176.71	0.190	-0.230	1.390	176.49	-1.60	2.00	 	 	 	 	 	 	 	 	 	 	 	 	 	 	 	 	 	 	1581469882	8.46	15.67
12/02/2020 01:11:23	120220	12022020	011123	176.51	13.860867	-56.886902	176.71	0.480	-0.580	1.220	176.51	-1.90	1.80	 	 	 	 	 	 	 	 	 	 	 	 	 	 	 	 	 	 	1581469883	9.12	16.89
12/02/2020 01:11:24	120220	12022020	011124	176.50	13.860823	-56.886897	176.73	0.420	-0.780	1.370	176.50	-2.20	1.90	 	 	 	 	 	 	 	 	 	 	 	 	 	 	 	 	 	 	1581469884	9.40	17.41
12/02/2020 01:11:25	120220	12022020	011125	176.94	13.860783	-56.886895	177.24	-0.100	-0.030	1.490	176.94	-1.70	2.00	 	 	 	 	 	 	 	 	 	 	 	 	 	 	 	 	 	 	1581469885	8.55	15.83
12/02/2020 01:11:26	120220	12022020	011126	177.80	13.860748	-56.886897	178.11	-0.740	1.050	1.580	177.80	-0.60	2.10	 	 	 	 	 	 	 	 	 	 	 	 	 	 	 	 	 	 	1581469886	7.56	14.00
12/02/2020 01:11:27	120220	12022020	011127	178.57	13.860712	-56.886900	178.86	-0.880	1.170	1.710	178.57	-0.20	2.20	 	 	 	 	 	 	 	 	 	 	 	 	 	 	 	 	 	 	1581469887	7.95	14.72
12/02/2020 01:11:28	120220	12022020	011128	178.90	13.860668	-56.886902	179.14	-0.200	-0.010	1.880	178.90	-1.10	2.40	 	 	 	 	 	 	 	 	 	 	 	 	 	 	 	 	 	 	1581469888	9.34	17.30
12/02/2020 01:11:29	120220	12022020	011129	179.06	13.860622	-56.886900	179.29	0.730	-1.320	1.730	179.06	-2.50	2.30	 	 	 	 	 	 	 	 	 	 	 	 	 	 	 	 	 	 	1581469889	10.07	18.65
12/02/2020 01:11:30	120220	12022020	011130	179.31	13.860578	-56.886897	179.54	1.030	-1.630	1.540	179.31	-3.10	2.10	 	 	 	 	 	 	 	 	 	 	 	 	 	 	 	 	 	 	1581469890	9.31	17.24
12/02/2020 01:11:31	120220	12022020	011131	179.49	13.860540	-56.886895	179.67	0.530	-1.070	1.510	179.49	-2.70	2.00	 	 	 	 	 	 	 	 	 	 	 	 	 	 	 	 	 	 	1581469891	8.28	15.33
12/02/2020 01:11:32	120220	12022020	011132	179.42	13.860502	-56.886897	179.54	-0.210	-0.370	1.700	179.38	-2.00	2.20	 	 	 	 	 	 	 	 	 	 	 	 	 	 	 	 	 	 	1581469892	8.12	15.04
12/02/2020 01:11:33	120220	12022020	011133	179.30	13.860463	-56.886900	179.50	-0.710	0.170	1.960	179.30	-1.40	2.40	 	 	 	 	 	 	 	 	 	 	 	 	 	 	 	 	 	 	1581469893	8.51	15.76
12/02/2020 01:11:34	120220	12022020	011134	179.66	13.860423	-56.886903	179.90	-0.790	0.610	1.840	179.66	-0.90	2.40	 	 	 	 	 	 	 	 	 	 	 	 	 	 	 	 	 	 	1581469894	8.67	16.06
12/02/2020 01:11:35	120220	12022020	011135	180.39	13.860382	-56.886905	180.66	-0.530	0.790	1.290	180.39	-0.70	1.90	 	 	 	 	 	 	 	 	 	 	 	 	 	 	 	 	 	 	1581469895	8.66	16.04
12/02/2020 01:11:36	120220	12022020	011136	181.17	13.860340	-56.886905	181.41	-0.110	0.470	0.800	181.17	-0.90	1.40	 	 	 	 	 	 	 	 	 	 	 	 	 	 	 	 	 	 	1581469896	8.93	16.54
12/02/2020 01:11:37	120220	12022020	011137	181.71	13.860298	-56.886903	181.93	0.270	-0.180	0.690	181.71	-1.50	1.20	 	 	 	 	 	 	 	 	 	 	 	 	 	 	 	 	 	 	1581469897	9.23	17.09
12/02/2020 01:11:38	120220	12022020	011138	182.09	13.860255	-56.886905	182.31	0.400	-0.660	0.880	182.09	-2.00	1.30	 	 	 	 	 	 	 	 	 	 	 	 	 	 	 	 	 	 	1581469898	9.09	16.83
12/02/2020 01:11:39	120220	12022020	011139	182.34	13.860215	-56.886908	182.53	0.290	-0.800	1.370	182.34	-2.20	1.70	 	 	 	 	 	 	 	 	 	 	 	 	 	 	 	 	 	 	1581469899	8.67	16.06
12/02/2020 01:11:40	120220	12022020	011140	182.25	13.860175	-56.886913	182.41	0.200	-0.830	1.950	182.25	-2.30	2.30	 	 	 	 	 	 	 	 	 	 	 	 	 	 	 	 	 	 	1581469900	8.64	16.00
12/02/2020 01:11:41	120220	12022020	011141	182.08	13.860135	-56.886917	182.30	0.230	-0.700	2.080	182.08	-2.20	2.60	 	 	 	 	 	 	 	 	 	 	 	 	 	 	 	 	 	 	1581469901	8.77	16.24
12/02/2020 01:11:42	120220	12022020	011142	182.23	13.860095	-56.886918	182.48	0.120	-0.370	1.830	182.23	-1.90	2.40	 	 	 	 	 	 	 	 	 	 	 	 	 	 	 	 	 	 	1581469902	8.58	15.89
12/02/2020 01:11:43	120220	12022020	011143	182.45	13.860055	-56.886920	182.66	-0.120	-0.210	1.690	182.45	-1.70	2.10	 	 	 	 	 	 	 	 	 	 	 	 	 	 	 	 	 	 	1581469903	8.67	16.06
12/02/2020 01:11:44	120220	12022020	011144	182.65	13.860013	-56.886923	182.90	-0.260	-0.270	1.480	182.65	-1.70	2.00	 	 	 	 	 	 	 	 	 	 	 	 	 	 	 	 	 	 	1581469904	9.06	16.78
12/02/2020 01:11:45	120220	12022020	011145	182.99	13.859970	-56.886925	183.25	-0.180	-0.220	1.220	182.99	-1.70	1.80	 	 	 	 	 	 	 	 	 	 	 	 	 	 	 	 	 	 	1581469905	9.14	16.93
12/02/2020 01:11:46	120220	12022020	011146	183.27	13.859930	-56.886928	183.59	0.030	0.060	1.080	183.34	-1.50	1.60	 	 	 	 	 	 	 	 	 	 	 	 	 	 	 	 	 	 	1581469906	8.90	16.48
12/02/2020 01:11:47	120220	12022020	011147	183.78	13.859888	-56.886928	184.03	0.170	0.360	1.060	183.78	-1.20	1.60	 	 	 	 	 	 	 	 	 	 	 	 	 	 	 	 	 	 	1581469907	8.70	16.11
12/02/2020 01:11:48	120220	12022020	011148	184.31	13.859848	-56.886932	184.57	0.020	0.430	1.270	184.31	-1.00	1.70	 	 	 	 	 	 	 	 	 	 	 	 	 	 	 	 	 	 	1581469908	8.67	16.06
12/02/2020 01:11:49	120220	12022020	011149	184.69	13.859808	-56.886938	184.96	-0.340	0.040	1.930	184.69	-1.30	2.20	 	 	 	 	 	 	 	 	 	 	 	 	 	 	 	 	 	 	1581469909	8.90	16.48
12/02/2020 01:11:50	120220	12022020	011150	184.76	13.859765	-56.886950	185.02	-0.500	-0.700	2.670	184.76	-2.00	3.00	 	 	 	 	 	 	 	 	 	 	 	 	 	 	 	 	 	 	1581469910	9.43	17.46
12/02/2020 01:11:51	120220	12022020	011151	184.70	13.859722	-56.886958	184.93	-0.200	-1.210	2.760	184.70	-2.60	3.30	 	 	 	 	 	 	 	 	 	 	 	 	 	 	 	 	 	 	1581469911	9.48	17.56
12/02/2020 01:11:52	120220	12022020	011152	184.62	13.859682	-56.886963	184.85	0.370	-1.040	2.380	184.62	-2.60	3.00	 	 	 	 	 	 	 	 	 	 	 	 	 	 	 	 	 	 	1581469912	8.93	16.54
12/02/2020 01:11:53	120220	12022020	011153	184.65	13.859642	-56.886965	184.90	0.740	-0.420	1.820	184.65	-2.00	2.50	 	 	 	 	 	 	 	 	 	 	 	 	 	 	 	 	 	 	1581469913	8.44	15.63
12/02/2020 01:11:54	120220	12022020	011154	184.87	13.859603	-56.886963	185.12	0.680	0.120	1.110	184.87	-1.40	1.80	 	 	 	 	 	 	 	 	 	 	 	 	 	 	 	 	 	 	1581469914	8.42	15.59
12/02/2020 01:11:55	120220	12022020	011155	185.13	13.859562	-56.886963	185.37	0.370	0.270	0.710	185.13	-1.20	1.30	 	 	 	 	 	 	 	 	 	 	 	 	 	 	 	 	 	 	1581469915	8.78	16.26
12/02/2020 01:11:56	120220	12022020	011156	185.50	13.859520	-56.886967	185.76	0.060	0.160	0.650	185.50	-1.30	1.10	 	 	 	 	 	 	 	 	 	 	 	 	 	 	 	 	 	 	1581469916	9.07	16.80
12/02/2020 01:11:57	120220	12022020	011157	185.94	13.859477	-56.886972	186.22	-0.170	-0.120	0.930	185.94	-1.70	1.60	 	 	 	 	 	 	 	 	 	 	 	 	 	 	 	 	 	 	1581469917	9.21	17.06
12/02/2020 01:11:58	120220	12022020	011158	186.47	13.859435	-56.886978	186.78	-0.380	-0.470	1.470	186.47	-1.80	1.80	 	 	 	 	 	 	 	 	 	 	 	 	 	 	 	 	 	 	1581469918	9.35	17.32
12/02/2020 01:11:59	120220	12022020	011159	187.14	13.859393	-56.886990	187.45	-0.570	-0.680	2.060	187.14	-2.10	2.40	 	 	 	 	 	 	 	 	 	 	 	 	 	 	 	 	 	 	1581469919	9.25	17.13
12/02/2020 01:12:00	120220	12022020	011200	187.68	13.859352	-56.887000	187.97	-0.620	-0.710	2.420	187.68	-2.20	2.90	 	 	 	 	 	 	 	 	 	 	 	 	 	 	 	 	 	 	1581469920	9.05	16.76
12/02/2020 01:12:01	120220	12022020	011201	187.96	13.859312	-56.887008	188.21	-0.390	-0.600	2.390	187.96	-2.10	2.90	 	 	 	 	 	 	 	 	 	 	 	 	 	 	 	 	 	 	1581469921	8.95	16.58
12/02/2020 01:12:02	120220	12022020	011202	188.11	13.859270	-56.887015	188.39	-0.050	-0.320	2.140	188.11	-1.80	2.70	1017.50	26.00	26.10	20.90	20.90	-1.0	73.0	73.0	389.0	25.7	270.00	10.20	65.00	11.20	16	8640.0	27.2	27.2	1581469922	8.88	16.45
12/02/2020 01:12:03	120220	12022020	011203	188.26	13.859230	-56.887020	188.51	0.200	0.040	1.670	188.26	-1.50	2.30	 	 	 	 	 	 	 	 	 	 	 	 	 	 	 	 	 	 	1581469923	8.75	16.21
12/02/2020 01:12:04	120220	12022020	011204	188.33	13.859188	-56.887023	188.54	0.350	0.280	1.120	188.33	-1.20	1.80	 	 	 	 	 	 	 	 	 	 	 	 	 	 	 	 	 	 	1581469924	8.76	16.22
12/02/2020 01:12:05	120220	12022020	011205	188.33	13.859147	-56.887025	188.55	0.480	0.240	0.780	188.33	-1.20	1.40	 	 	 	 	 	 	 	 	 	 	 	 	 	 	 	 	 	 	1581469925	9.00	16.67
12/02/2020 01:12:06	120220	12022020	011206	188.40	13.859105	-56.887030	188.62	0.480	-0.020	0.770	188.40	-1.40	1.30	 	 	 	 	 	 	 	 	 	 	 	 	 	 	 	 	 	 	1581469926	9.22	17.08
12/02/2020 01:12:07	120220	12022020	011207	188.53	13.859062	-56.887038	188.79	0.300	-0.290	1.190	188.53	-1.70	1.60	 	 	 	 	 	 	 	 	 	 	 	 	 	 	 	 	 	 	1581469927	9.27	17.17
12/02/2020 01:12:08	120220	12022020	011208	188.75	13.859022	-56.887048	189.04	0.040	-0.290	1.640	188.75	-1.80	2.10	 	 	 	 	 	 	 	 	 	 	 	 	 	 	 	 	 	 	1581469928	9.08	16.82
12/02/2020 01:12:09	120220	12022020	011209	189.19	13.858982	-56.887058	189.52	-0.120	-0.060	1.600	189.19	-1.50	2.00	 	 	 	 	 	 	 	 	 	 	 	 	 	 	 	 	 	 	1581469929	8.73	16.17
12/02/2020 01:12:10	120220	12022020	011210	189.91	13.858942	-56.887067	190.27	-0.140	-0.030	1.250	189.91	-1.50	1.80	 	 	 	 	 	 	 	 	 	 	 	 	 	 	 	 	 	 	1581469930	8.70	16.11
12/02/2020 01:12:11	120220	12022020	011211	190.75	13.858902	-56.887073	191.10	-0.100	-0.330	0.950	190.75	-2.00	1.40	 	 	 	 	 	 	 	 	 	 	 	 	 	 	 	 	 	 	1581469931	8.96	16.59
12/02/2020 01:12:12	120220	12022020	011212	191.27	13.858858	-56.887082	191.63	-0.110	-0.870	0.890	191.35	-2.20	1.40	 	 	 	 	 	 	 	 	 	 	 	 	 	 	 	 	 	 	1581469932	9.23	17.09
12/02/2020 01:12:13	120220	12022020	011213	191.51	13.858817	-56.887092	191.73	-0.160	-1.360	1.220	191.51	-2.70	1.60	 	 	 	 	 	 	 	 	 	 	 	 	 	 	 	 	 	 	1581469933	9.47	17.54
12/02/2020 01:12:14	120220	12022020	011214	191.34	13.858773	-56.887103	191.54	-0.140	-1.370	1.720	191.34	-2.90	2.10	 	 	 	 	 	 	 	 	 	 	 	 	 	 	 	 	 	 	1581469934	9.37	17.35
12/02/2020 01:12:15	120220	12022020	011215	191.23	13.858733	-56.887113	191.46	-0.100	-0.680	1.880	191.23	-2.40	2.40	 	 	 	 	 	 	 	 	 	 	 	 	 	 	 	 	 	 	1581469935	8.93	16.54
12/02/2020 01:12:16	120220	12022020	011216	191.37	13.858695	-56.887120	191.60	-0.130	0.360	1.660	191.37	-1.30	2.20	 	 	 	 	 	 	 	 	 	 	 	 	 	 	 	 	 	 	1581469936	8.42	15.59
12/02/2020 01:12:17	120220	12022020	011217	191.45	13.858655	-56.887127	191.64	-0.150	0.810	1.400	191.45	-0.70	2.00	 	 	 	 	 	 	 	 	 	 	 	 	 	 	 	 	 	 	1581469937	8.71	16.13
12/02/2020 01:12:18	120220	12022020	011218	191.33	13.858610	-56.887133	191.51	-0.050	0.390	1.240	191.33	-0.90	1.80	 	 	 	 	 	 	 	 	 	 	 	 	 	 	 	 	 	 	1581469938	9.72	18.00
12/02/2020 01:12:19	120220	12022020	011219	191.30	13.858565	-56.887143	191.52	0.070	-0.020	1.350	191.30	-1.40	1.80	 	 	 	 	 	 	 	 	 	 	 	 	 	 	 	 	 	 	1581469939	9.99	18.50
12/02/2020 01:12:20	120220	12022020	011220	191.65	13.858523	-56.887157	191.91	0.130	0.190	1.450	191.65	-1.40	1.90	 	 	 	 	 	 	 	 	 	 	 	 	 	 	 	 	 	 	1581469940	9.24	17.11
12/02/2020 01:12:21	120220	12022020	011221	192.19	13.858487	-56.887167	192.43	0.100	0.500	1.370	192.19	-1.00	1.90	 	 	 	 	 	 	 	 	 	 	 	 	 	 	 	 	 	 	1581469941	8.46	15.67
12/02/2020 01:12:22	120220	12022020	011222	192.49	13.858447	-56.887178	192.67	0.080	0.120	1.440	192.49	-1.20	1.90	 	 	 	 	 	 	 	 	 	 	 	 	 	 	 	 	 	 	1581469942	8.81	16.32
12/02/2020 01:12:23	120220	12022020	011223	192.56	13.858405	-56.887192	192.73	0.090	-0.740	1.720	192.56	-2.00	2.10	 	 	 	 	 	 	 	 	 	 	 	 	 	 	 	 	 	 	1581469943	9.45	17.50
12/02/2020 01:12:24	120220	12022020	011224	192.47	13.858362	-56.887207	192.58	0.050	-1.380	1.980	192.47	-2.70	2.40	 	 	 	 	 	 	 	 	 	 	 	 	 	 	 	 	 	 	1581469944	9.53	17.65
12/02/2020 01:12:25	120220	12022020	011225	192.14	13.858322	-56.887220	192.26	-0.040	-1.350	2.180	192.14	-2.90	2.60	 	 	 	 	 	 	 	 	 	 	 	 	 	 	 	 	 	 	1581469945	9.14	16.93
12/02/2020 01:12:26	120220	12022020	011226	192.01	13.858283	-56.887232	192.19	-0.130	-0.660	1.990	192.01	-2.30	2.60	 	 	 	 	 	 	 	 	 	 	 	 	 	 	 	 	 	 	1581469946	8.60	15.93
12/02/2020 01:12:27	120220	12022020	011227	192.34	13.858247	-56.887238	192.55	-0.120	0.200	1.460	192.34	-1.40	2.10	 	 	 	 	 	 	 	 	 	 	 	 	 	 	 	 	 	 	1581469947	8.26	15.30
12/02/2020 01:12:28	120220	12022020	011228	192.64	13.858207	-56.887245	192.79	0.090	0.420	1.020	192.64	-1.00	1.60	 	 	 	 	 	 	 	 	 	 	 	 	 	 	 	 	 	 	1581469948	8.73	16.17
12/02/2020 01:12:29	120220	12022020	011229	192.66	13.858162	-56.887253	192.80	0.390	-0.100	0.930	192.66	-1.40	1.40	 	 	 	 	 	 	 	 	 	 	 	 	 	 	 	 	 	 	1581469949	9.71	17.98
12/02/2020 01:12:30	120220	12022020	011230	192.70	13.858115	-56.887262	192.87	0.510	-0.650	1.140	192.70	-2.00	1.60	 	 	 	 	 	 	 	 	 	 	 	 	 	 	 	 	 	 	1581469950	10.02	18.56
12/02/2020 01:12:31	120220	12022020	011231	192.78	13.858072	-56.887272	192.94	0.300	-0.720	1.610	192.78	-2.20	2.00	 	 	 	 	 	 	 	 	 	 	 	 	 	 	 	 	 	 	1581469951	9.55	17.69
12/02/2020 01:12:32	120220	12022020	011232	192.64	13.858032	-56.887285	192.77	-0.130	-0.450	2.390	192.64	-2.00	2.70	 	 	 	 	 	 	 	 	 	 	 	 	 	 	 	 	 	 	1581469952	9.09	16.83
12/02/2020 01:12:33	120220	12022020	011233	192.19	13.857992	-56.887300	192.32	-0.640	-0.170	3.290	192.19	-1.50	4.00	 	 	 	 	 	 	 	 	 	 	 	 	 	 	 	 	 	 	1581469953	9.13	16.91
12/02/2020 01:12:34	120220	12022020	011234	191.86	13.857953	-56.887318	191.99	-1.070	0.060	3.800	191.81	-1.50	4.20	 	 	 	 	 	 	 	 	 	 	 	 	 	 	 	 	 	 	1581469954	9.35	17.32
12/02/2020 01:12:35	120220	12022020	011235	191.73	13.857913	-56.887338	191.95	-1.230	0.290	3.720	191.73	-1.10	4.00	 	 	 	 	 	 	 	 	 	 	 	 	 	 	 	 	 	 	1581469955	9.28	17.19
12/02/2020 01:12:36	120220	12022020	011236	191.85	13.857875	-56.887355	192.07	-0.850	0.360	3.040	191.85	-1.10	3.70	 	 	 	 	 	 	 	 	 	 	 	 	 	 	 	 	 	 	1581469956	9.14	16.93
12/02/2020 01:12:37	120220	12022020	011237	192.13	13.857833	-56.887367	192.35	0.110	0.200	1.760	192.13	-1.20	2.60	 	 	 	 	 	 	 	 	 	 	 	 	 	 	 	 	 	 	1581469957	9.14	16.93
12/02/2020 01:12:38	120220	12022020	011238	192.58	13.857790	-56.887368	192.77	1.170	-0.120	0.320	192.58	-1.50	1.10	 	 	 	 	 	 	 	 	 	 	 	 	 	 	 	 	 	 	1581469958	9.35	17.32
12/02/2020 01:12:39	120220	12022020	011239	193.00	13.857747	-56.887370	193.18	1.610	-0.540	-0.390	193.00	-1.90	0.20	 	 	 	 	 	 	 	 	 	 	 	 	 	 	 	 	 	 	1581469959	9.47	17.54
12/02/2020 01:12:40	120220	12022020	011240	193.14	13.857703	-56.887375	193.30	1.140	-0.940	-0.100	193.14	-2.30	0.20	 	 	 	 	 	 	 	 	 	 	 	 	 	 	 	 	 	 	1581469960	9.30	17.22
12/02/2020 01:12:41	120220	12022020	011241	192.94	13.857662	-56.887387	193.08	0.160	-1.140	0.890	192.94	-2.60	1.10	 	 	 	 	 	 	 	 	 	 	 	 	 	 	 	 	 	 	1581469961	9.23	17.09
12/02/2020 01:12:42	120220	12022020	011242	192.65	13.857623	-56.887405	192.80	-0.640	-0.900	1.970	192.65	-2.50	2.20	 	 	 	 	 	 	 	 	 	 	 	 	 	 	 	 	 	 	1581469962	9.22	17.08
12/02/2020 01:12:43	120220	12022020	011243	192.44	13.857585	-56.887423	192.61	-0.820	-0.400	2.650	192.44	-2.00	3.00	 	 	 	 	 	 	 	 	 	 	 	 	 	 	 	 	 	 	1581469963	9.05	16.76
12/02/2020 01:12:44	120220	12022020	011244	192.23	13.857545	-56.887438	192.40	-0.500	0.010	2.670	192.23	-1.50	3.20	 	 	 	 	 	 	 	 	 	 	 	 	 	 	 	 	 	 	1581469964	9.09	16.83
12/02/2020 01:12:45	120220	12022020	011245	192.10	13.857503	-56.887450	192.28	-0.100	0.260	2.190	192.10	-1.20	2.80	 	 	 	 	 	 	 	 	 	 	 	 	 	 	 	 	 	 	1581469965	9.21	17.06
12/02/2020 01:12:46	120220	12022020	011246	191.99	13.857462	-56.887458	192.14	0.060	0.350	1.620	191.99	-1.10	2.20	 	 	 	 	 	 	 	 	 	 	 	 	 	 	 	 	 	 	1581469966	9.21	17.06
12/02/2020 01:12:47	120220	12022020	011247	191.85	13.857420	-56.887467	191.98	-0.060	0.220	1.420	191.85	-1.30	1.90	 	 	 	 	 	 	 	 	 	 	 	 	 	 	 	 	 	 	1581469967	9.25	17.13
12/02/2020 01:12:48	120220	12022020	011248	191.76	13.857378	-56.887480	191.91	-0.310	-0.000	1.570	191.76	-1.40	2.00	 	 	 	 	 	 	 	 	 	 	 	 	 	 	 	 	 	 	1581469968	9.30	17.22
12/02/2020 01:12:49	120220	12022020	011249	191.86	13.857338	-56.887495	192.05	-0.430	-0.250	1.800	191.86	-1.60	2.20	 	 	 	 	 	 	 	 	 	 	 	 	 	 	 	 	 	 	1581469969	9.27	17.17
12/02/2020 01:12:50	120220	12022020	011250	192.03	13.857297	-56.887510	192.20	-0.110	-0.590	1.880	192.03	-1.90	2.40	 	 	 	 	 	 	 	 	 	 	 	 	 	 	 	 	 	 	1581469970	9.32	17.26
12/02/2020 01:12:51	120220	12022020	011251	192.02	13.857255	-56.887523	192.17	0.620	-0.990	1.680	192.02	-2.40	2.20	 	 	 	 	 	 	 	 	 	 	 	 	 	 	 	 	 	 	1581469971	9.50	17.59
12/02/2020 01:12:52	120220	12022020	011252	191.92	13.857212	-56.887530	192.06	1.170	-1.030	1.220	191.92	-2.50	1.80	 	 	 	 	 	 	 	 	 	 	 	 	 	 	 	 	 	 	1581469972	9.47	17.54
12/02/2020 01:12:53	120220	12022020	011253	191.88	13.857170	-56.887535	192.02	0.930	-0.560	0.860	191.88	-2.10	1.40	 	 	 	 	 	 	 	 	 	 	 	 	 	 	 	 	 	 	1581469973	9.01	16.69
12/02/2020 01:12:54	120220	12022020	011254	191.88	13.857130	-56.887542	192.02	0.050	-0.030	0.920	191.88	-1.60	1.40	 	 	 	 	 	 	 	 	 	 	 	 	 	 	 	 	 	 	1581469974	8.69	16.09
12/02/2020 01:12:55	120220	12022020	011255	191.86	13.857090	-56.887553	192.00	-0.820	0.100	1.420	191.86	-1.30	1.70	 	 	 	 	 	 	 	 	 	 	 	 	 	 	 	 	 	 	1581469975	9.10	16.85
12/02/2020 01:12:56	120220	12022020	011256	191.78	13.857047	-56.887572	191.95	-1.180	-0.120	2.280	191.78	-1.50	2.50	 	 	 	 	 	 	 	 	 	 	 	 	 	 	 	 	 	 	1581469976	9.75	18.06
12/02/2020 01:12:57	120220	12022020	011257	191.65	13.857005	-56.887590	191.83	-0.930	-0.220	2.990	191.65	-1.70	3.30	 	 	 	 	 	 	 	 	 	 	 	 	 	 	 	 	 	 	1581469977	9.94	18.41
12/02/2020 01:12:58	120220	12022020	011258	191.53	13.856965	-56.887607	191.72	-0.330	-0.020	3.070	191.53	-1.50	3.60	 	 	 	 	 	 	 	 	 	 	 	 	 	 	 	 	 	 	1581469978	9.52	17.63
12/02/2020 01:12:59	120220	12022020	011259	191.59	13.856923	-56.887618	191.81	0.250	0.330	2.440	191.59	-1.00	2.60	 	 	 	 	 	 	 	 	 	 	 	 	 	 	 	 	 	 	1581469979	9.03	16.72
12/02/2020 01:13:00	120220	12022020	011300	191.80	13.856883	-56.887623	192.04	0.590	0.460	1.540	191.85	-1.00	2.20	 	 	 	 	 	 	 	 	 	 	 	 	 	 	 	 	 	 	1581469980	8.88	16.45
12/02/2020 01:13:01	120220	12022020	011301	191.95	13.856840	-56.887628	192.10	0.650	0.010	1.060	191.95	-1.80	1.60	 	 	 	 	 	 	 	 	 	 	 	 	 	 	 	 	 	 	1581469981	9.21	17.06
12/02/2020 01:13:02	120220	12022020	011302	191.84	13.856797	-56.887638	191.95	0.500	-0.740	1.220	191.81	-2.00	1.60	1017.60	26.10	26.10	21.20	21.20	-1.0	74.0	74.0	389.0	25.7	259.00	9.90	67.00	11.70	16	8745.0	27.2	27.2	1581469982	9.65	17.87
12/02/2020 01:13:03	120220	12022020	011303	191.75	13.856753	-56.887652	191.92	0.200	-1.040	1.620	191.75	-2.50	2.00	 	 	 	 	 	 	 	 	 	 	 	 	 	 	 	 	 	 	1581469983	9.49	17.58
12/02/2020 01:13:04	120220	12022020	011304	191.92	13.856717	-56.887667	192.12	-0.080	-0.610	1.870	191.92	-2.20	2.30	 	 	 	 	 	 	 	 	 	 	 	 	 	 	 	 	 	 	1581469984	8.81	16.32
12/02/2020 01:13:05	120220	12022020	011305	192.21	13.856678	-56.887678	192.39	-0.080	-0.090	1.750	192.21	-1.60	2.30	 	 	 	 	 	 	 	 	 	 	 	 	 	 	 	 	 	 	1581469985	8.38	15.52
12/02/2020 01:13:06	120220	12022020	011306	192.27	13.856638	-56.887688	192.42	0.200	-0.260	1.600	192.27	-1.60	2.10	 	 	 	 	 	 	 	 	 	 	 	 	 	 	 	 	 	 	1581469986	9.06	16.78
12/02/2020 01:13:07	120220	12022020	011307	192.23	13.856593	-56.887697	192.40	0.420	-0.710	1.590	192.23	-2.10	2.10	 	 	 	 	 	 	 	 	 	 	 	 	 	 	 	 	 	 	1581469987	9.82	18.19
12/02/2020 01:13:08	120220	12022020	011308	192.33	13.856550	-56.887708	192.52	0.260	-0.780	1.670	192.33	-2.30	2.10	 	 	 	 	 	 	 	 	 	 	 	 	 	 	 	 	 	 	1581469988	9.67	17.91
12/02/2020 01:13:09	120220	12022020	011309	192.51	13.856508	-56.887720	192.69	-0.160	-0.400	1.810	192.51	-1.70	2.40	 	 	 	 	 	 	 	 	 	 	 	 	 	 	 	 	 	 	1581469989	9.14	16.93
12/02/2020 01:13:10	120220	12022020	011310	192.50	13.856468	-56.887732	192.65	-0.470	-0.120	2.170	192.50	-1.60	2.50	 	 	 	 	 	 	 	 	 	 	 	 	 	 	 	 	 	 	1581469990	9.12	16.89
12/02/2020 01:13:11	120220	12022020	011311	192.33	13.856425	-56.887747	192.48	-0.550	-0.140	2.580	192.33	-1.60	3.00	 	 	 	 	 	 	 	 	 	 	 	 	 	 	 	 	 	 	1581469991	9.60	17.78
12/02/2020 01:13:12	120220	12022020	011312	192.26	13.856383	-56.887760	192.45	-0.580	-0.060	2.670	192.26	-1.50	3.20	 	 	 	 	 	 	 	 	 	 	 	 	 	 	 	 	 	 	1581469992	9.64	17.85
12/02/2020 01:13:13	120220	12022020	011313	192.34	13.856342	-56.887773	192.53	-0.590	0.250	2.330	192.34	-1.30	2.90	 	 	 	 	 	 	 	 	 	 	 	 	 	 	 	 	 	 	1581469993	9.22	17.08
12/02/2020 01:13:14	120220	12022020	011314	192.40	13.856302	-56.887787	192.57	-0.340	0.400	1.760	192.40	-1.00	2.40	 	 	 	 	 	 	 	 	 	 	 	 	 	 	 	 	 	 	1581469994	9.06	16.78
12/02/2020 01:13:15	120220	12022020	011315	192.49	13.856260	-56.887795	192.65	0.290	0.180	1.010	192.49	-1.20	1.70	 	 	 	 	 	 	 	 	 	 	 	 	 	 	 	 	 	 	1581469995	9.29	17.21
12/02/2020 01:13:16	120220	12022020	011316	192.62	13.856215	-56.887802	192.78	0.890	-0.220	0.600	192.62	-1.60	1.10	 	 	 	 	 	 	 	 	 	 	 	 	 	 	 	 	 	 	1581469996	9.55	17.69
12/02/2020 01:13:17	120220	12022020	011317	192.71	13.856173	-56.887810	192.85	0.950	-0.480	0.750	192.71	-1.90	1.10	 	 	 	 	 	 	 	 	 	 	 	 	 	 	 	 	 	 	1581469997	9.37	17.35
12/02/2020 01:13:18	120220	12022020	011318	192.64	13.856132	-56.887822	192.75	0.460	-0.440	1.280	192.64	-1.90	1.60	 	 	 	 	 	 	 	 	 	 	 	 	 	 	 	 	 	 	1581469998	9.01	16.69
12/02/2020 01:13:19	120220	12022020	011319	192.42	13.856093	-56.887837	192.52	-0.100	-0.350	2.030	192.42	-1.80	2.30	 	 	 	 	 	 	 	 	 	 	 	 	 	 	 	 	 	 	1581469999	8.96	16.59
12/02/2020 01:13:20	120220	12022020	011320	192.27	13.856053	-56.887853	192.40	-0.260	-0.470	2.500	192.27	-1.90	2.90	 	 	 	 	 	 	 	 	 	 	 	 	 	 	 	 	 	 	1581470000	9.28	17.19
12/02/2020 01:13:21	120220	12022020	011321	192.23	13.856010	-56.887867	192.38	-0.020	-0.680	2.420	192.23	-2.10	2.90	 	 	 	 	 	 	 	 	 	 	 	 	 	 	 	 	 	 	1581470001	9.53	17.65
12/02/2020 01:13:22	120220	12022020	011322	192.23	13.855967	-56.887877	192.36	0.180	-0.760	2.110	192.23	-2.20	2.60	 	 	 	 	 	 	 	 	 	 	 	 	 	 	 	 	 	 	1581470002	9.54	17.67
12/02/2020 01:13:23	120220	12022020	011323	192.12	13.855925	-56.887887	192.25	0.010	-0.660	1.970	192.12	-2.00	2.40	 	 	 	 	 	 	 	 	 	 	 	 	 	 	 	 	 	 	1581470003	9.43	17.46
12/02/2020 01:13:24	120220	12022020	011324	192.08	13.855883	-56.887900	192.23	-0.430	-0.310	1.970	192.08	-1.80	2.40	 	 	 	 	 	 	 	 	 	 	 	 	 	 	 	 	 	 	1581470004	9.27	17.17
12/02/2020 01:13:25	120220	12022020	011325	192.28	13.855843	-56.887913	192.46	-0.710	0.150	2.020	192.28	-1.20	2.50	 	 	 	 	 	 	 	 	 	 	 	 	 	 	 	 	 	 	1581470005	9.06	16.78
12/02/2020 01:13:26	120220	12022020	011326	192.54	13.855803	-56.887928	192.74	-0.480	0.310	2.030	192.58	-1.10	2.50	 	 	 	 	 	 	 	 	 	 	 	 	 	 	 	 	 	 	1581470006	9.14	16.93
12/02/2020 01:13:27	120220	12022020	011327	192.62	13.855760	-56.887940	192.75	0.190	-0.040	2.040	192.62	-1.40	2.50	 	 	 	 	 	 	 	 	 	 	 	 	 	 	 	 	 	 	1581470007	9.64	17.85
12/02/2020 01:13:28	120220	12022020	011328	192.51	13.855715	-56.887950	192.65	0.700	-0.400	2.000	192.51	-1.80	2.50	 	 	 	 	 	 	 	 	 	 	 	 	 	 	 	 	 	 	1581470008	9.92	18.37
12/02/2020 01:13:29	120220	12022020	011329	192.58	13.855673	-56.887960	192.74	0.580	-0.270	1.920	192.58	-1.80	2.40	 	 	 	 	 	 	 	 	 	 	 	 	 	 	 	 	 	 	1581470009	9.38	17.37
12/02/2020 01:13:30	120220	12022020	011330	192.60	13.855633	-56.887970	192.71	0.030	-0.040	2.010	192.60	-1.50	2.40	 	 	 	 	 	 	 	 	 	 	 	 	 	 	 	 	 	 	1581470010	8.87	16.43
12/02/2020 01:13:31	120220	12022020	011331	192.29	13.855592	-56.887983	192.37	-0.350	-0.260	2.380	192.29	-1.60	2.70	 	 	 	 	 	 	 	 	 	 	 	 	 	 	 	 	 	 	1581470011	9.35	17.32
12/02/2020 01:13:32	120220	12022020	011332	191.89	13.855548	-56.887998	192.02	-0.270	-0.560	2.690	191.89	-1.90	3.10	 	 	 	 	 	 	 	 	 	 	 	 	 	 	 	 	 	 	1581470012	9.88	18.30
12/02/2020 01:13:33	120220	12022020	011333	191.86	13.855505	-56.888012	192.06	0.010	-0.360	2.490	191.86	-1.90	3.10	 	 	 	 	 	 	 	 	 	 	 	 	 	 	 	 	 	 	1581470013	9.51	17.61
12/02/2020 01:13:34	120220	12022020	011334	192.29	13.855465	-56.888022	192.52	0.120	0.130	1.830	192.29	-1.40	2.50	 	 	 	 	 	 	 	 	 	 	 	 	 	 	 	 	 	 	1581470014	8.89	16.46
12/02/2020 01:13:35	120220	12022020	011335	192.88	13.855425	-56.888032	193.08	-0.020	0.310	1.270	192.88	-1.10	1.80	 	 	 	 	 	 	 	 	 	 	 	 	 	 	 	 	 	 	1581470015	8.83	16.35
12/02/2020 01:13:36	120220	12022020	011336	193.37	13.855383	-56.888042	193.57	-0.170	-0.050	1.100	193.37	-1.40	1.60	 	 	 	 	 	 	 	 	 	 	 	 	 	 	 	 	 	 	1581470016	9.28	17.19
12/02/2020 01:13:37	120220	12022020	011337	193.70	13.855342	-56.888055	193.86	-0.130	-0.600	1.150	193.70	-2.20	1.70	 	 	 	 	 	 	 	 	 	 	 	 	 	 	 	 	 	 	1581470017	9.56	17.71
12/02/2020 01:13:38	120220	12022020	011338	193.75	13.855298	-56.888068	193.88	0.130	-0.960	1.390	193.75	-2.30	1.80	 	 	 	 	 	 	 	 	 	 	 	 	 	 	 	 	 	 	1581470018	9.50	17.59
12/02/2020 01:13:39	120220	12022020	011339	193.48	13.855257	-56.888080	193.58	0.480	-1.040	1.790	193.48	-2.50	2.20	 	 	 	 	 	 	 	 	 	 	 	 	 	 	 	 	 	 	1581470019	9.39	17.39
12/02/2020 01:13:40	120220	12022020	011340	192.97	13.855215	-56.888092	193.06	0.640	-0.810	2.170	192.97	-2.30	2.60	 	 	 	 	 	 	 	 	 	 	 	 	 	 	 	 	 	 	1581470020	9.31	17.24
12/02/2020 01:13:41	120220	12022020	011341	192.46	13.855173	-56.888103	192.59	0.430	-0.460	2.290	192.46	-2.00	2.80	 	 	 	 	 	 	 	 	 	 	 	 	 	 	 	 	 	 	1581470021	9.38	17.37
12/02/2020 01:13:42	120220	12022020	011342	192.25	13.855130	-56.888115	192.44	-0.070	0.050	2.210	192.25	-1.50	2.70	 	 	 	 	 	 	 	 	 	 	 	 	 	 	 	 	 	 	1581470022	9.39	17.39
12/02/2020 01:13:43	120220	12022020	011343	192.52	13.855090	-56.888127	192.77	-0.600	0.700	1.930	192.52	-0.90	2.50	 	 	 	 	 	 	 	 	 	 	 	 	 	 	 	 	 	 	1581470023	9.08	16.82
12/02/2020 01:13:44	120220	12022020	011344	193.13	13.855050	-56.888140	193.37	-0.880	0.940	1.560	193.13	-0.50	2.10	 	 	 	 	 	 	 	 	 	 	 	 	 	 	 	 	 	 	1581470024	9.03	16.72
12/02/2020 01:13:45	120220	12022020	011345	193.68	13.855007	-56.888155	193.89	-0.720	0.290	1.390	193.68	-0.90	1.90	 	 	 	 	 	 	 	 	 	 	 	 	 	 	 	 	 	 	1581470025	9.68	17.93
12/02/2020 01:13:46	120220	12022020	011346	193.95	13.854962	-56.888172	194.12	-0.180	-0.780	1.480	193.95	-2.00	1.90	 	 	 	 	 	 	 	 	 	 	 	 	 	 	 	 	 	 	1581470026	10.35	19.17
12/02/2020 01:13:47	120220	12022020	011347	193.99	13.854918	-56.888185	194.14	0.320	-1.220	1.610	193.99	-2.60	2.00	 	 	 	 	 	 	 	 	 	 	 	 	 	 	 	 	 	 	1581470027	9.98	18.48
12/02/2020 01:13:48	120220	12022020	011348	193.94	13.854878	-56.888197	194.09	0.380	-0.750	1.710	193.94	-2.40	2.20	 	 	 	 	 	 	 	 	 	 	 	 	 	 	 	 	 	 	1581470028	8.93	16.54
12/02/2020 01:13:49	120220	12022020	011349	193.87	13.854840	-56.888208	194.02	0.100	-0.060	1.670	193.87	-1.30	2.10	 	 	 	 	 	 	 	 	 	 	 	 	 	 	 	 	 	 	1581470029	8.40	15.56
12/02/2020 01:13:50	120220	12022020	011350	193.72	13.854800	-56.888218	193.86	-0.130	0.200	1.490	193.72	-1.30	2.00	 	 	 	 	 	 	 	 	 	 	 	 	 	 	 	 	 	 	1581470030	8.77	16.24
12/02/2020 01:13:51	120220	12022020	011351	193.43	13.854758	-56.888230	193.54	-0.010	-0.080	1.350	193.43	-1.70	1.80	 	 	 	 	 	 	 	 	 	 	 	 	 	 	 	 	 	 	1581470031	9.46	17.52
12/02/2020 01:13:52	120220	12022020	011352	193.06	13.854713	-56.888242	193.17	0.290	-0.500	1.330	193.06	-1.80	1.80	 	 	 	 	 	 	 	 	 	 	 	 	 	 	 	 	 	 	1581470032	9.93	18.39
12/02/2020 01:13:53	120220	12022020	011353	192.83	13.854670	-56.888255	192.98	0.460	-0.580	1.470	192.83	-2.00	1.90	 	 	 	 	 	 	 	 	 	 	 	 	 	 	 	 	 	 	1581470033	9.81	18.17
12/02/2020 01:13:54	120220	12022020	011354	192.90	13.854628	-56.888270	193.09	0.380	-0.140	1.630	192.90	-1.70	2.10	 	 	 	 	 	 	 	 	 	 	 	 	 	 	 	 	 	 	1581470034	9.26	17.15
12/02/2020 01:13:55	120220	12022020	011355	193.26	13.854590	-56.888282	193.47	0.140	0.400	1.710	193.26	-1.10	2.20	 	 	 	 	 	 	 	 	 	 	 	 	 	 	 	 	 	 	1581470035	8.79	16.28
12/02/2020 01:13:56	120220	12022020	011356	193.66	13.854550	-56.888295	193.86	-0.100	0.420	1.850	193.66	-0.90	2.30	 	 	 	 	 	 	 	 	 	 	 	 	 	 	 	 	 	 	1581470036	8.94	16.56
12/02/2020 01:13:57	120220	12022020	011357	193.78	13.854508	-56.888310	193.94	-0.230	-0.250	2.270	193.78	-1.50	2.60	 	 	 	 	 	 	 	 	 	 	 	 	 	 	 	 	 	 	1581470037	9.61	17.80
12/02/2020 01:13:58	120220	12022020	011358	193.55	13.854465	-56.888327	193.69	-0.300	-1.040	2.810	193.55	-2.30	3.10	 	 	 	 	 	 	 	 	 	 	 	 	 	 	 	 	 	 	1581470038	10.06	18.63
12/02/2020 01:13:59	120220	12022020	011359	193.25	13.854422	-56.888345	193.42	-0.400	-1.230	3.170	193.25	-2.70	3.60	 	 	 	 	 	 	 	 	 	 	 	 	 	 	 	 	 	 	1581470039	9.77	18.09
12/02/2020 01:14:00	120220	12022020	011400	193.01	13.854383	-56.888362	193.16	-0.390	-0.820	3.180	193.01	-2.40	3.70	 	 	 	 	 	 	 	 	 	 	 	 	 	 	 	 	 	 	1581470040	9.14	16.93
12/02/2020 01:14:01	120220	12022020	011401	192.64	13.854343	-56.888373	192.76	-0.060	-0.400	2.940	192.64	-1.90	3.50	 	 	 	 	 	 	 	 	 	 	 	 	 	 	 	 	 	 	1581470041	9.06	16.78
12/02/2020 01:14:02	120220	12022020	011402	192.40	13.854300	-56.888383	192.56	0.360	-0.090	2.440	192.39	-1.60	3.00	1017.60	26.00	26.00	21.10	21.10	-1.0	74.0	74.0	389.0	25.7	262.00	10.80	72.00	12.40	16	8573.0	27.2	27.2	1581470042	9.42	17.45
12/02/2020 01:14:03	120220	12022020	011403	192.63	13.854257	-56.888390	192.87	0.460	0.380	1.760	192.63	-1.20	2.40	 	 	 	 	 	 	 	 	 	 	 	 	 	 	 	 	 	 	1581470043	9.27	17.17
12/02/2020 01:14:04	120220	12022020	011404	193.26	13.854217	-56.888397	193.50	0.230	0.800	1.110	193.26	-0.70	1.70	 	 	 	 	 	 	 	 	 	 	 	 	 	 	 	 	 	 	1581470044	8.87	16.43
12/02/2020 01:14:05	120220	12022020	011405	193.82	13.854175	-56.888407	194.02	0.010	0.440	1.060	193.82	-0.80	1.50	 	 	 	 	 	 	 	 	 	 	 	 	 	 	 	 	 	 	1581470045	9.14	16.93
12/02/2020 01:14:06	120220	12022020	011406	193.88	13.854130	-56.888420	194.02	0.090	-0.750	1.820	193.88	-1.90	2.00	 	 	 	 	 	 	 	 	 	 	 	 	 	 	 	 	 	 	1581470046	10.17	18.83
12/02/2020 01:14:07	120220	12022020	011407	193.58	13.854085	-56.888440	193.74	0.190	-1.610	3.000	193.58	-2.90	3.20	 	 	 	 	 	 	 	 	 	 	 	 	 	 	 	 	 	 	1581470047	10.50	19.45
12/02/2020 01:14:08	120220	12022020	011408	193.20	13.854043	-56.888458	193.38	0.050	-1.300	3.900	193.20	-2.90	4.20	 	 	 	 	 	 	 	 	 	 	 	 	 	 	 	 	 	 	1581470048	9.65	17.87
12/02/2020 01:14:09	120220	12022020	011409	192.92	13.854007	-56.888477	193.12	-0.230	-0.230	4.060	192.92	-1.90	4.50	 	 	 	 	 	 	 	 	 	 	 	 	 	 	 	 	 	 	1581470049	8.67	16.06
12/02/2020 01:14:10	120220	12022020	011410	192.82	13.853970	-56.888490	193.04	-0.390	0.670	3.560	192.82	-0.90	4.20	 	 	 	 	 	 	 	 	 	 	 	 	 	 	 	 	 	 	1581470050	8.51	15.76
12/02/2020 01:14:11	120220	12022020	011411	192.97	13.853930	-56.888500	193.20	-0.290	0.960	2.500	192.97	-0.50	3.30	 	 	 	 	 	 	 	 	 	 	 	 	 	 	 	 	 	 	1581470051	8.94	16.56
12/02/2020 01:14:12	120220	12022020	011412	193.50	13.853887	-56.888507	193.73	-0.070	0.680	1.170	193.50	-0.60	1.90	 	 	 	 	 	 	 	 	 	 	 	 	 	 	 	 	 	 	1581470052	9.30	17.22
12/02/2020 01:14:13	120220	12022020	011413	194.09	13.853843	-56.888515	194.28	0.150	-0.080	0.290	194.09	-1.90	0.70	 	 	 	 	 	 	 	 	 	 	 	 	 	 	 	 	 	 	1581470053	9.55	17.69
12/02/2020 01:14:14	120220	12022020	011414	194.31	13.853798	-56.888525	194.45	0.380	-1.080	0.210	194.31	-2.30	0.70	 	 	 	 	 	 	 	 	 	 	 	 	 	 	 	 	 	 	1581470054	9.83	18.21
12/02/2020 01:14:15	120220	12022020	011415	194.18	13.853755	-56.888537	194.30	0.580	-1.720	0.590	194.18	-3.00	0.90	 	 	 	 	 	 	 	 	 	 	 	 	 	 	 	 	 	 	1581470055	9.82	18.19
12/02/2020 01:14:16	120220	12022020	011416	193.77	13.853713	-56.888550	193.88	0.590	-1.600	1.320	193.77	-3.10	1.60	 	 	 	 	 	 	 	 	 	 	 	 	 	 	 	 	 	 	1581470056	9.37	17.35
12/02/2020 01:14:17	120220	12022020	011417	193.28	13.853673	-56.888563	193.40	0.290	-0.950	2.130	193.28	-2.50	2.40	 	 	 	 	 	 	 	 	 	 	 	 	 	 	 	 	 	 	1581470057	9.08	16.82
12/02/2020 01:14:18	120220	12022020	011418	192.89	13.853633	-56.888578	193.05	-0.250	-0.270	2.800	192.89	-1.80	3.10	 	 	 	 	 	 	 	 	 	 	 	 	 	 	 	 	 	 	1581470058	9.20	17.04
12/02/2020 01:14:19	120220	12022020	011419	192.69	13.853592	-56.888597	192.89	-0.790	0.140	3.230	192.69	-1.30	3.60	 	 	 	 	 	 	 	 	 	 	 	 	 	 	 	 	 	 	1581470059	9.67	17.91
12/02/2020 01:14:20	120220	12022020	011420	192.78	13.853550	-56.888615	193.02	-1.090	0.480	3.220	192.78	-1.00	3.70	 	 	 	 	 	 	 	 	 	 	 	 	 	 	 	 	 	 	1581470060	9.88	18.30
12/02/2020 01:14:21	120220	12022020	011421	193.21	13.853508	-56.888632	193.47	-1.030	1.020	2.700	193.21	-0.50	3.30	 	 	 	 	 	 	 	 	 	 	 	 	 	 	 	 	 	 	1581470061	9.38	17.37
12/02/2020 01:14:22	120220	12022020	011422	193.82	13.853468	-56.888645	194.05	-0.550	1.270	1.810	193.82	-0.20	2.50	 	 	 	 	 	 	 	 	 	 	 	 	 	 	 	 	 	 	1581470062	8.98	16.63
12/02/2020 01:14:23	120220	12022020	011423	194.31	13.853427	-56.888653	194.50	0.200	0.790	0.940	194.31	-0.40	1.60	 	 	 	 	 	 	 	 	 	 	 	 	 	 	 	 	 	 	1581470063	9.32	17.26
12/02/2020 01:14:24	120220	12022020	011424	194.67	13.853382	-56.888660	194.86	0.820	-0.070	0.370	194.67	-1.30	0.90	 	 	 	 	 	 	 	 	 	 	 	 	 	 	 	 	 	 	1581470064	9.68	17.93
12/02/2020 01:14:25	120220	12022020	011425	194.88	13.853338	-56.888668	195.03	1.010	-0.830	0.300	194.88	-2.10	0.70	 	 	 	 	 	 	 	 	 	 	 	 	 	 	 	 	 	 	1581470065	9.42	17.45
12/02/2020 01:14:26	120220	12022020	011426	194.62	13.853297	-56.888680	194.71	0.950	-1.470	0.780	194.62	-2.70	1.10	 	 	 	 	 	 	 	 	 	 	 	 	 	 	 	 	 	 	1581470066	9.26	17.15
12/02/2020 01:14:27	120220	12022020	011427	193.82	13.853255	-56.888695	193.87	0.820	-1.900	1.870	193.82	-3.30	2.80	 	 	 	 	 	 	 	 	 	 	 	 	 	 	 	 	 	 	1581470067	9.55	17.69
12/02/2020 01:14:28	120220	12022020	011428	192.96	13.853213	-56.888710	193.08	0.470	-1.670	2.890	192.96	-3.20	3.10	 	 	 	 	 	 	 	 	 	 	 	 	 	 	 	 	 	 	1581470068	9.57	17.72
12/02/2020 01:14:29	120220	12022020	011429	192.65	13.853175	-56.888728	192.87	-0.260	-0.810	3.450	192.65	-2.50	3.80	 	 	 	 	 	 	 	 	 	 	 	 	 	 	 	 	 	 	1581470069	9.18	17.00
12/02/2020 01:14:30	120220	12022020	011430	192.82	13.853137	-56.888747	193.10	-1.130	0.170	3.670	192.82	-1.50	4.10	 	 	 	 	 	 	 	 	 	 	 	 	 	 	 	 	 	 	1581470070	9.07	16.80
12/02/2020 01:14:31	120220	12022020	011431	193.41	13.853098	-56.888767	193.71	-1.670	0.880	3.400	193.41	-0.70	4.00	 	 	 	 	 	 	 	 	 	 	 	 	 	 	 	 	 	 	1581470071	9.22	17.08
12/02/2020 01:14:32	120220	12022020	011432	194.26	13.853058	-56.888783	194.56	-1.450	1.150	2.550	194.26	-0.30	3.30	 	 	 	 	 	 	 	 	 	 	 	 	 	 	 	 	 	 	1581470072	9.28	17.19
12/02/2020 01:14:33	120220	12022020	011433	194.99	13.853015	-56.888795	195.24	-0.430	0.620	1.380	194.99	-0.60	2.10	 	 	 	 	 	 	 	 	 	 	 	 	 	 	 	 	 	 	1581470073	9.76	18.08
12/02/2020 01:14:34	120220	12022020	011434	195.44	13.852967	-56.888803	195.63	0.780	-0.250	0.450	195.44	-1.50	1.10	 	 	 	 	 	 	 	 	 	 	 	 	 	 	 	 	 	 	1581470074	10.32	19.11
12/02/2020 01:14:35	120220	12022020	011435	195.62	13.852922	-56.888808	195.77	1.350	-0.640	0.200	195.62	-2.00	0.70	 	 	 	 	 	 	 	 	 	 	 	 	 	 	 	 	 	 	1581470075	9.87	18.28
12/02/2020 01:14:36	120220	12022020	011436	195.34	13.852880	-56.888817	195.45	1.010	-0.580	0.600	195.34	-2.00	0.90	 	 	 	 	 	 	 	 	 	 	 	 	 	 	 	 	 	 	1581470076	9.09	16.83
12/02/2020 01:14:37	120220	12022020	011437	194.65	13.852840	-56.888828	194.74	0.180	-0.580	1.540	194.65	-2.00	1.80	 	 	 	 	 	 	 	 	 	 	 	 	 	 	 	 	 	 	1581470077	9.05	16.76
12/02/2020 01:14:38	120220	12022020	011438	193.89	13.852800	-56.888848	193.99	-0.490	-0.690	2.540	193.89	-2.10	2.80	 	 	 	 	 	 	 	 	 	 	 	 	 	 	 	 	 	 	1581470078	9.57	17.72
12/02/2020 01:14:39	120220	12022020	011439	193.21	13.852760	-56.888872	193.32	-0.590	-0.590	3.160	193.21	-1.90	3.70	 	 	 	 	 	 	 	 	 	 	 	 	 	 	 	 	 	 	1581470079	9.74	18.04
12/02/2020 01:14:40	120220	12022020	011440	192.71	13.852720	-56.888890	192.87	-0.230	-0.220	3.160	192.71	-1.80	3.70	 	 	 	 	 	 	 	 	 	 	 	 	 	 	 	 	 	 	1581470080	9.45	17.50
12/02/2020 01:14:41	120220	12022020	011441	192.64	13.852680	-56.888903	192.87	0.120	0.300	2.560	192.64	-0.90	2.70	 	 	 	 	 	 	 	 	 	 	 	 	 	 	 	 	 	 	1581470081	9.04	16.74
12/02/2020 01:14:42	120220	12022020	011442	193.05	13.852640	-56.888913	193.30	0.160	0.660	1.830	193.05	-0.80	2.50	 	 	 	 	 	 	 	 	 	 	 	 	 	 	 	 	 	 	1581470082	8.81	16.32
12/02/2020 01:14:43	120220	12022020	011443	193.67	13.852600	-56.888925	193.92	0.020	0.550	1.280	193.67	-0.80	1.90	 	 	 	 	 	 	 	 	 	 	 	 	 	 	 	 	 	 	1581470083	8.94	16.56
12/02/2020 01:14:44	120220	12022020	011444	194.34	13.852558	-56.888937	194.57	0.050	0.010	0.930	194.34	-1.30	1.50	 	 	 	 	 	 	 	 	 	 	 	 	 	 	 	 	 	 	1581470084	9.25	17.13
12/02/2020 01:14:45	120220	12022020	011445	194.78	13.852517	-56.888948	194.96	0.350	-0.790	0.910	194.78	-2.00	1.40	 	 	 	 	 	 	 	 	 	 	 	 	 	 	 	 	 	 	1581470085	9.51	17.61
12/02/2020 01:14:46	120220	12022020	011446	194.81	13.852473	-56.888960	194.96	0.650	-1.560	1.310	194.81	-2.80	1.60	 	 	 	 	 	 	 	 	 	 	 	 	 	 	 	 	 	 	1581470086	9.73	18.02
12/02/2020 01:14:47	120220	12022020	011447	194.37	13.852430	-56.888973	194.46	0.640	-1.900	2.080	194.37	-3.30	2.30	 	 	 	 	 	 	 	 	 	 	 	 	 	 	 	 	 	 	1581470087	9.69	17.95
12/02/2020 01:14:48	120220	12022020	011448	193.51	13.852388	-56.888988	193.59	0.290	-1.520	2.940	193.51	-3.10	3.20	 	 	 	 	 	 	 	 	 	 	 	 	 	 	 	 	 	 	1581470088	9.41	17.43
12/02/2020 01:14:49	120220	12022020	011449	192.64	13.852348	-56.889002	192.76	-0.290	-0.490	3.570	192.64	-2.20	3.90	 	 	 	 	 	 	 	 	 	 	 	 	 	 	 	 	 	 	1581470089	9.06	16.78
12/02/2020 01:14:50	120220	12022020	011450	192.06	13.852310	-56.889018	192.23	-0.890	0.550	3.820	192.06	-1.10	4.30	 	 	 	 	 	 	 	 	 	 	 	 	 	 	 	 	 	 	1581470090	8.97	16.61
12/02/2020 01:14:51	120220	12022020	011451	191.81	13.852268	-56.889035	192.00	-1.160	0.950	3.780	191.81	-0.50	4.30	 	 	 	 	 	 	 	 	 	 	 	 	 	 	 	 	 	 	1581470091	9.52	17.63
12/02/2020 01:14:52	120220	12022020	011452	191.88	13.852225	-56.889053	192.13	-0.900	0.900	3.390	191.88	-0.50	4.00	 	 	 	 	 	 	 	 	 	 	 	 	 	 	 	 	 	 	1581470092	9.97	18.46
12/02/2020 01:14:53	120220	12022020	011453	192.31	13.852183	-56.889067	192.59	-0.250	0.790	2.630	192.31	-0.60	3.30	 	 	 	 	 	 	 	 	 	 	 	 	 	 	 	 	 	 	1581470093	9.68	17.93
12/02/2020 01:14:54	120220	12022020	011454	192.93	13.852140	-56.889077	193.21	0.440	0.600	1.720	192.93	-0.80	2.40	 	 	 	 	 	 	 	 	 	 	 	 	 	 	 	 	 	 	1581470094	9.24	17.11
12/02/2020 01:14:55	120220	12022020	011455	193.50	13.852098	-56.889083	193.75	0.870	0.120	1.040	193.50	-1.20	1.60	 	 	 	 	 	 	 	 	 	 	 	 	 	 	 	 	 	 	1581470095	9.13	16.91
12/02/2020 01:14:56	120220	12022020	011456	193.87	13.852057	-56.889092	194.07	0.940	-0.550	0.880	193.87	-1.80	1.30	 	 	 	 	 	 	 	 	 	 	 	 	 	 	 	 	 	 	1581470096	9.17	16.98
12/02/2020 01:14:57	120220	12022020	011457	193.84	13.852015	-56.889103	193.99	0.740	-1.180	1.310	193.84	-2.50	1.60	 	 	 	 	 	 	 	 	 	 	 	 	 	 	 	 	 	 	1581470097	9.18	17.00
12/02/2020 01:14:58	120220	12022020	011458	193.48	13.851975	-56.889117	193.62	0.400	-1.460	2.020	193.48	-2.80	2.30	 	 	 	 	 	 	 	 	 	 	 	 	 	 	 	 	 	 	1581470098	9.10	16.85
12/02/2020 01:14:59	120220	12022020	011459	192.83	13.851937	-56.889132	192.93	0.090	-1.500	2.840	192.83	-2.90	3.10	 	 	 	 	 	 	 	 	 	 	 	 	 	 	 	 	 	 	1581470099	9.18	17.00
12/02/2020 01:15:00	120220	12022020	011500	191.90	13.851895	-56.889150	191.99	-0.050	-1.420	3.530	191.90	-2.90	3.90	 	 	 	 	 	 	 	 	 	 	 	 	 	 	 	 	 	 	1581470100	9.61	17.80
12/02/2020 01:15:01	120220	12022020	011501	191.15	13.851853	-56.889165	191.28	-0.230	-0.780	3.680	191.15	-2.40	4.20	 	 	 	 	 	 	 	 	 	 	 	 	 	 	 	 	 	 	1581470101	9.57	17.72
12/02/2020 01:15:02	120220	12022020	011502	190.88	13.851813	-56.889178	191.08	-0.530	0.310	3.350	190.88	-1.40	3.90	1017.50	26.00	26.00	20.80	20.90	-1.0	73.0	73.0	389.0	25.7	261.00	11.20	73.00	12.90	16	8378.0	27.2	27.2	1581470102	8.99	16.65
12/02/2020 01:15:03	120220	12022020	011503	191.05	13.851775	-56.889192	191.27	-0.760	1.250	2.690	191.05	0.00	2.80	 	 	 	 	 	 	 	 	 	 	 	 	 	 	 	 	 	 	1581470103	8.74	16.19
12/02/2020 01:15:04	120220	12022020	011504	191.42	13.851733	-56.889202	191.62	-0.610	1.470	1.870	191.42	0.10	2.50	 	 	 	 	 	 	 	 	 	 	 	 	 	 	 	 	 	 	1581470104	8.98	16.63
12/02/2020 01:15:05	120220	12022020	011505	191.73	13.851690	-56.889212	191.90	-0.050	0.810	1.240	191.73	-0.40	1.80	 	 	 	 	 	 	 	 	 	 	 	 	 	 	 	 	 	 	1581470105	9.61	17.80
12/02/2020 01:15:06	120220	12022020	011506	191.90	13.851645	-56.889220	192.11	0.520	-0.240	1.020	191.94	-1.40	1.50	 	 	 	 	 	 	 	 	 	 	 	 	 	 	 	 	 	 	1581470106	10.01	18.54
12/02/2020 01:15:07	120220	12022020	011507	192.06	13.851600	-56.889230	192.23	0.690	-1.050	1.210	192.06	-2.30	1.60	 	 	 	 	 	 	 	 	 	 	 	 	 	 	 	 	 	 	1581470107	9.77	18.09
12/02/2020 01:15:08	120220	12022020	011508	192.01	13.851558	-56.889242	192.15	0.410	-1.310	1.830	192.01	-2.70	2.10	 	 	 	 	 	 	 	 	 	 	 	 	 	 	 	 	 	 	1581470108	9.26	17.15
12/02/2020 01:15:09	120220	12022020	011509	191.76	13.851520	-56.889258	191.87	0.030	-1.090	2.630	191.76	-2.60	2.90	 	 	 	 	 	 	 	 	 	 	 	 	 	 	 	 	 	 	1581470109	8.88	16.45
12/02/2020 01:15:10	120220	12022020	011510	191.20	13.851482	-56.889273	191.25	-0.080	-0.740	3.400	191.20	-2.30	3.70	 	 	 	 	 	 	 	 	 	 	 	 	 	 	 	 	 	 	1581470110	8.87	16.43
12/02/2020 01:15:11	120220	12022020	011511	190.34	13.851442	-56.889287	190.40	0.030	-0.560	3.930	190.34	-2.00	4.30	 	 	 	 	 	 	 	 	 	 	 	 	 	 	 	 	 	 	1581470111	9.29	17.21
12/02/2020 01:15:12	120220	12022020	011512	189.55	13.851398	-56.889300	189.64	0.030	-0.390	3.960	189.55	-1.90	4.40	 	 	 	 	 	 	 	 	 	 	 	 	 	 	 	 	 	 	1581470112	9.57	17.72
12/02/2020 01:15:13	120220	12022020	011513	188.92	13.851355	-56.889312	189.03	-0.180	-0.190	3.750	188.92	-1.70	4.30	 	 	 	 	 	 	 	 	 	 	 	 	 	 	 	 	 	 	1581470113	9.59	17.76
12/02/2020 01:15:14	120220	12022020	011514	188.54	13.851313	-56.889325	188.68	-0.370	0.130	3.250	188.54	-1.40	3.90	 	 	 	 	 	 	 	 	 	 	 	 	 	 	 	 	 	 	1581470114	9.50	17.59
12/02/2020 01:15:15	120220	12022020	011515	188.68	13.851272	-56.889333	188.91	-0.360	0.660	2.310	188.68	-0.90	3.00	 	 	 	 	 	 	 	 	 	 	 	 	 	 	 	 	 	 	1581470115	9.03	16.72
12/02/2020 01:15:16	120220	12022020	011516	189.20	13.851232	-56.889340	189.45	-0.220	0.980	1.470	189.20	-0.50	2.10	 	 	 	 	 	 	 	 	 	 	 	 	 	 	 	 	 	 	1581470116	8.71	16.13
12/02/2020 01:15:17	120220	12022020	011517	189.65	13.851190	-56.889348	189.86	-0.020	0.630	1.180	189.65	-0.70	1.70	 	 	 	 	 	 	 	 	 	 	 	 	 	 	 	 	 	 	1581470117	9.00	16.67
12/02/2020 01:15:18	120220	12022020	011518	189.81	13.851147	-56.889358	190.02	0.200	-0.230	1.300	189.81	-1.50	1.70	 	 	 	 	 	 	 	 	 	 	 	 	 	 	 	 	 	 	1581470118	9.54	17.67
12/02/2020 01:15:19	120220	12022020	011519	189.84	13.851103	-56.889370	190.04	0.410	-0.970	1.620	189.84	-2.60	2.20	 	 	 	 	 	 	 	 	 	 	 	 	 	 	 	 	 	 	1581470119	9.61	17.80
12/02/2020 01:15:20	120220	12022020	011520	189.79	13.851063	-56.889382	189.98	0.580	-1.170	1.910	189.79	-2.60	2.30	 	 	 	 	 	 	 	 	 	 	 	 	 	 	 	 	 	 	1581470120	9.19	17.02
12/02/2020 01:15:21	120220	12022020	011521	189.64	13.851023	-56.889388	189.81	0.620	-0.870	1.960	189.64	-2.40	2.40	 	 	 	 	 	 	 	 	 	 	 	 	 	 	 	 	 	 	1581470121	8.64	16.00
12/02/2020 01:15:22	120220	12022020	011522	189.30	13.850983	-56.889395	189.41	0.420	-0.600	2.030	189.30	-2.10	2.50	 	 	 	 	 	 	 	 	 	 	 	 	 	 	 	 	 	 	1581470122	8.60	15.93
12/02/2020 01:15:23	120220	12022020	011523	188.62	13.850942	-56.889403	188.70	0.040	-0.810	2.510	188.62	-2.10	2.80	 	 	 	 	 	 	 	 	 	 	 	 	 	 	 	 	 	 	1581470123	9.29	17.21
12/02/2020 01:15:24	120220	12022020	011524	187.71	13.850897	-56.889417	187.83	-0.390	-1.220	3.290	187.71	-2.60	3.60	 	 	 	 	 	 	 	 	 	 	 	 	 	 	 	 	 	 	1581470124	10.14	18.78
12/02/2020 01:15:25	120220	12022020	011525	187.03	13.850852	-56.889435	187.21	-0.770	-0.980	3.890	187.03	-2.50	4.20	 	 	 	 	 	 	 	 	 	 	 	 	 	 	 	 	 	 	1581470125	10.17	18.83
12/02/2020 01:15:26	120220	12022020	011526	186.79	13.850812	-56.889452	187.04	-0.950	0.120	4.070	186.79	-1.60	4.60	 	 	 	 	 	 	 	 	 	 	 	 	 	 	 	 	 	 	1581470126	9.32	17.26
12/02/2020 01:15:27	120220	12022020	011527	186.93	13.850773	-56.889465	187.21	-0.730	1.270	3.550	186.93	-0.40	4.20	 	 	 	 	 	 	 	 	 	 	 	 	 	 	 	 	 	 	1581470127	8.55	15.83
12/02/2020 01:15:28	120220	12022020	011528	187.33	13.850733	-56.889470	187.61	-0.200	1.510	2.620	187.33	0.10	3.30	 	 	 	 	 	 	 	 	 	 	 	 	 	 	 	 	 	 	1581470128	8.83	16.35
12/02/2020 01:15:29	120220	12022020	011529	187.88	13.850688	-56.889473	188.19	0.220	0.770	1.920	187.88	-1.10	2.30	 	 	 	 	 	 	 	 	 	 	 	 	 	 	 	 	 	 	1581470129	9.61	17.80
12/02/2020 01:15:30	120220	12022020	011530	188.43	13.850643	-56.889482	188.73	0.310	-0.280	1.730	188.43	-1.50	2.20	 	 	 	 	 	 	 	 	 	 	 	 	 	 	 	 	 	 	1581470130	9.82	18.19
12/02/2020 01:15:31	120220	12022020	011531	188.76	13.850602	-56.889490	189.03	0.240	-0.920	1.820	188.76	-2.40	2.30	 	 	 	 	 	 	 	 	 	 	 	 	 	 	 	 	 	 	1581470131	9.44	17.48
12/02/2020 01:15:32	120220	12022020	011532	189.00	13.850562	-56.889500	189.26	0.260	-0.900	1.820	189.00	-2.40	2.30	 	 	 	 	 	 	 	 	 	 	 	 	 	 	 	 	 	 	1581470132	8.75	16.21
12/02/2020 01:15:33	120220	12022020	011533	189.26	13.850523	-56.889507	189.49	0.490	-0.690	1.510	189.26	-2.20	2.10	 	 	 	 	 	 	 	 	 	 	 	 	 	 	 	 	 	 	1581470133	8.38	15.52
12/02/2020 01:15:34	120220	12022020	011534	189.35	13.850482	-56.889510	189.54	0.750	-0.870	1.150	189.35	-2.20	1.70	 	 	 	 	 	 	 	 	 	 	 	 	 	 	 	 	 	 	1581470134	8.86	16.41
12/02/2020 01:15:35	120220	12022020	011535	189.02	13.850438	-56.889515	189.15	0.640	-1.250	1.470	189.02	-2.60	1.80	 	 	 	 	 	 	 	 	 	 	 	 	 	 	 	 	 	 	1581470135	9.54	17.67
12/02/2020 01:15:36	120220	12022020	011536	188.37	13.850395	-56.889527	188.50	-0.070	-1.200	2.370	188.37	-2.70	2.60	 	 	 	 	 	 	 	 	 	 	 	 	 	 	 	 	 	 	1581470136	9.59	17.76
12/02/2020 01:15:37	120220	12022020	011537	187.57	13.850355	-56.889545	187.72	-0.960	-0.580	3.360	187.57	-2.20	3.60	 	 	 	 	 	 	 	 	 	 	 	 	 	 	 	 	 	 	1581470137	9.43	17.46
12/02/2020 01:15:38	120220	12022020	011538	186.82	13.850315	-56.889565	187.01	-1.310	0.130	4.020	186.82	-1.40	4.40	 	 	 	 	 	 	 	 	 	 	 	 	 	 	 	 	 	 	1581470138	9.57	17.72
12/02/2020 01:15:39	120220	12022020	011539	186.54	13.850273	-56.889582	186.81	-0.850	0.740	3.780	186.54	-0.80	4.40	 	 	 	 	 	 	 	 	 	 	 	 	 	 	 	 	 	 	1581470139	9.45	17.50
12/02/2020 01:15:40	120220	12022020	011540	186.91	13.850232	-56.889588	187.25	-0.030	1.120	2.710	186.91	-0.40	3.50	 	 	 	 	 	 	 	 	 	 	 	 	 	 	 	 	 	 	1581470140	9.11	16.87
12/02/2020 01:15:41	120220	12022020	011541	187.70	13.850190	-56.889592	188.06	0.520	0.950	1.510	187.70	-0.40	2.30	 	 	 	 	 	 	 	 	 	 	 	 	 	 	 	 	 	 	1581470141	9.14	16.93
12/02/2020 01:15:42	120220	12022020	011542	188.44	13.850147	-56.889593	188.75	0.560	0.190	0.820	188.44	-1.00	1.40	 	 	 	 	 	 	 	 	 	 	 	 	 	 	 	 	 	 	1581470142	9.38	17.37
12/02/2020 01:15:43	120220	12022020	011543	188.89	13.850103	-56.889600	189.16	0.360	-0.730	0.910	188.89	-2.00	1.30	 	 	 	 	 	 	 	 	 	 	 	 	 	 	 	 	 	 	1581470143	9.43	17.46
12/02/2020 01:15:44	120220	12022020	011544	189.04	13.850062	-56.889610	189.27	0.250	-1.330	1.520	189.04	-2.70	1.80	 	 	 	 	 	 	 	 	 	 	 	 	 	 	 	 	 	 	1581470144	9.21	17.06
12/02/2020 01:15:45	120220	12022020	011545	188.85	13.850022	-56.889622	189.02	0.220	-1.480	2.440	188.85	-2.90	2.70	 	 	 	 	 	 	 	 	 	 	 	 	 	 	 	 	 	 	1581470145	8.97	16.61
12/02/2020 01:15:46	120220	12022020	011546	188.31	13.849982	-56.889637	188.45	0.100	-1.210	3.390	188.31	-2.70	3.70	 	 	 	 	 	 	 	 	 	 	 	 	 	 	 	 	 	 	1581470146	8.88	16.45
12/02/2020 01:15:47	120220	12022020	011547	187.56	13.849942	-56.889650	187.72	-0.090	-0.720	3.950	187.56	-2.30	4.40	 	 	 	 	 	 	 	 	 	 	 	 	 	 	 	 	 	 	1581470147	8.95	16.58
12/02/2020 01:15:48	120220	12022020	011548	187.04	13.849902	-56.889660	187.22	-0.270	-0.170	3.770	187.04	-1.70	4.40	 	 	 	 	 	 	 	 	 	 	 	 	 	 	 	 	 	 	1581470148	8.98	16.63
12/02/2020 01:15:49	120220	12022020	011549	186.75	13.849860	-56.889668	186.98	-0.310	0.220	3.200	186.75	-1.30	3.90	 	 	 	 	 	 	 	 	 	 	 	 	 	 	 	 	 	 	1581470149	9.10	16.85
12/02/2020 01:15:50	120220	12022020	011550	186.75	13.849817	-56.889673	187.03	-0.220	0.360	2.420	186.75	-1.10	3.10	 	 	 	 	 	 	 	 	 	 	 	 	 	 	 	 	 	 	1581470150	9.33	17.28
12/02/2020 01:15:51	120220	12022020	011551	187.15	13.849773	-56.889677	187.44	-0.190	0.350	1.750	187.15	-1.10	2.40	 	 	 	 	 	 	 	 	 	 	 	 	 	 	 	 	 	 	1581470151	9.30	17.22
12/02/2020 01:15:52	120220	12022020	011552	187.52	13.849732	-56.889685	187.77	-0.270	0.110	1.690	187.52	-1.20	2.10	 	 	 	 	 	 	 	 	 	 	 	 	 	 	 	 	 	 	1581470152	9.25	17.13
12/02/2020 01:15:53	120220	12022020	011553	187.57	13.849690	-56.889697	187.82	-0.270	-0.300	2.150	187.57	-1.80	2.80	 	 	 	 	 	 	 	 	 	 	 	 	 	 	 	 	 	 	1581470153	9.48	17.56
12/02/2020 01:15:54	120220	12022020	011554	187.54	13.849648	-56.889710	187.80	-0.070	-0.470	2.540	187.54	-1.90	3.00	 	 	 	 	 	 	 	 	 	 	 	 	 	 	 	 	 	 	1581470154	9.37	17.35
12/02/2020 01:15:55	120220	12022020	011555	187.60	13.849608	-56.889720	187.89	0.220	-0.160	2.510	187.60	-1.70	3.00	 	 	 	 	 	 	 	 	 	 	 	 	 	 	 	 	 	 	1581470155	8.75	16.21
12/02/2020 01:15:56	120220	12022020	011556	187.75	13.849570	-56.889725	188.09	0.410	0.280	2.070	187.80	-1.20	2.70	 	 	 	 	 	 	 	 	 	 	 	 	 	 	 	 	 	 	1581470156	8.28	15.33
12/02/2020 01:15:57	120220	12022020	011557	188.14	13.849532	-56.889728	188.46	0.380	0.330	1.460	188.14	-1.10	2.10	 	 	 	 	 	 	 	 	 	 	 	 	 	 	 	 	 	 	1581470157	8.44	15.63
12/02/2020 01:15:58	120220	12022020	011558	188.53	13.849490	-56.889732	188.81	0.260	-0.180	1.010	188.53	-1.40	1.60	 	 	 	 	 	 	 	 	 	 	 	 	 	 	 	 	 	 	1581470158	8.92	16.52
12/02/2020 01:15:59	120220	12022020	011559	188.44	13.849447	-56.889740	188.61	0.250	-1.090	1.290	188.44	-2.30	1.70	 	 	 	 	 	 	 	 	 	 	 	 	 	 	 	 	 	 	1581470159	9.47	17.54
12/02/2020 01:16:00	120220	12022020	011600	187.75	13.849402	-56.889750	187.91	0.380	-1.770	1.960	187.75	-3.10	2.30	 	 	 	 	 	 	 	 	 	 	 	 	 	 	 	 	 	 	1581470160	9.87	18.28
12/02/2020 01:16:01	120220	12022020	011601	187.10	13.849358	-56.889760	187.30	0.280	-1.440	2.480	187.10	-3.00	2.90	 	 	 	 	 	 	 	 	 	 	 	 	 	 	 	 	 	 	1581470161	9.33	17.28
12/02/2020 01:16:02	120220	12022020	011602	186.80	13.849320	-56.889770	187.06	-0.300	-0.370	2.840	186.80	-2.10	3.30	1017.70	26.00	26.10	20.90	21.00	-1.0	73.0	73.0	390.0	25.7	262.00	10.50	68.00	12.10	16	8663.0	27.2	27.2	1581470162	8.46	15.67
12/02/2020 01:16:03	120220	12022020	011603	186.66	13.849283	-56.889782	186.91	-1.000	0.520	3.000	186.66	-1.00	3.50	 	 	 	 	 	 	 	 	 	 	 	 	 	 	 	 	 	 	1581470163	8.37	15.50
12/02/2020 01:16:04	120220	12022020	011604	186.42	13.849243	-56.889793	186.67	-1.190	0.580	3.020	186.42	-0.80	3.50	 	 	 	 	 	 	 	 	 	 	 	 	 	 	 	 	 	 	1581470164	9.19	17.02
12/02/2020 01:16:05	120220	12022020	011605	186.40	13.849198	-56.889807	186.71	-0.730	0.220	2.760	186.40	-1.30	3.00	 	 	 	 	 	 	 	 	 	 	 	 	 	 	 	 	 	 	1581470165	9.82	18.19
12/02/2020 01:16:06	120220	12022020	011606	186.90	13.849155	-56.889815	187.25	0.020	0.000	2.030	186.90	-1.40	2.70	 	 	 	 	 	 	 	 	 	 	 	 	 	 	 	 	 	 	1581470166	9.57	17.72
12/02/2020 01:16:07	120220	12022020	011607	187.57	13.849113	-56.889818	187.88	0.630	0.060	1.070	187.57	-1.30	1.30	 	 	 	 	 	 	 	 	 	 	 	 	 	 	 	 	 	 	1581470167	9.01	16.69
12/02/2020 01:16:08	120220	12022020	011608	188.00	13.849073	-56.889818	188.28	0.860	0.160	0.510	188.00	-1.30	1.10	 	 	 	 	 	 	 	 	 	 	 	 	 	 	 	 	 	 	1581470168	8.73	16.17
12/02/2020 01:16:09	120220	12022020	011609	188.35	13.849033	-56.889822	188.62	0.590	0.170	0.650	188.35	-1.20	1.10	 	 	 	 	 	 	 	 	 	 	 	 	 	 	 	 	 	 	1581470169	8.51	15.76
12/02/2020 01:16:10	120220	12022020	011610	188.61	13.848993	-56.889828	188.87	0.010	-0.150	1.270	188.61	-1.40	1.60	 	 	 	 	 	 	 	 	 	 	 	 	 	 	 	 	 	 	1581470170	8.54	15.82
12/02/2020 01:16:11	120220	12022020	011611	188.46	13.848953	-56.889842	188.64	-0.410	-0.960	2.300	188.46	-2.10	2.50	 	 	 	 	 	 	 	 	 	 	 	 	 	 	 	 	 	 	1581470171	9.16	16.96
12/02/2020 01:16:12	120220	12022020	011612	187.61	13.848910	-56.889858	187.73	-0.320	-1.900	3.580	187.61	-3.10	3.80	 	 	 	 	 	 	 	 	 	 	 	 	 	 	 	 	 	 	1581470172	10.01	18.54
12/02/2020 01:16:13	120220	12022020	011613	186.49	13.848867	-56.889873	186.61	0.080	-1.970	4.440	186.49	-3.50	4.80	 	 	 	 	 	 	 	 	 	 	 	 	 	 	 	 	 	 	1581470173	9.94	18.41
12/02/2020 01:16:14	120220	12022020	011614	185.70	13.848827	-56.889885	185.90	0.360	-0.860	4.470	185.70	-2.60	5.00	 	 	 	 	 	 	 	 	 	 	 	 	 	 	 	 	 	 	1581470174	8.82	16.33
12/02/2020 01:16:15	120220	12022020	011615	185.49	13.848788	-56.889890	185.76	0.310	0.560	3.720	185.49	-1.20	4.40	 	 	 	 	 	 	 	 	 	 	 	 	 	 	 	 	 	 	1581470175	8.13	15.06
12/02/2020 01:16:16	120220	12022020	011616	185.82	13.848750	-56.889890	186.14	-0.040	1.400	2.550	185.82	-0.10	3.30	 	 	 	 	 	 	 	 	 	 	 	 	 	 	 	 	 	 	1581470176	8.36	15.48
12/02/2020 01:16:17	120220	12022020	011617	186.64	13.848710	-56.889893	187.01	-0.510	1.450	1.570	186.64	0.10	2.20	 	 	 	 	 	 	 	 	 	 	 	 	 	 	 	 	 	 	1581470177	8.77	16.24
12/02/2020 01:16:18	120220	12022020	011618	187.61	13.848668	-56.889900	187.98	-0.820	0.860	1.260	187.61	-0.40	1.80	 	 	 	 	 	 	 	 	 	 	 	 	 	 	 	 	 	 	1581470178	8.97	16.61
12/02/2020 01:16:19	120220	12022020	011619	188.21	13.848627	-56.889913	188.49	-0.700	-0.220	1.460	188.21	-2.10	2.10	 	 	 	 	 	 	 	 	 	 	 	 	 	 	 	 	 	 	1581470179	9.31	17.24
12/02/2020 01:16:20	120220	12022020	011620	188.30	13.848583	-56.889927	188.47	-0.040	-1.380	1.840	188.27	-2.60	2.20	 	 	 	 	 	 	 	 	 	 	 	 	 	 	 	 	 	 	1581470180	9.59	17.76
12/02/2020 01:16:21	120220	12022020	011621	187.91	13.848542	-56.889937	188.05	0.880	-1.940	2.130	187.91	-3.30	2.60	 	 	 	 	 	 	 	 	 	 	 	 	 	 	 	 	 	 	1581470181	9.36	17.33
12/02/2020 01:16:22	120220	12022020	011622	187.42	13.848502	-56.889942	187.58	1.470	-1.450	2.080	187.42	-3.10	2.60	 	 	 	 	 	 	 	 	 	 	 	 	 	 	 	 	 	 	1581470182	8.66	16.04
12/02/2020 01:16:23	120220	12022020	011623	187.07	13.848463	-56.889940	187.26	1.270	-0.470	1.830	187.07	-2.10	2.40	 	 	 	 	 	 	 	 	 	 	 	 	 	 	 	 	 	 	1581470183	8.16	15.11
12/02/2020 01:16:24	120220	12022020	011624	186.93	13.848423	-56.889943	187.17	0.400	0.100	1.820	186.93	-1.40	2.30	 	 	 	 	 	 	 	 	 	 	 	 	 	 	 	 	 	 	1581470184	8.51	15.76
12/02/2020 01:16:25	120220	12022020	011625	187.16	13.848383	-56.889952	187.46	-0.670	0.250	2.040	187.16	-1.20	2.40	 	 	 	 	 	 	 	 	 	 	 	 	 	 	 	 	 	 	1581470185	9.03	16.72
12/02/2020 01:16:26	120220	12022020	011626	187.58	13.848342	-56.889967	187.89	-1.410	0.220	2.590	187.58	-1.20	2.90	 	 	 	 	 	 	 	 	 	 	 	 	 	 	 	 	 	 	1581470186	9.32	17.26
12/02/2020 01:16:27	120220	12022020	011627	187.81	13.848302	-56.889983	188.07	-1.450	-0.030	3.140	187.81	-1.40	3.50	 	 	 	 	 	 	 	 	 	 	 	 	 	 	 	 	 	 	1581470187	9.53	17.65
12/02/2020 01:16:28	120220	12022020	011628	187.57	13.848258	-56.889998	187.78	-0.780	-0.470	3.380	187.57	-1.80	3.80	 	 	 	 	 	 	 	 	 	 	 	 	 	 	 	 	 	 	1581470188	9.72	18.00
12/02/2020 01:16:29	120220	12022020	011629	187.09	13.848215	-56.890008	187.29	0.070	-0.600	3.220	187.09	-2.00	3.80	 	 	 	 	 	 	 	 	 	 	 	 	 	 	 	 	 	 	1581470189	9.55	17.69
12/02/2020 01:16:30	120220	12022020	011630	186.72	13.848173	-56.890015	186.92	0.540	-0.230	2.740	186.72	-1.80	3.40	 	 	 	 	 	 	 	 	 	 	 	 	 	 	 	 	 	 	1581470190	8.97	16.61
12/02/2020 01:16:31	120220	12022020	011631	186.64	13.848135	-56.890018	186.90	0.480	0.380	2.120	186.64	-1.20	2.80	 	 	 	 	 	 	 	 	 	 	 	 	 	 	 	 	 	 	1581470191	8.47	15.69
12/02/2020 01:16:32	120220	12022020	011632	186.95	13.848097	-56.890022	187.24	0.210	0.840	1.460	186.95	-0.70	2.10	 	 	 	 	 	 	 	 	 	 	 	 	 	 	 	 	 	 	1581470192	8.23	15.24
12/02/2020 01:16:33	120220	12022020	011633	187.48	13.848058	-56.890027	187.78	0.160	0.700	0.860	187.48	-0.60	1.50	 	 	 	 	 	 	 	 	 	 	 	 	 	 	 	 	 	 	1581470193	8.45	15.65
12/02/2020 01:16:34	120220	12022020	011634	187.91	13.848017	-56.890032	188.19	0.450	-0.130	0.660	187.91	-1.30	1.20	 	 	 	 	 	 	 	 	 	 	 	 	 	 	 	 	 	 	1581470194	9.03	16.72
12/02/2020 01:16:35	120220	12022020	011635	187.91	13.847972	-56.890038	188.11	0.840	-1.260	1.120	187.91	-2.40	1.40	 	 	 	 	 	 	 	 	 	 	 	 	 	 	 	 	 	 	1581470195	9.54	17.67
12/02/2020 01:16:36	120220	12022020	011636	187.32	13.847928	-56.890048	187.50	0.960	-2.030	2.100	187.32	-3.30	2.30	 	 	 	 	 	 	 	 	 	 	 	 	 	 	 	 	 	 	1581470196	9.76	18.08
12/02/2020 01:16:37	120220	12022020	011637	186.95	13.847887	-56.890058	187.24	0.440	-1.650	3.010	186.95	-3.30	3.30	 	 	 	 	 	 	 	 	 	 	 	 	 	 	 	 	 	 	1581470197	9.19	17.02
12/02/2020 01:16:38	120220	12022020	011638	187.22	13.847850	-56.890073	187.57	-0.560	-0.290	3.620	187.22	-2.10	4.00	 	 	 	 	 	 	 	 	 	 	 	 	 	 	 	 	 	 	1581470198	8.21	15.20
12/02/2020 01:16:39	120220	12022020	011639	187.71	13.847817	-56.890087	188.03	-1.300	0.940	3.760	187.71	-0.70	4.30	 	 	 	 	 	 	 	 	 	 	 	 	 	 	 	 	 	 	1581470199	7.94	14.70
12/02/2020 01:16:40	120220	12022020	011640	187.93	13.847778	-56.890100	188.21	-1.110	1.060	3.460	187.93	-0.30	4.10	 	 	 	 	 	 	 	 	 	 	 	 	 	 	 	 	 	 	1581470200	8.70	16.11
12/02/2020 01:16:41	120220	12022020	011641	187.99	13.847733	-56.890108	188.25	-0.190	0.280	2.850	187.99	-0.90	3.50	 	 	 	 	 	 	 	 	 	 	 	 	 	 	 	 	 	 	1581470201	9.74	18.04
12/02/2020 01:16:42	120220	12022020	011642	188.04	13.847687	-56.890112	188.27	0.660	-0.570	2.050	188.04	-1.80	2.80	 	 	 	 	 	 	 	 	 	 	 	 	 	 	 	 	 	 	1581470202	10.05	18.61
12/02/2020 01:16:43	120220	12022020	011643	188.18	13.847643	-56.890115	188.41	0.850	-0.790	1.340	188.18	-2.10	1.70	 	 	 	 	 	 	 	 	 	 	 	 	 	 	 	 	 	 	1581470203	9.43	17.46
12/02/2020 01:16:44	120220	12022020	011644	188.35	13.847603	-56.890118	188.57	0.450	-0.490	1.110	188.35	-2.00	1.60	 	 	 	 	 	 	 	 	 	 	 	 	 	 	 	 	 	 	1581470204	8.58	15.89
12/02/2020 01:16:45	120220	12022020	011645	188.29	13.847563	-56.890125	188.49	0.000	-0.370	1.370	188.29	-1.80	1.80	 	 	 	 	 	 	 	 	 	 	 	 	 	 	 	 	 	 	1581470205	8.57	15.87
12/02/2020 01:16:46	120220	12022020	011646	188.18	13.847523	-56.890135	188.39	-0.220	-0.410	1.810	188.17	-1.80	2.20	 	 	 	 	 	 	 	 	 	 	 	 	 	 	 	 	 	 	1581470206	9.04	16.74
12/02/2020 01:16:47	120220	12022020	011647	188.11	13.847482	-56.890147	188.33	-0.280	-0.390	2.280	188.11	-1.80	2.70	 	 	 	 	 	 	 	 	 	 	 	 	 	 	 	 	 	 	1581470207	9.14	16.93
12/02/2020 01:16:48	120220	12022020	011648	187.84	13.847442	-56.890160	188.02	-0.250	-0.370	2.680	187.84	-1.80	3.10	 	 	 	 	 	 	 	 	 	 	 	 	 	 	 	 	 	 	1581470208	9.25	17.13
12/02/2020 01:16:49	120220	12022020	011649	187.49	13.847400	-56.890172	187.69	-0.250	-0.150	2.890	187.49	-1.70	3.30	 	 	 	 	 	 	 	 	 	 	 	 	 	 	 	 	 	 	1581470209	9.20	17.04
12/02/2020 01:16:50	120220	12022020	011650	187.39	13.847360	-56.890183	187.63	-0.250	0.350	2.750	187.39	-1.20	3.30	 	 	 	 	 	 	 	 	 	 	 	 	 	 	 	 	 	 	1581470210	8.77	16.24
12/02/2020 01:16:51	120220	12022020	011651	187.61	13.847322	-56.890190	187.86	-0.130	0.700	2.170	187.61	-0.80	2.80	 	 	 	 	 	 	 	 	 	 	 	 	 	 	 	 	 	 	1581470211	8.50	15.74
12/02/2020 01:16:52	120220	12022020	011652	187.91	13.847282	-56.890197	188.15	0.140	0.460	1.520	187.91	-0.90	2.20	 	 	 	 	 	 	 	 	 	 	 	 	 	 	 	 	 	 	1581470212	8.84	16.37
12/02/2020 01:16:53	120220	12022020	011653	188.30	13.847238	-56.890202	188.54	0.460	-0.110	0.990	188.30	-1.40	1.60	 	 	 	 	 	 	 	 	 	 	 	 	 	 	 	 	 	 	1581470213	9.18	17.00
12/02/2020 01:16:54	120220	12022020	011654	188.68	13.847197	-56.890207	188.89	0.660	-0.650	0.790	188.68	-1.90	1.30	 	 	 	 	 	 	 	 	 	 	 	 	 	 	 	 	 	 	1581470214	9.07	16.80
12/02/2020 01:16:55	120220	12022020	011655	188.71	13.847155	-56.890215	188.88	0.680	-1.200	1.260	188.71	-2.50	1.60	 	 	 	 	 	 	 	 	 	 	 	 	 	 	 	 	 	 	1581470215	9.06	16.78
12/02/2020 01:16:56	120220	12022020	011656	188.32	13.847113	-56.890225	188.48	0.530	-1.580	2.160	188.32	-3.00	2.40	 	 	 	 	 	 	 	 	 	 	 	 	 	 	 	 	 	 	1581470216	9.28	17.19
12/02/2020 01:16:57	120220	12022020	011657	187.86	13.847073	-56.890238	188.04	0.180	-1.360	3.000	187.86	-2.90	3.30	 	 	 	 	 	 	 	 	 	 	 	 	 	 	 	 	 	 	1581470217	9.15	16.95
12/02/2020 01:16:58	120220	12022020	011658	187.49	13.847033	-56.890250	187.69	-0.300	-0.530	3.570	187.49	-2.20	3.90	 	 	 	 	 	 	 	 	 	 	 	 	 	 	 	 	 	 	1581470218	8.71	16.13
12/02/2020 01:16:59	120220	12022020	011659	187.17	13.846995	-56.890263	187.36	-0.700	0.230	3.820	187.17	-1.30	4.30	 	 	 	 	 	 	 	 	 	 	 	 	 	 	 	 	 	 	1581470219	8.66	16.04
12/02/2020 01:17:00	120220	12022020	011700	186.91	13.846955	-56.890275	187.11	-0.740	0.470	3.700	186.91	-1.00	4.30	 	 	 	 	 	 	 	 	 	 	 	 	 	 	 	 	 	 	1581470220	9.16	16.96
12/02/2020 01:17:01	120220	12022020	011701	186.87	13.846912	-56.890283	187.14	-0.430	0.480	3.140	186.87	-1.00	3.80	 	 	 	 	 	 	 	 	 	 	 	 	 	 	 	 	 	 	1581470221	9.49	17.58
12/02/2020 01:17:02	120220	12022020	011702	187.30	13.846868	-56.890288	187.60	-0.070	0.610	2.250	187.30	-0.90	3.00	1017.70	26.00	26.10	20.80	20.90	-1.0	72.0	73.0	390.0	25.7	265.00	10.50	69.00	11.90	15	8430.0	27.1	27.1	1581470222	9.15	16.95
12/02/2020 01:17:03	120220	12022020	011703	188.04	13.846828	-56.890292	188.35	0.140	0.600	1.420	188.04	-0.80	2.10	 	 	 	 	 	 	 	 	 	 	 	 	 	 	 	 	 	 	1581470223	8.80	16.30
12/02/2020 01:17:04	120220	12022020	011704	188.74	13.846787	-56.890297	189.01	0.250	0.210	1.060	188.74	-1.10	1.60	 	 	 	 	 	 	 	 	 	 	 	 	 	 	 	 	 	 	1581470224	8.84	16.37
12/02/2020 01:17:05	120220	12022020	011705	189.16	13.846747	-56.890305	189.42	0.310	-0.430	1.320	189.16	-1.70	1.70	 	 	 	 	 	 	 	 	 	 	 	 	 	 	 	 	 	 	1581470225	8.97	16.61
12/02/2020 01:17:06	120220	12022020	011706	189.27	13.846707	-56.890317	189.47	0.290	-0.960	1.940	189.27	-2.30	2.30	 	 	 	 	 	 	 	 	 	 	 	 	 	 	 	 	 	 	1581470226	8.92	16.52
12/02/2020 01:17:07	120220	12022020	011707	188.88	13.846667	-56.890330	189.00	0.330	-1.420	2.680	188.88	-2.80	3.00	 	 	 	 	 	 	 	 	 	 	 	 	 	 	 	 	 	 	1581470227	9.00	16.67
12/02/2020 01:17:08	120220	12022020	011708	187.99	13.846625	-56.890343	188.07	0.550	-1.750	3.380	187.99	-3.20	3.70	 	 	 	 	 	 	 	 	 	 	 	 	 	 	 	 	 	 	1581470228	9.39	17.39
12/02/2020 01:17:09	120220	12022020	011709	187.29	13.846583	-56.890353	187.47	0.570	-1.160	3.530	187.29	-2.10	3.90	 	 	 	 	 	 	 	 	 	 	 	 	 	 	 	 	 	 	1581470229	9.10	16.85
12/02/2020 01:17:10	120220	12022020	011710	187.36	13.846547	-56.890358	187.62	0.010	0.220	3.090	187.36	-1.60	3.70	 	 	 	 	 	 	 	 	 	 	 	 	 	 	 	 	 	 	1581470230	8.07	14.95
12/02/2020 01:17:11	120220	12022020	011711	187.81	13.846510	-56.890365	188.07	-0.830	1.210	2.590	187.81	-0.10	2.90	 	 	 	 	 	 	 	 	 	 	 	 	 	 	 	 	 	 	1581470231	7.91	14.65
12/02/2020 01:17:12	120220	12022020	011712	188.17	13.846470	-56.890375	188.40	-1.240	1.090	2.310	188.17	-0.20	2.80	 	 	 	 	 	 	 	 	 	 	 	 	 	 	 	 	 	 	1581470232	8.87	16.43
12/02/2020 01:17:13	120220	12022020	011713	188.32	13.846427	-56.890385	188.53	-0.820	0.160	2.240	188.32	-1.00	2.70	 	 	 	 	 	 	 	 	 	 	 	 	 	 	 	 	 	 	1581470233	9.83	18.21
12/02/2020 01:17:14	120220	12022020	011714	188.30	13.846380	-56.890395	188.49	0.100	-0.680	2.130	188.30	-2.00	2.70	 	 	 	 	 	 	 	 	 	 	 	 	 	 	 	 	 	 	1581470234	10.00	18.52
12/02/2020 01:17:15	120220	12022020	011715	188.24	13.846338	-56.890402	188.45	0.760	-0.760	1.870	188.24	-2.20	2.40	 	 	 	 	 	 	 	 	 	 	 	 	 	 	 	 	 	 	1581470235	9.26	17.15
12/02/2020 01:17:16	120220	12022020	011716	188.30	13.846300	-56.890407	188.52	0.740	-0.300	1.580	188.30	-1.90	2.10	 	 	 	 	 	 	 	 	 	 	 	 	 	 	 	 	 	 	1581470236	8.36	15.48
12/02/2020 01:17:17	120220	12022020	011717	188.42	13.846262	-56.890413	188.64	0.260	0.040	1.410	188.42	-1.50	1.90	 	 	 	 	 	 	 	 	 	 	 	 	 	 	 	 	 	 	1581470237	8.15	15.09
12/02/2020 01:17:18	120220	12022020	011718	188.60	13.846223	-56.890422	188.83	-0.240	0.000	1.430	188.60	-1.40	1.90	 	 	 	 	 	 	 	 	 	 	 	 	 	 	 	 	 	 	1581470238	8.46	15.67
12/02/2020 01:17:19	120220	12022020	011719	188.63	13.846183	-56.890433	188.82	-0.470	-0.380	1.730	188.63	-1.70	2.10	 	 	 	 	 	 	 	 	 	 	 	 	 	 	 	 	 	 	1581470239	8.91	16.50
12/02/2020 01:17:20	120220	12022020	011720	188.33	13.846143	-56.890448	188.47	-0.300	-0.850	2.160	188.33	-2.20	2.50	 	 	 	 	 	 	 	 	 	 	 	 	 	 	 	 	 	 	1581470240	9.29	17.21
12/02/2020 01:17:21	120220	12022020	011721	187.79	13.846102	-56.890460	187.94	0.170	-1.010	2.550	187.79	-2.40	3.00	 	 	 	 	 	 	 	 	 	 	 	 	 	 	 	 	 	 	1581470241	9.30	17.22
12/02/2020 01:17:22	120220	12022020	011722	187.42	13.846060	-56.890467	187.51	0.610	-0.640	2.590	187.35	-2.20	3.10	 	 	 	 	 	 	 	 	 	 	 	 	 	 	 	 	 	 	1581470242	8.93	16.54
12/02/2020 01:17:23	120220	12022020	011723	187.21	13.846020	-56.890472	187.43	0.610	-0.070	2.440	187.21	-1.60	3.00	 	 	 	 	 	 	 	 	 	 	 	 	 	 	 	 	 	 	1581470243	8.64	16.00
12/02/2020 01:17:24	120220	12022020	011724	187.27	13.845980	-56.890478	187.50	0.060	0.230	2.640	187.27	-1.20	3.00	 	 	 	 	 	 	 	 	 	 	 	 	 	 	 	 	 	 	1581470244	8.76	16.22
12/02/2020 01:17:25	120220	12022020	011725	187.31	13.845940	-56.890490	187.55	-0.670	0.200	3.350	187.31	-1.20	3.60	 	 	 	 	 	 	 	 	 	 	 	 	 	 	 	 	 	 	1581470245	9.12	16.89
12/02/2020 01:17:26	120220	12022020	011726	187.33	13.845900	-56.890507	187.58	-1.040	0.100	3.900	187.33	-1.30	4.30	 	 	 	 	 	 	 	 	 	 	 	 	 	 	 	 	 	 	1581470246	9.31	17.24
12/02/2020 01:17:27	120220	12022020	011727	187.36	13.845860	-56.890520	187.60	-0.800	0.010	3.760	187.36	-1.40	4.30	 	 	 	 	 	 	 	 	 	 	 	 	 	 	 	 	 	 	1581470247	9.05	16.76
12/02/2020 01:17:28	120220	12022020	011728	187.32	13.845818	-56.890530	187.52	-0.110	-0.260	3.180	187.32	-1.60	3.80	 	 	 	 	 	 	 	 	 	 	 	 	 	 	 	 	 	 	1581470248	8.98	16.63
12/02/2020 01:17:29	120220	12022020	011729	187.16	13.845777	-56.890535	187.36	0.570	-0.700	2.500	187.16	-2.00	3.20	 	 	 	 	 	 	 	 	 	 	 	 	 	 	 	 	 	 	1581470249	9.26	17.15
12/02/2020 01:17:30	120220	12022020	011730	187.28	13.845733	-56.890538	187.54	0.770	-0.700	1.700	187.28	-2.20	2.40	 	 	 	 	 	 	 	 	 	 	 	 	 	 	 	 	 	 	1581470250	9.05	16.76
12/02/2020 01:17:31	120220	12022020	011731	187.74	13.845697	-56.890540	188.02	0.420	-0.160	1.170	187.74	-1.70	1.70	 	 	 	 	 	 	 	 	 	 	 	 	 	 	 	 	 	 	1581470251	8.21	15.20
12/02/2020 01:17:32	120220	12022020	011732	188.03	13.845658	-56.890547	188.27	-0.060	0.050	1.300	188.03	-1.40	1.70	 	 	 	 	 	 	 	 	 	 	 	 	 	 	 	 	 	 	1581470252	8.17	15.13
12/02/2020 01:17:33	120220	12022020	011733	187.99	13.845618	-56.890557	188.21	-0.300	-0.280	1.700	187.99	-1.90	2.30	 	 	 	 	 	 	 	 	 	 	 	 	 	 	 	 	 	 	1581470253	9.02	16.71
12/02/2020 01:17:34	120220	12022020	011734	187.88	13.845575	-56.890567	188.11	-0.220	-0.610	2.100	187.88	-2.00	2.50	 	 	 	 	 	 	 	 	 	 	 	 	 	 	 	 	 	 	1581470254	9.35	17.32
12/02/2020 01:17:35	120220	12022020	011735	187.66	13.845533	-56.890578	187.87	0.050	-0.670	2.400	187.66	-2.10	2.80	 	 	 	 	 	 	 	 	 	 	 	 	 	 	 	 	 	 	1581470255	9.23	17.09
12/02/2020 01:17:36	120220	12022020	011736	187.40	13.845493	-56.890585	187.60	0.220	-0.380	2.370	187.40	-1.90	2.90	 	 	 	 	 	 	 	 	 	 	 	 	 	 	 	 	 	 	1581470256	8.96	16.59
12/02/2020 01:17:37	120220	12022020	011737	187.21	13.845453	-56.890592	187.43	0.050	0.150	2.200	187.21	-1.40	2.70	 	 	 	 	 	 	 	 	 	 	 	 	 	 	 	 	 	 	1581470257	8.60	15.93
12/02/2020 01:17:38	120220	12022020	011738	187.18	13.845415	-56.890598	187.43	-0.350	0.490	2.120	187.18	-1.00	2.60	 	 	 	 	 	 	 	 	 	 	 	 	 	 	 	 	 	 	1581470258	8.48	15.70
12/02/2020 01:17:39	120220	12022020	011739	187.24	13.845375	-56.890608	187.47	-0.570	0.360	2.140	187.24	-1.00	2.60	 	 	 	 	 	 	 	 	 	 	 	 	 	 	 	 	 	 	1581470259	8.77	16.24
12/02/2020 01:17:40	120220	12022020	011740	187.10	13.845333	-56.890620	187.30	-0.300	-0.260	2.390	187.10	-1.50	2.80	 	 	 	 	 	 	 	 	 	 	 	 	 	 	 	 	 	 	1581470260	9.30	17.22
12/02/2020 01:17:41	120220	12022020	011741	186.82	13.845290	-56.890632	187.01	0.260	-0.900	2.590	186.82	-2.20	3.00	 	 	 	 	 	 	 	 	 	 	 	 	 	 	 	 	 	 	1581470261	9.61	17.80
12/02/2020 01:17:42	120220	12022020	011742	186.91	13.845248	-56.890640	187.18	0.500	-0.880	2.430	186.91	-2.40	3.00	 	 	 	 	 	 	 	 	 	 	 	 	 	 	 	 	 	 	1581470262	9.08	16.82
12/02/2020 01:17:43	120220	12022020	011743	187.38	13.845212	-56.890648	187.67	0.230	-0.300	2.080	187.38	-1.90	2.70	 	 	 	 	 	 	 	 	 	 	 	 	 	 	 	 	 	 	1581470263	8.19	15.17
12/02/2020 01:17:44	120220	12022020	011744	187.81	13.845175	-56.890655	188.05	-0.060	0.150	1.670	187.81	-1.30	2.20	 	 	 	 	 	 	 	 	 	 	 	 	 	 	 	 	 	 	1581470264	7.98	14.78
12/02/2020 01:17:45	120220	12022020	011745	187.89	13.845135	-56.890660	188.09	0.110	-0.010	1.510	187.89	-1.60	2.00	 	 	 	 	 	 	 	 	 	 	 	 	 	 	 	 	 	 	1581470265	8.67	16.06
12/02/2020 01:17:46	120220	12022020	011746	187.76	13.845092	-56.890665	187.94	0.450	-0.450	1.670	187.76	-1.80	2.10	 	 	 	 	 	 	 	 	 	 	 	 	 	 	 	 	 	 	1581470266	9.31	17.24
12/02/2020 01:17:47	120220	12022020	011747	187.67	13.845050	-56.890673	187.88	0.390	-0.720	2.200	187.67	-2.20	3.00	 	 	 	 	 	 	 	 	 	 	 	 	 	 	 	 	 	 	1581470267	9.30	17.22
12/02/2020 01:17:48	120220	12022020	011748	187.49	13.845008	-56.890685	187.66	-0.090	-0.690	3.040	187.49	-2.20	3.30	 	 	 	 	 	 	 	 	 	 	 	 	 	 	 	 	 	 	1581470268	9.12	16.89
12/02/2020 01:17:49	120220	12022020	011749	187.27	13.844970	-56.890698	187.47	-0.630	-0.290	3.640	187.27	-1.80	4.00	 	 	 	 	 	 	 	 	 	 	 	 	 	 	 	 	 	 	1581470269	8.88	16.45
12/02/2020 01:17:50	120220	12022020	011750	187.27	13.844932	-56.890710	187.49	-0.870	0.250	3.760	187.27	-1.30	4.20	 	 	 	 	 	 	 	 	 	 	 	 	 	 	 	 	 	 	1581470270	8.54	15.82
12/02/2020 01:17:51	120220	12022020	011751	187.40	13.844893	-56.890722	187.63	-0.690	0.370	3.440	187.40	-1.00	4.00	 	 	 	 	 	 	 	 	 	 	 	 	 	 	 	 	 	 	1581470271	8.66	16.04
12/02/2020 01:17:52	120220	12022020	011752	187.46	13.844852	-56.890732	187.67	-0.190	-0.090	2.780	187.46	-1.40	3.40	 	 	 	 	 	 	 	 	 	 	 	 	 	 	 	 	 	 	1581470272	9.19	17.02
12/02/2020 01:17:53	120220	12022020	011753	187.43	13.844808	-56.890738	187.61	0.380	-0.580	1.980	187.43	-1.90	2.60	 	 	 	 	 	 	 	 	 	 	 	 	 	 	 	 	 	 	1581470273	9.40	17.41
12/02/2020 01:17:54	120220	12022020	011754	187.27	13.844767	-56.890742	187.44	0.800	-0.590	1.390	187.27	-2.10	2.00	 	 	 	 	 	 	 	 	 	 	 	 	 	 	 	 	 	 	1581470274	8.98	16.63
12/02/2020 01:17:55	120220	12022020	011755	187.12	13.844727	-56.890743	187.32	0.900	-0.130	0.980	187.12	-1.70	1.60	 	 	 	 	 	 	 	 	 	 	 	 	 	 	 	 	 	 	1581470275	8.44	15.63
12/02/2020 01:17:56	120220	12022020	011756	187.30	13.844690	-56.890747	187.53	0.610	0.440	0.750	187.30	-1.10	1.30	 	 	 	 	 	 	 	 	 	 	 	 	 	 	 	 	 	 	1581470276	8.05	14.91
12/02/2020 01:17:57	120220	12022020	011757	187.49	13.844652	-56.890753	187.72	0.100	0.350	1.180	187.49	-1.00	1.50	 	 	 	 	 	 	 	 	 	 	 	 	 	 	 	 	 	 	1581470277	8.32	15.41
12/02/2020 01:17:58	120220	12022020	011758	187.43	13.844610	-56.890765	187.65	-0.260	-0.490	2.150	187.43	-1.70	2.40	 	 	 	 	 	 	 	 	 	 	 	 	 	 	 	 	 	 	1581470278	9.37	17.35
12/02/2020 01:17:59	120220	12022020	011759	187.22	13.844567	-56.890780	187.44	-0.370	-1.190	3.090	187.22	-2.70	3.80	 	 	 	 	 	 	 	 	 	 	 	 	 	 	 	 	 	 	1581470279	9.79	18.13
12/02/2020 01:18:00	120220	12022020	011800	187.10	13.844527	-56.890793	187.31	-0.410	-1.140	3.590	187.09	-2.60	4.00	 	 	 	 	 	 	 	 	 	 	 	 	 	 	 	 	 	 	1581470280	9.19	17.02
12/02/2020 01:18:01	120220	12022020	011801	187.08	13.844488	-56.890805	187.32	-0.460	-0.640	3.500	187.08	-1.90	3.80	 	 	 	 	 	 	 	 	 	 	 	 	 	 	 	 	 	 	1581470281	8.55	15.83
12/02/2020 01:18:02	120220	12022020	011802	187.08	13.844450	-56.890813	187.30	-0.380	-0.220	2.880	187.08	-1.70	3.50	1017.70	26.00	26.10	20.60	20.70	-1.0	72.0	72.0	391.0	25.7	259.00	12.30	68.00	14.00	16	9088.0	27.2	27.1	1581470282	8.47	15.69
12/02/2020 01:18:03	120220	12022020	011803	187.10	13.844408	-56.890817	187.32	-0.150	-0.020	2.010	187.10	-1.50	2.70	 	 	 	 	 	 	 	 	 	 	 	 	 	 	 	 	 	 	1581470283	8.73	16.17
12/02/2020 01:18:04	120220	12022020	011804	187.10	13.844368	-56.890820	187.29	0.090	0.040	1.440	187.10	-1.40	2.00	 	 	 	 	 	 	 	 	 	 	 	 	 	 	 	 	 	 	1581470284	8.85	16.39
12/02/2020 01:18:05	120220	12022020	011805	186.88	13.844327	-56.890825	187.03	0.260	-0.120	1.310	186.88	-1.50	1.80	 	 	 	 	 	 	 	 	 	 	 	 	 	 	 	 	 	 	1581470285	8.99	16.65
12/02/2020 01:18:06	120220	12022020	011806	186.52	13.844283	-56.890830	186.67	0.340	-0.390	1.440	186.52	-1.80	1.90	 	 	 	 	 	 	 	 	 	 	 	 	 	 	 	 	 	 	1581470286	9.23	17.09
12/02/2020 01:18:07	120220	12022020	011807	186.21	13.844242	-56.890838	186.39	0.310	-0.440	1.790	186.21	-1.90	2.20	 	 	 	 	 	 	 	 	 	 	 	 	 	 	 	 	 	 	1581470287	9.25	17.13
12/02/2020 01:18:08	120220	12022020	011808	186.18	13.844202	-56.890848	186.41	0.140	0.040	2.180	186.18	-1.60	2.60	 	 	 	 	 	 	 	 	 	 	 	 	 	 	 	 	 	 	1581470288	8.80	16.30
12/02/2020 01:18:09	120220	12022020	011809	186.60	13.844165	-56.890858	186.92	-0.240	0.780	2.380	186.60	-0.80	2.80	 	 	 	 	 	 	 	 	 	 	 	 	 	 	 	 	 	 	1581470289	8.14	15.08
12/02/2020 01:18:10	120220	12022020	011810	187.32	13.844128	-56.890868	187.62	-0.600	1.050	2.390	187.32	-0.40	2.90	 	 	 	 	 	 	 	 	 	 	 	 	 	 	 	 	 	 	1581470290	8.05	14.91
12/02/2020 01:18:11	120220	12022020	011811	187.86	13.844090	-56.890878	188.10	-0.570	0.380	2.240	187.86	-0.80	2.80	 	 	 	 	 	 	 	 	 	 	 	 	 	 	 	 	 	 	1581470291	8.68	16.08
12/02/2020 01:18:12	120220	12022020	011812	188.03	13.844047	-56.890887	188.21	-0.030	-0.810	1.910	188.03	-2.00	2.50	 	 	 	 	 	 	 	 	 	 	 	 	 	 	 	 	 	 	1581470292	9.37	17.35
12/02/2020 01:18:13	120220	12022020	011813	187.81	13.844003	-56.890892	187.93	0.590	-1.780	1.720	187.81	-3.00	2.20	 	 	 	 	 	 	 	 	 	 	 	 	 	 	 	 	 	 	1581470293	9.48	17.56
12/02/2020 01:18:14	120220	12022020	011814	187.28	13.843960	-56.890895	187.39	0.810	-2.050	1.840	187.28	-3.50	2.30	 	 	 	 	 	 	 	 	 	 	 	 	 	 	 	 	 	 	1581470294	9.18	17.00
12/02/2020 01:18:15	120220	12022020	011815	186.69	13.843920	-56.890902	186.82	0.500	-1.560	2.130	186.69	-3.20	2.50	 	 	 	 	 	 	 	 	 	 	 	 	 	 	 	 	 	 	1581470295	8.72	16.15
12/02/2020 01:18:16	120220	12022020	011816	186.30	13.843882	-56.890910	186.48	-0.020	-0.540	2.300	186.30	-2.20	2.80	 	 	 	 	 	 	 	 	 	 	 	 	 	 	 	 	 	 	1581470296	8.42	15.59
12/02/2020 01:18:17	120220	12022020	011817	186.34	13.843845	-56.890918	186.59	-0.400	0.660	2.150	186.34	-1.10	2.70	 	 	 	 	 	 	 	 	 	 	 	 	 	 	 	 	 	 	1581470297	8.25	15.28
12/02/2020 01:18:18	120220	12022020	011818	186.86	13.843807	-56.890925	187.15	-0.590	1.420	1.780	186.86	-0.10	2.30	 	 	 	 	 	 	 	 	 	 	 	 	 	 	 	 	 	 	1581470298	8.28	15.33
12/02/2020 01:18:19	120220	12022020	011819	187.48	13.843767	-56.890933	187.73	-0.680	1.170	1.830	187.48	-0.10	2.20	 	 	 	 	 	 	 	 	 	 	 	 	 	 	 	 	 	 	1581470299	8.91	16.50
12/02/2020 01:18:20	120220	12022020	011820	187.71	13.843722	-56.890947	187.92	-0.590	0.100	2.350	187.71	-1.00	2.70	 	 	 	 	 	 	 	 	 	 	 	 	 	 	 	 	 	 	1581470300	9.77	18.09
12/02/2020 01:18:21	120220	12022020	011821	187.47	13.843678	-56.890960	187.64	-0.200	-0.810	2.900	187.47	-2.10	3.30	 	 	 	 	 	 	 	 	 	 	 	 	 	 	 	 	 	 	1581470301	9.95	18.43
12/02/2020 01:18:22	120220	12022020	011822	187.08	13.843637	-56.890972	187.25	0.360	-0.800	3.050	187.08	-2.30	3.50	 	 	 	 	 	 	 	 	 	 	 	 	 	 	 	 	 	 	1581470302	9.09	16.83
12/02/2020 01:18:23	120220	12022020	011823	186.85	13.843600	-56.890975	187.04	0.750	-0.200	2.550	186.85	-1.40	2.70	 	 	 	 	 	 	 	 	 	 	 	 	 	 	 	 	 	 	1581470303	8.13	15.06
12/02/2020 01:18:24	120220	12022020	011824	186.82	13.843562	-56.890977	187.01	0.780	0.100	1.740	186.82	-1.30	2.40	 	 	 	 	 	 	 	 	 	 	 	 	 	 	 	 	 	 	1581470304	8.13	15.06
12/02/2020 01:18:25	120220	12022020	011825	186.89	13.843522	-56.890977	187.07	0.580	-0.230	1.050	186.89	-1.50	1.70	 	 	 	 	 	 	 	 	 	 	 	 	 	 	 	 	 	 	1581470305	8.77	16.24
12/02/2020 01:18:26	120220	12022020	011826	187.02	13.843478	-56.890978	187.31	0.260	-0.720	0.720	187.08	-2.10	1.30	 	 	 	 	 	 	 	 	 	 	 	 	 	 	 	 	 	 	1581470306	9.16	16.96
12/02/2020 01:18:27	120220	12022020	011827	187.37	13.843437	-56.890985	187.60	-0.220	-0.980	1.130	187.37	-2.40	1.40	 	 	 	 	 	 	 	 	 	 	 	 	 	 	 	 	 	 	1581470307	8.94	16.56
12/02/2020 01:18:28	120220	12022020	011828	187.26	13.843398	-56.891000	187.44	-0.720	-1.100	2.290	187.26	-2.50	2.50	 	 	 	 	 	 	 	 	 	 	 	 	 	 	 	 	 	 	1581470308	9.02	16.71
12/02/2020 01:18:29	120220	12022020	011829	186.87	13.843357	-56.891017	187.04	-0.950	-1.120	3.320	186.87	-2.60	3.60	 	 	 	 	 	 	 	 	 	 	 	 	 	 	 	 	 	 	1581470309	9.42	17.45
12/02/2020 01:18:30	120220	12022020	011830	186.47	13.843317	-56.891033	186.63	-0.790	-0.790	3.850	186.47	-2.30	4.20	 	 	 	 	 	 	 	 	 	 	 	 	 	 	 	 	 	 	1581470310	9.36	17.33
12/02/2020 01:18:31	120220	12022020	011831	186.01	13.843277	-56.891045	186.17	-0.330	-0.170	3.930	186.01	-1.80	4.40	 	 	 	 	 	 	 	 	 	 	 	 	 	 	 	 	 	 	1581470311	9.09	16.83
12/02/2020 01:18:32	120220	12022020	011832	185.83	13.843237	-56.891052	186.05	0.140	0.690	3.290	185.83	-1.00	4.00	 	 	 	 	 	 	 	 	 	 	 	 	 	 	 	 	 	 	1581470312	8.72	16.15
12/02/2020 01:18:33	120220	12022020	011833	186.33	13.843198	-56.891053	186.63	0.330	1.550	2.060	186.33	-0.10	2.90	 	 	 	 	 	 	 	 	 	 	 	 	 	 	 	 	 	 	1581470313	8.25	15.28
12/02/2020 01:18:34	120220	12022020	011834	187.27	13.843160	-56.891052	187.55	0.350	1.690	0.760	187.27	0.30	1.50	 	 	 	 	 	 	 	 	 	 	 	 	 	 	 	 	 	 	1581470314	8.26	15.30
12/02/2020 01:18:35	120220	12022020	011835	188.09	13.843118	-56.891052	188.34	0.480	0.640	0.030	188.09	-1.50	0.50	 	 	 	 	 	 	 	 	 	 	 	 	 	 	 	 	 	 	1581470315	8.99	16.65
12/02/2020 01:18:36	120220	12022020	011836	188.49	13.843072	-56.891057	188.66	0.870	-1.170	0.270	188.49	-2.20	0.60	 	 	 	 	 	 	 	 	 	 	 	 	 	 	 	 	 	 	1581470316	9.79	18.13
12/02/2020 01:18:37	120220	12022020	011837	188.18	13.843027	-56.891065	188.28	1.150	-2.660	1.490	188.18	-4.30	2.60	 	 	 	 	 	 	 	 	 	 	 	 	 	 	 	 	 	 	1581470317	10.00	18.52
12/02/2020 01:18:38	120220	12022020	011838	187.35	13.842985	-56.891078	187.45	0.770	-2.710	3.020	187.35	-4.30	3.10	 	 	 	 	 	 	 	 	 	 	 	 	 	 	 	 	 	 	1581470318	9.33	17.28
12/02/2020 01:18:39	120220	12022020	011839	186.62	13.842950	-56.891093	186.80	-0.340	-1.210	4.280	186.62	-3.10	4.50	 	 	 	 	 	 	 	 	 	 	 	 	 	 	 	 	 	 	1581470319	8.16	15.11
12/02/2020 01:18:40	120220	12022020	011840	186.42	13.842918	-56.891110	186.65	-1.540	0.690	4.630	186.42	-1.20	5.10	 	 	 	 	 	 	 	 	 	 	 	 	 	 	 	 	 	 	1581470320	7.64	14.15
12/02/2020 01:18:41	120220	12022020	011841	186.83	13.842885	-56.891125	187.12	-1.920	1.630	3.920	186.83	0.10	4.60	 	 	 	 	 	 	 	 	 	 	 	 	 	 	 	 	 	 	1581470321	7.96	14.74
12/02/2020 01:18:42	120220	12022020	011842	187.46	13.842843	-56.891135	187.73	-1.110	0.970	2.600	187.46	-0.20	3.40	 	 	 	 	 	 	 	 	 	 	 	 	 	 	 	 	 	 	1581470322	9.24	17.11
12/02/2020 01:18:43	120220	12022020	011843	188.06	13.842795	-56.891140	188.32	0.290	-0.300	1.240	188.06	-1.50	2.00	 	 	 	 	 	 	 	 	 	 	 	 	 	 	 	 	 	 	1581470323	10.28	19.04
12/02/2020 01:18:44	120220	12022020	011844	188.72	13.842750	-56.891140	188.99	1.180	-0.820	0.310	188.72	-2.20	1.00	 	 	 	 	 	 	 	 	 	 	 	 	 	 	 	 	 	 	1581470324	9.75	18.06
12/02/2020 01:18:45	120220	12022020	011845	189.25	13.842710	-56.891143	189.45	1.080	-0.490	0.040	189.25	-2.00	0.50	 	 	 	 	 	 	 	 	 	 	 	 	 	 	 	 	 	 	1581470325	8.45	15.65
12/02/2020 01:18:46	120220	12022020	011846	189.33	13.842673	-56.891150	189.47	0.430	-0.220	0.660	189.33	-1.70	0.90	 	 	 	 	 	 	 	 	 	 	 	 	 	 	 	 	 	 	1581470326	8.07	14.95
12/02/2020 01:18:47	120220	12022020	011847	189.04	13.842635	-56.891163	189.16	-0.180	-0.300	1.930	189.04	-1.80	2.90	 	 	 	 	 	 	 	 	 	 	 	 	 	 	 	 	 	 	1581470327	8.65	16.02
12/02/2020 01:18:48	120220	12022020	011848	188.50	13.842597	-56.891180	188.61	-0.380	-0.470	3.070	188.50	-1.90	3.30	 	 	 	 	 	 	 	 	 	 	 	 	 	 	 	 	 	 	1581470328	9.10	16.85
12/02/2020 01:18:49	120220	12022020	011849	187.87	13.842557	-56.891195	187.98	-0.080	-0.540	3.570	187.87	-1.90	4.10	 	 	 	 	 	 	 	 	 	 	 	 	 	 	 	 	 	 	1581470329	9.15	16.95
12/02/2020 01:18:50	120220	12022020	011850	187.48	13.842517	-56.891203	187.57	0.350	-0.300	3.480	187.42	-1.80	4.00	 	 	 	 	 	 	 	 	 	 	 	 	 	 	 	 	 	 	1581470330	8.87	16.43
12/02/2020 01:18:51	120220	12022020	011851	187.35	13.842478	-56.891208	187.55	0.450	0.170	2.890	187.35	-1.10	3.10	 	 	 	 	 	 	 	 	 	 	 	 	 	 	 	 	 	 	1581470331	8.43	15.61
12/02/2020 01:18:52	120220	12022020	011852	187.53	13.842438	-56.891212	187.75	0.060	0.320	2.330	187.53	-1.10	2.90	 	 	 	 	 	 	 	 	 	 	 	 	 	 	 	 	 	 	1581470332	8.33	15.43
12/02/2020 01:18:53	120220	12022020	011853	187.61	13.842398	-56.891220	187.80	-0.440	-0.120	2.350	187.61	-1.40	2.80	 	 	 	 	 	 	 	 	 	 	 	 	 	 	 	 	 	 	1581470333	8.85	16.39
12/02/2020 01:18:54	120220	12022020	011854	187.46	13.842357	-56.891233	187.61	-0.590	-0.660	2.740	187.46	-2.00	3.10	 	 	 	 	 	 	 	 	 	 	 	 	 	 	 	 	 	 	1581470334	9.35	17.32
12/02/2020 01:18:55	120220	12022020	011855	187.25	13.842318	-56.891248	187.40	-0.270	-0.700	2.960	187.25	-2.20	3.40	 	 	 	 	 	 	 	 	 	 	 	 	 	 	 	 	 	 	1581470335	9.05	16.76
12/02/2020 01:18:56	120220	12022020	011856	187.20	13.842280	-56.891258	187.37	0.180	-0.290	2.700	187.20	-1.80	3.30	 	 	 	 	 	 	 	 	 	 	 	 	 	 	 	 	 	 	1581470336	8.33	15.43
12/02/2020 01:18:57	120220	12022020	011857	187.24	13.842243	-56.891263	187.40	0.440	0.030	2.120	187.24	-1.40	2.80	 	 	 	 	 	 	 	 	 	 	 	 	 	 	 	 	 	 	1581470337	8.12	15.04
12/02/2020 01:18:58	120220	12022020	011858	187.20	13.842203	-56.891267	187.35	0.510	-0.120	1.530	187.20	-1.50	2.10	 	 	 	 	 	 	 	 	 	 	 	 	 	 	 	 	 	 	1581470338	8.55	15.83
12/02/2020 01:18:59	120220	12022020	011859	187.13	13.842162	-56.891272	187.29	0.490	-0.430	1.200	187.13	-1.80	1.80	 	 	 	 	 	 	 	 	 	 	 	 	 	 	 	 	 	 	1581470339	8.91	16.50
12/02/2020 01:19:00	120220	12022020	011900	187.09	13.842122	-56.891277	187.28	0.440	-0.530	1.250	187.09	-1.90	1.70	 	 	 	 	 	 	 	 	 	 	 	 	 	 	 	 	 	 	1581470340	8.79	16.28
12/02/2020 01:19:01	120220	12022020	011901	187.09	13.842082	-56.891283	187.29	0.340	-0.510	1.540	187.09	-1.90	2.00	 	 	 	 	 	 	 	 	 	 	 	 	 	 	 	 	 	 	1581470341	8.68	16.08
12/02/2020 01:19:02	120220	12022020	011902	187.05	13.842042	-56.891292	187.23	0.150	-0.500	2.040	187.05	-1.90	2.40	1017.70	26.10	26.10	20.80	20.80	-1.0	72.0	72.0	392.0	25.7	263.00	11.20	70.00	12.60	16	8742.0	27.2	27.2	1581470342	8.80	16.30
12/02/2020 01:19:03	120220	12022020	011903	187.03	13.842002	-56.891302	187.26	-0.160	-0.420	2.590	187.03	-1.90	3.00	 	 	 	 	 	 	 	 	 	 	 	 	 	 	 	 	 	 	1581470343	8.96	16.59
12/02/2020 01:19:04	120220	12022020	011904	187.32	13.841962	-56.891312	187.59	-0.630	-0.100	2.930	187.32	-1.60	3.30	 	 	 	 	 	 	 	 	 	 	 	 	 	 	 	 	 	 	1581470344	8.69	16.09
12/02/2020 01:19:05	120220	12022020	011905	187.79	13.841925	-56.891325	188.04	-1.010	0.150	3.130	187.79	-1.30	3.60	 	 	 	 	 	 	 	 	 	 	 	 	 	 	 	 	 	 	1581470345	8.53	15.80
12/02/2020 01:19:06	120220	12022020	011906	188.03	13.841885	-56.891338	188.23	-0.910	-0.060	3.080	188.05	-1.40	3.60	 	 	 	 	 	 	 	 	 	 	 	 	 	 	 	 	 	 	1581470346	8.90	16.48
12/02/2020 01:19:07	120220	12022020	011907	187.86	13.841843	-56.891348	187.99	-0.290	-0.510	2.840	187.86	-1.80	3.40	 	 	 	 	 	 	 	 	 	 	 	 	 	 	 	 	 	 	1581470347	9.30	17.22
12/02/2020 01:19:08	120220	12022020	011908	187.48	13.841800	-56.891355	187.62	0.420	-0.570	2.470	187.48	-2.00	3.10	 	 	 	 	 	 	 	 	 	 	 	 	 	 	 	 	 	 	1581470348	9.20	17.04
12/02/2020 01:19:09	120220	12022020	011909	187.44	13.841762	-56.891357	187.65	0.620	0.040	1.600	187.44	-1.60	2.30	 	 	 	 	 	 	 	 	 	 	 	 	 	 	 	 	 	 	1581470349	8.47	15.69
12/02/2020 01:19:10	120220	12022020	011910	187.76	13.841725	-56.891357	187.99	0.230	0.650	0.780	187.76	-0.90	1.40	 	 	 	 	 	 	 	 	 	 	 	 	 	 	 	 	 	 	1581470350	7.91	14.65
12/02/2020 01:19:11	120220	12022020	011911	188.14	13.841687	-56.891363	188.33	-0.180	0.590	0.680	188.14	-0.70	1.10	 	 	 	 	 	 	 	 	 	 	 	 	 	 	 	 	 	 	1581470351	8.21	15.20
12/02/2020 01:19:12	120220	12022020	011912	188.21	13.841647	-56.891375	188.36	0.010	-0.180	1.050	188.21	-1.40	1.40	 	 	 	 	 	 	 	 	 	 	 	 	 	 	 	 	 	 	1581470352	9.03	16.72
12/02/2020 01:19:13	120220	12022020	011913	187.99	13.841603	-56.891385	188.13	0.700	-0.990	1.530	187.99	-2.60	2.20	 	 	 	 	 	 	 	 	 	 	 	 	 	 	 	 	 	 	1581470353	9.48	17.56
12/02/2020 01:19:14	120220	12022020	011914	187.67	13.841562	-56.891393	187.85	1.150	-1.180	1.980	187.67	-2.60	2.40	 	 	 	 	 	 	 	 	 	 	 	 	 	 	 	 	 	 	1581470354	9.13	16.91
12/02/2020 01:19:15	120220	12022020	011915	187.54	13.841523	-56.891400	187.77	0.780	-0.640	2.220	187.54	-1.70	2.80	 	 	 	 	 	 	 	 	 	 	 	 	 	 	 	 	 	 	1581470355	8.37	15.50
12/02/2020 01:19:16	120220	12022020	011916	187.72	13.841488	-56.891408	187.98	-0.200	0.130	2.380	187.72	-1.50	2.80	 	 	 	 	 	 	 	 	 	 	 	 	 	 	 	 	 	 	1581470356	7.83	14.50
12/02/2020 01:19:17	120220	12022020	011917	187.97	13.841452	-56.891420	188.22	-1.070	0.440	2.590	187.97	-1.00	3.00	 	 	 	 	 	 	 	 	 	 	 	 	 	 	 	 	 	 	1581470357	8.06	14.93
12/02/2020 01:19:18	120220	12022020	011918	188.01	13.841413	-56.891435	188.20	-1.180	-0.120	2.780	187.99	-1.30	3.20	 	 	 	 	 	 	 	 	 	 	 	 	 	 	 	 	 	 	1581470358	9.02	16.71
12/02/2020 01:19:19	120220	12022020	011919	187.87	13.841368	-56.891448	188.08	-0.620	-0.940	2.770	187.87	-2.20	3.30	 	 	 	 	 	 	 	 	 	 	 	 	 	 	 	 	 	 	1581470359	9.75	18.06
12/02/2020 01:19:20	120220	12022020	011920	187.94	13.841327	-56.891458	188.19	0.020	-1.050	2.330	187.94	-2.50	3.00	 	 	 	 	 	 	 	 	 	 	 	 	 	 	 	 	 	 	1581470360	9.34	17.30
12/02/2020 01:19:21	120220	12022020	011921	188.32	13.841288	-56.891462	188.58	0.230	-0.350	1.540	188.32	-2.00	2.20	 	 	 	 	 	 	 	 	 	 	 	 	 	 	 	 	 	 	1581470361	8.25	15.28
12/02/2020 01:19:22	120220	12022020	011922	188.54	13.841252	-56.891465	188.73	0.100	0.160	1.170	188.54	-1.30	1.70	 	 	 	 	 	 	 	 	 	 	 	 	 	 	 	 	 	 	1581470362	7.98	14.78
12/02/2020 01:19:23	120220	12022020	011923	188.19	13.841212	-56.891472	188.30	0.100	-0.150	1.570	188.19	-1.40	1.90	 	 	 	 	 	 	 	 	 	 	 	 	 	 	 	 	 	 	1581470363	8.84	16.37
12/02/2020 01:19:24	120220	12022020	011924	187.52	13.841167	-56.891480	187.65	0.320	-0.650	2.190	187.52	-2.00	2.50	 	 	 	 	 	 	 	 	 	 	 	 	 	 	 	 	 	 	1581470364	9.62	17.82
12/02/2020 01:19:25	120220	12022020	011925	187.00	13.841125	-56.891490	187.18	0.330	-0.460	2.760	187.00	-2.00	3.10	 	 	 	 	 	 	 	 	 	 	 	 	 	 	 	 	 	 	1581470365	9.17	16.98
12/02/2020 01:19:26	120220	12022020	011926	186.72	13.841088	-56.891500	186.94	-0.100	0.250	3.040	186.72	-1.30	3.50	 	 	 	 	 	 	 	 	 	 	 	 	 	 	 	 	 	 	1581470366	8.42	15.59
12/02/2020 01:19:27	120220	12022020	011927	186.82	13.841052	-56.891512	187.08	-0.670	0.990	2.850	186.82	-0.20	3.20	 	 	 	 	 	 	 	 	 	 	 	 	 	 	 	 	 	 	1581470367	8.03	14.87
12/02/2020 01:19:28	120220	12022020	011928	187.36	13.841017	-56.891522	187.62	-0.880	1.270	2.380	187.36	-0.10	3.00	 	 	 	 	 	 	 	 	 	 	 	 	 	 	 	 	 	 	1581470368	7.95	14.72
12/02/2020 01:19:29	120220	12022020	011929	187.87	13.840978	-56.891532	188.08	-0.340	0.630	1.930	187.87	-0.50	2.50	 	 	 	 	 	 	 	 	 	 	 	 	 	 	 	 	 	 	1581470369	8.49	15.72
12/02/2020 01:19:30	120220	12022020	011930	188.09	13.840935	-56.891540	188.27	0.630	-0.580	1.570	188.09	-1.70	2.10	 	 	 	 	 	 	 	 	 	 	 	 	 	 	 	 	 	 	1581470370	9.25	17.13
12/02/2020 01:19:31	120220	12022020	011931	188.25	13.840893	-56.891547	188.44	1.250	-1.360	1.470	188.25	-2.70	1.90	 	 	 	 	 	 	 	 	 	 	 	 	 	 	 	 	 	 	1581470371	9.10	16.85
12/02/2020 01:19:32	120220	12022020	011932	188.38	13.840857	-56.891553	188.58	1.050	-1.320	1.690	188.38	-2.80	2.10	 	 	 	 	 	 	 	 	 	 	 	 	 	 	 	 	 	 	1581470372	8.19	15.17
12/02/2020 01:19:33	120220	12022020	011933	188.30	13.840822	-56.891560	188.46	0.370	-0.980	2.060	188.30	-2.50	2.40	 	 	 	 	 	 	 	 	 	 	 	 	 	 	 	 	 	 	1581470373	7.75	14.35
12/02/2020 01:19:34	120220	12022020	011934	187.88	13.840783	-56.891568	188.01	-0.160	-0.920	2.580	187.88	-2.30	2.90	 	 	 	 	 	 	 	 	 	 	 	 	 	 	 	 	 	 	1581470374	8.24	15.26
12/02/2020 01:19:35	120220	12022020	011935	187.22	13.840743	-56.891580	187.35	-0.330	-1.020	3.200	187.22	-2.40	3.50	 	 	 	 	 	 	 	 	 	 	 	 	 	 	 	 	 	 	1581470375	8.98	16.63
12/02/2020 01:19:36	120220	12022020	011936	186.64	13.840702	-56.891590	186.78	-0.390	-0.860	3.500	186.64	-2.30	4.00	 	 	 	 	 	 	 	 	 	 	 	 	 	 	 	 	 	 	1581470376	9.20	17.04
12/02/2020 01:19:37	120220	12022020	011937	186.40	13.840662	-56.891600	186.61	-0.580	-0.200	3.440	186.40	-1.80	4.00	 	 	 	 	 	 	 	 	 	 	 	 	 	 	 	 	 	 	1581470377	8.86	16.41
12/02/2020 01:19:38	120220	12022020	011938	186.62	13.840625	-56.891610	186.87	-0.830	0.710	3.010	186.62	-0.90	3.60	 	 	 	 	 	 	 	 	 	 	 	 	 	 	 	 	 	 	1581470378	8.35	15.46
12/02/2020 01:19:39	120220	12022020	011939	187.15	13.840587	-56.891618	187.43	-0.830	1.300	2.340	187.15	-0.10	2.60	 	 	 	 	 	 	 	 	 	 	 	 	 	 	 	 	 	 	1581470379	8.14	15.08
12/02/2020 01:19:40	120220	12022020	011940	187.72	13.840548	-56.891625	187.97	-0.420	1.160	1.780	187.72	-0.20	2.40	 	 	 	 	 	 	 	 	 	 	 	 	 	 	 	 	 	 	1581470380	8.44	15.63
12/02/2020 01:19:41	120220	12022020	011941	188.03	13.840507	-56.891630	188.25	0.220	0.330	1.500	188.03	-1.50	2.00	 	 	 	 	 	 	 	 	 	 	 	 	 	 	 	 	 	 	1581470381	8.98	16.63
12/02/2020 01:19:42	120220	12022020	011942	188.10	13.840465	-56.891637	188.30	0.700	-0.550	1.510	188.10	-1.80	2.00	 	 	 	 	 	 	 	 	 	 	 	 	 	 	 	 	 	 	1581470382	9.12	16.89
12/02/2020 01:19:43	120220	12022020	011943	187.97	13.840427	-56.891647	188.15	0.750	-0.910	1.810	187.97	-2.30	2.20	 	 	 	 	 	 	 	 	 	 	 	 	 	 	 	 	 	 	1581470383	8.62	15.96
12/02/2020 01:19:44	120220	12022020	011944	187.74	13.840390	-56.891657	187.94	0.450	-0.670	2.160	187.74	-2.20	2.60	 	 	 	 	 	 	 	 	 	 	 	 	 	 	 	 	 	 	1581470384	8.01	14.83
12/02/2020 01:19:45	120220	12022020	011945	187.55	13.840357	-56.891667	187.76	0.100	-0.200	2.300	187.55	-1.70	2.80	 	 	 	 	 	 	 	 	 	 	 	 	 	 	 	 	 	 	1581470385	7.66	14.19
12/02/2020 01:19:46	120220	12022020	011946	187.52	13.840320	-56.891675	187.74	0.020	-0.070	2.060	187.52	-1.40	2.60	 	 	 	 	 	 	 	 	 	 	 	 	 	 	 	 	 	 	1581470386	7.84	14.52
12/02/2020 01:19:47	120220	12022020	011947	187.54	13.840282	-56.891680	187.73	0.250	-0.580	1.780	187.54	-1.80	2.30	 	 	 	 	 	 	 	 	 	 	 	 	 	 	 	 	 	 	1581470387	8.58	15.89
12/02/2020 01:19:48	120220	12022020	011948	187.41	13.840238	-56.891687	187.57	0.470	-1.270	1.930	187.41	-2.50	2.30	 	 	 	 	 	 	 	 	 	 	 	 	 	 	 	 	 	 	1581470388	9.18	17.00
12/02/2020 01:19:49	120220	12022020	011949	187.05	13.840198	-56.891697	187.19	0.370	-1.390	2.470	187.05	-2.80	2.80	 	 	 	 	 	 	 	 	 	 	 	 	 	 	 	 	 	 	1581470389	9.05	16.76
12/02/2020 01:19:50	120220	12022020	011950	186.65	13.840160	-56.891707	186.84	-0.060	-0.710	3.010	186.65	-2.30	3.40	 	 	 	 	 	 	 	 	 	 	 	 	 	 	 	 	 	 	1581470390	8.43	15.61
12/02/2020 01:19:51	120220	12022020	011951	186.47	13.840125	-56.891717	186.71	-0.560	0.280	3.300	186.47	-1.40	3.70	 	 	 	 	 	 	 	 	 	 	 	 	 	 	 	 	 	 	1581470391	7.98	14.78
12/02/2020 01:19:52	120220	12022020	011952	186.55	13.840088	-56.891727	186.83	-0.870	0.920	3.290	186.55	-0.60	3.80	 	 	 	 	 	 	 	 	 	 	 	 	 	 	 	 	 	 	1581470392	8.06	14.93
12/02/2020 01:19:53	120220	12022020	011953	186.85	13.840050	-56.891738	187.15	-0.860	0.970	2.950	186.85	-0.40	3.60	 	 	 	 	 	 	 	 	 	 	 	 	 	 	 	 	 	 	1581470393	8.47	15.69
12/02/2020 01:19:54	120220	12022020	011954	187.34	13.840012	-56.891745	187.77	-0.550	0.690	2.130	187.48	-0.60	2.80	 	 	 	 	 	 	 	 	 	 	 	 	 	 	 	 	 	 	1581470394	8.57	15.87
12/02/2020 01:19:55	120220	12022020	011955	188.14	13.839972	-56.891752	188.37	-0.030	0.110	1.360	188.14	-1.10	2.00	 	 	 	 	 	 	 	 	 	 	 	 	 	 	 	 	 	 	1581470395	8.48	15.70
12/02/2020 01:19:56	120220	12022020	011956	188.21	13.839932	-56.891755	188.36	0.630	-0.870	1.150	188.21	-2.00	1.60	 	 	 	 	 	 	 	 	 	 	 	 	 	 	 	 	 	 	1581470396	8.82	16.33
12/02/2020 01:19:57	120220	12022020	011957	187.68	13.839888	-56.891760	187.78	1.050	-1.670	1.530	187.68	-2.90	1.90	 	 	 	 	 	 	 	 	 	 	 	 	 	 	 	 	 	 	1581470397	9.14	16.93
12/02/2020 01:19:58	120220	12022020	011958	187.03	13.839850	-56.891767	187.19	0.810	-1.510	2.290	187.03	-3.00	2.60	 	 	 	 	 	 	 	 	 	 	 	 	 	 	 	 	 	 	1581470398	8.56	15.85
12/02/2020 01:19:59	120220	12022020	011959	186.57	13.839813	-56.891778	186.77	0.090	-0.700	2.910	186.57	-2.30	3.30	 	 	 	 	 	 	 	 	 	 	 	 	 	 	 	 	 	 	1581470399	7.94	14.70
12/02/2020 01:20:00	120220	12022020	012000	186.24	13.839778	-56.891790	186.45	-0.490	0.020	3.190	186.24	-1.50	3.60	 	 	 	 	 	 	 	 	 	 	 	 	 	 	 	 	 	 	1581470400	8.04	14.89
12/02/2020 01:20:01	120220	12022020	012001	186.08	13.839740	-56.891800	186.32	-0.590	0.480	3.150	186.08	-1.00	3.70	 	 	 	 	 	 	 	 	 	 	 	 	 	 	 	 	 	 	1581470401	8.43	15.61
12/02/2020 01:20:02	120220	12022020	012002	186.33	13.839702	-56.891808	186.63	-0.400	0.740	2.750	186.33	-0.70	3.30	1017.60	26.10	26.10	20.70	20.80	-1.0	72.0	72.0	390.0	25.7	262.00	11.20	69.00	12.60	16	8921.0	27.2	27.2	1581470402	8.41	15.58
12/02/2020 01:20:03	120220	12022020	012003	186.91	13.839663	-56.891815	187.22	-0.270	0.660	2.250	186.91	-0.90	2.50	 	 	 	 	 	 	 	 	 	 	 	 	 	 	 	 	 	 	1581470403	8.47	15.69
12/02/2020 01:20:04	120220	12022020	012004	187.74	13.839625	-56.891823	188.09	-0.280	0.400	1.820	187.74	-0.90	2.40	 	 	 	 	 	 	 	 	 	 	 	 	 	 	 	 	 	 	1581470404	8.40	15.56
12/02/2020 01:20:05	120220	12022020	012005	188.53	13.839588	-56.891832	188.83	-0.190	0.160	1.550	188.53	-1.40	2.00	 	 	 	 	 	 	 	 	 	 	 	 	 	 	 	 	 	 	1581470405	8.09	14.98
12/02/2020 01:20:06	120220	12022020	012006	188.93	13.839552	-56.891840	189.15	0.260	-0.250	1.360	188.93	-1.50	1.90	 	 	 	 	 	 	 	 	 	 	 	 	 	 	 	 	 	 	1581470406	7.99	14.80
12/02/2020 01:20:07	120220	12022020	012007	188.88	13.839513	-56.891843	189.03	0.870	-0.890	1.300	188.88	-2.10	1.80	 	 	 	 	 	 	 	 	 	 	 	 	 	 	 	 	 	 	1581470407	8.33	15.43
12/02/2020 01:20:08	120220	12022020	012008	188.42	13.839473	-56.891848	188.51	1.160	-1.500	1.640	188.42	-2.80	2.00	 	 	 	 	 	 	 	 	 	 	 	 	 	 	 	 	 	 	1581470408	8.63	15.98
12/02/2020 01:20:09	120220	12022020	012009	187.68	13.839433	-56.891855	187.78	0.900	-1.750	2.070	187.68	-3.20	2.50	 	 	 	 	 	 	 	 	 	 	 	 	 	 	 	 	 	 	1581470409	8.79	16.28
12/02/2020 01:20:10	120220	12022020	012010	187.14	13.839395	-56.891863	187.30	0.140	-1.110	2.330	187.14	-2.70	2.80	 	 	 	 	 	 	 	 	 	 	 	 	 	 	 	 	 	 	1581470410	8.34	15.45
12/02/2020 01:20:11	120220	12022020	012011	187.12	13.839362	-56.891873	187.35	-0.710	0.090	2.370	187.12	-1.60	2.90	 	 	 	 	 	 	 	 	 	 	 	 	 	 	 	 	 	 	1581470411	7.67	14.20
12/02/2020 01:20:12	120220	12022020	012012	187.52	13.839327	-56.891883	187.77	-1.250	0.880	2.300	187.52	-0.60	2.80	 	 	 	 	 	 	 	 	 	 	 	 	 	 	 	 	 	 	1581470412	7.72	14.30
12/02/2020 01:20:13	120220	12022020	012013	187.94	13.839288	-56.891895	188.20	-1.290	0.650	2.330	187.94	-0.60	2.80	 	 	 	 	 	 	 	 	 	 	 	 	 	 	 	 	 	 	1581470413	8.70	16.11
12/02/2020 01:20:14	120220	12022020	012014	188.30	13.839247	-56.891910	188.55	-0.880	-0.120	2.460	188.30	-1.30	2.90	 	 	 	 	 	 	 	 	 	 	 	 	 	 	 	 	 	 	1581470414	9.51	17.61
12/02/2020 01:20:15	120220	12022020	012015	188.56	13.839205	-56.891923	188.79	-0.310	-0.450	2.420	188.56	-1.70	2.80	 	 	 	 	 	 	 	 	 	 	 	 	 	 	 	 	 	 	1581470415	9.23	17.09
12/02/2020 01:20:16	120220	12022020	012016	188.75	13.839168	-56.891930	188.95	0.170	0.050	2.010	188.75	-1.50	2.60	 	 	 	 	 	 	 	 	 	 	 	 	 	 	 	 	 	 	1581470416	8.04	14.89
12/02/2020 01:20:17	120220	12022020	012017	188.86	13.839133	-56.891933	189.04	0.460	0.580	1.500	188.86	-0.80	1.90	 	 	 	 	 	 	 	 	 	 	 	 	 	 	 	 	 	 	1581470417	7.50	13.89
12/02/2020 01:20:18	120220	12022020	012018	188.83	13.839097	-56.891937	189.01	0.610	0.440	1.230	188.83	-0.90	1.80	 	 	 	 	 	 	 	 	 	 	 	 	 	 	 	 	 	 	1581470418	7.94	14.70
12/02/2020 01:20:19	120220	12022020	012019	188.79	13.839058	-56.891942	188.98	0.690	-0.150	1.160	188.79	-1.40	1.70	 	 	 	 	 	 	 	 	 	 	 	 	 	 	 	 	 	 	1581470419	8.50	15.74
12/02/2020 01:20:20	120220	12022020	012020	188.74	13.839018	-56.891948	188.93	0.680	-0.650	1.360	188.74	-1.90	1.80	 	 	 	 	 	 	 	 	 	 	 	 	 	 	 	 	 	 	1581470420	8.50	15.74
12/02/2020 01:20:21	120220	12022020	012021	188.69	13.838982	-56.891957	188.90	0.550	-0.800	1.790	188.69	-2.20	2.20	 	 	 	 	 	 	 	 	 	 	 	 	 	 	 	 	 	 	1581470421	8.21	15.20
12/02/2020 01:20:22	120220	12022020	012022	188.69	13.838947	-56.891967	188.88	0.250	-0.710	2.340	188.69	-2.10	2.70	 	 	 	 	 	 	 	 	 	 	 	 	 	 	 	 	 	 	1581470422	7.95	14.72
12/02/2020 01:20:23	120220	12022020	012023	188.51	13.838910	-56.891978	188.68	-0.140	-0.750	2.920	188.51	-2.10	3.20	 	 	 	 	 	 	 	 	 	 	 	 	 	 	 	 	 	 	1581470423	8.14	15.08
12/02/2020 01:20:24	120220	12022020	012024	188.15	13.838872	-56.891992	188.35	-0.430	-1.000	3.390	188.15	-2.30	3.80	 	 	 	 	 	 	 	 	 	 	 	 	 	 	 	 	 	 	1581470424	8.72	16.15
12/02/2020 01:20:25	120220	12022020	012025	188.03	13.838832	-56.892003	188.26	-0.550	-1.020	3.360	188.03	-2.40	3.90	 	 	 	 	 	 	 	 	 	 	 	 	 	 	 	 	 	 	1581470425	8.91	16.50
12/02/2020 01:20:26	120220	12022020	012026	188.27	13.838795	-56.892013	188.52	-0.530	-0.410	2.710	188.27	-2.00	3.40	 	 	 	 	 	 	 	 	 	 	 	 	 	 	 	 	 	 	1581470426	8.33	15.43
12/02/2020 01:20:27	120220	12022020	012027	188.73	13.838758	-56.892018	188.98	-0.400	0.450	1.780	188.73	-1.10	2.50	 	 	 	 	 	 	 	 	 	 	 	 	 	 	 	 	 	 	1581470427	7.74	14.33
12/02/2020 01:20:28	120220	12022020	012028	189.27	13.838722	-56.892022	189.52	-0.160	0.860	0.980	189.27	-0.60	1.60	 	 	 	 	 	 	 	 	 	 	 	 	 	 	 	 	 	 	1581470428	7.90	14.63
12/02/2020 01:20:29	120220	12022020	012029	189.64	13.838683	-56.892025	189.83	0.110	0.450	0.670	189.64	-1.30	1.20	 	 	 	 	 	 	 	 	 	 	 	 	 	 	 	 	 	 	1581470429	8.57	15.87
12/02/2020 01:20:30	120220	12022020	012030	189.65	13.838640	-56.892033	189.83	0.300	-0.360	1.050	189.65	-1.60	1.40	 	 	 	 	 	 	 	 	 	 	 	 	 	 	 	 	 	 	1581470430	9.14	16.93
12/02/2020 01:20:31	120220	12022020	012031	189.53	13.838600	-56.892043	189.73	0.320	-0.710	1.730	189.53	-1.90	2.40	 	 	 	 	 	 	 	 	 	 	 	 	 	 	 	 	 	 	1581470431	8.97	16.61
12/02/2020 01:20:32	120220	12022020	012032	189.61	13.838565	-56.892055	189.84	0.240	-0.040	2.140	189.61	-1.70	2.50	 	 	 	 	 	 	 	 	 	 	 	 	 	 	 	 	 	 	1581470432	7.85	14.54
12/02/2020 01:20:33	120220	12022020	012033	189.81	13.838533	-56.892062	190.03	0.170	0.650	2.240	189.81	-0.80	2.70	 	 	 	 	 	 	 	 	 	 	 	 	 	 	 	 	 	 	1581470433	7.09	13.13
12/02/2020 01:20:34	120220	12022020	012034	189.81	13.838497	-56.892070	190.00	0.150	0.250	2.400	189.81	-0.90	2.80	 	 	 	 	 	 	 	 	 	 	 	 	 	 	 	 	 	 	1581470434	7.98	14.78
12/02/2020 01:20:35	120220	12022020	012035	189.64	13.838457	-56.892080	189.82	0.100	-0.780	2.730	189.64	-1.90	3.10	 	 	 	 	 	 	 	 	 	 	 	 	 	 	 	 	 	 	1581470435	9.02	16.71
12/02/2020 01:20:36	120220	12022020	012036	189.44	13.838417	-56.892093	189.63	-0.010	-1.400	3.120	189.44	-2.70	3.50	 	 	 	 	 	 	 	 	 	 	 	 	 	 	 	 	 	 	1581470436	9.03	16.72
12/02/2020 01:20:37	120220	12022020	012037	189.36	13.838380	-56.892107	189.56	-0.130	-1.260	3.230	189.36	-2.70	3.70	 	 	 	 	 	 	 	 	 	 	 	 	 	 	 	 	 	 	1581470437	8.37	15.50
12/02/2020 01:20:38	120220	12022020	012038	189.29	13.838345	-56.892117	189.48	-0.120	-0.740	2.870	189.29	-2.30	3.40	 	 	 	 	 	 	 	 	 	 	 	 	 	 	 	 	 	 	1581470438	7.91	14.65
12/02/2020 01:20:39	120220	12022020	012039	189.33	13.838308	-56.892123	189.55	-0.000	-0.220	2.060	189.33	-1.70	2.70	 	 	 	 	 	 	 	 	 	 	 	 	 	 	 	 	 	 	1581470439	8.00	14.82
12/02/2020 01:20:40	120220	12022020	012040	189.82	13.838270	-56.892127	190.08	-0.030	0.310	1.070	189.82	-1.20	1.70	 	 	 	 	 	 	 	 	 	 	 	 	 	 	 	 	 	 	1581470440	8.00	14.82
12/02/2020 01:20:41	120220	12022020	012041	190.42	13.838233	-56.892132	190.64	-0.190	0.560	0.620	190.42	-0.90	1.10	 	 	 	 	 	 	 	 	 	 	 	 	 	 	 	 	 	 	1581470441	7.95	14.72
12/02/2020 01:20:42	120220	12022020	012042	190.66	13.838195	-56.892140	190.83	-0.180	0.230	0.850	190.66	-1.00	1.20	 	 	 	 	 	 	 	 	 	 	 	 	 	 	 	 	 	 	1581470442	8.45	15.65
12/02/2020 01:20:43	120220	12022020	012043	190.53	13.838155	-56.892150	190.67	0.090	-0.390	1.320	190.53	-1.70	1.70	 	 	 	 	 	 	 	 	 	 	 	 	 	 	 	 	 	 	1581470443	8.99	16.65
12/02/2020 01:20:44	120220	12022020	012044	190.30	13.838115	-56.892160	190.40	0.400	-0.610	1.780	190.25	-2.00	2.20	 	 	 	 	 	 	 	 	 	 	 	 	 	 	 	 	 	 	1581470444	8.86	16.41
12/02/2020 01:20:45	120220	12022020	012045	190.19	13.838077	-56.892168	190.39	0.450	-0.250	1.920	190.19	-1.80	2.40	 	 	 	 	 	 	 	 	 	 	 	 	 	 	 	 	 	 	1581470445	8.17	15.13
12/02/2020 01:20:46	120220	12022020	012046	190.39	13.838043	-56.892175	190.61	0.100	0.250	1.890	190.39	-1.30	2.30	 	 	 	 	 	 	 	 	 	 	 	 	 	 	 	 	 	 	1581470446	7.66	14.19
12/02/2020 01:20:47	120220	12022020	012047	190.60	13.838008	-56.892185	190.82	-0.440	0.360	2.080	190.60	-1.00	2.50	 	 	 	 	 	 	 	 	 	 	 	 	 	 	 	 	 	 	1581470447	7.78	14.41
12/02/2020 01:20:48	120220	12022020	012048	190.67	13.837972	-56.892200	190.87	-0.730	-0.080	2.480	190.67	-1.30	2.80	 	 	 	 	 	 	 	 	 	 	 	 	 	 	 	 	 	 	1581470448	8.37	15.50
12/02/2020 01:20:49	120220	12022020	012049	190.54	13.837933	-56.892215	190.73	-0.450	-0.740	2.640	190.54	-2.00	3.10	 	 	 	 	 	 	 	 	 	 	 	 	 	 	 	 	 	 	1581470449	8.85	16.39
12/02/2020 01:20:50	120220	12022020	012050	190.39	13.837893	-56.892227	190.60	0.160	-1.080	2.290	190.39	-2.40	2.90	 	 	 	 	 	 	 	 	 	 	 	 	 	 	 	 	 	 	1581470450	8.72	16.15
12/02/2020 01:20:51	120220	12022020	012051	190.45	13.837857	-56.892232	190.67	0.500	-0.830	1.740	190.45	-2.30	2.30	 	 	 	 	 	 	 	 	 	 	 	 	 	 	 	 	 	 	1581470451	8.18	15.15
12/02/2020 01:20:52	120220	12022020	012052	190.56	13.837820	-56.892237	190.73	0.370	-0.350	1.290	190.56	-1.80	1.90	 	 	 	 	 	 	 	 	 	 	 	 	 	 	 	 	 	 	1581470452	7.76	14.37
12/02/2020 01:20:53	120220	12022020	012053	190.41	13.837783	-56.892243	190.55	0.090	-0.160	1.200	190.41	-1.60	1.80	 	 	 	 	 	 	 	 	 	 	 	 	 	 	 	 	 	 	1581470453	8.04	14.89
12/02/2020 01:20:54	120220	12022020	012054	190.08	13.837745	-56.892253	190.23	-0.020	-0.240	1.580	190.08	-1.60	1.90	 	 	 	 	 	 	 	 	 	 	 	 	 	 	 	 	 	 	1581470454	8.57	15.87
12/02/2020 01:20:55	120220	12022020	012055	189.93	13.837707	-56.892265	190.15	0.030	-0.090	1.890	189.93	-1.30	2.30	 	 	 	 	 	 	 	 	 	 	 	 	 	 	 	 	 	 	1581470455	8.65	16.02
12/02/2020 01:20:56	120220	12022020	012056	190.15	13.837670	-56.892275	190.51	-0.030	0.470	1.810	190.24	-1.10	2.30	 	 	 	 	 	 	 	 	 	 	 	 	 	 	 	 	 	 	1581470456	7.97	14.76
12/02/2020 01:20:57	120220	12022020	012057	190.75	13.837635	-56.892283	191.01	-0.270	0.710	1.760	190.75	-0.70	2.20	 	 	 	 	 	 	 	 	 	 	 	 	 	 	 	 	 	 	1581470457	7.74	14.33
12/02/2020 01:20:58	120220	12022020	012058	191.10	13.837598	-56.892295	191.32	-0.450	0.120	1.910	191.10	-1.10	2.30	 	 	 	 	 	 	 	 	 	 	 	 	 	 	 	 	 	 	1581470458	8.43	15.61
12/02/2020 01:20:59	120220	12022020	012059	191.11	13.837558	-56.892308	191.31	-0.340	-0.840	2.360	191.11	-2.00	2.70	 	 	 	 	 	 	 	 	 	 	 	 	 	 	 	 	 	 	1581470459	9.10	16.85
12/02/2020 01:21:00	120220	12022020	012100	190.83	13.837518	-56.892322	191.01	0.020	-1.370	2.760	190.83	-2.70	3.20	 	 	 	 	 	 	 	 	 	 	 	 	 	 	 	 	 	 	1581470460	9.07	16.80
12/02/2020 01:21:01	120220	12022020	012101	190.70	13.837480	-56.892330	190.93	0.300	-0.920	2.490	190.70	-2.50	3.10	 	 	 	 	 	 	 	 	 	 	 	 	 	 	 	 	 	 	1581470461	8.21	15.20
12/02/2020 01:21:02	120220	12022020	012102	190.96	13.837448	-56.892337	191.23	0.220	0.210	1.930	190.96	-1.50	2.50	1017.70	26.10	26.10	20.70	20.80	-1.0	72.0	72.0	389.0	25.7	262.00	10.90	71.00	12.30	16	9131.0	27.2	27.2	1581470462	7.14	13.22
12/02/2020 01:21:03	120220	12022020	012103	191.15	13.837415	-56.892342	191.36	0.020	0.700	1.640	191.15	-0.70	2.20	 	 	 	 	 	 	 	 	 	 	 	 	 	 	 	 	 	 	1581470463	7.19	13.32
12/02/2020 01:21:04	120220	12022020	012104	190.90	13.837377	-56.892350	191.05	0.120	0.050	1.650	190.90	-1.10	2.10	 	 	 	 	 	 	 	 	 	 	 	 	 	 	 	 	 	 	1581470464	8.49	15.72
12/02/2020 01:21:05	120220	12022020	012105	190.48	13.837335	-56.892358	190.66	0.380	-0.790	1.810	190.48	-2.00	2.20	 	 	 	 	 	 	 	 	 	 	 	 	 	 	 	 	 	 	1581470465	9.25	17.13
12/02/2020 01:21:06	120220	12022020	012106	190.31	13.837295	-56.892370	190.54	0.430	-0.840	1.970	190.31	-2.30	2.40	 	 	 	 	 	 	 	 	 	 	 	 	 	 	 	 	 	 	1581470466	8.71	16.13
12/02/2020 01:21:07	120220	12022020	012107	190.48	13.837260	-56.892380	190.73	0.130	-0.210	1.880	190.48	-1.80	2.40	 	 	 	 	 	 	 	 	 	 	 	 	 	 	 	 	 	 	1581470467	7.79	14.43
12/02/2020 01:21:08	120220	12022020	012108	190.84	13.837227	-56.892390	191.10	-0.310	0.340	1.640	190.84	-1.10	2.20	 	 	 	 	 	 	 	 	 	 	 	 	 	 	 	 	 	 	1581470468	7.54	13.96
12/02/2020 01:21:09	120220	12022020	012109	191.33	13.837192	-56.892400	191.60	-0.600	0.390	1.410	191.33	-1.00	1.90	 	 	 	 	 	 	 	 	 	 	 	 	 	 	 	 	 	 	1581470469	7.96	14.74
12/02/2020 01:21:10	120220	12022020	012110	191.87	13.837153	-56.892412	192.13	-0.610	0.040	1.400	191.87	-1.20	1.80	 	 	 	 	 	 	 	 	 	 	 	 	 	 	 	 	 	 	1581470470	8.32	15.41
12/02/2020 01:21:11	120220	12022020	012111	192.19	13.837117	-56.892423	192.40	-0.360	-0.520	1.500	192.19	-1.80	1.90	 	 	 	 	 	 	 	 	 	 	 	 	 	 	 	 	 	 	1581470471	8.55	15.83
12/02/2020 01:21:12	120220	12022020	012112	192.17	13.837077	-56.892435	192.37	0.070	-1.040	1.670	192.17	-2.30	2.10	 	 	 	 	 	 	 	 	 	 	 	 	 	 	 	 	 	 	1581470472	8.68	16.08
12/02/2020 01:21:13	120220	12022020	012113	191.87	13.837038	-56.892445	192.04	0.460	-1.230	1.850	191.87	-2.60	2.30	 	 	 	 	 	 	 	 	 	 	 	 	 	 	 	 	 	 	1581470473	8.59	15.91
12/02/2020 01:21:14	120220	12022020	012114	191.36	13.837000	-56.892453	191.52	0.620	-0.890	1.900	191.36	-2.40	2.40	 	 	 	 	 	 	 	 	 	 	 	 	 	 	 	 	 	 	1581470474	8.34	15.45
12/02/2020 01:21:15	120220	12022020	012115	191.08	13.836965	-56.892458	191.28	0.330	-0.020	1.720	191.08	-1.60	2.20	 	 	 	 	 	 	 	 	 	 	 	 	 	 	 	 	 	 	1581470475	7.89	14.61
12/02/2020 01:21:16	120220	12022020	012116	191.21	13.836930	-56.892467	191.45	-0.290	0.780	1.620	191.21	-0.80	2.10	 	 	 	 	 	 	 	 	 	 	 	 	 	 	 	 	 	 	1581470476	7.57	14.02
12/02/2020 01:21:17	120220	12022020	012117	191.46	13.836895	-56.892478	191.69	-0.780	0.900	1.770	191.46	-0.40	2.20	 	 	 	 	 	 	 	 	 	 	 	 	 	 	 	 	 	 	1581470477	8.00	14.82
12/02/2020 01:21:18	120220	12022020	012118	191.51	13.836857	-56.892493	191.73	-0.740	0.400	2.140	191.51	-0.80	2.50	 	 	 	 	 	 	 	 	 	 	 	 	 	 	 	 	 	 	1581470478	8.71	16.13
12/02/2020 01:21:19	120220	12022020	012119	191.51	13.836818	-56.892508	191.74	-0.250	-0.160	2.380	191.51	-1.70	2.80	 	 	 	 	 	 	 	 	 	 	 	 	 	 	 	 	 	 	1581470479	8.89	16.46
12/02/2020 01:21:20	120220	12022020	012120	191.58	13.836780	-56.892520	191.83	0.290	-0.460	2.290	191.58	-1.80	2.80	 	 	 	 	 	 	 	 	 	 	 	 	 	 	 	 	 	 	1581470480	8.44	15.63
12/02/2020 01:21:21	120220	12022020	012121	191.67	13.836743	-56.892528	191.90	0.610	-0.600	1.950	191.67	-2.00	2.30	 	 	 	 	 	 	 	 	 	 	 	 	 	 	 	 	 	 	1581470481	8.13	15.06
12/02/2020 01:21:22	120220	12022020	012122	191.70	13.836707	-56.892537	191.92	0.660	-0.720	1.610	191.70	-2.10	2.20	 	 	 	 	 	 	 	 	 	 	 	 	 	 	 	 	 	 	1581470482	8.15	15.09
12/02/2020 01:21:23	120220	12022020	012123	191.81	13.836670	-56.892543	192.04	0.470	-0.650	1.290	191.81	-2.10	1.90	 	 	 	 	 	 	 	 	 	 	 	 	 	 	 	 	 	 	1581470483	8.14	15.08
12/02/2020 01:21:24	120220	12022020	012124	192.17	13.836633	-56.892550	192.42	0.100	-0.360	1.030	192.17	-1.80	1.50	 	 	 	 	 	 	 	 	 	 	 	 	 	 	 	 	 	 	1581470484	7.89	14.61
12/02/2020 01:21:25	120220	12022020	012125	192.51	13.836598	-56.892562	192.72	-0.200	-0.180	1.120	192.51	-1.60	1.50	 	 	 	 	 	 	 	 	 	 	 	 	 	 	 	 	 	 	1581470485	7.88	14.59
12/02/2020 01:21:26	120220	12022020	012126	192.43	13.836562	-56.892573	192.59	-0.170	-0.410	1.610	192.43	-1.70	1.90	 	 	 	 	 	 	 	 	 	 	 	 	 	 	 	 	 	 	1581470486	8.41	15.58
12/02/2020 01:21:27	120220	12022020	012127	191.98	13.836522	-56.892587	192.17	0.050	-0.750	2.190	191.98	-2.10	2.50	 	 	 	 	 	 	 	 	 	 	 	 	 	 	 	 	 	 	1581470487	8.98	16.63
12/02/2020 01:21:28	120220	12022020	012128	191.82	13.836483	-56.892597	192.10	0.000	-0.470	2.440	191.82	-2.00	2.90	 	 	 	 	 	 	 	 	 	 	 	 	 	 	 	 	 	 	1581470488	8.65	16.02
12/02/2020 01:21:29	120220	12022020	012129	192.21	13.836448	-56.892608	192.55	-0.500	0.300	2.530	192.21	-1.30	3.00	 	 	 	 	 	 	 	 	 	 	 	 	 	 	 	 	 	 	1581470489	7.81	14.46
12/02/2020 01:21:30	120220	12022020	012130	192.76	13.836415	-56.892623	193.06	-1.030	0.830	2.610	192.76	-0.60	3.10	 	 	 	 	 	 	 	 	 	 	 	 	 	 	 	 	 	 	1581470490	7.60	14.08
12/02/2020 01:21:31	120220	12022020	012131	192.99	13.836380	-56.892638	193.24	-0.940	0.450	2.590	192.99	-0.80	3.10	 	 	 	 	 	 	 	 	 	 	 	 	 	 	 	 	 	 	1581470491	8.29	15.35
12/02/2020 01:21:32	120220	12022020	012132	192.86	13.836340	-56.892652	193.12	-0.140	-0.440	2.350	192.86	-1.60	2.90	 	 	 	 	 	 	 	 	 	 	 	 	 	 	 	 	 	 	1581470492	9.05	16.76
12/02/2020 01:21:33	120220	12022020	012133	192.61	13.836300	-56.892662	192.84	0.720	-0.960	1.940	192.61	-2.30	2.50	 	 	 	 	 	 	 	 	 	 	 	 	 	 	 	 	 	 	1581470493	8.93	16.54
12/02/2020 01:21:34	120220	12022020	012134	192.41	13.836262	-56.892668	192.66	1.110	-0.820	1.310	192.41	-2.30	2.00	 	 	 	 	 	 	 	 	 	 	 	 	 	 	 	 	 	 	1581470494	8.31	15.39
12/02/2020 01:21:35	120220	12022020	012135	192.47	13.836225	-56.892673	192.75	0.950	-0.250	0.630	192.47	-1.80	1.30	 	 	 	 	 	 	 	 	 	 	 	 	 	 	 	 	 	 	1581470495	7.80	14.45
12/02/2020 01:21:36	120220	12022020	012136	192.92	13.836190	-56.892678	193.21	0.550	0.320	0.180	192.92	-1.20	0.70	 	 	 	 	 	 	 	 	 	 	 	 	 	 	 	 	 	 	1581470496	7.59	14.06
12/02/2020 01:21:37	120220	12022020	012137	193.40	13.836155	-56.892687	193.66	0.250	0.370	0.200	193.40	-0.90	0.60	 	 	 	 	 	 	 	 	 	 	 	 	 	 	 	 	 	 	1581470497	7.91	14.65
12/02/2020 01:21:38	120220	12022020	012138	193.57	13.836117	-56.892697	193.82	0.000	-0.220	0.850	193.57	-1.40	1.10	 	 	 	 	 	 	 	 	 	 	 	 	 	 	 	 	 	 	1581470498	8.65	16.02
12/02/2020 01:21:39	120220	12022020	012139	193.56	13.836078	-56.892715	193.82	-0.480	-0.840	2.100	193.56	-2.10	2.20	 	 	 	 	 	 	 	 	 	 	 	 	 	 	 	 	 	 	1581470499	9.02	16.71
12/02/2020 01:21:40	120220	12022020	012140	193.28	13.836042	-56.892737	193.53	-1.090	-1.040	3.530	193.28	-2.40	3.70	 	 	 	 	 	 	 	 	 	 	 	 	 	 	 	 	 	 	1581470500	8.95	16.58
12/02/2020 01:21:41	120220	12022020	012141	192.58	13.836008	-56.892762	192.78	-1.300	-0.980	4.620	192.58	-2.40	4.90	 	 	 	 	 	 	 	 	 	 	 	 	 	 	 	 	 	 	1581470501	8.91	16.50
12/02/2020 01:21:42	120220	12022020	012142	191.59	13.835973	-56.892782	191.82	-0.710	-0.830	4.840	191.59	-2.20	5.30	 	 	 	 	 	 	 	 	 	 	 	 	 	 	 	 	 	 	1581470502	8.86	16.41
12/02/2020 01:21:43	120220	12022020	012143	190.82	13.835935	-56.892795	191.09	0.330	-0.330	4.100	190.82	-1.40	4.10	 	 	 	 	 	 	 	 	 	 	 	 	 	 	 	 	 	 	1581470503	8.45	15.65
12/02/2020 01:21:44	120220	12022020	012144	190.65	13.835898	-56.892798	190.98	1.030	0.480	2.760	190.65	-1.10	3.60	 	 	 	 	 	 	 	 	 	 	 	 	 	 	 	 	 	 	1581470504	7.98	14.78
12/02/2020 01:21:45	120220	12022020	012145	191.10	13.835862	-56.892798	191.44	1.030	1.030	1.260	191.10	-0.40	2.10	 	 	 	 	 	 	 	 	 	 	 	 	 	 	 	 	 	 	1581470505	7.81	14.46
12/02/2020 01:21:46	120220	12022020	012146	191.69	13.835825	-56.892800	192.17	0.610	0.820	0.220	191.84	-0.40	0.90	 	 	 	 	 	 	 	 	 	 	 	 	 	 	 	 	 	 	1581470506	8.10	15.00
12/02/2020 01:21:47	120220	12022020	012147	192.56	13.835785	-56.892807	192.85	0.280	-0.040	0.050	192.56	-1.20	0.50	 	 	 	 	 	 	 	 	 	 	 	 	 	 	 	 	 	 	1581470507	8.54	15.82
12/02/2020 01:21:48	120220	12022020	012148	192.98	13.835747	-56.892820	193.22	0.230	-0.960	0.610	192.98	-2.10	0.90	 	 	 	 	 	 	 	 	 	 	 	 	 	 	 	 	 	 	1581470508	8.78	16.26
12/02/2020 01:21:49	120220	12022020	012149	193.07	13.835710	-56.892833	193.31	0.230	-1.390	1.470	193.07	-2.70	1.70	 	 	 	 	 	 	 	 	 	 	 	 	 	 	 	 	 	 	1581470509	8.47	15.69
12/02/2020 01:21:50	120220	12022020	012150	192.88	13.835673	-56.892847	193.10	-0.010	-1.420	2.380	192.88	-2.80	2.60	 	 	 	 	 	 	 	 	 	 	 	 	 	 	 	 	 	 	1581470510	8.16	15.11
12/02/2020 01:21:51	120220	12022020	012151	192.32	13.835638	-56.892863	192.52	-0.480	-1.300	3.310	192.32	-2.70	3.60	 	 	 	 	 	 	 	 	 	 	 	 	 	 	 	 	 	 	1581470511	8.36	15.48
12/02/2020 01:21:52	120220	12022020	012152	191.60	13.835602	-56.892882	191.84	-0.910	-0.960	3.960	191.60	-2.40	4.30	 	 	 	 	 	 	 	 	 	 	 	 	 	 	 	 	 	 	1581470512	8.65	16.02
12/02/2020 01:21:53	120220	12022020	012153	190.99	13.835565	-56.892898	191.26	-0.970	-0.280	4.120	190.99	-1.80	4.60	 	 	 	 	 	 	 	 	 	 	 	 	 	 	 	 	 	 	1581470513	8.55	15.83
12/02/2020 01:21:54	120220	12022020	012154	190.72	13.835530	-56.892910	191.04	-0.600	0.630	3.590	190.72	-0.90	4.20	 	 	 	 	 	 	 	 	 	 	 	 	 	 	 	 	 	 	1581470514	8.19	15.17
12/02/2020 01:21:55	120220	12022020	012155	190.98	13.835493	-56.892918	191.36	-0.070	1.350	2.510	190.98	-0.10	3.30	 	 	 	 	 	 	 	 	 	 	 	 	 	 	 	 	 	 	1581470515	7.96	14.74
12/02/2020 01:21:56	120220	12022020	012156	191.66	13.835457	-56.892923	192.06	0.320	1.470	1.320	191.66	0.10	2.10	 	 	 	 	 	 	 	 	 	 	 	 	 	 	 	 	 	 	1581470516	8.03	14.87
12/02/2020 01:21:57	120220	12022020	012157	192.55	13.835420	-56.892928	192.92	0.480	1.040	0.380	192.55	-0.60	0.60	 	 	 	 	 	 	 	 	 	 	 	 	 	 	 	 	 	 	1581470517	8.10	15.00
12/02/2020 01:21:58	120220	12022020	012158	193.23	13.835382	-56.892935	193.54	0.590	0.070	0.060	193.23	-1.00	0.50	 	 	 	 	 	 	 	 	 	 	 	 	 	 	 	 	 	 	1581470518	8.16	15.11
12/02/2020 01:21:59	120220	12022020	012159	193.36	13.835343	-56.892945	193.59	0.770	-1.370	0.470	193.36	-2.40	0.80	 	 	 	 	 	 	 	 	 	 	 	 	 	 	 	 	 	 	1581470519	8.61	15.95
12/02/2020 01:22:00	120220	12022020	012200	192.95	13.835303	-56.892958	193.14	0.910	-2.550	1.420	192.95	-3.70	1.60	 	 	 	 	 	 	 	 	 	 	 	 	 	 	 	 	 	 	1581470520	8.97	16.61
12/02/2020 01:22:01	120220	12022020	012201	192.23	13.835265	-56.892973	192.42	0.740	-2.600	2.490	192.23	-4.10	2.70	 	 	 	 	 	 	 	 	 	 	 	 	 	 	 	 	 	 	1581470521	8.64	16.00
12/02/2020 01:22:02	120220	12022020	012202	191.66	13.835233	-56.892987	191.93	0.150	-1.320	3.140	191.66	-3.10	3.50	1017.70	26.10	26.10	20.50	20.60	-1.0	71.0	71.0	388.0	25.7	260.00	10.80	72.00	12.30	16	8564.0	27.2	27.2	1581470522	7.72	14.30
12/02/2020 01:22:03	120220	12022020	012203	191.61	13.835202	-56.892998	191.95	-0.630	0.430	3.140	191.61	-1.30	3.60	 	 	 	 	 	 	 	 	 	 	 	 	 	 	 	 	 	 	1581470523	7.02	13.00
12/02/2020 01:22:04	120220	12022020	012204	191.84	13.835170	-56.893010	192.17	-1.090	1.330	2.740	191.84	-0.10	3.30	 	 	 	 	 	 	 	 	 	 	 	 	 	 	 	 	 	 	1581470524	7.49	13.87
12/02/2020 01:22:05	120220	12022020	012205	192.02	13.835130	-56.893022	192.33	-0.930	1.000	2.240	192.02	-0.20	2.80	 	 	 	 	 	 	 	 	 	 	 	 	 	 	 	 	 	 	1581470525	8.68	16.08
12/02/2020 01:22:06	120220	12022020	012206	192.03	13.835088	-56.893033	192.32	-0.410	0.210	1.900	192.03	-1.00	2.40	 	 	 	 	 	 	 	 	 	 	 	 	 	 	 	 	 	 	1581470526	9.37	17.35
12/02/2020 01:22:07	120220	12022020	012207	192.09	13.835048	-56.893043	192.40	-0.070	-0.050	1.620	192.09	-1.40	2.20	 	 	 	 	 	 	 	 	 	 	 	 	 	 	 	 	 	 	1581470527	8.85	16.39
12/02/2020 01:22:08	120220	12022020	012208	192.28	13.835013	-56.893053	192.59	-0.090	0.180	1.430	192.28	-1.20	1.90	 	 	 	 	 	 	 	 	 	 	 	 	 	 	 	 	 	 	1581470528	7.88	14.59
12/02/2020 01:22:09	120220	12022020	012209	192.49	13.834980	-56.893065	192.80	-0.120	0.190	1.290	192.49	-1.30	1.70	 	 	 	 	 	 	 	 	 	 	 	 	 	 	 	 	 	 	1581470529	7.65	14.17
12/02/2020 01:22:10	120220	12022020	012210	192.65	13.834943	-56.893077	193.00	0.170	-0.310	1.110	192.69	-1.50	1.60	 	 	 	 	 	 	 	 	 	 	 	 	 	 	 	 	 	 	1581470530	8.13	15.06
12/02/2020 01:22:11	120220	12022020	012211	192.85	13.834905	-56.893087	193.15	0.620	-0.900	1.040	192.85	-2.40	1.50	 	 	 	 	 	 	 	 	 	 	 	 	 	 	 	 	 	 	1581470531	8.41	15.58
12/02/2020 01:22:12	120220	12022020	012212	192.84	13.834868	-56.893095	193.06	0.870	-1.150	1.120	192.82	-2.50	1.60	 	 	 	 	 	 	 	 	 	 	 	 	 	 	 	 	 	 	1581470532	8.21	15.20
12/02/2020 01:22:13	120220	12022020	012213	192.49	13.834832	-56.893105	192.72	0.810	-1.110	1.380	192.49	-2.50	1.80	 	 	 	 	 	 	 	 	 	 	 	 	 	 	 	 	 	 	1581470533	8.07	14.95
12/02/2020 01:22:14	120220	12022020	012214	192.04	13.834795	-56.893113	192.27	0.540	-0.950	1.760	192.04	-2.30	2.10	 	 	 	 	 	 	 	 	 	 	 	 	 	 	 	 	 	 	1581470534	8.21	15.20
12/02/2020 01:22:15	120220	12022020	012215	191.59	13.834757	-56.893123	191.85	0.140	-0.580	2.240	191.59	-2.00	2.60	 	 	 	 	 	 	 	 	 	 	 	 	 	 	 	 	 	 	1581470535	8.38	15.52
12/02/2020 01:22:16	120220	12022020	012216	191.30	13.834720	-56.893137	191.60	-0.410	0.050	2.680	191.30	-1.50	3.10	 	 	 	 	 	 	 	 	 	 	 	 	 	 	 	 	 	 	1581470536	8.28	15.33
12/02/2020 01:22:17	120220	12022020	012217	191.28	13.834685	-56.893150	191.62	-1.080	0.700	2.980	191.28	-0.80	3.40	 	 	 	 	 	 	 	 	 	 	 	 	 	 	 	 	 	 	1581470537	8.15	15.09
12/02/2020 01:22:18	120220	12022020	012218	191.45	13.834650	-56.893168	191.79	-1.510	0.980	3.120	191.45	-0.40	3.60	 	 	 	 	 	 	 	 	 	 	 	 	 	 	 	 	 	 	1581470538	8.28	15.33
12/02/2020 01:22:19	120220	12022020	012219	191.65	13.834615	-56.893185	191.99	-1.310	0.810	2.810	191.65	-0.50	3.40	 	 	 	 	 	 	 	 	 	 	 	 	 	 	 	 	 	 	1581470539	8.50	15.74
12/02/2020 01:22:20	120220	12022020	012220	191.89	13.834577	-56.893197	192.25	-0.430	0.390	1.990	191.89	-0.90	2.70	 	 	 	 	 	 	 	 	 	 	 	 	 	 	 	 	 	 	1581470540	8.47	15.69
12/02/2020 01:22:21	120220	12022020	012221	192.25	13.834540	-56.893205	192.59	0.600	-0.040	1.010	192.25	-1.30	1.70	 	 	 	 	 	 	 	 	 	 	 	 	 	 	 	 	 	 	1581470541	8.24	15.26
12/02/2020 01:22:22	120220	12022020	012222	192.53	13.834502	-56.893208	192.86	1.280	-0.490	0.220	192.58	-1.70	0.90	 	 	 	 	 	 	 	 	 	 	 	 	 	 	 	 	 	 	1581470542	8.05	14.91
12/02/2020 01:22:23	120220	12022020	012223	192.56	13.834465	-56.893213	192.76	1.510	-1.050	-0.050	192.56	-2.30	0.50	 	 	 	 	 	 	 	 	 	 	 	 	 	 	 	 	 	 	1581470543	8.15	15.09
12/02/2020 01:22:24	120220	12022020	012224	192.23	13.834427	-56.893218	192.43	1.330	-1.380	0.230	192.23	-2.70	0.60	 	 	 	 	 	 	 	 	 	 	 	 	 	 	 	 	 	 	1581470544	8.28	15.33
12/02/2020 01:22:25	120220	12022020	012225	192.01	13.834390	-56.893227	192.23	0.670	-1.160	0.920	192.01	-2.60	1.20	 	 	 	 	 	 	 	 	 	 	 	 	 	 	 	 	 	 	1581470545	7.92	14.67
12/02/2020 01:22:26	120220	12022020	012226	191.82	13.834357	-56.893242	192.06	-0.210	-0.800	1.990	191.82	-2.20	2.20	 	 	 	 	 	 	 	 	 	 	 	 	 	 	 	 	 	 	1581470546	7.98	14.78
12/02/2020 01:22:27	120220	12022020	012227	191.53	13.834320	-56.893260	191.78	-0.900	-0.570	3.040	191.53	-1.90	3.30	 	 	 	 	 	 	 	 	 	 	 	 	 	 	 	 	 	 	1581470547	8.54	15.82
12/02/2020 01:22:28	120220	12022020	012228	191.26	13.834285	-56.893278	191.57	-1.190	-0.240	3.710	191.26	-1.70	4.10	 	 	 	 	 	 	 	 	 	 	 	 	 	 	 	 	 	 	1581470548	8.83	16.35
12/02/2020 01:22:29	120220	12022020	012229	191.36	13.834248	-56.893295	191.73	-1.140	0.290	3.700	191.36	-1.20	4.20	 	 	 	 	 	 	 	 	 	 	 	 	 	 	 	 	 	 	1581470549	8.49	15.72
12/02/2020 01:22:30	120220	12022020	012230	191.73	13.834212	-56.893307	192.11	-0.870	0.660	3.080	191.73	-0.70	3.70	 	 	 	 	 	 	 	 	 	 	 	 	 	 	 	 	 	 	1581470550	8.22	15.22
12/02/2020 01:22:31	120220	12022020	012231	192.08	13.834173	-56.893317	192.42	-0.420	0.570	2.280	192.08	-0.70	3.00	 	 	 	 	 	 	 	 	 	 	 	 	 	 	 	 	 	 	1581470551	8.46	15.67
12/02/2020 01:22:32	120220	12022020	012232	192.35	13.834135	-56.893325	192.67	0.090	0.380	1.520	192.35	-0.90	2.20	 	 	 	 	 	 	 	 	 	 	 	 	 	 	 	 	 	 	1581470552	8.51	15.76
12/02/2020 01:22:33	120220	12022020	012233	192.59	13.834098	-56.893332	192.91	0.500	0.450	0.920	192.59	-0.80	1.20	 	 	 	 	 	 	 	 	 	 	 	 	 	 	 	 	 	 	1581470553	8.01	14.83
12/02/2020 01:22:34	120220	12022020	012234	192.87	13.834063	-56.893337	193.15	0.720	0.530	0.460	192.87	-0.80	1.10	 	 	 	 	 	 	 	 	 	 	 	 	 	 	 	 	 	 	1581470554	7.45	13.80
12/02/2020 01:22:35	120220	12022020	012235	192.81	13.834028	-56.893343	193.02	0.880	-0.200	0.460	192.81	-2.00	1.10	 	 	 	 	 	 	 	 	 	 	 	 	 	 	 	 	 	 	1581470555	7.86	14.56
12/02/2020 01:22:36	120220	12022020	012236	192.39	13.833988	-56.893353	192.48	1.000	-1.380	0.950	192.28	-2.50	1.30	 	 	 	 	 	 	 	 	 	 	 	 	 	 	 	 	 	 	1581470556	8.82	16.33
12/02/2020 01:22:37	120220	12022020	012237	191.78	13.833950	-56.893365	192.03	0.820	-1.750	1.590	191.78	-3.10	1.90	 	 	 	 	 	 	 	 	 	 	 	 	 	 	 	 	 	 	1581470557	8.62	15.96
12/02/2020 01:22:38	120220	12022020	012238	191.59	13.833917	-56.893378	191.89	0.200	-1.160	2.220	191.59	-2.70	2.60	 	 	 	 	 	 	 	 	 	 	 	 	 	 	 	 	 	 	1581470558	7.72	14.30
12/02/2020 01:22:39	120220	12022020	012239	191.53	13.833883	-56.893393	191.83	-0.560	-0.460	2.720	191.53	-1.90	3.10	 	 	 	 	 	 	 	 	 	 	 	 	 	 	 	 	 	 	1581470559	7.62	14.11
12/02/2020 01:22:40	120220	12022020	012240	191.45	13.833850	-56.893410	191.76	-0.970	-0.140	2.990	191.45	-1.50	3.40	 	 	 	 	 	 	 	 	 	 	 	 	 	 	 	 	 	 	1581470560	8.19	15.17
12/02/2020 01:22:41	120220	12022020	012241	191.38	13.833813	-56.893427	191.72	-0.820	-0.040	2.920	191.38	-1.40	3.50	 	 	 	 	 	 	 	 	 	 	 	 	 	 	 	 	 	 	1581470561	8.61	15.95
12/02/2020 01:22:42	120220	12022020	012242	191.46	13.833775	-56.893438	191.81	-0.330	0.210	2.430	191.46	-1.20	3.10	 	 	 	 	 	 	 	 	 	 	 	 	 	 	 	 	 	 	1581470562	8.39	15.54
12/02/2020 01:22:43	120220	12022020	012243	191.59	13.833738	-56.893445	191.91	0.130	0.390	1.770	191.59	-1.00	2.40	 	 	 	 	 	 	 	 	 	 	 	 	 	 	 	 	 	 	1581470563	8.14	15.08
12/02/2020 01:22:44	120220	12022020	012244	191.53	13.833700	-56.893450	191.81	0.400	0.250	1.390	191.53	-1.00	1.90	 	 	 	 	 	 	 	 	 	 	 	 	 	 	 	 	 	 	1581470564	8.32	15.41
12/02/2020 01:22:45	120220	12022020	012245	191.41	13.833662	-56.893457	191.68	0.350	-0.060	1.370	191.41	-1.30	1.80	 	 	 	 	 	 	 	 	 	 	 	 	 	 	 	 	 	 	1581470565	8.48	15.70
12/02/2020 01:22:46	120220	12022020	012246	191.37	13.833625	-56.893468	191.65	-0.010	-0.170	1.820	191.37	-1.50	2.20	 	 	 	 	 	 	 	 	 	 	 	 	 	 	 	 	 	 	1581470566	8.19	15.17
12/02/2020 01:22:47	120220	12022020	012247	191.31	13.833590	-56.893483	191.59	-0.340	-0.060	2.420	191.31	-1.40	3.10	 	 	 	 	 	 	 	 	 	 	 	 	 	 	 	 	 	 	1581470567	7.88	14.59
12/02/2020 01:22:48	120220	12022020	012248	191.14	13.833557	-56.893497	191.43	-0.250	-0.070	2.660	191.14	-1.40	3.10	 	 	 	 	 	 	 	 	 	 	 	 	 	 	 	 	 	 	1581470568	7.79	14.43
12/02/2020 01:22:49	120220	12022020	012249	190.94	13.833520	-56.893507	191.23	0.210	-0.510	2.490	190.94	-1.70	3.00	 	 	 	 	 	 	 	 	 	 	 	 	 	 	 	 	 	 	1581470569	8.18	15.15
12/02/2020 01:22:50	120220	12022020	012250	190.85	13.833482	-56.893515	191.16	0.620	-1.070	2.220	190.85	-2.30	2.80	 	 	 	 	 	 	 	 	 	 	 	 	 	 	 	 	 	 	1581470570	8.62	15.96
12/02/2020 01:22:51	120220	12022020	012251	190.96	13.833443	-56.893523	191.27	0.550	-1.210	2.070	190.96	-2.60	2.60	 	 	 	 	 	 	 	 	 	 	 	 	 	 	 	 	 	 	1581470571	8.45	15.65
12/02/2020 01:22:52	120220	12022020	012252	191.02	13.833407	-56.893533	191.31	0.030	-0.840	2.350	191.02	-2.30	2.70	 	 	 	 	 	 	 	 	 	 	 	 	 	 	 	 	 	 	1581470572	8.00	14.82
12/02/2020 01:22:53	120220	12022020	012253	190.85	13.833373	-56.893548	191.14	-0.470	-0.220	2.910	190.85	-1.70	3.30	 	 	 	 	 	 	 	 	 	 	 	 	 	 	 	 	 	 	1581470573	7.92	14.67
12/02/2020 01:22:54	120220	12022020	012254	190.70	13.833338	-56.893562	191.02	-0.660	0.440	3.210	190.70	-1.10	3.70	 	 	 	 	 	 	 	 	 	 	 	 	 	 	 	 	 	 	1581470574	7.91	14.65
12/02/2020 01:22:55	120220	12022020	012255	190.80	13.833303	-56.893573	191.17	-0.540	0.860	2.950	190.80	-0.50	3.60	 	 	 	 	 	 	 	 	 	 	 	 	 	 	 	 	 	 	1581470575	7.86	14.56
12/02/2020 01:22:56	120220	12022020	012256	191.05	13.833267	-56.893583	191.42	-0.200	0.590	2.230	191.05	-0.60	2.90	 	 	 	 	 	 	 	 	 	 	 	 	 	 	 	 	 	 	1581470576	8.22	15.22
12/02/2020 01:22:57	120220	12022020	012257	191.26	13.833227	-56.893590	191.59	0.260	-0.120	1.470	191.26	-1.70	1.70	 	 	 	 	 	 	 	 	 	 	 	 	 	 	 	 	 	 	1581470577	8.71	16.13
12/02/2020 01:22:58	120220	12022020	012258	191.30	13.833187	-56.893595	191.60	0.640	-0.550	1.010	191.30	-1.80	1.60	 	 	 	 	 	 	 	 	 	 	 	 	 	 	 	 	 	 	1581470578	8.58	15.89
12/02/2020 01:22:59	120220	12022020	012259	191.26	13.833152	-56.893602	191.56	0.700	-0.380	0.910	191.26	-1.50	1.40	 	 	 	 	 	 	 	 	 	 	 	 	 	 	 	 	 	 	1581470579	7.91	14.65
12/02/2020 01:23:00	120220	12022020	012300	191.37	13.833118	-56.893610	191.68	0.380	0.070	1.040	191.37	-1.40	1.50	 	 	 	 	 	 	 	 	 	 	 	 	 	 	 	 	 	 	1581470580	7.31	13.54
12/02/2020 01:23:01	120220	12022020	012301	191.58	13.833085	-56.893620	191.89	-0.070	0.180	1.370	191.58	-1.30	2.00	 	 	 	 	 	 	 	 	 	 	 	 	 	 	 	 	 	 	1581470581	7.41	13.72
12/02/2020 01:23:02	120220	12022020	012302	191.77	13.833050	-56.893633	192.07	-0.320	-0.340	1.720	191.77	-1.50	2.10	1017.70	26.10	26.10	20.60	20.70	-1.0	72.0	72.0	389.0	25.7	259.00	10.10	70.00	11.70	16	9360.0	27.2	27.2	1581470582	8.04	14.89
12/02/2020 01:23:03	120220	12022020	012303	191.67	13.833012	-56.893647	191.91	-0.270	-1.420	2.260	191.67	-2.50	2.60	 	 	 	 	 	 	 	 	 	 	 	 	 	 	 	 	 	 	1581470583	8.88	16.45
12/02/2020 01:23:04	120220	12022020	012304	190.95	13.832970	-56.893665	191.15	-0.040	-2.270	3.130	190.95	-3.40	3.40	 	 	 	 	 	 	 	 	 	 	 	 	 	 	 	 	 	 	1581470584	9.44	17.48
12/02/2020 01:23:05	120220	12022020	012305	189.98	13.832932	-56.893680	190.21	0.090	-1.880	3.680	189.98	-3.40	4.10	 	 	 	 	 	 	 	 	 	 	 	 	 	 	 	 	 	 	1581470585	8.90	16.48
12/02/2020 01:23:06	120220	12022020	012306	189.52	13.832898	-56.893690	189.83	-0.060	-0.130	3.400	189.52	-1.90	4.00	 	 	 	 	 	 	 	 	 	 	 	 	 	 	 	 	 	 	1581470586	7.44	13.78
12/02/2020 01:23:07	120220	12022020	012307	189.74	13.832868	-56.893695	190.12	-0.310	1.620	2.560	189.74	-0.00	3.30	 	 	 	 	 	 	 	 	 	 	 	 	 	 	 	 	 	 	1581470587	6.67	12.35
12/02/2020 01:23:08	120220	12022020	012308	190.33	13.832833	-56.893700	190.70	-0.320	1.940	1.600	190.33	0.70	2.30	 	 	 	 	 	 	 	 	 	 	 	 	 	 	 	 	 	 	1581470588	7.54	13.96
12/02/2020 01:23:09	120220	12022020	012309	190.78	13.832792	-56.893705	191.09	-0.010	0.780	1.190	190.78	-0.20	1.70	 	 	 	 	 	 	 	 	 	 	 	 	 	 	 	 	 	 	1581470589	9.01	16.69
12/02/2020 01:23:10	120220	12022020	012310	190.93	13.832748	-56.893717	191.21	0.260	-0.600	1.520	190.93	-1.70	1.90	 	 	 	 	 	 	 	 	 	 	 	 	 	 	 	 	 	 	1581470590	9.54	17.67
12/02/2020 01:23:11	120220	12022020	012311	190.97	13.832710	-56.893728	191.28	0.110	-1.030	2.050	190.97	-2.20	2.70	 	 	 	 	 	 	 	 	 	 	 	 	 	 	 	 	 	 	1581470591	8.71	16.13
12/02/2020 01:23:12	120220	12022020	012312	191.16	13.832678	-56.893743	191.51	-0.380	-0.480	2.410	191.16	-2.00	2.80	 	 	 	 	 	 	 	 	 	 	 	 	 	 	 	 	 	 	1581470592	7.46	13.82
12/02/2020 01:23:13	120220	12022020	012313	191.43	13.832648	-56.893757	191.78	-0.650	0.010	2.500	191.43	-1.40	3.00	 	 	 	 	 	 	 	 	 	 	 	 	 	 	 	 	 	 	1581470593	7.05	13.06
12/02/2020 01:23:14	120220	12022020	012314	191.48	13.832615	-56.893768	191.76	-0.240	-0.350	2.340	191.48	-1.50	2.90	 	 	 	 	 	 	 	 	 	 	 	 	 	 	 	 	 	 	1581470594	7.77	14.39
12/02/2020 01:23:15	120220	12022020	012315	191.11	13.832575	-56.893778	191.34	0.610	-1.180	2.210	191.11	-2.30	2.70	 	 	 	 	 	 	 	 	 	 	 	 	 	 	 	 	 	 	1581470595	8.78	16.26
12/02/2020 01:23:16	120220	12022020	012316	190.56	13.832535	-56.893787	190.80	1.160	-1.410	2.040	190.56	-2.80	2.60	 	 	 	 	 	 	 	 	 	 	 	 	 	 	 	 	 	 	1581470596	8.84	16.37
12/02/2020 01:23:17	120220	12022020	012317	190.30	13.832498	-56.893792	190.59	0.950	-0.580	1.690	190.30	-2.20	2.30	 	 	 	 	 	 	 	 	 	 	 	 	 	 	 	 	 	 	1581470597	7.91	14.65
12/02/2020 01:23:18	120220	12022020	012318	190.48	13.832465	-56.893795	190.82	0.200	0.700	1.210	190.48	-0.90	1.80	 	 	 	 	 	 	 	 	 	 	 	 	 	 	 	 	 	 	1581470598	7.05	13.06
12/02/2020 01:23:19	120220	12022020	012319	190.85	13.832432	-56.893802	191.16	-0.560	1.160	1.120	190.85	-0.20	1.60	 	 	 	 	 	 	 	 	 	 	 	 	 	 	 	 	 	 	1581470599	7.35	13.61
12/02/2020 01:23:20	120220	12022020	012320	191.10	13.832395	-56.893815	191.41	-0.890	0.500	1.700	191.10	-0.60	2.00	 	 	 	 	 	 	 	 	 	 	 	 	 	 	 	 	 	 	1581470600	8.55	15.83
12/02/2020 01:23:21	120220	12022020	012321	191.30	13.832355	-56.893833	191.64	-0.810	-0.460	2.530	191.30	-1.60	2.80	 	 	 	 	 	 	 	 	 	 	 	 	 	 	 	 	 	 	1581470601	9.28	17.19
12/02/2020 01:23:22	120220	12022020	012322	191.56	13.832318	-56.893852	191.92	-0.620	-0.820	3.130	191.56	-2.10	3.50	 	 	 	 	 	 	 	 	 	 	 	 	 	 	 	 	 	 	1581470602	8.79	16.28
12/02/2020 01:23:23	120220	12022020	012323	191.67	13.832287	-56.893868	192.00	-0.410	-0.640	3.290	191.67	-1.90	3.80	 	 	 	 	 	 	 	 	 	 	 	 	 	 	 	 	 	 	1581470603	7.85	14.54
12/02/2020 01:23:24	120220	12022020	012324	191.30	13.832252	-56.893882	191.54	0.050	-0.660	3.210	191.30	-1.90	3.70	 	 	 	 	 	 	 	 	 	 	 	 	 	 	 	 	 	 	1581470604	7.82	14.48
12/02/2020 01:23:25	120220	12022020	012325	190.58	13.832213	-56.893890	190.80	0.720	-0.810	2.870	190.58	-2.10	3.50	 	 	 	 	 	 	 	 	 	 	 	 	 	 	 	 	 	 	1581470605	8.33	15.43
12/02/2020 01:23:26	120220	12022020	012326	190.08	13.832175	-56.893893	190.27	1.140	-0.520	2.320	190.00	-2.00	3.00	 	 	 	 	 	 	 	 	 	 	 	 	 	 	 	 	 	 	1581470606	8.30	15.37
12/02/2020 01:23:27	120220	12022020	012327	189.93	13.832140	-56.893895	190.27	0.920	0.110	1.680	189.93	-1.40	2.30	 	 	 	 	 	 	 	 	 	 	 	 	 	 	 	 	 	 	1581470607	7.86	14.56
12/02/2020 01:23:28	120220	12022020	012328	190.34	13.832105	-56.893900	190.72	0.130	0.630	1.430	190.34	-0.80	1.90	 	 	 	 	 	 	 	 	 	 	 	 	 	 	 	 	 	 	1581470608	7.55	13.98
12/02/2020 01:23:29	120220	12022020	012329	190.87	13.832070	-56.893910	191.24	-0.660	0.610	1.700	190.87	-0.60	2.10	 	 	 	 	 	 	 	 	 	 	 	 	 	 	 	 	 	 	1581470609	7.80	14.45
12/02/2020 01:23:30	120220	12022020	012330	191.12	13.832033	-56.893925	191.46	-0.940	-0.050	2.410	191.12	-1.20	2.70	 	 	 	 	 	 	 	 	 	 	 	 	 	 	 	 	 	 	1581470610	8.53	15.80
12/02/2020 01:23:31	120220	12022020	012331	191.08	13.831995	-56.893945	191.40	-0.740	-0.760	3.310	191.08	-1.90	3.60	 	 	 	 	 	 	 	 	 	 	 	 	 	 	 	 	 	 	1581470611	8.98	16.63
12/02/2020 01:23:32	120220	12022020	012332	190.87	13.831960	-56.893963	191.20	-0.330	-0.900	3.760	190.87	-2.20	4.20	 	 	 	 	 	 	 	 	 	 	 	 	 	 	 	 	 	 	1581470612	8.55	15.83
12/02/2020 01:23:33	120220	12022020	012333	190.63	13.831927	-56.893977	190.97	0.080	-0.500	3.530	190.63	-1.90	4.10	 	 	 	 	 	 	 	 	 	 	 	 	 	 	 	 	 	 	1581470613	7.74	14.33
12/02/2020 01:23:34	120220	12022020	012334	190.49	13.831893	-56.893983	190.82	0.440	-0.010	2.750	190.49	-1.40	3.50	 	 	 	 	 	 	 	 	 	 	 	 	 	 	 	 	 	 	1581470614	7.40	13.70
12/02/2020 01:23:35	120220	12022020	012335	190.46	13.831857	-56.893985	190.78	0.670	0.180	1.750	190.46	-1.10	2.50	 	 	 	 	 	 	 	 	 	 	 	 	 	 	 	 	 	 	1581470615	7.66	14.19
12/02/2020 01:23:36	120220	12022020	012336	190.52	13.831820	-56.893987	190.83	0.620	-0.100	1.080	190.52	-1.30	1.70	 	 	 	 	 	 	 	 	 	 	 	 	 	 	 	 	 	 	1581470616	8.17	15.13
12/02/2020 01:23:37	120220	12022020	012337	190.59	13.831780	-56.893993	190.89	0.270	-0.700	1.120	190.59	-2.30	1.80	 	 	 	 	 	 	 	 	 	 	 	 	 	 	 	 	 	 	1581470617	8.53	15.80
12/02/2020 01:23:38	120220	12022020	012338	190.58	13.831742	-56.894005	190.87	-0.160	-1.160	1.790	190.58	-2.40	2.10	 	 	 	 	 	 	 	 	 	 	 	 	 	 	 	 	 	 	1581470618	8.69	16.09
12/02/2020 01:23:39	120220	12022020	012339	190.41	13.831705	-56.894022	190.69	-0.390	-1.080	2.690	190.41	-2.50	3.00	 	 	 	 	 	 	 	 	 	 	 	 	 	 	 	 	 	 	1581470619	8.53	15.80
12/02/2020 01:23:40	120220	12022020	012340	190.17	13.831672	-56.894037	190.38	-0.300	-0.490	3.310	190.11	-2.00	3.70	 	 	 	 	 	 	 	 	 	 	 	 	 	 	 	 	 	 	1581470620	8.06	14.93
12/02/2020 01:23:41	120220	12022020	012341	189.81	13.831637	-56.894048	190.11	-0.130	0.250	3.440	189.81	-1.30	3.90	 	 	 	 	 	 	 	 	 	 	 	 	 	 	 	 	 	 	1581470621	7.77	14.39
12/02/2020 01:23:42	120220	12022020	012342	189.81	13.831602	-56.894060	190.14	-0.170	0.780	3.230	189.81	-0.70	3.80	 	 	 	 	 	 	 	 	 	 	 	 	 	 	 	 	 	 	1581470622	7.75	14.35
12/02/2020 01:23:43	120220	12022020	012343	190.16	13.831567	-56.894068	190.52	-0.340	0.980	2.740	190.16	-0.40	3.40	 	 	 	 	 	 	 	 	 	 	 	 	 	 	 	 	 	 	1581470623	7.76	14.37
12/02/2020 01:23:44	120220	12022020	012344	190.67	13.831532	-56.894077	191.03	-0.390	0.800	2.070	190.67	-0.40	2.70	 	 	 	 	 	 	 	 	 	 	 	 	 	 	 	 	 	 	1581470624	7.80	14.45
12/02/2020 01:23:45	120220	12022020	012345	191.12	13.831495	-56.894085	191.46	-0.140	0.230	1.480	191.12	-0.90	2.10	 	 	 	 	 	 	 	 	 	 	 	 	 	 	 	 	 	 	1581470625	7.99	14.80
12/02/2020 01:23:46	120220	12022020	012346	191.38	13.831458	-56.894092	191.69	0.360	-0.620	1.050	191.38	-1.70	1.60	 	 	 	 	 	 	 	 	 	 	 	 	 	 	 	 	 	 	1581470626	8.25	15.28
12/02/2020 01:23:47	120220	12022020	012347	191.44	13.831420	-56.894100	191.72	0.800	-1.430	0.920	191.44	-2.60	1.40	 	 	 	 	 	 	 	 	 	 	 	 	 	 	 	 	 	 	1581470627	8.40	15.56
12/02/2020 01:23:48	120220	12022020	012348	191.21	13.831382	-56.894108	191.44	0.910	-1.790	1.190	191.21	-3.10	1.60	 	 	 	 	 	 	 	 	 	 	 	 	 	 	 	 	 	 	1581470628	8.27	15.32
12/02/2020 01:23:49	120220	12022020	012349	190.69	13.831347	-56.894118	190.90	0.660	-1.490	1.730	190.69	-2.50	2.50	 	 	 	 	 	 	 	 	 	 	 	 	 	 	 	 	 	 	1581470629	7.96	14.74
12/02/2020 01:23:50	120220	12022020	012350	190.23	13.831312	-56.894128	190.49	0.130	-0.680	2.280	190.23	-2.20	2.70	 	 	 	 	 	 	 	 	 	 	 	 	 	 	 	 	 	 	1581470630	7.70	14.26
12/02/2020 01:23:51	120220	12022020	012351	190.09	13.831278	-56.894140	190.41	-0.560	0.200	2.660	190.09	-0.80	3.20	 	 	 	 	 	 	 	 	 	 	 	 	 	 	 	 	 	 	1581470631	7.69	14.24
12/02/2020 01:23:52	120220	12022020	012352	190.20	13.831243	-56.894152	190.56	-1.130	0.740	2.810	190.20	-0.70	3.30	 	 	 	 	 	 	 	 	 	 	 	 	 	 	 	 	 	 	1581470632	7.94	14.70
12/02/2020 01:23:53	120220	12022020	012353	190.39	13.831207	-56.894167	190.75	-1.320	0.800	2.830	190.39	-0.50	3.30	 	 	 	 	 	 	 	 	 	 	 	 	 	 	 	 	 	 	1581470633	8.35	15.46
12/02/2020 01:23:54	120220	12022020	012354	190.67	13.831170	-56.894180	191.04	-1.040	0.640	2.650	190.67	-0.60	3.20	 	 	 	 	 	 	 	 	 	 	 	 	 	 	 	 	 	 	1581470634	8.47	15.69
12/02/2020 01:23:55	120220	12022020	012355	190.98	13.831133	-56.894192	191.32	-0.330	0.350	1.990	190.98	-0.90	2.70	 	 	 	 	 	 	 	 	 	 	 	 	 	 	 	 	 	 	1581470635	8.28	15.33
12/02/2020 01:23:56	120220	12022020	012356	191.14	13.831095	-56.894200	191.45	0.660	-0.080	1.130	191.14	-1.30	1.80	 	 	 	 	 	 	 	 	 	 	 	 	 	 	 	 	 	 	1581470636	8.25	15.28
12/02/2020 01:23:57	120220	12022020	012357	191.09	13.831057	-56.894202	191.37	1.420	-0.460	0.510	191.09	-1.70	1.10	 	 	 	 	 	 	 	 	 	 	 	 	 	 	 	 	 	 	1581470637	8.29	15.35
12/02/2020 01:23:58	120220	12022020	012358	191.02	13.831020	-56.894205	191.31	1.410	-0.510	0.450	191.02	-1.80	0.90	 	 	 	 	 	 	 	 	 	 	 	 	 	 	 	 	 	 	1581470638	7.95	14.72
12/02/2020 01:23:59	120220	12022020	012359	191.08	13.830985	-56.894212	191.40	0.650	-0.420	1.040	191.08	-1.80	1.40	 	 	 	 	 	 	 	 	 	 	 	 	 	 	 	 	 	 	1581470639	7.53	13.95
12/02/2020 01:24:00	120220	12022020	012400	191.03	13.830952	-56.894227	191.33	-0.290	-0.580	2.130	191.03	-1.80	2.30	 	 	 	 	 	 	 	 	 	 	 	 	 	 	 	 	 	 	1581470640	7.87	14.58
12/02/2020 01:24:01	120220	12022020	012401	190.68	13.830917	-56.894247	190.97	-0.820	-1.060	3.330	190.68	-2.20	3.50	 	 	 	 	 	 	 	 	 	 	 	 	 	 	 	 	 	 	1581470641	8.71	16.13
12/02/2020 01:24:02	120220	12022020	012402	190.21	13.830878	-56.894265	190.54	-0.780	-1.270	3.980	190.21	-2.60	4.40	1017.70	26.00	26.10	20.60	20.60	-1.0	71.0	72.0	388.0	25.7	257.00	10.80	69.00	12.40	16	8568.0	27.2	27.2	1581470642	8.98	16.63
12/02/2020 01:24:03	120220	12022020	012403	190.03	13.830843	-56.894280	190.42	-0.500	-0.620	3.740	190.03	-2.10	4.40	 	 	 	 	 	 	 	 	 	 	 	 	 	 	 	 	 	 	1581470643	8.09	14.98
12/02/2020 01:24:04	120220	12022020	012404	190.26	13.830810	-56.894287	190.64	-0.260	0.270	2.760	190.26	-1.20	3.50	 	 	 	 	 	 	 	 	 	 	 	 	 	 	 	 	 	 	1581470644	7.33	13.58
12/02/2020 01:24:05	120220	12022020	012405	190.52	13.830775	-56.894290	190.83	-0.080	0.400	1.780	190.52	-0.90	2.50	 	 	 	 	 	 	 	 	 	 	 	 	 	 	 	 	 	 	1581470645	7.83	14.50
12/02/2020 01:24:06	120220	12022020	012406	190.51	13.830735	-56.894295	190.79	0.140	-0.110	1.380	190.51	-1.30	1.90	 	 	 	 	 	 	 	 	 	 	 	 	 	 	 	 	 	 	1581470646	8.69	16.09
12/02/2020 01:24:07	120220	12022020	012407	190.36	13.830695	-56.894303	190.64	0.320	-0.470	1.530	190.36	-1.70	2.00	 	 	 	 	 	 	 	 	 	 	 	 	 	 	 	 	 	 	1581470647	8.80	16.30
12/02/2020 01:24:08	120220	12022020	012408	190.25	13.830657	-56.894313	190.54	0.330	-0.230	1.790	190.25	-1.60	2.20	 	 	 	 	 	 	 	 	 	 	 	 	 	 	 	 	 	 	1581470648	8.22	15.22
12/02/2020 01:24:09	120220	12022020	012409	190.15	13.830623	-56.894323	190.44	0.200	0.240	2.040	190.15	-1.10	2.50	 	 	 	 	 	 	 	 	 	 	 	 	 	 	 	 	 	 	1581470649	7.65	14.17
12/02/2020 01:24:10	120220	12022020	012410	189.95	13.830588	-56.894335	190.24	0.020	0.480	2.390	189.95	-0.80	2.80	 	 	 	 	 	 	 	 	 	 	 	 	 	 	 	 	 	 	1581470650	7.74	14.33
12/02/2020 01:24:11	120220	12022020	012411	189.84	13.830553	-56.894345	190.15	-0.050	0.330	2.480	189.84	-0.90	3.00	 	 	 	 	 	 	 	 	 	 	 	 	 	 	 	 	 	 	1581470651	8.00	14.82
12/02/2020 01:24:12	120220	12022020	012412	189.85	13.830517	-56.894355	190.17	-0.030	0.060	2.270	189.85	-1.20	2.80	 	 	 	 	 	 	 	 	 	 	 	 	 	 	 	 	 	 	1581470652	8.00	14.82
12/02/2020 01:24:13	120220	12022020	012413	189.88	13.830480	-56.894365	190.20	0.040	-0.310	2.000	189.88	-1.50	2.50	 	 	 	 	 	 	 	 	 	 	 	 	 	 	 	 	 	 	1581470653	8.04	14.89
12/02/2020 01:24:14	120220	12022020	012414	189.97	13.830445	-56.894375	190.29	0.190	-0.650	1.760	189.97	-1.90	2.30	 	 	 	 	 	 	 	 	 	 	 	 	 	 	 	 	 	 	1581470654	8.05	14.91
12/02/2020 01:24:15	120220	12022020	012415	190.08	13.830408	-56.894382	190.36	0.390	-0.870	1.520	190.08	-2.10	2.10	 	 	 	 	 	 	 	 	 	 	 	 	 	 	 	 	 	 	1581470655	7.97	14.76
12/02/2020 01:24:16	120220	12022020	012416	190.14	13.830372	-56.894390	190.47	0.460	-1.060	1.430	190.16	-2.30	1.90	 	 	 	 	 	 	 	 	 	 	 	 	 	 	 	 	 	 	1581470656	8.04	14.89
12/02/2020 01:24:17	120220	12022020	012417	190.21	13.830335	-56.894398	190.54	0.230	-1.150	1.680	190.21	-2.40	2.10	 	 	 	 	 	 	 	 	 	 	 	 	 	 	 	 	 	 	1581470657	8.17	15.13
12/02/2020 01:24:18	120220	12022020	012418	190.19	13.830298	-56.894408	190.49	-0.210	-0.930	2.130	190.19	-2.30	2.50	 	 	 	 	 	 	 	 	 	 	 	 	 	 	 	 	 	 	1581470658	8.10	15.00
12/02/2020 01:24:19	120220	12022020	012419	190.00	13.830263	-56.894422	190.30	-0.530	-0.500	2.610	190.00	-1.90	3.00	 	 	 	 	 	 	 	 	 	 	 	 	 	 	 	 	 	 	1581470659	8.02	14.85
12/02/2020 01:24:20	120220	12022020	012420	189.70	13.830227	-56.894433	189.99	-0.510	-0.220	2.990	189.70	-1.60	3.40	 	 	 	 	 	 	 	 	 	 	 	 	 	 	 	 	 	 	1581470660	8.31	15.39
12/02/2020 01:24:21	120220	12022020	012421	189.35	13.830188	-56.894445	189.65	-0.210	0.050	3.270	189.35	-1.30	3.70	 	 	 	 	 	 	 	 	 	 	 	 	 	 	 	 	 	 	1581470661	8.57	15.87
12/02/2020 01:24:22	120220	12022020	012422	189.25	13.830150	-56.894453	189.59	-0.010	0.580	3.160	189.25	-0.90	3.70	 	 	 	 	 	 	 	 	 	 	 	 	 	 	 	 	 	 	1581470662	8.29	15.35
12/02/2020 01:24:23	120220	12022020	012423	189.53	13.830115	-56.894460	189.90	-0.150	1.120	2.720	189.53	-0.30	3.30	 	 	 	 	 	 	 	 	 	 	 	 	 	 	 	 	 	 	1581470663	7.81	14.46
12/02/2020 01:24:24	120220	12022020	012424	189.91	13.830080	-56.894468	190.26	-0.440	1.100	2.350	189.91	-0.20	2.90	 	 	 	 	 	 	 	 	 	 	 	 	 	 	 	 	 	 	1581470664	7.79	14.43
12/02/2020 01:24:25	120220	12022020	012425	190.11	13.830042	-56.894478	190.42	-0.460	0.390	2.230	190.11	-0.70	2.70	 	 	 	 	 	 	 	 	 	 	 	 	 	 	 	 	 	 	1581470665	8.26	15.30
12/02/2020 01:24:26	120220	12022020	012426	190.07	13.830003	-56.894490	190.36	-0.010	-0.620	2.160	190.07	-1.70	2.70	 	 	 	 	 	 	 	 	 	 	 	 	 	 	 	 	 	 	1581470666	8.67	16.06
12/02/2020 01:24:27	120220	12022020	012427	190.06	13.829967	-56.894500	190.38	0.580	-1.130	1.810	190.06	-2.50	2.00	 	 	 	 	 	 	 	 	 	 	 	 	 	 	 	 	 	 	1581470667	8.37	15.50
12/02/2020 01:24:28	120220	12022020	012428	190.22	13.829932	-56.894507	190.52	0.920	-0.990	1.080	190.22	-2.40	1.80	 	 	 	 	 	 	 	 	 	 	 	 	 	 	 	 	 	 	1581470668	7.57	14.02
12/02/2020 01:24:29	120220	12022020	012429	190.33	13.829897	-56.894508	190.61	0.930	-0.720	0.460	190.33	-2.10	1.10	 	 	 	 	 	 	 	 	 	 	 	 	 	 	 	 	 	 	1581470669	7.39	13.69
12/02/2020 01:24:30	120220	12022020	012430	190.35	13.829862	-56.894512	190.62	0.650	-0.670	0.420	190.35	-2.00	0.90	 	 	 	 	 	 	 	 	 	 	 	 	 	 	 	 	 	 	1581470670	7.74	14.33
12/02/2020 01:24:31	120220	12022020	012431	190.25	13.829825	-56.894520	190.49	0.070	-0.750	1.040	190.25	-2.10	1.40	 	 	 	 	 	 	 	 	 	 	 	 	 	 	 	 	 	 	1581470671	8.15	15.09
12/02/2020 01:24:32	120220	12022020	012432	190.06	13.829787	-56.894532	190.32	-0.530	-0.620	1.910	190.06	-2.00	2.20	 	 	 	 	 	 	 	 	 	 	 	 	 	 	 	 	 	 	1581470672	8.32	15.41
12/02/2020 01:24:33	120220	12022020	012433	189.84	13.829752	-56.894547	190.12	-0.950	-0.350	2.750	189.84	-1.70	3.00	 	 	 	 	 	 	 	 	 	 	 	 	 	 	 	 	 	 	1581470673	8.37	15.50
12/02/2020 01:24:34	120220	12022020	012434	189.56	13.829715	-56.894563	189.85	-0.990	-0.210	3.220	189.56	-1.60	3.60	 	 	 	 	 	 	 	 	 	 	 	 	 	 	 	 	 	 	1581470674	8.64	16.00
12/02/2020 01:24:35	120220	12022020	012435	189.43	13.829677	-56.894577	189.77	-0.730	-0.000	3.190	189.43	-1.40	3.70	 	 	 	 	 	 	 	 	 	 	 	 	 	 	 	 	 	 	1581470675	8.69	16.09
12/02/2020 01:24:36	120220	12022020	012436	189.54	13.829640	-56.894588	189.89	-0.310	0.560	2.730	189.54	-0.90	3.40	 	 	 	 	 	 	 	 	 	 	 	 	 	 	 	 	 	 	1581470676	8.10	15.00
12/02/2020 01:24:37	120220	12022020	012437	189.76	13.829605	-56.894595	190.09	0.170	1.090	1.870	189.76	-0.30	2.60	 	 	 	 	 	 	 	 	 	 	 	 	 	 	 	 	 	 	1581470677	7.54	13.96
12/02/2020 01:24:38	120220	12022020	012438	189.93	13.829568	-56.894597	190.25	0.620	0.900	0.960	189.93	-0.30	1.70	 	 	 	 	 	 	 	 	 	 	 	 	 	 	 	 	 	 	1581470678	7.89	14.61
12/02/2020 01:24:39	120220	12022020	012439	190.22	13.829530	-56.894600	190.54	0.780	0.030	0.500	190.22	-1.70	1.00	 	 	 	 	 	 	 	 	 	 	 	 	 	 	 	 	 	 	1581470679	8.50	15.74
12/02/2020 01:24:40	120220	12022020	012440	190.59	13.829490	-56.894608	191.05	0.580	-0.870	0.740	190.70	-2.00	1.10	 	 	 	 	 	 	 	 	 	 	 	 	 	 	 	 	 	 	1581470680	8.53	15.80
12/02/2020 01:24:41	120220	12022020	012441	191.23	13.829455	-56.894620	191.57	0.220	-1.310	1.200	191.23	-2.70	1.90	 	 	 	 	 	 	 	 	 	 	 	 	 	 	 	 	 	 	1581470681	8.13	15.06
12/02/2020 01:24:42	120220	12022020	012442	191.45	13.829420	-56.894632	191.76	-0.020	-1.490	1.830	191.45	-2.80	2.10	 	 	 	 	 	 	 	 	 	 	 	 	 	 	 	 	 	 	1581470682	7.97	14.76
12/02/2020 01:24:43	120220	12022020	012443	191.25	13.829385	-56.894645	191.53	-0.250	-1.350	2.760	191.25	-2.80	3.00	 	 	 	 	 	 	 	 	 	 	 	 	 	 	 	 	 	 	1581470683	8.12	15.04
12/02/2020 01:24:44	120220	12022020	012444	190.76	13.829350	-56.894662	191.05	-0.550	-0.760	3.600	190.76	-2.30	3.90	 	 	 	 	 	 	 	 	 	 	 	 	 	 	 	 	 	 	1581470684	8.09	14.98
12/02/2020 01:24:45	120220	12022020	012445	190.30	13.829315	-56.894675	190.60	-0.660	0.010	3.750	190.30	-1.50	4.20	 	 	 	 	 	 	 	 	 	 	 	 	 	 	 	 	 	 	1581470685	7.96	14.74
12/02/2020 01:24:46	120220	12022020	012446	190.02	13.829280	-56.894687	190.34	-0.380	0.490	3.420	190.02	-0.90	4.00	 	 	 	 	 	 	 	 	 	 	 	 	 	 	 	 	 	 	1581470686	8.15	15.09
12/02/2020 01:24:47	120220	12022020	012447	189.95	13.829240	-56.894695	190.29	0.270	0.570	2.760	189.95	-0.80	3.40	 	 	 	 	 	 	 	 	 	 	 	 	 	 	 	 	 	 	1581470687	8.56	15.85
12/02/2020 01:24:48	120220	12022020	012448	190.33	13.829202	-56.894698	190.74	0.780	0.610	1.730	190.33	-0.70	2.50	 	 	 	 	 	 	 	 	 	 	 	 	 	 	 	 	 	 	1581470688	8.55	15.83
12/02/2020 01:24:49	120220	12022020	012449	191.11	13.829163	-56.894702	191.47	0.680	0.610	1.150	191.11	-0.70	1.70	 	 	 	 	 	 	 	 	 	 	 	 	 	 	 	 	 	 	1581470689	8.03	14.87
12/02/2020 01:24:50	120220	12022020	012450	191.72	13.829128	-56.894713	192.08	-0.010	0.170	1.540	191.72	-1.00	1.90	 	 	 	 	 	 	 	 	 	 	 	 	 	 	 	 	 	 	1581470690	7.90	14.63
12/02/2020 01:24:51	120220	12022020	012451	191.77	13.829093	-56.894730	192.10	-0.490	-0.590	2.400	191.77	-1.80	2.70	 	 	 	 	 	 	 	 	 	 	 	 	 	 	 	 	 	 	1581470691	8.55	15.83
12/02/2020 01:24:52	120220	12022020	012452	191.50	13.829057	-56.894750	191.84	-0.580	-1.230	3.310	191.50	-2.50	3.70	 	 	 	 	 	 	 	 	 	 	 	 	 	 	 	 	 	 	1581470692	8.80	16.30
12/02/2020 01:24:53	120220	12022020	012453	191.23	13.829023	-56.894768	191.54	-0.140	-1.290	3.700	191.23	-2.70	4.20	 	 	 	 	 	 	 	 	 	 	 	 	 	 	 	 	 	 	1581470693	8.31	15.39
12/02/2020 01:24:54	120220	12022020	012454	190.85	13.828987	-56.894780	191.13	0.520	-1.050	3.400	190.85	-2.40	4.00	 	 	 	 	 	 	 	 	 	 	 	 	 	 	 	 	 	 	1581470694	7.97	14.76
12/02/2020 01:24:55	120220	12022020	012455	190.45	13.828950	-56.894785	190.75	0.900	-0.650	2.660	190.45	-2.10	3.30	 	 	 	 	 	 	 	 	 	 	 	 	 	 	 	 	 	 	1581470695	8.14	15.08
12/02/2020 01:24:56	120220	12022020	012456	190.37	13.828912	-56.894787	190.73	0.590	0.010	1.790	190.37	-1.50	2.50	 	 	 	 	 	 	 	 	 	 	 	 	 	 	 	 	 	 	1581470696	8.06	14.93
12/02/2020 01:24:57	120220	12022020	012457	190.72	13.828877	-56.894790	191.08	-0.200	0.650	1.100	190.72	-0.80	1.70	 	 	 	 	 	 	 	 	 	 	 	 	 	 	 	 	 	 	1581470697	7.78	14.41
12/02/2020 01:24:58	120220	12022020	012458	191.15	13.828840	-56.894800	191.47	-0.820	0.700	1.000	191.15	-0.60	1.50	 	 	 	 	 	 	 	 	 	 	 	 	 	 	 	 	 	 	1581470698	8.06	14.93
12/02/2020 01:24:59	120220	12022020	012459	191.41	13.828802	-56.894813	191.71	-0.800	0.210	1.300	191.41	-1.00	1.70	 	 	 	 	 	 	 	 	 	 	 	 	 	 	 	 	 	 	1581470699	8.80	16.30
12/02/2020 01:25:00	120220	12022020	012500	191.56	13.828762	-56.894828	191.88	-0.190	-0.490	1.680	191.56	-1.70	2.10	 	 	 	 	 	 	 	 	 	 	 	 	 	 	 	 	 	 	1581470700	9.07	16.80
12/02/2020 01:25:01	120220	12022020	012501	191.47	13.828723	-56.894840	191.75	0.340	-0.780	2.010	191.47	-2.10	2.40	 	 	 	 	 	 	 	 	 	 	 	 	 	 	 	 	 	 	1581470701	8.74	16.19
12/02/2020 01:25:02	120220	12022020	012502	191.04	13.828685	-56.894852	191.29	0.410	-0.690	2.440	191.04	-2.10	2.80	1017.70	26.10	26.10	20.70	20.70	-1.0	72.0	72.0	389.0	25.7	255.00	10.40	66.00	12.20	16	8941.0	27.2	27.2	1581470702	8.36	15.48
12/02/2020 01:25:03	120220	12022020	012503	190.54	13.828650	-56.894863	190.82	-0.020	-0.320	2.840	190.54	-1.80	3.20	 	 	 	 	 	 	 	 	 	 	 	 	 	 	 	 	 	 	1581470703	8.14	15.08
12/02/2020 01:25:04	120220	12022020	012504	190.31	13.828613	-56.894878	190.59	-0.500	0.070	2.990	190.27	-1.30	3.50	 	 	 	 	 	 	 	 	 	 	 	 	 	 	 	 	 	 	1581470704	8.16	15.11
12/02/2020 01:25:05	120220	12022020	012505	190.29	13.828578	-56.894892	190.65	-0.490	0.270	2.630	190.29	-1.00	2.80	 	 	 	 	 	 	 	 	 	 	 	 	 	 	 	 	 	 	1581470705	8.34	15.45
12/02/2020 01:25:06	120220	12022020	012506	190.54	13.828540	-56.894902	190.95	0.040	0.330	1.860	190.62	-1.00	2.50	 	 	 	 	 	 	 	 	 	 	 	 	 	 	 	 	 	 	1581470706	8.33	15.43
12/02/2020 01:25:07	120220	12022020	012507	190.97	13.828502	-56.894907	191.27	0.800	0.230	0.950	190.97	-1.10	1.50	 	 	 	 	 	 	 	 	 	 	 	 	 	 	 	 	 	 	1581470707	8.41	15.58
12/02/2020 01:25:08	120220	12022020	012508	191.29	13.828462	-56.894910	191.59	1.090	-0.030	0.390	191.29	-1.30	0.90	 	 	 	 	 	 	 	 	 	 	 	 	 	 	 	 	 	 	1581470708	8.54	15.82
12/02/2020 01:25:09	120220	12022020	012509	191.59	13.828423	-56.894917	191.88	0.620	-0.400	0.530	191.59	-1.70	0.90	 	 	 	 	 	 	 	 	 	 	 	 	 	 	 	 	 	 	1581470709	8.44	15.63
12/02/2020 01:25:10	120220	12022020	012510	191.61	13.828385	-56.894930	191.89	-0.250	-0.930	1.540	191.61	-2.10	1.70	 	 	 	 	 	 	 	 	 	 	 	 	 	 	 	 	 	 	1581470710	8.66	16.04
12/02/2020 01:25:11	120220	12022020	012511	191.43	13.828348	-56.894948	191.73	-0.620	-1.200	2.470	191.43	-2.50	2.80	 	 	 	 	 	 	 	 	 	 	 	 	 	 	 	 	 	 	1581470711	9.03	16.72
12/02/2020 01:25:12	120220	12022020	012512	191.32	13.828310	-56.894965	191.64	-0.480	-1.020	2.890	191.32	-2.40	3.30	 	 	 	 	 	 	 	 	 	 	 	 	 	 	 	 	 	 	1581470712	8.69	16.09
12/02/2020 01:25:13	120220	12022020	012513	191.17	13.828272	-56.894977	191.47	-0.040	-0.620	2.840	191.17	-2.00	3.30	 	 	 	 	 	 	 	 	 	 	 	 	 	 	 	 	 	 	1581470713	8.48	15.70
12/02/2020 01:25:14	120220	12022020	012514	190.93	13.828233	-56.894985	191.20	0.200	-0.400	2.580	190.93	-1.80	3.10	 	 	 	 	 	 	 	 	 	 	 	 	 	 	 	 	 	 	1581470714	8.73	16.17
12/02/2020 01:25:15	120220	12022020	012515	190.65	13.828192	-56.894993	190.97	0.170	-0.300	2.220	190.65	-1.60	2.80	 	 	 	 	 	 	 	 	 	 	 	 	 	 	 	 	 	 	1581470715	9.02	16.71
12/02/2020 01:25:16	120220	12022020	012516	190.41	13.828150	-56.895000	190.72	0.000	-0.120	1.850	190.41	-1.50	2.40	 	 	 	 	 	 	 	 	 	 	 	 	 	 	 	 	 	 	1581470716	9.07	16.80
12/02/2020 01:25:17	120220	12022020	012517	190.24	13.828110	-56.895010	190.56	-0.190	0.230	1.710	190.24	-0.80	2.20	 	 	 	 	 	 	 	 	 	 	 	 	 	 	 	 	 	 	1581470717	8.91	16.50
12/02/2020 01:25:18	120220	12022020	012518	190.34	13.828070	-56.895020	190.66	-0.370	0.710	1.700	190.34	-0.70	2.20	 	 	 	 	 	 	 	 	 	 	 	 	 	 	 	 	 	 	1581470718	8.61	15.95
12/02/2020 01:25:19	120220	12022020	012519	190.70	13.828033	-56.895032	191.01	-0.570	0.980	1.790	190.70	-0.40	2.20	 	 	 	 	 	 	 	 	 	 	 	 	 	 	 	 	 	 	1581470719	8.49	15.72
12/02/2020 01:25:20	120220	12022020	012520	191.08	13.827995	-56.895045	191.39	-0.660	0.730	2.200	191.08	-0.50	2.60	 	 	 	 	 	 	 	 	 	 	 	 	 	 	 	 	 	 	1581470720	8.81	16.32
12/02/2020 01:25:21	120220	12022020	012521	191.44	13.827955	-56.895062	191.76	-0.480	0.090	2.600	191.44	-1.10	3.00	 	 	 	 	 	 	 	 	 	 	 	 	 	 	 	 	 	 	1581470721	9.15	16.95
12/02/2020 01:25:22	120220	12022020	012522	191.82	13.827915	-56.895077	192.15	0.050	-0.480	2.520	191.82	-1.70	3.00	 	 	 	 	 	 	 	 	 	 	 	 	 	 	 	 	 	 	1581470722	9.00	16.67
12/02/2020 01:25:23	120220	12022020	012523	192.12	13.827877	-56.895085	192.45	0.760	-0.760	1.980	192.12	-2.00	2.50	 	 	 	 	 	 	 	 	 	 	 	 	 	 	 	 	 	 	1581470723	8.56	15.85
12/02/2020 01:25:24	120220	12022020	012524	192.17	13.827837	-56.895090	192.48	1.360	-1.010	1.220	192.17	-2.30	1.80	 	 	 	 	 	 	 	 	 	 	 	 	 	 	 	 	 	 	1581470724	8.67	16.06
12/02/2020 01:25:25	120220	12022020	012525	192.11	13.827795	-56.895090	192.41	1.520	-1.230	0.530	192.11	-2.50	1.10	 	 	 	 	 	 	 	 	 	 	 	 	 	 	 	 	 	 	1581470725	9.03	16.72
12/02/2020 01:25:26	120220	12022020	012526	192.00	13.827753	-56.895095	192.28	1.020	-1.240	0.490	192.00	-2.60	0.90	 	 	 	 	 	 	 	 	 	 	 	 	 	 	 	 	 	 	1581470726	8.97	16.61
12/02/2020 01:25:27	120220	12022020	012527	191.49	13.827712	-56.895105	191.77	0.080	-1.200	1.250	191.49	-2.50	1.60	 	 	 	 	 	 	 	 	 	 	 	 	 	 	 	 	 	 	1581470727	9.16	16.96
12/02/2020 01:25:28	120220	12022020	012528	190.83	13.827670	-56.895123	191.15	-0.990	-0.890	2.390	190.83	-2.30	2.70	 	 	 	 	 	 	 	 	 	 	 	 	 	 	 	 	 	 	1581470728	9.61	17.80
12/02/2020 01:25:29	120220	12022020	012529	190.64	13.827632	-56.895147	191.00	-1.830	-0.090	3.320	190.64	-0.90	3.90	 	 	 	 	 	 	 	 	 	 	 	 	 	 	 	 	 	 	1581470729	9.63	17.83
12/02/2020 01:25:30	120220	12022020	012530	190.92	13.827595	-56.895168	191.39	-1.990	0.920	3.340	191.02	-0.50	3.80	 	 	 	 	 	 	 	 	 	 	 	 	 	 	 	 	 	 	1581470730	9.17	16.98
12/02/2020 01:25:31	120220	12022020	012531	191.53	13.827557	-56.895183	191.88	-1.250	1.390	2.590	191.53	-0.10	2.50	 	 	 	 	 	 	 	 	 	 	 	 	 	 	 	 	 	 	1581470731	9.00	16.67
12/02/2020 01:25:32	120220	12022020	012532	191.83	13.827512	-56.895192	192.16	0.050	0.870	1.570	191.83	-0.30	2.20	 	 	 	 	 	 	 	 	 	 	 	 	 	 	 	 	 	 	1581470732	9.78	18.11
12/02/2020 01:25:33	120220	12022020	012533	192.03	13.827465	-56.895195	192.34	1.020	0.040	0.920	192.03	-1.20	1.40	 	 	 	 	 	 	 	 	 	 	 	 	 	 	 	 	 	 	1581470733	10.15	18.80
12/02/2020 01:25:34	120220	12022020	012534	192.20	13.827420	-56.895200	192.50	1.090	-0.440	0.880	192.20	-1.70	1.30	 	 	 	 	 	 	 	 	 	 	 	 	 	 	 	 	 	 	1581470734	9.52	17.63
12/02/2020 01:25:35	120220	12022020	012535	192.28	13.827380	-56.895212	192.59	0.510	-0.540	1.380	192.28	-1.90	1.80	 	 	 	 	 	 	 	 	 	 	 	 	 	 	 	 	 	 	1581470735	8.85	16.39
12/02/2020 01:25:36	120220	12022020	012536	192.17	13.827342	-56.895227	192.49	0.050	-0.550	2.130	192.17	-1.90	2.50	 	 	 	 	 	 	 	 	 	 	 	 	 	 	 	 	 	 	1581470736	8.78	16.26
12/02/2020 01:25:37	120220	12022020	012537	191.92	13.827303	-56.895242	192.26	0.070	-0.560	2.650	191.92	-1.90	3.10	 	 	 	 	 	 	 	 	 	 	 	 	 	 	 	 	 	 	1581470737	8.95	16.58
12/02/2020 01:25:38	120220	12022020	012538	191.76	13.827265	-56.895253	192.10	0.290	-0.370	2.690	191.76	-1.70	3.20	 	 	 	 	 	 	 	 	 	 	 	 	 	 	 	 	 	 	1581470738	8.82	16.33
12/02/2020 01:25:39	120220	12022020	012539	191.83	13.827225	-56.895263	192.18	0.330	-0.140	2.390	191.83	-1.50	2.90	 	 	 	 	 	 	 	 	 	 	 	 	 	 	 	 	 	 	1581470739	8.70	16.11
12/02/2020 01:25:40	120220	12022020	012540	191.84	13.827183	-56.895275	192.18	0.150	-0.380	2.110	191.84	-1.60	2.60	 	 	 	 	 	 	 	 	 	 	 	 	 	 	 	 	 	 	1581470740	9.17	16.98
12/02/2020 01:25:41	120220	12022020	012541	191.51	13.827138	-56.895288	191.84	0.020	-1.040	2.170	191.51	-2.30	2.60	 	 	 	 	 	 	 	 	 	 	 	 	 	 	 	 	 	 	1581470741	10.02	18.56
12/02/2020 01:25:42	120220	12022020	012542	191.22	13.827095	-56.895302	191.51	0.000	-1.200	2.240	191.17	-2.50	2.70	 	 	 	 	 	 	 	 	 	 	 	 	 	 	 	 	 	 	1581470742	10.03	18.58
12/02/2020 01:25:43	120220	12022020	012543	191.09	13.827053	-56.895313	191.43	-0.000	-0.530	2.050	191.09	-2.00	2.60	 	 	 	 	 	 	 	 	 	 	 	 	 	 	 	 	 	 	1581470743	9.18	17.00
12/02/2020 01:25:44	120220	12022020	012544	191.19	13.827013	-56.895322	191.52	-0.080	0.230	1.710	191.19	-1.20	2.20	 	 	 	 	 	 	 	 	 	 	 	 	 	 	 	 	 	 	1581470744	8.90	16.48
12/02/2020 01:25:45	120220	12022020	012544	191.47	13.826970	-56.895330	191.81	-0.180	0.410	1.280	191.47	-0.90	1.80	 	 	 	 	 	 	 	 	 	 	 	 	 	 	 	 	 	 	1581470744	9.42	17.45
12/02/2020 01:25:46	120220	12022020	012546	192.03	13.826925	-56.895338	192.36	-0.340	0.290	0.980	192.03	-1.00	1.50	 	 	 	 	 	 	 	 	 	 	 	 	 	 	 	 	 	 	1581470746	9.72	18.00
12/02/2020 01:25:47	120220	12022020	012547	192.77	13.826883	-56.895352	193.10	-0.590	0.260	0.930	192.77	-1.10	1.40	 	 	 	 	 	 	 	 	 	 	 	 	 	 	 	 	 	 	1581470747	9.39	17.39
12/02/2020 01:25:48	120220	12022020	012548	193.40	13.826843	-56.895365	193.72	-0.660	0.170	1.100	193.40	-1.10	1.50	 	 	 	 	 	 	 	 	 	 	 	 	 	 	 	 	 	 	1581470748	9.15	16.95
12/02/2020 01:25:49	120220	12022020	012549	193.57	13.826802	-56.895378	193.88	-0.260	-0.310	1.530	193.57	-1.50	1.90	 	 	 	 	 	 	 	 	 	 	 	 	 	 	 	 	 	 	1581470749	9.51	17.61
12/02/2020 01:25:50	120220	12022020	012550	193.28	13.826757	-56.895393	193.60	0.420	-1.010	2.130	193.28	-2.20	2.50	 	 	 	 	 	 	 	 	 	 	 	 	 	 	 	 	 	 	1581470750	10.04	18.59
12/02/2020 01:25:51	120220	12022020	012551	192.72	13.826712	-56.895407	193.05	0.870	-1.280	2.740	192.72	-2.60	3.10	 	 	 	 	 	 	 	 	 	 	 	 	 	 	 	 	 	 	1581470751	9.98	18.48
12/02/2020 01:25:52	120220	12022020	012552	192.00	13.826670	-56.895418	192.31	0.840	-0.820	3.030	192.00	-2.20	3.50	 	 	 	 	 	 	 	 	 	 	 	 	 	 	 	 	 	 	1581470752	9.48	17.56
12/02/2020 01:25:53	120220	12022020	012553	191.48	13.826628	-56.895428	191.80	0.430	0.140	2.840	191.48	-1.30	3.40	 	 	 	 	 	 	 	 	 	 	 	 	 	 	 	 	 	 	1581470753	8.97	16.61
12/02/2020 01:25:54	120220	12022020	012554	191.48	13.826588	-56.895438	191.80	-0.150	0.880	2.330	191.48	-0.50	2.90	 	 	 	 	 	 	 	 	 	 	 	 	 	 	 	 	 	 	1581470754	8.93	16.54
12/02/2020 01:25:55	120220	12022020	012555	191.77	13.826547	-56.895450	192.22	-0.670	0.940	1.810	191.89	-0.40	2.40	 	 	 	 	 	 	 	 	 	 	 	 	 	 	 	 	 	 	1581470755	9.44	17.48
12/02/2020 01:25:56	120220	12022020	012556	192.53	13.826503	-56.895465	193.03	-0.900	0.520	1.350	192.70	-0.70	1.90	 	 	 	 	 	 	 	 	 	 	 	 	 	 	 	 	 	 	1581470756	9.76	18.08
12/02/2020 01:25:57	120220	12022020	012557	193.50	13.826462	-56.895482	193.82	-0.740	-0.030	1.070	193.50	-1.30	1.60	 	 	 	 	 	 	 	 	 	 	 	 	 	 	 	 	 	 	1581470757	9.63	17.83
12/02/2020 01:25:58	120220	12022020	012558	193.82	13.826418	-56.895497	194.11	-0.160	-0.790	1.180	193.82	-2.00	1.60	 	 	 	 	 	 	 	 	 	 	 	 	 	 	 	 	 	 	1581470758	9.73	18.02
12/02/2020 01:25:59	120220	12022020	012559	193.58	13.826375	-56.895512	193.87	0.640	-1.550	1.540	193.58	-2.80	2.00	 	 	 	 	 	 	 	 	 	 	 	 	 	 	 	 	 	 	1581470759	9.99	18.50
12/02/2020 01:26:00	120220	12022020	012600	193.04	13.826330	-56.895522	193.33	1.290	-1.660	1.880	193.04	-3.00	2.30	 	 	 	 	 	 	 	 	 	 	 	 	 	 	 	 	 	 	1581470760	9.82	18.19
12/02/2020 01:26:01	120220	12022020	012601	192.64	13.826287	-56.895530	192.93	1.390	-0.960	1.910	192.64	-2.40	2.40	 	 	 	 	 	 	 	 	 	 	 	 	 	 	 	 	 	 	1581470761	9.29	17.21
12/02/2020 01:26:02	120220	12022020	012602	192.60	13.826245	-56.895535	192.92	0.780	0.020	1.820	192.60	-1.40	2.30	1017.70	26.10	26.20	20.80	20.90	-1.0	72.0	72.0	390.0	25.7	258.00	10.20	67.00	12.10	16	8410.0	27.2	27.2	1581470762	9.00	16.67
12/02/2020 01:26:03	120220	12022020	012603	192.78	13.826205	-56.895545	193.11	-0.310	0.640	1.980	192.78	-0.70	2.40	 	 	 	 	 	 	 	 	 	 	 	 	 	 	 	 	 	 	1581470763	9.19	17.02
12/02/2020 01:26:04	120220	12022020	012604	192.78	13.826162	-56.895563	193.12	-1.310	0.530	2.540	192.78	-0.70	2.90	 	 	 	 	 	 	 	 	 	 	 	 	 	 	 	 	 	 	1581470764	9.93	18.39
12/02/2020 01:26:05	120220	12022020	012605	192.52	13.826117	-56.895587	192.88	-1.780	-0.120	3.250	192.52	-1.30	3.60	 	 	 	 	 	 	 	 	 	 	 	 	 	 	 	 	 	 	1581470765	10.78	19.96
12/02/2020 01:26:06	120220	12022020	012606	192.04	13.826072	-56.895612	192.38	-1.520	-0.710	3.740	192.04	-2.00	4.20	 	 	 	 	 	 	 	 	 	 	 	 	 	 	 	 	 	 	1581470766	11.02	20.41
12/02/2020 01:26:07	120220	12022020	012607	191.45	13.826028	-56.895632	191.78	-0.650	-0.730	3.530	191.45	-2.10	4.10	 	 	 	 	 	 	 	 	 	 	 	 	 	 	 	 	 	 	1581470767	10.30	19.08
12/02/2020 01:26:08	120220	12022020	012607	190.93	13.825985	-56.895642	191.24	0.440	-0.270	2.650	190.93	-1.60	3.30	 	 	 	 	 	 	 	 	 	 	 	 	 	 	 	 	 	 	1581470767	9.55	17.69
12/02/2020 01:26:09	120220	12022020	012609	190.73	13.825940	-56.895643	191.04	1.240	0.290	1.430	190.73	-1.10	2.10	 	 	 	 	 	 	 	 	 	 	 	 	 	 	 	 	 	 	1581470769	9.44	17.48
12/02/2020 01:26:10	120220	12022020	012610	191.22	13.825897	-56.895645	191.55	1.320	0.640	0.530	191.22	-0.70	1.10	 	 	 	 	 	 	 	 	 	 	 	 	 	 	 	 	 	 	1581470770	9.40	17.41
12/02/2020 01:26:11	120220	12022020	012611	192.04	13.825853	-56.895650	192.36	0.790	0.420	0.590	192.04	-0.80	1.00	 	 	 	 	 	 	 	 	 	 	 	 	 	 	 	 	 	 	1581470771	9.38	17.37
12/02/2020 01:26:12	120220	12022020	012611	192.33	13.825810	-56.895665	192.64	0.240	-0.520	1.650	192.33	-1.70	1.90	 	 	 	 	 	 	 	 	 	 	 	 	 	 	 	 	 	 	1581470771	10.01	18.54
12/02/2020 01:26:13	120220	12022020	012613	191.87	13.825763	-56.895685	192.21	0.090	-1.620	3.210	191.87	-2.80	3.50	 	 	 	 	 	 	 	 	 	 	 	 	 	 	 	 	 	 	1581470773	10.84	20.08
12/02/2020 01:26:14	120220	12022020	012613	191.56	13.825720	-56.895705	191.94	0.030	-1.560	4.230	191.56	-3.00	4.60	 	 	 	 	 	 	 	 	 	 	 	 	 	 	 	 	 	 	1581470773	10.22	18.93
12/02/2020 01:26:15	120220	12022020	012615	191.89	13.825682	-56.895720	192.28	-0.260	-0.350	4.200	191.89	-1.90	4.70	 	 	 	 	 	 	 	 	 	 	 	 	 	 	 	 	 	 	1581470775	8.72	16.15
12/02/2020 01:26:16	120220	12022020	012616	192.48	13.825643	-56.895732	192.86	-0.620	0.590	3.460	192.48	-0.80	4.00	 	 	 	 	 	 	 	 	 	 	 	 	 	 	 	 	 	 	1581470776	8.48	15.70
12/02/2020 01:26:17	120220	12022020	012617	192.76	13.825600	-56.895742	193.11	-0.620	0.310	2.690	192.76	-0.90	3.30	 	 	 	 	 	 	 	 	 	 	 	 	 	 	 	 	 	 	1581470777	9.70	17.96
12/02/2020 01:26:18	120220	12022020	012618	192.61	13.825550	-56.895753	192.94	-0.160	-0.700	2.370	192.61	-1.90	2.90	 	 	 	 	 	 	 	 	 	 	 	 	 	 	 	 	 	 	1581470778	10.88	20.15
12/02/2020 01:26:19	120220	12022020	012618	192.31	13.825502	-56.895767	192.64	0.330	-1.240	2.180	192.31	-2.40	2.50	 	 	 	 	 	 	 	 	 	 	 	 	 	 	 	 	 	 	1581470778	10.83	20.06
12/02/2020 01:26:20	120220	12022020	012620	192.22	13.825457	-56.895775	192.55	0.430	-0.700	1.660	192.22	-2.10	2.30	 	 	 	 	 	 	 	 	 	 	 	 	 	 	 	 	 	 	1581470780	9.82	18.19
12/02/2020 01:26:21	120220	12022020	012621	192.47	13.825417	-56.895783	192.79	0.110	0.330	1.040	192.47	-0.60	1.30	 	 	 	 	 	 	 	 	 	 	 	 	 	 	 	 	 	 	1581470781	9.04	16.74
12/02/2020 01:26:22	120220	12022020	012622	192.97	13.825375	-56.895793	193.29	-0.220	0.890	0.680	192.97	-0.50	1.20	 	 	 	 	 	 	 	 	 	 	 	 	 	 	 	 	 	 	1581470782	9.13	16.91
12/02/2020 01:26:23	120220	12022020	012622	193.35	13.825330	-56.895805	193.67	-0.200	0.450	0.850	193.35	-0.80	1.30	 	 	 	 	 	 	 	 	 	 	 	 	 	 	 	 	 	 	1581470782	10.02	18.56
12/02/2020 01:26:24	120220	12022020	012624	193.26	13.825280	-56.895822	193.57	0.150	-0.650	1.390	193.26	-1.80	1.80	 	 	 	 	 	 	 	 	 	 	 	 	 	 	 	 	 	 	1581470784	10.95	20.28
12/02/2020 01:26:25	120220	12022020	012625	192.82	13.825233	-56.895838	193.14	0.420	-1.310	1.990	192.82	-2.60	2.40	 	 	 	 	 	 	 	 	 	 	 	 	 	 	 	 	 	 	1581470785	10.95	20.28
12/02/2020 01:26:26	120220	12022020	012626	192.62	13.825190	-56.895853	192.96	0.220	-0.590	2.160	192.62	-2.10	2.70	 	 	 	 	 	 	 	 	 	 	 	 	 	 	 	 	 	 	1581470786	9.54	17.67
12/02/2020 01:26:27	120220	12022020	012627	192.76	13.825153	-56.895863	193.10	-0.250	0.640	1.870	192.76	-0.80	2.40	 	 	 	 	 	 	 	 	 	 	 	 	 	 	 	 	 	 	1581470787	8.37	15.50
12/02/2020 01:26:28	120220	12022020	012628	192.81	13.825112	-56.895875	193.14	-0.440	0.660	1.680	192.81	-0.60	2.20	 	 	 	 	 	 	 	 	 	 	 	 	 	 	 	 	 	 	1581470788	9.28	17.19
12/02/2020 01:26:29	120220	12022020	012629	192.55	13.825063	-56.895890	192.88	-0.040	-0.570	1.920	192.55	-1.70	2.40	 	 	 	 	 	 	 	 	 	 	 	 	 	 	 	 	 	 	1581470789	10.99	20.35
12/02/2020 01:26:30	120220	12022020	012630	192.38	13.825012	-56.895905	192.72	0.390	-1.410	2.250	192.38	-2.70	2.70	 	 	 	 	 	 	 	 	 	 	 	 	 	 	 	 	 	 	1581470790	11.23	20.80
12/02/2020 01:26:31	120220	12022020	012631	192.49	13.824968	-56.895918	192.83	0.280	-0.930	2.470	192.49	-2.40	2.90	 	 	 	 	 	 	 	 	 	 	 	 	 	 	 	 	 	 	1581470791	9.83	18.21
12/02/2020 01:26:32	120220	12022020	012632	192.58	13.824930	-56.895933	192.91	-0.210	-0.000	2.560	192.58	-1.40	3.00	 	 	 	 	 	 	 	 	 	 	 	 	 	 	 	 	 	 	1581470792	8.97	16.61
12/02/2020 01:26:33	120220	12022020	012633	192.33	13.824887	-56.895947	192.67	-0.370	0.230	2.670	192.33	-1.10	3.10	 	 	 	 	 	 	 	 	 	 	 	 	 	 	 	 	 	 	1581470793	9.62	17.82
12/02/2020 01:26:34	120220	12022020	012634	192.13	13.824840	-56.895960	192.46	-0.140	0.010	2.660	192.11	-1.30	3.20	 	 	 	 	 	 	 	 	 	 	 	 	 	 	 	 	 	 	1581470794	10.39	19.24
12/02/2020 01:26:35	120220	12022020	012634	192.20	13.824795	-56.895972	192.55	0.020	-0.000	2.390	192.20	-1.30	2.90	 	 	 	 	 	 	 	 	 	 	 	 	 	 	 	 	 	 	1581470794	10.13	18.76
12/02/2020 01:26:36	120220	12022020	012636	192.31	13.824750	-56.895983	192.65	-0.050	0.010	2.100	192.31	-1.30	2.60	 	 	 	 	 	 	 	 	 	 	 	 	 	 	 	 	 	 	1581470796	9.81	18.17
12/02/2020 01:26:37	120220	12022020	012637	192.25	13.824705	-56.895998	192.57	-0.080	-0.300	2.060	192.25	-1.60	2.50	 	 	 	 	 	 	 	 	 	 	 	 	 	 	 	 	 	 	1581470797	10.15	18.80
12/02/2020 01:26:38	120220	12022020	012637	192.13	13.824660	-56.896013	192.45	0.150	-0.740	2.210	192.13	-2.00	2.70	 	 	 	 	 	 	 	 	 	 	 	 	 	 	 	 	 	 	1581470797	10.49	19.43
12/02/2020 01:26:39	120220	12022020	012639	192.06	13.824613	-56.896028	192.38	0.480	-0.820	2.290	192.06	-2.20	2.80	 	 	 	 	 	 	 	 	 	 	 	 	 	 	 	 	 	 	1581470799	10.32	19.11
12/02/2020 01:26:40	120220	12022020	012640	192.31	13.824568	-56.896038	192.64	0.560	-0.340	1.920	192.31	-1.80	2.50	 	 	 	 	 	 	 	 	 	 	 	 	 	 	 	 	 	 	1581470800	9.72	18.00
12/02/2020 01:26:41	120220	12022020	012641	192.78	13.824527	-56.896047	193.11	0.280	0.190	1.350	192.78	-1.20	1.90	 	 	 	 	 	 	 	 	 	 	 	 	 	 	 	 	 	 	1581470801	9.41	17.43
12/02/2020 01:26:42	120220	12022020	012642	193.27	13.824482	-56.896055	193.59	-0.110	0.280	1.060	193.27	-1.00	1.60	 	 	 	 	 	 	 	 	 	 	 	 	 	 	 	 	 	 	1581470802	9.74	18.04
12/02/2020 01:26:43	120220	12022020	012642	193.64	13.824435	-56.896065	193.94	-0.420	-0.160	1.200	193.64	-1.40	1.60	 	 	 	 	 	 	 	 	 	 	 	 	 	 	 	 	 	 	1581470802	10.23	18.95
12/02/2020 01:26:44	120220	12022020	012644	193.48	13.824387	-56.896082	193.79	-0.520	-1.010	1.890	193.48	-2.20	2.30	 	 	 	 	 	 	 	 	 	 	 	 	 	 	 	 	 	 	1581470804	10.84	20.08
12/02/2020 01:26:45	120220	12022020	012645	192.87	13.824338	-56.896102	193.18	-0.380	-1.640	2.750	192.87	-2.90	3.10	 	 	 	 	 	 	 	 	 	 	 	 	 	 	 	 	 	 	1581470805	11.21	20.76
12/02/2020 01:26:46	120220	12022020	012646	192.25	13.824293	-56.896118	192.57	-0.130	-1.270	3.180	192.25	-2.70	3.60	 	 	 	 	 	 	 	 	 	 	 	 	 	 	 	 	 	 	1581470806	10.54	19.52
12/02/2020 01:26:47	120220	12022020	012646	191.88	13.824250	-56.896132	192.20	-0.030	-0.130	3.000	191.88	-1.60	3.50	 	 	 	 	 	 	 	 	 	 	 	 	 	 	 	 	 	 	1581470806	9.64	17.85
12/02/2020 01:26:48	120220	12022020	012648	191.80	13.824207	-56.896142	192.13	-0.210	0.830	2.450	191.80	-0.60	3.00	 	 	 	 	 	 	 	 	 	 	 	 	 	 	 	 	 	 	1581470808	9.53	17.65
12/02/2020 01:26:49	120220	12022020	012648	191.93	13.824162	-56.896155	192.23	-0.420	1.070	2.080	191.93	-0.20	2.60	 	 	 	 	 	 	 	 	 	 	 	 	 	 	 	 	 	 	1581470808	10.01	18.54
12/02/2020 01:26:50	120220	12022020	012649	192.10	13.824115	-56.896170	192.40	-0.270	0.710	1.830	192.10	-0.50	2.30	 	 	 	 	 	 	 	 	 	 	 	 	 	 	 	 	 	 	1581470809	10.45	19.35
12/02/2020 01:26:51	120220	12022020	012651	192.15	13.824068	-56.896182	192.45	0.340	0.130	1.720	192.15	-1.10	2.20	 	 	 	 	 	 	 	 	 	 	 	 	 	 	 	 	 	 	1581470811	10.55	19.54
12/02/2020 01:26:52	120220	12022020	012652	192.10	13.824020	-56.896193	192.41	0.980	-0.390	1.770	192.10	-1.60	2.20	 	 	 	 	 	 	 	 	 	 	 	 	 	 	 	 	 	 	1581470812	10.43	19.32
12/02/2020 01:26:53	120220	12022020	012652	192.12	13.823975	-56.896203	192.44	1.100	-0.640	1.900	192.12	-1.90	2.40	 	 	 	 	 	 	 	 	 	 	 	 	 	 	 	 	 	 	1581470812	10.10	18.71
12/02/2020 01:26:54	120220	12022020	012654	192.26	13.823930	-56.896217	192.60	0.640	-0.800	2.180	192.26	-2.10	2.60	 	 	 	 	 	 	 	 	 	 	 	 	 	 	 	 	 	 	1581470814	9.97	18.46
12/02/2020 01:26:55	120220	12022020	012655	192.66	13.823887	-56.896232	193.02	-0.050	-0.790	2.310	192.66	-2.00	2.70	 	 	 	 	 	 	 	 	 	 	 	 	 	 	 	 	 	 	1581470815	9.95	18.43
12/02/2020 01:26:56	120220	12022020	012656	193.26	13.823843	-56.896247	193.62	-0.490	-0.560	2.090	193.26	-1.90	2.60	 	 	 	 	 	 	 	 	 	 	 	 	 	 	 	 	 	 	1581470816	9.73	18.02
12/02/2020 01:26:57	120220	12022020	012657	193.70	13.823798	-56.896258	194.05	-0.520	-0.580	1.760	193.70	-2.10	2.10	 	 	 	 	 	 	 	 	 	 	 	 	 	 	 	 	 	 	1581470817	9.96	18.45
12/02/2020 01:26:58	120220	12022020	012658	193.73	13.823750	-56.896272	194.02	-0.250	-1.070	1.530	193.68	-2.30	2.00	 	 	 	 	 	 	 	 	 	 	 	 	 	 	 	 	 	 	1581470818	10.69	19.80
12/02/2020 01:26:59	120220	12022020	012659	193.17	13.823700	-56.896283	193.48	0.080	-1.630	1.600	193.17	-2.90	2.10	 	 	 	 	 	 	 	 	 	 	 	 	 	 	 	 	 	 	1581470819	11.32	20.96
12/02/2020 01:27:00	120220	12022020	012700	192.53	13.823648	-56.896295	192.84	0.180	-1.610	1.790	192.53	-3.00	2.30	 	 	 	 	 	 	 	 	 	 	 	 	 	 	 	 	 	 	1581470820	11.27	20.87
12/02/2020 01:27:01	120220	12022020	012700	191.88	13.823600	-56.896307	192.19	-0.080	-0.750	2.100	191.88	-2.20	2.50	 	 	 	 	 	 	 	 	 	 	 	 	 	 	 	 	 	 	1581470820	10.68	19.78
12/02/2020 01:27:02	120220	12022020	012702	191.36	13.823553	-56.896322	191.68	-0.540	0.460	2.440	191.36	-1.00	2.90	1017.70	26.00	26.10	20.70	20.80	-1.0	72.0	72.0	392.0	25.7	258.00	10.80	68.00	12.90	16	7756.0	27.2	27.2	1581470822	10.38	19.22
12/02/2020 01:27:03	120220	12022020	012703	191.35	13.823508	-56.896337	191.69	-1.050	1.630	2.610	191.35	0.20	3.10	 	 	 	 	 	 	 	 	 	 	 	 	 	 	 	 	 	 	1581470823	10.21	18.91
12/02/2020 01:27:04	120220	12022020	012703	191.92	13.823465	-56.896355	192.28	-1.300	2.300	2.520	191.92	0.90	3.00	 	 	 	 	 	 	 	 	 	 	 	 	 	 	 	 	 	 	1581470823	10.19	18.87
12/02/2020 01:27:05	120220	12022020	012705	192.84	13.823418	-56.896370	193.19	-0.990	2.100	1.950	192.84	0.90	2.50	 	 	 	 	 	 	 	 	 	 	 	 	 	 	 	 	 	 	1581470825	10.36	19.19
12/02/2020 01:27:06	120220	12022020	012705	193.66	13.823370	-56.896385	194.19	-0.100	0.960	1.190	193.86	-0.20	1.80	 	 	 	 	 	 	 	 	 	 	 	 	 	 	 	 	 	 	1581470825	10.79	19.98
12/02/2020 01:27:07	120220	12022020	012706	194.74	13.823322	-56.896397	195.06	0.980	-0.520	0.730	194.74	-1.70	1.30	 	 	 	 	 	 	 	 	 	 	 	 	 	 	 	 	 	 	1581470826	10.93	20.24
12/02/2020 01:27:08	120220	12022020	012708	195.18	13.823273	-56.896408	195.55	1.690	-1.550	0.550	195.24	-2.80	1.00	 	 	 	 	 	 	 	 	 	 	 	 	 	 	 	 	 	 	1581470828	10.39	19.24
12/02/2020 01:27:09	120220	12022020	012709	195.23	13.823230	-56.896418	195.53	1.750	-1.930	0.760	195.23	-3.30	1.50	 	 	 	 	 	 	 	 	 	 	 	 	 	 	 	 	 	 	1581470829	9.82	18.19
12/02/2020 01:27:10	120220	12022020	012710	194.91	13.823187	-56.896430	195.08	1.240	-1.920	1.290	194.79	-3.20	1.70	 	 	 	 	 	 	 	 	 	 	 	 	 	 	 	 	 	 	1581470830	9.71	17.98
12/02/2020 01:27:11	120220	12022020	012711	194.17	13.823142	-56.896445	194.47	0.510	-1.660	1.710	194.17	-3.00	2.20	 	 	 	 	 	 	 	 	 	 	 	 	 	 	 	 	 	 	1581470831	10.04	18.59
12/02/2020 01:27:12	120220	12022020	012711	193.77	13.823097	-56.896460	194.08	-0.180	-1.150	1.780	193.77	-2.50	2.30	 	 	 	 	 	 	 	 	 	 	 	 	 	 	 	 	 	 	1581470831	10.28	19.04
12/02/2020 01:27:13	120220	12022020	012713	193.60	13.823048	-56.896477	193.91	-0.650	-0.640	1.630	193.60	-2.00	2.10	 	 	 	 	 	 	 	 	 	 	 	 	 	 	 	 	 	 	1581470833	10.64	19.71
12/02/2020 01:27:14	120220	12022020	012713	193.61	13.823000	-56.896493	193.93	-0.970	-0.300	1.620	193.61	-1.60	2.10	 	 	 	 	 	 	 	 	 	 	 	 	 	 	 	 	 	 	1581470833	11.05	20.46
12/02/2020 01:27:15	120220	12022020	012714	193.68	13.822952	-56.896513	194.01	-1.220	-0.070	2.090	193.68	-1.40	2.50	 	 	 	 	 	 	 	 	 	 	 	 	 	 	 	 	 	 	1581470834	11.33	20.98
12/02/2020 01:27:16	120220	12022020	012716	193.69	13.822903	-56.896535	194.00	-1.370	0.170	2.790	193.68	-1.20	3.10	 	 	 	 	 	 	 	 	 	 	 	 	 	 	 	 	 	 	1581470836	11.37	21.06
12/02/2020 01:27:17	120220	12022020	012717	193.56	13.822857	-56.896558	193.83	-1.260	0.520	3.310	193.51	-0.90	3.70	 	 	 	 	 	 	 	 	 	 	 	 	 	 	 	 	 	 	1581470837	11.10	20.56
12/02/2020 01:27:18	120220	12022020	012717	193.22	13.822812	-56.896578	193.55	-0.830	0.990	3.470	193.22	-0.40	3.90	 	 	 	 	 	 	 	 	 	 	 	 	 	 	 	 	 	 	1581470837	10.63	19.69
12/02/2020 01:27:19	120220	12022020	012719	193.09	13.822767	-56.896593	193.41	-0.220	1.430	3.110	193.09	0.10	3.70	 	 	 	 	 	 	 	 	 	 	 	 	 	 	 	 	 	 	1581470839	10.12	18.74
12/02/2020 01:27:20	120220	12022020	012720	193.26	13.822722	-56.896603	193.66	0.460	1.500	2.230	193.34	0.20	2.80	 	 	 	 	 	 	 	 	 	 	 	 	 	 	 	 	 	 	1581470840	9.86	18.26
12/02/2020 01:27:21	120220	12022020	012720	193.88	13.822675	-56.896612	194.19	1.140	0.830	1.300	193.88	-0.40	1.90	 	 	 	 	 	 	 	 	 	 	 	 	 	 	 	 	 	 	1581470840	10.08	18.67
12/02/2020 01:27:22	120220	12022020	012721	194.16	13.822627	-56.896618	194.46	1.740	-0.620	0.960	194.19	-1.70	1.40	 	 	 	 	 	 	 	 	 	 	 	 	 	 	 	 	 	 	1581470841	10.70	19.82
12/02/2020 01:27:23	120220	12022020	012722	194.10	13.822577	-56.896628	194.30	2.000	-2.090	1.360	194.03	-3.80	2.30	 	 	 	 	 	 	 	 	 	 	 	 	 	 	 	 	 	 	1581470842	11.01	20.39
12/02/2020 01:27:24	120220	12022020	012724	193.59	13.822528	-56.896643	193.72	1.570	-2.650	2.340	193.46	-3.90	2.70	 	 	 	 	 	 	 	 	 	 	 	 	 	 	 	 	 	 	1581470844	10.58	19.59
12/02/2020 01:27:25	120220	12022020	012725	192.82	13.822485	-56.896660	192.95	0.470	-2.110	3.480	192.67	-3.50	3.80	 	 	 	 	 	 	 	 	 	 	 	 	 	 	 	 	 	 	1581470845	9.96	18.45
12/02/2020 01:27:26	120220	12022020	012726	192.09	13.822445	-56.896680	192.42	-0.890	-1.040	4.210	192.09	-2.50	4.60	 	 	 	 	 	 	 	 	 	 	 	 	 	 	 	 	 	 	1581470846	9.90	18.33
12/02/2020 01:27:27	120220	12022020	012726	191.90	13.822402	-56.896703	192.24	-1.830	-0.200	4.320	191.90	-1.60	4.80	 	 	 	 	 	 	 	 	 	 	 	 	 	 	 	 	 	 	1581470846	10.47	19.39
12/02/2020 01:27:28	120220	12022020	012727	192.00	13.822355	-56.896727	192.40	-1.870	0.210	3.900	192.06	-1.10	4.50	 	 	 	 	 	 	 	 	 	 	 	 	 	 	 	 	 	 	1581470847	11.03	20.43
12/02/2020 01:27:29	120220	12022020	012729	192.47	13.822307	-56.896743	192.94	-1.070	0.470	2.890	192.61	-0.90	3.50	 	 	 	 	 	 	 	 	 	 	 	 	 	 	 	 	 	 	1581470849	11.04	20.45
12/02/2020 01:27:30	120220	12022020	012729	193.28	13.822258	-56.896755	193.80	-0.060	0.730	1.620	193.47	-0.60	2.30	 	 	 	 	 	 	 	 	 	 	 	 	 	 	 	 	 	 	1581470849	10.72	19.85
12/02/2020 01:27:31	120220	12022020	012731	194.20	13.822210	-56.896762	194.67	0.630	0.780	0.590	194.36	-0.50	1.20	 	 	 	 	 	 	 	 	 	 	 	 	 	 	 	 	 	 	1581470851	10.48	19.41
12/02/2020 01:27:32	120220	12022020	012731	194.81	13.822160	-56.896768	195.17	0.910	0.330	0.200	194.87	-0.90	0.70	 	 	 	 	 	 	 	 	 	 	 	 	 	 	 	 	 	 	1581470851	10.64	19.71
12/02/2020 01:27:33	120220	12022020	012733	194.99	13.822112	-56.896778	195.30	0.880	-0.390	0.490	195.00	-1.60	0.90	 	 	 	 	 	 	 	 	 	 	 	 	 	 	 	 	 	 	1581470853	10.82	20.04
12/02/2020 01:27:34	120220	12022020	012734	194.90	13.822063	-56.896793	195.14	0.520	-0.910	1.320	194.83	-2.20	1.70	 	 	 	 	 	 	 	 	 	 	 	 	 	 	 	 	 	 	1581470854	10.60	19.63
12/02/2020 01:27:35	120220	12022020	012735	194.37	13.822018	-56.896812	194.50	0.030	-1.210	2.430	194.21	-2.50	2.80	 	 	 	 	 	 	 	 	 	 	 	 	 	 	 	 	 	 	1581470855	10.59	19.61
12/02/2020 01:27:36	120220	12022020	012736	193.50	13.821973	-56.896833	193.65	-0.290	-1.190	3.150	193.36	-2.50	3.60	 	 	 	 	 	 	 	 	 	 	 	 	 	 	 	 	 	 	1581470856	10.78	19.96
12/02/2020 01:27:37	120220	12022020	012736	192.98	13.821928	-56.896852	193.25	-0.410	-0.470	3.110	192.95	-1.90	3.60	 	 	 	 	 	 	 	 	 	 	 	 	 	 	 	 	 	 	1581470856	10.28	19.04
12/02/2020 01:27:38	120220	12022020	012738	193.03	13.821885	-56.896867	193.37	-0.360	0.520	2.530	193.07	-0.90	3.10	 	 	 	 	 	 	 	 	 	 	 	 	 	 	 	 	 	 	1581470858	9.67	17.91
12/02/2020 01:27:39	120220	12022020	012739	193.33	13.821840	-56.896878	193.67	-0.110	0.840	1.770	193.38	-0.40	2.40	 	 	 	 	 	 	 	 	 	 	 	 	 	 	 	 	 	 	1581470859	10.01	18.54
12/02/2020 01:27:40	120220	12022020	012740	193.62	13.821792	-56.896890	193.99	0.300	0.320	1.210	193.69	-0.90	1.80	 	 	 	 	 	 	 	 	 	 	 	 	 	 	 	 	 	 	1581470860	10.87	20.13
12/02/2020 01:27:41	120220	12022020	012740	194.05	13.821743	-56.896903	194.47	0.530	-0.200	1.120	194.17	-1.50	1.60	 	 	 	 	 	 	 	 	 	 	 	 	 	 	 	 	 	 	1581470860	10.91	20.21
12/02/2020 01:27:42	120220	12022020	012742	194.67	13.821698	-56.896918	195.11	0.320	-0.160	1.300	194.80	-1.50	1.80	 	 	 	 	 	 	 	 	 	 	 	 	 	 	 	 	 	 	1581470862	9.99	18.50
12/02/2020 01:27:43	120220	12022020	012743	195.13	13.821657	-56.896933	195.45	-0.080	-0.160	1.660	195.16	-1.40	2.10	 	 	 	 	 	 	 	 	 	 	 	 	 	 	 	 	 	 	1581470863	9.59	17.76
12/02/2020 01:27:44	120220	12022020	012743	194.94	13.821612	-56.896952	195.08	-0.170	-0.910	2.410	194.81	-2.10	2.80	 	 	 	 	 	 	 	 	 	 	 	 	 	 	 	 	 	 	1581470863	10.44	19.33
12/02/2020 01:27:45	120220	12022020	012745	194.04	13.821562	-56.896972	194.08	0.190	-1.940	3.270	193.81	-3.10	3.60	 	 	 	 	 	 	 	 	 	 	 	 	 	 	 	 	 	 	1581470865	11.42	21.15
12/02/2020 01:27:46	120220	12022020	012746	192.91	13.821512	-56.896988	193.02	0.570	-2.170	3.660	192.71	-3.50	4.10	 	 	 	 	 	 	 	 	 	 	 	 	 	 	 	 	 	 	1581470866	11.33	20.98
12/02/2020 01:27:47	120220	12022020	012746	192.11	13.821465	-56.897003	192.33	0.580	-1.260	3.590	192.00	-1.80	3.90	 	 	 	 	 	 	 	 	 	 	 	 	 	 	 	 	 	 	1581470866	10.41	19.28
12/02/2020 01:27:48	120220	12022020	012748	191.82	13.821422	-56.897017	192.14	0.280	0.150	3.100	191.82	-1.30	3.70	 	 	 	 	 	 	 	 	 	 	 	 	 	 	 	 	 	 	1581470868	9.85	18.24
12/02/2020 01:27:49	120220	12022020	012748	191.99	13.821377	-56.897027	192.41	-0.040	1.160	2.440	192.07	-0.20	3.00	 	 	 	 	 	 	 	 	 	 	 	 	 	 	 	 	 	 	1581470868	10.02	18.56
12/02/2020 01:27:50	120220	12022020	012749	192.59	13.821328	-56.897035	193.13	-0.380	1.460	1.990	192.76	0.20	2.50	 	 	 	 	 	 	 	 	 	 	 	 	 	 	 	 	 	 	1581470869	10.50	19.45
12/02/2020 01:27:51	120220	12022020	012751	193.56	13.821282	-56.897050	194.13	-0.850	1.160	2.140	193.77	-0.10	2.60	 	 	 	 	 	 	 	 	 	 	 	 	 	 	 	 	 	 	1581470871	10.59	19.61
12/02/2020 01:27:52	120220	12022020	012751	194.42	13.821235	-56.897070	194.87	-1.170	0.280	2.590	194.52	-0.90	3.00	 	 	 	 	 	 	 	 	 	 	 	 	 	 	 	 	 	 	1581470871	10.82	20.04
12/02/2020 01:27:53	120220	12022020	012753	194.57	13.821187	-56.897092	194.85	-0.800	-1.000	3.040	194.51	-2.10	3.50	 	 	 	 	 	 	 	 	 	 	 	 	 	 	 	 	 	 	1581470873	11.30	20.93
12/02/2020 01:27:54	120220	12022020	012753	194.16	13.821137	-56.897108	194.39	0.220	-1.780	3.050	194.06	-3.00	3.60	 	 	 	 	 	 	 	 	 	 	 	 	 	 	 	 	 	 	1581470873	11.22	20.78
12/02/2020 01:27:55	120220	12022020	012754	193.81	13.821090	-56.897118	194.08	1.050	-1.330	2.380	193.77	-2.80	3.00	 	 	 	 	 	 	 	 	 	 	 	 	 	 	 	 	 	 	1581470874	10.13	18.76
12/02/2020 01:27:56	120220	12022020	012756	193.61	13.821048	-56.897125	193.84	1.080	-0.330	1.580	193.56	-1.80	2.20	 	 	 	 	 	 	 	 	 	 	 	 	 	 	 	 	 	 	1581470876	9.37	17.35
12/02/2020 01:27:57	120220	12022020	012757	193.31	13.821003	-56.897133	193.49	0.510	0.180	1.240	193.22	-1.20	1.70	 	 	 	 	 	 	 	 	 	 	 	 	 	 	 	 	 	 	1581470877	9.72	18.00
12/02/2020 01:27:58	120220	12022020	012757	192.87	13.820957	-56.897148	193.05	-0.020	0.070	1.430	192.78	-1.20	1.90	 	 	 	 	 	 	 	 	 	 	 	 	 	 	 	 	 	 	1581470877	10.53	19.50
12/02/2020 01:27:59	120220	12022020	012758	192.44	13.820908	-56.897163	192.67	-0.140	-0.080	1.740	192.38	-1.40	2.20	 	 	 	 	 	 	 	 	 	 	 	 	 	 	 	 	 	 	1581470878	10.85	20.09
12/02/2020 01:28:00	120220	12022020	012759	192.31	13.820862	-56.897178	192.66	-0.050	0.180	1.790	192.35	-1.20	2.30	 	 	 	 	 	 	 	 	 	 	 	 	 	 	 	 	 	 	1581470879	10.36	19.19
12/02/2020 01:28:01	120220	12022020	012801	192.72	13.820818	-56.897192	193.17	-0.050	0.450	1.650	192.84	-0.90	2.10	 	 	 	 	 	 	 	 	 	 	 	 	 	 	 	 	 	 	1581470881	9.96	18.45
12/02/2020 01:28:02	120220	12022020	012802	193.35	13.820773	-56.897207	193.78	-0.100	0.150	1.560	193.45	-1.10	2.00	1017.70	26.10	26.10	20.70	20.70	-1.0	72.0	72.0	394.0	25.7	258.00	10.30	67.00	12.60	16	8093.0	27.2	27.2	1581470882	10.25	18.98
12/02/2020 01:28:03	120220	12022020	012802	193.72	13.820725	-56.897222	194.05	0.050	-0.710	1.640	193.74	-1.90	2.10	 	 	 	 	 	 	 	 	 	 	 	 	 	 	 	 	 	 	1581470882	10.85	20.09
12/02/2020 01:28:04	120220	12022020	012803	193.66	13.820675	-56.897237	193.93	0.330	-1.530	1.970	193.62	-2.70	2.40	 	 	 	 	 	 	 	 	 	 	 	 	 	 	 	 	 	 	1581470883	11.13	20.61
12/02/2020 01:28:05	120220	12022020	012804	193.39	13.820627	-56.897250	193.64	0.300	-1.640	2.390	193.32	-3.00	2.80	 	 	 	 	 	 	 	 	 	 	 	 	 	 	 	 	 	 	1581470884	10.71	19.83
12/02/2020 01:28:06	120220	12022020	012805	192.99	13.820582	-56.897265	193.20	-0.140	-1.130	2.710	192.89	-2.50	3.10	 	 	 	 	 	 	 	 	 	 	 	 	 	 	 	 	 	 	1581470885	10.23	18.95
12/02/2020 01:28:07	120220	12022020	012806	192.47	13.820537	-56.897282	192.65	-0.690	-0.540	2.950	192.35	-1.90	3.40	 	 	 	 	 	 	 	 	 	 	 	 	 	 	 	 	 	 	1581470886	10.35	19.17
12/02/2020 01:28:08	120220	12022020	012807	192.01	13.820490	-56.897300	192.27	-0.940	-0.020	2.940	191.96	-1.40	3.40	 	 	 	 	 	 	 	 	 	 	 	 	 	 	 	 	 	 	1581470887	10.71	19.83
12/02/2020 01:28:09	120220	12022020	012808	191.94	13.820442	-56.897313	192.29	-0.780	0.530	2.470	191.98	-0.80	3.00	 	 	 	 	 	 	 	 	 	 	 	 	 	 	 	 	 	 	1581470888	10.60	19.63
12/02/2020 01:28:10	120220	12022020	012809	192.23	13.820395	-56.897325	192.62	-0.350	0.930	1.840	192.32	-0.40	2.40	 	 	 	 	 	 	 	 	 	 	 	 	 	 	 	 	 	 	1581470889	10.45	19.35
12/02/2020 01:28:11	120220	12022020	012810	192.66	13.820347	-56.897335	193.03	0.150	0.860	1.440	192.73	-0.40	2.00	 	 	 	 	 	 	 	 	 	 	 	 	 	 	 	 	 	 	1581470890	10.60	19.63
12/02/2020 01:28:12	120220	12022020	012811	192.98	13.820297	-56.897345	193.33	0.530	0.290	1.420	193.03	-0.90	1.90	 	 	 	 	 	 	 	 	 	 	 	 	 	 	 	 	 	 	1581470891	10.91	20.21
12/02/2020 01:28:13	120220	12022020	012812	193.18	13.820248	-56.897358	193.53	0.610	-0.380	1.900	193.20	-1.90	2.70	 	 	 	 	 	 	 	 	 	 	 	 	 	 	 	 	 	 	1581470892	10.91	20.21
12/02/2020 01:28:14	120220	12022020	012813	193.23	13.820202	-56.897373	193.54	0.430	-0.720	2.560	193.22	-2.00	3.00	 	 	 	 	 	 	 	 	 	 	 	 	 	 	 	 	 	 	1581470893	10.55	19.54
12/02/2020 01:28:15	120220	12022020	012815	193.12	13.820157	-56.897388	193.40	0.260	-0.620	2.880	193.09	-1.90	3.30	 	 	 	 	 	 	 	 	 	 	 	 	 	 	 	 	 	 	1581470895	10.09	18.69
12/02/2020 01:28:16	120220	12022020	012816	193.04	13.820112	-56.897402	193.37	0.170	-0.350	2.650	193.05	-1.70	3.20	 	 	 	 	 	 	 	 	 	 	 	 	 	 	 	 	 	 	1581470896	9.88	18.30
12/02/2020 01:28:17	120220	12022020	012816	193.09	13.820067	-56.897413	193.41	0.090	-0.310	2.320	193.10	-1.60	2.80	 	 	 	 	 	 	 	 	 	 	 	 	 	 	 	 	 	 	1581470896	10.06	18.63
12/02/2020 01:28:18	120220	12022020	012817	193.05	13.820020	-56.897427	193.31	-0.010	-0.670	2.070	193.02	-1.90	2.60	 	 	 	 	 	 	 	 	 	 	 	 	 	 	 	 	 	 	1581470897	10.58	19.59
12/02/2020 01:28:19	120220	12022020	012818	192.86	13.819970	-56.897440	193.08	-0.100	-1.110	1.890	192.81	-2.30	2.40	 	 	 	 	 	 	 	 	 	 	 	 	 	 	 	 	 	 	1581470898	10.96	20.30
12/02/2020 01:28:20	120220	12022020	012819	192.51	13.819922	-56.897455	192.70	-0.100	-1.290	1.920	192.43	-2.60	2.40	 	 	 	 	 	 	 	 	 	 	 	 	 	 	 	 	 	 	1581470899	11.03	20.43
12/02/2020 01:28:21	120220	12022020	012820	192.20	13.819873	-56.897468	192.49	-0.110	-0.880	1.920	192.19	-2.30	2.40	 	 	 	 	 	 	 	 	 	 	 	 	 	 	 	 	 	 	1581470900	10.73	19.87
12/02/2020 01:28:22	120220	12022020	012822	192.35	13.819827	-56.897480	192.75	-0.290	-0.070	1.760	192.43	-1.50	2.30	 	 	 	 	 	 	 	 	 	 	 	 	 	 	 	 	 	 	1581470902	10.27	19.02
12/02/2020 01:28:23	120220	12022020	012822	192.80	13.819780	-56.897493	193.19	-0.520	0.520	1.550	192.89	-0.70	2.00	 	 	 	 	 	 	 	 	 	 	 	 	 	 	 	 	 	 	1581470902	10.27	19.02
12/02/2020 01:28:24	120220	12022020	012823	193.15	13.819732	-56.897507	193.51	-0.520	0.570	1.580	193.21	-0.70	2.00	 	 	 	 	 	 	 	 	 	 	 	 	 	 	 	 	 	 	1581470903	10.74	19.89
12/02/2020 01:28:25	120220	12022020	012824	193.45	13.819683	-56.897520	193.80	-0.280	0.310	1.660	193.51	-1.20	2.20	 	 	 	 	 	 	 	 	 	 	 	 	 	 	 	 	 	 	1581470904	10.98	20.33
12/02/2020 01:28:26	120220	12022020	012826	193.67	13.819633	-56.897533	193.96	-0.000	-0.030	1.760	193.68	-1.30	2.20	 	 	 	 	 	 	 	 	 	 	 	 	 	 	 	 	 	 	1581470906	10.90	20.19
12/02/2020 01:28:27	120220	12022020	012827	193.59	13.819585	-56.897547	193.81	0.190	-0.490	1.900	193.54	-1.70	2.40	 	 	 	 	 	 	 	 	 	 	 	 	 	 	 	 	 	 	1581470907	10.97	20.32
12/02/2020 01:28:28	120220	12022020	012827	193.22	13.819535	-56.897562	193.44	0.320	-0.830	2.110	193.14	-2.10	2.60	 	 	 	 	 	 	 	 	 	 	 	 	 	 	 	 	 	 	1581470907	11.00	20.37
12/02/2020 01:28:29	120220	12022020	012829	192.77	13.819488	-56.897573	192.99	0.360	-0.590	2.120	192.68	-1.90	2.60	 	 	 	 	 	 	 	 	 	 	 	 	 	 	 	 	 	 	1581470909	10.56	19.56
12/02/2020 01:28:30	120220	12022020	012830	192.40	13.819442	-56.897583	192.64	0.230	-0.030	1.870	192.33	-1.40	2.40	 	 	 	 	 	 	 	 	 	 	 	 	 	 	 	 	 	 	1581470910	10.08	18.67
12/02/2020 01:28:31	120220	12022020	012830	192.08	13.819395	-56.897595	192.34	0.000	0.100	1.770	192.03	-1.20	2.30	 	 	 	 	 	 	 	 	 	 	 	 	 	 	 	 	 	 	1581470910	10.42	19.30
12/02/2020 01:28:32	120220	12022020	012831	191.95	13.819347	-56.897608	192.31	-0.280	-0.110	1.790	191.98	-1.40	2.30	 	 	 	 	 	 	 	 	 	 	 	 	 	 	 	 	 	 	1581470911	10.90	20.19
12/02/2020 01:28:33	120220	12022020	012832	192.21	13.819298	-56.897623	192.64	-0.520	-0.290	1.850	192.29	-1.60	2.30	 	 	 	 	 	 	 	 	 	 	 	 	 	 	 	 	 	 	1581470912	10.87	20.13
12/02/2020 01:28:34	120220	12022020	012834	192.58	13.819250	-56.897640	192.98	-0.500	-0.420	2.020	192.64	-1.70	2.50	 	 	 	 	 	 	 	 	 	 	 	 	 	 	 	 	 	 	1581470914	10.77	19.95
12/02/2020 01:28:35	120220	12022020	012834	192.81	13.819203	-56.897657	193.19	-0.200	-0.590	2.210	192.85	-1.90	2.70	 	 	 	 	 	 	 	 	 	 	 	 	 	 	 	 	 	 	1581470914	10.86	20.11
12/02/2020 01:28:36	120220	12022020	012835	193.00	13.819155	-56.897672	193.37	0.150	-0.610	2.140	193.04	-1.90	2.60	 	 	 	 	 	 	 	 	 	 	 	 	 	 	 	 	 	 	1581470915	10.77	19.95
12/02/2020 01:28:37	120220	12022020	012837	193.18	13.819107	-56.897682	193.52	0.380	-0.490	1.730	193.20	-1.70	2.00	 	 	 	 	 	 	 	 	 	 	 	 	 	 	 	 	 	 	1581470917	10.61	19.65
12/02/2020 01:28:38	120220	12022020	012838	193.24	13.819058	-56.897692	193.55	0.440	-0.320	1.330	193.24	-1.70	1.90	 	 	 	 	 	 	 	 	 	 	 	 	 	 	 	 	 	 	1581470918	10.61	19.65
12/02/2020 01:28:39	120220	12022020	012838	193.21	13.819010	-56.897700	193.52	0.340	-0.110	1.180	193.21	-1.50	1.70	 	 	 	 	 	 	 	 	 	 	 	 	 	 	 	 	 	 	1581470918	10.55	19.54
12/02/2020 01:28:40	120220	12022020	012839	193.17	13.818962	-56.897712	193.46	0.140	-0.080	1.330	193.15	-1.40	1.80	 	 	 	 	 	 	 	 	 	 	 	 	 	 	 	 	 	 	1581470919	10.64	19.71
12/02/2020 01:28:41	120220	12022020	012841	192.97	13.818912	-56.897725	193.20	-0.020	-0.430	1.680	192.90	-1.70	2.10	 	 	 	 	 	 	 	 	 	 	 	 	 	 	 	 	 	 	1581470921	11.12	20.59
12/02/2020 01:28:42	120220	12022020	012842	192.59	13.818862	-56.897742	192.82	-0.120	-0.670	2.060	192.50	-2.00	2.50	 	 	 	 	 	 	 	 	 	 	 	 	 	 	 	 	 	 	1581470922	11.32	20.96
12/02/2020 01:28:43	120220	12022020	012842	192.23	13.818813	-56.897757	192.50	-0.220	-0.340	2.340	192.17	-1.70	2.80	 	 	 	 	 	 	 	 	 	 	 	 	 	 	 	 	 	 	1581470922	10.79	19.98
12/02/2020 01:28:44	120220	12022020	012843	192.01	13.818767	-56.897770	192.32	-0.320	0.240	2.210	191.99	-1.10	2.70	 	 	 	 	 	 	 	 	 	 	 	 	 	 	 	 	 	 	1581470923	10.33	19.13
12/02/2020 01:28:45	120220	12022020	012844	192.01	13.818720	-56.897782	192.38	-0.400	0.410	1.790	192.05	-0.90	2.30	 	 	 	 	 	 	 	 	 	 	 	 	 	 	 	 	 	 	1581470924	10.52	19.48
12/02/2020 01:28:46	120220	12022020	012845	192.23	13.818670	-56.897795	192.62	-0.340	-0.120	1.530	192.28	-1.30	2.00	 	 	 	 	 	 	 	 	 	 	 	 	 	 	 	 	 	 	1581470925	11.19	20.72
12/02/2020 01:28:47	120220	12022020	012846	192.46	13.818617	-56.897810	192.84	-0.090	-0.830	1.320	192.50	-2.10	1.80	 	 	 	 	 	 	 	 	 	 	 	 	 	 	 	 	 	 	1581470926	11.59	21.46
12/02/2020 01:28:48	120220	12022020	012847	192.67	13.818567	-56.897822	193.06	0.170	-0.930	1.170	192.72	-2.30	1.70	 	 	 	 	 	 	 	 	 	 	 	 	 	 	 	 	 	 	1581470927	11.09	20.54
12/02/2020 01:28:49	120220	12022020	012848	193.00	13.818522	-56.897833	193.43	0.130	-0.340	1.100	193.09	-1.30	1.60	 	 	 	 	 	 	 	 	 	 	 	 	 	 	 	 	 	 	1581470928	10.18	18.85
12/02/2020 01:28:50	120220	12022020	012849	193.42	13.818477	-56.897847	193.82	-0.160	0.180	1.330	193.49	-1.20	1.80	 	 	 	 	 	 	 	 	 	 	 	 	 	 	 	 	 	 	1581470929	9.93	18.39
12/02/2020 01:28:51	120220	12022020	012851	193.56	13.818428	-56.897862	193.84	-0.280	-0.090	1.860	193.52	-1.80	2.70	 	 	 	 	 	 	 	 	 	 	 	 	 	 	 	 	 	 	1581470931	10.71	19.83
12/02/2020 01:28:52	120220	12022020	012851	193.14	13.818378	-56.897880	193.33	-0.020	-0.930	2.510	193.02	-2.10	2.90	 	 	 	 	 	 	 	 	 	 	 	 	 	 	 	 	 	 	1581470931	11.69	21.65
12/02/2020 01:28:53	120220	12022020	012852	192.42	13.818325	-56.897897	192.60	0.390	-1.340	2.930	192.28	-2.70	3.40	 	 	 	 	 	 	 	 	 	 	 	 	 	 	 	 	 	 	1581470932	11.79	21.84
12/02/2020 01:28:54	120220	12022020	012853	191.83	13.818277	-56.897912	192.12	0.540	-0.660	2.750	191.77	-2.10	3.30	 	 	 	 	 	 	 	 	 	 	 	 	 	 	 	 	 	 	1581470933	10.80	20.00
12/02/2020 01:28:55	120220	12022020	012854	191.76	13.818233	-56.897920	192.14	0.250	0.650	2.080	191.80	-0.80	2.70	 	 	 	 	 	 	 	 	 	 	 	 	 	 	 	 	 	 	1581470934	9.73	18.02
12/02/2020 01:28:56	120220	12022020	012855	191.98	13.818188	-56.897928	192.35	-0.160	1.310	1.460	192.03	-0.00	2.00	 	 	 	 	 	 	 	 	 	 	 	 	 	 	 	 	 	 	1581470935	9.85	18.24
12/02/2020 01:28:57	120220	12022020	012857	192.14	13.818138	-56.897938	192.47	-0.210	0.700	1.190	192.16	-0.50	1.70	 	 	 	 	 	 	 	 	 	 	 	 	 	 	 	 	 	 	1581470937	11.01	20.39
12/02/2020 01:28:58	120220	12022020	012857	192.15	13.818083	-56.897952	192.47	0.140	-0.540	1.350	192.15	-1.70	1.80	 	 	 	 	 	 	 	 	 	 	 	 	 	 	 	 	 	 	1581470937	11.90	22.04
12/02/2020 01:28:59	120220	12022020	012858	192.22	13.818032	-56.897967	192.61	0.400	-1.220	1.780	192.26	-2.50	2.20	 	 	 	 	 	 	 	 	 	 	 	 	 	 	 	 	 	 	1581470938	11.54	21.37
12/02/2020 01:29:00	120220	12022020	012859	192.49	13.817985	-56.897982	192.90	0.190	-0.970	2.320	192.55	-2.40	2.70	 	 	 	 	 	 	 	 	 	 	 	 	 	 	 	 	 	 	1581470939	10.44	19.33
12/02/2020 01:29:01	120220	12022020	012900	192.66	13.817942	-56.897998	192.99	-0.310	-0.490	2.860	192.64	-1.90	3.30	 	 	 	 	 	 	 	 	 	 	 	 	 	 	 	 	 	 	1581470940	9.98	18.48
12/02/2020 01:29:02	120220	12022020	012901	192.40	13.817895	-56.898015	192.65	-0.570	-0.510	3.260	192.32	-1.80	3.70	1017.70	26.00	26.10	20.60	20.70	-1.0	72.0	72.0	394.0	25.7	257.00	10.30	65.00	12.70	16	7605.0	27.2	27.2	1581470941	10.61	19.65
12/02/2020 01:29:03	120220	12022020	012903	191.97	13.817845	-56.898032	192.23	-0.370	-0.850	3.140	191.89	-2.10	3.70	 	 	 	 	 	 	 	 	 	 	 	 	 	 	 	 	 	 	1581470943	11.31	20.95
12/02/2020 01:29:04	120220	12022020	012904	191.69	13.817795	-56.898043	192.01	0.060	-0.900	2.680	191.66	-2.20	3.20	 	 	 	 	 	 	 	 	 	 	 	 	 	 	 	 	 	 	1581470944	11.26	20.85
12/02/2020 01:29:05	120220	12022020	012905	191.53	13.817745	-56.898053	191.85	0.310	-0.590	2.210	191.50	-2.00	2.80	 	 	 	 	 	 	 	 	 	 	 	 	 	 	 	 	 	 	1581470945	10.95	20.28
12/02/2020 01:29:06	120220	12022020	012905	191.49	13.817695	-56.898063	191.92	0.140	-0.070	1.840	191.55	-1.50	2.40	 	 	 	 	 	 	 	 	 	 	 	 	 	 	 	 	 	 	1581470945	10.79	19.98
12/02/2020 01:29:07	120220	12022020	012906	191.99	13.817648	-56.898077	192.51	-0.330	0.640	1.700	192.14	-0.80	2.20	 	 	 	 	 	 	 	 	 	 	 	 	 	 	 	 	 	 	1581470946	10.32	19.11
12/02/2020 01:29:08	120220	12022020	012907	192.75	13.817603	-56.898090	193.22	-0.580	1.140	1.720	192.88	-0.20	2.20	 	 	 	 	 	 	 	 	 	 	 	 	 	 	 	 	 	 	1581470947	10.08	18.67
12/02/2020 01:29:09	120220	12022020	012909	193.10	13.817555	-56.898105	193.40	-0.130	0.600	1.930	193.08	-0.60	2.40	 	 	 	 	 	 	 	 	 	 	 	 	 	 	 	 	 	 	1581470949	10.84	20.08
12/02/2020 01:29:10	120220	12022020	012909	192.82	13.817502	-56.898118	193.06	0.680	-0.610	2.310	192.73	-1.80	2.80	 	 	 	 	 	 	 	 	 	 	 	 	 	 	 	 	 	 	1581470949	11.87	21.98
12/02/2020 01:29:11	120220	12022020	012910	192.45	13.817450	-56.898130	192.73	1.080	-1.200	2.450	192.40	-2.50	2.90	 	 	 	 	 	 	 	 	 	 	 	 	 	 	 	 	 	 	1581470950	11.53	21.35
12/02/2020 01:29:12	120220	12022020	012911	192.35	13.817402	-56.898140	192.69	0.700	-0.850	2.300	192.36	-2.20	2.80	 	 	 	 	 	 	 	 	 	 	 	 	 	 	 	 	 	 	1581470951	10.45	19.35
12/02/2020 01:29:13	120220	12022020	012912	192.37	13.817357	-56.898153	192.67	-0.170	-0.470	2.430	192.36	-1.70	3.10	 	 	 	 	 	 	 	 	 	 	 	 	 	 	 	 	 	 	1581470952	10.22	18.93
12/02/2020 01:29:14	120220	12022020	012914	192.28	13.817310	-56.898172	192.57	-0.860	-0.470	2.750	192.26	-1.80	3.20	 	 	 	 	 	 	 	 	 	 	 	 	 	 	 	 	 	 	1581470954	10.89	20.17
12/02/2020 01:29:15	120220	12022020	012915	192.23	13.817260	-56.898192	192.56	-0.960	-0.500	2.630	192.25	-1.70	2.80	 	 	 	 	 	 	 	 	 	 	 	 	 	 	 	 	 	 	1581470955	11.20	20.74
12/02/2020 01:29:16	120220	12022020	012915	192.44	13.817212	-56.898205	192.86	-0.610	-0.260	1.910	192.53	-1.60	2.50	 	 	 	 	 	 	 	 	 	 	 	 	 	 	 	 	 	 	1581470955	10.84	20.08
12/02/2020 01:29:17	120220	12022020	012916	193.01	13.817165	-56.898217	193.45	-0.240	0.070	1.150	193.14	-1.30	1.70	 	 	 	 	 	 	 	 	 	 	 	 	 	 	 	 	 	 	1581470956	10.48	19.41
12/02/2020 01:29:18	120220	12022020	012917	193.56	13.817117	-56.898228	193.91	0.030	0.080	0.810	193.62	-1.20	1.30	 	 	 	 	 	 	 	 	 	 	 	 	 	 	 	 	 	 	1581470957	10.57	19.58
12/02/2020 01:29:19	120220	12022020	012918	193.62	13.817067	-56.898240	193.84	0.380	-0.350	0.970	193.56	-1.60	1.40	 	 	 	 	 	 	 	 	 	 	 	 	 	 	 	 	 	 	1581470958	11.04	20.45
12/02/2020 01:29:20	120220	12022020	012920	193.15	13.817017	-56.898253	193.30	0.820	-0.730	1.450	193.02	-2.00	1.90	 	 	 	 	 	 	 	 	 	 	 	 	 	 	 	 	 	 	1581470960	11.30	20.93
12/02/2020 01:29:21	120220	12022020	012920	192.55	13.816967	-56.898263	192.76	0.920	-0.550	1.840	192.45	-1.90	2.30	 	 	 	 	 	 	 	 	 	 	 	 	 	 	 	 	 	 	1581470960	10.90	20.19
12/02/2020 01:29:22	120220	12022020	012921	192.11	13.816918	-56.898275	192.36	0.450	-0.050	2.130	192.04	-1.40	2.60	 	 	 	 	 	 	 	 	 	 	 	 	 	 	 	 	 	 	1581470961	10.44	19.33
12/02/2020 01:29:23	120220	12022020	012922	191.80	13.816872	-56.898290	192.08	-0.330	0.180	2.470	191.73	-1.10	2.90	 	 	 	 	 	 	 	 	 	 	 	 	 	 	 	 	 	 	1581470962	10.61	19.65
12/02/2020 01:29:24	120220	12022020	012923	191.48	13.816823	-56.898310	191.78	-0.840	0.050	2.790	191.42	-1.20	3.20	 	 	 	 	 	 	 	 	 	 	 	 	 	 	 	 	 	 	1581470963	11.12	20.59
12/02/2020 01:29:25	120220	12022020	012924	191.25	13.816775	-56.898328	191.62	-0.770	-0.180	2.760	191.25	-1.40	3.30	 	 	 	 	 	 	 	 	 	 	 	 	 	 	 	 	 	 	1581470964	11.29	20.91
12/02/2020 01:29:26	120220	12022020	012925	191.37	13.816725	-56.898343	191.82	-0.340	-0.310	2.280	191.44	-1.60	2.90	 	 	 	 	 	 	 	 	 	 	 	 	 	 	 	 	 	 	1581470965	11.08	20.52
12/02/2020 01:29:27	120220	12022020	012927	191.78	13.816677	-56.898355	192.24	0.060	-0.350	1.750	191.87	-1.70	2.10	 	 	 	 	 	 	 	 	 	 	 	 	 	 	 	 	 	 	1581470967	10.76	19.93
12/02/2020 01:29:28	120220	12022020	012927	192.11	13.816628	-56.898368	192.50	0.310	-0.430	1.480	192.14	-1.70	2.00	 	 	 	 	 	 	 	 	 	 	 	 	 	 	 	 	 	 	1581470967	10.70	19.82
12/02/2020 01:29:29	120220	12022020	012928	192.16	13.816578	-56.898378	192.52	0.500	-0.610	1.480	192.16	-1.90	2.00	 	 	 	 	 	 	 	 	 	 	 	 	 	 	 	 	 	 	1581470968	10.88	20.15
12/02/2020 01:29:30	120220	12022020	012929	192.13	13.816530	-56.898390	192.48	0.570	-0.620	1.600	192.12	-1.90	2.10	 	 	 	 	 	 	 	 	 	 	 	 	 	 	 	 	 	 	1581470969	10.84	20.08
12/02/2020 01:29:31	120220	12022020	012931	192.09	13.816482	-56.898400	192.42	0.450	-0.470	1.780	192.07	-1.80	2.30	 	 	 	 	 	 	 	 	 	 	 	 	 	 	 	 	 	 	1581470971	10.67	19.76
12/02/2020 01:29:32	120220	12022020	012932	191.98	13.816432	-56.898412	192.30	0.140	-0.380	2.010	191.95	-1.70	2.50	 	 	 	 	 	 	 	 	 	 	 	 	 	 	 	 	 	 	1581470972	10.79	19.98
12/02/2020 01:29:33	120220	12022020	012933	191.80	13.816383	-56.898425	192.13	-0.330	-0.330	2.460	191.77	-1.60	2.90	 	 	 	 	 	 	 	 	 	 	 	 	 	 	 	 	 	 	1581470973	10.96	20.30
12/02/2020 01:29:34	120220	12022020	012933	191.65	13.816335	-56.898443	191.98	-0.740	-0.200	2.970	191.62	-1.50	3.40	 	 	 	 	 	 	 	 	 	 	 	 	 	 	 	 	 	 	1581470973	10.97	20.32
12/02/2020 01:29:35	120220	12022020	012935	191.47	13.816287	-56.898462	191.78	-0.680	-0.060	3.040	191.42	-1.40	3.50	 	 	 	 	 	 	 	 	 	 	 	 	 	 	 	 	 	 	1581470975	10.94	20.26
12/02/2020 01:29:36	120220	12022020	012935	191.24	13.816237	-56.898475	191.59	-0.140	-0.070	2.760	191.23	-1.40	3.30	 	 	 	 	 	 	 	 	 	 	 	 	 	 	 	 	 	 	1581470975	11.12	20.59
12/02/2020 01:29:37	120220	12022020	012936	191.36	13.816188	-56.898485	191.81	0.330	0.060	2.310	191.44	-1.30	2.90	 	 	 	 	 	 	 	 	 	 	 	 	 	 	 	 	 	 	1581470976	10.93	20.24
12/02/2020 01:29:38	120220	12022020	012937	191.79	13.816140	-56.898495	192.23	0.380	0.140	1.900	191.87	-1.20	2.40	 	 	 	 	 	 	 	 	 	 	 	 	 	 	 	 	 	 	1581470977	10.66	19.74
12/02/2020 01:29:39	120220	12022020	012939	192.05	13.816090	-56.898508	192.40	0.230	-0.220	1.830	192.05	-1.80	2.40	 	 	 	 	 	 	 	 	 	 	 	 	 	 	 	 	 	 	1581470979	10.96	20.30
12/02/2020 01:29:40	120220	12022020	012940	192.04	13.816040	-56.898523	192.40	0.210	-0.640	1.980	192.04	-1.90	2.50	 	 	 	 	 	 	 	 	 	 	 	 	 	 	 	 	 	 	1581470980	11.26	20.85
12/02/2020 01:29:41	120220	12022020	012941	192.12	13.815992	-56.898535	192.50	0.280	-0.550	1.800	192.15	-1.70	2.10	 	 	 	 	 	 	 	 	 	 	 	 	 	 	 	 	 	 	1581470981	10.74	19.89
12/02/2020 01:29:42	120220	12022020	012941	192.28	13.815943	-56.898545	192.63	0.270	-0.340	1.440	192.29	-1.70	2.00	 	 	 	 	 	 	 	 	 	 	 	 	 	 	 	 	 	 	1581470981	10.42	19.30
12/02/2020 01:29:43	120220	12022020	012942	192.21	13.815895	-56.898555	192.47	0.180	-0.460	1.360	192.16	-1.70	1.90	 	 	 	 	 	 	 	 	 	 	 	 	 	 	 	 	 	 	1581470982	10.79	19.98
12/02/2020 01:29:44	120220	12022020	012943	191.91	13.815843	-56.898567	192.20	0.070	-0.650	1.550	191.87	-1.90	2.00	 	 	 	 	 	 	 	 	 	 	 	 	 	 	 	 	 	 	1581470983	11.13	20.61
12/02/2020 01:29:45	120220	12022020	012944	191.91	13.815795	-56.898580	192.30	-0.080	-0.470	1.610	191.96	-1.80	2.10	 	 	 	 	 	 	 	 	 	 	 	 	 	 	 	 	 	 	1581470984	10.86	20.11
12/02/2020 01:29:46	120220	12022020	012945	192.22	13.815748	-56.898593	192.60	-0.270	-0.120	1.550	192.27	-1.50	2.10	 	 	 	 	 	 	 	 	 	 	 	 	 	 	 	 	 	 	1581470985	10.50	19.45
12/02/2020 01:29:47	120220	12022020	012946	192.34	13.815700	-56.898608	192.64	-0.340	-0.220	1.770	192.31	-1.50	2.20	 	 	 	 	 	 	 	 	 	 	 	 	 	 	 	 	 	 	1581470986	10.87	20.13
12/02/2020 01:29:48	120220	12022020	012947	191.95	13.815647	-56.898623	192.13	-0.150	-0.870	2.330	191.81	-2.10	2.70	 	 	 	 	 	 	 	 	 	 	 	 	 	 	 	 	 	 	1581470987	11.70	21.67
12/02/2020 01:29:49	120220	12022020	012949	191.19	13.815593	-56.898640	191.36	0.130	-1.250	2.810	191.03	-2.60	3.20	 	 	 	 	 	 	 	 	 	 	 	 	 	 	 	 	 	 	1581470989	11.99	22.21
12/02/2020 01:29:50	120220	12022020	012949	190.50	13.815543	-56.898655	190.74	0.150	-0.660	3.000	190.40	-2.10	3.50	 	 	 	 	 	 	 	 	 	 	 	 	 	 	 	 	 	 	1581470989	11.15	20.65
12/02/2020 01:29:51	120220	12022020	012951	190.22	13.815498	-56.898668	190.60	-0.210	0.600	2.820	190.23	-0.90	3.40	 	 	 	 	 	 	 	 	 	 	 	 	 	 	 	 	 	 	1581470991	10.16	18.82
12/02/2020 01:29:52	120220	12022020	012952	190.41	13.815453	-56.898680	190.84	-0.570	1.510	2.320	190.48	0.10	2.90	 	 	 	 	 	 	 	 	 	 	 	 	 	 	 	 	 	 	1581470992	9.95	18.43
12/02/2020 01:29:53	120220	12022020	012952	190.83	13.815405	-56.898690	191.31	-0.490	1.320	1.720	190.94	0.10	2.30	 	 	 	 	 	 	 	 	 	 	 	 	 	 	 	 	 	 	1581470992	10.69	19.80
12/02/2020 01:29:54	120220	12022020	012953	191.48	13.815353	-56.898702	192.00	0.040	0.240	1.210	191.62	-0.90	1.80	 	 	 	 	 	 	 	 	 	 	 	 	 	 	 	 	 	 	1581470993	11.51	21.32
12/02/2020 01:29:55	120220	12022020	012954	192.25	13.815300	-56.898713	192.77	0.630	-0.950	0.980	192.39	-2.10	1.50	 	 	 	 	 	 	 	 	 	 	 	 	 	 	 	 	 	 	1581470994	11.62	21.52
12/02/2020 01:29:56	120220	12022020	012955	192.79	13.815250	-56.898727	193.20	0.960	-1.640	1.220	192.84	-2.90	1.70	 	 	 	 	 	 	 	 	 	 	 	 	 	 	 	 	 	 	1581470995	11.15	20.65
12/02/2020 01:29:57	120220	12022020	012956	192.81	13.815202	-56.898738	193.12	0.940	-1.630	1.660	192.76	-3.00	2.10	 	 	 	 	 	 	 	 	 	 	 	 	 	 	 	 	 	 	1581470996	10.62	19.67
12/02/2020 01:29:58	120220	12022020	012957	192.54	13.815155	-56.898748	192.87	0.590	-1.030	2.010	192.49	-2.40	2.50	 	 	 	 	 	 	 	 	 	 	 	 	 	 	 	 	 	 	1581470997	10.23	18.95
12/02/2020 01:29:59	120220	12022020	012958	192.35	13.815108	-56.898758	192.70	0.020	-0.230	2.110	192.32	-1.60	2.60	 	 	 	 	 	 	 	 	 	 	 	 	 	 	 	 	 	 	1581470998	10.14	18.78
12/02/2020 01:30:00	120220	12022020	012959	192.21	13.815062	-56.898770	192.55	-0.550	0.090	2.190	192.16	-1.20	2.70	 	 	 	 	 	 	 	 	 	 	 	 	 	 	 	 	 	 	1581470999	10.64	19.71
12/02/2020 01:30:01	120220	12022020	013000	191.94	13.815010	-56.898787	192.25	-0.890	-0.180	2.370	191.88	-1.40	2.80	 	 	 	 	 	 	 	 	 	 	 	 	 	 	 	 	 	 	1581471000	11.49	21.28
12/02/2020 01:30:02	120220	12022020	013001	191.61	13.814958	-56.898805	191.93	-0.960	-0.410	2.500	191.55	-1.70	3.00	1017.70	26.10	26.10	20.80	20.90	-1.0	73.0	73.0	393.0	25.6	263.00	9.60	67.00	11.70	16	7656.0	27.2	27.2	1581471001	11.74	21.74
12/02/2020 01:30:03	120220	12022020	013002	191.30	13.814908	-56.898823	191.62	-0.770	-0.210	2.500	191.25	-1.60	3.00	 	 	 	 	 	 	 	 	 	 	 	 	 	 	 	 	 	 	1581471002	11.29	20.91
12/02/2020 01:30:04	120220	12022020	013003	191.09	13.814860	-56.898838	191.44	-0.320	0.230	2.030	191.08	-1.10	2.60	 	 	 	 	 	 	 	 	 	 	 	 	 	 	 	 	 	 	1581471003	10.80	20.00
12/02/2020 01:30:05	120220	12022020	013004	191.10	13.814812	-56.898848	191.51	0.270	0.400	1.360	191.13	-1.00	1.60	 	 	 	 	 	 	 	 	 	 	 	 	 	 	 	 	 	 	1581471004	10.80	20.00
12/02/2020 01:30:06	120220	12022020	013005	191.34	13.814760	-56.898855	191.79	0.700	0.150	0.880	191.41	-1.10	1.40	 	 	 	 	 	 	 	 	 	 	 	 	 	 	 	 	 	 	1581471005	11.11	20.58
12/02/2020 01:30:07	120220	12022020	013006	191.75	13.814710	-56.898865	192.20	0.670	-0.270	0.980	191.83	-1.50	1.40	 	 	 	 	 	 	 	 	 	 	 	 	 	 	 	 	 	 	1581471006	11.16	20.67
12/02/2020 01:30:08	120220	12022020	013007	192.19	13.814662	-56.898880	192.63	0.180	-0.440	1.460	192.26	-1.70	1.90	 	 	 	 	 	 	 	 	 	 	 	 	 	 	 	 	 	 	1581471007	10.80	20.00
12/02/2020 01:30:09	120220	12022020	013008	192.49	13.814615	-56.898897	192.87	-0.320	-0.450	1.970	192.51	-1.80	2.40	 	 	 	 	 	 	 	 	 	 	 	 	 	 	 	 	 	 	1581471008	10.51	19.46
12/02/2020 01:30:10	120220	12022020	013009	192.49	13.814568	-56.898913	192.82	-0.260	-0.690	2.360	192.45	-1.90	2.80	 	 	 	 	 	 	 	 	 	 	 	 	 	 	 	 	 	 	1581471009	10.79	19.98
12/02/2020 01:30:11	120220	12022020	013010	192.34	13.814517	-56.898927	192.68	0.320	-1.000	2.270	192.32	-2.30	2.80	 	 	 	 	 	 	 	 	 	 	 	 	 	 	 	 	 	 	1581471010	11.20	20.74
12/02/2020 01:30:12	120220	12022020	013011	192.21	13.814467	-56.898935	192.52	0.700	-0.920	2.030	192.16	-2.30	2.60	 	 	 	 	 	 	 	 	 	 	 	 	 	 	 	 	 	 	1581471011	11.08	20.52
12/02/2020 01:30:13	120220	12022020	013012	191.97	13.814417	-56.898943	192.27	0.440	-0.490	1.890	191.93	-1.90	2.40	 	 	 	 	 	 	 	 	 	 	 	 	 	 	 	 	 	 	1581471012	10.74	19.89
12/02/2020 01:30:14	120220	12022020	013013	191.87	13.814370	-56.898957	192.23	-0.230	0.100	1.920	191.88	-1.30	2.40	 	 	 	 	 	 	 	 	 	 	 	 	 	 	 	 	 	 	1581471013	10.50	19.45
12/02/2020 01:30:15	120220	12022020	013014	191.98	13.814323	-56.898970	192.34	-0.690	0.540	2.090	191.99	-0.80	2.50	 	 	 	 	 	 	 	 	 	 	 	 	 	 	 	 	 	 	1581471014	10.51	19.46
12/02/2020 01:30:16	120220	12022020	013015	192.00	13.814273	-56.898987	192.33	-0.660	0.330	2.440	191.99	-0.90	2.90	 	 	 	 	 	 	 	 	 	 	 	 	 	 	 	 	 	 	1581471015	11.10	20.56
12/02/2020 01:30:17	120220	12022020	013016	191.93	13.814222	-56.899003	192.28	-0.320	-0.260	2.690	191.93	-1.80	3.20	 	 	 	 	 	 	 	 	 	 	 	 	 	 	 	 	 	 	1581471016	11.67	21.61
12/02/2020 01:30:18	120220	12022020	013017	191.89	13.814172	-56.899020	192.23	0.040	-0.610	2.650	191.87	-1.90	3.20	 	 	 	 	 	 	 	 	 	 	 	 	 	 	 	 	 	 	1581471017	11.45	21.21
12/02/2020 01:30:19	120220	12022020	013018	191.78	13.814123	-56.899033	192.09	0.300	-0.490	2.240	191.75	-1.80	2.80	 	 	 	 	 	 	 	 	 	 	 	 	 	 	 	 	 	 	1581471018	10.83	20.06
12/02/2020 01:30:20	120220	12022020	013019	191.59	13.814075	-56.899043	191.87	0.490	-0.290	1.700	191.54	-1.60	2.30	 	 	 	 	 	 	 	 	 	 	 	 	 	 	 	 	 	 	1581471019	10.65	19.72
12/02/2020 01:30:21	120220	12022020	013020	191.41	13.814025	-56.899050	191.75	0.550	-0.240	1.270	191.41	-1.60	1.80	 	 	 	 	 	 	 	 	 	 	 	 	 	 	 	 	 	 	1581471020	10.87	20.13
12/02/2020 01:30:22	120220	12022020	013021	191.66	13.813975	-56.899060	192.13	0.300	-0.160	1.050	191.77	-1.50	1.60	 	 	 	 	 	 	 	 	 	 	 	 	 	 	 	 	 	 	1581471021	10.79	19.98
12/02/2020 01:30:23	120220	12022020	013023	192.26	13.813927	-56.899073	192.72	-0.160	-0.180	1.380	192.36	-1.50	1.80	 	 	 	 	 	 	 	 	 	 	 	 	 	 	 	 	 	 	1581471023	10.65	19.72
12/02/2020 01:30:24	120220	12022020	013023	192.59	13.813880	-56.899092	192.92	-0.350	-0.530	1.970	192.59	-1.80	2.40	 	 	 	 	 	 	 	 	 	 	 	 	 	 	 	 	 	 	1581471023	11.01	20.39
12/02/2020 01:30:25	120220	12022020	013024	192.43	13.813828	-56.899108	192.69	-0.030	-0.960	2.470	192.37	-2.20	2.90	 	 	 	 	 	 	 	 	 	 	 	 	 	 	 	 	 	 	1581471024	11.40	21.11
12/02/2020 01:30:26	120220	12022020	013025	192.13	13.813778	-56.899120	192.41	0.350	-0.950	2.720	192.08	-2.30	3.20	 	 	 	 	 	 	 	 	 	 	 	 	 	 	 	 	 	 	1581471025	11.22	20.78
12/02/2020 01:30:27	120220	12022020	013026	191.92	13.813728	-56.899130	192.22	0.250	-0.570	2.630	191.88	-1.90	3.10	 	 	 	 	 	 	 	 	 	 	 	 	 	 	 	 	 	 	1581471026	10.88	20.15
12/02/2020 01:30:28	120220	12022020	013027	191.75	13.813678	-56.899143	192.04	-0.260	-0.280	2.540	191.72	-1.60	3.00	 	 	 	 	 	 	 	 	 	 	 	 	 	 	 	 	 	 	1581471027	10.95	20.28
12/02/2020 01:30:29	120220	12022020	013028	191.66	13.813628	-56.899158	191.99	-0.710	-0.090	2.480	191.66	-1.30	2.90	 	 	 	 	 	 	 	 	 	 	 	 	 	 	 	 	 	 	1581471028	11.19	20.72
12/02/2020 01:30:30	120220	12022020	013029	191.70	13.813580	-56.899173	192.06	-0.760	0.170	2.420	191.72	-1.20	2.90	 	 	 	 	 	 	 	 	 	 	 	 	 	 	 	 	 	 	1581471029	11.13	20.61
12/02/2020 01:30:31	120220	12022020	013030	191.84	13.813532	-56.899188	192.23	-0.460	0.490	2.280	191.88	-0.70	2.60	 	 	 	 	 	 	 	 	 	 	 	 	 	 	 	 	 	 	1581471030	10.90	20.19
12/02/2020 01:30:32	120220	12022020	013031	192.09	13.813483	-56.899202	192.50	-0.070	0.680	1.900	192.15	-0.70	2.50	 	 	 	 	 	 	 	 	 	 	 	 	 	 	 	 	 	 	1581471031	10.70	19.82
12/02/2020 01:30:33	120220	12022020	013032	192.45	13.813435	-56.899213	192.86	0.240	0.560	1.310	192.53	-0.70	1.90	 	 	 	 	 	 	 	 	 	 	 	 	 	 	 	 	 	 	1581471032	10.66	19.74
12/02/2020 01:30:34	120220	12022020	013033	192.86	13.813385	-56.899222	193.24	0.490	0.030	0.790	192.92	-1.20	1.30	 	 	 	 	 	 	 	 	 	 	 	 	 	 	 	 	 	 	1581471033	10.81	20.02
12/02/2020 01:30:35	120220	12022020	013034	193.02	13.813335	-56.899233	193.29	0.720	-0.870	0.750	192.99	-2.00	1.20	 	 	 	 	 	 	 	 	 	 	 	 	 	 	 	 	 	 	1581471034	11.15	20.65
12/02/2020 01:30:36	120220	12022020	013035	192.68	13.813282	-56.899245	192.84	0.830	-1.750	1.200	192.56	-3.00	1.60	 	 	 	 	 	 	 	 	 	 	 	 	 	 	 	 	 	 	1581471035	11.47	21.24
12/02/2020 01:30:37	120220	12022020	013036	192.00	13.813232	-56.899260	192.15	0.640	-1.990	1.900	191.86	-3.30	2.30	 	 	 	 	 	 	 	 	 	 	 	 	 	 	 	 	 	 	1581471036	11.35	21.02
12/02/2020 01:30:38	120220	12022020	013037	191.42	13.813183	-56.899275	191.68	0.120	-1.310	2.430	191.36	-2.80	2.90	 	 	 	 	 	 	 	 	 	 	 	 	 	 	 	 	 	 	1581471037	10.82	20.04
12/02/2020 01:30:39	120220	12022020	013038	191.28	13.813138	-56.899290	191.65	-0.530	-0.140	2.590	191.31	-1.60	3.10	 	 	 	 	 	 	 	 	 	 	 	 	 	 	 	 	 	 	1581471038	10.37	19.21
12/02/2020 01:30:40	120220	12022020	013039	191.56	13.813092	-56.899305	192.02	-0.950	0.800	2.410	191.65	-0.60	2.90	 	 	 	 	 	 	 	 	 	 	 	 	 	 	 	 	 	 	1581471039	10.45	19.35
12/02/2020 01:30:41	120220	12022020	013040	192.05	13.813042	-56.899320	192.52	-0.910	1.000	2.050	192.16	-0.30	2.60	 	 	 	 	 	 	 	 	 	 	 	 	 	 	 	 	 	 	1581471040	10.96	20.30
12/02/2020 01:30:42	120220	12022020	013041	192.51	13.812990	-56.899333	192.95	-0.510	0.440	1.860	192.59	-0.80	2.40	 	 	 	 	 	 	 	 	 	 	 	 	 	 	 	 	 	 	1581471041	11.59	21.46
12/02/2020 01:30:43	120220	12022020	013042	192.77	13.812937	-56.899348	193.15	-0.050	-0.450	1.910	192.79	-1.60	2.40	 	 	 	 	 	 	 	 	 	 	 	 	 	 	 	 	 	 	1581471042	11.92	22.08
12/02/2020 01:30:44	120220	12022020	013043	192.72	13.812885	-56.899363	193.03	0.240	-0.930	2.090	192.69	-2.20	2.60	 	 	 	 	 	 	 	 	 	 	 	 	 	 	 	 	 	 	1581471043	11.62	21.52
12/02/2020 01:30:45	120220	12022020	013044	192.54	13.812837	-56.899377	192.85	0.320	-0.660	2.150	192.51	-2.00	2.70	 	 	 	 	 	 	 	 	 	 	 	 	 	 	 	 	 	 	1581471044	10.80	20.00
12/02/2020 01:30:46	120220	12022020	013045	192.41	13.812790	-56.899388	192.71	0.260	-0.030	1.880	192.38	-1.40	2.40	 	 	 	 	 	 	 	 	 	 	 	 	 	 	 	 	 	 	1581471045	10.21	18.91
12/02/2020 01:30:47	120220	12022020	013046	192.26	13.812742	-56.899397	192.53	0.200	0.170	1.610	192.22	-1.10	2.10	 	 	 	 	 	 	 	 	 	 	 	 	 	 	 	 	 	 	1581471046	10.53	19.50
12/02/2020 01:30:48	120220	12022020	013047	192.06	13.812690	-56.899410	192.34	0.180	-0.220	1.540	192.02	-1.50	2.00	 	 	 	 	 	 	 	 	 	 	 	 	 	 	 	 	 	 	1581471047	11.29	20.91
12/02/2020 01:30:49	120220	12022020	013049	192.06	13.812640	-56.899423	192.47	0.110	-0.430	1.370	192.14	-1.80	1.90	 	 	 	 	 	 	 	 	 	 	 	 	 	 	 	 	 	 	1581471049	11.37	21.06
12/02/2020 01:30:50	120220	12022020	013049	192.55	13.812592	-56.899435	193.01	-0.010	-0.030	1.160	192.67	-1.40	1.70	 	 	 	 	 	 	 	 	 	 	 	 	 	 	 	 	 	 	1581471049	10.50	19.45
12/02/2020 01:30:51	120220	12022020	013050	193.05	13.812545	-56.899448	193.41	-0.080	0.070	1.290	193.09	-1.20	1.70	 	 	 	 	 	 	 	 	 	 	 	 	 	 	 	 	 	 	1581471050	10.39	19.24
12/02/2020 01:30:52	120220	12022020	013051	193.03	13.812495	-56.899465	193.26	0.100	-0.700	1.880	192.97	-1.90	2.30	 	 	 	 	 	 	 	 	 	 	 	 	 	 	 	 	 	 	1581471051	11.45	21.21
12/02/2020 01:30:53	120220	12022020	013052	192.59	13.812442	-56.899482	192.76	0.380	-1.510	2.520	192.47	-2.80	2.90	 	 	 	 	 	 	 	 	 	 	 	 	 	 	 	 	 	 	1581471052	12.03	22.28
12/02/2020 01:30:54	120220	12022020	013053	192.05	13.812390	-56.899495	192.25	0.440	-1.360	2.740	191.95	-2.80	3.20	 	 	 	 	 	 	 	 	 	 	 	 	 	 	 	 	 	 	1581471053	11.39	21.09
12/02/2020 01:30:55	120220	12022020	013054	191.65	13.812343	-56.899508	191.90	0.050	-0.450	2.730	191.59	-1.30	3.20	 	 	 	 	 	 	 	 	 	 	 	 	 	 	 	 	 	 	1581471054	10.54	19.52
12/02/2020 01:30:56	120220	12022020	013055	191.45	13.812295	-56.899522	191.76	-0.630	0.320	2.600	191.44	-1.10	3.10	 	 	 	 	 	 	 	 	 	 	 	 	 	 	 	 	 	 	1581471055	10.55	19.54
12/02/2020 01:30:57	120220	12022020	013056	191.44	13.812247	-56.899538	191.77	-1.130	0.510	2.430	191.45	-0.80	2.90	 	 	 	 	 	 	 	 	 	 	 	 	 	 	 	 	 	 	1581471056	11.10	20.56
12/02/2020 01:30:58	120220	12022020	013057	191.54	13.812195	-56.899557	191.90	-0.940	0.230	2.150	191.57	-1.00	2.70	 	 	 	 	 	 	 	 	 	 	 	 	 	 	 	 	 	 	1581471057	11.63	21.54
12/02/2020 01:30:59	120220	12022020	013058	191.80	13.812143	-56.899570	192.19	-0.090	0.080	1.540	191.87	-1.20	2.10	 	 	 	 	 	 	 	 	 	 	 	 	 	 	 	 	 	 	1581471058	11.44	21.19
12/02/2020 01:31:00	120220	12022020	013059	192.21	13.812093	-56.899578	192.66	0.640	0.180	1.060	192.32	-1.20	1.60	 	 	 	 	 	 	 	 	 	 	 	 	 	 	 	 	 	 	1581471059	10.95	20.28
12/02/2020 01:31:01	120220	12022020	013100	192.81	13.812047	-56.899590	193.28	0.610	0.280	1.090	192.93	-1.00	1.60	 	 	 	 	 	 	 	 	 	 	 	 	 	 	 	 	 	 	1581471060	10.46	19.37
12/02/2020 01:31:02	120220	12022020	013101	193.25	13.812000	-56.899603	193.60	0.150	-0.020	1.440	193.28	-1.30	1.90	1017.80	26.10	26.10	21.30	21.30	-1.0	74.0	74.0	395.0	25.6	271.00	8.70	69.00	10.30	16	7758.0	27.2	27.2	1581471061	10.53	19.50
12/02/2020 01:31:03	120220	12022020	013102	193.12	13.811950	-56.899620	193.34	0.090	-0.930	1.940	193.02	-2.10	2.40	 	 	 	 	 	 	 	 	 	 	 	 	 	 	 	 	 	 	1581471062	11.26	20.85
12/02/2020 01:31:04	120220	12022020	013103	192.57	13.811897	-56.899633	192.79	0.640	-1.680	2.180	192.47	-2.90	2.70	 	 	 	 	 	 	 	 	 	 	 	 	 	 	 	 	 	 	1581471063	11.73	21.72
12/02/2020 01:31:05	120220	12022020	013104	192.15	13.811847	-56.899643	192.43	0.920	-1.370	2.240	192.09	-2.80	2.70	 	 	 	 	 	 	 	 	 	 	 	 	 	 	 	 	 	 	1581471064	10.92	20.22
12/02/2020 01:31:06	120220	12022020	013105	191.85	13.811800	-56.899655	192.11	0.420	-0.570	2.350	191.77	-2.00	2.80	 	 	 	 	 	 	 	 	 	 	 	 	 	 	 	 	 	 	1581471065	10.25	18.98
12/02/2020 01:31:07	120220	12022020	013106	191.34	13.811753	-56.899670	191.55	-0.430	-0.140	2.650	191.22	-1.40	3.40	 	 	 	 	 	 	 	 	 	 	 	 	 	 	 	 	 	 	1581471066	10.74	19.89
12/02/2020 01:31:08	120220	12022020	013107	190.80	13.811703	-56.899690	191.08	-0.920	-0.040	3.050	190.72	-1.40	3.50	 	 	 	 	 	 	 	 	 	 	 	 	 	 	 	 	 	 	1581471067	11.45	21.21
12/02/2020 01:31:09	120220	12022020	013108	190.64	13.811653	-56.899708	191.03	-0.790	0.230	3.060	190.66	-1.10	3.60	 	 	 	 	 	 	 	 	 	 	 	 	 	 	 	 	 	 	1581471068	11.31	20.95
12/02/2020 01:31:10	120220	12022020	013109	190.85	13.811605	-56.899723	191.27	-0.360	0.390	2.630	190.91	-0.90	3.20	 	 	 	 	 	 	 	 	 	 	 	 	 	 	 	 	 	 	1581471069	11.06	20.48
12/02/2020 01:31:11	120220	12022020	013110	191.15	13.811553	-56.899737	191.57	0.000	0.110	2.310	191.21	-1.20	2.80	 	 	 	 	 	 	 	 	 	 	 	 	 	 	 	 	 	 	1581471070	11.32	20.96
12/02/2020 01:31:12	120220	12022020	013111	191.51	13.811502	-56.899750	191.96	0.080	-0.220	2.150	191.61	-1.50	2.70	 	 	 	 	 	 	 	 	 	 	 	 	 	 	 	 	 	 	1581471071	11.34	21.00
12/02/2020 01:31:13	120220	12022020	013112	192.09	13.811455	-56.899763	192.58	-0.040	-0.090	2.000	192.23	-1.50	2.50	 	 	 	 	 	 	 	 	 	 	 	 	 	 	 	 	 	 	1581471072	10.61	19.65
12/02/2020 01:31:14	120220	12022020	013114	192.67	13.811410	-56.899775	193.08	-0.090	0.120	1.900	192.73	-1.20	2.40	 	 	 	 	 	 	 	 	 	 	 	 	 	 	 	 	 	 	1581471074	10.07	18.65
12/02/2020 01:31:15	120220	12022020	013114	192.75	13.811360	-56.899787	193.00	0.260	-0.380	2.080	192.68	-1.60	2.50	 	 	 	 	 	 	 	 	 	 	 	 	 	 	 	 	 	 	1581471074	10.73	19.87
12/02/2020 01:31:16	120220	12022020	013115	192.22	13.811307	-56.899800	192.41	0.880	-1.360	2.450	192.08	-2.60	2.90	 	 	 	 	 	 	 	 	 	 	 	 	 	 	 	 	 	 	1581471075	11.77	21.80
12/02/2020 01:31:17	120220	12022020	013116	191.54	13.811255	-56.899810	191.78	1.090	-1.480	2.800	191.43	-2.90	3.30	 	 	 	 	 	 	 	 	 	 	 	 	 	 	 	 	 	 	1581471076	11.51	21.32
12/02/2020 01:31:18	120220	12022020	013117	191.22	13.811208	-56.899822	191.58	0.490	-0.380	2.840	191.22	-1.90	3.40	 	 	 	 	 	 	 	 	 	 	 	 	 	 	 	 	 	 	1581471077	10.17	18.83
12/02/2020 01:31:19	120220	12022020	013119	191.27	13.811165	-56.899833	191.65	-0.500	0.730	2.680	191.29	-0.40	3.10	 	 	 	 	 	 	 	 	 	 	 	 	 	 	 	 	 	 	1581471079	9.69	17.95
12/02/2020 01:31:20	120220	12022020	013119	191.36	13.811118	-56.899850	191.72	-1.040	0.770	2.580	191.36	-0.50	3.10	 	 	 	 	 	 	 	 	 	 	 	 	 	 	 	 	 	 	1581471079	10.67	19.76
12/02/2020 01:31:21	120220	12022020	013120	191.33	13.811067	-56.899868	191.67	-0.700	-0.140	2.400	191.32	-1.90	2.80	 	 	 	 	 	 	 	 	 	 	 	 	 	 	 	 	 	 	1581471080	11.82	21.89
12/02/2020 01:31:22	120220	12022020	013121	191.25	13.811013	-56.899882	191.60	0.040	-0.950	2.140	191.25	-2.20	2.70	 	 	 	 	 	 	 	 	 	 	 	 	 	 	 	 	 	 	1581471081	11.96	22.15
12/02/2020 01:31:23	120220	12022020	013122	191.23	13.810962	-56.899895	191.56	0.410	-1.050	1.920	191.22	-2.40	2.40	 	 	 	 	 	 	 	 	 	 	 	 	 	 	 	 	 	 	1581471082	11.18	20.71
12/02/2020 01:31:24	120220	12022020	013123	191.01	13.810913	-56.899907	191.28	0.220	-0.790	2.030	190.93	-2.10	2.50	 	 	 	 	 	 	 	 	 	 	 	 	 	 	 	 	 	 	1581471083	10.71	19.83
12/02/2020 01:31:25	120220	12022020	013124	190.68	13.810865	-56.899920	191.01	-0.190	-0.420	2.300	190.65	-1.80	2.80	 	 	 	 	 	 	 	 	 	 	 	 	 	 	 	 	 	 	1581471084	10.78	19.96
12/02/2020 01:31:26	120220	12022020	013125	190.80	13.810818	-56.899933	191.25	-0.420	0.110	2.090	190.88	-1.30	2.70	 	 	 	 	 	 	 	 	 	 	 	 	 	 	 	 	 	 	1581471085	10.62	19.67
12/02/2020 01:31:27	120220	12022020	013126	191.33	13.810770	-56.899945	191.82	-0.330	0.470	1.640	191.45	-0.90	2.20	 	 	 	 	 	 	 	 	 	 	 	 	 	 	 	 	 	 	1581471086	10.57	19.58
12/02/2020 01:31:28	120220	12022020	013127	191.89	13.810720	-56.899955	192.36	-0.100	0.340	1.480	191.99	-0.90	2.00	 	 	 	 	 	 	 	 	 	 	 	 	 	 	 	 	 	 	1581471087	10.95	20.28
12/02/2020 01:31:29	120220	12022020	013128	192.34	13.810670	-56.899970	192.78	0.020	-0.010	1.750	192.40	-1.30	2.20	 	 	 	 	 	 	 	 	 	 	 	 	 	 	 	 	 	 	1581471088	11.08	20.52
12/02/2020 01:31:30	120220	12022020	013129	192.52	13.810622	-56.899983	192.87	-0.000	-0.240	2.120	192.51	-1.50	2.60	 	 	 	 	 	 	 	 	 	 	 	 	 	 	 	 	 	 	1581471089	10.85	20.09
12/02/2020 01:31:31	120220	12022020	013130	192.40	13.810573	-56.899998	192.70	0.090	-0.430	2.230	192.35	-1.70	2.70	 	 	 	 	 	 	 	 	 	 	 	 	 	 	 	 	 	 	1581471090	10.73	19.87
12/02/2020 01:31:32	120220	12022020	013131	192.04	13.810525	-56.900010	192.26	0.410	-0.630	2.160	191.93	-1.90	2.70	 	 	 	 	 	 	 	 	 	 	 	 	 	 	 	 	 	 	1581471091	10.83	20.06
12/02/2020 01:31:33	120220	12022020	013132	191.46	13.810475	-56.900020	191.67	0.740	-0.840	2.000	191.34	-2.10	2.50	 	 	 	 	 	 	 	 	 	 	 	 	 	 	 	 	 	 	1581471092	11.03	20.43
12/02/2020 01:31:34	120220	12022020	013133	190.92	13.810423	-56.900028	191.14	0.750	-0.890	1.780	190.83	-2.20	2.30	 	 	 	 	 	 	 	 	 	 	 	 	 	 	 	 	 	 	1581471093	11.06	20.48
12/02/2020 01:31:35	120220	12022020	013134	190.43	13.810373	-56.900040	190.68	0.380	-0.740	1.870	190.35	-2.10	2.30	 	 	 	 	 	 	 	 	 	 	 	 	 	 	 	 	 	 	1581471094	11.02	20.41
12/02/2020 01:31:36	120220	12022020	013135	190.16	13.810325	-56.900055	190.49	-0.220	-0.310	2.080	190.15	-1.70	2.50	 	 	 	 	 	 	 	 	 	 	 	 	 	 	 	 	 	 	1581471095	10.89	20.17
12/02/2020 01:31:37	120220	12022020	013136	190.25	13.810278	-56.900072	190.68	-0.710	0.210	2.290	190.32	-1.20	2.80	 	 	 	 	 	 	 	 	 	 	 	 	 	 	 	 	 	 	1581471096	10.74	19.89
12/02/2020 01:31:38	120220	12022020	013137	190.70	13.810230	-56.900088	191.20	-0.870	0.490	2.390	190.82	-0.80	2.90	 	 	 	 	 	 	 	 	 	 	 	 	 	 	 	 	 	 	1581471097	10.81	20.02
12/02/2020 01:31:39	120220	12022020	013138	191.30	13.810180	-56.900103	191.79	-0.670	0.230	2.320	191.41	-1.00	2.80	 	 	 	 	 	 	 	 	 	 	 	 	 	 	 	 	 	 	1581471098	11.17	20.69
12/02/2020 01:31:40	120220	12022020	013139	191.74	13.810128	-56.900118	192.18	-0.290	-0.340	2.100	191.81	-1.60	2.60	 	 	 	 	 	 	 	 	 	 	 	 	 	 	 	 	 	 	1581471099	11.49	21.28
12/02/2020 01:31:41	120220	12022020	013140	192.02	13.810078	-56.900130	192.43	0.040	-0.630	1.770	192.08	-1.90	2.30	 	 	 	 	 	 	 	 	 	 	 	 	 	 	 	 	 	 	1581471100	11.26	20.85
12/02/2020 01:31:42	120220	12022020	013141	192.30	13.810030	-56.900140	192.70	0.200	-0.490	1.410	192.35	-1.80	1.90	 	 	 	 	 	 	 	 	 	 	 	 	 	 	 	 	 	 	1581471101	10.64	19.71
12/02/2020 01:31:43	120220	12022020	013142	192.44	13.809982	-56.900150	192.76	0.290	-0.340	1.310	192.44	-1.70	1.90	 	 	 	 	 	 	 	 	 	 	 	 	 	 	 	 	 	 	1581471102	10.46	19.37
12/02/2020 01:31:44	120220	12022020	013143	192.29	13.809933	-56.900162	192.54	0.500	-0.420	1.480	192.23	-1.70	2.00	 	 	 	 	 	 	 	 	 	 	 	 	 	 	 	 	 	 	1581471103	10.82	20.04
12/02/2020 01:31:45	120220	12022020	013144	191.95	13.809883	-56.900172	192.20	0.670	-0.340	1.700	191.88	-1.70	2.20	 	 	 	 	 	 	 	 	 	 	 	 	 	 	 	 	 	 	1581471104	10.86	20.11
12/02/2020 01:31:46	120220	12022020	013145	191.54	13.809835	-56.900183	191.81	0.530	-0.150	1.920	191.47	-1.50	2.40	 	 	 	 	 	 	 	 	 	 	 	 	 	 	 	 	 	 	1581471105	10.66	19.74
12/02/2020 01:31:47	120220	12022020	013146	191.24	13.809787	-56.900197	191.55	0.130	-0.180	2.070	191.20	-1.50	2.50	 	 	 	 	 	 	 	 	 	 	 	 	 	 	 	 	 	 	1581471106	10.86	20.11
12/02/2020 01:31:48	120220	12022020	013147	190.99	13.809737	-56.900212	191.29	-0.220	-0.470	2.310	190.94	-1.70	2.80	 	 	 	 	 	 	 	 	 	 	 	 	 	 	 	 	 	 	1581471107	11.26	20.85
12/02/2020 01:31:49	120220	12022020	013148	190.76	13.809685	-56.900227	191.09	-0.340	-0.700	2.470	190.73	-2.00	3.00	 	 	 	 	 	 	 	 	 	 	 	 	 	 	 	 	 	 	1581471108	11.45	21.21
12/02/2020 01:31:50	120220	12022020	013150	190.75	13.809635	-56.900242	191.13	-0.360	-0.590	2.380	190.78	-1.90	2.90	 	 	 	 	 	 	 	 	 	 	 	 	 	 	 	 	 	 	1581471110	11.16	20.67
12/02/2020 01:31:51	120220	12022020	013150	190.91	13.809587	-56.900257	191.29	-0.400	-0.300	2.310	190.93	-1.70	2.80	 	 	 	 	 	 	 	 	 	 	 	 	 	 	 	 	 	 	1581471110	10.88	20.15
12/02/2020 01:31:52	120220	12022020	013151	190.95	13.809538	-56.900272	191.29	-0.390	-0.180	2.390	190.94	-1.50	2.90	 	 	 	 	 	 	 	 	 	 	 	 	 	 	 	 	 	 	1581471111	11.00	20.37
12/02/2020 01:31:53	120220	12022020	013152	190.91	13.809488	-56.900285	191.29	-0.310	-0.070	2.470	190.93	-1.40	3.00	 	 	 	 	 	 	 	 	 	 	 	 	 	 	 	 	 	 	1581471112	11.10	20.56
12/02/2020 01:31:54	120220	12022020	013153	191.14	13.809440	-56.900300	191.59	-0.290	0.240	2.370	191.22	-1.10	2.90	 	 	 	 	 	 	 	 	 	 	 	 	 	 	 	 	 	 	1581471113	10.70	19.82
12/02/2020 01:31:55	120220	12022020	013154	191.51	13.809393	-56.900313	191.92	-0.180	0.390	2.060	191.56	-0.90	2.60	 	 	 	 	 	 	 	 	 	 	 	 	 	 	 	 	 	 	1581471114	10.49	19.43
12/02/2020 01:31:56	120220	12022020	013155	191.69	13.809343	-56.900323	192.04	0.190	0.050	1.640	191.70	-1.20	2.20	 	 	 	 	 	 	 	 	 	 	 	 	 	 	 	 	 	 	1581471115	10.87	20.13
12/02/2020 01:31:57	120220	12022020	013156	191.66	13.809292	-56.900333	191.95	0.700	-0.460	1.450	191.62	-2.00	2.00	 	 	 	 	 	 	 	 	 	 	 	 	 	 	 	 	 	 	1581471116	11.14	20.63
12/02/2020 01:31:58	120220	12022020	013157	191.39	13.809242	-56.900342	191.66	0.970	-0.810	1.540	191.33	-2.10	2.00	 	 	 	 	 	 	 	 	 	 	 	 	 	 	 	 	 	 	1581471117	11.09	20.54
12/02/2020 01:31:59	120220	12022020	013158	191.09	13.809192	-56.900350	191.37	0.720	-0.820	1.750	191.04	-2.20	2.20	 	 	 	 	 	 	 	 	 	 	 	 	 	 	 	 	 	 	1581471118	10.84	20.08
12/02/2020 01:32:00	120220	12022020	013200	190.82	13.809143	-56.900363	191.11	0.060	-0.660	2.210	190.76	-2.00	2.70	 	 	 	 	 	 	 	 	 	 	 	 	 	 	 	 	 	 	1581471120	10.72	19.85
12/02/2020 01:32:01	120220	12022020	013200	190.56	13.809095	-56.900380	190.90	-0.480	-0.500	2.520	190.53	-1.80	3.00	 	 	 	 	 	 	 	 	 	 	 	 	 	 	 	 	 	 	1581471120	10.93	20.24
12/02/2020 01:32:02	120220	12022020	013201	190.44	13.809047	-56.900395	190.81	-0.630	-0.310	2.490	190.43	-1.60	3.00	1017.60	26.00	26.10	21.00	21.00	-1.0	73.0	73.0	394.0	25.6	269.00	9.90	71.00	11.50	16	7926.0	27.2	27.2	1581471121	11.02	20.41
12/02/2020 01:32:03	120220	12022020	013202	190.42	13.808997	-56.900408	190.79	-0.450	-0.200	2.280	190.42	-1.50	2.80	 	 	 	 	 	 	 	 	 	 	 	 	 	 	 	 	 	 	1581471122	11.13	20.61
12/02/2020 01:32:04	120220	12022020	013203	190.47	13.808945	-56.900420	190.86	-0.180	-0.190	2.020	190.49	-1.50	2.60	 	 	 	 	 	 	 	 	 	 	 	 	 	 	 	 	 	 	1581471123	11.26	20.85
12/02/2020 01:32:05	120220	12022020	013204	190.65	13.808895	-56.900433	191.08	-0.060	-0.240	1.930	190.70	-1.50	2.40	 	 	 	 	 	 	 	 	 	 	 	 	 	 	 	 	 	 	1581471124	11.23	20.80
12/02/2020 01:32:06	120220	12022020	013205	190.86	13.808843	-56.900447	191.25	-0.110	-0.320	2.200	190.88	-1.60	2.70	 	 	 	 	 	 	 	 	 	 	 	 	 	 	 	 	 	 	1581471125	11.23	20.80
12/02/2020 01:32:07	120220	12022020	013206	190.89	13.808795	-56.900462	191.25	-0.180	-0.300	2.550	190.89	-1.60	3.00	 	 	 	 	 	 	 	 	 	 	 	 	 	 	 	 	 	 	1581471126	11.16	20.67
12/02/2020 01:32:08	120220	12022020	013207	190.84	13.808745	-56.900477	191.19	-0.180	-0.090	2.730	190.83	-1.40	3.20	 	 	 	 	 	 	 	 	 	 	 	 	 	 	 	 	 	 	1581471127	10.90	20.19
12/02/2020 01:32:09	120220	12022020	013208	190.83	13.808697	-56.900488	191.21	-0.090	0.150	2.560	190.86	-1.10	2.80	 	 	 	 	 	 	 	 	 	 	 	 	 	 	 	 	 	 	1581471128	10.73	19.87
12/02/2020 01:32:10	120220	12022020	013209	191.03	13.808648	-56.900500	191.46	0.050	0.310	2.000	191.10	-1.00	2.60	 	 	 	 	 	 	 	 	 	 	 	 	 	 	 	 	 	 	1581471129	10.65	19.72
12/02/2020 01:32:11	120220	12022020	013210	191.41	13.808600	-56.900508	191.83	0.210	0.290	1.360	191.48	-1.20	1.60	 	 	 	 	 	 	 	 	 	 	 	 	 	 	 	 	 	 	1581471130	10.59	19.61
12/02/2020 01:32:12	120220	12022020	013211	191.71	13.808550	-56.900517	192.07	0.460	-0.120	0.880	191.74	-1.40	1.40	 	 	 	 	 	 	 	 	 	 	 	 	 	 	 	 	 	 	1581471131	10.81	20.02
12/02/2020 01:32:13	120220	12022020	013212	191.69	13.808498	-56.900527	191.96	0.730	-0.970	0.930	191.63	-2.20	1.40	 	 	 	 	 	 	 	 	 	 	 	 	 	 	 	 	 	 	1581471132	11.35	21.02
12/02/2020 01:32:14	120220	12022020	013213	191.21	13.808447	-56.900538	191.41	0.720	-1.670	1.770	191.07	-2.90	2.10	 	 	 	 	 	 	 	 	 	 	 	 	 	 	 	 	 	 	1581471133	11.60	21.48
12/02/2020 01:32:15	120220	12022020	013214	190.50	13.808397	-56.900555	190.71	0.240	-1.630	2.730	190.36	-3.00	3.10	 	 	 	 	 	 	 	 	 	 	 	 	 	 	 	 	 	 	1581471134	11.27	20.87
12/02/2020 01:32:16	120220	12022020	013215	189.87	13.808348	-56.900572	190.14	-0.500	-0.830	3.350	189.77	-2.30	3.80	 	 	 	 	 	 	 	 	 	 	 	 	 	 	 	 	 	 	1581471135	10.78	19.96
12/02/2020 01:32:17	120220	12022020	013216	189.50	13.808303	-56.900590	189.84	-0.970	0.100	3.680	189.47	-1.30	4.20	 	 	 	 	 	 	 	 	 	 	 	 	 	 	 	 	 	 	1581471136	10.66	19.74
12/02/2020 01:32:18	120220	12022020	013217	189.49	13.808253	-56.900605	189.93	-0.810	0.570	3.360	189.54	-0.80	4.00	 	 	 	 	 	 	 	 	 	 	 	 	 	 	 	 	 	 	1581471137	11.01	20.39
12/02/2020 01:32:19	120220	12022020	013218	189.89	13.808202	-56.900617	190.40	-0.330	0.560	2.640	190.00	-0.70	3.20	 	 	 	 	 	 	 	 	 	 	 	 	 	 	 	 	 	 	1581471138	11.36	21.04
12/02/2020 01:32:20	120220	12022020	013219	190.49	13.808150	-56.900627	191.00	-0.020	0.300	2.210	190.61	-1.00	2.80	 	 	 	 	 	 	 	 	 	 	 	 	 	 	 	 	 	 	1581471139	11.36	21.04
12/02/2020 01:32:21	120220	12022020	013220	191.02	13.808100	-56.900638	191.48	0.100	0.010	1.960	191.10	-1.30	2.50	 	 	 	 	 	 	 	 	 	 	 	 	 	 	 	 	 	 	1581471140	11.13	20.61
12/02/2020 01:32:22	120220	12022020	013221	191.35	13.808050	-56.900648	191.75	0.300	-0.250	1.760	191.39	-1.50	2.30	 	 	 	 	 	 	 	 	 	 	 	 	 	 	 	 	 	 	1581471141	10.94	20.26
12/02/2020 01:32:23	120220	12022020	013222	191.50	13.808000	-56.900657	191.88	0.620	-0.450	1.530	191.52	-1.70	2.10	 	 	 	 	 	 	 	 	 	 	 	 	 	 	 	 	 	 	1581471142	10.88	20.15
12/02/2020 01:32:24	120220	12022020	013223	191.66	13.807950	-56.900663	192.06	0.710	-0.440	1.290	191.70	-1.80	1.80	 	 	 	 	 	 	 	 	 	 	 	 	 	 	 	 	 	 	1581471143	10.70	19.82
12/02/2020 01:32:25	120220	12022020	013225	191.75	13.807902	-56.900672	192.07	0.370	-0.470	1.390	191.72	-1.80	1.90	 	 	 	 	 	 	 	 	 	 	 	 	 	 	 	 	 	 	1581471145	10.58	19.59
12/02/2020 01:32:26	120220	12022020	013225	191.53	13.807853	-56.900685	191.85	-0.140	-0.720	1.750	191.49	-2.00	2.20	 	 	 	 	 	 	 	 	 	 	 	 	 	 	 	 	 	 	1581471145	11.00	20.37
12/02/2020 01:32:27	120220	12022020	013226	191.47	13.807803	-56.900702	191.85	-0.540	-0.750	1.940	191.49	-2.10	2.40	 	 	 	 	 	 	 	 	 	 	 	 	 	 	 	 	 	 	1581471146	11.04	20.45
12/02/2020 01:32:28	120220	12022020	013227	191.61	13.807757	-56.900717	191.98	-0.550	-0.430	1.840	191.63	-1.80	2.40	 	 	 	 	 	 	 	 	 	 	 	 	 	 	 	 	 	 	1581471147	10.65	19.72
12/02/2020 01:32:29	120220	12022020	013228	191.57	13.807708	-56.900728	191.85	-0.140	-0.320	1.660	191.51	-1.60	2.20	 	 	 	 	 	 	 	 	 	 	 	 	 	 	 	 	 	 	1581471148	10.79	19.98
12/02/2020 01:32:30	120220	12022020	013229	191.17	13.807655	-56.900742	191.39	0.280	-0.590	1.840	191.06	-1.80	2.30	 	 	 	 	 	 	 	 	 	 	 	 	 	 	 	 	 	 	1581471149	11.46	21.22
12/02/2020 01:32:31	120220	12022020	013230	190.66	13.807603	-56.900757	190.93	0.240	-0.670	2.180	190.59	-2.00	2.70	 	 	 	 	 	 	 	 	 	 	 	 	 	 	 	 	 	 	1581471150	11.56	21.41
12/02/2020 01:32:32	120220	12022020	013231	190.41	13.807555	-56.900772	190.77	-0.220	-0.230	2.300	190.41	-1.60	2.80	 	 	 	 	 	 	 	 	 	 	 	 	 	 	 	 	 	 	1581471151	11.06	20.48
12/02/2020 01:32:33	120220	12022020	013232	190.65	13.807508	-56.900787	191.16	-0.630	0.520	1.970	190.77	-0.50	2.10	 	 	 	 	 	 	 	 	 	 	 	 	 	 	 	 	 	 	1581471152	10.53	19.50
12/02/2020 01:32:34	120220	12022020	013233	191.46	13.807462	-56.900798	192.06	-0.520	0.940	1.180	191.67	-0.40	1.80	 	 	 	 	 	 	 	 	 	 	 	 	 	 	 	 	 	 	1581471153	10.43	19.32
12/02/2020 01:32:35	120220	12022020	013234	192.51	13.807410	-56.900807	193.08	0.120	0.560	0.290	192.71	-1.20	0.60	 	 	 	 	 	 	 	 	 	 	 	 	 	 	 	 	 	 	1581471154	11.00	20.37
12/02/2020 01:32:36	120220	12022020	013235	193.33	13.807358	-56.900817	193.78	0.790	-0.420	0.140	193.42	-1.60	0.60	 	 	 	 	 	 	 	 	 	 	 	 	 	 	 	 	 	 	1581471155	11.55	21.39
12/02/2020 01:32:37	120220	12022020	013236	193.55	13.807305	-56.900828	193.87	0.880	-1.290	0.800	193.53	-2.50	1.20	 	 	 	 	 	 	 	 	 	 	 	 	 	 	 	 	 	 	1581471156	11.51	21.32
12/02/2020 01:32:38	120220	12022020	013237	193.20	13.807257	-56.900843	193.44	0.330	-1.530	1.840	193.09	-2.80	2.20	 	 	 	 	 	 	 	 	 	 	 	 	 	 	 	 	 	 	1581471157	11.02	20.41
12/02/2020 01:32:39	120220	12022020	013238	192.54	13.807210	-56.900863	192.76	-0.400	-1.140	2.900	192.39	-2.50	3.30	 	 	 	 	 	 	 	 	 	 	 	 	 	 	 	 	 	 	1581471158	10.67	19.76
12/02/2020 01:32:40	120220	12022020	013239	191.83	13.807165	-56.900883	192.06	-0.770	-0.440	3.500	191.69	-1.80	3.90	 	 	 	 	 	 	 	 	 	 	 	 	 	 	 	 	 	 	1581471159	10.56	19.56
12/02/2020 01:32:41	120220	12022020	013240	191.16	13.807118	-56.900902	191.42	-0.580	0.080	3.450	191.05	-1.30	4.00	 	 	 	 	 	 	 	 	 	 	 	 	 	 	 	 	 	 	1581471160	10.75	19.91
12/02/2020 01:32:42	120220	12022020	013241	190.78	13.807068	-56.900915	191.14	-0.130	0.290	2.840	190.76	-1.00	3.50	 	 	 	 	 	 	 	 	 	 	 	 	 	 	 	 	 	 	1581471161	11.05	20.46
12/02/2020 01:32:43	120220	12022020	013242	190.79	13.807018	-56.900927	191.21	0.190	0.320	2.230	190.83	-1.00	2.80	 	 	 	 	 	 	 	 	 	 	 	 	 	 	 	 	 	 	1581471162	11.10	20.56
12/02/2020 01:32:44	120220	12022020	013243	191.12	13.806970	-56.900938	191.59	0.240	0.320	1.800	191.21	-1.00	2.40	 	 	 	 	 	 	 	 	 	 	 	 	 	 	 	 	 	 	1581471163	10.85	20.09
12/02/2020 01:32:45	120220	12022020	013244	191.45	13.806920	-56.900950	191.85	0.170	0.050	1.860	191.48	-1.50	2.60	 	 	 	 	 	 	 	 	 	 	 	 	 	 	 	 	 	 	1581471164	10.82	20.04
12/02/2020 01:32:46	120220	12022020	013245	191.47	13.806870	-56.900965	191.80	0.310	-0.570	2.250	191.44	-1.80	2.70	 	 	 	 	 	 	 	 	 	 	 	 	 	 	 	 	 	 	1581471165	11.20	20.74
12/02/2020 01:32:47	120220	12022020	013246	191.28	13.806818	-56.900978	191.59	0.670	-1.140	2.400	191.23	-2.50	2.90	 	 	 	 	 	 	 	 	 	 	 	 	 	 	 	 	 	 	1581471166	11.39	21.09
12/02/2020 01:32:48	120220	12022020	013247	191.03	13.806768	-56.900987	191.34	0.870	-1.190	2.320	190.98	-2.50	2.90	 	 	 	 	 	 	 	 	 	 	 	 	 	 	 	 	 	 	1581471167	11.11	20.58
12/02/2020 01:32:49	120220	12022020	013248	190.89	13.806720	-56.900997	191.27	0.420	-0.710	2.380	190.89	-2.10	2.90	 	 	 	 	 	 	 	 	 	 	 	 	 	 	 	 	 	 	1581471168	10.59	19.61
12/02/2020 01:32:50	120220	12022020	013249	190.97	13.806673	-56.901012	191.39	-0.560	-0.140	2.650	191.00	-1.50	3.10	 	 	 	 	 	 	 	 	 	 	 	 	 	 	 	 	 	 	1581471169	10.41	19.28
12/02/2020 01:32:51	120220	12022020	013250	191.14	13.806628	-56.901032	191.59	-1.420	0.200	3.120	191.20	-1.10	3.60	 	 	 	 	 	 	 	 	 	 	 	 	 	 	 	 	 	 	1581471170	10.77	19.95
12/02/2020 01:32:52	120220	12022020	013251	191.40	13.806582	-56.901053	191.83	-1.490	0.360	3.310	191.45	-1.00	3.80	 	 	 	 	 	 	 	 	 	 	 	 	 	 	 	 	 	 	1581471171	10.93	20.24
12/02/2020 01:32:53	120220	12022020	013252	191.56	13.806533	-56.901070	191.93	-0.660	0.280	3.080	191.56	-1.00	3.70	 	 	 	 	 	 	 	 	 	 	 	 	 	 	 	 	 	 	1581471172	10.90	20.19
12/02/2020 01:32:54	120220	12022020	013253	191.49	13.806482	-56.901080	191.82	0.560	-0.250	2.510	191.46	-1.50	3.10	 	 	 	 	 	 	 	 	 	 	 	 	 	 	 	 	 	 	1581471173	11.35	21.02
12/02/2020 01:32:55	120220	12022020	013254	191.42	13.806428	-56.901087	191.79	1.310	-0.720	1.850	191.42	-2.00	2.50	 	 	 	 	 	 	 	 	 	 	 	 	 	 	 	 	 	 	1581471174	11.53	21.35
12/02/2020 01:32:56	120220	12022020	013255	191.53	13.806378	-56.901092	191.93	1.210	-0.640	1.360	191.56	-2.00	1.90	 	 	 	 	 	 	 	 	 	 	 	 	 	 	 	 	 	 	1581471175	10.89	20.17
12/02/2020 01:32:57	120220	12022020	013256	191.61	13.806330	-56.901100	191.93	0.630	-0.380	1.340	191.58	-1.70	1.80	 	 	 	 	 	 	 	 	 	 	 	 	 	 	 	 	 	 	1581471176	10.40	19.26
12/02/2020 01:32:58	120220	12022020	013257	191.29	13.806280	-56.901112	191.54	0.240	-0.560	1.970	191.19	-1.80	2.40	 	 	 	 	 	 	 	 	 	 	 	 	 	 	 	 	 	 	1581471177	10.96	20.30
12/02/2020 01:32:59	120220	12022020	013258	190.77	13.806230	-56.901128	191.05	0.060	-0.810	2.860	190.67	-2.10	3.80	 	 	 	 	 	 	 	 	 	 	 	 	 	 	 	 	 	 	1581471178	11.50	21.30
12/02/2020 01:33:00	120220	12022020	013259	190.35	13.806180	-56.901147	190.68	-0.260	-0.710	3.610	190.28	-2.00	4.00	 	 	 	 	 	 	 	 	 	 	 	 	 	 	 	 	 	 	1581471179	11.43	21.17
12/02/2020 01:33:01	120220	12022020	013300	190.08	13.806132	-56.901168	190.47	-0.730	-0.170	3.900	190.07	-1.10	4.30	 	 	 	 	 	 	 	 	 	 	 	 	 	 	 	 	 	 	1581471180	11.02	20.41
12/02/2020 01:33:02	120220	12022020	013301	190.20	13.806087	-56.901185	190.69	-1.030	0.560	3.470	190.29	-0.80	4.10	1017.60	26.00	26.00	20.90	21.00	-1.0	73.0	73.0	392.0	25.6	264.00	10.90	69.00	12.80	16	7908.0	27.2	27.2	1581471181	10.52	19.48
12/02/2020 01:33:03	120220	12022020	013302	190.83	13.806040	-56.901198	191.38	-0.850	0.930	2.480	190.98	-0.40	3.20	 	 	 	 	 	 	 	 	 	 	 	 	 	 	 	 	 	 	1581471182	10.34	19.15
12/02/2020 01:33:04	120220	12022020	013303	191.70	13.805990	-56.901207	192.24	-0.260	0.560	1.500	191.87	-0.70	2.20	 	 	 	 	 	 	 	 	 	 	 	 	 	 	 	 	 	 	1581471183	10.81	20.02
12/02/2020 01:33:05	120220	12022020	013304	192.45	13.805938	-56.901217	192.88	0.410	-0.390	0.830	192.54	-1.60	1.40	 	 	 	 	 	 	 	 	 	 	 	 	 	 	 	 	 	 	1581471184	11.32	20.96
12/02/2020 01:33:06	120220	12022020	013305	192.68	13.805887	-56.901227	192.97	0.820	-1.350	0.800	192.65	-2.50	1.30	 	 	 	 	 	 	 	 	 	 	 	 	 	 	 	 	 	 	1581471185	11.46	21.22
12/02/2020 01:33:07	120220	12022020	013306	192.38	13.805837	-56.901238	192.58	0.890	-1.700	1.260	192.27	-3.00	1.70	 	 	 	 	 	 	 	 	 	 	 	 	 	 	 	 	 	 	1581471186	11.13	20.61
12/02/2020 01:33:08	120220	12022020	013307	191.83	13.805788	-56.901250	192.05	0.630	-1.170	1.760	191.73	-2.60	2.20	 	 	 	 	 	 	 	 	 	 	 	 	 	 	 	 	 	 	1581471187	10.56	19.56
12/02/2020 01:33:09	120220	12022020	013308	191.47	13.805743	-56.901262	191.77	0.150	-0.190	2.040	191.43	-1.60	2.60	 	 	 	 	 	 	 	 	 	 	 	 	 	 	 	 	 	 	1581471188	10.11	18.72
12/02/2020 01:33:10	120220	12022020	013309	191.43	13.805697	-56.901275	191.79	-0.250	0.470	1.950	191.45	-0.90	2.50	 	 	 	 	 	 	 	 	 	 	 	 	 	 	 	 	 	 	1581471189	10.37	19.21
12/02/2020 01:33:11	120220	12022020	013310	191.50	13.805647	-56.901287	191.83	-0.400	0.400	1.910	191.50	-0.90	2.40	 	 	 	 	 	 	 	 	 	 	 	 	 	 	 	 	 	 	1581471190	11.08	20.52
12/02/2020 01:33:12	120220	12022020	013311	191.36	13.805593	-56.901303	191.63	-0.370	-0.180	2.360	191.30	-1.40	2.80	 	 	 	 	 	 	 	 	 	 	 	 	 	 	 	 	 	 	1581471191	11.71	21.69
12/02/2020 01:33:13	120220	12022020	013312	190.99	13.805542	-56.901322	191.26	-0.400	-0.620	3.100	190.92	-1.90	3.50	 	 	 	 	 	 	 	 	 	 	 	 	 	 	 	 	 	 	1581471192	11.75	21.76
12/02/2020 01:33:14	120220	12022020	013313	190.66	13.805493	-56.901340	190.97	-0.570	-0.540	3.580	190.62	-1.90	4.00	 	 	 	 	 	 	 	 	 	 	 	 	 	 	 	 	 	 	1581471193	11.22	20.78
12/02/2020 01:33:15	120220	12022020	013314	190.52	13.805447	-56.901358	190.86	-0.640	-0.110	3.560	190.52	-1.50	4.10	 	 	 	 	 	 	 	 	 	 	 	 	 	 	 	 	 	 	1581471194	10.64	19.71
12/02/2020 01:33:16	120220	12022020	013315	190.47	13.805400	-56.901373	190.79	-0.320	0.070	3.160	190.45	-1.20	3.70	 	 	 	 	 	 	 	 	 	 	 	 	 	 	 	 	 	 	1581471195	10.63	19.69
12/02/2020 01:33:17	120220	12022020	013316	190.37	13.805350	-56.901385	190.72	0.320	-0.070	2.480	190.37	-1.40	3.10	 	 	 	 	 	 	 	 	 	 	 	 	 	 	 	 	 	 	1581471196	11.01	20.39
12/02/2020 01:33:18	120220	12022020	013317	190.55	13.805300	-56.901392	190.99	0.740	0.030	1.640	190.64	-1.30	2.30	 	 	 	 	 	 	 	 	 	 	 	 	 	 	 	 	 	 	1581471197	10.75	19.91
12/02/2020 01:33:19	120220	12022020	013318	191.12	13.805253	-56.901398	191.60	0.690	0.280	0.830	191.26	-1.10	1.50	 	 	 	 	 	 	 	 	 	 	 	 	 	 	 	 	 	 	1581471198	10.19	18.87
12/02/2020 01:33:20	120220	12022020	013319	191.77	13.805205	-56.901405	192.20	0.450	0.050	0.430	191.88	-1.20	1.00	 	 	 	 	 	 	 	 	 	 	 	 	 	 	 	 	 	 	1581471199	10.40	19.26
12/02/2020 01:33:21	120220	12022020	013320	192.16	13.805155	-56.901415	192.49	0.430	-0.820	0.690	192.18	-2.00	1.10	 	 	 	 	 	 	 	 	 	 	 	 	 	 	 	 	 	 	1581471200	11.18	20.71
12/02/2020 01:33:22	120220	12022020	013321	192.06	13.805102	-56.901428	192.30	0.560	-1.690	1.550	191.97	-2.90	1.90	 	 	 	 	 	 	 	 	 	 	 	 	 	 	 	 	 	 	1581471201	11.63	21.54
12/02/2020 01:33:23	120220	12022020	013322	191.51	13.805050	-56.901442	191.72	0.480	-1.810	2.520	191.38	-3.10	2.90	 	 	 	 	 	 	 	 	 	 	 	 	 	 	 	 	 	 	1581471202	11.40	21.11
12/02/2020 01:33:24	120220	12022020	013323	190.84	13.805002	-56.901457	191.06	-0.040	-1.060	3.140	190.71	-2.50	3.60	 	 	 	 	 	 	 	 	 	 	 	 	 	 	 	 	 	 	1581471203	10.78	19.96
12/02/2020 01:33:25	120220	12022020	013324	190.24	13.804957	-56.901472	190.51	-0.820	0.060	3.430	190.15	-0.70	3.90	 	 	 	 	 	 	 	 	 	 	 	 	 	 	 	 	 	 	1581471204	10.44	19.33
12/02/2020 01:33:26	120220	12022020	013325	189.97	13.804910	-56.901488	190.34	-1.440	0.950	3.270	189.97	-0.40	3.80	 	 	 	 	 	 	 	 	 	 	 	 	 	 	 	 	 	 	1581471205	10.51	19.46
12/02/2020 01:33:27	120220	12022020	013326	190.10	13.804862	-56.901507	190.52	-1.530	1.180	2.710	190.15	-0.10	3.30	 	 	 	 	 	 	 	 	 	 	 	 	 	 	 	 	 	 	1581471206	10.89	20.17
12/02/2020 01:33:28	120220	12022020	013327	190.39	13.804812	-56.901522	190.82	-0.940	0.660	1.930	190.45	-0.50	2.50	 	 	 	 	 	 	 	 	 	 	 	 	 	 	 	 	 	 	1581471207	11.40	21.11
12/02/2020 01:33:29	120220	12022020	013328	190.74	13.804760	-56.901535	191.16	0.100	-0.110	1.030	190.81	-1.30	1.70	 	 	 	 	 	 	 	 	 	 	 	 	 	 	 	 	 	 	1581471208	11.50	21.30
12/02/2020 01:33:30	120220	12022020	013329	191.08	13.804708	-56.901542	191.45	1.130	-0.640	0.180	191.14	-1.90	0.80	 	 	 	 	 	 	 	 	 	 	 	 	 	 	 	 	 	 	1581471209	11.17	20.69
12/02/2020 01:33:31	120220	12022020	013330	191.32	13.804658	-56.901547	191.64	1.600	-0.840	-0.100	191.34	-2.10	0.40	 	 	 	 	 	 	 	 	 	 	 	 	 	 	 	 	 	 	1581471210	10.80	20.00
12/02/2020 01:33:32	120220	12022020	013331	191.38	13.804610	-56.901555	191.67	1.240	-0.860	0.410	191.38	-2.20	0.80	 	 	 	 	 	 	 	 	 	 	 	 	 	 	 	 	 	 	1581471211	10.55	19.54
12/02/2020 01:33:33	120220	12022020	013332	191.38	13.804563	-56.901568	191.71	0.280	-0.680	1.270	191.39	-2.00	1.70	 	 	 	 	 	 	 	 	 	 	 	 	 	 	 	 	 	 	1581471212	10.51	19.46
12/02/2020 01:33:34	120220	12022020	013333	191.47	13.804517	-56.901585	191.83	-0.720	-0.240	2.020	191.50	-1.60	2.40	 	 	 	 	 	 	 	 	 	 	 	 	 	 	 	 	 	 	1581471213	10.41	19.28
12/02/2020 01:33:35	120220	12022020	013334	191.60	13.804472	-56.901603	191.96	-1.140	0.030	2.360	191.62	-1.30	2.90	 	 	 	 	 	 	 	 	 	 	 	 	 	 	 	 	 	 	1581471214	10.56	19.56
12/02/2020 01:33:36	120220	12022020	013335	191.62	13.804423	-56.901620	191.93	-0.750	-0.190	2.210	191.60	-1.40	2.70	 	 	 	 	 	 	 	 	 	 	 	 	 	 	 	 	 	 	1581471215	11.08	20.52
12/02/2020 01:33:37	120220	12022020	013336	191.41	13.804370	-56.901632	191.65	0.130	-0.730	1.960	191.33	-2.30	2.40	 	 	 	 	 	 	 	 	 	 	 	 	 	 	 	 	 	 	1581471216	11.62	21.52
12/02/2020 01:33:38	120220	12022020	013337	190.97	13.804317	-56.901642	191.18	0.760	-1.070	1.930	190.88	-2.40	2.40	 	 	 	 	 	 	 	 	 	 	 	 	 	 	 	 	 	 	1581471217	11.72	21.71
12/02/2020 01:33:39	120220	12022020	013338	190.55	13.804265	-56.901652	190.79	0.640	-0.700	2.060	190.48	-2.10	2.50	 	 	 	 	 	 	 	 	 	 	 	 	 	 	 	 	 	 	1581471218	11.07	20.50
12/02/2020 01:33:40	120220	12022020	013339	190.13	13.804220	-56.901667	190.35	-0.020	0.140	2.560	190.04	-1.30	3.00	 	 	 	 	 	 	 	 	 	 	 	 	 	 	 	 	 	 	1581471219	10.34	19.15
12/02/2020 01:33:41	120220	12022020	013340	189.63	13.804173	-56.901682	189.89	-0.550	0.780	3.070	189.55	-0.60	3.50	 	 	 	 	 	 	 	 	 	 	 	 	 	 	 	 	 	 	1581471220	10.42	19.30
12/02/2020 01:33:42	120220	12022020	013341	189.41	13.804127	-56.901697	189.79	-0.640	1.040	3.010	189.43	-0.30	3.50	 	 	 	 	 	 	 	 	 	 	 	 	 	 	 	 	 	 	1581471221	10.59	19.61
12/02/2020 01:33:43	120220	12022020	013342	189.70	13.804078	-56.901708	190.18	-0.490	0.870	2.610	189.81	-0.40	3.20	 	 	 	 	 	 	 	 	 	 	 	 	 	 	 	 	 	 	1581471222	10.64	19.71
12/02/2020 01:33:44	120220	12022020	013343	190.37	13.804030	-56.901722	190.90	-0.260	0.180	2.130	190.53	-1.00	2.70	 	 	 	 	 	 	 	 	 	 	 	 	 	 	 	 	 	 	1581471223	10.82	20.04
12/02/2020 01:33:45	120220	12022020	013344	191.12	13.803980	-56.901737	191.61	0.040	-0.830	1.760	191.25	-2.00	2.30	 	 	 	 	 	 	 	 	 	 	 	 	 	 	 	 	 	 	1581471224	11.05	20.46
12/02/2020 01:33:46	120220	12022020	013345	191.57	13.803930	-56.901750	191.97	0.570	-1.620	1.520	191.61	-2.90	2.10	 	 	 	 	 	 	 	 	 	 	 	 	 	 	 	 	 	 	1581471225	11.06	20.48
12/02/2020 01:33:47	120220	12022020	013346	191.73	13.803882	-56.901758	192.10	1.170	-1.580	1.200	191.76	-2.90	1.80	 	 	 	 	 	 	 	 	 	 	 	 	 	 	 	 	 	 	1581471226	10.54	19.52
12/02/2020 01:33:48	120220	12022020	013347	191.84	13.803837	-56.901763	192.16	1.330	-0.930	1.070	191.84	-2.30	1.60	 	 	 	 	 	 	 	 	 	 	 	 	 	 	 	 	 	 	1581471227	10.00	18.52
12/02/2020 01:33:49	120220	12022020	013348	191.73	13.803788	-56.901770	191.99	0.860	-0.550	1.450	191.67	-1.90	2.30	 	 	 	 	 	 	 	 	 	 	 	 	 	 	 	 	 	 	1581471228	10.28	19.04
12/02/2020 01:33:50	120220	12022020	013349	191.30	13.803738	-56.901782	191.49	-0.010	-0.850	2.180	191.16	-2.10	2.60	 	 	 	 	 	 	 	 	 	 	 	 	 	 	 	 	 	 	1581471229	11.29	20.91
12/02/2020 01:33:51	120220	12022020	013350	190.55	13.803685	-56.901800	190.74	-0.830	-1.060	3.060	190.41	-2.20	4.00	 	 	 	 	 	 	 	 	 	 	 	 	 	 	 	 	 	 	1581471230	11.88	22.00
12/02/2020 01:33:52	120220	12022020	013351	189.81	13.803635	-56.901820	190.05	-1.320	-0.580	3.730	189.70	-2.00	4.20	 	 	 	 	 	 	 	 	 	 	 	 	 	 	 	 	 	 	1581471231	11.53	21.35
12/02/2020 01:33:53	120220	12022020	013352	189.36	13.803587	-56.901838	189.67	-1.390	0.270	3.850	189.32	-1.20	4.40	 	 	 	 	 	 	 	 	 	 	 	 	 	 	 	 	 	 	1581471232	11.10	20.56
12/02/2020 01:33:54	120220	12022020	013353	189.30	13.803540	-56.901855	189.69	-1.120	1.120	3.440	189.34	-0.30	4.00	 	 	 	 	 	 	 	 	 	 	 	 	 	 	 	 	 	 	1581471233	10.77	19.95
12/02/2020 01:33:55	120220	12022020	013354	189.61	13.803492	-56.901868	190.06	-0.630	1.620	2.540	189.71	0.30	3.20	 	 	 	 	 	 	 	 	 	 	 	 	 	 	 	 	 	 	1581471234	10.50	19.45
12/02/2020 01:33:56	120220	12022020	013355	190.13	13.803445	-56.901875	190.57	-0.020	1.490	1.500	190.24	0.20	2.10	 	 	 	 	 	 	 	 	 	 	 	 	 	 	 	 	 	 	1581471235	10.50	19.45
12/02/2020 01:33:57	120220	12022020	013356	190.60	13.803395	-56.901882	191.02	0.580	0.660	0.830	190.69	-0.50	1.40	 	 	 	 	 	 	 	 	 	 	 	 	 	 	 	 	 	 	1581471236	10.79	19.98
12/02/2020 01:33:58	120220	12022020	013357	190.97	13.803345	-56.901892	191.35	1.070	-0.560	0.800	191.02	-1.70	1.30	 	 	 	 	 	 	 	 	 	 	 	 	 	 	 	 	 	 	1581471237	10.98	20.33
12/02/2020 01:33:59	120220	12022020	013358	191.16	13.803295	-56.901903	191.51	1.310	-1.570	1.250	191.18	-2.80	1.70	 	 	 	 	 	 	 	 	 	 	 	 	 	 	 	 	 	 	1581471238	10.83	20.06
12/02/2020 01:34:00	120220	12022020	013359	191.14	13.803248	-56.901917	191.44	1.270	-1.950	1.970	191.09	-3.30	2.40	 	 	 	 	 	 	 	 	 	 	 	 	 	 	 	 	 	 	1581471239	10.38	19.22
12/02/2020 01:34:01	120220	12022020	013400	190.73	13.803203	-56.901930	190.94	1.000	-1.780	2.810	190.60	-3.10	3.20	 	 	 	 	 	 	 	 	 	 	 	 	 	 	 	 	 	 	1581471240	10.14	18.78
12/02/2020 01:34:02	120220	12022020	013401	190.07	13.803158	-56.901942	190.31	0.520	-1.250	3.350	189.95	-2.70	3.80	1017.70	26.00	26.10	20.70	20.80	-1.0	72.0	72.0	391.0	25.6	264.00	10.60	69.00	12.50	16	7794.0	27.2	27.2	1581471241	10.25	18.98
12/02/2020 01:34:03	120220	12022020	013402	189.70	13.803112	-56.901953	190.07	-0.200	-0.370	3.310	189.69	-1.20	3.70	 	 	 	 	 	 	 	 	 	 	 	 	 	 	 	 	 	 	1581471242	10.19	18.87
12/02/2020 01:34:04	120220	12022020	013403	189.80	13.803065	-56.901967	190.21	-0.920	0.380	3.070	189.84	-1.00	3.60	 	 	 	 	 	 	 	 	 	 	 	 	 	 	 	 	 	 	1581471243	10.23	18.95
12/02/2020 01:34:05	120220	12022020	013404	190.04	13.803017	-56.901980	190.43	-1.280	0.440	2.910	190.08	-0.80	3.40	 	 	 	 	 	 	 	 	 	 	 	 	 	 	 	 	 	 	1581471244	10.93	20.24
12/02/2020 01:34:06	120220	12022020	013405	190.24	13.802965	-56.901997	190.64	-1.140	-0.080	2.890	190.28	-1.30	3.40	 	 	 	 	 	 	 	 	 	 	 	 	 	 	 	 	 	 	1581471245	11.71	21.69
12/02/2020 01:34:07	120220	12022020	013406	190.44	13.802912	-56.902012	190.84	-0.590	-0.530	2.810	190.48	-1.80	3.30	 	 	 	 	 	 	 	 	 	 	 	 	 	 	 	 	 	 	1581471246	11.79	21.84
12/02/2020 01:34:08	120220	12022020	013407	190.64	13.802862	-56.902023	191.04	0.110	-0.430	2.340	190.69	-1.80	2.90	 	 	 	 	 	 	 	 	 	 	 	 	 	 	 	 	 	 	1581471247	11.17	20.69
12/02/2020 01:34:09	120220	12022020	013408	190.90	13.802813	-56.902028	191.31	0.570	0.140	1.530	190.96	-1.30	2.10	 	 	 	 	 	 	 	 	 	 	 	 	 	 	 	 	 	 	1581471248	10.44	19.33
12/02/2020 01:34:10	120220	12022020	013409	191.21	13.802767	-56.902033	191.60	0.450	0.610	1.260	191.26	-0.80	1.80	 	 	 	 	 	 	 	 	 	 	 	 	 	 	 	 	 	 	1581471249	10.07	18.65
12/02/2020 01:34:11	120220	12022020	013410	191.39	13.802720	-56.902045	191.73	-0.090	0.520	1.540	191.41	-0.80	2.00	 	 	 	 	 	 	 	 	 	 	 	 	 	 	 	 	 	 	1581471250	10.26	19.00
12/02/2020 01:34:12	120220	12022020	013411	191.36	13.802673	-56.902060	191.66	-0.510	0.040	2.030	191.33	-1.20	2.40	 	 	 	 	 	 	 	 	 	 	 	 	 	 	 	 	 	 	1581471251	10.65	19.72
12/02/2020 01:34:13	120220	12022020	013412	191.05	13.802625	-56.902078	191.28	-0.370	-0.560	2.630	190.95	-2.20	3.30	 	 	 	 	 	 	 	 	 	 	 	 	 	 	 	 	 	 	1581471252	10.83	20.06
12/02/2020 01:34:14	120220	12022020	013413	190.50	13.802577	-56.902093	190.75	0.250	-1.120	2.840	190.41	-2.40	3.30	 	 	 	 	 	 	 	 	 	 	 	 	 	 	 	 	 	 	1581471253	11.05	20.46
12/02/2020 01:34:15	120220	12022020	013414	190.13	13.802528	-56.902105	190.46	0.760	-1.060	2.510	190.10	-2.40	3.10	 	 	 	 	 	 	 	 	 	 	 	 	 	 	 	 	 	 	1581471254	10.69	19.80
12/02/2020 01:34:16	120220	12022020	013416	190.13	13.802483	-56.902112	190.53	0.700	-0.310	1.980	190.17	-1.80	2.50	 	 	 	 	 	 	 	 	 	 	 	 	 	 	 	 	 	 	1581471256	9.84	18.22
12/02/2020 01:34:17	120220	12022020	013416	190.33	13.802438	-56.902120	190.70	0.240	0.290	1.570	190.34	-1.10	2.10	 	 	 	 	 	 	 	 	 	 	 	 	 	 	 	 	 	 	1581471256	9.66	17.89
12/02/2020 01:34:18	120220	12022020	013417	190.28	13.802390	-56.902130	190.56	-0.120	0.020	1.680	190.23	-1.20	2.10	 	 	 	 	 	 	 	 	 	 	 	 	 	 	 	 	 	 	1581471257	10.55	19.54
12/02/2020 01:34:19	120220	12022020	013418	189.88	13.802338	-56.902145	190.14	-0.120	-0.700	2.300	189.80	-1.90	2.70	 	 	 	 	 	 	 	 	 	 	 	 	 	 	 	 	 	 	1581471258	11.45	21.21
12/02/2020 01:34:20	120220	12022020	013419	189.58	13.802288	-56.902160	189.94	0.070	-0.840	2.650	189.57	-2.20	3.10	 	 	 	 	 	 	 	 	 	 	 	 	 	 	 	 	 	 	1581471259	11.19	20.72
12/02/2020 01:34:21	120220	12022020	013420	189.78	13.802243	-56.902172	190.24	0.090	-0.190	2.500	189.88	-1.60	3.00	 	 	 	 	 	 	 	 	 	 	 	 	 	 	 	 	 	 	1581471260	10.12	18.74
12/02/2020 01:34:22	120220	12022020	013421	190.26	13.802198	-56.902182	190.70	-0.120	0.250	2.410	190.35	-1.10	2.90	 	 	 	 	 	 	 	 	 	 	 	 	 	 	 	 	 	 	1581471261	9.92	18.37
12/02/2020 01:34:23	120220	12022020	013422	190.65	13.802150	-56.902195	191.07	-0.300	-0.040	2.520	190.71	-1.30	3.00	 	 	 	 	 	 	 	 	 	 	 	 	 	 	 	 	 	 	1581471262	10.64	19.71
12/02/2020 01:34:24	120220	12022020	013423	191.00	13.802102	-56.902210	191.46	-0.250	-0.500	2.510	191.09	-1.80	3.00	 	 	 	 	 	 	 	 	 	 	 	 	 	 	 	 	 	 	1581471263	11.00	20.37
12/02/2020 01:34:25	120220	12022020	013424	191.52	13.802055	-56.902222	192.00	-0.100	-0.490	2.320	191.63	-1.70	2.70	 	 	 	 	 	 	 	 	 	 	 	 	 	 	 	 	 	 	1581471264	10.47	19.39
12/02/2020 01:34:26	120220	12022020	013425	191.96	13.802008	-56.902232	192.34	0.040	-0.390	2.080	191.99	-1.70	2.60	 	 	 	 	 	 	 	 	 	 	 	 	 	 	 	 	 	 	1581471265	10.13	18.76
12/02/2020 01:34:27	120220	12022020	013426	191.86	13.801960	-56.902242	192.07	0.170	-0.740	1.970	191.76	-2.30	2.50	 	 	 	 	 	 	 	 	 	 	 	 	 	 	 	 	 	 	1581471266	10.71	19.83
12/02/2020 01:34:28	120220	12022020	013427	191.21	13.801908	-56.902253	191.36	0.250	-1.110	2.160	191.05	-2.40	2.60	 	 	 	 	 	 	 	 	 	 	 	 	 	 	 	 	 	 	1581471267	11.23	20.80
12/02/2020 01:34:29	120220	12022020	013428	190.48	13.801858	-56.902263	190.69	0.200	-0.730	2.320	190.38	-2.10	2.80	 	 	 	 	 	 	 	 	 	 	 	 	 	 	 	 	 	 	1581471268	10.78	19.96
12/02/2020 01:34:30	120220	12022020	013429	190.13	13.801813	-56.902272	190.44	-0.060	0.100	2.250	190.11	-1.30	2.80	 	 	 	 	 	 	 	 	 	 	 	 	 	 	 	 	 	 	1581471269	10.20	18.89
12/02/2020 01:34:31	120220	12022020	013430	190.06	13.801765	-56.902283	190.39	-0.380	0.460	2.240	190.06	-0.90	2.70	 	 	 	 	 	 	 	 	 	 	 	 	 	 	 	 	 	 	1581471270	10.47	19.39
12/02/2020 01:34:32	120220	12022020	013431	189.99	13.801715	-56.902298	190.30	-0.450	0.150	2.510	189.97	-1.10	2.90	 	 	 	 	 	 	 	 	 	 	 	 	 	 	 	 	 	 	1581471271	11.25	20.84
12/02/2020 01:34:33	120220	12022020	013432	189.88	13.801665	-56.902315	190.20	-0.200	-0.200	2.740	189.86	-1.50	3.20	 	 	 	 	 	 	 	 	 	 	 	 	 	 	 	 	 	 	1581471272	11.41	21.13
12/02/2020 01:34:34	120220	12022020	013433	189.84	13.801617	-56.902330	190.21	0.090	-0.030	2.740	189.87	-1.40	3.20	 	 	 	 	 	 	 	 	 	 	 	 	 	 	 	 	 	 	1581471273	10.75	19.91
12/02/2020 01:34:35	120220	12022020	013434	190.06	13.801572	-56.902342	190.47	0.150	0.360	2.430	190.13	-1.00	3.00	 	 	 	 	 	 	 	 	 	 	 	 	 	 	 	 	 	 	1581471274	10.04	18.59
12/02/2020 01:34:36	120220	12022020	013435	190.41	13.801525	-56.902352	190.83	0.020	0.360	2.020	190.48	-0.90	2.60	 	 	 	 	 	 	 	 	 	 	 	 	 	 	 	 	 	 	1581471275	10.09	18.69
12/02/2020 01:34:37	120220	12022020	013436	190.77	13.801478	-56.902362	191.17	-0.110	-0.080	1.710	190.83	-1.30	2.20	 	 	 	 	 	 	 	 	 	 	 	 	 	 	 	 	 	 	1581471276	10.49	19.43
12/02/2020 01:34:38	120220	12022020	013437	191.04	13.801430	-56.902375	191.41	-0.090	-0.550	1.630	191.08	-1.80	2.10	 	 	 	 	 	 	 	 	 	 	 	 	 	 	 	 	 	 	1581471277	10.59	19.61
12/02/2020 01:34:39	120220	12022020	013438	191.30	13.801383	-56.902385	191.71	0.090	-0.670	1.410	191.37	-1.90	1.70	 	 	 	 	 	 	 	 	 	 	 	 	 	 	 	 	 	 	1581471278	10.31	19.09
12/02/2020 01:34:40	120220	12022020	013439	191.75	13.801337	-56.902393	192.16	0.360	-0.590	0.850	191.84	-1.90	1.40	 	 	 	 	 	 	 	 	 	 	 	 	 	 	 	 	 	 	1581471279	10.07	18.65
12/02/2020 01:34:41	120220	12022020	013440	192.10	13.801288	-56.902400	192.41	0.640	-0.900	0.470	192.12	-2.50	1.10	 	 	 	 	 	 	 	 	 	 	 	 	 	 	 	 	 	 	1581471280	10.53	19.50
12/02/2020 01:34:42	120220	12022020	013441	191.91	13.801237	-56.902408	192.06	0.810	-1.560	0.930	191.80	-2.80	1.30	 	 	 	 	 	 	 	 	 	 	 	 	 	 	 	 	 	 	1581471281	11.24	20.82
12/02/2020 01:34:43	120220	12022020	013442	191.03	13.801183	-56.902420	191.07	0.600	-1.970	2.140	190.81	-3.30	2.40	 	 	 	 	 	 	 	 	 	 	 	 	 	 	 	 	 	 	1581471282	11.61	21.50
12/02/2020 01:34:44	120220	12022020	013443	189.76	13.801133	-56.902435	189.80	-0.090	-1.540	3.560	189.50	-3.00	3.90	 	 	 	 	 	 	 	 	 	 	 	 	 	 	 	 	 	 	1581471283	11.36	21.04
12/02/2020 01:34:45	120220	12022020	013444	188.63	13.801087	-56.902455	188.80	-0.970	-0.330	4.580	188.47	-1.90	5.00	 	 	 	 	 	 	 	 	 	 	 	 	 	 	 	 	 	 	1581471284	10.99	20.35
12/02/2020 01:34:46	120220	12022020	013445	188.19	13.801042	-56.902475	188.57	-1.590	1.150	4.770	188.20	-0.40	5.30	 	 	 	 	 	 	 	 	 	 	 	 	 	 	 	 	 	 	1581471285	10.58	19.59
12/02/2020 01:34:47	120220	12022020	013446	188.58	13.800997	-56.902492	189.11	-1.680	2.180	4.140	188.75	0.80	4.80	 	 	 	 	 	 	 	 	 	 	 	 	 	 	 	 	 	 	1581471286	10.35	19.17
12/02/2020 01:34:48	120220	12022020	013447	189.54	13.800948	-56.902507	190.13	-1.150	2.120	2.930	189.77	0.90	3.60	 	 	 	 	 	 	 	 	 	 	 	 	 	 	 	 	 	 	1581471287	10.65	19.72
12/02/2020 01:34:49	120220	12022020	013448	190.63	13.800897	-56.902515	191.17	-0.130	1.040	1.530	190.82	-0.10	2.20	 	 	 	 	 	 	 	 	 	 	 	 	 	 	 	 	 	 	1581471288	11.22	20.78
12/02/2020 01:34:50	120220	12022020	013449	191.46	13.800845	-56.902522	191.90	0.980	-0.340	0.470	191.59	-1.50	1.10	 	 	 	 	 	 	 	 	 	 	 	 	 	 	 	 	 	 	1581471289	11.42	21.15
12/02/2020 01:34:51	120220	12022020	013450	192.00	13.800793	-56.902525	192.37	1.560	-1.290	0.140	192.08	-2.50	0.70	 	 	 	 	 	 	 	 	 	 	 	 	 	 	 	 	 	 	1581471290	10.88	20.15
12/02/2020 01:34:52	120220	12022020	013451	192.25	13.800748	-56.902533	192.55	1.290	-1.540	0.590	192.25	-2.90	1.00	 	 	 	 	 	 	 	 	 	 	 	 	 	 	 	 	 	 	1581471291	10.06	18.63
12/02/2020 01:34:53	120220	12022020	013452	192.14	13.800703	-56.902545	192.38	0.500	-1.340	1.440	192.08	-2.50	2.30	 	 	 	 	 	 	 	 	 	 	 	 	 	 	 	 	 	 	1581471292	9.70	17.96
12/02/2020 01:34:54	120220	12022020	013453	191.78	13.800660	-56.902560	192.02	-0.180	-1.050	2.130	191.71	-2.40	2.50	 	 	 	 	 	 	 	 	 	 	 	 	 	 	 	 	 	 	1581471293	9.97	18.46
12/02/2020 01:34:55	120220	12022020	013454	191.42	13.800613	-56.902573	191.68	-0.370	-0.780	2.420	191.36	-2.10	2.90	 	 	 	 	 	 	 	 	 	 	 	 	 	 	 	 	 	 	1581471294	10.38	19.22
12/02/2020 01:34:56	120220	12022020	013455	191.12	13.800565	-56.902587	191.42	-0.140	-0.580	2.370	191.08	-1.90	2.90	 	 	 	 	 	 	 	 	 	 	 	 	 	 	 	 	 	 	1581471295	10.77	19.95
12/02/2020 01:34:57	120220	12022020	013456	191.05	13.800515	-56.902598	191.42	0.030	-0.330	1.990	191.08	-1.70	2.50	 	 	 	 	 	 	 	 	 	 	 	 	 	 	 	 	 	 	1581471296	10.97	20.32
12/02/2020 01:34:58	120220	12022020	013457	191.35	13.800467	-56.902610	191.80	-0.190	-0.020	1.770	191.44	-1.40	2.30	 	 	 	 	 	 	 	 	 	 	 	 	 	 	 	 	 	 	1581471297	10.83	20.06
12/02/2020 01:34:59	120220	12022020	013458	191.80	13.800420	-56.902627	192.23	-0.650	0.230	2.150	191.88	-1.10	2.60	 	 	 	 	 	 	 	 	 	 	 	 	 	 	 	 	 	 	1581471298	10.70	19.82
12/02/2020 01:35:00	120220	12022020	013459	192.04	13.800373	-56.902645	192.39	-0.840	0.290	2.600	192.05	-1.00	3.00	 	 	 	 	 	 	 	 	 	 	 	 	 	 	 	 	 	 	1581471299	10.76	19.93
12/02/2020 01:35:01	120220	12022020	013500	191.94	13.800325	-56.902662	192.22	-0.430	0.080	2.670	191.89	-1.20	3.20	 	 	 	 	 	 	 	 	 	 	 	 	 	 	 	 	 	 	1581471300	10.86	20.11
12/02/2020 01:35:02	120220	12022020	013501	191.66	13.800275	-56.902672	191.89	0.310	-0.160	2.430	191.58	-1.50	3.00	1017.60	26.00	26.00	20.50	20.60	-1.0	71.0	72.0	390.0	25.6	264.00	10.70	69.00	12.50	16	7828.0	27.2	27.2	1581471301	10.85	20.09
12/02/2020 01:35:03	120220	12022020	013502	191.28	13.800227	-56.902682	191.52	0.730	-0.200	2.140	191.22	-1.50	2.70	 	 	 	 	 	 	 	 	 	 	 	 	 	 	 	 	 	 	1581471302	10.63	19.69
12/02/2020 01:35:04	120220	12022020	013503	191.08	13.800180	-56.902690	191.38	0.530	0.000	1.730	191.08	-1.40	2.30	 	 	 	 	 	 	 	 	 	 	 	 	 	 	 	 	 	 	1581471303	10.20	18.89
12/02/2020 01:35:05	120220	12022020	013504	191.11	13.800135	-56.902700	191.46	0.080	0.180	1.410	191.14	-1.20	1.80	 	 	 	 	 	 	 	 	 	 	 	 	 	 	 	 	 	 	1581471304	10.01	18.54
12/02/2020 01:35:06	120220	12022020	013505	191.28	13.800088	-56.902712	191.67	-0.090	0.060	1.260	191.33	-1.20	1.80	 	 	 	 	 	 	 	 	 	 	 	 	 	 	 	 	 	 	1581471305	10.27	19.02
12/02/2020 01:35:07	120220	12022020	013506	191.62	13.800042	-56.902725	192.04	0.060	-0.300	1.340	191.70	-1.60	1.80	 	 	 	 	 	 	 	 	 	 	 	 	 	 	 	 	 	 	1581471306	10.56	19.56
12/02/2020 01:35:08	120220	12022020	013507	192.00	13.799993	-56.902740	192.41	0.240	-0.690	1.680	192.06	-2.00	2.10	 	 	 	 	 	 	 	 	 	 	 	 	 	 	 	 	 	 	1581471307	10.64	19.71
12/02/2020 01:35:09	120220	12022020	013508	192.20	13.799947	-56.902755	192.52	0.300	-0.920	2.060	192.20	-2.20	2.50	 	 	 	 	 	 	 	 	 	 	 	 	 	 	 	 	 	 	1581471308	10.54	19.52
12/02/2020 01:35:10	120220	12022020	013509	192.04	13.799900	-56.902768	192.30	0.340	-0.950	2.370	191.98	-2.30	2.80	 	 	 	 	 	 	 	 	 	 	 	 	 	 	 	 	 	 	1581471309	10.46	19.37
12/02/2020 01:35:11	120220	12022020	013510	191.73	13.799853	-56.902780	191.99	0.310	-0.760	2.380	191.66	-2.10	2.90	 	 	 	 	 	 	 	 	 	 	 	 	 	 	 	 	 	 	1581471310	10.38	19.22
12/02/2020 01:35:12	120220	12022020	013511	191.39	13.799805	-56.902788	191.63	0.090	-0.510	2.310	191.31	-1.90	2.80	 	 	 	 	 	 	 	 	 	 	 	 	 	 	 	 	 	 	1581471311	10.39	19.24
12/02/2020 01:35:13	120220	12022020	013512	190.95	13.799757	-56.902802	191.18	-0.280	-0.460	2.430	190.85	-1.80	2.90	 	 	 	 	 	 	 	 	 	 	 	 	 	 	 	 	 	 	1581471312	10.69	19.80
12/02/2020 01:35:14	120220	12022020	013513	190.43	13.799708	-56.902817	190.67	-0.580	-0.500	2.670	190.34	-1.80	3.10	 	 	 	 	 	 	 	 	 	 	 	 	 	 	 	 	 	 	1581471313	11.05	20.46
12/02/2020 01:35:15	120220	12022020	013514	190.06	13.799660	-56.902833	190.36	-0.630	-0.220	2.780	190.03	-1.60	3.30	 	 	 	 	 	 	 	 	 	 	 	 	 	 	 	 	 	 	1581471314	10.88	20.15
12/02/2020 01:35:16	120220	12022020	013515	190.02	13.799613	-56.902847	190.37	-0.330	0.260	2.630	190.04	-1.10	3.20	 	 	 	 	 	 	 	 	 	 	 	 	 	 	 	 	 	 	1581471315	10.45	19.35
12/02/2020 01:35:17	120220	12022020	013516	190.15	13.799565	-56.902858	190.50	0.150	0.340	2.280	190.17	-1.10	2.60	 	 	 	 	 	 	 	 	 	 	 	 	 	 	 	 	 	 	1581471316	10.64	19.71
12/02/2020 01:35:18	120220	12022020	013517	190.27	13.799515	-56.902867	190.62	0.520	-0.020	2.020	190.28	-1.30	2.50	 	 	 	 	 	 	 	 	 	 	 	 	 	 	 	 	 	 	1581471317	11.14	20.63
12/02/2020 01:35:19	120220	12022020	013518	190.39	13.799463	-56.902877	190.76	0.520	-0.210	2.090	190.42	-1.40	2.70	 	 	 	 	 	 	 	 	 	 	 	 	 	 	 	 	 	 	1581471318	11.01	20.39
12/02/2020 01:35:20	120220	12022020	013519	190.69	13.799418	-56.902887	191.16	0.130	0.170	2.240	190.79	-1.20	2.70	 	 	 	 	 	 	 	 	 	 	 	 	 	 	 	 	 	 	1581471319	10.25	18.98
12/02/2020 01:35:21	120220	12022020	013520	191.41	13.799375	-56.902900	191.96	-0.410	0.710	2.280	191.60	-0.70	2.80	 	 	 	 	 	 	 	 	 	 	 	 	 	 	 	 	 	 	1581471320	9.59	17.76
12/02/2020 01:35:22	120220	12022020	013521	192.29	13.799332	-56.902913	192.79	-0.560	0.670	2.040	192.45	-0.60	2.60	 	 	 	 	 	 	 	 	 	 	 	 	 	 	 	 	 	 	1581471321	9.79	18.13
12/02/2020 01:35:23	120220	12022020	013522	192.95	13.799283	-56.902925	193.37	0.060	-0.190	1.320	193.05	-1.40	1.90	 	 	 	 	 	 	 	 	 	 	 	 	 	 	 	 	 	 	1581471322	10.58	19.59
12/02/2020 01:35:24	120220	12022020	013523	193.30	13.799232	-56.902932	193.63	0.980	-1.360	0.710	193.32	-2.50	1.30	 	 	 	 	 	 	 	 	 	 	 	 	 	 	 	 	 	 	1581471323	11.27	20.87
12/02/2020 01:35:25	120220	12022020	013524	193.26	13.799180	-56.902940	193.49	1.260	-2.060	0.900	193.19	-3.30	1.30	 	 	 	 	 	 	 	 	 	 	 	 	 	 	 	 	 	 	1581471324	11.04	20.45
12/02/2020 01:35:26	120220	12022020	013525	192.66	13.799133	-56.902953	192.75	0.620	-2.100	1.720	192.47	-3.50	2.10	 	 	 	 	 	 	 	 	 	 	 	 	 	 	 	 	 	 	1581471325	10.62	19.67
12/02/2020 01:35:27	120220	12022020	013526	191.61	13.799087	-56.902970	191.70	-0.420	-1.600	2.700	191.40	-3.00	3.10	 	 	 	 	 	 	 	 	 	 	 	 	 	 	 	 	 	 	1581471326	10.68	19.78
12/02/2020 01:35:28	120220	12022020	013527	190.71	13.799040	-56.902992	190.93	-1.180	-0.670	3.330	190.58	-2.10	3.80	 	 	 	 	 	 	 	 	 	 	 	 	 	 	 	 	 	 	1581471327	10.76	19.93
12/02/2020 01:35:29	120220	12022020	013528	190.31	13.798995	-56.903012	190.66	-1.270	0.320	3.410	190.29	-0.60	3.70	 	 	 	 	 	 	 	 	 	 	 	 	 	 	 	 	 	 	1581471328	10.79	19.98
12/02/2020 01:35:30	120220	12022020	013529	190.40	13.798947	-56.903027	190.84	-0.770	1.030	2.880	190.47	-0.40	3.50	 	 	 	 	 	 	 	 	 	 	 	 	 	 	 	 	 	 	1581471329	10.83	20.06
12/02/2020 01:35:31	120220	12022020	013530	190.98	13.798897	-56.903037	191.52	-0.140	1.340	1.870	191.14	-0.00	1.90	 	 	 	 	 	 	 	 	 	 	 	 	 	 	 	 	 	 	1581471330	10.89	20.17
12/02/2020 01:35:32	120220	12022020	013531	191.96	13.798847	-56.903045	192.52	0.210	1.200	1.020	192.16	-0.10	1.60	 	 	 	 	 	 	 	 	 	 	 	 	 	 	 	 	 	 	1581471331	10.83	20.06
12/02/2020 01:35:33	120220	12022020	013532	192.95	13.798798	-56.903053	193.43	0.240	0.590	0.670	193.09	-0.60	1.20	 	 	 	 	 	 	 	 	 	 	 	 	 	 	 	 	 	 	1581471332	10.81	20.02
12/02/2020 01:35:34	120220	12022020	013533	193.55	13.798748	-56.903063	193.93	0.280	-0.310	0.670	193.62	-1.50	1.20	 	 	 	 	 	 	 	 	 	 	 	 	 	 	 	 	 	 	1581471333	10.92	20.22
12/02/2020 01:35:35	120220	12022020	013534	193.82	13.798700	-56.903075	194.16	0.400	-0.960	0.950	193.86	-2.20	1.40	 	 	 	 	 	 	 	 	 	 	 	 	 	 	 	 	 	 	1581471334	10.69	19.80
12/02/2020 01:35:36	120220	12022020	013535	193.90	13.798653	-56.903088	194.16	0.430	-1.170	1.510	193.88	-2.50	1.90	 	 	 	 	 	 	 	 	 	 	 	 	 	 	 	 	 	 	1581471335	10.20	18.89
12/02/2020 01:35:37	120220	12022020	013536	193.63	13.798608	-56.903103	193.80	0.290	-1.220	2.250	193.52	-2.50	2.60	 	 	 	 	 	 	 	 	 	 	 	 	 	 	 	 	 	 	1581471336	10.14	18.78
12/02/2020 01:35:38	120220	12022020	013537	192.90	13.798562	-56.903120	192.96	0.100	-1.360	3.050	192.70	-2.70	3.40	 	 	 	 	 	 	 	 	 	 	 	 	 	 	 	 	 	 	1581471337	10.62	19.67
12/02/2020 01:35:39	120220	12022020	013538	191.75	13.798513	-56.903138	191.74	-0.000	-1.360	3.860	191.48	-2.70	4.20	 	 	 	 	 	 	 	 	 	 	 	 	 	 	 	 	 	 	1581471338	11.10	20.56
12/02/2020 01:35:40	120220	12022020	013539	190.62	13.798467	-56.903157	190.77	-0.150	-0.740	4.160	190.47	-2.20	4.70	 	 	 	 	 	 	 	 	 	 	 	 	 	 	 	 	 	 	1581471339	10.95	20.28
12/02/2020 01:35:41	120220	12022020	013540	190.20	13.798422	-56.903172	190.50	-0.450	0.400	3.690	190.20	-0.40	3.70	 	 	 	 	 	 	 	 	 	 	 	 	 	 	 	 	 	 	1581471340	10.18	18.85
12/02/2020 01:35:42	120220	12022020	013541	190.36	13.798377	-56.903187	190.75	-0.590	1.180	2.740	190.44	-0.20	3.40	 	 	 	 	 	 	 	 	 	 	 	 	 	 	 	 	 	 	1581471341	10.10	18.71
12/02/2020 01:35:43	120220	12022020	013542	190.90	13.798328	-56.903197	191.35	-0.200	1.150	1.520	191.05	-0.10	2.20	 	 	 	 	 	 	 	 	 	 	 	 	 	 	 	 	 	 	1581471342	10.62	19.67
12/02/2020 01:35:44	120220	12022020	013543	191.72	13.798277	-56.903202	192.18	0.590	0.620	0.280	191.89	-0.60	0.90	 	 	 	 	 	 	 	 	 	 	 	 	 	 	 	 	 	 	1581471343	11.02	20.41
12/02/2020 01:35:45	120220	12022020	013544	192.60	13.798225	-56.903205	193.03	1.050	-0.210	-0.090	192.74	-1.40	0.40	 	 	 	 	 	 	 	 	 	 	 	 	 	 	 	 	 	 	1581471344	11.05	20.46
12/02/2020 01:35:46	120220	12022020	013545	193.17	13.798177	-56.903217	193.51	0.760	-1.150	0.830	193.22	-2.40	1.10	 	 	 	 	 	 	 	 	 	 	 	 	 	 	 	 	 	 	1581471345	10.87	20.13
12/02/2020 01:35:47	120220	12022020	013546	193.16	13.798130	-56.903237	193.35	0.000	-1.860	2.430	193.07	-3.10	2.70	 	 	 	 	 	 	 	 	 	 	 	 	 	 	 	 	 	 	1581471346	10.91	20.21
12/02/2020 01:35:48	120220	12022020	013547	192.50	13.798083	-56.903260	192.60	-0.610	-2.050	3.980	192.31	-3.40	4.30	 	 	 	 	 	 	 	 	 	 	 	 	 	 	 	 	 	 	1581471347	11.01	20.39
12/02/2020 01:35:49	120220	12022020	013548	191.53	13.798038	-56.903282	191.65	-0.750	-1.490	4.880	191.34	-2.90	5.30	 	 	 	 	 	 	 	 	 	 	 	 	 	 	 	 	 	 	1581471348	10.74	19.89
12/02/2020 01:35:50	120220	12022020	013549	190.80	13.797995	-56.903298	191.05	-0.670	-0.250	4.830	190.71	-1.80	5.40	 	 	 	 	 	 	 	 	 	 	 	 	 	 	 	 	 	 	1581471349	10.07	18.65
12/02/2020 01:35:51	120220	12022020	013550	190.58	13.797950	-56.903308	190.93	-0.610	0.830	3.940	190.58	-0.60	4.60	 	 	 	 	 	 	 	 	 	 	 	 	 	 	 	 	 	 	1581471350	9.87	18.28
12/02/2020 01:35:52	120220	12022020	013551	190.63	13.797902	-56.903318	190.95	-0.460	0.930	2.850	190.64	-0.40	3.50	 	 	 	 	 	 	 	 	 	 	 	 	 	 	 	 	 	 	1581471351	10.60	19.63
12/02/2020 01:35:53	120220	12022020	013552	190.61	13.797850	-56.903330	190.93	0.020	0.350	2.110	190.60	-0.90	2.70	 	 	 	 	 	 	 	 	 	 	 	 	 	 	 	 	 	 	1581471352	11.39	21.09
12/02/2020 01:35:54	120220	12022020	013553	190.66	13.797798	-56.903338	191.04	0.690	0.090	1.590	190.71	-1.20	2.20	 	 	 	 	 	 	 	 	 	 	 	 	 	 	 	 	 	 	1581471353	11.10	20.56
12/02/2020 01:35:55	120220	12022020	013554	191.00	13.797752	-56.903343	191.43	1.010	0.230	1.200	191.10	-1.10	1.70	 	 	 	 	 	 	 	 	 	 	 	 	 	 	 	 	 	 	1581471354	10.25	18.98
12/02/2020 01:35:56	120220	12022020	013555	191.43	13.797705	-56.903352	191.80	0.800	0.180	1.240	191.48	-1.10	1.70	 	 	 	 	 	 	 	 	 	 	 	 	 	 	 	 	 	 	1581471355	9.99	18.50
12/02/2020 01:35:57	120220	12022020	013556	191.62	13.797660	-56.903365	191.95	0.320	-0.320	1.740	191.64	-1.60	2.20	 	 	 	 	 	 	 	 	 	 	 	 	 	 	 	 	 	 	1581471356	10.31	19.09
12/02/2020 01:35:58	120220	12022020	013557	191.61	13.797612	-56.903380	191.91	-0.060	-0.920	2.310	191.59	-2.20	2.70	 	 	 	 	 	 	 	 	 	 	 	 	 	 	 	 	 	 	1581471357	10.61	19.65
12/02/2020 01:35:59	120220	12022020	013558	191.37	13.797565	-56.903397	191.62	-0.130	-1.260	2.770	191.31	-2.60	3.20	 	 	 	 	 	 	 	 	 	 	 	 	 	 	 	 	 	 	1581471358	10.64	19.71
12/02/2020 01:36:00	120220	12022020	013559	191.10	13.797518	-56.903410	191.40	-0.100	-1.140	2.760	191.08	-2.50	3.30	 	 	 	 	 	 	 	 	 	 	 	 	 	 	 	 	 	 	1581471359	10.39	19.24
12/02/2020 01:36:01	120220	12022020	013600	191.08	13.797473	-56.903422	191.41	-0.210	-0.690	2.500	191.09	-2.10	3.00	 	 	 	 	 	 	 	 	 	 	 	 	 	 	 	 	 	 	1581471360	10.09	18.69
12/02/2020 01:36:02	120220	12022020	013601	191.17	13.797428	-56.903435	191.48	-0.430	-0.320	2.310	191.19	-1.70	2.80	1017.60	26.00	26.10	20.70	20.80	-1.0	72.0	72.0	390.0	25.6	264.00	9.90	68.00	11.80	16	8252.0	27.2	27.2	1581471361	10.20	18.89
12/02/2020 01:36:03	120220	12022020	013602	191.15	13.797380	-56.903448	191.43	-0.460	-0.240	2.270	191.12	-1.60	2.80	 	 	 	 	 	 	 	 	 	 	 	 	 	 	 	 	 	 	1581471362	10.62	19.67
12/02/2020 01:36:04	120220	12022020	013603	190.98	13.797332	-56.903462	191.27	-0.150	-0.300	2.260	190.94	-1.60	2.80	 	 	 	 	 	 	 	 	 	 	 	 	 	 	 	 	 	 	1581471363	10.98	20.33
12/02/2020 01:36:05	120220	12022020	013604	190.89	13.797282	-56.903473	191.23	0.230	-0.110	2.090	190.89	-1.50	2.60	 	 	 	 	 	 	 	 	 	 	 	 	 	 	 	 	 	 	1581471364	10.79	19.98
12/02/2020 01:36:06	120220	12022020	013605	190.89	13.797233	-56.903480	191.23	0.430	0.150	1.610	190.89	-1.20	2.20	 	 	 	 	 	 	 	 	 	 	 	 	 	 	 	 	 	 	1581471365	10.52	19.48
12/02/2020 01:36:07	120220	12022020	013606	190.88	13.797183	-56.903487	191.24	0.370	0.130	1.130	190.90	-1.20	1.50	 	 	 	 	 	 	 	 	 	 	 	 	 	 	 	 	 	 	1581471366	10.75	19.91
12/02/2020 01:36:08	120220	12022020	013607	191.17	13.797135	-56.903495	191.61	0.070	0.070	0.900	191.27	-1.30	1.40	 	 	 	 	 	 	 	 	 	 	 	 	 	 	 	 	 	 	1581471367	10.69	19.80
12/02/2020 01:36:09	120220	12022020	013608	191.65	13.797088	-56.903508	192.03	-0.300	-0.090	1.300	191.70	-1.40	1.70	 	 	 	 	 	 	 	 	 	 	 	 	 	 	 	 	 	 	1581471368	10.51	19.46
12/02/2020 01:36:10	120220	12022020	013609	191.70	13.797040	-56.903527	191.95	-0.460	-0.630	2.180	191.64	-1.90	2.60	 	 	 	 	 	 	 	 	 	 	 	 	 	 	 	 	 	 	1581471369	10.93	20.24
12/02/2020 01:36:11	120220	12022020	013610	191.23	13.796990	-56.903545	191.41	-0.270	-1.200	3.020	191.10	-2.50	3.40	 	 	 	 	 	 	 	 	 	 	 	 	 	 	 	 	 	 	1581471370	11.36	21.04
12/02/2020 01:36:12	120220	12022020	013611	190.60	13.796942	-56.903562	190.79	-0.010	-1.130	3.500	190.49	-2.50	4.00	 	 	 	 	 	 	 	 	 	 	 	 	 	 	 	 	 	 	1581471371	11.00	20.37
12/02/2020 01:36:13	120220	12022020	013612	190.15	13.796895	-56.903575	190.40	-0.020	-0.390	3.490	190.10	-1.90	4.00	 	 	 	 	 	 	 	 	 	 	 	 	 	 	 	 	 	 	1581471372	10.27	19.02
12/02/2020 01:36:14	120220	12022020	013613	189.99	13.796852	-56.903587	190.29	-0.330	0.420	3.150	189.98	-1.00	3.70	 	 	 	 	 	 	 	 	 	 	 	 	 	 	 	 	 	 	1581471373	9.92	18.37
12/02/2020 01:36:15	120220	12022020	013614	189.97	13.796805	-56.903598	190.27	-0.530	0.760	2.730	189.97	-0.60	3.30	 	 	 	 	 	 	 	 	 	 	 	 	 	 	 	 	 	 	1581471374	10.17	18.83
12/02/2020 01:36:16	120220	12022020	013615	189.99	13.796757	-56.903610	190.32	-0.210	0.520	2.170	190.02	-0.80	2.80	 	 	 	 	 	 	 	 	 	 	 	 	 	 	 	 	 	 	1581471375	10.70	19.82
12/02/2020 01:36:17	120220	12022020	013616	190.17	13.796707	-56.903617	190.54	0.420	0.040	1.600	190.24	-1.20	2.20	 	 	 	 	 	 	 	 	 	 	 	 	 	 	 	 	 	 	1581471376	10.93	20.24
12/02/2020 01:36:18	120220	12022020	013617	190.55	13.796657	-56.903625	190.96	0.860	-0.350	1.290	190.64	-1.70	1.80	 	 	 	 	 	 	 	 	 	 	 	 	 	 	 	 	 	 	1581471377	10.74	19.89
12/02/2020 01:36:19	120220	12022020	013618	191.01	13.796610	-56.903633	191.40	0.840	-0.530	1.270	191.09	-2.00	1.90	 	 	 	 	 	 	 	 	 	 	 	 	 	 	 	 	 	 	1581471378	10.34	19.15
12/02/2020 01:36:20	120220	12022020	013619	191.29	13.796563	-56.903645	191.61	0.530	-0.730	1.570	191.31	-2.00	2.00	 	 	 	 	 	 	 	 	 	 	 	 	 	 	 	 	 	 	1581471379	10.28	19.04
12/02/2020 01:36:21	120220	12022020	013620	191.28	13.796515	-56.903658	191.56	0.310	-0.970	1.920	191.26	-2.40	2.50	 	 	 	 	 	 	 	 	 	 	 	 	 	 	 	 	 	 	1581471380	10.56	19.56
12/02/2020 01:36:22	120220	12022020	013621	191.12	13.796467	-56.903668	191.40	0.230	-1.040	2.080	191.09	-2.40	2.60	 	 	 	 	 	 	 	 	 	 	 	 	 	 	 	 	 	 	1581471381	10.65	19.72
12/02/2020 01:36:23	120220	12022020	013622	191.00	13.796418	-56.903677	191.30	0.010	-0.940	2.140	190.99	-2.30	2.60	 	 	 	 	 	 	 	 	 	 	 	 	 	 	 	 	 	 	1581471382	10.70	19.82
12/02/2020 01:36:24	120220	12022020	013623	190.87	13.796370	-56.903688	191.14	-0.510	-0.790	2.460	190.82	-2.20	2.90	 	 	 	 	 	 	 	 	 	 	 	 	 	 	 	 	 	 	1581471383	10.76	19.93
12/02/2020 01:36:25	120220	12022020	013624	190.55	13.796322	-56.903707	190.75	-1.060	-0.670	2.990	190.45	-2.00	3.40	 	 	 	 	 	 	 	 	 	 	 	 	 	 	 	 	 	 	1581471384	11.07	20.50
12/02/2020 01:36:26	120220	12022020	013625	190.02	13.796272	-56.903725	190.19	-1.190	-0.520	3.400	189.90	-1.90	3.90	 	 	 	 	 	 	 	 	 	 	 	 	 	 	 	 	 	 	1581471385	11.32	20.96
12/02/2020 01:36:27	120220	12022020	013626	189.54	13.796222	-56.903740	189.81	-0.790	-0.160	3.430	189.49	-1.60	4.00	 	 	 	 	 	 	 	 	 	 	 	 	 	 	 	 	 	 	1581471386	11.23	20.80
12/02/2020 01:36:28	120220	12022020	013627	189.41	13.796172	-56.903752	189.73	-0.230	0.360	3.000	189.42	-1.10	3.60	 	 	 	 	 	 	 	 	 	 	 	 	 	 	 	 	 	 	1581471387	10.87	20.13
12/02/2020 01:36:29	120220	12022020	013628	189.52	13.796123	-56.903760	189.85	0.080	0.780	2.420	189.55	-0.60	3.00	 	 	 	 	 	 	 	 	 	 	 	 	 	 	 	 	 	 	1581471388	10.66	19.74
12/02/2020 01:36:30	120220	12022020	013629	189.70	13.796075	-56.903768	190.05	0.110	0.860	1.910	189.76	-0.50	2.50	 	 	 	 	 	 	 	 	 	 	 	 	 	 	 	 	 	 	1581471389	10.68	19.78
12/02/2020 01:36:31	120220	12022020	013630	190.09	13.796027	-56.903777	190.49	0.090	0.790	1.380	190.20	-0.50	2.00	 	 	 	 	 	 	 	 	 	 	 	 	 	 	 	 	 	 	1581471390	10.53	19.50
12/02/2020 01:36:32	120220	12022020	013631	190.67	13.795978	-56.903785	191.08	0.250	0.520	0.910	190.79	-0.80	1.50	 	 	 	 	 	 	 	 	 	 	 	 	 	 	 	 	 	 	1581471391	10.34	19.15
12/02/2020 01:36:33	120220	12022020	013632	191.30	13.795930	-56.903793	191.72	0.610	-0.110	0.640	191.42	-1.40	1.20	 	 	 	 	 	 	 	 	 	 	 	 	 	 	 	 	 	 	1581471392	10.50	19.45
12/02/2020 01:36:34	120220	12022020	013633	191.81	13.795882	-56.903803	192.16	0.980	-0.900	0.780	191.86	-2.20	1.30	 	 	 	 	 	 	 	 	 	 	 	 	 	 	 	 	 	 	1581471393	10.63	19.69
12/02/2020 01:36:35	120220	12022020	013634	191.87	13.795833	-56.903813	192.12	1.100	-1.590	1.320	191.83	-2.90	1.80	 	 	 	 	 	 	 	 	 	 	 	 	 	 	 	 	 	 	1581471394	10.75	19.91
12/02/2020 01:36:36	120220	12022020	013635	191.51	13.795785	-56.903825	191.70	0.740	-1.900	2.130	191.41	-3.20	2.50	 	 	 	 	 	 	 	 	 	 	 	 	 	 	 	 	 	 	1581471395	10.75	19.91
12/02/2020 01:36:37	120220	12022020	013636	190.94	13.795737	-56.903842	191.12	-0.010	-1.670	2.960	190.83	-3.10	3.40	 	 	 	 	 	 	 	 	 	 	 	 	 	 	 	 	 	 	1581471396	10.71	19.83
12/02/2020 01:36:38	120220	12022020	013637	190.49	13.795692	-56.903858	190.73	-0.760	-0.860	3.280	190.43	-2.40	3.80	 	 	 	 	 	 	 	 	 	 	 	 	 	 	 	 	 	 	1581471397	10.45	19.35
12/02/2020 01:36:39	120220	12022020	013638	190.30	13.795645	-56.903872	190.58	-1.140	-0.070	3.070	190.28	-1.50	3.60	 	 	 	 	 	 	 	 	 	 	 	 	 	 	 	 	 	 	1581471398	10.44	19.33
12/02/2020 01:36:40	120220	12022020	013639	190.21	13.795595	-56.903887	190.50	-1.030	0.200	2.690	190.20	-1.20	3.30	 	 	 	 	 	 	 	 	 	 	 	 	 	 	 	 	 	 	1581471399	11.02	20.41
12/02/2020 01:36:41	120220	12022020	013640	190.13	13.795543	-56.903898	190.40	-0.590	0.170	2.120	190.11	-1.20	2.70	 	 	 	 	 	 	 	 	 	 	 	 	 	 	 	 	 	 	1581471400	11.39	21.09
12/02/2020 01:36:42	120220	12022020	013641	190.04	13.795493	-56.903908	190.33	-0.090	0.210	1.520	190.05	-1.20	2.10	 	 	 	 	 	 	 	 	 	 	 	 	 	 	 	 	 	 	1581471401	11.26	20.85
12/02/2020 01:36:43	120220	12022020	013642	190.19	13.795442	-56.903915	190.56	0.230	0.310	1.110	190.26	-1.10	1.60	 	 	 	 	 	 	 	 	 	 	 	 	 	 	 	 	 	 	1581471402	10.96	20.30
12/02/2020 01:36:44	120220	12022020	013643	190.60	13.795392	-56.903923	190.99	0.300	0.220	1.140	190.69	-1.10	1.60	 	 	 	 	 	 	 	 	 	 	 	 	 	 	 	 	 	 	1581471403	10.87	20.13
12/02/2020 01:36:45	120220	12022020	013644	190.98	13.795343	-56.903935	191.34	0.260	-0.040	1.530	191.04	-1.40	2.00	 	 	 	 	 	 	 	 	 	 	 	 	 	 	 	 	 	 	1581471404	10.88	20.15
12/02/2020 01:36:46	120220	12022020	013645	191.17	13.795295	-56.903948	191.49	0.250	-0.220	1.990	191.18	-1.60	2.50	 	 	 	 	 	 	 	 	 	 	 	 	 	 	 	 	 	 	1581471405	10.76	19.93
12/02/2020 01:36:47	120220	12022020	013646	191.14	13.795247	-56.903960	191.42	0.270	-0.310	2.310	191.11	-1.70	2.80	 	 	 	 	 	 	 	 	 	 	 	 	 	 	 	 	 	 	1581471406	10.59	19.61
12/02/2020 01:36:48	120220	12022020	013647	190.99	13.795198	-56.903972	191.25	0.140	-0.540	2.590	190.95	-1.90	3.10	 	 	 	 	 	 	 	 	 	 	 	 	 	 	 	 	 	 	1581471407	10.74	19.89
12/02/2020 01:36:49	120220	12022020	013648	190.75	13.795148	-56.903985	190.97	-0.180	-0.800	2.810	190.68	-2.10	3.30	 	 	 	 	 	 	 	 	 	 	 	 	 	 	 	 	 	 	1581471408	10.95	20.28
12/02/2020 01:36:50	120220	12022020	013649	190.41	13.795102	-56.904000	190.61	-0.480	-0.740	2.920	190.33	-2.10	3.40	 	 	 	 	 	 	 	 	 	 	 	 	 	 	 	 	 	 	1581471409	10.82	20.04
12/02/2020 01:36:51	120220	12022020	013650	190.08	13.795053	-56.904013	190.30	-0.470	-0.350	2.770	190.02	-1.80	3.30	 	 	 	 	 	 	 	 	 	 	 	 	 	 	 	 	 	 	1581471410	10.50	19.45
12/02/2020 01:36:52	120220	12022020	013651	189.94	13.795007	-56.904025	190.25	-0.120	-0.000	2.240	189.97	-1.40	2.90	 	 	 	 	 	 	 	 	 	 	 	 	 	 	 	 	 	 	1581471411	10.48	19.41
12/02/2020 01:36:53	120220	12022020	013652	190.19	13.794958	-56.904033	190.56	0.310	0.170	1.440	190.27	-1.20	2.10	 	 	 	 	 	 	 	 	 	 	 	 	 	 	 	 	 	 	1581471412	10.58	19.59
12/02/2020 01:36:54	120220	12022020	013653	190.70	13.794908	-56.904038	191.08	0.610	0.100	0.620	190.82	-1.20	1.20	 	 	 	 	 	 	 	 	 	 	 	 	 	 	 	 	 	 	1581471413	10.68	19.78
12/02/2020 01:36:55	120220	12022020	013654	191.15	13.794858	-56.904045	191.46	0.730	-0.390	0.430	191.20	-2.10	1.20	 	 	 	 	 	 	 	 	 	 	 	 	 	 	 	 	 	 	1581471414	10.98	20.33
12/02/2020 01:36:56	120220	12022020	013655	191.28	13.794807	-56.904055	191.54	0.630	-1.070	1.060	191.28	-2.40	1.50	 	 	 	 	 	 	 	 	 	 	 	 	 	 	 	 	 	 	1581471415	11.35	21.02
12/02/2020 01:36:57	120220	12022020	013656	191.32	13.794755	-56.904068	191.63	0.160	-1.280	1.940	191.34	-2.50	2.90	 	 	 	 	 	 	 	 	 	 	 	 	 	 	 	 	 	 	1581471416	11.16	20.67
12/02/2020 01:36:58	120220	12022020	013657	191.39	13.794710	-56.904085	191.70	-0.520	-0.860	2.780	191.39	-2.30	3.20	 	 	 	 	 	 	 	 	 	 	 	 	 	 	 	 	 	 	1581471417	10.63	19.69
12/02/2020 01:36:59	120220	12022020	013658	191.25	13.794663	-56.904103	191.47	-0.820	-0.450	3.210	191.17	-1.80	3.70	 	 	 	 	 	 	 	 	 	 	 	 	 	 	 	 	 	 	1581471418	10.67	19.76
12/02/2020 01:37:00	120220	12022020	013659	190.77	13.794612	-56.904117	190.98	-0.450	-0.440	3.030	190.68	-1.80	3.60	 	 	 	 	 	 	 	 	 	 	 	 	 	 	 	 	 	 	1581471419	11.37	21.06
12/02/2020 01:37:01	120220	12022020	013700	190.52	13.794560	-56.904127	190.86	-0.020	-0.040	2.390	190.55	-1.50	3.00	 	 	 	 	 	 	 	 	 	 	 	 	 	 	 	 	 	 	1581471420	11.27	20.87
12/02/2020 01:37:02	120220	12022020	013701	190.92	13.794512	-56.904133	191.37	-0.120	0.810	1.520	191.05	-0.70	2.20	1017.70	26.00	26.10	20.50	20.60	-1.0	71.0	71.0	390.0	25.6	265.00	10.40	69.00	12.30	16	8548.0	27.2	27.2	1581471421	10.32	19.11
12/02/2020 01:37:03	120220	12022020	013702	191.64	13.794467	-56.904143	192.06	-0.580	1.190	0.920	191.76	-0.20	1.50	 	 	 	 	 	 	 	 	 	 	 	 	 	 	 	 	 	 	1581471422	10.09	18.69
12/02/2020 01:37:04	120220	12022020	013703	192.05	13.794418	-56.904158	192.35	-0.680	0.530	1.090	192.07	-0.70	1.60	 	 	 	 	 	 	 	 	 	 	 	 	 	 	 	 	 	 	1581471423	10.96	20.30
12/02/2020 01:37:05	120220	12022020	013704	192.01	13.794367	-56.904175	192.27	-0.030	-0.550	1.450	191.98	-1.80	1.90	 	 	 	 	 	 	 	 	 	 	 	 	 	 	 	 	 	 	1581471424	11.64	21.56
12/02/2020 01:37:06	120220	12022020	013705	191.83	13.794315	-56.904188	192.06	0.870	-1.110	1.530	191.79	-2.50	2.10	 	 	 	 	 	 	 	 	 	 	 	 	 	 	 	 	 	 	1581471425	11.26	20.85
12/02/2020 01:37:07	120220	12022020	013706	191.57	13.794267	-56.904197	191.77	1.320	-0.990	1.670	191.51	-2.40	2.20	 	 	 	 	 	 	 	 	 	 	 	 	 	 	 	 	 	 	1581471426	10.54	19.52
12/02/2020 01:37:08	120220	12022020	013707	191.33	13.794220	-56.904207	191.60	1.030	-0.580	1.790	191.32	-2.00	2.30	 	 	 	 	 	 	 	 	 	 	 	 	 	 	 	 	 	 	1581471427	10.28	19.04
12/02/2020 01:37:09	120220	12022020	013708	191.37	13.794173	-56.904217	191.68	0.210	-0.210	1.850	191.40	-1.50	2.50	 	 	 	 	 	 	 	 	 	 	 	 	 	 	 	 	 	 	1581471428	10.28	19.04
12/02/2020 01:37:10	120220	12022020	013709	191.56	13.794127	-56.904232	191.89	-0.550	-0.060	2.070	191.61	-1.40	2.60	 	 	 	 	 	 	 	 	 	 	 	 	 	 	 	 	 	 	1581471429	10.51	19.46
12/02/2020 01:37:11	120220	12022020	013710	191.81	13.794078	-56.904248	192.15	-0.770	-0.240	2.130	191.86	-1.80	2.60	 	 	 	 	 	 	 	 	 	 	 	 	 	 	 	 	 	 	1581471430	10.92	20.22
12/02/2020 01:37:12	120220	12022020	013711	192.00	13.794028	-56.904262	192.30	-0.440	-0.690	1.940	192.01	-2.00	2.50	 	 	 	 	 	 	 	 	 	 	 	 	 	 	 	 	 	 	1581471431	11.30	20.93
12/02/2020 01:37:13	120220	12022020	013712	191.96	13.793977	-56.904277	192.21	0.070	-1.090	1.900	191.93	-2.40	2.40	 	 	 	 	 	 	 	 	 	 	 	 	 	 	 	 	 	 	1581471432	11.50	21.30
12/02/2020 01:37:14	120220	12022020	013713	191.78	13.793927	-56.904288	192.04	0.310	-0.870	1.840	191.76	-2.30	2.40	 	 	 	 	 	 	 	 	 	 	 	 	 	 	 	 	 	 	1581471433	11.09	20.54
12/02/2020 01:37:15	120220	12022020	013714	191.66	13.793878	-56.904297	191.90	0.080	-0.060	1.680	191.64	-1.60	2.20	 	 	 	 	 	 	 	 	 	 	 	 	 	 	 	 	 	 	1581471434	10.32	19.11
12/02/2020 01:37:16	120220	12022020	013715	191.48	13.793832	-56.904308	191.71	-0.330	0.590	1.720	191.44	-0.80	2.20	 	 	 	 	 	 	 	 	 	 	 	 	 	 	 	 	 	 	1581471435	10.25	18.98
12/02/2020 01:37:17	120220	12022020	013716	191.37	13.793783	-56.904322	191.65	-0.520	0.590	1.880	191.37	-0.70	2.40	 	 	 	 	 	 	 	 	 	 	 	 	 	 	 	 	 	 	1581471436	10.83	20.06
12/02/2020 01:37:18	120220	12022020	013717	191.34	13.793733	-56.904335	191.61	-0.210	0.020	2.080	191.32	-1.20	2.60	 	 	 	 	 	 	 	 	 	 	 	 	 	 	 	 	 	 	1581471437	11.42	21.15
12/02/2020 01:37:19	120220	12022020	013718	191.15	13.793680	-56.904350	191.39	0.420	-0.720	2.340	191.09	-2.00	2.80	 	 	 	 	 	 	 	 	 	 	 	 	 	 	 	 	 	 	1581471438	11.78	21.82
12/02/2020 01:37:20	120220	12022020	013719	190.97	13.793628	-56.904362	191.29	0.780	-0.840	2.400	190.97	-2.20	2.90	 	 	 	 	 	 	 	 	 	 	 	 	 	 	 	 	 	 	1581471439	11.32	20.96
12/02/2020 01:37:21	120220	12022020	013720	191.07	13.793582	-56.904372	191.42	0.450	-0.210	2.340	191.10	-1.70	2.90	 	 	 	 	 	 	 	 	 	 	 	 	 	 	 	 	 	 	1581471440	10.25	18.98
12/02/2020 01:37:22	120220	12022020	013721	191.18	13.793537	-56.904383	191.49	-0.240	0.240	2.320	191.19	-1.20	2.80	 	 	 	 	 	 	 	 	 	 	 	 	 	 	 	 	 	 	1581471441	10.07	18.65
12/02/2020 01:37:23	120220	12022020	013722	191.30	13.793488	-56.904397	191.68	-0.680	0.110	2.220	191.37	-1.20	2.80	 	 	 	 	 	 	 	 	 	 	 	 	 	 	 	 	 	 	1581471442	10.71	19.83
12/02/2020 01:37:24	120220	12022020	013723	191.69	13.793438	-56.904412	192.09	-0.570	-0.200	2.010	191.76	-1.50	2.60	 	 	 	 	 	 	 	 	 	 	 	 	 	 	 	 	 	 	1581471443	10.96	20.30
12/02/2020 01:37:25	120220	12022020	013724	191.98	13.793390	-56.904423	192.29	-0.010	-0.550	1.810	191.99	-1.90	2.40	 	 	 	 	 	 	 	 	 	 	 	 	 	 	 	 	 	 	1581471444	10.99	20.35
12/02/2020 01:37:26	120220	12022020	013725	191.97	13.793338	-56.904433	192.28	0.560	-0.820	1.700	191.98	-2.20	2.20	 	 	 	 	 	 	 	 	 	 	 	 	 	 	 	 	 	 	1581471445	11.19	20.72
12/02/2020 01:37:27	120220	12022020	013726	192.17	13.793290	-56.904443	192.57	0.570	-0.500	1.670	192.26	-1.90	2.20	 	 	 	 	 	 	 	 	 	 	 	 	 	 	 	 	 	 	1581471446	10.66	19.74
12/02/2020 01:37:28	120220	12022020	013727	192.77	13.793245	-56.904453	193.21	0.060	0.230	1.650	192.91	-1.20	2.20	 	 	 	 	 	 	 	 	 	 	 	 	 	 	 	 	 	 	1581471447	9.88	18.30
12/02/2020 01:37:29	120220	12022020	013728	193.38	13.793200	-56.904467	193.73	-0.330	0.360	1.680	193.45	-1.00	2.20	 	 	 	 	 	 	 	 	 	 	 	 	 	 	 	 	 	 	1581471448	10.09	18.69
12/02/2020 01:37:30	120220	12022020	013729	193.51	13.793150	-56.904482	193.73	-0.070	-0.530	1.940	193.47	-1.70	2.40	 	 	 	 	 	 	 	 	 	 	 	 	 	 	 	 	 	 	1581471449	11.31	20.95
12/02/2020 01:37:31	120220	12022020	013730	193.03	13.793095	-56.904498	193.15	0.610	-1.700	2.420	192.88	-2.90	2.90	 	 	 	 	 	 	 	 	 	 	 	 	 	 	 	 	 	 	1581471450	12.20	22.59
12/02/2020 01:37:32	120220	12022020	013731	192.28	13.793042	-56.904512	192.44	0.910	-1.810	2.600	192.16	-3.20	3.10	 	 	 	 	 	 	 	 	 	 	 	 	 	 	 	 	 	 	1581471451	11.77	21.80
12/02/2020 01:37:33	120220	12022020	013732	191.92	13.792995	-56.904522	192.20	0.340	-0.610	2.340	191.90	-1.20	2.70	 	 	 	 	 	 	 	 	 	 	 	 	 	 	 	 	 	 	1581471452	10.38	19.22
12/02/2020 01:37:34	120220	12022020	013733	192.04	13.792950	-56.904533	192.40	-0.710	0.760	1.910	192.10	-0.80	2.50	 	 	 	 	 	 	 	 	 	 	 	 	 	 	 	 	 	 	1581471453	9.78	18.11
12/02/2020 01:37:35	120220	12022020	013734	192.36	13.792903	-56.904548	192.70	-1.360	1.210	1.650	192.41	-0.40	2.10	 	 	 	 	 	 	 	 	 	 	 	 	 	 	 	 	 	 	1581471454	10.46	19.37
12/02/2020 01:37:36	120220	12022020	013735	192.58	13.792852	-56.904563	192.89	-1.090	0.620	1.570	192.61	-0.60	2.10	 	 	 	 	 	 	 	 	 	 	 	 	 	 	 	 	 	 	1581471455	11.60	21.48
12/02/2020 01:37:37	120220	12022020	013736	192.80	13.792798	-56.904580	193.15	-0.300	-0.190	1.510	192.86	-1.50	2.00	 	 	 	 	 	 	 	 	 	 	 	 	 	 	 	 	 	 	1581471456	11.93	22.09
12/02/2020 01:37:38	120220	12022020	013737	193.10	13.792748	-56.904593	193.44	0.270	-0.410	1.500	193.16	-1.80	2.00	 	 	 	 	 	 	 	 	 	 	 	 	 	 	 	 	 	 	1581471457	11.21	20.76
12/02/2020 01:37:39	120220	12022020	013738	193.41	13.792702	-56.904607	193.74	0.360	-0.160	1.450	193.47	-1.60	2.00	 	 	 	 	 	 	 	 	 	 	 	 	 	 	 	 	 	 	1581471458	10.34	19.15
12/02/2020 01:37:40	120220	12022020	013739	193.61	13.792657	-56.904618	193.89	0.340	0.010	1.280	193.64	-1.40	1.90	 	 	 	 	 	 	 	 	 	 	 	 	 	 	 	 	 	 	1581471459	10.13	18.76
12/02/2020 01:37:41	120220	12022020	013740	193.63	13.792608	-56.904628	193.84	0.580	-0.220	1.040	193.60	-1.50	1.60	 	 	 	 	 	 	 	 	 	 	 	 	 	 	 	 	 	 	1581471460	10.54	19.52
12/02/2020 01:37:42	120220	12022020	013741	193.37	13.792558	-56.904638	193.51	0.920	-0.740	1.050	193.28	-2.00	1.60	 	 	 	 	 	 	 	 	 	 	 	 	 	 	 	 	 	 	1581471461	11.03	20.43
12/02/2020 01:37:43	120220	12022020	013742	192.87	13.792507	-56.904650	192.98	0.800	-1.160	1.540	192.75	-2.50	2.00	 	 	 	 	 	 	 	 	 	 	 	 	 	 	 	 	 	 	1581471462	11.17	20.69
12/02/2020 01:37:44	120220	12022020	013743	192.26	13.792458	-56.904667	192.38	0.090	-1.230	2.320	192.14	-2.60	2.70	 	 	 	 	 	 	 	 	 	 	 	 	 	 	 	 	 	 	1581471463	11.09	20.54
12/02/2020 01:37:45	120220	12022020	013744	191.72	13.792412	-56.904688	191.91	-0.780	-0.980	3.010	191.63	-2.10	3.80	 	 	 	 	 	 	 	 	 	 	 	 	 	 	 	 	 	 	1581471464	11.15	20.65
12/02/2020 01:37:46	120220	12022020	013745	191.31	13.792365	-56.904712	191.52	-1.190	-0.560	3.520	191.24	-2.00	4.00	 	 	 	 	 	 	 	 	 	 	 	 	 	 	 	 	 	 	1581471465	11.26	20.85
12/02/2020 01:37:47	120220	12022020	013746	191.14	13.792317	-56.904733	191.49	-0.860	0.030	3.220	191.20	-0.90	3.20	 	 	 	 	 	 	 	 	 	 	 	 	 	 	 	 	 	 	1581471466	11.13	20.61
12/02/2020 01:37:48	120220	12022020	013747	191.73	13.792270	-56.904745	192.23	-0.180	0.800	1.970	191.92	-0.70	2.70	 	 	 	 	 	 	 	 	 	 	 	 	 	 	 	 	 	 	1581471467	10.45	19.35
12/02/2020 01:37:49	120220	12022020	013748	192.71	13.792222	-56.904752	193.13	0.370	0.960	0.890	192.86	-0.40	1.50	 	 	 	 	 	 	 	 	 	 	 	 	 	 	 	 	 	 	1581471468	10.54	19.52
12/02/2020 01:37:50	120220	12022020	013749	193.29	13.792168	-56.904758	193.58	0.690	0.120	0.600	193.34	-1.10	1.10	 	 	 	 	 	 	 	 	 	 	 	 	 	 	 	 	 	 	1581471469	11.40	21.11
12/02/2020 01:37:51	120220	12022020	013750	193.39	13.792115	-56.904767	193.62	0.710	-0.930	1.050	193.37	-2.20	1.50	 	 	 	 	 	 	 	 	 	 	 	 	 	 	 	 	 	 	1581471470	11.80	21.85
12/02/2020 01:37:52	120220	12022020	013751	193.27	13.792063	-56.904780	193.51	0.350	-1.240	1.970	193.25	-2.60	2.40	 	 	 	 	 	 	 	 	 	 	 	 	 	 	 	 	 	 	1581471471	11.17	20.69
12/02/2020 01:37:53	120220	12022020	013752	193.13	13.792018	-56.904797	193.37	-0.250	-0.830	2.990	193.09	-2.30	3.40	 	 	 	 	 	 	 	 	 	 	 	 	 	 	 	 	 	 	1581471472	10.43	19.32
12/02/2020 01:37:54	120220	12022020	013753	192.82	13.791973	-56.904817	193.02	-0.700	-0.380	3.700	192.73	-1.80	4.10	 	 	 	 	 	 	 	 	 	 	 	 	 	 	 	 	 	 	1581471473	10.38	19.22
12/02/2020 01:37:55	120220	12022020	013754	192.30	13.791927	-56.904835	192.48	-0.640	-0.290	3.790	192.19	-1.60	4.30	 	 	 	 	 	 	 	 	 	 	 	 	 	 	 	 	 	 	1581471474	10.87	20.13
12/02/2020 01:37:56	120220	12022020	013755	191.71	13.791877	-56.904850	191.88	-0.160	-0.380	3.430	191.60	-1.70	4.00	 	 	 	 	 	 	 	 	 	 	 	 	 	 	 	 	 	 	1581471475	11.20	20.74
12/02/2020 01:37:57	120220	12022020	013756	191.21	13.791827	-56.904863	191.41	0.300	-0.260	2.890	191.14	-1.70	3.50	 	 	 	 	 	 	 	 	 	 	 	 	 	 	 	 	 	 	1581471476	11.06	20.48
12/02/2020 01:37:58	120220	12022020	013757	190.98	13.791778	-56.904873	191.26	0.410	0.090	2.200	190.99	-1.30	2.80	 	 	 	 	 	 	 	 	 	 	 	 	 	 	 	 	 	 	1581471477	10.68	19.78
12/02/2020 01:37:59	120220	12022020	013758	191.16	13.791732	-56.904883	191.53	0.260	0.450	1.460	191.25	-0.90	1.70	 	 	 	 	 	 	 	 	 	 	 	 	 	 	 	 	 	 	1581471478	10.41	19.28
12/02/2020 01:38:00	120220	12022020	013759	191.67	13.791683	-56.904893	192.09	0.160	0.450	0.830	191.81	-0.90	1.50	 	 	 	 	 	 	 	 	 	 	 	 	 	 	 	 	 	 	1581471479	10.53	19.50
12/02/2020 01:38:01	120220	12022020	013800	192.39	13.791633	-56.904903	192.82	0.200	0.020	0.550	192.53	-1.70	1.20	 	 	 	 	 	 	 	 	 	 	 	 	 	 	 	 	 	 	1581471480	10.84	20.08
12/02/2020 01:38:02	120220	12022020	013801	193.01	13.791583	-56.904915	193.38	0.240	-0.760	0.860	193.09	-2.00	1.30	1017.60	26.00	26.10	20.60	20.60	-1.0	72.0	72.0	390.0	25.6	261.00	10.40	67.00	12.60	16	8117.0	27.2	27.2	1581471481	11.15	20.65
12/02/2020 01:38:03	120220	12022020	013802	193.26	13.791533	-56.904930	193.55	0.170	-1.460	1.610	193.26	-2.70	2.00	 	 	 	 	 	 	 	 	 	 	 	 	 	 	 	 	 	 	1581471482	11.28	20.89
12/02/2020 01:38:04	120220	12022020	013803	193.16	13.791483	-56.904945	193.40	0.020	-1.650	2.280	193.12	-3.00	2.70	 	 	 	 	 	 	 	 	 	 	 	 	 	 	 	 	 	 	1581471483	11.07	20.50
12/02/2020 01:38:05	120220	12022020	013804	192.87	13.791435	-56.904960	193.07	-0.140	-1.310	2.670	192.79	-2.70	3.20	 	 	 	 	 	 	 	 	 	 	 	 	 	 	 	 	 	 	1581471484	10.79	19.98
12/02/2020 01:38:06	120220	12022020	013805	192.39	13.791387	-56.904973	192.54	-0.220	-0.740	2.910	192.27	-2.20	3.40	 	 	 	 	 	 	 	 	 	 	 	 	 	 	 	 	 	 	1581471485	10.78	19.96
12/02/2020 01:38:07	120220	12022020	013806	191.87	13.791338	-56.904987	192.07	-0.200	-0.160	2.690	191.79	-1.60	3.30	 	 	 	 	 	 	 	 	 	 	 	 	 	 	 	 	 	 	1581471486	10.98	20.33
12/02/2020 01:38:08	120220	12022020	013807	191.59	13.791288	-56.904998	191.84	-0.190	0.520	2.140	191.56	-0.90	2.80	 	 	 	 	 	 	 	 	 	 	 	 	 	 	 	 	 	 	1581471487	10.85	20.09
12/02/2020 01:38:09	120220	12022020	013808	191.56	13.791240	-56.905010	191.88	-0.210	1.060	1.680	191.59	-0.40	2.30	 	 	 	 	 	 	 	 	 	 	 	 	 	 	 	 	 	 	1581471488	10.65	19.72
12/02/2020 01:38:10	120220	12022020	013809	191.70	13.791192	-56.905020	192.01	-0.210	1.020	1.380	191.72	-0.30	1.90	 	 	 	 	 	 	 	 	 	 	 	 	 	 	 	 	 	 	1581471489	10.81	20.02
12/02/2020 01:38:11	120220	12022020	013810	191.67	13.791140	-56.905033	191.93	-0.080	0.230	1.630	191.64	-1.00	2.10	 	 	 	 	 	 	 	 	 	 	 	 	 	 	 	 	 	 	1581471490	11.40	21.11
12/02/2020 01:38:12	120220	12022020	013811	191.55	13.791087	-56.905050	191.88	0.100	-0.660	2.020	191.58	-1.90	2.50	 	 	 	 	 	 	 	 	 	 	 	 	 	 	 	 	 	 	1581471491	11.71	21.69
12/02/2020 01:38:13	120220	12022020	013812	191.78	13.791038	-56.905063	192.16	0.150	-0.850	2.070	191.85	-2.20	2.60	 	 	 	 	 	 	 	 	 	 	 	 	 	 	 	 	 	 	1581471492	10.94	20.26
12/02/2020 01:38:14	120220	12022020	013813	192.11	13.790992	-56.905077	192.45	0.130	-0.560	1.890	192.17	-2.00	2.50	 	 	 	 	 	 	 	 	 	 	 	 	 	 	 	 	 	 	1581471493	10.24	18.96
12/02/2020 01:38:15	120220	12022020	013814	192.37	13.790945	-56.905087	192.68	0.220	-0.420	1.440	192.42	-1.80	2.00	 	 	 	 	 	 	 	 	 	 	 	 	 	 	 	 	 	 	1581471494	10.40	19.26
12/02/2020 01:38:16	120220	12022020	013815	192.65	13.790895	-56.905095	192.98	0.370	-0.580	0.990	192.72	-1.90	1.60	 	 	 	 	 	 	 	 	 	 	 	 	 	 	 	 	 	 	1581471495	10.89	20.17
12/02/2020 01:38:17	120220	12022020	013816	193.04	13.790845	-56.905105	193.37	0.320	-0.670	0.950	193.11	-2.00	1.50	 	 	 	 	 	 	 	 	 	 	 	 	 	 	 	 	 	 	1581471496	10.94	20.26
12/02/2020 01:38:18	120220	12022020	013817	193.28	13.790797	-56.905118	193.53	0.050	-0.630	1.310	193.27	-2.00	1.80	 	 	 	 	 	 	 	 	 	 	 	 	 	 	 	 	 	 	1581471497	10.73	19.87
12/02/2020 01:38:19	120220	12022020	013818	193.05	13.790748	-56.905133	193.23	-0.200	-0.730	1.920	192.96	-2.10	2.30	 	 	 	 	 	 	 	 	 	 	 	 	 	 	 	 	 	 	1581471498	10.98	20.33
12/02/2020 01:38:20	120220	12022020	013819	192.51	13.790697	-56.905148	192.65	-0.210	-0.940	2.490	192.39	-2.30	2.90	 	 	 	 	 	 	 	 	 	 	 	 	 	 	 	 	 	 	1581471499	11.45	21.21
12/02/2020 01:38:21	120220	12022020	013820	191.92	13.790645	-56.905163	192.07	-0.100	-0.890	2.770	191.81	-2.30	3.30	 	 	 	 	 	 	 	 	 	 	 	 	 	 	 	 	 	 	1581471500	11.54	21.37
12/02/2020 01:38:22	120220	12022020	013821	191.51	13.790595	-56.905178	191.75	-0.140	-0.380	2.600	191.48	-1.80	3.20	 	 	 	 	 	 	 	 	 	 	 	 	 	 	 	 	 	 	1581471501	11.22	20.78
12/02/2020 01:38:23	120220	12022020	013822	191.55	13.790547	-56.905192	191.89	-0.420	0.520	2.240	191.62	-0.40	2.50	 	 	 	 	 	 	 	 	 	 	 	 	 	 	 	 	 	 	1581471502	10.66	19.74
12/02/2020 01:38:24	120220	12022020	013823	192.03	13.790502	-56.905203	192.43	-0.690	1.290	1.740	192.15	-0.20	2.30	 	 	 	 	 	 	 	 	 	 	 	 	 	 	 	 	 	 	1581471503	10.30	19.08
12/02/2020 01:38:25	120220	12022020	013824	192.64	13.790453	-56.905217	193.03	-0.640	1.200	1.200	192.76	-0.60	1.60	 	 	 	 	 	 	 	 	 	 	 	 	 	 	 	 	 	 	1581471504	10.73	19.87
12/02/2020 01:38:26	120220	12022020	013825	193.15	13.790402	-56.905230	193.47	-0.150	0.300	0.950	193.23	-0.90	1.50	 	 	 	 	 	 	 	 	 	 	 	 	 	 	 	 	 	 	1581471505	11.45	21.21
12/02/2020 01:38:27	120220	12022020	013826	193.45	13.790350	-56.905243	193.73	0.540	-0.600	0.900	193.49	-1.90	1.40	 	 	 	 	 	 	 	 	 	 	 	 	 	 	 	 	 	 	1581471506	11.53	21.35
12/02/2020 01:38:28	120220	12022020	013827	193.59	13.790298	-56.905252	193.84	0.920	-0.980	0.850	193.60	-2.30	1.40	 	 	 	 	 	 	 	 	 	 	 	 	 	 	 	 	 	 	1581471507	10.97	20.32
12/02/2020 01:38:29	120220	12022020	013828	193.59	13.790252	-56.905262	193.78	0.820	-1.050	1.030	193.56	-2.40	1.50	 	 	 	 	 	 	 	 	 	 	 	 	 	 	 	 	 	 	1581471508	10.55	19.54
12/02/2020 01:38:30	120220	12022020	013829	193.39	13.790203	-56.905275	193.56	0.460	-1.080	1.460	193.33	-2.50	1.90	 	 	 	 	 	 	 	 	 	 	 	 	 	 	 	 	 	 	1581471509	10.68	19.78
12/02/2020 01:38:31	120220	12022020	013830	193.12	13.790155	-56.905288	193.31	0.080	-0.880	1.780	193.07	-2.30	2.30	 	 	 	 	 	 	 	 	 	 	 	 	 	 	 	 	 	 	1581471510	10.76	19.93
12/02/2020 01:38:32	120220	12022020	013831	192.90	13.790107	-56.905303	193.09	-0.230	-0.480	1.910	192.86	-1.90	2.40	 	 	 	 	 	 	 	 	 	 	 	 	 	 	 	 	 	 	1581471511	10.64	19.71
12/02/2020 01:38:33	120220	12022020	013832	192.65	13.790058	-56.905318	192.81	-0.410	-0.310	1.990	192.59	-1.70	2.50	 	 	 	 	 	 	 	 	 	 	 	 	 	 	 	 	 	 	1581471512	10.92	20.22
12/02/2020 01:38:34	120220	12022020	013833	192.31	13.790008	-56.905335	192.44	-0.420	-0.480	2.090	192.22	-1.80	2.60	 	 	 	 	 	 	 	 	 	 	 	 	 	 	 	 	 	 	1581471513	11.46	21.22
12/02/2020 01:38:35	120220	12022020	013834	191.93	13.789955	-56.905350	192.12	-0.310	-0.630	2.090	191.88	-2.00	2.60	 	 	 	 	 	 	 	 	 	 	 	 	 	 	 	 	 	 	1581471514	11.72	21.71
12/02/2020 01:38:36	120220	12022020	013835	191.81	13.789905	-56.905365	192.09	-0.320	-0.340	1.970	191.84	-1.80	2.50	 	 	 	 	 	 	 	 	 	 	 	 	 	 	 	 	 	 	1581471515	11.35	21.02
12/02/2020 01:38:37	120220	12022020	013836	192.09	13.789857	-56.905380	192.45	-0.520	0.230	1.760	192.18	-0.90	2.20	 	 	 	 	 	 	 	 	 	 	 	 	 	 	 	 	 	 	1581471516	10.80	20.00
12/02/2020 01:38:38	120220	12022020	013837	192.56	13.789808	-56.905395	192.90	-0.600	0.590	1.550	192.65	-0.80	2.10	 	 	 	 	 	 	 	 	 	 	 	 	 	 	 	 	 	 	1581471517	10.70	19.82
12/02/2020 01:38:39	120220	12022020	013838	192.91	13.789758	-56.905408	193.20	-0.240	0.420	1.420	192.95	-0.90	1.90	 	 	 	 	 	 	 	 	 	 	 	 	 	 	 	 	 	 	1581471518	11.11	20.58
12/02/2020 01:38:40	120220	12022020	013839	193.10	13.789707	-56.905420	193.35	0.390	-0.040	1.310	193.11	-1.30	1.80	 	 	 	 	 	 	 	 	 	 	 	 	 	 	 	 	 	 	1581471519	11.45	21.21
12/02/2020 01:38:41	120220	12022020	013840	193.09	13.789655	-56.905430	193.31	0.790	-0.390	1.350	193.07	-1.70	1.90	 	 	 	 	 	 	 	 	 	 	 	 	 	 	 	 	 	 	1581471520	11.35	21.02
12/02/2020 01:38:42	120220	12022020	013841	193.07	13.789605	-56.905440	193.38	0.650	-0.360	1.400	193.12	-1.80	1.90	 	 	 	 	 	 	 	 	 	 	 	 	 	 	 	 	 	 	1581471521	10.91	20.21
12/02/2020 01:38:43	120220	12022020	013842	193.40	13.789558	-56.905452	193.74	0.110	-0.040	1.340	193.48	-1.50	1.90	 	 	 	 	 	 	 	 	 	 	 	 	 	 	 	 	 	 	1581471522	10.30	19.08
12/02/2020 01:38:44	120220	12022020	013843	193.68	13.789512	-56.905465	193.95	-0.290	-0.130	1.500	193.70	-1.40	2.00	 	 	 	 	 	 	 	 	 	 	 	 	 	 	 	 	 	 	1581471523	10.51	19.46
12/02/2020 01:38:45	120220	12022020	013844	193.65	13.789462	-56.905482	193.83	-0.120	-0.810	1.690	193.60	-2.10	2.20	 	 	 	 	 	 	 	 	 	 	 	 	 	 	 	 	 	 	1581471524	11.31	20.95
12/02/2020 01:38:46	120220	12022020	013845	193.29	13.789410	-56.905497	193.41	0.400	-1.490	1.830	193.18	-2.80	2.30	 	 	 	 	 	 	 	 	 	 	 	 	 	 	 	 	 	 	1581471525	11.70	21.67
12/02/2020 01:38:47	120220	12022020	013846	192.71	13.789357	-56.905510	192.82	0.650	-1.640	1.950	192.60	-3.00	2.40	 	 	 	 	 	 	 	 	 	 	 	 	 	 	 	 	 	 	1581471526	11.59	21.46
12/02/2020 01:38:48	120220	12022020	013847	192.24	13.789308	-56.905523	192.42	0.250	-1.050	2.120	192.17	-2.50	2.60	 	 	 	 	 	 	 	 	 	 	 	 	 	 	 	 	 	 	1581471527	11.03	20.43
12/02/2020 01:38:49	120220	12022020	013848	192.04	13.789262	-56.905540	192.27	-0.560	-0.060	2.350	192.02	-1.00	3.00	 	 	 	 	 	 	 	 	 	 	 	 	 	 	 	 	 	 	1581471528	10.66	19.74
12/02/2020 01:38:50	120220	12022020	013849	192.04	13.789215	-56.905558	192.34	-1.160	0.740	2.500	192.08	-0.70	3.00	 	 	 	 	 	 	 	 	 	 	 	 	 	 	 	 	 	 	1581471529	10.76	19.93
12/02/2020 01:38:51	120220	12022020	013850	192.34	13.789167	-56.905577	192.71	-1.100	1.110	2.280	192.43	-0.30	2.60	 	 	 	 	 	 	 	 	 	 	 	 	 	 	 	 	 	 	1581471530	10.97	20.32
12/02/2020 01:38:52	120220	12022020	013851	192.82	13.789115	-56.905590	193.17	-0.430	0.870	1.860	192.90	-0.40	2.40	 	 	 	 	 	 	 	 	 	 	 	 	 	 	 	 	 	 	1581471531	11.27	20.87
12/02/2020 01:38:53	120220	12022020	013852	193.16	13.789063	-56.905603	193.44	0.460	0.130	1.490	193.20	-1.10	2.00	 	 	 	 	 	 	 	 	 	 	 	 	 	 	 	 	 	 	1581471532	11.62	21.52
12/02/2020 01:38:54	120220	12022020	013853	193.26	13.789010	-56.905613	193.51	1.060	-0.660	1.350	193.27	-1.90	1.90	 	 	 	 	 	 	 	 	 	 	 	 	 	 	 	 	 	 	1581471533	11.68	21.63
12/02/2020 01:38:55	120220	12022020	013854	193.33	13.788958	-56.905623	193.60	1.040	-0.900	1.350	193.36	-2.30	1.90	 	 	 	 	 	 	 	 	 	 	 	 	 	 	 	 	 	 	1581471534	11.14	20.63
12/02/2020 01:38:56	120220	12022020	013855	193.51	13.788912	-56.905635	193.80	0.470	-0.570	1.550	193.55	-2.00	2.00	 	 	 	 	 	 	 	 	 	 	 	 	 	 	 	 	 	 	1581471535	10.35	19.17
12/02/2020 01:38:57	120220	12022020	013856	193.60	13.788865	-56.905648	193.84	-0.180	-0.430	1.890	193.59	-1.80	2.40	 	 	 	 	 	 	 	 	 	 	 	 	 	 	 	 	 	 	1581471536	10.37	19.21
12/02/2020 01:38:58	120220	12022020	013857	193.48	13.788817	-56.905665	193.68	-0.450	-0.810	2.080	193.43	-2.10	2.60	 	 	 	 	 	 	 	 	 	 	 	 	 	 	 	 	 	 	1581471537	11.21	20.76
12/02/2020 01:38:59	120220	12022020	013858	193.24	13.788765	-56.905682	193.44	-0.360	-1.130	2.020	193.20	-2.50	2.50	 	 	 	 	 	 	 	 	 	 	 	 	 	 	 	 	 	 	1581471538	11.60	21.48
12/02/2020 01:39:00	120220	12022020	013859	193.03	13.788713	-56.905695	193.23	-0.160	-0.990	1.730	192.99	-2.40	2.30	 	 	 	 	 	 	 	 	 	 	 	 	 	 	 	 	 	 	1581471539	11.31	20.95
12/02/2020 01:39:01	120220	12022020	013900	192.78	13.788663	-56.905708	192.95	-0.040	-0.550	1.400	192.72	-2.00	2.00	 	 	 	 	 	 	 	 	 	 	 	 	 	 	 	 	 	 	1581471540	11.08	20.52
12/02/2020 01:39:02	120220	12022020	013901	192.63	13.788613	-56.905718	192.87	-0.030	0.020	1.200	192.64	-1.40	1.70	1017.60	26.00	26.10	20.80	20.80	-1.0	73.0	72.0	391.0	25.6	263.00	9.20	66.00	11.30	16	8025.0	27.2	27.2	1581471541	11.00	20.37
12/02/2020 01:39:03	120220	12022020	013902	192.69	13.788563	-56.905732	192.94	-0.110	0.410	1.220	192.70	-1.00	1.70	 	 	 	 	 	 	 	 	 	 	 	 	 	 	 	 	 	 	1581471542	11.02	20.41
12/02/2020 01:39:04	120220	12022020	013903	192.61	13.788513	-56.905747	192.80	-0.150	0.230	1.740	192.56	-1.10	2.10	 	 	 	 	 	 	 	 	 	 	 	 	 	 	 	 	 	 	1581471543	11.52	21.34
12/02/2020 01:39:05	120220	12022020	013904	192.34	13.788460	-56.905765	192.59	-0.150	-0.220	2.450	192.33	-1.50	2.90	 	 	 	 	 	 	 	 	 	 	 	 	 	 	 	 	 	 	1581471544	12.01	22.24
12/02/2020 01:39:06	120220	12022020	013905	192.47	13.788410	-56.905783	192.84	-0.260	-0.020	2.700	192.56	-1.50	3.20	 	 	 	 	 	 	 	 	 	 	 	 	 	 	 	 	 	 	1581471545	11.33	20.98
12/02/2020 01:39:07	120220	12022020	013906	192.99	13.788365	-56.905798	193.37	-0.400	0.520	2.420	193.10	-0.90	3.00	 	 	 	 	 	 	 	 	 	 	 	 	 	 	 	 	 	 	1581471546	10.36	19.19
12/02/2020 01:39:08	120220	12022020	013907	193.49	13.788317	-56.905813	193.80	-0.240	0.450	1.910	193.56	-0.90	2.50	 	 	 	 	 	 	 	 	 	 	 	 	 	 	 	 	 	 	1581471547	10.60	19.63
12/02/2020 01:39:09	120220	12022020	013908	193.74	13.788267	-56.905827	193.95	0.350	-0.230	1.320	193.75	-1.50	1.90	 	 	 	 	 	 	 	 	 	 	 	 	 	 	 	 	 	 	1581471548	11.24	20.82
12/02/2020 01:39:10	120220	12022020	013909	193.64	13.788215	-56.905835	193.79	1.050	-0.840	0.960	193.58	-2.20	1.50	 	 	 	 	 	 	 	 	 	 	 	 	 	 	 	 	 	 	1581471549	11.37	21.06
12/02/2020 01:39:11	120220	12022020	013910	193.34	13.788163	-56.905843	193.48	1.280	-0.990	0.820	193.28	-2.40	1.30	 	 	 	 	 	 	 	 	 	 	 	 	 	 	 	 	 	 	1581471550	11.01	20.39
12/02/2020 01:39:12	120220	12022020	013911	193.04	13.788115	-56.905853	193.18	0.880	-0.970	1.000	192.98	-2.30	1.50	 	 	 	 	 	 	 	 	 	 	 	 	 	 	 	 	 	 	1581471551	10.81	20.02
12/02/2020 01:39:13	120220	12022020	013912	192.78	13.788065	-56.905867	192.95	0.160	-0.960	1.500	192.75	-2.30	1.90	 	 	 	 	 	 	 	 	 	 	 	 	 	 	 	 	 	 	1581471552	11.05	20.46
12/02/2020 01:39:14	120220	12022020	013913	192.61	13.788015	-56.905885	192.79	-0.470	-0.880	2.190	192.57	-2.30	2.60	 	 	 	 	 	 	 	 	 	 	 	 	 	 	 	 	 	 	1581471553	11.30	20.93
12/02/2020 01:39:15	120220	12022020	013914	192.44	13.787965	-56.905905	192.66	-0.790	-0.690	2.870	192.41	-1.90	3.60	 	 	 	 	 	 	 	 	 	 	 	 	 	 	 	 	 	 	1581471554	11.51	21.32
12/02/2020 01:39:16	120220	12022020	013915	192.38	13.787915	-56.905925	192.68	-0.820	-0.390	3.140	192.40	-1.80	3.60	 	 	 	 	 	 	 	 	 	 	 	 	 	 	 	 	 	 	1581471555	11.56	21.41
12/02/2020 01:39:17	120220	12022020	013916	192.59	13.787865	-56.905942	192.94	-0.710	-0.010	2.870	192.66	-1.40	3.40	 	 	 	 	 	 	 	 	 	 	 	 	 	 	 	 	 	 	1581471556	11.41	21.13
12/02/2020 01:39:18	120220	12022020	013917	193.04	13.787815	-56.905957	193.43	-0.600	0.330	2.270	193.15	-1.10	2.90	 	 	 	 	 	 	 	 	 	 	 	 	 	 	 	 	 	 	1581471557	11.23	20.80
12/02/2020 01:39:19	120220	12022020	013918	193.60	13.787765	-56.905968	193.95	-0.480	0.590	1.600	193.71	-0.80	2.20	 	 	 	 	 	 	 	 	 	 	 	 	 	 	 	 	 	 	1581471558	11.00	20.37
12/02/2020 01:39:20	120220	12022020	013919	194.03	13.787715	-56.905980	194.29	-0.200	0.570	1.020	194.07	-0.80	1.60	 	 	 	 	 	 	 	 	 	 	 	 	 	 	 	 	 	 	1581471559	10.93	20.24
12/02/2020 01:39:21	120220	12022020	013920	194.10	13.787663	-56.905990	194.25	0.330	0.020	0.730	194.06	-1.30	1.30	 	 	 	 	 	 	 	 	 	 	 	 	 	 	 	 	 	 	1581471560	11.31	20.95
12/02/2020 01:39:22	120220	12022020	013921	193.69	13.787612	-56.906002	193.74	0.950	-0.730	0.950	193.55	-2.00	1.40	 	 	 	 	 	 	 	 	 	 	 	 	 	 	 	 	 	 	1581471561	11.68	21.63
12/02/2020 01:39:23	120220	12022020	013922	192.98	13.787558	-56.906013	193.06	1.140	-0.930	1.370	192.86	-2.30	1.80	 	 	 	 	 	 	 	 	 	 	 	 	 	 	 	 	 	 	1581471562	11.38	21.08
12/02/2020 01:39:24	120220	12022020	013923	192.58	13.787512	-56.906025	192.76	0.590	-0.430	1.640	192.54	-1.90	2.10	 	 	 	 	 	 	 	 	 	 	 	 	 	 	 	 	 	 	1581471563	10.53	19.50
12/02/2020 01:39:25	120220	12022020	013924	192.47	13.787465	-56.906042	192.68	-0.240	-0.120	2.030	192.45	-1.60	2.70	 	 	 	 	 	 	 	 	 	 	 	 	 	 	 	 	 	 	1581471564	10.54	19.52
12/02/2020 01:39:26	120220	12022020	013925	192.43	13.787417	-56.906062	192.68	-0.640	-0.320	2.390	192.45	-1.60	2.90	 	 	 	 	 	 	 	 	 	 	 	 	 	 	 	 	 	 	1581471565	11.36	21.04
12/02/2020 01:39:27	120220	12022020	013926	192.59	13.787367	-56.906080	192.89	-0.480	-0.480	2.390	192.64	-1.80	2.80	 	 	 	 	 	 	 	 	 	 	 	 	 	 	 	 	 	 	1581471566	11.49	21.28
12/02/2020 01:39:28	120220	12022020	013927	192.87	13.787317	-56.906098	193.17	-0.170	-0.360	2.280	192.92	-1.80	2.80	 	 	 	 	 	 	 	 	 	 	 	 	 	 	 	 	 	 	1581471567	11.07	20.50
12/02/2020 01:39:29	120220	12022020	013928	193.10	13.787268	-56.906112	193.38	0.020	-0.230	2.030	193.13	-1.60	2.60	 	 	 	 	 	 	 	 	 	 	 	 	 	 	 	 	 	 	1581471568	10.91	20.21
12/02/2020 01:39:30	120220	12022020	013929	193.32	13.787218	-56.906123	193.60	0.090	-0.250	1.600	193.36	-1.60	2.20	 	 	 	 	 	 	 	 	 	 	 	 	 	 	 	 	 	 	1581471569	11.03	20.43
12/02/2020 01:39:31	120220	12022020	013930	193.49	13.787168	-56.906135	193.74	0.170	-0.360	1.320	193.50	-1.70	1.90	 	 	 	 	 	 	 	 	 	 	 	 	 	 	 	 	 	 	1581471570	11.09	20.54
12/02/2020 01:39:32	120220	12022020	013931	193.38	13.787117	-56.906147	193.54	0.310	-0.590	1.450	193.31	-1.90	1.90	 	 	 	 	 	 	 	 	 	 	 	 	 	 	 	 	 	 	1581471571	11.28	20.89
12/02/2020 01:39:33	120220	12022020	013932	192.99	13.787065	-56.906160	193.13	0.400	-0.700	1.790	192.90	-2.10	2.30	 	 	 	 	 	 	 	 	 	 	 	 	 	 	 	 	 	 	1581471572	11.41	21.13
12/02/2020 01:39:34	120220	12022020	013933	192.70	13.787015	-56.906173	192.92	0.210	-0.420	2.100	192.67	-1.90	2.60	 	 	 	 	 	 	 	 	 	 	 	 	 	 	 	 	 	 	1581471573	11.11	20.58
12/02/2020 01:39:35	120220	12022020	013934	192.65	13.786968	-56.906188	192.90	-0.200	0.050	2.310	192.66	-1.40	2.80	 	 	 	 	 	 	 	 	 	 	 	 	 	 	 	 	 	 	1581471574	10.76	19.93
12/02/2020 01:39:36	120220	12022020	013935	192.73	13.786920	-56.906205	192.99	-0.520	0.320	2.260	192.76	-1.10	2.80	 	 	 	 	 	 	 	 	 	 	 	 	 	 	 	 	 	 	1581471575	10.79	19.98
12/02/2020 01:39:37	120220	12022020	013936	192.90	13.786872	-56.906220	193.17	-0.480	0.240	2.000	192.93	-1.10	2.50	 	 	 	 	 	 	 	 	 	 	 	 	 	 	 	 	 	 	1581471576	11.01	20.39
12/02/2020 01:39:38	120220	12022020	013937	192.94	13.786822	-56.906235	193.15	-0.090	-0.190	1.840	192.92	-1.50	2.40	 	 	 	 	 	 	 	 	 	 	 	 	 	 	 	 	 	 	1581471577	11.29	20.91
12/02/2020 01:39:39	120220	12022020	013938	192.65	13.786768	-56.906248	192.79	0.400	-0.830	1.910	192.56	-2.40	2.50	 	 	 	 	 	 	 	 	 	 	 	 	 	 	 	 	 	 	1581471578	11.65	21.58
12/02/2020 01:39:40	120220	12022020	013939	192.26	13.786717	-56.906260	192.45	0.600	-1.030	1.990	192.22	-2.40	2.50	 	 	 	 	 	 	 	 	 	 	 	 	 	 	 	 	 	 	1581471579	11.52	21.34
12/02/2020 01:39:41	120220	12022020	013940	192.32	13.786667	-56.906272	192.64	0.260	-0.470	1.910	192.38	-1.50	2.40	 	 	 	 	 	 	 	 	 	 	 	 	 	 	 	 	 	 	1581471580	10.70	19.82
12/02/2020 01:39:42	120220	12022020	013941	192.71	13.786620	-56.906283	193.04	-0.350	0.030	1.850	192.78	-1.40	2.40	 	 	 	 	 	 	 	 	 	 	 	 	 	 	 	 	 	 	1581471581	10.43	19.32
12/02/2020 01:39:43	120220	12022020	013942	192.99	13.786570	-56.906300	193.26	-0.610	-0.260	1.950	193.01	-1.50	2.40	 	 	 	 	 	 	 	 	 	 	 	 	 	 	 	 	 	 	1581471582	11.32	20.96
12/02/2020 01:39:44	120220	12022020	013943	193.09	13.786517	-56.906318	193.36	-0.340	-0.820	2.080	193.11	-2.10	2.60	 	 	 	 	 	 	 	 	 	 	 	 	 	 	 	 	 	 	1581471583	12.08	22.37
12/02/2020 01:39:45	120220	12022020	013944	193.28	13.786465	-56.906333	193.61	0.000	-0.690	2.030	193.34	-2.10	2.60	 	 	 	 	 	 	 	 	 	 	 	 	 	 	 	 	 	 	1581471584	11.53	21.35
12/02/2020 01:39:46	120220	12022020	013945	193.56	13.786418	-56.906347	193.87	0.040	0.060	1.630	193.61	-1.40	2.20	 	 	 	 	 	 	 	 	 	 	 	 	 	 	 	 	 	 	1581471585	10.57	19.58
12/02/2020 01:39:47	120220	12022020	013946	193.77	13.786372	-56.906358	194.04	-0.100	0.680	1.200	193.80	-0.80	1.80	 	 	 	 	 	 	 	 	 	 	 	 	 	 	 	 	 	 	1581471586	10.37	19.21
12/02/2020 01:39:48	120220	12022020	013947	193.92	13.786323	-56.906370	194.18	-0.080	0.740	0.940	193.94	-0.60	1.50	 	 	 	 	 	 	 	 	 	 	 	 	 	 	 	 	 	 	1581471587	10.75	19.91
12/02/2020 01:39:49	120220	12022020	013948	193.94	13.786272	-56.906382	194.14	0.290	0.200	0.870	193.92	-1.10	1.40	 	 	 	 	 	 	 	 	 	 	 	 	 	 	 	 	 	 	1581471588	11.27	20.87
12/02/2020 01:39:50	120220	12022020	013949	193.71	13.786218	-56.906393	193.89	0.780	-0.570	0.990	193.65	-1.90	1.50	 	 	 	 	 	 	 	 	 	 	 	 	 	 	 	 	 	 	1581471589	11.63	21.54
12/02/2020 01:39:51	120220	12022020	013950	193.45	13.786168	-56.906407	193.67	0.920	-0.930	1.290	193.42	-2.30	1.80	 	 	 	 	 	 	 	 	 	 	 	 	 	 	 	 	 	 	1581471590	11.29	20.91
12/02/2020 01:39:52	120220	12022020	013951	193.24	13.786120	-56.906420	193.45	0.480	-0.890	1.900	193.17	-2.30	2.30	 	 	 	 	 	 	 	 	 	 	 	 	 	 	 	 	 	 	1581471591	10.74	19.89
12/02/2020 01:39:53	120220	12022020	013952	192.75	13.786072	-56.906438	192.86	-0.190	-0.990	2.800	192.59	-2.50	3.80	 	 	 	 	 	 	 	 	 	 	 	 	 	 	 	 	 	 	1581471592	10.99	20.35
12/02/2020 01:39:54	120220	12022020	013953	191.95	13.786022	-56.906460	192.10	-0.700	-1.180	3.620	191.81	-2.50	4.00	 	 	 	 	 	 	 	 	 	 	 	 	 	 	 	 	 	 	1581471593	11.67	21.61
12/02/2020 01:39:55	120220	12022020	013954	191.34	13.785973	-56.906483	191.57	-0.890	-0.880	3.980	191.27	-2.30	4.50	 	 	 	 	 	 	 	 	 	 	 	 	 	 	 	 	 	 	1581471594	11.62	21.52
12/02/2020 01:39:56	120220	12022020	013955	191.25	13.785925	-56.906502	191.62	-0.720	0.060	3.500	191.31	-1.50	4.10	 	 	 	 	 	 	 	 	 	 	 	 	 	 	 	 	 	 	1581471595	10.82	20.04
12/02/2020 01:39:57	120220	12022020	013956	191.80	13.785878	-56.906513	192.24	-0.340	0.870	2.340	191.96	-0.60	3.00	 	 	 	 	 	 	 	 	 	 	 	 	 	 	 	 	 	 	1581471596	10.38	19.22
12/02/2020 01:39:58	120220	12022020	013957	192.64	13.785828	-56.906522	193.08	0.130	0.820	1.310	192.81	-0.50	2.00	 	 	 	 	 	 	 	 	 	 	 	 	 	 	 	 	 	 	1581471597	10.92	20.22
12/02/2020 01:39:59	120220	12022020	013958	193.40	13.785777	-56.906532	193.79	0.540	0.100	0.890	193.52	-1.20	1.40	 	 	 	 	 	 	 	 	 	 	 	 	 	 	 	 	 	 	1581471598	11.48	21.26
12/02/2020 01:40:00	120220	12022020	013959	193.78	13.785723	-56.906542	194.05	0.730	-0.720	1.030	193.79	-2.00	1.50	 	 	 	 	 	 	 	 	 	 	 	 	 	 	 	 	 	 	1581471599	11.54	21.37
12/02/2020 01:40:01	120220	12022020	014000	193.66	13.785672	-56.906553	193.85	0.630	-1.210	1.590	193.60	-2.50	2.00	 	 	 	 	 	 	 	 	 	 	 	 	 	 	 	 	 	 	1581471600	11.32	20.96
12/02/2020 01:40:02	120220	12022020	014001	193.34	13.785623	-56.906568	193.54	0.290	-1.180	2.170	193.27	-2.60	2.60	1017.60	26.10	26.10	21.10	21.00	-1.0	74.0	73.0	394.0	25.6	261.00	9.40	65.00	11.80	16	8157.0	27.2	27.2	1581471601	11.00	20.37
12/02/2020 01:40:03	120220	12022020	014002	193.03	13.785575	-56.906583	193.23	-0.100	-0.670	2.470	192.96	-1.70	3.00	 	 	 	 	 	 	 	 	 	 	 	 	 	 	 	 	 	 	1581471602	10.65	19.72
12/02/2020 01:40:04	120220	12022020	014003	192.73	13.785528	-56.906598	192.96	-0.410	-0.110	2.490	192.68	-1.50	3.00	 	 	 	 	 	 	 	 	 	 	 	 	 	 	 	 	 	 	1581471603	10.61	19.65
12/02/2020 01:40:05	120220	12022020	014004	192.50	13.785480	-56.906613	192.74	-0.600	0.170	2.450	192.45	-1.20	3.00	 	 	 	 	 	 	 	 	 	 	 	 	 	 	 	 	 	 	1581471604	10.91	20.21
12/02/2020 01:40:06	120220	12022020	014005	192.28	13.785430	-56.906630	192.50	-0.630	0.060	2.430	192.23	-1.30	2.90	 	 	 	 	 	 	 	 	 	 	 	 	 	 	 	 	 	 	1581471605	11.29	20.91
12/02/2020 01:40:07	120220	12022020	014006	191.99	13.785378	-56.906647	192.16	-0.390	-0.270	2.340	191.92	-1.60	2.90	 	 	 	 	 	 	 	 	 	 	 	 	 	 	 	 	 	 	1581471606	11.59	21.46
12/02/2020 01:40:08	120220	12022020	014007	191.64	13.785327	-56.906662	191.84	0.060	-0.490	2.110	191.60	-1.90	2.70	 	 	 	 	 	 	 	 	 	 	 	 	 	 	 	 	 	 	1581471607	11.61	21.50
12/02/2020 01:40:09	120220	12022020	014008	191.62	13.785277	-56.906673	191.91	0.400	-0.120	1.590	191.67	-1.60	2.20	 	 	 	 	 	 	 	 	 	 	 	 	 	 	 	 	 	 	1581471608	10.92	20.22
12/02/2020 01:40:10	120220	12022020	014009	191.94	13.785230	-56.906683	192.24	0.370	0.530	1.190	192.01	-0.90	1.80	 	 	 	 	 	 	 	 	 	 	 	 	 	 	 	 	 	 	1581471609	10.17	18.83
12/02/2020 01:40:11	120220	12022020	014010	192.27	13.785183	-56.906693	192.56	0.170	0.600	1.140	192.33	-0.70	1.70	 	 	 	 	 	 	 	 	 	 	 	 	 	 	 	 	 	 	1581471610	10.38	19.22
12/02/2020 01:40:12	120220	12022020	014011	192.58	13.785133	-56.906707	192.88	0.100	-0.040	1.320	192.64	-1.30	1.80	 	 	 	 	 	 	 	 	 	 	 	 	 	 	 	 	 	 	1581471611	11.05	20.46
12/02/2020 01:40:13	120220	12022020	014012	192.83	13.785082	-56.906722	193.10	0.360	-0.980	1.380	192.86	-2.20	1.90	 	 	 	 	 	 	 	 	 	 	 	 	 	 	 	 	 	 	1581471612	11.56	21.41
12/02/2020 01:40:14	120220	12022020	014013	192.95	13.785030	-56.906732	193.21	0.740	-1.510	1.210	192.98	-2.80	1.80	 	 	 	 	 	 	 	 	 	 	 	 	 	 	 	 	 	 	1581471613	11.50	21.30
12/02/2020 01:40:15	120220	12022020	014014	193.05	13.784980	-56.906742	193.31	0.690	-1.330	1.250	193.06	-2.50	2.00	 	 	 	 	 	 	 	 	 	 	 	 	 	 	 	 	 	 	1581471614	10.90	20.19
12/02/2020 01:40:16	120220	12022020	014015	193.02	13.784932	-56.906755	193.21	0.060	-0.910	1.730	192.97	-2.30	2.20	 	 	 	 	 	 	 	 	 	 	 	 	 	 	 	 	 	 	1581471615	10.63	19.69
12/02/2020 01:40:17	120220	12022020	014016	192.60	13.784883	-56.906773	192.71	-0.710	-0.700	2.540	192.48	-2.00	3.50	 	 	 	 	 	 	 	 	 	 	 	 	 	 	 	 	 	 	1581471616	11.14	20.63
12/02/2020 01:40:18	120220	12022020	014017	191.99	13.784835	-56.906795	192.13	-1.180	-0.410	3.240	191.88	-1.80	3.70	 	 	 	 	 	 	 	 	 	 	 	 	 	 	 	 	 	 	1581471617	11.49	21.28
12/02/2020 01:40:19	120220	12022020	014018	191.59	13.784787	-56.906815	191.79	-1.180	0.260	3.410	191.54	-0.80	3.80	 	 	 	 	 	 	 	 	 	 	 	 	 	 	 	 	 	 	1581471618	11.03	20.43
12/02/2020 01:40:20	120220	12022020	014019	191.34	13.784738	-56.906830	191.55	-0.800	0.640	3.170	191.31	-0.70	3.70	 	 	 	 	 	 	 	 	 	 	 	 	 	 	 	 	 	 	1581471619	10.92	20.22
12/02/2020 01:40:21	120220	12022020	014020	191.16	13.784687	-56.906845	191.39	-0.170	0.320	2.630	191.14	-1.00	3.20	 	 	 	 	 	 	 	 	 	 	 	 	 	 	 	 	 	 	1581471620	11.52	21.34
12/02/2020 01:40:22	120220	12022020	014021	191.09	13.784632	-56.906855	191.35	0.570	-0.290	1.930	191.10	-1.60	2.60	 	 	 	 	 	 	 	 	 	 	 	 	 	 	 	 	 	 	1581471621	11.92	22.08
12/02/2020 01:40:23	120220	12022020	014022	191.25	13.784580	-56.906862	191.57	1.180	-0.410	1.130	191.33	-1.80	1.80	 	 	 	 	 	 	 	 	 	 	 	 	 	 	 	 	 	 	1581471622	11.50	21.30
12/02/2020 01:40:24	120220	12022020	014023	191.78	13.784530	-56.906865	192.15	1.220	0.060	0.590	191.92	-1.40	1.20	 	 	 	 	 	 	 	 	 	 	 	 	 	 	 	 	 	 	1581471623	10.65	19.72
12/02/2020 01:40:25	120220	12022020	014024	192.41	13.784483	-56.906872	192.76	0.520	0.370	0.980	192.51	-1.00	1.40	 	 	 	 	 	 	 	 	 	 	 	 	 	 	 	 	 	 	1581471624	10.17	18.83
12/02/2020 01:40:26	120220	12022020	014025	192.72	13.784437	-56.906890	192.96	-0.470	-0.030	2.130	192.72	-1.30	2.50	 	 	 	 	 	 	 	 	 	 	 	 	 	 	 	 	 	 	1581471625	10.74	19.89
12/02/2020 01:40:27	120220	12022020	014026	192.51	13.784387	-56.906913	192.68	-1.040	-0.960	3.370	192.42	-2.20	3.70	 	 	 	 	 	 	 	 	 	 	 	 	 	 	 	 	 	 	1581471626	11.71	21.69
12/02/2020 01:40:28	120220	12022020	014027	191.95	13.784337	-56.906937	192.10	-0.800	-1.550	3.960	191.83	-2.90	4.40	 	 	 	 	 	 	 	 	 	 	 	 	 	 	 	 	 	 	1581471627	11.81	21.87
12/02/2020 01:40:29	120220	12022020	014028	191.38	13.784288	-56.906953	191.57	-0.060	-1.270	3.640	191.29	-2.30	3.70	 	 	 	 	 	 	 	 	 	 	 	 	 	 	 	 	 	 	1581471628	10.97	20.32
12/02/2020 01:40:30	120220	12022020	014029	191.08	13.784242	-56.906963	191.30	0.560	-0.530	2.730	191.05	-2.00	3.40	 	 	 	 	 	 	 	 	 	 	 	 	 	 	 	 	 	 	1581471629	10.41	19.28
12/02/2020 01:40:31	120220	12022020	014030	190.94	13.784192	-56.906968	191.16	0.720	-0.060	1.880	190.92	-1.40	2.10	 	 	 	 	 	 	 	 	 	 	 	 	 	 	 	 	 	 	1581471630	10.64	19.71
12/02/2020 01:40:32	120220	12022020	014031	190.81	13.784140	-56.906977	191.04	0.510	-0.080	1.440	190.80	-1.40	2.00	 	 	 	 	 	 	 	 	 	 	 	 	 	 	 	 	 	 	1581471631	11.23	20.80
12/02/2020 01:40:33	120220	12022020	014032	190.80	13.784088	-56.906987	191.06	0.120	-0.110	1.400	190.81	-1.50	1.90	 	 	 	 	 	 	 	 	 	 	 	 	 	 	 	 	 	 	1581471632	11.32	20.96
12/02/2020 01:40:34	120220	12022020	014033	191.00	13.784040	-56.907000	191.33	-0.240	0.150	1.530	191.08	-1.30	2.00	 	 	 	 	 	 	 	 	 	 	 	 	 	 	 	 	 	 	1581471633	10.92	20.22
12/02/2020 01:40:35	120220	12022020	014034	191.41	13.783992	-56.907012	191.73	-0.380	0.380	1.600	191.48	-1.00	2.10	 	 	 	 	 	 	 	 	 	 	 	 	 	 	 	 	 	 	1581471634	10.63	19.69
12/02/2020 01:40:36	120220	12022020	014035	191.72	13.783942	-56.907025	192.01	-0.230	0.090	1.700	191.77	-1.20	2.20	 	 	 	 	 	 	 	 	 	 	 	 	 	 	 	 	 	 	1581471635	11.01	20.39
12/02/2020 01:40:37	120220	12022020	014036	191.90	13.783890	-56.907038	192.17	0.110	-0.590	1.760	191.93	-1.90	2.30	 	 	 	 	 	 	 	 	 	 	 	 	 	 	 	 	 	 	1581471636	11.50	21.30
12/02/2020 01:40:38	120220	12022020	014037	192.01	13.783838	-56.907050	192.27	0.350	-0.980	1.760	192.01	-2.30	2.30	 	 	 	 	 	 	 	 	 	 	 	 	 	 	 	 	 	 	1581471637	11.36	21.04
12/02/2020 01:40:39	120220	12022020	014038	191.97	13.783788	-56.907060	192.17	0.270	-0.990	1.880	191.93	-2.40	2.40	 	 	 	 	 	 	 	 	 	 	 	 	 	 	 	 	 	 	1581471638	11.01	20.39
12/02/2020 01:40:40	120220	12022020	014039	191.78	13.783740	-56.907073	191.98	-0.140	-0.750	1.910	191.74	-2.20	2.40	 	 	 	 	 	 	 	 	 	 	 	 	 	 	 	 	 	 	1581471639	10.89	20.17
12/02/2020 01:40:41	120220	12022020	014040	191.62	13.783692	-56.907088	191.87	-0.670	-0.410	2.030	191.62	-1.80	2.50	 	 	 	 	 	 	 	 	 	 	 	 	 	 	 	 	 	 	1581471640	10.89	20.17
12/02/2020 01:40:42	120220	12022020	014041	191.69	13.783643	-56.907103	191.98	-0.960	0.010	1.920	191.72	-1.40	2.50	 	 	 	 	 	 	 	 	 	 	 	 	 	 	 	 	 	 	1581471641	10.83	20.06
12/02/2020 01:40:43	120220	12022020	014042	191.91	13.783595	-56.907117	192.19	-0.800	0.330	1.470	191.95	-1.10	2.10	 	 	 	 	 	 	 	 	 	 	 	 	 	 	 	 	 	 	1581471642	10.78	19.96
12/02/2020 01:40:44	120220	12022020	014043	192.05	13.783545	-56.907128	192.28	-0.230	0.190	1.120	192.06	-1.10	1.70	 	 	 	 	 	 	 	 	 	 	 	 	 	 	 	 	 	 	1581471643	11.11	20.58
12/02/2020 01:40:45	120220	12022020	014044	192.03	13.783492	-56.907140	192.22	0.520	-0.280	0.990	192.01	-1.60	1.50	 	 	 	 	 	 	 	 	 	 	 	 	 	 	 	 	 	 	1581471644	11.57	21.43
12/02/2020 01:40:46	120220	12022020	014045	191.93	13.783438	-56.907148	192.09	1.010	-0.600	0.940	191.89	-1.90	1.50	 	 	 	 	 	 	 	 	 	 	 	 	 	 	 	 	 	 	1581471645	11.54	21.37
12/02/2020 01:40:47	120220	12022020	014046	191.69	13.783388	-56.907158	191.83	1.000	-0.530	1.150	191.63	-1.90	1.60	 	 	 	 	 	 	 	 	 	 	 	 	 	 	 	 	 	 	1581471646	11.14	20.63
12/02/2020 01:40:48	120220	12022020	014047	191.39	13.783338	-56.907170	191.55	0.600	-0.150	1.450	191.34	-1.60	1.90	 	 	 	 	 	 	 	 	 	 	 	 	 	 	 	 	 	 	1581471647	10.79	19.98
12/02/2020 01:40:49	120220	12022020	014048	191.24	13.783290	-56.907182	191.47	0.100	0.290	1.630	191.25	-1.10	2.10	 	 	 	 	 	 	 	 	 	 	 	 	 	 	 	 	 	 	1581471648	10.65	19.72
12/02/2020 01:40:50	120220	12022020	014049	191.39	13.783243	-56.907195	191.71	-0.400	0.530	1.820	191.47	-0.90	2.30	 	 	 	 	 	 	 	 	 	 	 	 	 	 	 	 	 	 	1581471649	10.67	19.76
12/02/2020 01:40:51	120220	12022020	014050	191.85	13.783195	-56.907213	192.20	-0.780	0.430	2.050	191.95	-0.90	2.50	 	 	 	 	 	 	 	 	 	 	 	 	 	 	 	 	 	 	1581471650	10.81	20.02
12/02/2020 01:40:52	120220	12022020	014051	192.32	13.783148	-56.907232	192.62	-0.790	-0.120	2.090	192.39	-1.40	2.60	 	 	 	 	 	 	 	 	 	 	 	 	 	 	 	 	 	 	1581471651	11.08	20.52
12/02/2020 01:40:53	120220	12022020	014052	192.48	13.783097	-56.907248	192.69	-0.170	-0.970	1.710	192.47	-2.70	1.90	 	 	 	 	 	 	 	 	 	 	 	 	 	 	 	 	 	 	1581471652	11.40	21.11
12/02/2020 01:40:54	120220	12022020	014053	192.36	13.783045	-56.907258	192.54	0.840	-1.570	0.970	192.32	-2.90	1.60	 	 	 	 	 	 	 	 	 	 	 	 	 	 	 	 	 	 	1581471653	11.51	21.32
12/02/2020 01:40:55	120220	12022020	014054	192.24	13.782993	-56.907263	192.44	1.330	-1.480	0.510	192.23	-2.70	1.00	 	 	 	 	 	 	 	 	 	 	 	 	 	 	 	 	 	 	1581471654	11.07	20.50
12/02/2020 01:40:56	120220	12022020	014055	192.11	13.782943	-56.907270	192.28	0.870	-1.140	0.670	192.06	-2.50	1.10	 	 	 	 	 	 	 	 	 	 	 	 	 	 	 	 	 	 	1581471655	10.78	19.96
12/02/2020 01:40:57	120220	12022020	014056	191.67	13.782892	-56.907283	191.74	-0.090	-1.150	1.490	191.53	-2.50	1.90	 	 	 	 	 	 	 	 	 	 	 	 	 	 	 	 	 	 	1581471656	11.36	21.04
12/02/2020 01:40:58	120220	12022020	014057	190.83	13.782838	-56.907302	190.92	-0.900	-1.210	2.670	190.68	-2.60	3.00	 	 	 	 	 	 	 	 	 	 	 	 	 	 	 	 	 	 	1581471657	12.21	22.61
12/02/2020 01:40:59	120220	12022020	014058	190.26	13.782788	-56.907323	190.51	-1.430	-0.410	3.380	190.22	-1.90	3.90	 	 	 	 	 	 	 	 	 	 	 	 	 	 	 	 	 	 	1581471658	11.84	21.93
12/02/2020 01:41:00	120220	12022020	014059	190.38	13.782742	-56.907343	190.81	-1.690	1.130	3.210	190.50	-0.50	3.80	 	 	 	 	 	 	 	 	 	 	 	 	 	 	 	 	 	 	1581471659	10.73	19.87
12/02/2020 01:41:01	120220	12022020	014100	191.21	13.782697	-56.907358	191.74	-1.530	2.380	2.380	191.43	0.90	3.00	 	 	 	 	 	 	 	 	 	 	 	 	 	 	 	 	 	 	1581471660	10.17	18.83
12/02/2020 01:41:02	120220	12022020	014101	192.32	13.782648	-56.907372	192.82	-0.670	2.320	1.340	192.52	1.00	2.00	1017.60	26.00	26.00	20.90	21.00	-1.0	73.0	73.0	395.0	25.6	260.00	9.50	64.00	11.90	16	7411.0	27.2	27.2	1581471661	10.71	19.83
12/02/2020 01:41:03	120220	12022020	014102	193.11	13.782593	-56.907380	193.46	0.790	0.850	0.500	193.21	-0.30	1.10	 	 	 	 	 	 	 	 	 	 	 	 	 	 	 	 	 	 	1581471662	11.94	22.11
12/02/2020 01:41:04	120220	12022020	014103	193.43	13.782537	-56.907387	193.70	2.030	-0.790	0.270	193.45	-2.00	0.80	 	 	 	 	 	 	 	 	 	 	 	 	 	 	 	 	 	 	1581471663	12.24	22.67
12/02/2020 01:41:05	120220	12022020	014104	193.45	13.782487	-56.907395	193.69	2.190	-1.540	0.750	193.43	-2.90	1.20	 	 	 	 	 	 	 	 	 	 	 	 	 	 	 	 	 	 	1581471664	11.21	20.76
12/02/2020 01:41:06	120220	12022020	014105	193.23	13.782440	-56.907407	193.43	1.240	-1.470	1.720	193.16	-2.90	2.10	 	 	 	 	 	 	 	 	 	 	 	 	 	 	 	 	 	 	1581471665	10.18	18.85
12/02/2020 01:41:07	120220	12022020	014106	192.81	13.782397	-56.907425	192.99	-0.020	-1.200	2.800	192.71	-2.50	3.70	 	 	 	 	 	 	 	 	 	 	 	 	 	 	 	 	 	 	1581471666	10.17	18.83
12/02/2020 01:41:08	120220	12022020	014107	192.30	13.782350	-56.907447	192.50	-0.770	-1.110	3.440	192.20	-2.50	3.90	 	 	 	 	 	 	 	 	 	 	 	 	 	 	 	 	 	 	1581471667	10.79	19.98
12/02/2020 01:41:09	120220	12022020	014108	191.85	13.782302	-56.907467	192.07	-0.770	-1.200	3.410	191.78	-2.50	4.00	 	 	 	 	 	 	 	 	 	 	 	 	 	 	 	 	 	 	1581471668	11.36	21.04
12/02/2020 01:41:10	120220	12022020	014109	191.58	13.782250	-56.907483	191.83	-0.350	-1.120	2.920	191.55	-2.50	3.50	 	 	 	 	 	 	 	 	 	 	 	 	 	 	 	 	 	 	1581471669	11.51	21.32
12/02/2020 01:41:11	120220	12022020	014110	191.51	13.782198	-56.907495	191.82	-0.010	-0.670	2.110	191.54	-2.10	2.80	 	 	 	 	 	 	 	 	 	 	 	 	 	 	 	 	 	 	1581471670	11.32	20.96
12/02/2020 01:41:12	120220	12022020	014111	191.77	13.782150	-56.907503	192.13	-0.020	0.170	1.340	191.85	-1.30	2.00	 	 	 	 	 	 	 	 	 	 	 	 	 	 	 	 	 	 	1581471671	10.87	20.13
12/02/2020 01:41:13	120220	12022020	014112	192.26	13.782102	-56.907513	192.63	-0.290	0.930	1.070	192.37	-0.50	1.60	 	 	 	 	 	 	 	 	 	 	 	 	 	 	 	 	 	 	1581471672	10.59	19.61
12/02/2020 01:41:14	120220	12022020	014113	192.76	13.782052	-56.907527	193.07	-0.460	1.020	1.200	192.83	-0.30	1.70	 	 	 	 	 	 	 	 	 	 	 	 	 	 	 	 	 	 	1581471673	10.90	20.19
12/02/2020 01:41:15	120220	12022020	014114	192.93	13.782000	-56.907540	193.16	-0.210	0.310	1.500	192.93	-0.90	2.00	 	 	 	 	 	 	 	 	 	 	 	 	 	 	 	 	 	 	1581471674	11.64	21.56
12/02/2020 01:41:16	120220	12022020	014115	192.81	13.781947	-56.907555	193.01	0.270	-0.470	1.850	192.76	-1.80	2.30	 	 	 	 	 	 	 	 	 	 	 	 	 	 	 	 	 	 	1581471675	11.90	22.04
12/02/2020 01:41:17	120220	12022020	014116	192.61	13.781895	-56.907567	192.86	0.530	-0.620	2.030	192.59	-2.00	2.60	 	 	 	 	 	 	 	 	 	 	 	 	 	 	 	 	 	 	1581471676	11.30	20.93
12/02/2020 01:41:18	120220	12022020	014117	192.60	13.781848	-56.907578	192.88	0.280	-0.180	2.010	192.61	-1.60	2.50	 	 	 	 	 	 	 	 	 	 	 	 	 	 	 	 	 	 	1581471677	10.42	19.30
12/02/2020 01:41:19	120220	12022020	014118	192.65	13.781802	-56.907593	192.90	-0.140	0.120	2.000	192.65	-1.30	2.50	 	 	 	 	 	 	 	 	 	 	 	 	 	 	 	 	 	 	1581471678	10.26	19.00
12/02/2020 01:41:20	120220	12022020	014119	192.65	13.781753	-56.907608	192.90	-0.150	-0.120	1.770	192.65	-1.40	2.40	 	 	 	 	 	 	 	 	 	 	 	 	 	 	 	 	 	 	1581471679	10.81	20.02
12/02/2020 01:41:21	120220	12022020	014120	192.63	13.781703	-56.907620	192.86	0.320	-0.650	1.330	192.62	-2.30	1.70	 	 	 	 	 	 	 	 	 	 	 	 	 	 	 	 	 	 	1581471680	11.24	20.82
12/02/2020 01:41:22	120220	12022020	014121	192.55	13.781652	-56.907630	192.77	0.720	-1.060	1.050	192.53	-2.40	1.60	 	 	 	 	 	 	 	 	 	 	 	 	 	 	 	 	 	 	1581471681	11.29	20.91
12/02/2020 01:41:23	120220	12022020	014122	192.34	13.781602	-56.907642	192.48	0.650	-1.210	1.180	192.26	-2.60	1.70	 	 	 	 	 	 	 	 	 	 	 	 	 	 	 	 	 	 	1581471682	11.08	20.52
12/02/2020 01:41:24	120220	12022020	014123	191.82	13.781552	-56.907657	191.93	0.280	-1.270	1.760	191.70	-2.60	2.20	 	 	 	 	 	 	 	 	 	 	 	 	 	 	 	 	 	 	1581471683	11.25	20.84
12/02/2020 01:41:25	120220	12022020	014124	191.32	13.781500	-56.907673	191.52	-0.160	-1.010	2.280	191.27	-2.40	2.70	 	 	 	 	 	 	 	 	 	 	 	 	 	 	 	 	 	 	1581471684	11.46	21.22
12/02/2020 01:41:26	120220	12022020	014125	191.31	13.781452	-56.907690	191.65	-0.610	-0.100	2.520	191.38	-1.60	3.00	 	 	 	 	 	 	 	 	 	 	 	 	 	 	 	 	 	 	1581471685	10.98	20.33
12/02/2020 01:41:27	120220	12022020	014126	191.91	13.781407	-56.907707	192.35	-0.950	1.150	2.350	192.08	-0.40	2.90	 	 	 	 	 	 	 	 	 	 	 	 	 	 	 	 	 	 	1581471686	10.27	19.02
12/02/2020 01:41:28	120220	12022020	014127	192.79	13.781362	-56.907722	193.25	-0.930	1.760	1.990	192.98	0.40	2.60	 	 	 	 	 	 	 	 	 	 	 	 	 	 	 	 	 	 	1581471687	10.30	19.08
12/02/2020 01:41:29	120220	12022020	014128	193.62	13.781312	-56.907735	193.98	-0.390	1.170	1.450	193.75	-0.10	2.10	 	 	 	 	 	 	 	 	 	 	 	 	 	 	 	 	 	 	1581471688	11.14	20.63
12/02/2020 01:41:30	120220	12022020	014129	194.06	13.781257	-56.907747	194.30	0.420	-0.190	1.090	194.09	-1.40	1.60	 	 	 	 	 	 	 	 	 	 	 	 	 	 	 	 	 	 	1581471689	11.93	22.09
12/02/2020 01:41:31	120220	12022020	014130	194.04	13.781203	-56.907758	194.20	1.050	-1.420	1.020	193.99	-2.70	1.60	 	 	 	 	 	 	 	 	 	 	 	 	 	 	 	 	 	 	1581471690	11.95	22.13
12/02/2020 01:41:32	120220	12022020	014131	193.62	13.781152	-56.907768	193.71	1.280	-1.850	1.200	193.50	-3.20	1.70	 	 	 	 	 	 	 	 	 	 	 	 	 	 	 	 	 	 	1581471691	11.33	20.98
12/02/2020 01:41:33	120220	12022020	014132	193.00	13.781102	-56.907778	193.12	1.010	-1.500	1.580	192.88	-2.50	2.40	 	 	 	 	 	 	 	 	 	 	 	 	 	 	 	 	 	 	1581471692	10.75	19.91
12/02/2020 01:41:34	120220	12022020	014133	192.45	13.781055	-56.907792	192.61	0.300	-0.860	2.120	192.36	-2.30	2.60	 	 	 	 	 	 	 	 	 	 	 	 	 	 	 	 	 	 	1581471693	10.54	19.52
12/02/2020 01:41:35	120220	12022020	014134	191.98	13.781007	-56.907810	192.15	-0.510	-0.370	2.640	191.89	-1.80	3.10	 	 	 	 	 	 	 	 	 	 	 	 	 	 	 	 	 	 	1581471694	10.91	20.21
12/02/2020 01:41:36	120220	12022020	014135	191.58	13.780958	-56.907830	191.78	-1.060	-0.160	3.020	191.51	-1.50	3.50	 	 	 	 	 	 	 	 	 	 	 	 	 	 	 	 	 	 	1581471695	11.43	21.17
12/02/2020 01:41:37	120220	12022020	014136	191.37	13.780908	-56.907852	191.66	-1.190	0.020	3.080	191.37	-1.40	3.60	 	 	 	 	 	 	 	 	 	 	 	 	 	 	 	 	 	 	1581471696	11.62	21.52
12/02/2020 01:41:38	120220	12022020	014137	191.53	13.780858	-56.907868	191.88	-0.990	0.370	2.690	191.60	-1.10	3.30	 	 	 	 	 	 	 	 	 	 	 	 	 	 	 	 	 	 	1581471697	11.26	20.85
12/02/2020 01:41:39	120220	12022020	014138	191.92	13.780810	-56.907883	192.27	-0.550	0.620	2.020	192.00	-0.80	2.70	 	 	 	 	 	 	 	 	 	 	 	 	 	 	 	 	 	 	1581471698	10.95	20.28
12/02/2020 01:41:40	120220	12022020	014139	192.31	13.780758	-56.907895	192.65	0.100	0.410	1.290	192.39	-0.90	1.90	 	 	 	 	 	 	 	 	 	 	 	 	 	 	 	 	 	 	1581471699	11.19	20.72
12/02/2020 01:41:41	120220	12022020	014140	192.78	13.780707	-56.907902	193.15	0.760	0.060	0.640	192.90	-1.30	1.30	 	 	 	 	 	 	 	 	 	 	 	 	 	 	 	 	 	 	1581471700	11.35	21.02
12/02/2020 01:41:42	120220	12022020	014141	193.37	13.780657	-56.907908	193.73	1.040	-0.040	0.230	193.49	-1.40	0.80	 	 	 	 	 	 	 	 	 	 	 	 	 	 	 	 	 	 	1581471701	10.89	20.17
12/02/2020 01:41:43	120220	12022020	014142	193.81	13.780607	-56.907917	194.06	0.890	-0.310	0.460	193.84	-2.00	1.30	 	 	 	 	 	 	 	 	 	 	 	 	 	 	 	 	 	 	1581471702	10.69	19.80
12/02/2020 01:41:44	120220	12022020	014143	193.76	13.780557	-56.907930	193.93	0.660	-0.980	1.190	193.69	-2.30	1.60	 	 	 	 	 	 	 	 	 	 	 	 	 	 	 	 	 	 	1581471703	11.21	20.76
12/02/2020 01:41:45	120220	12022020	014144	193.35	13.780505	-56.907947	193.52	0.460	-1.540	2.090	193.25	-2.90	2.50	 	 	 	 	 	 	 	 	 	 	 	 	 	 	 	 	 	 	1581471704	11.54	21.37
12/02/2020 01:41:46	120220	12022020	014145	192.86	13.780455	-56.907963	193.05	0.120	-1.610	2.870	192.77	-3.00	3.30	 	 	 	 	 	 	 	 	 	 	 	 	 	 	 	 	 	 	1581471705	11.44	21.19
12/02/2020 01:41:47	120220	12022020	014146	192.38	13.780407	-56.907982	192.58	-0.430	-1.130	3.220	192.29	-2.60	3.70	 	 	 	 	 	 	 	 	 	 	 	 	 	 	 	 	 	 	1581471706	11.15	20.65
12/02/2020 01:41:48	120220	12022020	014147	191.92	13.780358	-56.908000	192.14	-0.940	-0.360	3.160	191.84	-1.80	3.70	 	 	 	 	 	 	 	 	 	 	 	 	 	 	 	 	 	 	1581471707	10.93	20.24
12/02/2020 01:41:49	120220	12022020	014148	191.62	13.780310	-56.908017	191.90	-1.090	0.350	2.730	191.61	-1.10	3.30	 	 	 	 	 	 	 	 	 	 	 	 	 	 	 	 	 	 	1581471708	10.96	20.30
12/02/2020 01:41:50	120220	12022020	014149	191.69	13.780262	-56.908030	192.01	-0.850	0.780	2.070	191.73	-0.60	2.70	 	 	 	 	 	 	 	 	 	 	 	 	 	 	 	 	 	 	1581471709	11.01	20.39
12/02/2020 01:41:51	120220	12022020	014150	191.90	13.780210	-56.908043	192.19	-0.370	0.610	1.460	191.93	-0.70	2.10	 	 	 	 	 	 	 	 	 	 	 	 	 	 	 	 	 	 	1581471710	11.32	20.96
12/02/2020 01:41:52	120220	12022020	014151	191.99	13.780157	-56.908055	192.24	0.150	0.000	1.220	191.99	-1.30	1.80	 	 	 	 	 	 	 	 	 	 	 	 	 	 	 	 	 	 	1581471711	11.76	21.78
12/02/2020 01:41:53	120220	12022020	014152	192.05	13.780103	-56.908068	192.35	0.480	-0.440	1.230	192.10	-1.80	1.80	 	 	 	 	 	 	 	 	 	 	 	 	 	 	 	 	 	 	1581471712	11.62	21.52
12/02/2020 01:41:54	120220	12022020	014153	192.40	13.780055	-56.908080	192.77	0.530	-0.310	1.190	192.51	-1.70	1.70	 	 	 	 	 	 	 	 	 	 	 	 	 	 	 	 	 	 	1581471713	10.87	20.13
12/02/2020 01:41:55	120220	12022020	014154	192.92	13.780007	-56.908088	193.28	0.450	-0.070	1.100	193.01	-1.50	1.70	 	 	 	 	 	 	 	 	 	 	 	 	 	 	 	 	 	 	1581471714	10.47	19.39
12/02/2020 01:41:56	120220	12022020	014155	193.23	13.779957	-56.908100	193.48	0.410	-0.330	1.270	193.25	-1.60	1.80	 	 	 	 	 	 	 	 	 	 	 	 	 	 	 	 	 	 	1581471715	10.93	20.24
12/02/2020 01:41:57	120220	12022020	014156	193.20	13.779905	-56.908115	193.43	0.420	-0.890	1.720	193.18	-2.40	2.50	 	 	 	 	 	 	 	 	 	 	 	 	 	 	 	 	 	 	1581471716	11.53	21.35
12/02/2020 01:41:58	120220	12022020	014157	193.11	13.779853	-56.908128	193.35	0.370	-1.130	2.100	193.09	-2.50	2.60	 	 	 	 	 	 	 	 	 	 	 	 	 	 	 	 	 	 	1581471717	11.46	21.22
12/02/2020 01:41:59	120220	12022020	014158	192.95	13.779803	-56.908142	193.18	0.120	-0.980	2.360	192.91	-2.40	2.80	 	 	 	 	 	 	 	 	 	 	 	 	 	 	 	 	 	 	1581471718	11.17	20.69
12/02/2020 01:42:00	120220	12022020	014159	192.79	13.779753	-56.908158	193.08	-0.350	-0.690	2.650	192.78	-2.10	3.10	 	 	 	 	 	 	 	 	 	 	 	 	 	 	 	 	 	 	1581471719	11.19	20.72
12/02/2020 01:42:01	120220	12022020	014200	192.80	13.779705	-56.908177	193.11	-0.960	-0.220	2.990	192.81	-1.70	3.50	 	 	 	 	 	 	 	 	 	 	 	 	 	 	 	 	 	 	1581471720	11.10	20.56
12/02/2020 01:42:02	120220	12022020	014201	192.81	13.779658	-56.908197	193.05	-1.330	0.340	3.030	192.78	-1.10	3.50	1017.50	26.00	26.10	21.10	21.10	-1.0	74.0	74.0	394.0	25.6	264.00	10.10	69.00	12.10	16	8371.0	27.2	27.2	1581471721	10.88	20.15
12/02/2020 01:42:03	120220	12022020	014202	192.58	13.779610	-56.908215	192.77	-1.060	0.410	2.850	192.51	-0.90	3.40	 	 	 	 	 	 	 	 	 	 	 	 	 	 	 	 	 	 	1581471722	11.19	20.72
12/02/2020 01:42:04	120220	12022020	014203	192.20	13.779558	-56.908232	192.35	-0.140	-0.040	2.520	192.11	-1.30	3.10	 	 	 	 	 	 	 	 	 	 	 	 	 	 	 	 	 	 	1581471723	11.80	21.85
12/02/2020 01:42:05	120220	12022020	014204	191.89	13.779503	-56.908243	192.11	0.940	-0.330	1.810	191.87	-1.70	2.50	 	 	 	 	 	 	 	 	 	 	 	 	 	 	 	 	 	 	1581471724	11.80	21.85
12/02/2020 01:42:06	120220	12022020	014205	191.95	13.779453	-56.908248	192.24	1.550	-0.060	0.970	192.00	-1.50	1.60	 	 	 	 	 	 	 	 	 	 	 	 	 	 	 	 	 	 	1581471725	11.09	20.54
12/02/2020 01:42:07	120220	12022020	014206	192.32	13.779403	-56.908253	192.63	1.370	0.300	0.630	192.40	-1.10	1.20	 	 	 	 	 	 	 	 	 	 	 	 	 	 	 	 	 	 	1581471726	10.54	19.52
12/02/2020 01:42:08	120220	12022020	014207	192.69	13.779355	-56.908263	192.96	0.630	0.080	1.200	192.74	-1.20	1.60	 	 	 	 	 	 	 	 	 	 	 	 	 	 	 	 	 	 	1581471727	10.73	19.87
12/02/2020 01:42:09	120220	12022020	014208	192.81	13.779305	-56.908282	193.05	-0.230	-0.710	2.260	192.81	-2.50	3.30	 	 	 	 	 	 	 	 	 	 	 	 	 	 	 	 	 	 	1581471728	11.45	21.21
12/02/2020 01:42:10	120220	12022020	014209	192.78	13.779255	-56.908305	193.03	-0.870	-1.400	3.240	192.76	-2.70	3.60	 	 	 	 	 	 	 	 	 	 	 	 	 	 	 	 	 	 	1581471729	11.77	21.80
12/02/2020 01:42:11	120220	12022020	014210	192.60	13.779207	-56.908328	192.84	-1.090	-1.550	3.720	192.56	-2.80	4.20	 	 	 	 	 	 	 	 	 	 	 	 	 	 	 	 	 	 	1581471730	11.50	21.30
12/02/2020 01:42:12	120220	12022020	014211	192.32	13.779158	-56.908347	192.54	-0.840	-1.240	3.440	192.26	-2.70	4.00	 	 	 	 	 	 	 	 	 	 	 	 	 	 	 	 	 	 	1581471731	11.08	20.52
12/02/2020 01:42:13	120220	12022020	014212	191.97	13.779108	-56.908360	192.18	-0.300	-0.780	2.760	191.91	-2.20	3.40	 	 	 	 	 	 	 	 	 	 	 	 	 	 	 	 	 	 	1581471732	11.08	20.52
12/02/2020 01:42:14	120220	12022020	014213	191.81	13.779058	-56.908368	192.09	0.080	-0.120	1.820	191.82	-1.60	2.50	 	 	 	 	 	 	 	 	 	 	 	 	 	 	 	 	 	 	1581471733	11.08	20.52
12/02/2020 01:42:15	120220	12022020	014214	192.00	13.779008	-56.908377	192.30	0.080	0.560	1.050	192.06	-0.90	1.70	 	 	 	 	 	 	 	 	 	 	 	 	 	 	 	 	 	 	1581471734	10.79	19.98
12/02/2020 01:42:16	120220	12022020	014215	192.26	13.778958	-56.908387	192.51	0.020	0.750	0.780	192.29	-0.60	1.30	 	 	 	 	 	 	 	 	 	 	 	 	 	 	 	 	 	 	1581471735	10.98	20.33
12/02/2020 01:42:17	120220	12022020	014216	192.34	13.778905	-56.908397	192.58	0.240	0.290	0.920	192.35	-1.00	1.40	 	 	 	 	 	 	 	 	 	 	 	 	 	 	 	 	 	 	1581471736	11.61	21.50
12/02/2020 01:42:18	120220	12022020	014217	192.36	13.778852	-56.908410	192.59	0.500	-0.280	1.390	192.36	-1.60	1.80	 	 	 	 	 	 	 	 	 	 	 	 	 	 	 	 	 	 	1581471737	11.80	21.85
12/02/2020 01:42:19	120220	12022020	014218	192.26	13.778800	-56.908425	192.45	0.470	-0.550	1.980	192.21	-1.90	2.40	 	 	 	 	 	 	 	 	 	 	 	 	 	 	 	 	 	 	1581471738	11.44	21.19
12/02/2020 01:42:20	120220	12022020	014219	192.02	13.778752	-56.908440	192.23	0.130	-0.440	2.450	191.98	-1.80	2.90	 	 	 	 	 	 	 	 	 	 	 	 	 	 	 	 	 	 	1581471739	11.03	20.43
12/02/2020 01:42:21	120220	12022020	014220	191.87	13.778705	-56.908457	192.11	-0.270	-0.020	2.680	191.85	-1.20	3.20	 	 	 	 	 	 	 	 	 	 	 	 	 	 	 	 	 	 	1581471740	10.56	19.56
12/02/2020 01:42:22	120220	12022020	014221	191.77	13.778658	-56.908470	192.00	-0.360	0.270	2.600	191.75	-1.10	3.10	 	 	 	 	 	 	 	 	 	 	 	 	 	 	 	 	 	 	1581471741	10.41	19.28
12/02/2020 01:42:23	120220	12022020	014222	191.63	13.778608	-56.908483	191.86	-0.030	-0.140	2.260	191.60	-1.40	2.80	 	 	 	 	 	 	 	 	 	 	 	 	 	 	 	 	 	 	1581471742	11.10	20.56
12/02/2020 01:42:24	120220	12022020	014223	191.48	13.778555	-56.908497	191.74	0.340	-0.900	2.100	191.46	-2.10	2.60	 	 	 	 	 	 	 	 	 	 	 	 	 	 	 	 	 	 	1581471743	11.71	21.69
12/02/2020 01:42:25	120220	12022020	014224	191.44	13.778503	-56.908512	191.77	0.310	-1.320	2.290	191.47	-2.60	2.90	 	 	 	 	 	 	 	 	 	 	 	 	 	 	 	 	 	 	1581471744	11.59	21.46
12/02/2020 01:42:26	120220	12022020	014225	191.64	13.778455	-56.908528	192.01	-0.100	-1.100	2.490	191.70	-2.50	3.00	 	 	 	 	 	 	 	 	 	 	 	 	 	 	 	 	 	 	1581471745	10.98	20.33
12/02/2020 01:42:27	120220	12022020	014226	191.94	13.778408	-56.908545	192.32	-0.480	-0.550	2.530	192.00	-2.00	3.10	 	 	 	 	 	 	 	 	 	 	 	 	 	 	 	 	 	 	1581471746	10.62	19.67
12/02/2020 01:42:28	120220	12022020	014227	192.18	13.778360	-56.908560	192.52	-0.400	-0.210	2.270	192.21	-1.60	2.80	 	 	 	 	 	 	 	 	 	 	 	 	 	 	 	 	 	 	1581471747	10.83	20.06
12/02/2020 01:42:29	120220	12022020	014228	192.28	13.778308	-56.908570	192.61	0.030	-0.090	1.880	192.31	-1.50	2.50	 	 	 	 	 	 	 	 	 	 	 	 	 	 	 	 	 	 	1581471748	11.29	20.91
12/02/2020 01:42:30	120220	12022020	014229	192.55	13.778258	-56.908580	192.94	0.320	0.170	1.460	192.65	-1.20	2.10	 	 	 	 	 	 	 	 	 	 	 	 	 	 	 	 	 	 	1581471749	11.20	20.74
12/02/2020 01:42:31	120220	12022020	014230	193.07	13.778208	-56.908588	193.43	0.270	0.450	1.060	193.17	-0.90	1.60	 	 	 	 	 	 	 	 	 	 	 	 	 	 	 	 	 	 	1581471750	10.85	20.09
12/02/2020 01:42:32	120220	12022020	014231	193.35	13.778157	-56.908598	193.57	0.170	0.070	1.120	193.34	-1.20	1.60	 	 	 	 	 	 	 	 	 	 	 	 	 	 	 	 	 	 	1581471751	11.24	20.82
12/02/2020 01:42:33	120220	12022020	014232	193.08	13.778102	-56.908612	193.22	0.280	-0.910	1.750	192.97	-2.70	2.70	 	 	 	 	 	 	 	 	 	 	 	 	 	 	 	 	 	 	1581471752	12.14	22.48
12/02/2020 01:42:34	120220	12022020	014233	192.49	13.778047	-56.908628	192.63	0.210	-1.480	2.740	192.35	-2.80	3.10	 	 	 	 	 	 	 	 	 	 	 	 	 	 	 	 	 	 	1581471753	12.19	22.58
12/02/2020 01:42:35	120220	12022020	014234	191.77	13.777998	-56.908648	191.91	-0.280	-1.000	3.600	191.62	-1.80	4.30	 	 	 	 	 	 	 	 	 	 	 	 	 	 	 	 	 	 	1581471754	11.37	21.06
12/02/2020 01:42:36	120220	12022020	014235	191.04	13.777953	-56.908668	191.22	-0.880	0.090	3.800	190.92	-1.40	4.30	 	 	 	 	 	 	 	 	 	 	 	 	 	 	 	 	 	 	1581471755	10.59	19.61
12/02/2020 01:42:37	120220	12022020	014236	190.49	13.777907	-56.908687	190.73	-1.010	0.830	3.460	190.43	-0.40	3.60	 	 	 	 	 	 	 	 	 	 	 	 	 	 	 	 	 	 	1581471756	10.61	19.65
12/02/2020 01:42:38	120220	12022020	014237	190.36	13.777858	-56.908702	190.70	-0.530	0.960	2.560	190.40	-0.40	3.20	 	 	 	 	 	 	 	 	 	 	 	 	 	 	 	 	 	 	1581471757	10.96	20.30
12/02/2020 01:42:39	120220	12022020	014238	190.74	13.777808	-56.908712	191.15	0.130	0.700	1.460	190.86	-0.60	2.10	 	 	 	 	 	 	 	 	 	 	 	 	 	 	 	 	 	 	1581471758	11.03	20.43
12/02/2020 01:42:40	120220	12022020	014239	191.34	13.777758	-56.908720	191.73	0.600	0.140	0.720	191.46	-1.10	1.30	 	 	 	 	 	 	 	 	 	 	 	 	 	 	 	 	 	 	1581471759	10.96	20.30
12/02/2020 01:42:41	120220	12022020	014240	191.81	13.777707	-56.908732	192.14	0.840	-0.710	0.660	191.88	-2.50	1.40	 	 	 	 	 	 	 	 	 	 	 	 	 	 	 	 	 	 	1581471760	11.11	20.58
12/02/2020 01:42:42	120220	12022020	014241	192.04	13.777657	-56.908743	192.32	0.910	-1.550	1.050	192.05	-2.80	1.50	 	 	 	 	 	 	 	 	 	 	 	 	 	 	 	 	 	 	1581471761	11.27	20.87
12/02/2020 01:42:43	120220	12022020	014242	192.01	13.777605	-56.908755	192.27	0.800	-2.030	1.610	191.98	-3.30	2.10	 	 	 	 	 	 	 	 	 	 	 	 	 	 	 	 	 	 	1581471762	11.31	20.95
12/02/2020 01:42:44	120220	12022020	014243	191.88	13.777555	-56.908768	192.18	0.460	-1.800	2.060	191.87	-3.20	2.50	 	 	 	 	 	 	 	 	 	 	 	 	 	 	 	 	 	 	1581471763	11.10	20.56
12/02/2020 01:42:45	120220	12022020	014244	191.93	13.777507	-56.908782	192.25	-0.090	-0.880	2.260	191.95	-1.70	2.80	 	 	 	 	 	 	 	 	 	 	 	 	 	 	 	 	 	 	1581471764	10.63	19.69
12/02/2020 01:42:46	120220	12022020	014245	191.98	13.777460	-56.908795	192.24	-0.650	-0.030	2.360	191.95	-1.40	2.90	 	 	 	 	 	 	 	 	 	 	 	 	 	 	 	 	 	 	1581471765	10.67	19.76
12/02/2020 01:42:47	120220	12022020	014246	191.70	13.777407	-56.908808	191.88	-0.910	0.130	2.580	191.60	-1.30	3.30	 	 	 	 	 	 	 	 	 	 	 	 	 	 	 	 	 	 	1581471766	11.55	21.39
12/02/2020 01:42:48	120220	12022020	014247	191.13	13.777353	-56.908825	191.30	-0.850	-0.020	2.960	191.02	-1.30	3.40	 	 	 	 	 	 	 	 	 	 	 	 	 	 	 	 	 	 	1581471767	12.22	22.63
12/02/2020 01:42:49	120220	12022020	014248	190.67	13.777300	-56.908840	190.91	-0.760	0.240	3.150	190.62	-0.80	3.60	 	 	 	 	 	 	 	 	 	 	 	 	 	 	 	 	 	 	1581471768	11.83	21.91
12/02/2020 01:42:50	120220	12022020	014249	190.50	13.777250	-56.908857	190.79	-0.740	0.770	3.030	190.49	-0.60	3.60	 	 	 	 	 	 	 	 	 	 	 	 	 	 	 	 	 	 	1581471769	11.11	20.58
12/02/2020 01:42:51	120220	12022020	014250	190.54	13.777202	-56.908872	190.87	-0.580	1.100	2.650	190.58	-0.30	3.20	 	 	 	 	 	 	 	 	 	 	 	 	 	 	 	 	 	 	1581471770	10.83	20.06
12/02/2020 01:42:52	120220	12022020	014251	190.85	13.777153	-56.908883	191.23	-0.100	1.110	1.880	190.95	-0.20	2.50	 	 	 	 	 	 	 	 	 	 	 	 	 	 	 	 	 	 	1581471771	10.70	19.82
12/02/2020 01:42:53	120220	12022020	014252	191.37	13.777105	-56.908892	191.73	0.580	0.680	1.010	191.47	-0.60	1.60	 	 	 	 	 	 	 	 	 	 	 	 	 	 	 	 	 	 	1581471772	10.66	19.74
12/02/2020 01:42:54	120220	12022020	014253	191.80	13.777055	-56.908900	192.08	1.210	-0.290	0.520	191.84	-1.50	1.10	 	 	 	 	 	 	 	 	 	 	 	 	 	 	 	 	 	 	1581471773	10.97	20.32
12/02/2020 01:42:55	120220	12022020	014254	191.96	13.777003	-56.908908	192.24	1.540	-1.410	0.470	191.99	-2.60	1.00	 	 	 	 	 	 	 	 	 	 	 	 	 	 	 	 	 	 	1581471774	11.29	20.91
12/02/2020 01:42:56	120220	12022020	014255	192.19	13.776953	-56.908918	192.52	1.250	-1.850	0.650	192.25	-3.20	1.10	 	 	 	 	 	 	 	 	 	 	 	 	 	 	 	 	 	 	1581471775	10.85	20.09
12/02/2020 01:42:57	120220	12022020	014256	192.48	13.776907	-56.908930	192.77	0.460	-1.680	1.190	192.50	-3.00	1.60	 	 	 	 	 	 	 	 	 	 	 	 	 	 	 	 	 	 	1581471776	10.24	18.96
12/02/2020 01:42:58	120220	12022020	014257	192.32	13.776860	-56.908947	192.48	-0.200	-1.740	2.160	192.20	-3.00	2.50	 	 	 	 	 	 	 	 	 	 	 	 	 	 	 	 	 	 	1581471777	10.85	20.09
12/02/2020 01:42:59	120220	12022020	014258	191.68	13.776807	-56.908965	191.86	-0.480	-1.920	3.010	191.56	-3.10	3.80	 	 	 	 	 	 	 	 	 	 	 	 	 	 	 	 	 	 	1581471778	11.95	22.13
12/02/2020 01:43:00	120220	12022020	014259	191.26	13.776755	-56.908983	191.59	-0.680	-1.290	3.350	191.25	-2.80	3.80	 	 	 	 	 	 	 	 	 	 	 	 	 	 	 	 	 	 	1581471779	11.80	21.85
12/02/2020 01:43:01	120220	12022020	014300	191.46	13.776707	-56.909000	191.91	-1.050	0.260	3.150	191.55	-0.30	3.40	 	 	 	 	 	 	 	 	 	 	 	 	 	 	 	 	 	 	1581471780	10.77	19.95
12/02/2020 01:43:02	120220	12022020	014301	192.01	13.776662	-56.909013	192.42	-1.400	1.560	2.720	192.10	0.10	3.30	1017.60	26.00	26.10	20.50	20.70	-1.0	71.0	72.0	394.0	25.6	267.00	10.00	70.00	11.80	15	9330.0	27.2	27.2	1581471781	10.41	19.28
12/02/2020 01:43:03	120220	12022020	014302	192.30	13.776610	-56.909030	192.56	-1.250	1.570	2.470	192.29	0.30	3.00	 	 	 	 	 	 	 	 	 	 	 	 	 	 	 	 	 	 	1581471782	11.36	21.04
12/02/2020 01:43:04	120220	12022020	014303	192.06	13.776555	-56.909045	192.24	-0.450	0.600	2.460	191.98	-0.60	3.00	 	 	 	 	 	 	 	 	 	 	 	 	 	 	 	 	 	 	1581471783	12.45	23.06
12/02/2020 01:43:05	120220	12022020	014304	191.72	13.776500	-56.909058	191.95	0.490	0.040	2.170	191.69	-1.30	2.80	 	 	 	 	 	 	 	 	 	 	 	 	 	 	 	 	 	 	1581471784	12.14	22.48
12/02/2020 01:43:06	120220	12022020	014305	191.66	13.776450	-56.909067	191.97	0.950	0.340	1.590	191.69	-1.10	2.20	 	 	 	 	 	 	 	 	 	 	 	 	 	 	 	 	 	 	1581471785	10.74	19.89
12/02/2020 01:43:07	120220	12022020	014306	191.92	13.776405	-56.909073	192.26	0.810	0.680	0.900	191.99	-0.70	1.50	 	 	 	 	 	 	 	 	 	 	 	 	 	 	 	 	 	 	1581471786	9.99	18.50
12/02/2020 01:43:08	120220	12022020	014307	192.27	13.776358	-56.909082	192.57	0.480	0.390	0.630	192.32	-0.90	1.20	 	 	 	 	 	 	 	 	 	 	 	 	 	 	 	 	 	 	1581471787	10.19	18.87
12/02/2020 01:43:09	120220	12022020	014308	192.38	13.776308	-56.909095	192.60	0.370	-0.560	1.070	192.35	-1.70	1.50	 	 	 	 	 	 	 	 	 	 	 	 	 	 	 	 	 	 	1581471788	10.80	20.00
12/02/2020 01:43:10	120220	12022020	014309	192.06	13.776258	-56.909112	192.21	0.490	-1.780	1.970	191.94	-2.90	2.30	 	 	 	 	 	 	 	 	 	 	 	 	 	 	 	 	 	 	1581471789	11.42	21.15
12/02/2020 01:43:11	120220	12022020	014310	191.33	13.776207	-56.909130	191.44	0.590	-2.620	3.030	191.16	-3.90	3.40	 	 	 	 	 	 	 	 	 	 	 	 	 	 	 	 	 	 	1581471790	11.73	21.72
12/02/2020 01:43:12	120220	12022020	014311	190.57	13.776158	-56.909148	190.79	0.390	-2.380	3.650	190.47	-3.80	4.10	 	 	 	 	 	 	 	 	 	 	 	 	 	 	 	 	 	 	1581471791	11.31	20.95
12/02/2020 01:43:13	120220	12022020	014312	190.29	13.776112	-56.909163	190.63	-0.120	-1.020	3.630	190.30	-2.60	4.20	 	 	 	 	 	 	 	 	 	 	 	 	 	 	 	 	 	 	1581471792	10.29	19.06
12/02/2020 01:43:14	120220	12022020	014313	190.41	13.776068	-56.909178	190.76	-0.610	0.460	3.350	190.44	-1.00	3.90	 	 	 	 	 	 	 	 	 	 	 	 	 	 	 	 	 	 	1581471793	9.90	18.33
12/02/2020 01:43:15	120220	12022020	014314	190.49	13.776020	-56.909190	190.81	-0.650	0.840	2.970	190.50	-0.50	3.50	 	 	 	 	 	 	 	 	 	 	 	 	 	 	 	 	 	 	1581471794	10.86	20.11
12/02/2020 01:43:16	120220	12022020	014315	190.50	13.775965	-56.909202	190.81	-0.300	0.310	2.650	190.50	-0.90	3.20	 	 	 	 	 	 	 	 	 	 	 	 	 	 	 	 	 	 	1581471795	12.05	22.32
12/02/2020 01:43:17	120220	12022020	014316	190.56	13.775910	-56.909213	190.90	0.050	-0.150	2.580	190.58	-1.50	3.10	 	 	 	 	 	 	 	 	 	 	 	 	 	 	 	 	 	 	1581471796	12.10	22.41
12/02/2020 01:43:18	120220	12022020	014317	190.72	13.775858	-56.909223	191.08	0.060	-0.020	2.620	190.77	-1.40	3.10	 	 	 	 	 	 	 	 	 	 	 	 	 	 	 	 	 	 	1581471797	11.31	20.95
12/02/2020 01:43:19	120220	12022020	014318	190.98	13.775810	-56.909235	191.33	-0.210	0.380	2.710	191.03	-1.00	3.20	 	 	 	 	 	 	 	 	 	 	 	 	 	 	 	 	 	 	1581471798	10.60	19.63
12/02/2020 01:43:20	120220	12022020	014319	191.19	13.775762	-56.909248	191.53	-0.380	0.390	2.750	191.23	-0.90	3.30	 	 	 	 	 	 	 	 	 	 	 	 	 	 	 	 	 	 	1581471799	10.70	19.82
12/02/2020 01:43:21	120220	12022020	014320	191.33	13.775712	-56.909260	191.64	-0.210	-0.100	2.650	191.34	-1.40	3.20	 	 	 	 	 	 	 	 	 	 	 	 	 	 	 	 	 	 	1581471800	11.16	20.67
12/02/2020 01:43:22	120220	12022020	014321	191.27	13.775660	-56.909272	191.53	0.200	-0.640	2.530	191.23	-1.90	3.10	 	 	 	 	 	 	 	 	 	 	 	 	 	 	 	 	 	 	1581471801	11.34	21.00
12/02/2020 01:43:23	120220	12022020	014322	191.11	13.775610	-56.909283	191.38	0.550	-0.760	2.220	191.09	-2.00	2.50	 	 	 	 	 	 	 	 	 	 	 	 	 	 	 	 	 	 	1581471802	10.99	20.35
12/02/2020 01:43:24	120220	12022020	014323	191.09	13.775562	-56.909292	191.38	0.700	-0.430	1.650	191.11	-1.80	2.30	 	 	 	 	 	 	 	 	 	 	 	 	 	 	 	 	 	 	1581471803	10.46	19.37
12/02/2020 01:43:25	120220	12022020	014324	191.22	13.775513	-56.909298	191.51	0.660	-0.160	1.120	191.25	-1.50	1.70	 	 	 	 	 	 	 	 	 	 	 	 	 	 	 	 	 	 	1581471804	10.38	19.22
12/02/2020 01:43:26	120220	12022020	014325	191.28	13.775463	-56.909307	191.53	0.440	-0.390	1.070	191.27	-1.70	1.60	 	 	 	 	 	 	 	 	 	 	 	 	 	 	 	 	 	 	1581471805	10.88	20.15
12/02/2020 01:43:27	120220	12022020	014326	191.24	13.775413	-56.909320	191.53	0.020	-0.910	1.540	191.24	-2.20	2.00	 	 	 	 	 	 	 	 	 	 	 	 	 	 	 	 	 	 	1581471806	11.44	21.19
12/02/2020 01:43:28	120220	12022020	014327	191.20	13.775362	-56.909340	191.49	-0.480	-1.130	2.370	191.19	-2.50	2.80	 	 	 	 	 	 	 	 	 	 	 	 	 	 	 	 	 	 	1581471807	11.49	21.28
12/02/2020 01:43:29	120220	12022020	014328	191.08	13.775313	-56.909360	191.34	-0.720	-0.910	2.940	191.03	-2.30	3.40	 	 	 	 	 	 	 	 	 	 	 	 	 	 	 	 	 	 	1581471808	11.25	20.84
12/02/2020 01:43:30	120220	12022020	014329	190.84	13.775265	-56.909377	191.10	-0.530	-0.480	2.910	190.80	-1.90	3.50	 	 	 	 	 	 	 	 	 	 	 	 	 	 	 	 	 	 	1581471809	11.14	20.63
12/02/2020 01:43:31	120220	12022020	014330	190.69	13.775215	-56.909388	190.99	-0.120	0.110	2.490	190.69	-1.30	3.10	 	 	 	 	 	 	 	 	 	 	 	 	 	 	 	 	 	 	1581471810	10.99	20.35
12/02/2020 01:43:32	120220	12022020	014331	190.87	13.775167	-56.909397	191.26	0.120	0.720	1.670	190.96	-0.70	2.30	 	 	 	 	 	 	 	 	 	 	 	 	 	 	 	 	 	 	1581471811	10.72	19.85
12/02/2020 01:43:33	120220	12022020	014332	191.38	13.775117	-56.909403	191.75	0.130	0.950	0.870	191.48	-0.40	1.50	 	 	 	 	 	 	 	 	 	 	 	 	 	 	 	 	 	 	1581471812	10.65	19.72
12/02/2020 01:43:34	120220	12022020	014333	191.69	13.775065	-56.909412	191.95	0.190	0.210	0.800	191.69	-1.00	1.30	 	 	 	 	 	 	 	 	 	 	 	 	 	 	 	 	 	 	1581471813	11.33	20.98
12/02/2020 01:43:35	120220	12022020	014334	191.54	13.775010	-56.909423	191.75	0.460	-1.010	1.230	191.49	-2.20	1.70	 	 	 	 	 	 	 	 	 	 	 	 	 	 	 	 	 	 	1581471814	12.16	22.52
12/02/2020 01:43:36	120220	12022020	014335	191.36	13.774957	-56.909435	191.65	0.610	-1.400	1.560	191.36	-2.80	2.10	 	 	 	 	 	 	 	 	 	 	 	 	 	 	 	 	 	 	1581471815	11.69	21.65
12/02/2020 01:43:37	120220	12022020	014336	191.44	13.774910	-56.909447	191.76	0.290	-0.730	1.790	191.46	-1.70	2.40	 	 	 	 	 	 	 	 	 	 	 	 	 	 	 	 	 	 	1581471816	10.41	19.28
12/02/2020 01:43:38	120220	12022020	014337	191.51	13.774863	-56.909458	191.78	-0.300	-0.090	2.100	191.49	-1.50	2.60	 	 	 	 	 	 	 	 	 	 	 	 	 	 	 	 	 	 	1581471817	10.11	18.72
12/02/2020 01:43:39	120220	12022020	014338	191.29	13.774815	-56.909475	191.50	-0.690	-0.260	2.680	191.21	-1.60	3.10	 	 	 	 	 	 	 	 	 	 	 	 	 	 	 	 	 	 	1581471818	11.06	20.48
12/02/2020 01:43:40	120220	12022020	014339	190.81	13.774762	-56.909493	191.00	-0.680	-0.830	3.280	190.71	-2.10	3.70	 	 	 	 	 	 	 	 	 	 	 	 	 	 	 	 	 	 	1581471819	11.97	22.17
12/02/2020 01:43:41	120220	12022020	014340	190.33	13.774710	-56.909512	190.58	-0.470	-0.950	3.480	190.26	-2.30	4.00	 	 	 	 	 	 	 	 	 	 	 	 	 	 	 	 	 	 	1581471820	11.85	21.95
12/02/2020 01:43:42	120220	12022020	014341	190.10	13.774662	-56.909527	190.40	-0.250	-0.410	3.070	190.09	-1.90	3.70	 	 	 	 	 	 	 	 	 	 	 	 	 	 	 	 	 	 	1581471821	11.06	20.48
12/02/2020 01:43:43	120220	12022020	014342	190.10	13.774613	-56.909538	190.42	-0.040	0.230	2.400	190.12	-1.20	3.00	 	 	 	 	 	 	 	 	 	 	 	 	 	 	 	 	 	 	1581471822	10.64	19.71
12/02/2020 01:43:44	120220	12022020	014343	190.17	13.774563	-56.909547	190.46	0.270	0.440	1.910	190.18	-0.90	2.50	 	 	 	 	 	 	 	 	 	 	 	 	 	 	 	 	 	 	1581471823	10.95	20.28
12/02/2020 01:43:45	120220	12022020	014344	190.27	13.774510	-56.909555	190.60	0.530	0.330	1.600	190.32	-1.00	2.20	 	 	 	 	 	 	 	 	 	 	 	 	 	 	 	 	 	 	1581471824	11.29	20.91
12/02/2020 01:43:46	120220	12022020	014345	190.63	13.774460	-56.909563	191.01	0.520	0.280	1.440	190.72	-1.10	2.00	 	 	 	 	 	 	 	 	 	 	 	 	 	 	 	 	 	 	1581471825	11.04	20.45
12/02/2020 01:43:47	120220	12022020	014346	191.10	13.774410	-56.909573	191.46	0.290	0.150	1.550	191.17	-1.20	2.10	 	 	 	 	 	 	 	 	 	 	 	 	 	 	 	 	 	 	1581471826	10.79	19.98
12/02/2020 01:43:48	120220	12022020	014347	191.34	13.774360	-56.909583	191.65	0.060	-0.290	1.860	191.37	-1.60	2.30	 	 	 	 	 	 	 	 	 	 	 	 	 	 	 	 	 	 	1581471827	10.98	20.33
12/02/2020 01:43:49	120220	12022020	014348	191.45	13.774310	-56.909597	191.81	-0.100	-0.760	2.180	191.50	-2.20	2.80	 	 	 	 	 	 	 	 	 	 	 	 	 	 	 	 	 	 	1581471828	11.16	20.67
12/02/2020 01:43:50	120220	12022020	014349	191.71	13.774262	-56.909610	192.08	-0.210	-0.940	2.250	191.76	-2.30	2.80	 	 	 	 	 	 	 	 	 	 	 	 	 	 	 	 	 	 	1581471829	10.92	20.22
12/02/2020 01:43:51	120220	12022020	014350	191.83	13.774213	-56.909623	192.10	-0.170	-1.030	2.090	191.81	-2.50	2.50	 	 	 	 	 	 	 	 	 	 	 	 	 	 	 	 	 	 	1581471830	10.82	20.04
12/02/2020 01:43:52	120220	12022020	014351	191.52	13.774162	-56.909635	191.72	0.160	-1.230	1.950	191.43	-2.60	2.50	 	 	 	 	 	 	 	 	 	 	 	 	 	 	 	 	 	 	1581471831	11.25	20.84
12/02/2020 01:43:53	120220	12022020	014352	191.05	13.774110	-56.909645	191.26	0.440	-1.180	1.850	190.97	-2.60	2.40	 	 	 	 	 	 	 	 	 	 	 	 	 	 	 	 	 	 	1581471832	11.44	21.19
12/02/2020 01:43:54	120220	12022020	014353	190.66	13.774058	-56.909655	190.88	0.310	-0.720	1.840	190.59	-2.20	2.40	 	 	 	 	 	 	 	 	 	 	 	 	 	 	 	 	 	 	1581471833	11.18	20.71
12/02/2020 01:43:55	120220	12022020	014354	190.44	13.774008	-56.909667	190.74	-0.240	-0.100	2.000	190.44	-1.60	2.50	 	 	 	 	 	 	 	 	 	 	 	 	 	 	 	 	 	 	1581471834	11.05	20.46
12/02/2020 01:43:56	120220	12022020	014355	190.66	13.773960	-56.909682	191.09	-0.850	0.550	2.200	190.76	-0.90	2.70	 	 	 	 	 	 	 	 	 	 	 	 	 	 	 	 	 	 	1581471835	10.97	20.32
12/02/2020 01:43:57	120220	12022020	014356	191.26	13.773912	-56.909700	191.70	-1.110	1.020	2.270	191.38	-0.40	2.80	 	 	 	 	 	 	 	 	 	 	 	 	 	 	 	 	 	 	1581471836	10.82	20.04
12/02/2020 01:43:58	120220	12022020	014357	191.71	13.773863	-56.909715	192.03	-0.690	0.770	2.260	191.75	-0.50	2.80	 	 	 	 	 	 	 	 	 	 	 	 	 	 	 	 	 	 	1581471837	11.18	20.71
12/02/2020 01:43:59	120220	12022020	014358	191.71	13.773808	-56.909728	191.97	0.300	-0.160	2.250	191.67	-1.40	2.80	 	 	 	 	 	 	 	 	 	 	 	 	 	 	 	 	 	 	1581471838	11.95	22.13
12/02/2020 01:44:00	120220	12022020	014359	191.60	13.773753	-56.909738	191.94	1.020	-0.770	2.100	191.61	-2.10	2.70	 	 	 	 	 	 	 	 	 	 	 	 	 	 	 	 	 	 	1581471839	11.86	21.96
12/02/2020 01:44:01	120220	12022020	014400	191.71	13.773703	-56.909745	192.11	0.900	-0.650	1.890	191.76	-2.10	2.50	 	 	 	 	 	 	 	 	 	 	 	 	 	 	 	 	 	 	1581471840	10.95	20.28
12/02/2020 01:44:02	120220	12022020	014401	191.95	13.773657	-56.909755	192.35	0.150	-0.240	1.680	192.01	-1.70	2.20	1017.60	26.00	26.10	20.30	20.50	-1.0	71.0	71.0	394.0	25.6	262.00	11.30	68.00	13.30	16	8403.0	27.2	27.2	1581471841	10.36	19.19
12/02/2020 01:44:03	120220	12022020	014402	192.20	13.773610	-56.909768	192.56	-0.520	-0.120	1.700	192.23	-1.60	2.30	 	 	 	 	 	 	 	 	 	 	 	 	 	 	 	 	 	 	1581471842	10.55	19.54
12/02/2020 01:44:04	120220	12022020	014403	192.33	13.773560	-56.909785	192.67	-0.610	-0.440	1.890	192.36	-1.70	2.40	 	 	 	 	 	 	 	 	 	 	 	 	 	 	 	 	 	 	1581471843	11.20	20.74
12/02/2020 01:44:05	120220	12022020	014404	192.52	13.773508	-56.909800	192.92	-0.260	-0.750	1.740	192.59	-2.10	2.30	 	 	 	 	 	 	 	 	 	 	 	 	 	 	 	 	 	 	1581471844	11.44	21.19
12/02/2020 01:44:06	120220	12022020	014405	192.94	13.773458	-56.909812	193.36	0.070	-0.640	1.270	193.04	-2.00	1.90	 	 	 	 	 	 	 	 	 	 	 	 	 	 	 	 	 	 	1581471845	11.03	20.43
12/02/2020 01:44:07	120220	12022020	014406	193.35	13.773410	-56.909822	193.68	0.170	-0.370	0.940	193.39	-1.80	1.50	 	 	 	 	 	 	 	 	 	 	 	 	 	 	 	 	 	 	1581471846	10.65	19.72
12/02/2020 01:44:08	120220	12022020	014407	193.34	13.773360	-56.909833	193.55	0.170	-0.370	1.000	193.27	-1.70	1.50	 	 	 	 	 	 	 	 	 	 	 	 	 	 	 	 	 	 	1581471847	10.92	20.22
12/02/2020 01:44:09	120220	12022020	014408	192.93	13.773310	-56.909847	193.13	0.170	-0.520	1.290	192.86	-1.90	1.80	 	 	 	 	 	 	 	 	 	 	 	 	 	 	 	 	 	 	1581471848	11.34	21.00
12/02/2020 01:44:10	120220	12022020	014409	192.68	13.773258	-56.909860	192.97	0.110	-0.380	1.400	192.67	-1.80	1.90	 	 	 	 	 	 	 	 	 	 	 	 	 	 	 	 	 	 	1581471849	11.17	20.69
12/02/2020 01:44:11	120220	12022020	014410	192.65	13.773210	-56.909873	192.90	-0.020	-0.170	1.410	192.62	-1.50	1.90	 	 	 	 	 	 	 	 	 	 	 	 	 	 	 	 	 	 	1581471850	10.96	20.30
12/02/2020 01:44:12	120220	12022020	014411	192.31	13.773158	-56.909890	192.43	-0.010	-0.400	1.640	192.17	-1.70	2.10	 	 	 	 	 	 	 	 	 	 	 	 	 	 	 	 	 	 	1581471851	11.43	21.17
12/02/2020 01:44:13	120220	12022020	014412	191.54	13.773105	-56.909905	191.69	0.200	-0.740	2.040	191.40	-2.10	2.50	 	 	 	 	 	 	 	 	 	 	 	 	 	 	 	 	 	 	1581471852	12.01	22.24
12/02/2020 01:44:14	120220	12022020	014413	191.08	13.773053	-56.909917	191.39	0.260	-0.340	2.020	191.06	-1.80	2.60	 	 	 	 	 	 	 	 	 	 	 	 	 	 	 	 	 	 	1581471853	11.42	21.15
12/02/2020 01:44:15	120220	12022020	014414	191.23	13.773005	-56.909928	191.64	-0.120	0.470	1.900	191.32	-0.60	2.50	 	 	 	 	 	 	 	 	 	 	 	 	 	 	 	 	 	 	1581471854	10.56	19.56
12/02/2020 01:44:16	120220	12022020	014415	191.74	13.772958	-56.909945	192.16	-0.720	0.800	2.080	191.83	-0.60	2.50	 	 	 	 	 	 	 	 	 	 	 	 	 	 	 	 	 	 	1581471855	10.61	19.65
12/02/2020 01:44:17	120220	12022020	014416	192.19	13.772910	-56.909965	192.58	-0.910	0.410	2.360	192.27	-0.90	2.80	 	 	 	 	 	 	 	 	 	 	 	 	 	 	 	 	 	 	1581471856	11.27	20.87
12/02/2020 01:44:18	120220	12022020	014417	192.61	13.772860	-56.909982	193.00	-0.380	-0.140	2.120	192.70	-1.40	2.70	 	 	 	 	 	 	 	 	 	 	 	 	 	 	 	 	 	 	1581471857	11.38	21.08
12/02/2020 01:44:19	120220	12022020	014418	193.03	13.772810	-56.909993	193.38	0.430	-0.470	1.700	193.09	-1.80	2.30	 	 	 	 	 	 	 	 	 	 	 	 	 	 	 	 	 	 	1581471858	11.00	20.37
12/02/2020 01:44:20	120220	12022020	014419	193.29	13.772760	-56.910002	193.63	0.800	-0.710	1.450	193.33	-2.00	2.00	 	 	 	 	 	 	 	 	 	 	 	 	 	 	 	 	 	 	1581471859	10.85	20.09
12/02/2020 01:44:21	120220	12022020	014420	193.36	13.772712	-56.910013	193.61	0.550	-1.000	1.600	193.32	-2.30	2.10	 	 	 	 	 	 	 	 	 	 	 	 	 	 	 	 	 	 	1581471860	10.87	20.13
12/02/2020 01:44:22	120220	12022020	014421	193.03	13.772662	-56.910030	193.21	0.140	-1.320	2.160	192.93	-2.60	2.60	 	 	 	 	 	 	 	 	 	 	 	 	 	 	 	 	 	 	1581471861	11.20	20.74
12/02/2020 01:44:23	120220	12022020	014422	192.51	13.772612	-56.910045	192.70	0.100	-1.260	2.460	192.42	-2.70	3.00	 	 	 	 	 	 	 	 	 	 	 	 	 	 	 	 	 	 	1581471862	11.25	20.84
12/02/2020 01:44:24	120220	12022020	014423	192.05	13.772562	-56.910058	192.27	0.380	-0.700	2.400	191.97	-2.10	2.90	 	 	 	 	 	 	 	 	 	 	 	 	 	 	 	 	 	 	1581471863	10.95	20.28
12/02/2020 01:44:25	120220	12022020	014424	191.67	13.772512	-56.910067	191.93	0.560	-0.080	2.110	191.62	-1.50	2.70	 	 	 	 	 	 	 	 	 	 	 	 	 	 	 	 	 	 	1581471864	10.97	20.32
12/02/2020 01:44:26	120220	12022020	014425	191.55	13.772462	-56.910077	191.87	0.230	0.420	1.840	191.56	-1.00	2.40	 	 	 	 	 	 	 	 	 	 	 	 	 	 	 	 	 	 	1581471865	11.01	20.39
12/02/2020 01:44:27	120220	12022020	014426	191.64	13.772412	-56.910090	191.93	-0.430	0.650	1.970	191.65	-0.80	2.70	 	 	 	 	 	 	 	 	 	 	 	 	 	 	 	 	 	 	1581471866	10.99	20.35
12/02/2020 01:44:28	120220	12022020	014427	191.61	13.772362	-56.910107	191.88	-0.910	0.350	2.450	191.59	-0.90	2.90	 	 	 	 	 	 	 	 	 	 	 	 	 	 	 	 	 	 	1581471867	11.38	21.08
12/02/2020 01:44:29	120220	12022020	014428	191.52	13.772310	-56.910127	191.81	-0.920	-0.360	3.070	191.51	-2.00	3.90	 	 	 	 	 	 	 	 	 	 	 	 	 	 	 	 	 	 	1581471868	11.95	22.13
12/02/2020 01:44:30	120220	12022020	014429	191.47	13.772258	-56.910147	191.80	-0.550	-0.860	3.520	191.48	-2.20	4.00	 	 	 	 	 	 	 	 	 	 	 	 	 	 	 	 	 	 	1581471869	11.94	22.11
12/02/2020 01:44:31	120220	12022020	014430	191.65	13.772210	-56.910163	192.05	-0.090	-0.580	3.140	191.72	-2.00	3.70	 	 	 	 	 	 	 	 	 	 	 	 	 	 	 	 	 	 	1581471870	11.06	20.48
12/02/2020 01:44:32	120220	12022020	014431	192.15	13.772163	-56.910173	192.61	0.240	0.250	2.100	192.29	-1.20	2.80	 	 	 	 	 	 	 	 	 	 	 	 	 	 	 	 	 	 	1581471871	10.09	18.69
12/02/2020 01:44:33	120220	12022020	014432	192.81	13.772117	-56.910182	193.21	0.460	0.730	1.060	192.93	-0.70	1.70	 	 	 	 	 	 	 	 	 	 	 	 	 	 	 	 	 	 	1581471872	10.00	18.52
12/02/2020 01:44:34	120220	12022020	014433	193.31	13.772068	-56.910187	193.64	0.690	0.350	0.430	193.39	-0.90	1.00	 	 	 	 	 	 	 	 	 	 	 	 	 	 	 	 	 	 	1581471873	10.74	19.89
12/02/2020 01:44:35	120220	12022020	014434	193.69	13.772015	-56.910195	194.01	0.780	-0.560	0.310	193.76	-1.80	0.80	 	 	 	 	 	 	 	 	 	 	 	 	 	 	 	 	 	 	1581471874	11.33	20.98
12/02/2020 01:44:36	120220	12022020	014435	193.88	13.771963	-56.910207	194.13	0.540	-1.480	0.850	193.87	-2.70	1.30	 	 	 	 	 	 	 	 	 	 	 	 	 	 	 	 	 	 	1581471875	11.43	21.17
12/02/2020 01:44:37	120220	12022020	014436	193.57	13.771913	-56.910223	193.69	0.180	-1.990	1.710	193.44	-3.30	2.10	 	 	 	 	 	 	 	 	 	 	 	 	 	 	 	 	 	 	1581471876	11.37	21.06
12/02/2020 01:44:38	120220	12022020	014437	192.72	13.771863	-56.910240	192.81	0.030	-1.930	2.410	192.54	-3.30	2.80	 	 	 	 	 	 	 	 	 	 	 	 	 	 	 	 	 	 	1581471877	11.34	21.00
12/02/2020 01:44:39	120220	12022020	014438	191.93	13.771813	-56.910253	192.13	-0.020	-1.060	2.440	191.83	-1.70	2.80	 	 	 	 	 	 	 	 	 	 	 	 	 	 	 	 	 	 	1581471878	11.03	20.43
12/02/2020 01:44:40	120220	12022020	014439	191.75	13.771767	-56.910265	192.11	-0.330	0.330	2.150	191.78	-1.20	2.70	 	 	 	 	 	 	 	 	 	 	 	 	 	 	 	 	 	 	1581471879	10.39	19.24
12/02/2020 01:44:41	120220	12022020	014440	192.05	13.771720	-56.910280	192.42	-0.850	1.180	1.860	192.12	-0.20	2.30	 	 	 	 	 	 	 	 	 	 	 	 	 	 	 	 	 	 	1581471880	10.52	19.48
12/02/2020 01:44:42	120220	12022020	014441	192.30	13.771670	-56.910298	192.61	-1.160	1.020	1.850	192.32	-0.30	2.30	 	 	 	 	 	 	 	 	 	 	 	 	 	 	 	 	 	 	1581471881	11.46	21.22
12/02/2020 01:44:43	120220	12022020	014442	192.42	13.771618	-56.910318	192.75	-0.980	0.580	2.070	192.45	-0.70	2.50	 	 	 	 	 	 	 	 	 	 	 	 	 	 	 	 	 	 	1581471882	11.83	21.91
12/02/2020 01:44:44	120220	12022020	014443	192.72	13.771570	-56.910335	193.10	-0.430	0.500	1.910	192.81	-0.90	2.50	 	 	 	 	 	 	 	 	 	 	 	 	 	 	 	 	 	 	1581471883	11.07	20.50
12/02/2020 01:44:45	120220	12022020	014444	193.20	13.771522	-56.910347	193.58	0.210	0.450	1.300	193.29	-0.90	1.90	 	 	 	 	 	 	 	 	 	 	 	 	 	 	 	 	 	 	1581471884	10.50	19.45
12/02/2020 01:44:46	120220	12022020	014445	193.61	13.771473	-56.910357	193.94	0.780	-0.070	0.750	193.67	-1.30	1.30	 	 	 	 	 	 	 	 	 	 	 	 	 	 	 	 	 	 	1581471885	10.69	19.80
12/02/2020 01:44:47	120220	12022020	014446	193.75	13.771422	-56.910365	193.99	1.230	-0.960	0.590	193.73	-2.20	1.10	 	 	 	 	 	 	 	 	 	 	 	 	 	 	 	 	 	 	1581471886	11.14	20.63
12/02/2020 01:44:48	120220	12022020	014447	193.50	13.771370	-56.910375	193.70	1.340	-1.710	1.000	193.42	-3.00	1.40	 	 	 	 	 	 	 	 	 	 	 	 	 	 	 	 	 	 	1581471887	11.30	20.93
12/02/2020 01:44:49	120220	12022020	014448	193.05	13.771322	-56.910388	193.24	0.820	-1.750	1.820	192.94	-3.10	2.20	 	 	 	 	 	 	 	 	 	 	 	 	 	 	 	 	 	 	1581471888	10.91	20.21
12/02/2020 01:44:50	120220	12022020	014449	192.49	13.771277	-56.910407	192.68	-0.140	-1.150	2.740	192.37	-2.60	3.10	 	 	 	 	 	 	 	 	 	 	 	 	 	 	 	 	 	 	1581471889	10.53	19.50
12/02/2020 01:44:51	120220	12022020	014450	191.98	13.771230	-56.910427	192.23	-0.970	-0.430	3.150	191.90	-1.90	3.60	 	 	 	 	 	 	 	 	 	 	 	 	 	 	 	 	 	 	1581471890	10.65	19.72
12/02/2020 01:44:52	120220	12022020	014451	191.68	13.771183	-56.910445	191.97	-1.130	-0.020	2.930	191.65	-1.40	3.50	 	 	 	 	 	 	 	 	 	 	 	 	 	 	 	 	 	 	1581471891	11.04	20.45
12/02/2020 01:44:53	120220	12022020	014452	191.67	13.771132	-56.910460	192.03	-0.590	0.120	2.270	191.72	-1.30	2.90	 	 	 	 	 	 	 	 	 	 	 	 	 	 	 	 	 	 	1581471892	11.40	21.11
12/02/2020 01:44:54	120220	12022020	014453	192.01	13.771080	-56.910470	192.40	0.070	0.200	1.440	192.10	-1.20	2.10	 	 	 	 	 	 	 	 	 	 	 	 	 	 	 	 	 	 	1581471893	11.38	21.08
12/02/2020 01:44:55	120220	12022020	014454	192.47	13.771028	-56.910480	192.84	0.360	0.250	1.080	192.55	-1.10	1.60	 	 	 	 	 	 	 	 	 	 	 	 	 	 	 	 	 	 	1581471894	11.17	20.69
12/02/2020 01:44:56	120220	12022020	014455	192.88	13.770980	-56.910492	193.21	0.150	0.250	1.360	192.93	-1.10	1.80	 	 	 	 	 	 	 	 	 	 	 	 	 	 	 	 	 	 	1581471895	10.91	20.21
12/02/2020 01:44:57	120220	12022020	014456	193.01	13.770932	-56.910507	193.27	-0.230	0.030	2.000	192.99	-1.30	2.40	 	 	 	 	 	 	 	 	 	 	 	 	 	 	 	 	 	 	1581471896	10.88	20.15
12/02/2020 01:44:58	120220	12022020	014457	192.71	13.770882	-56.910525	192.90	-0.360	-0.490	2.790	192.61	-1.80	3.20	 	 	 	 	 	 	 	 	 	 	 	 	 	 	 	 	 	 	1581471897	11.29	20.91
12/02/2020 01:44:59	120220	12022020	014458	192.23	13.770832	-56.910543	192.45	-0.150	-0.760	3.200	192.15	-2.10	3.70	 	 	 	 	 	 	 	 	 	 	 	 	 	 	 	 	 	 	1581471898	11.31	20.95
12/02/2020 01:45:00	120220	12022020	014459	191.94	13.770785	-56.910557	192.21	0.060	-0.390	3.060	191.91	-1.80	3.60	 	 	 	 	 	 	 	 	 	 	 	 	 	 	 	 	 	 	1581471899	10.60	19.63
12/02/2020 01:45:01	120220	12022020	014500	191.84	13.770738	-56.910568	192.11	0.120	0.020	2.630	191.82	-1.40	3.20	 	 	 	 	 	 	 	 	 	 	 	 	 	 	 	 	 	 	1581471900	10.25	18.98
12/02/2020 01:45:02	120220	12022020	014501	191.72	13.770690	-56.910582	191.95	0.230	-0.120	2.090	191.68	-1.40	2.70	1017.60	26.10	26.20	20.70	20.70	-1.0	71.0	71.0	393.0	25.6	264.00	9.70	68.00	11.70	16	8056.0	27.2	27.2	1581471901	10.73	19.87
12/02/2020 01:45:03	120220	12022020	014502	191.49	13.770638	-56.910592	191.71	0.550	-0.600	1.640	191.44	-2.10	2.00	 	 	 	 	 	 	 	 	 	 	 	 	 	 	 	 	 	 	1581471902	11.35	21.02
12/02/2020 01:45:04	120220	12022020	014503	191.42	13.770587	-56.910602	191.74	0.850	-0.640	1.260	191.44	-2.00	1.80	 	 	 	 	 	 	 	 	 	 	 	 	 	 	 	 	 	 	1581471903	11.12	20.59
12/02/2020 01:45:05	120220	12022020	014504	191.64	13.770540	-56.910610	191.99	0.750	-0.230	1.000	191.70	-1.50	1.50	 	 	 	 	 	 	 	 	 	 	 	 	 	 	 	 	 	 	1581471904	10.46	19.37
12/02/2020 01:45:06	120220	12022020	014505	191.93	13.770492	-56.910618	192.28	0.220	-0.130	1.120	191.98	-1.50	1.60	 	 	 	 	 	 	 	 	 	 	 	 	 	 	 	 	 	 	1581471905	10.55	19.54
12/02/2020 01:45:07	120220	12022020	014506	192.17	13.770442	-56.910635	192.50	-0.410	-0.510	1.760	192.20	-1.80	2.20	 	 	 	 	 	 	 	 	 	 	 	 	 	 	 	 	 	 	1581471906	11.17	20.69
12/02/2020 01:45:08	120220	12022020	014507	192.29	13.770392	-56.910653	192.63	-0.750	-0.840	2.410	192.30	-2.20	2.80	 	 	 	 	 	 	 	 	 	 	 	 	 	 	 	 	 	 	1581471907	11.44	21.19
12/02/2020 01:45:09	120220	12022020	014508	192.28	13.770343	-56.910670	192.58	-0.680	-0.740	2.680	192.26	-2.10	3.20	 	 	 	 	 	 	 	 	 	 	 	 	 	 	 	 	 	 	1581471908	11.09	20.54
12/02/2020 01:45:10	120220	12022020	014509	192.06	13.770293	-56.910683	192.31	-0.340	-0.490	2.660	191.99	-1.90	3.20	 	 	 	 	 	 	 	 	 	 	 	 	 	 	 	 	 	 	1581471909	10.89	20.17
12/02/2020 01:45:11	120220	12022020	014510	191.62	13.770243	-56.910695	191.83	0.030	-0.390	2.560	191.53	-1.70	3.10	 	 	 	 	 	 	 	 	 	 	 	 	 	 	 	 	 	 	1581471910	11.15	20.65
12/02/2020 01:45:12	120220	12022020	014511	191.17	13.770192	-56.910707	191.40	0.210	-0.310	2.380	191.10	-1.70	2.90	 	 	 	 	 	 	 	 	 	 	 	 	 	 	 	 	 	 	1581471911	11.34	21.00
12/02/2020 01:45:13	120220	12022020	014512	190.91	13.770140	-56.910717	191.18	0.150	-0.120	2.180	190.88	-1.50	2.70	 	 	 	 	 	 	 	 	 	 	 	 	 	 	 	 	 	 	1581471912	11.22	20.78
12/02/2020 01:45:14	120220	12022020	014513	190.89	13.770090	-56.910728	191.24	-0.050	0.180	2.040	190.93	-1.20	2.60	 	 	 	 	 	 	 	 	 	 	 	 	 	 	 	 	 	 	1581471913	11.03	20.43
12/02/2020 01:45:15	120220	12022020	014514	191.22	13.770043	-56.910742	191.63	-0.250	0.670	1.810	191.32	-0.50	2.20	 	 	 	 	 	 	 	 	 	 	 	 	 	 	 	 	 	 	1581471914	10.55	19.54
12/02/2020 01:45:16	120220	12022020	014515	191.73	13.769997	-56.910753	192.09	-0.280	0.880	1.510	191.82	-0.50	2.10	 	 	 	 	 	 	 	 	 	 	 	 	 	 	 	 	 	 	1581471915	10.30	19.08
12/02/2020 01:45:17	120220	12022020	014516	192.06	13.769947	-56.910767	192.37	-0.010	0.200	1.400	192.11	-1.70	1.90	 	 	 	 	 	 	 	 	 	 	 	 	 	 	 	 	 	 	1581471916	11.01	20.39
12/02/2020 01:45:18	120220	12022020	014517	192.22	13.769895	-56.910780	192.51	0.450	-0.890	1.490	192.24	-2.10	2.00	 	 	 	 	 	 	 	 	 	 	 	 	 	 	 	 	 	 	1581471917	11.63	21.54
12/02/2020 01:45:19	120220	12022020	014518	192.26	13.769843	-56.910792	192.53	0.790	-1.460	1.590	192.25	-2.90	2.20	 	 	 	 	 	 	 	 	 	 	 	 	 	 	 	 	 	 	1581471918	11.36	21.04
12/02/2020 01:45:20	120220	12022020	014519	192.10	13.769793	-56.910802	192.35	0.740	-1.400	1.740	192.05	-2.80	2.20	 	 	 	 	 	 	 	 	 	 	 	 	 	 	 	 	 	 	1581471919	10.84	20.08
12/02/2020 01:45:21	120220	12022020	014520	191.90	13.769745	-56.910813	192.20	0.240	-0.880	1.940	191.88	-2.30	2.40	 	 	 	 	 	 	 	 	 	 	 	 	 	 	 	 	 	 	1581471920	10.57	19.58
12/02/2020 01:45:22	120220	12022020	014521	191.87	13.769698	-56.910827	192.23	-0.470	-0.110	1.990	191.89	-1.60	2.50	 	 	 	 	 	 	 	 	 	 	 	 	 	 	 	 	 	 	1581471921	10.40	19.26
12/02/2020 01:45:23	120220	12022020	014522	192.02	13.769652	-56.910840	192.37	-0.950	0.490	1.780	192.06	-0.90	2.30	 	 	 	 	 	 	 	 	 	 	 	 	 	 	 	 	 	 	1581471922	10.45	19.35
12/02/2020 01:45:24	120220	12022020	014523	192.17	13.769603	-56.910853	192.49	-0.830	0.360	1.500	192.20	-0.90	2.00	 	 	 	 	 	 	 	 	 	 	 	 	 	 	 	 	 	 	1581471923	11.10	20.56
12/02/2020 01:45:25	120220	12022020	014524	192.31	13.769550	-56.910867	192.64	-0.220	-0.310	1.280	192.34	-1.60	1.80	 	 	 	 	 	 	 	 	 	 	 	 	 	 	 	 	 	 	1581471924	11.84	21.93
12/02/2020 01:45:26	120220	12022020	014525	192.48	13.769497	-56.910880	192.78	0.380	-0.800	1.200	192.50	-2.10	1.70	 	 	 	 	 	 	 	 	 	 	 	 	 	 	 	 	 	 	1581471925	11.79	21.84
12/02/2020 01:45:27	120220	12022020	014526	192.48	13.769445	-56.910893	192.75	0.580	-0.700	1.400	192.47	-2.10	1.90	 	 	 	 	 	 	 	 	 	 	 	 	 	 	 	 	 	 	1581471926	11.11	20.58
12/02/2020 01:45:28	120220	12022020	014527	192.34	13.769398	-56.910905	192.60	0.330	-0.170	1.750	192.30	-1.60	2.20	 	 	 	 	 	 	 	 	 	 	 	 	 	 	 	 	 	 	1581471927	10.48	19.41
12/02/2020 01:45:29	120220	12022020	014528	192.11	13.769352	-56.910920	192.33	-0.110	0.170	2.250	192.03	-1.30	3.10	 	 	 	 	 	 	 	 	 	 	 	 	 	 	 	 	 	 	1581471928	10.47	19.39
12/02/2020 01:45:30	120220	12022020	014529	191.65	13.769303	-56.910937	191.83	-0.360	-0.120	2.840	191.53	-1.40	3.30	 	 	 	 	 	 	 	 	 	 	 	 	 	 	 	 	 	 	1581471929	11.17	20.69
12/02/2020 01:45:31	120220	12022020	014530	191.02	13.769252	-56.910955	191.23	-0.240	-0.630	3.200	190.91	-2.00	3.70	 	 	 	 	 	 	 	 	 	 	 	 	 	 	 	 	 	 	1581471930	11.74	21.74
12/02/2020 01:45:32	120220	12022020	014531	190.66	13.769200	-56.910968	191.04	0.010	-0.460	3.060	190.67	-1.90	3.60	 	 	 	 	 	 	 	 	 	 	 	 	 	 	 	 	 	 	1581471931	11.24	20.82
12/02/2020 01:45:33	120220	12022020	014532	190.96	13.769153	-56.910980	191.43	0.020	0.170	2.550	191.06	-1.30	3.10	 	 	 	 	 	 	 	 	 	 	 	 	 	 	 	 	 	 	1581471932	10.35	19.17
12/02/2020 01:45:34	120220	12022020	014533	191.56	13.769107	-56.910990	192.02	-0.110	0.380	2.050	191.69	-1.00	2.60	 	 	 	 	 	 	 	 	 	 	 	 	 	 	 	 	 	 	1581471933	10.43	19.32
12/02/2020 01:45:35	120220	12022020	014534	192.09	13.769057	-56.911002	192.47	0.000	-0.110	1.650	192.17	-1.40	2.20	 	 	 	 	 	 	 	 	 	 	 	 	 	 	 	 	 	 	1581471934	11.14	20.63
12/02/2020 01:45:36	120220	12022020	014535	192.38	13.769003	-56.911013	192.69	0.450	-0.800	1.420	192.40	-2.10	2.00	 	 	 	 	 	 	 	 	 	 	 	 	 	 	 	 	 	 	1581471935	11.52	21.34
12/02/2020 01:45:37	120220	12022020	014536	192.29	13.768952	-56.911023	192.53	0.760	-1.240	1.720	192.23	-2.60	2.20	 	 	 	 	 	 	 	 	 	 	 	 	 	 	 	 	 	 	1581471936	11.45	21.21
12/02/2020 01:45:38	120220	12022020	014537	191.94	13.768902	-56.911035	192.17	0.460	-1.110	2.330	191.86	-2.50	2.80	 	 	 	 	 	 	 	 	 	 	 	 	 	 	 	 	 	 	1581471937	11.03	20.43
12/02/2020 01:45:39	120220	12022020	014538	191.48	13.768855	-56.911052	191.70	-0.320	-0.530	3.090	191.37	-2.00	3.50	 	 	 	 	 	 	 	 	 	 	 	 	 	 	 	 	 	 	1581471938	10.64	19.71
12/02/2020 01:45:40	120220	12022020	014539	190.93	13.768808	-56.911072	191.18	-0.950	0.030	3.670	190.83	-1.40	4.10	 	 	 	 	 	 	 	 	 	 	 	 	 	 	 	 	 	 	1581471939	10.80	20.00
12/02/2020 01:45:41	120220	12022020	014540	190.47	13.768760	-56.911090	190.74	-0.930	0.340	3.710	190.41	-1.10	4.30	 	 	 	 	 	 	 	 	 	 	 	 	 	 	 	 	 	 	1581471940	11.06	20.48
12/02/2020 01:45:42	120220	12022020	014541	190.32	13.768710	-56.911103	190.66	-0.310	0.500	3.160	190.33	-0.90	3.80	 	 	 	 	 	 	 	 	 	 	 	 	 	 	 	 	 	 	1581471941	11.06	20.48
12/02/2020 01:45:43	120220	12022020	014542	190.54	13.768660	-56.911113	190.92	0.350	0.490	2.280	190.61	-1.00	2.40	 	 	 	 	 	 	 	 	 	 	 	 	 	 	 	 	 	 	1581471942	10.93	20.24
12/02/2020 01:45:44	120220	12022020	014543	190.89	13.768610	-56.911120	191.24	0.670	0.120	1.580	190.95	-1.20	2.20	 	 	 	 	 	 	 	 	 	 	 	 	 	 	 	 	 	 	1581471943	11.01	20.39
12/02/2020 01:45:45	120220	12022020	014544	191.12	13.768558	-56.911130	191.42	0.670	-0.610	1.460	191.15	-1.90	2.00	 	 	 	 	 	 	 	 	 	 	 	 	 	 	 	 	 	 	1581471944	11.30	20.93
12/02/2020 01:45:46	120220	12022020	014545	191.23	13.768505	-56.911140	191.57	0.540	-1.210	1.610	191.28	-2.50	2.10	 	 	 	 	 	 	 	 	 	 	 	 	 	 	 	 	 	 	1581471945	11.40	21.11
12/02/2020 01:45:47	120220	12022020	014546	191.51	13.768457	-56.911152	191.91	0.290	-1.220	1.810	191.59	-2.60	2.30	 	 	 	 	 	 	 	 	 	 	 	 	 	 	 	 	 	 	1581471946	10.93	20.24
12/02/2020 01:45:48	120220	12022020	014547	191.90	13.768410	-56.911165	192.30	-0.040	-0.760	1.840	191.98	-2.20	2.40	 	 	 	 	 	 	 	 	 	 	 	 	 	 	 	 	 	 	1581471947	10.44	19.33
12/02/2020 01:45:49	120220	12022020	014548	192.29	13.768362	-56.911175	192.69	-0.340	-0.350	1.470	192.38	-1.80	2.10	 	 	 	 	 	 	 	 	 	 	 	 	 	 	 	 	 	 	1581471948	10.46	19.37
12/02/2020 01:45:50	120220	12022020	014549	192.61	13.768312	-56.911187	192.92	-0.540	-0.360	1.410	192.62	-1.70	1.90	 	 	 	 	 	 	 	 	 	 	 	 	 	 	 	 	 	 	1581471949	10.92	20.22
12/02/2020 01:45:51	120220	12022020	014550	192.42	13.768260	-56.911202	192.58	-0.510	-0.910	1.930	192.29	-2.20	2.40	 	 	 	 	 	 	 	 	 	 	 	 	 	 	 	 	 	 	1581471950	11.73	21.72
12/02/2020 01:45:52	120220	12022020	014551	191.67	13.768205	-56.911220	191.80	-0.310	-1.300	2.550	191.49	-2.70	3.00	 	 	 	 	 	 	 	 	 	 	 	 	 	 	 	 	 	 	1581471951	12.20	22.59
12/02/2020 01:45:53	120220	12022020	014552	190.84	13.768155	-56.911235	191.05	-0.260	-0.660	3.050	190.71	-1.40	3.60	 	 	 	 	 	 	 	 	 	 	 	 	 	 	 	 	 	 	1581471952	11.45	21.21
12/02/2020 01:45:54	120220	12022020	014553	190.32	13.768108	-56.911250	190.59	-0.440	0.710	3.080	190.26	-0.90	3.60	 	 	 	 	 	 	 	 	 	 	 	 	 	 	 	 	 	 	1581471953	10.40	19.26
12/02/2020 01:45:55	120220	12022020	014554	190.22	13.768062	-56.911262	190.58	-0.550	1.650	2.590	190.26	0.40	2.70	 	 	 	 	 	 	 	 	 	 	 	 	 	 	 	 	 	 	1581471954	10.28	19.04
12/02/2020 01:45:56	120220	12022020	014555	190.64	13.768012	-56.911272	191.07	-0.360	1.580	1.800	190.76	0.30	2.40	 	 	 	 	 	 	 	 	 	 	 	 	 	 	 	 	 	 	1581471955	10.93	20.24
12/02/2020 01:45:57	120220	12022020	014556	191.41	13.767960	-56.911282	191.84	0.100	0.820	1.090	191.55	-0.40	1.70	 	 	 	 	 	 	 	 	 	 	 	 	 	 	 	 	 	 	1581471956	11.33	20.98
12/02/2020 01:45:58	120220	12022020	014557	192.15	13.767910	-56.911292	192.54	0.640	-0.100	0.740	192.26	-1.40	1.30	 	 	 	 	 	 	 	 	 	 	 	 	 	 	 	 	 	 	1581471957	11.21	20.76
12/02/2020 01:45:59	120220	12022020	014558	192.59	13.767860	-56.911303	192.90	1.030	-0.890	0.830	192.64	-2.20	1.30	 	 	 	 	 	 	 	 	 	 	 	 	 	 	 	 	 	 	1581471958	10.85	20.09
12/02/2020 01:46:00	120220	12022020	014559	192.65	13.767812	-56.911313	192.92	1.100	-1.480	1.250	192.64	-2.80	1.70	 	 	 	 	 	 	 	 	 	 	 	 	 	 	 	 	 	 	1581471959	10.67	19.76
12/02/2020 01:46:01	120220	12022020	014600	192.45	13.767763	-56.911325	192.66	0.780	-1.880	1.820	192.38	-3.20	2.30	 	 	 	 	 	 	 	 	 	 	 	 	 	 	 	 	 	 	1581471960	10.75	19.91
12/02/2020 01:46:02	120220	12022020	014601	191.97	13.767713	-56.911340	192.14	0.250	-2.090	2.620	191.84	-3.50	3.00	1017.60	26.10	26.10	20.50	20.60	-1.0	71.0	71.0	391.0	25.6	262.00	10.30	67.00	12.40	16	8150.0	27.2	27.2	1581471961	11.07	20.50
12/02/2020 01:46:03	120220	12022020	014602	191.37	13.767663	-56.911357	191.60	-0.240	-1.820	3.230	191.26	-3.30	3.70	 	 	 	 	 	 	 	 	 	 	 	 	 	 	 	 	 	 	1581471962	11.23	20.80
12/02/2020 01:46:04	120220	12022020	014603	190.92	13.767615	-56.911372	191.22	-0.680	-0.890	3.380	190.85	-2.40	3.90	 	 	 	 	 	 	 	 	 	 	 	 	 	 	 	 	 	 	1581471963	10.92	20.22
12/02/2020 01:46:05	120220	12022020	014604	190.65	13.767568	-56.911387	191.00	-1.080	0.270	3.310	190.63	-0.70	3.60	 	 	 	 	 	 	 	 	 	 	 	 	 	 	 	 	 	 	1581471964	10.70	19.82
12/02/2020 01:46:06	120220	12022020	014605	190.72	13.767520	-56.911402	191.13	-1.300	1.050	2.820	190.78	-0.40	3.40	 	 	 	 	 	 	 	 	 	 	 	 	 	 	 	 	 	 	1581471965	10.89	20.17
12/02/2020 01:46:07	120220	12022020	014606	191.05	13.767468	-56.911415	191.44	-1.030	1.170	2.180	191.12	-0.40	2.40	 	 	 	 	 	 	 	 	 	 	 	 	 	 	 	 	 	 	1581471966	11.29	20.91
12/02/2020 01:46:08	120220	12022020	014607	191.36	13.767415	-56.911427	191.72	-0.220	0.640	1.710	191.42	-0.70	2.30	 	 	 	 	 	 	 	 	 	 	 	 	 	 	 	 	 	 	1581471967	11.81	21.87
12/02/2020 01:46:09	120220	12022020	014608	191.69	13.767360	-56.911435	192.04	0.720	0.040	1.390	191.76	-1.30	2.00	 	 	 	 	 	 	 	 	 	 	 	 	 	 	 	 	 	 	1581471968	11.88	22.00
12/02/2020 01:46:10	120220	12022020	014609	192.00	13.767308	-56.911442	192.35	1.170	-0.140	1.280	192.05	-1.50	1.80	 	 	 	 	 	 	 	 	 	 	 	 	 	 	 	 	 	 	1581471969	11.27	20.87
12/02/2020 01:46:11	120220	12022020	014610	192.22	13.767260	-56.911450	192.59	0.850	-0.010	1.490	192.28	-1.40	2.00	 	 	 	 	 	 	 	 	 	 	 	 	 	 	 	 	 	 	1581471970	10.57	19.58
12/02/2020 01:46:12	120220	12022020	014611	192.55	13.767213	-56.911462	192.95	0.070	0.210	1.690	192.64	-1.20	2.20	 	 	 	 	 	 	 	 	 	 	 	 	 	 	 	 	 	 	1581471971	10.13	18.76
12/02/2020 01:46:13	120220	12022020	014612	192.93	13.767168	-56.911477	193.27	-0.450	0.090	1.700	192.98	-1.20	2.20	 	 	 	 	 	 	 	 	 	 	 	 	 	 	 	 	 	 	1581471972	10.14	18.78
12/02/2020 01:46:14	120220	12022020	014613	192.95	13.767120	-56.911490	193.16	-0.230	-0.820	1.710	192.88	-2.00	2.20	 	 	 	 	 	 	 	 	 	 	 	 	 	 	 	 	 	 	1581471973	10.99	20.35
12/02/2020 01:46:15	120220	12022020	014614	192.40	13.767067	-56.911505	192.50	0.510	-2.120	1.900	192.25	-3.30	2.40	 	 	 	 	 	 	 	 	 	 	 	 	 	 	 	 	 	 	1581471974	11.98	22.19
12/02/2020 01:46:16	120220	12022020	014615	191.70	13.767013	-56.911518	191.91	0.910	-2.450	2.120	191.60	-3.90	2.60	 	 	 	 	 	 	 	 	 	 	 	 	 	 	 	 	 	 	1581471975	11.81	21.87
12/02/2020 01:46:17	120220	12022020	014616	191.41	13.766967	-56.911532	191.74	0.400	-1.270	2.260	191.41	-2.90	2.80	 	 	 	 	 	 	 	 	 	 	 	 	 	 	 	 	 	 	1581471976	10.44	19.33
12/02/2020 01:46:18	120220	12022020	014617	191.55	13.766923	-56.911547	191.96	-0.590	0.340	2.190	191.61	-1.20	2.70	 	 	 	 	 	 	 	 	 	 	 	 	 	 	 	 	 	 	1581471977	9.73	18.02
12/02/2020 01:46:19	120220	12022020	014618	191.89	13.766878	-56.911563	192.29	-1.180	1.180	2.010	191.97	-0.20	2.50	 	 	 	 	 	 	 	 	 	 	 	 	 	 	 	 	 	 	1581471978	10.29	19.06
12/02/2020 01:46:20	120220	12022020	014619	192.22	13.766828	-56.911578	192.60	-0.920	1.000	1.900	192.29	-0.30	2.40	 	 	 	 	 	 	 	 	 	 	 	 	 	 	 	 	 	 	1581471979	11.30	20.93
12/02/2020 01:46:21	120220	12022020	014620	192.52	13.766773	-56.911593	192.86	-0.050	0.160	1.790	192.55	-1.70	2.30	 	 	 	 	 	 	 	 	 	 	 	 	 	 	 	 	 	 	1581471980	12.00	22.22
12/02/2020 01:46:22	120220	12022020	014621	192.59	13.766718	-56.911605	192.90	0.790	-0.660	1.730	192.60	-2.00	2.30	 	 	 	 	 	 	 	 	 	 	 	 	 	 	 	 	 	 	1581471981	12.18	22.56
12/02/2020 01:46:23	120220	12022020	014622	192.74	13.766667	-56.911615	193.12	0.960	-0.510	1.640	192.81	-2.00	2.20	 	 	 	 	 	 	 	 	 	 	 	 	 	 	 	 	 	 	1581471982	11.23	20.80
12/02/2020 01:46:24	120220	12022020	014623	193.21	13.766622	-56.911622	193.61	0.390	0.470	1.460	193.31	-1.10	2.00	 	 	 	 	 	 	 	 	 	 	 	 	 	 	 	 	 	 	1581471983	9.76	18.08
12/02/2020 01:46:25	120220	12022020	014624	193.52	13.766577	-56.911633	193.82	-0.310	0.650	1.550	193.52	-0.70	2.00	 	 	 	 	 	 	 	 	 	 	 	 	 	 	 	 	 	 	1581471984	9.89	18.32
12/02/2020 01:46:26	120220	12022020	014625	193.26	13.766527	-56.911650	193.43	-0.370	-0.630	2.050	193.14	-1.80	2.50	 	 	 	 	 	 	 	 	 	 	 	 	 	 	 	 	 	 	1581471985	11.58	21.45
12/02/2020 01:46:27	120220	12022020	014626	192.55	13.766470	-56.911668	192.69	0.230	-2.080	2.450	192.39	-3.30	2.90	 	 	 	 	 	 	 	 	 	 	 	 	 	 	 	 	 	 	1581471986	12.56	23.26
12/02/2020 01:46:28	120220	12022020	014627	191.84	13.766418	-56.911682	192.07	0.580	-2.010	2.580	191.74	-3.50	3.10	 	 	 	 	 	 	 	 	 	 	 	 	 	 	 	 	 	 	1581471987	11.46	21.22
12/02/2020 01:46:29	120220	12022020	014628	191.44	13.766375	-56.911695	191.75	0.120	-0.660	2.470	191.40	-2.30	3.00	 	 	 	 	 	 	 	 	 	 	 	 	 	 	 	 	 	 	1581471988	9.96	18.45
12/02/2020 01:46:30	120220	12022020	014629	191.21	13.766332	-56.911710	191.47	-0.690	0.480	2.440	191.15	-1.00	2.90	 	 	 	 	 	 	 	 	 	 	 	 	 	 	 	 	 	 	1581471989	9.84	18.22
12/02/2020 01:46:31	120220	12022020	014630	190.86	13.766283	-56.911728	191.11	-0.940	0.520	2.660	190.79	-0.80	3.10	 	 	 	 	 	 	 	 	 	 	 	 	 	 	 	 	 	 	1581471990	11.10	20.56
12/02/2020 01:46:32	120220	12022020	014631	190.69	13.766230	-56.911745	191.04	-0.450	0.250	2.670	190.71	-1.10	3.20	 	 	 	 	 	 	 	 	 	 	 	 	 	 	 	 	 	 	1581471991	11.72	21.71
12/02/2020 01:46:33	120220	12022020	014632	191.00	13.766180	-56.911757	191.45	0.120	0.390	2.320	191.11	-0.90	2.70	 	 	 	 	 	 	 	 	 	 	 	 	 	 	 	 	 	 	1581471992	11.06	20.48
12/02/2020 01:46:34	120220	12022020	014633	191.57	13.766133	-56.911768	191.97	0.300	0.490	2.150	191.65	-0.90	2.70	 	 	 	 	 	 	 	 	 	 	 	 	 	 	 	 	 	 	1581471993	10.53	19.50
12/02/2020 01:46:35	120220	12022020	014634	191.85	13.766085	-56.911782	192.13	0.320	0.090	2.330	191.84	-1.20	2.80	 	 	 	 	 	 	 	 	 	 	 	 	 	 	 	 	 	 	1581471994	10.73	19.87
12/02/2020 01:46:36	120220	12022020	014635	191.59	13.766033	-56.911793	191.77	0.660	-0.780	2.550	191.49	-2.00	3.00	 	 	 	 	 	 	 	 	 	 	 	 	 	 	 	 	 	 	1581471995	11.37	21.06
12/02/2020 01:46:37	120220	12022020	014636	191.05	13.765980	-56.911803	191.27	1.130	-1.410	2.670	190.97	-2.80	3.20	 	 	 	 	 	 	 	 	 	 	 	 	 	 	 	 	 	 	1581471996	11.63	21.54
12/02/2020 01:46:38	120220	12022020	014637	190.93	13.765930	-56.911810	191.35	1.020	-1.000	2.310	191.00	-2.50	2.90	 	 	 	 	 	 	 	 	 	 	 	 	 	 	 	 	 	 	1581471997	10.76	19.93
12/02/2020 01:46:39	120220	12022020	014638	191.50	13.765887	-56.911818	192.02	0.160	0.020	1.860	191.67	-1.50	2.40	 	 	 	 	 	 	 	 	 	 	 	 	 	 	 	 	 	 	1581471998	9.67	17.91
12/02/2020 01:46:40	120220	12022020	014639	192.31	13.765842	-56.911830	192.76	-0.810	0.420	1.730	192.44	-1.00	2.30	 	 	 	 	 	 	 	 	 	 	 	 	 	 	 	 	 	 	1581471999	9.84	18.22
12/02/2020 01:46:41	120220	12022020	014640	192.67	13.765792	-56.911848	192.95	-1.040	-0.400	2.110	192.65	-1.60	2.60	 	 	 	 	 	 	 	 	 	 	 	 	 	 	 	 	 	 	1581472000	11.23	20.80
12/02/2020 01:46:42	120220	12022020	014641	192.29	13.765738	-56.911867	192.43	-0.540	-1.660	2.860	192.13	-2.90	3.30	 	 	 	 	 	 	 	 	 	 	 	 	 	 	 	 	 	 	1581472001	12.34	22.85
12/02/2020 01:46:43	120220	12022020	014642	191.42	13.765685	-56.911885	191.58	0.030	-2.070	3.490	191.25	-3.10	4.10	 	 	 	 	 	 	 	 	 	 	 	 	 	 	 	 	 	 	1581472002	12.18	22.56
12/02/2020 01:46:44	120220	12022020	014643	190.81	13.765637	-56.911900	191.11	0.080	-1.090	3.430	190.75	-2.70	4.00	 	 	 	 	 	 	 	 	 	 	 	 	 	 	 	 	 	 	1581472003	10.90	20.19
12/02/2020 01:46:45	120220	12022020	014644	190.73	13.765590	-56.911912	191.10	-0.290	0.410	2.850	190.76	-0.40	3.00	 	 	 	 	 	 	 	 	 	 	 	 	 	 	 	 	 	 	1581472004	10.02	18.56
12/02/2020 01:46:46	120220	12022020	014645	190.91	13.765543	-56.911922	191.28	-0.470	1.380	2.100	190.95	-0.10	2.70	 	 	 	 	 	 	 	 	 	 	 	 	 	 	 	 	 	 	1581472005	10.29	19.06
12/02/2020 01:46:47	120220	12022020	014646	191.27	13.765495	-56.911932	191.69	-0.250	1.640	1.360	191.38	0.20	2.00	 	 	 	 	 	 	 	 	 	 	 	 	 	 	 	 	 	 	1581472006	10.87	20.13
12/02/2020 01:46:48	120220	12022020	014647	192.03	13.765445	-56.911940	192.48	0.010	1.470	0.870	192.19	0.10	1.40	 	 	 	 	 	 	 	 	 	 	 	 	 	 	 	 	 	 	1581472007	10.83	20.06
12/02/2020 01:46:49	120220	12022020	014648	192.73	13.765397	-56.911953	193.07	0.170	0.680	1.080	192.81	-0.60	1.50	 	 	 	 	 	 	 	 	 	 	 	 	 	 	 	 	 	 	1581472008	10.81	20.02
12/02/2020 01:46:50	120220	12022020	014649	192.81	13.765345	-56.911970	193.00	0.530	-0.820	1.760	192.73	-2.00	2.20	 	 	 	 	 	 	 	 	 	 	 	 	 	 	 	 	 	 	1581472009	11.41	21.13
12/02/2020 01:46:51	120220	12022020	014650	192.19	13.765292	-56.911983	192.30	1.160	-2.280	2.430	192.02	-3.50	2.90	 	 	 	 	 	 	 	 	 	 	 	 	 	 	 	 	 	 	1581472010	11.89	22.02
12/02/2020 01:46:52	120220	12022020	014651	191.41	13.765240	-56.911993	191.59	1.350	-2.520	2.780	191.28	-4.00	3.30	 	 	 	 	 	 	 	 	 	 	 	 	 	 	 	 	 	 	1581472011	11.27	20.87
12/02/2020 01:46:53	120220	12022020	014652	190.97	13.765195	-56.912003	191.28	0.580	-1.370	2.800	190.94	-3.00	3.30	 	 	 	 	 	 	 	 	 	 	 	 	 	 	 	 	 	 	1581472012	9.91	18.35
12/02/2020 01:46:54	120220	12022020	014653	190.94	13.765153	-56.912017	191.29	-0.720	0.020	2.650	190.95	-1.50	3.20	 	 	 	 	 	 	 	 	 	 	 	 	 	 	 	 	 	 	1581472013	9.38	17.37
12/02/2020 01:46:55	120220	12022020	014654	190.91	13.765108	-56.912032	191.19	-1.500	0.400	2.580	190.88	-1.20	3.10	 	 	 	 	 	 	 	 	 	 	 	 	 	 	 	 	 	 	1581472014	10.41	19.28
12/02/2020 01:46:56	120220	12022020	014655	190.72	13.765055	-56.912050	190.99	-1.210	-0.230	2.550	190.67	-1.50	3.10	 	 	 	 	 	 	 	 	 	 	 	 	 	 	 	 	 	 	1581472015	11.89	22.02
12/02/2020 01:46:57	120220	12022020	014656	190.59	13.765002	-56.912067	190.93	-0.320	-0.690	2.400	190.60	-2.00	2.80	 	 	 	 	 	 	 	 	 	 	 	 	 	 	 	 	 	 	1581472016	12.13	22.46
12/02/2020 01:46:58	120220	12022020	014657	190.81	13.764952	-56.912078	191.24	0.230	-0.210	2.020	190.90	-1.70	2.60	 	 	 	 	 	 	 	 	 	 	 	 	 	 	 	 	 	 	1581472017	11.03	20.43
12/02/2020 01:46:59	120220	12022020	014658	191.35	13.764905	-56.912088	191.78	0.120	0.630	1.690	191.46	-0.90	2.30	 	 	 	 	 	 	 	 	 	 	 	 	 	 	 	 	 	 	1581472018	10.11	18.72
12/02/2020 01:47:00	120220	12022020	014659	191.81	13.764858	-56.912098	192.14	-0.180	0.820	1.670	191.85	-0.60	2.20	 	 	 	 	 	 	 	 	 	 	 	 	 	 	 	 	 	 	1581472019	10.32	19.11
12/02/2020 01:47:01	120220	12022020	014700	191.78	13.764807	-56.912112	192.01	-0.070	0.180	1.960	191.72	-1.10	2.40	 	 	 	 	 	 	 	 	 	 	 	 	 	 	 	 	 	 	1581472020	11.25	20.84
12/02/2020 01:47:02	120220	12022020	014701	191.48	13.764755	-56.912123	191.72	0.400	-0.400	2.250	191.42	-1.80	2.80	1017.60	26.10	26.10	20.70	20.70	-1.0	72.0	72.0	389.0	25.6	263.00	9.70	66.00	11.80	16	8561.0	27.2	27.2	1581472021	11.48	21.26
12/02/2020 01:47:03	120220	12022020	014702	191.32	13.764705	-56.912133	191.65	0.700	-0.410	2.240	191.32	-1.90	2.80	 	 	 	 	 	 	 	 	 	 	 	 	 	 	 	 	 	 	1581472022	10.83	20.06
12/02/2020 01:47:04	120220	12022020	014703	191.45	13.764658	-56.912142	191.85	0.560	-0.180	1.980	191.51	-1.60	2.60	 	 	 	 	 	 	 	 	 	 	 	 	 	 	 	 	 	 	1581472023	10.30	19.08
12/02/2020 01:47:05	120220	12022020	014704	191.72	13.764612	-56.912152	192.08	0.170	-0.200	1.820	191.75	-1.60	2.40	 	 	 	 	 	 	 	 	 	 	 	 	 	 	 	 	 	 	1581472024	10.31	19.09
12/02/2020 01:47:06	120220	12022020	014705	191.73	13.764563	-56.912165	192.01	-0.070	-0.710	2.040	191.70	-2.00	2.50	 	 	 	 	 	 	 	 	 	 	 	 	 	 	 	 	 	 	1581472025	10.88	20.15
12/02/2020 01:47:07	120220	12022020	014706	191.54	13.764513	-56.912180	191.82	-0.080	-1.260	2.300	191.50	-2.60	2.80	 	 	 	 	 	 	 	 	 	 	 	 	 	 	 	 	 	 	1581472026	11.29	20.91
12/02/2020 01:47:08	120220	12022020	014707	191.30	13.764463	-56.912195	191.56	-0.080	-1.420	2.460	191.23	-2.80	3.00	 	 	 	 	 	 	 	 	 	 	 	 	 	 	 	 	 	 	1581472027	11.16	20.67
12/02/2020 01:47:09	120220	12022020	014708	190.93	13.764413	-56.912208	191.19	-0.210	-1.170	2.530	190.86	-2.30	3.00	 	 	 	 	 	 	 	 	 	 	 	 	 	 	 	 	 	 	1581472028	11.00	20.37
12/02/2020 01:47:10	120220	12022020	014709	190.70	13.764365	-56.912222	191.03	-0.430	-0.530	2.340	190.69	-2.10	2.90	 	 	 	 	 	 	 	 	 	 	 	 	 	 	 	 	 	 	1581472029	10.79	19.98
12/02/2020 01:47:11	120220	12022020	014710	190.77	13.764318	-56.912233	191.15	-0.570	0.380	1.920	190.81	-0.60	2.20	 	 	 	 	 	 	 	 	 	 	 	 	 	 	 	 	 	 	1581472030	10.43	19.32
12/02/2020 01:47:12	120220	12022020	014711	190.98	13.764270	-56.912242	191.32	-0.440	0.970	1.520	191.02	-0.50	2.10	 	 	 	 	 	 	 	 	 	 	 	 	 	 	 	 	 	 	1581472031	10.47	19.39
12/02/2020 01:47:13	120220	12022020	014712	191.22	13.764218	-56.912252	191.60	-0.130	0.770	1.310	191.30	-0.60	1.90	 	 	 	 	 	 	 	 	 	 	 	 	 	 	 	 	 	 	1581472032	11.14	20.63
12/02/2020 01:47:14	120220	12022020	014713	191.65	13.764167	-56.912263	192.03	0.120	0.140	1.400	191.73	-1.20	1.90	 	 	 	 	 	 	 	 	 	 	 	 	 	 	 	 	 	 	1581472033	11.51	21.32
12/02/2020 01:47:15	120220	12022020	014714	191.93	13.764115	-56.912277	192.24	0.270	-0.470	1.770	191.94	-1.80	2.20	 	 	 	 	 	 	 	 	 	 	 	 	 	 	 	 	 	 	1581472034	11.38	21.08
12/02/2020 01:47:16	120220	12022020	014715	191.80	13.764065	-56.912292	192.02	0.430	-0.840	2.250	191.73	-2.20	2.70	 	 	 	 	 	 	 	 	 	 	 	 	 	 	 	 	 	 	1581472035	11.20	20.74
12/02/2020 01:47:17	120220	12022020	014716	191.44	13.764017	-56.912303	191.68	0.540	-0.710	2.440	191.39	-2.20	3.00	 	 	 	 	 	 	 	 	 	 	 	 	 	 	 	 	 	 	1581472036	10.84	20.08
12/02/2020 01:47:18	120220	12022020	014717	191.26	13.763970	-56.912313	191.57	0.370	-0.220	2.220	191.25	-1.70	2.80	 	 	 	 	 	 	 	 	 	 	 	 	 	 	 	 	 	 	1581472037	10.30	19.08
12/02/2020 01:47:19	120220	12022020	014718	191.20	13.763922	-56.912322	191.48	0.040	-0.010	1.820	191.17	-1.40	2.40	 	 	 	 	 	 	 	 	 	 	 	 	 	 	 	 	 	 	1581472038	10.40	19.26
12/02/2020 01:47:20	120220	12022020	014719	191.11	13.763872	-56.912332	191.40	-0.160	-0.250	1.460	191.11	-1.60	2.00	 	 	 	 	 	 	 	 	 	 	 	 	 	 	 	 	 	 	1581472039	10.97	20.32
12/02/2020 01:47:21	120220	12022020	014720	191.11	13.763820	-56.912343	191.39	-0.140	-0.660	1.370	191.09	-2.00	1.90	 	 	 	 	 	 	 	 	 	 	 	 	 	 	 	 	 	 	1581472040	11.26	20.85
12/02/2020 01:47:22	120220	12022020	014721	191.00	13.763770	-56.912358	191.27	-0.010	-0.990	1.700	190.97	-2.40	2.20	 	 	 	 	 	 	 	 	 	 	 	 	 	 	 	 	 	 	1581472041	11.37	21.06
12/02/2020 01:47:23	120220	12022020	014722	190.88	13.763720	-56.912372	191.22	0.030	-0.880	1.990	190.89	-2.30	2.50	 	 	 	 	 	 	 	 	 	 	 	 	 	 	 	 	 	 	1581472042	11.18	20.71
12/02/2020 01:47:24	120220	12022020	014723	191.15	13.763672	-56.912385	191.62	-0.180	-0.150	1.930	191.26	-1.70	2.50	 	 	 	 	 	 	 	 	 	 	 	 	 	 	 	 	 	 	1581472043	10.50	19.45
12/02/2020 01:47:25	120220	12022020	014724	191.84	13.763627	-56.912397	192.33	-0.540	0.570	1.650	191.99	-0.90	2.20	 	 	 	 	 	 	 	 	 	 	 	 	 	 	 	 	 	 	1581472044	10.07	18.65
12/02/2020 01:47:26	120220	12022020	014725	192.57	13.763578	-56.912408	193.00	-0.630	0.550	1.410	192.68	-0.80	1.90	 	 	 	 	 	 	 	 	 	 	 	 	 	 	 	 	 	 	1581472045	10.53	19.50
12/02/2020 01:47:27	120220	12022020	014726	192.98	13.763528	-56.912420	193.29	-0.200	-0.270	1.360	193.00	-1.50	1.90	 	 	 	 	 	 	 	 	 	 	 	 	 	 	 	 	 	 	1581472046	11.40	21.11
12/02/2020 01:47:28	120220	12022020	014727	192.80	13.763473	-56.912433	192.93	0.510	-1.290	1.700	192.67	-2.60	2.10	 	 	 	 	 	 	 	 	 	 	 	 	 	 	 	 	 	 	1581472047	11.96	22.15
12/02/2020 01:47:29	120220	12022020	014728	191.98	13.763420	-56.912447	192.06	0.990	-1.690	2.300	191.78	-3.10	2.70	 	 	 	 	 	 	 	 	 	 	 	 	 	 	 	 	 	 	1581472048	11.84	21.93
12/02/2020 01:47:30	120220	12022020	014729	191.16	13.763370	-56.912458	191.37	0.890	-1.030	2.520	191.05	-2.60	3.00	 	 	 	 	 	 	 	 	 	 	 	 	 	 	 	 	 	 	1581472049	11.10	20.56
12/02/2020 01:47:31	120220	12022020	014730	190.87	13.763323	-56.912468	191.22	0.310	0.310	2.280	190.89	-1.30	2.80	 	 	 	 	 	 	 	 	 	 	 	 	 	 	 	 	 	 	1581472050	10.25	18.98
12/02/2020 01:47:32	120220	12022020	014731	191.09	13.763277	-56.912478	191.51	-0.410	1.290	2.100	191.18	-0.20	2.60	 	 	 	 	 	 	 	 	 	 	 	 	 	 	 	 	 	 	1581472051	10.20	18.89
12/02/2020 01:47:33	120220	12022020	014732	191.63	13.763228	-56.912493	192.09	-0.920	1.320	2.080	191.76	-0.40	2.60	 	 	 	 	 	 	 	 	 	 	 	 	 	 	 	 	 	 	1581472052	10.87	20.13
12/02/2020 01:47:34	120220	12022020	014733	192.29	13.763178	-56.912512	192.76	-1.060	0.550	2.230	192.43	-0.70	2.70	 	 	 	 	 	 	 	 	 	 	 	 	 	 	 	 	 	 	1581472053	11.53	21.35
12/02/2020 01:47:35	120220	12022020	014734	193.00	13.763127	-56.912532	193.52	-0.780	-0.390	2.290	193.16	-2.10	2.70	 	 	 	 	 	 	 	 	 	 	 	 	 	 	 	 	 	 	1581472054	11.64	21.56
12/02/2020 01:47:36	120220	12022020	014735	193.83	13.763078	-56.912547	194.30	-0.240	-0.910	2.000	193.97	-2.30	2.60	 	 	 	 	 	 	 	 	 	 	 	 	 	 	 	 	 	 	1581472055	10.99	20.35
12/02/2020 01:47:37	120220	12022020	014736	194.40	13.763032	-56.912560	194.71	0.360	-1.140	1.600	194.43	-2.50	2.20	 	 	 	 	 	 	 	 	 	 	 	 	 	 	 	 	 	 	1581472056	10.49	19.43
12/02/2020 01:47:38	120220	12022020	014737	194.25	13.762982	-56.912570	194.38	0.960	-1.500	1.450	194.14	-2.80	2.00	 	 	 	 	 	 	 	 	 	 	 	 	 	 	 	 	 	 	1581472057	10.85	20.09
12/02/2020 01:47:39	120220	12022020	014738	193.53	13.762930	-56.912580	193.63	1.280	-1.550	1.580	193.38	-3.00	2.10	 	 	 	 	 	 	 	 	 	 	 	 	 	 	 	 	 	 	1581472058	11.25	20.84
12/02/2020 01:47:40	120220	12022020	014739	192.92	13.762882	-56.912588	193.13	0.960	-0.710	1.760	192.85	-2.30	2.20	 	 	 	 	 	 	 	 	 	 	 	 	 	 	 	 	 	 	1581472059	10.66	19.74
12/02/2020 01:47:41	120220	12022020	014740	192.72	13.762835	-56.912600	192.99	0.080	0.430	1.910	192.70	-1.10	2.40	 	 	 	 	 	 	 	 	 	 	 	 	 	 	 	 	 	 	1581472060	10.14	18.78
12/02/2020 01:47:42	120220	12022020	014741	192.69	13.762788	-56.912617	192.97	-0.750	0.780	2.200	192.68	-0.60	2.60	 	 	 	 	 	 	 	 	 	 	 	 	 	 	 	 	 	 	1581472061	10.78	19.96
12/02/2020 01:47:43	120220	12022020	014742	192.65	13.762737	-56.912637	192.96	-0.990	0.400	2.590	192.65	-0.90	3.00	 	 	 	 	 	 	 	 	 	 	 	 	 	 	 	 	 	 	1581472062	11.76	21.78
12/02/2020 01:47:44	120220	12022020	014743	192.67	13.762685	-56.912657	192.99	-0.660	0.010	2.730	192.69	-1.40	3.20	 	 	 	 	 	 	 	 	 	 	 	 	 	 	 	 	 	 	1581472063	11.80	21.85
12/02/2020 01:47:45	120220	12022020	014744	192.87	13.762637	-56.912673	193.25	-0.250	-0.080	2.530	192.94	-1.50	3.10	 	 	 	 	 	 	 	 	 	 	 	 	 	 	 	 	 	 	1581472064	11.26	20.85
12/02/2020 01:47:46	120220	12022020	014745	193.32	13.762588	-56.912687	193.72	-0.090	-0.030	2.130	193.42	-1.40	2.70	 	 	 	 	 	 	 	 	 	 	 	 	 	 	 	 	 	 	1581472065	10.73	19.87
12/02/2020 01:47:47	120220	12022020	014746	193.72	13.762540	-56.912702	194.03	-0.060	-0.150	1.800	193.76	-1.70	2.20	 	 	 	 	 	 	 	 	 	 	 	 	 	 	 	 	 	 	1581472066	10.62	19.67
12/02/2020 01:47:48	120220	12022020	014747	193.74	13.762492	-56.912717	193.97	0.090	-0.510	1.710	193.70	-1.90	2.20	 	 	 	 	 	 	 	 	 	 	 	 	 	 	 	 	 	 	1581472067	10.89	20.17
12/02/2020 01:47:49	120220	12022020	014748	193.43	13.762442	-56.912730	193.62	0.360	-0.800	1.720	193.36	-2.20	2.30	 	 	 	 	 	 	 	 	 	 	 	 	 	 	 	 	 	 	1581472068	11.03	20.43
12/02/2020 01:47:50	120220	12022020	014749	193.12	13.762393	-56.912742	193.39	0.470	-0.640	1.740	193.10	-2.10	2.30	 	 	 	 	 	 	 	 	 	 	 	 	 	 	 	 	 	 	1581472069	10.73	19.87
12/02/2020 01:47:51	120220	12022020	014750	193.12	13.762347	-56.912753	193.44	0.230	-0.200	1.870	193.15	-1.70	2.40	 	 	 	 	 	 	 	 	 	 	 	 	 	 	 	 	 	 	1581472070	10.31	19.09
12/02/2020 01:47:52	120220	12022020	014751	193.20	13.762300	-56.912768	193.48	-0.140	-0.080	2.150	193.19	-1.50	2.60	 	 	 	 	 	 	 	 	 	 	 	 	 	 	 	 	 	 	1581472071	10.52	19.48
12/02/2020 01:47:53	120220	12022020	014752	193.05	13.762252	-56.912787	193.29	-0.190	-0.500	2.630	192.99	-1.80	3.10	 	 	 	 	 	 	 	 	 	 	 	 	 	 	 	 	 	 	1581472072	11.26	20.85
12/02/2020 01:47:54	120220	12022020	014753	192.75	13.762200	-56.912805	192.99	0.160	-0.940	2.940	192.68	-2.30	3.40	 	 	 	 	 	 	 	 	 	 	 	 	 	 	 	 	 	 	1581472073	11.66	21.59
12/02/2020 01:47:55	120220	12022020	014754	192.47	13.762150	-56.912818	192.73	0.490	-0.780	2.860	192.42	-2.20	3.40	 	 	 	 	 	 	 	 	 	 	 	 	 	 	 	 	 	 	1581472074	11.19	20.72
12/02/2020 01:47:56	120220	12022020	014755	192.20	13.762102	-56.912830	192.46	0.400	-0.200	2.550	192.15	-1.70	3.10	 	 	 	 	 	 	 	 	 	 	 	 	 	 	 	 	 	 	1581472075	10.64	19.71
12/02/2020 01:47:57	120220	12022020	014756	192.02	13.762053	-56.912842	192.32	-0.110	0.320	2.250	192.01	-1.10	2.80	 	 	 	 	 	 	 	 	 	 	 	 	 	 	 	 	 	 	1581472076	10.53	19.50
12/02/2020 01:47:58	120220	12022020	014757	192.08	13.762007	-56.912855	192.44	-0.700	0.450	2.060	192.14	-0.90	2.60	 	 	 	 	 	 	 	 	 	 	 	 	 	 	 	 	 	 	1581472077	10.76	19.93
12/02/2020 01:47:59	120220	12022020	014758	192.44	13.761957	-56.912872	192.83	-0.950	0.260	1.810	192.53	-1.30	2.20	 	 	 	 	 	 	 	 	 	 	 	 	 	 	 	 	 	 	1581472078	11.00	20.37
12/02/2020 01:48:00	120220	12022020	014759	192.81	13.761908	-56.912888	193.14	-0.640	-0.130	1.640	192.85	-1.50	2.20	 	 	 	 	 	 	 	 	 	 	 	 	 	 	 	 	 	 	1581472079	11.10	20.56
12/02/2020 01:48:01	120220	12022020	014800	192.93	13.761858	-56.912902	193.21	0.120	-0.560	1.490	192.93	-2.10	1.90	 	 	 	 	 	 	 	 	 	 	 	 	 	 	 	 	 	 	1581472080	11.16	20.67
12/02/2020 01:48:02	120220	12022020	014801	192.87	13.761808	-56.912912	193.13	0.830	-0.720	1.350	192.84	-2.10	1.90	1017.60	26.10	26.10	20.70	20.70	-1.0	72.0	72.0	388.0	25.6	262.00	10.20	67.00	12.30	16	7355.0	27.2	27.2	1581472081	10.93	20.24
12/02/2020 01:48:03	120220	12022020	014802	192.68	13.761760	-56.912922	192.93	1.030	-0.580	1.440	192.64	-2.00	1.90	 	 	 	 	 	 	 	 	 	 	 	 	 	 	 	 	 	 	1581472082	10.61	19.65
12/02/2020 01:48:04	120220	12022020	014803	192.35	13.761712	-56.912933	192.56	0.680	-0.510	1.880	192.26	-1.90	2.30	 	 	 	 	 	 	 	 	 	 	 	 	 	 	 	 	 	 	1581472083	10.64	19.71
12/02/2020 01:48:05	120220	12022020	014804	191.85	13.761662	-56.912948	192.07	0.100	-0.590	2.570	191.76	-2.00	3.00	 	 	 	 	 	 	 	 	 	 	 	 	 	 	 	 	 	 	1581472084	11.06	20.48
12/02/2020 01:48:06	120220	12022020	014805	191.51	13.761613	-56.912967	191.84	-0.410	-0.490	3.060	191.49	-1.90	3.50	 	 	 	 	 	 	 	 	 	 	 	 	 	 	 	 	 	 	1581472085	11.17	20.69
12/02/2020 01:48:07	120220	12022020	014806	191.57	13.761565	-56.912983	191.99	-0.650	-0.230	2.980	191.62	-1.70	3.50	 	 	 	 	 	 	 	 	 	 	 	 	 	 	 	 	 	 	1581472086	10.98	20.33
12/02/2020 01:48:08	120220	12022020	014807	191.92	13.761517	-56.912998	192.36	-0.580	-0.070	2.470	192.01	-1.50	3.10	 	 	 	 	 	 	 	 	 	 	 	 	 	 	 	 	 	 	1581472087	10.95	20.28
12/02/2020 01:48:09	120220	12022020	014808	192.36	13.761467	-56.913012	192.76	-0.290	-0.050	1.820	192.43	-1.40	2.40	 	 	 	 	 	 	 	 	 	 	 	 	 	 	 	 	 	 	1581472088	11.03	20.43
12/02/2020 01:48:10	120220	12022020	014809	192.71	13.761417	-56.913022	193.06	0.010	-0.030	1.310	192.76	-1.40	1.90	 	 	 	 	 	 	 	 	 	 	 	 	 	 	 	 	 	 	1581472089	10.93	20.24
12/02/2020 01:48:11	120220	12022020	014810	192.92	13.761367	-56.913030	193.24	0.140	-0.110	1.030	192.94	-1.50	1.60	 	 	 	 	 	 	 	 	 	 	 	 	 	 	 	 	 	 	1581472090	10.92	20.22
12/02/2020 01:48:12	120220	12022020	014811	193.01	13.761317	-56.913042	193.31	0.090	-0.320	1.100	193.01	-1.70	1.60	 	 	 	 	 	 	 	 	 	 	 	 	 	 	 	 	 	 	1581472091	10.98	20.33
12/02/2020 01:48:13	120220	12022020	014812	192.97	13.761268	-56.913057	193.23	-0.010	-0.420	1.450	192.94	-1.80	1.90	 	 	 	 	 	 	 	 	 	 	 	 	 	 	 	 	 	 	1581472092	10.91	20.21
12/02/2020 01:48:14	120220	12022020	014813	192.81	13.761220	-56.913070	193.05	-0.010	-0.350	1.730	192.77	-1.80	2.20	 	 	 	 	 	 	 	 	 	 	 	 	 	 	 	 	 	 	1581472093	10.78	19.96
12/02/2020 01:48:15	120220	12022020	014814	192.61	13.761172	-56.913083	192.85	0.080	-0.320	1.870	192.57	-1.70	2.30	 	 	 	 	 	 	 	 	 	 	 	 	 	 	 	 	 	 	1581472094	10.82	20.04
12/02/2020 01:48:16	120220	12022020	014815	192.39	13.761122	-56.913098	192.63	0.180	-0.470	2.060	192.34	-1.80	2.50	 	 	 	 	 	 	 	 	 	 	 	 	 	 	 	 	 	 	1581472095	11.11	20.58
12/02/2020 01:48:17	120220	12022020	014816	192.26	13.761072	-56.913113	192.56	0.270	-0.580	1.970	192.25	-2.00	2.50	 	 	 	 	 	 	 	 	 	 	 	 	 	 	 	 	 	 	1581472096	11.21	20.76
12/02/2020 01:48:18	120220	12022020	014817	192.37	13.761022	-56.913125	192.71	0.280	-0.430	1.610	192.42	-1.90	2.20	 	 	 	 	 	 	 	 	 	 	 	 	 	 	 	 	 	 	1581472097	10.98	20.33
12/02/2020 01:48:19	120220	12022020	014818	192.66	13.760973	-56.913137	193.03	0.170	-0.040	1.350	192.73	-1.50	1.90	 	 	 	 	 	 	 	 	 	 	 	 	 	 	 	 	 	 	1581472098	10.62	19.67
12/02/2020 01:48:20	120220	12022020	014819	192.95	13.760927	-56.913148	193.28	-0.080	0.210	1.420	192.98	-1.20	1.90	 	 	 	 	 	 	 	 	 	 	 	 	 	 	 	 	 	 	1581472099	10.49	19.43
12/02/2020 01:48:21	120220	12022020	014820	193.00	13.760878	-56.913163	193.31	-0.370	0.010	1.850	192.99	-1.30	2.30	 	 	 	 	 	 	 	 	 	 	 	 	 	 	 	 	 	 	1581472100	10.90	20.19
12/02/2020 01:48:22	120220	12022020	014821	193.00	13.760830	-56.913180	193.32	-0.610	-0.290	2.220	193.01	-1.70	2.70	 	 	 	 	 	 	 	 	 	 	 	 	 	 	 	 	 	 	1581472101	11.12	20.59
12/02/2020 01:48:23	120220	12022020	014822	193.02	13.760782	-56.913198	193.31	-0.540	-0.440	2.270	193.01	-1.90	2.60	 	 	 	 	 	 	 	 	 	 	 	 	 	 	 	 	 	 	1581472102	10.95	20.28
12/02/2020 01:48:24	120220	12022020	014823	192.89	13.760732	-56.913212	193.11	-0.020	-0.650	1.940	192.83	-2.00	2.50	 	 	 	 	 	 	 	 	 	 	 	 	 	 	 	 	 	 	1581472103	10.99	20.35
12/02/2020 01:48:25	120220	12022020	014824	192.60	13.760682	-56.913223	192.84	0.630	-0.780	1.540	192.55	-2.10	1.90	 	 	 	 	 	 	 	 	 	 	 	 	 	 	 	 	 	 	1581472104	11.21	20.76
12/02/2020 01:48:26	120220	12022020	014825	192.48	13.760632	-56.913232	192.77	0.790	-0.570	1.250	192.48	-2.00	1.80	 	 	 	 	 	 	 	 	 	 	 	 	 	 	 	 	 	 	1581472105	10.94	20.26
12/02/2020 01:48:27	120220	12022020	014826	192.55	13.760583	-56.913243	192.86	0.310	-0.210	1.110	192.58	-1.70	1.60	 	 	 	 	 	 	 	 	 	 	 	 	 	 	 	 	 	 	1581472106	10.63	19.69
12/02/2020 01:48:28	120220	12022020	014827	192.62	13.760535	-56.913257	192.89	-0.260	-0.100	1.340	192.61	-1.50	1.80	 	 	 	 	 	 	 	 	 	 	 	 	 	 	 	 	 	 	1581472107	10.82	20.04
12/02/2020 01:48:29	120220	12022020	014828	192.53	13.760485	-56.913273	192.79	-0.350	-0.180	1.760	192.50	-1.60	2.20	 	 	 	 	 	 	 	 	 	 	 	 	 	 	 	 	 	 	1581472108	11.18	20.71
12/02/2020 01:48:30	120220	12022020	014829	192.44	13.760433	-56.913287	192.74	-0.110	-0.330	1.970	192.44	-1.70	2.50	 	 	 	 	 	 	 	 	 	 	 	 	 	 	 	 	 	 	1581472109	11.32	20.96
12/02/2020 01:48:31	120220	12022020	014830	192.50	13.760383	-56.913300	192.85	-0.030	-0.430	2.030	192.53	-1.80	2.50	 	 	 	 	 	 	 	 	 	 	 	 	 	 	 	 	 	 	1581472110	11.30	20.93
12/02/2020 01:48:32	120220	12022020	014831	192.62	13.760333	-56.913317	192.97	-0.290	-0.410	2.060	192.65	-1.80	2.60	 	 	 	 	 	 	 	 	 	 	 	 	 	 	 	 	 	 	1581472111	11.12	20.59
12/02/2020 01:48:33	120220	12022020	014832	192.71	13.760285	-56.913332	193.00	-0.530	-0.220	1.950	192.71	-1.70	2.50	 	 	 	 	 	 	 	 	 	 	 	 	 	 	 	 	 	 	1581472112	10.89	20.17
12/02/2020 01:48:34	120220	12022020	014833	192.64	13.760237	-56.913345	192.88	-0.390	-0.080	1.760	192.60	-1.50	2.30	 	 	 	 	 	 	 	 	 	 	 	 	 	 	 	 	 	 	1581472113	10.84	20.08
12/02/2020 01:48:35	120220	12022020	014834	192.43	13.760187	-56.913358	192.64	-0.010	-0.120	1.780	192.37	-1.50	2.40	 	 	 	 	 	 	 	 	 	 	 	 	 	 	 	 	 	 	1581472114	11.02	20.41
12/02/2020 01:48:36	120220	12022020	014835	192.15	13.760138	-56.913373	192.36	0.240	-0.120	2.100	192.08	-1.50	2.50	 	 	 	 	 	 	 	 	 	 	 	 	 	 	 	 	 	 	1581472115	10.98	20.33
12/02/2020 01:48:37	120220	12022020	014836	191.73	13.760090	-56.913388	191.90	0.280	-0.120	2.620	191.62	-1.50	3.40	 	 	 	 	 	 	 	 	 	 	 	 	 	 	 	 	 	 	1581472116	10.90	20.19
12/02/2020 01:48:38	120220	12022020	014837	191.15	13.760042	-56.913405	191.36	0.290	-0.120	3.010	191.05	-1.50	3.50	 	 	 	 	 	 	 	 	 	 	 	 	 	 	 	 	 	 	1581472117	10.99	20.35
12/02/2020 01:48:39	120220	12022020	014838	190.94	13.759993	-56.913418	191.32	0.320	0.090	2.820	190.98	-1.40	3.40	 	 	 	 	 	 	 	 	 	 	 	 	 	 	 	 	 	 	1581472118	10.74	19.89
12/02/2020 01:48:40	120220	12022020	014839	191.34	13.759947	-56.913430	191.79	0.400	0.320	2.170	191.45	-1.10	2.80	 	 	 	 	 	 	 	 	 	 	 	 	 	 	 	 	 	 	1581472119	10.32	19.11
12/02/2020 01:48:41	120220	12022020	014840	191.88	13.759898	-56.913438	192.28	0.530	-0.070	1.620	191.95	-1.40	2.20	 	 	 	 	 	 	 	 	 	 	 	 	 	 	 	 	 	 	1581472120	10.68	19.78
12/02/2020 01:48:42	120220	12022020	014841	192.12	13.759845	-56.913450	192.45	0.540	-1.060	1.790	192.12	-2.30	2.20	 	 	 	 	 	 	 	 	 	 	 	 	 	 	 	 	 	 	1581472121	11.43	21.17
12/02/2020 01:48:43	120220	12022020	014842	191.94	13.759793	-56.913463	192.17	0.300	-1.880	2.400	191.86	-3.20	2.80	 	 	 	 	 	 	 	 	 	 	 	 	 	 	 	 	 	 	1581472122	11.70	21.67
12/02/2020 01:48:44	120220	12022020	014843	191.53	13.759743	-56.913480	191.78	-0.210	-1.850	3.090	191.45	-3.30	3.50	 	 	 	 	 	 	 	 	 	 	 	 	 	 	 	 	 	 	1581472123	11.29	20.91
12/02/2020 01:48:45	120220	12022020	014844	191.23	13.759697	-56.913498	191.55	-0.740	-1.090	3.440	191.19	-2.60	3.90	 	 	 	 	 	 	 	 	 	 	 	 	 	 	 	 	 	 	1581472124	10.72	19.85
12/02/2020 01:48:46	120220	12022020	014845	190.99	13.759648	-56.913513	191.28	-0.880	-0.300	3.310	190.93	-1.80	3.80	 	 	 	 	 	 	 	 	 	 	 	 	 	 	 	 	 	 	1581472125	10.68	19.78
12/02/2020 01:48:47	120220	12022020	014846	190.65	13.759598	-56.913525	190.91	-0.540	0.090	2.990	190.56	-1.30	3.50	 	 	 	 	 	 	 	 	 	 	 	 	 	 	 	 	 	 	1581472126	11.23	20.80
12/02/2020 01:48:48	120220	12022020	014847	190.36	13.759545	-56.913535	190.68	-0.130	0.370	2.580	190.34	-1.10	3.20	 	 	 	 	 	 	 	 	 	 	 	 	 	 	 	 	 	 	1581472127	11.48	21.26
12/02/2020 01:48:49	120220	12022020	014848	190.39	13.759493	-56.913543	190.79	-0.070	0.690	2.090	190.45	-0.60	2.40	 	 	 	 	 	 	 	 	 	 	 	 	 	 	 	 	 	 	1581472128	11.17	20.69
12/02/2020 01:48:50	120220	12022020	014849	190.81	13.759445	-56.913553	191.28	-0.290	0.820	1.750	190.93	-0.60	2.30	 	 	 	 	 	 	 	 	 	 	 	 	 	 	 	 	 	 	1581472129	10.93	20.24
12/02/2020 01:48:51	120220	12022020	014850	191.49	13.759395	-56.913567	191.95	-0.400	0.610	1.670	191.60	-1.00	2.30	 	 	 	 	 	 	 	 	 	 	 	 	 	 	 	 	 	 	1581472130	10.93	20.24
12/02/2020 01:48:52	120220	12022020	014851	191.95	13.759345	-56.913582	192.33	-0.100	0.080	1.880	192.00	-1.20	2.40	 	 	 	 	 	 	 	 	 	 	 	 	 	 	 	 	 	 	1581472131	11.10	20.56
12/02/2020 01:48:53	120220	12022020	014852	192.12	13.759297	-56.913595	192.49	0.340	-0.330	2.090	192.15	-1.70	2.60	 	 	 	 	 	 	 	 	 	 	 	 	 	 	 	 	 	 	1581472132	10.98	20.33
12/02/2020 01:48:54	120220	12022020	014853	192.27	13.759250	-56.913608	192.64	0.520	-0.350	2.090	192.30	-1.70	2.60	 	 	 	 	 	 	 	 	 	 	 	 	 	 	 	 	 	 	1581472133	10.39	19.24
12/02/2020 01:48:55	120220	12022020	014854	192.41	13.759203	-56.913620	192.73	0.490	-0.470	1.800	192.42	-1.80	2.40	 	 	 	 	 	 	 	 	 	 	 	 	 	 	 	 	 	 	1581472134	10.24	18.96
12/02/2020 01:48:56	120220	12022020	014855	192.30	13.759153	-56.913632	192.54	0.650	-1.160	1.510	192.24	-2.40	2.10	 	 	 	 	 	 	 	 	 	 	 	 	 	 	 	 	 	 	1581472135	10.99	20.35
12/02/2020 01:48:57	120220	12022020	014856	192.02	13.759102	-56.913642	192.27	0.910	-1.670	1.270	191.97	-3.00	1.80	 	 	 	 	 	 	 	 	 	 	 	 	 	 	 	 	 	 	1581472136	11.48	21.26
12/02/2020 01:48:58	120220	12022020	014857	191.80	13.759052	-56.913650	192.05	0.750	-1.390	1.280	191.75	-2.90	1.80	 	 	 	 	 	 	 	 	 	 	 	 	 	 	 	 	 	 	1581472137	10.95	20.28
12/02/2020 01:48:59	120220	12022020	014858	191.58	13.759003	-56.913663	191.87	0.070	-0.770	1.580	191.55	-2.20	2.00	 	 	 	 	 	 	 	 	 	 	 	 	 	 	 	 	 	 	1581472138	10.73	19.87
12/02/2020 01:49:00	120220	12022020	014859	191.54	13.758955	-56.913680	191.92	-0.770	-0.080	1.940	191.57	-1.50	2.40	 	 	 	 	 	 	 	 	 	 	 	 	 	 	 	 	 	 	1581472139	10.89	20.17
12/02/2020 01:49:01	120220	12022020	014900	191.84	13.758907	-56.913697	192.28	-1.280	0.570	1.910	191.94	-0.90	2.40	 	 	 	 	 	 	 	 	 	 	 	 	 	 	 	 	 	 	1581472140	10.91	20.21
12/02/2020 01:49:02	120220	12022020	014901	192.38	13.758857	-56.913710	192.83	-1.170	0.860	1.420	192.50	-0.50	2.00	1017.60	26.00	26.10	20.70	20.80	-1.0	72.0	72.0	389.0	25.6	261.00	10.20	67.00	12.30	16	7624.0	27.2	27.2	1581472141	11.00	20.37
12/02/2020 01:49:03	120220	12022020	014902	192.86	13.758805	-56.913722	193.22	-0.540	0.520	0.990	192.93	-0.80	1.50	 	 	 	 	 	 	 	 	 	 	 	 	 	 	 	 	 	 	1581472142	11.41	21.13
12/02/2020 01:49:04	120220	12022020	014903	192.97	13.758752	-56.913735	193.21	0.130	-0.310	1.150	192.92	-1.60	1.60	 	 	 	 	 	 	 	 	 	 	 	 	 	 	 	 	 	 	1581472143	11.82	21.89
12/02/2020 01:49:05	120220	12022020	014904	192.54	13.758698	-56.913750	192.69	0.390	-1.070	1.780	192.42	-2.40	2.20	 	 	 	 	 	 	 	 	 	 	 	 	 	 	 	 	 	 	1581472144	11.87	21.98
12/02/2020 01:49:06	120220	12022020	014905	191.89	13.758648	-56.913767	192.09	0.150	-1.040	2.390	191.78	-2.50	2.80	 	 	 	 	 	 	 	 	 	 	 	 	 	 	 	 	 	 	1581472145	11.27	20.87
12/02/2020 01:49:07	120220	12022020	014906	191.50	13.758605	-56.913783	191.79	-0.320	-0.140	2.680	191.45	-1.70	3.20	 	 	 	 	 	 	 	 	 	 	 	 	 	 	 	 	 	 	1581472146	10.21	18.91
12/02/2020 01:49:08	120220	12022020	014907	191.29	13.758560	-56.913800	191.56	-0.450	0.480	2.680	191.23	-0.90	3.20	 	 	 	 	 	 	 	 	 	 	 	 	 	 	 	 	 	 	1581472147	10.07	18.65
12/02/2020 01:49:09	120220	12022020	014908	190.96	13.758510	-56.913813	191.21	0.080	0.070	2.360	190.89	-1.20	2.90	 	 	 	 	 	 	 	 	 	 	 	 	 	 	 	 	 	 	1581472148	11.18	20.71
12/02/2020 01:49:10	120220	12022020	014909	190.74	13.758457	-56.913825	191.07	0.820	-0.570	1.870	190.74	-1.90	2.50	 	 	 	 	 	 	 	 	 	 	 	 	 	 	 	 	 	 	1581472149	11.78	21.82
12/02/2020 01:49:11	120220	12022020	014910	190.93	13.758405	-56.913833	191.37	1.060	-0.560	1.430	191.02	-2.00	2.00	 	 	 	 	 	 	 	 	 	 	 	 	 	 	 	 	 	 	1581472150	11.17	20.69
12/02/2020 01:49:12	120220	12022020	014911	191.48	13.758358	-56.913842	191.97	0.570	-0.130	1.220	191.61	-1.60	1.70	 	 	 	 	 	 	 	 	 	 	 	 	 	 	 	 	 	 	1581472151	10.38	19.22
12/02/2020 01:49:13	120220	12022020	014912	192.04	13.758312	-56.913853	192.47	-0.130	0.040	1.590	192.11	-1.50	2.50	 	 	 	 	 	 	 	 	 	 	 	 	 	 	 	 	 	 	1581472152	10.36	19.19
12/02/2020 01:49:14	120220	12022020	014913	192.21	13.758262	-56.913870	192.55	-0.420	-0.310	2.350	192.19	-1.60	2.70	 	 	 	 	 	 	 	 	 	 	 	 	 	 	 	 	 	 	1581472153	11.04	20.45
12/02/2020 01:49:15	120220	12022020	014914	192.03	13.758212	-56.913887	192.38	-0.330	-0.680	2.870	192.00	-2.00	3.30	 	 	 	 	 	 	 	 	 	 	 	 	 	 	 	 	 	 	1581472154	11.37	21.06
12/02/2020 01:49:16	120220	12022020	014915	191.89	13.758162	-56.913900	192.25	-0.200	-0.760	2.940	191.87	-2.10	3.40	 	 	 	 	 	 	 	 	 	 	 	 	 	 	 	 	 	 	1581472155	11.14	20.63
12/02/2020 01:49:17	120220	12022020	014916	191.72	13.758112	-56.913915	192.04	-0.110	-0.780	2.830	191.67	-2.10	3.40	 	 	 	 	 	 	 	 	 	 	 	 	 	 	 	 	 	 	1581472156	11.11	20.58
12/02/2020 01:49:18	120220	12022020	014917	191.39	13.758062	-56.913927	191.68	0.020	-0.760	2.470	191.32	-2.10	3.00	 	 	 	 	 	 	 	 	 	 	 	 	 	 	 	 	 	 	1581472157	11.28	20.89
12/02/2020 01:49:19	120220	12022020	014918	191.09	13.758010	-56.913937	191.42	0.090	-0.390	2.040	191.06	-1.80	2.60	 	 	 	 	 	 	 	 	 	 	 	 	 	 	 	 	 	 	1581472158	11.06	20.48
12/02/2020 01:49:20	120220	12022020	014919	191.20	13.757963	-56.913947	191.67	-0.110	0.360	1.710	191.30	-1.10	2.30	 	 	 	 	 	 	 	 	 	 	 	 	 	 	 	 	 	 	1581472159	10.46	19.37
12/02/2020 01:49:21	120220	12022020	014920	191.72	13.757917	-56.913960	192.17	-0.460	0.880	1.650	191.82	-0.50	2.10	 	 	 	 	 	 	 	 	 	 	 	 	 	 	 	 	 	 	1581472160	10.14	18.78
12/02/2020 01:49:22	120220	12022020	014921	192.03	13.757870	-56.913975	192.38	-0.450	0.430	1.990	192.03	-0.80	2.40	 	 	 	 	 	 	 	 	 	 	 	 	 	 	 	 	 	 	1581472161	10.87	20.13
12/02/2020 01:49:23	120220	12022020	014922	191.83	13.757815	-56.913992	192.09	0.200	-0.870	2.340	191.75	-2.00	2.80	 	 	 	 	 	 	 	 	 	 	 	 	 	 	 	 	 	 	1581472162	12.04	22.30
12/02/2020 01:49:24	120220	12022020	014923	191.43	13.757762	-56.914005	191.72	0.890	-1.600	2.490	191.37	-2.90	3.00	 	 	 	 	 	 	 	 	 	 	 	 	 	 	 	 	 	 	1581472163	12.05	22.32
12/02/2020 01:49:25	120220	12022020	014924	191.28	13.757713	-56.914017	191.66	0.930	-0.910	2.230	191.30	-2.40	2.80	 	 	 	 	 	 	 	 	 	 	 	 	 	 	 	 	 	 	1581472164	10.61	19.65
12/02/2020 01:49:26	120220	12022020	014925	191.49	13.757670	-56.914025	191.90	0.360	0.350	1.560	191.55	-1.20	2.20	 	 	 	 	 	 	 	 	 	 	 	 	 	 	 	 	 	 	1581472165	9.56	17.71
12/02/2020 01:49:27	120220	12022020	014926	191.81	13.757622	-56.914032	192.18	-0.170	0.680	0.970	191.87	-1.00	1.40	 	 	 	 	 	 	 	 	 	 	 	 	 	 	 	 	 	 	1581472166	10.22	18.93
12/02/2020 01:49:28	120220	12022020	014927	191.99	13.757570	-56.914043	192.33	-0.240	-0.120	0.990	192.01	-1.30	1.50	 	 	 	 	 	 	 	 	 	 	 	 	 	 	 	 	 	 	1581472167	11.63	21.54
12/02/2020 01:49:29	120220	12022020	014928	192.12	13.757515	-56.914060	192.47	-0.150	-0.920	1.370	192.16	-2.20	1.80	 	 	 	 	 	 	 	 	 	 	 	 	 	 	 	 	 	 	1581472168	12.04	22.30
12/02/2020 01:49:30	120220	12022020	014929	192.34	13.757467	-56.914077	192.72	-0.370	-0.890	1.830	192.38	-2.30	2.30	 	 	 	 	 	 	 	 	 	 	 	 	 	 	 	 	 	 	1581472169	11.22	20.78
12/02/2020 01:49:31	120220	12022020	014930	192.44	13.757420	-56.914095	192.75	-0.790	-0.340	2.340	192.42	-1.80	2.80	 	 	 	 	 	 	 	 	 	 	 	 	 	 	 	 	 	 	1581472170	10.46	19.37
12/02/2020 01:49:32	120220	12022020	014931	192.19	13.757375	-56.914112	192.42	-0.900	-0.050	2.710	192.10	-1.40	3.20	 	 	 	 	 	 	 	 	 	 	 	 	 	 	 	 	 	 	1581472171	10.57	19.58
12/02/2020 01:49:33	120220	12022020	014932	191.74	13.757325	-56.914127	191.99	-0.410	-0.220	2.520	191.65	-1.50	3.10	 	 	 	 	 	 	 	 	 	 	 	 	 	 	 	 	 	 	1581472172	11.12	20.59
12/02/2020 01:49:34	120220	12022020	014933	191.36	13.757275	-56.914138	191.63	0.390	-0.400	2.000	191.29	-1.80	2.60	 	 	 	 	 	 	 	 	 	 	 	 	 	 	 	 	 	 	1581472173	11.28	20.89
12/02/2020 01:49:35	120220	12022020	014934	191.03	13.757223	-56.914148	191.31	0.960	-0.290	1.440	190.98	-1.70	2.00	 	 	 	 	 	 	 	 	 	 	 	 	 	 	 	 	 	 	1581472174	10.98	20.33
12/02/2020 01:49:36	120220	12022020	014935	190.87	13.757175	-56.914155	191.21	0.990	0.120	0.880	190.88	-1.30	1.50	 	 	 	 	 	 	 	 	 	 	 	 	 	 	 	 	 	 	1581472175	10.52	19.48
12/02/2020 01:49:37	120220	12022020	014936	190.98	13.757128	-56.914162	191.35	0.580	0.300	0.710	191.02	-1.00	1.20	 	 	 	 	 	 	 	 	 	 	 	 	 	 	 	 	 	 	1581472176	10.40	19.26
12/02/2020 01:49:38	120220	12022020	014937	191.17	13.757078	-56.914175	191.56	0.150	-0.110	1.170	191.21	-1.40	1.60	 	 	 	 	 	 	 	 	 	 	 	 	 	 	 	 	 	 	1581472177	10.96	20.30
12/02/2020 01:49:39	120220	12022020	014938	191.32	13.757027	-56.914192	191.71	-0.080	-0.800	2.130	191.33	-2.40	3.20	 	 	 	 	 	 	 	 	 	 	 	 	 	 	 	 	 	 	1581472178	11.50	21.30
12/02/2020 01:49:40	120220	12022020	014939	191.30	13.756978	-56.914212	191.64	-0.190	-1.210	3.270	191.25	-2.50	3.60	 	 	 	 	 	 	 	 	 	 	 	 	 	 	 	 	 	 	1581472179	11.54	21.37
12/02/2020 01:49:41	120220	12022020	014940	191.02	13.756928	-56.914232	191.36	-0.300	-1.090	3.950	190.97	-2.20	4.50	 	 	 	 	 	 	 	 	 	 	 	 	 	 	 	 	 	 	1581472180	11.19	20.72
12/02/2020 01:49:42	120220	12022020	014941	190.81	13.756882	-56.914247	191.22	-0.470	-0.440	3.910	190.80	-1.90	4.40	 	 	 	 	 	 	 	 	 	 	 	 	 	 	 	 	 	 	1581472181	10.64	19.71
12/02/2020 01:49:43	120220	12022020	014942	190.88	13.756837	-56.914260	191.33	-0.570	0.310	3.280	190.93	-1.10	3.90	 	 	 	 	 	 	 	 	 	 	 	 	 	 	 	 	 	 	1581472182	10.26	19.00
12/02/2020 01:49:44	120220	12022020	014943	191.19	13.756788	-56.914268	191.64	-0.390	0.580	2.200	191.26	-0.80	2.90	 	 	 	 	 	 	 	 	 	 	 	 	 	 	 	 	 	 	1581472183	10.49	19.43
12/02/2020 01:49:45	120220	12022020	014944	191.44	13.756737	-56.914275	191.81	0.150	0.070	1.380	191.45	-1.20	2.00	 	 	 	 	 	 	 	 	 	 	 	 	 	 	 	 	 	 	1581472184	11.23	20.80
12/02/2020 01:49:46	120220	12022020	014945	191.36	13.756682	-56.914283	191.65	0.720	-0.810	1.240	191.31	-2.00	1.80	 	 	 	 	 	 	 	 	 	 	 	 	 	 	 	 	 	 	1581472185	11.82	21.89
12/02/2020 01:49:47	120220	12022020	014946	191.11	13.756628	-56.914292	191.40	0.840	-1.230	1.460	191.05	-2.60	1.90	 	 	 	 	 	 	 	 	 	 	 	 	 	 	 	 	 	 	1581472186	11.60	21.48
12/02/2020 01:49:48	120220	12022020	014947	190.86	13.756578	-56.914303	191.17	0.410	-0.890	1.850	190.82	-2.30	2.30	 	 	 	 	 	 	 	 	 	 	 	 	 	 	 	 	 	 	1581472187	10.91	20.21
12/02/2020 01:49:49	120220	12022020	014948	190.79	13.756533	-56.914317	191.19	-0.280	-0.000	2.150	190.81	-1.50	2.60	 	 	 	 	 	 	 	 	 	 	 	 	 	 	 	 	 	 	1581472188	10.27	19.02
12/02/2020 01:49:50	120220	12022020	014949	190.94	13.756487	-56.914330	191.35	-0.860	0.630	2.430	190.97	-0.80	2.90	 	 	 	 	 	 	 	 	 	 	 	 	 	 	 	 	 	 	1581472189	10.21	18.91
12/02/2020 01:49:51	120220	12022020	014950	190.97	13.756438	-56.914348	191.31	-1.030	0.330	2.750	190.94	-0.90	3.20	 	 	 	 	 	 	 	 	 	 	 	 	 	 	 	 	 	 	1581472190	11.13	20.61
12/02/2020 01:49:52	120220	12022020	014951	190.74	13.756387	-56.914367	191.03	-0.680	-0.500	2.960	190.67	-1.70	3.40	 	 	 	 	 	 	 	 	 	 	 	 	 	 	 	 	 	 	1581472191	11.94	22.11
12/02/2020 01:49:53	120220	12022020	014952	190.42	13.756333	-56.914382	190.74	0.030	-0.860	2.760	190.39	-2.10	2.90	 	 	 	 	 	 	 	 	 	 	 	 	 	 	 	 	 	 	1581472192	11.73	21.72
12/02/2020 01:49:54	120220	12022020	014953	190.47	13.756285	-56.914392	190.90	0.670	-0.400	1.920	190.54	-1.90	2.60	 	 	 	 	 	 	 	 	 	 	 	 	 	 	 	 	 	 	1581472193	10.76	19.93
12/02/2020 01:49:55	120220	12022020	014954	190.98	13.756238	-56.914397	191.46	0.900	0.360	0.990	191.10	-1.10	1.60	 	 	 	 	 	 	 	 	 	 	 	 	 	 	 	 	 	 	1581472194	10.07	18.65
12/02/2020 01:49:56	120220	12022020	014955	191.63	13.756192	-56.914403	192.09	0.710	0.710	0.390	191.76	-0.70	1.00	 	 	 	 	 	 	 	 	 	 	 	 	 	 	 	 	 	 	1581472195	10.08	18.67
12/02/2020 01:49:57	120220	12022020	014956	192.16	13.756143	-56.914410	192.56	0.430	0.260	0.280	192.23	-1.00	0.80	 	 	 	 	 	 	 	 	 	 	 	 	 	 	 	 	 	 	1581472196	10.64	19.71
12/02/2020 01:49:58	120220	12022020	014957	192.35	13.756090	-56.914420	192.63	0.360	-0.870	0.660	192.32	-2.00	1.10	 	 	 	 	 	 	 	 	 	 	 	 	 	 	 	 	 	 	1581472197	11.41	21.13
12/02/2020 01:49:59	120220	12022020	014958	192.07	13.756037	-56.914433	192.31	0.400	-1.990	1.410	191.99	-3.20	1.80	 	 	 	 	 	 	 	 	 	 	 	 	 	 	 	 	 	 	1581472198	11.91	22.06
12/02/2020 01:50:00	120220	12022020	014959	191.60	13.755985	-56.914447	191.83	0.130	-2.270	2.250	191.49	-3.60	2.60	 	 	 	 	 	 	 	 	 	 	 	 	 	 	 	 	 	 	1581472199	11.57	21.43
12/02/2020 01:50:01	120220	12022020	015000	190.99	13.755937	-56.914463	191.19	-0.570	-1.570	3.080	190.84	-3.00	3.50	 	 	 	 	 	 	 	 	 	 	 	 	 	 	 	 	 	 	1581472200	10.91	20.21
12/02/2020 01:50:02	120220	12022020	015001	190.23	13.755890	-56.914483	190.45	-1.340	-0.470	3.650	190.09	-2.00	4.10	1017.50	26.00	26.10	20.80	20.80	-1.0	72.0	72.0	391.0	25.6	259.00	9.60	63.00	12.00	16	7579.0	27.2	27.2	1581472201	10.79	19.98
12/02/2020 01:50:03	120220	12022020	015002	189.74	13.755843	-56.914502	190.08	-1.690	0.620	3.540	189.71	-0.30	3.80	 	 	 	 	 	 	 	 	 	 	 	 	 	 	 	 	 	 	1581472202	10.90	20.19
12/02/2020 01:50:04	120220	12022020	015003	189.76	13.755795	-56.914518	190.18	-1.350	1.360	2.890	189.82	-0.10	3.50	 	 	 	 	 	 	 	 	 	 	 	 	 	 	 	 	 	 	1581472203	10.90	20.19
12/02/2020 01:50:05	120220	12022020	015004	190.19	13.755743	-56.914530	190.67	-0.440	1.340	1.840	190.32	-0.30	1.80	 	 	 	 	 	 	 	 	 	 	 	 	 	 	 	 	 	 	1581472204	11.23	20.80
12/02/2020 01:50:06	120220	12022020	015005	190.88	13.755690	-56.914538	191.33	0.650	0.710	0.850	191.01	-0.60	1.50	 	 	 	 	 	 	 	 	 	 	 	 	 	 	 	 	 	 	1581472205	11.60	21.48
12/02/2020 01:50:07	120220	12022020	015006	191.62	13.755638	-56.914545	192.09	1.410	0.010	0.330	191.77	-1.30	0.90	 	 	 	 	 	 	 	 	 	 	 	 	 	 	 	 	 	 	1581472206	11.43	21.17
12/02/2020 01:50:08	120220	12022020	015007	192.36	13.755588	-56.914550	192.81	1.510	-0.430	0.300	192.49	-1.70	0.80	 	 	 	 	 	 	 	 	 	 	 	 	 	 	 	 	 	 	1581472207	10.81	20.02
12/02/2020 01:50:09	120220	12022020	015008	192.90	13.755540	-56.914560	193.25	1.010	-0.780	0.700	192.95	-2.10	1.10	 	 	 	 	 	 	 	 	 	 	 	 	 	 	 	 	 	 	1581472208	10.41	19.28
12/02/2020 01:50:10	120220	12022020	015009	192.92	13.755492	-56.914572	193.16	0.380	-1.340	1.530	192.87	-2.60	1.90	 	 	 	 	 	 	 	 	 	 	 	 	 	 	 	 	 	 	1581472209	10.77	19.95
12/02/2020 01:50:11	120220	12022020	015010	192.56	13.755443	-56.914590	192.81	-0.190	-1.680	2.500	192.48	-3.00	2.90	 	 	 	 	 	 	 	 	 	 	 	 	 	 	 	 	 	 	1581472210	11.15	20.65
12/02/2020 01:50:12	120220	12022020	015011	192.15	13.755395	-56.914608	192.41	-0.630	-1.320	3.130	192.07	-2.80	3.60	 	 	 	 	 	 	 	 	 	 	 	 	 	 	 	 	 	 	1581472211	10.87	20.13
12/02/2020 01:50:13	120220	12022020	015012	191.81	13.755350	-56.914625	192.10	-0.860	-0.530	3.040	191.76	-2.00	3.60	 	 	 	 	 	 	 	 	 	 	 	 	 	 	 	 	 	 	1581472212	10.50	19.45
12/02/2020 01:50:14	120220	12022020	015013	191.64	13.755302	-56.914638	191.97	-0.800	0.100	2.430	191.62	-1.30	3.00	 	 	 	 	 	 	 	 	 	 	 	 	 	 	 	 	 	 	1581472213	10.66	19.74
12/02/2020 01:50:15	120220	12022020	015014	191.71	13.755252	-56.914650	192.13	-0.470	0.370	1.510	191.77	-1.00	2.10	 	 	 	 	 	 	 	 	 	 	 	 	 	 	 	 	 	 	1581472214	11.03	20.43
12/02/2020 01:50:16	120220	12022020	015015	192.05	13.755200	-56.914660	192.48	-0.060	0.360	0.700	192.12	-1.00	1.30	 	 	 	 	 	 	 	 	 	 	 	 	 	 	 	 	 	 	1581472215	11.16	20.67
12/02/2020 01:50:17	120220	12022020	015016	192.29	13.755150	-56.914670	192.61	0.310	0.100	0.550	192.29	-1.50	1.20	 	 	 	 	 	 	 	 	 	 	 	 	 	 	 	 	 	 	1581472216	11.21	20.76
12/02/2020 01:50:18	120220	12022020	015017	192.09	13.755097	-56.914682	192.33	0.620	-0.440	0.940	192.01	-1.70	1.40	 	 	 	 	 	 	 	 	 	 	 	 	 	 	 	 	 	 	1581472217	11.48	21.26
12/02/2020 01:50:19	120220	12022020	015018	191.71	13.755045	-56.914695	192.02	0.670	-0.740	1.500	191.67	-2.00	2.30	 	 	 	 	 	 	 	 	 	 	 	 	 	 	 	 	 	 	1581472218	11.50	21.30
12/02/2020 01:50:20	120220	12022020	015019	191.66	13.754997	-56.914710	192.08	0.310	-0.400	1.940	191.70	-1.80	2.40	 	 	 	 	 	 	 	 	 	 	 	 	 	 	 	 	 	 	1581472219	10.82	20.04
12/02/2020 01:50:21	120220	12022020	015020	191.98	13.754952	-56.914725	192.45	-0.280	0.270	1.970	192.07	-1.20	2.50	 	 	 	 	 	 	 	 	 	 	 	 	 	 	 	 	 	 	1581472220	10.18	18.85
12/02/2020 01:50:22	120220	12022020	015021	192.43	13.754907	-56.914738	192.89	-0.710	0.550	1.830	192.53	-0.80	2.40	 	 	 	 	 	 	 	 	 	 	 	 	 	 	 	 	 	 	1581472221	10.25	18.98
12/02/2020 01:50:23	120220	12022020	015022	192.91	13.754858	-56.914753	193.33	-0.680	0.290	1.620	193.00	-1.00	2.20	 	 	 	 	 	 	 	 	 	 	 	 	 	 	 	 	 	 	1581472222	10.69	19.80
12/02/2020 01:50:24	120220	12022020	015023	193.16	13.754808	-56.914768	193.44	-0.070	-0.550	1.390	193.15	-1.80	1.90	 	 	 	 	 	 	 	 	 	 	 	 	 	 	 	 	 	 	1581472223	11.27	20.87
12/02/2020 01:50:25	120220	12022020	015024	192.84	13.754755	-56.914780	193.00	0.830	-1.490	1.420	192.72	-2.70	1.90	 	 	 	 	 	 	 	 	 	 	 	 	 	 	 	 	 	 	1581472224	11.82	21.89
12/02/2020 01:50:26	120220	12022020	015025	192.39	13.754703	-56.914790	192.66	1.170	-1.380	1.520	192.36	-2.80	2.00	 	 	 	 	 	 	 	 	 	 	 	 	 	 	 	 	 	 	1581472225	11.24	20.82
12/02/2020 01:50:27	120220	12022020	015026	192.32	13.754658	-56.914800	192.65	0.520	-0.340	1.720	192.33	-1.80	2.20	 	 	 	 	 	 	 	 	 	 	 	 	 	 	 	 	 	 	1581472226	9.95	18.43
12/02/2020 01:50:28	120220	12022020	015027	192.31	13.754613	-56.914815	192.58	-0.450	0.330	2.130	192.27	-1.10	2.60	 	 	 	 	 	 	 	 	 	 	 	 	 	 	 	 	 	 	1581472227	10.06	18.63
12/02/2020 01:50:29	120220	12022020	015028	192.08	13.754565	-56.914833	192.33	-0.820	0.090	2.640	192.01	-1.50	3.30	 	 	 	 	 	 	 	 	 	 	 	 	 	 	 	 	 	 	1581472228	11.23	20.80
12/02/2020 01:50:30	120220	12022020	015029	191.75	13.754513	-56.914852	191.99	-0.390	-0.450	2.960	191.68	-1.70	3.40	 	 	 	 	 	 	 	 	 	 	 	 	 	 	 	 	 	 	1581472229	11.87	21.98
12/02/2020 01:50:31	120220	12022020	015030	191.42	13.754462	-56.914867	191.69	0.290	-0.610	2.840	191.37	-1.80	3.10	 	 	 	 	 	 	 	 	 	 	 	 	 	 	 	 	 	 	1581472230	11.61	21.50
12/02/2020 01:50:32	120220	12022020	015031	191.37	13.754412	-56.914878	191.75	0.550	-0.250	2.320	191.41	-1.70	2.90	 	 	 	 	 	 	 	 	 	 	 	 	 	 	 	 	 	 	1581472231	10.92	20.22
12/02/2020 01:50:33	120220	12022020	015032	191.77	13.754363	-56.914887	192.25	0.280	0.230	1.700	191.89	-1.20	2.30	 	 	 	 	 	 	 	 	 	 	 	 	 	 	 	 	 	 	1581472232	10.45	19.35
12/02/2020 01:50:34	120220	12022020	015033	192.47	13.754315	-56.914898	192.92	-0.150	0.300	1.370	192.59	-1.00	1.90	 	 	 	 	 	 	 	 	 	 	 	 	 	 	 	 	 	 	1581472233	10.52	19.48
12/02/2020 01:50:35	120220	12022020	015034	192.94	13.754267	-56.914912	193.30	-0.340	-0.160	1.580	192.98	-1.40	2.00	 	 	 	 	 	 	 	 	 	 	 	 	 	 	 	 	 	 	1581472234	11.03	20.43
12/02/2020 01:50:36	120220	12022020	015035	193.04	13.754215	-56.914927	193.33	-0.240	-0.690	1.870	193.03	-2.00	2.30	 	 	 	 	 	 	 	 	 	 	 	 	 	 	 	 	 	 	1581472235	11.32	20.96
12/02/2020 01:50:37	120220	12022020	015036	193.03	13.754167	-56.914942	193.33	-0.130	-0.790	1.930	193.03	-2.20	2.40	 	 	 	 	 	 	 	 	 	 	 	 	 	 	 	 	 	 	1581472236	11.04	20.45
12/02/2020 01:50:38	120220	12022020	015037	193.05	13.754118	-56.914957	193.33	-0.130	-0.590	1.790	193.04	-2.00	2.30	 	 	 	 	 	 	 	 	 	 	 	 	 	 	 	 	 	 	1581472237	10.63	19.69
12/02/2020 01:50:39	120220	12022020	015038	192.91	13.754072	-56.914970	193.14	-0.020	-0.450	1.560	192.85	-1.80	2.10	 	 	 	 	 	 	 	 	 	 	 	 	 	 	 	 	 	 	1581472238	10.71	19.83
12/02/2020 01:50:40	120220	12022020	015039	192.57	13.754020	-56.914980	192.81	0.380	-0.380	1.230	192.51	-1.80	1.80	 	 	 	 	 	 	 	 	 	 	 	 	 	 	 	 	 	 	1581472239	11.04	20.45
12/02/2020 01:50:41	120220	12022020	015040	192.39	13.753970	-56.914988	192.72	0.670	-0.060	0.940	192.39	-1.50	1.50	 	 	 	 	 	 	 	 	 	 	 	 	 	 	 	 	 	 	1581472240	10.88	20.15
12/02/2020 01:50:42	120220	12022020	015041	192.49	13.753922	-56.914998	192.87	0.530	0.200	0.930	192.54	-1.20	1.40	 	 	 	 	 	 	 	 	 	 	 	 	 	 	 	 	 	 	1581472241	10.69	19.80
12/02/2020 01:50:43	120220	12022020	015042	192.67	13.753872	-56.915012	193.01	0.150	-0.060	1.410	192.68	-1.80	2.30	 	 	 	 	 	 	 	 	 	 	 	 	 	 	 	 	 	 	1581472242	11.07	20.50
12/02/2020 01:50:44	120220	12022020	015043	192.56	13.753820	-56.915030	192.83	-0.050	-0.770	2.310	192.50	-2.00	2.60	 	 	 	 	 	 	 	 	 	 	 	 	 	 	 	 	 	 	1581472243	11.74	21.74
12/02/2020 01:50:45	120220	12022020	015044	192.16	13.753768	-56.915050	192.45	-0.150	-1.180	3.300	192.08	-2.50	3.70	 	 	 	 	 	 	 	 	 	 	 	 	 	 	 	 	 	 	1581472244	11.86	21.96
12/02/2020 01:50:46	120220	12022020	015045	191.81	13.753722	-56.915070	192.18	-0.470	-0.700	3.860	191.77	-2.20	4.30	 	 	 	 	 	 	 	 	 	 	 	 	 	 	 	 	 	 	1581472245	11.07	20.50
12/02/2020 01:50:47	120220	12022020	015046	191.71	13.753678	-56.915090	192.11	-0.860	0.160	3.730	191.71	-1.30	4.30	 	 	 	 	 	 	 	 	 	 	 	 	 	 	 	 	 	 	1581472246	10.37	19.21
12/02/2020 01:50:48	120220	12022020	015047	191.73	13.753632	-56.915108	192.14	-0.790	0.500	3.030	191.76	-0.90	3.70	 	 	 	 	 	 	 	 	 	 	 	 	 	 	 	 	 	 	1581472247	10.59	19.61
12/02/2020 01:50:49	120220	12022020	015048	191.99	13.753582	-56.915120	192.45	-0.080	0.450	1.840	192.09	-0.90	2.50	 	 	 	 	 	 	 	 	 	 	 	 	 	 	 	 	 	 	1581472248	10.99	20.35
12/02/2020 01:50:50	120220	12022020	015049	192.61	13.753532	-56.915125	193.12	0.660	0.430	0.620	192.78	-0.90	1.30	 	 	 	 	 	 	 	 	 	 	 	 	 	 	 	 	 	 	1581472249	10.82	20.04
12/02/2020 01:50:51	120220	12022020	015050	193.43	13.753482	-56.915130	193.89	0.820	0.130	0.090	193.56	-1.20	0.60	 	 	 	 	 	 	 	 	 	 	 	 	 	 	 	 	 	 	1581472250	10.66	19.74
12/02/2020 01:50:52	120220	12022020	015051	193.86	13.753433	-56.915142	194.16	0.480	-0.750	0.710	193.86	-2.00	1.10	 	 	 	 	 	 	 	 	 	 	 	 	 	 	 	 	 	 	1581472251	10.96	20.30
12/02/2020 01:50:53	120220	12022020	015052	193.55	13.753382	-56.915160	193.70	0.190	-1.840	1.990	193.40	-3.60	3.10	 	 	 	 	 	 	 	 	 	 	 	 	 	 	 	 	 	 	1581472252	11.59	21.46
12/02/2020 01:50:54	120220	12022020	015053	192.65	13.753330	-56.915180	192.75	0.210	-2.350	3.210	192.43	-3.70	3.60	 	 	 	 	 	 	 	 	 	 	 	 	 	 	 	 	 	 	1581472253	11.75	21.76
12/02/2020 01:50:55	120220	12022020	015054	191.67	13.753282	-56.915197	191.86	0.180	-1.650	3.770	191.51	-2.30	4.20	 	 	 	 	 	 	 	 	 	 	 	 	 	 	 	 	 	 	1581472254	11.03	20.43
12/02/2020 01:50:56	120220	12022020	015055	191.04	13.753237	-56.915210	191.35	-0.190	-0.130	3.610	190.97	-1.70	4.10	 	 	 	 	 	 	 	 	 	 	 	 	 	 	 	 	 	 	1581472255	10.10	18.71
12/02/2020 01:50:57	120220	12022020	015056	190.80	13.753192	-56.915222	191.16	-0.710	1.030	3.090	190.78	-0.40	3.60	 	 	 	 	 	 	 	 	 	 	 	 	 	 	 	 	 	 	1581472256	10.10	18.71
12/02/2020 01:50:58	120220	12022020	015057	190.67	13.753142	-56.915237	191.04	-0.940	1.190	2.710	190.66	-0.10	3.20	 	 	 	 	 	 	 	 	 	 	 	 	 	 	 	 	 	 	1581472257	10.96	20.30
12/02/2020 01:50:59	120220	12022020	015058	190.66	13.753090	-56.915252	191.08	-0.720	0.640	2.520	190.69	-0.60	3.00	 	 	 	 	 	 	 	 	 	 	 	 	 	 	 	 	 	 	1581472258	11.67	21.61
12/02/2020 01:51:00	120220	12022020	015059	190.86	13.753038	-56.915268	191.33	-0.240	0.070	2.280	190.93	-1.20	2.80	 	 	 	 	 	 	 	 	 	 	 	 	 	 	 	 	 	 	1581472259	11.63	21.54
12/02/2020 01:51:01	120220	12022020	015100	191.32	13.752990	-56.915282	191.87	0.200	-0.030	1.870	191.46	-1.40	2.40	 	 	 	 	 	 	 	 	 	 	 	 	 	 	 	 	 	 	1581472260	10.89	20.17
12/02/2020 01:51:02	120220	12022020	015101	192.09	13.752943	-56.915290	192.65	0.390	0.160	1.270	192.26	-1.20	1.90	1017.50	26.10	26.10	21.10	21.10	-1.0	74.0	74.0	393.0	25.6	261.00	9.70	65.00	11.90	16	8694.0	27.2	27.2	1581472261	10.07	18.65
12/02/2020 01:51:03	120220	12022020	015102	192.87	13.752897	-56.915298	193.34	0.420	-0.050	0.750	192.99	-1.30	1.30	 	 	 	 	 	 	 	 	 	 	 	 	 	 	 	 	 	 	1581472262	10.10	18.71
12/02/2020 01:51:04	120220	12022020	015103	193.23	13.752848	-56.915308	193.53	0.550	-0.860	0.770	193.22	-2.10	1.20	 	 	 	 	 	 	 	 	 	 	 	 	 	 	 	 	 	 	1581472263	10.77	19.95
12/02/2020 01:51:05	120220	12022020	015104	192.95	13.752797	-56.915322	193.13	0.800	-1.770	1.400	192.84	-3.30	2.20	 	 	 	 	 	 	 	 	 	 	 	 	 	 	 	 	 	 	1581472264	11.32	20.96
12/02/2020 01:51:06	120220	12022020	015105	192.38	13.752747	-56.915333	192.60	0.840	-1.860	2.010	192.28	-3.30	2.40	 	 	 	 	 	 	 	 	 	 	 	 	 	 	 	 	 	 	1581472265	11.11	20.58
12/02/2020 01:51:07	120220	12022020	015106	192.05	13.752700	-56.915343	192.32	0.330	-0.890	2.290	192.01	-1.70	2.80	 	 	 	 	 	 	 	 	 	 	 	 	 	 	 	 	 	 	1581472266	10.18	18.85
12/02/2020 01:51:08	120220	12022020	015107	191.86	13.752655	-56.915357	192.12	-0.490	0.080	2.430	191.81	-1.40	2.90	 	 	 	 	 	 	 	 	 	 	 	 	 	 	 	 	 	 	1581472267	10.02	18.56
12/02/2020 01:51:09	120220	12022020	015108	191.55	13.752608	-56.915373	191.82	-1.080	0.330	2.550	191.49	-1.00	3.00	 	 	 	 	 	 	 	 	 	 	 	 	 	 	 	 	 	 	1581472268	10.91	20.21
12/02/2020 01:51:10	120220	12022020	015109	191.31	13.752557	-56.915392	191.63	-1.100	0.160	2.600	191.30	-1.20	3.10	 	 	 	 	 	 	 	 	 	 	 	 	 	 	 	 	 	 	1581472269	11.59	21.46
12/02/2020 01:51:11	120220	12022020	015110	191.39	13.752507	-56.915410	191.80	-0.730	0.150	2.310	191.44	-1.20	2.80	 	 	 	 	 	 	 	 	 	 	 	 	 	 	 	 	 	 	1581472270	11.38	21.08
12/02/2020 01:51:12	120220	12022020	015111	191.75	13.752458	-56.915423	192.21	-0.290	0.260	1.730	191.86	-1.10	2.30	 	 	 	 	 	 	 	 	 	 	 	 	 	 	 	 	 	 	1581472271	10.92	20.22
12/02/2020 01:51:13	120220	12022020	015112	192.32	13.752410	-56.915437	192.78	0.060	0.350	1.120	192.44	-1.00	1.70	 	 	 	 	 	 	 	 	 	 	 	 	 	 	 	 	 	 	1581472272	10.60	19.63
12/02/2020 01:51:14	120220	12022020	015113	192.82	13.752362	-56.915445	193.17	0.380	0.140	0.630	192.87	-1.10	1.20	 	 	 	 	 	 	 	 	 	 	 	 	 	 	 	 	 	 	1581472273	10.57	19.58
12/02/2020 01:51:15	120220	12022020	015114	192.90	13.752312	-56.915453	193.15	0.710	-0.480	0.580	192.87	-1.70	1.00	 	 	 	 	 	 	 	 	 	 	 	 	 	 	 	 	 	 	1581472274	11.03	20.43
12/02/2020 01:51:16	120220	12022020	015115	192.66	13.752262	-56.915463	192.89	0.720	-0.970	1.170	192.60	-2.30	1.60	 	 	 	 	 	 	 	 	 	 	 	 	 	 	 	 	 	 	1581472275	11.07	20.50
12/02/2020 01:51:17	120220	12022020	015116	192.30	13.752213	-56.915477	192.51	0.300	-1.020	1.830	192.21	-2.40	2.20	 	 	 	 	 	 	 	 	 	 	 	 	 	 	 	 	 	 	1581472276	10.70	19.82
12/02/2020 01:51:18	120220	12022020	015117	191.82	13.752165	-56.915493	192.01	-0.180	-0.980	2.300	191.72	-2.30	2.70	 	 	 	 	 	 	 	 	 	 	 	 	 	 	 	 	 	 	1581472277	10.77	19.95
12/02/2020 01:51:19	120220	12022020	015118	191.33	13.752117	-56.915510	191.57	-0.350	-0.850	2.490	191.26	-1.90	2.90	 	 	 	 	 	 	 	 	 	 	 	 	 	 	 	 	 	 	1581472278	11.11	20.58
12/02/2020 01:51:20	120220	12022020	015119	191.25	13.752068	-56.915523	191.64	-0.300	-0.130	2.170	191.31	-1.60	2.70	 	 	 	 	 	 	 	 	 	 	 	 	 	 	 	 	 	 	1581472279	10.64	19.71
12/02/2020 01:51:21	120220	12022020	015120	191.71	13.752023	-56.915535	192.16	-0.320	0.770	1.550	191.81	-0.40	1.80	 	 	 	 	 	 	 	 	 	 	 	 	 	 	 	 	 	 	1581472280	9.99	18.50
12/02/2020 01:51:22	120220	12022020	015121	192.15	13.751977	-56.915547	192.50	-0.330	0.790	1.150	192.20	-0.50	1.70	 	 	 	 	 	 	 	 	 	 	 	 	 	 	 	 	 	 	1581472281	10.46	19.37
12/02/2020 01:51:23	120220	12022020	015122	192.26	13.751925	-56.915560	192.55	-0.100	-0.130	1.310	192.25	-1.30	1.80	 	 	 	 	 	 	 	 	 	 	 	 	 	 	 	 	 	 	1581472282	11.53	21.35
12/02/2020 01:51:24	120220	12022020	015123	192.14	13.751872	-56.915575	192.42	0.230	-0.940	1.750	192.10	-2.20	2.20	 	 	 	 	 	 	 	 	 	 	 	 	 	 	 	 	 	 	1581472283	11.71	21.69
12/02/2020 01:51:25	120220	12022020	015124	191.90	13.751823	-56.915590	192.15	0.320	-0.960	2.250	191.83	-2.30	2.70	 	 	 	 	 	 	 	 	 	 	 	 	 	 	 	 	 	 	1581472284	10.94	20.26
12/02/2020 01:51:26	120220	12022020	015125	191.51	13.751777	-56.915605	191.75	0.180	-0.510	2.640	191.43	-1.90	3.10	 	 	 	 	 	 	 	 	 	 	 	 	 	 	 	 	 	 	1581472285	10.39	19.24
12/02/2020 01:51:27	120220	12022020	015126	191.19	13.751730	-56.915618	191.49	-0.000	-0.100	2.740	191.15	-1.50	3.20	 	 	 	 	 	 	 	 	 	 	 	 	 	 	 	 	 	 	1581472286	10.41	19.28
12/02/2020 01:51:28	120220	12022020	015127	191.15	13.751683	-56.915632	191.52	-0.060	0.140	2.470	191.17	-1.20	3.00	 	 	 	 	 	 	 	 	 	 	 	 	 	 	 	 	 	 	1581472287	10.52	19.48
12/02/2020 01:51:29	120220	12022020	015128	191.26	13.751635	-56.915642	191.61	0.120	0.030	2.030	191.27	-1.30	2.60	 	 	 	 	 	 	 	 	 	 	 	 	 	 	 	 	 	 	1581472288	10.78	19.96
12/02/2020 01:51:30	120220	12022020	015129	191.29	13.751583	-56.915652	191.65	0.420	-0.320	1.570	191.32	-1.60	2.10	 	 	 	 	 	 	 	 	 	 	 	 	 	 	 	 	 	 	1581472289	11.17	20.69
12/02/2020 01:51:31	120220	12022020	015130	191.58	13.751533	-56.915660	192.02	0.420	-0.320	1.260	191.67	-1.70	1.80	 	 	 	 	 	 	 	 	 	 	 	 	 	 	 	 	 	 	1581472290	10.81	20.02
12/02/2020 01:51:32	120220	12022020	015131	192.09	13.751487	-56.915670	192.51	0.080	-0.160	1.190	192.17	-1.50	1.70	 	 	 	 	 	 	 	 	 	 	 	 	 	 	 	 	 	 	1581472291	10.31	19.09
12/02/2020 01:51:33	120220	12022020	015132	192.33	13.751438	-56.915685	192.63	-0.190	-0.540	1.570	192.32	-1.80	2.00	 	 	 	 	 	 	 	 	 	 	 	 	 	 	 	 	 	 	1581472292	10.76	19.93
12/02/2020 01:51:34	120220	12022020	015133	192.16	13.751387	-56.915702	192.41	-0.110	-1.270	2.190	192.10	-2.50	2.60	 	 	 	 	 	 	 	 	 	 	 	 	 	 	 	 	 	 	1581472293	11.58	21.45
12/02/2020 01:51:35	120220	12022020	015134	191.71	13.751335	-56.915717	191.92	0.070	-1.490	2.790	191.60	-2.90	3.20	 	 	 	 	 	 	 	 	 	 	 	 	 	 	 	 	 	 	1581472294	11.56	21.41
12/02/2020 01:51:36	120220	12022020	015135	191.29	13.751287	-56.915730	191.59	-0.140	-0.800	3.070	191.25	-2.30	3.50	 	 	 	 	 	 	 	 	 	 	 	 	 	 	 	 	 	 	1581472295	10.80	20.00
12/02/2020 01:51:37	120220	12022020	015136	191.23	13.751242	-56.915745	191.59	-0.680	0.200	2.970	191.25	-1.30	3.50	 	 	 	 	 	 	 	 	 	 	 	 	 	 	 	 	 	 	1581472296	10.28	19.04
12/02/2020 01:51:38	120220	12022020	015137	191.36	13.751195	-56.915762	191.71	-1.040	0.790	2.730	191.38	-0.60	3.20	 	 	 	 	 	 	 	 	 	 	 	 	 	 	 	 	 	 	1581472297	10.53	19.50
12/02/2020 01:51:39	120220	12022020	015138	191.47	13.751147	-56.915777	191.82	-0.710	0.770	2.250	191.50	-0.60	2.80	 	 	 	 	 	 	 	 	 	 	 	 	 	 	 	 	 	 	1581472298	11.04	20.45
12/02/2020 01:51:40	120220	12022020	015139	191.56	13.751095	-56.915788	191.89	0.220	0.370	1.620	191.57	-0.90	2.20	 	 	 	 	 	 	 	 	 	 	 	 	 	 	 	 	 	 	1581472299	11.32	20.96
12/02/2020 01:51:41	120220	12022020	015140	191.60	13.751043	-56.915795	191.93	1.040	-0.130	1.160	191.61	-1.40	1.70	 	 	 	 	 	 	 	 	 	 	 	 	 	 	 	 	 	 	1581472300	11.40	21.11
12/02/2020 01:51:42	120220	12022020	015141	191.70	13.750992	-56.915803	192.05	1.100	-0.410	1.200	191.72	-1.80	1.70	 	 	 	 	 	 	 	 	 	 	 	 	 	 	 	 	 	 	1581472301	10.98	20.33
12/02/2020 01:51:43	120220	12022020	015142	191.76	13.750945	-56.915817	192.05	0.530	-0.460	1.710	191.74	-1.80	2.10	 	 	 	 	 	 	 	 	 	 	 	 	 	 	 	 	 	 	1581472302	10.48	19.41
12/02/2020 01:51:44	120220	12022020	015143	191.55	13.750898	-56.915830	191.78	-0.020	-0.540	2.340	191.48	-1.90	2.70	 	 	 	 	 	 	 	 	 	 	 	 	 	 	 	 	 	 	1581472303	10.50	19.45
12/02/2020 01:51:45	120220	12022020	015144	191.20	13.750850	-56.915845	191.45	-0.180	-0.780	2.720	191.14	-2.30	3.30	 	 	 	 	 	 	 	 	 	 	 	 	 	 	 	 	 	 	1581472304	10.90	20.19
12/02/2020 01:51:46	120220	12022020	015145	190.95	13.750800	-56.915860	191.25	-0.090	-0.980	2.780	190.93	-2.30	3.30	 	 	 	 	 	 	 	 	 	 	 	 	 	 	 	 	 	 	1581472305	11.13	20.61
12/02/2020 01:51:47	120220	12022020	015146	190.96	13.750750	-56.915873	191.32	-0.060	-0.760	2.490	190.99	-2.20	3.00	 	 	 	 	 	 	 	 	 	 	 	 	 	 	 	 	 	 	1581472306	10.89	20.17
12/02/2020 01:51:48	120220	12022020	015147	191.23	13.750705	-56.915885	191.60	-0.220	-0.180	2.020	191.29	-1.60	2.60	 	 	 	 	 	 	 	 	 	 	 	 	 	 	 	 	 	 	1581472307	10.35	19.17
12/02/2020 01:51:49	120220	12022020	015148	191.44	13.750657	-56.915898	191.75	-0.340	0.150	1.870	191.44	-1.20	2.40	 	 	 	 	 	 	 	 	 	 	 	 	 	 	 	 	 	 	1581472308	10.41	19.28
12/02/2020 01:51:50	120220	12022020	015149	191.36	13.750607	-56.915912	191.63	-0.130	-0.100	1.930	191.32	-1.40	2.40	 	 	 	 	 	 	 	 	 	 	 	 	 	 	 	 	 	 	1581472309	11.11	20.58
12/02/2020 01:51:51	120220	12022020	015150	191.16	13.750555	-56.915923	191.45	0.200	-0.420	2.010	191.14	-1.80	2.50	 	 	 	 	 	 	 	 	 	 	 	 	 	 	 	 	 	 	1581472310	11.45	21.21
12/02/2020 01:51:52	120220	12022020	015151	191.14	13.750505	-56.915935	191.52	0.250	-0.290	1.940	191.19	-1.70	2.50	 	 	 	 	 	 	 	 	 	 	 	 	 	 	 	 	 	 	1581472311	11.04	20.45
12/02/2020 01:51:53	120220	12022020	015152	191.56	13.750458	-56.915945	192.02	-0.140	0.170	1.630	191.69	-1.30	2.20	 	 	 	 	 	 	 	 	 	 	 	 	 	 	 	 	 	 	1581472312	10.39	19.24
12/02/2020 01:51:54	120220	12022020	015153	192.20	13.750412	-56.915957	192.62	-0.550	0.260	1.370	192.31	-1.10	1.90	 	 	 	 	 	 	 	 	 	 	 	 	 	 	 	 	 	 	1581472313	10.42	19.30
12/02/2020 01:51:55	120220	12022020	015154	192.61	13.750362	-56.915972	192.93	-0.420	-0.300	1.320	192.64	-1.60	1.80	 	 	 	 	 	 	 	 	 	 	 	 	 	 	 	 	 	 	1581472314	11.11	20.58
12/02/2020 01:51:56	120220	12022020	015155	192.62	13.750310	-56.915983	192.84	0.280	-0.990	1.370	192.58	-2.30	1.90	 	 	 	 	 	 	 	 	 	 	 	 	 	 	 	 	 	 	1581472315	11.52	21.34
12/02/2020 01:51:57	120220	12022020	015156	192.20	13.750257	-56.915993	192.34	0.870	-1.310	1.670	192.08	-2.60	2.40	 	 	 	 	 	 	 	 	 	 	 	 	 	 	 	 	 	 	1581472316	11.46	21.22
12/02/2020 01:51:58	120220	12022020	015157	191.50	13.750207	-56.916005	191.64	0.690	-1.030	2.300	191.34	-2.50	2.70	 	 	 	 	 	 	 	 	 	 	 	 	 	 	 	 	 	 	1581472317	11.03	20.43
12/02/2020 01:51:59	120220	12022020	015158	190.73	13.750160	-56.916020	190.90	-0.100	-0.360	2.970	190.60	-1.80	3.40	 	 	 	 	 	 	 	 	 	 	 	 	 	 	 	 	 	 	1581472318	10.73	19.87
12/02/2020 01:52:00	120220	12022020	015159	190.15	13.750113	-56.916038	190.41	-0.840	0.390	3.350	190.08	-1.10	3.80	 	 	 	 	 	 	 	 	 	 	 	 	 	 	 	 	 	 	1581472319	10.70	19.82
12/02/2020 01:52:01	120220	12022020	015200	189.95	13.750065	-56.916055	190.31	-1.020	0.840	3.260	189.97	-0.50	3.80	 	 	 	 	 	 	 	 	 	 	 	 	 	 	 	 	 	 	1581472320	10.82	20.04
12/02/2020 01:52:02	120220	12022020	015201	190.19	13.750017	-56.916070	190.64	-0.590	0.820	2.630	190.28	-0.50	3.20	1017.50	26.00	26.00	21.10	21.10	-1.0	74.0	74.0	393.0	25.6	265.00	9.70	68.00	11.60	16	7880.0	27.2	27.2	1581472321	11.03	20.43
12/02/2020 01:52:03	120220	12022020	015202	190.78	13.749965	-56.916082	191.28	0.080	0.460	1.730	190.93	-0.80	2.40	 	 	 	 	 	 	 	 	 	 	 	 	 	 	 	 	 	 	1581472322	11.08	20.52
12/02/2020 01:52:04	120220	12022020	015203	191.51	13.749915	-56.916092	191.99	0.600	-0.110	1.040	191.66	-1.40	1.60	 	 	 	 	 	 	 	 	 	 	 	 	 	 	 	 	 	 	1581472323	11.04	20.45
12/02/2020 01:52:05	120220	12022020	015204	192.22	13.749865	-56.916100	192.68	0.760	-0.610	0.710	192.34	-1.90	1.20	 	 	 	 	 	 	 	 	 	 	 	 	 	 	 	 	 	 	1581472324	10.84	20.08
12/02/2020 01:52:06	120220	12022020	015205	192.75	13.749818	-56.916110	193.14	0.590	-0.850	0.760	192.83	-2.20	1.20	 	 	 	 	 	 	 	 	 	 	 	 	 	 	 	 	 	 	1581472325	10.51	19.46
12/02/2020 01:52:07	120220	12022020	015206	193.01	13.749770	-56.916122	193.34	0.280	-0.940	1.170	193.04	-2.30	1.60	 	 	 	 	 	 	 	 	 	 	 	 	 	 	 	 	 	 	1581472326	10.36	19.19
12/02/2020 01:52:08	120220	12022020	015207	193.03	13.749723	-56.916133	193.29	0.040	-1.060	1.680	192.98	-2.40	2.10	 	 	 	 	 	 	 	 	 	 	 	 	 	 	 	 	 	 	1581472327	10.54	19.52
12/02/2020 01:52:09	120220	12022020	015208	192.62	13.749673	-56.916148	192.79	0.010	-1.300	2.160	192.49	-2.70	2.80	 	 	 	 	 	 	 	 	 	 	 	 	 	 	 	 	 	 	1581472328	11.02	20.41
12/02/2020 01:52:10	120220	12022020	015209	191.95	13.749623	-56.916162	192.10	0.130	-1.350	2.400	191.81	-2.70	2.90	 	 	 	 	 	 	 	 	 	 	 	 	 	 	 	 	 	 	1581472329	11.38	21.08
12/02/2020 01:52:11	120220	12022020	015210	191.26	13.749572	-56.916173	191.42	0.170	-0.980	2.410	191.14	-2.00	2.90	 	 	 	 	 	 	 	 	 	 	 	 	 	 	 	 	 	 	1581472330	11.25	20.84
12/02/2020 01:52:12	120220	12022020	015211	190.63	13.749520	-56.916183	190.81	-0.040	-0.350	2.380	190.53	-1.80	2.90	 	 	 	 	 	 	 	 	 	 	 	 	 	 	 	 	 	 	1581472331	11.21	20.76
12/02/2020 01:52:13	120220	12022020	015212	190.30	13.749472	-56.916197	190.61	-0.550	0.500	2.420	190.30	-1.00	2.90	 	 	 	 	 	 	 	 	 	 	 	 	 	 	 	 	 	 	1581472332	10.99	20.35
12/02/2020 01:52:14	120220	12022020	015213	190.46	13.749423	-56.916213	190.88	-1.100	1.250	2.490	190.54	-0.20	3.00	 	 	 	 	 	 	 	 	 	 	 	 	 	 	 	 	 	 	1581472333	10.77	19.95
12/02/2020 01:52:15	120220	12022020	015214	191.01	13.749377	-56.916232	191.49	-1.250	1.420	2.190	191.15	0.10	2.70	 	 	 	 	 	 	 	 	 	 	 	 	 	 	 	 	 	 	1581472334	10.90	20.19
12/02/2020 01:52:16	120220	12022020	015215	191.78	13.749327	-56.916247	192.29	-0.750	0.960	1.570	191.95	-0.30	2.20	 	 	 	 	 	 	 	 	 	 	 	 	 	 	 	 	 	 	1581472335	11.16	20.67
12/02/2020 01:52:17	120220	12022020	015216	192.56	13.749277	-56.916258	193.01	0.110	0.220	0.950	192.69	-1.00	1.50	 	 	 	 	 	 	 	 	 	 	 	 	 	 	 	 	 	 	1581472336	11.09	20.54
12/02/2020 01:52:18	120220	12022020	015217	192.95	13.749225	-56.916267	193.25	0.830	-0.700	0.730	192.95	-1.90	1.20	 	 	 	 	 	 	 	 	 	 	 	 	 	 	 	 	 	 	1581472337	11.09	20.54
12/02/2020 01:52:19	120220	12022020	015218	192.76	13.749175	-56.916278	192.97	1.070	-1.500	1.140	192.67	-2.80	1.50	 	 	 	 	 	 	 	 	 	 	 	 	 	 	 	 	 	 	1581472338	11.10	20.56
12/02/2020 01:52:20	120220	12022020	015219	192.28	13.749127	-56.916292	192.48	0.820	-1.660	1.910	192.18	-3.00	2.30	 	 	 	 	 	 	 	 	 	 	 	 	 	 	 	 	 	 	1581472339	10.82	20.04
12/02/2020 01:52:21	120220	12022020	015220	191.88	13.749082	-56.916307	192.15	0.290	-0.970	2.440	191.83	-2.40	2.90	 	 	 	 	 	 	 	 	 	 	 	 	 	 	 	 	 	 	1581472340	10.18	18.85
12/02/2020 01:52:22	120220	12022020	015221	191.75	13.749037	-56.916320	192.08	-0.240	-0.050	2.400	191.74	-1.50	2.90	 	 	 	 	 	 	 	 	 	 	 	 	 	 	 	 	 	 	1581472341	9.87	18.28
12/02/2020 01:52:23	120220	12022020	015222	191.78	13.748990	-56.916333	192.11	-0.440	0.230	2.010	191.80	-1.10	2.60	 	 	 	 	 	 	 	 	 	 	 	 	 	 	 	 	 	 	1581472342	10.44	19.33
12/02/2020 01:52:24	120220	12022020	015223	191.82	13.748940	-56.916345	192.13	-0.170	-0.110	1.560	191.82	-1.40	2.10	 	 	 	 	 	 	 	 	 	 	 	 	 	 	 	 	 	 	1581472343	11.23	20.80
12/02/2020 01:52:25	120220	12022020	015224	191.73	13.748887	-56.916355	191.98	0.370	-0.520	1.250	191.69	-1.80	1.80	 	 	 	 	 	 	 	 	 	 	 	 	 	 	 	 	 	 	1581472344	11.52	21.34
12/02/2020 01:52:26	120220	12022020	015225	191.51	13.748835	-56.916365	191.77	0.640	-0.610	1.200	191.48	-2.00	1.70	 	 	 	 	 	 	 	 	 	 	 	 	 	 	 	 	 	 	1581472345	11.29	20.91
12/02/2020 01:52:27	120220	12022020	015226	191.47	13.748785	-56.916375	191.79	0.350	-0.470	1.440	191.49	-1.80	1.90	 	 	 	 	 	 	 	 	 	 	 	 	 	 	 	 	 	 	1581472346	10.96	20.30
12/02/2020 01:52:28	120220	12022020	015227	191.63	13.748737	-56.916390	191.98	-0.320	-0.330	1.850	191.67	-1.70	2.30	 	 	 	 	 	 	 	 	 	 	 	 	 	 	 	 	 	 	1581472347	10.89	20.17
12/02/2020 01:52:29	120220	12022020	015228	191.83	13.748688	-56.916407	192.16	-0.860	-0.270	2.420	191.85	-1.60	2.80	 	 	 	 	 	 	 	 	 	 	 	 	 	 	 	 	 	 	1581472348	11.05	20.46
12/02/2020 01:52:30	120220	12022020	015229	191.84	13.748640	-56.916427	192.11	-0.890	-0.330	2.920	191.81	-1.70	3.30	 	 	 	 	 	 	 	 	 	 	 	 	 	 	 	 	 	 	1581472349	11.21	20.76
12/02/2020 01:52:31	120220	12022020	015230	191.55	13.748588	-56.916443	191.76	-0.510	-0.450	3.170	191.47	-1.80	3.60	 	 	 	 	 	 	 	 	 	 	 	 	 	 	 	 	 	 	1581472350	11.42	21.15
12/02/2020 01:52:32	120220	12022020	015231	191.19	13.748538	-56.916457	191.44	-0.160	-0.300	3.040	191.14	-1.70	3.60	 	 	 	 	 	 	 	 	 	 	 	 	 	 	 	 	 	 	1581472351	11.24	20.82
12/02/2020 01:52:33	120220	12022020	015232	191.09	13.748490	-56.916470	191.42	-0.040	0.260	2.480	191.12	-0.70	2.60	 	 	 	 	 	 	 	 	 	 	 	 	 	 	 	 	 	 	1581472352	10.64	19.71
12/02/2020 01:52:34	120220	12022020	015233	191.38	13.748445	-56.916480	191.77	0.030	0.940	1.660	191.47	-0.50	2.30	 	 	 	 	 	 	 	 	 	 	 	 	 	 	 	 	 	 	1581472353	10.05	18.61
12/02/2020 01:52:35	120220	12022020	015234	191.83	13.748398	-56.916487	192.20	0.360	1.020	0.870	191.91	-0.70	1.10	 	 	 	 	 	 	 	 	 	 	 	 	 	 	 	 	 	 	1581472354	10.19	18.87
12/02/2020 01:52:36	120220	12022020	015235	192.08	13.748347	-56.916493	192.38	1.000	0.110	0.480	192.10	-1.10	1.00	 	 	 	 	 	 	 	 	 	 	 	 	 	 	 	 	 	 	1581472355	11.70	21.67
12/02/2020 01:52:37	120220	12022020	015236	192.10	13.748293	-56.916500	192.36	1.460	-1.100	0.610	192.09	-2.30	1.10	 	 	 	 	 	 	 	 	 	 	 	 	 	 	 	 	 	 	1581472356	11.70	21.67
12/02/2020 01:52:38	120220	12022020	015237	192.01	13.748242	-56.916510	192.27	1.150	-1.660	1.240	191.99	-3.00	1.60	 	 	 	 	 	 	 	 	 	 	 	 	 	 	 	 	 	 	1581472357	11.19	20.72
12/02/2020 01:52:39	120220	12022020	015238	191.90	13.748195	-56.916527	192.17	0.200	-1.510	2.120	191.88	-2.90	2.50	 	 	 	 	 	 	 	 	 	 	 	 	 	 	 	 	 	 	1581472358	10.56	19.56
12/02/2020 01:52:40	120220	12022020	015239	191.70	13.748148	-56.916545	191.92	-0.720	-1.260	2.920	191.63	-2.60	3.30	 	 	 	 	 	 	 	 	 	 	 	 	 	 	 	 	 	 	1581472359	10.68	19.78
12/02/2020 01:52:41	120220	12022020	015240	191.27	13.748100	-56.916567	191.48	-1.030	-1.250	3.490	191.19	-2.60	3.90	 	 	 	 	 	 	 	 	 	 	 	 	 	 	 	 	 	 	1581472360	11.46	21.22
12/02/2020 01:52:42	120220	12022020	015241	190.89	13.748048	-56.916585	191.16	-0.850	-0.990	3.450	190.85	-2.40	4.00	 	 	 	 	 	 	 	 	 	 	 	 	 	 	 	 	 	 	1581472361	11.64	21.56
12/02/2020 01:52:43	120220	12022020	015242	190.81	13.748000	-56.916598	191.15	-0.670	-0.120	2.900	190.84	-1.60	3.50	 	 	 	 	 	 	 	 	 	 	 	 	 	 	 	 	 	 	1581472362	11.01	20.39
12/02/2020 01:52:44	120220	12022020	015243	191.08	13.747952	-56.916610	191.47	-0.670	0.840	2.150	191.16	-0.60	2.70	 	 	 	 	 	 	 	 	 	 	 	 	 	 	 	 	 	 	1581472363	10.55	19.54
12/02/2020 01:52:45	120220	12022020	015244	191.50	13.747903	-56.916622	191.88	-0.550	1.190	1.450	191.58	-0.20	2.00	 	 	 	 	 	 	 	 	 	 	 	 	 	 	 	 	 	 	1581472364	10.77	19.95
12/02/2020 01:52:46	120220	12022020	015245	191.85	13.747852	-56.916630	192.16	0.030	0.810	0.900	191.89	-0.50	1.50	 	 	 	 	 	 	 	 	 	 	 	 	 	 	 	 	 	 	1581472365	11.35	21.02
12/02/2020 01:52:47	120220	12022020	015246	191.98	13.747797	-56.916637	192.26	0.900	0.110	0.730	191.99	-1.50	1.20	 	 	 	 	 	 	 	 	 	 	 	 	 	 	 	 	 	 	1581472366	11.70	21.67
12/02/2020 01:52:48	120220	12022020	015247	192.06	13.747745	-56.916643	192.36	1.340	-0.300	0.810	192.10	-1.60	1.30	 	 	 	 	 	 	 	 	 	 	 	 	 	 	 	 	 	 	1581472367	11.35	21.02
12/02/2020 01:52:49	120220	12022020	015248	192.28	13.747697	-56.916653	192.60	0.950	-0.350	1.360	192.32	-1.70	2.30	 	 	 	 	 	 	 	 	 	 	 	 	 	 	 	 	 	 	1581472368	10.60	19.63
12/02/2020 01:52:50	120220	12022020	015249	192.39	13.747650	-56.916668	192.66	0.100	-0.470	2.260	192.37	-1.80	2.60	 	 	 	 	 	 	 	 	 	 	 	 	 	 	 	 	 	 	1581472369	10.48	19.41
12/02/2020 01:52:51	120220	12022020	015250	192.20	13.747603	-56.916688	192.42	-0.500	-0.740	3.130	192.12	-2.10	3.50	 	 	 	 	 	 	 	 	 	 	 	 	 	 	 	 	 	 	1581472370	10.86	20.11
12/02/2020 01:52:52	120220	12022020	015251	191.78	13.747557	-56.916708	191.99	-0.500	-0.950	3.610	191.69	-2.30	4.10	 	 	 	 	 	 	 	 	 	 	 	 	 	 	 	 	 	 	1581472371	11.02	20.41
12/02/2020 01:52:53	120220	12022020	015252	191.37	13.747508	-56.916725	191.62	-0.170	-0.970	3.300	191.31	-2.30	3.90	 	 	 	 	 	 	 	 	 	 	 	 	 	 	 	 	 	 	1581472372	10.93	20.24
12/02/2020 01:52:54	120220	12022020	015253	191.13	13.747458	-56.916737	191.42	0.100	-0.890	2.540	191.10	-2.20	3.20	 	 	 	 	 	 	 	 	 	 	 	 	 	 	 	 	 	 	1581472373	10.89	20.17
12/02/2020 01:52:55	120220	12022020	015254	190.99	13.747407	-56.916747	191.27	0.240	-0.830	1.810	190.97	-2.20	2.40	 	 	 	 	 	 	 	 	 	 	 	 	 	 	 	 	 	 	1581472374	11.13	20.61
12/02/2020 01:52:56	120220	12022020	015255	191.04	13.747357	-56.916755	191.38	0.190	-0.540	1.130	191.10	-2.00	1.70	 	 	 	 	 	 	 	 	 	 	 	 	 	 	 	 	 	 	1581472375	11.16	20.67
12/02/2020 01:52:57	120220	12022020	015256	191.49	13.747307	-56.916763	191.93	-0.050	0.080	0.690	191.62	-1.40	1.20	 	 	 	 	 	 	 	 	 	 	 	 	 	 	 	 	 	 	1581472376	10.73	19.87
12/02/2020 01:52:58	120220	12022020	015257	192.17	13.747258	-56.916773	192.59	-0.280	0.550	0.610	192.31	-0.80	1.10	 	 	 	 	 	 	 	 	 	 	 	 	 	 	 	 	 	 	1581472377	10.58	19.59
12/02/2020 01:52:59	120220	12022020	015258	192.68	13.747208	-56.916785	193.01	-0.290	0.270	1.010	192.73	-1.50	1.90	 	 	 	 	 	 	 	 	 	 	 	 	 	 	 	 	 	 	1581472378	11.13	20.61
12/02/2020 01:53:00	120220	12022020	015259	192.73	13.747155	-56.916800	192.96	-0.080	-0.630	1.870	192.68	-1.90	2.20	 	 	 	 	 	 	 	 	 	 	 	 	 	 	 	 	 	 	1581472379	11.97	22.17
12/02/2020 01:53:01	120220	12022020	015300	192.46	13.747102	-56.916817	192.71	0.110	-1.140	2.580	192.41	-2.30	3.30	 	 	 	 	 	 	 	 	 	 	 	 	 	 	 	 	 	 	1581472380	11.98	22.19
12/02/2020 01:53:02	120220	12022020	015301	192.26	13.747053	-56.916832	192.53	0.040	-0.630	2.870	192.23	-2.10	3.30	1017.60	26.00	26.00	20.90	20.90	-1.0	73.0	73.0	391.0	25.6	264.00	9.50	66.00	11.50	16	8151.0	27.2	27.2	1581472381	10.88	20.15
12/02/2020 01:53:03	120220	12022020	015302	192.04	13.747007	-56.916845	192.25	-0.160	0.240	2.840	191.97	-1.20	3.30	 	 	 	 	 	 	 	 	 	 	 	 	 	 	 	 	 	 	1581472382	10.17	18.83
12/02/2020 01:53:04	120220	12022020	015303	191.69	13.746960	-56.916858	191.92	-0.220	0.660	2.620	191.64	-0.70	3.20	 	 	 	 	 	 	 	 	 	 	 	 	 	 	 	 	 	 	1581472383	10.51	19.46
12/02/2020 01:53:05	120220	12022020	015304	191.67	13.746912	-56.916870	192.03	-0.110	0.730	2.020	191.74	-0.60	2.60	 	 	 	 	 	 	 	 	 	 	 	 	 	 	 	 	 	 	1581472384	10.77	19.95
12/02/2020 01:53:06	120220	12022020	015305	192.12	13.746863	-56.916880	192.51	0.020	0.560	1.170	192.23	-0.80	1.80	 	 	 	 	 	 	 	 	 	 	 	 	 	 	 	 	 	 	1581472385	10.66	19.74
12/02/2020 01:53:07	120220	12022020	015306	192.56	13.746813	-56.916890	192.90	0.160	-0.140	0.630	192.62	-1.40	1.20	 	 	 	 	 	 	 	 	 	 	 	 	 	 	 	 	 	 	1581472386	10.91	20.21
12/02/2020 01:53:08	120220	12022020	015307	192.75	13.746762	-56.916902	193.01	0.400	-1.140	0.600	192.74	-2.30	1.10	 	 	 	 	 	 	 	 	 	 	 	 	 	 	 	 	 	 	1581472387	11.31	20.95
12/02/2020 01:53:09	120220	12022020	015308	192.59	13.746710	-56.916915	192.81	0.670	-1.930	0.980	192.53	-3.20	1.40	 	 	 	 	 	 	 	 	 	 	 	 	 	 	 	 	 	 	1581472388	11.47	21.24
12/02/2020 01:53:10	120220	12022020	015309	192.23	13.746660	-56.916928	192.42	0.710	-2.070	1.590	192.15	-3.40	2.00	 	 	 	 	 	 	 	 	 	 	 	 	 	 	 	 	 	 	1581472389	11.28	20.89
12/02/2020 01:53:11	120220	12022020	015310	191.87	13.746610	-56.916942	192.10	0.340	-1.450	2.080	191.82	-2.90	2.50	 	 	 	 	 	 	 	 	 	 	 	 	 	 	 	 	 	 	1581472390	10.90	20.19
12/02/2020 01:53:12	120220	12022020	015311	191.62	13.746563	-56.916957	191.86	-0.310	-0.460	2.370	191.58	-1.90	2.80	 	 	 	 	 	 	 	 	 	 	 	 	 	 	 	 	 	 	1581472391	10.66	19.74
12/02/2020 01:53:13	120220	12022020	015312	191.44	13.746515	-56.916972	191.72	-0.870	0.490	2.450	191.44	-1.00	2.90	 	 	 	 	 	 	 	 	 	 	 	 	 	 	 	 	 	 	1581472392	10.78	19.96
12/02/2020 01:53:14	120220	12022020	015313	191.56	13.746467	-56.916987	191.91	-1.060	1.210	2.140	191.62	-0.20	2.70	 	 	 	 	 	 	 	 	 	 	 	 	 	 	 	 	 	 	1581472393	10.83	20.06
12/02/2020 01:53:15	120220	12022020	015314	191.98	13.746418	-56.916998	192.35	-0.750	1.390	1.470	192.08	0.10	2.10	 	 	 	 	 	 	 	 	 	 	 	 	 	 	 	 	 	 	1581472394	10.94	20.26
12/02/2020 01:53:16	120220	12022020	015315	192.40	13.746365	-56.917008	192.71	-0.020	0.660	0.840	192.46	-0.50	1.40	 	 	 	 	 	 	 	 	 	 	 	 	 	 	 	 	 	 	1581472395	11.55	21.39
12/02/2020 01:53:17	120220	12022020	015316	192.61	13.746310	-56.917020	192.89	0.650	-0.530	0.790	192.62	-1.70	1.30	 	 	 	 	 	 	 	 	 	 	 	 	 	 	 	 	 	 	1581472396	12.06	22.34
12/02/2020 01:53:18	120220	12022020	015317	192.59	13.746257	-56.917032	192.83	0.790	-1.230	1.260	192.55	-2.50	1.70	 	 	 	 	 	 	 	 	 	 	 	 	 	 	 	 	 	 	1581472397	11.60	21.48
12/02/2020 01:53:19	120220	12022020	015318	192.28	13.746208	-56.917047	192.46	0.340	-1.160	1.980	192.19	-2.60	2.40	 	 	 	 	 	 	 	 	 	 	 	 	 	 	 	 	 	 	1581472398	10.82	20.04
12/02/2020 01:53:20	120220	12022020	015319	191.80	13.746163	-56.917063	191.99	-0.270	-0.730	2.600	191.71	-2.20	3.00	 	 	 	 	 	 	 	 	 	 	 	 	 	 	 	 	 	 	1581472399	10.56	19.56
12/02/2020 01:53:21	120220	12022020	015320	191.55	13.746117	-56.917082	191.83	-0.580	-0.160	2.590	191.56	-1.60	3.10	 	 	 	 	 	 	 	 	 	 	 	 	 	 	 	 	 	 	1581472400	10.53	19.50
12/02/2020 01:53:22	120220	12022020	015321	191.72	13.746068	-56.917095	192.07	-0.340	0.150	1.910	191.79	-1.20	2.50	 	 	 	 	 	 	 	 	 	 	 	 	 	 	 	 	 	 	1581472401	10.62	19.67
12/02/2020 01:53:23	120220	12022020	015322	192.14	13.746018	-56.917105	192.52	0.270	0.020	1.010	192.23	-1.30	1.60	 	 	 	 	 	 	 	 	 	 	 	 	 	 	 	 	 	 	1581472402	11.09	20.54
12/02/2020 01:53:24	120220	12022020	015323	192.58	13.745967	-56.917112	192.91	0.750	-0.270	0.530	192.64	-1.60	1.10	 	 	 	 	 	 	 	 	 	 	 	 	 	 	 	 	 	 	1581472403	11.26	20.85
12/02/2020 01:53:25	120220	12022020	015324	192.73	13.745915	-56.917120	192.95	0.750	-0.560	0.720	192.70	-2.10	1.50	 	 	 	 	 	 	 	 	 	 	 	 	 	 	 	 	 	 	1581472404	11.15	20.65
12/02/2020 01:53:26	120220	12022020	015325	192.40	13.745863	-56.917132	192.57	0.360	-0.930	1.360	192.31	-2.20	1.80	 	 	 	 	 	 	 	 	 	 	 	 	 	 	 	 	 	 	1581472405	11.37	21.06
12/02/2020 01:53:27	120220	12022020	015326	191.97	13.745813	-56.917148	192.20	-0.220	-1.010	2.130	191.91	-2.40	2.50	 	 	 	 	 	 	 	 	 	 	 	 	 	 	 	 	 	 	1581472406	11.43	21.17
12/02/2020 01:53:28	120220	12022020	015327	191.73	13.745765	-56.917167	192.01	-0.770	-0.540	2.630	191.72	-2.00	3.10	 	 	 	 	 	 	 	 	 	 	 	 	 	 	 	 	 	 	1581472407	11.04	20.45
12/02/2020 01:53:29	120220	12022020	015328	191.80	13.745718	-56.917185	192.17	-1.120	0.120	2.610	191.86	-1.30	3.10	 	 	 	 	 	 	 	 	 	 	 	 	 	 	 	 	 	 	1581472408	10.71	19.83
12/02/2020 01:53:30	120220	12022020	015329	192.17	13.745672	-56.917202	192.56	-1.040	0.450	2.220	192.26	-0.90	2.80	 	 	 	 	 	 	 	 	 	 	 	 	 	 	 	 	 	 	1581472409	10.81	20.02
12/02/2020 01:53:31	120220	12022020	015330	192.55	13.745622	-56.917217	192.90	-0.470	0.330	1.610	192.61	-1.00	2.20	 	 	 	 	 	 	 	 	 	 	 	 	 	 	 	 	 	 	1581472410	11.12	20.59
12/02/2020 01:53:32	120220	12022020	015331	192.76	13.745570	-56.917228	193.05	0.340	-0.060	1.200	192.77	-1.40	1.70	 	 	 	 	 	 	 	 	 	 	 	 	 	 	 	 	 	 	1581472411	11.35	21.02
12/02/2020 01:53:33	120220	12022020	015332	192.77	13.745517	-56.917238	193.05	0.970	-0.490	0.970	192.76	-1.80	1.50	 	 	 	 	 	 	 	 	 	 	 	 	 	 	 	 	 	 	1581472412	11.47	21.24
12/02/2020 01:53:34	120220	12022020	015333	192.82	13.745467	-56.917247	193.17	1.150	-0.540	0.770	192.86	-1.90	1.30	 	 	 	 	 	 	 	 	 	 	 	 	 	 	 	 	 	 	1581472413	11.18	20.71
12/02/2020 01:53:35	120220	12022020	015334	193.07	13.745418	-56.917255	193.44	0.870	-0.170	0.760	193.14	-1.60	1.30	 	 	 	 	 	 	 	 	 	 	 	 	 	 	 	 	 	 	1581472414	10.56	19.56
12/02/2020 01:53:36	120220	12022020	015335	193.39	13.745370	-56.917265	193.76	0.320	0.100	0.940	193.45	-1.30	1.40	 	 	 	 	 	 	 	 	 	 	 	 	 	 	 	 	 	 	1581472415	10.35	19.17
12/02/2020 01:53:37	120220	12022020	015336	193.56	13.745322	-56.917278	193.84	-0.260	-0.260	1.460	193.55	-2.00	2.40	 	 	 	 	 	 	 	 	 	 	 	 	 	 	 	 	 	 	1581472416	10.91	20.21
12/02/2020 01:53:38	120220	12022020	015337	193.33	13.745270	-56.917298	193.51	-0.640	-1.150	2.330	193.22	-2.40	2.70	 	 	 	 	 	 	 	 	 	 	 	 	 	 	 	 	 	 	1581472417	11.79	21.84
12/02/2020 01:53:39	120220	12022020	015338	192.71	13.745218	-56.917320	192.90	-0.790	-1.660	3.100	192.59	-3.00	3.50	 	 	 	 	 	 	 	 	 	 	 	 	 	 	 	 	 	 	1581472418	12.06	22.34
12/02/2020 01:53:40	120220	12022020	015339	192.12	13.745170	-56.917342	192.35	-0.750	-1.050	3.260	192.04	-2.60	3.80	 	 	 	 	 	 	 	 	 	 	 	 	 	 	 	 	 	 	1581472419	11.18	20.71
12/02/2020 01:53:41	120220	12022020	015340	191.78	13.745125	-56.917357	192.06	-0.500	0.090	2.710	191.75	-1.40	3.30	 	 	 	 	 	 	 	 	 	 	 	 	 	 	 	 	 	 	1581472420	10.30	19.08
12/02/2020 01:53:42	120220	12022020	015341	191.76	13.745077	-56.917368	192.09	-0.020	0.740	1.690	191.79	-0.70	2.40	 	 	 	 	 	 	 	 	 	 	 	 	 	 	 	 	 	 	1581472421	10.52	19.48
12/02/2020 01:53:43	120220	12022020	015342	191.99	13.745025	-56.917375	192.33	0.620	0.520	0.700	192.05	-0.80	1.30	 	 	 	 	 	 	 	 	 	 	 	 	 	 	 	 	 	 	1581472422	11.37	21.06
12/02/2020 01:53:44	120220	12022020	015343	192.42	13.744970	-56.917382	192.81	1.070	-0.030	0.170	192.54	-1.30	0.70	 	 	 	 	 	 	 	 	 	 	 	 	 	 	 	 	 	 	1581472423	11.83	21.91
12/02/2020 01:53:45	120220	12022020	015344	193.14	13.744920	-56.917392	193.58	0.850	-0.290	0.700	193.30	-1.60	1.10	 	 	 	 	 	 	 	 	 	 	 	 	 	 	 	 	 	 	1581472424	11.21	20.76
12/02/2020 01:53:46	120220	12022020	015345	193.81	13.744873	-56.917410	194.18	0.040	-0.370	2.100	193.88	-1.70	2.40	 	 	 	 	 	 	 	 	 	 	 	 	 	 	 	 	 	 	1581472425	10.68	19.78
12/02/2020 01:53:47	120220	12022020	015346	193.88	13.744827	-56.917433	194.09	-0.640	-0.740	3.590	193.78	-2.00	3.90	 	 	 	 	 	 	 	 	 	 	 	 	 	 	 	 	 	 	1581472426	11.00	20.37
12/02/2020 01:53:48	120220	12022020	015347	193.10	13.744778	-56.917458	193.20	-0.590	-1.530	4.740	192.88	-2.80	5.10	 	 	 	 	 	 	 	 	 	 	 	 	 	 	 	 	 	 	1581472427	11.89	22.02
12/02/2020 01:53:49	120220	12022020	015348	192.04	13.744727	-56.917480	192.25	-0.140	-1.600	5.080	191.89	-2.40	5.30	 	 	 	 	 	 	 	 	 	 	 	 	 	 	 	 	 	 	1581472428	11.83	21.91
12/02/2020 01:53:50	120220	12022020	015349	191.63	13.744682	-56.917493	192.03	0.080	-0.250	4.290	191.65	-1.90	5.00	 	 	 	 	 	 	 	 	 	 	 	 	 	 	 	 	 	 	1581472429	10.21	18.91
12/02/2020 01:53:51	120220	12022020	015350	191.91	13.744638	-56.917502	192.34	-0.060	1.130	2.850	191.99	-0.10	2.70	 	 	 	 	 	 	 	 	 	 	 	 	 	 	 	 	 	 	1581472430	9.39	17.39
12/02/2020 01:53:52	120220	12022020	015351	192.32	13.744590	-56.917508	192.70	-0.130	1.080	1.590	192.38	-0.20	2.30	 	 	 	 	 	 	 	 	 	 	 	 	 	 	 	 	 	 	1581472431	10.52	19.48
12/02/2020 01:53:53	120220	12022020	015352	192.61	13.744535	-56.917518	192.92	0.210	-0.150	1.020	192.64	-1.30	1.60	 	 	 	 	 	 	 	 	 	 	 	 	 	 	 	 	 	 	1581472432	11.88	22.00
12/02/2020 01:53:54	120220	12022020	015353	192.60	13.744480	-56.917530	192.84	0.710	-1.230	1.150	192.56	-2.50	1.60	 	 	 	 	 	 	 	 	 	 	 	 	 	 	 	 	 	 	1581472433	12.11	22.43
12/02/2020 01:53:55	120220	12022020	015354	192.40	13.744430	-56.917542	192.65	0.730	-1.240	1.720	192.37	-2.70	2.10	 	 	 	 	 	 	 	 	 	 	 	 	 	 	 	 	 	 	1581472434	11.13	20.61
12/02/2020 01:53:56	120220	12022020	015355	192.29	13.744385	-56.917557	192.58	0.040	-0.510	2.600	192.28	-2.00	3.00	 	 	 	 	 	 	 	 	 	 	 	 	 	 	 	 	 	 	1581472435	10.17	18.83
12/02/2020 01:53:57	120220	12022020	015356	192.19	13.744342	-56.917578	192.42	-0.800	0.010	3.340	192.14	-1.40	3.80	 	 	 	 	 	 	 	 	 	 	 	 	 	 	 	 	 	 	1581472436	10.34	19.15
12/02/2020 01:53:58	120220	12022020	015357	191.84	13.744295	-56.917600	192.03	-1.010	-0.080	3.570	191.76	-1.40	4.10	 	 	 	 	 	 	 	 	 	 	 	 	 	 	 	 	 	 	1581472437	11.09	20.54
12/02/2020 01:53:59	120220	12022020	015358	191.42	13.744245	-56.917617	191.64	-0.390	-0.350	3.180	191.35	-1.70	3.80	 	 	 	 	 	 	 	 	 	 	 	 	 	 	 	 	 	 	1581472438	11.42	21.15
12/02/2020 01:54:00	120220	12022020	015359	191.16	13.744193	-56.917628	191.40	0.510	-0.350	2.390	191.14	-1.70	3.00	 	 	 	 	 	 	 	 	 	 	 	 	 	 	 	 	 	 	1581472439	11.15	20.65
12/02/2020 01:54:01	120220	12022020	015400	191.17	13.744145	-56.917637	191.49	0.910	-0.140	1.640	191.22	-1.50	2.20	 	 	 	 	 	 	 	 	 	 	 	 	 	 	 	 	 	 	1581472440	10.77	19.95
12/02/2020 01:54:02	120220	12022020	015401	191.50	13.744097	-56.917643	191.89	0.570	0.050	1.270	191.60	-1.30	1.80	1017.60	26.00	26.10	21.20	21.20	-1.0	74.0	74.0	391.0	25.6	266.00	8.80	66.00	10.80	15	8168.0	27.2	27.2	1581472441	10.53	19.50
12/02/2020 01:54:03	120220	12022020	015402	192.05	13.744048	-56.917655	192.48	-0.190	0.150	1.480	192.17	-1.20	2.00	 	 	 	 	 	 	 	 	 	 	 	 	 	 	 	 	 	 	1581472442	10.38	19.22
12/02/2020 01:54:04	120220	12022020	015403	192.53	13.744003	-56.917673	192.84	-0.690	0.010	2.040	192.56	-1.30	2.50	 	 	 	 	 	 	 	 	 	 	 	 	 	 	 	 	 	 	1581472443	10.48	19.41
12/02/2020 01:54:05	120220	12022020	015404	192.46	13.743955	-56.917690	192.65	-0.400	-0.610	2.550	192.39	-1.80	3.00	 	 	 	 	 	 	 	 	 	 	 	 	 	 	 	 	 	 	1581472444	11.01	20.39
12/02/2020 01:54:06	120220	12022020	015405	191.90	13.743903	-56.917703	192.03	0.380	-1.380	2.900	191.76	-2.60	3.40	 	 	 	 	 	 	 	 	 	 	 	 	 	 	 	 	 	 	1581472445	11.60	21.48
12/02/2020 01:54:07	120220	12022020	015406	191.26	13.743850	-56.917715	191.44	0.700	-1.510	3.100	191.16	-2.90	3.60	 	 	 	 	 	 	 	 	 	 	 	 	 	 	 	 	 	 	1581472446	11.42	21.15
12/02/2020 01:54:08	120220	12022020	015407	190.92	13.743803	-56.917728	191.18	0.220	-0.750	2.990	190.88	-2.20	3.50	 	 	 	 	 	 	 	 	 	 	 	 	 	 	 	 	 	 	1581472447	10.54	19.52
12/02/2020 01:54:09	120220	12022020	015408	190.83	13.743758	-56.917742	191.12	-0.590	0.270	2.720	190.83	-1.20	3.30	 	 	 	 	 	 	 	 	 	 	 	 	 	 	 	 	 	 	1581472448	10.08	18.67
12/02/2020 01:54:10	120220	12022020	015409	190.95	13.743712	-56.917755	191.31	-1.000	0.830	2.390	191.02	-0.60	3.00	 	 	 	 	 	 	 	 	 	 	 	 	 	 	 	 	 	 	1581472449	10.45	19.35
12/02/2020 01:54:11	120220	12022020	015410	191.38	13.743663	-56.917770	191.78	-0.740	0.740	1.950	191.48	-0.60	2.50	 	 	 	 	 	 	 	 	 	 	 	 	 	 	 	 	 	 	1581472450	10.93	20.24
12/02/2020 01:54:12	120220	12022020	015411	191.84	13.743612	-56.917783	192.20	-0.110	0.100	1.680	191.90	-1.10	2.20	 	 	 	 	 	 	 	 	 	 	 	 	 	 	 	 	 	 	1581472451	11.40	21.11
12/02/2020 01:54:13	120220	12022020	015412	192.09	13.743560	-56.917797	192.41	0.440	-0.580	1.700	192.12	-2.10	2.30	 	 	 	 	 	 	 	 	 	 	 	 	 	 	 	 	 	 	1581472452	11.51	21.32
12/02/2020 01:54:14	120220	12022020	015413	192.18	13.743510	-56.917810	192.50	0.560	-0.720	1.850	192.20	-2.10	2.40	 	 	 	 	 	 	 	 	 	 	 	 	 	 	 	 	 	 	1581472453	10.93	20.24
12/02/2020 01:54:15	120220	12022020	015414	192.23	13.743465	-56.917820	192.52	0.340	-0.330	1.790	192.23	-1.50	2.30	 	 	 	 	 	 	 	 	 	 	 	 	 	 	 	 	 	 	1581472454	10.16	18.82
12/02/2020 01:54:16	120220	12022020	015415	192.16	13.743418	-56.917830	192.40	0.080	-0.060	1.660	192.14	-1.40	2.20	 	 	 	 	 	 	 	 	 	 	 	 	 	 	 	 	 	 	1581472455	10.10	18.71
12/02/2020 01:54:17	120220	12022020	015416	192.02	13.743370	-56.917842	192.27	-0.030	-0.320	1.540	191.99	-1.60	2.10	 	 	 	 	 	 	 	 	 	 	 	 	 	 	 	 	 	 	1581472456	10.72	19.85
12/02/2020 01:54:18	120220	12022020	015417	191.85	13.743320	-56.917853	192.05	-0.030	-0.830	1.520	191.80	-2.10	2.00	 	 	 	 	 	 	 	 	 	 	 	 	 	 	 	 	 	 	1581472457	11.18	20.71
12/02/2020 01:54:19	120220	12022020	015418	191.43	13.743268	-56.917868	191.57	0.070	-1.170	1.740	191.32	-2.50	2.20	 	 	 	 	 	 	 	 	 	 	 	 	 	 	 	 	 	 	1581472458	11.35	21.02
12/02/2020 01:54:20	120220	12022020	015419	190.87	13.743218	-56.917882	191.03	0.170	-0.940	1.910	190.77	-2.40	2.40	 	 	 	 	 	 	 	 	 	 	 	 	 	 	 	 	 	 	1581472459	11.06	20.48
12/02/2020 01:54:21	120220	12022020	015420	190.53	13.743172	-56.917893	190.78	0.030	-0.210	1.980	190.50	-1.70	2.50	 	 	 	 	 	 	 	 	 	 	 	 	 	 	 	 	 	 	1581472460	10.50	19.45
12/02/2020 01:54:22	120220	12022020	015421	190.52	13.743125	-56.917905	190.82	-0.470	0.500	2.020	190.54	-0.90	2.50	 	 	 	 	 	 	 	 	 	 	 	 	 	 	 	 	 	 	1581472461	10.29	19.06
12/02/2020 01:54:23	120220	12022020	015422	190.61	13.743078	-56.917922	190.89	-0.990	0.660	2.230	190.61	-0.70	2.70	 	 	 	 	 	 	 	 	 	 	 	 	 	 	 	 	 	 	1581472462	10.64	19.71
12/02/2020 01:54:24	120220	12022020	015423	190.51	13.743028	-56.917940	190.77	-0.940	0.170	2.620	190.47	-1.10	3.10	 	 	 	 	 	 	 	 	 	 	 	 	 	 	 	 	 	 	1581472463	11.37	21.06
12/02/2020 01:54:25	120220	12022020	015424	190.36	13.742977	-56.917957	190.65	-0.120	-0.400	2.570	190.34	-1.90	2.90	 	 	 	 	 	 	 	 	 	 	 	 	 	 	 	 	 	 	1581472464	11.55	21.39
12/02/2020 01:54:26	120220	12022020	015425	190.30	13.742927	-56.917967	190.61	0.910	-0.570	2.140	190.30	-1.90	2.70	 	 	 	 	 	 	 	 	 	 	 	 	 	 	 	 	 	 	1581472465	11.11	20.58
12/02/2020 01:54:27	120220	12022020	015426	190.43	13.742878	-56.917972	190.81	1.370	-0.320	1.650	190.49	-1.50	2.00	 	 	 	 	 	 	 	 	 	 	 	 	 	 	 	 	 	 	1581472466	10.57	19.58
12/02/2020 01:54:28	120220	12022020	015427	190.78	13.742830	-56.917978	191.19	1.000	-0.060	1.450	190.86	-1.40	2.00	 	 	 	 	 	 	 	 	 	 	 	 	 	 	 	 	 	 	1581472467	10.23	18.95
12/02/2020 01:54:29	120220	12022020	015428	191.12	13.742782	-56.917988	191.48	0.220	-0.280	1.640	191.17	-1.90	2.50	 	 	 	 	 	 	 	 	 	 	 	 	 	 	 	 	 	 	1581472468	10.57	19.58
12/02/2020 01:54:30	120220	12022020	015429	191.23	13.742732	-56.918003	191.54	-0.380	-0.890	2.310	191.23	-2.10	2.70	 	 	 	 	 	 	 	 	 	 	 	 	 	 	 	 	 	 	1581472469	11.20	20.74
12/02/2020 01:54:31	120220	12022020	015430	191.09	13.742682	-56.918022	191.32	-0.640	-1.320	3.180	191.02	-2.60	3.60	 	 	 	 	 	 	 	 	 	 	 	 	 	 	 	 	 	 	1581472470	11.39	21.09
12/02/2020 01:54:32	120220	12022020	015431	190.57	13.742633	-56.918040	190.72	-0.660	-1.320	3.810	190.42	-2.70	4.30	 	 	 	 	 	 	 	 	 	 	 	 	 	 	 	 	 	 	1581472471	11.24	20.82
12/02/2020 01:54:33	120220	12022020	015432	189.81	13.742583	-56.918057	189.98	-0.570	-0.920	3.920	189.67	-2.30	4.40	 	 	 	 	 	 	 	 	 	 	 	 	 	 	 	 	 	 	1581472472	11.12	20.59
12/02/2020 01:54:34	120220	12022020	015433	189.26	13.742535	-56.918070	189.52	-0.470	-0.110	3.490	189.20	-1.60	4.10	 	 	 	 	 	 	 	 	 	 	 	 	 	 	 	 	 	 	1581472473	10.77	19.95
12/02/2020 01:54:35	120220	12022020	015434	189.16	13.742488	-56.918078	189.52	-0.230	0.720	2.550	189.20	-0.70	3.20	 	 	 	 	 	 	 	 	 	 	 	 	 	 	 	 	 	 	1581472474	10.50	19.45
12/02/2020 01:54:36	120220	12022020	015435	189.57	13.742438	-56.918083	190.03	0.140	1.110	1.370	189.71	-0.20	2.00	 	 	 	 	 	 	 	 	 	 	 	 	 	 	 	 	 	 	1581472475	10.67	19.76
12/02/2020 01:54:37	120220	12022020	015436	190.36	13.742387	-56.918087	190.87	0.510	0.840	0.590	190.55	-0.40	1.20	 	 	 	 	 	 	 	 	 	 	 	 	 	 	 	 	 	 	1581472476	11.02	20.41
12/02/2020 01:54:38	120220	12022020	015437	191.32	13.742337	-56.918095	191.82	0.640	0.170	0.520	191.50	-1.10	1.00	 	 	 	 	 	 	 	 	 	 	 	 	 	 	 	 	 	 	1581472477	11.11	20.58
12/02/2020 01:54:39	120220	12022020	015438	192.01	13.742287	-56.918108	192.40	0.490	-0.560	1.130	192.09	-2.30	2.20	 	 	 	 	 	 	 	 	 	 	 	 	 	 	 	 	 	 	1581472478	10.90	20.19
12/02/2020 01:54:40	120220	12022020	015439	192.17	13.742238	-56.918123	192.43	0.280	-1.250	2.200	192.12	-2.50	2.60	 	 	 	 	 	 	 	 	 	 	 	 	 	 	 	 	 	 	1581472479	10.87	20.13
12/02/2020 01:54:41	120220	12022020	015440	191.72	13.742190	-56.918142	191.89	0.170	-1.780	3.290	191.59	-3.20	4.30	 	 	 	 	 	 	 	 	 	 	 	 	 	 	 	 	 	 	1581472480	11.08	20.52
12/02/2020 01:54:42	120220	12022020	015441	190.92	13.742143	-56.918160	191.05	0.040	-1.680	4.050	190.75	-3.10	4.50	 	 	 	 	 	 	 	 	 	 	 	 	 	 	 	 	 	 	1581472481	10.97	20.32
12/02/2020 01:54:43	120220	12022020	015442	190.09	13.742097	-56.918177	190.28	-0.130	-0.930	4.060	189.97	-2.40	4.60	 	 	 	 	 	 	 	 	 	 	 	 	 	 	 	 	 	 	1581472482	10.53	19.50
12/02/2020 01:54:44	120220	12022020	015443	189.54	13.742050	-56.918188	189.77	-0.180	-0.030	3.530	189.45	-1.50	4.10	 	 	 	 	 	 	 	 	 	 	 	 	 	 	 	 	 	 	1581472483	10.31	19.09
12/02/2020 01:54:45	120220	12022020	015444	189.17	13.742000	-56.918198	189.43	-0.060	0.360	3.050	189.12	-1.00	3.60	 	 	 	 	 	 	 	 	 	 	 	 	 	 	 	 	 	 	1581472484	10.81	20.02
12/02/2020 01:54:46	120220	12022020	015445	189.04	13.741948	-56.918207	189.41	0.050	0.340	2.630	189.06	-1.00	3.20	 	 	 	 	 	 	 	 	 	 	 	 	 	 	 	 	 	 	1581472485	11.31	20.95
12/02/2020 01:54:47	120220	12022020	015446	189.32	13.741898	-56.918217	189.79	-0.140	0.420	2.470	189.42	-0.90	3.00	 	 	 	 	 	 	 	 	 	 	 	 	 	 	 	 	 	 	1581472486	11.07	20.50
12/02/2020 01:54:48	120220	12022020	015447	189.97	13.741852	-56.918230	190.51	-0.560	0.680	2.450	190.13	-0.70	3.00	 	 	 	 	 	 	 	 	 	 	 	 	 	 	 	 	 	 	1581472487	10.45	19.35
12/02/2020 01:54:49	120220	12022020	015448	190.78	13.741805	-56.918243	191.28	-0.780	0.610	2.320	190.92	-0.70	2.90	 	 	 	 	 	 	 	 	 	 	 	 	 	 	 	 	 	 	1581472488	10.24	18.96
12/02/2020 01:54:50	120220	12022020	015449	191.32	13.741757	-56.918257	191.70	-0.360	-0.280	2.120	191.38	-1.50	2.70	 	 	 	 	 	 	 	 	 	 	 	 	 	 	 	 	 	 	1581472489	10.93	20.24
12/02/2020 01:54:51	120220	12022020	015450	191.52	13.741703	-56.918267	191.84	0.500	-1.350	1.810	191.55	-2.60	2.40	 	 	 	 	 	 	 	 	 	 	 	 	 	 	 	 	 	 	1581472490	11.49	21.28
12/02/2020 01:54:52	120220	12022020	015451	191.71	13.741653	-56.918273	192.06	1.020	-1.620	1.430	191.75	-3.00	2.00	 	 	 	 	 	 	 	 	 	 	 	 	 	 	 	 	 	 	1581472491	10.94	20.26
12/02/2020 01:54:53	120220	12022020	015452	191.83	13.741607	-56.918282	192.07	0.880	-1.250	1.370	191.80	-2.70	1.90	 	 	 	 	 	 	 	 	 	 	 	 	 	 	 	 	 	 	1581472492	10.18	18.85
12/02/2020 01:54:54	120220	12022020	015453	191.38	13.741560	-56.918293	191.46	0.430	-0.970	1.900	191.23	-2.30	2.30	 	 	 	 	 	 	 	 	 	 	 	 	 	 	 	 	 	 	1581472493	10.45	19.35
12/02/2020 01:54:55	120220	12022020	015454	190.59	13.741510	-56.918307	190.72	-0.040	-0.650	2.500	190.48	-2.10	3.00	 	 	 	 	 	 	 	 	 	 	 	 	 	 	 	 	 	 	1581472494	11.02	20.41
12/02/2020 01:54:56	120220	12022020	015455	190.15	13.741462	-56.918320	190.39	-0.550	0.160	2.780	190.11	-1.30	3.30	 	 	 	 	 	 	 	 	 	 	 	 	 	 	 	 	 	 	1581472495	10.67	19.76
12/02/2020 01:54:57	120220	12022020	015456	190.04	13.741415	-56.918335	190.33	-0.940	0.880	2.800	190.04	-0.50	3.30	 	 	 	 	 	 	 	 	 	 	 	 	 	 	 	 	 	 	1581472496	10.49	19.43
12/02/2020 01:54:58	120220	12022020	015457	190.06	13.741367	-56.918352	190.41	-0.940	1.010	2.530	190.10	-0.30	3.10	 	 	 	 	 	 	 	 	 	 	 	 	 	 	 	 	 	 	1581472497	10.98	20.33
12/02/2020 01:54:59	120220	12022020	015458	190.34	13.741318	-56.918365	190.74	-0.590	0.880	1.960	190.43	-0.40	2.60	 	 	 	 	 	 	 	 	 	 	 	 	 	 	 	 	 	 	1581472498	11.01	20.39
12/02/2020 01:55:00	120220	12022020	015459	190.81	13.741268	-56.918375	191.21	-0.040	0.550	1.360	190.91	-0.70	2.00	 	 	 	 	 	 	 	 	 	 	 	 	 	 	 	 	 	 	1581472499	10.76	19.93
12/02/2020 01:55:01	120220	12022020	015500	191.16	13.741218	-56.918383	191.49	0.490	-0.240	1.060	191.20	-1.50	1.60	 	 	 	 	 	 	 	 	 	 	 	 	 	 	 	 	 	 	1581472500	10.91	20.21
12/02/2020 01:55:02	120220	12022020	015501	191.21	13.741167	-56.918395	191.48	0.830	-1.210	1.340	191.19	-2.40	1.80	1017.70	25.90	26.00	20.70	20.80	-1.0	73.0	73.0	394.0	25.6	267.00	9.30	68.00	11.00	16	8318.0	27.2	27.2	1581472501	11.19	20.72
12/02/2020 01:55:03	120220	12022020	015502	191.09	13.741118	-56.918408	191.39	0.740	-1.550	1.990	191.08	-2.90	2.40	 	 	 	 	 	 	 	 	 	 	 	 	 	 	 	 	 	 	1581472502	10.77	19.95
12/02/2020 01:55:04	120220	12022020	015503	191.08	13.741075	-56.918422	191.42	0.300	-1.090	2.480	191.10	-2.50	2.90	 	 	 	 	 	 	 	 	 	 	 	 	 	 	 	 	 	 	1581472503	9.96	18.45
12/02/2020 01:55:05	120220	12022020	015504	191.17	13.741032	-56.918437	191.47	-0.040	-0.500	2.540	191.17	-1.70	3.10	 	 	 	 	 	 	 	 	 	 	 	 	 	 	 	 	 	 	1581472504	9.68	17.93
12/02/2020 01:55:06	120220	12022020	015505	191.04	13.740985	-56.918448	191.26	-0.010	-0.440	2.610	190.98	-1.80	3.10	 	 	 	 	 	 	 	 	 	 	 	 	 	 	 	 	 	 	1581472505	10.36	19.19
12/02/2020 01:55:07	120220	12022020	015506	190.61	13.740935	-56.918460	190.79	0.160	-0.870	2.840	190.51	-2.10	3.30	 	 	 	 	 	 	 	 	 	 	 	 	 	 	 	 	 	 	1581472506	11.29	20.91
12/02/2020 01:55:08	120220	12022020	015507	190.09	13.740882	-56.918473	190.30	0.120	-1.170	2.960	189.99	-2.50	3.50	 	 	 	 	 	 	 	 	 	 	 	 	 	 	 	 	 	 	1581472507	11.66	21.59
12/02/2020 01:55:09	120220	12022020	015508	189.68	13.740830	-56.918487	189.96	-0.280	-0.860	3.080	189.63	-2.30	3.60	 	 	 	 	 	 	 	 	 	 	 	 	 	 	 	 	 	 	1581472508	11.36	21.04
12/02/2020 01:55:10	120220	12022020	015509	189.63	13.740783	-56.918500	190.02	-0.800	0.130	2.980	189.68	-1.40	3.50	 	 	 	 	 	 	 	 	 	 	 	 	 	 	 	 	 	 	1581472509	10.67	19.76
12/02/2020 01:55:11	120220	12022020	015510	190.00	13.740737	-56.918513	190.44	-1.080	1.170	2.650	190.10	-0.30	3.20	 	 	 	 	 	 	 	 	 	 	 	 	 	 	 	 	 	 	1581472510	10.20	18.89
12/02/2020 01:55:12	120220	12022020	015511	190.49	13.740690	-56.918525	190.89	-0.850	1.450	2.310	190.58	0.10	2.90	 	 	 	 	 	 	 	 	 	 	 	 	 	 	 	 	 	 	1581472511	10.55	19.54
12/02/2020 01:55:13	120220	12022020	015512	190.80	13.740638	-56.918537	191.16	-0.140	0.890	2.060	190.85	-0.40	2.60	 	 	 	 	 	 	 	 	 	 	 	 	 	 	 	 	 	 	1581472512	11.25	20.84
12/02/2020 01:55:14	120220	12022020	015513	191.08	13.740587	-56.918547	191.46	0.580	0.310	1.730	191.16	-1.00	2.30	 	 	 	 	 	 	 	 	 	 	 	 	 	 	 	 	 	 	1581472513	11.19	20.72
12/02/2020 01:55:15	120220	12022020	015514	191.54	13.740540	-56.918553	191.95	0.810	0.220	1.270	191.65	-1.20	1.60	 	 	 	 	 	 	 	 	 	 	 	 	 	 	 	 	 	 	1581472514	10.19	18.87
12/02/2020 01:55:16	120220	12022020	015515	192.00	13.740495	-56.918560	192.33	0.640	-0.000	1.070	192.06	-1.30	1.60	 	 	 	 	 	 	 	 	 	 	 	 	 	 	 	 	 	 	1581472515	9.66	17.89
12/02/2020 01:55:17	120220	12022020	015516	192.07	13.740448	-56.918572	192.26	0.520	-0.970	1.480	192.01	-3.00	2.30	 	 	 	 	 	 	 	 	 	 	 	 	 	 	 	 	 	 	1581472516	10.32	19.11
12/02/2020 01:55:18	120220	12022020	015517	191.56	13.740398	-56.918587	191.65	0.680	-2.250	2.240	191.41	-3.40	2.60	 	 	 	 	 	 	 	 	 	 	 	 	 	 	 	 	 	 	1581472517	11.26	20.85
12/02/2020 01:55:19	120220	12022020	015518	190.68	13.740348	-56.918603	190.76	0.720	-2.790	3.110	190.51	-4.10	3.50	 	 	 	 	 	 	 	 	 	 	 	 	 	 	 	 	 	 	1581472518	11.36	21.04
12/02/2020 01:55:20	120220	12022020	015519	189.77	13.740302	-56.918618	189.89	0.230	-2.070	3.690	189.62	-3.60	4.10	 	 	 	 	 	 	 	 	 	 	 	 	 	 	 	 	 	 	1581472519	10.68	19.78
12/02/2020 01:55:21	120220	12022020	015520	189.11	13.740257	-56.918635	189.34	-0.590	-0.610	3.690	189.04	-2.20	4.20	 	 	 	 	 	 	 	 	 	 	 	 	 	 	 	 	 	 	1581472520	10.12	18.74
12/02/2020 01:55:22	120220	12022020	015521	189.02	13.740212	-56.918648	189.41	-1.160	0.760	3.030	189.09	-0.70	3.70	 	 	 	 	 	 	 	 	 	 	 	 	 	 	 	 	 	 	1581472521	10.16	18.82
12/02/2020 01:55:23	120220	12022020	015522	189.63	13.740163	-56.918658	190.13	-1.140	1.410	1.960	189.82	0.00	2.60	 	 	 	 	 	 	 	 	 	 	 	 	 	 	 	 	 	 	1581472522	10.63	19.69
12/02/2020 01:55:24	120220	12022020	015523	190.65	13.740112	-56.918668	191.18	-0.650	1.310	0.980	190.87	0.00	1.60	 	 	 	 	 	 	 	 	 	 	 	 	 	 	 	 	 	 	1581472523	11.14	20.63
12/02/2020 01:55:25	120220	12022020	015524	191.66	13.740060	-56.918677	192.13	-0.080	0.730	0.490	191.84	-0.50	1.00	 	 	 	 	 	 	 	 	 	 	 	 	 	 	 	 	 	 	1581472524	11.30	20.93
12/02/2020 01:55:26	120220	12022020	015525	192.31	13.740008	-56.918685	192.66	0.280	-0.050	0.780	192.38	-1.30	1.20	 	 	 	 	 	 	 	 	 	 	 	 	 	 	 	 	 	 	1581472525	11.18	20.71
12/02/2020 01:55:27	120220	12022020	015526	192.42	13.739958	-56.918698	192.65	0.470	-0.780	1.580	192.38	-2.00	2.00	 	 	 	 	 	 	 	 	 	 	 	 	 	 	 	 	 	 	1581472526	11.02	20.41
12/02/2020 01:55:28	120220	12022020	015527	192.10	13.739910	-56.918710	192.30	0.570	-1.060	2.390	192.01	-2.40	2.80	 	 	 	 	 	 	 	 	 	 	 	 	 	 	 	 	 	 	1581472527	10.75	19.91
12/02/2020 01:55:29	120220	12022020	015528	191.69	13.739865	-56.918723	191.89	0.470	-0.680	2.950	191.59	-1.80	3.60	 	 	 	 	 	 	 	 	 	 	 	 	 	 	 	 	 	 	1581472528	10.08	18.67
12/02/2020 01:55:30	120220	12022020	015529	191.14	13.739820	-56.918735	191.26	0.260	-0.290	3.120	190.99	-1.70	3.60	 	 	 	 	 	 	 	 	 	 	 	 	 	 	 	 	 	 	1581472529	9.93	18.39
12/02/2020 01:55:31	120220	12022020	015530	190.28	13.739772	-56.918747	190.39	0.100	-0.390	3.100	190.11	-1.80	3.50	 	 	 	 	 	 	 	 	 	 	 	 	 	 	 	 	 	 	1581472530	10.64	19.71
12/02/2020 01:55:32	120220	12022020	015531	189.62	13.739723	-56.918758	189.87	-0.140	-0.480	2.780	189.57	-1.80	3.40	 	 	 	 	 	 	 	 	 	 	 	 	 	 	 	 	 	 	1581472531	10.97	20.32
12/02/2020 01:55:33	120220	12022020	015532	189.67	13.739677	-56.918772	190.08	-0.510	-0.140	2.180	189.75	-1.50	2.80	 	 	 	 	 	 	 	 	 	 	 	 	 	 	 	 	 	 	1581472532	10.47	19.39
12/02/2020 01:55:34	120220	12022020	015533	190.23	13.739632	-56.918787	190.67	-0.710	0.210	1.560	190.36	-1.20	2.10	 	 	 	 	 	 	 	 	 	 	 	 	 	 	 	 	 	 	1581472533	10.13	18.76
12/02/2020 01:55:35	120220	12022020	015534	190.78	13.739585	-56.918800	191.16	-0.300	0.050	1.050	190.87	-1.20	1.60	 	 	 	 	 	 	 	 	 	 	 	 	 	 	 	 	 	 	1581472534	10.52	19.48
12/02/2020 01:55:36	120220	12022020	015535	191.15	13.739533	-56.918810	191.50	0.620	-0.420	0.580	191.22	-1.70	1.20	 	 	 	 	 	 	 	 	 	 	 	 	 	 	 	 	 	 	1581472535	11.02	20.41
12/02/2020 01:55:37	120220	12022020	015536	191.56	13.739483	-56.918815	191.94	1.240	-0.540	0.250	191.66	-1.90	0.80	 	 	 	 	 	 	 	 	 	 	 	 	 	 	 	 	 	 	1581472536	10.83	20.06
12/02/2020 01:55:38	120220	12022020	015537	192.03	13.739435	-56.918822	192.36	1.030	-0.490	0.350	192.09	-1.80	0.80	 	 	 	 	 	 	 	 	 	 	 	 	 	 	 	 	 	 	1581472537	10.41	19.28
12/02/2020 01:55:39	120220	12022020	015538	192.20	13.739388	-56.918832	192.49	0.230	-0.700	1.160	192.20	-2.00	1.50	 	 	 	 	 	 	 	 	 	 	 	 	 	 	 	 	 	 	1581472538	10.60	19.63
12/02/2020 01:55:40	120220	12022020	015539	192.18	13.739338	-56.918848	192.49	-0.610	-0.970	2.090	192.17	-2.30	2.50	 	 	 	 	 	 	 	 	 	 	 	 	 	 	 	 	 	 	1581472539	11.00	20.37
12/02/2020 01:55:41	120220	12022020	015540	192.00	13.739292	-56.918868	192.23	-1.030	-0.990	2.810	191.92	-2.30	3.20	 	 	 	 	 	 	 	 	 	 	 	 	 	 	 	 	 	 	1581472540	11.08	20.52
12/02/2020 01:55:42	120220	12022020	015541	191.50	13.739243	-56.918887	191.68	-0.820	-0.670	3.160	191.38	-2.10	3.60	 	 	 	 	 	 	 	 	 	 	 	 	 	 	 	 	 	 	1581472541	10.97	20.32
12/02/2020 01:55:43	120220	12022020	015542	190.88	13.739195	-56.918900	191.05	-0.240	-0.160	2.810	190.76	-1.60	3.40	 	 	 	 	 	 	 	 	 	 	 	 	 	 	 	 	 	 	1581472542	10.74	19.89
12/02/2020 01:55:44	120220	12022020	015543	190.40	13.739147	-56.918908	190.66	0.190	0.290	2.120	190.36	-1.10	2.70	 	 	 	 	 	 	 	 	 	 	 	 	 	 	 	 	 	 	1581472543	10.77	19.95
12/02/2020 01:55:45	120220	12022020	015544	190.38	13.739097	-56.918918	190.74	0.170	0.630	1.520	190.43	-0.80	2.10	 	 	 	 	 	 	 	 	 	 	 	 	 	 	 	 	 	 	1581472544	10.63	19.69
12/02/2020 01:55:46	120220	12022020	015545	190.72	13.739050	-56.918928	191.08	-0.120	0.790	1.240	190.80	-0.60	1.80	 	 	 	 	 	 	 	 	 	 	 	 	 	 	 	 	 	 	1581472545	10.35	19.17
12/02/2020 01:55:47	120220	12022020	015546	190.93	13.739003	-56.918942	191.19	-0.180	0.520	1.510	190.92	-0.70	1.90	 	 	 	 	 	 	 	 	 	 	 	 	 	 	 	 	 	 	1581472546	10.46	19.37
12/02/2020 01:55:48	120220	12022020	015547	190.79	13.738955	-56.918957	191.03	0.190	-0.160	2.010	190.76	-1.40	2.40	 	 	 	 	 	 	 	 	 	 	 	 	 	 	 	 	 	 	1581472547	10.93	20.24
12/02/2020 01:55:49	120220	12022020	015548	190.72	13.738907	-56.918968	191.04	0.650	-0.530	2.170	190.75	-1.90	2.70	 	 	 	 	 	 	 	 	 	 	 	 	 	 	 	 	 	 	1581472548	10.75	19.91
12/02/2020 01:55:50	120220	12022020	015549	190.99	13.738860	-56.918977	191.39	0.800	-0.580	1.910	191.08	-1.90	2.50	 	 	 	 	 	 	 	 	 	 	 	 	 	 	 	 	 	 	1581472549	10.22	18.93
12/02/2020 01:55:51	120220	12022020	015550	191.42	13.738812	-56.918985	191.80	0.660	-0.780	1.610	191.49	-2.10	2.20	 	 	 	 	 	 	 	 	 	 	 	 	 	 	 	 	 	 	1581472550	10.29	19.06
12/02/2020 01:55:52	120220	12022020	015551	191.65	13.738763	-56.918995	191.97	0.440	-1.260	1.790	191.67	-2.50	2.20	 	 	 	 	 	 	 	 	 	 	 	 	 	 	 	 	 	 	1581472551	10.85	20.09
12/02/2020 01:55:53	120220	12022020	015552	191.70	13.738713	-56.919010	192.04	0.090	-1.450	2.460	191.72	-2.60	3.30	 	 	 	 	 	 	 	 	 	 	 	 	 	 	 	 	 	 	1581472552	10.99	20.35
12/02/2020 01:55:54	120220	12022020	015553	191.79	13.738667	-56.919027	192.16	-0.420	-1.030	2.970	191.81	-2.40	3.40	 	 	 	 	 	 	 	 	 	 	 	 	 	 	 	 	 	 	1581472553	10.58	19.59
12/02/2020 01:55:55	120220	12022020	015554	191.90	13.738623	-56.919045	192.24	-0.800	-0.270	3.070	191.90	-1.30	3.50	 	 	 	 	 	 	 	 	 	 	 	 	 	 	 	 	 	 	1581472554	10.19	18.87
12/02/2020 01:55:56	120220	12022020	015555	191.84	13.738577	-56.919058	192.11	-0.650	0.120	2.850	191.80	-1.20	3.40	 	 	 	 	 	 	 	 	 	 	 	 	 	 	 	 	 	 	1581472555	10.41	19.28
12/02/2020 01:55:57	120220	12022020	015556	191.49	13.738525	-56.919070	191.70	-0.060	-0.120	2.540	191.41	-1.40	3.10	 	 	 	 	 	 	 	 	 	 	 	 	 	 	 	 	 	 	1581472556	11.28	20.89
12/02/2020 01:55:58	120220	12022020	015557	191.05	13.738472	-56.919080	191.27	0.340	-0.400	2.360	190.97	-1.70	2.90	 	 	 	 	 	 	 	 	 	 	 	 	 	 	 	 	 	 	1581472557	11.60	21.48
12/02/2020 01:55:59	120220	12022020	015558	190.73	13.738422	-56.919090	191.00	0.220	-0.260	2.320	190.69	-1.60	2.80	 	 	 	 	 	 	 	 	 	 	 	 	 	 	 	 	 	 	1581472558	11.17	20.69
12/02/2020 01:56:00	120220	12022020	015559	190.62	13.738373	-56.919103	190.92	-0.200	0.260	2.320	190.61	-1.10	2.80	 	 	 	 	 	 	 	 	 	 	 	 	 	 	 	 	 	 	1581472559	10.57	19.58
12/02/2020 01:56:01	120220	12022020	015600	190.70	13.738328	-56.919117	191.04	-0.470	0.750	2.280	190.74	-0.60	2.80	 	 	 	 	 	 	 	 	 	 	 	 	 	 	 	 	 	 	1581472560	10.32	19.11
12/02/2020 01:56:02	120220	12022020	015601	191.02	13.738280	-56.919128	191.42	-0.320	0.790	2.120	191.11	-0.50	2.60	1017.50	26.00	26.00	20.60	20.70	-1.0	72.0	72.0	397.0	25.6	268.00	9.30	69.00	11.00	16	8678.0	27.2	27.2	1581472561	10.50	19.45
12/02/2020 01:56:03	120220	12022020	015602	191.61	13.738232	-56.919140	192.05	0.070	0.410	1.800	191.75	-0.90	2.40	 	 	 	 	 	 	 	 	 	 	 	 	 	 	 	 	 	 	1581472562	10.72	19.85
12/02/2020 01:56:04	120220	12022020	015603	192.20	13.738182	-56.919150	192.56	0.430	-0.310	1.490	192.27	-1.50	2.00	 	 	 	 	 	 	 	 	 	 	 	 	 	 	 	 	 	 	1581472563	10.82	20.04
12/02/2020 01:56:05	120220	12022020	015604	192.33	13.738132	-56.919162	192.57	0.610	-1.100	1.480	192.30	-2.60	2.10	 	 	 	 	 	 	 	 	 	 	 	 	 	 	 	 	 	 	1581472564	10.99	20.35
12/02/2020 01:56:06	120220	12022020	015605	192.21	13.738085	-56.919173	192.50	0.510	-1.280	1.650	192.21	-2.60	2.10	 	 	 	 	 	 	 	 	 	 	 	 	 	 	 	 	 	 	1581472565	10.61	19.65
12/02/2020 01:56:07	120220	12022020	015606	192.28	13.738040	-56.919185	192.58	0.200	-0.850	1.610	192.29	-2.00	2.10	 	 	 	 	 	 	 	 	 	 	 	 	 	 	 	 	 	 	1581472566	9.89	18.32
12/02/2020 01:56:08	120220	12022020	015607	192.22	13.737995	-56.919197	192.42	-0.060	-0.640	1.680	192.16	-2.00	2.20	 	 	 	 	 	 	 	 	 	 	 	 	 	 	 	 	 	 	1581472567	10.10	18.71
12/02/2020 01:56:09	120220	12022020	015608	191.78	13.737945	-56.919212	191.93	-0.030	-0.920	1.970	191.67	-2.40	2.60	 	 	 	 	 	 	 	 	 	 	 	 	 	 	 	 	 	 	1581472568	10.99	20.35
12/02/2020 01:56:10	120220	12022020	015609	191.22	13.737893	-56.919225	191.41	0.080	-1.020	2.120	191.15	-2.40	2.60	 	 	 	 	 	 	 	 	 	 	 	 	 	 	 	 	 	 	1581472569	11.41	21.13
12/02/2020 01:56:11	120220	12022020	015610	191.02	13.737847	-56.919238	191.31	-0.160	-0.350	2.160	191.03	-1.80	2.60	 	 	 	 	 	 	 	 	 	 	 	 	 	 	 	 	 	 	1581472570	10.70	19.82
12/02/2020 01:56:12	120220	12022020	015611	191.10	13.737800	-56.919253	191.40	-0.590	0.420	2.250	191.12	-1.00	2.70	 	 	 	 	 	 	 	 	 	 	 	 	 	 	 	 	 	 	1581472571	10.30	19.08
12/02/2020 01:56:13	120220	12022020	015612	191.12	13.737752	-56.919268	191.38	-0.660	0.490	2.300	191.11	-0.80	2.80	 	 	 	 	 	 	 	 	 	 	 	 	 	 	 	 	 	 	1581472572	10.91	20.21
12/02/2020 01:56:14	120220	12022020	015613	191.09	13.737700	-56.919282	191.38	-0.150	0.110	2.120	191.11	-1.20	2.60	 	 	 	 	 	 	 	 	 	 	 	 	 	 	 	 	 	 	1581472573	11.54	21.37
12/02/2020 01:56:15	120220	12022020	015614	191.29	13.737648	-56.919290	191.67	0.480	-0.080	1.780	191.38	-1.40	2.30	 	 	 	 	 	 	 	 	 	 	 	 	 	 	 	 	 	 	1581472574	11.37	21.06
12/02/2020 01:56:16	120220	12022020	015615	191.93	13.737598	-56.919298	192.39	0.530	0.090	1.520	192.10	-1.30	2.00	 	 	 	 	 	 	 	 	 	 	 	 	 	 	 	 	 	 	1581472575	10.65	19.72
12/02/2020 01:56:17	120220	12022020	015616	192.67	13.737552	-56.919310	193.05	-0.030	0.080	1.850	192.76	-1.20	2.30	 	 	 	 	 	 	 	 	 	 	 	 	 	 	 	 	 	 	1581472576	10.28	19.04
12/02/2020 01:56:18	120220	12022020	015617	192.77	13.737505	-56.919328	192.98	-0.590	-0.620	2.780	192.70	-1.80	3.10	 	 	 	 	 	 	 	 	 	 	 	 	 	 	 	 	 	 	1581472577	10.96	20.30
12/02/2020 01:56:19	120220	12022020	015618	192.17	13.737455	-56.919348	192.31	-0.520	-1.470	3.480	192.02	-2.90	4.10	 	 	 	 	 	 	 	 	 	 	 	 	 	 	 	 	 	 	1581472578	11.68	21.63
12/02/2020 01:56:20	120220	12022020	015619	191.43	13.737405	-56.919365	191.60	0.030	-1.430	3.520	191.30	-2.80	4.00	 	 	 	 	 	 	 	 	 	 	 	 	 	 	 	 	 	 	1581472579	11.14	20.63
12/02/2020 01:56:21	120220	12022020	015620	190.91	13.737358	-56.919373	191.16	0.480	-0.480	2.960	190.86	-1.20	3.00	 	 	 	 	 	 	 	 	 	 	 	 	 	 	 	 	 	 	1581472580	10.18	18.85
12/02/2020 01:56:22	120220	12022020	015621	190.86	13.737313	-56.919380	191.22	0.340	0.540	1.990	190.90	-0.90	2.60	 	 	 	 	 	 	 	 	 	 	 	 	 	 	 	 	 	 	1581472581	9.84	18.22
12/02/2020 01:56:23	120220	12022020	015622	191.24	13.737267	-56.919388	191.65	-0.230	0.950	1.280	191.34	-0.40	1.80	 	 	 	 	 	 	 	 	 	 	 	 	 	 	 	 	 	 	1581472582	10.10	18.71
12/02/2020 01:56:24	120220	12022020	015623	191.81	13.737220	-56.919402	192.19	-0.590	0.680	1.000	191.91	-0.60	1.50	 	 	 	 	 	 	 	 	 	 	 	 	 	 	 	 	 	 	1581472583	10.58	19.59
12/02/2020 01:56:25	120220	12022020	015624	192.16	13.737170	-56.919415	192.45	-0.260	-0.140	1.000	192.18	-1.30	1.50	 	 	 	 	 	 	 	 	 	 	 	 	 	 	 	 	 	 	1581472584	11.07	20.50
12/02/2020 01:56:26	120220	12022020	015625	192.06	13.737118	-56.919430	192.26	0.530	-1.160	1.310	191.99	-2.40	1.70	 	 	 	 	 	 	 	 	 	 	 	 	 	 	 	 	 	 	1581472585	11.53	21.35
12/02/2020 01:56:27	120220	12022020	015626	191.66	13.737065	-56.919442	191.87	1.060	-1.710	1.680	191.59	-3.00	2.10	 	 	 	 	 	 	 	 	 	 	 	 	 	 	 	 	 	 	1581472586	11.47	21.24
12/02/2020 01:56:28	120220	12022020	015627	191.31	13.737017	-56.919453	191.54	0.830	-1.370	1.990	191.26	-2.80	2.40	 	 	 	 	 	 	 	 	 	 	 	 	 	 	 	 	 	 	1581472587	10.79	19.98
12/02/2020 01:56:29	120220	12022020	015628	191.08	13.736970	-56.919465	191.34	0.020	-0.470	2.250	191.05	-1.90	2.70	 	 	 	 	 	 	 	 	 	 	 	 	 	 	 	 	 	 	1581472588	10.23	18.95
12/02/2020 01:56:30	120220	12022020	015629	191.08	13.736925	-56.919478	191.44	-0.840	0.450	2.290	191.14	-1.00	2.80	 	 	 	 	 	 	 	 	 	 	 	 	 	 	 	 	 	 	1581472589	10.15	18.80
12/02/2020 01:56:31	120220	12022020	015630	191.42	13.736880	-56.919493	191.80	-1.230	0.870	2.170	191.49	-0.50	2.70	 	 	 	 	 	 	 	 	 	 	 	 	 	 	 	 	 	 	1581472590	10.38	19.22
12/02/2020 01:56:32	120220	12022020	015631	191.66	13.736830	-56.919508	191.99	-0.950	0.390	2.120	191.70	-0.80	2.60	 	 	 	 	 	 	 	 	 	 	 	 	 	 	 	 	 	 	1581472591	11.20	20.74
12/02/2020 01:56:33	120220	12022020	015632	191.83	13.736777	-56.919523	192.17	-0.230	-0.410	1.920	191.88	-1.70	2.40	 	 	 	 	 	 	 	 	 	 	 	 	 	 	 	 	 	 	1581472592	11.71	21.69
12/02/2020 01:56:34	120220	12022020	015633	192.10	13.736727	-56.919535	192.45	0.430	-0.730	1.510	192.15	-2.10	2.10	 	 	 	 	 	 	 	 	 	 	 	 	 	 	 	 	 	 	1581472593	11.22	20.78
12/02/2020 01:56:35	120220	12022020	015634	192.23	13.736677	-56.919543	192.50	0.690	-0.700	1.310	192.22	-2.00	1.80	 	 	 	 	 	 	 	 	 	 	 	 	 	 	 	 	 	 	1581472594	10.71	19.83
12/02/2020 01:56:36	120220	12022020	015635	192.02	13.736628	-56.919553	192.24	0.480	-0.560	1.550	191.95	-1.90	2.00	 	 	 	 	 	 	 	 	 	 	 	 	 	 	 	 	 	 	1581472595	10.66	19.74
12/02/2020 01:56:37	120220	12022020	015636	191.73	13.736580	-56.919565	192.00	-0.110	-0.210	1.910	191.70	-1.60	2.40	 	 	 	 	 	 	 	 	 	 	 	 	 	 	 	 	 	 	1581472596	10.54	19.52
12/02/2020 01:56:38	120220	12022020	015637	191.72	13.736535	-56.919578	192.06	-0.710	0.180	2.070	191.75	-1.20	2.50	 	 	 	 	 	 	 	 	 	 	 	 	 	 	 	 	 	 	1581472597	10.35	19.17
12/02/2020 01:56:39	120220	12022020	015638	191.80	13.736488	-56.919595	192.11	-0.850	0.160	2.130	191.79	-1.10	2.60	 	 	 	 	 	 	 	 	 	 	 	 	 	 	 	 	 	 	1581472598	10.66	19.74
12/02/2020 01:56:40	120220	12022020	015639	191.65	13.736437	-56.919612	191.89	-0.260	-0.320	1.980	191.60	-1.60	2.50	 	 	 	 	 	 	 	 	 	 	 	 	 	 	 	 	 	 	1581472599	11.28	20.89
12/02/2020 01:56:41	120220	12022020	015640	191.38	13.736385	-56.919623	191.63	0.640	-0.660	1.640	191.34	-2.00	2.20	 	 	 	 	 	 	 	 	 	 	 	 	 	 	 	 	 	 	1581472600	11.38	21.08
12/02/2020 01:56:42	120220	12022020	015641	191.25	13.736335	-56.919632	191.54	1.150	-0.550	1.360	191.24	-1.90	1.90	 	 	 	 	 	 	 	 	 	 	 	 	 	 	 	 	 	 	1581472601	10.90	20.19
12/02/2020 01:56:43	120220	12022020	015642	191.30	13.736288	-56.919640	191.63	0.930	-0.130	1.340	191.32	-1.50	1.80	 	 	 	 	 	 	 	 	 	 	 	 	 	 	 	 	 	 	1581472602	10.39	19.24
12/02/2020 01:56:44	120220	12022020	015643	191.47	13.736242	-56.919652	191.82	0.270	0.190	1.640	191.51	-1.20	2.10	 	 	 	 	 	 	 	 	 	 	 	 	 	 	 	 	 	 	1581472603	10.24	18.96
12/02/2020 01:56:45	120220	12022020	015644	191.66	13.736195	-56.919665	192.01	-0.340	0.090	2.090	191.70	-1.20	2.50	 	 	 	 	 	 	 	 	 	 	 	 	 	 	 	 	 	 	1581472604	10.60	19.63
12/02/2020 01:56:46	120220	12022020	015645	191.80	13.736145	-56.919682	192.12	-0.610	-0.400	2.380	191.81	-1.60	2.80	 	 	 	 	 	 	 	 	 	 	 	 	 	 	 	 	 	 	1581472605	11.10	20.56
12/02/2020 01:56:47	120220	12022020	015646	191.88	13.736095	-56.919698	192.23	-0.550	-0.790	2.360	191.90	-2.10	2.90	 	 	 	 	 	 	 	 	 	 	 	 	 	 	 	 	 	 	1581472606	11.23	20.80
12/02/2020 01:56:48	120220	12022020	015647	192.09	13.736048	-56.919712	192.44	-0.350	-0.640	2.000	192.12	-2.00	2.60	 	 	 	 	 	 	 	 	 	 	 	 	 	 	 	 	 	 	1581472607	10.63	19.69
12/02/2020 01:56:49	120220	12022020	015648	192.21	13.736000	-56.919722	192.50	-0.160	-0.450	1.600	192.20	-1.80	2.10	 	 	 	 	 	 	 	 	 	 	 	 	 	 	 	 	 	 	1581472608	10.43	19.32
12/02/2020 01:56:50	120220	12022020	015649	192.04	13.735950	-56.919732	192.26	0.030	-0.640	1.410	191.98	-1.90	1.90	 	 	 	 	 	 	 	 	 	 	 	 	 	 	 	 	 	 	1581472609	10.98	20.33
12/02/2020 01:56:51	120220	12022020	015650	191.72	13.735898	-56.919743	191.95	0.230	-0.840	1.380	191.66	-2.20	1.90	 	 	 	 	 	 	 	 	 	 	 	 	 	 	 	 	 	 	1581472610	11.32	20.96
12/02/2020 01:56:52	120220	12022020	015651	191.51	13.735848	-56.919753	191.80	0.340	-0.630	1.410	191.50	-2.00	1.90	 	 	 	 	 	 	 	 	 	 	 	 	 	 	 	 	 	 	1581472611	11.06	20.48
12/02/2020 01:56:53	120220	12022020	015652	191.45	13.735800	-56.919763	191.73	0.280	-0.240	1.550	191.43	-1.60	2.00	 	 	 	 	 	 	 	 	 	 	 	 	 	 	 	 	 	 	1581472612	10.80	20.00
12/02/2020 01:56:54	120220	12022020	015653	191.33	13.735750	-56.919775	191.60	0.090	-0.040	1.910	191.30	-1.40	2.40	 	 	 	 	 	 	 	 	 	 	 	 	 	 	 	 	 	 	1581472613	11.00	20.37
12/02/2020 01:56:55	120220	12022020	015654	191.21	13.735698	-56.919788	191.53	-0.120	-0.030	2.290	191.20	-1.40	2.70	 	 	 	 	 	 	 	 	 	 	 	 	 	 	 	 	 	 	1581472614	11.30	20.93
12/02/2020 01:56:56	120220	12022020	015655	191.22	13.735648	-56.919803	191.56	-0.360	0.080	2.620	191.22	-1.30	3.10	 	 	 	 	 	 	 	 	 	 	 	 	 	 	 	 	 	 	1581472615	11.17	20.69
12/02/2020 01:56:57	120220	12022020	015656	191.23	13.735600	-56.919820	191.57	-0.600	0.270	2.860	191.24	-1.00	3.30	 	 	 	 	 	 	 	 	 	 	 	 	 	 	 	 	 	 	1581472616	10.91	20.21
12/02/2020 01:56:58	120220	12022020	015657	191.28	13.735553	-56.919837	191.63	-0.630	0.350	2.710	191.30	-1.00	3.20	 	 	 	 	 	 	 	 	 	 	 	 	 	 	 	 	 	 	1581472617	10.83	20.06
12/02/2020 01:56:59	120220	12022020	015658	191.42	13.735505	-56.919850	191.79	-0.300	0.310	2.230	191.46	-1.00	2.80	 	 	 	 	 	 	 	 	 	 	 	 	 	 	 	 	 	 	1581472618	10.76	19.93
12/02/2020 01:57:00	120220	12022020	015659	191.76	13.735457	-56.919858	192.20	0.270	0.260	1.300	191.87	-1.10	1.90	 	 	 	 	 	 	 	 	 	 	 	 	 	 	 	 	 	 	1581472619	10.66	19.74
12/02/2020 01:57:01	120220	12022020	015700	192.38	13.735408	-56.919863	192.79	0.700	0.120	0.340	192.49	-1.20	0.90	 	 	 	 	 	 	 	 	 	 	 	 	 	 	 	 	 	 	1581472620	10.43	19.32
12/02/2020 01:57:02	120220	12022020	015701	192.73	13.735358	-56.919870	193.01	0.940	-0.610	0.100	192.73	-1.80	0.60	1017.60	26.00	26.10	20.70	20.80	-1.0	72.0	72.0	399.0	25.6	265.00	9.20	67.00	11.20	15	7778.0	27.2	27.2	1581472621	10.84	20.08
12/02/2020 01:57:03	120220	12022020	015702	192.61	13.735305	-56.919882	192.84	0.960	-1.670	0.600	192.55	-2.80	1.00	 	 	 	 	 	 	 	 	 	 	 	 	 	 	 	 	 	 	1581472622	11.54	21.37
12/02/2020 01:57:04	120220	12022020	015703	192.25	13.735253	-56.919897	192.45	0.680	-2.240	1.610	192.15	-3.50	1.90	 	 	 	 	 	 	 	 	 	 	 	 	 	 	 	 	 	 	1581472623	11.57	21.43
12/02/2020 01:57:05	120220	12022020	015704	191.76	13.735205	-56.919913	192.00	0.110	-1.730	2.520	191.67	-3.20	2.90	 	 	 	 	 	 	 	 	 	 	 	 	 	 	 	 	 	 	1581472624	10.99	20.35
12/02/2020 01:57:06	120220	12022020	015705	191.48	13.735160	-56.919930	191.81	-0.630	-0.380	2.890	191.47	-1.90	3.40	 	 	 	 	 	 	 	 	 	 	 	 	 	 	 	 	 	 	1581472625	10.17	18.83
12/02/2020 01:57:07	120220	12022020	015706	191.56	13.735117	-56.919945	191.96	-1.170	0.820	2.660	191.62	-0.60	3.20	 	 	 	 	 	 	 	 	 	 	 	 	 	 	 	 	 	 	1581472626	10.02	18.56
12/02/2020 01:57:08	120220	12022020	015707	191.88	13.735068	-56.919958	192.26	-1.140	0.990	1.990	191.94	-0.30	2.60	 	 	 	 	 	 	 	 	 	 	 	 	 	 	 	 	 	 	1581472627	10.82	20.04
12/02/2020 01:57:09	120220	12022020	015708	192.11	13.735013	-56.919970	192.42	-0.420	0.110	1.420	192.12	-1.80	1.80	 	 	 	 	 	 	 	 	 	 	 	 	 	 	 	 	 	 	1581472628	12.00	22.22
12/02/2020 01:57:10	120220	12022020	015709	192.08	13.734957	-56.919980	192.37	0.530	-0.830	1.190	192.07	-2.10	1.70	 	 	 	 	 	 	 	 	 	 	 	 	 	 	 	 	 	 	1581472629	12.48	23.11
12/02/2020 01:57:11	120220	12022020	015710	192.10	13.734903	-56.919990	192.45	0.830	-0.640	1.190	192.13	-1.50	1.80	 	 	 	 	 	 	 	 	 	 	 	 	 	 	 	 	 	 	1581472630	11.36	21.04
12/02/2020 01:57:12	120220	12022020	015711	192.31	13.734858	-56.920000	192.68	0.210	0.340	1.460	192.36	-1.10	1.90	 	 	 	 	 	 	 	 	 	 	 	 	 	 	 	 	 	 	1581472631	9.97	18.46
12/02/2020 01:57:13	120220	12022020	015712	192.51	13.734815	-56.920013	192.84	-0.710	0.810	1.880	192.53	-0.50	2.30	 	 	 	 	 	 	 	 	 	 	 	 	 	 	 	 	 	 	1581472632	9.98	18.48
12/02/2020 01:57:14	120220	12022020	015713	192.47	13.734767	-56.920033	192.75	-1.030	0.200	2.430	192.43	-1.00	2.80	 	 	 	 	 	 	 	 	 	 	 	 	 	 	 	 	 	 	1581472633	11.15	20.65
12/02/2020 01:57:15	120220	12022020	015714	192.23	13.734715	-56.920053	192.51	-0.470	-0.760	2.770	192.19	-1.90	3.20	 	 	 	 	 	 	 	 	 	 	 	 	 	 	 	 	 	 	1581472634	11.90	22.04
12/02/2020 01:57:16	120220	12022020	015715	192.10	13.734663	-56.920068	192.42	0.400	-0.950	2.510	192.10	-2.30	3.10	 	 	 	 	 	 	 	 	 	 	 	 	 	 	 	 	 	 	1581472635	11.26	20.85
12/02/2020 01:57:17	120220	12022020	015716	192.14	13.734617	-56.920077	192.48	0.920	-0.450	1.890	192.16	-1.80	2.50	 	 	 	 	 	 	 	 	 	 	 	 	 	 	 	 	 	 	1581472636	10.31	19.09
12/02/2020 01:57:18	120220	12022020	015717	192.23	13.734570	-56.920085	192.55	0.940	-0.100	1.230	192.25	-1.40	1.80	 	 	 	 	 	 	 	 	 	 	 	 	 	 	 	 	 	 	1581472637	10.26	19.00
12/02/2020 01:57:19	120220	12022020	015718	192.29	13.734520	-56.920092	192.59	0.760	-0.290	0.870	192.29	-1.50	1.40	 	 	 	 	 	 	 	 	 	 	 	 	 	 	 	 	 	 	1581472638	10.84	20.08
12/02/2020 01:57:20	120220	12022020	015719	192.27	13.734468	-56.920102	192.55	0.530	-0.650	0.950	192.26	-1.90	1.40	 	 	 	 	 	 	 	 	 	 	 	 	 	 	 	 	 	 	1581472639	11.24	20.82
12/02/2020 01:57:21	120220	12022020	015720	192.18	13.734418	-56.920113	192.45	0.170	-0.760	1.290	192.16	-2.10	1.70	 	 	 	 	 	 	 	 	 	 	 	 	 	 	 	 	 	 	1581472640	11.10	20.56
12/02/2020 01:57:22	120220	12022020	015721	192.06	13.734368	-56.920127	192.34	-0.310	-0.660	1.640	192.04	-2.00	2.10	 	 	 	 	 	 	 	 	 	 	 	 	 	 	 	 	 	 	1581472641	10.97	20.32
12/02/2020 01:57:23	120220	12022020	015722	192.01	13.734320	-56.920142	192.34	-0.730	-0.480	1.820	192.03	-1.80	2.30	 	 	 	 	 	 	 	 	 	 	 	 	 	 	 	 	 	 	1581472642	11.03	20.43
12/02/2020 01:57:24	120220	12022020	015723	192.16	13.734272	-56.920158	192.52	-0.960	-0.260	1.970	192.21	-1.60	2.40	 	 	 	 	 	 	 	 	 	 	 	 	 	 	 	 	 	 	1581472643	11.03	20.43
12/02/2020 01:57:25	120220	12022020	015724	192.35	13.734222	-56.920175	192.66	-0.850	-0.180	1.950	192.36	-1.50	2.40	 	 	 	 	 	 	 	 	 	 	 	 	 	 	 	 	 	 	1581472644	11.11	20.58
12/02/2020 01:57:26	120220	12022020	015725	192.33	13.734172	-56.920190	192.59	-0.370	-0.310	1.670	192.30	-1.60	2.20	 	 	 	 	 	 	 	 	 	 	 	 	 	 	 	 	 	 	1581472645	11.35	21.02
12/02/2020 01:57:27	120220	12022020	015726	192.21	13.734120	-56.920202	192.50	0.230	-0.320	1.220	192.21	-1.60	1.80	 	 	 	 	 	 	 	 	 	 	 	 	 	 	 	 	 	 	1581472646	11.39	21.09
12/02/2020 01:57:28	120220	12022020	015727	192.36	13.734070	-56.920210	192.72	0.460	0.100	0.810	192.42	-1.30	1.40	 	 	 	 	 	 	 	 	 	 	 	 	 	 	 	 	 	 	1581472647	10.77	19.95
12/02/2020 01:57:29	120220	12022020	015728	192.62	13.734022	-56.920220	192.94	0.320	0.350	0.830	192.65	-1.00	1.30	 	 	 	 	 	 	 	 	 	 	 	 	 	 	 	 	 	 	1581472648	10.49	19.43
12/02/2020 01:57:30	120220	12022020	015729	192.55	13.733972	-56.920235	192.77	0.240	-0.100	1.400	192.49	-1.30	1.80	 	 	 	 	 	 	 	 	 	 	 	 	 	 	 	 	 	 	1581472649	11.17	20.69
12/02/2020 01:57:31	120220	12022020	015730	192.16	13.733920	-56.920250	192.38	0.400	-0.570	2.020	192.09	-1.80	2.40	 	 	 	 	 	 	 	 	 	 	 	 	 	 	 	 	 	 	1581472650	11.61	21.50
12/02/2020 01:57:32	120220	12022020	015731	191.94	13.733872	-56.920262	192.27	0.510	-0.280	2.100	191.95	-1.70	2.60	 	 	 	 	 	 	 	 	 	 	 	 	 	 	 	 	 	 	1581472651	10.91	20.21
12/02/2020 01:57:33	120220	12022020	015732	192.14	13.733823	-56.920272	192.53	0.330	0.200	1.710	192.21	-1.10	2.00	 	 	 	 	 	 	 	 	 	 	 	 	 	 	 	 	 	 	1581472652	10.30	19.08
12/02/2020 01:57:34	120220	12022020	015733	192.54	13.733775	-56.920282	192.93	-0.080	0.080	1.550	192.61	-1.20	2.00	 	 	 	 	 	 	 	 	 	 	 	 	 	 	 	 	 	 	1581472653	10.65	19.72
12/02/2020 01:57:35	120220	12022020	015734	192.78	13.733725	-56.920300	193.09	-0.420	-0.690	2.140	192.78	-2.50	3.10	 	 	 	 	 	 	 	 	 	 	 	 	 	 	 	 	 	 	1581472654	11.39	21.09
12/02/2020 01:57:36	120220	12022020	015735	192.60	13.733675	-56.920320	192.83	-0.520	-1.500	3.000	192.52	-2.70	3.40	 	 	 	 	 	 	 	 	 	 	 	 	 	 	 	 	 	 	1581472655	11.86	21.96
12/02/2020 01:57:37	120220	12022020	015736	192.10	13.733625	-56.920342	192.28	-0.410	-1.600	3.570	191.98	-3.00	4.00	 	 	 	 	 	 	 	 	 	 	 	 	 	 	 	 	 	 	1581472656	11.49	21.28
12/02/2020 01:57:38	120220	12022020	015737	191.41	13.733578	-56.920358	191.58	-0.180	-0.940	3.670	191.28	-2.40	4.20	 	 	 	 	 	 	 	 	 	 	 	 	 	 	 	 	 	 	1581472657	10.78	19.96
12/02/2020 01:57:39	120220	12022020	015738	190.86	13.733530	-56.920370	191.14	0.010	0.060	3.270	190.81	-1.40	3.90	 	 	 	 	 	 	 	 	 	 	 	 	 	 	 	 	 	 	1581472658	10.38	19.22
12/02/2020 01:57:40	120220	12022020	015739	190.82	13.733483	-56.920378	191.18	0.090	0.760	2.450	190.86	-0.60	3.10	 	 	 	 	 	 	 	 	 	 	 	 	 	 	 	 	 	 	1581472659	10.41	19.28
12/02/2020 01:57:41	120220	12022020	015740	191.07	13.733433	-56.920387	191.43	0.200	0.720	1.690	191.14	-0.60	2.30	 	 	 	 	 	 	 	 	 	 	 	 	 	 	 	 	 	 	1581472660	10.97	20.32
12/02/2020 01:57:42	120220	12022020	015741	191.45	13.733380	-56.920395	191.84	0.520	0.230	1.250	191.54	-1.00	1.80	 	 	 	 	 	 	 	 	 	 	 	 	 	 	 	 	 	 	1581472661	11.41	21.13
12/02/2020 01:57:43	120220	12022020	015742	191.97	13.733328	-56.920403	192.37	0.830	-0.360	1.110	192.08	-1.60	1.60	 	 	 	 	 	 	 	 	 	 	 	 	 	 	 	 	 	 	1581472662	11.40	21.11
12/02/2020 01:57:44	120220	12022020	015743	192.47	13.733277	-56.920413	192.84	0.790	-0.900	1.440	192.54	-2.20	1.90	 	 	 	 	 	 	 	 	 	 	 	 	 	 	 	 	 	 	1581472663	11.28	20.89
12/02/2020 01:57:45	120220	12022020	015744	192.65	13.733227	-56.920428	192.93	0.310	-1.250	2.280	192.62	-2.50	2.60	 	 	 	 	 	 	 	 	 	 	 	 	 	 	 	 	 	 	1581472664	11.16	20.67
12/02/2020 01:57:46	120220	12022020	015745	192.41	13.733178	-56.920445	192.66	-0.410	-1.210	3.220	192.34	-2.60	3.60	 	 	 	 	 	 	 	 	 	 	 	 	 	 	 	 	 	 	1581472665	11.11	20.58
12/02/2020 01:57:47	120220	12022020	015746	192.22	13.733132	-56.920465	192.56	-1.110	-0.620	3.520	192.22	-1.60	3.90	 	 	 	 	 	 	 	 	 	 	 	 	 	 	 	 	 	 	1581472666	10.79	19.98
12/02/2020 01:57:48	120220	12022020	015747	192.29	13.733087	-56.920482	192.66	-1.420	0.100	3.260	192.32	-1.30	3.80	 	 	 	 	 	 	 	 	 	 	 	 	 	 	 	 	 	 	1581472667	10.47	19.39
12/02/2020 01:57:49	120220	12022020	015748	192.40	13.733037	-56.920497	192.70	-1.040	0.240	2.480	192.40	-1.30	2.50	 	 	 	 	 	 	 	 	 	 	 	 	 	 	 	 	 	 	1581472668	10.93	20.24
12/02/2020 01:57:50	120220	12022020	015749	192.28	13.732983	-56.920508	192.50	-0.120	-0.210	1.600	192.23	-1.50	2.20	 	 	 	 	 	 	 	 	 	 	 	 	 	 	 	 	 	 	1581472669	11.73	21.72
12/02/2020 01:57:51	120220	12022020	015750	192.01	13.732930	-56.920518	192.24	0.750	-0.470	1.050	191.98	-1.80	1.60	 	 	 	 	 	 	 	 	 	 	 	 	 	 	 	 	 	 	1581472670	11.80	21.85
12/02/2020 01:57:52	120220	12022020	015751	191.96	13.732880	-56.920525	192.28	0.960	0.090	0.700	192.00	-1.40	1.20	 	 	 	 	 	 	 	 	 	 	 	 	 	 	 	 	 	 	1581472671	10.85	20.09
12/02/2020 01:57:53	120220	12022020	015752	192.29	13.732835	-56.920533	192.68	0.470	0.920	0.580	192.39	-0.50	1.10	 	 	 	 	 	 	 	 	 	 	 	 	 	 	 	 	 	 	1581472672	9.89	18.32
12/02/2020 01:57:54	120220	12022020	015753	192.81	13.732788	-56.920545	193.22	-0.170	0.990	0.790	192.92	-0.30	1.30	 	 	 	 	 	 	 	 	 	 	 	 	 	 	 	 	 	 	1581472673	10.11	18.72
12/02/2020 01:57:55	120220	12022020	015754	193.29	13.732740	-56.920562	193.67	-0.250	0.010	0.990	193.37	-1.10	1.50	 	 	 	 	 	 	 	 	 	 	 	 	 	 	 	 	 	 	1581472674	11.10	20.56
12/02/2020 01:57:56	120220	12022020	015755	193.51	13.732688	-56.920577	193.77	0.290	-1.350	1.290	193.49	-2.50	1.70	 	 	 	 	 	 	 	 	 	 	 	 	 	 	 	 	 	 	1581472675	11.74	21.74
12/02/2020 01:57:57	120220	12022020	015756	193.14	13.732635	-56.920593	193.30	0.850	-2.240	1.870	193.01	-3.50	2.30	 	 	 	 	 	 	 	 	 	 	 	 	 	 	 	 	 	 	1581472676	11.78	21.82
12/02/2020 01:57:58	120220	12022020	015757	192.65	13.732585	-56.920607	192.92	0.700	-1.880	2.180	192.60	-3.30	2.60	 	 	 	 	 	 	 	 	 	 	 	 	 	 	 	 	 	 	1581472677	10.99	20.35
12/02/2020 01:57:59	120220	12022020	015758	192.61	13.732542	-56.920620	193.00	-0.200	-0.560	2.240	192.65	-1.20	2.70	 	 	 	 	 	 	 	 	 	 	 	 	 	 	 	 	 	 	1581472678	9.97	18.46
12/02/2020 01:58:00	120220	12022020	015759	192.84	13.732497	-56.920635	193.21	-1.080	0.540	2.160	192.88	-0.90	2.70	 	 	 	 	 	 	 	 	 	 	 	 	 	 	 	 	 	 	1581472679	9.96	18.45
12/02/2020 01:58:01	120220	12022020	015800	192.93	13.732448	-56.920652	193.24	-1.230	0.630	2.080	192.93	-1.00	2.50	 	 	 	 	 	 	 	 	 	 	 	 	 	 	 	 	 	 	1581472680	10.99	20.35
12/02/2020 01:58:02	120220	12022020	015801	192.86	13.732395	-56.920668	193.15	-0.630	0.000	1.910	192.84	-1.20	2.40	1017.60	26.00	26.10	20.90	21.00	-1.0	73.0	73.0	396.0	25.6	266.00	8.70	66.00	10.80	16	8467.0	27.2	27.2	1581472681	11.96	22.15
12/02/2020 01:58:03	120220	12022020	015802	192.72	13.732342	-56.920682	193.00	0.130	-0.530	1.720	192.70	-1.80	2.30	 	 	 	 	 	 	 	 	 	 	 	 	 	 	 	 	 	 	1581472682	12.05	22.32
12/02/2020 01:58:04	120220	12022020	015803	192.61	13.732290	-56.920693	192.92	0.520	-0.430	1.490	192.61	-1.80	2.00	 	 	 	 	 	 	 	 	 	 	 	 	 	 	 	 	 	 	1581472683	11.37	21.06
12/02/2020 01:58:05	120220	12022020	015804	192.68	13.732242	-56.920703	193.02	0.440	0.110	1.270	192.71	-1.30	1.80	 	 	 	 	 	 	 	 	 	 	 	 	 	 	 	 	 	 	1581472684	10.58	19.59
12/02/2020 01:58:06	120220	12022020	015805	192.82	13.732195	-56.920715	193.14	0.160	0.470	1.290	192.84	-0.90	1.80	 	 	 	 	 	 	 	 	 	 	 	 	 	 	 	 	 	 	1581472685	10.39	19.24
12/02/2020 01:58:07	120220	12022020	015806	192.82	13.732145	-56.920728	193.08	0.040	0.240	1.720	192.78	-1.00	2.10	 	 	 	 	 	 	 	 	 	 	 	 	 	 	 	 	 	 	1581472686	10.83	20.06
12/02/2020 01:58:08	120220	12022020	015807	192.55	13.732095	-56.920745	192.77	0.190	-0.470	2.160	192.47	-1.70	2.60	 	 	 	 	 	 	 	 	 	 	 	 	 	 	 	 	 	 	1581472687	11.49	21.28
12/02/2020 01:58:09	120220	12022020	015808	192.25	13.732043	-56.920758	192.54	0.370	-0.910	2.200	192.21	-2.20	2.70	 	 	 	 	 	 	 	 	 	 	 	 	 	 	 	 	 	 	1581472688	11.54	21.37
12/02/2020 01:58:10	120220	12022020	015809	192.28	13.731995	-56.920772	192.67	0.240	-0.580	2.000	192.34	-2.00	2.50	 	 	 	 	 	 	 	 	 	 	 	 	 	 	 	 	 	 	1581472689	10.74	19.89
12/02/2020 01:58:11	120220	12022020	015810	192.68	13.731950	-56.920783	193.10	-0.200	0.150	1.690	192.78	-1.30	2.20	 	 	 	 	 	 	 	 	 	 	 	 	 	 	 	 	 	 	1581472690	9.94	18.41
12/02/2020 01:58:12	120220	12022020	015811	193.09	13.731903	-56.920797	193.43	-0.540	0.240	1.570	193.13	-1.00	2.10	 	 	 	 	 	 	 	 	 	 	 	 	 	 	 	 	 	 	1581472691	10.24	18.96
12/02/2020 01:58:13	120220	12022020	015812	193.14	13.731852	-56.920812	193.38	-0.380	-0.680	1.820	193.09	-1.80	2.30	 	 	 	 	 	 	 	 	 	 	 	 	 	 	 	 	 	 	1581472692	11.52	21.34
12/02/2020 01:58:14	120220	12022020	015813	192.84	13.731798	-56.920830	193.07	0.140	-1.650	2.110	192.78	-2.90	2.60	 	 	 	 	 	 	 	 	 	 	 	 	 	 	 	 	 	 	1581472693	12.27	22.72
12/02/2020 01:58:15	120220	12022020	015814	192.70	13.731748	-56.920843	193.04	0.370	-1.330	2.070	192.73	-2.80	2.60	 	 	 	 	 	 	 	 	 	 	 	 	 	 	 	 	 	 	1581472694	11.27	20.87
12/02/2020 01:58:16	120220	12022020	015815	193.00	13.731703	-56.920855	193.38	0.080	0.010	1.670	193.07	-1.50	2.20	 	 	 	 	 	 	 	 	 	 	 	 	 	 	 	 	 	 	1581472695	9.80	18.15
12/02/2020 01:58:17	120220	12022020	015816	193.22	13.731658	-56.920867	193.47	-0.190	0.630	1.260	193.20	-0.70	1.80	 	 	 	 	 	 	 	 	 	 	 	 	 	 	 	 	 	 	1581472696	10.01	18.54
12/02/2020 01:58:18	120220	12022020	015817	192.92	13.731605	-56.920878	193.09	0.160	-0.200	1.200	192.82	-1.40	1.70	 	 	 	 	 	 	 	 	 	 	 	 	 	 	 	 	 	 	1581472697	11.85	21.95
12/02/2020 01:58:19	120220	12022020	015818	192.64	13.731548	-56.920890	192.94	0.610	-0.700	1.220	192.65	-2.00	1.70	 	 	 	 	 	 	 	 	 	 	 	 	 	 	 	 	 	 	1581472698	12.22	22.63
12/02/2020 01:58:20	120220	12022020	015819	192.80	13.731500	-56.920900	193.14	0.430	-0.080	1.210	192.85	-1.50	1.70	 	 	 	 	 	 	 	 	 	 	 	 	 	 	 	 	 	 	1581472699	10.70	19.82
12/02/2020 01:58:21	120220	12022020	015820	192.94	13.731455	-56.920915	193.22	-0.280	0.510	1.540	192.93	-0.90	2.00	 	 	 	 	 	 	 	 	 	 	 	 	 	 	 	 	 	 	1581472700	10.12	18.74
12/02/2020 01:58:22	120220	12022020	015821	192.84	13.731408	-56.920933	193.13	-0.820	0.360	2.170	192.82	-0.90	2.60	 	 	 	 	 	 	 	 	 	 	 	 	 	 	 	 	 	 	1581472701	10.91	20.21
12/02/2020 01:58:23	120220	12022020	015822	192.87	13.731358	-56.920953	193.23	-0.840	0.020	2.490	192.91	-1.40	3.00	 	 	 	 	 	 	 	 	 	 	 	 	 	 	 	 	 	 	1581472702	11.27	20.87
12/02/2020 01:58:24	120220	12022020	015823	193.10	13.731312	-56.920972	193.46	-0.450	-0.240	2.400	193.14	-1.50	2.90	 	 	 	 	 	 	 	 	 	 	 	 	 	 	 	 	 	 	1581472703	10.97	20.32
12/02/2020 01:58:25	120220	12022020	015824	193.17	13.731262	-56.920987	193.44	0.200	-0.660	2.110	193.14	-2.20	2.40	 	 	 	 	 	 	 	 	 	 	 	 	 	 	 	 	 	 	1581472704	11.02	20.41
12/02/2020 01:58:26	120220	12022020	015825	192.88	13.731210	-56.920998	193.11	0.910	-1.090	1.750	192.82	-2.40	2.30	 	 	 	 	 	 	 	 	 	 	 	 	 	 	 	 	 	 	1581472705	11.34	21.00
12/02/2020 01:58:27	120220	12022020	015826	192.67	13.731160	-56.921007	193.00	1.120	-0.830	1.390	192.68	-2.30	1.90	 	 	 	 	 	 	 	 	 	 	 	 	 	 	 	 	 	 	1581472706	10.93	20.24
12/02/2020 01:58:28	120220	12022020	015827	192.82	13.731115	-56.921015	193.17	0.590	-0.070	1.120	192.86	-1.50	1.70	 	 	 	 	 	 	 	 	 	 	 	 	 	 	 	 	 	 	1581472707	10.08	18.67
12/02/2020 01:58:29	120220	12022020	015828	192.88	13.731067	-56.921027	193.13	-0.160	0.100	1.290	192.84	-1.20	1.70	 	 	 	 	 	 	 	 	 	 	 	 	 	 	 	 	 	 	1581472708	10.36	19.19
12/02/2020 01:58:30	120220	12022020	015829	192.61	13.731017	-56.921043	192.85	-0.580	-0.490	1.910	192.55	-1.70	2.30	 	 	 	 	 	 	 	 	 	 	 	 	 	 	 	 	 	 	1581472709	11.49	21.28
12/02/2020 01:58:31	120220	12022020	015830	192.40	13.730965	-56.921063	192.71	-0.500	-0.990	2.380	192.39	-2.30	2.80	 	 	 	 	 	 	 	 	 	 	 	 	 	 	 	 	 	 	1581472710	11.83	21.91
12/02/2020 01:58:32	120220	12022020	015831	192.40	13.730915	-56.921080	192.74	-0.160	-0.890	2.440	192.41	-2.30	2.90	 	 	 	 	 	 	 	 	 	 	 	 	 	 	 	 	 	 	1581472711	11.26	20.85
12/02/2020 01:58:33	120220	12022020	015832	192.38	13.730867	-56.921093	192.68	0.150	-0.430	2.370	192.36	-1.80	2.90	 	 	 	 	 	 	 	 	 	 	 	 	 	 	 	 	 	 	1581472712	10.82	20.04
12/02/2020 01:58:34	120220	12022020	015833	192.25	13.730818	-56.921105	192.54	0.200	0.070	2.270	192.23	-1.30	2.80	 	 	 	 	 	 	 	 	 	 	 	 	 	 	 	 	 	 	1581472713	10.76	19.93
12/02/2020 01:58:35	120220	12022020	015834	192.23	13.730770	-56.921117	192.58	-0.020	0.460	2.050	192.26	-0.80	2.50	 	 	 	 	 	 	 	 	 	 	 	 	 	 	 	 	 	 	1581472714	10.75	19.91
12/02/2020 01:58:36	120220	12022020	015835	192.43	13.730720	-56.921128	192.80	-0.340	0.510	1.890	192.49	-0.80	2.40	 	 	 	 	 	 	 	 	 	 	 	 	 	 	 	 	 	 	1581472715	10.87	20.13
12/02/2020 01:58:37	120220	12022020	015836	192.70	13.730670	-56.921143	193.08	-0.530	0.150	1.870	192.76	-1.40	2.40	 	 	 	 	 	 	 	 	 	 	 	 	 	 	 	 	 	 	1581472716	11.16	20.67
12/02/2020 01:58:38	120220	12022020	015837	193.01	13.730620	-56.921158	193.39	-0.460	-0.240	1.870	193.07	-1.50	2.40	 	 	 	 	 	 	 	 	 	 	 	 	 	 	 	 	 	 	1581472717	11.18	20.71
12/02/2020 01:58:39	120220	12022020	015838	193.28	13.730573	-56.921175	193.61	-0.070	-0.380	1.720	193.32	-1.80	2.10	 	 	 	 	 	 	 	 	 	 	 	 	 	 	 	 	 	 	1581472718	10.83	20.06
12/02/2020 01:58:40	120220	12022020	015839	193.34	13.730523	-56.921185	193.60	0.580	-0.500	1.400	193.33	-1.80	2.00	 	 	 	 	 	 	 	 	 	 	 	 	 	 	 	 	 	 	1581472719	10.74	19.89
12/02/2020 01:58:41	120220	12022020	015840	193.17	13.730473	-56.921193	193.38	1.130	-0.810	1.140	193.11	-2.10	1.70	 	 	 	 	 	 	 	 	 	 	 	 	 	 	 	 	 	 	1581472720	11.08	20.52
12/02/2020 01:58:42	120220	12022020	015841	192.85	13.730422	-56.921202	193.10	1.150	-1.100	1.350	192.81	-2.40	1.80	 	 	 	 	 	 	 	 	 	 	 	 	 	 	 	 	 	 	1581472721	11.39	21.09
12/02/2020 01:58:43	120220	12022020	015842	192.73	13.730370	-56.921215	193.07	0.460	-0.960	1.960	192.74	-2.30	2.40	 	 	 	 	 	 	 	 	 	 	 	 	 	 	 	 	 	 	1581472722	11.13	20.61
12/02/2020 01:58:44	120220	12022020	015843	192.84	13.730325	-56.921233	193.23	-0.600	-0.310	2.670	192.89	-1.80	3.10	 	 	 	 	 	 	 	 	 	 	 	 	 	 	 	 	 	 	1581472723	10.68	19.78
12/02/2020 01:58:45	120220	12022020	015844	193.07	13.730280	-56.921255	193.46	-1.320	0.340	3.110	193.11	-1.10	3.60	 	 	 	 	 	 	 	 	 	 	 	 	 	 	 	 	 	 	1581472724	10.53	19.50
12/02/2020 01:58:46	120220	12022020	015845	193.28	13.730232	-56.921273	193.66	-1.240	0.420	2.860	193.32	-0.90	3.40	 	 	 	 	 	 	 	 	 	 	 	 	 	 	 	 	 	 	1581472725	10.91	20.21
12/02/2020 01:58:47	120220	12022020	015846	193.45	13.730182	-56.921288	193.78	-0.550	-0.040	2.240	193.47	-1.30	2.80	 	 	 	 	 	 	 	 	 	 	 	 	 	 	 	 	 	 	1581472726	11.46	21.22
12/02/2020 01:58:48	120220	12022020	015847	193.44	13.730128	-56.921300	193.72	0.200	-0.670	1.650	193.43	-1.90	2.20	 	 	 	 	 	 	 	 	 	 	 	 	 	 	 	 	 	 	1581472727	11.76	21.78
12/02/2020 01:58:49	120220	12022020	015848	193.40	13.730075	-56.921312	193.69	0.640	-0.940	1.090	193.40	-2.20	1.30	 	 	 	 	 	 	 	 	 	 	 	 	 	 	 	 	 	 	1581472728	11.56	21.41
12/02/2020 01:58:50	120220	12022020	015849	193.42	13.730027	-56.921322	193.71	0.740	-0.510	0.630	193.43	-1.90	1.20	 	 	 	 	 	 	 	 	 	 	 	 	 	 	 	 	 	 	1581472729	10.86	20.11
12/02/2020 01:58:51	120220	12022020	015850	193.47	13.729978	-56.921332	193.75	0.630	0.300	0.500	193.48	-0.70	1.10	 	 	 	 	 	 	 	 	 	 	 	 	 	 	 	 	 	 	1581472730	10.26	19.00
12/02/2020 01:58:52	120220	12022020	015851	193.56	13.729932	-56.921340	193.88	0.340	0.810	0.630	193.59	-0.60	1.10	 	 	 	 	 	 	 	 	 	 	 	 	 	 	 	 	 	 	1581472731	10.27	19.02
12/02/2020 01:58:53	120220	12022020	015852	193.70	13.729883	-56.921353	194.00	-0.040	0.440	0.980	193.71	-0.80	1.40	 	 	 	 	 	 	 	 	 	 	 	 	 	 	 	 	 	 	1581472732	10.87	20.13
12/02/2020 01:58:54	120220	12022020	015853	193.53	13.729830	-56.921370	193.73	-0.280	-0.780	1.800	193.43	-1.90	2.20	 	 	 	 	 	 	 	 	 	 	 	 	 	 	 	 	 	 	1581472733	11.88	22.00
12/02/2020 01:58:55	120220	12022020	015854	192.93	13.729777	-56.921392	193.11	-0.270	-1.870	2.760	192.80	-3.10	3.10	 	 	 	 	 	 	 	 	 	 	 	 	 	 	 	 	 	 	1581472734	12.37	22.91
12/02/2020 01:58:56	120220	12022020	015855	192.31	13.729727	-56.921410	192.52	-0.230	-1.760	3.230	192.20	-3.20	3.70	 	 	 	 	 	 	 	 	 	 	 	 	 	 	 	 	 	 	1581472735	11.51	21.32
12/02/2020 01:58:57	120220	12022020	015856	191.82	13.729680	-56.921425	192.07	-0.310	-0.740	3.170	191.75	-2.20	3.70	 	 	 	 	 	 	 	 	 	 	 	 	 	 	 	 	 	 	1581472736	10.45	19.35
12/02/2020 01:58:58	120220	12022020	015857	191.56	13.729633	-56.921438	191.87	-0.420	0.210	2.700	191.55	-1.20	3.30	 	 	 	 	 	 	 	 	 	 	 	 	 	 	 	 	 	 	1581472737	10.36	19.19
12/02/2020 01:58:59	120220	12022020	015858	191.59	13.729585	-56.921452	191.95	-0.390	0.530	2.110	191.63	-0.80	2.70	 	 	 	 	 	 	 	 	 	 	 	 	 	 	 	 	 	 	1581472738	10.91	20.21
12/02/2020 01:59:00	120220	12022020	015859	191.95	13.729533	-56.921465	192.39	-0.130	0.490	1.540	192.06	-0.80	2.10	 	 	 	 	 	 	 	 	 	 	 	 	 	 	 	 	 	 	1581472739	11.29	20.91
12/02/2020 01:59:01	120220	12022020	015900	192.59	13.729483	-56.921475	193.03	0.280	0.520	1.060	192.72	-0.80	1.60	 	 	 	 	 	 	 	 	 	 	 	 	 	 	 	 	 	 	1581472740	10.98	20.33
12/02/2020 01:59:02	120220	12022020	015901	193.11	13.729435	-56.921485	193.44	0.710	0.270	0.890	193.16	-1.00	1.40	1017.60	26.00	26.00	21.20	21.20	-1.0	74.0	74.0	392.0	25.6	265.00	8.50	66.00	10.70	15	7629.0	27.2	27.2	1581472741	10.86	20.11
12/02/2020 01:59:03	120220	12022020	015902	193.22	13.729382	-56.921495	193.52	0.930	-0.490	1.110	193.23	-1.70	1.60	 	 	 	 	 	 	 	 	 	 	 	 	 	 	 	 	 	 	1581472742	11.41	21.13
12/02/2020 01:59:04	120220	12022020	015903	193.32	13.729330	-56.921505	193.64	0.660	-1.120	1.390	193.34	-2.40	1.90	 	 	 	 	 	 	 	 	 	 	 	 	 	 	 	 	 	 	1581472743	11.48	21.26
12/02/2020 01:59:05	120220	12022020	015904	193.37	13.729280	-56.921520	193.63	-0.010	-1.270	1.850	193.34	-2.60	2.30	 	 	 	 	 	 	 	 	 	 	 	 	 	 	 	 	 	 	1581472744	11.03	20.43
12/02/2020 01:59:06	120220	12022020	015905	193.12	13.729233	-56.921538	193.34	-0.560	-1.120	2.380	193.04	-2.50	2.80	 	 	 	 	 	 	 	 	 	 	 	 	 	 	 	 	 	 	1581472745	10.95	20.28
12/02/2020 01:59:07	120220	12022020	015906	192.74	13.729185	-56.921555	192.96	-0.600	-0.740	2.500	192.67	-2.20	3.00	 	 	 	 	 	 	 	 	 	 	 	 	 	 	 	 	 	 	1581472746	10.96	20.30
12/02/2020 01:59:08	120220	12022020	015907	192.43	13.729135	-56.921570	192.67	-0.280	-0.300	2.210	192.38	-1.70	2.80	 	 	 	 	 	 	 	 	 	 	 	 	 	 	 	 	 	 	1581472747	10.98	20.33
12/02/2020 01:59:09	120220	12022020	015908	192.35	13.729085	-56.921580	192.67	-0.040	0.070	1.700	192.37	-1.30	2.30	 	 	 	 	 	 	 	 	 	 	 	 	 	 	 	 	 	 	1581472748	11.07	20.50
12/02/2020 01:59:10	120220	12022020	015909	192.54	13.729035	-56.921592	192.92	-0.070	0.300	1.300	192.61	-1.10	1.90	 	 	 	 	 	 	 	 	 	 	 	 	 	 	 	 	 	 	1581472749	11.07	20.50
12/02/2020 01:59:11	120220	12022020	015910	192.93	13.728985	-56.921605	193.32	-0.220	0.400	1.220	193.02	-1.00	1.70	 	 	 	 	 	 	 	 	 	 	 	 	 	 	 	 	 	 	1581472750	11.01	20.39
12/02/2020 01:59:12	120220	12022020	015911	193.45	13.728937	-56.921618	193.88	-0.230	0.400	1.230	193.58	-1.00	1.70	 	 	 	 	 	 	 	 	 	 	 	 	 	 	 	 	 	 	1581472751	10.95	20.28
12/02/2020 01:59:13	120220	12022020	015912	194.12	13.728888	-56.921633	194.56	-0.160	0.220	1.390	194.25	-1.40	2.00	 	 	 	 	 	 	 	 	 	 	 	 	 	 	 	 	 	 	1581472752	10.81	20.02
12/02/2020 01:59:14	120220	12022020	015913	194.61	13.728838	-56.921650	194.96	0.000	-0.440	1.610	194.66	-1.70	2.10	 	 	 	 	 	 	 	 	 	 	 	 	 	 	 	 	 	 	1581472753	11.16	20.67
12/02/2020 01:59:15	120220	12022020	015914	194.59	13.728788	-56.921668	194.80	0.340	-1.290	1.800	194.51	-2.50	2.30	 	 	 	 	 	 	 	 	 	 	 	 	 	 	 	 	 	 	1581472754	11.59	21.46
12/02/2020 01:59:16	120220	12022020	015915	194.14	13.728737	-56.921682	194.33	0.730	-1.450	1.790	194.05	-2.90	2.30	 	 	 	 	 	 	 	 	 	 	 	 	 	 	 	 	 	 	1581472755	11.37	21.06
12/02/2020 01:59:17	120220	12022020	015916	193.77	13.728688	-56.921690	193.99	0.800	-0.730	1.410	193.72	-2.20	2.00	 	 	 	 	 	 	 	 	 	 	 	 	 	 	 	 	 	 	1581472756	10.55	19.54
12/02/2020 01:59:18	120220	12022020	015917	193.57	13.728642	-56.921698	193.81	0.450	-0.010	0.960	193.55	-1.50	1.50	 	 	 	 	 	 	 	 	 	 	 	 	 	 	 	 	 	 	1581472757	10.39	19.24
12/02/2020 01:59:19	120220	12022020	015918	193.47	13.728592	-56.921710	193.73	-0.070	0.120	0.850	193.45	-1.20	1.40	 	 	 	 	 	 	 	 	 	 	 	 	 	 	 	 	 	 	1581472758	11.00	20.37
12/02/2020 01:59:20	120220	12022020	015919	193.36	13.728540	-56.921725	193.61	-0.480	-0.160	1.240	193.33	-1.50	1.70	 	 	 	 	 	 	 	 	 	 	 	 	 	 	 	 	 	 	1581472759	11.57	21.43
12/02/2020 01:59:21	120220	12022020	015920	193.22	13.728488	-56.921745	193.48	-0.700	-0.400	1.760	193.18	-1.70	2.20	 	 	 	 	 	 	 	 	 	 	 	 	 	 	 	 	 	 	1581472760	11.66	21.59
12/02/2020 01:59:22	120220	12022020	015921	193.07	13.728438	-56.921765	193.34	-0.740	-0.530	2.280	193.04	-1.90	2.70	 	 	 	 	 	 	 	 	 	 	 	 	 	 	 	 	 	 	1581472761	11.58	21.45
12/02/2020 01:59:23	120220	12022020	015922	192.93	13.728388	-56.921785	193.19	-0.580	-0.500	2.590	192.90	-1.90	3.10	 	 	 	 	 	 	 	 	 	 	 	 	 	 	 	 	 	 	1581472762	11.43	21.17
12/02/2020 01:59:24	120220	12022020	015923	192.78	13.728340	-56.921802	193.06	-0.300	-0.250	2.490	192.76	-1.60	3.00	 	 	 	 	 	 	 	 	 	 	 	 	 	 	 	 	 	 	1581472763	11.15	20.65
12/02/2020 01:59:25	120220	12022020	015924	192.75	13.728292	-56.921813	193.07	-0.050	0.190	1.950	192.77	-1.20	2.60	 	 	 	 	 	 	 	 	 	 	 	 	 	 	 	 	 	 	1581472764	10.79	19.98
12/02/2020 01:59:26	120220	12022020	015925	193.03	13.728243	-56.921823	193.44	0.060	0.570	1.240	193.14	-0.80	1.90	 	 	 	 	 	 	 	 	 	 	 	 	 	 	 	 	 	 	1581472765	10.58	19.59
12/02/2020 01:59:27	120220	12022020	015926	193.61	13.728195	-56.921832	194.04	0.090	0.610	0.610	193.73	-0.90	1.00	 	 	 	 	 	 	 	 	 	 	 	 	 	 	 	 	 	 	1581472766	10.58	19.59
12/02/2020 01:59:28	120220	12022020	015927	194.12	13.728145	-56.921843	194.48	0.270	0.110	0.430	194.18	-1.10	0.90	 	 	 	 	 	 	 	 	 	 	 	 	 	 	 	 	 	 	1581472767	10.92	20.22
12/02/2020 01:59:29	120220	12022020	015928	194.26	13.728093	-56.921855	194.54	0.650	-0.810	0.780	194.25	-2.00	1.20	 	 	 	 	 	 	 	 	 	 	 	 	 	 	 	 	 	 	1581472768	11.43	21.17
12/02/2020 01:59:30	120220	12022020	015929	194.06	13.728040	-56.921868	194.29	0.990	-1.570	1.370	193.99	-2.80	1.80	 	 	 	 	 	 	 	 	 	 	 	 	 	 	 	 	 	 	1581472769	11.61	21.50
12/02/2020 01:59:31	120220	12022020	015930	193.60	13.727988	-56.921882	193.82	0.950	-1.720	1.980	193.49	-3.10	2.40	 	 	 	 	 	 	 	 	 	 	 	 	 	 	 	 	 	 	1581472770	11.37	21.06
12/02/2020 01:59:32	120220	12022020	015931	193.22	13.727942	-56.921897	193.52	0.380	-1.070	2.350	193.18	-2.50	2.80	 	 	 	 	 	 	 	 	 	 	 	 	 	 	 	 	 	 	1581472771	10.82	20.04
12/02/2020 01:59:33	120220	12022020	015932	193.12	13.727895	-56.921912	193.47	-0.470	-0.010	2.490	193.13	-1.50	3.00	 	 	 	 	 	 	 	 	 	 	 	 	 	 	 	 	 	 	1581472772	10.37	19.21
12/02/2020 01:59:34	120220	12022020	015933	193.18	13.727848	-56.921928	193.53	-1.100	0.640	2.470	193.20	-0.70	3.00	 	 	 	 	 	 	 	 	 	 	 	 	 	 	 	 	 	 	1581472773	10.60	19.63
12/02/2020 01:59:35	120220	12022020	015934	193.25	13.727798	-56.921947	193.57	-1.270	0.420	2.450	193.26	-0.80	3.00	 	 	 	 	 	 	 	 	 	 	 	 	 	 	 	 	 	 	1581472774	11.53	21.35
12/02/2020 01:59:36	120220	12022020	015935	193.31	13.727745	-56.921967	193.65	-0.940	-0.240	2.230	193.33	-1.50	2.80	 	 	 	 	 	 	 	 	 	 	 	 	 	 	 	 	 	 	1581472775	12.15	22.50
12/02/2020 01:59:37	120220	12022020	015936	193.53	13.727693	-56.921983	193.91	-0.320	-0.330	1.670	193.61	-1.70	2.30	 	 	 	 	 	 	 	 	 	 	 	 	 	 	 	 	 	 	1581472776	11.59	21.46
12/02/2020 01:59:38	120220	12022020	015937	193.93	13.727645	-56.921993	194.29	0.260	0.070	0.940	194.00	-1.30	1.60	 	 	 	 	 	 	 	 	 	 	 	 	 	 	 	 	 	 	1581472777	10.65	19.72
12/02/2020 01:59:39	120220	12022020	015938	194.21	13.727597	-56.922002	194.52	0.530	0.120	0.530	194.24	-1.40	1.00	 	 	 	 	 	 	 	 	 	 	 	 	 	 	 	 	 	 	1581472778	10.72	19.85
12/02/2020 01:59:40	120220	12022020	015939	194.32	13.727545	-56.922013	194.60	0.520	-0.330	0.610	194.32	-1.60	1.10	 	 	 	 	 	 	 	 	 	 	 	 	 	 	 	 	 	 	1581472779	11.20	20.74
12/02/2020 01:59:41	120220	12022020	015940	194.27	13.727495	-56.922027	194.52	0.360	-0.690	0.970	194.25	-2.00	1.40	 	 	 	 	 	 	 	 	 	 	 	 	 	 	 	 	 	 	1581472780	11.29	20.91
12/02/2020 01:59:42	120220	12022020	015941	194.18	13.727445	-56.922040	194.47	0.190	-0.610	1.240	194.19	-2.00	1.70	 	 	 	 	 	 	 	 	 	 	 	 	 	 	 	 	 	 	1581472781	10.93	20.24
12/02/2020 01:59:43	120220	12022020	015942	194.22	13.727398	-56.922053	194.51	0.090	-0.350	1.300	194.23	-1.70	1.80	 	 	 	 	 	 	 	 	 	 	 	 	 	 	 	 	 	 	1581472782	10.66	19.74
12/02/2020 01:59:44	120220	12022020	015943	194.25	13.727348	-56.922067	194.54	0.160	-0.320	1.220	194.26	-1.60	1.70	 	 	 	 	 	 	 	 	 	 	 	 	 	 	 	 	 	 	1581472783	10.92	20.22
12/02/2020 01:59:45	120220	12022020	015944	194.29	13.727298	-56.922080	194.57	0.230	-0.490	1.240	194.29	-1.80	1.70	 	 	 	 	 	 	 	 	 	 	 	 	 	 	 	 	 	 	1581472784	11.25	20.84
12/02/2020 01:59:46	120220	12022020	015945	194.29	13.727248	-56.922095	194.55	0.100	-0.540	1.530	194.28	-1.90	2.00	 	 	 	 	 	 	 	 	 	 	 	 	 	 	 	 	 	 	1581472785	11.21	20.76
12/02/2020 01:59:47	120220	12022020	015946	194.12	13.727198	-56.922112	194.33	-0.260	-0.470	2.180	194.06	-1.80	2.60	 	 	 	 	 	 	 	 	 	 	 	 	 	 	 	 	 	 	1581472786	11.08	20.52
12/02/2020 01:59:48	120220	12022020	015947	193.69	13.727150	-56.922135	193.83	-0.610	-0.610	3.020	193.56	-1.90	3.40	 	 	 	 	 	 	 	 	 	 	 	 	 	 	 	 	 	 	1581472787	11.43	21.17
12/02/2020 01:59:49	120220	12022020	015948	192.94	13.727100	-56.922158	193.05	-0.660	-0.850	3.640	192.77	-2.20	4.10	 	 	 	 	 	 	 	 	 	 	 	 	 	 	 	 	 	 	1581472788	11.92	22.08
12/02/2020 01:59:50	120220	12022020	015949	192.20	13.727050	-56.922180	192.42	-0.440	-0.510	3.660	192.11	-2.00	4.20	 	 	 	 	 	 	 	 	 	 	 	 	 	 	 	 	 	 	1581472789	11.57	21.43
12/02/2020 01:59:51	120220	12022020	015950	192.00	13.727005	-56.922193	192.35	-0.130	0.600	3.030	192.04	-0.90	3.60	 	 	 	 	 	 	 	 	 	 	 	 	 	 	 	 	 	 	1581472790	10.35	19.17
12/02/2020 01:59:52	120220	12022020	015951	192.31	13.726958	-56.922202	192.70	0.230	1.300	1.950	192.39	-0.10	2.60	 	 	 	 	 	 	 	 	 	 	 	 	 	 	 	 	 	 	1581472791	10.01	18.54
12/02/2020 01:59:53	120220	12022020	015952	192.72	13.726907	-56.922208	193.09	0.700	0.680	1.030	192.79	-0.50	1.60	 	 	 	 	 	 	 	 	 	 	 	 	 	 	 	 	 	 	1581472792	11.18	20.71
12/02/2020 01:59:54	120220	12022020	015953	193.12	13.726852	-56.922215	193.51	1.110	-0.520	0.700	193.21	-1.70	1.20	 	 	 	 	 	 	 	 	 	 	 	 	 	 	 	 	 	 	1581472793	12.00	22.22
12/02/2020 01:59:55	120220	12022020	015954	193.60	13.726798	-56.922223	194.03	1.050	-1.260	0.910	193.71	-2.50	1.40	 	 	 	 	 	 	 	 	 	 	 	 	 	 	 	 	 	 	1581472794	11.56	21.41
12/02/2020 01:59:56	120220	12022020	015955	194.15	13.726750	-56.922238	194.57	0.390	-1.400	1.780	194.25	-2.80	2.10	 	 	 	 	 	 	 	 	 	 	 	 	 	 	 	 	 	 	1581472795	10.80	20.00
12/02/2020 01:59:57	120220	12022020	015956	194.50	13.726705	-56.922260	194.86	-0.410	-1.340	2.910	194.54	-2.70	3.20	 	 	 	 	 	 	 	 	 	 	 	 	 	 	 	 	 	 	1581472796	10.77	19.95
12/02/2020 01:59:58	120220	12022020	015957	194.52	13.726658	-56.922282	194.79	-0.840	-1.230	3.830	194.48	-2.60	4.20	 	 	 	 	 	 	 	 	 	 	 	 	 	 	 	 	 	 	1581472797	11.07	20.50
12/02/2020 01:59:59	120220	12022020	015958	194.12	13.726612	-56.922303	194.31	-0.900	-0.870	4.320	194.00	-2.30	4.80	 	 	 	 	 	 	 	 	 	 	 	 	 	 	 	 	 	 	1581472798	11.15	20.65
12/02/2020 02:00:00	120220	12022020	015959	193.48	13.726563	-56.922322	193.65	-0.710	-0.350	4.100	193.36	-1.80	4.70	 	 	 	 	 	 	 	 	 	 	 	 	 	 	 	 	 	 	1581472799	11.07	20.50
12/02/2020 02:00:01	120220	12022020	020000	193.00	13.726513	-56.922337	193.24	-0.430	0.150	3.260	192.95	-1.30	3.90	 	 	 	 	 	 	 	 	 	 	 	 	 	 	 	 	 	 	1581472800	11.06	20.48
12/02/2020 02:00:02	120220	12022020	020001	192.84	13.726463	-56.922348	193.12	-0.080	0.440	2.340	192.83	-1.00	3.00	1017.60	26.00	26.00	21.30	21.30	-1.0	75.0	75.0	392.0	25.6	264.00	9.10	67.00	11.20	15	7979.0	27.2	27.2	1581472801	11.12	20.59
12/02/2020 02:00:03	120220	12022020	020002	192.76	13.726412	-56.922357	193.00	0.380	0.520	1.670	192.73	-0.90	2.00	 	 	 	 	 	 	 	 	 	 	 	 	 	 	 	 	 	 	1581472802	11.22	20.78
12/02/2020 02:00:04	120220	12022020	020003	192.61	13.726360	-56.922367	192.86	0.750	0.380	1.460	192.59	-1.00	2.00	 	 	 	 	 	 	 	 	 	 	 	 	 	 	 	 	 	 	1581472803	11.29	20.91
12/02/2020 02:00:05	120220	12022020	020004	192.56	13.726308	-56.922378	192.87	0.720	0.070	1.750	192.58	-1.50	2.50	 	 	 	 	 	 	 	 	 	 	 	 	 	 	 	 	 	 	1581472804	11.27	20.87
12/02/2020 02:00:06	120220	12022020	020005	192.66	13.726258	-56.922393	192.98	0.310	-0.230	2.220	192.68	-1.60	2.70	 	 	 	 	 	 	 	 	 	 	 	 	 	 	 	 	 	 	1581472805	11.11	20.58
12/02/2020 02:00:07	120220	12022020	020006	192.78	13.726210	-56.922410	193.12	-0.130	-0.470	2.600	192.81	-1.80	3.10	 	 	 	 	 	 	 	 	 	 	 	 	 	 	 	 	 	 	1581472806	10.99	20.35
12/02/2020 02:00:08	120220	12022020	020007	193.04	13.726162	-56.922425	193.42	-0.300	-0.620	2.560	193.10	-2.00	3.10	 	 	 	 	 	 	 	 	 	 	 	 	 	 	 	 	 	 	1581472807	10.94	20.26
12/02/2020 02:00:09	120220	12022020	020008	193.45	13.726113	-56.922440	193.85	-0.190	-0.600	2.030	193.55	-2.00	2.60	 	 	 	 	 	 	 	 	 	 	 	 	 	 	 	 	 	 	1581472808	10.78	19.96
12/02/2020 02:00:10	120220	12022020	020009	194.01	13.726067	-56.922452	194.45	-0.080	-0.310	1.220	194.15	-1.70	1.80	 	 	 	 	 	 	 	 	 	 	 	 	 	 	 	 	 	 	1581472809	10.46	19.37
12/02/2020 02:00:11	120220	12022020	020010	194.68	13.726020	-56.922462	195.06	-0.150	-0.160	0.690	194.79	-1.50	1.20	 	 	 	 	 	 	 	 	 	 	 	 	 	 	 	 	 	 	1581472810	10.31	19.09
12/02/2020 02:00:12	120220	12022020	020011	194.95	13.725972	-56.922477	195.16	-0.160	-0.690	0.910	194.91	-1.90	1.30	 	 	 	 	 	 	 	 	 	 	 	 	 	 	 	 	 	 	1581472811	10.95	20.28
12/02/2020 02:00:13	120220	12022020	020012	194.40	13.725918	-56.922495	194.46	0.170	-1.590	1.710	194.21	-2.80	2.10	 	 	 	 	 	 	 	 	 	 	 	 	 	 	 	 	 	 	1581472812	11.90	22.04
12/02/2020 02:00:14	120220	12022020	020013	193.50	13.725867	-56.922512	193.63	0.450	-1.620	2.430	193.35	-3.10	2.80	 	 	 	 	 	 	 	 	 	 	 	 	 	 	 	 	 	 	1581472813	11.76	21.78
12/02/2020 02:00:15	120220	12022020	020014	192.97	13.725820	-56.922527	193.24	0.240	-0.340	2.690	192.93	-1.90	3.20	 	 	 	 	 	 	 	 	 	 	 	 	 	 	 	 	 	 	1581472814	10.46	19.37
12/02/2020 02:00:16	120220	12022020	020015	192.94	13.725777	-56.922540	193.27	-0.290	1.050	2.500	192.96	-0.40	3.00	 	 	 	 	 	 	 	 	 	 	 	 	 	 	 	 	 	 	1581472815	9.77	18.09
12/02/2020 02:00:17	120220	12022020	020016	192.97	13.725728	-56.922553	193.23	-0.520	1.160	2.310	192.94	-0.60	2.80	 	 	 	 	 	 	 	 	 	 	 	 	 	 	 	 	 	 	1581472816	10.75	19.91
12/02/2020 02:00:18	120220	12022020	020017	192.75	13.725673	-56.922568	192.99	-0.160	0.200	2.300	192.70	-1.00	2.80	 	 	 	 	 	 	 	 	 	 	 	 	 	 	 	 	 	 	1581472817	12.11	22.43
12/02/2020 02:00:19	120220	12022020	020018	192.66	13.725620	-56.922582	193.03	0.260	-0.360	2.180	192.70	-1.60	2.60	 	 	 	 	 	 	 	 	 	 	 	 	 	 	 	 	 	 	1581472818	11.92	22.08
12/02/2020 02:00:20	120220	12022020	020019	193.02	13.725572	-56.922595	193.46	0.180	-0.090	1.960	193.12	-1.50	2.50	 	 	 	 	 	 	 	 	 	 	 	 	 	 	 	 	 	 	1581472819	10.62	19.67
12/02/2020 02:00:21	120220	12022020	020020	193.54	13.725528	-56.922608	193.93	-0.260	0.210	1.760	193.62	-1.20	2.30	 	 	 	 	 	 	 	 	 	 	 	 	 	 	 	 	 	 	1581472820	9.98	18.48
12/02/2020 02:00:22	120220	12022020	020021	193.85	13.725482	-56.922623	194.16	-0.460	-0.250	1.620	193.87	-1.50	2.10	 	 	 	 	 	 	 	 	 	 	 	 	 	 	 	 	 	 	1581472821	10.57	19.58
12/02/2020 02:00:23	120220	12022020	020022	193.79	13.725430	-56.922638	194.00	-0.040	-1.290	1.670	193.73	-2.50	2.10	 	 	 	 	 	 	 	 	 	 	 	 	 	 	 	 	 	 	1581472822	11.53	21.35
12/02/2020 02:00:24	120220	12022020	020023	193.42	13.725377	-56.922653	193.64	0.570	-1.880	1.860	193.35	-3.20	2.30	 	 	 	 	 	 	 	 	 	 	 	 	 	 	 	 	 	 	1581472823	11.72	21.71
12/02/2020 02:00:25	120220	12022020	020024	193.22	13.725328	-56.922665	193.53	0.560	-1.300	1.880	193.22	-2.80	2.40	 	 	 	 	 	 	 	 	 	 	 	 	 	 	 	 	 	 	1581472824	10.77	19.95
12/02/2020 02:00:26	120220	12022020	020025	193.29	13.725285	-56.922680	193.64	-0.170	-0.150	1.980	193.32	-1.60	2.50	 	 	 	 	 	 	 	 	 	 	 	 	 	 	 	 	 	 	1581472825	9.97	18.46
12/02/2020 02:00:27	120220	12022020	020026	193.40	13.725240	-56.922697	193.71	-0.890	0.610	2.100	193.41	-0.80	2.60	 	 	 	 	 	 	 	 	 	 	 	 	 	 	 	 	 	 	1581472826	10.22	18.93
12/02/2020 02:00:28	120220	12022020	020027	193.38	13.725192	-56.922715	193.66	-0.870	0.660	2.170	193.36	-0.70	2.70	 	 	 	 	 	 	 	 	 	 	 	 	 	 	 	 	 	 	1581472827	10.97	20.32
12/02/2020 02:00:29	120220	12022020	020028	193.25	13.725140	-56.922730	193.49	-0.150	0.130	2.210	193.20	-1.50	2.70	 	 	 	 	 	 	 	 	 	 	 	 	 	 	 	 	 	 	1581472828	11.61	21.50
12/02/2020 02:00:30	120220	12022020	020029	193.03	13.725087	-56.922745	193.28	0.620	-0.420	2.170	192.99	-1.70	2.70	 	 	 	 	 	 	 	 	 	 	 	 	 	 	 	 	 	 	1581472829	11.78	21.82
12/02/2020 02:00:31	120220	12022020	020030	192.93	13.725037	-56.922755	193.25	0.860	-0.430	1.990	192.94	-1.80	2.50	 	 	 	 	 	 	 	 	 	 	 	 	 	 	 	 	 	 	1581472830	11.21	20.76
12/02/2020 02:00:32	120220	12022020	020031	193.10	13.724988	-56.922765	193.47	0.530	-0.030	1.800	193.15	-1.40	2.30	 	 	 	 	 	 	 	 	 	 	 	 	 	 	 	 	 	 	1581472831	10.49	19.43
12/02/2020 02:00:33	120220	12022020	020032	193.33	13.724940	-56.922778	193.67	-0.010	0.070	1.940	193.36	-1.30	2.40	 	 	 	 	 	 	 	 	 	 	 	 	 	 	 	 	 	 	1581472832	10.51	19.46
12/02/2020 02:00:34	120220	12022020	020033	193.38	13.724892	-56.922795	193.70	-0.340	-0.270	2.390	193.39	-1.60	2.80	 	 	 	 	 	 	 	 	 	 	 	 	 	 	 	 	 	 	1581472833	11.06	20.48
12/02/2020 02:00:35	120220	12022020	020034	193.49	13.724843	-56.922813	193.86	-0.350	-0.510	2.630	193.54	-1.80	3.10	 	 	 	 	 	 	 	 	 	 	 	 	 	 	 	 	 	 	1581472834	11.07	20.50
12/02/2020 02:00:36	120220	12022020	020035	193.70	13.724797	-56.922828	194.01	-0.140	-0.580	2.450	193.71	-1.90	3.00	 	 	 	 	 	 	 	 	 	 	 	 	 	 	 	 	 	 	1581472835	10.73	19.87
12/02/2020 02:00:37	120220	12022020	020036	193.58	13.724747	-56.922842	193.79	0.160	-0.800	2.220	193.51	-2.10	2.80	 	 	 	 	 	 	 	 	 	 	 	 	 	 	 	 	 	 	1581472836	10.93	20.24
12/02/2020 02:00:38	120220	12022020	020037	193.20	13.724697	-56.922855	193.41	0.270	-0.940	2.190	193.13	-2.30	2.70	 	 	 	 	 	 	 	 	 	 	 	 	 	 	 	 	 	 	1581472837	11.13	20.61
12/02/2020 02:00:39	120220	12022020	020038	192.90	13.724648	-56.922868	193.13	0.130	-0.680	2.070	192.84	-2.10	2.60	 	 	 	 	 	 	 	 	 	 	 	 	 	 	 	 	 	 	1581472838	10.86	20.11
12/02/2020 02:00:40	120220	12022020	020039	192.62	13.724600	-56.922882	192.83	-0.070	-0.290	2.000	192.55	-1.70	2.50	 	 	 	 	 	 	 	 	 	 	 	 	 	 	 	 	 	 	1581472839	10.70	19.82
12/02/2020 02:00:41	120220	12022020	020040	192.33	13.724550	-56.922895	192.60	-0.120	-0.070	2.070	192.30	-1.40	2.60	 	 	 	 	 	 	 	 	 	 	 	 	 	 	 	 	 	 	1581472840	11.03	20.43
12/02/2020 02:00:42	120220	12022020	020041	192.32	13.724500	-56.922908	192.66	-0.160	0.110	2.180	192.35	-1.30	2.70	 	 	 	 	 	 	 	 	 	 	 	 	 	 	 	 	 	 	1581472841	11.08	20.52
12/02/2020 02:00:43	120220	12022020	020042	192.49	13.724452	-56.922923	192.84	-0.250	0.150	2.390	192.53	-1.30	3.00	 	 	 	 	 	 	 	 	 	 	 	 	 	 	 	 	 	 	1581472842	11.09	20.54
12/02/2020 02:00:44	120220	12022020	020043	192.65	13.724402	-56.922940	192.99	-0.260	-0.040	2.570	192.68	-1.40	3.10	 	 	 	 	 	 	 	 	 	 	 	 	 	 	 	 	 	 	1581472843	11.23	20.80
12/02/2020 02:00:45	120220	12022020	020044	192.79	13.724352	-56.922955	193.11	-0.020	-0.230	2.510	192.81	-1.60	3.00	 	 	 	 	 	 	 	 	 	 	 	 	 	 	 	 	 	 	1581472844	11.21	20.76
12/02/2020 02:00:46	120220	12022020	020045	192.86	13.724302	-56.922965	193.15	0.390	-0.310	2.160	192.86	-1.70	2.70	 	 	 	 	 	 	 	 	 	 	 	 	 	 	 	 	 	 	1581472845	11.05	20.46
12/02/2020 02:00:47	120220	12022020	020046	192.90	13.724250	-56.922973	193.23	0.610	-0.320	1.610	192.94	-1.70	2.20	 	 	 	 	 	 	 	 	 	 	 	 	 	 	 	 	 	 	1581472846	11.01	20.39
12/02/2020 02:00:48	120220	12022020	020047	193.23	13.724202	-56.922982	193.64	0.290	-0.260	1.290	193.34	-1.60	1.80	 	 	 	 	 	 	 	 	 	 	 	 	 	 	 	 	 	 	1581472847	10.81	20.02
12/02/2020 02:00:49	120220	12022020	020048	193.78	13.724153	-56.922997	194.16	-0.370	-0.250	1.320	193.88	-1.60	1.80	 	 	 	 	 	 	 	 	 	 	 	 	 	 	 	 	 	 	1581472848	10.62	19.67
12/02/2020 02:00:50	120220	12022020	020049	194.04	13.724107	-56.923017	194.29	-0.750	-0.480	1.680	194.03	-1.80	2.10	 	 	 	 	 	 	 	 	 	 	 	 	 	 	 	 	 	 	1581472849	10.89	20.17
12/02/2020 02:00:51	120220	12022020	020050	193.79	13.724058	-56.923035	193.99	-0.410	-0.800	2.000	193.71	-2.10	2.50	 	 	 	 	 	 	 	 	 	 	 	 	 	 	 	 	 	 	1581472850	11.26	20.85
12/02/2020 02:00:52	120220	12022020	020051	193.46	13.724008	-56.923048	193.70	0.340	-0.790	1.730	193.41	-2.20	2.30	 	 	 	 	 	 	 	 	 	 	 	 	 	 	 	 	 	 	1581472851	11.16	20.67
12/02/2020 02:00:53	120220	12022020	020052	193.32	13.723958	-56.923057	193.60	0.740	-0.410	1.290	193.31	-1.80	1.90	 	 	 	 	 	 	 	 	 	 	 	 	 	 	 	 	 	 	1581472852	10.84	20.08
12/02/2020 02:00:54	120220	12022020	020053	193.38	13.723910	-56.923065	193.70	0.430	-0.010	1.200	193.42	-1.40	1.70	 	 	 	 	 	 	 	 	 	 	 	 	 	 	 	 	 	 	1581472853	10.64	19.71
12/02/2020 02:00:55	120220	12022020	020054	193.47	13.723862	-56.923080	193.74	-0.270	0.060	1.720	193.46	-1.30	2.10	 	 	 	 	 	 	 	 	 	 	 	 	 	 	 	 	 	 	1581472854	10.80	20.00
12/02/2020 02:00:56	120220	12022020	020055	193.26	13.723812	-56.923100	193.46	-0.690	-0.190	2.550	193.17	-1.50	2.90	 	 	 	 	 	 	 	 	 	 	 	 	 	 	 	 	 	 	1581472855	11.31	20.95
12/02/2020 02:00:57	120220	12022020	020056	192.76	13.723762	-56.923122	192.96	-0.430	-0.440	3.120	192.66	-1.80	3.60	 	 	 	 	 	 	 	 	 	 	 	 	 	 	 	 	 	 	1581472856	11.60	21.48
12/02/2020 02:00:58	120220	12022020	020057	192.51	13.723713	-56.923137	192.87	0.100	-0.240	2.820	192.54	-1.60	3.40	 	 	 	 	 	 	 	 	 	 	 	 	 	 	 	 	 	 	1581472857	11.15	20.65
12/02/2020 02:00:59	120220	12022020	020058	192.90	13.723665	-56.923148	193.35	0.400	0.280	2.010	193.04	-1.10	2.60	 	 	 	 	 	 	 	 	 	 	 	 	 	 	 	 	 	 	1581472858	10.39	19.24
12/02/2020 02:01:00	120220	12022020	020059	193.54	13.723618	-56.923158	193.92	0.410	0.360	1.270	193.64	-0.90	1.90	 	 	 	 	 	 	 	 	 	 	 	 	 	 	 	 	 	 	1581472859	10.35	19.17
12/02/2020 02:01:01	120220	12022020	020100	193.83	13.723568	-56.923168	194.11	0.420	-0.350	1.110	193.84	-1.60	1.60	 	 	 	 	 	 	 	 	 	 	 	 	 	 	 	 	 	 	1581472860	11.12	20.59
12/02/2020 02:01:02	120220	12022020	020101	193.78	13.723517	-56.923182	194.04	0.410	-1.030	1.410	193.75	-2.30	1.90	1017.50	25.90	26.00	21.20	21.20	-1.0	75.0	75.0	393.0	25.6	262.00	9.50	67.00	11.80	15	7631.0	27.2	27.2	1581472861	11.43	21.17
12/02/2020 02:01:03	120220	12022020	020102	193.70	13.723468	-56.923197	194.01	0.160	-0.920	1.770	193.71	-2.30	2.20	 	 	 	 	 	 	 	 	 	 	 	 	 	 	 	 	 	 	1581472862	10.76	19.93
12/02/2020 02:01:04	120220	12022020	020103	193.77	13.723423	-56.923210	194.07	-0.260	-0.470	1.910	193.78	-1.90	2.40	 	 	 	 	 	 	 	 	 	 	 	 	 	 	 	 	 	 	1581472863	10.20	18.89
12/02/2020 02:01:05	120220	12022020	020104	193.69	13.723375	-56.923225	193.92	-0.510	-0.540	2.120	193.65	-1.80	2.60	 	 	 	 	 	 	 	 	 	 	 	 	 	 	 	 	 	 	1581472864	10.79	19.98
12/02/2020 02:01:06	120220	12022020	020105	193.43	13.723323	-56.923243	193.66	-0.480	-0.930	2.320	193.38	-2.20	2.80	 	 	 	 	 	 	 	 	 	 	 	 	 	 	 	 	 	 	1581472865	11.59	21.46
12/02/2020 02:01:07	120220	12022020	020106	193.22	13.723273	-56.923258	193.48	-0.360	-0.820	2.210	193.20	-1.90	2.50	 	 	 	 	 	 	 	 	 	 	 	 	 	 	 	 	 	 	1581472866	11.43	21.17
12/02/2020 02:01:08	120220	12022020	020107	193.12	13.723225	-56.923273	193.37	-0.300	-0.130	1.830	193.10	-1.60	2.40	 	 	 	 	 	 	 	 	 	 	 	 	 	 	 	 	 	 	1581472867	10.69	19.80
12/02/2020 02:01:09	120220	12022020	020108	192.97	13.723177	-56.923283	193.19	-0.220	0.470	1.430	192.93	-0.90	2.00	 	 	 	 	 	 	 	 	 	 	 	 	 	 	 	 	 	 	1581472868	10.54	19.52
12/02/2020 02:01:10	120220	12022020	020109	192.85	13.723127	-56.923293	193.13	-0.030	0.550	1.120	192.86	-0.80	1.70	 	 	 	 	 	 	 	 	 	 	 	 	 	 	 	 	 	 	1581472869	11.00	20.37
12/02/2020 02:01:11	120220	12022020	020110	193.03	13.723077	-56.923305	193.37	0.140	0.340	1.010	193.09	-1.00	1.50	 	 	 	 	 	 	 	 	 	 	 	 	 	 	 	 	 	 	1581472870	11.18	20.71
12/02/2020 02:01:12	120220	12022020	020111	193.26	13.723027	-56.923318	193.56	0.230	-0.080	1.300	193.28	-1.40	1.70	 	 	 	 	 	 	 	 	 	 	 	 	 	 	 	 	 	 	1581472871	11.17	20.69
12/02/2020 02:01:13	120220	12022020	020112	193.21	13.722977	-56.923335	193.45	0.360	-0.620	1.820	193.17	-1.90	2.20	 	 	 	 	 	 	 	 	 	 	 	 	 	 	 	 	 	 	1581472872	11.33	20.98
12/02/2020 02:01:14	120220	12022020	020113	193.07	13.722927	-56.923350	193.37	0.560	-0.730	2.060	193.07	-2.10	2.50	 	 	 	 	 	 	 	 	 	 	 	 	 	 	 	 	 	 	1581472873	11.11	20.58
12/02/2020 02:01:15	120220	12022020	020114	193.19	13.722880	-56.923362	193.55	0.520	-0.270	2.050	193.23	-1.70	2.60	 	 	 	 	 	 	 	 	 	 	 	 	 	 	 	 	 	 	1581472874	10.36	19.19
12/02/2020 02:01:16	120220	12022020	020115	193.45	13.722835	-56.923373	193.81	0.120	0.140	1.980	193.50	-1.20	2.50	 	 	 	 	 	 	 	 	 	 	 	 	 	 	 	 	 	 	1581472875	10.14	18.78
12/02/2020 02:01:17	120220	12022020	020116	193.73	13.722788	-56.923390	194.10	-0.390	0.150	1.920	193.79	-1.20	2.40	 	 	 	 	 	 	 	 	 	 	 	 	 	 	 	 	 	 	1581472876	10.49	19.43
12/02/2020 02:01:18	120220	12022020	020117	193.98	13.722740	-56.923407	194.31	-0.580	-0.230	1.870	194.01	-1.50	2.40	 	 	 	 	 	 	 	 	 	 	 	 	 	 	 	 	 	 	1581472877	10.86	20.11
12/02/2020 02:01:19	120220	12022020	020118	194.05	13.722690	-56.923422	194.33	-0.240	-0.850	1.710	194.04	-2.40	2.10	 	 	 	 	 	 	 	 	 	 	 	 	 	 	 	 	 	 	1581472878	11.25	20.84
12/02/2020 02:01:20	120220	12022020	020119	193.99	13.722640	-56.923437	194.25	0.340	-1.220	1.440	193.97	-2.50	2.00	 	 	 	 	 	 	 	 	 	 	 	 	 	 	 	 	 	 	1581472879	11.27	20.87
12/02/2020 02:01:21	120220	12022020	020120	193.84	13.722590	-56.923447	194.06	0.730	-1.110	1.110	193.79	-2.50	1.70	 	 	 	 	 	 	 	 	 	 	 	 	 	 	 	 	 	 	1581472880	10.93	20.24
12/02/2020 02:01:22	120220	12022020	020121	193.50	13.722540	-56.923457	193.69	0.660	-0.790	0.970	193.42	-2.20	1.50	 	 	 	 	 	 	 	 	 	 	 	 	 	 	 	 	 	 	1581472881	10.82	20.04
12/02/2020 02:01:23	120220	12022020	020122	193.09	13.722490	-56.923468	193.32	0.220	-0.500	1.260	193.03	-1.90	1.70	 	 	 	 	 	 	 	 	 	 	 	 	 	 	 	 	 	 	1581472882	11.01	20.39
12/02/2020 02:01:24	120220	12022020	020123	192.84	13.722442	-56.923483	193.15	-0.350	-0.170	1.690	192.83	-1.60	2.10	 	 	 	 	 	 	 	 	 	 	 	 	 	 	 	 	 	 	1581472883	11.13	20.61
12/02/2020 02:01:25	120220	12022020	020124	192.93	13.722392	-56.923500	193.32	-0.780	0.180	2.020	192.99	-1.20	2.50	 	 	 	 	 	 	 	 	 	 	 	 	 	 	 	 	 	 	1581472884	11.05	20.46
12/02/2020 02:01:26	120220	12022020	020125	193.33	13.722343	-56.923517	193.76	-0.930	0.330	2.210	193.43	-1.00	2.70	 	 	 	 	 	 	 	 	 	 	 	 	 	 	 	 	 	 	1581472885	11.08	20.52
12/02/2020 02:01:27	120220	12022020	020126	193.75	13.722293	-56.923535	194.12	-0.760	0.130	2.300	193.80	-1.20	2.80	 	 	 	 	 	 	 	 	 	 	 	 	 	 	 	 	 	 	1581472886	11.30	20.93
12/02/2020 02:01:28	120220	12022020	020127	193.88	13.722243	-56.923552	194.19	-0.320	-0.230	2.300	193.88	-1.50	2.80	 	 	 	 	 	 	 	 	 	 	 	 	 	 	 	 	 	 	1581472887	11.51	21.32
12/02/2020 02:01:29	120220	12022020	020128	193.95	13.722192	-56.923565	194.30	0.180	-0.210	1.840	193.99	-1.60	2.40	 	 	 	 	 	 	 	 	 	 	 	 	 	 	 	 	 	 	1581472888	11.17	20.69
12/02/2020 02:01:30	120220	12022020	020129	194.19	13.722143	-56.923573	194.54	0.460	0.210	1.210	194.25	-1.20	1.80	 	 	 	 	 	 	 	 	 	 	 	 	 	 	 	 	 	 	1581472889	10.51	19.46
12/02/2020 02:01:31	120220	12022020	020130	194.49	13.722097	-56.923582	194.84	0.400	0.360	0.810	194.55	-1.00	1.40	 	 	 	 	 	 	 	 	 	 	 	 	 	 	 	 	 	 	1581472890	10.45	19.35
12/02/2020 02:01:32	120220	12022020	020131	194.81	13.722048	-56.923595	195.12	0.160	0.060	0.930	194.85	-1.20	1.40	 	 	 	 	 	 	 	 	 	 	 	 	 	 	 	 	 	 	1581472891	10.71	19.83
12/02/2020 02:01:33	120220	12022020	020132	194.81	13.722000	-56.923612	194.96	0.130	-0.520	1.460	194.73	-1.80	1.90	 	 	 	 	 	 	 	 	 	 	 	 	 	 	 	 	 	 	1581472892	11.04	20.45
12/02/2020 02:01:34	120220	12022020	020133	194.21	13.721950	-56.923628	194.32	0.490	-1.180	2.000	194.08	-2.50	2.40	 	 	 	 	 	 	 	 	 	 	 	 	 	 	 	 	 	 	1581472893	11.42	21.15
12/02/2020 02:01:35	120220	12022020	020134	193.62	13.721898	-56.923643	193.81	0.790	-1.280	2.150	193.55	-2.70	2.60	 	 	 	 	 	 	 	 	 	 	 	 	 	 	 	 	 	 	1581472894	11.21	20.76
12/02/2020 02:01:36	120220	12022020	020135	193.33	13.721852	-56.923655	193.56	0.620	-0.790	2.050	193.29	-2.20	2.60	 	 	 	 	 	 	 	 	 	 	 	 	 	 	 	 	 	 	1581472895	10.57	19.58
12/02/2020 02:01:37	120220	12022020	020136	193.09	13.721803	-56.923668	193.29	0.150	-0.410	1.890	193.02	-1.80	2.40	 	 	 	 	 	 	 	 	 	 	 	 	 	 	 	 	 	 	1581472896	10.58	19.59
12/02/2020 02:01:38	120220	12022020	020137	192.76	13.721753	-56.923683	192.99	-0.260	-0.350	1.890	192.71	-1.70	2.40	 	 	 	 	 	 	 	 	 	 	 	 	 	 	 	 	 	 	1581472897	11.15	20.65
12/02/2020 02:01:39	120220	12022020	020138	192.73	13.721705	-56.923700	193.10	-0.510	-0.190	1.820	192.80	-1.60	2.30	 	 	 	 	 	 	 	 	 	 	 	 	 	 	 	 	 	 	1581472898	11.22	20.78
12/02/2020 02:01:40	120220	12022020	020139	193.20	13.721655	-56.923715	193.63	-0.640	0.030	1.560	193.32	-1.30	2.10	 	 	 	 	 	 	 	 	 	 	 	 	 	 	 	 	 	 	1581472899	10.98	20.33
12/02/2020 02:01:41	120220	12022020	020140	193.84	13.721607	-56.923730	194.29	-0.710	0.000	1.420	193.99	-1.30	1.90	 	 	 	 	 	 	 	 	 	 	 	 	 	 	 	 	 	 	1581472900	11.10	20.56
12/02/2020 02:01:42	120220	12022020	020141	194.52	13.721557	-56.923748	194.94	-0.630	-0.160	1.450	194.64	-1.50	1.90	 	 	 	 	 	 	 	 	 	 	 	 	 	 	 	 	 	 	1581472901	11.19	20.72
12/02/2020 02:01:43	120220	12022020	020142	194.98	13.721508	-56.923763	195.31	-0.340	-0.320	1.490	195.02	-1.80	2.00	 	 	 	 	 	 	 	 	 	 	 	 	 	 	 	 	 	 	1581472902	11.09	20.54
12/02/2020 02:01:44	120220	12022020	020143	195.07	13.721457	-56.923777	195.33	0.170	-0.510	1.560	195.05	-1.80	2.00	 	 	 	 	 	 	 	 	 	 	 	 	 	 	 	 	 	 	1581472903	11.22	20.78
12/02/2020 02:01:45	120220	12022020	020144	195.03	13.721407	-56.923788	195.33	0.590	-0.420	1.520	195.04	-1.80	2.00	 	 	 	 	 	 	 	 	 	 	 	 	 	 	 	 	 	 	1581472904	11.14	20.63
12/02/2020 02:01:46	120220	12022020	020145	195.20	13.721358	-56.923798	195.52	0.600	-0.030	1.350	195.24	-1.40	1.90	 	 	 	 	 	 	 	 	 	 	 	 	 	 	 	 	 	 	1581472905	10.68	19.78
12/02/2020 02:01:47	120220	12022020	020146	195.35	13.721310	-56.923808	195.61	0.280	0.070	1.270	195.35	-1.30	1.80	 	 	 	 	 	 	 	 	 	 	 	 	 	 	 	 	 	 	1581472906	10.69	19.80
12/02/2020 02:01:48	120220	12022020	020147	195.14	13.721258	-56.923823	195.29	0.020	-0.420	1.620	195.04	-1.70	2.00	 	 	 	 	 	 	 	 	 	 	 	 	 	 	 	 	 	 	1581472907	11.32	20.96
12/02/2020 02:01:49	120220	12022020	020148	194.44	13.721207	-56.923840	194.56	-0.010	-0.990	2.320	194.29	-2.30	2.70	 	 	 	 	 	 	 	 	 	 	 	 	 	 	 	 	 	 	1581472908	11.85	21.95
12/02/2020 02:01:50	120220	12022020	020149	193.79	13.721157	-56.923858	193.97	-0.150	-0.800	2.790	193.70	-2.20	3.20	 	 	 	 	 	 	 	 	 	 	 	 	 	 	 	 	 	 	1581472909	11.34	21.00
12/02/2020 02:01:51	120220	12022020	020150	193.35	13.721110	-56.923878	193.55	-0.470	-0.170	2.950	193.27	-1.60	3.40	 	 	 	 	 	 	 	 	 	 	 	 	 	 	 	 	 	 	1581472910	10.68	19.78
12/02/2020 02:01:52	120220	12022020	020151	192.94	13.721063	-56.923898	193.13	-0.590	0.120	2.950	192.86	-1.30	3.40	 	 	 	 	 	 	 	 	 	 	 	 	 	 	 	 	 	 	1581472911	10.93	20.24
12/02/2020 02:01:53	120220	12022020	020152	192.55	13.721013	-56.923917	192.77	-0.210	-0.000	2.640	192.50	-1.30	3.20	 	 	 	 	 	 	 	 	 	 	 	 	 	 	 	 	 	 	1581472912	11.43	21.17
12/02/2020 02:01:54	120220	12022020	020153	192.46	13.720963	-56.923930	192.81	0.380	0.070	1.950	192.51	-1.30	2.60	 	 	 	 	 	 	 	 	 	 	 	 	 	 	 	 	 	 	1581472913	11.22	20.78
12/02/2020 02:01:55	120220	12022020	020154	193.01	13.720917	-56.923940	193.50	0.660	0.480	0.960	193.20	-0.90	1.60	 	 	 	 	 	 	 	 	 	 	 	 	 	 	 	 	 	 	1581472914	10.46	19.37
12/02/2020 02:01:56	120220	12022020	020155	194.07	13.720870	-56.923948	194.59	0.510	0.620	0.130	194.31	-0.70	0.70	 	 	 	 	 	 	 	 	 	 	 	 	 	 	 	 	 	 	1581472915	10.14	18.78
12/02/2020 02:01:57	120220	12022020	020156	195.12	13.720822	-56.923958	195.57	0.320	-0.070	-0.020	195.29	-2.00	0.60	 	 	 	 	 	 	 	 	 	 	 	 	 	 	 	 	 	 	1581472916	10.67	19.76
12/02/2020 02:01:58	120220	12022020	020157	195.80	13.720770	-56.923972	196.15	0.280	-1.240	0.410	195.89	-2.40	0.80	 	 	 	 	 	 	 	 	 	 	 	 	 	 	 	 	 	 	1581472917	11.34	21.00
12/02/2020 02:01:59	120220	12022020	020158	196.02	13.720718	-56.923988	196.27	0.240	-2.140	1.170	196.00	-3.70	2.10	 	 	 	 	 	 	 	 	 	 	 	 	 	 	 	 	 	 	1581472918	11.46	21.22
12/02/2020 02:02:00	120220	12022020	020159	195.72	13.720670	-56.924005	195.87	0.090	-2.390	2.050	195.61	-3.80	2.40	 	 	 	 	 	 	 	 	 	 	 	 	 	 	 	 	 	 	1581472919	11.30	20.93
12/02/2020 02:02:01	120220	12022020	020200	194.95	13.720622	-56.924023	195.02	-0.080	-1.920	2.780	194.76	-3.40	3.20	 	 	 	 	 	 	 	 	 	 	 	 	 	 	 	 	 	 	1581472920	11.13	20.61
12/02/2020 02:02:02	120220	12022020	020201	193.99	13.720572	-56.924040	194.10	-0.220	-0.920	2.950	193.83	-2.50	3.40	1017.50	25.90	26.00	21.20	21.20	-1.0	75.0	75.0	398.0	25.6	259.00	9.60	65.00	12.00	15	7787.0	27.2	27.1	1581472921	11.07	20.50
12/02/2020 02:02:03	120220	12022020	020202	193.54	13.720523	-56.924053	193.84	-0.560	0.400	2.590	193.55	-1.20	3.10	 	 	 	 	 	 	 	 	 	 	 	 	 	 	 	 	 	 	1581472922	10.87	20.13
12/02/2020 02:02:04	120220	12022020	020203	193.75	13.720475	-56.924068	194.12	-1.010	1.390	2.180	193.84	-0.10	2.70	 	 	 	 	 	 	 	 	 	 	 	 	 	 	 	 	 	 	1581472923	10.80	20.00
12/02/2020 02:02:05	120220	12022020	020204	194.21	13.720427	-56.924087	194.57	-1.190	1.620	1.820	194.30	0.30	2.40	 	 	 	 	 	 	 	 	 	 	 	 	 	 	 	 	 	 	1581472924	11.20	20.74
12/02/2020 02:02:06	120220	12022020	020205	194.59	13.720375	-56.924105	194.91	-0.790	1.060	1.660	194.65	-0.20	2.20	 	 	 	 	 	 	 	 	 	 	 	 	 	 	 	 	 	 	1581472925	11.76	21.78
12/02/2020 02:02:07	120220	12022020	020206	194.80	13.720322	-56.924123	195.08	-0.010	0.200	1.740	194.82	-1.10	2.20	 	 	 	 	 	 	 	 	 	 	 	 	 	 	 	 	 	 	1581472926	11.90	22.04
12/02/2020 02:02:08	120220	12022020	020207	194.94	13.720272	-56.924140	195.24	0.610	-0.270	1.730	194.99	-1.60	2.20	 	 	 	 	 	 	 	 	 	 	 	 	 	 	 	 	 	 	1581472927	11.36	21.04
12/02/2020 02:02:09	120220	12022020	020208	195.16	13.720225	-56.924153	195.45	0.740	-0.110	1.530	195.21	-1.30	1.90	 	 	 	 	 	 	 	 	 	 	 	 	 	 	 	 	 	 	1581472928	10.30	19.08
12/02/2020 02:02:10	120220	12022020	020209	195.34	13.720182	-56.924165	195.59	0.590	0.110	1.190	195.35	-1.30	1.70	 	 	 	 	 	 	 	 	 	 	 	 	 	 	 	 	 	 	1581472929	9.80	18.15
12/02/2020 02:02:11	120220	12022020	020210	195.40	13.720135	-56.924177	195.64	0.580	-0.270	0.810	195.40	-1.50	1.40	 	 	 	 	 	 	 	 	 	 	 	 	 	 	 	 	 	 	1581472930	10.29	19.06
12/02/2020 02:02:12	120220	12022020	020211	195.31	13.720085	-56.924188	195.49	0.830	-1.180	0.710	195.26	-2.40	1.20	 	 	 	 	 	 	 	 	 	 	 	 	 	 	 	 	 	 	1581472931	11.12	20.59
12/02/2020 02:02:13	120220	12022020	020212	194.95	13.720033	-56.924203	195.10	1.020	-1.860	1.000	194.87	-3.20	1.40	 	 	 	 	 	 	 	 	 	 	 	 	 	 	 	 	 	 	1581472932	11.40	21.11
12/02/2020 02:02:14	120220	12022020	020213	194.48	13.719985	-56.924218	194.63	0.690	-1.770	1.550	194.37	-3.20	1.90	 	 	 	 	 	 	 	 	 	 	 	 	 	 	 	 	 	 	1581472933	11.03	20.43
12/02/2020 02:02:15	120220	12022020	020214	194.03	13.719938	-56.924237	194.24	-0.160	-1.130	2.220	193.96	-2.60	2.60	 	 	 	 	 	 	 	 	 	 	 	 	 	 	 	 	 	 	1581472934	10.74	19.89
12/02/2020 02:02:16	120220	12022020	020215	193.79	13.719892	-56.924257	194.06	-0.980	-0.400	2.590	193.77	-1.90	3.10	 	 	 	 	 	 	 	 	 	 	 	 	 	 	 	 	 	 	1581472935	10.83	20.06
12/02/2020 02:02:17	120220	12022020	020216	193.70	13.719843	-56.924277	193.96	-1.210	0.070	2.600	193.68	-1.30	3.10	 	 	 	 	 	 	 	 	 	 	 	 	 	 	 	 	 	 	1581472936	11.14	20.63
12/02/2020 02:02:18	120220	12022020	020217	193.61	13.719792	-56.924293	193.91	-0.830	0.150	2.330	193.62	-1.20	2.90	 	 	 	 	 	 	 	 	 	 	 	 	 	 	 	 	 	 	1581472937	11.65	21.58
12/02/2020 02:02:19	120220	12022020	020218	193.79	13.719740	-56.924308	194.15	-0.330	0.290	1.790	193.87	-1.10	2.40	 	 	 	 	 	 	 	 	 	 	 	 	 	 	 	 	 	 	1581472938	11.54	21.37
12/02/2020 02:02:20	120220	12022020	020219	194.26	13.719692	-56.924320	194.63	-0.070	0.620	1.260	194.36	-0.80	1.80	 	 	 	 	 	 	 	 	 	 	 	 	 	 	 	 	 	 	1581472939	10.93	20.24
12/02/2020 02:02:21	120220	12022020	020220	194.65	13.719642	-56.924332	194.93	0.050	0.630	1.020	194.68	-0.70	1.50	 	 	 	 	 	 	 	 	 	 	 	 	 	 	 	 	 	 	1581472940	10.77	19.95
12/02/2020 02:02:22	120220	12022020	020221	194.66	13.719592	-56.924345	194.88	0.200	0.000	1.360	194.63	-1.30	1.80	 	 	 	 	 	 	 	 	 	 	 	 	 	 	 	 	 	 	1581472941	11.27	20.87
12/02/2020 02:02:23	120220	12022020	020222	194.47	13.719540	-56.924360	194.69	0.300	-0.720	1.850	194.42	-2.00	2.30	 	 	 	 	 	 	 	 	 	 	 	 	 	 	 	 	 	 	1581472942	11.53	21.35
12/02/2020 02:02:24	120220	12022020	020223	194.18	13.719490	-56.924377	194.40	0.200	-0.960	2.360	194.12	-2.30	2.80	 	 	 	 	 	 	 	 	 	 	 	 	 	 	 	 	 	 	1581472943	11.11	20.58
12/02/2020 02:02:25	120220	12022020	020224	193.84	13.719443	-56.924395	194.07	-0.050	-0.820	2.690	193.79	-2.20	3.20	 	 	 	 	 	 	 	 	 	 	 	 	 	 	 	 	 	 	1581472944	10.78	19.96
12/02/2020 02:02:26	120220	12022020	020225	193.56	13.719397	-56.924412	193.78	-0.180	-0.580	2.520	193.50	-2.00	3.10	 	 	 	 	 	 	 	 	 	 	 	 	 	 	 	 	 	 	1581472945	10.72	19.85
12/02/2020 02:02:27	120220	12022020	020226	193.26	13.719348	-56.924427	193.47	0.030	-0.420	2.220	193.20	-1.80	2.80	 	 	 	 	 	 	 	 	 	 	 	 	 	 	 	 	 	 	1581472946	10.94	20.26
12/02/2020 02:02:28	120220	12022020	020227	193.09	13.719298	-56.924438	193.38	0.420	-0.140	1.750	193.10	-1.60	2.30	 	 	 	 	 	 	 	 	 	 	 	 	 	 	 	 	 	 	1581472947	11.01	20.39
12/02/2020 02:02:29	120220	12022020	020228	193.29	13.719250	-56.924448	193.65	0.500	0.280	1.230	193.37	-1.10	1.80	 	 	 	 	 	 	 	 	 	 	 	 	 	 	 	 	 	 	1581472948	10.71	19.83
12/02/2020 02:02:30	120220	12022020	020229	193.66	13.719200	-56.924460	194.03	0.210	0.340	1.300	193.75	-1.00	1.80	 	 	 	 	 	 	 	 	 	 	 	 	 	 	 	 	 	 	1581472949	10.75	19.91
12/02/2020 02:02:31	120220	12022020	020230	194.10	13.719152	-56.924477	194.50	-0.120	0.080	1.650	194.20	-1.30	2.10	 	 	 	 	 	 	 	 	 	 	 	 	 	 	 	 	 	 	1581472950	11.03	20.43
12/02/2020 02:02:32	120220	12022020	020231	194.61	13.719105	-56.924495	195.03	-0.240	-0.170	1.930	194.71	-1.50	2.40	 	 	 	 	 	 	 	 	 	 	 	 	 	 	 	 	 	 	1581472951	10.92	20.22
12/02/2020 02:02:33	120220	12022020	020232	195.03	13.719057	-56.924512	195.36	-0.070	-0.520	2.080	195.06	-1.80	2.60	 	 	 	 	 	 	 	 	 	 	 	 	 	 	 	 	 	 	1581472952	10.86	20.11
12/02/2020 02:02:34	120220	12022020	020233	195.06	13.719008	-56.924528	195.31	0.290	-0.990	2.080	195.03	-2.30	2.60	 	 	 	 	 	 	 	 	 	 	 	 	 	 	 	 	 	 	1581472953	11.13	20.61
12/02/2020 02:02:35	120220	12022020	020234	194.79	13.718958	-56.924543	194.98	0.560	-1.170	1.980	194.71	-2.50	2.40	 	 	 	 	 	 	 	 	 	 	 	 	 	 	 	 	 	 	1581472954	11.12	20.59
12/02/2020 02:02:36	120220	12022020	020235	194.39	13.718908	-56.924553	194.59	0.500	-0.920	1.680	194.32	-2.30	2.20	 	 	 	 	 	 	 	 	 	 	 	 	 	 	 	 	 	 	1581472955	10.92	20.22
12/02/2020 02:02:37	120220	12022020	020236	194.19	13.718860	-56.924563	194.46	0.060	-0.360	1.320	194.19	-1.80	1.90	 	 	 	 	 	 	 	 	 	 	 	 	 	 	 	 	 	 	1581472956	10.61	19.65
12/02/2020 02:02:38	120220	12022020	020237	194.22	13.718812	-56.924575	194.47	-0.450	-0.080	1.190	194.22	-1.40	1.70	 	 	 	 	 	 	 	 	 	 	 	 	 	 	 	 	 	 	1581472957	10.74	19.89
12/02/2020 02:02:39	120220	12022020	020238	194.08	13.718760	-56.924592	194.25	-0.630	-0.380	1.510	194.01	-1.70	1.90	 	 	 	 	 	 	 	 	 	 	 	 	 	 	 	 	 	 	1581472958	11.48	21.26
12/02/2020 02:02:40	120220	12022020	020239	193.67	13.718708	-56.924612	193.84	-0.460	-0.830	2.020	193.59	-2.10	2.40	 	 	 	 	 	 	 	 	 	 	 	 	 	 	 	 	 	 	1581472959	12.06	22.34
12/02/2020 02:02:41	120220	12022020	020240	193.34	13.718657	-56.924628	193.59	-0.210	-0.680	2.180	193.32	-2.10	2.70	 	 	 	 	 	 	 	 	 	 	 	 	 	 	 	 	 	 	1581472960	11.67	21.61
12/02/2020 02:02:42	120220	12022020	020241	193.36	13.718608	-56.924642	193.70	-0.150	0.140	1.870	193.40	-1.40	2.40	 	 	 	 	 	 	 	 	 	 	 	 	 	 	 	 	 	 	1581472961	10.75	19.91
12/02/2020 02:02:43	120220	12022020	020242	193.68	13.718562	-56.924653	194.04	-0.270	0.840	1.640	193.75	-0.60	2.20	 	 	 	 	 	 	 	 	 	 	 	 	 	 	 	 	 	 	1581472962	10.36	19.19
12/02/2020 02:02:44	120220	12022020	020243	193.94	13.718512	-56.924668	194.24	-0.340	0.710	1.790	193.95	-0.60	2.30	 	 	 	 	 	 	 	 	 	 	 	 	 	 	 	 	 	 	1581472963	10.90	20.19
12/02/2020 02:02:45	120220	12022020	020244	193.93	13.718462	-56.924687	194.19	-0.130	-0.060	2.030	193.90	-1.30	2.50	 	 	 	 	 	 	 	 	 	 	 	 	 	 	 	 	 	 	1581472964	11.65	21.58
12/02/2020 02:02:46	120220	12022020	020245	193.80	13.718410	-56.924702	194.05	0.250	-0.600	2.100	193.76	-1.90	2.60	 	 	 	 	 	 	 	 	 	 	 	 	 	 	 	 	 	 	1581472965	11.59	21.46
12/02/2020 02:02:47	120220	12022020	020246	193.64	13.718360	-56.924717	193.91	0.540	-0.580	1.940	193.62	-1.80	2.30	 	 	 	 	 	 	 	 	 	 	 	 	 	 	 	 	 	 	1581472966	10.95	20.28
12/02/2020 02:02:48	120220	12022020	020247	193.65	13.718313	-56.924727	193.98	0.500	-0.210	1.570	193.68	-1.60	2.10	 	 	 	 	 	 	 	 	 	 	 	 	 	 	 	 	 	 	1581472967	10.41	19.28
12/02/2020 02:02:49	120220	12022020	020248	193.86	13.718267	-56.924738	194.18	0.280	-0.010	1.170	193.90	-1.40	1.70	 	 	 	 	 	 	 	 	 	 	 	 	 	 	 	 	 	 	1581472968	10.36	19.19
12/02/2020 02:02:50	120220	12022020	020249	193.96	13.718218	-56.924752	194.23	0.220	-0.230	0.980	193.96	-1.50	1.50	 	 	 	 	 	 	 	 	 	 	 	 	 	 	 	 	 	 	1581472969	10.80	20.00
12/02/2020 02:02:51	120220	12022020	020250	193.90	13.718167	-56.924763	194.15	0.340	-0.630	1.120	193.88	-1.90	1.60	 	 	 	 	 	 	 	 	 	 	 	 	 	 	 	 	 	 	1581472970	11.17	20.69
12/02/2020 02:02:52	120220	12022020	020251	193.87	13.718117	-56.924777	194.16	0.390	-0.840	1.340	193.88	-2.20	1.80	 	 	 	 	 	 	 	 	 	 	 	 	 	 	 	 	 	 	1581472971	11.13	20.61
12/02/2020 02:02:53	120220	12022020	020252	194.01	13.718068	-56.924792	194.34	0.220	-0.770	1.510	194.05	-2.10	2.00	 	 	 	 	 	 	 	 	 	 	 	 	 	 	 	 	 	 	1581472972	10.91	20.21
12/02/2020 02:02:54	120220	12022020	020253	194.22	13.718020	-56.924807	194.52	-0.060	-0.670	1.600	194.24	-2.00	2.10	 	 	 	 	 	 	 	 	 	 	 	 	 	 	 	 	 	 	1581472973	10.85	20.09
12/02/2020 02:02:55	120220	12022020	020254	194.21	13.717970	-56.924822	194.44	-0.310	-0.840	1.850	194.16	-2.10	2.30	 	 	 	 	 	 	 	 	 	 	 	 	 	 	 	 	 	 	1581472974	11.27	20.87
12/02/2020 02:02:56	120220	12022020	020255	193.84	13.717918	-56.924840	194.02	-0.390	-1.070	2.110	193.74	-2.40	2.60	 	 	 	 	 	 	 	 	 	 	 	 	 	 	 	 	 	 	1581472975	11.72	21.71
12/02/2020 02:02:57	120220	12022020	020256	193.43	13.717867	-56.924855	193.68	-0.430	-0.780	2.040	193.39	-2.20	2.60	 	 	 	 	 	 	 	 	 	 	 	 	 	 	 	 	 	 	1581472976	11.52	21.34
12/02/2020 02:02:58	120220	12022020	020257	193.34	13.717818	-56.924870	193.65	-0.540	0.070	1.760	193.35	-1.40	2.30	 	 	 	 	 	 	 	 	 	 	 	 	 	 	 	 	 	 	1581472977	10.80	20.00
12/02/2020 02:02:59	120220	12022020	020258	193.46	13.717770	-56.924883	193.79	-0.600	0.720	1.360	193.50	-0.70	1.90	 	 	 	 	 	 	 	 	 	 	 	 	 	 	 	 	 	 	1581472978	10.69	19.80
12/02/2020 02:03:00	120220	12022020	020259	193.70	13.717720	-56.924895	194.05	-0.410	0.680	0.930	193.76	-0.60	1.50	 	 	 	 	 	 	 	 	 	 	 	 	 	 	 	 	 	 	1581472979	11.20	20.74
12/02/2020 02:03:01	120220	12022020	020300	193.99	13.717668	-56.924908	194.30	0.070	0.200	0.810	194.02	-1.50	1.40	 	 	 	 	 	 	 	 	 	 	 	 	 	 	 	 	 	 	1581472980	11.64	21.56
12/02/2020 02:03:02	120220	12022020	020301	194.03	13.717615	-56.924923	194.28	0.490	-0.360	1.140	194.00	-1.60	1.60	1017.50	25.90	26.00	21.20	21.30	-1.0	75.0	75.0	401.0	25.6	255.00	9.20	62.00	12.00	15	8004.0	27.2	27.2	1581472981	11.68	21.63
12/02/2020 02:03:03	120220	12022020	020302	193.81	13.717563	-56.924938	194.04	0.500	-0.640	1.760	193.76	-2.00	2.20	 	 	 	 	 	 	 	 	 	 	 	 	 	 	 	 	 	 	1581472982	11.45	21.21
12/02/2020 02:03:04	120220	12022020	020303	193.60	13.717515	-56.924955	193.88	0.080	-0.480	2.240	193.57	-1.90	2.70	 	 	 	 	 	 	 	 	 	 	 	 	 	 	 	 	 	 	1581472983	10.98	20.33
12/02/2020 02:03:05	120220	12022020	020304	193.58	13.717470	-56.924972	193.89	-0.380	-0.080	2.290	193.59	-1.50	2.80	 	 	 	 	 	 	 	 	 	 	 	 	 	 	 	 	 	 	1581472984	10.58	19.59
12/02/2020 02:03:06	120220	12022020	020305	193.70	13.717422	-56.924987	194.06	-0.460	0.160	1.920	193.76	-1.20	2.50	 	 	 	 	 	 	 	 	 	 	 	 	 	 	 	 	 	 	1581472985	10.62	19.67
12/02/2020 02:03:07	120220	12022020	020306	194.07	13.717373	-56.925000	194.46	-0.160	0.190	1.270	194.17	-1.20	1.90	 	 	 	 	 	 	 	 	 	 	 	 	 	 	 	 	 	 	1581472986	10.74	19.89
12/02/2020 02:03:08	120220	12022020	020307	194.54	13.717325	-56.925012	194.91	0.270	-0.040	0.620	194.63	-1.30	1.20	 	 	 	 	 	 	 	 	 	 	 	 	 	 	 	 	 	 	1581472987	10.83	20.06
12/02/2020 02:03:09	120220	12022020	020308	194.90	13.717275	-56.925023	195.22	0.660	-0.500	0.310	194.94	-1.80	0.80	 	 	 	 	 	 	 	 	 	 	 	 	 	 	 	 	 	 	1581472988	11.02	20.41
12/02/2020 02:03:10	120220	12022020	020309	194.92	13.717225	-56.925035	195.12	0.890	-1.030	0.480	194.86	-2.30	0.90	 	 	 	 	 	 	 	 	 	 	 	 	 	 	 	 	 	 	1581472989	11.16	20.67
12/02/2020 02:03:11	120220	12022020	020310	194.50	13.717173	-56.925048	194.66	0.820	-1.420	1.030	194.39	-2.70	1.40	 	 	 	 	 	 	 	 	 	 	 	 	 	 	 	 	 	 	1581472990	11.28	20.89
12/02/2020 02:03:12	120220	12022020	020311	193.96	13.717123	-56.925063	194.15	0.370	-1.490	1.760	193.86	-2.90	2.20	 	 	 	 	 	 	 	 	 	 	 	 	 	 	 	 	 	 	1581472991	11.31	20.95
12/02/2020 02:03:13	120220	12022020	020312	193.49	13.717073	-56.925082	193.72	-0.320	-1.110	2.470	193.40	-2.10	3.20	 	 	 	 	 	 	 	 	 	 	 	 	 	 	 	 	 	 	1581472992	11.24	20.82
12/02/2020 02:03:14	120220	12022020	020313	193.16	13.717025	-56.925102	193.47	-1.000	-0.410	2.900	193.14	-1.90	3.40	 	 	 	 	 	 	 	 	 	 	 	 	 	 	 	 	 	 	1581472993	11.16	20.67
12/02/2020 02:03:15	120220	12022020	020314	193.20	13.716978	-56.925122	193.55	-1.380	0.320	2.800	193.23	-1.10	3.30	 	 	 	 	 	 	 	 	 	 	 	 	 	 	 	 	 	 	1581472994	11.09	20.54
12/02/2020 02:03:16	120220	12022020	020315	193.39	13.716928	-56.925140	193.72	-1.160	0.690	2.350	193.42	-0.70	2.90	 	 	 	 	 	 	 	 	 	 	 	 	 	 	 	 	 	 	1581472995	11.26	20.85
12/02/2020 02:03:17	120220	12022020	020316	193.53	13.716877	-56.925153	193.86	-0.360	0.560	1.730	193.56	-0.80	2.30	 	 	 	 	 	 	 	 	 	 	 	 	 	 	 	 	 	 	1581472996	11.67	21.61
12/02/2020 02:03:18	120220	12022020	020317	193.78	13.716823	-56.925163	194.14	0.450	0.330	1.070	193.86	-1.00	1.70	 	 	 	 	 	 	 	 	 	 	 	 	 	 	 	 	 	 	1581472997	11.73	21.72
12/02/2020 02:03:19	120220	12022020	020318	194.19	13.716770	-56.925173	194.54	0.720	0.210	0.670	194.27	-1.10	1.20	 	 	 	 	 	 	 	 	 	 	 	 	 	 	 	 	 	 	1581472998	11.31	20.95
12/02/2020 02:03:20	120220	12022020	020319	194.54	13.716722	-56.925185	194.86	0.480	0.100	0.730	194.60	-1.30	1.20	 	 	 	 	 	 	 	 	 	 	 	 	 	 	 	 	 	 	1581472999	10.92	20.22
12/02/2020 02:03:21	120220	12022020	020320	194.79	13.716673	-56.925198	195.11	0.130	-0.090	1.090	194.84	-1.40	1.50	 	 	 	 	 	 	 	 	 	 	 	 	 	 	 	 	 	 	1581473000	10.78	19.96
12/02/2020 02:03:22	120220	12022020	020321	195.05	13.716625	-56.925215	195.35	-0.010	-0.300	1.410	195.08	-1.60	1.90	 	 	 	 	 	 	 	 	 	 	 	 	 	 	 	 	 	 	1581473001	10.72	19.85
12/02/2020 02:03:23	120220	12022020	020322	195.11	13.716578	-56.925232	195.36	0.070	-0.710	1.630	195.10	-2.30	2.20	 	 	 	 	 	 	 	 	 	 	 	 	 	 	 	 	 	 	1581473002	10.90	20.19
12/02/2020 02:03:24	120220	12022020	020323	194.96	13.716528	-56.925248	195.17	0.170	-1.200	1.780	194.91	-2.50	2.30	 	 	 	 	 	 	 	 	 	 	 	 	 	 	 	 	 	 	1581473003	11.22	20.78
12/02/2020 02:03:25	120220	12022020	020324	194.73	13.716478	-56.925265	194.96	0.190	-1.360	1.750	194.69	-2.60	2.10	 	 	 	 	 	 	 	 	 	 	 	 	 	 	 	 	 	 	1581473004	11.18	20.71
12/02/2020 02:03:26	120220	12022020	020325	194.61	13.716430	-56.925278	194.88	0.120	-1.030	1.470	194.61	-2.50	2.00	 	 	 	 	 	 	 	 	 	 	 	 	 	 	 	 	 	 	1581473005	10.84	20.08
12/02/2020 02:03:27	120220	12022020	020326	194.55	13.716383	-56.925292	194.78	0.010	-0.510	1.340	194.51	-1.90	1.80	 	 	 	 	 	 	 	 	 	 	 	 	 	 	 	 	 	 	1581473006	10.67	19.76
12/02/2020 02:03:28	120220	12022020	020327	194.26	13.716333	-56.925308	194.44	-0.050	-0.230	1.570	194.18	-1.60	2.00	 	 	 	 	 	 	 	 	 	 	 	 	 	 	 	 	 	 	1581473007	10.98	20.33
12/02/2020 02:03:29	120220	12022020	020328	193.85	13.716283	-56.925323	194.04	-0.020	-0.140	1.870	193.77	-1.50	2.30	 	 	 	 	 	 	 	 	 	 	 	 	 	 	 	 	 	 	1581473008	11.37	21.06
12/02/2020 02:03:30	120220	12022020	020329	193.53	13.716232	-56.925340	193.75	0.050	-0.060	2.060	193.48	-1.40	2.50	 	 	 	 	 	 	 	 	 	 	 	 	 	 	 	 	 	 	1581473009	11.46	21.22
12/02/2020 02:03:31	120220	12022020	020330	193.33	13.716182	-56.925353	193.59	0.130	0.050	2.190	193.31	-1.30	2.70	 	 	 	 	 	 	 	 	 	 	 	 	 	 	 	 	 	 	1581473010	11.41	21.13
12/02/2020 02:03:32	120220	12022020	020331	193.34	13.716130	-56.925368	193.69	0.110	0.080	2.180	193.39	-1.30	2.70	 	 	 	 	 	 	 	 	 	 	 	 	 	 	 	 	 	 	1581473011	11.44	21.19
12/02/2020 02:03:33	120220	12022020	020332	193.68	13.716078	-56.925383	194.09	-0.040	0.100	2.110	193.78	-1.30	2.60	 	 	 	 	 	 	 	 	 	 	 	 	 	 	 	 	 	 	1581473012	11.39	21.09
12/02/2020 02:03:34	120220	12022020	020333	194.23	13.716030	-56.925398	194.66	-0.230	0.240	2.080	194.35	-1.10	2.60	 	 	 	 	 	 	 	 	 	 	 	 	 	 	 	 	 	 	1581473013	11.06	20.48
12/02/2020 02:03:35	120220	12022020	020334	194.83	13.715982	-56.925415	195.24	-0.340	0.350	1.950	194.94	-1.10	2.30	 	 	 	 	 	 	 	 	 	 	 	 	 	 	 	 	 	 	1581473014	10.75	19.91
12/02/2020 02:03:36	120220	12022020	020335	195.37	13.715935	-56.925428	195.75	-0.280	0.150	1.600	195.47	-1.20	2.10	 	 	 	 	 	 	 	 	 	 	 	 	 	 	 	 	 	 	1581473015	10.76	19.93
12/02/2020 02:03:37	120220	12022020	020336	195.77	13.715885	-56.925443	196.09	-0.100	-0.410	1.320	195.83	-2.10	1.70	 	 	 	 	 	 	 	 	 	 	 	 	 	 	 	 	 	 	1581473016	11.02	20.41
12/02/2020 02:03:38	120220	12022020	020337	195.93	13.715835	-56.925458	196.20	0.090	-1.030	1.220	195.94	-2.30	1.70	 	 	 	 	 	 	 	 	 	 	 	 	 	 	 	 	 	 	1581473017	11.21	20.76
12/02/2020 02:03:39	120220	12022020	020338	195.93	13.715787	-56.925475	196.16	0.130	-1.190	1.320	195.91	-2.60	1.80	 	 	 	 	 	 	 	 	 	 	 	 	 	 	 	 	 	 	1581473018	10.91	20.21
12/02/2020 02:03:40	120220	12022020	020339	195.69	13.715740	-56.925492	195.83	0.160	-1.110	1.490	195.60	-2.50	2.00	 	 	 	 	 	 	 	 	 	 	 	 	 	 	 	 	 	 	1581473019	10.65	19.72
12/02/2020 02:03:41	120220	12022020	020340	195.03	13.715690	-56.925507	195.10	0.450	-1.240	1.620	194.86	-2.60	2.10	 	 	 	 	 	 	 	 	 	 	 	 	 	 	 	 	 	 	1581473020	11.22	20.78
12/02/2020 02:03:42	120220	12022020	020341	194.37	13.715638	-56.925518	194.58	0.690	-1.010	1.590	194.31	-2.40	2.10	 	 	 	 	 	 	 	 	 	 	 	 	 	 	 	 	 	 	1581473021	11.53	21.35
12/02/2020 02:03:43	120220	12022020	020342	194.29	13.715588	-56.925532	194.62	0.370	-0.090	1.500	194.33	-1.60	2.00	 	 	 	 	 	 	 	 	 	 	 	 	 	 	 	 	 	 	1581473022	10.79	19.98
12/02/2020 02:03:44	120220	12022020	020343	194.54	13.715543	-56.925547	194.86	-0.400	0.800	1.400	194.59	-0.60	1.90	 	 	 	 	 	 	 	 	 	 	 	 	 	 	 	 	 	 	1581473023	10.42	19.30
12/02/2020 02:03:45	120220	12022020	020344	194.66	13.715495	-56.925565	194.93	-0.940	0.800	1.570	194.67	-0.50	2.00	 	 	 	 	 	 	 	 	 	 	 	 	 	 	 	 	 	 	1581473024	11.14	20.63
12/02/2020 02:03:46	120220	12022020	020345	194.66	13.715442	-56.925585	194.93	-0.820	0.170	1.910	194.66	-1.10	2.30	 	 	 	 	 	 	 	 	 	 	 	 	 	 	 	 	 	 	1581473025	11.97	22.17
12/02/2020 02:03:47	120220	12022020	020346	194.67	13.715390	-56.925605	194.97	-0.240	-0.190	2.030	194.68	-1.50	2.40	 	 	 	 	 	 	 	 	 	 	 	 	 	 	 	 	 	 	1581473026	11.81	21.87
12/02/2020 02:03:48	120220	12022020	020347	194.85	13.715342	-56.925620	195.20	0.240	0.030	1.710	194.92	-1.40	2.30	 	 	 	 	 	 	 	 	 	 	 	 	 	 	 	 	 	 	1581473027	10.91	20.21
12/02/2020 02:03:49	120220	12022020	020348	195.20	13.715295	-56.925632	195.54	0.370	0.330	1.330	195.27	-1.00	1.70	 	 	 	 	 	 	 	 	 	 	 	 	 	 	 	 	 	 	1581473028	10.34	19.15
12/02/2020 02:03:50	120220	12022020	020349	195.48	13.715248	-56.925643	195.77	0.310	0.150	1.120	195.51	-1.10	1.60	 	 	 	 	 	 	 	 	 	 	 	 	 	 	 	 	 	 	1581473029	10.52	19.48
12/02/2020 02:03:51	120220	12022020	020350	195.56	13.715198	-56.925658	195.78	0.290	-0.540	1.320	195.54	-2.30	2.10	 	 	 	 	 	 	 	 	 	 	 	 	 	 	 	 	 	 	1581473030	11.02	20.41
12/02/2020 02:03:52	120220	12022020	020351	195.36	13.715150	-56.925677	195.54	0.330	-1.240	1.830	195.29	-2.50	2.20	 	 	 	 	 	 	 	 	 	 	 	 	 	 	 	 	 	 	1581473031	11.27	20.87
12/02/2020 02:03:53	120220	12022020	020352	194.94	13.715102	-56.925695	195.10	0.260	-1.490	2.440	194.84	-2.80	2.80	 	 	 	 	 	 	 	 	 	 	 	 	 	 	 	 	 	 	1581473032	11.10	20.56
12/02/2020 02:03:54	120220	12022020	020353	194.40	13.715055	-56.925713	194.57	0.040	-1.240	2.830	194.30	-2.60	3.30	 	 	 	 	 	 	 	 	 	 	 	 	 	 	 	 	 	 	1581473033	10.82	20.04
12/02/2020 02:03:55	120220	12022020	020354	194.00	13.715008	-56.925732	194.24	-0.270	-0.630	2.790	193.96	-2.10	3.30	 	 	 	 	 	 	 	 	 	 	 	 	 	 	 	 	 	 	1581473034	10.58	19.59
12/02/2020 02:03:56	120220	12022020	020355	193.88	13.714960	-56.925745	194.16	-0.470	-0.080	2.440	193.87	-1.50	3.00	 	 	 	 	 	 	 	 	 	 	 	 	 	 	 	 	 	 	1581473035	10.63	19.69
12/02/2020 02:03:57	120220	12022020	020356	193.87	13.714912	-56.925760	194.15	-0.400	0.000	2.040	193.87	-1.30	2.60	 	 	 	 	 	 	 	 	 	 	 	 	 	 	 	 	 	 	1581473036	11.17	20.69
12/02/2020 02:03:58	120220	12022020	020357	193.86	13.714858	-56.925775	194.14	-0.080	-0.260	1.730	193.86	-1.60	2.30	 	 	 	 	 	 	 	 	 	 	 	 	 	 	 	 	 	 	1581473037	11.71	21.69
12/02/2020 02:03:59	120220	12022020	020358	193.85	13.714805	-56.925788	194.13	0.270	-0.320	1.580	193.85	-1.70	2.10	 	 	 	 	 	 	 	 	 	 	 	 	 	 	 	 	 	 	1581473038	11.66	21.59
12/02/2020 02:04:00	120220	12022020	020359	193.82	13.714755	-56.925800	194.09	0.420	0.030	1.590	193.81	-1.40	2.10	 	 	 	 	 	 	 	 	 	 	 	 	 	 	 	 	 	 	1581473039	11.12	20.59
12/02/2020 02:04:01	120220	12022020	020400	193.76	13.714707	-56.925812	194.03	0.310	0.380	1.690	193.76	-1.00	2.20	 	 	 	 	 	 	 	 	 	 	 	 	 	 	 	 	 	 	1581473040	10.86	20.11
12/02/2020 02:04:02	120220	12022020	020401	193.79	13.714657	-56.925825	194.11	0.070	0.420	1.850	193.82	-0.90	2.30	1017.50	26.00	26.00	21.50	21.50	-1.0	76.0	76.0	398.0	25.6	264.00	9.30	68.00	11.40	15	7696.0	27.2	27.2	1581473041	11.04	20.45
12/02/2020 02:04:03	120220	12022020	020402	194.09	13.714607	-56.925840	194.48	-0.210	0.310	1.990	194.18	-1.00	2.50	 	 	 	 	 	 	 	 	 	 	 	 	 	 	 	 	 	 	1581473042	10.99	20.35
12/02/2020 02:04:04	120220	12022020	020403	194.59	13.714560	-56.925857	194.99	-0.410	0.040	2.080	194.68	-1.30	2.60	 	 	 	 	 	 	 	 	 	 	 	 	 	 	 	 	 	 	1581473043	10.89	20.17
12/02/2020 02:04:05	120220	12022020	020404	195.01	13.714512	-56.925875	195.37	-0.410	-0.480	2.110	195.07	-1.70	2.60	 	 	 	 	 	 	 	 	 	 	 	 	 	 	 	 	 	 	1581473044	11.04	20.45
12/02/2020 02:04:06	120220	12022020	020405	195.20	13.714463	-56.925893	195.48	-0.180	-0.970	2.070	195.20	-2.30	2.60	 	 	 	 	 	 	 	 	 	 	 	 	 	 	 	 	 	 	1581473045	11.10	20.56
12/02/2020 02:04:07	120220	12022020	020406	195.07	13.714415	-56.925908	195.27	0.150	-1.170	1.930	195.00	-2.50	2.50	 	 	 	 	 	 	 	 	 	 	 	 	 	 	 	 	 	 	1581473046	10.92	20.22
12/02/2020 02:04:08	120220	12022020	020407	194.68	13.714367	-56.925923	194.86	0.310	-1.020	1.760	194.59	-2.40	2.30	 	 	 	 	 	 	 	 	 	 	 	 	 	 	 	 	 	 	1581473047	10.75	19.91
12/02/2020 02:04:09	120220	12022020	020408	194.23	13.714318	-56.925937	194.42	0.250	-0.640	1.590	194.15	-2.00	2.10	 	 	 	 	 	 	 	 	 	 	 	 	 	 	 	 	 	 	1581473048	10.63	19.69
12/02/2020 02:04:10	120220	12022020	020409	193.90	13.714270	-56.925948	194.12	0.110	-0.240	1.280	193.85	-1.60	1.80	 	 	 	 	 	 	 	 	 	 	 	 	 	 	 	 	 	 	1581473049	10.70	19.82
12/02/2020 02:04:11	120220	12022020	020410	193.70	13.714222	-56.925962	193.95	0.160	-0.060	1.020	193.67	-1.40	1.60	 	 	 	 	 	 	 	 	 	 	 	 	 	 	 	 	 	 	1581473050	10.99	20.35
12/02/2020 02:04:12	120220	12022020	020411	193.65	13.714170	-56.925973	193.97	0.320	-0.150	1.010	193.67	-1.50	1.50	 	 	 	 	 	 	 	 	 	 	 	 	 	 	 	 	 	 	1581473051	11.39	21.09
12/02/2020 02:04:13	120220	12022020	020412	193.78	13.714118	-56.925988	194.12	0.300	-0.330	1.360	193.82	-1.60	1.80	 	 	 	 	 	 	 	 	 	 	 	 	 	 	 	 	 	 	1581473052	11.55	21.39
12/02/2020 02:04:14	120220	12022020	020413	193.88	13.714067	-56.926007	194.20	0.010	-0.410	2.000	193.89	-1.80	2.40	 	 	 	 	 	 	 	 	 	 	 	 	 	 	 	 	 	 	1581473053	11.51	21.32
12/02/2020 02:04:15	120220	12022020	020414	193.96	13.714018	-56.926025	194.32	-0.430	-0.250	2.510	194.00	-1.40	3.10	 	 	 	 	 	 	 	 	 	 	 	 	 	 	 	 	 	 	1581473054	11.28	20.89
12/02/2020 02:04:16	120220	12022020	020415	194.17	13.713970	-56.926043	194.53	-0.770	0.070	2.670	194.21	-1.30	3.20	 	 	 	 	 	 	 	 	 	 	 	 	 	 	 	 	 	 	1581473055	10.92	20.22
12/02/2020 02:04:17	120220	12022020	020416	194.37	13.713922	-56.926060	194.70	-0.750	0.190	2.500	194.40	-1.20	3.00	 	 	 	 	 	 	 	 	 	 	 	 	 	 	 	 	 	 	1581473056	10.92	20.22
12/02/2020 02:04:18	120220	12022020	020417	194.49	13.713872	-56.926075	194.79	-0.360	-0.010	2.110	194.50	-1.30	2.70	 	 	 	 	 	 	 	 	 	 	 	 	 	 	 	 	 	 	1581473057	11.22	20.78
12/02/2020 02:04:19	120220	12022020	020418	194.48	13.713822	-56.926088	194.77	0.070	-0.210	1.740	194.48	-1.50	2.30	 	 	 	 	 	 	 	 	 	 	 	 	 	 	 	 	 	 	1581473058	11.25	20.84
12/02/2020 02:04:20	120220	12022020	020419	194.45	13.713772	-56.926100	194.74	0.260	-0.260	1.460	194.44	-1.60	2.00	 	 	 	 	 	 	 	 	 	 	 	 	 	 	 	 	 	 	1581473059	10.94	20.26
12/02/2020 02:04:21	120220	12022020	020420	194.36	13.713723	-56.926113	194.59	0.290	-0.390	1.320	194.32	-1.70	1.80	 	 	 	 	 	 	 	 	 	 	 	 	 	 	 	 	 	 	1581473060	10.84	20.08
12/02/2020 02:04:22	120220	12022020	020421	194.06	13.713673	-56.926127	194.28	0.390	-0.710	1.460	193.99	-2.00	1.90	 	 	 	 	 	 	 	 	 	 	 	 	 	 	 	 	 	 	1581473061	11.15	20.65
12/02/2020 02:04:23	120220	12022020	020422	193.77	13.713623	-56.926142	194.03	0.480	-0.730	1.640	193.72	-2.10	2.10	 	 	 	 	 	 	 	 	 	 	 	 	 	 	 	 	 	 	1581473062	11.10	20.56
12/02/2020 02:04:24	120220	12022020	020423	193.61	13.713575	-56.926155	193.90	0.370	-0.360	1.650	193.59	-1.80	2.20	 	 	 	 	 	 	 	 	 	 	 	 	 	 	 	 	 	 	1581473063	10.64	19.71
12/02/2020 02:04:25	120220	12022020	020424	193.53	13.713528	-56.926168	193.84	0.080	-0.060	1.650	193.52	-1.40	2.10	 	 	 	 	 	 	 	 	 	 	 	 	 	 	 	 	 	 	1581473064	10.59	19.61
12/02/2020 02:04:26	120220	12022020	020425	193.54	13.713480	-56.926183	193.89	-0.250	-0.090	1.750	193.56	-1.40	2.20	 	 	 	 	 	 	 	 	 	 	 	 	 	 	 	 	 	 	1581473065	10.94	20.26
12/02/2020 02:04:27	120220	12022020	020426	193.68	13.713430	-56.926200	194.01	-0.420	-0.360	1.850	193.70	-1.60	2.30	 	 	 	 	 	 	 	 	 	 	 	 	 	 	 	 	 	 	1581473066	11.21	20.76
12/02/2020 02:04:28	120220	12022020	020427	193.61	13.713380	-56.926218	193.83	-0.260	-0.870	2.110	193.53	-2.10	2.50	 	 	 	 	 	 	 	 	 	 	 	 	 	 	 	 	 	 	1581473067	11.60	21.48
12/02/2020 02:04:29	120220	12022020	020428	193.13	13.713327	-56.926235	193.34	0.120	-1.240	2.500	193.04	-2.60	2.90	 	 	 	 	 	 	 	 	 	 	 	 	 	 	 	 	 	 	1581473068	11.90	22.04
12/02/2020 02:04:30	120220	12022020	020429	192.70	13.713275	-56.926250	192.96	0.260	-0.910	2.680	192.64	-2.30	3.20	 	 	 	 	 	 	 	 	 	 	 	 	 	 	 	 	 	 	1581473069	11.43	21.17
12/02/2020 02:04:31	120220	12022020	020430	192.48	13.713227	-56.926265	192.80	-0.010	-0.130	2.590	192.47	-1.60	3.10	 	 	 	 	 	 	 	 	 	 	 	 	 	 	 	 	 	 	1581473070	10.84	20.08
12/02/2020 02:04:32	120220	12022020	020431	192.60	13.713178	-56.926277	193.02	-0.400	0.580	2.220	192.69	-0.90	2.80	 	 	 	 	 	 	 	 	 	 	 	 	 	 	 	 	 	 	1581473071	10.72	19.85
12/02/2020 02:04:33	120220	12022020	020432	193.22	13.713130	-56.926290	193.72	-0.510	0.910	1.610	193.39	-0.50	2.20	 	 	 	 	 	 	 	 	 	 	 	 	 	 	 	 	 	 	1581473072	10.83	20.06
12/02/2020 02:04:34	120220	12022020	020433	194.13	13.713080	-56.926302	194.64	-0.290	0.740	1.060	194.32	-0.60	1.60	 	 	 	 	 	 	 	 	 	 	 	 	 	 	 	 	 	 	1581473073	11.02	20.41
12/02/2020 02:04:35	120220	12022020	020434	194.98	13.713030	-56.926313	195.41	0.040	0.170	0.930	195.11	-1.10	1.40	 	 	 	 	 	 	 	 	 	 	 	 	 	 	 	 	 	 	1581473074	11.14	20.63
12/02/2020 02:04:36	120220	12022020	020435	195.35	13.712978	-56.926328	195.59	0.300	-0.740	1.320	195.32	-1.90	1.70	 	 	 	 	 	 	 	 	 	 	 	 	 	 	 	 	 	 	1581473075	11.31	20.95
12/02/2020 02:04:37	120220	12022020	020436	194.89	13.712927	-56.926345	195.00	0.470	-1.670	2.060	194.73	-2.90	2.50	 	 	 	 	 	 	 	 	 	 	 	 	 	 	 	 	 	 	1581473076	11.69	21.65
12/02/2020 02:04:38	120220	12022020	020437	194.16	13.712878	-56.926363	194.32	0.380	-1.700	2.630	194.04	-3.10	3.10	 	 	 	 	 	 	 	 	 	 	 	 	 	 	 	 	 	 	1581473077	11.35	21.02
12/02/2020 02:04:39	120220	12022020	020438	193.78	13.712833	-56.926380	194.05	0.040	-0.630	2.680	193.75	-1.30	3.00	 	 	 	 	 	 	 	 	 	 	 	 	 	 	 	 	 	 	1581473078	10.24	18.96
12/02/2020 02:04:40	120220	12022020	020439	193.76	13.712790	-56.926393	194.07	-0.270	0.560	2.180	193.78	-0.90	2.80	 	 	 	 	 	 	 	 	 	 	 	 	 	 	 	 	 	 	1581473079	9.74	18.04
12/02/2020 02:04:41	120220	12022020	020440	193.88	13.712742	-56.926405	194.19	-0.230	0.730	1.450	193.90	-1.00	1.70	 	 	 	 	 	 	 	 	 	 	 	 	 	 	 	 	 	 	1581473080	10.57	19.58
12/02/2020 02:04:42	120220	12022020	020441	193.92	13.712688	-56.926418	194.20	0.160	-0.150	1.030	193.92	-1.30	1.60	 	 	 	 	 	 	 	 	 	 	 	 	 	 	 	 	 	 	1581473081	11.85	21.95
12/02/2020 02:04:43	120220	12022020	020442	193.89	13.712633	-56.926432	194.19	0.520	-1.010	0.980	193.88	-2.30	1.50	 	 	 	 	 	 	 	 	 	 	 	 	 	 	 	 	 	 	1581473082	12.19	22.58
12/02/2020 02:04:44	120220	12022020	020443	193.88	13.712582	-56.926445	194.20	0.440	-1.120	1.250	193.88	-2.50	1.70	 	 	 	 	 	 	 	 	 	 	 	 	 	 	 	 	 	 	1581473083	11.52	21.34
12/02/2020 02:04:45	120220	12022020	020444	193.94	13.712533	-56.926462	194.26	-0.110	-0.530	1.820	193.95	-2.00	2.20	 	 	 	 	 	 	 	 	 	 	 	 	 	 	 	 	 	 	1581473084	10.69	19.80
12/02/2020 02:04:46	120220	12022020	020445	193.92	13.712488	-56.926482	194.19	-0.650	0.040	2.500	193.88	-1.40	2.90	 	 	 	 	 	 	 	 	 	 	 	 	 	 	 	 	 	 	1581473085	10.56	19.56
12/02/2020 02:04:47	120220	12022020	020446	193.62	13.712440	-56.926500	193.84	-0.700	0.050	2.940	193.54	-1.30	3.40	 	 	 	 	 	 	 	 	 	 	 	 	 	 	 	 	 	 	1581473086	11.15	20.65
12/02/2020 02:04:48	120220	12022020	020447	193.30	13.712388	-56.926517	193.59	-0.350	-0.140	2.840	193.27	-1.50	3.40	 	 	 	 	 	 	 	 	 	 	 	 	 	 	 	 	 	 	1581473087	11.54	21.37
12/02/2020 02:04:49	120220	12022020	020448	193.36	13.712338	-56.926532	193.74	-0.040	-0.100	2.330	193.42	-1.50	2.90	 	 	 	 	 	 	 	 	 	 	 	 	 	 	 	 	 	 	1581473088	11.22	20.78
12/02/2020 02:04:50	120220	12022020	020449	193.78	13.712290	-56.926543	194.19	0.010	0.100	1.730	193.88	-1.30	2.30	 	 	 	 	 	 	 	 	 	 	 	 	 	 	 	 	 	 	1581473089	10.74	19.89
12/02/2020 02:04:51	120220	12022020	020450	194.26	13.712242	-56.926557	194.65	0.010	0.140	1.330	194.35	-1.20	1.90	 	 	 	 	 	 	 	 	 	 	 	 	 	 	 	 	 	 	1581473090	10.66	19.74
12/02/2020 02:04:52	120220	12022020	020451	194.57	13.712193	-56.926570	194.89	0.160	-0.080	1.130	194.60	-1.40	1.70	 	 	 	 	 	 	 	 	 	 	 	 	 	 	 	 	 	 	1581473091	10.85	20.09
12/02/2020 02:04:53	120220	12022020	020452	194.62	13.712143	-56.926582	194.91	0.420	-0.470	1.170	194.61	-1.80	1.70	 	 	 	 	 	 	 	 	 	 	 	 	 	 	 	 	 	 	1581473092	11.07	20.50
12/02/2020 02:04:54	120220	12022020	020453	194.53	13.712093	-56.926595	194.80	0.560	-0.840	1.310	194.50	-2.10	1.80	 	 	 	 	 	 	 	 	 	 	 	 	 	 	 	 	 	 	1581473093	11.18	20.71
12/02/2020 02:04:55	120220	12022020	020454	194.23	13.712043	-56.926608	194.43	0.460	-0.960	1.500	194.14	-2.30	2.00	 	 	 	 	 	 	 	 	 	 	 	 	 	 	 	 	 	 	1581473094	11.07	20.50
12/02/2020 02:04:56	120220	12022020	020455	193.59	13.711993	-56.926623	193.74	0.240	-0.860	1.880	193.43	-2.20	2.30	 	 	 	 	 	 	 	 	 	 	 	 	 	 	 	 	 	 	1581473095	11.04	20.45
12/02/2020 02:04:57	120220	12022020	020456	192.89	13.711945	-56.926638	193.11	0.020	-0.520	2.070	192.78	-1.90	2.60	 	 	 	 	 	 	 	 	 	 	 	 	 	 	 	 	 	 	1581473096	11.03	20.43
12/02/2020 02:04:58	120220	12022020	020457	192.48	13.711895	-56.926652	192.79	-0.200	-0.110	2.040	192.44	-1.50	2.60	 	 	 	 	 	 	 	 	 	 	 	 	 	 	 	 	 	 	1581473097	10.95	20.28
12/02/2020 02:04:59	120220	12022020	020458	192.45	13.711847	-56.926667	192.86	-0.460	0.130	1.960	192.50	-1.20	2.50	 	 	 	 	 	 	 	 	 	 	 	 	 	 	 	 	 	 	1581473098	11.04	20.45
12/02/2020 02:05:00	120220	12022020	020459	192.75	13.711797	-56.926685	193.20	-0.680	0.100	2.060	192.83	-1.20	2.50	 	 	 	 	 	 	 	 	 	 	 	 	 	 	 	 	 	 	1581473099	11.19	20.72
12/02/2020 02:05:01	120220	12022020	020500	193.11	13.711748	-56.926705	193.53	-0.650	-0.140	2.290	193.17	-1.40	2.80	 	 	 	 	 	 	 	 	 	 	 	 	 	 	 	 	 	 	1581473100	11.35	21.02
12/02/2020 02:05:02	120220	12022020	020501	193.32	13.711700	-56.926725	193.70	-0.280	-0.310	2.530	193.34	-1.60	3.00	1017.50	25.90	25.90	21.00	21.10	-1.0	74.0	74.0	395.0	25.6	261.00	10.20	68.00	12.50	15	7095.0	27.2	27.2	1581473101	11.26	20.85
12/02/2020 02:05:03	120220	12022020	020502	193.33	13.711652	-56.926740	193.66	0.260	-0.310	2.500	193.30	-1.60	2.80	 	 	 	 	 	 	 	 	 	 	 	 	 	 	 	 	 	 	1581473102	10.91	20.21
12/02/2020 02:05:04	120220	12022020	020503	193.15	13.711602	-56.926752	193.48	0.730	-0.280	2.060	193.13	-1.60	2.60	 	 	 	 	 	 	 	 	 	 	 	 	 	 	 	 	 	 	1581473103	10.88	20.15
12/02/2020 02:05:05	120220	12022020	020504	193.18	13.711552	-56.926758	193.60	0.820	-0.190	1.530	193.24	-1.50	1.90	 	 	 	 	 	 	 	 	 	 	 	 	 	 	 	 	 	 	1581473104	10.83	20.06
12/02/2020 02:05:06	120220	12022020	020505	193.54	13.711503	-56.926767	193.96	0.530	-0.220	1.270	193.60	-1.50	1.80	 	 	 	 	 	 	 	 	 	 	 	 	 	 	 	 	 	 	1581473105	10.79	19.98
12/02/2020 02:05:07	120220	12022020	020506	193.68	13.711452	-56.926780	194.01	0.200	-0.720	1.570	193.66	-2.00	2.00	 	 	 	 	 	 	 	 	 	 	 	 	 	 	 	 	 	 	1581473106	11.28	20.89
12/02/2020 02:05:08	120220	12022020	020507	193.42	13.711400	-56.926797	193.73	0.040	-1.230	2.210	193.37	-2.50	2.60	 	 	 	 	 	 	 	 	 	 	 	 	 	 	 	 	 	 	1581473107	11.85	21.95
12/02/2020 02:05:09	120220	12022020	020508	193.37	13.711350	-56.926813	193.79	-0.260	-0.800	2.550	193.42	-2.30	3.00	 	 	 	 	 	 	 	 	 	 	 	 	 	 	 	 	 	 	1581473108	11.20	20.74
12/02/2020 02:05:10	120220	12022020	020509	193.68	13.711305	-56.926832	194.12	-0.860	0.270	2.610	193.76	-1.20	3.10	 	 	 	 	 	 	 	 	 	 	 	 	 	 	 	 	 	 	1581473109	10.16	18.82
12/02/2020 02:05:11	120220	12022020	020510	193.96	13.711262	-56.926848	194.31	-1.290	0.800	2.470	193.98	-0.60	3.00	 	 	 	 	 	 	 	 	 	 	 	 	 	 	 	 	 	 	1581473110	10.25	18.98
12/02/2020 02:05:12	120220	12022020	020511	193.90	13.711212	-56.926867	194.14	-0.910	0.270	2.080	193.84	-0.90	2.60	 	 	 	 	 	 	 	 	 	 	 	 	 	 	 	 	 	 	1581473111	11.31	20.95
12/02/2020 02:05:13	120220	12022020	020512	193.52	13.711157	-56.926880	193.72	0.180	-0.600	1.610	193.44	-1.80	2.20	 	 	 	 	 	 	 	 	 	 	 	 	 	 	 	 	 	 	1581473112	12.02	22.26
12/02/2020 02:05:14	120220	12022020	020513	193.18	13.711105	-56.926888	193.42	1.120	-0.820	1.000	193.14	-2.20	1.60	 	 	 	 	 	 	 	 	 	 	 	 	 	 	 	 	 	 	1581473113	11.58	21.45
12/02/2020 02:05:15	120220	12022020	020514	193.06	13.711055	-56.926897	193.34	1.220	-0.460	0.620	193.05	-1.90	1.20	 	 	 	 	 	 	 	 	 	 	 	 	 	 	 	 	 	 	1581473114	10.70	19.82
12/02/2020 02:05:16	120220	12022020	020515	193.04	13.711008	-56.926908	193.34	0.620	-0.150	0.890	193.04	-1.50	1.30	 	 	 	 	 	 	 	 	 	 	 	 	 	 	 	 	 	 	1581473115	10.49	19.43
12/02/2020 02:05:17	120220	12022020	020516	193.02	13.710960	-56.926925	193.34	-0.060	-0.150	1.590	193.01	-1.50	2.50	 	 	 	 	 	 	 	 	 	 	 	 	 	 	 	 	 	 	1581473116	10.84	20.08
12/02/2020 02:05:18	120220	12022020	020517	192.98	13.710913	-56.926945	193.30	-0.370	-0.180	2.270	192.97	-1.50	2.70	 	 	 	 	 	 	 	 	 	 	 	 	 	 	 	 	 	 	1581473117	11.02	20.41
12/02/2020 02:05:19	120220	12022020	020518	193.00	13.710865	-56.926963	193.36	-0.300	-0.200	2.520	193.02	-1.50	3.00	 	 	 	 	 	 	 	 	 	 	 	 	 	 	 	 	 	 	1581473118	10.97	20.32
12/02/2020 02:05:20	120220	12022020	020519	193.11	13.710815	-56.926978	193.49	-0.100	-0.320	2.390	193.14	-1.60	2.90	 	 	 	 	 	 	 	 	 	 	 	 	 	 	 	 	 	 	1581473119	11.04	20.45
12/02/2020 02:05:21	120220	12022020	020520	193.26	13.710765	-56.926992	193.66	0.000	-0.510	2.200	193.31	-1.80	2.70	 	 	 	 	 	 	 	 	 	 	 	 	 	 	 	 	 	 	1581473120	11.20	20.74
12/02/2020 02:05:22	120220	12022020	020521	193.59	13.710715	-56.927005	194.04	-0.110	-0.510	1.840	193.68	-1.90	2.40	 	 	 	 	 	 	 	 	 	 	 	 	 	 	 	 	 	 	1581473121	11.02	20.41
12/02/2020 02:05:23	120220	12022020	020522	194.05	13.710668	-56.927018	194.49	-0.310	-0.290	1.580	194.13	-1.70	2.10	 	 	 	 	 	 	 	 	 	 	 	 	 	 	 	 	 	 	1581473122	10.65	19.72
12/02/2020 02:05:24	120220	12022020	020523	194.26	13.710620	-56.927033	194.56	-0.350	-0.240	1.730	194.23	-1.60	2.20	 	 	 	 	 	 	 	 	 	 	 	 	 	 	 	 	 	 	1581473123	10.67	19.76
12/02/2020 02:05:25	120220	12022020	020524	193.86	13.710570	-56.927048	194.00	-0.020	-0.760	2.180	193.70	-2.00	2.60	 	 	 	 	 	 	 	 	 	 	 	 	 	 	 	 	 	 	1581473124	11.42	21.15
12/02/2020 02:05:26	120220	12022020	020525	192.98	13.710515	-56.927065	193.10	0.440	-1.430	2.620	192.79	-2.70	3.10	 	 	 	 	 	 	 	 	 	 	 	 	 	 	 	 	 	 	1581473125	12.17	22.54
12/02/2020 02:05:27	120220	12022020	020526	192.20	13.710462	-56.927078	192.40	0.570	-1.200	2.730	192.10	-2.00	3.10	 	 	 	 	 	 	 	 	 	 	 	 	 	 	 	 	 	 	1581473126	11.76	21.78
12/02/2020 02:05:28	120220	12022020	020527	191.91	13.710415	-56.927090	192.24	0.130	0.140	2.420	191.92	-1.40	3.00	 	 	 	 	 	 	 	 	 	 	 	 	 	 	 	 	 	 	1581473127	10.41	19.28
12/02/2020 02:05:29	120220	12022020	020528	192.17	13.710372	-56.927102	192.61	-0.600	1.440	1.970	192.28	0.30	2.30	 	 	 	 	 	 	 	 	 	 	 	 	 	 	 	 	 	 	1581473128	9.79	18.13
12/02/2020 02:05:30	120220	12022020	020529	192.75	13.710325	-56.927117	193.17	-0.950	1.560	1.630	192.86	0.30	2.20	 	 	 	 	 	 	 	 	 	 	 	 	 	 	 	 	 	 	1581473129	10.47	19.39
12/02/2020 02:05:31	120220	12022020	020530	193.17	13.710272	-56.927133	193.53	-0.460	0.480	1.590	193.22	-1.60	2.10	 	 	 	 	 	 	 	 	 	 	 	 	 	 	 	 	 	 	1581473130	11.64	21.56
12/02/2020 02:05:32	120220	12022020	020531	193.34	13.710218	-56.927147	193.66	0.500	-0.790	1.630	193.36	-2.00	2.10	 	 	 	 	 	 	 	 	 	 	 	 	 	 	 	 	 	 	1581473131	12.11	22.43
12/02/2020 02:05:33	120220	12022020	020532	193.42	13.710167	-56.927160	193.76	1.010	-1.170	1.680	193.44	-2.50	2.20	 	 	 	 	 	 	 	 	 	 	 	 	 	 	 	 	 	 	1581473132	11.29	20.91
12/02/2020 02:05:34	120220	12022020	020533	193.61	13.710122	-56.927173	193.99	0.690	-0.710	1.840	193.67	-2.20	2.30	 	 	 	 	 	 	 	 	 	 	 	 	 	 	 	 	 	 	1581473133	10.13	18.76
12/02/2020 02:05:35	120220	12022020	020534	193.94	13.710078	-56.927187	194.32	0.000	-0.150	1.810	194.00	-1.60	2.30	 	 	 	 	 	 	 	 	 	 	 	 	 	 	 	 	 	 	1581473134	9.74	18.04
12/02/2020 02:05:36	120220	12022020	020535	194.16	13.710032	-56.927200	194.47	-0.340	-0.180	1.650	194.17	-1.50	2.20	 	 	 	 	 	 	 	 	 	 	 	 	 	 	 	 	 	 	1581473135	10.31	19.09
12/02/2020 02:05:37	120220	12022020	020536	194.02	13.709982	-56.927215	194.24	-0.070	-0.830	1.680	193.95	-2.10	2.20	 	 	 	 	 	 	 	 	 	 	 	 	 	 	 	 	 	 	1581473136	11.29	20.91
12/02/2020 02:05:38	120220	12022020	020537	193.65	13.709928	-56.927230	193.88	0.350	-1.400	1.770	193.58	-2.70	2.30	 	 	 	 	 	 	 	 	 	 	 	 	 	 	 	 	 	 	1581473137	11.73	21.72
12/02/2020 02:05:39	120220	12022020	020538	193.33	13.709878	-56.927243	193.58	0.370	-1.350	1.960	193.27	-2.80	2.40	 	 	 	 	 	 	 	 	 	 	 	 	 	 	 	 	 	 	1581473138	11.38	21.08
12/02/2020 02:05:40	120220	12022020	020539	193.03	13.709830	-56.927260	193.29	-0.080	-0.770	2.280	192.98	-2.20	2.70	 	 	 	 	 	 	 	 	 	 	 	 	 	 	 	 	 	 	1581473139	10.97	20.32
12/02/2020 02:05:41	120220	12022020	020540	192.82	13.709782	-56.927277	193.11	-0.610	0.040	2.410	192.79	-1.40	2.90	 	 	 	 	 	 	 	 	 	 	 	 	 	 	 	 	 	 	1581473140	10.77	19.95
12/02/2020 02:05:42	120220	12022020	020541	192.82	13.709735	-56.927293	193.16	-0.780	0.740	2.200	192.86	-0.70	2.80	 	 	 	 	 	 	 	 	 	 	 	 	 	 	 	 	 	 	1581473141	10.75	19.91
12/02/2020 02:05:43	120220	12022020	020542	193.05	13.709685	-56.927307	193.41	-0.480	0.980	1.720	193.11	-0.50	2.00	 	 	 	 	 	 	 	 	 	 	 	 	 	 	 	 	 	 	1581473142	10.94	20.26
12/02/2020 02:05:44	120220	12022020	020543	193.39	13.709633	-56.927318	193.77	0.000	0.560	1.280	193.47	-0.70	1.80	 	 	 	 	 	 	 	 	 	 	 	 	 	 	 	 	 	 	1581473143	11.39	21.09
12/02/2020 02:05:45	120220	12022020	020544	193.68	13.709582	-56.927330	194.00	0.330	-0.210	1.240	193.71	-1.50	1.70	 	 	 	 	 	 	 	 	 	 	 	 	 	 	 	 	 	 	1581473144	11.61	21.50
12/02/2020 02:05:46	120220	12022020	020545	193.68	13.709530	-56.927345	193.95	0.440	-0.680	1.500	193.66	-2.00	2.00	 	 	 	 	 	 	 	 	 	 	 	 	 	 	 	 	 	 	1581473145	11.34	21.00
12/02/2020 02:05:47	120220	12022020	020546	193.51	13.709482	-56.927357	193.76	0.410	-0.590	1.680	193.47	-2.00	2.20	 	 	 	 	 	 	 	 	 	 	 	 	 	 	 	 	 	 	1581473146	10.71	19.83
12/02/2020 02:05:48	120220	12022020	020547	193.30	13.709435	-56.927368	193.55	0.270	-0.370	1.790	193.26	-1.80	2.30	 	 	 	 	 	 	 	 	 	 	 	 	 	 	 	 	 	 	1581473147	10.47	19.39
12/02/2020 02:05:49	120220	12022020	020548	193.15	13.709387	-56.927382	193.44	-0.020	-0.280	1.870	193.15	-1.70	2.40	 	 	 	 	 	 	 	 	 	 	 	 	 	 	 	 	 	 	1581473148	10.64	19.71
12/02/2020 02:05:50	120220	12022020	020549	193.18	13.709340	-56.927398	193.50	-0.390	-0.250	1.900	193.21	-1.60	2.40	 	 	 	 	 	 	 	 	 	 	 	 	 	 	 	 	 	 	1581473149	10.70	19.82
12/02/2020 02:05:51	120220	12022020	020550	193.23	13.709292	-56.927415	193.51	-0.580	-0.370	1.850	193.21	-1.70	2.40	 	 	 	 	 	 	 	 	 	 	 	 	 	 	 	 	 	 	1581473150	10.81	20.02
12/02/2020 02:05:52	120220	12022020	020551	193.05	13.709243	-56.927433	193.29	-0.260	-0.700	1.810	193.00	-2.00	2.30	 	 	 	 	 	 	 	 	 	 	 	 	 	 	 	 	 	 	1581473151	11.20	20.74
12/02/2020 02:05:53	120220	12022020	020552	192.87	13.709192	-56.927447	193.18	0.370	-0.890	1.490	192.88	-2.10	1.70	 	 	 	 	 	 	 	 	 	 	 	 	 	 	 	 	 	 	1581473152	11.37	21.06
12/02/2020 02:05:54	120220	12022020	020553	193.05	13.709143	-56.927458	193.44	0.720	-0.530	0.890	193.12	-2.00	1.50	 	 	 	 	 	 	 	 	 	 	 	 	 	 	 	 	 	 	1581473153	10.91	20.21
12/02/2020 02:05:55	120220	12022020	020554	193.46	13.709095	-56.927467	193.86	0.530	-0.040	0.480	193.54	-1.30	1.00	 	 	 	 	 	 	 	 	 	 	 	 	 	 	 	 	 	 	1581473154	10.50	19.45
12/02/2020 02:05:56	120220	12022020	020555	193.79	13.709045	-56.927477	194.13	0.100	0.060	0.580	193.82	-1.30	1.00	 	 	 	 	 	 	 	 	 	 	 	 	 	 	 	 	 	 	1581473155	10.73	19.87
12/02/2020 02:05:57	120220	12022020	020556	193.87	13.708995	-56.927492	194.15	-0.190	-0.380	1.140	193.84	-1.60	1.50	 	 	 	 	 	 	 	 	 	 	 	 	 	 	 	 	 	 	1581473156	11.32	20.96
12/02/2020 02:05:58	120220	12022020	020557	193.61	13.708942	-56.927508	193.85	-0.240	-1.050	2.080	193.54	-2.30	2.40	 	 	 	 	 	 	 	 	 	 	 	 	 	 	 	 	 	 	1581473157	11.93	22.09
12/02/2020 02:05:59	120220	12022020	020558	193.16	13.708892	-56.927530	193.38	-0.270	-1.240	2.980	193.05	-2.60	3.40	 	 	 	 	 	 	 	 	 	 	 	 	 	 	 	 	 	 	1581473158	11.86	21.96
12/02/2020 02:06:00	120220	12022020	020559	192.64	13.708843	-56.927548	192.85	-0.320	-0.600	3.330	192.53	-2.10	3.80	 	 	 	 	 	 	 	 	 	 	 	 	 	 	 	 	 	 	1581473159	11.13	20.61
12/02/2020 02:06:01	120220	12022020	020600	192.11	13.708797	-56.927565	192.35	-0.340	0.410	3.190	192.04	-1.10	3.70	 	 	 	 	 	 	 	 	 	 	 	 	 	 	 	 	 	 	1581473160	10.58	19.59
12/02/2020 02:06:02	120220	12022020	020601	192.00	13.708750	-56.927577	192.37	-0.390	1.260	2.500	192.06	-0.20	3.10	1017.50	25.90	26.00	20.80	20.90	-1.0	73.0	73.0	394.0	25.6	260.00	9.50	65.00	11.80	15	7736.0	27.2	27.2	1581473161	10.38	19.22
12/02/2020 02:06:03	120220	12022020	020602	192.53	13.708702	-56.927587	193.00	-0.340	1.490	1.360	192.68	0.10	2.10	 	 	 	 	 	 	 	 	 	 	 	 	 	 	 	 	 	 	1581473162	10.47	19.39
12/02/2020 02:06:04	120220	12022020	020603	193.39	13.708652	-56.927595	193.87	-0.050	0.830	0.390	193.56	-0.40	1.00	 	 	 	 	 	 	 	 	 	 	 	 	 	 	 	 	 	 	1581473163	10.90	20.19
12/02/2020 02:06:05	120220	12022020	020604	194.08	13.708600	-56.927607	194.47	0.490	-0.540	0.270	194.16	-1.70	0.70	 	 	 	 	 	 	 	 	 	 	 	 	 	 	 	 	 	 	1581473164	11.48	21.26
12/02/2020 02:06:06	120220	12022020	020605	194.29	13.708547	-56.927622	194.59	0.970	-1.900	0.870	194.28	-3.10	1.30	 	 	 	 	 	 	 	 	 	 	 	 	 	 	 	 	 	 	1581473165	11.70	21.67
12/02/2020 02:06:07	120220	12022020	020606	194.05	13.708497	-56.927638	194.26	0.990	-2.520	1.920	193.94	-3.80	3.00	 	 	 	 	 	 	 	 	 	 	 	 	 	 	 	 	 	 	1581473166	11.37	21.06
12/02/2020 02:06:08	120220	12022020	020607	193.43	13.708450	-56.927657	193.62	0.500	-2.120	2.890	193.30	-3.60	3.30	 	 	 	 	 	 	 	 	 	 	 	 	 	 	 	 	 	 	1581473167	10.86	20.11
12/02/2020 02:06:09	120220	12022020	020608	192.90	13.708405	-56.927673	193.18	-0.290	-0.840	3.250	192.85	-1.40	3.70	 	 	 	 	 	 	 	 	 	 	 	 	 	 	 	 	 	 	1581473168	10.24	18.96
12/02/2020 02:06:10	120220	12022020	020609	192.84	13.708362	-56.927690	193.20	-0.940	0.590	2.930	192.88	-0.90	3.50	 	 	 	 	 	 	 	 	 	 	 	 	 	 	 	 	 	 	1581473169	9.91	18.35
12/02/2020 02:06:11	120220	12022020	020610	193.14	13.708315	-56.927703	193.51	-1.010	1.110	2.120	193.20	-0.20	2.70	 	 	 	 	 	 	 	 	 	 	 	 	 	 	 	 	 	 	1581473170	10.52	19.48
12/02/2020 02:06:12	120220	12022020	020611	193.34	13.708262	-56.927717	193.63	-0.420	0.430	1.600	193.34	-0.80	2.10	 	 	 	 	 	 	 	 	 	 	 	 	 	 	 	 	 	 	1581473171	11.78	21.82
12/02/2020 02:06:13	120220	12022020	020612	193.18	13.708205	-56.927732	193.42	0.380	-0.550	1.650	193.12	-1.80	2.10	 	 	 	 	 	 	 	 	 	 	 	 	 	 	 	 	 	 	1581473172	12.41	22.98
12/02/2020 02:06:14	120220	12022020	020613	192.89	13.708152	-56.927743	193.15	0.730	-0.740	1.890	192.84	-2.10	2.40	 	 	 	 	 	 	 	 	 	 	 	 	 	 	 	 	 	 	1581473173	11.81	21.87
12/02/2020 02:06:15	120220	12022020	020614	192.76	13.708103	-56.927757	193.09	0.350	-0.090	2.140	192.77	-1.60	2.60	 	 	 	 	 	 	 	 	 	 	 	 	 	 	 	 	 	 	1581473174	10.68	19.78
12/02/2020 02:06:16	120220	12022020	020615	192.97	13.708058	-56.927772	193.41	-0.380	0.720	2.230	193.06	-0.70	2.80	 	 	 	 	 	 	 	 	 	 	 	 	 	 	 	 	 	 	1581473175	10.10	18.71
12/02/2020 02:06:17	120220	12022020	020616	193.57	13.708013	-56.927787	194.04	-0.830	1.020	1.910	193.71	-0.30	2.50	 	 	 	 	 	 	 	 	 	 	 	 	 	 	 	 	 	 	1581473176	10.13	18.76
12/02/2020 02:06:18	120220	12022020	020617	194.17	13.707965	-56.927802	194.55	-0.610	0.360	1.530	194.25	-0.90	2.10	 	 	 	 	 	 	 	 	 	 	 	 	 	 	 	 	 	 	1581473177	10.86	20.11
12/02/2020 02:06:19	120220	12022020	020618	194.33	13.707913	-56.927817	194.59	0.160	-0.920	1.430	194.31	-2.80	1.90	 	 	 	 	 	 	 	 	 	 	 	 	 	 	 	 	 	 	1581473178	11.71	21.69
12/02/2020 02:06:20	120220	12022020	020619	194.19	13.707862	-56.927830	194.46	0.840	-1.690	1.400	194.16	-3.00	1.90	 	 	 	 	 	 	 	 	 	 	 	 	 	 	 	 	 	 	1581473179	11.60	21.48
12/02/2020 02:06:21	120220	12022020	020620	194.11	13.707813	-56.927842	194.43	0.890	-1.450	1.360	194.10	-2.40	1.90	 	 	 	 	 	 	 	 	 	 	 	 	 	 	 	 	 	 	1581473180	10.62	19.67
12/02/2020 02:06:22	120220	12022020	020621	194.03	13.707768	-56.927855	194.29	0.440	-0.760	1.490	193.98	-2.20	2.00	 	 	 	 	 	 	 	 	 	 	 	 	 	 	 	 	 	 	1581473181	10.03	18.58
12/02/2020 02:06:23	120220	12022020	020622	193.68	13.707722	-56.927868	193.90	0.030	-0.370	1.840	193.59	-1.70	2.30	 	 	 	 	 	 	 	 	 	 	 	 	 	 	 	 	 	 	1581473182	10.46	19.37
12/02/2020 02:06:24	120220	12022020	020623	193.22	13.707672	-56.927883	193.48	-0.110	-0.320	2.230	193.15	-1.70	2.70	 	 	 	 	 	 	 	 	 	 	 	 	 	 	 	 	 	 	1581473183	11.21	20.76
12/02/2020 02:06:25	120220	12022020	020624	193.06	13.707622	-56.927900	193.40	-0.220	-0.150	2.360	193.07	-1.50	2.90	 	 	 	 	 	 	 	 	 	 	 	 	 	 	 	 	 	 	1581473184	11.29	20.91
12/02/2020 02:06:26	120220	12022020	020625	193.15	13.707573	-56.927917	193.48	-0.450	0.100	2.310	193.16	-1.30	2.80	 	 	 	 	 	 	 	 	 	 	 	 	 	 	 	 	 	 	1581473185	11.06	20.48
12/02/2020 02:06:27	120220	12022020	020626	193.15	13.707523	-56.927933	193.45	-0.560	0.110	2.240	193.14	-1.20	2.80	 	 	 	 	 	 	 	 	 	 	 	 	 	 	 	 	 	 	1581473186	11.22	20.78
12/02/2020 02:06:28	120220	12022020	020627	193.15	13.707472	-56.927948	193.50	-0.380	0.010	2.000	193.18	-1.30	2.60	 	 	 	 	 	 	 	 	 	 	 	 	 	 	 	 	 	 	1581473187	11.37	21.06
12/02/2020 02:06:29	120220	12022020	020628	193.47	13.707422	-56.927962	193.87	-0.140	0.050	1.630	193.55	-1.30	2.20	 	 	 	 	 	 	 	 	 	 	 	 	 	 	 	 	 	 	1581473188	11.10	20.56
12/02/2020 02:06:30	120220	12022020	020629	193.85	13.707373	-56.927975	194.22	-0.020	0.120	1.400	193.90	-1.20	1.90	 	 	 	 	 	 	 	 	 	 	 	 	 	 	 	 	 	 	1581473189	10.77	19.95
12/02/2020 02:06:31	120220	12022020	020630	193.99	13.707325	-56.927988	194.28	0.110	-0.050	1.280	193.99	-1.40	1.80	 	 	 	 	 	 	 	 	 	 	 	 	 	 	 	 	 	 	1581473190	10.81	20.02
12/02/2020 02:06:32	120220	12022020	020631	193.93	13.707275	-56.928000	194.21	0.310	-0.370	1.240	193.92	-1.70	1.80	 	 	 	 	 	 	 	 	 	 	 	 	 	 	 	 	 	 	1581473191	11.02	20.41
12/02/2020 02:06:33	120220	12022020	020632	194.01	13.707227	-56.928013	194.38	0.410	-0.380	1.180	194.06	-1.80	1.70	 	 	 	 	 	 	 	 	 	 	 	 	 	 	 	 	 	 	1581473192	10.75	19.91
12/02/2020 02:06:34	120220	12022020	020633	194.31	13.707180	-56.928025	194.66	0.290	-0.240	1.140	194.35	-1.60	1.70	 	 	 	 	 	 	 	 	 	 	 	 	 	 	 	 	 	 	1581473193	10.31	19.09
12/02/2020 02:06:35	120220	12022020	020634	194.35	13.707133	-56.928040	194.57	0.150	-0.630	1.410	194.29	-1.90	1.90	 	 	 	 	 	 	 	 	 	 	 	 	 	 	 	 	 	 	1581473194	10.73	19.87
12/02/2020 02:06:36	120220	12022020	020635	193.90	13.707082	-56.928057	194.06	0.210	-1.420	1.950	193.78	-2.70	2.40	 	 	 	 	 	 	 	 	 	 	 	 	 	 	 	 	 	 	1581473195	11.64	21.56
12/02/2020 02:06:37	120220	12022020	020636	193.29	13.707030	-56.928073	193.49	0.320	-1.530	2.370	193.18	-2.90	2.80	 	 	 	 	 	 	 	 	 	 	 	 	 	 	 	 	 	 	1581473196	11.56	21.41
12/02/2020 02:06:38	120220	12022020	020637	192.91	13.706983	-56.928087	193.20	0.170	-0.530	2.340	192.88	-2.10	2.90	 	 	 	 	 	 	 	 	 	 	 	 	 	 	 	 	 	 	1581473197	10.48	19.41
12/02/2020 02:06:39	120220	12022020	020638	192.85	13.706938	-56.928100	193.18	-0.290	0.630	2.150	192.87	-0.90	2.70	 	 	 	 	 	 	 	 	 	 	 	 	 	 	 	 	 	 	1581473198	9.90	18.33
12/02/2020 02:06:40	120220	12022020	020639	192.96	13.706892	-56.928113	193.28	-0.680	0.840	2.080	192.98	-0.50	2.60	 	 	 	 	 	 	 	 	 	 	 	 	 	 	 	 	 	 	1581473199	10.61	19.65
12/02/2020 02:06:41	120220	12022020	020640	192.89	13.706840	-56.928132	193.13	-0.640	0.020	2.280	192.84	-1.20	2.70	 	 	 	 	 	 	 	 	 	 	 	 	 	 	 	 	 	 	1581473200	11.82	21.89
12/02/2020 02:06:42	120220	12022020	020641	192.60	13.706785	-56.928150	192.87	-0.190	-0.840	2.540	192.56	-2.10	3.00	 	 	 	 	 	 	 	 	 	 	 	 	 	 	 	 	 	 	1581473201	12.27	22.72
12/02/2020 02:06:43	120220	12022020	020642	192.59	13.706735	-56.928165	192.97	0.190	-0.680	2.340	192.64	-2.10	2.90	 	 	 	 	 	 	 	 	 	 	 	 	 	 	 	 	 	 	1581473202	11.27	20.87
12/02/2020 02:06:44	120220	12022020	020643	192.90	13.706688	-56.928175	193.30	0.210	0.100	1.790	192.97	-1.40	2.40	 	 	 	 	 	 	 	 	 	 	 	 	 	 	 	 	 	 	1581473203	10.08	18.67
12/02/2020 02:06:45	120220	12022020	020644	193.16	13.706642	-56.928185	193.49	0.070	0.350	1.410	193.18	-1.20	1.80	 	 	 	 	 	 	 	 	 	 	 	 	 	 	 	 	 	 	1581473204	10.27	19.02
12/02/2020 02:06:46	120220	12022020	020645	193.22	13.706592	-56.928197	193.54	0.100	-0.150	1.270	193.23	-1.40	1.80	 	 	 	 	 	 	 	 	 	 	 	 	 	 	 	 	 	 	1581473205	11.16	20.67
12/02/2020 02:06:47	120220	12022020	020646	193.34	13.706540	-56.928207	193.71	0.240	-0.600	1.210	193.39	-1.90	1.70	 	 	 	 	 	 	 	 	 	 	 	 	 	 	 	 	 	 	1581473206	11.36	21.04
12/02/2020 02:06:48	120220	12022020	020647	193.63	13.706490	-56.928220	194.03	0.160	-0.690	1.190	193.70	-2.00	1.70	 	 	 	 	 	 	 	 	 	 	 	 	 	 	 	 	 	 	1581473207	10.95	20.28
12/02/2020 02:06:49	120220	12022020	020648	194.03	13.706443	-56.928233	194.44	-0.170	-0.600	1.230	194.11	-2.00	1.70	 	 	 	 	 	 	 	 	 	 	 	 	 	 	 	 	 	 	1581473208	10.68	19.78
12/02/2020 02:06:50	120220	12022020	020649	194.40	13.706397	-56.928250	194.78	-0.450	-0.450	1.370	194.45	-1.80	1.90	 	 	 	 	 	 	 	 	 	 	 	 	 	 	 	 	 	 	1581473209	10.63	19.69
12/02/2020 02:06:51	120220	12022020	020650	194.51	13.706348	-56.928268	194.81	-0.320	-0.390	1.580	194.49	-1.70	2.10	 	 	 	 	 	 	 	 	 	 	 	 	 	 	 	 	 	 	1581473210	10.77	19.95
12/02/2020 02:06:52	120220	12022020	020651	194.28	13.706300	-56.928283	194.50	0.180	-0.510	1.620	194.20	-1.80	2.10	 	 	 	 	 	 	 	 	 	 	 	 	 	 	 	 	 	 	1581473211	11.11	20.58
12/02/2020 02:06:53	120220	12022020	020652	193.77	13.706248	-56.928295	193.92	0.640	-0.680	1.660	193.64	-2.00	2.20	 	 	 	 	 	 	 	 	 	 	 	 	 	 	 	 	 	 	1581473212	11.38	21.08
12/02/2020 02:06:54	120220	12022020	020653	193.16	13.706197	-56.928308	193.39	0.640	-0.560	1.650	193.08	-2.00	2.20	 	 	 	 	 	 	 	 	 	 	 	 	 	 	 	 	 	 	1581473213	11.32	20.96
12/02/2020 02:06:55	120220	12022020	020654	192.99	13.706148	-56.928320	193.34	0.110	0.170	1.470	193.01	-1.30	2.00	 	 	 	 	 	 	 	 	 	 	 	 	 	 	 	 	 	 	1581473214	10.61	19.65
12/02/2020 02:06:56	120220	12022020	020655	193.19	13.706103	-56.928333	193.54	-0.550	0.820	1.520	193.23	-0.60	2.00	 	 	 	 	 	 	 	 	 	 	 	 	 	 	 	 	 	 	1581473215	10.18	18.85
12/02/2020 02:06:57	120220	12022020	020656	193.29	13.706055	-56.928352	193.60	-0.770	0.570	1.900	193.30	-1.10	2.60	 	 	 	 	 	 	 	 	 	 	 	 	 	 	 	 	 	 	1581473216	10.97	20.32
12/02/2020 02:06:58	120220	12022020	020657	193.36	13.706005	-56.928372	193.72	-0.480	-0.140	2.210	193.39	-1.40	2.70	 	 	 	 	 	 	 	 	 	 	 	 	 	 	 	 	 	 	1581473217	11.66	21.59
12/02/2020 02:06:59	120220	12022020	020658	193.65	13.705955	-56.928388	194.06	-0.100	-0.420	2.130	193.73	-1.80	2.70	 	 	 	 	 	 	 	 	 	 	 	 	 	 	 	 	 	 	1581473218	11.21	20.76
12/02/2020 02:07:00	120220	12022020	020659	194.17	13.705908	-56.928402	194.63	0.030	-0.340	1.650	194.29	-1.70	2.20	 	 	 	 	 	 	 	 	 	 	 	 	 	 	 	 	 	 	1581473219	10.49	19.43
12/02/2020 02:07:01	120220	12022020	020700	194.79	13.705862	-56.928415	195.21	0.020	-0.480	1.230	194.89	-1.80	1.80	 	 	 	 	 	 	 	 	 	 	 	 	 	 	 	 	 	 	1581473220	10.41	19.28
12/02/2020 02:07:02	120220	12022020	020701	195.05	13.705813	-56.928430	195.32	0.330	-1.050	1.070	195.02	-2.30	1.60	1017.60	26.00	26.00	21.10	21.20	-1.0	74.0	74.0	396.0	25.6	263.00	8.30	65.00	10.60	15	8269.0	27.2	27.2	1581473221	10.94	20.26
12/02/2020 02:07:03	120220	12022020	020702	194.66	13.705760	-56.928442	194.84	0.950	-1.630	1.180	194.55	-2.90	1.70	 	 	 	 	 	 	 	 	 	 	 	 	 	 	 	 	 	 	1581473222	11.52	21.34
12/02/2020 02:07:04	120220	12022020	020703	194.10	13.705710	-56.928452	194.30	1.090	-1.430	1.500	193.99	-2.90	1.90	 	 	 	 	 	 	 	 	 	 	 	 	 	 	 	 	 	 	1581473223	11.18	20.71
12/02/2020 02:07:05	120220	12022020	020704	193.59	13.705662	-56.928465	193.82	0.420	-0.640	1.950	193.51	-2.10	2.40	 	 	 	 	 	 	 	 	 	 	 	 	 	 	 	 	 	 	1581473224	10.63	19.69
12/02/2020 02:07:06	120220	12022020	020705	193.29	13.705615	-56.928483	193.60	-0.680	0.140	2.440	193.27	-1.30	2.90	 	 	 	 	 	 	 	 	 	 	 	 	 	 	 	 	 	 	1581473225	10.73	19.87
12/02/2020 02:07:07	120220	12022020	020706	193.32	13.705568	-56.928505	193.69	-1.510	0.660	2.790	193.36	-0.80	3.30	 	 	 	 	 	 	 	 	 	 	 	 	 	 	 	 	 	 	1581473226	11.12	20.59
12/02/2020 02:07:08	120220	12022020	020707	193.59	13.705522	-56.928528	193.98	-1.550	0.950	2.690	193.67	-0.40	3.20	 	 	 	 	 	 	 	 	 	 	 	 	 	 	 	 	 	 	1581473227	11.27	20.87
12/02/2020 02:07:09	120220	12022020	020708	194.02	13.705473	-56.928547	194.40	-0.810	0.990	2.140	194.10	-0.50	2.30	 	 	 	 	 	 	 	 	 	 	 	 	 	 	 	 	 	 	1581473228	11.09	20.54
12/02/2020 02:07:10	120220	12022020	020709	194.35	13.705423	-56.928560	194.65	0.280	0.620	1.500	194.38	-0.70	2.10	 	 	 	 	 	 	 	 	 	 	 	 	 	 	 	 	 	 	1581473229	11.09	20.54
12/02/2020 02:07:11	120220	12022020	020710	194.37	13.705372	-56.928570	194.59	1.140	-0.000	1.120	194.34	-1.70	1.60	 	 	 	 	 	 	 	 	 	 	 	 	 	 	 	 	 	 	1581473230	11.19	20.72
12/02/2020 02:07:12	120220	12022020	020711	194.12	13.705322	-56.928580	194.30	1.400	-0.600	1.080	194.05	-1.90	1.60	 	 	 	 	 	 	 	 	 	 	 	 	 	 	 	 	 	 	1581473231	11.11	20.58
12/02/2020 02:07:13	120220	12022020	020712	193.78	13.705272	-56.928592	194.00	0.990	-0.920	1.390	193.73	-2.30	1.80	 	 	 	 	 	 	 	 	 	 	 	 	 	 	 	 	 	 	1581473232	10.77	19.95
12/02/2020 02:07:14	120220	12022020	020713	193.61	13.705227	-56.928608	193.90	0.260	-0.900	1.700	193.61	-2.30	2.20	 	 	 	 	 	 	 	 	 	 	 	 	 	 	 	 	 	 	1581473233	10.47	19.39
12/02/2020 02:07:15	120220	12022020	020714	193.61	13.705180	-56.928625	193.89	-0.290	-0.850	1.850	193.60	-2.20	2.30	 	 	 	 	 	 	 	 	 	 	 	 	 	 	 	 	 	 	1581473234	10.41	19.28
12/02/2020 02:07:16	120220	12022020	020715	193.47	13.705133	-56.928643	193.70	-0.340	-1.110	2.010	193.42	-2.40	2.50	 	 	 	 	 	 	 	 	 	 	 	 	 	 	 	 	 	 	1581473235	10.97	20.32
12/02/2020 02:07:17	120220	12022020	020716	193.19	13.705082	-56.928660	193.45	-0.150	-1.430	2.040	193.15	-2.80	2.50	 	 	 	 	 	 	 	 	 	 	 	 	 	 	 	 	 	 	1581473236	11.52	21.34
12/02/2020 02:07:18	120220	12022020	020717	193.13	13.705032	-56.928675	193.47	-0.240	-1.160	2.020	193.15	-2.60	2.50	 	 	 	 	 	 	 	 	 	 	 	 	 	 	 	 	 	 	1581473237	11.27	20.87
12/02/2020 02:07:19	120220	12022020	020718	193.27	13.704985	-56.928693	193.61	-0.630	-0.430	2.010	193.31	-1.90	2.50	 	 	 	 	 	 	 	 	 	 	 	 	 	 	 	 	 	 	1581473238	10.78	19.96
12/02/2020 02:07:20	120220	12022020	020719	193.40	13.704937	-56.928708	193.71	-0.810	0.200	1.760	193.42	-1.20	2.30	 	 	 	 	 	 	 	 	 	 	 	 	 	 	 	 	 	 	1581473239	10.80	20.00
12/02/2020 02:07:21	120220	12022020	020720	193.48	13.704887	-56.928722	193.80	-0.350	0.530	1.350	193.51	-0.90	1.90	 	 	 	 	 	 	 	 	 	 	 	 	 	 	 	 	 	 	1581473240	11.16	20.67
12/02/2020 02:07:22	120220	12022020	020721	193.75	13.704835	-56.928732	194.13	0.330	0.750	1.020	193.82	-0.60	1.60	 	 	 	 	 	 	 	 	 	 	 	 	 	 	 	 	 	 	1581473241	11.20	20.74
12/02/2020 02:07:23	120220	12022020	020722	194.10	13.704785	-56.928742	194.42	0.610	0.730	1.090	194.14	-0.60	1.60	 	 	 	 	 	 	 	 	 	 	 	 	 	 	 	 	 	 	1581473242	11.00	20.37
12/02/2020 02:07:24	120220	12022020	020723	194.06	13.704735	-56.928757	194.26	0.420	0.240	1.730	193.99	-1.00	2.10	 	 	 	 	 	 	 	 	 	 	 	 	 	 	 	 	 	 	1581473243	11.13	20.61
12/02/2020 02:07:25	120220	12022020	020724	193.56	13.704685	-56.928775	193.73	0.080	-0.410	2.640	193.45	-1.70	3.00	 	 	 	 	 	 	 	 	 	 	 	 	 	 	 	 	 	 	1581473244	11.41	21.13
12/02/2020 02:07:26	120220	12022020	020725	193.04	13.704637	-56.928795	193.23	-0.160	-0.710	3.260	192.95	-2.00	3.70	 	 	 	 	 	 	 	 	 	 	 	 	 	 	 	 	 	 	1581473245	11.15	20.65
12/02/2020 02:07:27	120220	12022020	020726	192.61	13.704592	-56.928813	192.81	-0.120	-0.670	3.380	192.53	-2.00	3.90	 	 	 	 	 	 	 	 	 	 	 	 	 	 	 	 	 	 	1581473246	10.76	19.93
12/02/2020 02:07:28	120220	12022020	020727	192.24	13.704543	-56.928830	192.45	0.150	-0.530	2.970	192.18	-1.90	3.60	 	 	 	 	 	 	 	 	 	 	 	 	 	 	 	 	 	 	1581473247	10.61	19.65
12/02/2020 02:07:29	120220	12022020	020728	192.07	13.704497	-56.928842	192.34	0.370	-0.400	2.200	192.07	-1.80	2.80	 	 	 	 	 	 	 	 	 	 	 	 	 	 	 	 	 	 	1581473248	10.60	19.63
12/02/2020 02:07:30	120220	12022020	020729	192.16	13.704448	-56.928852	192.47	0.390	-0.410	1.550	192.20	-1.80	2.10	 	 	 	 	 	 	 	 	 	 	 	 	 	 	 	 	 	 	1581473249	10.67	19.76
12/02/2020 02:07:31	120220	12022020	020730	192.36	13.704398	-56.928863	192.66	0.340	-0.660	1.160	192.39	-2.00	1.70	 	 	 	 	 	 	 	 	 	 	 	 	 	 	 	 	 	 	1581473250	10.97	20.32
12/02/2020 02:07:32	120220	12022020	020731	192.50	13.704347	-56.928875	192.83	0.270	-0.980	1.210	192.54	-2.30	1.70	 	 	 	 	 	 	 	 	 	 	 	 	 	 	 	 	 	 	1581473251	11.31	20.95
12/02/2020 02:07:33	120220	12022020	020732	192.78	13.704297	-56.928888	193.20	0.070	-0.890	1.390	192.88	-2.00	2.00	 	 	 	 	 	 	 	 	 	 	 	 	 	 	 	 	 	 	1581473252	11.12	20.59
12/02/2020 02:07:34	120220	12022020	020733	193.33	13.704248	-56.928902	193.80	-0.270	-0.360	1.500	193.45	-1.80	2.00	 	 	 	 	 	 	 	 	 	 	 	 	 	 	 	 	 	 	1581473253	10.60	19.63
12/02/2020 02:07:35	120220	12022020	020734	193.80	13.704202	-56.928917	194.15	-0.500	-0.020	1.680	193.84	-1.40	2.40	 	 	 	 	 	 	 	 	 	 	 	 	 	 	 	 	 	 	1581473254	10.60	19.63
12/02/2020 02:07:36	120220	12022020	020735	193.78	13.704152	-56.928932	194.03	-0.380	-0.200	2.030	193.73	-1.50	2.50	 	 	 	 	 	 	 	 	 	 	 	 	 	 	 	 	 	 	1581473255	11.34	21.00
12/02/2020 02:07:37	120220	12022020	020736	193.51	13.704100	-56.928947	193.78	-0.140	-0.320	2.280	193.48	-1.70	2.80	 	 	 	 	 	 	 	 	 	 	 	 	 	 	 	 	 	 	1581473256	11.55	21.39
12/02/2020 02:07:38	120220	12022020	020737	193.47	13.704050	-56.928960	193.78	-0.120	0.070	2.140	193.48	-1.40	2.70	 	 	 	 	 	 	 	 	 	 	 	 	 	 	 	 	 	 	1581473257	10.91	20.21
12/02/2020 02:07:39	120220	12022020	020738	193.49	13.704003	-56.928973	193.74	-0.240	0.350	2.030	193.47	-1.00	2.50	 	 	 	 	 	 	 	 	 	 	 	 	 	 	 	 	 	 	1581473258	10.59	19.61
12/02/2020 02:07:40	120220	12022020	020739	193.25	13.703953	-56.928990	193.44	-0.130	0.050	2.040	193.17	-1.30	2.50	 	 	 	 	 	 	 	 	 	 	 	 	 	 	 	 	 	 	1581473259	11.12	20.59
12/02/2020 02:07:41	120220	12022020	020740	192.86	13.703902	-56.929005	193.04	0.260	-0.350	2.050	192.78	-1.70	2.60	 	 	 	 	 	 	 	 	 	 	 	 	 	 	 	 	 	 	1581473260	11.43	21.17
12/02/2020 02:07:42	120220	12022020	020741	192.46	13.703853	-56.929017	192.65	0.550	-0.370	2.060	192.38	-1.80	2.60	 	 	 	 	 	 	 	 	 	 	 	 	 	 	 	 	 	 	1581473261	11.01	20.39
12/02/2020 02:07:43	120220	12022020	020742	192.08	13.703805	-56.929030	192.29	0.490	-0.280	2.030	192.01	-1.70	2.50	 	 	 	 	 	 	 	 	 	 	 	 	 	 	 	 	 	 	1581473262	10.73	19.87
12/02/2020 02:07:44	120220	12022020	020743	191.83	13.703755	-56.929042	192.12	0.190	-0.390	2.060	191.82	-1.70	2.60	 	 	 	 	 	 	 	 	 	 	 	 	 	 	 	 	 	 	1581473263	10.96	20.30
12/02/2020 02:07:45	120220	12022020	020744	191.99	13.703707	-56.929057	192.37	-0.200	-0.410	2.070	192.06	-1.80	2.60	 	 	 	 	 	 	 	 	 	 	 	 	 	 	 	 	 	 	1581473264	11.01	20.39
12/02/2020 02:07:46	120220	12022020	020745	192.45	13.703658	-56.929073	192.89	-0.420	-0.160	1.960	192.57	-1.60	2.50	 	 	 	 	 	 	 	 	 	 	 	 	 	 	 	 	 	 	1581473265	10.66	19.74
12/02/2020 02:07:47	120220	12022020	020746	193.10	13.703612	-56.929087	193.57	-0.290	0.030	1.450	193.24	-1.40	1.70	 	 	 	 	 	 	 	 	 	 	 	 	 	 	 	 	 	 	1581473266	10.46	19.37
12/02/2020 02:07:48	120220	12022020	020747	193.75	13.703563	-56.929097	194.16	0.070	-0.260	1.090	193.84	-1.60	1.60	 	 	 	 	 	 	 	 	 	 	 	 	 	 	 	 	 	 	1581473267	10.83	20.06
12/02/2020 02:07:49	120220	12022020	020748	194.10	13.703512	-56.929110	194.43	0.410	-0.900	1.160	194.13	-2.20	1.60	 	 	 	 	 	 	 	 	 	 	 	 	 	 	 	 	 	 	1581473268	11.36	21.04
12/02/2020 02:07:50	120220	12022020	020749	194.23	13.703460	-56.929123	194.56	0.460	-1.160	1.270	194.25	-2.50	1.80	 	 	 	 	 	 	 	 	 	 	 	 	 	 	 	 	 	 	1581473269	11.27	20.87
12/02/2020 02:07:51	120220	12022020	020750	194.28	13.703413	-56.929137	194.56	0.210	-0.830	1.470	194.26	-2.30	1.90	 	 	 	 	 	 	 	 	 	 	 	 	 	 	 	 	 	 	1581473270	10.63	19.69
12/02/2020 02:07:52	120220	12022020	020751	194.00	13.703365	-56.929150	194.19	-0.040	-0.540	1.810	193.90	-1.90	2.30	 	 	 	 	 	 	 	 	 	 	 	 	 	 	 	 	 	 	1581473271	10.68	19.78
12/02/2020 02:07:53	120220	12022020	020752	193.39	13.703315	-56.929165	193.53	-0.170	-0.520	2.180	193.25	-1.90	2.60	 	 	 	 	 	 	 	 	 	 	 	 	 	 	 	 	 	 	1581473272	11.28	20.89
12/02/2020 02:07:54	120220	12022020	020753	192.78	13.703263	-56.929180	192.98	-0.290	-0.370	2.360	192.68	-1.80	2.90	 	 	 	 	 	 	 	 	 	 	 	 	 	 	 	 	 	 	1581473273	11.50	21.30
12/02/2020 02:07:55	120220	12022020	020754	192.47	13.703213	-56.929197	192.74	-0.470	0.140	2.150	192.44	-1.30	2.70	 	 	 	 	 	 	 	 	 	 	 	 	 	 	 	 	 	 	1581473274	11.11	20.58
12/02/2020 02:07:56	120220	12022020	020755	192.48	13.703167	-56.929212	192.82	-0.600	0.690	1.820	192.52	-0.80	2.40	 	 	 	 	 	 	 	 	 	 	 	 	 	 	 	 	 	 	1581473275	10.77	19.95
12/02/2020 02:07:57	120220	12022020	020756	192.82	13.703118	-56.929225	193.23	-0.570	0.900	1.410	192.92	-0.50	2.00	 	 	 	 	 	 	 	 	 	 	 	 	 	 	 	 	 	 	1581473276	10.76	19.93
12/02/2020 02:07:58	120220	12022020	020757	193.29	13.703068	-56.929238	193.67	-0.430	0.560	1.230	193.36	-0.70	1.70	 	 	 	 	 	 	 	 	 	 	 	 	 	 	 	 	 	 	1581473277	11.01	20.39
12/02/2020 02:07:59	120220	12022020	020758	193.54	13.703018	-56.929257	193.85	-0.140	-0.160	1.550	193.55	-1.90	2.20	 	 	 	 	 	 	 	 	 	 	 	 	 	 	 	 	 	 	1581473278	11.28	20.89
12/02/2020 02:08:00	120220	12022020	020759	193.53	13.702970	-56.929273	193.80	0.320	-0.710	1.790	193.50	-2.00	2.30	 	 	 	 	 	 	 	 	 	 	 	 	 	 	 	 	 	 	1581473279	11.17	20.69
12/02/2020 02:08:01	120220	12022020	020800	193.42	13.702922	-56.929285	193.69	0.890	-0.730	1.540	193.40	-2.00	1.80	 	 	 	 	 	 	 	 	 	 	 	 	 	 	 	 	 	 	1581473280	10.59	19.61
12/02/2020 02:08:02	120220	12022020	020801	193.39	13.702873	-56.929292	193.69	1.200	-0.620	1.060	193.40	-2.00	1.60	1017.50	25.90	26.00	21.20	21.30	-1.0	75.0	75.0	403.0	25.6	263.00	9.40	67.00	11.50	15	7729.0	27.2	27.2	1581473281	10.40	19.26
12/02/2020 02:08:03	120220	12022020	020802	193.45	13.702825	-56.929300	193.75	0.960	-0.810	0.970	193.46	-2.20	1.40	 	 	 	 	 	 	 	 	 	 	 	 	 	 	 	 	 	 	1581473282	10.69	19.80
12/02/2020 02:08:04	120220	12022020	020803	193.32	13.702775	-56.929313	193.52	0.290	-1.270	1.770	193.23	-2.60	2.10	 	 	 	 	 	 	 	 	 	 	 	 	 	 	 	 	 	 	1581473283	11.06	20.48
12/02/2020 02:08:05	120220	12022020	020804	192.66	13.702725	-56.929333	192.75	-0.320	-1.710	3.040	192.47	-3.00	3.30	 	 	 	 	 	 	 	 	 	 	 	 	 	 	 	 	 	 	1581473284	11.64	21.56
12/02/2020 02:08:06	120220	12022020	020805	191.71	13.702673	-56.929355	191.85	-0.690	-1.650	4.050	191.55	-3.10	4.40	 	 	 	 	 	 	 	 	 	 	 	 	 	 	 	 	 	 	1581473285	11.88	22.00
12/02/2020 02:08:07	120220	12022020	020806	191.08	13.702625	-56.929377	191.37	-0.910	-0.790	4.370	191.03	-2.30	4.90	 	 	 	 	 	 	 	 	 	 	 	 	 	 	 	 	 	 	1581473286	11.44	21.19
12/02/2020 02:08:08	120220	12022020	020807	191.12	13.702578	-56.929395	191.59	-1.080	0.580	3.830	191.23	-1.00	4.50	 	 	 	 	 	 	 	 	 	 	 	 	 	 	 	 	 	 	1581473287	10.71	19.83
12/02/2020 02:08:09	120220	12022020	020808	191.94	13.702533	-56.929408	192.52	-1.110	1.750	2.630	192.17	0.20	3.30	 	 	 	 	 	 	 	 	 	 	 	 	 	 	 	 	 	 	1581473288	10.23	18.95
12/02/2020 02:08:10	120220	12022020	020809	193.11	13.702485	-56.929418	193.63	-0.790	1.970	1.380	193.32	0.60	2.00	 	 	 	 	 	 	 	 	 	 	 	 	 	 	 	 	 	 	1581473289	10.53	19.50
12/02/2020 02:08:11	120220	12022020	020810	193.94	13.702432	-56.929427	194.31	-0.060	0.970	0.780	194.04	-0.20	1.30	 	 	 	 	 	 	 	 	 	 	 	 	 	 	 	 	 	 	1581473290	11.44	21.19
12/02/2020 02:08:12	120220	12022020	020811	194.20	13.702378	-56.929438	194.43	0.710	-0.560	0.950	194.17	-1.70	1.40	 	 	 	 	 	 	 	 	 	 	 	 	 	 	 	 	 	 	1581473291	11.95	22.13
12/02/2020 02:08:13	120220	12022020	020812	193.95	13.702327	-56.929452	194.14	1.110	-1.470	1.460	193.87	-2.80	2.20	 	 	 	 	 	 	 	 	 	 	 	 	 	 	 	 	 	 	1581473292	11.48	21.26
12/02/2020 02:08:14	120220	12022020	020813	193.59	13.702280	-56.929463	193.80	1.020	-1.210	1.780	193.53	-2.70	2.30	 	 	 	 	 	 	 	 	 	 	 	 	 	 	 	 	 	 	1581473293	10.31	19.09
12/02/2020 02:08:15	120220	12022020	020814	193.31	13.702237	-56.929473	193.54	0.650	-0.470	1.740	193.26	-1.90	2.30	 	 	 	 	 	 	 	 	 	 	 	 	 	 	 	 	 	 	1581473294	9.59	17.76
12/02/2020 02:08:16	120220	12022020	020815	193.05	13.702190	-56.929483	193.31	0.330	-0.230	1.590	193.01	-1.60	2.10	 	 	 	 	 	 	 	 	 	 	 	 	 	 	 	 	 	 	1581473295	10.11	18.72
12/02/2020 02:08:17	120220	12022020	020816	192.96	13.702140	-56.929497	193.27	0.100	-0.590	1.350	192.98	-1.90	1.90	 	 	 	 	 	 	 	 	 	 	 	 	 	 	 	 	 	 	1581473296	11.01	20.39
12/02/2020 02:08:18	120220	12022020	020817	193.15	13.702090	-56.929512	193.53	-0.170	-0.950	1.300	193.22	-2.30	1.80	 	 	 	 	 	 	 	 	 	 	 	 	 	 	 	 	 	 	1581473297	11.32	20.96
12/02/2020 02:08:19	120220	12022020	020818	193.56	13.702042	-56.929530	193.95	-0.520	-0.890	1.590	193.64	-2.30	2.00	 	 	 	 	 	 	 	 	 	 	 	 	 	 	 	 	 	 	1581473298	11.02	20.41
12/02/2020 02:08:20	120220	12022020	020819	193.90	13.701995	-56.929550	194.23	-0.750	-0.630	1.990	193.93	-2.00	2.40	 	 	 	 	 	 	 	 	 	 	 	 	 	 	 	 	 	 	1581473299	10.81	20.02
12/02/2020 02:08:21	120220	12022020	020820	193.87	13.701947	-56.929568	194.11	-0.600	-0.600	2.380	193.82	-2.00	2.80	 	 	 	 	 	 	 	 	 	 	 	 	 	 	 	 	 	 	1581473300	11.17	20.69
12/02/2020 02:08:22	120220	12022020	020821	193.61	13.701897	-56.929587	193.86	-0.220	-0.540	2.520	193.57	-1.90	3.00	 	 	 	 	 	 	 	 	 	 	 	 	 	 	 	 	 	 	1581473301	11.47	21.24
12/02/2020 02:08:23	120220	12022020	020822	193.48	13.701847	-56.929600	193.75	-0.010	-0.040	2.270	193.48	-1.50	2.80	 	 	 	 	 	 	 	 	 	 	 	 	 	 	 	 	 	 	1581473302	11.05	20.46
12/02/2020 02:08:24	120220	12022020	020823	193.43	13.701798	-56.929612	193.65	-0.020	0.520	1.830	193.39	-0.90	2.40	 	 	 	 	 	 	 	 	 	 	 	 	 	 	 	 	 	 	1581473303	10.66	19.74
12/02/2020 02:08:25	120220	12022020	020824	193.12	13.701748	-56.929622	193.28	-0.020	0.560	1.570	193.04	-1.00	2.10	 	 	 	 	 	 	 	 	 	 	 	 	 	 	 	 	 	 	1581473304	10.99	20.35
12/02/2020 02:08:26	120220	12022020	020825	192.73	13.701697	-56.929633	192.97	0.090	0.330	1.550	192.70	-1.00	2.10	 	 	 	 	 	 	 	 	 	 	 	 	 	 	 	 	 	 	1581473305	11.36	21.04
12/02/2020 02:08:27	120220	12022020	020826	192.71	13.701648	-56.929645	193.04	0.100	0.390	1.400	192.75	-1.00	1.90	 	 	 	 	 	 	 	 	 	 	 	 	 	 	 	 	 	 	1581473306	10.85	20.09
12/02/2020 02:08:28	120220	12022020	020827	192.99	13.701602	-56.929658	193.35	-0.030	0.380	1.370	193.06	-1.00	1.90	 	 	 	 	 	 	 	 	 	 	 	 	 	 	 	 	 	 	1581473307	10.38	19.22
12/02/2020 02:08:29	120220	12022020	020828	193.26	13.701555	-56.929675	193.55	0.020	-0.130	1.630	193.28	-1.40	2.10	 	 	 	 	 	 	 	 	 	 	 	 	 	 	 	 	 	 	1581473308	10.69	19.80
12/02/2020 02:08:30	120220	12022020	020829	193.28	13.701505	-56.929690	193.56	0.380	-0.910	1.820	193.28	-2.20	2.30	 	 	 	 	 	 	 	 	 	 	 	 	 	 	 	 	 	 	1581473309	11.15	20.65
12/02/2020 02:08:31	120220	12022020	020830	193.29	13.701457	-56.929705	193.59	0.720	-1.320	1.850	193.31	-2.70	2.40	 	 	 	 	 	 	 	 	 	 	 	 	 	 	 	 	 	 	1581473310	10.96	20.30
12/02/2020 02:08:32	120220	12022020	020831	193.31	13.701408	-56.929717	193.59	0.730	-1.260	1.750	193.29	-2.70	2.30	 	 	 	 	 	 	 	 	 	 	 	 	 	 	 	 	 	 	1581473311	10.54	19.52
12/02/2020 02:08:33	120220	12022020	020832	193.12	13.701360	-56.929728	193.34	0.450	-1.130	1.760	193.05	-2.50	2.20	 	 	 	 	 	 	 	 	 	 	 	 	 	 	 	 	 	 	1581473312	10.60	19.63
12/02/2020 02:08:34	120220	12022020	020833	192.72	13.701310	-56.929742	192.93	0.050	-1.100	2.100	192.64	-2.50	2.50	 	 	 	 	 	 	 	 	 	 	 	 	 	 	 	 	 	 	1581473313	11.13	20.61
12/02/2020 02:08:35	120220	12022020	020834	192.39	13.701260	-56.929758	192.69	-0.410	-0.880	2.570	192.38	-2.30	3.00	 	 	 	 	 	 	 	 	 	 	 	 	 	 	 	 	 	 	1581473314	11.40	21.11
12/02/2020 02:08:36	120220	12022020	020835	192.49	13.701212	-56.929778	192.87	-0.790	-0.200	2.870	192.55	-1.70	3.40	 	 	 	 	 	 	 	 	 	 	 	 	 	 	 	 	 	 	1581473315	11.07	20.50
12/02/2020 02:08:37	120220	12022020	020836	192.87	13.701167	-56.929795	193.24	-0.900	0.640	2.810	192.94	-0.50	3.20	 	 	 	 	 	 	 	 	 	 	 	 	 	 	 	 	 	 	1581473316	10.59	19.61
12/02/2020 02:08:38	120220	12022020	020837	193.13	13.701117	-56.929810	193.45	-0.570	0.900	2.470	193.16	-0.50	3.00	 	 	 	 	 	 	 	 	 	 	 	 	 	 	 	 	 	 	1581473317	10.89	20.17
12/02/2020 02:08:39	120220	12022020	020838	193.26	13.701065	-56.929822	193.55	-0.040	0.570	2.140	193.27	-0.80	2.70	 	 	 	 	 	 	 	 	 	 	 	 	 	 	 	 	 	 	1581473318	11.43	21.17
12/02/2020 02:08:40	120220	12022020	020839	193.39	13.701013	-56.929833	193.71	0.330	0.210	1.650	193.42	-1.10	2.20	 	 	 	 	 	 	 	 	 	 	 	 	 	 	 	 	 	 	1581473319	11.38	21.08
12/02/2020 02:08:41	120220	12022020	020840	193.52	13.700963	-56.929843	193.82	0.390	0.000	1.140	193.53	-1.40	1.70	 	 	 	 	 	 	 	 	 	 	 	 	 	 	 	 	 	 	1581473320	10.95	20.28
12/02/2020 02:08:42	120220	12022020	020841	193.52	13.700915	-56.929855	193.80	0.330	-0.150	0.800	193.52	-1.50	1.40	 	 	 	 	 	 	 	 	 	 	 	 	 	 	 	 	 	 	1581473321	10.71	19.83
12/02/2020 02:08:43	120220	12022020	020842	193.57	13.700867	-56.929867	193.89	0.350	-0.290	0.540	193.60	-1.70	1.10	 	 	 	 	 	 	 	 	 	 	 	 	 	 	 	 	 	 	1581473322	10.58	19.59
12/02/2020 02:08:44	120220	12022020	020843	193.71	13.700818	-56.929878	194.01	0.410	-0.630	0.670	193.73	-1.90	1.10	 	 	 	 	 	 	 	 	 	 	 	 	 	 	 	 	 	 	1581473323	10.68	19.78
12/02/2020 02:08:45	120220	12022020	020844	193.66	13.700770	-56.929893	193.89	0.440	-1.240	1.240	193.61	-2.50	1.60	 	 	 	 	 	 	 	 	 	 	 	 	 	 	 	 	 	 	1581473324	11.12	20.59
12/02/2020 02:08:46	120220	12022020	020845	193.22	13.700718	-56.929910	193.37	0.380	-1.800	2.120	193.09	-3.10	2.50	 	 	 	 	 	 	 	 	 	 	 	 	 	 	 	 	 	 	1581473325	11.56	21.41
12/02/2020 02:08:47	120220	12022020	020846	192.58	13.700668	-56.929930	192.76	0.130	-1.700	2.910	192.47	-3.10	3.30	 	 	 	 	 	 	 	 	 	 	 	 	 	 	 	 	 	 	1581473326	11.43	21.17
12/02/2020 02:08:48	120220	12022020	020847	192.17	13.700622	-56.929947	192.46	-0.370	-0.700	3.130	192.15	-2.20	3.60	 	 	 	 	 	 	 	 	 	 	 	 	 	 	 	 	 	 	1581473327	10.67	19.76
12/02/2020 02:08:49	120220	12022020	020848	192.25	13.700578	-56.929962	192.63	-0.960	0.550	2.740	192.31	-0.40	3.00	 	 	 	 	 	 	 	 	 	 	 	 	 	 	 	 	 	 	1581473328	10.11	18.72
12/02/2020 02:08:50	120220	12022020	020849	192.64	13.700532	-56.929977	193.02	-1.270	1.100	2.190	192.73	-0.30	2.80	 	 	 	 	 	 	 	 	 	 	 	 	 	 	 	 	 	 	1581473329	10.50	19.45
12/02/2020 02:08:51	120220	12022020	020850	193.09	13.700480	-56.929993	193.44	-0.970	0.760	1.610	193.17	-0.90	1.80	 	 	 	 	 	 	 	 	 	 	 	 	 	 	 	 	 	 	1581473330	11.33	20.98
12/02/2020 02:08:52	120220	12022020	020851	193.47	13.700428	-56.930005	193.80	-0.150	0.160	1.050	193.53	-1.10	1.60	 	 	 	 	 	 	 	 	 	 	 	 	 	 	 	 	 	 	1581473331	11.61	21.50
12/02/2020 02:08:53	120220	12022020	020852	193.84	13.700377	-56.930017	194.18	0.760	-0.170	0.610	193.92	-1.50	1.20	 	 	 	 	 	 	 	 	 	 	 	 	 	 	 	 	 	 	1581473332	11.24	20.82
12/02/2020 02:08:54	120220	12022020	020853	194.12	13.700327	-56.930023	194.39	1.290	-0.280	0.490	194.13	-1.60	1.00	 	 	 	 	 	 	 	 	 	 	 	 	 	 	 	 	 	 	1581473333	10.75	19.91
12/02/2020 02:08:55	120220	12022020	020854	193.92	13.700278	-56.930032	194.07	1.300	-0.610	0.970	193.82	-1.90	1.40	 	 	 	 	 	 	 	 	 	 	 	 	 	 	 	 	 	 	1581473334	10.83	20.06
12/02/2020 02:08:56	120220	12022020	020855	193.26	13.700227	-56.930045	193.35	0.830	-1.090	1.980	193.09	-2.40	2.30	 	 	 	 	 	 	 	 	 	 	 	 	 	 	 	 	 	 	1581473335	11.21	20.76
12/02/2020 02:08:57	120220	12022020	020856	192.39	13.700177	-56.930065	192.52	0.120	-1.260	3.130	192.23	-2.60	3.50	 	 	 	 	 	 	 	 	 	 	 	 	 	 	 	 	 	 	1581473336	11.40	21.11
12/02/2020 02:08:58	120220	12022020	020857	191.73	13.700130	-56.930085	192.00	-0.570	-0.710	3.640	191.67	-2.20	4.10	 	 	 	 	 	 	 	 	 	 	 	 	 	 	 	 	 	 	1581473337	11.05	20.46
12/02/2020 02:08:59	120220	12022020	020858	191.69	13.700087	-56.930105	192.11	-1.040	0.330	3.370	191.77	-1.20	3.90	 	 	 	 	 	 	 	 	 	 	 	 	 	 	 	 	 	 	1581473338	10.33	19.13
12/02/2020 02:09:00	120220	12022020	020859	192.28	13.700042	-56.930120	192.78	-1.070	1.070	2.490	192.45	-0.40	3.10	 	 	 	 	 	 	 	 	 	 	 	 	 	 	 	 	 	 	1581473339	10.07	18.65
12/02/2020 02:09:01	120220	12022020	020900	193.11	13.699993	-56.930132	193.58	-0.560	0.760	1.430	193.27	-0.50	2.10	 	 	 	 	 	 	 	 	 	 	 	 	 	 	 	 	 	 	1581473340	10.71	19.83
12/02/2020 02:09:02	120220	12022020	020901	193.74	13.699940	-56.930142	194.12	0.250	-0.470	0.760	193.83	-1.70	1.30	1017.40	25.90	25.90	21.10	21.10	-1.0	74.0	74.0	415.0	25.6	260.00	9.00	64.00	11.40	15	7392.0	27.2	27.2	1581473341	11.74	21.74
12/02/2020 02:09:03	120220	12022020	020902	194.10	13.699887	-56.930155	194.45	0.770	-1.520	0.740	194.15	-2.80	1.20	 	 	 	 	 	 	 	 	 	 	 	 	 	 	 	 	 	 	1581473342	11.84	21.93
12/02/2020 02:09:04	120220	12022020	020903	194.36	13.699837	-56.930167	194.69	0.630	-1.550	1.030	194.40	-3.00	1.50	 	 	 	 	 	 	 	 	 	 	 	 	 	 	 	 	 	 	1581473343	10.85	20.09
12/02/2020 02:09:05	120220	12022020	020904	194.44	13.699792	-56.930180	194.69	0.110	-1.020	1.500	194.42	-2.50	1.90	 	 	 	 	 	 	 	 	 	 	 	 	 	 	 	 	 	 	1581473344	10.17	18.83
12/02/2020 02:09:06	120220	12022020	020905	194.14	13.699745	-56.930197	194.29	-0.260	-0.730	2.120	194.03	-2.10	2.50	 	 	 	 	 	 	 	 	 	 	 	 	 	 	 	 	 	 	1581473345	10.62	19.67
12/02/2020 02:09:07	120220	12022020	020906	193.54	13.699695	-56.930213	193.70	-0.290	-0.620	2.470	193.43	-2.00	3.00	 	 	 	 	 	 	 	 	 	 	 	 	 	 	 	 	 	 	1581473346	11.33	20.98
12/02/2020 02:09:08	120220	12022020	020907	193.19	13.699645	-56.930227	193.47	-0.240	-0.080	2.170	193.18	-1.60	2.70	 	 	 	 	 	 	 	 	 	 	 	 	 	 	 	 	 	 	1581473347	11.18	20.71
12/02/2020 02:09:09	120220	12022020	020908	193.31	13.699597	-56.930240	193.66	-0.320	0.820	1.530	193.38	-0.70	2.10	 	 	 	 	 	 	 	 	 	 	 	 	 	 	 	 	 	 	1581473348	10.53	19.50
12/02/2020 02:09:10	120220	12022020	020909	193.71	13.699550	-56.930253	194.07	-0.360	1.370	0.850	193.79	-0.00	1.40	 	 	 	 	 	 	 	 	 	 	 	 	 	 	 	 	 	 	1581473349	10.37	19.21
12/02/2020 02:09:11	120220	12022020	020910	194.04	13.699502	-56.930265	194.35	-0.050	1.090	0.500	194.09	-0.20	1.00	 	 	 	 	 	 	 	 	 	 	 	 	 	 	 	 	 	 	1581473350	10.88	20.15
12/02/2020 02:09:12	120220	12022020	020911	194.24	13.699450	-56.930277	194.53	0.390	0.270	0.740	194.26	-1.00	1.20	 	 	 	 	 	 	 	 	 	 	 	 	 	 	 	 	 	 	1581473351	11.28	20.89
12/02/2020 02:09:13	120220	12022020	020912	194.24	13.699400	-56.930293	194.48	0.580	-0.620	1.420	194.20	-2.40	2.30	 	 	 	 	 	 	 	 	 	 	 	 	 	 	 	 	 	 	1581473352	11.27	20.87
12/02/2020 02:09:14	120220	12022020	020913	193.95	13.699352	-56.930310	194.16	0.460	-1.260	2.150	193.88	-2.60	2.50	 	 	 	 	 	 	 	 	 	 	 	 	 	 	 	 	 	 	1581473353	11.10	20.56
12/02/2020 02:09:15	120220	12022020	020914	193.60	13.699305	-56.930328	193.82	0.260	-1.360	2.640	193.53	-2.80	3.10	 	 	 	 	 	 	 	 	 	 	 	 	 	 	 	 	 	 	1581473354	10.72	19.85
12/02/2020 02:09:16	120220	12022020	020915	193.31	13.699258	-56.930343	193.56	0.110	-1.140	2.590	193.26	-2.50	3.10	 	 	 	 	 	 	 	 	 	 	 	 	 	 	 	 	 	 	1581473355	10.38	19.22
12/02/2020 02:09:17	120220	12022020	020916	193.13	13.699212	-56.930357	193.40	-0.010	-0.950	2.190	193.10	-2.30	2.80	 	 	 	 	 	 	 	 	 	 	 	 	 	 	 	 	 	 	1581473356	10.51	19.46
12/02/2020 02:09:18	120220	12022020	020917	192.98	13.699163	-56.930370	193.24	-0.130	-0.860	1.880	192.95	-2.20	2.40	 	 	 	 	 	 	 	 	 	 	 	 	 	 	 	 	 	 	1581473357	10.82	20.04
12/02/2020 02:09:19	120220	12022020	020918	192.83	13.699115	-56.930385	193.08	-0.230	-0.700	1.720	192.80	-2.10	2.20	 	 	 	 	 	 	 	 	 	 	 	 	 	 	 	 	 	 	1581473358	10.97	20.32
12/02/2020 02:09:20	120220	12022020	020919	192.68	13.699065	-56.930400	192.95	-0.210	-0.490	1.810	192.65	-1.90	2.30	 	 	 	 	 	 	 	 	 	 	 	 	 	 	 	 	 	 	1581473359	11.03	20.43
12/02/2020 02:09:21	120220	12022020	020920	192.51	13.699015	-56.930415	192.78	-0.010	-0.300	2.120	192.48	-1.70	2.60	 	 	 	 	 	 	 	 	 	 	 	 	 	 	 	 	 	 	1581473360	11.19	20.72
12/02/2020 02:09:22	120220	12022020	020921	192.43	13.698965	-56.930430	192.74	0.160	-0.020	2.390	192.43	-1.40	2.90	 	 	 	 	 	 	 	 	 	 	 	 	 	 	 	 	 	 	1581473361	11.23	20.80
12/02/2020 02:09:23	120220	12022020	020922	192.40	13.698915	-56.930443	192.69	0.090	0.260	2.700	192.38	-1.20	3.20	 	 	 	 	 	 	 	 	 	 	 	 	 	 	 	 	 	 	1581473362	11.16	20.67
12/02/2020 02:09:24	120220	12022020	020923	192.36	13.698865	-56.930458	192.70	-0.140	0.530	2.710	192.39	-0.90	3.20	 	 	 	 	 	 	 	 	 	 	 	 	 	 	 	 	 	 	1581473363	11.16	20.67
12/02/2020 02:09:25	120220	12022020	020924	192.76	13.698817	-56.930472	193.24	-0.410	0.960	2.420	192.91	-0.50	3.00	 	 	 	 	 	 	 	 	 	 	 	 	 	 	 	 	 	 	1581473364	10.65	19.72
12/02/2020 02:09:26	120220	12022020	020925	193.65	13.698772	-56.930483	194.17	-0.500	1.170	1.860	193.86	-0.20	2.50	 	 	 	 	 	 	 	 	 	 	 	 	 	 	 	 	 	 	1581473365	10.25	18.98
12/02/2020 02:09:27	120220	12022020	020926	194.48	13.698723	-56.930495	194.87	-0.230	0.440	1.270	194.59	-1.70	1.70	 	 	 	 	 	 	 	 	 	 	 	 	 	 	 	 	 	 	1581473366	10.69	19.80
12/02/2020 02:09:28	120220	12022020	020927	194.78	13.698670	-56.930510	195.06	0.360	-1.100	1.200	194.78	-2.30	1.70	 	 	 	 	 	 	 	 	 	 	 	 	 	 	 	 	 	 	1581473367	11.67	21.61
12/02/2020 02:09:29	120220	12022020	020928	194.62	13.698618	-56.930525	194.81	0.790	-2.140	1.540	194.55	-3.40	2.00	 	 	 	 	 	 	 	 	 	 	 	 	 	 	 	 	 	 	1581473368	11.58	21.45
12/02/2020 02:09:30	120220	12022020	020929	194.09	13.698570	-56.930538	194.21	0.820	-2.090	1.790	193.96	-3.50	2.30	 	 	 	 	 	 	 	 	 	 	 	 	 	 	 	 	 	 	1581473369	10.71	19.83
12/02/2020 02:09:31	120220	12022020	020930	193.43	13.698525	-56.930550	193.57	0.570	-1.340	1.770	193.31	-2.80	2.30	 	 	 	 	 	 	 	 	 	 	 	 	 	 	 	 	 	 	1581473370	10.20	18.89
12/02/2020 02:09:32	120220	12022020	020931	192.90	13.698477	-56.930562	193.07	0.250	-0.640	1.830	192.81	-2.10	2.30	 	 	 	 	 	 	 	 	 	 	 	 	 	 	 	 	 	 	1581473371	10.46	19.37
12/02/2020 02:09:33	120220	12022020	020932	192.51	13.698427	-56.930577	192.71	-0.150	-0.310	2.130	192.45	-1.70	2.60	 	 	 	 	 	 	 	 	 	 	 	 	 	 	 	 	 	 	1581473372	11.15	20.65
12/02/2020 02:09:34	120220	12022020	020933	192.26	13.698377	-56.930593	192.52	-0.680	-0.130	2.520	192.23	-1.50	2.90	 	 	 	 	 	 	 	 	 	 	 	 	 	 	 	 	 	 	1581473373	11.63	21.54
12/02/2020 02:09:35	120220	12022020	020934	192.26	13.698328	-56.930617	192.63	-1.250	0.410	2.890	192.32	-1.10	3.30	 	 	 	 	 	 	 	 	 	 	 	 	 	 	 	 	 	 	1581473374	11.43	21.17
12/02/2020 02:09:36	120220	12022020	020935	192.77	13.698283	-56.930638	193.25	-1.530	1.270	2.820	192.93	-0.20	3.40	 	 	 	 	 	 	 	 	 	 	 	 	 	 	 	 	 	 	1581473375	10.70	19.82
12/02/2020 02:09:37	120220	12022020	020936	193.66	13.698238	-56.930657	194.15	-1.140	1.750	2.070	193.85	0.40	2.70	 	 	 	 	 	 	 	 	 	 	 	 	 	 	 	 	 	 	1581473376	10.21	18.91
12/02/2020 02:09:38	120220	12022020	020937	194.45	13.698190	-56.930668	194.85	0.020	1.090	1.010	194.56	-0.10	1.70	 	 	 	 	 	 	 	 	 	 	 	 	 	 	 	 	 	 	1581473377	10.87	20.13
12/02/2020 02:09:39	120220	12022020	020938	194.96	13.698135	-56.930675	195.33	1.360	-0.250	-0.050	195.06	-2.20	0.10	 	 	 	 	 	 	 	 	 	 	 	 	 	 	 	 	 	 	1581473378	11.73	21.72
12/02/2020 02:09:40	120220	12022020	020939	195.32	13.698082	-56.930680	195.60	1.950	-1.280	-0.490	195.34	-2.50	0.00	 	 	 	 	 	 	 	 	 	 	 	 	 	 	 	 	 	 	1581473379	11.50	21.30
12/02/2020 02:09:41	120220	12022020	020940	195.20	13.698033	-56.930690	195.37	1.460	-1.790	0.300	195.11	-3.20	1.50	 	 	 	 	 	 	 	 	 	 	 	 	 	 	 	 	 	 	1581473380	10.76	19.93
12/02/2020 02:09:42	120220	12022020	020941	194.55	13.697987	-56.930708	194.65	0.410	-1.870	1.690	194.38	-3.20	2.00	 	 	 	 	 	 	 	 	 	 	 	 	 	 	 	 	 	 	1581473381	10.58	19.59
12/02/2020 02:09:43	120220	12022020	020942	193.56	13.697940	-56.930728	193.63	-0.400	-1.670	2.850	193.36	-3.10	3.20	 	 	 	 	 	 	 	 	 	 	 	 	 	 	 	 	 	 	1581473382	10.86	20.11
12/02/2020 02:09:44	120220	12022020	020943	192.53	13.697893	-56.930748	192.65	-0.700	-1.210	3.430	192.36	-2.60	3.90	 	 	 	 	 	 	 	 	 	 	 	 	 	 	 	 	 	 	1581473383	11.16	20.67
12/02/2020 02:09:45	120220	12022020	020944	191.96	13.697843	-56.930765	192.24	-0.760	-0.470	3.230	191.93	-1.90	3.80	 	 	 	 	 	 	 	 	 	 	 	 	 	 	 	 	 	 	1581473384	11.08	20.52
12/02/2020 02:09:46	120220	12022020	020945	192.06	13.697797	-56.930782	192.46	-0.950	0.360	2.660	192.14	-1.10	3.20	 	 	 	 	 	 	 	 	 	 	 	 	 	 	 	 	 	 	1581473385	10.85	20.09
12/02/2020 02:09:47	120220	12022020	020946	192.51	13.697748	-56.930798	192.93	-1.240	0.920	2.260	192.62	-0.50	2.80	 	 	 	 	 	 	 	 	 	 	 	 	 	 	 	 	 	 	1581473386	10.80	20.00
12/02/2020 02:09:48	120220	12022020	020947	192.98	13.697702	-56.930818	193.36	-1.210	1.030	2.080	193.06	-0.30	2.60	 	 	 	 	 	 	 	 	 	 	 	 	 	 	 	 	 	 	1581473387	10.96	20.30
12/02/2020 02:09:49	120220	12022020	020948	193.36	13.697653	-56.930835	193.73	-0.560	0.770	1.830	193.43	-0.50	2.40	 	 	 	 	 	 	 	 	 	 	 	 	 	 	 	 	 	 	1581473388	11.04	20.45
12/02/2020 02:09:50	120220	12022020	020949	193.67	13.697603	-56.930847	193.99	0.500	0.290	1.420	193.72	-1.00	2.00	 	 	 	 	 	 	 	 	 	 	 	 	 	 	 	 	 	 	1581473389	11.03	20.43
12/02/2020 02:09:51	120220	12022020	020950	193.88	13.697553	-56.930857	194.17	1.350	-0.230	1.080	193.90	-1.50	1.60	 	 	 	 	 	 	 	 	 	 	 	 	 	 	 	 	 	 	1581473390	10.94	20.26
12/02/2020 02:09:52	120220	12022020	020951	193.96	13.697503	-56.930865	194.24	1.530	-0.550	0.770	193.99	-1.90	1.30	 	 	 	 	 	 	 	 	 	 	 	 	 	 	 	 	 	 	1581473391	10.68	19.78
12/02/2020 02:09:53	120220	12022020	020952	194.07	13.697457	-56.930872	194.36	1.070	-0.520	0.560	194.10	-1.90	1.10	 	 	 	 	 	 	 	 	 	 	 	 	 	 	 	 	 	 	1581473392	10.21	18.91
12/02/2020 02:09:54	120220	12022020	020953	194.17	13.697412	-56.930882	194.41	0.450	-0.480	0.580	194.16	-1.80	1.10	 	 	 	 	 	 	 	 	 	 	 	 	 	 	 	 	 	 	1581473393	10.06	18.63
12/02/2020 02:09:55	120220	12022020	020954	194.02	13.697363	-56.930897	194.20	0.050	-0.850	1.090	193.95	-2.10	1.50	 	 	 	 	 	 	 	 	 	 	 	 	 	 	 	 	 	 	1581473394	10.61	19.65
12/02/2020 02:09:56	120220	12022020	020955	193.54	13.697313	-56.930915	193.64	-0.100	-1.510	2.030	193.39	-2.80	2.40	 	 	 	 	 	 	 	 	 	 	 	 	 	 	 	 	 	 	1581473395	11.39	21.09
12/02/2020 02:09:57	120220	12022020	020956	192.73	13.697263	-56.930937	192.82	-0.180	-1.860	2.980	192.55	-3.20	3.30	 	 	 	 	 	 	 	 	 	 	 	 	 	 	 	 	 	 	1581473396	11.74	21.74
12/02/2020 02:09:58	120220	12022020	020957	191.99	13.697215	-56.930955	192.19	-0.400	-1.350	3.360	191.90	-2.80	3.80	 	 	 	 	 	 	 	 	 	 	 	 	 	 	 	 	 	 	1581473397	11.33	20.98
12/02/2020 02:09:59	120220	12022020	020958	191.77	13.697168	-56.930973	192.09	-0.770	-0.150	3.180	191.78	-1.70	3.70	 	 	 	 	 	 	 	 	 	 	 	 	 	 	 	 	 	 	1581473398	10.53	19.50
12/02/2020 02:10:00	120220	12022020	020959	191.99	13.697123	-56.930988	192.38	-1.020	0.990	2.580	192.08	-0.50	3.20	 	 	 	 	 	 	 	 	 	 	 	 	 	 	 	 	 	 	1581473399	10.21	18.91
12/02/2020 02:10:01	120220	12022020	021001	193.09	13.697025	-56.931013	193.49	-0.140	0.980	0.970	193.21	-0.30	1.60	1017.50	25.90	26.00	21.20	21.20	-1.0	75.0	75.0	419.0	25.6	256.00	8.60	61.00	11.30	15	7462.0	27.2	27.2	1581473401	11.15	20.65
12/02/2020 02:10:02	120220	12022020	021002	193.64	13.696973	-56.931023	194.03	0.650	0.080	0.510	193.75	-1.20	1.00	 	 	 	 	 	 	 	 	 	 	 	 	 	 	 	 	 	 	1581473402	11.54	21.37
12/02/2020 02:10:03	120220	12022020	021003	194.09	13.696922	-56.931033	194.44	1.000	-0.550	0.470	194.15	-1.80	1.00	 	 	 	 	 	 	 	 	 	 	 	 	 	 	 	 	 	 	1581473403	11.12	20.59
12/02/2020 02:10:04	120220	12022020	021004	194.27	13.696875	-56.931045	194.56	0.830	-0.780	0.820	194.26	-2.10	1.30	 	 	 	 	 	 	 	 	 	 	 	 	 	 	 	 	 	 	1581473404	10.49	19.43
12/02/2020 02:10:05	120220	12022020	021005	194.09	13.696828	-56.931057	194.33	0.450	-0.880	1.400	194.03	-2.20	1.80	 	 	 	 	 	 	 	 	 	 	 	 	 	 	 	 	 	 	1581473405	10.39	19.24
12/02/2020 02:10:06	120220	12022020	021006	193.85	13.696782	-56.931073	194.15	0.060	-0.870	1.870	193.83	-2.20	2.30	 	 	 	 	 	 	 	 	 	 	 	 	 	 	 	 	 	 	1581473406	10.55	19.54
12/02/2020 02:10:07	120220	12022020	021007	193.75	13.696735	-56.931088	194.01	-0.220	-0.740	2.070	193.72	-2.10	2.50	 	 	 	 	 	 	 	 	 	 	 	 	 	 	 	 	 	 	1581473407	10.55	19.54
12/02/2020 02:10:08	120220	12022020	021008	193.47	13.696687	-56.931105	193.65	-0.290	-0.720	2.160	193.37	-2.10	2.60	 	 	 	 	 	 	 	 	 	 	 	 	 	 	 	 	 	 	1581473408	10.83	20.06
12/02/2020 02:10:09	120220	12022020	021009	192.99	13.696637	-56.931120	193.20	-0.200	-0.780	2.270	192.90	-2.10	2.70	 	 	 	 	 	 	 	 	 	 	 	 	 	 	 	 	 	 	1581473409	11.22	20.78
12/02/2020 02:10:10	120220	12022020	021010	192.71	13.696587	-56.931137	192.99	-0.080	-0.590	2.110	192.70	-2.00	2.60	 	 	 	 	 	 	 	 	 	 	 	 	 	 	 	 	 	 	1581473410	11.16	20.67
12/02/2020 02:10:11	120220	12022020	021011	192.75	13.696538	-56.931148	193.07	-0.010	-0.130	1.700	192.77	-1.60	2.20	 	 	 	 	 	 	 	 	 	 	 	 	 	 	 	 	 	 	1581473411	10.82	20.04
12/02/2020 02:10:12	120220	12022020	021012	192.90	13.696490	-56.931162	193.23	-0.030	0.290	1.510	192.94	-1.10	2.00	 	 	 	 	 	 	 	 	 	 	 	 	 	 	 	 	 	 	1581473412	10.69	19.80
12/02/2020 02:10:13	120220	12022020	021013	193.05	13.696442	-56.931175	193.34	-0.140	0.420	1.760	193.06	-0.90	2.20	 	 	 	 	 	 	 	 	 	 	 	 	 	 	 	 	 	 	1581473413	10.80	20.00
12/02/2020 02:10:14	120220	12022020	021014	193.03	13.696393	-56.931193	193.26	-0.230	0.240	2.160	193.00	-1.10	2.60	 	 	 	 	 	 	 	 	 	 	 	 	 	 	 	 	 	 	1581473414	11.01	20.39
12/02/2020 02:10:15	120220	12022020	021015	192.88	13.696345	-56.931208	193.12	-0.080	-0.050	2.190	192.86	-1.40	2.70	 	 	 	 	 	 	 	 	 	 	 	 	 	 	 	 	 	 	1581473415	11.14	20.63
12/02/2020 02:10:16	120220	12022020	021016	192.92	13.696295	-56.931222	193.25	0.250	-0.100	1.680	192.99	-1.40	1.90	 	 	 	 	 	 	 	 	 	 	 	 	 	 	 	 	 	 	1581473416	10.87	20.13
12/02/2020 02:10:17	120220	12022020	021017	193.41	13.696248	-56.931232	193.83	0.420	0.070	1.100	193.54	-1.30	1.70	 	 	 	 	 	 	 	 	 	 	 	 	 	 	 	 	 	 	1581473417	10.33	19.13
12/02/2020 02:10:18	120220	12022020	021018	194.02	13.696202	-56.931242	194.38	0.350	-0.010	0.700	194.10	-1.30	1.20	 	 	 	 	 	 	 	 	 	 	 	 	 	 	 	 	 	 	1581473418	10.25	18.98
12/02/2020 02:10:19	120220	12022020	021019	194.21	13.696153	-56.931253	194.43	0.280	-0.700	0.790	194.18	-1.90	1.20	 	 	 	 	 	 	 	 	 	 	 	 	 	 	 	 	 	 	1581473419	10.86	20.11
12/02/2020 02:10:20	120220	12022020	021020	193.95	13.696102	-56.931268	194.16	0.330	-1.410	1.180	193.88	-2.70	1.60	 	 	 	 	 	 	 	 	 	 	 	 	 	 	 	 	 	 	1581473420	11.32	20.96
12/02/2020 02:10:21	120220	12022020	021021	193.60	13.696053	-56.931282	193.80	0.360	-1.520	1.490	193.53	-2.90	1.90	 	 	 	 	 	 	 	 	 	 	 	 	 	 	 	 	 	 	1581473421	11.00	20.37
12/02/2020 02:10:22	120220	12022020	021022	193.25	13.696005	-56.931295	193.46	0.140	-1.160	1.790	193.17	-2.60	2.20	 	 	 	 	 	 	 	 	 	 	 	 	 	 	 	 	 	 	1581473422	10.68	19.78
12/02/2020 02:10:23	120220	12022020	021023	192.87	13.695957	-56.931310	193.07	-0.280	-0.670	2.140	192.79	-2.10	2.60	 	 	 	 	 	 	 	 	 	 	 	 	 	 	 	 	 	 	1581473423	10.71	19.83
12/02/2020 02:10:24	120220	12022020	021024	192.47	13.695908	-56.931327	192.68	-0.670	-0.300	2.460	192.39	-1.70	2.90	 	 	 	 	 	 	 	 	 	 	 	 	 	 	 	 	 	 	1581473424	11.03	20.43
12/02/2020 02:10:25	120220	12022020	021025	192.21	13.695858	-56.931343	192.48	-0.820	0.010	2.510	192.20	-1.40	3.00	 	 	 	 	 	 	 	 	 	 	 	 	 	 	 	 	 	 	1581473425	11.27	20.87
12/02/2020 02:10:26	120220	12022020	021026	192.24	13.695810	-56.931360	192.55	-0.670	0.310	2.410	192.27	-1.10	2.90	 	 	 	 	 	 	 	 	 	 	 	 	 	 	 	 	 	 	1581473426	11.23	20.80
12/02/2020 02:10:27	120220	12022020	021027	192.42	13.695760	-56.931375	192.74	-0.360	0.490	2.210	192.47	-0.90	2.70	 	 	 	 	 	 	 	 	 	 	 	 	 	 	 	 	 	 	1581473427	11.15	20.65
12/02/2020 02:10:28	120220	12022020	021028	192.67	13.695710	-56.931390	193.00	-0.050	0.460	1.920	192.73	-1.00	2.30	 	 	 	 	 	 	 	 	 	 	 	 	 	 	 	 	 	 	1581473428	11.15	20.65
12/02/2020 02:10:29	120220	12022020	021029	192.99	13.695660	-56.931402	193.33	0.170	0.330	1.630	193.06	-1.00	2.20	 	 	 	 	 	 	 	 	 	 	 	 	 	 	 	 	 	 	1581473429	11.01	20.39
12/02/2020 02:10:30	120220	12022020	021030	193.33	13.695612	-56.931413	193.66	0.360	0.230	1.250	193.39	-1.20	1.50	 	 	 	 	 	 	 	 	 	 	 	 	 	 	 	 	 	 	1581473430	10.75	19.91
12/02/2020 02:10:31	120220	12022020	021031	193.65	13.695563	-56.931423	193.98	0.540	0.170	0.880	193.70	-1.20	1.40	 	 	 	 	 	 	 	 	 	 	 	 	 	 	 	 	 	 	1581473431	10.48	19.41
12/02/2020 02:10:32	120220	12022020	021032	193.90	13.695517	-56.931433	194.21	0.670	-0.030	0.640	193.93	-1.30	1.20	 	 	 	 	 	 	 	 	 	 	 	 	 	 	 	 	 	 	1581473432	10.41	19.28
12/02/2020 02:10:33	120220	12022020	021033	193.94	13.695467	-56.931443	194.17	0.670	-0.610	0.750	193.90	-1.90	1.20	 	 	 	 	 	 	 	 	 	 	 	 	 	 	 	 	 	 	1581473433	10.69	19.80
12/02/2020 02:10:34	120220	12022020	021034	193.67	13.695417	-56.931458	193.85	0.430	-1.450	1.470	193.59	-2.70	1.80	 	 	 	 	 	 	 	 	 	 	 	 	 	 	 	 	 	 	1581473434	11.22	20.78
12/02/2020 02:10:35	120220	12022020	021035	193.26	13.695367	-56.931477	193.46	-0.080	-1.980	2.370	193.18	-3.30	2.70	 	 	 	 	 	 	 	 	 	 	 	 	 	 	 	 	 	 	1581473435	11.44	21.19
12/02/2020 02:10:36	120220	12022020	021036	192.88	13.695320	-56.931498	193.09	-0.620	-1.780	3.080	192.81	-3.20	3.50	 	 	 	 	 	 	 	 	 	 	 	 	 	 	 	 	 	 	1581473436	11.17	20.69
12/02/2020 02:10:37	120220	12022020	021037	192.55	13.695273	-56.931518	192.79	-0.790	-0.980	3.160	192.50	-2.50	3.70	 	 	 	 	 	 	 	 	 	 	 	 	 	 	 	 	 	 	1581473437	10.76	19.93
12/02/2020 02:10:38	120220	12022020	021038	192.47	13.695227	-56.931532	192.80	-0.510	0.010	2.520	192.50	-1.50	3.10	 	 	 	 	 	 	 	 	 	 	 	 	 	 	 	 	 	 	1581473438	10.53	19.50
12/02/2020 02:10:39	120220	12022020	021039	192.72	13.695178	-56.931542	193.10	-0.140	0.680	1.760	192.79	-0.70	2.40	 	 	 	 	 	 	 	 	 	 	 	 	 	 	 	 	 	 	1581473439	10.69	19.80
12/02/2020 02:10:40	120220	12022020	021040	193.13	13.695127	-56.931550	193.50	0.070	0.670	1.130	193.21	-0.60	1.70	 	 	 	 	 	 	 	 	 	 	 	 	 	 	 	 	 	 	1581473440	11.19	20.72
12/02/2020 02:10:41	120220	12022020	021041	193.49	13.695073	-56.931560	193.82	0.070	0.220	0.950	193.54	-1.00	1.40	 	 	 	 	 	 	 	 	 	 	 	 	 	 	 	 	 	 	1581473441	11.54	21.37
12/02/2020 02:10:42	120220	12022020	021042	193.59	13.695022	-56.931575	193.82	-0.050	-0.250	1.340	193.56	-1.80	2.10	 	 	 	 	 	 	 	 	 	 	 	 	 	 	 	 	 	 	1581473442	11.44	21.19
12/02/2020 02:10:43	120220	12022020	021043	193.29	13.694973	-56.931592	193.47	-0.100	-0.480	1.940	193.21	-1.80	2.30	 	 	 	 	 	 	 	 	 	 	 	 	 	 	 	 	 	 	1581473443	11.22	20.78
12/02/2020 02:10:44	120220	12022020	021044	192.91	13.694925	-56.931607	193.14	-0.030	-0.340	2.130	192.87	-1.70	2.60	 	 	 	 	 	 	 	 	 	 	 	 	 	 	 	 	 	 	1581473444	10.87	20.13
12/02/2020 02:10:45	120220	12022020	021045	192.83	13.694877	-56.931620	193.12	0.030	0.020	1.740	192.84	-1.40	2.30	 	 	 	 	 	 	 	 	 	 	 	 	 	 	 	 	 	 	1581473445	10.47	19.39
12/02/2020 02:10:46	120220	12022020	021046	192.93	13.694830	-56.931630	193.24	-0.030	0.150	1.340	192.97	-1.20	1.90	 	 	 	 	 	 	 	 	 	 	 	 	 	 	 	 	 	 	1581473446	10.48	19.41
12/02/2020 02:10:47	120220	12022020	021047	193.12	13.694782	-56.931643	193.43	-0.110	-0.140	1.120	193.16	-1.40	1.60	 	 	 	 	 	 	 	 	 	 	 	 	 	 	 	 	 	 	1581473447	10.86	20.11
12/02/2020 02:10:48	120220	12022020	021048	193.34	13.694732	-56.931658	193.67	-0.050	-0.560	1.240	193.39	-1.80	1.70	 	 	 	 	 	 	 	 	 	 	 	 	 	 	 	 	 	 	1581473448	11.10	20.56
12/02/2020 02:10:49	120220	12022020	021049	193.61	13.694683	-56.931675	193.96	0.140	-0.770	1.410	193.67	-2.10	1.90	 	 	 	 	 	 	 	 	 	 	 	 	 	 	 	 	 	 	1581473449	10.96	20.30
12/02/2020 02:10:50	120220	12022020	021050	193.87	13.694635	-56.931688	194.18	0.290	-0.660	1.400	193.90	-2.00	1.90	 	 	 	 	 	 	 	 	 	 	 	 	 	 	 	 	 	 	1581473450	10.59	19.61
12/02/2020 02:10:51	120220	12022020	021051	193.94	13.694588	-56.931702	194.19	0.300	-0.440	1.440	193.92	-1.80	1.90	 	 	 	 	 	 	 	 	 	 	 	 	 	 	 	 	 	 	1581473451	10.45	19.35
12/02/2020 02:10:52	120220	12022020	021052	193.81	13.694542	-56.931713	194.06	0.150	-0.250	1.430	193.78	-1.50	1.90	 	 	 	 	 	 	 	 	 	 	 	 	 	 	 	 	 	 	1581473452	10.54	19.52
12/02/2020 02:10:53	120220	12022020	021053	193.62	13.694493	-56.931727	193.84	-0.060	-0.260	1.430	193.57	-1.60	1.90	 	 	 	 	 	 	 	 	 	 	 	 	 	 	 	 	 	 	1581473453	10.71	19.83
12/02/2020 02:10:54	120220	12022020	021054	193.28	13.694443	-56.931742	193.45	-0.060	-0.640	1.600	193.20	-2.10	2.20	 	 	 	 	 	 	 	 	 	 	 	 	 	 	 	 	 	 	1581473454	11.28	20.89
12/02/2020 02:10:55	120220	12022020	021055	192.87	13.694392	-56.931758	193.08	0.150	-0.900	1.720	192.82	-2.20	2.20	 	 	 	 	 	 	 	 	 	 	 	 	 	 	 	 	 	 	1581473455	11.55	21.39
12/02/2020 02:10:56	120220	12022020	021056	192.73	13.694342	-56.931772	193.03	0.270	-0.620	1.720	192.75	-2.00	2.20	 	 	 	 	 	 	 	 	 	 	 	 	 	 	 	 	 	 	1581473456	11.13	20.61
12/02/2020 02:10:57	120220	12022020	021057	192.90	13.694293	-56.931785	193.24	0.050	-0.040	1.660	192.94	-1.40	2.20	 	 	 	 	 	 	 	 	 	 	 	 	 	 	 	 	 	 	1581473457	10.61	19.65
12/02/2020 02:10:58	120220	12022020	021058	193.11	13.694247	-56.931798	193.42	-0.340	0.220	1.730	193.14	-1.10	2.20	 	 	 	 	 	 	 	 	 	 	 	 	 	 	 	 	 	 	1581473458	10.70	19.82
12/02/2020 02:10:59	120220	12022020	021059	193.22	13.694197	-56.931815	193.51	-0.560	-0.010	1.910	193.23	-1.30	2.40	 	 	 	 	 	 	 	 	 	 	 	 	 	 	 	 	 	 	1581473459	11.22	20.78
12/02/2020 02:11:00	120220	12022020	021100	193.31	13.694145	-56.931830	193.64	-0.530	-0.220	2.000	193.35	-1.50	2.50	 	 	 	 	 	 	 	 	 	 	 	 	 	 	 	 	 	 	1581473460	11.34	21.00
12/02/2020 02:11:01	120220	12022020	021101	193.66	13.694098	-56.931843	194.07	-0.480	0.000	1.820	193.77	-1.40	2.40	1017.50	26.00	26.00	21.50	21.40	-1.0	76.0	75.0	412.0	25.6	263.00	8.50	65.00	10.80	15	7239.0	27.2	27.2	1581473461	10.74	19.89
12/02/2020 02:11:02	120220	12022020	021102	194.16	13.694052	-56.931857	194.52	-0.480	0.210	1.480	194.23	-1.10	2.00	 	 	 	 	 	 	 	 	 	 	 	 	 	 	 	 	 	 	1581473462	10.33	19.13
12/02/2020 02:11:03	120220	12022020	021103	194.31	13.694003	-56.931872	194.54	-0.300	-0.190	1.440	194.27	-1.40	1.90	 	 	 	 	 	 	 	 	 	 	 	 	 	 	 	 	 	 	1581473463	10.81	20.02
12/02/2020 02:11:04	120220	12022020	021104	193.93	13.693952	-56.931888	194.07	0.180	-0.970	1.740	193.81	-2.50	2.30	 	 	 	 	 	 	 	 	 	 	 	 	 	 	 	 	 	 	1581473464	11.52	21.34
12/02/2020 02:11:05	120220	12022020	021105	193.28	13.693902	-56.931903	193.41	0.720	-1.220	1.890	193.16	-2.60	2.40	 	 	 	 	 	 	 	 	 	 	 	 	 	 	 	 	 	 	1581473465	11.43	21.17
12/02/2020 02:11:06	120220	12022020	021106	192.83	13.693853	-56.931913	193.05	0.890	-0.510	1.730	192.78	-1.40	2.10	 	 	 	 	 	 	 	 	 	 	 	 	 	 	 	 	 	 	1581473466	10.49	19.43
12/02/2020 02:11:07	120220	12022020	021107	192.69	13.693808	-56.931923	192.95	0.610	0.350	1.550	192.67	-1.10	2.10	 	 	 	 	 	 	 	 	 	 	 	 	 	 	 	 	 	 	1581473467	9.96	18.45
12/02/2020 02:11:08	120220	12022020	021108	192.60	13.693760	-56.931935	192.87	0.220	0.430	1.500	192.58	-1.20	2.10	 	 	 	 	 	 	 	 	 	 	 	 	 	 	 	 	 	 	1581473468	10.61	19.65
12/02/2020 02:11:09	120220	12022020	021109	192.54	13.693708	-56.931950	192.84	0.010	-0.180	1.780	192.54	-1.40	2.20	 	 	 	 	 	 	 	 	 	 	 	 	 	 	 	 	 	 	1581473469	11.53	21.35
12/02/2020 02:11:10	120220	12022020	021110	192.63	13.693657	-56.931968	193.00	-0.010	-0.650	2.190	192.68	-1.90	2.60	 	 	 	 	 	 	 	 	 	 	 	 	 	 	 	 	 	 	1581473470	11.66	21.59
12/02/2020 02:11:11	120220	12022020	021111	192.97	13.693608	-56.931983	193.39	-0.130	-0.450	2.270	193.06	-1.80	2.80	 	 	 	 	 	 	 	 	 	 	 	 	 	 	 	 	 	 	1581473471	10.86	20.11
12/02/2020 02:11:12	120220	12022020	021112	193.48	13.693563	-56.931998	193.88	-0.460	-0.080	2.130	193.58	-1.40	2.60	 	 	 	 	 	 	 	 	 	 	 	 	 	 	 	 	 	 	1581473472	10.29	19.06
12/02/2020 02:11:13	120220	12022020	021113	193.90	13.693517	-56.932013	194.25	-0.790	-0.180	2.060	193.96	-1.50	2.60	 	 	 	 	 	 	 	 	 	 	 	 	 	 	 	 	 	 	1581473473	10.61	19.65
12/02/2020 02:11:14	120220	12022020	021114	194.12	13.693467	-56.932030	194.42	-0.740	-0.640	1.800	194.15	-1.90	2.30	 	 	 	 	 	 	 	 	 	 	 	 	 	 	 	 	 	 	1581473474	11.16	20.67
12/02/2020 02:11:15	120220	12022020	021115	194.17	13.693417	-56.932043	194.43	-0.180	-0.930	1.340	194.16	-2.20	1.90	 	 	 	 	 	 	 	 	 	 	 	 	 	 	 	 	 	 	1581473475	11.23	20.80
12/02/2020 02:11:16	120220	12022020	021116	194.11	13.693367	-56.932053	194.37	0.530	-0.870	0.860	194.11	-2.20	1.40	 	 	 	 	 	 	 	 	 	 	 	 	 	 	 	 	 	 	1581473476	11.07	20.50
12/02/2020 02:11:17	120220	12022020	021117	194.11	13.693317	-56.932062	194.36	0.770	-0.500	0.620	194.09	-1.90	1.10	 	 	 	 	 	 	 	 	 	 	 	 	 	 	 	 	 	 	1581473477	10.82	20.04
12/02/2020 02:11:18	120220	12022020	021118	193.94	13.693268	-56.932073	194.11	0.400	-0.190	0.990	193.87	-1.50	1.80	 	 	 	 	 	 	 	 	 	 	 	 	 	 	 	 	 	 	1581473478	10.72	19.85
12/02/2020 02:11:19	120220	12022020	021119	193.49	13.693218	-56.932090	193.64	-0.120	-0.120	1.560	193.39	-1.50	2.00	 	 	 	 	 	 	 	 	 	 	 	 	 	 	 	 	 	 	1581473479	11.06	20.48
12/02/2020 02:11:20	120220	12022020	021120	193.05	13.693170	-56.932105	193.30	-0.390	0.000	2.000	193.00	-1.20	2.60	 	 	 	 	 	 	 	 	 	 	 	 	 	 	 	 	 	 	1581473480	11.18	20.71
12/02/2020 02:11:21	120220	12022020	021121	192.92	13.693122	-56.932122	193.21	-0.410	0.210	2.200	192.90	-1.10	2.60	 	 	 	 	 	 	 	 	 	 	 	 	 	 	 	 	 	 	1581473481	10.96	20.30
12/02/2020 02:11:22	120220	12022020	021122	192.80	13.693073	-56.932140	193.04	-0.290	0.210	2.290	192.76	-1.10	2.70	 	 	 	 	 	 	 	 	 	 	 	 	 	 	 	 	 	 	1581473482	11.00	20.37
12/02/2020 02:11:23	120220	12022020	021123	192.55	13.693023	-56.932157	192.81	-0.080	-0.020	2.310	192.52	-1.30	2.80	 	 	 	 	 	 	 	 	 	 	 	 	 	 	 	 	 	 	1581473483	11.25	20.84
12/02/2020 02:11:24	120220	12022020	021124	192.53	13.692975	-56.932172	192.88	0.060	0.010	2.180	192.58	-1.40	2.70	 	 	 	 	 	 	 	 	 	 	 	 	 	 	 	 	 	 	1581473484	10.93	20.24
12/02/2020 02:11:25	120220	12022020	021125	192.92	13.692928	-56.932185	193.33	0.060	0.290	1.720	193.04	-1.10	2.30	 	 	 	 	 	 	 	 	 	 	 	 	 	 	 	 	 	 	1581473485	10.31	19.09
12/02/2020 02:11:26	120220	12022020	021126	193.46	13.692882	-56.932197	193.82	0.140	0.110	1.140	193.55	-1.10	1.70	 	 	 	 	 	 	 	 	 	 	 	 	 	 	 	 	 	 	1581473486	10.37	19.21
12/02/2020 02:11:27	120220	12022020	021127	193.82	13.692832	-56.932208	194.15	0.450	-0.760	0.970	193.88	-1.90	1.40	 	 	 	 	 	 	 	 	 	 	 	 	 	 	 	 	 	 	1581473487	11.21	20.76
12/02/2020 02:11:28	120220	12022020	021128	194.15	13.692778	-56.932222	194.52	0.740	-1.470	0.970	194.24	-2.70	1.50	 	 	 	 	 	 	 	 	 	 	 	 	 	 	 	 	 	 	1581473488	11.43	21.17
12/02/2020 02:11:29	120220	12022020	021129	194.57	13.692730	-56.932233	194.93	0.590	-1.460	1.050	194.65	-2.80	1.50	 	 	 	 	 	 	 	 	 	 	 	 	 	 	 	 	 	 	1581473489	10.81	20.02
12/02/2020 02:11:30	120220	12022020	021130	194.85	13.692683	-56.932247	195.14	0.050	-1.080	1.470	194.87	-2.50	1.90	 	 	 	 	 	 	 	 	 	 	 	 	 	 	 	 	 	 	1581473490	10.42	19.30
12/02/2020 02:11:31	120220	12022020	021131	194.78	13.692637	-56.932263	194.98	-0.430	-0.890	1.980	194.72	-2.20	2.40	 	 	 	 	 	 	 	 	 	 	 	 	 	 	 	 	 	 	1581473491	10.76	19.93
12/02/2020 02:11:32	120220	12022020	021132	194.29	13.692585	-56.932280	194.41	-0.580	-0.960	2.480	194.14	-2.30	2.90	 	 	 	 	 	 	 	 	 	 	 	 	 	 	 	 	 	 	1581473492	11.47	21.24
12/02/2020 02:11:33	120220	12022020	021133	193.48	13.692533	-56.932298	193.60	-0.520	-0.770	2.810	193.34	-2.20	3.30	 	 	 	 	 	 	 	 	 	 	 	 	 	 	 	 	 	 	1581473493	11.75	21.76
12/02/2020 02:11:34	120220	12022020	021134	192.90	13.692485	-56.932313	193.13	-0.560	0.130	2.640	192.84	-1.40	3.20	 	 	 	 	 	 	 	 	 	 	 	 	 	 	 	 	 	 	1581473494	11.11	20.58
12/02/2020 02:11:35	120220	12022020	021135	192.74	13.692438	-56.932328	193.04	-0.670	1.290	2.180	192.75	-0.20	2.70	 	 	 	 	 	 	 	 	 	 	 	 	 	 	 	 	 	 	1581473495	10.37	19.21
12/02/2020 02:11:36	120220	12022020	021136	192.90	13.692392	-56.932343	193.27	-0.550	1.770	1.580	192.98	0.40	2.10	 	 	 	 	 	 	 	 	 	 	 	 	 	 	 	 	 	 	1581473496	10.53	19.50
12/02/2020 02:11:37	120220	12022020	021137	193.47	13.692342	-56.932357	193.92	-0.070	1.390	0.980	193.62	0.10	1.50	 	 	 	 	 	 	 	 	 	 	 	 	 	 	 	 	 	 	1581473497	11.05	20.46
12/02/2020 02:11:38	120220	12022020	021138	194.25	13.692292	-56.932370	194.67	0.610	0.540	0.600	194.40	-0.70	1.10	 	 	 	 	 	 	 	 	 	 	 	 	 	 	 	 	 	 	1581473498	11.19	20.72
12/02/2020 02:11:39	120220	12022020	021139	194.81	13.692242	-56.932383	195.13	1.200	-0.420	0.630	194.87	-1.60	1.10	 	 	 	 	 	 	 	 	 	 	 	 	 	 	 	 	 	 	1581473499	11.05	20.46
12/02/2020 02:11:40	120220	12022020	021140	194.98	13.692193	-56.932395	195.25	1.430	-1.260	0.920	194.99	-2.50	1.30	 	 	 	 	 	 	 	 	 	 	 	 	 	 	 	 	 	 	1581473500	10.91	20.21
12/02/2020 02:11:41	120220	12022020	021141	194.93	13.692145	-56.932408	195.16	1.090	-1.730	1.480	194.90	-3.00	1.90	 	 	 	 	 	 	 	 	 	 	 	 	 	 	 	 	 	 	1581473501	10.72	19.85
12/02/2020 02:11:42	120220	12022020	021142	194.73	13.692098	-56.932427	194.92	0.260	-1.800	2.240	194.67	-3.10	2.60	 	 	 	 	 	 	 	 	 	 	 	 	 	 	 	 	 	 	1581473502	10.56	19.56
12/02/2020 02:11:43	120220	12022020	021143	194.32	13.692052	-56.932447	194.45	-0.530	-1.720	2.780	194.21	-3.10	3.20	 	 	 	 	 	 	 	 	 	 	 	 	 	 	 	 	 	 	1581473503	10.82	20.04
12/02/2020 02:11:44	120220	12022020	021144	193.75	13.692003	-56.932467	193.89	-0.820	-1.540	2.880	193.63	-2.70	3.30	 	 	 	 	 	 	 	 	 	 	 	 	 	 	 	 	 	 	1581473504	11.20	20.74
12/02/2020 02:11:45	120220	12022020	021145	193.21	13.691953	-56.932483	193.39	-0.690	-1.050	2.640	193.12	-2.50	3.20	 	 	 	 	 	 	 	 	 	 	 	 	 	 	 	 	 	 	1581473505	11.33	20.98
12/02/2020 02:11:46	120220	12022020	021146	192.84	13.691903	-56.932497	193.08	-0.560	-0.200	2.190	192.81	-1.70	2.70	 	 	 	 	 	 	 	 	 	 	 	 	 	 	 	 	 	 	1581473506	11.14	20.63
12/02/2020 02:11:47	120220	12022020	021147	192.92	13.691855	-56.932510	193.27	-0.680	0.800	1.470	192.99	-0.70	2.10	 	 	 	 	 	 	 	 	 	 	 	 	 	 	 	 	 	 	1581473507	10.82	20.04
12/02/2020 02:11:48	120220	12022020	021148	193.47	13.691807	-56.932523	193.84	-0.840	1.420	0.900	193.59	0.00	1.40	 	 	 	 	 	 	 	 	 	 	 	 	 	 	 	 	 	 	1581473508	10.71	19.83
12/02/2020 02:11:49	120220	12022020	021149	193.99	13.691757	-56.932538	194.31	-0.520	1.110	0.780	194.07	-0.10	1.30	 	 	 	 	 	 	 	 	 	 	 	 	 	 	 	 	 	 	1581473509	11.29	20.91
12/02/2020 02:11:50	120220	12022020	021150	194.29	13.691703	-56.932553	194.60	0.350	0.220	0.780	194.34	-1.00	1.30	 	 	 	 	 	 	 	 	 	 	 	 	 	 	 	 	 	 	1581473510	11.93	22.09
12/02/2020 02:11:51	120220	12022020	021151	194.48	13.691652	-56.932565	194.76	1.120	-0.340	0.970	194.49	-1.60	1.40	 	 	 	 	 	 	 	 	 	 	 	 	 	 	 	 	 	 	1581473511	11.61	21.50
12/02/2020 02:11:52	120220	12022020	021152	194.50	13.691603	-56.932577	194.75	1.150	-0.310	1.360	194.48	-1.70	1.80	 	 	 	 	 	 	 	 	 	 	 	 	 	 	 	 	 	 	1581473512	10.70	19.82
12/02/2020 02:11:53	120220	12022020	021153	194.36	13.691557	-56.932592	194.60	0.520	-0.190	1.940	194.31	-1.50	2.30	 	 	 	 	 	 	 	 	 	 	 	 	 	 	 	 	 	 	1581473513	10.23	18.95
12/02/2020 02:11:54	120220	12022020	021154	194.05	13.691512	-56.932610	194.26	-0.090	-0.460	2.600	193.96	-1.70	3.00	 	 	 	 	 	 	 	 	 	 	 	 	 	 	 	 	 	 	1581473514	10.66	19.74
12/02/2020 02:11:55	120220	12022020	021155	193.60	13.691463	-56.932630	193.80	-0.240	-0.910	3.000	193.50	-2.20	3.40	 	 	 	 	 	 	 	 	 	 	 	 	 	 	 	 	 	 	1581473515	11.13	20.61
12/02/2020 02:11:56	120220	12022020	021156	193.11	13.691413	-56.932647	193.30	-0.050	-1.100	2.980	193.03	-2.40	3.30	 	 	 	 	 	 	 	 	 	 	 	 	 	 	 	 	 	 	1581473516	11.08	20.52
12/02/2020 02:11:57	120220	12022020	021157	192.73	13.691367	-56.932662	192.95	0.090	-0.940	2.600	192.67	-2.30	3.10	 	 	 	 	 	 	 	 	 	 	 	 	 	 	 	 	 	 	1581473517	10.86	20.11
12/02/2020 02:11:58	120220	12022020	021158	192.66	13.691318	-56.932677	192.97	-0.060	-0.560	2.060	192.70	-2.00	2.60	 	 	 	 	 	 	 	 	 	 	 	 	 	 	 	 	 	 	1581473518	10.63	19.69
12/02/2020 02:11:59	120220	12022020	021159	192.99	13.691272	-56.932692	193.35	-0.320	-0.090	1.580	193.07	-1.50	2.10	 	 	 	 	 	 	 	 	 	 	 	 	 	 	 	 	 	 	1581473519	10.45	19.35
12/02/2020 02:12:00	120220	12022020	021200	193.37	13.691225	-56.932705	193.66	-0.250	0.060	1.210	193.42	-1.30	1.70	 	 	 	 	 	 	 	 	 	 	 	 	 	 	 	 	 	 	1581473520	10.64	19.71
12/02/2020 02:12:01	120220	12022020	021201	193.56	13.691173	-56.932718	193.84	0.220	-0.220	1.040	193.59	-1.50	1.50	1017.50	26.00	26.00	21.50	21.50	-1.0	76.0	76.0	413.0	25.6	263.00	8.40	66.00	10.60	15	6768.0	27.2	27.2	1581473521	11.26	20.85
12/02/2020 02:12:02	120220	12022020	021202	193.66	13.691122	-56.932728	193.90	0.650	-0.490	1.120	193.66	-1.80	1.60	 	 	 	 	 	 	 	 	 	 	 	 	 	 	 	 	 	 	1581473522	11.43	21.17
12/02/2020 02:12:03	120220	12022020	021203	193.56	13.691070	-56.932740	193.77	0.690	-0.670	1.370	193.53	-2.00	1.80	 	 	 	 	 	 	 	 	 	 	 	 	 	 	 	 	 	 	1581473523	11.41	21.13
12/02/2020 02:12:04	120220	12022020	021204	193.38	13.691018	-56.932752	193.58	0.290	-0.750	1.860	193.34	-2.10	2.20	 	 	 	 	 	 	 	 	 	 	 	 	 	 	 	 	 	 	1581473524	11.43	21.17
12/02/2020 02:12:05	120220	12022020	021205	193.19	13.690968	-56.932768	193.42	-0.300	-0.570	2.500	193.16	-1.90	2.90	 	 	 	 	 	 	 	 	 	 	 	 	 	 	 	 	 	 	1581473525	11.36	21.04
12/02/2020 02:12:06	120220	12022020	021206	193.12	13.690920	-56.932787	193.41	-0.790	-0.080	2.770	193.14	-1.50	3.20	 	 	 	 	 	 	 	 	 	 	 	 	 	 	 	 	 	 	1581473526	11.04	20.45
12/02/2020 02:12:07	120220	12022020	021207	193.23	13.690872	-56.932805	193.55	-0.990	0.360	2.770	193.27	-1.00	3.30	 	 	 	 	 	 	 	 	 	 	 	 	 	 	 	 	 	 	1581473527	10.86	20.11
12/02/2020 02:12:08	120220	12022020	021208	193.41	13.690825	-56.932822	193.71	-0.810	0.490	2.420	193.44	-0.90	2.60	 	 	 	 	 	 	 	 	 	 	 	 	 	 	 	 	 	 	1581473528	10.90	20.19
12/02/2020 02:12:09	120220	12022020	021209	193.51	13.690775	-56.932837	193.76	-0.330	0.310	1.910	193.51	-1.00	2.40	 	 	 	 	 	 	 	 	 	 	 	 	 	 	 	 	 	 	1581473529	11.05	20.46
12/02/2020 02:12:10	120220	12022020	021210	193.50	13.690725	-56.932850	193.73	0.250	0.000	1.480	193.49	-1.50	1.70	 	 	 	 	 	 	 	 	 	 	 	 	 	 	 	 	 	 	1581473530	11.06	20.48
12/02/2020 02:12:11	120220	12022020	021211	193.43	13.690677	-56.932862	193.65	0.690	-0.250	1.080	193.42	-1.60	1.60	 	 	 	 	 	 	 	 	 	 	 	 	 	 	 	 	 	 	1581473531	10.94	20.26
12/02/2020 02:12:12	120220	12022020	021212	193.32	13.690627	-56.932872	193.54	0.830	-0.320	0.960	193.31	-1.70	1.40	 	 	 	 	 	 	 	 	 	 	 	 	 	 	 	 	 	 	1581473532	10.69	19.80
12/02/2020 02:12:13	120220	12022020	021213	193.35	13.690580	-56.932883	193.62	0.650	-0.260	1.040	193.38	-1.60	1.50	 	 	 	 	 	 	 	 	 	 	 	 	 	 	 	 	 	 	1581473533	10.47	19.39
12/02/2020 02:12:14	120220	12022020	021214	193.49	13.690533	-56.932897	193.76	0.300	-0.310	1.310	193.50	-1.60	1.70	 	 	 	 	 	 	 	 	 	 	 	 	 	 	 	 	 	 	1581473534	10.46	19.37
12/02/2020 02:12:15	120220	12022020	021215	193.40	13.690483	-56.932912	193.58	0.100	-0.760	1.820	193.35	-2.00	2.20	 	 	 	 	 	 	 	 	 	 	 	 	 	 	 	 	 	 	1581473535	11.00	20.37
12/02/2020 02:12:16	120220	12022020	021216	193.12	13.690433	-56.932928	193.32	0.130	-1.260	2.230	193.07	-2.60	2.70	 	 	 	 	 	 	 	 	 	 	 	 	 	 	 	 	 	 	1581473536	11.49	21.28
12/02/2020 02:12:17	120220	12022020	021217	192.99	13.690383	-56.932943	193.24	0.190	-1.340	2.250	192.98	-2.70	2.70	 	 	 	 	 	 	 	 	 	 	 	 	 	 	 	 	 	 	1581473537	11.35	21.02
12/02/2020 02:12:18	120220	12022020	021218	192.97	13.690333	-56.932958	193.20	0.020	-1.040	2.200	192.97	-2.40	2.70	 	 	 	 	 	 	 	 	 	 	 	 	 	 	 	 	 	 	1581473538	11.05	20.46
12/02/2020 02:12:19	120220	12022020	021219	192.89	13.690285	-56.932973	193.09	-0.330	-0.620	2.170	192.86	-2.00	2.60	 	 	 	 	 	 	 	 	 	 	 	 	 	 	 	 	 	 	1581473539	11.03	20.43
12/02/2020 02:12:20	120220	12022020	021220	192.77	13.690235	-56.932988	192.99	-0.610	-0.100	2.050	192.76	-1.50	2.50	 	 	 	 	 	 	 	 	 	 	 	 	 	 	 	 	 	 	1581473540	11.04	20.45
12/02/2020 02:12:21	120220	12022020	021221	192.75	13.690187	-56.933002	192.99	-0.600	0.430	1.930	192.75	-1.00	2.40	 	 	 	 	 	 	 	 	 	 	 	 	 	 	 	 	 	 	1581473541	10.93	20.24
12/02/2020 02:12:22	120220	12022020	021222	192.66	13.690135	-56.933015	192.88	-0.400	0.550	2.010	192.63	-0.80	2.50	 	 	 	 	 	 	 	 	 	 	 	 	 	 	 	 	 	 	1581473542	11.21	20.76
12/02/2020 02:12:23	120220	12022020	021223	192.56	13.690085	-56.933032	192.85	-0.240	0.390	2.190	192.58	-0.90	2.60	 	 	 	 	 	 	 	 	 	 	 	 	 	 	 	 	 	 	1581473543	11.53	21.35
12/02/2020 02:12:24	120220	12022020	021224	192.82	13.690035	-56.933047	193.19	-0.190	0.480	2.140	192.91	-0.90	2.60	 	 	 	 	 	 	 	 	 	 	 	 	 	 	 	 	 	 	1581473544	11.08	20.52
12/02/2020 02:12:25	120220	12022020	021225	193.38	13.689988	-56.933060	193.75	0.020	0.740	1.690	193.49	-0.60	2.20	 	 	 	 	 	 	 	 	 	 	 	 	 	 	 	 	 	 	1581473545	10.33	19.13
12/02/2020 02:12:26	120220	12022020	021226	193.80	13.689940	-56.933070	194.08	0.590	0.360	1.210	193.84	-0.90	1.70	 	 	 	 	 	 	 	 	 	 	 	 	 	 	 	 	 	 	1581473546	10.59	19.61
12/02/2020 02:12:27	120220	12022020	021227	193.93	13.689888	-56.933078	194.18	1.100	-0.590	1.190	193.93	-1.80	1.60	 	 	 	 	 	 	 	 	 	 	 	 	 	 	 	 	 	 	1581473547	11.30	20.93
12/02/2020 02:12:28	120220	12022020	021228	193.80	13.689838	-56.933092	193.96	0.990	-1.390	1.630	193.73	-2.70	2.00	 	 	 	 	 	 	 	 	 	 	 	 	 	 	 	 	 	 	1581473548	11.24	20.82
12/02/2020 02:12:29	120220	12022020	021229	193.30	13.689788	-56.933108	193.39	0.340	-1.790	2.260	193.17	-3.10	2.60	 	 	 	 	 	 	 	 	 	 	 	 	 	 	 	 	 	 	1581473549	11.05	20.46
12/02/2020 02:12:30	120220	12022020	021230	192.67	13.689742	-56.933127	192.81	-0.330	-1.640	2.760	192.57	-3.00	3.20	 	 	 	 	 	 	 	 	 	 	 	 	 	 	 	 	 	 	1581473550	11.05	20.46
12/02/2020 02:12:31	120220	12022020	021231	192.34	13.689695	-56.933145	192.58	-0.610	-0.910	2.650	192.32	-2.40	3.20	 	 	 	 	 	 	 	 	 	 	 	 	 	 	 	 	 	 	1581473551	10.60	19.63
12/02/2020 02:12:32	120220	12022020	021232	192.39	13.689650	-56.933160	192.69	-0.450	-0.070	2.020	192.44	-1.50	2.60	 	 	 	 	 	 	 	 	 	 	 	 	 	 	 	 	 	 	1581473552	10.42	19.30
12/02/2020 02:12:33	120220	12022020	021233	192.70	13.689600	-56.933170	193.00	-0.080	0.280	1.260	192.76	-1.10	1.80	 	 	 	 	 	 	 	 	 	 	 	 	 	 	 	 	 	 	1581473553	10.81	20.02
12/02/2020 02:12:34	120220	12022020	021234	192.97	13.689548	-56.933180	193.22	0.190	-0.010	1.010	193.00	-1.30	1.50	 	 	 	 	 	 	 	 	 	 	 	 	 	 	 	 	 	 	1581473554	11.50	21.30
12/02/2020 02:12:35	120220	12022020	021235	193.03	13.689493	-56.933195	193.25	0.140	-0.590	1.400	193.01	-1.90	1.80	 	 	 	 	 	 	 	 	 	 	 	 	 	 	 	 	 	 	1581473555	11.93	22.09
12/02/2020 02:12:36	120220	12022020	021236	192.87	13.689442	-56.933212	193.04	-0.220	-0.830	2.160	192.81	-2.20	2.50	 	 	 	 	 	 	 	 	 	 	 	 	 	 	 	 	 	 	1581473556	11.79	21.84
12/02/2020 02:12:37	120220	12022020	021237	192.53	13.689393	-56.933232	192.70	-0.630	-0.420	2.910	192.46	-1.90	3.30	 	 	 	 	 	 	 	 	 	 	 	 	 	 	 	 	 	 	1581473557	11.28	20.89
12/02/2020 02:12:38	120220	12022020	021238	192.27	13.689347	-56.933250	192.53	-0.830	0.520	3.080	192.27	-1.00	3.60	 	 	 	 	 	 	 	 	 	 	 	 	 	 	 	 	 	 	1581473558	10.62	19.67
12/02/2020 02:12:39	120220	12022020	021239	192.52	13.689302	-56.933263	192.90	-0.670	1.470	2.280	192.65	-0.00	2.90	 	 	 	 	 	 	 	 	 	 	 	 	 	 	 	 	 	 	1581473559	10.08	18.67
12/02/2020 02:12:40	120220	12022020	021240	193.27	13.689255	-56.933273	193.68	-0.100	1.640	1.000	193.43	0.30	1.70	 	 	 	 	 	 	 	 	 	 	 	 	 	 	 	 	 	 	1581473560	10.20	18.89
12/02/2020 02:12:41	120220	12022020	021241	193.96	13.689205	-56.933280	194.28	0.710	0.590	0.110	194.06	-0.50	0.70	 	 	 	 	 	 	 	 	 	 	 	 	 	 	 	 	 	 	1581473561	11.13	20.61
12/02/2020 02:12:42	120220	12022020	021242	194.26	13.689150	-56.933288	194.45	1.320	-1.110	0.160	194.24	-2.20	0.60	 	 	 	 	 	 	 	 	 	 	 	 	 	 	 	 	 	 	1581473562	11.82	21.89
12/02/2020 02:12:43	120220	12022020	021243	193.89	13.689097	-56.933303	193.95	1.390	-2.490	1.210	193.74	-3.70	1.50	 	 	 	 	 	 	 	 	 	 	 	 	 	 	 	 	 	 	1581473563	11.76	21.78
12/02/2020 02:12:44	120220	12022020	021244	192.97	13.689048	-56.933322	192.99	0.830	-2.710	2.790	192.75	-4.10	3.00	 	 	 	 	 	 	 	 	 	 	 	 	 	 	 	 	 	 	1581473564	11.18	20.71
12/02/2020 02:12:45	120220	12022020	021245	192.05	13.689005	-56.933342	192.22	-0.230	-1.560	3.880	191.93	-3.10	4.30	 	 	 	 	 	 	 	 	 	 	 	 	 	 	 	 	 	 	1581473565	10.32	19.11
12/02/2020 02:12:46	120220	12022020	021246	191.75	13.688965	-56.933363	192.07	-1.280	0.050	3.850	191.76	-0.80	4.00	 	 	 	 	 	 	 	 	 	 	 	 	 	 	 	 	 	 	1581473566	9.76	18.08
12/02/2020 02:12:47	120220	12022020	021247	192.00	13.688920	-56.933382	192.42	-1.630	0.860	3.040	192.10	-0.50	3.70	 	 	 	 	 	 	 	 	 	 	 	 	 	 	 	 	 	 	1581473567	10.30	19.08
12/02/2020 02:12:48	120220	12022020	021248	192.59	13.688870	-56.933397	192.99	-0.950	0.630	1.650	192.71	-0.70	2.30	 	 	 	 	 	 	 	 	 	 	 	 	 	 	 	 	 	 	1581473568	11.30	20.93
12/02/2020 02:12:49	120220	12022020	021249	193.16	13.688815	-56.933405	193.48	0.200	-0.140	0.620	193.24	-1.40	1.20	 	 	 	 	 	 	 	 	 	 	 	 	 	 	 	 	 	 	1581473569	12.00	22.22
12/02/2020 02:12:50	120220	12022020	021250	193.41	13.688760	-56.933415	193.66	0.900	-0.780	0.600	193.42	-2.10	1.00	 	 	 	 	 	 	 	 	 	 	 	 	 	 	 	 	 	 	1581473570	11.99	22.21
12/02/2020 02:12:51	120220	12022020	021251	193.36	13.688708	-56.933428	193.59	0.740	-0.790	1.300	193.33	-2.20	1.70	 	 	 	 	 	 	 	 	 	 	 	 	 	 	 	 	 	 	1581473571	11.31	20.95
12/02/2020 02:12:52	120220	12022020	021252	193.26	13.688662	-56.933443	193.54	0.050	-0.130	1.960	193.27	-1.60	2.40	 	 	 	 	 	 	 	 	 	 	 	 	 	 	 	 	 	 	1581473572	10.57	19.58
12/02/2020 02:12:53	120220	12022020	021253	193.43	13.688618	-56.933460	193.76	-0.560	0.750	2.190	193.50	-0.70	2.70	 	 	 	 	 	 	 	 	 	 	 	 	 	 	 	 	 	 	1581473573	10.06	18.63
12/02/2020 02:12:54	120220	12022020	021254	193.78	13.688573	-56.933475	194.08	-0.640	1.040	1.870	193.83	-0.30	2.40	 	 	 	 	 	 	 	 	 	 	 	 	 	 	 	 	 	 	1581473574	10.17	18.83
12/02/2020 02:12:55	120220	12022020	021255	193.92	13.688523	-56.933488	194.12	-0.150	0.310	1.490	193.89	-0.90	2.00	 	 	 	 	 	 	 	 	 	 	 	 	 	 	 	 	 	 	1581473575	11.07	20.50
12/02/2020 02:12:56	120220	12022020	021256	193.65	13.688470	-56.933502	193.78	0.500	-0.810	1.390	193.56	-2.00	1.90	 	 	 	 	 	 	 	 	 	 	 	 	 	 	 	 	 	 	1581473576	11.73	21.72
12/02/2020 02:12:57	120220	12022020	021257	193.20	13.688420	-56.933515	193.33	0.740	-1.250	1.450	193.11	-2.60	1.90	 	 	 	 	 	 	 	 	 	 	 	 	 	 	 	 	 	 	1581473577	11.22	20.78
12/02/2020 02:12:58	120220	12022020	021258	192.79	13.688373	-56.933528	192.97	0.430	-0.930	1.520	192.73	-2.40	2.00	 	 	 	 	 	 	 	 	 	 	 	 	 	 	 	 	 	 	1581473578	10.37	19.21
12/02/2020 02:12:59	120220	12022020	021259	192.54	13.688328	-56.933542	192.75	-0.060	-0.490	1.550	192.50	-1.90	2.00	 	 	 	 	 	 	 	 	 	 	 	 	 	 	 	 	 	 	1581473579	10.18	18.85
12/02/2020 02:13:00	120220	12022020	021300	192.47	13.688282	-56.933558	192.75	-0.360	-0.350	1.570	192.48	-1.70	2.00	 	 	 	 	 	 	 	 	 	 	 	 	 	 	 	 	 	 	1581473580	10.61	19.65
12/02/2020 02:13:01	120220	12022020	021301	192.65	13.688233	-56.933573	193.00	-0.340	-0.420	1.510	192.70	-1.80	2.00	1017.50	26.00	26.00	21.60	21.60	-1.0	76.0	76.0	416.0	25.6	267.00	8.10	66.00	10.10	15	7923.0	27.2	27.2	1581473581	11.01	20.39
12/02/2020 02:13:02	120220	12022020	021302	193.04	13.688183	-56.933590	193.42	-0.130	-0.430	1.320	193.13	-1.80	1.80	 	 	 	 	 	 	 	 	 	 	 	 	 	 	 	 	 	 	1581473582	11.04	20.45
12/02/2020 02:13:03	120220	12022020	021303	193.56	13.688135	-56.933603	193.95	0.080	-0.230	1.060	193.67	-1.60	1.60	 	 	 	 	 	 	 	 	 	 	 	 	 	 	 	 	 	 	1581473583	10.75	19.91
12/02/2020 02:13:04	120220	12022020	021304	193.98	13.688087	-56.933615	194.26	0.200	-0.110	0.920	194.01	-1.50	1.40	 	 	 	 	 	 	 	 	 	 	 	 	 	 	 	 	 	 	1581473584	10.64	19.71
12/02/2020 02:13:05	120220	12022020	021305	193.89	13.688037	-56.933628	194.02	0.300	-0.390	1.180	193.80	-1.70	1.60	 	 	 	 	 	 	 	 	 	 	 	 	 	 	 	 	 	 	1581473585	11.05	20.46
12/02/2020 02:13:06	120220	12022020	021306	193.21	13.687985	-56.933642	193.24	0.410	-1.000	1.830	193.03	-2.30	2.20	 	 	 	 	 	 	 	 	 	 	 	 	 	 	 	 	 	 	1581473586	11.72	21.71
12/02/2020 02:13:07	120220	12022020	021307	192.34	13.687932	-56.933658	192.43	0.320	-1.080	2.410	192.20	-2.50	2.80	 	 	 	 	 	 	 	 	 	 	 	 	 	 	 	 	 	 	1581473587	11.75	21.76
12/02/2020 02:13:08	120220	12022020	021308	191.88	13.687885	-56.933673	192.18	-0.140	-0.130	2.640	191.89	-1.70	3.10	 	 	 	 	 	 	 	 	 	 	 	 	 	 	 	 	 	 	1581473588	10.77	19.95
12/02/2020 02:13:09	120220	12022020	021309	192.26	13.687842	-56.933690	192.72	-0.850	1.210	2.490	192.42	-0.30	3.00	 	 	 	 	 	 	 	 	 	 	 	 	 	 	 	 	 	 	1581473589	9.82	18.19
12/02/2020 02:13:10	120220	12022020	021310	193.15	13.687798	-56.933707	193.63	-1.300	1.700	2.130	193.34	0.40	2.70	 	 	 	 	 	 	 	 	 	 	 	 	 	 	 	 	 	 	1581473590	9.98	18.48
12/02/2020 02:13:11	120220	12022020	021311	193.98	13.687750	-56.933725	194.36	-0.900	0.820	1.610	194.10	-0.40	2.20	 	 	 	 	 	 	 	 	 	 	 	 	 	 	 	 	 	 	1581473591	11.07	20.50
12/02/2020 02:13:12	120220	12022020	021312	194.36	13.687697	-56.933740	194.61	0.330	-0.740	1.110	194.38	-2.70	1.40	 	 	 	 	 	 	 	 	 	 	 	 	 	 	 	 	 	 	1581473592	12.00	22.22
12/02/2020 02:13:13	120220	12022020	021313	194.42	13.687643	-56.933750	194.69	1.380	-1.510	0.830	194.45	-2.80	1.30	 	 	 	 	 	 	 	 	 	 	 	 	 	 	 	 	 	 	1581473593	11.62	21.52
12/02/2020 02:13:14	120220	12022020	021314	194.64	13.687597	-56.933760	194.97	1.330	-1.070	0.880	194.70	-2.50	1.30	 	 	 	 	 	 	 	 	 	 	 	 	 	 	 	 	 	 	1581473594	10.13	18.76
12/02/2020 02:13:15	120220	12022020	021315	194.90	13.687555	-56.933773	195.17	0.470	-0.440	1.260	194.92	-1.90	1.70	 	 	 	 	 	 	 	 	 	 	 	 	 	 	 	 	 	 	1581473595	9.52	17.63
12/02/2020 02:13:16	120220	12022020	021316	194.82	13.687510	-56.933790	195.00	-0.190	-0.480	1.790	194.75	-1.80	2.20	 	 	 	 	 	 	 	 	 	 	 	 	 	 	 	 	 	 	1581473596	10.32	19.11
12/02/2020 02:13:17	120220	12022020	021317	194.40	13.687460	-56.933808	194.54	-0.150	-0.910	2.270	194.31	-2.20	2.70	 	 	 	 	 	 	 	 	 	 	 	 	 	 	 	 	 	 	1581473597	11.26	20.85
12/02/2020 02:13:18	120220	12022020	021318	193.90	13.687410	-56.933825	194.01	0.150	-1.060	2.530	193.78	-2.40	2.90	 	 	 	 	 	 	 	 	 	 	 	 	 	 	 	 	 	 	1581473598	11.32	20.96
12/02/2020 02:13:19	120220	12022020	021319	193.29	13.687362	-56.933842	193.40	0.190	-0.930	2.710	193.16	-2.30	3.10	 	 	 	 	 	 	 	 	 	 	 	 	 	 	 	 	 	 	1581473599	11.22	20.78
12/02/2020 02:13:20	120220	12022020	021320	192.71	13.687312	-56.933858	192.86	-0.170	-0.570	2.800	192.62	-2.00	3.30	 	 	 	 	 	 	 	 	 	 	 	 	 	 	 	 	 	 	1581473600	11.21	20.76
12/02/2020 02:13:21	120220	12022020	021321	192.42	13.687263	-56.933875	192.65	-0.690	0.090	2.690	192.40	-1.40	3.20	 	 	 	 	 	 	 	 	 	 	 	 	 	 	 	 	 	 	1581473601	10.95	20.28
12/02/2020 02:13:22	120220	12022020	021322	192.46	13.687217	-56.933893	192.77	-1.050	0.740	2.470	192.51	-0.70	3.00	 	 	 	 	 	 	 	 	 	 	 	 	 	 	 	 	 	 	1581473602	10.71	19.83
12/02/2020 02:13:23	120220	12022020	021323	192.79	13.687170	-56.933910	193.15	-0.980	1.020	2.180	192.89	-0.40	2.70	 	 	 	 	 	 	 	 	 	 	 	 	 	 	 	 	 	 	1581473603	10.79	19.98
12/02/2020 02:13:24	120220	12022020	021324	193.33	13.687122	-56.933925	193.72	-0.440	0.870	1.730	193.45	-0.70	1.90	 	 	 	 	 	 	 	 	 	 	 	 	 	 	 	 	 	 	1581473604	10.92	20.22
12/02/2020 02:13:25	120220	12022020	021325	193.93	13.687072	-56.933938	194.28	0.290	0.440	1.240	194.03	-0.90	1.80	 	 	 	 	 	 	 	 	 	 	 	 	 	 	 	 	 	 	1581473605	10.89	20.17
12/02/2020 02:13:26	120220	12022020	021326	194.38	13.687023	-56.933948	194.65	0.830	-0.120	0.920	194.43	-1.40	1.40	 	 	 	 	 	 	 	 	 	 	 	 	 	 	 	 	 	 	1581473606	10.79	19.98
12/02/2020 02:13:27	120220	12022020	021327	194.56	13.686973	-56.933958	194.77	1.040	-0.700	0.840	194.56	-2.00	1.30	 	 	 	 	 	 	 	 	 	 	 	 	 	 	 	 	 	 	1581473607	10.71	19.83
12/02/2020 02:13:28	120220	12022020	021328	194.43	13.686925	-56.933970	194.57	0.990	-1.140	1.190	194.37	-2.40	1.60	 	 	 	 	 	 	 	 	 	 	 	 	 	 	 	 	 	 	1581473608	10.63	19.69
12/02/2020 02:13:29	120220	12022020	021329	194.07	13.686878	-56.933982	194.21	0.720	-1.200	1.610	193.99	-2.60	2.00	 	 	 	 	 	 	 	 	 	 	 	 	 	 	 	 	 	 	1581473609	10.48	19.41
12/02/2020 02:13:30	120220	12022020	021330	193.59	13.686832	-56.933995	193.67	0.240	-0.980	2.010	193.47	-2.40	2.40	 	 	 	 	 	 	 	 	 	 	 	 	 	 	 	 	 	 	1581473610	10.31	19.09
12/02/2020 02:13:31	120220	12022020	021331	192.98	13.686785	-56.934010	193.08	-0.340	-0.870	2.410	192.86	-2.20	2.80	 	 	 	 	 	 	 	 	 	 	 	 	 	 	 	 	 	 	1581473611	10.63	19.69
12/02/2020 02:13:32	120220	12022020	021332	192.40	13.686737	-56.934028	192.51	-0.810	-1.010	2.870	192.28	-2.30	3.30	 	 	 	 	 	 	 	 	 	 	 	 	 	 	 	 	 	 	1581473612	11.25	20.84
12/02/2020 02:13:33	120220	12022020	021333	191.77	13.686685	-56.934052	191.88	-0.890	-1.170	3.250	191.63	-2.50	3.70	 	 	 	 	 	 	 	 	 	 	 	 	 	 	 	 	 	 	1581473613	11.78	21.82
12/02/2020 02:13:34	120220	12022020	021334	191.10	13.686635	-56.934072	191.24	-0.550	-0.930	3.340	190.98	-2.30	3.80	 	 	 	 	 	 	 	 	 	 	 	 	 	 	 	 	 	 	1581473614	11.76	21.78
12/02/2020 02:13:35	120220	12022020	021335	190.79	13.686587	-56.934087	191.13	-0.190	0.120	2.830	190.83	-1.40	3.40	 	 	 	 	 	 	 	 	 	 	 	 	 	 	 	 	 	 	1581473615	10.91	20.21
12/02/2020 02:13:36	120220	12022020	021336	191.34	13.686543	-56.934098	191.88	-0.220	1.630	1.880	191.56	0.10	2.50	 	 	 	 	 	 	 	 	 	 	 	 	 	 	 	 	 	 	1581473616	9.73	18.02
12/02/2020 02:13:37	120220	12022020	021337	192.51	13.686498	-56.934107	193.05	-0.420	2.310	0.990	192.75	1.00	1.60	 	 	 	 	 	 	 	 	 	 	 	 	 	 	 	 	 	 	1581473617	9.54	17.67
12/02/2020 02:13:38	120220	12022020	021338	193.51	13.686450	-56.934118	193.90	-0.140	1.220	0.600	193.63	0.10	1.10	 	 	 	 	 	 	 	 	 	 	 	 	 	 	 	 	 	 	1581473618	10.85	20.09
12/02/2020 02:13:39	120220	12022020	021339	194.00	13.686395	-56.934130	194.30	0.720	-0.780	0.730	194.06	-1.90	1.20	 	 	 	 	 	 	 	 	 	 	 	 	 	 	 	 	 	 	1581473619	12.11	22.43
12/02/2020 02:13:40	120220	12022020	021340	194.29	13.686342	-56.934140	194.59	1.410	-1.980	1.090	194.34	-3.20	1.50	 	 	 	 	 	 	 	 	 	 	 	 	 	 	 	 	 	 	1581473620	11.69	21.65
12/02/2020 02:13:41	120220	12022020	021341	194.46	13.686293	-56.934152	194.73	1.200	-2.000	1.770	194.48	-3.40	2.10	 	 	 	 	 	 	 	 	 	 	 	 	 	 	 	 	 	 	1581473621	10.45	19.35
12/02/2020 02:13:42	120220	12022020	021342	194.41	13.686250	-56.934167	194.63	0.200	-1.390	2.720	194.37	-2.80	3.00	 	 	 	 	 	 	 	 	 	 	 	 	 	 	 	 	 	 	1581473622	9.90	18.33
12/02/2020 02:13:43	120220	12022020	021343	194.14	13.686207	-56.934187	194.34	-0.880	-0.690	3.470	194.06	-2.10	3.90	 	 	 	 	 	 	 	 	 	 	 	 	 	 	 	 	 	 	1581473623	10.14	18.78
12/02/2020 02:13:44	120220	12022020	021344	193.81	13.686163	-56.934208	193.99	-1.400	-0.180	3.610	193.73	-1.60	4.10	 	 	 	 	 	 	 	 	 	 	 	 	 	 	 	 	 	 	1581473624	10.58	19.59
12/02/2020 02:13:45	120220	12022020	021345	193.43	13.686115	-56.934227	193.60	-1.130	0.030	3.250	193.34	-1.30	3.80	 	 	 	 	 	 	 	 	 	 	 	 	 	 	 	 	 	 	1581473625	10.99	20.35
12/02/2020 02:13:46	120220	12022020	021346	193.04	13.686065	-56.934243	193.22	-0.320	0.020	2.510	192.97	-1.30	3.10	 	 	 	 	 	 	 	 	 	 	 	 	 	 	 	 	 	 	1581473626	11.26	20.85
12/02/2020 02:13:47	120220	12022020	021347	192.83	13.686015	-56.934253	193.08	0.470	0.110	1.480	192.83	-1.30	2.10	 	 	 	 	 	 	 	 	 	 	 	 	 	 	 	 	 	 	1581473627	11.17	20.69
12/02/2020 02:13:48	120220	12022020	021348	192.94	13.685965	-56.934260	193.23	0.830	0.290	0.620	192.99	-1.00	0.90	 	 	 	 	 	 	 	 	 	 	 	 	 	 	 	 	 	 	1581473628	10.85	20.09
12/02/2020 02:13:49	120220	12022020	021349	193.23	13.685915	-56.934268	193.56	0.800	0.330	0.330	193.31	-1.00	0.80	 	 	 	 	 	 	 	 	 	 	 	 	 	 	 	 	 	 	1581473629	10.85	20.09
12/02/2020 02:13:50	120220	12022020	021350	193.70	13.685868	-56.934280	194.08	0.550	0.220	0.500	193.81	-1.20	1.20	 	 	 	 	 	 	 	 	 	 	 	 	 	 	 	 	 	 	1581473630	10.57	19.58
12/02/2020 02:13:51	120220	12022020	021351	194.25	13.685822	-56.934295	194.61	0.210	-0.050	1.060	194.33	-1.30	1.40	 	 	 	 	 	 	 	 	 	 	 	 	 	 	 	 	 	 	1581473631	10.46	19.37
12/02/2020 02:13:52	120220	12022020	021352	194.47	13.685775	-56.934313	194.71	-0.070	-0.670	1.950	194.45	-1.90	2.30	 	 	 	 	 	 	 	 	 	 	 	 	 	 	 	 	 	 	1581473632	10.74	19.89
12/02/2020 02:13:53	120220	12022020	021353	194.13	13.685727	-56.934335	194.27	-0.240	-1.410	2.840	194.01	-2.70	3.20	 	 	 	 	 	 	 	 	 	 	 	 	 	 	 	 	 	 	1581473633	11.26	20.85
12/02/2020 02:13:54	120220	12022020	021354	193.51	13.685678	-56.934355	193.67	-0.430	-1.660	3.350	193.39	-3.00	3.80	 	 	 	 	 	 	 	 	 	 	 	 	 	 	 	 	 	 	1581473634	11.24	20.82
12/02/2020 02:13:55	120220	12022020	021355	192.99	13.685632	-56.934373	193.21	-0.560	-1.080	3.190	192.93	-2.60	3.70	 	 	 	 	 	 	 	 	 	 	 	 	 	 	 	 	 	 	1581473635	10.64	19.71
12/02/2020 02:13:56	120220	12022020	021356	192.83	13.685587	-56.934387	193.09	-0.480	-0.020	2.370	192.83	-1.50	3.00	 	 	 	 	 	 	 	 	 	 	 	 	 	 	 	 	 	 	1581473636	9.98	18.48
12/02/2020 02:13:57	120220	12022020	021357	192.91	13.685540	-56.934395	193.17	-0.150	0.520	1.380	192.92	-0.80	2.00	 	 	 	 	 	 	 	 	 	 	 	 	 	 	 	 	 	 	1581473637	10.23	18.95
12/02/2020 02:13:58	120220	12022020	021358	192.95	13.685490	-56.934403	193.18	0.250	0.270	0.840	192.94	-1.00	1.40	 	 	 	 	 	 	 	 	 	 	 	 	 	 	 	 	 	 	1581473638	11.09	20.54
12/02/2020 02:13:59	120220	12022020	021359	192.82	13.685437	-56.934415	192.99	0.470	-0.300	0.890	192.77	-1.60	1.30	 	 	 	 	 	 	 	 	 	 	 	 	 	 	 	 	 	 	1581473639	11.48	21.26
12/02/2020 02:14:00	120220	12022020	021400	192.48	13.685387	-56.934428	192.62	0.430	-0.650	1.340	192.39	-2.00	1.70	 	 	 	 	 	 	 	 	 	 	 	 	 	 	 	 	 	 	1581473640	11.35	21.02
12/02/2020 02:14:01	120220	12022020	021401	192.10	13.685338	-56.934442	192.33	0.200	-0.450	1.970	192.05	-1.80	2.40	1017.50	25.90	26.00	21.50	21.50	-1.0	76.0	76.0	412.0	25.6	269.00	9.00	71.00	10.60	15	7778.0	27.2	27.2	1581473641	10.86	20.11
12/02/2020 02:14:02	120220	12022020	021402	191.98	13.685292	-56.934457	192.28	-0.120	0.100	2.420	192.00	-1.30	2.80	 	 	 	 	 	 	 	 	 	 	 	 	 	 	 	 	 	 	1581473642	10.33	19.13
12/02/2020 02:14:03	120220	12022020	021403	192.15	13.685247	-56.934473	192.49	-0.370	0.480	2.490	192.22	-0.90	3.00	 	 	 	 	 	 	 	 	 	 	 	 	 	 	 	 	 	 	1581473643	10.23	18.95
12/02/2020 02:14:04	120220	12022020	021404	192.56	13.685200	-56.934488	192.94	-0.400	0.400	2.260	192.65	-0.90	2.80	 	 	 	 	 	 	 	 	 	 	 	 	 	 	 	 	 	 	1581473644	10.49	19.43
12/02/2020 02:14:05	120220	12022020	021405	193.07	13.685152	-56.934502	193.43	-0.100	-0.030	1.760	193.17	-1.30	2.30	 	 	 	 	 	 	 	 	 	 	 	 	 	 	 	 	 	 	1581473645	10.75	19.91
12/02/2020 02:14:06	120220	12022020	021406	193.53	13.685103	-56.934513	193.84	0.380	-0.610	1.190	193.61	-1.90	1.70	 	 	 	 	 	 	 	 	 	 	 	 	 	 	 	 	 	 	1581473646	10.90	20.19
12/02/2020 02:14:07	120220	12022020	021407	193.77	13.685053	-56.934523	194.00	0.720	-1.040	0.960	193.77	-2.30	1.40	 	 	 	 	 	 	 	 	 	 	 	 	 	 	 	 	 	 	1581473647	10.84	20.08
12/02/2020 02:14:08	120220	12022020	021408	193.57	13.685005	-56.934535	193.71	0.700	-1.250	1.220	193.49	-2.60	1.60	 	 	 	 	 	 	 	 	 	 	 	 	 	 	 	 	 	 	1581473648	10.76	19.93
12/02/2020 02:14:09	120220	12022020	021409	193.11	13.684957	-56.934548	193.26	0.310	-1.150	1.520	193.03	-2.50	1.90	 	 	 	 	 	 	 	 	 	 	 	 	 	 	 	 	 	 	1581473649	10.83	20.06
12/02/2020 02:14:10	120220	12022020	021410	192.79	13.684908	-56.934562	193.00	-0.310	-0.670	1.640	192.76	-2.10	2.10	 	 	 	 	 	 	 	 	 	 	 	 	 	 	 	 	 	 	1581473650	10.66	19.74
12/02/2020 02:14:11	120220	12022020	021411	192.80	13.684862	-56.934578	193.08	-0.860	-0.020	1.470	192.84	-1.50	2.00	 	 	 	 	 	 	 	 	 	 	 	 	 	 	 	 	 	 	1581473651	10.55	19.54
12/02/2020 02:14:12	120220	12022020	021412	193.07	13.684815	-56.934593	193.36	-0.970	0.430	1.130	193.12	-0.90	1.60	 	 	 	 	 	 	 	 	 	 	 	 	 	 	 	 	 	 	1581473652	10.60	19.63
12/02/2020 02:14:13	120220	12022020	021413	193.33	13.684767	-56.934608	193.61	-0.560	0.420	0.760	193.37	-0.90	1.30	 	 	 	 	 	 	 	 	 	 	 	 	 	 	 	 	 	 	1581473653	10.94	20.26
12/02/2020 02:14:14	120220	12022020	021414	193.53	13.684715	-56.934620	193.79	0.010	0.030	0.570	193.56	-1.50	1.10	 	 	 	 	 	 	 	 	 	 	 	 	 	 	 	 	 	 	1581473654	11.32	20.96
12/02/2020 02:14:15	120220	12022020	021415	193.63	13.684663	-56.934633	193.88	0.330	-0.400	0.770	193.65	-1.70	1.20	 	 	 	 	 	 	 	 	 	 	 	 	 	 	 	 	 	 	1581473655	11.37	21.06
12/02/2020 02:14:16	120220	12022020	021416	193.82	13.684615	-56.934648	194.14	0.280	-0.410	1.060	193.89	-1.80	1.50	 	 	 	 	 	 	 	 	 	 	 	 	 	 	 	 	 	 	1581473656	10.92	20.22
12/02/2020 02:14:17	120220	12022020	021417	194.24	13.684570	-56.934663	194.57	0.020	0.050	1.280	194.32	-1.40	1.70	 	 	 	 	 	 	 	 	 	 	 	 	 	 	 	 	 	 	1581473657	10.10	18.71
12/02/2020 02:14:18	120220	12022020	021418	194.46	13.684525	-56.934678	194.68	-0.090	0.130	1.630	194.44	-1.20	2.00	 	 	 	 	 	 	 	 	 	 	 	 	 	 	 	 	 	 	1581473658	10.10	18.71
12/02/2020 02:14:19	120220	12022020	021419	194.16	13.684477	-56.934695	194.30	0.140	-0.490	2.080	194.07	-1.70	2.50	 	 	 	 	 	 	 	 	 	 	 	 	 	 	 	 	 	 	1581473659	11.05	20.46
12/02/2020 02:14:20	120220	12022020	021420	193.73	13.684427	-56.934712	193.87	0.370	-1.000	2.300	193.65	-2.30	2.70	 	 	 	 	 	 	 	 	 	 	 	 	 	 	 	 	 	 	1581473660	11.33	20.98
12/02/2020 02:14:21	120220	12022020	021421	193.30	13.684378	-56.934727	193.44	0.300	-0.980	2.280	193.20	-2.30	2.80	 	 	 	 	 	 	 	 	 	 	 	 	 	 	 	 	 	 	1581473661	10.92	20.22
12/02/2020 02:14:22	120220	12022020	021422	192.86	13.684332	-56.934740	193.03	-0.070	-0.520	2.090	192.79	-1.90	2.60	 	 	 	 	 	 	 	 	 	 	 	 	 	 	 	 	 	 	1581473662	10.55	19.54
12/02/2020 02:14:23	120220	12022020	021423	192.61	13.684285	-56.934755	192.85	-0.490	0.040	1.790	192.60	-1.40	2.30	 	 	 	 	 	 	 	 	 	 	 	 	 	 	 	 	 	 	1581473663	10.37	19.21
12/02/2020 02:14:24	120220	12022020	021424	192.56	13.684238	-56.934770	192.80	-0.580	0.240	1.550	192.54	-1.10	2.00	 	 	 	 	 	 	 	 	 	 	 	 	 	 	 	 	 	 	1581473664	10.63	19.69
12/02/2020 02:14:25	120220	12022020	021425	192.48	13.684188	-56.934785	192.72	-0.210	-0.030	1.480	192.46	-1.30	2.00	 	 	 	 	 	 	 	 	 	 	 	 	 	 	 	 	 	 	1581473665	11.20	20.74
12/02/2020 02:14:26	120220	12022020	021426	192.47	13.684137	-56.934798	192.77	0.320	-0.300	1.420	192.50	-1.60	1.90	 	 	 	 	 	 	 	 	 	 	 	 	 	 	 	 	 	 	1581473666	11.34	21.00
12/02/2020 02:14:27	120220	12022020	021427	192.73	13.684088	-56.934812	193.13	0.540	-0.120	1.410	192.83	-1.50	1.90	 	 	 	 	 	 	 	 	 	 	 	 	 	 	 	 	 	 	1581473667	10.72	19.85
12/02/2020 02:14:28	120220	12022020	021428	193.25	13.684043	-56.934823	193.64	0.330	0.160	1.490	193.35	-1.20	1.90	 	 	 	 	 	 	 	 	 	 	 	 	 	 	 	 	 	 	1581473668	10.13	18.76
12/02/2020 02:14:29	120220	12022020	021429	193.71	13.683997	-56.934837	194.03	0.090	-0.060	1.780	193.76	-1.30	2.20	 	 	 	 	 	 	 	 	 	 	 	 	 	 	 	 	 	 	1581473669	10.34	19.15
12/02/2020 02:14:30	120220	12022020	021430	193.68	13.683947	-56.934853	193.88	0.230	-0.960	2.350	193.61	-2.20	2.70	 	 	 	 	 	 	 	 	 	 	 	 	 	 	 	 	 	 	1581473670	11.23	20.80
12/02/2020 02:14:31	120220	12022020	021431	193.21	13.683895	-56.934868	193.39	0.370	-1.500	2.920	193.12	-2.80	3.30	 	 	 	 	 	 	 	 	 	 	 	 	 	 	 	 	 	 	1581473671	11.50	21.30
12/02/2020 02:14:32	120220	12022020	021432	192.82	13.683848	-56.934885	193.06	-0.030	-0.970	3.190	192.77	-2.40	3.60	 	 	 	 	 	 	 	 	 	 	 	 	 	 	 	 	 	 	1581473672	10.56	19.56
12/02/2020 02:14:33	120220	12022020	021433	192.62	13.683805	-56.934900	192.88	-0.770	-0.040	3.060	192.60	-1.50	3.60	 	 	 	 	 	 	 	 	 	 	 	 	 	 	 	 	 	 	1581473673	9.94	18.41
12/02/2020 02:14:34	120220	12022020	021434	192.51	13.683760	-56.934918	192.74	-1.180	0.370	2.660	192.49	-1.00	3.20	 	 	 	 	 	 	 	 	 	 	 	 	 	 	 	 	 	 	1581473674	10.39	19.24
12/02/2020 02:14:35	120220	12022020	021435	192.41	13.683712	-56.934935	192.65	-0.760	0.210	2.190	192.40	-1.10	2.70	 	 	 	 	 	 	 	 	 	 	 	 	 	 	 	 	 	 	1581473675	11.10	20.56
12/02/2020 02:14:36	120220	12022020	021436	192.42	13.683660	-56.934947	192.67	0.190	-0.030	1.510	192.43	-1.30	2.10	 	 	 	 	 	 	 	 	 	 	 	 	 	 	 	 	 	 	1581473676	11.20	20.74
12/02/2020 02:14:37	120220	12022020	021437	192.45	13.683610	-56.934955	192.71	0.910	-0.210	0.900	192.47	-1.50	1.40	 	 	 	 	 	 	 	 	 	 	 	 	 	 	 	 	 	 	1581473677	11.12	20.59
12/02/2020 02:14:38	120220	12022020	021438	192.62	13.683560	-56.934965	192.96	0.920	-0.240	0.900	192.69	-1.50	1.60	 	 	 	 	 	 	 	 	 	 	 	 	 	 	 	 	 	 	1581473678	10.82	20.04
12/02/2020 02:14:39	120220	12022020	021439	193.02	13.683513	-56.934978	193.37	0.400	-0.070	1.300	193.11	-1.40	1.70	 	 	 	 	 	 	 	 	 	 	 	 	 	 	 	 	 	 	1581473679	10.38	19.22
12/02/2020 02:14:40	120220	12022020	021440	193.38	13.683468	-56.934995	193.66	-0.060	-0.060	1.690	193.42	-1.50	2.30	 	 	 	 	 	 	 	 	 	 	 	 	 	 	 	 	 	 	1581473680	10.38	19.22
12/02/2020 02:14:41	120220	12022020	021441	193.53	13.683422	-56.935010	193.78	-0.080	-0.330	1.910	193.54	-1.60	2.40	 	 	 	 	 	 	 	 	 	 	 	 	 	 	 	 	 	 	1581473681	10.73	19.87
12/02/2020 02:14:42	120220	12022020	021442	193.65	13.683372	-56.935025	193.89	0.050	-0.560	1.890	193.66	-1.90	2.40	 	 	 	 	 	 	 	 	 	 	 	 	 	 	 	 	 	 	1581473682	10.79	19.98
12/02/2020 02:14:43	120220	12022020	021443	193.70	13.683325	-56.935037	193.91	-0.040	-0.690	1.870	193.68	-2.00	2.30	 	 	 	 	 	 	 	 	 	 	 	 	 	 	 	 	 	 	1581473683	10.62	19.67
12/02/2020 02:14:44	120220	12022020	021444	193.47	13.683277	-56.935052	193.57	-0.290	-0.970	2.100	193.37	-2.30	2.50	 	 	 	 	 	 	 	 	 	 	 	 	 	 	 	 	 	 	1581473684	10.83	20.06
12/02/2020 02:14:45	120220	12022020	021445	192.86	13.683227	-56.935070	192.90	-0.400	-1.230	2.560	192.71	-2.50	2.90	 	 	 	 	 	 	 	 	 	 	 	 	 	 	 	 	 	 	1581473685	11.20	20.74
12/02/2020 02:14:46	120220	12022020	021446	192.17	13.683178	-56.935087	192.30	-0.230	-0.980	2.820	192.06	-2.40	3.30	 	 	 	 	 	 	 	 	 	 	 	 	 	 	 	 	 	 	1581473686	11.20	20.74
12/02/2020 02:14:47	120220	12022020	021447	191.76	13.683133	-56.935102	191.96	0.010	-0.100	2.730	191.71	-1.60	3.20	 	 	 	 	 	 	 	 	 	 	 	 	 	 	 	 	 	 	1581473687	10.38	19.22
12/02/2020 02:14:48	120220	12022020	021448	191.56	13.683087	-56.935113	191.78	0.130	0.620	2.460	191.52	-0.80	3.00	 	 	 	 	 	 	 	 	 	 	 	 	 	 	 	 	 	 	1581473688	10.21	18.91
12/02/2020 02:14:49	120220	12022020	021449	191.40	13.683038	-56.935125	191.64	0.160	0.630	2.190	191.37	-0.70	2.70	 	 	 	 	 	 	 	 	 	 	 	 	 	 	 	 	 	 	1581473689	10.81	20.02
12/02/2020 02:14:50	120220	12022020	021450	191.30	13.682987	-56.935140	191.59	0.210	0.250	2.140	191.31	-1.00	2.60	 	 	 	 	 	 	 	 	 	 	 	 	 	 	 	 	 	 	1581473690	11.30	20.93
12/02/2020 02:14:51	120220	12022020	021451	191.55	13.682938	-56.935152	191.98	0.220	0.190	2.080	191.67	-1.20	2.60	 	 	 	 	 	 	 	 	 	 	 	 	 	 	 	 	 	 	1581473691	10.89	20.17
12/02/2020 02:14:52	120220	12022020	021452	192.27	13.682892	-56.935165	192.78	0.070	0.310	2.100	192.45	-1.00	2.60	 	 	 	 	 	 	 	 	 	 	 	 	 	 	 	 	 	 	1581473692	10.21	18.91
12/02/2020 02:14:53	120220	12022020	021453	193.12	13.682847	-56.935180	193.56	-0.100	-0.040	2.230	193.26	-1.30	2.70	 	 	 	 	 	 	 	 	 	 	 	 	 	 	 	 	 	 	1581473693	10.31	19.09
12/02/2020 02:14:54	120220	12022020	021454	193.64	13.682798	-56.935197	193.97	0.030	-1.020	2.350	193.68	-2.20	2.80	 	 	 	 	 	 	 	 	 	 	 	 	 	 	 	 	 	 	1581473694	11.03	20.43
12/02/2020 02:14:55	120220	12022020	021455	193.75	13.682747	-56.935210	194.03	0.300	-1.850	2.340	193.75	-3.10	2.80	 	 	 	 	 	 	 	 	 	 	 	 	 	 	 	 	 	 	1581473695	11.37	21.06
12/02/2020 02:14:56	120220	12022020	021456	193.67	13.682698	-56.935223	193.92	0.270	-1.770	2.280	193.64	-3.20	2.80	 	 	 	 	 	 	 	 	 	 	 	 	 	 	 	 	 	 	1581473696	10.74	19.89
12/02/2020 02:14:57	120220	12022020	021457	193.42	13.682653	-56.935235	193.59	-0.080	-1.030	2.140	193.34	-2.50	2.60	 	 	 	 	 	 	 	 	 	 	 	 	 	 	 	 	 	 	1581473697	10.14	18.78
12/02/2020 02:14:58	120220	12022020	021458	192.97	13.682607	-56.935248	193.12	-0.430	-0.290	1.910	192.88	-1.70	2.40	 	 	 	 	 	 	 	 	 	 	 	 	 	 	 	 	 	 	1581473698	10.27	19.02
12/02/2020 02:14:59	120220	12022020	021459	192.56	13.682558	-56.935260	192.74	-0.520	0.160	1.630	192.51	-1.20	2.20	 	 	 	 	 	 	 	 	 	 	 	 	 	 	 	 	 	 	1581473699	10.75	19.91
12/02/2020 02:15:00	120220	12022020	021500	192.47	13.682508	-56.935273	192.74	-0.450	0.380	1.300	192.49	-1.00	1.80	 	 	 	 	 	 	 	 	 	 	 	 	 	 	 	 	 	 	1581473700	10.75	19.91
12/02/2020 02:15:01	120220	12022020	021501	192.60	13.682458	-56.935288	192.88	-0.370	0.380	1.200	192.63	-1.00	1.70	1017.60	25.90	26.00	21.10	21.20	-1.0	74.0	75.0	401.0	25.6	269.00	9.60	73.00	11.20	15	8646.0	27.2	27.2	1581473701	11.13	20.61
12/02/2020 02:15:02	120220	12022020	021502	192.65	13.682408	-56.935305	192.88	-0.240	0.190	1.460	192.64	-1.20	2.10	 	 	 	 	 	 	 	 	 	 	 	 	 	 	 	 	 	 	1581473702	11.19	20.72
12/02/2020 02:15:03	120220	12022020	021503	192.55	13.682360	-56.935320	192.76	-0.010	0.050	1.830	192.53	-1.30	2.20	 	 	 	 	 	 	 	 	 	 	 	 	 	 	 	 	 	 	1581473703	11.06	20.48
12/02/2020 02:15:04	120220	12022020	021504	192.43	13.682312	-56.935335	192.65	0.190	0.000	2.200	192.41	-1.30	2.60	 	 	 	 	 	 	 	 	 	 	 	 	 	 	 	 	 	 	1581473704	10.80	20.00
12/02/2020 02:15:05	120220	12022020	021505	192.32	13.682263	-56.935350	192.57	0.260	-0.160	2.480	192.31	-1.50	2.90	 	 	 	 	 	 	 	 	 	 	 	 	 	 	 	 	 	 	1581473705	10.85	20.09
12/02/2020 02:15:06	120220	12022020	021506	192.28	13.682217	-56.935367	192.55	0.160	-0.240	2.500	192.29	-1.60	3.00	 	 	 	 	 	 	 	 	 	 	 	 	 	 	 	 	 	 	1581473706	10.77	19.95
12/02/2020 02:15:07	120220	12022020	021507	192.46	13.682170	-56.935380	192.81	-0.010	0.070	2.090	192.54	-1.40	2.60	 	 	 	 	 	 	 	 	 	 	 	 	 	 	 	 	 	 	1581473707	10.77	19.95
12/02/2020 02:15:08	120220	12022020	021508	192.98	13.682127	-56.935392	193.35	-0.090	0.440	1.280	193.10	-0.90	1.90	 	 	 	 	 	 	 	 	 	 	 	 	 	 	 	 	 	 	1581473708	9.68	17.93
12/02/2020 02:15:09	120220	12022020	021509	193.47	13.682080	-56.935402	193.73	0.090	-0.010	0.720	193.51	-1.20	1.20	 	 	 	 	 	 	 	 	 	 	 	 	 	 	 	 	 	 	1581473709	10.18	18.85
12/02/2020 02:15:10	120220	12022020	021510	193.48	13.682030	-56.935413	193.62	0.550	-1.280	0.780	193.41	-2.40	1.20	 	 	 	 	 	 	 	 	 	 	 	 	 	 	 	 	 	 	1581473710	11.29	20.91
12/02/2020 02:15:11	120220	12022020	021511	192.99	13.681977	-56.935427	193.06	0.870	-2.330	1.350	192.84	-3.60	1.70	 	 	 	 	 	 	 	 	 	 	 	 	 	 	 	 	 	 	1581473711	11.74	21.74
12/02/2020 02:15:12	120220	12022020	021512	192.22	13.681927	-56.935440	192.30	0.600	-2.250	2.170	192.06	-3.70	2.50	 	 	 	 	 	 	 	 	 	 	 	 	 	 	 	 	 	 	1581473712	11.15	20.65
12/02/2020 02:15:13	120220	12022020	021513	191.47	13.681880	-56.935457	191.60	-0.230	-1.130	2.850	191.34	-2.60	3.20	 	 	 	 	 	 	 	 	 	 	 	 	 	 	 	 	 	 	1581473713	10.36	19.19
12/02/2020 02:15:14	120220	12022020	021514	190.97	13.681837	-56.935473	191.18	-1.050	0.080	3.100	190.90	-1.40	3.50	 	 	 	 	 	 	 	 	 	 	 	 	 	 	 	 	 	 	1581473714	10.36	19.19
12/02/2020 02:15:15	120220	12022020	021515	190.79	13.681788	-56.935492	191.09	-1.280	0.630	3.010	190.80	-0.70	3.50	 	 	 	 	 	 	 	 	 	 	 	 	 	 	 	 	 	 	1581473715	11.05	20.46
12/02/2020 02:15:16	120220	12022020	021516	190.98	13.681737	-56.935507	191.36	-0.890	0.700	2.540	191.05	-0.70	2.70	 	 	 	 	 	 	 	 	 	 	 	 	 	 	 	 	 	 	1581473716	11.05	20.46
12/02/2020 02:15:17	120220	12022020	021517	191.41	13.681685	-56.935522	191.79	-0.290	0.610	1.980	191.49	-0.70	2.50	 	 	 	 	 	 	 	 	 	 	 	 	 	 	 	 	 	 	1581473717	11.49	21.28
12/02/2020 02:15:18	120220	12022020	021518	191.81	13.681633	-56.935532	192.16	0.130	0.500	1.550	191.87	-0.80	2.10	 	 	 	 	 	 	 	 	 	 	 	 	 	 	 	 	 	 	1581473718	11.16	20.67
12/02/2020 02:15:19	120220	12022020	021519	192.15	13.681585	-56.935542	192.53	0.200	0.540	1.400	192.22	-0.80	1.90	 	 	 	 	 	 	 	 	 	 	 	 	 	 	 	 	 	 	1581473719	10.67	19.76
12/02/2020 02:15:20	120220	12022020	021520	192.61	13.681538	-56.935553	193.01	0.010	0.590	1.380	192.71	-0.70	1.90	 	 	 	 	 	 	 	 	 	 	 	 	 	 	 	 	 	 	1581473720	10.67	19.76
12/02/2020 02:15:21	120220	12022020	021521	193.00	13.681493	-56.935565	193.30	-0.080	0.200	1.490	193.04	-1.00	1.90	 	 	 	 	 	 	 	 	 	 	 	 	 	 	 	 	 	 	1581473721	10.18	18.85
12/02/2020 02:15:22	120220	12022020	021522	193.00	13.681445	-56.935578	193.22	0.240	-0.630	1.680	192.97	-1.80	2.10	 	 	 	 	 	 	 	 	 	 	 	 	 	 	 	 	 	 	1581473722	10.73	19.87
12/02/2020 02:15:23	120220	12022020	021523	192.80	13.681397	-56.935590	193.03	0.770	-1.300	1.660	192.76	-2.50	2.20	 	 	 	 	 	 	 	 	 	 	 	 	 	 	 	 	 	 	1581473723	10.73	19.87
12/02/2020 02:15:24	120220	12022020	021524	192.62	13.681348	-56.935602	192.87	0.990	-1.420	1.590	192.59	-2.70	2.10	 	 	 	 	 	 	 	 	 	 	 	 	 	 	 	 	 	 	1581473724	10.54	19.52
12/02/2020 02:15:25	120220	12022020	021525	192.40	13.681302	-56.935613	192.64	0.730	-1.220	1.690	192.35	-2.60	2.10	 	 	 	 	 	 	 	 	 	 	 	 	 	 	 	 	 	 	1581473725	10.29	19.06
12/02/2020 02:15:26	120220	12022020	021526	192.06	13.681255	-56.935627	192.27	0.290	-0.980	2.030	191.98	-2.30	2.40	 	 	 	 	 	 	 	 	 	 	 	 	 	 	 	 	 	 	1581473726	10.48	19.41
12/02/2020 02:15:27	120220	12022020	021527	191.62	13.681207	-56.935643	191.83	0.000	-0.760	2.400	191.53	-2.10	2.80	 	 	 	 	 	 	 	 	 	 	 	 	 	 	 	 	 	 	1581473727	10.88	20.15
12/02/2020 02:15:28	120220	12022020	021528	191.28	13.681157	-56.935657	191.59	-0.210	-0.370	2.560	191.27	-1.80	3.00	 	 	 	 	 	 	 	 	 	 	 	 	 	 	 	 	 	 	1581473728	10.96	20.30
12/02/2020 02:15:29	120220	12022020	021529	191.41	13.681110	-56.935670	191.80	-0.650	0.200	2.460	191.48	-1.20	2.90	 	 	 	 	 	 	 	 	 	 	 	 	 	 	 	 	 	 	1581473729	10.67	19.76
12/02/2020 02:15:30	120220	12022020	021530	191.75	13.681063	-56.935687	192.10	-1.170	0.480	2.450	191.79	-0.90	2.90	 	 	 	 	 	 	 	 	 	 	 	 	 	 	 	 	 	 	1581473730	10.67	19.76
12/02/2020 02:15:31	120220	12022020	021531	191.94	13.681013	-56.935705	192.28	-1.220	0.320	2.310	191.98	-1.00	2.80	 	 	 	 	 	 	 	 	 	 	 	 	 	 	 	 	 	 	1581473731	11.17	20.69
12/02/2020 02:15:32	120220	12022020	021532	192.29	13.680965	-56.935720	192.69	-0.540	0.280	1.620	192.38	-1.10	2.20	 	 	 	 	 	 	 	 	 	 	 	 	 	 	 	 	 	 	1581473732	11.01	20.39
12/02/2020 02:15:33	120220	12022020	021533	192.81	13.680917	-56.935727	193.18	0.390	0.300	0.930	192.91	-1.00	1.50	 	 	 	 	 	 	 	 	 	 	 	 	 	 	 	 	 	 	1581473733	10.59	19.61
12/02/2020 02:15:34	120220	12022020	021534	193.22	13.680867	-56.935735	193.53	0.990	-0.100	0.630	193.27	-1.30	1.10	 	 	 	 	 	 	 	 	 	 	 	 	 	 	 	 	 	 	1581473734	10.78	19.96
12/02/2020 02:15:35	120220	12022020	021535	193.31	13.680817	-56.935745	193.51	1.070	-0.720	0.950	193.27	-2.00	1.30	 	 	 	 	 	 	 	 	 	 	 	 	 	 	 	 	 	 	1581473735	10.78	19.96
12/02/2020 02:15:36	120220	12022020	021536	193.00	13.680767	-56.935757	193.16	0.720	-0.960	1.650	192.90	-2.30	2.00	 	 	 	 	 	 	 	 	 	 	 	 	 	 	 	 	 	 	1581473736	10.79	19.98
12/02/2020 02:15:37	120220	12022020	021537	192.50	13.680722	-56.935772	192.66	0.130	-0.590	2.320	192.40	-2.00	2.70	 	 	 	 	 	 	 	 	 	 	 	 	 	 	 	 	 	 	1581473737	10.22	18.93
12/02/2020 02:15:38	120220	12022020	021538	192.03	13.680677	-56.935787	192.21	-0.410	-0.230	2.680	191.94	-1.60	3.10	 	 	 	 	 	 	 	 	 	 	 	 	 	 	 	 	 	 	1581473738	10.21	18.91
12/02/2020 02:15:39	120220	12022020	021539	191.64	13.680630	-56.935805	191.86	-0.570	-0.300	2.700	191.59	-1.60	3.20	 	 	 	 	 	 	 	 	 	 	 	 	 	 	 	 	 	 	1581473739	10.77	19.95
12/02/2020 02:15:40	120220	12022020	021540	191.54	13.680580	-56.935820	191.85	-0.400	-0.530	2.350	191.56	-1.80	2.90	 	 	 	 	 	 	 	 	 	 	 	 	 	 	 	 	 	 	1581473740	10.77	19.95
12/02/2020 02:15:41	120220	12022020	021541	191.77	13.680532	-56.935837	192.13	-0.160	-0.480	1.910	191.83	-1.80	2.40	 	 	 	 	 	 	 	 	 	 	 	 	 	 	 	 	 	 	1581473741	11.14	20.63
12/02/2020 02:15:42	120220	12022020	021542	192.10	13.680485	-56.935850	192.45	0.020	-0.120	1.450	192.16	-1.20	1.70	 	 	 	 	 	 	 	 	 	 	 	 	 	 	 	 	 	 	1581473742	10.39	19.24
12/02/2020 02:15:43	120220	12022020	021543	192.38	13.680440	-56.935860	192.70	0.160	0.220	1.010	192.43	-1.10	1.50	 	 	 	 	 	 	 	 	 	 	 	 	 	 	 	 	 	 	1581473743	10.39	19.24
12/02/2020 02:15:44	120220	12022020	021544	192.61	13.680392	-56.935870	192.91	0.190	0.210	0.850	192.65	-1.10	1.30	 	 	 	 	 	 	 	 	 	 	 	 	 	 	 	 	 	 	1581473744	10.38	19.22
12/02/2020 02:15:45	120220	12022020	021545	192.73	13.680343	-56.935882	192.99	0.180	-0.300	1.130	192.73	-1.50	1.50	 	 	 	 	 	 	 	 	 	 	 	 	 	 	 	 	 	 	1581473745	10.85	20.09
12/02/2020 02:15:46	120220	12022020	021546	192.60	13.680292	-56.935897	192.80	0.260	-1.010	1.630	192.54	-2.20	2.00	 	 	 	 	 	 	 	 	 	 	 	 	 	 	 	 	 	 	1581473746	10.85	20.09
12/02/2020 02:15:47	120220	12022020	021547	192.21	13.680242	-56.935912	192.38	0.460	-1.330	2.170	192.11	-2.60	2.60	 	 	 	 	 	 	 	 	 	 	 	 	 	 	 	 	 	 	1581473747	11.31	20.95
12/02/2020 02:15:48	120220	12022020	021548	191.78	13.680193	-56.935923	191.99	0.550	-1.030	2.470	191.71	-2.40	2.90	 	 	 	 	 	 	 	 	 	 	 	 	 	 	 	 	 	 	1581473748	10.93	20.24
12/02/2020 02:15:49	120220	12022020	021549	191.53	13.680145	-56.935935	191.81	0.300	-0.180	2.400	191.51	-1.60	2.90	 	 	 	 	 	 	 	 	 	 	 	 	 	 	 	 	 	 	1581473749	10.41	19.28
12/02/2020 02:15:50	120220	12022020	021550	191.72	13.680100	-56.935945	192.13	-0.320	0.850	1.990	191.82	-0.60	2.50	 	 	 	 	 	 	 	 	 	 	 	 	 	 	 	 	 	 	1581473750	9.95	18.43
12/02/2020 02:15:51	120220	12022020	021551	192.37	13.680055	-56.935958	192.83	-0.940	1.360	1.460	192.52	0.00	2.00	 	 	 	 	 	 	 	 	 	 	 	 	 	 	 	 	 	 	1581473751	9.96	18.45
12/02/2020 02:15:52	120220	12022020	021552	193.11	13.680008	-56.935973	193.53	-1.080	0.980	1.100	193.25	-0.80	1.50	 	 	 	 	 	 	 	 	 	 	 	 	 	 	 	 	 	 	1581473752	10.55	19.54
12/02/2020 02:15:53	120220	12022020	021553	193.57	13.679960	-56.935990	193.85	-0.610	0.060	1.100	193.60	-1.10	1.60	 	 	 	 	 	 	 	 	 	 	 	 	 	 	 	 	 	 	1581473753	10.99	20.35
12/02/2020 02:15:54	120220	12022020	021554	193.49	13.679912	-56.936007	193.64	0.260	-0.990	1.240	193.40	-2.80	1.80	 	 	 	 	 	 	 	 	 	 	 	 	 	 	 	 	 	 	1581473754	11.12	20.59
12/02/2020 02:15:55	120220	12022020	021555	192.93	13.679860	-56.936018	193.03	1.070	-1.810	1.470	192.79	-3.00	1.90	 	 	 	 	 	 	 	 	 	 	 	 	 	 	 	 	 	 	1581473755	11.19	20.72
12/02/2020 02:15:56	120220	12022020	021556	192.28	13.679812	-56.936030	192.46	1.320	-1.940	1.790	192.19	-3.30	2.20	 	 	 	 	 	 	 	 	 	 	 	 	 	 	 	 	 	 	1581473756	10.95	20.28
12/02/2020 02:15:57	120220	12022020	021557	191.89	13.679765	-56.936042	192.14	0.820	-1.240	2.200	191.84	-2.70	2.60	 	 	 	 	 	 	 	 	 	 	 	 	 	 	 	 	 	 	1581473757	10.95	20.28
12/02/2020 02:15:58	120220	12022020	021558	191.72	13.679720	-56.936057	192.01	-0.120	-0.180	2.560	191.70	-1.60	3.00	 	 	 	 	 	 	 	 	 	 	 	 	 	 	 	 	 	 	1581473758	9.93	18.39
12/02/2020 02:15:59	120220	12022020	021559	191.61	13.679677	-56.936075	191.87	-0.860	0.520	2.830	191.58	-0.80	3.20	 	 	 	 	 	 	 	 	 	 	 	 	 	 	 	 	 	 	1581473759	10.24	18.96
12/02/2020 02:16:00	120220	12022020	021600	191.39	13.679628	-56.936093	191.61	-0.960	0.400	2.960	191.34	-0.90	3.40	 	 	 	 	 	 	 	 	 	 	 	 	 	 	 	 	 	 	1581473760	11.12	20.59
12/02/2020 02:16:01	120220	12022020	021601	191.24	13.679577	-56.936110	191.52	-0.570	-0.010	2.770	191.25	-1.30	3.30	1017.50	25.90	26.00	20.70	20.80	-1.0	73.0	73.0	397.0	25.6	267.00	9.70	70.00	11.40	15	8596.0	27.2	27.2	1581473761	11.62	21.52
12/02/2020 02:16:02	120220	12022020	021602	191.39	13.679525	-56.936123	191.75	-0.110	-0.080	2.340	191.46	-1.40	2.90	 	 	 	 	 	 	 	 	 	 	 	 	 	 	 	 	 	 	1581473762	11.22	20.78
12/02/2020 02:16:03	120220	12022020	021603	191.77	13.679478	-56.936133	192.15	0.170	0.210	1.800	191.86	-1.20	2.30	 	 	 	 	 	 	 	 	 	 	 	 	 	 	 	 	 	 	1581473763	10.56	19.56
12/02/2020 02:16:04	120220	12022020	021604	192.23	13.679430	-56.936143	192.61	0.260	0.420	1.350	192.34	-0.90	1.90	 	 	 	 	 	 	 	 	 	 	 	 	 	 	 	 	 	 	1581473764	10.33	19.13
12/02/2020 02:16:05	120220	12022020	021605	192.82	13.679383	-56.936152	193.21	0.200	0.440	1.150	192.97	-0.90	1.60	 	 	 	 	 	 	 	 	 	 	 	 	 	 	 	 	 	 	1581473765	10.31	19.09
12/02/2020 02:16:06	120220	12022020	021606	193.55	13.679337	-56.936163	193.94	0.030	0.280	1.250	193.69	-1.00	1.70	 	 	 	 	 	 	 	 	 	 	 	 	 	 	 	 	 	 	1581473766	10.16	18.82
12/02/2020 02:16:07	120220	12022020	021607	194.09	13.679293	-56.936180	194.40	-0.030	-0.100	1.650	194.14	-1.40	2.00	 	 	 	 	 	 	 	 	 	 	 	 	 	 	 	 	 	 	1581473767	10.16	18.82
12/02/2020 02:16:08	120220	12022020	021608	194.11	13.679247	-56.936195	194.30	0.260	-0.880	2.090	194.05	-2.70	2.70	 	 	 	 	 	 	 	 	 	 	 	 	 	 	 	 	 	 	1581473768	10.49	19.43
12/02/2020 02:16:09	120220	12022020	021609	193.61	13.679198	-56.936210	193.70	0.790	-1.760	2.370	193.47	-3.00	2.80	 	 	 	 	 	 	 	 	 	 	 	 	 	 	 	 	 	 	1581473769	10.95	20.28
12/02/2020 02:16:10	120220	12022020	021610	192.71	13.679147	-56.936222	192.72	1.120	-2.280	2.680	192.50	-3.50	3.10	 	 	 	 	 	 	 	 	 	 	 	 	 	 	 	 	 	 	1581473770	11.13	20.61
12/02/2020 02:16:11	120220	12022020	021611	191.67	13.679098	-56.936235	191.71	0.870	-2.030	2.970	191.47	-3.40	3.40	 	 	 	 	 	 	 	 	 	 	 	 	 	 	 	 	 	 	1581473771	10.97	20.32
12/02/2020 02:16:12	120220	12022020	021612	190.77	13.679050	-56.936250	190.90	0.100	-1.120	3.200	190.63	-2.60	3.60	 	 	 	 	 	 	 	 	 	 	 	 	 	 	 	 	 	 	1581473772	10.71	19.83
12/02/2020 02:16:13	120220	12022020	021613	190.30	13.679003	-56.936267	190.59	-0.790	0.180	3.180	190.29	-1.30	3.70	 	 	 	 	 	 	 	 	 	 	 	 	 	 	 	 	 	 	1581473773	10.56	19.56
12/02/2020 02:16:14	120220	12022020	021614	190.61	13.678958	-56.936283	191.10	-1.470	1.500	2.690	190.77	-0.00	3.20	 	 	 	 	 	 	 	 	 	 	 	 	 	 	 	 	 	 	1581473774	10.30	19.08
12/02/2020 02:16:15	120220	12022020	021615	191.61	13.678913	-56.936298	192.18	-1.710	2.140	2.040	191.86	0.80	2.60	 	 	 	 	 	 	 	 	 	 	 	 	 	 	 	 	 	 	1581473775	10.33	19.13
12/02/2020 02:16:16	120220	12022020	021616	192.85	13.678865	-56.936315	193.37	-1.340	1.650	1.410	193.08	0.40	2.00	 	 	 	 	 	 	 	 	 	 	 	 	 	 	 	 	 	 	1581473776	10.93	20.24
12/02/2020 02:16:17	120220	12022020	021617	193.79	13.678813	-56.936330	194.16	-0.380	0.310	1.060	193.92	-0.80	1.60	 	 	 	 	 	 	 	 	 	 	 	 	 	 	 	 	 	 	1581473777	11.58	21.45
12/02/2020 02:16:18	120220	12022020	021618	194.24	13.678762	-56.936343	194.55	0.810	-0.890	0.950	194.29	-2.50	1.40	 	 	 	 	 	 	 	 	 	 	 	 	 	 	 	 	 	 	1581473778	11.54	21.37
12/02/2020 02:16:19	120220	12022020	021619	194.43	13.678713	-56.936352	194.71	1.450	-1.170	0.920	194.45	-2.50	1.40	 	 	 	 	 	 	 	 	 	 	 	 	 	 	 	 	 	 	1581473779	10.56	19.56
12/02/2020 02:16:20	120220	12022020	021620	194.46	13.678668	-56.936360	194.71	1.220	-0.790	1.120	194.45	-1.90	1.80	 	 	 	 	 	 	 	 	 	 	 	 	 	 	 	 	 	 	1581473780	9.59	17.76
12/02/2020 02:16:21	120220	12022020	021621	194.25	13.678625	-56.936370	194.39	0.530	-0.550	1.480	194.16	-1.90	1.90	 	 	 	 	 	 	 	 	 	 	 	 	 	 	 	 	 	 	1581473781	9.61	17.80
12/02/2020 02:16:22	120220	12022020	021622	193.61	13.678578	-56.936385	193.70	0.030	-0.810	1.910	193.47	-2.10	2.30	 	 	 	 	 	 	 	 	 	 	 	 	 	 	 	 	 	 	1581473782	10.48	19.41
12/02/2020 02:16:23	120220	12022020	021623	192.88	13.678530	-56.936402	193.02	-0.060	-1.050	2.190	192.77	-2.40	2.60	 	 	 	 	 	 	 	 	 	 	 	 	 	 	 	 	 	 	1581473783	10.48	19.41
12/02/2020 02:16:24	120220	12022020	021624	192.47	13.678483	-56.936417	192.69	0.000	-0.720	2.030	192.43	-2.10	2.50	 	 	 	 	 	 	 	 	 	 	 	 	 	 	 	 	 	 	1581473784	10.69	19.80
12/02/2020 02:16:25	120220	12022020	021625	192.44	13.678437	-56.936430	192.72	-0.160	-0.090	1.730	192.46	-1.50	2.20	 	 	 	 	 	 	 	 	 	 	 	 	 	 	 	 	 	 	1581473785	10.24	18.96
12/02/2020 02:16:26	120220	12022020	021626	192.56	13.678392	-56.936447	192.81	-0.530	0.260	1.750	192.57	-1.10	2.20	 	 	 	 	 	 	 	 	 	 	 	 	 	 	 	 	 	 	1581473786	10.24	18.96
12/02/2020 02:16:27	120220	12022020	021627	192.45	13.678345	-56.936465	192.61	-0.660	0.030	2.130	192.38	-1.20	2.50	 	 	 	 	 	 	 	 	 	 	 	 	 	 	 	 	 	 	1581473787	10.95	20.28
12/02/2020 02:16:28	120220	12022020	021628	192.05	13.678295	-56.936483	192.22	-0.280	-0.450	2.380	191.98	-1.70	2.80	 	 	 	 	 	 	 	 	 	 	 	 	 	 	 	 	 	 	1581473788	11.41	21.13
12/02/2020 02:16:29	120220	12022020	021629	191.84	13.678245	-56.936497	192.12	0.200	-0.420	2.200	191.85	-1.80	2.70	 	 	 	 	 	 	 	 	 	 	 	 	 	 	 	 	 	 	1581473789	10.99	20.35
12/02/2020 02:16:30	120220	12022020	021630	192.05	13.678198	-56.936507	192.41	0.220	0.150	1.780	192.13	-1.30	2.30	 	 	 	 	 	 	 	 	 	 	 	 	 	 	 	 	 	 	1581473790	10.08	18.67
12/02/2020 02:16:31	120220	12022020	021631	192.43	13.678155	-56.936518	192.75	-0.130	0.410	1.480	192.49	-0.90	2.00	 	 	 	 	 	 	 	 	 	 	 	 	 	 	 	 	 	 	1581473791	9.90	18.33
12/02/2020 02:16:32	120220	12022020	021632	192.66	13.678107	-56.936533	192.94	-0.280	0.010	1.350	192.70	-1.20	1.80	 	 	 	 	 	 	 	 	 	 	 	 	 	 	 	 	 	 	1581473792	10.59	19.61
12/02/2020 02:16:33	120220	12022020	021633	192.93	13.678058	-56.936545	193.24	0.020	-0.380	1.100	193.00	-1.70	1.60	 	 	 	 	 	 	 	 	 	 	 	 	 	 	 	 	 	 	1581473793	10.59	19.61
12/02/2020 02:16:34	120220	12022020	021634	193.28	13.678012	-56.936555	193.57	0.460	-0.480	0.940	193.33	-1.80	1.40	 	 	 	 	 	 	 	 	 	 	 	 	 	 	 	 	 	 	1581473794	10.37	19.21
12/02/2020 02:16:35	120220	12022020	021635	193.39	13.677965	-56.936567	193.57	0.640	-0.680	1.290	193.35	-2.00	1.70	 	 	 	 	 	 	 	 	 	 	 	 	 	 	 	 	 	 	1581473795	10.35	19.17
12/02/2020 02:16:36	120220	12022020	021636	192.98	13.677917	-56.936580	193.08	0.510	-1.120	2.080	192.83	-2.40	2.40	 	 	 	 	 	 	 	 	 	 	 	 	 	 	 	 	 	 	1581473796	10.85	20.09
12/02/2020 02:16:37	120220	12022020	021637	192.14	13.677867	-56.936597	192.23	0.190	-1.360	2.980	191.97	-2.70	3.30	 	 	 	 	 	 	 	 	 	 	 	 	 	 	 	 	 	 	1581473797	11.21	20.76
12/02/2020 02:16:38	120220	12022020	021638	191.44	13.677820	-56.936615	191.65	-0.170	-0.770	3.370	191.36	-2.20	3.80	 	 	 	 	 	 	 	 	 	 	 	 	 	 	 	 	 	 	1581473798	10.74	19.89
12/02/2020 02:16:39	120220	12022020	021639	191.20	13.677777	-56.936628	191.48	-0.470	0.420	3.130	191.18	-1.10	3.70	 	 	 	 	 	 	 	 	 	 	 	 	 	 	 	 	 	 	1581473799	9.84	18.22
12/02/2020 02:16:40	120220	12022020	021640	191.18	13.677732	-56.936642	191.51	-0.650	1.170	2.630	191.20	-0.20	3.20	 	 	 	 	 	 	 	 	 	 	 	 	 	 	 	 	 	 	1581473800	9.84	18.22
12/02/2020 02:16:41	120220	12022020	021641	191.37	13.677685	-56.936655	191.71	-0.620	1.010	2.020	191.42	-0.20	2.60	 	 	 	 	 	 	 	 	 	 	 	 	 	 	 	 	 	 	1581473801	10.48	19.41
12/02/2020 02:16:42	120220	12022020	021642	191.63	13.677635	-56.936668	191.95	-0.280	0.200	1.570	191.67	-1.60	1.90	 	 	 	 	 	 	 	 	 	 	 	 	 	 	 	 	 	 	1581473802	10.48	19.41
12/02/2020 02:16:43	120220	12022020	021643	191.83	13.677585	-56.936680	192.13	0.310	-0.680	1.360	191.87	-1.90	1.90	 	 	 	 	 	 	 	 	 	 	 	 	 	 	 	 	 	 	1581473803	11.12	20.59
12/02/2020 02:16:44	120220	12022020	021644	192.03	13.677537	-56.936692	192.35	0.820	-1.130	1.260	192.08	-2.40	1.80	 	 	 	 	 	 	 	 	 	 	 	 	 	 	 	 	 	 	1581473804	10.74	19.89
12/02/2020 02:16:45	120220	12022020	021645	192.28	13.677490	-56.936700	192.58	0.880	-1.080	1.220	192.32	-2.40	1.70	 	 	 	 	 	 	 	 	 	 	 	 	 	 	 	 	 	 	1581473805	10.17	18.83
12/02/2020 02:16:46	120220	12022020	021646	192.42	13.677445	-56.936710	192.67	0.470	-0.870	1.420	192.42	-2.20	1.80	 	 	 	 	 	 	 	 	 	 	 	 	 	 	 	 	 	 	1581473806	10.01	18.54
12/02/2020 02:16:47	120220	12022020	021647	192.30	13.677398	-56.936723	192.49	-0.020	-0.840	1.880	192.25	-2.20	2.30	 	 	 	 	 	 	 	 	 	 	 	 	 	 	 	 	 	 	1581473807	10.39	19.24
12/02/2020 02:16:48	120220	12022020	021648	192.00	13.677350	-56.936738	192.17	-0.310	-0.740	2.340	191.93	-2.10	2.70	 	 	 	 	 	 	 	 	 	 	 	 	 	 	 	 	 	 	1581473808	10.74	19.89
12/02/2020 02:16:49	120220	12022020	021649	191.71	13.677302	-56.936752	191.89	-0.440	-0.400	2.590	191.66	-1.80	3.00	 	 	 	 	 	 	 	 	 	 	 	 	 	 	 	 	 	 	1581473809	10.74	19.89
12/02/2020 02:16:50	120220	12022020	021650	191.46	13.677253	-56.936767	191.64	-0.500	-0.060	2.630	191.41	-1.40	3.10	 	 	 	 	 	 	 	 	 	 	 	 	 	 	 	 	 	 	1581473810	10.70	19.82
12/02/2020 02:16:51	120220	12022020	021651	191.21	13.677205	-56.936782	191.43	-0.520	0.140	2.640	191.18	-1.20	3.10	 	 	 	 	 	 	 	 	 	 	 	 	 	 	 	 	 	 	1581473811	10.70	19.82
12/02/2020 02:16:52	120220	12022020	021652	191.20	13.677158	-56.936795	191.49	-0.470	0.560	2.330	191.24	-0.80	2.90	 	 	 	 	 	 	 	 	 	 	 	 	 	 	 	 	 	 	1581473812	10.88	20.15
12/02/2020 02:16:53	120220	12022020	021653	191.51	13.677113	-56.936807	191.84	-0.310	1.050	1.780	191.59	-0.30	2.30	 	 	 	 	 	 	 	 	 	 	 	 	 	 	 	 	 	 	1581473813	10.58	19.59
12/02/2020 02:16:54	120220	12022020	021654	191.89	13.677067	-56.936817	192.22	0.020	0.970	1.290	191.96	-0.30	1.80	 	 	 	 	 	 	 	 	 	 	 	 	 	 	 	 	 	 	1581473814	10.09	18.69
12/02/2020 02:16:55	120220	12022020	021655	192.23	13.677020	-56.936827	192.58	0.430	0.250	0.980	192.31	-0.90	1.50	 	 	 	 	 	 	 	 	 	 	 	 	 	 	 	 	 	 	1581473815	10.55	19.54
12/02/2020 02:16:56	120220	12022020	021656	192.61	13.676970	-56.936837	192.91	0.740	-0.810	1.000	192.66	-2.60	1.70	 	 	 	 	 	 	 	 	 	 	 	 	 	 	 	 	 	 	1581473816	10.82	20.04
12/02/2020 02:16:57	120220	12022020	021657	192.66	13.676922	-56.936850	192.87	0.870	-1.740	1.420	192.63	-3.00	1.80	 	 	 	 	 	 	 	 	 	 	 	 	 	 	 	 	 	 	1581473817	10.82	20.04
12/02/2020 02:16:58	120220	12022020	021658	192.48	13.676873	-56.936862	192.70	0.760	-2.020	1.720	192.45	-3.20	2.30	 	 	 	 	 	 	 	 	 	 	 	 	 	 	 	 	 	 	1581473818	10.65	19.72
12/02/2020 02:16:59	120220	12022020	021659	192.37	13.676827	-56.936873	192.61	0.260	-1.590	1.970	192.35	-3.00	2.40	 	 	 	 	 	 	 	 	 	 	 	 	 	 	 	 	 	 	1581473819	10.16	18.82
12/02/2020 02:17:00	120220	12022020	021700	192.18	13.676782	-56.936888	192.35	-0.390	-0.980	2.280	192.10	-2.40	2.70	 	 	 	 	 	 	 	 	 	 	 	 	 	 	 	 	 	 	1581473820	10.18	18.85
12/02/2020 02:17:01	120220	12022020	021701	191.71	13.676735	-56.936903	191.83	-0.820	-0.520	2.600	191.60	-1.90	3.00	1017.50	26.00	26.00	20.60	20.70	-1.0	72.0	72.0	396.0	25.6	264.00	10.10	70.00	12.00	15	8126.0	27.2	27.2	1581473821	10.69	19.80
12/02/2020 02:17:02	120220	12022020	021702	191.21	13.676685	-56.936918	191.41	-0.890	-0.050	2.690	191.15	-1.40	3.20	 	 	 	 	 	 	 	 	 	 	 	 	 	 	 	 	 	 	1581473822	10.69	19.80
12/02/2020 02:17:03	120220	12022020	021703	191.12	13.676637	-56.936933	191.46	-0.800	0.570	2.360	191.16	-0.90	2.90	 	 	 	 	 	 	 	 	 	 	 	 	 	 	 	 	 	 	1581473823	10.85	20.09
12/02/2020 02:17:04	120220	12022020	021704	191.55	13.676590	-56.936947	191.97	-0.630	1.110	1.740	191.69	-0.30	2.30	 	 	 	 	 	 	 	 	 	 	 	 	 	 	 	 	 	 	1581473824	10.54	19.52
12/02/2020 02:17:05	120220	12022020	021705	192.27	13.676542	-56.936958	192.67	-0.220	1.160	1.040	192.40	-0.10	1.60	 	 	 	 	 	 	 	 	 	 	 	 	 	 	 	 	 	 	1581473825	10.52	19.48
12/02/2020 02:17:06	120220	12022020	021706	192.75	13.676492	-56.936967	193.05	0.450	0.490	0.760	192.81	-0.70	1.20	 	 	 	 	 	 	 	 	 	 	 	 	 	 	 	 	 	 	1581473826	11.05	20.46
12/02/2020 02:17:07	120220	12022020	021707	192.97	13.676440	-56.936977	193.28	0.930	-0.280	0.990	193.02	-1.50	1.40	 	 	 	 	 	 	 	 	 	 	 	 	 	 	 	 	 	 	1581473827	11.22	20.78
12/02/2020 02:17:08	120220	12022020	021708	193.29	13.676393	-56.936988	193.64	0.720	-0.420	1.410	193.37	-1.70	2.10	 	 	 	 	 	 	 	 	 	 	 	 	 	 	 	 	 	 	1581473828	10.33	19.13
12/02/2020 02:17:09	120220	12022020	021709	193.59	13.676352	-56.937003	193.89	0.050	-0.440	1.920	193.60	-1.70	2.30	 	 	 	 	 	 	 	 	 	 	 	 	 	 	 	 	 	 	1581473829	9.75	18.06
12/02/2020 02:17:10	120220	12022020	021710	193.51	13.676307	-56.937023	193.74	-0.280	-0.920	2.400	193.45	-2.60	2.90	 	 	 	 	 	 	 	 	 	 	 	 	 	 	 	 	 	 	1581473830	10.35	19.17
12/02/2020 02:17:11	120220	12022020	021711	193.15	13.676258	-56.937038	193.32	0.100	-1.460	2.420	193.06	-2.70	2.90	 	 	 	 	 	 	 	 	 	 	 	 	 	 	 	 	 	 	1581473831	10.84	20.08
12/02/2020 02:17:12	120220	12022020	021712	192.60	13.676210	-56.937050	192.74	0.700	-1.620	2.230	192.48	-2.90	2.70	 	 	 	 	 	 	 	 	 	 	 	 	 	 	 	 	 	 	1581473832	10.83	20.06
12/02/2020 02:17:13	120220	12022020	021713	192.03	13.676160	-56.937060	192.21	0.790	-1.300	2.050	191.94	-2.70	2.50	 	 	 	 	 	 	 	 	 	 	 	 	 	 	 	 	 	 	1581473833	10.83	20.06
12/02/2020 02:17:14	120220	12022020	021714	191.76	13.676113	-56.937072	192.03	0.100	-0.470	1.930	191.76	-1.90	2.40	 	 	 	 	 	 	 	 	 	 	 	 	 	 	 	 	 	 	1581473834	10.35	19.17
12/02/2020 02:17:15	120220	12022020	021715	191.86	13.676070	-56.937088	192.18	-0.880	0.470	1.940	191.91	-1.00	2.40	 	 	 	 	 	 	 	 	 	 	 	 	 	 	 	 	 	 	1581473835	10.10	18.71
12/02/2020 02:17:16	120220	12022020	021716	192.13	13.676025	-56.937105	192.44	-1.350	0.960	2.070	192.19	-0.40	2.50	 	 	 	 	 	 	 	 	 	 	 	 	 	 	 	 	 	 	1581473836	10.43	19.32
12/02/2020 02:17:17	120220	12022020	021717	192.42	13.675975	-56.937123	192.74	-0.900	0.750	2.150	192.49	-0.50	2.60	 	 	 	 	 	 	 	 	 	 	 	 	 	 	 	 	 	 	1581473837	11.07	20.50
12/02/2020 02:17:18	120220	12022020	021718	192.82	13.675925	-56.937137	193.21	-0.030	0.270	1.970	192.93	-1.00	2.50	 	 	 	 	 	 	 	 	 	 	 	 	 	 	 	 	 	 	1581473838	11.28	20.89
12/02/2020 02:17:19	120220	12022020	021719	193.37	13.675875	-56.937148	193.78	0.580	-0.140	1.560	193.50	-1.40	2.10	 	 	 	 	 	 	 	 	 	 	 	 	 	 	 	 	 	 	1581473839	11.04	20.45
12/02/2020 02:17:20	120220	12022020	021720	193.98	13.675827	-56.937158	194.36	0.640	-0.400	1.190	194.08	-1.70	1.70	 	 	 	 	 	 	 	 	 	 	 	 	 	 	 	 	 	 	1581473840	11.04	20.45
12/02/2020 02:17:21	120220	12022020	021721	194.41	13.675780	-56.937170	194.72	0.370	-0.580	1.190	194.46	-1.90	1.60	 	 	 	 	 	 	 	 	 	 	 	 	 	 	 	 	 	 	1581473841	10.34	19.15
12/02/2020 02:17:22	120220	12022020	021722	194.53	13.675733	-56.937183	194.75	0.140	-0.780	1.540	194.50	-2.10	1.90	 	 	 	 	 	 	 	 	 	 	 	 	 	 	 	 	 	 	1581473842	10.34	19.15
12/02/2020 02:17:23	120220	12022020	021723	194.17	13.675687	-56.937198	194.25	0.170	-1.180	2.090	194.03	-2.50	2.40	 	 	 	 	 	 	 	 	 	 	 	 	 	 	 	 	 	 	1581473843	10.31	19.09
12/02/2020 02:17:24	120220	12022020	021724	193.20	13.675637	-56.937215	193.20	0.290	-1.510	2.870	192.99	-2.80	3.20	 	 	 	 	 	 	 	 	 	 	 	 	 	 	 	 	 	 	1581473844	11.21	20.76
12/02/2020 02:17:25	120220	12022020	021725	192.14	13.675588	-56.937232	192.22	0.100	-1.130	3.370	191.99	-2.60	3.80	 	 	 	 	 	 	 	 	 	 	 	 	 	 	 	 	 	 	1581473845	11.05	20.46
12/02/2020 02:17:26	120220	12022020	021726	191.69	13.675543	-56.937247	191.90	-0.470	0.050	3.240	191.67	-1.50	3.70	 	 	 	 	 	 	 	 	 	 	 	 	 	 	 	 	 	 	1581473846	11.05	20.46
12/02/2020 02:17:27	120220	12022020	021727	191.76	13.675500	-56.937263	192.04	-1.000	1.140	2.900	191.81	-0.30	3.40	 	 	 	 	 	 	 	 	 	 	 	 	 	 	 	 	 	 	1581473847	9.84	18.22
12/02/2020 02:17:28	120220	12022020	021728	192.02	13.675455	-56.937280	192.34	-0.950	1.330	2.540	192.09	0.00	3.10	 	 	 	 	 	 	 	 	 	 	 	 	 	 	 	 	 	 	1581473848	10.43	19.32
12/02/2020 02:17:29	120220	12022020	021729	192.49	13.675405	-56.937295	192.86	-0.340	0.830	1.930	192.62	-0.40	2.50	 	 	 	 	 	 	 	 	 	 	 	 	 	 	 	 	 	 	1581473849	11.01	20.39
12/02/2020 02:17:30	120220	12022020	021730	193.27	13.675355	-56.937307	193.70	0.390	0.180	1.180	193.45	-1.10	1.70	 	 	 	 	 	 	 	 	 	 	 	 	 	 	 	 	 	 	1581473850	10.89	20.17
12/02/2020 02:17:31	120220	12022020	021731	194.13	13.675307	-56.937317	194.50	0.890	-0.520	0.680	194.27	-1.80	1.20	 	 	 	 	 	 	 	 	 	 	 	 	 	 	 	 	 	 	1581473851	10.64	19.71
12/02/2020 02:17:32	120220	12022020	021732	194.59	13.675258	-56.937327	194.81	1.070	-1.280	0.820	194.60	-2.50	1.20	 	 	 	 	 	 	 	 	 	 	 	 	 	 	 	 	 	 	1581473852	10.67	19.76
12/02/2020 02:17:33	120220	12022020	021733	194.45	13.675212	-56.937340	194.58	0.940	-1.710	1.580	194.37	-3.00	1.90	 	 	 	 	 	 	 	 	 	 	 	 	 	 	 	 	 	 	1581473853	10.67	19.76
12/02/2020 02:17:34	120220	12022020	021734	193.96	13.675165	-56.937355	194.10	0.560	-1.520	2.240	193.86	-2.90	2.60	 	 	 	 	 	 	 	 	 	 	 	 	 	 	 	 	 	 	1581473854	10.63	19.69
12/02/2020 02:17:35	120220	12022020	021735	193.49	13.675120	-56.937368	193.67	-0.040	-0.850	2.550	193.42	-2.30	3.00	 	 	 	 	 	 	 	 	 	 	 	 	 	 	 	 	 	 	1581473855	10.10	18.71
12/02/2020 02:17:36	120220	12022020	021736	193.10	13.675075	-56.937383	193.29	-0.650	-0.300	2.820	193.03	-1.70	3.20	 	 	 	 	 	 	 	 	 	 	 	 	 	 	 	 	 	 	1581473856	10.33	19.13
12/02/2020 02:17:37	120220	12022020	021737	192.69	13.675027	-56.937402	192.89	-0.960	-0.160	2.840	192.63	-1.50	3.30	 	 	 	 	 	 	 	 	 	 	 	 	 	 	 	 	 	 	1581473857	11.03	20.43
12/02/2020 02:17:38	120220	12022020	021738	192.53	13.674977	-56.937420	192.80	-0.950	-0.010	2.490	192.55	-1.40	3.00	 	 	 	 	 	 	 	 	 	 	 	 	 	 	 	 	 	 	1581473858	11.27	20.87
12/02/2020 02:17:39	120220	12022020	021739	192.88	13.674930	-56.937437	193.26	-0.760	0.490	1.870	193.01	-1.00	2.40	 	 	 	 	 	 	 	 	 	 	 	 	 	 	 	 	 	 	1581473859	10.70	19.82
12/02/2020 02:17:40	120220	12022020	021740	193.59	13.674883	-56.937448	193.97	-0.440	0.930	1.040	193.72	-0.50	1.60	 	 	 	 	 	 	 	 	 	 	 	 	 	 	 	 	 	 	1581473860	10.18	18.85
12/02/2020 02:17:41	120220	12022020	021741	194.07	13.674837	-56.937460	194.33	0.110	0.540	0.600	194.10	-0.70	1.10	 	 	 	 	 	 	 	 	 	 	 	 	 	 	 	 	 	 	1581473861	10.64	19.71
12/02/2020 02:17:42	120220	12022020	021742	194.08	13.674785	-56.937472	194.28	0.690	-0.350	0.710	194.06	-1.60	1.10	 	 	 	 	 	 	 	 	 	 	 	 	 	 	 	 	 	 	1581473862	10.64	19.71
12/02/2020 02:17:43	120220	12022020	021743	193.95	13.674735	-56.937483	194.18	0.870	-0.770	0.940	193.94	-2.10	1.40	 	 	 	 	 	 	 	 	 	 	 	 	 	 	 	 	 	 	1581473863	10.97	20.32
12/02/2020 02:17:44	120220	12022020	021744	193.87	13.674690	-56.937495	194.07	0.550	-0.530	1.160	193.84	-1.90	1.60	 	 	 	 	 	 	 	 	 	 	 	 	 	 	 	 	 	 	1581473864	10.11	18.72
12/02/2020 02:17:45	120220	12022020	021745	193.68	13.674645	-56.937508	193.85	0.040	-0.300	1.570	193.62	-1.70	1.90	 	 	 	 	 	 	 	 	 	 	 	 	 	 	 	 	 	 	1581473865	9.93	18.39
12/02/2020 02:17:46	120220	12022020	021746	193.36	13.674598	-56.937525	193.51	-0.250	-0.490	2.100	193.28	-2.00	2.70	 	 	 	 	 	 	 	 	 	 	 	 	 	 	 	 	 	 	1581473866	9.93	18.39
12/02/2020 02:17:47	120220	12022020	021747	193.03	13.674552	-56.937543	193.22	-0.210	-0.770	2.400	192.98	-2.10	2.80	 	 	 	 	 	 	 	 	 	 	 	 	 	 	 	 	 	 	1581473867	10.53	19.50
12/02/2020 02:17:48	120220	12022020	021748	192.83	13.674503	-56.937560	193.03	-0.040	-0.740	2.460	192.79	-2.00	2.90	 	 	 	 	 	 	 	 	 	 	 	 	 	 	 	 	 	 	1581473868	10.79	19.98
12/02/2020 02:17:49	120220	12022020	021749	192.66	13.674457	-56.937577	192.87	0.100	-0.480	2.290	192.64	-1.90	2.80	 	 	 	 	 	 	 	 	 	 	 	 	 	 	 	 	 	 	1581473869	10.79	19.98
12/02/2020 02:17:50	120220	12022020	021750	192.75	13.674410	-56.937588	193.05	0.130	-0.110	1.760	192.82	-1.50	2.30	 	 	 	 	 	 	 	 	 	 	 	 	 	 	 	 	 	 	1581473870	10.38	19.22
12/02/2020 02:17:51	120220	12022020	021751	193.22	13.674365	-56.937600	193.56	0.050	0.260	1.230	193.33	-1.10	1.70	 	 	 	 	 	 	 	 	 	 	 	 	 	 	 	 	 	 	1581473871	10.38	19.22
12/02/2020 02:17:52	120220	12022020	021752	193.70	13.674318	-56.937613	193.99	0.020	0.240	1.050	193.76	-1.10	1.50	 	 	 	 	 	 	 	 	 	 	 	 	 	 	 	 	 	 	1581473872	10.29	19.06
12/02/2020 02:17:53	120220	12022020	021753	193.89	13.674270	-56.937627	194.13	0.200	-0.320	1.170	193.90	-1.60	1.60	 	 	 	 	 	 	 	 	 	 	 	 	 	 	 	 	 	 	1581473873	10.86	20.11
12/02/2020 02:17:54	120220	12022020	021754	193.88	13.674218	-56.937638	194.09	0.430	-0.960	1.390	193.86	-2.20	1.80	 	 	 	 	 	 	 	 	 	 	 	 	 	 	 	 	 	 	1581473874	11.22	20.78
12/02/2020 02:17:55	120220	12022020	021755	193.73	13.674168	-56.937652	193.92	0.360	-1.210	1.880	193.69	-2.60	2.20	 	 	 	 	 	 	 	 	 	 	 	 	 	 	 	 	 	 	1581473875	11.22	20.78
12/02/2020 02:17:56	120220	12022020	021756	193.52	13.674122	-56.937667	193.73	-0.130	-0.930	2.410	193.48	-2.40	2.80	 	 	 	 	 	 	 	 	 	 	 	 	 	 	 	 	 	 	1581473876	10.76	19.93
12/02/2020 02:17:57	120220	12022020	021757	193.44	13.674075	-56.937683	193.71	-0.800	-0.140	2.530	193.45	-1.60	3.00	 	 	 	 	 	 	 	 	 	 	 	 	 	 	 	 	 	 	1581473877	10.31	19.09
12/02/2020 02:17:58	120220	12022020	021758	193.61	13.674032	-56.937700	193.93	-1.220	0.610	2.370	193.67	-0.80	2.80	 	 	 	 	 	 	 	 	 	 	 	 	 	 	 	 	 	 	1581473878	10.10	18.71
12/02/2020 02:17:59	120220	12022020	021759	193.89	13.673985	-56.937715	194.16	-1.010	0.730	1.890	193.93	-0.60	2.40	 	 	 	 	 	 	 	 	 	 	 	 	 	 	 	 	 	 	1581473879	10.47	19.39
12/02/2020 02:18:00	120220	12022020	021800	193.98	13.673935	-56.937730	194.16	-0.100	-0.020	1.230	193.96	-1.90	1.40	 	 	 	 	 	 	 	 	 	 	 	 	 	 	 	 	 	 	1581473880	11.35	21.02
12/02/2020 02:18:01	120220	12022020	021801	193.79	13.673880	-56.937740	193.97	0.970	-0.810	0.730	193.76	-2.10	1.20	1017.50	26.00	26.10	20.80	20.90	-1.0	73.0	73.0	397.0	25.6	261.00	9.30	66.00	11.50	15	7999.0	27.2	27.2	1581473881	11.35	21.02
12/02/2020 02:18:02	120220	12022020	021802	193.73	13.673830	-56.937748	193.99	1.310	-0.600	0.480	193.76	-2.10	1.00	 	 	 	 	 	 	 	 	 	 	 	 	 	 	 	 	 	 	1581473882	10.82	20.04
12/02/2020 02:18:03	120220	12022020	021803	193.99	13.673787	-56.937758	194.31	0.690	0.160	0.590	194.06	-1.30	1.00	 	 	 	 	 	 	 	 	 	 	 	 	 	 	 	 	 	 	1581473883	9.66	17.89
12/02/2020 02:18:04	120220	12022020	021804	194.33	13.673743	-56.937775	194.60	-0.240	0.390	1.110	194.37	-0.90	1.40	 	 	 	 	 	 	 	 	 	 	 	 	 	 	 	 	 	 	1581473884	9.83	18.21
12/02/2020 02:18:05	120220	12022020	021805	194.39	13.673698	-56.937797	194.59	-0.630	-0.160	1.910	194.37	-1.40	2.20	 	 	 	 	 	 	 	 	 	 	 	 	 	 	 	 	 	 	1581473885	10.87	20.13
12/02/2020 02:18:06	120220	12022020	021806	194.22	13.673650	-56.937818	194.42	-0.300	-0.710	2.410	194.18	-2.00	2.80	 	 	 	 	 	 	 	 	 	 	 	 	 	 	 	 	 	 	1581473886	11.24	20.82
12/02/2020 02:18:07	120220	12022020	021807	194.08	13.673603	-56.937835	194.30	0.280	-0.770	2.310	194.06	-2.10	2.80	 	 	 	 	 	 	 	 	 	 	 	 	 	 	 	 	 	 	1581473887	10.71	19.83
12/02/2020 02:18:08	120220	12022020	021808	193.99	13.673557	-56.937847	194.22	0.620	-0.630	1.870	193.98	-2.00	2.40	 	 	 	 	 	 	 	 	 	 	 	 	 	 	 	 	 	 	1581473888	10.71	19.83
12/02/2020 02:18:09	120220	12022020	021809	194.02	13.673508	-56.937857	194.31	0.510	-0.490	1.390	194.05	-1.90	1.90	 	 	 	 	 	 	 	 	 	 	 	 	 	 	 	 	 	 	1581473889	10.50	19.45
12/02/2020 02:18:10	120220	12022020	021810	194.17	13.673460	-56.937868	194.43	0.080	-0.400	1.310	194.20	-1.80	1.70	 	 	 	 	 	 	 	 	 	 	 	 	 	 	 	 	 	 	1581473890	10.56	19.56
12/02/2020 02:18:11	120220	12022020	021811	194.18	13.673412	-56.937883	194.38	-0.350	-0.410	1.670	194.16	-1.80	2.10	 	 	 	 	 	 	 	 	 	 	 	 	 	 	 	 	 	 	1581473891	10.69	19.80
12/02/2020 02:18:12	120220	12022020	021812	193.95	13.673365	-56.937900	194.10	-0.570	-0.570	2.110	193.87	-1.90	2.50	 	 	 	 	 	 	 	 	 	 	 	 	 	 	 	 	 	 	1581473892	10.93	20.24
12/02/2020 02:18:13	120220	12022020	021813	193.48	13.673315	-56.937918	193.61	-0.520	-0.790	2.450	193.38	-2.10	2.90	 	 	 	 	 	 	 	 	 	 	 	 	 	 	 	 	 	 	1581473893	11.19	20.72
12/02/2020 02:18:14	120220	12022020	021814	192.95	13.673267	-56.937935	193.09	-0.230	-0.820	2.410	192.86	-2.20	2.90	 	 	 	 	 	 	 	 	 	 	 	 	 	 	 	 	 	 	1581473894	11.21	20.76
12/02/2020 02:18:15	120220	12022020	021815	192.55	13.673217	-56.937948	192.75	0.060	-0.480	1.970	192.51	-1.90	2.50	 	 	 	 	 	 	 	 	 	 	 	 	 	 	 	 	 	 	1581473895	11.21	20.76
12/02/2020 02:18:16	120220	12022020	021816	192.61	13.673170	-56.937958	192.95	0.030	0.240	1.450	192.70	-1.20	2.00	 	 	 	 	 	 	 	 	 	 	 	 	 	 	 	 	 	 	1581473896	10.46	19.37
12/02/2020 02:18:17	120220	12022020	021817	193.20	13.673123	-56.937972	193.61	-0.310	0.880	1.160	193.34	-0.50	1.60	 	 	 	 	 	 	 	 	 	 	 	 	 	 	 	 	 	 	1581473897	10.46	19.37
12/02/2020 02:18:18	120220	12022020	021818	193.86	13.673078	-56.937987	194.22	-0.470	0.870	1.180	193.97	-0.40	1.60	 	 	 	 	 	 	 	 	 	 	 	 	 	 	 	 	 	 	1581473898	10.42	19.30
12/02/2020 02:18:19	120220	12022020	021819	194.28	13.673030	-56.938003	194.60	-0.090	0.280	1.310	194.34	-1.00	1.80	 	 	 	 	 	 	 	 	 	 	 	 	 	 	 	 	 	 	1581473899	11.03	20.43
12/02/2020 02:18:20	120220	12022020	021820	194.51	13.672980	-56.938017	194.77	0.590	-0.290	1.170	194.54	-1.60	1.70	 	 	 	 	 	 	 	 	 	 	 	 	 	 	 	 	 	 	1581473900	11.05	20.46
12/02/2020 02:18:21	120220	12022020	021821	194.60	13.672932	-56.938027	194.82	0.930	-0.600	1.100	194.60	-1.90	1.50	 	 	 	 	 	 	 	 	 	 	 	 	 	 	 	 	 	 	1581473901	11.05	20.46
12/02/2020 02:18:22	120220	12022020	021822	194.53	13.672883	-56.938040	194.68	0.700	-0.790	1.360	194.48	-2.10	1.80	 	 	 	 	 	 	 	 	 	 	 	 	 	 	 	 	 	 	1581473902	10.69	19.80
12/02/2020 02:18:23	120220	12022020	021823	194.11	13.672837	-56.938055	194.17	0.200	-1.080	1.880	193.97	-2.40	2.20	 	 	 	 	 	 	 	 	 	 	 	 	 	 	 	 	 	 	1581473903	10.44	19.33
12/02/2020 02:18:24	120220	12022020	021824	193.38	13.672788	-56.938073	193.44	-0.090	-1.340	2.500	193.23	-2.60	3.10	 	 	 	 	 	 	 	 	 	 	 	 	 	 	 	 	 	 	1581473904	10.64	19.71
12/02/2020 02:18:25	120220	12022020	021825	192.77	13.672742	-56.938092	192.90	-0.100	-1.040	2.660	192.70	-2.50	3.10	 	 	 	 	 	 	 	 	 	 	 	 	 	 	 	 	 	 	1581473905	11.09	20.54
12/02/2020 02:18:26	120220	12022020	021826	192.48	13.672695	-56.938107	192.66	-0.100	-0.400	2.390	192.45	-1.90	2.90	 	 	 	 	 	 	 	 	 	 	 	 	 	 	 	 	 	 	1581473906	10.49	19.43
12/02/2020 02:18:27	120220	12022020	021827	192.46	13.672648	-56.938120	192.70	-0.270	0.110	1.950	192.49	-1.30	2.50	 	 	 	 	 	 	 	 	 	 	 	 	 	 	 	 	 	 	1581473907	10.51	19.46
12/02/2020 02:18:28	120220	12022020	021828	192.67	13.672600	-56.938135	192.94	-0.500	0.330	1.550	192.73	-1.10	2.10	 	 	 	 	 	 	 	 	 	 	 	 	 	 	 	 	 	 	1581473908	10.51	19.46
12/02/2020 02:18:29	120220	12022020	021829	192.99	13.672552	-56.938148	193.28	-0.590	0.290	1.360	193.06	-1.10	1.80	 	 	 	 	 	 	 	 	 	 	 	 	 	 	 	 	 	 	1581473909	10.84	20.08
12/02/2020 02:18:30	120220	12022020	021830	193.33	13.672503	-56.938163	193.62	-0.400	0.040	1.410	193.40	-1.30	1.80	 	 	 	 	 	 	 	 	 	 	 	 	 	 	 	 	 	 	1581473910	10.94	20.26
12/02/2020 02:18:31	120220	12022020	021831	193.62	13.672453	-56.938178	193.91	-0.010	-0.280	1.500	193.67	-1.60	1.90	 	 	 	 	 	 	 	 	 	 	 	 	 	 	 	 	 	 	1581473911	11.00	20.37
12/02/2020 02:18:32	120220	12022020	021832	193.82	13.672405	-56.938190	194.08	0.360	-0.380	1.460	193.84	-1.80	1.90	 	 	 	 	 	 	 	 	 	 	 	 	 	 	 	 	 	 	1581473912	10.79	19.98
12/02/2020 02:18:33	120220	12022020	021833	193.88	13.672357	-56.938202	194.11	0.580	-0.370	1.360	193.88	-1.70	1.80	 	 	 	 	 	 	 	 	 	 	 	 	 	 	 	 	 	 	1581473913	10.79	19.98
12/02/2020 02:18:34	120220	12022020	021834	193.79	13.672308	-56.938212	194.01	0.650	-0.430	1.280	193.76	-1.80	1.80	 	 	 	 	 	 	 	 	 	 	 	 	 	 	 	 	 	 	1581473914	10.70	19.82
12/02/2020 02:18:35	120220	12022020	021835	193.66	13.672258	-56.938222	193.88	0.500	-0.460	1.180	193.64	-1.80	1.70	 	 	 	 	 	 	 	 	 	 	 	 	 	 	 	 	 	 	1581473915	10.70	19.82
12/02/2020 02:18:36	120220	12022020	021836	193.61	13.672210	-56.938233	193.86	0.140	-0.400	1.150	193.61	-1.70	1.70	 	 	 	 	 	 	 	 	 	 	 	 	 	 	 	 	 	 	1581473916	10.72	19.85
12/02/2020 02:18:37	120220	12022020	021837	193.57	13.672163	-56.938248	193.79	-0.310	-0.310	1.370	193.55	-1.70	1.80	 	 	 	 	 	 	 	 	 	 	 	 	 	 	 	 	 	 	1581473917	10.67	19.76
12/02/2020 02:18:38	120220	12022020	021838	193.41	13.672115	-56.938267	193.60	-0.660	-0.350	1.900	193.37	-1.70	2.30	 	 	 	 	 	 	 	 	 	 	 	 	 	 	 	 	 	 	1581473918	10.88	20.15
12/02/2020 02:18:39	120220	12022020	021839	193.21	13.672068	-56.938287	193.41	-0.790	-0.470	2.330	193.17	-1.80	2.70	 	 	 	 	 	 	 	 	 	 	 	 	 	 	 	 	 	 	1581473919	11.10	20.56
12/02/2020 02:18:40	120220	12022020	021840	193.00	13.672020	-56.938307	193.18	-0.690	-0.620	2.500	192.94	-2.00	2.90	 	 	 	 	 	 	 	 	 	 	 	 	 	 	 	 	 	 	1581473920	11.16	20.67
12/02/2020 02:18:41	120220	12022020	021841	192.62	13.671972	-56.938325	192.75	-0.270	-0.740	2.410	192.53	-2.10	2.90	 	 	 	 	 	 	 	 	 	 	 	 	 	 	 	 	 	 	1581473921	11.24	20.82
12/02/2020 02:18:42	120220	12022020	021842	192.22	13.671922	-56.938338	192.38	0.360	-0.510	1.880	192.16	-1.90	2.40	 	 	 	 	 	 	 	 	 	 	 	 	 	 	 	 	 	 	1581473922	11.03	20.43
12/02/2020 02:18:43	120220	12022020	021843	192.16	13.671873	-56.938347	192.42	0.810	0.180	1.090	192.22	-1.30	1.70	 	 	 	 	 	 	 	 	 	 	 	 	 	 	 	 	 	 	1581473923	10.50	19.45
12/02/2020 02:18:44	120220	12022020	021844	192.63	13.671825	-56.938352	192.98	0.790	0.700	0.450	192.77	-0.70	1.00	 	 	 	 	 	 	 	 	 	 	 	 	 	 	 	 	 	 	1581473924	10.30	19.08
12/02/2020 02:18:45	120220	12022020	021845	193.34	13.671777	-56.938360	193.70	0.400	0.470	0.410	193.48	-0.80	0.80	 	 	 	 	 	 	 	 	 	 	 	 	 	 	 	 	 	 	1581473925	10.68	19.78
12/02/2020 02:18:46	120220	12022020	021846	193.84	13.671727	-56.938375	194.13	-0.030	-0.330	1.060	193.90	-1.60	1.40	 	 	 	 	 	 	 	 	 	 	 	 	 	 	 	 	 	 	1581473926	11.24	20.82
12/02/2020 02:18:47	120220	12022020	021847	194.06	13.671677	-56.938393	194.33	-0.280	-0.880	1.810	194.09	-2.20	2.20	 	 	 	 	 	 	 	 	 	 	 	 	 	 	 	 	 	 	1581473927	11.25	20.84
12/02/2020 02:18:48	120220	12022020	021848	194.24	13.671630	-56.938410	194.52	-0.370	-0.820	2.130	194.27	-2.10	2.60	 	 	 	 	 	 	 	 	 	 	 	 	 	 	 	 	 	 	1581473928	10.59	19.61
12/02/2020 02:18:49	120220	12022020	021849	194.36	13.671585	-56.938425	194.57	-0.360	-0.600	2.120	194.35	-2.00	2.60	 	 	 	 	 	 	 	 	 	 	 	 	 	 	 	 	 	 	1581473929	10.26	19.00
12/02/2020 02:18:50	120220	12022020	021850	194.18	13.671538	-56.938440	194.29	-0.180	-0.720	2.110	194.10	-2.30	2.50	 	 	 	 	 	 	 	 	 	 	 	 	 	 	 	 	 	 	1581473930	10.26	19.00
12/02/2020 02:18:51	120220	12022020	021851	193.62	13.671488	-56.938455	193.65	0.190	-1.110	2.050	193.49	-2.40	2.50	 	 	 	 	 	 	 	 	 	 	 	 	 	 	 	 	 	 	1581473931	11.30	20.93
12/02/2020 02:18:52	120220	12022020	021852	192.93	13.671437	-56.938468	193.01	0.490	-1.120	2.000	192.83	-2.50	2.50	 	 	 	 	 	 	 	 	 	 	 	 	 	 	 	 	 	 	1581473932	11.42	21.15
12/02/2020 02:18:53	120220	12022020	021853	192.56	13.671388	-56.938482	192.72	0.330	-0.430	2.000	192.53	-1.90	2.50	 	 	 	 	 	 	 	 	 	 	 	 	 	 	 	 	 	 	1581473933	10.77	19.95
12/02/2020 02:18:54	120220	12022020	021854	192.43	13.671342	-56.938495	192.62	-0.220	0.430	1.990	192.41	-1.10	2.40	 	 	 	 	 	 	 	 	 	 	 	 	 	 	 	 	 	 	1581473934	10.77	19.95
12/02/2020 02:18:55	120220	12022020	021855	192.35	13.671295	-56.938512	192.55	-0.680	0.740	2.050	192.35	-0.60	2.50	 	 	 	 	 	 	 	 	 	 	 	 	 	 	 	 	 	 	1581473935	10.34	19.15
12/02/2020 02:18:56	120220	12022020	021856	192.43	13.671245	-56.938528	192.68	-0.660	0.530	1.840	192.48	-0.80	2.30	 	 	 	 	 	 	 	 	 	 	 	 	 	 	 	 	 	 	1581473936	11.27	20.87
12/02/2020 02:18:57	120220	12022020	021857	192.83	13.671193	-56.938542	193.19	-0.250	0.290	1.230	192.97	-1.10	1.80	 	 	 	 	 	 	 	 	 	 	 	 	 	 	 	 	 	 	1581473937	11.27	20.87
12/02/2020 02:18:58	120220	12022020	021858	193.60	13.671145	-56.938552	193.99	0.200	0.220	0.470	193.77	-1.20	1.00	 	 	 	 	 	 	 	 	 	 	 	 	 	 	 	 	 	 	1581473938	11.25	20.84
12/02/2020 02:18:59	120220	12022020	021859	194.35	13.671097	-56.938560	194.65	0.470	0.010	0.170	194.46	-1.30	0.60	 	 	 	 	 	 	 	 	 	 	 	 	 	 	 	 	 	 	1581473939	10.74	19.89
12/02/2020 02:19:00	120220	12022020	021900	194.70	13.671048	-56.938572	194.89	0.570	-0.620	0.580	194.72	-1.90	0.90	 	 	 	 	 	 	 	 	 	 	 	 	 	 	 	 	 	 	1581473940	10.47	19.39
12/02/2020 02:19:01	120220	12022020	021901	194.69	13.670998	-56.938587	194.84	0.490	-1.220	1.290	194.66	-2.50	1.60	1017.50	26.00	26.10	21.00	21.10	-1.0	73.0	73.0	398.0	25.6	260.00	9.20	65.00	11.50	15	8346.0	27.2	27.2	1581473941	10.97	20.32
12/02/2020 02:19:02	120220	12022020	021902	194.44	13.670952	-56.938603	194.54	0.240	-1.480	1.970	194.37	-2.80	2.30	 	 	 	 	 	 	 	 	 	 	 	 	 	 	 	 	 	 	1581473942	10.97	20.32
12/02/2020 02:19:03	120220	12022020	021903	193.99	13.670903	-56.938622	194.09	-0.080	-1.410	2.560	193.89	-2.80	2.90	 	 	 	 	 	 	 	 	 	 	 	 	 	 	 	 	 	 	1581473943	10.82	20.04
12/02/2020 02:19:04	120220	12022020	021904	193.48	13.670858	-56.938638	193.59	-0.420	-0.910	2.860	193.39	-2.40	3.30	 	 	 	 	 	 	 	 	 	 	 	 	 	 	 	 	 	 	1581473944	10.72	19.85
12/02/2020 02:19:05	120220	12022020	021905	193.02	13.670812	-56.938657	193.12	-0.750	-0.090	2.870	192.93	-1.60	3.30	 	 	 	 	 	 	 	 	 	 	 	 	 	 	 	 	 	 	1581473945	10.43	19.32
12/02/2020 02:19:06	120220	12022020	021906	192.64	13.670767	-56.938673	192.78	-0.870	0.500	2.640	192.58	-0.90	3.10	 	 	 	 	 	 	 	 	 	 	 	 	 	 	 	 	 	 	1581473946	10.56	19.56
12/02/2020 02:19:07	120220	12022020	021907	192.45	13.670717	-56.938690	192.63	-0.540	0.490	2.230	192.44	-0.90	2.70	 	 	 	 	 	 	 	 	 	 	 	 	 	 	 	 	 	 	1581473947	10.56	19.56
12/02/2020 02:19:08	120220	12022020	021908	192.50	13.670665	-56.938703	192.70	0.160	0.200	1.610	192.53	-1.10	2.10	 	 	 	 	 	 	 	 	 	 	 	 	 	 	 	 	 	 	1581473948	11.10	20.56
12/02/2020 02:19:09	120220	12022020	021909	192.68	13.670615	-56.938715	192.91	0.790	0.050	1.190	192.73	-1.30	1.70	 	 	 	 	 	 	 	 	 	 	 	 	 	 	 	 	 	 	1581473949	11.43	21.17
12/02/2020 02:19:10	120220	12022020	021910	193.00	13.670565	-56.938723	193.26	0.880	0.110	1.040	193.07	-1.30	1.50	 	 	 	 	 	 	 	 	 	 	 	 	 	 	 	 	 	 	1581473950	10.69	19.80
12/02/2020 02:19:11	120220	12022020	021911	193.31	13.670518	-56.938735	193.56	0.540	0.010	1.120	193.36	-1.30	1.50	 	 	 	 	 	 	 	 	 	 	 	 	 	 	 	 	 	 	1581473951	10.45	19.35
12/02/2020 02:19:12	120220	12022020	021912	193.45	13.670470	-56.938747	193.70	0.220	-0.530	1.350	193.48	-1.80	1.80	 	 	 	 	 	 	 	 	 	 	 	 	 	 	 	 	 	 	1581473952	10.45	19.35
12/02/2020 02:19:13	120220	12022020	021913	193.63	13.670420	-56.938760	193.93	0.070	-1.050	1.500	193.68	-2.40	1.90	 	 	 	 	 	 	 	 	 	 	 	 	 	 	 	 	 	 	1581473953	11.12	20.59
12/02/2020 02:19:14	120220	12022020	021914	193.90	13.670370	-56.938775	194.18	-0.160	-1.210	1.750	193.95	-2.60	2.10	 	 	 	 	 	 	 	 	 	 	 	 	 	 	 	 	 	 	1581473954	11.12	20.59
12/02/2020 02:19:15	120220	12022020	021915	193.93	13.670323	-56.938792	194.09	-0.510	-1.170	2.240	193.88	-2.50	2.60	 	 	 	 	 	 	 	 	 	 	 	 	 	 	 	 	 	 	1581473955	10.76	19.93
12/02/2020 02:19:16	120220	12022020	021916	193.51	13.670277	-56.938812	193.60	-0.770	-0.930	2.800	193.40	-2.30	3.20	 	 	 	 	 	 	 	 	 	 	 	 	 	 	 	 	 	 	1581473956	10.76	19.93
12/02/2020 02:19:17	120220	12022020	021917	192.99	13.670230	-56.938830	193.13	-0.840	-0.410	3.030	192.92	-1.90	3.50	 	 	 	 	 	 	 	 	 	 	 	 	 	 	 	 	 	 	1581473957	10.92	20.22
12/02/2020 02:19:18	120220	12022020	021918	192.72	13.670183	-56.938847	192.91	-0.670	0.200	2.780	192.69	-1.30	3.30	 	 	 	 	 	 	 	 	 	 	 	 	 	 	 	 	 	 	1581473958	10.82	20.04
12/02/2020 02:19:19	120220	12022020	021919	192.58	13.670135	-56.938860	192.76	-0.240	0.630	2.330	192.55	-0.80	2.80	 	 	 	 	 	 	 	 	 	 	 	 	 	 	 	 	 	 	1581473959	10.65	19.72
12/02/2020 02:19:20	120220	12022020	021920	192.49	13.670087	-56.938872	192.70	0.300	0.700	1.770	192.50	-0.70	2.30	 	 	 	 	 	 	 	 	 	 	 	 	 	 	 	 	 	 	1581473960	10.84	20.08
12/02/2020 02:19:21	120220	12022020	021921	192.58	13.670035	-56.938880	192.81	0.720	0.380	1.320	192.61	-0.90	1.80	 	 	 	 	 	 	 	 	 	 	 	 	 	 	 	 	 	 	1581473961	11.04	20.45
12/02/2020 02:19:22	120220	12022020	021922	192.82	13.669985	-56.938892	193.10	0.910	-0.160	1.200	192.90	-1.50	1.60	 	 	 	 	 	 	 	 	 	 	 	 	 	 	 	 	 	 	1581473962	11.04	20.45
12/02/2020 02:19:23	120220	12022020	021923	193.19	13.669935	-56.938903	193.48	0.850	-0.500	1.330	193.26	-1.80	1.80	 	 	 	 	 	 	 	 	 	 	 	 	 	 	 	 	 	 	1581473963	11.16	20.67
12/02/2020 02:19:24	120220	12022020	021924	193.47	13.669888	-56.938917	193.72	0.570	-0.560	1.630	193.50	-1.90	2.00	 	 	 	 	 	 	 	 	 	 	 	 	 	 	 	 	 	 	1581473964	10.89	20.17
12/02/2020 02:19:25	120220	12022020	021925	193.61	13.669842	-56.938930	193.84	0.160	-0.680	1.980	193.62	-2.00	2.40	 	 	 	 	 	 	 	 	 	 	 	 	 	 	 	 	 	 	1581473965	10.49	19.43
12/02/2020 02:19:26	120220	12022020	021926	193.55	13.669793	-56.938947	193.72	-0.160	-1.000	2.290	193.51	-2.60	2.80	 	 	 	 	 	 	 	 	 	 	 	 	 	 	 	 	 	 	1581473966	10.48	19.41
12/02/2020 02:19:27	120220	12022020	021927	193.31	13.669743	-56.938963	193.46	-0.300	-1.330	2.430	193.25	-2.70	2.90	 	 	 	 	 	 	 	 	 	 	 	 	 	 	 	 	 	 	1581473967	10.88	20.15
12/02/2020 02:19:28	120220	12022020	021928	193.12	13.669695	-56.938978	193.32	-0.330	-1.180	2.070	193.11	-2.60	2.60	 	 	 	 	 	 	 	 	 	 	 	 	 	 	 	 	 	 	1581473968	11.25	20.84
12/02/2020 02:19:29	120220	12022020	021929	193.13	13.669647	-56.938990	193.34	-0.380	-0.570	1.430	193.15	-2.00	2.00	 	 	 	 	 	 	 	 	 	 	 	 	 	 	 	 	 	 	1581473969	11.09	20.54
12/02/2020 02:19:30	120220	12022020	021930	193.25	13.669598	-56.939002	193.48	-0.480	-0.050	0.890	193.28	-1.50	1.40	 	 	 	 	 	 	 	 	 	 	 	 	 	 	 	 	 	 	1581473970	10.62	19.67
12/02/2020 02:19:31	120220	12022020	021931	193.36	13.669548	-56.939013	193.55	-0.530	0.190	0.770	193.36	-1.20	1.20	 	 	 	 	 	 	 	 	 	 	 	 	 	 	 	 	 	 	1581473971	10.92	20.22
12/02/2020 02:19:32	120220	12022020	021932	193.27	13.669498	-56.939028	193.42	-0.460	0.180	1.130	193.23	-1.20	1.50	 	 	 	 	 	 	 	 	 	 	 	 	 	 	 	 	 	 	1581473972	11.19	20.72
12/02/2020 02:19:33	120220	12022020	021933	193.01	13.669448	-56.939045	193.13	-0.330	0.030	1.720	192.94	-1.30	2.10	 	 	 	 	 	 	 	 	 	 	 	 	 	 	 	 	 	 	1581473973	11.19	20.72
12/02/2020 02:19:34	120220	12022020	021934	192.68	13.669400	-56.939062	192.84	-0.210	0.060	2.180	192.63	-1.30	2.60	 	 	 	 	 	 	 	 	 	 	 	 	 	 	 	 	 	 	1581473974	11.33	20.98
12/02/2020 02:19:35	120220	12022020	021935	192.59	13.669353	-56.939077	192.84	-0.110	0.480	2.110	192.62	-1.00	2.60	 	 	 	 	 	 	 	 	 	 	 	 	 	 	 	 	 	 	1581473975	10.57	19.58
12/02/2020 02:19:36	120220	12022020	021936	192.92	13.669307	-56.939088	193.24	0.140	0.870	1.500	193.01	-0.50	2.00	 	 	 	 	 	 	 	 	 	 	 	 	 	 	 	 	 	 	1581473976	10.06	18.63
12/02/2020 02:19:37	120220	12022020	021937	193.44	13.669258	-56.939097	193.77	0.650	0.450	0.650	193.56	-0.80	1.20	 	 	 	 	 	 	 	 	 	 	 	 	 	 	 	 	 	 	1581473977	10.06	18.63
12/02/2020 02:19:38	120220	12022020	021938	193.94	13.669207	-56.939107	194.20	1.140	-0.630	0.420	194.00	-1.80	0.80	 	 	 	 	 	 	 	 	 	 	 	 	 	 	 	 	 	 	1581473978	10.55	19.54
12/02/2020 02:19:39	120220	12022020	021939	194.03	13.669155	-56.939120	194.14	1.240	-1.740	0.900	193.96	-3.00	1.20	 	 	 	 	 	 	 	 	 	 	 	 	 	 	 	 	 	 	1581473979	11.25	20.84
12/02/2020 02:19:40	120220	12022020	021940	193.47	13.669105	-56.939135	193.50	0.890	-2.400	1.790	193.47	-3.70	2.10	 	 	 	 	 	 	 	 	 	 	 	 	 	 	 	 	 	 	1581473980	11.46	21.22
12/02/2020 02:19:41	120220	12022020	021941	192.69	13.669057	-56.939153	192.72	0.190	-2.080	2.850	192.54	-3.60	3.10	 	 	 	 	 	 	 	 	 	 	 	 	 	 	 	 	 	 	1581473981	11.46	21.22
12/02/2020 02:19:42	120220	12022020	021942	192.00	13.669012	-56.939173	192.12	-0.590	-0.820	3.460	191.91	-2.40	3.90	 	 	 	 	 	 	 	 	 	 	 	 	 	 	 	 	 	 	1581473982	10.40	19.26
12/02/2020 02:19:43	120220	12022020	021943	191.71	13.668968	-56.939188	191.94	-1.200	0.560	3.220	191.71	-1.00	3.70	 	 	 	 	 	 	 	 	 	 	 	 	 	 	 	 	 	 	1581473983	10.40	19.26
12/02/2020 02:19:44	120220	12022020	021944	191.92	13.668922	-56.939205	192.24	-1.440	1.290	2.630	192.00	-0.10	3.20	 	 	 	 	 	 	 	 	 	 	 	 	 	 	 	 	 	 	1581473984	10.12	18.74
12/02/2020 02:19:45	120220	12022020	021945	192.45	13.668872	-56.939220	192.82	-1.210	1.180	1.900	192.60	-0.10	2.50	 	 	 	 	 	 	 	 	 	 	 	 	 	 	 	 	 	 	1581473985	10.50	19.45
12/02/2020 02:19:46	120220	12022020	021946	193.16	13.668820	-56.939233	193.50	-0.560	0.450	1.220	193.29	-0.80	1.70	 	 	 	 	 	 	 	 	 	 	 	 	 	 	 	 	 	 	1581473986	11.57	21.43
12/02/2020 02:19:47	120220	12022020	021947	193.70	13.668767	-56.939247	193.97	0.300	-0.420	0.920	193.77	-1.70	1.40	 	 	 	 	 	 	 	 	 	 	 	 	 	 	 	 	 	 	1581473987	11.57	21.43
12/02/2020 02:19:48	120220	12022020	021948	193.98	13.668715	-56.939257	194.23	0.980	-0.770	0.750	194.03	-2.10	1.20	 	 	 	 	 	 	 	 	 	 	 	 	 	 	 	 	 	 	1581473988	11.68	21.63
12/02/2020 02:19:49	120220	12022020	021949	194.28	13.668668	-56.939265	194.56	1.090	-0.310	0.360	194.36	-1.80	0.90	 	 	 	 	 	 	 	 	 	 	 	 	 	 	 	 	 	 	1581473989	11.21	20.76
12/02/2020 02:19:50	120220	12022020	021950	194.73	13.668623	-56.939270	194.99	0.680	0.160	-0.040	194.82	-1.20	0.40	 	 	 	 	 	 	 	 	 	 	 	 	 	 	 	 	 	 	1581473990	9.78	18.11
12/02/2020 02:19:51	120220	12022020	021951	195.05	13.668577	-56.939280	195.22	0.230	-0.240	0.010	195.06	-1.50	0.40	 	 	 	 	 	 	 	 	 	 	 	 	 	 	 	 	 	 	1581473991	9.78	18.11
12/02/2020 02:19:52	120220	12022020	021952	194.96	13.668525	-56.939295	195.03	0.170	-1.330	0.630	194.88	-2.50	0.90	 	 	 	 	 	 	 	 	 	 	 	 	 	 	 	 	 	 	1581473992	11.52	21.34
12/02/2020 02:19:53	120220	12022020	021953	194.43	13.668472	-56.939313	194.47	0.280	-2.060	1.590	194.31	-3.40	1.90	 	 	 	 	 	 	 	 	 	 	 	 	 	 	 	 	 	 	1581473993	11.52	21.34
12/02/2020 02:19:54	120220	12022020	021954	193.72	13.668423	-56.939333	193.73	0.020	-1.720	2.600	193.58	-3.20	2.90	 	 	 	 	 	 	 	 	 	 	 	 	 	 	 	 	 	 	1581473994	11.17	20.69
12/02/2020 02:19:55	120220	12022020	021955	192.89	13.668378	-56.939355	192.89	-0.580	-0.790	3.350	192.71	-2.30	3.70	 	 	 	 	 	 	 	 	 	 	 	 	 	 	 	 	 	 	1581473995	11.17	20.69
12/02/2020 02:19:56	120220	12022020	021956	192.01	13.668332	-56.939377	192.05	-1.070	-0.030	3.700	191.85	-1.50	4.10	 	 	 	 	 	 	 	 	 	 	 	 	 	 	 	 	 	 	1581473996	11.05	20.46
12/02/2020 02:19:57	120220	12022020	021957	191.37	13.668283	-56.939398	191.52	-1.090	0.600	3.540	191.31	-0.90	4.00	 	 	 	 	 	 	 	 	 	 	 	 	 	 	 	 	 	 	1581473997	11.05	20.46
12/02/2020 02:19:58	120220	12022020	021958	191.34	13.668237	-56.939415	191.68	-0.730	1.300	2.780	191.44	-0.20	3.40	 	 	 	 	 	 	 	 	 	 	 	 	 	 	 	 	 	 	1581473998	11.30	20.93
12/02/2020 02:19:59	120220	12022020	021959	192.08	13.668188	-56.939425	192.57	-0.240	1.690	1.640	192.31	0.30	2.30	 	 	 	 	 	 	 	 	 	 	 	 	 	 	 	 	 	 	1581473999	10.49	19.43
12/02/2020 02:20:00	120220	12022020	022000	193.33	13.668140	-56.939435	193.85	0.240	1.320	0.670	193.60	0.00	1.20	 	 	 	 	 	 	 	 	 	 	 	 	 	 	 	 	 	 	1581474000	10.49	19.43
12/02/2020 02:20:01	120220	12022020	022001	194.54	13.668090	-56.939445	194.96	0.750	0.170	0.400	194.73	-1.00	0.80	1017.50	26.00	26.00	20.90	21.00	-1.0	73.0	73.0	397.0	25.6	261.00	8.80	65.00	11.20	15	7847.0	27.2	27.2	1581474001	10.61	19.65
12/02/2020 02:20:02	120220	12022020	022002	195.24	13.668040	-56.939457	195.49	1.260	-1.200	0.730	195.31	-2.40	1.10	 	 	 	 	 	 	 	 	 	 	 	 	 	 	 	 	 	 	1581474002	10.97	20.32
12/02/2020 02:20:03	120220	12022020	022003	195.35	13.667990	-56.939468	195.49	1.550	-2.020	1.280	195.32	-3.30	1.60	 	 	 	 	 	 	 	 	 	 	 	 	 	 	 	 	 	 	1581474003	11.14	20.63
12/02/2020 02:20:04	120220	12022020	022004	195.03	13.667943	-56.939478	195.10	1.290	-2.110	1.970	195.03	-3.50	2.30	 	 	 	 	 	 	 	 	 	 	 	 	 	 	 	 	 	 	1581474004	10.83	20.06
12/02/2020 02:20:05	120220	12022020	022005	194.51	13.667897	-56.939492	194.62	0.410	-1.750	2.580	194.43	-3.20	3.00	 	 	 	 	 	 	 	 	 	 	 	 	 	 	 	 	 	 	1581474005	10.24	18.96
12/02/2020 02:20:06	120220	12022020	022006	194.15	13.667852	-56.939508	194.27	-0.710	-1.200	2.900	194.08	-2.60	3.30	 	 	 	 	 	 	 	 	 	 	 	 	 	 	 	 	 	 	1581474006	10.46	19.37
12/02/2020 02:20:07	120220	12022020	022007	193.76	13.667805	-56.939530	193.85	-1.450	-0.720	3.040	193.67	-2.20	3.50	 	 	 	 	 	 	 	 	 	 	 	 	 	 	 	 	 	 	1581474007	10.46	19.37
12/02/2020 02:20:08	120220	12022020	022008	193.28	13.667757	-56.939553	193.36	-1.430	-0.300	2.920	193.19	-1.70	3.40	 	 	 	 	 	 	 	 	 	 	 	 	 	 	 	 	 	 	1581474008	11.00	20.37
12/02/2020 02:20:09	120220	12022020	022009	192.94	13.667708	-56.939572	193.08	-0.830	0.310	2.280	192.92	-1.20	2.90	 	 	 	 	 	 	 	 	 	 	 	 	 	 	 	 	 	 	1581474009	11.45	21.21
12/02/2020 02:20:10	120220	12022020	022010	192.98	13.667658	-56.939585	193.21	-0.230	0.860	1.450	193.03	-0.60	2.00	 	 	 	 	 	 	 	 	 	 	 	 	 	 	 	 	 	 	1581474010	10.96	20.30
12/02/2020 02:20:11	120220	12022020	022011	193.28	13.667608	-56.939597	193.54	0.050	0.900	1.030	193.35	-0.40	1.50	 	 	 	 	 	 	 	 	 	 	 	 	 	 	 	 	 	 	1581474011	10.96	20.30
12/02/2020 02:20:12	120220	12022020	022012	193.61	13.667558	-56.939612	193.85	0.140	0.540	1.090	193.67	-0.80	1.50	 	 	 	 	 	 	 	 	 	 	 	 	 	 	 	 	 	 	1581474012	11.07	20.50
12/02/2020 02:20:13	120220	12022020	022013	193.90	13.667508	-56.939627	194.17	0.280	0.290	1.240	193.98	-1.10	1.70	 	 	 	 	 	 	 	 	 	 	 	 	 	 	 	 	 	 	1581474013	11.25	20.84
12/02/2020 02:20:14	120220	12022020	022014	194.28	13.667462	-56.939638	194.55	0.530	0.270	1.260	194.35	-1.10	1.70	 	 	 	 	 	 	 	 	 	 	 	 	 	 	 	 	 	 	1581474014	10.99	20.35
12/02/2020 02:20:15	120220	12022020	022015	194.60	13.667417	-56.939650	194.83	0.640	0.110	1.300	194.65	-1.20	1.70	 	 	 	 	 	 	 	 	 	 	 	 	 	 	 	 	 	 	1581474015	10.19	18.87
12/02/2020 02:20:16	120220	12022020	022016	194.74	13.667370	-56.939665	194.93	0.500	-0.370	1.360	194.74	-1.70	1.80	 	 	 	 	 	 	 	 	 	 	 	 	 	 	 	 	 	 	1581474016	10.19	18.87
12/02/2020 02:20:17	120220	12022020	022017	194.76	13.667323	-56.939678	194.91	0.290	-0.940	1.210	194.74	-2.20	1.70	 	 	 	 	 	 	 	 	 	 	 	 	 	 	 	 	 	 	1581474017	10.39	19.24
12/02/2020 02:20:18	120220	12022020	022018	194.59	13.667275	-56.939692	194.69	0.200	-1.470	1.230	194.53	-2.80	1.60	 	 	 	 	 	 	 	 	 	 	 	 	 	 	 	 	 	 	1581474018	10.56	19.56
12/02/2020 02:20:19	120220	12022020	022019	194.16	13.667227	-56.939708	194.21	0.210	-1.710	1.600	194.05	-3.10	2.00	 	 	 	 	 	 	 	 	 	 	 	 	 	 	 	 	 	 	1581474019	10.67	19.76
12/02/2020 02:20:20	120220	12022020	022020	193.53	13.667180	-56.939723	193.55	0.160	-1.600	1.980	193.39	-3.00	2.40	 	 	 	 	 	 	 	 	 	 	 	 	 	 	 	 	 	 	1581474020	10.75	19.91
12/02/2020 02:20:21	120220	12022020	022021	192.79	13.667132	-56.939740	192.79	0.050	-1.260	2.310	192.64	-2.70	2.70	 	 	 	 	 	 	 	 	 	 	 	 	 	 	 	 	 	 	1581474021	10.94	20.26
12/02/2020 02:20:22	120220	12022020	022022	192.10	13.667083	-56.939757	192.17	-0.060	-0.660	2.500	191.99	-2.10	2.90	 	 	 	 	 	 	 	 	 	 	 	 	 	 	 	 	 	 	1581474022	10.94	20.26
12/02/2020 02:20:23	120220	12022020	022023	191.79	13.667033	-56.939770	191.99	-0.170	0.180	2.220	191.80	-1.30	2.70	 	 	 	 	 	 	 	 	 	 	 	 	 	 	 	 	 	 	1581474023	11.09	20.54
12/02/2020 02:20:24	120220	12022020	022024	192.05	13.666985	-56.939782	192.38	-0.350	0.790	1.780	192.17	-0.60	2.30	 	 	 	 	 	 	 	 	 	 	 	 	 	 	 	 	 	 	1581474024	10.92	20.22
12/02/2020 02:20:25	120220	12022020	022025	192.77	13.666935	-56.939797	193.18	-0.670	0.890	1.870	192.94	-0.50	2.30	 	 	 	 	 	 	 	 	 	 	 	 	 	 	 	 	 	 	1581474025	10.90	20.19
12/02/2020 02:20:26	120220	12022020	022026	193.57	13.666887	-56.939818	193.95	-0.960	0.650	2.400	193.71	-0.70	2.80	 	 	 	 	 	 	 	 	 	 	 	 	 	 	 	 	 	 	1581474026	11.22	20.78
12/02/2020 02:20:27	120220	12022020	022027	194.01	13.666840	-56.939838	194.25	-0.830	0.320	2.840	194.03	-1.00	3.20	 	 	 	 	 	 	 	 	 	 	 	 	 	 	 	 	 	 	1581474027	11.22	20.78
12/02/2020 02:20:28	120220	12022020	022028	193.87	13.666792	-56.939858	194.02	-0.110	-0.050	3.050	193.80	-1.40	3.50	 	 	 	 	 	 	 	 	 	 	 	 	 	 	 	 	 	 	1581474028	10.90	20.19
12/02/2020 02:20:29	120220	12022020	022029	193.55	13.666745	-56.939870	193.72	0.750	-0.170	2.700	193.50	-1.60	3.20	 	 	 	 	 	 	 	 	 	 	 	 	 	 	 	 	 	 	1581474029	10.90	20.19
12/02/2020 02:20:30	120220	12022020	022030	193.42	13.666698	-56.939877	193.60	1.200	-0.060	1.900	193.42	-1.50	2.50	 	 	 	 	 	 	 	 	 	 	 	 	 	 	 	 	 	 	1581474030	10.60	19.63
12/02/2020 02:20:31	120220	12022020	022031	193.45	13.666650	-56.939883	193.67	1.100	-0.180	1.030	193.48	-1.50	1.60	 	 	 	 	 	 	 	 	 	 	 	 	 	 	 	 	 	 	1581474031	10.18	18.85
12/02/2020 02:20:32	120220	12022020	022032	193.68	13.666602	-56.939890	193.90	0.700	-0.540	0.480	193.73	-1.90	1.00	 	 	 	 	 	 	 	 	 	 	 	 	 	 	 	 	 	 	1581474032	10.26	19.00
12/02/2020 02:20:33	120220	12022020	022033	193.94	13.666553	-56.939902	194.12	0.300	-1.080	0.640	193.96	-2.40	1.00	 	 	 	 	 	 	 	 	 	 	 	 	 	 	 	 	 	 	1581474033	10.48	19.41
12/02/2020 02:20:34	120220	12022020	022034	193.92	13.666505	-56.939920	194.02	0.030	-1.670	1.410	193.87	-3.00	1.70	 	 	 	 	 	 	 	 	 	 	 	 	 	 	 	 	 	 	1581474034	10.68	19.78
12/02/2020 02:20:35	120220	12022020	022035	193.49	13.666457	-56.939940	193.51	-0.160	-2.050	2.360	193.36	-3.40	2.70	 	 	 	 	 	 	 	 	 	 	 	 	 	 	 	 	 	 	1581474035	11.06	20.48
12/02/2020 02:20:36	120220	12022020	022036	192.78	13.666407	-56.939960	192.81	-0.420	-1.840	3.130	192.62	-3.30	3.50	 	 	 	 	 	 	 	 	 	 	 	 	 	 	 	 	 	 	1581474036	11.38	21.08
12/02/2020 02:20:37	120220	12022020	022037	192.08	13.666360	-56.939980	192.15	-0.830	-0.970	3.630	191.96	-2.50	4.00	 	 	 	 	 	 	 	 	 	 	 	 	 	 	 	 	 	 	1581474037	11.37	21.06
12/02/2020 02:20:38	120220	12022020	022038	191.53	13.666313	-56.940000	191.59	-1.180	0.090	3.700	191.42	-1.40	4.10	 	 	 	 	 	 	 	 	 	 	 	 	 	 	 	 	 	 	1581474038	11.02	20.41
12/02/2020 02:20:39	120220	12022020	022039	191.08	13.666265	-56.940018	191.19	-1.140	0.910	3.500	191.01	-0.60	4.00	 	 	 	 	 	 	 	 	 	 	 	 	 	 	 	 	 	 	1581474039	10.83	20.06
12/02/2020 02:20:40	120220	12022020	022040	190.92	13.666217	-56.940033	191.14	-0.690	1.420	3.010	190.94	-0.00	3.60	 	 	 	 	 	 	 	 	 	 	 	 	 	 	 	 	 	 	1581474040	10.99	20.35
12/02/2020 02:20:41	120220	12022020	022041	191.21	13.666167	-56.940043	191.52	0.010	1.600	2.140	191.31	0.20	2.70	 	 	 	 	 	 	 	 	 	 	 	 	 	 	 	 	 	 	1581474041	11.04	20.45
12/02/2020 02:20:42	120220	12022020	022042	191.78	13.666117	-56.940050	192.11	0.710	1.290	1.300	191.92	-0.00	1.90	 	 	 	 	 	 	 	 	 	 	 	 	 	 	 	 	 	 	1581474042	10.87	20.13
12/02/2020 02:20:43	120220	12022020	022043	192.43	13.666067	-56.940055	192.71	1.190	0.550	0.750	192.54	-0.70	1.30	 	 	 	 	 	 	 	 	 	 	 	 	 	 	 	 	 	 	1581474043	10.84	20.08
12/02/2020 02:20:44	120220	12022020	022044	192.97	13.666017	-56.940062	193.23	1.280	-0.440	0.710	193.05	-1.70	1.10	 	 	 	 	 	 	 	 	 	 	 	 	 	 	 	 	 	 	1581474044	10.84	20.08
12/02/2020 02:20:45	120220	12022020	022045	193.29	13.665968	-56.940073	193.48	0.980	-1.440	1.360	193.31	-2.70	1.70	 	 	 	 	 	 	 	 	 	 	 	 	 	 	 	 	 	 	1581474045	10.65	19.72
12/02/2020 02:20:46	120220	12022020	022046	193.30	13.665922	-56.940088	193.46	0.520	-2.150	2.250	193.27	-3.40	2.60	 	 	 	 	 	 	 	 	 	 	 	 	 	 	 	 	 	 	1581474046	10.65	19.72
12/02/2020 02:20:47	120220	12022020	022047	193.00	13.665875	-56.940107	193.09	0.100	-2.430	2.970	192.90	-3.80	3.30	 	 	 	 	 	 	 	 	 	 	 	 	 	 	 	 	 	 	1581474047	10.62	19.67
12/02/2020 02:20:48	120220	12022020	022048	192.53	13.665828	-56.940123	192.65	-0.280	-2.210	3.230	192.45	-3.60	3.70	 	 	 	 	 	 	 	 	 	 	 	 	 	 	 	 	 	 	1581474048	10.68	19.78
12/02/2020 02:20:49	120220	12022020	022049	192.25	13.665782	-56.940140	192.40	-0.750	-1.510	3.130	192.21	-3.00	3.60	 	 	 	 	 	 	 	 	 	 	 	 	 	 	 	 	 	 	1581474049	10.77	19.95
12/02/2020 02:20:50	120220	12022020	022050	192.02	13.665733	-56.940157	192.15	-1.120	-0.640	3.000	191.95	-2.10	3.40	 	 	 	 	 	 	 	 	 	 	 	 	 	 	 	 	 	 	1581474050	10.80	20.00
12/02/2020 02:20:51	120220	12022020	022051	191.59	13.665685	-56.940175	191.67	-1.120	-0.040	2.970	191.48	-1.50	3.40	 	 	 	 	 	 	 	 	 	 	 	 	 	 	 	 	 	 	1581474051	10.80	20.00
12/02/2020 02:20:52	120220	12022020	022052	191.15	13.665632	-56.940190	191.32	-0.780	0.450	2.940	191.11	-1.00	3.40	 	 	 	 	 	 	 	 	 	 	 	 	 	 	 	 	 	 	1581474052	11.71	21.69
12/02/2020 02:20:53	120220	12022020	022053	191.21	13.665582	-56.940205	191.51	-0.480	1.210	2.620	191.29	-0.30	3.10	 	 	 	 	 	 	 	 	 	 	 	 	 	 	 	 	 	 	1581474053	11.27	20.87
12/02/2020 02:20:54	120220	12022020	022054	191.80	13.665533	-56.940217	192.20	-0.260	1.900	1.880	191.80	0.40	2.50	 	 	 	 	 	 	 	 	 	 	 	 	 	 	 	 	 	 	1581474054	10.68	19.78
12/02/2020 02:20:55	120220	12022020	022055	192.73	13.665485	-56.940225	193.16	0.100	2.000	0.990	192.93	0.70	1.60	 	 	 	 	 	 	 	 	 	 	 	 	 	 	 	 	 	 	1581474055	10.68	19.78
12/02/2020 02:20:56	120220	12022020	022056	193.75	13.665435	-56.940232	194.14	0.730	1.260	0.190	193.92	0.00	0.80	 	 	 	 	 	 	 	 	 	 	 	 	 	 	 	 	 	 	1581474056	10.55	19.54
12/02/2020 02:20:57	120220	12022020	022057	194.60	13.665383	-56.940238	194.93	1.320	-0.090	-0.070	194.72	-1.30	0.40	 	 	 	 	 	 	 	 	 	 	 	 	 	 	 	 	 	 	1581474057	10.88	20.15
12/02/2020 02:20:58	120220	12022020	022058	195.09	13.665333	-56.940252	195.30	1.280	-1.430	0.810	195.12	-2.60	1.10	 	 	 	 	 	 	 	 	 	 	 	 	 	 	 	 	 	 	1581474058	11.18	20.71
12/02/2020 02:20:59	120220	12022020	022059	194.95	13.665288	-56.940272	195.02	0.580	-2.350	2.440	194.84	-3.60	2.60	 	 	 	 	 	 	 	 	 	 	 	 	 	 	 	 	 	 	1581474059	10.91	20.21
12/02/2020 02:21:00	120220	12022020	022100	194.25	13.665245	-56.940297	194.28	-0.250	-2.640	3.940	194.07	-4.00	4.20	 	 	 	 	 	 	 	 	 	 	 	 	 	 	 	 	 	 	1581474060	10.70	19.82
12/02/2020 02:21:01	120220	12022020	022101	193.32	13.665203	-56.940323	193.32	-0.650	-2.270	4.810	193.12	-3.70	5.20	1017.60	26.00	26.10	21.00	21.10	-1.0	73.0	74.0	396.0	25.6	267.00	8.80	69.00	10.70	15	8890.0	27.2	27.2	1581474061	10.70	19.82
12/02/2020 02:21:02	120220	12022020	022102	192.32	13.665158	-56.940343	192.32	-0.340	-1.540	4.780	192.13	-3.00	5.30	 	 	 	 	 	 	 	 	 	 	 	 	 	 	 	 	 	 	1581474062	10.62	19.67
12/02/2020 02:21:03	120220	12022020	022103	191.46	13.665110	-56.940357	191.52	0.300	-0.830	4.180	191.33	-2.30	4.70	 	 	 	 	 	 	 	 	 	 	 	 	 	 	 	 	 	 	1581474063	10.45	19.35
12/02/2020 02:21:04	120220	12022020	022104	190.98	13.665060	-56.940365	191.16	0.530	-0.130	3.370	190.95	-1.60	3.90	 	 	 	 	 	 	 	 	 	 	 	 	 	 	 	 	 	 	1581474064	10.77	19.95
12/02/2020 02:21:05	120220	12022020	022105	191.03	13.665008	-56.940373	191.30	0.030	0.600	2.590	191.09	-0.90	3.10	 	 	 	 	 	 	 	 	 	 	 	 	 	 	 	 	 	 	1581474065	11.10	20.56
12/02/2020 02:21:06	120220	12022020	022106	191.51	13.664960	-56.940385	191.87	-0.830	1.290	2.160	191.51	-0.20	2.70	 	 	 	 	 	 	 	 	 	 	 	 	 	 	 	 	 	 	1581474066	10.98	20.33
12/02/2020 02:21:07	120220	12022020	022107	192.36	13.664913	-56.940400	192.76	-1.410	1.470	1.990	192.53	0.10	2.50	 	 	 	 	 	 	 	 	 	 	 	 	 	 	 	 	 	 	1581474067	10.60	19.63
12/02/2020 02:21:08	120220	12022020	022108	193.11	13.664865	-56.940417	193.43	-1.200	0.760	2.140	193.22	-0.50	2.60	 	 	 	 	 	 	 	 	 	 	 	 	 	 	 	 	 	 	1581474068	10.60	19.63
12/02/2020 02:21:09	120220	12022020	022109	193.54	13.664813	-56.940435	193.77	-0.340	-0.350	2.170	193.58	-1.60	2.60	 	 	 	 	 	 	 	 	 	 	 	 	 	 	 	 	 	 	1581474069	11.66	21.59
12/02/2020 02:21:10	120220	12022020	022110	193.67	13.664762	-56.940448	193.84	0.570	-1.010	1.820	193.67	-2.40	2.40	 	 	 	 	 	 	 	 	 	 	 	 	 	 	 	 	 	 	1581474070	11.66	21.59
12/02/2020 02:21:11	120220	12022020	022111	193.59	13.664715	-56.940458	193.71	1.000	-0.920	1.430	193.56	-2.40	1.90	 	 	 	 	 	 	 	 	 	 	 	 	 	 	 	 	 	 	1581474071	11.25	20.84
12/02/2020 02:21:12	120220	12022020	022112	193.44	13.664670	-56.940467	193.57	0.850	-0.380	1.180	193.42	-1.90	1.70	 	 	 	 	 	 	 	 	 	 	 	 	 	 	 	 	 	 	1581474072	9.83	18.21
12/02/2020 02:21:13	120220	12022020	022113	193.35	13.664625	-56.940477	193.46	0.320	0.100	1.190	193.32	-1.30	1.60	 	 	 	 	 	 	 	 	 	 	 	 	 	 	 	 	 	 	1581474073	9.67	17.91
12/02/2020 02:21:14	120220	12022020	022114	193.13	13.664580	-56.940492	193.20	-0.110	-0.000	1.520	193.06	-1.30	1.90	 	 	 	 	 	 	 	 	 	 	 	 	 	 	 	 	 	 	1581474074	10.25	18.98
12/02/2020 02:21:15	120220	12022020	022115	192.78	13.664532	-56.940510	192.87	-0.090	-0.580	1.910	192.71	-1.90	2.30	 	 	 	 	 	 	 	 	 	 	 	 	 	 	 	 	 	 	1581474075	11.07	20.50
12/02/2020 02:21:16	120220	12022020	022116	192.52	13.664483	-56.940528	192.65	0.350	-0.840	1.980	192.49	-2.20	2.40	 	 	 	 	 	 	 	 	 	 	 	 	 	 	 	 	 	 	1581474076	11.07	20.50
12/02/2020 02:21:17	120220	12022020	022117	192.48	13.664437	-56.940540	192.66	0.720	-0.610	1.670	192.50	-2.10	2.20	 	 	 	 	 	 	 	 	 	 	 	 	 	 	 	 	 	 	1581474077	11.03	20.43
12/02/2020 02:21:18	120220	12022020	022118	192.64	13.664390	-56.940550	192.87	0.570	-0.260	1.520	192.70	-1.70	2.00	 	 	 	 	 	 	 	 	 	 	 	 	 	 	 	 	 	 	1581474078	10.47	19.39
12/02/2020 02:21:19	120220	12022020	022119	192.95	13.664343	-56.940563	193.20	-0.080	-0.200	1.780	193.02	-1.60	2.20	 	 	 	 	 	 	 	 	 	 	 	 	 	 	 	 	 	 	1581474079	10.25	18.98
12/02/2020 02:21:20	120220	12022020	022120	193.20	13.664297	-56.940582	193.39	-0.770	-0.520	2.470	193.21	-1.80	2.80	 	 	 	 	 	 	 	 	 	 	 	 	 	 	 	 	 	 	1581474080	10.90	20.19
12/02/2020 02:21:21	120220	12022020	022121	193.00	13.664247	-56.940603	193.08	-1.020	-1.040	3.260	192.90	-2.40	3.60	 	 	 	 	 	 	 	 	 	 	 	 	 	 	 	 	 	 	1581474081	11.45	21.21
12/02/2020 02:21:22	120220	12022020	022122	192.41	13.664198	-56.940623	192.45	-0.650	-1.240	3.530	192.29	-2.60	4.00	 	 	 	 	 	 	 	 	 	 	 	 	 	 	 	 	 	 	1581474082	11.45	21.21
12/02/2020 02:21:23	120220	12022020	022123	191.87	13.664150	-56.940638	191.96	-0.040	-0.640	3.020	191.79	-2.20	3.60	 	 	 	 	 	 	 	 	 	 	 	 	 	 	 	 	 	 	1581474083	11.51	21.32
12/02/2020 02:21:24	120220	12022020	022124	191.59	13.664102	-56.940645	191.72	0.350	0.260	2.120	191.56	-1.30	2.70	 	 	 	 	 	 	 	 	 	 	 	 	 	 	 	 	 	 	1581474084	10.82	20.04
12/02/2020 02:21:25	120220	12022020	022125	191.47	13.664053	-56.940650	191.63	0.400	0.670	1.410	191.47	-0.70	2.00	 	 	 	 	 	 	 	 	 	 	 	 	 	 	 	 	 	 	1581474085	10.25	18.98
12/02/2020 02:21:26	120220	12022020	022126	191.65	13.664003	-56.940658	191.92	0.160	0.560	1.190	191.75	-0.80	1.70	 	 	 	 	 	 	 	 	 	 	 	 	 	 	 	 	 	 	1581474086	10.55	19.54
12/02/2020 02:21:27	120220	12022020	022127	192.28	13.663955	-56.940673	192.62	-0.170	0.310	1.510	192.43	-1.00	1.90	 	 	 	 	 	 	 	 	 	 	 	 	 	 	 	 	 	 	1581474087	10.97	20.32
12/02/2020 02:21:28	120220	12022020	022128	192.98	13.663908	-56.940692	193.30	-0.330	0.090	2.070	193.11	-1.30	2.50	 	 	 	 	 	 	 	 	 	 	 	 	 	 	 	 	 	 	1581474088	10.90	20.19
12/02/2020 02:21:29	120220	12022020	022129	193.50	13.663863	-56.940710	193.77	-0.120	-0.190	2.390	193.57	-1.50	2.80	 	 	 	 	 	 	 	 	 	 	 	 	 	 	 	 	 	 	1581474089	10.67	19.76
12/02/2020 02:21:30	120220	12022020	022130	193.75	13.663815	-56.940725	193.94	0.270	-0.610	2.390	193.76	-1.90	2.90	 	 	 	 	 	 	 	 	 	 	 	 	 	 	 	 	 	 	1581474090	10.49	19.43
12/02/2020 02:21:31	120220	12022020	022131	193.68	13.663768	-56.940738	193.81	0.460	-1.050	2.330	193.65	-2.40	2.80	 	 	 	 	 	 	 	 	 	 	 	 	 	 	 	 	 	 	1581474091	10.72	19.85
12/02/2020 02:21:32	120220	12022020	022132	193.44	13.663720	-56.940752	193.54	0.330	-1.230	2.090	193.39	-2.60	2.60	 	 	 	 	 	 	 	 	 	 	 	 	 	 	 	 	 	 	1581474092	10.73	19.87
12/02/2020 02:21:33	120220	12022020	022133	193.22	13.663672	-56.940763	193.32	0.030	-0.920	1.750	193.18	-2.40	2.30	 	 	 	 	 	 	 	 	 	 	 	 	 	 	 	 	 	 	1581474093	10.73	19.87
12/02/2020 02:21:34	120220	12022020	022134	193.16	13.663627	-56.940777	193.31	-0.210	-0.260	1.420	193.17	-1.70	1.90	 	 	 	 	 	 	 	 	 	 	 	 	 	 	 	 	 	 	1581474094	10.47	19.39
12/02/2020 02:21:35	120220	12022020	022135	193.26	13.663580	-56.940788	193.40	-0.270	0.190	1.110	193.28	-1.20	1.60	 	 	 	 	 	 	 	 	 	 	 	 	 	 	 	 	 	 	1581474095	10.18	18.85
12/02/2020 02:21:36	120220	12022020	022136	193.28	13.663532	-56.940803	193.41	-0.100	0.010	1.090	193.27	-1.30	1.50	 	 	 	 	 	 	 	 	 	 	 	 	 	 	 	 	 	 	1581474096	10.25	18.98
12/02/2020 02:21:37	120220	12022020	022137	193.24	13.663480	-56.940818	193.38	0.190	-0.410	1.300	193.23	-1.70	1.70	 	 	 	 	 	 	 	 	 	 	 	 	 	 	 	 	 	 	1581474097	10.95	20.28
12/02/2020 02:21:38	120220	12022020	022138	193.20	13.663432	-56.940833	193.32	0.390	-0.410	1.530	193.18	-1.80	2.00	 	 	 	 	 	 	 	 	 	 	 	 	 	 	 	 	 	 	1581474098	11.41	21.13
12/02/2020 02:21:39	120220	12022020	022139	193.07	13.663385	-56.940847	193.19	0.330	-0.120	1.700	193.04	-1.50	2.10	 	 	 	 	 	 	 	 	 	 	 	 	 	 	 	 	 	 	1581474099	11.02	20.41
12/02/2020 02:21:40	120220	12022020	022140	192.93	13.663337	-56.940858	193.06	-0.010	0.060	1.800	192.90	-1.30	2.30	 	 	 	 	 	 	 	 	 	 	 	 	 	 	 	 	 	 	1581474100	10.50	19.45
12/02/2020 02:21:41	120220	12022020	022141	192.79	13.663290	-56.940873	192.93	-0.550	-0.100	2.000	192.77	-1.40	2.40	 	 	 	 	 	 	 	 	 	 	 	 	 	 	 	 	 	 	1581474101	10.72	19.85
12/02/2020 02:21:42	120220	12022020	022142	192.71	13.663242	-56.940892	192.86	-0.990	-0.360	2.190	192.70	-1.70	2.60	 	 	 	 	 	 	 	 	 	 	 	 	 	 	 	 	 	 	1581474102	10.72	19.85
12/02/2020 02:21:43	120220	12022020	022143	192.64	13.663195	-56.940912	192.79	-0.970	-0.490	2.170	192.62	-1.90	2.70	 	 	 	 	 	 	 	 	 	 	 	 	 	 	 	 	 	 	1581474103	11.00	20.37
12/02/2020 02:21:44	120220	12022020	022144	192.64	13.663148	-56.940928	192.83	-0.310	-0.320	1.670	192.67	-1.70	2.20	 	 	 	 	 	 	 	 	 	 	 	 	 	 	 	 	 	 	1581474104	10.97	20.32
12/02/2020 02:21:45	120220	12022020	022145	192.87	13.663102	-56.940940	193.08	0.630	0.010	0.800	192.94	-1.40	1.40	 	 	 	 	 	 	 	 	 	 	 	 	 	 	 	 	 	 	1581474105	10.69	19.80
12/02/2020 02:21:46	120220	12022020	022146	193.18	13.663053	-56.940947	193.34	1.220	0.040	0.260	193.22	-1.30	0.80	 	 	 	 	 	 	 	 	 	 	 	 	 	 	 	 	 	 	1581474106	10.34	19.15
12/02/2020 02:21:47	120220	12022020	022147	193.26	13.663003	-56.940957	193.33	1.140	-0.310	0.550	193.23	-1.60	0.90	 	 	 	 	 	 	 	 	 	 	 	 	 	 	 	 	 	 	1581474107	10.73	19.87
12/02/2020 02:21:48	120220	12022020	022148	192.99	13.662955	-56.940970	193.02	0.550	-0.710	1.370	192.90	-2.00	1.70	 	 	 	 	 	 	 	 	 	 	 	 	 	 	 	 	 	 	1581474108	10.73	19.87
12/02/2020 02:21:49	120220	12022020	022149	192.45	13.662908	-56.940988	192.43	-0.070	-0.890	2.360	192.31	-2.30	2.70	 	 	 	 	 	 	 	 	 	 	 	 	 	 	 	 	 	 	1581474109	10.85	20.09
12/02/2020 02:21:50	120220	12022020	022150	191.73	13.662862	-56.941007	191.73	-0.440	-0.900	3.340	191.59	-2.30	3.70	 	 	 	 	 	 	 	 	 	 	 	 	 	 	 	 	 	 	1581474110	10.90	20.19
12/02/2020 02:21:51	120220	12022020	022151	191.10	13.662813	-56.941025	191.15	-0.630	-0.770	3.860	191.00	-2.20	4.30	 	 	 	 	 	 	 	 	 	 	 	 	 	 	 	 	 	 	1581474111	10.90	20.19
12/02/2020 02:21:52	120220	12022020	022152	190.75	13.662765	-56.941043	190.90	-0.730	-0.520	3.780	190.71	-1.90	4.30	 	 	 	 	 	 	 	 	 	 	 	 	 	 	 	 	 	 	1581474112	11.00	20.37
12/02/2020 02:21:53	120220	12022020	022153	190.73	13.662718	-56.941060	191.00	-0.680	-0.100	3.230	190.78	-1.60	3.80	 	 	 	 	 	 	 	 	 	 	 	 	 	 	 	 	 	 	1581474113	10.98	20.33
12/02/2020 02:21:54	120220	12022020	022154	191.17	13.662672	-56.941073	191.50	-0.400	0.570	2.150	191.31	-0.90	2.80	 	 	 	 	 	 	 	 	 	 	 	 	 	 	 	 	 	 	1581474114	10.83	20.06
12/02/2020 02:21:55	120220	12022020	022155	191.95	13.662625	-56.941080	192.29	0.010	0.960	0.980	192.12	-0.40	1.60	 	 	 	 	 	 	 	 	 	 	 	 	 	 	 	 	 	 	1581474115	10.04	18.59
12/02/2020 02:21:56	120220	12022020	022156	192.71	13.662577	-56.941088	192.96	0.350	0.500	0.610	192.71	-0.80	1.10	 	 	 	 	 	 	 	 	 	 	 	 	 	 	 	 	 	 	1581474116	10.55	19.54
12/02/2020 02:21:57	120220	12022020	022157	193.05	13.662527	-56.941102	193.18	0.510	-0.560	1.050	193.06	-1.80	1.40	 	 	 	 	 	 	 	 	 	 	 	 	 	 	 	 	 	 	1581474117	10.55	19.54
12/02/2020 02:21:58	120220	12022020	022158	192.93	13.662477	-56.941118	192.98	0.560	-1.380	1.730	192.93	-2.70	2.10	 	 	 	 	 	 	 	 	 	 	 	 	 	 	 	 	 	 	1581474118	11.19	20.72
12/02/2020 02:21:59	120220	12022020	022159	192.56	13.662430	-56.941133	192.61	0.570	-1.340	2.280	192.49	-2.80	2.70	 	 	 	 	 	 	 	 	 	 	 	 	 	 	 	 	 	 	1581474119	10.57	19.58
12/02/2020 02:22:00	120220	12022020	022200	192.23	13.662387	-56.941145	192.33	0.440	-0.590	2.480	192.18	-2.10	2.90	 	 	 	 	 	 	 	 	 	 	 	 	 	 	 	 	 	 	1581474120	9.85	18.24
12/02/2020 02:22:01	120220	12022020	022201	192.05	13.662342	-56.941157	192.19	0.060	0.120	2.260	192.04	-1.30	2.80	1017.50	26.00	26.00	20.70	20.80	-1.0	72.0	73.0	394.0	25.6	267.00	10.10	72.00	11.70	15	7984.0	27.2	27.2	1581474121	9.85	18.24
12/02/2020 02:22:02	120220	12022020	022202	191.93	13.662295	-56.941168	192.06	-0.380	0.250	2.090	191.89	-1.10	2.60	 	 	 	 	 	 	 	 	 	 	 	 	 	 	 	 	 	 	1581474122	10.32	19.11
12/02/2020 02:22:03	120220	12022020	022203	191.70	13.662247	-56.941185	191.80	-0.500	-0.180	2.180	191.64	-1.50	2.60	 	 	 	 	 	 	 	 	 	 	 	 	 	 	 	 	 	 	1581474123	10.32	19.11
12/02/2020 02:22:04	120220	12022020	022204	191.39	13.662197	-56.941200	191.51	-0.190	-0.640	2.330	191.35	-2.00	2.80	 	 	 	 	 	 	 	 	 	 	 	 	 	 	 	 	 	 	1581474124	11.05	20.46
12/02/2020 02:22:05	120220	12022020	022205	191.24	13.662147	-56.941215	191.39	0.200	-0.740	2.360	191.22	-2.10	2.80	 	 	 	 	 	 	 	 	 	 	 	 	 	 	 	 	 	 	1581474125	11.38	21.08
12/02/2020 02:22:06	120220	12022020	022206	191.17	13.662098	-56.941228	191.32	0.270	-0.580	2.310	191.16	-2.00	2.80	 	 	 	 	 	 	 	 	 	 	 	 	 	 	 	 	 	 	1581474126	11.10	20.56
12/02/2020 02:22:07	120220	12022020	022207	191.12	13.662052	-56.941240	191.29	0.000	-0.280	2.120	191.13	-1.70	2.60	 	 	 	 	 	 	 	 	 	 	 	 	 	 	 	 	 	 	1581474127	10.71	19.83
12/02/2020 02:22:08	120220	12022020	022208	191.26	13.662005	-56.941252	191.47	-0.440	0.080	1.820	191.31	-1.40	2.30	 	 	 	 	 	 	 	 	 	 	 	 	 	 	 	 	 	 	1581474128	10.52	19.48
12/02/2020 02:22:09	120220	12022020	022209	191.54	13.661958	-56.941267	191.75	-0.770	0.160	1.790	191.60	-1.20	2.30	 	 	 	 	 	 	 	 	 	 	 	 	 	 	 	 	 	 	1581474129	10.38	19.22
12/02/2020 02:22:10	120220	12022020	022210	191.81	13.661910	-56.941282	191.99	-0.650	-0.290	1.810	191.84	-1.60	2.30	 	 	 	 	 	 	 	 	 	 	 	 	 	 	 	 	 	 	1581474130	10.38	19.22
12/02/2020 02:22:11	120220	12022020	022211	191.86	13.661860	-56.941298	191.97	-0.040	-0.790	1.830	191.84	-2.10	2.30	 	 	 	 	 	 	 	 	 	 	 	 	 	 	 	 	 	 	1581474131	11.25	20.84
12/02/2020 02:22:12	120220	12022020	022212	191.77	13.661812	-56.941310	191.93	0.580	-0.560	1.750	191.78	-2.10	2.30	 	 	 	 	 	 	 	 	 	 	 	 	 	 	 	 	 	 	1581474132	11.25	20.84
12/02/2020 02:22:13	120220	12022020	022213	191.97	13.661767	-56.941318	192.21	0.660	0.350	1.350	192.06	-1.20	1.90	 	 	 	 	 	 	 	 	 	 	 	 	 	 	 	 	 	 	1581474133	9.72	18.00
12/02/2020 02:22:14	120220	12022020	022214	192.39	13.661723	-56.941325	192.59	0.230	0.760	1.040	192.45	-0.60	1.50	 	 	 	 	 	 	 	 	 	 	 	 	 	 	 	 	 	 	1581474134	9.65	17.87
12/02/2020 02:22:15	120220	12022020	022215	192.55	13.661675	-56.941337	192.65	-0.150	0.080	1.260	192.52	-1.20	1.70	 	 	 	 	 	 	 	 	 	 	 	 	 	 	 	 	 	 	1581474135	9.65	17.87
12/02/2020 02:22:16	120220	12022020	022216	192.28	13.661623	-56.941353	192.33	-0.010	-0.970	1.670	192.21	-2.20	2.10	 	 	 	 	 	 	 	 	 	 	 	 	 	 	 	 	 	 	1581474136	10.72	19.85
12/02/2020 02:22:17	120220	12022020	022217	191.96	13.661572	-56.941368	192.04	0.460	-1.350	1.770	191.91	-2.70	2.20	 	 	 	 	 	 	 	 	 	 	 	 	 	 	 	 	 	 	1581474137	11.58	21.45
12/02/2020 02:22:18	120220	12022020	022218	191.75	13.661525	-56.941380	191.83	0.660	-0.950	1.730	191.71	-2.40	2.20	 	 	 	 	 	 	 	 	 	 	 	 	 	 	 	 	 	 	1581474138	11.23	20.80
12/02/2020 02:22:19	120220	12022020	022219	191.56	13.661480	-56.941390	191.65	0.340	-0.300	1.670	191.53	-1.80	2.10	 	 	 	 	 	 	 	 	 	 	 	 	 	 	 	 	 	 	1581474139	10.41	19.28
12/02/2020 02:22:20	120220	12022020	022220	191.40	13.661435	-56.941402	191.48	-0.260	0.060	1.760	191.36	-1.40	2.20	 	 	 	 	 	 	 	 	 	 	 	 	 	 	 	 	 	 	1581474140	10.01	18.54
12/02/2020 02:22:21	120220	12022020	022221	191.24	13.661387	-56.941417	191.34	-0.730	-0.110	1.990	191.21	-1.50	2.40	 	 	 	 	 	 	 	 	 	 	 	 	 	 	 	 	 	 	1581474141	10.18	18.85
12/02/2020 02:22:22	120220	12022020	022222	191.12	13.661337	-56.941435	191.24	-0.820	-0.620	2.220	191.10	-1.90	2.60	 	 	 	 	 	 	 	 	 	 	 	 	 	 	 	 	 	 	1581474142	10.78	19.96
12/02/2020 02:22:23	120220	12022020	022223	191.08	13.661285	-56.941452	191.24	-0.650	-0.950	2.440	191.09	-2.30	2.90	 	 	 	 	 	 	 	 	 	 	 	 	 	 	 	 	 	 	1581474143	11.37	21.06
12/02/2020 02:22:24	120220	12022020	022224	191.20	13.661237	-56.941470	191.40	-0.420	-0.760	2.500	191.23	-2.20	3.00	 	 	 	 	 	 	 	 	 	 	 	 	 	 	 	 	 	 	1581474144	11.47	21.24
12/02/2020 02:22:25	120220	12022020	022225	191.38	13.661192	-56.941483	191.56	-0.220	-0.240	2.250	191.42	-1.70	2.80	 	 	 	 	 	 	 	 	 	 	 	 	 	 	 	 	 	 	1581474145	10.99	20.35
12/02/2020 02:22:26	120220	12022020	022226	191.52	13.661143	-56.941497	191.68	0.020	0.240	1.840	191.54	-1.20	2.40	 	 	 	 	 	 	 	 	 	 	 	 	 	 	 	 	 	 	1581474146	10.41	19.28
12/02/2020 02:22:27	120220	12022020	022227	191.62	13.661097	-56.941507	191.78	0.370	0.590	1.450	191.66	-0.90	2.00	 	 	 	 	 	 	 	 	 	 	 	 	 	 	 	 	 	 	1581474147	10.41	19.28
12/02/2020 02:22:28	120220	12022020	022228	191.86	13.661048	-56.941513	192.07	0.710	0.860	1.100	191.93	-0.60	1.60	 	 	 	 	 	 	 	 	 	 	 	 	 	 	 	 	 	 	1581474148	10.47	19.39
12/02/2020 02:22:29	120220	12022020	022229	192.26	13.661000	-56.941520	192.48	0.830	0.720	0.940	192.34	-0.60	1.40	 	 	 	 	 	 	 	 	 	 	 	 	 	 	 	 	 	 	1581474149	10.37	19.21
12/02/2020 02:22:30	120220	12022020	022230	192.58	13.660952	-56.941528	192.74	0.710	-0.080	1.170	192.60	-1.30	1.60	 	 	 	 	 	 	 	 	 	 	 	 	 	 	 	 	 	 	1581474150	10.38	19.22
12/02/2020 02:22:31	120220	12022020	022231	192.45	13.660900	-56.941542	192.47	0.440	-1.260	2.090	192.34	-2.50	2.40	 	 	 	 	 	 	 	 	 	 	 	 	 	 	 	 	 	 	1581474151	10.82	20.04
12/02/2020 02:22:32	120220	12022020	022232	191.71	13.660848	-56.941560	191.64	0.080	-2.200	3.250	191.51	-3.50	3.60	 	 	 	 	 	 	 	 	 	 	 	 	 	 	 	 	 	 	1581474152	11.32	20.96
12/02/2020 02:22:33	120220	12022020	022233	190.72	13.660800	-56.941580	190.70	-0.330	-2.250	4.040	190.54	-3.70	4.40	 	 	 	 	 	 	 	 	 	 	 	 	 	 	 	 	 	 	1581474153	11.39	21.09
12/02/2020 02:22:34	120220	12022020	022234	189.96	13.660753	-56.941598	190.02	-0.690	-1.370	4.070	189.86	-2.90	4.60	 	 	 	 	 	 	 	 	 	 	 	 	 	 	 	 	 	 	1581474154	11.39	21.09
12/02/2020 02:22:35	120220	12022020	022235	189.61	13.660708	-56.941613	189.75	-0.810	-0.160	3.300	189.59	-1.70	3.90	 	 	 	 	 	 	 	 	 	 	 	 	 	 	 	 	 	 	1581474155	10.68	19.78
12/02/2020 02:22:36	120220	12022020	022236	189.80	13.660662	-56.941623	190.08	-0.690	0.730	2.060	189.91	-0.80	2.70	 	 	 	 	 	 	 	 	 	 	 	 	 	 	 	 	 	 	1581474156	10.20	18.89
12/02/2020 02:22:37	120220	12022020	022237	190.60	13.660613	-56.941632	190.95	-0.460	1.010	0.900	190.78	-0.40	1.50	 	 	 	 	 	 	 	 	 	 	 	 	 	 	 	 	 	 	1581474157	10.29	19.06
12/02/2020 02:22:38	120220	12022020	022238	191.54	13.660563	-56.941640	191.84	-0.100	0.680	0.200	191.71	-0.70	0.80	 	 	 	 	 	 	 	 	 	 	 	 	 	 	 	 	 	 	1581474158	10.60	19.63
12/02/2020 02:22:39	120220	12022020	022239	192.19	13.660512	-56.941650	192.39	0.370	0.040	0.160	192.26	-1.30	0.60	 	 	 	 	 	 	 	 	 	 	 	 	 	 	 	 	 	 	1581474159	11.16	20.67
12/02/2020 02:22:40	120220	12022020	022240	192.48	13.660462	-56.941658	192.66	0.660	-0.470	0.560	192.53	-1.80	1.00	 	 	 	 	 	 	 	 	 	 	 	 	 	 	 	 	 	 	1581474160	11.16	20.67
12/02/2020 02:22:41	120220	12022020	022241	192.71	13.660413	-56.941670	192.88	0.520	-0.670	1.080	192.75	-2.10	1.50	 	 	 	 	 	 	 	 	 	 	 	 	 	 	 	 	 	 	1581474161	11.04	20.45
12/02/2020 02:22:42	120220	12022020	022242	192.78	13.660367	-56.941683	192.90	0.120	-0.820	1.710	192.77	-2.20	2.10	 	 	 	 	 	 	 	 	 	 	 	 	 	 	 	 	 	 	1581474162	10.64	19.71
12/02/2020 02:22:43	120220	12022020	022243	192.62	13.660318	-56.941700	192.69	-0.120	-0.910	2.180	192.56	-2.30	2.60	 	 	 	 	 	 	 	 	 	 	 	 	 	 	 	 	 	 	1581474163	10.82	20.04
12/02/2020 02:22:44	120220	12022020	022244	192.35	13.660270	-56.941713	192.42	-0.120	-0.640	2.230	192.31	-2.10	2.70	 	 	 	 	 	 	 	 	 	 	 	 	 	 	 	 	 	 	1581474164	10.82	20.04
12/02/2020 02:22:45	120220	12022020	022245	192.14	13.660223	-56.941727	192.20	0.010	-0.240	1.800	192.10	-1.70	2.30	 	 	 	 	 	 	 	 	 	 	 	 	 	 	 	 	 	 	1581474165	10.54	19.52
12/02/2020 02:22:46	120220	12022020	022246	191.99	13.660173	-56.941737	192.07	0.110	0.010	1.210	191.97	-1.40	1.80	 	 	 	 	 	 	 	 	 	 	 	 	 	 	 	 	 	 	1581474166	10.54	19.52
12/02/2020 02:22:47	120220	12022020	022247	191.92	13.660125	-56.941747	192.03	0.070	0.070	0.880	191.92	-1.30	1.40	 	 	 	 	 	 	 	 	 	 	 	 	 	 	 	 	 	 	1581474167	10.72	19.85
12/02/2020 02:22:48	120220	12022020	022248	192.04	13.660075	-56.941760	192.21	-0.120	0.050	0.860	192.08	-1.30	1.30	 	 	 	 	 	 	 	 	 	 	 	 	 	 	 	 	 	 	1581474168	10.86	20.11
12/02/2020 02:22:49	120220	12022020	022249	192.37	13.660028	-56.941775	192.57	-0.320	-0.040	0.990	192.44	-1.40	1.40	 	 	 	 	 	 	 	 	 	 	 	 	 	 	 	 	 	 	1581474169	10.84	20.08
12/02/2020 02:22:50	120220	12022020	022250	192.79	13.659980	-56.941790	193.02	-0.380	-0.220	1.270	192.89	-1.60	1.70	 	 	 	 	 	 	 	 	 	 	 	 	 	 	 	 	 	 	1581474170	10.75	19.91
12/02/2020 02:22:51	120220	12022020	022251	193.25	13.659933	-56.941808	193.45	-0.340	-0.340	1.640	193.32	-1.70	2.00	 	 	 	 	 	 	 	 	 	 	 	 	 	 	 	 	 	 	1581474171	10.74	19.89
12/02/2020 02:22:52	120220	12022020	022252	193.38	13.659888	-56.941825	193.46	-0.210	-0.500	1.980	193.34	-1.90	2.40	 	 	 	 	 	 	 	 	 	 	 	 	 	 	 	 	 	 	1581474172	10.61	19.65
12/02/2020 02:22:53	120220	12022020	022253	193.01	13.659840	-56.941840	193.01	0.130	-0.840	2.100	192.91	-2.20	2.60	 	 	 	 	 	 	 	 	 	 	 	 	 	 	 	 	 	 	1581474173	10.53	19.50
12/02/2020 02:22:54	120220	12022020	022254	192.54	13.659790	-56.941853	192.62	0.540	-0.890	1.850	192.49	-2.30	2.40	 	 	 	 	 	 	 	 	 	 	 	 	 	 	 	 	 	 	1581474174	10.86	20.11
12/02/2020 02:22:55	120220	12022020	022255	192.55	13.659743	-56.941860	192.76	0.690	-0.230	1.110	192.62	-1.70	1.70	 	 	 	 	 	 	 	 	 	 	 	 	 	 	 	 	 	 	1581474175	10.96	20.30
12/02/2020 02:22:56	120220	12022020	022256	192.90	13.659697	-56.941865	193.08	0.530	0.290	0.370	192.97	-1.10	0.90	 	 	 	 	 	 	 	 	 	 	 	 	 	 	 	 	 	 	1581474176	10.29	19.06
12/02/2020 02:22:57	120220	12022020	022257	193.10	13.659647	-56.941875	193.19	0.300	-0.080	0.280	193.10	-1.40	0.70	 	 	 	 	 	 	 	 	 	 	 	 	 	 	 	 	 	 	1581474177	10.04	18.59
12/02/2020 02:22:58	120220	12022020	022258	193.01	13.659595	-56.941888	193.08	0.080	-0.770	0.990	192.98	-2.10	1.30	 	 	 	 	 	 	 	 	 	 	 	 	 	 	 	 	 	 	1581474178	10.89	20.17
12/02/2020 02:22:59	120220	12022020	022259	192.75	13.659545	-56.941907	192.78	-0.180	-1.090	2.060	192.67	-2.50	2.40	 	 	 	 	 	 	 	 	 	 	 	 	 	 	 	 	 	 	1581474179	11.56	21.41
12/02/2020 02:23:00	120220	12022020	022300	192.32	13.659497	-56.941927	192.34	-0.530	-0.930	3.100	192.21	-2.40	3.40	 	 	 	 	 	 	 	 	 	 	 	 	 	 	 	 	 	 	1581474180	11.43	21.17
12/02/2020 02:23:01	120220	12022020	022301	191.69	13.659450	-56.941950	191.71	-0.820	-0.470	3.970	191.56	-1.90	4.30	1017.40	26.10	26.20	20.70	20.80	-1.0	72.0	72.0	393.0	25.6	269.00	8.80	69.00	10.50	16	7952.0	27.2	27.2	1581474181	11.06	20.48
12/02/2020 02:23:02	120220	12022020	022302	191.05	13.659403	-56.941972	191.12	-0.790	0.060	4.150	190.97	-1.40	4.60	 	 	 	 	 	 	 	 	 	 	 	 	 	 	 	 	 	 	1581474182	11.06	20.48
12/02/2020 02:23:03	120220	12022020	022303	190.73	13.659357	-56.941987	190.88	-0.370	0.610	3.520	190.71	-0.80	4.10	 	 	 	 	 	 	 	 	 	 	 	 	 	 	 	 	 	 	1581474183	10.93	20.24
12/02/2020 02:23:04	120220	12022020	022304	190.78	13.659310	-56.941997	190.98	0.220	0.830	2.580	190.82	-0.60	3.20	 	 	 	 	 	 	 	 	 	 	 	 	 	 	 	 	 	 	1581474184	10.58	19.59
12/02/2020 02:23:05	120220	12022020	022305	191.12	13.659260	-56.942005	191.41	0.580	0.570	1.630	191.24	-0.80	2.20	 	 	 	 	 	 	 	 	 	 	 	 	 	 	 	 	 	 	1581474185	10.48	19.41
12/02/2020 02:23:06	120220	12022020	022306	191.76	13.659212	-56.942012	192.05	0.510	0.020	0.990	191.88	-1.30	1.50	 	 	 	 	 	 	 	 	 	 	 	 	 	 	 	 	 	 	1581474186	10.72	19.85
12/02/2020 02:23:07	120220	12022020	022307	192.25	13.659162	-56.942023	192.45	0.360	-0.780	0.930	192.30	-2.00	1.40	 	 	 	 	 	 	 	 	 	 	 	 	 	 	 	 	 	 	1581474187	10.68	19.78
12/02/2020 02:23:08	120220	12022020	022308	192.39	13.659112	-56.942035	192.53	0.520	-1.510	1.090	192.40	-2.80	1.50	 	 	 	 	 	 	 	 	 	 	 	 	 	 	 	 	 	 	1581474188	10.79	19.98
12/02/2020 02:23:09	120220	12022020	022309	192.48	13.659063	-56.942045	192.65	0.700	-1.620	1.370	192.51	-3.00	1.80	 	 	 	 	 	 	 	 	 	 	 	 	 	 	 	 	 	 	1581474189	11.01	20.39
12/02/2020 02:23:10	120220	12022020	022310	192.62	13.659017	-56.942057	192.77	0.460	-1.170	1.670	192.64	-2.60	2.10	 	 	 	 	 	 	 	 	 	 	 	 	 	 	 	 	 	 	1581474190	10.73	19.87
12/02/2020 02:23:11	120220	12022020	022311	192.64	13.658970	-56.942070	192.77	-0.120	-0.690	1.900	192.63	-2.10	2.30	 	 	 	 	 	 	 	 	 	 	 	 	 	 	 	 	 	 	1581474191	10.26	19.00
12/02/2020 02:23:12	120220	12022020	022312	192.61	13.658923	-56.942087	192.76	-0.700	-0.360	2.140	192.61	-1.80	2.60	 	 	 	 	 	 	 	 	 	 	 	 	 	 	 	 	 	 	1581474192	10.35	19.17
12/02/2020 02:23:13	120220	12022020	022313	192.60	13.658875	-56.942103	192.72	-0.890	-0.010	2.160	192.59	-1.40	2.60	 	 	 	 	 	 	 	 	 	 	 	 	 	 	 	 	 	 	1581474193	10.78	19.96
12/02/2020 02:23:14	120220	12022020	022314	192.47	13.658827	-56.942118	192.58	-0.600	0.160	1.950	192.44	-1.20	2.40	 	 	 	 	 	 	 	 	 	 	 	 	 	 	 	 	 	 	1581474194	10.92	20.22
12/02/2020 02:23:15	120220	12022020	022315	192.33	13.658775	-56.942132	192.49	-0.150	0.120	1.640	192.33	-1.30	2.20	 	 	 	 	 	 	 	 	 	 	 	 	 	 	 	 	 	 	1581474195	11.02	20.41
12/02/2020 02:23:16	120220	12022020	022316	192.48	13.658725	-56.942145	192.69	0.100	0.220	1.330	192.54	-1.20	1.80	 	 	 	 	 	 	 	 	 	 	 	 	 	 	 	 	 	 	1581474196	11.04	20.45
12/02/2020 02:23:17	120220	12022020	022317	192.71	13.658678	-56.942157	192.83	0.090	0.320	1.400	192.72	-1.10	1.80	 	 	 	 	 	 	 	 	 	 	 	 	 	 	 	 	 	 	1581474197	11.04	20.45
12/02/2020 02:23:18	120220	12022020	022318	192.58	13.658630	-56.942172	192.61	0.060	0.010	1.880	192.50	-1.30	2.30	 	 	 	 	 	 	 	 	 	 	 	 	 	 	 	 	 	 	1581474198	10.65	19.72
12/02/2020 02:23:19	120220	12022020	022319	192.23	13.658580	-56.942188	192.29	0.100	-0.340	2.360	192.17	-1.70	2.80	 	 	 	 	 	 	 	 	 	 	 	 	 	 	 	 	 	 	1581474199	10.89	20.17
12/02/2020 02:23:20	120220	12022020	022320	192.06	13.658533	-56.942203	192.22	0.090	-0.240	2.420	192.08	-1.70	2.90	 	 	 	 	 	 	 	 	 	 	 	 	 	 	 	 	 	 	1581474200	11.14	20.63
12/02/2020 02:23:21	120220	12022020	022321	192.32	13.658488	-56.942217	192.58	-0.020	0.220	2.000	192.43	-1.20	2.50	 	 	 	 	 	 	 	 	 	 	 	 	 	 	 	 	 	 	1581474201	10.66	19.74
12/02/2020 02:23:22	120220	12022020	022322	192.90	13.658443	-56.942228	193.18	0.000	0.310	1.390	193.03	-1.00	1.90	 	 	 	 	 	 	 	 	 	 	 	 	 	 	 	 	 	 	1581474202	9.97	18.46
12/02/2020 02:23:23	120220	12022020	022323	193.50	13.658395	-56.942240	193.74	0.260	-0.310	0.880	193.60	-1.60	1.40	 	 	 	 	 	 	 	 	 	 	 	 	 	 	 	 	 	 	1581474203	9.93	18.39
12/02/2020 02:23:24	120220	12022020	022324	193.86	13.658345	-56.942252	194.03	0.600	-1.190	0.940	193.86	-2.50	1.40	 	 	 	 	 	 	 	 	 	 	 	 	 	 	 	 	 	 	1581474204	10.59	19.61
12/02/2020 02:23:25	120220	12022020	022325	193.89	13.658295	-56.942265	193.99	0.700	-1.680	1.290	193.86	-3.00	1.70	 	 	 	 	 	 	 	 	 	 	 	 	 	 	 	 	 	 	1581474205	11.07	20.50
12/02/2020 02:23:26	120220	12022020	022326	193.65	13.658247	-56.942280	193.73	0.410	-1.610	1.730	193.59	-3.00	2.10	 	 	 	 	 	 	 	 	 	 	 	 	 	 	 	 	 	 	1581474206	11.07	20.50
12/02/2020 02:23:27	120220	12022020	022327	193.35	13.658200	-56.942295	193.45	-0.110	-1.170	2.230	193.29	-2.60	2.60	 	 	 	 	 	 	 	 	 	 	 	 	 	 	 	 	 	 	1581474207	10.76	19.93
12/02/2020 02:23:28	120220	12022020	022328	193.03	13.658153	-56.942312	193.11	-0.540	-0.570	2.550	192.95	-2.00	3.00	 	 	 	 	 	 	 	 	 	 	 	 	 	 	 	 	 	 	1581474208	10.69	19.80
12/02/2020 02:23:29	120220	12022020	022329	192.67	13.658103	-56.942328	192.77	-0.710	-0.060	2.510	192.62	-1.50	3.00	 	 	 	 	 	 	 	 	 	 	 	 	 	 	 	 	 	 	1581474209	10.79	19.98
12/02/2020 02:23:30	120220	12022020	022330	192.49	13.658055	-56.942343	192.63	-0.700	0.380	2.300	192.48	-1.10	2.80	 	 	 	 	 	 	 	 	 	 	 	 	 	 	 	 	 	 	1581474210	11.04	20.45
12/02/2020 02:23:31	120220	12022020	022331	192.53	13.658005	-56.942358	192.69	-0.560	0.750	1.870	192.56	-0.70	2.40	 	 	 	 	 	 	 	 	 	 	 	 	 	 	 	 	 	 	1581474211	11.01	20.39
12/02/2020 02:23:32	120220	12022020	022332	192.66	13.657955	-56.942370	192.79	-0.330	0.800	1.430	192.68	-0.60	1.90	 	 	 	 	 	 	 	 	 	 	 	 	 	 	 	 	 	 	1581474212	11.01	20.39
12/02/2020 02:23:33	120220	12022020	022333	192.68	13.657905	-56.942383	192.78	-0.000	0.430	1.400	192.66	-0.90	1.80	 	 	 	 	 	 	 	 	 	 	 	 	 	 	 	 	 	 	1581474213	10.97	20.32
12/02/2020 02:23:34	120220	12022020	022334	192.62	13.657853	-56.942397	192.78	0.180	-0.010	1.770	192.64	-1.40	2.20	 	 	 	 	 	 	 	 	 	 	 	 	 	 	 	 	 	 	1581474214	11.23	20.80
12/02/2020 02:23:35	120220	12022020	022335	192.87	13.657807	-56.942413	193.12	0.010	-0.090	2.150	192.96	-1.50	2.60	 	 	 	 	 	 	 	 	 	 	 	 	 	 	 	 	 	 	1581474215	11.25	20.84
12/02/2020 02:23:36	120220	12022020	022336	193.39	13.657763	-56.942430	193.69	-0.290	0.090	2.280	193.39	-1.30	2.80	 	 	 	 	 	 	 	 	 	 	 	 	 	 	 	 	 	 	1581474216	10.70	19.82
12/02/2020 02:23:37	120220	12022020	022337	193.96	13.657720	-56.942447	194.21	-0.170	-0.020	1.870	194.06	-1.30	2.40	 	 	 	 	 	 	 	 	 	 	 	 	 	 	 	 	 	 	1581474217	9.99	18.50
12/02/2020 02:23:38	120220	12022020	022338	194.24	13.657672	-56.942458	194.38	0.550	-0.840	1.300	194.24	-2.10	1.80	 	 	 	 	 	 	 	 	 	 	 	 	 	 	 	 	 	 	1581474218	9.99	18.50
12/02/2020 02:23:39	120220	12022020	022339	194.15	13.657620	-56.942470	194.26	1.280	-1.680	1.110	194.12	-3.00	1.60	 	 	 	 	 	 	 	 	 	 	 	 	 	 	 	 	 	 	1581474219	10.77	19.95
12/02/2020 02:23:40	120220	12022020	022340	194.01	13.657570	-56.942480	194.12	1.340	-1.760	1.080	193.98	-3.20	1.60	 	 	 	 	 	 	 	 	 	 	 	 	 	 	 	 	 	 	1581474220	11.33	20.98
12/02/2020 02:23:41	120220	12022020	022341	193.73	13.657523	-56.942493	193.76	0.730	-1.250	1.360	193.63	-2.70	1.80	 	 	 	 	 	 	 	 	 	 	 	 	 	 	 	 	 	 	1581474221	10.89	20.17
12/02/2020 02:23:42	120220	12022020	022342	193.09	13.657475	-56.942510	193.07	-0.010	-0.840	2.000	192.94	-2.30	2.40	 	 	 	 	 	 	 	 	 	 	 	 	 	 	 	 	 	 	1581474222	10.39	19.24
12/02/2020 02:23:43	120220	12022020	022343	192.54	13.657427	-56.942528	192.66	-0.560	-0.290	2.400	192.51	-1.80	2.80	 	 	 	 	 	 	 	 	 	 	 	 	 	 	 	 	 	 	1581474223	11.24	20.82
12/02/2020 02:23:44	120220	12022020	022344	192.68	13.657378	-56.942547	192.98	-0.900	0.590	2.300	192.81	-0.90	2.80	 	 	 	 	 	 	 	 	 	 	 	 	 	 	 	 	 	 	1581474224	11.24	20.82
12/02/2020 02:23:45	120220	12022020	022345	193.42	13.657333	-56.942563	193.77	-1.110	1.240	1.860	193.59	-0.20	2.40	 	 	 	 	 	 	 	 	 	 	 	 	 	 	 	 	 	 	1581474225	10.85	20.09
12/02/2020 02:23:46	120220	12022020	022346	194.20	13.657285	-56.942580	194.51	-1.110	1.080	1.570	194.33	-0.20	2.10	 	 	 	 	 	 	 	 	 	 	 	 	 	 	 	 	 	 	1581474226	10.55	19.54
12/02/2020 02:23:47	120220	12022020	022347	194.72	13.657235	-56.942598	194.95	-0.800	0.360	1.620	194.79	-0.90	2.10	 	 	 	 	 	 	 	 	 	 	 	 	 	 	 	 	 	 	1581474227	10.95	20.28
12/02/2020 02:23:48	120220	12022020	022348	194.87	13.657185	-56.942615	194.99	-0.250	-0.360	1.670	194.84	-1.70	2.10	 	 	 	 	 	 	 	 	 	 	 	 	 	 	 	 	 	 	1581474228	11.38	21.08
12/02/2020 02:23:49	120220	12022020	022349	194.67	13.657137	-56.942628	194.76	0.340	-0.860	1.630	194.61	-2.20	2.10	 	 	 	 	 	 	 	 	 	 	 	 	 	 	 	 	 	 	1581474229	11.24	20.82
12/02/2020 02:23:50	120220	12022020	022350	194.34	13.657088	-56.942642	194.42	0.710	-0.950	1.470	194.28	-2.40	2.00	 	 	 	 	 	 	 	 	 	 	 	 	 	 	 	 	 	 	1581474230	11.00	20.37
12/02/2020 02:23:51	120220	12022020	022351	194.01	13.657042	-56.942652	194.08	0.810	-0.660	1.160	193.94	-2.10	1.70	 	 	 	 	 	 	 	 	 	 	 	 	 	 	 	 	 	 	1581474231	10.67	19.76
12/02/2020 02:23:52	120220	12022020	022352	193.69	13.656995	-56.942662	193.79	0.790	-0.220	0.810	193.66	-1.70	1.40	 	 	 	 	 	 	 	 	 	 	 	 	 	 	 	 	 	 	1581474232	10.28	19.04
12/02/2020 02:23:53	120220	12022020	022353	193.69	13.656948	-56.942672	193.87	0.670	0.040	0.480	193.73	-1.30	1.00	 	 	 	 	 	 	 	 	 	 	 	 	 	 	 	 	 	 	1581474233	10.14	18.78
12/02/2020 02:23:54	120220	12022020	022354	193.85	13.656900	-56.942685	194.00	0.450	-0.340	0.870	193.86	-1.60	1.20	 	 	 	 	 	 	 	 	 	 	 	 	 	 	 	 	 	 	1581474234	10.76	19.93
12/02/2020 02:23:55	120220	12022020	022355	193.71	13.656850	-56.942705	193.81	0.210	-1.270	1.810	193.65	-2.50	2.10	 	 	 	 	 	 	 	 	 	 	 	 	 	 	 	 	 	 	1581474235	10.76	19.93
12/02/2020 02:23:56	120220	12022020	022356	193.33	13.656798	-56.942727	193.43	-0.080	-1.760	2.800	193.26	-3.10	3.10	 	 	 	 	 	 	 	 	 	 	 	 	 	 	 	 	 	 	1581474236	11.71	21.69
12/02/2020 02:23:57	120220	12022020	022357	192.98	13.656752	-56.942750	193.09	-0.530	-1.150	3.640	192.92	-2.70	4.00	 	 	 	 	 	 	 	 	 	 	 	 	 	 	 	 	 	 	1581474237	11.95	22.13
12/02/2020 02:23:58	120220	12022020	022358	192.70	13.656708	-56.942772	192.84	-1.000	0.070	3.870	192.65	-1.50	4.30	 	 	 	 	 	 	 	 	 	 	 	 	 	 	 	 	 	 	1581474238	11.17	20.69
12/02/2020 02:23:59	120220	12022020	022359	192.53	13.656663	-56.942788	192.73	-1.190	1.050	3.440	192.53	-0.40	4.00	 	 	 	 	 	 	 	 	 	 	 	 	 	 	 	 	 	 	1581474239	10.38	19.22
12/02/2020 02:24:00	120220	12022020	022400	192.66	13.656615	-56.942802	192.96	-0.940	1.420	2.480	192.74	0.00	3.10	 	 	 	 	 	 	 	 	 	 	 	 	 	 	 	 	 	 	1581474240	10.34	19.15
12/02/2020 02:24:01	120220	12022020	022401	193.17	13.656565	-56.942812	193.52	-0.320	1.210	1.320	193.31	-0.10	2.00	1017.40	26.00	26.10	20.50	20.70	-1.0	71.0	72.0	391.0	25.6	269.00	9.80	73.00	11.40	16	8293.0	27.2	27.2	1581474241	10.62	19.67
12/02/2020 02:24:02	120220	12022020	022402	193.90	13.656515	-56.942822	194.21	0.460	0.460	0.390	194.04	-0.80	1.00	 	 	 	 	 	 	 	 	 	 	 	 	 	 	 	 	 	 	1581474242	10.86	20.11
12/02/2020 02:24:03	120220	12022020	022403	194.41	13.656463	-56.942830	194.60	1.120	-0.630	0.130	194.45	-1.90	0.60	 	 	 	 	 	 	 	 	 	 	 	 	 	 	 	 	 	 	1581474243	11.06	20.48
12/02/2020 02:24:04	120220	12022020	022404	194.50	13.656413	-56.942842	194.63	1.410	-1.450	0.550	194.48	-2.80	0.90	 	 	 	 	 	 	 	 	 	 	 	 	 	 	 	 	 	 	1581474244	11.27	20.87
12/02/2020 02:24:05	120220	12022020	022405	194.39	13.656367	-56.942855	194.52	1.190	-1.430	1.240	194.36	-2.90	1.60	 	 	 	 	 	 	 	 	 	 	 	 	 	 	 	 	 	 	1581474245	10.38	19.22
12/02/2020 02:24:06	120220	12022020	022406	194.26	13.656323	-56.942870	194.38	0.560	-0.850	1.790	194.22	-2.30	2.20	 	 	 	 	 	 	 	 	 	 	 	 	 	 	 	 	 	 	1581474246	10.38	19.22
12/02/2020 02:24:07	120220	12022020	022407	194.08	13.656280	-56.942885	194.19	-0.150	-0.510	2.210	194.03	-1.90	2.60	 	 	 	 	 	 	 	 	 	 	 	 	 	 	 	 	 	 	1581474247	9.71	17.98
12/02/2020 02:24:08	120220	12022020	022408	193.77	13.656232	-56.942903	193.83	-0.620	-0.850	2.610	193.68	-2.10	3.00	 	 	 	 	 	 	 	 	 	 	 	 	 	 	 	 	 	 	1581474248	9.95	18.43
12/02/2020 02:24:09	120220	12022020	022409	193.21	13.656182	-56.942925	193.22	-0.730	-1.480	2.930	193.07	-2.80	3.30	 	 	 	 	 	 	 	 	 	 	 	 	 	 	 	 	 	 	1581474249	10.94	20.26
12/02/2020 02:24:10	120220	12022020	022410	192.50	13.656130	-56.942945	192.53	-0.690	-1.430	3.210	192.37	-2.90	3.60	 	 	 	 	 	 	 	 	 	 	 	 	 	 	 	 	 	 	1581474250	11.82	21.89
12/02/2020 02:24:11	120220	12022020	022411	191.96	13.656083	-56.942965	192.07	-0.730	-0.420	3.280	191.89	-2.00	3.80	 	 	 	 	 	 	 	 	 	 	 	 	 	 	 	 	 	 	1581474251	11.78	21.82
12/02/2020 02:24:12	120220	12022020	022412	191.82	13.656038	-56.942982	192.03	-0.790	0.900	2.930	191.86	-0.60	3.50	 	 	 	 	 	 	 	 	 	 	 	 	 	 	 	 	 	 	1581474252	10.94	20.26
12/02/2020 02:24:13	120220	12022020	022413	192.25	13.655992	-56.942995	192.61	-0.640	1.690	2.110	192.41	0.30	2.70	 	 	 	 	 	 	 	 	 	 	 	 	 	 	 	 	 	 	1581474253	10.32	19.11
12/02/2020 02:24:14	120220	12022020	022414	193.26	13.655943	-56.943007	193.72	-0.170	1.610	1.070	193.51	0.30	1.70	 	 	 	 	 	 	 	 	 	 	 	 	 	 	 	 	 	 	1581474254	10.34	19.15
12/02/2020 02:24:15	120220	12022020	022415	194.45	13.655892	-56.943017	194.86	0.510	0.760	0.390	194.66	-0.50	0.90	 	 	 	 	 	 	 	 	 	 	 	 	 	 	 	 	 	 	1581474255	10.76	19.93
12/02/2020 02:24:16	120220	12022020	022416	195.24	13.655842	-56.943027	195.51	1.130	-0.360	0.410	195.33	-1.60	0.80	 	 	 	 	 	 	 	 	 	 	 	 	 	 	 	 	 	 	1581474256	11.16	20.67
12/02/2020 02:24:17	120220	12022020	022417	195.54	13.655792	-56.943038	195.75	1.280	-1.110	0.930	195.55	-2.40	1.30	 	 	 	 	 	 	 	 	 	 	 	 	 	 	 	 	 	 	1581474257	11.26	20.85
12/02/2020 02:24:18	120220	12022020	022418	195.44	13.655747	-56.943053	195.56	0.840	-1.370	1.880	195.36	-2.70	2.20	 	 	 	 	 	 	 	 	 	 	 	 	 	 	 	 	 	 	1581474258	10.84	20.08
12/02/2020 02:24:19	120220	12022020	022419	194.88	13.655702	-56.943072	194.92	0.180	-1.430	2.870	194.72	-2.80	3.20	 	 	 	 	 	 	 	 	 	 	 	 	 	 	 	 	 	 	1581474259	10.23	18.95
12/02/2020 02:24:20	120220	12022020	022420	194.01	13.655657	-56.943092	194.01	-0.310	-1.340	3.510	193.82	-2.70	3.90	 	 	 	 	 	 	 	 	 	 	 	 	 	 	 	 	 	 	1581474260	10.24	18.96
12/02/2020 02:24:21	120220	12022020	022421	193.05	13.655612	-56.943110	193.04	-0.400	-1.120	3.630	192.86	-2.50	4.10	 	 	 	 	 	 	 	 	 	 	 	 	 	 	 	 	 	 	1581474261	10.51	19.46
12/02/2020 02:24:22	120220	12022020	022422	192.10	13.655563	-56.943127	192.12	-0.190	-0.850	3.400	191.94	-2.30	3.90	 	 	 	 	 	 	 	 	 	 	 	 	 	 	 	 	 	 	1581474262	10.69	19.80
12/02/2020 02:24:23	120220	12022020	022423	191.50	13.655515	-56.943142	191.64	-0.130	-0.310	2.860	191.45	-1.80	3.40	 	 	 	 	 	 	 	 	 	 	 	 	 	 	 	 	 	 	1581474263	10.93	20.24
12/02/2020 02:24:24	120220	12022020	022424	191.50	13.655468	-56.943157	191.75	-0.420	0.490	2.210	191.56	-1.00	2.80	 	 	 	 	 	 	 	 	 	 	 	 	 	 	 	 	 	 	1581474264	10.88	20.15
12/02/2020 02:24:25	120220	12022020	022425	191.97	13.655423	-56.943170	192.27	-0.740	1.000	1.630	192.10	-0.40	2.20	 	 	 	 	 	 	 	 	 	 	 	 	 	 	 	 	 	 	1581474265	10.41	19.28
12/02/2020 02:24:26	120220	12022020	022426	192.69	13.655375	-56.943185	193.02	-0.650	0.780	1.240	192.69	-0.50	1.80	 	 	 	 	 	 	 	 	 	 	 	 	 	 	 	 	 	 	1581474266	10.31	19.09
12/02/2020 02:24:27	120220	12022020	022427	193.51	13.655323	-56.943200	193.87	-0.090	0.030	1.090	193.68	-1.20	1.60	 	 	 	 	 	 	 	 	 	 	 	 	 	 	 	 	 	 	1581474267	10.78	19.96
12/02/2020 02:24:28	120220	12022020	022428	194.30	13.655273	-56.943212	194.57	0.570	-0.620	0.910	194.42	-1.90	1.40	 	 	 	 	 	 	 	 	 	 	 	 	 	 	 	 	 	 	1581474268	11.28	20.89
12/02/2020 02:24:29	120220	12022020	022429	194.79	13.655225	-56.943223	195.00	0.940	-0.780	0.860	194.84	-2.20	1.30	 	 	 	 	 	 	 	 	 	 	 	 	 	 	 	 	 	 	1581474269	11.19	20.72
12/02/2020 02:24:30	120220	12022020	022430	194.95	13.655178	-56.943232	195.08	0.880	-0.630	1.060	194.93	-2.00	1.50	 	 	 	 	 	 	 	 	 	 	 	 	 	 	 	 	 	 	1581474270	10.63	19.69
12/02/2020 02:24:31	120220	12022020	022431	194.67	13.655132	-56.943243	194.71	0.480	-0.610	1.700	194.56	-2.00	2.10	 	 	 	 	 	 	 	 	 	 	 	 	 	 	 	 	 	 	1581474271	10.14	18.78
12/02/2020 02:24:32	120220	12022020	022432	194.00	13.655085	-56.943260	193.98	-0.090	-0.830	2.600	193.83	-2.20	2.90	 	 	 	 	 	 	 	 	 	 	 	 	 	 	 	 	 	 	1581474272	10.27	19.02
12/02/2020 02:24:33	120220	12022020	022433	193.09	13.655037	-56.943282	193.08	-0.610	-0.910	3.390	192.91	-2.30	3.80	 	 	 	 	 	 	 	 	 	 	 	 	 	 	 	 	 	 	1581474273	10.80	20.00
12/02/2020 02:24:34	120220	12022020	022434	192.32	13.654992	-56.943303	192.40	-0.850	-0.410	3.620	192.21	-1.90	4.10	 	 	 	 	 	 	 	 	 	 	 	 	 	 	 	 	 	 	1581474274	11.17	20.69
12/02/2020 02:24:35	120220	12022020	022435	191.87	13.654947	-56.943322	191.96	-0.710	0.250	3.370	191.79	-1.20	3.90	 	 	 	 	 	 	 	 	 	 	 	 	 	 	 	 	 	 	1581474275	10.82	20.04
12/02/2020 02:24:36	120220	12022020	022436	191.61	13.654900	-56.943337	191.77	-0.220	0.550	2.620	191.61	-0.90	3.20	 	 	 	 	 	 	 	 	 	 	 	 	 	 	 	 	 	 	1581474276	10.35	19.17
12/02/2020 02:24:37	120220	12022020	022437	191.77	13.654852	-56.943347	192.01	0.320	0.500	1.610	191.86	-0.90	2.20	 	 	 	 	 	 	 	 	 	 	 	 	 	 	 	 	 	 	1581474277	10.50	19.45
12/02/2020 02:24:38	120220	12022020	022438	192.28	13.654803	-56.943355	192.55	0.570	0.170	0.970	192.40	-1.10	1.50	 	 	 	 	 	 	 	 	 	 	 	 	 	 	 	 	 	 	1581474278	10.67	19.76
12/02/2020 02:24:39	120220	12022020	022439	192.82	13.654755	-56.943368	193.06	0.460	-0.430	0.930	192.91	-1.70	1.40	 	 	 	 	 	 	 	 	 	 	 	 	 	 	 	 	 	 	1581474279	10.68	19.78
12/02/2020 02:24:40	120220	12022020	022440	193.17	13.654707	-56.943383	193.36	0.220	-1.010	1.370	193.21	-2.30	1.80	 	 	 	 	 	 	 	 	 	 	 	 	 	 	 	 	 	 	1581474280	10.76	19.93
12/02/2020 02:24:41	120220	12022020	022441	193.34	13.654660	-56.943400	193.54	0.120	-1.160	1.650	193.39	-2.50	2.10	 	 	 	 	 	 	 	 	 	 	 	 	 	 	 	 	 	 	1581474281	10.84	20.08
12/02/2020 02:24:42	120220	12022020	022442	193.60	13.654613	-56.943412	193.79	0.140	-0.810	1.520	193.64	-2.20	2.00	 	 	 	 	 	 	 	 	 	 	 	 	 	 	 	 	 	 	1581474282	10.64	19.71
12/02/2020 02:24:43	120220	12022020	022443	193.71	13.654568	-56.943423	193.81	0.140	-0.540	1.540	193.68	-1.90	2.00	 	 	 	 	 	 	 	 	 	 	 	 	 	 	 	 	 	 	1581474283	10.13	18.76
12/02/2020 02:24:44	120220	12022020	022444	193.42	13.654518	-56.943435	193.45	0.030	-0.680	1.810	193.32	-2.00	2.20	 	 	 	 	 	 	 	 	 	 	 	 	 	 	 	 	 	 	1581474284	10.17	18.83
12/02/2020 02:24:45	120220	12022020	022445	192.83	13.654468	-56.943450	192.84	-0.160	-0.950	2.360	192.71	-2.30	2.70	 	 	 	 	 	 	 	 	 	 	 	 	 	 	 	 	 	 	1581474285	10.83	20.06
12/02/2020 02:24:46	120220	12022020	022446	192.23	13.654418	-56.943467	192.28	-0.400	-0.770	2.950	192.12	-2.20	3.30	 	 	 	 	 	 	 	 	 	 	 	 	 	 	 	 	 	 	1581474286	11.37	21.06
12/02/2020 02:24:47	120220	12022020	022447	191.88	13.654372	-56.943485	192.03	-0.630	0.070	3.220	191.85	-1.50	3.70	 	 	 	 	 	 	 	 	 	 	 	 	 	 	 	 	 	 	1581474287	11.33	20.98
12/02/2020 02:24:48	120220	12022020	022448	191.88	13.654328	-56.943502	192.09	-0.730	1.110	3.030	191.90	-0.40	3.60	 	 	 	 	 	 	 	 	 	 	 	 	 	 	 	 	 	 	1581474288	10.69	19.80
12/02/2020 02:24:49	120220	12022020	022449	192.06	13.654283	-56.943515	192.25	-0.490	1.550	2.480	192.10	0.20	3.00	 	 	 	 	 	 	 	 	 	 	 	 	 	 	 	 	 	 	1581474289	10.07	18.65
12/02/2020 02:24:50	120220	12022020	022450	192.22	13.654235	-56.943527	192.40	0.060	1.010	1.890	192.25	-0.20	2.50	 	 	 	 	 	 	 	 	 	 	 	 	 	 	 	 	 	 	1581474290	10.11	18.72
12/02/2020 02:24:51	120220	12022020	022451	192.37	13.654182	-56.943537	192.57	0.620	-0.190	1.400	192.41	-1.40	2.00	 	 	 	 	 	 	 	 	 	 	 	 	 	 	 	 	 	 	1581474291	10.73	19.87
12/02/2020 02:24:52	120220	12022020	022452	192.54	13.654130	-56.943548	192.70	0.860	-1.320	1.270	192.56	-2.60	1.80	 	 	 	 	 	 	 	 	 	 	 	 	 	 	 	 	 	 	1581474292	11.37	21.06
12/02/2020 02:24:53	120220	12022020	022453	192.65	13.654082	-56.943562	192.82	0.720	-1.820	1.520	192.67	-3.20	2.00	 	 	 	 	 	 	 	 	 	 	 	 	 	 	 	 	 	 	1581474293	11.37	21.06
12/02/2020 02:24:54	120220	12022020	022454	192.90	13.654037	-56.943577	193.16	0.330	-1.350	1.760	192.99	-2.90	2.20	 	 	 	 	 	 	 	 	 	 	 	 	 	 	 	 	 	 	1581474294	10.92	20.22
12/02/2020 02:24:55	120220	12022020	022455	193.37	13.653995	-56.943590	193.60	-0.120	-0.370	1.740	193.44	-1.90	2.20	 	 	 	 	 	 	 	 	 	 	 	 	 	 	 	 	 	 	1581474295	10.09	18.69
12/02/2020 02:24:56	120220	12022020	022456	193.53	13.653952	-56.943602	193.66	-0.320	-0.020	1.680	193.51	-1.40	2.20	 	 	 	 	 	 	 	 	 	 	 	 	 	 	 	 	 	 	1581474296	9.36	17.33
12/02/2020 02:24:57	120220	12022020	022457	193.36	13.653902	-56.943617	193.44	-0.220	-0.520	1.740	193.31	-1.80	2.20	 	 	 	 	 	 	 	 	 	 	 	 	 	 	 	 	 	 	1581474297	9.88	18.30
12/02/2020 02:24:58	120220	12022020	022458	193.06	13.653848	-56.943632	193.13	-0.040	-1.040	1.870	192.99	-2.40	2.30	 	 	 	 	 	 	 	 	 	 	 	 	 	 	 	 	 	 	1581474298	11.14	20.63
12/02/2020 02:24:59	120220	12022020	022459	192.68	13.653798	-56.943647	192.74	0.030	-0.890	1.980	192.61	-2.40	2.40	 	 	 	 	 	 	 	 	 	 	 	 	 	 	 	 	 	 	1581474299	11.67	21.61
12/02/2020 02:25:00	120220	12022020	022500	192.38	13.653750	-56.943660	192.48	-0.110	-0.130	2.000	192.35	-1.60	2.50	 	 	 	 	 	 	 	 	 	 	 	 	 	 	 	 	 	 	1581474300	11.29	20.91
12/02/2020 02:25:01	120220	12022020	022501	192.39	13.653705	-56.943672	192.56	-0.410	0.730	1.860	192.43	-0.80	2.40	1017.50	26.10	26.10	20.50	20.60	-1.0	71.0	71.0	391.0	25.6	265.00	9.40	69.00	11.30	16	8716.0	27.2	27.2	1581474301	10.63	19.69
12/02/2020 02:25:02	120220	12022020	022502	192.63	13.653658	-56.943685	192.81	-0.640	1.120	1.750	192.68	-0.30	2.20	 	 	 	 	 	 	 	 	 	 	 	 	 	 	 	 	 	 	1581474302	10.28	19.04
12/02/2020 02:25:03	120220	12022020	022503	192.83	13.653610	-56.943700	192.96	-0.520	0.800	1.760	192.84	-0.50	2.20	 	 	 	 	 	 	 	 	 	 	 	 	 	 	 	 	 	 	1581474303	10.37	19.21
12/02/2020 02:25:04	120220	12022020	022504	192.83	13.653560	-56.943715	192.93	-0.020	-0.050	1.870	192.81	-1.30	2.30	 	 	 	 	 	 	 	 	 	 	 	 	 	 	 	 	 	 	1581474304	10.83	20.06
12/02/2020 02:25:05	120220	12022020	022505	192.70	13.653510	-56.943730	192.81	0.490	-0.730	2.020	192.68	-2.00	2.50	 	 	 	 	 	 	 	 	 	 	 	 	 	 	 	 	 	 	1581474305	11.31	20.95
12/02/2020 02:25:06	120220	12022020	022506	192.68	13.653462	-56.943742	192.86	0.620	-0.700	1.870	192.71	-2.10	2.40	 	 	 	 	 	 	 	 	 	 	 	 	 	 	 	 	 	 	1581474306	11.21	20.76
12/02/2020 02:25:07	120220	12022020	022507	192.92	13.653418	-56.943753	193.14	0.310	-0.280	1.530	192.99	-1.70	2.10	 	 	 	 	 	 	 	 	 	 	 	 	 	 	 	 	 	 	1581474307	10.42	19.30
12/02/2020 02:25:08	120220	12022020	022508	193.23	13.653375	-56.943765	193.40	-0.050	-0.270	1.350	193.26	-1.60	1.90	 	 	 	 	 	 	 	 	 	 	 	 	 	 	 	 	 	 	1581474308	9.86	18.26
12/02/2020 02:25:09	120220	12022020	022509	193.19	13.653327	-56.943780	193.24	0.030	-1.010	1.500	193.12	-2.30	1.90	 	 	 	 	 	 	 	 	 	 	 	 	 	 	 	 	 	 	1581474309	9.86	18.26
12/02/2020 02:25:10	120220	12022020	022510	192.73	13.653275	-56.943795	192.77	0.370	-1.690	1.890	192.64	-3.00	2.30	 	 	 	 	 	 	 	 	 	 	 	 	 	 	 	 	 	 	1581474310	10.88	20.15
12/02/2020 02:25:11	120220	12022020	022511	192.47	13.653225	-56.943810	192.66	0.270	-1.270	2.080	192.48	-2.80	2.60	 	 	 	 	 	 	 	 	 	 	 	 	 	 	 	 	 	 	1581474311	11.57	21.43
12/02/2020 02:25:12	120220	12022020	022512	192.71	13.653182	-56.943823	192.98	-0.360	-0.160	1.970	192.79	-1.70	2.50	 	 	 	 	 	 	 	 	 	 	 	 	 	 	 	 	 	 	1581474312	10.85	20.09
12/02/2020 02:25:13	120220	12022020	022513	193.10	13.653137	-56.943838	193.32	-0.920	0.530	1.870	193.15	-0.90	2.40	 	 	 	 	 	 	 	 	 	 	 	 	 	 	 	 	 	 	1581474313	9.90	18.33
12/02/2020 02:25:14	120220	12022020	022514	193.25	13.653088	-56.943857	193.40	-0.740	0.230	1.790	193.24	-1.10	2.30	 	 	 	 	 	 	 	 	 	 	 	 	 	 	 	 	 	 	1581474314	10.10	18.71
12/02/2020 02:25:15	120220	12022020	022515	193.17	13.653035	-56.943870	193.31	0.100	-0.310	1.590	193.15	-1.60	2.10	 	 	 	 	 	 	 	 	 	 	 	 	 	 	 	 	 	 	1581474315	11.19	20.72
12/02/2020 02:25:16	120220	12022020	022516	193.07	13.652983	-56.943880	193.22	0.790	-0.280	1.250	193.07	-1.70	1.80	 	 	 	 	 	 	 	 	 	 	 	 	 	 	 	 	 	 	1581474316	11.83	21.91
12/02/2020 02:25:17	120220	12022020	022517	193.12	13.652935	-56.943888	193.30	0.690	0.270	1.030	193.15	-1.20	1.50	 	 	 	 	 	 	 	 	 	 	 	 	 	 	 	 	 	 	1581474317	11.37	21.06
12/02/2020 02:25:18	120220	12022020	022518	193.31	13.652890	-56.943900	193.48	-0.060	0.760	1.330	193.33	-0.70	1.70	 	 	 	 	 	 	 	 	 	 	 	 	 	 	 	 	 	 	1581474318	10.50	19.45
12/02/2020 02:25:19	120220	12022020	022519	193.33	13.652845	-56.943917	193.40	-0.710	0.520	2.070	193.28	-0.80	2.40	 	 	 	 	 	 	 	 	 	 	 	 	 	 	 	 	 	 	1581474319	9.94	18.41
12/02/2020 02:25:20	120220	12022020	022520	192.90	13.652797	-56.943938	192.92	-0.730	-0.440	2.900	192.79	-1.70	3.30	 	 	 	 	 	 	 	 	 	 	 	 	 	 	 	 	 	 	1581474320	10.34	19.15
12/02/2020 02:25:21	120220	12022020	022521	192.47	13.652747	-56.943958	192.56	-0.330	-1.170	3.240	192.41	-2.50	3.70	 	 	 	 	 	 	 	 	 	 	 	 	 	 	 	 	 	 	1581474321	11.33	20.98
12/02/2020 02:25:22	120220	12022020	022522	192.32	13.652700	-56.943975	192.50	0.110	-1.040	2.890	192.32	-2.50	3.40	 	 	 	 	 	 	 	 	 	 	 	 	 	 	 	 	 	 	1581474322	11.46	21.22
12/02/2020 02:25:23	120220	12022020	022523	192.45	13.652657	-56.943988	192.67	0.420	-0.360	2.020	192.50	-1.90	2.60	 	 	 	 	 	 	 	 	 	 	 	 	 	 	 	 	 	 	1581474323	10.57	19.58
12/02/2020 02:25:24	120220	12022020	022524	192.71	13.652612	-56.943995	192.92	0.660	0.100	1.040	192.77	-1.30	1.70	 	 	 	 	 	 	 	 	 	 	 	 	 	 	 	 	 	 	1581474324	9.74	18.04
12/02/2020 02:25:25	120220	12022020	022525	193.06	13.652563	-56.944002	193.28	0.790	-0.060	0.410	193.14	-1.40	0.90	 	 	 	 	 	 	 	 	 	 	 	 	 	 	 	 	 	 	1581474325	9.77	18.09
12/02/2020 02:25:26	120220	12022020	022526	193.38	13.652513	-56.944010	193.54	0.680	-0.750	0.500	193.40	-2.00	0.90	 	 	 	 	 	 	 	 	 	 	 	 	 	 	 	 	 	 	1581474326	10.44	19.33
12/02/2020 02:25:27	120220	12022020	022527	193.27	13.652462	-56.944025	193.31	0.340	-1.580	1.290	193.18	-2.90	1.60	 	 	 	 	 	 	 	 	 	 	 	 	 	 	 	 	 	 	1581474327	11.06	20.48
12/02/2020 02:25:28	120220	12022020	022528	192.73	13.652412	-56.944045	192.75	-0.120	-1.840	2.340	192.61	-3.20	2.70	 	 	 	 	 	 	 	 	 	 	 	 	 	 	 	 	 	 	1581474328	11.56	21.41
12/02/2020 02:25:29	120220	12022020	022529	192.15	13.652363	-56.944065	192.21	-0.550	-1.150	3.140	192.05	-2.70	3.50	 	 	 	 	 	 	 	 	 	 	 	 	 	 	 	 	 	 	1581474329	11.60	21.48
12/02/2020 02:25:30	120220	12022020	022530	191.78	13.652318	-56.944082	191.94	-0.830	0.140	3.210	191.76	-1.40	3.70	 	 	 	 	 	 	 	 	 	 	 	 	 	 	 	 	 	 	1581474330	11.03	20.43
12/02/2020 02:25:31	120220	12022020	022531	191.83	13.652273	-56.944095	192.08	-0.950	1.120	2.670	191.88	-0.40	3.30	 	 	 	 	 	 	 	 	 	 	 	 	 	 	 	 	 	 	1581474331	10.31	19.09
12/02/2020 02:25:32	120220	12022020	022532	192.23	13.652223	-56.944107	192.51	-0.910	1.280	1.930	192.32	-0.10	2.50	 	 	 	 	 	 	 	 	 	 	 	 	 	 	 	 	 	 	1581474332	10.26	19.00
12/02/2020 02:25:33	120220	12022020	022533	192.74	13.652173	-56.944120	192.99	-0.620	0.780	1.250	192.83	-0.50	1.80	 	 	 	 	 	 	 	 	 	 	 	 	 	 	 	 	 	 	1581474333	10.75	19.91
12/02/2020 02:25:34	120220	12022020	022534	193.14	13.652123	-56.944132	193.36	-0.060	0.150	0.810	193.21	-1.20	1.30	 	 	 	 	 	 	 	 	 	 	 	 	 	 	 	 	 	 	1581474334	11.19	20.72
12/02/2020 02:25:35	120220	12022020	022535	193.45	13.652075	-56.944143	193.64	0.450	-0.250	0.790	193.49	-1.60	1.30	 	 	 	 	 	 	 	 	 	 	 	 	 	 	 	 	 	 	1581474335	11.19	20.72
12/02/2020 02:25:36	120220	12022020	022536	193.60	13.652028	-56.944157	193.76	0.760	-0.460	0.930	193.61	-1.80	1.40	 	 	 	 	 	 	 	 	 	 	 	 	 	 	 	 	 	 	1581474336	10.75	19.91
12/02/2020 02:25:37	120220	12022020	022537	193.62	13.651982	-56.944170	193.79	0.910	-0.570	0.970	193.64	-1.90	1.50	 	 	 	 	 	 	 	 	 	 	 	 	 	 	 	 	 	 	1581474337	10.39	19.24
12/02/2020 02:25:38	120220	12022020	022538	193.76	13.651935	-56.944180	193.96	0.920	-0.550	0.870	193.80	-1.90	1.40	 	 	 	 	 	 	 	 	 	 	 	 	 	 	 	 	 	 	1581474338	10.30	19.08
12/02/2020 02:25:39	120220	12022020	022539	193.96	13.651888	-56.944192	194.13	0.720	-0.510	0.890	193.98	-1.90	1.40	 	 	 	 	 	 	 	 	 	 	 	 	 	 	 	 	 	 	1581474339	10.21	18.91
12/02/2020 02:25:40	120220	12022020	022540	193.90	13.651842	-56.944205	193.98	0.290	-0.770	1.280	193.84	-2.10	1.70	 	 	 	 	 	 	 	 	 	 	 	 	 	 	 	 	 	 	1581474340	10.14	18.78
12/02/2020 02:25:41	120220	12022020	022541	193.47	13.651793	-56.944223	193.51	-0.210	-1.280	2.010	193.35	-2.60	2.40	 	 	 	 	 	 	 	 	 	 	 	 	 	 	 	 	 	 	1581474341	10.50	19.45
12/02/2020 02:25:42	120220	12022020	022542	192.85	13.651745	-56.944245	192.90	-0.550	-1.630	2.690	192.72	-3.00	3.10	 	 	 	 	 	 	 	 	 	 	 	 	 	 	 	 	 	 	1581474342	11.12	20.59
12/02/2020 02:25:43	120220	12022020	022543	192.28	13.651697	-56.944265	192.38	-0.590	-1.290	2.770	192.20	-2.80	3.30	 	 	 	 	 	 	 	 	 	 	 	 	 	 	 	 	 	 	1581474343	11.54	21.37
12/02/2020 02:25:44	120220	12022020	022544	192.04	13.651650	-56.944280	192.22	-0.480	-0.230	2.280	192.04	-1.80	2.90	 	 	 	 	 	 	 	 	 	 	 	 	 	 	 	 	 	 	1581474344	11.27	20.87
12/02/2020 02:25:45	120220	12022020	022545	192.22	13.651603	-56.944292	192.46	-0.370	0.820	1.490	192.30	-0.70	2.10	 	 	 	 	 	 	 	 	 	 	 	 	 	 	 	 	 	 	1581474345	10.50	19.45
12/02/2020 02:25:46	120220	12022020	022546	192.57	13.651555	-56.944300	192.76	-0.250	0.990	0.980	192.62	-0.40	1.50	 	 	 	 	 	 	 	 	 	 	 	 	 	 	 	 	 	 	1581474346	10.12	18.74
12/02/2020 02:25:47	120220	12022020	022547	192.71	13.651502	-56.944312	192.87	-0.000	0.270	1.080	192.72	-1.00	1.50	 	 	 	 	 	 	 	 	 	 	 	 	 	 	 	 	 	 	1581474347	10.65	19.72
12/02/2020 02:25:48	120220	12022020	022548	192.73	13.651450	-56.944325	192.89	0.260	-0.400	1.580	192.73	-1.70	2.00	 	 	 	 	 	 	 	 	 	 	 	 	 	 	 	 	 	 	1581474348	11.55	21.39
12/02/2020 02:25:49	120220	12022020	022549	192.72	13.651402	-56.944340	192.90	0.200	-0.370	2.190	192.72	-1.80	2.60	 	 	 	 	 	 	 	 	 	 	 	 	 	 	 	 	 	 	1581474349	11.67	21.61
12/02/2020 02:25:50	120220	12022020	022550	192.72	13.651357	-56.944357	192.91	-0.200	-0.000	2.670	192.72	-1.40	3.10	 	 	 	 	 	 	 	 	 	 	 	 	 	 	 	 	 	 	1581474350	10.84	20.08
12/02/2020 02:25:51	120220	12022020	022551	192.73	13.651312	-56.944373	192.94	-0.570	0.170	2.830	192.73	-1.20	3.30	 	 	 	 	 	 	 	 	 	 	 	 	 	 	 	 	 	 	1581474351	10.20	18.89
12/02/2020 02:25:52	120220	12022020	022552	192.81	13.651267	-56.944392	193.03	-0.430	-0.020	2.420	192.83	-1.30	3.00	 	 	 	 	 	 	 	 	 	 	 	 	 	 	 	 	 	 	1581474352	10.24	18.96
12/02/2020 02:25:53	120220	12022020	022553	192.90	13.651218	-56.944403	193.09	0.290	-0.410	1.570	192.91	-1.70	2.20	 	 	 	 	 	 	 	 	 	 	 	 	 	 	 	 	 	 	1581474353	10.53	19.50
12/02/2020 02:25:54	120220	12022020	022554	192.99	13.651168	-56.944410	193.17	1.070	-0.690	0.690	193.02	-2.00	1.30	 	 	 	 	 	 	 	 	 	 	 	 	 	 	 	 	 	 	1581474354	10.75	19.91
12/02/2020 02:25:55	120220	12022020	022555	193.06	13.651120	-56.944417	193.19	1.230	-0.700	0.420	193.05	-2.10	0.90	 	 	 	 	 	 	 	 	 	 	 	 	 	 	 	 	 	 	1581474355	10.79	19.98
12/02/2020 02:25:56	120220	12022020	022556	192.86	13.651072	-56.944427	192.94	0.680	-0.750	0.770	192.81	-2.10	1.20	 	 	 	 	 	 	 	 	 	 	 	 	 	 	 	 	 	 	1581474356	10.48	19.41
12/02/2020 02:25:57	120220	12022020	022557	192.56	13.651025	-56.944443	192.68	-0.160	-0.880	1.460	192.53	-2.20	1.80	 	 	 	 	 	 	 	 	 	 	 	 	 	 	 	 	 	 	1581474357	10.45	19.35
12/02/2020 02:25:58	120220	12022020	022558	192.34	13.650977	-56.944463	192.47	-0.700	-0.950	2.280	192.29	-2.30	2.60	 	 	 	 	 	 	 	 	 	 	 	 	 	 	 	 	 	 	1581474358	10.78	19.96
12/02/2020 02:25:59	120220	12022020	022559	192.03	13.650928	-56.944483	192.14	-0.710	-0.830	2.900	191.95	-2.20	3.30	 	 	 	 	 	 	 	 	 	 	 	 	 	 	 	 	 	 	1581474359	11.08	20.52
12/02/2020 02:26:00	120220	12022020	022600	191.73	13.650882	-56.944502	191.89	-0.410	-0.380	2.960	191.71	-1.80	3.50	 	 	 	 	 	 	 	 	 	 	 	 	 	 	 	 	 	 	1581474360	11.19	20.72
12/02/2020 02:26:01	120220	12022020	022601	191.78	13.650833	-56.944515	192.04	-0.160	0.280	2.460	191.84	-1.20	3.10	1017.50	26.10	26.10	20.70	20.80	-1.0	72.0	72.0	390.0	25.6	264.00	10.20	70.00	12.10	16	8183.0	27.2	27.2	1581474361	10.99	20.35
12/02/2020 02:26:02	120220	12022020	022602	192.22	13.650787	-56.944525	192.54	-0.080	0.820	1.680	192.35	-0.60	2.30	 	 	 	 	 	 	 	 	 	 	 	 	 	 	 	 	 	 	1581474362	10.64	19.71
12/02/2020 02:26:03	120220	12022020	022603	192.92	13.650737	-56.944533	193.24	-0.010	0.780	1.020	193.06	-0.50	1.60	 	 	 	 	 	 	 	 	 	 	 	 	 	 	 	 	 	 	1581474363	10.41	19.28
12/02/2020 02:26:04	120220	12022020	022604	193.50	13.650687	-56.944543	193.72	0.220	0.020	0.800	193.57	-1.20	1.30	 	 	 	 	 	 	 	 	 	 	 	 	 	 	 	 	 	 	1581474364	10.59	19.61
12/02/2020 02:26:05	120220	12022020	022605	193.65	13.650635	-56.944557	193.78	0.460	-0.910	1.140	193.64	-2.20	1.60	 	 	 	 	 	 	 	 	 	 	 	 	 	 	 	 	 	 	1581474365	11.16	20.67
12/02/2020 02:26:06	120220	12022020	022606	193.56	13.650585	-56.944572	193.71	0.330	-1.120	1.770	193.56	-2.50	2.20	 	 	 	 	 	 	 	 	 	 	 	 	 	 	 	 	 	 	1581474366	11.50	21.30
12/02/2020 02:26:07	120220	12022020	022607	193.49	13.650542	-56.944588	193.66	-0.180	-0.630	2.240	193.48	-2.10	2.70	 	 	 	 	 	 	 	 	 	 	 	 	 	 	 	 	 	 	1581474367	10.97	20.32
12/02/2020 02:26:08	120220	12022020	022608	193.38	13.650498	-56.944607	193.50	-0.670	-0.130	2.440	193.33	-1.50	2.90	 	 	 	 	 	 	 	 	 	 	 	 	 	 	 	 	 	 	1581474368	10.13	18.76
12/02/2020 02:26:09	120220	12022020	022609	193.10	13.650452	-56.944623	193.21	-0.630	-0.180	2.370	193.04	-1.50	2.90	 	 	 	 	 	 	 	 	 	 	 	 	 	 	 	 	 	 	1581474369	9.99	18.50
12/02/2020 02:26:10	120220	12022020	022610	192.80	13.650402	-56.944638	192.92	0.000	-0.560	1.950	192.76	-1.90	2.50	 	 	 	 	 	 	 	 	 	 	 	 	 	 	 	 	 	 	1581474370	10.58	19.59
12/02/2020 02:26:11	120220	12022020	022611	192.64	13.650352	-56.944650	192.80	0.710	-0.690	1.330	192.63	-2.10	1.90	 	 	 	 	 	 	 	 	 	 	 	 	 	 	 	 	 	 	1581474371	11.21	20.76
12/02/2020 02:26:12	120220	12022020	022612	192.70	13.650302	-56.944658	192.91	0.930	-0.310	0.750	192.74	-1.80	1.30	 	 	 	 	 	 	 	 	 	 	 	 	 	 	 	 	 	 	1581474372	11.22	20.78
12/02/2020 02:26:13	120220	12022020	022613	192.97	13.650255	-56.944665	193.21	0.550	0.200	0.490	193.03	-1.20	1.00	 	 	 	 	 	 	 	 	 	 	 	 	 	 	 	 	 	 	1581474373	10.68	19.78
12/02/2020 02:26:14	120220	12022020	022614	193.20	13.650208	-56.944677	193.36	-0.060	0.140	0.990	193.20	-1.20	1.40	 	 	 	 	 	 	 	 	 	 	 	 	 	 	 	 	 	 	1581474374	10.21	18.91
12/02/2020 02:26:15	120220	12022020	022615	193.04	13.650158	-56.944697	193.13	-0.460	-0.680	2.150	192.97	-1.90	2.50	 	 	 	 	 	 	 	 	 	 	 	 	 	 	 	 	 	 	1581474375	10.49	19.43
12/02/2020 02:26:16	120220	12022020	022616	192.60	13.650107	-56.944720	192.70	-0.500	-1.380	3.130	192.53	-2.70	3.50	 	 	 	 	 	 	 	 	 	 	 	 	 	 	 	 	 	 	1581474376	11.50	21.30
12/02/2020 02:26:17	120220	12022020	022617	192.37	13.650058	-56.944738	192.56	-0.430	-0.890	3.280	192.38	-2.40	3.80	 	 	 	 	 	 	 	 	 	 	 	 	 	 	 	 	 	 	1581474377	12.04	22.30
12/02/2020 02:26:18	120220	12022020	022618	192.52	13.650017	-56.944753	192.75	-0.470	0.440	2.790	192.56	-1.10	3.40	 	 	 	 	 	 	 	 	 	 	 	 	 	 	 	 	 	 	1581474378	11.02	20.41
12/02/2020 02:26:19	120220	12022020	022619	192.72	13.649973	-56.944763	192.90	-0.420	1.040	2.060	192.74	-0.30	2.70	 	 	 	 	 	 	 	 	 	 	 	 	 	 	 	 	 	 	1581474379	9.57	17.72
12/02/2020 02:26:20	120220	12022020	022620	192.76	13.649922	-56.944775	192.92	-0.050	0.360	1.460	192.75	-0.90	2.00	 	 	 	 	 	 	 	 	 	 	 	 	 	 	 	 	 	 	1581474380	9.69	17.95
12/02/2020 02:26:21	120220	12022020	022621	192.71	13.649870	-56.944787	192.87	0.450	-0.650	1.270	192.70	-1.90	1.80	 	 	 	 	 	 	 	 	 	 	 	 	 	 	 	 	 	 	1581474381	11.01	20.39
12/02/2020 02:26:22	120220	12022020	022622	192.74	13.649820	-56.944798	192.96	0.640	-0.930	1.280	192.76	-2.30	1.80	 	 	 	 	 	 	 	 	 	 	 	 	 	 	 	 	 	 	1581474382	11.70	21.67
12/02/2020 02:26:23	120220	12022020	022623	192.90	13.649773	-56.944810	193.14	0.430	-0.490	1.280	192.95	-1.90	1.80	 	 	 	 	 	 	 	 	 	 	 	 	 	 	 	 	 	 	1581474383	11.07	20.50
12/02/2020 02:26:24	120220	12022020	022624	193.10	13.649730	-56.944823	193.32	0.090	-0.110	1.320	193.13	-1.50	1.80	 	 	 	 	 	 	 	 	 	 	 	 	 	 	 	 	 	 	1581474384	10.08	18.67
12/02/2020 02:26:25	120220	12022020	022625	193.21	13.649682	-56.944837	193.38	-0.040	-0.280	1.450	193.21	-1.60	1.90	 	 	 	 	 	 	 	 	 	 	 	 	 	 	 	 	 	 	1581474385	9.92	18.37
12/02/2020 02:26:26	120220	12022020	022626	193.12	13.649632	-56.944850	193.25	0.030	-0.810	1.680	193.07	-2.10	2.10	 	 	 	 	 	 	 	 	 	 	 	 	 	 	 	 	 	 	1581474386	10.54	19.52
12/02/2020 02:26:27	120220	12022020	022627	192.86	13.649580	-56.944865	192.96	0.090	-1.180	1.910	192.79	-2.50	2.40	 	 	 	 	 	 	 	 	 	 	 	 	 	 	 	 	 	 	1581474387	11.20	20.74
12/02/2020 02:26:28	120220	12022020	022628	192.60	13.649532	-56.944880	192.77	0.000	-0.980	1.970	192.59	-2.40	2.50	 	 	 	 	 	 	 	 	 	 	 	 	 	 	 	 	 	 	1581474388	11.42	21.15
12/02/2020 02:26:29	120220	12022020	022629	192.65	13.649483	-56.944893	192.89	-0.210	-0.200	1.700	192.70	-1.70	2.20	 	 	 	 	 	 	 	 	 	 	 	 	 	 	 	 	 	 	1581474389	11.13	20.61
12/02/2020 02:26:30	120220	12022020	022630	192.94	13.649438	-56.944905	193.19	-0.400	0.580	1.260	193.01	-0.90	1.80	 	 	 	 	 	 	 	 	 	 	 	 	 	 	 	 	 	 	1581474390	10.54	19.52
12/02/2020 02:26:31	120220	12022020	022631	193.23	13.649390	-56.944917	193.46	-0.430	0.710	0.990	193.29	-0.60	1.50	 	 	 	 	 	 	 	 	 	 	 	 	 	 	 	 	 	 	1581474391	10.22	18.93
12/02/2020 02:26:32	120220	12022020	022632	193.55	13.649340	-56.944932	193.79	-0.350	0.360	1.040	193.62	-0.90	1.50	 	 	 	 	 	 	 	 	 	 	 	 	 	 	 	 	 	 	1581474392	10.68	19.78
12/02/2020 02:26:33	120220	12022020	022633	193.76	13.649290	-56.944948	193.90	-0.250	-0.180	1.500	193.75	-1.50	1.90	 	 	 	 	 	 	 	 	 	 	 	 	 	 	 	 	 	 	1581474393	11.09	20.54
12/02/2020 02:26:34	120220	12022020	022634	193.48	13.649242	-56.944967	193.50	-0.060	-0.850	2.100	193.38	-2.10	2.50	 	 	 	 	 	 	 	 	 	 	 	 	 	 	 	 	 	 	1581474394	11.09	20.54
12/02/2020 02:26:35	120220	12022020	022635	192.79	13.649192	-56.944983	192.77	0.280	-1.170	2.550	192.64	-2.50	3.00	 	 	 	 	 	 	 	 	 	 	 	 	 	 	 	 	 	 	1581474395	11.25	20.84
12/02/2020 02:26:36	120220	12022020	022636	192.19	13.649145	-56.944998	192.30	0.540	-0.700	2.500	192.13	-2.20	3.00	 	 	 	 	 	 	 	 	 	 	 	 	 	 	 	 	 	 	1581474396	11.22	20.78
12/02/2020 02:26:37	120220	12022020	022637	192.10	13.649100	-56.945008	192.30	0.490	0.160	1.920	192.12	-1.30	2.50	 	 	 	 	 	 	 	 	 	 	 	 	 	 	 	 	 	 	1581474397	10.58	19.59
12/02/2020 02:26:38	120220	12022020	022638	192.36	13.649055	-56.945018	192.63	0.200	0.540	1.340	192.44	-0.80	1.90	 	 	 	 	 	 	 	 	 	 	 	 	 	 	 	 	 	 	1581474398	9.90	18.33
12/02/2020 02:26:39	120220	12022020	022639	192.91	13.649007	-56.945030	193.23	-0.090	0.260	0.960	193.04	-1.00	1.50	 	 	 	 	 	 	 	 	 	 	 	 	 	 	 	 	 	 	1581474399	10.08	18.67
12/02/2020 02:26:40	120220	12022020	022640	193.53	13.648957	-56.945043	193.81	-0.140	-0.300	0.900	193.63	-1.60	1.40	 	 	 	 	 	 	 	 	 	 	 	 	 	 	 	 	 	 	1581474400	10.71	19.83
12/02/2020 02:26:41	120220	12022020	022641	193.96	13.648907	-56.945058	194.20	0.090	-0.850	0.990	194.01	-2.10	1.50	 	 	 	 	 	 	 	 	 	 	 	 	 	 	 	 	 	 	1581474401	11.03	20.43
12/02/2020 02:26:42	120220	12022020	022642	194.13	13.648857	-56.945072	194.32	0.350	-1.220	1.260	194.12	-2.50	1.70	 	 	 	 	 	 	 	 	 	 	 	 	 	 	 	 	 	 	1581474402	11.12	20.59
12/02/2020 02:26:43	120220	12022020	022643	194.05	13.648807	-56.945085	194.23	0.330	-1.240	1.680	194.03	-2.60	2.10	 	 	 	 	 	 	 	 	 	 	 	 	 	 	 	 	 	 	1581474403	11.11	20.58
12/02/2020 02:26:44	120220	12022020	022644	193.84	13.648760	-56.945098	193.96	-0.030	-0.880	2.110	193.76	-2.30	2.50	 	 	 	 	 	 	 	 	 	 	 	 	 	 	 	 	 	 	1581474404	10.99	20.35
12/02/2020 02:26:45	120220	12022020	022645	193.31	13.648712	-56.945115	193.35	-0.460	-0.490	2.670	193.17	-1.90	3.10	 	 	 	 	 	 	 	 	 	 	 	 	 	 	 	 	 	 	1581474405	10.71	19.83
12/02/2020 02:26:46	120220	12022020	022646	192.60	13.648663	-56.945133	192.69	-0.720	-0.160	3.010	192.50	-1.60	3.50	 	 	 	 	 	 	 	 	 	 	 	 	 	 	 	 	 	 	1581474406	10.79	19.98
12/02/2020 02:26:47	120220	12022020	022647	192.16	13.648615	-56.945152	192.32	-0.780	0.350	2.920	192.11	-1.10	3.40	 	 	 	 	 	 	 	 	 	 	 	 	 	 	 	 	 	 	1581474407	11.12	20.59
12/02/2020 02:26:48	120220	12022020	022648	192.05	13.648568	-56.945167	192.26	-0.530	0.750	2.400	192.05	-0.60	3.00	 	 	 	 	 	 	 	 	 	 	 	 	 	 	 	 	 	 	1581474408	10.91	20.21
12/02/2020 02:26:49	120220	12022020	022649	192.12	13.648520	-56.945178	192.35	0.070	0.620	1.650	192.15	-0.70	2.30	 	 	 	 	 	 	 	 	 	 	 	 	 	 	 	 	 	 	1581474409	10.65	19.72
12/02/2020 02:26:50	120220	12022020	022650	192.35	13.648468	-56.945188	192.62	0.670	0.080	1.140	192.42	-1.20	1.70	 	 	 	 	 	 	 	 	 	 	 	 	 	 	 	 	 	 	1581474410	10.88	20.15
12/02/2020 02:26:51	120220	12022020	022651	192.72	13.648417	-56.945200	192.98	0.850	-0.420	1.130	192.79	-1.70	1.60	 	 	 	 	 	 	 	 	 	 	 	 	 	 	 	 	 	 	1581474411	11.25	20.84
12/02/2020 02:26:52	120220	12022020	022652	193.00	13.648370	-56.945213	193.22	0.570	-0.620	1.470	193.03	-2.00	1.90	 	 	 	 	 	 	 	 	 	 	 	 	 	 	 	 	 	 	1581474412	11.10	20.56
12/02/2020 02:26:53	120220	12022020	022653	193.16	13.648323	-56.945228	193.41	0.100	-0.510	1.740	193.21	-1.90	2.20	 	 	 	 	 	 	 	 	 	 	 	 	 	 	 	 	 	 	1581474413	10.71	19.83
12/02/2020 02:26:54	120220	12022020	022654	193.51	13.648278	-56.945242	193.81	-0.250	-0.250	1.700	193.60	-1.70	2.20	 	 	 	 	 	 	 	 	 	 	 	 	 	 	 	 	 	 	1581474414	10.40	19.26
12/02/2020 02:26:55	120220	12022020	022655	194.04	13.648230	-56.945253	194.36	-0.290	-0.370	1.360	194.15	-1.70	1.90	 	 	 	 	 	 	 	 	 	 	 	 	 	 	 	 	 	 	1581474415	10.18	18.85
12/02/2020 02:26:56	120220	12022020	022656	194.44	13.648180	-56.945267	194.67	-0.040	-1.010	1.100	194.44	-2.30	1.60	 	 	 	 	 	 	 	 	 	 	 	 	 	 	 	 	 	 	1581474416	10.47	19.39
12/02/2020 02:26:57	120220	12022020	022657	194.56	13.648128	-56.945280	194.77	0.220	-1.460	1.080	194.58	-2.80	1.60	 	 	 	 	 	 	 	 	 	 	 	 	 	 	 	 	 	 	1581474417	11.23	20.80
12/02/2020 02:26:58	120220	12022020	022658	194.61	13.648080	-56.945295	194.79	0.160	-1.130	1.260	194.60	-2.60	1.70	 	 	 	 	 	 	 	 	 	 	 	 	 	 	 	 	 	 	1581474418	11.54	21.37
12/02/2020 02:26:59	120220	12022020	022659	194.42	13.648033	-56.945310	194.50	-0.180	-0.460	1.620	194.34	-1.90	2.00	 	 	 	 	 	 	 	 	 	 	 	 	 	 	 	 	 	 	1581474419	10.91	20.21
12/02/2020 02:27:00	120220	12022020	022700	193.83	13.647985	-56.945327	193.83	-0.440	-0.140	2.090	193.68	-1.50	2.50	 	 	 	 	 	 	 	 	 	 	 	 	 	 	 	 	 	 	1581474420	10.44	19.33
12/02/2020 02:27:01	120220	12022020	022701	193.12	13.647935	-56.945345	193.17	-0.440	-0.050	2.340	193.00	-1.40	2.80	1017.30	26.00	26.10	20.60	20.70	-1.0	72.0	72.0	391.0	25.6	259.00	10.80	68.00	13.00	16	8620.0	27.2	27.2	1581474421	10.92	20.22
12/02/2020 02:27:02	120220	12022020	022702	192.60	13.647885	-56.945362	192.71	-0.250	0.230	2.350	192.54	-1.20	2.90	 	 	 	 	 	 	 	 	 	 	 	 	 	 	 	 	 	 	1581474422	11.44	21.19
12/02/2020 02:27:03	120220	12022020	022703	192.49	13.647837	-56.945375	192.72	-0.080	0.740	1.920	192.53	-0.70	2.50	 	 	 	 	 	 	 	 	 	 	 	 	 	 	 	 	 	 	1581474423	11.35	21.02
12/02/2020 02:27:04	120220	12022020	022704	192.83	13.647788	-56.945387	193.09	-0.010	1.020	1.380	192.92	-0.40	1.90	 	 	 	 	 	 	 	 	 	 	 	 	 	 	 	 	 	 	1581474424	10.85	20.09
12/02/2020 02:27:05	120220	12022020	022705	193.25	13.647740	-56.945400	193.48	0.110	0.610	1.230	193.32	-0.70	1.70	 	 	 	 	 	 	 	 	 	 	 	 	 	 	 	 	 	 	1581474425	10.53	19.50
12/02/2020 02:27:06	120220	12022020	022706	193.50	13.647688	-56.945415	193.69	0.350	-0.310	1.490	193.53	-1.50	1.90	 	 	 	 	 	 	 	 	 	 	 	 	 	 	 	 	 	 	1581474426	10.87	20.13
12/02/2020 02:27:07	120220	12022020	022707	193.59	13.647638	-56.945432	193.78	0.490	-1.040	1.990	193.60	-2.30	2.40	 	 	 	 	 	 	 	 	 	 	 	 	 	 	 	 	 	 	1581474427	11.32	20.96
12/02/2020 02:27:08	120220	12022020	022708	193.66	13.647592	-56.945450	193.88	0.340	-1.120	2.300	193.68	-2.50	2.80	 	 	 	 	 	 	 	 	 	 	 	 	 	 	 	 	 	 	1581474428	11.29	20.91
12/02/2020 02:27:09	120220	12022020	022709	193.75	13.647548	-56.945465	193.93	0.060	-0.830	2.280	193.75	-2.20	2.80	 	 	 	 	 	 	 	 	 	 	 	 	 	 	 	 	 	 	1581474429	10.64	19.71
12/02/2020 02:27:10	120220	12022020	022710	193.67	13.647502	-56.945478	193.83	-0.020	-0.740	2.070	193.64	-2.10	2.60	 	 	 	 	 	 	 	 	 	 	 	 	 	 	 	 	 	 	1581474430	10.11	18.72
12/02/2020 02:27:11	120220	12022020	022711	193.49	13.647452	-56.945490	193.65	0.110	-0.820	1.780	193.47	-2.20	2.30	 	 	 	 	 	 	 	 	 	 	 	 	 	 	 	 	 	 	1581474431	10.36	19.19
12/02/2020 02:27:12	120220	12022020	022712	193.42	13.647403	-56.945502	193.62	0.100	-0.710	1.590	193.43	-2.10	2.10	 	 	 	 	 	 	 	 	 	 	 	 	 	 	 	 	 	 	1581474432	10.90	20.19
12/02/2020 02:27:13	120220	12022020	022713	193.42	13.647353	-56.945515	193.57	-0.130	-0.500	1.600	193.39	-1.90	2.10	 	 	 	 	 	 	 	 	 	 	 	 	 	 	 	 	 	 	1581474433	10.94	20.26
12/02/2020 02:27:14	120220	12022020	022714	193.16	13.647305	-56.945532	193.24	-0.260	-0.520	1.910	193.07	-1.90	2.30	 	 	 	 	 	 	 	 	 	 	 	 	 	 	 	 	 	 	1581474434	10.83	20.06
12/02/2020 02:27:15	120220	12022020	022715	192.67	13.647252	-56.945547	192.73	-0.040	-0.670	2.260	192.58	-2.00	2.70	 	 	 	 	 	 	 	 	 	 	 	 	 	 	 	 	 	 	1581474435	11.19	20.72
12/02/2020 02:27:16	120220	12022020	022716	192.33	13.647200	-56.945560	192.48	0.120	-0.400	2.370	192.31	-1.90	2.90	 	 	 	 	 	 	 	 	 	 	 	 	 	 	 	 	 	 	1581474436	11.69	21.65
12/02/2020 02:27:17	120220	12022020	022717	192.39	13.647152	-56.945573	192.62	-0.180	0.300	2.390	192.44	-1.20	2.90	 	 	 	 	 	 	 	 	 	 	 	 	 	 	 	 	 	 	1581474437	11.54	21.37
12/02/2020 02:27:18	120220	12022020	022718	192.72	13.647105	-56.945590	193.00	-0.770	0.860	2.480	192.80	-0.60	2.90	 	 	 	 	 	 	 	 	 	 	 	 	 	 	 	 	 	 	1581474438	10.84	20.08
12/02/2020 02:27:19	120220	12022020	022719	193.12	13.647058	-56.945610	193.39	-1.090	0.940	2.630	193.21	-0.40	3.10	 	 	 	 	 	 	 	 	 	 	 	 	 	 	 	 	 	 	1581474439	10.56	19.56
12/02/2020 02:27:20	120220	12022020	022720	193.43	13.647012	-56.945628	193.64	-0.710	0.520	2.510	193.46	-0.80	3.00	 	 	 	 	 	 	 	 	 	 	 	 	 	 	 	 	 	 	1581474440	10.77	19.95
12/02/2020 02:27:21	120220	12022020	022721	193.54	13.646962	-56.945643	193.71	0.310	-0.090	1.930	193.54	-1.40	2.50	 	 	 	 	 	 	 	 	 	 	 	 	 	 	 	 	 	 	1581474441	11.07	20.50
12/02/2020 02:27:22	120220	12022020	022722	193.64	13.646912	-56.945652	193.85	1.250	-0.330	1.010	193.70	-1.70	1.60	 	 	 	 	 	 	 	 	 	 	 	 	 	 	 	 	 	 	1581474442	11.19	20.72
12/02/2020 02:27:23	120220	12022020	022723	193.94	13.646863	-56.945657	194.12	1.430	-0.390	0.250	193.99	-1.70	0.80	 	 	 	 	 	 	 	 	 	 	 	 	 	 	 	 	 	 	1581474443	10.84	20.08
12/02/2020 02:27:24	120220	12022020	022724	194.05	13.646815	-56.945665	194.15	0.880	-0.880	0.400	194.03	-2.10	0.80	 	 	 	 	 	 	 	 	 	 	 	 	 	 	 	 	 	 	1581474444	10.36	19.19
12/02/2020 02:27:25	120220	12022020	022725	193.76	13.646765	-56.945682	193.81	0.160	-1.670	1.270	193.66	-2.90	1.60	 	 	 	 	 	 	 	 	 	 	 	 	 	 	 	 	 	 	1581474445	10.51	19.46
12/02/2020 02:27:26	120220	12022020	022726	193.22	13.646717	-56.945702	193.28	-0.310	-1.930	2.200	193.11	-3.30	2.60	 	 	 	 	 	 	 	 	 	 	 	 	 	 	 	 	 	 	1581474446	11.21	20.76
12/02/2020 02:27:27	120220	12022020	022727	192.80	13.646670	-56.945722	192.93	-0.500	-1.260	2.560	192.75	-2.80	3.00	 	 	 	 	 	 	 	 	 	 	 	 	 	 	 	 	 	 	1581474447	11.41	21.13
12/02/2020 02:27:28	120220	12022020	022728	192.69	13.646625	-56.945737	192.86	-0.520	-0.350	2.270	192.69	-1.80	2.80	 	 	 	 	 	 	 	 	 	 	 	 	 	 	 	 	 	 	1581474448	10.77	19.95
12/02/2020 02:27:29	120220	12022020	022729	192.72	13.646575	-56.945750	192.88	-0.480	0.070	1.810	192.72	-1.30	2.40	 	 	 	 	 	 	 	 	 	 	 	 	 	 	 	 	 	 	1581474449	10.37	19.21
12/02/2020 02:27:30	120220	12022020	022730	192.68	13.646525	-56.945765	192.81	-0.420	-0.000	1.670	192.66	-1.40	2.20	 	 	 	 	 	 	 	 	 	 	 	 	 	 	 	 	 	 	1581474450	10.84	20.08
12/02/2020 02:27:31	120220	12022020	022731	192.52	13.646472	-56.945780	192.63	-0.350	-0.070	1.750	192.49	-1.40	2.20	 	 	 	 	 	 	 	 	 	 	 	 	 	 	 	 	 	 	1581474451	11.46	21.22
12/02/2020 02:27:32	120220	12022020	022732	192.38	13.646423	-56.945795	192.53	-0.300	0.210	1.910	192.37	-1.20	2.40	 	 	 	 	 	 	 	 	 	 	 	 	 	 	 	 	 	 	1581474452	11.58	21.45
12/02/2020 02:27:33	120220	12022020	022733	192.38	13.646375	-56.945808	192.58	-0.210	0.610	1.930	192.40	-0.80	2.50	 	 	 	 	 	 	 	 	 	 	 	 	 	 	 	 	 	 	1581474453	11.12	20.59
12/02/2020 02:27:34	120220	12022020	022734	192.56	13.646327	-56.945820	192.79	0.020	0.790	1.600	192.56	-0.60	2.20	 	 	 	 	 	 	 	 	 	 	 	 	 	 	 	 	 	 	1581474454	10.70	19.82
12/02/2020 02:27:35	120220	12022020	022735	192.78	13.646278	-56.945830	192.98	0.390	0.410	1.380	192.81	-0.90	1.90	 	 	 	 	 	 	 	 	 	 	 	 	 	 	 	 	 	 	1581474455	10.58	19.59
12/02/2020 02:27:36	120220	12022020	022736	192.89	13.646227	-56.945842	193.08	0.680	-0.370	1.490	192.92	-1.60	2.00	 	 	 	 	 	 	 	 	 	 	 	 	 	 	 	 	 	 	1581474456	10.86	20.11
12/02/2020 02:27:37	120220	12022020	022737	193.01	13.646177	-56.945855	193.23	0.610	-0.870	1.930	193.04	-2.20	2.40	 	 	 	 	 	 	 	 	 	 	 	 	 	 	 	 	 	 	1581474457	11.30	20.93
12/02/2020 02:27:38	120220	12022020	022738	193.10	13.646130	-56.945870	193.29	0.240	-0.920	2.390	193.10	-2.30	2.80	 	 	 	 	 	 	 	 	 	 	 	 	 	 	 	 	 	 	1581474458	11.11	20.58
12/02/2020 02:27:39	120220	12022020	022739	192.99	13.646083	-56.945887	193.15	-0.090	-0.860	2.660	192.95	-2.20	3.10	 	 	 	 	 	 	 	 	 	 	 	 	 	 	 	 	 	 	1581474459	10.61	19.65
12/02/2020 02:27:40	120220	12022020	022740	192.79	13.646035	-56.945902	192.96	-0.160	-0.780	2.500	192.76	-2.20	3.00	 	 	 	 	 	 	 	 	 	 	 	 	 	 	 	 	 	 	1581474460	10.51	19.46
12/02/2020 02:27:41	120220	12022020	022741	192.70	13.645988	-56.945915	192.89	-0.050	-0.520	2.040	192.69	-1.90	2.60	 	 	 	 	 	 	 	 	 	 	 	 	 	 	 	 	 	 	1581474461	10.68	19.78
12/02/2020 02:27:42	120220	12022020	022742	192.78	13.645940	-56.945927	193.00	0.020	-0.220	1.420	192.81	-1.60	2.00	 	 	 	 	 	 	 	 	 	 	 	 	 	 	 	 	 	 	1581474462	10.63	19.69
12/02/2020 02:27:43	120220	12022020	022743	193.00	13.645892	-56.945937	193.24	0.020	-0.160	0.790	193.06	-1.50	1.40	 	 	 	 	 	 	 	 	 	 	 	 	 	 	 	 	 	 	1581474463	10.54	19.52
12/02/2020 02:27:44	120220	12022020	022744	193.28	13.645840	-56.945948	193.52	0.030	-0.480	0.490	193.33	-1.80	1.00	 	 	 	 	 	 	 	 	 	 	 	 	 	 	 	 	 	 	1581474464	10.74	19.89
12/02/2020 02:27:45	120220	12022020	022745	193.45	13.645788	-56.945962	193.63	0.110	-0.970	0.710	193.45	-2.30	1.20	 	 	 	 	 	 	 	 	 	 	 	 	 	 	 	 	 	 	1581474465	11.16	20.67
12/02/2020 02:27:46	120220	12022020	022746	193.33	13.645737	-56.945975	193.47	0.110	-1.140	1.140	193.33	-2.50	1.60	 	 	 	 	 	 	 	 	 	 	 	 	 	 	 	 	 	 	1581474466	11.54	21.37
12/02/2020 02:27:47	120220	12022020	022747	193.02	13.645687	-56.945990	193.12	-0.110	-0.730	1.790	192.94	-2.20	2.20	 	 	 	 	 	 	 	 	 	 	 	 	 	 	 	 	 	 	1581474467	11.58	21.45
12/02/2020 02:27:48	120220	12022020	022748	192.63	13.645640	-56.946007	192.77	-0.460	0.080	2.290	192.58	-1.40	2.80	 	 	 	 	 	 	 	 	 	 	 	 	 	 	 	 	 	 	1581474468	11.14	20.63
12/02/2020 02:27:49	120220	12022020	022749	192.52	13.645593	-56.946022	192.73	-0.720	0.870	2.190	192.54	-0.60	2.70	 	 	 	 	 	 	 	 	 	 	 	 	 	 	 	 	 	 	1581474469	10.73	19.87
12/02/2020 02:27:50	120220	12022020	022750	192.67	13.645545	-56.946037	192.89	-0.650	1.100	1.860	192.71	-0.30	2.40	 	 	 	 	 	 	 	 	 	 	 	 	 	 	 	 	 	 	1581474470	10.51	19.46
12/02/2020 02:27:51	120220	12022020	022751	192.89	13.645495	-56.946050	193.11	-0.180	0.690	1.460	192.94	-0.60	2.00	 	 	 	 	 	 	 	 	 	 	 	 	 	 	 	 	 	 	1581474471	10.74	19.89
12/02/2020 02:27:52	120220	12022020	022752	193.21	13.645443	-56.946062	193.47	0.360	0.120	0.990	193.31	-1.20	1.60	 	 	 	 	 	 	 	 	 	 	 	 	 	 	 	 	 	 	1581474472	11.22	20.78
12/02/2020 02:27:53	120220	12022020	022753	193.73	13.645393	-56.946072	193.98	0.590	-0.320	0.680	193.83	-1.60	1.20	 	 	 	 	 	 	 	 	 	 	 	 	 	 	 	 	 	 	1581474473	11.31	20.95
12/02/2020 02:27:54	120220	12022020	022754	194.07	13.645345	-56.946085	194.25	0.560	-0.750	0.780	194.10	-2.00	1.20	 	 	 	 	 	 	 	 	 	 	 	 	 	 	 	 	 	 	1581474474	10.91	20.21
12/02/2020 02:27:55	120220	12022020	022755	194.06	13.645297	-56.946098	194.20	0.460	-1.170	1.130	194.04	-2.50	1.60	 	 	 	 	 	 	 	 	 	 	 	 	 	 	 	 	 	 	1581474475	10.69	19.80
12/02/2020 02:27:56	120220	12022020	022756	193.95	13.645248	-56.946113	194.11	0.300	-1.250	1.440	193.94	-2.60	1.90	 	 	 	 	 	 	 	 	 	 	 	 	 	 	 	 	 	 	1581474476	10.81	20.02
12/02/2020 02:27:57	120220	12022020	022757	193.88	13.645202	-56.946127	194.03	0.080	-1.080	1.580	193.87	-2.50	2.10	 	 	 	 	 	 	 	 	 	 	 	 	 	 	 	 	 	 	1581474477	10.74	19.89
12/02/2020 02:27:58	120220	12022020	022758	193.75	13.645153	-56.946142	193.85	-0.070	-0.960	1.680	193.69	-2.30	2.10	 	 	 	 	 	 	 	 	 	 	 	 	 	 	 	 	 	 	1581474478	10.61	19.65
12/02/2020 02:27:59	120220	12022020	022759	193.36	13.645103	-56.946158	193.40	-0.050	-0.960	1.920	193.25	-2.30	2.40	 	 	 	 	 	 	 	 	 	 	 	 	 	 	 	 	 	 	1581474479	10.82	20.04
12/02/2020 02:28:00	120220	12022020	022800	192.79	13.645052	-56.946173	192.84	-0.020	-0.710	2.240	192.68	-2.10	2.70	 	 	 	 	 	 	 	 	 	 	 	 	 	 	 	 	 	 	1581474480	11.32	20.96
12/02/2020 02:28:01	120220	12022020	022801	192.42	13.645003	-56.946190	192.58	-0.230	0.050	2.380	192.40	-1.50	2.90	1017.40	26.10	26.10	20.80	20.90	-1.0	72.0	72.0	392.0	25.6	260.00	9.90	66.00	12.20	16	7841.0	27.2	27.2	1581474481	11.47	21.24
12/02/2020 02:28:02	120220	12022020	022802	192.56	13.644957	-56.946203	192.83	-0.650	0.950	2.110	192.64	-0.50	2.70	 	 	 	 	 	 	 	 	 	 	 	 	 	 	 	 	 	 	1581474482	11.05	20.46
12/02/2020 02:28:03	120220	12022020	022803	193.11	13.644908	-56.946218	193.43	-0.900	1.230	1.680	193.24	-0.10	2.20	 	 	 	 	 	 	 	 	 	 	 	 	 	 	 	 	 	 	1581474483	10.54	19.52
12/02/2020 02:28:04	120220	12022020	022804	193.73	13.644858	-56.946233	194.02	-0.570	0.650	1.250	193.84	-0.60	1.80	 	 	 	 	 	 	 	 	 	 	 	 	 	 	 	 	 	 	1581474484	10.67	19.76
12/02/2020 02:28:05	120220	12022020	022805	194.21	13.644805	-56.946245	194.45	0.260	-0.270	0.880	194.28	-1.50	1.40	 	 	 	 	 	 	 	 	 	 	 	 	 	 	 	 	 	 	1581474485	11.33	20.98
12/02/2020 02:28:06	120220	12022020	022806	194.55	13.644753	-56.946257	194.76	0.980	-0.890	0.660	194.60	-2.20	1.20	 	 	 	 	 	 	 	 	 	 	 	 	 	 	 	 	 	 	1581474486	11.73	21.72
12/02/2020 02:28:07	120220	12022020	022807	194.76	13.644703	-56.946267	194.95	0.990	-0.980	0.760	194.78	-2.40	1.20	 	 	 	 	 	 	 	 	 	 	 	 	 	 	 	 	 	 	1581474487	11.48	21.26
12/02/2020 02:28:08	120220	12022020	022808	194.78	13.644657	-56.946280	194.95	0.320	-0.780	1.320	194.76	-2.20	1.70	 	 	 	 	 	 	 	 	 	 	 	 	 	 	 	 	 	 	1581474488	10.85	20.09
12/02/2020 02:28:09	120220	12022020	022809	194.55	13.644610	-56.946298	194.66	-0.470	-0.590	2.040	194.48	-2.00	2.40	 	 	 	 	 	 	 	 	 	 	 	 	 	 	 	 	 	 	1581474489	10.42	19.30
12/02/2020 02:28:10	120220	12022020	022810	194.21	13.644563	-56.946318	194.38	-0.810	-0.460	2.460	194.17	-1.80	2.90	 	 	 	 	 	 	 	 	 	 	 	 	 	 	 	 	 	 	1581474490	10.58	19.59
12/02/2020 02:28:11	120220	12022020	022811	194.16	13.644517	-56.946337	194.40	-0.550	-0.230	2.190	194.18	-1.60	2.70	 	 	 	 	 	 	 	 	 	 	 	 	 	 	 	 	 	 	1581474491	10.92	20.22
12/02/2020 02:28:12	120220	12022020	022812	194.31	13.644468	-56.946352	194.53	0.020	-0.000	1.660	194.31	-1.40	2.20	 	 	 	 	 	 	 	 	 	 	 	 	 	 	 	 	 	 	1581474492	10.92	20.22
12/02/2020 02:28:13	120220	12022020	022813	194.40	13.644418	-56.946363	194.57	0.510	0.050	1.130	194.41	-1.30	1.70	 	 	 	 	 	 	 	 	 	 	 	 	 	 	 	 	 	 	1581474493	10.80	20.00
12/02/2020 02:28:14	120220	12022020	022814	194.39	13.644368	-56.946373	194.54	0.630	-0.090	0.850	194.38	-1.40	1.40	 	 	 	 	 	 	 	 	 	 	 	 	 	 	 	 	 	 	1581474494	10.86	20.11
12/02/2020 02:28:15	120220	12022020	022815	194.28	13.644320	-56.946387	194.41	0.350	-0.370	1.010	194.25	-1.70	1.50	 	 	 	 	 	 	 	 	 	 	 	 	 	 	 	 	 	 	1581474495	10.99	20.35
12/02/2020 02:28:16	120220	12022020	022816	194.11	13.644270	-56.946403	194.22	-0.080	-0.700	1.310	194.06	-2.00	1.70	 	 	 	 	 	 	 	 	 	 	 	 	 	 	 	 	 	 	1581474496	11.04	20.45
12/02/2020 02:28:17	120220	12022020	022817	193.80	13.644220	-56.946420	193.91	-0.310	-0.990	1.660	193.73	-2.30	2.10	 	 	 	 	 	 	 	 	 	 	 	 	 	 	 	 	 	 	1581474497	11.15	20.65
12/02/2020 02:28:18	120220	12022020	022818	193.64	13.644170	-56.946438	193.86	-0.300	-0.830	1.700	193.67	-2.30	2.20	 	 	 	 	 	 	 	 	 	 	 	 	 	 	 	 	 	 	1581474498	11.40	21.11
12/02/2020 02:28:19	120220	12022020	022819	194.01	13.644123	-56.946452	194.33	-0.220	-0.130	1.250	194.15	-1.60	1.80	 	 	 	 	 	 	 	 	 	 	 	 	 	 	 	 	 	 	1581474499	11.25	20.84
12/02/2020 02:28:20	120220	12022020	022820	194.70	13.644077	-56.946465	195.00	-0.160	0.390	0.800	194.82	-1.00	1.30	 	 	 	 	 	 	 	 	 	 	 	 	 	 	 	 	 	 	1581474500	10.61	19.65
12/02/2020 02:28:21	120220	12022020	022821	195.13	13.644027	-56.946478	195.34	-0.030	0.180	0.790	195.17	-1.10	1.30	 	 	 	 	 	 	 	 	 	 	 	 	 	 	 	 	 	 	1581474501	10.40	19.26
12/02/2020 02:28:22	120220	12022020	022822	195.32	13.643975	-56.946493	195.55	0.090	-0.250	1.060	195.37	-1.60	1.50	 	 	 	 	 	 	 	 	 	 	 	 	 	 	 	 	 	 	1581474502	11.05	20.46
12/02/2020 02:28:23	120220	12022020	022823	195.60	13.643927	-56.946510	195.86	-0.010	-0.260	1.300	195.67	-1.70	1.80	 	 	 	 	 	 	 	 	 	 	 	 	 	 	 	 	 	 	1581474503	11.50	21.30
12/02/2020 02:28:24	120220	12022020	022824	195.88	13.643880	-56.946527	196.10	-0.230	-0.130	1.480	195.88	-1.50	1.90	 	 	 	 	 	 	 	 	 	 	 	 	 	 	 	 	 	 	1581474504	10.97	20.32
12/02/2020 02:28:25	120220	12022020	022825	195.86	13.643833	-56.946543	195.98	-0.220	-0.240	1.680	195.81	-1.60	2.10	 	 	 	 	 	 	 	 	 	 	 	 	 	 	 	 	 	 	1581474505	10.51	19.46
12/02/2020 02:28:26	120220	12022020	022826	195.46	13.643785	-56.946560	195.51	0.210	-0.580	1.780	195.35	-1.90	2.30	 	 	 	 	 	 	 	 	 	 	 	 	 	 	 	 	 	 	1581474506	10.68	19.78
12/02/2020 02:28:27	120220	12022020	022827	194.78	13.643735	-56.946573	194.78	0.790	-0.880	1.790	194.63	-2.20	2.30	 	 	 	 	 	 	 	 	 	 	 	 	 	 	 	 	 	 	1581474507	11.03	20.43
12/02/2020 02:28:28	120220	12022020	022828	193.98	13.643685	-56.946588	193.99	0.960	-0.930	1.930	193.82	-2.30	2.40	 	 	 	 	 	 	 	 	 	 	 	 	 	 	 	 	 	 	1581474508	11.26	20.85
12/02/2020 02:28:29	120220	12022020	022829	193.33	13.643635	-56.946603	193.40	0.490	-0.600	2.050	193.24	-2.10	2.50	 	 	 	 	 	 	 	 	 	 	 	 	 	 	 	 	 	 	1581474509	11.24	20.82
12/02/2020 02:28:30	120220	12022020	022830	193.13	13.643588	-56.946618	193.37	-0.410	0.230	1.980	193.19	-1.30	2.50	 	 	 	 	 	 	 	 	 	 	 	 	 	 	 	 	 	 	1581474510	11.03	20.43
12/02/2020 02:28:31	120220	12022020	022831	193.70	13.643545	-56.946638	194.08	-1.250	1.020	1.830	193.88	-0.40	2.30	 	 	 	 	 	 	 	 	 	 	 	 	 	 	 	 	 	 	1581474511	10.54	19.52
12/02/2020 02:28:32	120220	12022020	022832	194.65	13.643500	-56.946658	195.06	-1.400	0.910	1.600	194.84	-0.40	2.10	 	 	 	 	 	 	 	 	 	 	 	 	 	 	 	 	 	 	1581474512	10.16	18.82
12/02/2020 02:28:33	120220	12022020	022833	195.46	13.643450	-56.946678	195.79	-0.540	-0.180	1.210	195.58	-1.40	1.70	 	 	 	 	 	 	 	 	 	 	 	 	 	 	 	 	 	 	1581474513	10.68	19.78
12/02/2020 02:28:34	120220	12022020	022834	195.88	13.643395	-56.946693	196.11	0.790	-1.370	0.930	195.92	-2.60	1.40	 	 	 	 	 	 	 	 	 	 	 	 	 	 	 	 	 	 	1581474514	11.61	21.50
12/02/2020 02:28:35	120220	12022020	022835	195.98	13.643343	-56.946705	196.16	1.500	-1.620	0.960	195.98	-3.00	1.40	 	 	 	 	 	 	 	 	 	 	 	 	 	 	 	 	 	 	1581474515	12.10	22.41
12/02/2020 02:28:36	120220	12022020	022836	195.89	13.643297	-56.946717	196.03	1.130	-0.910	1.290	195.89	-2.40	1.70	 	 	 	 	 	 	 	 	 	 	 	 	 	 	 	 	 	 	1581474516	11.45	21.21
12/02/2020 02:28:37	120220	12022020	022837	195.67	13.643252	-56.946730	195.78	0.170	-0.090	1.710	195.61	-1.60	2.10	 	 	 	 	 	 	 	 	 	 	 	 	 	 	 	 	 	 	1581474517	10.35	19.17
12/02/2020 02:28:38	120220	12022020	022838	195.33	13.643205	-56.946748	195.45	-0.560	0.250	2.170	195.26	-1.10	2.60	 	 	 	 	 	 	 	 	 	 	 	 	 	 	 	 	 	 	1581474518	10.06	18.63
12/02/2020 02:28:39	120220	12022020	022839	194.89	13.643157	-56.946767	194.99	-0.640	-0.020	2.620	194.79	-1.30	3.00	 	 	 	 	 	 	 	 	 	 	 	 	 	 	 	 	 	 	1581474519	10.58	19.59
12/02/2020 02:28:40	120220	12022020	022840	194.42	13.643105	-56.946787	194.57	-0.360	-0.510	2.790	194.35	-1.80	3.30	 	 	 	 	 	 	 	 	 	 	 	 	 	 	 	 	 	 	1581474520	11.38	21.08
12/02/2020 02:28:41	120220	12022020	022841	194.14	13.643053	-56.946807	194.34	-0.250	-0.620	2.810	194.11	-2.00	3.30	 	 	 	 	 	 	 	 	 	 	 	 	 	 	 	 	 	 	1581474521	11.89	22.02
12/02/2020 02:28:42	120220	12022020	022842	194.07	13.643007	-56.946823	194.30	-0.470	-0.130	2.690	194.09	-1.60	3.20	 	 	 	 	 	 	 	 	 	 	 	 	 	 	 	 	 	 	1581474522	11.62	21.52
12/02/2020 02:28:43	120220	12022020	022843	194.18	13.642962	-56.946842	194.43	-0.690	0.500	2.300	194.22	-1.00	2.80	 	 	 	 	 	 	 	 	 	 	 	 	 	 	 	 	 	 	1581474523	10.83	20.06
12/02/2020 02:28:44	120220	12022020	022844	194.39	13.642915	-56.946857	194.64	-0.480	0.620	1.680	194.44	-0.70	2.30	 	 	 	 	 	 	 	 	 	 	 	 	 	 	 	 	 	 	1581474524	10.29	19.06
12/02/2020 02:28:45	120220	12022020	022845	194.70	13.642867	-56.946872	194.98	0.220	0.310	0.910	194.78	-1.00	1.50	 	 	 	 	 	 	 	 	 	 	 	 	 	 	 	 	 	 	1581474525	10.52	19.48
12/02/2020 02:28:46	120220	12022020	022846	195.13	13.642817	-56.946882	195.42	0.960	-0.090	0.130	195.22	-1.40	0.70	 	 	 	 	 	 	 	 	 	 	 	 	 	 	 	 	 	 	1581474526	10.91	20.21
12/02/2020 02:28:47	120220	12022020	022847	195.45	13.642767	-56.946890	195.63	1.290	-0.630	0.000	195.46	-1.90	0.40	 	 	 	 	 	 	 	 	 	 	 	 	 	 	 	 	 	 	1581474527	10.92	20.22
12/02/2020 02:28:48	120220	12022020	022848	195.32	13.642717	-56.946903	195.42	1.080	-1.240	0.780	195.25	-2.50	1.10	 	 	 	 	 	 	 	 	 	 	 	 	 	 	 	 	 	 	1581474528	10.87	20.13
12/02/2020 02:28:49	120220	12022020	022849	194.89	13.642668	-56.946923	194.98	0.500	-1.540	1.960	194.78	-2.90	2.30	 	 	 	 	 	 	 	 	 	 	 	 	 	 	 	 	 	 	1581474529	11.02	20.41
12/02/2020 02:28:50	120220	12022020	022850	194.35	13.642623	-56.946943	194.45	-0.100	-1.320	2.890	194.25	-2.80	3.20	 	 	 	 	 	 	 	 	 	 	 	 	 	 	 	 	 	 	1581474530	11.08	20.52
12/02/2020 02:28:51	120220	12022020	022851	193.87	13.642577	-56.946963	194.01	-0.470	-0.770	3.270	193.79	-2.20	3.70	 	 	 	 	 	 	 	 	 	 	 	 	 	 	 	 	 	 	1581474531	10.93	20.24
12/02/2020 02:28:52	120220	12022020	022852	193.56	13.642530	-56.946982	193.73	-0.630	-0.120	3.230	193.53	-1.60	3.70	 	 	 	 	 	 	 	 	 	 	 	 	 	 	 	 	 	 	1581474532	10.80	20.00
12/02/2020 02:28:53	120220	12022020	022853	193.39	13.642480	-56.946998	193.57	-0.670	0.220	3.020	193.37	-1.20	3.50	 	 	 	 	 	 	 	 	 	 	 	 	 	 	 	 	 	 	1581474533	10.79	19.98
12/02/2020 02:28:54	120220	12022020	022854	193.33	13.642430	-56.947015	193.56	-0.680	0.180	2.690	193.36	-1.20	3.20	 	 	 	 	 	 	 	 	 	 	 	 	 	 	 	 	 	 	1581474534	11.04	20.45
12/02/2020 02:28:55	120220	12022020	022855	193.57	13.642380	-56.947032	193.83	-0.640	0.060	2.280	193.65	-1.30	2.80	 	 	 	 	 	 	 	 	 	 	 	 	 	 	 	 	 	 	1581474535	11.43	21.17
12/02/2020 02:28:56	120220	12022020	022856	193.97	13.642332	-56.947047	194.24	-0.490	0.220	1.790	194.05	-1.20	2.40	 	 	 	 	 	 	 	 	 	 	 	 	 	 	 	 	 	 	1581474536	11.43	21.17
12/02/2020 02:28:57	120220	12022020	022857	194.36	13.642283	-56.947060	194.62	-0.180	0.450	1.340	194.43	-1.00	1.90	 	 	 	 	 	 	 	 	 	 	 	 	 	 	 	 	 	 	1581474537	10.90	20.19
12/02/2020 02:28:58	120220	12022020	022858	194.64	13.642237	-56.947072	194.82	0.320	0.290	0.950	194.65	-1.10	1.50	 	 	 	 	 	 	 	 	 	 	 	 	 	 	 	 	 	 	1581474538	10.46	19.37
12/02/2020 02:28:59	120220	12022020	022859	194.50	13.642187	-56.947082	194.59	1.000	-0.450	0.880	194.42	-1.70	1.40	 	 	 	 	 	 	 	 	 	 	 	 	 	 	 	 	 	 	1581474539	10.50	19.45
12/02/2020 02:29:00	120220	12022020	022900	194.08	13.642133	-56.947093	194.19	1.450	-1.110	1.140	194.08	-2.40	1.60	 	 	 	 	 	 	 	 	 	 	 	 	 	 	 	 	 	 	1581474540	11.13	20.61
12/02/2020 02:29:01	120220	12022020	022901	193.89	13.642085	-56.947103	194.12	1.160	-0.970	1.330	193.92	-2.40	1.80	1017.40	26.10	26.10	21.00	21.10	-1.0	73.0	74.0	392.0	25.6	262.00	9.90	69.00	12.10	16	7862.0	27.2	27.2	1581474541	11.50	21.30
12/02/2020 02:29:02	120220	12022020	022902	194.15	13.642040	-56.947118	194.45	0.140	-0.300	1.520	194.24	-1.80	2.00	 	 	 	 	 	 	 	 	 	 	 	 	 	 	 	 	 	 	1581474542	10.85	20.09
12/02/2020 02:29:03	120220	12022020	022903	194.62	13.641997	-56.947138	194.93	-1.000	0.220	1.930	194.70	-1.20	2.30	 	 	 	 	 	 	 	 	 	 	 	 	 	 	 	 	 	 	1581474543	10.09	18.69
12/02/2020 02:29:04	120220	12022020	022904	194.98	13.641953	-56.947163	195.25	-1.520	0.200	2.300	195.01	-1.10	2.70	 	 	 	 	 	 	 	 	 	 	 	 	 	 	 	 	 	 	1581474544	10.14	18.78
12/02/2020 02:29:05	120220	12022020	022905	195.00	13.641905	-56.947185	195.17	-1.100	-0.410	2.430	194.95	-1.70	2.90	 	 	 	 	 	 	 	 	 	 	 	 	 	 	 	 	 	 	1581474545	10.72	19.85
12/02/2020 02:29:06	120220	12022020	022906	194.60	13.641853	-56.947205	194.65	-0.040	-1.190	2.280	194.48	-2.50	2.80	 	 	 	 	 	 	 	 	 	 	 	 	 	 	 	 	 	 	1581474546	11.33	20.98
12/02/2020 02:29:07	120220	12022020	022907	193.92	13.641802	-56.947218	193.92	0.930	-1.420	1.860	193.77	-2.80	2.40	 	 	 	 	 	 	 	 	 	 	 	 	 	 	 	 	 	 	1581474547	11.76	21.78
12/02/2020 02:29:08	120220	12022020	022908	193.28	13.641752	-56.947227	193.35	1.230	-0.880	1.470	193.20	-2.40	2.00	 	 	 	 	 	 	 	 	 	 	 	 	 	 	 	 	 	 	1581474548	11.57	21.43
12/02/2020 02:29:09	120220	12022020	022909	193.11	13.641705	-56.947235	193.32	0.730	0.220	1.210	193.15	-1.40	1.70	 	 	 	 	 	 	 	 	 	 	 	 	 	 	 	 	 	 	1581474549	10.99	20.35
12/02/2020 02:29:10	120220	12022020	022910	193.43	13.641660	-56.947247	193.69	-0.160	1.080	1.340	193.51	-0.40	1.80	 	 	 	 	 	 	 	 	 	 	 	 	 	 	 	 	 	 	1581474550	10.25	18.98
12/02/2020 02:29:11	120220	12022020	022911	193.81	13.641613	-56.947265	194.04	-0.790	0.920	1.780	193.87	-0.40	2.20	 	 	 	 	 	 	 	 	 	 	 	 	 	 	 	 	 	 	1581474551	9.95	18.43
12/02/2020 02:29:12	120220	12022020	022912	194.05	13.641563	-56.947285	194.28	-0.770	-0.010	2.150	194.09	-1.30	2.60	 	 	 	 	 	 	 	 	 	 	 	 	 	 	 	 	 	 	1581474552	10.70	19.82
12/02/2020 02:29:13	120220	12022020	022913	194.16	13.641512	-56.947305	194.33	-0.330	-0.850	2.360	194.15	-2.10	2.80	 	 	 	 	 	 	 	 	 	 	 	 	 	 	 	 	 	 	1581474553	11.60	21.48
12/02/2020 02:29:14	120220	12022020	022914	193.90	13.641463	-56.947322	193.96	0.100	-1.160	2.430	193.90	-2.50	2.90	 	 	 	 	 	 	 	 	 	 	 	 	 	 	 	 	 	 	1581474554	11.63	21.54
12/02/2020 02:29:15	120220	12022020	022915	193.32	13.641415	-56.947335	193.35	0.260	-0.960	2.250	193.20	-2.40	2.80	 	 	 	 	 	 	 	 	 	 	 	 	 	 	 	 	 	 	1581474555	11.12	20.59
12/02/2020 02:29:16	120220	12022020	022916	192.84	13.641368	-56.947347	192.94	0.160	-0.380	1.850	192.79	-1.90	2.40	 	 	 	 	 	 	 	 	 	 	 	 	 	 	 	 	 	 	1581474556	10.69	19.80
12/02/2020 02:29:17	120220	12022020	022917	192.74	13.641323	-56.947358	192.93	-0.020	0.250	1.270	192.76	-1.20	1.90	 	 	 	 	 	 	 	 	 	 	 	 	 	 	 	 	 	 	1581474557	10.37	19.21
12/02/2020 02:29:18	120220	12022020	022918	192.97	13.641275	-56.947370	193.17	-0.140	0.410	0.940	193.03	-0.90	1.40	 	 	 	 	 	 	 	 	 	 	 	 	 	 	 	 	 	 	1581474558	10.15	18.80
12/02/2020 02:29:19	120220	12022020	022919	193.23	13.641227	-56.947387	193.41	-0.060	-0.100	1.130	193.26	-1.40	1.60	 	 	 	 	 	 	 	 	 	 	 	 	 	 	 	 	 	 	1581474559	10.42	19.30
12/02/2020 02:29:20	120220	12022020	022920	193.29	13.641175	-56.947405	193.42	0.330	-0.830	1.500	193.27	-2.10	1.90	 	 	 	 	 	 	 	 	 	 	 	 	 	 	 	 	 	 	1581474560	11.10	20.56
12/02/2020 02:29:21	120220	12022020	022921	193.14	13.641125	-56.947418	193.26	0.820	-1.090	1.760	193.10	-2.50	2.20	 	 	 	 	 	 	 	 	 	 	 	 	 	 	 	 	 	 	1581474561	11.55	21.39
12/02/2020 02:29:22	120220	12022020	022922	192.99	13.641077	-56.947428	193.17	0.900	-0.590	1.850	192.99	-2.10	2.30	 	 	 	 	 	 	 	 	 	 	 	 	 	 	 	 	 	 	1581474562	11.36	21.04
12/02/2020 02:29:23	120220	12022020	022923	193.03	13.641030	-56.947440	193.21	0.320	0.100	2.000	193.03	-1.40	2.40	 	 	 	 	 	 	 	 	 	 	 	 	 	 	 	 	 	 	1581474563	10.62	19.67
12/02/2020 02:29:24	120220	12022020	022924	192.95	13.640985	-56.947455	193.05	-0.500	0.190	2.550	192.90	-1.20	2.90	 	 	 	 	 	 	 	 	 	 	 	 	 	 	 	 	 	 	1581474564	10.09	18.69
12/02/2020 02:29:25	120220	12022020	022925	192.53	13.640935	-56.947477	192.55	-0.930	-0.290	3.270	192.40	-1.60	3.70	 	 	 	 	 	 	 	 	 	 	 	 	 	 	 	 	 	 	1581474565	10.51	19.46
12/02/2020 02:29:26	120220	12022020	022926	191.90	13.640885	-56.947498	191.93	-0.790	-0.670	3.660	191.78	-2.00	4.10	 	 	 	 	 	 	 	 	 	 	 	 	 	 	 	 	 	 	1581474566	11.41	21.13
12/02/2020 02:29:27	120220	12022020	022927	191.35	13.640837	-56.947515	191.43	-0.350	-0.610	3.430	191.27	-2.00	4.00	 	 	 	 	 	 	 	 	 	 	 	 	 	 	 	 	 	 	1581474567	11.63	21.54
12/02/2020 02:29:28	120220	12022020	022928	191.22	13.640788	-56.947527	191.46	0.000	-0.100	2.450	191.28	-1.60	3.10	 	 	 	 	 	 	 	 	 	 	 	 	 	 	 	 	 	 	1581474568	11.20	20.74
12/02/2020 02:29:29	120220	12022020	022929	191.71	13.640742	-56.947535	192.02	0.120	0.430	1.240	191.84	-1.00	1.90	 	 	 	 	 	 	 	 	 	 	 	 	 	 	 	 	 	 	1581474569	10.54	19.52
12/02/2020 02:29:30	120220	12022020	022930	192.41	13.640695	-56.947542	192.69	0.200	0.420	0.520	192.53	-0.90	1.10	 	 	 	 	 	 	 	 	 	 	 	 	 	 	 	 	 	 	1581474570	10.09	18.69
12/02/2020 02:29:31	120220	12022020	022931	192.83	13.640645	-56.947552	193.01	0.420	-0.290	0.540	192.86	-1.50	1.00	 	 	 	 	 	 	 	 	 	 	 	 	 	 	 	 	 	 	1581474571	10.25	18.98
12/02/2020 02:29:32	120220	12022020	022932	192.81	13.640595	-56.947563	192.88	0.710	-1.210	1.120	192.75	-2.50	1.50	 	 	 	 	 	 	 	 	 	 	 	 	 	 	 	 	 	 	1581474572	10.89	20.17
12/02/2020 02:29:33	120220	12022020	022933	192.34	13.640543	-56.947580	192.37	0.790	-1.730	2.150	192.22	-3.10	2.50	 	 	 	 	 	 	 	 	 	 	 	 	 	 	 	 	 	 	1581474573	11.34	21.00
12/02/2020 02:29:34	120220	12022020	022934	191.83	13.640495	-56.947595	191.92	0.420	-1.370	2.870	191.76	-2.90	3.30	 	 	 	 	 	 	 	 	 	 	 	 	 	 	 	 	 	 	1581474574	11.39	21.09
12/02/2020 02:29:35	120220	12022020	022935	191.59	13.640450	-56.947612	191.77	-0.320	-0.340	3.160	191.58	-1.90	3.60	 	 	 	 	 	 	 	 	 	 	 	 	 	 	 	 	 	 	1581474575	10.91	20.21
12/02/2020 02:29:36	120220	12022020	022936	191.69	13.640407	-56.947627	191.94	-1.040	0.780	2.980	191.75	-0.80	3.50	 	 	 	 	 	 	 	 	 	 	 	 	 	 	 	 	 	 	1581474576	10.26	19.00
12/02/2020 02:29:37	120220	12022020	022937	192.00	13.640362	-56.947643	192.24	-1.250	1.270	2.510	192.05	-0.10	3.10	 	 	 	 	 	 	 	 	 	 	 	 	 	 	 	 	 	 	1581474577	9.99	18.50
12/02/2020 02:29:38	120220	12022020	022938	192.12	13.640312	-56.947657	192.23	-0.680	0.580	2.110	192.10	-0.60	2.60	 	 	 	 	 	 	 	 	 	 	 	 	 	 	 	 	 	 	1581474578	10.20	18.89
12/02/2020 02:29:39	120220	12022020	022939	191.88	13.640255	-56.947670	191.94	0.360	-0.790	1.860	191.80	-2.00	2.40	 	 	 	 	 	 	 	 	 	 	 	 	 	 	 	 	 	 	1581474579	11.19	20.72
12/02/2020 02:29:40	120220	12022020	022940	191.56	13.640202	-56.947680	191.71	1.010	-1.410	1.750	191.54	-2.80	2.20	 	 	 	 	 	 	 	 	 	 	 	 	 	 	 	 	 	 	1581474580	12.24	22.67
12/02/2020 02:29:41	120220	12022020	022941	191.63	13.640153	-56.947690	191.90	0.690	-0.620	1.800	191.70	-2.20	2.30	 	 	 	 	 	 	 	 	 	 	 	 	 	 	 	 	 	 	1581474581	11.94	22.11
12/02/2020 02:29:42	120220	12022020	022942	192.14	13.640113	-56.947702	192.44	-0.260	0.650	1.730	192.25	-0.90	2.20	 	 	 	 	 	 	 	 	 	 	 	 	 	 	 	 	 	 	1581474582	10.33	19.13
12/02/2020 02:29:43	120220	12022020	022943	192.62	13.640070	-56.947715	192.86	-0.850	0.940	1.670	192.68	-0.40	2.20	 	 	 	 	 	 	 	 	 	 	 	 	 	 	 	 	 	 	1581474583	9.15	16.95
12/02/2020 02:29:44	120220	12022020	022944	192.86	13.640020	-56.947730	193.06	-0.550	0.070	1.620	192.89	-1.10	2.10	 	 	 	 	 	 	 	 	 	 	 	 	 	 	 	 	 	 	1581474584	9.71	17.98
12/02/2020 02:29:45	120220	12022020	022945	192.93	13.639968	-56.947745	193.08	0.260	-1.010	1.380	192.93	-2.30	1.90	 	 	 	 	 	 	 	 	 	 	 	 	 	 	 	 	 	 	1581474585	11.05	20.46
12/02/2020 02:29:46	120220	12022020	022946	192.90	13.639918	-56.947757	193.06	0.790	-1.460	1.150	192.90	-2.80	1.70	 	 	 	 	 	 	 	 	 	 	 	 	 	 	 	 	 	 	1581474586	11.62	21.52
12/02/2020 02:29:47	120220	12022020	022947	192.89	13.639870	-56.947767	193.06	0.670	-1.100	1.100	192.89	-2.60	1.60	 	 	 	 	 	 	 	 	 	 	 	 	 	 	 	 	 	 	1581474587	11.21	20.76
12/02/2020 02:29:48	120220	12022020	022948	192.86	13.639825	-56.947778	192.98	0.200	-0.470	1.210	192.83	-1.90	1.70	 	 	 	 	 	 	 	 	 	 	 	 	 	 	 	 	 	 	1581474588	10.40	19.26
12/02/2020 02:29:49	120220	12022020	022949	192.62	13.639778	-56.947792	192.71	-0.120	-0.140	1.540	192.55	-1.50	2.00	 	 	 	 	 	 	 	 	 	 	 	 	 	 	 	 	 	 	1581474589	10.01	18.54
12/02/2020 02:29:50	120220	12022020	022950	192.26	13.639730	-56.947807	192.33	-0.260	-0.220	2.040	192.18	-1.60	2.50	 	 	 	 	 	 	 	 	 	 	 	 	 	 	 	 	 	 	1581474590	10.43	19.32
12/02/2020 02:29:51	120220	12022020	022951	191.90	13.639678	-56.947823	192.01	-0.410	-0.440	2.460	191.84	-1.80	2.90	 	 	 	 	 	 	 	 	 	 	 	 	 	 	 	 	 	 	1581474591	11.06	20.48
12/02/2020 02:29:52	120220	12022020	022952	191.69	13.639628	-56.947842	191.84	-0.600	-0.460	2.660	191.66	-1.90	3.10	 	 	 	 	 	 	 	 	 	 	 	 	 	 	 	 	 	 	1581474592	11.43	21.17
12/02/2020 02:29:53	120220	12022020	022953	191.56	13.639580	-56.947858	191.72	-0.660	-0.190	2.680	191.54	-1.60	3.20	 	 	 	 	 	 	 	 	 	 	 	 	 	 	 	 	 	 	1581474593	11.37	21.06
12/02/2020 02:29:54	120220	12022020	022954	191.45	13.639532	-56.947873	191.62	-0.490	0.080	2.520	191.44	-1.30	3.00	 	 	 	 	 	 	 	 	 	 	 	 	 	 	 	 	 	 	1581474594	11.05	20.46
12/02/2020 02:29:55	120220	12022020	022955	191.49	13.639483	-56.947887	191.72	-0.180	0.300	2.110	191.54	-1.10	2.70	 	 	 	 	 	 	 	 	 	 	 	 	 	 	 	 	 	 	1581474595	10.90	20.19
12/02/2020 02:29:56	120220	12022020	022956	191.83	13.639435	-56.947897	192.09	0.060	0.560	1.580	191.92	-0.90	2.20	 	 	 	 	 	 	 	 	 	 	 	 	 	 	 	 	 	 	1581474596	10.87	20.13
12/02/2020 02:29:57	120220	12022020	022957	192.25	13.639388	-56.947907	192.47	0.220	0.570	1.100	192.31	-0.80	1.70	 	 	 	 	 	 	 	 	 	 	 	 	 	 	 	 	 	 	1581474597	10.50	19.45
12/02/2020 02:29:58	120220	12022020	022958	192.48	13.639338	-56.947915	192.67	0.440	0.070	0.780	192.51	-1.20	1.30	 	 	 	 	 	 	 	 	 	 	 	 	 	 	 	 	 	 	1581474598	10.30	19.08
12/02/2020 02:29:59	120220	12022020	022959	192.70	13.639290	-56.947925	192.92	0.590	-0.540	0.810	192.75	-1.80	1.30	 	 	 	 	 	 	 	 	 	 	 	 	 	 	 	 	 	 	1581474599	10.67	19.76
12/02/2020 02:30:00	120220	12022020	023000	192.93	13.639242	-56.947937	193.13	0.570	-0.920	1.080	192.97	-2.30	1.50	 	 	 	 	 	 	 	 	 	 	 	 	 	 	 	 	 	 	1581474600	10.85	20.09
12/02/2020 02:30:01	120220	12022020	023001	192.98	13.639195	-56.947950	193.12	0.460	-1.110	1.380	192.95	-2.50	1.80	1017.40	26.00	26.10	20.80	20.90	-1.0	73.0	73.0	391.0	25.6	261.00	10.00	67.00	12.20	16	7713.0	27.2	27.2	1581474601	10.59	19.61
12/02/2020 02:30:02	120220	12022020	023002	192.82	13.639147	-56.947963	192.94	0.320	-1.190	1.740	192.77	-2.60	2.20	 	 	 	 	 	 	 	 	 	 	 	 	 	 	 	 	 	 	1581474602	10.46	19.37
12/02/2020 02:30:03	120220	12022020	023003	192.44	13.639098	-56.947978	192.49	0.110	-1.180	2.210	192.33	-2.50	2.60	 	 	 	 	 	 	 	 	 	 	 	 	 	 	 	 	 	 	1581474603	10.60	19.63
12/02/2020 02:30:04	120220	12022020	023004	191.77	13.639050	-56.947993	191.76	-0.180	-1.170	2.710	191.61	-2.50	3.10	 	 	 	 	 	 	 	 	 	 	 	 	 	 	 	 	 	 	1581474604	10.79	19.98
12/02/2020 02:30:05	120220	12022020	023005	191.00	13.638998	-56.948012	191.05	-0.470	-0.990	3.020	190.87	-2.40	3.50	 	 	 	 	 	 	 	 	 	 	 	 	 	 	 	 	 	 	1581474605	11.19	20.72
12/02/2020 02:30:06	120220	12022020	023006	190.52	13.638948	-56.948028	190.69	-0.710	-0.340	2.960	190.48	-1.80	3.50	 	 	 	 	 	 	 	 	 	 	 	 	 	 	 	 	 	 	1581474606	11.51	21.32
12/02/2020 02:30:07	120220	12022020	023007	190.58	13.638902	-56.948042	190.88	-0.840	0.740	2.440	190.65	-0.80	3.00	 	 	 	 	 	 	 	 	 	 	 	 	 	 	 	 	 	 	1581474607	11.28	20.89
12/02/2020 02:30:08	120220	12022020	023008	191.03	13.638855	-56.948053	191.34	-0.720	1.410	1.800	191.13	-0.00	2.40	 	 	 	 	 	 	 	 	 	 	 	 	 	 	 	 	 	 	1581474608	10.56	19.56
12/02/2020 02:30:09	120220	12022020	023009	191.45	13.638805	-56.948065	191.72	-0.240	1.010	1.440	191.52	-0.20	2.00	 	 	 	 	 	 	 	 	 	 	 	 	 	 	 	 	 	 	1581474609	10.37	19.21
12/02/2020 02:30:10	120220	12022020	023010	191.75	13.638752	-56.948077	192.04	0.410	0.100	1.300	191.82	-1.10	1.80	 	 	 	 	 	 	 	 	 	 	 	 	 	 	 	 	 	 	1581474610	11.12	20.59
12/02/2020 02:30:11	120220	12022020	023011	192.22	13.638700	-56.948087	192.57	0.760	-0.270	1.040	192.36	-1.60	1.60	 	 	 	 	 	 	 	 	 	 	 	 	 	 	 	 	 	 	1581474611	11.73	21.72
12/02/2020 02:30:12	120220	12022020	023012	192.93	13.638655	-56.948095	193.29	0.580	-0.110	0.810	193.07	-1.50	1.30	 	 	 	 	 	 	 	 	 	 	 	 	 	 	 	 	 	 	1581474612	11.11	20.58
12/02/2020 02:30:13	120220	12022020	023013	193.49	13.638610	-56.948105	193.73	0.180	-0.290	1.010	193.53	-1.60	1.40	 	 	 	 	 	 	 	 	 	 	 	 	 	 	 	 	 	 	1581474613	10.03	18.58
12/02/2020 02:30:14	120220	12022020	023014	193.45	13.638562	-56.948120	193.56	0.000	-1.170	1.640	193.38	-2.40	2.00	 	 	 	 	 	 	 	 	 	 	 	 	 	 	 	 	 	 	1581474614	9.93	18.39
12/02/2020 02:30:15	120220	12022020	023015	192.93	13.638510	-56.948137	192.97	0.120	-1.970	2.330	192.79	-3.30	2.70	 	 	 	 	 	 	 	 	 	 	 	 	 	 	 	 	 	 	1581474615	10.84	20.08
12/02/2020 02:30:16	120220	12022020	023016	192.20	13.638462	-56.948153	192.25	0.280	-1.860	2.680	192.20	-3.30	3.20	 	 	 	 	 	 	 	 	 	 	 	 	 	 	 	 	 	 	1581474616	11.46	21.22
12/02/2020 02:30:17	120220	12022020	023017	191.66	13.638415	-56.948165	191.80	0.160	-0.820	2.490	191.60	-2.40	3.00	 	 	 	 	 	 	 	 	 	 	 	 	 	 	 	 	 	 	1581474617	11.09	20.54
12/02/2020 02:30:18	120220	12022020	023018	191.53	13.638370	-56.948177	191.73	-0.240	0.320	2.000	191.54	-1.20	2.60	 	 	 	 	 	 	 	 	 	 	 	 	 	 	 	 	 	 	1581474618	10.32	19.11
12/02/2020 02:30:19	120220	12022020	023019	191.68	13.638322	-56.948188	191.91	-0.560	0.800	1.450	191.72	-0.60	2.00	 	 	 	 	 	 	 	 	 	 	 	 	 	 	 	 	 	 	1581474619	10.01	18.54
12/02/2020 02:30:20	120220	12022020	023020	191.97	13.638272	-56.948200	192.20	-0.440	0.520	1.030	192.03	-0.80	1.60	 	 	 	 	 	 	 	 	 	 	 	 	 	 	 	 	 	 	1581474620	10.53	19.50
12/02/2020 02:30:21	120220	12022020	023021	192.27	13.638218	-56.948213	192.51	0.020	-0.050	1.030	192.33	-1.30	1.50	 	 	 	 	 	 	 	 	 	 	 	 	 	 	 	 	 	 	1581474621	11.30	20.93
12/02/2020 02:30:22	120220	12022020	023022	192.48	13.638167	-56.948228	192.68	0.330	-0.500	1.460	192.49	-1.80	1.90	 	 	 	 	 	 	 	 	 	 	 	 	 	 	 	 	 	 	1581474622	11.64	21.56
12/02/2020 02:30:23	120220	12022020	023023	192.41	13.638117	-56.948243	192.54	0.270	-0.680	2.050	192.37	-2.10	2.40	 	 	 	 	 	 	 	 	 	 	 	 	 	 	 	 	 	 	1581474623	11.46	21.22
12/02/2020 02:30:24	120220	12022020	023024	192.18	13.638068	-56.948258	192.33	-0.030	-0.470	2.400	192.15	-1.90	2.90	 	 	 	 	 	 	 	 	 	 	 	 	 	 	 	 	 	 	1581474624	11.16	20.67
12/02/2020 02:30:25	120220	12022020	023025	192.08	13.638023	-56.948272	192.26	-0.330	0.080	2.320	192.08	-1.40	2.80	 	 	 	 	 	 	 	 	 	 	 	 	 	 	 	 	 	 	1581474625	10.81	20.02
12/02/2020 02:30:26	120220	12022020	023026	192.09	13.637977	-56.948283	192.27	-0.360	0.350	1.930	192.10	-1.00	2.50	 	 	 	 	 	 	 	 	 	 	 	 	 	 	 	 	 	 	1581474626	10.30	19.08
12/02/2020 02:30:27	120220	12022020	023027	192.25	13.637927	-56.948295	192.50	-0.140	0.180	1.320	192.32	-1.20	1.90	 	 	 	 	 	 	 	 	 	 	 	 	 	 	 	 	 	 	1581474627	10.34	19.15
12/02/2020 02:30:28	120220	12022020	023028	192.70	13.637878	-56.948305	192.99	0.080	-0.050	0.870	192.80	-1.40	1.40	 	 	 	 	 	 	 	 	 	 	 	 	 	 	 	 	 	 	1581474628	10.81	20.02
12/02/2020 02:30:29	120220	12022020	023029	193.10	13.637830	-56.948318	193.31	0.220	-0.280	0.820	193.14	-1.60	1.30	 	 	 	 	 	 	 	 	 	 	 	 	 	 	 	 	 	 	1581474629	10.78	19.96
12/02/2020 02:30:30	120220	12022020	023030	193.21	13.637783	-56.948330	193.41	0.370	-0.560	0.910	193.24	-1.90	1.40	 	 	 	 	 	 	 	 	 	 	 	 	 	 	 	 	 	 	1581474630	10.59	19.61
12/02/2020 02:30:31	120220	12022020	023031	193.36	13.637735	-56.948342	193.56	0.490	-0.760	0.900	193.39	-2.10	1.40	 	 	 	 	 	 	 	 	 	 	 	 	 	 	 	 	 	 	1581474631	10.64	19.71
12/02/2020 02:30:32	120220	12022020	023032	193.38	13.637685	-56.948352	193.52	0.500	-1.070	1.060	193.34	-2.40	1.50	 	 	 	 	 	 	 	 	 	 	 	 	 	 	 	 	 	 	1581474632	10.58	19.59
12/02/2020 02:30:33	120220	12022020	023033	193.06	13.637635	-56.948365	193.12	0.330	-1.430	1.550	192.95	-2.80	1.90	 	 	 	 	 	 	 	 	 	 	 	 	 	 	 	 	 	 	1581474633	10.76	19.93
12/02/2020 02:30:34	120220	12022020	023034	192.45	13.637585	-56.948382	192.49	-0.010	-1.390	2.220	192.32	-2.80	2.60	 	 	 	 	 	 	 	 	 	 	 	 	 	 	 	 	 	 	1581474634	11.16	20.67
12/02/2020 02:30:35	120220	12022020	023035	191.83	13.637537	-56.948398	191.94	-0.420	-0.740	2.620	191.75	-2.20	3.10	 	 	 	 	 	 	 	 	 	 	 	 	 	 	 	 	 	 	1581474635	11.25	20.84
12/02/2020 02:30:36	120220	12022020	023036	191.56	13.637490	-56.948413	191.75	-0.780	0.150	2.660	191.55	-1.30	3.20	 	 	 	 	 	 	 	 	 	 	 	 	 	 	 	 	 	 	1581474636	10.99	20.35
12/02/2020 02:30:37	120220	12022020	023037	191.56	13.637442	-56.948430	191.78	-0.860	0.560	2.500	191.58	-0.80	3.00	 	 	 	 	 	 	 	 	 	 	 	 	 	 	 	 	 	 	1581474637	10.65	19.72
12/02/2020 02:30:38	120220	12022020	023038	191.73	13.637390	-56.948445	192.00	-0.590	0.530	2.120	191.79	-0.80	2.70	 	 	 	 	 	 	 	 	 	 	 	 	 	 	 	 	 	 	1581474638	11.03	20.43
12/02/2020 02:30:39	120220	12022020	023039	192.17	13.637338	-56.948458	192.51	-0.230	0.630	1.580	192.31	-0.80	2.10	 	 	 	 	 	 	 	 	 	 	 	 	 	 	 	 	 	 	1581474639	11.51	21.32
12/02/2020 02:30:40	120220	12022020	023040	192.95	13.637292	-56.948468	193.34	-0.040	0.960	1.030	193.13	-0.50	1.60	 	 	 	 	 	 	 	 	 	 	 	 	 	 	 	 	 	 	1581474640	11.26	20.85
12/02/2020 02:30:41	120220	12022020	023041	193.86	13.637245	-56.948478	194.23	0.020	1.040	0.590	194.03	-0.30	1.10	 	 	 	 	 	 	 	 	 	 	 	 	 	 	 	 	 	 	1581474641	10.46	19.37
12/02/2020 02:30:42	120220	12022020	023042	194.54	13.637198	-56.948490	194.80	0.260	0.350	0.390	194.62	-0.90	0.90	 	 	 	 	 	 	 	 	 	 	 	 	 	 	 	 	 	 	1581474642	10.05	18.61
12/02/2020 02:30:43	120220	12022020	023043	194.84	13.637148	-56.948502	195.05	0.770	-0.990	0.550	194.87	-2.10	1.00	 	 	 	 	 	 	 	 	 	 	 	 	 	 	 	 	 	 	1581474643	10.41	19.28
12/02/2020 02:30:44	120220	12022020	023044	194.86	13.637097	-56.948515	195.00	1.230	-2.180	1.020	194.82	-3.40	1.40	 	 	 	 	 	 	 	 	 	 	 	 	 	 	 	 	 	 	1581474644	11.15	20.65
12/02/2020 02:30:45	120220	12022020	023045	194.55	13.637047	-56.948528	194.64	1.140	-2.370	1.660	194.46	-3.80	2.00	 	 	 	 	 	 	 	 	 	 	 	 	 	 	 	 	 	 	1581474645	11.44	21.19
12/02/2020 02:30:46	120220	12022020	023046	194.05	13.637002	-56.948543	194.13	0.370	-1.540	2.300	193.94	-3.10	2.70	 	 	 	 	 	 	 	 	 	 	 	 	 	 	 	 	 	 	1581474646	10.92	20.22
12/02/2020 02:30:47	120220	12022020	023047	193.56	13.636958	-56.948560	193.67	-0.610	-0.530	2.570	193.48	-2.00	3.00	 	 	 	 	 	 	 	 	 	 	 	 	 	 	 	 	 	 	1581474647	10.12	18.74
12/02/2020 02:30:48	120220	12022020	023048	193.24	13.636912	-56.948577	193.39	-1.170	0.040	2.420	193.20	-1.40	2.90	 	 	 	 	 	 	 	 	 	 	 	 	 	 	 	 	 	 	1581474648	10.07	18.65
12/02/2020 02:30:49	120220	12022020	023049	193.04	13.636862	-56.948595	193.19	-1.130	0.120	2.140	193.00	-1.30	2.70	 	 	 	 	 	 	 	 	 	 	 	 	 	 	 	 	 	 	1581474649	10.70	19.82
12/02/2020 02:30:50	120220	12022020	023050	192.94	13.636810	-56.948612	193.13	-0.700	0.160	1.580	192.95	-1.20	2.20	 	 	 	 	 	 	 	 	 	 	 	 	 	 	 	 	 	 	1581474650	11.43	21.17
12/02/2020 02:30:51	120220	12022020	023051	193.07	13.636760	-56.948625	193.31	-0.270	0.350	0.970	193.13	-1.10	1.50	 	 	 	 	 	 	 	 	 	 	 	 	 	 	 	 	 	 	1581474651	11.55	21.39
12/02/2020 02:30:52	120220	12022020	023052	193.38	13.636710	-56.948637	193.64	-0.060	0.420	0.770	193.45	-1.00	1.30	 	 	 	 	 	 	 	 	 	 	 	 	 	 	 	 	 	 	1581474652	11.18	20.71
12/02/2020 02:30:53	120220	12022020	023053	193.77	13.636662	-56.948652	194.08	-0.040	0.370	0.900	193.87	-1.00	1.40	 	 	 	 	 	 	 	 	 	 	 	 	 	 	 	 	 	 	1581474653	10.99	20.35
12/02/2020 02:30:54	120220	12022020	023054	194.32	13.636615	-56.948665	194.66	0.020	0.390	0.930	194.32	-1.00	1.40	 	 	 	 	 	 	 	 	 	 	 	 	 	 	 	 	 	 	1581474654	10.90	20.19
12/02/2020 02:30:55	120220	12022020	023055	194.88	13.636568	-56.948678	195.18	0.320	0.260	0.840	194.96	-1.10	1.30	 	 	 	 	 	 	 	 	 	 	 	 	 	 	 	 	 	 	1581474655	10.57	19.58
12/02/2020 02:30:56	120220	12022020	023056	195.14	13.636520	-56.948690	195.33	0.760	-0.330	0.930	195.15	-1.60	1.40	 	 	 	 	 	 	 	 	 	 	 	 	 	 	 	 	 	 	1581474656	10.35	19.17
12/02/2020 02:30:57	120220	12022020	023057	195.05	13.636470	-56.948703	195.17	1.010	-1.090	1.290	195.00	-2.40	1.70	 	 	 	 	 	 	 	 	 	 	 	 	 	 	 	 	 	 	1581474657	10.71	19.83
12/02/2020 02:30:58	120220	12022020	023058	194.72	13.636420	-56.948718	194.82	0.820	-1.430	1.920	194.64	-2.80	2.30	 	 	 	 	 	 	 	 	 	 	 	 	 	 	 	 	 	 	1581474658	11.12	20.59
12/02/2020 02:30:59	120220	12022020	023059	194.30	13.636373	-56.948735	194.40	0.270	-1.180	2.350	194.22	-2.60	2.80	 	 	 	 	 	 	 	 	 	 	 	 	 	 	 	 	 	 	1581474659	10.96	20.30
12/02/2020 02:31:00	120220	12022020	023100	194.01	13.636328	-56.948752	194.17	-0.340	-0.610	2.320	193.99	-2.10	2.80	 	 	 	 	 	 	 	 	 	 	 	 	 	 	 	 	 	 	1581474660	10.41	19.28
12/02/2020 02:31:01	120220	12022020	023101	194.01	13.636283	-56.948768	194.23	-0.710	-0.020	2.040	194.04	-1.50	2.60	1017.40	26.10	26.10	20.90	21.00	-1.0	73.0	73.0	392.0	25.6	262.00	9.20	66.00	11.40	16	7792.0	27.2	27.2	1581474661	10.41	19.28
12/02/2020 02:31:02	120220	12022020	023102	194.24	13.636237	-56.948783	194.48	-0.700	0.340	1.470	194.29	-1.10	2.10	 	 	 	 	 	 	 	 	 	 	 	 	 	 	 	 	 	 	1581474662	10.44	19.33
12/02/2020 02:31:03	120220	12022020	023103	194.46	13.636187	-56.948798	194.66	-0.430	0.140	1.000	194.48	-1.20	1.50	 	 	 	 	 	 	 	 	 	 	 	 	 	 	 	 	 	 	1581474663	10.55	19.54
12/02/2020 02:31:04	120220	12022020	023104	194.39	13.636135	-56.948813	194.47	-0.050	-0.530	0.980	194.32	-1.80	1.50	 	 	 	 	 	 	 	 	 	 	 	 	 	 	 	 	 	 	1581474664	10.96	20.30
12/02/2020 02:31:05	120220	12022020	023105	193.97	13.636083	-56.948828	194.03	0.330	-1.040	1.110	193.88	-2.40	1.60	 	 	 	 	 	 	 	 	 	 	 	 	 	 	 	 	 	 	1581474665	11.55	21.39
12/02/2020 02:31:06	120220	12022020	023106	193.60	13.636033	-56.948842	193.71	0.520	-0.840	1.330	193.60	-2.30	1.80	 	 	 	 	 	 	 	 	 	 	 	 	 	 	 	 	 	 	1581474666	11.72	21.71
12/02/2020 02:31:07	120220	12022020	023107	193.36	13.635985	-56.948855	193.49	0.440	-0.230	1.490	193.32	-1.70	2.00	 	 	 	 	 	 	 	 	 	 	 	 	 	 	 	 	 	 	1581474667	11.14	20.63
12/02/2020 02:31:08	120220	12022020	023108	193.24	13.635938	-56.948867	193.44	0.140	0.280	1.580	193.25	-1.20	2.10	 	 	 	 	 	 	 	 	 	 	 	 	 	 	 	 	 	 	1581474668	10.59	19.61
12/02/2020 02:31:09	120220	12022020	023109	193.45	13.635888	-56.948880	193.76	-0.200	0.430	1.530	193.54	-0.90	2.00	 	 	 	 	 	 	 	 	 	 	 	 	 	 	 	 	 	 	1581474669	10.59	19.61
12/02/2020 02:31:10	120220	12022020	023110	194.04	13.635840	-56.948895	194.39	-0.450	0.360	1.440	194.17	-1.00	1.90	 	 	 	 	 	 	 	 	 	 	 	 	 	 	 	 	 	 	1581474670	10.84	20.08
12/02/2020 02:31:11	120220	12022020	023111	194.62	13.635792	-56.948912	194.90	-0.530	0.050	1.560	194.70	-1.30	2.00	 	 	 	 	 	 	 	 	 	 	 	 	 	 	 	 	 	 	1581474671	10.92	20.22
12/02/2020 02:31:12	120220	12022020	023112	194.84	13.635743	-56.948932	195.04	-0.460	-0.430	1.950	194.84	-1.70	2.40	 	 	 	 	 	 	 	 	 	 	 	 	 	 	 	 	 	 	1581474672	10.90	20.19
12/02/2020 02:31:13	120220	12022020	023113	194.84	13.635697	-56.948950	195.02	-0.290	-0.740	2.150	194.83	-2.10	2.60	 	 	 	 	 	 	 	 	 	 	 	 	 	 	 	 	 	 	1581474673	11.09	20.54
12/02/2020 02:31:14	120220	12022020	023114	194.79	13.635650	-56.948967	194.96	0.010	-0.710	1.970	194.77	-2.10	2.50	 	 	 	 	 	 	 	 	 	 	 	 	 	 	 	 	 	 	1581474674	11.01	20.39
12/02/2020 02:31:15	120220	12022020	023115	194.68	13.635602	-56.948980	194.82	0.450	-0.540	1.470	194.65	-1.90	2.00	 	 	 	 	 	 	 	 	 	 	 	 	 	 	 	 	 	 	1581474675	10.66	19.74
12/02/2020 02:31:16	120220	12022020	023116	194.53	13.635553	-56.948990	194.67	0.830	-0.410	0.900	194.51	-1.80	1.50	 	 	 	 	 	 	 	 	 	 	 	 	 	 	 	 	 	 	1581474676	10.51	19.46
12/02/2020 02:31:17	120220	12022020	023117	194.43	13.635505	-56.949000	194.59	0.910	-0.310	0.550	194.43	-1.70	1.10	 	 	 	 	 	 	 	 	 	 	 	 	 	 	 	 	 	 	1581474677	10.69	19.80
12/02/2020 02:31:18	120220	12022020	023118	194.41	13.635457	-56.949012	194.54	0.670	-0.300	0.650	194.39	-1.70	1.10	 	 	 	 	 	 	 	 	 	 	 	 	 	 	 	 	 	 	1581474678	10.78	19.96
12/02/2020 02:31:19	120220	12022020	023119	194.15	13.635407	-56.949025	194.19	0.470	-0.590	1.110	194.04	-1.90	1.50	 	 	 	 	 	 	 	 	 	 	 	 	 	 	 	 	 	 	1581474679	10.77	19.95
12/02/2020 02:31:20	120220	12022020	023120	193.52	13.635353	-56.949042	193.57	0.360	-0.910	1.770	193.40	-2.30	2.20	 	 	 	 	 	 	 	 	 	 	 	 	 	 	 	 	 	 	1581474680	11.14	20.63
12/02/2020 02:31:21	120220	12022020	023121	193.17	13.635305	-56.949058	193.40	-0.020	-0.510	2.290	193.18	-2.00	2.70	 	 	 	 	 	 	 	 	 	 	 	 	 	 	 	 	 	 	1581474681	11.65	21.58
12/02/2020 02:31:22	120220	12022020	023122	193.52	13.635260	-56.949075	193.90	-0.720	0.360	2.440	193.65	-1.10	2.90	 	 	 	 	 	 	 	 	 	 	 	 	 	 	 	 	 	 	1581474682	11.20	20.74
12/02/2020 02:31:23	120220	12022020	023123	194.32	13.635215	-56.949095	194.74	-1.310	0.840	2.280	194.49	-0.60	2.80	 	 	 	 	 	 	 	 	 	 	 	 	 	 	 	 	 	 	1581474683	10.39	19.24
12/02/2020 02:31:24	120220	12022020	023124	195.09	13.635168	-56.949115	195.46	-1.270	0.510	2.050	195.22	-0.80	2.60	 	 	 	 	 	 	 	 	 	 	 	 	 	 	 	 	 	 	1581474684	10.33	19.13
12/02/2020 02:31:25	120220	12022020	023125	195.68	13.635118	-56.949133	196.02	-0.620	-0.130	1.560	195.79	-1.40	2.10	 	 	 	 	 	 	 	 	 	 	 	 	 	 	 	 	 	 	1581474685	10.98	20.33
12/02/2020 02:31:26	120220	12022020	023126	196.16	13.635070	-56.949147	196.45	0.100	-0.570	1.010	196.23	-1.90	1.60	 	 	 	 	 	 	 	 	 	 	 	 	 	 	 	 	 	 	1581474686	11.30	20.93
12/02/2020 02:31:27	120220	12022020	023127	196.39	13.635022	-56.949160	196.57	0.510	-0.830	0.790	196.39	-2.20	1.30	 	 	 	 	 	 	 	 	 	 	 	 	 	 	 	 	 	 	1581474687	11.00	20.37
12/02/2020 02:31:28	120220	12022020	023128	196.23	13.634975	-56.949175	196.32	0.640	-0.910	0.890	196.16	-2.30	1.40	 	 	 	 	 	 	 	 	 	 	 	 	 	 	 	 	 	 	1581474688	10.67	19.76
12/02/2020 02:31:29	120220	12022020	023129	195.74	13.634927	-56.949188	195.76	0.670	-0.780	1.210	195.61	-2.20	1.70	 	 	 	 	 	 	 	 	 	 	 	 	 	 	 	 	 	 	1581474689	10.55	19.54
12/02/2020 02:31:30	120220	12022020	023130	195.09	13.634880	-56.949200	195.11	0.670	-0.610	1.440	195.09	-2.00	1.90	 	 	 	 	 	 	 	 	 	 	 	 	 	 	 	 	 	 	1581474690	10.49	19.43
12/02/2020 02:31:31	120220	12022020	023131	194.53	13.634830	-56.949215	194.58	0.520	-0.610	1.620	194.42	-2.00	2.10	 	 	 	 	 	 	 	 	 	 	 	 	 	 	 	 	 	 	1581474691	10.67	19.76
12/02/2020 02:31:32	120220	12022020	023132	194.03	13.634780	-56.949232	194.10	0.210	-0.730	2.050	193.94	-2.10	2.50	 	 	 	 	 	 	 	 	 	 	 	 	 	 	 	 	 	 	1581474692	11.03	20.43
12/02/2020 02:31:33	120220	12022020	023133	193.67	13.634730	-56.949252	193.82	-0.200	-0.500	2.520	193.63	-2.00	2.90	 	 	 	 	 	 	 	 	 	 	 	 	 	 	 	 	 	 	1581474693	11.47	21.24
12/02/2020 02:31:34	120220	12022020	023134	193.60	13.634683	-56.949272	193.81	-0.670	0.200	2.830	193.60	-1.30	3.30	 	 	 	 	 	 	 	 	 	 	 	 	 	 	 	 	 	 	1581474694	11.45	21.21
12/02/2020 02:31:35	120220	12022020	023135	193.70	13.634638	-56.949292	193.94	-0.990	0.870	2.930	193.74	-0.60	3.40	 	 	 	 	 	 	 	 	 	 	 	 	 	 	 	 	 	 	1581474695	10.89	20.17
12/02/2020 02:31:36	120220	12022020	023136	193.98	13.634592	-56.949310	194.26	-0.910	1.040	2.590	194.06	-0.40	3.10	 	 	 	 	 	 	 	 	 	 	 	 	 	 	 	 	 	 	1581474696	10.60	19.63
12/02/2020 02:31:37	120220	12022020	023137	194.48	13.634543	-56.949325	194.81	-0.480	0.800	1.900	194.61	-0.60	2.50	 	 	 	 	 	 	 	 	 	 	 	 	 	 	 	 	 	 	1581474697	10.74	19.89
12/02/2020 02:31:38	120220	12022020	023138	195.12	13.634495	-56.949338	195.41	0.030	0.300	1.130	195.23	-1.00	1.70	 	 	 	 	 	 	 	 	 	 	 	 	 	 	 	 	 	 	1581474698	10.84	20.08
12/02/2020 02:31:39	120220	12022020	023139	195.50	13.634447	-56.949350	195.67	0.450	-0.320	0.730	195.52	-1.60	1.30	 	 	 	 	 	 	 	 	 	 	 	 	 	 	 	 	 	 	1581474699	10.75	19.91
12/02/2020 02:31:40	120220	12022020	023140	195.45	13.634400	-56.949363	195.56	0.740	-0.780	0.770	195.42	-2.10	1.20	 	 	 	 	 	 	 	 	 	 	 	 	 	 	 	 	 	 	1581474700	10.66	19.74
12/02/2020 02:31:41	120220	12022020	023141	195.24	13.634353	-56.949373	195.36	0.850	-0.870	0.840	195.20	-2.30	1.30	 	 	 	 	 	 	 	 	 	 	 	 	 	 	 	 	 	 	1581474701	10.47	19.39
12/02/2020 02:31:42	120220	12022020	023142	194.99	13.634308	-56.949385	195.09	0.810	-1.040	0.970	194.93	-2.40	1.40	 	 	 	 	 	 	 	 	 	 	 	 	 	 	 	 	 	 	1581474702	10.10	18.71
12/02/2020 02:31:43	120220	12022020	023143	194.59	13.634258	-56.949398	194.64	0.690	-1.510	1.440	194.49	-2.80	1.80	 	 	 	 	 	 	 	 	 	 	 	 	 	 	 	 	 	 	1581474703	10.18	18.85
12/02/2020 02:31:44	120220	12022020	023144	194.00	13.634210	-56.949415	194.01	0.450	-1.770	2.210	193.86	-3.10	2.60	 	 	 	 	 	 	 	 	 	 	 	 	 	 	 	 	 	 	1581474704	10.84	20.08
12/02/2020 02:31:45	120220	12022020	023145	193.27	13.634162	-56.949433	193.30	0.000	-1.390	2.970	193.12	-2.90	3.40	 	 	 	 	 	 	 	 	 	 	 	 	 	 	 	 	 	 	1581474705	11.27	20.87
12/02/2020 02:31:46	120220	12022020	023146	192.60	13.634113	-56.949452	192.72	-0.610	-0.570	3.340	192.51	-2.10	3.80	 	 	 	 	 	 	 	 	 	 	 	 	 	 	 	 	 	 	1581474706	11.12	20.59
12/02/2020 02:31:47	120220	12022020	023147	192.35	13.634067	-56.949470	192.57	-1.170	0.260	3.360	192.36	-1.20	3.90	 	 	 	 	 	 	 	 	 	 	 	 	 	 	 	 	 	 	1581474707	10.90	20.19
12/02/2020 02:31:48	120220	12022020	023148	192.55	13.634018	-56.949488	192.85	-1.440	0.780	3.120	192.64	-0.70	3.70	 	 	 	 	 	 	 	 	 	 	 	 	 	 	 	 	 	 	1581474708	10.91	20.21
12/02/2020 02:31:49	120220	12022020	023149	193.02	13.633968	-56.949507	193.35	-1.250	0.890	2.590	193.14	-0.50	3.20	 	 	 	 	 	 	 	 	 	 	 	 	 	 	 	 	 	 	1581474709	11.10	20.56
12/02/2020 02:31:50	120220	12022020	023150	193.62	13.633918	-56.949522	193.97	-0.710	0.830	1.940	193.76	-0.50	2.50	 	 	 	 	 	 	 	 	 	 	 	 	 	 	 	 	 	 	1581474710	11.29	20.91
12/02/2020 02:31:51	120220	12022020	023151	194.36	13.633870	-56.949533	194.72	-0.050	0.870	1.150	194.52	-0.50	1.80	 	 	 	 	 	 	 	 	 	 	 	 	 	 	 	 	 	 	1581474711	11.24	20.82
12/02/2020 02:31:52	120220	12022020	023152	195.10	13.633822	-56.949543	195.41	0.500	0.810	0.420	195.23	-0.50	1.00	 	 	 	 	 	 	 	 	 	 	 	 	 	 	 	 	 	 	1581474712	10.76	19.93
12/02/2020 02:31:53	120220	12022020	023153	195.65	13.633775	-56.949552	195.90	0.840	0.260	0.080	195.72	-1.00	0.60	 	 	 	 	 	 	 	 	 	 	 	 	 	 	 	 	 	 	1581474713	10.35	19.17
12/02/2020 02:31:54	120220	12022020	023154	195.95	13.633727	-56.949563	196.15	1.040	-0.580	0.230	195.98	-1.90	0.70	 	 	 	 	 	 	 	 	 	 	 	 	 	 	 	 	 	 	1581474714	10.46	19.37
12/02/2020 02:31:55	120220	12022020	023155	196.02	13.633678	-56.949575	196.19	1.090	-1.200	0.660	196.01	-2.50	1.10	 	 	 	 	 	 	 	 	 	 	 	 	 	 	 	 	 	 	1581474715	10.63	19.69
12/02/2020 02:31:56	120220	12022020	023156	195.80	13.633633	-56.949590	195.89	0.890	-1.460	1.330	195.80	-2.80	1.70	 	 	 	 	 	 	 	 	 	 	 	 	 	 	 	 	 	 	1581474716	10.47	19.39
12/02/2020 02:31:57	120220	12022020	023157	195.18	13.633588	-56.949607	195.17	0.500	-1.580	2.060	195.00	-2.90	2.40	 	 	 	 	 	 	 	 	 	 	 	 	 	 	 	 	 	 	1581474717	10.18	18.85
12/02/2020 02:31:58	120220	12022020	023158	194.21	13.633542	-56.949623	194.19	0.120	-1.590	2.650	194.02	-3.00	3.10	 	 	 	 	 	 	 	 	 	 	 	 	 	 	 	 	 	 	1581474718	10.32	19.11
12/02/2020 02:31:59	120220	12022020	023159	193.29	13.633493	-56.949640	193.36	-0.200	-1.220	2.910	193.16	-2.70	3.40	 	 	 	 	 	 	 	 	 	 	 	 	 	 	 	 	 	 	1581474719	10.73	19.87
12/02/2020 02:32:00	120220	12022020	023200	192.87	13.633447	-56.949657	193.09	-0.560	-0.510	2.730	192.87	-1.90	3.20	 	 	 	 	 	 	 	 	 	 	 	 	 	 	 	 	 	 	1581474720	10.91	20.21
12/02/2020 02:32:01	120220	12022020	023201	193.06	13.633400	-56.949675	193.39	-1.130	0.330	2.370	193.16	-1.10	2.90	1017.40	26.00	26.10	20.80	20.90	-1.0	73.0	73.0	392.0	25.6	267.00	9.30	71.00	11.10	16	7978.0	27.2	27.2	1581474721	10.71	19.83
12/02/2020 02:32:02	120220	12022020	023202	193.58	13.633353	-56.949697	193.91	-1.410	0.620	2.110	193.69	-0.80	2.60	 	 	 	 	 	 	 	 	 	 	 	 	 	 	 	 	 	 	1581474722	10.65	19.72
12/02/2020 02:32:03	120220	12022020	023203	194.11	13.633305	-56.949717	194.43	-1.050	0.470	1.770	194.22	-0.90	2.30	 	 	 	 	 	 	 	 	 	 	 	 	 	 	 	 	 	 	1581474723	11.03	20.43
12/02/2020 02:32:04	120220	12022020	023204	194.66	13.633255	-56.949732	194.99	-0.170	0.380	1.100	194.79	-1.00	1.70	 	 	 	 	 	 	 	 	 	 	 	 	 	 	 	 	 	 	1581474724	11.39	21.09
12/02/2020 02:32:05	120220	12022020	023205	195.29	13.633207	-56.949742	195.61	0.640	0.490	0.350	195.41	-0.90	0.90	 	 	 	 	 	 	 	 	 	 	 	 	 	 	 	 	 	 	1581474725	11.20	20.74
12/02/2020 02:32:06	120220	12022020	023206	195.70	13.633158	-56.949748	195.90	0.990	0.320	0.060	195.72	-1.00	0.50	 	 	 	 	 	 	 	 	 	 	 	 	 	 	 	 	 	 	1581474726	10.65	19.72
12/02/2020 02:32:07	120220	12022020	023207	195.65	13.633108	-56.949758	195.79	0.850	-0.210	0.540	195.61	-1.50	0.90	 	 	 	 	 	 	 	 	 	 	 	 	 	 	 	 	 	 	1581474727	10.52	19.48
12/02/2020 02:32:08	120220	12022020	023208	195.38	13.633062	-56.949773	195.51	0.400	-0.590	1.410	195.31	-1.90	1.80	 	 	 	 	 	 	 	 	 	 	 	 	 	 	 	 	 	 	1581474728	10.71	19.83
12/02/2020 02:32:09	120220	12022020	023209	194.92	13.633017	-56.949792	194.96	-0.050	-0.840	2.400	194.78	-2.20	2.70	 	 	 	 	 	 	 	 	 	 	 	 	 	 	 	 	 	 	1581474729	10.59	19.61
12/02/2020 02:32:10	120220	12022020	023210	194.11	13.632970	-56.949813	194.10	-0.200	-1.140	3.190	193.92	-2.50	3.60	 	 	 	 	 	 	 	 	 	 	 	 	 	 	 	 	 	 	1581474730	10.49	19.43
12/02/2020 02:32:11	120220	12022020	023211	193.25	13.632923	-56.949833	193.32	-0.120	-1.060	3.330	193.14	-2.50	3.80	 	 	 	 	 	 	 	 	 	 	 	 	 	 	 	 	 	 	1581474731	10.89	20.17
12/02/2020 02:32:12	120220	12022020	023212	192.84	13.632878	-56.949848	193.02	-0.040	-0.420	2.750	192.82	-1.90	3.30	 	 	 	 	 	 	 	 	 	 	 	 	 	 	 	 	 	 	1581474732	10.91	20.21
12/02/2020 02:32:13	120220	12022020	023213	192.84	13.632833	-56.949860	193.04	-0.010	0.100	1.900	192.86	-1.30	2.50	 	 	 	 	 	 	 	 	 	 	 	 	 	 	 	 	 	 	1581474733	10.24	18.96
12/02/2020 02:32:14	120220	12022020	023214	192.93	13.632785	-56.949872	193.13	0.020	-0.020	1.380	192.96	-1.30	1.90	 	 	 	 	 	 	 	 	 	 	 	 	 	 	 	 	 	 	1581474734	10.04	18.59
12/02/2020 02:32:15	120220	12022020	023215	193.13	13.632735	-56.949887	193.40	-0.040	-0.400	1.410	193.18	-1.70	1.90	 	 	 	 	 	 	 	 	 	 	 	 	 	 	 	 	 	 	1581474735	10.66	19.74
12/02/2020 02:32:16	120220	12022020	023216	193.36	13.632688	-56.949905	193.60	-0.180	-0.520	1.750	193.39	-1.90	2.20	 	 	 	 	 	 	 	 	 	 	 	 	 	 	 	 	 	 	1581474736	11.10	20.56
12/02/2020 02:32:17	120220	12022020	023217	193.38	13.632642	-56.949922	193.58	-0.150	-0.390	2.150	193.37	-1.80	2.60	 	 	 	 	 	 	 	 	 	 	 	 	 	 	 	 	 	 	1581474737	10.86	20.11
12/02/2020 02:32:18	120220	12022020	023218	193.26	13.632595	-56.949937	193.44	0.200	-0.210	2.180	193.23	-1.60	2.70	 	 	 	 	 	 	 	 	 	 	 	 	 	 	 	 	 	 	1581474738	10.59	19.61
12/02/2020 02:32:19	120220	12022020	023219	193.19	13.632547	-56.949948	193.41	0.580	-0.050	1.920	193.20	-1.40	2.50	 	 	 	 	 	 	 	 	 	 	 	 	 	 	 	 	 	 	1581474739	10.51	19.46
12/02/2020 02:32:20	120220	12022020	023220	193.29	13.632498	-56.949957	193.57	0.580	0.010	1.610	193.33	-1.30	2.10	 	 	 	 	 	 	 	 	 	 	 	 	 	 	 	 	 	 	1581474740	10.58	19.59
12/02/2020 02:32:21	120220	12022020	023221	193.50	13.632450	-56.949967	193.75	0.210	-0.030	1.530	193.54	-1.40	2.00	 	 	 	 	 	 	 	 	 	 	 	 	 	 	 	 	 	 	1581474741	10.59	19.61
12/02/2020 02:32:22	120220	12022020	023222	193.59	13.632403	-56.949982	193.78	-0.290	-0.260	1.800	193.57	-1.60	2.20	 	 	 	 	 	 	 	 	 	 	 	 	 	 	 	 	 	 	1581474742	10.57	19.58
12/02/2020 02:32:23	120220	12022020	023223	193.48	13.632355	-56.949998	193.68	-0.410	-0.510	2.090	193.45	-1.80	2.50	 	 	 	 	 	 	 	 	 	 	 	 	 	 	 	 	 	 	1581474743	10.67	19.76
12/02/2020 02:32:24	120220	12022020	023224	193.30	13.632308	-56.950015	193.45	-0.160	-0.610	2.280	193.25	-2.00	2.70	 	 	 	 	 	 	 	 	 	 	 	 	 	 	 	 	 	 	1581474744	10.84	20.08
12/02/2020 02:32:25	120220	12022020	023225	192.97	13.632260	-56.950030	193.13	0.180	-0.570	2.160	192.90	-1.90	2.70	 	 	 	 	 	 	 	 	 	 	 	 	 	 	 	 	 	 	1581474745	10.70	19.82
12/02/2020 02:32:26	120220	12022020	023226	192.73	13.632212	-56.950042	192.93	0.200	-0.390	1.940	192.70	-1.80	2.40	 	 	 	 	 	 	 	 	 	 	 	 	 	 	 	 	 	 	1581474746	10.70	19.82
12/02/2020 02:32:27	120220	12022020	023227	192.68	13.632165	-56.950057	192.92	-0.170	-0.190	1.950	192.70	-1.60	2.40	 	 	 	 	 	 	 	 	 	 	 	 	 	 	 	 	 	 	1581474747	10.59	19.61
12/02/2020 02:32:28	120220	12022020	023228	192.75	13.632120	-56.950073	192.97	-0.580	-0.120	2.120	192.76	-1.50	2.60	 	 	 	 	 	 	 	 	 	 	 	 	 	 	 	 	 	 	1581474748	10.47	19.39
12/02/2020 02:32:29	120220	12022020	023229	192.78	13.632073	-56.950092	192.98	-0.540	-0.210	2.260	192.78	-1.50	2.70	 	 	 	 	 	 	 	 	 	 	 	 	 	 	 	 	 	 	1581474749	10.54	19.52
12/02/2020 02:32:30	120220	12022020	023230	192.79	13.632025	-56.950107	193.01	0.050	-0.470	2.110	192.81	-1.80	2.60	 	 	 	 	 	 	 	 	 	 	 	 	 	 	 	 	 	 	1581474750	10.73	19.87
12/02/2020 02:32:31	120220	12022020	023231	192.87	13.631973	-56.950118	193.08	0.760	-0.650	1.650	192.89	-2.00	2.20	 	 	 	 	 	 	 	 	 	 	 	 	 	 	 	 	 	 	1581474751	10.97	20.32
12/02/2020 02:32:32	120220	12022020	023232	193.05	13.631925	-56.950127	193.31	0.970	-0.350	1.240	193.11	-1.80	1.80	 	 	 	 	 	 	 	 	 	 	 	 	 	 	 	 	 	 	1581474752	11.03	20.43
12/02/2020 02:32:33	120220	12022020	023233	193.42	13.631880	-56.950133	193.67	0.490	0.250	1.070	193.48	-1.20	1.60	 	 	 	 	 	 	 	 	 	 	 	 	 	 	 	 	 	 	1581474753	10.66	19.74
12/02/2020 02:32:34	120220	12022020	023234	193.59	13.631833	-56.950147	193.74	-0.260	0.280	1.490	193.57	-1.00	1.90	 	 	 	 	 	 	 	 	 	 	 	 	 	 	 	 	 	 	1581474754	9.99	18.50
12/02/2020 02:32:35	120220	12022020	023235	193.26	13.631785	-56.950165	193.31	-0.680	-0.470	2.430	193.13	-1.70	2.80	 	 	 	 	 	 	 	 	 	 	 	 	 	 	 	 	 	 	1581474755	10.20	18.89
12/02/2020 02:32:36	120220	12022020	023236	192.60	13.631733	-56.950187	192.70	-0.560	-1.110	3.060	192.50	-2.40	3.50	 	 	 	 	 	 	 	 	 	 	 	 	 	 	 	 	 	 	1581474756	11.27	20.87
12/02/2020 02:32:37	120220	12022020	023237	192.25	13.631687	-56.950203	192.47	-0.280	-0.840	2.880	192.24	-2.30	3.40	 	 	 	 	 	 	 	 	 	 	 	 	 	 	 	 	 	 	1581474757	11.74	21.74
12/02/2020 02:32:38	120220	12022020	023238	192.34	13.631642	-56.950215	192.63	-0.140	0.030	2.110	192.40	-1.50	2.70	 	 	 	 	 	 	 	 	 	 	 	 	 	 	 	 	 	 	1581474758	10.90	20.19
12/02/2020 02:32:39	120220	12022020	023239	192.62	13.631597	-56.950225	192.87	-0.100	0.590	1.210	192.67	-0.80	1.80	 	 	 	 	 	 	 	 	 	 	 	 	 	 	 	 	 	 	1581474759	9.90	18.33
12/02/2020 02:32:40	120220	12022020	023240	192.80	13.631548	-56.950233	193.03	0.010	0.350	0.700	192.82	-0.90	1.20	 	 	 	 	 	 	 	 	 	 	 	 	 	 	 	 	 	 	1581474760	9.78	18.11
12/02/2020 02:32:41	120220	12022020	023241	192.90	13.631500	-56.950247	193.12	0.110	-0.380	0.770	192.92	-1.60	1.20	 	 	 	 	 	 	 	 	 	 	 	 	 	 	 	 	 	 	1581474761	10.47	19.39
12/02/2020 02:32:42	120220	12022020	023242	192.86	13.631450	-56.950262	193.04	0.180	-1.060	1.120	192.81	-2.40	1.60	 	 	 	 	 	 	 	 	 	 	 	 	 	 	 	 	 	 	1581474762	11.03	20.43
12/02/2020 02:32:43	120220	12022020	023243	192.45	13.631400	-56.950277	192.51	0.320	-1.550	1.780	192.32	-2.90	2.20	 	 	 	 	 	 	 	 	 	 	 	 	 	 	 	 	 	 	1581474763	11.21	20.76
12/02/2020 02:32:44	120220	12022020	023244	191.77	13.631350	-56.950292	191.88	0.430	-1.290	2.280	191.67	-2.70	2.70	 	 	 	 	 	 	 	 	 	 	 	 	 	 	 	 	 	 	1581474764	11.18	20.71
12/02/2020 02:32:45	120220	12022020	023245	191.54	13.631305	-56.950303	191.82	0.140	-0.210	2.420	191.58	-1.70	2.90	 	 	 	 	 	 	 	 	 	 	 	 	 	 	 	 	 	 	1581474765	10.96	20.30
12/02/2020 02:32:46	120220	12022020	023246	191.82	13.631262	-56.950318	192.14	-0.480	0.760	2.430	191.82	-0.70	2.90	 	 	 	 	 	 	 	 	 	 	 	 	 	 	 	 	 	 	1581474766	10.16	18.82
12/02/2020 02:32:47	120220	12022020	023247	192.20	13.631215	-56.950333	192.53	-0.910	0.930	2.280	192.29	-0.40	2.80	 	 	 	 	 	 	 	 	 	 	 	 	 	 	 	 	 	 	1581474767	9.88	18.30
12/02/2020 02:32:48	120220	12022020	023248	192.70	13.631167	-56.950350	193.03	-0.750	0.540	1.930	192.80	-0.80	2.50	 	 	 	 	 	 	 	 	 	 	 	 	 	 	 	 	 	 	1581474768	10.52	19.48
12/02/2020 02:32:49	120220	12022020	023249	193.19	13.631117	-56.950365	193.45	-0.150	0.190	1.570	193.26	-1.20	2.10	 	 	 	 	 	 	 	 	 	 	 	 	 	 	 	 	 	 	1581474769	11.04	20.45
12/02/2020 02:32:50	120220	12022020	023250	193.42	13.631068	-56.950373	193.64	0.700	-0.290	1.130	193.43	-1.60	1.70	 	 	 	 	 	 	 	 	 	 	 	 	 	 	 	 	 	 	1581474770	10.89	20.17
12/02/2020 02:32:51	120220	12022020	023251	193.51	13.631018	-56.950383	193.73	0.970	-0.730	0.950	193.53	-2.00	1.40	 	 	 	 	 	 	 	 	 	 	 	 	 	 	 	 	 	 	1581474771	10.81	20.02
12/02/2020 02:32:52	120220	12022020	023252	193.59	13.630970	-56.950395	193.81	0.710	-0.920	1.320	193.59	-2.30	1.80	 	 	 	 	 	 	 	 	 	 	 	 	 	 	 	 	 	 	1581474772	10.83	20.06
12/02/2020 02:32:53	120220	12022020	023253	193.44	13.630925	-56.950410	193.62	0.150	-0.930	2.190	193.36	-2.30	2.60	 	 	 	 	 	 	 	 	 	 	 	 	 	 	 	 	 	 	1581474773	10.57	19.58
12/02/2020 02:32:54	120220	12022020	023254	192.88	13.630878	-56.950430	192.95	-0.320	-0.880	3.300	192.73	-2.20	3.60	 	 	 	 	 	 	 	 	 	 	 	 	 	 	 	 	 	 	1581474774	10.36	19.19
12/02/2020 02:32:55	120220	12022020	023255	192.05	13.630832	-56.950450	192.11	-0.420	-0.840	4.060	191.88	-2.20	4.40	 	 	 	 	 	 	 	 	 	 	 	 	 	 	 	 	 	 	1581474775	10.58	19.59
12/02/2020 02:32:56	120220	12022020	023256	191.38	13.630783	-56.950468	191.54	-0.330	-0.690	4.010	191.31	-2.10	4.50	 	 	 	 	 	 	 	 	 	 	 	 	 	 	 	 	 	 	1581474776	10.93	20.24
12/02/2020 02:32:57	120220	12022020	023257	191.27	13.630737	-56.950483	191.52	-0.270	-0.300	3.400	191.31	-1.70	3.90	 	 	 	 	 	 	 	 	 	 	 	 	 	 	 	 	 	 	1581474777	11.08	20.52
12/02/2020 02:32:58	120220	12022020	023258	191.57	13.630690	-56.950495	191.88	-0.290	0.270	2.430	191.66	-1.20	3.00	 	 	 	 	 	 	 	 	 	 	 	 	 	 	 	 	 	 	1581474778	10.71	19.83
12/02/2020 02:32:59	120220	12022020	023259	192.00	13.630642	-56.950505	192.25	-0.250	0.540	1.700	192.09	-0.80	2.20	 	 	 	 	 	 	 	 	 	 	 	 	 	 	 	 	 	 	1581474779	10.39	19.24
12/02/2020 02:33:00	120220	12022020	023300	192.44	13.630593	-56.950513	192.73	-0.070	0.400	1.120	192.53	-0.90	1.70	 	 	 	 	 	 	 	 	 	 	 	 	 	 	 	 	 	 	1581474780	10.40	19.26
12/02/2020 02:33:01	120220	12022020	023301	192.78	13.630543	-56.950525	193.00	0.160	-0.110	1.020	192.81	-1.40	1.50	1017.20	26.10	26.10	20.80	20.80	-1.0	72.0	72.0	392.0	25.6	266.00	10.30	72.00	12.00	16	7981.0	27.2	27.2	1581474781	10.66	19.74
12/02/2020 02:33:02	120220	12022020	023302	192.82	13.630492	-56.950537	193.01	0.420	-0.740	1.190	192.79	-2.10	1.70	 	 	 	 	 	 	 	 	 	 	 	 	 	 	 	 	 	 	1581474782	11.04	20.45
12/02/2020 02:33:03	120220	12022020	023303	192.70	13.630443	-56.950548	192.90	0.520	-0.920	1.350	192.67	-2.30	1.80	 	 	 	 	 	 	 	 	 	 	 	 	 	 	 	 	 	 	1581474783	11.20	20.74
12/02/2020 02:33:04	120220	12022020	023304	192.67	13.630397	-56.950560	192.92	0.330	-0.470	1.430	192.70	-1.90	1.90	 	 	 	 	 	 	 	 	 	 	 	 	 	 	 	 	 	 	1581474784	10.89	20.17
12/02/2020 02:33:05	120220	12022020	023305	192.94	13.630353	-56.950572	193.26	-0.190	0.210	1.670	193.01	-1.20	2.10	 	 	 	 	 	 	 	 	 	 	 	 	 	 	 	 	 	 	1581474785	10.26	19.00
12/02/2020 02:33:06	120220	12022020	023306	193.17	13.630308	-56.950588	193.40	-0.560	0.280	2.010	193.17	-1.10	2.50	 	 	 	 	 	 	 	 	 	 	 	 	 	 	 	 	 	 	1581474786	9.82	18.19
12/02/2020 02:33:07	120220	12022020	023307	192.93	13.630260	-56.950608	193.08	-0.460	-0.370	2.470	192.82	-1.70	2.90	 	 	 	 	 	 	 	 	 	 	 	 	 	 	 	 	 	 	1581474787	10.22	18.93
12/02/2020 02:33:08	120220	12022020	023308	192.23	13.630208	-56.950625	192.34	0.160	-1.210	2.890	192.06	-2.50	3.40	 	 	 	 	 	 	 	 	 	 	 	 	 	 	 	 	 	 	1581474788	11.14	20.63
12/02/2020 02:33:09	120220	12022020	023309	191.36	13.630157	-56.950640	191.45	0.720	-1.350	2.970	191.20	-2.70	3.40	 	 	 	 	 	 	 	 	 	 	 	 	 	 	 	 	 	 	1581474789	11.69	21.65
12/02/2020 02:33:10	120220	12022020	023310	190.80	13.630110	-56.950650	190.96	0.630	-0.500	2.600	190.75	-1.90	3.10	 	 	 	 	 	 	 	 	 	 	 	 	 	 	 	 	 	 	1581474790	11.29	20.91
12/02/2020 02:33:11	120220	12022020	023311	190.72	13.630067	-56.950660	190.95	-0.040	0.510	2.150	190.76	-0.90	2.70	 	 	 	 	 	 	 	 	 	 	 	 	 	 	 	 	 	 	1581474791	10.27	19.02
12/02/2020 02:33:12	120220	12022020	023312	191.04	13.630022	-56.950673	191.28	-0.740	0.930	1.880	191.12	-0.40	2.40	 	 	 	 	 	 	 	 	 	 	 	 	 	 	 	 	 	 	1581474792	9.75	18.06
12/02/2020 02:33:13	120220	12022020	023313	191.49	13.629973	-56.950688	191.75	-0.920	0.600	1.840	191.58	-0.70	2.30	 	 	 	 	 	 	 	 	 	 	 	 	 	 	 	 	 	 	1581474793	10.15	18.80
12/02/2020 02:33:14	120220	12022020	023314	191.90	13.629923	-56.950705	192.16	-0.400	-0.190	1.670	191.97	-1.50	2.20	 	 	 	 	 	 	 	 	 	 	 	 	 	 	 	 	 	 	1581474794	10.78	19.96
12/02/2020 02:33:15	120220	12022020	023315	192.25	13.629873	-56.950717	192.50	0.390	-0.940	1.440	192.30	-2.30	1.90	 	 	 	 	 	 	 	 	 	 	 	 	 	 	 	 	 	 	1581474795	11.21	20.76
12/02/2020 02:33:16	120220	12022020	023316	192.44	13.629823	-56.950727	192.70	0.830	-1.290	1.370	192.47	-2.70	1.90	 	 	 	 	 	 	 	 	 	 	 	 	 	 	 	 	 	 	1581474796	11.19	20.72
12/02/2020 02:33:17	120220	12022020	023317	192.58	13.629775	-56.950737	192.81	0.640	-1.100	1.270	192.60	-2.50	1.80	 	 	 	 	 	 	 	 	 	 	 	 	 	 	 	 	 	 	1581474797	10.89	20.17
12/02/2020 02:33:18	120220	12022020	023318	192.62	13.629730	-56.950747	192.84	0.080	-0.610	1.330	192.61	-2.00	1.80	 	 	 	 	 	 	 	 	 	 	 	 	 	 	 	 	 	 	1581474798	10.45	19.35
12/02/2020 02:33:19	120220	12022020	023319	192.45	13.629683	-56.950760	192.64	-0.280	-0.240	1.520	192.39	-1.60	2.00	 	 	 	 	 	 	 	 	 	 	 	 	 	 	 	 	 	 	1581474799	10.16	18.82
12/02/2020 02:33:20	120220	12022020	023320	192.10	13.629633	-56.950772	192.28	-0.230	-0.210	1.690	192.01	-1.60	2.20	 	 	 	 	 	 	 	 	 	 	 	 	 	 	 	 	 	 	1581474800	10.41	19.28
12/02/2020 02:33:21	120220	12022020	023321	191.70	13.629582	-56.950783	191.88	-0.090	-0.360	1.960	191.63	-1.70	2.40	 	 	 	 	 	 	 	 	 	 	 	 	 	 	 	 	 	 	1581474801	10.93	20.24
12/02/2020 02:33:22	120220	12022020	023322	191.38	13.629532	-56.950800	191.57	-0.290	-0.330	2.470	191.32	-1.70	2.90	 	 	 	 	 	 	 	 	 	 	 	 	 	 	 	 	 	 	1581474802	11.34	21.00
12/02/2020 02:33:23	120220	12022020	023323	191.19	13.629485	-56.950820	191.41	-0.790	-0.010	3.040	191.19	-1.40	3.50	 	 	 	 	 	 	 	 	 	 	 	 	 	 	 	 	 	 	1581474803	11.27	20.87
12/02/2020 02:33:24	120220	12022020	023324	191.30	13.629440	-56.950842	191.57	-1.150	0.600	3.350	191.37	-0.80	3.80	 	 	 	 	 	 	 	 	 	 	 	 	 	 	 	 	 	 	1581474804	11.01	20.39
12/02/2020 02:33:25	120220	12022020	023325	191.79	13.629397	-56.950858	192.08	-0.880	1.080	2.820	191.92	-0.30	3.30	 	 	 	 	 	 	 	 	 	 	 	 	 	 	 	 	 	 	1581474805	10.58	19.59
12/02/2020 02:33:26	120220	12022020	023326	192.40	13.629348	-56.950868	192.65	0.140	0.730	1.660	192.49	-0.60	2.20	 	 	 	 	 	 	 	 	 	 	 	 	 	 	 	 	 	 	1581474806	10.09	18.69
12/02/2020 02:33:27	120220	12022020	023327	192.73	13.629297	-56.950875	192.92	1.380	-0.400	0.750	192.75	-1.70	1.30	 	 	 	 	 	 	 	 	 	 	 	 	 	 	 	 	 	 	1581474807	10.49	19.43
12/02/2020 02:33:28	120220	12022020	023328	192.87	13.629243	-56.950880	193.08	1.960	-1.290	0.150	192.92	-2.60	0.60	 	 	 	 	 	 	 	 	 	 	 	 	 	 	 	 	 	 	1581474808	11.38	21.08
12/02/2020 02:33:29	120220	12022020	023329	193.12	13.629197	-56.950887	193.34	1.370	-1.200	0.230	193.17	-2.60	0.70	 	 	 	 	 	 	 	 	 	 	 	 	 	 	 	 	 	 	1581474809	11.40	21.11
12/02/2020 02:33:30	120220	12022020	023330	193.25	13.629153	-56.950902	193.43	0.110	-0.750	1.010	193.22	-2.10	1.40	 	 	 	 	 	 	 	 	 	 	 	 	 	 	 	 	 	 	1581474810	10.22	18.93
12/02/2020 02:33:31	120220	12022020	023331	193.00	13.629108	-56.950920	193.17	-0.890	-0.680	1.940	192.93	-2.00	2.40	 	 	 	 	 	 	 	 	 	 	 	 	 	 	 	 	 	 	1581474811	9.68	17.93
12/02/2020 02:33:32	120220	12022020	023332	192.54	13.629060	-56.950942	192.69	-1.100	-1.030	2.560	192.44	-2.40	3.00	 	 	 	 	 	 	 	 	 	 	 	 	 	 	 	 	 	 	1581474812	10.39	19.24
12/02/2020 02:33:33	120220	12022020	023333	192.09	13.629010	-56.950960	192.27	-0.650	-1.250	2.530	192.03	-2.60	3.00	 	 	 	 	 	 	 	 	 	 	 	 	 	 	 	 	 	 	1581474813	11.30	20.93
12/02/2020 02:33:34	120220	12022020	023334	191.88	13.628960	-56.950975	192.09	-0.160	-0.920	2.090	191.87	-2.30	2.60	 	 	 	 	 	 	 	 	 	 	 	 	 	 	 	 	 	 	1581474814	11.55	21.39
12/02/2020 02:33:35	120220	12022020	023335	191.95	13.628912	-56.950987	192.21	-0.050	-0.110	1.560	192.00	-1.50	2.10	 	 	 	 	 	 	 	 	 	 	 	 	 	 	 	 	 	 	1581474815	11.16	20.67
12/02/2020 02:33:36	120220	12022020	023336	192.26	13.628867	-56.950998	192.55	-0.280	0.860	1.160	192.26	-0.60	1.60	 	 	 	 	 	 	 	 	 	 	 	 	 	 	 	 	 	 	1581474816	10.62	19.67
12/02/2020 02:33:37	120220	12022020	023337	192.70	13.628820	-56.951012	193.02	-0.440	1.410	1.060	192.79	0.00	1.50	 	 	 	 	 	 	 	 	 	 	 	 	 	 	 	 	 	 	1581474817	10.21	18.91
12/02/2020 02:33:38	120220	12022020	023338	193.16	13.628772	-56.951025	193.46	-0.240	1.150	1.190	193.24	-0.20	1.70	 	 	 	 	 	 	 	 	 	 	 	 	 	 	 	 	 	 	1581474818	10.18	18.85
12/02/2020 02:33:39	120220	12022020	023339	193.58	13.628722	-56.951038	193.87	0.210	0.240	1.240	193.64	-1.10	1.70	 	 	 	 	 	 	 	 	 	 	 	 	 	 	 	 	 	 	1581474819	10.69	19.80
12/02/2020 02:33:40	120220	12022020	023340	193.75	13.628672	-56.951052	193.97	0.600	-0.770	1.390	193.72	-2.10	1.90	 	 	 	 	 	 	 	 	 	 	 	 	 	 	 	 	 	 	1581474820	11.15	20.65
12/02/2020 02:33:41	120220	12022020	023341	193.45	13.628623	-56.951065	193.61	0.800	-1.430	1.600	193.36	-2.80	2.10	 	 	 	 	 	 	 	 	 	 	 	 	 	 	 	 	 	 	1581474821	11.18	20.71
12/02/2020 02:33:42	120220	12022020	023342	192.97	13.628575	-56.951077	193.13	0.770	-1.420	1.690	192.88	-2.80	2.20	 	 	 	 	 	 	 	 	 	 	 	 	 	 	 	 	 	 	1581474822	10.95	20.28
12/02/2020 02:33:43	120220	12022020	023343	192.63	13.628530	-56.951087	192.83	0.430	-0.830	1.620	192.59	-2.20	2.10	 	 	 	 	 	 	 	 	 	 	 	 	 	 	 	 	 	 	1581474823	10.49	19.43
12/02/2020 02:33:44	120220	12022020	023344	192.43	13.628485	-56.951100	192.62	-0.130	-0.310	1.630	192.38	-1.70	2.10	 	 	 	 	 	 	 	 	 	 	 	 	 	 	 	 	 	 	1581474824	10.01	18.54
12/02/2020 02:33:45	120220	12022020	023345	192.06	13.628437	-56.951117	192.21	-0.550	-0.370	1.990	191.95	-1.70	2.40	 	 	 	 	 	 	 	 	 	 	 	 	 	 	 	 	 	 	1581474825	10.08	18.67
12/02/2020 02:33:46	120220	12022020	023346	191.54	13.628387	-56.951137	191.70	-0.540	-0.690	2.520	191.44	-2.00	3.00	 	 	 	 	 	 	 	 	 	 	 	 	 	 	 	 	 	 	1581474826	10.92	20.22
12/02/2020 02:33:47	120220	12022020	023347	191.25	13.628337	-56.951155	191.48	-0.340	-0.510	2.650	191.25	-1.90	3.10	 	 	 	 	 	 	 	 	 	 	 	 	 	 	 	 	 	 	1581474827	11.62	21.52
12/02/2020 02:33:48	120220	12022020	023348	191.44	13.628290	-56.951170	191.71	-0.280	0.250	2.350	191.53	-1.10	2.80	 	 	 	 	 	 	 	 	 	 	 	 	 	 	 	 	 	 	1581474828	11.30	20.93
12/02/2020 02:33:49	120220	12022020	023349	191.98	13.628245	-56.951183	192.27	-0.340	0.940	1.880	192.10	-0.50	2.40	 	 	 	 	 	 	 	 	 	 	 	 	 	 	 	 	 	 	1581474829	10.40	19.26
12/02/2020 02:33:50	120220	12022020	023350	192.56	13.628198	-56.951195	192.84	-0.190	0.850	1.390	192.67	-0.50	1.90	 	 	 	 	 	 	 	 	 	 	 	 	 	 	 	 	 	 	1581474830	10.02	18.56
12/02/2020 02:33:51	120220	12022020	023351	192.99	13.628147	-56.951205	193.22	0.400	-0.010	0.970	193.04	-1.30	1.50	 	 	 	 	 	 	 	 	 	 	 	 	 	 	 	 	 	 	1581474831	10.48	19.41
12/02/2020 02:33:52	120220	12022020	023352	193.24	13.628095	-56.951213	193.47	1.060	-0.860	0.710	193.28	-2.20	1.20	 	 	 	 	 	 	 	 	 	 	 	 	 	 	 	 	 	 	1581474832	11.24	20.82
12/02/2020 02:33:53	120220	12022020	023353	193.40	13.628045	-56.951222	193.61	1.140	-1.080	0.870	193.42	-2.40	1.30	 	 	 	 	 	 	 	 	 	 	 	 	 	 	 	 	 	 	1581474833	11.39	21.09
12/02/2020 02:33:54	120220	12022020	023354	193.36	13.628000	-56.951235	193.54	0.510	-0.980	1.460	193.31	-2.40	1.90	 	 	 	 	 	 	 	 	 	 	 	 	 	 	 	 	 	 	1581474834	10.70	19.82
12/02/2020 02:33:55	120220	12022020	023355	193.05	13.627953	-56.951252	193.25	-0.380	-0.880	2.200	192.99	-2.30	2.60	 	 	 	 	 	 	 	 	 	 	 	 	 	 	 	 	 	 	1581474835	10.31	19.09
12/02/2020 02:33:56	120220	12022020	023356	192.85	13.627907	-56.951270	193.07	-1.020	-0.590	2.550	192.83	-2.00	3.00	 	 	 	 	 	 	 	 	 	 	 	 	 	 	 	 	 	 	1581474836	10.57	19.58
12/02/2020 02:33:57	120220	12022020	023357	192.78	13.627860	-56.951288	192.99	-1.020	-0.380	2.380	192.77	-1.70	2.90	 	 	 	 	 	 	 	 	 	 	 	 	 	 	 	 	 	 	1581474837	10.65	19.72
12/02/2020 02:33:58	120220	12022020	023358	192.69	13.627810	-56.951303	192.89	-0.440	-0.420	1.910	192.66	-1.80	2.40	 	 	 	 	 	 	 	 	 	 	 	 	 	 	 	 	 	 	1581474838	10.76	19.93
12/02/2020 02:33:59	120220	12022020	023359	192.49	13.627760	-56.951317	192.68	0.270	-0.430	1.590	192.45	-1.80	2.10	 	 	 	 	 	 	 	 	 	 	 	 	 	 	 	 	 	 	1581474839	11.15	20.65
12/02/2020 02:34:00	120220	12022020	023400	192.31	13.627710	-56.951327	192.51	0.580	-0.110	1.500	192.28	-1.50	2.00	 	 	 	 	 	 	 	 	 	 	 	 	 	 	 	 	 	 	1581474840	11.27	20.87
12/02/2020 02:34:01	120220	12022020	023401	192.17	13.627663	-56.951338	192.36	0.350	0.390	1.550	192.14	-1.00	2.00	1017.30	26.10	26.10	20.90	20.90	-1.0	73.0	73.0	392.0	25.6	268.00	9.70	71.00	11.30	16	7917.0	27.2	27.2	1581474841	10.91	20.21
12/02/2020 02:34:02	120220	12022020	023402	192.04	13.627615	-56.951353	192.25	-0.090	0.600	1.880	192.03	-0.80	2.30	 	 	 	 	 	 	 	 	 	 	 	 	 	 	 	 	 	 	1581474842	10.51	19.46
12/02/2020 02:34:03	120220	12022020	023403	192.14	13.627568	-56.951370	192.42	-0.340	0.580	2.060	192.21	-0.80	2.50	 	 	 	 	 	 	 	 	 	 	 	 	 	 	 	 	 	 	1581474843	10.59	19.61
12/02/2020 02:34:04	120220	12022020	023404	192.72	13.627522	-56.951383	193.06	-0.270	0.500	1.720	192.89	-0.90	2.20	 	 	 	 	 	 	 	 	 	 	 	 	 	 	 	 	 	 	1581474844	10.75	19.91
12/02/2020 02:34:05	120220	12022020	023405	193.60	13.627475	-56.951397	193.92	0.010	0.010	1.300	193.75	-1.30	1.80	 	 	 	 	 	 	 	 	 	 	 	 	 	 	 	 	 	 	1581474845	10.47	19.39
12/02/2020 02:34:06	120220	12022020	023406	194.11	13.627425	-56.951412	194.33	0.450	-0.920	1.190	194.12	-2.20	1.70	 	 	 	 	 	 	 	 	 	 	 	 	 	 	 	 	 	 	1581474846	10.53	19.50
12/02/2020 02:34:07	120220	12022020	023407	193.93	13.627375	-56.951425	194.07	0.950	-1.770	1.350	193.83	-3.10	1.80	 	 	 	 	 	 	 	 	 	 	 	 	 	 	 	 	 	 	1581474847	10.95	20.28
12/02/2020 02:34:08	120220	12022020	023408	193.39	13.627325	-56.951435	193.54	1.120	-1.840	1.620	193.29	-3.20	2.10	 	 	 	 	 	 	 	 	 	 	 	 	 	 	 	 	 	 	1581474848	11.21	20.76
12/02/2020 02:34:09	120220	12022020	023409	192.99	13.627278	-56.951445	193.18	0.600	-1.080	1.850	192.94	-2.50	2.30	 	 	 	 	 	 	 	 	 	 	 	 	 	 	 	 	 	 	1581474849	10.89	20.17
12/02/2020 02:34:10	120220	12022020	023410	192.87	13.627233	-56.951460	193.11	-0.450	-0.100	2.070	192.87	-1.50	2.50	 	 	 	 	 	 	 	 	 	 	 	 	 	 	 	 	 	 	1581474850	10.28	19.04
12/02/2020 02:34:11	120220	12022020	023411	192.89	13.627188	-56.951478	193.13	-1.360	0.540	2.250	192.89	-0.80	2.70	 	 	 	 	 	 	 	 	 	 	 	 	 	 	 	 	 	 	1581474851	10.07	18.65
12/02/2020 02:34:12	120220	12022020	023412	192.88	13.627142	-56.951498	193.11	-1.520	0.520	2.230	192.86	-0.80	2.70	 	 	 	 	 	 	 	 	 	 	 	 	 	 	 	 	 	 	1581474852	10.47	19.39
12/02/2020 02:34:13	120220	12022020	023413	192.72	13.627090	-56.951517	192.91	-0.780	-0.080	1.940	192.67	-1.40	2.40	 	 	 	 	 	 	 	 	 	 	 	 	 	 	 	 	 	 	1581474853	11.14	20.63
12/02/2020 02:34:14	120220	12022020	023414	192.53	13.627037	-56.951532	192.75	0.290	-0.520	1.460	192.51	-1.90	2.00	 	 	 	 	 	 	 	 	 	 	 	 	 	 	 	 	 	 	1581474854	11.77	21.80
12/02/2020 02:34:15	120220	12022020	023415	192.60	13.626987	-56.951540	192.86	0.840	-0.250	0.910	192.65	-1.70	1.40	 	 	 	 	 	 	 	 	 	 	 	 	 	 	 	 	 	 	1581474855	11.72	21.71
12/02/2020 02:34:16	120220	12022020	023416	192.81	13.626940	-56.951550	193.05	0.620	0.170	0.710	192.84	-1.20	1.20	 	 	 	 	 	 	 	 	 	 	 	 	 	 	 	 	 	 	1581474856	10.82	20.04
12/02/2020 02:34:17	120220	12022020	023417	192.92	13.626893	-56.951563	193.15	0.120	0.120	1.080	192.93	-1.20	1.50	 	 	 	 	 	 	 	 	 	 	 	 	 	 	 	 	 	 	1581474857	10.22	18.93
12/02/2020 02:34:18	120220	12022020	023418	193.06	13.626845	-56.951578	193.34	-0.110	-0.060	1.420	193.12	-1.40	1.90	 	 	 	 	 	 	 	 	 	 	 	 	 	 	 	 	 	 	1581474858	10.58	19.59
12/02/2020 02:34:19	120220	12022020	023419	193.39	13.626798	-56.951593	193.67	-0.010	-0.150	1.370	193.46	-1.50	1.90	 	 	 	 	 	 	 	 	 	 	 	 	 	 	 	 	 	 	1581474859	10.83	20.06
12/02/2020 02:34:20	120220	12022020	023420	193.66	13.626750	-56.951607	193.90	0.180	-0.400	1.360	193.68	-1.70	1.80	 	 	 	 	 	 	 	 	 	 	 	 	 	 	 	 	 	 	1581474860	10.60	19.63
12/02/2020 02:34:21	120220	12022020	023421	193.62	13.626702	-56.951622	193.81	0.220	-0.820	1.610	193.57	-2.20	2.10	 	 	 	 	 	 	 	 	 	 	 	 	 	 	 	 	 	 	1581474861	10.66	19.74
12/02/2020 02:34:22	120220	12022020	023422	193.30	13.626653	-56.951638	193.46	0.070	-0.990	1.990	193.22	-2.40	2.40	 	 	 	 	 	 	 	 	 	 	 	 	 	 	 	 	 	 	1581474862	10.98	20.33
12/02/2020 02:34:23	120220	12022020	023423	192.92	13.626607	-56.951653	193.09	-0.080	-0.690	2.160	192.86	-2.10	2.60	 	 	 	 	 	 	 	 	 	 	 	 	 	 	 	 	 	 	1581474863	10.95	20.28
12/02/2020 02:34:24	120220	12022020	023424	192.67	13.626558	-56.951667	192.86	-0.060	-0.330	1.970	192.64	-1.70	2.50	 	 	 	 	 	 	 	 	 	 	 	 	 	 	 	 	 	 	1581474864	10.58	19.59
12/02/2020 02:34:25	120220	12022020	023425	192.48	13.626510	-56.951678	192.66	0.080	-0.270	1.790	192.44	-1.60	2.30	 	 	 	 	 	 	 	 	 	 	 	 	 	 	 	 	 	 	1581474865	10.49	19.43
12/02/2020 02:34:26	120220	12022020	023426	192.26	13.626460	-56.951693	192.45	0.120	-0.380	1.900	192.26	-1.80	2.40	 	 	 	 	 	 	 	 	 	 	 	 	 	 	 	 	 	 	1581474866	10.87	20.13
12/02/2020 02:34:27	120220	12022020	023427	192.11	13.626412	-56.951710	192.31	-0.110	-0.320	2.280	192.09	-1.70	2.70	 	 	 	 	 	 	 	 	 	 	 	 	 	 	 	 	 	 	1581474867	11.17	20.69
12/02/2020 02:34:28	120220	12022020	023428	192.01	13.626365	-56.951728	192.22	-0.370	-0.090	2.640	191.98	-1.50	3.10	 	 	 	 	 	 	 	 	 	 	 	 	 	 	 	 	 	 	1581474868	11.02	20.41
12/02/2020 02:34:29	120220	12022020	023429	191.83	13.626317	-56.951745	192.03	-0.310	0.010	2.660	191.80	-1.40	3.10	 	 	 	 	 	 	 	 	 	 	 	 	 	 	 	 	 	 	1581474869	10.80	20.00
12/02/2020 02:34:30	120220	12022020	023430	191.75	13.626268	-56.951757	191.97	0.070	0.040	2.280	191.78	-1.30	2.80	 	 	 	 	 	 	 	 	 	 	 	 	 	 	 	 	 	 	1581474870	10.81	20.02
12/02/2020 02:34:31	120220	12022020	023431	192.08	13.626218	-56.951765	192.36	0.400	0.200	1.570	192.19	-1.20	2.10	 	 	 	 	 	 	 	 	 	 	 	 	 	 	 	 	 	 	1581474871	10.86	20.11
12/02/2020 02:34:32	120220	12022020	023432	192.60	13.626170	-56.951772	192.86	0.440	0.120	1.060	192.69	-1.20	1.60	 	 	 	 	 	 	 	 	 	 	 	 	 	 	 	 	 	 	1581474872	10.57	19.58
12/02/2020 02:34:33	120220	12022020	023433	193.04	13.626120	-56.951782	193.30	0.250	-0.400	1.140	193.12	-1.70	1.60	 	 	 	 	 	 	 	 	 	 	 	 	 	 	 	 	 	 	1581474873	10.55	19.54
12/02/2020 02:34:34	120220	12022020	023434	193.35	13.626072	-56.951797	193.59	0.000	-1.010	1.650	193.38	-2.40	2.10	 	 	 	 	 	 	 	 	 	 	 	 	 	 	 	 	 	 	1581474874	10.94	20.26
12/02/2020 02:34:35	120220	12022020	023435	193.31	13.626022	-56.951815	193.50	-0.170	-1.440	2.390	193.25	-2.80	2.80	 	 	 	 	 	 	 	 	 	 	 	 	 	 	 	 	 	 	1581474875	11.14	20.63
12/02/2020 02:34:36	120220	12022020	023436	192.86	13.625973	-56.951833	193.02	-0.200	-1.450	2.980	192.75	-2.80	3.40	 	 	 	 	 	 	 	 	 	 	 	 	 	 	 	 	 	 	1581474876	11.21	20.76
12/02/2020 02:34:37	120220	12022020	023437	192.33	13.625925	-56.951848	192.51	-0.210	-0.790	2.970	192.25	-2.20	3.40	 	 	 	 	 	 	 	 	 	 	 	 	 	 	 	 	 	 	1581474877	11.16	20.67
12/02/2020 02:34:38	120220	12022020	023438	192.04	13.625880	-56.951862	192.25	-0.320	0.190	2.530	192.00	-1.20	3.00	 	 	 	 	 	 	 	 	 	 	 	 	 	 	 	 	 	 	1581474878	10.68	19.78
12/02/2020 02:34:39	120220	12022020	023439	191.95	13.625833	-56.951873	192.17	-0.420	0.750	1.900	191.94	-0.60	2.40	 	 	 	 	 	 	 	 	 	 	 	 	 	 	 	 	 	 	1581474879	10.24	18.96
12/02/2020 02:34:40	120220	12022020	023440	191.90	13.625783	-56.951885	192.11	-0.240	0.630	1.390	191.89	-0.70	1.90	 	 	 	 	 	 	 	 	 	 	 	 	 	 	 	 	 	 	1581474880	10.45	19.35
12/02/2020 02:34:41	120220	12022020	023441	191.86	13.625732	-56.951897	192.07	0.290	0.150	1.100	191.86	-1.20	1.60	 	 	 	 	 	 	 	 	 	 	 	 	 	 	 	 	 	 	1581474881	11.01	20.39
12/02/2020 02:34:42	120220	12022020	023442	191.99	13.625680	-56.951907	192.24	0.760	-0.190	0.900	192.04	-1.50	1.40	 	 	 	 	 	 	 	 	 	 	 	 	 	 	 	 	 	 	1581474882	11.39	21.09
12/02/2020 02:34:43	120220	12022020	023443	192.28	13.625632	-56.951918	192.56	0.730	-0.320	1.030	192.36	-1.70	1.50	 	 	 	 	 	 	 	 	 	 	 	 	 	 	 	 	 	 	1581474883	11.18	20.71
12/02/2020 02:34:44	120220	12022020	023444	192.66	13.625585	-56.951932	192.93	0.200	-0.340	1.490	192.73	-1.70	1.90	 	 	 	 	 	 	 	 	 	 	 	 	 	 	 	 	 	 	1581474884	10.77	19.95
12/02/2020 02:34:45	120220	12022020	023445	192.92	13.625538	-56.951948	193.16	-0.450	-0.470	2.100	192.94	-1.80	2.50	 	 	 	 	 	 	 	 	 	 	 	 	 	 	 	 	 	 	1581474885	10.49	19.43
12/02/2020 02:34:46	120220	12022020	023446	192.95	13.625490	-56.951968	193.17	-0.700	-0.870	2.650	192.93	-2.20	3.10	 	 	 	 	 	 	 	 	 	 	 	 	 	 	 	 	 	 	1581474886	10.59	19.61
12/02/2020 02:34:47	120220	12022020	023447	192.79	13.625440	-56.951985	193.01	-0.400	-1.340	2.740	192.76	-2.70	3.20	 	 	 	 	 	 	 	 	 	 	 	 	 	 	 	 	 	 	1581474887	11.04	20.45
12/02/2020 02:34:48	120220	12022020	023448	192.73	13.625390	-56.951998	192.97	0.060	-1.200	2.300	192.75	-2.60	2.80	 	 	 	 	 	 	 	 	 	 	 	 	 	 	 	 	 	 	1581474888	11.46	21.22
12/02/2020 02:34:49	120220	12022020	023449	192.88	13.625343	-56.952010	193.13	0.200	-0.300	1.690	192.92	-1.70	2.20	 	 	 	 	 	 	 	 	 	 	 	 	 	 	 	 	 	 	1581474889	11.11	20.58
12/02/2020 02:34:50	120220	12022020	023450	192.99	13.625297	-56.952018	193.21	0.030	0.460	1.090	192.99	-0.90	1.60	 	 	 	 	 	 	 	 	 	 	 	 	 	 	 	 	 	 	1581474890	10.24	18.96
12/02/2020 02:34:51	120220	12022020	023451	192.97	13.625247	-56.952028	193.17	-0.110	0.460	0.790	192.95	-0.90	1.30	 	 	 	 	 	 	 	 	 	 	 	 	 	 	 	 	 	 	1581474891	10.11	18.72
12/02/2020 02:34:52	120220	12022020	023452	192.84	13.625195	-56.952040	193.05	-0.000	-0.080	0.830	192.81	-1.40	1.30	 	 	 	 	 	 	 	 	 	 	 	 	 	 	 	 	 	 	1581474892	10.81	20.02
12/02/2020 02:34:53	120220	12022020	023453	192.67	13.625143	-56.952052	192.88	0.210	-0.630	1.040	192.63	-2.00	1.50	 	 	 	 	 	 	 	 	 	 	 	 	 	 	 	 	 	 	1581474893	11.42	21.15
12/02/2020 02:34:54	120220	12022020	023454	192.42	13.625093	-56.952067	192.62	0.260	-0.890	1.560	192.36	-2.30	2.00	 	 	 	 	 	 	 	 	 	 	 	 	 	 	 	 	 	 	1581474894	11.51	21.32
12/02/2020 02:34:55	120220	12022020	023455	192.05	13.625045	-56.952083	192.25	0.060	-0.690	2.250	191.97	-2.10	2.70	 	 	 	 	 	 	 	 	 	 	 	 	 	 	 	 	 	 	1581474895	11.31	20.95
12/02/2020 02:34:56	120220	12022020	023456	191.73	13.624998	-56.952100	191.96	-0.290	-0.080	2.630	191.70	-1.50	3.10	 	 	 	 	 	 	 	 	 	 	 	 	 	 	 	 	 	 	1581474896	10.97	20.32
12/02/2020 02:34:57	120220	12022020	023457	191.84	13.624952	-56.952115	192.16	-0.640	0.640	2.460	191.94	-0.80	3.00	 	 	 	 	 	 	 	 	 	 	 	 	 	 	 	 	 	 	1581474897	10.61	19.65
12/02/2020 02:34:58	120220	12022020	023458	192.47	13.624907	-56.952130	192.81	-0.730	0.990	1.980	192.61	-0.40	2.50	 	 	 	 	 	 	 	 	 	 	 	 	 	 	 	 	 	 	1581474898	10.37	19.21
12/02/2020 02:34:59	120220	12022020	023459	193.17	13.624858	-56.952145	193.48	-0.370	0.620	1.390	193.29	-0.70	1.90	 	 	 	 	 	 	 	 	 	 	 	 	 	 	 	 	 	 	1581474899	10.36	19.19
12/02/2020 02:35:00	120220	12022020	023500	193.68	13.624807	-56.952155	193.96	0.350	-0.200	0.730	193.77	-1.50	1.20	 	 	 	 	 	 	 	 	 	 	 	 	 	 	 	 	 	 	1581474900	10.80	20.00
12/02/2020 02:35:01	120220	12022020	023501	194.05	13.624757	-56.952165	194.29	0.870	-0.870	0.450	194.10	-2.20	0.90	1017.40	26.00	26.00	20.80	20.90	-1.0	73.0	73.0	393.0	25.6	265.00	10.10	70.00	12.00	16	8620.0	27.2	27.2	1581474901	11.21	20.76
12/02/2020 02:35:02	120220	12022020	023502	194.14	13.624708	-56.952177	194.34	0.820	-1.290	0.640	194.11	-2.60	1.10	 	 	 	 	 	 	 	 	 	 	 	 	 	 	 	 	 	 	1581474902	11.03	20.43
12/02/2020 02:35:03	120220	12022020	023503	193.87	13.624660	-56.952190	194.03	0.440	-1.560	1.080	193.79	-2.90	1.50	 	 	 	 	 	 	 	 	 	 	 	 	 	 	 	 	 	 	1581474903	10.72	19.85
12/02/2020 02:35:04	120220	12022020	023504	193.45	13.624610	-56.952205	193.62	0.100	-1.600	1.440	193.37	-3.00	1.90	 	 	 	 	 	 	 	 	 	 	 	 	 	 	 	 	 	 	1581474904	10.83	20.06
12/02/2020 02:35:05	120220	12022020	023505	193.22	13.624562	-56.952220	193.45	-0.140	-1.180	1.540	193.22	-2.60	2.00	 	 	 	 	 	 	 	 	 	 	 	 	 	 	 	 	 	 	1581474905	11.06	20.48
12/02/2020 02:35:06	120220	12022020	023506	193.31	13.624513	-56.952235	193.55	-0.410	-0.310	1.520	193.34	-1.70	2.00	 	 	 	 	 	 	 	 	 	 	 	 	 	 	 	 	 	 	1581474906	11.00	20.37
12/02/2020 02:35:07	120220	12022020	023507	193.43	13.624467	-56.952252	193.64	-0.710	0.350	1.570	193.42	-1.00	2.00	 	 	 	 	 	 	 	 	 	 	 	 	 	 	 	 	 	 	1581474907	10.62	19.67
12/02/2020 02:35:08	120220	12022020	023508	193.32	13.624417	-56.952268	193.51	-0.830	0.450	1.860	193.27	-0.90	2.30	 	 	 	 	 	 	 	 	 	 	 	 	 	 	 	 	 	 	1581474908	10.69	19.80
12/02/2020 02:35:09	120220	12022020	023509	193.06	13.624367	-56.952285	193.25	-0.690	0.370	2.300	193.00	-1.00	2.70	 	 	 	 	 	 	 	 	 	 	 	 	 	 	 	 	 	 	1581474909	11.30	20.93
12/02/2020 02:35:10	120220	12022020	023510	192.77	13.624317	-56.952303	192.99	-0.370	0.400	2.600	192.72	-1.00	3.00	 	 	 	 	 	 	 	 	 	 	 	 	 	 	 	 	 	 	1581474910	11.50	21.30
12/02/2020 02:35:11	120220	12022020	023511	192.67	13.624268	-56.952318	192.94	-0.060	0.580	2.520	192.70	-0.80	3.00	 	 	 	 	 	 	 	 	 	 	 	 	 	 	 	 	 	 	1581474911	11.26	20.85
12/02/2020 02:35:12	120220	12022020	023512	192.99	13.624222	-56.952332	193.32	0.170	0.750	2.070	193.11	-0.60	2.60	 	 	 	 	 	 	 	 	 	 	 	 	 	 	 	 	 	 	1581474912	10.85	20.09
12/02/2020 02:35:13	120220	12022020	023513	193.59	13.624175	-56.952343	193.90	0.410	0.510	1.590	193.71	-0.80	2.10	 	 	 	 	 	 	 	 	 	 	 	 	 	 	 	 	 	 	1581474913	10.43	19.32
12/02/2020 02:35:14	120220	12022020	023514	194.01	13.624125	-56.952355	194.25	0.760	-0.330	1.230	194.05	-1.70	1.70	 	 	 	 	 	 	 	 	 	 	 	 	 	 	 	 	 	 	1581474914	10.37	19.21
12/02/2020 02:35:15	120220	12022020	023515	194.06	13.624075	-56.952367	194.26	1.110	-1.300	1.090	194.04	-2.60	1.60	 	 	 	 	 	 	 	 	 	 	 	 	 	 	 	 	 	 	1581474915	10.87	20.13
12/02/2020 02:35:16	120220	12022020	023516	193.85	13.624025	-56.952377	194.04	1.090	-1.790	1.230	193.80	-3.10	1.70	 	 	 	 	 	 	 	 	 	 	 	 	 	 	 	 	 	 	1581474916	11.16	20.67
12/02/2020 02:35:17	120220	12022020	023517	193.71	13.623978	-56.952390	193.94	0.470	-1.580	1.540	193.70	-3.00	2.00	 	 	 	 	 	 	 	 	 	 	 	 	 	 	 	 	 	 	1581474917	10.94	20.26
12/02/2020 02:35:18	120220	12022020	023518	193.60	13.623933	-56.952407	193.80	-0.500	-1.090	2.150	193.55	-2.50	2.60	 	 	 	 	 	 	 	 	 	 	 	 	 	 	 	 	 	 	1581474918	10.44	19.33
12/02/2020 02:35:19	120220	12022020	023519	193.16	13.623887	-56.952430	193.31	-1.130	-0.920	2.880	193.04	-2.30	3.30	 	 	 	 	 	 	 	 	 	 	 	 	 	 	 	 	 	 	1581474919	10.33	19.13
12/02/2020 02:35:20	120220	12022020	023520	192.51	13.623835	-56.952453	192.66	-1.010	-1.000	3.270	192.38	-2.40	3.70	 	 	 	 	 	 	 	 	 	 	 	 	 	 	 	 	 	 	1581474920	11.12	20.59
12/02/2020 02:35:21	120220	12022020	023521	191.99	13.623785	-56.952470	192.19	-0.420	-0.620	3.170	191.94	-2.00	3.60	 	 	 	 	 	 	 	 	 	 	 	 	 	 	 	 	 	 	1581474921	11.89	22.02
12/02/2020 02:35:22	120220	12022020	023522	191.95	13.623735	-56.952483	192.21	0.050	0.430	2.590	192.01	-1.00	3.10	 	 	 	 	 	 	 	 	 	 	 	 	 	 	 	 	 	 	1581474922	11.71	21.69
12/02/2020 02:35:23	120220	12022020	023523	192.44	13.623687	-56.952492	192.75	0.090	1.390	1.780	192.58	-0.00	2.30	 	 	 	 	 	 	 	 	 	 	 	 	 	 	 	 	 	 	1581474923	10.85	20.09
12/02/2020 02:35:24	120220	12022020	023524	193.22	13.623637	-56.952500	193.56	-0.050	1.450	1.210	193.39	0.10	1.70	 	 	 	 	 	 	 	 	 	 	 	 	 	 	 	 	 	 	1581474924	10.47	19.39
12/02/2020 02:35:25	120220	12022020	023525	193.99	13.623585	-56.952512	194.30	0.000	0.670	1.080	194.13	-0.60	1.60	 	 	 	 	 	 	 	 	 	 	 	 	 	 	 	 	 	 	1581474925	10.89	20.17
12/02/2020 02:35:26	120220	12022020	023526	194.51	13.623533	-56.952527	194.76	0.280	-0.390	1.340	194.55	-1.70	1.80	 	 	 	 	 	 	 	 	 	 	 	 	 	 	 	 	 	 	1581474926	11.43	21.17
12/02/2020 02:35:27	120220	12022020	023527	194.52	13.623483	-56.952543	194.71	0.510	-1.170	1.910	194.46	-2.50	2.40	 	 	 	 	 	 	 	 	 	 	 	 	 	 	 	 	 	 	1581474927	11.55	21.39
12/02/2020 02:35:28	120220	12022020	023528	194.14	13.623437	-56.952560	194.32	0.380	-1.230	2.430	194.06	-2.60	2.90	 	 	 	 	 	 	 	 	 	 	 	 	 	 	 	 	 	 	1581474928	11.27	20.87
12/02/2020 02:35:29	120220	12022020	023529	193.78	13.623393	-56.952575	193.96	-0.070	-0.690	2.480	193.71	-2.10	3.00	 	 	 	 	 	 	 	 	 	 	 	 	 	 	 	 	 	 	1581474929	10.64	19.71
12/02/2020 02:35:30	120220	12022020	023530	193.43	13.623348	-56.952590	193.60	-0.450	-0.370	2.280	193.35	-1.70	2.80	 	 	 	 	 	 	 	 	 	 	 	 	 	 	 	 	 	 	1581474930	9.96	18.45
12/02/2020 02:35:31	120220	12022020	023531	193.04	13.623300	-56.952607	193.21	-0.410	-0.650	2.120	192.97	-2.00	2.60	 	 	 	 	 	 	 	 	 	 	 	 	 	 	 	 	 	 	1581474931	10.18	18.85
12/02/2020 02:35:32	120220	12022020	023532	192.66	13.623248	-56.952625	192.84	0.020	-1.050	2.090	192.60	-2.40	2.50	 	 	 	 	 	 	 	 	 	 	 	 	 	 	 	 	 	 	1581474932	11.07	20.50
12/02/2020 02:35:33	120220	12022020	023533	192.45	13.623198	-56.952640	192.67	0.490	-0.860	1.860	192.45	-2.30	2.30	 	 	 	 	 	 	 	 	 	 	 	 	 	 	 	 	 	 	1581474933	11.58	21.45
12/02/2020 02:35:34	120220	12022020	023534	192.63	13.623152	-56.952650	192.89	0.690	-0.080	1.460	192.70	-1.50	2.00	 	 	 	 	 	 	 	 	 	 	 	 	 	 	 	 	 	 	1581474934	11.21	20.76
12/02/2020 02:35:35	120220	12022020	023535	192.98	13.623103	-56.952660	193.24	0.560	0.460	1.250	193.05	-0.90	1.70	 	 	 	 	 	 	 	 	 	 	 	 	 	 	 	 	 	 	1581474935	10.46	19.37
12/02/2020 02:35:36	120220	12022020	023536	193.36	13.623053	-56.952672	193.64	0.180	0.350	1.390	193.45	-1.00	1.90	 	 	 	 	 	 	 	 	 	 	 	 	 	 	 	 	 	 	1581474936	10.48	19.41
12/02/2020 02:35:37	120220	12022020	023537	193.95	13.623003	-56.952687	194.27	-0.370	0.110	1.660	194.09	-1.30	2.10	 	 	 	 	 	 	 	 	 	 	 	 	 	 	 	 	 	 	1581474937	11.10	20.56
12/02/2020 02:35:38	120220	12022020	023538	194.59	13.622957	-56.952707	194.88	-0.860	-0.040	1.970	194.68	-1.40	2.40	 	 	 	 	 	 	 	 	 	 	 	 	 	 	 	 	 	 	1581474938	11.19	20.72
12/02/2020 02:35:39	120220	12022020	023539	194.91	13.622908	-56.952725	195.13	-0.880	-0.290	2.140	194.92	-1.60	2.60	 	 	 	 	 	 	 	 	 	 	 	 	 	 	 	 	 	 	1581474939	10.88	20.15
12/02/2020 02:35:40	120220	12022020	023540	194.84	13.622860	-56.952742	195.01	-0.310	-0.740	1.920	194.79	-2.10	2.40	 	 	 	 	 	 	 	 	 	 	 	 	 	 	 	 	 	 	1581474940	10.86	20.11
12/02/2020 02:35:41	120220	12022020	023541	194.56	13.622808	-56.952753	194.71	0.380	-1.070	1.470	194.49	-2.40	2.00	 	 	 	 	 	 	 	 	 	 	 	 	 	 	 	 	 	 	1581474941	11.12	20.59
12/02/2020 02:35:42	120220	12022020	023542	194.11	13.622758	-56.952763	194.22	0.680	-1.130	1.100	194.00	-2.50	1.60	 	 	 	 	 	 	 	 	 	 	 	 	 	 	 	 	 	 	1581474942	11.23	20.80
12/02/2020 02:35:43	120220	12022020	023543	193.46	13.622708	-56.952775	193.57	0.540	-0.960	1.060	193.33	-2.30	1.50	 	 	 	 	 	 	 	 	 	 	 	 	 	 	 	 	 	 	1581474943	11.11	20.58
12/02/2020 02:35:44	120220	12022020	023544	192.86	13.622658	-56.952790	193.03	0.170	-0.450	1.330	192.79	-1.80	1.80	 	 	 	 	 	 	 	 	 	 	 	 	 	 	 	 	 	 	1581474944	11.09	20.54
12/02/2020 02:35:45	120220	12022020	023545	192.70	13.622612	-56.952805	192.95	-0.230	0.390	1.550	192.73	-1.00	2.00	 	 	 	 	 	 	 	 	 	 	 	 	 	 	 	 	 	 	1581474945	10.96	20.30
12/02/2020 02:35:46	120220	12022020	023546	192.94	13.622567	-56.952822	193.22	-0.570	1.020	1.650	193.00	-0.40	2.10	 	 	 	 	 	 	 	 	 	 	 	 	 	 	 	 	 	 	1581474946	10.56	19.56
12/02/2020 02:35:47	120220	12022020	023547	193.17	13.622518	-56.952840	193.44	-0.650	0.810	1.830	193.20	-0.50	2.30	 	 	 	 	 	 	 	 	 	 	 	 	 	 	 	 	 	 	1581474947	10.40	19.26
12/02/2020 02:35:48	120220	12022020	023548	193.26	13.622467	-56.952858	193.52	-0.360	-0.050	2.040	193.27	-1.40	2.50	 	 	 	 	 	 	 	 	 	 	 	 	 	 	 	 	 	 	1581474948	11.01	20.39
12/02/2020 02:35:49	120220	12022020	023549	193.31	13.622417	-56.952877	193.56	0.130	-0.700	2.160	193.31	-2.00	2.60	 	 	 	 	 	 	 	 	 	 	 	 	 	 	 	 	 	 	1581474949	11.68	21.63
12/02/2020 02:35:50	120220	12022020	023550	193.32	13.622368	-56.952892	193.57	0.500	-0.780	2.080	193.33	-2.20	2.60	 	 	 	 	 	 	 	 	 	 	 	 	 	 	 	 	 	 	1581474950	11.50	21.30
12/02/2020 02:35:51	120220	12022020	023551	193.45	13.622322	-56.952903	193.73	0.610	-0.450	1.630	193.52	-1.80	2.10	 	 	 	 	 	 	 	 	 	 	 	 	 	 	 	 	 	 	1581474951	10.86	20.11
12/02/2020 02:35:52	120220	12022020	023552	193.88	13.622275	-56.952913	194.17	0.540	-0.040	0.930	193.99	-1.40	1.40	 	 	 	 	 	 	 	 	 	 	 	 	 	 	 	 	 	 	1581474952	10.38	19.22
12/02/2020 02:35:53	120220	12022020	023553	194.37	13.622228	-56.952922	194.62	0.470	0.100	0.320	194.44	-1.30	0.80	 	 	 	 	 	 	 	 	 	 	 	 	 	 	 	 	 	 	1581474953	10.17	18.83
12/02/2020 02:35:54	120220	12022020	023554	194.60	13.622178	-56.952932	194.81	0.390	-0.400	0.320	194.60	-1.70	0.80	 	 	 	 	 	 	 	 	 	 	 	 	 	 	 	 	 	 	1581474954	10.33	19.13
12/02/2020 02:35:55	120220	12022020	023555	194.42	13.622125	-56.952947	194.55	0.170	-1.360	0.990	194.31	-2.70	1.40	 	 	 	 	 	 	 	 	 	 	 	 	 	 	 	 	 	 	1581474955	10.95	20.28
12/02/2020 02:35:56	120220	12022020	023556	193.64	13.622073	-56.952967	193.74	-0.160	-2.210	2.210	193.44	-3.50	2.60	 	 	 	 	 	 	 	 	 	 	 	 	 	 	 	 	 	 	1581474956	11.64	21.56
12/02/2020 02:35:57	120220	12022020	023557	192.50	13.622022	-56.952988	192.61	-0.470	-2.250	3.320	192.30	-3.60	3.70	 	 	 	 	 	 	 	 	 	 	 	 	 	 	 	 	 	 	1581474957	12.09	22.39
12/02/2020 02:35:58	120220	12022020	023558	191.59	13.621975	-56.953008	191.79	-0.710	-1.030	3.730	191.47	-2.50	4.20	 	 	 	 	 	 	 	 	 	 	 	 	 	 	 	 	 	 	1581474958	12.00	22.22
12/02/2020 02:35:59	120220	12022020	023559	191.26	13.621930	-56.953025	191.53	-0.880	0.790	3.450	191.27	-0.70	3.90	 	 	 	 	 	 	 	 	 	 	 	 	 	 	 	 	 	 	1581474959	11.09	20.54
12/02/2020 02:36:00	120220	12022020	023600	191.62	13.621883	-56.953038	191.96	-0.900	2.030	2.510	191.77	0.60	3.00	 	 	 	 	 	 	 	 	 	 	 	 	 	 	 	 	 	 	1581474960	10.21	18.91
12/02/2020 02:36:01	120220	12022020	023601	192.38	13.621833	-56.953050	192.71	-0.640	1.960	1.590	192.53	0.60	2.10	1017.40	26.00	26.00	20.60	20.70	-1.0	72.0	72.0	395.0	25.6	263.00	10.30	70.00	12.30	16	8172.0	27.2	27.2	1581474961	10.21	18.91
12/02/2020 02:36:02	120220	12022020	023602	193.01	13.621780	-56.953062	193.31	0.010	0.790	1.100	193.11	-0.50	1.60	 	 	 	 	 	 	 	 	 	 	 	 	 	 	 	 	 	 	1581474962	11.00	20.37
12/02/2020 02:36:03	120220	12022020	023603	193.43	13.621727	-56.953073	193.70	0.770	-0.480	1.060	193.48	-1.80	1.50	 	 	 	 	 	 	 	 	 	 	 	 	 	 	 	 	 	 	1581474963	11.88	22.00
12/02/2020 02:36:04	120220	12022020	023604	193.60	13.621675	-56.953085	193.86	1.130	-1.150	1.290	193.62	-2.50	1.80	 	 	 	 	 	 	 	 	 	 	 	 	 	 	 	 	 	 	1581474964	11.88	22.00
12/02/2020 02:36:05	120220	12022020	023605	193.68	13.621628	-56.953098	193.95	0.950	-1.090	1.560	193.70	-2.50	2.00	 	 	 	 	 	 	 	 	 	 	 	 	 	 	 	 	 	 	1581474965	11.15	20.65
12/02/2020 02:36:06	120220	12022020	023606	193.79	13.621583	-56.953112	194.06	0.490	-0.800	1.720	193.79	-2.20	2.20	 	 	 	 	 	 	 	 	 	 	 	 	 	 	 	 	 	 	1581474966	10.35	19.17
12/02/2020 02:36:07	120220	12022020	023607	193.83	13.621537	-56.953125	194.09	0.090	-0.660	1.740	193.83	-2.00	2.20	 	 	 	 	 	 	 	 	 	 	 	 	 	 	 	 	 	 	1581474967	10.10	18.71
12/02/2020 02:36:08	120220	12022020	023608	193.80	13.621488	-56.953138	194.03	-0.200	-0.620	1.690	193.79	-2.00	2.20	 	 	 	 	 	 	 	 	 	 	 	 	 	 	 	 	 	 	1581474968	10.44	19.33
12/02/2020 02:36:09	120220	12022020	023609	193.71	13.621440	-56.953153	193.91	-0.400	-0.630	1.600	193.68	-2.00	2.10	 	 	 	 	 	 	 	 	 	 	 	 	 	 	 	 	 	 	1581474969	10.76	19.93
12/02/2020 02:36:10	120220	12022020	023610	193.42	13.621390	-56.953170	193.61	-0.440	-0.780	1.630	193.34	-2.10	2.10	 	 	 	 	 	 	 	 	 	 	 	 	 	 	 	 	 	 	1581474970	10.94	20.26
12/02/2020 02:36:11	120220	12022020	023611	193.05	13.621338	-56.953187	193.27	-0.300	-0.850	1.720	193.01	-2.20	2.20	 	 	 	 	 	 	 	 	 	 	 	 	 	 	 	 	 	 	1581474971	11.30	20.93
12/02/2020 02:36:12	120220	12022020	023612	193.04	13.621290	-56.953202	193.31	-0.180	-0.320	1.470	193.09	-1.70	1.90	 	 	 	 	 	 	 	 	 	 	 	 	 	 	 	 	 	 	1581474972	11.56	21.41
12/02/2020 02:36:13	120220	12022020	023613	193.33	13.621243	-56.953215	193.60	-0.190	0.430	1.080	193.39	-0.90	1.60	 	 	 	 	 	 	 	 	 	 	 	 	 	 	 	 	 	 	1581474973	11.01	20.39
12/02/2020 02:36:14	120220	12022020	023614	193.55	13.621193	-56.953227	193.78	-0.130	0.610	0.830	193.56	-0.70	1.30	 	 	 	 	 	 	 	 	 	 	 	 	 	 	 	 	 	 	1581474974	10.48	19.41
12/02/2020 02:36:15	120220	12022020	023615	193.51	13.621142	-56.953240	193.73	0.150	0.070	0.970	193.48	-1.20	1.40	 	 	 	 	 	 	 	 	 	 	 	 	 	 	 	 	 	 	1581474975	10.84	20.08
12/02/2020 02:36:16	120220	12022020	023616	193.40	13.621088	-56.953255	193.65	0.460	-0.480	1.250	193.40	-1.80	1.70	 	 	 	 	 	 	 	 	 	 	 	 	 	 	 	 	 	 	1581474976	11.60	21.48
12/02/2020 02:36:17	120220	12022020	023617	193.49	13.621038	-56.953267	193.78	0.470	-0.420	1.320	193.54	-1.80	1.80	 	 	 	 	 	 	 	 	 	 	 	 	 	 	 	 	 	 	1581474977	11.76	21.78
12/02/2020 02:36:18	120220	12022020	023618	193.83	13.620993	-56.953280	194.14	0.070	0.070	1.360	193.90	-1.30	1.80	 	 	 	 	 	 	 	 	 	 	 	 	 	 	 	 	 	 	1581474978	11.07	20.50
12/02/2020 02:36:19	120220	12022020	023619	194.19	13.620948	-56.953295	194.47	-0.420	0.370	1.580	194.24	-1.00	2.00	 	 	 	 	 	 	 	 	 	 	 	 	 	 	 	 	 	 	1581474979	10.29	19.06
12/02/2020 02:36:20	120220	12022020	023620	194.30	13.620900	-56.953313	194.52	-0.610	-0.030	1.970	194.30	-1.30	2.40	 	 	 	 	 	 	 	 	 	 	 	 	 	 	 	 	 	 	1581474980	10.19	18.87
12/02/2020 02:36:21	120220	12022020	023621	193.95	13.620850	-56.953333	194.11	-0.350	-1.100	2.490	193.83	-2.40	2.90	 	 	 	 	 	 	 	 	 	 	 	 	 	 	 	 	 	 	1581474981	10.81	20.02
12/02/2020 02:36:22	120220	12022020	023622	193.17	13.620797	-56.953353	193.29	0.170	-1.920	2.960	193.00	-3.20	3.40	 	 	 	 	 	 	 	 	 	 	 	 	 	 	 	 	 	 	1581474982	11.76	21.78
12/02/2020 02:36:23	120220	12022020	023623	192.42	13.620747	-56.953368	192.57	0.560	-1.580	2.780	192.32	-3.00	3.30	 	 	 	 	 	 	 	 	 	 	 	 	 	 	 	 	 	 	1581474983	12.04	22.30
12/02/2020 02:36:24	120220	12022020	023624	192.21	13.620702	-56.953378	192.44	0.510	-0.300	1.990	192.23	-1.70	2.50	 	 	 	 	 	 	 	 	 	 	 	 	 	 	 	 	 	 	1581474984	11.17	20.69
12/02/2020 02:36:25	120220	12022020	023625	192.49	13.620655	-56.953387	192.77	0.100	0.870	1.310	192.58	-0.50	1.80	 	 	 	 	 	 	 	 	 	 	 	 	 	 	 	 	 	 	1581474985	10.14	18.78
12/02/2020 02:36:26	120220	12022020	023626	192.98	13.620607	-56.953398	193.27	-0.280	1.130	0.970	193.08	-0.20	1.50	 	 	 	 	 	 	 	 	 	 	 	 	 	 	 	 	 	 	1581474986	9.96	18.45
12/02/2020 02:36:27	120220	12022020	023627	193.41	13.620555	-56.953412	193.67	-0.340	0.400	1.140	193.46	-0.90	1.60	 	 	 	 	 	 	 	 	 	 	 	 	 	 	 	 	 	 	1581474987	10.62	19.67
12/02/2020 02:36:28	120220	12022020	023628	193.50	13.620502	-56.953430	193.73	-0.040	-0.750	1.850	193.48	-2.00	2.30	 	 	 	 	 	 	 	 	 	 	 	 	 	 	 	 	 	 	1581474988	11.54	21.37
12/02/2020 02:36:29	120220	12022020	023629	193.28	13.620450	-56.953448	193.49	0.310	-1.460	2.500	193.21	-2.80	2.90	 	 	 	 	 	 	 	 	 	 	 	 	 	 	 	 	 	 	1581474989	12.10	22.41
12/02/2020 02:36:30	120220	12022020	023630	192.87	13.620400	-56.953463	193.06	0.360	-1.320	2.920	192.77	-2.70	3.40	 	 	 	 	 	 	 	 	 	 	 	 	 	 	 	 	 	 	1581474990	11.88	22.00
12/02/2020 02:36:31	120220	12022020	023631	192.34	13.620353	-56.953480	192.54	0.070	-0.580	3.040	192.26	-2.00	3.50	 	 	 	 	 	 	 	 	 	 	 	 	 	 	 	 	 	 	1581474991	11.13	20.61
12/02/2020 02:36:32	120220	12022020	023632	192.15	13.620308	-56.953493	192.41	-0.370	0.460	2.670	192.17	-0.90	3.20	 	 	 	 	 	 	 	 	 	 	 	 	 	 	 	 	 	 	1581474992	10.56	19.56
12/02/2020 02:36:33	120220	12022020	023633	192.40	13.620263	-56.953505	192.71	-0.630	1.060	1.910	192.48	-0.30	2.40	 	 	 	 	 	 	 	 	 	 	 	 	 	 	 	 	 	 	1581474993	10.12	18.74
12/02/2020 02:36:34	120220	12022020	023634	192.81	13.620213	-56.953517	193.10	-0.380	0.730	1.150	192.89	-0.60	1.70	 	 	 	 	 	 	 	 	 	 	 	 	 	 	 	 	 	 	1581474994	10.17	18.83
12/02/2020 02:36:35	120220	12022020	023635	193.16	13.620160	-56.953528	193.42	0.320	-0.190	0.690	193.21	-1.50	1.20	 	 	 	 	 	 	 	 	 	 	 	 	 	 	 	 	 	 	1581474995	10.91	20.21
12/02/2020 02:36:36	120220	12022020	023636	193.26	13.620108	-56.953538	193.49	0.900	-0.990	0.730	193.25	-2.30	1.20	 	 	 	 	 	 	 	 	 	 	 	 	 	 	 	 	 	 	1581474996	11.56	21.41
12/02/2020 02:36:37	120220	12022020	023637	193.17	13.620057	-56.953550	193.41	0.810	-1.340	1.150	193.16	-2.70	1.60	 	 	 	 	 	 	 	 	 	 	 	 	 	 	 	 	 	 	1581474997	11.55	21.39
12/02/2020 02:36:38	120220	12022020	023638	193.16	13.620010	-56.953567	193.42	0.210	-1.190	1.630	193.16	-2.50	2.10	 	 	 	 	 	 	 	 	 	 	 	 	 	 	 	 	 	 	1581474998	11.16	20.67
12/02/2020 02:36:39	120220	12022020	023639	193.10	13.619962	-56.953582	193.34	-0.270	-0.850	2.050	193.06	-2.20	2.50	 	 	 	 	 	 	 	 	 	 	 	 	 	 	 	 	 	 	1581474999	10.80	20.00
12/02/2020 02:36:40	120220	12022020	023640	192.92	13.619913	-56.953598	193.17	-0.370	-0.550	2.400	192.89	-1.90	2.80	 	 	 	 	 	 	 	 	 	 	 	 	 	 	 	 	 	 	1581475000	10.75	19.91
12/02/2020 02:36:41	120220	12022020	023641	192.77	13.619863	-56.953615	193.03	-0.390	-0.280	2.650	192.74	-1.60	3.10	 	 	 	 	 	 	 	 	 	 	 	 	 	 	 	 	 	 	1581475001	11.05	20.46
12/02/2020 02:36:42	120220	12022020	023642	192.57	13.619813	-56.953633	192.80	-0.500	-0.150	2.690	192.51	-1.50	3.10	 	 	 	 	 	 	 	 	 	 	 	 	 	 	 	 	 	 	1581475002	11.21	20.76
12/02/2020 02:36:43	120220	12022020	023643	192.22	13.619763	-56.953650	192.40	-0.500	-0.150	2.590	192.14	-1.50	3.00	 	 	 	 	 	 	 	 	 	 	 	 	 	 	 	 	 	 	1581475003	11.35	21.02
12/02/2020 02:36:44	120220	12022020	023644	191.90	13.619712	-56.953665	192.13	-0.250	-0.040	2.330	191.89	-1.40	2.80	 	 	 	 	 	 	 	 	 	 	 	 	 	 	 	 	 	 	1581475004	11.51	21.32
12/02/2020 02:36:45	120220	12022020	023645	192.02	13.619662	-56.953677	192.31	0.010	0.390	1.830	192.09	-1.00	2.30	 	 	 	 	 	 	 	 	 	 	 	 	 	 	 	 	 	 	1581475005	11.43	21.17
12/02/2020 02:36:46	120220	12022020	023646	192.50	13.619615	-56.953688	192.81	0.070	0.820	1.320	192.61	-0.60	1.80	 	 	 	 	 	 	 	 	 	 	 	 	 	 	 	 	 	 	1581475006	10.88	20.15
12/02/2020 02:36:47	120220	12022020	023647	193.10	13.619568	-56.953700	193.41	0.050	0.820	0.950	193.22	-0.50	1.40	 	 	 	 	 	 	 	 	 	 	 	 	 	 	 	 	 	 	1581475007	10.43	19.32
12/02/2020 02:36:48	120220	12022020	023648	193.61	13.619518	-56.953710	193.87	0.240	0.250	0.760	193.67	-1.10	1.20	 	 	 	 	 	 	 	 	 	 	 	 	 	 	 	 	 	 	1581475008	10.43	19.32
12/02/2020 02:36:49	120220	12022020	023649	193.71	13.619468	-56.953723	193.93	0.670	-0.830	1.010	193.68	-2.10	1.40	 	 	 	 	 	 	 	 	 	 	 	 	 	 	 	 	 	 	1581475009	10.78	19.96
12/02/2020 02:36:50	120220	12022020	023650	193.50	13.619415	-56.953735	193.72	0.950	-1.760	1.460	193.45	-3.10	1.90	 	 	 	 	 	 	 	 	 	 	 	 	 	 	 	 	 	 	1581475010	11.37	21.06
12/02/2020 02:36:51	120220	12022020	023651	193.27	13.619365	-56.953748	193.49	0.680	-1.850	1.870	193.22	-3.20	2.30	 	 	 	 	 	 	 	 	 	 	 	 	 	 	 	 	 	 	1581475011	11.59	21.46
12/02/2020 02:36:52	120220	12022020	023652	192.98	13.619318	-56.953763	193.17	-0.020	-1.290	2.280	192.90	-2.70	2.70	 	 	 	 	 	 	 	 	 	 	 	 	 	 	 	 	 	 	1581475012	11.03	20.43
12/02/2020 02:36:53	120220	12022020	023653	192.60	13.619272	-56.953780	192.80	-0.610	-0.660	2.510	192.54	-2.00	3.00	 	 	 	 	 	 	 	 	 	 	 	 	 	 	 	 	 	 	1581475013	10.55	19.54
12/02/2020 02:36:54	120220	12022020	023654	192.35	13.619222	-56.953797	192.58	-0.740	-0.170	2.340	192.33	-1.50	2.80	 	 	 	 	 	 	 	 	 	 	 	 	 	 	 	 	 	 	1581475014	10.77	19.95
12/02/2020 02:36:55	120220	12022020	023655	192.38	13.619172	-56.953812	192.63	-0.540	0.230	1.970	192.40	-1.10	2.40	 	 	 	 	 	 	 	 	 	 	 	 	 	 	 	 	 	 	1581475015	11.13	20.61
12/02/2020 02:36:56	120220	12022020	023656	192.55	13.619122	-56.953825	192.80	-0.330	0.360	1.670	192.55	-1.00	2.10	 	 	 	 	 	 	 	 	 	 	 	 	 	 	 	 	 	 	1581475016	11.21	20.76
12/02/2020 02:36:57	120220	12022020	023657	192.81	13.619070	-56.953840	193.08	-0.300	0.250	1.540	192.87	-1.10	2.00	 	 	 	 	 	 	 	 	 	 	 	 	 	 	 	 	 	 	1581475017	11.30	20.93
12/02/2020 02:36:58	120220	12022020	023658	193.06	13.619020	-56.953857	193.31	-0.300	0.040	1.610	193.09	-1.30	2.10	 	 	 	 	 	 	 	 	 	 	 	 	 	 	 	 	 	 	1581475018	11.39	21.09
12/02/2020 02:36:59	120220	12022020	023659	193.12	13.618970	-56.953873	193.36	-0.090	-0.240	1.830	193.11	-1.60	2.30	 	 	 	 	 	 	 	 	 	 	 	 	 	 	 	 	 	 	1581475019	11.33	20.98
12/02/2020 02:37:00	120220	12022020	023700	193.06	13.618920	-56.953887	193.29	0.340	-0.390	1.840	193.03	-1.70	2.30	 	 	 	 	 	 	 	 	 	 	 	 	 	 	 	 	 	 	1581475020	11.33	20.98
12/02/2020 02:37:01	120220	12022020	023701	192.92	13.618870	-56.953897	193.15	0.700	-0.260	1.660	192.90	-1.60	2.10	1017.40	26.10	26.10	20.80	20.80	-1.0	72.0	72.0	397.0	25.6	265.00	10.00	70.00	11.90	16	8083.0	27.2	27.2	1581475021	11.22	20.78
12/02/2020 02:37:02	120220	12022020	023702	192.88	13.618820	-56.953907	193.14	0.660	-0.010	1.400	192.90	-1.40	1.90	 	 	 	 	 	 	 	 	 	 	 	 	 	 	 	 	 	 	1581475022	10.95	20.28
12/02/2020 02:37:03	120220	12022020	023703	193.11	13.618772	-56.953917	193.40	0.190	0.080	1.180	193.19	-1.30	1.70	 	 	 	 	 	 	 	 	 	 	 	 	 	 	 	 	 	 	1581475023	10.72	19.85
12/02/2020 02:37:04	120220	12022020	023704	193.55	13.618723	-56.953933	193.85	-0.330	-0.130	1.300	193.64	-1.50	1.80	 	 	 	 	 	 	 	 	 	 	 	 	 	 	 	 	 	 	1581475024	10.73	19.87
12/02/2020 02:37:05	120220	12022020	023705	193.95	13.618675	-56.953952	194.24	-0.440	-0.470	1.500	194.02	-1.80	2.00	 	 	 	 	 	 	 	 	 	 	 	 	 	 	 	 	 	 	1581475025	10.93	20.24
12/02/2020 02:37:06	120220	12022020	023706	194.21	13.618627	-56.953967	194.46	-0.140	-0.670	1.420	194.23	-2.00	1.90	 	 	 	 	 	 	 	 	 	 	 	 	 	 	 	 	 	 	1581475026	11.14	20.63
12/02/2020 02:37:07	120220	12022020	023707	194.13	13.618577	-56.953980	194.31	0.280	-0.860	1.360	194.05	-2.20	1.80	 	 	 	 	 	 	 	 	 	 	 	 	 	 	 	 	 	 	1581475027	10.99	20.35
12/02/2020 02:37:08	120220	12022020	023708	193.59	13.618525	-56.953993	193.73	0.490	-1.120	1.550	193.45	-2.50	2.00	 	 	 	 	 	 	 	 	 	 	 	 	 	 	 	 	 	 	1581475028	10.97	20.32
12/02/2020 02:37:09	120220	12022020	023709	192.90	13.618475	-56.954008	193.08	0.330	-1.080	1.960	192.78	-2.40	2.40	 	 	 	 	 	 	 	 	 	 	 	 	 	 	 	 	 	 	1581475029	11.30	20.93
12/02/2020 02:37:10	120220	12022020	023710	192.44	13.618427	-56.954023	192.67	-0.130	-0.470	2.230	192.39	-1.90	2.70	 	 	 	 	 	 	 	 	 	 	 	 	 	 	 	 	 	 	1581475030	11.30	20.93
12/02/2020 02:37:11	120220	12022020	023711	192.28	13.618380	-56.954040	192.52	-0.560	0.240	2.300	192.26	-1.10	2.80	 	 	 	 	 	 	 	 	 	 	 	 	 	 	 	 	 	 	1581475031	10.87	20.13
12/02/2020 02:37:12	120220	12022020	023712	192.22	13.618332	-56.954058	192.48	-0.630	0.510	2.180	192.23	-0.80	2.70	 	 	 	 	 	 	 	 	 	 	 	 	 	 	 	 	 	 	1581475032	10.64	19.71
12/02/2020 02:37:13	120220	12022020	023713	192.37	13.618282	-56.954073	192.67	-0.280	0.450	1.800	192.43	-0.90	2.30	 	 	 	 	 	 	 	 	 	 	 	 	 	 	 	 	 	 	1581475033	11.04	20.45
12/02/2020 02:37:14	120220	12022020	023714	192.71	13.618230	-56.954085	193.01	0.190	0.180	1.450	192.78	-1.10	1.90	 	 	 	 	 	 	 	 	 	 	 	 	 	 	 	 	 	 	1581475034	11.28	20.89
12/02/2020 02:37:15	120220	12022020	023715	193.11	13.618178	-56.954097	193.44	0.490	-0.300	1.240	193.21	-1.60	1.70	 	 	 	 	 	 	 	 	 	 	 	 	 	 	 	 	 	 	1581475035	11.32	20.96
12/02/2020 02:37:16	120220	12022020	023716	193.59	13.618128	-56.954110	193.92	0.470	-0.670	1.310	193.68	-2.00	1.80	 	 	 	 	 	 	 	 	 	 	 	 	 	 	 	 	 	 	1581475036	11.43	21.17
12/02/2020 02:37:17	120220	12022020	023717	194.00	13.618078	-56.954125	194.31	0.250	-0.650	1.640	194.06	-2.00	2.10	 	 	 	 	 	 	 	 	 	 	 	 	 	 	 	 	 	 	1581475037	11.30	20.93
12/02/2020 02:37:18	120220	12022020	023718	194.18	13.618032	-56.954138	194.44	0.020	-0.400	1.960	194.17	-1.80	2.40	 	 	 	 	 	 	 	 	 	 	 	 	 	 	 	 	 	 	1581475038	10.83	20.06
12/02/2020 02:37:19	120220	12022020	023719	193.99	13.617983	-56.954153	194.20	-0.100	-0.440	2.270	193.91	-1.80	2.70	 	 	 	 	 	 	 	 	 	 	 	 	 	 	 	 	 	 	1581475039	10.51	19.46
12/02/2020 02:37:20	120220	12022020	023720	193.53	13.617933	-56.954168	193.72	-0.130	-0.750	2.480	193.43	-2.10	2.90	 	 	 	 	 	 	 	 	 	 	 	 	 	 	 	 	 	 	1581475040	10.85	20.09
12/02/2020 02:37:21	120220	12022020	023721	193.05	13.617882	-56.954183	193.24	-0.200	-0.900	2.390	192.97	-2.20	2.90	 	 	 	 	 	 	 	 	 	 	 	 	 	 	 	 	 	 	1581475041	11.42	21.15
12/02/2020 02:37:22	120220	12022020	023722	192.74	13.617832	-56.954198	192.95	-0.360	-0.610	2.170	192.70	-2.00	2.70	 	 	 	 	 	 	 	 	 	 	 	 	 	 	 	 	 	 	1581475042	11.47	21.24
12/02/2020 02:37:23	120220	12022020	023723	192.56	13.617783	-56.954213	192.77	-0.480	-0.140	1.980	192.53	-1.50	2.50	 	 	 	 	 	 	 	 	 	 	 	 	 	 	 	 	 	 	1581475043	11.11	20.58
12/02/2020 02:37:24	120220	12022020	023724	192.39	13.617735	-56.954228	192.60	-0.380	0.150	1.800	192.36	-1.20	2.30	 	 	 	 	 	 	 	 	 	 	 	 	 	 	 	 	 	 	1581475044	10.85	20.09
12/02/2020 02:37:25	120220	12022020	023725	192.27	13.617685	-56.954243	192.49	-0.030	0.160	1.690	192.26	-1.20	2.20	 	 	 	 	 	 	 	 	 	 	 	 	 	 	 	 	 	 	1581475045	10.97	20.32
12/02/2020 02:37:26	120220	12022020	023726	192.29	13.617633	-56.954255	192.55	0.360	0.080	1.590	192.32	-1.30	2.10	 	 	 	 	 	 	 	 	 	 	 	 	 	 	 	 	 	 	1581475046	11.22	20.78
12/02/2020 02:37:27	120220	12022020	023727	192.50	13.617583	-56.954268	192.79	0.590	0.010	1.490	192.56	-1.30	2.00	 	 	 	 	 	 	 	 	 	 	 	 	 	 	 	 	 	 	1581475047	11.26	20.85
12/02/2020 02:37:28	120220	12022020	023728	192.92	13.617535	-56.954280	193.25	0.570	0.020	1.370	193.03	-1.30	1.90	 	 	 	 	 	 	 	 	 	 	 	 	 	 	 	 	 	 	1581475048	11.11	20.58
12/02/2020 02:37:29	120220	12022020	023729	193.50	13.617487	-56.954292	193.84	0.340	0.020	1.350	193.62	-1.30	1.80	 	 	 	 	 	 	 	 	 	 	 	 	 	 	 	 	 	 	1581475049	10.88	20.15
12/02/2020 02:37:30	120220	12022020	023730	194.05	13.617438	-56.954305	194.37	0.040	-0.290	1.510	194.13	-1.60	2.00	 	 	 	 	 	 	 	 	 	 	 	 	 	 	 	 	 	 	1581475050	10.64	19.71
12/02/2020 02:37:31	120220	12022020	023731	194.20	13.617388	-56.954322	194.45	-0.090	-1.010	1.950	194.17	-2.30	2.40	 	 	 	 	 	 	 	 	 	 	 	 	 	 	 	 	 	 	1581475051	10.79	19.98
12/02/2020 02:37:32	120220	12022020	023732	193.87	13.617337	-56.954340	194.09	-0.030	-1.580	2.460	193.78	-2.90	2.90	 	 	 	 	 	 	 	 	 	 	 	 	 	 	 	 	 	 	1581475052	11.35	21.02
12/02/2020 02:37:33	120220	12022020	023733	193.43	13.617287	-56.954355	193.66	-0.000	-1.380	2.580	193.37	-2.70	3.10	 	 	 	 	 	 	 	 	 	 	 	 	 	 	 	 	 	 	1581475053	11.60	21.48
12/02/2020 02:37:34	120220	12022020	023734	193.21	13.617240	-56.954368	193.45	-0.110	-0.620	2.150	193.18	-2.00	2.70	 	 	 	 	 	 	 	 	 	 	 	 	 	 	 	 	 	 	1581475054	11.13	20.61
12/02/2020 02:37:35	120220	12022020	023735	193.11	13.617190	-56.954380	193.35	-0.220	-0.090	1.570	193.09	-1.40	2.10	 	 	 	 	 	 	 	 	 	 	 	 	 	 	 	 	 	 	1581475055	10.61	19.65
12/02/2020 02:37:36	120220	12022020	023736	192.96	13.617138	-56.954392	193.20	-0.160	-0.020	1.230	192.94	-1.40	1.70	 	 	 	 	 	 	 	 	 	 	 	 	 	 	 	 	 	 	1581475056	10.86	20.11
12/02/2020 02:37:37	120220	12022020	023737	192.93	13.617085	-56.954405	193.21	-0.070	0.040	1.100	192.95	-1.30	1.60	 	 	 	 	 	 	 	 	 	 	 	 	 	 	 	 	 	 	1581475057	11.49	21.28
12/02/2020 02:37:38	120220	12022020	023738	193.14	13.617035	-56.954418	193.44	-0.220	0.320	1.240	193.20	-1.00	1.70	 	 	 	 	 	 	 	 	 	 	 	 	 	 	 	 	 	 	1581475058	11.60	21.48
12/02/2020 02:37:39	120220	12022020	023739	193.42	13.616987	-56.954435	193.72	-0.490	0.460	1.530	193.47	-0.90	2.00	 	 	 	 	 	 	 	 	 	 	 	 	 	 	 	 	 	 	1581475059	11.16	20.67
12/02/2020 02:37:40	120220	12022020	023740	193.59	13.616938	-56.954452	193.86	-0.510	0.270	1.820	193.61	-1.00	2.30	 	 	 	 	 	 	 	 	 	 	 	 	 	 	 	 	 	 	1581475060	10.97	20.32
12/02/2020 02:37:41	120220	12022020	023741	193.64	13.616888	-56.954468	193.90	-0.090	-0.140	1.910	193.64	-1.40	2.40	 	 	 	 	 	 	 	 	 	 	 	 	 	 	 	 	 	 	1581475061	11.16	20.67
12/02/2020 02:37:42	120220	12022020	023742	193.69	13.616837	-56.954480	193.96	0.410	-0.440	1.620	193.72	-1.80	2.10	 	 	 	 	 	 	 	 	 	 	 	 	 	 	 	 	 	 	1581475062	11.31	20.95
12/02/2020 02:37:43	120220	12022020	023743	193.82	13.616788	-56.954492	194.07	0.580	-0.530	1.420	193.83	-1.90	1.90	 	 	 	 	 	 	 	 	 	 	 	 	 	 	 	 	 	 	1581475063	11.17	20.69
12/02/2020 02:37:44	120220	12022020	023744	193.76	13.616740	-56.954505	193.98	0.420	-0.700	1.440	193.72	-2.00	1.90	 	 	 	 	 	 	 	 	 	 	 	 	 	 	 	 	 	 	1581475064	10.83	20.06
12/02/2020 02:37:45	120220	12022020	023745	193.61	13.616690	-56.954520	193.87	0.170	-0.830	1.520	193.62	-2.20	2.00	 	 	 	 	 	 	 	 	 	 	 	 	 	 	 	 	 	 	1581475065	10.87	20.13
12/02/2020 02:37:46	120220	12022020	023746	193.82	13.616642	-56.954537	194.13	-0.040	-0.620	1.400	193.90	-2.00	1.90	 	 	 	 	 	 	 	 	 	 	 	 	 	 	 	 	 	 	1581475066	11.08	20.52
12/02/2020 02:37:47	120220	12022020	023747	194.22	13.616595	-56.954550	194.51	-0.160	-0.360	1.210	194.27	-1.70	1.70	 	 	 	 	 	 	 	 	 	 	 	 	 	 	 	 	 	 	1581475067	10.82	20.04
12/02/2020 02:37:48	120220	12022020	023748	194.22	13.616545	-56.954565	194.41	-0.030	-0.640	1.330	194.15	-2.00	1.80	 	 	 	 	 	 	 	 	 	 	 	 	 	 	 	 	 	 	1581475068	10.63	19.69
12/02/2020 02:37:49	120220	12022020	023749	193.66	13.616490	-56.954580	193.82	0.260	-1.140	1.750	193.53	-2.50	2.20	 	 	 	 	 	 	 	 	 	 	 	 	 	 	 	 	 	 	1581475069	11.28	20.89
12/02/2020 02:37:50	120220	12022020	023750	193.14	13.616438	-56.954595	193.37	0.200	-0.830	2.080	193.09	-2.20	2.50	 	 	 	 	 	 	 	 	 	 	 	 	 	 	 	 	 	 	1581475070	12.01	22.24
12/02/2020 02:37:51	120220	12022020	023751	193.11	13.616392	-56.954610	193.39	-0.360	0.190	2.010	193.15	-1.20	2.50	 	 	 	 	 	 	 	 	 	 	 	 	 	 	 	 	 	 	1581475071	11.53	21.35
12/02/2020 02:37:52	120220	12022020	023752	193.34	13.616345	-56.954625	193.62	-0.900	0.900	1.830	193.39	-0.50	2.30	 	 	 	 	 	 	 	 	 	 	 	 	 	 	 	 	 	 	1581475072	10.55	19.54
12/02/2020 02:37:53	120220	12022020	023753	193.54	13.616297	-56.954643	193.80	-0.820	0.740	1.810	193.56	-0.60	2.30	 	 	 	 	 	 	 	 	 	 	 	 	 	 	 	 	 	 	1581475073	10.51	19.46
12/02/2020 02:37:54	120220	12022020	023754	193.65	13.616243	-56.954658	193.92	-0.220	0.170	1.790	193.67	-1.10	2.30	 	 	 	 	 	 	 	 	 	 	 	 	 	 	 	 	 	 	1581475074	11.28	20.89
12/02/2020 02:37:55	120220	12022020	023755	193.80	13.616193	-56.954673	194.09	0.340	-0.170	1.650	193.84	-1.50	2.10	 	 	 	 	 	 	 	 	 	 	 	 	 	 	 	 	 	 	1581475075	11.73	21.72
12/02/2020 02:37:56	120220	12022020	023756	193.97	13.616145	-56.954687	194.24	0.510	-0.260	1.570	193.99	-1.60	2.10	 	 	 	 	 	 	 	 	 	 	 	 	 	 	 	 	 	 	1581475076	11.32	20.96
12/02/2020 02:37:57	120220	12022020	023757	193.95	13.616095	-56.954700	194.18	0.430	-0.590	1.660	193.92	-1.90	2.10	 	 	 	 	 	 	 	 	 	 	 	 	 	 	 	 	 	 	1581475077	10.76	19.93
12/02/2020 02:37:58	120220	12022020	023758	193.72	13.616045	-56.954715	193.92	0.330	-1.160	1.920	193.66	-2.50	2.40	 	 	 	 	 	 	 	 	 	 	 	 	 	 	 	 	 	 	1581475078	10.89	20.17
12/02/2020 02:37:59	120220	12022020	023759	193.43	13.615995	-56.954732	193.65	0.280	-1.310	2.250	193.39	-2.60	2.70	 	 	 	 	 	 	 	 	 	 	 	 	 	 	 	 	 	 	1581475079	11.37	21.06
12/02/2020 02:38:00	120220	12022020	023800	193.25	13.615948	-56.954747	193.48	0.160	-0.710	2.260	193.22	-2.10	2.70	 	 	 	 	 	 	 	 	 	 	 	 	 	 	 	 	 	 	1581475080	11.30	20.93
12/02/2020 02:38:01	120220	12022020	023801	193.11	13.615902	-56.954760	193.34	-0.070	-0.000	2.020	193.09	-1.40	2.50	1017.30	26.10	26.10	20.70	20.80	-1.0	72.0	72.0	397.0	25.6	263.00	10.00	68.00	12.10	16	8385.0	27.2	27.2	1581475081	10.56	19.56
12/02/2020 02:38:02	120220	12022020	023802	193.01	13.615853	-56.954773	193.25	-0.230	0.120	1.850	193.00	-1.20	2.30	 	 	 	 	 	 	 	 	 	 	 	 	 	 	 	 	 	 	1581475082	10.32	19.11
12/02/2020 02:38:03	120220	12022020	023803	192.99	13.615802	-56.954788	193.25	-0.190	-0.210	1.680	193.02	-1.50	2.20	 	 	 	 	 	 	 	 	 	 	 	 	 	 	 	 	 	 	1581475083	10.95	20.28
12/02/2020 02:38:04	120220	12022020	023804	193.27	13.615750	-56.954803	193.57	-0.090	-0.320	1.340	193.37	-1.70	1.80	 	 	 	 	 	 	 	 	 	 	 	 	 	 	 	 	 	 	1581475084	11.60	21.48
12/02/2020 02:38:05	120220	12022020	023805	193.78	13.615700	-56.954817	194.08	-0.130	-0.100	1.010	193.88	-1.40	1.50	 	 	 	 	 	 	 	 	 	 	 	 	 	 	 	 	 	 	1581475085	11.46	21.22
12/02/2020 02:38:06	120220	12022020	023806	194.07	13.615652	-56.954830	194.31	-0.200	-0.170	1.060	194.06	-1.50	1.50	 	 	 	 	 	 	 	 	 	 	 	 	 	 	 	 	 	 	1581475086	10.88	20.15
12/02/2020 02:38:07	120220	12022020	023807	193.85	13.615600	-56.954848	194.04	-0.140	-0.680	1.630	193.77	-2.00	2.10	 	 	 	 	 	 	 	 	 	 	 	 	 	 	 	 	 	 	1581475087	10.98	20.33
12/02/2020 02:38:08	120220	12022020	023808	193.41	13.615548	-56.954865	193.60	0.010	-1.010	2.110	193.32	-2.30	2.60	 	 	 	 	 	 	 	 	 	 	 	 	 	 	 	 	 	 	1581475088	11.62	21.52
12/02/2020 02:38:09	120220	12022020	023809	193.03	13.615498	-56.954880	193.25	0.080	-0.610	2.120	192.99	-2.00	2.60	 	 	 	 	 	 	 	 	 	 	 	 	 	 	 	 	 	 	1581475089	11.75	21.76
12/02/2020 02:38:10	120220	12022020	023810	192.99	13.615453	-56.954892	193.27	-0.050	0.410	1.790	193.04	-1.00	2.30	 	 	 	 	 	 	 	 	 	 	 	 	 	 	 	 	 	 	1581475090	11.12	20.59
12/02/2020 02:38:11	120220	12022020	023811	193.27	13.615407	-56.954903	193.55	-0.230	1.060	1.420	193.32	-0.30	1.90	 	 	 	 	 	 	 	 	 	 	 	 	 	 	 	 	 	 	1581475091	10.21	18.91
12/02/2020 02:38:12	120220	12022020	023812	193.42	13.615357	-56.954917	193.64	-0.110	0.570	1.330	193.40	-0.70	1.80	 	 	 	 	 	 	 	 	 	 	 	 	 	 	 	 	 	 	1581475092	10.12	18.74
12/02/2020 02:38:13	120220	12022020	023813	193.21	13.615303	-56.954932	193.40	0.380	-0.630	1.640	193.15	-1.90	2.10	 	 	 	 	 	 	 	 	 	 	 	 	 	 	 	 	 	 	1581475093	11.07	20.50
12/02/2020 02:38:14	120220	12022020	023814	192.95	13.615252	-56.954947	193.19	0.780	-1.290	1.880	192.93	-2.60	2.40	 	 	 	 	 	 	 	 	 	 	 	 	 	 	 	 	 	 	1581475094	11.98	22.19
12/02/2020 02:38:15	120220	12022020	023815	192.92	13.615203	-56.954960	193.19	0.600	-0.960	1.950	192.93	-2.30	2.40	 	 	 	 	 	 	 	 	 	 	 	 	 	 	 	 	 	 	1581475095	11.67	21.61
12/02/2020 02:38:16	120220	12022020	023816	192.97	13.615158	-56.954973	193.24	0.000	-0.480	2.000	192.98	-1.80	2.50	 	 	 	 	 	 	 	 	 	 	 	 	 	 	 	 	 	 	1581475096	10.55	19.54
12/02/2020 02:38:17	120220	12022020	023817	192.97	13.615110	-56.954990	193.24	-0.460	-0.480	2.030	192.97	-1.80	2.50	 	 	 	 	 	 	 	 	 	 	 	 	 	 	 	 	 	 	1581475097	10.25	18.98
12/02/2020 02:38:18	120220	12022020	023818	192.97	13.615060	-56.955007	193.23	-0.530	-0.650	1.960	192.97	-2.00	2.40	 	 	 	 	 	 	 	 	 	 	 	 	 	 	 	 	 	 	1581475098	10.91	20.21
12/02/2020 02:38:19	120220	12022020	023819	192.94	13.615008	-56.955022	193.21	-0.350	-0.590	1.780	192.93	-1.90	2.30	 	 	 	 	 	 	 	 	 	 	 	 	 	 	 	 	 	 	1581475099	11.41	21.13
12/02/2020 02:38:20	120220	12022020	023820	192.93	13.614958	-56.955035	193.21	-0.180	-0.250	1.500	192.94	-1.60	2.00	 	 	 	 	 	 	 	 	 	 	 	 	 	 	 	 	 	 	1581475100	11.34	21.00
12/02/2020 02:38:21	120220	12022020	023821	192.99	13.614908	-56.955047	193.27	-0.110	0.050	1.180	193.00	-1.30	1.70	 	 	 	 	 	 	 	 	 	 	 	 	 	 	 	 	 	 	1581475101	11.10	20.56
12/02/2020 02:38:22	120220	12022020	023822	193.09	13.614858	-56.955058	193.37	-0.040	0.090	0.830	193.11	-1.20	1.30	 	 	 	 	 	 	 	 	 	 	 	 	 	 	 	 	 	 	1581475102	11.05	20.46
12/02/2020 02:38:23	120220	12022020	023823	193.24	13.614807	-56.955072	193.53	0.120	0.050	0.760	193.28	-1.30	1.20	 	 	 	 	 	 	 	 	 	 	 	 	 	 	 	 	 	 	1581475103	11.30	20.93
12/02/2020 02:38:24	120220	12022020	023824	193.44	13.614755	-56.955083	193.75	0.300	0.090	0.800	193.50	-1.20	1.30	 	 	 	 	 	 	 	 	 	 	 	 	 	 	 	 	 	 	1581475104	11.38	21.08
12/02/2020 02:38:25	120220	12022020	023825	193.77	13.614707	-56.955095	194.09	0.330	0.140	0.910	193.84	-1.20	1.40	 	 	 	 	 	 	 	 	 	 	 	 	 	 	 	 	 	 	1581475105	11.14	20.63
12/02/2020 02:38:26	120220	12022020	023826	194.10	13.614658	-56.955110	194.42	0.120	-0.010	1.420	194.15	-1.30	1.90	 	 	 	 	 	 	 	 	 	 	 	 	 	 	 	 	 	 	1581475106	10.89	20.17
12/02/2020 02:38:27	120220	12022020	023827	194.21	13.614610	-56.955127	194.48	-0.230	-0.430	2.090	194.18	-1.70	2.50	 	 	 	 	 	 	 	 	 	 	 	 	 	 	 	 	 	 	1581475107	10.81	20.02
12/02/2020 02:38:28	120220	12022020	023828	193.78	13.614560	-56.955147	193.97	-0.380	-1.190	2.760	193.62	-2.50	3.20	 	 	 	 	 	 	 	 	 	 	 	 	 	 	 	 	 	 	1581475108	10.98	20.33
12/02/2020 02:38:29	120220	12022020	023829	192.82	13.614508	-56.955168	192.96	-0.150	-1.860	3.340	192.61	-3.20	3.80	 	 	 	 	 	 	 	 	 	 	 	 	 	 	 	 	 	 	1581475109	11.49	21.28
12/02/2020 02:38:30	120220	12022020	023830	191.92	13.614460	-56.955185	192.13	0.200	-1.380	3.470	191.80	-2.80	3.90	 	 	 	 	 	 	 	 	 	 	 	 	 	 	 	 	 	 	1581475110	11.95	22.13
12/02/2020 02:38:31	120220	12022020	023831	191.57	13.614413	-56.955195	191.85	0.230	0.010	2.990	191.56	-1.40	3.50	 	 	 	 	 	 	 	 	 	 	 	 	 	 	 	 	 	 	1581475111	11.19	20.72
12/02/2020 02:38:32	120220	12022020	023832	191.70	13.614368	-56.955207	192.04	-0.100	0.990	2.320	191.78	-0.40	2.80	 	 	 	 	 	 	 	 	 	 	 	 	 	 	 	 	 	 	1581475112	10.02	18.56
12/02/2020 02:38:33	120220	12022020	023833	192.22	13.614320	-56.955220	192.61	-0.370	1.070	1.740	192.37	-0.30	2.30	 	 	 	 	 	 	 	 	 	 	 	 	 	 	 	 	 	 	1581475113	10.14	18.78
12/02/2020 02:38:34	120220	12022020	023834	193.02	13.614268	-56.955233	193.42	-0.240	0.620	1.180	193.18	-0.70	1.70	 	 	 	 	 	 	 	 	 	 	 	 	 	 	 	 	 	 	1581475114	10.87	20.13
12/02/2020 02:38:35	120220	12022020	023835	193.73	13.614218	-56.955247	194.09	0.230	-0.110	0.930	193.84	-1.40	1.40	 	 	 	 	 	 	 	 	 	 	 	 	 	 	 	 	 	 	1581475115	11.24	20.82
12/02/2020 02:38:36	120220	12022020	023836	194.11	13.614167	-56.955260	194.39	0.710	-0.860	1.100	194.14	-2.20	1.60	 	 	 	 	 	 	 	 	 	 	 	 	 	 	 	 	 	 	1581475116	11.32	20.96
12/02/2020 02:38:37	120220	12022020	023837	194.12	13.614117	-56.955272	194.36	0.910	-1.360	1.310	194.10	-2.70	1.80	 	 	 	 	 	 	 	 	 	 	 	 	 	 	 	 	 	 	1581475117	11.30	20.93
12/02/2020 02:38:38	120220	12022020	023838	193.88	13.614067	-56.955285	194.10	0.740	-1.500	1.620	193.81	-2.80	2.10	 	 	 	 	 	 	 	 	 	 	 	 	 	 	 	 	 	 	1581475118	11.13	20.61
12/02/2020 02:38:39	120220	12022020	023839	193.45	13.614018	-56.955298	193.66	0.220	-1.280	2.140	193.36	-2.60	2.60	 	 	 	 	 	 	 	 	 	 	 	 	 	 	 	 	 	 	1581475119	10.98	20.33
12/02/2020 02:38:40	120220	12022020	023840	192.88	13.613970	-56.955313	193.08	-0.520	-0.660	2.710	192.76	-2.00	3.20	 	 	 	 	 	 	 	 	 	 	 	 	 	 	 	 	 	 	1581475120	10.85	20.09
12/02/2020 02:38:41	120220	12022020	023841	192.29	13.613923	-56.955332	192.52	-1.190	-0.060	3.110	192.20	-1.40	3.60	 	 	 	 	 	 	 	 	 	 	 	 	 	 	 	 	 	 	1581475121	10.72	19.85
12/02/2020 02:38:42	120220	12022020	023842	191.88	13.613873	-56.955353	192.12	-1.480	0.080	3.200	191.82	-1.20	3.70	 	 	 	 	 	 	 	 	 	 	 	 	 	 	 	 	 	 	1581475122	10.88	20.15
12/02/2020 02:38:43	120220	12022020	023843	191.72	13.613822	-56.955373	192.01	-1.150	0.000	2.970	191.74	-1.30	3.50	 	 	 	 	 	 	 	 	 	 	 	 	 	 	 	 	 	 	1581475123	11.52	21.34
12/02/2020 02:38:44	120220	12022020	023844	192.04	13.613772	-56.955388	192.39	-0.350	0.260	2.160	192.17	-1.10	2.70	 	 	 	 	 	 	 	 	 	 	 	 	 	 	 	 	 	 	1581475124	11.89	22.02
12/02/2020 02:38:45	120220	12022020	023845	192.92	13.613723	-56.955398	193.30	0.360	0.730	1.100	193.12	-0.60	1.60	 	 	 	 	 	 	 	 	 	 	 	 	 	 	 	 	 	 	1581475125	11.35	21.02
12/02/2020 02:38:46	120220	12022020	023846	193.90	13.613677	-56.955408	194.25	0.670	0.900	0.600	194.07	-0.40	1.10	 	 	 	 	 	 	 	 	 	 	 	 	 	 	 	 	 	 	1581475126	10.64	19.71
12/02/2020 02:38:47	120220	12022020	023847	194.49	13.613628	-56.955420	194.76	0.760	0.400	0.770	194.55	-0.90	1.20	 	 	 	 	 	 	 	 	 	 	 	 	 	 	 	 	 	 	1581475127	10.36	19.19
12/02/2020 02:38:48	120220	12022020	023848	194.54	13.613578	-56.955433	194.75	0.810	-0.510	1.240	194.49	-1.80	1.70	 	 	 	 	 	 	 	 	 	 	 	 	 	 	 	 	 	 	1581475128	10.67	19.76
12/02/2020 02:38:49	120220	12022020	023849	194.11	13.613528	-56.955448	194.27	0.810	-1.430	2.030	193.98	-2.70	2.50	 	 	 	 	 	 	 	 	 	 	 	 	 	 	 	 	 	 	1581475129	11.06	20.48
12/02/2020 02:38:50	120220	12022020	023850	193.39	13.613478	-56.955465	193.56	0.630	-1.910	2.850	193.39	-3.20	3.30	 	 	 	 	 	 	 	 	 	 	 	 	 	 	 	 	 	 	1581475130	11.25	20.84
12/02/2020 02:38:51	120220	12022020	023851	192.68	13.613432	-56.955482	192.90	0.180	-1.510	3.330	192.58	-2.90	3.80	 	 	 	 	 	 	 	 	 	 	 	 	 	 	 	 	 	 	1581475131	11.27	20.87
12/02/2020 02:38:52	120220	12022020	023852	192.26	13.613387	-56.955498	192.53	-0.470	-0.430	3.310	192.24	-1.80	3.80	 	 	 	 	 	 	 	 	 	 	 	 	 	 	 	 	 	 	1581475132	10.77	19.95
12/02/2020 02:38:53	120220	12022020	023853	192.31	13.613342	-56.955515	192.61	-1.000	0.500	2.920	192.37	-0.90	3.40	 	 	 	 	 	 	 	 	 	 	 	 	 	 	 	 	 	 	1581475133	10.19	18.87
12/02/2020 02:38:54	120220	12022020	023854	192.61	13.613293	-56.955532	192.90	-1.040	0.680	2.320	192.67	-0.70	2.80	 	 	 	 	 	 	 	 	 	 	 	 	 	 	 	 	 	 	1581475134	10.20	18.89
12/02/2020 02:38:55	120220	12022020	023855	192.88	13.613242	-56.955547	193.16	-0.470	0.160	1.680	192.94	-1.10	2.20	 	 	 	 	 	 	 	 	 	 	 	 	 	 	 	 	 	 	1581475135	10.83	20.06
12/02/2020 02:38:56	120220	12022020	023856	193.22	13.613190	-56.955558	193.51	0.270	-0.330	1.060	193.29	-1.70	1.60	 	 	 	 	 	 	 	 	 	 	 	 	 	 	 	 	 	 	1581475136	11.53	21.35
12/02/2020 02:38:57	120220	12022020	023857	193.54	13.613140	-56.955568	193.82	0.630	-0.440	0.800	193.58	-1.80	1.30	 	 	 	 	 	 	 	 	 	 	 	 	 	 	 	 	 	 	1581475137	11.49	21.28
12/02/2020 02:38:58	120220	12022020	023858	193.62	13.613092	-56.955578	193.85	0.520	-0.540	0.920	193.60	-1.90	1.40	 	 	 	 	 	 	 	 	 	 	 	 	 	 	 	 	 	 	1581475138	10.88	20.15
12/02/2020 02:38:59	120220	12022020	023859	193.43	13.613042	-56.955592	193.65	0.210	-0.800	1.300	193.38	-2.10	1.80	 	 	 	 	 	 	 	 	 	 	 	 	 	 	 	 	 	 	1581475139	10.70	19.82
12/02/2020 02:39:00	120220	12022020	023900	193.22	13.612993	-56.955608	193.48	-0.060	-0.870	1.740	193.21	-2.20	2.20	 	 	 	 	 	 	 	 	 	 	 	 	 	 	 	 	 	 	1581475140	11.01	20.39
12/02/2020 02:39:01	120220	12022020	023901	193.20	13.612945	-56.955623	193.47	-0.200	-0.500	1.820	193.20	-1.90	2.30	1017.30	26.10	26.10	20.80	20.80	-1.0	72.0	72.0	396.0	25.6	261.00	9.90	67.00	12.20	16	7988.0	27.2	27.2	1581475141	11.12	20.59
12/02/2020 02:39:02	120220	12022020	023902	193.23	13.612898	-56.955637	193.51	-0.270	0.030	1.670	193.25	-1.30	2.20	 	 	 	 	 	 	 	 	 	 	 	 	 	 	 	 	 	 	1581475142	10.77	19.95
12/02/2020 02:39:03	120220	12022020	023903	193.28	13.612850	-56.955650	193.54	-0.270	0.280	1.500	193.28	-1.10	2.00	 	 	 	 	 	 	 	 	 	 	 	 	 	 	 	 	 	 	1581475143	10.57	19.58
12/02/2020 02:39:04	120220	12022020	023904	193.30	13.612800	-56.955663	193.55	-0.200	0.160	1.470	193.29	-1.20	1.90	 	 	 	 	 	 	 	 	 	 	 	 	 	 	 	 	 	 	1581475144	10.74	19.89
12/02/2020 02:39:05	120220	12022020	023905	193.21	13.612750	-56.955680	193.44	-0.110	-0.140	1.730	193.16	-1.50	2.20	 	 	 	 	 	 	 	 	 	 	 	 	 	 	 	 	 	 	1581475145	11.08	20.52
12/02/2020 02:39:06	120220	12022020	023906	192.83	13.612700	-56.955697	193.02	-0.040	-0.460	2.210	192.71	-1.80	2.70	 	 	 	 	 	 	 	 	 	 	 	 	 	 	 	 	 	 	1581475146	11.21	20.76
12/02/2020 02:39:07	120220	12022020	023907	192.17	13.612652	-56.955713	192.35	0.040	-0.610	2.580	192.04	-1.90	3.00	 	 	 	 	 	 	 	 	 	 	 	 	 	 	 	 	 	 	1581475147	11.24	20.82
12/02/2020 02:39:08	120220	12022020	023908	191.66	13.612603	-56.955730	191.90	0.150	-0.350	2.490	191.63	-1.70	3.00	 	 	 	 	 	 	 	 	 	 	 	 	 	 	 	 	 	 	1581475148	11.21	20.76
12/02/2020 02:39:09	120220	12022020	023909	191.81	13.612557	-56.955742	192.13	0.240	0.290	1.820	191.91	-1.10	2.40	 	 	 	 	 	 	 	 	 	 	 	 	 	 	 	 	 	 	1581475149	10.85	20.09
12/02/2020 02:39:10	120220	12022020	023910	192.43	13.612512	-56.955750	192.76	0.310	0.520	1.070	192.56	-0.80	1.60	 	 	 	 	 	 	 	 	 	 	 	 	 	 	 	 	 	 	1581475150	10.16	18.82
12/02/2020 02:39:11	120220	12022020	023911	192.97	13.612462	-56.955762	193.26	0.500	-0.050	0.720	193.06	-1.40	1.20	 	 	 	 	 	 	 	 	 	 	 	 	 	 	 	 	 	 	1581475151	10.19	18.87
12/02/2020 02:39:12	120220	12022020	023912	193.37	13.612410	-56.955773	193.67	0.620	-0.740	0.780	193.44	-2.10	1.30	 	 	 	 	 	 	 	 	 	 	 	 	 	 	 	 	 	 	1581475152	10.92	20.22
12/02/2020 02:39:13	120220	12022020	023913	193.64	13.612362	-56.955785	193.90	0.450	-1.060	1.110	193.65	-2.40	1.60	 	 	 	 	 	 	 	 	 	 	 	 	 	 	 	 	 	 	1581475153	11.21	20.76
12/02/2020 02:39:14	120220	12022020	023914	193.53	13.612313	-56.955800	193.72	0.070	-1.380	1.760	193.45	-2.70	2.20	 	 	 	 	 	 	 	 	 	 	 	 	 	 	 	 	 	 	1581475154	10.78	19.96
12/02/2020 02:39:15	120220	12022020	023915	193.05	13.612263	-56.955818	193.20	-0.230	-1.730	2.590	192.93	-3.00	3.00	 	 	 	 	 	 	 	 	 	 	 	 	 	 	 	 	 	 	1581475155	10.93	20.24
12/02/2020 02:39:16	120220	12022020	023916	192.43	13.612212	-56.955837	192.62	-0.320	-1.620	3.150	192.32	-3.00	3.60	 	 	 	 	 	 	 	 	 	 	 	 	 	 	 	 	 	 	1581475156	11.49	21.28
12/02/2020 02:39:17	120220	12022020	023917	191.86	13.612163	-56.955852	192.07	-0.420	-0.760	3.340	191.77	-2.10	3.80	 	 	 	 	 	 	 	 	 	 	 	 	 	 	 	 	 	 	1581475157	11.58	21.45
12/02/2020 02:39:18	120220	12022020	023918	191.51	13.612115	-56.955867	191.78	-0.680	0.530	3.160	191.49	-0.90	3.60	 	 	 	 	 	 	 	 	 	 	 	 	 	 	 	 	 	 	1581475158	11.07	20.50
12/02/2020 02:39:19	120220	12022020	023919	191.63	13.612068	-56.955880	191.96	-0.970	1.570	2.660	191.72	0.20	3.20	 	 	 	 	 	 	 	 	 	 	 	 	 	 	 	 	 	 	1581475159	10.57	19.58
12/02/2020 02:39:20	120220	12022020	023920	192.14	13.612020	-56.955895	192.47	-0.920	1.750	2.060	192.26	0.40	2.60	 	 	 	 	 	 	 	 	 	 	 	 	 	 	 	 	 	 	1581475160	10.44	19.33
12/02/2020 02:39:21	120220	12022020	023921	192.71	13.611968	-56.955908	193.02	-0.260	1.040	1.400	192.82	-0.20	1.90	 	 	 	 	 	 	 	 	 	 	 	 	 	 	 	 	 	 	1581475161	10.84	20.08
12/02/2020 02:39:22	120220	12022020	023922	193.28	13.611917	-56.955918	193.59	0.740	0.120	0.730	193.40	-1.20	1.20	 	 	 	 	 	 	 	 	 	 	 	 	 	 	 	 	 	 	1581475162	11.45	21.21
12/02/2020 02:39:23	120220	12022020	023923	193.79	13.611867	-56.955925	194.07	1.420	-0.590	0.370	193.86	-1.90	0.90	 	 	 	 	 	 	 	 	 	 	 	 	 	 	 	 	 	 	1581475163	11.48	21.26
12/02/2020 02:39:24	120220	12022020	023924	193.91	13.611817	-56.955933	194.13	1.420	-1.270	0.610	193.88	-2.60	1.10	 	 	 	 	 	 	 	 	 	 	 	 	 	 	 	 	 	 	1581475164	10.99	20.35
12/02/2020 02:39:25	120220	12022020	023925	193.59	13.611767	-56.955947	193.78	0.850	-1.820	1.370	193.49	-3.10	1.80	 	 	 	 	 	 	 	 	 	 	 	 	 	 	 	 	 	 	1581475165	10.81	20.02
12/02/2020 02:39:26	120220	12022020	023926	193.10	13.611718	-56.955963	193.30	0.020	-1.830	2.250	193.00	-3.20	2.70	 	 	 	 	 	 	 	 	 	 	 	 	 	 	 	 	 	 	1581475166	10.96	20.30
12/02/2020 02:39:27	120220	12022020	023927	192.65	13.611673	-56.955983	192.88	-0.750	-1.210	2.940	192.57	-2.60	3.40	 	 	 	 	 	 	 	 	 	 	 	 	 	 	 	 	 	 	1581475167	10.91	20.21
12/02/2020 02:39:28	120220	12022020	023928	192.37	13.611627	-56.956003	192.62	-1.220	-0.420	3.020	192.35	-1.80	3.50	 	 	 	 	 	 	 	 	 	 	 	 	 	 	 	 	 	 	1581475168	10.69	19.80
12/02/2020 02:39:29	120220	12022020	023929	192.50	13.611580	-56.956020	192.81	-1.240	0.150	2.500	192.58	-1.20	3.00	 	 	 	 	 	 	 	 	 	 	 	 	 	 	 	 	 	 	1581475169	10.71	19.83
12/02/2020 02:39:30	120220	12022020	023930	193.12	13.611530	-56.956037	193.47	-0.820	0.520	1.590	193.28	-0.80	2.10	 	 	 	 	 	 	 	 	 	 	 	 	 	 	 	 	 	 	1581475170	10.97	20.32
12/02/2020 02:39:31	120220	12022020	023931	193.84	13.611480	-56.956048	194.15	-0.130	0.620	0.720	193.96	-0.70	1.20	 	 	 	 	 	 	 	 	 	 	 	 	 	 	 	 	 	 	1581475171	11.02	20.41
12/02/2020 02:39:32	120220	12022020	023932	194.29	13.611428	-56.956058	194.56	0.590	0.330	0.260	194.35	-1.00	0.70	 	 	 	 	 	 	 	 	 	 	 	 	 	 	 	 	 	 	1581475172	11.02	20.41
12/02/2020 02:39:33	120220	12022020	023933	194.45	13.611378	-56.956068	194.68	0.990	-0.020	0.270	194.45	-1.30	0.70	 	 	 	 	 	 	 	 	 	 	 	 	 	 	 	 	 	 	1581475173	11.24	20.82
12/02/2020 02:39:34	120220	12022020	023934	194.29	13.611328	-56.956078	194.47	0.900	-0.250	0.530	194.22	-1.60	1.00	 	 	 	 	 	 	 	 	 	 	 	 	 	 	 	 	 	 	1581475174	11.18	20.71
12/02/2020 02:39:35	120220	12022020	023935	193.90	13.611278	-56.956090	194.08	0.490	-0.500	0.900	193.82	-1.80	1.40	 	 	 	 	 	 	 	 	 	 	 	 	 	 	 	 	 	 	1581475175	10.89	20.17
12/02/2020 02:39:36	120220	12022020	023936	193.56	13.611230	-56.956103	193.78	0.010	-0.730	1.340	193.51	-2.10	1.80	 	 	 	 	 	 	 	 	 	 	 	 	 	 	 	 	 	 	1581475176	10.89	20.17
12/02/2020 02:39:37	120220	12022020	023937	193.35	13.611182	-56.956122	193.60	-0.330	-0.760	1.840	193.33	-2.10	2.30	 	 	 	 	 	 	 	 	 	 	 	 	 	 	 	 	 	 	1581475177	11.03	20.43
12/02/2020 02:39:38	120220	12022020	023938	193.34	13.611135	-56.956140	193.63	-0.470	-0.510	2.080	193.37	-1.90	2.50	 	 	 	 	 	 	 	 	 	 	 	 	 	 	 	 	 	 	1581475178	11.03	20.43
12/02/2020 02:39:39	120220	12022020	023939	193.46	13.611088	-56.956157	193.74	-0.490	-0.190	2.050	193.47	-1.50	2.50	 	 	 	 	 	 	 	 	 	 	 	 	 	 	 	 	 	 	1581475179	10.82	20.04
12/02/2020 02:39:40	120220	12022020	023940	193.43	13.611040	-56.956173	193.69	-0.460	-0.070	1.960	193.42	-1.40	2.40	 	 	 	 	 	 	 	 	 	 	 	 	 	 	 	 	 	 	1581475180	10.64	19.71
12/02/2020 02:39:41	120220	12022020	023941	193.36	13.610992	-56.956190	193.61	-0.330	-0.250	1.720	193.34	-1.60	2.20	 	 	 	 	 	 	 	 	 	 	 	 	 	 	 	 	 	 	1581475181	10.77	19.95
12/02/2020 02:39:42	120220	12022020	023942	193.27	13.610942	-56.956203	193.49	0.040	-0.570	1.280	193.23	-1.90	1.80	 	 	 	 	 	 	 	 	 	 	 	 	 	 	 	 	 	 	1581475182	11.04	20.45
12/02/2020 02:39:43	120220	12022020	023943	193.09	13.610890	-56.956213	193.32	0.530	-0.770	0.910	193.06	-2.10	1.40	 	 	 	 	 	 	 	 	 	 	 	 	 	 	 	 	 	 	1581475183	11.24	20.82
12/02/2020 02:39:44	120220	12022020	023944	193.07	13.610840	-56.956223	193.33	0.710	-0.590	0.850	193.10	-1.90	1.30	 	 	 	 	 	 	 	 	 	 	 	 	 	 	 	 	 	 	1581475184	11.27	20.87
12/02/2020 02:39:45	120220	12022020	023945	193.21	13.610792	-56.956237	193.47	0.360	-0.230	1.150	193.23	-1.60	1.60	 	 	 	 	 	 	 	 	 	 	 	 	 	 	 	 	 	 	1581475185	10.94	20.26
12/02/2020 02:39:46	120220	12022020	023946	193.23	13.610743	-56.956252	193.49	-0.230	-0.050	1.650	193.22	-1.40	2.10	 	 	 	 	 	 	 	 	 	 	 	 	 	 	 	 	 	 	1581475186	10.64	19.71
12/02/2020 02:39:47	120220	12022020	023947	193.15	13.610695	-56.956270	193.40	-0.610	-0.010	2.070	193.14	-1.30	2.50	 	 	 	 	 	 	 	 	 	 	 	 	 	 	 	 	 	 	1581475187	10.81	20.02
12/02/2020 02:39:48	120220	12022020	023948	193.11	13.610647	-56.956287	193.39	-0.510	0.060	2.180	193.13	-1.30	2.60	 	 	 	 	 	 	 	 	 	 	 	 	 	 	 	 	 	 	1581475188	11.06	20.48
12/02/2020 02:39:49	120220	12022020	023949	193.26	13.610598	-56.956300	193.54	-0.080	0.130	1.910	193.29	-1.20	2.40	 	 	 	 	 	 	 	 	 	 	 	 	 	 	 	 	 	 	1581475189	11.04	20.45
12/02/2020 02:39:50	120220	12022020	023950	193.48	13.610548	-56.956312	193.77	0.330	0.010	1.550	193.52	-1.30	2.00	 	 	 	 	 	 	 	 	 	 	 	 	 	 	 	 	 	 	1581475190	10.91	20.21
12/02/2020 02:39:51	120220	12022020	023951	193.64	13.610497	-56.956322	193.91	0.500	-0.340	1.310	193.65	-1.70	1.80	 	 	 	 	 	 	 	 	 	 	 	 	 	 	 	 	 	 	1581475191	10.97	20.32
12/02/2020 02:39:52	120220	12022020	023952	193.61	13.610447	-56.956335	193.85	0.450	-0.660	1.420	193.59	-2.00	1.90	 	 	 	 	 	 	 	 	 	 	 	 	 	 	 	 	 	 	1581475192	11.16	20.67
12/02/2020 02:39:53	120220	12022020	023953	193.45	13.610398	-56.956350	193.69	0.330	-0.680	1.660	193.42	-2.00	2.10	 	 	 	 	 	 	 	 	 	 	 	 	 	 	 	 	 	 	1581475193	11.13	20.61
12/02/2020 02:39:54	120220	12022020	023954	193.32	13.610350	-56.956362	193.58	0.220	-0.540	1.740	193.32	-1.90	2.20	 	 	 	 	 	 	 	 	 	 	 	 	 	 	 	 	 	 	1581475194	10.86	20.11
12/02/2020 02:39:55	120220	12022020	023955	193.37	13.610302	-56.956375	193.65	0.050	-0.440	1.650	193.39	-1.80	2.10	 	 	 	 	 	 	 	 	 	 	 	 	 	 	 	 	 	 	1581475195	10.67	19.76
12/02/2020 02:39:56	120220	12022020	023956	193.43	13.610253	-56.956390	193.68	-0.200	-0.560	1.700	193.41	-1.90	2.20	 	 	 	 	 	 	 	 	 	 	 	 	 	 	 	 	 	 	1581475196	10.75	19.91
12/02/2020 02:39:57	120220	12022020	023957	193.24	13.610203	-56.956407	193.46	-0.440	-0.750	1.880	193.17	-2.10	2.30	 	 	 	 	 	 	 	 	 	 	 	 	 	 	 	 	 	 	1581475197	10.98	20.33
12/02/2020 02:39:58	120220	12022020	023958	192.92	13.610155	-56.956425	193.13	-0.530	-0.610	1.950	192.86	-2.00	2.40	 	 	 	 	 	 	 	 	 	 	 	 	 	 	 	 	 	 	1581475198	11.27	20.87
12/02/2020 02:39:59	120220	12022020	023959	192.74	13.610107	-56.956438	192.99	-0.410	-0.160	1.640	192.72	-1.50	2.10	 	 	 	 	 	 	 	 	 	 	 	 	 	 	 	 	 	 	1581475199	11.13	20.61
12/02/2020 02:40:00	120220	12022020	024000	192.72	13.610057	-56.956450	192.99	-0.030	0.100	1.130	192.73	-1.20	1.60	 	 	 	 	 	 	 	 	 	 	 	 	 	 	 	 	 	 	1581475200	10.75	19.91
12/02/2020 02:40:01	120220	12022020	024001	192.85	13.610005	-56.956460	193.15	0.410	0.030	0.700	192.90	-1.30	1.20	1017.40	26.10	26.10	20.70	20.80	-1.0	72.0	72.0	394.0	25.6	259.00	10.50	66.00	12.80	16	7673.0	27.2	27.2	1581475201	10.90	20.19
12/02/2020 02:40:02	120220	12022020	024002	193.17	13.609953	-56.956470	193.50	0.600	-0.080	0.550	193.26	-1.40	1.00	 	 	 	 	 	 	 	 	 	 	 	 	 	 	 	 	 	 	1581475202	11.31	20.95
12/02/2020 02:40:03	120220	12022020	024003	193.66	13.609905	-56.956483	194.00	0.330	0.010	0.920	193.76	-1.30	1.40	 	 	 	 	 	 	 	 	 	 	 	 	 	 	 	 	 	 	1581475203	11.34	21.00
12/02/2020 02:40:04	120220	12022020	024004	194.14	13.609858	-56.956500	194.47	-0.190	0.170	1.590	194.22	-1.20	2.00	 	 	 	 	 	 	 	 	 	 	 	 	 	 	 	 	 	 	1581475204	10.89	20.17
12/02/2020 02:40:05	120220	12022020	024005	194.39	13.609812	-56.956518	194.66	-0.520	0.020	2.160	194.38	-1.30	2.60	 	 	 	 	 	 	 	 	 	 	 	 	 	 	 	 	 	 	1581475205	10.53	19.50
12/02/2020 02:40:06	120220	12022020	024006	194.16	13.609763	-56.956537	194.37	-0.300	-0.600	2.600	194.07	-1.90	3.00	 	 	 	 	 	 	 	 	 	 	 	 	 	 	 	 	 	 	1581475206	10.67	19.76
12/02/2020 02:40:07	120220	12022020	024007	193.62	13.609712	-56.956552	193.81	0.280	-1.230	2.580	193.53	-2.50	3.10	 	 	 	 	 	 	 	 	 	 	 	 	 	 	 	 	 	 	1581475207	11.24	20.82
12/02/2020 02:40:08	120220	12022020	024008	193.22	13.609662	-56.956563	193.44	0.670	-1.170	2.090	193.18	-2.50	2.60	 	 	 	 	 	 	 	 	 	 	 	 	 	 	 	 	 	 	1581475208	11.59	21.46
12/02/2020 02:40:09	120220	12022020	024009	193.20	13.609615	-56.956573	193.49	0.520	-0.420	1.380	193.25	-1.80	1.90	 	 	 	 	 	 	 	 	 	 	 	 	 	 	 	 	 	 	1581475209	11.10	20.56
12/02/2020 02:40:10	120220	12022020	024010	193.46	13.609568	-56.956583	193.74	-0.050	0.240	0.930	193.51	-1.10	1.40	 	 	 	 	 	 	 	 	 	 	 	 	 	 	 	 	 	 	1581475210	10.30	19.08
12/02/2020 02:40:11	120220	12022020	024011	193.59	13.609520	-56.956598	193.83	-0.580	0.170	1.170	193.58	-1.10	1.60	 	 	 	 	 	 	 	 	 	 	 	 	 	 	 	 	 	 	1581475211	10.14	18.78
12/02/2020 02:40:12	120220	12022020	024012	193.40	13.609470	-56.956618	193.60	-0.680	-0.490	1.860	193.32	-1.80	2.30	 	 	 	 	 	 	 	 	 	 	 	 	 	 	 	 	 	 	1581475212	10.84	20.08
12/02/2020 02:40:13	120220	12022020	024013	192.97	13.609417	-56.956637	193.18	-0.280	-1.060	2.420	192.88	-2.40	2.90	 	 	 	 	 	 	 	 	 	 	 	 	 	 	 	 	 	 	1581475213	11.71	21.69
12/02/2020 02:40:14	120220	12022020	024014	192.65	13.609367	-56.956652	192.90	0.220	-0.960	2.350	192.62	-2.30	2.80	 	 	 	 	 	 	 	 	 	 	 	 	 	 	 	 	 	 	1581475214	11.93	22.09
12/02/2020 02:40:15	120220	12022020	024015	192.68	13.609317	-56.956662	192.99	0.430	-0.280	1.840	192.73	-1.70	2.30	 	 	 	 	 	 	 	 	 	 	 	 	 	 	 	 	 	 	1581475215	11.41	21.13
12/02/2020 02:40:16	120220	12022020	024016	193.05	13.609268	-56.956670	193.38	0.250	0.510	1.160	193.05	-0.90	1.70	 	 	 	 	 	 	 	 	 	 	 	 	 	 	 	 	 	 	1581475216	10.75	19.91
12/02/2020 02:40:17	120220	12022020	024017	193.65	13.609222	-56.956680	193.99	-0.090	0.870	0.850	193.77	-0.50	1.30	 	 	 	 	 	 	 	 	 	 	 	 	 	 	 	 	 	 	1581475217	10.44	19.33
12/02/2020 02:40:18	120220	12022020	024018	194.20	13.609173	-56.956695	194.49	-0.270	0.600	1.150	194.26	-0.70	1.60	 	 	 	 	 	 	 	 	 	 	 	 	 	 	 	 	 	 	1581475218	10.50	19.45
12/02/2020 02:40:19	120220	12022020	024019	194.33	13.609122	-56.956710	194.56	-0.120	-0.230	1.670	194.31	-1.50	2.10	 	 	 	 	 	 	 	 	 	 	 	 	 	 	 	 	 	 	1581475219	10.85	20.09
12/02/2020 02:40:20	120220	12022020	024020	194.19	13.609072	-56.956728	194.42	0.120	-1.060	2.080	194.17	-2.40	2.50	 	 	 	 	 	 	 	 	 	 	 	 	 	 	 	 	 	 	1581475220	11.36	21.04
12/02/2020 02:40:21	120220	12022020	024021	194.11	13.609023	-56.956745	194.35	0.060	-1.210	2.260	194.10	-2.60	2.70	 	 	 	 	 	 	 	 	 	 	 	 	 	 	 	 	 	 	1581475221	11.55	21.39
12/02/2020 02:40:22	120220	12022020	024022	194.06	13.608978	-56.956760	194.28	-0.220	-0.720	2.140	194.04	-2.10	2.60	 	 	 	 	 	 	 	 	 	 	 	 	 	 	 	 	 	 	1581475222	10.93	20.24
12/02/2020 02:40:23	120220	12022020	024023	193.88	13.608932	-56.956773	194.06	-0.330	-0.350	1.800	193.82	-1.70	2.30	 	 	 	 	 	 	 	 	 	 	 	 	 	 	 	 	 	 	1581475223	10.18	18.85
12/02/2020 02:40:24	120220	12022020	024024	193.55	13.608882	-56.956787	193.72	-0.030	-0.580	1.530	193.47	-1.90	2.00	 	 	 	 	 	 	 	 	 	 	 	 	 	 	 	 	 	 	1581475224	10.29	19.06
12/02/2020 02:40:25	120220	12022020	024025	193.18	13.608830	-56.956802	193.39	0.510	-0.840	1.420	193.14	-2.20	1.90	 	 	 	 	 	 	 	 	 	 	 	 	 	 	 	 	 	 	1581475225	11.18	20.71
12/02/2020 02:40:26	120220	12022020	024026	193.18	13.608780	-56.956813	193.47	0.760	-0.430	1.250	193.25	-1.80	1.70	 	 	 	 	 	 	 	 	 	 	 	 	 	 	 	 	 	 	1581475226	11.64	21.56
12/02/2020 02:40:27	120220	12022020	024027	193.63	13.608732	-56.956823	193.97	0.460	0.290	1.140	193.75	-1.10	1.60	 	 	 	 	 	 	 	 	 	 	 	 	 	 	 	 	 	 	1581475227	11.08	20.52
12/02/2020 02:40:28	120220	12022020	024028	194.15	13.608683	-56.956837	194.46	-0.140	0.420	1.480	194.23	-0.90	1.90	 	 	 	 	 	 	 	 	 	 	 	 	 	 	 	 	 	 	1581475228	10.45	19.35
12/02/2020 02:40:29	120220	12022020	024029	194.42	13.608633	-56.956857	194.71	-0.590	-0.210	2.200	194.44	-1.50	2.60	 	 	 	 	 	 	 	 	 	 	 	 	 	 	 	 	 	 	1581475229	10.75	19.91
12/02/2020 02:40:30	120220	12022020	024030	194.51	13.608583	-56.956877	194.78	-0.710	-0.710	2.700	194.53	-2.00	3.20	 	 	 	 	 	 	 	 	 	 	 	 	 	 	 	 	 	 	1581475230	11.62	21.52
12/02/2020 02:40:31	120220	12022020	024031	194.54	13.608535	-56.956895	194.79	-0.560	-0.460	2.640	194.53	-1.80	3.10	 	 	 	 	 	 	 	 	 	 	 	 	 	 	 	 	 	 	1581475231	11.71	21.69
12/02/2020 02:40:32	120220	12022020	024032	194.46	13.608490	-56.956908	194.70	-0.300	0.060	2.220	194.45	-1.30	2.70	 	 	 	 	 	 	 	 	 	 	 	 	 	 	 	 	 	 	1581475232	10.81	20.02
12/02/2020 02:40:33	120220	12022020	024033	194.43	13.608442	-56.956918	194.66	-0.020	0.210	1.490	194.42	-1.10	2.00	 	 	 	 	 	 	 	 	 	 	 	 	 	 	 	 	 	 	1581475233	10.28	19.04
12/02/2020 02:40:34	120220	12022020	024034	194.33	13.608392	-56.956930	194.53	0.260	-0.200	0.900	194.28	-1.50	1.40	 	 	 	 	 	 	 	 	 	 	 	 	 	 	 	 	 	 	1581475234	10.54	19.52
12/02/2020 02:40:35	120220	12022020	024035	194.05	13.608338	-56.956942	194.23	0.540	-0.810	0.560	193.99	-2.10	1.10	 	 	 	 	 	 	 	 	 	 	 	 	 	 	 	 	 	 	1581475235	11.11	20.58
12/02/2020 02:40:36	120220	12022020	024036	193.96	13.608288	-56.956953	194.23	0.640	-0.720	0.380	194.01	-2.10	0.90	 	 	 	 	 	 	 	 	 	 	 	 	 	 	 	 	 	 	1581475236	11.56	21.41
12/02/2020 02:40:37	120220	12022020	024037	194.31	13.608245	-56.956967	194.61	0.400	0.070	0.430	194.40	-1.30	0.90	 	 	 	 	 	 	 	 	 	 	 	 	 	 	 	 	 	 	1581475237	11.01	20.39
12/02/2020 02:40:38	120220	12022020	024038	194.70	13.608200	-56.956982	194.97	0.000	0.440	0.710	194.74	-0.90	1.20	 	 	 	 	 	 	 	 	 	 	 	 	 	 	 	 	 	 	1581475238	9.99	18.50
12/02/2020 02:40:39	120220	12022020	024039	194.77	13.608152	-56.957000	194.99	-0.160	-0.140	1.380	194.74	-1.40	1.80	 	 	 	 	 	 	 	 	 	 	 	 	 	 	 	 	 	 	1581475239	10.06	18.63
12/02/2020 02:40:40	120220	12022020	024040	194.49	13.608100	-56.957020	194.66	-0.010	-1.090	2.190	194.39	-2.40	2.60	 	 	 	 	 	 	 	 	 	 	 	 	 	 	 	 	 	 	1581475240	11.13	20.61
12/02/2020 02:40:41	120220	12022020	024041	193.93	13.608048	-56.957038	194.09	0.200	-1.550	2.740	193.80	-2.90	3.20	 	 	 	 	 	 	 	 	 	 	 	 	 	 	 	 	 	 	1581475241	11.85	21.95
12/02/2020 02:40:42	120220	12022020	024042	193.34	13.608000	-56.957055	193.53	0.180	-1.160	2.940	193.24	-2.50	3.40	 	 	 	 	 	 	 	 	 	 	 	 	 	 	 	 	 	 	1581475242	11.67	21.61
12/02/2020 02:40:43	120220	12022020	024043	192.91	13.607953	-56.957068	193.15	-0.100	-0.270	2.730	192.87	-1.70	3.20	 	 	 	 	 	 	 	 	 	 	 	 	 	 	 	 	 	 	1581475243	10.98	20.33
12/02/2020 02:40:44	120220	12022020	024044	192.89	13.607907	-56.957082	193.21	-0.520	0.590	2.170	192.94	-0.80	2.70	 	 	 	 	 	 	 	 	 	 	 	 	 	 	 	 	 	 	1581475244	10.43	19.32
12/02/2020 02:40:45	120220	12022020	024045	193.27	13.607860	-56.957095	193.61	-0.780	0.910	1.620	193.36	-0.40	2.10	 	 	 	 	 	 	 	 	 	 	 	 	 	 	 	 	 	 	1581475245	10.28	19.04
12/02/2020 02:40:46	120220	12022020	024046	193.57	13.607810	-56.957108	193.87	-0.590	0.330	1.350	193.59	-1.00	1.80	 	 	 	 	 	 	 	 	 	 	 	 	 	 	 	 	 	 	1581475246	10.48	19.41
12/02/2020 02:40:47	120220	12022020	024047	193.57	13.607755	-56.957122	193.84	0.060	-0.840	1.340	193.55	-2.10	1.80	 	 	 	 	 	 	 	 	 	 	 	 	 	 	 	 	 	 	1581475247	11.23	20.80
12/02/2020 02:40:48	120220	12022020	024048	193.49	13.607702	-56.957135	193.76	0.660	-1.460	1.460	193.49	-2.80	1.90	 	 	 	 	 	 	 	 	 	 	 	 	 	 	 	 	 	 	1581475248	12.04	22.30
12/02/2020 02:40:49	120220	12022020	024049	193.61	13.607655	-56.957147	193.93	0.690	-0.870	1.450	193.68	-2.30	1.90	 	 	 	 	 	 	 	 	 	 	 	 	 	 	 	 	 	 	1581475249	11.81	21.87
12/02/2020 02:40:50	120220	12022020	024050	194.02	13.607612	-56.957157	194.35	0.150	0.260	1.270	194.11	-1.10	1.80	 	 	 	 	 	 	 	 	 	 	 	 	 	 	 	 	 	 	1581475250	10.56	19.56
12/02/2020 02:40:51	120220	12022020	024051	194.42	13.607567	-56.957172	194.72	-0.480	0.650	1.410	194.47	-0.70	1.90	 	 	 	 	 	 	 	 	 	 	 	 	 	 	 	 	 	 	1581475251	9.65	17.87
12/02/2020 02:40:52	120220	12022020	024052	194.57	13.607517	-56.957192	194.83	-0.680	-0.020	1.900	194.56	-1.30	2.30	 	 	 	 	 	 	 	 	 	 	 	 	 	 	 	 	 	 	1581475252	10.11	18.72
12/02/2020 02:40:53	120220	12022020	024053	194.45	13.607467	-56.957213	194.69	-0.420	-0.810	2.340	194.40	-2.10	2.80	 	 	 	 	 	 	 	 	 	 	 	 	 	 	 	 	 	 	1581475253	11.36	21.04
12/02/2020 02:40:54	120220	12022020	024054	194.11	13.607418	-56.957230	194.32	0.040	-0.860	2.480	194.01	-2.20	2.90	 	 	 	 	 	 	 	 	 	 	 	 	 	 	 	 	 	 	1581475254	11.78	21.82
12/02/2020 02:40:55	120220	12022020	024055	193.48	13.607372	-56.957243	193.62	0.500	-0.400	2.420	193.33	-1.80	2.90	 	 	 	 	 	 	 	 	 	 	 	 	 	 	 	 	 	 	1581475255	11.04	20.45
12/02/2020 02:40:56	120220	12022020	024056	192.76	13.607323	-56.957253	192.94	0.820	-0.030	2.170	192.67	-1.40	2.70	 	 	 	 	 	 	 	 	 	 	 	 	 	 	 	 	 	 	1581475256	10.40	19.26
12/02/2020 02:40:57	120220	12022020	024057	192.50	13.607275	-56.957262	192.76	0.740	0.180	1.770	192.53	-1.20	2.30	 	 	 	 	 	 	 	 	 	 	 	 	 	 	 	 	 	 	1581475257	10.57	19.58
12/02/2020 02:40:58	120220	12022020	024058	192.79	13.607227	-56.957273	193.09	0.220	0.260	1.630	192.88	-1.10	2.10	 	 	 	 	 	 	 	 	 	 	 	 	 	 	 	 	 	 	1581475258	10.68	19.78
12/02/2020 02:40:59	120220	12022020	024059	193.20	13.607180	-56.957290	193.51	-0.430	0.030	1.900	193.27	-1.30	2.30	 	 	 	 	 	 	 	 	 	 	 	 	 	 	 	 	 	 	1581475259	10.51	19.46
12/02/2020 02:41:00	120220	12022020	024100	193.47	13.607133	-56.957308	193.77	-0.730	-0.620	2.350	193.50	-1.90	2.80	 	 	 	 	 	 	 	 	 	 	 	 	 	 	 	 	 	 	1581475260	10.55	19.54
12/02/2020 02:41:01	120220	12022020	024101	193.58	13.607083	-56.957328	193.87	-0.460	-1.380	2.550	193.59	-2.70	3.00	1017.30	26.20	26.20	21.10	21.10	-1.0	73.0	73.0	396.0	25.6	268.00	9.20	70.00	10.90	16	8095.0	27.2	27.2	1581475261	11.01	20.39
12/02/2020 02:41:02	120220	12022020	024102	193.62	13.607035	-56.957343	193.89	0.090	-1.680	2.290	193.61	-3.00	2.80	 	 	 	 	 	 	 	 	 	 	 	 	 	 	 	 	 	 	1581475262	11.36	21.04
12/02/2020 02:41:03	120220	12022020	024103	193.47	13.606985	-56.957353	193.69	0.510	-1.450	1.820	193.41	-2.80	2.30	 	 	 	 	 	 	 	 	 	 	 	 	 	 	 	 	 	 	1581475263	11.09	20.54
12/02/2020 02:41:04	120220	12022020	024104	193.23	13.606935	-56.957362	193.48	0.520	-0.810	1.320	193.21	-2.20	1.80	 	 	 	 	 	 	 	 	 	 	 	 	 	 	 	 	 	 	1581475264	10.80	20.00
12/02/2020 02:41:05	120220	12022020	024105	193.33	13.606888	-56.957370	193.64	-0.020	0.240	1.130	193.39	-1.20	1.60	 	 	 	 	 	 	 	 	 	 	 	 	 	 	 	 	 	 	1581475265	10.73	19.87
12/02/2020 02:41:06	120220	12022020	024106	193.67	13.606843	-56.957383	193.99	-0.790	1.180	1.250	193.74	-0.20	1.70	 	 	 	 	 	 	 	 	 	 	 	 	 	 	 	 	 	 	1581475266	10.26	19.00
12/02/2020 02:41:07	120220	12022020	024107	193.91	13.606798	-56.957400	194.21	-1.220	1.320	1.510	193.94	-0.00	2.00	 	 	 	 	 	 	 	 	 	 	 	 	 	 	 	 	 	 	1581475267	10.00	18.52
12/02/2020 02:41:08	120220	12022020	024108	194.00	13.606748	-56.957418	194.29	-0.990	0.650	1.850	194.00	-0.70	2.30	 	 	 	 	 	 	 	 	 	 	 	 	 	 	 	 	 	 	1581475268	10.54	19.52
12/02/2020 02:41:09	120220	12022020	024109	193.88	13.606698	-56.957437	194.12	-0.240	-0.310	2.080	193.81	-1.60	2.50	 	 	 	 	 	 	 	 	 	 	 	 	 	 	 	 	 	 	1581475269	11.25	20.84
12/02/2020 02:41:10	120220	12022020	024110	193.39	13.606648	-56.957452	193.58	0.670	-1.010	2.100	193.25	-2.30	2.60	 	 	 	 	 	 	 	 	 	 	 	 	 	 	 	 	 	 	1581475270	11.48	21.26
12/02/2020 02:41:11	120220	12022020	024111	192.73	13.606600	-56.957462	192.94	1.270	-1.020	1.790	192.64	-2.40	2.30	 	 	 	 	 	 	 	 	 	 	 	 	 	 	 	 	 	 	1581475271	11.25	20.84
12/02/2020 02:41:12	120220	12022020	024112	192.44	13.606555	-56.957468	192.71	1.210	-0.340	1.140	192.43	-1.70	1.60	 	 	 	 	 	 	 	 	 	 	 	 	 	 	 	 	 	 	1581475272	10.66	19.74
12/02/2020 02:41:13	120220	12022020	024113	192.56	13.606510	-56.957475	192.86	0.610	0.210	0.590	192.62	-1.20	1.10	 	 	 	 	 	 	 	 	 	 	 	 	 	 	 	 	 	 	1581475273	9.83	18.21
12/02/2020 02:41:14	120220	12022020	024114	192.85	13.606463	-56.957488	193.14	-0.080	-0.030	0.690	192.90	-1.30	1.10	 	 	 	 	 	 	 	 	 	 	 	 	 	 	 	 	 	 	1581475274	9.67	17.91
12/02/2020 02:41:15	120220	12022020	024115	193.01	13.606413	-56.957505	193.28	-0.460	-0.850	1.400	193.02	-2.10	1.80	 	 	 	 	 	 	 	 	 	 	 	 	 	 	 	 	 	 	1581475275	10.37	19.21
12/02/2020 02:41:16	120220	12022020	024116	193.05	13.606365	-56.957527	193.33	-0.530	-1.460	2.230	193.05	-2.80	2.70	 	 	 	 	 	 	 	 	 	 	 	 	 	 	 	 	 	 	1581475276	11.26	20.85
12/02/2020 02:41:17	120220	12022020	024117	193.15	13.606318	-56.957545	193.47	-0.510	-1.310	2.690	193.20	-2.70	3.10	 	 	 	 	 	 	 	 	 	 	 	 	 	 	 	 	 	 	1581475277	11.47	21.24
12/02/2020 02:41:18	120220	12022020	024118	193.44	13.606273	-56.957562	193.75	-0.500	-0.540	2.600	193.49	-1.90	3.10	 	 	 	 	 	 	 	 	 	 	 	 	 	 	 	 	 	 	1581475278	10.85	20.09
12/02/2020 02:41:19	120220	12022020	024119	193.58	13.606228	-56.957575	193.82	-0.360	0.070	2.340	193.54	-1.30	2.80	 	 	 	 	 	 	 	 	 	 	 	 	 	 	 	 	 	 	1581475279	10.04	18.59
12/02/2020 02:41:20	120220	12022020	024120	193.31	13.606180	-56.957587	193.53	-0.010	0.130	2.140	193.31	-1.20	2.60	 	 	 	 	 	 	 	 	 	 	 	 	 	 	 	 	 	 	1581475280	10.04	18.59
12/02/2020 02:41:21	120220	12022020	024121	193.08	13.606130	-56.957597	193.35	0.230	0.190	1.890	193.08	-1.20	2.40	 	 	 	 	 	 	 	 	 	 	 	 	 	 	 	 	 	 	1581475281	10.77	19.95
12/02/2020 02:41:22	120220	12022020	024122	193.31	13.606085	-56.957608	193.64	0.190	0.610	1.450	193.40	-0.80	1.90	 	 	 	 	 	 	 	 	 	 	 	 	 	 	 	 	 	 	1581475282	10.88	20.15
12/02/2020 02:41:23	120220	12022020	024123	193.89	13.606040	-56.957618	194.23	0.030	0.810	1.010	194.00	-0.50	1.50	 	 	 	 	 	 	 	 	 	 	 	 	 	 	 	 	 	 	1581475283	10.21	18.91
12/02/2020 02:41:24	120220	12022020	024124	194.23	13.605992	-56.957632	194.46	0.140	0.070	1.120	194.22	-1.20	1.60	 	 	 	 	 	 	 	 	 	 	 	 	 	 	 	 	 	 	1581475284	9.89	18.32
12/02/2020 02:41:25	120220	12022020	024125	193.92	13.605942	-56.957647	194.09	0.580	-1.190	1.800	193.79	-2.50	2.20	 	 	 	 	 	 	 	 	 	 	 	 	 	 	 	 	 	 	1581475285	10.61	19.65
12/02/2020 02:41:26	120220	12022020	024126	193.22	13.605890	-56.957663	193.38	0.910	-1.880	2.510	193.07	-3.20	2.90	 	 	 	 	 	 	 	 	 	 	 	 	 	 	 	 	 	 	1581475286	11.48	21.26
12/02/2020 02:41:27	120220	12022020	024127	192.64	13.605843	-56.957677	192.86	0.650	-1.410	2.800	192.57	-2.80	3.30	 	 	 	 	 	 	 	 	 	 	 	 	 	 	 	 	 	 	1581475287	11.35	21.02
12/02/2020 02:41:28	120220	12022020	024128	192.50	13.605802	-56.957690	192.79	-0.160	-0.190	2.760	192.53	-1.60	3.20	 	 	 	 	 	 	 	 	 	 	 	 	 	 	 	 	 	 	1581475288	10.38	19.22
12/02/2020 02:41:29	120220	12022020	024129	192.72	13.605760	-56.957705	193.02	-0.960	0.780	2.520	192.78	-0.60	3.00	 	 	 	 	 	 	 	 	 	 	 	 	 	 	 	 	 	 	1581475289	9.50	17.59
12/02/2020 02:41:30	120220	12022020	024130	192.97	13.605715	-56.957722	193.25	-1.210	0.770	2.300	193.00	-0.50	2.80	 	 	 	 	 	 	 	 	 	 	 	 	 	 	 	 	 	 	1581475290	9.47	17.54
12/02/2020 02:41:31	120220	12022020	024131	193.05	13.605665	-56.957738	193.30	-0.750	-0.080	2.140	193.05	-1.40	2.60	 	 	 	 	 	 	 	 	 	 	 	 	 	 	 	 	 	 	1581475291	10.35	19.17
12/02/2020 02:41:32	120220	12022020	024132	193.03	13.605615	-56.957755	193.28	-0.050	-0.830	2.150	193.01	-2.10	2.60	 	 	 	 	 	 	 	 	 	 	 	 	 	 	 	 	 	 	1581475292	11.31	20.95
12/02/2020 02:41:33	120220	12022020	024133	192.95	13.605567	-56.957768	193.20	0.400	-0.820	2.050	192.94	-2.20	2.50	 	 	 	 	 	 	 	 	 	 	 	 	 	 	 	 	 	 	1581475293	11.36	21.04
12/02/2020 02:41:34	120220	12022020	024134	192.95	13.605523	-56.957778	193.23	0.490	-0.160	1.630	192.98	-1.50	2.10	 	 	 	 	 	 	 	 	 	 	 	 	 	 	 	 	 	 	1581475294	10.53	19.50
12/02/2020 02:41:35	120220	12022020	024135	193.25	13.605480	-56.957787	193.56	0.410	0.430	1.000	193.34	-0.90	1.50	 	 	 	 	 	 	 	 	 	 	 	 	 	 	 	 	 	 	1581475295	9.67	17.91
12/02/2020 02:41:36	120220	12022020	024136	193.67	13.605435	-56.957795	193.96	0.410	0.330	0.560	193.73	-1.00	1.10	 	 	 	 	 	 	 	 	 	 	 	 	 	 	 	 	 	 	1581475296	9.47	17.54
12/02/2020 02:41:37	120220	12022020	024137	193.85	13.605385	-56.957805	194.09	0.580	-0.500	0.600	193.84	-1.80	1.10	 	 	 	 	 	 	 	 	 	 	 	 	 	 	 	 	 	 	1581475297	10.03	18.58
12/02/2020 02:41:38	120220	12022020	024138	193.68	13.605333	-56.957817	193.89	0.660	-1.420	1.060	193.62	-2.70	1.50	 	 	 	 	 	 	 	 	 	 	 	 	 	 	 	 	 	 	1581475298	10.85	20.09
12/02/2020 02:41:39	120220	12022020	024139	193.38	13.605285	-56.957832	193.62	0.350	-1.590	1.840	193.33	-2.90	2.30	 	 	 	 	 	 	 	 	 	 	 	 	 	 	 	 	 	 	1581475299	11.30	20.93
12/02/2020 02:41:40	120220	12022020	024140	193.14	13.605242	-56.957850	193.39	-0.350	-0.960	2.690	193.08	-2.30	3.10	 	 	 	 	 	 	 	 	 	 	 	 	 	 	 	 	 	 	1581475300	10.85	20.09
12/02/2020 02:41:41	120220	12022020	024141	192.81	13.605198	-56.957870	193.06	-1.010	-0.240	3.360	192.72	-1.60	3.80	 	 	 	 	 	 	 	 	 	 	 	 	 	 	 	 	 	 	1581475301	10.15	18.80
12/02/2020 02:41:42	120220	12022020	024142	192.40	13.605153	-56.957890	192.67	-1.200	0.170	3.590	192.33	-1.20	4.10	 	 	 	 	 	 	 	 	 	 	 	 	 	 	 	 	 	 	1581475302	10.15	18.80
12/02/2020 02:41:43	120220	12022020	024143	192.11	13.605107	-56.957905	192.40	-0.800	0.380	3.210	192.08	-1.00	3.70	 	 	 	 	 	 	 	 	 	 	 	 	 	 	 	 	 	 	1581475303	10.56	19.56
12/02/2020 02:41:44	120220	12022020	024144	192.05	13.605058	-56.957918	192.35	-0.140	0.550	2.450	192.06	-0.80	3.00	 	 	 	 	 	 	 	 	 	 	 	 	 	 	 	 	 	 	1581475304	10.68	19.78
12/02/2020 02:41:45	120220	12022020	024145	192.12	13.605012	-56.957927	192.43	0.450	0.510	1.700	192.15	-0.80	2.20	 	 	 	 	 	 	 	 	 	 	 	 	 	 	 	 	 	 	1581475305	10.47	19.39
12/02/2020 02:41:46	120220	12022020	024146	192.29	13.604963	-56.957935	192.60	0.750	0.230	1.230	192.34	-1.10	1.70	 	 	 	 	 	 	 	 	 	 	 	 	 	 	 	 	 	 	1581475306	10.39	19.24
12/02/2020 02:41:47	120220	12022020	024147	192.61	13.604917	-56.957943	192.96	0.760	-0.140	1.170	192.70	-1.50	1.70	 	 	 	 	 	 	 	 	 	 	 	 	 	 	 	 	 	 	1581475307	10.41	19.28
12/02/2020 02:41:48	120220	12022020	024148	193.16	13.604872	-56.957955	193.54	0.540	-0.360	1.240	193.30	-1.70	1.70	 	 	 	 	 	 	 	 	 	 	 	 	 	 	 	 	 	 	1581475308	10.32	19.11
12/02/2020 02:41:49	120220	12022020	024149	193.86	13.604828	-56.957968	194.24	0.250	-0.480	1.370	194.00	-1.80	1.80	 	 	 	 	 	 	 	 	 	 	 	 	 	 	 	 	 	 	1581475309	10.02	18.56
12/02/2020 02:41:50	120220	12022020	024150	194.39	13.604783	-56.957982	194.71	0.100	-0.840	1.530	194.45	-2.10	2.00	 	 	 	 	 	 	 	 	 	 	 	 	 	 	 	 	 	 	1581475310	9.71	17.98
12/02/2020 02:41:51	120220	12022020	024151	194.47	13.604737	-56.957995	194.69	0.130	-1.500	1.730	194.42	-2.80	2.20	 	 	 	 	 	 	 	 	 	 	 	 	 	 	 	 	 	 	1581475311	9.91	18.35
12/02/2020 02:41:52	120220	12022020	024152	194.05	13.604688	-56.958010	194.24	0.080	-1.900	2.080	193.93	-3.20	2.50	 	 	 	 	 	 	 	 	 	 	 	 	 	 	 	 	 	 	1581475312	10.54	19.52
12/02/2020 02:41:53	120220	12022020	024153	193.47	13.604642	-56.958027	193.65	-0.200	-1.580	2.290	193.36	-2.90	2.80	 	 	 	 	 	 	 	 	 	 	 	 	 	 	 	 	 	 	1581475313	10.81	20.02
12/02/2020 02:41:54	120220	12022020	024154	192.99	13.604597	-56.958042	193.20	-0.560	-0.690	2.240	192.89	-2.00	2.70	 	 	 	 	 	 	 	 	 	 	 	 	 	 	 	 	 	 	1581475314	10.52	19.48
12/02/2020 02:41:55	120220	12022020	024155	192.55	13.604552	-56.958057	192.76	-0.720	0.230	2.210	192.46	-1.10	2.70	 	 	 	 	 	 	 	 	 	 	 	 	 	 	 	 	 	 	1581475315	10.15	18.80
12/02/2020 02:41:56	120220	12022020	024156	192.20	13.604505	-56.958072	192.46	-0.510	0.780	2.080	192.17	-0.60	2.60	 	 	 	 	 	 	 	 	 	 	 	 	 	 	 	 	 	 	1581475316	10.21	18.91
12/02/2020 02:41:57	120220	12022020	024157	192.32	13.604457	-56.958083	192.65	-0.160	1.100	1.510	192.39	-0.20	2.00	 	 	 	 	 	 	 	 	 	 	 	 	 	 	 	 	 	 	1581475317	10.61	19.65
12/02/2020 02:41:58	120220	12022020	024158	192.83	13.604410	-56.958095	193.19	0.090	1.190	0.920	192.95	-0.10	1.40	 	 	 	 	 	 	 	 	 	 	 	 	 	 	 	 	 	 	1581475318	10.64	19.71
12/02/2020 02:41:59	120220	12022020	024159	193.39	13.604363	-56.958105	193.72	0.200	0.780	0.560	193.48	-0.50	1.10	 	 	 	 	 	 	 	 	 	 	 	 	 	 	 	 	 	 	1581475319	10.37	19.21
12/02/2020 02:42:00	120220	12022020	024200	193.78	13.604317	-56.958118	194.08	0.280	-0.000	0.640	193.84	-1.30	1.10	 	 	 	 	 	 	 	 	 	 	 	 	 	 	 	 	 	 	1581475320	10.36	19.19
12/02/2020 02:42:01	120220	12022020	024201	193.92	13.604270	-56.958133	194.17	0.270	-0.750	1.230	193.90	-2.00	1.70	1017.30	26.00	26.10	20.90	21.00	-1.0	73.0	73.0	395.0	25.6	267.00	10.00	73.00	11.60	16	8439.0	27.2	27.2	1581475321	10.45	19.35
12/02/2020 02:42:02	120220	12022020	024202	193.61	13.604227	-56.958150	193.82	0.170	-1.330	1.950	193.50	-2.60	2.40	 	 	 	 	 	 	 	 	 	 	 	 	 	 	 	 	 	 	1581475322	10.26	19.00
12/02/2020 02:42:03	120220	12022020	024203	192.99	13.604183	-56.958168	193.16	0.050	-1.460	2.490	192.83	-2.80	2.90	 	 	 	 	 	 	 	 	 	 	 	 	 	 	 	 	 	 	1581475323	10.16	18.82
12/02/2020 02:42:04	120220	12022020	024204	192.11	13.604140	-56.958183	192.24	0.010	-1.260	2.710	191.89	-2.60	3.20	 	 	 	 	 	 	 	 	 	 	 	 	 	 	 	 	 	 	1581475324	9.97	18.46
12/02/2020 02:42:05	120220	12022020	024205	191.05	13.604095	-56.958197	191.18	0.170	-1.020	2.520	190.84	-2.30	3.00	 	 	 	 	 	 	 	 	 	 	 	 	 	 	 	 	 	 	1581475325	9.84	18.22
12/02/2020 02:42:06	120220	12022020	024206	190.09	13.604048	-56.958208	190.23	0.370	-0.680	2.130	189.91	-2.00	2.60	 	 	 	 	 	 	 	 	 	 	 	 	 	 	 	 	 	 	1581475326	10.10	18.71
12/02/2020 02:42:07	120220	12022020	024207	189.35	13.604002	-56.958217	189.53	0.350	-0.120	1.680	189.23	-1.50	2.20	 	 	 	 	 	 	 	 	 	 	 	 	 	 	 	 	 	 	1581475327	10.27	19.02
12/02/2020 02:42:08	120220	12022020	024208	188.90	13.603957	-56.958227	189.11	-0.000	0.450	1.440	188.83	-0.90	1.90	 	 	 	 	 	 	 	 	 	 	 	 	 	 	 	 	 	 	1581475328	10.17	18.83
12/02/2020 02:42:09	120220	12022020	024209	188.57	13.603912	-56.958240	188.78	-0.440	0.650	1.730	188.50	-0.70	2.20	 	 	 	 	 	 	 	 	 	 	 	 	 	 	 	 	 	 	1581475329	9.99	18.50
12/02/2020 02:42:10	120220	12022020	024210	188.21	13.603865	-56.958257	188.41	-0.560	0.350	2.240	188.13	-0.90	2.70	 	 	 	 	 	 	 	 	 	 	 	 	 	 	 	 	 	 	1581475330	10.17	18.83
12/02/2020 02:42:11	120220	12022020	024211	187.76	13.603817	-56.958272	187.98	-0.270	-0.230	2.760	187.66	-1.50	3.20	 	 	 	 	 	 	 	 	 	 	 	 	 	 	 	 	 	 	1581475331	10.62	19.67
12/02/2020 02:42:12	120220	12022020	024212	187.18	13.603768	-56.958283	187.38	0.120	-0.650	3.220	187.07	-1.90	3.70	 	 	 	 	 	 	 	 	 	 	 	 	 	 	 	 	 	 	1581475332	10.86	20.11
12/02/2020 02:42:13	120220	12022020	024213	186.76	13.603723	-56.958295	187.03	0.180	-0.390	3.310	186.74	-1.70	3.80	 	 	 	 	 	 	 	 	 	 	 	 	 	 	 	 	 	 	1581475333	10.74	19.89
12/02/2020 02:42:14	120220	12022020	024214	186.85	13.603682	-56.958305	187.14	-0.160	0.350	3.000	186.90	-1.00	3.50	 	 	 	 	 	 	 	 	 	 	 	 	 	 	 	 	 	 	1581475334	9.96	18.45
12/02/2020 02:42:15	120220	12022020	024215	187.03	13.603642	-56.958313	187.28	-0.470	0.600	2.580	187.03	-0.70	3.10	 	 	 	 	 	 	 	 	 	 	 	 	 	 	 	 	 	 	1581475335	8.97	16.61
12/02/2020 02:42:16	120220	12022020	024216	186.77	13.603595	-56.958323	186.91	-0.220	-0.280	2.350	186.64	-1.50	2.80	 	 	 	 	 	 	 	 	 	 	 	 	 	 	 	 	 	 	1581475336	8.99	16.65
12/02/2020 02:42:17	120220	12022020	024217	185.85	13.603543	-56.958333	185.90	0.560	-1.710	2.520	185.58	-2.90	3.00	 	 	 	 	 	 	 	 	 	 	 	 	 	 	 	 	 	 	1581475337	10.12	18.74
12/02/2020 02:42:18	120220	12022020	024218	184.41	13.603493	-56.958342	184.44	1.140	-2.240	2.950	184.12	-3.50	3.40	 	 	 	 	 	 	 	 	 	 	 	 	 	 	 	 	 	 	1581475338	11.19	20.72
12/02/2020 02:42:19	120220	12022020	024219	183.17	13.603450	-56.958348	183.26	0.830	-1.060	3.090	182.98	-2.40	3.60	 	 	 	 	 	 	 	 	 	 	 	 	 	 	 	 	 	 	1581475339	10.99	20.35
12/02/2020 02:42:20	120220	12022020	024220	182.48	13.603412	-56.958355	182.62	-0.160	0.780	3.080	182.39	-0.60	3.50	 	 	 	 	 	 	 	 	 	 	 	 	 	 	 	 	 	 	1581475340	9.44	17.48
12/02/2020 02:42:21	120220	12022020	024221	182.07	13.603370	-56.958367	182.21	-0.890	1.610	3.210	182.00	0.30	3.70	 	 	 	 	 	 	 	 	 	 	 	 	 	 	 	 	 	 	1581475341	8.39	15.54
12/02/2020 02:42:22	120220	12022020	024222	181.73	13.603322	-56.958377	181.88	-0.720	1.010	3.250	181.68	-0.20	3.70	 	 	 	 	 	 	 	 	 	 	 	 	 	 	 	 	 	 	1581475342	9.17	16.98
12/02/2020 02:42:23	120220	12022020	024223	181.50	13.603272	-56.958385	181.67	0.000	-0.070	3.130	181.47	-1.30	3.60	 	 	 	 	 	 	 	 	 	 	 	 	 	 	 	 	 	 	1581475343	10.62	19.67
12/02/2020 02:42:24	120220	12022020	024224	181.42	13.603223	-56.958392	181.60	0.500	-0.710	2.950	181.42	-2.00	3.40	 	 	 	 	 	 	 	 	 	 	 	 	 	 	 	 	 	 	1581475344	11.10	20.56
12/02/2020 02:42:25	120220	12022020	024225	181.45	13.603180	-56.958397	181.65	0.390	-0.630	2.760	181.45	-1.90	3.20	 	 	 	 	 	 	 	 	 	 	 	 	 	 	 	 	 	 	1581475345	10.44	19.33
12/02/2020 02:42:26	120220	12022020	024226	181.35	13.603140	-56.958403	181.48	-0.050	-0.370	2.810	181.28	-1.70	3.30	 	 	 	 	 	 	 	 	 	 	 	 	 	 	 	 	 	 	1581475346	9.35	17.32
12/02/2020 02:42:27	120220	12022020	024227	180.80	13.603097	-56.958412	180.88	-0.390	-0.460	3.260	180.63	-1.70	3.70	 	 	 	 	 	 	 	 	 	 	 	 	 	 	 	 	 	 	1581475347	8.83	16.35
12/02/2020 02:42:28	120220	12022020	024228	179.75	13.603052	-56.958420	179.78	-0.320	-1.050	3.810	179.47	-2.30	4.20	 	 	 	 	 	 	 	 	 	 	 	 	 	 	 	 	 	 	1581475348	9.25	17.13
12/02/2020 02:42:29	120220	12022020	024229	178.25	13.603002	-56.958427	178.26	0.100	-1.600	4.320	177.92	-2.90	4.80	 	 	 	 	 	 	 	 	 	 	 	 	 	 	 	 	 	 	1581475349	10.05	18.61
12/02/2020 02:42:30	120220	12022020	024230	176.87	13.602955	-56.958432	177.01	0.360	-1.190	4.550	176.68	-2.50	5.00	 	 	 	 	 	 	 	 	 	 	 	 	 	 	 	 	 	 	1581475350	10.62	19.67
12/02/2020 02:42:31	120220	12022020	024231	176.33	13.602915	-56.958435	176.62	0.180	0.130	4.170	176.32	-1.20	4.70	 	 	 	 	 	 	 	 	 	 	 	 	 	 	 	 	 	 	1581475351	10.07	18.65
12/02/2020 02:42:32	120220	12022020	024232	176.40	13.602875	-56.958437	176.72	-0.230	1.270	3.480	176.43	-0.00	4.00	 	 	 	 	 	 	 	 	 	 	 	 	 	 	 	 	 	 	1581475352	8.90	16.48
12/02/2020 02:42:33	120220	12022020	024233	176.45	13.602832	-56.958437	176.74	-0.350	1.330	3.070	176.43	0.10	3.60	 	 	 	 	 	 	 	 	 	 	 	 	 	 	 	 	 	 	1581475353	8.59	15.91
12/02/2020 02:42:34	120220	12022020	024234	176.30	13.602783	-56.958438	176.58	-0.060	0.580	2.940	176.26	-0.70	3.40	 	 	 	 	 	 	 	 	 	 	 	 	 	 	 	 	 	 	1581475354	9.38	17.37
12/02/2020 02:42:35	120220	12022020	024235	176.02	13.602737	-56.958438	176.30	0.250	-0.230	3.050	175.94	-1.50	3.50	 	 	 	 	 	 	 	 	 	 	 	 	 	 	 	 	 	 	1581475355	10.14	18.78
12/02/2020 02:42:36	120220	12022020	024236	175.46	13.602692	-56.958442	175.70	0.280	-0.690	3.430	175.30	-1.90	3.90	 	 	 	 	 	 	 	 	 	 	 	 	 	 	 	 	 	 	1581475356	10.07	18.65
12/02/2020 02:42:37	120220	12022020	024237	174.56	13.602648	-56.958445	174.78	0.060	-0.880	3.830	174.37	-2.10	4.30	 	 	 	 	 	 	 	 	 	 	 	 	 	 	 	 	 	 	1581475357	9.62	17.82
12/02/2020 02:42:38	120220	12022020	024238	173.57	13.602605	-56.958450	173.81	-0.140	-0.820	4.030	173.39	-2.10	4.50	 	 	 	 	 	 	 	 	 	 	 	 	 	 	 	 	 	 	1581475358	9.39	17.39
12/02/2020 02:42:39	120220	12022020	024239	172.83	13.602565	-56.958452	173.09	-0.040	-0.450	3.560	172.73	-1.70	4.10	 	 	 	 	 	 	 	 	 	 	 	 	 	 	 	 	 	 	1581475359	9.31	17.24
12/02/2020 02:42:40	120220	12022020	024240	172.38	13.602523	-56.958448	172.59	0.290	-0.080	2.670	172.29	-1.40	3.20	 	 	 	 	 	 	 	 	 	 	 	 	 	 	 	 	 	 	1581475360	8.93	16.54
12/02/2020 02:42:41	120220	12022020	024241	171.89	13.602482	-56.958440	172.05	0.530	-0.300	2.110	171.77	-1.50	2.60	 	 	 	 	 	 	 	 	 	 	 	 	 	 	 	 	 	 	1581475361	8.70	16.11
12/02/2020 02:42:42	120220	12022020	024242	171.11	13.602435	-56.958435	171.19	0.420	-0.980	2.290	170.89	-2.20	2.70	 	 	 	 	 	 	 	 	 	 	 	 	 	 	 	 	 	 	1581475362	9.28	17.19
12/02/2020 02:42:43	120220	12022020	024243	169.93	13.602387	-56.958435	169.99	-0.010	-1.450	3.140	169.67	-2.70	3.60	 	 	 	 	 	 	 	 	 	 	 	 	 	 	 	 	 	 	1581475363	9.99	18.50
12/02/2020 02:42:44	120220	12022020	024244	168.77	13.602342	-56.958438	168.92	-0.560	-1.020	4.020	168.62	-2.30	4.50	 	 	 	 	 	 	 	 	 	 	 	 	 	 	 	 	 	 	1581475364	10.31	19.09
12/02/2020 02:42:45	120220	12022020	024245	168.38	13.602300	-56.958443	168.66	-1.050	0.420	4.280	168.40	-0.90	4.70	 	 	 	 	 	 	 	 	 	 	 	 	 	 	 	 	 	 	1581475365	9.99	18.50
12/02/2020 02:42:46	120220	12022020	024246	168.61	13.602262	-56.958447	168.91	-1.210	1.720	4.000	168.67	0.40	4.50	 	 	 	 	 	 	 	 	 	 	 	 	 	 	 	 	 	 	1581475366	8.89	16.46
12/02/2020 02:42:47	120220	12022020	024247	168.75	13.602220	-56.958443	168.98	-0.750	1.600	3.370	168.72	0.40	3.90	 	 	 	 	 	 	 	 	 	 	 	 	 	 	 	 	 	 	1581475367	8.28	15.33
12/02/2020 02:42:48	120220	12022020	024248	168.43	13.602173	-56.958435	168.60	0.190	0.210	2.710	168.33	-1.00	3.20	 	 	 	 	 	 	 	 	 	 	 	 	 	 	 	 	 	 	1581475368	9.04	16.74
12/02/2020 02:42:49	120220	12022020	024249	167.76	13.602125	-56.958423	167.89	1.010	-1.130	2.400	167.60	-2.30	2.90	 	 	 	 	 	 	 	 	 	 	 	 	 	 	 	 	 	 	1581475369	10.28	19.04
12/02/2020 02:42:50	120220	12022020	024250	166.89	13.602082	-56.958415	167.00	1.180	-1.510	2.460	166.70	-2.80	2.90	 	 	 	 	 	 	 	 	 	 	 	 	 	 	 	 	 	 	1581475370	10.41	19.28
12/02/2020 02:42:51	120220	12022020	024251	165.97	13.602043	-56.958408	166.10	0.690	-1.000	2.790	165.78	-2.30	3.20	 	 	 	 	 	 	 	 	 	 	 	 	 	 	 	 	 	 	1581475371	9.48	17.56
12/02/2020 02:42:52	120220	12022020	024252	165.14	13.602003	-56.958405	165.31	-0.010	-0.150	3.140	165.02	-1.40	3.60	 	 	 	 	 	 	 	 	 	 	 	 	 	 	 	 	 	 	1581475372	8.59	15.91
12/02/2020 02:42:53	120220	12022020	024253	164.68	13.601965	-56.958402	164.89	-0.480	0.500	3.100	164.63	-0.80	3.60	 	 	 	 	 	 	 	 	 	 	 	 	 	 	 	 	 	 	1581475373	8.32	15.41
12/02/2020 02:42:54	120220	12022020	024254	164.47	13.601923	-56.958397	164.68	-0.490	0.440	2.850	164.41	-0.80	3.30	 	 	 	 	 	 	 	 	 	 	 	 	 	 	 	 	 	 	1581475374	8.42	15.59
12/02/2020 02:42:55	120220	12022020	024255	164.07	13.601878	-56.958388	164.21	-0.130	-0.460	2.860	163.94	-1.60	3.30	 	 	 	 	 	 	 	 	 	 	 	 	 	 	 	 	 	 	1581475375	8.95	16.58
12/02/2020 02:42:56	120220	12022020	024256	163.46	13.601832	-56.958380	163.61	0.150	-1.160	3.000	163.35	-2.40	3.50	 	 	 	 	 	 	 	 	 	 	 	 	 	 	 	 	 	 	1581475376	9.96	18.45
12/02/2020 02:42:57	120220	12022020	024257	163.07	13.601790	-56.958373	163.25	-0.050	-0.760	3.090	163.01	-2.00	3.50	 	 	 	 	 	 	 	 	 	 	 	 	 	 	 	 	 	 	1581475377	10.18	18.85
12/02/2020 02:42:58	120220	12022020	024258	162.75	13.601752	-56.958370	162.91	-0.500	0.090	3.310	162.67	-1.20	3.80	 	 	 	 	 	 	 	 	 	 	 	 	 	 	 	 	 	 	1581475378	8.98	16.63
12/02/2020 02:42:59	120220	12022020	024259	162.18	13.601712	-56.958363	162.27	-0.580	0.250	3.520	162.02	-1.00	4.00	 	 	 	 	 	 	 	 	 	 	 	 	 	 	 	 	 	 	1581475379	8.20	15.19
12/02/2020 02:43:00	120220	12022020	024300	161.23	13.601667	-56.958353	161.27	-0.090	-0.340	3.760	161.01	-1.50	4.20	 	 	 	 	 	 	 	 	 	 	 	 	 	 	 	 	 	 	1581475380	8.79	16.28
12/02/2020 02:43:01	120220	12022020	024301	160.12	13.601622	-56.958343	160.20	0.430	-0.790	4.060	159.93	-2.00	4.50	1017.20	26.00	26.10	20.90	20.90	-1.0	73.0	73.0	393.0	25.6	281.00	11.40	73.00	11.70	16	9151.0	27.2	27.2	1581475381	9.82	18.19
12/02/2020 02:43:02	120220	12022020	024302	159.37	13.601580	-56.958333	159.53	0.400	-0.420	3.970	159.29	-1.70	4.40	 	 	 	 	 	 	 	 	 	 	 	 	 	 	 	 	 	 	1581475382	10.02	18.56
12/02/2020 02:43:03	120220	12022020	024303	159.15	13.601545	-56.958325	159.37	-0.080	0.570	3.620	159.15	-0.70	4.10	 	 	 	 	 	 	 	 	 	 	 	 	 	 	 	 	 	 	1581475383	9.13	16.91
12/02/2020 02:43:04	120220	12022020	024304	159.17	13.601508	-56.958315	159.38	-0.390	1.110	3.180	159.17	-0.10	3.70	 	 	 	 	 	 	 	 	 	 	 	 	 	 	 	 	 	 	1581475384	8.03	14.87
12/02/2020 02:43:05	120220	12022020	024305	159.00	13.601468	-56.958302	159.14	-0.050	0.320	2.610	158.91	-0.90	3.10	 	 	 	 	 	 	 	 	 	 	 	 	 	 	 	 	 	 	1581475385	7.97	14.76
12/02/2020 02:43:06	120220	12022020	024306	158.40	13.601423	-56.958287	158.49	0.560	-0.980	2.510	158.24	-2.20	3.00	 	 	 	 	 	 	 	 	 	 	 	 	 	 	 	 	 	 	1581475386	9.16	16.96
12/02/2020 02:43:07	120220	12022020	024307	157.56	13.601382	-56.958272	157.65	0.770	-1.590	2.750	157.39	-2.80	3.20	 	 	 	 	 	 	 	 	 	 	 	 	 	 	 	 	 	 	1581475387	10.04	18.59
12/02/2020 02:43:08	120220	12022020	024308	156.80	13.601343	-56.958262	156.94	0.280	-1.040	3.060	156.68	-2.30	3.50	 	 	 	 	 	 	 	 	 	 	 	 	 	 	 	 	 	 	1581475388	9.62	17.82
12/02/2020 02:43:09	120220	12022020	024309	156.20	13.601305	-56.958255	156.36	-0.550	-0.010	3.640	156.08	-1.30	4.10	 	 	 	 	 	 	 	 	 	 	 	 	 	 	 	 	 	 	1581475389	8.55	15.83
12/02/2020 02:43:10	120220	12022020	024310	155.63	13.601265	-56.958250	155.78	-1.000	0.580	4.240	155.52	-0.70	4.70	 	 	 	 	 	 	 	 	 	 	 	 	 	 	 	 	 	 	1581475390	8.08	14.96
12/02/2020 02:43:11	120220	12022020	024311	155.24	13.601225	-56.958240	155.43	-0.660	0.490	4.150	155.18	-0.70	4.60	 	 	 	 	 	 	 	 	 	 	 	 	 	 	 	 	 	 	1581475391	8.63	15.98
12/02/2020 02:43:12	120220	12022020	024312	154.94	13.601183	-56.958225	155.07	0.230	-0.070	3.510	154.86	-1.30	4.00	 	 	 	 	 	 	 	 	 	 	 	 	 	 	 	 	 	 	1581475392	9.16	16.96
12/02/2020 02:43:13	120220	12022020	024313	154.50	13.601143	-56.958203	154.61	1.000	-0.730	2.740	154.42	-1.90	3.20	 	 	 	 	 	 	 	 	 	 	 	 	 	 	 	 	 	 	1581475393	9.43	17.46
12/02/2020 02:43:14	120220	12022020	024314	154.03	13.601107	-56.958182	154.15	1.070	-0.870	2.210	153.94	-2.10	2.70	 	 	 	 	 	 	 	 	 	 	 	 	 	 	 	 	 	 	1581475394	9.59	17.76
12/02/2020 02:43:15	120220	12022020	024315	153.49	13.601073	-56.958167	153.58	0.370	-0.300	2.270	153.35	-1.60	2.70	 	 	 	 	 	 	 	 	 	 	 	 	 	 	 	 	 	 	1581475395	9.07	16.80
12/02/2020 02:43:16	120220	12022020	024316	152.77	13.601037	-56.958155	152.85	-0.510	0.300	2.920	152.60	-1.00	3.30	 	 	 	 	 	 	 	 	 	 	 	 	 	 	 	 	 	 	1581475396	8.11	15.02
12/02/2020 02:43:17	120220	12022020	024317	151.95	13.600997	-56.958147	152.03	-0.950	0.260	3.620	151.78	-1.00	4.00	 	 	 	 	 	 	 	 	 	 	 	 	 	 	 	 	 	 	1581475397	7.99	14.80
12/02/2020 02:43:18	120220	12022020	024318	151.12	13.600955	-56.958135	151.22	-0.740	-0.380	4.190	150.94	-1.60	4.60	 	 	 	 	 	 	 	 	 	 	 	 	 	 	 	 	 	 	1581475398	8.79	16.28
12/02/2020 02:43:19	120220	12022020	024319	150.28	13.600910	-56.958120	150.39	-0.180	-1.100	4.590	150.13	-2.30	5.00	 	 	 	 	 	 	 	 	 	 	 	 	 	 	 	 	 	 	1581475399	9.55	17.69
12/02/2020 02:43:20	120220	12022020	024320	149.68	13.600870	-56.958105	149.87	0.170	-1.090	4.430	149.61	-2.30	4.90	 	 	 	 	 	 	 	 	 	 	 	 	 	 	 	 	 	 	1581475400	9.92	18.37
12/02/2020 02:43:21	120220	12022020	024321	149.46	13.600835	-56.958090	149.68	0.070	-0.100	3.910	149.46	-1.40	4.40	 	 	 	 	 	 	 	 	 	 	 	 	 	 	 	 	 	 	1581475401	9.32	17.26
12/02/2020 02:43:22	120220	12022020	024322	149.55	13.600805	-56.958075	149.77	-0.250	1.050	3.090	149.57	-0.20	3.60	 	 	 	 	 	 	 	 	 	 	 	 	 	 	 	 	 	 	1581475402	8.03	14.87
12/02/2020 02:43:23	120220	12022020	024323	149.59	13.600773	-56.958057	149.73	-0.270	1.270	2.160	149.55	0.10	2.70	 	 	 	 	 	 	 	 	 	 	 	 	 	 	 	 	 	 	1581475403	7.32	13.56
12/02/2020 02:43:24	120220	12022020	024324	149.22	13.600738	-56.958035	149.32	0.190	0.440	1.640	149.11	-0.70	2.10	 	 	 	 	 	 	 	 	 	 	 	 	 	 	 	 	 	 	1581475404	7.85	14.54
12/02/2020 02:43:25	120220	12022020	024325	148.62	13.600702	-56.958012	148.68	0.800	-0.660	1.600	148.49	-1.80	2.10	 	 	 	 	 	 	 	 	 	 	 	 	 	 	 	 	 	 	1581475405	8.90	16.48
12/02/2020 02:43:26	120220	12022020	024326	147.90	13.600665	-56.957990	147.97	1.190	-1.330	1.790	147.74	-2.50	2.30	 	 	 	 	 	 	 	 	 	 	 	 	 	 	 	 	 	 	1581475406	9.27	17.17
12/02/2020 02:43:27	120220	12022020	024327	146.90	13.600630	-56.957968	146.95	1.150	-1.430	2.340	146.68	-2.70	2.80	 	 	 	 	 	 	 	 	 	 	 	 	 	 	 	 	 	 	1581475407	8.97	16.61
12/02/2020 02:43:28	120220	12022020	024328	145.82	13.600595	-56.957952	145.94	0.490	-0.910	3.330	145.64	-2.20	3.70	 	 	 	 	 	 	 	 	 	 	 	 	 	 	 	 	 	 	1581475408	8.65	16.02
12/02/2020 02:43:29	120220	12022020	024329	145.05	13.600558	-56.957940	145.25	-0.570	-0.030	4.430	144.94	-1.30	4.80	 	 	 	 	 	 	 	 	 	 	 	 	 	 	 	 	 	 	1581475409	8.36	15.48
12/02/2020 02:43:30	120220	12022020	024330	144.58	13.600522	-56.957932	144.82	-1.420	0.700	5.120	144.50	-0.50	5.50	 	 	 	 	 	 	 	 	 	 	 	 	 	 	 	 	 	 	1581475410	8.23	15.24
12/02/2020 02:43:31	120220	12022020	024331	144.30	13.600483	-56.957918	144.56	-1.540	0.740	5.120	144.26	-0.50	5.60	 	 	 	 	 	 	 	 	 	 	 	 	 	 	 	 	 	 	1581475411	8.35	15.46
12/02/2020 02:43:32	120220	12022020	024332	144.12	13.600443	-56.957898	144.36	-0.840	-0.050	4.490	144.06	-1.20	5.00	 	 	 	 	 	 	 	 	 	 	 	 	 	 	 	 	 	 	1581475412	8.72	16.15
12/02/2020 02:43:33	120220	12022020	024333	143.71	13.600405	-56.957873	143.86	0.230	-1.120	3.750	143.58	-2.30	4.20	 	 	 	 	 	 	 	 	 	 	 	 	 	 	 	 	 	 	1581475413	9.32	17.26
12/02/2020 02:43:34	120220	12022020	024334	143.06	13.600372	-56.957847	143.20	0.930	-1.400	3.030	142.94	-2.60	3.50	 	 	 	 	 	 	 	 	 	 	 	 	 	 	 	 	 	 	1581475414	9.75	18.06
12/02/2020 02:43:35	120220	12022020	024335	142.59	13.600345	-56.957823	142.75	0.750	-0.360	2.320	142.53	-1.70	2.80	 	 	 	 	 	 	 	 	 	 	 	 	 	 	 	 	 	 	1581475415	9.24	17.11
12/02/2020 02:43:36	120220	12022020	024336	142.36	13.600320	-56.957802	142.55	-0.010	1.140	1.830	142.32	-0.10	2.30	 	 	 	 	 	 	 	 	 	 	 	 	 	 	 	 	 	 	1581475416	7.72	14.30
12/02/2020 02:43:37	120220	12022020	024337	142.19	13.600293	-56.957782	142.38	-0.560	1.590	1.660	142.14	0.40	2.10	 	 	 	 	 	 	 	 	 	 	 	 	 	 	 	 	 	 	1581475417	6.66	12.33
12/02/2020 02:43:38	120220	12022020	024338	141.83	13.600258	-56.957758	141.99	-0.430	0.390	1.860	141.83	-0.70	2.30	 	 	 	 	 	 	 	 	 	 	 	 	 	 	 	 	 	 	1581475418	7.28	13.48
12/02/2020 02:43:39	120220	12022020	024339	140.98	13.600217	-56.957735	141.09	0.190	-1.470	2.740	140.79	-2.60	3.10	 	 	 	 	 	 	 	 	 	 	 	 	 	 	 	 	 	 	1581475419	8.97	16.61
12/02/2020 02:43:40	120220	12022020	024340	139.92	13.600177	-56.957713	140.06	0.690	-2.170	3.700	139.73	-3.40	4.10	 	 	 	 	 	 	 	 	 	 	 	 	 	 	 	 	 	 	1581475420	10.25	18.98
12/02/2020 02:43:41	120220	12022020	024341	139.18	13.600145	-56.957695	139.43	0.560	-1.080	4.080	139.10	-2.40	4.50	 	 	 	 	 	 	 	 	 	 	 	 	 	 	 	 	 	 	1581475421	9.68	17.93
12/02/2020 02:43:42	120220	12022020	024342	138.94	13.600118	-56.957678	139.20	-0.000	0.540	3.910	138.92	-0.70	4.40	 	 	 	 	 	 	 	 	 	 	 	 	 	 	 	 	 	 	1581475422	7.75	14.35
12/02/2020 02:43:43	120220	12022020	024343	138.75	13.600092	-56.957658	138.94	-0.350	1.180	3.380	138.66	-0.00	3.90	 	 	 	 	 	 	 	 	 	 	 	 	 	 	 	 	 	 	1581475423	6.70	12.41
12/02/2020 02:43:44	120220	12022020	024344	138.22	13.600060	-56.957633	138.34	-0.160	0.620	2.900	138.08	-0.50	3.40	 	 	 	 	 	 	 	 	 	 	 	 	 	 	 	 	 	 	1581475424	7.31	13.54
12/02/2020 02:43:45	120220	12022020	024345	137.56	13.600028	-56.957605	137.69	0.230	-0.410	2.740	137.44	-1.60	3.20	 	 	 	 	 	 	 	 	 	 	 	 	 	 	 	 	 	 	1581475425	8.59	15.91
12/02/2020 02:43:46	120220	12022020	024346	137.13	13.599995	-56.957578	137.31	0.300	-0.920	2.720	137.08	-2.10	3.20	 	 	 	 	 	 	 	 	 	 	 	 	 	 	 	 	 	 	1581475426	9.24	17.11
12/02/2020 02:43:47	120220	12022020	024347	136.93	13.599965	-56.957557	137.12	-0.110	-0.580	2.810	136.90	-1.80	3.20	 	 	 	 	 	 	 	 	 	 	 	 	 	 	 	 	 	 	1581475427	8.85	16.39
12/02/2020 02:43:48	120220	12022020	024348	136.66	13.599937	-56.957538	136.82	-0.530	-0.010	3.030	136.57	-1.20	3.50	 	 	 	 	 	 	 	 	 	 	 	 	 	 	 	 	 	 	1581475428	7.82	14.48
12/02/2020 02:43:49	120220	12022020	024349	136.08	13.599905	-56.957517	136.21	-0.410	-0.070	3.310	135.93	-1.30	3.70	 	 	 	 	 	 	 	 	 	 	 	 	 	 	 	 	 	 	1581475429	7.42	13.74
12/02/2020 02:43:50	120220	12022020	024350	135.34	13.599873	-56.957490	135.47	0.120	-0.610	3.480	135.19	-1.80	3.90	 	 	 	 	 	 	 	 	 	 	 	 	 	 	 	 	 	 	1581475430	8.08	14.96
12/02/2020 02:43:51	120220	12022020	024351	134.58	13.599842	-56.957463	134.72	0.610	-1.070	3.390	134.44	-2.30	3.80	 	 	 	 	 	 	 	 	 	 	 	 	 	 	 	 	 	 	1581475431	8.83	16.35
12/02/2020 02:43:52	120220	12022020	024352	133.83	13.599813	-56.957435	133.98	0.690	-0.880	3.130	133.69	-2.10	3.60	 	 	 	 	 	 	 	 	 	 	 	 	 	 	 	 	 	 	1581475432	8.96	16.59
12/02/2020 02:43:53	120220	12022020	024353	133.19	13.599788	-56.957408	133.36	0.300	0.010	2.880	133.09	-1.20	3.30	 	 	 	 	 	 	 	 	 	 	 	 	 	 	 	 	 	 	1581475433	8.53	15.80
12/02/2020 02:43:54	120220	12022020	024354	132.83	13.599763	-56.957385	133.03	-0.310	0.950	2.680	132.78	-0.30	3.10	 	 	 	 	 	 	 	 	 	 	 	 	 	 	 	 	 	 	1581475434	7.71	14.28
12/02/2020 02:43:55	120220	12022020	024355	132.61	13.599737	-56.957360	132.83	-0.750	1.160	2.620	132.58	-0.00	3.00	 	 	 	 	 	 	 	 	 	 	 	 	 	 	 	 	 	 	1581475435	7.33	13.58
12/02/2020 02:43:56	120220	12022020	024356	132.50	13.599705	-56.957335	132.71	-0.830	0.560	2.760	132.47	-0.60	3.20	 	 	 	 	 	 	 	 	 	 	 	 	 	 	 	 	 	 	1581475436	7.81	14.46
12/02/2020 02:43:57	120220	12022020	024357	132.24	13.599672	-56.957310	132.42	-0.540	-0.420	3.050	132.14	-1.60	3.40	 	 	 	 	 	 	 	 	 	 	 	 	 	 	 	 	 	 	1581475437	8.54	15.82
12/02/2020 02:43:58	120220	12022020	024358	131.61	13.599638	-56.957283	131.74	-0.010	-1.130	3.190	131.45	-2.30	3.60	 	 	 	 	 	 	 	 	 	 	 	 	 	 	 	 	 	 	1581475438	8.98	16.63
12/02/2020 02:43:59	120220	12022020	024359	130.76	13.599612	-56.957257	130.88	0.530	-1.160	3.210	130.57	-2.40	3.60	 	 	 	 	 	 	 	 	 	 	 	 	 	 	 	 	 	 	1581475439	8.80	16.30
12/02/2020 02:44:00	120220	12022020	024400	129.82	13.599587	-56.957228	129.91	0.960	-0.940	3.060	129.61	-2.10	3.50	 	 	 	 	 	 	 	 	 	 	 	 	 	 	 	 	 	 	1581475440	8.12	15.04
12/02/2020 02:44:01	120220	12022020	024401	128.82	13.599565	-56.957197	128.94	1.190	-0.810	2.620	128.65	-2.00	3.10	1017.20	26.10	26.10	21.00	21.00	-1.0	73.0	73.0	395.0	25.6	301.00	14.00	68.00	12.40	16	9403.0	27.2	27.2	1581475441	7.92	14.67
12/02/2020 02:44:02	120220	12022020	024402	128.36	13.599543	-56.957165	128.62	0.810	-0.130	2.140	128.37	-1.40	2.60	 	 	 	 	 	 	 	 	 	 	 	 	 	 	 	 	 	 	1581475442	8.40	15.56
12/02/2020 02:44:03	120220	12022020	024403	128.56	13.599522	-56.957140	128.88	-0.260	1.120	2.240	128.62	-0.10	2.60	 	 	 	 	 	 	 	 	 	 	 	 	 	 	 	 	 	 	1581475443	8.07	14.95
12/02/2020 02:44:04	120220	12022020	024404	128.76	13.599495	-56.957120	129.03	-1.320	1.640	2.760	128.74	0.40	3.10	 	 	 	 	 	 	 	 	 	 	 	 	 	 	 	 	 	 	1581475444	6.89	12.76
12/02/2020 02:44:05	120220	12022020	024405	128.40	13.599462	-56.957095	128.61	-1.370	0.390	3.450	128.26	-0.70	3.80	 	 	 	 	 	 	 	 	 	 	 	 	 	 	 	 	 	 	1581475445	7.13	13.20
12/02/2020 02:44:06	120220	12022020	024406	127.54	13.599425	-56.957063	127.70	-0.290	-1.770	4.160	127.32	-2.90	4.50	 	 	 	 	 	 	 	 	 	 	 	 	 	 	 	 	 	 	1581475446	8.92	16.52
12/02/2020 02:44:07	120220	12022020	024407	126.55	13.599393	-56.957030	126.76	0.810	-2.580	4.490	126.40	-3.80	4.90	 	 	 	 	 	 	 	 	 	 	 	 	 	 	 	 	 	 	1581475447	10.41	19.28
12/02/2020 02:44:08	120220	12022020	024408	126.02	13.599373	-56.957003	126.31	0.810	-1.100	4.030	125.98	-2.40	4.50	 	 	 	 	 	 	 	 	 	 	 	 	 	 	 	 	 	 	1581475448	9.65	17.87
12/02/2020 02:44:09	120220	12022020	024409	125.89	13.599357	-56.956983	126.19	-0.140	1.140	3.360	125.89	-0.20	3.80	 	 	 	 	 	 	 	 	 	 	 	 	 	 	 	 	 	 	1581475449	7.14	13.22
12/02/2020 02:44:10	120220	12022020	024410	125.84	13.599337	-56.956960	126.10	-0.900	2.080	2.840	125.82	0.90	3.30	 	 	 	 	 	 	 	 	 	 	 	 	 	 	 	 	 	 	1581475450	5.68	10.52
12/02/2020 02:44:11	120220	12022020	024411	125.68	13.599312	-56.956927	125.90	-0.630	0.990	2.220	125.63	-0.10	2.70	 	 	 	 	 	 	 	 	 	 	 	 	 	 	 	 	 	 	1581475451	6.48	12.00
12/02/2020 02:44:12	120220	12022020	024412	125.24	13.599285	-56.956890	125.39	0.400	-1.020	1.970	125.10	-2.10	2.40	 	 	 	 	 	 	 	 	 	 	 	 	 	 	 	 	 	 	1581475452	8.49	15.72
12/02/2020 02:44:13	120220	12022020	024413	124.41	13.599260	-56.956853	124.53	1.150	-2.050	2.340	124.24	-3.20	2.70	 	 	 	 	 	 	 	 	 	 	 	 	 	 	 	 	 	 	1581475453	9.85	18.24
12/02/2020 02:44:14	120220	12022020	024414	123.76	13.599237	-56.956827	123.97	0.870	-1.160	2.720	123.70	-2.40	3.10	 	 	 	 	 	 	 	 	 	 	 	 	 	 	 	 	 	 	1581475454	9.36	17.33
12/02/2020 02:44:15	120220	12022020	024415	123.70	13.599217	-56.956807	124.00	-0.150	0.640	2.940	123.74	-0.60	3.30	 	 	 	 	 	 	 	 	 	 	 	 	 	 	 	 	 	 	1581475455	7.42	13.74
12/02/2020 02:44:16	120220	12022020	024416	123.89	13.599195	-56.956785	124.18	-0.850	1.480	3.000	123.90	0.30	3.40	 	 	 	 	 	 	 	 	 	 	 	 	 	 	 	 	 	 	1581475456	6.01	11.13
12/02/2020 02:44:17	120220	12022020	024417	123.82	13.599170	-56.956755	124.03	-0.630	0.670	2.940	123.76	-0.50	3.30	 	 	 	 	 	 	 	 	 	 	 	 	 	 	 	 	 	 	1581475457	6.54	12.11
12/02/2020 02:44:18	120220	12022020	024418	123.36	13.599143	-56.956722	123.52	0.050	-0.720	3.060	123.22	-1.80	3.40	 	 	 	 	 	 	 	 	 	 	 	 	 	 	 	 	 	 	1581475458	8.23	15.24
12/02/2020 02:44:19	120220	12022020	024419	122.59	13.599118	-56.956690	122.71	0.520	-1.490	3.230	122.41	-2.70	3.60	 	 	 	 	 	 	 	 	 	 	 	 	 	 	 	 	 	 	1581475459	9.13	16.91
12/02/2020 02:44:20	120220	12022020	024420	121.65	13.599097	-56.956658	121.76	0.500	-1.370	3.320	121.47	-2.60	3.70	 	 	 	 	 	 	 	 	 	 	 	 	 	 	 	 	 	 	1581475460	8.74	16.19
12/02/2020 02:44:21	120220	12022020	024421	120.79	13.599075	-56.956630	120.90	0.110	-0.710	3.390	120.63	-2.00	3.80	 	 	 	 	 	 	 	 	 	 	 	 	 	 	 	 	 	 	1581475461	7.94	14.70
12/02/2020 02:44:22	120220	12022020	024422	120.08	13.599053	-56.956602	120.21	-0.170	-0.090	3.440	119.96	-1.30	3.80	 	 	 	 	 	 	 	 	 	 	 	 	 	 	 	 	 	 	1581475462	7.48	13.85
12/02/2020 02:44:23	120220	12022020	024423	119.61	13.599033	-56.956572	119.77	-0.100	0.240	3.110	119.55	-1.00	3.50	 	 	 	 	 	 	 	 	 	 	 	 	 	 	 	 	 	 	1581475463	7.58	14.04
12/02/2020 02:44:24	120220	12022020	024424	119.44	13.599013	-56.956538	119.62	0.070	0.460	2.580	119.43	-0.80	3.00	 	 	 	 	 	 	 	 	 	 	 	 	 	 	 	 	 	 	1581475464	7.96	14.74
12/02/2020 02:44:25	120220	12022020	024425	119.39	13.598995	-56.956507	119.55	-0.010	0.640	2.230	119.37	-0.60	2.60	 	 	 	 	 	 	 	 	 	 	 	 	 	 	 	 	 	 	1581475465	8.01	14.83
12/02/2020 02:44:26	120220	12022020	024426	119.16	13.598975	-56.956477	119.26	-0.360	0.650	2.130	119.07	-0.60	2.50	 	 	 	 	 	 	 	 	 	 	 	 	 	 	 	 	 	 	1581475466	7.79	14.43
12/02/2020 02:44:27	120220	12022020	024427	118.60	13.598953	-56.956448	118.67	-0.690	0.370	2.340	118.46	-0.80	2.70	 	 	 	 	 	 	 	 	 	 	 	 	 	 	 	 	 	 	1581475467	7.63	14.13
12/02/2020 02:44:28	120220	12022020	024428	117.73	13.598930	-56.956418	117.76	-0.670	-0.300	2.800	117.53	-1.40	3.20	 	 	 	 	 	 	 	 	 	 	 	 	 	 	 	 	 	 	1581475468	7.67	14.20
12/02/2020 02:44:29	120220	12022020	024429	116.55	13.598907	-56.956385	116.55	-0.100	-1.230	3.140	116.30	-2.40	3.50	 	 	 	 	 	 	 	 	 	 	 	 	 	 	 	 	 	 	1581475469	8.01	14.83
12/02/2020 02:44:30	120220	12022020	024430	115.23	13.598885	-56.956350	115.22	0.830	-1.890	3.040	114.96	-3.10	3.40	 	 	 	 	 	 	 	 	 	 	 	 	 	 	 	 	 	 	1581475470	8.51	15.76
12/02/2020 02:44:31	120220	12022020	024431	113.99	13.598870	-56.956317	114.01	1.440	-1.500	2.630	113.77	-2.70	3.00	 	 	 	 	 	 	 	 	 	 	 	 	 	 	 	 	 	 	1581475471	8.64	16.00
12/02/2020 02:44:32	120220	12022020	024432	113.06	13.598860	-56.956285	113.11	1.160	-0.150	2.100	112.91	-1.40	2.50	 	 	 	 	 	 	 	 	 	 	 	 	 	 	 	 	 	 	1581475472	7.94	14.70
12/02/2020 02:44:33	120220	12022020	024433	112.41	13.598848	-56.956257	112.47	0.180	1.050	1.710	112.29	-0.20	2.10	 	 	 	 	 	 	 	 	 	 	 	 	 	 	 	 	 	 	1581475473	6.85	12.69
12/02/2020 02:44:34	120220	12022020	024434	111.78	13.598832	-56.956225	111.82	-0.770	1.250	1.860	111.62	0.10	2.20	 	 	 	 	 	 	 	 	 	 	 	 	 	 	 	 	 	 	1581475474	6.57	12.17
12/02/2020 02:44:35	120220	12022020	024435	110.92	13.598810	-56.956192	110.95	-1.180	0.580	2.660	110.71	-0.60	3.00	 	 	 	 	 	 	 	 	 	 	 	 	 	 	 	 	 	 	1581475475	7.39	13.69
12/02/2020 02:44:36	120220	12022020	024436	109.80	13.598785	-56.956158	109.82	-1.040	-0.350	3.520	109.55	-1.50	3.90	 	 	 	 	 	 	 	 	 	 	 	 	 	 	 	 	 	 	1581475476	8.43	15.61
12/02/2020 02:44:37	120220	12022020	024437	108.54	13.598763	-56.956125	108.54	-0.550	-1.070	3.910	108.28	-2.20	4.30	 	 	 	 	 	 	 	 	 	 	 	 	 	 	 	 	 	 	1581475477	8.83	16.35
12/02/2020 02:44:38	120220	12022020	024438	107.28	13.598745	-56.956092	107.29	0.030	-1.080	4.040	107.04	-2.30	4.40	 	 	 	 	 	 	 	 	 	 	 	 	 	 	 	 	 	 	1581475478	8.67	16.06
12/02/2020 02:44:39	120220	12022020	024439	106.23	13.598732	-56.956060	106.27	0.470	-0.420	3.760	106.06	-1.70	4.10	 	 	 	 	 	 	 	 	 	 	 	 	 	 	 	 	 	 	1581475479	7.99	14.80
12/02/2020 02:44:40	120220	12022020	024440	105.48	13.598723	-56.956028	105.55	0.730	0.110	3.000	105.34	-1.10	3.40	 	 	 	 	 	 	 	 	 	 	 	 	 	 	 	 	 	 	1581475480	7.10	13.15
12/02/2020 02:44:41	120220	12022020	024441	104.86	13.598717	-56.955992	104.98	0.870	0.080	2.390	104.76	-1.10	2.80	 	 	 	 	 	 	 	 	 	 	 	 	 	 	 	 	 	 	1581475481	7.01	12.98
12/02/2020 02:44:42	120220	12022020	024442	104.30	13.598708	-56.955957	104.41	0.570	0.130	2.290	104.20	-1.10	2.70	 	 	 	 	 	 	 	 	 	 	 	 	 	 	 	 	 	 	1581475482	7.70	14.26
12/02/2020 02:44:43	120220	12022020	024443	103.69	13.598698	-56.955927	103.78	-0.190	0.440	2.470	103.54	-0.80	2.80	 	 	 	 	 	 	 	 	 	 	 	 	 	 	 	 	 	 	1581475483	7.59	14.06
12/02/2020 02:44:44	120220	12022020	024444	102.88	13.598685	-56.955895	102.94	-0.850	0.400	2.850	102.70	-0.80	3.20	 	 	 	 	 	 	 	 	 	 	 	 	 	 	 	 	 	 	1581475484	6.93	12.83
12/02/2020 02:44:45	120220	12022020	024445	101.96	13.598670	-56.955860	102.05	-0.720	-0.360	3.240	101.78	-1.50	3.60	 	 	 	 	 	 	 	 	 	 	 	 	 	 	 	 	 	 	1581475485	7.04	13.04
12/02/2020 02:44:46	120220	12022020	024446	101.01	13.598657	-56.955823	101.09	0.080	-1.410	3.450	100.79	-2.60	3.80	 	 	 	 	 	 	 	 	 	 	 	 	 	 	 	 	 	 	1581475486	7.94	14.70
12/02/2020 02:44:47	120220	12022020	024447	99.84	13.598645	-56.955785	99.88	0.710	-1.830	3.370	99.59	-3.00	3.70	 	 	 	 	 	 	 	 	 	 	 	 	 	 	 	 	 	 	1581475487	8.59	15.91
12/02/2020 02:44:48	120220	12022020	024448	98.76	13.598638	-56.955752	98.85	0.600	-1.010	2.820	98.60	-2.30	3.20	 	 	 	 	 	 	 	 	 	 	 	 	 	 	 	 	 	 	1581475488	8.33	15.43
12/02/2020 02:44:49	120220	12022020	024449	98.11	13.598633	-56.955723	98.27	-0.060	0.580	2.290	98.00	-0.70	2.70	 	 	 	 	 	 	 	 	 	 	 	 	 	 	 	 	 	 	1581475489	7.20	13.33
12/02/2020 02:44:50	120220	12022020	024450	97.50	13.598625	-56.955695	97.59	-0.590	1.510	2.070	97.32	0.30	2.40	 	 	 	 	 	 	 	 	 	 	 	 	 	 	 	 	 	 	1581475490	6.01	11.13
12/02/2020 02:44:51	120220	12022020	024451	96.48	13.598617	-56.955660	96.52	-0.590	1.200	2.010	96.24	0.00	2.40	 	 	 	 	 	 	 	 	 	 	 	 	 	 	 	 	 	 	1581475491	6.27	11.61
12/02/2020 02:44:52	120220	12022020	024452	95.35	13.598610	-56.955623	95.44	-0.340	0.510	1.830	95.16	-0.70	2.20	 	 	 	 	 	 	 	 	 	 	 	 	 	 	 	 	 	 	1581475492	7.48	13.85
12/02/2020 02:44:53	120220	12022020	024453	94.51	13.598605	-56.955590	94.67	-0.180	0.000	1.670	94.37	-1.20	2.00	 	 	 	 	 	 	 	 	 	 	 	 	 	 	 	 	 	 	1581475493	7.76	14.37
12/02/2020 02:44:54	120220	12022020	024454	93.79	13.598598	-56.955557	93.95	-0.020	-0.630	1.670	93.64	-1.80	2.00	 	 	 	 	 	 	 	 	 	 	 	 	 	 	 	 	 	 	1581475494	7.23	13.39
12/02/2020 02:44:55	120220	12022020	024455	92.80	13.598592	-56.955520	92.89	0.390	-1.460	1.970	92.53	-2.60	2.30	 	 	 	 	 	 	 	 	 	 	 	 	 	 	 	 	 	 	1581475495	7.15	13.24
12/02/2020 02:44:56	120220	12022020	024456	91.30	13.598585	-56.955485	91.33	0.890	-1.770	2.560	90.95	-3.00	2.90	 	 	 	 	 	 	 	 	 	 	 	 	 	 	 	 	 	 	1581475496	7.67	14.20
12/02/2020 02:44:57	120220	12022020	024457	89.60	13.598582	-56.955452	89.65	0.990	-1.110	3.090	89.29	-2.40	3.40	 	 	 	 	 	 	 	 	 	 	 	 	 	 	 	 	 	 	1581475497	7.68	14.22
12/02/2020 02:44:58	120220	12022020	024458	88.32	13.598577	-56.955422	88.46	0.460	-0.040	3.300	88.12	-1.30	3.60	 	 	 	 	 	 	 	 	 	 	 	 	 	 	 	 	 	 	1581475498	6.95	12.87
12/02/2020 02:44:59	120220	12022020	024459	87.47	13.598570	-56.955392	87.65	-0.440	0.870	3.490	87.32	-0.40	3.80	 	 	 	 	 	 	 	 	 	 	 	 	 	 	 	 	 	 	1581475499	6.47	11.98
12/02/2020 02:45:00	120220	12022020	024500	86.67	13.598563	-56.955362	86.80	-1.230	1.440	3.460	86.49	0.20	3.80	 	 	 	 	 	 	 	 	 	 	 	 	 	 	 	 	 	 	1581475500	6.50	12.04
12/02/2020 02:45:01	120220	12022020	024501	85.69	13.598560	-56.955330	85.80	-1.450	1.400	3.080	85.48	0.20	3.40	1017.10	26.10	26.10	21.10	21.20	-1.0	74.0	74.0	401.0	25.6	326.00	14.90	67.00	12.00	16	9254.0	27.2	27.2	1581475501	6.54	12.11
12/02/2020 02:45:02	120220	12022020	024502	84.61	13.598558	-56.955295	84.69	-0.910	0.410	2.720	84.38	-0.70	3.00	 	 	 	 	 	 	 	 	 	 	 	 	 	 	 	 	 	 	1581475502	6.62	12.26
12/02/2020 02:45:03	120220	12022020	024503	83.53	13.598560	-56.955257	83.62	0.150	-1.250	2.600	83.33	-2.40	2.90	 	 	 	 	 	 	 	 	 	 	 	 	 	 	 	 	 	 	1581475503	7.29	13.50
12/02/2020 02:45:04	120220	12022020	024504	82.63	13.598562	-56.955218	82.75	1.070	-2.340	2.580	82.49	-3.50	2.90	 	 	 	 	 	 	 	 	 	 	 	 	 	 	 	 	 	 	1581475504	8.18	15.15
12/02/2020 02:45:05	120220	12022020	024505	82.08	13.598565	-56.955187	82.22	1.270	-1.740	2.360	81.99	-3.00	2.70	 	 	 	 	 	 	 	 	 	 	 	 	 	 	 	 	 	 	1581475505	8.13	15.06
12/02/2020 02:45:06	120220	12022020	024506	81.67	13.598567	-56.955163	81.84	0.750	0.260	2.320	81.59	-1.10	2.60	 	 	 	 	 	 	 	 	 	 	 	 	 	 	 	 	 	 	1581475506	6.62	12.26
12/02/2020 02:45:07	120220	12022020	024507	81.25	13.598565	-56.955142	81.43	-0.080	2.050	2.760	81.17	0.80	3.00	 	 	 	 	 	 	 	 	 	 	 	 	 	 	 	 	 	 	1581475507	4.88	9.04
12/02/2020 02:45:08	120220	12022020	024508	80.83	13.598565	-56.955113	81.02	-0.670	1.930	3.280	80.74	0.80	3.60	 	 	 	 	 	 	 	 	 	 	 	 	 	 	 	 	 	 	1581475508	4.53	8.39
12/02/2020 02:45:09	120220	12022020	024509	80.39	13.598567	-56.955075	80.58	-0.650	-0.030	3.500	80.29	-1.10	3.80	 	 	 	 	 	 	 	 	 	 	 	 	 	 	 	 	 	 	1581475509	6.07	11.24
12/02/2020 02:45:10	120220	12022020	024510	79.86	13.598570	-56.955033	80.05	-0.080	-2.120	3.660	79.76	-3.20	4.00	 	 	 	 	 	 	 	 	 	 	 	 	 	 	 	 	 	 	1581475510	8.02	14.85
12/02/2020 02:45:11	120220	12022020	024511	79.39	13.598572	-56.954998	79.60	0.500	-2.440	3.800	79.32	-3.70	4.10	 	 	 	 	 	 	 	 	 	 	 	 	 	 	 	 	 	 	1581475511	8.69	16.09
12/02/2020 02:45:12	120220	12022020	024512	79.10	13.598575	-56.954973	79.34	0.480	-0.840	3.600	79.07	-2.20	3.90	 	 	 	 	 	 	 	 	 	 	 	 	 	 	 	 	 	 	1581475512	7.37	13.65
12/02/2020 02:45:13	120220	12022020	024513	79.00	13.598577	-56.954953	79.25	-0.120	1.060	3.030	79.00	-0.20	3.40	 	 	 	 	 	 	 	 	 	 	 	 	 	 	 	 	 	 	1581475513	5.26	9.74
12/02/2020 02:45:14	120220	12022020	024514	78.97	13.598583	-56.954927	79.20	-0.670	1.570	2.120	78.95	0.30	2.50	 	 	 	 	 	 	 	 	 	 	 	 	 	 	 	 	 	 	1581475514	4.44	8.22
12/02/2020 02:45:15	120220	12022020	024515	78.81	13.598592	-56.954895	79.00	-0.680	0.680	1.260	78.76	-0.50	1.60	 	 	 	 	 	 	 	 	 	 	 	 	 	 	 	 	 	 	1581475515	5.54	10.26
12/02/2020 02:45:16	120220	12022020	024516	78.49	13.598600	-56.954860	78.63	-0.350	-0.390	0.870	78.42	-1.60	1.20	 	 	 	 	 	 	 	 	 	 	 	 	 	 	 	 	 	 	1581475516	7.13	13.20
12/02/2020 02:45:17	120220	12022020	024517	78.19	13.598605	-56.954828	78.36	-0.020	-0.930	0.890	78.15	-2.10	1.20	 	 	 	 	 	 	 	 	 	 	 	 	 	 	 	 	 	 	1581475517	7.44	13.78
12/02/2020 02:45:18	120220	12022020	024518	78.00	13.598610	-56.954798	78.21	0.210	-0.860	1.020	77.96	-2.10	1.40	 	 	 	 	 	 	 	 	 	 	 	 	 	 	 	 	 	 	1581475518	6.92	12.82
12/02/2020 02:45:19	120220	12022020	024519	77.76	13.598615	-56.954770	77.91	0.420	-0.540	1.080	77.69	-1.80	1.40	 	 	 	 	 	 	 	 	 	 	 	 	 	 	 	 	 	 	1581475519	6.27	11.61
12/02/2020 02:45:20	120220	12022020	024520	77.39	13.598620	-56.954740	77.54	0.630	-0.400	1.110	77.33	-1.60	1.50	 	 	 	 	 	 	 	 	 	 	 	 	 	 	 	 	 	 	1581475520	6.06	11.22
12/02/2020 02:45:21	120220	12022020	024521	77.04	13.598625	-56.954708	77.19	0.630	-0.310	1.330	76.97	-1.60	1.70	 	 	 	 	 	 	 	 	 	 	 	 	 	 	 	 	 	 	1581475521	6.40	11.85
12/02/2020 02:45:22	120220	12022020	024522	76.62	13.598630	-56.954678	76.75	0.190	0.120	1.620	76.52	-1.10	1.90	 	 	 	 	 	 	 	 	 	 	 	 	 	 	 	 	 	 	1581475522	6.67	12.35
12/02/2020 02:45:23	120220	12022020	024523	76.11	13.598632	-56.954652	76.24	-0.510	0.610	1.810	76.01	-0.60	2.10	 	 	 	 	 	 	 	 	 	 	 	 	 	 	 	 	 	 	1581475523	6.27	11.61
12/02/2020 02:45:24	120220	12022020	024524	75.55	13.598635	-56.954622	75.64	-0.940	0.590	1.870	75.42	-0.60	2.20	 	 	 	 	 	 	 	 	 	 	 	 	 	 	 	 	 	 	1581475524	5.94	11.00
12/02/2020 02:45:25	120220	12022020	024525	74.76	13.598638	-56.954588	74.80	-0.770	-0.030	1.870	74.55	-1.20	2.20	 	 	 	 	 	 	 	 	 	 	 	 	 	 	 	 	 	 	1581475525	6.28	11.63
12/02/2020 02:45:26	120220	12022020	024526	73.70	13.598647	-56.954555	73.76	-0.200	-0.770	1.820	73.50	-2.00	2.20	 	 	 	 	 	 	 	 	 	 	 	 	 	 	 	 	 	 	1581475526	6.94	12.85
12/02/2020 02:45:27	120220	12022020	024527	72.93	13.598658	-56.954523	73.11	0.340	-1.160	1.320	72.85	-2.40	1.70	 	 	 	 	 	 	 	 	 	 	 	 	 	 	 	 	 	 	1581475527	7.24	13.41
12/02/2020 02:45:28	120220	12022020	024528	72.71	13.598670	-56.954495	72.93	0.550	-0.940	0.680	72.69	-2.20	1.00	 	 	 	 	 	 	 	 	 	 	 	 	 	 	 	 	 	 	1581475528	7.08	13.11
12/02/2020 02:45:29	120220	12022020	024529	72.57	13.598678	-56.954467	72.76	0.460	-0.250	0.580	72.51	-1.50	0.90	 	 	 	 	 	 	 	 	 	 	 	 	 	 	 	 	 	 	1581475529	6.59	12.20
12/02/2020 02:45:30	120220	12022020	024530	72.09	13.598682	-56.954438	72.21	0.260	0.480	1.250	71.94	-0.80	1.50	 	 	 	 	 	 	 	 	 	 	 	 	 	 	 	 	 	 	1581475530	6.04	11.19
12/02/2020 02:45:31	120220	12022020	024531	71.24	13.598683	-56.954408	71.35	0.050	0.900	2.310	71.07	-0.40	2.60	 	 	 	 	 	 	 	 	 	 	 	 	 	 	 	 	 	 	1581475531	6.00	11.11
12/02/2020 02:45:32	120220	12022020	024532	70.41	13.598685	-56.954377	70.55	-0.130	0.680	3.020	70.29	-0.50	3.30	 	 	 	 	 	 	 	 	 	 	 	 	 	 	 	 	 	 	1581475532	6.35	11.76
12/02/2020 02:45:33	120220	12022020	024533	69.82	13.598692	-56.954343	69.98	-0.240	-0.100	3.240	69.71	-1.30	3.50	 	 	 	 	 	 	 	 	 	 	 	 	 	 	 	 	 	 	1581475533	6.73	12.46
12/02/2020 02:45:34	120220	12022020	024534	69.25	13.598702	-56.954312	69.36	-0.340	-0.690	3.150	69.11	-1.90	3.50	 	 	 	 	 	 	 	 	 	 	 	 	 	 	 	 	 	 	1581475534	7.17	13.28
12/02/2020 02:45:35	120220	12022020	024535	68.47	13.598713	-56.954283	68.53	-0.370	-0.770	2.980	68.29	-2.00	3.30	 	 	 	 	 	 	 	 	 	 	 	 	 	 	 	 	 	 	1581475535	7.03	13.02
12/02/2020 02:45:36	120220	12022020	024536	67.60	13.598728	-56.954255	67.69	-0.130	-0.840	2.700	67.47	-2.10	3.10	 	 	 	 	 	 	 	 	 	 	 	 	 	 	 	 	 	 	1581475536	6.49	12.02
12/02/2020 02:45:37	120220	12022020	024537	67.28	13.598745	-56.954227	67.47	0.420	-1.060	2.120	67.31	-2.30	2.50	 	 	 	 	 	 	 	 	 	 	 	 	 	 	 	 	 	 	1581475537	6.56	12.15
12/02/2020 02:45:38	120220	12022020	024538	67.69	13.598758	-56.954197	67.95	0.980	-0.950	1.480	67.82	-2.20	1.80	 	 	 	 	 	 	 	 	 	 	 	 	 	 	 	 	 	 	1581475538	7.02	13.00
12/02/2020 02:45:39	120220	12022020	024539	68.31	13.598770	-56.954170	68.54	0.960	-0.060	0.980	68.39	-1.40	1.30	 	 	 	 	 	 	 	 	 	 	 	 	 	 	 	 	 	 	1581475539	6.96	12.89
12/02/2020 02:45:40	120220	12022020	024540	68.36	13.598777	-56.954145	68.48	0.240	1.160	1.040	68.27	-0.20	1.30	 	 	 	 	 	 	 	 	 	 	 	 	 	 	 	 	 	 	1581475540	6.17	11.43
12/02/2020 02:45:41	120220	12022020	024541	67.63	13.598782	-56.954118	67.69	-0.630	1.660	1.920	67.44	0.40	2.20	 	 	 	 	 	 	 	 	 	 	 	 	 	 	 	 	 	 	1581475541	5.47	10.13
12/02/2020 02:45:42	120220	12022020	024542	66.84	13.598790	-56.954085	66.99	-0.940	0.760	2.490	66.75	-0.40	2.80	 	 	 	 	 	 	 	 	 	 	 	 	 	 	 	 	 	 	1581475542	5.83	10.80
12/02/2020 02:45:43	120220	12022020	024543	66.69	13.598807	-56.954052	66.91	-0.630	-0.880	2.080	66.72	-2.00	2.40	 	 	 	 	 	 	 	 	 	 	 	 	 	 	 	 	 	 	1581475543	7.02	13.00
12/02/2020 02:45:44	120220	12022020	024544	66.93	13.598825	-56.954022	67.15	-0.210	-1.610	1.250	66.98	-2.90	1.60	 	 	 	 	 	 	 	 	 	 	 	 	 	 	 	 	 	 	1581475544	7.99	14.80
12/02/2020 02:45:45	120220	12022020	024545	67.13	13.598840	-56.953998	67.32	-0.110	-0.920	0.810	67.16	-2.20	1.20	 	 	 	 	 	 	 	 	 	 	 	 	 	 	 	 	 	 	1581475545	7.41	13.72
12/02/2020 02:45:46	120220	12022020	024546	67.38	13.598852	-56.953978	67.61	-0.230	0.220	0.710	67.47	-1.10	1.00	 	 	 	 	 	 	 	 	 	 	 	 	 	 	 	 	 	 	1581475546	5.83	10.80
12/02/2020 02:45:47	120220	12022020	024547	67.90	13.598862	-56.953953	68.15	-0.140	0.420	0.710	68.00	-0.80	1.00	 	 	 	 	 	 	 	 	 	 	 	 	 	 	 	 	 	 	1581475547	5.01	9.28
12/02/2020 02:45:48	120220	12022020	024548	68.23	13.598872	-56.953918	68.42	0.510	-0.710	1.310	68.23	-1.90	1.60	 	 	 	 	 	 	 	 	 	 	 	 	 	 	 	 	 	 	1581475548	5.79	10.72
12/02/2020 02:45:49	120220	12022020	024549	68.06	13.598882	-56.953880	68.22	1.250	-1.720	2.190	67.99	-2.90	2.50	 	 	 	 	 	 	 	 	 	 	 	 	 	 	 	 	 	 	1581475549	7.61	14.09
12/02/2020 02:45:50	120220	12022020	024550	67.84	13.598892	-56.953850	68.02	1.260	-1.110	2.560	67.84	-2.40	2.90	 	 	 	 	 	 	 	 	 	 	 	 	 	 	 	 	 	 	1581475550	8.23	15.24
12/02/2020 02:45:51	120220	12022020	024551	68.02	13.598903	-56.953830	68.27	0.350	0.770	2.310	68.10	-0.60	2.70	 	 	 	 	 	 	 	 	 	 	 	 	 	 	 	 	 	 	1581475551	6.70	12.41
12/02/2020 02:45:52	120220	12022020	024552	68.47	13.598917	-56.953812	68.72	-0.870	2.250	1.650	68.56	0.90	2.00	 	 	 	 	 	 	 	 	 	 	 	 	 	 	 	 	 	 	1581475552	4.92	9.11
12/02/2020 02:45:53	120220	12022020	024553	68.82	13.598932	-56.953790	69.05	-1.690	2.240	0.860	68.88	1.00	1.20	 	 	 	 	 	 	 	 	 	 	 	 	 	 	 	 	 	 	1581475553	4.75	8.80
12/02/2020 02:45:54	120220	12022020	024554	69.15	13.598948	-56.953760	69.36	-1.580	0.620	0.190	69.23	-0.50	0.60	 	 	 	 	 	 	 	 	 	 	 	 	 	 	 	 	 	 	1581475554	5.76	10.67
12/02/2020 02:45:55	120220	12022020	024555	69.55	13.598963	-56.953723	69.76	-0.440	-1.780	-0.070	69.62	-2.90	0.30	 	 	 	 	 	 	 	 	 	 	 	 	 	 	 	 	 	 	1581475555	7.11	13.17
12/02/2020 02:45:56	120220	12022020	024556	69.87	13.598977	-56.953688	70.05	1.020	-3.280	0.160	69.91	-4.50	0.50	 	 	 	 	 	 	 	 	 	 	 	 	 	 	 	 	 	 	1581475556	8.22	15.22
12/02/2020 02:45:57	120220	12022020	024557	70.05	13.598988	-56.953660	70.23	1.660	-2.700	0.540	70.08	-4.00	0.90	 	 	 	 	 	 	 	 	 	 	 	 	 	 	 	 	 	 	1581475557	8.06	14.93
12/02/2020 02:45:58	120220	12022020	024558	70.21	13.598995	-56.953637	70.39	1.040	-0.570	0.980	70.24	-1.90	1.30	 	 	 	 	 	 	 	 	 	 	 	 	 	 	 	 	 	 	1581475558	6.54	12.11
12/02/2020 02:45:59	120220	12022020	024559	70.36	13.599002	-56.953617	70.55	-0.180	1.600	1.440	70.40	0.30	1.80	 	 	 	 	 	 	 	 	 	 	 	 	 	 	 	 	 	 	1581475559	4.90	9.07
12/02/2020 02:46:00	120220	12022020	024600	70.52	13.599010	-56.953593	70.69	-1.000	2.600	1.430	70.53	1.30	1.80	 	 	 	 	 	 	 	 	 	 	 	 	 	 	 	 	 	 	1581475560	4.47	8.28
12/02/2020 02:46:01	120220	12022020	024601	70.57	13.599023	-56.953567	70.72	-1.090	2.170	0.970	70.57	1.00	1.30	1016.90	26.00	26.10	21.10	21.10	-1.0	74.0	74.0	406.0	25.7	352.00	15.20	64.00	11.90	16	9837.0	27.2	27.1	1581475561	5.24	9.70
12/02/2020 02:46:02	120220	12022020	024602	70.59	13.599040	-56.953535	70.75	-0.660	0.590	0.510	70.60	-0.50	0.90	 	 	 	 	 	 	 	 	 	 	 	 	 	 	 	 	 	 	1581475562	6.45	11.95
12/02/2020 02:46:03	120220	12022020	024603	70.78	13.599057	-56.953502	70.97	-0.100	-1.380	0.170	70.85	-2.50	0.50	 	 	 	 	 	 	 	 	 	 	 	 	 	 	 	 	 	 	1581475563	7.43	13.76
12/02/2020 02:46:04	120220	12022020	024604	71.08	13.599072	-56.953470	71.25	0.310	-2.500	-0.090	71.13	-3.70	0.30	 	 	 	 	 	 	 	 	 	 	 	 	 	 	 	 	 	 	1581475564	7.94	14.70
12/02/2020 02:46:05	120220	12022020	024605	71.16	13.599083	-56.953443	71.29	0.630	-2.210	0.050	71.13	-3.50	0.40	 	 	 	 	 	 	 	 	 	 	 	 	 	 	 	 	 	 	1581475565	7.44	13.78
12/02/2020 02:46:06	120220	12022020	024606	70.96	13.599092	-56.953415	71.09	1.060	-1.340	0.560	70.93	-2.60	0.90	 	 	 	 	 	 	 	 	 	 	 	 	 	 	 	 	 	 	1581475566	6.25	11.58
12/02/2020 02:46:07	120220	12022020	024607	70.87	13.599100	-56.953387	71.01	1.240	-0.330	0.880	70.86	-1.60	1.20	 	 	 	 	 	 	 	 	 	 	 	 	 	 	 	 	 	 	1581475567	5.93	10.98
12/02/2020 02:46:08	120220	12022020	024608	70.76	13.599108	-56.953363	70.86	0.410	1.290	0.770	70.72	-0.10	1.10	 	 	 	 	 	 	 	 	 	 	 	 	 	 	 	 	 	 	1581475568	6.27	11.61
12/02/2020 02:46:09	120220	12022020	024609	70.48	13.599120	-56.953343	70.55	-1.130	2.810	0.440	70.41	1.50	0.80	 	 	 	 	 	 	 	 	 	 	 	 	 	 	 	 	 	 	1581475569	5.43	10.06
12/02/2020 02:46:10	120220	12022020	024610	70.15	13.599133	-56.953322	70.25	-2.200	2.740	0.080	70.12	1.50	0.40	 	 	 	 	 	 	 	 	 	 	 	 	 	 	 	 	 	 	1581475570	4.66	8.63
12/02/2020 02:46:11	120220	12022020	024611	70.15	13.599150	-56.953290	70.30	-1.760	0.430	-0.390	70.19	-0.70	-0.00	 	 	 	 	 	 	 	 	 	 	 	 	 	 	 	 	 	 	1581475571	5.46	10.11
12/02/2020 02:46:12	120220	12022020	024612	70.32	13.599167	-56.953252	70.43	-0.160	-2.500	-0.580	70.32	-3.60	-0.30	 	 	 	 	 	 	 	 	 	 	 	 	 	 	 	 	 	 	1581475572	7.59	14.06
12/02/2020 02:46:13	120220	12022020	024613	70.14	13.599180	-56.953217	70.19	1.370	-3.830	-0.160	70.05	-5.00	0.10	 	 	 	 	 	 	 	 	 	 	 	 	 	 	 	 	 	 	1581475573	8.79	16.28
12/02/2020 02:46:14	120220	12022020	024614	69.68	13.599187	-56.953190	69.74	1.860	-2.790	0.720	69.58	-4.10	1.00	 	 	 	 	 	 	 	 	 	 	 	 	 	 	 	 	 	 	1581475574	7.94	14.70
12/02/2020 02:46:15	120220	12022020	024615	69.26	13.599193	-56.953168	69.39	1.290	-0.390	1.600	69.21	-1.80	1.90	 	 	 	 	 	 	 	 	 	 	 	 	 	 	 	 	 	 	1581475575	6.00	11.11
12/02/2020 02:46:16	120220	12022020	024616	69.24	13.599202	-56.953150	69.44	0.260	1.930	1.900	69.29	0.60	2.20	 	 	 	 	 	 	 	 	 	 	 	 	 	 	 	 	 	 	1581475576	4.61	8.54
12/02/2020 02:46:17	120220	12022020	024617	69.61	13.599213	-56.953128	69.84	-0.610	2.880	1.630	69.70	1.60	2.00	 	 	 	 	 	 	 	 	 	 	 	 	 	 	 	 	 	 	1581475577	4.36	8.07
12/02/2020 02:46:18	120220	12022020	024618	70.07	13.599228	-56.953100	70.29	-0.890	1.890	1.010	70.16	0.70	1.40	 	 	 	 	 	 	 	 	 	 	 	 	 	 	 	 	 	 	1581475578	5.24	9.70
12/02/2020 02:46:19	120220	12022020	024619	70.44	13.599245	-56.953065	70.64	-0.600	-0.050	0.620	70.51	-1.20	1.00	 	 	 	 	 	 	 	 	 	 	 	 	 	 	 	 	 	 	1581475579	6.88	12.74
12/02/2020 02:46:20	120220	12022020	024620	70.66	13.599258	-56.953033	70.84	-0.130	-1.550	0.740	70.70	-2.70	1.10	 	 	 	 	 	 	 	 	 	 	 	 	 	 	 	 	 	 	1581475580	7.86	14.56
12/02/2020 02:46:21	120220	12022020	024621	70.81	13.599270	-56.953003	70.97	0.260	-2.000	0.870	70.83	-3.20	1.20	 	 	 	 	 	 	 	 	 	 	 	 	 	 	 	 	 	 	1581475581	7.51	13.91
12/02/2020 02:46:22	120220	12022020	024622	70.91	13.599282	-56.952977	71.08	0.480	-1.590	0.810	70.93	-2.90	1.10	 	 	 	 	 	 	 	 	 	 	 	 	 	 	 	 	 	 	1581475582	6.67	12.35
12/02/2020 02:46:23	120220	12022020	024623	70.98	13.599293	-56.952952	71.14	0.480	-0.820	0.770	70.99	-2.10	1.10	 	 	 	 	 	 	 	 	 	 	 	 	 	 	 	 	 	 	1581475583	6.07	11.24
12/02/2020 02:46:24	120220	12022020	024624	71.00	13.599305	-56.952927	71.15	0.180	0.120	0.680	71.01	-1.20	1.00	 	 	 	 	 	 	 	 	 	 	 	 	 	 	 	 	 	 	1581475584	5.95	11.02
12/02/2020 02:46:25	120220	12022020	024625	71.15	13.599322	-56.952903	71.33	-0.300	1.120	0.230	71.23	-0.20	0.60	 	 	 	 	 	 	 	 	 	 	 	 	 	 	 	 	 	 	1581475585	5.93	10.98
12/02/2020 02:46:26	120220	12022020	024626	71.70	13.599337	-56.952882	71.92	-0.610	1.660	-0.480	71.86	0.40	-0.10	 	 	 	 	 	 	 	 	 	 	 	 	 	 	 	 	 	 	1581475586	5.78	10.70
12/02/2020 02:46:27	120220	12022020	024627	72.47	13.599350	-56.952853	72.67	-0.380	0.930	-0.730	72.61	-0.20	-0.40	 	 	 	 	 	 	 	 	 	 	 	 	 	 	 	 	 	 	1581475587	5.86	10.85
12/02/2020 02:46:28	120220	12022020	024628	73.03	13.599360	-56.952817	73.19	0.400	-0.960	-0.270	73.09	-2.10	0.00	 	 	 	 	 	 	 	 	 	 	 	 	 	 	 	 	 	 	1581475588	6.56	12.15
12/02/2020 02:46:29	120220	12022020	024629	73.07	13.599368	-56.952778	73.18	1.190	-2.540	0.450	73.03	-3.70	0.80	 	 	 	 	 	 	 	 	 	 	 	 	 	 	 	 	 	 	1581475589	7.96	14.74
12/02/2020 02:46:30	120220	12022020	024630	72.93	13.599380	-56.952748	73.08	1.180	-2.120	0.850	72.92	-3.40	1.20	 	 	 	 	 	 	 	 	 	 	 	 	 	 	 	 	 	 	1581475590	8.35	15.46
12/02/2020 02:46:31	120220	12022020	024631	73.03	13.599388	-56.952728	73.24	0.230	0.240	1.070	73.08	-1.10	1.40	 	 	 	 	 	 	 	 	 	 	 	 	 	 	 	 	 	 	1581475591	6.75	12.50
12/02/2020 02:46:32	120220	12022020	024632	73.24	13.599397	-56.952713	73.43	-1.010	2.530	1.210	73.24	1.20	1.60	 	 	 	 	 	 	 	 	 	 	 	 	 	 	 	 	 	 	1581475592	4.46	8.26
12/02/2020 02:46:33	120220	12022020	024633	73.33	13.599407	-56.952688	73.50	-1.540	2.470	1.070	73.36	1.30	1.50	 	 	 	 	 	 	 	 	 	 	 	 	 	 	 	 	 	 	1581475593	3.67	6.80
12/02/2020 02:46:34	120220	12022020	024634	73.63	13.599423	-56.952653	73.84	-0.980	0.130	0.490	73.72	-1.00	0.90	 	 	 	 	 	 	 	 	 	 	 	 	 	 	 	 	 	 	1581475594	5.52	10.22
12/02/2020 02:46:35	120220	12022020	024635	74.20	13.599438	-56.952617	74.43	0.100	-2.230	0.030	74.31	-3.40	0.40	 	 	 	 	 	 	 	 	 	 	 	 	 	 	 	 	 	 	1581475595	8.13	15.06
12/02/2020 02:46:36	120220	12022020	024636	74.64	13.599450	-56.952583	74.83	0.950	-2.770	0.040	74.69	-4.00	0.40	 	 	 	 	 	 	 	 	 	 	 	 	 	 	 	 	 	 	1581475596	8.71	16.13
12/02/2020 02:46:37	120220	12022020	024637	74.81	13.599458	-56.952560	74.98	1.230	-1.440	0.220	74.82	-2.80	0.60	 	 	 	 	 	 	 	 	 	 	 	 	 	 	 	 	 	 	1581475597	7.19	13.32
12/02/2020 02:46:38	120220	12022020	024638	74.87	13.599467	-56.952538	75.05	0.960	0.300	0.570	74.88	-1.00	0.90	 	 	 	 	 	 	 	 	 	 	 	 	 	 	 	 	 	 	1581475598	5.36	9.93
12/02/2020 02:46:39	120220	12022020	024639	74.89	13.599473	-56.952513	75.09	0.300	1.410	1.000	74.90	0.10	1.30	 	 	 	 	 	 	 	 	 	 	 	 	 	 	 	 	 	 	1581475599	4.87	9.02
12/02/2020 02:46:40	120220	12022020	024640	75.04	13.599483	-56.952487	75.26	-0.420	1.530	1.030	75.09	0.30	1.40	 	 	 	 	 	 	 	 	 	 	 	 	 	 	 	 	 	 	1581475600	5.35	9.91
12/02/2020 02:46:41	120220	12022020	024641	75.36	13.599495	-56.952457	75.57	-0.780	0.710	0.790	75.41	-0.50	1.20	 	 	 	 	 	 	 	 	 	 	 	 	 	 	 	 	 	 	1581475601	6.07	11.24
12/02/2020 02:46:42	120220	12022020	024642	75.47	13.599507	-56.952423	75.63	-0.640	-0.440	0.780	75.45	-1.60	1.10	 	 	 	 	 	 	 	 	 	 	 	 	 	 	 	 	 	 	1581475602	6.84	12.67
12/02/2020 02:46:43	120220	12022020	024643	75.30	13.599518	-56.952393	75.45	-0.360	-0.950	0.930	75.26	-2.20	1.30	 	 	 	 	 	 	 	 	 	 	 	 	 	 	 	 	 	 	1581475603	7.30	13.52
12/02/2020 02:46:44	120220	12022020	024644	75.28	13.599530	-56.952367	75.52	-0.140	-0.830	0.870	75.28	-2.10	1.30	 	 	 	 	 	 	 	 	 	 	 	 	 	 	 	 	 	 	1581475604	6.80	12.59
12/02/2020 02:46:45	120220	12022020	024645	75.83	13.599542	-56.952340	76.15	0.150	-0.820	0.490	76.00	-2.00	0.90	 	 	 	 	 	 	 	 	 	 	 	 	 	 	 	 	 	 	1581475605	6.08	11.26
12/02/2020 02:46:46	120220	12022020	024646	76.75	13.599553	-56.952310	77.05	0.660	-1.100	0.260	76.90	-2.30	0.60	 	 	 	 	 	 	 	 	 	 	 	 	 	 	 	 	 	 	1581475606	6.27	11.61
12/02/2020 02:46:47	120220	12022020	024647	77.28	13.599560	-56.952277	77.48	1.130	-1.070	0.610	77.30	-2.30	1.00	 	 	 	 	 	 	 	 	 	 	 	 	 	 	 	 	 	 	1581475607	6.85	12.69
12/02/2020 02:46:48	120220	12022020	024648	77.21	13.599567	-56.952248	77.36	1.030	-0.190	1.080	77.17	-1.50	1.40	 	 	 	 	 	 	 	 	 	 	 	 	 	 	 	 	 	 	1581475608	6.99	12.95
12/02/2020 02:46:49	120220	12022020	024649	77.14	13.599573	-56.952223	77.35	0.060	1.300	1.210	77.17	-0.00	1.60	 	 	 	 	 	 	 	 	 	 	 	 	 	 	 	 	 	 	1581475609	6.33	11.72
12/02/2020 02:46:50	120220	12022020	024650	77.42	13.599585	-56.952203	77.65	-1.260	2.300	1.050	77.49	1.00	1.50	 	 	 	 	 	 	 	 	 	 	 	 	 	 	 	 	 	 	1581475610	5.31	9.83
12/02/2020 02:46:51	120220	12022020	024651	77.83	13.599597	-56.952177	78.08	-1.930	1.790	0.730	77.93	0.60	1.10	 	 	 	 	 	 	 	 	 	 	 	 	 	 	 	 	 	 	1581475611	5.05	9.35
12/02/2020 02:46:52	120220	12022020	024652	78.39	13.599612	-56.952143	78.64	-1.170	-0.440	0.190	78.51	-1.50	0.60	 	 	 	 	 	 	 	 	 	 	 	 	 	 	 	 	 	 	1581475612	6.05	11.20
12/02/2020 02:46:53	120220	12022020	024653	78.99	13.599625	-56.952103	79.22	0.580	-2.960	-0.120	79.09	-4.10	0.30	 	 	 	 	 	 	 	 	 	 	 	 	 	 	 	 	 	 	1581475613	7.81	14.46
12/02/2020 02:46:54	120220	12022020	024654	79.45	13.599632	-56.952067	79.67	1.880	-3.640	0.330	79.52	-4.90	0.70	 	 	 	 	 	 	 	 	 	 	 	 	 	 	 	 	 	 	1581475614	8.80	16.30
12/02/2020 02:46:55	120220	12022020	024655	79.79	13.599633	-56.952042	80.04	1.690	-1.750	1.270	79.87	-3.10	1.60	 	 	 	 	 	 	 	 	 	 	 	 	 	 	 	 	 	 	1581475615	7.76	14.37
12/02/2020 02:46:56	120220	12022020	024656	80.18	13.599635	-56.952023	80.45	0.380	1.140	1.790	80.27	-0.20	2.20	 	 	 	 	 	 	 	 	 	 	 	 	 	 	 	 	 	 	1581475616	5.36	9.93
12/02/2020 02:46:57	120220	12022020	024657	80.57	13.599642	-56.952003	80.83	-0.890	2.970	1.500	80.65	1.70	1.90	 	 	 	 	 	 	 	 	 	 	 	 	 	 	 	 	 	 	1581475617	3.80	7.04
12/02/2020 02:46:58	120220	12022020	024658	80.95	13.599653	-56.951977	81.19	-1.360	2.810	0.760	81.02	1.60	1.20	 	 	 	 	 	 	 	 	 	 	 	 	 	 	 	 	 	 	1581475618	4.37	8.09
12/02/2020 02:46:59	120220	12022020	024659	81.34	13.599665	-56.951945	81.57	-1.150	1.240	0.140	81.41	0.10	0.60	 	 	 	 	 	 	 	 	 	 	 	 	 	 	 	 	 	 	1581475619	6.17	11.43
12/02/2020 02:47:00	120220	12022020	024700	81.77	13.599677	-56.951910	82.00	-0.620	-0.700	-0.160	81.85	-1.90	0.30	 	 	 	 	 	 	 	 	 	 	 	 	 	 	 	 	 	 	1581475620	7.38	13.67
12/02/2020 02:47:01	120220	12022020	024701	82.21	13.599687	-56.951877	82.43	0.020	-2.210	-0.280	82.29	-3.40	0.10	1017.00	26.10	26.10	21.20	21.20	-1.0	74.0	74.0	406.0	25.7	351.00	15.50	62.00	12.30	16	9494.0	27.1	27.1	1581475621	7.58	14.04
12/02/2020 02:47:02	120220	12022020	024702	82.60	13.599695	-56.951847	82.80	0.670	-2.640	-0.180	82.65	-3.90	0.20	 	 	 	 	 	 	 	 	 	 	 	 	 	 	 	 	 	 	1581475622	7.32	13.56
12/02/2020 02:47:03	120220	12022020	024703	82.82	13.599698	-56.951818	83.01	1.110	-2.030	0.300	82.85	-3.30	0.70	 	 	 	 	 	 	 	 	 	 	 	 	 	 	 	 	 	 	1581475623	6.65	12.32
12/02/2020 02:47:04	120220	12022020	024704	83.00	13.599700	-56.951790	83.21	1.060	-0.830	0.980	83.05	-2.20	1.30	 	 	 	 	 	 	 	 	 	 	 	 	 	 	 	 	 	 	1581475624	6.03	11.17
12/02/2020 02:47:05	120220	12022020	024705	83.21	13.599702	-56.951763	83.44	0.540	0.540	1.530	83.25	-0.80	1.90	 	 	 	 	 	 	 	 	 	 	 	 	 	 	 	 	 	 	1581475625	5.75	10.65
12/02/2020 02:47:06	120220	12022020	024706	83.40	13.599707	-56.951738	83.63	-0.300	1.780	1.580	83.46	0.50	2.00	 	 	 	 	 	 	 	 	 	 	 	 	 	 	 	 	 	 	1581475626	5.63	10.43
12/02/2020 02:47:07	120220	12022020	024707	83.81	13.599715	-56.951713	84.05	-1.110	2.360	1.110	83.92	1.10	1.50	 	 	 	 	 	 	 	 	 	 	 	 	 	 	 	 	 	 	1581475627	5.46	10.11
12/02/2020 02:47:08	120220	12022020	024708	84.39	13.599723	-56.951685	84.63	-1.360	1.670	0.510	84.50	0.50	0.90	 	 	 	 	 	 	 	 	 	 	 	 	 	 	 	 	 	 	1581475628	5.54	10.26
12/02/2020 02:47:09	120220	12022020	024709	84.82	13.599732	-56.951650	85.01	-0.790	-0.320	0.150	84.88	-1.50	0.60	 	 	 	 	 	 	 	 	 	 	 	 	 	 	 	 	 	 	1581475629	6.32	11.70
12/02/2020 02:47:10	120220	12022020	024710	85.08	13.599740	-56.951612	85.26	0.150	-2.320	0.050	85.13	-3.50	0.50	 	 	 	 	 	 	 	 	 	 	 	 	 	 	 	 	 	 	1581475630	7.63	14.13
12/02/2020 02:47:11	120220	12022020	024711	85.34	13.599745	-56.951578	85.52	0.760	-2.780	0.180	85.39	-4.00	0.60	 	 	 	 	 	 	 	 	 	 	 	 	 	 	 	 	 	 	1581475631	8.16	15.11
12/02/2020 02:47:12	120220	12022020	024712	85.53	13.599748	-56.951553	85.69	0.790	-1.470	0.620	85.55	-2.80	1.00	 	 	 	 	 	 	 	 	 	 	 	 	 	 	 	 	 	 	1581475632	7.07	13.09
12/02/2020 02:47:13	120220	12022020	024713	85.61	13.599752	-56.951530	85.76	0.550	0.220	1.050	85.63	-1.10	1.40	 	 	 	 	 	 	 	 	 	 	 	 	 	 	 	 	 	 	1581475633	5.34	9.89
12/02/2020 02:47:14	120220	12022020	024714	85.80	13.599757	-56.951503	86.00	0.400	0.870	1.120	85.89	-0.40	1.50	 	 	 	 	 	 	 	 	 	 	 	 	 	 	 	 	 	 	1581475634	4.81	8.91
12/02/2020 02:47:15	120220	12022020	024715	86.37	13.599762	-56.951470	86.60	0.290	0.490	0.840	86.51	-0.70	1.30	 	 	 	 	 	 	 	 	 	 	 	 	 	 	 	 	 	 	1581475635	5.91	10.95
12/02/2020 02:47:16	120220	12022020	024716	86.98	13.599765	-56.951437	87.18	-0.110	0.310	0.710	87.08	-1.00	1.10	 	 	 	 	 	 	 	 	 	 	 	 	 	 	 	 	 	 	1581475636	7.14	13.22
12/02/2020 02:47:17	120220	12022020	024717	87.34	13.599767	-56.951410	87.48	-0.790	0.910	0.750	87.37	-0.40	1.10	 	 	 	 	 	 	 	 	 	 	 	 	 	 	 	 	 	 	1581475637	6.96	12.89
12/02/2020 02:47:18	120220	12022020	024718	87.36	13.599772	-56.951385	87.45	-1.260	1.250	0.810	87.34	0.00	1.20	 	 	 	 	 	 	 	 	 	 	 	 	 	 	 	 	 	 	1581475638	5.59	10.35
12/02/2020 02:47:19	120220	12022020	024719	87.31	13.599777	-56.951355	87.41	-0.860	0.160	0.640	87.32	-1.00	1.10	 	 	 	 	 	 	 	 	 	 	 	 	 	 	 	 	 	 	1581475639	5.24	9.70
12/02/2020 02:47:20	120220	12022020	024720	87.40	13.599785	-56.951317	87.52	0.200	-1.720	0.470	87.44	-2.90	0.90	 	 	 	 	 	 	 	 	 	 	 	 	 	 	 	 	 	 	1581475640	6.62	12.26
12/02/2020 02:47:21	120220	12022020	024721	87.68	13.599792	-56.951282	87.84	1.100	-2.700	0.410	87.76	-3.90	0.80	 	 	 	 	 	 	 	 	 	 	 	 	 	 	 	 	 	 	1581475641	8.03	14.87
12/02/2020 02:47:22	120220	12022020	024722	88.09	13.599795	-56.951252	88.26	1.240	-2.030	0.520	88.18	-3.30	0.90	 	 	 	 	 	 	 	 	 	 	 	 	 	 	 	 	 	 	1581475642	7.72	14.30
12/02/2020 02:47:23	120220	12022020	024723	88.47	13.599797	-56.951227	88.64	0.740	-0.310	0.970	88.55	-1.70	1.30	 	 	 	 	 	 	 	 	 	 	 	 	 	 	 	 	 	 	1581475643	6.31	11.69
12/02/2020 02:47:24	120220	12022020	024724	89.01	13.599797	-56.951203	89.23	0.000	1.410	1.420	89.14	0.10	1.80	 	 	 	 	 	 	 	 	 	 	 	 	 	 	 	 	 	 	1581475644	5.15	9.54
12/02/2020 02:47:25	120220	12022020	024725	89.59	13.599797	-56.951178	89.81	-0.690	2.270	1.780	89.67	1.00	2.20	 	 	 	 	 	 	 	 	 	 	 	 	 	 	 	 	 	 	1581475645	4.92	9.11
12/02/2020 02:47:26	120220	12022020	024726	89.76	13.599797	-56.951148	89.94	-1.120	1.770	2.010	89.76	0.60	2.40	 	 	 	 	 	 	 	 	 	 	 	 	 	 	 	 	 	 	1581475646	5.38	9.96
12/02/2020 02:47:27	120220	12022020	024727	89.72	13.599798	-56.951113	89.92	-1.070	0.220	1.830	89.72	-0.90	2.30	 	 	 	 	 	 	 	 	 	 	 	 	 	 	 	 	 	 	1581475647	6.36	11.78
12/02/2020 02:47:28	120220	12022020	024728	89.84	13.599803	-56.951077	90.06	-0.500	-1.320	1.400	89.90	-2.50	1.80	 	 	 	 	 	 	 	 	 	 	 	 	 	 	 	 	 	 	1581475648	7.35	13.61
12/02/2020 02:47:29	120220	12022020	024729	90.17	13.599808	-56.951045	90.39	0.320	-1.990	0.890	90.25	-3.20	1.40	 	 	 	 	 	 	 	 	 	 	 	 	 	 	 	 	 	 	1581475649	7.56	14.00
12/02/2020 02:47:30	120220	12022020	024730	90.63	13.599817	-56.951015	90.85	1.010	-1.830	0.310	90.73	-3.10	0.80	 	 	 	 	 	 	 	 	 	 	 	 	 	 	 	 	 	 	1581475650	7.00	12.96
12/02/2020 02:47:31	120220	12022020	024731	91.15	13.599823	-56.950985	91.38	1.240	-1.110	-0.100	91.26	-2.40	0.30	 	 	 	 	 	 	 	 	 	 	 	 	 	 	 	 	 	 	1581475651	6.52	12.08
12/02/2020 02:47:32	120220	12022020	024732	91.70	13.599827	-56.950958	91.93	0.920	-0.020	-0.040	91.82	-1.30	0.40	 	 	 	 	 	 	 	 	 	 	 	 	 	 	 	 	 	 	1581475652	6.27	11.61
12/02/2020 02:47:33	120220	12022020	024733	92.23	13.599828	-56.950932	92.47	0.280	0.980	0.410	92.33	-0.30	0.80	 	 	 	 	 	 	 	 	 	 	 	 	 	 	 	 	 	 	1581475653	5.87	10.87
12/02/2020 02:47:34	120220	12022020	024734	92.70	13.599825	-56.950903	92.95	-0.480	1.390	1.090	92.79	0.10	1.50	 	 	 	 	 	 	 	 	 	 	 	 	 	 	 	 	 	 	1581475654	5.69	10.54
12/02/2020 02:47:35	120220	12022020	024735	92.97	13.599818	-56.950873	93.19	-1.100	1.140	1.970	92.97	-0.10	2.30	 	 	 	 	 	 	 	 	 	 	 	 	 	 	 	 	 	 	1581475655	6.01	11.13
12/02/2020 02:47:36	120220	12022020	024736	92.87	13.599815	-56.950840	93.06	-1.180	0.230	2.460	92.84	-1.00	2.90	 	 	 	 	 	 	 	 	 	 	 	 	 	 	 	 	 	 	1581475656	6.42	11.89
12/02/2020 02:47:37	120220	12022020	024737	92.69	13.599815	-56.950805	92.89	-0.520	-1.100	2.270	92.68	-2.30	2.70	 	 	 	 	 	 	 	 	 	 	 	 	 	 	 	 	 	 	1581475657	6.88	12.74
12/02/2020 02:47:38	120220	12022020	024738	92.84	13.599820	-56.950768	93.10	0.420	-2.110	1.630	92.94	-3.30	2.10	 	 	 	 	 	 	 	 	 	 	 	 	 	 	 	 	 	 	1581475658	7.50	13.89
12/02/2020 02:47:39	120220	12022020	024739	93.45	13.599827	-56.950737	93.74	0.900	-1.870	0.980	93.60	-3.20	1.40	 	 	 	 	 	 	 	 	 	 	 	 	 	 	 	 	 	 	1581475659	7.79	14.43
12/02/2020 02:47:40	120220	12022020	024740	94.14	13.599830	-56.950710	94.38	0.600	-0.440	0.390	94.25	-1.80	0.80	 	 	 	 	 	 	 	 	 	 	 	 	 	 	 	 	 	 	1581475660	6.90	12.78
12/02/2020 02:47:41	120220	12022020	024741	94.59	13.599832	-56.950685	94.78	-0.110	1.120	0.120	94.66	-0.20	0.60	 	 	 	 	 	 	 	 	 	 	 	 	 	 	 	 	 	 	1581475661	5.62	10.41
12/02/2020 02:47:42	120220	12022020	024742	94.96	13.599830	-56.950658	95.14	-0.640	1.690	0.270	95.03	0.40	0.70	 	 	 	 	 	 	 	 	 	 	 	 	 	 	 	 	 	 	1581475662	5.10	9.45
12/02/2020 02:47:43	120220	12022020	024743	95.36	13.599828	-56.950625	95.55	-0.580	0.990	0.550	95.43	-0.20	1.00	 	 	 	 	 	 	 	 	 	 	 	 	 	 	 	 	 	 	1581475663	5.74	10.63
12/02/2020 02:47:44	120220	12022020	024744	95.66	13.599827	-56.950588	95.82	-0.030	-0.360	0.720	95.69	-1.60	1.10	 	 	 	 	 	 	 	 	 	 	 	 	 	 	 	 	 	 	1581475664	6.90	12.78
12/02/2020 02:47:45	120220	12022020	024745	95.76	13.599827	-56.950553	95.90	0.500	-1.190	0.800	95.76	-2.40	1.20	 	 	 	 	 	 	 	 	 	 	 	 	 	 	 	 	 	 	1581475665	7.67	14.20
12/02/2020 02:47:46	120220	12022020	024746	95.72	13.599827	-56.950523	95.85	0.620	-1.160	1.110	95.70	-2.40	1.50	 	 	 	 	 	 	 	 	 	 	 	 	 	 	 	 	 	 	1581475666	7.39	13.69
12/02/2020 02:47:47	120220	12022020	024747	95.72	13.599825	-56.950493	95.92	0.330	-0.750	1.510	95.77	-2.00	1.90	 	 	 	 	 	 	 	 	 	 	 	 	 	 	 	 	 	 	1581475667	6.55	12.13
12/02/2020 02:47:48	120220	12022020	024748	96.11	13.599825	-56.950463	96.36	-0.140	-0.240	1.640	96.22	-1.50	2.10	 	 	 	 	 	 	 	 	 	 	 	 	 	 	 	 	 	 	1581475668	6.22	11.52
12/02/2020 02:47:49	120220	12022020	024749	96.75	13.599822	-56.950433	97.02	-0.400	0.110	1.560	96.88	-1.20	2.00	 	 	 	 	 	 	 	 	 	 	 	 	 	 	 	 	 	 	1581475669	6.15	11.39
12/02/2020 02:47:50	120220	12022020	024750	97.43	13.599820	-56.950402	97.69	-0.230	0.020	1.340	97.55	-1.20	1.80	 	 	 	 	 	 	 	 	 	 	 	 	 	 	 	 	 	 	1581475670	6.28	11.63
12/02/2020 02:47:51	120220	12022020	024751	97.94	13.599815	-56.950368	98.16	0.120	-0.260	1.370	98.02	-1.50	1.80	 	 	 	 	 	 	 	 	 	 	 	 	 	 	 	 	 	 	1581475671	6.85	12.69
12/02/2020 02:47:52	120220	12022020	024752	98.20	13.599812	-56.950335	98.39	0.300	-0.280	1.570	98.23	-1.60	2.00	 	 	 	 	 	 	 	 	 	 	 	 	 	 	 	 	 	 	1581475672	7.18	13.30
12/02/2020 02:47:53	120220	12022020	024753	98.39	13.599812	-56.950305	98.60	0.120	0.160	1.370	98.44	-1.10	1.80	 	 	 	 	 	 	 	 	 	 	 	 	 	 	 	 	 	 	1581475673	6.96	12.89
12/02/2020 02:47:54	120220	12022020	024754	98.68	13.599813	-56.950275	98.91	-0.280	0.620	0.800	98.76	-0.70	1.30	 	 	 	 	 	 	 	 	 	 	 	 	 	 	 	 	 	 	1581475674	6.42	11.89
12/02/2020 02:47:55	120220	12022020	024755	99.08	13.599815	-56.950245	99.32	-0.620	0.600	0.530	99.17	-0.70	1.00	 	 	 	 	 	 	 	 	 	 	 	 	 	 	 	 	 	 	1581475675	6.20	11.48
12/02/2020 02:47:56	120220	12022020	024756	99.54	13.599810	-56.950213	99.77	-0.590	0.020	0.630	99.63	-1.20	1.10	 	 	 	 	 	 	 	 	 	 	 	 	 	 	 	 	 	 	1581475676	6.37	11.80
12/02/2020 02:47:57	120220	12022020	024757	99.98	13.599805	-56.950178	100.20	-0.090	-0.940	0.670	100.06	-2.20	1.10	 	 	 	 	 	 	 	 	 	 	 	 	 	 	 	 	 	 	1581475677	6.81	12.61
12/02/2020 02:47:58	120220	12022020	024758	100.37	13.599800	-56.950142	100.59	0.660	-1.700	0.670	100.44	-2.90	1.10	 	 	 	 	 	 	 	 	 	 	 	 	 	 	 	 	 	 	1581475678	7.41	13.72
12/02/2020 02:47:59	120220	12022020	024759	100.61	13.599797	-56.950108	100.78	1.190	-1.660	0.910	100.62	-2.90	1.30	 	 	 	 	 	 	 	 	 	 	 	 	 	 	 	 	 	 	1581475679	7.63	14.13
12/02/2020 02:48:00	120220	12022020	024800	100.64	13.599793	-56.950078	100.80	1.060	-0.710	1.300	100.65	-2.00	1.70	 	 	 	 	 	 	 	 	 	 	 	 	 	 	 	 	 	 	1581475680	7.17	13.28
12/02/2020 02:48:01	120220	12022020	024801	100.84	13.599792	-56.950050	101.07	0.210	0.800	1.390	100.92	-0.60	1.80	1016.90	26.00	26.10	21.00	21.10	-1.0	73.0	74.0	398.0	25.7	335.00	15.50	60.00	12.60	16	9679.0	27.1	27.1	1581475681	6.44	11.93
12/02/2020 02:48:02	120220	12022020	024802	101.46	13.599788	-56.950025	101.75	-0.960	2.080	1.210	101.62	0.70	1.70	 	 	 	 	 	 	 	 	 	 	 	 	 	 	 	 	 	 	1581475682	5.68	10.52
12/02/2020 02:48:03	120220	12022020	024803	102.27	13.599785	-56.949998	102.53	-1.740	2.150	1.150	102.41	0.90	1.60	 	 	 	 	 	 	 	 	 	 	 	 	 	 	 	 	 	 	1581475683	5.29	9.80
12/02/2020 02:48:04	120220	12022020	024804	102.74	13.599775	-56.949963	102.92	-1.360	0.240	1.370	102.77	-0.90	1.80	 	 	 	 	 	 	 	 	 	 	 	 	 	 	 	 	 	 	1581475684	5.81	10.76
12/02/2020 02:48:05	120220	12022020	024805	102.70	13.599765	-56.949920	102.84	0.110	-2.490	1.650	102.67	-3.60	2.10	 	 	 	 	 	 	 	 	 	 	 	 	 	 	 	 	 	 	1581475685	7.63	14.13
12/02/2020 02:48:06	120220	12022020	024806	102.65	13.599757	-56.949882	102.84	1.430	-3.450	1.980	102.70	-4.70	2.40	 	 	 	 	 	 	 	 	 	 	 	 	 	 	 	 	 	 	1581475686	9.26	17.15
12/02/2020 02:48:07	120220	12022020	024807	103.06	13.599753	-56.949853	103.31	1.560	-1.870	2.010	103.21	-3.30	2.50	 	 	 	 	 	 	 	 	 	 	 	 	 	 	 	 	 	 	1581475687	8.36	15.48
12/02/2020 02:48:08	120220	12022020	024808	103.88	13.599752	-56.949833	104.15	0.560	0.820	1.560	104.07	-0.60	2.00	 	 	 	 	 	 	 	 	 	 	 	 	 	 	 	 	 	 	1581475688	5.92	10.96
12/02/2020 02:48:09	120220	12022020	024809	104.77	13.599750	-56.949812	104.99	-0.730	2.670	1.090	104.91	1.30	1.60	 	 	 	 	 	 	 	 	 	 	 	 	 	 	 	 	 	 	1581475689	4.36	8.07
12/02/2020 02:48:10	120220	12022020	024810	105.32	13.599745	-56.949783	105.48	-1.450	2.610	1.080	105.38	1.40	1.50	 	 	 	 	 	 	 	 	 	 	 	 	 	 	 	 	 	 	1581475690	4.57	8.46
12/02/2020 02:48:11	120220	12022020	024811	105.52	13.599735	-56.949750	105.66	-1.230	0.870	1.290	105.54	-0.30	1.70	 	 	 	 	 	 	 	 	 	 	 	 	 	 	 	 	 	 	1581475691	5.99	11.09
12/02/2020 02:48:12	120220	12022020	024812	105.58	13.599723	-56.949710	105.71	-0.270	-1.490	1.510	105.58	-2.60	1.90	 	 	 	 	 	 	 	 	 	 	 	 	 	 	 	 	 	 	1581475692	7.58	14.04
12/02/2020 02:48:13	120220	12022020	024813	105.50	13.599713	-56.949673	105.62	0.750	-2.970	1.830	105.47	-4.20	2.30	 	 	 	 	 	 	 	 	 	 	 	 	 	 	 	 	 	 	1581475693	8.47	15.69
12/02/2020 02:48:14	120220	12022020	024814	105.38	13.599705	-56.949642	105.50	1.110	-2.500	2.120	105.37	-3.80	2.60	 	 	 	 	 	 	 	 	 	 	 	 	 	 	 	 	 	 	1581475694	8.21	15.20
12/02/2020 02:48:15	120220	12022020	024815	105.44	13.599702	-56.949618	105.62	0.750	-0.580	2.040	105.50	-2.00	2.50	 	 	 	 	 	 	 	 	 	 	 	 	 	 	 	 	 	 	1581475695	6.65	12.32
12/02/2020 02:48:16	120220	12022020	024816	105.89	13.599698	-56.949595	106.11	0.130	1.340	1.530	106.01	-0.00	2.00	 	 	 	 	 	 	 	 	 	 	 	 	 	 	 	 	 	 	1581475696	5.13	9.50
12/02/2020 02:48:17	120220	12022020	024817	106.56	13.599695	-56.949567	106.79	-0.340	1.870	0.960	106.69	0.60	1.40	 	 	 	 	 	 	 	 	 	 	 	 	 	 	 	 	 	 	1581475697	4.88	9.04
12/02/2020 02:48:18	120220	12022020	024818	107.05	13.599687	-56.949533	107.22	-0.420	0.720	0.720	107.10	-0.50	1.20	 	 	 	 	 	 	 	 	 	 	 	 	 	 	 	 	 	 	1581475698	5.91	10.95
12/02/2020 02:48:19	120220	12022020	024819	107.09	13.599673	-56.949495	107.20	-0.120	-0.960	1.080	107.05	-2.20	1.50	 	 	 	 	 	 	 	 	 	 	 	 	 	 	 	 	 	 	1581475699	7.51	13.91
12/02/2020 02:48:20	120220	12022020	024820	106.92	13.599662	-56.949462	107.06	0.170	-1.390	1.580	106.93	-2.70	2.00	 	 	 	 	 	 	 	 	 	 	 	 	 	 	 	 	 	 	1581475700	8.41	15.58
12/02/2020 02:48:21	120220	12022020	024821	107.11	13.599655	-56.949437	107.30	-0.010	-0.190	1.720	107.18	-1.50	2.20	 	 	 	 	 	 	 	 	 	 	 	 	 	 	 	 	 	 	1581475701	7.53	13.95
12/02/2020 02:48:22	120220	12022020	024822	107.57	13.599650	-56.949415	107.78	-0.600	1.070	1.690	107.67	-0.30	2.10	 	 	 	 	 	 	 	 	 	 	 	 	 	 	 	 	 	 	1581475702	5.48	10.15
12/02/2020 02:48:23	120220	12022020	024823	107.99	13.599642	-56.949388	108.17	-0.970	0.970	1.850	108.05	-0.30	2.30	 	 	 	 	 	 	 	 	 	 	 	 	 	 	 	 	 	 	1581475703	4.79	8.87
12/02/2020 02:48:24	120220	12022020	024824	108.28	13.599628	-56.949353	108.44	-0.580	-0.510	2.040	108.31	-1.70	2.50	 	 	 	 	 	 	 	 	 	 	 	 	 	 	 	 	 	 	1581475704	5.90	10.93
12/02/2020 02:48:25	120220	12022020	024825	108.31	13.599615	-56.949317	108.43	0.470	-2.240	2.340	108.28	-3.40	2.80	 	 	 	 	 	 	 	 	 	 	 	 	 	 	 	 	 	 	1581475705	7.57	14.02
12/02/2020 02:48:26	120220	12022020	024826	108.16	13.599602	-56.949282	108.29	1.380	-2.590	2.700	108.15	-3.90	3.10	 	 	 	 	 	 	 	 	 	 	 	 	 	 	 	 	 	 	1581475706	8.51	15.76
12/02/2020 02:48:27	120220	12022020	024827	108.25	13.599593	-56.949255	108.43	1.420	-0.970	2.550	108.31	-2.40	3.00	 	 	 	 	 	 	 	 	 	 	 	 	 	 	 	 	 	 	1581475707	7.79	14.43
12/02/2020 02:48:28	120220	12022020	024828	108.70	13.599593	-56.949233	108.90	0.570	1.420	1.820	108.83	0.00	2.30	 	 	 	 	 	 	 	 	 	 	 	 	 	 	 	 	 	 	1581475708	5.81	10.76
12/02/2020 02:48:29	120220	12022020	024829	109.33	13.599592	-56.949210	109.50	-0.560	2.760	0.950	109.46	1.40	1.50	 	 	 	 	 	 	 	 	 	 	 	 	 	 	 	 	 	 	1581475709	4.57	8.46
12/02/2020 02:48:30	120220	12022020	024830	109.99	13.599587	-56.949180	110.17	-1.260	2.180	0.330	110.13	1.00	0.80	 	 	 	 	 	 	 	 	 	 	 	 	 	 	 	 	 	 	1581475710	5.03	9.32
12/02/2020 02:48:31	120220	12022020	024831	110.66	13.599573	-56.949145	110.83	-1.260	0.340	0.220	110.76	-0.80	0.70	 	 	 	 	 	 	 	 	 	 	 	 	 	 	 	 	 	 	1581475711	6.45	11.95
12/02/2020 02:48:32	120220	12022020	024832	111.02	13.599558	-56.949112	111.13	-0.600	-1.570	0.660	111.03	-2.80	1.10	 	 	 	 	 	 	 	 	 	 	 	 	 	 	 	 	 	 	1581475712	7.60	14.08
12/02/2020 02:48:33	120220	12022020	024833	110.91	13.599545	-56.949080	110.98	0.420	-2.700	1.350	110.85	-3.90	1.80	 	 	 	 	 	 	 	 	 	 	 	 	 	 	 	 	 	 	1581475713	7.84	14.52
12/02/2020 02:48:34	120220	12022020	024834	110.64	13.599532	-56.949050	110.74	1.240	-2.530	1.990	110.61	-3.90	2.40	 	 	 	 	 	 	 	 	 	 	 	 	 	 	 	 	 	 	1581475714	7.50	13.89
12/02/2020 02:48:35	120220	12022020	024835	110.67	13.599523	-56.949023	110.84	1.290	-1.190	2.250	110.72	-2.60	2.70	 	 	 	 	 	 	 	 	 	 	 	 	 	 	 	 	 	 	1581475715	6.77	12.54
12/02/2020 02:48:36	120220	12022020	024836	111.09	13.599515	-56.948998	111.31	0.550	0.450	2.160	111.21	-0.90	2.60	 	 	 	 	 	 	 	 	 	 	 	 	 	 	 	 	 	 	1581475716	5.85	10.83
12/02/2020 02:48:37	120220	12022020	024837	111.74	13.599508	-56.948973	111.95	-0.450	1.560	1.880	111.87	0.20	2.40	 	 	 	 	 	 	 	 	 	 	 	 	 	 	 	 	 	 	1581475717	5.43	10.06
12/02/2020 02:48:38	120220	12022020	024838	112.31	13.599498	-56.948945	112.49	-1.100	1.770	1.680	112.40	0.50	2.10	 	 	 	 	 	 	 	 	 	 	 	 	 	 	 	 	 	 	1581475718	5.67	10.50
12/02/2020 02:48:39	120220	12022020	024839	112.76	13.599483	-56.948915	112.93	-1.120	1.080	1.670	112.84	-0.20	2.10	 	 	 	 	 	 	 	 	 	 	 	 	 	 	 	 	 	 	1581475719	6.29	11.65
12/02/2020 02:48:40	120220	12022020	024840	113.09	13.599468	-56.948883	113.23	-0.620	-0.200	1.890	113.12	-1.40	2.30	 	 	 	 	 	 	 	 	 	 	 	 	 	 	 	 	 	 	1581475720	6.97	12.91
12/02/2020 02:48:41	120220	12022020	024841	113.10	13.599452	-56.948850	113.20	0.130	-1.350	2.200	113.08	-2.60	2.60	 	 	 	 	 	 	 	 	 	 	 	 	 	 	 	 	 	 	1581475721	7.55	13.98
12/02/2020 02:48:42	120220	12022020	024842	113.15	13.599442	-56.948818	113.31	0.740	-1.500	2.000	113.23	-2.80	2.50	 	 	 	 	 	 	 	 	 	 	 	 	 	 	 	 	 	 	1581475722	7.68	14.22
12/02/2020 02:48:43	120220	12022020	024843	113.70	13.599437	-56.948792	113.92	0.840	-0.660	1.480	113.86	-2.00	2.00	 	 	 	 	 	 	 	 	 	 	 	 	 	 	 	 	 	 	1581475723	6.98	12.93
12/02/2020 02:48:44	120220	12022020	024844	114.40	13.599428	-56.948765	114.59	0.540	0.030	1.320	114.51	-1.30	1.80	 	 	 	 	 	 	 	 	 	 	 	 	 	 	 	 	 	 	1581475724	5.96	11.04
12/02/2020 02:48:45	120220	12022020	024845	114.75	13.599415	-56.948737	114.89	0.300	-0.100	1.740	114.77	-1.40	2.20	 	 	 	 	 	 	 	 	 	 	 	 	 	 	 	 	 	 	1581475725	5.82	10.78
12/02/2020 02:48:46	120220	12022020	024846	114.75	13.599398	-56.948705	114.87	0.380	-0.560	2.250	114.73	-1.80	2.70	 	 	 	 	 	 	 	 	 	 	 	 	 	 	 	 	 	 	1581475726	6.71	12.43
12/02/2020 02:48:47	120220	12022020	024847	114.69	13.599385	-56.948675	114.85	0.430	-0.370	2.540	114.71	-1.70	3.00	 	 	 	 	 	 	 	 	 	 	 	 	 	 	 	 	 	 	1581475727	7.46	13.82
12/02/2020 02:48:48	120220	12022020	024848	115.00	13.599375	-56.948648	115.23	-0.050	0.610	2.520	115.12	-0.70	3.00	 	 	 	 	 	 	 	 	 	 	 	 	 	 	 	 	 	 	1581475728	7.02	13.00
12/02/2020 02:48:49	120220	12022020	024849	115.66	13.599365	-56.948625	115.91	-0.900	1.300	2.210	115.80	-0.00	2.70	 	 	 	 	 	 	 	 	 	 	 	 	 	 	 	 	 	 	1581475729	5.85	10.83
12/02/2020 02:48:50	120220	12022020	024850	116.21	13.599352	-56.948595	116.37	-1.330	0.450	2.050	116.26	-0.80	2.50	 	 	 	 	 	 	 	 	 	 	 	 	 	 	 	 	 	 	1581475730	5.48	10.15
12/02/2020 02:48:51	120220	12022020	024851	116.25	13.599330	-56.948560	116.36	-0.770	-1.730	2.360	116.20	-2.90	2.80	 	 	 	 	 	 	 	 	 	 	 	 	 	 	 	 	 	 	1581475731	6.79	12.58
12/02/2020 02:48:52	120220	12022020	024852	115.98	13.599307	-56.948525	116.08	0.280	-3.030	2.760	115.95	-4.30	3.20	 	 	 	 	 	 	 	 	 	 	 	 	 	 	 	 	 	 	1581475732	8.79	16.28
12/02/2020 02:48:53	120220	12022020	024853	116.03	13.599292	-56.948498	116.20	0.930	-1.800	2.470	116.11	-3.20	3.00	 	 	 	 	 	 	 	 	 	 	 	 	 	 	 	 	 	 	1581475733	8.89	16.46
12/02/2020 02:48:54	120220	12022020	024854	116.62	13.599288	-56.948477	116.83	0.750	0.990	1.520	116.77	-0.50	2.00	 	 	 	 	 	 	 	 	 	 	 	 	 	 	 	 	 	 	1581475734	6.52	12.08
12/02/2020 02:48:55	120220	12022020	024855	117.34	13.599285	-56.948453	117.51	0.070	2.780	0.550	117.46	1.40	1.10	 	 	 	 	 	 	 	 	 	 	 	 	 	 	 	 	 	 	1581475735	4.45	8.24
12/02/2020 02:48:56	120220	12022020	024856	117.85	13.599277	-56.948425	117.98	-0.510	2.370	0.240	117.92	1.10	0.70	 	 	 	 	 	 	 	 	 	 	 	 	 	 	 	 	 	 	1581475736	4.85	8.98
12/02/2020 02:48:57	120220	12022020	024857	118.12	13.599260	-56.948392	118.22	-0.610	0.520	0.580	118.15	-0.70	1.00	 	 	 	 	 	 	 	 	 	 	 	 	 	 	 	 	 	 	1581475737	6.46	11.96
12/02/2020 02:48:58	120220	12022020	024858	118.24	13.599238	-56.948360	118.34	-0.200	-1.550	1.260	118.26	-2.80	1.70	 	 	 	 	 	 	 	 	 	 	 	 	 	 	 	 	 	 	1581475738	7.79	14.43
12/02/2020 02:48:59	120220	12022020	024859	118.31	13.599218	-56.948330	118.44	0.470	-2.710	2.090	118.33	-4.00	2.50	 	 	 	 	 	 	 	 	 	 	 	 	 	 	 	 	 	 	1581475739	8.20	15.19
12/02/2020 02:49:00	120220	12022020	024900	118.32	13.599200	-56.948303	118.44	1.010	-2.560	2.820	118.30	-3.90	3.20	 	 	 	 	 	 	 	 	 	 	 	 	 	 	 	 	 	 	1581475740	7.72	14.30
12/02/2020 02:49:01	120220	12022020	024901	118.14	13.599185	-56.948278	118.24	1.070	-1.480	3.250	118.09	-2.80	3.70	1017.00	26.10	26.10	21.20	21.20	-1.0	74.0	74.0	402.0	25.7	321.00	15.50	62.00	13.10	16	10240.0	27.1	27.1	1581475741	6.81	12.61
12/02/2020 02:49:02	120220	12022020	024902	117.98	13.599173	-56.948253	118.12	0.520	0.060	3.200	118.00	-1.30	3.70	 	 	 	 	 	 	 	 	 	 	 	 	 	 	 	 	 	 	1581475742	6.15	11.39
12/02/2020 02:49:03	120220	12022020	024903	118.38	13.599162	-56.948228	118.62	-0.510	1.690	2.620	118.53	0.30	3.10	 	 	 	 	 	 	 	 	 	 	 	 	 	 	 	 	 	 	1581475743	5.90	10.93
12/02/2020 02:49:04	120220	12022020	024904	119.36	13.599150	-56.948205	119.64	-1.520	2.640	1.990	119.56	1.30	2.50	 	 	 	 	 	 	 	 	 	 	 	 	 	 	 	 	 	 	1581475744	5.56	10.30
12/02/2020 02:49:05	120220	12022020	024905	120.30	13.599135	-56.948178	120.53	-1.900	2.000	1.560	120.43	0.80	2.00	 	 	 	 	 	 	 	 	 	 	 	 	 	 	 	 	 	 	1581475745	5.50	10.19
12/02/2020 02:49:06	120220	12022020	024906	120.75	13.599115	-56.948145	120.91	-1.180	-0.370	1.440	120.78	-1.50	1.90	 	 	 	 	 	 	 	 	 	 	 	 	 	 	 	 	 	 	1581475746	6.51	12.06
12/02/2020 02:49:07	120220	12022020	024907	120.80	13.599092	-56.948108	120.91	0.350	-2.920	1.620	120.77	-4.10	2.10	 	 	 	 	 	 	 	 	 	 	 	 	 	 	 	 	 	 	1581475747	8.28	15.33
12/02/2020 02:49:08	120220	12022020	024908	120.61	13.599073	-56.948077	120.72	1.640	-3.410	1.890	120.58	-4.80	2.40	 	 	 	 	 	 	 	 	 	 	 	 	 	 	 	 	 	 	1581475748	9.21	17.06
12/02/2020 02:49:09	120220	12022020	024909	120.53	13.599063	-56.948052	120.67	1.730	-1.360	1.730	120.55	-2.80	2.20	 	 	 	 	 	 	 	 	 	 	 	 	 	 	 	 	 	 	1581475749	7.93	14.69
12/02/2020 02:49:10	120220	12022020	024910	120.83	13.599058	-56.948032	121.05	0.710	1.450	1.190	120.95	-0.00	1.70	 	 	 	 	 	 	 	 	 	 	 	 	 	 	 	 	 	 	1581475750	5.50	10.19
12/02/2020 02:49:11	120220	12022020	024911	121.61	13.599050	-56.948010	121.89	-0.540	2.890	0.940	121.79	1.50	1.40	 	 	 	 	 	 	 	 	 	 	 	 	 	 	 	 	 	 	1581475751	4.31	7.98
12/02/2020 02:49:12	120220	12022020	024912	122.43	13.599032	-56.947983	122.69	-1.000	1.980	1.140	122.56	0.70	1.60	 	 	 	 	 	 	 	 	 	 	 	 	 	 	 	 	 	 	1581475752	4.87	9.02
12/02/2020 02:49:13	120220	12022020	024913	122.84	13.599007	-56.947952	123.03	-0.470	-0.510	1.600	122.87	-1.70	2.00	 	 	 	 	 	 	 	 	 	 	 	 	 	 	 	 	 	 	1581475753	6.86	12.70
12/02/2020 02:49:14	120220	12022020	024914	122.98	13.598982	-56.947918	123.19	0.210	-2.260	2.190	123.03	-3.50	2.60	 	 	 	 	 	 	 	 	 	 	 	 	 	 	 	 	 	 	1581475754	8.79	16.28
12/02/2020 02:49:15	120220	12022020	024915	123.31	13.598963	-56.947895	123.56	0.250	-1.740	2.540	123.39	-3.10	3.00	 	 	 	 	 	 	 	 	 	 	 	 	 	 	 	 	 	 	1581475755	8.61	15.95
12/02/2020 02:49:16	120220	12022020	024916	123.67	13.598952	-56.947877	123.89	-0.270	-0.210	2.480	123.71	-1.60	3.00	 	 	 	 	 	 	 	 	 	 	 	 	 	 	 	 	 	 	1581475756	6.24	11.56
12/02/2020 02:49:17	120220	12022020	024917	123.64	13.598935	-56.947855	123.77	-0.530	0.310	2.520	123.58	-1.00	3.00	 	 	 	 	 	 	 	 	 	 	 	 	 	 	 	 	 	 	1581475757	4.72	8.74
12/02/2020 02:49:18	120220	12022020	024918	123.31	13.598915	-56.947825	123.44	-0.050	-0.440	2.770	123.25	-1.70	3.20	 	 	 	 	 	 	 	 	 	 	 	 	 	 	 	 	 	 	1581475758	5.73	10.61
12/02/2020 02:49:19	120220	12022020	024919	123.15	13.598895	-56.947793	123.34	0.650	-0.900	2.710	123.17	-2.20	3.20	 	 	 	 	 	 	 	 	 	 	 	 	 	 	 	 	 	 	1581475759	7.62	14.11
12/02/2020 02:49:20	120220	12022020	024920	123.51	13.598882	-56.947765	123.79	0.770	-0.290	2.110	123.66	-1.70	2.60	 	 	 	 	 	 	 	 	 	 	 	 	 	 	 	 	 	 	1581475760	7.87	14.58
12/02/2020 02:49:21	120220	12022020	024921	124.32	13.598870	-56.947742	124.60	0.190	0.790	1.570	124.49	-0.60	2.10	 	 	 	 	 	 	 	 	 	 	 	 	 	 	 	 	 	 	1581475761	6.75	12.50
12/02/2020 02:49:22	120220	12022020	024922	125.07	13.598853	-56.947718	125.31	-0.440	1.240	1.540	125.18	-0.10	2.00	 	 	 	 	 	 	 	 	 	 	 	 	 	 	 	 	 	 	1581475762	5.70	10.56
12/02/2020 02:49:23	120220	12022020	024923	125.44	13.598833	-56.947692	125.64	-0.520	0.490	2.010	125.48	-0.80	2.50	 	 	 	 	 	 	 	 	 	 	 	 	 	 	 	 	 	 	1581475763	5.85	10.83
12/02/2020 02:49:24	120220	12022020	024924	125.65	13.598810	-56.947665	125.87	-0.200	-0.620	2.490	125.70	-1.90	2.90	 	 	 	 	 	 	 	 	 	 	 	 	 	 	 	 	 	 	1581475764	7.05	13.06
12/02/2020 02:49:25	120220	12022020	024925	125.89	13.598787	-56.947640	126.11	-0.000	-1.150	2.940	125.94	-2.50	3.40	 	 	 	 	 	 	 	 	 	 	 	 	 	 	 	 	 	 	1581475765	7.70	14.26
12/02/2020 02:49:26	120220	12022020	024926	126.05	13.598767	-56.947617	126.27	-0.080	-0.930	3.300	126.07	-2.30	3.80	 	 	 	 	 	 	 	 	 	 	 	 	 	 	 	 	 	 	1581475766	7.19	13.32
12/02/2020 02:49:27	120220	12022020	024927	126.12	13.598748	-56.947595	126.32	-0.110	-0.370	3.300	126.13	-1.70	3.80	 	 	 	 	 	 	 	 	 	 	 	 	 	 	 	 	 	 	1581475767	6.41	11.87
12/02/2020 02:49:28	120220	12022020	024928	126.19	13.598733	-56.947568	126.37	0.130	-0.160	2.910	126.21	-1.50	3.40	 	 	 	 	 	 	 	 	 	 	 	 	 	 	 	 	 	 	1581475768	6.06	11.22
12/02/2020 02:49:29	120220	12022020	024929	126.30	13.598715	-56.947538	126.48	0.520	-0.450	2.430	126.34	-1.70	2.90	 	 	 	 	 	 	 	 	 	 	 	 	 	 	 	 	 	 	1581475769	6.52	12.08
12/02/2020 02:49:30	120220	12022020	024930	126.71	13.598698	-56.947508	126.96	0.650	-0.520	1.990	126.83	-1.90	2.50	 	 	 	 	 	 	 	 	 	 	 	 	 	 	 	 	 	 	1581475770	7.35	13.61
12/02/2020 02:49:31	120220	12022020	024931	127.52	13.598682	-56.947482	127.81	0.310	-0.020	1.670	127.72	-1.40	2.20	 	 	 	 	 	 	 	 	 	 	 	 	 	 	 	 	 	 	1581475771	7.39	13.69
12/02/2020 02:49:32	120220	12022020	024932	128.37	13.598663	-56.947458	128.61	-0.310	0.530	1.600	128.49	-0.80	2.10	 	 	 	 	 	 	 	 	 	 	 	 	 	 	 	 	 	 	1581475772	6.62	12.26
12/02/2020 02:49:33	120220	12022020	024933	128.69	13.598642	-56.947437	128.86	-0.680	0.540	2.020	128.68	-0.80	2.50	 	 	 	 	 	 	 	 	 	 	 	 	 	 	 	 	 	 	1581475773	6.21	11.50
12/02/2020 02:49:34	120220	12022020	024934	128.57	13.598618	-56.947412	128.73	-0.520	0.160	2.620	128.55	-1.20	3.10	 	 	 	 	 	 	 	 	 	 	 	 	 	 	 	 	 	 	1581475774	6.64	12.30
12/02/2020 02:49:35	120220	12022020	024935	128.67	13.598597	-56.947387	128.91	-0.100	-0.150	2.680	128.74	-1.50	3.20	 	 	 	 	 	 	 	 	 	 	 	 	 	 	 	 	 	 	1581475775	7.16	13.26
12/02/2020 02:49:36	120220	12022020	024936	129.16	13.598577	-56.947360	129.42	0.230	-0.550	2.330	129.28	-1.90	2.80	 	 	 	 	 	 	 	 	 	 	 	 	 	 	 	 	 	 	1581475776	7.01	12.98
12/02/2020 02:49:37	120220	12022020	024937	129.70	13.598557	-56.947333	129.93	0.360	-1.010	2.080	129.79	-2.30	2.60	 	 	 	 	 	 	 	 	 	 	 	 	 	 	 	 	 	 	1581475777	7.04	13.04
12/02/2020 02:49:38	120220	12022020	024938	130.05	13.598535	-56.947307	130.24	0.400	-1.040	1.980	130.10	-2.40	2.50	 	 	 	 	 	 	 	 	 	 	 	 	 	 	 	 	 	 	1581475778	7.29	13.50
12/02/2020 02:49:39	120220	12022020	024939	130.31	13.598517	-56.947282	130.50	0.340	-0.400	1.780	130.37	-1.80	2.30	 	 	 	 	 	 	 	 	 	 	 	 	 	 	 	 	 	 	1581475779	7.13	13.20
12/02/2020 02:49:40	120220	12022020	024940	130.62	13.598502	-56.947257	130.81	0.060	0.440	1.600	130.69	-0.90	2.10	 	 	 	 	 	 	 	 	 	 	 	 	 	 	 	 	 	 	1581475780	6.51	12.06
12/02/2020 02:49:41	120220	12022020	024941	130.89	13.598482	-56.947233	131.05	-0.330	0.570	1.610	130.91	-0.80	2.10	 	 	 	 	 	 	 	 	 	 	 	 	 	 	 	 	 	 	1581475781	6.15	11.39
12/02/2020 02:49:42	120220	12022020	024942	130.93	13.598457	-56.947207	131.07	-0.480	-0.270	1.880	130.91	-1.60	2.40	 	 	 	 	 	 	 	 	 	 	 	 	 	 	 	 	 	 	1581475782	6.64	12.30
12/02/2020 02:49:43	120220	12022020	024943	130.84	13.598428	-56.947178	131.01	-0.270	-1.230	2.240	130.84	-2.50	2.70	 	 	 	 	 	 	 	 	 	 	 	 	 	 	 	 	 	 	1581475783	7.76	14.37
12/02/2020 02:49:44	120220	12022020	024944	130.99	13.598403	-56.947153	131.23	-0.030	-1.160	2.580	131.07	-2.60	3.00	 	 	 	 	 	 	 	 	 	 	 	 	 	 	 	 	 	 	1581475784	8.38	15.52
12/02/2020 02:49:45	120220	12022020	024945	131.57	13.598383	-56.947133	131.86	-0.140	0.060	2.680	131.73	-1.40	3.20	 	 	 	 	 	 	 	 	 	 	 	 	 	 	 	 	 	 	1581475785	7.58	14.04
12/02/2020 02:49:46	120220	12022020	024946	132.34	13.598365	-56.947113	132.62	-0.410	1.160	2.320	132.47	-0.30	2.80	 	 	 	 	 	 	 	 	 	 	 	 	 	 	 	 	 	 	1581475786	6.16	11.41
12/02/2020 02:49:47	120220	12022020	024947	132.86	13.598343	-56.947088	133.09	-0.380	1.010	1.860	132.92	-0.30	2.40	 	 	 	 	 	 	 	 	 	 	 	 	 	 	 	 	 	 	1581475787	5.79	10.72
12/02/2020 02:49:48	120220	12022020	024948	133.11	13.598318	-56.947060	133.32	0.080	-0.060	1.630	133.15	-1.40	2.10	 	 	 	 	 	 	 	 	 	 	 	 	 	 	 	 	 	 	1581475788	6.88	12.74
12/02/2020 02:49:49	120220	12022020	024949	133.40	13.598295	-56.947032	133.62	0.660	-0.750	1.360	133.48	-2.10	1.90	 	 	 	 	 	 	 	 	 	 	 	 	 	 	 	 	 	 	1581475789	7.98	14.78
12/02/2020 02:49:50	120220	12022020	024950	133.82	13.598278	-56.947003	134.02	0.850	-0.740	1.110	133.89	-2.10	1.60	 	 	 	 	 	 	 	 	 	 	 	 	 	 	 	 	 	 	1581475790	7.77	14.39
12/02/2020 02:49:51	120220	12022020	024951	134.00	13.598257	-56.946978	134.12	0.470	-0.710	1.370	133.98	-2.10	1.80	 	 	 	 	 	 	 	 	 	 	 	 	 	 	 	 	 	 	1581475791	7.01	12.98
12/02/2020 02:49:52	120220	12022020	024952	133.80	13.598230	-56.946958	133.91	-0.210	-0.920	2.320	133.75	-2.30	2.80	 	 	 	 	 	 	 	 	 	 	 	 	 	 	 	 	 	 	1581475792	6.91	12.80
12/02/2020 02:49:53	120220	12022020	024953	133.58	13.598198	-56.946938	133.77	-0.650	-0.850	3.220	133.58	-2.20	3.70	 	 	 	 	 	 	 	 	 	 	 	 	 	 	 	 	 	 	1581475793	7.45	13.80
12/02/2020 02:49:54	120220	12022020	024954	133.74	13.598173	-56.946920	134.00	-0.550	-0.000	3.320	133.82	-1.40	3.80	 	 	 	 	 	 	 	 	 	 	 	 	 	 	 	 	 	 	1581475794	7.75	14.35
12/02/2020 02:49:55	120220	12022020	024955	134.23	13.598152	-56.946898	134.48	-0.210	0.820	2.750	134.33	-0.60	3.30	 	 	 	 	 	 	 	 	 	 	 	 	 	 	 	 	 	 	1581475795	6.82	12.63
12/02/2020 02:49:56	120220	12022020	024956	134.63	13.598132	-56.946870	134.79	0.120	0.590	2.070	134.65	-0.70	2.60	 	 	 	 	 	 	 	 	 	 	 	 	 	 	 	 	 	 	1581475796	6.35	11.76
12/02/2020 02:49:57	120220	12022020	024957	134.59	13.598107	-56.946840	134.69	0.440	-0.630	1.910	134.56	-1.90	2.40	 	 	 	 	 	 	 	 	 	 	 	 	 	 	 	 	 	 	1581475797	7.24	13.41
12/02/2020 02:49:58	120220	12022020	024958	134.53	13.598080	-56.946810	134.69	0.530	-1.280	2.020	134.56	-2.60	2.50	 	 	 	 	 	 	 	 	 	 	 	 	 	 	 	 	 	 	1581475798	8.51	15.76
12/02/2020 02:49:59	120220	12022020	024959	134.79	13.598057	-56.946787	134.99	0.140	-0.690	2.380	134.86	-2.10	2.90	 	 	 	 	 	 	 	 	 	 	 	 	 	 	 	 	 	 	1581475799	8.37	15.50
12/02/2020 02:50:00	120220	12022020	025000	135.18	13.598032	-56.946770	135.40	-0.550	0.220	2.790	135.26	-1.20	3.30	 	 	 	 	 	 	 	 	 	 	 	 	 	 	 	 	 	 	1581475800	6.98	12.93
12/02/2020 02:50:01	120220	12022020	025001	135.56	13.598007	-56.946752	135.79	-1.080	0.720	2.970	135.63	-0.70	3.40	1016.80	26.00	26.10	21.00	21.10	-1.0	74.0	74.0	416.0	25.7	306.00	15.00	61.00	13.30	16	9222.0	27.1	27.1	1581475801	6.42	11.89
12/02/2020 02:50:02	120220	12022020	025002	135.91	13.597980	-56.946730	136.13	-1.080	0.650	2.930	135.99	-0.70	3.40	 	 	 	 	 	 	 	 	 	 	 	 	 	 	 	 	 	 	1581475802	6.69	12.39
12/02/2020 02:50:03	120220	12022020	025003	136.32	13.597953	-56.946705	136.54	-0.380	-0.050	2.590	136.42	-1.40	3.10	 	 	 	 	 	 	 	 	 	 	 	 	 	 	 	 	 	 	1581475803	7.11	13.17
12/02/2020 02:50:04	120220	12022020	025004	136.88	13.597930	-56.946677	137.09	0.650	-0.830	1.860	137.00	-2.20	2.40	 	 	 	 	 	 	 	 	 	 	 	 	 	 	 	 	 	 	1581475804	7.75	14.35
12/02/2020 02:50:05	120220	12022020	025005	137.45	13.597908	-56.946647	137.66	1.320	-1.030	1.130	137.55	-2.40	1.70	 	 	 	 	 	 	 	 	 	 	 	 	 	 	 	 	 	 	1581475805	8.08	14.96
12/02/2020 02:50:06	120220	12022020	025006	137.87	13.597888	-56.946620	138.03	1.270	-0.720	0.930	137.93	-2.10	1.40	 	 	 	 	 	 	 	 	 	 	 	 	 	 	 	 	 	 	1581475806	7.71	14.28
12/02/2020 02:50:07	120220	12022020	025007	138.20	13.597867	-56.946595	138.36	0.700	-0.210	1.090	138.28	-1.60	1.60	 	 	 	 	 	 	 	 	 	 	 	 	 	 	 	 	 	 	1581475807	7.14	13.22
12/02/2020 02:50:08	120220	12022020	025008	138.62	13.597843	-56.946573	138.79	-0.140	0.170	1.530	138.68	-1.20	2.00	 	 	 	 	 	 	 	 	 	 	 	 	 	 	 	 	 	 	1581475808	6.92	12.82
12/02/2020 02:50:09	120220	12022020	025009	138.85	13.597815	-56.946555	139.01	-0.940	0.220	2.500	138.87	-1.20	2.90	 	 	 	 	 	 	 	 	 	 	 	 	 	 	 	 	 	 	1581475809	6.93	12.83
12/02/2020 02:50:10	120220	12022020	025010	138.94	13.597783	-56.946537	139.12	-1.230	-0.090	3.350	138.95	-1.40	3.80	 	 	 	 	 	 	 	 	 	 	 	 	 	 	 	 	 	 	1581475810	7.26	13.45
12/02/2020 02:50:11	120220	12022020	025011	138.98	13.597752	-56.946517	139.18	-0.780	-0.620	3.660	139.01	-2.00	4.10	 	 	 	 	 	 	 	 	 	 	 	 	 	 	 	 	 	 	1581475811	7.74	14.33
12/02/2020 02:50:12	120220	12022020	025012	139.27	13.597723	-56.946493	139.56	-0.130	-0.810	3.400	139.40	-2.20	3.90	 	 	 	 	 	 	 	 	 	 	 	 	 	 	 	 	 	 	1581475812	8.07	14.95
12/02/2020 02:50:13	120220	12022020	025013	140.14	13.597697	-56.946470	140.47	0.180	-0.410	2.710	140.36	-1.80	3.20	 	 	 	 	 	 	 	 	 	 	 	 	 	 	 	 	 	 	1581475813	7.94	14.70
12/02/2020 02:50:14	120220	12022020	025014	141.29	13.597675	-56.946448	141.59	0.080	0.260	1.720	141.50	-1.10	2.30	 	 	 	 	 	 	 	 	 	 	 	 	 	 	 	 	 	 	1581475814	7.24	13.41
12/02/2020 02:50:15	120220	12022020	025015	142.09	13.597652	-56.946425	142.30	0.080	0.440	0.940	142.17	-0.90	1.50	 	 	 	 	 	 	 	 	 	 	 	 	 	 	 	 	 	 	1581475815	6.68	12.37
12/02/2020 02:50:16	120220	12022020	025016	142.30	13.597627	-56.946397	142.44	0.470	-0.060	0.740	142.31	-1.40	1.20	 	 	 	 	 	 	 	 	 	 	 	 	 	 	 	 	 	 	1581475816	6.99	12.95
12/02/2020 02:50:17	120220	12022020	025017	142.39	13.597600	-56.946370	142.59	0.770	-0.510	0.970	142.45	-1.90	1.50	 	 	 	 	 	 	 	 	 	 	 	 	 	 	 	 	 	 	1581475817	7.87	14.58
12/02/2020 02:50:18	120220	12022020	025018	142.77	13.597575	-56.946347	143.02	0.460	-0.440	1.330	142.87	-1.80	1.80	 	 	 	 	 	 	 	 	 	 	 	 	 	 	 	 	 	 	1581475818	8.04	14.89
12/02/2020 02:50:19	120220	12022020	025019	143.27	13.597547	-56.946328	143.52	-0.330	-0.140	1.680	143.36	-1.50	2.20	 	 	 	 	 	 	 	 	 	 	 	 	 	 	 	 	 	 	1581475819	7.44	13.78
12/02/2020 02:50:20	120220	12022020	025020	143.71	13.597515	-56.946313	143.96	-0.990	-0.050	2.090	143.79	-1.40	2.60	 	 	 	 	 	 	 	 	 	 	 	 	 	 	 	 	 	 	1581475820	7.06	13.08
12/02/2020 02:50:21	120220	12022020	025021	144.19	13.597485	-56.946298	144.44	-0.990	0.020	2.140	144.30	-1.40	2.60	 	 	 	 	 	 	 	 	 	 	 	 	 	 	 	 	 	 	1581475821	7.39	13.69
12/02/2020 02:50:22	120220	12022020	025022	144.75	13.597455	-56.946280	144.98	-0.340	0.010	1.690	144.85	-1.40	2.20	 	 	 	 	 	 	 	 	 	 	 	 	 	 	 	 	 	 	1581475822	7.49	13.87
12/02/2020 02:50:23	120220	12022020	025023	145.12	13.597427	-56.946257	145.31	0.610	-0.400	1.190	145.16	-1.70	1.70	 	 	 	 	 	 	 	 	 	 	 	 	 	 	 	 	 	 	1581475823	7.33	13.58
12/02/2020 02:50:24	120220	12022020	025024	145.22	13.597398	-56.946228	145.40	1.310	-1.050	0.880	145.23	-2.40	1.40	 	 	 	 	 	 	 	 	 	 	 	 	 	 	 	 	 	 	1581475824	7.79	14.43
12/02/2020 02:50:25	120220	12022020	025025	145.33	13.597372	-56.946203	145.54	1.170	-1.120	1.050	145.38	-2.50	1.50	 	 	 	 	 	 	 	 	 	 	 	 	 	 	 	 	 	 	1581475825	8.42	15.59
12/02/2020 02:50:26	120220	12022020	025026	145.66	13.597343	-56.946185	145.91	0.160	-0.310	1.560	145.76	-1.70	2.00	 	 	 	 	 	 	 	 	 	 	 	 	 	 	 	 	 	 	1581475826	8.09	14.98
12/02/2020 02:50:27	120220	12022020	025027	146.19	13.597315	-56.946172	146.45	-1.030	0.750	2.000	146.31	-0.70	2.50	 	 	 	 	 	 	 	 	 	 	 	 	 	 	 	 	 	 	1581475827	7.04	13.04
12/02/2020 02:50:28	120220	12022020	025028	146.71	13.597285	-56.946160	146.96	-1.590	1.050	2.380	146.80	-0.30	2.90	 	 	 	 	 	 	 	 	 	 	 	 	 	 	 	 	 	 	1581475828	6.56	12.15
12/02/2020 02:50:29	120220	12022020	025029	147.11	13.597250	-56.946145	147.36	-1.180	0.390	2.600	147.18	-1.00	3.10	 	 	 	 	 	 	 	 	 	 	 	 	 	 	 	 	 	 	1581475829	7.22	13.37
12/02/2020 02:50:30	120220	12022020	025030	147.38	13.597213	-56.946125	147.61	-0.120	-0.720	2.540	147.41	-2.10	3.00	 	 	 	 	 	 	 	 	 	 	 	 	 	 	 	 	 	 	1581475830	8.17	15.13
12/02/2020 02:50:31	120220	12022020	025031	147.39	13.597180	-56.946102	147.58	0.950	-1.500	2.330	147.37	-2.90	2.90	 	 	 	 	 	 	 	 	 	 	 	 	 	 	 	 	 	 	1581475831	8.73	16.17
12/02/2020 02:50:32	120220	12022020	025032	147.33	13.597150	-56.946078	147.53	1.460	-1.300	1.990	147.35	-2.70	2.50	 	 	 	 	 	 	 	 	 	 	 	 	 	 	 	 	 	 	1581475832	8.70	16.11
12/02/2020 02:50:33	120220	12022020	025033	147.73	13.597128	-56.946055	147.97	1.140	0.060	1.370	147.89	-1.40	1.90	 	 	 	 	 	 	 	 	 	 	 	 	 	 	 	 	 	 	1581475833	8.05	14.91
12/02/2020 02:50:34	120220	12022020	025034	148.67	13.597107	-56.946037	148.91	0.200	1.560	0.830	148.88	0.10	1.40	 	 	 	 	 	 	 	 	 	 	 	 	 	 	 	 	 	 	1581475834	6.84	12.67
12/02/2020 02:50:35	120220	12022020	025035	149.60	13.597082	-56.946018	149.77	-0.750	1.690	0.900	149.73	0.40	1.40	 	 	 	 	 	 	 	 	 	 	 	 	 	 	 	 	 	 	1581475835	6.00	11.11
12/02/2020 02:50:36	120220	12022020	025036	149.98	13.597045	-56.946003	150.08	-1.050	0.030	1.600	149.98	-1.20	2.10	 	 	 	 	 	 	 	 	 	 	 	 	 	 	 	 	 	 	1581475836	6.64	12.30
12/02/2020 02:50:37	120220	12022020	025037	149.74	13.597002	-56.945987	149.81	-0.590	-2.160	2.720	149.63	-3.40	3.10	 	 	 	 	 	 	 	 	 	 	 	 	 	 	 	 	 	 	1581475837	8.52	15.78
12/02/2020 02:50:38	120220	12022020	025038	149.20	13.596962	-56.945972	149.29	0.150	-3.060	3.790	149.13	-4.40	4.30	 	 	 	 	 	 	 	 	 	 	 	 	 	 	 	 	 	 	1581475838	9.76	18.08
12/02/2020 02:50:39	120220	12022020	025039	149.07	13.596930	-56.945957	149.25	0.560	-1.930	3.950	149.12	-3.40	4.50	 	 	 	 	 	 	 	 	 	 	 	 	 	 	 	 	 	 	1581475839	9.23	17.09
12/02/2020 02:50:40	120220	12022020	025040	149.49	13.596907	-56.945942	149.72	0.430	0.110	3.270	149.62	-1.40	3.80	 	 	 	 	 	 	 	 	 	 	 	 	 	 	 	 	 	 	1581475840	7.38	13.67
12/02/2020 02:50:41	120220	12022020	025041	150.18	13.596883	-56.945920	150.41	0.080	1.500	2.310	150.33	0.10	2.90	 	 	 	 	 	 	 	 	 	 	 	 	 	 	 	 	 	 	1581475841	6.21	11.50
12/02/2020 02:50:42	120220	12022020	025042	150.90	13.596853	-56.945898	151.10	-0.090	1.490	1.440	151.02	0.10	2.00	 	 	 	 	 	 	 	 	 	 	 	 	 	 	 	 	 	 	1581475842	6.66	12.33
12/02/2020 02:50:43	120220	12022020	025043	151.44	13.596820	-56.945873	151.60	0.060	0.490	0.920	151.53	-0.80	1.50	 	 	 	 	 	 	 	 	 	 	 	 	 	 	 	 	 	 	1581475843	7.88	14.59
12/02/2020 02:50:44	120220	12022020	025044	151.93	13.596787	-56.945852	152.14	0.250	-0.290	0.790	152.05	-1.70	1.30	 	 	 	 	 	 	 	 	 	 	 	 	 	 	 	 	 	 	1581475844	8.86	16.41
12/02/2020 02:50:45	120220	12022020	025045	152.65	13.596757	-56.945835	152.89	0.080	-0.210	0.820	152.80	-1.60	1.30	 	 	 	 	 	 	 	 	 	 	 	 	 	 	 	 	 	 	1581475845	8.66	16.04
12/02/2020 02:50:46	120220	12022020	025046	153.45	13.596728	-56.945822	153.67	-0.370	0.230	1.020	153.58	-1.20	1.50	 	 	 	 	 	 	 	 	 	 	 	 	 	 	 	 	 	 	1581475846	7.49	13.87
12/02/2020 02:50:47	120220	12022020	025047	153.99	13.596697	-56.945808	154.19	-0.580	0.020	1.450	154.05	-1.30	1.90	 	 	 	 	 	 	 	 	 	 	 	 	 	 	 	 	 	 	1581475847	6.65	12.32
12/02/2020 02:50:48	120220	12022020	025048	154.14	13.596660	-56.945793	154.31	-0.140	-1.140	1.960	154.13	-2.40	2.40	 	 	 	 	 	 	 	 	 	 	 	 	 	 	 	 	 	 	1581475848	7.13	13.20
12/02/2020 02:50:49	120220	12022020	025049	154.01	13.596622	-56.945777	154.17	0.700	-2.410	2.390	153.98	-3.70	2.90	 	 	 	 	 	 	 	 	 	 	 	 	 	 	 	 	 	 	1581475849	8.40	15.56
12/02/2020 02:50:50	120220	12022020	025050	154.04	13.596585	-56.945758	154.26	1.090	-2.270	2.550	154.11	-3.70	3.10	 	 	 	 	 	 	 	 	 	 	 	 	 	 	 	 	 	 	1581475850	9.29	17.21
12/02/2020 02:50:51	120220	12022020	025051	154.66	13.596558	-56.945745	154.98	0.570	-0.320	2.220	154.87	-1.80	2.80	 	 	 	 	 	 	 	 	 	 	 	 	 	 	 	 	 	 	1581475851	8.57	15.87
12/02/2020 02:50:52	120220	12022020	025052	155.81	13.596537	-56.945730	156.14	-0.430	1.940	1.480	156.05	0.40	2.00	 	 	 	 	 	 	 	 	 	 	 	 	 	 	 	 	 	 	1581475852	6.61	12.24
12/02/2020 02:50:53	120220	12022020	025053	156.81	13.596508	-56.945712	157.06	-1.090	2.350	0.940	156.95	1.00	1.50	 	 	 	 	 	 	 	 	 	 	 	 	 	 	 	 	 	 	1581475853	5.60	10.37
12/02/2020 02:50:54	120220	12022020	025054	157.30	13.596470	-56.945695	157.47	-1.020	0.760	1.010	157.34	-0.50	1.50	 	 	 	 	 	 	 	 	 	 	 	 	 	 	 	 	 	 	1581475854	6.92	12.82
12/02/2020 02:50:55	120220	12022020	025055	157.39	13.596427	-56.945682	157.54	-0.340	-1.280	1.460	157.40	-2.60	2.00	 	 	 	 	 	 	 	 	 	 	 	 	 	 	 	 	 	 	1581475855	8.97	16.61
12/02/2020 02:50:56	120220	12022020	025056	157.51	13.596388	-56.945667	157.70	0.420	-1.870	1.750	157.56	-3.30	2.30	 	 	 	 	 	 	 	 	 	 	 	 	 	 	 	 	 	 	1581475856	9.86	18.26
12/02/2020 02:50:57	120220	12022020	025057	157.85	13.596358	-56.945653	158.07	0.680	-0.970	1.710	157.93	-2.40	2.20	 	 	 	 	 	 	 	 	 	 	 	 	 	 	 	 	 	 	1581475857	8.75	16.21
12/02/2020 02:50:58	120220	12022020	025058	158.31	13.596332	-56.945642	158.53	0.370	0.250	1.570	158.41	-1.20	2.10	 	 	 	 	 	 	 	 	 	 	 	 	 	 	 	 	 	 	1581475858	7.02	13.00
12/02/2020 02:50:59	120220	12022020	025059	158.77	13.596302	-56.945630	158.97	-0.090	0.860	1.490	158.85	-0.60	2.00	 	 	 	 	 	 	 	 	 	 	 	 	 	 	 	 	 	 	1581475859	6.44	11.93
12/02/2020 02:51:00	120220	12022020	025100	159.09	13.596268	-56.945617	159.29	-0.210	0.600	1.480	159.15	-0.80	2.00	 	 	 	 	 	 	 	 	 	 	 	 	 	 	 	 	 	 	1581475860	6.88	12.74
12/02/2020 02:51:01	120220	12022020	025101	159.36	13.596232	-56.945602	159.54	0.070	-0.230	1.510	159.40	-1.60	2.00	1016.90	26.10	26.10	21.20	21.30	-1.0	74.0	74.0	429.0	25.7	295.00	14.00	66.00	12.90	16	9512.0	27.2	27.1	1581475861	7.73	14.32
12/02/2020 02:51:02	120220	12022020	025102	159.52	13.596193	-56.945588	159.69	0.460	-1.010	1.680	159.53	-2.40	2.20	 	 	 	 	 	 	 	 	 	 	 	 	 	 	 	 	 	 	1581475862	8.42	15.59
12/02/2020 02:51:03	120220	12022020	025103	159.65	13.596158	-56.945575	159.85	0.640	-1.100	1.740	159.71	-2.50	2.30	 	 	 	 	 	 	 	 	 	 	 	 	 	 	 	 	 	 	1581475863	8.57	15.87
12/02/2020 02:51:04	120220	12022020	025104	160.06	13.596128	-56.945562	160.29	0.480	-0.440	1.520	160.17	-1.90	2.10	 	 	 	 	 	 	 	 	 	 	 	 	 	 	 	 	 	 	1581475864	8.08	14.96
12/02/2020 02:51:05	120220	12022020	025105	160.73	13.596098	-56.945547	161.01	0.030	0.260	1.270	160.90	-1.20	1.80	 	 	 	 	 	 	 	 	 	 	 	 	 	 	 	 	 	 	1581475865	7.28	13.48
12/02/2020 02:51:06	120220	12022020	025106	161.54	13.596065	-56.945535	161.83	-0.500	0.350	1.400	161.54	-1.00	1.90	 	 	 	 	 	 	 	 	 	 	 	 	 	 	 	 	 	 	1581475866	7.03	13.02
12/02/2020 02:51:07	120220	12022020	025107	162.05	13.596028	-56.945528	162.26	-0.790	-0.270	1.940	162.10	-1.60	2.40	 	 	 	 	 	 	 	 	 	 	 	 	 	 	 	 	 	 	1581475867	7.42	13.74
12/02/2020 02:51:08	120220	12022020	025108	162.10	13.595988	-56.945522	162.25	-0.590	-1.060	2.700	162.07	-2.40	3.20	 	 	 	 	 	 	 	 	 	 	 	 	 	 	 	 	 	 	1581475868	8.23	15.24
12/02/2020 02:51:09	120220	12022020	025109	161.86	13.595947	-56.945513	162.02	0.000	-1.410	3.340	161.82	-2.80	3.80	 	 	 	 	 	 	 	 	 	 	 	 	 	 	 	 	 	 	1581475869	8.80	16.30
12/02/2020 02:51:10	120220	12022020	025110	161.75	13.595912	-56.945503	161.94	0.560	-0.920	3.330	161.76	-2.40	3.90	 	 	 	 	 	 	 	 	 	 	 	 	 	 	 	 	 	 	1581475870	8.77	16.24
12/02/2020 02:51:11	120220	12022020	025111	162.07	13.595880	-56.945487	162.32	0.630	0.170	2.600	162.19	-1.30	3.20	 	 	 	 	 	 	 	 	 	 	 	 	 	 	 	 	 	 	1581475871	8.13	15.06
12/02/2020 02:51:12	120220	12022020	025112	162.83	13.595850	-56.945470	163.12	0.190	1.110	1.590	163.03	-0.30	2.20	 	 	 	 	 	 	 	 	 	 	 	 	 	 	 	 	 	 	1581475872	7.47	13.83
12/02/2020 02:51:13	120220	12022020	025113	163.77	13.595818	-56.945453	164.02	-0.350	1.240	0.870	163.94	-0.20	1.40	 	 	 	 	 	 	 	 	 	 	 	 	 	 	 	 	 	 	1581475873	7.32	13.56
12/02/2020 02:51:14	120220	12022020	025114	164.49	13.595782	-56.945442	164.70	-0.550	0.470	0.790	164.60	-0.90	1.30	 	 	 	 	 	 	 	 	 	 	 	 	 	 	 	 	 	 	1581475874	7.65	14.17
12/02/2020 02:51:15	120220	12022020	025115	164.98	13.595742	-56.945432	165.18	-0.340	-0.680	1.250	165.07	-2.00	1.70	 	 	 	 	 	 	 	 	 	 	 	 	 	 	 	 	 	 	1581475875	8.36	15.48
12/02/2020 02:51:16	120220	12022020	025116	165.50	13.595702	-56.945427	165.73	-0.040	-1.260	1.710	165.63	-2.70	2.20	 	 	 	 	 	 	 	 	 	 	 	 	 	 	 	 	 	 	1581475876	8.87	16.43
12/02/2020 02:51:17	120220	12022020	025117	166.19	13.595668	-56.945422	166.44	0.030	-0.720	1.830	166.33	-2.20	2.30	 	 	 	 	 	 	 	 	 	 	 	 	 	 	 	 	 	 	1581475877	8.57	15.87
12/02/2020 02:51:18	120220	12022020	025118	166.88	13.595638	-56.945413	167.11	-0.060	0.180	1.480	167.01	-1.30	2.00	 	 	 	 	 	 	 	 	 	 	 	 	 	 	 	 	 	 	1581475878	7.31	13.54
12/02/2020 02:51:19	120220	12022020	025119	167.41	13.595607	-56.945402	167.58	0.030	0.340	0.940	167.48	-1.10	1.50	 	 	 	 	 	 	 	 	 	 	 	 	 	 	 	 	 	 	1581475879	6.58	12.19
12/02/2020 02:51:20	120220	12022020	025120	167.60	13.595570	-56.945388	167.71	0.450	-0.470	0.640	167.60	-1.80	1.20	 	 	 	 	 	 	 	 	 	 	 	 	 	 	 	 	 	 	1581475880	7.29	13.50
12/02/2020 02:51:21	120220	12022020	025121	167.54	13.595528	-56.945373	167.64	0.910	-1.430	0.540	167.55	-2.80	1.10	 	 	 	 	 	 	 	 	 	 	 	 	 	 	 	 	 	 	1581475881	8.56	15.85
12/02/2020 02:51:22	120220	12022020	025122	167.72	13.595490	-56.945362	167.90	0.870	-1.480	0.650	167.81	-2.90	1.20	 	 	 	 	 	 	 	 	 	 	 	 	 	 	 	 	 	 	1581475882	9.25	17.13
12/02/2020 02:51:23	120220	12022020	025123	168.33	13.595457	-56.945355	168.55	0.170	-0.410	1.090	168.49	-1.90	1.60	 	 	 	 	 	 	 	 	 	 	 	 	 	 	 	 	 	 	1581475883	8.68	16.08
12/02/2020 02:51:24	120220	12022020	025124	169.03	13.595423	-56.945355	169.23	-0.720	0.810	1.760	169.14	-0.70	2.20	 	 	 	 	 	 	 	 	 	 	 	 	 	 	 	 	 	 	1581475884	7.42	13.74
12/02/2020 02:51:25	120220	12022020	025125	169.44	13.595388	-56.945353	169.63	-1.100	1.120	2.370	169.51	-0.30	2.80	 	 	 	 	 	 	 	 	 	 	 	 	 	 	 	 	 	 	1581475885	6.96	12.89
12/02/2020 02:51:26	120220	12022020	025126	169.93	13.595348	-56.945348	170.20	-0.920	0.640	2.490	170.09	-0.70	3.00	 	 	 	 	 	 	 	 	 	 	 	 	 	 	 	 	 	 	1581475886	7.73	14.32
12/02/2020 02:51:27	120220	12022020	025127	170.79	13.595308	-56.945343	171.08	-0.620	-0.050	2.150	170.98	-1.40	2.70	 	 	 	 	 	 	 	 	 	 	 	 	 	 	 	 	 	 	1581475887	8.55	15.83
12/02/2020 02:51:28	120220	12022020	025128	171.50	13.595270	-56.945338	171.71	-0.350	-0.760	1.750	171.58	-2.10	2.30	 	 	 	 	 	 	 	 	 	 	 	 	 	 	 	 	 	 	1581475888	8.59	15.91
12/02/2020 02:51:29	120220	12022020	025129	171.71	13.595230	-56.945333	171.87	0.060	-1.120	1.340	171.73	-2.50	1.90	 	 	 	 	 	 	 	 	 	 	 	 	 	 	 	 	 	 	1581475889	8.55	15.83
12/02/2020 02:51:30	120220	12022020	025130	171.93	13.595197	-56.945323	172.11	0.570	-0.500	0.530	172.00	-2.00	1.10	 	 	 	 	 	 	 	 	 	 	 	 	 	 	 	 	 	 	1581475890	8.46	15.67
12/02/2020 02:51:31	120220	12022020	025131	172.35	13.595165	-56.945310	172.53	0.870	0.370	-0.120	172.44	-1.10	0.40	 	 	 	 	 	 	 	 	 	 	 	 	 	 	 	 	 	 	1581475891	7.66	14.19
12/02/2020 02:51:32	120220	12022020	025132	172.79	13.595130	-56.945300	172.96	0.850	0.410	-0.240	172.87	-1.00	0.30	 	 	 	 	 	 	 	 	 	 	 	 	 	 	 	 	 	 	1581475892	7.20	13.33
12/02/2020 02:51:33	120220	12022020	025133	173.10	13.595092	-56.945292	173.23	0.630	-0.240	0.150	173.13	-1.60	0.60	 	 	 	 	 	 	 	 	 	 	 	 	 	 	 	 	 	 	1581475893	7.76	14.37
12/02/2020 02:51:34	120220	12022020	025134	173.17	13.595052	-56.945288	173.31	0.310	-0.790	1.060	173.17	-2.20	1.50	 	 	 	 	 	 	 	 	 	 	 	 	 	 	 	 	 	 	1581475894	8.54	15.82
12/02/2020 02:51:35	120220	12022020	025135	173.18	13.595013	-56.945288	173.34	-0.090	-0.860	2.040	173.19	-2.30	2.50	 	 	 	 	 	 	 	 	 	 	 	 	 	 	 	 	 	 	1581475895	8.63	15.98
12/02/2020 02:51:36	120220	12022020	025136	173.29	13.594975	-56.945292	173.50	-0.560	-0.600	2.720	173.34	-2.00	3.20	 	 	 	 	 	 	 	 	 	 	 	 	 	 	 	 	 	 	1581475896	8.30	15.37
12/02/2020 02:51:37	120220	12022020	025137	173.71	13.594938	-56.945295	173.99	-1.030	-0.240	3.010	173.84	-1.70	3.50	 	 	 	 	 	 	 	 	 	 	 	 	 	 	 	 	 	 	1581475897	8.10	15.00
12/02/2020 02:51:38	120220	12022020	025138	174.41	13.594902	-56.945298	174.70	-1.200	0.080	2.840	174.56	-1.40	3.30	 	 	 	 	 	 	 	 	 	 	 	 	 	 	 	 	 	 	1581475898	8.03	14.87
12/02/2020 02:51:39	120220	12022020	025139	175.04	13.594863	-56.945297	175.26	-0.760	-0.010	2.160	175.13	-1.40	2.70	 	 	 	 	 	 	 	 	 	 	 	 	 	 	 	 	 	 	1581475899	7.92	14.67
12/02/2020 02:51:40	120220	12022020	025140	175.45	13.594823	-56.945290	175.63	0.220	-0.450	1.230	175.51	-1.90	1.80	 	 	 	 	 	 	 	 	 	 	 	 	 	 	 	 	 	 	1581475900	8.18	15.15
12/02/2020 02:51:41	120220	12022020	025141	175.78	13.594783	-56.945280	175.97	1.150	-0.690	0.540	175.86	-2.10	1.10	 	 	 	 	 	 	 	 	 	 	 	 	 	 	 	 	 	 	1581475901	8.79	16.28
12/02/2020 02:51:42	120220	12022020	025142	176.17	13.594745	-56.945268	176.38	1.310	-0.300	0.230	176.27	-1.80	0.70	 	 	 	 	 	 	 	 	 	 	 	 	 	 	 	 	 	 	1581475902	8.92	16.52
12/02/2020 02:51:43	120220	12022020	025143	176.77	13.594712	-56.945260	177.02	0.540	0.440	0.100	176.92	-1.00	0.60	 	 	 	 	 	 	 	 	 	 	 	 	 	 	 	 	 	 	1581475903	8.34	15.45
12/02/2020 02:51:44	120220	12022020	025144	177.58	13.594675	-56.945258	177.83	-0.520	0.760	0.300	177.58	-0.70	0.80	 	 	 	 	 	 	 	 	 	 	 	 	 	 	 	 	 	 	1581475904	7.61	14.09
12/02/2020 02:51:45	120220	12022020	025145	178.29	13.594637	-56.945263	178.51	-0.970	0.330	0.850	178.41	-1.10	1.30	 	 	 	 	 	 	 	 	 	 	 	 	 	 	 	 	 	 	1581475905	7.59	14.06
12/02/2020 02:51:46	120220	12022020	025146	178.83	13.594597	-56.945268	179.02	-0.560	-0.350	1.400	178.91	-1.80	1.90	 	 	 	 	 	 	 	 	 	 	 	 	 	 	 	 	 	 	1581475906	8.42	15.59
12/02/2020 02:51:47	120220	12022020	025147	179.14	13.594557	-56.945270	179.30	0.200	-0.780	1.710	179.17	-2.20	2.20	 	 	 	 	 	 	 	 	 	 	 	 	 	 	 	 	 	 	1581475907	8.79	16.28
12/02/2020 02:51:48	120220	12022020	025148	179.25	13.594518	-56.945268	179.40	0.630	-0.870	1.630	179.28	-2.30	2.10	 	 	 	 	 	 	 	 	 	 	 	 	 	 	 	 	 	 	1581475908	8.54	15.82
12/02/2020 02:51:49	120220	12022020	025149	179.51	13.594482	-56.945265	179.69	0.430	-0.640	1.290	179.60	-2.10	1.80	 	 	 	 	 	 	 	 	 	 	 	 	 	 	 	 	 	 	1581475909	8.27	15.32
12/02/2020 02:51:50	120220	12022020	025150	179.97	13.594445	-56.945265	180.14	-0.120	-0.390	1.170	180.05	-1.80	1.70	 	 	 	 	 	 	 	 	 	 	 	 	 	 	 	 	 	 	1581475910	7.97	14.76
12/02/2020 02:51:51	120220	12022020	025151	180.20	13.594407	-56.945268	180.31	-0.400	-0.490	1.230	180.20	-1.90	1.70	 	 	 	 	 	 	 	 	 	 	 	 	 	 	 	 	 	 	1581475911	7.85	14.54
12/02/2020 02:51:52	120220	12022020	025152	180.16	13.594365	-56.945270	180.29	-0.070	-0.660	1.300	180.18	-2.10	1.80	 	 	 	 	 	 	 	 	 	 	 	 	 	 	 	 	 	 	1581475912	8.35	15.46
12/02/2020 02:51:53	120220	12022020	025153	180.53	13.594325	-56.945270	180.78	0.400	-0.210	1.020	180.70	-1.70	1.50	 	 	 	 	 	 	 	 	 	 	 	 	 	 	 	 	 	 	1581475913	8.85	16.39
12/02/2020 02:51:54	120220	12022020	025154	181.60	13.594290	-56.945267	181.93	0.430	0.540	0.450	181.85	-0.90	1.00	 	 	 	 	 	 	 	 	 	 	 	 	 	 	 	 	 	 	1581475914	8.42	15.59
12/02/2020 02:51:55	120220	12022020	025155	182.71	13.594252	-56.945263	182.98	0.020	0.570	0.200	182.87	-0.90	0.70	 	 	 	 	 	 	 	 	 	 	 	 	 	 	 	 	 	 	1581475915	7.73	14.32
12/02/2020 02:51:56	120220	12022020	025156	183.30	13.594210	-56.945267	183.51	-0.370	-0.280	0.680	183.30	-1.70	1.10	 	 	 	 	 	 	 	 	 	 	 	 	 	 	 	 	 	 	1581475916	8.06	14.93
12/02/2020 02:51:57	120220	12022020	025157	183.58	13.594168	-56.945273	183.79	-0.450	-0.840	1.310	183.62	-2.30	1.80	 	 	 	 	 	 	 	 	 	 	 	 	 	 	 	 	 	 	1581475917	9.04	16.74
12/02/2020 02:51:58	120220	12022020	025158	183.73	13.594130	-56.945277	183.92	-0.330	-0.730	1.690	183.76	-2.20	2.20	 	 	 	 	 	 	 	 	 	 	 	 	 	 	 	 	 	 	1581475918	9.04	16.74
12/02/2020 02:51:59	120220	12022020	025159	183.99	13.594093	-56.945282	184.22	-0.310	-0.250	1.740	184.07	-1.70	2.20	 	 	 	 	 	 	 	 	 	 	 	 	 	 	 	 	 	 	1581475919	8.37	15.50
12/02/2020 02:52:00	120220	12022020	025200	184.45	13.594057	-56.945285	184.67	-0.380	0.130	1.640	184.53	-1.30	2.10	 	 	 	 	 	 	 	 	 	 	 	 	 	 	 	 	 	 	1581475920	7.97	14.76
12/02/2020 02:52:01	120220	12022020	025201	184.83	13.594018	-56.945290	185.01	-0.190	0.030	1.350	184.87	-1.40	1.80	1017.10	26.00	26.10	21.20	21.20	-1.0	74.0	74.0	431.0	25.7	273.00	11.30	64.00	12.00	16	8335.0	27.2	27.2	1581475921	7.88	14.59
12/02/2020 02:52:02	120220	12022020	025202	184.93	13.593977	-56.945292	185.09	0.460	-0.410	0.930	184.94	-1.80	1.40	 	 	 	 	 	 	 	 	 	 	 	 	 	 	 	 	 	 	1581475922	8.32	15.41
12/02/2020 02:52:03	120220	12022020	025203	185.01	13.593937	-56.945290	185.20	0.990	-0.540	0.710	185.06	-2.00	1.20	 	 	 	 	 	 	 	 	 	 	 	 	 	 	 	 	 	 	1581475923	8.92	16.52
12/02/2020 02:52:04	120220	12022020	025204	185.41	13.593898	-56.945290	185.66	0.850	-0.220	0.620	185.53	-1.70	1.10	 	 	 	 	 	 	 	 	 	 	 	 	 	 	 	 	 	 	1581475924	8.82	16.33
12/02/2020 02:52:05	120220	12022020	025205	186.08	13.593862	-56.945295	186.37	0.060	0.240	0.740	186.24	-1.20	1.20	 	 	 	 	 	 	 	 	 	 	 	 	 	 	 	 	 	 	1581475925	8.25	15.28
12/02/2020 02:52:06	120220	12022020	025206	186.86	13.593825	-56.945305	187.16	-0.740	0.420	1.180	187.02	-1.00	1.60	 	 	 	 	 	 	 	 	 	 	 	 	 	 	 	 	 	 	1581475926	7.85	14.54
12/02/2020 02:52:07	120220	12022020	025207	187.66	13.593787	-56.945317	187.96	-0.880	0.130	1.440	187.81	-1.30	1.90	 	 	 	 	 	 	 	 	 	 	 	 	 	 	 	 	 	 	1581475927	8.01	14.83
12/02/2020 02:52:08	120220	12022020	025208	188.38	13.593747	-56.945323	188.67	-0.190	-0.380	1.230	188.50	-1.80	1.70	 	 	 	 	 	 	 	 	 	 	 	 	 	 	 	 	 	 	1581475928	8.49	15.72
12/02/2020 02:52:09	120220	12022020	025209	188.94	13.593707	-56.945327	189.18	0.730	-0.890	0.860	189.02	-2.30	1.30	 	 	 	 	 	 	 	 	 	 	 	 	 	 	 	 	 	 	1581475929	8.72	16.15
12/02/2020 02:52:10	120220	12022020	025210	189.27	13.593665	-56.945327	189.48	1.060	-1.260	0.710	189.32	-2.70	1.20	 	 	 	 	 	 	 	 	 	 	 	 	 	 	 	 	 	 	1581475930	8.89	16.46
12/02/2020 02:52:11	120220	12022020	025211	189.52	13.593625	-56.945332	189.73	0.480	-1.080	0.800	189.56	-2.60	1.30	 	 	 	 	 	 	 	 	 	 	 	 	 	 	 	 	 	 	1581475931	9.01	16.69
12/02/2020 02:52:12	120220	12022020	025212	189.82	13.593588	-56.945340	190.06	-0.560	-0.290	1.020	189.89	-1.80	1.50	 	 	 	 	 	 	 	 	 	 	 	 	 	 	 	 	 	 	1581475932	8.61	15.95
12/02/2020 02:52:13	120220	12022020	025213	190.28	13.593553	-56.945350	190.56	-1.240	0.700	0.970	190.41	-0.80	1.50	 	 	 	 	 	 	 	 	 	 	 	 	 	 	 	 	 	 	1581475933	8.00	14.82
12/02/2020 02:52:14	120220	12022020	025214	191.00	13.593517	-56.945357	191.29	-1.070	1.190	0.420	191.16	-0.30	0.90	 	 	 	 	 	 	 	 	 	 	 	 	 	 	 	 	 	 	1581475934	7.73	14.32
12/02/2020 02:52:15	120220	12022020	025215	191.71	13.593475	-56.945362	191.97	-0.240	0.410	-0.020	191.83	-1.00	0.50	 	 	 	 	 	 	 	 	 	 	 	 	 	 	 	 	 	 	1581475935	7.93	14.69
12/02/2020 02:52:16	120220	12022020	025216	192.09	13.593430	-56.945372	192.29	0.640	-1.180	0.220	192.11	-2.50	0.70	 	 	 	 	 	 	 	 	 	 	 	 	 	 	 	 	 	 	1581475936	9.09	16.83
12/02/2020 02:52:17	120220	12022020	025217	192.04	13.593385	-56.945382	192.20	0.960	-2.090	0.880	191.99	-3.50	1.30	 	 	 	 	 	 	 	 	 	 	 	 	 	 	 	 	 	 	1581475937	10.13	18.76
12/02/2020 02:52:18	120220	12022020	025218	191.81	13.593347	-56.945392	191.98	0.520	-1.360	1.570	191.78	-2.90	2.00	 	 	 	 	 	 	 	 	 	 	 	 	 	 	 	 	 	 	1581475938	9.90	18.33
12/02/2020 02:52:19	120220	12022020	025219	191.77	13.593315	-56.945403	191.98	-0.360	0.390	1.830	191.80	-1.10	2.30	 	 	 	 	 	 	 	 	 	 	 	 	 	 	 	 	 	 	1581475939	8.45	15.65
12/02/2020 02:52:20	120220	12022020	025220	191.98	13.593282	-56.945415	192.20	-0.990	1.660	1.600	192.04	0.20	2.10	 	 	 	 	 	 	 	 	 	 	 	 	 	 	 	 	 	 	1581475940	7.23	13.39
12/02/2020 02:52:21	120220	12022020	025221	192.37	13.593245	-56.945427	192.62	-0.880	1.650	1.070	192.48	0.20	1.50	 	 	 	 	 	 	 	 	 	 	 	 	 	 	 	 	 	 	1581475941	7.38	13.67
12/02/2020 02:52:22	120220	12022020	025222	192.99	13.593203	-56.945437	193.27	-0.120	0.770	0.330	193.14	-0.60	0.80	 	 	 	 	 	 	 	 	 	 	 	 	 	 	 	 	 	 	1581475942	8.48	15.70
12/02/2020 02:52:23	120220	12022020	025223	193.72	13.593160	-56.945445	193.99	0.760	-0.140	-0.310	193.86	-1.60	0.20	 	 	 	 	 	 	 	 	 	 	 	 	 	 	 	 	 	 	1581475943	9.26	17.15
12/02/2020 02:52:24	120220	12022020	025224	194.42	13.593122	-56.945452	194.67	1.210	-0.690	-0.620	194.54	-2.10	-0.20	 	 	 	 	 	 	 	 	 	 	 	 	 	 	 	 	 	 	1581475944	9.18	17.00
12/02/2020 02:52:25	120220	12022020	025225	194.96	13.593083	-56.945458	195.18	1.030	-1.050	-0.380	195.04	-2.50	0.00	 	 	 	 	 	 	 	 	 	 	 	 	 	 	 	 	 	 	1581475945	8.61	15.95
12/02/2020 02:52:26	120220	12022020	025226	195.12	13.593047	-56.945468	195.25	0.500	-1.560	0.480	195.07	-3.00	0.90	 	 	 	 	 	 	 	 	 	 	 	 	 	 	 	 	 	 	1581475946	8.20	15.19
12/02/2020 02:52:27	120220	12022020	025227	194.64	13.593007	-56.945485	194.74	-0.000	-2.200	1.790	194.49	-3.60	2.20	 	 	 	 	 	 	 	 	 	 	 	 	 	 	 	 	 	 	1581475947	8.41	15.58
12/02/2020 02:52:28	120220	12022020	025228	193.86	13.592967	-56.945503	193.98	-0.510	-2.140	3.120	193.71	-3.60	3.50	 	 	 	 	 	 	 	 	 	 	 	 	 	 	 	 	 	 	1581475948	9.17	16.98
12/02/2020 02:52:29	120220	12022020	025229	193.20	13.592932	-56.945523	193.37	-0.990	-1.190	3.950	193.09	-2.70	4.40	 	 	 	 	 	 	 	 	 	 	 	 	 	 	 	 	 	 	1581475949	9.26	17.15
12/02/2020 02:52:30	120220	12022020	025230	192.79	13.592895	-56.945542	193.00	-1.210	0.130	4.000	192.75	-1.40	4.40	 	 	 	 	 	 	 	 	 	 	 	 	 	 	 	 	 	 	1581475950	8.83	16.35
12/02/2020 02:52:31	120220	12022020	025231	192.72	13.592858	-56.945555	192.98	-0.910	1.220	3.430	192.77	-0.30	3.90	 	 	 	 	 	 	 	 	 	 	 	 	 	 	 	 	 	 	1581475951	8.54	15.82
12/02/2020 02:52:32	120220	12022020	025232	193.09	13.592817	-56.945563	193.36	-0.230	1.660	2.380	193.19	0.20	2.90	 	 	 	 	 	 	 	 	 	 	 	 	 	 	 	 	 	 	1581475952	8.57	15.87
12/02/2020 02:52:33	120220	12022020	025233	193.60	13.592775	-56.945570	193.85	0.420	1.380	1.410	193.68	-0.10	1.90	 	 	 	 	 	 	 	 	 	 	 	 	 	 	 	 	 	 	1581475953	8.91	16.50
12/02/2020 02:52:34	120220	12022020	025234	194.00	13.592732	-56.945577	194.24	0.760	0.750	0.860	194.09	-0.70	1.30	 	 	 	 	 	 	 	 	 	 	 	 	 	 	 	 	 	 	1581475954	9.32	17.26
12/02/2020 02:52:35	120220	12022020	025235	194.43	13.592692	-56.945587	194.68	0.740	0.300	0.840	194.54	-1.10	1.30	 	 	 	 	 	 	 	 	 	 	 	 	 	 	 	 	 	 	1581475955	9.30	17.22
12/02/2020 02:52:36	120220	12022020	025236	194.95	13.592657	-56.945597	195.19	0.600	0.050	1.010	195.03	-1.40	1.50	 	 	 	 	 	 	 	 	 	 	 	 	 	 	 	 	 	 	1581475956	8.68	16.08
12/02/2020 02:52:37	120220	12022020	025237	195.30	13.592620	-56.945607	195.50	0.570	-0.480	1.150	195.33	-1.90	1.60	 	 	 	 	 	 	 	 	 	 	 	 	 	 	 	 	 	 	1581475957	8.01	14.83
12/02/2020 02:52:38	120220	12022020	025238	195.38	13.592582	-56.945618	195.56	0.620	-1.400	1.360	195.37	-2.80	1.80	 	 	 	 	 	 	 	 	 	 	 	 	 	 	 	 	 	 	1581475958	8.07	14.95
12/02/2020 02:52:39	120220	12022020	025239	195.24	13.592542	-56.945633	195.41	0.500	-2.160	1.700	195.20	-3.60	2.10	 	 	 	 	 	 	 	 	 	 	 	 	 	 	 	 	 	 	1581475959	8.67	16.06
12/02/2020 02:52:40	120220	12022020	025240	195.00	13.592505	-56.945647	195.16	0.050	-2.180	2.100	194.95	-3.60	2.50	 	 	 	 	 	 	 	 	 	 	 	 	 	 	 	 	 	 	1581475960	8.99	16.65
12/02/2020 02:52:41	120220	12022020	025241	194.79	13.592468	-56.945663	194.96	-0.510	-1.560	2.440	194.76	-3.10	2.80	 	 	 	 	 	 	 	 	 	 	 	 	 	 	 	 	 	 	1581475961	8.74	16.19
12/02/2020 02:52:42	120220	12022020	025242	194.66	13.592430	-56.945678	194.83	-0.850	-0.750	2.400	194.64	-2.30	2.80	 	 	 	 	 	 	 	 	 	 	 	 	 	 	 	 	 	 	1581475962	8.54	15.82
12/02/2020 02:52:43	120220	12022020	025243	194.58	13.592390	-56.945692	194.76	-0.790	-0.000	1.970	194.57	-1.50	2.40	 	 	 	 	 	 	 	 	 	 	 	 	 	 	 	 	 	 	1581475963	8.68	16.08
12/02/2020 02:52:44	120220	12022020	025244	194.62	13.592350	-56.945702	194.82	-0.500	0.660	1.330	194.65	-0.80	1.80	 	 	 	 	 	 	 	 	 	 	 	 	 	 	 	 	 	 	1581475964	9.00	16.67
12/02/2020 02:52:45	120220	12022020	025245	194.81	13.592308	-56.945710	195.01	-0.190	1.120	0.700	194.85	-0.30	1.20	 	 	 	 	 	 	 	 	 	 	 	 	 	 	 	 	 	 	1581475965	9.14	16.93
12/02/2020 02:52:46	120220	12022020	025246	195.04	13.592265	-56.945718	195.24	-0.010	1.090	0.280	195.04	-0.40	0.70	 	 	 	 	 	 	 	 	 	 	 	 	 	 	 	 	 	 	1581475966	9.13	16.91
12/02/2020 02:52:47	120220	12022020	025247	195.21	13.592223	-56.945732	195.37	0.020	0.760	0.390	195.22	-0.70	0.80	 	 	 	 	 	 	 	 	 	 	 	 	 	 	 	 	 	 	1581475967	9.31	17.24
12/02/2020 02:52:48	120220	12022020	025248	195.23	13.592185	-56.945745	195.39	0.030	0.540	0.750	195.23	-0.90	1.20	 	 	 	 	 	 	 	 	 	 	 	 	 	 	 	 	 	 	1581475968	9.30	17.22
12/02/2020 02:52:49	120220	12022020	025249	195.22	13.592148	-56.945760	195.39	0.150	0.500	1.010	195.22	-1.00	1.40	 	 	 	 	 	 	 	 	 	 	 	 	 	 	 	 	 	 	1581475969	8.90	16.48
12/02/2020 02:52:50	120220	12022020	025250	195.16	13.592112	-56.945773	195.32	0.390	0.080	1.210	195.13	-1.30	1.60	 	 	 	 	 	 	 	 	 	 	 	 	 	 	 	 	 	 	1581475970	8.31	15.39
12/02/2020 02:52:51	120220	12022020	025251	194.97	13.592073	-56.945788	195.11	0.610	-0.840	1.520	194.92	-2.20	1.90	 	 	 	 	 	 	 	 	 	 	 	 	 	 	 	 	 	 	1581475971	8.39	15.54
12/02/2020 02:52:52	120220	12022020	025252	194.76	13.592033	-56.945803	194.92	0.610	-1.580	1.720	194.73	-3.00	2.10	 	 	 	 	 	 	 	 	 	 	 	 	 	 	 	 	 	 	1581475972	8.94	16.56
12/02/2020 02:52:53	120220	12022020	025253	194.65	13.591997	-56.945817	194.81	0.400	-1.590	1.620	194.62	-3.10	2.00	 	 	 	 	 	 	 	 	 	 	 	 	 	 	 	 	 	 	1581475973	9.04	16.74
12/02/2020 02:52:54	120220	12022020	025254	194.46	13.591960	-56.945827	194.57	0.180	-1.290	1.360	194.38	-2.80	1.80	 	 	 	 	 	 	 	 	 	 	 	 	 	 	 	 	 	 	1581475974	8.46	15.67
12/02/2020 02:52:55	120220	12022020	025255	194.03	13.591920	-56.945838	194.11	0.090	-1.210	1.270	193.92	-2.70	1.70	 	 	 	 	 	 	 	 	 	 	 	 	 	 	 	 	 	 	1581475975	8.28	15.33
12/02/2020 02:52:56	120220	12022020	025256	193.49	13.591878	-56.945850	193.59	-0.060	-1.030	1.610	193.37	-2.50	2.00	 	 	 	 	 	 	 	 	 	 	 	 	 	 	 	 	 	 	1581475976	8.92	16.52
12/02/2020 02:52:57	120220	12022020	025257	192.93	13.591837	-56.945865	193.06	-0.360	-0.560	2.200	192.84	-2.00	2.60	 	 	 	 	 	 	 	 	 	 	 	 	 	 	 	 	 	 	1581475977	9.31	17.24
12/02/2020 02:52:58	120220	12022020	025258	192.60	13.591797	-56.945880	192.79	-0.700	0.120	2.700	192.56	-1.30	3.10	 	 	 	 	 	 	 	 	 	 	 	 	 	 	 	 	 	 	1581475978	9.29	17.21
12/02/2020 02:52:59	120220	12022020	025259	192.51	13.591758	-56.945897	192.74	-0.820	0.730	3.100	192.53	-0.70	3.50	 	 	 	 	 	 	 	 	 	 	 	 	 	 	 	 	 	 	1581475979	9.19	17.02
12/02/2020 02:53:00	120220	12022020	025300	192.65	13.591718	-56.945912	192.91	-0.590	1.090	3.120	192.70	-0.40	3.50	 	 	 	 	 	 	 	 	 	 	 	 	 	 	 	 	 	 	1581475980	9.16	16.96
12/02/2020 02:53:01	120220	12022020	025301	193.01	13.591677	-56.945923	193.31	-0.190	1.120	2.690	193.11	-0.30	3.10	1017.20	26.10	26.20	21.50	21.50	-1.0	75.0	75.0	425.0	25.7	260.00	10.10	71.00	11.80	16	8676.0	27.2	27.2	1581475981	9.13	16.91
12/02/2020 02:53:02	120220	12022020	025302	193.56	13.591637	-56.945933	193.86	0.110	0.710	2.120	193.66	-0.70	2.60	 	 	 	 	 	 	 	 	 	 	 	 	 	 	 	 	 	 	1581475982	9.03	16.72
12/02/2020 02:53:03	120220	12022020	025303	194.10	13.591597	-56.945943	194.38	0.260	0.070	1.700	194.20	-1.30	2.10	 	 	 	 	 	 	 	 	 	 	 	 	 	 	 	 	 	 	1581475983	9.05	16.76
12/02/2020 02:53:04	120220	12022020	025304	194.52	13.591557	-56.945953	194.78	0.370	-0.400	1.370	194.59	-1.80	1.80	 	 	 	 	 	 	 	 	 	 	 	 	 	 	 	 	 	 	1581475984	8.97	16.61
12/02/2020 02:53:05	120220	12022020	025305	194.78	13.591520	-56.945963	194.99	0.440	-0.590	1.170	194.80	-2.00	1.60	 	 	 	 	 	 	 	 	 	 	 	 	 	 	 	 	 	 	1581475985	8.60	15.93
12/02/2020 02:53:06	120220	12022020	025306	194.74	13.591483	-56.945973	194.91	0.460	-0.820	1.200	194.71	-2.20	1.60	 	 	 	 	 	 	 	 	 	 	 	 	 	 	 	 	 	 	1581475986	8.18	15.15
12/02/2020 02:53:07	120220	12022020	025307	194.50	13.591445	-56.945983	194.64	0.430	-1.180	1.320	194.43	-2.60	1.80	 	 	 	 	 	 	 	 	 	 	 	 	 	 	 	 	 	 	1581475987	8.22	15.22
12/02/2020 02:53:08	120220	12022020	025308	194.18	13.591405	-56.945997	194.31	0.310	-1.370	1.520	194.12	-2.80	1.90	 	 	 	 	 	 	 	 	 	 	 	 	 	 	 	 	 	 	1581475988	8.65	16.02
12/02/2020 02:53:09	120220	12022020	025309	193.91	13.591367	-56.946010	194.06	0.100	-1.230	1.870	193.85	-2.70	2.30	 	 	 	 	 	 	 	 	 	 	 	 	 	 	 	 	 	 	1581475989	8.85	16.39
12/02/2020 02:53:10	120220	12022020	025310	193.58	13.591328	-56.946025	193.74	-0.100	-0.820	2.340	193.51	-2.20	2.70	 	 	 	 	 	 	 	 	 	 	 	 	 	 	 	 	 	 	1581475990	8.84	16.37
12/02/2020 02:53:11	120220	12022020	025311	193.27	13.591290	-56.946040	193.47	-0.210	-0.260	2.560	193.23	-1.70	3.00	 	 	 	 	 	 	 	 	 	 	 	 	 	 	 	 	 	 	1581475991	8.86	16.41
12/02/2020 02:53:12	120220	12022020	025312	193.25	13.591250	-56.946052	193.53	-0.320	0.390	2.230	193.31	-1.00	2.70	 	 	 	 	 	 	 	 	 	 	 	 	 	 	 	 	 	 	1581475992	8.89	16.46
12/02/2020 02:53:13	120220	12022020	025313	193.81	13.591212	-56.946062	194.15	-0.550	0.990	1.510	193.96	-0.40	2.00	 	 	 	 	 	 	 	 	 	 	 	 	 	 	 	 	 	 	1581475993	8.76	16.22
12/02/2020 02:53:14	120220	12022020	025314	194.67	13.591173	-56.946072	194.99	-0.780	1.050	0.890	194.82	-0.30	1.30	 	 	 	 	 	 	 	 	 	 	 	 	 	 	 	 	 	 	1581475994	8.46	15.67
12/02/2020 02:53:15	120220	12022020	025315	195.27	13.591133	-56.946085	195.52	-0.700	0.300	0.700	195.32	-1.00	1.10	 	 	 	 	 	 	 	 	 	 	 	 	 	 	 	 	 	 	1581475995	8.50	15.74
12/02/2020 02:53:16	120220	12022020	025316	195.34	13.591092	-56.946098	195.50	-0.190	-0.790	0.910	195.28	-2.10	1.30	 	 	 	 	 	 	 	 	 	 	 	 	 	 	 	 	 	 	1581475996	9.09	16.83
12/02/2020 02:53:17	120220	12022020	025317	194.94	13.591050	-56.946113	195.07	0.410	-1.440	1.420	194.83	-2.80	1.80	 	 	 	 	 	 	 	 	 	 	 	 	 	 	 	 	 	 	1581475997	9.54	17.67
12/02/2020 02:53:18	120220	12022020	025318	194.35	13.591012	-56.946125	194.46	0.630	-1.160	2.010	194.23	-2.60	2.40	 	 	 	 	 	 	 	 	 	 	 	 	 	 	 	 	 	 	1581475998	9.37	17.35
12/02/2020 02:53:19	120220	12022020	025319	193.78	13.590977	-56.946138	193.92	0.270	-0.280	2.380	193.69	-1.70	2.80	 	 	 	 	 	 	 	 	 	 	 	 	 	 	 	 	 	 	1581475999	8.62	15.96
12/02/2020 02:53:20	120220	12022020	025320	193.39	13.590942	-56.946150	193.56	-0.320	0.530	2.400	193.33	-0.90	2.80	 	 	 	 	 	 	 	 	 	 	 	 	 	 	 	 	 	 	1581476000	8.00	14.82
12/02/2020 02:53:21	120220	12022020	025321	193.19	13.590905	-56.946163	193.40	-0.590	0.830	2.190	193.18	-0.60	2.60	 	 	 	 	 	 	 	 	 	 	 	 	 	 	 	 	 	 	1581476001	7.97	14.76
12/02/2020 02:53:22	120220	12022020	025322	193.26	13.590867	-56.946177	193.49	-0.270	0.600	1.570	193.30	-0.80	2.00	 	 	 	 	 	 	 	 	 	 	 	 	 	 	 	 	 	 	1581476002	8.37	15.50
12/02/2020 02:53:23	120220	12022020	025323	193.53	13.590825	-56.946185	193.76	0.360	0.060	0.780	193.58	-1.30	1.30	 	 	 	 	 	 	 	 	 	 	 	 	 	 	 	 	 	 	1581476003	8.74	16.19
12/02/2020 02:53:24	120220	12022020	025324	193.75	13.590785	-56.946193	193.96	0.770	-0.550	0.440	193.77	-1.90	0.90	 	 	 	 	 	 	 	 	 	 	 	 	 	 	 	 	 	 	1581476004	8.90	16.48
12/02/2020 02:53:25	120220	12022020	025325	193.75	13.590747	-56.946203	193.92	0.670	-1.030	0.710	193.72	-2.40	1.10	 	 	 	 	 	 	 	 	 	 	 	 	 	 	 	 	 	 	1581476005	8.86	16.41
12/02/2020 02:53:26	120220	12022020	025326	193.53	13.590710	-56.946218	193.68	0.210	-1.210	1.470	193.48	-2.60	1.90	 	 	 	 	 	 	 	 	 	 	 	 	 	 	 	 	 	 	1581476006	8.67	16.06
12/02/2020 02:53:27	120220	12022020	025327	193.28	13.590673	-56.946237	193.46	-0.250	-1.040	2.340	193.22	-2.40	2.70	 	 	 	 	 	 	 	 	 	 	 	 	 	 	 	 	 	 	1581476007	8.57	15.87
12/02/2020 02:53:28	120220	12022020	025328	192.88	13.590638	-56.946253	193.05	-0.450	-0.770	3.030	192.77	-2.20	3.40	 	 	 	 	 	 	 	 	 	 	 	 	 	 	 	 	 	 	1581476008	8.48	15.70
12/02/2020 02:53:29	120220	12022020	025329	192.25	13.590600	-56.946270	192.43	-0.320	-0.590	3.440	192.12	-2.00	3.80	 	 	 	 	 	 	 	 	 	 	 	 	 	 	 	 	 	 	1581476009	8.57	15.87
12/02/2020 02:53:30	120220	12022020	025330	191.77	13.590560	-56.946282	192.01	-0.150	-0.230	3.270	191.73	-1.70	3.70	 	 	 	 	 	 	 	 	 	 	 	 	 	 	 	 	 	 	1581476010	8.89	16.46
12/02/2020 02:53:31	120220	12022020	025331	191.69	13.590522	-56.946290	191.96	-0.170	0.380	2.580	191.70	-1.10	3.10	 	 	 	 	 	 	 	 	 	 	 	 	 	 	 	 	 	 	1581476011	8.86	16.41
12/02/2020 02:53:32	120220	12022020	025332	191.82	13.590483	-56.946297	192.08	-0.340	0.750	1.750	191.86	-0.70	2.20	 	 	 	 	 	 	 	 	 	 	 	 	 	 	 	 	 	 	1581476012	8.43	15.61
12/02/2020 02:53:33	120220	12022020	025333	191.95	13.590443	-56.946305	192.18	-0.400	0.570	1.270	191.97	-0.80	1.70	 	 	 	 	 	 	 	 	 	 	 	 	 	 	 	 	 	 	1581476013	8.37	15.50
12/02/2020 02:53:34	120220	12022020	025334	191.94	13.590403	-56.946315	192.15	-0.150	0.020	1.260	191.93	-1.40	1.70	 	 	 	 	 	 	 	 	 	 	 	 	 	 	 	 	 	 	1581476014	8.71	16.13
12/02/2020 02:53:35	120220	12022020	025335	191.95	13.590363	-56.946325	192.18	0.220	-0.360	1.390	191.97	-1.70	1.80	 	 	 	 	 	 	 	 	 	 	 	 	 	 	 	 	 	 	1581476015	9.04	16.74
12/02/2020 02:53:36	120220	12022020	025336	192.02	13.590327	-56.946337	192.24	0.430	-0.360	1.690	192.02	-1.80	2.10	 	 	 	 	 	 	 	 	 	 	 	 	 	 	 	 	 	 	1581476016	8.81	16.32
12/02/2020 02:53:37	120220	12022020	025337	191.87	13.590292	-56.946350	192.05	0.420	-0.320	2.160	191.81	-1.70	2.60	 	 	 	 	 	 	 	 	 	 	 	 	 	 	 	 	 	 	1581476017	8.23	15.24
12/02/2020 02:53:38	120220	12022020	025338	191.49	13.590255	-56.946362	191.68	0.260	-0.400	2.530	191.43	-1.80	2.90	 	 	 	 	 	 	 	 	 	 	 	 	 	 	 	 	 	 	1581476018	8.02	14.85
12/02/2020 02:53:39	120220	12022020	025339	191.15	13.590218	-56.946373	191.33	0.020	-0.510	2.680	191.08	-1.90	3.10	 	 	 	 	 	 	 	 	 	 	 	 	 	 	 	 	 	 	1581476019	8.23	15.24
12/02/2020 02:53:40	120220	12022020	025340	190.78	13.590182	-56.946387	190.97	-0.170	-0.630	2.780	190.71	-2.00	3.20	 	 	 	 	 	 	 	 	 	 	 	 	 	 	 	 	 	 	1581476020	8.34	15.45
12/02/2020 02:53:41	120220	12022020	025341	190.47	13.590143	-56.946400	190.65	-0.170	-0.680	2.770	190.41	-2.10	3.20	 	 	 	 	 	 	 	 	 	 	 	 	 	 	 	 	 	 	1581476021	8.46	15.67
12/02/2020 02:53:42	120220	12022020	025342	190.30	13.590105	-56.946412	190.53	-0.020	-0.560	2.560	190.31	-2.00	3.00	 	 	 	 	 	 	 	 	 	 	 	 	 	 	 	 	 	 	1581476022	8.58	15.89
12/02/2020 02:53:43	120220	12022020	025343	190.44	13.590068	-56.946420	190.71	0.090	-0.180	2.190	190.50	-1.60	2.60	 	 	 	 	 	 	 	 	 	 	 	 	 	 	 	 	 	 	1581476023	8.53	15.80
12/02/2020 02:53:44	120220	12022020	025344	190.75	13.590032	-56.946428	191.02	0.120	0.230	1.720	190.81	-1.20	2.20	 	 	 	 	 	 	 	 	 	 	 	 	 	 	 	 	 	 	1581476024	8.24	15.26
12/02/2020 02:53:45	120220	12022020	025345	191.02	13.589993	-56.946435	191.26	0.160	0.270	1.260	191.06	-1.10	1.70	 	 	 	 	 	 	 	 	 	 	 	 	 	 	 	 	 	 	1581476025	8.01	14.83
12/02/2020 02:53:46	120220	12022020	025346	191.14	13.589955	-56.946442	191.36	0.230	-0.080	1.060	191.14	-1.50	1.50	 	 	 	 	 	 	 	 	 	 	 	 	 	 	 	 	 	 	1581476026	8.21	15.20
12/02/2020 02:53:47	120220	12022020	025347	191.04	13.589915	-56.946450	191.24	0.110	-0.470	1.390	191.00	-1.80	1.80	 	 	 	 	 	 	 	 	 	 	 	 	 	 	 	 	 	 	1581476027	8.59	15.91
12/02/2020 02:53:48	120220	12022020	025348	190.87	13.589877	-56.946463	191.09	-0.270	-0.630	1.950	190.84	-2.00	2.40	 	 	 	 	 	 	 	 	 	 	 	 	 	 	 	 	 	 	1581476028	8.67	16.06
12/02/2020 02:53:49	120220	12022020	025349	190.65	13.589842	-56.946478	190.85	-0.620	-0.570	2.540	190.59	-2.00	3.00	 	 	 	 	 	 	 	 	 	 	 	 	 	 	 	 	 	 	1581476029	8.51	15.76
12/02/2020 02:53:50	120220	12022020	025350	190.30	13.589805	-56.946493	190.49	-0.570	-0.480	2.950	190.22	-1.90	3.40	 	 	 	 	 	 	 	 	 	 	 	 	 	 	 	 	 	 	1581476030	8.38	15.52
12/02/2020 02:53:51	120220	12022020	025351	189.95	13.589768	-56.946505	190.18	-0.170	-0.260	2.840	189.91	-1.70	3.30	 	 	 	 	 	 	 	 	 	 	 	 	 	 	 	 	 	 	1581476031	8.46	15.67
12/02/2020 02:53:52	120220	12022020	025352	189.76	13.589732	-56.946512	189.99	0.200	0.090	2.370	189.74	-1.30	2.80	 	 	 	 	 	 	 	 	 	 	 	 	 	 	 	 	 	 	1581476032	8.36	15.48
12/02/2020 02:53:53	120220	12022020	025353	189.67	13.589693	-56.946518	189.88	0.340	0.260	1.780	189.65	-1.10	2.30	 	 	 	 	 	 	 	 	 	 	 	 	 	 	 	 	 	 	1581476033	8.08	14.96
12/02/2020 02:53:54	120220	12022020	025354	189.66	13.589655	-56.946523	189.88	0.300	0.090	1.350	189.67	-1.30	1.80	 	 	 	 	 	 	 	 	 	 	 	 	 	 	 	 	 	 	1581476034	8.10	15.00
12/02/2020 02:53:55	120220	12022020	025355	189.75	13.589617	-56.946532	189.98	0.200	-0.190	1.350	189.76	-1.60	1.80	 	 	 	 	 	 	 	 	 	 	 	 	 	 	 	 	 	 	1581476035	8.38	15.52
12/02/2020 02:53:56	120220	12022020	025356	189.77	13.589578	-56.946542	189.99	0.100	-0.400	1.700	189.77	-1.80	2.10	 	 	 	 	 	 	 	 	 	 	 	 	 	 	 	 	 	 	1581476036	8.45	15.65
12/02/2020 02:53:57	120220	12022020	025357	189.75	13.589542	-56.946553	189.97	0.030	-0.460	2.040	189.75	-1.90	2.50	 	 	 	 	 	 	 	 	 	 	 	 	 	 	 	 	 	 	1581476037	8.39	15.54
12/02/2020 02:53:58	120220	12022020	025358	189.81	13.589507	-56.946565	190.04	-0.030	-0.320	2.200	189.83	-1.70	2.60	 	 	 	 	 	 	 	 	 	 	 	 	 	 	 	 	 	 	1581476038	8.28	15.33
12/02/2020 02:53:59	120220	12022020	025359	189.91	13.589472	-56.946575	190.14	-0.040	-0.230	2.120	189.92	-1.60	2.60	 	 	 	 	 	 	 	 	 	 	 	 	 	 	 	 	 	 	1581476039	8.02	14.85
12/02/2020 02:54:00	120220	12022020	025400	189.93	13.589433	-56.946583	190.15	0.060	-0.480	1.790	189.92	-1.90	2.30	 	 	 	 	 	 	 	 	 	 	 	 	 	 	 	 	 	 	1581476040	7.94	14.70
12/02/2020 02:54:01	120220	12022020	025401	189.83	13.589393	-56.946590	190.02	0.150	-0.840	1.560	189.80	-2.20	2.00	1017.20	25.90	26.00	20.50	20.80	-1.0	72.0	72.0	414.0	25.7	258.00	12.10	72.00	13.70	16	7894.0	27.2	27.2	1581476041	8.31	15.39
12/02/2020 02:54:02	120220	12022020	025402	189.57	13.589355	-56.946598	189.75	0.090	-0.850	1.590	189.50	-2.20	2.00	 	 	 	 	 	 	 	 	 	 	 	 	 	 	 	 	 	 	1581476042	8.63	15.98
12/02/2020 02:54:03	120220	12022020	025403	189.26	13.589318	-56.946607	189.47	-0.150	-0.440	1.720	189.24	-1.90	2.20	 	 	 	 	 	 	 	 	 	 	 	 	 	 	 	 	 	 	1581476043	8.47	15.69
12/02/2020 02:54:04	120220	12022020	025404	189.32	13.589282	-56.946617	189.58	-0.470	0.130	1.870	189.37	-1.30	2.30	 	 	 	 	 	 	 	 	 	 	 	 	 	 	 	 	 	 	1581476044	8.17	15.13
12/02/2020 02:54:05	120220	12022020	025405	189.64	13.589247	-56.946628	189.91	-0.600	0.430	2.140	189.71	-1.00	2.60	 	 	 	 	 	 	 	 	 	 	 	 	 	 	 	 	 	 	1581476045	7.95	14.72
12/02/2020 02:54:06	120220	12022020	025406	189.92	13.589208	-56.946640	190.18	-0.360	0.310	2.290	189.97	-1.10	2.70	 	 	 	 	 	 	 	 	 	 	 	 	 	 	 	 	 	 	1581476046	8.11	15.02
12/02/2020 02:54:07	120220	12022020	025407	190.14	13.589170	-56.946648	190.40	0.130	0.100	2.060	190.19	-1.30	2.50	 	 	 	 	 	 	 	 	 	 	 	 	 	 	 	 	 	 	1581476047	8.52	15.78
12/02/2020 02:54:08	120220	12022020	025408	190.32	13.589132	-56.946655	190.54	0.550	0.020	1.630	190.33	-1.40	2.10	 	 	 	 	 	 	 	 	 	 	 	 	 	 	 	 	 	 	1581476048	8.52	15.78
12/02/2020 02:54:09	120220	12022020	025409	190.31	13.589095	-56.946660	190.49	0.620	-0.150	1.420	190.27	-1.50	1.90	 	 	 	 	 	 	 	 	 	 	 	 	 	 	 	 	 	 	1581476049	8.18	15.15
12/02/2020 02:54:10	120220	12022020	025410	190.01	13.589057	-56.946667	190.15	0.340	-0.550	1.570	189.92	-1.90	2.00	 	 	 	 	 	 	 	 	 	 	 	 	 	 	 	 	 	 	1581476050	8.06	14.93
12/02/2020 02:54:11	120220	12022020	025411	189.50	13.589018	-56.946678	189.65	-0.050	-1.050	1.990	189.40	-2.40	2.40	 	 	 	 	 	 	 	 	 	 	 	 	 	 	 	 	 	 	1581476051	8.28	15.33
12/02/2020 02:54:12	120220	12022020	025412	189.08	13.588982	-56.946692	189.26	-0.410	-1.110	2.440	189.03	-2.50	2.90	 	 	 	 	 	 	 	 	 	 	 	 	 	 	 	 	 	 	1581476052	8.63	15.98
12/02/2020 02:54:13	120220	12022020	025413	188.96	13.588947	-56.946707	189.20	-0.640	-0.550	2.620	188.97	-2.00	3.10	 	 	 	 	 	 	 	 	 	 	 	 	 	 	 	 	 	 	1581476053	8.56	15.85
12/02/2020 02:54:14	120220	12022020	025414	189.10	13.588913	-56.946718	189.35	-0.590	0.180	2.270	189.10	-1.20	2.80	 	 	 	 	 	 	 	 	 	 	 	 	 	 	 	 	 	 	1581476054	8.02	14.85
12/02/2020 02:54:15	120220	12022020	025415	189.42	13.588877	-56.946725	189.69	-0.160	0.550	1.510	189.51	-0.90	2.00	 	 	 	 	 	 	 	 	 	 	 	 	 	 	 	 	 	 	1581476055	7.70	14.26
12/02/2020 02:54:16	120220	12022020	025416	189.93	13.588838	-56.946728	190.18	0.500	0.440	0.650	190.03	-0.90	1.10	 	 	 	 	 	 	 	 	 	 	 	 	 	 	 	 	 	 	1581476056	7.88	14.59
12/02/2020 02:54:17	120220	12022020	025417	190.43	13.588798	-56.946730	190.66	0.920	-0.020	0.220	190.49	-1.40	0.70	 	 	 	 	 	 	 	 	 	 	 	 	 	 	 	 	 	 	1581476057	8.33	15.43
12/02/2020 02:54:18	120220	12022020	025418	190.60	13.588758	-56.946735	190.80	0.800	-0.620	0.520	190.58	-2.00	0.90	 	 	 	 	 	 	 	 	 	 	 	 	 	 	 	 	 	 	1581476058	8.60	15.93
12/02/2020 02:54:19	120220	12022020	025419	190.30	13.588720	-56.946745	190.44	0.190	-1.030	1.560	190.19	-2.40	1.90	 	 	 	 	 	 	 	 	 	 	 	 	 	 	 	 	 	 	1581476059	8.61	15.95
12/02/2020 02:54:20	120220	12022020	025420	189.64	13.588685	-56.946762	189.78	-0.470	-0.990	2.880	189.50	-2.40	3.30	 	 	 	 	 	 	 	 	 	 	 	 	 	 	 	 	 	 	1581476060	8.49	15.72
12/02/2020 02:54:21	120220	12022020	025421	189.02	13.588650	-56.946778	189.22	-0.800	-0.500	3.750	188.93	-1.90	4.20	 	 	 	 	 	 	 	 	 	 	 	 	 	 	 	 	 	 	1581476061	8.45	15.65
12/02/2020 02:54:22	120220	12022020	025422	188.66	13.588615	-56.946792	188.88	-0.720	-0.020	3.920	188.61	-1.40	4.40	 	 	 	 	 	 	 	 	 	 	 	 	 	 	 	 	 	 	1581476062	8.15	15.09
12/02/2020 02:54:23	120220	12022020	025423	188.46	13.588578	-56.946803	188.68	-0.390	0.000	3.580	188.42	-1.40	4.00	 	 	 	 	 	 	 	 	 	 	 	 	 	 	 	 	 	 	1581476063	8.01	14.83
12/02/2020 02:54:24	120220	12022020	025424	188.35	13.588538	-56.946812	188.58	-0.050	-0.220	2.900	188.35	-1.60	3.40	 	 	 	 	 	 	 	 	 	 	 	 	 	 	 	 	 	 	1581476064	8.37	15.50
12/02/2020 02:54:25	120220	12022020	025425	188.53	13.588500	-56.946817	188.81	0.140	-0.070	1.910	188.62	-1.50	2.40	 	 	 	 	 	 	 	 	 	 	 	 	 	 	 	 	 	 	1581476065	8.66	16.04
12/02/2020 02:54:26	120220	12022020	025426	189.15	13.588465	-56.946818	189.45	0.150	0.440	0.760	189.15	-1.00	1.30	 	 	 	 	 	 	 	 	 	 	 	 	 	 	 	 	 	 	1581476066	8.27	15.32
12/02/2020 02:54:27	120220	12022020	025427	189.91	13.588430	-56.946822	190.16	0.140	0.450	0.050	190.02	-0.90	0.50	 	 	 	 	 	 	 	 	 	 	 	 	 	 	 	 	 	 	1581476067	7.52	13.93
12/02/2020 02:54:28	120220	12022020	025428	190.20	13.588392	-56.946828	190.36	0.340	-0.440	0.190	190.20	-1.80	0.60	 	 	 	 	 	 	 	 	 	 	 	 	 	 	 	 	 	 	1581476068	7.62	14.11
12/02/2020 02:54:29	120220	12022020	025429	189.87	13.588350	-56.946838	190.00	0.710	-1.430	0.880	189.77	-2.80	1.30	 	 	 	 	 	 	 	 	 	 	 	 	 	 	 	 	 	 	1581476069	8.54	15.82
12/02/2020 02:54:30	120220	12022020	025430	189.28	13.588312	-56.946847	189.42	0.820	-1.390	1.770	189.16	-2.80	2.20	 	 	 	 	 	 	 	 	 	 	 	 	 	 	 	 	 	 	1581476070	9.12	16.89
12/02/2020 02:54:31	120220	12022020	025431	188.85	13.588278	-56.946857	189.06	0.330	-0.310	2.560	188.81	-1.80	3.00	 	 	 	 	 	 	 	 	 	 	 	 	 	 	 	 	 	 	1581476071	8.48	15.70
12/02/2020 02:54:32	120220	12022020	025432	188.77	13.588247	-56.946867	189.03	-0.530	0.820	3.030	188.78	-0.60	3.50	 	 	 	 	 	 	 	 	 	 	 	 	 	 	 	 	 	 	1581476072	7.40	13.70
12/02/2020 02:54:33	120220	12022020	025433	188.85	13.588213	-56.946880	189.11	-1.120	1.070	3.220	188.87	-0.30	3.70	 	 	 	 	 	 	 	 	 	 	 	 	 	 	 	 	 	 	1581476073	7.08	13.11
12/02/2020 02:54:34	120220	12022020	025434	188.96	13.588175	-56.946893	189.22	-0.990	0.430	3.100	188.97	-0.90	3.60	 	 	 	 	 	 	 	 	 	 	 	 	 	 	 	 	 	 	1581476074	7.80	14.45
12/02/2020 02:54:35	120220	12022020	025435	188.92	13.588135	-56.946905	189.12	-0.210	-0.550	2.750	188.88	-1.90	3.20	 	 	 	 	 	 	 	 	 	 	 	 	 	 	 	 	 	 	1581476075	8.65	16.02
12/02/2020 02:54:36	120220	12022020	025436	188.71	13.588095	-56.946913	188.91	0.680	-1.210	2.070	188.69	-2.60	2.60	 	 	 	 	 	 	 	 	 	 	 	 	 	 	 	 	 	 	1581476076	8.98	16.63
12/02/2020 02:54:37	120220	12022020	025437	188.70	13.588058	-56.946915	188.93	1.010	-1.050	1.230	188.72	-2.50	1.70	 	 	 	 	 	 	 	 	 	 	 	 	 	 	 	 	 	 	1581476077	8.77	16.24
12/02/2020 02:54:38	120220	12022020	025438	188.91	13.588023	-56.946917	189.13	0.670	-0.430	0.550	188.96	-1.90	1.10	 	 	 	 	 	 	 	 	 	 	 	 	 	 	 	 	 	 	1581476078	7.97	14.76
12/02/2020 02:54:39	120220	12022020	025439	189.17	13.587988	-56.946920	189.40	0.120	-0.050	0.210	189.22	-1.40	0.70	 	 	 	 	 	 	 	 	 	 	 	 	 	 	 	 	 	 	1581476079	7.34	13.59
12/02/2020 02:54:40	120220	12022020	025440	189.36	13.587952	-56.946927	189.54	-0.210	-0.230	0.370	189.37	-1.60	0.80	 	 	 	 	 	 	 	 	 	 	 	 	 	 	 	 	 	 	1581476080	7.51	13.91
12/02/2020 02:54:41	120220	12022020	025441	189.28	13.587912	-56.946937	189.44	-0.240	-0.620	1.120	189.24	-2.00	1.50	 	 	 	 	 	 	 	 	 	 	 	 	 	 	 	 	 	 	1581476081	8.21	15.20
12/02/2020 02:54:42	120220	12022020	025442	189.02	13.587873	-56.946950	189.18	-0.250	-0.710	2.070	188.98	-2.10	2.50	 	 	 	 	 	 	 	 	 	 	 	 	 	 	 	 	 	 	1581476082	8.75	16.21
12/02/2020 02:54:43	120220	12022020	025443	188.91	13.587837	-56.946962	189.13	-0.420	-0.260	2.810	188.92	-1.70	3.20	 	 	 	 	 	 	 	 	 	 	 	 	 	 	 	 	 	 	1581476083	8.73	16.17
12/02/2020 02:54:44	120220	12022020	025444	188.97	13.587803	-56.946975	189.21	-0.630	0.390	3.220	188.99	-1.00	3.60	 	 	 	 	 	 	 	 	 	 	 	 	 	 	 	 	 	 	1581476084	8.25	15.28
12/02/2020 02:54:45	120220	12022020	025445	189.01	13.587768	-56.946987	189.23	-0.550	0.730	3.110	189.00	-0.70	3.60	 	 	 	 	 	 	 	 	 	 	 	 	 	 	 	 	 	 	1581476085	7.83	14.50
12/02/2020 02:54:46	120220	12022020	025446	188.91	13.587730	-56.946993	189.10	-0.140	0.520	2.660	188.87	-0.90	3.10	 	 	 	 	 	 	 	 	 	 	 	 	 	 	 	 	 	 	1581476086	7.82	14.48
12/02/2020 02:54:47	120220	12022020	025447	188.74	13.587692	-56.947000	188.91	0.330	0.100	2.170	188.71	-1.30	2.70	 	 	 	 	 	 	 	 	 	 	 	 	 	 	 	 	 	 	1581476087	8.22	15.22
12/02/2020 02:54:48	120220	12022020	025448	188.65	13.587655	-56.947005	188.83	0.580	-0.210	1.680	188.65	-1.60	2.20	 	 	 	 	 	 	 	 	 	 	 	 	 	 	 	 	 	 	1581476088	8.34	15.45
12/02/2020 02:54:49	120220	12022020	025449	188.68	13.587618	-56.947012	188.87	0.670	-0.390	1.220	188.71	-1.80	1.70	 	 	 	 	 	 	 	 	 	 	 	 	 	 	 	 	 	 	1581476089	8.09	14.98
12/02/2020 02:54:50	120220	12022020	025450	188.92	13.587583	-56.947015	189.15	0.740	-0.480	0.680	189.01	-1.90	1.20	 	 	 	 	 	 	 	 	 	 	 	 	 	 	 	 	 	 	1581476090	7.86	14.56
12/02/2020 02:54:51	120220	12022020	025451	189.41	13.587547	-56.947018	189.63	0.750	-0.510	0.360	189.51	-1.90	0.80	 	 	 	 	 	 	 	 	 	 	 	 	 	 	 	 	 	 	1581476091	7.75	14.35
12/02/2020 02:54:52	120220	12022020	025452	189.77	13.587512	-56.947027	189.95	0.490	-0.700	0.810	189.79	-2.10	1.20	 	 	 	 	 	 	 	 	 	 	 	 	 	 	 	 	 	 	1581476092	7.66	14.19
12/02/2020 02:54:53	120220	12022020	025453	189.64	13.587475	-56.947038	189.77	0.030	-1.180	1.710	189.56	-2.50	2.10	 	 	 	 	 	 	 	 	 	 	 	 	 	 	 	 	 	 	1581476093	7.80	14.45
12/02/2020 02:54:54	120220	12022020	025454	189.07	13.587437	-56.947053	189.21	-0.440	-1.540	2.790	188.94	-2.90	3.20	 	 	 	 	 	 	 	 	 	 	 	 	 	 	 	 	 	 	1581476094	8.37	15.50
12/02/2020 02:54:55	120220	12022020	025455	188.49	13.587400	-56.947070	188.69	-0.760	-1.200	3.700	188.41	-2.60	4.10	 	 	 	 	 	 	 	 	 	 	 	 	 	 	 	 	 	 	1581476095	8.86	16.41
12/02/2020 02:54:56	120220	12022020	025456	188.22	13.587365	-56.947083	188.46	-0.830	-0.150	3.820	188.22	-1.60	4.30	 	 	 	 	 	 	 	 	 	 	 	 	 	 	 	 	 	 	1581476096	8.68	16.08
12/02/2020 02:54:57	120220	12022020	025457	188.38	13.587332	-56.947092	188.66	-0.650	0.970	3.060	188.46	-0.50	3.60	 	 	 	 	 	 	 	 	 	 	 	 	 	 	 	 	 	 	1581476097	7.95	14.72
12/02/2020 02:54:58	120220	12022020	025458	188.82	13.587295	-56.947095	189.09	-0.320	1.430	1.910	188.91	0.00	2.40	 	 	 	 	 	 	 	 	 	 	 	 	 	 	 	 	 	 	1581476098	7.47	13.83
12/02/2020 02:54:59	120220	12022020	025459	189.14	13.587255	-56.947097	189.33	0.090	0.910	1.030	189.16	-0.40	1.50	 	 	 	 	 	 	 	 	 	 	 	 	 	 	 	 	 	 	1581476099	7.74	14.33
12/02/2020 02:55:00	120220	12022020	025500	189.05	13.587213	-56.947100	189.18	0.520	-0.200	0.730	188.98	-1.50	1.20	 	 	 	 	 	 	 	 	 	 	 	 	 	 	 	 	 	 	1581476100	8.46	15.67
12/02/2020 02:55:01	120220	12022020	025501	188.72	13.587173	-56.947105	188.88	0.760	-0.990	0.900	188.68	-2.30	1.40	1017.10	26.10	26.10	20.30	20.50	-1.0	70.0	71.0	409.0	25.7	257.00	12.10	68.00	13.70	16	9141.0	27.2	27.2	1581476101	9.03	16.72
12/02/2020 02:55:02	120220	12022020	025502	188.72	13.587138	-56.947113	188.99	0.560	-0.820	1.330	188.78	-2.20	1.80	 	 	 	 	 	 	 	 	 	 	 	 	 	 	 	 	 	 	1581476102	8.84	16.37
12/02/2020 02:55:03	120220	12022020	025503	189.17	13.587108	-56.947127	189.48	0.010	0.010	1.900	189.29	-1.40	2.30	 	 	 	 	 	 	 	 	 	 	 	 	 	 	 	 	 	 	1581476103	7.84	14.52
12/02/2020 02:55:04	120220	12022020	025504	189.71	13.587078	-56.947140	190.02	-0.470	0.530	2.340	189.79	-0.90	2.80	 	 	 	 	 	 	 	 	 	 	 	 	 	 	 	 	 	 	1581476104	6.98	12.93
12/02/2020 02:55:05	120220	12022020	025505	189.93	13.587043	-56.947153	190.17	-0.400	0.030	2.490	189.92	-1.30	2.90	 	 	 	 	 	 	 	 	 	 	 	 	 	 	 	 	 	 	1581476105	7.01	12.98
12/02/2020 02:55:06	120220	12022020	025506	189.68	13.587003	-56.947163	189.87	0.120	-1.010	2.590	189.58	-2.30	3.00	 	 	 	 	 	 	 	 	 	 	 	 	 	 	 	 	 	 	1581476106	7.88	14.59
12/02/2020 02:55:07	120220	12022020	025507	189.06	13.586963	-56.947172	189.22	0.650	-1.710	2.630	188.94	-3.10	3.10	 	 	 	 	 	 	 	 	 	 	 	 	 	 	 	 	 	 	1581476107	8.72	16.15
12/02/2020 02:55:08	120220	12022020	025508	188.60	13.586925	-56.947175	188.82	0.750	-1.430	2.170	188.57	-2.80	2.70	 	 	 	 	 	 	 	 	 	 	 	 	 	 	 	 	 	 	1581476108	8.87	16.43
12/02/2020 02:55:09	120220	12022020	025509	188.65	13.586890	-56.947178	188.91	0.330	-0.480	1.520	188.71	-1.90	2.00	 	 	 	 	 	 	 	 	 	 	 	 	 	 	 	 	 	 	1581476109	8.22	15.22
12/02/2020 02:55:10	120220	12022020	025510	189.02	13.586857	-56.947183	189.29	-0.230	0.420	1.090	189.11	-1.00	1.60	 	 	 	 	 	 	 	 	 	 	 	 	 	 	 	 	 	 	1581476110	7.52	13.93
12/02/2020 02:55:11	120220	12022020	025511	189.46	13.586820	-56.947192	189.73	-0.630	0.800	1.090	189.56	-0.60	1.60	 	 	 	 	 	 	 	 	 	 	 	 	 	 	 	 	 	 	1581476111	7.43	13.76
12/02/2020 02:55:12	120220	12022020	025512	189.94	13.586783	-56.947203	190.22	-0.840	0.650	1.470	190.03	-0.70	1.90	 	 	 	 	 	 	 	 	 	 	 	 	 	 	 	 	 	 	1581476112	7.86	14.56
12/02/2020 02:55:13	120220	12022020	025513	190.28	13.586747	-56.947220	190.54	-0.860	0.210	2.130	190.32	-1.10	2.60	 	 	 	 	 	 	 	 	 	 	 	 	 	 	 	 	 	 	1581476113	8.32	15.41
12/02/2020 02:55:14	120220	12022020	025514	190.30	13.586712	-56.947235	190.51	-0.570	-0.270	2.620	190.25	-1.60	3.10	 	 	 	 	 	 	 	 	 	 	 	 	 	 	 	 	 	 	1581476114	8.55	15.83
12/02/2020 02:55:15	120220	12022020	025515	189.89	13.586675	-56.947248	190.03	0.060	-0.630	2.860	189.76	-2.00	3.30	 	 	 	 	 	 	 	 	 	 	 	 	 	 	 	 	 	 	1581476115	8.47	15.69
12/02/2020 02:55:16	120220	12022020	025516	189.10	13.586638	-56.947255	189.19	0.770	-0.750	2.890	188.92	-2.10	3.40	 	 	 	 	 	 	 	 	 	 	 	 	 	 	 	 	 	 	1581476116	8.22	15.22
12/02/2020 02:55:17	120220	12022020	025517	188.32	13.586602	-56.947258	188.47	1.120	-0.530	2.660	188.22	-1.90	3.10	 	 	 	 	 	 	 	 	 	 	 	 	 	 	 	 	 	 	1581476117	8.08	14.96
12/02/2020 02:55:18	120220	12022020	025518	188.09	13.586567	-56.947262	188.32	0.860	-0.090	2.140	188.13	-1.50	2.60	 	 	 	 	 	 	 	 	 	 	 	 	 	 	 	 	 	 	1581476118	7.90	14.63
12/02/2020 02:55:19	120220	12022020	025519	188.54	13.586532	-56.947267	188.84	0.160	0.310	1.690	188.67	-1.10	2.20	 	 	 	 	 	 	 	 	 	 	 	 	 	 	 	 	 	 	1581476119	7.65	14.17
12/02/2020 02:55:20	120220	12022020	025520	189.26	13.586498	-56.947278	189.57	-0.570	0.370	1.730	189.40	-1.00	2.20	 	 	 	 	 	 	 	 	 	 	 	 	 	 	 	 	 	 	1581476120	7.44	13.78
12/02/2020 02:55:21	120220	12022020	025521	189.81	13.586463	-56.947293	190.07	-0.850	-0.040	2.000	189.87	-1.40	2.40	 	 	 	 	 	 	 	 	 	 	 	 	 	 	 	 	 	 	1581476121	7.59	14.06
12/02/2020 02:55:22	120220	12022020	025522	190.00	13.586427	-56.947305	190.22	-0.440	-0.720	2.090	190.01	-2.10	2.60	 	 	 	 	 	 	 	 	 	 	 	 	 	 	 	 	 	 	1581476122	8.09	14.98
12/02/2020 02:55:23	120220	12022020	025523	189.99	13.586388	-56.947313	190.18	0.250	-1.220	1.990	189.97	-2.60	2.50	 	 	 	 	 	 	 	 	 	 	 	 	 	 	 	 	 	 	1581476123	8.44	15.63
12/02/2020 02:55:24	120220	12022020	025524	189.79	13.586350	-56.947320	189.94	0.630	-1.270	1.940	189.71	-2.70	2.40	 	 	 	 	 	 	 	 	 	 	 	 	 	 	 	 	 	 	1581476124	8.40	15.56
12/02/2020 02:55:25	120220	12022020	025525	189.28	13.586313	-56.947325	189.40	0.470	-0.890	2.060	189.16	-2.30	2.50	 	 	 	 	 	 	 	 	 	 	 	 	 	 	 	 	 	 	1581476125	8.13	15.06
12/02/2020 02:55:26	120220	12022020	025526	188.76	13.586278	-56.947332	188.92	-0.070	-0.200	2.200	188.68	-1.60	2.70	 	 	 	 	 	 	 	 	 	 	 	 	 	 	 	 	 	 	1581476126	7.94	14.70
12/02/2020 02:55:27	120220	12022020	025527	188.51	13.586243	-56.947342	188.73	-0.630	0.550	2.320	188.50	-0.90	2.80	 	 	 	 	 	 	 	 	 	 	 	 	 	 	 	 	 	 	1581476127	7.78	14.41
12/02/2020 02:55:28	120220	12022020	025528	188.59	13.586210	-56.947353	188.85	-0.870	1.060	2.190	188.65	-0.30	2.70	 	 	 	 	 	 	 	 	 	 	 	 	 	 	 	 	 	 	1581476128	7.71	14.28
12/02/2020 02:55:29	120220	12022020	025529	188.94	13.586173	-56.947363	189.20	-0.680	1.070	1.760	189.02	-0.30	2.20	 	 	 	 	 	 	 	 	 	 	 	 	 	 	 	 	 	 	1581476129	7.76	14.37
12/02/2020 02:55:30	120220	12022020	025530	189.26	13.586137	-56.947372	189.48	-0.130	0.480	1.280	189.30	-0.90	1.80	 	 	 	 	 	 	 	 	 	 	 	 	 	 	 	 	 	 	1581476130	7.90	14.63
12/02/2020 02:55:31	120220	12022020	025531	189.31	13.586098	-56.947380	189.48	0.450	-0.400	1.110	189.28	-1.70	1.60	 	 	 	 	 	 	 	 	 	 	 	 	 	 	 	 	 	 	1581476131	8.23	15.24
12/02/2020 02:55:32	120220	12022020	025532	189.14	13.586060	-56.947387	189.31	0.740	-0.980	1.310	189.10	-2.30	1.80	 	 	 	 	 	 	 	 	 	 	 	 	 	 	 	 	 	 	1581476132	8.48	15.70
12/02/2020 02:55:33	120220	12022020	025533	189.03	13.586025	-56.947395	189.24	0.640	-1.000	1.510	189.03	-2.40	2.00	 	 	 	 	 	 	 	 	 	 	 	 	 	 	 	 	 	 	1581476133	8.24	15.26
12/02/2020 02:55:34	120220	12022020	025534	189.05	13.585992	-56.947402	189.27	0.370	-0.730	1.540	189.06	-2.10	2.00	 	 	 	 	 	 	 	 	 	 	 	 	 	 	 	 	 	 	1581476134	7.71	14.28
12/02/2020 02:55:35	120220	12022020	025535	189.11	13.585957	-56.947408	189.34	0.160	-0.540	1.450	189.13	-1.90	1.90	 	 	 	 	 	 	 	 	 	 	 	 	 	 	 	 	 	 	1581476135	7.42	13.74
12/02/2020 02:55:36	120220	12022020	025536	189.25	13.585920	-56.947415	189.47	-0.020	-0.490	1.400	189.27	-1.90	1.90	 	 	 	 	 	 	 	 	 	 	 	 	 	 	 	 	 	 	1581476136	7.65	14.17
12/02/2020 02:55:37	120220	12022020	025537	189.33	13.585883	-56.947423	189.52	-0.240	-0.510	1.640	189.31	-1.90	2.10	 	 	 	 	 	 	 	 	 	 	 	 	 	 	 	 	 	 	1581476137	7.91	14.65
12/02/2020 02:55:38	120220	12022020	025538	189.11	13.585847	-56.947433	189.27	-0.470	-0.600	2.190	189.03	-2.00	2.60	 	 	 	 	 	 	 	 	 	 	 	 	 	 	 	 	 	 	1581476138	8.08	14.96
12/02/2020 02:55:39	120220	12022020	025539	188.67	13.585810	-56.947447	188.85	-0.630	-0.520	2.850	188.58	-1.90	3.30	 	 	 	 	 	 	 	 	 	 	 	 	 	 	 	 	 	 	1581476139	8.36	15.48
12/02/2020 02:55:40	120220	12022020	025540	188.32	13.585773	-56.947460	188.53	-0.670	-0.010	3.200	188.29	-1.40	3.70	 	 	 	 	 	 	 	 	 	 	 	 	 	 	 	 	 	 	1581476140	8.46	15.67
12/02/2020 02:55:41	120220	12022020	025541	188.29	13.585738	-56.947468	188.54	-0.520	0.670	2.890	188.32	-0.70	3.40	 	 	 	 	 	 	 	 	 	 	 	 	 	 	 	 	 	 	1581476141	8.11	15.02
12/02/2020 02:55:42	120220	12022020	025542	188.52	13.585703	-56.947475	188.77	-0.160	0.930	2.160	188.58	-0.40	2.70	 	 	 	 	 	 	 	 	 	 	 	 	 	 	 	 	 	 	1581476142	7.65	14.17
12/02/2020 02:55:43	120220	12022020	025543	188.83	13.585667	-56.947480	189.07	0.380	0.630	1.360	188.88	-0.70	1.90	 	 	 	 	 	 	 	 	 	 	 	 	 	 	 	 	 	 	1581476143	7.72	14.30
12/02/2020 02:55:44	120220	12022020	025544	189.10	13.585628	-56.947482	189.32	0.880	-0.000	0.710	189.14	-1.30	1.20	 	 	 	 	 	 	 	 	 	 	 	 	 	 	 	 	 	 	1581476144	8.06	14.93
12/02/2020 02:55:45	120220	12022020	025545	189.19	13.585590	-56.947485	189.37	1.030	-0.690	0.630	189.16	-2.00	1.10	 	 	 	 	 	 	 	 	 	 	 	 	 	 	 	 	 	 	1581476145	8.25	15.28
12/02/2020 02:55:46	120220	12022020	025546	188.89	13.585553	-56.947493	189.03	0.760	-1.240	1.370	188.78	-2.60	1.80	 	 	 	 	 	 	 	 	 	 	 	 	 	 	 	 	 	 	1581476146	8.20	15.19
12/02/2020 02:55:47	120220	12022020	025547	188.26	13.585517	-56.947507	188.39	0.270	-1.400	2.450	188.13	-2.80	2.90	 	 	 	 	 	 	 	 	 	 	 	 	 	 	 	 	 	 	1581476147	8.15	15.09
12/02/2020 02:55:48	120220	12022020	025548	187.79	13.585485	-56.947520	187.99	-0.270	-0.670	3.230	187.76	-2.10	3.70	 	 	 	 	 	 	 	 	 	 	 	 	 	 	 	 	 	 	1581476148	8.21	15.20
12/02/2020 02:55:49	120220	12022020	025549	187.88	13.585453	-56.947530	188.19	-0.690	0.380	3.260	187.97	-1.00	3.70	 	 	 	 	 	 	 	 	 	 	 	 	 	 	 	 	 	 	1581476149	7.61	14.09
12/02/2020 02:55:50	120220	12022020	025550	188.39	13.585420	-56.947538	188.72	-0.790	0.630	2.660	188.52	-0.70	3.20	 	 	 	 	 	 	 	 	 	 	 	 	 	 	 	 	 	 	1581476150	6.96	12.89
12/02/2020 02:55:51	120220	12022020	025551	189.02	13.585382	-56.947545	189.34	-0.590	-0.090	1.930	189.14	-1.40	2.40	 	 	 	 	 	 	 	 	 	 	 	 	 	 	 	 	 	 	1581476151	7.47	13.83
12/02/2020 02:55:52	120220	12022020	025552	189.39	13.585340	-56.947553	189.63	-0.250	-1.100	1.580	189.39	-2.40	2.10	 	 	 	 	 	 	 	 	 	 	 	 	 	 	 	 	 	 	1581476152	8.47	15.69
12/02/2020 02:55:53	120220	12022020	025553	189.10	13.585300	-56.947562	189.22	0.090	-1.620	1.780	188.95	-3.00	2.20	 	 	 	 	 	 	 	 	 	 	 	 	 	 	 	 	 	 	1581476153	8.93	16.54
12/02/2020 02:55:54	120220	12022020	025554	188.22	13.585263	-56.947570	188.30	0.360	-1.250	2.320	188.22	-2.70	2.80	 	 	 	 	 	 	 	 	 	 	 	 	 	 	 	 	 	 	1581476154	8.73	16.17
12/02/2020 02:55:55	120220	12022020	025555	187.47	13.585228	-56.947577	187.64	0.440	-0.090	2.520	187.41	-1.50	3.00	 	 	 	 	 	 	 	 	 	 	 	 	 	 	 	 	 	 	1581476155	8.15	15.09
12/02/2020 02:55:56	120220	12022020	025556	187.58	13.585197	-56.947580	187.87	0.210	1.280	2.090	187.69	-0.20	2.60	 	 	 	 	 	 	 	 	 	 	 	 	 	 	 	 	 	 	1581476156	7.53	13.95
12/02/2020 02:55:57	120220	12022020	025557	188.27	13.585163	-56.947583	188.57	-0.160	1.790	1.680	188.41	0.40	2.20	 	 	 	 	 	 	 	 	 	 	 	 	 	 	 	 	 	 	1581476157	6.97	12.91
12/02/2020 02:55:58	120220	12022020	025558	188.87	13.585127	-56.947593	189.12	-0.320	1.130	1.730	188.94	-0.20	2.20	 	 	 	 	 	 	 	 	 	 	 	 	 	 	 	 	 	 	1581476158	7.27	13.46
12/02/2020 02:55:59	120220	12022020	025559	189.13	13.585087	-56.947603	189.35	-0.070	-0.010	1.930	189.14	-1.30	2.40	 	 	 	 	 	 	 	 	 	 	 	 	 	 	 	 	 	 	1581476159	8.18	15.15
12/02/2020 02:56:00	120220	12022020	025600	189.06	13.585050	-56.947612	189.24	0.380	-0.980	2.170	189.02	-2.30	2.60	 	 	 	 	 	 	 	 	 	 	 	 	 	 	 	 	 	 	1581476160	8.61	15.95
12/02/2020 02:56:01	120220	12022020	025601	188.75	13.585013	-56.947620	188.91	0.570	-1.550	2.470	188.66	-2.90	2.90	1017.20	26.20	26.20	20.50	20.60	-1.0	71.0	71.0	405.0	25.7	259.00	11.60	70.00	13.10	16	9391.0	27.2	27.2	1581476161	8.39	15.54
12/02/2020 02:56:02	120220	12022020	025602	188.25	13.584978	-56.947630	188.39	0.290	-1.700	2.850	188.13	-3.10	3.30	 	 	 	 	 	 	 	 	 	 	 	 	 	 	 	 	 	 	1581476162	8.02	14.85
12/02/2020 02:56:03	120220	12022020	025603	187.63	13.584943	-56.947642	187.80	-0.240	-1.410	3.220	187.53	-2.80	3.70	 	 	 	 	 	 	 	 	 	 	 	 	 	 	 	 	 	 	1581476163	7.88	14.59
12/02/2020 02:56:04	120220	12022020	025604	187.41	13.584910	-56.947655	187.67	-0.630	-0.550	3.070	187.43	-2.00	3.60	 	 	 	 	 	 	 	 	 	 	 	 	 	 	 	 	 	 	1581476164	7.92	14.67
12/02/2020 02:56:05	120220	12022020	025605	187.70	13.584877	-56.947662	187.99	-0.580	0.410	2.340	187.79	-1.00	2.90	 	 	 	 	 	 	 	 	 	 	 	 	 	 	 	 	 	 	1581476165	7.59	14.06
12/02/2020 02:56:06	120220	12022020	025606	188.15	13.584840	-56.947665	188.41	-0.070	0.690	1.320	188.23	-0.70	1.90	 	 	 	 	 	 	 	 	 	 	 	 	 	 	 	 	 	 	1581476166	7.25	13.43
12/02/2020 02:56:07	120220	12022020	025607	188.50	13.584800	-56.947665	188.73	0.560	0.270	0.510	188.56	-1.10	1.00	 	 	 	 	 	 	 	 	 	 	 	 	 	 	 	 	 	 	1581476167	7.80	14.45
12/02/2020 02:56:08	120220	12022020	025608	188.72	13.584760	-56.947667	188.94	0.780	-0.130	0.310	188.72	-1.50	0.80	 	 	 	 	 	 	 	 	 	 	 	 	 	 	 	 	 	 	1581476168	8.65	16.02
12/02/2020 02:56:09	120220	12022020	025609	188.90	13.584723	-56.947670	189.12	0.360	-0.140	0.540	188.94	-1.50	1.00	 	 	 	 	 	 	 	 	 	 	 	 	 	 	 	 	 	 	1581476169	8.64	16.00
12/02/2020 02:56:10	120220	12022020	025610	189.09	13.584688	-56.947682	189.32	-0.430	-0.020	1.170	189.12	-1.40	1.60	 	 	 	 	 	 	 	 	 	 	 	 	 	 	 	 	 	 	1581476170	7.99	14.80
12/02/2020 02:56:11	120220	12022020	025611	189.11	13.584655	-56.947697	189.31	-0.950	-0.190	2.090	189.07	-1.50	2.50	 	 	 	 	 	 	 	 	 	 	 	 	 	 	 	 	 	 	1581476171	7.63	14.13
12/02/2020 02:56:12	120220	12022020	025612	188.79	13.584618	-56.947712	188.96	-0.720	-0.720	2.830	188.70	-2.10	3.30	 	 	 	 	 	 	 	 	 	 	 	 	 	 	 	 	 	 	1581476172	8.05	14.91
12/02/2020 02:56:13	120220	12022020	025613	188.32	13.584580	-56.947723	188.49	-0.020	-1.110	2.970	188.24	-2.50	3.40	 	 	 	 	 	 	 	 	 	 	 	 	 	 	 	 	 	 	1581476173	8.57	15.87
12/02/2020 02:56:14	120220	12022020	025614	187.97	13.584543	-56.947730	188.18	0.380	-0.830	2.720	187.93	-2.20	3.20	 	 	 	 	 	 	 	 	 	 	 	 	 	 	 	 	 	 	1581476174	8.58	15.89
12/02/2020 02:56:15	120220	12022020	025615	187.98	13.584510	-56.947735	188.25	0.150	-0.020	2.150	188.04	-1.50	2.70	 	 	 	 	 	 	 	 	 	 	 	 	 	 	 	 	 	 	1581476175	8.01	14.83
12/02/2020 02:56:16	120220	12022020	025616	188.46	13.584477	-56.947740	188.76	-0.340	0.740	1.320	188.58	-0.70	1.90	 	 	 	 	 	 	 	 	 	 	 	 	 	 	 	 	 	 	1581476176	7.34	13.59
12/02/2020 02:56:17	120220	12022020	025617	189.06	13.584443	-56.947747	189.35	-0.370	0.910	0.660	189.16	-0.50	1.20	 	 	 	 	 	 	 	 	 	 	 	 	 	 	 	 	 	 	1581476177	7.07	13.09
12/02/2020 02:56:18	120220	12022020	025618	189.42	13.584405	-56.947752	189.64	0.340	0.330	0.400	189.45	-1.00	0.90	 	 	 	 	 	 	 	 	 	 	 	 	 	 	 	 	 	 	1581476178	7.43	13.76
12/02/2020 02:56:19	120220	12022020	025619	189.45	13.584365	-56.947757	189.63	1.190	-0.580	0.620	189.42	-1.90	1.10	 	 	 	 	 	 	 	 	 	 	 	 	 	 	 	 	 	 	1581476179	8.17	15.13
12/02/2020 02:56:20	120220	12022020	025620	189.28	13.584327	-56.947763	189.48	1.360	-1.140	1.220	189.25	-2.50	1.70	 	 	 	 	 	 	 	 	 	 	 	 	 	 	 	 	 	 	1581476180	8.65	16.02
12/02/2020 02:56:21	120220	12022020	025621	189.16	13.584292	-56.947773	189.40	0.600	-0.990	1.980	189.16	-2.40	2.40	 	 	 	 	 	 	 	 	 	 	 	 	 	 	 	 	 	 	1581476181	8.44	15.63
12/02/2020 02:56:22	120220	12022020	025622	189.15	13.584260	-56.947787	189.39	-0.560	-0.450	2.750	189.14	-1.90	3.20	 	 	 	 	 	 	 	 	 	 	 	 	 	 	 	 	 	 	1581476182	7.77	14.39
12/02/2020 02:56:23	120220	12022020	025623	189.10	13.584227	-56.947802	189.34	-1.300	-0.210	3.260	189.09	-1.60	3.70	 	 	 	 	 	 	 	 	 	 	 	 	 	 	 	 	 	 	1581476183	7.43	13.76
12/02/2020 02:56:24	120220	12022020	025624	189.05	13.584190	-56.947815	189.30	-1.210	-0.410	3.190	189.05	-1.80	3.70	 	 	 	 	 	 	 	 	 	 	 	 	 	 	 	 	 	 	1581476184	7.85	14.54
12/02/2020 02:56:25	120220	12022020	025625	189.09	13.584152	-56.947825	189.35	-0.570	-0.620	2.570	189.12	-2.00	3.10	 	 	 	 	 	 	 	 	 	 	 	 	 	 	 	 	 	 	1581476185	8.42	15.59
12/02/2020 02:56:26	120220	12022020	025626	189.24	13.584113	-56.947830	189.48	0.020	-0.450	1.750	189.26	-1.90	2.30	 	 	 	 	 	 	 	 	 	 	 	 	 	 	 	 	 	 	1581476186	8.57	15.87
12/02/2020 02:56:27	120220	12022020	025627	189.33	13.584077	-56.947835	189.58	0.260	0.040	1.130	189.36	-1.40	1.70	 	 	 	 	 	 	 	 	 	 	 	 	 	 	 	 	 	 	1581476187	8.21	15.20
12/02/2020 02:56:28	120220	12022020	025628	189.53	13.584043	-56.947837	189.79	0.210	0.650	0.600	189.59	-0.80	1.10	 	 	 	 	 	 	 	 	 	 	 	 	 	 	 	 	 	 	1581476188	7.80	14.45
12/02/2020 02:56:29	120220	12022020	025629	189.91	13.584008	-56.947840	190.18	0.130	0.960	0.220	189.99	-0.40	0.70	 	 	 	 	 	 	 	 	 	 	 	 	 	 	 	 	 	 	1581476189	7.49	13.87
12/02/2020 02:56:30	120220	12022020	025630	190.20	13.583972	-56.947847	190.44	0.270	0.520	0.310	190.20	-0.80	0.80	 	 	 	 	 	 	 	 	 	 	 	 	 	 	 	 	 	 	1581476190	7.41	13.72
12/02/2020 02:56:31	120220	12022020	025631	190.18	13.583933	-56.947855	190.38	0.610	-0.470	0.730	190.13	-1.80	1.20	 	 	 	 	 	 	 	 	 	 	 	 	 	 	 	 	 	 	1581476191	7.92	14.67
12/02/2020 02:56:32	120220	12022020	025632	189.76	13.583893	-56.947863	189.90	0.800	-1.340	1.510	189.63	-2.70	1.90	 	 	 	 	 	 	 	 	 	 	 	 	 	 	 	 	 	 	1581476192	8.54	15.82
12/02/2020 02:56:33	120220	12022020	025633	189.13	13.583857	-56.947875	189.31	0.470	-1.440	2.520	189.03	-2.80	2.90	 	 	 	 	 	 	 	 	 	 	 	 	 	 	 	 	 	 	1581476193	8.66	16.04
12/02/2020 02:56:34	120220	12022020	025634	188.67	13.583823	-56.947888	188.89	-0.320	-0.850	3.390	188.60	-2.30	3.80	 	 	 	 	 	 	 	 	 	 	 	 	 	 	 	 	 	 	1581476194	8.21	15.20
12/02/2020 02:56:35	120220	12022020	025635	188.32	13.583792	-56.947905	188.56	-1.030	-0.190	4.000	188.25	-1.60	4.50	 	 	 	 	 	 	 	 	 	 	 	 	 	 	 	 	 	 	1581476195	7.65	14.17
12/02/2020 02:56:36	120220	12022020	025636	187.99	13.583757	-56.947920	188.23	-1.120	0.030	4.050	187.93	-1.30	4.50	 	 	 	 	 	 	 	 	 	 	 	 	 	 	 	 	 	 	1581476196	7.72	14.30
12/02/2020 02:56:37	120220	12022020	025637	187.88	13.583718	-56.947932	188.18	-0.500	0.000	3.300	187.93	-1.40	3.80	 	 	 	 	 	 	 	 	 	 	 	 	 	 	 	 	 	 	1581476197	8.24	15.26
12/02/2020 02:56:38	120220	12022020	025638	188.45	13.583682	-56.947935	188.82	0.330	0.290	1.720	188.65	-1.10	2.30	 	 	 	 	 	 	 	 	 	 	 	 	 	 	 	 	 	 	1581476198	8.48	15.70
12/02/2020 02:56:39	120220	12022020	025639	189.60	13.583647	-56.947933	189.97	0.780	0.700	0.110	189.83	-0.70	0.70	 	 	 	 	 	 	 	 	 	 	 	 	 	 	 	 	 	 	1581476199	7.97	14.76
12/02/2020 02:56:40	120220	12022020	025640	190.59	13.583612	-56.947933	190.87	0.760	0.470	-0.640	190.70	-0.90	-0.10	 	 	 	 	 	 	 	 	 	 	 	 	 	 	 	 	 	 	1581476200	7.46	13.82
12/02/2020 02:56:41	120220	12022020	025641	190.82	13.583573	-56.947937	190.97	0.550	-0.480	-0.250	190.76	-1.80	0.20	 	 	 	 	 	 	 	 	 	 	 	 	 	 	 	 	 	 	1581476201	7.61	14.09
12/02/2020 02:56:42	120220	12022020	025642	190.28	13.583535	-56.947948	190.37	0.330	-1.480	0.960	190.12	-2.80	1.40	 	 	 	 	 	 	 	 	 	 	 	 	 	 	 	 	 	 	1581476202	8.20	15.19
12/02/2020 02:56:43	120220	12022020	025643	189.45	13.583498	-56.947962	189.55	0.130	-1.790	2.380	189.30	-3.20	2.80	 	 	 	 	 	 	 	 	 	 	 	 	 	 	 	 	 	 	1581476203	8.62	15.96
12/02/2020 02:56:44	120220	12022020	025644	188.87	13.583465	-56.947975	189.07	-0.140	-1.100	3.180	188.87	-2.50	3.60	 	 	 	 	 	 	 	 	 	 	 	 	 	 	 	 	 	 	1581476204	8.51	15.76
12/02/2020 02:56:45	120220	12022020	025645	188.88	13.583433	-56.947985	189.19	-0.520	0.090	3.040	188.97	-1.40	3.50	 	 	 	 	 	 	 	 	 	 	 	 	 	 	 	 	 	 	1581476205	7.79	14.43
12/02/2020 02:56:46	120220	12022020	025646	189.43	13.583400	-56.947993	189.75	-0.880	0.870	2.400	189.54	-0.50	2.90	 	 	 	 	 	 	 	 	 	 	 	 	 	 	 	 	 	 	1581476206	7.09	13.13
12/02/2020 02:56:47	120220	12022020	025647	189.91	13.583365	-56.948003	190.17	-0.880	0.720	1.840	189.95	-0.60	2.30	 	 	 	 	 	 	 	 	 	 	 	 	 	 	 	 	 	 	1581476207	7.19	13.32
12/02/2020 02:56:48	120220	12022020	025648	189.97	13.583325	-56.948013	190.15	-0.290	-0.090	1.530	189.94	-1.40	2.00	 	 	 	 	 	 	 	 	 	 	 	 	 	 	 	 	 	 	1581476208	7.99	14.80
12/02/2020 02:56:49	120220	12022020	025649	189.78	13.583287	-56.948022	189.96	0.490	-0.590	1.320	189.74	-2.00	1.80	 	 	 	 	 	 	 	 	 	 	 	 	 	 	 	 	 	 	1581476209	8.73	16.17
12/02/2020 02:56:50	120220	12022020	025650	189.62	13.583252	-56.948028	189.81	0.830	-0.280	1.150	189.61	-1.70	1.70	 	 	 	 	 	 	 	 	 	 	 	 	 	 	 	 	 	 	1581476210	8.55	15.83
12/02/2020 02:56:51	120220	12022020	025651	189.62	13.583220	-56.948032	189.85	0.570	0.310	0.990	189.63	-1.10	1.50	 	 	 	 	 	 	 	 	 	 	 	 	 	 	 	 	 	 	1581476211	7.58	14.04
12/02/2020 02:56:52	120220	12022020	025652	189.65	13.583187	-56.948040	189.87	0.110	0.300	1.020	189.65	-1.10	1.50	 	 	 	 	 	 	 	 	 	 	 	 	 	 	 	 	 	 	1581476212	6.94	12.85
12/02/2020 02:56:53	120220	12022020	025653	189.65	13.583148	-56.948050	189.89	-0.060	-0.310	1.230	189.67	-1.70	1.70	 	 	 	 	 	 	 	 	 	 	 	 	 	 	 	 	 	 	1581476213	7.39	13.69
12/02/2020 02:56:54	120220	12022020	025654	189.85	13.583112	-56.948060	190.13	0.090	-0.710	1.330	189.93	-2.10	1.80	 	 	 	 	 	 	 	 	 	 	 	 	 	 	 	 	 	 	1581476214	8.23	15.24
12/02/2020 02:56:55	120220	12022020	025655	190.35	13.583078	-56.948068	190.66	0.260	-0.530	1.280	190.48	-1.90	1.80	 	 	 	 	 	 	 	 	 	 	 	 	 	 	 	 	 	 	1581476215	8.24	15.26
12/02/2020 02:56:56	120220	12022020	025656	190.91	13.583045	-56.948077	191.18	0.210	-0.190	1.190	190.91	-1.60	1.70	 	 	 	 	 	 	 	 	 	 	 	 	 	 	 	 	 	 	1581476216	7.54	13.96
12/02/2020 02:56:57	120220	12022020	025657	191.08	13.583012	-56.948085	191.26	0.060	-0.310	1.350	191.04	-1.70	1.80	 	 	 	 	 	 	 	 	 	 	 	 	 	 	 	 	 	 	1581476217	7.12	13.19
12/02/2020 02:56:58	120220	12022020	025658	190.65	13.582975	-56.948095	190.78	-0.050	-0.880	1.950	190.65	-2.20	2.40	 	 	 	 	 	 	 	 	 	 	 	 	 	 	 	 	 	 	1581476218	7.51	13.91
12/02/2020 02:56:59	120220	12022020	025659	189.85	13.582937	-56.948108	189.97	-0.120	-1.300	2.850	189.69	-2.70	3.30	 	 	 	 	 	 	 	 	 	 	 	 	 	 	 	 	 	 	1581476219	8.28	15.33
12/02/2020 02:57:00	120220	12022020	025700	189.11	13.582900	-56.948123	189.28	-0.150	-0.970	3.540	189.02	-2.40	4.00	 	 	 	 	 	 	 	 	 	 	 	 	 	 	 	 	 	 	1581476220	8.64	16.00
12/02/2020 02:57:01	120220	12022020	025701	188.98	13.582868	-56.948133	189.26	-0.210	0.090	3.410	189.03	-1.40	3.90	1017.20	26.10	26.10	20.60	20.60	-1.0	71.0	71.0	400.0	25.7	256.00	11.50	68.00	13.10	16	9169.0	27.2	27.2	1581476221	8.27	15.32
12/02/2020 02:57:02	120220	12022020	025702	189.41	13.582835	-56.948140	189.70	-0.330	0.960	2.770	189.52	-0.50	3.30	 	 	 	 	 	 	 	 	 	 	 	 	 	 	 	 	 	 	1581476222	7.36	13.63
12/02/2020 02:57:03	120220	12022020	025703	189.94	13.582800	-56.948147	190.22	-0.420	0.970	2.130	190.04	-0.40	2.60	 	 	 	 	 	 	 	 	 	 	 	 	 	 	 	 	 	 	1581476223	7.09	13.13
12/02/2020 02:57:04	120220	12022020	025704	190.31	13.582763	-56.948153	190.54	-0.290	0.330	1.520	190.35	-1.00	2.00	 	 	 	 	 	 	 	 	 	 	 	 	 	 	 	 	 	 	1581476224	7.69	14.24
12/02/2020 02:57:05	120220	12022020	025705	190.42	13.582725	-56.948162	190.63	0.080	-0.280	1.080	190.42	-1.60	1.60	 	 	 	 	 	 	 	 	 	 	 	 	 	 	 	 	 	 	1581476225	8.26	15.30
12/02/2020 02:57:06	120220	12022020	025706	190.33	13.582690	-56.948168	190.53	0.480	-0.540	0.950	190.30	-1.90	1.50	 	 	 	 	 	 	 	 	 	 	 	 	 	 	 	 	 	 	1581476226	8.22	15.22
12/02/2020 02:57:07	120220	12022020	025707	190.15	13.582655	-56.948173	190.33	0.630	-0.510	1.030	190.11	-1.90	1.50	 	 	 	 	 	 	 	 	 	 	 	 	 	 	 	 	 	 	1581476227	7.80	14.45
12/02/2020 02:57:08	120220	12022020	025708	189.88	13.582622	-56.948182	190.04	0.460	-0.460	1.490	189.81	-1.90	2.00	 	 	 	 	 	 	 	 	 	 	 	 	 	 	 	 	 	 	1581476228	7.47	13.83
12/02/2020 02:57:09	120220	12022020	025709	189.56	13.582587	-56.948192	189.75	0.130	-0.590	2.180	189.51	-2.00	2.60	 	 	 	 	 	 	 	 	 	 	 	 	 	 	 	 	 	 	1581476229	7.44	13.78
12/02/2020 02:57:10	120220	12022020	025710	189.39	13.582552	-56.948207	189.62	-0.180	-0.640	2.790	189.38	-2.00	3.20	 	 	 	 	 	 	 	 	 	 	 	 	 	 	 	 	 	 	1581476230	7.84	14.52
12/02/2020 02:57:11	120220	12022020	025711	189.40	13.582518	-56.948220	189.64	-0.300	-0.390	2.960	189.42	-1.80	3.40	 	 	 	 	 	 	 	 	 	 	 	 	 	 	 	 	 	 	1581476231	8.02	14.85
12/02/2020 02:57:12	120220	12022020	025712	189.49	13.582485	-56.948228	189.71	-0.170	-0.120	2.600	189.51	-1.50	3.10	 	 	 	 	 	 	 	 	 	 	 	 	 	 	 	 	 	 	1581476232	7.72	14.30
12/02/2020 02:57:13	120220	12022020	025713	189.57	13.582448	-56.948235	189.78	0.090	-0.120	1.990	189.59	-1.50	2.50	 	 	 	 	 	 	 	 	 	 	 	 	 	 	 	 	 	 	1581476233	7.53	13.95
12/02/2020 02:57:14	120220	12022020	025714	189.74	13.582412	-56.948238	190.00	0.180	-0.180	1.350	189.81	-1.60	1.90	 	 	 	 	 	 	 	 	 	 	 	 	 	 	 	 	 	 	1581476234	7.81	14.46
12/02/2020 02:57:15	120220	12022020	025715	190.13	13.582377	-56.948243	190.38	-0.060	-0.090	0.940	190.20	-1.50	1.50	 	 	 	 	 	 	 	 	 	 	 	 	 	 	 	 	 	 	1581476235	7.98	14.78
12/02/2020 02:57:16	120220	12022020	025716	190.39	13.582342	-56.948252	190.60	-0.420	-0.110	1.060	190.40	-1.50	1.50	 	 	 	 	 	 	 	 	 	 	 	 	 	 	 	 	 	 	1581476236	7.67	14.20
12/02/2020 02:57:17	120220	12022020	025717	190.30	13.582307	-56.948263	190.47	-0.490	-0.460	1.430	190.24	-1.80	1.90	 	 	 	 	 	 	 	 	 	 	 	 	 	 	 	 	 	 	1581476237	7.63	14.13
12/02/2020 02:57:18	120220	12022020	025718	189.84	13.582268	-56.948275	189.98	-0.130	-0.850	1.970	189.73	-2.20	2.40	 	 	 	 	 	 	 	 	 	 	 	 	 	 	 	 	 	 	1581476238	8.06	14.93
12/02/2020 02:57:19	120220	12022020	025719	189.27	13.582232	-56.948285	189.42	0.350	-0.790	2.460	189.16	-2.20	2.90	 	 	 	 	 	 	 	 	 	 	 	 	 	 	 	 	 	 	1581476239	8.41	15.58
12/02/2020 02:57:20	120220	12022020	025720	188.85	13.582198	-56.948293	189.06	0.560	-0.220	2.560	188.85	-1.60	3.10	 	 	 	 	 	 	 	 	 	 	 	 	 	 	 	 	 	 	1581476240	8.19	15.17
12/02/2020 02:57:21	120220	12022020	025721	188.80	13.582163	-56.948298	189.06	0.400	0.510	2.270	188.84	-0.90	2.80	 	 	 	 	 	 	 	 	 	 	 	 	 	 	 	 	 	 	1581476241	7.67	14.20
12/02/2020 02:57:22	120220	12022020	025722	189.21	13.582130	-56.948303	189.54	-0.020	0.950	1.810	189.35	-0.50	2.30	 	 	 	 	 	 	 	 	 	 	 	 	 	 	 	 	 	 	1581476242	7.32	13.56
12/02/2020 02:57:23	120220	12022020	025723	189.89	13.582095	-56.948310	190.21	-0.440	0.710	1.490	190.00	-0.70	2.00	 	 	 	 	 	 	 	 	 	 	 	 	 	 	 	 	 	 	1581476243	7.28	13.48
12/02/2020 02:57:24	120220	12022020	025724	190.38	13.582060	-56.948320	190.66	-0.620	-0.120	1.520	190.44	-1.50	2.00	 	 	 	 	 	 	 	 	 	 	 	 	 	 	 	 	 	 	1581476244	7.61	14.09
12/02/2020 02:57:25	120220	12022020	025725	190.56	13.582023	-56.948333	190.80	-0.540	-0.990	1.800	190.57	-2.30	2.30	 	 	 	 	 	 	 	 	 	 	 	 	 	 	 	 	 	 	1581476245	8.13	15.06
12/02/2020 02:57:26	120220	12022020	025726	190.44	13.581988	-56.948348	190.65	-0.280	-1.490	2.190	190.37	-2.90	2.70	 	 	 	 	 	 	 	 	 	 	 	 	 	 	 	 	 	 	1581476246	8.28	15.33
12/02/2020 02:57:27	120220	12022020	025727	189.95	13.581953	-56.948360	190.13	0.120	-1.530	2.490	189.82	-2.90	3.00	 	 	 	 	 	 	 	 	 	 	 	 	 	 	 	 	 	 	1581476247	8.10	15.00
12/02/2020 02:57:28	120220	12022020	025728	189.32	13.581917	-56.948367	189.48	0.570	-1.190	2.400	189.20	-2.60	2.90	 	 	 	 	 	 	 	 	 	 	 	 	 	 	 	 	 	 	1581476248	7.89	14.61
12/02/2020 02:57:29	120220	12022020	025729	188.87	13.581882	-56.948370	189.07	0.850	-0.540	1.940	188.83	-2.00	2.50	 	 	 	 	 	 	 	 	 	 	 	 	 	 	 	 	 	 	1581476249	7.83	14.50
12/02/2020 02:57:30	120220	12022020	025730	188.88	13.581845	-56.948370	189.14	0.710	0.310	1.270	188.94	-1.10	1.80	 	 	 	 	 	 	 	 	 	 	 	 	 	 	 	 	 	 	1581476250	7.82	14.48
12/02/2020 02:57:31	120220	12022020	025731	189.36	13.581810	-56.948372	189.67	0.100	1.040	0.760	189.49	-0.40	1.30	 	 	 	 	 	 	 	 	 	 	 	 	 	 	 	 	 	 	1581476251	7.73	14.32
12/02/2020 02:57:32	120220	12022020	025732	190.00	13.581777	-56.948380	190.32	-0.670	1.200	0.790	190.13	-0.20	1.30	 	 	 	 	 	 	 	 	 	 	 	 	 	 	 	 	 	 	1581476252	7.51	13.91
12/02/2020 02:57:33	120220	12022020	025733	190.46	13.581740	-56.948395	190.73	-1.070	0.630	1.370	190.51	-0.70	1.80	 	 	 	 	 	 	 	 	 	 	 	 	 	 	 	 	 	 	1581476253	7.60	14.08
12/02/2020 02:57:34	120220	12022020	025734	190.56	13.581703	-56.948410	190.81	-0.780	-0.230	2.050	190.55	-1.60	2.50	 	 	 	 	 	 	 	 	 	 	 	 	 	 	 	 	 	 	1581476254	8.21	15.20
12/02/2020 02:57:35	120220	12022020	025735	190.45	13.581667	-56.948422	190.68	-0.140	-0.850	2.420	190.41	-2.20	2.90	 	 	 	 	 	 	 	 	 	 	 	 	 	 	 	 	 	 	1581476255	8.51	15.76
12/02/2020 02:57:36	120220	12022020	025736	190.21	13.581632	-56.948432	190.42	0.270	-1.140	2.430	190.15	-2.50	2.90	 	 	 	 	 	 	 	 	 	 	 	 	 	 	 	 	 	 	1581476256	8.22	15.22
12/02/2020 02:57:37	120220	12022020	025737	189.89	13.581597	-56.948440	190.09	0.230	-1.130	2.390	189.82	-2.50	2.90	 	 	 	 	 	 	 	 	 	 	 	 	 	 	 	 	 	 	1581476257	7.88	14.59
12/02/2020 02:57:38	120220	12022020	025738	189.52	13.581562	-56.948448	189.70	-0.000	-0.870	2.290	189.44	-2.30	2.80	 	 	 	 	 	 	 	 	 	 	 	 	 	 	 	 	 	 	1581476258	7.74	14.33
12/02/2020 02:57:39	120220	12022020	025739	189.14	13.581528	-56.948457	189.31	-0.120	-0.400	2.100	189.08	-1.80	2.60	 	 	 	 	 	 	 	 	 	 	 	 	 	 	 	 	 	 	1581476259	7.67	14.20
12/02/2020 02:57:40	120220	12022020	025740	188.98	13.581493	-56.948465	189.20	-0.010	0.120	1.750	188.98	-1.30	2.30	 	 	 	 	 	 	 	 	 	 	 	 	 	 	 	 	 	 	1581476260	7.64	14.15
12/02/2020 02:57:41	120220	12022020	025741	189.05	13.581457	-56.948470	189.26	0.290	0.450	1.190	189.08	-0.90	1.70	 	 	 	 	 	 	 	 	 	 	 	 	 	 	 	 	 	 	1581476261	7.63	14.13
12/02/2020 02:57:42	120220	12022020	025742	189.28	13.581422	-56.948473	189.53	0.550	0.560	0.640	189.36	-0.80	1.20	 	 	 	 	 	 	 	 	 	 	 	 	 	 	 	 	 	 	1581476262	7.75	14.35
12/02/2020 02:57:43	120220	12022020	025743	189.77	13.581385	-56.948477	190.06	0.480	0.450	0.520	189.89	-0.90	1.00	 	 	 	 	 	 	 	 	 	 	 	 	 	 	 	 	 	 	1581476263	7.89	14.61
12/02/2020 02:57:44	120220	12022020	025744	190.35	13.581350	-56.948483	190.64	0.050	0.090	0.850	190.44	-1.30	1.30	 	 	 	 	 	 	 	 	 	 	 	 	 	 	 	 	 	 	1581476264	7.82	14.48
12/02/2020 02:57:45	120220	12022020	025745	190.55	13.581315	-56.948498	190.77	-0.340	-0.590	1.650	190.52	-1.90	2.10	 	 	 	 	 	 	 	 	 	 	 	 	 	 	 	 	 	 	1581476265	7.74	14.33
12/02/2020 02:57:46	120220	12022020	025746	190.15	13.581278	-56.948515	190.31	-0.280	-1.340	2.730	190.01	-2.70	3.20	 	 	 	 	 	 	 	 	 	 	 	 	 	 	 	 	 	 	1581476266	8.08	14.96
12/02/2020 02:57:47	120220	12022020	025747	189.49	13.581242	-56.948528	189.68	0.030	-1.400	3.420	189.38	-2.80	3.90	 	 	 	 	 	 	 	 	 	 	 	 	 	 	 	 	 	 	1581476267	8.59	15.91
12/02/2020 02:57:48	120220	12022020	025748	189.12	13.581210	-56.948538	189.35	0.110	-0.740	3.340	189.10	-2.20	3.90	 	 	 	 	 	 	 	 	 	 	 	 	 	 	 	 	 	 	1581476268	8.19	15.17
12/02/2020 02:57:49	120220	12022020	025749	189.20	13.581177	-56.948543	189.45	-0.160	-0.030	2.640	189.25	-1.40	3.20	 	 	 	 	 	 	 	 	 	 	 	 	 	 	 	 	 	 	1581476269	7.39	13.69
12/02/2020 02:57:50	120220	12022020	025750	189.46	13.581142	-56.948548	189.70	-0.500	0.220	1.930	189.50	-1.20	2.50	 	 	 	 	 	 	 	 	 	 	 	 	 	 	 	 	 	 	1581476270	7.23	13.39
12/02/2020 02:57:51	120220	12022020	025751	189.59	13.581103	-56.948557	189.81	-0.560	0.000	1.580	189.60	-1.40	2.10	 	 	 	 	 	 	 	 	 	 	 	 	 	 	 	 	 	 	1581476271	7.66	14.19
12/02/2020 02:57:52	120220	12022020	025752	189.56	13.581065	-56.948565	189.77	-0.330	-0.250	1.510	189.55	-1.60	2.00	 	 	 	 	 	 	 	 	 	 	 	 	 	 	 	 	 	 	1581476272	8.22	15.22
12/02/2020 02:57:53	120220	12022020	025753	189.53	13.581030	-56.948573	189.74	-0.000	-0.130	1.450	189.54	-1.50	2.00	 	 	 	 	 	 	 	 	 	 	 	 	 	 	 	 	 	 	1581476273	8.39	15.54
12/02/2020 02:57:54	120220	12022020	025754	189.59	13.580995	-56.948580	189.81	0.340	0.300	1.170	189.61	-1.10	1.70	 	 	 	 	 	 	 	 	 	 	 	 	 	 	 	 	 	 	1581476274	7.97	14.76
12/02/2020 02:57:55	120220	12022020	025755	189.80	13.580962	-56.948583	190.04	0.610	0.570	0.700	189.85	-0.80	1.20	 	 	 	 	 	 	 	 	 	 	 	 	 	 	 	 	 	 	1581476275	7.44	13.78
12/02/2020 02:57:56	120220	12022020	025756	190.04	13.580925	-56.948588	190.27	0.710	0.260	0.570	190.08	-1.10	1.10	 	 	 	 	 	 	 	 	 	 	 	 	 	 	 	 	 	 	1581476276	7.33	13.58
12/02/2020 02:57:57	120220	12022020	025757	190.18	13.580888	-56.948595	190.39	0.550	-0.510	0.990	190.18	-1.90	1.50	 	 	 	 	 	 	 	 	 	 	 	 	 	 	 	 	 	 	1581476277	7.75	14.35
12/02/2020 02:57:58	120220	12022020	025758	190.08	13.580852	-56.948610	190.28	0.110	-1.090	2.050	190.03	-2.40	2.50	 	 	 	 	 	 	 	 	 	 	 	 	 	 	 	 	 	 	1581476278	8.22	15.22
12/02/2020 02:57:59	120220	12022020	025759	189.81	13.580818	-56.948627	190.03	-0.370	-1.000	3.170	189.76	-2.40	3.60	 	 	 	 	 	 	 	 	 	 	 	 	 	 	 	 	 	 	1581476279	8.32	15.41
12/02/2020 02:58:00	120220	12022020	025800	189.58	13.580787	-56.948640	189.79	-0.650	-0.540	3.590	189.53	-1.90	4.10	 	 	 	 	 	 	 	 	 	 	 	 	 	 	 	 	 	 	1581476280	7.93	14.69
12/02/2020 02:58:01	120220	12022020	025801	189.25	13.580752	-56.948652	189.43	-0.480	-0.460	3.390	189.16	-1.80	3.90	1017.20	26.00	26.10	20.60	20.70	-1.0	72.0	72.0	398.0	25.7	253.00	10.70	65.00	12.50	16	8976.0	27.2	27.2	1581476281	7.46	13.82
12/02/2020 02:58:02	120220	12022020	025802	188.81	13.580713	-56.948658	188.98	0.030	-0.690	2.820	188.74	-2.10	3.40	 	 	 	 	 	 	 	 	 	 	 	 	 	 	 	 	 	 	1581476282	7.81	14.46
12/02/2020 02:58:03	120220	12022020	025803	188.60	13.580675	-56.948662	188.85	0.400	-0.500	1.990	188.64	-1.90	2.60	 	 	 	 	 	 	 	 	 	 	 	 	 	 	 	 	 	 	1581476283	8.42	15.59
12/02/2020 02:58:04	120220	12022020	025804	189.04	13.580642	-56.948663	189.38	0.270	0.290	1.040	189.20	-1.10	1.60	 	 	 	 	 	 	 	 	 	 	 	 	 	 	 	 	 	 	1581476284	8.26	15.30
12/02/2020 02:58:05	120220	12022020	025805	189.83	13.580608	-56.948667	190.17	-0.170	0.950	0.440	189.97	-0.40	1.00	 	 	 	 	 	 	 	 	 	 	 	 	 	 	 	 	 	 	1581476285	7.42	13.74
12/02/2020 02:58:06	120220	12022020	025806	190.35	13.580575	-56.948675	190.63	-0.330	0.730	0.470	190.41	-0.60	1.00	 	 	 	 	 	 	 	 	 	 	 	 	 	 	 	 	 	 	1581476286	6.98	12.93
12/02/2020 02:58:07	120220	12022020	025807	190.51	13.580537	-56.948685	190.75	-0.050	-0.070	0.870	190.52	-1.40	1.40	 	 	 	 	 	 	 	 	 	 	 	 	 	 	 	 	 	 	1581476287	7.63	14.13
12/02/2020 02:58:08	120220	12022020	025808	190.45	13.580498	-56.948695	190.66	0.280	-0.760	1.400	190.41	-2.10	1.90	 	 	 	 	 	 	 	 	 	 	 	 	 	 	 	 	 	 	1581476288	8.34	15.45
12/02/2020 02:58:09	120220	12022020	025809	190.13	13.580463	-56.948705	190.31	0.350	-1.230	2.060	190.02	-2.60	2.50	 	 	 	 	 	 	 	 	 	 	 	 	 	 	 	 	 	 	1581476289	8.30	15.37
12/02/2020 02:58:10	120220	12022020	025810	189.57	13.580427	-56.948717	189.74	0.190	-1.390	2.710	189.57	-2.80	3.20	 	 	 	 	 	 	 	 	 	 	 	 	 	 	 	 	 	 	1581476290	8.18	15.15
12/02/2020 02:58:11	120220	12022020	025811	189.08	13.580392	-56.948728	189.27	-0.050	-0.960	2.930	189.02	-2.40	3.40	 	 	 	 	 	 	 	 	 	 	 	 	 	 	 	 	 	 	1581476291	8.22	15.22
12/02/2020 02:58:12	120220	12022020	025812	188.94	13.580358	-56.948737	189.17	-0.310	0.010	2.610	188.96	-1.40	3.10	 	 	 	 	 	 	 	 	 	 	 	 	 	 	 	 	 	 	1581476292	7.88	14.59
12/02/2020 02:58:13	120220	12022020	025813	189.18	13.580327	-56.948743	189.42	-0.500	0.900	1.980	189.24	-0.50	2.50	 	 	 	 	 	 	 	 	 	 	 	 	 	 	 	 	 	 	1581476293	7.29	13.50
12/02/2020 02:58:14	120220	12022020	025814	189.53	13.580292	-56.948748	189.77	-0.440	1.010	1.300	189.59	-0.40	1.90	 	 	 	 	 	 	 	 	 	 	 	 	 	 	 	 	 	 	1581476294	7.07	13.09
12/02/2020 02:58:15	120220	12022020	025815	189.87	13.580253	-56.948755	190.11	-0.100	0.360	0.790	189.92	-1.00	1.30	 	 	 	 	 	 	 	 	 	 	 	 	 	 	 	 	 	 	1581476295	7.61	14.09
12/02/2020 02:58:16	120220	12022020	025816	190.02	13.580213	-56.948762	190.22	0.360	-0.530	0.630	190.02	-1.90	1.20	 	 	 	 	 	 	 	 	 	 	 	 	 	 	 	 	 	 	1581476296	8.31	15.39
12/02/2020 02:58:17	120220	12022020	025817	189.97	13.580177	-56.948768	190.16	0.630	-0.920	0.820	189.94	-2.30	1.30	 	 	 	 	 	 	 	 	 	 	 	 	 	 	 	 	 	 	1581476297	8.61	15.95
12/02/2020 02:58:18	120220	12022020	025818	189.87	13.580142	-56.948777	190.08	0.510	-0.630	1.150	189.86	-2.10	1.70	 	 	 	 	 	 	 	 	 	 	 	 	 	 	 	 	 	 	1581476298	8.19	15.17
12/02/2020 02:58:19	120220	12022020	025819	189.89	13.580110	-56.948783	190.13	0.010	-0.090	1.450	189.91	-1.50	1.90	 	 	 	 	 	 	 	 	 	 	 	 	 	 	 	 	 	 	1581476299	7.43	13.76
12/02/2020 02:58:20	120220	12022020	025820	189.96	13.580078	-56.948795	190.20	-0.520	-0.020	1.920	189.95	-1.40	2.40	 	 	 	 	 	 	 	 	 	 	 	 	 	 	 	 	 	 	1581476300	7.00	12.96
12/02/2020 02:58:21	120220	12022020	025821	189.79	13.580042	-56.948810	189.98	-0.610	-0.660	2.590	189.71	-2.00	3.10	 	 	 	 	 	 	 	 	 	 	 	 	 	 	 	 	 	 	1581476301	7.43	13.76
12/02/2020 02:58:22	120220	12022020	025822	189.33	13.580002	-56.948823	189.50	-0.120	-1.380	2.990	189.24	-2.70	3.50	 	 	 	 	 	 	 	 	 	 	 	 	 	 	 	 	 	 	1581476302	8.46	15.67
12/02/2020 02:58:23	120220	12022020	025823	188.93	13.579963	-56.948833	189.13	0.470	-1.210	2.900	188.88	-2.60	3.40	 	 	 	 	 	 	 	 	 	 	 	 	 	 	 	 	 	 	1581476303	9.00	16.67
12/02/2020 02:58:24	120220	12022020	025824	188.82	13.579930	-56.948838	189.07	0.650	-0.130	2.340	188.82	-1.60	2.90	 	 	 	 	 	 	 	 	 	 	 	 	 	 	 	 	 	 	1581476304	8.35	15.46
12/02/2020 02:58:25	120220	12022020	025825	189.05	13.579898	-56.948838	189.30	0.310	0.930	1.430	189.13	-0.50	2.00	 	 	 	 	 	 	 	 	 	 	 	 	 	 	 	 	 	 	1581476305	7.32	13.56
12/02/2020 02:58:26	120220	12022020	025826	189.43	13.579863	-56.948842	189.68	-0.230	1.130	0.800	189.50	-0.30	1.30	 	 	 	 	 	 	 	 	 	 	 	 	 	 	 	 	 	 	1581476306	7.00	12.96
12/02/2020 02:58:27	120220	12022020	025827	189.76	13.579827	-56.948850	190.00	-0.630	0.580	1.000	189.81	-0.80	1.50	 	 	 	 	 	 	 	 	 	 	 	 	 	 	 	 	 	 	1581476307	7.55	13.98
12/02/2020 02:58:28	120220	12022020	025828	189.92	13.579790	-56.948863	190.16	-0.650	-0.050	1.600	189.94	-1.40	2.10	 	 	 	 	 	 	 	 	 	 	 	 	 	 	 	 	 	 	1581476308	8.17	15.13
12/02/2020 02:58:29	120220	12022020	025829	190.03	13.579755	-56.948877	190.29	-0.300	-0.370	1.900	190.05	-1.80	2.40	 	 	 	 	 	 	 	 	 	 	 	 	 	 	 	 	 	 	1581476309	8.31	15.39
12/02/2020 02:58:30	120220	12022020	025830	190.12	13.579722	-56.948885	190.36	0.270	-0.630	1.790	190.13	-2.00	2.30	 	 	 	 	 	 	 	 	 	 	 	 	 	 	 	 	 	 	1581476310	7.86	14.56
12/02/2020 02:58:31	120220	12022020	025831	190.08	13.579685	-56.948892	190.27	0.850	-1.130	1.510	190.03	-2.50	2.00	 	 	 	 	 	 	 	 	 	 	 	 	 	 	 	 	 	 	1581476311	7.62	14.11
12/02/2020 02:58:32	120220	12022020	025832	189.70	13.579645	-56.948895	189.83	1.060	-1.580	1.410	189.57	-3.00	1.90	 	 	 	 	 	 	 	 	 	 	 	 	 	 	 	 	 	 	1581476312	7.96	14.74
12/02/2020 02:58:33	120220	12022020	025833	189.06	13.579608	-56.948900	189.21	0.630	-1.320	1.750	188.96	-2.70	2.20	 	 	 	 	 	 	 	 	 	 	 	 	 	 	 	 	 	 	1581476313	8.31	15.39
12/02/2020 02:58:34	120220	12022020	025834	188.73	13.579577	-56.948912	188.95	-0.300	-0.280	2.320	188.72	-1.70	2.80	 	 	 	 	 	 	 	 	 	 	 	 	 	 	 	 	 	 	1581476314	8.00	14.82
12/02/2020 02:58:35	120220	12022020	025835	188.88	13.579545	-56.948925	189.16	-1.100	0.800	2.620	188.95	-0.60	3.10	 	 	 	 	 	 	 	 	 	 	 	 	 	 	 	 	 	 	1581476315	7.33	13.58
12/02/2020 02:58:36	120220	12022020	025836	189.32	13.579512	-56.948938	189.63	-1.220	1.180	2.540	189.32	-0.20	3.10	 	 	 	 	 	 	 	 	 	 	 	 	 	 	 	 	 	 	1581476316	7.25	13.43
12/02/2020 02:58:37	120220	12022020	025837	189.88	13.579475	-56.948950	190.19	-0.610	0.870	2.110	189.99	-0.50	2.60	 	 	 	 	 	 	 	 	 	 	 	 	 	 	 	 	 	 	1581476317	7.74	14.33
12/02/2020 02:58:38	120220	12022020	025838	190.42	13.579437	-56.948955	190.71	0.260	0.230	1.350	190.50	-1.10	1.90	 	 	 	 	 	 	 	 	 	 	 	 	 	 	 	 	 	 	1581476318	8.22	15.22
12/02/2020 02:58:39	120220	12022020	025839	190.79	13.579398	-56.948958	191.04	0.760	-0.470	0.760	190.83	-1.80	1.30	 	 	 	 	 	 	 	 	 	 	 	 	 	 	 	 	 	 	1581476319	8.36	15.48
12/02/2020 02:58:40	120220	12022020	025840	190.84	13.579362	-56.948963	191.04	0.720	-1.070	0.790	190.81	-2.40	1.30	 	 	 	 	 	 	 	 	 	 	 	 	 	 	 	 	 	 	1581476320	8.29	15.35
12/02/2020 02:58:41	120220	12022020	025841	190.59	13.579325	-56.948972	190.75	0.370	-1.310	1.270	190.51	-2.70	1.80	 	 	 	 	 	 	 	 	 	 	 	 	 	 	 	 	 	 	1581476321	8.13	15.06
12/02/2020 02:58:42	120220	12022020	025842	190.19	13.579292	-56.948983	190.36	-0.020	-0.990	1.990	190.10	-2.40	2.50	 	 	 	 	 	 	 	 	 	 	 	 	 	 	 	 	 	 	1581476322	7.95	14.72
12/02/2020 02:58:43	120220	12022020	025843	189.73	13.579260	-56.948995	189.90	-0.280	-0.330	2.700	189.64	-1.80	3.20	 	 	 	 	 	 	 	 	 	 	 	 	 	 	 	 	 	 	1581476323	7.62	14.11
12/02/2020 02:58:44	120220	12022020	025844	189.35	13.579225	-56.949007	189.56	-0.370	0.190	3.010	189.31	-1.20	3.50	 	 	 	 	 	 	 	 	 	 	 	 	 	 	 	 	 	 	1581476324	7.40	13.70
12/02/2020 02:58:45	120220	12022020	025845	189.28	13.579190	-56.949017	189.54	-0.320	0.240	2.800	189.31	-1.10	3.30	 	 	 	 	 	 	 	 	 	 	 	 	 	 	 	 	 	 	1581476325	7.56	14.00
12/02/2020 02:58:46	120220	12022020	025846	189.54	13.579152	-56.949025	189.85	-0.210	-0.010	2.330	189.63	-1.40	2.90	 	 	 	 	 	 	 	 	 	 	 	 	 	 	 	 	 	 	1581476326	7.98	14.78
12/02/2020 02:58:47	120220	12022020	025847	190.02	13.579115	-56.949032	190.32	-0.080	-0.080	1.650	190.12	-1.50	2.20	 	 	 	 	 	 	 	 	 	 	 	 	 	 	 	 	 	 	1581476327	8.31	15.39
12/02/2020 02:58:48	120220	12022020	025848	190.48	13.579080	-56.949037	190.76	0.090	0.020	0.910	190.55	-1.40	1.50	 	 	 	 	 	 	 	 	 	 	 	 	 	 	 	 	 	 	1581476328	8.06	14.93
12/02/2020 02:58:49	120220	12022020	025849	190.78	13.579045	-56.949042	191.02	0.210	0.070	0.480	190.82	-1.30	1.00	 	 	 	 	 	 	 	 	 	 	 	 	 	 	 	 	 	 	1581476329	7.71	14.28
12/02/2020 02:58:50	120220	12022020	025850	190.83	13.579010	-56.949048	191.00	0.290	-0.090	0.660	190.79	-1.50	1.20	 	 	 	 	 	 	 	 	 	 	 	 	 	 	 	 	 	 	1581476330	7.58	14.04
12/02/2020 02:58:51	120220	12022020	025851	190.41	13.578973	-56.949058	190.52	0.380	-0.490	1.360	190.29	-1.90	1.80	 	 	 	 	 	 	 	 	 	 	 	 	 	 	 	 	 	 	1581476331	7.66	14.19
12/02/2020 02:58:52	120220	12022020	025852	189.71	13.578938	-56.949070	189.83	0.390	-0.740	2.290	189.58	-2.10	2.70	 	 	 	 	 	 	 	 	 	 	 	 	 	 	 	 	 	 	1581476332	8.01	14.83
12/02/2020 02:58:53	120220	12022020	025853	189.16	13.578903	-56.949082	189.36	0.170	-0.520	2.990	189.11	-1.90	3.50	 	 	 	 	 	 	 	 	 	 	 	 	 	 	 	 	 	 	1581476333	8.16	15.11
12/02/2020 02:58:54	120220	12022020	025854	189.15	13.578870	-56.949093	189.41	-0.160	-0.050	2.980	189.21	-1.50	3.50	 	 	 	 	 	 	 	 	 	 	 	 	 	 	 	 	 	 	1581476334	7.85	14.54
12/02/2020 02:58:55	120220	12022020	025855	189.59	13.578837	-56.949102	189.90	-0.360	0.220	2.350	189.71	-1.20	2.90	 	 	 	 	 	 	 	 	 	 	 	 	 	 	 	 	 	 	1581476335	7.44	13.78
12/02/2020 02:58:56	120220	12022020	025856	190.17	13.578802	-56.949108	190.46	-0.250	-0.110	1.530	190.27	-1.50	2.10	 	 	 	 	 	 	 	 	 	 	 	 	 	 	 	 	 	 	1581476336	7.37	13.65
12/02/2020 02:58:57	120220	12022020	025857	190.49	13.578762	-56.949115	190.72	0.030	-0.820	1.190	190.49	-2.20	1.70	 	 	 	 	 	 	 	 	 	 	 	 	 	 	 	 	 	 	1581476337	7.88	14.59
12/02/2020 02:58:58	120220	12022020	025858	190.36	13.578725	-56.949123	190.53	0.190	-1.180	1.350	190.28	-2.60	1.80	 	 	 	 	 	 	 	 	 	 	 	 	 	 	 	 	 	 	1581476338	8.42	15.59
12/02/2020 02:58:59	120220	12022020	025859	189.95	13.578690	-56.949132	190.11	0.140	-0.820	1.670	189.86	-2.20	2.20	 	 	 	 	 	 	 	 	 	 	 	 	 	 	 	 	 	 	1581476339	8.32	15.41
12/02/2020 02:59:00	120220	12022020	025900	189.58	13.578657	-56.949140	189.78	-0.050	-0.110	1.910	189.53	-1.50	2.40	 	 	 	 	 	 	 	 	 	 	 	 	 	 	 	 	 	 	1581476340	7.76	14.37
12/02/2020 02:59:01	120220	12022020	025901	189.44	13.578622	-56.949148	189.67	-0.250	0.400	1.990	189.45	-1.00	2.50	1017.30	26.10	26.10	20.90	20.90	-1.0	73.0	73.0	402.0	25.7	254.00	10.70	65.00	12.50	16	8745.0	27.2	27.2	1581476341	7.43	13.76
12/02/2020 02:59:02	120220	12022020	025902	189.53	13.578587	-56.949157	189.77	-0.340	0.530	1.960	189.55	-0.90	2.50	 	 	 	 	 	 	 	 	 	 	 	 	 	 	 	 	 	 	1581476342	7.59	14.06
12/02/2020 02:59:03	120220	12022020	025903	189.60	13.578550	-56.949167	189.82	-0.260	0.370	1.960	189.60	-1.00	2.40	 	 	 	 	 	 	 	 	 	 	 	 	 	 	 	 	 	 	1581476343	7.90	14.63
12/02/2020 02:59:04	120220	12022020	025904	189.56	13.578513	-56.949177	189.79	-0.070	0.100	1.950	189.56	-1.30	2.40	 	 	 	 	 	 	 	 	 	 	 	 	 	 	 	 	 	 	1581476344	8.09	14.98
12/02/2020 02:59:05	120220	12022020	025905	189.67	13.578478	-56.949185	189.92	0.050	0.010	1.780	189.73	-1.40	2.30	 	 	 	 	 	 	 	 	 	 	 	 	 	 	 	 	 	 	1581476345	8.13	15.06
12/02/2020 02:59:06	120220	12022020	025906	190.02	13.578445	-56.949193	190.28	0.070	0.030	1.400	190.10	-1.40	1.90	 	 	 	 	 	 	 	 	 	 	 	 	 	 	 	 	 	 	1581476346	7.81	14.46
12/02/2020 02:59:07	120220	12022020	025907	190.27	13.578410	-56.949200	190.47	0.230	-0.370	1.030	190.27	-1.70	1.50	 	 	 	 	 	 	 	 	 	 	 	 	 	 	 	 	 	 	1581476347	7.37	13.65
12/02/2020 02:59:08	120220	12022020	025908	190.14	13.578370	-56.949205	190.31	0.630	-1.130	0.890	190.09	-2.50	1.40	 	 	 	 	 	 	 	 	 	 	 	 	 	 	 	 	 	 	1581476348	7.65	14.17
12/02/2020 02:59:09	120220	12022020	025909	189.95	13.578333	-56.949210	190.15	0.750	-1.310	1.020	189.94	-2.70	1.50	 	 	 	 	 	 	 	 	 	 	 	 	 	 	 	 	 	 	1581476349	8.36	15.48
12/02/2020 02:59:10	120220	12022020	025910	190.04	13.578300	-56.949218	190.28	0.240	-0.640	1.330	190.09	-2.10	1.80	 	 	 	 	 	 	 	 	 	 	 	 	 	 	 	 	 	 	1581476350	8.16	15.11
12/02/2020 02:59:11	120220	12022020	025911	190.25	13.578268	-56.949228	190.48	-0.570	0.100	1.780	190.27	-1.30	2.30	 	 	 	 	 	 	 	 	 	 	 	 	 	 	 	 	 	 	1581476351	7.27	13.46
12/02/2020 02:59:12	120220	12022020	025912	190.21	13.578235	-56.949243	190.41	-0.940	0.150	2.340	190.19	-1.20	2.80	 	 	 	 	 	 	 	 	 	 	 	 	 	 	 	 	 	 	1581476352	7.07	13.09
12/02/2020 02:59:13	120220	12022020	025913	190.12	13.578198	-56.949257	190.35	-0.610	-0.190	2.530	190.12	-1.60	3.00	 	 	 	 	 	 	 	 	 	 	 	 	 	 	 	 	 	 	1581476353	7.91	14.65
12/02/2020 02:59:14	120220	12022020	025914	190.15	13.578160	-56.949267	190.38	-0.020	-0.260	2.340	190.15	-1.70	2.90	 	 	 	 	 	 	 	 	 	 	 	 	 	 	 	 	 	 	1581476354	8.54	15.82
12/02/2020 02:59:15	120220	12022020	025915	190.18	13.578123	-56.949272	190.39	0.320	-0.140	1.950	190.17	-1.50	2.50	 	 	 	 	 	 	 	 	 	 	 	 	 	 	 	 	 	 	1581476355	8.23	15.24
12/02/2020 02:59:16	120220	12022020	025916	190.10	13.578087	-56.949277	190.29	0.290	-0.190	1.510	190.07	-1.60	2.00	 	 	 	 	 	 	 	 	 	 	 	 	 	 	 	 	 	 	1581476356	7.90	14.63
12/02/2020 02:59:17	120220	12022020	025917	189.97	13.578050	-56.949285	190.18	0.070	-0.260	1.300	189.98	-1.70	1.80	 	 	 	 	 	 	 	 	 	 	 	 	 	 	 	 	 	 	1581476357	8.01	14.83
12/02/2020 02:59:18	120220	12022020	025918	190.15	13.578015	-56.949292	190.42	-0.140	0.150	1.110	190.23	-1.30	1.60	 	 	 	 	 	 	 	 	 	 	 	 	 	 	 	 	 	 	1581476358	8.13	15.06
12/02/2020 02:59:19	120220	12022020	025919	190.53	13.577983	-56.949300	190.75	-0.200	0.580	0.870	190.58	-0.80	1.40	 	 	 	 	 	 	 	 	 	 	 	 	 	 	 	 	 	 	1581476359	7.54	13.96
12/02/2020 02:59:20	120220	12022020	025920	190.67	13.577948	-56.949308	190.86	-0.030	0.200	0.910	190.66	-1.20	1.40	 	 	 	 	 	 	 	 	 	 	 	 	 	 	 	 	 	 	1581476360	7.11	13.17
12/02/2020 02:59:21	120220	12022020	025921	190.52	13.577910	-56.949318	190.68	0.230	-0.720	1.280	190.47	-2.10	1.80	 	 	 	 	 	 	 	 	 	 	 	 	 	 	 	 	 	 	1581476361	7.79	14.43
12/02/2020 02:59:22	120220	12022020	025922	190.28	13.577872	-56.949328	190.46	0.270	-1.150	1.740	190.24	-2.50	2.20	 	 	 	 	 	 	 	 	 	 	 	 	 	 	 	 	 	 	1581476362	8.54	15.82
12/02/2020 02:59:23	120220	12022020	025923	190.10	13.577838	-56.949338	190.29	0.050	-0.810	2.090	190.07	-2.20	2.60	 	 	 	 	 	 	 	 	 	 	 	 	 	 	 	 	 	 	1581476363	8.34	15.45
12/02/2020 02:59:24	120220	12022020	025924	189.91	13.577807	-56.949348	190.09	-0.120	-0.290	2.160	189.86	-1.70	2.70	 	 	 	 	 	 	 	 	 	 	 	 	 	 	 	 	 	 	1581476364	7.55	13.98
12/02/2020 02:59:25	120220	12022020	025925	189.74	13.577770	-56.949355	189.97	-0.040	-0.050	1.960	189.74	-1.50	2.50	 	 	 	 	 	 	 	 	 	 	 	 	 	 	 	 	 	 	1581476365	7.31	13.54
12/02/2020 02:59:26	120220	12022020	025926	189.88	13.577733	-56.949362	190.15	0.040	-0.020	1.610	189.88	-1.40	2.10	 	 	 	 	 	 	 	 	 	 	 	 	 	 	 	 	 	 	1581476366	7.73	14.32
12/02/2020 02:59:27	120220	12022020	025927	190.13	13.577698	-56.949370	190.38	-0.100	-0.120	1.500	190.16	-1.50	2.00	 	 	 	 	 	 	 	 	 	 	 	 	 	 	 	 	 	 	1581476367	7.98	14.78
12/02/2020 02:59:28	120220	12022020	025928	190.16	13.577662	-56.949382	190.38	-0.340	-0.290	1.760	190.14	-1.70	2.20	 	 	 	 	 	 	 	 	 	 	 	 	 	 	 	 	 	 	1581476368	8.00	14.82
12/02/2020 02:59:29	120220	12022020	025929	190.00	13.577627	-56.949393	190.22	-0.380	-0.300	2.020	189.96	-1.70	2.50	 	 	 	 	 	 	 	 	 	 	 	 	 	 	 	 	 	 	1581476369	8.11	15.02
12/02/2020 02:59:30	120220	12022020	025930	189.78	13.577592	-56.949402	190.00	-0.050	-0.160	1.940	189.75	-1.60	2.50	 	 	 	 	 	 	 	 	 	 	 	 	 	 	 	 	 	 	1581476370	8.04	14.89
12/02/2020 02:59:31	120220	12022020	025931	189.71	13.577555	-56.949408	189.96	0.410	-0.070	1.530	189.74	-1.50	2.10	 	 	 	 	 	 	 	 	 	 	 	 	 	 	 	 	 	 	1581476371	7.83	14.50
12/02/2020 02:59:32	120220	12022020	025932	189.94	13.577518	-56.949412	190.21	0.630	-0.080	1.060	190.01	-1.50	1.60	 	 	 	 	 	 	 	 	 	 	 	 	 	 	 	 	 	 	1581476372	7.86	14.56
12/02/2020 02:59:33	120220	12022020	025933	190.30	13.577482	-56.949417	190.57	0.410	-0.190	0.790	190.37	-1.60	1.30	 	 	 	 	 	 	 	 	 	 	 	 	 	 	 	 	 	 	1581476373	7.93	14.69
12/02/2020 02:59:34	120220	12022020	025934	190.58	13.577447	-56.949425	190.81	-0.050	-0.320	1.100	190.60	-1.70	1.60	 	 	 	 	 	 	 	 	 	 	 	 	 	 	 	 	 	 	1581476374	7.88	14.59
12/02/2020 02:59:35	120220	12022020	025935	190.60	13.577413	-56.949438	190.80	-0.440	-0.320	1.910	190.56	-1.70	2.40	 	 	 	 	 	 	 	 	 	 	 	 	 	 	 	 	 	 	1581476375	7.82	14.48
12/02/2020 02:59:36	120220	12022020	025936	190.32	13.577380	-56.949453	190.52	-0.530	-0.280	2.750	190.24	-1.70	3.20	 	 	 	 	 	 	 	 	 	 	 	 	 	 	 	 	 	 	1581476376	7.76	14.37
12/02/2020 02:59:37	120220	12022020	025937	189.80	13.577345	-56.949467	189.96	-0.310	-0.450	3.320	189.67	-1.80	3.80	 	 	 	 	 	 	 	 	 	 	 	 	 	 	 	 	 	 	1581476377	7.80	14.45
12/02/2020 02:59:38	120220	12022020	025938	189.20	13.577307	-56.949478	189.39	0.100	-0.680	3.440	189.10	-2.10	3.90	 	 	 	 	 	 	 	 	 	 	 	 	 	 	 	 	 	 	1581476378	8.10	15.00
12/02/2020 02:59:39	120220	12022020	025939	189.02	13.577270	-56.949483	189.33	0.410	-0.270	2.760	189.08	-1.70	3.30	 	 	 	 	 	 	 	 	 	 	 	 	 	 	 	 	 	 	1581476379	8.41	15.58
12/02/2020 02:59:40	120220	12022020	025940	189.54	13.577238	-56.949485	189.89	0.330	0.480	1.580	189.69	-0.90	2.10	 	 	 	 	 	 	 	 	 	 	 	 	 	 	 	 	 	 	1581476380	7.85	14.54
12/02/2020 02:59:41	120220	12022020	025941	190.24	13.577203	-56.949488	190.52	0.050	0.480	0.740	190.33	-0.90	1.30	 	 	 	 	 	 	 	 	 	 	 	 	 	 	 	 	 	 	1581476381	7.09	13.13
12/02/2020 02:59:42	120220	12022020	025942	190.54	13.577165	-56.949497	190.74	-0.040	-0.460	0.740	190.54	-1.80	1.20	 	 	 	 	 	 	 	 	 	 	 	 	 	 	 	 	 	 	1581476382	7.43	13.76
12/02/2020 02:59:43	120220	12022020	025943	190.41	13.577125	-56.949510	190.57	0.080	-1.360	1.370	190.34	-2.70	1.80	 	 	 	 	 	 	 	 	 	 	 	 	 	 	 	 	 	 	1581476383	8.45	15.65
12/02/2020 02:59:44	120220	12022020	025944	190.01	13.577090	-56.949522	190.16	0.100	-1.370	2.200	189.92	-2.80	2.60	 	 	 	 	 	 	 	 	 	 	 	 	 	 	 	 	 	 	1581476384	8.78	16.26
12/02/2020 02:59:45	120220	12022020	025945	189.55	13.577058	-56.949535	189.73	-0.090	-0.580	2.760	189.47	-2.00	3.20	 	 	 	 	 	 	 	 	 	 	 	 	 	 	 	 	 	 	1581476385	8.15	15.09
12/02/2020 02:59:46	120220	12022020	025946	189.24	13.577027	-56.949545	189.46	-0.350	0.380	2.900	189.21	-1.10	3.40	 	 	 	 	 	 	 	 	 	 	 	 	 	 	 	 	 	 	1581476386	7.42	13.74
12/02/2020 02:59:47	120220	12022020	025947	189.30	13.576993	-56.949555	189.56	-0.460	0.990	2.610	189.36	-0.40	3.10	 	 	 	 	 	 	 	 	 	 	 	 	 	 	 	 	 	 	1581476387	7.13	13.20
12/02/2020 02:59:48	120220	12022020	025948	189.66	13.576958	-56.949562	189.94	-0.290	0.980	2.080	189.74	-0.40	2.60	 	 	 	 	 	 	 	 	 	 	 	 	 	 	 	 	 	 	1581476388	7.33	13.58
12/02/2020 02:59:49	120220	12022020	025949	189.93	13.576922	-56.949568	190.16	0.130	0.280	1.710	189.94	-1.10	2.20	 	 	 	 	 	 	 	 	 	 	 	 	 	 	 	 	 	 	1581476389	7.65	14.17
12/02/2020 02:59:50	120220	12022020	025950	189.80	13.576882	-56.949577	189.96	0.640	-0.740	1.680	189.80	-2.10	2.20	 	 	 	 	 	 	 	 	 	 	 	 	 	 	 	 	 	 	1581476390	8.18	15.15
12/02/2020 02:59:51	120220	12022020	025951	189.42	13.576845	-56.949583	189.58	0.870	-1.240	1.840	189.35	-2.60	2.30	 	 	 	 	 	 	 	 	 	 	 	 	 	 	 	 	 	 	1581476391	8.58	15.89
12/02/2020 02:59:52	120220	12022020	025952	189.13	13.576810	-56.949590	189.33	0.610	-0.970	2.020	189.09	-2.40	2.50	 	 	 	 	 	 	 	 	 	 	 	 	 	 	 	 	 	 	1581476392	8.23	15.24
12/02/2020 02:59:53	120220	12022020	025953	188.92	13.576778	-56.949598	189.12	0.080	-0.540	2.250	188.88	-1.90	2.70	 	 	 	 	 	 	 	 	 	 	 	 	 	 	 	 	 	 	1581476393	7.40	13.70
12/02/2020 02:59:54	120220	12022020	025954	188.72	13.576743	-56.949610	188.95	-0.390	-0.380	2.590	188.70	-1.80	3.10	 	 	 	 	 	 	 	 	 	 	 	 	 	 	 	 	 	 	1581476394	7.21	13.35
12/02/2020 02:59:55	120220	12022020	025955	188.80	13.576708	-56.949622	189.10	-0.690	-0.230	2.600	188.86	-1.60	3.10	 	 	 	 	 	 	 	 	 	 	 	 	 	 	 	 	 	 	1581476395	7.73	14.32
12/02/2020 02:59:56	120220	12022020	025956	189.16	13.576675	-56.949635	189.47	-0.780	0.110	2.320	189.24	-1.30	2.80	 	 	 	 	 	 	 	 	 	 	 	 	 	 	 	 	 	 	1581476396	7.95	14.72
12/02/2020 02:59:57	120220	12022020	025957	189.44	13.576642	-56.949643	189.71	-0.540	0.260	1.850	189.48	-1.10	2.40	 	 	 	 	 	 	 	 	 	 	 	 	 	 	 	 	 	 	1581476397	7.62	14.11
12/02/2020 02:59:58	120220	12022020	025958	189.60	13.576605	-56.949648	189.85	-0.080	0.040	1.260	189.63	-1.30	1.80	 	 	 	 	 	 	 	 	 	 	 	 	 	 	 	 	 	 	1581476398	7.60	14.08
12/02/2020 02:59:59	120220	12022020	025959	189.69	13.576567	-56.949653	189.90	0.310	-0.300	0.940	189.67	-1.70	1.40	 	 	 	 	 	 	 	 	 	 	 	 	 	 	 	 	 	 	1581476399	8.01	14.83
12/02/2020 03:00:00	120220	12022020	030000	189.56	13.576530	-56.949660	189.74	0.450	-0.510	1.030	189.52	-1.90	1.50	 	 	 	 	 	 	 	 	 	 	 	 	 	 	 	 	 	 	1581476400	8.18	15.15
12/02/2020 03:00:01	120220	12022020	030001	189.41	13.576495	-56.949667	189.61	0.370	-0.360	1.260	189.39	-1.80	1.80	1017.20	26.10	26.10	21.00	21.00	-1.0	73.0	73.0	399.0	25.7	255.00	10.40	66.00	12.10	16	8248.0	27.2	27.2	1581476401	8.07	14.95
12/02/2020 03:00:02	120220	12022020	030002	189.33	13.576460	-56.949673	189.54	0.250	0.010	1.480	189.32	-1.40	2.00	 	 	 	 	 	 	 	 	 	 	 	 	 	 	 	 	 	 	1581476402	7.74	14.33
12/02/2020 03:00:03	120220	12022020	030003	189.25	13.576427	-56.949680	189.43	0.210	0.160	1.620	189.21	-1.20	2.10	 	 	 	 	 	 	 	 	 	 	 	 	 	 	 	 	 	 	1581476403	7.37	13.65
12/02/2020 03:00:04	120220	12022020	030004	188.96	13.576390	-56.949688	189.13	0.160	-0.260	2.030	188.89	-1.60	2.50	 	 	 	 	 	 	 	 	 	 	 	 	 	 	 	 	 	 	1581476404	7.45	13.80
12/02/2020 03:00:05	120220	12022020	030005	188.74	13.576353	-56.949700	188.97	-0.120	-0.620	2.580	188.74	-2.00	3.00	 	 	 	 	 	 	 	 	 	 	 	 	 	 	 	 	 	 	1581476405	8.12	15.04
12/02/2020 03:00:06	120220	12022020	030006	188.86	13.576320	-56.949715	189.13	-0.560	-0.300	2.930	188.91	-1.70	3.40	 	 	 	 	 	 	 	 	 	 	 	 	 	 	 	 	 	 	1581476406	8.33	15.43
12/02/2020 03:00:07	120220	12022020	030007	189.10	13.576290	-56.949728	189.36	-0.800	0.220	2.950	189.14	-1.20	3.40	 	 	 	 	 	 	 	 	 	 	 	 	 	 	 	 	 	 	1581476407	7.68	14.22
12/02/2020 03:00:08	120220	12022020	030008	189.20	13.576255	-56.949738	189.44	-0.480	0.140	2.580	189.21	-1.20	3.10	 	 	 	 	 	 	 	 	 	 	 	 	 	 	 	 	 	 	1581476408	7.17	13.28
12/02/2020 03:00:09	120220	12022020	030009	189.27	13.576218	-56.949745	189.51	0.200	-0.400	1.780	189.29	-1.80	2.30	 	 	 	 	 	 	 	 	 	 	 	 	 	 	 	 	 	 	1581476409	7.57	14.02
12/02/2020 03:00:10	120220	12022020	030010	189.31	13.576180	-56.949748	189.50	0.790	-0.920	0.970	189.29	-2.30	1.50	 	 	 	 	 	 	 	 	 	 	 	 	 	 	 	 	 	 	1581476410	8.16	15.11
12/02/2020 03:00:11	120220	12022020	030011	189.18	13.576142	-56.949748	189.36	0.940	-1.090	0.480	189.15	-2.50	1.00	 	 	 	 	 	 	 	 	 	 	 	 	 	 	 	 	 	 	1581476411	8.34	15.45
12/02/2020 03:00:12	120220	12022020	030012	189.07	13.576107	-56.949752	189.26	0.520	-0.680	0.490	189.06	-2.10	1.00	 	 	 	 	 	 	 	 	 	 	 	 	 	 	 	 	 	 	1581476412	8.20	15.19
12/02/2020 03:00:13	120220	12022020	030013	189.08	13.576073	-56.949760	189.30	-0.270	0.010	0.950	189.09	-1.40	1.40	 	 	 	 	 	 	 	 	 	 	 	 	 	 	 	 	 	 	1581476413	7.69	14.24
12/02/2020 03:00:14	120220	12022020	030014	189.27	13.576040	-56.949772	189.54	-0.920	0.500	1.370	189.35	-0.90	1.80	 	 	 	 	 	 	 	 	 	 	 	 	 	 	 	 	 	 	1581476414	7.31	13.54
12/02/2020 03:00:15	120220	12022020	030015	189.69	13.576005	-56.949783	189.97	-1.010	0.580	1.500	189.78	-0.80	2.00	 	 	 	 	 	 	 	 	 	 	 	 	 	 	 	 	 	 	1581476415	7.55	13.98
12/02/2020 03:00:16	120220	12022020	030016	190.06	13.575968	-56.949795	190.33	-0.550	0.260	1.620	190.06	-1.10	2.10	 	 	 	 	 	 	 	 	 	 	 	 	 	 	 	 	 	 	1581476416	7.85	14.54
12/02/2020 03:00:17	120220	12022020	030017	190.17	13.575932	-56.949805	190.37	0.100	-0.200	1.700	190.15	-1.60	2.20	 	 	 	 	 	 	 	 	 	 	 	 	 	 	 	 	 	 	1581476417	8.13	15.06
12/02/2020 03:00:18	120220	12022020	030018	189.93	13.575895	-56.949812	190.10	0.550	-0.570	1.670	189.87	-2.00	2.20	 	 	 	 	 	 	 	 	 	 	 	 	 	 	 	 	 	 	1581476418	8.20	15.19
12/02/2020 03:00:19	120220	12022020	030019	189.61	13.575858	-56.949817	189.81	0.560	-0.610	1.640	189.56	-2.00	2.10	 	 	 	 	 	 	 	 	 	 	 	 	 	 	 	 	 	 	1581476419	8.11	15.02
12/02/2020 03:00:20	120220	12022020	030020	189.48	13.575825	-56.949823	189.71	0.180	-0.360	1.650	189.48	-1.80	2.10	 	 	 	 	 	 	 	 	 	 	 	 	 	 	 	 	 	 	1581476420	7.82	14.48
12/02/2020 03:00:21	120220	12022020	030021	189.44	13.575792	-56.949833	189.65	-0.180	-0.200	1.720	189.42	-1.60	2.20	 	 	 	 	 	 	 	 	 	 	 	 	 	 	 	 	 	 	1581476421	7.41	13.72
12/02/2020 03:00:22	120220	12022020	030022	189.26	13.575757	-56.949845	189.44	-0.160	-0.350	1.860	189.21	-1.70	2.30	 	 	 	 	 	 	 	 	 	 	 	 	 	 	 	 	 	 	1581476422	7.48	13.85
12/02/2020 03:00:23	120220	12022020	030023	189.00	13.575720	-56.949855	189.22	0.160	-0.510	2.000	188.98	-1.90	2.50	 	 	 	 	 	 	 	 	 	 	 	 	 	 	 	 	 	 	1581476423	7.97	14.76
12/02/2020 03:00:24	120220	12022020	030024	189.10	13.575683	-56.949863	189.38	0.330	-0.240	1.790	189.17	-1.70	2.30	 	 	 	 	 	 	 	 	 	 	 	 	 	 	 	 	 	 	1581476424	8.20	15.19
12/02/2020 03:00:25	120220	12022020	030025	189.53	13.575650	-56.949868	189.81	0.130	0.180	1.470	189.62	-1.20	2.00	 	 	 	 	 	 	 	 	 	 	 	 	 	 	 	 	 	 	1581476425	7.76	14.37
12/02/2020 03:00:26	120220	12022020	030026	189.89	13.575615	-56.949875	190.14	-0.190	0.150	1.300	189.94	-1.20	1.80	 	 	 	 	 	 	 	 	 	 	 	 	 	 	 	 	 	 	1581476426	7.31	13.54
12/02/2020 03:00:27	120220	12022020	030027	190.10	13.575578	-56.949885	190.32	-0.310	-0.250	1.300	190.13	-1.60	1.80	 	 	 	 	 	 	 	 	 	 	 	 	 	 	 	 	 	 	1581476427	7.64	14.15
12/02/2020 03:00:28	120220	12022020	030028	190.21	13.575543	-56.949893	190.43	-0.180	-0.460	1.470	190.22	-1.90	2.00	 	 	 	 	 	 	 	 	 	 	 	 	 	 	 	 	 	 	1581476428	8.14	15.08
12/02/2020 03:00:29	120220	12022020	030029	190.29	13.575508	-56.949902	190.50	0.060	-0.360	1.590	190.29	-1.80	2.10	 	 	 	 	 	 	 	 	 	 	 	 	 	 	 	 	 	 	1581476429	8.04	14.89
12/02/2020 03:00:30	120220	12022020	030030	190.19	13.575473	-56.949908	190.36	0.300	-0.380	1.630	190.13	-1.80	2.10	 	 	 	 	 	 	 	 	 	 	 	 	 	 	 	 	 	 	1581476430	7.63	14.13
12/02/2020 03:00:31	120220	12022020	030031	189.87	13.575435	-56.949915	190.04	0.430	-0.630	1.690	189.82	-2.00	2.20	 	 	 	 	 	 	 	 	 	 	 	 	 	 	 	 	 	 	1581476431	7.71	14.28
12/02/2020 03:00:32	120220	12022020	030032	189.59	13.575398	-56.949922	189.77	0.280	-0.720	1.900	189.54	-2.10	2.40	 	 	 	 	 	 	 	 	 	 	 	 	 	 	 	 	 	 	1581476432	8.15	15.09
12/02/2020 03:00:33	120220	12022020	030033	189.33	13.575362	-56.949932	189.51	-0.070	-0.520	2.170	189.27	-1.90	2.70	 	 	 	 	 	 	 	 	 	 	 	 	 	 	 	 	 	 	1581476433	8.13	15.06
12/02/2020 03:00:34	120220	12022020	030034	189.06	13.575328	-56.949942	189.26	-0.420	-0.130	2.350	189.02	-1.50	2.80	 	 	 	 	 	 	 	 	 	 	 	 	 	 	 	 	 	 	1581476434	7.93	14.69
12/02/2020 03:00:35	120220	12022020	030035	188.98	13.575293	-56.949953	189.23	-0.620	0.280	2.480	189.00	-1.10	3.00	 	 	 	 	 	 	 	 	 	 	 	 	 	 	 	 	 	 	1581476435	7.83	14.50
12/02/2020 03:00:36	120220	12022020	030036	189.23	13.575258	-56.949965	189.52	-0.590	0.530	2.320	189.32	-0.90	2.80	 	 	 	 	 	 	 	 	 	 	 	 	 	 	 	 	 	 	1581476436	7.82	14.48
12/02/2020 03:00:37	120220	12022020	030037	189.70	13.575223	-56.949975	189.98	-0.300	0.490	1.750	189.78	-0.90	2.30	 	 	 	 	 	 	 	 	 	 	 	 	 	 	 	 	 	 	1581476437	7.82	14.48
12/02/2020 03:00:38	120220	12022020	030038	190.08	13.575187	-56.949980	190.31	0.200	0.200	1.070	190.14	-1.20	1.60	 	 	 	 	 	 	 	 	 	 	 	 	 	 	 	 	 	 	1581476438	7.84	14.52
12/02/2020 03:00:39	120220	12022020	030039	190.36	13.575150	-56.949983	190.58	0.660	-0.090	0.510	190.41	-1.50	1.00	 	 	 	 	 	 	 	 	 	 	 	 	 	 	 	 	 	 	1581476439	7.95	14.72
12/02/2020 03:00:40	120220	12022020	030040	190.55	13.575113	-56.949985	190.76	0.830	-0.390	0.320	190.55	-1.80	0.80	 	 	 	 	 	 	 	 	 	 	 	 	 	 	 	 	 	 	1581476440	7.90	14.63
12/02/2020 03:00:41	120220	12022020	030041	190.57	13.575078	-56.949992	190.75	0.640	-0.770	0.790	190.54	-2.10	1.30	 	 	 	 	 	 	 	 	 	 	 	 	 	 	 	 	 	 	1581476441	7.77	14.39
12/02/2020 03:00:42	120220	12022020	030042	190.35	13.575043	-56.950005	190.52	0.310	-1.030	1.710	190.30	-2.40	2.20	 	 	 	 	 	 	 	 	 	 	 	 	 	 	 	 	 	 	1581476442	7.82	14.48
12/02/2020 03:00:43	120220	12022020	030043	190.11	13.575008	-56.950017	190.32	0.090	-1.000	2.370	190.08	-2.40	2.80	 	 	 	 	 	 	 	 	 	 	 	 	 	 	 	 	 	 	1581476443	7.95	14.72
12/02/2020 03:00:44	120220	12022020	030044	190.04	13.574973	-56.950028	190.28	0.060	-0.730	2.490	190.03	-2.10	3.00	 	 	 	 	 	 	 	 	 	 	 	 	 	 	 	 	 	 	1581476444	7.93	14.69
12/02/2020 03:00:45	120220	12022020	030045	189.93	13.574938	-56.950037	190.17	0.070	-0.440	2.450	189.89	-1.80	2.90	 	 	 	 	 	 	 	 	 	 	 	 	 	 	 	 	 	 	1581476445	7.76	14.37
12/02/2020 03:00:46	120220	12022020	030046	189.74	13.574902	-56.950043	190.00	-0.110	-0.270	2.350	189.72	-1.60	2.90	 	 	 	 	 	 	 	 	 	 	 	 	 	 	 	 	 	 	1581476446	7.82	14.48
12/02/2020 03:00:47	120220	12022020	030047	189.71	13.574865	-56.950052	189.98	-0.560	-0.120	2.200	189.71	-1.50	2.70	 	 	 	 	 	 	 	 	 	 	 	 	 	 	 	 	 	 	1581476447	8.10	15.00
12/02/2020 03:00:48	120220	12022020	030048	189.75	13.574828	-56.950062	190.03	-0.990	-0.010	2.230	189.77	-1.40	2.70	 	 	 	 	 	 	 	 	 	 	 	 	 	 	 	 	 	 	1581476448	8.17	15.13
12/02/2020 03:00:49	120220	12022020	030049	189.89	13.574792	-56.950075	190.20	-1.020	0.240	2.210	189.94	-1.10	2.70	 	 	 	 	 	 	 	 	 	 	 	 	 	 	 	 	 	 	1581476449	8.25	15.28
12/02/2020 03:00:50	120220	12022020	030050	190.11	13.574757	-56.950085	190.41	-0.560	0.600	1.890	190.15	-0.80	2.40	 	 	 	 	 	 	 	 	 	 	 	 	 	 	 	 	 	 	1581476450	8.11	15.02
12/02/2020 03:00:51	120220	12022020	030051	190.20	13.574722	-56.950092	190.45	0.160	0.630	1.380	190.20	-0.70	1.90	 	 	 	 	 	 	 	 	 	 	 	 	 	 	 	 	 	 	1581476451	7.72	14.30
12/02/2020 03:00:52	120220	12022020	030052	190.22	13.574685	-56.950095	190.46	0.750	0.260	0.820	190.24	-1.10	1.40	 	 	 	 	 	 	 	 	 	 	 	 	 	 	 	 	 	 	1581476452	7.77	14.39
12/02/2020 03:00:53	120220	12022020	030053	190.43	13.574648	-56.950098	190.70	0.930	-0.060	0.310	190.51	-1.40	0.80	 	 	 	 	 	 	 	 	 	 	 	 	 	 	 	 	 	 	1581476453	8.09	14.98
12/02/2020 03:00:54	120220	12022020	030054	190.86	13.574613	-56.950102	191.14	0.690	-0.200	0.000	190.94	-1.60	0.50	 	 	 	 	 	 	 	 	 	 	 	 	 	 	 	 	 	 	1581476454	7.92	14.67
12/02/2020 03:00:55	120220	12022020	030055	191.17	13.574578	-56.950110	191.40	0.340	-0.590	0.340	191.19	-1.90	0.80	 	 	 	 	 	 	 	 	 	 	 	 	 	 	 	 	 	 	1581476455	7.45	13.80
12/02/2020 03:00:56	120220	12022020	030056	191.09	13.574543	-56.950123	191.26	0.250	-1.420	1.260	191.02	-2.70	1.70	 	 	 	 	 	 	 	 	 	 	 	 	 	 	 	 	 	 	1581476456	7.54	13.96
12/02/2020 03:00:57	120220	12022020	030057	190.53	13.574503	-56.950138	190.68	0.420	-2.210	2.370	190.38	-3.50	2.80	 	 	 	 	 	 	 	 	 	 	 	 	 	 	 	 	 	 	1581476457	8.28	15.33
12/02/2020 03:00:58	120220	12022020	030058	189.67	13.574467	-56.950150	189.85	0.390	-2.080	3.360	189.51	-3.50	3.80	 	 	 	 	 	 	 	 	 	 	 	 	 	 	 	 	 	 	1581476458	8.89	16.46
12/02/2020 03:00:59	120220	12022020	030059	189.03	13.574432	-56.950162	189.29	-0.210	-0.710	3.810	188.97	-2.20	4.30	 	 	 	 	 	 	 	 	 	 	 	 	 	 	 	 	 	 	1581476459	8.60	15.93
12/02/2020 03:01:00	120220	12022020	030100	189.06	13.574402	-56.950172	189.43	-1.160	1.050	3.470	189.15	-0.40	4.00	 	 	 	 	 	 	 	 	 	 	 	 	 	 	 	 	 	 	1581476460	7.62	14.11
12/02/2020 03:01:01	120220	12022020	030101	189.64	13.574368	-56.950182	190.02	-1.760	2.020	2.720	189.78	0.60	3.30	1017.20	26.10	26.10	21.10	21.20	-1.0	74.0	74.0	395.0	25.7	261.00	10.30	71.00	11.70	16	9399.0	27.2	27.2	1581476461	6.93	12.83
12/02/2020 03:01:02	120220	12022020	030102	190.42	13.574332	-56.950190	190.80	-1.490	1.770	1.760	190.60	0.40	2.30	 	 	 	 	 	 	 	 	 	 	 	 	 	 	 	 	 	 	1581476462	7.29	13.50
12/02/2020 03:01:03	120220	12022020	030103	191.25	13.574292	-56.950198	191.59	-0.530	0.730	0.730	191.39	-0.60	1.30	 	 	 	 	 	 	 	 	 	 	 	 	 	 	 	 	 	 	1581476463	8.22	15.22
12/02/2020 03:01:04	120220	12022020	030104	191.83	13.574252	-56.950205	192.08	0.560	-0.390	0.050	191.89	-1.70	0.60	 	 	 	 	 	 	 	 	 	 	 	 	 	 	 	 	 	 	1581476464	8.79	16.28
12/02/2020 03:01:05	120220	12022020	030105	191.94	13.574213	-56.950212	192.12	1.320	-1.130	-0.130	191.91	-2.50	0.40	 	 	 	 	 	 	 	 	 	 	 	 	 	 	 	 	 	 	1581476465	8.71	16.13
12/02/2020 03:01:06	120220	12022020	030106	191.62	13.574178	-56.950217	191.76	1.520	-1.320	0.180	191.53	-2.70	0.70	 	 	 	 	 	 	 	 	 	 	 	 	 	 	 	 	 	 	1581476466	8.21	15.20
12/02/2020 03:01:07	120220	12022020	030107	191.10	13.574145	-56.950222	191.24	1.160	-1.060	0.920	191.00	-2.40	1.40	 	 	 	 	 	 	 	 	 	 	 	 	 	 	 	 	 	 	1581476467	7.71	14.28
12/02/2020 03:01:08	120220	12022020	030108	190.59	13.574112	-56.950232	190.76	0.460	-0.570	1.790	190.59	-2.00	2.20	 	 	 	 	 	 	 	 	 	 	 	 	 	 	 	 	 	 	1581476468	7.40	13.70
12/02/2020 03:01:09	120220	12022020	030109	190.22	13.574078	-56.950247	190.45	-0.270	-0.140	2.490	190.19	-1.50	2.90	 	 	 	 	 	 	 	 	 	 	 	 	 	 	 	 	 	 	1581476469	7.40	13.70
12/02/2020 03:01:10	120220	12022020	030110	190.19	13.574045	-56.950262	190.49	-0.740	0.220	2.880	190.24	-1.20	3.40	 	 	 	 	 	 	 	 	 	 	 	 	 	 	 	 	 	 	1581476470	7.75	14.35
12/02/2020 03:01:11	120220	12022020	030111	190.56	13.574010	-56.950275	190.91	-0.820	0.460	2.650	190.67	-0.90	3.20	 	 	 	 	 	 	 	 	 	 	 	 	 	 	 	 	 	 	1581476471	7.99	14.80
12/02/2020 03:01:12	120220	12022020	030112	191.11	13.573975	-56.950285	191.43	-0.590	0.210	2.020	191.21	-1.10	2.50	 	 	 	 	 	 	 	 	 	 	 	 	 	 	 	 	 	 	1581476472	7.83	14.50
12/02/2020 03:01:13	120220	12022020	030113	191.45	13.573935	-56.950293	191.71	-0.250	-0.550	1.510	191.47	-1.90	2.00	 	 	 	 	 	 	 	 	 	 	 	 	 	 	 	 	 	 	1581476473	8.01	14.83
12/02/2020 03:01:14	120220	12022020	030114	191.37	13.573897	-56.950303	191.59	0.020	-1.180	1.370	191.32	-2.50	1.90	 	 	 	 	 	 	 	 	 	 	 	 	 	 	 	 	 	 	1581476474	8.56	15.85
12/02/2020 03:01:15	120220	12022020	030115	191.17	13.573860	-56.950312	191.40	0.090	-0.880	1.320	191.15	-2.30	1.80	 	 	 	 	 	 	 	 	 	 	 	 	 	 	 	 	 	 	1581476475	8.71	16.13
12/02/2020 03:01:16	120220	12022020	030116	191.19	13.573828	-56.950320	191.42	0.030	0.170	1.120	191.20	-1.20	1.60	 	 	 	 	 	 	 	 	 	 	 	 	 	 	 	 	 	 	1581476476	7.92	14.67
12/02/2020 03:01:17	120220	12022020	030117	191.27	13.573797	-56.950325	191.48	-0.010	0.880	0.930	191.28	-0.50	1.40	 	 	 	 	 	 	 	 	 	 	 	 	 	 	 	 	 	 	1581476477	6.91	12.80
12/02/2020 03:01:18	120220	12022020	030118	191.28	13.573762	-56.950333	191.46	0.040	0.650	1.030	191.26	-0.70	1.50	 	 	 	 	 	 	 	 	 	 	 	 	 	 	 	 	 	 	1581476478	6.94	12.85
12/02/2020 03:01:19	120220	12022020	030119	191.10	13.573723	-56.950345	191.25	0.190	-0.170	1.440	191.04	-1.50	1.90	 	 	 	 	 	 	 	 	 	 	 	 	 	 	 	 	 	 	1581476479	7.80	14.45
12/02/2020 03:01:20	120220	12022020	030120	190.72	13.573687	-56.950357	190.86	0.440	-0.860	1.960	190.63	-2.20	2.40	 	 	 	 	 	 	 	 	 	 	 	 	 	 	 	 	 	 	1581476480	8.50	15.74
12/02/2020 03:01:21	120220	12022020	030121	190.24	13.573650	-56.950368	190.43	0.730	-0.970	2.370	190.17	-2.30	2.80	 	 	 	 	 	 	 	 	 	 	 	 	 	 	 	 	 	 	1581476481	8.56	15.85
12/02/2020 03:01:22	120220	12022020	030122	189.97	13.573615	-56.950375	190.21	0.750	-0.600	2.330	189.97	-2.00	2.80	 	 	 	 	 	 	 	 	 	 	 	 	 	 	 	 	 	 	1581476482	8.10	15.00
12/02/2020 03:01:23	120220	12022020	030123	190.08	13.573582	-56.950382	190.37	0.310	-0.080	2.140	190.14	-1.50	2.60	 	 	 	 	 	 	 	 	 	 	 	 	 	 	 	 	 	 	1581476483	7.61	14.09
12/02/2020 03:01:24	120220	12022020	030124	190.37	13.573548	-56.950392	190.65	-0.390	0.180	2.100	190.41	-1.20	2.60	 	 	 	 	 	 	 	 	 	 	 	 	 	 	 	 	 	 	1581476484	7.30	13.52
12/02/2020 03:01:25	120220	12022020	030125	190.43	13.573513	-56.950403	190.67	-0.920	-0.140	2.430	190.40	-1.50	2.90	 	 	 	 	 	 	 	 	 	 	 	 	 	 	 	 	 	 	1581476485	7.39	13.69
12/02/2020 03:01:26	120220	12022020	030126	190.22	13.573477	-56.950420	190.46	-1.020	-0.750	2.930	190.18	-2.10	3.40	 	 	 	 	 	 	 	 	 	 	 	 	 	 	 	 	 	 	1581476486	8.06	14.93
12/02/2020 03:01:27	120220	12022020	030127	190.05	13.573440	-56.950437	190.32	-0.730	-0.840	3.200	190.04	-2.20	3.70	 	 	 	 	 	 	 	 	 	 	 	 	 	 	 	 	 	 	1581476487	8.74	16.19
12/02/2020 03:01:28	120220	12022020	030128	190.15	13.573408	-56.950448	190.46	-0.230	-0.190	2.810	190.20	-1.60	3.30	 	 	 	 	 	 	 	 	 	 	 	 	 	 	 	 	 	 	1581476488	8.47	15.69
12/02/2020 03:01:29	120220	12022020	030129	190.43	13.573375	-56.950452	190.72	0.370	0.520	1.850	190.48	-0.90	2.40	 	 	 	 	 	 	 	 	 	 	 	 	 	 	 	 	 	 	1581476489	7.47	13.83
12/02/2020 03:01:30	120220	12022020	030130	190.59	13.573338	-56.950453	190.81	0.950	0.430	0.860	190.59	-0.90	1.40	 	 	 	 	 	 	 	 	 	 	 	 	 	 	 	 	 	 	1581476490	7.05	13.06
12/02/2020 03:01:31	120220	12022020	030131	190.54	13.573298	-56.950453	190.74	1.260	-0.240	0.440	190.52	-1.60	1.00	 	 	 	 	 	 	 	 	 	 	 	 	 	 	 	 	 	 	1581476491	7.85	14.54
12/02/2020 03:01:32	120220	12022020	030132	190.47	13.573260	-56.950457	190.69	1.030	-0.660	0.650	190.45	-2.00	1.10	 	 	 	 	 	 	 	 	 	 	 	 	 	 	 	 	 	 	1581476492	8.58	15.89
12/02/2020 03:01:33	120220	12022020	030133	190.45	13.573225	-56.950465	190.68	0.240	-0.610	1.400	190.45	-2.00	1.80	 	 	 	 	 	 	 	 	 	 	 	 	 	 	 	 	 	 	1581476493	8.32	15.41
12/02/2020 03:01:34	120220	12022020	030134	190.37	13.573193	-56.950482	190.60	-0.680	-0.370	2.550	190.33	-1.80	3.00	 	 	 	 	 	 	 	 	 	 	 	 	 	 	 	 	 	 	1581476494	7.70	14.26
12/02/2020 03:01:35	120220	12022020	030135	190.14	13.573162	-56.950500	190.37	-1.210	-0.220	3.550	190.08	-1.60	4.00	 	 	 	 	 	 	 	 	 	 	 	 	 	 	 	 	 	 	1581476495	7.68	14.22
12/02/2020 03:01:36	120220	12022020	030136	189.87	13.573127	-56.950518	190.11	-0.990	-0.220	3.910	189.82	-1.60	4.40	 	 	 	 	 	 	 	 	 	 	 	 	 	 	 	 	 	 	1581476496	8.04	14.89
12/02/2020 03:01:37	120220	12022020	030137	189.68	13.573090	-56.950530	189.97	-0.230	-0.360	3.520	189.67	-1.70	4.00	 	 	 	 	 	 	 	 	 	 	 	 	 	 	 	 	 	 	1581476497	8.15	15.09
12/02/2020 03:01:38	120220	12022020	030138	189.79	13.573053	-56.950535	190.12	0.490	-0.380	2.550	189.87	-1.80	3.10	 	 	 	 	 	 	 	 	 	 	 	 	 	 	 	 	 	 	1581476498	8.17	15.13
12/02/2020 03:01:39	120220	12022020	030139	190.26	13.573018	-56.950537	190.60	0.640	-0.160	1.470	190.38	-1.60	2.00	 	 	 	 	 	 	 	 	 	 	 	 	 	 	 	 	 	 	1581476499	8.04	14.89
12/02/2020 03:01:40	120220	12022020	030140	190.83	13.572983	-56.950540	191.13	0.280	0.120	0.660	190.93	-1.30	1.20	 	 	 	 	 	 	 	 	 	 	 	 	 	 	 	 	 	 	1581476500	7.69	14.24
12/02/2020 03:01:41	120220	12022020	030141	191.12	13.572950	-56.950547	191.33	-0.150	0.030	0.560	191.11	-1.30	1.10	 	 	 	 	 	 	 	 	 	 	 	 	 	 	 	 	 	 	1581476501	7.35	13.61
12/02/2020 03:01:42	120220	12022020	030142	190.92	13.572913	-56.950558	191.07	-0.260	-0.370	1.070	190.83	-1.70	1.50	 	 	 	 	 	 	 	 	 	 	 	 	 	 	 	 	 	 	1581476502	7.53	13.95
12/02/2020 03:01:43	120220	12022020	030143	190.55	13.572878	-56.950570	190.73	-0.050	-0.540	1.540	190.50	-1.90	2.00	 	 	 	 	 	 	 	 	 	 	 	 	 	 	 	 	 	 	1581476503	8.03	14.87
12/02/2020 03:01:44	120220	12022020	030144	190.47	13.572845	-56.950580	190.69	0.170	-0.350	1.650	190.47	-1.70	2.10	 	 	 	 	 	 	 	 	 	 	 	 	 	 	 	 	 	 	1581476504	8.07	14.95
12/02/2020 03:01:45	120220	12022020	030145	190.56	13.572810	-56.950588	190.78	0.260	-0.260	1.680	190.58	-1.60	2.20	 	 	 	 	 	 	 	 	 	 	 	 	 	 	 	 	 	 	1581476505	7.64	14.15
12/02/2020 03:01:46	120220	12022020	030146	190.55	13.572773	-56.950597	190.74	0.260	-0.420	1.670	190.54	-1.80	2.20	 	 	 	 	 	 	 	 	 	 	 	 	 	 	 	 	 	 	1581476506	7.65	14.17
12/02/2020 03:01:47	120220	12022020	030147	190.47	13.572738	-56.950603	190.66	0.170	-0.380	1.620	190.47	-1.80	2.10	 	 	 	 	 	 	 	 	 	 	 	 	 	 	 	 	 	 	1581476507	7.98	14.78
12/02/2020 03:01:48	120220	12022020	030148	190.48	13.572703	-56.950612	190.67	-0.140	-0.000	1.800	190.47	-1.40	2.30	 	 	 	 	 	 	 	 	 	 	 	 	 	 	 	 	 	 	1581476508	7.92	14.67
12/02/2020 03:01:49	120220	12022020	030149	190.39	13.572670	-56.950623	190.58	-0.500	0.250	2.200	190.36	-1.10	2.70	 	 	 	 	 	 	 	 	 	 	 	 	 	 	 	 	 	 	1581476509	7.45	13.80
12/02/2020 03:01:50	120220	12022020	030150	190.24	13.572637	-56.950637	190.45	-0.650	0.110	2.400	190.24	-1.20	2.90	 	 	 	 	 	 	 	 	 	 	 	 	 	 	 	 	 	 	1581476510	7.48	13.85
12/02/2020 03:01:51	120220	12022020	030151	190.35	13.572602	-56.950648	190.61	-0.480	-0.120	2.100	190.41	-1.50	2.60	 	 	 	 	 	 	 	 	 	 	 	 	 	 	 	 	 	 	1581476511	7.95	14.72
12/02/2020 03:01:52	120220	12022020	030152	190.63	13.572567	-56.950657	190.88	-0.080	-0.280	1.550	190.67	-1.60	2.10	 	 	 	 	 	 	 	 	 	 	 	 	 	 	 	 	 	 	1581476512	7.99	14.80
12/02/2020 03:01:53	120220	12022020	030153	190.66	13.572530	-56.950663	190.82	0.390	-0.600	1.240	190.61	-2.00	1.70	 	 	 	 	 	 	 	 	 	 	 	 	 	 	 	 	 	 	1581476513	7.70	14.26
12/02/2020 03:01:54	120220	12022020	030154	190.19	13.572493	-56.950670	190.30	0.720	-1.070	1.300	190.06	-2.40	1.80	 	 	 	 	 	 	 	 	 	 	 	 	 	 	 	 	 	 	1581476514	7.77	14.39
12/02/2020 03:01:55	120220	12022020	030155	189.54	13.572455	-56.950678	189.68	0.620	-1.060	1.570	189.43	-2.40	2.00	 	 	 	 	 	 	 	 	 	 	 	 	 	 	 	 	 	 	1581476515	8.23	15.24
12/02/2020 03:01:56	120220	12022020	030156	189.11	13.572422	-56.950688	189.32	0.080	-0.310	2.010	189.11	-1.70	2.50	 	 	 	 	 	 	 	 	 	 	 	 	 	 	 	 	 	 	1581476516	8.15	15.09
12/02/2020 03:01:57	120220	12022020	030157	189.11	13.572392	-56.950698	189.39	-0.490	0.750	2.210	189.16	-0.70	2.70	 	 	 	 	 	 	 	 	 	 	 	 	 	 	 	 	 	 	1581476517	7.52	13.93
12/02/2020 03:01:58	120220	12022020	030158	189.45	13.572358	-56.950708	189.75	-0.680	1.200	1.980	189.45	-0.20	2.50	 	 	 	 	 	 	 	 	 	 	 	 	 	 	 	 	 	 	1581476518	6.99	12.95
12/02/2020 03:01:59	120220	12022020	030159	189.95	13.572322	-56.950717	190.24	-0.400	0.610	1.670	190.03	-0.70	2.20	 	 	 	 	 	 	 	 	 	 	 	 	 	 	 	 	 	 	1581476519	7.25	13.43
12/02/2020 03:02:00	120220	12022020	030200	190.25	13.572283	-56.950727	190.49	0.070	-0.520	1.740	190.27	-1.80	2.20	 	 	 	 	 	 	 	 	 	 	 	 	 	 	 	 	 	 	1581476520	8.09	14.98
12/02/2020 03:02:01	120220	12022020	030201	190.19	13.572245	-56.950738	190.40	0.360	-1.280	2.060	190.14	-2.60	2.50	1017.10	26.00	26.00	20.70	20.90	-1.0	73.0	73.0	396.0	25.7	258.00	11.00	70.00	12.50	16	9153.0	27.2	27.2	1581476521	8.67	16.06
12/02/2020 03:02:02	120220	12022020	030202	189.99	13.572212	-56.950748	190.22	0.340	-1.090	2.190	189.97	-2.50	2.70	 	 	 	 	 	 	 	 	 	 	 	 	 	 	 	 	 	 	1581476522	8.44	15.63
12/02/2020 03:02:03	120220	12022020	030203	189.97	13.572182	-56.950755	190.23	0.180	-0.220	2.010	189.99	-1.60	2.50	 	 	 	 	 	 	 	 	 	 	 	 	 	 	 	 	 	 	1581476523	7.56	14.00
12/02/2020 03:02:04	120220	12022020	030204	190.03	13.572150	-56.950762	190.26	0.130	0.290	1.710	190.02	-1.10	2.20	 	 	 	 	 	 	 	 	 	 	 	 	 	 	 	 	 	 	1581476524	6.72	12.45
12/02/2020 03:02:05	120220	12022020	030205	189.86	13.572113	-56.950767	190.04	0.270	-0.070	1.630	189.79	-1.40	2.10	 	 	 	 	 	 	 	 	 	 	 	 	 	 	 	 	 	 	1581476525	6.94	12.85
12/02/2020 03:02:06	120220	12022020	030206	189.52	13.572073	-56.950775	189.70	0.330	-0.730	1.950	189.45	-2.10	2.40	 	 	 	 	 	 	 	 	 	 	 	 	 	 	 	 	 	 	1581476526	7.98	14.78
12/02/2020 03:02:07	120220	12022020	030207	189.23	13.572037	-56.950785	189.45	0.040	-0.910	2.530	189.18	-2.30	3.00	 	 	 	 	 	 	 	 	 	 	 	 	 	 	 	 	 	 	1581476527	8.60	15.93
12/02/2020 03:02:08	120220	12022020	030208	188.99	13.572003	-56.950798	189.22	-0.540	-0.470	3.180	188.93	-1.90	3.60	 	 	 	 	 	 	 	 	 	 	 	 	 	 	 	 	 	 	1581476528	8.30	15.37
12/02/2020 03:02:09	120220	12022020	030209	188.75	13.571972	-56.950813	189.02	-1.040	0.140	3.570	188.71	-1.20	4.00	 	 	 	 	 	 	 	 	 	 	 	 	 	 	 	 	 	 	1581476529	7.71	14.28
12/02/2020 03:02:10	120220	12022020	030210	188.72	13.571938	-56.950828	189.05	-1.070	0.520	3.410	188.76	-0.90	3.90	 	 	 	 	 	 	 	 	 	 	 	 	 	 	 	 	 	 	1581476530	7.51	13.91
12/02/2020 03:02:11	120220	12022020	030211	189.06	13.571903	-56.950838	189.43	-0.440	0.480	2.640	189.16	-0.90	3.20	 	 	 	 	 	 	 	 	 	 	 	 	 	 	 	 	 	 	1581476531	7.59	14.06
12/02/2020 03:02:12	120220	12022020	030212	189.71	13.571867	-56.950842	190.08	0.550	0.230	1.260	189.87	-1.10	1.80	 	 	 	 	 	 	 	 	 	 	 	 	 	 	 	 	 	 	1581476532	7.78	14.41
12/02/2020 03:02:13	120220	12022020	030213	190.53	13.571830	-56.950838	190.84	1.270	-0.110	0.000	190.67	-1.50	0.60	 	 	 	 	 	 	 	 	 	 	 	 	 	 	 	 	 	 	1581476533	7.88	14.59
12/02/2020 03:02:14	120220	12022020	030214	191.11	13.571795	-56.950840	191.35	1.220	-0.510	-0.320	191.17	-1.90	0.20	 	 	 	 	 	 	 	 	 	 	 	 	 	 	 	 	 	 	1581476534	7.98	14.78
12/02/2020 03:02:15	120220	12022020	030215	191.12	13.571760	-56.950847	191.28	0.530	-0.900	0.380	191.04	-2.20	0.80	 	 	 	 	 	 	 	 	 	 	 	 	 	 	 	 	 	 	1581476535	7.75	14.35
12/02/2020 03:02:16	120220	12022020	030216	190.40	13.571727	-56.950862	190.49	-0.250	-1.230	1.980	190.17	-2.60	2.40	 	 	 	 	 	 	 	 	 	 	 	 	 	 	 	 	 	 	1581476536	7.60	14.08
12/02/2020 03:02:17	120220	12022020	030217	189.18	13.571692	-56.950882	189.29	-0.610	-1.410	3.820	188.93	-2.80	4.20	 	 	 	 	 	 	 	 	 	 	 	 	 	 	 	 	 	 	1581476537	7.93	14.69
12/02/2020 03:02:18	120220	12022020	030218	188.13	13.571657	-56.950900	188.36	-0.570	-0.980	4.920	188.00	-2.40	5.40	 	 	 	 	 	 	 	 	 	 	 	 	 	 	 	 	 	 	1581476538	8.58	15.89
12/02/2020 03:02:19	120220	12022020	030219	187.87	13.571625	-56.950913	188.26	-0.510	0.210	4.800	187.94	-1.20	5.30	 	 	 	 	 	 	 	 	 	 	 	 	 	 	 	 	 	 	1581476539	8.42	15.59
12/02/2020 03:02:20	120220	12022020	030220	188.56	13.571597	-56.950922	189.03	-0.610	1.520	3.560	188.79	0.10	4.10	 	 	 	 	 	 	 	 	 	 	 	 	 	 	 	 	 	 	1581476540	7.39	13.69
12/02/2020 03:02:21	120220	12022020	030221	189.80	13.571565	-56.950925	190.23	-0.640	1.910	1.750	190.04	0.50	2.30	 	 	 	 	 	 	 	 	 	 	 	 	 	 	 	 	 	 	1581476541	6.47	11.98
12/02/2020 03:02:22	120220	12022020	030222	190.78	13.571528	-56.950928	191.08	-0.170	0.760	0.220	190.91	-0.50	0.80	 	 	 	 	 	 	 	 	 	 	 	 	 	 	 	 	 	 	1581476542	6.65	12.32
12/02/2020 03:02:23	120220	12022020	030223	191.12	13.571487	-56.950932	191.33	0.720	-1.110	-0.530	191.14	-2.40	0.00	 	 	 	 	 	 	 	 	 	 	 	 	 	 	 	 	 	 	1581476543	7.94	14.70
12/02/2020 03:02:24	120220	12022020	030224	191.05	13.571448	-56.950937	191.24	1.410	-2.170	-0.630	191.03	-3.50	-0.10	 	 	 	 	 	 	 	 	 	 	 	 	 	 	 	 	 	 	1581476544	8.96	16.59
12/02/2020 03:02:25	120220	12022020	030225	190.89	13.571415	-56.950942	191.09	1.290	-1.740	-0.240	190.85	-3.20	0.20	 	 	 	 	 	 	 	 	 	 	 	 	 	 	 	 	 	 	1581476545	8.49	15.72
12/02/2020 03:02:26	120220	12022020	030226	190.72	13.571387	-56.950950	190.93	0.420	-0.590	0.640	190.69	-2.00	1.10	 	 	 	 	 	 	 	 	 	 	 	 	 	 	 	 	 	 	1581476546	7.12	13.19
12/02/2020 03:02:27	120220	12022020	030227	190.50	13.571357	-56.950962	190.70	-0.610	0.160	1.780	190.44	-1.20	2.20	 	 	 	 	 	 	 	 	 	 	 	 	 	 	 	 	 	 	1581476547	6.34	11.74
12/02/2020 03:02:28	120220	12022020	030228	190.07	13.571322	-56.950978	190.24	-1.170	0.080	2.850	189.95	-1.30	3.30	 	 	 	 	 	 	 	 	 	 	 	 	 	 	 	 	 	 	1581476548	6.92	12.82
12/02/2020 03:02:29	120220	12022020	030229	189.45	13.571285	-56.950997	189.66	-1.080	-0.290	3.750	189.34	-1.60	4.20	 	 	 	 	 	 	 	 	 	 	 	 	 	 	 	 	 	 	1581476549	8.16	15.11
12/02/2020 03:02:30	120220	12022020	030230	189.11	13.571250	-56.951012	189.41	-0.670	-0.070	3.900	189.10	-1.50	4.40	 	 	 	 	 	 	 	 	 	 	 	 	 	 	 	 	 	 	1581476550	8.91	16.50
12/02/2020 03:02:31	120220	12022020	030231	189.31	13.571217	-56.951022	189.68	-0.350	0.650	3.150	189.41	-0.70	3.70	 	 	 	 	 	 	 	 	 	 	 	 	 	 	 	 	 	 	1581476551	8.28	15.33
12/02/2020 03:02:32	120220	12022020	030232	189.88	13.571187	-56.951027	190.23	-0.180	1.100	1.910	190.00	-0.30	2.50	 	 	 	 	 	 	 	 	 	 	 	 	 	 	 	 	 	 	1581476552	7.14	13.22
12/02/2020 03:02:33	120220	12022020	030233	190.42	13.571153	-56.951032	190.70	0.070	0.690	0.850	190.50	-0.60	1.40	 	 	 	 	 	 	 	 	 	 	 	 	 	 	 	 	 	 	1581476553	6.77	12.54
12/02/2020 03:02:34	120220	12022020	030234	190.60	13.571117	-56.951037	190.77	0.580	-0.380	0.200	190.60	-1.70	0.70	 	 	 	 	 	 	 	 	 	 	 	 	 	 	 	 	 	 	1581476554	7.26	13.45
12/02/2020 03:02:35	120220	12022020	030235	190.51	13.571080	-56.951042	190.69	1.090	-1.110	-0.170	190.50	-2.40	0.40	 	 	 	 	 	 	 	 	 	 	 	 	 	 	 	 	 	 	1581476555	7.97	14.76
12/02/2020 03:02:36	120220	12022020	030236	190.54	13.571047	-56.951047	190.74	1.190	-1.030	-0.150	190.55	-2.40	0.40	 	 	 	 	 	 	 	 	 	 	 	 	 	 	 	 	 	 	1581476556	7.91	14.65
12/02/2020 03:02:37	120220	12022020	030237	190.46	13.571017	-56.951053	190.62	0.820	-0.790	0.410	190.39	-2.20	0.90	 	 	 	 	 	 	 	 	 	 	 	 	 	 	 	 	 	 	1581476557	7.07	13.09
12/02/2020 03:02:38	120220	12022020	030238	189.97	13.570982	-56.951063	190.11	0.270	-0.800	1.410	189.84	-2.20	1.90	 	 	 	 	 	 	 	 	 	 	 	 	 	 	 	 	 	 	1581476558	6.88	12.74
12/02/2020 03:02:39	120220	12022020	030239	189.38	13.570948	-56.951077	189.57	-0.310	-0.730	2.590	189.28	-2.10	3.00	 	 	 	 	 	 	 	 	 	 	 	 	 	 	 	 	 	 	1581476559	7.52	13.93
12/02/2020 03:02:40	120220	12022020	030240	189.05	13.570915	-56.951092	189.32	-0.810	-0.220	3.530	189.02	-1.60	4.00	 	 	 	 	 	 	 	 	 	 	 	 	 	 	 	 	 	 	1581476560	7.95	14.72
12/02/2020 03:02:41	120220	12022020	030241	189.06	13.570885	-56.951107	189.39	-1.110	0.440	3.880	189.09	-0.90	4.40	 	 	 	 	 	 	 	 	 	 	 	 	 	 	 	 	 	 	1581476561	7.71	14.28
12/02/2020 03:02:42	120220	12022020	030242	189.24	13.570852	-56.951120	189.57	-1.000	0.630	3.640	189.27	-0.70	4.20	 	 	 	 	 	 	 	 	 	 	 	 	 	 	 	 	 	 	1581476562	7.36	13.63
12/02/2020 03:02:43	120220	12022020	030243	189.37	13.570817	-56.951130	189.68	-0.450	0.200	3.020	189.38	-1.10	3.50	 	 	 	 	 	 	 	 	 	 	 	 	 	 	 	 	 	 	1581476563	7.48	13.85
12/02/2020 03:02:44	120220	12022020	030244	189.41	13.570778	-56.951137	189.68	0.280	-0.370	2.150	189.42	-1.70	2.70	 	 	 	 	 	 	 	 	 	 	 	 	 	 	 	 	 	 	1581476564	7.96	14.74
12/02/2020 03:02:45	120220	12022020	030245	189.49	13.570743	-56.951138	189.73	0.780	-0.480	1.120	189.50	-1.90	1.70	 	 	 	 	 	 	 	 	 	 	 	 	 	 	 	 	 	 	1581476565	8.12	15.04
12/02/2020 03:02:46	120220	12022020	030246	189.52	13.570710	-56.951140	189.71	0.890	-0.200	0.410	189.52	-1.60	1.00	 	 	 	 	 	 	 	 	 	 	 	 	 	 	 	 	 	 	1581476566	7.66	14.19
12/02/2020 03:02:47	120220	12022020	030247	189.37	13.570678	-56.951142	189.54	0.690	-0.030	0.270	189.33	-1.40	0.80	 	 	 	 	 	 	 	 	 	 	 	 	 	 	 	 	 	 	1581476567	7.11	13.17
12/02/2020 03:02:48	120220	12022020	030248	189.22	13.570643	-56.951148	189.41	0.330	-0.160	0.540	189.22	-1.50	1.00	 	 	 	 	 	 	 	 	 	 	 	 	 	 	 	 	 	 	1581476568	7.07	13.09
12/02/2020 03:02:49	120220	12022020	030249	189.10	13.570608	-56.951160	189.29	-0.030	-0.460	1.230	189.06	-1.80	1.70	 	 	 	 	 	 	 	 	 	 	 	 	 	 	 	 	 	 	1581476569	7.42	13.74
12/02/2020 03:02:50	120220	12022020	030250	188.97	13.570575	-56.951173	189.22	-0.320	-0.610	2.150	188.97	-2.00	2.60	 	 	 	 	 	 	 	 	 	 	 	 	 	 	 	 	 	 	1581476570	7.79	14.43
12/02/2020 03:02:51	120220	12022020	030251	189.06	13.570543	-56.951188	189.35	-0.530	-0.420	2.830	189.10	-1.80	3.30	 	 	 	 	 	 	 	 	 	 	 	 	 	 	 	 	 	 	1581476571	7.90	14.63
12/02/2020 03:02:52	120220	12022020	030252	189.31	13.570512	-56.951202	189.62	-0.630	-0.080	2.970	189.36	-1.50	3.50	 	 	 	 	 	 	 	 	 	 	 	 	 	 	 	 	 	 	1581476572	7.61	14.09
12/02/2020 03:02:53	120220	12022020	030253	189.44	13.570478	-56.951210	189.71	-0.460	-0.020	2.810	189.44	-1.40	3.30	 	 	 	 	 	 	 	 	 	 	 	 	 	 	 	 	 	 	1581476573	7.24	13.41
12/02/2020 03:02:54	120220	12022020	030254	189.30	13.570443	-56.951218	189.54	0.010	-0.360	2.520	189.26	-1.70	3.00	 	 	 	 	 	 	 	 	 	 	 	 	 	 	 	 	 	 	1581476574	7.33	13.58
12/02/2020 03:02:55	120220	12022020	030255	189.13	13.570407	-56.951223	189.38	0.500	-0.510	1.960	189.12	-1.90	2.50	 	 	 	 	 	 	 	 	 	 	 	 	 	 	 	 	 	 	1581476575	7.89	14.61
12/02/2020 03:02:56	120220	12022020	030256	189.20	13.570373	-56.951227	189.47	0.700	-0.050	1.230	189.25	-1.40	1.80	 	 	 	 	 	 	 	 	 	 	 	 	 	 	 	 	 	 	1581476576	7.93	14.69
12/02/2020 03:02:57	120220	12022020	030257	189.41	13.570342	-56.951228	189.64	0.570	0.470	0.750	189.43	-0.90	1.30	 	 	 	 	 	 	 	 	 	 	 	 	 	 	 	 	 	 	1581476577	7.23	13.39
12/02/2020 03:02:58	120220	12022020	030258	189.41	13.570307	-56.951233	189.59	0.350	0.280	0.790	189.38	-1.10	1.30	 	 	 	 	 	 	 	 	 	 	 	 	 	 	 	 	 	 	1581476578	6.83	12.65
12/02/2020 03:02:59	120220	12022020	030259	189.17	13.570270	-56.951242	189.34	0.160	-0.510	1.290	189.11	-1.80	1.80	 	 	 	 	 	 	 	 	 	 	 	 	 	 	 	 	 	 	1581476579	7.36	13.63
12/02/2020 03:03:00	120220	12022020	030300	188.93	13.570235	-56.951255	189.16	-0.100	-0.970	2.080	188.91	-2.30	2.50	 	 	 	 	 	 	 	 	 	 	 	 	 	 	 	 	 	 	1581476580	8.15	15.09
12/02/2020 03:03:01	120220	12022020	030301	188.84	13.570202	-56.951268	189.09	-0.400	-0.730	2.690	188.83	-2.10	3.20	1017.10	26.10	26.10	20.90	20.90	-1.0	73.0	73.0	399.0	25.7	258.00	11.00	70.00	12.40	16	8833.0	27.2	27.2	1581476581	8.15	15.09
12/02/2020 03:03:02	120220	12022020	030302	188.74	13.570172	-56.951282	188.99	-0.480	-0.360	2.830	188.71	-1.70	3.30	 	 	 	 	 	 	 	 	 	 	 	 	 	 	 	 	 	 	1581476582	7.50	13.89
12/02/2020 03:03:03	120220	12022020	030303	188.65	13.570138	-56.951292	188.93	-0.270	-0.140	2.620	188.66	-1.50	3.10	 	 	 	 	 	 	 	 	 	 	 	 	 	 	 	 	 	 	1581476583	7.24	13.41
12/02/2020 03:03:04	120220	12022020	030304	188.76	13.570103	-56.951297	189.05	-0.060	0.050	2.250	188.80	-1.30	2.80	 	 	 	 	 	 	 	 	 	 	 	 	 	 	 	 	 	 	1581476584	7.42	13.74
12/02/2020 03:03:05	120220	12022020	030305	188.93	13.570068	-56.951303	189.20	-0.080	0.010	1.900	188.96	-1.30	2.40	 	 	 	 	 	 	 	 	 	 	 	 	 	 	 	 	 	 	1581476585	7.43	13.76
12/02/2020 03:03:06	120220	12022020	030306	189.00	13.570033	-56.951312	189.25	-0.250	-0.250	1.770	189.02	-1.60	2.30	 	 	 	 	 	 	 	 	 	 	 	 	 	 	 	 	 	 	1581476586	7.56	14.00
12/02/2020 03:03:07	120220	12022020	030307	189.17	13.569998	-56.951322	189.46	-0.250	-0.330	1.680	189.24	-1.70	2.20	 	 	 	 	 	 	 	 	 	 	 	 	 	 	 	 	 	 	1581476587	7.85	14.54
12/02/2020 03:03:08	120220	12022020	030308	189.47	13.569965	-56.951328	189.74	0.080	-0.190	1.450	189.50	-1.60	2.00	 	 	 	 	 	 	 	 	 	 	 	 	 	 	 	 	 	 	1581476588	7.71	14.28
12/02/2020 03:03:09	120220	12022020	030309	189.44	13.569932	-56.951333	189.64	0.640	-0.290	1.340	189.37	-1.60	1.80	 	 	 	 	 	 	 	 	 	 	 	 	 	 	 	 	 	 	1581476589	7.32	13.56
12/02/2020 03:03:10	120220	12022020	030310	188.97	13.569893	-56.951338	189.14	1.000	-0.650	1.550	188.87	-2.00	2.00	 	 	 	 	 	 	 	 	 	 	 	 	 	 	 	 	 	 	1581476590	7.51	13.91
12/02/2020 03:03:11	120220	12022020	030311	188.62	13.569858	-56.951343	188.88	0.650	-0.540	1.870	188.62	-1.90	2.40	 	 	 	 	 	 	 	 	 	 	 	 	 	 	 	 	 	 	1581476591	8.06	14.93
12/02/2020 03:03:12	120220	12022020	030312	188.86	13.569828	-56.951355	189.22	-0.390	0.250	2.250	188.97	-1.20	2.70	 	 	 	 	 	 	 	 	 	 	 	 	 	 	 	 	 	 	1581476592	7.81	14.46
12/02/2020 03:03:13	120220	12022020	030313	189.43	13.569800	-56.951370	189.76	-1.380	0.900	2.650	189.52	-0.50	3.10	 	 	 	 	 	 	 	 	 	 	 	 	 	 	 	 	 	 	1581476593	6.92	12.82
12/02/2020 03:03:14	120220	12022020	030314	189.73	13.569767	-56.951388	190.01	-1.420	0.630	2.900	189.75	-0.70	3.40	 	 	 	 	 	 	 	 	 	 	 	 	 	 	 	 	 	 	1581476594	6.91	12.80
12/02/2020 03:03:15	120220	12022020	030315	189.73	13.569730	-56.951400	189.98	-0.320	-0.320	2.560	189.72	-1.60	3.10	 	 	 	 	 	 	 	 	 	 	 	 	 	 	 	 	 	 	1581476595	7.78	14.41
12/02/2020 03:03:16	120220	12022020	030316	189.70	13.569692	-56.951407	189.96	0.950	-0.990	1.810	189.70	-2.30	2.40	 	 	 	 	 	 	 	 	 	 	 	 	 	 	 	 	 	 	1581476596	8.43	15.61
12/02/2020 03:03:17	120220	12022020	030317	189.65	13.569657	-56.951407	189.87	1.380	-1.020	1.110	189.63	-2.40	1.70	 	 	 	 	 	 	 	 	 	 	 	 	 	 	 	 	 	 	1581476597	8.25	15.28
12/02/2020 03:03:18	120220	12022020	030318	189.49	13.569625	-56.951410	189.68	0.810	-0.620	0.740	189.45	-2.00	1.30	 	 	 	 	 	 	 	 	 	 	 	 	 	 	 	 	 	 	1581476598	7.61	14.09
12/02/2020 03:03:19	120220	12022020	030319	189.28	13.569592	-56.951417	189.47	-0.100	-0.260	0.950	189.24	-1.60	1.40	 	 	 	 	 	 	 	 	 	 	 	 	 	 	 	 	 	 	1581476599	7.06	13.08
12/02/2020 03:03:20	120220	12022020	030320	189.10	13.569560	-56.951430	189.31	-0.650	-0.130	1.410	189.08	-1.50	1.90	 	 	 	 	 	 	 	 	 	 	 	 	 	 	 	 	 	 	1581476600	7.05	13.06
12/02/2020 03:03:21	120220	12022020	030321	189.11	13.569525	-56.951442	189.35	-0.690	-0.100	1.590	189.15	-1.50	2.10	 	 	 	 	 	 	 	 	 	 	 	 	 	 	 	 	 	 	1581476601	7.55	13.98
12/02/2020 03:03:22	120220	12022020	030322	189.31	13.569490	-56.951453	189.54	-0.510	-0.160	1.610	189.35	-1.50	2.10	 	 	 	 	 	 	 	 	 	 	 	 	 	 	 	 	 	 	1581476602	7.77	14.39
12/02/2020 03:03:23	120220	12022020	030323	189.42	13.569455	-56.951465	189.63	-0.280	-0.310	1.680	189.42	-1.60	2.20	 	 	 	 	 	 	 	 	 	 	 	 	 	 	 	 	 	 	1581476603	7.80	14.45
12/02/2020 03:03:24	120220	12022020	030324	189.37	13.569420	-56.951473	189.58	-0.030	-0.330	1.770	189.37	-1.70	2.30	 	 	 	 	 	 	 	 	 	 	 	 	 	 	 	 	 	 	1581476604	7.89	14.61
12/02/2020 03:03:25	120220	12022020	030325	189.24	13.569387	-56.951482	189.44	0.180	-0.180	1.880	189.20	-1.50	2.40	 	 	 	 	 	 	 	 	 	 	 	 	 	 	 	 	 	 	1581476605	7.81	14.46
12/02/2020 03:03:26	120220	12022020	030326	189.00	13.569352	-56.951488	189.21	0.300	-0.000	2.050	188.96	-1.40	2.50	 	 	 	 	 	 	 	 	 	 	 	 	 	 	 	 	 	 	1581476606	7.62	14.11
12/02/2020 03:03:27	120220	12022020	030327	188.77	13.569317	-56.951495	189.02	0.280	0.190	2.170	188.75	-1.20	2.70	 	 	 	 	 	 	 	 	 	 	 	 	 	 	 	 	 	 	1581476607	7.58	14.04
12/02/2020 03:03:28	120220	12022020	030328	188.83	13.569283	-56.951502	189.14	0.050	0.470	2.030	188.89	-0.90	2.60	 	 	 	 	 	 	 	 	 	 	 	 	 	 	 	 	 	 	1581476608	7.53	13.95
12/02/2020 03:03:29	120220	12022020	030329	189.09	13.569252	-56.951508	189.37	-0.320	0.470	1.920	189.12	-0.90	2.40	 	 	 	 	 	 	 	 	 	 	 	 	 	 	 	 	 	 	1581476609	7.21	13.35
12/02/2020 03:03:30	120220	12022020	030330	189.05	13.569217	-56.951518	189.26	-0.470	-0.230	2.180	188.98	-1.50	2.70	 	 	 	 	 	 	 	 	 	 	 	 	 	 	 	 	 	 	1581476610	7.09	13.13
12/02/2020 03:03:31	120220	12022020	030331	188.54	13.569180	-56.951533	188.70	-0.210	-1.350	2.740	188.39	-2.60	3.20	 	 	 	 	 	 	 	 	 	 	 	 	 	 	 	 	 	 	1581476611	7.73	14.32
12/02/2020 03:03:32	120220	12022020	030332	187.76	13.569143	-56.951547	187.95	0.260	-1.910	3.300	187.61	-3.20	3.80	 	 	 	 	 	 	 	 	 	 	 	 	 	 	 	 	 	 	1581476612	8.56	15.85
12/02/2020 03:03:33	120220	12022020	030333	187.17	13.569108	-56.951555	187.43	0.590	-1.300	3.400	187.11	-2.70	3.90	 	 	 	 	 	 	 	 	 	 	 	 	 	 	 	 	 	 	1581476613	8.50	15.74
12/02/2020 03:03:34	120220	12022020	030334	187.16	13.569078	-56.951560	187.51	0.490	0.020	2.830	187.22	-1.40	3.40	 	 	 	 	 	 	 	 	 	 	 	 	 	 	 	 	 	 	1581476614	7.52	13.93
12/02/2020 03:03:35	120220	12022020	030335	187.63	13.569048	-56.951562	188.00	0.080	0.970	1.970	187.75	-0.40	2.50	 	 	 	 	 	 	 	 	 	 	 	 	 	 	 	 	 	 	1581476615	6.61	12.24
12/02/2020 03:03:36	120220	12022020	030336	188.29	13.569013	-56.951565	188.66	-0.300	1.020	1.190	188.29	-0.30	1.80	 	 	 	 	 	 	 	 	 	 	 	 	 	 	 	 	 	 	1581476616	6.70	12.41
12/02/2020 03:03:37	120220	12022020	030337	189.05	13.568977	-56.951572	189.40	-0.460	0.510	0.680	189.19	-0.80	1.20	 	 	 	 	 	 	 	 	 	 	 	 	 	 	 	 	 	 	1581476617	7.46	13.82
12/02/2020 03:03:38	120220	12022020	030338	189.58	13.568940	-56.951578	189.83	-0.350	-0.180	0.620	189.58	-1.50	1.10	 	 	 	 	 	 	 	 	 	 	 	 	 	 	 	 	 	 	1581476618	7.88	14.59
12/02/2020 03:03:39	120220	12022020	030339	189.48	13.568905	-56.951588	189.65	-0.030	-0.890	1.040	189.40	-2.20	1.50	 	 	 	 	 	 	 	 	 	 	 	 	 	 	 	 	 	 	1581476619	7.92	14.67
12/02/2020 03:03:40	120220	12022020	030340	188.98	13.568868	-56.951598	189.12	0.300	-1.290	1.540	188.87	-2.60	2.00	 	 	 	 	 	 	 	 	 	 	 	 	 	 	 	 	 	 	1581476620	8.03	14.87
12/02/2020 03:03:41	120220	12022020	030341	188.41	13.568833	-56.951605	188.57	0.440	-1.160	1.920	188.29	-2.50	2.40	 	 	 	 	 	 	 	 	 	 	 	 	 	 	 	 	 	 	1581476621	7.93	14.69
12/02/2020 03:03:42	120220	12022020	030342	187.85	13.568800	-56.951610	188.05	0.310	-0.760	2.190	187.76	-2.10	2.70	 	 	 	 	 	 	 	 	 	 	 	 	 	 	 	 	 	 	1581476622	7.59	14.06
12/02/2020 03:03:43	120220	12022020	030343	187.59	13.568765	-56.951618	187.87	-0.100	-0.210	2.290	187.60	-1.60	2.80	 	 	 	 	 	 	 	 	 	 	 	 	 	 	 	 	 	 	1581476623	7.50	13.89
12/02/2020 03:03:44	120220	12022020	030344	187.85	13.568733	-56.951628	188.19	-0.630	0.440	2.440	187.94	-0.90	2.90	 	 	 	 	 	 	 	 	 	 	 	 	 	 	 	 	 	 	1581476624	7.54	13.96
12/02/2020 03:03:45	120220	12022020	030345	188.42	13.568700	-56.951642	188.78	-0.910	0.900	2.440	188.53	-0.50	3.00	 	 	 	 	 	 	 	 	 	 	 	 	 	 	 	 	 	 	1581476625	7.40	13.70
12/02/2020 03:03:46	120220	12022020	030346	188.93	13.568667	-56.951652	189.24	-0.640	0.790	2.080	189.00	-0.50	2.60	 	 	 	 	 	 	 	 	 	 	 	 	 	 	 	 	 	 	1581476626	7.37	13.65
12/02/2020 03:03:47	120220	12022020	030347	189.21	13.568630	-56.951660	189.48	0.050	0.090	1.550	189.25	-1.20	2.10	 	 	 	 	 	 	 	 	 	 	 	 	 	 	 	 	 	 	1581476627	7.59	14.06
12/02/2020 03:03:48	120220	12022020	030348	189.31	13.568592	-56.951665	189.54	0.630	-0.650	1.190	189.31	-2.00	1.70	 	 	 	 	 	 	 	 	 	 	 	 	 	 	 	 	 	 	1581476628	8.08	14.96
12/02/2020 03:03:49	120220	12022020	030349	189.27	13.568557	-56.951668	189.49	0.770	-0.910	0.930	189.25	-2.30	1.50	 	 	 	 	 	 	 	 	 	 	 	 	 	 	 	 	 	 	1581476629	8.18	15.15
12/02/2020 03:03:50	120220	12022020	030350	189.16	13.568523	-56.951673	189.36	0.470	-0.700	0.950	189.13	-2.10	1.50	 	 	 	 	 	 	 	 	 	 	 	 	 	 	 	 	 	 	1581476630	7.75	14.35
12/02/2020 03:03:51	120220	12022020	030351	188.94	13.568490	-56.951683	189.13	0.050	-0.390	1.380	188.89	-1.80	1.90	 	 	 	 	 	 	 	 	 	 	 	 	 	 	 	 	 	 	1581476631	7.27	13.46
12/02/2020 03:03:52	120220	12022020	030352	188.64	13.568457	-56.951693	188.84	-0.130	-0.160	1.840	188.59	-1.50	2.30	 	 	 	 	 	 	 	 	 	 	 	 	 	 	 	 	 	 	1581476632	7.21	13.35
12/02/2020 03:03:53	120220	12022020	030353	188.50	13.568423	-56.951702	188.76	-0.080	-0.070	1.920	188.52	-1.40	2.40	 	 	 	 	 	 	 	 	 	 	 	 	 	 	 	 	 	 	1581476633	7.48	13.85
12/02/2020 03:03:54	120220	12022020	030354	188.59	13.568387	-56.951710	188.86	0.040	-0.200	1.850	188.61	-1.50	2.40	 	 	 	 	 	 	 	 	 	 	 	 	 	 	 	 	 	 	1581476634	7.65	14.17
12/02/2020 03:03:55	120220	12022020	030355	188.66	13.568352	-56.951717	188.93	0.080	-0.410	1.900	188.67	-1.70	2.40	 	 	 	 	 	 	 	 	 	 	 	 	 	 	 	 	 	 	1581476635	7.84	14.52
12/02/2020 03:03:56	120220	12022020	030356	188.64	13.568315	-56.951725	188.88	0.000	-0.520	1.940	188.61	-1.90	2.40	 	 	 	 	 	 	 	 	 	 	 	 	 	 	 	 	 	 	1581476636	7.94	14.70
12/02/2020 03:03:57	120220	12022020	030357	188.45	13.568280	-56.951733	188.68	-0.120	-0.580	2.070	188.40	-1.90	2.60	 	 	 	 	 	 	 	 	 	 	 	 	 	 	 	 	 	 	1581476637	7.87	14.58
12/02/2020 03:03:58	120220	12022020	030358	188.27	13.568245	-56.951742	188.52	-0.250	-0.450	2.080	188.25	-1.80	2.60	 	 	 	 	 	 	 	 	 	 	 	 	 	 	 	 	 	 	1581476638	7.89	14.61
12/02/2020 03:03:59	120220	12022020	030359	188.25	13.568210	-56.951750	188.54	-0.360	0.030	1.890	188.28	-1.30	2.40	 	 	 	 	 	 	 	 	 	 	 	 	 	 	 	 	 	 	1581476639	7.82	14.48
12/02/2020 03:04:00	120220	12022020	030400	188.42	13.568178	-56.951757	188.70	-0.420	0.630	1.680	188.46	-0.70	2.20	 	 	 	 	 	 	 	 	 	 	 	 	 	 	 	 	 	 	1581476640	7.44	13.78
12/02/2020 03:04:01	120220	12022020	030401	188.59	13.568145	-56.951765	188.86	-0.290	0.720	1.610	188.62	-0.60	2.10	1017.10	26.00	26.10	20.50	20.70	-1.0	71.0	72.0	400.0	25.7	256.00	11.60	68.00	13.10	16	9994.0	27.2	27.2	1581476641	7.07	13.09
12/02/2020 03:04:02	120220	12022020	030402	188.77	13.568108	-56.951772	189.03	0.020	0.200	1.580	188.80	-1.10	2.10	 	 	 	 	 	 	 	 	 	 	 	 	 	 	 	 	 	 	1581476642	7.37	13.65
12/02/2020 03:04:03	120220	12022020	030403	188.91	13.568072	-56.951780	189.16	0.420	-0.610	1.740	188.92	-1.90	2.20	 	 	 	 	 	 	 	 	 	 	 	 	 	 	 	 	 	 	1581476643	7.93	14.69
12/02/2020 03:04:04	120220	12022020	030404	188.88	13.568035	-56.951790	189.12	0.690	-1.190	2.040	188.85	-2.50	2.50	 	 	 	 	 	 	 	 	 	 	 	 	 	 	 	 	 	 	1581476644	8.24	15.26
12/02/2020 03:04:05	120220	12022020	030405	188.70	13.567998	-56.951797	188.95	0.680	-1.230	2.210	188.65	-2.60	2.70	 	 	 	 	 	 	 	 	 	 	 	 	 	 	 	 	 	 	1581476645	8.17	15.13
12/02/2020 03:04:06	120220	12022020	030406	188.44	13.567965	-56.951803	188.69	0.360	-0.770	2.210	188.39	-2.20	2.70	 	 	 	 	 	 	 	 	 	 	 	 	 	 	 	 	 	 	1581476646	7.76	14.37
12/02/2020 03:04:07	120220	12022020	030407	188.33	13.567932	-56.951810	188.62	-0.120	-0.140	2.040	188.35	-1.50	2.60	 	 	 	 	 	 	 	 	 	 	 	 	 	 	 	 	 	 	1581476647	7.36	13.63
12/02/2020 03:04:08	120220	12022020	030408	188.48	13.567898	-56.951817	188.79	-0.500	0.300	1.800	188.52	-1.10	2.30	 	 	 	 	 	 	 	 	 	 	 	 	 	 	 	 	 	 	1581476648	7.22	13.37
12/02/2020 03:04:09	120220	12022020	030409	188.69	13.567863	-56.951825	188.97	-0.610	0.290	1.610	188.72	-1.00	2.10	 	 	 	 	 	 	 	 	 	 	 	 	 	 	 	 	 	 	1581476649	7.38	13.67
12/02/2020 03:04:10	120220	12022020	030410	188.89	13.567827	-56.951833	189.18	-0.460	-0.010	1.510	188.94	-1.30	2.00	 	 	 	 	 	 	 	 	 	 	 	 	 	 	 	 	 	 	1581476650	7.80	14.45
12/02/2020 03:04:11	120220	12022020	030411	189.16	13.567790	-56.951842	189.47	-0.230	-0.190	1.320	189.23	-1.50	1.80	 	 	 	 	 	 	 	 	 	 	 	 	 	 	 	 	 	 	1581476651	8.15	15.09
12/02/2020 03:04:12	120220	12022020	030412	189.44	13.567755	-56.951850	189.71	-0.030	-0.050	1.060	189.48	-1.40	1.60	 	 	 	 	 	 	 	 	 	 	 	 	 	 	 	 	 	 	1581476652	8.04	14.89
12/02/2020 03:04:13	120220	12022020	030413	189.63	13.567722	-56.951857	189.87	0.100	0.190	0.970	189.65	-1.20	1.50	 	 	 	 	 	 	 	 	 	 	 	 	 	 	 	 	 	 	1581476653	7.59	14.06
12/02/2020 03:04:14	120220	12022020	030414	189.73	13.567688	-56.951863	189.96	0.220	0.120	1.150	189.73	-1.20	1.60	 	 	 	 	 	 	 	 	 	 	 	 	 	 	 	 	 	 	1581476654	7.32	13.56
12/02/2020 03:04:15	120220	12022020	030415	189.69	13.567652	-56.951872	189.90	0.390	-0.430	1.510	189.66	-1.70	2.00	 	 	 	 	 	 	 	 	 	 	 	 	 	 	 	 	 	 	1581476655	7.48	13.85
12/02/2020 03:04:16	120220	12022020	030416	189.44	13.567613	-56.951882	189.64	0.540	-1.180	2.030	189.37	-2.50	2.50	 	 	 	 	 	 	 	 	 	 	 	 	 	 	 	 	 	 	1581476656	7.99	14.80
12/02/2020 03:04:17	120220	12022020	030417	189.00	13.567577	-56.951892	189.22	0.490	-1.430	2.530	188.92	-2.80	3.00	 	 	 	 	 	 	 	 	 	 	 	 	 	 	 	 	 	 	1581476657	8.40	15.56
12/02/2020 03:04:18	120220	12022020	030418	188.56	13.567543	-56.951902	188.82	0.150	-0.880	2.860	188.51	-2.30	3.30	 	 	 	 	 	 	 	 	 	 	 	 	 	 	 	 	 	 	1581476658	8.25	15.28
12/02/2020 03:04:19	120220	12022020	030419	188.57	13.567512	-56.951910	188.90	-0.420	0.220	2.720	188.64	-1.20	3.20	 	 	 	 	 	 	 	 	 	 	 	 	 	 	 	 	 	 	1581476659	7.62	14.11
12/02/2020 03:04:20	120220	12022020	030420	189.02	13.567480	-56.951920	189.36	-0.890	0.970	2.330	189.11	-0.40	2.90	 	 	 	 	 	 	 	 	 	 	 	 	 	 	 	 	 	 	1581476660	6.97	12.91
12/02/2020 03:04:21	120220	12022020	030421	189.36	13.567445	-56.951930	189.63	-0.850	0.700	1.970	189.38	-0.60	2.50	 	 	 	 	 	 	 	 	 	 	 	 	 	 	 	 	 	 	1581476661	7.01	12.98
12/02/2020 03:04:22	120220	12022020	030422	189.44	13.567405	-56.951938	189.69	-0.270	-0.090	1.610	189.45	-1.40	2.10	 	 	 	 	 	 	 	 	 	 	 	 	 	 	 	 	 	 	1581476662	7.95	14.72
12/02/2020 03:04:23	120220	12022020	030423	189.51	13.567367	-56.951945	189.76	0.380	-0.590	1.200	189.53	-1.90	1.70	 	 	 	 	 	 	 	 	 	 	 	 	 	 	 	 	 	 	1581476663	8.62	15.96
12/02/2020 03:04:24	120220	12022020	030424	189.64	13.567332	-56.951948	189.89	0.630	-0.670	0.860	189.67	-2.00	1.40	 	 	 	 	 	 	 	 	 	 	 	 	 	 	 	 	 	 	1581476664	8.35	15.46
12/02/2020 03:04:25	120220	12022020	030425	189.73	13.567297	-56.951955	189.96	0.450	-0.540	0.940	189.74	-1.90	1.40	 	 	 	 	 	 	 	 	 	 	 	 	 	 	 	 	 	 	1581476665	7.82	14.48
12/02/2020 03:04:26	120220	12022020	030426	189.67	13.567263	-56.951963	189.88	0.170	-0.370	1.420	189.67	-1.70	1.90	 	 	 	 	 	 	 	 	 	 	 	 	 	 	 	 	 	 	1581476666	7.53	13.95
12/02/2020 03:04:27	120220	12022020	030427	189.39	13.567228	-56.951973	189.57	0.090	-0.290	1.990	189.31	-1.60	2.50	 	 	 	 	 	 	 	 	 	 	 	 	 	 	 	 	 	 	1581476667	7.52	13.93
12/02/2020 03:04:28	120220	12022020	030428	189.01	13.567193	-56.951983	189.23	0.090	-0.220	2.480	189.01	-1.60	3.00	 	 	 	 	 	 	 	 	 	 	 	 	 	 	 	 	 	 	1581476668	7.72	14.30
12/02/2020 03:04:29	120220	12022020	030429	188.76	13.567158	-56.951993	189.01	-0.050	-0.100	2.710	188.72	-1.40	3.20	 	 	 	 	 	 	 	 	 	 	 	 	 	 	 	 	 	 	1581476669	7.89	14.61
12/02/2020 03:04:30	120220	12022020	030430	188.64	13.567123	-56.952003	188.91	-0.330	0.140	2.650	188.63	-1.20	3.10	 	 	 	 	 	 	 	 	 	 	 	 	 	 	 	 	 	 	1581476670	7.85	14.54
12/02/2020 03:04:31	120220	12022020	030431	188.66	13.567090	-56.952013	188.94	-0.480	0.350	2.320	188.68	-1.00	2.80	 	 	 	 	 	 	 	 	 	 	 	 	 	 	 	 	 	 	1581476671	7.65	14.17
12/02/2020 03:04:32	120220	12022020	030432	188.78	13.567055	-56.952020	189.03	-0.270	0.080	1.780	188.80	-1.20	2.30	 	 	 	 	 	 	 	 	 	 	 	 	 	 	 	 	 	 	1581476672	7.47	13.83
12/02/2020 03:04:33	120220	12022020	030433	188.81	13.567017	-56.952027	189.03	0.190	-0.700	1.410	188.79	-2.00	1.90	 	 	 	 	 	 	 	 	 	 	 	 	 	 	 	 	 	 	1581476673	7.78	14.41
12/02/2020 03:04:34	120220	12022020	030434	188.72	13.566977	-56.952033	188.95	0.530	-1.300	1.360	188.71	-2.60	1.90	 	 	 	 	 	 	 	 	 	 	 	 	 	 	 	 	 	 	1581476674	8.41	15.58
12/02/2020 03:04:35	120220	12022020	030435	188.80	13.566942	-56.952040	189.08	0.420	-1.050	1.400	188.85	-2.40	1.90	 	 	 	 	 	 	 	 	 	 	 	 	 	 	 	 	 	 	1581476675	8.52	15.78
12/02/2020 03:04:36	120220	12022020	030436	189.13	13.566910	-56.952047	189.44	-0.070	-0.140	1.390	189.21	-1.50	1.90	 	 	 	 	 	 	 	 	 	 	 	 	 	 	 	 	 	 	1581476676	7.77	14.39
12/02/2020 03:04:37	120220	12022020	030437	189.49	13.566878	-56.952055	189.76	-0.510	0.490	1.410	189.54	-0.90	1.90	 	 	 	 	 	 	 	 	 	 	 	 	 	 	 	 	 	 	1581476677	6.96	12.89
12/02/2020 03:04:38	120220	12022020	030438	189.68	13.566843	-56.952065	189.93	-0.520	0.420	1.530	189.70	-0.90	2.00	 	 	 	 	 	 	 	 	 	 	 	 	 	 	 	 	 	 	1581476678	7.04	13.04
12/02/2020 03:04:39	120220	12022020	030439	189.69	13.566805	-56.952073	189.91	-0.120	-0.090	1.750	189.66	-1.40	2.20	 	 	 	 	 	 	 	 	 	 	 	 	 	 	 	 	 	 	1581476679	7.81	14.46
12/02/2020 03:04:40	120220	12022020	030440	189.37	13.566767	-56.952083	189.54	0.370	-0.590	2.140	189.26	-1.90	2.60	 	 	 	 	 	 	 	 	 	 	 	 	 	 	 	 	 	 	1581476680	8.33	15.43
12/02/2020 03:04:41	120220	12022020	030441	188.82	13.566730	-56.952092	189.03	0.600	-0.640	2.480	188.75	-2.00	3.00	 	 	 	 	 	 	 	 	 	 	 	 	 	 	 	 	 	 	1581476681	8.45	15.65
12/02/2020 03:04:42	120220	12022020	030442	188.57	13.566697	-56.952097	188.82	0.370	-0.120	2.560	188.55	-1.50	3.10	 	 	 	 	 	 	 	 	 	 	 	 	 	 	 	 	 	 	1581476682	8.14	15.08
12/02/2020 03:04:43	120220	12022020	030443	188.64	13.566663	-56.952105	188.92	-0.140	0.410	2.400	188.68	-0.90	2.90	 	 	 	 	 	 	 	 	 	 	 	 	 	 	 	 	 	 	1581476683	7.46	13.82
12/02/2020 03:04:44	120220	12022020	030444	188.86	13.566630	-56.952113	189.14	-0.490	0.420	2.070	188.91	-0.90	2.60	 	 	 	 	 	 	 	 	 	 	 	 	 	 	 	 	 	 	1581476684	7.14	13.22
12/02/2020 03:04:45	120220	12022020	030445	189.01	13.566593	-56.952122	189.26	-0.450	-0.180	1.860	189.03	-1.50	2.40	 	 	 	 	 	 	 	 	 	 	 	 	 	 	 	 	 	 	1581476685	7.51	13.91
12/02/2020 03:04:46	120220	12022020	030446	189.07	13.566555	-56.952133	189.31	-0.190	-0.850	1.850	189.09	-2.20	2.30	 	 	 	 	 	 	 	 	 	 	 	 	 	 	 	 	 	 	1581476686	8.15	15.09
12/02/2020 03:04:47	120220	12022020	030447	189.21	13.566518	-56.952143	189.48	0.050	-1.080	1.890	189.25	-2.40	2.40	 	 	 	 	 	 	 	 	 	 	 	 	 	 	 	 	 	 	1581476687	8.44	15.63
12/02/2020 03:04:48	120220	12022020	030448	189.42	13.566485	-56.952153	189.70	0.260	-0.740	1.680	189.48	-2.10	2.20	 	 	 	 	 	 	 	 	 	 	 	 	 	 	 	 	 	 	1581476688	8.12	15.04
12/02/2020 03:04:49	120220	12022020	030449	189.74	13.566452	-56.952157	190.03	0.450	-0.130	1.070	189.82	-1.50	1.60	 	 	 	 	 	 	 	 	 	 	 	 	 	 	 	 	 	 	1581476689	7.55	13.98
12/02/2020 03:04:50	120220	12022020	030450	190.16	13.566417	-56.952158	190.44	0.470	0.310	0.540	190.16	-1.00	1.10	 	 	 	 	 	 	 	 	 	 	 	 	 	 	 	 	 	 	1581476690	7.25	13.43
12/02/2020 03:04:51	120220	12022020	030451	190.44	13.566382	-56.952162	190.66	0.280	0.310	0.460	190.44	-1.00	1.00	 	 	 	 	 	 	 	 	 	 	 	 	 	 	 	 	 	 	1581476691	7.35	13.61
12/02/2020 03:04:52	120220	12022020	030452	190.23	13.566345	-56.952170	190.37	0.080	-0.230	1.020	190.12	-1.50	1.50	 	 	 	 	 	 	 	 	 	 	 	 	 	 	 	 	 	 	1581476692	7.61	14.09
12/02/2020 03:04:53	120220	12022020	030453	189.59	13.566307	-56.952183	189.74	0.050	-0.840	2.000	189.47	-2.20	2.40	 	 	 	 	 	 	 	 	 	 	 	 	 	 	 	 	 	 	1581476693	8.19	15.17
12/02/2020 03:04:54	120220	12022020	030454	189.04	13.566270	-56.952197	189.28	0.070	-0.850	2.920	188.98	-2.20	3.40	 	 	 	 	 	 	 	 	 	 	 	 	 	 	 	 	 	 	1581476694	8.66	16.04
12/02/2020 03:04:55	120220	12022020	030455	188.94	13.566237	-56.952208	189.26	-0.140	-0.230	3.390	188.99	-1.60	3.90	 	 	 	 	 	 	 	 	 	 	 	 	 	 	 	 	 	 	1581476695	8.36	15.48
12/02/2020 03:04:56	120220	12022020	030456	189.32	13.566205	-56.952222	189.69	-0.600	0.410	3.310	189.44	-1.00	3.80	 	 	 	 	 	 	 	 	 	 	 	 	 	 	 	 	 	 	1581476696	7.62	14.11
12/02/2020 03:04:57	120220	12022020	030457	189.96	13.566172	-56.952233	190.33	-0.940	0.580	2.710	190.09	-0.80	3.20	 	 	 	 	 	 	 	 	 	 	 	 	 	 	 	 	 	 	1581476697	7.27	13.46
12/02/2020 03:04:58	120220	12022020	030458	190.49	13.566137	-56.952242	190.79	-0.740	0.070	1.870	190.55	-1.20	2.40	 	 	 	 	 	 	 	 	 	 	 	 	 	 	 	 	 	 	1581476698	7.43	13.76
12/02/2020 03:04:59	120220	12022020	030459	190.54	13.566098	-56.952250	190.77	-0.020	-0.800	1.330	190.49	-2.10	1.80	 	 	 	 	 	 	 	 	 	 	 	 	 	 	 	 	 	 	1581476699	7.91	14.65
12/02/2020 03:05:00	120220	12022020	030500	190.13	13.566058	-56.952255	190.31	0.740	-1.390	1.260	190.02	-2.70	1.80	 	 	 	 	 	 	 	 	 	 	 	 	 	 	 	 	 	 	1581476700	8.46	15.67
12/02/2020 03:05:01	120220	12022020	030501	189.74	13.566022	-56.952262	189.97	1.010	-1.050	1.220	189.71	-2.40	1.70	1017.10	26.10	26.10	20.70	20.80	-1.0	72.0	72.0	398.0	25.7	255.00	10.90	66.00	12.50	16	8786.0	27.2	27.2	1581476701	8.53	15.80
12/02/2020 03:05:02	120220	12022020	030502	189.81	13.565990	-56.952265	190.09	0.660	0.060	0.920	189.87	-1.30	1.40	 	 	 	 	 	 	 	 	 	 	 	 	 	 	 	 	 	 	1581476702	7.88	14.59
12/02/2020 03:05:03	120220	12022020	030503	190.19	13.565958	-56.952272	190.47	0.090	0.950	0.740	190.27	-0.40	1.20	 	 	 	 	 	 	 	 	 	 	 	 	 	 	 	 	 	 	1581476703	6.99	12.95
12/02/2020 03:05:04	120220	12022020	030504	190.55	13.565925	-56.952280	190.81	-0.260	0.980	0.950	190.60	-0.30	1.40	 	 	 	 	 	 	 	 	 	 	 	 	 	 	 	 	 	 	1581476704	6.88	12.74
12/02/2020 03:05:05	120220	12022020	030505	190.68	13.565888	-56.952292	190.90	-0.340	0.250	1.620	190.66	-1.00	2.10	 	 	 	 	 	 	 	 	 	 	 	 	 	 	 	 	 	 	1581476705	7.59	14.06
12/02/2020 03:05:06	120220	12022020	030506	190.52	13.565850	-56.952307	190.76	-0.300	-0.700	2.510	190.47	-2.00	2.90	 	 	 	 	 	 	 	 	 	 	 	 	 	 	 	 	 	 	1581476706	8.31	15.39
12/02/2020 03:05:07	120220	12022020	030507	190.25	13.565813	-56.952323	190.52	-0.220	-1.150	3.110	190.19	-2.50	3.50	 	 	 	 	 	 	 	 	 	 	 	 	 	 	 	 	 	 	1581476707	8.74	16.19
12/02/2020 03:05:08	120220	12022020	030508	189.84	13.565780	-56.952335	190.10	-0.080	-1.040	3.320	189.74	-2.40	3.80	 	 	 	 	 	 	 	 	 	 	 	 	 	 	 	 	 	 	1581476708	8.39	15.54
12/02/2020 03:05:09	120220	12022020	030509	189.34	13.565745	-56.952345	189.59	0.150	-0.740	3.100	189.25	-2.10	3.60	 	 	 	 	 	 	 	 	 	 	 	 	 	 	 	 	 	 	1581476709	7.78	14.41
12/02/2020 03:05:10	120220	12022020	030510	188.98	13.565710	-56.952350	189.25	0.350	-0.370	2.390	188.95	-1.70	2.90	 	 	 	 	 	 	 	 	 	 	 	 	 	 	 	 	 	 	1581476710	7.62	14.11
12/02/2020 03:05:11	120220	12022020	030511	188.97	13.565675	-56.952352	189.26	0.330	0.090	1.460	189.02	-1.30	2.00	 	 	 	 	 	 	 	 	 	 	 	 	 	 	 	 	 	 	1581476711	7.68	14.22
12/02/2020 03:05:12	120220	12022020	030512	189.32	13.565640	-56.952355	189.60	0.050	0.360	0.670	189.41	-1.00	1.20	 	 	 	 	 	 	 	 	 	 	 	 	 	 	 	 	 	 	1581476712	7.57	14.02
12/02/2020 03:05:13	120220	12022020	030513	189.67	13.565603	-56.952362	189.90	-0.230	0.100	0.410	189.70	-1.20	0.90	 	 	 	 	 	 	 	 	 	 	 	 	 	 	 	 	 	 	1581476713	7.54	13.96
12/02/2020 03:05:14	120220	12022020	030514	189.65	13.565567	-56.952372	189.83	-0.250	-0.480	0.810	189.61	-1.80	1.30	 	 	 	 	 	 	 	 	 	 	 	 	 	 	 	 	 	 	1581476714	7.91	14.65
12/02/2020 03:05:15	120220	12022020	030515	189.45	13.565528	-56.952382	189.67	-0.050	-0.760	1.430	189.42	-2.10	1.90	 	 	 	 	 	 	 	 	 	 	 	 	 	 	 	 	 	 	1581476715	8.44	15.63
12/02/2020 03:05:16	120220	12022020	030516	189.34	13.565493	-56.952392	189.58	0.090	-0.500	1.920	189.34	-1.90	2.40	 	 	 	 	 	 	 	 	 	 	 	 	 	 	 	 	 	 	1581476716	8.38	15.52
12/02/2020 03:05:17	120220	12022020	030517	189.25	13.565460	-56.952402	189.50	0.020	-0.040	2.210	189.24	-1.40	2.70	 	 	 	 	 	 	 	 	 	 	 	 	 	 	 	 	 	 	1581476717	7.84	14.52
12/02/2020 03:05:18	120220	12022020	030518	189.21	13.565425	-56.952412	189.47	-0.140	0.220	2.360	189.21	-1.10	2.80	 	 	 	 	 	 	 	 	 	 	 	 	 	 	 	 	 	 	1581476718	7.54	13.96
12/02/2020 03:05:19	120220	12022020	030519	189.25	13.565390	-56.952420	189.51	-0.200	0.270	2.330	189.26	-1.10	2.80	 	 	 	 	 	 	 	 	 	 	 	 	 	 	 	 	 	 	1581476719	7.67	14.20
12/02/2020 03:05:20	120220	12022020	030520	189.43	13.565355	-56.952428	189.72	-0.170	0.250	2.040	189.48	-1.10	2.50	 	 	 	 	 	 	 	 	 	 	 	 	 	 	 	 	 	 	1581476720	7.82	14.48
12/02/2020 03:05:21	120220	12022020	030521	189.72	13.565320	-56.952437	190.01	-0.100	-0.010	1.740	189.77	-1.30	2.20	 	 	 	 	 	 	 	 	 	 	 	 	 	 	 	 	 	 	1581476721	7.73	14.32
12/02/2020 03:05:22	120220	12022020	030522	189.96	13.565283	-56.952445	190.23	0.060	-0.520	1.440	189.99	-1.80	1.90	 	 	 	 	 	 	 	 	 	 	 	 	 	 	 	 	 	 	1581476722	7.76	14.37
12/02/2020 03:05:23	120220	12022020	030523	189.99	13.565247	-56.952452	190.23	0.330	-1.010	1.190	189.97	-2.30	1.70	 	 	 	 	 	 	 	 	 	 	 	 	 	 	 	 	 	 	1581476723	7.98	14.78
12/02/2020 03:05:24	120220	12022020	030524	189.80	13.565210	-56.952458	190.02	0.520	-1.100	1.220	189.74	-2.40	1.70	 	 	 	 	 	 	 	 	 	 	 	 	 	 	 	 	 	 	1581476724	8.15	15.09
12/02/2020 03:05:25	120220	12022020	030525	189.61	13.565175	-56.952467	189.87	0.450	-0.620	1.190	189.61	-2.00	1.70	 	 	 	 	 	 	 	 	 	 	 	 	 	 	 	 	 	 	1581476725	7.99	14.80
12/02/2020 03:05:26	120220	12022020	030526	189.75	13.565142	-56.952472	190.04	0.090	0.120	0.950	189.81	-1.30	1.40	 	 	 	 	 	 	 	 	 	 	 	 	 	 	 	 	 	 	1581476726	7.61	14.09
12/02/2020 03:05:27	120220	12022020	030527	190.06	13.565107	-56.952478	190.34	-0.280	0.420	0.930	190.13	-0.90	1.40	 	 	 	 	 	 	 	 	 	 	 	 	 	 	 	 	 	 	1581476727	7.22	13.37
12/02/2020 03:05:28	120220	12022020	030528	190.32	13.565070	-56.952488	190.57	-0.370	0.030	1.250	190.33	-1.30	1.70	 	 	 	 	 	 	 	 	 	 	 	 	 	 	 	 	 	 	1581476728	7.52	13.93
12/02/2020 03:05:29	120220	12022020	030529	190.26	13.565032	-56.952500	190.48	-0.210	-0.590	1.920	190.20	-1.90	2.30	 	 	 	 	 	 	 	 	 	 	 	 	 	 	 	 	 	 	1581476729	8.25	15.28
12/02/2020 03:05:30	120220	12022020	030530	189.89	13.564993	-56.952513	190.11	-0.080	-0.820	2.710	189.80	-2.20	3.10	 	 	 	 	 	 	 	 	 	 	 	 	 	 	 	 	 	 	1581476730	8.71	16.13
12/02/2020 03:05:31	120220	12022020	030531	189.50	13.564958	-56.952525	189.76	-0.160	-0.410	3.090	189.45	-1.80	3.50	 	 	 	 	 	 	 	 	 	 	 	 	 	 	 	 	 	 	1581476731	8.53	15.80
12/02/2020 03:05:32	120220	12022020	030532	189.31	13.564927	-56.952535	189.59	-0.330	0.280	2.910	189.31	-1.10	3.40	 	 	 	 	 	 	 	 	 	 	 	 	 	 	 	 	 	 	1581476732	7.90	14.63
12/02/2020 03:05:33	120220	12022020	030533	189.42	13.564893	-56.952543	189.70	-0.360	0.620	2.310	189.46	-0.70	2.80	 	 	 	 	 	 	 	 	 	 	 	 	 	 	 	 	 	 	1581476733	7.37	13.65
12/02/2020 03:05:34	120220	12022020	030534	189.61	13.564857	-56.952548	189.86	-0.150	0.300	1.560	189.64	-1.00	2.10	 	 	 	 	 	 	 	 	 	 	 	 	 	 	 	 	 	 	1581476734	7.42	13.74
12/02/2020 03:05:35	120220	12022020	030535	189.70	13.564818	-56.952555	189.92	0.120	-0.380	1.000	189.71	-1.70	1.50	 	 	 	 	 	 	 	 	 	 	 	 	 	 	 	 	 	 	1581476735	7.94	14.70
12/02/2020 03:05:36	120220	12022020	030536	189.74	13.564780	-56.952563	189.95	0.280	-0.850	0.890	189.75	-2.20	1.40	 	 	 	 	 	 	 	 	 	 	 	 	 	 	 	 	 	 	1581476736	8.38	15.52
12/02/2020 03:05:37	120220	12022020	030537	189.80	13.564745	-56.952572	190.03	0.310	-0.860	0.960	189.81	-2.20	1.40	 	 	 	 	 	 	 	 	 	 	 	 	 	 	 	 	 	 	1581476737	8.27	15.32
12/02/2020 03:05:38	120220	12022020	030538	189.82	13.564708	-56.952580	190.06	0.320	-0.680	1.090	189.82	-2.00	1.60	 	 	 	 	 	 	 	 	 	 	 	 	 	 	 	 	 	 	1581476738	7.89	14.61
12/02/2020 03:05:39	120220	12022020	030539	189.85	13.564673	-56.952588	190.12	0.270	-0.410	1.340	189.87	-1.80	1.80	 	 	 	 	 	 	 	 	 	 	 	 	 	 	 	 	 	 	1581476739	7.77	14.39
12/02/2020 03:05:40	120220	12022020	030540	189.97	13.564640	-56.952597	190.24	0.120	0.140	1.550	189.97	-1.20	2.00	 	 	 	 	 	 	 	 	 	 	 	 	 	 	 	 	 	 	1581476740	7.81	14.46
12/02/2020 03:05:41	120220	12022020	030541	190.14	13.564607	-56.952603	190.39	-0.010	0.720	1.480	190.17	-0.60	2.00	 	 	 	 	 	 	 	 	 	 	 	 	 	 	 	 	 	 	1581476741	7.51	13.91
12/02/2020 03:05:42	120220	12022020	030542	190.18	13.564572	-56.952608	190.38	0.010	0.540	1.440	190.14	-0.80	1.90	 	 	 	 	 	 	 	 	 	 	 	 	 	 	 	 	 	 	1581476742	7.20	13.33
12/02/2020 03:05:43	120220	12022020	030543	189.78	13.564532	-56.952617	189.97	0.140	-0.630	2.060	189.68	-1.90	2.50	 	 	 	 	 	 	 	 	 	 	 	 	 	 	 	 	 	 	1581476743	7.72	14.30
12/02/2020 03:05:44	120220	12022020	030544	189.15	13.564490	-56.952630	189.36	0.080	-1.710	3.190	189.03	-3.00	3.60	 	 	 	 	 	 	 	 	 	 	 	 	 	 	 	 	 	 	1581476744	8.87	16.43
12/02/2020 03:05:45	120220	12022020	030545	188.50	13.564453	-56.952648	188.75	-0.340	-1.760	4.230	188.41	-3.10	4.70	 	 	 	 	 	 	 	 	 	 	 	 	 	 	 	 	 	 	1581476745	9.34	17.30
12/02/2020 03:05:46	120220	12022020	030546	188.20	13.564420	-56.952667	188.51	-0.890	-0.790	4.610	188.20	-2.20	5.10	 	 	 	 	 	 	 	 	 	 	 	 	 	 	 	 	 	 	1581476746	8.82	16.33
12/02/2020 03:05:47	120220	12022020	030547	188.38	13.564390	-56.952680	188.75	-1.100	0.570	4.030	188.47	-0.80	4.60	 	 	 	 	 	 	 	 	 	 	 	 	 	 	 	 	 	 	1581476747	7.95	14.72
12/02/2020 03:05:48	120220	12022020	030548	188.90	13.564358	-56.952687	189.26	-0.660	1.400	2.590	189.02	0.00	3.20	 	 	 	 	 	 	 	 	 	 	 	 	 	 	 	 	 	 	1581476748	7.16	13.26
12/02/2020 03:05:49	120220	12022020	030549	189.52	13.564320	-56.952687	189.84	0.220	1.150	0.850	189.65	-0.20	1.40	 	 	 	 	 	 	 	 	 	 	 	 	 	 	 	 	 	 	1581476749	7.07	13.09
12/02/2020 03:05:50	120220	12022020	030550	190.14	13.564280	-56.952685	190.42	0.930	0.250	-0.470	190.25	-1.00	0.10	 	 	 	 	 	 	 	 	 	 	 	 	 	 	 	 	 	 	1581476750	8.08	14.96
12/02/2020 03:05:51	120220	12022020	030551	190.55	13.564240	-56.952685	190.78	1.110	-0.570	-0.900	190.59	-1.90	-0.40	 	 	 	 	 	 	 	 	 	 	 	 	 	 	 	 	 	 	1581476751	8.75	16.21
12/02/2020 03:05:52	120220	12022020	030552	190.56	13.564203	-56.952690	190.74	0.850	-1.030	-0.480	190.50	-2.40	-0.00	 	 	 	 	 	 	 	 	 	 	 	 	 	 	 	 	 	 	1581476752	8.45	15.65
12/02/2020 03:05:53	120220	12022020	030553	190.17	13.564168	-56.952698	190.35	0.430	-1.270	0.630	190.07	-2.60	1.00	 	 	 	 	 	 	 	 	 	 	 	 	 	 	 	 	 	 	1581476753	7.91	14.65
12/02/2020 03:05:54	120220	12022020	030554	189.72	13.564133	-56.952713	189.95	-0.050	-1.200	2.000	189.65	-2.50	2.40	 	 	 	 	 	 	 	 	 	 	 	 	 	 	 	 	 	 	1581476754	7.86	14.56
12/02/2020 03:05:55	120220	12022020	030555	189.45	13.564100	-56.952728	189.73	-0.540	-0.720	3.050	189.40	-2.10	3.50	 	 	 	 	 	 	 	 	 	 	 	 	 	 	 	 	 	 	1581476755	8.02	14.85
12/02/2020 03:05:56	120220	12022020	030556	189.17	13.564067	-56.952745	189.44	-0.830	-0.270	3.550	189.11	-1.60	4.00	 	 	 	 	 	 	 	 	 	 	 	 	 	 	 	 	 	 	1581476756	7.90	14.63
12/02/2020 03:05:57	120220	12022020	030557	188.93	13.564030	-56.952757	189.23	-0.800	-0.120	3.490	188.92	-1.50	4.00	 	 	 	 	 	 	 	 	 	 	 	 	 	 	 	 	 	 	1581476757	7.92	14.67
12/02/2020 03:05:58	120220	12022020	030558	189.03	13.563993	-56.952767	189.37	-0.560	-0.020	2.820	189.09	-1.40	3.40	 	 	 	 	 	 	 	 	 	 	 	 	 	 	 	 	 	 	1581476758	8.30	15.37
12/02/2020 03:05:59	120220	12022020	030559	189.41	13.563957	-56.952773	189.74	-0.300	0.270	1.800	189.50	-1.10	2.30	 	 	 	 	 	 	 	 	 	 	 	 	 	 	 	 	 	 	1581476759	8.29	15.35
12/02/2020 03:06:00	120220	12022020	030600	189.87	13.563922	-56.952778	190.17	-0.060	0.510	0.740	189.96	-0.80	1.30	 	 	 	 	 	 	 	 	 	 	 	 	 	 	 	 	 	 	1581476760	7.92	14.67
12/02/2020 03:06:01	120220	12022020	030601	190.27	13.563885	-56.952782	190.53	0.140	0.490	0.050	190.32	-0.80	0.60	1017.10	26.10	26.10	20.90	20.90	-1.0	73.0	73.0	396.0	25.7	258.00	11.10	69.00	12.50	16	9165.0	27.2	27.2	1581476761	7.72	14.30
12/02/2020 03:06:02	120220	12022020	030602	190.43	13.563848	-56.952787	190.65	0.330	0.090	-0.040	190.44	-1.20	0.40	 	 	 	 	 	 	 	 	 	 	 	 	 	 	 	 	 	 	1581476762	7.78	14.41
12/02/2020 03:06:03	120220	12022020	030603	190.38	13.563810	-56.952795	190.60	0.510	-0.470	0.240	190.36	-1.80	0.70	 	 	 	 	 	 	 	 	 	 	 	 	 	 	 	 	 	 	1581476763	7.98	14.78
12/02/2020 03:06:04	120220	12022020	030604	190.20	13.563775	-56.952803	190.41	0.670	-0.710	0.790	190.16	-2.00	1.20	 	 	 	 	 	 	 	 	 	 	 	 	 	 	 	 	 	 	1581476764	8.21	15.20
12/02/2020 03:06:05	120220	12022020	030605	190.00	13.563740	-56.952812	190.24	0.680	-0.500	1.360	189.97	-1.90	1.80	 	 	 	 	 	 	 	 	 	 	 	 	 	 	 	 	 	 	1581476765	8.01	14.83
12/02/2020 03:06:06	120220	12022020	030606	189.93	13.563707	-56.952820	190.20	0.420	-0.220	1.780	189.93	-1.60	2.20	 	 	 	 	 	 	 	 	 	 	 	 	 	 	 	 	 	 	1581476766	7.53	13.95
12/02/2020 03:06:07	120220	12022020	030607	189.96	13.563673	-56.952830	190.24	-0.050	-0.250	2.120	189.97	-1.60	2.60	 	 	 	 	 	 	 	 	 	 	 	 	 	 	 	 	 	 	1581476767	7.40	13.70
12/02/2020 03:06:08	120220	12022020	030608	189.90	13.563637	-56.952842	190.16	-0.430	-0.640	2.420	189.90	-2.00	2.90	 	 	 	 	 	 	 	 	 	 	 	 	 	 	 	 	 	 	1581476768	7.69	14.24
12/02/2020 03:06:09	120220	12022020	030609	189.61	13.563598	-56.952855	189.84	-0.460	-1.110	2.660	189.54	-2.40	3.10	 	 	 	 	 	 	 	 	 	 	 	 	 	 	 	 	 	 	1581476769	8.21	15.20
12/02/2020 03:06:10	120220	12022020	030610	189.22	13.563560	-56.952865	189.46	-0.310	-1.170	2.740	189.15	-2.50	3.20	 	 	 	 	 	 	 	 	 	 	 	 	 	 	 	 	 	 	1581476770	8.59	15.91
12/02/2020 03:06:11	120220	12022020	030611	188.92	13.563525	-56.952877	189.19	-0.330	-0.620	2.660	188.89	-2.00	3.10	 	 	 	 	 	 	 	 	 	 	 	 	 	 	 	 	 	 	1581476771	8.49	15.72
12/02/2020 03:06:12	120220	12022020	030612	188.84	13.563492	-56.952885	189.12	-0.550	0.230	2.350	188.85	-1.20	2.80	 	 	 	 	 	 	 	 	 	 	 	 	 	 	 	 	 	 	1581476772	7.96	14.74
12/02/2020 03:06:13	120220	12022020	030613	188.97	13.563458	-56.952893	189.26	-0.620	0.860	1.810	189.00	-0.50	2.30	 	 	 	 	 	 	 	 	 	 	 	 	 	 	 	 	 	 	1581476773	7.49	13.87
12/02/2020 03:06:14	120220	12022020	030614	189.10	13.563422	-56.952900	189.34	-0.210	0.780	1.310	189.10	-0.50	1.80	 	 	 	 	 	 	 	 	 	 	 	 	 	 	 	 	 	 	1581476774	7.44	13.78
12/02/2020 03:06:15	120220	12022020	030615	189.09	13.563382	-56.952905	189.33	0.520	0.220	1.060	189.10	-1.10	1.60	 	 	 	 	 	 	 	 	 	 	 	 	 	 	 	 	 	 	1581476775	8.00	14.82
12/02/2020 03:06:16	120220	12022020	030616	189.32	13.563343	-56.952908	189.61	0.990	-0.040	0.790	189.41	-1.40	1.30	 	 	 	 	 	 	 	 	 	 	 	 	 	 	 	 	 	 	1581476776	8.57	15.87
12/02/2020 03:06:17	120220	12022020	030617	189.88	13.563308	-56.952912	190.20	0.840	0.120	0.640	190.02	-1.20	1.10	 	 	 	 	 	 	 	 	 	 	 	 	 	 	 	 	 	 	1581476777	8.27	15.32
12/02/2020 03:06:18	120220	12022020	030618	190.48	13.563275	-56.952918	190.77	0.250	0.020	1.010	190.56	-1.30	1.50	 	 	 	 	 	 	 	 	 	 	 	 	 	 	 	 	 	 	1581476778	7.45	13.80
12/02/2020 03:06:19	120220	12022020	030619	190.63	13.563240	-56.952932	190.85	-0.260	-0.830	2.110	190.56	-2.10	2.50	 	 	 	 	 	 	 	 	 	 	 	 	 	 	 	 	 	 	1581476779	7.25	13.43
12/02/2020 03:06:20	120220	12022020	030620	190.03	13.563202	-56.952952	190.19	-0.310	-1.980	3.610	189.83	-3.30	4.00	 	 	 	 	 	 	 	 	 	 	 	 	 	 	 	 	 	 	1581476780	8.12	15.04
12/02/2020 03:06:21	120220	12022020	030621	188.92	13.563165	-56.952968	189.08	0.030	-2.410	4.730	188.70	-3.70	5.20	 	 	 	 	 	 	 	 	 	 	 	 	 	 	 	 	 	 	1581476781	9.09	16.83
12/02/2020 03:06:22	120220	12022020	030622	187.90	13.563128	-56.952980	188.13	0.310	-1.590	4.980	187.77	-3.00	5.50	 	 	 	 	 	 	 	 	 	 	 	 	 	 	 	 	 	 	1581476782	9.00	16.67
12/02/2020 03:06:23	120220	12022020	030623	187.55	13.563097	-56.952985	187.88	0.180	-0.020	4.220	187.57	-1.40	4.80	 	 	 	 	 	 	 	 	 	 	 	 	 	 	 	 	 	 	1581476783	7.99	14.80
12/02/2020 03:06:24	120220	12022020	030624	187.83	13.563063	-56.952987	188.18	-0.260	1.180	2.920	187.92	-0.20	3.50	 	 	 	 	 	 	 	 	 	 	 	 	 	 	 	 	 	 	1581476784	7.11	13.17
12/02/2020 03:06:25	120220	12022020	030625	188.34	13.563025	-56.952988	188.65	-0.620	1.410	1.730	188.46	0.10	2.30	 	 	 	 	 	 	 	 	 	 	 	 	 	 	 	 	 	 	1581476785	7.19	13.32
12/02/2020 03:06:26	120220	12022020	030626	188.96	13.562987	-56.952995	189.25	-0.700	0.960	1.010	189.08	-0.40	1.50	 	 	 	 	 	 	 	 	 	 	 	 	 	 	 	 	 	 	1581476786	7.98	14.78
12/02/2020 03:06:27	120220	12022020	030627	189.55	13.562948	-56.953003	189.82	-0.510	0.410	0.780	189.65	-0.90	1.30	 	 	 	 	 	 	 	 	 	 	 	 	 	 	 	 	 	 	1581476787	8.45	15.65
12/02/2020 03:06:28	120220	12022020	030628	189.91	13.562913	-56.953012	190.15	-0.080	-0.010	0.770	189.94	-1.30	1.30	 	 	 	 	 	 	 	 	 	 	 	 	 	 	 	 	 	 	1581476788	8.30	15.37
12/02/2020 03:06:29	120220	12022020	030629	189.98	13.562878	-56.953020	190.19	0.490	-0.510	0.820	189.98	-1.80	1.30	 	 	 	 	 	 	 	 	 	 	 	 	 	 	 	 	 	 	1581476789	7.89	14.61
12/02/2020 03:06:30	120220	12022020	030630	189.95	13.562840	-56.953025	190.18	0.940	-1.070	0.830	189.94	-2.40	1.30	 	 	 	 	 	 	 	 	 	 	 	 	 	 	 	 	 	 	1581476790	7.86	14.56
12/02/2020 03:06:31	120220	12022020	030631	189.86	13.562805	-56.953032	190.10	1.000	-1.330	1.010	189.83	-2.70	1.50	 	 	 	 	 	 	 	 	 	 	 	 	 	 	 	 	 	 	1581476791	8.04	14.89
12/02/2020 03:06:32	120220	12022020	030632	189.71	13.562770	-56.953038	189.96	0.640	-0.970	1.350	189.69	-2.30	1.80	 	 	 	 	 	 	 	 	 	 	 	 	 	 	 	 	 	 	1581476792	7.96	14.74
12/02/2020 03:06:33	120220	12022020	030633	189.71	13.562738	-56.953047	190.00	0.090	-0.180	1.530	189.73	-1.60	2.00	 	 	 	 	 	 	 	 	 	 	 	 	 	 	 	 	 	 	1581476793	7.54	13.96
12/02/2020 03:06:34	120220	12022020	030634	189.76	13.562705	-56.953055	190.02	-0.280	0.160	1.690	189.74	-1.20	2.20	 	 	 	 	 	 	 	 	 	 	 	 	 	 	 	 	 	 	1581476794	7.09	13.13
12/02/2020 03:06:35	120220	12022020	030635	189.47	13.562665	-56.953065	189.69	-0.280	-0.440	2.160	189.38	-1.70	2.60	 	 	 	 	 	 	 	 	 	 	 	 	 	 	 	 	 	 	1581476795	7.42	13.74
12/02/2020 03:06:36	120220	12022020	030636	189.01	13.562623	-56.953077	189.28	-0.230	-1.070	2.750	188.96	-2.40	3.20	 	 	 	 	 	 	 	 	 	 	 	 	 	 	 	 	 	 	1581476796	8.65	16.02
12/02/2020 03:06:37	120220	12022020	030637	188.96	13.562587	-56.953090	189.30	-0.560	-0.670	3.110	189.01	-2.10	3.60	 	 	 	 	 	 	 	 	 	 	 	 	 	 	 	 	 	 	1581476797	9.23	17.09
12/02/2020 03:06:38	120220	12022020	030638	189.36	13.562557	-56.953103	189.74	-1.120	0.430	3.050	189.47	-1.00	3.50	 	 	 	 	 	 	 	 	 	 	 	 	 	 	 	 	 	 	1581476798	8.35	15.46
12/02/2020 03:06:39	120220	12022020	030639	189.80	13.562525	-56.953117	190.13	-1.220	1.110	2.720	189.86	-0.20	3.20	 	 	 	 	 	 	 	 	 	 	 	 	 	 	 	 	 	 	1581476799	7.36	13.63
12/02/2020 03:06:40	120220	12022020	030640	190.05	13.562487	-56.953125	190.37	-0.430	0.900	1.940	190.11	-0.40	2.50	 	 	 	 	 	 	 	 	 	 	 	 	 	 	 	 	 	 	1581476800	7.36	13.63
12/02/2020 03:06:41	120220	12022020	030641	190.43	13.562448	-56.953127	190.76	0.710	0.350	0.760	190.54	-1.00	1.30	 	 	 	 	 	 	 	 	 	 	 	 	 	 	 	 	 	 	1581476801	8.09	14.98
12/02/2020 03:06:42	120220	12022020	030642	190.94	13.562410	-56.953127	191.24	1.310	-0.150	-0.220	191.03	-1.50	0.30	 	 	 	 	 	 	 	 	 	 	 	 	 	 	 	 	 	 	1581476802	8.44	15.63
12/02/2020 03:06:43	120220	12022020	030643	191.16	13.562373	-56.953130	191.38	1.160	-0.640	-0.230	191.14	-2.00	0.20	 	 	 	 	 	 	 	 	 	 	 	 	 	 	 	 	 	 	1581476803	8.20	15.19
12/02/2020 03:06:44	120220	12022020	030644	190.91	13.562338	-56.953140	191.11	0.620	-1.100	0.740	190.83	-2.40	1.20	 	 	 	 	 	 	 	 	 	 	 	 	 	 	 	 	 	 	1581476804	7.82	14.48
12/02/2020 03:06:45	120220	12022020	030645	190.52	13.562305	-56.953153	190.76	0.110	-1.180	1.960	190.44	-2.50	2.40	 	 	 	 	 	 	 	 	 	 	 	 	 	 	 	 	 	 	1581476805	7.86	14.56
12/02/2020 03:06:46	120220	12022020	030646	190.17	13.562272	-56.953168	190.44	-0.160	-0.840	2.810	190.11	-2.20	3.20	 	 	 	 	 	 	 	 	 	 	 	 	 	 	 	 	 	 	1581476806	7.89	14.61
12/02/2020 03:06:47	120220	12022020	030647	189.83	13.562238	-56.953180	190.11	-0.200	-0.510	3.130	189.77	-1.90	3.60	 	 	 	 	 	 	 	 	 	 	 	 	 	 	 	 	 	 	1581476807	7.69	14.24
12/02/2020 03:06:48	120220	12022020	030648	189.63	13.562202	-56.953190	189.95	-0.210	-0.390	2.980	189.62	-1.70	3.50	 	 	 	 	 	 	 	 	 	 	 	 	 	 	 	 	 	 	1581476808	7.75	14.35
12/02/2020 03:06:49	120220	12022020	030649	189.61	13.562163	-56.953198	189.94	-0.350	-0.340	2.630	189.61	-1.70	3.10	 	 	 	 	 	 	 	 	 	 	 	 	 	 	 	 	 	 	1581476809	8.11	15.02
12/02/2020 03:06:50	120220	12022020	030650	189.53	13.562127	-56.953208	189.82	-0.550	-0.230	2.380	189.50	-1.60	2.90	 	 	 	 	 	 	 	 	 	 	 	 	 	 	 	 	 	 	1581476810	8.27	15.32
12/02/2020 03:06:51	120220	12022020	030651	189.45	13.562090	-56.953218	189.76	-0.620	0.020	2.090	189.46	-1.30	2.60	 	 	 	 	 	 	 	 	 	 	 	 	 	 	 	 	 	 	1581476811	8.24	15.26
12/02/2020 03:06:52	120220	12022020	030652	189.62	13.562055	-56.953227	189.96	-0.490	0.410	1.620	189.69	-1.00	2.10	 	 	 	 	 	 	 	 	 	 	 	 	 	 	 	 	 	 	1581476812	8.11	15.02
12/02/2020 03:06:53	120220	12022020	030653	190.08	13.562020	-56.953233	190.42	-0.230	0.700	1.040	190.20	-0.60	1.60	 	 	 	 	 	 	 	 	 	 	 	 	 	 	 	 	 	 	1581476813	7.76	14.37
12/02/2020 03:06:54	120220	12022020	030654	190.61	13.561985	-56.953240	190.91	0.140	0.590	0.560	190.69	-0.80	1.10	 	 	 	 	 	 	 	 	 	 	 	 	 	 	 	 	 	 	1581476814	7.54	13.96
12/02/2020 03:06:55	120220	12022020	030655	190.82	13.561948	-56.953245	191.03	0.600	-0.030	0.390	190.80	-1.40	0.90	 	 	 	 	 	 	 	 	 	 	 	 	 	 	 	 	 	 	1581476815	7.65	14.17
12/02/2020 03:06:56	120220	12022020	030656	190.64	13.561910	-56.953252	190.82	0.950	-0.740	0.570	190.58	-2.10	1.00	 	 	 	 	 	 	 	 	 	 	 	 	 	 	 	 	 	 	1581476816	8.06	14.93
12/02/2020 03:06:57	120220	12022020	030657	190.33	13.561873	-56.953260	190.51	0.980	-0.980	1.030	190.26	-2.30	1.50	 	 	 	 	 	 	 	 	 	 	 	 	 	 	 	 	 	 	1581476817	8.32	15.41
12/02/2020 03:06:58	120220	12022020	030658	190.01	13.561840	-56.953268	190.26	0.650	-0.710	1.570	190.01	-2.10	2.00	 	 	 	 	 	 	 	 	 	 	 	 	 	 	 	 	 	 	1581476818	7.98	14.78
12/02/2020 03:06:59	120220	12022020	030659	189.99	13.561807	-56.953277	190.30	0.040	-0.270	1.990	190.02	-1.60	2.40	 	 	 	 	 	 	 	 	 	 	 	 	 	 	 	 	 	 	1581476819	7.55	13.98
12/02/2020 03:07:00	120220	12022020	030700	190.21	13.561773	-56.953288	190.54	-0.570	-0.160	2.410	190.25	-1.50	2.90	 	 	 	 	 	 	 	 	 	 	 	 	 	 	 	 	 	 	1581476820	7.38	13.67
12/02/2020 03:07:01	120220	12022020	030701	190.41	13.561737	-56.953303	190.74	-0.850	-0.450	2.630	190.44	-1.80	3.10	1017.20	26.00	26.10	20.80	20.90	-1.0	72.0	72.0	394.0	25.7	256.00	10.60	67.00	12.30	16	8438.0	27.2	27.2	1581476821	7.71	14.28
12/02/2020 03:07:02	120220	12022020	030702	190.52	13.561700	-56.953317	190.83	-0.730	-0.870	2.590	190.52	-2.20	3.10	 	 	 	 	 	 	 	 	 	 	 	 	 	 	 	 	 	 	1581476822	8.24	15.26
12/02/2020 03:07:03	120220	12022020	030703	190.39	13.561662	-56.953328	190.66	-0.420	-1.060	2.480	190.33	-2.40	3.00	 	 	 	 	 	 	 	 	 	 	 	 	 	 	 	 	 	 	1581476823	8.49	15.72
12/02/2020 03:07:04	120220	12022020	030704	189.96	13.561627	-56.953338	190.19	-0.140	-0.740	2.520	189.84	-2.10	3.00	 	 	 	 	 	 	 	 	 	 	 	 	 	 	 	 	 	 	1581476824	8.46	15.67
12/02/2020 03:07:05	120220	12022020	030705	189.46	13.561592	-56.953348	189.72	0.070	0.030	2.460	189.38	-1.40	2.90	 	 	 	 	 	 	 	 	 	 	 	 	 	 	 	 	 	 	1581476825	8.11	15.02
12/02/2020 03:07:06	120220	12022020	030706	189.22	13.561557	-56.953353	189.48	0.270	0.770	2.040	189.21	-0.60	2.50	 	 	 	 	 	 	 	 	 	 	 	 	 	 	 	 	 	 	1581476826	7.69	14.24
12/02/2020 03:07:07	120220	12022020	030707	189.29	13.561520	-56.953357	189.58	0.430	0.970	1.500	189.34	-0.40	2.00	 	 	 	 	 	 	 	 	 	 	 	 	 	 	 	 	 	 	1581476827	7.58	14.04
12/02/2020 03:07:08	120220	12022020	030708	189.65	13.561482	-56.953362	189.99	0.480	0.710	1.120	189.76	-0.60	1.60	 	 	 	 	 	 	 	 	 	 	 	 	 	 	 	 	 	 	1581476828	7.92	14.67
12/02/2020 03:07:09	120220	12022020	030709	190.25	13.561445	-56.953367	190.61	0.350	0.370	0.980	190.38	-1.00	1.50	 	 	 	 	 	 	 	 	 	 	 	 	 	 	 	 	 	 	1581476829	8.18	15.15
12/02/2020 03:07:10	120220	12022020	030710	190.81	13.561412	-56.953377	191.14	0.080	-0.130	1.250	190.88	-1.40	1.70	 	 	 	 	 	 	 	 	 	 	 	 	 	 	 	 	 	 	1581476830	7.91	14.65
12/02/2020 03:07:11	120220	12022020	030711	191.00	13.561377	-56.953388	191.28	-0.170	-0.940	2.000	190.99	-2.20	2.40	 	 	 	 	 	 	 	 	 	 	 	 	 	 	 	 	 	 	1581476831	7.68	14.22
12/02/2020 03:07:12	120220	12022020	030712	190.71	13.561340	-56.953405	190.94	-0.190	-1.790	2.890	190.61	-3.10	3.30	 	 	 	 	 	 	 	 	 	 	 	 	 	 	 	 	 	 	1581476832	8.01	14.83
12/02/2020 03:07:13	120220	12022020	030713	190.14	13.561303	-56.953420	190.38	0.030	-2.040	3.420	190.03	-3.40	3.90	 	 	 	 	 	 	 	 	 	 	 	 	 	 	 	 	 	 	1581476833	8.49	15.72
12/02/2020 03:07:14	120220	12022020	030714	189.68	13.561270	-56.953430	189.94	0.190	-1.360	3.370	189.61	-2.70	3.90	 	 	 	 	 	 	 	 	 	 	 	 	 	 	 	 	 	 	1581476834	8.37	15.50
12/02/2020 03:07:15	120220	12022020	030715	189.42	13.561237	-56.953435	189.71	0.060	-0.230	2.850	189.39	-1.60	3.40	 	 	 	 	 	 	 	 	 	 	 	 	 	 	 	 	 	 	1581476835	7.67	14.20
12/02/2020 03:07:16	120220	12022020	030716	189.35	13.561202	-56.953440	189.64	-0.250	0.660	2.190	189.36	-0.70	2.70	 	 	 	 	 	 	 	 	 	 	 	 	 	 	 	 	 	 	1581476836	7.28	13.48
12/02/2020 03:07:17	120220	12022020	030717	189.53	13.561165	-56.953445	189.85	-0.400	0.960	1.550	189.59	-0.40	2.10	 	 	 	 	 	 	 	 	 	 	 	 	 	 	 	 	 	 	1581476837	7.48	13.85
12/02/2020 03:07:18	120220	12022020	030718	189.87	13.561127	-56.953450	190.19	-0.180	0.800	0.880	189.94	-0.50	1.40	 	 	 	 	 	 	 	 	 	 	 	 	 	 	 	 	 	 	1581476838	7.99	14.80
12/02/2020 03:07:19	120220	12022020	030719	190.22	13.561088	-56.953455	190.53	0.210	0.380	0.460	190.28	-0.90	1.00	 	 	 	 	 	 	 	 	 	 	 	 	 	 	 	 	 	 	1581476839	8.30	15.37
12/02/2020 03:07:20	120220	12022020	030720	190.44	13.561050	-56.953462	190.70	0.390	-0.190	0.570	190.44	-1.50	1.00	 	 	 	 	 	 	 	 	 	 	 	 	 	 	 	 	 	 	1581476840	8.37	15.50
12/02/2020 03:07:21	120220	12022020	030721	190.33	13.561013	-56.953473	190.57	0.140	-0.680	1.300	190.27	-2.00	1.70	 	 	 	 	 	 	 	 	 	 	 	 	 	 	 	 	 	 	1581476841	8.27	15.32
12/02/2020 03:07:22	120220	12022020	030722	189.98	13.560980	-56.953488	190.23	-0.360	-0.880	2.400	189.91	-2.20	2.80	 	 	 	 	 	 	 	 	 	 	 	 	 	 	 	 	 	 	1581476842	8.12	15.04
12/02/2020 03:07:23	120220	12022020	030723	189.65	13.560947	-56.953507	189.94	-0.690	-0.660	3.210	189.60	-2.00	3.70	 	 	 	 	 	 	 	 	 	 	 	 	 	 	 	 	 	 	1581476843	8.06	14.93
12/02/2020 03:07:24	120220	12022020	030724	189.47	13.560915	-56.953522	189.78	-0.480	-0.310	3.340	189.46	-1.70	3.80	 	 	 	 	 	 	 	 	 	 	 	 	 	 	 	 	 	 	1581476844	7.87	14.58
12/02/2020 03:07:25	120220	12022020	030725	189.52	13.560880	-56.953530	189.85	0.250	-0.090	2.600	189.55	-1.40	3.10	 	 	 	 	 	 	 	 	 	 	 	 	 	 	 	 	 	 	1581476845	7.67	14.20
12/02/2020 03:07:26	120220	12022020	030726	189.80	13.560843	-56.953530	190.12	0.970	-0.060	1.380	189.86	-1.40	1.90	 	 	 	 	 	 	 	 	 	 	 	 	 	 	 	 	 	 	1581476846	7.64	14.15
12/02/2020 03:07:27	120220	12022020	030727	190.09	13.560805	-56.953528	190.38	1.120	-0.300	0.380	190.13	-1.60	0.90	 	 	 	 	 	 	 	 	 	 	 	 	 	 	 	 	 	 	1581476847	7.90	14.63
12/02/2020 03:07:28	120220	12022020	030728	190.19	13.560767	-56.953530	190.42	0.590	-0.640	0.000	190.18	-2.00	0.50	 	 	 	 	 	 	 	 	 	 	 	 	 	 	 	 	 	 	1581476848	8.24	15.26
12/02/2020 03:07:29	120220	12022020	030729	190.05	13.560730	-56.953537	190.27	-0.290	-0.840	0.410	190.01	-2.20	0.90	 	 	 	 	 	 	 	 	 	 	 	 	 	 	 	 	 	 	1581476849	8.26	15.30
12/02/2020 03:07:30	120220	12022020	030730	189.86	13.560695	-56.953550	190.11	-0.950	-0.720	1.220	189.84	-2.10	1.70	 	 	 	 	 	 	 	 	 	 	 	 	 	 	 	 	 	 	1581476850	8.12	15.04
12/02/2020 03:07:31	120220	12022020	030731	189.78	13.560662	-56.953565	190.07	-1.090	-0.250	1.920	189.77	-1.60	2.40	 	 	 	 	 	 	 	 	 	 	 	 	 	 	 	 	 	 	1581476851	8.11	15.02
12/02/2020 03:07:32	120220	12022020	030732	189.70	13.560627	-56.953580	189.97	-0.760	0.150	2.380	189.67	-1.20	2.80	 	 	 	 	 	 	 	 	 	 	 	 	 	 	 	 	 	 	1581476852	7.89	14.61
12/02/2020 03:07:33	120220	12022020	030733	189.58	13.560592	-56.953592	189.88	-0.270	0.240	2.490	189.56	-1.10	3.00	 	 	 	 	 	 	 	 	 	 	 	 	 	 	 	 	 	 	1581476853	7.88	14.59
12/02/2020 03:07:34	120220	12022020	030734	189.56	13.560555	-56.953598	189.90	0.070	0.210	2.220	189.58	-1.10	2.70	 	 	 	 	 	 	 	 	 	 	 	 	 	 	 	 	 	 	1581476854	8.09	14.98
12/02/2020 03:07:35	120220	12022020	030735	189.75	13.560518	-56.953605	190.09	0.150	0.220	1.570	189.81	-1.10	2.10	 	 	 	 	 	 	 	 	 	 	 	 	 	 	 	 	 	 	1581476855	8.07	14.95
12/02/2020 03:07:36	120220	12022020	030736	190.00	13.560483	-56.953610	190.30	0.220	0.100	0.770	190.04	-1.20	1.30	 	 	 	 	 	 	 	 	 	 	 	 	 	 	 	 	 	 	1581476856	7.80	14.45
12/02/2020 03:07:37	120220	12022020	030737	190.09	13.560447	-56.953615	190.36	0.530	-0.260	0.270	190.09	-1.60	0.80	 	 	 	 	 	 	 	 	 	 	 	 	 	 	 	 	 	 	1581476857	7.72	14.30
12/02/2020 03:07:38	120220	12022020	030738	190.12	13.560408	-56.953620	190.40	0.880	-0.610	0.260	190.13	-1.90	0.80	 	 	 	 	 	 	 	 	 	 	 	 	 	 	 	 	 	 	1581476858	7.96	14.74
12/02/2020 03:07:39	120220	12022020	030739	190.25	13.560373	-56.953625	190.56	0.810	-0.630	0.520	190.30	-2.00	1.00	 	 	 	 	 	 	 	 	 	 	 	 	 	 	 	 	 	 	1581476859	8.11	15.02
12/02/2020 03:07:40	120220	12022020	030740	190.46	13.560340	-56.953635	190.77	0.220	-0.380	1.140	190.49	-1.70	1.60	 	 	 	 	 	 	 	 	 	 	 	 	 	 	 	 	 	 	1581476860	7.83	14.50
12/02/2020 03:07:41	120220	12022020	030741	190.55	13.560307	-56.953648	190.87	-0.460	-0.200	2.080	190.56	-1.50	2.50	 	 	 	 	 	 	 	 	 	 	 	 	 	 	 	 	 	 	1581476861	7.46	13.82
12/02/2020 03:07:42	120220	12022020	030742	190.54	13.560273	-56.953663	190.85	-0.760	-0.300	2.750	190.52	-1.60	3.20	 	 	 	 	 	 	 	 	 	 	 	 	 	 	 	 	 	 	1581476862	7.58	14.04
12/02/2020 03:07:43	120220	12022020	030743	190.30	13.560235	-56.953675	190.58	-0.550	-0.810	3.040	190.22	-2.10	3.50	 	 	 	 	 	 	 	 	 	 	 	 	 	 	 	 	 	 	1581476863	7.92	14.67
12/02/2020 03:07:44	120220	12022020	030744	189.95	13.560197	-56.953688	190.28	-0.160	-1.120	3.000	189.93	-2.40	3.50	 	 	 	 	 	 	 	 	 	 	 	 	 	 	 	 	 	 	1581476864	8.50	15.74
12/02/2020 03:07:45	120220	12022020	030745	189.98	13.560162	-56.953697	190.36	0.020	-0.570	2.460	190.04	-1.90	3.00	 	 	 	 	 	 	 	 	 	 	 	 	 	 	 	 	 	 	1581476865	8.69	16.09
12/02/2020 03:07:46	120220	12022020	030746	190.30	13.560130	-56.953700	190.65	-0.020	0.420	1.590	190.30	-1.00	2.10	 	 	 	 	 	 	 	 	 	 	 	 	 	 	 	 	 	 	1581476866	7.82	14.48
12/02/2020 03:07:47	120220	12022020	030747	190.49	13.560095	-56.953705	190.79	-0.000	0.700	0.970	190.50	-0.60	1.50	 	 	 	 	 	 	 	 	 	 	 	 	 	 	 	 	 	 	1581476867	6.99	12.95
12/02/2020 03:07:48	120220	12022020	030748	190.44	13.560055	-56.953710	190.71	0.150	0.140	0.870	190.41	-1.20	1.40	 	 	 	 	 	 	 	 	 	 	 	 	 	 	 	 	 	 	1581476868	7.52	13.93
12/02/2020 03:07:49	120220	12022020	030749	190.17	13.560017	-56.953720	190.43	0.290	-0.510	1.230	190.13	-1.80	1.70	 	 	 	 	 	 	 	 	 	 	 	 	 	 	 	 	 	 	1581476869	8.45	15.65
12/02/2020 03:07:50	120220	12022020	030750	190.01	13.559980	-56.953730	190.31	0.290	-0.500	1.600	190.01	-1.90	2.10	 	 	 	 	 	 	 	 	 	 	 	 	 	 	 	 	 	 	1581476870	8.75	16.21
12/02/2020 03:07:51	120220	12022020	030751	190.08	13.559947	-56.953738	190.40	0.130	0.090	1.780	190.11	-1.30	2.30	 	 	 	 	 	 	 	 	 	 	 	 	 	 	 	 	 	 	1581476871	8.16	15.11
12/02/2020 03:07:52	120220	12022020	030752	190.26	13.559913	-56.953747	190.58	-0.090	0.530	1.840	190.29	-0.80	2.30	 	 	 	 	 	 	 	 	 	 	 	 	 	 	 	 	 	 	1581476872	7.32	13.56
12/02/2020 03:07:53	120220	12022020	030753	190.35	13.559878	-56.953755	190.63	-0.170	0.160	1.840	190.34	-1.10	2.30	 	 	 	 	 	 	 	 	 	 	 	 	 	 	 	 	 	 	1581476873	7.11	13.17
12/02/2020 03:07:54	120220	12022020	030754	190.21	13.559840	-56.953765	190.47	-0.060	-0.780	1.880	190.17	-2.10	2.40	 	 	 	 	 	 	 	 	 	 	 	 	 	 	 	 	 	 	1581476874	7.82	14.48
12/02/2020 03:07:55	120220	12022020	030755	190.04	13.559802	-56.953777	190.33	0.050	-1.310	1.970	190.03	-2.60	2.40	 	 	 	 	 	 	 	 	 	 	 	 	 	 	 	 	 	 	1581476875	8.61	15.95
12/02/2020 03:07:56	120220	12022020	030756	190.05	13.559768	-56.953787	190.36	0.020	-0.960	1.910	190.06	-2.30	2.40	 	 	 	 	 	 	 	 	 	 	 	 	 	 	 	 	 	 	1581476876	8.49	15.72
12/02/2020 03:07:57	120220	12022020	030757	190.01	13.559737	-56.953795	190.28	-0.040	-0.340	1.830	189.97	-1.70	2.30	 	 	 	 	 	 	 	 	 	 	 	 	 	 	 	 	 	 	1581476877	7.58	14.04
12/02/2020 03:07:58	120220	12022020	030758	189.71	13.559702	-56.953803	189.94	0.050	-0.060	1.890	189.63	-1.40	2.40	 	 	 	 	 	 	 	 	 	 	 	 	 	 	 	 	 	 	1581476878	7.21	13.35
12/02/2020 03:07:59	120220	12022020	030759	189.40	13.559663	-56.953812	189.67	0.150	-0.020	1.990	189.36	-1.40	2.50	 	 	 	 	 	 	 	 	 	 	 	 	 	 	 	 	 	 	1581476879	7.68	14.22
12/02/2020 03:08:00	120220	12022020	030800	189.34	13.559628	-56.953820	189.65	0.050	0.180	1.990	189.36	-1.20	2.50	 	 	 	 	 	 	 	 	 	 	 	 	 	 	 	 	 	 	1581476880	8.11	15.02
12/02/2020 03:08:01	120220	12022020	030801	189.52	13.559593	-56.953828	189.85	-0.150	0.340	1.800	189.57	-1.00	2.30	1017.10	26.10	26.20	21.00	21.00	-1.0	73.0	73.0	393.0	25.7	255.00	10.20	66.00	11.90	16	8258.0	27.2	27.2	1581476881	7.94	14.70
12/02/2020 03:08:02	120220	12022020	030802	189.72	13.559557	-56.953837	190.02	-0.140	-0.080	1.610	189.74	-1.40	2.10	 	 	 	 	 	 	 	 	 	 	 	 	 	 	 	 	 	 	1581476882	7.71	14.28
12/02/2020 03:08:03	120220	12022020	030803	189.66	13.559517	-56.953845	189.90	0.190	-0.950	1.670	189.61	-2.20	2.10	 	 	 	 	 	 	 	 	 	 	 	 	 	 	 	 	 	 	1581476883	8.14	15.08
12/02/2020 03:08:04	120220	12022020	030804	189.41	13.559477	-56.953853	189.67	0.470	-1.300	1.850	189.38	-2.70	2.30	 	 	 	 	 	 	 	 	 	 	 	 	 	 	 	 	 	 	1581476884	8.83	16.35
12/02/2020 03:08:05	120220	12022020	030805	189.39	13.559442	-56.953860	189.70	0.190	-0.520	1.910	189.42	-1.90	2.40	 	 	 	 	 	 	 	 	 	 	 	 	 	 	 	 	 	 	1581476885	8.67	16.06
12/02/2020 03:08:06	120220	12022020	030806	189.58	13.559413	-56.953868	189.87	-0.520	0.620	2.000	189.60	-0.80	2.50	 	 	 	 	 	 	 	 	 	 	 	 	 	 	 	 	 	 	1581476886	7.46	13.82
12/02/2020 03:08:07	120220	12022020	030807	189.60	13.559380	-56.953880	189.83	-1.000	0.870	2.310	189.56	-0.40	2.80	 	 	 	 	 	 	 	 	 	 	 	 	 	 	 	 	 	 	1581476887	6.66	12.33
12/02/2020 03:08:08	120220	12022020	030808	189.39	13.559342	-56.953892	189.65	-0.780	0.160	2.550	189.35	-1.10	3.00	 	 	 	 	 	 	 	 	 	 	 	 	 	 	 	 	 	 	1581476888	7.39	13.69
12/02/2020 03:08:09	120220	12022020	030809	189.21	13.559303	-56.953903	189.48	-0.090	-0.500	2.600	189.17	-1.80	3.10	 	 	 	 	 	 	 	 	 	 	 	 	 	 	 	 	 	 	1581476889	8.54	15.82
12/02/2020 03:08:10	120220	12022020	030810	189.05	13.559267	-56.953910	189.31	0.580	-0.670	2.260	189.02	-2.00	2.80	 	 	 	 	 	 	 	 	 	 	 	 	 	 	 	 	 	 	1581476890	8.66	16.04
12/02/2020 03:08:11	120220	12022020	030811	188.90	13.559232	-56.953915	189.16	0.860	-0.550	1.610	188.88	-1.90	2.10	 	 	 	 	 	 	 	 	 	 	 	 	 	 	 	 	 	 	1581476891	8.07	14.95
12/02/2020 03:08:12	120220	12022020	030812	188.87	13.559195	-56.953917	189.13	0.700	-0.330	1.030	188.88	-1.70	1.50	 	 	 	 	 	 	 	 	 	 	 	 	 	 	 	 	 	 	1581476892	7.74	14.33
12/02/2020 03:08:13	120220	12022020	030813	188.99	13.559160	-56.953920	189.27	0.300	-0.120	0.730	189.03	-1.50	1.20	 	 	 	 	 	 	 	 	 	 	 	 	 	 	 	 	 	 	1581476893	7.61	14.09
12/02/2020 03:08:14	120220	12022020	030814	189.22	13.559125	-56.953927	189.49	-0.120	-0.090	0.820	189.26	-1.40	1.30	 	 	 	 	 	 	 	 	 	 	 	 	 	 	 	 	 	 	1581476894	7.54	13.96
12/02/2020 03:08:15	120220	12022020	030815	189.33	13.559088	-56.953937	189.59	-0.340	-0.440	1.300	189.32	-1.80	1.70	 	 	 	 	 	 	 	 	 	 	 	 	 	 	 	 	 	 	1581476895	7.67	14.20
12/02/2020 03:08:16	120220	12022020	030816	189.19	13.559052	-56.953950	189.46	-0.340	-0.970	2.100	189.15	-2.30	2.50	 	 	 	 	 	 	 	 	 	 	 	 	 	 	 	 	 	 	1581476896	8.14	15.08
12/02/2020 03:08:17	120220	12022020	030817	188.98	13.559013	-56.953965	189.27	-0.330	-1.030	2.890	188.94	-2.40	3.30	 	 	 	 	 	 	 	 	 	 	 	 	 	 	 	 	 	 	1581476897	8.65	16.02
12/02/2020 03:08:18	120220	12022020	030818	188.80	13.558980	-56.953978	189.11	-0.410	-0.320	3.350	188.78	-1.70	3.80	 	 	 	 	 	 	 	 	 	 	 	 	 	 	 	 	 	 	1581476898	8.51	15.76
12/02/2020 03:08:19	120220	12022020	030819	188.75	13.558948	-56.953987	189.05	-0.380	0.600	3.170	188.75	-0.80	3.70	 	 	 	 	 	 	 	 	 	 	 	 	 	 	 	 	 	 	1581476899	7.70	14.26
12/02/2020 03:08:20	120220	12022020	030820	188.85	13.558913	-56.953990	189.15	-0.080	0.950	2.430	188.88	-0.40	3.00	 	 	 	 	 	 	 	 	 	 	 	 	 	 	 	 	 	 	1581476900	7.15	13.24
12/02/2020 03:08:21	120220	12022020	030821	189.05	13.558875	-56.953993	189.36	0.280	0.550	1.560	189.10	-0.80	2.10	 	 	 	 	 	 	 	 	 	 	 	 	 	 	 	 	 	 	1581476901	7.49	13.87
12/02/2020 03:08:22	120220	12022020	030822	189.29	13.558837	-56.953997	189.59	0.400	-0.240	1.040	189.34	-1.50	1.50	 	 	 	 	 	 	 	 	 	 	 	 	 	 	 	 	 	 	1581476902	8.20	15.19
12/02/2020 03:08:23	120220	12022020	030823	189.49	13.558798	-56.954003	189.80	0.320	-0.750	0.970	189.54	-2.10	1.50	 	 	 	 	 	 	 	 	 	 	 	 	 	 	 	 	 	 	1581476903	8.49	15.72
12/02/2020 03:08:24	120220	12022020	030824	189.68	13.558765	-56.954012	189.99	0.220	-0.730	0.980	189.71	-2.10	1.50	 	 	 	 	 	 	 	 	 	 	 	 	 	 	 	 	 	 	1581476904	8.16	15.11
12/02/2020 03:08:25	120220	12022020	030825	189.84	13.558732	-56.954017	190.13	0.280	-0.580	0.960	189.86	-1.90	1.40	 	 	 	 	 	 	 	 	 	 	 	 	 	 	 	 	 	 	1581476905	7.56	14.00
12/02/2020 03:08:26	120220	12022020	030826	189.88	13.558695	-56.954025	190.14	0.330	-0.670	1.240	189.86	-2.00	1.70	 	 	 	 	 	 	 	 	 	 	 	 	 	 	 	 	 	 	1581476906	7.38	13.67
12/02/2020 03:08:27	120220	12022020	030827	189.58	13.558658	-56.954035	189.79	0.130	-1.010	1.910	189.47	-2.30	2.30	 	 	 	 	 	 	 	 	 	 	 	 	 	 	 	 	 	 	1581476907	7.72	14.30
12/02/2020 03:08:28	120220	12022020	030828	188.94	13.558622	-56.954047	189.15	-0.310	-1.110	2.650	188.82	-2.50	3.10	 	 	 	 	 	 	 	 	 	 	 	 	 	 	 	 	 	 	1581476908	8.27	15.32
12/02/2020 03:08:29	120220	12022020	030829	188.53	13.558587	-56.954062	188.81	-0.810	-0.450	3.040	188.50	-1.80	3.50	 	 	 	 	 	 	 	 	 	 	 	 	 	 	 	 	 	 	1581476909	8.53	15.80
12/02/2020 03:08:30	120220	12022020	030830	188.55	13.558555	-56.954073	188.89	-1.020	0.630	2.890	188.60	-0.80	3.40	 	 	 	 	 	 	 	 	 	 	 	 	 	 	 	 	 	 	1581476910	8.04	14.89
12/02/2020 03:08:31	120220	12022020	030831	188.86	13.558522	-56.954082	189.19	-0.670	1.280	2.120	188.95	-0.10	2.70	 	 	 	 	 	 	 	 	 	 	 	 	 	 	 	 	 	 	1581476911	7.39	13.69
12/02/2020 03:08:32	120220	12022020	030832	189.32	13.558483	-56.954085	189.64	0.060	1.130	1.030	189.42	-0.20	1.60	 	 	 	 	 	 	 	 	 	 	 	 	 	 	 	 	 	 	1581476912	7.37	13.65
12/02/2020 03:08:33	120220	12022020	030833	189.80	13.558445	-56.954087	190.11	0.680	0.380	0.210	189.88	-0.90	0.70	 	 	 	 	 	 	 	 	 	 	 	 	 	 	 	 	 	 	1581476913	7.95	14.72
12/02/2020 03:08:34	120220	12022020	030834	190.15	13.558407	-56.954090	190.43	0.870	-0.580	-0.000	190.19	-1.90	0.50	 	 	 	 	 	 	 	 	 	 	 	 	 	 	 	 	 	 	1581476914	8.38	15.52
12/02/2020 03:08:35	120220	12022020	030835	190.28	13.558370	-56.954097	190.53	0.660	-1.250	0.530	190.28	-2.60	1.00	 	 	 	 	 	 	 	 	 	 	 	 	 	 	 	 	 	 	1581476915	8.38	15.52
12/02/2020 03:08:36	120220	12022020	030836	190.16	13.558337	-56.954110	190.40	0.280	-1.330	1.570	190.16	-2.70	2.00	 	 	 	 	 	 	 	 	 	 	 	 	 	 	 	 	 	 	1581476916	8.06	14.93
12/02/2020 03:08:37	120220	12022020	030837	189.80	13.558303	-56.954123	190.02	-0.090	-1.030	2.660	189.70	-2.40	3.10	 	 	 	 	 	 	 	 	 	 	 	 	 	 	 	 	 	 	1581476917	7.65	14.17
12/02/2020 03:08:38	120220	12022020	030838	189.32	13.558270	-56.954137	189.57	-0.320	-0.730	3.340	189.24	-2.10	3.80	 	 	 	 	 	 	 	 	 	 	 	 	 	 	 	 	 	 	1581476918	7.51	13.91
12/02/2020 03:08:39	120220	12022020	030839	188.94	13.558235	-56.954148	189.21	-0.390	-0.490	3.530	188.89	-1.80	4.00	 	 	 	 	 	 	 	 	 	 	 	 	 	 	 	 	 	 	1581476919	7.75	14.35
12/02/2020 03:08:40	120220	12022020	030840	188.83	13.558198	-56.954158	189.15	-0.390	-0.090	3.180	188.86	-1.50	3.70	 	 	 	 	 	 	 	 	 	 	 	 	 	 	 	 	 	 	1581476920	8.02	14.85
12/02/2020 03:08:41	120220	12022020	030841	189.07	13.558163	-56.954163	189.41	-0.370	0.400	2.350	189.14	-1.00	2.90	 	 	 	 	 	 	 	 	 	 	 	 	 	 	 	 	 	 	1581476921	7.95	14.72
12/02/2020 03:08:42	120220	12022020	030842	189.47	13.558128	-56.954168	189.81	-0.280	0.640	1.270	189.57	-0.70	1.80	 	 	 	 	 	 	 	 	 	 	 	 	 	 	 	 	 	 	1581476922	7.69	14.24
12/02/2020 03:08:43	120220	12022020	030843	190.03	13.558092	-56.954170	190.38	-0.080	0.540	0.280	190.17	-0.80	0.80	 	 	 	 	 	 	 	 	 	 	 	 	 	 	 	 	 	 	1581476923	7.78	14.41
12/02/2020 03:08:44	120220	12022020	030844	190.65	13.558055	-56.954175	190.97	0.150	0.200	-0.220	190.73	-1.10	0.30	 	 	 	 	 	 	 	 	 	 	 	 	 	 	 	 	 	 	1581476924	7.94	14.70
12/02/2020 03:08:45	120220	12022020	030845	190.81	13.558017	-56.954182	191.02	0.360	-0.540	0.210	190.75	-1.80	0.60	 	 	 	 	 	 	 	 	 	 	 	 	 	 	 	 	 	 	1581476925	7.89	14.61
12/02/2020 03:08:46	120220	12022020	030846	190.23	13.557980	-56.954193	190.38	0.500	-1.360	1.420	190.05	-2.70	1.80	 	 	 	 	 	 	 	 	 	 	 	 	 	 	 	 	 	 	1581476926	8.15	15.09
12/02/2020 03:08:47	120220	12022020	030847	189.39	13.557943	-56.954208	189.60	0.310	-1.280	2.850	189.27	-2.70	3.30	 	 	 	 	 	 	 	 	 	 	 	 	 	 	 	 	 	 	1581476927	8.56	15.85
12/02/2020 03:08:48	120220	12022020	030848	188.97	13.557915	-56.954225	189.27	-0.180	-0.100	3.760	188.96	-1.50	4.20	 	 	 	 	 	 	 	 	 	 	 	 	 	 	 	 	 	 	1581476928	8.21	15.20
12/02/2020 03:08:49	120220	12022020	030849	189.00	13.557887	-56.954237	189.33	-0.510	1.000	3.730	189.03	-0.40	4.20	 	 	 	 	 	 	 	 	 	 	 	 	 	 	 	 	 	 	1581476929	7.14	13.22
12/02/2020 03:08:50	120220	12022020	030850	189.17	13.557852	-56.954245	189.51	-0.320	0.800	3.060	189.21	-0.50	3.60	 	 	 	 	 	 	 	 	 	 	 	 	 	 	 	 	 	 	1581476930	6.61	12.24
12/02/2020 03:08:51	120220	12022020	030851	189.43	13.557812	-56.954252	189.76	0.220	-0.210	2.110	189.48	-1.50	2.70	 	 	 	 	 	 	 	 	 	 	 	 	 	 	 	 	 	 	1581476931	7.66	14.19
12/02/2020 03:08:52	120220	12022020	030852	189.70	13.557773	-56.954255	190.01	0.590	-1.000	1.360	189.74	-2.30	1.90	 	 	 	 	 	 	 	 	 	 	 	 	 	 	 	 	 	 	1581476932	8.60	15.93
12/02/2020 03:08:53	120220	12022020	030853	189.84	13.557738	-56.954262	190.12	0.500	-1.110	1.120	189.84	-2.50	1.60	 	 	 	 	 	 	 	 	 	 	 	 	 	 	 	 	 	 	1581476933	8.47	15.69
12/02/2020 03:08:54	120220	12022020	030854	189.73	13.557705	-56.954270	189.97	0.100	-0.680	1.360	189.67	-2.10	1.80	 	 	 	 	 	 	 	 	 	 	 	 	 	 	 	 	 	 	1581476934	7.71	14.28
12/02/2020 03:08:55	120220	12022020	030855	189.39	13.557673	-56.954280	189.62	-0.180	-0.330	1.740	189.32	-1.70	2.20	 	 	 	 	 	 	 	 	 	 	 	 	 	 	 	 	 	 	1581476935	7.14	13.22
12/02/2020 03:08:56	120220	12022020	030856	189.10	13.557638	-56.954288	189.34	-0.210	-0.250	1.930	189.05	-1.60	2.40	 	 	 	 	 	 	 	 	 	 	 	 	 	 	 	 	 	 	1581476936	7.32	13.56
12/02/2020 03:08:57	120220	12022020	030857	188.85	13.557602	-56.954297	189.08	-0.160	-0.360	2.140	188.79	-1.70	2.60	 	 	 	 	 	 	 	 	 	 	 	 	 	 	 	 	 	 	1581476937	7.76	14.37
12/02/2020 03:08:58	120220	12022020	030858	188.63	13.557563	-56.954307	188.88	-0.170	-0.420	2.340	188.61	-1.80	2.80	 	 	 	 	 	 	 	 	 	 	 	 	 	 	 	 	 	 	1581476938	8.09	14.98
12/02/2020 03:08:59	120220	12022020	030859	188.63	13.557528	-56.954318	188.91	-0.310	-0.130	2.380	188.66	-1.50	2.80	 	 	 	 	 	 	 	 	 	 	 	 	 	 	 	 	 	 	1581476939	8.24	15.26
12/02/2020 03:09:00	120220	12022020	030900	188.86	13.557495	-56.954328	189.17	-0.480	0.460	2.310	188.86	-0.90	2.80	 	 	 	 	 	 	 	 	 	 	 	 	 	 	 	 	 	 	1581476940	7.92	14.67
12/02/2020 03:09:01	120220	12022020	030901	189.17	13.557463	-56.954337	189.48	-0.490	0.930	2.220	189.23	-0.40	2.70	1017.20	26.10	26.10	21.00	21.10	-1.0	73.0	73.0	392.0	25.7	259.00	10.10	68.00	11.60	16	9217.0	27.2	27.2	1581476941	7.42	13.74
12/02/2020 03:09:02	120220	12022020	030902	189.40	13.557430	-56.954345	189.66	-0.190	0.860	1.970	189.42	-0.50	2.50	 	 	 	 	 	 	 	 	 	 	 	 	 	 	 	 	 	 	1581476942	7.16	13.26
12/02/2020 03:09:03	120220	12022020	030903	189.37	13.557393	-56.954352	189.59	0.410	0.150	1.620	189.35	-1.20	2.10	 	 	 	 	 	 	 	 	 	 	 	 	 	 	 	 	 	 	1581476943	7.38	13.67
12/02/2020 03:09:04	120220	12022020	030904	189.31	13.557357	-56.954357	189.56	0.970	-0.740	1.200	189.31	-2.00	1.70	 	 	 	 	 	 	 	 	 	 	 	 	 	 	 	 	 	 	1581476944	7.91	14.65
12/02/2020 03:09:05	120220	12022020	030905	189.32	13.557320	-56.954360	189.57	1.130	-1.270	0.870	189.31	-2.60	1.40	 	 	 	 	 	 	 	 	 	 	 	 	 	 	 	 	 	 	1581476945	8.19	15.17
12/02/2020 03:09:06	120220	12022020	030906	189.11	13.557285	-56.954365	189.30	0.780	-1.380	1.150	189.03	-2.70	1.60	 	 	 	 	 	 	 	 	 	 	 	 	 	 	 	 	 	 	1581476946	7.89	14.61
12/02/2020 03:09:07	120220	12022020	030907	188.66	13.557252	-56.954377	188.87	0.080	-1.140	2.050	188.59	-2.50	2.50	 	 	 	 	 	 	 	 	 	 	 	 	 	 	 	 	 	 	1581476947	7.54	13.96
12/02/2020 03:09:08	120220	12022020	030908	188.44	13.557220	-56.954392	188.75	-0.680	-0.550	2.820	188.46	-1.90	3.30	 	 	 	 	 	 	 	 	 	 	 	 	 	 	 	 	 	 	1581476948	7.57	14.02
12/02/2020 03:09:09	120220	12022020	030909	188.66	13.557187	-56.954407	189.02	-1.080	0.130	3.010	188.74	-1.20	3.50	 	 	 	 	 	 	 	 	 	 	 	 	 	 	 	 	 	 	1581476949	7.63	14.13
12/02/2020 03:09:10	120220	12022020	030910	189.05	13.557153	-56.954418	189.39	-0.920	0.430	2.690	189.11	-0.90	3.20	 	 	 	 	 	 	 	 	 	 	 	 	 	 	 	 	 	 	1581476950	7.56	14.00
12/02/2020 03:09:11	120220	12022020	030911	189.32	13.557115	-56.954425	189.64	-0.390	0.100	2.140	189.37	-1.20	2.60	 	 	 	 	 	 	 	 	 	 	 	 	 	 	 	 	 	 	1581476951	7.67	14.20
12/02/2020 03:09:12	120220	12022020	030912	189.51	13.557077	-56.954432	189.81	0.040	-0.310	1.680	189.54	-1.60	2.20	 	 	 	 	 	 	 	 	 	 	 	 	 	 	 	 	 	 	1581476952	8.27	15.32
12/02/2020 03:09:13	120220	12022020	030913	189.64	13.557040	-56.954437	189.93	0.140	-0.240	1.410	189.66	-1.60	1.90	 	 	 	 	 	 	 	 	 	 	 	 	 	 	 	 	 	 	1581476953	8.44	15.63
12/02/2020 03:09:14	120220	12022020	030914	189.71	13.557007	-56.954442	189.99	0.040	0.140	1.170	189.71	-1.20	1.70	 	 	 	 	 	 	 	 	 	 	 	 	 	 	 	 	 	 	1581476954	7.89	14.61
12/02/2020 03:09:15	120220	12022020	030915	189.72	13.556973	-56.954447	189.99	0.020	0.400	0.990	189.72	-1.00	1.50	 	 	 	 	 	 	 	 	 	 	 	 	 	 	 	 	 	 	1581476955	7.34	13.59
12/02/2020 03:09:16	120220	12022020	030916	189.68	13.556938	-56.954453	189.96	0.240	0.240	0.940	189.67	-1.10	1.40	 	 	 	 	 	 	 	 	 	 	 	 	 	 	 	 	 	 	1581476956	7.26	13.45
12/02/2020 03:09:17	120220	12022020	030917	189.60	13.556902	-56.954460	189.86	0.590	-0.220	1.120	189.58	-1.50	1.60	 	 	 	 	 	 	 	 	 	 	 	 	 	 	 	 	 	 	1581476957	7.60	14.08
12/02/2020 03:09:18	120220	12022020	030918	189.46	13.556865	-56.954468	189.74	0.740	-0.770	1.680	189.43	-2.10	2.10	 	 	 	 	 	 	 	 	 	 	 	 	 	 	 	 	 	 	1581476958	7.93	14.69
12/02/2020 03:09:19	120220	12022020	030919	189.33	13.556830	-56.954480	189.62	0.470	-0.990	2.580	189.31	-2.30	3.00	 	 	 	 	 	 	 	 	 	 	 	 	 	 	 	 	 	 	1581476959	8.13	15.06
12/02/2020 03:09:20	120220	12022020	030920	189.19	13.556797	-56.954497	189.48	-0.100	-0.740	3.410	189.15	-2.10	3.90	 	 	 	 	 	 	 	 	 	 	 	 	 	 	 	 	 	 	1581476960	8.01	14.83
12/02/2020 03:09:21	120220	12022020	030921	189.02	13.556767	-56.954512	189.32	-0.600	-0.250	3.870	189.00	-1.60	4.30	 	 	 	 	 	 	 	 	 	 	 	 	 	 	 	 	 	 	1581476961	7.72	14.30
12/02/2020 03:09:22	120220	12022020	030922	189.00	13.556735	-56.954525	189.31	-0.810	0.210	3.730	189.02	-1.20	4.20	 	 	 	 	 	 	 	 	 	 	 	 	 	 	 	 	 	 	1581476962	7.47	13.83
12/02/2020 03:09:23	120220	12022020	030923	189.09	13.556702	-56.954535	189.39	-0.590	0.310	3.080	189.10	-1.00	3.60	 	 	 	 	 	 	 	 	 	 	 	 	 	 	 	 	 	 	1581476963	7.37	13.65
12/02/2020 03:09:24	120220	12022020	030924	189.10	13.556665	-56.954540	189.36	0.030	-0.070	2.170	189.10	-1.40	2.70	 	 	 	 	 	 	 	 	 	 	 	 	 	 	 	 	 	 	1581476964	7.48	13.85
12/02/2020 03:09:25	120220	12022020	030925	189.25	13.556625	-56.954542	189.56	0.730	-0.430	0.970	189.35	-1.80	1.50	 	 	 	 	 	 	 	 	 	 	 	 	 	 	 	 	 	 	1581476965	7.99	14.80
12/02/2020 03:09:26	120220	12022020	030926	189.84	13.556588	-56.954538	190.18	0.990	-0.440	-0.050	189.84	-1.80	0.50	 	 	 	 	 	 	 	 	 	 	 	 	 	 	 	 	 	 	1581476966	8.26	15.30
12/02/2020 03:09:27	120220	12022020	030927	190.44	13.556555	-56.954542	190.75	0.670	-0.420	-0.110	190.52	-1.80	0.40	 	 	 	 	 	 	 	 	 	 	 	 	 	 	 	 	 	 	1581476967	7.87	14.58
12/02/2020 03:09:28	120220	12022020	030928	190.60	13.556520	-56.954552	190.84	0.090	-0.680	0.780	190.60	-2.00	1.20	 	 	 	 	 	 	 	 	 	 	 	 	 	 	 	 	 	 	1581476968	7.49	13.87
12/02/2020 03:09:29	120220	12022020	030929	190.25	13.556485	-56.954565	190.48	-0.370	-1.010	2.230	190.14	-2.30	2.60	 	 	 	 	 	 	 	 	 	 	 	 	 	 	 	 	 	 	1581476969	7.73	14.32
12/02/2020 03:09:30	120220	12022020	030930	189.49	13.556448	-56.954583	189.70	-0.530	-1.120	3.700	189.32	-2.50	4.10	 	 	 	 	 	 	 	 	 	 	 	 	 	 	 	 	 	 	1581476970	8.19	15.17
12/02/2020 03:09:31	120220	12022020	030931	188.63	13.556415	-56.954600	188.85	-0.550	-0.690	4.620	188.49	-2.10	5.10	 	 	 	 	 	 	 	 	 	 	 	 	 	 	 	 	 	 	1581476971	8.46	15.67
12/02/2020 03:09:32	120220	12022020	030932	188.16	13.556382	-56.954612	188.45	-0.670	0.220	4.710	188.13	-1.20	5.20	 	 	 	 	 	 	 	 	 	 	 	 	 	 	 	 	 	 	1581476972	8.22	15.22
12/02/2020 03:09:33	120220	12022020	030933	188.19	13.556350	-56.954623	188.51	-0.820	1.090	4.120	188.24	-0.30	4.60	 	 	 	 	 	 	 	 	 	 	 	 	 	 	 	 	 	 	1581476973	7.58	14.04
12/02/2020 03:09:34	120220	12022020	030934	188.53	13.556317	-56.954632	188.84	-0.710	1.510	3.030	188.62	0.20	3.60	 	 	 	 	 	 	 	 	 	 	 	 	 	 	 	 	 	 	1581476974	7.22	13.37
12/02/2020 03:09:35	120220	12022020	030935	189.02	13.556282	-56.954635	189.33	-0.070	1.300	1.510	189.13	-0.00	2.10	 	 	 	 	 	 	 	 	 	 	 	 	 	 	 	 	 	 	1581476975	7.22	13.37
12/02/2020 03:09:36	120220	12022020	030936	189.52	13.556245	-56.954635	189.81	0.920	0.450	0.030	189.60	-0.80	0.60	 	 	 	 	 	 	 	 	 	 	 	 	 	 	 	 	 	 	1581476976	7.46	13.82
12/02/2020 03:09:37	120220	12022020	030937	189.85	13.556207	-56.954635	190.09	1.700	-0.730	-0.820	189.89	-2.00	-0.30	 	 	 	 	 	 	 	 	 	 	 	 	 	 	 	 	 	 	1581476977	7.94	14.70
12/02/2020 03:09:38	120220	12022020	030938	190.06	13.556170	-56.954637	190.33	1.740	-1.570	-0.840	190.11	-2.90	-0.40	 	 	 	 	 	 	 	 	 	 	 	 	 	 	 	 	 	 	1581476978	8.26	15.30
12/02/2020 03:09:39	120220	12022020	030939	190.33	13.556138	-56.954643	190.64	0.980	-1.670	0.080	190.38	-3.00	0.50	 	 	 	 	 	 	 	 	 	 	 	 	 	 	 	 	 	 	1581476979	7.91	14.65
12/02/2020 03:09:40	120220	12022020	030940	190.34	13.556107	-56.954658	190.59	-0.040	-1.570	1.750	190.26	-2.90	2.10	 	 	 	 	 	 	 	 	 	 	 	 	 	 	 	 	 	 	1581476980	7.13	13.20
12/02/2020 03:09:41	120220	12022020	030941	189.62	13.556073	-56.954678	189.84	-0.720	-1.740	3.750	189.42	-3.10	4.10	 	 	 	 	 	 	 	 	 	 	 	 	 	 	 	 	 	 	1581476981	7.25	13.43
12/02/2020 03:09:42	120220	12022020	030942	188.49	13.556037	-56.954698	188.73	-0.930	-1.730	5.390	188.30	-3.10	5.80	 	 	 	 	 	 	 	 	 	 	 	 	 	 	 	 	 	 	1581476982	8.34	15.45
12/02/2020 03:09:43	120220	12022020	030943	187.71	13.556002	-56.954715	188.05	-0.980	-0.760	5.960	187.64	-2.20	6.40	 	 	 	 	 	 	 	 	 	 	 	 	 	 	 	 	 	 	1581476983	9.05	16.76
12/02/2020 03:09:44	120220	12022020	030944	187.63	13.555970	-56.954727	188.03	-1.100	0.800	5.490	187.69	-0.60	6.00	 	 	 	 	 	 	 	 	 	 	 	 	 	 	 	 	 	 	1581476984	8.32	15.41
12/02/2020 03:09:45	120220	12022020	030945	188.06	13.555937	-56.954733	188.47	-1.170	1.910	4.300	188.19	0.50	4.90	 	 	 	 	 	 	 	 	 	 	 	 	 	 	 	 	 	 	1581476985	7.27	13.46
12/02/2020 03:09:46	120220	12022020	030946	188.80	13.555902	-56.954737	189.21	-0.900	2.070	2.700	188.98	0.70	3.30	 	 	 	 	 	 	 	 	 	 	 	 	 	 	 	 	 	 	1581476986	7.11	13.17
12/02/2020 03:09:47	120220	12022020	030947	189.71	13.555865	-56.954738	190.10	-0.150	1.450	0.890	189.89	0.10	1.50	 	 	 	 	 	 	 	 	 	 	 	 	 	 	 	 	 	 	1581476987	7.63	14.13
12/02/2020 03:09:48	120220	12022020	030948	190.47	13.555827	-56.954738	190.78	0.880	0.410	-0.590	190.58	-0.90	-0.00	 	 	 	 	 	 	 	 	 	 	 	 	 	 	 	 	 	 	1581476988	8.05	14.91
12/02/2020 03:09:49	120220	12022020	030949	190.81	13.555790	-56.954738	191.04	1.650	-0.570	-1.240	190.82	-1.90	-0.70	 	 	 	 	 	 	 	 	 	 	 	 	 	 	 	 	 	 	1581476989	8.21	15.20
12/02/2020 03:09:50	120220	12022020	030950	190.76	13.555755	-56.954740	190.94	1.680	-1.200	-1.050	190.71	-2.50	-0.60	 	 	 	 	 	 	 	 	 	 	 	 	 	 	 	 	 	 	1581476990	7.94	14.70
12/02/2020 03:09:51	120220	12022020	030951	190.36	13.555723	-56.954748	190.51	1.050	-1.600	0.010	190.23	-2.90	0.40	 	 	 	 	 	 	 	 	 	 	 	 	 	 	 	 	 	 	1581476991	7.37	13.65
12/02/2020 03:09:52	120220	12022020	030952	189.56	13.555690	-56.954763	189.68	0.240	-1.930	1.810	189.36	-3.20	2.20	 	 	 	 	 	 	 	 	 	 	 	 	 	 	 	 	 	 	1581476992	7.16	13.26
12/02/2020 03:09:53	120220	12022020	030953	188.66	13.555657	-56.954783	188.89	-0.350	-1.820	3.440	188.53	-3.20	3.80	 	 	 	 	 	 	 	 	 	 	 	 	 	 	 	 	 	 	1581476993	7.77	14.39
12/02/2020 03:09:54	120220	12022020	030954	188.25	13.555625	-56.954800	188.60	-0.760	-0.810	4.220	188.26	-2.20	4.70	 	 	 	 	 	 	 	 	 	 	 	 	 	 	 	 	 	 	1581476994	8.24	15.26
12/02/2020 03:09:55	120220	12022020	030955	188.52	13.555597	-56.954813	188.91	-1.060	0.560	4.090	188.61	-0.90	4.60	 	 	 	 	 	 	 	 	 	 	 	 	 	 	 	 	 	 	1581476995	7.62	14.11
12/02/2020 03:09:56	120220	12022020	030956	189.03	13.555565	-56.954823	189.39	-1.080	1.220	3.340	189.12	-0.10	3.90	 	 	 	 	 	 	 	 	 	 	 	 	 	 	 	 	 	 	1581476996	6.92	12.82
12/02/2020 03:09:57	120220	12022020	030957	189.33	13.555527	-56.954830	189.63	-0.560	0.800	2.240	189.37	-0.50	2.80	 	 	 	 	 	 	 	 	 	 	 	 	 	 	 	 	 	 	1581476997	7.13	13.20
12/02/2020 03:09:58	120220	12022020	030958	189.52	13.555487	-56.954832	189.80	0.150	0.000	1.150	189.55	-1.30	1.70	 	 	 	 	 	 	 	 	 	 	 	 	 	 	 	 	 	 	1581476998	8.10	15.00
12/02/2020 03:09:59	120220	12022020	030959	189.68	13.555450	-56.954835	189.94	0.550	-0.440	0.490	189.69	-1.80	1.00	 	 	 	 	 	 	 	 	 	 	 	 	 	 	 	 	 	 	1581476999	8.62	15.96
12/02/2020 03:10:00	120220	12022020	031000	189.64	13.555415	-56.954838	189.86	0.560	-0.460	0.400	189.61	-1.80	0.90	 	 	 	 	 	 	 	 	 	 	 	 	 	 	 	 	 	 	1581477000	8.13	15.06
12/02/2020 03:10:01	120220	12022020	031001	189.45	13.555382	-56.954847	189.68	0.370	-0.230	0.740	189.42	-1.60	1.20	1017.00	26.00	26.10	20.70	20.80	-1.0	72.0	72.0	390.0	25.7	258.00	10.50	68.00	12.00	16	9186.0	27.2	27.2	1581477001	7.52	13.93
12/02/2020 03:10:02	120220	12022020	031002	189.38	13.555350	-56.954855	189.65	0.180	0.060	1.190	189.39	-1.30	1.70	 	 	 	 	 	 	 	 	 	 	 	 	 	 	 	 	 	 	1581477002	7.23	13.39
12/02/2020 03:10:03	120220	12022020	031003	189.49	13.555318	-56.954865	189.79	0.090	0.180	1.440	189.53	-1.20	1.90	 	 	 	 	 	 	 	 	 	 	 	 	 	 	 	 	 	 	1581477003	7.13	13.20
12/02/2020 03:10:04	120220	12022020	031004	189.71	13.555285	-56.954873	190.01	0.110	-0.090	1.430	189.71	-1.40	1.90	 	 	 	 	 	 	 	 	 	 	 	 	 	 	 	 	 	 	1581477004	7.15	13.24
12/02/2020 03:10:05	120220	12022020	031005	189.80	13.555248	-56.954882	190.05	0.170	-0.690	1.410	189.77	-2.00	1.90	 	 	 	 	 	 	 	 	 	 	 	 	 	 	 	 	 	 	1581477005	7.45	13.80
12/02/2020 03:10:06	120220	12022020	031006	189.57	13.555212	-56.954890	189.78	0.200	-1.260	1.720	189.49	-2.60	2.20	 	 	 	 	 	 	 	 	 	 	 	 	 	 	 	 	 	 	1581477006	7.85	14.54
12/02/2020 03:10:07	120220	12022020	031007	189.10	13.555177	-56.954900	189.30	0.100	-1.330	2.270	189.00	-2.70	2.70	 	 	 	 	 	 	 	 	 	 	 	 	 	 	 	 	 	 	1581477007	8.12	15.04
12/02/2020 03:10:08	120220	12022020	031008	188.63	13.555143	-56.954912	188.85	-0.180	-0.730	2.800	188.55	-2.10	3.20	 	 	 	 	 	 	 	 	 	 	 	 	 	 	 	 	 	 	1581477008	8.00	14.82
12/02/2020 03:10:09	120220	12022020	031009	188.41	13.555112	-56.954923	188.68	-0.520	0.270	2.910	188.42	-1.10	3.40	 	 	 	 	 	 	 	 	 	 	 	 	 	 	 	 	 	 	1581477009	7.58	14.04
12/02/2020 03:10:10	120220	12022020	031010	188.60	13.555080	-56.954933	188.91	-0.710	1.090	2.480	188.67	-0.30	3.00	 	 	 	 	 	 	 	 	 	 	 	 	 	 	 	 	 	 	1581477010	7.15	13.24
12/02/2020 03:10:11	120220	12022020	031011	188.92	13.555047	-56.954940	189.18	-0.490	1.090	1.760	188.96	-0.20	2.30	 	 	 	 	 	 	 	 	 	 	 	 	 	 	 	 	 	 	1581477011	6.95	12.87
12/02/2020 03:10:12	120220	12022020	031012	189.06	13.555008	-56.954945	189.29	0.150	0.360	1.060	189.08	-0.90	1.60	 	 	 	 	 	 	 	 	 	 	 	 	 	 	 	 	 	 	1581477012	7.44	13.78
12/02/2020 03:10:13	120220	12022020	031013	189.19	13.554972	-56.954948	189.44	0.810	-0.340	0.520	189.23	-1.70	1.00	 	 	 	 	 	 	 	 	 	 	 	 	 	 	 	 	 	 	1581477013	8.14	15.08
12/02/2020 03:10:14	120220	12022020	031014	189.42	13.554935	-56.954950	189.65	1.100	-0.690	0.260	189.45	-2.00	0.80	 	 	 	 	 	 	 	 	 	 	 	 	 	 	 	 	 	 	1581477014	8.15	15.09
12/02/2020 03:10:15	120220	12022020	031015	189.44	13.554902	-56.954957	189.66	0.930	-0.950	0.690	189.42	-2.30	1.10	 	 	 	 	 	 	 	 	 	 	 	 	 	 	 	 	 	 	1581477015	7.66	14.19
12/02/2020 03:10:16	120220	12022020	031016	189.36	13.554867	-56.954965	189.62	0.350	-1.090	1.550	189.36	-2.40	2.00	 	 	 	 	 	 	 	 	 	 	 	 	 	 	 	 	 	 	1581477016	7.47	13.83
12/02/2020 03:10:17	120220	12022020	031017	189.34	13.554835	-56.954980	189.60	-0.410	-0.930	2.510	189.32	-2.30	2.90	 	 	 	 	 	 	 	 	 	 	 	 	 	 	 	 	 	 	1581477017	7.59	14.06
12/02/2020 03:10:18	120220	12022020	031018	189.11	13.554803	-56.954997	189.35	-0.900	-0.680	3.410	189.03	-2.00	3.80	 	 	 	 	 	 	 	 	 	 	 	 	 	 	 	 	 	 	1581477018	7.60	14.08
12/02/2020 03:10:19	120220	12022020	031019	188.62	13.554768	-56.955012	188.85	-0.840	-0.470	3.980	188.53	-1.80	4.40	 	 	 	 	 	 	 	 	 	 	 	 	 	 	 	 	 	 	1581477019	7.77	14.39
12/02/2020 03:10:20	120220	12022020	031020	188.25	13.554733	-56.955022	188.51	-0.470	-0.110	3.850	188.22	-1.50	4.40	 	 	 	 	 	 	 	 	 	 	 	 	 	 	 	 	 	 	1581477020	8.03	14.87
12/02/2020 03:10:21	120220	12022020	031021	188.22	13.554698	-56.955028	188.50	-0.090	0.290	3.100	188.26	-1.10	3.60	 	 	 	 	 	 	 	 	 	 	 	 	 	 	 	 	 	 	1581477021	7.86	14.56
12/02/2020 03:10:22	120220	12022020	031022	188.43	13.554663	-56.955032	188.72	0.190	0.490	2.160	188.49	-0.90	2.70	 	 	 	 	 	 	 	 	 	 	 	 	 	 	 	 	 	 	1581477022	7.63	14.13
12/02/2020 03:10:23	120220	12022020	031023	188.78	13.554627	-56.955033	189.07	0.420	0.490	1.330	188.88	-0.90	1.90	 	 	 	 	 	 	 	 	 	 	 	 	 	 	 	 	 	 	1581477023	7.71	14.28
12/02/2020 03:10:24	120220	12022020	031024	189.32	13.554592	-56.955037	189.65	0.530	0.400	0.740	189.45	-0.90	1.30	 	 	 	 	 	 	 	 	 	 	 	 	 	 	 	 	 	 	1581477024	7.79	14.43
12/02/2020 03:10:25	120220	12022020	031025	189.93	13.554557	-56.955042	190.24	0.450	0.120	0.540	190.03	-1.20	1.00	 	 	 	 	 	 	 	 	 	 	 	 	 	 	 	 	 	 	1581477025	7.61	14.09
12/02/2020 03:10:26	120220	12022020	031026	190.26	13.554523	-56.955050	190.52	0.190	-0.340	0.790	190.27	-1.70	1.30	 	 	 	 	 	 	 	 	 	 	 	 	 	 	 	 	 	 	1581477026	7.41	13.72
12/02/2020 03:10:27	120220	12022020	031027	190.11	13.554490	-56.955062	190.31	-0.190	-0.910	1.520	190.02	-2.20	2.00	 	 	 	 	 	 	 	 	 	 	 	 	 	 	 	 	 	 	1581477027	7.45	13.80
12/02/2020 03:10:28	120220	12022020	031028	189.58	13.554455	-56.955077	189.75	-0.450	-1.410	2.490	189.45	-2.70	2.90	 	 	 	 	 	 	 	 	 	 	 	 	 	 	 	 	 	 	1581477028	7.67	14.20
12/02/2020 03:10:29	120220	12022020	031029	188.93	13.554422	-56.955093	189.12	-0.380	-1.500	3.210	188.80	-2.90	3.70	 	 	 	 	 	 	 	 	 	 	 	 	 	 	 	 	 	 	1581477029	8.06	14.93
12/02/2020 03:10:30	120220	12022020	031030	188.37	13.554387	-56.955105	188.62	-0.010	-1.040	3.350	188.30	-2.40	3.80	 	 	 	 	 	 	 	 	 	 	 	 	 	 	 	 	 	 	1581477030	8.11	15.02
12/02/2020 03:10:31	120220	12022020	031031	188.24	13.554353	-56.955112	188.57	0.380	-0.110	2.720	188.28	-1.50	3.30	 	 	 	 	 	 	 	 	 	 	 	 	 	 	 	 	 	 	1581477031	7.77	14.39
12/02/2020 03:10:32	120220	12022020	031032	188.72	13.554322	-56.955112	189.10	0.490	0.890	1.500	188.87	-0.50	2.10	 	 	 	 	 	 	 	 	 	 	 	 	 	 	 	 	 	 	1581477032	7.26	13.45
12/02/2020 03:10:33	120220	12022020	031033	189.50	13.554287	-56.955112	189.83	0.280	1.180	0.540	189.63	-0.20	1.10	 	 	 	 	 	 	 	 	 	 	 	 	 	 	 	 	 	 	1581477033	7.00	12.96
12/02/2020 03:10:34	120220	12022020	031034	189.91	13.554250	-56.955115	190.14	-0.030	0.260	0.470	189.92	-1.00	0.90	 	 	 	 	 	 	 	 	 	 	 	 	 	 	 	 	 	 	1581477034	7.28	13.48
12/02/2020 03:10:35	120220	12022020	031035	189.75	13.554210	-56.955127	189.94	-0.270	-1.130	1.270	189.66	-2.40	1.70	 	 	 	 	 	 	 	 	 	 	 	 	 	 	 	 	 	 	1581477035	8.20	15.19
12/02/2020 03:10:36	120220	12022020	031036	189.20	13.554173	-56.955143	189.34	-0.460	-1.670	2.470	189.05	-3.00	2.90	 	 	 	 	 	 	 	 	 	 	 	 	 	 	 	 	 	 	1581477036	8.96	16.59
12/02/2020 03:10:37	120220	12022020	031037	188.50	13.554142	-56.955162	188.69	-0.610	-0.950	3.390	188.39	-2.40	3.80	 	 	 	 	 	 	 	 	 	 	 	 	 	 	 	 	 	 	1581477037	8.67	16.06
12/02/2020 03:10:38	120220	12022020	031038	188.25	13.554113	-56.955175	188.57	-0.720	0.470	3.320	188.30	-1.00	3.80	 	 	 	 	 	 	 	 	 	 	 	 	 	 	 	 	 	 	1581477038	7.64	14.15
12/02/2020 03:10:39	120220	12022020	031039	188.74	13.554085	-56.955182	189.11	-0.590	1.480	2.210	188.90	0.10	2.80	 	 	 	 	 	 	 	 	 	 	 	 	 	 	 	 	 	 	1581477039	6.59	12.20
12/02/2020 03:10:40	120220	12022020	031040	189.50	13.554052	-56.955183	189.81	0.050	1.110	0.710	189.50	-0.20	1.30	 	 	 	 	 	 	 	 	 	 	 	 	 	 	 	 	 	 	1581477040	6.23	11.54
12/02/2020 03:10:41	120220	12022020	031041	189.86	13.554010	-56.955182	190.07	1.040	-0.570	-0.210	189.86	-1.80	0.30	 	 	 	 	 	 	 	 	 	 	 	 	 	 	 	 	 	 	1581477041	7.32	13.56
12/02/2020 03:10:42	120220	12022020	031042	189.63	13.553967	-56.955185	189.79	1.580	-2.230	0.190	189.52	-3.50	0.60	 	 	 	 	 	 	 	 	 	 	 	 	 	 	 	 	 	 	1581477042	8.87	16.43
12/02/2020 03:10:43	120220	12022020	031043	189.08	13.553930	-56.955197	189.28	1.080	-2.460	1.480	188.98	-3.80	1.90	 	 	 	 	 	 	 	 	 	 	 	 	 	 	 	 	 	 	1581477043	9.26	17.15
12/02/2020 03:10:44	120220	12022020	031044	188.71	13.553900	-56.955210	189.01	-0.160	-1.200	2.650	188.70	-2.60	3.10	 	 	 	 	 	 	 	 	 	 	 	 	 	 	 	 	 	 	1581477044	8.25	15.28
12/02/2020 03:10:45	120220	12022020	031045	188.87	13.553875	-56.955227	189.25	-1.340	0.530	3.380	188.95	-0.90	3.80	 	 	 	 	 	 	 	 	 	 	 	 	 	 	 	 	 	 	1581477045	7.10	13.15
12/02/2020 03:10:46	120220	12022020	031046	189.31	13.553845	-56.955243	189.66	-1.780	1.530	3.620	189.39	0.10	4.10	 	 	 	 	 	 	 	 	 	 	 	 	 	 	 	 	 	 	1581477046	6.67	12.35
12/02/2020 03:10:47	120220	12022020	031047	189.56	13.553810	-56.955257	189.85	-1.280	1.230	3.370	189.56	-0.10	3.90	 	 	 	 	 	 	 	 	 	 	 	 	 	 	 	 	 	 	1581477047	7.07	13.09
12/02/2020 03:10:48	120220	12022020	031048	189.48	13.553772	-56.955267	189.73	-0.280	0.240	2.910	189.44	-1.10	3.40	 	 	 	 	 	 	 	 	 	 	 	 	 	 	 	 	 	 	1581477048	8.05	14.91
12/02/2020 03:10:49	120220	12022020	031049	189.34	13.553732	-56.955273	189.60	0.560	-0.420	2.280	189.34	-1.80	2.80	 	 	 	 	 	 	 	 	 	 	 	 	 	 	 	 	 	 	1581477049	8.73	16.17
12/02/2020 03:10:50	120220	12022020	031050	189.48	13.553698	-56.955275	189.78	0.800	-0.290	1.400	189.54	-1.70	1.90	 	 	 	 	 	 	 	 	 	 	 	 	 	 	 	 	 	 	1581477050	8.42	15.59
12/02/2020 03:10:51	120220	12022020	031051	189.87	13.553668	-56.955278	190.18	0.650	0.150	0.640	189.95	-1.20	1.20	 	 	 	 	 	 	 	 	 	 	 	 	 	 	 	 	 	 	1581477051	7.37	13.65
12/02/2020 03:10:52	120220	12022020	031052	190.21	13.553637	-56.955282	190.50	0.590	0.140	0.220	190.25	-1.20	0.70	 	 	 	 	 	 	 	 	 	 	 	 	 	 	 	 	 	 	1581477052	6.63	12.28
12/02/2020 03:10:53	120220	12022020	031053	190.22	13.553602	-56.955288	190.44	0.810	-0.600	0.350	190.17	-1.90	0.80	 	 	 	 	 	 	 	 	 	 	 	 	 	 	 	 	 	 	1581477053	6.82	12.63
12/02/2020 03:10:54	120220	12022020	031054	189.91	13.553563	-56.955295	190.11	0.950	-1.570	0.910	189.83	-2.90	1.40	 	 	 	 	 	 	 	 	 	 	 	 	 	 	 	 	 	 	1581477054	7.65	14.17
12/02/2020 03:10:55	120220	12022020	031055	189.49	13.553527	-56.955305	189.71	0.450	-1.900	1.860	189.39	-3.30	2.30	 	 	 	 	 	 	 	 	 	 	 	 	 	 	 	 	 	 	1581477055	8.31	15.39
12/02/2020 03:10:56	120220	12022020	031056	189.02	13.553495	-56.955322	189.27	-0.710	-1.310	2.990	188.94	-2.70	3.40	 	 	 	 	 	 	 	 	 	 	 	 	 	 	 	 	 	 	1581477056	8.15	15.09
12/02/2020 03:10:57	120220	12022020	031057	188.66	13.553465	-56.955342	188.96	-1.810	-0.270	3.790	188.63	-1.70	4.20	 	 	 	 	 	 	 	 	 	 	 	 	 	 	 	 	 	 	1581477057	7.71	14.28
12/02/2020 03:10:58	120220	12022020	031058	188.53	13.553433	-56.955362	188.84	-2.040	0.570	3.880	188.54	-0.80	4.40	 	 	 	 	 	 	 	 	 	 	 	 	 	 	 	 	 	 	1581477058	7.69	14.24
12/02/2020 03:10:59	120220	12022020	031059	188.68	13.553398	-56.955375	189.02	-1.190	0.860	3.100	188.74	-0.50	3.60	 	 	 	 	 	 	 	 	 	 	 	 	 	 	 	 	 	 	1581477059	7.81	14.46
12/02/2020 03:11:00	120220	12022020	031100	189.04	13.553362	-56.955380	189.36	0.160	0.670	1.820	189.12	-0.70	2.40	 	 	 	 	 	 	 	 	 	 	 	 	 	 	 	 	 	 	1581477060	7.95	14.72
12/02/2020 03:11:01	120220	12022020	031101	189.45	13.553323	-56.955380	189.74	1.050	0.460	0.780	189.54	-0.90	1.30	1017.20	26.10	26.10	20.70	20.80	-1.0	72.0	72.0	390.0	25.7	258.00	10.90	69.00	12.30	16	9031.0	27.2	27.2	1581477061	8.17	15.13
12/02/2020 03:11:02	120220	12022020	031102	189.87	13.553290	-56.955382	190.15	1.110	0.430	0.270	189.95	-0.90	0.80	 	 	 	 	 	 	 	 	 	 	 	 	 	 	 	 	 	 	1581477062	8.05	14.91
12/02/2020 03:11:03	120220	12022020	031103	190.21	13.553257	-56.955387	190.47	0.690	0.330	0.320	190.26	-1.00	0.80	 	 	 	 	 	 	 	 	 	 	 	 	 	 	 	 	 	 	1581477063	7.40	13.70
12/02/2020 03:11:04	120220	12022020	031104	190.33	13.553225	-56.955395	190.58	0.460	-0.120	0.730	190.32	-1.40	1.20	 	 	 	 	 	 	 	 	 	 	 	 	 	 	 	 	 	 	1581477064	6.96	12.89
12/02/2020 03:11:05	120220	12022020	031105	190.14	13.553190	-56.955405	190.35	0.520	-0.990	1.560	190.05	-2.30	2.00	 	 	 	 	 	 	 	 	 	 	 	 	 	 	 	 	 	 	1581477065	7.13	13.20
12/02/2020 03:11:06	120220	12022020	031106	189.48	13.553155	-56.955420	189.64	0.460	-1.740	2.840	189.29	-3.10	3.20	 	 	 	 	 	 	 	 	 	 	 	 	 	 	 	 	 	 	1581477066	7.71	14.28
12/02/2020 03:11:07	120220	12022020	031107	188.48	13.553122	-56.955437	188.66	0.070	-1.810	4.170	188.28	-3.20	4.60	 	 	 	 	 	 	 	 	 	 	 	 	 	 	 	 	 	 	1581477067	8.14	15.08
12/02/2020 03:11:08	120220	12022020	031108	187.66	13.553090	-56.955453	187.93	-0.470	-1.030	4.880	187.66	-2.40	5.30	 	 	 	 	 	 	 	 	 	 	 	 	 	 	 	 	 	 	1581477068	8.13	15.06
12/02/2020 03:11:09	120220	12022020	031109	187.46	13.553060	-56.955465	187.80	-0.780	0.150	4.580	187.49	-1.30	5.10	 	 	 	 	 	 	 	 	 	 	 	 	 	 	 	 	 	 	1581477069	7.60	14.08
12/02/2020 03:11:10	120220	12022020	031110	187.81	13.553028	-56.955472	188.18	-0.690	0.800	3.460	187.91	-0.60	4.00	 	 	 	 	 	 	 	 	 	 	 	 	 	 	 	 	 	 	1581477070	6.93	12.83
12/02/2020 03:11:11	120220	12022020	031111	188.41	13.552992	-56.955475	188.77	-0.320	0.610	2.010	188.54	-0.70	2.60	 	 	 	 	 	 	 	 	 	 	 	 	 	 	 	 	 	 	1581477071	7.08	13.11
12/02/2020 03:11:12	120220	12022020	031112	189.08	13.552955	-56.955477	189.42	0.000	0.080	0.850	189.20	-1.30	1.40	 	 	 	 	 	 	 	 	 	 	 	 	 	 	 	 	 	 	1581477072	7.84	14.52
12/02/2020 03:11:13	120220	12022020	031113	189.55	13.552918	-56.955482	189.82	0.130	-0.290	0.410	189.59	-1.60	0.90	 	 	 	 	 	 	 	 	 	 	 	 	 	 	 	 	 	 	1581477073	8.09	14.98
12/02/2020 03:11:14	120220	12022020	031114	189.45	13.552885	-56.955490	189.63	0.270	-0.620	0.680	189.35	-2.00	1.10	 	 	 	 	 	 	 	 	 	 	 	 	 	 	 	 	 	 	1581477074	7.70	14.26
12/02/2020 03:11:15	120220	12022020	031115	188.84	13.552850	-56.955498	189.01	0.500	-0.790	1.330	188.70	-2.10	1.80	 	 	 	 	 	 	 	 	 	 	 	 	 	 	 	 	 	 	1581477075	7.58	14.04
12/02/2020 03:11:16	120220	12022020	031116	188.30	13.552817	-56.955508	188.52	0.520	-0.470	1.940	188.24	-1.80	2.40	 	 	 	 	 	 	 	 	 	 	 	 	 	 	 	 	 	 	1581477076	7.72	14.30
12/02/2020 03:11:17	120220	12022020	031117	188.18	13.552785	-56.955517	188.46	0.170	0.170	2.200	188.20	-1.20	2.70	 	 	 	 	 	 	 	 	 	 	 	 	 	 	 	 	 	 	1581477077	7.44	13.78
12/02/2020 03:11:18	120220	12022020	031118	188.37	13.552753	-56.955527	188.67	-0.350	0.630	2.230	188.42	-0.70	2.70	 	 	 	 	 	 	 	 	 	 	 	 	 	 	 	 	 	 	1581477078	7.02	13.00
12/02/2020 03:11:19	120220	12022020	031119	188.67	13.552722	-56.955537	188.96	-0.590	0.560	2.180	188.73	-0.80	2.60	 	 	 	 	 	 	 	 	 	 	 	 	 	 	 	 	 	 	1581477079	6.98	12.93
12/02/2020 03:11:20	120220	12022020	031120	188.91	13.552687	-56.955547	189.18	-0.380	-0.020	2.140	188.93	-1.30	2.60	 	 	 	 	 	 	 	 	 	 	 	 	 	 	 	 	 	 	1581477080	7.32	13.56
12/02/2020 03:11:21	120220	12022020	031121	188.89	13.552650	-56.955557	189.13	0.070	-0.780	2.240	188.86	-2.10	2.70	 	 	 	 	 	 	 	 	 	 	 	 	 	 	 	 	 	 	1581477081	7.75	14.35
12/02/2020 03:11:22	120220	12022020	031122	188.64	13.552615	-56.955567	188.87	0.410	-1.120	2.360	188.58	-2.50	2.80	 	 	 	 	 	 	 	 	 	 	 	 	 	 	 	 	 	 	1581477082	8.02	14.85
12/02/2020 03:11:23	120220	12022020	031123	188.36	13.552583	-56.955573	188.61	0.480	-0.790	2.360	188.32	-2.20	2.90	 	 	 	 	 	 	 	 	 	 	 	 	 	 	 	 	 	 	1581477083	7.76	14.37
12/02/2020 03:11:24	120220	12022020	031124	188.22	13.552553	-56.955580	188.48	0.350	-0.210	2.080	188.21	-1.60	2.60	 	 	 	 	 	 	 	 	 	 	 	 	 	 	 	 	 	 	1581477084	7.12	13.19
12/02/2020 03:11:25	120220	12022020	031125	188.17	13.552520	-56.955585	188.42	0.190	0.030	1.590	188.16	-1.30	2.10	 	 	 	 	 	 	 	 	 	 	 	 	 	 	 	 	 	 	1581477085	6.76	12.52
12/02/2020 03:11:26	120220	12022020	031126	188.07	13.552485	-56.955590	188.29	0.060	-0.180	1.350	188.04	-1.50	1.90	 	 	 	 	 	 	 	 	 	 	 	 	 	 	 	 	 	 	1581477086	7.08	13.11
12/02/2020 03:11:27	120220	12022020	031127	187.98	13.552448	-56.955597	188.21	-0.120	-0.500	1.390	187.98	-1.80	1.90	 	 	 	 	 	 	 	 	 	 	 	 	 	 	 	 	 	 	1581477087	7.67	14.20
12/02/2020 03:11:28	120220	12022020	031128	188.04	13.552413	-56.955607	188.30	-0.400	-0.510	1.630	188.07	-1.90	2.10	 	 	 	 	 	 	 	 	 	 	 	 	 	 	 	 	 	 	1581477088	7.98	14.78
12/02/2020 03:11:29	120220	12022020	031129	188.20	13.552380	-56.955620	188.46	-0.590	-0.240	2.080	188.23	-1.60	2.50	 	 	 	 	 	 	 	 	 	 	 	 	 	 	 	 	 	 	1581477089	7.79	14.43
12/02/2020 03:11:30	120220	12022020	031130	188.28	13.552348	-56.955632	188.52	-0.390	-0.010	2.430	188.26	-1.40	2.90	 	 	 	 	 	 	 	 	 	 	 	 	 	 	 	 	 	 	1581477090	7.53	13.95
12/02/2020 03:11:31	120220	12022020	031131	188.09	13.552313	-56.955640	188.30	0.270	-0.040	2.410	188.03	-1.40	2.90	 	 	 	 	 	 	 	 	 	 	 	 	 	 	 	 	 	 	1581477091	7.48	13.85
12/02/2020 03:11:32	120220	12022020	031132	187.87	13.552277	-56.955642	188.10	0.780	-0.040	2.090	187.86	-1.40	2.60	 	 	 	 	 	 	 	 	 	 	 	 	 	 	 	 	 	 	1581477092	7.69	14.24
12/02/2020 03:11:33	120220	12022020	031133	187.93	13.552243	-56.955645	188.20	0.510	0.230	1.740	187.97	-1.10	2.30	 	 	 	 	 	 	 	 	 	 	 	 	 	 	 	 	 	 	1581477093	7.79	14.43
12/02/2020 03:11:34	120220	12022020	031134	188.26	13.552212	-56.955652	188.56	-0.340	0.540	1.470	188.33	-0.80	2.00	 	 	 	 	 	 	 	 	 	 	 	 	 	 	 	 	 	 	1581477094	7.29	13.50
12/02/2020 03:11:35	120220	12022020	031135	188.60	13.552180	-56.955662	188.85	-1.010	0.380	1.500	188.63	-0.90	2.00	 	 	 	 	 	 	 	 	 	 	 	 	 	 	 	 	 	 	1581477095	6.82	12.63
12/02/2020 03:11:36	120220	12022020	031136	188.55	13.552147	-56.955677	188.75	-0.830	-0.510	1.930	188.50	-1.80	2.40	 	 	 	 	 	 	 	 	 	 	 	 	 	 	 	 	 	 	1581477096	7.07	13.09
12/02/2020 03:11:37	120220	12022020	031137	188.27	13.552108	-56.955690	188.48	0.130	-1.530	2.140	188.21	-2.80	2.60	 	 	 	 	 	 	 	 	 	 	 	 	 	 	 	 	 	 	1581477097	8.03	14.87
12/02/2020 03:11:38	120220	12022020	031138	188.04	13.552072	-56.955697	188.27	1.130	-1.870	1.950	188.02	-3.20	2.50	 	 	 	 	 	 	 	 	 	 	 	 	 	 	 	 	 	 	1581477098	8.48	15.70
12/02/2020 03:11:39	120220	12022020	031139	188.04	13.552038	-56.955698	188.30	1.420	-1.290	1.480	188.07	-2.70	2.00	 	 	 	 	 	 	 	 	 	 	 	 	 	 	 	 	 	 	1581477099	8.10	15.00
12/02/2020 03:11:40	120220	12022020	031140	188.22	13.552007	-56.955700	188.48	0.670	-0.160	1.340	188.26	-1.60	1.80	 	 	 	 	 	 	 	 	 	 	 	 	 	 	 	 	 	 	1581477100	7.39	13.69
12/02/2020 03:11:41	120220	12022020	031141	188.43	13.551977	-56.955708	188.67	-0.660	0.900	1.690	188.46	-0.50	2.20	 	 	 	 	 	 	 	 	 	 	 	 	 	 	 	 	 	 	1581477101	6.77	12.54
12/02/2020 03:11:42	120220	12022020	031142	188.50	13.551945	-56.955723	188.74	-1.560	1.270	2.280	188.50	-0.10	2.70	 	 	 	 	 	 	 	 	 	 	 	 	 	 	 	 	 	 	1581477102	6.63	12.28
12/02/2020 03:11:43	120220	12022020	031143	188.46	13.551910	-56.955740	188.71	-1.400	0.820	2.730	188.44	-0.50	3.20	 	 	 	 	 	 	 	 	 	 	 	 	 	 	 	 	 	 	1581477103	7.37	13.65
12/02/2020 03:11:44	120220	12022020	031144	188.42	13.551875	-56.955755	188.71	-0.480	0.090	2.830	188.44	-1.20	3.30	 	 	 	 	 	 	 	 	 	 	 	 	 	 	 	 	 	 	1581477104	8.23	15.24
12/02/2020 03:11:45	120220	12022020	031145	188.64	13.551838	-56.955763	188.98	0.440	-0.310	2.460	188.72	-1.70	3.00	 	 	 	 	 	 	 	 	 	 	 	 	 	 	 	 	 	 	1581477105	8.39	15.54
12/02/2020 03:11:46	120220	12022020	031146	189.10	13.551807	-56.955768	189.44	0.790	-0.290	1.760	189.18	-1.70	2.30	 	 	 	 	 	 	 	 	 	 	 	 	 	 	 	 	 	 	1581477106	7.81	14.46
12/02/2020 03:11:47	120220	12022020	031147	189.39	13.551775	-56.955772	189.65	0.750	-0.400	1.050	189.39	-1.70	1.60	 	 	 	 	 	 	 	 	 	 	 	 	 	 	 	 	 	 	1581477107	6.97	12.91
12/02/2020 03:11:48	120220	12022020	031148	189.21	13.551740	-56.955775	189.42	0.740	-1.010	0.780	189.13	-2.30	1.30	 	 	 	 	 	 	 	 	 	 	 	 	 	 	 	 	 	 	1581477108	6.81	12.61
12/02/2020 03:11:49	120220	12022020	031149	188.84	13.551705	-56.955782	189.09	0.730	-1.390	0.930	188.79	-2.70	1.40	 	 	 	 	 	 	 	 	 	 	 	 	 	 	 	 	 	 	1581477109	7.52	13.93
12/02/2020 03:11:50	120220	12022020	031150	188.67	13.551673	-56.955788	188.96	0.380	-0.930	1.250	188.66	-2.30	1.70	 	 	 	 	 	 	 	 	 	 	 	 	 	 	 	 	 	 	1581477110	7.76	14.37
12/02/2020 03:11:51	120220	12022020	031151	188.59	13.551642	-56.955797	188.86	-0.280	-0.220	1.700	188.57	-1.60	2.20	 	 	 	 	 	 	 	 	 	 	 	 	 	 	 	 	 	 	1581477111	7.09	13.13
12/02/2020 03:11:52	120220	12022020	031152	188.43	13.551610	-56.955812	188.67	-0.870	0.020	2.330	188.37	-1.30	2.80	 	 	 	 	 	 	 	 	 	 	 	 	 	 	 	 	 	 	1581477112	6.86	12.70
12/02/2020 03:11:53	120220	12022020	031153	188.13	13.551575	-56.955827	188.39	-1.050	-0.060	3.060	188.07	-1.40	3.50	 	 	 	 	 	 	 	 	 	 	 	 	 	 	 	 	 	 	1581477113	7.59	14.06
12/02/2020 03:11:54	120220	12022020	031154	187.93	13.551540	-56.955842	188.23	-0.860	0.140	3.450	187.92	-1.20	3.90	 	 	 	 	 	 	 	 	 	 	 	 	 	 	 	 	 	 	1581477114	8.27	15.32
12/02/2020 03:11:55	120220	12022020	031155	187.98	13.551508	-56.955853	188.28	-0.540	0.530	3.210	188.00	-0.80	3.70	 	 	 	 	 	 	 	 	 	 	 	 	 	 	 	 	 	 	1581477115	7.98	14.78
12/02/2020 03:11:56	120220	12022020	031156	188.08	13.551475	-56.955860	188.35	-0.120	0.530	2.510	188.08	-0.80	3.00	 	 	 	 	 	 	 	 	 	 	 	 	 	 	 	 	 	 	1581477116	7.31	13.54
12/02/2020 03:11:57	120220	12022020	031157	188.10	13.551438	-56.955863	188.35	0.400	0.030	1.720	188.10	-1.30	2.30	 	 	 	 	 	 	 	 	 	 	 	 	 	 	 	 	 	 	1581477117	7.31	13.54
12/02/2020 03:11:58	120220	12022020	031158	188.15	13.551403	-56.955865	188.41	0.850	-0.360	0.920	188.15	-1.70	1.50	 	 	 	 	 	 	 	 	 	 	 	 	 	 	 	 	 	 	1581477118	7.77	14.39
12/02/2020 03:11:59	120220	12022020	031159	188.30	13.551370	-56.955867	188.55	0.940	-0.340	0.340	188.33	-1.70	0.90	 	 	 	 	 	 	 	 	 	 	 	 	 	 	 	 	 	 	1581477119	7.74	14.33
12/02/2020 03:12:00	120220	12022020	031200	188.39	13.551338	-56.955870	188.62	0.670	-0.280	0.470	188.38	-1.60	0.90	 	 	 	 	 	 	 	 	 	 	 	 	 	 	 	 	 	 	1581477120	7.17	13.28
12/02/2020 03:12:01	120220	12022020	031201	188.21	13.551305	-56.955880	188.40	0.300	-0.580	1.290	188.14	-1.90	1.70	1017.10	26.10	26.20	20.70	20.70	-1.0	71.0	72.0	390.0	25.7	261.00	10.30	70.00	11.50	16	8787.0	27.2	27.2	1581477121	6.88	12.74
12/02/2020 03:12:02	120220	12022020	031202	187.82	13.551270	-56.955893	188.03	0.020	-0.950	2.290	187.75	-2.30	2.70	 	 	 	 	 	 	 	 	 	 	 	 	 	 	 	 	 	 	1581477122	7.37	13.65
12/02/2020 03:12:03	120220	12022020	031203	187.52	13.551237	-56.955907	187.76	-0.220	-0.810	3.110	187.48	-2.20	3.50	 	 	 	 	 	 	 	 	 	 	 	 	 	 	 	 	 	 	1581477123	7.93	14.69
12/02/2020 03:12:04	120220	12022020	031204	187.44	13.551207	-56.955918	187.73	-0.460	-0.150	3.350	187.46	-1.50	3.80	 	 	 	 	 	 	 	 	 	 	 	 	 	 	 	 	 	 	1581477124	7.71	14.28
12/02/2020 03:12:05	120220	12022020	031205	187.61	13.551175	-56.955927	187.92	-0.620	0.390	3.090	187.65	-1.00	3.60	 	 	 	 	 	 	 	 	 	 	 	 	 	 	 	 	 	 	1581477125	7.08	13.11
12/02/2020 03:12:06	120220	12022020	031206	187.72	13.551142	-56.955935	187.97	-0.510	0.180	2.710	187.71	-1.10	3.20	 	 	 	 	 	 	 	 	 	 	 	 	 	 	 	 	 	 	1581477126	6.86	12.70
12/02/2020 03:12:07	120220	12022020	031207	187.46	13.551103	-56.955942	187.66	-0.050	-0.710	2.450	187.37	-2.00	3.00	 	 	 	 	 	 	 	 	 	 	 	 	 	 	 	 	 	 	1581477127	7.48	13.85
12/02/2020 03:12:08	120220	12022020	031208	186.99	13.551063	-56.955947	187.20	0.430	-1.300	2.260	186.92	-2.60	2.80	 	 	 	 	 	 	 	 	 	 	 	 	 	 	 	 	 	 	1581477128	8.41	15.58
12/02/2020 03:12:09	120220	12022020	031209	186.88	13.551030	-56.955952	187.18	0.470	-0.660	1.850	186.94	-2.10	2.40	 	 	 	 	 	 	 	 	 	 	 	 	 	 	 	 	 	 	1581477129	8.56	15.85
12/02/2020 03:12:10	120220	12022020	031210	187.37	13.551002	-56.955955	187.69	-0.040	0.680	1.320	187.49	-0.70	1.90	 	 	 	 	 	 	 	 	 	 	 	 	 	 	 	 	 	 	1581477130	7.39	13.69
12/02/2020 03:12:11	120220	12022020	031211	187.88	13.550972	-56.955960	188.13	-0.540	1.250	1.140	187.93	-0.10	1.70	 	 	 	 	 	 	 	 	 	 	 	 	 	 	 	 	 	 	1581477131	6.14	11.37
12/02/2020 03:12:12	120220	12022020	031212	187.97	13.550937	-56.955970	188.19	-0.480	0.470	1.450	187.96	-0.80	1.90	 	 	 	 	 	 	 	 	 	 	 	 	 	 	 	 	 	 	1581477132	6.45	11.95
12/02/2020 03:12:13	120220	12022020	031213	187.84	13.550897	-56.955982	188.06	0.050	-0.710	1.890	187.80	-2.00	2.40	 	 	 	 	 	 	 	 	 	 	 	 	 	 	 	 	 	 	1581477133	7.90	14.63
12/02/2020 03:12:14	120220	12022020	031214	187.58	13.550862	-56.955992	187.78	0.540	-1.170	2.360	187.52	-2.50	2.80	 	 	 	 	 	 	 	 	 	 	 	 	 	 	 	 	 	 	1581477134	8.63	15.98
12/02/2020 03:12:15	120220	12022020	031215	187.38	13.550828	-56.955998	187.67	0.550	-0.590	2.500	187.40	-2.00	3.00	 	 	 	 	 	 	 	 	 	 	 	 	 	 	 	 	 	 	1581477135	8.12	15.04
12/02/2020 03:12:16	120220	12022020	031216	187.59	13.550802	-56.956003	187.90	0.170	0.440	2.190	187.66	-1.00	2.70	 	 	 	 	 	 	 	 	 	 	 	 	 	 	 	 	 	 	1581477136	7.01	12.98
12/02/2020 03:12:17	120220	12022020	031217	187.95	13.550772	-56.956007	188.23	-0.110	0.810	1.740	187.99	-0.50	2.30	 	 	 	 	 	 	 	 	 	 	 	 	 	 	 	 	 	 	1581477137	6.17	11.43
12/02/2020 03:12:18	120220	12022020	031218	188.04	13.550735	-56.956012	188.27	-0.030	-0.020	1.640	188.03	-1.30	2.20	 	 	 	 	 	 	 	 	 	 	 	 	 	 	 	 	 	 	1581477138	6.49	12.02
12/02/2020 03:12:19	120220	12022020	031219	187.86	13.550697	-56.956020	188.06	0.110	-1.280	1.960	187.79	-2.60	2.40	 	 	 	 	 	 	 	 	 	 	 	 	 	 	 	 	 	 	1581477139	7.78	14.41
12/02/2020 03:12:20	120220	12022020	031220	187.49	13.550660	-56.956033	187.69	0.010	-1.840	2.500	187.49	-3.20	3.00	 	 	 	 	 	 	 	 	 	 	 	 	 	 	 	 	 	 	1581477140	8.30	15.37
12/02/2020 03:12:21	120220	12022020	031221	187.08	13.550627	-56.956045	187.30	-0.210	-1.340	2.810	187.00	-2.70	3.30	 	 	 	 	 	 	 	 	 	 	 	 	 	 	 	 	 	 	1581477141	8.30	15.37
12/02/2020 03:12:22	120220	12022020	031222	186.75	13.550597	-56.956053	187.00	-0.310	-0.410	2.680	186.71	-1.80	3.20	 	 	 	 	 	 	 	 	 	 	 	 	 	 	 	 	 	 	1581477142	7.38	13.67
12/02/2020 03:12:23	120220	12022020	031223	186.62	13.550563	-56.956058	186.89	-0.270	0.260	2.310	186.63	-1.10	2.80	 	 	 	 	 	 	 	 	 	 	 	 	 	 	 	 	 	 	1581477143	6.88	12.74
12/02/2020 03:12:24	120220	12022020	031224	186.77	13.550528	-56.956063	187.06	-0.160	0.540	1.770	186.83	-0.80	2.30	 	 	 	 	 	 	 	 	 	 	 	 	 	 	 	 	 	 	1581477144	7.18	13.30
12/02/2020 03:12:25	120220	12022020	031225	187.22	13.550493	-56.956067	187.53	-0.070	0.750	1.060	187.33	-0.60	1.60	 	 	 	 	 	 	 	 	 	 	 	 	 	 	 	 	 	 	1581477145	7.62	14.11
12/02/2020 03:12:26	120220	12022020	031226	187.78	13.550460	-56.956068	188.07	0.010	0.830	0.660	187.87	-0.50	1.20	 	 	 	 	 	 	 	 	 	 	 	 	 	 	 	 	 	 	1581477146	7.55	13.98
12/02/2020 03:12:27	120220	12022020	031227	188.12	13.550425	-56.956073	188.37	0.070	0.400	0.970	188.15	-0.90	1.50	 	 	 	 	 	 	 	 	 	 	 	 	 	 	 	 	 	 	1581477147	7.31	13.54
12/02/2020 03:12:28	120220	12022020	031228	188.08	13.550388	-56.956083	188.28	0.100	-0.450	1.760	188.02	-1.70	2.20	 	 	 	 	 	 	 	 	 	 	 	 	 	 	 	 	 	 	1581477148	7.53	13.95
12/02/2020 03:12:29	120220	12022020	031229	187.58	13.550353	-56.956095	187.75	0.100	-1.140	2.840	187.44	-2.40	3.30	 	 	 	 	 	 	 	 	 	 	 	 	 	 	 	 	 	 	1581477149	7.97	14.76
12/02/2020 03:12:30	120220	12022020	031230	186.87	13.550320	-56.956110	187.07	0.090	-1.220	3.800	186.72	-2.60	4.20	 	 	 	 	 	 	 	 	 	 	 	 	 	 	 	 	 	 	1581477150	8.09	14.98
12/02/2020 03:12:31	120220	12022020	031231	186.22	13.550288	-56.956120	186.44	0.130	-0.720	4.080	186.11	-2.10	4.60	 	 	 	 	 	 	 	 	 	 	 	 	 	 	 	 	 	 	1581477151	7.75	14.35
12/02/2020 03:12:32	120220	12022020	031232	185.85	13.550257	-56.956127	186.13	0.130	-0.090	3.630	185.83	-1.40	4.20	 	 	 	 	 	 	 	 	 	 	 	 	 	 	 	 	 	 	1581477152	7.16	13.26
12/02/2020 03:12:33	120220	12022020	031233	185.94	13.550223	-56.956130	186.25	0.030	0.210	2.680	186.01	-1.10	3.30	 	 	 	 	 	 	 	 	 	 	 	 	 	 	 	 	 	 	1581477153	6.89	12.76
12/02/2020 03:12:34	120220	12022020	031234	186.42	13.550190	-56.956133	186.75	-0.100	0.110	1.570	186.42	-1.20	2.20	 	 	 	 	 	 	 	 	 	 	 	 	 	 	 	 	 	 	1581477154	7.09	13.13
12/02/2020 03:12:35	120220	12022020	031235	187.21	13.550155	-56.956135	187.55	-0.130	-0.110	0.570	187.38	-1.40	1.20	 	 	 	 	 	 	 	 	 	 	 	 	 	 	 	 	 	 	1581477155	7.44	13.78
12/02/2020 03:12:36	120220	12022020	031236	187.86	13.550120	-56.956138	188.11	0.030	-0.510	0.200	187.91	-1.80	0.70	 	 	 	 	 	 	 	 	 	 	 	 	 	 	 	 	 	 	1581477156	7.48	13.85
12/02/2020 03:12:37	120220	12022020	031237	187.81	13.550082	-56.956145	187.96	0.340	-1.200	0.690	187.72	-2.50	1.20	 	 	 	 	 	 	 	 	 	 	 	 	 	 	 	 	 	 	1581477157	7.59	14.06
12/02/2020 03:12:38	120220	12022020	031238	187.18	13.550043	-56.956153	187.33	0.440	-1.490	1.720	187.05	-2.80	2.20	 	 	 	 	 	 	 	 	 	 	 	 	 	 	 	 	 	 	1581477158	8.16	15.11
12/02/2020 03:12:39	120220	12022020	031239	186.76	13.550010	-56.956163	187.01	0.020	-0.650	2.560	186.75	-2.10	3.00	 	 	 	 	 	 	 	 	 	 	 	 	 	 	 	 	 	 	1581477159	8.37	15.50
12/02/2020 03:12:40	120220	12022020	031240	186.88	13.549982	-56.956172	187.19	-0.680	0.800	2.870	186.93	-0.60	3.40	 	 	 	 	 	 	 	 	 	 	 	 	 	 	 	 	 	 	1581477160	7.52	13.93
12/02/2020 03:12:41	120220	12022020	031241	187.17	13.549952	-56.956180	187.48	-1.100	1.610	2.790	187.23	0.30	3.30	 	 	 	 	 	 	 	 	 	 	 	 	 	 	 	 	 	 	1581477161	6.56	12.15
12/02/2020 03:12:42	120220	12022020	031242	187.46	13.549917	-56.956188	187.77	-0.910	1.270	2.470	187.53	-0.00	3.00	 	 	 	 	 	 	 	 	 	 	 	 	 	 	 	 	 	 	1581477162	6.75	12.50
12/02/2020 03:12:43	120220	12022020	031243	187.82	13.549878	-56.956197	188.11	-0.260	0.220	1.960	187.89	-1.10	2.50	 	 	 	 	 	 	 	 	 	 	 	 	 	 	 	 	 	 	1581477163	7.68	14.22
12/02/2020 03:12:44	120220	12022020	031244	188.05	13.549840	-56.956203	188.29	0.470	-0.900	1.610	188.07	-2.20	2.10	 	 	 	 	 	 	 	 	 	 	 	 	 	 	 	 	 	 	1581477164	8.25	15.28
12/02/2020 03:12:45	120220	12022020	031245	187.93	13.549805	-56.956210	188.11	0.960	-1.500	1.600	187.85	-2.80	2.10	 	 	 	 	 	 	 	 	 	 	 	 	 	 	 	 	 	 	1581477165	8.29	15.35
12/02/2020 03:12:46	120220	12022020	031246	187.52	13.549772	-56.956215	187.71	1.060	-1.220	1.660	187.52	-2.60	2.20	 	 	 	 	 	 	 	 	 	 	 	 	 	 	 	 	 	 	1581477166	7.89	14.61
12/02/2020 03:12:47	120220	12022020	031247	187.27	13.549742	-56.956218	187.52	0.660	-0.280	1.520	187.27	-1.70	2.10	 	 	 	 	 	 	 	 	 	 	 	 	 	 	 	 	 	 	1581477167	7.18	13.30
12/02/2020 03:12:48	120220	12022020	031248	187.38	13.549712	-56.956222	187.65	-0.060	0.490	1.100	187.43	-0.90	1.70	 	 	 	 	 	 	 	 	 	 	 	 	 	 	 	 	 	 	1581477168	6.48	12.00
12/02/2020 03:12:49	120220	12022020	031249	187.58	13.549678	-56.956228	187.82	-0.670	0.380	0.930	187.59	-0.90	1.50	 	 	 	 	 	 	 	 	 	 	 	 	 	 	 	 	 	 	1581477169	6.47	11.98
12/02/2020 03:12:50	120220	12022020	031250	187.54	13.549642	-56.956238	187.77	-0.730	-0.490	1.230	187.53	-1.80	1.70	 	 	 	 	 	 	 	 	 	 	 	 	 	 	 	 	 	 	1581477170	7.28	13.48
12/02/2020 03:12:51	120220	12022020	031251	187.50	13.549603	-56.956250	187.76	-0.330	-1.100	1.500	187.52	-2.40	2.00	 	 	 	 	 	 	 	 	 	 	 	 	 	 	 	 	 	 	1581477171	8.42	15.59
12/02/2020 03:12:52	120220	12022020	031252	187.67	13.549568	-56.956260	187.97	0.120	-0.960	1.700	187.72	-2.30	2.20	 	 	 	 	 	 	 	 	 	 	 	 	 	 	 	 	 	 	1581477172	8.55	15.83
12/02/2020 03:12:53	120220	12022020	031253	187.95	13.549535	-56.956268	188.24	0.240	-0.390	1.870	187.99	-1.80	2.40	 	 	 	 	 	 	 	 	 	 	 	 	 	 	 	 	 	 	1581477173	7.78	14.41
12/02/2020 03:12:54	120220	12022020	031254	188.01	13.549502	-56.956275	188.23	0.070	0.030	1.930	187.98	-1.40	2.50	 	 	 	 	 	 	 	 	 	 	 	 	 	 	 	 	 	 	1581477174	7.16	13.26
12/02/2020 03:12:55	120220	12022020	031255	187.79	13.549468	-56.956280	187.98	-0.180	0.190	2.020	187.72	-1.20	2.50	 	 	 	 	 	 	 	 	 	 	 	 	 	 	 	 	 	 	1581477175	7.19	13.32
12/02/2020 03:12:56	120220	12022020	031256	187.50	13.549433	-56.956288	187.71	-0.440	0.280	2.230	187.47	-1.10	2.70	 	 	 	 	 	 	 	 	 	 	 	 	 	 	 	 	 	 	1581477176	7.52	13.93
12/02/2020 03:12:57	120220	12022020	031257	187.46	13.549400	-56.956298	187.71	-0.600	0.430	2.170	187.48	-0.90	2.70	 	 	 	 	 	 	 	 	 	 	 	 	 	 	 	 	 	 	1581477177	7.59	14.06
12/02/2020 03:12:58	120220	12022020	031258	187.59	13.549367	-56.956305	187.83	-0.530	0.390	1.940	187.61	-1.00	2.50	 	 	 	 	 	 	 	 	 	 	 	 	 	 	 	 	 	 	1581477178	7.38	13.67
12/02/2020 03:12:59	120220	12022020	031259	187.62	13.549332	-56.956315	187.83	-0.170	-0.090	1.920	187.61	-1.40	2.40	 	 	 	 	 	 	 	 	 	 	 	 	 	 	 	 	 	 	1581477179	7.33	13.58
12/02/2020 03:13:00	120220	12022020	031300	187.49	13.549297	-56.956325	187.69	0.430	-0.690	2.030	187.45	-2.00	2.50	 	 	 	 	 	 	 	 	 	 	 	 	 	 	 	 	 	 	1581477180	7.74	14.33
12/02/2020 03:13:01	120220	12022020	031301	187.35	13.549262	-56.956330	187.58	1.040	-0.750	1.840	187.35	-2.10	2.40	1017.00	26.10	26.10	20.50	20.60	-1.0	71.0	71.0	389.0	25.7	263.00	11.50	73.00	12.50	16	9072.0	27.2	27.2	1581477181	8.04	14.89
12/02/2020 03:13:02	120220	12022020	031302	187.48	13.549228	-56.956332	187.75	1.290	-0.220	1.290	187.54	-1.60	1.80	 	 	 	 	 	 	 	 	 	 	 	 	 	 	 	 	 	 	1581477182	7.64	14.15
12/02/2020 03:13:03	120220	12022020	031303	187.78	13.549198	-56.956332	188.05	0.960	0.150	0.940	187.82	-1.20	1.50	 	 	 	 	 	 	 	 	 	 	 	 	 	 	 	 	 	 	1581477183	6.89	12.76
12/02/2020 03:13:04	120220	12022020	031304	187.88	13.549165	-56.956337	188.10	0.240	-0.110	1.180	187.86	-1.50	1.70	 	 	 	 	 	 	 	 	 	 	 	 	 	 	 	 	 	 	1581477184	6.76	12.52
12/02/2020 03:13:05	120220	12022020	031305	187.59	13.549128	-56.956347	187.76	-0.430	-0.790	2.030	187.49	-2.10	2.50	 	 	 	 	 	 	 	 	 	 	 	 	 	 	 	 	 	 	1581477185	7.25	13.43
12/02/2020 03:13:06	120220	12022020	031306	187.13	13.549093	-56.956362	187.34	-0.810	-1.220	3.120	187.04	-2.60	3.60	 	 	 	 	 	 	 	 	 	 	 	 	 	 	 	 	 	 	1581477186	7.99	14.80
12/02/2020 03:13:07	120220	12022020	031307	186.79	13.549058	-56.956378	187.04	-0.940	-1.100	3.930	186.74	-2.50	4.40	 	 	 	 	 	 	 	 	 	 	 	 	 	 	 	 	 	 	1581477187	8.30	15.37
12/02/2020 03:13:08	120220	12022020	031308	186.69	13.549027	-56.956393	187.00	-0.890	-0.570	4.030	186.71	-1.90	4.50	 	 	 	 	 	 	 	 	 	 	 	 	 	 	 	 	 	 	1581477188	8.06	14.93
12/02/2020 03:13:09	120220	12022020	031309	186.92	13.548993	-56.956402	187.25	-0.660	0.160	3.270	187.00	-1.20	3.80	 	 	 	 	 	 	 	 	 	 	 	 	 	 	 	 	 	 	1581477189	7.69	14.24
12/02/2020 03:13:10	120220	12022020	031310	187.37	13.548962	-56.956405	187.71	-0.180	0.810	1.820	187.48	-0.60	2.40	 	 	 	 	 	 	 	 	 	 	 	 	 	 	 	 	 	 	1581477190	7.23	13.39
12/02/2020 03:13:11	120220	12022020	031311	187.83	13.548927	-56.956402	188.10	0.460	0.810	0.350	187.89	-0.50	0.90	 	 	 	 	 	 	 	 	 	 	 	 	 	 	 	 	 	 	1581477191	7.01	12.98
12/02/2020 03:13:12	120220	12022020	031312	188.04	13.548888	-56.956398	188.27	0.980	0.060	-0.380	188.05	-1.30	0.20	 	 	 	 	 	 	 	 	 	 	 	 	 	 	 	 	 	 	1581477192	7.57	14.02
12/02/2020 03:13:13	120220	12022020	031313	188.03	13.548850	-56.956400	188.24	1.060	-0.680	-0.120	188.02	-2.00	0.40	 	 	 	 	 	 	 	 	 	 	 	 	 	 	 	 	 	 	1581477193	8.30	15.37
12/02/2020 03:13:14	120220	12022020	031314	187.93	13.548815	-56.956407	188.17	0.650	-0.730	0.820	187.91	-2.10	1.30	 	 	 	 	 	 	 	 	 	 	 	 	 	 	 	 	 	 	1581477194	8.25	15.28
12/02/2020 03:13:15	120220	12022020	031315	187.74	13.548783	-56.956418	187.98	0.070	-0.360	1.920	187.70	-1.70	2.40	 	 	 	 	 	 	 	 	 	 	 	 	 	 	 	 	 	 	1581477195	7.49	13.87
12/02/2020 03:13:16	120220	12022020	031316	187.55	13.548753	-56.956432	187.82	-0.410	-0.110	2.780	187.52	-1.50	3.20	 	 	 	 	 	 	 	 	 	 	 	 	 	 	 	 	 	 	1581477196	7.10	13.15
12/02/2020 03:13:17	120220	12022020	031317	187.42	13.548720	-56.956445	187.70	-0.680	-0.120	3.310	187.40	-1.50	3.80	 	 	 	 	 	 	 	 	 	 	 	 	 	 	 	 	 	 	1581477197	7.30	13.52
12/02/2020 03:13:18	120220	12022020	031318	187.35	13.548685	-56.956457	187.65	-0.740	-0.260	3.390	187.36	-1.60	3.90	 	 	 	 	 	 	 	 	 	 	 	 	 	 	 	 	 	 	1581477198	7.62	14.11
12/02/2020 03:13:19	120220	12022020	031319	187.44	13.548652	-56.956468	187.75	-0.640	-0.410	3.060	187.48	-1.80	3.60	 	 	 	 	 	 	 	 	 	 	 	 	 	 	 	 	 	 	1581477199	7.75	14.35
12/02/2020 03:13:20	120220	12022020	031320	187.62	13.548617	-56.956477	187.92	-0.380	-0.430	2.470	187.66	-1.80	3.00	 	 	 	 	 	 	 	 	 	 	 	 	 	 	 	 	 	 	1581477200	7.74	14.33
12/02/2020 03:13:21	120220	12022020	031321	187.90	13.548585	-56.956483	188.20	0.080	-0.150	1.570	187.97	-1.50	2.10	 	 	 	 	 	 	 	 	 	 	 	 	 	 	 	 	 	 	1581477201	7.58	14.04
12/02/2020 03:13:22	120220	12022020	031322	188.22	13.548552	-56.956483	188.48	0.670	0.200	0.570	188.27	-1.20	1.10	 	 	 	 	 	 	 	 	 	 	 	 	 	 	 	 	 	 	1581477202	7.22	13.37
12/02/2020 03:13:23	120220	12022020	031323	188.41	13.548517	-56.956482	188.64	1.160	0.050	-0.160	188.43	-1.30	0.40	 	 	 	 	 	 	 	 	 	 	 	 	 	 	 	 	 	 	1581477203	7.01	12.98
12/02/2020 03:13:24	120220	12022020	031324	188.46	13.548478	-56.956482	188.69	1.280	-0.610	-0.280	188.46	-1.90	0.20	 	 	 	 	 	 	 	 	 	 	 	 	 	 	 	 	 	 	1581477204	7.50	13.89
12/02/2020 03:13:25	120220	12022020	031325	188.43	13.548442	-56.956485	188.67	0.840	-1.090	0.150	188.41	-2.40	0.60	 	 	 	 	 	 	 	 	 	 	 	 	 	 	 	 	 	 	1581477205	8.11	15.02
12/02/2020 03:13:26	120220	12022020	031326	188.27	13.548407	-56.956493	188.54	-0.070	-0.970	1.140	188.24	-2.30	1.60	 	 	 	 	 	 	 	 	 	 	 	 	 	 	 	 	 	 	1581477206	8.11	15.02
12/02/2020 03:13:27	120220	12022020	031327	188.11	13.548375	-56.956510	188.39	-1.100	-0.350	2.470	188.10	-1.70	2.90	 	 	 	 	 	 	 	 	 	 	 	 	 	 	 	 	 	 	1581477207	7.67	14.20
12/02/2020 03:13:28	120220	12022020	031328	188.04	13.548345	-56.956530	188.34	-1.690	0.240	3.670	188.03	-1.10	4.10	 	 	 	 	 	 	 	 	 	 	 	 	 	 	 	 	 	 	1581477208	7.51	13.91
12/02/2020 03:13:29	120220	12022020	031329	188.05	13.548312	-56.956548	188.35	-1.490	0.380	4.040	188.06	-1.00	4.50	 	 	 	 	 	 	 	 	 	 	 	 	 	 	 	 	 	 	1581477209	7.85	14.54
12/02/2020 03:13:30	120220	12022020	031330	188.08	13.548277	-56.956560	188.36	-0.620	0.230	3.480	188.09	-1.10	4.00	 	 	 	 	 	 	 	 	 	 	 	 	 	 	 	 	 	 	1581477210	8.12	15.04
12/02/2020 03:13:31	120220	12022020	031331	188.18	13.548240	-56.956563	188.46	0.370	0.120	2.310	188.22	-1.20	2.90	 	 	 	 	 	 	 	 	 	 	 	 	 	 	 	 	 	 	1581477211	8.01	14.83
12/02/2020 03:13:32	120220	12022020	031332	188.46	13.548205	-56.956563	188.73	0.930	0.050	0.960	188.52	-1.30	1.50	 	 	 	 	 	 	 	 	 	 	 	 	 	 	 	 	 	 	1581477212	7.75	14.35
12/02/2020 03:13:33	120220	12022020	031333	188.66	13.548170	-56.956562	188.87	1.020	-0.280	-0.100	188.66	-1.60	0.40	 	 	 	 	 	 	 	 	 	 	 	 	 	 	 	 	 	 	1581477213	7.53	13.95
12/02/2020 03:13:34	120220	12022020	031334	188.58	13.548133	-56.956563	188.76	0.880	-0.720	-0.310	188.55	-2.10	0.20	 	 	 	 	 	 	 	 	 	 	 	 	 	 	 	 	 	 	1581477214	7.64	14.15
12/02/2020 03:13:35	120220	12022020	031335	188.38	13.548098	-56.956568	188.59	0.640	-0.750	0.050	188.35	-2.10	0.50	 	 	 	 	 	 	 	 	 	 	 	 	 	 	 	 	 	 	1581477215	7.81	14.46
12/02/2020 03:13:36	120220	12022020	031336	188.25	13.548065	-56.956577	188.50	0.270	-0.370	0.570	188.25	-1.70	1.00	 	 	 	 	 	 	 	 	 	 	 	 	 	 	 	 	 	 	1581477216	7.55	13.98
12/02/2020 03:13:37	120220	12022020	031337	188.43	13.548035	-56.956587	188.75	-0.220	0.150	1.020	188.51	-1.20	1.50	 	 	 	 	 	 	 	 	 	 	 	 	 	 	 	 	 	 	1581477217	7.25	13.43
12/02/2020 03:13:38	120220	12022020	031338	188.86	13.548003	-56.956597	189.33	-0.670	0.450	1.270	188.98	-0.90	1.70	 	 	 	 	 	 	 	 	 	 	 	 	 	 	 	 	 	 	1581477218	7.10	13.15
12/02/2020 03:13:39	120220	12022020	031339	189.49	13.547968	-56.956608	189.79	-0.800	0.040	1.560	189.54	-1.30	2.00	 	 	 	 	 	 	 	 	 	 	 	 	 	 	 	 	 	 	1581477219	7.12	13.19
12/02/2020 03:13:40	120220	12022020	031340	189.44	13.547932	-56.956622	189.65	-0.520	-1.010	2.220	189.36	-2.30	2.60	 	 	 	 	 	 	 	 	 	 	 	 	 	 	 	 	 	 	1581477220	7.65	14.17
12/02/2020 03:13:41	120220	12022020	031341	188.79	13.547892	-56.956635	188.95	-0.050	-1.840	3.170	188.61	-3.10	3.60	 	 	 	 	 	 	 	 	 	 	 	 	 	 	 	 	 	 	1581477221	8.54	15.82
12/02/2020 03:13:42	120220	12022020	031342	187.93	13.547857	-56.956648	188.12	0.270	-1.640	3.800	187.79	-3.00	4.30	 	 	 	 	 	 	 	 	 	 	 	 	 	 	 	 	 	 	1581477222	8.85	16.39
12/02/2020 03:13:43	120220	12022020	031343	187.50	13.547825	-56.956657	187.78	0.300	-0.270	3.640	187.49	-1.70	4.10	 	 	 	 	 	 	 	 	 	 	 	 	 	 	 	 	 	 	1581477223	8.25	15.28
12/02/2020 03:13:44	120220	12022020	031344	187.61	13.547795	-56.956660	187.92	0.190	1.240	2.830	187.66	-0.20	3.40	 	 	 	 	 	 	 	 	 	 	 	 	 	 	 	 	 	 	1581477224	6.97	12.91
12/02/2020 03:13:45	120220	12022020	031345	187.89	13.547763	-56.956662	188.17	0.230	1.650	1.790	187.95	0.30	2.30	 	 	 	 	 	 	 	 	 	 	 	 	 	 	 	 	 	 	1581477225	6.33	11.72
12/02/2020 03:13:46	120220	12022020	031346	188.17	13.547725	-56.956662	188.44	0.410	0.950	1.040	188.24	-0.40	1.60	 	 	 	 	 	 	 	 	 	 	 	 	 	 	 	 	 	 	1581477226	7.12	13.19
12/02/2020 03:13:47	120220	12022020	031347	188.59	13.547687	-56.956665	188.91	0.380	0.020	0.880	188.70	-1.30	1.40	 	 	 	 	 	 	 	 	 	 	 	 	 	 	 	 	 	 	1581477227	8.18	15.15
12/02/2020 03:13:48	120220	12022020	031348	189.06	13.547652	-56.956675	189.37	0.020	-0.690	1.330	189.13	-2.00	1.80	 	 	 	 	 	 	 	 	 	 	 	 	 	 	 	 	 	 	1581477228	8.24	15.26
12/02/2020 03:13:49	120220	12022020	031349	189.18	13.547618	-56.956690	189.45	-0.310	-1.330	2.280	189.14	-2.60	2.70	 	 	 	 	 	 	 	 	 	 	 	 	 	 	 	 	 	 	1581477229	7.78	14.41
12/02/2020 03:13:50	120220	12022020	031350	188.79	13.547583	-56.956705	188.99	-0.240	-1.970	3.340	188.65	-3.30	3.80	 	 	 	 	 	 	 	 	 	 	 	 	 	 	 	 	 	 	1581477230	7.82	14.48
12/02/2020 03:13:51	120220	12022020	031351	188.00	13.547547	-56.956720	188.21	0.140	-2.040	4.060	187.85	-3.40	4.50	 	 	 	 	 	 	 	 	 	 	 	 	 	 	 	 	 	 	1581477231	8.27	15.32
12/02/2020 03:13:52	120220	12022020	031352	187.38	13.547513	-56.956728	187.65	0.290	-0.980	4.050	187.33	-2.40	4.60	 	 	 	 	 	 	 	 	 	 	 	 	 	 	 	 	 	 	1581477232	8.25	15.28
12/02/2020 03:13:53	120220	12022020	031353	187.41	13.547483	-56.956732	187.74	0.020	0.690	3.190	187.50	-0.80	3.70	 	 	 	 	 	 	 	 	 	 	 	 	 	 	 	 	 	 	1581477233	7.34	13.59
12/02/2020 03:13:54	120220	12022020	031354	188.04	13.547453	-56.956733	188.40	-0.420	1.730	1.910	188.20	0.30	2.50	 	 	 	 	 	 	 	 	 	 	 	 	 	 	 	 	 	 	1581477234	6.46	11.96
12/02/2020 03:13:55	120220	12022020	031355	188.72	13.547417	-56.956735	189.01	-0.490	1.270	1.030	188.81	-0.00	1.60	 	 	 	 	 	 	 	 	 	 	 	 	 	 	 	 	 	 	1581477235	6.59	12.20
12/02/2020 03:13:56	120220	12022020	031356	189.00	13.547375	-56.956742	189.23	-0.060	-0.130	0.890	189.01	-1.40	1.40	 	 	 	 	 	 	 	 	 	 	 	 	 	 	 	 	 	 	1581477236	7.83	14.50
12/02/2020 03:13:57	120220	12022020	031357	189.02	13.547337	-56.956750	189.26	0.410	-1.100	1.190	189.01	-2.40	1.70	 	 	 	 	 	 	 	 	 	 	 	 	 	 	 	 	 	 	1581477237	8.93	16.54
12/02/2020 03:13:58	120220	12022020	031358	189.00	13.547302	-56.956760	189.26	0.450	-1.030	1.770	188.99	-2.40	2.20	 	 	 	 	 	 	 	 	 	 	 	 	 	 	 	 	 	 	1581477238	8.71	16.13
12/02/2020 03:13:59	120220	12022020	031359	188.88	13.547272	-56.956772	189.14	0.140	-0.470	2.410	188.85	-1.90	2.90	 	 	 	 	 	 	 	 	 	 	 	 	 	 	 	 	 	 	1581477239	7.60	14.08
12/02/2020 03:14:00	120220	12022020	031400	188.72	13.547240	-56.956782	188.98	-0.110	-0.010	2.570	188.71	-1.40	3.00	 	 	 	 	 	 	 	 	 	 	 	 	 	 	 	 	 	 	1581477240	6.98	12.93
12/02/2020 03:14:01	120220	12022020	031401	188.75	13.547208	-56.956788	189.02	-0.060	0.250	2.160	188.77	-1.10	2.70	1017.10	26.10	26.10	20.10	20.30	-1.0	69.0	70.0	389.0	25.7	260.00	12.20	72.00	13.50	16	9817.0	27.2	27.2	1581477241	7.03	13.02
12/02/2020 03:14:02	120220	12022020	031402	188.83	13.547173	-56.956793	189.09	0.210	0.070	1.680	188.84	-1.30	2.20	 	 	 	 	 	 	 	 	 	 	 	 	 	 	 	 	 	 	1581477242	7.16	13.26
12/02/2020 03:14:03	120220	12022020	031403	188.77	13.547135	-56.956798	189.00	0.410	-0.530	1.540	188.74	-1.90	2.00	 	 	 	 	 	 	 	 	 	 	 	 	 	 	 	 	 	 	1581477243	7.55	13.98
12/02/2020 03:14:04	120220	12022020	031404	188.54	13.547098	-56.956805	188.76	0.310	-1.040	1.870	188.49	-2.40	2.30	 	 	 	 	 	 	 	 	 	 	 	 	 	 	 	 	 	 	1581477244	8.09	14.98
12/02/2020 03:14:05	120220	12022020	031405	188.32	13.547063	-56.956817	188.55	-0.140	-1.030	2.640	188.29	-2.40	3.10	 	 	 	 	 	 	 	 	 	 	 	 	 	 	 	 	 	 	1581477245	8.23	15.24
12/02/2020 03:14:06	120220	12022020	031406	188.22	13.547030	-56.956832	188.47	-0.650	-0.540	3.300	188.20	-1.90	3.80	 	 	 	 	 	 	 	 	 	 	 	 	 	 	 	 	 	 	1581477246	7.98	14.78
12/02/2020 03:14:07	120220	12022020	031407	188.18	13.546998	-56.956845	188.45	-0.850	0.100	3.370	188.19	-1.30	3.90	 	 	 	 	 	 	 	 	 	 	 	 	 	 	 	 	 	 	1581477247	7.70	14.26
12/02/2020 03:14:08	120220	12022020	031408	188.42	13.546965	-56.956853	188.73	-0.680	0.730	2.680	188.52	-0.70	3.20	 	 	 	 	 	 	 	 	 	 	 	 	 	 	 	 	 	 	1581477248	7.51	13.91
12/02/2020 03:14:09	120220	12022020	031409	188.99	13.546932	-56.956858	189.31	-0.210	0.970	1.430	189.11	-0.40	2.00	 	 	 	 	 	 	 	 	 	 	 	 	 	 	 	 	 	 	1581477249	7.22	13.37
12/02/2020 03:14:10	120220	12022020	031410	189.48	13.546895	-56.956857	189.73	0.410	0.350	0.230	189.53	-0.90	0.80	 	 	 	 	 	 	 	 	 	 	 	 	 	 	 	 	 	 	1581477250	7.17	13.28
12/02/2020 03:14:11	120220	12022020	031411	189.51	13.546855	-56.956858	189.69	0.930	-0.840	-0.140	189.47	-2.20	0.40	 	 	 	 	 	 	 	 	 	 	 	 	 	 	 	 	 	 	1581477251	7.90	14.63
12/02/2020 03:14:12	120220	12022020	031412	189.24	13.546817	-56.956863	189.42	0.980	-1.570	0.360	189.17	-2.90	0.80	 	 	 	 	 	 	 	 	 	 	 	 	 	 	 	 	 	 	1581477252	8.63	15.98
12/02/2020 03:14:13	120220	12022020	031413	188.91	13.546782	-56.956873	189.11	0.430	-1.340	1.430	188.84	-2.70	1.90	 	 	 	 	 	 	 	 	 	 	 	 	 	 	 	 	 	 	1581477253	8.41	15.58
12/02/2020 03:14:14	120220	12022020	031414	188.55	13.546750	-56.956887	188.76	-0.320	-0.660	2.590	188.48	-2.10	3.00	 	 	 	 	 	 	 	 	 	 	 	 	 	 	 	 	 	 	1581477254	7.60	14.08
12/02/2020 03:14:15	120220	12022020	031415	188.24	13.546718	-56.956902	188.49	-0.750	-0.060	3.340	188.20	-1.40	3.80	 	 	 	 	 	 	 	 	 	 	 	 	 	 	 	 	 	 	1581477255	7.39	13.69
12/02/2020 03:14:16	120220	12022020	031416	188.09	13.546683	-56.956913	188.37	-0.800	0.350	3.540	188.08	-1.00	4.00	 	 	 	 	 	 	 	 	 	 	 	 	 	 	 	 	 	 	1581477256	7.65	14.17
12/02/2020 03:14:17	120220	12022020	031417	188.06	13.546648	-56.956925	188.33	-0.660	0.590	3.340	188.07	-0.80	3.80	 	 	 	 	 	 	 	 	 	 	 	 	 	 	 	 	 	 	1581477257	7.84	14.52
12/02/2020 03:14:18	120220	12022020	031418	188.10	13.546613	-56.956933	188.38	-0.430	0.680	2.760	188.13	-0.70	3.30	 	 	 	 	 	 	 	 	 	 	 	 	 	 	 	 	 	 	1581477258	7.85	14.54
12/02/2020 03:14:19	120220	12022020	031419	188.30	13.546578	-56.956938	188.57	-0.150	0.590	1.900	188.36	-0.80	2.40	 	 	 	 	 	 	 	 	 	 	 	 	 	 	 	 	 	 	1581477259	7.72	14.30
12/02/2020 03:14:20	120220	12022020	031420	188.66	13.546543	-56.956942	188.93	0.250	0.180	0.910	188.74	-1.20	1.50	 	 	 	 	 	 	 	 	 	 	 	 	 	 	 	 	 	 	1581477260	7.58	14.04
12/02/2020 03:14:21	120220	12022020	031421	189.05	13.546507	-56.956943	189.32	0.710	-0.410	0.090	189.13	-1.70	0.60	 	 	 	 	 	 	 	 	 	 	 	 	 	 	 	 	 	 	1581477261	7.68	14.22
12/02/2020 03:14:22	120220	12022020	031422	189.38	13.546472	-56.956947	189.63	0.920	-0.910	-0.220	189.43	-2.20	0.30	 	 	 	 	 	 	 	 	 	 	 	 	 	 	 	 	 	 	1581477262	7.81	14.46
12/02/2020 03:14:23	120220	12022020	031423	189.51	13.546437	-56.956952	189.72	0.740	-1.280	0.170	189.49	-2.60	0.60	 	 	 	 	 	 	 	 	 	 	 	 	 	 	 	 	 	 	1581477263	7.72	14.30
12/02/2020 03:14:24	120220	12022020	031424	189.23	13.546400	-56.956962	189.41	0.370	-1.590	1.210	189.13	-2.90	1.60	 	 	 	 	 	 	 	 	 	 	 	 	 	 	 	 	 	 	1581477264	7.61	14.09
12/02/2020 03:14:25	120220	12022020	031425	188.72	13.546365	-56.956975	188.92	0.010	-1.590	2.410	188.61	-3.00	2.80	 	 	 	 	 	 	 	 	 	 	 	 	 	 	 	 	 	 	1581477265	7.92	14.67
12/02/2020 03:14:26	120220	12022020	031426	188.22	13.546328	-56.956988	188.46	-0.350	-0.960	3.390	188.14	-2.40	3.80	 	 	 	 	 	 	 	 	 	 	 	 	 	 	 	 	 	 	1581477266	8.25	15.28
12/02/2020 03:14:27	120220	12022020	031427	187.88	13.546295	-56.957000	188.16	-0.710	0.130	3.840	187.86	-1.30	4.30	 	 	 	 	 	 	 	 	 	 	 	 	 	 	 	 	 	 	1581477267	8.09	14.98
12/02/2020 03:14:28	120220	12022020	031428	187.91	13.546262	-56.957010	188.31	-1.000	1.270	3.530	187.98	-0.10	4.00	 	 	 	 	 	 	 	 	 	 	 	 	 	 	 	 	 	 	1581477268	7.74	14.33
12/02/2020 03:14:29	120220	12022020	031429	188.55	13.546228	-56.957017	188.91	-1.060	1.890	2.740	188.67	0.50	3.30	 	 	 	 	 	 	 	 	 	 	 	 	 	 	 	 	 	 	1581477269	7.44	13.78
12/02/2020 03:14:30	120220	12022020	031430	189.10	13.546192	-56.957023	189.41	-0.650	1.380	1.930	189.16	0.10	2.50	 	 	 	 	 	 	 	 	 	 	 	 	 	 	 	 	 	 	1581477270	7.38	13.67
12/02/2020 03:14:31	120220	12022020	031431	189.22	13.546150	-56.957028	189.48	0.220	-0.030	1.360	189.22	-1.30	1.90	 	 	 	 	 	 	 	 	 	 	 	 	 	 	 	 	 	 	1581477271	8.02	14.85
12/02/2020 03:14:32	120220	12022020	031432	189.27	13.546110	-56.957033	189.56	0.900	-1.010	1.060	189.30	-2.30	1.60	 	 	 	 	 	 	 	 	 	 	 	 	 	 	 	 	 	 	1581477272	8.97	16.61
12/02/2020 03:14:33	120220	12022020	031433	189.52	13.546077	-56.957040	189.83	0.890	-0.910	0.970	189.58	-2.30	1.50	 	 	 	 	 	 	 	 	 	 	 	 	 	 	 	 	 	 	1581477273	8.69	16.09
12/02/2020 03:14:34	120220	12022020	031434	189.75	13.546047	-56.957048	190.03	0.470	-0.470	1.020	189.76	-1.90	1.50	 	 	 	 	 	 	 	 	 	 	 	 	 	 	 	 	 	 	1581477274	7.31	13.54
12/02/2020 03:14:35	120220	12022020	031435	189.72	13.546013	-56.957057	189.96	0.250	-0.590	1.240	189.69	-1.90	1.70	 	 	 	 	 	 	 	 	 	 	 	 	 	 	 	 	 	 	1581477275	6.69	12.39
12/02/2020 03:14:36	120220	12022020	031436	189.57	13.545975	-56.957065	189.82	0.350	-1.010	1.470	189.55	-2.40	1.90	 	 	 	 	 	 	 	 	 	 	 	 	 	 	 	 	 	 	1581477276	7.38	13.67
12/02/2020 03:14:37	120220	12022020	031437	189.58	13.545940	-56.957073	189.88	0.340	-0.900	1.560	189.61	-2.30	2.00	 	 	 	 	 	 	 	 	 	 	 	 	 	 	 	 	 	 	1581477277	8.18	15.15
12/02/2020 03:14:38	120220	12022020	031438	189.74	13.545905	-56.957082	190.03	0.010	-0.410	1.570	189.76	-1.80	2.00	 	 	 	 	 	 	 	 	 	 	 	 	 	 	 	 	 	 	1581477278	7.97	14.76
12/02/2020 03:14:39	120220	12022020	031439	189.71	13.545870	-56.957092	189.95	-0.380	-0.250	1.790	189.66	-1.60	2.20	 	 	 	 	 	 	 	 	 	 	 	 	 	 	 	 	 	 	1581477279	7.55	13.98
12/02/2020 03:14:40	120220	12022020	031440	189.40	13.545830	-56.957103	189.63	-0.460	-0.500	2.170	189.33	-1.80	2.60	 	 	 	 	 	 	 	 	 	 	 	 	 	 	 	 	 	 	1581477280	7.97	14.76
12/02/2020 03:14:41	120220	12022020	031441	189.11	13.545792	-56.957113	189.38	-0.300	-0.420	2.390	189.09	-1.80	2.90	 	 	 	 	 	 	 	 	 	 	 	 	 	 	 	 	 	 	1581477281	8.74	16.19
12/02/2020 03:14:42	120220	12022020	031442	189.20	13.545755	-56.957122	189.53	-0.290	0.330	2.170	189.25	-1.10	2.70	 	 	 	 	 	 	 	 	 	 	 	 	 	 	 	 	 	 	1581477282	8.72	16.15
12/02/2020 03:14:43	120220	12022020	031443	189.56	13.545723	-56.957128	189.90	-0.550	1.130	1.670	189.64	-0.30	2.20	 	 	 	 	 	 	 	 	 	 	 	 	 	 	 	 	 	 	1581477283	7.79	14.43
12/02/2020 03:14:44	120220	12022020	031444	189.88	13.545688	-56.957137	190.16	-0.780	1.130	1.390	189.91	-0.20	1.90	 	 	 	 	 	 	 	 	 	 	 	 	 	 	 	 	 	 	1581477284	7.19	13.32
12/02/2020 03:14:45	120220	12022020	031445	189.91	13.545650	-56.957148	190.14	-0.540	0.170	1.560	189.89	-1.10	2.00	 	 	 	 	 	 	 	 	 	 	 	 	 	 	 	 	 	 	1581477285	7.58	14.04
12/02/2020 03:14:46	120220	12022020	031446	189.75	13.545612	-56.957162	189.97	0.200	-0.910	1.770	189.73	-2.20	2.20	 	 	 	 	 	 	 	 	 	 	 	 	 	 	 	 	 	 	1581477286	8.57	15.87
12/02/2020 03:14:47	120220	12022020	031447	189.75	13.545575	-56.957170	190.03	0.930	-1.070	1.660	189.78	-2.40	2.10	 	 	 	 	 	 	 	 	 	 	 	 	 	 	 	 	 	 	1581477287	8.95	16.58
12/02/2020 03:14:48	120220	12022020	031448	190.05	13.545543	-56.957175	190.35	1.120	-0.310	1.250	190.13	-1.70	1.70	 	 	 	 	 	 	 	 	 	 	 	 	 	 	 	 	 	 	1581477288	8.10	15.00
12/02/2020 03:14:49	120220	12022020	031449	190.34	13.545512	-56.957180	190.58	0.840	0.230	0.810	190.36	-1.10	1.30	 	 	 	 	 	 	 	 	 	 	 	 	 	 	 	 	 	 	1581477289	6.88	12.74
12/02/2020 03:14:50	120220	12022020	031450	190.28	13.545475	-56.957183	190.46	0.540	-0.170	0.700	190.22	-1.50	1.20	 	 	 	 	 	 	 	 	 	 	 	 	 	 	 	 	 	 	1581477290	6.77	12.54
12/02/2020 03:14:51	120220	12022020	031451	189.96	13.545437	-56.957192	190.14	0.340	-0.950	1.060	189.88	-2.30	1.50	 	 	 	 	 	 	 	 	 	 	 	 	 	 	 	 	 	 	1581477291	7.82	14.48
12/02/2020 03:14:52	120220	12022020	031452	189.55	13.545397	-56.957202	189.74	0.040	-1.360	1.840	189.46	-2.70	2.30	 	 	 	 	 	 	 	 	 	 	 	 	 	 	 	 	 	 	1581477292	8.63	15.98
12/02/2020 03:14:53	120220	12022020	031453	189.07	13.545360	-56.957217	189.28	-0.400	-1.270	2.770	188.99	-2.60	3.20	 	 	 	 	 	 	 	 	 	 	 	 	 	 	 	 	 	 	1581477293	8.58	15.89
12/02/2020 03:14:54	120220	12022020	031454	188.71	13.545325	-56.957232	188.96	-0.790	-0.760	3.340	188.67	-2.10	3.80	 	 	 	 	 	 	 	 	 	 	 	 	 	 	 	 	 	 	1581477294	8.44	15.63
12/02/2020 03:14:55	120220	12022020	031455	188.60	13.545290	-56.957245	188.89	-0.910	0.010	3.360	188.61	-1.40	3.80	 	 	 	 	 	 	 	 	 	 	 	 	 	 	 	 	 	 	1581477295	8.31	15.39
12/02/2020 03:14:56	120220	12022020	031456	188.82	13.545255	-56.957255	189.16	-0.840	0.710	2.900	188.91	-0.70	3.40	 	 	 	 	 	 	 	 	 	 	 	 	 	 	 	 	 	 	1581477296	8.04	14.89
12/02/2020 03:14:57	120220	12022020	031457	189.38	13.545220	-56.957263	189.73	-0.700	1.000	2.000	189.52	-0.30	2.50	 	 	 	 	 	 	 	 	 	 	 	 	 	 	 	 	 	 	1581477297	7.82	14.48
12/02/2020 03:14:58	120220	12022020	031458	189.89	13.545182	-56.957268	190.15	-0.440	0.630	1.160	189.94	-0.70	1.70	 	 	 	 	 	 	 	 	 	 	 	 	 	 	 	 	 	 	1581477298	7.86	14.56
12/02/2020 03:14:59	120220	12022020	031459	189.92	13.545142	-56.957277	190.10	0.000	-0.150	1.020	189.87	-1.40	1.50	 	 	 	 	 	 	 	 	 	 	 	 	 	 	 	 	 	 	1581477299	8.20	15.19
12/02/2020 03:15:00	120220	12022020	031500	189.66	13.545103	-56.957285	189.85	0.470	-0.550	1.180	189.61	-1.90	1.70	 	 	 	 	 	 	 	 	 	 	 	 	 	 	 	 	 	 	1581477300	8.67	16.06
12/02/2020 03:15:01	120220	12022020	031501	189.43	13.545068	-56.957293	189.64	0.810	-0.360	1.320	189.39	-1.70	1.80	1017.10	26.10	26.20	20.20	20.30	-1.0	69.0	70.0	388.0	25.7	261.00	11.50	72.00	12.80	16	9530.0	27.3	27.2	1581477301	8.40	15.56
12/02/2020 03:15:02	120220	12022020	031502	189.28	13.545035	-56.957298	189.53	0.990	-0.080	1.320	189.28	-1.40	1.80	 	 	 	 	 	 	 	 	 	 	 	 	 	 	 	 	 	 	1581477302	7.69	14.24
12/02/2020 03:15:03	120220	12022020	031503	189.42	13.545000	-56.957303	189.71	0.970	0.110	1.070	189.48	-1.20	1.60	 	 	 	 	 	 	 	 	 	 	 	 	 	 	 	 	 	 	1581477303	7.52	13.93
12/02/2020 03:15:04	120220	12022020	031504	189.68	13.544963	-56.957307	190.03	0.840	0.050	0.820	189.74	-1.30	1.30	 	 	 	 	 	 	 	 	 	 	 	 	 	 	 	 	 	 	1581477304	7.54	13.96
12/02/2020 03:15:05	120220	12022020	031505	189.88	13.544927	-56.957312	190.12	0.570	-0.570	1.070	189.86	-1.90	1.50	 	 	 	 	 	 	 	 	 	 	 	 	 	 	 	 	 	 	1581477305	7.65	14.17
12/02/2020 03:15:06	120220	12022020	031506	189.62	13.544887	-56.957325	189.82	0.040	-1.550	2.230	189.53	-2.80	2.60	 	 	 	 	 	 	 	 	 	 	 	 	 	 	 	 	 	 	1581477306	8.21	15.20
12/02/2020 03:15:07	120220	12022020	031507	188.99	13.544848	-56.957345	189.20	-0.740	-2.070	3.900	188.84	-3.40	4.30	 	 	 	 	 	 	 	 	 	 	 	 	 	 	 	 	 	 	1581477307	8.94	16.56
12/02/2020 03:15:08	120220	12022020	031508	188.21	13.544813	-56.957368	188.44	-1.420	-1.630	5.210	188.07	-3.00	5.60	 	 	 	 	 	 	 	 	 	 	 	 	 	 	 	 	 	 	1581477308	9.32	17.26
12/02/2020 03:15:09	120220	12022020	031509	187.69	13.544780	-56.957390	187.99	-1.540	-0.420	5.460	187.67	-1.80	6.00	 	 	 	 	 	 	 	 	 	 	 	 	 	 	 	 	 	 	1581477309	9.09	16.83
12/02/2020 03:15:10	120220	12022020	031510	187.83	13.544747	-56.957400	188.21	-1.030	0.830	4.380	187.93	-0.60	5.00	 	 	 	 	 	 	 	 	 	 	 	 	 	 	 	 	 	 	1581477310	8.31	15.39
12/02/2020 03:15:11	120220	12022020	031511	188.42	13.544710	-56.957403	188.78	-0.180	1.270	2.510	188.55	-0.10	3.10	 	 	 	 	 	 	 	 	 	 	 	 	 	 	 	 	 	 	1581477311	7.53	13.95
12/02/2020 03:15:12	120220	12022020	031512	189.02	13.544668	-56.957400	189.34	0.630	0.820	0.640	189.12	-0.50	1.30	 	 	 	 	 	 	 	 	 	 	 	 	 	 	 	 	 	 	1581477312	7.93	14.69
12/02/2020 03:15:13	120220	12022020	031513	189.41	13.544627	-56.957395	189.67	1.090	0.090	-0.570	189.45	-1.20	-0.00	 	 	 	 	 	 	 	 	 	 	 	 	 	 	 	 	 	 	1581477313	8.84	16.37
12/02/2020 03:15:14	120220	12022020	031514	189.53	13.544587	-56.957395	189.74	1.060	-0.400	-0.790	189.50	-1.70	-0.30	 	 	 	 	 	 	 	 	 	 	 	 	 	 	 	 	 	 	1581477314	9.09	16.83
12/02/2020 03:15:15	120220	12022020	031515	189.32	13.544550	-56.957400	189.52	0.710	-0.670	-0.040	189.25	-2.00	0.40	 	 	 	 	 	 	 	 	 	 	 	 	 	 	 	 	 	 	1581477315	8.52	15.78
12/02/2020 03:15:16	120220	12022020	031516	189.07	13.544513	-56.957412	189.35	0.230	-0.710	1.080	189.06	-2.00	1.50	 	 	 	 	 	 	 	 	 	 	 	 	 	 	 	 	 	 	1581477316	8.12	15.04
12/02/2020 03:15:17	120220	12022020	031517	189.11	13.544480	-56.957427	189.44	-0.330	-0.390	2.240	189.15	-1.70	2.70	 	 	 	 	 	 	 	 	 	 	 	 	 	 	 	 	 	 	1581477317	8.14	15.08
12/02/2020 03:15:18	120220	12022020	031518	189.33	13.544447	-56.957445	189.78	-0.770	0.060	2.860	189.41	-1.30	3.30	 	 	 	 	 	 	 	 	 	 	 	 	 	 	 	 	 	 	1581477318	8.00	14.82
12/02/2020 03:15:19	120220	12022020	031519	189.75	13.544413	-56.957458	190.08	-0.780	0.110	2.760	189.78	-1.20	3.30	 	 	 	 	 	 	 	 	 	 	 	 	 	 	 	 	 	 	1581477319	7.83	14.50
12/02/2020 03:15:20	120220	12022020	031520	189.81	13.544375	-56.957468	190.09	-0.300	-0.360	2.330	189.80	-1.60	2.80	 	 	 	 	 	 	 	 	 	 	 	 	 	 	 	 	 	 	1581477320	7.89	14.61
12/02/2020 03:15:21	120220	12022020	031521	189.66	13.544335	-56.957475	189.92	0.250	-0.920	1.840	189.63	-2.20	2.40	 	 	 	 	 	 	 	 	 	 	 	 	 	 	 	 	 	 	1581477321	8.40	15.56
12/02/2020 03:15:22	120220	12022020	031522	189.55	13.544297	-56.957480	189.80	0.410	-1.020	1.310	189.54	-2.40	1.90	 	 	 	 	 	 	 	 	 	 	 	 	 	 	 	 	 	 	1581477322	8.73	16.17
12/02/2020 03:15:23	120220	12022020	031523	189.54	13.544260	-56.957485	189.80	0.170	-0.680	0.910	189.54	-2.00	1.40	 	 	 	 	 	 	 	 	 	 	 	 	 	 	 	 	 	 	1581477323	8.46	15.67
12/02/2020 03:15:24	120220	12022020	031524	189.56	13.544223	-56.957493	189.82	-0.120	-0.240	0.820	189.55	-1.60	1.30	 	 	 	 	 	 	 	 	 	 	 	 	 	 	 	 	 	 	1581477324	8.00	14.82
12/02/2020 03:15:25	120220	12022020	031525	189.50	13.544187	-56.957502	189.74	-0.080	0.010	0.940	189.49	-1.30	1.40	 	 	 	 	 	 	 	 	 	 	 	 	 	 	 	 	 	 	1581477325	7.91	14.65
12/02/2020 03:15:26	120220	12022020	031526	189.45	13.544147	-56.957510	189.71	0.280	0.080	1.060	189.47	-1.20	1.60	 	 	 	 	 	 	 	 	 	 	 	 	 	 	 	 	 	 	1581477326	8.19	15.17
12/02/2020 03:15:27	120220	12022020	031527	189.61	13.544108	-56.957517	189.93	0.460	0.170	1.180	189.68	-1.10	1.70	 	 	 	 	 	 	 	 	 	 	 	 	 	 	 	 	 	 	1581477327	8.53	15.80
12/02/2020 03:15:28	120220	12022020	031528	190.11	13.544072	-56.957525	190.48	0.090	0.430	1.420	190.25	-0.90	1.90	 	 	 	 	 	 	 	 	 	 	 	 	 	 	 	 	 	 	1581477328	8.52	15.78
12/02/2020 03:15:29	120220	12022020	031529	190.78	13.544037	-56.957537	191.14	-0.590	0.640	1.760	190.89	-0.70	2.20	 	 	 	 	 	 	 	 	 	 	 	 	 	 	 	 	 	 	1581477329	8.12	15.04
12/02/2020 03:15:30	120220	12022020	031530	191.21	13.544002	-56.957552	191.53	-0.920	0.430	2.100	191.26	-0.90	2.60	 	 	 	 	 	 	 	 	 	 	 	 	 	 	 	 	 	 	1581477330	7.80	14.45
12/02/2020 03:15:31	120220	12022020	031531	191.33	13.543965	-56.957563	191.60	-0.480	-0.290	2.170	191.31	-1.60	2.70	 	 	 	 	 	 	 	 	 	 	 	 	 	 	 	 	 	 	1581477331	8.04	14.89
12/02/2020 03:15:32	120220	12022020	031532	191.05	13.543925	-56.957573	191.25	0.370	-1.140	2.110	190.95	-2.40	2.60	 	 	 	 	 	 	 	 	 	 	 	 	 	 	 	 	 	 	1581477332	8.45	15.65
12/02/2020 03:15:33	120220	12022020	031533	190.44	13.543885	-56.957580	190.61	0.940	-1.610	1.980	190.29	-2.90	2.50	 	 	 	 	 	 	 	 	 	 	 	 	 	 	 	 	 	 	1581477333	8.74	16.19
12/02/2020 03:15:34	120220	12022020	031534	189.67	13.543847	-56.957587	189.84	0.890	-1.480	1.870	189.50	-2.80	2.40	 	 	 	 	 	 	 	 	 	 	 	 	 	 	 	 	 	 	1581477334	8.69	16.09
12/02/2020 03:15:35	120220	12022020	031535	188.90	13.543810	-56.957595	189.11	0.450	-0.890	1.800	188.79	-2.30	2.30	 	 	 	 	 	 	 	 	 	 	 	 	 	 	 	 	 	 	1581477335	8.34	15.45
12/02/2020 03:15:36	120220	12022020	031536	188.63	13.543773	-56.957602	188.95	-0.120	0.050	1.570	188.66	-1.30	2.10	 	 	 	 	 	 	 	 	 	 	 	 	 	 	 	 	 	 	1581477336	8.21	15.20
12/02/2020 03:15:37	120220	12022020	031537	189.06	13.543738	-56.957612	189.47	-0.700	0.920	1.340	189.21	-0.40	1.90	 	 	 	 	 	 	 	 	 	 	 	 	 	 	 	 	 	 	1581477337	7.97	14.76
12/02/2020 03:15:38	120220	12022020	031538	189.95	13.543702	-56.957623	190.37	-1.060	1.250	1.150	190.14	-0.10	1.70	 	 	 	 	 	 	 	 	 	 	 	 	 	 	 	 	 	 	1581477338	7.85	14.54
12/02/2020 03:15:39	120220	12022020	031539	190.83	13.543665	-56.957637	191.22	-0.940	0.880	1.120	190.98	-0.40	1.60	 	 	 	 	 	 	 	 	 	 	 	 	 	 	 	 	 	 	1581477339	8.08	14.96
12/02/2020 03:15:40	120220	12022020	031540	191.43	13.543627	-56.957650	191.77	-0.270	0.070	1.240	191.51	-1.20	1.70	 	 	 	 	 	 	 	 	 	 	 	 	 	 	 	 	 	 	1581477340	8.53	15.80
12/02/2020 03:15:41	120220	12022020	031541	191.70	13.543587	-56.957660	191.99	0.580	-0.680	1.410	191.72	-2.00	1.90	 	 	 	 	 	 	 	 	 	 	 	 	 	 	 	 	 	 	1581477341	8.85	16.39
12/02/2020 03:15:42	120220	12022020	031542	191.71	13.543548	-56.957668	191.95	1.090	-0.900	1.490	191.68	-2.20	2.00	 	 	 	 	 	 	 	 	 	 	 	 	 	 	 	 	 	 	1581477342	8.76	16.22
12/02/2020 03:15:43	120220	12022020	031543	191.45	13.543513	-56.957673	191.65	1.040	-0.720	1.570	191.36	-2.10	2.10	 	 	 	 	 	 	 	 	 	 	 	 	 	 	 	 	 	 	1581477343	8.25	15.28
12/02/2020 03:15:44	120220	12022020	031544	190.86	13.543477	-56.957678	191.04	0.620	-0.660	1.820	190.72	-2.00	2.30	 	 	 	 	 	 	 	 	 	 	 	 	 	 	 	 	 	 	1581477344	7.80	14.45
12/02/2020 03:15:45	120220	12022020	031545	190.20	13.543437	-56.957687	190.41	0.100	-0.860	2.120	190.09	-2.20	2.60	 	 	 	 	 	 	 	 	 	 	 	 	 	 	 	 	 	 	1581477345	8.01	14.83
12/02/2020 03:15:46	120220	12022020	031546	189.68	13.543397	-56.957698	189.90	-0.390	-1.120	2.500	189.58	-2.40	3.00	 	 	 	 	 	 	 	 	 	 	 	 	 	 	 	 	 	 	1581477346	8.62	15.96
12/02/2020 03:15:47	120220	12022020	031547	189.13	13.543357	-56.957713	189.35	-0.750	-1.120	3.130	189.00	-2.40	3.60	 	 	 	 	 	 	 	 	 	 	 	 	 	 	 	 	 	 	1581477347	9.02	16.71
12/02/2020 03:15:48	120220	12022020	031548	188.57	13.543317	-56.957730	188.85	-0.960	-0.630	3.590	188.50	-2.00	4.10	 	 	 	 	 	 	 	 	 	 	 	 	 	 	 	 	 	 	1581477348	9.21	17.06
12/02/2020 03:15:49	120220	12022020	031549	188.46	13.543282	-56.957747	188.83	-1.050	0.450	3.440	188.52	-0.90	4.00	 	 	 	 	 	 	 	 	 	 	 	 	 	 	 	 	 	 	1581477349	9.07	16.80
12/02/2020 03:15:50	120220	12022020	031550	189.03	13.543248	-56.957758	189.47	-0.990	1.750	2.550	189.22	0.40	3.10	 	 	 	 	 	 	 	 	 	 	 	 	 	 	 	 	 	 	1581477350	8.36	15.48
12/02/2020 03:15:51	120220	12022020	031551	190.14	13.543217	-56.957763	190.58	-0.560	2.390	1.020	190.38	1.10	1.60	 	 	 	 	 	 	 	 	 	 	 	 	 	 	 	 	 	 	1581477351	7.47	13.83
12/02/2020 03:15:52	120220	12022020	031552	191.19	13.543178	-56.957765	191.55	0.370	1.570	-0.320	191.33	0.30	0.30	 	 	 	 	 	 	 	 	 	 	 	 	 	 	 	 	 	 	1581477352	7.19	13.32
12/02/2020 03:15:53	120220	12022020	031553	191.70	13.543133	-56.957768	191.96	1.440	-0.400	-0.670	191.73	-1.60	-0.20	 	 	 	 	 	 	 	 	 	 	 	 	 	 	 	 	 	 	1581477353	8.24	15.26
12/02/2020 03:15:54	120220	12022020	031554	191.71	13.543090	-56.957773	191.92	2.000	-2.210	-0.020	191.66	-3.50	0.40	 	 	 	 	 	 	 	 	 	 	 	 	 	 	 	 	 	 	1581477354	9.40	17.41
12/02/2020 03:15:55	120220	12022020	031555	191.32	13.543052	-56.957783	191.52	1.690	-2.890	1.410	191.21	-4.20	1.80	 	 	 	 	 	 	 	 	 	 	 	 	 	 	 	 	 	 	1581477355	9.46	17.52
12/02/2020 03:15:56	120220	12022020	031556	190.67	13.543017	-56.957797	190.89	0.720	-2.370	3.050	190.54	-3.70	3.50	 	 	 	 	 	 	 	 	 	 	 	 	 	 	 	 	 	 	1581477356	8.69	16.09
12/02/2020 03:15:57	120220	12022020	031557	190.00	13.542983	-56.957812	190.25	-0.430	-1.250	4.310	189.89	-2.60	4.80	 	 	 	 	 	 	 	 	 	 	 	 	 	 	 	 	 	 	1581477357	7.99	14.80
12/02/2020 03:15:58	120220	12022020	031558	189.55	13.542948	-56.957828	189.87	-1.340	-0.150	4.760	189.52	-1.50	5.30	 	 	 	 	 	 	 	 	 	 	 	 	 	 	 	 	 	 	1581477358	7.93	14.69
12/02/2020 03:15:59	120220	12022020	031559	189.55	13.542912	-56.957845	189.92	-1.830	0.660	4.460	189.60	-0.70	5.00	 	 	 	 	 	 	 	 	 	 	 	 	 	 	 	 	 	 	1581477359	8.31	15.39
12/02/2020 03:16:00	120220	12022020	031600	189.91	13.542873	-56.957860	190.30	-1.770	1.130	3.580	190.00	-0.20	4.10	 	 	 	 	 	 	 	 	 	 	 	 	 	 	 	 	 	 	1581477360	8.60	15.93
12/02/2020 03:16:01	120220	12022020	031601	190.42	13.542835	-56.957870	190.81	-1.100	1.320	2.250	190.53	-0.00	2.80	1017.10	26.10	26.20	20.10	20.30	-1.0	69.0	69.0	388.0	25.7	260.00	11.30	70.00	12.80	16	9075.0	27.2	27.2	1581477361	8.69	16.09
12/02/2020 03:16:02	120220	12022020	031602	191.03	13.542797	-56.957875	191.43	-0.060	1.250	0.720	191.17	-0.10	1.30	 	 	 	 	 	 	 	 	 	 	 	 	 	 	 	 	 	 	1581477362	8.53	15.80
12/02/2020 03:16:03	120220	12022020	031603	191.72	13.542757	-56.957875	192.07	0.910	0.710	-0.540	191.86	-0.60	0.00	 	 	 	 	 	 	 	 	 	 	 	 	 	 	 	 	 	 	1581477363	8.44	15.63
12/02/2020 03:16:04	120220	12022020	031604	192.27	13.542715	-56.957877	192.57	1.460	-0.270	-1.060	192.34	-1.60	-0.50	 	 	 	 	 	 	 	 	 	 	 	 	 	 	 	 	 	 	1581477364	8.60	15.93
12/02/2020 03:16:05	120220	12022020	031605	192.38	13.542675	-56.957882	192.59	1.500	-1.300	-0.480	192.32	-2.60	-0.00	 	 	 	 	 	 	 	 	 	 	 	 	 	 	 	 	 	 	1581477365	8.77	16.24
12/02/2020 03:16:06	120220	12022020	031606	191.90	13.542637	-56.957895	192.06	1.150	-1.870	0.860	191.75	-3.20	1.30	 	 	 	 	 	 	 	 	 	 	 	 	 	 	 	 	 	 	1581477366	8.71	16.13
12/02/2020 03:16:07	120220	12022020	031607	191.10	13.542602	-56.957910	191.29	0.550	-1.690	2.310	190.97	-3.00	2.70	 	 	 	 	 	 	 	 	 	 	 	 	 	 	 	 	 	 	1581477367	8.58	15.89
12/02/2020 03:16:08	120220	12022020	031608	190.70	13.542568	-56.957925	190.99	-0.260	-0.730	3.170	190.67	-2.10	3.60	 	 	 	 	 	 	 	 	 	 	 	 	 	 	 	 	 	 	1581477368	8.37	15.50
12/02/2020 03:16:09	120220	12022020	031609	190.78	13.542535	-56.957940	191.12	-1.000	0.250	3.290	190.82	-1.10	3.80	 	 	 	 	 	 	 	 	 	 	 	 	 	 	 	 	 	 	1581477369	7.88	14.59
12/02/2020 03:16:10	120220	12022020	031610	190.90	13.542500	-56.957955	191.21	-1.250	0.440	2.880	190.89	-0.90	3.40	 	 	 	 	 	 	 	 	 	 	 	 	 	 	 	 	 	 	1581477370	7.65	14.17
12/02/2020 03:16:11	120220	12022020	031611	190.80	13.542458	-56.957965	191.07	-0.790	-0.090	2.210	190.78	-1.40	2.70	 	 	 	 	 	 	 	 	 	 	 	 	 	 	 	 	 	 	1581477371	8.31	15.39
12/02/2020 03:16:12	120220	12022020	031612	190.72	13.542417	-56.957973	191.00	-0.100	-0.430	1.500	190.72	-1.70	2.00	 	 	 	 	 	 	 	 	 	 	 	 	 	 	 	 	 	 	1581477372	9.20	17.04
12/02/2020 03:16:13	120220	12022020	031613	190.73	13.542377	-56.957978	191.00	0.290	-0.270	1.000	190.73	-1.60	1.50	 	 	 	 	 	 	 	 	 	 	 	 	 	 	 	 	 	 	1581477373	9.16	16.96
12/02/2020 03:16:14	120220	12022020	031614	190.74	13.542340	-56.957987	191.00	0.290	-0.010	0.900	190.73	-1.30	1.40	 	 	 	 	 	 	 	 	 	 	 	 	 	 	 	 	 	 	1581477374	8.48	15.70
12/02/2020 03:16:15	120220	12022020	031615	190.67	13.542303	-56.957997	190.92	0.210	0.090	1.240	190.65	-1.20	1.70	 	 	 	 	 	 	 	 	 	 	 	 	 	 	 	 	 	 	1581477375	8.18	15.15
12/02/2020 03:16:16	120220	12022020	031616	190.63	13.542265	-56.958008	190.92	0.330	0.180	1.560	190.64	-1.20	2.00	 	 	 	 	 	 	 	 	 	 	 	 	 	 	 	 	 	 	1581477376	8.36	15.48
12/02/2020 03:16:17	120220	12022020	031617	190.76	13.542228	-56.958017	191.06	0.580	0.320	1.560	190.80	-1.00	2.10	 	 	 	 	 	 	 	 	 	 	 	 	 	 	 	 	 	 	1581477377	8.42	15.59
12/02/2020 03:16:18	120220	12022020	031618	190.96	13.542190	-56.958023	191.26	0.690	0.280	1.370	191.00	-1.00	1.90	 	 	 	 	 	 	 	 	 	 	 	 	 	 	 	 	 	 	1581477378	8.20	15.19
12/02/2020 03:16:19	120220	12022020	031619	191.16	13.542153	-56.958030	191.45	0.450	-0.010	1.410	191.19	-1.30	1.90	 	 	 	 	 	 	 	 	 	 	 	 	 	 	 	 	 	 	1581477379	8.16	15.11
12/02/2020 03:16:20	120220	12022020	031620	191.23	13.542115	-56.958040	191.49	-0.080	-0.550	1.790	191.21	-1.80	2.30	 	 	 	 	 	 	 	 	 	 	 	 	 	 	 	 	 	 	1581477380	8.23	15.24
12/02/2020 03:16:21	120220	12022020	031621	190.98	13.542077	-56.958055	191.21	-0.490	-1.280	2.440	190.88	-2.60	2.90	 	 	 	 	 	 	 	 	 	 	 	 	 	 	 	 	 	 	1581477381	8.37	15.50
12/02/2020 03:16:22	120220	12022020	031622	190.24	13.542038	-56.958075	190.41	-0.410	-1.890	3.250	190.05	-3.20	3.70	 	 	 	 	 	 	 	 	 	 	 	 	 	 	 	 	 	 	1581477382	8.82	16.33
12/02/2020 03:16:23	120220	12022020	031623	189.22	13.541998	-56.958090	189.40	0.110	-1.840	3.590	189.04	-3.20	4.10	 	 	 	 	 	 	 	 	 	 	 	 	 	 	 	 	 	 	1581477383	9.28	17.19
12/02/2020 03:16:24	120220	12022020	031624	188.62	13.541960	-56.958097	188.90	0.410	-0.740	3.150	188.60	-2.10	3.70	 	 	 	 	 	 	 	 	 	 	 	 	 	 	 	 	 	 	1581477384	9.09	16.83
12/02/2020 03:16:25	120220	12022020	031625	188.82	13.541927	-56.958102	189.17	0.100	0.920	2.140	188.93	-0.50	2.70	 	 	 	 	 	 	 	 	 	 	 	 	 	 	 	 	 	 	1581477385	8.19	15.17
12/02/2020 03:16:26	120220	12022020	031626	189.52	13.541893	-56.958105	189.88	-0.480	1.810	1.080	189.67	0.50	1.60	 	 	 	 	 	 	 	 	 	 	 	 	 	 	 	 	 	 	1581477386	7.24	13.41
12/02/2020 03:16:27	120220	12022020	031627	190.23	13.541853	-56.958110	190.56	-0.580	1.280	0.440	190.35	0.00	1.00	 	 	 	 	 	 	 	 	 	 	 	 	 	 	 	 	 	 	1581477387	7.44	13.78
12/02/2020 03:16:28	120220	12022020	031628	190.74	13.541810	-56.958117	191.04	0.020	-0.030	0.210	190.83	-1.30	0.70	 	 	 	 	 	 	 	 	 	 	 	 	 	 	 	 	 	 	1581477388	8.62	15.96
12/02/2020 03:16:29	120220	12022020	031629	191.06	13.541767	-56.958125	191.32	0.690	-1.220	0.570	191.09	-2.50	1.10	 	 	 	 	 	 	 	 	 	 	 	 	 	 	 	 	 	 	1581477389	9.51	17.61
12/02/2020 03:16:30	120220	12022020	031630	190.95	13.541727	-56.958135	191.16	0.780	-1.780	1.550	190.86	-3.10	2.00	 	 	 	 	 	 	 	 	 	 	 	 	 	 	 	 	 	 	1581477390	9.45	17.50
12/02/2020 03:16:31	120220	12022020	031631	190.34	13.541688	-56.958148	190.54	0.300	-1.580	2.700	190.20	-2.90	3.10	 	 	 	 	 	 	 	 	 	 	 	 	 	 	 	 	 	 	1581477391	8.93	16.54
12/02/2020 03:16:32	120220	12022020	031632	189.78	13.541653	-56.958163	190.05	-0.400	-0.590	3.450	189.72	-2.00	3.90	 	 	 	 	 	 	 	 	 	 	 	 	 	 	 	 	 	 	1581477392	8.51	15.76
12/02/2020 03:16:33	120220	12022020	031633	189.71	13.541622	-56.958175	190.04	-0.920	0.730	3.510	189.74	-0.60	4.00	 	 	 	 	 	 	 	 	 	 	 	 	 	 	 	 	 	 	1581477393	8.00	14.82
12/02/2020 03:16:34	120220	12022020	031634	189.88	13.541588	-56.958187	190.20	-0.980	1.240	3.130	189.91	-0.10	3.60	 	 	 	 	 	 	 	 	 	 	 	 	 	 	 	 	 	 	1581477394	7.37	13.65
12/02/2020 03:16:35	120220	12022020	031635	189.86	13.541547	-56.958198	190.11	-0.480	0.500	2.730	189.82	-0.80	3.20	 	 	 	 	 	 	 	 	 	 	 	 	 	 	 	 	 	 	1581477395	7.78	14.41
12/02/2020 03:16:36	120220	12022020	031636	189.66	13.541503	-56.958208	189.91	0.270	-0.620	2.380	189.63	-1.90	2.90	 	 	 	 	 	 	 	 	 	 	 	 	 	 	 	 	 	 	1581477396	9.04	16.74
12/02/2020 03:16:37	120220	12022020	031637	189.61	13.541462	-56.958217	189.90	0.810	-0.890	1.880	189.64	-2.20	2.40	 	 	 	 	 	 	 	 	 	 	 	 	 	 	 	 	 	 	1581477397	9.68	17.93
12/02/2020 03:16:38	120220	12022020	031638	189.86	13.541427	-56.958220	190.16	0.900	-0.310	1.150	189.94	-1.70	1.70	 	 	 	 	 	 	 	 	 	 	 	 	 	 	 	 	 	 	1581477398	8.94	16.56
12/02/2020 03:16:39	120220	12022020	031639	190.30	13.541390	-56.958222	190.60	0.630	0.200	0.540	190.38	-1.10	1.10	 	 	 	 	 	 	 	 	 	 	 	 	 	 	 	 	 	 	1581477399	7.81	14.46
12/02/2020 03:16:40	120220	12022020	031640	190.72	13.541353	-56.958227	191.03	0.280	0.100	0.350	190.80	-1.20	0.90	 	 	 	 	 	 	 	 	 	 	 	 	 	 	 	 	 	 	1581477400	7.61	14.09
12/02/2020 03:16:41	120220	12022020	031641	191.05	13.541313	-56.958235	191.35	0.020	-0.410	0.530	191.10	-1.70	1.00	 	 	 	 	 	 	 	 	 	 	 	 	 	 	 	 	 	 	1581477401	8.15	15.09
12/02/2020 03:16:42	120220	12022020	031642	191.19	13.541273	-56.958245	191.44	-0.110	-0.930	1.140	191.17	-2.20	1.60	 	 	 	 	 	 	 	 	 	 	 	 	 	 	 	 	 	 	1581477402	8.67	16.06
12/02/2020 03:16:43	120220	12022020	031643	190.94	13.541235	-56.958258	191.15	-0.260	-1.260	2.130	190.84	-2.60	2.60	 	 	 	 	 	 	 	 	 	 	 	 	 	 	 	 	 	 	1581477403	8.81	16.32
12/02/2020 03:16:44	120220	12022020	031644	190.29	13.541197	-56.958275	190.47	-0.510	-1.260	3.320	190.12	-2.60	3.70	 	 	 	 	 	 	 	 	 	 	 	 	 	 	 	 	 	 	1581477404	8.86	16.41
12/02/2020 03:16:45	120220	12022020	031645	189.42	13.541158	-56.958292	189.60	-0.760	-0.870	4.240	189.25	-2.20	4.70	 	 	 	 	 	 	 	 	 	 	 	 	 	 	 	 	 	 	1581477405	8.93	16.54
12/02/2020 03:16:46	120220	12022020	031646	188.64	13.541122	-56.958308	188.88	-0.720	-0.180	4.520	188.53	-1.50	5.00	 	 	 	 	 	 	 	 	 	 	 	 	 	 	 	 	 	 	1581477406	8.92	16.52
12/02/2020 03:16:47	120220	12022020	031647	188.23	13.541083	-56.958318	188.52	-0.320	0.620	4.090	188.21	-0.80	4.60	 	 	 	 	 	 	 	 	 	 	 	 	 	 	 	 	 	 	1581477407	8.74	16.19
12/02/2020 03:16:48	120220	12022020	031648	188.44	13.541045	-56.958323	188.81	0.130	1.250	2.880	188.56	-0.10	3.50	 	 	 	 	 	 	 	 	 	 	 	 	 	 	 	 	 	 	1581477408	8.41	15.58
12/02/2020 03:16:49	120220	12022020	031649	189.14	13.541007	-56.958323	189.51	0.280	1.290	1.530	189.30	-0.00	2.10	 	 	 	 	 	 	 	 	 	 	 	 	 	 	 	 	 	 	1581477409	8.18	15.15
12/02/2020 03:16:50	120220	12022020	031650	189.89	13.540967	-56.958327	190.23	0.220	0.600	0.690	190.03	-0.70	1.20	 	 	 	 	 	 	 	 	 	 	 	 	 	 	 	 	 	 	1581477410	8.28	15.33
12/02/2020 03:16:51	120220	12022020	031651	190.48	13.540927	-56.958333	190.78	0.280	-0.500	0.410	190.55	-1.80	0.90	 	 	 	 	 	 	 	 	 	 	 	 	 	 	 	 	 	 	1581477411	8.57	15.87
12/02/2020 03:16:52	120220	12022020	031652	190.67	13.540885	-56.958342	190.90	0.630	-1.630	0.680	190.66	-2.90	1.20	 	 	 	 	 	 	 	 	 	 	 	 	 	 	 	 	 	 	1581477412	8.84	16.37
12/02/2020 03:16:53	120220	12022020	031653	190.45	13.540845	-56.958350	190.66	0.910	-2.250	1.440	190.38	-3.60	1.90	 	 	 	 	 	 	 	 	 	 	 	 	 	 	 	 	 	 	1581477413	9.01	16.69
12/02/2020 03:16:54	120220	12022020	031654	190.09	13.540807	-56.958362	190.31	0.680	-1.890	2.360	190.02	-3.30	2.80	 	 	 	 	 	 	 	 	 	 	 	 	 	 	 	 	 	 	1581477414	8.91	16.50
12/02/2020 03:16:55	120220	12022020	031655	189.71	13.540773	-56.958373	189.96	-0.090	-0.790	3.100	189.64	-2.20	3.60	 	 	 	 	 	 	 	 	 	 	 	 	 	 	 	 	 	 	1581477415	8.37	15.50
12/02/2020 03:16:56	120220	12022020	031656	189.39	13.540738	-56.958387	189.68	-0.980	0.390	3.530	189.35	-1.00	4.00	 	 	 	 	 	 	 	 	 	 	 	 	 	 	 	 	 	 	1581477416	7.88	14.59
12/02/2020 03:16:57	120220	12022020	031657	189.32	13.540702	-56.958402	189.63	-1.480	1.130	3.480	189.34	-0.20	4.00	 	 	 	 	 	 	 	 	 	 	 	 	 	 	 	 	 	 	1581477417	7.95	14.72
12/02/2020 03:16:58	120220	12022020	031658	189.57	13.540663	-56.958413	189.91	-1.280	1.230	2.800	189.65	-0.10	3.30	 	 	 	 	 	 	 	 	 	 	 	 	 	 	 	 	 	 	1581477418	8.34	15.45
12/02/2020 03:16:59	120220	12022020	031659	190.03	13.540622	-56.958422	190.35	-0.450	0.770	1.720	190.11	-0.50	2.30	 	 	 	 	 	 	 	 	 	 	 	 	 	 	 	 	 	 	1581477419	8.72	16.15
12/02/2020 03:17:00	120220	12022020	031700	190.41	13.540580	-56.958425	190.70	0.580	0.040	0.690	190.47	-1.20	1.20	 	 	 	 	 	 	 	 	 	 	 	 	 	 	 	 	 	 	1581477420	9.00	16.67
12/02/2020 03:17:01	120220	12022020	031701	190.76	13.540538	-56.958428	191.07	1.160	-0.420	-0.000	190.84	-1.70	0.50	1017.00	26.20	26.20	20.30	20.40	-1.0	70.0	70.0	388.0	25.7	260.00	11.10	70.00	12.60	16	9614.0	27.2	27.2	1581477421	9.18	17.00
12/02/2020 03:17:02	120220	12022020	031702	191.18	13.540502	-56.958432	191.51	0.960	-0.460	-0.000	191.26	-1.80	0.50	 	 	 	 	 	 	 	 	 	 	 	 	 	 	 	 	 	 	1581477422	8.86	16.41
12/02/2020 03:17:03	120220	12022020	031703	191.49	13.540467	-56.958442	191.80	0.280	-0.480	0.680	191.51	-1.80	1.10	 	 	 	 	 	 	 	 	 	 	 	 	 	 	 	 	 	 	1581477423	8.05	14.91
12/02/2020 03:17:04	120220	12022020	031704	191.42	13.540432	-56.958455	191.68	-0.230	-0.850	1.730	191.35	-2.10	2.20	 	 	 	 	 	 	 	 	 	 	 	 	 	 	 	 	 	 	1581477424	7.72	14.30
12/02/2020 03:17:05	120220	12022020	031705	190.90	13.540392	-56.958472	191.12	-0.240	-1.470	2.870	190.75	-2.80	3.30	 	 	 	 	 	 	 	 	 	 	 	 	 	 	 	 	 	 	1581477425	8.26	15.30
12/02/2020 03:17:06	120220	12022020	031706	190.09	13.540352	-56.958488	190.31	-0.020	-1.750	3.850	189.92	-3.10	4.30	 	 	 	 	 	 	 	 	 	 	 	 	 	 	 	 	 	 	1581477426	9.00	16.67
12/02/2020 03:17:07	120220	12022020	031707	189.32	13.540313	-56.958502	189.57	0.010	-1.260	4.280	189.20	-2.60	4.80	 	 	 	 	 	 	 	 	 	 	 	 	 	 	 	 	 	 	1581477427	9.26	17.15
12/02/2020 03:17:08	120220	12022020	031708	188.85	13.540277	-56.958513	189.14	-0.220	-0.130	4.070	188.81	-1.50	4.60	 	 	 	 	 	 	 	 	 	 	 	 	 	 	 	 	 	 	1581477428	8.87	16.43
12/02/2020 03:17:09	120220	12022020	031709	188.93	13.540240	-56.958520	189.31	-0.480	1.090	3.100	189.04	-0.30	3.70	 	 	 	 	 	 	 	 	 	 	 	 	 	 	 	 	 	 	1581477429	8.27	15.32
12/02/2020 03:17:10	120220	12022020	031710	189.68	13.540203	-56.958523	190.10	-0.570	1.860	1.640	189.88	0.50	2.20	 	 	 	 	 	 	 	 	 	 	 	 	 	 	 	 	 	 	1581477430	7.95	14.72
12/02/2020 03:17:11	120220	12022020	031711	190.61	13.540165	-56.958527	190.97	-0.430	1.570	0.590	190.75	0.30	1.10	 	 	 	 	 	 	 	 	 	 	 	 	 	 	 	 	 	 	1581477431	7.92	14.67
12/02/2020 03:17:12	120220	12022020	031712	191.14	13.540122	-56.958533	191.43	-0.080	0.250	0.410	191.17	-1.00	0.90	 	 	 	 	 	 	 	 	 	 	 	 	 	 	 	 	 	 	1581477432	8.44	15.63
12/02/2020 03:17:13	120220	12022020	031713	191.10	13.540080	-56.958545	191.32	0.340	-1.140	0.910	191.04	-2.40	1.40	 	 	 	 	 	 	 	 	 	 	 	 	 	 	 	 	 	 	1581477433	9.20	17.04
12/02/2020 03:17:14	120220	12022020	031714	190.72	13.540042	-56.958558	190.97	0.620	-1.700	1.790	190.64	-3.00	2.20	 	 	 	 	 	 	 	 	 	 	 	 	 	 	 	 	 	 	1581477434	9.42	17.45
12/02/2020 03:17:15	120220	12022020	031715	190.35	13.540007	-56.958570	190.61	0.650	-1.330	2.430	190.28	-2.70	2.90	 	 	 	 	 	 	 	 	 	 	 	 	 	 	 	 	 	 	1581477435	8.78	16.26
12/02/2020 03:17:16	120220	12022020	031716	190.08	13.539972	-56.958580	190.36	0.490	-0.560	2.480	190.05	-1.90	3.00	 	 	 	 	 	 	 	 	 	 	 	 	 	 	 	 	 	 	1581477436	7.93	14.69
12/02/2020 03:17:17	120220	12022020	031717	190.00	13.539937	-56.958585	190.31	0.220	0.070	2.120	190.01	-1.30	2.60	 	 	 	 	 	 	 	 	 	 	 	 	 	 	 	 	 	 	1581477437	7.53	13.95
12/02/2020 03:17:18	120220	12022020	031718	190.04	13.539900	-56.958590	190.34	-0.030	0.250	1.680	190.05	-1.10	2.20	 	 	 	 	 	 	 	 	 	 	 	 	 	 	 	 	 	 	1581477438	7.69	14.24
12/02/2020 03:17:19	120220	12022020	031719	190.06	13.539858	-56.958598	190.35	-0.190	-0.160	1.460	190.05	-1.50	2.00	 	 	 	 	 	 	 	 	 	 	 	 	 	 	 	 	 	 	1581477439	8.16	15.11
12/02/2020 03:17:20	120220	12022020	031720	189.92	13.539817	-56.958610	190.18	-0.290	-0.940	1.760	189.87	-2.20	2.20	 	 	 	 	 	 	 	 	 	 	 	 	 	 	 	 	 	 	1581477440	8.83	16.35
12/02/2020 03:17:21	120220	12022020	031721	189.62	13.539775	-56.958625	189.87	-0.340	-1.320	2.440	189.56	-2.60	2.90	 	 	 	 	 	 	 	 	 	 	 	 	 	 	 	 	 	 	1581477441	9.48	17.56
12/02/2020 03:17:22	120220	12022020	031722	189.48	13.539737	-56.958638	189.81	-0.380	-0.680	2.660	189.52	-2.00	3.20	 	 	 	 	 	 	 	 	 	 	 	 	 	 	 	 	 	 	1581477442	9.57	17.72
12/02/2020 03:17:23	120220	12022020	031723	189.84	13.539703	-56.958647	190.22	-0.470	0.580	2.130	189.95	-0.80	2.70	 	 	 	 	 	 	 	 	 	 	 	 	 	 	 	 	 	 	1581477443	8.62	15.96
12/02/2020 03:17:24	120220	12022020	031724	190.45	13.539668	-56.958652	190.82	-0.540	1.270	1.410	190.56	-0.10	1.90	 	 	 	 	 	 	 	 	 	 	 	 	 	 	 	 	 	 	1581477444	7.54	13.96
12/02/2020 03:17:25	120220	12022020	031725	190.90	13.539628	-56.958660	191.22	-0.450	0.790	1.160	190.94	-0.50	1.70	 	 	 	 	 	 	 	 	 	 	 	 	 	 	 	 	 	 	1581477445	7.59	14.06
12/02/2020 03:17:26	120220	12022020	031726	190.87	13.539587	-56.958670	191.10	-0.090	-0.300	1.380	190.79	-1.60	1.90	 	 	 	 	 	 	 	 	 	 	 	 	 	 	 	 	 	 	1581477446	8.57	15.87
12/02/2020 03:17:27	120220	12022020	031727	190.34	13.539545	-56.958682	190.52	0.490	-1.000	1.810	190.20	-2.30	2.30	 	 	 	 	 	 	 	 	 	 	 	 	 	 	 	 	 	 	1581477447	9.32	17.26
12/02/2020 03:17:28	120220	12022020	031728	189.75	13.539507	-56.958688	189.97	0.990	-0.870	1.960	189.67	-2.20	2.50	 	 	 	 	 	 	 	 	 	 	 	 	 	 	 	 	 	 	1581477448	9.18	17.00
12/02/2020 03:17:29	120220	12022020	031729	189.59	13.539470	-56.958693	189.88	1.020	-0.240	1.770	189.61	-1.60	2.30	 	 	 	 	 	 	 	 	 	 	 	 	 	 	 	 	 	 	1581477449	8.45	15.65
12/02/2020 03:17:30	120220	12022020	031730	189.83	13.539435	-56.958698	190.15	0.520	0.160	1.640	189.89	-1.20	2.10	 	 	 	 	 	 	 	 	 	 	 	 	 	 	 	 	 	 	1581477450	7.84	14.52
12/02/2020 03:17:31	120220	12022020	031731	190.11	13.539397	-56.958708	190.43	-0.150	0.040	1.780	190.16	-1.30	2.30	 	 	 	 	 	 	 	 	 	 	 	 	 	 	 	 	 	 	1581477451	7.82	14.48
12/02/2020 03:17:32	120220	12022020	031732	190.30	13.539358	-56.958722	190.60	-0.650	-0.350	2.170	190.31	-1.60	2.60	 	 	 	 	 	 	 	 	 	 	 	 	 	 	 	 	 	 	1581477452	8.32	15.41
12/02/2020 03:17:33	120220	12022020	031733	190.28	13.539320	-56.958737	190.56	-0.810	-0.700	2.600	190.25	-2.00	3.10	 	 	 	 	 	 	 	 	 	 	 	 	 	 	 	 	 	 	1581477453	8.74	16.19
12/02/2020 03:17:34	120220	12022020	031734	190.08	13.539282	-56.958752	190.24	-0.590	-0.930	2.730	190.02	-2.20	3.20	 	 	 	 	 	 	 	 	 	 	 	 	 	 	 	 	 	 	1581477454	8.81	16.32
12/02/2020 03:17:35	120220	12022020	031735	189.75	13.539243	-56.958760	190.01	-0.140	-0.830	2.280	189.74	-2.20	2.80	 	 	 	 	 	 	 	 	 	 	 	 	 	 	 	 	 	 	1581477455	8.84	16.37
12/02/2020 03:17:36	120220	12022020	031736	189.81	13.539205	-56.958765	190.09	0.270	-0.330	1.410	189.84	-1.70	1.90	 	 	 	 	 	 	 	 	 	 	 	 	 	 	 	 	 	 	1581477456	8.67	16.06
12/02/2020 03:17:37	120220	12022020	031737	190.01	13.539167	-56.958768	190.28	0.460	0.190	0.700	190.04	-1.10	1.20	 	 	 	 	 	 	 	 	 	 	 	 	 	 	 	 	 	 	1581477457	8.26	15.30
12/02/2020 03:17:38	120220	12022020	031738	190.11	13.539128	-56.958772	190.36	0.420	0.370	0.500	190.12	-0.90	1.00	 	 	 	 	 	 	 	 	 	 	 	 	 	 	 	 	 	 	1581477458	8.13	15.06
12/02/2020 03:17:39	120220	12022020	031739	190.08	13.539088	-56.958778	190.31	0.260	0.130	0.730	190.06	-1.20	1.20	 	 	 	 	 	 	 	 	 	 	 	 	 	 	 	 	 	 	1581477459	8.38	15.52
12/02/2020 03:17:40	120220	12022020	031740	189.99	13.539047	-56.958788	190.24	0.030	-0.320	1.340	189.98	-1.60	1.80	 	 	 	 	 	 	 	 	 	 	 	 	 	 	 	 	 	 	1581477460	8.76	16.22
12/02/2020 03:17:41	120220	12022020	031741	189.92	13.539007	-56.958802	190.19	-0.220	-0.620	2.180	189.91	-1.90	2.60	 	 	 	 	 	 	 	 	 	 	 	 	 	 	 	 	 	 	1581477461	9.02	16.71
12/02/2020 03:17:42	120220	12022020	031742	189.79	13.538970	-56.958817	190.06	-0.430	-0.580	2.770	189.75	-1.90	3.20	 	 	 	 	 	 	 	 	 	 	 	 	 	 	 	 	 	 	1581477462	8.99	16.65
12/02/2020 03:17:43	120220	12022020	031743	189.64	13.538933	-56.958830	189.92	-0.500	-0.340	2.960	189.63	-1.70	3.40	 	 	 	 	 	 	 	 	 	 	 	 	 	 	 	 	 	 	1581477463	8.67	16.06
12/02/2020 03:17:44	120220	12022020	031744	189.60	13.538895	-56.958840	189.89	-0.430	-0.070	2.850	189.60	-1.40	3.30	 	 	 	 	 	 	 	 	 	 	 	 	 	 	 	 	 	 	1581477464	8.42	15.59
12/02/2020 03:17:45	120220	12022020	031745	189.65	13.538858	-56.958848	189.96	-0.280	0.160	2.390	189.68	-1.20	2.90	 	 	 	 	 	 	 	 	 	 	 	 	 	 	 	 	 	 	1581477465	8.32	15.41
12/02/2020 03:17:46	120220	12022020	031746	189.83	13.538820	-56.958855	190.21	-0.070	0.250	1.530	189.88	-1.10	2.10	 	 	 	 	 	 	 	 	 	 	 	 	 	 	 	 	 	 	1581477466	8.33	15.43
12/02/2020 03:17:47	120220	12022020	031747	190.25	13.538780	-56.958858	190.57	0.270	0.070	0.600	190.32	-1.20	1.10	 	 	 	 	 	 	 	 	 	 	 	 	 	 	 	 	 	 	1581477467	8.32	15.41
12/02/2020 03:17:48	120220	12022020	031748	190.49	13.538740	-56.958862	190.79	0.670	-0.410	0.040	190.53	-1.70	0.60	 	 	 	 	 	 	 	 	 	 	 	 	 	 	 	 	 	 	1581477468	8.51	15.76
12/02/2020 03:17:49	120220	12022020	031749	190.49	13.538698	-56.958868	190.72	0.880	-1.000	0.220	190.45	-2.30	0.70	 	 	 	 	 	 	 	 	 	 	 	 	 	 	 	 	 	 	1581477469	8.79	16.28
12/02/2020 03:17:50	120220	12022020	031750	190.17	13.538657	-56.958877	190.37	0.660	-1.200	1.030	190.10	-2.50	1.50	 	 	 	 	 	 	 	 	 	 	 	 	 	 	 	 	 	 	1581477470	9.01	16.69
12/02/2020 03:17:51	120220	12022020	031751	189.82	13.538620	-56.958888	190.06	0.030	-0.740	2.010	189.77	-2.10	2.50	 	 	 	 	 	 	 	 	 	 	 	 	 	 	 	 	 	 	1581477471	8.87	16.43
12/02/2020 03:17:52	120220	12022020	031752	189.76	13.538585	-56.958903	190.07	-0.680	0.100	2.630	189.79	-1.30	3.10	 	 	 	 	 	 	 	 	 	 	 	 	 	 	 	 	 	 	1581477472	8.43	15.61
12/02/2020 03:17:53	120220	12022020	031753	189.98	13.538550	-56.958918	190.32	-1.020	0.610	2.790	190.05	-0.70	3.30	 	 	 	 	 	 	 	 	 	 	 	 	 	 	 	 	 	 	1581477473	8.08	14.96
12/02/2020 03:17:54	120220	12022020	031754	190.37	13.538512	-56.958930	190.73	-0.720	0.530	2.410	190.47	-0.80	2.90	 	 	 	 	 	 	 	 	 	 	 	 	 	 	 	 	 	 	1581477474	8.25	15.28
12/02/2020 03:17:55	120220	12022020	031755	190.86	13.538470	-56.958938	191.21	-0.000	0.130	1.570	190.94	-1.20	2.10	 	 	 	 	 	 	 	 	 	 	 	 	 	 	 	 	 	 	1581477475	8.70	16.11
12/02/2020 03:17:56	120220	12022020	031756	191.16	13.538428	-56.958942	191.45	0.550	-0.400	0.830	191.17	-1.70	1.40	 	 	 	 	 	 	 	 	 	 	 	 	 	 	 	 	 	 	1581477476	8.91	16.50
12/02/2020 03:17:57	120220	12022020	031757	191.09	13.538387	-56.958947	191.31	0.580	-0.830	0.650	191.04	-2.10	1.20	 	 	 	 	 	 	 	 	 	 	 	 	 	 	 	 	 	 	1581477477	9.02	16.71
12/02/2020 03:17:58	120220	12022020	031758	190.77	13.538348	-56.958955	190.96	0.210	-0.910	0.970	190.69	-2.20	1.40	 	 	 	 	 	 	 	 	 	 	 	 	 	 	 	 	 	 	1581477478	8.92	16.52
12/02/2020 03:17:59	120220	12022020	031759	190.37	13.538310	-56.958965	190.55	-0.150	-0.690	1.400	190.28	-2.00	1.90	 	 	 	 	 	 	 	 	 	 	 	 	 	 	 	 	 	 	1581477479	8.63	15.98
12/02/2020 03:18:00	120220	12022020	031800	190.00	13.538272	-56.958977	190.22	-0.270	-0.290	1.770	189.95	-1.60	2.20	 	 	 	 	 	 	 	 	 	 	 	 	 	 	 	 	 	 	1581477480	8.47	15.69
12/02/2020 03:18:01	120220	12022020	031801	189.82	13.538233	-56.958987	190.06	-0.170	0.060	1.880	189.81	-1.30	2.40	1017.00	26.10	26.20	20.40	20.40	-1.0	70.0	70.0	388.0	25.7	259.00	11.10	70.00	12.70	16	9530.0	27.3	27.2	1581477481	8.46	15.67
12/02/2020 03:18:02	120220	12022020	031802	189.88	13.538195	-56.958997	190.16	-0.040	0.270	1.730	189.92	-1.00	2.20	 	 	 	 	 	 	 	 	 	 	 	 	 	 	 	 	 	 	1581477482	8.52	15.78
12/02/2020 03:18:03	120220	12022020	031803	190.16	13.538157	-56.959005	190.46	0.030	0.260	1.540	190.23	-1.00	2.00	 	 	 	 	 	 	 	 	 	 	 	 	 	 	 	 	 	 	1581477483	8.57	15.87
12/02/2020 03:18:04	120220	12022020	031804	190.52	13.538117	-56.959015	190.82	0.030	0.010	1.410	190.58	-1.30	1.90	 	 	 	 	 	 	 	 	 	 	 	 	 	 	 	 	 	 	1581477484	8.61	15.95
12/02/2020 03:18:05	120220	12022020	031805	190.80	13.538077	-56.959023	191.11	-0.010	-0.300	1.420	190.85	-1.60	1.90	 	 	 	 	 	 	 	 	 	 	 	 	 	 	 	 	 	 	1581477485	8.70	16.11
12/02/2020 03:18:06	120220	12022020	031806	190.98	13.538038	-56.959033	191.27	-0.020	-0.540	1.450	191.00	-1.90	1.90	 	 	 	 	 	 	 	 	 	 	 	 	 	 	 	 	 	 	1581477486	8.73	16.17
12/02/2020 03:18:07	120220	12022020	031807	191.02	13.537998	-56.959042	191.29	0.030	-0.690	1.390	191.01	-2.00	1.90	 	 	 	 	 	 	 	 	 	 	 	 	 	 	 	 	 	 	1581477487	8.67	16.06
12/02/2020 03:18:08	120220	12022020	031808	190.93	13.537958	-56.959052	191.18	0.100	-0.750	1.390	190.91	-2.10	1.90	 	 	 	 	 	 	 	 	 	 	 	 	 	 	 	 	 	 	1581477488	8.66	16.04
12/02/2020 03:18:09	120220	12022020	031809	190.79	13.537920	-56.959060	191.03	0.100	-0.590	1.410	190.76	-1.90	1.90	 	 	 	 	 	 	 	 	 	 	 	 	 	 	 	 	 	 	1581477489	8.72	16.15
12/02/2020 03:18:10	120220	12022020	031810	190.70	13.537880	-56.959067	190.98	0.010	-0.240	1.380	190.70	-1.60	1.90	 	 	 	 	 	 	 	 	 	 	 	 	 	 	 	 	 	 	1581477490	8.66	16.04
12/02/2020 03:18:11	120220	12022020	031811	190.79	13.537842	-56.959075	191.09	-0.110	0.090	1.340	190.82	-1.20	1.80	 	 	 	 	 	 	 	 	 	 	 	 	 	 	 	 	 	 	1581477491	8.53	15.80
12/02/2020 03:18:12	120220	12022020	031812	190.93	13.537803	-56.959085	191.22	-0.150	0.230	1.430	190.94	-1.10	1.90	 	 	 	 	 	 	 	 	 	 	 	 	 	 	 	 	 	 	1581477492	8.48	15.70
12/02/2020 03:18:13	120220	12022020	031813	190.93	13.537763	-56.959095	191.18	-0.040	0.120	1.740	190.91	-1.20	2.20	 	 	 	 	 	 	 	 	 	 	 	 	 	 	 	 	 	 	1581477493	8.58	15.89
12/02/2020 03:18:14	120220	12022020	031814	190.74	13.537723	-56.959107	190.99	0.160	-0.100	2.060	190.70	-1.40	2.50	 	 	 	 	 	 	 	 	 	 	 	 	 	 	 	 	 	 	1581477494	8.80	16.30
12/02/2020 03:18:15	120220	12022020	031815	190.58	13.537683	-56.959117	190.82	0.310	-0.230	2.130	190.56	-1.60	2.60	 	 	 	 	 	 	 	 	 	 	 	 	 	 	 	 	 	 	1581477495	8.94	16.56
12/02/2020 03:18:16	120220	12022020	031816	190.58	13.537645	-56.959125	190.87	0.320	-0.240	1.930	190.59	-1.60	2.40	 	 	 	 	 	 	 	 	 	 	 	 	 	 	 	 	 	 	1581477496	8.82	16.33
12/02/2020 03:18:17	120220	12022020	031817	190.73	13.537605	-56.959133	191.05	0.210	-0.220	1.500	190.78	-1.60	2.00	 	 	 	 	 	 	 	 	 	 	 	 	 	 	 	 	 	 	1581477497	8.60	15.93
12/02/2020 03:18:18	120220	12022020	031818	191.16	13.537567	-56.959140	191.54	-0.000	-0.250	0.820	191.28	-1.60	1.30	 	 	 	 	 	 	 	 	 	 	 	 	 	 	 	 	 	 	1581477498	8.52	15.78
12/02/2020 03:18:19	120220	12022020	031819	191.71	13.537528	-56.959148	192.04	-0.280	-0.420	0.510	191.80	-1.70	1.00	 	 	 	 	 	 	 	 	 	 	 	 	 	 	 	 	 	 	1581477499	8.49	15.72
12/02/2020 03:18:20	120220	12022020	031820	191.93	13.537488	-56.959160	192.18	-0.470	-0.860	0.760	191.90	-2.20	1.20	 	 	 	 	 	 	 	 	 	 	 	 	 	 	 	 	 	 	1581477500	8.54	15.82
12/02/2020 03:18:21	120220	12022020	031821	191.65	13.537447	-56.959172	191.85	-0.410	-1.360	1.280	191.56	-2.70	1.70	 	 	 	 	 	 	 	 	 	 	 	 	 	 	 	 	 	 	1581477501	8.88	16.45
12/02/2020 03:18:22	120220	12022020	031822	191.24	13.537405	-56.959185	191.46	-0.140	-1.260	1.730	191.18	-2.60	2.20	 	 	 	 	 	 	 	 	 	 	 	 	 	 	 	 	 	 	1581477502	9.36	17.33
12/02/2020 03:18:23	120220	12022020	031823	191.10	13.537367	-56.959193	191.38	0.160	-0.400	1.830	191.11	-1.80	2.30	 	 	 	 	 	 	 	 	 	 	 	 	 	 	 	 	 	 	1581477503	9.22	17.08
12/02/2020 03:18:24	120220	12022020	031824	191.17	13.537328	-56.959200	191.49	0.250	0.560	1.670	191.20	-0.80	2.20	 	 	 	 	 	 	 	 	 	 	 	 	 	 	 	 	 	 	1581477504	8.52	15.78
12/02/2020 03:18:25	120220	12022020	031825	191.41	13.537290	-56.959207	191.71	0.030	1.050	1.420	191.47	-0.30	1.90	 	 	 	 	 	 	 	 	 	 	 	 	 	 	 	 	 	 	1581477505	8.24	15.26
12/02/2020 03:18:26	120220	12022020	031826	191.75	13.537250	-56.959217	192.05	-0.300	1.020	1.290	191.82	-0.30	1.80	 	 	 	 	 	 	 	 	 	 	 	 	 	 	 	 	 	 	1581477506	8.52	15.78
12/02/2020 03:18:27	120220	12022020	031827	191.95	13.537210	-56.959228	192.19	-0.360	0.540	1.460	191.94	-0.80	1.90	 	 	 	 	 	 	 	 	 	 	 	 	 	 	 	 	 	 	1581477507	8.71	16.13
12/02/2020 03:18:28	120220	12022020	031828	191.65	13.537168	-56.959240	191.83	0.060	-0.420	1.810	191.54	-1.70	2.30	 	 	 	 	 	 	 	 	 	 	 	 	 	 	 	 	 	 	1581477508	8.87	16.43
12/02/2020 03:18:29	120220	12022020	031829	191.08	13.537127	-56.959252	191.27	0.520	-1.200	2.040	190.98	-2.50	2.50	 	 	 	 	 	 	 	 	 	 	 	 	 	 	 	 	 	 	1581477509	9.36	17.33
12/02/2020 03:18:30	120220	12022020	031830	190.78	13.537087	-56.959262	191.04	0.530	-1.080	2.170	190.78	-2.40	2.60	 	 	 	 	 	 	 	 	 	 	 	 	 	 	 	 	 	 	1581477510	9.50	17.59
12/02/2020 03:18:31	120220	12022020	031831	191.02	13.537053	-56.959272	191.34	0.150	-0.240	1.900	191.11	-1.60	2.40	 	 	 	 	 	 	 	 	 	 	 	 	 	 	 	 	 	 	1581477511	8.66	16.04
12/02/2020 03:18:32	120220	12022020	031832	191.51	13.537018	-56.959282	191.82	-0.240	0.260	1.340	191.61	-1.10	1.90	 	 	 	 	 	 	 	 	 	 	 	 	 	 	 	 	 	 	1581477512	7.69	14.24
12/02/2020 03:18:33	120220	12022020	031833	191.89	13.536978	-56.959292	192.16	-0.260	-0.180	1.020	191.95	-1.50	1.50	 	 	 	 	 	 	 	 	 	 	 	 	 	 	 	 	 	 	1581477513	7.72	14.30
12/02/2020 03:18:34	120220	12022020	031834	192.17	13.536937	-56.959303	192.44	0.020	-0.970	0.960	192.23	-2.30	1.40	 	 	 	 	 	 	 	 	 	 	 	 	 	 	 	 	 	 	1581477514	8.78	16.26
12/02/2020 03:18:35	120220	12022020	031835	192.34	13.536895	-56.959315	192.59	0.240	-1.210	1.110	192.34	-2.50	1.60	 	 	 	 	 	 	 	 	 	 	 	 	 	 	 	 	 	 	1581477515	9.49	17.58
12/02/2020 03:18:36	120220	12022020	031836	192.27	13.536857	-56.959325	192.42	0.260	-0.870	1.410	192.22	-2.20	1.90	 	 	 	 	 	 	 	 	 	 	 	 	 	 	 	 	 	 	1581477516	9.13	16.91
12/02/2020 03:18:37	120220	12022020	031837	191.83	13.536817	-56.959333	191.99	0.200	-0.440	1.720	191.73	-1.80	2.20	 	 	 	 	 	 	 	 	 	 	 	 	 	 	 	 	 	 	1581477517	8.65	16.02
12/02/2020 03:18:38	120220	12022020	031838	191.45	13.536775	-56.959342	191.67	0.060	0.020	1.810	191.42	-1.40	2.30	 	 	 	 	 	 	 	 	 	 	 	 	 	 	 	 	 	 	1581477518	8.72	16.15
12/02/2020 03:18:39	120220	12022020	031839	191.46	13.536735	-56.959348	191.74	-0.260	0.540	1.570	191.50	-0.80	2.10	 	 	 	 	 	 	 	 	 	 	 	 	 	 	 	 	 	 	1581477519	8.93	16.54
12/02/2020 03:18:40	120220	12022020	031840	191.80	13.536697	-56.959358	192.10	-0.670	0.830	1.370	191.87	-0.50	1.90	 	 	 	 	 	 	 	 	 	 	 	 	 	 	 	 	 	 	1581477520	8.74	16.19
12/02/2020 03:18:41	120220	12022020	031841	192.07	13.536657	-56.959372	192.34	-0.910	0.530	1.680	192.09	-0.80	2.10	 	 	 	 	 	 	 	 	 	 	 	 	 	 	 	 	 	 	1581477521	8.63	15.98
12/02/2020 03:18:42	120220	12022020	031842	192.05	13.536617	-56.959390	192.31	-0.720	-0.220	2.250	192.03	-1.50	2.70	 	 	 	 	 	 	 	 	 	 	 	 	 	 	 	 	 	 	1581477522	9.02	16.71
12/02/2020 03:18:43	120220	12022020	031843	191.92	13.536575	-56.959408	192.16	-0.170	-0.790	2.540	191.88	-2.10	3.00	 	 	 	 	 	 	 	 	 	 	 	 	 	 	 	 	 	 	1581477523	9.57	17.72
12/02/2020 03:18:44	120220	12022020	031844	191.66	13.536537	-56.959422	191.89	0.450	-0.790	2.510	191.59	-2.10	3.00	 	 	 	 	 	 	 	 	 	 	 	 	 	 	 	 	 	 	1581477524	9.44	17.48
12/02/2020 03:18:45	120220	12022020	031845	191.28	13.536500	-56.959430	191.49	0.850	-0.410	2.150	191.21	-1.80	2.70	 	 	 	 	 	 	 	 	 	 	 	 	 	 	 	 	 	 	1581477525	8.74	16.19
12/02/2020 03:18:46	120220	12022020	031846	191.04	13.536462	-56.959435	191.31	0.940	0.050	1.330	191.04	-1.30	1.90	 	 	 	 	 	 	 	 	 	 	 	 	 	 	 	 	 	 	1581477526	8.24	15.26
12/02/2020 03:18:47	120220	12022020	031847	191.20	13.536423	-56.959437	191.52	0.690	0.330	0.410	191.28	-1.00	0.90	 	 	 	 	 	 	 	 	 	 	 	 	 	 	 	 	 	 	1581477527	8.16	15.11
12/02/2020 03:18:48	120220	12022020	031848	191.69	13.536385	-56.959442	192.02	0.260	0.070	-0.170	191.80	-1.20	0.40	 	 	 	 	 	 	 	 	 	 	 	 	 	 	 	 	 	 	1581477528	8.23	15.24
12/02/2020 03:18:49	120220	12022020	031849	192.10	13.536343	-56.959452	192.35	-0.110	-0.770	0.010	192.12	-2.00	0.50	 	 	 	 	 	 	 	 	 	 	 	 	 	 	 	 	 	 	1581477529	8.59	15.91
12/02/2020 03:18:50	120220	12022020	031850	192.02	13.536300	-56.959468	192.23	-0.230	-1.660	1.090	191.95	-2.90	1.50	 	 	 	 	 	 	 	 	 	 	 	 	 	 	 	 	 	 	1581477530	9.24	17.11
12/02/2020 03:18:51	120220	12022020	031851	191.55	13.536258	-56.959487	191.75	-0.160	-1.930	2.420	191.45	-3.30	2.80	 	 	 	 	 	 	 	 	 	 	 	 	 	 	 	 	 	 	1581477531	9.78	18.11
12/02/2020 03:18:52	120220	12022020	031852	190.98	13.536220	-56.959502	191.19	-0.190	-1.320	3.280	190.88	-2.70	3.70	 	 	 	 	 	 	 	 	 	 	 	 	 	 	 	 	 	 	1581477532	9.68	17.93
12/02/2020 03:18:53	120220	12022020	031853	190.56	13.536182	-56.959515	190.82	-0.430	-0.200	3.500	190.52	-1.60	4.00	 	 	 	 	 	 	 	 	 	 	 	 	 	 	 	 	 	 	1581477533	9.05	16.76
12/02/2020 03:18:54	120220	12022020	031854	190.45	13.536145	-56.959525	190.77	-0.760	0.840	3.200	190.47	-0.50	3.70	 	 	 	 	 	 	 	 	 	 	 	 	 	 	 	 	 	 	1581477534	8.50	15.74
12/02/2020 03:18:55	120220	12022020	031855	190.64	13.536105	-56.959535	191.00	-0.920	1.410	2.610	190.71	0.10	3.10	 	 	 	 	 	 	 	 	 	 	 	 	 	 	 	 	 	 	1581477535	8.39	15.54
12/02/2020 03:18:56	120220	12022020	031856	191.09	13.536067	-56.959545	191.47	-0.710	1.450	1.730	191.20	0.10	2.30	 	 	 	 	 	 	 	 	 	 	 	 	 	 	 	 	 	 	1581477536	8.56	15.85
12/02/2020 03:18:57	120220	12022020	031857	191.58	13.536027	-56.959553	191.91	-0.140	0.970	0.950	191.65	-0.30	1.50	 	 	 	 	 	 	 	 	 	 	 	 	 	 	 	 	 	 	1581477537	8.74	16.19
12/02/2020 03:18:58	120220	12022020	031858	191.72	13.535985	-56.959560	191.97	0.690	-0.010	0.610	191.71	-1.30	1.10	 	 	 	 	 	 	 	 	 	 	 	 	 	 	 	 	 	 	1581477538	8.82	16.33
12/02/2020 03:18:59	120220	12022020	031859	191.61	13.535942	-56.959567	191.83	1.410	-0.900	0.470	191.58	-2.20	1.00	 	 	 	 	 	 	 	 	 	 	 	 	 	 	 	 	 	 	1581477539	9.15	16.95
12/02/2020 03:19:00	120220	12022020	031900	191.47	13.535902	-56.959572	191.71	1.630	-1.260	0.540	191.44	-2.60	1.00	 	 	 	 	 	 	 	 	 	 	 	 	 	 	 	 	 	 	1581477540	9.20	17.04
12/02/2020 03:19:01	120220	12022020	031901	191.43	13.535863	-56.959578	191.69	1.190	-1.260	0.970	191.44	-2.60	1.40	1017.10	26.20	26.20	20.70	20.70	-1.0	72.0	71.0	389.0	25.7	262.00	9.50	69.00	11.00	16	9042.0	27.2	27.2	1581477541	8.76	16.22
12/02/2020 03:19:02	120220	12022020	031902	191.43	13.535825	-56.959592	191.68	0.280	-1.150	1.900	191.42	-2.50	2.30	 	 	 	 	 	 	 	 	 	 	 	 	 	 	 	 	 	 	1581477542	8.45	15.65
12/02/2020 03:19:03	120220	12022020	031903	191.27	13.535787	-56.959608	191.52	-0.720	-1.060	3.080	191.21	-2.40	3.50	 	 	 	 	 	 	 	 	 	 	 	 	 	 	 	 	 	 	1581477543	8.49	15.72
12/02/2020 03:19:04	120220	12022020	031904	190.82	13.535748	-56.959630	191.04	-1.430	-1.030	4.160	190.71	-2.30	4.60	 	 	 	 	 	 	 	 	 	 	 	 	 	 	 	 	 	 	1581477544	8.89	16.46
12/02/2020 03:19:05	120220	12022020	031905	190.24	13.535708	-56.959652	190.49	-1.640	-0.790	4.780	190.15	-2.10	5.20	 	 	 	 	 	 	 	 	 	 	 	 	 	 	 	 	 	 	1581477545	9.49	17.58
12/02/2020 03:19:06	120220	12022020	031906	189.97	13.535670	-56.959672	190.30	-1.310	-0.100	4.520	189.98	-1.50	5.00	 	 	 	 	 	 	 	 	 	 	 	 	 	 	 	 	 	 	1581477546	9.77	18.09
12/02/2020 03:19:07	120220	12022020	031907	190.25	13.535632	-56.959682	190.63	-0.490	0.790	3.230	190.36	-0.60	3.80	 	 	 	 	 	 	 	 	 	 	 	 	 	 	 	 	 	 	1581477547	9.26	17.15
12/02/2020 03:19:08	120220	12022020	031908	190.80	13.535592	-56.959683	191.17	0.550	1.140	1.410	190.93	-0.20	2.00	 	 	 	 	 	 	 	 	 	 	 	 	 	 	 	 	 	 	1581477548	8.49	15.72
12/02/2020 03:19:09	120220	12022020	031909	191.49	13.535548	-56.959680	191.85	1.280	0.920	-0.120	191.65	-0.40	0.50	 	 	 	 	 	 	 	 	 	 	 	 	 	 	 	 	 	 	1581477549	8.76	16.22
12/02/2020 03:19:10	120220	12022020	031910	192.23	13.535505	-56.959678	192.53	1.320	0.440	-0.950	192.33	-0.90	-0.40	 	 	 	 	 	 	 	 	 	 	 	 	 	 	 	 	 	 	1581477550	9.33	17.28
12/02/2020 03:19:11	120220	12022020	031911	192.42	13.535465	-56.959683	192.59	0.920	-0.410	-0.530	192.34	-1.70	-0.10	 	 	 	 	 	 	 	 	 	 	 	 	 	 	 	 	 	 	1581477551	9.10	16.85
12/02/2020 03:19:12	120220	12022020	031912	191.80	13.535423	-56.959697	191.93	0.510	-1.420	1.120	191.62	-2.70	1.50	 	 	 	 	 	 	 	 	 	 	 	 	 	 	 	 	 	 	1581477552	8.92	16.52
12/02/2020 03:19:13	120220	12022020	031913	190.90	13.535383	-56.959717	191.08	0.080	-1.800	3.030	190.74	-3.10	3.40	 	 	 	 	 	 	 	 	 	 	 	 	 	 	 	 	 	 	1581477553	9.36	17.33
12/02/2020 03:19:14	120220	12022020	031914	190.29	13.535348	-56.959737	190.58	-0.460	-1.240	4.320	190.22	-2.60	4.70	 	 	 	 	 	 	 	 	 	 	 	 	 	 	 	 	 	 	1581477554	9.39	17.39
12/02/2020 03:19:15	120220	12022020	031915	190.09	13.535313	-56.959755	190.43	-0.970	-0.310	4.590	190.08	-1.70	5.10	 	 	 	 	 	 	 	 	 	 	 	 	 	 	 	 	 	 	1581477555	8.82	16.33
12/02/2020 03:19:16	120220	12022020	031916	190.08	13.535278	-56.959772	190.42	-1.080	0.260	4.060	190.08	-1.10	4.60	 	 	 	 	 	 	 	 	 	 	 	 	 	 	 	 	 	 	1581477556	8.31	15.39
12/02/2020 03:19:17	120220	12022020	031917	190.16	13.535238	-56.959782	190.51	-0.680	0.330	2.890	190.21	-1.00	3.40	 	 	 	 	 	 	 	 	 	 	 	 	 	 	 	 	 	 	1581477557	8.44	15.63
12/02/2020 03:19:18	120220	12022020	031918	190.52	13.535197	-56.959787	190.87	0.040	0.250	1.280	190.61	-1.10	1.90	 	 	 	 	 	 	 	 	 	 	 	 	 	 	 	 	 	 	1581477558	8.84	16.37
12/02/2020 03:19:19	120220	12022020	031919	191.04	13.535155	-56.959788	191.36	0.760	0.070	-0.200	191.14	-1.30	0.40	 	 	 	 	 	 	 	 	 	 	 	 	 	 	 	 	 	 	1581477559	8.90	16.48
12/02/2020 03:19:20	120220	12022020	031920	191.43	13.535113	-56.959788	191.68	1.170	-0.420	-0.950	191.48	-1.70	-0.40	 	 	 	 	 	 	 	 	 	 	 	 	 	 	 	 	 	 	1581477560	8.91	16.50
12/02/2020 03:19:21	120220	12022020	031921	191.58	13.535070	-56.959792	191.82	1.050	-0.910	-0.830	191.60	-2.20	-0.40	 	 	 	 	 	 	 	 	 	 	 	 	 	 	 	 	 	 	1581477561	9.21	17.06
12/02/2020 03:19:22	120220	12022020	031922	191.64	13.535030	-56.959802	191.88	0.450	-0.960	-0.030	191.63	-2.30	0.40	 	 	 	 	 	 	 	 	 	 	 	 	 	 	 	 	 	 	1581477562	9.23	17.09
12/02/2020 03:19:23	120220	12022020	031923	191.53	13.534993	-56.959817	191.76	-0.310	-0.600	1.210	191.48	-1.90	1.60	 	 	 	 	 	 	 	 	 	 	 	 	 	 	 	 	 	 	1581477563	8.88	16.45
12/02/2020 03:19:24	120220	12022020	031924	191.27	13.534957	-56.959835	191.51	-0.830	-0.110	2.460	191.22	-1.50	2.90	 	 	 	 	 	 	 	 	 	 	 	 	 	 	 	 	 	 	1581477564	8.61	15.95
12/02/2020 03:19:25	120220	12022020	031925	191.09	13.534918	-56.959852	191.38	-0.930	0.280	2.980	191.09	-1.10	3.40	 	 	 	 	 	 	 	 	 	 	 	 	 	 	 	 	 	 	1581477565	8.72	16.15
12/02/2020 03:19:26	120220	12022020	031926	191.13	13.534880	-56.959865	191.49	-0.680	0.330	2.730	191.16	-1.00	3.20	 	 	 	 	 	 	 	 	 	 	 	 	 	 	 	 	 	 	1581477566	8.74	16.19
12/02/2020 03:19:27	120220	12022020	031927	191.32	13.534838	-56.959875	191.64	-0.290	-0.060	2.250	191.34	-1.40	2.80	 	 	 	 	 	 	 	 	 	 	 	 	 	 	 	 	 	 	1581477567	8.84	16.37
12/02/2020 03:19:28	120220	12022020	031928	191.36	13.534797	-56.959885	191.63	0.080	-0.580	1.890	191.34	-1.90	2.40	 	 	 	 	 	 	 	 	 	 	 	 	 	 	 	 	 	 	1581477568	9.15	16.95
12/02/2020 03:19:29	120220	12022020	031929	191.14	13.534755	-56.959893	191.38	0.350	-0.730	1.730	191.09	-2.10	2.20	 	 	 	 	 	 	 	 	 	 	 	 	 	 	 	 	 	 	1581477569	9.31	17.24
12/02/2020 03:19:30	120220	12022020	031930	190.82	13.534717	-56.959903	191.05	0.540	-0.410	1.690	190.76	-1.80	2.20	 	 	 	 	 	 	 	 	 	 	 	 	 	 	 	 	 	 	1581477570	9.01	16.69
12/02/2020 03:19:31	120220	12022020	031931	190.48	13.534680	-56.959910	190.70	0.640	0.050	1.670	190.41	-1.30	2.20	 	 	 	 	 	 	 	 	 	 	 	 	 	 	 	 	 	 	1581477571	8.50	15.74
12/02/2020 03:19:32	120220	12022020	031932	190.22	13.534640	-56.959917	190.49	0.570	0.380	1.600	190.22	-1.00	2.10	 	 	 	 	 	 	 	 	 	 	 	 	 	 	 	 	 	 	1581477572	8.28	15.33
12/02/2020 03:19:33	120220	12022020	031933	190.49	13.534602	-56.959925	190.84	0.180	0.540	1.320	190.59	-0.80	1.90	 	 	 	 	 	 	 	 	 	 	 	 	 	 	 	 	 	 	1581477573	8.41	15.58
12/02/2020 03:19:34	120220	12022020	031934	191.05	13.534565	-56.959935	191.42	-0.320	0.330	1.260	191.17	-1.00	1.80	 	 	 	 	 	 	 	 	 	 	 	 	 	 	 	 	 	 	1581477574	8.37	15.50
12/02/2020 03:19:35	120220	12022020	031935	191.59	13.534525	-56.959948	191.94	-0.450	-0.330	1.320	191.69	-1.60	1.80	 	 	 	 	 	 	 	 	 	 	 	 	 	 	 	 	 	 	1581477575	8.46	15.67
12/02/2020 03:19:36	120220	12022020	031936	191.99	13.534485	-56.959962	192.28	-0.010	-1.110	1.170	192.03	-2.40	1.70	 	 	 	 	 	 	 	 	 	 	 	 	 	 	 	 	 	 	1581477576	8.90	16.48
12/02/2020 03:19:37	120220	12022020	031937	192.00	13.534443	-56.959970	192.22	0.630	-1.700	1.190	191.94	-3.00	1.70	 	 	 	 	 	 	 	 	 	 	 	 	 	 	 	 	 	 	1581477577	9.13	16.91
12/02/2020 03:19:38	120220	12022020	031938	191.56	13.534402	-56.959978	191.72	0.870	-1.790	1.560	191.44	-3.10	2.00	 	 	 	 	 	 	 	 	 	 	 	 	 	 	 	 	 	 	1581477578	9.21	17.06
12/02/2020 03:19:39	120220	12022020	031939	191.00	13.534362	-56.959988	191.20	0.390	-1.130	2.070	190.92	-2.50	2.60	 	 	 	 	 	 	 	 	 	 	 	 	 	 	 	 	 	 	1581477579	9.16	16.96
12/02/2020 03:19:40	120220	12022020	031940	190.78	13.534325	-56.960000	191.05	-0.510	0.180	2.520	190.80	-1.30	3.00	 	 	 	 	 	 	 	 	 	 	 	 	 	 	 	 	 	 	1581477580	8.75	16.21
12/02/2020 03:19:41	120220	12022020	031941	190.94	13.534290	-56.960013	191.24	-1.200	1.280	2.670	190.97	-0.10	3.20	 	 	 	 	 	 	 	 	 	 	 	 	 	 	 	 	 	 	1581477581	8.14	15.08
12/02/2020 03:19:42	120220	12022020	031942	190.94	13.534250	-56.960027	191.20	-1.090	1.090	2.580	190.89	-0.20	3.10	 	 	 	 	 	 	 	 	 	 	 	 	 	 	 	 	 	 	1581477582	8.02	14.85
12/02/2020 03:19:43	120220	12022020	031943	190.63	13.534205	-56.960038	190.89	-0.440	0.100	2.530	190.57	-1.20	3.00	 	 	 	 	 	 	 	 	 	 	 	 	 	 	 	 	 	 	1581477583	9.07	16.80
12/02/2020 03:19:44	120220	12022020	031944	190.44	13.534162	-56.960050	190.74	0.050	-0.410	2.390	190.44	-1.80	2.90	 	 	 	 	 	 	 	 	 	 	 	 	 	 	 	 	 	 	1581477584	10.14	18.78
12/02/2020 03:19:45	120220	12022020	031945	190.53	13.534123	-56.960060	190.85	0.110	-0.150	2.020	190.57	-1.50	2.50	 	 	 	 	 	 	 	 	 	 	 	 	 	 	 	 	 	 	1581477585	9.65	17.87
12/02/2020 03:19:46	120220	12022020	031946	190.78	13.534087	-56.960068	191.11	0.090	0.230	1.540	190.83	-1.10	2.10	 	 	 	 	 	 	 	 	 	 	 	 	 	 	 	 	 	 	1581477586	8.45	15.65
12/02/2020 03:19:47	120220	12022020	031947	191.02	13.534048	-56.960077	191.30	0.430	0.140	1.010	191.05	-1.20	1.60	 	 	 	 	 	 	 	 	 	 	 	 	 	 	 	 	 	 	1581477587	7.96	14.74
12/02/2020 03:19:48	120220	12022020	031948	191.25	13.534008	-56.960082	191.54	1.000	-0.240	0.420	191.32	-1.60	1.00	 	 	 	 	 	 	 	 	 	 	 	 	 	 	 	 	 	 	1581477588	8.35	15.46
12/02/2020 03:19:49	120220	12022020	031949	191.62	13.533968	-56.960085	191.90	1.170	-0.520	0.210	191.68	-1.90	0.70	 	 	 	 	 	 	 	 	 	 	 	 	 	 	 	 	 	 	1581477589	8.79	16.28
12/02/2020 03:19:50	120220	12022020	031950	191.74	13.533930	-56.960093	191.96	0.710	-0.880	0.690	191.70	-2.20	1.20	 	 	 	 	 	 	 	 	 	 	 	 	 	 	 	 	 	 	1581477590	8.65	16.02
12/02/2020 03:19:51	120220	12022020	031951	191.29	13.533890	-56.960108	191.46	-0.030	-1.360	1.840	191.15	-2.70	2.30	 	 	 	 	 	 	 	 	 	 	 	 	 	 	 	 	 	 	1581477591	8.59	15.91
12/02/2020 03:19:52	120220	12022020	031952	190.57	13.533850	-56.960127	190.76	-0.610	-1.440	3.030	190.43	-2.80	3.50	 	 	 	 	 	 	 	 	 	 	 	 	 	 	 	 	 	 	1581477592	9.09	16.83
12/02/2020 03:19:53	120220	12022020	031953	189.99	13.533812	-56.960145	190.25	-0.740	-0.830	3.540	189.92	-2.20	4.00	 	 	 	 	 	 	 	 	 	 	 	 	 	 	 	 	 	 	1581477593	9.39	17.39
12/02/2020 03:19:54	120220	12022020	031954	189.79	13.533775	-56.960158	190.12	-0.520	0.140	3.200	189.80	-1.30	3.70	 	 	 	 	 	 	 	 	 	 	 	 	 	 	 	 	 	 	1581477594	8.97	16.61
12/02/2020 03:19:55	120220	12022020	031955	190.04	13.533737	-56.960165	190.43	-0.300	0.890	2.280	190.13	-0.50	2.80	 	 	 	 	 	 	 	 	 	 	 	 	 	 	 	 	 	 	1581477595	8.37	15.50
12/02/2020 03:19:56	120220	12022020	031956	190.63	13.533698	-56.960170	191.01	-0.330	1.040	1.410	190.75	-0.30	2.00	 	 	 	 	 	 	 	 	 	 	 	 	 	 	 	 	 	 	1581477596	8.27	15.32
12/02/2020 03:19:57	120220	12022020	031957	191.05	13.533657	-56.960177	191.35	-0.400	0.360	0.960	191.07	-0.90	1.50	 	 	 	 	 	 	 	 	 	 	 	 	 	 	 	 	 	 	1581477597	8.44	15.63
12/02/2020 03:19:58	120220	12022020	031958	190.85	13.533613	-56.960188	191.05	-0.070	-0.830	1.140	190.74	-2.10	1.60	 	 	 	 	 	 	 	 	 	 	 	 	 	 	 	 	 	 	1581477598	8.96	16.59
12/02/2020 03:19:59	120220	12022020	031959	190.30	13.533572	-56.960198	190.51	0.550	-1.450	1.510	190.21	-2.80	2.00	 	 	 	 	 	 	 	 	 	 	 	 	 	 	 	 	 	 	1581477599	9.65	17.87
12/02/2020 03:20:00	120220	12022020	032000	190.01	13.533532	-56.960207	190.27	0.840	-1.010	1.570	189.99	-2.40	2.10	 	 	 	 	 	 	 	 	 	 	 	 	 	 	 	 	 	 	1581477600	9.50	17.59
12/02/2020 03:20:01	120220	12022020	032001	190.03	13.533497	-56.960213	190.32	0.450	-0.160	1.570	190.05	-1.60	2.10	1017.00	26.10	26.10	20.40	20.50	-1.0	71.0	71.0	389.0	25.7	259.00	10.70	69.00	12.40	16	9389.0	27.2	27.2	1581477601	8.46	15.67
12/02/2020 03:20:02	120220	12022020	032002	190.13	13.533460	-56.960223	190.42	-0.250	0.280	1.860	190.14	-1.10	2.40	 	 	 	 	 	 	 	 	 	 	 	 	 	 	 	 	 	 	1581477602	7.87	14.58
12/02/2020 03:20:03	120220	12022020	032003	190.14	13.533420	-56.960238	190.43	-0.700	0.190	2.380	190.13	-1.10	2.90	 	 	 	 	 	 	 	 	 	 	 	 	 	 	 	 	 	 	1581477603	8.19	15.17
12/02/2020 03:20:04	120220	12022020	032004	190.14	13.533382	-56.960253	190.47	-0.710	0.030	2.760	190.15	-1.30	3.20	 	 	 	 	 	 	 	 	 	 	 	 	 	 	 	 	 	 	1581477604	8.91	16.50
12/02/2020 03:20:05	120220	12022020	032005	190.22	13.533342	-56.960267	190.55	-0.380	0.040	2.710	190.25	-1.30	3.20	 	 	 	 	 	 	 	 	 	 	 	 	 	 	 	 	 	 	1581477605	9.10	16.85
12/02/2020 03:20:06	120220	12022020	032006	190.40	13.533303	-56.960277	190.75	0.040	0.120	2.150	190.46	-1.20	2.70	 	 	 	 	 	 	 	 	 	 	 	 	 	 	 	 	 	 	1581477606	8.78	16.26
12/02/2020 03:20:07	120220	12022020	032007	190.77	13.533265	-56.960282	191.11	0.360	0.080	1.360	190.84	-1.30	1.90	 	 	 	 	 	 	 	 	 	 	 	 	 	 	 	 	 	 	1581477607	8.49	15.72
12/02/2020 03:20:08	120220	12022020	032008	191.05	13.533227	-56.960287	191.32	0.520	-0.260	0.860	191.06	-1.60	1.40	 	 	 	 	 	 	 	 	 	 	 	 	 	 	 	 	 	 	1581477608	8.36	15.48
12/02/2020 03:20:09	120220	12022020	032009	190.92	13.533185	-56.960293	191.12	0.550	-0.810	0.930	190.84	-2.10	1.40	 	 	 	 	 	 	 	 	 	 	 	 	 	 	 	 	 	 	1581477609	8.51	15.76
12/02/2020 03:20:10	120220	12022020	032010	190.44	13.533145	-56.960302	190.61	0.480	-1.210	1.370	190.33	-2.50	1.90	 	 	 	 	 	 	 	 	 	 	 	 	 	 	 	 	 	 	1581477610	8.82	16.33
12/02/2020 03:20:11	120220	12022020	032011	189.91	13.533105	-56.960313	190.12	0.300	-1.210	1.930	189.82	-2.60	2.40	 	 	 	 	 	 	 	 	 	 	 	 	 	 	 	 	 	 	1581477611	8.96	16.59
12/02/2020 03:20:12	120220	12022020	032012	189.63	13.533067	-56.960323	189.91	-0.050	-0.700	2.330	189.61	-2.10	2.80	 	 	 	 	 	 	 	 	 	 	 	 	 	 	 	 	 	 	1581477612	8.91	16.50
12/02/2020 03:20:13	120220	12022020	032013	189.64	13.533030	-56.960335	189.95	-0.500	0.050	2.430	189.66	-1.30	2.90	 	 	 	 	 	 	 	 	 	 	 	 	 	 	 	 	 	 	1581477613	8.59	15.91
12/02/2020 03:20:14	120220	12022020	032014	189.71	13.532992	-56.960345	190.02	-0.780	0.410	2.280	189.73	-0.90	2.80	 	 	 	 	 	 	 	 	 	 	 	 	 	 	 	 	 	 	1581477614	8.28	15.33
12/02/2020 03:20:15	120220	12022020	032015	189.78	13.532950	-56.960357	190.08	-0.630	0.270	2.000	189.80	-1.10	2.50	 	 	 	 	 	 	 	 	 	 	 	 	 	 	 	 	 	 	1581477615	8.57	15.87
12/02/2020 03:20:16	120220	12022020	032016	189.87	13.532908	-56.960367	190.23	-0.240	-0.000	1.740	189.91	-1.30	2.20	 	 	 	 	 	 	 	 	 	 	 	 	 	 	 	 	 	 	1581477616	9.13	16.91
12/02/2020 03:20:17	120220	12022020	032017	190.11	13.532868	-56.960375	190.43	0.030	-0.050	1.430	190.15	-1.40	1.90	 	 	 	 	 	 	 	 	 	 	 	 	 	 	 	 	 	 	1581477617	9.23	17.09
12/02/2020 03:20:18	120220	12022020	032018	190.30	13.532830	-56.960383	190.60	0.040	0.140	1.150	190.33	-1.20	1.70	 	 	 	 	 	 	 	 	 	 	 	 	 	 	 	 	 	 	1581477618	8.88	16.45
12/02/2020 03:20:19	120220	12022020	032019	190.58	13.532792	-56.960393	190.90	-0.060	0.310	1.030	190.65	-1.00	1.50	 	 	 	 	 	 	 	 	 	 	 	 	 	 	 	 	 	 	1581477619	8.41	15.58
12/02/2020 03:20:20	120220	12022020	032020	190.96	13.532755	-56.960402	191.27	-0.060	0.130	1.030	191.03	-1.20	1.50	 	 	 	 	 	 	 	 	 	 	 	 	 	 	 	 	 	 	1581477620	8.18	15.15
12/02/2020 03:20:21	120220	12022020	032021	191.21	13.532715	-56.960412	191.47	0.240	-0.360	1.080	191.22	-1.70	1.60	 	 	 	 	 	 	 	 	 	 	 	 	 	 	 	 	 	 	1581477621	8.33	15.43
12/02/2020 03:20:22	120220	12022020	032022	191.16	13.532675	-56.960418	191.38	0.740	-0.920	1.140	191.11	-2.20	1.60	 	 	 	 	 	 	 	 	 	 	 	 	 	 	 	 	 	 	1581477622	8.66	16.04
12/02/2020 03:20:23	120220	12022020	032023	190.81	13.532633	-56.960425	190.98	1.060	-1.320	1.400	190.70	-2.60	1.90	 	 	 	 	 	 	 	 	 	 	 	 	 	 	 	 	 	 	1581477623	8.86	16.41
12/02/2020 03:20:24	120220	12022020	032024	190.19	13.532592	-56.960432	190.35	0.830	-1.480	1.940	190.05	-2.80	2.40	 	 	 	 	 	 	 	 	 	 	 	 	 	 	 	 	 	 	1581477624	8.98	16.63
12/02/2020 03:20:25	120220	12022020	032025	189.54	13.532552	-56.960443	189.74	0.080	-1.230	2.650	189.44	-2.60	3.10	 	 	 	 	 	 	 	 	 	 	 	 	 	 	 	 	 	 	1581477625	9.08	16.82
12/02/2020 03:20:26	120220	12022020	032026	189.25	13.532513	-56.960458	189.55	-0.860	-0.400	3.190	189.26	-1.80	3.70	 	 	 	 	 	 	 	 	 	 	 	 	 	 	 	 	 	 	1581477626	9.09	16.83
12/02/2020 03:20:27	120220	12022020	032027	189.43	13.532477	-56.960473	189.79	-1.500	0.630	3.390	189.50	-0.80	3.90	 	 	 	 	 	 	 	 	 	 	 	 	 	 	 	 	 	 	1581477627	8.81	16.32
12/02/2020 03:20:28	120220	12022020	032028	189.80	13.532440	-56.960490	190.15	-1.510	1.210	3.140	189.88	-0.20	3.70	 	 	 	 	 	 	 	 	 	 	 	 	 	 	 	 	 	 	1581477628	8.51	15.76
12/02/2020 03:20:29	120220	12022020	032029	190.21	13.532400	-56.960502	190.56	-0.880	1.130	2.320	190.31	-0.20	2.90	 	 	 	 	 	 	 	 	 	 	 	 	 	 	 	 	 	 	1581477629	8.65	16.02
12/02/2020 03:20:30	120220	12022020	032030	190.78	13.532358	-56.960507	191.13	-0.030	0.740	1.170	190.92	-0.60	1.80	 	 	 	 	 	 	 	 	 	 	 	 	 	 	 	 	 	 	1581477630	8.96	16.59
12/02/2020 03:20:31	120220	12022020	032031	191.43	13.532317	-56.960510	191.73	0.670	0.180	0.040	191.53	-1.10	0.60	 	 	 	 	 	 	 	 	 	 	 	 	 	 	 	 	 	 	1581477631	8.98	16.63
12/02/2020 03:20:32	120220	12022020	032032	191.79	13.532277	-56.960513	192.01	1.120	-0.510	-0.620	191.80	-1.80	-0.10	 	 	 	 	 	 	 	 	 	 	 	 	 	 	 	 	 	 	1581477632	8.82	16.33
12/02/2020 03:20:33	120220	12022020	032033	191.65	13.532235	-56.960517	191.81	1.350	-1.210	-0.440	191.58	-2.50	0.10	 	 	 	 	 	 	 	 	 	 	 	 	 	 	 	 	 	 	1581477633	8.79	16.28
12/02/2020 03:20:34	120220	12022020	032034	191.17	13.532195	-56.960523	191.31	1.250	-1.570	0.400	191.05	-2.90	0.90	 	 	 	 	 	 	 	 	 	 	 	 	 	 	 	 	 	 	1581477634	8.87	16.43
12/02/2020 03:20:35	120220	12022020	032035	190.62	13.532157	-56.960535	190.80	0.640	-1.370	1.490	190.52	-2.70	1.90	 	 	 	 	 	 	 	 	 	 	 	 	 	 	 	 	 	 	1581477635	8.84	16.37
12/02/2020 03:20:36	120220	12022020	032036	190.20	13.532118	-56.960550	190.42	-0.320	-0.810	2.610	190.14	-2.20	3.10	 	 	 	 	 	 	 	 	 	 	 	 	 	 	 	 	 	 	1581477636	8.65	16.02
12/02/2020 03:20:37	120220	12022020	032037	189.98	13.532082	-56.960568	190.26	-1.170	-0.210	3.450	189.96	-1.60	3.90	 	 	 	 	 	 	 	 	 	 	 	 	 	 	 	 	 	 	1581477637	8.63	15.98
12/02/2020 03:20:38	120220	12022020	032038	189.97	13.532043	-56.960585	190.29	-1.470	0.230	3.620	189.98	-1.10	4.10	 	 	 	 	 	 	 	 	 	 	 	 	 	 	 	 	 	 	1581477638	8.87	16.43
12/02/2020 03:20:39	120220	12022020	032039	190.08	13.532003	-56.960600	190.41	-1.140	0.420	3.150	190.10	-0.90	3.70	 	 	 	 	 	 	 	 	 	 	 	 	 	 	 	 	 	 	1581477639	9.00	16.67
12/02/2020 03:20:40	120220	12022020	032040	190.21	13.531962	-56.960608	190.55	-0.440	0.290	2.240	190.26	-1.00	2.80	 	 	 	 	 	 	 	 	 	 	 	 	 	 	 	 	 	 	1581477640	9.02	16.71
12/02/2020 03:20:41	120220	12022020	032041	190.56	13.531920	-56.960613	190.92	0.170	0.020	1.200	190.66	-1.30	1.80	 	 	 	 	 	 	 	 	 	 	 	 	 	 	 	 	 	 	1581477641	9.15	16.95
12/02/2020 03:20:42	120220	12022020	032042	191.09	13.531878	-56.960617	191.44	0.410	-0.050	0.450	191.19	-1.40	1.00	 	 	 	 	 	 	 	 	 	 	 	 	 	 	 	 	 	 	1581477642	9.20	17.04
12/02/2020 03:20:43	120220	12022020	032043	191.42	13.531840	-56.960623	191.69	0.440	-0.020	0.250	191.43	-1.40	0.80	 	 	 	 	 	 	 	 	 	 	 	 	 	 	 	 	 	 	1581477643	8.80	16.30
12/02/2020 03:20:44	120220	12022020	032044	191.32	13.531800	-56.960630	191.54	0.530	-0.200	0.600	191.27	-1.50	1.10	 	 	 	 	 	 	 	 	 	 	 	 	 	 	 	 	 	 	1581477644	8.41	15.58
12/02/2020 03:20:45	120220	12022020	032045	191.12	13.531762	-56.960640	191.37	0.620	-0.340	1.030	191.12	-1.70	1.50	 	 	 	 	 	 	 	 	 	 	 	 	 	 	 	 	 	 	1581477645	8.62	15.96
12/02/2020 03:20:46	120220	12022020	032046	191.16	13.531723	-56.960648	191.44	0.440	-0.160	1.380	191.18	-1.50	1.90	 	 	 	 	 	 	 	 	 	 	 	 	 	 	 	 	 	 	1581477646	8.75	16.21
12/02/2020 03:20:47	120220	12022020	032047	191.22	13.531687	-56.960660	191.48	0.050	-0.040	1.570	191.22	-1.40	2.10	 	 	 	 	 	 	 	 	 	 	 	 	 	 	 	 	 	 	1581477647	8.35	15.46
12/02/2020 03:20:48	120220	12022020	032048	191.09	13.531647	-56.960672	191.29	-0.190	-0.350	1.700	191.02	-1.70	2.20	 	 	 	 	 	 	 	 	 	 	 	 	 	 	 	 	 	 	1581477648	8.25	15.28
12/02/2020 03:20:49	120220	12022020	032049	190.63	13.531605	-56.960683	190.81	-0.040	-0.980	2.090	190.52	-2.30	2.60	 	 	 	 	 	 	 	 	 	 	 	 	 	 	 	 	 	 	1581477649	8.71	16.13
12/02/2020 03:20:50	120220	12022020	032050	190.20	13.531563	-56.960695	190.43	0.250	-1.300	2.440	190.15	-2.60	2.90	 	 	 	 	 	 	 	 	 	 	 	 	 	 	 	 	 	 	1581477650	9.32	17.26
12/02/2020 03:20:51	120220	12022020	032051	190.09	13.531525	-56.960707	190.36	0.230	-0.950	2.550	190.09	-2.30	3.00	 	 	 	 	 	 	 	 	 	 	 	 	 	 	 	 	 	 	1581477651	9.38	17.37
12/02/2020 03:20:52	120220	12022020	032052	190.08	13.531487	-56.960717	190.35	-0.120	-0.270	2.560	190.06	-1.60	3.00	 	 	 	 	 	 	 	 	 	 	 	 	 	 	 	 	 	 	1581477652	8.77	16.24
12/02/2020 03:20:53	120220	12022020	032053	189.92	13.531448	-56.960728	190.17	-0.470	0.210	2.560	189.88	-1.20	3.10	 	 	 	 	 	 	 	 	 	 	 	 	 	 	 	 	 	 	1581477653	8.31	15.39
12/02/2020 03:20:54	120220	12022020	032054	189.90	13.531410	-56.960738	190.23	-0.630	0.620	2.380	189.95	-0.80	2.90	 	 	 	 	 	 	 	 	 	 	 	 	 	 	 	 	 	 	1581477654	8.50	15.74
12/02/2020 03:20:55	120220	12022020	032055	190.43	13.531373	-56.960748	190.85	-0.610	0.920	1.820	190.60	-0.40	2.40	 	 	 	 	 	 	 	 	 	 	 	 	 	 	 	 	 	 	1581477655	8.58	15.89
12/02/2020 03:20:56	120220	12022020	032056	191.34	13.531335	-56.960758	191.74	-0.370	0.670	1.050	191.51	-0.70	1.60	 	 	 	 	 	 	 	 	 	 	 	 	 	 	 	 	 	 	1581477656	8.38	15.52
12/02/2020 03:20:57	120220	12022020	032057	192.09	13.531293	-56.960767	192.38	0.240	-0.190	0.430	192.17	-1.50	1.00	 	 	 	 	 	 	 	 	 	 	 	 	 	 	 	 	 	 	1581477657	8.54	15.82
12/02/2020 03:20:58	120220	12022020	032058	192.28	13.531250	-56.960773	192.49	1.050	-1.150	0.200	192.26	-2.40	0.70	 	 	 	 	 	 	 	 	 	 	 	 	 	 	 	 	 	 	1581477658	9.08	16.82
12/02/2020 03:20:59	120220	12022020	032059	192.13	13.531208	-56.960777	192.32	1.410	-1.420	0.260	192.09	-2.80	0.80	 	 	 	 	 	 	 	 	 	 	 	 	 	 	 	 	 	 	1581477659	9.43	17.46
12/02/2020 03:21:00	120220	12022020	032100	191.90	13.531170	-56.960782	192.06	0.960	-1.000	0.790	191.83	-2.40	1.20	 	 	 	 	 	 	 	 	 	 	 	 	 	 	 	 	 	 	1581477660	9.04	16.74
12/02/2020 03:21:01	120220	12022020	032101	191.41	13.531132	-56.960793	191.54	0.010	-0.550	1.790	191.27	-1.90	2.20	1017.10	26.10	26.10	20.40	20.50	-1.0	70.0	71.0	390.0	25.7	258.00	10.20	67.00	11.90	16	9104.0	27.2	27.2	1581477661	8.28	15.33
12/02/2020 03:21:02	120220	12022020	032102	190.78	13.531093	-56.960808	190.96	-0.840	-0.260	2.720	190.67	-1.60	3.20	 	 	 	 	 	 	 	 	 	 	 	 	 	 	 	 	 	 	1581477662	8.34	15.45
12/02/2020 03:21:03	120220	12022020	032103	190.29	13.531055	-56.960827	190.51	-1.200	0.020	3.320	190.21	-1.40	3.80	 	 	 	 	 	 	 	 	 	 	 	 	 	 	 	 	 	 	1581477663	8.92	16.52
12/02/2020 03:21:04	120220	12022020	032104	190.08	13.531015	-56.960843	190.39	-1.090	0.310	3.410	190.10	-1.10	3.90	 	 	 	 	 	 	 	 	 	 	 	 	 	 	 	 	 	 	1581477664	9.18	17.00
12/02/2020 03:21:05	120220	12022020	032105	190.38	13.530977	-56.960857	190.76	-0.740	0.610	2.780	190.49	-0.80	3.30	 	 	 	 	 	 	 	 	 	 	 	 	 	 	 	 	 	 	1581477665	9.11	16.87
12/02/2020 03:21:06	120220	12022020	032106	190.97	13.530938	-56.960867	191.31	-0.250	0.610	1.680	191.08	-0.70	2.20	 	 	 	 	 	 	 	 	 	 	 	 	 	 	 	 	 	 	1581477666	8.70	16.11
12/02/2020 03:21:07	120220	12022020	032107	191.41	13.530898	-56.960873	191.70	0.420	0.120	0.630	191.47	-1.20	1.20	 	 	 	 	 	 	 	 	 	 	 	 	 	 	 	 	 	 	1581477667	8.48	15.70
12/02/2020 03:21:08	120220	12022020	032108	191.57	13.530858	-56.960878	191.80	1.030	-0.480	0.070	191.57	-1.80	0.60	 	 	 	 	 	 	 	 	 	 	 	 	 	 	 	 	 	 	1581477668	8.78	16.26
12/02/2020 03:21:09	120220	12022020	032109	191.56	13.530818	-56.960883	191.79	1.190	-0.620	-0.060	191.56	-2.00	0.40	 	 	 	 	 	 	 	 	 	 	 	 	 	 	 	 	 	 	1581477669	8.94	16.56
12/02/2020 03:21:10	120220	12022020	032110	191.62	13.530782	-56.960890	191.87	0.830	-0.410	0.100	191.65	-1.80	0.60	 	 	 	 	 	 	 	 	 	 	 	 	 	 	 	 	 	 	1581477670	8.50	15.74
12/02/2020 03:21:11	120220	12022020	032111	191.76	13.530745	-56.960898	192.02	0.300	-0.400	0.500	191.80	-1.80	1.00	 	 	 	 	 	 	 	 	 	 	 	 	 	 	 	 	 	 	1581477671	8.01	14.83
12/02/2020 03:21:12	120220	12022020	032112	191.88	13.530705	-56.960912	192.13	-0.030	-0.820	1.150	191.89	-2.10	1.60	 	 	 	 	 	 	 	 	 	 	 	 	 	 	 	 	 	 	1581477672	8.21	15.20
12/02/2020 03:21:13	120220	12022020	032113	191.84	13.530663	-56.960925	192.06	-0.140	-1.310	1.920	191.80	-2.60	2.30	 	 	 	 	 	 	 	 	 	 	 	 	 	 	 	 	 	 	1581477673	8.92	16.52
12/02/2020 03:21:14	120220	12022020	032114	191.59	13.530623	-56.960940	191.79	-0.230	-1.280	2.630	191.51	-2.70	3.10	 	 	 	 	 	 	 	 	 	 	 	 	 	 	 	 	 	 	1581477674	9.40	17.41
12/02/2020 03:21:15	120220	12022020	032115	191.21	13.530585	-56.960953	191.42	-0.470	-0.620	3.080	191.14	-2.00	3.50	 	 	 	 	 	 	 	 	 	 	 	 	 	 	 	 	 	 	1581477675	9.23	17.09
12/02/2020 03:21:16	120220	12022020	032116	190.87	13.530548	-56.960965	191.08	-0.770	0.200	3.090	190.81	-1.20	3.60	 	 	 	 	 	 	 	 	 	 	 	 	 	 	 	 	 	 	1581477676	8.64	16.00
12/02/2020 03:21:17	120220	12022020	032117	190.58	13.530508	-56.960977	190.80	-0.900	0.580	2.840	190.53	-0.80	3.30	 	 	 	 	 	 	 	 	 	 	 	 	 	 	 	 	 	 	1581477677	8.36	15.48
12/02/2020 03:21:18	120220	12022020	032118	190.38	13.530468	-56.960987	190.64	-0.810	0.500	2.570	190.37	-0.90	3.10	 	 	 	 	 	 	 	 	 	 	 	 	 	 	 	 	 	 	1581477678	8.68	16.08
12/02/2020 03:21:19	120220	12022020	032119	190.47	13.530427	-56.961000	190.79	-0.590	0.440	2.210	190.54	-0.90	2.70	 	 	 	 	 	 	 	 	 	 	 	 	 	 	 	 	 	 	1581477679	9.16	16.96
12/02/2020 03:21:20	120220	12022020	032120	190.92	13.530390	-56.961010	191.27	-0.230	0.690	1.510	191.04	-0.70	2.00	 	 	 	 	 	 	 	 	 	 	 	 	 	 	 	 	 	 	1581477680	9.05	16.76
12/02/2020 03:21:21	120220	12022020	032121	191.50	13.530353	-56.961017	191.81	0.380	0.830	0.530	191.60	-0.50	1.10	 	 	 	 	 	 	 	 	 	 	 	 	 	 	 	 	 	 	1581477681	8.33	15.43
12/02/2020 03:21:22	120220	12022020	032122	191.89	13.530315	-56.961018	192.15	1.270	0.210	-0.300	191.92	-1.10	0.20	 	 	 	 	 	 	 	 	 	 	 	 	 	 	 	 	 	 	1581477682	7.94	14.70
12/02/2020 03:21:23	120220	12022020	032123	191.86	13.530272	-56.961022	192.05	2.010	-0.980	-0.260	191.80	-2.30	0.20	 	 	 	 	 	 	 	 	 	 	 	 	 	 	 	 	 	 	1581477683	8.53	15.80
12/02/2020 03:21:24	120220	12022020	032124	191.51	13.530228	-56.961028	191.72	1.900	-1.760	0.580	191.46	-3.10	1.00	 	 	 	 	 	 	 	 	 	 	 	 	 	 	 	 	 	 	1581477684	9.33	17.28
12/02/2020 03:21:25	120220	12022020	032125	191.32	13.530192	-56.961040	191.57	0.720	-1.440	1.830	191.31	-2.80	2.20	 	 	 	 	 	 	 	 	 	 	 	 	 	 	 	 	 	 	1581477685	9.26	17.15
12/02/2020 03:21:26	120220	12022020	032126	191.35	13.530160	-56.961060	191.66	-0.840	-0.500	3.230	191.38	-1.90	3.60	 	 	 	 	 	 	 	 	 	 	 	 	 	 	 	 	 	 	1581477686	8.33	15.43
12/02/2020 03:21:27	120220	12022020	032127	191.48	13.530127	-56.961083	191.81	-1.760	0.110	4.230	191.49	-1.30	4.60	 	 	 	 	 	 	 	 	 	 	 	 	 	 	 	 	 	 	1581477687	8.01	14.83
12/02/2020 03:21:28	120220	12022020	032128	191.38	13.530088	-56.961103	191.67	-1.560	-0.250	4.440	191.32	-1.60	4.90	 	 	 	 	 	 	 	 	 	 	 	 	 	 	 	 	 	 	1581477688	8.43	15.61
12/02/2020 03:21:29	120220	12022020	032129	191.05	13.530045	-56.961118	191.31	-0.700	-0.980	4.100	190.98	-2.30	4.60	 	 	 	 	 	 	 	 	 	 	 	 	 	 	 	 	 	 	1581477689	9.31	17.24
12/02/2020 03:21:30	120220	12022020	032130	190.78	13.530002	-56.961128	191.05	0.040	-1.040	3.180	190.75	-2.40	3.70	 	 	 	 	 	 	 	 	 	 	 	 	 	 	 	 	 	 	1581477690	9.95	18.43
12/02/2020 03:21:31	120220	12022020	032131	190.73	13.529963	-56.961132	191.02	0.270	-0.230	1.880	190.76	-1.70	2.40	 	 	 	 	 	 	 	 	 	 	 	 	 	 	 	 	 	 	1581477691	9.47	17.54
12/02/2020 03:21:32	120220	12022020	032132	190.94	13.529925	-56.961132	191.24	0.180	0.700	0.680	191.02	-0.70	1.20	 	 	 	 	 	 	 	 	 	 	 	 	 	 	 	 	 	 	1581477692	8.54	15.82
12/02/2020 03:21:33	120220	12022020	032133	191.36	13.529885	-56.961135	191.65	0.140	1.080	-0.040	191.44	-0.30	0.50	 	 	 	 	 	 	 	 	 	 	 	 	 	 	 	 	 	 	1581477693	8.15	15.09
12/02/2020 03:21:34	120220	12022020	032134	191.84	13.529845	-56.961140	192.15	0.250	0.880	-0.260	191.93	-0.50	0.20	 	 	 	 	 	 	 	 	 	 	 	 	 	 	 	 	 	 	1581477694	8.44	15.63
12/02/2020 03:21:35	120220	12022020	032135	192.23	13.529805	-56.961148	192.51	0.340	0.350	-0.100	192.27	-1.00	0.40	 	 	 	 	 	 	 	 	 	 	 	 	 	 	 	 	 	 	1581477695	8.74	16.19
12/02/2020 03:21:36	120220	12022020	032136	192.33	13.529765	-56.961160	192.58	0.270	-0.350	0.540	192.31	-1.70	1.00	 	 	 	 	 	 	 	 	 	 	 	 	 	 	 	 	 	 	1581477696	8.81	16.32
12/02/2020 03:21:37	120220	12022020	032137	192.10	13.529727	-56.961175	192.27	0.120	-1.060	1.530	192.00	-2.40	1.90	 	 	 	 	 	 	 	 	 	 	 	 	 	 	 	 	 	 	1581477697	8.83	16.35
12/02/2020 03:21:38	120220	12022020	032138	191.40	13.529688	-56.961192	191.53	0.140	-1.580	2.580	191.21	-2.90	3.00	 	 	 	 	 	 	 	 	 	 	 	 	 	 	 	 	 	 	1581477698	8.91	16.50
12/02/2020 03:21:39	120220	12022020	032139	190.48	13.529648	-56.961205	190.63	0.320	-1.550	3.260	190.32	-2.90	3.70	 	 	 	 	 	 	 	 	 	 	 	 	 	 	 	 	 	 	1581477699	9.05	16.76
12/02/2020 03:21:40	120220	12022020	032140	189.99	13.529612	-56.961215	190.28	0.230	-0.770	3.250	189.98	-2.20	3.70	 	 	 	 	 	 	 	 	 	 	 	 	 	 	 	 	 	 	1581477700	8.92	16.52
12/02/2020 03:21:41	120220	12022020	032141	190.08	13.529577	-56.961225	190.41	-0.280	0.200	2.920	190.13	-1.20	3.40	 	 	 	 	 	 	 	 	 	 	 	 	 	 	 	 	 	 	1581477701	8.30	15.37
12/02/2020 03:21:42	120220	12022020	032142	190.24	13.529538	-56.961235	190.52	-0.780	0.570	2.630	190.24	-0.80	3.10	 	 	 	 	 	 	 	 	 	 	 	 	 	 	 	 	 	 	1581477702	7.88	14.59
12/02/2020 03:21:43	120220	12022020	032143	190.19	13.529498	-56.961248	190.47	-0.760	0.190	2.380	190.19	-1.10	2.90	 	 	 	 	 	 	 	 	 	 	 	 	 	 	 	 	 	 	1581477703	8.32	15.41
12/02/2020 03:21:44	120220	12022020	032144	190.23	13.529457	-56.961258	190.56	-0.310	-0.150	1.950	190.26	-1.50	2.50	 	 	 	 	 	 	 	 	 	 	 	 	 	 	 	 	 	 	1581477704	9.22	17.08
12/02/2020 03:21:45	120220	12022020	032145	190.52	13.529417	-56.961267	190.82	0.190	-0.130	1.360	190.59	-1.50	1.90	 	 	 	 	 	 	 	 	 	 	 	 	 	 	 	 	 	 	1581477705	9.29	17.21
12/02/2020 03:21:46	120220	12022020	032146	190.96	13.529377	-56.961272	191.28	0.490	0.040	0.680	191.06	-1.30	1.20	 	 	 	 	 	 	 	 	 	 	 	 	 	 	 	 	 	 	1581477706	8.74	16.19
12/02/2020 03:21:47	120220	12022020	032147	191.51	13.529338	-56.961275	191.82	0.530	0.100	0.180	191.61	-1.30	0.70	 	 	 	 	 	 	 	 	 	 	 	 	 	 	 	 	 	 	1581477707	8.38	15.52
12/02/2020 03:21:48	120220	12022020	032148	191.95	13.529300	-56.961280	192.23	0.390	-0.130	0.140	192.02	-1.50	0.60	 	 	 	 	 	 	 	 	 	 	 	 	 	 	 	 	 	 	1581477708	8.33	15.43
12/02/2020 03:21:49	120220	12022020	032149	192.12	13.529260	-56.961290	192.36	0.260	-0.610	0.650	192.12	-2.00	1.10	 	 	 	 	 	 	 	 	 	 	 	 	 	 	 	 	 	 	1581477709	8.47	15.69
12/02/2020 03:21:50	120220	12022020	032150	191.97	13.529220	-56.961303	192.15	0.240	-1.030	1.510	191.89	-2.40	1.90	 	 	 	 	 	 	 	 	 	 	 	 	 	 	 	 	 	 	1581477710	8.77	16.24
12/02/2020 03:21:51	120220	12022020	032151	191.46	13.529180	-56.961315	191.60	0.200	-1.190	2.530	191.32	-2.60	2.90	 	 	 	 	 	 	 	 	 	 	 	 	 	 	 	 	 	 	1581477711	8.92	16.52
12/02/2020 03:21:52	120220	12022020	032152	190.76	13.529142	-56.961328	190.90	-0.090	-0.970	3.390	190.61	-2.40	3.80	 	 	 	 	 	 	 	 	 	 	 	 	 	 	 	 	 	 	1581477712	8.94	16.56
12/02/2020 03:21:53	120220	12022020	032153	190.13	13.529103	-56.961343	190.33	-0.570	-0.360	3.860	190.02	-1.80	4.30	 	 	 	 	 	 	 	 	 	 	 	 	 	 	 	 	 	 	1581477713	8.89	16.46
12/02/2020 03:21:54	120220	12022020	032154	189.72	13.529067	-56.961357	189.96	-0.920	0.350	3.790	189.68	-1.00	4.30	 	 	 	 	 	 	 	 	 	 	 	 	 	 	 	 	 	 	1581477714	8.68	16.08
12/02/2020 03:21:55	120220	12022020	032155	189.65	13.529028	-56.961368	189.95	-0.790	0.720	3.120	189.67	-0.70	3.60	 	 	 	 	 	 	 	 	 	 	 	 	 	 	 	 	 	 	1581477715	8.50	15.74
12/02/2020 03:21:56	120220	12022020	032156	189.96	13.528987	-56.961375	190.31	-0.210	0.720	1.870	190.08	-0.70	2.40	 	 	 	 	 	 	 	 	 	 	 	 	 	 	 	 	 	 	1581477716	8.65	16.02
12/02/2020 03:21:57	120220	12022020	032157	190.71	13.528947	-56.961378	191.11	0.360	0.690	0.390	190.91	-0.70	0.90	 	 	 	 	 	 	 	 	 	 	 	 	 	 	 	 	 	 	1581477717	8.88	16.45
12/02/2020 03:21:58	120220	12022020	032158	191.53	13.528910	-56.961382	192.09	0.500	0.550	-0.570	191.73	-0.80	-0.10	 	 	 	 	 	 	 	 	 	 	 	 	 	 	 	 	 	 	1581477718	8.64	16.00
12/02/2020 03:21:59	120220	12022020	032159	192.45	13.528872	-56.961390	192.70	0.340	-0.160	-0.510	192.51	-1.50	-0.10	 	 	 	 	 	 	 	 	 	 	 	 	 	 	 	 	 	 	1581477719	8.14	15.08
12/02/2020 03:22:00	120220	12022020	032200	192.44	13.528832	-56.961402	192.59	0.400	-1.470	0.340	192.36	-2.80	0.80	 	 	 	 	 	 	 	 	 	 	 	 	 	 	 	 	 	 	1581477720	8.23	15.24
12/02/2020 03:22:01	120220	12022020	032201	191.86	13.528790	-56.961415	191.99	0.650	-2.450	1.560	191.71	-3.80	1.90	1017.00	26.10	26.20	20.50	20.60	-1.0	71.0	71.0	391.0	25.7	257.00	10.20	67.00	12.00	16	8760.0	27.2	27.2	1581477721	9.03	16.72
12/02/2020 03:22:02	120220	12022020	032202	191.10	13.528750	-56.961428	191.24	0.610	-2.330	2.720	190.95	-3.70	3.10	 	 	 	 	 	 	 	 	 	 	 	 	 	 	 	 	 	 	1581477722	9.40	17.41
12/02/2020 03:22:03	120220	12022020	032203	190.42	13.528715	-56.961442	190.59	0.130	-1.110	3.330	190.32	-2.60	3.80	 	 	 	 	 	 	 	 	 	 	 	 	 	 	 	 	 	 	1581477723	8.91	16.50
12/02/2020 03:22:04	120220	12022020	032204	190.08	13.528680	-56.961452	190.34	-0.570	0.510	3.280	190.08	-1.00	3.80	 	 	 	 	 	 	 	 	 	 	 	 	 	 	 	 	 	 	1581477724	8.18	15.15
12/02/2020 03:22:05	120220	12022020	032205	190.25	13.528645	-56.961462	190.56	-1.120	1.630	2.800	190.33	0.20	3.30	 	 	 	 	 	 	 	 	 	 	 	 	 	 	 	 	 	 	1581477725	7.77	14.39
12/02/2020 03:22:06	120220	12022020	032206	190.66	13.528605	-56.961472	190.98	-1.210	1.710	2.170	190.75	0.40	2.70	 	 	 	 	 	 	 	 	 	 	 	 	 	 	 	 	 	 	1581477726	7.96	14.74
12/02/2020 03:22:07	120220	12022020	032207	190.98	13.528563	-56.961482	191.25	-0.810	0.920	1.680	191.02	-0.40	2.20	 	 	 	 	 	 	 	 	 	 	 	 	 	 	 	 	 	 	1581477727	8.64	16.00
12/02/2020 03:22:08	120220	12022020	032208	191.07	13.528522	-56.961493	191.29	-0.130	-0.130	1.570	191.06	-1.50	2.00	 	 	 	 	 	 	 	 	 	 	 	 	 	 	 	 	 	 	1581477728	9.30	17.22
12/02/2020 03:22:09	120220	12022020	032209	190.92	13.528480	-56.961505	191.10	0.530	-0.920	1.630	190.87	-2.30	2.10	 	 	 	 	 	 	 	 	 	 	 	 	 	 	 	 	 	 	1581477729	9.40	17.41
12/02/2020 03:22:10	120220	12022020	032210	190.69	13.528442	-56.961513	190.88	0.930	-1.080	1.510	190.66	-2.50	2.00	 	 	 	 	 	 	 	 	 	 	 	 	 	 	 	 	 	 	1581477730	9.07	16.80
12/02/2020 03:22:11	120220	12022020	032211	190.55	13.528407	-56.961520	190.75	0.930	-0.630	1.320	190.54	-2.00	1.80	 	 	 	 	 	 	 	 	 	 	 	 	 	 	 	 	 	 	1581477731	8.43	15.61
12/02/2020 03:22:12	120220	12022020	032212	190.50	13.528372	-56.961523	190.72	0.630	-0.140	1.120	190.50	-1.50	1.60	 	 	 	 	 	 	 	 	 	 	 	 	 	 	 	 	 	 	1581477732	7.76	14.37
12/02/2020 03:22:13	120220	12022020	032213	190.53	13.528333	-56.961532	190.76	0.170	-0.150	1.160	190.54	-1.50	1.60	 	 	 	 	 	 	 	 	 	 	 	 	 	 	 	 	 	 	1581477733	7.64	14.15
12/02/2020 03:22:14	120220	12022020	032214	190.53	13.528293	-56.961543	190.74	-0.260	-0.670	1.650	190.52	-2.00	2.10	 	 	 	 	 	 	 	 	 	 	 	 	 	 	 	 	 	 	1581477734	8.18	15.15
12/02/2020 03:22:15	120220	12022020	032215	190.48	13.528253	-56.961560	190.68	-0.540	-1.030	2.330	190.45	-2.40	2.80	 	 	 	 	 	 	 	 	 	 	 	 	 	 	 	 	 	 	1581477735	8.98	16.63
12/02/2020 03:22:16	120220	12022020	032216	190.36	13.528217	-56.961577	190.56	-0.570	-0.740	2.860	190.32	-2.10	3.30	 	 	 	 	 	 	 	 	 	 	 	 	 	 	 	 	 	 	1581477736	9.28	17.19
12/02/2020 03:22:17	120220	12022020	032217	190.16	13.528180	-56.961588	190.38	-0.330	-0.120	2.920	190.11	-1.50	3.40	 	 	 	 	 	 	 	 	 	 	 	 	 	 	 	 	 	 	1581477737	8.73	16.17
12/02/2020 03:22:18	120220	12022020	032218	189.95	13.528142	-56.961595	190.16	0.030	0.130	2.590	189.90	-1.20	3.10	 	 	 	 	 	 	 	 	 	 	 	 	 	 	 	 	 	 	1581477738	8.20	15.19
12/02/2020 03:22:19	120220	12022020	032219	189.69	13.528100	-56.961602	189.89	0.320	-0.040	2.240	189.64	-1.40	2.70	 	 	 	 	 	 	 	 	 	 	 	 	 	 	 	 	 	 	1581477739	8.50	15.74
12/02/2020 03:22:20	120220	12022020	032220	189.57	13.528058	-56.961607	189.85	0.380	-0.000	1.900	189.60	-1.40	2.40	 	 	 	 	 	 	 	 	 	 	 	 	 	 	 	 	 	 	1581477740	9.04	16.74
12/02/2020 03:22:21	120220	12022020	032221	189.95	13.528022	-56.961612	190.30	0.100	0.460	1.540	190.07	-0.90	2.10	 	 	 	 	 	 	 	 	 	 	 	 	 	 	 	 	 	 	1581477741	8.90	16.48
12/02/2020 03:22:22	120220	12022020	032222	190.52	13.527985	-56.961620	190.83	-0.370	0.520	1.380	190.60	-0.80	1.90	 	 	 	 	 	 	 	 	 	 	 	 	 	 	 	 	 	 	1581477742	8.13	15.06
12/02/2020 03:22:23	120220	12022020	032223	190.77	13.527945	-56.961633	191.01	-0.600	-0.180	1.720	190.77	-1.50	2.20	 	 	 	 	 	 	 	 	 	 	 	 	 	 	 	 	 	 	1581477743	8.04	14.89
12/02/2020 03:22:24	120220	12022020	032224	190.65	13.527905	-56.961648	190.87	-0.330	-0.970	2.200	190.61	-2.30	2.70	 	 	 	 	 	 	 	 	 	 	 	 	 	 	 	 	 	 	1581477744	8.86	16.41
12/02/2020 03:22:25	120220	12022020	032225	190.41	13.527867	-56.961660	190.62	0.260	-1.070	2.260	190.36	-2.40	2.80	 	 	 	 	 	 	 	 	 	 	 	 	 	 	 	 	 	 	1581477745	9.27	17.17
12/02/2020 03:22:26	120220	12022020	032226	190.10	13.527830	-56.961667	190.27	0.700	-0.740	2.100	190.02	-2.10	2.60	 	 	 	 	 	 	 	 	 	 	 	 	 	 	 	 	 	 	1581477746	8.61	15.95
12/02/2020 03:22:27	120220	12022020	032227	189.59	13.527792	-56.961673	189.74	0.770	-0.470	2.130	189.45	-1.90	2.60	 	 	 	 	 	 	 	 	 	 	 	 	 	 	 	 	 	 	1581477747	8.14	15.08
12/02/2020 03:22:28	120220	12022020	032228	189.03	13.527752	-56.961680	189.24	0.470	-0.270	2.320	188.97	-1.70	2.80	 	 	 	 	 	 	 	 	 	 	 	 	 	 	 	 	 	 	1581477748	8.35	15.46
12/02/2020 03:22:29	120220	12022020	032229	188.97	13.527713	-56.961690	189.26	-0.070	0.190	2.390	189.01	-1.20	2.90	 	 	 	 	 	 	 	 	 	 	 	 	 	 	 	 	 	 	1581477749	8.67	16.06
12/02/2020 03:22:30	120220	12022020	032230	189.27	13.527677	-56.961700	189.59	-0.520	0.570	2.380	189.35	-0.80	2.90	 	 	 	 	 	 	 	 	 	 	 	 	 	 	 	 	 	 	1581477750	8.42	15.59
12/02/2020 03:22:31	120220	12022020	032231	189.58	13.527638	-56.961712	189.89	-0.590	0.330	2.340	189.64	-1.00	2.80	 	 	 	 	 	 	 	 	 	 	 	 	 	 	 	 	 	 	1581477751	8.20	15.19
12/02/2020 03:22:32	120220	12022020	032232	189.88	13.527597	-56.961722	190.19	-0.340	-0.340	2.040	189.95	-1.70	2.50	 	 	 	 	 	 	 	 	 	 	 	 	 	 	 	 	 	 	1581477752	8.67	16.06
12/02/2020 03:22:33	120220	12022020	032233	190.24	13.527557	-56.961732	190.54	-0.070	-0.800	1.660	190.30	-2.10	2.20	 	 	 	 	 	 	 	 	 	 	 	 	 	 	 	 	 	 	1581477753	9.14	16.93
12/02/2020 03:22:34	120220	12022020	032234	190.44	13.527518	-56.961738	190.72	0.080	-0.770	1.410	190.47	-2.20	1.90	 	 	 	 	 	 	 	 	 	 	 	 	 	 	 	 	 	 	1581477754	8.93	16.54
12/02/2020 03:22:35	120220	12022020	032235	190.43	13.527480	-56.961745	190.64	0.230	-0.610	1.370	190.39	-2.00	1.90	 	 	 	 	 	 	 	 	 	 	 	 	 	 	 	 	 	 	1581477755	8.38	15.52
12/02/2020 03:22:36	120220	12022020	032236	190.13	13.527440	-56.961752	190.32	0.410	-0.660	1.590	190.06	-2.00	2.10	 	 	 	 	 	 	 	 	 	 	 	 	 	 	 	 	 	 	1581477756	8.23	15.24
12/02/2020 03:22:37	120220	12022020	032237	189.83	13.527398	-56.961758	190.06	0.390	-0.670	1.810	189.80	-2.00	2.30	 	 	 	 	 	 	 	 	 	 	 	 	 	 	 	 	 	 	1581477757	8.68	16.08
12/02/2020 03:22:38	120220	12022020	032238	189.82	13.527360	-56.961767	190.10	0.020	-0.190	1.830	189.84	-1.60	2.30	 	 	 	 	 	 	 	 	 	 	 	 	 	 	 	 	 	 	1581477758	9.01	16.69
12/02/2020 03:22:39	120220	12022020	032239	189.92	13.527323	-56.961775	190.19	-0.520	0.400	1.930	189.92	-1.00	2.40	 	 	 	 	 	 	 	 	 	 	 	 	 	 	 	 	 	 	1581477759	8.59	15.91
12/02/2020 03:22:40	120220	12022020	032240	189.86	13.527285	-56.961788	190.11	-0.830	0.590	2.330	189.83	-0.80	2.80	 	 	 	 	 	 	 	 	 	 	 	 	 	 	 	 	 	 	1581477760	8.25	15.28
12/02/2020 03:22:41	120220	12022020	032241	189.66	13.527245	-56.961803	189.91	-0.660	0.400	2.690	189.63	-1.00	3.20	 	 	 	 	 	 	 	 	 	 	 	 	 	 	 	 	 	 	1581477761	8.57	15.87
12/02/2020 03:22:42	120220	12022020	032242	189.67	13.527205	-56.961815	189.98	-0.110	0.220	2.410	189.73	-1.10	2.90	 	 	 	 	 	 	 	 	 	 	 	 	 	 	 	 	 	 	1581477762	9.01	16.69
12/02/2020 03:22:43	120220	12022020	032243	190.11	13.527168	-56.961820	190.46	0.440	0.230	1.550	190.22	-1.10	2.10	 	 	 	 	 	 	 	 	 	 	 	 	 	 	 	 	 	 	1581477763	8.85	16.39
12/02/2020 03:22:44	120220	12022020	032244	190.55	13.527130	-56.961823	190.83	0.760	-0.130	0.850	190.59	-1.50	1.40	 	 	 	 	 	 	 	 	 	 	 	 	 	 	 	 	 	 	1581477764	8.24	15.26
12/02/2020 03:22:45	120220	12022020	032245	190.52	13.527088	-56.961828	190.69	0.820	-1.100	0.830	190.45	-2.40	1.30	 	 	 	 	 	 	 	 	 	 	 	 	 	 	 	 	 	 	1581477765	8.30	15.37
12/02/2020 03:22:46	120220	12022020	032246	190.15	13.527045	-56.961838	190.23	0.570	-1.890	1.410	190.06	-3.20	1.90	 	 	 	 	 	 	 	 	 	 	 	 	 	 	 	 	 	 	1581477766	9.03	16.72
12/02/2020 03:22:47	120220	12022020	032247	189.86	13.527007	-56.961852	190.12	-0.040	-1.510	2.040	189.89	-2.90	2.50	 	 	 	 	 	 	 	 	 	 	 	 	 	 	 	 	 	 	1581477767	9.40	17.41
12/02/2020 03:22:48	120220	12022020	032248	190.09	13.526973	-56.961865	190.51	-0.680	-0.240	2.200	190.18	-1.70	2.70	 	 	 	 	 	 	 	 	 	 	 	 	 	 	 	 	 	 	1581477768	8.64	16.00
12/02/2020 03:22:49	120220	12022020	032249	190.55	13.526940	-56.961875	190.83	-0.840	0.640	2.020	190.59	-0.70	2.50	 	 	 	 	 	 	 	 	 	 	 	 	 	 	 	 	 	 	1581477769	7.63	14.13
12/02/2020 03:22:50	120220	12022020	032250	190.63	13.526900	-56.961883	190.86	-0.310	0.410	1.800	190.62	-0.90	2.30	 	 	 	 	 	 	 	 	 	 	 	 	 	 	 	 	 	 	1581477770	7.70	14.26
12/02/2020 03:22:51	120220	12022020	032251	190.64	13.526855	-56.961890	190.89	0.270	-0.200	1.610	190.65	-1.50	2.10	 	 	 	 	 	 	 	 	 	 	 	 	 	 	 	 	 	 	1581477771	8.94	16.56
12/02/2020 03:22:52	120220	12022020	032252	190.76	13.526813	-56.961897	191.01	0.300	-0.380	1.430	190.78	-1.80	1.90	 	 	 	 	 	 	 	 	 	 	 	 	 	 	 	 	 	 	1581477772	9.62	17.82
12/02/2020 03:22:53	120220	12022020	032253	190.84	13.526775	-56.961905	191.06	-0.170	-0.170	1.460	190.85	-1.60	1.90	 	 	 	 	 	 	 	 	 	 	 	 	 	 	 	 	 	 	1581477773	9.15	16.95
12/02/2020 03:22:54	120220	12022020	032254	190.91	13.526737	-56.961917	191.13	-0.550	0.080	1.670	190.93	-1.30	2.10	 	 	 	 	 	 	 	 	 	 	 	 	 	 	 	 	 	 	1581477774	8.50	15.74
12/02/2020 03:22:55	120220	12022020	032255	191.03	13.526698	-56.961928	191.26	-0.420	0.080	1.780	191.06	-1.30	2.30	 	 	 	 	 	 	 	 	 	 	 	 	 	 	 	 	 	 	1581477775	8.39	15.54
12/02/2020 03:22:56	120220	12022020	032256	191.13	13.526660	-56.961938	191.34	0.060	-0.210	1.860	191.12	-1.60	2.30	 	 	 	 	 	 	 	 	 	 	 	 	 	 	 	 	 	 	1581477776	8.55	15.83
12/02/2020 03:22:57	120220	12022020	032257	190.98	13.526618	-56.961948	191.13	0.470	-0.640	1.960	190.91	-2.00	2.40	 	 	 	 	 	 	 	 	 	 	 	 	 	 	 	 	 	 	1581477777	8.82	16.33
12/02/2020 03:22:58	120220	12022020	032258	190.55	13.526578	-56.961958	190.70	0.490	-0.850	2.180	190.46	-2.20	2.60	 	 	 	 	 	 	 	 	 	 	 	 	 	 	 	 	 	 	1581477778	9.03	16.72
12/02/2020 03:22:59	120220	12022020	032259	190.24	13.526540	-56.961970	190.45	0.140	-0.400	2.280	190.22	-1.80	2.80	 	 	 	 	 	 	 	 	 	 	 	 	 	 	 	 	 	 	1581477779	9.00	16.67
12/02/2020 03:23:00	120220	12022020	032300	190.32	13.526505	-56.961980	190.59	-0.280	0.470	2.120	190.37	-0.90	2.60	 	 	 	 	 	 	 	 	 	 	 	 	 	 	 	 	 	 	1581477780	8.46	15.67
12/02/2020 03:23:01	120220	12022020	032301	190.58	13.526468	-56.961990	190.83	-0.430	0.750	1.810	190.62	-0.60	2.30	1017.00	26.20	26.20	20.80	20.80	-1.0	72.0	72.0	391.0	25.7	264.00	10.00	71.00	11.30	16	8666.0	27.2	27.2	1581477781	7.75	14.35
12/02/2020 03:23:02	120220	12022020	032302	190.78	13.526428	-56.962000	191.00	-0.140	0.160	1.480	190.81	-1.20	2.00	 	 	 	 	 	 	 	 	 	 	 	 	 	 	 	 	 	 	1581477782	8.05	14.91
12/02/2020 03:23:03	120220	12022020	032303	190.87	13.526387	-56.962008	191.05	0.430	-0.660	1.220	190.85	-2.00	1.70	 	 	 	 	 	 	 	 	 	 	 	 	 	 	 	 	 	 	1581477783	8.92	16.52
12/02/2020 03:23:04	120220	12022020	032304	190.68	13.526345	-56.962015	190.84	0.930	-1.220	1.090	190.63	-2.60	1.60	 	 	 	 	 	 	 	 	 	 	 	 	 	 	 	 	 	 	1581477784	9.27	17.17
12/02/2020 03:23:05	120220	12022020	032305	190.48	13.526303	-56.962020	190.67	0.930	-1.260	1.060	190.47	-2.60	1.60	 	 	 	 	 	 	 	 	 	 	 	 	 	 	 	 	 	 	1581477785	9.19	17.02
12/02/2020 03:23:06	120220	12022020	032306	190.58	13.526265	-56.962027	190.84	0.270	-0.810	1.340	190.64	-2.20	1.80	 	 	 	 	 	 	 	 	 	 	 	 	 	 	 	 	 	 	1581477786	8.92	16.52
12/02/2020 03:23:07	120220	12022020	032307	190.85	13.526228	-56.962040	191.11	-0.660	-0.270	2.050	190.89	-1.70	2.50	 	 	 	 	 	 	 	 	 	 	 	 	 	 	 	 	 	 	1581477787	8.42	15.59
12/02/2020 03:23:08	120220	12022020	032308	190.92	13.526190	-56.962057	191.13	-1.210	-0.110	2.960	190.88	-1.50	3.40	 	 	 	 	 	 	 	 	 	 	 	 	 	 	 	 	 	 	1581477788	8.33	15.43
12/02/2020 03:23:09	120220	12022020	032309	190.55	13.526148	-56.962075	190.73	-1.040	-0.390	3.660	190.45	-1.70	4.10	 	 	 	 	 	 	 	 	 	 	 	 	 	 	 	 	 	 	1581477789	8.90	16.48
12/02/2020 03:23:10	120220	12022020	032310	190.06	13.526107	-56.962090	190.27	-0.460	-0.410	3.820	189.98	-1.80	4.30	 	 	 	 	 	 	 	 	 	 	 	 	 	 	 	 	 	 	1581477790	9.63	17.83
12/02/2020 03:23:11	120220	12022020	032311	189.84	13.526067	-56.962098	190.12	-0.000	0.220	3.330	189.86	-1.20	3.90	 	 	 	 	 	 	 	 	 	 	 	 	 	 	 	 	 	 	1581477791	9.57	17.72
12/02/2020 03:23:12	120220	12022020	032312	190.02	13.526030	-56.962103	190.31	0.130	1.070	2.310	190.08	-0.30	2.90	 	 	 	 	 	 	 	 	 	 	 	 	 	 	 	 	 	 	1581477792	8.71	16.13
12/02/2020 03:23:13	120220	12022020	032313	190.28	13.525992	-56.962107	190.55	0.150	1.220	1.360	190.33	-0.10	1.90	 	 	 	 	 	 	 	 	 	 	 	 	 	 	 	 	 	 	1581477793	8.01	14.83
12/02/2020 03:23:14	120220	12022020	032314	190.53	13.525952	-56.962110	190.79	0.390	0.590	0.650	190.58	-0.70	1.20	 	 	 	 	 	 	 	 	 	 	 	 	 	 	 	 	 	 	1581477794	8.25	15.28
12/02/2020 03:23:15	120220	12022020	032315	190.82	13.525910	-56.962117	191.08	0.880	-0.350	0.200	190.87	-1.70	0.70	 	 	 	 	 	 	 	 	 	 	 	 	 	 	 	 	 	 	1581477795	8.86	16.41
12/02/2020 03:23:16	120220	12022020	032316	190.96	13.525868	-56.962122	191.16	1.270	-1.270	0.230	190.94	-2.60	0.70	 	 	 	 	 	 	 	 	 	 	 	 	 	 	 	 	 	 	1581477796	9.07	16.80
12/02/2020 03:23:17	120220	12022020	032317	190.65	13.525827	-56.962130	190.80	1.110	-2.040	1.060	190.54	-3.40	1.50	 	 	 	 	 	 	 	 	 	 	 	 	 	 	 	 	 	 	1581477797	9.02	16.71
12/02/2020 03:23:18	120220	12022020	032318	190.01	13.525787	-56.962145	190.17	0.230	-2.220	2.460	189.87	-3.60	2.90	 	 	 	 	 	 	 	 	 	 	 	 	 	 	 	 	 	 	1581477798	9.10	16.85
12/02/2020 03:23:19	120220	12022020	032319	189.41	13.525750	-56.962165	189.62	-0.970	-1.520	3.680	189.32	-2.90	4.10	 	 	 	 	 	 	 	 	 	 	 	 	 	 	 	 	 	 	1581477799	9.15	16.95
12/02/2020 03:23:20	120220	12022020	032320	189.05	13.525715	-56.962187	189.32	-1.720	-0.330	4.280	189.02	-1.80	4.80	 	 	 	 	 	 	 	 	 	 	 	 	 	 	 	 	 	 	1581477800	8.99	16.65
12/02/2020 03:23:21	120220	12022020	032321	189.07	13.525678	-56.962203	189.42	-1.450	0.710	3.900	189.13	-0.70	4.40	 	 	 	 	 	 	 	 	 	 	 	 	 	 	 	 	 	 	1581477801	8.82	16.33
12/02/2020 03:23:22	120220	12022020	032322	189.52	13.525638	-56.962212	189.89	-0.450	1.240	2.700	189.64	-0.10	3.30	 	 	 	 	 	 	 	 	 	 	 	 	 	 	 	 	 	 	1581477802	8.63	15.98
12/02/2020 03:23:23	120220	12022020	032323	190.11	13.525595	-56.962212	190.45	0.490	1.110	1.430	190.23	-0.20	2.00	 	 	 	 	 	 	 	 	 	 	 	 	 	 	 	 	 	 	1581477803	8.75	16.21
12/02/2020 03:23:24	120220	12022020	032324	190.56	13.525552	-56.962213	190.96	0.800	0.530	0.550	190.66	-0.80	1.10	 	 	 	 	 	 	 	 	 	 	 	 	 	 	 	 	 	 	1581477804	9.18	17.00
12/02/2020 03:23:25	120220	12022020	032325	191.05	13.525510	-56.962218	191.29	0.550	-0.190	0.580	191.09	-1.50	1.10	 	 	 	 	 	 	 	 	 	 	 	 	 	 	 	 	 	 	1581477805	9.34	17.30
12/02/2020 03:23:26	120220	12022020	032326	191.05	13.525470	-56.962228	191.21	0.300	-0.840	1.310	191.00	-2.20	1.80	 	 	 	 	 	 	 	 	 	 	 	 	 	 	 	 	 	 	1581477806	8.99	16.65
12/02/2020 03:23:27	120220	12022020	032327	190.67	13.525432	-56.962240	190.80	0.360	-1.240	2.270	190.56	-2.60	2.70	 	 	 	 	 	 	 	 	 	 	 	 	 	 	 	 	 	 	1581477807	8.84	16.37
12/02/2020 03:23:28	120220	12022020	032328	190.09	13.525392	-56.962252	190.22	0.470	-1.200	3.010	189.98	-2.60	3.50	 	 	 	 	 	 	 	 	 	 	 	 	 	 	 	 	 	 	1581477808	8.83	16.35
12/02/2020 03:23:29	120220	12022020	032329	189.64	13.525355	-56.962262	189.82	0.210	-0.750	3.180	189.58	-2.20	3.70	 	 	 	 	 	 	 	 	 	 	 	 	 	 	 	 	 	 	1581477809	8.70	16.11
12/02/2020 03:23:30	120220	12022020	032330	189.42	13.525317	-56.962273	189.63	-0.360	-0.250	3.040	189.39	-1.70	3.50	 	 	 	 	 	 	 	 	 	 	 	 	 	 	 	 	 	 	1581477810	8.41	15.58
12/02/2020 03:23:31	120220	12022020	032331	189.41	13.525278	-56.962285	189.67	-0.800	0.020	2.640	189.44	-1.40	3.10	 	 	 	 	 	 	 	 	 	 	 	 	 	 	 	 	 	 	1581477811	8.37	15.50
12/02/2020 03:23:32	120220	12022020	032332	189.67	13.525238	-56.962295	189.96	-0.710	0.090	1.900	189.75	-1.30	2.40	 	 	 	 	 	 	 	 	 	 	 	 	 	 	 	 	 	 	1581477812	8.62	15.96
12/02/2020 03:23:33	120220	12022020	032333	190.12	13.525198	-56.962302	190.41	-0.100	0.050	1.040	190.22	-1.30	1.60	 	 	 	 	 	 	 	 	 	 	 	 	 	 	 	 	 	 	1581477813	8.79	16.28
12/02/2020 03:23:34	120220	12022020	032334	190.68	13.525157	-56.962307	190.96	0.490	-0.010	0.300	190.80	-1.40	0.80	 	 	 	 	 	 	 	 	 	 	 	 	 	 	 	 	 	 	1581477814	8.86	16.41
12/02/2020 03:23:35	120220	12022020	032335	191.20	13.525117	-56.962312	191.47	0.560	-0.050	0.140	191.28	-1.40	0.60	 	 	 	 	 	 	 	 	 	 	 	 	 	 	 	 	 	 	1581477815	8.87	16.43
12/02/2020 03:23:36	120220	12022020	032336	191.46	13.525078	-56.962320	191.70	0.140	-0.140	0.550	191.50	-1.50	1.00	 	 	 	 	 	 	 	 	 	 	 	 	 	 	 	 	 	 	1581477816	8.64	16.00
12/02/2020 03:23:37	120220	12022020	032337	191.51	13.525040	-56.962333	191.67	-0.260	-0.340	1.300	191.47	-1.70	1.70	 	 	 	 	 	 	 	 	 	 	 	 	 	 	 	 	 	 	1581477817	8.53	15.80
12/02/2020 03:23:38	120220	12022020	032338	191.28	13.525002	-56.962348	191.35	-0.270	-0.570	2.180	191.21	-1.90	2.60	 	 	 	 	 	 	 	 	 	 	 	 	 	 	 	 	 	 	1581477818	8.71	16.13
12/02/2020 03:23:39	120220	12022020	032339	190.89	13.524962	-56.962362	191.06	0.090	-0.540	2.510	190.86	-1.90	3.00	 	 	 	 	 	 	 	 	 	 	 	 	 	 	 	 	 	 	1581477819	8.98	16.63
12/02/2020 03:23:40	120220	12022020	032340	190.77	13.524923	-56.962368	190.96	0.470	-0.320	2.130	190.76	-1.70	2.60	 	 	 	 	 	 	 	 	 	 	 	 	 	 	 	 	 	 	1581477820	8.82	16.33
12/02/2020 03:23:41	120220	12022020	032341	190.69	13.524883	-56.962373	190.84	0.610	-0.340	1.580	190.65	-1.70	2.10	 	 	 	 	 	 	 	 	 	 	 	 	 	 	 	 	 	 	1581477821	8.49	15.72
12/02/2020 03:23:42	120220	12022020	032342	190.45	13.524842	-56.962378	190.59	0.410	-0.530	1.410	190.41	-1.90	1.90	 	 	 	 	 	 	 	 	 	 	 	 	 	 	 	 	 	 	1581477822	8.70	16.11
12/02/2020 03:23:43	120220	12022020	032343	190.27	13.524802	-56.962387	190.46	-0.160	-0.380	1.560	190.26	-1.80	2.00	 	 	 	 	 	 	 	 	 	 	 	 	 	 	 	 	 	 	1581477823	9.01	16.69
12/02/2020 03:23:44	120220	12022020	032344	190.31	13.524765	-56.962398	190.52	-0.820	0.100	1.820	190.34	-1.30	2.30	 	 	 	 	 	 	 	 	 	 	 	 	 	 	 	 	 	 	1581477824	8.70	16.11
12/02/2020 03:23:45	120220	12022020	032345	190.46	13.524728	-56.962413	190.69	-1.060	0.240	1.990	190.50	-1.10	2.50	 	 	 	 	 	 	 	 	 	 	 	 	 	 	 	 	 	 	1581477825	8.24	15.26
12/02/2020 03:23:46	120220	12022020	032346	190.68	13.524690	-56.962428	190.92	-0.630	-0.100	1.880	190.73	-1.50	2.40	 	 	 	 	 	 	 	 	 	 	 	 	 	 	 	 	 	 	1581477826	8.51	15.76
12/02/2020 03:23:47	120220	12022020	032347	190.88	13.524648	-56.962438	191.09	0.190	-0.480	1.600	190.91	-1.90	2.10	 	 	 	 	 	 	 	 	 	 	 	 	 	 	 	 	 	 	1581477827	9.04	16.74
12/02/2020 03:23:48	120220	12022020	032348	191.00	13.524607	-56.962443	191.20	0.800	-0.520	1.120	191.03	-1.90	1.60	 	 	 	 	 	 	 	 	 	 	 	 	 	 	 	 	 	 	1581477828	9.16	16.96
12/02/2020 03:23:49	120220	12022020	032349	191.14	13.524568	-56.962447	191.35	0.810	-0.290	0.680	191.17	-1.70	1.20	 	 	 	 	 	 	 	 	 	 	 	 	 	 	 	 	 	 	1581477829	8.84	16.37
12/02/2020 03:23:50	120220	12022020	032350	191.26	13.524530	-56.962453	191.44	0.380	-0.130	0.610	191.26	-1.50	1.10	 	 	 	 	 	 	 	 	 	 	 	 	 	 	 	 	 	 	1581477830	8.47	15.69
12/02/2020 03:23:51	120220	12022020	032351	191.15	13.524490	-56.962462	191.30	-0.050	-0.220	1.040	191.10	-1.60	1.50	 	 	 	 	 	 	 	 	 	 	 	 	 	 	 	 	 	 	1581477831	8.39	15.54
12/02/2020 03:23:52	120220	12022020	032352	190.90	13.524450	-56.962473	191.05	-0.210	-0.400	1.640	190.85	-1.80	2.10	 	 	 	 	 	 	 	 	 	 	 	 	 	 	 	 	 	 	1581477832	8.65	16.02
12/02/2020 03:23:53	120220	12022020	032353	190.65	13.524410	-56.962487	190.81	-0.230	-0.490	2.240	190.61	-1.90	2.70	 	 	 	 	 	 	 	 	 	 	 	 	 	 	 	 	 	 	1581477833	8.93	16.54
12/02/2020 03:23:54	120220	12022020	032354	190.47	13.524372	-56.962500	190.66	-0.350	-0.370	2.650	190.45	-1.80	3.10	 	 	 	 	 	 	 	 	 	 	 	 	 	 	 	 	 	 	1581477834	8.97	16.61
12/02/2020 03:23:55	120220	12022020	032355	190.43	13.524335	-56.962515	190.65	-0.540	-0.090	2.760	190.44	-1.50	3.20	 	 	 	 	 	 	 	 	 	 	 	 	 	 	 	 	 	 	1581477835	8.82	16.33
12/02/2020 03:23:56	120220	12022020	032356	190.53	13.524297	-56.962527	190.75	-0.480	0.180	2.550	190.55	-1.20	3.00	 	 	 	 	 	 	 	 	 	 	 	 	 	 	 	 	 	 	1581477836	8.56	15.85
12/02/2020 03:23:57	120220	12022020	032357	190.60	13.524258	-56.962535	190.79	0.050	0.130	2.010	190.59	-1.30	2.50	 	 	 	 	 	 	 	 	 	 	 	 	 	 	 	 	 	 	1581477837	8.41	15.58
12/02/2020 03:23:58	120220	12022020	032358	190.58	13.524217	-56.962540	190.75	0.810	-0.280	1.310	190.58	-1.70	1.80	 	 	 	 	 	 	 	 	 	 	 	 	 	 	 	 	 	 	1581477838	8.58	15.89
12/02/2020 03:23:59	120220	12022020	032359	190.76	13.524173	-56.962542	190.98	1.160	-0.550	0.640	190.86	-1.90	1.20	 	 	 	 	 	 	 	 	 	 	 	 	 	 	 	 	 	 	1581477839	9.10	16.85
12/02/2020 03:24:00	120220	12022020	032400	191.34	13.524135	-56.962545	191.60	0.670	-0.320	0.360	191.47	-1.70	0.80	 	 	 	 	 	 	 	 	 	 	 	 	 	 	 	 	 	 	1581477840	9.15	16.95
12/02/2020 03:24:01	120220	12022020	032401	191.86	13.524100	-56.962555	192.07	-0.340	-0.080	0.920	191.90	-1.50	1.30	1017.10	26.10	26.10	20.50	20.60	-1.0	71.0	71.0	391.0	25.7	266.00	10.60	74.00	11.80	16	8524.0	27.2	27.2	1581477841	8.37	15.50
12/02/2020 03:24:02	120220	12022020	032402	191.79	13.524062	-56.962573	191.91	-1.000	-0.440	2.170	191.70	-1.80	2.60	 	 	 	 	 	 	 	 	 	 	 	 	 	 	 	 	 	 	1581477842	7.99	14.80
12/02/2020 03:24:03	120220	12022020	032403	191.23	13.524022	-56.962593	191.36	-0.810	-1.090	3.260	191.12	-2.40	3.70	 	 	 	 	 	 	 	 	 	 	 	 	 	 	 	 	 	 	1581477843	8.83	16.35
12/02/2020 03:24:04	120220	12022020	032404	190.64	13.523980	-56.962608	190.80	-0.100	-1.220	3.660	190.54	-2.60	4.10	 	 	 	 	 	 	 	 	 	 	 	 	 	 	 	 	 	 	1581477844	9.64	17.85
12/02/2020 03:24:05	120220	12022020	032405	190.26	13.523942	-56.962617	190.46	0.450	-0.630	3.310	190.21	-2.10	3.80	 	 	 	 	 	 	 	 	 	 	 	 	 	 	 	 	 	 	1581477845	9.37	17.35
12/02/2020 03:24:06	120220	12022020	032406	190.09	13.523903	-56.962622	190.30	0.470	0.150	2.500	190.08	-1.30	3.00	 	 	 	 	 	 	 	 	 	 	 	 	 	 	 	 	 	 	1581477846	8.58	15.89
12/02/2020 03:24:07	120220	12022020	032407	190.13	13.523865	-56.962625	190.39	0.090	0.690	1.610	190.18	-0.70	2.10	 	 	 	 	 	 	 	 	 	 	 	 	 	 	 	 	 	 	1581477847	8.25	15.28
12/02/2020 03:24:08	120220	12022020	032408	190.45	13.523827	-56.962630	190.72	-0.370	0.860	1.060	190.54	-0.50	1.60	 	 	 	 	 	 	 	 	 	 	 	 	 	 	 	 	 	 	1581477848	8.36	15.48
12/02/2020 03:24:09	120220	12022020	032409	190.83	13.523787	-56.962640	191.08	-0.500	0.500	0.880	190.89	-0.90	1.40	 	 	 	 	 	 	 	 	 	 	 	 	 	 	 	 	 	 	1581477849	8.42	15.59
12/02/2020 03:24:10	120220	12022020	032410	191.17	13.523745	-56.962652	191.44	-0.150	-0.190	0.720	191.27	-1.50	1.20	 	 	 	 	 	 	 	 	 	 	 	 	 	 	 	 	 	 	1581477850	8.76	16.22
12/02/2020 03:24:11	120220	12022020	032411	191.70	13.523705	-56.962660	191.97	0.400	-0.630	0.470	191.82	-2.00	1.00	 	 	 	 	 	 	 	 	 	 	 	 	 	 	 	 	 	 	1581477851	9.11	16.87
12/02/2020 03:24:12	120220	12022020	032412	192.21	13.523667	-56.962667	192.45	0.620	-0.680	0.480	192.28	-2.10	0.90	 	 	 	 	 	 	 	 	 	 	 	 	 	 	 	 	 	 	1581477852	8.86	16.41
12/02/2020 03:24:13	120220	12022020	032413	192.34	13.523630	-56.962677	192.48	0.300	-0.770	1.130	192.28	-2.20	1.60	 	 	 	 	 	 	 	 	 	 	 	 	 	 	 	 	 	 	1581477853	8.28	15.33
12/02/2020 03:24:14	120220	12022020	032414	191.73	13.523592	-56.962693	191.76	-0.150	-1.170	2.360	191.51	-2.50	2.70	 	 	 	 	 	 	 	 	 	 	 	 	 	 	 	 	 	 	1581477854	8.19	15.17
12/02/2020 03:24:15	120220	12022020	032415	190.49	13.523552	-56.962713	190.52	-0.260	-1.480	3.630	190.25	-2.90	4.00	 	 	 	 	 	 	 	 	 	 	 	 	 	 	 	 	 	 	1581477855	8.88	16.45
12/02/2020 03:24:16	120220	12022020	032416	189.61	13.523515	-56.962728	189.78	-0.070	-0.700	4.060	189.55	-2.20	4.50	 	 	 	 	 	 	 	 	 	 	 	 	 	 	 	 	 	 	1581477856	9.60	17.78
12/02/2020 03:24:17	120220	12022020	032417	189.65	13.523480	-56.962737	189.94	0.110	0.670	3.520	189.73	-0.80	4.00	 	 	 	 	 	 	 	 	 	 	 	 	 	 	 	 	 	 	1581477857	8.78	16.26
12/02/2020 03:24:18	120220	12022020	032418	190.11	13.523443	-56.962742	190.38	0.150	1.160	2.510	190.20	-0.20	3.00	 	 	 	 	 	 	 	 	 	 	 	 	 	 	 	 	 	 	1581477858	7.59	14.06
12/02/2020 03:24:19	120220	12022020	032419	190.44	13.523400	-56.962745	190.69	0.150	0.450	1.810	190.50	-0.90	2.30	 	 	 	 	 	 	 	 	 	 	 	 	 	 	 	 	 	 	1581477859	7.99	14.80
12/02/2020 03:24:20	120220	12022020	032420	190.70	13.523357	-56.962753	190.92	0.020	-0.480	1.670	190.73	-1.80	2.10	 	 	 	 	 	 	 	 	 	 	 	 	 	 	 	 	 	 	1581477860	9.19	17.02
12/02/2020 03:24:21	120220	12022020	032421	190.78	13.523318	-56.962765	190.98	-0.230	-0.870	1.910	190.77	-2.30	2.40	 	 	 	 	 	 	 	 	 	 	 	 	 	 	 	 	 	 	1581477861	9.44	17.48
12/02/2020 03:24:22	120220	12022020	032422	190.66	13.523282	-56.962778	190.83	-0.370	-0.740	2.230	190.63	-2.20	2.70	 	 	 	 	 	 	 	 	 	 	 	 	 	 	 	 	 	 	1581477862	8.88	16.45
12/02/2020 03:24:23	120220	12022020	032423	190.57	13.523245	-56.962788	190.75	-0.240	-0.370	2.250	190.58	-1.80	2.70	 	 	 	 	 	 	 	 	 	 	 	 	 	 	 	 	 	 	1581477863	8.31	15.39
12/02/2020 03:24:24	120220	12022020	032424	190.64	13.523208	-56.962797	190.84	0.010	-0.020	1.970	190.66	-1.40	2.50	 	 	 	 	 	 	 	 	 	 	 	 	 	 	 	 	 	 	1581477864	8.07	14.95
12/02/2020 03:24:25	120220	12022020	032425	190.62	13.523170	-56.962803	190.77	0.180	-0.130	1.790	190.58	-1.50	2.30	 	 	 	 	 	 	 	 	 	 	 	 	 	 	 	 	 	 	1581477865	8.01	14.83
12/02/2020 03:24:26	120220	12022020	032426	190.29	13.523128	-56.962813	190.39	0.220	-0.740	2.030	190.19	-2.10	2.50	 	 	 	 	 	 	 	 	 	 	 	 	 	 	 	 	 	 	1581477866	8.42	15.59
12/02/2020 03:24:27	120220	12022020	032427	189.72	13.523087	-56.962825	189.82	0.250	-1.100	2.390	189.61	-2.50	2.90	 	 	 	 	 	 	 	 	 	 	 	 	 	 	 	 	 	 	1581477867	9.12	16.89
12/02/2020 03:24:28	120220	12022020	032428	189.37	13.523048	-56.962833	189.47	0.290	-0.580	2.400	189.31	-2.00	2.90	 	 	 	 	 	 	 	 	 	 	 	 	 	 	 	 	 	 	1581477868	9.33	17.28
12/02/2020 03:24:29	120220	12022020	032429	189.21	13.523012	-56.962840	189.42	0.150	0.410	2.260	189.23	-1.00	2.80	 	 	 	 	 	 	 	 	 	 	 	 	 	 	 	 	 	 	1581477869	8.57	15.87
12/02/2020 03:24:30	120220	12022020	032430	189.47	13.522977	-56.962848	189.75	-0.300	1.100	2.080	189.56	-0.30	2.60	 	 	 	 	 	 	 	 	 	 	 	 	 	 	 	 	 	 	1581477870	7.84	14.52
12/02/2020 03:24:31	120220	12022020	032431	190.09	13.522942	-56.962860	190.41	-0.780	1.180	1.840	190.25	-0.20	2.30	 	 	 	 	 	 	 	 	 	 	 	 	 	 	 	 	 	 	1581477871	7.81	14.46
12/02/2020 03:24:32	120220	12022020	032432	190.88	13.522903	-56.962872	191.18	-0.800	0.560	1.430	191.02	-0.80	1.90	 	 	 	 	 	 	 	 	 	 	 	 	 	 	 	 	 	 	1581477872	8.04	14.89
12/02/2020 03:24:33	120220	12022020	032433	191.40	13.522863	-56.962880	191.62	-0.090	-0.680	0.960	191.44	-2.00	1.50	 	 	 	 	 	 	 	 	 	 	 	 	 	 	 	 	 	 	1581477873	8.42	15.59
12/02/2020 03:24:34	120220	12022020	032434	191.35	13.522820	-56.962888	191.47	0.910	-2.010	0.960	191.28	-3.30	1.40	 	 	 	 	 	 	 	 	 	 	 	 	 	 	 	 	 	 	1581477874	8.98	16.63
12/02/2020 03:24:35	120220	12022020	032435	190.85	13.522777	-56.962895	190.92	1.380	-2.570	1.490	190.71	-3.90	1.90	 	 	 	 	 	 	 	 	 	 	 	 	 	 	 	 	 	 	1581477875	9.46	17.52
12/02/2020 03:24:36	120220	12022020	032436	190.09	13.522738	-56.962903	190.15	0.970	-1.900	2.290	189.93	-3.30	2.70	 	 	 	 	 	 	 	 	 	 	 	 	 	 	 	 	 	 	1581477876	9.22	17.08
12/02/2020 03:24:37	120220	12022020	032437	189.54	13.522703	-56.962915	189.72	-0.130	-0.250	2.960	189.52	-1.70	3.40	 	 	 	 	 	 	 	 	 	 	 	 	 	 	 	 	 	 	1581477877	8.48	15.70
12/02/2020 03:24:38	120220	12022020	032438	189.71	13.522672	-56.962927	190.03	-1.360	1.450	3.130	189.82	0.00	3.60	 	 	 	 	 	 	 	 	 	 	 	 	 	 	 	 	 	 	1581477878	7.76	14.37
12/02/2020 03:24:39	120220	12022020	032439	190.32	13.522637	-56.962942	190.66	-1.990	2.150	2.900	190.45	0.80	3.40	 	 	 	 	 	 	 	 	 	 	 	 	 	 	 	 	 	 	1581477879	7.46	13.82
12/02/2020 03:24:40	120220	12022020	032440	190.87	13.522597	-56.962957	191.15	-1.560	1.480	2.380	190.94	0.20	2.90	 	 	 	 	 	 	 	 	 	 	 	 	 	 	 	 	 	 	1581477880	8.08	14.96
12/02/2020 03:24:41	120220	12022020	032441	191.14	13.522553	-56.962968	191.38	-0.300	0.130	1.590	191.18	-1.20	2.10	 	 	 	 	 	 	 	 	 	 	 	 	 	 	 	 	 	 	1581477881	9.17	16.98
12/02/2020 03:24:42	120220	12022020	032442	191.27	13.522510	-56.962973	191.47	0.940	-0.740	0.750	191.28	-2.10	1.30	 	 	 	 	 	 	 	 	 	 	 	 	 	 	 	 	 	 	1581477882	9.79	18.13
12/02/2020 03:24:43	120220	12022020	032443	191.23	13.522472	-56.962977	191.40	1.490	-0.910	0.250	191.20	-2.30	0.80	 	 	 	 	 	 	 	 	 	 	 	 	 	 	 	 	 	 	1581477883	9.28	17.19
12/02/2020 03:24:44	120220	12022020	032444	191.08	13.522435	-56.962980	191.25	1.240	-0.760	0.190	191.06	-2.20	0.70	 	 	 	 	 	 	 	 	 	 	 	 	 	 	 	 	 	 	1581477884	8.38	15.52
12/02/2020 03:24:45	120220	12022020	032445	191.04	13.522398	-56.962987	191.21	0.560	-0.610	0.560	191.03	-2.00	1.00	 	 	 	 	 	 	 	 	 	 	 	 	 	 	 	 	 	 	1581477885	7.95	14.72
12/02/2020 03:24:46	120220	12022020	032446	190.95	13.522362	-56.962998	191.11	0.020	-0.670	1.310	190.91	-2.00	1.70	 	 	 	 	 	 	 	 	 	 	 	 	 	 	 	 	 	 	1581477886	7.93	14.69
12/02/2020 03:24:47	120220	12022020	032447	190.73	13.522322	-56.963012	190.90	-0.230	-0.810	2.120	190.69	-2.20	2.50	 	 	 	 	 	 	 	 	 	 	 	 	 	 	 	 	 	 	1581477887	8.36	15.48
12/02/2020 03:24:48	120220	12022020	032448	190.48	13.522283	-56.963027	190.64	-0.410	-0.750	2.700	190.43	-2.10	3.10	 	 	 	 	 	 	 	 	 	 	 	 	 	 	 	 	 	 	1581477888	8.78	16.26
12/02/2020 03:24:49	120220	12022020	032449	190.15	13.522245	-56.963040	190.30	-0.580	-0.580	3.030	190.07	-2.00	3.50	 	 	 	 	 	 	 	 	 	 	 	 	 	 	 	 	 	 	1581477889	8.78	16.26
12/02/2020 03:24:50	120220	12022020	032450	189.77	13.522205	-56.963052	189.95	-0.640	-0.270	3.080	189.72	-1.70	3.50	 	 	 	 	 	 	 	 	 	 	 	 	 	 	 	 	 	 	1581477890	8.81	16.32
12/02/2020 03:24:51	120220	12022020	032451	189.72	13.522168	-56.963062	189.98	-0.580	0.380	2.740	189.77	-1.00	3.20	 	 	 	 	 	 	 	 	 	 	 	 	 	 	 	 	 	 	1581477891	8.86	16.41
12/02/2020 03:24:52	120220	12022020	032452	190.15	13.522132	-56.963070	190.44	-0.500	1.020	2.110	190.26	-0.40	2.60	 	 	 	 	 	 	 	 	 	 	 	 	 	 	 	 	 	 	1581477892	8.42	15.59
12/02/2020 03:24:53	120220	12022020	032453	190.60	13.522093	-56.963077	190.85	-0.270	1.000	1.510	190.65	-0.40	2.00	 	 	 	 	 	 	 	 	 	 	 	 	 	 	 	 	 	 	1581477893	7.97	14.76
12/02/2020 03:24:54	120220	12022020	032454	190.63	13.522053	-56.963085	190.80	0.300	0.120	1.240	190.58	-1.20	1.70	 	 	 	 	 	 	 	 	 	 	 	 	 	 	 	 	 	 	1581477894	8.18	15.15
12/02/2020 03:24:55	120220	12022020	032455	190.35	13.522010	-56.963093	190.52	0.980	-0.840	1.200	190.30	-2.20	1.70	 	 	 	 	 	 	 	 	 	 	 	 	 	 	 	 	 	 	1581477895	8.97	16.61
12/02/2020 03:24:56	120220	12022020	032456	190.13	13.521970	-56.963100	190.32	1.250	-1.100	1.250	190.10	-2.50	1.70	 	 	 	 	 	 	 	 	 	 	 	 	 	 	 	 	 	 	1581477896	9.30	17.22
12/02/2020 03:24:57	120220	12022020	032457	190.07	13.521935	-56.963107	190.26	0.900	-0.740	1.410	190.07	-2.20	1.90	 	 	 	 	 	 	 	 	 	 	 	 	 	 	 	 	 	 	1581477897	8.69	16.09
12/02/2020 03:24:58	120220	12022020	032458	190.11	13.521898	-56.963115	190.32	0.260	-0.300	1.630	190.13	-1.70	2.10	 	 	 	 	 	 	 	 	 	 	 	 	 	 	 	 	 	 	1581477898	7.96	14.74
12/02/2020 03:24:59	120220	12022020	032459	190.24	13.521862	-56.963125	190.46	-0.270	-0.200	1.890	190.27	-1.60	2.30	 	 	 	 	 	 	 	 	 	 	 	 	 	 	 	 	 	 	1581477899	7.82	14.48
12/02/2020 03:25:00	120220	12022020	032500	190.39	13.521823	-56.963137	190.61	-0.570	-0.450	2.250	190.41	-1.80	2.70	 	 	 	 	 	 	 	 	 	 	 	 	 	 	 	 	 	 	1581477900	8.23	15.24
12/02/2020 03:25:01	120220	12022020	032501	190.47	13.521783	-56.963150	190.68	-0.730	-0.600	2.630	190.49	-2.00	3.10	1017.00	26.10	26.20	20.30	20.40	-1.0	70.0	70.0	391.0	25.7	261.00	11.30	72.00	12.80	16	8953.0	27.2	27.2	1581477901	8.80	16.30
12/02/2020 03:25:02	120220	12022020	032502	190.52	13.521745	-56.963163	190.72	-0.750	-0.420	2.690	190.52	-1.80	3.10	 	 	 	 	 	 	 	 	 	 	 	 	 	 	 	 	 	 	1581477902	8.94	16.56
12/02/2020 03:25:03	120220	12022020	032503	190.47	13.521708	-56.963173	190.64	-0.510	-0.160	2.370	190.43	-1.60	2.90	 	 	 	 	 	 	 	 	 	 	 	 	 	 	 	 	 	 	1581477903	8.60	15.93
12/02/2020 03:25:04	120220	12022020	032504	190.27	13.521668	-56.963182	190.35	0.020	-0.140	1.920	190.21	-1.50	2.40	 	 	 	 	 	 	 	 	 	 	 	 	 	 	 	 	 	 	1581477904	8.41	15.58
12/02/2020 03:25:05	120220	12022020	032505	189.96	13.521627	-56.963185	190.13	0.580	-0.100	1.330	189.94	-1.50	1.80	 	 	 	 	 	 	 	 	 	 	 	 	 	 	 	 	 	 	1581477905	8.72	16.15
12/02/2020 03:25:06	120220	12022020	032506	189.98	13.521587	-56.963188	190.19	0.710	0.090	0.800	190.02	-1.30	1.30	 	 	 	 	 	 	 	 	 	 	 	 	 	 	 	 	 	 	1581477906	8.86	16.41
12/02/2020 03:25:07	120220	12022020	032507	190.14	13.521548	-56.963193	190.35	0.390	0.190	0.800	190.16	-1.20	1.30	 	 	 	 	 	 	 	 	 	 	 	 	 	 	 	 	 	 	1581477907	8.59	15.91
12/02/2020 03:25:08	120220	12022020	032508	190.13	13.521510	-56.963205	190.33	-0.030	0.040	1.400	190.10	-1.30	1.80	 	 	 	 	 	 	 	 	 	 	 	 	 	 	 	 	 	 	1581477908	8.36	15.48
12/02/2020 03:25:09	120220	12022020	032509	189.99	13.521472	-56.963218	190.20	-0.170	-0.210	2.070	189.98	-1.60	2.50	 	 	 	 	 	 	 	 	 	 	 	 	 	 	 	 	 	 	1581477909	8.52	15.78
12/02/2020 03:25:10	120220	12022020	032510	190.05	13.521433	-56.963230	190.31	-0.030	-0.280	2.350	190.10	-1.70	2.80	 	 	 	 	 	 	 	 	 	 	 	 	 	 	 	 	 	 	1581477910	8.77	16.24
12/02/2020 03:25:11	120220	12022020	032511	190.34	13.521397	-56.963240	190.62	0.160	-0.250	2.240	190.41	-1.60	2.70	 	 	 	 	 	 	 	 	 	 	 	 	 	 	 	 	 	 	1581477911	8.58	15.89
12/02/2020 03:25:12	120220	12022020	032512	190.58	13.521358	-56.963247	190.81	0.210	-0.420	2.010	190.60	-1.80	2.50	 	 	 	 	 	 	 	 	 	 	 	 	 	 	 	 	 	 	1581477912	8.28	15.33
12/02/2020 03:25:13	120220	12022020	032513	190.54	13.521318	-56.963255	190.71	0.070	-0.870	1.910	190.49	-2.20	2.40	 	 	 	 	 	 	 	 	 	 	 	 	 	 	 	 	 	 	1581477913	8.37	15.50
12/02/2020 03:25:14	120220	12022020	032514	190.29	13.521278	-56.963267	190.44	-0.180	-1.110	2.040	190.22	-2.50	2.50	 	 	 	 	 	 	 	 	 	 	 	 	 	 	 	 	 	 	1581477914	8.82	16.33
12/02/2020 03:25:15	120220	12022020	032515	189.91	13.521240	-56.963278	190.03	-0.320	-0.810	2.270	189.82	-2.20	2.70	 	 	 	 	 	 	 	 	 	 	 	 	 	 	 	 	 	 	1581477915	8.91	16.50
12/02/2020 03:25:16	120220	12022020	032516	189.46	13.521203	-56.963288	189.60	-0.220	-0.200	2.270	189.39	-1.60	2.70	 	 	 	 	 	 	 	 	 	 	 	 	 	 	 	 	 	 	1581477916	8.57	15.87
12/02/2020 03:25:17	120220	12022020	032517	189.30	13.521165	-56.963295	189.51	-0.050	0.350	1.820	189.32	-1.10	2.30	 	 	 	 	 	 	 	 	 	 	 	 	 	 	 	 	 	 	1581477917	8.30	15.37
12/02/2020 03:25:18	120220	12022020	032518	189.49	13.521127	-56.963302	189.83	0.010	0.580	1.320	189.58	-0.80	1.80	 	 	 	 	 	 	 	 	 	 	 	 	 	 	 	 	 	 	1581477918	8.30	15.37
12/02/2020 03:25:19	120220	12022020	032519	190.08	13.521087	-56.963308	190.33	-0.010	0.390	0.890	190.16	-1.00	1.40	 	 	 	 	 	 	 	 	 	 	 	 	 	 	 	 	 	 	1581477919	8.45	15.65
12/02/2020 03:25:20	120220	12022020	032520	190.46	13.521045	-56.963315	190.69	0.100	-0.020	0.850	190.50	-1.40	1.30	 	 	 	 	 	 	 	 	 	 	 	 	 	 	 	 	 	 	1581477920	8.68	16.08
12/02/2020 03:25:21	120220	12022020	032521	190.60	13.521005	-56.963323	190.80	0.390	-0.440	1.150	190.60	-1.80	1.60	 	 	 	 	 	 	 	 	 	 	 	 	 	 	 	 	 	 	1581477921	8.80	16.30
12/02/2020 03:25:22	120220	12022020	032522	190.60	13.520965	-56.963330	190.79	0.580	-0.780	1.520	190.60	-2.20	2.00	 	 	 	 	 	 	 	 	 	 	 	 	 	 	 	 	 	 	1581477922	8.79	16.28
12/02/2020 03:25:23	120220	12022020	032523	190.58	13.520927	-56.963340	190.76	0.360	-0.950	2.040	190.56	-2.30	2.50	 	 	 	 	 	 	 	 	 	 	 	 	 	 	 	 	 	 	1581477923	8.76	16.22
12/02/2020 03:25:24	120220	12022020	032524	190.47	13.520888	-56.963352	190.62	-0.220	-0.870	2.660	190.42	-2.30	3.10	 	 	 	 	 	 	 	 	 	 	 	 	 	 	 	 	 	 	1581477924	8.67	16.06
12/02/2020 03:25:25	120220	12022020	032525	190.10	13.520852	-56.963367	190.21	-0.790	-0.640	3.330	190.00	-2.00	3.80	 	 	 	 	 	 	 	 	 	 	 	 	 	 	 	 	 	 	1581477925	8.55	15.83
12/02/2020 03:25:26	120220	12022020	032526	189.61	13.520813	-56.963383	189.75	-1.040	-0.270	3.680	189.53	-1.70	4.10	 	 	 	 	 	 	 	 	 	 	 	 	 	 	 	 	 	 	1581477926	8.64	16.00
12/02/2020 03:25:27	120220	12022020	032527	189.33	13.520777	-56.963397	189.52	-0.850	0.240	3.420	189.31	-1.20	3.90	 	 	 	 	 	 	 	 	 	 	 	 	 	 	 	 	 	 	1581477927	8.79	16.28
12/02/2020 03:25:28	120220	12022020	032528	189.35	13.520738	-56.963407	189.58	-0.220	0.670	2.460	189.39	-0.70	3.00	 	 	 	 	 	 	 	 	 	 	 	 	 	 	 	 	 	 	1581477928	8.58	15.89
12/02/2020 03:25:29	120220	12022020	032529	189.67	13.520698	-56.963408	189.93	0.620	0.760	1.060	189.77	-0.60	1.60	 	 	 	 	 	 	 	 	 	 	 	 	 	 	 	 	 	 	1581477929	8.36	15.48
12/02/2020 03:25:30	120220	12022020	032530	190.18	13.520657	-56.963407	190.43	1.210	0.370	-0.070	190.30	-1.00	0.50	 	 	 	 	 	 	 	 	 	 	 	 	 	 	 	 	 	 	1581477930	8.52	15.78
12/02/2020 03:25:31	120220	12022020	032531	190.73	13.520617	-56.963408	190.95	1.240	-0.290	-0.220	190.81	-1.70	0.20	 	 	 	 	 	 	 	 	 	 	 	 	 	 	 	 	 	 	1581477931	8.88	16.45
12/02/2020 03:25:32	120220	12022020	032532	191.04	13.520577	-56.963415	191.21	0.760	-0.920	0.430	191.05	-2.30	0.90	 	 	 	 	 	 	 	 	 	 	 	 	 	 	 	 	 	 	1581477932	8.83	16.35
12/02/2020 03:25:33	120220	12022020	032533	190.93	13.520538	-56.963427	191.05	0.100	-1.460	1.560	190.86	-2.80	1.90	 	 	 	 	 	 	 	 	 	 	 	 	 	 	 	 	 	 	1581477933	8.62	15.96
12/02/2020 03:25:34	120220	12022020	032534	190.49	13.520500	-56.963443	190.61	-0.510	-1.710	2.940	190.39	-3.10	3.30	 	 	 	 	 	 	 	 	 	 	 	 	 	 	 	 	 	 	1581477934	8.69	16.09
12/02/2020 03:25:35	120220	12022020	032535	190.05	13.520462	-56.963462	190.23	-0.940	-1.450	3.950	190.00	-2.90	4.40	 	 	 	 	 	 	 	 	 	 	 	 	 	 	 	 	 	 	1581477935	8.95	16.58
12/02/2020 03:25:36	120220	12022020	032536	189.99	13.520425	-56.963478	190.23	-1.080	-0.620	3.880	190.02	-2.10	4.40	 	 	 	 	 	 	 	 	 	 	 	 	 	 	 	 	 	 	1581477936	9.00	16.67
12/02/2020 03:25:37	120220	12022020	032537	190.25	13.520390	-56.963488	190.50	-0.890	0.360	2.990	190.31	-1.10	3.50	 	 	 	 	 	 	 	 	 	 	 	 	 	 	 	 	 	 	1581477937	8.49	15.72
12/02/2020 03:25:38	120220	12022020	032538	190.44	13.520350	-56.963493	190.64	-0.420	0.830	2.000	190.45	-0.60	2.50	 	 	 	 	 	 	 	 	 	 	 	 	 	 	 	 	 	 	1581477938	8.06	14.93
12/02/2020 03:25:39	120220	12022020	032539	190.41	13.520308	-56.963497	190.58	0.030	0.590	1.380	190.40	-0.80	1.90	 	 	 	 	 	 	 	 	 	 	 	 	 	 	 	 	 	 	1581477939	8.40	15.56
12/02/2020 03:25:40	120220	12022020	032540	190.37	13.520267	-56.963502	190.54	0.220	0.150	0.970	190.36	-1.20	1.50	 	 	 	 	 	 	 	 	 	 	 	 	 	 	 	 	 	 	1581477940	9.11	16.87
12/02/2020 03:25:41	120220	12022020	032541	190.39	13.520225	-56.963510	190.58	0.200	-0.090	0.840	190.41	-1.50	1.30	 	 	 	 	 	 	 	 	 	 	 	 	 	 	 	 	 	 	1581477941	9.27	17.17
12/02/2020 03:25:42	120220	12022020	032542	190.53	13.520187	-56.963520	190.74	0.220	0.050	0.840	190.59	-1.40	1.30	 	 	 	 	 	 	 	 	 	 	 	 	 	 	 	 	 	 	1581477942	8.91	16.50
12/02/2020 03:25:43	120220	12022020	032543	190.89	13.520152	-56.963527	191.12	0.360	0.490	0.800	190.98	-0.90	1.30	 	 	 	 	 	 	 	 	 	 	 	 	 	 	 	 	 	 	1581477943	8.39	15.54
12/02/2020 03:25:44	120220	12022020	032544	191.29	13.520117	-56.963535	191.49	0.520	0.440	0.920	191.33	-0.90	1.40	 	 	 	 	 	 	 	 	 	 	 	 	 	 	 	 	 	 	1581477944	7.75	14.35
12/02/2020 03:25:45	120220	12022020	032545	191.33	13.520077	-56.963545	191.48	0.680	-0.560	1.280	191.30	-1.90	1.70	 	 	 	 	 	 	 	 	 	 	 	 	 	 	 	 	 	 	1581477945	7.81	14.46
12/02/2020 03:25:46	120220	12022020	032546	191.00	13.520035	-56.963558	191.11	0.630	-1.620	1.930	190.91	-3.00	2.30	 	 	 	 	 	 	 	 	 	 	 	 	 	 	 	 	 	 	1581477946	8.78	16.26
12/02/2020 03:25:47	120220	12022020	032547	190.54	13.519997	-56.963570	190.66	0.240	-1.640	2.580	190.46	-3.10	3.00	 	 	 	 	 	 	 	 	 	 	 	 	 	 	 	 	 	 	1581477947	9.30	17.22
12/02/2020 03:25:48	120220	12022020	032548	190.27	13.519962	-56.963582	190.43	-0.320	-0.940	2.750	190.27	-2.40	3.20	 	 	 	 	 	 	 	 	 	 	 	 	 	 	 	 	 	 	1581477948	8.57	15.87
12/02/2020 03:25:49	120220	12022020	032549	190.36	13.519927	-56.963593	190.54	-0.730	-0.370	2.600	190.39	-1.80	3.10	 	 	 	 	 	 	 	 	 	 	 	 	 	 	 	 	 	 	1581477949	7.88	14.59
12/02/2020 03:25:50	120220	12022020	032550	190.59	13.519888	-56.963605	190.78	-0.790	-0.170	2.350	190.65	-1.60	2.80	 	 	 	 	 	 	 	 	 	 	 	 	 	 	 	 	 	 	1581477950	8.10	15.00
12/02/2020 03:25:51	120220	12022020	032551	190.83	13.519847	-56.963615	191.00	-0.570	-0.140	1.920	190.87	-1.50	2.40	 	 	 	 	 	 	 	 	 	 	 	 	 	 	 	 	 	 	1581477951	8.70	16.11
12/02/2020 03:25:52	120220	12022020	032552	190.95	13.519807	-56.963623	191.10	-0.300	0.000	1.560	190.95	-1.40	2.00	 	 	 	 	 	 	 	 	 	 	 	 	 	 	 	 	 	 	1581477952	8.94	16.56
12/02/2020 03:25:53	120220	12022020	032553	190.87	13.519767	-56.963630	191.01	-0.050	0.180	1.380	190.84	-1.20	1.90	 	 	 	 	 	 	 	 	 	 	 	 	 	 	 	 	 	 	1581477953	8.81	16.32
12/02/2020 03:25:54	120220	12022020	032554	190.72	13.519728	-56.963637	190.86	0.160	0.260	1.320	190.69	-1.20	1.80	 	 	 	 	 	 	 	 	 	 	 	 	 	 	 	 	 	 	1581477954	8.68	16.08
12/02/2020 03:25:55	120220	12022020	032555	190.52	13.519688	-56.963645	190.67	0.320	0.150	1.500	190.48	-1.20	1.90	 	 	 	 	 	 	 	 	 	 	 	 	 	 	 	 	 	 	1581477955	8.65	16.02
12/02/2020 03:25:56	120220	12022020	032556	190.32	13.519648	-56.963653	190.50	0.330	-0.010	1.830	190.30	-1.40	2.30	 	 	 	 	 	 	 	 	 	 	 	 	 	 	 	 	 	 	1581477956	8.70	16.11
12/02/2020 03:25:57	120220	12022020	032557	190.29	13.519610	-56.963663	190.48	0.130	-0.080	2.160	190.30	-1.50	2.60	 	 	 	 	 	 	 	 	 	 	 	 	 	 	 	 	 	 	1581477957	8.70	16.11
12/02/2020 03:25:58	120220	12022020	032558	190.33	13.519573	-56.963677	190.51	-0.130	-0.200	2.470	190.32	-1.60	2.90	 	 	 	 	 	 	 	 	 	 	 	 	 	 	 	 	 	 	1581477958	8.46	15.67
12/02/2020 03:25:59	120220	12022020	032559	190.19	13.519535	-56.963690	190.33	-0.160	-0.400	2.730	190.14	-1.80	3.20	 	 	 	 	 	 	 	 	 	 	 	 	 	 	 	 	 	 	1581477959	8.43	15.61
12/02/2020 03:26:00	120220	12022020	032600	190.03	13.519498	-56.963702	190.20	0.130	-0.350	2.600	190.03	-1.80	3.10	 	 	 	 	 	 	 	 	 	 	 	 	 	 	 	 	 	 	1581477960	8.59	15.91
12/02/2020 03:26:01	120220	12022020	032601	190.09	13.519460	-56.963707	190.28	0.400	-0.150	2.080	190.13	-1.60	2.60	1017.00	26.20	26.20	20.50	20.60	-1.0	71.0	71.0	392.0	25.7	261.00	10.60	70.00	12.20	16	9115.0	27.2	27.2	1581477961	8.38	15.52
12/02/2020 03:26:02	120220	12022020	032602	190.33	13.519423	-56.963712	190.54	0.360	-0.150	1.500	190.39	-1.60	2.00	 	 	 	 	 	 	 	 	 	 	 	 	 	 	 	 	 	 	1581477962	8.12	15.04
12/02/2020 03:26:03	120220	12022020	032603	190.63	13.519383	-56.963720	190.82	0.080	-0.440	1.260	190.67	-1.80	1.70	 	 	 	 	 	 	 	 	 	 	 	 	 	 	 	 	 	 	1581477963	8.25	15.28
12/02/2020 03:26:04	120220	12022020	032604	190.78	13.519345	-56.963728	190.96	-0.120	-0.810	1.440	190.80	-2.20	1.90	 	 	 	 	 	 	 	 	 	 	 	 	 	 	 	 	 	 	1581477964	8.54	15.82
12/02/2020 03:26:05	120220	12022020	032605	190.81	13.519305	-56.963738	190.97	-0.130	-0.980	1.690	190.80	-2.40	2.10	 	 	 	 	 	 	 	 	 	 	 	 	 	 	 	 	 	 	1581477965	8.72	16.15
12/02/2020 03:26:06	120220	12022020	032606	190.76	13.519267	-56.963748	190.88	-0.040	-0.890	1.890	190.73	-2.30	2.30	 	 	 	 	 	 	 	 	 	 	 	 	 	 	 	 	 	 	1581477966	8.71	16.13
12/02/2020 03:26:07	120220	12022020	032607	190.50	13.519228	-56.963758	190.62	0.040	-0.620	2.080	190.44	-2.00	2.50	 	 	 	 	 	 	 	 	 	 	 	 	 	 	 	 	 	 	1581477967	8.58	15.89
12/02/2020 03:26:08	120220	12022020	032608	190.20	13.519190	-56.963768	190.19	0.050	-0.270	2.280	190.10	-1.70	2.70	 	 	 	 	 	 	 	 	 	 	 	 	 	 	 	 	 	 	1581477968	8.53	15.80
12/02/2020 03:26:09	120220	12022020	032609	189.50	13.519150	-56.963777	189.60	0.020	-0.070	2.550	189.41	-1.50	3.00	 	 	 	 	 	 	 	 	 	 	 	 	 	 	 	 	 	 	1581477969	8.51	15.76
12/02/2020 03:26:10	120220	12022020	032610	189.17	13.519108	-56.963787	189.36	-0.210	0.160	2.700	189.17	-1.20	3.10	 	 	 	 	 	 	 	 	 	 	 	 	 	 	 	 	 	 	1581477970	8.81	16.32
12/02/2020 03:26:11	120220	12022020	032611	189.44	13.519072	-56.963798	189.73	-0.550	0.600	2.610	189.58	-0.80	3.10	 	 	 	 	 	 	 	 	 	 	 	 	 	 	 	 	 	 	1581477971	8.90	16.48
12/02/2020 03:26:12	120220	12022020	032612	190.25	13.519035	-56.963810	190.58	-0.730	1.010	2.170	190.45	-0.40	2.70	 	 	 	 	 	 	 	 	 	 	 	 	 	 	 	 	 	 	1581477972	8.51	15.76
12/02/2020 03:26:13	120220	12022020	032613	191.20	13.518997	-56.963818	191.49	-0.470	0.710	1.570	191.37	-0.60	2.10	 	 	 	 	 	 	 	 	 	 	 	 	 	 	 	 	 	 	1581477973	8.12	15.04
12/02/2020 03:26:14	120220	12022020	032614	191.89	13.518957	-56.963828	192.13	0.080	-0.240	1.340	191.98	-1.60	1.80	 	 	 	 	 	 	 	 	 	 	 	 	 	 	 	 	 	 	1581477974	8.40	15.56
12/02/2020 03:26:15	120220	12022020	032615	192.15	13.518915	-56.963837	192.32	0.570	-1.060	1.310	192.16	-2.40	1.80	 	 	 	 	 	 	 	 	 	 	 	 	 	 	 	 	 	 	1581477975	9.01	16.69
12/02/2020 03:26:16	120220	12022020	032616	192.15	13.518878	-56.963845	192.29	0.720	-1.090	1.280	192.14	-2.50	1.70	 	 	 	 	 	 	 	 	 	 	 	 	 	 	 	 	 	 	1581477976	8.96	16.59
12/02/2020 03:26:17	120220	12022020	032617	192.06	13.518843	-56.963852	192.18	0.580	-0.690	1.340	192.03	-2.10	1.80	 	 	 	 	 	 	 	 	 	 	 	 	 	 	 	 	 	 	1581477977	8.22	15.22
12/02/2020 03:26:18	120220	12022020	032618	191.78	13.518807	-56.963860	191.86	0.370	-0.640	1.620	191.69	-2.00	2.10	 	 	 	 	 	 	 	 	 	 	 	 	 	 	 	 	 	 	1581477978	7.66	14.19
12/02/2020 03:26:19	120220	12022020	032619	191.17	13.518765	-56.963870	191.21	0.220	-1.050	2.200	191.02	-2.40	2.60	 	 	 	 	 	 	 	 	 	 	 	 	 	 	 	 	 	 	1581477979	8.09	14.98
12/02/2020 03:26:20	120220	12022020	032620	190.49	13.518723	-56.963883	190.57	-0.020	-1.140	2.830	190.38	-2.60	3.30	 	 	 	 	 	 	 	 	 	 	 	 	 	 	 	 	 	 	1581477980	9.03	16.72
12/02/2020 03:26:21	120220	12022020	032621	190.11	13.518687	-56.963897	190.27	-0.410	-0.450	3.130	190.09	-1.90	3.60	 	 	 	 	 	 	 	 	 	 	 	 	 	 	 	 	 	 	1581477981	9.29	17.21
12/02/2020 03:26:22	120220	12022020	032622	190.13	13.518650	-56.963910	190.35	-0.790	0.580	2.970	190.17	-0.90	3.40	 	 	 	 	 	 	 	 	 	 	 	 	 	 	 	 	 	 	1581477982	8.70	16.11
12/02/2020 03:26:23	120220	12022020	032623	190.51	13.518613	-56.963920	190.77	-0.870	1.170	2.410	190.62	-0.30	2.90	 	 	 	 	 	 	 	 	 	 	 	 	 	 	 	 	 	 	1581477983	8.15	15.09
12/02/2020 03:26:24	120220	12022020	032624	191.11	13.518573	-56.963930	191.38	-0.550	0.940	1.670	191.24	-0.40	2.20	 	 	 	 	 	 	 	 	 	 	 	 	 	 	 	 	 	 	1581477984	8.21	15.20
12/02/2020 03:26:25	120220	12022020	032625	191.76	13.518533	-56.963938	192.01	-0.030	0.310	0.980	191.88	-1.10	1.50	 	 	 	 	 	 	 	 	 	 	 	 	 	 	 	 	 	 	1581477985	8.77	16.24
12/02/2020 03:26:26	120220	12022020	032626	192.32	13.518493	-56.963945	192.55	0.340	-0.060	0.560	192.42	-1.50	1.00	 	 	 	 	 	 	 	 	 	 	 	 	 	 	 	 	 	 	1581477986	9.02	16.71
12/02/2020 03:26:27	120220	12022020	032627	192.64	13.518457	-56.963952	192.80	0.490	-0.170	0.360	192.65	-1.60	0.80	 	 	 	 	 	 	 	 	 	 	 	 	 	 	 	 	 	 	1581477987	8.55	15.83
12/02/2020 03:26:28	120220	12022020	032628	192.53	13.518420	-56.963960	192.62	0.540	-0.560	0.520	192.47	-1.90	1.00	 	 	 	 	 	 	 	 	 	 	 	 	 	 	 	 	 	 	1581477988	7.95	14.72
12/02/2020 03:26:29	120220	12022020	032629	192.11	13.518380	-56.963970	192.19	0.610	-1.330	1.190	192.01	-2.70	1.60	 	 	 	 	 	 	 	 	 	 	 	 	 	 	 	 	 	 	1581477989	8.11	15.02
12/02/2020 03:26:30	120220	12022020	032630	191.70	13.518340	-56.963982	191.67	0.600	-1.870	2.100	191.59	-3.30	2.50	 	 	 	 	 	 	 	 	 	 	 	 	 	 	 	 	 	 	1581477990	8.81	16.32
12/02/2020 03:26:31	120220	12022020	032631	191.06	13.518302	-56.963995	191.16	0.340	-1.590	2.860	190.95	-3.00	3.30	 	 	 	 	 	 	 	 	 	 	 	 	 	 	 	 	 	 	1581477991	9.12	16.89
12/02/2020 03:26:32	120220	12022020	032632	190.64	13.518265	-56.964007	190.78	-0.190	-0.580	3.100	190.59	-2.00	3.50	 	 	 	 	 	 	 	 	 	 	 	 	 	 	 	 	 	 	1581477992	8.75	16.21
12/02/2020 03:26:33	120220	12022020	032633	190.45	13.518230	-56.964018	190.62	-0.720	0.500	2.950	190.44	-0.90	3.40	 	 	 	 	 	 	 	 	 	 	 	 	 	 	 	 	 	 	1581477993	8.15	15.09
12/02/2020 03:26:34	120220	12022020	032634	190.45	13.518193	-56.964028	190.64	-0.960	1.010	2.630	190.47	-0.40	3.10	 	 	 	 	 	 	 	 	 	 	 	 	 	 	 	 	 	 	1581477994	7.94	14.70
12/02/2020 03:26:35	120220	12022020	032635	190.53	13.518152	-56.964040	190.70	-0.850	0.830	2.300	190.53	-0.60	2.80	 	 	 	 	 	 	 	 	 	 	 	 	 	 	 	 	 	 	1581477995	8.34	15.45
12/02/2020 03:26:36	120220	12022020	032636	190.52	13.518112	-56.964052	190.68	-0.560	0.340	2.150	190.51	-1.00	2.60	 	 	 	 	 	 	 	 	 	 	 	 	 	 	 	 	 	 	1581477996	8.91	16.50
12/02/2020 03:26:37	120220	12022020	032637	190.51	13.518072	-56.964063	190.67	-0.200	-0.050	2.120	190.51	-1.40	2.60	 	 	 	 	 	 	 	 	 	 	 	 	 	 	 	 	 	 	1581477997	9.14	16.93
12/02/2020 03:26:38	120220	12022020	032638	190.57	13.518033	-56.964073	190.75	0.240	-0.130	1.890	190.61	-1.50	2.40	 	 	 	 	 	 	 	 	 	 	 	 	 	 	 	 	 	 	1581477998	8.94	16.56
12/02/2020 03:26:39	120220	12022020	032639	190.84	13.517997	-56.964080	191.05	0.710	0.000	1.230	190.93	-1.40	1.70	 	 	 	 	 	 	 	 	 	 	 	 	 	 	 	 	 	 	1581477999	8.45	15.65
12/02/2020 03:26:40	120220	12022020	032640	191.33	13.517960	-56.964082	191.53	1.030	-0.020	0.520	191.43	-1.40	1.00	 	 	 	 	 	 	 	 	 	 	 	 	 	 	 	 	 	 	1581478000	8.04	14.89
12/02/2020 03:26:41	120220	12022020	032641	191.76	13.517922	-56.964085	191.92	1.010	-0.390	0.360	191.81	-1.80	0.80	 	 	 	 	 	 	 	 	 	 	 	 	 	 	 	 	 	 	1581478001	8.01	14.83
12/02/2020 03:26:42	120220	12022020	032642	191.80	13.517883	-56.964093	191.89	0.640	-1.060	0.960	191.73	-2.40	1.40	 	 	 	 	 	 	 	 	 	 	 	 	 	 	 	 	 	 	1581478002	8.22	15.22
12/02/2020 03:26:43	120220	12022020	032643	191.28	13.517843	-56.964107	191.32	0.130	-1.710	2.150	191.12	-3.10	2.50	 	 	 	 	 	 	 	 	 	 	 	 	 	 	 	 	 	 	1581478003	8.56	15.85
12/02/2020 03:26:44	120220	12022020	032644	190.40	13.517805	-56.964125	190.42	-0.320	-1.810	3.470	190.21	-3.20	3.90	 	 	 	 	 	 	 	 	 	 	 	 	 	 	 	 	 	 	1581478004	8.96	16.59
12/02/2020 03:26:45	120220	12022020	032645	189.62	13.517768	-56.964143	189.74	-0.520	-0.980	4.240	189.53	-2.40	4.70	 	 	 	 	 	 	 	 	 	 	 	 	 	 	 	 	 	 	1581478005	9.15	16.95
12/02/2020 03:26:46	120220	12022020	032646	189.48	13.517733	-56.964155	189.70	-0.520	0.380	4.010	189.52	-1.10	4.50	 	 	 	 	 	 	 	 	 	 	 	 	 	 	 	 	 	 	1581478006	8.65	16.02
12/02/2020 03:26:47	120220	12022020	032647	189.81	13.517698	-56.964163	190.07	-0.490	1.170	3.320	189.89	-0.30	3.80	 	 	 	 	 	 	 	 	 	 	 	 	 	 	 	 	 	 	1581478007	7.79	14.43
12/02/2020 03:26:48	120220	12022020	032648	190.29	13.517658	-56.964170	190.55	-0.440	1.000	2.610	190.38	-0.40	3.10	 	 	 	 	 	 	 	 	 	 	 	 	 	 	 	 	 	 	1581478008	7.93	14.69
12/02/2020 03:26:49	120220	12022020	032649	190.73	13.517617	-56.964178	190.98	-0.310	0.290	2.090	190.81	-1.10	2.60	 	 	 	 	 	 	 	 	 	 	 	 	 	 	 	 	 	 	1581478009	8.68	16.08
12/02/2020 03:26:50	120220	12022020	032650	191.04	13.517577	-56.964187	191.25	-0.060	-0.310	1.810	191.06	-1.70	2.30	 	 	 	 	 	 	 	 	 	 	 	 	 	 	 	 	 	 	1581478010	9.11	16.87
12/02/2020 03:26:51	120220	12022020	032651	191.04	13.517538	-56.964197	191.18	0.260	-0.670	1.750	191.00	-2.10	2.20	 	 	 	 	 	 	 	 	 	 	 	 	 	 	 	 	 	 	1581478011	8.89	16.46
12/02/2020 03:26:52	120220	12022020	032652	190.78	13.517500	-56.964205	190.91	0.510	-0.760	1.800	190.72	-2.20	2.30	 	 	 	 	 	 	 	 	 	 	 	 	 	 	 	 	 	 	1581478012	8.53	15.80
12/02/2020 03:26:53	120220	12022020	032653	190.58	13.517463	-56.964212	190.73	0.590	-0.550	1.730	190.58	-2.00	2.20	 	 	 	 	 	 	 	 	 	 	 	 	 	 	 	 	 	 	1581478013	8.32	15.41
12/02/2020 03:26:54	120220	12022020	032654	190.63	13.517427	-56.964218	190.79	0.430	-0.250	1.540	190.65	-1.70	2.00	 	 	 	 	 	 	 	 	 	 	 	 	 	 	 	 	 	 	1581478014	8.09	14.98
12/02/2020 03:26:55	120220	12022020	032655	190.76	13.517390	-56.964227	190.94	0.090	-0.160	1.630	190.78	-1.60	2.10	 	 	 	 	 	 	 	 	 	 	 	 	 	 	 	 	 	 	1581478015	7.97	14.76
12/02/2020 03:26:56	120220	12022020	032656	190.90	13.517352	-56.964238	191.08	-0.170	-0.180	1.880	190.92	-1.60	2.30	 	 	 	 	 	 	 	 	 	 	 	 	 	 	 	 	 	 	1581478016	8.18	15.15
12/02/2020 03:26:57	120220	12022020	032657	190.91	13.517315	-56.964250	191.04	-0.130	-0.190	2.120	190.87	-1.60	2.60	 	 	 	 	 	 	 	 	 	 	 	 	 	 	 	 	 	 	1581478017	8.40	15.56
12/02/2020 03:26:58	120220	12022020	032658	190.75	13.517277	-56.964260	190.82	0.070	-0.260	2.380	190.70	-1.70	2.80	 	 	 	 	 	 	 	 	 	 	 	 	 	 	 	 	 	 	1581478018	8.41	15.58
12/02/2020 03:26:59	120220	12022020	032659	190.49	13.517237	-56.964270	190.62	0.100	-0.330	2.460	190.45	-1.70	2.90	 	 	 	 	 	 	 	 	 	 	 	 	 	 	 	 	 	 	1581478019	8.53	15.80
12/02/2020 03:27:00	120220	12022020	032700	190.36	13.517198	-56.964280	190.50	-0.080	-0.320	2.320	190.34	-1.70	2.80	 	 	 	 	 	 	 	 	 	 	 	 	 	 	 	 	 	 	1581478020	8.58	15.89
12/02/2020 03:27:01	120220	12022020	032701	190.27	13.517162	-56.964290	190.40	-0.240	-0.270	2.150	190.25	-1.70	2.60	1017.10	26.10	26.20	20.50	20.60	-1.0	71.0	71.0	392.0	25.7	261.00	10.80	71.00	12.20	16	8621.0	27.2	27.2	1581478021	8.51	15.76
12/02/2020 03:27:02	120220	12022020	032702	190.19	13.517123	-56.964300	190.33	-0.200	-0.290	2.040	190.18	-1.70	2.50	 	 	 	 	 	 	 	 	 	 	 	 	 	 	 	 	 	 	1581478022	8.42	15.59
12/02/2020 03:27:03	120220	12022020	032703	190.13	13.517085	-56.964308	190.27	-0.060	-0.360	1.990	190.10	-1.80	2.50	 	 	 	 	 	 	 	 	 	 	 	 	 	 	 	 	 	 	1581478023	8.48	15.70
12/02/2020 03:27:04	120220	12022020	032704	189.97	13.517045	-56.964318	190.09	0.000	-0.450	2.040	189.92	-1.90	2.50	 	 	 	 	 	 	 	 	 	 	 	 	 	 	 	 	 	 	1581478024	8.52	15.78
12/02/2020 03:27:05	120220	12022020	032705	189.78	13.517007	-56.964330	189.93	-0.070	-0.460	2.160	189.77	-1.90	2.60	 	 	 	 	 	 	 	 	 	 	 	 	 	 	 	 	 	 	1581478025	8.60	15.93
12/02/2020 03:27:06	120220	12022020	032706	189.83	13.516970	-56.964340	190.03	-0.150	-0.130	2.130	189.88	-1.60	2.60	 	 	 	 	 	 	 	 	 	 	 	 	 	 	 	 	 	 	1581478026	8.63	15.98
12/02/2020 03:27:07	120220	12022020	032707	190.12	13.516933	-56.964348	190.33	-0.010	0.320	1.880	190.19	-1.10	2.40	 	 	 	 	 	 	 	 	 	 	 	 	 	 	 	 	 	 	1581478027	8.30	15.37
12/02/2020 03:27:08	120220	12022020	032708	190.40	13.516895	-56.964353	190.60	0.340	0.310	1.540	190.44	-1.10	2.00	 	 	 	 	 	 	 	 	 	 	 	 	 	 	 	 	 	 	1581478028	7.96	14.74
12/02/2020 03:27:09	120220	12022020	032709	190.65	13.516855	-56.964358	190.86	0.520	-0.150	1.420	190.71	-1.50	1.90	 	 	 	 	 	 	 	 	 	 	 	 	 	 	 	 	 	 	1581478029	8.31	15.39
12/02/2020 03:27:10	120220	12022020	032710	190.95	13.516815	-56.964368	191.17	0.270	-0.570	1.800	191.00	-2.00	2.20	 	 	 	 	 	 	 	 	 	 	 	 	 	 	 	 	 	 	1581478030	8.84	16.37
12/02/2020 03:27:11	120220	12022020	032711	191.05	13.516777	-56.964382	191.20	-0.190	-0.770	2.530	191.00	-2.20	3.00	 	 	 	 	 	 	 	 	 	 	 	 	 	 	 	 	 	 	1581478031	8.73	16.17
12/02/2020 03:27:12	120220	12022020	032712	190.56	13.516740	-56.964397	190.64	-0.350	-0.940	3.340	190.41	-2.30	3.80	 	 	 	 	 	 	 	 	 	 	 	 	 	 	 	 	 	 	1581478032	8.52	15.78
12/02/2020 03:27:13	120220	12022020	032713	189.72	13.516700	-56.964410	189.81	-0.170	-0.880	3.810	189.57	-2.30	4.30	 	 	 	 	 	 	 	 	 	 	 	 	 	 	 	 	 	 	1581478033	8.70	16.11
12/02/2020 03:27:14	120220	12022020	032714	189.23	13.516663	-56.964418	189.42	-0.040	-0.260	3.520	189.21	-1.70	4.00	 	 	 	 	 	 	 	 	 	 	 	 	 	 	 	 	 	 	1581478034	8.82	16.33
12/02/2020 03:27:15	120220	12022020	032715	189.38	13.516627	-56.964423	189.62	-0.210	0.500	2.640	189.45	-0.90	3.20	 	 	 	 	 	 	 	 	 	 	 	 	 	 	 	 	 	 	1581478035	8.28	15.33
12/02/2020 03:27:16	120220	12022020	032716	189.80	13.516590	-56.964430	190.03	-0.400	0.600	1.820	189.87	-0.80	2.30	 	 	 	 	 	 	 	 	 	 	 	 	 	 	 	 	 	 	1581478036	7.74	14.33
12/02/2020 03:27:17	120220	12022020	032717	190.10	13.516550	-56.964438	190.29	-0.130	-0.110	1.310	190.14	-1.50	1.80	 	 	 	 	 	 	 	 	 	 	 	 	 	 	 	 	 	 	1581478037	8.12	15.04
12/02/2020 03:27:18	120220	12022020	032718	190.30	13.516507	-56.964447	190.49	0.440	-0.740	1.060	190.33	-2.10	1.50	 	 	 	 	 	 	 	 	 	 	 	 	 	 	 	 	 	 	1581478038	9.03	16.72
12/02/2020 03:27:19	120220	12022020	032719	190.53	13.516470	-56.964455	190.73	0.590	-0.450	1.230	190.59	-1.90	1.70	 	 	 	 	 	 	 	 	 	 	 	 	 	 	 	 	 	 	1581478039	9.25	17.13
12/02/2020 03:27:20	120220	12022020	032720	190.78	13.516437	-56.964463	191.05	0.090	0.340	1.330	190.85	-1.10	1.80	 	 	 	 	 	 	 	 	 	 	 	 	 	 	 	 	 	 	1581478040	8.26	15.30
12/02/2020 03:27:21	120220	12022020	032721	191.02	13.516402	-56.964475	191.16	-0.450	0.540	1.430	191.01	-0.90	1.90	 	 	 	 	 	 	 	 	 	 	 	 	 	 	 	 	 	 	1581478041	7.34	13.59
12/02/2020 03:27:22	120220	12022020	032722	190.94	13.516363	-56.964487	191.07	-0.310	-0.200	1.540	190.91	-1.60	2.00	 	 	 	 	 	 	 	 	 	 	 	 	 	 	 	 	 	 	1581478042	7.65	14.17
12/02/2020 03:27:23	120220	12022020	032723	190.83	13.516322	-56.964495	190.96	0.430	-0.990	1.380	190.81	-2.40	1.90	 	 	 	 	 	 	 	 	 	 	 	 	 	 	 	 	 	 	1581478043	8.77	16.24
12/02/2020 03:27:24	120220	12022020	032724	190.72	13.516282	-56.964500	190.85	0.930	-1.170	1.170	190.69	-2.60	1.70	 	 	 	 	 	 	 	 	 	 	 	 	 	 	 	 	 	 	1581478044	9.15	16.95
12/02/2020 03:27:25	120220	12022020	032725	190.55	13.516243	-56.964507	190.67	0.620	-0.940	1.390	190.49	-2.40	1.80	 	 	 	 	 	 	 	 	 	 	 	 	 	 	 	 	 	 	1581478045	8.67	16.06
12/02/2020 03:27:26	120220	12022020	032726	190.20	13.516207	-56.964518	190.29	-0.270	-0.730	2.220	190.10	-2.10	2.60	 	 	 	 	 	 	 	 	 	 	 	 	 	 	 	 	 	 	1581478046	8.18	15.15
12/02/2020 03:27:27	120220	12022020	032727	189.67	13.516170	-56.964537	189.76	-1.070	-0.590	3.370	189.55	-2.00	3.80	 	 	 	 	 	 	 	 	 	 	 	 	 	 	 	 	 	 	1581478047	8.36	15.48
12/02/2020 03:27:28	120220	12022020	032728	189.14	13.516132	-56.964557	189.29	-1.250	-0.250	4.180	189.06	-1.70	4.60	 	 	 	 	 	 	 	 	 	 	 	 	 	 	 	 	 	 	1581478048	8.95	16.58
12/02/2020 03:27:29	120220	12022020	032729	188.98	13.516095	-56.964570	189.23	-0.820	0.390	3.980	189.02	-1.10	4.50	 	 	 	 	 	 	 	 	 	 	 	 	 	 	 	 	 	 	1581478049	9.11	16.87
12/02/2020 03:27:30	120220	12022020	032730	189.35	13.516058	-56.964578	189.63	-0.200	0.980	2.910	189.45	-0.50	3.50	 	 	 	 	 	 	 	 	 	 	 	 	 	 	 	 	 	 	1581478050	8.51	15.76
12/02/2020 03:27:31	120220	12022020	032731	189.83	13.516020	-56.964580	190.07	0.340	0.910	1.640	189.91	-0.50	2.20	 	 	 	 	 	 	 	 	 	 	 	 	 	 	 	 	 	 	1581478051	8.01	14.83
12/02/2020 03:27:32	120220	12022020	032732	190.03	13.515978	-56.964582	190.19	0.760	0.140	0.810	190.03	-1.20	1.30	 	 	 	 	 	 	 	 	 	 	 	 	 	 	 	 	 	 	1581478052	8.28	15.33
12/02/2020 03:27:33	120220	12022020	032733	190.02	13.515937	-56.964585	190.16	0.920	-0.530	0.590	190.02	-1.90	1.10	 	 	 	 	 	 	 	 	 	 	 	 	 	 	 	 	 	 	1581478053	8.91	16.50
12/02/2020 03:27:34	120220	12022020	032734	190.04	13.515900	-56.964590	190.23	0.670	-0.640	0.980	190.05	-2.10	1.40	 	 	 	 	 	 	 	 	 	 	 	 	 	 	 	 	 	 	1581478054	8.87	16.43
12/02/2020 03:27:35	120220	12022020	032735	190.11	13.515865	-56.964602	190.27	0.150	-0.570	1.720	190.10	-2.00	2.20	 	 	 	 	 	 	 	 	 	 	 	 	 	 	 	 	 	 	1581478055	8.08	14.96
12/02/2020 03:27:36	120220	12022020	032736	189.91	13.515828	-56.964615	190.02	-0.160	-0.880	2.520	189.82	-2.30	2.90	 	 	 	 	 	 	 	 	 	 	 	 	 	 	 	 	 	 	1581478056	7.78	14.41
12/02/2020 03:27:37	120220	12022020	032737	189.39	13.515788	-56.964630	189.50	-0.110	-1.400	3.260	189.29	-2.80	3.70	 	 	 	 	 	 	 	 	 	 	 	 	 	 	 	 	 	 	1581478057	8.36	15.48
12/02/2020 03:27:38	120220	12022020	032738	188.99	13.515750	-56.964642	189.17	-0.030	-1.320	3.590	188.96	-2.80	4.10	 	 	 	 	 	 	 	 	 	 	 	 	 	 	 	 	 	 	1581478058	9.10	16.85
12/02/2020 03:27:39	120220	12022020	032739	189.02	13.515713	-56.964652	189.25	-0.250	-0.430	3.290	189.07	-1.90	3.80	 	 	 	 	 	 	 	 	 	 	 	 	 	 	 	 	 	 	1581478059	8.89	16.46
12/02/2020 03:27:40	120220	12022020	032740	189.33	13.515678	-56.964658	189.56	-0.630	0.480	2.610	189.40	-1.00	3.10	 	 	 	 	 	 	 	 	 	 	 	 	 	 	 	 	 	 	1581478060	8.00	14.82
12/02/2020 03:27:41	120220	12022020	032741	189.65	13.515640	-56.964665	189.85	-0.720	0.680	1.950	189.70	-0.70	2.50	 	 	 	 	 	 	 	 	 	 	 	 	 	 	 	 	 	 	1581478061	7.69	14.24
12/02/2020 03:27:42	120220	12022020	032742	189.83	13.515600	-56.964673	190.03	-0.280	0.310	1.470	189.88	-1.10	2.00	 	 	 	 	 	 	 	 	 	 	 	 	 	 	 	 	 	 	1581478062	8.28	15.33
12/02/2020 03:27:43	120220	12022020	032743	190.11	13.515558	-56.964677	190.34	0.290	0.170	0.930	190.20	-1.30	1.50	 	 	 	 	 	 	 	 	 	 	 	 	 	 	 	 	 	 	1581478063	8.97	16.61
12/02/2020 03:27:44	120220	12022020	032744	190.58	13.515522	-56.964682	190.80	0.470	0.280	0.650	190.66	-1.10	1.20	 	 	 	 	 	 	 	 	 	 	 	 	 	 	 	 	 	 	1581478064	8.76	16.22
12/02/2020 03:27:45	120220	12022020	032745	190.79	13.515485	-56.964688	190.92	0.290	-0.050	1.050	190.76	-1.40	1.50	 	 	 	 	 	 	 	 	 	 	 	 	 	 	 	 	 	 	1581478065	8.06	14.93
12/02/2020 03:27:46	120220	12022020	032746	190.47	13.515445	-56.964702	190.35	0.220	-1.060	2.170	190.32	-2.40	2.60	 	 	 	 	 	 	 	 	 	 	 	 	 	 	 	 	 	 	1581478066	8.14	15.08
12/02/2020 03:27:47	120220	12022020	032747	189.39	13.515403	-56.964717	189.45	0.270	-1.740	3.470	189.22	-3.10	3.90	 	 	 	 	 	 	 	 	 	 	 	 	 	 	 	 	 	 	1581478067	9.08	16.82
12/02/2020 03:27:48	120220	12022020	032748	188.82	13.515367	-56.964732	188.93	0.170	-1.080	4.160	188.74	-2.60	4.60	 	 	 	 	 	 	 	 	 	 	 	 	 	 	 	 	 	 	1581478068	9.52	17.63
12/02/2020 03:27:49	120220	12022020	032749	188.72	13.515333	-56.964742	189.00	-0.100	0.360	3.840	188.78	-1.10	4.40	 	 	 	 	 	 	 	 	 	 	 	 	 	 	 	 	 	 	1581478069	8.43	15.61
12/02/2020 03:27:50	120220	12022020	032750	189.21	13.515300	-56.964747	189.52	-0.340	1.260	2.810	189.34	-0.20	3.40	 	 	 	 	 	 	 	 	 	 	 	 	 	 	 	 	 	 	1581478070	7.21	13.35
12/02/2020 03:27:51	120220	12022020	032751	189.97	13.515263	-56.964752	190.28	-0.350	1.010	1.710	190.11	-0.40	2.30	 	 	 	 	 	 	 	 	 	 	 	 	 	 	 	 	 	 	1581478071	7.24	13.41
12/02/2020 03:27:52	120220	12022020	032752	190.58	13.515222	-56.964757	190.81	-0.070	-0.190	1.040	190.65	-1.50	1.60	 	 	 	 	 	 	 	 	 	 	 	 	 	 	 	 	 	 	1581478072	8.15	15.09
12/02/2020 03:27:53	120220	12022020	032753	190.72	13.515178	-56.964765	190.87	0.390	-1.520	0.850	190.69	-2.90	1.30	 	 	 	 	 	 	 	 	 	 	 	 	 	 	 	 	 	 	1581478073	9.05	16.76
12/02/2020 03:27:54	120220	12022020	032754	190.44	13.515137	-56.964773	190.54	0.700	-1.960	1.160	190.36	-3.40	1.60	 	 	 	 	 	 	 	 	 	 	 	 	 	 	 	 	 	 	1581478074	9.45	17.50
12/02/2020 03:27:55	120220	12022020	032755	190.00	13.515102	-56.964782	190.11	0.480	-1.170	1.710	189.92	-2.70	2.20	 	 	 	 	 	 	 	 	 	 	 	 	 	 	 	 	 	 	1581478075	8.93	16.54
12/02/2020 03:27:56	120220	12022020	032756	189.69	13.515068	-56.964790	189.84	-0.210	0.080	2.150	189.65	-1.40	2.60	 	 	 	 	 	 	 	 	 	 	 	 	 	 	 	 	 	 	1581478076	7.88	14.59
12/02/2020 03:27:57	120220	12022020	032757	189.56	13.515033	-56.964803	189.75	-0.880	0.720	2.570	189.56	-0.70	3.00	 	 	 	 	 	 	 	 	 	 	 	 	 	 	 	 	 	 	1581478077	7.35	13.61
12/02/2020 03:27:58	120220	12022020	032758	189.61	13.514995	-56.964818	189.83	-1.020	0.510	2.760	189.64	-0.90	3.20	 	 	 	 	 	 	 	 	 	 	 	 	 	 	 	 	 	 	1581478078	7.96	14.74
12/02/2020 03:27:59	120220	12022020	032759	189.80	13.514953	-56.964830	190.03	-0.560	0.030	2.610	189.84	-1.40	3.10	 	 	 	 	 	 	 	 	 	 	 	 	 	 	 	 	 	 	1581478079	8.91	16.50
12/02/2020 03:28:00	120220	12022020	032800	190.00	13.514913	-56.964840	190.21	0.170	-0.340	2.170	190.03	-1.70	2.70	 	 	 	 	 	 	 	 	 	 	 	 	 	 	 	 	 	 	1581478080	9.20	17.04
12/02/2020 03:28:01	120220	12022020	032801	190.17	13.514873	-56.964845	190.37	0.730	-0.420	1.600	190.20	-1.80	2.10	1017.00	26.10	26.10	20.60	20.60	-1.0	71.0	71.0	392.0	25.7	261.00	10.70	70.00	12.20	16	8816.0	27.2	27.2	1581478081	8.95	16.58
12/02/2020 03:28:02	120220	12022020	032802	190.33	13.514837	-56.964848	190.50	0.820	-0.160	1.200	190.35	-1.60	1.70	 	 	 	 	 	 	 	 	 	 	 	 	 	 	 	 	 	 	1581478082	8.58	15.89
12/02/2020 03:28:03	120220	12022020	032803	190.36	13.514802	-56.964855	190.52	0.460	0.190	1.300	190.36	-1.30	1.80	 	 	 	 	 	 	 	 	 	 	 	 	 	 	 	 	 	 	1581478083	8.07	14.95
12/02/2020 03:28:04	120220	12022020	032804	190.36	13.514765	-56.964863	190.53	-0.100	0.260	1.730	190.36	-1.20	2.20	 	 	 	 	 	 	 	 	 	 	 	 	 	 	 	 	 	 	1581478084	7.74	14.33
12/02/2020 03:28:05	120220	12022020	032805	190.30	13.514728	-56.964877	190.47	-0.470	-0.080	2.340	190.27	-1.50	2.80	 	 	 	 	 	 	 	 	 	 	 	 	 	 	 	 	 	 	1581478085	7.88	14.59
12/02/2020 03:28:06	120220	12022020	032806	190.06	13.514690	-56.964892	190.19	-0.390	-0.650	2.850	189.98	-2.00	3.30	 	 	 	 	 	 	 	 	 	 	 	 	 	 	 	 	 	 	1581478086	8.36	15.48
12/02/2020 03:28:07	120220	12022020	032807	189.62	13.514652	-56.964903	189.72	0.080	-1.010	3.030	189.52	-2.40	3.50	 	 	 	 	 	 	 	 	 	 	 	 	 	 	 	 	 	 	1581478087	8.78	16.26
12/02/2020 03:28:08	120220	12022020	032808	189.16	13.514613	-56.964912	189.30	0.520	-0.880	2.800	189.10	-2.30	3.30	 	 	 	 	 	 	 	 	 	 	 	 	 	 	 	 	 	 	1581478088	8.75	16.21
12/02/2020 03:28:09	120220	12022020	032809	189.05	13.514577	-56.964915	189.25	0.510	-0.370	2.280	189.08	-1.80	2.80	 	 	 	 	 	 	 	 	 	 	 	 	 	 	 	 	 	 	1581478089	8.42	15.59
12/02/2020 03:28:10	120220	12022020	032810	189.29	13.514540	-56.964920	189.51	0.060	0.030	1.840	189.36	-1.40	2.40	 	 	 	 	 	 	 	 	 	 	 	 	 	 	 	 	 	 	1581478090	7.99	14.80
12/02/2020 03:28:11	120220	12022020	032811	189.53	13.514502	-56.964930	189.71	-0.350	-0.040	1.820	189.55	-1.40	2.30	 	 	 	 	 	 	 	 	 	 	 	 	 	 	 	 	 	 	1581478091	7.92	14.67
12/02/2020 03:28:12	120220	12022020	032812	189.58	13.514463	-56.964942	189.74	-0.280	-0.400	1.990	189.58	-1.80	2.50	 	 	 	 	 	 	 	 	 	 	 	 	 	 	 	 	 	 	1581478092	8.34	15.45
12/02/2020 03:28:13	120220	12022020	032813	189.58	13.514423	-56.964950	189.75	0.080	-0.560	2.100	189.58	-2.00	2.60	 	 	 	 	 	 	 	 	 	 	 	 	 	 	 	 	 	 	1581478093	8.81	16.32
12/02/2020 03:28:14	120220	12022020	032814	189.63	13.514385	-56.964958	189.80	0.260	-0.390	2.180	189.63	-1.80	2.70	 	 	 	 	 	 	 	 	 	 	 	 	 	 	 	 	 	 	1581478094	8.74	16.19
12/02/2020 03:28:15	120220	12022020	032815	189.64	13.514348	-56.964967	189.79	0.060	-0.150	2.240	189.62	-1.60	2.70	 	 	 	 	 	 	 	 	 	 	 	 	 	 	 	 	 	 	1581478095	8.35	15.46
12/02/2020 03:28:16	120220	12022020	032816	189.47	13.514310	-56.964975	189.61	-0.290	-0.050	2.460	189.42	-1.50	2.90	 	 	 	 	 	 	 	 	 	 	 	 	 	 	 	 	 	 	1581478096	8.16	15.11
12/02/2020 03:28:17	120220	12022020	032817	189.21	13.514272	-56.964987	189.38	-0.510	-0.010	2.720	189.18	-1.40	3.20	 	 	 	 	 	 	 	 	 	 	 	 	 	 	 	 	 	 	1581478097	8.32	15.41
12/02/2020 03:28:18	120220	12022020	032818	189.15	13.514235	-56.964998	189.35	-0.470	0.160	2.780	189.15	-1.30	3.30	 	 	 	 	 	 	 	 	 	 	 	 	 	 	 	 	 	 	1581478098	8.51	15.76
12/02/2020 03:28:19	120220	12022020	032819	189.26	13.514198	-56.965007	189.48	-0.130	0.260	2.570	189.31	-1.20	3.10	 	 	 	 	 	 	 	 	 	 	 	 	 	 	 	 	 	 	1581478099	8.36	15.48
12/02/2020 03:28:20	120220	12022020	032820	189.54	13.514160	-56.965013	189.77	0.330	0.130	2.030	189.61	-1.30	2.60	 	 	 	 	 	 	 	 	 	 	 	 	 	 	 	 	 	 	1581478100	8.25	15.28
12/02/2020 03:28:21	120220	12022020	032821	189.98	13.514120	-56.965015	190.22	0.660	-0.160	1.270	190.08	-1.60	1.80	 	 	 	 	 	 	 	 	 	 	 	 	 	 	 	 	 	 	1581478101	8.34	15.45
12/02/2020 03:28:22	120220	12022020	032822	190.51	13.514082	-56.965020	190.73	0.620	-0.490	0.860	190.60	-1.90	1.40	 	 	 	 	 	 	 	 	 	 	 	 	 	 	 	 	 	 	1581478102	8.46	15.67
12/02/2020 03:28:23	120220	12022020	032823	190.86	13.514045	-56.965028	191.01	0.270	-0.840	1.170	190.86	-2.20	1.60	 	 	 	 	 	 	 	 	 	 	 	 	 	 	 	 	 	 	1581478103	8.33	15.43
12/02/2020 03:28:24	120220	12022020	032824	190.63	13.514007	-56.965042	190.69	-0.010	-1.230	2.160	190.50	-2.60	2.60	 	 	 	 	 	 	 	 	 	 	 	 	 	 	 	 	 	 	1581478104	8.23	15.24
12/02/2020 03:28:25	120220	12022020	032825	189.93	13.513968	-56.965057	190.00	-0.070	-1.280	3.390	189.78	-2.70	3.80	 	 	 	 	 	 	 	 	 	 	 	 	 	 	 	 	 	 	1581478105	8.54	15.82
12/02/2020 03:28:26	120220	12022020	032826	189.31	13.513933	-56.965072	189.48	-0.130	-0.620	4.160	189.26	-2.10	4.60	 	 	 	 	 	 	 	 	 	 	 	 	 	 	 	 	 	 	1581478106	8.75	16.21
12/02/2020 03:28:27	120220	12022020	032827	189.25	13.513898	-56.965082	189.51	-0.320	0.450	4.020	189.30	-1.00	4.50	 	 	 	 	 	 	 	 	 	 	 	 	 	 	 	 	 	 	1581478107	8.32	15.41
12/02/2020 03:28:28	120220	12022020	032828	189.60	13.513863	-56.965088	189.85	-0.450	0.960	3.220	189.67	-0.40	3.80	 	 	 	 	 	 	 	 	 	 	 	 	 	 	 	 	 	 	1581478108	7.64	14.15
12/02/2020 03:28:29	120220	12022020	032829	189.86	13.513823	-56.965093	190.04	-0.170	0.350	2.370	189.87	-1.00	2.90	 	 	 	 	 	 	 	 	 	 	 	 	 	 	 	 	 	 	1581478109	7.75	14.35
12/02/2020 03:28:30	120220	12022020	032830	189.80	13.513778	-56.965098	189.95	0.410	-0.740	1.900	189.77	-2.10	2.40	 	 	 	 	 	 	 	 	 	 	 	 	 	 	 	 	 	 	1581478110	8.80	16.30
12/02/2020 03:28:31	120220	12022020	032831	189.69	13.513737	-56.965105	189.86	0.610	-1.110	1.840	189.69	-2.50	2.30	 	 	 	 	 	 	 	 	 	 	 	 	 	 	 	 	 	 	1581478111	9.65	17.87
12/02/2020 03:28:32	120220	12022020	032832	189.75	13.513702	-56.965113	189.95	0.090	-0.400	2.030	189.79	-1.90	2.50	 	 	 	 	 	 	 	 	 	 	 	 	 	 	 	 	 	 	1581478112	9.13	16.91
12/02/2020 03:28:33	120220	12022020	032833	190.06	13.513670	-56.965125	190.31	-0.700	0.680	2.150	190.16	-0.80	2.70	 	 	 	 	 	 	 	 	 	 	 	 	 	 	 	 	 	 	1581478113	7.83	14.50
12/02/2020 03:28:34	120220	12022020	032834	190.58	13.513638	-56.965137	190.83	-0.960	1.160	1.980	190.67	-0.30	2.50	 	 	 	 	 	 	 	 	 	 	 	 	 	 	 	 	 	 	1581478114	7.13	13.20
12/02/2020 03:28:35	120220	12022020	032835	190.94	13.513600	-56.965145	191.13	-0.300	0.390	1.700	190.98	-1.00	2.20	 	 	 	 	 	 	 	 	 	 	 	 	 	 	 	 	 	 	1581478115	7.32	13.56
12/02/2020 03:28:36	120220	12022020	032836	190.98	13.513557	-56.965153	191.11	0.660	-1.060	1.600	190.94	-2.40	2.10	 	 	 	 	 	 	 	 	 	 	 	 	 	 	 	 	 	 	1581478116	8.44	15.63
12/02/2020 03:28:37	120220	12022020	032837	190.65	13.513513	-56.965162	190.74	1.120	-1.980	1.940	190.54	-3.40	2.40	 	 	 	 	 	 	 	 	 	 	 	 	 	 	 	 	 	 	1581478117	9.50	17.59
12/02/2020 03:28:38	120220	12022020	032838	190.24	13.513475	-56.965170	190.25	0.800	-1.640	2.310	190.14	-3.10	2.80	 	 	 	 	 	 	 	 	 	 	 	 	 	 	 	 	 	 	1581478118	9.31	17.24
12/02/2020 03:28:39	120220	12022020	032839	189.82	13.513442	-56.965177	189.95	0.040	-0.480	2.420	189.78	-2.00	2.90	 	 	 	 	 	 	 	 	 	 	 	 	 	 	 	 	 	 	1581478119	8.29	15.35
12/02/2020 03:28:40	120220	12022020	032840	189.70	13.513408	-56.965185	189.88	-0.720	0.580	2.500	189.71	-0.90	3.00	 	 	 	 	 	 	 	 	 	 	 	 	 	 	 	 	 	 	1581478120	7.42	13.74
12/02/2020 03:28:41	120220	12022020	032841	189.83	13.513373	-56.965198	190.04	-1.130	1.000	2.530	189.88	-0.40	3.00	 	 	 	 	 	 	 	 	 	 	 	 	 	 	 	 	 	 	1581478121	7.46	13.82
12/02/2020 03:28:42	120220	12022020	032842	190.00	13.513333	-56.965212	190.17	-0.910	0.610	2.500	190.00	-0.80	3.00	 	 	 	 	 	 	 	 	 	 	 	 	 	 	 	 	 	 	1581478122	8.06	14.93
12/02/2020 03:28:43	120220	12022020	032843	190.00	13.513293	-56.965225	190.18	-0.140	-0.120	2.400	190.01	-1.50	2.90	 	 	 	 	 	 	 	 	 	 	 	 	 	 	 	 	 	 	1581478123	8.83	16.35
12/02/2020 03:28:44	120220	12022020	032844	190.14	13.513252	-56.965232	190.36	0.620	-0.510	2.090	190.21	-1.90	2.60	 	 	 	 	 	 	 	 	 	 	 	 	 	 	 	 	 	 	1581478124	9.26	17.15
12/02/2020 03:28:45	120220	12022020	032845	190.60	13.513215	-56.965238	190.86	0.770	-0.280	1.720	190.73	-1.70	2.20	 	 	 	 	 	 	 	 	 	 	 	 	 	 	 	 	 	 	1581478125	8.87	16.43
12/02/2020 03:28:46	120220	12022020	032846	191.30	13.513182	-56.965245	191.56	0.320	0.270	1.420	191.45	-1.20	1.90	 	 	 	 	 	 	 	 	 	 	 	 	 	 	 	 	 	 	1581478126	8.02	14.85
12/02/2020 03:28:47	120220	12022020	032847	191.88	13.513148	-56.965252	192.07	-0.150	0.290	1.390	191.93	-1.10	1.90	 	 	 	 	 	 	 	 	 	 	 	 	 	 	 	 	 	 	1581478127	7.23	13.39
12/02/2020 03:28:48	120220	12022020	032848	191.89	13.513110	-56.965263	192.01	-0.110	-0.660	1.770	191.83	-2.00	2.20	 	 	 	 	 	 	 	 	 	 	 	 	 	 	 	 	 	 	1581478128	7.38	13.67
12/02/2020 03:28:49	120220	12022020	032849	191.40	13.513068	-56.965275	191.45	0.300	-1.770	2.390	191.25	-3.10	2.80	 	 	 	 	 	 	 	 	 	 	 	 	 	 	 	 	 	 	1581478129	8.56	15.85
12/02/2020 03:28:50	120220	12022020	032850	190.59	13.513028	-56.965287	190.64	0.570	-2.010	3.110	190.42	-3.40	3.60	 	 	 	 	 	 	 	 	 	 	 	 	 	 	 	 	 	 	1581478130	9.27	17.17
12/02/2020 03:28:51	120220	12022020	032851	189.83	13.512992	-56.965297	189.95	0.360	-1.170	3.540	189.74	-2.60	4.00	 	 	 	 	 	 	 	 	 	 	 	 	 	 	 	 	 	 	1581478131	8.96	16.59
12/02/2020 03:28:52	120220	12022020	032852	189.55	13.512958	-56.965307	189.75	-0.280	0.220	3.480	189.55	-1.30	4.00	 	 	 	 	 	 	 	 	 	 	 	 	 	 	 	 	 	 	1581478132	8.18	15.15
12/02/2020 03:28:53	120220	12022020	032853	189.71	13.512923	-56.965317	189.95	-0.880	1.320	3.110	189.77	-0.10	3.60	 	 	 	 	 	 	 	 	 	 	 	 	 	 	 	 	 	 	1581478133	7.57	14.02
12/02/2020 03:28:54	120220	12022020	032854	190.08	13.512887	-56.965327	190.33	-0.990	1.550	2.560	190.16	0.10	3.10	 	 	 	 	 	 	 	 	 	 	 	 	 	 	 	 	 	 	1581478134	7.62	14.11
12/02/2020 03:28:55	120220	12022020	032855	190.52	13.512848	-56.965335	190.76	-0.550	1.010	1.960	190.61	-0.40	2.50	 	 	 	 	 	 	 	 	 	 	 	 	 	 	 	 	 	 	1581478135	8.19	15.17
12/02/2020 03:28:56	120220	12022020	032856	190.93	13.512807	-56.965343	191.16	0.080	0.030	1.540	191.01	-1.30	2.10	 	 	 	 	 	 	 	 	 	 	 	 	 	 	 	 	 	 	1581478136	8.74	16.19
12/02/2020 03:28:57	120220	12022020	032857	191.23	13.512767	-56.965355	191.42	0.490	-0.860	1.590	191.26	-2.20	2.10	 	 	 	 	 	 	 	 	 	 	 	 	 	 	 	 	 	 	1581478137	8.99	16.65
12/02/2020 03:28:58	120220	12022020	032858	191.22	13.512730	-56.965365	191.35	0.670	-1.240	1.780	191.17	-2.60	2.30	 	 	 	 	 	 	 	 	 	 	 	 	 	 	 	 	 	 	1581478138	8.77	16.24
12/02/2020 03:28:59	120220	12022020	032859	190.90	13.512695	-56.965372	191.01	0.800	-1.030	1.910	190.82	-2.50	2.40	 	 	 	 	 	 	 	 	 	 	 	 	 	 	 	 	 	 	1581478139	8.24	15.26
12/02/2020 03:29:00	120220	12022020	032900	190.52	13.512660	-56.965377	190.64	0.780	-0.610	1.940	190.47	-2.00	2.40	 	 	 	 	 	 	 	 	 	 	 	 	 	 	 	 	 	 	1581478140	7.74	14.33
12/02/2020 03:29:01	120220	12022020	032901	190.34	13.512623	-56.965383	190.49	0.350	-0.310	2.020	190.32	-1.70	2.50	1016.90	26.10	26.10	20.40	20.50	-1.0	71.0	71.0	392.0	25.7	258.00	11.00	69.00	12.60	16	8796.0	27.3	27.2	1581478141	7.69	14.24
12/02/2020 03:29:02	120220	12022020	032902	190.25	13.512587	-56.965393	190.41	-0.370	-0.220	2.380	190.24	-1.60	2.90	 	 	 	 	 	 	 	 	 	 	 	 	 	 	 	 	 	 	1581478142	7.91	14.65
12/02/2020 03:29:03	120220	12022020	032903	190.15	13.512550	-56.965408	190.31	-0.870	-0.230	2.780	190.12	-1.60	3.30	 	 	 	 	 	 	 	 	 	 	 	 	 	 	 	 	 	 	1581478143	8.27	15.32
12/02/2020 03:29:04	120220	12022020	032904	189.98	13.512512	-56.965423	190.14	-0.710	-0.270	2.920	189.94	-1.70	3.40	 	 	 	 	 	 	 	 	 	 	 	 	 	 	 	 	 	 	1581478144	8.60	15.93
12/02/2020 03:29:05	120220	12022020	032905	189.79	13.512472	-56.965433	189.95	-0.070	-0.300	2.730	189.77	-1.70	3.20	 	 	 	 	 	 	 	 	 	 	 	 	 	 	 	 	 	 	1581478145	8.68	16.08
12/02/2020 03:29:06	120220	12022020	032906	189.80	13.512433	-56.965438	190.00	0.360	-0.160	2.320	189.84	-1.60	2.90	 	 	 	 	 	 	 	 	 	 	 	 	 	 	 	 	 	 	1581478146	8.69	16.09
12/02/2020 03:29:07	120220	12022020	032907	190.03	13.512397	-56.965443	190.24	0.170	0.150	2.000	190.07	-1.30	2.50	 	 	 	 	 	 	 	 	 	 	 	 	 	 	 	 	 	 	1581478147	8.47	15.69
12/02/2020 03:29:08	120220	12022020	032908	190.13	13.512360	-56.965453	190.29	-0.360	0.270	2.110	190.11	-1.10	2.60	 	 	 	 	 	 	 	 	 	 	 	 	 	 	 	 	 	 	1581478148	8.03	14.87
12/02/2020 03:29:09	120220	12022020	032909	190.03	13.512323	-56.965468	190.19	-0.680	0.040	2.440	190.02	-1.30	2.90	 	 	 	 	 	 	 	 	 	 	 	 	 	 	 	 	 	 	1581478149	7.95	14.72
12/02/2020 03:29:10	120220	12022020	032910	190.00	13.512287	-56.965482	190.17	-0.460	-0.230	2.520	190.00	-1.60	3.00	 	 	 	 	 	 	 	 	 	 	 	 	 	 	 	 	 	 	1581478150	8.38	15.52
12/02/2020 03:29:11	120220	12022020	032911	190.10	13.512250	-56.965492	190.30	0.250	-0.340	2.060	190.15	-1.80	2.60	 	 	 	 	 	 	 	 	 	 	 	 	 	 	 	 	 	 	1581478151	8.47	15.69
12/02/2020 03:29:12	120220	12022020	032912	190.30	13.512213	-56.965495	190.52	0.950	-0.350	1.220	190.34	-1.80	1.80	 	 	 	 	 	 	 	 	 	 	 	 	 	 	 	 	 	 	1581478152	8.22	15.22
12/02/2020 03:29:13	120220	12022020	032913	190.46	13.512175	-56.965495	190.57	1.170	-0.470	0.730	190.45	-1.90	1.20	 	 	 	 	 	 	 	 	 	 	 	 	 	 	 	 	 	 	1581478153	8.08	14.96
12/02/2020 03:29:14	120220	12022020	032914	190.37	13.512135	-56.965498	190.45	0.760	-0.670	0.910	190.34	-2.10	1.40	 	 	 	 	 	 	 	 	 	 	 	 	 	 	 	 	 	 	1581478154	8.25	15.28
12/02/2020 03:29:15	120220	12022020	032915	190.07	13.512098	-56.965507	190.14	-0.090	-0.750	1.710	189.98	-2.10	2.20	 	 	 	 	 	 	 	 	 	 	 	 	 	 	 	 	 	 	1581478155	8.39	15.54
12/02/2020 03:29:16	120220	12022020	032916	189.49	13.512060	-56.965523	189.58	-0.860	-0.790	3.110	189.37	-2.20	3.50	 	 	 	 	 	 	 	 	 	 	 	 	 	 	 	 	 	 	1581478156	8.34	15.45
12/02/2020 03:29:17	120220	12022020	032917	188.89	13.512023	-56.965545	189.06	-1.170	-0.590	4.320	188.82	-2.00	4.80	 	 	 	 	 	 	 	 	 	 	 	 	 	 	 	 	 	 	1581478157	8.71	16.13
12/02/2020 03:29:18	120220	12022020	032918	188.71	13.511988	-56.965562	188.96	-1.000	0.080	4.590	188.73	-1.40	5.10	 	 	 	 	 	 	 	 	 	 	 	 	 	 	 	 	 	 	1581478158	9.01	16.69
12/02/2020 03:29:19	120220	12022020	032919	188.96	13.511955	-56.965573	189.25	-0.520	0.810	3.920	189.04	-0.60	4.50	 	 	 	 	 	 	 	 	 	 	 	 	 	 	 	 	 	 	1581478159	8.40	15.56
12/02/2020 03:29:20	120220	12022020	032920	189.43	13.511918	-56.965580	189.70	0.190	0.880	2.550	189.52	-0.50	3.10	 	 	 	 	 	 	 	 	 	 	 	 	 	 	 	 	 	 	1581478160	7.72	14.30
12/02/2020 03:29:21	120220	12022020	032921	189.75	13.511878	-56.965578	189.96	1.010	0.170	1.130	189.79	-1.20	1.70	 	 	 	 	 	 	 	 	 	 	 	 	 	 	 	 	 	 	1581478161	7.87	14.58
12/02/2020 03:29:22	120220	12022020	032922	189.97	13.511837	-56.965577	190.18	1.410	-0.480	0.140	190.05	-1.90	0.70	 	 	 	 	 	 	 	 	 	 	 	 	 	 	 	 	 	 	1581478162	8.73	16.17
12/02/2020 03:29:23	120220	12022020	032923	190.45	13.511800	-56.965577	190.68	0.990	-0.570	-0.280	190.57	-2.00	0.20	 	 	 	 	 	 	 	 	 	 	 	 	 	 	 	 	 	 	1581478163	8.89	16.46
12/02/2020 03:29:24	120220	12022020	032924	190.87	13.511765	-56.965583	191.03	0.130	-0.680	0.060	190.88	-2.10	0.50	 	 	 	 	 	 	 	 	 	 	 	 	 	 	 	 	 	 	1581478164	7.96	14.74
12/02/2020 03:29:25	120220	12022020	032925	190.66	13.511727	-56.965598	190.77	-0.450	-1.310	1.230	190.55	-2.70	1.70	 	 	 	 	 	 	 	 	 	 	 	 	 	 	 	 	 	 	1581478165	7.66	14.19
12/02/2020 03:29:26	120220	12022020	032926	190.13	13.511687	-56.965615	190.25	-0.520	-1.790	2.490	190.03	-3.20	2.90	 	 	 	 	 	 	 	 	 	 	 	 	 	 	 	 	 	 	1581478166	8.61	15.95
12/02/2020 03:29:27	120220	12022020	032927	189.80	13.511650	-56.965628	189.99	-0.390	-1.320	3.070	189.78	-2.80	3.50	 	 	 	 	 	 	 	 	 	 	 	 	 	 	 	 	 	 	1581478167	9.25	17.13
12/02/2020 03:29:28	120220	12022020	032928	189.78	13.511615	-56.965638	190.02	-0.460	-0.120	3.110	189.80	-1.60	3.60	 	 	 	 	 	 	 	 	 	 	 	 	 	 	 	 	 	 	1581478168	8.57	15.87
12/02/2020 03:29:29	120220	12022020	032929	189.87	13.511582	-56.965647	190.06	-0.710	0.860	2.970	189.86	-0.60	3.50	 	 	 	 	 	 	 	 	 	 	 	 	 	 	 	 	 	 	1581478169	7.63	14.13
12/02/2020 03:29:30	120220	12022020	032930	189.77	13.511543	-56.965657	189.88	-0.770	0.920	2.840	189.72	-0.50	3.30	 	 	 	 	 	 	 	 	 	 	 	 	 	 	 	 	 	 	1581478170	7.55	13.98
12/02/2020 03:29:31	120220	12022020	032931	189.47	13.511503	-56.965667	189.61	-0.380	0.350	2.540	189.43	-1.00	3.10	 	 	 	 	 	 	 	 	 	 	 	 	 	 	 	 	 	 	1581478171	8.34	15.45
12/02/2020 03:29:32	120220	12022020	032932	189.34	13.511462	-56.965675	189.50	0.250	-0.060	2.070	189.35	-1.40	2.60	 	 	 	 	 	 	 	 	 	 	 	 	 	 	 	 	 	 	1581478172	9.08	16.82
12/02/2020 03:29:33	120220	12022020	032933	189.53	13.511425	-56.965682	189.75	0.730	0.160	1.350	189.62	-1.30	1.90	 	 	 	 	 	 	 	 	 	 	 	 	 	 	 	 	 	 	1581478173	8.96	16.59
12/02/2020 03:29:34	120220	12022020	032934	190.12	13.511392	-56.965685	190.38	0.770	0.700	0.520	190.27	-0.70	1.10	 	 	 	 	 	 	 	 	 	 	 	 	 	 	 	 	 	 	1581478174	8.11	15.02
12/02/2020 03:29:35	120220	12022020	032935	190.86	13.511358	-56.965688	191.08	0.490	0.790	0.100	190.98	-0.60	0.60	 	 	 	 	 	 	 	 	 	 	 	 	 	 	 	 	 	 	1581478175	7.27	13.46
12/02/2020 03:29:36	120220	12022020	032936	191.29	13.511322	-56.965695	191.46	0.310	-0.120	0.320	191.33	-1.40	0.80	 	 	 	 	 	 	 	 	 	 	 	 	 	 	 	 	 	 	1581478176	7.15	13.24
12/02/2020 03:29:37	120220	12022020	032937	191.35	13.511282	-56.965705	191.49	0.390	-1.590	0.920	191.31	-2.90	1.40	 	 	 	 	 	 	 	 	 	 	 	 	 	 	 	 	 	 	1581478177	7.95	14.72
12/02/2020 03:29:38	120220	12022020	032938	190.99	13.511242	-56.965717	191.09	0.450	-2.560	1.950	190.86	-3.90	2.40	 	 	 	 	 	 	 	 	 	 	 	 	 	 	 	 	 	 	1581478178	8.85	16.39
12/02/2020 03:29:39	120220	12022020	032939	190.24	13.511205	-56.965730	190.33	0.260	-2.450	3.070	190.08	-3.90	3.50	 	 	 	 	 	 	 	 	 	 	 	 	 	 	 	 	 	 	1581478179	8.92	16.52
12/02/2020 03:29:40	120220	12022020	032940	189.53	13.511170	-56.965742	189.66	-0.190	-1.330	3.650	189.42	-2.80	4.10	 	 	 	 	 	 	 	 	 	 	 	 	 	 	 	 	 	 	1581478180	8.43	15.61
12/02/2020 03:29:41	120220	12022020	032941	189.14	13.511137	-56.965753	189.33	-0.680	0.020	3.750	189.11	-1.40	4.20	 	 	 	 	 	 	 	 	 	 	 	 	 	 	 	 	 	 	1581478181	7.81	14.46
12/02/2020 03:29:42	120220	12022020	032942	189.09	13.511100	-56.965763	189.31	-0.850	0.870	3.370	189.10	-0.60	3.90	 	 	 	 	 	 	 	 	 	 	 	 	 	 	 	 	 	 	1581478182	7.66	14.19
12/02/2020 03:29:43	120220	12022020	032943	189.25	13.511060	-56.965772	189.47	-0.640	1.150	2.630	189.31	-0.30	3.20	 	 	 	 	 	 	 	 	 	 	 	 	 	 	 	 	 	 	1581478183	8.12	15.04
12/02/2020 03:29:44	120220	12022020	032944	189.77	13.511022	-56.965777	190.06	-0.360	1.330	1.730	189.93	-0.10	2.30	 	 	 	 	 	 	 	 	 	 	 	 	 	 	 	 	 	 	1581478184	8.63	15.98
12/02/2020 03:29:45	120220	12022020	032945	190.59	13.510985	-56.965782	190.87	-0.250	1.240	1.140	190.75	-0.10	1.70	 	 	 	 	 	 	 	 	 	 	 	 	 	 	 	 	 	 	1581478185	8.45	15.65
12/02/2020 03:29:46	120220	12022020	032946	191.14	13.510948	-56.965790	191.32	-0.140	0.460	1.070	191.16	-0.90	1.60	 	 	 	 	 	 	 	 	 	 	 	 	 	 	 	 	 	 	1581478186	8.01	14.83
12/02/2020 03:29:47	120220	12022020	032947	190.99	13.510907	-56.965802	191.08	0.280	-0.980	1.470	190.89	-2.30	1.90	 	 	 	 	 	 	 	 	 	 	 	 	 	 	 	 	 	 	1581478187	8.20	15.19
12/02/2020 03:29:48	120220	12022020	032948	190.47	13.510867	-56.965812	190.59	0.820	-1.950	1.950	190.37	-3.30	2.40	 	 	 	 	 	 	 	 	 	 	 	 	 	 	 	 	 	 	1581478188	8.97	16.61
12/02/2020 03:29:49	120220	12022020	032949	190.13	13.510830	-56.965818	190.30	1.010	-1.600	2.190	190.09	-3.00	2.70	 	 	 	 	 	 	 	 	 	 	 	 	 	 	 	 	 	 	1581478189	9.01	16.69
12/02/2020 03:29:50	120220	12022020	032950	189.93	13.510798	-56.965825	190.08	0.660	-0.610	2.270	189.87	-2.10	2.80	 	 	 	 	 	 	 	 	 	 	 	 	 	 	 	 	 	 	1581478190	7.85	14.54
12/02/2020 03:29:51	120220	12022020	032951	189.60	13.510765	-56.965832	189.73	0.090	-0.010	2.420	189.53	-1.40	2.90	 	 	 	 	 	 	 	 	 	 	 	 	 	 	 	 	 	 	1581478191	7.07	13.09
12/02/2020 03:29:52	120220	12022020	032952	189.29	13.510727	-56.965842	189.44	-0.330	0.110	2.600	189.26	-1.30	3.10	 	 	 	 	 	 	 	 	 	 	 	 	 	 	 	 	 	 	1581478192	7.52	13.93
12/02/2020 03:29:53	120220	12022020	032953	189.28	13.510688	-56.965852	189.49	-0.460	0.170	2.640	189.31	-1.20	3.10	 	 	 	 	 	 	 	 	 	 	 	 	 	 	 	 	 	 	1581478193	8.27	15.32
12/02/2020 03:29:54	120220	12022020	032954	189.54	13.510652	-56.965862	189.78	-0.400	0.270	2.540	189.61	-1.10	3.00	 	 	 	 	 	 	 	 	 	 	 	 	 	 	 	 	 	 	1581478194	8.45	15.65
12/02/2020 03:29:55	120220	12022020	032955	189.91	13.510615	-56.965872	190.15	-0.290	0.220	2.260	189.98	-1.20	2.80	 	 	 	 	 	 	 	 	 	 	 	 	 	 	 	 	 	 	1581478195	8.26	15.30
12/02/2020 03:29:56	120220	12022020	032956	190.32	13.510577	-56.965878	190.57	-0.180	0.020	1.880	190.41	-1.40	2.40	 	 	 	 	 	 	 	 	 	 	 	 	 	 	 	 	 	 	1581478196	8.21	15.20
12/02/2020 03:29:57	120220	12022020	032957	190.81	13.510540	-56.965885	191.05	-0.040	-0.190	1.370	190.91	-1.60	1.90	 	 	 	 	 	 	 	 	 	 	 	 	 	 	 	 	 	 	1581478197	8.22	15.22
12/02/2020 03:29:58	120220	12022020	032958	191.26	13.510503	-56.965892	191.45	0.180	-0.450	0.890	191.31	-1.80	1.40	 	 	 	 	 	 	 	 	 	 	 	 	 	 	 	 	 	 	1581478198	8.12	15.04
12/02/2020 03:29:59	120220	12022020	032959	191.28	13.510465	-56.965898	191.39	0.490	-0.910	1.020	191.21	-2.30	1.50	 	 	 	 	 	 	 	 	 	 	 	 	 	 	 	 	 	 	1581478199	8.05	14.91
12/02/2020 03:30:00	120220	12022020	033000	190.78	13.510425	-56.965907	190.85	0.700	-1.320	1.650	190.65	-2.70	2.10	 	 	 	 	 	 	 	 	 	 	 	 	 	 	 	 	 	 	1581478200	8.34	15.45
12/02/2020 03:30:01	120220	12022020	033001	190.15	13.510387	-56.965915	190.24	0.490	-1.110	2.390	190.03	-2.50	2.90	1017.00	26.10	26.10	20.60	20.60	-1.0	71.0	71.0	393.0	25.7	257.00	10.50	67.00	12.20	16	8322.0	27.2	27.2	1581478201	8.66	16.04
12/02/2020 03:30:02	120220	12022020	033002	189.58	13.510352	-56.965925	189.69	-0.080	-0.380	2.940	189.48	-1.80	3.40	 	 	 	 	 	 	 	 	 	 	 	 	 	 	 	 	 	 	1581478202	8.37	15.50
12/02/2020 03:30:03	120220	12022020	033003	189.19	13.510317	-56.965937	189.35	-0.610	0.260	3.160	189.14	-1.20	3.70	 	 	 	 	 	 	 	 	 	 	 	 	 	 	 	 	 	 	1581478203	7.95	14.72
12/02/2020 03:30:04	120220	12022020	033004	189.09	13.510278	-56.965948	189.34	-0.830	0.560	3.080	189.10	-0.80	3.60	 	 	 	 	 	 	 	 	 	 	 	 	 	 	 	 	 	 	1581478204	8.06	14.93
12/02/2020 03:30:05	120220	12022020	033005	189.41	13.510240	-56.965958	189.70	-0.650	0.720	2.630	189.52	-0.70	3.20	 	 	 	 	 	 	 	 	 	 	 	 	 	 	 	 	 	 	1581478205	8.42	15.59
12/02/2020 03:30:06	120220	12022020	033006	190.05	13.510203	-56.965967	190.35	-0.310	0.770	1.970	190.19	-0.60	2.50	 	 	 	 	 	 	 	 	 	 	 	 	 	 	 	 	 	 	1581478206	8.41	15.58
12/02/2020 03:30:07	120220	12022020	033007	190.87	13.510167	-56.965973	191.17	0.010	0.530	1.380	191.03	-0.90	1.90	 	 	 	 	 	 	 	 	 	 	 	 	 	 	 	 	 	 	1581478207	8.13	15.06
12/02/2020 03:30:08	120220	12022020	033008	191.61	13.510130	-56.965980	191.86	0.300	-0.040	0.980	191.71	-1.40	1.50	 	 	 	 	 	 	 	 	 	 	 	 	 	 	 	 	 	 	1581478208	8.03	14.87
12/02/2020 03:30:09	120220	12022020	033009	191.87	13.510093	-56.965988	192.03	0.590	-0.760	1.000	191.85	-2.10	1.50	 	 	 	 	 	 	 	 	 	 	 	 	 	 	 	 	 	 	1581478209	8.09	14.98
12/02/2020 03:30:10	120220	12022020	033010	191.60	13.510055	-56.965997	191.70	0.770	-1.350	1.460	191.50	-2.70	1.90	 	 	 	 	 	 	 	 	 	 	 	 	 	 	 	 	 	 	1581478210	8.20	15.19
12/02/2020 03:30:11	120220	12022020	033011	191.12	13.510017	-56.966005	191.24	0.660	-1.580	1.990	191.02	-3.00	2.50	 	 	 	 	 	 	 	 	 	 	 	 	 	 	 	 	 	 	1581478211	8.28	15.33
12/02/2020 03:30:12	120220	12022020	033012	190.65	13.509982	-56.966015	190.82	0.230	-1.340	2.550	190.57	-2.80	3.00	 	 	 	 	 	 	 	 	 	 	 	 	 	 	 	 	 	 	1581478212	8.27	15.32
12/02/2020 03:30:13	120220	12022020	033013	190.31	13.509945	-56.966027	190.49	-0.330	-0.700	2.930	190.26	-2.10	3.40	 	 	 	 	 	 	 	 	 	 	 	 	 	 	 	 	 	 	1581478213	8.16	15.11
12/02/2020 03:30:14	120220	12022020	033014	190.10	13.509910	-56.966038	190.29	-0.690	0.050	2.960	190.08	-1.40	3.50	 	 	 	 	 	 	 	 	 	 	 	 	 	 	 	 	 	 	1581478214	8.02	14.85
12/02/2020 03:30:15	120220	12022020	033015	190.04	13.509873	-56.966047	190.24	-0.690	0.530	2.640	190.04	-0.90	3.20	 	 	 	 	 	 	 	 	 	 	 	 	 	 	 	 	 	 	1581478215	7.99	14.80
12/02/2020 03:30:16	120220	12022020	033016	190.05	13.509833	-56.966055	190.26	-0.370	0.510	2.300	190.05	-0.90	2.80	 	 	 	 	 	 	 	 	 	 	 	 	 	 	 	 	 	 	1581478216	8.18	15.15
12/02/2020 03:30:17	120220	12022020	033017	190.11	13.509793	-56.966063	190.32	-0.010	0.120	2.040	190.14	-1.20	2.60	 	 	 	 	 	 	 	 	 	 	 	 	 	 	 	 	 	 	1581478217	8.61	15.95
12/02/2020 03:30:18	120220	12022020	033018	190.22	13.509753	-56.966072	190.47	0.120	-0.030	1.870	190.25	-1.40	2.40	 	 	 	 	 	 	 	 	 	 	 	 	 	 	 	 	 	 	1581478218	8.94	16.56
12/02/2020 03:30:19	120220	12022020	033019	190.55	13.509718	-56.966078	190.80	-0.030	0.430	1.700	190.64	-1.00	2.20	 	 	 	 	 	 	 	 	 	 	 	 	 	 	 	 	 	 	1581478219	8.66	16.04
12/02/2020 03:30:20	120220	12022020	033020	191.09	13.509685	-56.966085	191.34	-0.300	0.900	1.390	191.20	-0.50	1.90	 	 	 	 	 	 	 	 	 	 	 	 	 	 	 	 	 	 	1581478220	7.73	14.32
12/02/2020 03:30:21	120220	12022020	033021	191.50	13.509650	-56.966095	191.68	-0.320	0.350	1.400	191.53	-1.00	1.90	 	 	 	 	 	 	 	 	 	 	 	 	 	 	 	 	 	 	1581478221	7.13	13.20
12/02/2020 03:30:22	120220	12022020	033022	191.41	13.509610	-56.966108	191.52	0.140	-1.200	1.880	191.33	-2.50	2.40	 	 	 	 	 	 	 	 	 	 	 	 	 	 	 	 	 	 	1581478222	7.85	14.54
12/02/2020 03:30:23	120220	12022020	033023	190.96	13.509567	-56.966118	191.08	0.760	-2.340	2.250	190.86	-3.70	2.70	 	 	 	 	 	 	 	 	 	 	 	 	 	 	 	 	 	 	1581478223	9.18	17.00
12/02/2020 03:30:24	120220	12022020	033024	190.47	13.509530	-56.966127	190.60	0.920	-2.020	2.390	190.37	-3.50	2.90	 	 	 	 	 	 	 	 	 	 	 	 	 	 	 	 	 	 	1581478224	9.39	17.39
12/02/2020 03:30:25	120220	12022020	033025	190.00	13.509497	-56.966132	190.12	0.470	-0.780	2.430	189.91	-2.30	2.90	 	 	 	 	 	 	 	 	 	 	 	 	 	 	 	 	 	 	1581478225	8.22	15.22
12/02/2020 03:30:26	120220	12022020	033026	189.57	13.509462	-56.966138	189.71	-0.200	0.240	2.460	189.50	-1.20	3.00	 	 	 	 	 	 	 	 	 	 	 	 	 	 	 	 	 	 	1581478226	7.31	13.54
12/02/2020 03:30:27	120220	12022020	033027	189.41	13.509425	-56.966147	189.62	-0.740	0.760	2.480	189.43	-0.70	3.00	 	 	 	 	 	 	 	 	 	 	 	 	 	 	 	 	 	 	1581478227	7.58	14.04
12/02/2020 03:30:28	120220	12022020	033028	189.67	13.509387	-56.966158	189.94	-0.950	0.970	2.440	189.76	-0.40	3.00	 	 	 	 	 	 	 	 	 	 	 	 	 	 	 	 	 	 	1581478228	8.23	15.24
12/02/2020 03:30:29	120220	12022020	033029	190.13	13.509348	-56.966170	190.39	-0.800	0.790	2.330	190.23	-0.60	2.80	 	 	 	 	 	 	 	 	 	 	 	 	 	 	 	 	 	 	1581478229	8.43	15.61
12/02/2020 03:30:30	120220	12022020	033030	190.63	13.509308	-56.966180	190.89	-0.330	0.220	2.130	190.73	-1.10	2.70	 	 	 	 	 	 	 	 	 	 	 	 	 	 	 	 	 	 	1581478230	8.53	15.80
12/02/2020 03:30:31	120220	12022020	033031	191.10	13.509270	-56.966188	191.33	0.240	-0.390	1.820	191.17	-1.80	2.30	 	 	 	 	 	 	 	 	 	 	 	 	 	 	 	 	 	 	1581478231	8.74	16.19
12/02/2020 03:30:32	120220	12022020	033032	191.34	13.509232	-56.966195	191.53	0.610	-0.700	1.540	191.36	-2.10	2.10	 	 	 	 	 	 	 	 	 	 	 	 	 	 	 	 	 	 	1581478232	8.66	16.04
12/02/2020 03:30:33	120220	12022020	033033	191.36	13.509195	-56.966202	191.53	0.610	-0.720	1.360	191.36	-2.10	1.90	 	 	 	 	 	 	 	 	 	 	 	 	 	 	 	 	 	 	1581478233	8.28	15.33
12/02/2020 03:30:34	120220	12022020	033034	191.36	13.509160	-56.966208	191.54	0.320	-0.540	1.340	191.37	-1.90	1.90	 	 	 	 	 	 	 	 	 	 	 	 	 	 	 	 	 	 	1581478234	7.96	14.74
12/02/2020 03:30:35	120220	12022020	033035	191.34	13.509123	-56.966215	191.51	0.020	-0.470	1.560	191.31	-1.90	2.10	 	 	 	 	 	 	 	 	 	 	 	 	 	 	 	 	 	 	1581478235	7.76	14.37
12/02/2020 03:30:36	120220	12022020	033036	191.07	13.509085	-56.966227	191.22	-0.060	-0.780	2.040	190.98	-2.10	2.50	 	 	 	 	 	 	 	 	 	 	 	 	 	 	 	 	 	 	1581478236	7.86	14.56
12/02/2020 03:30:37	120220	12022020	033037	190.61	13.509045	-56.966238	190.76	0.080	-1.100	2.480	190.53	-2.50	3.00	 	 	 	 	 	 	 	 	 	 	 	 	 	 	 	 	 	 	1581478237	8.51	15.76
12/02/2020 03:30:38	120220	12022020	033038	190.41	13.509007	-56.966248	190.64	0.140	-0.620	2.450	190.45	-2.10	3.00	 	 	 	 	 	 	 	 	 	 	 	 	 	 	 	 	 	 	1581478238	9.04	16.74
12/02/2020 03:30:39	120220	12022020	033039	190.88	13.508973	-56.966255	191.20	-0.080	0.710	1.920	191.04	-0.80	2.50	 	 	 	 	 	 	 	 	 	 	 	 	 	 	 	 	 	 	1581478239	8.53	15.80
12/02/2020 03:30:40	120220	12022020	033040	191.68	13.508940	-56.966258	191.96	-0.400	1.530	1.290	191.80	0.10	1.80	 	 	 	 	 	 	 	 	 	 	 	 	 	 	 	 	 	 	1581478240	7.28	13.48
12/02/2020 03:30:41	120220	12022020	033041	191.98	13.508902	-56.966267	192.15	-0.400	0.730	1.310	191.95	-0.60	1.80	 	 	 	 	 	 	 	 	 	 	 	 	 	 	 	 	 	 	1581478241	7.10	13.15
12/02/2020 03:30:42	120220	12022020	033042	191.64	13.508858	-56.966280	191.76	-0.000	-0.970	2.140	191.54	-2.30	2.60	 	 	 	 	 	 	 	 	 	 	 	 	 	 	 	 	 	 	1581478242	8.51	15.76
12/02/2020 03:30:43	120220	12022020	033043	191.26	13.508815	-56.966295	191.48	0.300	-1.860	3.090	191.23	-3.20	3.50	 	 	 	 	 	 	 	 	 	 	 	 	 	 	 	 	 	 	1581478243	9.87	18.28
12/02/2020 03:30:44	120220	12022020	033044	191.31	13.508782	-56.966310	191.59	0.050	-1.210	3.620	191.36	-2.70	4.10	 	 	 	 	 	 	 	 	 	 	 	 	 	 	 	 	 	 	1581478244	9.58	17.74
12/02/2020 03:30:45	120220	12022020	033045	191.58	13.508752	-56.966323	191.84	-0.490	0.000	3.650	191.61	-1.50	4.20	 	 	 	 	 	 	 	 	 	 	 	 	 	 	 	 	 	 	1581478245	7.97	14.76
12/02/2020 03:30:46	120220	12022020	033046	191.69	13.508718	-56.966335	191.90	-0.630	0.520	3.190	191.69	-0.90	3.70	 	 	 	 	 	 	 	 	 	 	 	 	 	 	 	 	 	 	1581478246	7.01	12.98
12/02/2020 03:30:47	120220	12022020	033047	191.66	13.508680	-56.966343	191.82	-0.080	0.230	2.340	191.64	-1.10	2.90	 	 	 	 	 	 	 	 	 	 	 	 	 	 	 	 	 	 	1581478247	7.48	13.85
12/02/2020 03:30:48	120220	12022020	033048	191.60	13.508640	-56.966347	191.77	0.680	-0.250	1.540	191.61	-1.60	2.10	 	 	 	 	 	 	 	 	 	 	 	 	 	 	 	 	 	 	1581478248	8.44	15.63
12/02/2020 03:30:49	120220	12022020	033049	191.70	13.508600	-56.966350	191.91	1.030	-0.420	0.880	191.74	-1.80	1.40	 	 	 	 	 	 	 	 	 	 	 	 	 	 	 	 	 	 	1581478249	8.85	16.39
12/02/2020 03:30:50	120220	12022020	033050	191.88	13.508562	-56.966355	192.07	0.780	-0.300	0.670	191.91	-1.70	1.20	 	 	 	 	 	 	 	 	 	 	 	 	 	 	 	 	 	 	1581478250	8.60	15.93
12/02/2020 03:30:51	120220	12022020	033051	192.00	13.508527	-56.966363	192.20	0.240	-0.080	1.040	192.03	-1.50	1.50	 	 	 	 	 	 	 	 	 	 	 	 	 	 	 	 	 	 	1581478251	8.12	15.04
12/02/2020 03:30:52	120220	12022020	033052	192.21	13.508490	-56.966373	192.44	-0.240	0.080	1.600	192.27	-1.30	2.10	 	 	 	 	 	 	 	 	 	 	 	 	 	 	 	 	 	 	1581478252	7.95	14.72
12/02/2020 03:30:53	120220	12022020	033053	192.54	13.508453	-56.966387	192.78	-0.530	-0.080	2.200	192.60	-1.50	2.70	 	 	 	 	 	 	 	 	 	 	 	 	 	 	 	 	 	 	1581478253	7.97	14.76
12/02/2020 03:30:54	120220	12022020	033054	192.70	13.508417	-56.966403	192.90	-0.630	-0.470	2.950	192.68	-1.80	3.40	 	 	 	 	 	 	 	 	 	 	 	 	 	 	 	 	 	 	1581478254	8.25	15.28
12/02/2020 03:30:55	120220	12022020	033055	192.38	13.508380	-56.966420	192.48	-0.480	-0.900	3.620	192.23	-2.30	4.10	 	 	 	 	 	 	 	 	 	 	 	 	 	 	 	 	 	 	1581478255	8.58	15.89
12/02/2020 03:30:56	120220	12022020	033056	191.45	13.508342	-56.966435	191.53	-0.070	-1.190	3.990	191.26	-2.60	4.50	 	 	 	 	 	 	 	 	 	 	 	 	 	 	 	 	 	 	1581478256	8.74	16.19
12/02/2020 03:30:57	120220	12022020	033057	190.59	13.508303	-56.966445	190.72	0.270	-0.830	3.680	190.50	-2.30	4.20	 	 	 	 	 	 	 	 	 	 	 	 	 	 	 	 	 	 	1581478257	8.82	16.33
12/02/2020 03:30:58	120220	12022020	033058	190.43	13.508268	-56.966450	190.65	0.240	0.110	2.720	190.49	-1.40	3.30	 	 	 	 	 	 	 	 	 	 	 	 	 	 	 	 	 	 	1581478258	8.42	15.59
12/02/2020 03:30:59	120220	12022020	033059	190.91	13.508235	-56.966455	191.15	-0.030	0.840	1.570	191.04	-0.60	2.10	 	 	 	 	 	 	 	 	 	 	 	 	 	 	 	 	 	 	1581478259	7.63	14.13
12/02/2020 03:31:00	120220	12022020	033100	191.48	13.508197	-56.966460	191.67	-0.130	0.630	0.880	191.56	-0.70	1.40	 	 	 	 	 	 	 	 	 	 	 	 	 	 	 	 	 	 	1581478260	7.41	13.72
12/02/2020 03:31:01	120220	12022020	033101	191.78	13.508157	-56.966468	191.97	0.160	-0.220	0.780	191.82	-1.60	1.30	1017.00	26.10	26.10	20.80	20.80	-1.0	72.0	72.0	393.0	25.7	259.00	10.10	69.00	11.60	16	9478.0	27.2	27.2	1581478261	8.14	15.08
12/02/2020 03:31:02	120220	12022020	033102	191.99	13.508117	-56.966477	192.20	0.520	-0.760	1.050	192.04	-2.10	1.50	 	 	 	 	 	 	 	 	 	 	 	 	 	 	 	 	 	 	1581478262	8.99	16.65
12/02/2020 03:31:03	120220	12022020	033103	192.19	13.508080	-56.966487	192.40	0.560	-0.730	1.570	192.21	-2.10	2.00	 	 	 	 	 	 	 	 	 	 	 	 	 	 	 	 	 	 	1581478263	8.84	16.37
12/02/2020 03:31:04	120220	12022020	033104	192.11	13.508043	-56.966498	192.25	0.270	-0.640	2.230	192.04	-2.00	2.70	 	 	 	 	 	 	 	 	 	 	 	 	 	 	 	 	 	 	1581478264	8.14	15.08
12/02/2020 03:31:05	120220	12022020	033105	191.58	13.508007	-56.966512	191.68	-0.130	-0.770	3.090	191.44	-2.20	3.50	 	 	 	 	 	 	 	 	 	 	 	 	 	 	 	 	 	 	1581478265	8.03	14.87
12/02/2020 03:31:06	120220	12022020	033106	191.05	13.507968	-56.966527	191.26	-0.540	-0.570	3.730	191.02	-2.00	4.20	 	 	 	 	 	 	 	 	 	 	 	 	 	 	 	 	 	 	1581478266	8.58	15.89
12/02/2020 03:31:07	120220	12022020	033107	191.11	13.507935	-56.966540	191.41	-0.860	0.360	3.650	191.19	-1.10	4.20	 	 	 	 	 	 	 	 	 	 	 	 	 	 	 	 	 	 	1581478267	8.68	16.08
12/02/2020 03:31:08	120220	12022020	033108	191.59	13.507903	-56.966552	191.87	-0.920	1.180	2.980	191.69	-0.20	3.50	 	 	 	 	 	 	 	 	 	 	 	 	 	 	 	 	 	 	1581478268	7.79	14.43
12/02/2020 03:31:09	120220	12022020	033109	192.08	13.507867	-56.966560	192.32	-0.470	0.940	1.950	192.17	-0.40	2.50	 	 	 	 	 	 	 	 	 	 	 	 	 	 	 	 	 	 	1581478269	7.28	13.48
12/02/2020 03:31:10	120220	12022020	033110	192.47	13.507825	-56.966565	192.66	0.370	-0.140	0.950	192.51	-1.50	1.50	 	 	 	 	 	 	 	 	 	 	 	 	 	 	 	 	 	 	1581478270	7.98	14.78
12/02/2020 03:31:11	120220	12022020	033111	192.51	13.507783	-56.966570	192.66	1.120	-1.250	0.490	192.47	-2.60	1.00	 	 	 	 	 	 	 	 	 	 	 	 	 	 	 	 	 	 	1581478271	8.94	16.56
12/02/2020 03:31:12	120220	12022020	033112	192.19	13.507743	-56.966575	192.31	1.270	-1.730	0.650	192.10	-3.10	1.10	 	 	 	 	 	 	 	 	 	 	 	 	 	 	 	 	 	 	1581478272	9.16	16.96
12/02/2020 03:31:13	120220	12022020	033113	191.72	13.507707	-56.966583	191.84	0.710	-1.360	1.400	191.62	-2.80	1.80	 	 	 	 	 	 	 	 	 	 	 	 	 	 	 	 	 	 	1581478273	8.72	16.15
12/02/2020 03:31:14	120220	12022020	033114	191.22	13.507673	-56.966597	191.36	-0.150	-0.600	2.400	191.14	-2.00	2.80	 	 	 	 	 	 	 	 	 	 	 	 	 	 	 	 	 	 	1581478274	8.01	14.83
12/02/2020 03:31:15	120220	12022020	033115	190.90	13.507638	-56.966613	191.10	-0.810	0.120	3.130	190.88	-1.30	3.60	 	 	 	 	 	 	 	 	 	 	 	 	 	 	 	 	 	 	1581478275	7.84	14.52
12/02/2020 03:31:16	120220	12022020	033116	190.95	13.507603	-56.966630	191.20	-1.040	0.580	3.320	191.00	-0.80	3.80	 	 	 	 	 	 	 	 	 	 	 	 	 	 	 	 	 	 	1581478276	8.14	15.08
12/02/2020 03:31:17	120220	12022020	033117	191.33	13.507565	-56.966643	191.61	-0.890	0.740	2.960	191.43	-0.60	3.50	 	 	 	 	 	 	 	 	 	 	 	 	 	 	 	 	 	 	1581478277	8.38	15.52
12/02/2020 03:31:18	120220	12022020	033118	191.84	13.507528	-56.966653	192.10	-0.480	0.550	2.280	191.94	-0.80	2.80	 	 	 	 	 	 	 	 	 	 	 	 	 	 	 	 	 	 	1581478278	8.42	15.59
12/02/2020 03:31:19	120220	12022020	033119	192.28	13.507488	-56.966662	192.51	0.070	0.050	1.470	192.35	-1.30	2.00	 	 	 	 	 	 	 	 	 	 	 	 	 	 	 	 	 	 	1581478279	8.49	15.72
12/02/2020 03:31:20	120220	12022020	033120	192.52	13.507448	-56.966665	192.70	0.560	-0.460	0.850	192.54	-1.80	1.40	 	 	 	 	 	 	 	 	 	 	 	 	 	 	 	 	 	 	1581478280	8.62	15.96
12/02/2020 03:31:21	120220	12022020	033121	192.47	13.507410	-56.966670	192.62	0.690	-0.720	0.720	192.43	-2.10	1.20	 	 	 	 	 	 	 	 	 	 	 	 	 	 	 	 	 	 	1581478281	8.64	16.00
12/02/2020 03:31:22	120220	12022020	033122	192.21	13.507373	-56.966678	192.34	0.450	-0.710	1.060	192.15	-2.10	1.50	 	 	 	 	 	 	 	 	 	 	 	 	 	 	 	 	 	 	1581478282	8.35	15.46
12/02/2020 03:31:23	120220	12022020	033123	191.89	13.507337	-56.966688	192.02	0.090	-0.560	1.680	191.83	-1.90	2.10	 	 	 	 	 	 	 	 	 	 	 	 	 	 	 	 	 	 	1581478283	8.05	14.91
12/02/2020 03:31:24	120220	12022020	033124	191.64	13.507302	-56.966702	191.81	-0.150	-0.410	2.250	191.60	-1.80	2.70	 	 	 	 	 	 	 	 	 	 	 	 	 	 	 	 	 	 	1581478284	8.00	14.82
12/02/2020 03:31:25	120220	12022020	033125	191.58	13.507265	-56.966715	191.78	-0.190	-0.270	2.480	191.60	-1.70	3.00	 	 	 	 	 	 	 	 	 	 	 	 	 	 	 	 	 	 	1581478285	8.17	15.13
12/02/2020 03:31:26	120220	12022020	033126	191.69	13.507228	-56.966725	191.89	-0.090	-0.110	2.410	191.71	-1.50	2.90	 	 	 	 	 	 	 	 	 	 	 	 	 	 	 	 	 	 	1581478286	8.29	15.35
12/02/2020 03:31:27	120220	12022020	033127	191.76	13.507192	-56.966735	191.92	0.070	-0.100	2.180	191.75	-1.50	2.70	 	 	 	 	 	 	 	 	 	 	 	 	 	 	 	 	 	 	1581478287	8.23	15.24
12/02/2020 03:31:28	120220	12022020	033128	191.65	13.507152	-56.966743	191.80	0.140	-0.270	2.010	191.61	-1.60	2.50	 	 	 	 	 	 	 	 	 	 	 	 	 	 	 	 	 	 	1581478288	8.28	15.33
12/02/2020 03:31:29	120220	12022020	033129	191.51	13.507113	-56.966753	191.68	-0.010	-0.360	2.140	191.50	-1.70	2.60	 	 	 	 	 	 	 	 	 	 	 	 	 	 	 	 	 	 	1581478289	8.57	15.87
12/02/2020 03:31:30	120220	12022020	033130	191.55	13.507077	-56.966765	191.75	-0.260	-0.190	2.250	191.58	-1.60	2.70	 	 	 	 	 	 	 	 	 	 	 	 	 	 	 	 	 	 	1581478290	8.57	15.87
12/02/2020 03:31:31	120220	12022020	033131	191.76	13.507042	-56.966777	191.97	-0.420	0.060	2.070	191.81	-1.30	2.60	 	 	 	 	 	 	 	 	 	 	 	 	 	 	 	 	 	 	1581478291	8.27	15.32
12/02/2020 03:31:32	120220	12022020	033132	191.92	13.507005	-56.966787	192.12	-0.310	0.030	1.790	191.94	-1.30	2.30	 	 	 	 	 	 	 	 	 	 	 	 	 	 	 	 	 	 	1581478292	8.00	14.82
12/02/2020 03:31:33	120220	12022020	033133	191.98	13.506965	-56.966795	192.11	0.110	-0.240	1.530	191.97	-1.60	2.00	 	 	 	 	 	 	 	 	 	 	 	 	 	 	 	 	 	 	1581478293	8.19	15.17
12/02/2020 03:31:34	120220	12022020	033134	191.92	13.506927	-56.966802	192.07	0.570	-0.410	1.240	191.92	-1.80	1.80	 	 	 	 	 	 	 	 	 	 	 	 	 	 	 	 	 	 	1581478294	8.51	15.76
12/02/2020 03:31:35	120220	12022020	033135	191.93	13.506888	-56.966807	192.10	0.660	-0.370	1.030	191.95	-1.80	1.50	 	 	 	 	 	 	 	 	 	 	 	 	 	 	 	 	 	 	1581478295	8.53	15.80
12/02/2020 03:31:36	120220	12022020	033136	192.10	13.506852	-56.966813	192.29	0.260	-0.220	1.100	192.13	-1.60	1.60	 	 	 	 	 	 	 	 	 	 	 	 	 	 	 	 	 	 	1581478296	8.29	15.35
12/02/2020 03:31:37	120220	12022020	033137	192.19	13.506815	-56.966825	192.37	-0.370	-0.250	1.630	192.16	-1.60	2.10	 	 	 	 	 	 	 	 	 	 	 	 	 	 	 	 	 	 	1581478297	8.05	14.91
12/02/2020 03:31:38	120220	12022020	033138	191.89	13.506778	-56.966842	192.02	-0.710	-0.570	2.440	191.79	-1.90	2.90	 	 	 	 	 	 	 	 	 	 	 	 	 	 	 	 	 	 	1581478298	8.13	15.06
12/02/2020 03:31:39	120220	12022020	033139	191.33	13.506740	-56.966858	191.45	-0.470	-0.740	3.020	191.22	-2.10	3.50	 	 	 	 	 	 	 	 	 	 	 	 	 	 	 	 	 	 	1581478299	8.71	16.13
12/02/2020 03:31:40	120220	12022020	033140	190.94	13.506703	-56.966870	191.11	0.110	-0.420	2.910	190.90	-1.80	3.40	 	 	 	 	 	 	 	 	 	 	 	 	 	 	 	 	 	 	1581478300	8.89	16.46
12/02/2020 03:31:41	120220	12022020	033141	190.86	13.506667	-56.966875	191.05	0.540	-0.000	2.320	190.86	-1.40	2.80	 	 	 	 	 	 	 	 	 	 	 	 	 	 	 	 	 	 	1581478301	8.35	15.46
12/02/2020 03:31:42	120220	12022020	033142	190.86	13.506627	-56.966878	191.04	0.500	0.040	1.790	190.86	-1.30	2.30	 	 	 	 	 	 	 	 	 	 	 	 	 	 	 	 	 	 	1581478302	8.07	14.95
12/02/2020 03:31:43	120220	12022020	033143	190.85	13.506588	-56.966887	191.02	0.120	-0.240	1.770	190.84	-1.60	2.30	 	 	 	 	 	 	 	 	 	 	 	 	 	 	 	 	 	 	1581478303	8.37	15.50
12/02/2020 03:31:44	120220	12022020	033144	190.79	13.506550	-56.966898	190.96	-0.320	-0.410	2.310	190.76	-1.80	2.80	 	 	 	 	 	 	 	 	 	 	 	 	 	 	 	 	 	 	1581478304	8.66	16.04
12/02/2020 03:31:45	120220	12022020	033145	190.61	13.506513	-56.966913	190.77	-0.550	-0.310	2.890	190.58	-1.70	3.40	 	 	 	 	 	 	 	 	 	 	 	 	 	 	 	 	 	 	1581478305	8.65	16.02
12/02/2020 03:31:46	120220	12022020	033146	190.44	13.506477	-56.966928	190.62	-0.470	-0.080	3.080	190.43	-1.50	3.60	 	 	 	 	 	 	 	 	 	 	 	 	 	 	 	 	 	 	1581478306	8.47	15.69
12/02/2020 03:31:47	120220	12022020	033147	190.46	13.506440	-56.966940	190.67	-0.090	0.140	2.770	190.49	-1.30	3.30	 	 	 	 	 	 	 	 	 	 	 	 	 	 	 	 	 	 	1581478307	8.32	15.41
12/02/2020 03:31:48	120220	12022020	033148	190.74	13.506403	-56.966945	190.99	0.390	0.380	1.970	190.84	-1.00	2.50	 	 	 	 	 	 	 	 	 	 	 	 	 	 	 	 	 	 	1581478308	8.19	15.17
12/02/2020 03:31:49	120220	12022020	033149	191.36	13.506367	-56.966947	191.62	0.570	0.490	1.010	191.49	-0.90	1.60	 	 	 	 	 	 	 	 	 	 	 	 	 	 	 	 	 	 	1581478309	8.03	14.87
12/02/2020 03:31:50	120220	12022020	033150	191.85	13.506330	-56.966950	192.05	0.440	0.060	0.690	191.89	-1.30	1.20	 	 	 	 	 	 	 	 	 	 	 	 	 	 	 	 	 	 	1581478310	7.86	14.56
12/02/2020 03:31:51	120220	12022020	033151	191.78	13.506290	-56.966958	191.90	0.320	-1.000	1.060	191.70	-2.30	1.50	 	 	 	 	 	 	 	 	 	 	 	 	 	 	 	 	 	 	1581478311	8.04	14.89
12/02/2020 03:31:52	120220	12022020	033152	191.32	13.506248	-56.966970	191.44	0.340	-1.950	1.770	191.21	-3.30	2.20	 	 	 	 	 	 	 	 	 	 	 	 	 	 	 	 	 	 	1581478312	8.76	16.22
12/02/2020 03:31:53	120220	12022020	033153	190.88	13.506210	-56.966980	191.04	0.270	-2.030	2.540	190.81	-3.40	3.00	 	 	 	 	 	 	 	 	 	 	 	 	 	 	 	 	 	 	1581478313	9.19	17.02
12/02/2020 03:31:54	120220	12022020	033154	190.53	13.506173	-56.966993	190.72	-0.100	-1.280	3.150	190.46	-2.70	3.60	 	 	 	 	 	 	 	 	 	 	 	 	 	 	 	 	 	 	1581478314	8.77	16.24
12/02/2020 03:31:55	120220	12022020	033155	190.17	13.506138	-56.967007	190.36	-0.670	-0.220	3.480	190.10	-1.70	3.90	 	 	 	 	 	 	 	 	 	 	 	 	 	 	 	 	 	 	1581478315	8.17	15.13
12/02/2020 03:31:56	120220	12022020	033156	189.94	13.506103	-56.967020	190.17	-1.110	0.710	3.480	189.93	-0.70	4.00	 	 	 	 	 	 	 	 	 	 	 	 	 	 	 	 	 	 	1581478316	8.01	14.83
12/02/2020 03:31:57	120220	12022020	033157	190.05	13.506065	-56.967032	190.32	-1.080	1.260	3.070	190.12	-0.20	3.60	 	 	 	 	 	 	 	 	 	 	 	 	 	 	 	 	 	 	1581478317	8.16	15.11
12/02/2020 03:31:58	120220	12022020	033158	190.36	13.506027	-56.967040	190.67	-0.580	1.210	2.350	190.43	-0.20	2.90	 	 	 	 	 	 	 	 	 	 	 	 	 	 	 	 	 	 	1581478318	8.30	15.37
12/02/2020 03:31:59	120220	12022020	033159	190.73	13.505987	-56.967047	190.94	0.150	0.580	1.690	190.78	-0.80	2.20	 	 	 	 	 	 	 	 	 	 	 	 	 	 	 	 	 	 	1581478319	8.53	15.80
12/02/2020 03:32:00	120220	12022020	033200	191.10	13.505945	-56.967052	191.34	0.690	-0.010	1.060	191.19	-1.40	1.60	 	 	 	 	 	 	 	 	 	 	 	 	 	 	 	 	 	 	1581478320	8.96	16.59
12/02/2020 03:32:01	120220	12022020	033201	191.60	13.505908	-56.967055	191.84	0.780	-0.130	0.720	191.69	-1.50	1.20	1017.00	26.10	26.20	21.10	21.10	-1.0	73.0	73.0	393.0	25.7	257.00	9.60	67.00	11.30	16	8357.0	27.2	27.2	1581478321	8.85	16.39
12/02/2020 03:32:02	120220	12022020	033202	191.92	13.505873	-56.967062	192.11	0.550	-0.300	0.880	191.93	-1.70	1.40	 	 	 	 	 	 	 	 	 	 	 	 	 	 	 	 	 	 	1581478322	8.05	14.91
12/02/2020 03:32:03	120220	12022020	033203	191.85	13.505837	-56.967073	192.02	0.320	-0.900	1.470	191.81	-2.20	1.90	 	 	 	 	 	 	 	 	 	 	 	 	 	 	 	 	 	 	1581478323	7.69	14.24
12/02/2020 03:32:04	120220	12022020	033204	191.62	13.505798	-56.967085	191.82	0.190	-1.390	2.160	191.58	-2.80	2.60	 	 	 	 	 	 	 	 	 	 	 	 	 	 	 	 	 	 	1581478324	8.19	15.17
12/02/2020 03:32:05	120220	12022020	033205	191.41	13.505763	-56.967098	191.62	0.090	-1.310	2.620	191.36	-2.70	3.10	 	 	 	 	 	 	 	 	 	 	 	 	 	 	 	 	 	 	1581478325	8.50	15.74
12/02/2020 03:32:06	120220	12022020	033206	191.11	13.505727	-56.967110	191.30	0.060	-0.980	2.830	191.05	-2.40	3.30	 	 	 	 	 	 	 	 	 	 	 	 	 	 	 	 	 	 	1581478326	8.15	15.09
12/02/2020 03:32:07	120220	12022020	033207	190.83	13.505688	-56.967120	191.03	0.090	-0.700	2.740	190.79	-2.10	3.20	 	 	 	 	 	 	 	 	 	 	 	 	 	 	 	 	 	 	1581478327	8.06	14.93
12/02/2020 03:32:08	120220	12022020	033208	190.71	13.505650	-56.967125	190.91	0.060	-0.330	2.370	190.70	-1.70	2.90	 	 	 	 	 	 	 	 	 	 	 	 	 	 	 	 	 	 	1581478328	8.40	15.56
12/02/2020 03:32:09	120220	12022020	033209	190.67	13.505610	-56.967132	190.87	-0.150	0.060	2.000	190.66	-1.30	2.50	 	 	 	 	 	 	 	 	 	 	 	 	 	 	 	 	 	 	1581478329	8.55	15.83
12/02/2020 03:32:10	120220	12022020	033210	190.67	13.505572	-56.967138	190.87	-0.480	0.270	1.860	190.68	-1.10	2.30	 	 	 	 	 	 	 	 	 	 	 	 	 	 	 	 	 	 	1581478330	8.51	15.76
12/02/2020 03:32:11	120220	12022020	033211	190.67	13.505532	-56.967150	190.85	-0.720	0.380	1.950	190.67	-1.00	2.40	 	 	 	 	 	 	 	 	 	 	 	 	 	 	 	 	 	 	1581478331	8.61	15.95
12/02/2020 03:32:12	120220	12022020	033212	190.70	13.505495	-56.967162	190.90	-0.670	0.560	2.080	190.72	-0.80	2.50	 	 	 	 	 	 	 	 	 	 	 	 	 	 	 	 	 	 	1581478332	8.67	16.06
12/02/2020 03:32:13	120220	12022020	033213	191.04	13.505458	-56.967172	191.30	-0.370	0.760	1.820	191.16	-0.60	2.30	 	 	 	 	 	 	 	 	 	 	 	 	 	 	 	 	 	 	1581478333	8.47	15.69
12/02/2020 03:32:14	120220	12022020	033214	191.62	13.505422	-56.967180	191.85	0.050	0.590	1.420	191.70	-0.80	1.90	 	 	 	 	 	 	 	 	 	 	 	 	 	 	 	 	 	 	1581478334	8.09	14.98
12/02/2020 03:32:15	120220	12022020	033215	191.73	13.505383	-56.967188	191.87	0.530	-0.300	1.450	191.67	-1.60	1.90	 	 	 	 	 	 	 	 	 	 	 	 	 	 	 	 	 	 	1581478335	7.98	14.78
12/02/2020 03:32:16	120220	12022020	033216	191.30	13.505342	-56.967198	191.41	0.920	-1.330	1.760	191.19	-2.70	2.20	 	 	 	 	 	 	 	 	 	 	 	 	 	 	 	 	 	 	1581478336	8.56	15.85
12/02/2020 03:32:17	120220	12022020	033217	190.86	13.505303	-56.967207	191.04	0.840	-1.410	1.980	190.81	-2.80	2.40	 	 	 	 	 	 	 	 	 	 	 	 	 	 	 	 	 	 	1581478337	9.07	16.80
12/02/2020 03:32:18	120220	12022020	033218	190.82	13.505270	-56.967215	191.06	0.250	-0.620	1.900	190.87	-2.00	2.40	 	 	 	 	 	 	 	 	 	 	 	 	 	 	 	 	 	 	1581478338	8.42	15.59
12/02/2020 03:32:19	120220	12022020	033219	191.19	13.505237	-56.967223	191.43	-0.410	0.090	1.410	191.28	-1.30	1.90	 	 	 	 	 	 	 	 	 	 	 	 	 	 	 	 	 	 	1581478339	7.45	13.80
12/02/2020 03:32:20	120220	12022020	033220	191.56	13.505200	-56.967233	191.86	-0.620	-0.010	0.970	191.65	-1.40	1.50	 	 	 	 	 	 	 	 	 	 	 	 	 	 	 	 	 	 	1581478340	7.34	13.59
12/02/2020 03:32:21	120220	12022020	033221	191.87	13.505158	-56.967243	192.06	-0.220	-0.660	0.940	191.88	-2.00	1.40	 	 	 	 	 	 	 	 	 	 	 	 	 	 	 	 	 	 	1581478341	8.23	15.24
12/02/2020 03:32:22	120220	12022020	033222	191.88	13.505117	-56.967253	192.05	0.350	-1.020	1.190	191.86	-2.40	1.60	 	 	 	 	 	 	 	 	 	 	 	 	 	 	 	 	 	 	1581478342	9.13	16.91
12/02/2020 03:32:23	120220	12022020	033223	191.72	13.505078	-56.967262	191.89	0.480	-0.670	1.730	191.67	-2.10	2.20	 	 	 	 	 	 	 	 	 	 	 	 	 	 	 	 	 	 	1581478343	9.15	16.95
12/02/2020 03:32:24	120220	12022020	033224	191.34	13.505042	-56.967272	191.49	0.060	0.000	2.390	191.25	-1.40	2.80	 	 	 	 	 	 	 	 	 	 	 	 	 	 	 	 	 	 	1581478344	8.50	15.74
12/02/2020 03:32:25	120220	12022020	033225	190.84	13.505007	-56.967283	191.00	-0.540	0.440	2.900	190.77	-1.00	3.40	 	 	 	 	 	 	 	 	 	 	 	 	 	 	 	 	 	 	1581478345	8.03	14.87
12/02/2020 03:32:26	120220	12022020	033226	190.55	13.504968	-56.967298	190.74	-0.940	0.580	3.100	190.52	-0.80	3.60	 	 	 	 	 	 	 	 	 	 	 	 	 	 	 	 	 	 	1581478346	8.24	15.26
12/02/2020 03:32:27	120220	12022020	033227	190.48	13.504932	-56.967313	190.67	-0.880	0.450	3.010	190.48	-0.90	3.50	 	 	 	 	 	 	 	 	 	 	 	 	 	 	 	 	 	 	1581478347	8.49	15.72
12/02/2020 03:32:28	120220	12022020	033228	190.47	13.504893	-56.967325	190.63	-0.280	0.100	2.670	190.45	-1.30	3.20	 	 	 	 	 	 	 	 	 	 	 	 	 	 	 	 	 	 	1581478348	8.59	15.91
12/02/2020 03:32:29	120220	12022020	033229	190.36	13.504855	-56.967335	190.51	0.550	-0.340	2.120	190.34	-1.70	2.60	 	 	 	 	 	 	 	 	 	 	 	 	 	 	 	 	 	 	1581478349	8.60	15.93
12/02/2020 03:32:30	120220	12022020	033230	190.39	13.504815	-56.967338	190.58	1.050	-0.530	1.440	190.44	-1.90	2.00	 	 	 	 	 	 	 	 	 	 	 	 	 	 	 	 	 	 	1581478350	8.62	15.96
12/02/2020 03:32:31	120220	12022020	033231	190.76	13.504778	-56.967342	191.01	0.860	-0.400	1.050	190.87	-1.80	1.50	 	 	 	 	 	 	 	 	 	 	 	 	 	 	 	 	 	 	1581478351	8.43	15.61
12/02/2020 03:32:32	120220	12022020	033232	191.22	13.504743	-56.967350	191.45	0.220	-0.320	1.320	191.28	-1.70	1.80	 	 	 	 	 	 	 	 	 	 	 	 	 	 	 	 	 	 	1581478352	7.94	14.70
12/02/2020 03:32:33	120220	12022020	033233	191.30	13.504707	-56.967363	191.45	-0.310	-0.620	2.080	191.24	-2.00	2.50	 	 	 	 	 	 	 	 	 	 	 	 	 	 	 	 	 	 	1581478353	7.75	14.35
12/02/2020 03:32:34	120220	12022020	033234	191.01	13.504668	-56.967378	191.09	-0.380	-1.000	2.890	190.93	-2.40	3.30	 	 	 	 	 	 	 	 	 	 	 	 	 	 	 	 	 	 	1581478354	8.29	15.35
12/02/2020 03:32:35	120220	12022020	033235	190.56	13.504632	-56.967392	190.72	-0.070	-0.860	3.230	190.49	-2.30	3.70	 	 	 	 	 	 	 	 	 	 	 	 	 	 	 	 	 	 	1581478355	8.86	16.41
12/02/2020 03:32:36	120220	12022020	033236	190.23	13.504595	-56.967400	190.39	0.360	-0.320	3.040	190.17	-1.70	3.50	 	 	 	 	 	 	 	 	 	 	 	 	 	 	 	 	 	 	1581478356	8.52	15.78
12/02/2020 03:32:37	120220	12022020	033237	190.05	13.504557	-56.967403	190.23	0.560	0.010	2.450	190.04	-1.40	3.00	 	 	 	 	 	 	 	 	 	 	 	 	 	 	 	 	 	 	1581478357	8.02	14.85
12/02/2020 03:32:38	120220	12022020	033238	190.04	13.504518	-56.967407	190.21	0.280	-0.010	2.090	190.03	-1.40	2.60	 	 	 	 	 	 	 	 	 	 	 	 	 	 	 	 	 	 	1581478358	8.25	15.28
12/02/2020 03:32:39	120220	12022020	033239	189.93	13.504478	-56.967415	190.07	-0.310	-0.210	2.320	189.89	-1.60	2.80	 	 	 	 	 	 	 	 	 	 	 	 	 	 	 	 	 	 	1581478359	8.56	15.85
12/02/2020 03:32:40	120220	12022020	033240	189.75	13.504440	-56.967428	189.90	-0.800	-0.340	2.700	189.72	-1.70	3.20	 	 	 	 	 	 	 	 	 	 	 	 	 	 	 	 	 	 	1581478360	8.70	16.11
12/02/2020 03:32:41	120220	12022020	033241	189.79	13.504402	-56.967443	190.03	-0.980	-0.130	2.840	189.86	-1.50	3.30	 	 	 	 	 	 	 	 	 	 	 	 	 	 	 	 	 	 	1581478361	8.78	16.26
12/02/2020 03:32:42	120220	12022020	033242	190.27	13.504368	-56.967457	190.56	-0.900	0.290	2.650	190.40	-1.10	3.10	 	 	 	 	 	 	 	 	 	 	 	 	 	 	 	 	 	 	1581478362	8.47	15.69
12/02/2020 03:32:43	120220	12022020	033243	190.86	13.504332	-56.967468	191.11	-0.530	0.290	2.110	190.94	-1.10	2.60	 	 	 	 	 	 	 	 	 	 	 	 	 	 	 	 	 	 	1581478363	7.97	14.76
12/02/2020 03:32:44	120220	12022020	033244	191.10	13.504292	-56.967477	191.29	0.240	-0.320	1.490	191.10	-1.70	2.00	 	 	 	 	 	 	 	 	 	 	 	 	 	 	 	 	 	 	1581478364	8.08	14.96
12/02/2020 03:32:45	120220	12022020	033245	191.06	13.504252	-56.967482	191.25	1.040	-0.730	1.110	191.06	-2.10	1.60	 	 	 	 	 	 	 	 	 	 	 	 	 	 	 	 	 	 	1581478365	8.72	16.15
12/02/2020 03:32:46	120220	12022020	033246	191.09	13.504213	-56.967485	191.30	1.320	-0.270	0.730	191.10	-1.70	1.20	 	 	 	 	 	 	 	 	 	 	 	 	 	 	 	 	 	 	1581478366	8.89	16.46
12/02/2020 03:32:47	120220	12022020	033247	191.22	13.504180	-56.967487	191.42	1.010	0.330	0.400	191.24	-1.10	0.90	 	 	 	 	 	 	 	 	 	 	 	 	 	 	 	 	 	 	1581478367	8.00	14.82
12/02/2020 03:32:48	120220	12022020	033248	191.27	13.504142	-56.967490	191.47	0.460	0.100	0.660	191.27	-1.20	1.10	 	 	 	 	 	 	 	 	 	 	 	 	 	 	 	 	 	 	1581478368	7.50	13.89
12/02/2020 03:32:49	120220	12022020	033249	191.16	13.504102	-56.967502	191.32	-0.020	-0.710	1.550	191.11	-2.00	2.00	 	 	 	 	 	 	 	 	 	 	 	 	 	 	 	 	 	 	1581478369	8.11	15.02
12/02/2020 03:32:50	120220	12022020	033250	190.86	13.504062	-56.967517	191.02	-0.390	-1.360	2.780	190.79	-2.70	3.20	 	 	 	 	 	 	 	 	 	 	 	 	 	 	 	 	 	 	1581478370	8.94	16.56
12/02/2020 03:32:51	120220	12022020	033251	190.43	13.504025	-56.967537	190.58	-0.730	-1.410	3.930	190.31	-2.80	4.30	 	 	 	 	 	 	 	 	 	 	 	 	 	 	 	 	 	 	1581478371	9.18	17.00
12/02/2020 03:32:52	120220	12022020	033252	189.81	13.503988	-56.967555	189.95	-0.920	-0.990	4.610	189.69	-2.40	5.00	 	 	 	 	 	 	 	 	 	 	 	 	 	 	 	 	 	 	1581478372	8.97	16.61
12/02/2020 03:32:53	120220	12022020	033253	189.33	13.503952	-56.967572	189.51	-0.870	-0.310	4.440	189.29	-1.70	4.90	 	 	 	 	 	 	 	 	 	 	 	 	 	 	 	 	 	 	1581478373	8.74	16.19
12/02/2020 03:32:54	120220	12022020	033254	189.34	13.503917	-56.967580	189.58	-0.580	0.550	3.480	189.40	-0.90	4.00	 	 	 	 	 	 	 	 	 	 	 	 	 	 	 	 	 	 	1581478374	8.49	15.72
12/02/2020 03:32:55	120220	12022020	033255	189.84	13.503880	-56.967585	190.11	-0.170	1.210	1.990	189.99	-0.20	2.60	 	 	 	 	 	 	 	 	 	 	 	 	 	 	 	 	 	 	1581478375	8.04	14.89
12/02/2020 03:32:56	120220	12022020	033256	190.61	13.503842	-56.967585	190.86	0.260	1.150	0.430	190.76	-0.20	1.00	 	 	 	 	 	 	 	 	 	 	 	 	 	 	 	 	 	 	1581478376	7.84	14.52
12/02/2020 03:32:57	120220	12022020	033257	191.25	13.503800	-56.967585	191.45	0.750	0.170	-0.460	191.34	-1.10	0.10	 	 	 	 	 	 	 	 	 	 	 	 	 	 	 	 	 	 	1581478377	8.24	15.26
12/02/2020 03:32:58	120220	12022020	033258	191.58	13.503757	-56.967588	191.75	1.150	-1.050	-0.600	191.60	-2.40	-0.10	 	 	 	 	 	 	 	 	 	 	 	 	 	 	 	 	 	 	1581478378	8.97	16.61
12/02/2020 03:32:59	120220	12022020	033259	191.43	13.503717	-56.967593	191.51	1.110	-1.720	0.110	191.32	-3.10	0.50	 	 	 	 	 	 	 	 	 	 	 	 	 	 	 	 	 	 	1581478379	9.30	17.22
12/02/2020 03:33:00	120220	12022020	033300	190.67	13.503678	-56.967605	190.74	0.500	-1.630	1.630	190.49	-3.00	2.00	 	 	 	 	 	 	 	 	 	 	 	 	 	 	 	 	 	 	1581478380	8.84	16.37
12/02/2020 03:33:01	120220	12022020	033301	189.83	13.503645	-56.967623	189.98	-0.460	-0.890	3.120	189.74	-2.30	3.50	1017.10	26.00	26.10	20.90	21.00	-1.0	73.0	73.0	392.0	25.7	256.00	9.80	66.00	11.70	16	8540.0	27.2	27.2	1581478381	8.37	15.50
12/02/2020 03:33:02	120220	12022020	033302	189.57	13.503612	-56.967643	189.81	-1.280	0.210	3.930	189.59	-1.20	4.40	 	 	 	 	 	 	 	 	 	 	 	 	 	 	 	 	 	 	1581478382	8.30	15.37
12/02/2020 03:33:03	120220	12022020	033303	189.91	13.503578	-56.967662	190.21	-1.440	0.990	3.910	190.03	-0.40	4.40	 	 	 	 	 	 	 	 	 	 	 	 	 	 	 	 	 	 	1581478383	8.17	15.13
12/02/2020 03:33:04	120220	12022020	033304	190.59	13.503542	-56.967673	190.88	-0.770	0.960	2.970	190.73	-0.40	3.50	 	 	 	 	 	 	 	 	 	 	 	 	 	 	 	 	 	 	1581478384	8.12	15.04
12/02/2020 03:33:05	120220	12022020	033305	191.27	13.503500	-56.967680	191.53	0.310	0.220	1.620	191.39	-1.10	2.20	 	 	 	 	 	 	 	 	 	 	 	 	 	 	 	 	 	 	1581478385	8.40	15.56
12/02/2020 03:33:06	120220	12022020	033306	191.81	13.503457	-56.967682	192.04	1.010	-0.620	0.740	191.89	-2.00	1.20	 	 	 	 	 	 	 	 	 	 	 	 	 	 	 	 	 	 	1581478386	9.00	16.67
12/02/2020 03:33:07	120220	12022020	033307	192.10	13.503418	-56.967687	192.29	0.890	-1.050	0.570	192.12	-2.40	1.00	 	 	 	 	 	 	 	 	 	 	 	 	 	 	 	 	 	 	1581478387	9.14	16.93
12/02/2020 03:33:08	120220	12022020	033308	192.04	13.503382	-56.967697	192.22	0.280	-0.900	0.930	191.99	-2.30	1.40	 	 	 	 	 	 	 	 	 	 	 	 	 	 	 	 	 	 	1581478388	8.58	15.89
12/02/2020 03:33:09	120220	12022020	033309	191.72	13.503348	-56.967710	191.89	-0.210	-0.400	1.520	191.66	-1.80	1.90	 	 	 	 	 	 	 	 	 	 	 	 	 	 	 	 	 	 	1581478389	7.99	14.80
12/02/2020 03:33:10	120220	12022020	033310	191.41	13.503313	-56.967722	191.58	-0.200	-0.040	1.880	191.37	-1.40	2.30	 	 	 	 	 	 	 	 	 	 	 	 	 	 	 	 	 	 	1581478390	7.76	14.37
12/02/2020 03:33:11	120220	12022020	033311	191.28	13.503275	-56.967733	191.48	0.110	0.000	1.910	191.27	-1.40	2.40	 	 	 	 	 	 	 	 	 	 	 	 	 	 	 	 	 	 	1581478391	7.98	14.78
12/02/2020 03:33:12	120220	12022020	033312	191.34	13.503237	-56.967742	191.58	0.280	-0.090	1.910	191.39	-1.40	2.40	 	 	 	 	 	 	 	 	 	 	 	 	 	 	 	 	 	 	1581478392	8.35	15.46
12/02/2020 03:33:13	120220	12022020	033313	191.59	13.503198	-56.967750	191.83	0.110	-0.100	2.020	191.64	-1.50	2.50	 	 	 	 	 	 	 	 	 	 	 	 	 	 	 	 	 	 	1581478393	8.51	15.76
12/02/2020 03:33:14	120220	12022020	033314	191.81	13.503163	-56.967762	192.05	-0.200	-0.050	2.330	191.84	-1.40	2.80	 	 	 	 	 	 	 	 	 	 	 	 	 	 	 	 	 	 	1581478394	8.34	15.45
12/02/2020 03:33:15	120220	12022020	033315	191.89	13.503127	-56.967773	192.11	-0.290	-0.100	2.590	191.89	-1.40	3.00	 	 	 	 	 	 	 	 	 	 	 	 	 	 	 	 	 	 	1581478395	8.15	15.09
12/02/2020 03:33:16	120220	12022020	033316	191.76	13.503088	-56.967785	191.93	-0.040	-0.460	2.720	191.70	-1.80	3.20	 	 	 	 	 	 	 	 	 	 	 	 	 	 	 	 	 	 	1581478396	8.18	15.15
12/02/2020 03:33:17	120220	12022020	033317	191.39	13.503050	-56.967797	191.56	0.230	-0.930	2.900	191.30	-2.30	3.40	 	 	 	 	 	 	 	 	 	 	 	 	 	 	 	 	 	 	1581478397	8.51	15.76
12/02/2020 03:33:18	120220	12022020	033318	190.95	13.503012	-56.967810	191.12	0.200	-1.010	2.960	190.87	-2.40	3.40	 	 	 	 	 	 	 	 	 	 	 	 	 	 	 	 	 	 	1581478398	8.82	16.33
12/02/2020 03:33:19	120220	12022020	033319	190.57	13.502975	-56.967822	190.74	-0.070	-0.580	2.770	190.50	-2.00	3.20	 	 	 	 	 	 	 	 	 	 	 	 	 	 	 	 	 	 	1581478399	8.65	16.02
12/02/2020 03:33:20	120220	12022020	033320	190.31	13.502940	-56.967830	190.48	-0.250	0.030	2.400	190.27	-1.40	2.90	 	 	 	 	 	 	 	 	 	 	 	 	 	 	 	 	 	 	1581478400	8.14	15.08
12/02/2020 03:33:21	120220	12022020	033321	190.11	13.502902	-56.967838	190.28	-0.150	0.350	2.090	190.08	-1.00	2.60	 	 	 	 	 	 	 	 	 	 	 	 	 	 	 	 	 	 	1581478401	7.86	14.56
12/02/2020 03:33:22	120220	12022020	033322	190.13	13.502863	-56.967845	190.35	0.060	0.430	1.670	190.19	-0.90	2.20	 	 	 	 	 	 	 	 	 	 	 	 	 	 	 	 	 	 	1581478402	8.11	15.02
12/02/2020 03:33:23	120220	12022020	033323	190.56	13.502827	-56.967850	190.84	0.160	0.480	1.300	190.69	-0.90	1.80	 	 	 	 	 	 	 	 	 	 	 	 	 	 	 	 	 	 	1581478403	8.40	15.56
12/02/2020 03:33:24	120220	12022020	033324	191.05	13.502790	-56.967857	191.39	0.210	0.280	1.160	191.14	-1.00	1.60	 	 	 	 	 	 	 	 	 	 	 	 	 	 	 	 	 	 	1581478404	8.19	15.17
12/02/2020 03:33:25	120220	12022020	033325	191.33	13.502750	-56.967865	191.49	0.410	-0.520	1.510	191.30	-1.80	2.00	 	 	 	 	 	 	 	 	 	 	 	 	 	 	 	 	 	 	1581478405	8.10	15.00
12/02/2020 03:33:26	120220	12022020	033326	191.06	13.502708	-56.967877	191.23	0.600	-1.340	2.320	191.00	-2.70	2.70	 	 	 	 	 	 	 	 	 	 	 	 	 	 	 	 	 	 	1581478406	8.66	16.04
12/02/2020 03:33:27	120220	12022020	033327	190.77	13.502672	-56.967890	190.99	0.380	-1.290	3.070	190.75	-2.70	3.50	 	 	 	 	 	 	 	 	 	 	 	 	 	 	 	 	 	 	1581478407	9.10	16.85
12/02/2020 03:33:28	120220	12022020	033328	190.72	13.502638	-56.967902	190.98	-0.280	-0.490	3.380	190.74	-1.90	3.80	 	 	 	 	 	 	 	 	 	 	 	 	 	 	 	 	 	 	1581478408	8.47	15.69
12/02/2020 03:33:29	120220	12022020	033329	190.83	13.502605	-56.967915	191.08	-0.900	0.190	3.260	190.84	-1.20	3.70	 	 	 	 	 	 	 	 	 	 	 	 	 	 	 	 	 	 	1581478409	7.59	14.06
12/02/2020 03:33:30	120220	12022020	033330	190.83	13.502568	-56.967925	191.04	-0.890	0.130	2.880	190.81	-1.20	3.40	 	 	 	 	 	 	 	 	 	 	 	 	 	 	 	 	 	 	1581478410	7.49	13.87
12/02/2020 03:33:31	120220	12022020	033331	190.60	13.502528	-56.967935	190.76	-0.220	-0.460	2.520	190.52	-1.80	3.00	 	 	 	 	 	 	 	 	 	 	 	 	 	 	 	 	 	 	1581478411	8.22	15.22
12/02/2020 03:33:32	120220	12022020	033332	190.17	13.502487	-56.967943	190.30	0.590	-0.850	2.180	190.08	-2.20	2.70	 	 	 	 	 	 	 	 	 	 	 	 	 	 	 	 	 	 	1581478412	9.03	16.72
12/02/2020 03:33:33	120220	12022020	033333	189.79	13.502447	-56.967948	189.94	0.990	-0.550	1.800	189.75	-1.90	2.30	 	 	 	 	 	 	 	 	 	 	 	 	 	 	 	 	 	 	1581478413	9.15	16.95
12/02/2020 03:33:34	120220	12022020	033334	189.77	13.502410	-56.967950	189.99	0.710	0.280	1.350	189.83	-1.10	1.90	 	 	 	 	 	 	 	 	 	 	 	 	 	 	 	 	 	 	1581478414	8.60	15.93
12/02/2020 03:33:35	120220	12022020	033335	190.25	13.502375	-56.967953	190.53	-0.100	0.890	1.200	190.40	-0.50	1.70	 	 	 	 	 	 	 	 	 	 	 	 	 	 	 	 	 	 	1581478415	7.90	14.63
12/02/2020 03:33:36	120220	12022020	033336	190.86	13.502338	-56.967967	191.30	-0.900	0.720	1.580	191.00	-0.60	2.00	 	 	 	 	 	 	 	 	 	 	 	 	 	 	 	 	 	 	1581478416	7.63	14.13
12/02/2020 03:33:37	120220	12022020	033337	191.57	13.502302	-56.967983	191.81	-1.090	-0.090	2.260	191.62	-1.40	2.70	 	 	 	 	 	 	 	 	 	 	 	 	 	 	 	 	 	 	1581478417	8.16	15.11
12/02/2020 03:33:38	120220	12022020	033338	191.64	13.502262	-56.968000	191.76	-0.530	-0.990	2.900	191.59	-2.30	3.30	 	 	 	 	 	 	 	 	 	 	 	 	 	 	 	 	 	 	1581478418	8.90	16.48
12/02/2020 03:33:39	120220	12022020	033339	191.14	13.502223	-56.968013	191.30	0.280	-1.410	3.200	191.05	-2.80	3.70	 	 	 	 	 	 	 	 	 	 	 	 	 	 	 	 	 	 	1581478419	9.12	16.89
12/02/2020 03:33:40	120220	12022020	033340	190.74	13.502185	-56.968020	190.93	0.700	-1.070	2.910	190.69	-2.50	3.40	 	 	 	 	 	 	 	 	 	 	 	 	 	 	 	 	 	 	1581478420	8.82	16.33
12/02/2020 03:33:41	120220	12022020	033341	190.44	13.502150	-56.968025	190.62	0.570	-0.440	2.400	190.38	-1.80	2.90	 	 	 	 	 	 	 	 	 	 	 	 	 	 	 	 	 	 	1581478421	8.10	15.00
12/02/2020 03:33:42	120220	12022020	033342	190.10	13.502113	-56.968032	190.26	0.250	-0.010	1.990	190.04	-1.40	2.50	 	 	 	 	 	 	 	 	 	 	 	 	 	 	 	 	 	 	1581478422	7.77	14.39
12/02/2020 03:33:43	120220	12022020	033343	189.84	13.502075	-56.968037	190.02	0.120	0.250	1.590	189.81	-1.10	2.10	 	 	 	 	 	 	 	 	 	 	 	 	 	 	 	 	 	 	1581478423	8.04	14.89
12/02/2020 03:33:44	120220	12022020	033344	189.81	13.502037	-56.968042	190.00	0.170	0.360	1.180	189.83	-1.00	1.70	 	 	 	 	 	 	 	 	 	 	 	 	 	 	 	 	 	 	1581478424	8.32	15.41
12/02/2020 03:33:45	120220	12022020	033345	189.95	13.501997	-56.968048	190.15	0.100	0.110	1.150	189.99	-1.20	1.60	 	 	 	 	 	 	 	 	 	 	 	 	 	 	 	 	 	 	1581478425	8.40	15.56
12/02/2020 03:33:46	120220	12022020	033346	190.16	13.501957	-56.968058	190.38	-0.220	-0.330	1.580	190.20	-1.70	2.00	 	 	 	 	 	 	 	 	 	 	 	 	 	 	 	 	 	 	1581478426	8.63	15.98
12/02/2020 03:33:47	120220	12022020	033347	190.33	13.501918	-56.968073	190.54	-0.560	-0.590	2.240	190.35	-1.90	2.70	 	 	 	 	 	 	 	 	 	 	 	 	 	 	 	 	 	 	1581478427	8.80	16.30
12/02/2020 03:33:48	120220	12022020	033348	190.44	13.501882	-56.968087	190.66	-0.620	-0.500	2.640	190.47	-1.90	3.10	 	 	 	 	 	 	 	 	 	 	 	 	 	 	 	 	 	 	1581478428	8.71	16.13
12/02/2020 03:33:49	120220	12022020	033349	190.63	13.501847	-56.968098	190.85	-0.350	-0.260	2.580	190.66	-1.60	3.10	 	 	 	 	 	 	 	 	 	 	 	 	 	 	 	 	 	 	1581478429	8.37	15.50
12/02/2020 03:33:50	120220	12022020	033350	190.75	13.501810	-56.968105	190.94	0.050	-0.180	2.320	190.75	-1.50	2.80	 	 	 	 	 	 	 	 	 	 	 	 	 	 	 	 	 	 	1581478430	8.07	14.95
12/02/2020 03:33:51	120220	12022020	033351	190.63	13.501770	-56.968112	190.78	0.350	-0.340	2.050	190.58	-1.70	2.60	 	 	 	 	 	 	 	 	 	 	 	 	 	 	 	 	 	 	1581478431	8.13	15.06
12/02/2020 03:33:52	120220	12022020	033352	190.30	13.501730	-56.968118	190.43	0.390	-0.550	1.830	190.22	-1.90	2.30	 	 	 	 	 	 	 	 	 	 	 	 	 	 	 	 	 	 	1581478432	8.47	15.69
12/02/2020 03:33:53	120220	12022020	033353	189.92	13.501692	-56.968125	190.06	0.190	-0.450	1.600	189.87	-1.80	2.10	 	 	 	 	 	 	 	 	 	 	 	 	 	 	 	 	 	 	1581478433	8.64	16.00
12/02/2020 03:33:54	120220	12022020	033354	189.75	13.501655	-56.968133	189.91	-0.080	0.010	1.330	189.74	-1.40	1.80	 	 	 	 	 	 	 	 	 	 	 	 	 	 	 	 	 	 	1581478434	8.48	15.70
12/02/2020 03:33:55	120220	12022020	033355	189.73	13.501618	-56.968142	189.91	-0.150	0.250	1.100	189.74	-1.10	1.60	 	 	 	 	 	 	 	 	 	 	 	 	 	 	 	 	 	 	1581478435	8.01	14.83
12/02/2020 03:33:56	120220	12022020	033356	189.84	13.501580	-56.968150	190.05	0.000	0.080	1.010	189.89	-1.30	1.50	 	 	 	 	 	 	 	 	 	 	 	 	 	 	 	 	 	 	1581478436	8.09	14.98
12/02/2020 03:33:57	120220	12022020	033357	190.15	13.501542	-56.968158	190.38	0.180	-0.130	1.170	190.23	-1.50	1.60	 	 	 	 	 	 	 	 	 	 	 	 	 	 	 	 	 	 	1581478437	8.53	15.80
12/02/2020 03:33:58	120220	12022020	033358	190.50	13.501503	-56.968168	190.74	0.190	-0.300	1.550	190.55	-1.60	2.00	 	 	 	 	 	 	 	 	 	 	 	 	 	 	 	 	 	 	1581478438	8.56	15.85
12/02/2020 03:33:59	120220	12022020	033359	190.64	13.501465	-56.968177	190.84	0.050	-0.630	2.010	190.64	-2.00	2.50	 	 	 	 	 	 	 	 	 	 	 	 	 	 	 	 	 	 	1581478439	8.37	15.50
12/02/2020 03:34:00	120220	12022020	033400	190.55	13.501425	-56.968188	190.75	-0.190	-0.990	2.650	190.52	-2.30	3.10	 	 	 	 	 	 	 	 	 	 	 	 	 	 	 	 	 	 	1581478440	8.50	15.74
12/02/2020 03:34:01	120220	12022020	033401	190.38	13.501387	-56.968202	190.58	-0.410	-1.070	3.200	190.34	-2.40	3.70	1017.10	26.00	26.10	20.90	21.00	-1.0	73.0	73.0	393.0	25.7	258.00	9.70	67.00	11.40	16	8597.0	27.2	27.2	1581478441	8.75	16.21
12/02/2020 03:34:02	120220	12022020	033402	190.10	13.501350	-56.968215	190.27	-0.430	-0.820	3.390	190.02	-2.20	3.90	 	 	 	 	 	 	 	 	 	 	 	 	 	 	 	 	 	 	1581478442	8.72	16.15
12/02/2020 03:34:03	120220	12022020	033403	189.67	13.501312	-56.968225	189.81	-0.200	-0.310	3.250	189.59	-1.70	3.70	 	 	 	 	 	 	 	 	 	 	 	 	 	 	 	 	 	 	1581478443	8.53	15.80
12/02/2020 03:34:04	120220	12022020	033404	189.42	13.501275	-56.968230	189.63	0.050	0.490	2.710	189.44	-0.90	3.20	 	 	 	 	 	 	 	 	 	 	 	 	 	 	 	 	 	 	1581478444	8.40	15.56
12/02/2020 03:34:05	120220	12022020	033405	189.74	13.501238	-56.968233	190.01	0.060	1.270	1.730	189.85	-0.10	2.30	 	 	 	 	 	 	 	 	 	 	 	 	 	 	 	 	 	 	1581478445	8.15	15.09
12/02/2020 03:34:06	120220	12022020	033406	190.32	13.501202	-56.968238	190.57	-0.070	1.250	1.010	190.42	-0.10	1.50	 	 	 	 	 	 	 	 	 	 	 	 	 	 	 	 	 	 	1581478446	7.74	14.33
12/02/2020 03:34:07	120220	12022020	033407	190.65	13.501162	-56.968245	190.84	0.060	0.290	0.930	190.67	-1.00	1.40	 	 	 	 	 	 	 	 	 	 	 	 	 	 	 	 	 	 	1581478447	7.98	14.78
12/02/2020 03:34:08	120220	12022020	033408	190.61	13.501120	-56.968255	190.76	0.540	-0.920	1.190	190.55	-2.20	1.60	 	 	 	 	 	 	 	 	 	 	 	 	 	 	 	 	 	 	1581478448	8.77	16.24
12/02/2020 03:34:09	120220	12022020	033409	190.28	13.501078	-56.968263	190.44	0.940	-1.700	1.630	190.22	-3.00	2.10	 	 	 	 	 	 	 	 	 	 	 	 	 	 	 	 	 	 	1581478449	9.16	16.96
12/02/2020 03:34:10	120220	12022020	033410	190.08	13.501040	-56.968272	190.29	0.750	-1.720	2.020	190.07	-3.10	2.50	 	 	 	 	 	 	 	 	 	 	 	 	 	 	 	 	 	 	1581478450	8.99	16.65
12/02/2020 03:34:11	120220	12022020	033411	190.07	13.501005	-56.968282	190.29	0.040	-1.140	2.310	190.07	-2.50	2.80	 	 	 	 	 	 	 	 	 	 	 	 	 	 	 	 	 	 	1581478451	8.47	15.69
12/02/2020 03:34:12	120220	12022020	033412	190.03	13.500970	-56.968293	190.24	-0.630	-0.440	2.550	190.02	-1.80	3.00	 	 	 	 	 	 	 	 	 	 	 	 	 	 	 	 	 	 	1581478452	7.98	14.78
12/02/2020 03:34:13	120220	12022020	033413	190.05	13.500933	-56.968303	190.28	-0.920	0.190	2.630	190.07	-1.20	3.10	 	 	 	 	 	 	 	 	 	 	 	 	 	 	 	 	 	 	1581478453	7.99	14.80
12/02/2020 03:34:14	120220	12022020	033414	190.16	13.500895	-56.968315	190.39	-0.910	0.500	2.560	190.19	-0.90	3.00	 	 	 	 	 	 	 	 	 	 	 	 	 	 	 	 	 	 	1581478454	8.18	15.15
12/02/2020 03:34:15	120220	12022020	033415	190.31	13.500855	-56.968325	190.55	-0.770	0.390	2.330	190.35	-1.00	2.80	 	 	 	 	 	 	 	 	 	 	 	 	 	 	 	 	 	 	1581478455	8.46	15.67
12/02/2020 03:34:16	120220	12022020	033416	190.53	13.500815	-56.968335	190.76	-0.480	0.160	1.930	190.57	-1.20	2.40	 	 	 	 	 	 	 	 	 	 	 	 	 	 	 	 	 	 	1581478456	8.84	16.37
12/02/2020 03:34:17	120220	12022020	033417	190.78	13.500775	-56.968343	191.00	0.030	0.200	1.310	190.82	-1.20	1.80	 	 	 	 	 	 	 	 	 	 	 	 	 	 	 	 	 	 	1581478457	8.93	16.54
12/02/2020 03:34:18	120220	12022020	033418	191.00	13.500738	-56.968347	191.21	0.660	0.220	0.750	191.04	-1.10	1.30	 	 	 	 	 	 	 	 	 	 	 	 	 	 	 	 	 	 	1581478458	8.48	15.70
12/02/2020 03:34:19	120220	12022020	033419	191.15	13.500698	-56.968350	191.35	1.020	-0.110	0.570	191.16	-1.40	1.10	 	 	 	 	 	 	 	 	 	 	 	 	 	 	 	 	 	 	1581478459	8.24	15.26
12/02/2020 03:34:20	120220	12022020	033420	191.06	13.500658	-56.968357	191.22	0.890	-0.710	1.030	191.00	-2.00	1.50	 	 	 	 	 	 	 	 	 	 	 	 	 	 	 	 	 	 	1581478460	8.46	15.67
12/02/2020 03:34:21	120220	12022020	033421	190.65	13.500620	-56.968368	190.79	0.430	-1.180	1.910	190.53	-2.50	2.30	 	 	 	 	 	 	 	 	 	 	 	 	 	 	 	 	 	 	1581478461	8.70	16.11
12/02/2020 03:34:22	120220	12022020	033422	190.09	13.500582	-56.968382	190.25	-0.050	-1.120	2.820	190.00	-2.50	3.20	 	 	 	 	 	 	 	 	 	 	 	 	 	 	 	 	 	 	1581478462	8.81	16.32
12/02/2020 03:34:23	120220	12022020	033423	189.69	13.500545	-56.968395	189.87	-0.380	-0.560	3.370	189.63	-2.00	3.80	 	 	 	 	 	 	 	 	 	 	 	 	 	 	 	 	 	 	1581478463	8.60	15.93
12/02/2020 03:34:24	120220	12022020	033424	189.49	13.500510	-56.968407	189.70	-0.560	0.060	3.440	189.49	-1.30	3.90	 	 	 	 	 	 	 	 	 	 	 	 	 	 	 	 	 	 	1581478464	8.24	15.26
12/02/2020 03:34:25	120220	12022020	033425	189.67	13.500473	-56.968417	189.95	-0.630	0.500	2.980	189.76	-0.90	3.50	 	 	 	 	 	 	 	 	 	 	 	 	 	 	 	 	 	 	1581478465	8.15	15.09
12/02/2020 03:34:26	120220	12022020	033426	190.18	13.500435	-56.968425	190.45	-0.470	0.630	2.080	190.29	-0.70	2.60	 	 	 	 	 	 	 	 	 	 	 	 	 	 	 	 	 	 	1581478466	8.17	15.13
12/02/2020 03:34:27	120220	12022020	033427	190.65	13.500395	-56.968430	190.88	-0.020	0.250	1.170	190.72	-1.10	1.70	 	 	 	 	 	 	 	 	 	 	 	 	 	 	 	 	 	 	1581478467	8.22	15.22
12/02/2020 03:34:28	120220	12022020	033428	190.89	13.500355	-56.968437	191.12	0.500	-0.410	0.650	190.93	-1.70	1.10	 	 	 	 	 	 	 	 	 	 	 	 	 	 	 	 	 	 	1581478468	8.58	15.89
12/02/2020 03:34:29	120220	12022020	033429	191.02	13.500315	-56.968442	191.20	0.710	-0.780	0.710	191.00	-2.10	1.20	 	 	 	 	 	 	 	 	 	 	 	 	 	 	 	 	 	 	1581478469	8.92	16.52
12/02/2020 03:34:30	120220	12022020	033430	190.92	13.500278	-56.968450	191.09	0.500	-0.740	1.100	190.90	-2.10	1.60	 	 	 	 	 	 	 	 	 	 	 	 	 	 	 	 	 	 	1581478470	8.65	16.02
12/02/2020 03:34:31	120220	12022020	033431	190.78	13.500240	-56.968460	190.94	0.150	-0.680	1.460	190.74	-2.00	1.90	 	 	 	 	 	 	 	 	 	 	 	 	 	 	 	 	 	 	1581478471	8.19	15.17
12/02/2020 03:34:32	120220	12022020	033432	190.56	13.500202	-56.968470	190.72	-0.030	-0.870	1.830	190.52	-2.20	2.30	 	 	 	 	 	 	 	 	 	 	 	 	 	 	 	 	 	 	1581478472	8.21	15.20
12/02/2020 03:34:33	120220	12022020	033433	190.38	13.500162	-56.968480	190.56	-0.040	-0.910	2.110	190.35	-2.30	2.60	 	 	 	 	 	 	 	 	 	 	 	 	 	 	 	 	 	 	1581478473	8.73	16.17
12/02/2020 03:34:34	120220	12022020	033434	190.30	13.500122	-56.968488	190.50	-0.130	-0.440	2.140	190.30	-1.80	2.60	 	 	 	 	 	 	 	 	 	 	 	 	 	 	 	 	 	 	1581478474	8.93	16.54
12/02/2020 03:34:35	120220	12022020	033435	190.29	13.500085	-56.968495	190.49	-0.440	0.140	2.090	190.30	-1.30	2.60	 	 	 	 	 	 	 	 	 	 	 	 	 	 	 	 	 	 	1581478475	8.51	15.76
12/02/2020 03:34:36	120220	12022020	033436	190.32	13.500045	-56.968507	190.51	-0.810	0.390	2.290	190.31	-1.00	2.70	 	 	 	 	 	 	 	 	 	 	 	 	 	 	 	 	 	 	1581478476	8.30	15.37
12/02/2020 03:34:37	120220	12022020	033437	190.22	13.500007	-56.968520	190.41	-0.940	0.340	2.780	190.20	-1.00	3.20	 	 	 	 	 	 	 	 	 	 	 	 	 	 	 	 	 	 	1581478477	8.55	15.83
12/02/2020 03:34:38	120220	12022020	033438	190.18	13.499968	-56.968535	190.41	-0.630	0.460	2.850	190.21	-0.90	3.30	 	 	 	 	 	 	 	 	 	 	 	 	 	 	 	 	 	 	1581478478	8.97	16.61
12/02/2020 03:34:39	120220	12022020	033439	190.52	13.499932	-56.968545	190.79	0.020	0.900	2.050	190.64	-0.50	2.60	 	 	 	 	 	 	 	 	 	 	 	 	 	 	 	 	 	 	1581478479	8.83	16.35
12/02/2020 03:34:40	120220	12022020	033440	191.17	13.499897	-56.968547	191.45	0.710	1.060	0.820	191.31	-0.30	1.40	 	 	 	 	 	 	 	 	 	 	 	 	 	 	 	 	 	 	1581478480	7.98	14.78
12/02/2020 03:34:41	120220	12022020	033441	191.69	13.499858	-56.968548	191.90	1.270	0.260	-0.070	191.74	-1.00	0.40	 	 	 	 	 	 	 	 	 	 	 	 	 	 	 	 	 	 	1581478481	7.70	14.26
12/02/2020 03:34:42	120220	12022020	033442	191.77	13.499815	-56.968552	191.94	1.510	-1.210	-0.090	191.75	-2.50	0.40	 	 	 	 	 	 	 	 	 	 	 	 	 	 	 	 	 	 	1581478482	8.36	15.48
12/02/2020 03:34:43	120220	12022020	033443	191.55	13.499775	-56.968560	191.71	1.150	-2.230	0.830	191.48	-3.60	1.20	 	 	 	 	 	 	 	 	 	 	 	 	 	 	 	 	 	 	1581478483	9.14	16.93
12/02/2020 03:34:44	120220	12022020	033444	191.15	13.499738	-56.968573	191.31	0.220	-2.170	2.080	191.05	-3.60	2.50	 	 	 	 	 	 	 	 	 	 	 	 	 	 	 	 	 	 	1581478484	8.99	16.65
12/02/2020 03:34:45	120220	12022020	033445	190.63	13.499703	-56.968592	190.81	-0.750	-1.520	3.150	190.52	-2.90	3.60	 	 	 	 	 	 	 	 	 	 	 	 	 	 	 	 	 	 	1581478485	8.34	15.45
12/02/2020 03:34:46	120220	12022020	033446	190.11	13.499668	-56.968610	190.32	-1.240	-0.940	3.780	190.03	-2.30	4.20	 	 	 	 	 	 	 	 	 	 	 	 	 	 	 	 	 	 	1581478486	8.21	15.20
12/02/2020 03:34:47	120220	12022020	033447	189.88	13.499628	-56.968625	190.12	-1.040	-0.420	3.640	189.88	-1.80	4.10	 	 	 	 	 	 	 	 	 	 	 	 	 	 	 	 	 	 	1581478487	8.71	16.13
12/02/2020 03:34:48	120220	12022020	033448	190.13	13.499590	-56.968635	190.42	-0.570	0.330	2.780	190.24	-1.10	3.30	 	 	 	 	 	 	 	 	 	 	 	 	 	 	 	 	 	 	1581478488	9.01	16.69
12/02/2020 03:34:49	120220	12022020	033449	190.78	13.499550	-56.968638	191.10	-0.330	1.060	1.710	190.93	-0.40	2.20	 	 	 	 	 	 	 	 	 	 	 	 	 	 	 	 	 	 	1581478489	8.69	16.09
12/02/2020 03:34:50	120220	12022020	033450	191.45	13.499512	-56.968643	191.72	-0.320	1.250	1.070	191.55	-0.10	1.60	 	 	 	 	 	 	 	 	 	 	 	 	 	 	 	 	 	 	1581478490	8.35	15.46
12/02/2020 03:34:51	120220	12022020	033451	191.76	13.499472	-56.968650	191.98	-0.200	0.900	1.050	191.77	-0.50	1.50	 	 	 	 	 	 	 	 	 	 	 	 	 	 	 	 	 	 	1581478491	8.41	15.58
12/02/2020 03:34:52	120220	12022020	033452	191.77	13.499433	-56.968660	191.98	0.160	0.390	1.460	191.76	-1.00	1.90	 	 	 	 	 	 	 	 	 	 	 	 	 	 	 	 	 	 	1581478492	8.68	16.08
12/02/2020 03:34:53	120220	12022020	033453	191.70	13.499395	-56.968668	191.92	0.610	-0.080	1.800	191.69	-1.40	2.30	 	 	 	 	 	 	 	 	 	 	 	 	 	 	 	 	 	 	1581478493	8.70	16.11
12/02/2020 03:34:54	120220	12022020	033454	191.67	13.499357	-56.968677	191.92	0.850	-0.440	2.010	191.67	-1.80	2.50	 	 	 	 	 	 	 	 	 	 	 	 	 	 	 	 	 	 	1581478494	8.49	15.72
12/02/2020 03:34:55	120220	12022020	033455	191.74	13.499320	-56.968687	192.00	0.740	-0.640	2.070	191.77	-2.00	2.50	 	 	 	 	 	 	 	 	 	 	 	 	 	 	 	 	 	 	1581478495	8.27	15.32
12/02/2020 03:34:56	120220	12022020	033456	191.87	13.499285	-56.968697	192.11	0.420	-0.700	2.070	191.88	-2.10	2.50	 	 	 	 	 	 	 	 	 	 	 	 	 	 	 	 	 	 	1581478496	8.03	14.87
12/02/2020 03:34:57	120220	12022020	033457	191.76	13.499250	-56.968708	191.96	0.170	-0.910	2.210	191.69	-2.30	2.70	 	 	 	 	 	 	 	 	 	 	 	 	 	 	 	 	 	 	1581478497	7.80	14.45
12/02/2020 03:34:58	120220	12022020	033458	191.31	13.499212	-56.968720	191.49	0.100	-1.270	2.500	191.21	-2.60	2.90	 	 	 	 	 	 	 	 	 	 	 	 	 	 	 	 	 	 	1581478498	7.99	14.80
12/02/2020 03:34:59	120220	12022020	033459	190.82	13.499173	-56.968732	191.00	0.030	-1.430	2.720	190.74	-2.80	3.20	 	 	 	 	 	 	 	 	 	 	 	 	 	 	 	 	 	 	1581478499	8.54	15.82
12/02/2020 03:35:00	120220	12022020	033500	190.53	13.499135	-56.968742	190.75	-0.180	-1.000	2.680	190.51	-2.40	3.20	 	 	 	 	 	 	 	 	 	 	 	 	 	 	 	 	 	 	1581478500	8.82	16.33
12/02/2020 03:35:01	120220	12022020	033501	190.58	13.499098	-56.968752	190.85	-0.480	-0.090	2.340	190.64	-1.50	2.80	1017.00	26.10	26.10	21.10	21.10	-1.0	74.0	74.0	394.0	25.7	259.00	10.30	69.00	11.90	16	8435.0	27.2	27.2	1581478501	8.58	15.89
12/02/2020 03:35:02	120220	12022020	033502	191.02	13.499062	-56.968760	191.32	-0.640	0.680	1.730	191.14	-0.70	2.20	 	 	 	 	 	 	 	 	 	 	 	 	 	 	 	 	 	 	1581478502	8.14	15.08
12/02/2020 03:35:03	120220	12022020	033503	191.67	13.499022	-56.968767	191.99	-0.470	0.850	1.110	191.81	-0.50	1.60	 	 	 	 	 	 	 	 	 	 	 	 	 	 	 	 	 	 	1581478503	8.10	15.00
12/02/2020 03:35:04	120220	12022020	033504	192.22	13.498982	-56.968773	192.65	-0.010	0.510	0.630	192.34	-0.80	1.10	 	 	 	 	 	 	 	 	 	 	 	 	 	 	 	 	 	 	1581478504	8.53	15.80
12/02/2020 03:35:05	120220	12022020	033505	192.80	13.498940	-56.968780	193.05	0.440	0.050	0.540	192.85	-1.30	1.00	 	 	 	 	 	 	 	 	 	 	 	 	 	 	 	 	 	 	1581478505	8.95	16.58
12/02/2020 03:35:06	120220	12022020	033506	192.90	13.498902	-56.968788	193.10	0.490	-0.290	1.060	192.89	-1.60	1.50	 	 	 	 	 	 	 	 	 	 	 	 	 	 	 	 	 	 	1581478506	8.91	16.50
12/02/2020 03:35:07	120220	12022020	033507	192.70	13.498865	-56.968800	192.88	0.100	-0.450	1.920	192.62	-1.80	2.30	 	 	 	 	 	 	 	 	 	 	 	 	 	 	 	 	 	 	1581478507	8.57	15.87
12/02/2020 03:35:08	120220	12022020	033508	192.20	13.498828	-56.968815	192.36	-0.430	-0.530	2.820	192.06	-1.90	3.20	 	 	 	 	 	 	 	 	 	 	 	 	 	 	 	 	 	 	1581478508	8.28	15.33
12/02/2020 03:35:09	120220	12022020	033509	191.54	13.498793	-56.968832	191.71	-0.690	-0.610	3.440	191.43	-2.00	3.90	 	 	 	 	 	 	 	 	 	 	 	 	 	 	 	 	 	 	1581478509	8.27	15.32
12/02/2020 03:35:10	120220	12022020	033510	191.11	13.498757	-56.968848	191.34	-0.510	-0.490	3.420	191.06	-1.90	3.90	 	 	 	 	 	 	 	 	 	 	 	 	 	 	 	 	 	 	1581478510	8.55	15.83
12/02/2020 03:35:11	120220	12022020	033511	190.92	13.498720	-56.968860	191.15	0.080	-0.220	2.810	190.90	-1.60	3.30	 	 	 	 	 	 	 	 	 	 	 	 	 	 	 	 	 	 	1581478511	8.47	15.69
12/02/2020 03:35:12	120220	12022020	033512	190.95	13.498682	-56.968865	191.19	0.760	-0.030	1.730	190.99	-1.40	2.30	 	 	 	 	 	 	 	 	 	 	 	 	 	 	 	 	 	 	1581478512	8.20	15.19
12/02/2020 03:35:13	120220	12022020	033513	191.26	13.498643	-56.968867	191.51	1.110	-0.000	0.770	191.34	-1.40	1.30	 	 	 	 	 	 	 	 	 	 	 	 	 	 	 	 	 	 	1581478513	8.23	15.24
12/02/2020 03:35:14	120220	12022020	033514	191.69	13.498605	-56.968872	191.93	0.930	-0.110	0.500	191.77	-1.50	1.00	 	 	 	 	 	 	 	 	 	 	 	 	 	 	 	 	 	 	1581478514	8.37	15.50
12/02/2020 03:35:15	120220	12022020	033515	191.97	13.498568	-56.968880	192.18	0.420	-0.240	0.890	191.99	-1.60	1.30	 	 	 	 	 	 	 	 	 	 	 	 	 	 	 	 	 	 	1581478515	8.30	15.37
12/02/2020 03:35:16	120220	12022020	033516	192.03	13.498532	-56.968892	192.24	-0.160	-0.370	1.630	192.03	-1.70	2.00	 	 	 	 	 	 	 	 	 	 	 	 	 	 	 	 	 	 	1581478516	8.20	15.19
12/02/2020 03:35:17	120220	12022020	033517	192.03	13.498495	-56.968907	192.26	-0.650	-0.520	2.330	192.03	-1.90	2.80	 	 	 	 	 	 	 	 	 	 	 	 	 	 	 	 	 	 	1581478517	8.22	15.22
12/02/2020 03:35:18	120220	12022020	033518	192.01	13.498460	-56.968923	192.22	-0.870	-0.710	2.780	192.00	-2.10	3.20	 	 	 	 	 	 	 	 	 	 	 	 	 	 	 	 	 	 	1581478518	8.36	15.48
12/02/2020 03:35:19	120220	12022020	033519	191.77	13.498422	-56.968938	191.95	-0.620	-0.900	2.870	191.70	-2.30	3.30	 	 	 	 	 	 	 	 	 	 	 	 	 	 	 	 	 	 	1581478519	8.51	15.76
12/02/2020 03:35:20	120220	12022020	033520	191.32	13.498382	-56.968948	191.50	-0.060	-1.040	2.610	191.22	-2.40	3.10	 	 	 	 	 	 	 	 	 	 	 	 	 	 	 	 	 	 	1581478520	8.60	15.93
12/02/2020 03:35:21	120220	12022020	033521	190.82	13.498342	-56.968955	191.00	0.290	-0.820	2.410	190.72	-2.20	2.90	 	 	 	 	 	 	 	 	 	 	 	 	 	 	 	 	 	 	1581478521	8.80	16.30
12/02/2020 03:35:22	120220	12022020	033522	190.41	13.498305	-56.968963	190.60	0.140	-0.050	2.470	190.36	-1.50	2.90	 	 	 	 	 	 	 	 	 	 	 	 	 	 	 	 	 	 	1581478522	8.73	16.17
12/02/2020 03:35:23	120220	12022020	033523	190.33	13.498270	-56.968973	190.59	-0.330	1.040	2.400	190.38	-0.40	2.90	 	 	 	 	 	 	 	 	 	 	 	 	 	 	 	 	 	 	1581478523	8.23	15.24
12/02/2020 03:35:24	120220	12022020	033524	190.72	13.498237	-56.968982	191.01	-0.580	1.700	2.150	190.82	0.30	2.60	 	 	 	 	 	 	 	 	 	 	 	 	 	 	 	 	 	 	1581478524	7.67	14.20
12/02/2020 03:35:25	120220	12022020	033525	191.20	13.498198	-56.968992	191.46	-0.200	1.170	1.840	191.28	-0.10	2.30	 	 	 	 	 	 	 	 	 	 	 	 	 	 	 	 	 	 	1581478525	7.55	13.98
12/02/2020 03:35:26	120220	12022020	033526	191.49	13.498157	-56.968998	191.72	0.600	-0.220	1.490	191.52	-1.50	2.00	 	 	 	 	 	 	 	 	 	 	 	 	 	 	 	 	 	 	1581478526	8.36	15.48
12/02/2020 03:35:27	120220	12022020	033527	191.55	13.498113	-56.969007	191.76	1.100	-1.400	1.430	191.54	-2.70	1.90	 	 	 	 	 	 	 	 	 	 	 	 	 	 	 	 	 	 	1581478527	9.28	17.19
12/02/2020 03:35:28	120220	12022020	033528	191.49	13.498077	-56.969013	191.69	0.880	-1.630	1.680	191.47	-3.00	2.10	 	 	 	 	 	 	 	 	 	 	 	 	 	 	 	 	 	 	1581478528	9.21	17.06
12/02/2020 03:35:29	120220	12022020	033529	191.27	13.498042	-56.969023	191.47	0.110	-1.200	2.200	191.21	-2.60	2.60	 	 	 	 	 	 	 	 	 	 	 	 	 	 	 	 	 	 	1581478529	8.27	15.32
12/02/2020 03:35:30	120220	12022020	033530	190.87	13.498008	-56.969038	191.05	-0.630	-0.810	2.890	190.77	-2.20	3.30	 	 	 	 	 	 	 	 	 	 	 	 	 	 	 	 	 	 	1581478530	7.58	14.04
12/02/2020 03:35:31	120220	12022020	033531	190.35	13.497972	-56.969053	190.55	-0.880	-0.740	3.470	190.26	-2.10	3.90	 	 	 	 	 	 	 	 	 	 	 	 	 	 	 	 	 	 	1581478531	7.87	14.58
12/02/2020 03:35:32	120220	12022020	033532	189.97	13.497932	-56.969067	190.21	-0.640	-0.620	3.540	189.95	-2.00	4.00	 	 	 	 	 	 	 	 	 	 	 	 	 	 	 	 	 	 	1581478532	8.63	15.98
12/02/2020 03:35:33	120220	12022020	033533	190.15	13.497893	-56.969078	190.49	-0.410	0.100	3.070	190.26	-1.30	3.60	 	 	 	 	 	 	 	 	 	 	 	 	 	 	 	 	 	 	1581478533	9.00	16.67
12/02/2020 03:35:34	120220	12022020	033534	190.81	13.497860	-56.969087	191.15	-0.380	1.070	2.380	190.95	-0.40	2.90	 	 	 	 	 	 	 	 	 	 	 	 	 	 	 	 	 	 	1581478534	8.39	15.54
12/02/2020 03:35:35	120220	12022020	033535	191.40	13.497823	-56.969093	191.67	-0.230	1.400	1.600	191.47	0.00	2.10	 	 	 	 	 	 	 	 	 	 	 	 	 	 	 	 	 	 	1581478535	7.62	14.11
12/02/2020 03:35:36	120220	12022020	033536	191.62	13.497783	-56.969098	191.85	0.380	0.720	0.910	191.64	-0.60	1.40	 	 	 	 	 	 	 	 	 	 	 	 	 	 	 	 	 	 	1581478536	7.75	14.35
12/02/2020 03:35:37	120220	12022020	033537	191.73	13.497742	-56.969102	191.96	1.100	-0.250	0.490	191.76	-1.60	1.00	 	 	 	 	 	 	 	 	 	 	 	 	 	 	 	 	 	 	1581478537	8.70	16.11
12/02/2020 03:35:38	120220	12022020	033538	191.89	13.497702	-56.969105	192.13	1.350	-0.840	0.410	191.93	-2.20	0.90	 	 	 	 	 	 	 	 	 	 	 	 	 	 	 	 	 	 	1581478538	9.09	16.83
12/02/2020 03:35:39	120220	12022020	033539	192.02	13.497665	-56.969110	192.23	0.880	-1.090	0.780	192.01	-2.40	1.20	 	 	 	 	 	 	 	 	 	 	 	 	 	 	 	 	 	 	1581478539	8.60	15.93
12/02/2020 03:35:40	120220	12022020	033540	191.80	13.497628	-56.969123	191.97	-0.080	-1.420	1.970	191.70	-2.80	2.40	 	 	 	 	 	 	 	 	 	 	 	 	 	 	 	 	 	 	1581478540	8.06	14.93
12/02/2020 03:35:41	120220	12022020	033541	191.15	13.497592	-56.969145	191.30	-1.040	-1.680	3.700	190.99	-3.00	4.10	 	 	 	 	 	 	 	 	 	 	 	 	 	 	 	 	 	 	1581478541	8.29	15.35
12/02/2020 03:35:42	120220	12022020	033542	190.37	13.497555	-56.969170	190.54	-1.540	-1.450	5.050	190.23	-2.80	5.40	 	 	 	 	 	 	 	 	 	 	 	 	 	 	 	 	 	 	1581478542	9.08	16.82
12/02/2020 03:35:43	120220	12022020	033543	189.83	13.497520	-56.969192	190.04	-1.340	-0.670	5.320	189.76	-2.10	5.80	 	 	 	 	 	 	 	 	 	 	 	 	 	 	 	 	 	 	1581478543	9.39	17.39
12/02/2020 03:35:44	120220	12022020	033544	189.61	13.497485	-56.969203	189.83	-0.590	0.260	4.520	189.60	-1.20	5.10	 	 	 	 	 	 	 	 	 	 	 	 	 	 	 	 	 	 	1581478544	8.82	16.33
12/02/2020 03:35:45	120220	12022020	033545	189.66	13.497447	-56.969208	189.89	0.210	0.980	3.110	189.71	-0.40	3.70	 	 	 	 	 	 	 	 	 	 	 	 	 	 	 	 	 	 	1581478545	8.22	15.22
12/02/2020 03:35:46	120220	12022020	033546	190.01	13.497408	-56.969207	190.26	0.710	1.300	1.480	190.10	-0.10	2.10	 	 	 	 	 	 	 	 	 	 	 	 	 	 	 	 	 	 	1581478546	8.18	15.15
12/02/2020 03:35:47	120220	12022020	033547	190.45	13.497368	-56.969205	190.66	0.900	1.080	0.230	190.52	-0.30	0.80	 	 	 	 	 	 	 	 	 	 	 	 	 	 	 	 	 	 	1581478547	8.36	15.48
12/02/2020 03:35:48	120220	12022020	033548	190.77	13.497327	-56.969205	190.96	0.970	0.270	-0.240	190.83	-1.00	0.30	 	 	 	 	 	 	 	 	 	 	 	 	 	 	 	 	 	 	1581478548	8.55	15.83
12/02/2020 03:35:49	120220	12022020	033549	191.05	13.497287	-56.969210	191.26	0.880	-0.730	0.130	191.11	-2.00	0.60	 	 	 	 	 	 	 	 	 	 	 	 	 	 	 	 	 	 	1581478549	8.82	16.33
12/02/2020 03:35:50	120220	12022020	033550	191.38	13.497248	-56.969223	191.63	0.460	-1.310	1.380	191.44	-2.70	1.70	 	 	 	 	 	 	 	 	 	 	 	 	 	 	 	 	 	 	1581478550	8.89	16.46
12/02/2020 03:35:51	120220	12022020	033551	191.60	13.497215	-56.969242	191.85	-0.240	-1.340	3.010	191.60	-2.70	3.40	 	 	 	 	 	 	 	 	 	 	 	 	 	 	 	 	 	 	1581478551	8.51	15.76
12/02/2020 03:35:52	120220	12022020	033552	191.41	13.497183	-56.969262	191.58	-0.770	-1.190	4.460	191.28	-2.60	4.80	 	 	 	 	 	 	 	 	 	 	 	 	 	 	 	 	 	 	1581478552	8.18	15.15
12/02/2020 03:35:53	120220	12022020	033553	190.58	13.497147	-56.969282	190.72	-0.730	-1.270	5.450	190.39	-2.60	5.90	 	 	 	 	 	 	 	 	 	 	 	 	 	 	 	 	 	 	1581478553	8.21	15.20
12/02/2020 03:35:54	120220	12022020	033554	189.74	13.497108	-56.969297	189.93	-0.310	-1.140	5.480	189.62	-2.50	6.00	 	 	 	 	 	 	 	 	 	 	 	 	 	 	 	 	 	 	1581478554	8.78	16.26
12/02/2020 03:35:55	120220	12022020	033555	189.37	13.497070	-56.969303	189.64	0.050	-0.470	4.700	189.36	-1.90	5.20	 	 	 	 	 	 	 	 	 	 	 	 	 	 	 	 	 	 	1581478555	8.85	16.39
12/02/2020 03:35:56	120220	12022020	033556	189.46	13.497032	-56.969307	189.74	0.170	0.330	3.400	189.51	-1.10	4.00	 	 	 	 	 	 	 	 	 	 	 	 	 	 	 	 	 	 	1581478556	8.37	15.50
12/02/2020 03:35:57	120220	12022020	033557	189.81	13.496993	-56.969308	190.11	0.150	0.740	2.030	189.90	-0.60	2.60	 	 	 	 	 	 	 	 	 	 	 	 	 	 	 	 	 	 	1581478557	8.11	15.02
12/02/2020 03:35:58	120220	12022020	033558	190.41	13.496953	-56.969310	190.72	0.100	0.820	0.980	190.56	-0.60	1.50	 	 	 	 	 	 	 	 	 	 	 	 	 	 	 	 	 	 	1581478558	8.42	15.59
12/02/2020 03:35:59	120220	12022020	033559	191.26	13.496913	-56.969313	191.60	-0.030	0.800	0.470	191.44	-0.60	1.00	 	 	 	 	 	 	 	 	 	 	 	 	 	 	 	 	 	 	1581478559	8.64	16.00
12/02/2020 03:36:00	120220	12022020	033600	192.10	13.496877	-56.969323	192.41	-0.260	0.540	0.680	192.23	-0.80	1.10	 	 	 	 	 	 	 	 	 	 	 	 	 	 	 	 	 	 	1581478560	8.37	15.50
12/02/2020 03:36:01	120220	12022020	033601	192.51	13.496842	-56.969338	192.76	-0.350	-0.100	1.470	192.53	-1.40	1.90	1017.00	26.00	26.10	20.90	21.00	-1.0	73.0	73.0	395.0	25.7	255.00	10.20	66.00	12.10	16	8667.0	27.2	27.2	1581478561	8.09	14.98
12/02/2020 03:36:02	120220	12022020	033602	192.40	13.496805	-56.969353	192.58	-0.070	-0.870	2.260	192.32	-2.20	2.70	 	 	 	 	 	 	 	 	 	 	 	 	 	 	 	 	 	 	1581478562	8.34	15.45
12/02/2020 03:36:03	120220	12022020	033603	191.87	13.496768	-56.969365	192.02	0.500	-1.360	2.650	191.74	-2.70	3.10	 	 	 	 	 	 	 	 	 	 	 	 	 	 	 	 	 	 	1581478563	8.55	15.83
12/02/2020 03:36:04	120220	12022020	033604	191.22	13.496730	-56.969373	191.38	0.910	-1.370	2.640	191.11	-2.80	3.10	 	 	 	 	 	 	 	 	 	 	 	 	 	 	 	 	 	 	1581478564	8.40	15.56
12/02/2020 03:36:05	120220	12022020	033605	190.80	13.496693	-56.969377	191.00	0.710	-0.980	2.350	190.75	-2.40	2.80	 	 	 	 	 	 	 	 	 	 	 	 	 	 	 	 	 	 	1581478565	8.17	15.13
12/02/2020 03:36:06	120220	12022020	033606	190.64	13.496657	-56.969385	190.87	-0.020	-0.620	2.100	190.62	-2.00	2.60	 	 	 	 	 	 	 	 	 	 	 	 	 	 	 	 	 	 	1581478566	7.96	14.74
12/02/2020 03:36:07	120220	12022020	033607	190.46	13.496618	-56.969397	190.66	-0.720	-0.490	2.220	190.41	-1.90	2.70	 	 	 	 	 	 	 	 	 	 	 	 	 	 	 	 	 	 	1581478567	8.07	14.95
12/02/2020 03:36:08	120220	12022020	033608	190.24	13.496580	-56.969412	190.39	-0.830	-0.320	2.440	190.19	-1.70	2.90	 	 	 	 	 	 	 	 	 	 	 	 	 	 	 	 	 	 	1581478568	8.58	15.89
12/02/2020 03:36:09	120220	12022020	033609	190.11	13.496542	-56.969423	190.35	-0.360	0.200	2.140	190.13	-1.20	2.60	 	 	 	 	 	 	 	 	 	 	 	 	 	 	 	 	 	 	1581478569	8.92	16.52
12/02/2020 03:36:10	120220	12022020	033610	190.40	13.496505	-56.969428	190.70	0.090	0.860	1.490	190.50	-0.50	2.00	 	 	 	 	 	 	 	 	 	 	 	 	 	 	 	 	 	 	1581478570	8.53	15.80
12/02/2020 03:36:11	120220	12022020	033611	191.00	13.496468	-56.969433	191.32	0.020	1.150	1.060	191.13	-0.20	1.50	 	 	 	 	 	 	 	 	 	 	 	 	 	 	 	 	 	 	1581478571	8.06	14.93
12/02/2020 03:36:12	120220	12022020	033612	191.54	13.496432	-56.969443	191.83	-0.420	0.720	1.100	191.60	-0.60	1.60	 	 	 	 	 	 	 	 	 	 	 	 	 	 	 	 	 	 	1581478572	7.93	14.69
12/02/2020 03:36:13	120220	12022020	033613	191.66	13.496393	-56.969458	191.90	-0.620	-0.260	1.720	191.63	-1.60	2.10	 	 	 	 	 	 	 	 	 	 	 	 	 	 	 	 	 	 	1581478573	8.18	15.15
12/02/2020 03:36:14	120220	12022020	033614	191.38	13.496355	-56.969473	191.58	-0.160	-1.160	2.340	191.30	-2.50	2.80	 	 	 	 	 	 	 	 	 	 	 	 	 	 	 	 	 	 	1581478574	8.73	16.17
12/02/2020 03:36:15	120220	12022020	033615	190.93	13.496317	-56.969483	191.11	0.690	-1.460	2.520	190.82	-2.80	3.00	 	 	 	 	 	 	 	 	 	 	 	 	 	 	 	 	 	 	1581478575	8.87	16.43
12/02/2020 03:36:16	120220	12022020	033616	190.42	13.496280	-56.969488	190.59	1.260	-1.190	2.290	190.31	-2.60	2.80	 	 	 	 	 	 	 	 	 	 	 	 	 	 	 	 	 	 	1581478576	8.40	15.56
12/02/2020 03:36:17	120220	12022020	033617	189.98	13.496243	-56.969492	190.18	1.130	-0.630	1.910	189.92	-2.00	2.40	 	 	 	 	 	 	 	 	 	 	 	 	 	 	 	 	 	 	1581478577	8.01	14.83
12/02/2020 03:36:18	120220	12022020	033618	189.76	13.496207	-56.969495	189.99	0.450	-0.110	1.700	189.75	-1.50	2.20	 	 	 	 	 	 	 	 	 	 	 	 	 	 	 	 	 	 	1581478578	7.89	14.61
12/02/2020 03:36:19	120220	12022020	033619	189.81	13.496170	-56.969503	190.06	-0.420	0.270	1.780	189.84	-1.10	2.20	 	 	 	 	 	 	 	 	 	 	 	 	 	 	 	 	 	 	1581478579	7.95	14.72
12/02/2020 03:36:20	120220	12022020	033620	190.09	13.496133	-56.969517	190.39	-1.060	0.410	2.260	190.16	-0.90	2.70	 	 	 	 	 	 	 	 	 	 	 	 	 	 	 	 	 	 	1581478580	8.11	15.02
12/02/2020 03:36:21	120220	12022020	033621	190.39	13.496097	-56.969533	190.66	-1.230	0.140	2.830	190.41	-1.20	3.30	 	 	 	 	 	 	 	 	 	 	 	 	 	 	 	 	 	 	1581478581	8.30	15.37
12/02/2020 03:36:22	120220	12022020	033622	190.33	13.496058	-56.969552	190.55	-0.840	-0.550	3.280	190.26	-1.90	3.70	 	 	 	 	 	 	 	 	 	 	 	 	 	 	 	 	 	 	1581478582	8.68	16.08
12/02/2020 03:36:23	120220	12022020	033623	189.92	13.496017	-56.969565	190.13	-0.180	-1.040	3.510	189.84	-2.40	4.00	 	 	 	 	 	 	 	 	 	 	 	 	 	 	 	 	 	 	1581478583	9.17	16.98
12/02/2020 03:36:24	120220	12022020	033624	189.70	13.495980	-56.969575	189.95	0.320	-0.620	3.110	189.72	-2.00	3.60	 	 	 	 	 	 	 	 	 	 	 	 	 	 	 	 	 	 	1581478584	9.24	17.11
12/02/2020 03:36:25	120220	12022020	033625	190.03	13.495945	-56.969578	190.31	0.510	0.490	1.880	190.14	-0.90	2.40	 	 	 	 	 	 	 	 	 	 	 	 	 	 	 	 	 	 	1581478585	8.36	15.48
12/02/2020 03:36:26	120220	12022020	033626	190.59	13.495912	-56.969575	190.84	0.580	1.030	0.590	190.68	-0.30	1.10	 	 	 	 	 	 	 	 	 	 	 	 	 	 	 	 	 	 	1581478586	7.26	13.45
12/02/2020 03:36:27	120220	12022020	033627	190.95	13.495872	-56.969575	191.16	0.700	0.400	0.040	190.99	-0.90	0.50	 	 	 	 	 	 	 	 	 	 	 	 	 	 	 	 	 	 	1581478587	7.50	13.89
12/02/2020 03:36:28	120220	12022020	033628	190.92	13.495828	-56.969580	191.06	0.640	-0.830	0.590	190.83	-2.10	1.00	 	 	 	 	 	 	 	 	 	 	 	 	 	 	 	 	 	 	1581478588	8.57	15.87
12/02/2020 03:36:29	120220	12022020	033629	190.29	13.495788	-56.969595	190.40	0.230	-1.840	2.130	190.11	-3.20	2.50	 	 	 	 	 	 	 	 	 	 	 	 	 	 	 	 	 	 	1581478589	9.17	16.98
12/02/2020 03:36:30	120220	12022020	033630	189.40	13.495750	-56.969615	189.54	-0.410	-1.910	3.790	189.24	-3.30	4.20	 	 	 	 	 	 	 	 	 	 	 	 	 	 	 	 	 	 	1581478590	9.33	17.28
12/02/2020 03:36:31	120220	12022020	033631	188.76	13.495717	-56.969635	188.97	-0.950	-0.830	4.780	188.69	-2.30	5.20	 	 	 	 	 	 	 	 	 	 	 	 	 	 	 	 	 	 	1581478591	9.15	16.95
12/02/2020 03:36:32	120220	12022020	033632	188.69	13.495687	-56.969652	188.97	-1.100	0.580	4.670	188.74	-0.90	5.20	 	 	 	 	 	 	 	 	 	 	 	 	 	 	 	 	 	 	1581478592	8.33	15.43
12/02/2020 03:36:33	120220	12022020	033633	189.02	13.495652	-56.969660	189.28	-0.700	1.160	3.690	189.08	-0.20	4.20	 	 	 	 	 	 	 	 	 	 	 	 	 	 	 	 	 	 	1581478593	7.46	13.82
12/02/2020 03:36:34	120220	12022020	033634	189.30	13.495610	-56.969663	189.53	0.170	0.600	2.340	189.33	-0.70	2.90	 	 	 	 	 	 	 	 	 	 	 	 	 	 	 	 	 	 	1581478594	7.64	14.15
12/02/2020 03:36:35	120220	12022020	033635	189.48	13.495567	-56.969663	189.70	0.990	-0.290	1.200	189.53	-1.60	1.70	 	 	 	 	 	 	 	 	 	 	 	 	 	 	 	 	 	 	1581478595	8.80	16.30
12/02/2020 03:36:36	120220	12022020	033636	189.84	13.495527	-56.969665	190.09	1.140	-0.470	0.580	189.94	-1.90	1.10	 	 	 	 	 	 	 	 	 	 	 	 	 	 	 	 	 	 	1581478596	9.43	17.46
12/02/2020 03:36:37	120220	12022020	033637	190.31	13.495492	-56.969668	190.53	0.550	-0.110	0.630	190.38	-1.50	1.10	 	 	 	 	 	 	 	 	 	 	 	 	 	 	 	 	 	 	1581478597	8.62	15.96
12/02/2020 03:36:38	120220	12022020	033638	190.55	13.495458	-56.969678	190.76	-0.190	-0.030	1.230	190.56	-1.40	1.70	 	 	 	 	 	 	 	 	 	 	 	 	 	 	 	 	 	 	1581478598	7.52	13.93
12/02/2020 03:36:39	120220	12022020	033639	190.46	13.495422	-56.969692	190.65	-0.520	-0.570	2.210	190.40	-1.90	2.60	 	 	 	 	 	 	 	 	 	 	 	 	 	 	 	 	 	 	1581478599	7.56	14.00
12/02/2020 03:36:40	120220	12022020	033640	190.07	13.495383	-56.969708	190.25	-0.380	-1.260	3.180	189.97	-2.60	3.60	 	 	 	 	 	 	 	 	 	 	 	 	 	 	 	 	 	 	1581478600	8.45	15.65
12/02/2020 03:36:41	120220	12022020	033641	189.60	13.495343	-56.969723	189.80	-0.040	-1.530	3.580	189.52	-2.90	4.00	 	 	 	 	 	 	 	 	 	 	 	 	 	 	 	 	 	 	1581478601	9.04	16.74
12/02/2020 03:36:42	120220	12022020	033642	189.28	13.495305	-56.969732	189.53	0.190	-1.130	3.230	189.26	-2.50	3.70	 	 	 	 	 	 	 	 	 	 	 	 	 	 	 	 	 	 	1581478602	9.00	16.67
12/02/2020 03:36:43	120220	12022020	033643	189.34	13.495270	-56.969737	189.63	0.160	-0.080	2.360	189.40	-1.50	2.90	 	 	 	 	 	 	 	 	 	 	 	 	 	 	 	 	 	 	1581478603	8.46	15.67
12/02/2020 03:36:44	120220	12022020	033644	189.69	13.495235	-56.969738	189.97	-0.090	0.990	1.380	189.77	-0.40	1.90	 	 	 	 	 	 	 	 	 	 	 	 	 	 	 	 	 	 	1581478604	7.74	14.33
12/02/2020 03:36:45	120220	12022020	033645	190.09	13.495198	-56.969742	190.37	-0.450	1.370	0.760	190.17	0.00	1.30	 	 	 	 	 	 	 	 	 	 	 	 	 	 	 	 	 	 	1581478605	7.46	13.82
12/02/2020 03:36:46	120220	12022020	033646	190.47	13.495160	-56.969750	190.71	-0.680	0.870	0.790	190.52	-0.50	1.30	 	 	 	 	 	 	 	 	 	 	 	 	 	 	 	 	 	 	1581478606	7.76	14.37
12/02/2020 03:36:47	120220	12022020	033647	190.56	13.495120	-56.969763	190.74	-0.440	-0.260	1.350	190.54	-1.60	1.80	 	 	 	 	 	 	 	 	 	 	 	 	 	 	 	 	 	 	1581478607	8.35	15.46
12/02/2020 03:36:48	120220	12022020	033648	190.32	13.495080	-56.969777	190.47	0.350	-1.290	2.010	190.24	-2.60	2.40	 	 	 	 	 	 	 	 	 	 	 	 	 	 	 	 	 	 	1581478608	9.04	16.74
12/02/2020 03:36:49	120220	12022020	033649	189.98	13.495040	-56.969785	190.19	1.180	-1.520	2.230	189.95	-2.90	2.70	 	 	 	 	 	 	 	 	 	 	 	 	 	 	 	 	 	 	1581478609	9.24	17.11
12/02/2020 03:36:50	120220	12022020	033650	190.03	13.495005	-56.969790	190.33	1.280	-0.750	2.120	190.09	-2.20	2.60	 	 	 	 	 	 	 	 	 	 	 	 	 	 	 	 	 	 	1581478610	8.69	16.09
12/02/2020 03:36:51	120220	12022020	033651	190.39	13.494973	-56.969795	190.70	0.450	0.300	2.090	190.46	-1.10	2.60	 	 	 	 	 	 	 	 	 	 	 	 	 	 	 	 	 	 	1581478611	7.66	14.19
12/02/2020 03:36:52	120220	12022020	033652	190.64	13.494940	-56.969805	190.89	-0.660	0.650	2.220	190.64	-0.70	2.70	 	 	 	 	 	 	 	 	 	 	 	 	 	 	 	 	 	 	1581478612	6.91	12.80
12/02/2020 03:36:53	120220	12022020	033653	190.51	13.494903	-56.969818	190.72	-1.210	0.010	2.590	190.45	-1.30	3.00	 	 	 	 	 	 	 	 	 	 	 	 	 	 	 	 	 	 	1581478613	7.34	13.59
12/02/2020 03:36:54	120220	12022020	033654	190.18	13.494863	-56.969833	190.39	-0.940	-0.920	2.920	190.11	-2.20	3.40	 	 	 	 	 	 	 	 	 	 	 	 	 	 	 	 	 	 	1581478614	8.55	15.83
12/02/2020 03:36:55	120220	12022020	033655	189.86	13.494823	-56.969848	190.09	-0.250	-1.330	3.040	189.82	-2.70	3.50	 	 	 	 	 	 	 	 	 	 	 	 	 	 	 	 	 	 	1581478615	9.27	17.17
12/02/2020 03:36:56	120220	12022020	033656	189.76	13.494787	-56.969857	190.04	0.340	-0.940	2.710	189.77	-2.30	3.20	 	 	 	 	 	 	 	 	 	 	 	 	 	 	 	 	 	 	1581478616	9.01	16.69
12/02/2020 03:36:57	120220	12022020	033657	189.99	13.494750	-56.969862	190.29	0.550	-0.070	2.040	190.06	-1.50	2.60	 	 	 	 	 	 	 	 	 	 	 	 	 	 	 	 	 	 	1581478617	8.25	15.28
12/02/2020 03:36:58	120220	12022020	033658	190.28	13.494715	-56.969863	190.62	0.450	0.670	1.420	190.35	-0.70	1.90	 	 	 	 	 	 	 	 	 	 	 	 	 	 	 	 	 	 	1581478618	7.65	14.17
12/02/2020 03:36:59	120220	12022020	033659	190.64	13.494678	-56.969867	190.90	0.230	0.820	1.140	190.70	-0.50	1.60	 	 	 	 	 	 	 	 	 	 	 	 	 	 	 	 	 	 	1581478619	7.59	14.06
12/02/2020 03:37:00	120220	12022020	033700	190.88	13.494640	-56.969875	191.12	-0.020	0.490	1.270	190.90	-0.90	1.70	 	 	 	 	 	 	 	 	 	 	 	 	 	 	 	 	 	 	1581478620	7.98	14.78
12/02/2020 03:37:01	120220	12022020	033701	190.87	13.494603	-56.969885	191.06	-0.150	-0.120	1.660	190.83	-1.40	2.10	1016.90	26.10	26.10	21.00	21.00	-1.0	73.0	73.0	398.0	25.7	257.00	10.40	67.00	12.10	16	9063.0	27.2	27.2	1581478621	8.29	15.35
12/02/2020 03:37:02	120220	12022020	033702	190.52	13.494563	-56.969897	190.69	-0.060	-0.890	2.200	190.41	-2.20	2.60	 	 	 	 	 	 	 	 	 	 	 	 	 	 	 	 	 	 	1581478622	8.47	15.69
12/02/2020 03:37:03	120220	12022020	033703	189.93	13.494525	-56.969910	190.12	0.100	-1.390	2.750	189.81	-2.70	3.20	 	 	 	 	 	 	 	 	 	 	 	 	 	 	 	 	 	 	1581478623	8.76	16.22
12/02/2020 03:37:04	120220	12022020	033704	189.45	13.494488	-56.969922	189.67	0.120	-1.050	2.900	189.41	-2.40	3.40	 	 	 	 	 	 	 	 	 	 	 	 	 	 	 	 	 	 	1581478624	8.84	16.37
12/02/2020 03:37:05	120220	12022020	033705	189.41	13.494455	-56.969930	189.71	-0.050	-0.010	2.510	189.47	-1.40	3.00	 	 	 	 	 	 	 	 	 	 	 	 	 	 	 	 	 	 	1581478625	8.19	15.17
12/02/2020 03:37:06	120220	12022020	033706	189.78	13.494423	-56.969937	190.08	-0.200	0.690	1.750	189.86	-0.70	2.30	 	 	 	 	 	 	 	 	 	 	 	 	 	 	 	 	 	 	1581478626	7.26	13.45
12/02/2020 03:37:07	120220	12022020	033707	190.14	13.494385	-56.969942	190.43	-0.070	0.330	1.140	190.21	-1.00	1.60	 	 	 	 	 	 	 	 	 	 	 	 	 	 	 	 	 	 	1581478627	7.20	13.33
12/02/2020 03:37:08	120220	12022020	033708	190.39	13.494343	-56.969948	190.65	0.240	-0.620	1.150	190.42	-1.90	1.60	 	 	 	 	 	 	 	 	 	 	 	 	 	 	 	 	 	 	1581478628	8.27	15.32
12/02/2020 03:37:09	120220	12022020	033709	190.45	13.494302	-56.969958	190.69	0.390	-1.190	1.630	190.44	-2.50	2.10	 	 	 	 	 	 	 	 	 	 	 	 	 	 	 	 	 	 	1581478629	9.10	16.85
12/02/2020 03:37:10	120220	12022020	033710	190.34	13.494265	-56.969968	190.59	0.160	-0.930	2.170	190.34	-2.30	2.60	 	 	 	 	 	 	 	 	 	 	 	 	 	 	 	 	 	 	1581478630	8.96	16.59
12/02/2020 03:37:11	120220	12022020	033711	190.19	13.494232	-56.969978	190.45	-0.310	-0.200	2.660	190.16	-1.60	3.10	 	 	 	 	 	 	 	 	 	 	 	 	 	 	 	 	 	 	1581478631	8.19	15.17
12/02/2020 03:37:12	120220	12022020	033712	190.10	13.494197	-56.969992	190.37	-0.710	0.330	2.900	190.09	-1.10	3.30	 	 	 	 	 	 	 	 	 	 	 	 	 	 	 	 	 	 	1581478632	7.70	14.26
12/02/2020 03:37:13	120220	12022020	033713	190.05	13.494160	-56.970003	190.32	-0.650	0.260	2.850	190.04	-1.10	3.30	 	 	 	 	 	 	 	 	 	 	 	 	 	 	 	 	 	 	1581478633	7.81	14.46
12/02/2020 03:37:14	120220	12022020	033714	190.03	13.494120	-56.970013	190.30	-0.100	-0.150	2.430	190.03	-1.50	2.90	 	 	 	 	 	 	 	 	 	 	 	 	 	 	 	 	 	 	1581478634	8.42	15.59
12/02/2020 03:37:15	120220	12022020	033715	190.10	13.494080	-56.970018	190.38	0.530	-0.370	1.810	190.14	-1.70	2.30	 	 	 	 	 	 	 	 	 	 	 	 	 	 	 	 	 	 	1581478635	8.87	16.43
12/02/2020 03:37:16	120220	12022020	033716	190.32	13.494042	-56.970023	190.59	0.690	-0.120	1.350	190.37	-1.50	1.80	 	 	 	 	 	 	 	 	 	 	 	 	 	 	 	 	 	 	1581478636	8.72	16.15
12/02/2020 03:37:17	120220	12022020	033717	190.59	13.494007	-56.970028	190.85	0.310	0.340	1.220	190.63	-1.10	1.70	 	 	 	 	 	 	 	 	 	 	 	 	 	 	 	 	 	 	1581478637	8.09	14.98
12/02/2020 03:37:18	120220	12022020	033718	190.71	13.493973	-56.970037	190.94	-0.190	0.420	1.470	190.72	-0.90	1.90	 	 	 	 	 	 	 	 	 	 	 	 	 	 	 	 	 	 	1581478638	7.51	13.91
12/02/2020 03:37:19	120220	12022020	033719	190.79	13.493937	-56.970048	191.02	-0.400	-0.020	1.790	190.79	-1.40	2.20	 	 	 	 	 	 	 	 	 	 	 	 	 	 	 	 	 	 	1581478639	7.62	14.11
12/02/2020 03:37:20	120220	12022020	033720	190.91	13.493898	-56.970060	191.13	-0.170	-0.710	1.930	190.91	-2.00	2.40	 	 	 	 	 	 	 	 	 	 	 	 	 	 	 	 	 	 	1581478640	8.22	15.22
12/02/2020 03:37:21	120220	12022020	033721	190.85	13.493858	-56.970070	191.03	0.270	-1.320	2.040	190.85	-2.70	2.50	 	 	 	 	 	 	 	 	 	 	 	 	 	 	 	 	 	 	1581478641	8.59	15.91
12/02/2020 03:37:22	120220	12022020	033722	190.60	13.493820	-56.970080	190.68	0.490	-1.380	2.310	190.53	-2.80	2.80	 	 	 	 	 	 	 	 	 	 	 	 	 	 	 	 	 	 	1581478642	8.71	16.13
12/02/2020 03:37:23	120220	12022020	033723	190.08	13.493785	-56.970090	190.26	0.290	-0.810	2.500	190.08	-2.20	3.00	 	 	 	 	 	 	 	 	 	 	 	 	 	 	 	 	 	 	1581478643	8.44	15.63
12/02/2020 03:37:24	120220	12022020	033724	189.80	13.493750	-56.970098	190.02	-0.110	0.040	2.340	189.77	-1.40	2.80	 	 	 	 	 	 	 	 	 	 	 	 	 	 	 	 	 	 	1581478644	7.98	14.78
12/02/2020 03:37:25	120220	12022020	033725	189.72	13.493713	-56.970105	189.94	-0.360	0.480	2.060	189.72	-0.90	2.50	 	 	 	 	 	 	 	 	 	 	 	 	 	 	 	 	 	 	1581478645	7.67	14.20
12/02/2020 03:37:26	120220	12022020	033726	189.81	13.493675	-56.970113	190.07	-0.370	0.320	1.810	189.86	-1.00	2.30	 	 	 	 	 	 	 	 	 	 	 	 	 	 	 	 	 	 	1581478646	7.93	14.69
12/02/2020 03:37:27	120220	12022020	033727	190.11	13.493635	-56.970123	190.40	-0.360	0.040	1.640	190.20	-1.30	2.10	 	 	 	 	 	 	 	 	 	 	 	 	 	 	 	 	 	 	1581478647	8.59	15.91
12/02/2020 03:37:28	120220	12022020	033728	190.53	13.493598	-56.970133	190.82	-0.390	-0.070	1.720	190.60	-1.50	2.20	 	 	 	 	 	 	 	 	 	 	 	 	 	 	 	 	 	 	1581478648	8.74	16.19
12/02/2020 03:37:29	120220	12022020	033729	190.83	13.493562	-56.970145	191.11	-0.290	-0.130	2.010	190.85	-1.50	2.40	 	 	 	 	 	 	 	 	 	 	 	 	 	 	 	 	 	 	1581478649	8.42	15.59
12/02/2020 03:37:30	120220	12022020	033730	190.83	13.493523	-56.970157	191.08	0.060	-0.310	2.180	190.81	-1.70	2.60	 	 	 	 	 	 	 	 	 	 	 	 	 	 	 	 	 	 	1581478650	8.20	15.19
12/02/2020 03:37:31	120220	12022020	033731	190.73	13.493485	-56.970163	191.01	0.420	-0.510	2.040	190.73	-1.90	2.50	 	 	 	 	 	 	 	 	 	 	 	 	 	 	 	 	 	 	1581478651	8.30	15.37
12/02/2020 03:37:32	120220	12022020	033732	190.79	13.493448	-56.970168	191.09	0.460	-0.420	1.810	190.79	-1.80	2.30	 	 	 	 	 	 	 	 	 	 	 	 	 	 	 	 	 	 	1581478652	8.42	15.59
12/02/2020 03:37:33	120220	12022020	033733	190.82	13.493412	-56.970177	191.09	0.180	-0.200	1.770	190.82	-1.60	2.20	 	 	 	 	 	 	 	 	 	 	 	 	 	 	 	 	 	 	1581478653	8.16	15.11
12/02/2020 03:37:34	120220	12022020	033734	190.65	13.493375	-56.970187	190.89	-0.100	-0.100	1.940	190.65	-1.50	2.40	 	 	 	 	 	 	 	 	 	 	 	 	 	 	 	 	 	 	1581478654	7.91	14.65
12/02/2020 03:37:35	120220	12022020	033735	190.38	13.493338	-56.970197	190.63	-0.050	-0.190	2.040	190.33	-1.60	2.50	 	 	 	 	 	 	 	 	 	 	 	 	 	 	 	 	 	 	1581478655	8.03	14.87
12/02/2020 03:37:36	120220	12022020	033736	190.18	13.493300	-56.970203	190.45	0.210	-0.360	1.990	190.18	-1.70	2.50	 	 	 	 	 	 	 	 	 	 	 	 	 	 	 	 	 	 	1581478656	8.35	15.46
12/02/2020 03:37:37	120220	12022020	033737	190.05	13.493260	-56.970212	190.33	0.290	-0.560	2.150	190.03	-1.90	2.60	 	 	 	 	 	 	 	 	 	 	 	 	 	 	 	 	 	 	1581478657	8.49	15.72
12/02/2020 03:37:38	120220	12022020	033738	189.86	13.493223	-56.970223	190.12	-0.020	-0.610	2.700	189.81	-2.00	3.10	 	 	 	 	 	 	 	 	 	 	 	 	 	 	 	 	 	 	1581478658	8.54	15.82
12/02/2020 03:37:39	120220	12022020	033739	189.55	13.493187	-56.970238	189.81	-0.480	-0.460	3.360	189.49	-1.80	3.80	 	 	 	 	 	 	 	 	 	 	 	 	 	 	 	 	 	 	1581478659	8.50	15.74
12/02/2020 03:37:40	120220	12022020	033740	189.27	13.493150	-56.970255	189.53	-0.620	-0.150	3.700	189.27	-1.60	4.10	 	 	 	 	 	 	 	 	 	 	 	 	 	 	 	 	 	 	1581478660	8.43	15.61
12/02/2020 03:37:41	120220	12022020	033741	189.27	13.493115	-56.970265	189.57	-0.300	0.220	3.340	189.32	-1.20	3.80	 	 	 	 	 	 	 	 	 	 	 	 	 	 	 	 	 	 	1581478661	8.36	15.48
12/02/2020 03:37:42	120220	12022020	033742	189.66	13.493078	-56.970272	189.98	0.190	0.490	2.450	189.66	-0.90	3.00	 	 	 	 	 	 	 	 	 	 	 	 	 	 	 	 	 	 	1581478662	8.09	14.98
12/02/2020 03:37:43	120220	12022020	033743	190.18	13.493040	-56.970273	190.49	0.540	0.230	1.390	190.18	-1.10	1.90	 	 	 	 	 	 	 	 	 	 	 	 	 	 	 	 	 	 	1581478663	7.90	14.63
12/02/2020 03:37:44	120220	12022020	033744	190.60	13.493000	-56.970275	190.88	0.570	-0.450	0.700	190.60	-1.80	1.20	 	 	 	 	 	 	 	 	 	 	 	 	 	 	 	 	 	 	1581478664	8.26	15.30
12/02/2020 03:37:45	120220	12022020	033745	190.84	13.492960	-56.970282	191.07	0.310	-1.080	0.880	190.84	-2.40	1.30	 	 	 	 	 	 	 	 	 	 	 	 	 	 	 	 	 	 	1581478665	8.74	16.19
12/02/2020 03:37:46	120220	12022020	033746	190.82	13.492922	-56.970292	190.97	0.050	-1.300	1.610	190.78	-2.70	2.00	 	 	 	 	 	 	 	 	 	 	 	 	 	 	 	 	 	 	1581478666	8.72	16.15
12/02/2020 03:37:47	120220	12022020	033747	190.38	13.492883	-56.970303	190.53	-0.030	-1.120	2.470	190.38	-2.50	2.90	 	 	 	 	 	 	 	 	 	 	 	 	 	 	 	 	 	 	1581478667	8.50	15.74
12/02/2020 03:37:48	120220	12022020	033748	189.89	13.492847	-56.970313	189.92	-0.040	-0.630	3.240	189.75	-2.00	3.70	 	 	 	 	 	 	 	 	 	 	 	 	 	 	 	 	 	 	1581478668	8.37	15.50
12/02/2020 03:37:49	120220	12022020	033749	189.16	13.492810	-56.970325	189.35	-0.260	0.000	3.740	189.16	-1.40	4.20	 	 	 	 	 	 	 	 	 	 	 	 	 	 	 	 	 	 	1581478669	8.31	15.39
12/02/2020 03:37:50	120220	12022020	033750	188.83	13.492773	-56.970335	189.05	-0.610	0.530	3.620	188.83	-0.90	4.10	 	 	 	 	 	 	 	 	 	 	 	 	 	 	 	 	 	 	1581478670	8.24	15.26
12/02/2020 03:37:51	120220	12022020	033751	188.73	13.492735	-56.970347	188.95	-0.820	0.750	3.160	188.73	-0.60	3.60	 	 	 	 	 	 	 	 	 	 	 	 	 	 	 	 	 	 	1581478671	8.23	15.24
12/02/2020 03:37:52	120220	12022020	033752	188.92	13.492698	-56.970357	189.19	-0.640	0.720	2.400	188.92	-0.60	2.90	 	 	 	 	 	 	 	 	 	 	 	 	 	 	 	 	 	 	1581478672	8.38	15.52
12/02/2020 03:37:53	120220	12022020	033753	189.57	13.492660	-56.970362	189.89	-0.150	0.540	1.310	189.57	-0.80	1.80	 	 	 	 	 	 	 	 	 	 	 	 	 	 	 	 	 	 	1581478673	8.44	15.63
12/02/2020 03:37:54	120220	12022020	033754	190.41	13.492622	-56.970367	190.71	0.400	0.020	0.410	190.41	-1.30	0.90	 	 	 	 	 	 	 	 	 	 	 	 	 	 	 	 	 	 	1581478674	8.23	15.24
12/02/2020 03:37:55	120220	12022020	033755	190.93	13.492582	-56.970372	191.14	0.830	-0.740	0.080	190.93	-2.10	0.50	 	 	 	 	 	 	 	 	 	 	 	 	 	 	 	 	 	 	1581478675	8.29	15.35
12/02/2020 03:37:56	120220	12022020	033756	190.96	13.492543	-56.970378	191.11	1.040	-1.260	0.340	190.96	-2.60	0.80	 	 	 	 	 	 	 	 	 	 	 	 	 	 	 	 	 	 	1581478676	8.51	15.76
12/02/2020 03:37:57	120220	12022020	033757	190.80	13.492507	-56.970385	190.96	0.860	-1.170	0.900	190.80	-2.50	1.30	 	 	 	 	 	 	 	 	 	 	 	 	 	 	 	 	 	 	1581478677	8.45	15.65
12/02/2020 03:37:58	120220	12022020	033758	190.74	13.492472	-56.970393	190.95	0.260	-0.680	1.490	190.74	-2.10	1.90	 	 	 	 	 	 	 	 	 	 	 	 	 	 	 	 	 	 	1581478678	8.04	14.89
12/02/2020 03:37:59	120220	12022020	033759	190.70	13.492437	-56.970405	190.92	-0.500	-0.430	2.150	190.70	-1.80	2.60	 	 	 	 	 	 	 	 	 	 	 	 	 	 	 	 	 	 	1581478679	7.65	14.17
12/02/2020 03:38:00	120220	12022020	033800	190.44	13.492398	-56.970420	190.64	-0.980	-0.700	2.890	190.44	-2.00	3.30	 	 	 	 	 	 	 	 	 	 	 	 	 	 	 	 	 	 	1581478680	7.99	14.80
12/02/2020 03:38:01	120220	12022020	033801	189.85	13.492357	-56.970437	190.03	-0.840	-1.030	3.550	189.85	-2.40	4.00	1017.00	26.00	26.10	21.00	21.10	-1.0	73.0	74.0	401.0	25.7	255.00	10.50	66.00	12.30	16	8770.0	27.3	27.2	1581478681	8.89	16.46
12/02/2020 03:38:02	120220	12022020	033802	189.27	13.492317	-56.970450	189.51	-0.280	-0.660	3.650	189.27	-2.10	4.10	 	 	 	 	 	 	 	 	 	 	 	 	 	 	 	 	 	 	1581478682	9.50	17.59
12/02/2020 03:38:03	120220	12022020	033803	189.17	13.492280	-56.970455	189.48	0.110	0.370	3.020	189.17	-1.10	3.50	 	 	 	 	 	 	 	 	 	 	 	 	 	 	 	 	 	 	1581478683	8.98	16.63
12/02/2020 03:38:04	120220	12022020	033804	189.62	13.492245	-56.970458	189.97	-0.040	1.280	2.010	189.62	-0.10	2.50	 	 	 	 	 	 	 	 	 	 	 	 	 	 	 	 	 	 	1581478684	8.07	14.95
12/02/2020 03:38:05	120220	12022020	033805	190.33	13.492208	-56.970463	190.66	-0.460	1.430	1.360	190.33	0.10	1.90	 	 	 	 	 	 	 	 	 	 	 	 	 	 	 	 	 	 	1581478685	7.68	14.22
12/02/2020 03:38:06	120220	12022020	033806	190.75	13.492170	-56.970473	190.98	-0.510	0.700	1.340	190.75	-0.60	1.80	 	 	 	 	 	 	 	 	 	 	 	 	 	 	 	 	 	 	1581478686	7.86	14.56
12/02/2020 03:38:07	120220	12022020	033807	190.56	13.492130	-56.970485	190.75	0.080	-0.470	1.650	190.56	-1.80	2.10	 	 	 	 	 	 	 	 	 	 	 	 	 	 	 	 	 	 	1581478687	8.46	15.67
12/02/2020 03:38:08	120220	12022020	033808	190.26	13.492090	-56.970495	190.49	0.770	-1.090	1.850	190.26	-2.40	2.30	 	 	 	 	 	 	 	 	 	 	 	 	 	 	 	 	 	 	1581478688	9.06	16.78
12/02/2020 03:38:09	120220	12022020	033809	190.30	13.492055	-56.970502	190.59	1.030	-0.880	1.650	190.30	-2.30	2.10	 	 	 	 	 	 	 	 	 	 	 	 	 	 	 	 	 	 	1581478689	8.74	16.19
12/02/2020 03:38:10	120220	12022020	033810	190.56	13.492022	-56.970507	190.86	0.830	-0.470	1.200	190.56	-1.80	1.70	 	 	 	 	 	 	 	 	 	 	 	 	 	 	 	 	 	 	1581478690	7.76	14.37
12/02/2020 03:38:11	120220	12022020	033811	190.63	13.491985	-56.970512	190.87	0.500	-0.570	1.110	190.63	-1.90	1.60	 	 	 	 	 	 	 	 	 	 	 	 	 	 	 	 	 	 	1581478691	7.34	13.59
12/02/2020 03:38:12	120220	12022020	033812	190.58	13.491945	-56.970522	190.85	0.160	-0.960	1.440	190.58	-2.30	1.90	 	 	 	 	 	 	 	 	 	 	 	 	 	 	 	 	 	 	1581478692	7.97	14.76
12/02/2020 03:38:13	120220	12022020	033813	190.67	13.491907	-56.970532	190.95	-0.260	-1.120	2.040	190.67	-2.50	2.50	 	 	 	 	 	 	 	 	 	 	 	 	 	 	 	 	 	 	1581478693	8.62	15.96
12/02/2020 03:38:14	120220	12022020	033814	190.63	13.491868	-56.970547	190.87	-0.680	-0.940	2.820	190.63	-2.30	3.20	 	 	 	 	 	 	 	 	 	 	 	 	 	 	 	 	 	 	1581478694	8.67	16.06
12/02/2020 03:38:15	120220	12022020	033815	190.26	13.491832	-56.970562	190.50	-0.900	-0.640	3.510	190.26	-2.00	3.90	 	 	 	 	 	 	 	 	 	 	 	 	 	 	 	 	 	 	1581478695	8.56	15.85
12/02/2020 03:38:16	120220	12022020	033816	189.89	13.491793	-56.970577	190.16	-0.870	-0.240	3.750	189.89	-1.60	4.20	 	 	 	 	 	 	 	 	 	 	 	 	 	 	 	 	 	 	1581478696	8.70	16.11
12/02/2020 03:38:17	120220	12022020	033817	189.74	13.491755	-56.970587	190.01	-0.610	0.350	3.390	189.74	-1.00	3.90	 	 	 	 	 	 	 	 	 	 	 	 	 	 	 	 	 	 	1581478697	8.78	16.26
12/02/2020 03:38:18	120220	12022020	033818	189.75	13.491717	-56.970593	190.03	-0.200	0.830	2.560	189.75	-0.60	3.10	 	 	 	 	 	 	 	 	 	 	 	 	 	 	 	 	 	 	1581478698	8.50	15.74
12/02/2020 03:38:19	120220	12022020	033819	190.00	13.491678	-56.970597	190.31	0.220	1.060	1.560	190.00	-0.30	2.10	 	 	 	 	 	 	 	 	 	 	 	 	 	 	 	 	 	 	1581478699	8.33	15.43
12/02/2020 03:38:20	120220	12022020	033820	190.54	13.491640	-56.970600	190.87	0.550	1.060	0.650	190.54	-0.30	1.20	 	 	 	 	 	 	 	 	 	 	 	 	 	 	 	 	 	 	1581478700	8.35	15.46
12/02/2020 03:38:21	120220	12022020	033821	191.14	13.491603	-56.970603	191.43	0.730	0.650	0.160	191.14	-0.70	0.70	 	 	 	 	 	 	 	 	 	 	 	 	 	 	 	 	 	 	1581478701	8.17	15.13
12/02/2020 03:38:22	120220	12022020	033822	191.52	13.491563	-56.970610	191.76	0.800	-0.280	0.330	191.52	-1.60	0.80	 	 	 	 	 	 	 	 	 	 	 	 	 	 	 	 	 	 	1581478702	8.14	15.08
12/02/2020 03:38:23	120220	12022020	033823	191.61	13.491525	-56.970620	191.83	0.670	-1.220	1.160	191.61	-2.50	1.60	 	 	 	 	 	 	 	 	 	 	 	 	 	 	 	 	 	 	1581478703	8.45	15.65
12/02/2020 03:38:24	120220	12022020	033824	191.40	13.491490	-56.970633	191.59	0.320	-1.680	2.390	191.40	-3.00	2.80	 	 	 	 	 	 	 	 	 	 	 	 	 	 	 	 	 	 	1581478704	8.54	15.82
12/02/2020 03:38:25	120220	12022020	033825	190.75	13.491455	-56.970650	190.87	-0.120	-1.830	3.630	190.75	-3.20	4.00	 	 	 	 	 	 	 	 	 	 	 	 	 	 	 	 	 	 	1581478705	8.26	15.30
12/02/2020 03:38:26	120220	12022020	033826	189.78	13.491417	-56.970667	189.90	-0.420	-1.840	4.490	189.78	-3.20	4.90	 	 	 	 	 	 	 	 	 	 	 	 	 	 	 	 	 	 	1581478706	8.30	15.37
12/02/2020 03:38:27	120220	12022020	033827	188.88	13.491378	-56.970682	189.05	-0.380	-1.520	4.700	188.88	-2.90	5.20	 	 	 	 	 	 	 	 	 	 	 	 	 	 	 	 	 	 	1581478707	8.75	16.21
12/02/2020 03:38:28	120220	12022020	033828	188.49	13.491340	-56.970692	188.74	-0.140	-0.700	4.140	188.49	-2.00	4.60	 	 	 	 	 	 	 	 	 	 	 	 	 	 	 	 	 	 	1581478708	8.94	16.56
12/02/2020 03:38:29	120220	12022020	033829	188.84	13.491303	-56.970695	189.18	0.060	0.730	2.590	188.84	-0.70	3.20	 	 	 	 	 	 	 	 	 	 	 	 	 	 	 	 	 	 	1581478709	8.54	15.82
12/02/2020 03:38:30	120220	12022020	033830	189.83	13.491267	-56.970695	190.21	-0.110	1.680	1.180	189.83	0.30	1.70	 	 	 	 	 	 	 	 	 	 	 	 	 	 	 	 	 	 	1581478710	7.98	14.78
12/02/2020 03:38:31	120220	12022020	033831	191.03	13.491228	-56.970698	191.37	-0.550	1.710	0.400	191.03	0.40	0.90	 	 	 	 	 	 	 	 	 	 	 	 	 	 	 	 	 	 	1581478711	7.88	14.59
12/02/2020 03:38:32	120220	12022020	033832	191.83	13.491190	-56.970707	192.06	-0.800	0.780	0.380	191.83	-0.50	0.80	 	 	 	 	 	 	 	 	 	 	 	 	 	 	 	 	 	 	1581478712	8.14	15.08
12/02/2020 03:38:33	120220	12022020	033833	191.86	13.491148	-56.970720	192.01	-0.500	-0.540	1.060	191.86	-1.80	1.50	 	 	 	 	 	 	 	 	 	 	 	 	 	 	 	 	 	 	1581478713	8.67	16.06
12/02/2020 03:38:34	120220	12022020	033834	191.49	13.491110	-56.970733	191.63	0.240	-1.270	1.800	191.49	-2.60	2.20	 	 	 	 	 	 	 	 	 	 	 	 	 	 	 	 	 	 	1581478714	9.17	16.98
12/02/2020 03:38:35	120220	12022020	033835	191.03	13.491073	-56.970743	191.19	0.840	-1.180	2.330	191.03	-2.60	2.80	 	 	 	 	 	 	 	 	 	 	 	 	 	 	 	 	 	 	1581478715	8.81	16.32
12/02/2020 03:38:36	120220	12022020	033836	190.61	13.491038	-56.970752	190.65	0.890	-0.770	2.800	190.50	-2.20	3.20	 	 	 	 	 	 	 	 	 	 	 	 	 	 	 	 	 	 	1581478716	7.99	14.80
12/02/2020 03:38:37	120220	12022020	033837	189.82	13.491003	-56.970762	189.95	0.540	-0.530	3.130	189.82	-1.90	3.60	 	 	 	 	 	 	 	 	 	 	 	 	 	 	 	 	 	 	1581478717	7.65	14.17
12/02/2020 03:38:38	120220	12022020	033838	189.22	13.490965	-56.970772	189.30	0.190	-0.450	3.160	189.10	-1.80	3.60	 	 	 	 	 	 	 	 	 	 	 	 	 	 	 	 	 	 	1581478718	7.95	14.72
12/02/2020 03:38:39	120220	12022020	033839	188.90	13.490928	-56.970782	189.21	0.010	-0.020	2.690	188.90	-1.40	3.20	 	 	 	 	 	 	 	 	 	 	 	 	 	 	 	 	 	 	1581478719	8.44	15.63
12/02/2020 03:38:40	120220	12022020	033840	189.51	13.490893	-56.970787	189.88	-0.200	0.590	1.710	189.51	-0.80	2.20	 	 	 	 	 	 	 	 	 	 	 	 	 	 	 	 	 	 	1581478720	8.19	15.17
12/02/2020 03:38:41	120220	12022020	033841	190.42	13.490858	-56.970793	190.76	-0.450	0.580	0.850	190.42	-0.80	1.40	 	 	 	 	 	 	 	 	 	 	 	 	 	 	 	 	 	 	1581478721	7.60	14.08
12/02/2020 03:38:42	120220	12022020	033842	191.03	13.490818	-56.970803	191.29	-0.510	-0.230	0.700	191.03	-1.50	1.20	 	 	 	 	 	 	 	 	 	 	 	 	 	 	 	 	 	 	1581478722	7.80	14.45
12/02/2020 03:38:43	120220	12022020	033843	191.05	13.490778	-56.970815	191.24	-0.180	-1.250	1.180	191.05	-2.60	1.60	 	 	 	 	 	 	 	 	 	 	 	 	 	 	 	 	 	 	1581478723	8.59	15.91
12/02/2020 03:38:44	120220	12022020	033844	190.80	13.490738	-56.970825	191.00	0.260	-1.650	1.760	190.80	-3.00	2.20	 	 	 	 	 	 	 	 	 	 	 	 	 	 	 	 	 	 	1581478724	9.13	16.91
12/02/2020 03:38:45	120220	12022020	033845	190.63	13.490702	-56.970835	190.86	0.340	-1.170	2.290	190.63	-2.60	2.70	 	 	 	 	 	 	 	 	 	 	 	 	 	 	 	 	 	 	1581478725	8.93	16.54
12/02/2020 03:38:46	120220	12022020	033846	190.49	13.490667	-56.970845	190.72	0.020	-0.290	2.640	190.49	-1.70	3.10	 	 	 	 	 	 	 	 	 	 	 	 	 	 	 	 	 	 	1581478726	8.21	15.20
12/02/2020 03:38:47	120220	12022020	033847	190.26	13.490630	-56.970855	190.49	-0.350	0.470	2.760	190.26	-0.90	3.20	 	 	 	 	 	 	 	 	 	 	 	 	 	 	 	 	 	 	1581478727	7.80	14.45
12/02/2020 03:38:48	120220	12022020	033848	190.08	13.490593	-56.970863	190.30	-0.480	0.920	2.610	190.08	-0.50	3.10	 	 	 	 	 	 	 	 	 	 	 	 	 	 	 	 	 	 	1581478728	7.94	14.70
12/02/2020 03:38:49	120220	12022020	033849	189.96	13.490555	-56.970872	190.20	-0.350	1.060	2.420	189.96	-0.30	2.90	 	 	 	 	 	 	 	 	 	 	 	 	 	 	 	 	 	 	1581478729	8.18	15.15
12/02/2020 03:38:50	120220	12022020	033850	189.99	13.490518	-56.970880	190.26	-0.060	0.870	2.070	189.99	-0.50	2.60	 	 	 	 	 	 	 	 	 	 	 	 	 	 	 	 	 	 	1581478730	8.29	15.35
12/02/2020 03:38:51	120220	12022020	033851	190.26	13.490480	-56.970888	190.54	0.160	0.340	1.650	190.26	-1.00	2.10	 	 	 	 	 	 	 	 	 	 	 	 	 	 	 	 	 	 	1581478731	8.32	15.41
12/02/2020 03:38:52	120220	12022020	033852	190.54	13.490442	-56.970897	190.82	0.370	-0.380	1.390	190.54	-1.70	1.90	 	 	 	 	 	 	 	 	 	 	 	 	 	 	 	 	 	 	1581478732	8.31	15.39
12/02/2020 03:38:53	120220	12022020	033853	190.67	13.490405	-56.970905	190.91	0.710	-1.020	1.250	190.67	-2.30	1.70	 	 	 	 	 	 	 	 	 	 	 	 	 	 	 	 	 	 	1581478733	8.31	15.39
12/02/2020 03:38:54	120220	12022020	033854	190.65	13.490368	-56.970912	190.89	0.960	-1.400	1.240	190.65	-2.70	1.70	 	 	 	 	 	 	 	 	 	 	 	 	 	 	 	 	 	 	1581478734	8.22	15.22
12/02/2020 03:38:55	120220	12022020	033855	190.58	13.490332	-56.970918	190.80	0.740	-1.470	1.540	190.58	-2.80	2.00	 	 	 	 	 	 	 	 	 	 	 	 	 	 	 	 	 	 	1581478735	8.15	15.09
12/02/2020 03:38:56	120220	12022020	033856	190.34	13.490295	-56.970930	190.54	0.070	-1.380	2.220	190.34	-2.80	2.60	 	 	 	 	 	 	 	 	 	 	 	 	 	 	 	 	 	 	1581478736	8.03	14.87
12/02/2020 03:38:57	120220	12022020	033857	189.95	13.490257	-56.970943	190.16	-0.650	-1.100	2.960	189.95	-2.50	3.40	 	 	 	 	 	 	 	 	 	 	 	 	 	 	 	 	 	 	1581478737	8.20	15.19
12/02/2020 03:38:58	120220	12022020	033858	189.64	13.490220	-56.970958	189.90	-1.100	-0.510	3.430	189.64	-1.90	3.90	 	 	 	 	 	 	 	 	 	 	 	 	 	 	 	 	 	 	1581478738	8.54	15.82
12/02/2020 03:38:59	120220	12022020	033859	189.62	13.490183	-56.970972	189.92	-1.110	0.210	3.310	189.62	-1.20	3.80	 	 	 	 	 	 	 	 	 	 	 	 	 	 	 	 	 	 	1581478739	8.60	15.93
12/02/2020 03:39:00	120220	12022020	033900	189.87	13.490145	-56.970982	190.19	-0.720	0.790	2.590	189.87	-0.60	3.10	 	 	 	 	 	 	 	 	 	 	 	 	 	 	 	 	 	 	1581478740	8.50	15.74
12/02/2020 03:39:01	120220	12022020	033901	190.28	13.490105	-56.970987	190.59	-0.140	1.050	1.510	190.28	-0.30	2.00	1017.00	26.00	26.00	20.80	20.90	-1.0	73.0	73.0	404.0	25.7	254.00	10.00	64.00	11.90	16	8338.0	27.2	27.2	1581478741	8.41	15.58
12/02/2020 03:39:02	120220	12022020	033902	190.72	13.490065	-56.970987	191.00	0.380	0.970	0.490	190.72	-0.40	1.00	 	 	 	 	 	 	 	 	 	 	 	 	 	 	 	 	 	 	1581478742	8.47	15.69
12/02/2020 03:39:03	120220	12022020	033903	191.08	13.490027	-56.970988	191.32	0.580	0.730	0.080	191.08	-0.60	0.60	 	 	 	 	 	 	 	 	 	 	 	 	 	 	 	 	 	 	1581478743	8.58	15.89
12/02/2020 03:39:04	120220	12022020	033904	191.24	13.489990	-56.970995	191.44	0.380	0.250	0.560	191.24	-1.10	1.00	 	 	 	 	 	 	 	 	 	 	 	 	 	 	 	 	 	 	1581478744	8.37	15.50
12/02/2020 03:39:05	120220	12022020	033905	191.13	13.489953	-56.971010	191.29	0.060	-0.570	1.590	191.13	-1.90	2.00	 	 	 	 	 	 	 	 	 	 	 	 	 	 	 	 	 	 	1581478745	8.12	15.04
12/02/2020 03:39:06	120220	12022020	033906	190.59	13.489915	-56.971027	190.72	0.100	-1.480	2.680	190.59	-2.80	3.10	 	 	 	 	 	 	 	 	 	 	 	 	 	 	 	 	 	 	1581478746	8.36	15.48
12/02/2020 03:39:07	120220	12022020	033907	189.82	13.489878	-56.971040	189.95	0.590	-1.920	3.330	189.82	-3.30	3.80	 	 	 	 	 	 	 	 	 	 	 	 	 	 	 	 	 	 	1581478747	8.81	16.32
12/02/2020 03:39:08	120220	12022020	033908	189.20	13.489842	-56.971048	189.38	0.940	-1.480	3.260	189.20	-2.90	3.70	 	 	 	 	 	 	 	 	 	 	 	 	 	 	 	 	 	 	1581478748	8.72	16.15
12/02/2020 03:39:09	120220	12022020	033909	189.05	13.489807	-56.971053	189.32	0.590	-0.520	2.690	189.05	-2.00	3.20	 	 	 	 	 	 	 	 	 	 	 	 	 	 	 	 	 	 	1581478749	8.03	14.87
12/02/2020 03:39:10	120220	12022020	033910	189.37	13.489772	-56.971058	189.63	-0.200	0.140	2.190	189.37	-1.20	2.60	 	 	 	 	 	 	 	 	 	 	 	 	 	 	 	 	 	 	1581478750	7.52	13.93
12/02/2020 03:39:11	120220	12022020	033911	189.82	13.489733	-56.971070	190.12	-1.020	0.280	1.970	189.82	-1.10	2.40	 	 	 	 	 	 	 	 	 	 	 	 	 	 	 	 	 	 	1581478751	7.64	14.15
12/02/2020 03:39:12	120220	12022020	033912	190.17	13.489695	-56.971083	190.47	-1.100	0.050	1.960	190.17	-1.30	2.40	 	 	 	 	 	 	 	 	 	 	 	 	 	 	 	 	 	 	1581478752	8.35	15.46
12/02/2020 03:39:13	120220	12022020	033913	190.50	13.489655	-56.971093	190.82	-0.630	0.030	1.720	190.50	-1.30	2.20	 	 	 	 	 	 	 	 	 	 	 	 	 	 	 	 	 	 	1581478753	8.89	16.46
12/02/2020 03:39:14	120220	12022020	033914	190.94	13.489618	-56.971100	191.37	-0.100	0.360	1.080	191.05	-1.00	1.60	 	 	 	 	 	 	 	 	 	 	 	 	 	 	 	 	 	 	1581478754	8.73	16.17
12/02/2020 03:39:15	120220	12022020	033915	191.55	13.489582	-56.971105	191.80	0.240	0.410	0.540	191.55	-1.00	1.00	 	 	 	 	 	 	 	 	 	 	 	 	 	 	 	 	 	 	1581478755	8.11	15.02
12/02/2020 03:39:16	120220	12022020	033916	191.50	13.489542	-56.971110	191.65	0.540	-0.270	0.630	191.50	-1.60	1.10	 	 	 	 	 	 	 	 	 	 	 	 	 	 	 	 	 	 	1581478756	7.99	14.80
12/02/2020 03:39:17	120220	12022020	033917	190.92	13.489500	-56.971118	191.04	0.830	-1.120	1.270	190.92	-2.40	1.70	 	 	 	 	 	 	 	 	 	 	 	 	 	 	 	 	 	 	1581478757	8.61	15.95
12/02/2020 03:39:18	120220	12022020	033918	190.25	13.489462	-56.971127	190.41	0.810	-1.130	2.030	190.25	-2.50	2.50	 	 	 	 	 	 	 	 	 	 	 	 	 	 	 	 	 	 	1581478758	9.14	16.93
12/02/2020 03:39:19	120220	12022020	033919	189.80	13.489427	-56.971137	190.01	0.270	-0.350	2.720	189.80	-1.80	3.10	 	 	 	 	 	 	 	 	 	 	 	 	 	 	 	 	 	 	1581478759	8.59	15.91
12/02/2020 03:39:20	120220	12022020	033920	189.56	13.489393	-56.971150	189.83	-0.530	0.310	3.240	189.56	-1.10	3.70	 	 	 	 	 	 	 	 	 	 	 	 	 	 	 	 	 	 	1581478760	7.72	14.30
12/02/2020 03:39:21	120220	12022020	033921	189.51	13.489357	-56.971165	189.81	-1.060	0.300	3.460	189.51	-1.00	3.90	 	 	 	 	 	 	 	 	 	 	 	 	 	 	 	 	 	 	1581478761	7.71	14.28
12/02/2020 03:39:22	120220	12022020	033922	189.68	13.489318	-56.971178	190.01	-1.000	-0.030	3.150	189.68	-1.40	3.60	 	 	 	 	 	 	 	 	 	 	 	 	 	 	 	 	 	 	1581478762	8.44	15.63
12/02/2020 03:39:23	120220	12022020	033923	190.10	13.489280	-56.971190	190.46	-0.470	-0.270	2.290	190.10	-1.60	2.80	 	 	 	 	 	 	 	 	 	 	 	 	 	 	 	 	 	 	1581478763	8.79	16.28
12/02/2020 03:39:24	120220	12022020	033924	190.65	13.489242	-56.971195	190.93	0.140	-0.400	1.320	190.65	-1.80	1.70	 	 	 	 	 	 	 	 	 	 	 	 	 	 	 	 	 	 	1581478764	8.58	15.89
12/02/2020 03:39:25	120220	12022020	033925	191.09	13.489203	-56.971198	191.37	0.700	-0.410	0.320	191.09	-1.80	0.80	 	 	 	 	 	 	 	 	 	 	 	 	 	 	 	 	 	 	1581478765	8.39	15.54
12/02/2020 03:39:26	120220	12022020	033926	191.37	13.489165	-56.971200	191.57	0.870	-0.320	-0.070	191.37	-1.70	0.40	 	 	 	 	 	 	 	 	 	 	 	 	 	 	 	 	 	 	1581478766	8.29	15.35
12/02/2020 03:39:27	120220	12022020	033927	191.41	13.489127	-56.971205	191.59	0.700	-0.270	0.030	191.41	-1.60	0.50	 	 	 	 	 	 	 	 	 	 	 	 	 	 	 	 	 	 	1581478767	8.17	15.13
12/02/2020 03:39:28	120220	12022020	033928	191.33	13.489090	-56.971212	191.47	0.310	-0.160	0.660	191.30	-1.50	1.10	 	 	 	 	 	 	 	 	 	 	 	 	 	 	 	 	 	 	1581478768	8.17	15.13
12/02/2020 03:39:29	120220	12022020	033929	191.08	13.489055	-56.971222	191.26	-0.050	0.020	1.470	191.08	-1.40	2.00	 	 	 	 	 	 	 	 	 	 	 	 	 	 	 	 	 	 	1581478769	8.12	15.04
12/02/2020 03:39:30	120220	12022020	033930	190.67	13.489017	-56.971235	190.87	-0.260	-0.060	2.320	190.67	-1.40	2.80	 	 	 	 	 	 	 	 	 	 	 	 	 	 	 	 	 	 	1581478770	7.97	14.76
12/02/2020 03:39:31	120220	12022020	033931	190.13	13.488978	-56.971248	190.34	-0.250	-0.560	3.050	190.13	-2.00	3.50	 	 	 	 	 	 	 	 	 	 	 	 	 	 	 	 	 	 	1581478771	8.29	15.35
12/02/2020 03:39:32	120220	12022020	033932	189.73	13.488938	-56.971262	189.90	-0.180	-0.950	3.420	189.66	-2.30	3.90	 	 	 	 	 	 	 	 	 	 	 	 	 	 	 	 	 	 	1581478772	8.96	16.59
12/02/2020 03:39:33	120220	12022020	033933	189.57	13.488900	-56.971273	189.83	-0.240	-0.730	3.130	189.57	-2.10	3.60	 	 	 	 	 	 	 	 	 	 	 	 	 	 	 	 	 	 	1581478773	9.09	16.83
12/02/2020 03:39:34	120220	12022020	033934	189.83	13.488865	-56.971282	190.10	-0.380	-0.110	2.290	189.83	-1.50	2.70	 	 	 	 	 	 	 	 	 	 	 	 	 	 	 	 	 	 	1581478774	8.43	15.61
12/02/2020 03:39:35	120220	12022020	033935	190.35	13.488828	-56.971287	190.60	-0.390	0.340	1.170	190.35	-1.00	1.60	 	 	 	 	 	 	 	 	 	 	 	 	 	 	 	 	 	 	1581478775	7.83	14.50
12/02/2020 03:39:36	120220	12022020	033936	190.87	13.488790	-56.971290	191.09	-0.170	0.190	0.310	190.87	-1.20	0.80	 	 	 	 	 	 	 	 	 	 	 	 	 	 	 	 	 	 	1581478776	7.83	14.50
12/02/2020 03:39:37	120220	12022020	033937	191.07	13.488748	-56.971297	191.27	0.180	-0.520	0.160	191.07	-1.90	0.60	 	 	 	 	 	 	 	 	 	 	 	 	 	 	 	 	 	 	1581478777	8.35	15.46
12/02/2020 03:39:38	120220	12022020	033938	190.98	13.488708	-56.971305	191.17	0.330	-0.930	0.420	190.98	-2.30	0.90	 	 	 	 	 	 	 	 	 	 	 	 	 	 	 	 	 	 	1581478778	8.93	16.54
12/02/2020 03:39:39	120220	12022020	033939	190.77	13.488672	-56.971313	190.95	0.260	-0.590	0.920	190.77	-2.00	1.40	 	 	 	 	 	 	 	 	 	 	 	 	 	 	 	 	 	 	1581478779	8.93	16.54
12/02/2020 03:39:40	120220	12022020	033940	190.69	13.488637	-56.971323	190.91	0.090	0.200	1.360	190.69	-1.10	1.80	 	 	 	 	 	 	 	 	 	 	 	 	 	 	 	 	 	 	1581478780	8.28	15.33
12/02/2020 03:39:41	120220	12022020	033941	190.84	13.488602	-56.971333	191.06	-0.050	0.830	1.740	190.84	-0.50	2.20	 	 	 	 	 	 	 	 	 	 	 	 	 	 	 	 	 	 	1581478781	7.62	14.11
12/02/2020 03:39:42	120220	12022020	033942	190.91	13.488565	-56.971343	191.14	-0.030	0.710	2.140	190.91	-0.70	2.60	 	 	 	 	 	 	 	 	 	 	 	 	 	 	 	 	 	 	1581478782	7.63	14.13
12/02/2020 03:39:43	120220	12022020	033943	190.82	13.488527	-56.971355	191.05	0.140	0.120	2.430	190.82	-1.30	2.90	 	 	 	 	 	 	 	 	 	 	 	 	 	 	 	 	 	 	1581478783	8.28	15.33
12/02/2020 03:39:44	120220	12022020	033944	190.60	13.488488	-56.971365	190.84	0.380	-0.470	2.400	190.60	-1.80	2.80	 	 	 	 	 	 	 	 	 	 	 	 	 	 	 	 	 	 	1581478784	8.71	16.13
12/02/2020 03:39:45	120220	12022020	033945	190.48	13.488448	-56.971372	190.72	0.580	-0.870	1.980	190.48	-2.20	2.40	 	 	 	 	 	 	 	 	 	 	 	 	 	 	 	 	 	 	1581478785	8.64	16.00
12/02/2020 03:39:46	120220	12022020	033946	190.39	13.488410	-56.971377	190.62	0.550	-1.170	1.680	190.39	-2.50	2.10	 	 	 	 	 	 	 	 	 	 	 	 	 	 	 	 	 	 	1581478786	8.43	15.61
12/02/2020 03:39:47	120220	12022020	033947	190.06	13.488372	-56.971387	190.26	0.170	-1.400	1.920	190.06	-2.80	2.40	 	 	 	 	 	 	 	 	 	 	 	 	 	 	 	 	 	 	1581478787	8.38	15.52
12/02/2020 03:39:48	120220	12022020	033948	189.71	13.488333	-56.971400	189.94	-0.460	-1.210	2.450	189.71	-2.50	2.90	 	 	 	 	 	 	 	 	 	 	 	 	 	 	 	 	 	 	1581478788	8.55	15.83
12/02/2020 03:39:49	120220	12022020	033949	189.83	13.488298	-56.971415	190.10	-1.030	-0.430	2.720	189.83	-1.80	3.20	 	 	 	 	 	 	 	 	 	 	 	 	 	 	 	 	 	 	1581478789	8.54	15.82
12/02/2020 03:39:50	120220	12022020	033950	190.28	13.488265	-56.971427	190.71	-1.130	0.440	2.390	190.42	-0.90	2.80	 	 	 	 	 	 	 	 	 	 	 	 	 	 	 	 	 	 	1581478790	8.11	15.02
12/02/2020 03:39:51	120220	12022020	033951	191.14	13.488227	-56.971435	191.40	-0.530	0.690	1.600	191.14	-0.70	2.00	 	 	 	 	 	 	 	 	 	 	 	 	 	 	 	 	 	 	1581478791	7.83	14.50
12/02/2020 03:39:52	120220	12022020	033952	191.55	13.488185	-56.971438	191.85	0.500	0.240	0.780	191.61	-1.20	1.20	 	 	 	 	 	 	 	 	 	 	 	 	 	 	 	 	 	 	1581478792	8.29	15.35
12/02/2020 03:39:53	120220	12022020	033953	191.71	13.488142	-56.971438	191.93	1.190	-0.300	0.500	191.71	-1.70	1.00	 	 	 	 	 	 	 	 	 	 	 	 	 	 	 	 	 	 	1581478793	9.15	16.95
12/02/2020 03:39:54	120220	12022020	033954	191.49	13.488102	-56.971443	191.71	0.990	-0.400	0.900	191.49	-1.80	1.40	 	 	 	 	 	 	 	 	 	 	 	 	 	 	 	 	 	 	1581478794	9.34	17.30
12/02/2020 03:39:55	120220	12022020	033955	191.14	13.488065	-56.971455	191.37	0.120	-0.030	1.780	191.14	-1.40	2.30	 	 	 	 	 	 	 	 	 	 	 	 	 	 	 	 	 	 	1581478795	8.70	16.11
12/02/2020 03:39:56	120220	12022020	033956	190.86	13.488030	-56.971470	191.10	-0.690	0.390	2.730	190.86	-1.00	3.20	 	 	 	 	 	 	 	 	 	 	 	 	 	 	 	 	 	 	1581478796	8.05	14.91
12/02/2020 03:39:57	120220	12022020	033957	190.82	13.487995	-56.971485	191.08	-0.910	0.330	3.250	190.82	-1.10	3.70	 	 	 	 	 	 	 	 	 	 	 	 	 	 	 	 	 	 	1581478797	8.00	14.82
12/02/2020 03:39:58	120220	12022020	033958	191.10	13.487957	-56.971500	191.37	-0.570	-0.190	3.160	191.10	-1.60	3.60	 	 	 	 	 	 	 	 	 	 	 	 	 	 	 	 	 	 	1581478798	8.45	15.65
12/02/2020 03:39:59	120220	12022020	033959	191.53	13.487918	-56.971512	191.81	0.010	-0.680	2.490	191.53	-2.10	2.90	 	 	 	 	 	 	 	 	 	 	 	 	 	 	 	 	 	 	1581478799	8.76	16.22
12/02/2020 03:40:00	120220	12022020	034000	191.88	13.487880	-56.971517	192.14	0.530	-0.990	1.380	191.88	-2.40	1.80	 	 	 	 	 	 	 	 	 	 	 	 	 	 	 	 	 	 	1581478800	8.59	15.91
12/02/2020 03:40:01	120220	12022020	034001	192.15	13.487842	-56.971520	192.39	0.730	-1.060	0.430	192.15	-2.40	0.90	1017.00	26.10	26.10	21.00	21.00	-1.0	73.0	73.0	408.0	25.7	255.00	9.40	64.00	11.30	16	9185.0	27.2	27.2	1581478801	8.42	15.59
12/02/2020 03:40:02	120220	12022020	034002	192.38	13.487803	-56.971525	192.60	0.530	-0.880	0.020	192.38	-2.20	0.50	 	 	 	 	 	 	 	 	 	 	 	 	 	 	 	 	 	 	1581478802	8.37	15.50
12/02/2020 03:40:03	120220	12022020	034003	192.30	13.487765	-56.971533	192.49	0.120	-0.640	0.230	192.30	-2.00	0.70	 	 	 	 	 	 	 	 	 	 	 	 	 	 	 	 	 	 	1581478803	8.22	15.22
12/02/2020 03:40:04	120220	12022020	034004	192.07	13.487727	-56.971545	192.29	-0.310	-0.270	0.900	192.07	-1.60	1.40	 	 	 	 	 	 	 	 	 	 	 	 	 	 	 	 	 	 	1581478804	8.33	15.43
12/02/2020 03:40:05	120220	12022020	034005	191.97	13.487690	-56.971558	192.22	-0.660	0.210	1.690	191.97	-1.10	2.20	 	 	 	 	 	 	 	 	 	 	 	 	 	 	 	 	 	 	1581478805	8.45	15.65
12/02/2020 03:40:06	120220	12022020	034006	191.81	13.487653	-56.971573	192.07	-0.700	0.420	2.350	191.81	-0.90	2.80	 	 	 	 	 	 	 	 	 	 	 	 	 	 	 	 	 	 	1581478806	8.41	15.58
12/02/2020 03:40:07	120220	12022020	034007	191.54	13.487613	-56.971587	191.83	-0.310	0.230	2.610	191.54	-1.10	3.00	 	 	 	 	 	 	 	 	 	 	 	 	 	 	 	 	 	 	1581478807	8.67	16.06
12/02/2020 03:40:08	120220	12022020	034008	191.57	13.487573	-56.971595	191.86	0.230	0.160	2.210	191.57	-1.20	2.60	 	 	 	 	 	 	 	 	 	 	 	 	 	 	 	 	 	 	1581478808	9.06	16.78
12/02/2020 03:40:09	120220	12022020	034009	191.98	13.487535	-56.971600	192.28	0.450	0.360	1.580	191.98	-1.00	2.00	 	 	 	 	 	 	 	 	 	 	 	 	 	 	 	 	 	 	1581478809	8.82	16.33
12/02/2020 03:40:10	120220	12022020	034010	192.55	13.487500	-56.971607	192.83	0.220	0.410	1.180	192.55	-1.00	1.60	 	 	 	 	 	 	 	 	 	 	 	 	 	 	 	 	 	 	1581478810	8.16	15.11
12/02/2020 03:40:11	120220	12022020	034011	192.83	13.487463	-56.971617	193.08	-0.140	-0.150	1.250	192.83	-1.50	1.70	 	 	 	 	 	 	 	 	 	 	 	 	 	 	 	 	 	 	1581478811	7.82	14.48
12/02/2020 03:40:12	120220	12022020	034012	192.49	13.487423	-56.971630	192.73	-0.190	-1.260	1.860	192.49	-2.70	2.30	 	 	 	 	 	 	 	 	 	 	 	 	 	 	 	 	 	 	1581478812	8.20	15.19
12/02/2020 03:40:13	120220	12022020	034013	191.91	13.487383	-56.971645	192.17	0.010	-2.020	2.620	191.91	-3.40	3.10	 	 	 	 	 	 	 	 	 	 	 	 	 	 	 	 	 	 	1581478813	9.07	16.80
12/02/2020 03:40:14	120220	12022020	034014	191.44	13.487347	-56.971660	191.72	0.120	-1.650	3.060	191.44	-3.00	3.50	 	 	 	 	 	 	 	 	 	 	 	 	 	 	 	 	 	 	1581478814	9.23	17.09
12/02/2020 03:40:15	120220	12022020	034015	191.23	13.487312	-56.971670	191.53	-0.000	-0.440	2.950	191.23	-1.70	3.40	 	 	 	 	 	 	 	 	 	 	 	 	 	 	 	 	 	 	1581478815	8.41	15.58
12/02/2020 03:40:16	120220	12022020	034016	191.32	13.487278	-56.971678	191.64	-0.200	0.660	2.320	191.36	-0.70	2.70	 	 	 	 	 	 	 	 	 	 	 	 	 	 	 	 	 	 	1581478816	7.60	14.08
12/02/2020 03:40:17	120220	12022020	034017	191.54	13.487240	-56.971685	191.79	-0.180	0.940	1.700	191.54	-0.40	2.10	 	 	 	 	 	 	 	 	 	 	 	 	 	 	 	 	 	 	1581478817	7.58	14.04
12/02/2020 03:40:18	120220	12022020	034018	191.57	13.487198	-56.971692	191.81	0.220	0.510	1.250	191.57	-0.90	1.70	 	 	 	 	 	 	 	 	 	 	 	 	 	 	 	 	 	 	1581478818	8.31	15.39
12/02/2020 03:40:19	120220	12022020	034019	191.65	13.487157	-56.971697	191.88	0.570	0.060	0.940	191.65	-1.30	1.40	 	 	 	 	 	 	 	 	 	 	 	 	 	 	 	 	 	 	1581478819	9.04	16.74
12/02/2020 03:40:20	120220	12022020	034020	191.90	13.487118	-56.971705	192.17	0.420	-0.080	1.170	191.90	-1.50	1.60	 	 	 	 	 	 	 	 	 	 	 	 	 	 	 	 	 	 	1581478820	9.02	16.71
12/02/2020 03:40:21	120220	12022020	034021	192.37	13.487083	-56.971718	192.66	-0.150	-0.090	1.800	192.37	-1.50	2.30	 	 	 	 	 	 	 	 	 	 	 	 	 	 	 	 	 	 	1581478821	8.42	15.59
12/02/2020 03:40:22	120220	12022020	034022	192.94	13.487048	-56.971735	193.24	-0.670	-0.240	2.400	192.94	-1.60	2.90	 	 	 	 	 	 	 	 	 	 	 	 	 	 	 	 	 	 	1581478822	8.06	14.93
12/02/2020 03:40:23	120220	12022020	034023	193.34	13.487013	-56.971752	193.62	-0.610	-0.730	2.760	193.34	-2.10	3.20	 	 	 	 	 	 	 	 	 	 	 	 	 	 	 	 	 	 	1581478823	8.16	15.11
12/02/2020 03:40:24	120220	12022020	034024	193.27	13.486973	-56.971765	193.51	0.090	-1.350	2.750	193.27	-2.70	3.20	 	 	 	 	 	 	 	 	 	 	 	 	 	 	 	 	 	 	1581478824	8.55	15.83
12/02/2020 03:40:25	120220	12022020	034025	192.68	13.486933	-56.971773	192.89	0.840	-1.650	2.490	192.68	-3.00	2.90	 	 	 	 	 	 	 	 	 	 	 	 	 	 	 	 	 	 	1581478825	8.82	16.33
12/02/2020 03:40:26	120220	12022020	034026	192.02	13.486893	-56.971778	192.25	0.920	-1.120	2.090	192.02	-2.40	2.50	 	 	 	 	 	 	 	 	 	 	 	 	 	 	 	 	 	 	1581478826	8.94	16.56
12/02/2020 03:40:27	120220	12022020	034027	191.77	13.486858	-56.971783	192.03	0.210	0.070	1.650	191.77	-1.20	2.10	 	 	 	 	 	 	 	 	 	 	 	 	 	 	 	 	 	 	1581478827	8.44	15.63
12/02/2020 03:40:28	120220	12022020	034028	191.82	13.486823	-56.971792	192.06	-0.740	1.020	1.380	191.82	-0.30	1.80	 	 	 	 	 	 	 	 	 	 	 	 	 	 	 	 	 	 	1581478828	7.71	14.28
12/02/2020 03:40:29	120220	12022020	034029	191.81	13.486785	-56.971807	192.05	-1.160	0.980	1.570	191.81	-0.40	2.00	 	 	 	 	 	 	 	 	 	 	 	 	 	 	 	 	 	 	1581478829	7.72	14.30
12/02/2020 03:40:30	120220	12022020	034030	191.81	13.486745	-56.971823	192.07	-0.750	0.300	1.800	191.81	-1.10	2.30	 	 	 	 	 	 	 	 	 	 	 	 	 	 	 	 	 	 	1581478830	8.75	16.21
12/02/2020 03:40:31	120220	12022020	034031	192.20	13.486705	-56.971835	192.48	0.030	-0.080	1.620	192.20	-1.40	2.10	 	 	 	 	 	 	 	 	 	 	 	 	 	 	 	 	 	 	1581478831	9.50	17.59
12/02/2020 03:40:32	120220	12022020	034032	192.92	13.486668	-56.971843	193.20	0.550	-0.030	1.170	192.92	-1.40	1.60	 	 	 	 	 	 	 	 	 	 	 	 	 	 	 	 	 	 	1581478832	8.99	16.65
12/02/2020 03:40:33	120220	12022020	034033	193.60	13.486632	-56.971852	193.86	0.620	-0.070	0.830	193.60	-1.40	1.30	 	 	 	 	 	 	 	 	 	 	 	 	 	 	 	 	 	 	1581478833	8.13	15.06
12/02/2020 03:40:34	120220	12022020	034034	193.98	13.486595	-56.971860	194.22	0.430	-0.390	0.900	193.98	-1.80	1.40	 	 	 	 	 	 	 	 	 	 	 	 	 	 	 	 	 	 	1581478834	7.92	14.67
12/02/2020 03:40:35	120220	12022020	034035	193.97	13.486558	-56.971873	194.19	0.230	-0.800	1.500	193.97	-2.20	2.00	 	 	 	 	 	 	 	 	 	 	 	 	 	 	 	 	 	 	1581478835	8.10	15.00
12/02/2020 03:40:36	120220	12022020	034036	193.45	13.486522	-56.971888	193.66	0.140	-1.200	2.390	193.45	-2.60	2.90	 	 	 	 	 	 	 	 	 	 	 	 	 	 	 	 	 	 	1581478836	8.31	15.39
12/02/2020 03:40:37	120220	12022020	034037	192.59	13.486483	-56.971903	192.79	0.090	-1.290	3.130	192.59	-2.60	3.60	 	 	 	 	 	 	 	 	 	 	 	 	 	 	 	 	 	 	1581478837	8.59	15.91
12/02/2020 03:40:38	120220	12022020	034038	191.81	13.486447	-56.971917	192.05	-0.090	-0.840	3.410	191.81	-2.20	3.80	 	 	 	 	 	 	 	 	 	 	 	 	 	 	 	 	 	 	1581478838	8.74	16.19
12/02/2020 03:40:39	120220	12022020	034039	191.49	13.486410	-56.971927	191.74	-0.330	-0.020	3.030	191.49	-1.30	3.40	 	 	 	 	 	 	 	 	 	 	 	 	 	 	 	 	 	 	1581478839	8.44	15.63
12/02/2020 03:40:40	120220	12022020	034040	191.62	13.486373	-56.971935	191.88	-0.440	0.630	2.250	191.62	-0.70	2.70	 	 	 	 	 	 	 	 	 	 	 	 	 	 	 	 	 	 	1581478840	8.04	14.89
12/02/2020 03:40:41	120220	12022020	034041	192.02	13.486335	-56.971942	192.27	-0.270	0.740	1.470	192.02	-0.60	1.90	 	 	 	 	 	 	 	 	 	 	 	 	 	 	 	 	 	 	1581478841	8.04	14.89
12/02/2020 03:40:42	120220	12022020	034042	192.41	13.486295	-56.971950	192.64	0.090	0.350	0.970	192.41	-1.00	1.40	 	 	 	 	 	 	 	 	 	 	 	 	 	 	 	 	 	 	1581478842	8.40	15.56
12/02/2020 03:40:43	120220	12022020	034043	192.55	13.486255	-56.971958	192.75	0.370	-0.220	1.010	192.55	-1.60	1.50	 	 	 	 	 	 	 	 	 	 	 	 	 	 	 	 	 	 	1581478843	8.74	16.19
12/02/2020 03:40:44	120220	12022020	034044	192.57	13.486217	-56.971970	192.79	0.280	-0.560	1.520	192.57	-1.90	2.00	 	 	 	 	 	 	 	 	 	 	 	 	 	 	 	 	 	 	1581478844	8.81	16.32
12/02/2020 03:40:45	120220	12022020	034045	192.58	13.486182	-56.971985	192.82	-0.180	-0.550	2.250	192.58	-1.90	2.70	 	 	 	 	 	 	 	 	 	 	 	 	 	 	 	 	 	 	1581478845	8.53	15.80
12/02/2020 03:40:46	120220	12022020	034046	192.39	13.486147	-56.972003	192.63	-0.540	-0.480	2.940	192.39	-1.80	3.40	 	 	 	 	 	 	 	 	 	 	 	 	 	 	 	 	 	 	1581478846	8.19	15.17
12/02/2020 03:40:47	120220	12022020	034047	192.08	13.486110	-56.972017	192.34	-0.350	-0.480	3.060	192.08	-1.80	3.50	 	 	 	 	 	 	 	 	 	 	 	 	 	 	 	 	 	 	1581478847	8.30	15.37
12/02/2020 03:40:48	120220	12022020	034048	192.04	13.486073	-56.972025	192.31	0.210	-0.320	2.440	192.04	-1.70	2.90	 	 	 	 	 	 	 	 	 	 	 	 	 	 	 	 	 	 	1581478848	8.44	15.63
12/02/2020 03:40:49	120220	12022020	034049	192.17	13.486035	-56.972028	192.43	0.650	-0.180	1.480	192.17	-1.50	1.90	 	 	 	 	 	 	 	 	 	 	 	 	 	 	 	 	 	 	1581478849	8.25	15.28
12/02/2020 03:40:50	120220	12022020	034050	192.10	13.485995	-56.972032	192.34	0.640	-0.330	0.740	192.10	-1.70	1.20	 	 	 	 	 	 	 	 	 	 	 	 	 	 	 	 	 	 	1581478850	8.23	15.24
12/02/2020 03:40:51	120220	12022020	034051	191.83	13.485957	-56.972038	192.07	0.200	-0.560	0.760	191.83	-1.90	1.20	 	 	 	 	 	 	 	 	 	 	 	 	 	 	 	 	 	 	1581478851	8.54	15.82
12/02/2020 03:40:52	120220	12022020	034052	191.51	13.485918	-56.972052	191.78	-0.370	-0.550	1.470	191.51	-1.90	2.00	 	 	 	 	 	 	 	 	 	 	 	 	 	 	 	 	 	 	1581478852	8.63	15.98
12/02/2020 03:40:53	120220	12022020	034053	191.31	13.485883	-56.972068	191.61	-0.760	-0.280	2.370	191.31	-1.60	2.90	 	 	 	 	 	 	 	 	 	 	 	 	 	 	 	 	 	 	1581478853	8.53	15.80
12/02/2020 03:40:54	120220	12022020	034054	191.31	13.485847	-56.972087	191.65	-0.800	0.040	3.060	191.33	-1.30	3.50	 	 	 	 	 	 	 	 	 	 	 	 	 	 	 	 	 	 	1581478854	8.48	15.70
12/02/2020 03:40:55	120220	12022020	034055	191.59	13.485812	-56.972103	191.92	-0.470	0.310	3.300	191.59	-1.00	3.70	 	 	 	 	 	 	 	 	 	 	 	 	 	 	 	 	 	 	1581478855	8.50	15.74
12/02/2020 03:40:56	120220	12022020	034056	191.86	13.485775	-56.972115	192.15	0.150	0.410	2.910	191.86	-1.00	3.30	 	 	 	 	 	 	 	 	 	 	 	 	 	 	 	 	 	 	1581478856	8.34	15.45
12/02/2020 03:40:57	120220	12022020	034057	191.82	13.485737	-56.972118	192.09	0.910	0.010	2.120	191.82	-1.40	2.50	 	 	 	 	 	 	 	 	 	 	 	 	 	 	 	 	 	 	1581478857	8.13	15.06
12/02/2020 03:40:58	120220	12022020	034058	191.70	13.485695	-56.972122	191.97	1.240	-0.570	1.310	191.70	-1.90	1.70	 	 	 	 	 	 	 	 	 	 	 	 	 	 	 	 	 	 	1581478858	8.61	15.95
12/02/2020 03:40:59	120220	12022020	034059	191.87	13.485655	-56.972125	192.15	0.820	-0.730	0.760	191.87	-2.10	1.20	 	 	 	 	 	 	 	 	 	 	 	 	 	 	 	 	 	 	1581478859	8.96	16.59
12/02/2020 03:41:00	120220	12022020	034100	192.40	13.485620	-56.972133	192.70	-0.160	-0.400	0.740	192.40	-1.80	1.20	 	 	 	 	 	 	 	 	 	 	 	 	 	 	 	 	 	 	1581478860	8.43	15.61
12/02/2020 03:41:01	120220	12022020	034101	192.89	13.485587	-56.972148	193.19	-1.060	-0.190	1.370	192.89	-1.60	1.90	1017.00	26.00	26.10	21.10	21.10	-1.0	74.0	74.0	408.0	25.7	253.00	9.60	65.00	11.60	16	8522.0	27.2	27.2	1581478861	7.68	14.22
12/02/2020 03:41:02	120220	12022020	034102	192.77	13.485552	-56.972168	193.04	-1.220	-0.640	2.490	192.77	-2.00	3.00	 	 	 	 	 	 	 	 	 	 	 	 	 	 	 	 	 	 	1581478862	7.84	14.52
12/02/2020 03:41:03	120220	12022020	034103	191.94	13.485512	-56.972190	192.20	-0.510	-1.460	3.620	191.94	-2.80	4.10	 	 	 	 	 	 	 	 	 	 	 	 	 	 	 	 	 	 	1581478863	8.87	16.43
12/02/2020 03:41:04	120220	12022020	034104	191.11	13.485470	-56.972203	191.40	0.460	-1.490	4.020	191.11	-2.80	4.50	 	 	 	 	 	 	 	 	 	 	 	 	 	 	 	 	 	 	1581478864	9.73	18.02
12/02/2020 03:41:05	120220	12022020	034105	190.78	13.485435	-56.972210	191.09	0.910	-0.300	3.650	190.78	-1.60	4.10	 	 	 	 	 	 	 	 	 	 	 	 	 	 	 	 	 	 	1581478865	9.20	17.04
12/02/2020 03:41:06	120220	12022020	034106	190.81	13.485400	-56.972213	191.12	0.580	1.010	2.880	190.83	-0.30	3.30	 	 	 	 	 	 	 	 	 	 	 	 	 	 	 	 	 	 	1581478866	7.85	14.54
12/02/2020 03:41:07	120220	12022020	034107	190.97	13.485363	-56.972217	191.24	-0.100	1.370	2.320	190.97	-0.00	2.80	 	 	 	 	 	 	 	 	 	 	 	 	 	 	 	 	 	 	1581478867	7.38	13.67
12/02/2020 03:41:08	120220	12022020	034108	190.98	13.485323	-56.972227	191.23	-0.530	0.700	2.180	190.98	-0.70	2.60	 	 	 	 	 	 	 	 	 	 	 	 	 	 	 	 	 	 	1581478868	8.00	14.82
12/02/2020 03:41:09	120220	12022020	034109	190.87	13.485282	-56.972240	191.12	-0.470	-0.320	2.350	190.87	-1.70	2.80	 	 	 	 	 	 	 	 	 	 	 	 	 	 	 	 	 	 	1581478869	8.90	16.48
12/02/2020 03:41:10	120220	12022020	034110	190.87	13.485243	-56.972255	191.13	-0.160	-0.900	2.490	190.87	-2.30	2.90	 	 	 	 	 	 	 	 	 	 	 	 	 	 	 	 	 	 	1581478870	9.32	17.26
12/02/2020 03:41:11	120220	12022020	034111	191.00	13.485208	-56.972265	191.26	0.040	-0.730	2.320	191.00	-2.10	2.70	 	 	 	 	 	 	 	 	 	 	 	 	 	 	 	 	 	 	1581478871	8.85	16.39
12/02/2020 03:41:12	120220	12022020	034112	191.21	13.485175	-56.972273	191.47	0.090	-0.300	1.810	191.21	-1.60	2.20	 	 	 	 	 	 	 	 	 	 	 	 	 	 	 	 	 	 	1581478872	7.89	14.61
12/02/2020 03:41:13	120220	12022020	034113	191.23	13.485138	-56.972282	191.47	0.170	-0.310	1.410	191.23	-1.70	1.90	 	 	 	 	 	 	 	 	 	 	 	 	 	 	 	 	 	 	1581478873	7.44	13.78
12/02/2020 03:41:14	120220	12022020	034114	190.98	13.485098	-56.972290	191.22	0.390	-0.740	1.450	190.98	-2.10	1.90	 	 	 	 	 	 	 	 	 	 	 	 	 	 	 	 	 	 	1581478874	7.93	14.69
12/02/2020 03:41:15	120220	12022020	034115	190.76	13.485058	-56.972298	191.01	0.550	-0.880	1.620	190.76	-2.20	2.10	 	 	 	 	 	 	 	 	 	 	 	 	 	 	 	 	 	 	1581478875	8.67	16.06
12/02/2020 03:41:16	120220	12022020	034116	190.81	13.485022	-56.972305	191.07	0.400	-0.490	1.810	190.81	-1.80	2.30	 	 	 	 	 	 	 	 	 	 	 	 	 	 	 	 	 	 	1581478876	8.66	16.04
12/02/2020 03:41:17	120220	12022020	034117	191.03	13.484987	-56.972317	191.30	-0.070	-0.010	2.150	191.03	-1.40	2.60	 	 	 	 	 	 	 	 	 	 	 	 	 	 	 	 	 	 	1581478877	8.16	15.11
12/02/2020 03:41:18	120220	12022020	034118	191.20	13.484950	-56.972328	191.46	-0.500	0.100	2.580	191.20	-1.30	3.00	 	 	 	 	 	 	 	 	 	 	 	 	 	 	 	 	 	 	1581478878	8.00	14.82
12/02/2020 03:41:19	120220	12022020	034119	191.07	13.484910	-56.972342	191.33	-0.540	-0.180	3.030	191.07	-1.60	3.50	 	 	 	 	 	 	 	 	 	 	 	 	 	 	 	 	 	 	1581478879	8.34	15.45
12/02/2020 03:41:20	120220	12022020	034120	190.70	13.484870	-56.972355	190.96	-0.260	-0.420	3.380	190.70	-1.80	3.80	 	 	 	 	 	 	 	 	 	 	 	 	 	 	 	 	 	 	1581478880	8.83	16.35
12/02/2020 03:41:21	120220	12022020	034121	190.36	13.484833	-56.972365	190.63	-0.050	-0.230	3.370	190.36	-1.60	3.80	 	 	 	 	 	 	 	 	 	 	 	 	 	 	 	 	 	 	1581478881	8.90	16.48
12/02/2020 03:41:22	120220	12022020	034122	190.26	13.484797	-56.972373	190.53	-0.130	0.130	2.940	190.26	-1.20	3.40	 	 	 	 	 	 	 	 	 	 	 	 	 	 	 	 	 	 	1581478882	8.44	15.63
12/02/2020 03:41:23	120220	12022020	034123	190.33	13.484760	-56.972382	190.58	-0.270	0.230	2.480	190.33	-1.10	2.90	 	 	 	 	 	 	 	 	 	 	 	 	 	 	 	 	 	 	1581478883	8.05	14.91
12/02/2020 03:41:24	120220	12022020	034124	190.38	13.484722	-56.972392	190.62	-0.170	0.000	2.150	190.38	-1.40	2.60	 	 	 	 	 	 	 	 	 	 	 	 	 	 	 	 	 	 	1581478884	8.15	15.09
12/02/2020 03:41:25	120220	12022020	034125	190.44	13.484682	-56.972400	190.68	0.120	-0.330	1.900	190.44	-1.70	2.40	 	 	 	 	 	 	 	 	 	 	 	 	 	 	 	 	 	 	1581478885	8.45	15.65
12/02/2020 03:41:26	120220	12022020	034126	190.45	13.484645	-56.972410	190.69	0.350	-0.540	1.870	190.45	-1.90	2.30	 	 	 	 	 	 	 	 	 	 	 	 	 	 	 	 	 	 	1581478886	8.55	15.83
12/02/2020 03:41:27	120220	12022020	034127	190.36	13.484607	-56.972420	190.59	0.380	-0.530	1.990	190.36	-1.90	2.50	 	 	 	 	 	 	 	 	 	 	 	 	 	 	 	 	 	 	1581478887	8.43	15.61
12/02/2020 03:41:28	120220	12022020	034128	190.23	13.484572	-56.972430	190.47	0.260	-0.230	2.070	190.23	-1.60	2.50	 	 	 	 	 	 	 	 	 	 	 	 	 	 	 	 	 	 	1581478888	8.25	15.28
12/02/2020 03:41:29	120220	12022020	034129	190.31	13.484537	-56.972437	190.55	0.120	0.190	1.960	190.31	-1.20	2.40	 	 	 	 	 	 	 	 	 	 	 	 	 	 	 	 	 	 	1581478889	7.99	14.80
12/02/2020 03:41:30	120220	12022020	034130	190.57	13.484500	-56.972443	190.89	0.070	0.330	1.480	190.65	-1.00	1.90	 	 	 	 	 	 	 	 	 	 	 	 	 	 	 	 	 	 	1581478890	7.77	14.39
12/02/2020 03:41:31	120220	12022020	034131	191.00	13.484462	-56.972448	191.23	0.130	-0.120	0.960	191.00	-1.50	1.40	 	 	 	 	 	 	 	 	 	 	 	 	 	 	 	 	 	 	1581478891	7.90	14.63
12/02/2020 03:41:32	120220	12022020	034132	191.05	13.484418	-56.972455	191.19	0.270	-1.120	0.990	191.00	-2.50	1.50	 	 	 	 	 	 	 	 	 	 	 	 	 	 	 	 	 	 	1581478892	8.44	15.63
12/02/2020 03:41:33	120220	12022020	034133	190.37	13.484377	-56.972465	190.57	0.310	-2.000	1.750	190.37	-3.40	2.30	 	 	 	 	 	 	 	 	 	 	 	 	 	 	 	 	 	 	1581478893	9.11	16.87
12/02/2020 03:41:34	120220	12022020	034134	189.48	13.484337	-56.972478	189.70	-0.060	-1.910	2.990	189.48	-3.20	3.50	 	 	 	 	 	 	 	 	 	 	 	 	 	 	 	 	 	 	1581478894	9.43	17.46
12/02/2020 03:41:35	120220	12022020	034135	188.77	13.484300	-56.972495	189.03	-0.780	-0.910	4.120	188.77	-2.20	4.60	 	 	 	 	 	 	 	 	 	 	 	 	 	 	 	 	 	 	1581478895	8.98	16.63
12/02/2020 03:41:36	120220	12022020	034136	188.38	13.484267	-56.972513	188.68	-1.360	0.330	4.690	188.38	-1.00	5.20	 	 	 	 	 	 	 	 	 	 	 	 	 	 	 	 	 	 	1581478896	8.48	15.70
12/02/2020 03:41:37	120220	12022020	034137	188.36	13.484230	-56.972532	188.66	-1.290	1.240	4.580	188.36	-0.10	5.00	 	 	 	 	 	 	 	 	 	 	 	 	 	 	 	 	 	 	1581478897	8.44	15.63
12/02/2020 03:41:38	120220	12022020	034138	188.80	13.484192	-56.972540	189.08	-0.540	1.600	3.410	188.80	0.20	3.80	 	 	 	 	 	 	 	 	 	 	 	 	 	 	 	 	 	 	1581478898	8.55	15.83
12/02/2020 03:41:39	120220	12022020	034139	189.58	13.484152	-56.972542	189.83	0.470	1.410	1.610	189.58	0.00	2.00	 	 	 	 	 	 	 	 	 	 	 	 	 	 	 	 	 	 	1581478899	8.49	15.72
12/02/2020 03:41:40	120220	12022020	034140	190.47	13.484112	-56.972538	190.70	1.140	0.780	0.040	190.47	-0.60	0.50	 	 	 	 	 	 	 	 	 	 	 	 	 	 	 	 	 	 	1581478900	8.65	16.02
12/02/2020 03:41:41	120220	12022020	034141	191.07	13.484072	-56.972537	191.26	1.190	-0.180	-0.650	191.07	-1.60	-0.20	 	 	 	 	 	 	 	 	 	 	 	 	 	 	 	 	 	 	1581478901	8.76	16.22
12/02/2020 03:41:42	120220	12022020	034142	191.10	13.484032	-56.972543	191.28	0.830	-1.180	-0.230	191.10	-2.60	0.30	 	 	 	 	 	 	 	 	 	 	 	 	 	 	 	 	 	 	1581478902	8.61	15.95
12/02/2020 03:41:43	120220	12022020	034143	190.78	13.483995	-56.972555	190.98	0.380	-1.780	0.840	190.78	-3.10	1.40	 	 	 	 	 	 	 	 	 	 	 	 	 	 	 	 	 	 	1581478903	8.45	15.65
12/02/2020 03:41:44	120220	12022020	034144	190.27	13.483960	-56.972570	190.48	0.050	-1.900	2.190	190.27	-3.20	2.70	 	 	 	 	 	 	 	 	 	 	 	 	 	 	 	 	 	 	1581478904	8.32	15.41
12/02/2020 03:41:45	120220	12022020	034145	189.65	13.483923	-56.972587	189.89	-0.150	-1.680	3.340	189.65	-3.00	3.80	 	 	 	 	 	 	 	 	 	 	 	 	 	 	 	 	 	 	1581478905	8.31	15.39
12/02/2020 03:41:46	120220	12022020	034146	189.36	13.483887	-56.972600	189.63	-0.350	-1.070	3.620	189.36	-2.40	4.10	 	 	 	 	 	 	 	 	 	 	 	 	 	 	 	 	 	 	1581478906	8.53	15.80
12/02/2020 03:41:47	120220	12022020	034147	189.50	13.483850	-56.972610	189.79	-0.590	-0.190	3.180	189.50	-1.50	3.60	 	 	 	 	 	 	 	 	 	 	 	 	 	 	 	 	 	 	1581478907	8.37	15.50
12/02/2020 03:41:48	120220	12022020	034148	189.94	13.483813	-56.972617	190.22	-0.720	0.520	2.380	189.94	-0.80	2.80	 	 	 	 	 	 	 	 	 	 	 	 	 	 	 	 	 	 	1581478908	8.11	15.02
12/02/2020 03:41:49	120220	12022020	034149	190.33	13.483773	-56.972623	190.58	-0.570	0.630	1.690	190.33	-0.70	2.10	 	 	 	 	 	 	 	 	 	 	 	 	 	 	 	 	 	 	1581478909	8.14	15.08
12/02/2020 03:41:50	120220	12022020	034150	190.39	13.483732	-56.972630	190.61	-0.190	0.230	1.480	190.39	-1.10	2.00	 	 	 	 	 	 	 	 	 	 	 	 	 	 	 	 	 	 	1581478910	8.63	15.98
12/02/2020 03:41:51	120220	12022020	034151	190.28	13.483690	-56.972638	190.51	0.170	-0.080	1.470	190.28	-1.40	2.00	 	 	 	 	 	 	 	 	 	 	 	 	 	 	 	 	 	 	1581478911	9.17	16.98
12/02/2020 03:41:52	120220	12022020	034152	190.31	13.483652	-56.972647	190.54	0.330	0.030	1.490	190.31	-1.30	2.00	 	 	 	 	 	 	 	 	 	 	 	 	 	 	 	 	 	 	1581478912	9.08	16.82
12/02/2020 03:41:53	120220	12022020	034153	190.33	13.483613	-56.972655	190.56	0.350	0.290	1.580	190.33	-1.00	2.10	 	 	 	 	 	 	 	 	 	 	 	 	 	 	 	 	 	 	1581478913	8.49	15.72
12/02/2020 03:41:54	120220	12022020	034154	190.37	13.483577	-56.972662	190.60	0.240	0.380	1.690	190.37	-1.00	2.20	 	 	 	 	 	 	 	 	 	 	 	 	 	 	 	 	 	 	1581478914	8.15	15.09
12/02/2020 03:41:55	120220	12022020	034155	190.75	13.483540	-56.972672	191.01	-0.050	0.420	1.800	190.75	-0.90	2.30	 	 	 	 	 	 	 	 	 	 	 	 	 	 	 	 	 	 	1581478915	8.22	15.22
12/02/2020 03:41:56	120220	12022020	034156	191.44	13.483507	-56.972682	191.73	-0.390	0.410	1.840	191.44	-0.90	2.30	 	 	 	 	 	 	 	 	 	 	 	 	 	 	 	 	 	 	1581478916	8.00	14.82
12/02/2020 03:41:57	120220	12022020	034157	191.90	13.483470	-56.972693	192.15	-0.370	-0.110	1.800	191.90	-1.50	2.30	 	 	 	 	 	 	 	 	 	 	 	 	 	 	 	 	 	 	1581478917	7.69	14.24
12/02/2020 03:41:58	120220	12022020	034158	191.64	13.483430	-56.972705	191.72	0.310	-1.480	2.100	191.49	-2.90	2.60	 	 	 	 	 	 	 	 	 	 	 	 	 	 	 	 	 	 	1581478918	7.94	14.70
12/02/2020 03:41:59	120220	12022020	034159	190.61	13.483387	-56.972715	190.84	1.140	-2.530	2.460	190.61	-3.90	2.90	 	 	 	 	 	 	 	 	 	 	 	 	 	 	 	 	 	 	1581478919	9.14	16.93
12/02/2020 03:42:00	120220	12022020	034200	189.92	13.483348	-56.972722	190.18	1.300	-2.100	2.610	189.92	-3.40	3.10	 	 	 	 	 	 	 	 	 	 	 	 	 	 	 	 	 	 	1581478920	9.48	17.56
12/02/2020 03:42:01	120220	12022020	034201	189.76	13.483315	-56.972728	190.03	0.560	-0.520	2.370	189.76	-1.80	2.80	1017.00	26.10	26.10	21.00	21.10	-1.0	73.0	73.0	405.0	25.7	258.00	10.40	68.00	12.10	16	8400.0	27.2	27.2	1581478921	8.39	15.54
12/02/2020 03:42:02	120220	12022020	034202	189.93	13.483283	-56.972737	190.20	-0.550	0.940	2.090	189.93	-0.40	2.60	 	 	 	 	 	 	 	 	 	 	 	 	 	 	 	 	 	 	1581478922	7.26	13.45
12/02/2020 03:42:03	120220	12022020	034203	190.11	13.483245	-56.972748	190.37	-1.200	1.210	2.110	190.11	-0.10	2.60	 	 	 	 	 	 	 	 	 	 	 	 	 	 	 	 	 	 	1581478923	7.23	13.39
12/02/2020 03:42:04	120220	12022020	034204	190.37	13.483203	-56.972762	190.64	-1.120	0.640	2.130	190.37	-0.70	2.60	 	 	 	 	 	 	 	 	 	 	 	 	 	 	 	 	 	 	1581478924	8.45	15.65
12/02/2020 03:42:05	120220	12022020	034205	190.69	13.483162	-56.972775	190.96	-0.620	-0.030	2.090	190.69	-1.40	2.60	 	 	 	 	 	 	 	 	 	 	 	 	 	 	 	 	 	 	1581478925	9.36	17.33
12/02/2020 03:42:06	120220	12022020	034206	190.90	13.483122	-56.972785	191.17	-0.130	-0.350	1.990	190.90	-1.70	2.50	 	 	 	 	 	 	 	 	 	 	 	 	 	 	 	 	 	 	1581478926	9.35	17.32
12/02/2020 03:42:07	120220	12022020	034207	190.99	13.483085	-56.972792	191.26	0.200	-0.250	1.710	190.99	-1.60	2.20	 	 	 	 	 	 	 	 	 	 	 	 	 	 	 	 	 	 	1581478927	8.80	16.30
12/02/2020 03:42:08	120220	12022020	034208	190.95	13.483048	-56.972797	191.20	0.360	-0.100	1.410	190.95	-1.40	1.90	 	 	 	 	 	 	 	 	 	 	 	 	 	 	 	 	 	 	1581478928	8.18	15.15
12/02/2020 03:42:09	120220	12022020	034209	190.72	13.483010	-56.972802	190.97	0.410	-0.270	1.280	190.72	-1.60	1.80	 	 	 	 	 	 	 	 	 	 	 	 	 	 	 	 	 	 	1581478929	7.99	14.80
12/02/2020 03:42:10	120220	12022020	034210	190.43	13.482970	-56.972810	190.66	0.370	-0.520	1.370	190.43	-1.90	1.90	 	 	 	 	 	 	 	 	 	 	 	 	 	 	 	 	 	 	1581478930	8.32	15.41
12/02/2020 03:42:11	120220	12022020	034211	190.20	13.482933	-56.972820	190.44	0.240	-0.500	1.670	190.20	-1.80	2.20	 	 	 	 	 	 	 	 	 	 	 	 	 	 	 	 	 	 	1581478931	8.53	15.80
12/02/2020 03:42:12	120220	12022020	034212	189.98	13.482897	-56.972830	190.23	0.060	-0.300	2.190	189.98	-1.60	2.70	 	 	 	 	 	 	 	 	 	 	 	 	 	 	 	 	 	 	1581478932	8.29	15.35
12/02/2020 03:42:13	120220	12022020	034213	189.66	13.482860	-56.972843	189.92	-0.090	-0.220	2.770	189.66	-1.50	3.20	 	 	 	 	 	 	 	 	 	 	 	 	 	 	 	 	 	 	1581478933	8.12	15.04
12/02/2020 03:42:14	120220	12022020	034214	189.37	13.482822	-56.972855	189.65	-0.120	-0.330	3.030	189.37	-1.70	3.50	 	 	 	 	 	 	 	 	 	 	 	 	 	 	 	 	 	 	1581478934	8.31	15.39
12/02/2020 03:42:15	120220	12022020	034215	189.20	13.482783	-56.972867	189.47	0.030	-0.560	2.900	189.20	-1.90	3.40	 	 	 	 	 	 	 	 	 	 	 	 	 	 	 	 	 	 	1581478935	8.60	15.93
12/02/2020 03:42:16	120220	12022020	034216	189.19	13.482743	-56.972875	189.46	0.230	-0.540	2.540	189.19	-1.80	3.00	 	 	 	 	 	 	 	 	 	 	 	 	 	 	 	 	 	 	1581478936	8.78	16.26
12/02/2020 03:42:17	120220	12022020	034217	189.52	13.482707	-56.972878	189.81	0.300	-0.070	1.810	189.52	-1.40	2.30	 	 	 	 	 	 	 	 	 	 	 	 	 	 	 	 	 	 	1581478937	8.65	16.02
12/02/2020 03:42:18	120220	12022020	034218	190.08	13.482670	-56.972882	190.35	0.110	0.370	1.200	190.08	-0.90	1.70	 	 	 	 	 	 	 	 	 	 	 	 	 	 	 	 	 	 	1581478938	8.10	15.00
12/02/2020 03:42:19	120220	12022020	034219	190.34	13.482632	-56.972890	190.60	-0.180	0.140	1.310	190.34	-1.20	1.80	 	 	 	 	 	 	 	 	 	 	 	 	 	 	 	 	 	 	1581478939	7.89	14.61
12/02/2020 03:42:20	120220	12022020	034220	190.27	13.482592	-56.972902	190.53	-0.310	-0.460	1.820	190.27	-1.80	2.30	 	 	 	 	 	 	 	 	 	 	 	 	 	 	 	 	 	 	1581478940	8.42	15.59
12/02/2020 03:42:21	120220	12022020	034221	190.21	13.482552	-56.972913	190.48	-0.250	-0.660	2.170	190.21	-2.00	2.60	 	 	 	 	 	 	 	 	 	 	 	 	 	 	 	 	 	 	1581478941	8.99	16.65
12/02/2020 03:42:22	120220	12022020	034222	190.14	13.482515	-56.972922	190.38	-0.060	-0.480	2.330	190.11	-1.80	2.80	 	 	 	 	 	 	 	 	 	 	 	 	 	 	 	 	 	 	1581478942	8.64	16.00
12/02/2020 03:42:23	120220	12022020	034223	189.92	13.482478	-56.972930	190.19	0.140	-0.240	2.230	189.92	-1.50	2.70	 	 	 	 	 	 	 	 	 	 	 	 	 	 	 	 	 	 	1581478943	8.20	15.19
12/02/2020 03:42:24	120220	12022020	034224	189.82	13.482440	-56.972935	190.09	0.220	-0.080	1.840	189.82	-1.40	2.30	 	 	 	 	 	 	 	 	 	 	 	 	 	 	 	 	 	 	1581478944	8.16	15.11
12/02/2020 03:42:25	120220	12022020	034225	189.81	13.482402	-56.972942	190.06	0.160	-0.150	1.600	189.81	-1.50	2.10	 	 	 	 	 	 	 	 	 	 	 	 	 	 	 	 	 	 	1581478945	8.25	15.28
12/02/2020 03:42:26	120220	12022020	034226	189.82	13.482362	-56.972950	190.07	0.060	-0.400	1.590	189.82	-1.70	2.10	 	 	 	 	 	 	 	 	 	 	 	 	 	 	 	 	 	 	1581478946	8.46	15.67
12/02/2020 03:42:27	120220	12022020	034227	189.71	13.482323	-56.972960	189.95	0.030	-0.620	1.900	189.71	-1.90	2.40	 	 	 	 	 	 	 	 	 	 	 	 	 	 	 	 	 	 	1581478947	8.66	16.04
12/02/2020 03:42:28	120220	12022020	034228	189.41	13.482283	-56.972972	189.65	0.090	-0.720	2.400	189.41	-2.00	2.90	 	 	 	 	 	 	 	 	 	 	 	 	 	 	 	 	 	 	1581478948	8.74	16.19
12/02/2020 03:42:29	120220	12022020	034229	189.25	13.482245	-56.972982	189.52	0.040	-0.420	2.650	189.25	-1.70	3.10	 	 	 	 	 	 	 	 	 	 	 	 	 	 	 	 	 	 	1581478949	8.85	16.39
12/02/2020 03:42:30	120220	12022020	034230	189.50	13.482208	-56.972990	189.80	-0.270	0.330	2.520	189.50	-0.90	3.00	 	 	 	 	 	 	 	 	 	 	 	 	 	 	 	 	 	 	1581478950	8.54	15.82
12/02/2020 03:42:31	120220	12022020	034231	190.21	13.482175	-56.972998	190.53	-0.650	1.000	2.030	190.21	-0.30	2.50	 	 	 	 	 	 	 	 	 	 	 	 	 	 	 	 	 	 	1581478951	7.88	14.59
12/02/2020 03:42:32	120220	12022020	034232	190.93	13.482138	-56.973005	191.22	-0.660	0.830	1.430	190.93	-0.50	1.90	 	 	 	 	 	 	 	 	 	 	 	 	 	 	 	 	 	 	1581478952	7.56	14.00
12/02/2020 03:42:33	120220	12022020	034233	191.27	13.482095	-56.973013	191.54	-0.080	-0.320	1.010	191.27	-1.70	1.50	 	 	 	 	 	 	 	 	 	 	 	 	 	 	 	 	 	 	1581478953	8.12	15.04
12/02/2020 03:42:34	120220	12022020	034234	191.34	13.482053	-56.973020	191.59	0.650	-1.400	1.030	191.34	-2.70	1.50	 	 	 	 	 	 	 	 	 	 	 	 	 	 	 	 	 	 	1581478954	9.19	17.02
12/02/2020 03:42:35	120220	12022020	034235	191.11	13.482013	-56.973028	191.35	0.890	-1.610	1.320	191.11	-2.90	1.80	 	 	 	 	 	 	 	 	 	 	 	 	 	 	 	 	 	 	1581478955	9.34	17.30
12/02/2020 03:42:36	120220	12022020	034236	190.55	13.481977	-56.973037	190.80	0.570	-1.080	1.760	190.55	-2.40	2.30	 	 	 	 	 	 	 	 	 	 	 	 	 	 	 	 	 	 	1581478956	8.61	15.95
12/02/2020 03:42:37	120220	12022020	034237	189.99	13.481940	-56.973047	190.26	0.030	-0.330	2.250	189.99	-1.60	2.70	 	 	 	 	 	 	 	 	 	 	 	 	 	 	 	 	 	 	1581478957	8.05	14.91
12/02/2020 03:42:38	120220	12022020	034238	189.75	13.481903	-56.973057	190.03	-0.350	0.340	2.490	189.75	-0.90	2.90	 	 	 	 	 	 	 	 	 	 	 	 	 	 	 	 	 	 	1581478958	8.05	14.91
12/02/2020 03:42:39	120220	12022020	034239	189.90	13.481867	-56.973067	190.20	-0.480	0.690	2.380	189.90	-0.60	2.80	 	 	 	 	 	 	 	 	 	 	 	 	 	 	 	 	 	 	1581478959	8.21	15.20
12/02/2020 03:42:40	120220	12022020	034240	190.39	13.481827	-56.973077	190.69	-0.480	0.580	2.080	190.39	-0.70	2.50	 	 	 	 	 	 	 	 	 	 	 	 	 	 	 	 	 	 	1581478960	8.42	15.59
12/02/2020 03:42:41	120220	12022020	034241	191.02	13.481788	-56.973088	191.33	-0.430	0.230	1.810	191.02	-1.10	2.30	 	 	 	 	 	 	 	 	 	 	 	 	 	 	 	 	 	 	1581478961	8.67	16.06
12/02/2020 03:42:42	120220	12022020	034242	191.60	13.481750	-56.973100	191.90	-0.300	-0.140	1.650	191.60	-1.50	2.10	 	 	 	 	 	 	 	 	 	 	 	 	 	 	 	 	 	 	1581478962	8.73	16.17
12/02/2020 03:42:43	120220	12022020	034243	191.83	13.481712	-56.973110	192.11	0.010	-0.560	1.520	191.83	-1.90	2.00	 	 	 	 	 	 	 	 	 	 	 	 	 	 	 	 	 	 	1581478963	8.52	15.78
12/02/2020 03:42:44	120220	12022020	034244	191.64	13.481672	-56.973118	191.90	0.380	-0.960	1.580	191.64	-2.30	2.10	 	 	 	 	 	 	 	 	 	 	 	 	 	 	 	 	 	 	1581478964	8.48	15.70
12/02/2020 03:42:45	120220	12022020	034245	191.31	13.481633	-56.973125	191.57	0.570	-1.040	1.710	191.31	-2.30	2.20	 	 	 	 	 	 	 	 	 	 	 	 	 	 	 	 	 	 	1581478965	8.63	15.98
12/02/2020 03:42:46	120220	12022020	034246	190.95	13.481595	-56.973132	191.21	0.540	-0.780	1.800	190.95	-2.10	2.30	 	 	 	 	 	 	 	 	 	 	 	 	 	 	 	 	 	 	1581478966	8.49	15.72
12/02/2020 03:42:47	120220	12022020	034247	190.58	13.481557	-56.973138	190.85	0.320	-0.390	1.950	190.58	-1.70	2.40	 	 	 	 	 	 	 	 	 	 	 	 	 	 	 	 	 	 	1581478967	8.36	15.48
12/02/2020 03:42:48	120220	12022020	034248	190.41	13.481518	-56.973147	190.70	-0.060	-0.050	2.250	190.41	-1.30	2.70	 	 	 	 	 	 	 	 	 	 	 	 	 	 	 	 	 	 	1581478968	8.39	15.54
12/02/2020 03:42:49	120220	12022020	034249	190.37	13.481480	-56.973160	190.67	-0.510	0.120	2.710	190.37	-1.20	3.20	 	 	 	 	 	 	 	 	 	 	 	 	 	 	 	 	 	 	1581478969	8.50	15.74
12/02/2020 03:42:50	120220	12022020	034250	190.42	13.481442	-56.973175	190.74	-0.760	0.130	3.020	190.42	-1.20	3.50	 	 	 	 	 	 	 	 	 	 	 	 	 	 	 	 	 	 	1581478970	8.69	16.09
12/02/2020 03:42:51	120220	12022020	034251	190.69	13.481403	-56.973188	191.00	-0.640	0.140	2.920	190.69	-1.20	3.40	 	 	 	 	 	 	 	 	 	 	 	 	 	 	 	 	 	 	1581478971	8.88	16.45
12/02/2020 03:42:52	120220	12022020	034252	191.12	13.481365	-56.973200	191.45	-0.280	0.320	2.470	191.12	-1.00	2.90	 	 	 	 	 	 	 	 	 	 	 	 	 	 	 	 	 	 	1581478972	8.74	16.19
12/02/2020 03:42:53	120220	12022020	034253	191.59	13.481328	-56.973207	191.89	0.120	0.520	1.680	191.59	-0.80	2.10	 	 	 	 	 	 	 	 	 	 	 	 	 	 	 	 	 	 	1581478973	8.30	15.37
12/02/2020 03:42:54	120220	12022020	034254	191.95	13.481292	-56.973210	192.23	0.420	0.380	0.740	191.95	-1.00	1.20	 	 	 	 	 	 	 	 	 	 	 	 	 	 	 	 	 	 	1581478974	7.99	14.80
12/02/2020 03:42:55	120220	12022020	034255	192.11	13.481252	-56.973215	192.36	0.620	-0.260	0.230	192.11	-1.60	0.70	 	 	 	 	 	 	 	 	 	 	 	 	 	 	 	 	 	 	1581478975	8.15	15.09
12/02/2020 03:42:56	120220	12022020	034256	191.86	13.481212	-56.973222	192.09	0.790	-1.190	0.450	191.86	-2.50	1.00	 	 	 	 	 	 	 	 	 	 	 	 	 	 	 	 	 	 	1581478976	8.53	15.80
12/02/2020 03:42:57	120220	12022020	034257	191.20	13.481170	-56.973230	191.43	0.830	-1.720	1.200	191.20	-3.00	1.70	 	 	 	 	 	 	 	 	 	 	 	 	 	 	 	 	 	 	1581478977	8.93	16.54
12/02/2020 03:42:58	120220	12022020	034258	190.51	13.481132	-56.973242	190.77	0.530	-1.510	2.130	190.51	-2.80	2.60	 	 	 	 	 	 	 	 	 	 	 	 	 	 	 	 	 	 	1581478978	8.92	16.52
12/02/2020 03:42:59	120220	12022020	034259	190.05	13.481095	-56.973255	190.34	-0.130	-0.860	2.940	190.05	-2.10	3.40	 	 	 	 	 	 	 	 	 	 	 	 	 	 	 	 	 	 	1581478979	8.51	15.76
12/02/2020 03:43:00	120220	12022020	034300	189.93	13.481058	-56.973268	190.25	-0.890	-0.150	3.280	189.93	-1.40	3.70	 	 	 	 	 	 	 	 	 	 	 	 	 	 	 	 	 	 	1581478980	8.36	15.48
12/02/2020 03:43:01	120220	12022020	034301	190.10	13.481020	-56.973283	190.43	-1.350	0.310	3.200	190.10	-1.00	3.60	1017.00	26.10	26.10	20.90	21.00	-1.0	73.0	73.0	409.0	25.7	257.00	10.50	67.00	12.30	16	8644.0	27.2	27.2	1581478981	8.46	15.67
12/02/2020 03:43:02	120220	12022020	034302	190.53	13.480982	-56.973295	190.86	-1.270	0.440	2.690	190.53	-0.90	3.10	 	 	 	 	 	 	 	 	 	 	 	 	 	 	 	 	 	 	1581478982	8.73	16.17
12/02/2020 03:43:03	120220	12022020	034303	191.19	13.480942	-56.973303	191.51	-0.740	0.540	1.780	191.19	-0.80	2.20	 	 	 	 	 	 	 	 	 	 	 	 	 	 	 	 	 	 	1581478983	8.95	16.58
12/02/2020 03:43:04	120220	12022020	034304	191.90	13.480903	-56.973310	192.20	-0.130	0.680	0.840	191.90	-0.60	1.30	 	 	 	 	 	 	 	 	 	 	 	 	 	 	 	 	 	 	1581478984	8.76	16.22
12/02/2020 03:43:05	120220	12022020	034305	192.33	13.480863	-56.973313	192.59	0.360	0.430	0.300	192.33	-0.90	0.80	 	 	 	 	 	 	 	 	 	 	 	 	 	 	 	 	 	 	1581478985	8.38	15.52
12/02/2020 03:43:06	120220	12022020	034306	192.14	13.480822	-56.973322	192.37	0.740	-0.370	0.490	192.14	-1.70	1.00	 	 	 	 	 	 	 	 	 	 	 	 	 	 	 	 	 	 	1581478986	8.47	15.69
12/02/2020 03:43:07	120220	12022020	034307	191.60	13.480782	-56.973330	191.84	0.990	-0.900	1.090	191.60	-2.20	1.60	 	 	 	 	 	 	 	 	 	 	 	 	 	 	 	 	 	 	1581478987	8.98	16.63
12/02/2020 03:43:08	120220	12022020	034308	191.23	13.480745	-56.973338	191.50	0.930	-0.560	1.600	191.23	-1.80	2.10	 	 	 	 	 	 	 	 	 	 	 	 	 	 	 	 	 	 	1581478988	8.93	16.54
12/02/2020 03:43:09	120220	12022020	034309	191.08	13.480710	-56.973347	191.36	0.500	-0.050	2.100	191.08	-1.40	2.60	 	 	 	 	 	 	 	 	 	 	 	 	 	 	 	 	 	 	1581478989	8.03	14.87
12/02/2020 03:43:10	120220	12022020	034310	190.95	13.480673	-56.973360	191.24	-0.070	-0.050	2.650	190.95	-1.40	3.10	 	 	 	 	 	 	 	 	 	 	 	 	 	 	 	 	 	 	1581478990	7.72	14.30
12/02/2020 03:43:11	120220	12022020	034311	190.80	13.480635	-56.973375	191.10	-0.460	-0.450	3.020	190.80	-1.80	3.50	 	 	 	 	 	 	 	 	 	 	 	 	 	 	 	 	 	 	1581478991	8.33	15.43
12/02/2020 03:43:12	120220	12022020	034312	190.82	13.480597	-56.973390	191.19	-0.520	-0.660	2.920	190.87	-2.00	3.40	 	 	 	 	 	 	 	 	 	 	 	 	 	 	 	 	 	 	1581478992	8.94	16.56
12/02/2020 03:43:13	120220	12022020	034313	191.27	13.480560	-56.973400	191.58	-0.350	-0.480	2.340	191.27	-1.80	2.80	 	 	 	 	 	 	 	 	 	 	 	 	 	 	 	 	 	 	1581478993	8.77	16.24
12/02/2020 03:43:14	120220	12022020	034314	191.50	13.480522	-56.973407	191.78	-0.070	-0.530	1.620	191.50	-1.90	2.10	 	 	 	 	 	 	 	 	 	 	 	 	 	 	 	 	 	 	1581478994	8.16	15.11
12/02/2020 03:43:15	120220	12022020	034315	191.30	13.480480	-56.973413	191.55	0.260	-1.010	1.250	191.30	-2.30	1.70	 	 	 	 	 	 	 	 	 	 	 	 	 	 	 	 	 	 	1581478995	8.38	15.52
12/02/2020 03:43:16	120220	12022020	034316	191.03	13.480438	-56.973420	191.30	0.410	-1.070	1.170	191.03	-2.40	1.60	 	 	 	 	 	 	 	 	 	 	 	 	 	 	 	 	 	 	1581478996	9.14	16.93
12/02/2020 03:43:17	120220	12022020	034317	191.17	13.480400	-56.973427	191.48	0.090	-0.220	1.170	191.17	-1.50	1.70	 	 	 	 	 	 	 	 	 	 	 	 	 	 	 	 	 	 	1581478997	9.12	16.89
12/02/2020 03:43:18	120220	12022020	034318	191.51	13.480365	-56.973437	191.81	-0.500	0.710	1.380	191.51	-0.60	1.90	 	 	 	 	 	 	 	 	 	 	 	 	 	 	 	 	 	 	1581478998	8.13	15.06
12/02/2020 03:43:19	120220	12022020	034319	191.75	13.480328	-56.973448	192.05	-0.810	0.900	1.690	191.75	-0.40	2.20	 	 	 	 	 	 	 	 	 	 	 	 	 	 	 	 	 	 	1581478999	7.78	14.41
12/02/2020 03:43:20	120220	12022020	034320	191.96	13.480288	-56.973462	192.26	-0.550	0.450	1.850	191.96	-0.90	2.30	 	 	 	 	 	 	 	 	 	 	 	 	 	 	 	 	 	 	1581479000	8.47	15.69
12/02/2020 03:43:21	120220	12022020	034321	192.00	13.480247	-56.973472	192.28	0.060	-0.180	1.960	192.00	-1.50	2.40	 	 	 	 	 	 	 	 	 	 	 	 	 	 	 	 	 	 	1581479001	9.04	16.74
12/02/2020 03:43:22	120220	12022020	034322	191.60	13.480205	-56.973480	191.86	0.580	-0.760	2.230	191.60	-2.10	2.70	 	 	 	 	 	 	 	 	 	 	 	 	 	 	 	 	 	 	1581479002	9.13	16.91
12/02/2020 03:43:23	120220	12022020	034323	191.12	13.480165	-56.973490	191.41	0.640	-0.900	2.430	191.12	-2.20	2.90	 	 	 	 	 	 	 	 	 	 	 	 	 	 	 	 	 	 	1581479003	9.13	16.91
12/02/2020 03:43:24	120220	12022020	034324	191.10	13.480128	-56.973500	191.43	0.180	-0.290	2.500	191.10	-1.60	3.00	 	 	 	 	 	 	 	 	 	 	 	 	 	 	 	 	 	 	1581479004	8.87	16.43
12/02/2020 03:43:25	120220	12022020	034325	191.55	13.480097	-56.973512	191.87	-0.400	0.550	2.360	191.55	-0.70	2.80	 	 	 	 	 	 	 	 	 	 	 	 	 	 	 	 	 	 	1581479005	8.00	14.82
12/02/2020 03:43:26	120220	12022020	034326	191.93	13.480060	-56.973523	192.21	-0.550	0.600	2.100	191.93	-0.70	2.50	 	 	 	 	 	 	 	 	 	 	 	 	 	 	 	 	 	 	1581479006	7.46	13.82
12/02/2020 03:43:27	120220	12022020	034327	191.86	13.480020	-56.973535	192.11	-0.010	-0.350	1.870	191.86	-1.70	2.30	 	 	 	 	 	 	 	 	 	 	 	 	 	 	 	 	 	 	1581479007	8.03	14.87
12/02/2020 03:43:28	120220	12022020	034328	191.73	13.479977	-56.973543	191.99	0.720	-1.100	1.520	191.73	-2.40	2.00	 	 	 	 	 	 	 	 	 	 	 	 	 	 	 	 	 	 	1581479008	9.22	17.08
12/02/2020 03:43:29	120220	12022020	034329	191.84	13.479940	-56.973550	192.10	1.000	-0.880	1.060	191.84	-2.20	1.50	 	 	 	 	 	 	 	 	 	 	 	 	 	 	 	 	 	 	1581479009	9.29	17.21
12/02/2020 03:43:30	120220	12022020	034330	191.87	13.479903	-56.973555	192.10	0.690	-0.430	0.950	191.87	-1.70	1.40	 	 	 	 	 	 	 	 	 	 	 	 	 	 	 	 	 	 	1581479010	8.25	15.28
12/02/2020 03:43:31	120220	12022020	034331	191.60	13.479865	-56.973565	191.82	0.180	-0.420	1.500	191.60	-1.70	2.00	 	 	 	 	 	 	 	 	 	 	 	 	 	 	 	 	 	 	1581479011	7.92	14.67
12/02/2020 03:43:32	120220	12022020	034332	191.42	13.479825	-56.973578	191.69	-0.230	-0.490	2.100	191.42	-1.80	2.60	 	 	 	 	 	 	 	 	 	 	 	 	 	 	 	 	 	 	1581479012	8.59	15.91
12/02/2020 03:43:33	120220	12022020	034333	191.59	13.479787	-56.973590	191.88	-0.500	-0.140	2.370	191.59	-1.40	2.80	 	 	 	 	 	 	 	 	 	 	 	 	 	 	 	 	 	 	1581479013	9.01	16.69
12/02/2020 03:43:34	120220	12022020	034334	191.79	13.479750	-56.973602	192.06	-0.680	0.210	2.390	191.79	-1.10	2.80	 	 	 	 	 	 	 	 	 	 	 	 	 	 	 	 	 	 	1581479014	8.54	15.82
12/02/2020 03:43:35	120220	12022020	034335	191.95	13.479712	-56.973615	192.23	-0.760	0.150	2.280	191.95	-1.20	2.70	 	 	 	 	 	 	 	 	 	 	 	 	 	 	 	 	 	 	1581479015	8.36	15.48
12/02/2020 03:43:36	120220	12022020	034336	192.11	13.479672	-56.973627	192.38	-0.630	-0.180	2.200	192.11	-1.50	2.60	 	 	 	 	 	 	 	 	 	 	 	 	 	 	 	 	 	 	1581479016	8.69	16.09
12/02/2020 03:43:37	120220	12022020	034337	192.05	13.479632	-56.973640	192.30	-0.170	-0.490	2.160	192.05	-1.80	2.60	 	 	 	 	 	 	 	 	 	 	 	 	 	 	 	 	 	 	1581479017	8.89	16.46
12/02/2020 03:43:38	120220	12022020	034338	191.76	13.479592	-56.973648	191.89	0.440	-0.660	2.100	191.65	-2.00	2.60	 	 	 	 	 	 	 	 	 	 	 	 	 	 	 	 	 	 	1581479018	8.86	16.41
12/02/2020 03:43:39	120220	12022020	034339	191.11	13.479552	-56.973655	191.34	0.850	-0.690	2.080	191.11	-2.00	2.50	 	 	 	 	 	 	 	 	 	 	 	 	 	 	 	 	 	 	1581479019	8.81	16.32
12/02/2020 03:43:40	120220	12022020	034340	190.71	13.479512	-56.973662	190.97	0.800	-0.460	2.100	190.71	-1.70	2.60	 	 	 	 	 	 	 	 	 	 	 	 	 	 	 	 	 	 	1581479020	8.80	16.30
12/02/2020 03:43:41	120220	12022020	034341	190.71	13.479473	-56.973668	190.99	0.290	0.060	2.150	190.71	-1.20	2.60	 	 	 	 	 	 	 	 	 	 	 	 	 	 	 	 	 	 	1581479021	8.67	16.06
12/02/2020 03:43:42	120220	12022020	034342	190.89	13.479438	-56.973680	191.18	-0.400	0.510	2.370	190.89	-0.80	2.80	 	 	 	 	 	 	 	 	 	 	 	 	 	 	 	 	 	 	1581479022	8.27	15.32
12/02/2020 03:43:43	120220	12022020	034343	191.19	13.479400	-56.973695	191.49	-0.810	0.600	2.460	191.19	-0.70	2.90	 	 	 	 	 	 	 	 	 	 	 	 	 	 	 	 	 	 	1581479023	8.20	15.19
12/02/2020 03:43:44	120220	12022020	034344	191.50	13.479362	-56.973707	191.79	-0.670	0.350	2.270	191.50	-1.00	2.70	 	 	 	 	 	 	 	 	 	 	 	 	 	 	 	 	 	 	1581479024	8.49	15.72
12/02/2020 03:43:45	120220	12022020	034345	191.69	13.479323	-56.973718	191.96	-0.130	-0.210	2.000	191.69	-1.50	2.50	 	 	 	 	 	 	 	 	 	 	 	 	 	 	 	 	 	 	1581479025	8.64	16.00
12/02/2020 03:43:46	120220	12022020	034346	191.66	13.479282	-56.973727	191.92	0.440	-0.800	1.850	191.66	-2.10	2.30	 	 	 	 	 	 	 	 	 	 	 	 	 	 	 	 	 	 	1581479026	8.85	16.39
12/02/2020 03:43:47	120220	12022020	034347	191.45	13.479243	-56.973735	191.69	0.750	-0.990	1.740	191.45	-2.30	2.20	 	 	 	 	 	 	 	 	 	 	 	 	 	 	 	 	 	 	1581479027	8.93	16.54
12/02/2020 03:43:48	120220	12022020	034348	191.29	13.479205	-56.973742	191.52	0.700	-0.630	1.510	191.29	-1.90	2.00	 	 	 	 	 	 	 	 	 	 	 	 	 	 	 	 	 	 	1581479028	8.65	16.02
12/02/2020 03:43:49	120220	12022020	034349	191.40	13.479170	-56.973748	191.64	0.360	-0.030	1.210	191.40	-1.30	1.70	 	 	 	 	 	 	 	 	 	 	 	 	 	 	 	 	 	 	1581479029	8.11	15.02
12/02/2020 03:43:50	120220	12022020	034350	191.69	13.479133	-56.973753	191.93	-0.040	0.280	0.950	191.69	-1.10	1.40	 	 	 	 	 	 	 	 	 	 	 	 	 	 	 	 	 	 	1581479030	7.75	14.35
12/02/2020 03:43:51	120220	12022020	034351	191.77	13.479095	-56.973763	192.00	-0.200	-0.180	1.040	191.77	-1.50	1.50	 	 	 	 	 	 	 	 	 	 	 	 	 	 	 	 	 	 	1581479031	7.88	14.59
12/02/2020 03:43:52	120220	12022020	034352	191.39	13.479052	-56.973777	191.61	-0.010	-1.270	1.680	191.39	-2.60	2.20	 	 	 	 	 	 	 	 	 	 	 	 	 	 	 	 	 	 	1581479032	8.67	16.06
12/02/2020 03:43:53	120220	12022020	034353	190.77	13.479008	-56.973790	191.01	0.240	-1.920	2.540	190.77	-3.20	3.00	 	 	 	 	 	 	 	 	 	 	 	 	 	 	 	 	 	 	1581479033	9.71	17.98
12/02/2020 03:43:54	120220	12022020	034354	190.36	13.478970	-56.973803	190.63	0.140	-1.240	3.120	190.36	-2.50	3.60	 	 	 	 	 	 	 	 	 	 	 	 	 	 	 	 	 	 	1581479034	9.81	18.17
12/02/2020 03:43:55	120220	12022020	034355	190.38	13.478937	-56.973813	190.67	-0.370	0.380	3.170	190.38	-0.90	3.60	 	 	 	 	 	 	 	 	 	 	 	 	 	 	 	 	 	 	1581479035	8.68	16.08
12/02/2020 03:43:56	120220	12022020	034356	190.75	13.478902	-56.973822	191.04	-0.930	1.580	2.740	190.75	0.30	3.20	 	 	 	 	 	 	 	 	 	 	 	 	 	 	 	 	 	 	1581479036	7.49	13.87
12/02/2020 03:43:57	120220	12022020	034357	191.20	13.478863	-56.973832	191.48	-1.050	1.420	2.120	191.20	0.10	2.60	 	 	 	 	 	 	 	 	 	 	 	 	 	 	 	 	 	 	1581479037	7.50	13.89
12/02/2020 03:43:58	120220	12022020	034358	191.46	13.478820	-56.973842	191.72	-0.550	0.220	1.600	191.46	-1.20	2.10	 	 	 	 	 	 	 	 	 	 	 	 	 	 	 	 	 	 	1581479038	8.60	15.93
12/02/2020 03:43:59	120220	12022020	034359	191.34	13.478775	-56.973850	191.58	0.290	-0.950	1.310	191.34	-2.30	1.80	 	 	 	 	 	 	 	 	 	 	 	 	 	 	 	 	 	 	1581479039	9.62	17.82
12/02/2020 03:44:00	120220	12022020	034400	191.30	13.478735	-56.973857	191.57	0.790	-0.990	1.090	191.32	-2.30	1.60	 	 	 	 	 	 	 	 	 	 	 	 	 	 	 	 	 	 	1581479040	9.74	18.04
12/02/2020 03:44:01	120220	12022020	034401	191.59	13.478703	-56.973862	191.84	0.640	-0.060	1.020	191.59	-1.30	1.50	1017.00	26.00	26.10	20.80	20.90	-1.0	72.0	73.0	415.0	25.7	253.00	10.60	65.00	12.70	16	8511.0	27.2	27.2	1581479041	8.56	15.85
12/02/2020 03:44:02	120220	12022020	034402	191.76	13.478670	-56.973870	191.99	0.180	0.520	1.260	191.76	-0.80	1.70	 	 	 	 	 	 	 	 	 	 	 	 	 	 	 	 	 	 	1581479042	7.20	13.33
12/02/2020 03:44:03	120220	12022020	034403	191.62	13.478632	-56.973882	191.85	-0.010	0.050	1.690	191.62	-1.30	2.20	 	 	 	 	 	 	 	 	 	 	 	 	 	 	 	 	 	 	1581479043	7.28	13.48
12/02/2020 03:44:04	120220	12022020	034404	191.43	13.478592	-56.973893	191.67	0.180	-0.820	2.030	191.43	-2.20	2.50	 	 	 	 	 	 	 	 	 	 	 	 	 	 	 	 	 	 	1581479044	8.49	15.72
12/02/2020 03:44:05	120220	12022020	034405	191.21	13.478552	-56.973903	191.46	0.450	-1.210	2.190	191.21	-2.50	2.70	 	 	 	 	 	 	 	 	 	 	 	 	 	 	 	 	 	 	1581479045	9.17	16.98
12/02/2020 03:44:06	120220	12022020	034406	191.00	13.478513	-56.973912	191.24	0.430	-1.060	2.180	191.00	-2.40	2.60	 	 	 	 	 	 	 	 	 	 	 	 	 	 	 	 	 	 	1581479046	8.82	16.33
12/02/2020 03:44:07	120220	12022020	034407	190.81	13.478475	-56.973922	191.05	0.110	-0.690	2.120	190.81	-2.00	2.60	 	 	 	 	 	 	 	 	 	 	 	 	 	 	 	 	 	 	1581479047	8.35	15.46
12/02/2020 03:44:08	120220	12022020	034408	190.68	13.478438	-56.973932	190.92	-0.300	-0.280	2.060	190.68	-1.60	2.50	 	 	 	 	 	 	 	 	 	 	 	 	 	 	 	 	 	 	1581479048	8.26	15.30
12/02/2020 03:44:09	120220	12022020	034409	190.67	13.478400	-56.973942	190.91	-0.540	0.160	1.980	190.67	-1.20	2.40	 	 	 	 	 	 	 	 	 	 	 	 	 	 	 	 	 	 	1581479049	8.34	15.45
12/02/2020 03:44:10	120220	12022020	034410	190.73	13.478362	-56.973950	190.98	-0.550	0.390	1.900	190.73	-0.90	2.40	 	 	 	 	 	 	 	 	 	 	 	 	 	 	 	 	 	 	1581479050	8.32	15.41
12/02/2020 03:44:11	120220	12022020	034411	190.83	13.478323	-56.973960	191.08	-0.420	0.250	1.770	190.83	-1.10	2.20	 	 	 	 	 	 	 	 	 	 	 	 	 	 	 	 	 	 	1581479051	8.45	15.65
12/02/2020 03:44:12	120220	12022020	034412	190.97	13.478283	-56.973972	191.23	-0.200	-0.070	1.670	190.97	-1.40	2.10	 	 	 	 	 	 	 	 	 	 	 	 	 	 	 	 	 	 	1581479052	8.71	16.13
12/02/2020 03:44:13	120220	12022020	034413	191.25	13.478245	-56.973980	191.50	0.070	-0.200	1.530	191.25	-1.50	2.00	 	 	 	 	 	 	 	 	 	 	 	 	 	 	 	 	 	 	1581479053	8.85	16.39
12/02/2020 03:44:14	120220	12022020	034414	191.48	13.478207	-56.973987	191.71	0.320	-0.190	1.360	191.48	-1.50	1.80	 	 	 	 	 	 	 	 	 	 	 	 	 	 	 	 	 	 	1581479054	8.55	15.83
12/02/2020 03:44:15	120220	12022020	034415	191.43	13.478168	-56.973993	191.65	0.420	-0.340	1.480	191.43	-1.70	2.00	 	 	 	 	 	 	 	 	 	 	 	 	 	 	 	 	 	 	1581479055	8.26	15.30
12/02/2020 03:44:16	120220	12022020	034416	191.05	13.478128	-56.974003	191.28	0.280	-0.580	2.000	191.05	-1.90	2.50	 	 	 	 	 	 	 	 	 	 	 	 	 	 	 	 	 	 	1581479056	8.42	15.59
12/02/2020 03:44:17	120220	12022020	034417	190.67	13.478090	-56.974015	190.92	-0.030	-0.640	2.470	190.67	-1.90	2.90	 	 	 	 	 	 	 	 	 	 	 	 	 	 	 	 	 	 	1581479057	8.63	15.98
12/02/2020 03:44:18	120220	12022020	034418	190.53	13.478053	-56.974027	190.79	-0.270	-0.400	2.570	190.53	-1.70	3.00	 	 	 	 	 	 	 	 	 	 	 	 	 	 	 	 	 	 	1581479058	8.62	15.96
12/02/2020 03:44:19	120220	12022020	034419	190.63	13.478017	-56.974037	190.88	-0.240	-0.090	2.250	190.63	-1.40	2.70	 	 	 	 	 	 	 	 	 	 	 	 	 	 	 	 	 	 	1581479059	8.33	15.43
12/02/2020 03:44:20	120220	12022020	034420	190.77	13.477978	-56.974043	191.03	0.030	-0.040	1.790	190.77	-1.40	2.20	 	 	 	 	 	 	 	 	 	 	 	 	 	 	 	 	 	 	1581479060	8.18	15.15
12/02/2020 03:44:21	120220	12022020	034421	190.89	13.477938	-56.974050	191.14	0.300	-0.190	1.410	190.89	-1.50	1.90	 	 	 	 	 	 	 	 	 	 	 	 	 	 	 	 	 	 	1581479061	8.42	15.59
12/02/2020 03:44:22	120220	12022020	034422	190.93	13.477900	-56.974058	191.17	0.320	-0.220	1.340	190.93	-1.50	1.80	 	 	 	 	 	 	 	 	 	 	 	 	 	 	 	 	 	 	1581479062	8.64	16.00
12/02/2020 03:44:23	120220	12022020	034423	190.99	13.477863	-56.974067	191.23	0.050	-0.030	1.430	190.99	-1.40	1.90	 	 	 	 	 	 	 	 	 	 	 	 	 	 	 	 	 	 	1581479063	8.49	15.72
12/02/2020 03:44:24	120220	12022020	034424	191.20	13.477827	-56.974077	191.45	-0.310	0.020	1.600	191.20	-1.30	2.10	 	 	 	 	 	 	 	 	 	 	 	 	 	 	 	 	 	 	1581479064	8.17	15.13
12/02/2020 03:44:25	120220	12022020	034425	191.33	13.477788	-56.974090	191.58	-0.400	-0.380	1.910	191.33	-1.70	2.40	 	 	 	 	 	 	 	 	 	 	 	 	 	 	 	 	 	 	1581479065	8.16	15.11
12/02/2020 03:44:26	120220	12022020	034426	191.15	13.477748	-56.974103	191.39	-0.100	-0.910	2.220	191.15	-2.20	2.70	 	 	 	 	 	 	 	 	 	 	 	 	 	 	 	 	 	 	1581479066	8.69	16.09
12/02/2020 03:44:27	120220	12022020	034427	190.83	13.477708	-56.974113	191.08	0.270	-0.890	2.400	190.83	-2.20	2.90	 	 	 	 	 	 	 	 	 	 	 	 	 	 	 	 	 	 	1581479067	9.06	16.78
12/02/2020 03:44:28	120220	12022020	034428	190.77	13.477672	-56.974120	191.05	0.350	-0.190	2.060	190.79	-1.50	2.50	 	 	 	 	 	 	 	 	 	 	 	 	 	 	 	 	 	 	1581479068	8.72	16.15
12/02/2020 03:44:29	120220	12022020	034429	190.97	13.477637	-56.974123	191.22	0.190	0.430	1.340	190.97	-0.90	1.80	 	 	 	 	 	 	 	 	 	 	 	 	 	 	 	 	 	 	1581479069	7.94	14.70
12/02/2020 03:44:30	120220	12022020	034430	191.14	13.477597	-56.974127	191.38	0.010	0.290	0.880	191.14	-1.10	1.40	 	 	 	 	 	 	 	 	 	 	 	 	 	 	 	 	 	 	1581479070	7.83	14.50
12/02/2020 03:44:31	120220	12022020	034431	191.19	13.477555	-56.974135	191.42	-0.040	-0.420	1.020	191.19	-1.80	1.50	 	 	 	 	 	 	 	 	 	 	 	 	 	 	 	 	 	 	1581479071	8.55	15.83
12/02/2020 03:44:32	120220	12022020	034432	191.01	13.477513	-56.974147	191.25	-0.030	-1.060	1.620	191.01	-2.40	2.10	 	 	 	 	 	 	 	 	 	 	 	 	 	 	 	 	 	 	1581479072	9.15	16.95
12/02/2020 03:44:33	120220	12022020	034433	190.78	13.477475	-56.974160	191.03	-0.120	-1.070	2.330	190.78	-2.40	2.80	 	 	 	 	 	 	 	 	 	 	 	 	 	 	 	 	 	 	1581479073	9.25	17.13
12/02/2020 03:44:34	120220	12022020	034434	190.64	13.477438	-56.974173	190.90	-0.400	-0.500	2.870	190.64	-1.80	3.30	 	 	 	 	 	 	 	 	 	 	 	 	 	 	 	 	 	 	1581479074	8.78	16.26
12/02/2020 03:44:35	120220	12022020	034435	190.54	13.477403	-56.974188	190.80	-0.690	0.100	3.180	190.54	-1.20	3.60	 	 	 	 	 	 	 	 	 	 	 	 	 	 	 	 	 	 	1581479075	8.20	15.19
12/02/2020 03:44:36	120220	12022020	034436	190.33	13.477367	-56.974202	190.59	-0.660	0.350	3.220	190.33	-1.00	3.70	 	 	 	 	 	 	 	 	 	 	 	 	 	 	 	 	 	 	1581479076	8.14	15.08
12/02/2020 03:44:37	120220	12022020	034437	190.19	13.477328	-56.974212	190.46	-0.190	0.440	2.870	190.19	-0.90	3.30	 	 	 	 	 	 	 	 	 	 	 	 	 	 	 	 	 	 	1581479077	8.48	15.70
12/02/2020 03:44:38	120220	12022020	034438	190.35	13.477290	-56.974217	190.63	0.390	0.630	2.150	190.35	-0.70	2.60	 	 	 	 	 	 	 	 	 	 	 	 	 	 	 	 	 	 	1581479078	8.57	15.87
12/02/2020 03:44:39	120220	12022020	034439	190.75	13.477252	-56.974218	191.02	0.750	0.500	1.230	190.75	-0.90	1.70	 	 	 	 	 	 	 	 	 	 	 	 	 	 	 	 	 	 	1581479079	8.26	15.30
12/02/2020 03:44:40	120220	12022020	034440	191.20	13.477212	-56.974220	191.46	0.790	-0.150	0.560	191.20	-1.50	1.00	 	 	 	 	 	 	 	 	 	 	 	 	 	 	 	 	 	 	1581479080	8.30	15.37
12/02/2020 03:44:41	120220	12022020	034441	191.59	13.477172	-56.974228	191.82	0.690	-0.990	0.610	191.59	-2.40	1.10	 	 	 	 	 	 	 	 	 	 	 	 	 	 	 	 	 	 	1581479081	8.65	16.02
12/02/2020 03:44:42	120220	12022020	034442	191.54	13.477132	-56.974238	191.76	0.630	-1.750	1.260	191.54	-3.10	1.80	 	 	 	 	 	 	 	 	 	 	 	 	 	 	 	 	 	 	1581479082	8.71	16.13
12/02/2020 03:44:43	120220	12022020	034443	190.90	13.477092	-56.974250	191.11	0.500	-2.070	2.410	190.90	-3.40	2.90	 	 	 	 	 	 	 	 	 	 	 	 	 	 	 	 	 	 	1581479083	8.80	16.30
12/02/2020 03:44:44	120220	12022020	034444	190.17	13.477055	-56.974265	190.41	-0.090	-1.450	3.560	190.17	-2.70	4.00	 	 	 	 	 	 	 	 	 	 	 	 	 	 	 	 	 	 	1581479084	8.88	16.45
12/02/2020 03:44:45	120220	12022020	034445	189.83	13.477022	-56.974282	190.11	-1.000	-0.240	4.100	189.83	-1.50	4.60	 	 	 	 	 	 	 	 	 	 	 	 	 	 	 	 	 	 	1581479085	8.44	15.63
12/02/2020 03:44:46	120220	12022020	034446	189.92	13.476987	-56.974297	190.23	-1.640	0.800	4.020	189.92	-0.50	4.50	 	 	 	 	 	 	 	 	 	 	 	 	 	 	 	 	 	 	1581479086	8.04	14.89
12/02/2020 03:44:47	120220	12022020	034447	190.38	13.476950	-56.974310	190.71	-1.570	1.210	3.380	190.38	-0.10	3.80	 	 	 	 	 	 	 	 	 	 	 	 	 	 	 	 	 	 	1581479087	8.11	15.02
12/02/2020 03:44:48	120220	12022020	034448	190.94	13.476910	-56.974318	191.24	-0.740	0.930	2.270	190.94	-0.40	2.70	 	 	 	 	 	 	 	 	 	 	 	 	 	 	 	 	 	 	1581479088	8.45	15.65
12/02/2020 03:44:49	120220	12022020	034449	191.26	13.476867	-56.974323	191.52	0.450	0.310	1.130	191.26	-1.10	1.50	 	 	 	 	 	 	 	 	 	 	 	 	 	 	 	 	 	 	1581479089	8.88	16.45
12/02/2020 03:44:50	120220	12022020	034450	191.53	13.476827	-56.974323	191.76	1.240	-0.010	0.150	191.53	-1.40	0.60	 	 	 	 	 	 	 	 	 	 	 	 	 	 	 	 	 	 	1581479090	9.19	17.02
12/02/2020 03:44:51	120220	12022020	034451	191.77	13.476788	-56.974325	191.99	1.280	-0.020	-0.350	191.77	-1.40	0.10	 	 	 	 	 	 	 	 	 	 	 	 	 	 	 	 	 	 	1581479091	8.78	16.26
12/02/2020 03:44:52	120220	12022020	034452	191.83	13.476752	-56.974330	192.03	0.810	-0.250	-0.020	191.83	-1.60	0.50	 	 	 	 	 	 	 	 	 	 	 	 	 	 	 	 	 	 	1581479092	8.08	14.96
12/02/2020 03:44:53	120220	12022020	034453	191.55	13.476713	-56.974342	191.77	0.250	-0.910	1.170	191.55	-2.30	1.70	 	 	 	 	 	 	 	 	 	 	 	 	 	 	 	 	 	 	1581479093	7.96	14.74
12/02/2020 03:44:54	120220	12022020	034454	191.05	13.476677	-56.974360	191.29	-0.190	-1.550	2.710	191.05	-2.90	3.20	 	 	 	 	 	 	 	 	 	 	 	 	 	 	 	 	 	 	1581479094	8.55	15.83
12/02/2020 03:44:55	120220	12022020	034455	190.49	13.476638	-56.974380	190.76	-0.500	-1.670	3.950	190.49	-3.00	4.40	 	 	 	 	 	 	 	 	 	 	 	 	 	 	 	 	 	 	1581479095	9.05	16.76
12/02/2020 03:44:56	120220	12022020	034456	190.14	13.476603	-56.974397	190.43	-0.590	-1.170	4.270	190.14	-2.50	4.70	 	 	 	 	 	 	 	 	 	 	 	 	 	 	 	 	 	 	1581479096	9.02	16.71
12/02/2020 03:44:57	120220	12022020	034457	190.12	13.476567	-56.974407	190.42	-0.450	-0.410	3.640	190.12	-1.70	4.00	 	 	 	 	 	 	 	 	 	 	 	 	 	 	 	 	 	 	1581479097	8.47	15.69
12/02/2020 03:44:58	120220	12022020	034458	190.31	13.476528	-56.974412	190.61	-0.190	0.190	2.490	190.31	-1.10	2.90	 	 	 	 	 	 	 	 	 	 	 	 	 	 	 	 	 	 	1581479098	8.09	14.98
12/02/2020 03:44:59	120220	12022020	034459	190.67	13.476488	-56.974415	190.96	-0.040	0.510	1.360	190.67	-0.80	1.80	 	 	 	 	 	 	 	 	 	 	 	 	 	 	 	 	 	 	1581479099	8.24	15.26
12/02/2020 03:45:00	120220	12022020	034500	191.06	13.476450	-56.974418	191.32	-0.100	0.610	0.620	191.06	-0.70	1.10	 	 	 	 	 	 	 	 	 	 	 	 	 	 	 	 	 	 	1581479100	8.50	15.74
12/02/2020 03:45:01	120220	12022020	034501	191.27	13.476412	-56.974427	191.51	-0.180	0.550	0.480	191.27	-0.80	1.00	1016.90	26.10	26.10	20.90	21.00	-1.0	73.0	73.0	412.0	25.7	252.00	10.50	64.00	12.50	16	9253.0	27.2	27.2	1581479101	8.53	15.80
12/02/2020 03:45:02	120220	12022020	034502	191.30	13.476373	-56.974437	191.54	-0.060	0.370	0.780	191.30	-1.00	1.30	 	 	 	 	 	 	 	 	 	 	 	 	 	 	 	 	 	 	1581479102	8.48	15.70
12/02/2020 03:45:03	120220	12022020	034503	191.31	13.476335	-56.974447	191.56	0.230	0.190	1.210	191.31	-1.20	1.70	 	 	 	 	 	 	 	 	 	 	 	 	 	 	 	 	 	 	1581479103	8.49	15.72
12/02/2020 03:45:04	120220	12022020	034504	191.36	13.476298	-56.974457	191.62	0.410	-0.010	1.660	191.36	-1.40	2.10	 	 	 	 	 	 	 	 	 	 	 	 	 	 	 	 	 	 	1581479104	8.33	15.43
12/02/2020 03:45:05	120220	12022020	034505	191.32	13.476262	-56.974467	191.57	0.430	-0.410	1.980	191.32	-1.80	2.40	 	 	 	 	 	 	 	 	 	 	 	 	 	 	 	 	 	 	1581479105	8.12	15.04
12/02/2020 03:45:06	120220	12022020	034506	191.12	13.476223	-56.974477	191.37	0.480	-1.050	2.020	191.12	-2.40	2.50	 	 	 	 	 	 	 	 	 	 	 	 	 	 	 	 	 	 	1581479106	8.21	15.20
12/02/2020 03:45:07	120220	12022020	034507	191.03	13.476185	-56.974483	191.29	0.600	-1.390	1.710	191.03	-2.70	2.20	 	 	 	 	 	 	 	 	 	 	 	 	 	 	 	 	 	 	1581479107	8.56	15.85
12/02/2020 03:45:08	120220	12022020	034508	191.07	13.476147	-56.974490	191.33	0.530	-1.290	1.480	191.07	-2.60	1.90	 	 	 	 	 	 	 	 	 	 	 	 	 	 	 	 	 	 	1581479108	8.47	15.69
12/02/2020 03:45:09	120220	12022020	034509	190.97	13.476110	-56.974500	191.19	0.110	-1.100	1.740	190.97	-2.40	2.20	 	 	 	 	 	 	 	 	 	 	 	 	 	 	 	 	 	 	1581479109	8.15	15.09
12/02/2020 03:45:10	120220	12022020	034510	190.59	13.476072	-56.974513	190.84	-0.580	-0.850	2.450	190.59	-2.20	2.90	 	 	 	 	 	 	 	 	 	 	 	 	 	 	 	 	 	 	1581479110	8.27	15.32
12/02/2020 03:45:11	120220	12022020	034511	190.19	13.476035	-56.974532	190.45	-1.200	-0.440	3.280	190.19	-1.70	3.80	 	 	 	 	 	 	 	 	 	 	 	 	 	 	 	 	 	 	1581479111	8.68	16.08
12/02/2020 03:45:12	120220	12022020	034512	189.85	13.475997	-56.974550	190.14	-1.360	0.180	3.770	189.85	-1.10	4.20	 	 	 	 	 	 	 	 	 	 	 	 	 	 	 	 	 	 	1581479112	8.92	16.52
12/02/2020 03:45:13	120220	12022020	034513	189.91	13.475960	-56.974563	190.23	-0.940	0.960	3.370	189.91	-0.30	3.80	 	 	 	 	 	 	 	 	 	 	 	 	 	 	 	 	 	 	1581479113	8.86	16.41
12/02/2020 03:45:14	120220	12022020	034514	190.45	13.475923	-56.974568	190.77	-0.200	1.510	2.320	190.45	0.20	2.70	 	 	 	 	 	 	 	 	 	 	 	 	 	 	 	 	 	 	1581479114	8.32	15.41
12/02/2020 03:45:15	120220	12022020	034515	191.10	13.475883	-56.974570	191.37	0.540	1.210	1.130	191.10	-0.20	1.50	 	 	 	 	 	 	 	 	 	 	 	 	 	 	 	 	 	 	1581479115	8.04	14.89
12/02/2020 03:45:16	120220	12022020	034516	191.46	13.475842	-56.974572	191.71	1.080	0.100	0.360	191.46	-1.30	0.80	 	 	 	 	 	 	 	 	 	 	 	 	 	 	 	 	 	 	1581479116	8.52	15.78
12/02/2020 03:45:17	120220	12022020	034517	191.54	13.475800	-56.974575	191.80	1.250	-0.910	0.370	191.54	-2.30	0.90	 	 	 	 	 	 	 	 	 	 	 	 	 	 	 	 	 	 	1581479117	9.16	16.96
12/02/2020 03:45:18	120220	12022020	034518	191.61	13.475765	-56.974583	191.87	0.880	-1.120	0.990	191.62	-2.40	1.50	 	 	 	 	 	 	 	 	 	 	 	 	 	 	 	 	 	 	1581479118	8.89	16.46
12/02/2020 03:45:19	120220	12022020	034519	191.50	13.475732	-56.974595	191.76	0.170	-1.000	2.040	191.50	-2.30	2.50	 	 	 	 	 	 	 	 	 	 	 	 	 	 	 	 	 	 	1581479119	7.86	14.56
12/02/2020 03:45:20	120220	12022020	034520	190.97	13.475697	-56.974613	191.24	-0.390	-1.120	3.220	190.97	-2.50	3.70	 	 	 	 	 	 	 	 	 	 	 	 	 	 	 	 	 	 	1581479120	7.56	14.00
12/02/2020 03:45:21	120220	12022020	034521	190.34	13.475660	-56.974630	190.62	-0.560	-1.350	4.060	190.34	-2.70	4.50	 	 	 	 	 	 	 	 	 	 	 	 	 	 	 	 	 	 	1581479121	8.26	15.30
12/02/2020 03:45:22	120220	12022020	034522	189.91	13.475622	-56.974645	190.20	-0.440	-1.130	4.240	189.91	-2.40	4.70	 	 	 	 	 	 	 	 	 	 	 	 	 	 	 	 	 	 	1581479122	8.88	16.45
12/02/2020 03:45:23	120220	12022020	034523	189.89	13.475585	-56.974655	190.19	-0.250	-0.330	3.660	189.89	-1.60	4.10	 	 	 	 	 	 	 	 	 	 	 	 	 	 	 	 	 	 	1581479123	8.71	16.13
12/02/2020 03:45:24	120220	12022020	034524	190.21	13.475548	-56.974660	190.51	-0.070	0.500	2.560	190.21	-0.80	3.00	 	 	 	 	 	 	 	 	 	 	 	 	 	 	 	 	 	 	1581479124	8.08	14.96
12/02/2020 03:45:25	120220	12022020	034525	190.62	13.475510	-56.974662	190.91	0.030	0.820	1.500	190.62	-0.50	1.90	 	 	 	 	 	 	 	 	 	 	 	 	 	 	 	 	 	 	1581479125	7.92	14.67
12/02/2020 03:45:26	120220	12022020	034526	191.22	13.475472	-56.974667	191.50	-0.020	0.790	0.690	191.22	-0.60	1.10	 	 	 	 	 	 	 	 	 	 	 	 	 	 	 	 	 	 	1581479126	8.35	15.46
12/02/2020 03:45:27	120220	12022020	034527	191.86	13.475433	-56.974673	192.11	-0.140	0.580	0.450	191.86	-0.80	0.90	 	 	 	 	 	 	 	 	 	 	 	 	 	 	 	 	 	 	1581479127	8.48	15.70
12/02/2020 03:45:28	120220	12022020	034528	192.16	13.475395	-56.974683	192.39	-0.090	0.060	0.720	192.16	-1.30	1.20	 	 	 	 	 	 	 	 	 	 	 	 	 	 	 	 	 	 	1581479128	8.24	15.26
12/02/2020 03:45:29	120220	12022020	034529	192.10	13.475357	-56.974693	192.32	0.200	-0.730	1.200	192.10	-2.10	1.70	 	 	 	 	 	 	 	 	 	 	 	 	 	 	 	 	 	 	1581479129	8.32	15.41
12/02/2020 03:45:30	120220	12022020	034530	191.85	13.475318	-56.974705	192.06	0.490	-1.320	1.700	191.85	-2.70	2.20	 	 	 	 	 	 	 	 	 	 	 	 	 	 	 	 	 	 	1581479130	8.66	16.04
12/02/2020 03:45:31	120220	12022020	034531	191.53	13.475282	-56.974715	191.75	0.510	-1.260	2.110	191.53	-2.60	2.60	 	 	 	 	 	 	 	 	 	 	 	 	 	 	 	 	 	 	1581479131	8.62	15.96
12/02/2020 03:45:32	120220	12022020	034532	191.36	13.475248	-56.974725	191.60	0.170	-0.500	2.360	191.36	-1.80	2.80	 	 	 	 	 	 	 	 	 	 	 	 	 	 	 	 	 	 	1581479132	8.14	15.08
12/02/2020 03:45:33	120220	12022020	034533	191.29	13.475215	-56.974733	191.53	-0.270	0.340	2.350	191.29	-1.00	2.80	 	 	 	 	 	 	 	 	 	 	 	 	 	 	 	 	 	 	1581479133	7.45	13.80
12/02/2020 03:45:34	120220	12022020	034534	190.99	13.475178	-56.974743	191.21	-0.360	0.310	2.220	190.99	-1.00	2.70	 	 	 	 	 	 	 	 	 	 	 	 	 	 	 	 	 	 	1581479134	7.27	13.46
12/02/2020 03:45:35	120220	12022020	034535	190.50	13.475137	-56.974755	190.73	-0.010	-0.520	2.260	190.50	-1.90	2.70	 	 	 	 	 	 	 	 	 	 	 	 	 	 	 	 	 	 	1581479135	8.18	15.15
12/02/2020 03:45:36	120220	12022020	034536	190.59	13.475097	-56.974765	190.86	0.330	-0.710	1.990	190.59	-2.00	2.40	 	 	 	 	 	 	 	 	 	 	 	 	 	 	 	 	 	 	1581479136	9.39	17.39
12/02/2020 03:45:37	120220	12022020	034537	191.47	13.475063	-56.974773	191.77	0.170	0.040	1.530	191.47	-1.30	2.00	 	 	 	 	 	 	 	 	 	 	 	 	 	 	 	 	 	 	1581479137	8.91	16.50
12/02/2020 03:45:38	120220	12022020	034538	192.49	13.475032	-56.974783	192.76	-0.360	0.640	1.340	192.49	-0.70	1.80	 	 	 	 	 	 	 	 	 	 	 	 	 	 	 	 	 	 	1581479138	7.49	13.87
12/02/2020 03:45:39	120220	12022020	034539	192.90	13.474995	-56.974797	193.13	-0.580	0.140	1.630	192.90	-1.20	2.10	 	 	 	 	 	 	 	 	 	 	 	 	 	 	 	 	 	 	1581479139	7.14	13.22
12/02/2020 03:45:40	120220	12022020	034540	192.80	13.474957	-56.974812	193.03	-0.280	-0.820	2.140	192.80	-2.20	2.60	 	 	 	 	 	 	 	 	 	 	 	 	 	 	 	 	 	 	1581479140	8.20	15.19
12/02/2020 03:45:41	120220	12022020	034541	192.58	13.474918	-56.974823	192.80	0.170	-1.070	2.530	192.58	-2.40	3.00	 	 	 	 	 	 	 	 	 	 	 	 	 	 	 	 	 	 	1581479141	8.95	16.58
12/02/2020 03:45:42	120220	12022020	034542	192.23	13.474885	-56.974833	192.44	0.390	-0.660	2.720	192.23	-2.00	3.20	 	 	 	 	 	 	 	 	 	 	 	 	 	 	 	 	 	 	1581479142	8.37	15.50
12/02/2020 03:45:43	120220	12022020	034543	191.75	13.474850	-56.974842	191.97	0.350	-0.220	2.800	191.75	-1.50	3.30	 	 	 	 	 	 	 	 	 	 	 	 	 	 	 	 	 	 	1581479143	7.69	14.24
12/02/2020 03:45:44	120220	12022020	034544	191.36	13.474813	-56.974852	191.59	0.220	0.080	2.760	191.36	-1.30	3.20	 	 	 	 	 	 	 	 	 	 	 	 	 	 	 	 	 	 	1581479144	7.80	14.45
12/02/2020 03:45:45	120220	12022020	034545	191.16	13.474777	-56.974862	191.40	0.170	0.320	2.570	191.16	-1.00	3.00	 	 	 	 	 	 	 	 	 	 	 	 	 	 	 	 	 	 	1581479145	8.06	14.93
12/02/2020 03:45:46	120220	12022020	034546	191.15	13.474740	-56.974870	191.40	0.230	0.500	2.200	191.15	-0.80	2.60	 	 	 	 	 	 	 	 	 	 	 	 	 	 	 	 	 	 	1581479146	8.10	15.00
12/02/2020 03:45:47	120220	12022020	034547	191.28	13.474705	-56.974878	191.52	0.260	0.430	1.720	191.28	-0.90	2.20	 	 	 	 	 	 	 	 	 	 	 	 	 	 	 	 	 	 	1581479147	7.93	14.69
12/02/2020 03:45:48	120220	12022020	034548	191.49	13.474668	-56.974885	191.73	0.100	0.070	1.380	191.49	-1.30	1.80	 	 	 	 	 	 	 	 	 	 	 	 	 	 	 	 	 	 	1581479148	7.92	14.67
12/02/2020 03:45:49	120220	12022020	034549	191.65	13.474633	-56.974897	191.89	-0.240	-0.490	1.470	191.65	-1.90	1.90	 	 	 	 	 	 	 	 	 	 	 	 	 	 	 	 	 	 	1581479149	7.97	14.76
12/02/2020 03:45:50	120220	12022020	034550	191.60	13.474597	-56.974910	191.82	-0.470	-1.150	1.840	191.60	-2.50	2.30	 	 	 	 	 	 	 	 	 	 	 	 	 	 	 	 	 	 	1581479150	8.05	14.91
12/02/2020 03:45:51	120220	12022020	034551	191.36	13.474560	-56.974925	191.58	-0.390	-1.670	2.230	191.36	-3.00	2.70	 	 	 	 	 	 	 	 	 	 	 	 	 	 	 	 	 	 	1581479151	8.31	15.39
12/02/2020 03:45:52	120220	12022020	034552	190.96	13.474523	-56.974938	191.18	-0.090	-1.700	2.560	190.96	-3.00	3.00	 	 	 	 	 	 	 	 	 	 	 	 	 	 	 	 	 	 	1581479152	8.49	15.72
12/02/2020 03:45:53	120220	12022020	034553	190.52	13.474487	-56.974948	190.74	0.090	-1.040	2.720	190.52	-2.30	3.20	 	 	 	 	 	 	 	 	 	 	 	 	 	 	 	 	 	 	1581479153	8.40	15.56
12/02/2020 03:45:54	120220	12022020	034554	190.15	13.474452	-56.974957	190.38	0.070	-0.000	2.620	190.15	-1.30	3.10	 	 	 	 	 	 	 	 	 	 	 	 	 	 	 	 	 	 	1581479154	7.96	14.74
12/02/2020 03:45:55	120220	12022020	034555	189.94	13.474417	-56.974963	190.19	-0.050	0.860	2.390	189.94	-0.40	2.80	 	 	 	 	 	 	 	 	 	 	 	 	 	 	 	 	 	 	1581479155	7.68	14.22
12/02/2020 03:45:56	120220	12022020	034556	190.09	13.474380	-56.974970	190.36	-0.210	1.330	2.100	190.09	0.00	2.60	 	 	 	 	 	 	 	 	 	 	 	 	 	 	 	 	 	 	1581479156	7.84	14.52
12/02/2020 03:45:57	120220	12022020	034557	190.52	13.474343	-56.974978	190.80	-0.280	1.300	1.870	190.52	-0.10	2.30	 	 	 	 	 	 	 	 	 	 	 	 	 	 	 	 	 	 	1581479157	8.03	14.87
12/02/2020 03:45:58	120220	12022020	034558	191.02	13.474305	-56.974987	191.29	-0.140	0.770	1.730	191.02	-0.60	2.20	 	 	 	 	 	 	 	 	 	 	 	 	 	 	 	 	 	 	1581479158	8.12	15.04
12/02/2020 03:45:59	120220	12022020	034559	191.28	13.474268	-56.974997	191.55	0.190	-0.160	1.850	191.28	-1.60	2.30	 	 	 	 	 	 	 	 	 	 	 	 	 	 	 	 	 	 	1581479159	8.19	15.17
12/02/2020 03:46:00	120220	12022020	034600	191.19	13.474230	-56.975008	191.44	0.470	-1.200	2.340	191.19	-2.60	2.80	 	 	 	 	 	 	 	 	 	 	 	 	 	 	 	 	 	 	1581479160	8.36	15.48
12/02/2020 03:46:01	120220	12022020	034601	190.93	13.474193	-56.975022	191.20	0.430	-1.730	3.020	190.93	-3.10	3.50	1016.90	26.20	26.20	21.40	21.40	-1.0	74.0	74.0	408.0	25.7	262.00	9.20	70.00	10.70	16	8437.0	27.2	27.2	1581479161	8.53	15.80
12/02/2020 03:46:02	120220	12022020	034602	190.78	13.474162	-56.975035	191.07	0.130	-1.340	3.430	190.78	-2.70	3.90	 	 	 	 	 	 	 	 	 	 	 	 	 	 	 	 	 	 	1581479162	8.28	15.33
12/02/2020 03:46:03	120220	12022020	034603	190.79	13.474130	-56.975045	191.07	-0.090	-0.470	3.260	190.79	-1.80	3.70	 	 	 	 	 	 	 	 	 	 	 	 	 	 	 	 	 	 	1581479163	7.55	13.98
12/02/2020 03:46:04	120220	12022020	034604	190.67	13.474095	-56.975052	190.93	0.030	-0.180	2.780	190.67	-1.50	3.20	 	 	 	 	 	 	 	 	 	 	 	 	 	 	 	 	 	 	1581479164	6.97	12.91
12/02/2020 03:46:05	120220	12022020	034605	190.37	13.474055	-56.975058	190.61	0.260	-0.500	2.370	190.37	-1.90	2.80	 	 	 	 	 	 	 	 	 	 	 	 	 	 	 	 	 	 	1581479165	7.69	14.24
12/02/2020 03:46:06	120220	12022020	034606	190.21	13.474015	-56.975065	190.47	0.120	-0.500	2.140	190.21	-1.80	2.60	 	 	 	 	 	 	 	 	 	 	 	 	 	 	 	 	 	 	1581479166	8.73	16.17
12/02/2020 03:46:07	120220	12022020	034607	190.36	13.473980	-56.975075	190.62	-0.430	-0.000	2.180	190.36	-1.30	2.60	 	 	 	 	 	 	 	 	 	 	 	 	 	 	 	 	 	 	1581479167	8.57	15.87
12/02/2020 03:46:08	120220	12022020	034608	190.65	13.473947	-56.975087	190.99	-0.930	0.560	2.240	190.73	-0.80	2.70	 	 	 	 	 	 	 	 	 	 	 	 	 	 	 	 	 	 	1581479168	7.95	14.72
12/02/2020 03:46:09	120220	12022020	034609	191.15	13.473912	-56.975098	191.41	-0.830	0.700	2.140	191.15	-0.70	2.60	 	 	 	 	 	 	 	 	 	 	 	 	 	 	 	 	 	 	1581479169	7.75	14.35
12/02/2020 03:46:10	120220	12022020	034610	191.58	13.473873	-56.975107	191.84	-0.150	0.420	1.660	191.58	-1.00	2.10	 	 	 	 	 	 	 	 	 	 	 	 	 	 	 	 	 	 	1581479170	7.97	14.76
12/02/2020 03:46:11	120220	12022020	034611	192.08	13.473837	-56.975112	192.32	0.510	-0.010	0.990	192.08	-1.40	1.40	 	 	 	 	 	 	 	 	 	 	 	 	 	 	 	 	 	 	1581479171	8.24	15.26
12/02/2020 03:46:12	120220	12022020	034612	192.27	13.473798	-56.975118	192.47	0.720	-0.590	0.800	192.27	-2.00	1.30	 	 	 	 	 	 	 	 	 	 	 	 	 	 	 	 	 	 	1581479172	8.21	15.20
12/02/2020 03:46:13	120220	12022020	034613	191.84	13.473760	-56.975127	192.01	0.540	-1.180	1.240	191.84	-2.60	1.70	 	 	 	 	 	 	 	 	 	 	 	 	 	 	 	 	 	 	1581479173	8.17	15.13
12/02/2020 03:46:14	120220	12022020	034614	191.09	13.473725	-56.975138	191.26	0.240	-1.240	1.930	191.09	-2.60	2.40	 	 	 	 	 	 	 	 	 	 	 	 	 	 	 	 	 	 	1581479174	8.32	15.41
12/02/2020 03:46:15	120220	12022020	034615	190.49	13.473690	-56.975152	190.69	-0.080	-0.700	2.580	190.49	-2.00	3.00	 	 	 	 	 	 	 	 	 	 	 	 	 	 	 	 	 	 	1581479175	8.16	15.11
12/02/2020 03:46:16	120220	12022020	034616	190.33	13.473657	-56.975165	190.57	-0.420	0.020	2.910	190.33	-1.30	3.40	 	 	 	 	 	 	 	 	 	 	 	 	 	 	 	 	 	 	1581479176	7.81	14.46
12/02/2020 03:46:17	120220	12022020	034617	190.63	13.473623	-56.975180	190.88	-0.680	0.530	2.760	190.63	-0.80	3.20	 	 	 	 	 	 	 	 	 	 	 	 	 	 	 	 	 	 	1581479177	7.73	14.32
12/02/2020 03:46:18	120220	12022020	034618	191.19	13.473588	-56.975190	191.43	-0.690	0.630	2.200	191.19	-0.80	2.60	 	 	 	 	 	 	 	 	 	 	 	 	 	 	 	 	 	 	1581479178	7.81	14.46
12/02/2020 03:46:19	120220	12022020	034619	191.63	13.473552	-56.975200	191.85	-0.410	0.270	1.640	191.63	-1.10	2.10	 	 	 	 	 	 	 	 	 	 	 	 	 	 	 	 	 	 	1581479179	7.91	14.65
12/02/2020 03:46:20	120220	12022020	034620	191.73	13.473513	-56.975208	191.93	0.030	-0.410	1.460	191.73	-1.80	1.90	 	 	 	 	 	 	 	 	 	 	 	 	 	 	 	 	 	 	1581479180	8.12	15.04
12/02/2020 03:46:21	120220	12022020	034621	191.42	13.473475	-56.975218	191.59	0.450	-1.070	1.590	191.42	-2.50	2.10	 	 	 	 	 	 	 	 	 	 	 	 	 	 	 	 	 	 	1581479181	8.43	15.61
12/02/2020 03:46:22	120220	12022020	034622	190.81	13.473437	-56.975228	190.98	0.720	-1.240	1.870	190.81	-2.60	2.30	 	 	 	 	 	 	 	 	 	 	 	 	 	 	 	 	 	 	1581479182	8.54	15.82
12/02/2020 03:46:23	120220	12022020	034623	190.40	13.473402	-56.975235	190.60	0.740	-0.610	1.930	190.40	-1.90	2.40	 	 	 	 	 	 	 	 	 	 	 	 	 	 	 	 	 	 	1581479183	8.32	15.41
12/02/2020 03:46:24	120220	12022020	034624	190.55	13.473370	-56.975242	190.77	0.450	0.510	1.660	190.55	-0.80	2.10	 	 	 	 	 	 	 	 	 	 	 	 	 	 	 	 	 	 	1581479184	7.67	14.20
12/02/2020 03:46:25	120220	12022020	034625	190.95	13.473338	-56.975248	191.16	0.000	1.120	1.570	190.95	-0.30	2.00	 	 	 	 	 	 	 	 	 	 	 	 	 	 	 	 	 	 	1581479185	6.99	12.95
12/02/2020 03:46:26	120220	12022020	034626	191.14	13.473302	-56.975260	191.34	-0.260	0.600	1.920	191.14	-0.80	2.40	 	 	 	 	 	 	 	 	 	 	 	 	 	 	 	 	 	 	1581479186	7.16	13.26
12/02/2020 03:46:27	120220	12022020	034627	191.01	13.473262	-56.975273	191.21	-0.250	-0.620	2.520	191.01	-2.00	3.00	 	 	 	 	 	 	 	 	 	 	 	 	 	 	 	 	 	 	1581479187	8.20	15.19
12/02/2020 03:46:28	120220	12022020	034628	190.64	13.473222	-56.975288	190.84	-0.200	-1.520	3.190	190.64	-2.90	3.70	 	 	 	 	 	 	 	 	 	 	 	 	 	 	 	 	 	 	1581479188	9.06	16.78
12/02/2020 03:46:29	120220	12022020	034629	190.17	13.473187	-56.975302	190.38	-0.310	-1.580	3.680	190.17	-2.90	4.10	 	 	 	 	 	 	 	 	 	 	 	 	 	 	 	 	 	 	1581479189	8.98	16.63
12/02/2020 03:46:30	120220	12022020	034630	189.84	13.473152	-56.975315	190.05	-0.520	-0.970	3.720	189.84	-2.30	4.20	 	 	 	 	 	 	 	 	 	 	 	 	 	 	 	 	 	 	1581479190	8.32	15.41
12/02/2020 03:46:31	120220	12022020	034631	189.65	13.473118	-56.975325	189.85	-0.570	-0.180	3.370	189.65	-1.50	3.80	 	 	 	 	 	 	 	 	 	 	 	 	 	 	 	 	 	 	1581479191	7.73	14.32
12/02/2020 03:46:32	120220	12022020	034632	189.54	13.473083	-56.975333	189.74	-0.320	0.320	2.760	189.54	-1.00	3.20	 	 	 	 	 	 	 	 	 	 	 	 	 	 	 	 	 	 	1581479192	7.55	13.98
12/02/2020 03:46:33	120220	12022020	034633	189.58	13.473047	-56.975338	189.78	0.100	0.530	1.990	189.58	-0.80	2.40	 	 	 	 	 	 	 	 	 	 	 	 	 	 	 	 	 	 	1581479193	7.82	14.48
12/02/2020 03:46:34	120220	12022020	034634	189.70	13.473008	-56.975343	189.89	0.520	0.520	1.300	189.70	-0.90	1.80	 	 	 	 	 	 	 	 	 	 	 	 	 	 	 	 	 	 	1581479194	8.03	14.87
12/02/2020 03:46:35	120220	12022020	034635	189.70	13.472970	-56.975347	189.88	0.780	0.180	0.990	189.70	-1.20	1.50	 	 	 	 	 	 	 	 	 	 	 	 	 	 	 	 	 	 	1581479195	8.06	14.93
12/02/2020 03:46:36	120220	12022020	034636	189.70	13.472932	-56.975352	189.90	0.720	-0.210	1.040	189.70	-1.60	1.50	 	 	 	 	 	 	 	 	 	 	 	 	 	 	 	 	 	 	1581479196	8.30	15.37
12/02/2020 03:46:37	120220	12022020	034637	189.86	13.472897	-56.975360	190.07	0.300	-0.280	1.350	189.86	-1.60	1.80	 	 	 	 	 	 	 	 	 	 	 	 	 	 	 	 	 	 	1581479197	8.32	15.41
12/02/2020 03:46:38	120220	12022020	034638	190.20	13.472863	-56.975372	190.44	-0.230	-0.140	1.780	190.20	-1.50	2.30	 	 	 	 	 	 	 	 	 	 	 	 	 	 	 	 	 	 	1581479198	7.91	14.65
12/02/2020 03:46:39	120220	12022020	034639	190.51	13.472828	-56.975385	190.75	-0.480	-0.310	2.250	190.51	-1.70	2.70	 	 	 	 	 	 	 	 	 	 	 	 	 	 	 	 	 	 	1581479199	7.58	14.04
12/02/2020 03:46:40	120220	12022020	034640	190.51	13.472792	-56.975398	190.73	-0.270	-0.960	2.700	190.51	-2.30	3.20	 	 	 	 	 	 	 	 	 	 	 	 	 	 	 	 	 	 	1581479200	7.86	14.56
12/02/2020 03:46:41	120220	12022020	034641	190.19	13.472753	-56.975412	190.41	0.070	-1.470	3.060	190.19	-2.80	3.50	 	 	 	 	 	 	 	 	 	 	 	 	 	 	 	 	 	 	1581479201	8.54	15.82
12/02/2020 03:46:42	120220	12022020	034642	189.82	13.472717	-56.975422	190.05	0.070	-1.170	3.070	189.82	-2.50	3.50	 	 	 	 	 	 	 	 	 	 	 	 	 	 	 	 	 	 	1581479202	8.73	16.17
12/02/2020 03:46:43	120220	12022020	034643	189.61	13.472683	-56.975430	189.83	-0.210	-0.250	2.720	189.61	-1.60	3.20	 	 	 	 	 	 	 	 	 	 	 	 	 	 	 	 	 	 	1581479203	8.02	14.85
12/02/2020 03:46:44	120220	12022020	034644	189.50	13.472650	-56.975437	189.68	-0.330	0.480	2.310	189.47	-0.90	2.80	 	 	 	 	 	 	 	 	 	 	 	 	 	 	 	 	 	 	1581479204	7.32	13.56
12/02/2020 03:46:45	120220	12022020	034645	189.27	13.472612	-56.975443	189.48	-0.070	0.520	2.030	189.27	-0.90	2.50	 	 	 	 	 	 	 	 	 	 	 	 	 	 	 	 	 	 	1581479205	7.45	13.80
12/02/2020 03:46:46	120220	12022020	034646	189.37	13.472573	-56.975450	189.61	0.230	0.290	1.740	189.37	-1.10	2.20	 	 	 	 	 	 	 	 	 	 	 	 	 	 	 	 	 	 	1581479206	8.25	15.28
12/02/2020 03:46:47	120220	12022020	034647	189.91	13.472535	-56.975458	190.17	0.250	0.200	1.530	189.91	-1.20	2.00	 	 	 	 	 	 	 	 	 	 	 	 	 	 	 	 	 	 	1581479207	8.54	15.82
12/02/2020 03:46:48	120220	12022020	034648	190.61	13.472500	-56.975467	190.88	0.070	0.190	1.480	190.61	-1.20	2.00	 	 	 	 	 	 	 	 	 	 	 	 	 	 	 	 	 	 	1581479208	8.17	15.13
12/02/2020 03:46:49	120220	12022020	034649	191.10	13.472465	-56.975477	191.35	0.030	-0.080	1.590	191.10	-1.50	2.10	 	 	 	 	 	 	 	 	 	 	 	 	 	 	 	 	 	 	1581479209	7.76	14.37
12/02/2020 03:46:50	120220	12022020	034650	191.28	13.472428	-56.975487	191.52	0.200	-0.630	1.910	191.28	-2.00	2.40	 	 	 	 	 	 	 	 	 	 	 	 	 	 	 	 	 	 	1581479210	7.84	14.52
12/02/2020 03:46:51	120220	12022020	034651	191.12	13.472393	-56.975498	191.35	0.310	-1.030	2.450	191.12	-2.40	2.90	 	 	 	 	 	 	 	 	 	 	 	 	 	 	 	 	 	 	1581479211	8.15	15.09
12/02/2020 03:46:52	120220	12022020	034652	190.65	13.472357	-56.975510	190.87	0.210	-1.110	2.960	190.65	-2.50	3.40	 	 	 	 	 	 	 	 	 	 	 	 	 	 	 	 	 	 	1581479212	8.15	15.09
12/02/2020 03:46:53	120220	12022020	034653	190.06	13.472322	-56.975522	190.28	-0.060	-0.900	3.220	190.06	-2.20	3.70	 	 	 	 	 	 	 	 	 	 	 	 	 	 	 	 	 	 	1581479213	8.02	14.85
12/02/2020 03:46:54	120220	12022020	034654	189.59	13.472287	-56.975532	189.82	-0.290	-0.460	3.170	189.59	-1.80	3.60	 	 	 	 	 	 	 	 	 	 	 	 	 	 	 	 	 	 	1581479214	7.96	14.74
12/02/2020 03:46:55	120220	12022020	034655	189.44	13.472252	-56.975540	189.69	-0.360	0.130	2.660	189.44	-1.20	3.10	 	 	 	 	 	 	 	 	 	 	 	 	 	 	 	 	 	 	1581479215	7.91	14.65
12/02/2020 03:46:56	120220	12022020	034656	189.67	13.472215	-56.975545	189.93	-0.320	0.590	1.840	189.67	-0.80	2.30	 	 	 	 	 	 	 	 	 	 	 	 	 	 	 	 	 	 	1581479216	7.79	14.43
12/02/2020 03:46:57	120220	12022020	034657	190.05	13.472178	-56.975552	190.28	-0.230	0.530	1.200	190.05	-0.90	1.70	 	 	 	 	 	 	 	 	 	 	 	 	 	 	 	 	 	 	1581479217	7.76	14.37
12/02/2020 03:46:58	120220	12022020	034658	190.16	13.472140	-56.975560	190.34	-0.060	-0.090	1.170	190.14	-1.50	1.70	 	 	 	 	 	 	 	 	 	 	 	 	 	 	 	 	 	 	1581479218	8.05	14.91
12/02/2020 03:46:59	120220	12022020	034659	189.91	13.472100	-56.975572	190.11	0.130	-0.680	1.690	189.91	-2.10	2.20	 	 	 	 	 	 	 	 	 	 	 	 	 	 	 	 	 	 	1581479219	8.57	15.87
12/02/2020 03:47:00	120220	12022020	034700	189.81	13.472067	-56.975585	190.04	0.130	-0.490	2.330	189.81	-1.80	2.80	 	 	 	 	 	 	 	 	 	 	 	 	 	 	 	 	 	 	1581479220	8.70	16.11
12/02/2020 03:47:01	120220	12022020	034701	189.90	13.472035	-56.975597	190.13	0.010	0.160	2.620	189.90	-1.20	3.10	1017.00	26.00	26.10	20.70	20.90	-1.0	72.0	73.0	403.0	25.7	259.00	11.40	71.00	12.90	16	8372.0	27.2	27.2	1581479221	7.92	14.67
12/02/2020 03:47:02	120220	12022020	034702	189.91	13.472000	-56.975603	190.11	0.100	0.300	2.430	189.91	-1.10	2.90	 	 	 	 	 	 	 	 	 	 	 	 	 	 	 	 	 	 	1581479222	7.17	13.28
12/02/2020 03:47:03	120220	12022020	034703	189.66	13.471962	-56.975610	189.86	0.510	-0.260	2.130	189.66	-1.70	2.60	 	 	 	 	 	 	 	 	 	 	 	 	 	 	 	 	 	 	1581479223	7.48	13.85
12/02/2020 03:47:04	120220	12022020	034704	189.35	13.471923	-56.975613	189.55	0.780	-0.770	1.880	189.35	-2.10	2.40	 	 	 	 	 	 	 	 	 	 	 	 	 	 	 	 	 	 	1581479224	8.34	15.45
12/02/2020 03:47:05	120220	12022020	034705	189.25	13.471887	-56.975618	189.47	0.490	-0.740	1.700	189.25	-2.10	2.20	 	 	 	 	 	 	 	 	 	 	 	 	 	 	 	 	 	 	1581479225	8.50	15.74
12/02/2020 03:47:06	120220	12022020	034706	189.31	13.471853	-56.975628	189.53	-0.260	-0.370	1.840	189.31	-1.70	2.30	 	 	 	 	 	 	 	 	 	 	 	 	 	 	 	 	 	 	1581479226	7.89	14.61
12/02/2020 03:47:07	120220	12022020	034707	189.27	13.471820	-56.975642	189.51	-0.860	-0.180	2.380	189.27	-1.50	2.90	 	 	 	 	 	 	 	 	 	 	 	 	 	 	 	 	 	 	1581479227	7.47	13.83
12/02/2020 03:47:08	120220	12022020	034708	189.05	13.471783	-56.975658	189.29	-0.900	-0.300	2.970	189.05	-1.70	3.50	 	 	 	 	 	 	 	 	 	 	 	 	 	 	 	 	 	 	1581479228	7.81	14.46
12/02/2020 03:47:09	120220	12022020	034709	188.83	13.471747	-56.975672	189.08	-0.430	-0.510	3.230	188.83	-1.90	3.70	 	 	 	 	 	 	 	 	 	 	 	 	 	 	 	 	 	 	1581479229	8.36	15.48
12/02/2020 03:47:10	120220	12022020	034710	188.75	13.471708	-56.975680	189.01	0.190	-0.560	2.930	188.75	-1.90	3.40	 	 	 	 	 	 	 	 	 	 	 	 	 	 	 	 	 	 	1581479230	8.52	15.78
12/02/2020 03:47:11	120220	12022020	034711	188.72	13.471672	-56.975685	188.98	0.630	-0.390	2.230	188.72	-1.70	2.70	 	 	 	 	 	 	 	 	 	 	 	 	 	 	 	 	 	 	1581479231	8.32	15.41
12/02/2020 03:47:12	120220	12022020	034712	188.72	13.471633	-56.975683	188.96	0.710	-0.080	1.450	188.72	-1.40	1.90	 	 	 	 	 	 	 	 	 	 	 	 	 	 	 	 	 	 	1581479232	8.09	14.98
12/02/2020 03:47:13	120220	12022020	034713	188.81	13.471598	-56.975685	189.06	0.340	0.260	1.060	188.81	-1.10	1.60	 	 	 	 	 	 	 	 	 	 	 	 	 	 	 	 	 	 	1581479233	8.00	14.82
12/02/2020 03:47:14	120220	12022020	034714	188.92	13.471562	-56.975693	189.16	-0.330	0.330	1.350	188.92	-1.00	1.90	 	 	 	 	 	 	 	 	 	 	 	 	 	 	 	 	 	 	1581479234	7.83	14.50
12/02/2020 03:47:15	120220	12022020	034715	188.86	13.471527	-56.975707	189.10	-0.860	0.030	2.020	188.86	-1.40	2.50	 	 	 	 	 	 	 	 	 	 	 	 	 	 	 	 	 	 	1581479235	7.83	14.50
12/02/2020 03:47:16	120220	12022020	034716	188.84	13.471490	-56.975723	189.10	-0.870	-0.290	2.480	188.84	-1.70	3.00	 	 	 	 	 	 	 	 	 	 	 	 	 	 	 	 	 	 	1581479236	8.38	15.52
12/02/2020 03:47:17	120220	12022020	034717	188.92	13.471453	-56.975735	189.17	-0.390	-0.350	2.480	188.92	-1.70	2.90	 	 	 	 	 	 	 	 	 	 	 	 	 	 	 	 	 	 	1581479237	8.47	15.69
12/02/2020 03:47:18	120220	12022020	034718	188.81	13.471418	-56.975742	189.05	0.280	-0.410	2.290	188.81	-1.80	2.80	 	 	 	 	 	 	 	 	 	 	 	 	 	 	 	 	 	 	1581479238	8.00	14.82
12/02/2020 03:47:19	120220	12022020	034719	188.55	13.471380	-56.975747	188.79	0.770	-0.540	2.030	188.55	-1.90	2.50	 	 	 	 	 	 	 	 	 	 	 	 	 	 	 	 	 	 	1581479239	7.92	14.67
12/02/2020 03:47:20	120220	12022020	034720	188.58	13.471345	-56.975750	188.85	0.760	-0.300	1.670	188.58	-1.60	2.10	 	 	 	 	 	 	 	 	 	 	 	 	 	 	 	 	 	 	1581479240	8.12	15.04
12/02/2020 03:47:21	120220	12022020	034721	188.97	13.471312	-56.975755	189.23	0.310	0.200	1.440	188.97	-1.10	1.90	 	 	 	 	 	 	 	 	 	 	 	 	 	 	 	 	 	 	1581479241	7.80	14.45
12/02/2020 03:47:22	120220	12022020	034722	189.26	13.471277	-56.975762	189.51	-0.100	0.250	1.490	189.26	-1.10	2.00	 	 	 	 	 	 	 	 	 	 	 	 	 	 	 	 	 	 	1581479242	7.23	13.39
12/02/2020 03:47:23	120220	12022020	034723	189.19	13.471238	-56.975772	189.43	-0.070	-0.420	1.760	189.19	-1.80	2.30	 	 	 	 	 	 	 	 	 	 	 	 	 	 	 	 	 	 	1581479243	7.54	13.96
12/02/2020 03:47:24	120220	12022020	034724	189.02	13.471200	-56.975782	189.26	0.170	-1.130	2.120	189.02	-2.50	2.60	 	 	 	 	 	 	 	 	 	 	 	 	 	 	 	 	 	 	1581479244	8.44	15.63
12/02/2020 03:47:25	120220	12022020	034725	188.91	13.471162	-56.975790	189.16	0.200	-1.200	2.360	188.91	-2.50	2.80	 	 	 	 	 	 	 	 	 	 	 	 	 	 	 	 	 	 	1581479245	8.75	16.21
12/02/2020 03:47:26	120220	12022020	034726	188.71	13.471127	-56.975798	188.95	-0.070	-0.820	2.600	188.71	-2.20	3.10	 	 	 	 	 	 	 	 	 	 	 	 	 	 	 	 	 	 	1581479246	8.24	15.26
12/02/2020 03:47:27	120220	12022020	034727	188.38	13.471090	-56.975810	188.64	-0.460	-0.460	2.980	188.38	-1.80	3.50	 	 	 	 	 	 	 	 	 	 	 	 	 	 	 	 	 	 	1581479247	7.87	14.58
12/02/2020 03:47:28	120220	12022020	034728	188.23	13.471053	-56.975823	188.50	-0.770	-0.100	3.270	188.23	-1.40	3.70	 	 	 	 	 	 	 	 	 	 	 	 	 	 	 	 	 	 	1581479248	8.13	15.06
12/02/2020 03:47:29	120220	12022020	034729	188.50	13.471018	-56.975833	188.79	-0.770	0.520	2.880	188.50	-0.80	3.30	 	 	 	 	 	 	 	 	 	 	 	 	 	 	 	 	 	 	1581479249	8.36	15.48
12/02/2020 03:47:30	120220	12022020	034730	189.21	13.470983	-56.975838	189.49	-0.430	1.220	1.870	189.21	-0.10	2.30	 	 	 	 	 	 	 	 	 	 	 	 	 	 	 	 	 	 	1581479250	7.95	14.72
12/02/2020 03:47:31	120220	12022020	034731	189.88	13.470948	-56.975842	190.11	0.110	1.200	1.010	189.88	-0.20	1.50	 	 	 	 	 	 	 	 	 	 	 	 	 	 	 	 	 	 	1581479251	7.39	13.69
12/02/2020 03:47:32	120220	12022020	034732	190.13	13.470908	-56.975845	190.32	0.620	0.300	0.680	190.13	-1.10	1.20	 	 	 	 	 	 	 	 	 	 	 	 	 	 	 	 	 	 	1581479252	7.71	14.28
12/02/2020 03:47:33	120220	12022020	034733	190.04	13.470870	-56.975850	190.23	0.880	-0.740	0.810	190.04	-2.10	1.30	 	 	 	 	 	 	 	 	 	 	 	 	 	 	 	 	 	 	1581479253	8.45	15.65
12/02/2020 03:47:34	120220	12022020	034734	189.84	13.470833	-56.975858	190.04	0.830	-1.210	1.330	189.84	-2.60	1.80	 	 	 	 	 	 	 	 	 	 	 	 	 	 	 	 	 	 	1581479254	8.58	15.89
12/02/2020 03:47:35	120220	12022020	034735	189.67	13.470800	-56.975867	189.88	0.560	-1.070	1.970	189.67	-2.40	2.50	 	 	 	 	 	 	 	 	 	 	 	 	 	 	 	 	 	 	1581479255	8.07	14.95
12/02/2020 03:47:36	120220	12022020	034736	189.34	13.470765	-56.975877	189.54	0.240	-0.970	2.630	189.34	-2.30	3.10	 	 	 	 	 	 	 	 	 	 	 	 	 	 	 	 	 	 	1581479256	7.46	13.82
12/02/2020 03:47:37	120220	12022020	034737	188.80	13.470727	-56.975888	189.01	-0.020	-1.240	3.080	188.80	-2.60	3.50	 	 	 	 	 	 	 	 	 	 	 	 	 	 	 	 	 	 	1581479257	7.69	14.24
12/02/2020 03:47:38	120220	12022020	034738	188.38	13.470688	-56.975900	188.61	-0.360	-1.220	3.270	188.38	-2.60	3.70	 	 	 	 	 	 	 	 	 	 	 	 	 	 	 	 	 	 	1581479258	8.53	15.80
12/02/2020 03:47:39	120220	12022020	034739	188.42	13.470653	-56.975912	188.68	-0.890	-0.430	3.110	188.42	-1.70	3.50	 	 	 	 	 	 	 	 	 	 	 	 	 	 	 	 	 	 	1581479259	8.67	16.06
12/02/2020 03:47:40	120220	12022020	034740	188.83	13.470620	-56.975923	189.10	-1.390	0.600	2.680	188.83	-0.70	3.10	 	 	 	 	 	 	 	 	 	 	 	 	 	 	 	 	 	 	1581479260	7.93	14.69
12/02/2020 03:47:41	120220	12022020	034741	189.20	13.470585	-56.975935	189.43	-1.330	1.020	2.190	189.20	-0.30	2.60	 	 	 	 	 	 	 	 	 	 	 	 	 	 	 	 	 	 	1581479261	7.50	13.89
12/02/2020 03:47:42	120220	12022020	034742	189.39	13.470547	-56.975945	189.60	-0.420	0.750	1.580	189.39	-0.60	2.00	 	 	 	 	 	 	 	 	 	 	 	 	 	 	 	 	 	 	1581479262	7.97	14.76
12/02/2020 03:47:43	120220	12022020	034743	189.76	13.470507	-56.975947	189.98	0.810	0.520	0.650	189.76	-0.80	1.10	 	 	 	 	 	 	 	 	 	 	 	 	 	 	 	 	 	 	1581479263	8.62	15.96
12/02/2020 03:47:44	120220	12022020	034744	190.45	13.470470	-56.975945	190.68	1.440	0.590	-0.130	190.45	-0.80	0.30	 	 	 	 	 	 	 	 	 	 	 	 	 	 	 	 	 	 	1581479264	8.51	15.76
12/02/2020 03:47:45	120220	12022020	034745	191.03	13.470435	-56.975947	191.22	1.200	0.260	-0.110	191.03	-1.10	0.40	 	 	 	 	 	 	 	 	 	 	 	 	 	 	 	 	 	 	1581479265	7.84	14.52
12/02/2020 03:47:46	120220	12022020	034746	190.89	13.470398	-56.975957	191.05	0.590	-0.800	1.030	190.89	-2.20	1.60	 	 	 	 	 	 	 	 	 	 	 	 	 	 	 	 	 	 	1581479266	7.57	14.02
12/02/2020 03:47:47	120220	12022020	034747	190.08	13.470360	-56.975972	190.25	0.110	-1.920	2.870	190.08	-3.30	3.40	 	 	 	 	 	 	 	 	 	 	 	 	 	 	 	 	 	 	1581479267	8.19	15.17
12/02/2020 03:47:48	120220	12022020	034748	189.26	13.470323	-56.975992	189.26	-0.220	-2.300	4.600	189.04	-3.60	5.10	 	 	 	 	 	 	 	 	 	 	 	 	 	 	 	 	 	 	1581479268	8.86	16.41
12/02/2020 03:47:49	120220	12022020	034749	188.02	13.470290	-56.976012	188.25	-0.440	-1.830	5.640	188.02	-3.10	6.10	 	 	 	 	 	 	 	 	 	 	 	 	 	 	 	 	 	 	1581479269	8.80	16.30
12/02/2020 03:47:50	120220	12022020	034750	187.20	13.470255	-56.976025	187.46	-0.510	-0.840	5.690	187.20	-2.10	6.10	 	 	 	 	 	 	 	 	 	 	 	 	 	 	 	 	 	 	1581479270	8.42	15.59
12/02/2020 03:47:51	120220	12022020	034751	186.96	13.470220	-56.976033	187.24	-0.440	0.340	4.720	186.96	-1.00	5.10	 	 	 	 	 	 	 	 	 	 	 	 	 	 	 	 	 	 	1581479271	7.97	14.76
12/02/2020 03:47:52	120220	12022020	034752	187.48	13.470185	-56.976035	187.76	-0.440	1.310	3.080	187.48	-0.00	3.50	 	 	 	 	 	 	 	 	 	 	 	 	 	 	 	 	 	 	1581479272	7.61	14.09
12/02/2020 03:47:53	120220	12022020	034753	188.50	13.470150	-56.976037	188.75	-0.520	1.530	1.410	188.50	0.20	1.80	 	 	 	 	 	 	 	 	 	 	 	 	 	 	 	 	 	 	1581479273	7.52	13.93
12/02/2020 03:47:54	120220	12022020	034754	189.59	13.470112	-56.976042	189.81	-0.360	0.980	0.200	189.59	-0.40	0.60	 	 	 	 	 	 	 	 	 	 	 	 	 	 	 	 	 	 	1581479274	7.81	14.46
12/02/2020 03:47:55	120220	12022020	034755	190.49	13.470073	-56.976045	190.67	0.270	0.150	-0.590	190.49	-1.20	-0.10	 	 	 	 	 	 	 	 	 	 	 	 	 	 	 	 	 	 	1581479275	8.23	15.24
12/02/2020 03:47:56	120220	12022020	034756	191.04	13.470035	-56.976048	191.21	1.030	-0.550	-0.730	191.04	-1.90	-0.30	 	 	 	 	 	 	 	 	 	 	 	 	 	 	 	 	 	 	1581479276	8.30	15.37
12/02/2020 03:47:57	120220	12022020	034757	191.06	13.470000	-56.976053	191.20	1.280	-1.120	-0.120	191.06	-2.50	0.40	 	 	 	 	 	 	 	 	 	 	 	 	 	 	 	 	 	 	1581479277	8.00	14.82
12/02/2020 03:47:58	120220	12022020	034758	190.49	13.469963	-56.976063	190.63	0.870	-1.670	1.220	190.49	-3.00	1.70	 	 	 	 	 	 	 	 	 	 	 	 	 	 	 	 	 	 	1581479278	7.82	14.48
12/02/2020 03:47:59	120220	12022020	034759	189.69	13.469928	-56.976080	189.87	0.160	-1.790	2.790	189.69	-3.10	3.30	 	 	 	 	 	 	 	 	 	 	 	 	 	 	 	 	 	 	1581479279	8.09	14.98
12/02/2020 03:48:00	120220	12022020	034800	189.00	13.469893	-56.976097	189.22	-0.420	-1.200	3.960	189.00	-2.50	4.40	 	 	 	 	 	 	 	 	 	 	 	 	 	 	 	 	 	 	1581479280	8.37	15.50
12/02/2020 03:48:01	120220	12022020	034801	188.75	13.469860	-56.976110	189.00	-0.710	-0.200	4.320	188.75	-1.50	4.70	1016.90	26.10	26.20	20.60	20.70	-1.0	71.0	71.0	400.0	25.7	259.00	11.00	69.00	12.50	16	8796.0	27.2	27.2	1581479281	8.11	15.02
12/02/2020 03:48:02	120220	12022020	034802	188.99	13.469827	-56.976122	189.26	-0.860	0.680	3.910	188.99	-0.70	4.30	 	 	 	 	 	 	 	 	 	 	 	 	 	 	 	 	 	 	1581479282	7.76	14.37
12/02/2020 03:48:03	120220	12022020	034803	189.39	13.469792	-56.976130	189.65	-0.900	1.060	3.110	189.39	-0.30	3.50	 	 	 	 	 	 	 	 	 	 	 	 	 	 	 	 	 	 	1581479283	7.64	14.15
12/02/2020 03:48:04	120220	12022020	034804	189.63	13.469753	-56.976138	189.86	-0.670	0.830	2.220	189.63	-0.60	2.60	 	 	 	 	 	 	 	 	 	 	 	 	 	 	 	 	 	 	1581479284	7.80	14.45
12/02/2020 03:48:05	120220	12022020	034805	189.72	13.469715	-56.976145	189.94	-0.110	0.270	1.420	189.72	-1.10	1.90	 	 	 	 	 	 	 	 	 	 	 	 	 	 	 	 	 	 	1581479285	8.19	15.17
12/02/2020 03:48:06	120220	12022020	034806	189.95	13.469678	-56.976152	190.17	0.500	-0.070	0.690	189.95	-1.40	1.10	 	 	 	 	 	 	 	 	 	 	 	 	 	 	 	 	 	 	1581479286	8.41	15.58
12/02/2020 03:48:07	120220	12022020	034807	190.44	13.469645	-56.976155	190.66	0.820	0.050	0.080	190.44	-1.30	0.50	 	 	 	 	 	 	 	 	 	 	 	 	 	 	 	 	 	 	1581479287	8.04	14.89
12/02/2020 03:48:08	120220	12022020	034808	190.95	13.469613	-56.976158	191.15	0.800	0.110	-0.230	190.95	-1.30	0.20	 	 	 	 	 	 	 	 	 	 	 	 	 	 	 	 	 	 	1581479288	7.27	13.46
12/02/2020 03:48:09	120220	12022020	034809	190.98	13.469578	-56.976165	191.12	0.710	-0.560	0.090	190.98	-2.00	0.60	 	 	 	 	 	 	 	 	 	 	 	 	 	 	 	 	 	 	1581479289	6.99	12.95
12/02/2020 03:48:10	120220	12022020	034810	190.35	13.469538	-56.976177	190.48	0.750	-1.770	1.140	190.35	-3.20	1.70	 	 	 	 	 	 	 	 	 	 	 	 	 	 	 	 	 	 	1581479290	7.74	14.33
12/02/2020 03:48:11	120220	12022020	034811	189.63	13.469500	-56.976190	189.80	0.610	-2.200	2.380	189.63	-3.50	2.90	 	 	 	 	 	 	 	 	 	 	 	 	 	 	 	 	 	 	1581479291	8.82	16.33
12/02/2020 03:48:12	120220	12022020	034812	189.16	13.469467	-56.976203	189.38	0.040	-1.390	3.450	189.16	-2.70	3.90	 	 	 	 	 	 	 	 	 	 	 	 	 	 	 	 	 	 	1581479292	8.67	16.06
12/02/2020 03:48:13	120220	12022020	034813	188.87	13.469435	-56.976215	189.11	-0.740	-0.100	4.030	188.87	-1.40	4.50	 	 	 	 	 	 	 	 	 	 	 	 	 	 	 	 	 	 	1581479293	7.69	14.24
12/02/2020 03:48:14	120220	12022020	034814	188.74	13.469402	-56.976227	189.00	-1.230	0.690	3.970	188.74	-0.70	4.40	 	 	 	 	 	 	 	 	 	 	 	 	 	 	 	 	 	 	1581479294	7.26	13.45
12/02/2020 03:48:15	120220	12022020	034815	188.89	13.469363	-56.976238	189.16	-1.250	0.750	3.590	188.89	-0.60	4.00	 	 	 	 	 	 	 	 	 	 	 	 	 	 	 	 	 	 	1581479295	7.68	14.22
12/02/2020 03:48:16	120220	12022020	034816	189.21	13.469325	-56.976248	189.47	-0.980	0.460	3.050	189.21	-0.90	3.50	 	 	 	 	 	 	 	 	 	 	 	 	 	 	 	 	 	 	1581479296	8.33	15.43
12/02/2020 03:48:17	120220	12022020	034817	189.30	13.469288	-56.976260	189.51	-0.510	0.140	2.420	189.30	-1.20	2.90	 	 	 	 	 	 	 	 	 	 	 	 	 	 	 	 	 	 	1581479297	8.51	15.76
12/02/2020 03:48:18	120220	12022020	034818	189.09	13.469252	-56.976268	189.29	0.100	0.110	1.920	189.09	-1.30	2.40	 	 	 	 	 	 	 	 	 	 	 	 	 	 	 	 	 	 	1581479298	8.38	15.52
12/02/2020 03:48:19	120220	12022020	034819	189.13	13.469218	-56.976272	189.32	0.760	0.600	1.190	189.13	-0.80	1.60	 	 	 	 	 	 	 	 	 	 	 	 	 	 	 	 	 	 	1581479299	7.98	14.78
12/02/2020 03:48:20	120220	12022020	034820	189.59	13.469187	-56.976272	189.78	1.250	0.890	0.240	189.59	-0.50	0.70	 	 	 	 	 	 	 	 	 	 	 	 	 	 	 	 	 	 	1581479300	7.17	13.28
12/02/2020 03:48:21	120220	12022020	034821	189.97	13.469150	-56.976272	190.12	1.440	0.120	-0.140	189.97	-1.30	0.30	 	 	 	 	 	 	 	 	 	 	 	 	 	 	 	 	 	 	1581479301	7.01	12.98
12/02/2020 03:48:22	120220	12022020	034822	190.03	13.469110	-56.976277	190.19	1.260	-1.310	0.430	190.03	-2.70	0.90	 	 	 	 	 	 	 	 	 	 	 	 	 	 	 	 	 	 	1581479302	7.85	14.54
12/02/2020 03:48:23	120220	12022020	034823	189.84	13.469073	-56.976290	190.01	0.670	-2.180	1.790	189.84	-3.50	2.30	 	 	 	 	 	 	 	 	 	 	 	 	 	 	 	 	 	 	1581479303	8.60	15.93
12/02/2020 03:48:24	120220	12022020	034824	189.41	13.469040	-56.976307	189.45	-0.150	-2.080	3.550	189.27	-3.40	4.10	 	 	 	 	 	 	 	 	 	 	 	 	 	 	 	 	 	 	1581479304	8.41	15.58
12/02/2020 03:48:25	120220	12022020	034825	188.44	13.469007	-56.976325	188.65	-0.930	-1.510	5.140	188.44	-2.80	5.60	 	 	 	 	 	 	 	 	 	 	 	 	 	 	 	 	 	 	1581479305	7.96	14.74
12/02/2020 03:48:26	120220	12022020	034826	187.69	13.468972	-56.976345	187.94	-1.400	-0.930	5.990	187.69	-2.30	6.40	 	 	 	 	 	 	 	 	 	 	 	 	 	 	 	 	 	 	1581479306	8.10	15.00
12/02/2020 03:48:27	120220	12022020	034827	187.25	13.468937	-56.976362	187.54	-1.410	-0.280	5.900	187.25	-1.60	6.30	 	 	 	 	 	 	 	 	 	 	 	 	 	 	 	 	 	 	1581479307	8.57	15.87
12/02/2020 03:48:28	120220	12022020	034828	187.32	13.468902	-56.976372	187.61	-0.940	0.750	4.830	187.32	-0.60	5.20	 	 	 	 	 	 	 	 	 	 	 	 	 	 	 	 	 	 	1581479308	8.59	15.91
12/02/2020 03:48:29	120220	12022020	034829	187.97	13.468867	-56.976373	188.24	-0.240	1.760	2.940	187.97	0.40	3.30	 	 	 	 	 	 	 	 	 	 	 	 	 	 	 	 	 	 	1581479309	7.80	14.45
12/02/2020 03:48:30	120220	12022020	034830	188.85	13.468832	-56.976368	189.07	0.390	1.880	0.880	188.85	0.50	1.30	 	 	 	 	 	 	 	 	 	 	 	 	 	 	 	 	 	 	1581479310	7.28	13.48
12/02/2020 03:48:31	120220	12022020	034831	189.51	13.468792	-56.976367	189.68	0.780	0.960	-0.320	189.51	-0.50	0.10	 	 	 	 	 	 	 	 	 	 	 	 	 	 	 	 	 	 	1581479311	7.84	14.52
12/02/2020 03:48:32	120220	12022020	034832	189.77	13.468753	-56.976368	189.92	0.960	-0.330	-0.530	189.77	-1.70	-0.00	 	 	 	 	 	 	 	 	 	 	 	 	 	 	 	 	 	 	1581479312	8.40	15.56
12/02/2020 03:48:33	120220	12022020	034833	189.78	13.468717	-56.976375	189.93	1.020	-1.230	-0.080	189.78	-2.60	0.40	 	 	 	 	 	 	 	 	 	 	 	 	 	 	 	 	 	 	1581479313	8.40	15.56
12/02/2020 03:48:34	120220	12022020	034834	189.49	13.468683	-56.976383	189.64	0.940	-1.720	0.950	189.49	-3.10	1.50	 	 	 	 	 	 	 	 	 	 	 	 	 	 	 	 	 	 	1581479314	7.92	14.67
12/02/2020 03:48:35	120220	12022020	034835	188.85	13.468648	-56.976395	189.00	0.630	-1.980	2.330	188.85	-3.30	2.80	 	 	 	 	 	 	 	 	 	 	 	 	 	 	 	 	 	 	1581479315	7.63	14.13
12/02/2020 03:48:36	120220	12022020	034836	188.15	13.468613	-56.976410	188.33	-0.020	-1.800	3.690	188.15	-3.10	4.20	 	 	 	 	 	 	 	 	 	 	 	 	 	 	 	 	 	 	1581479316	7.89	14.61
12/02/2020 03:48:37	120220	12022020	034837	187.52	13.468578	-56.976427	187.73	-0.880	-1.090	4.720	187.52	-2.40	5.20	 	 	 	 	 	 	 	 	 	 	 	 	 	 	 	 	 	 	1581479317	8.12	15.04
12/02/2020 03:48:38	120220	12022020	034838	187.11	13.468545	-56.976445	187.30	-1.530	-0.050	5.180	187.05	-1.30	5.60	 	 	 	 	 	 	 	 	 	 	 	 	 	 	 	 	 	 	1581479318	8.20	15.19
12/02/2020 03:48:39	120220	12022020	034839	187.18	13.468513	-56.976460	187.46	-1.550	1.140	4.580	187.18	-0.20	5.00	 	 	 	 	 	 	 	 	 	 	 	 	 	 	 	 	 	 	1581479319	8.13	15.06
12/02/2020 03:48:40	120220	12022020	034840	187.96	13.468480	-56.976465	188.22	-0.910	2.000	2.970	187.96	0.70	3.30	 	 	 	 	 	 	 	 	 	 	 	 	 	 	 	 	 	 	1581479320	7.57	14.02
12/02/2020 03:48:41	120220	12022020	034841	188.82	13.468443	-56.976463	189.03	0.110	1.620	1.260	188.82	0.20	1.70	 	 	 	 	 	 	 	 	 	 	 	 	 	 	 	 	 	 	1581479321	7.14	13.22
12/02/2020 03:48:42	120220	12022020	034842	189.55	13.468402	-56.976463	189.75	1.020	0.200	0.140	189.55	-1.20	0.60	 	 	 	 	 	 	 	 	 	 	 	 	 	 	 	 	 	 	1581479322	8.00	14.82
12/02/2020 03:48:43	120220	12022020	034843	190.09	13.468362	-56.976467	190.27	1.390	-1.050	-0.060	190.09	-2.40	0.40	 	 	 	 	 	 	 	 	 	 	 	 	 	 	 	 	 	 	1581479323	8.90	16.48
12/02/2020 03:48:44	120220	12022020	034844	190.10	13.468327	-56.976472	190.24	1.220	-1.540	0.540	190.10	-2.90	1.00	 	 	 	 	 	 	 	 	 	 	 	 	 	 	 	 	 	 	1581479324	8.47	15.69
12/02/2020 03:48:45	120220	12022020	034845	189.43	13.468293	-56.976482	189.57	0.860	-1.660	1.720	189.43	-3.00	2.20	 	 	 	 	 	 	 	 	 	 	 	 	 	 	 	 	 	 	1581479325	7.58	14.04
12/02/2020 03:48:46	120220	12022020	034846	188.71	13.468260	-56.976493	188.89	0.380	-1.350	2.900	188.71	-2.70	3.40	 	 	 	 	 	 	 	 	 	 	 	 	 	 	 	 	 	 	1581479326	7.57	14.02
12/02/2020 03:48:47	120220	12022020	034847	188.48	13.468228	-56.976507	188.70	-0.280	-0.410	3.530	188.48	-1.70	4.00	 	 	 	 	 	 	 	 	 	 	 	 	 	 	 	 	 	 	1581479327	7.72	14.30
12/02/2020 03:48:48	120220	12022020	034848	188.64	13.468197	-56.976517	188.88	-0.940	0.570	3.440	188.64	-0.70	3.90	 	 	 	 	 	 	 	 	 	 	 	 	 	 	 	 	 	 	1581479328	7.28	13.48
12/02/2020 03:48:49	120220	12022020	034849	188.88	13.468163	-56.976528	189.12	-1.260	0.770	3.000	188.88	-0.60	3.40	 	 	 	 	 	 	 	 	 	 	 	 	 	 	 	 	 	 	1581479329	7.06	13.08
12/02/2020 03:48:50	120220	12022020	034850	188.99	13.468123	-56.976537	189.21	-0.980	0.150	2.500	188.99	-1.20	2.90	 	 	 	 	 	 	 	 	 	 	 	 	 	 	 	 	 	 	1581479330	7.70	14.26
12/02/2020 03:48:51	120220	12022020	034851	188.99	13.468083	-56.976545	189.20	-0.350	-0.590	2.000	188.99	-2.00	2.40	 	 	 	 	 	 	 	 	 	 	 	 	 	 	 	 	 	 	1581479331	8.55	15.83
12/02/2020 03:48:52	120220	12022020	034852	189.08	13.468047	-56.976553	189.28	0.120	-0.770	1.640	189.08	-2.10	2.10	 	 	 	 	 	 	 	 	 	 	 	 	 	 	 	 	 	 	1581479332	8.77	16.24
12/02/2020 03:48:53	120220	12022020	034853	189.21	13.468013	-56.976560	189.41	0.190	-0.280	1.480	189.21	-1.60	1.90	 	 	 	 	 	 	 	 	 	 	 	 	 	 	 	 	 	 	1581479333	8.16	15.11
12/02/2020 03:48:54	120220	12022020	034854	189.24	13.467982	-56.976568	189.42	0.150	0.330	1.460	189.24	-1.00	1.90	 	 	 	 	 	 	 	 	 	 	 	 	 	 	 	 	 	 	1581479334	7.30	13.52
12/02/2020 03:48:55	120220	12022020	034855	189.20	13.467948	-56.976575	189.38	0.380	0.550	1.370	189.20	-0.80	1.80	 	 	 	 	 	 	 	 	 	 	 	 	 	 	 	 	 	 	1581479335	7.01	12.98
12/02/2020 03:48:56	120220	12022020	034856	189.28	13.467913	-56.976578	189.47	0.780	0.450	1.150	189.28	-0.90	1.60	 	 	 	 	 	 	 	 	 	 	 	 	 	 	 	 	 	 	1581479336	7.34	13.59
12/02/2020 03:48:57	120220	12022020	034857	189.42	13.467877	-56.976582	189.60	0.880	0.050	1.150	189.42	-1.30	1.60	 	 	 	 	 	 	 	 	 	 	 	 	 	 	 	 	 	 	1581479337	7.64	14.15
12/02/2020 03:48:58	120220	12022020	034858	189.31	13.467842	-56.976592	189.46	0.540	-0.660	1.730	189.31	-2.00	2.20	 	 	 	 	 	 	 	 	 	 	 	 	 	 	 	 	 	 	1581479338	7.76	14.37
12/02/2020 03:48:59	120220	12022020	034859	188.95	13.467805	-56.976605	189.12	0.040	-1.260	2.680	188.95	-2.60	3.20	 	 	 	 	 	 	 	 	 	 	 	 	 	 	 	 	 	 	1581479339	8.04	14.89
12/02/2020 03:49:00	120220	12022020	034900	188.49	13.467770	-56.976620	188.67	-0.250	-1.350	3.640	188.49	-2.70	4.10	 	 	 	 	 	 	 	 	 	 	 	 	 	 	 	 	 	 	1581479340	8.27	15.32
12/02/2020 03:49:01	120220	12022020	034901	188.07	13.467737	-56.976633	188.27	-0.230	-1.060	4.020	188.07	-2.40	4.50	1017.00	26.20	26.20	20.70	20.80	-1.0	72.0	72.0	399.0	25.7	258.00	11.00	69.00	12.50	16	9108.0	27.2	27.2	1581479341	8.07	14.95
12/02/2020 03:49:02	120220	12022020	034902	187.89	13.467702	-56.976640	188.11	-0.140	-0.610	3.640	187.89	-1.90	4.10	 	 	 	 	 	 	 	 	 	 	 	 	 	 	 	 	 	 	1581479342	7.81	14.46
12/02/2020 03:49:03	120220	12022020	034903	187.91	13.467667	-56.976645	188.14	-0.270	-0.110	2.950	187.91	-1.40	3.40	 	 	 	 	 	 	 	 	 	 	 	 	 	 	 	 	 	 	1581479343	7.67	14.20
12/02/2020 03:49:04	120220	12022020	034904	187.99	13.467630	-56.976650	188.21	-0.560	0.280	2.240	187.99	-1.10	2.70	 	 	 	 	 	 	 	 	 	 	 	 	 	 	 	 	 	 	1581479344	7.61	14.09
12/02/2020 03:49:05	120220	12022020	034905	188.13	13.467595	-56.976657	188.33	-0.720	0.440	1.650	188.13	-0.90	2.10	 	 	 	 	 	 	 	 	 	 	 	 	 	 	 	 	 	 	1581479345	7.66	14.19
12/02/2020 03:49:06	120220	12022020	034906	188.31	13.467558	-56.976665	188.51	-0.510	0.420	1.260	188.31	-1.00	1.70	 	 	 	 	 	 	 	 	 	 	 	 	 	 	 	 	 	 	1581479346	7.81	14.46
12/02/2020 03:49:07	120220	12022020	034907	188.58	13.467523	-56.976672	188.79	-0.000	0.330	1.040	188.58	-1.00	1.50	 	 	 	 	 	 	 	 	 	 	 	 	 	 	 	 	 	 	1581479347	7.93	14.69
12/02/2020 03:49:08	120220	12022020	034908	188.89	13.467488	-56.976677	189.10	0.480	0.260	0.910	188.89	-1.10	1.40	 	 	 	 	 	 	 	 	 	 	 	 	 	 	 	 	 	 	1581479348	7.87	14.58
12/02/2020 03:49:09	120220	12022020	034909	189.16	13.467453	-56.976682	189.37	0.670	0.140	0.940	189.16	-1.20	1.40	 	 	 	 	 	 	 	 	 	 	 	 	 	 	 	 	 	 	1581479349	7.68	14.22
12/02/2020 03:49:10	120220	12022020	034910	189.33	13.467418	-56.976690	189.53	0.590	-0.160	1.250	189.33	-1.50	1.70	 	 	 	 	 	 	 	 	 	 	 	 	 	 	 	 	 	 	1581479350	7.51	13.91
12/02/2020 03:49:11	120220	12022020	034911	189.25	13.467383	-56.976698	189.44	0.510	-0.680	1.810	189.25	-2.10	2.30	 	 	 	 	 	 	 	 	 	 	 	 	 	 	 	 	 	 	1581479351	7.52	13.93
12/02/2020 03:49:12	120220	12022020	034912	188.87	13.467347	-56.976707	189.05	0.500	-1.250	2.480	188.87	-2.60	3.00	 	 	 	 	 	 	 	 	 	 	 	 	 	 	 	 	 	 	1581479352	7.81	14.46
12/02/2020 03:49:13	120220	12022020	034913	188.33	13.467310	-56.976717	188.52	0.380	-1.560	3.130	188.33	-2.90	3.60	 	 	 	 	 	 	 	 	 	 	 	 	 	 	 	 	 	 	1581479353	8.06	14.93
12/02/2020 03:49:14	120220	12022020	034914	187.80	13.467275	-56.976727	188.02	0.000	-1.410	3.460	187.80	-2.70	3.90	 	 	 	 	 	 	 	 	 	 	 	 	 	 	 	 	 	 	1581479354	8.14	15.08
12/02/2020 03:49:15	120220	12022020	034915	187.48	13.467240	-56.976737	187.74	-0.600	-0.800	3.500	187.48	-2.10	3.90	 	 	 	 	 	 	 	 	 	 	 	 	 	 	 	 	 	 	1581479355	8.06	14.93
12/02/2020 03:49:16	120220	12022020	034916	187.44	13.467205	-56.976748	187.71	-1.150	0.070	3.310	187.44	-1.20	3.80	 	 	 	 	 	 	 	 	 	 	 	 	 	 	 	 	 	 	1581479356	7.86	14.56
12/02/2020 03:49:17	120220	12022020	034917	187.69	13.467172	-56.976758	187.96	-1.270	0.920	2.770	187.69	-0.40	3.20	 	 	 	 	 	 	 	 	 	 	 	 	 	 	 	 	 	 	1581479357	7.67	14.20
12/02/2020 03:49:18	120220	12022020	034918	188.28	13.467137	-56.976763	188.53	-0.840	1.460	1.800	188.28	0.10	2.20	 	 	 	 	 	 	 	 	 	 	 	 	 	 	 	 	 	 	1581479358	7.53	13.95
12/02/2020 03:49:19	120220	12022020	034919	188.98	13.467100	-56.976767	189.18	-0.120	1.200	0.810	188.98	-0.20	1.30	 	 	 	 	 	 	 	 	 	 	 	 	 	 	 	 	 	 	1581479359	7.51	13.91
12/02/2020 03:49:20	120220	12022020	034920	189.48	13.467062	-56.976768	189.67	0.540	0.250	0.360	189.48	-1.20	0.80	 	 	 	 	 	 	 	 	 	 	 	 	 	 	 	 	 	 	1581479360	7.96	14.74
12/02/2020 03:49:21	120220	12022020	034921	189.64	13.467023	-56.976775	189.81	0.860	-0.710	0.680	189.64	-2.10	1.20	 	 	 	 	 	 	 	 	 	 	 	 	 	 	 	 	 	 	1581479361	8.45	15.65
12/02/2020 03:49:22	120220	12022020	034922	189.37	13.466987	-56.976783	189.52	0.890	-1.240	1.510	189.37	-2.60	2.00	 	 	 	 	 	 	 	 	 	 	 	 	 	 	 	 	 	 	1581479362	8.27	15.32
12/02/2020 03:49:23	120220	12022020	034923	188.92	13.466953	-56.976792	189.08	0.800	-1.250	2.260	188.92	-2.60	2.70	 	 	 	 	 	 	 	 	 	 	 	 	 	 	 	 	 	 	1581479363	7.90	14.63
12/02/2020 03:49:24	120220	12022020	034924	188.55	13.466920	-56.976800	188.73	0.620	-0.910	2.670	188.55	-2.20	3.10	 	 	 	 	 	 	 	 	 	 	 	 	 	 	 	 	 	 	1581479364	7.58	14.04
12/02/2020 03:49:25	120220	12022020	034925	188.23	13.466885	-56.976807	188.42	0.270	-0.600	2.810	188.23	-1.90	3.30	 	 	 	 	 	 	 	 	 	 	 	 	 	 	 	 	 	 	1581479365	7.41	13.72
12/02/2020 03:49:26	120220	12022020	034926	187.93	13.466848	-56.976815	188.13	-0.270	-0.480	2.910	187.93	-1.80	3.40	 	 	 	 	 	 	 	 	 	 	 	 	 	 	 	 	 	 	1581479366	7.59	14.06
12/02/2020 03:49:27	120220	12022020	034927	187.76	13.466812	-56.976827	188.00	-0.840	-0.310	3.010	187.76	-1.60	3.50	 	 	 	 	 	 	 	 	 	 	 	 	 	 	 	 	 	 	1581479367	7.98	14.78
12/02/2020 03:49:28	120220	12022020	034928	187.79	13.466777	-56.976838	188.07	-1.230	0.060	3.030	187.82	-1.30	3.50	 	 	 	 	 	 	 	 	 	 	 	 	 	 	 	 	 	 	1581479368	8.13	15.06
12/02/2020 03:49:29	120220	12022020	034929	188.28	13.466743	-56.976850	188.56	-1.230	0.540	2.570	188.28	-0.80	3.00	 	 	 	 	 	 	 	 	 	 	 	 	 	 	 	 	 	 	1581479369	8.03	14.87
12/02/2020 03:49:30	120220	12022020	034930	189.19	13.466708	-56.976858	189.46	-0.750	0.800	1.570	189.19	-0.50	2.00	 	 	 	 	 	 	 	 	 	 	 	 	 	 	 	 	 	 	1581479370	7.77	14.39
12/02/2020 03:49:31	120220	12022020	034931	190.06	13.466672	-56.976862	190.30	0.110	0.470	0.460	190.06	-0.90	0.90	 	 	 	 	 	 	 	 	 	 	 	 	 	 	 	 	 	 	1581479371	7.57	14.02
12/02/2020 03:49:32	120220	12022020	034932	190.49	13.466632	-56.976863	190.68	0.920	-0.300	-0.120	190.49	-1.70	0.30	 	 	 	 	 	 	 	 	 	 	 	 	 	 	 	 	 	 	1581479372	7.97	14.76
12/02/2020 03:49:33	120220	12022020	034933	190.50	13.466595	-56.976865	190.66	1.160	-0.770	-0.070	190.50	-2.10	0.40	 	 	 	 	 	 	 	 	 	 	 	 	 	 	 	 	 	 	1581479373	8.45	15.65
12/02/2020 03:49:34	120220	12022020	034934	190.16	13.466560	-56.976870	190.29	0.770	-0.840	0.520	190.16	-2.20	1.00	 	 	 	 	 	 	 	 	 	 	 	 	 	 	 	 	 	 	1581479374	8.13	15.06
12/02/2020 03:49:35	120220	12022020	034935	189.64	13.466525	-56.976882	189.78	0.170	-0.790	1.490	189.64	-2.10	2.00	 	 	 	 	 	 	 	 	 	 	 	 	 	 	 	 	 	 	1581479375	7.63	14.13
12/02/2020 03:49:36	120220	12022020	034936	189.18	13.466490	-56.976893	189.35	-0.230	-0.590	2.470	189.18	-1.90	2.90	 	 	 	 	 	 	 	 	 	 	 	 	 	 	 	 	 	 	1581479376	7.75	14.35
12/02/2020 03:49:37	120220	12022020	034937	188.87	13.466457	-56.976908	189.06	-0.370	-0.280	3.190	188.87	-1.60	3.60	 	 	 	 	 	 	 	 	 	 	 	 	 	 	 	 	 	 	1581479377	7.90	14.63
12/02/2020 03:49:38	120220	12022020	034938	188.70	13.466422	-56.976920	188.92	-0.360	0.050	3.430	188.70	-1.30	3.90	 	 	 	 	 	 	 	 	 	 	 	 	 	 	 	 	 	 	1581479378	7.92	14.67
12/02/2020 03:49:39	120220	12022020	034939	188.71	13.466387	-56.976928	188.93	-0.330	0.220	3.140	188.71	-1.10	3.60	 	 	 	 	 	 	 	 	 	 	 	 	 	 	 	 	 	 	1581479379	7.85	14.54
12/02/2020 03:49:40	120220	12022020	034940	188.89	13.466350	-56.976937	189.12	-0.370	0.110	2.590	188.89	-1.20	3.00	 	 	 	 	 	 	 	 	 	 	 	 	 	 	 	 	 	 	1581479380	7.81	14.46
12/02/2020 03:49:41	120220	12022020	034941	189.12	13.466313	-56.976947	189.33	-0.430	-0.220	2.030	189.12	-1.60	2.50	 	 	 	 	 	 	 	 	 	 	 	 	 	 	 	 	 	 	1581479381	7.99	14.80
12/02/2020 03:49:42	120220	12022020	034942	189.43	13.466277	-56.976953	189.62	-0.320	-0.370	1.400	189.43	-1.70	1.80	 	 	 	 	 	 	 	 	 	 	 	 	 	 	 	 	 	 	1581479382	8.15	15.09
12/02/2020 03:49:43	120220	12022020	034943	189.81	13.466242	-56.976958	189.97	0.030	-0.230	0.720	189.81	-1.60	1.20	 	 	 	 	 	 	 	 	 	 	 	 	 	 	 	 	 	 	1581479383	7.98	14.78
12/02/2020 03:49:44	120220	12022020	034944	190.08	13.466207	-56.976962	190.21	0.490	-0.180	0.240	190.08	-1.50	0.70	 	 	 	 	 	 	 	 	 	 	 	 	 	 	 	 	 	 	1581479384	7.58	14.04
12/02/2020 03:49:45	120220	12022020	034945	190.08	13.466170	-56.976965	190.20	0.770	-0.440	0.170	190.08	-1.80	0.60	 	 	 	 	 	 	 	 	 	 	 	 	 	 	 	 	 	 	1581479385	7.67	14.20
12/02/2020 03:49:46	120220	12022020	034946	189.84	13.466132	-56.976970	189.97	0.690	-0.730	0.530	189.84	-2.10	1.00	 	 	 	 	 	 	 	 	 	 	 	 	 	 	 	 	 	 	1581479386	8.05	14.91
12/02/2020 03:49:47	120220	12022020	034947	189.59	13.466097	-56.976978	189.73	0.290	-0.550	1.100	189.59	-1.90	1.60	 	 	 	 	 	 	 	 	 	 	 	 	 	 	 	 	 	 	1581479387	8.22	15.22
12/02/2020 03:49:48	120220	12022020	034948	189.28	13.466062	-56.976988	189.43	-0.240	-0.180	2.000	189.28	-1.50	2.50	 	 	 	 	 	 	 	 	 	 	 	 	 	 	 	 	 	 	1581479388	7.83	14.50
12/02/2020 03:49:49	120220	12022020	034949	188.88	13.466027	-56.977005	189.05	-0.660	-0.060	3.190	188.88	-1.40	3.70	 	 	 	 	 	 	 	 	 	 	 	 	 	 	 	 	 	 	1581479389	7.67	14.20
12/02/2020 03:49:50	120220	12022020	034950	188.60	13.465992	-56.977023	188.81	-0.800	-0.050	4.120	188.60	-1.40	4.60	 	 	 	 	 	 	 	 	 	 	 	 	 	 	 	 	 	 	1581479390	8.22	15.22
12/02/2020 03:49:51	120220	12022020	034951	188.63	13.465957	-56.977038	188.86	-0.620	0.120	4.300	188.63	-1.20	4.70	 	 	 	 	 	 	 	 	 	 	 	 	 	 	 	 	 	 	1581479391	8.54	15.82
12/02/2020 03:49:52	120220	12022020	034952	188.87	13.465923	-56.977048	189.09	-0.140	0.280	3.690	188.87	-1.10	4.10	 	 	 	 	 	 	 	 	 	 	 	 	 	 	 	 	 	 	1581479392	8.13	15.06
12/02/2020 03:49:53	120220	12022020	034953	189.19	13.465887	-56.977052	189.38	0.500	0.100	2.470	189.19	-1.30	2.90	 	 	 	 	 	 	 	 	 	 	 	 	 	 	 	 	 	 	1581479393	7.68	14.22
12/02/2020 03:49:54	120220	12022020	034954	189.52	13.465848	-56.977050	189.70	0.920	-0.310	1.190	189.52	-1.70	1.60	 	 	 	 	 	 	 	 	 	 	 	 	 	 	 	 	 	 	1581479394	7.88	14.59
12/02/2020 03:49:55	120220	12022020	034955	189.78	13.465810	-56.977050	189.94	0.830	-0.730	0.510	189.78	-2.10	1.00	 	 	 	 	 	 	 	 	 	 	 	 	 	 	 	 	 	 	1581479395	8.21	15.20
12/02/2020 03:49:56	120220	12022020	034956	189.83	13.465773	-56.977055	189.99	0.350	-0.920	0.640	189.83	-2.30	1.10	 	 	 	 	 	 	 	 	 	 	 	 	 	 	 	 	 	 	1581479396	8.13	15.06
12/02/2020 03:49:57	120220	12022020	034957	189.77	13.465738	-56.977067	189.92	-0.200	-0.780	1.270	189.77	-2.10	1.70	 	 	 	 	 	 	 	 	 	 	 	 	 	 	 	 	 	 	1581479397	7.90	14.63
12/02/2020 03:49:58	120220	12022020	034958	189.74	13.465705	-56.977078	189.92	-0.570	-0.430	1.920	189.74	-1.80	2.40	 	 	 	 	 	 	 	 	 	 	 	 	 	 	 	 	 	 	1581479398	7.77	14.39
12/02/2020 03:49:59	120220	12022020	034959	189.80	13.465672	-56.977092	189.99	-0.630	-0.110	2.320	189.80	-1.40	2.80	 	 	 	 	 	 	 	 	 	 	 	 	 	 	 	 	 	 	1581479399	7.76	14.37
12/02/2020 03:50:00	120220	12022020	035000	189.86	13.465635	-56.977103	190.05	-0.380	-0.040	2.290	189.86	-1.40	2.70	 	 	 	 	 	 	 	 	 	 	 	 	 	 	 	 	 	 	1581479400	7.83	14.50
12/02/2020 03:50:01	120220	12022020	035001	189.77	13.465598	-56.977110	189.95	0.010	-0.220	2.120	189.77	-1.60	2.60	1017.00	26.20	26.20	20.80	20.80	-1.0	72.0	72.0	400.0	25.7	259.00	10.60	69.00	12.00	16	9079.0	27.2	27.2	1581479401	8.01	14.83
12/02/2020 03:50:02	120220	12022020	035002	189.65	13.465560	-56.977117	189.84	0.230	-0.270	2.030	189.65	-1.60	2.50	 	 	 	 	 	 	 	 	 	 	 	 	 	 	 	 	 	 	1581479402	8.31	15.39
12/02/2020 03:50:03	120220	12022020	035003	189.69	13.465523	-56.977122	189.88	0.160	-0.080	1.880	189.69	-1.40	2.30	 	 	 	 	 	 	 	 	 	 	 	 	 	 	 	 	 	 	1581479403	8.25	15.28
12/02/2020 03:50:04	120220	12022020	035004	189.78	13.465487	-56.977130	189.98	-0.040	0.090	1.750	189.78	-1.30	2.20	 	 	 	 	 	 	 	 	 	 	 	 	 	 	 	 	 	 	1581479404	7.93	14.69
12/02/2020 03:50:05	120220	12022020	035005	189.93	13.465452	-56.977138	190.14	-0.130	0.140	1.720	189.93	-1.20	2.20	 	 	 	 	 	 	 	 	 	 	 	 	 	 	 	 	 	 	1581479405	7.86	14.56
12/02/2020 03:50:06	120220	12022020	035006	190.26	13.465417	-56.977148	190.47	-0.050	0.260	1.630	190.26	-1.10	2.10	 	 	 	 	 	 	 	 	 	 	 	 	 	 	 	 	 	 	1581479406	7.95	14.72
12/02/2020 03:50:07	120220	12022020	035007	190.56	13.465383	-56.977157	190.75	0.070	0.330	1.500	190.56	-1.00	1.90	 	 	 	 	 	 	 	 	 	 	 	 	 	 	 	 	 	 	1581479407	7.74	14.33
12/02/2020 03:50:08	120220	12022020	035008	190.54	13.465347	-56.977163	190.70	0.180	-0.010	1.510	190.54	-1.40	2.00	 	 	 	 	 	 	 	 	 	 	 	 	 	 	 	 	 	 	1581479408	7.51	13.91
12/02/2020 03:50:09	120220	12022020	035009	190.33	13.465310	-56.977173	190.50	0.190	-0.610	1.750	190.33	-2.00	2.20	 	 	 	 	 	 	 	 	 	 	 	 	 	 	 	 	 	 	1581479409	7.83	14.50
12/02/2020 03:50:10	120220	12022020	035010	190.24	13.465273	-56.977185	190.41	0.110	-1.030	1.990	190.24	-2.40	2.40	 	 	 	 	 	 	 	 	 	 	 	 	 	 	 	 	 	 	1581479410	8.18	15.15
12/02/2020 03:50:11	120220	12022020	035011	190.18	13.465238	-56.977195	190.33	0.090	-1.160	2.040	190.18	-2.50	2.50	 	 	 	 	 	 	 	 	 	 	 	 	 	 	 	 	 	 	1581479411	8.09	14.98
12/02/2020 03:50:12	120220	12022020	035012	189.89	13.465202	-56.977203	190.02	0.250	-1.190	2.050	189.89	-2.50	2.50	 	 	 	 	 	 	 	 	 	 	 	 	 	 	 	 	 	 	1581479412	7.90	14.63
12/02/2020 03:50:13	120220	12022020	035013	189.59	13.465165	-56.977210	189.73	0.340	-0.970	2.070	189.59	-2.30	2.50	 	 	 	 	 	 	 	 	 	 	 	 	 	 	 	 	 	 	1581479413	8.07	14.95
12/02/2020 03:50:14	120220	12022020	035014	189.42	13.465128	-56.977217	189.56	0.050	-0.430	2.120	189.42	-1.70	2.60	 	 	 	 	 	 	 	 	 	 	 	 	 	 	 	 	 	 	1581479414	8.17	15.13
12/02/2020 03:50:15	120220	12022020	035015	189.41	13.465092	-56.977227	189.56	-0.480	0.200	2.190	189.41	-1.10	2.60	 	 	 	 	 	 	 	 	 	 	 	 	 	 	 	 	 	 	1581479415	8.01	14.83
12/02/2020 03:50:16	120220	12022020	035016	189.58	13.465057	-56.977237	189.76	-0.820	0.740	2.200	189.58	-0.60	2.60	 	 	 	 	 	 	 	 	 	 	 	 	 	 	 	 	 	 	1581479416	7.96	14.74
12/02/2020 03:50:17	120220	12022020	035017	189.92	13.465020	-56.977245	190.13	-0.730	0.960	2.070	189.92	-0.40	2.50	 	 	 	 	 	 	 	 	 	 	 	 	 	 	 	 	 	 	1581479417	7.95	14.72
12/02/2020 03:50:18	120220	12022020	035018	190.27	13.464983	-56.977253	190.55	-0.390	0.780	1.940	190.36	-0.60	2.40	 	 	 	 	 	 	 	 	 	 	 	 	 	 	 	 	 	 	1581479418	8.04	14.89
12/02/2020 03:50:19	120220	12022020	035019	190.68	13.464947	-56.977263	190.87	-0.070	0.370	1.900	190.68	-1.00	2.30	 	 	 	 	 	 	 	 	 	 	 	 	 	 	 	 	 	 	1581479419	8.17	15.13
12/02/2020 03:50:20	120220	12022020	035020	190.72	13.464910	-56.977272	190.90	0.220	-0.150	1.830	190.72	-1.50	2.30	 	 	 	 	 	 	 	 	 	 	 	 	 	 	 	 	 	 	1581479420	8.10	15.00
12/02/2020 03:50:21	120220	12022020	035021	190.44	13.464873	-56.977280	190.61	0.600	-0.740	1.790	190.44	-2.10	2.30	 	 	 	 	 	 	 	 	 	 	 	 	 	 	 	 	 	 	1581479421	8.02	14.85
12/02/2020 03:50:22	120220	12022020	035022	190.00	13.464837	-56.977287	190.16	0.940	-1.110	1.850	190.00	-2.50	2.30	 	 	 	 	 	 	 	 	 	 	 	 	 	 	 	 	 	 	1581479422	8.07	14.95
12/02/2020 03:50:23	120220	12022020	035023	189.89	13.464802	-56.977292	190.07	0.810	-0.980	1.870	189.89	-2.30	2.30	 	 	 	 	 	 	 	 	 	 	 	 	 	 	 	 	 	 	1581479423	8.07	14.95
12/02/2020 03:50:24	120220	12022020	035024	190.03	13.464768	-56.977302	190.21	0.140	-0.550	2.100	190.03	-1.90	2.60	 	 	 	 	 	 	 	 	 	 	 	 	 	 	 	 	 	 	1581479424	7.67	14.20
12/02/2020 03:50:25	120220	12022020	035025	190.02	13.464735	-56.977317	190.18	-0.510	-0.370	2.540	190.02	-1.70	3.00	 	 	 	 	 	 	 	 	 	 	 	 	 	 	 	 	 	 	1581479425	7.34	13.59
12/02/2020 03:50:26	120220	12022020	035026	189.88	13.464698	-56.977330	190.05	-0.550	-0.560	2.790	189.88	-1.90	3.20	 	 	 	 	 	 	 	 	 	 	 	 	 	 	 	 	 	 	1581479426	7.80	14.45
12/02/2020 03:50:27	120220	12022020	035027	189.93	13.464660	-56.977340	190.09	-0.040	-0.660	2.620	189.93	-2.00	3.10	 	 	 	 	 	 	 	 	 	 	 	 	 	 	 	 	 	 	1581479427	8.46	15.67
12/02/2020 03:50:28	120220	12022020	035028	190.07	13.464622	-56.977345	190.23	0.390	-0.520	2.290	190.07	-1.90	2.70	 	 	 	 	 	 	 	 	 	 	 	 	 	 	 	 	 	 	1581479428	8.50	15.74
12/02/2020 03:50:29	120220	12022020	035029	190.20	13.464583	-56.977350	190.38	0.230	-0.230	1.950	190.20	-1.50	2.40	 	 	 	 	 	 	 	 	 	 	 	 	 	 	 	 	 	 	1581479429	8.33	15.43
12/02/2020 03:50:30	120220	12022020	035030	190.49	13.464548	-56.977357	190.68	-0.540	0.370	1.850	190.49	-0.90	2.30	 	 	 	 	 	 	 	 	 	 	 	 	 	 	 	 	 	 	1581479430	8.23	15.24
12/02/2020 03:50:31	120220	12022020	035031	190.97	13.464517	-56.977368	191.16	-1.310	1.090	1.920	190.97	-0.20	2.40	 	 	 	 	 	 	 	 	 	 	 	 	 	 	 	 	 	 	1581479431	7.74	14.33
12/02/2020 03:50:32	120220	12022020	035032	191.50	13.464483	-56.977382	191.68	-1.390	1.340	1.820	191.50	-0.00	2.30	 	 	 	 	 	 	 	 	 	 	 	 	 	 	 	 	 	 	1581479432	7.35	13.61
12/02/2020 03:50:33	120220	12022020	035033	191.70	13.464447	-56.977393	191.86	-0.490	0.520	1.590	191.70	-0.90	2.00	 	 	 	 	 	 	 	 	 	 	 	 	 	 	 	 	 	 	1581479433	7.49	13.87
12/02/2020 03:50:34	120220	12022020	035034	191.41	13.464405	-56.977402	191.56	0.910	-0.920	1.440	191.41	-2.30	1.90	 	 	 	 	 	 	 	 	 	 	 	 	 	 	 	 	 	 	1581479434	8.31	15.39
12/02/2020 03:50:35	120220	12022020	035035	190.97	13.464365	-56.977407	191.12	1.810	-1.700	1.380	190.97	-3.10	1.80	 	 	 	 	 	 	 	 	 	 	 	 	 	 	 	 	 	 	1581479435	9.10	16.85
12/02/2020 03:50:36	120220	12022020	035036	190.51	13.464330	-56.977410	190.65	1.700	-1.390	1.430	190.51	-2.70	1.90	 	 	 	 	 	 	 	 	 	 	 	 	 	 	 	 	 	 	1581479436	8.65	16.02
12/02/2020 03:50:37	120220	12022020	035037	190.03	13.464297	-56.977417	190.18	0.790	-0.700	1.710	190.03	-2.00	2.20	 	 	 	 	 	 	 	 	 	 	 	 	 	 	 	 	 	 	1581479437	7.62	14.11
12/02/2020 03:50:38	120220	12022020	035038	189.93	13.464263	-56.977428	190.12	-0.460	-0.050	2.110	189.93	-1.40	2.60	 	 	 	 	 	 	 	 	 	 	 	 	 	 	 	 	 	 	1581479438	7.36	13.63
12/02/2020 03:50:39	120220	12022020	035039	190.21	13.464230	-56.977445	190.43	-1.470	0.410	2.640	190.21	-0.90	3.10	 	 	 	 	 	 	 	 	 	 	 	 	 	 	 	 	 	 	1581479439	7.63	14.13
12/02/2020 03:50:40	120220	12022020	035040	190.71	13.464195	-56.977465	190.94	-1.790	0.520	2.860	190.71	-0.80	3.30	 	 	 	 	 	 	 	 	 	 	 	 	 	 	 	 	 	 	1581479440	8.05	14.91
12/02/2020 03:50:41	120220	12022020	035041	191.20	13.464158	-56.977480	191.41	-1.260	0.280	2.500	191.20	-1.10	2.90	 	 	 	 	 	 	 	 	 	 	 	 	 	 	 	 	 	 	1581479441	8.40	15.56
12/02/2020 03:50:42	120220	12022020	035042	191.56	13.464122	-56.977490	191.74	-0.230	-0.090	1.670	191.56	-1.50	2.10	 	 	 	 	 	 	 	 	 	 	 	 	 	 	 	 	 	 	1581479442	8.49	15.72
12/02/2020 03:50:43	120220	12022020	035043	191.90	13.464083	-56.977493	192.06	0.700	-0.310	0.580	191.90	-1.70	1.00	 	 	 	 	 	 	 	 	 	 	 	 	 	 	 	 	 	 	1581479443	8.40	15.56
12/02/2020 03:50:44	120220	12022020	035044	192.02	13.464047	-56.977493	192.15	1.100	-0.410	-0.110	192.02	-1.80	0.30	 	 	 	 	 	 	 	 	 	 	 	 	 	 	 	 	 	 	1581479444	8.17	15.13
12/02/2020 03:50:45	120220	12022020	035045	191.64	13.464008	-56.977497	191.74	1.000	-0.680	-0.020	191.64	-2.00	0.50	 	 	 	 	 	 	 	 	 	 	 	 	 	 	 	 	 	 	1581479445	7.96	14.74
12/02/2020 03:50:46	120220	12022020	035046	190.95	13.463972	-56.977505	191.08	0.600	-0.880	0.680	190.95	-2.20	1.20	 	 	 	 	 	 	 	 	 	 	 	 	 	 	 	 	 	 	1581479446	8.10	15.00
12/02/2020 03:50:47	120220	12022020	035047	190.39	13.463935	-56.977517	190.55	0.040	-0.560	1.570	190.39	-1.90	2.10	 	 	 	 	 	 	 	 	 	 	 	 	 	 	 	 	 	 	1581479447	8.26	15.30
12/02/2020 03:50:48	120220	12022020	035048	190.20	13.463903	-56.977530	190.39	-0.520	0.070	2.310	190.20	-1.30	2.80	 	 	 	 	 	 	 	 	 	 	 	 	 	 	 	 	 	 	1581479448	7.98	14.78
12/02/2020 03:50:49	120220	12022020	035049	190.32	13.463868	-56.977547	190.53	-0.820	0.420	2.670	190.32	-0.90	3.10	 	 	 	 	 	 	 	 	 	 	 	 	 	 	 	 	 	 	1581479449	7.76	14.37
12/02/2020 03:50:50	120220	12022020	035050	190.68	13.463833	-56.977560	190.91	-0.720	0.350	2.560	190.68	-1.00	3.00	 	 	 	 	 	 	 	 	 	 	 	 	 	 	 	 	 	 	1581479450	7.98	14.78
12/02/2020 03:50:51	120220	12022020	035051	191.17	13.463797	-56.977572	191.39	-0.360	0.160	2.230	191.17	-1.20	2.70	 	 	 	 	 	 	 	 	 	 	 	 	 	 	 	 	 	 	1581479451	8.25	15.28
12/02/2020 03:50:52	120220	12022020	035052	191.38	13.463762	-56.977583	191.56	0.040	-0.080	2.040	191.38	-1.50	2.50	 	 	 	 	 	 	 	 	 	 	 	 	 	 	 	 	 	 	1581479452	8.10	15.00
12/02/2020 03:50:53	120220	12022020	035053	191.06	13.463725	-56.977593	191.22	0.370	-0.420	2.110	191.06	-1.80	2.60	 	 	 	 	 	 	 	 	 	 	 	 	 	 	 	 	 	 	1581479453	7.92	14.67
12/02/2020 03:50:54	120220	12022020	035054	190.68	13.463690	-56.977600	190.84	0.530	-0.500	2.110	190.68	-1.90	2.60	 	 	 	 	 	 	 	 	 	 	 	 	 	 	 	 	 	 	1581479454	8.00	14.82
12/02/2020 03:50:55	120220	12022020	035055	190.60	13.463655	-56.977607	190.78	0.540	-0.400	1.800	190.60	-1.80	2.30	 	 	 	 	 	 	 	 	 	 	 	 	 	 	 	 	 	 	1581479455	7.80	14.45
12/02/2020 03:50:56	120220	12022020	035056	190.72	13.463618	-56.977613	190.89	0.480	-0.610	1.500	190.72	-2.00	2.00	 	 	 	 	 	 	 	 	 	 	 	 	 	 	 	 	 	 	1581479456	7.57	14.02
12/02/2020 03:50:57	120220	12022020	035057	190.73	13.463580	-56.977620	190.90	0.410	-1.070	1.600	190.73	-2.40	2.10	 	 	 	 	 	 	 	 	 	 	 	 	 	 	 	 	 	 	1581479457	7.95	14.72
12/02/2020 03:50:58	120220	12022020	035058	190.53	13.463542	-56.977632	190.71	0.250	-1.210	1.980	190.53	-2.50	2.50	 	 	 	 	 	 	 	 	 	 	 	 	 	 	 	 	 	 	1581479458	8.46	15.67
12/02/2020 03:50:59	120220	12022020	035059	190.27	13.463507	-56.977643	190.46	-0.110	-0.580	2.540	190.27	-1.90	3.00	 	 	 	 	 	 	 	 	 	 	 	 	 	 	 	 	 	 	1581479459	8.50	15.74
12/02/2020 03:51:00	120220	12022020	035100	190.28	13.463475	-56.977657	190.50	-0.610	0.610	2.940	190.28	-0.70	3.40	 	 	 	 	 	 	 	 	 	 	 	 	 	 	 	 	 	 	1581479460	7.95	14.72
12/02/2020 03:51:01	120220	12022020	035101	190.86	13.463445	-56.977667	191.11	-0.990	1.670	2.720	190.86	0.30	3.20	1016.90	26.10	26.20	20.80	20.90	-1.0	72.0	72.0	401.0	25.7	257.00	11.10	69.00	12.70	16	8874.0	27.2	27.2	1581479461	7.29	13.50
12/02/2020 03:51:02	120220	12022020	035102	191.51	13.463412	-56.977677	191.72	-0.860	1.630	2.220	191.51	0.20	2.70	 	 	 	 	 	 	 	 	 	 	 	 	 	 	 	 	 	 	1581479462	6.92	12.82
12/02/2020 03:51:03	120220	12022020	035103	191.55	13.463372	-56.977687	191.73	-0.080	0.100	2.010	191.55	-1.40	2.50	 	 	 	 	 	 	 	 	 	 	 	 	 	 	 	 	 	 	1581479463	7.49	13.87
12/02/2020 03:51:04	120220	12022020	035104	191.23	13.463328	-56.977695	191.39	0.810	-1.550	1.900	191.23	-3.00	2.40	 	 	 	 	 	 	 	 	 	 	 	 	 	 	 	 	 	 	1581479464	8.96	16.59
12/02/2020 03:51:05	120220	12022020	035105	190.90	13.463292	-56.977702	191.04	1.170	-1.980	1.770	190.90	-3.30	2.20	 	 	 	 	 	 	 	 	 	 	 	 	 	 	 	 	 	 	1581479465	9.38	17.37
12/02/2020 03:51:06	120220	12022020	035106	190.54	13.463258	-56.977708	190.67	0.920	-1.390	1.670	190.54	-2.70	2.10	 	 	 	 	 	 	 	 	 	 	 	 	 	 	 	 	 	 	1581479466	8.25	15.28
12/02/2020 03:51:07	120220	12022020	035107	190.12	13.463223	-56.977715	190.24	0.450	-0.670	1.730	190.12	-2.00	2.20	 	 	 	 	 	 	 	 	 	 	 	 	 	 	 	 	 	 	1581479467	7.27	13.46
12/02/2020 03:51:08	120220	12022020	035108	189.82	13.463188	-56.977725	189.91	-0.010	-0.170	2.050	189.76	-1.50	2.50	 	 	 	 	 	 	 	 	 	 	 	 	 	 	 	 	 	 	1581479468	7.36	13.63
12/02/2020 03:51:09	120220	12022020	035109	189.65	13.463153	-56.977738	189.83	-0.480	0.340	2.480	189.65	-1.00	3.00	 	 	 	 	 	 	 	 	 	 	 	 	 	 	 	 	 	 	1581479469	7.92	14.67
12/02/2020 03:51:10	120220	12022020	035110	189.95	13.463120	-56.977753	190.16	-0.930	0.950	2.690	189.95	-0.40	3.10	 	 	 	 	 	 	 	 	 	 	 	 	 	 	 	 	 	 	1581479470	8.11	15.02
12/02/2020 03:51:11	120220	12022020	035111	190.59	13.463087	-56.977767	190.81	-1.080	1.350	2.460	190.59	0.00	2.90	 	 	 	 	 	 	 	 	 	 	 	 	 	 	 	 	 	 	1581479471	7.86	14.56
12/02/2020 03:51:12	120220	12022020	035112	191.27	13.463052	-56.977777	191.48	-0.670	0.990	1.860	191.27	-0.40	2.30	 	 	 	 	 	 	 	 	 	 	 	 	 	 	 	 	 	 	1581479472	7.58	14.04
12/02/2020 03:51:13	120220	12022020	035113	191.77	13.463013	-56.977783	191.95	0.210	-0.130	1.090	191.77	-1.50	1.50	 	 	 	 	 	 	 	 	 	 	 	 	 	 	 	 	 	 	1581479473	7.86	14.56
12/02/2020 03:51:14	120220	12022020	035114	191.90	13.462972	-56.977787	192.05	1.040	-1.270	0.520	191.90	-2.60	1.00	 	 	 	 	 	 	 	 	 	 	 	 	 	 	 	 	 	 	1581479474	8.54	15.82
12/02/2020 03:51:15	120220	12022020	035115	191.66	13.462935	-56.977792	191.79	1.270	-1.720	0.460	191.66	-3.10	0.90	 	 	 	 	 	 	 	 	 	 	 	 	 	 	 	 	 	 	1581479475	8.70	16.11
12/02/2020 03:51:16	120220	12022020	035116	191.16	13.462900	-56.977798	191.29	0.840	-1.480	1.060	191.16	-2.80	1.60	 	 	 	 	 	 	 	 	 	 	 	 	 	 	 	 	 	 	1581479476	8.14	15.08
12/02/2020 03:51:17	120220	12022020	035117	190.58	13.462867	-56.977808	190.72	0.110	-0.960	1.940	190.58	-2.30	2.40	 	 	 	 	 	 	 	 	 	 	 	 	 	 	 	 	 	 	1581479477	7.57	14.02
12/02/2020 03:51:18	120220	12022020	035118	190.17	13.462832	-56.977823	190.33	-0.530	-0.480	2.720	190.17	-1.80	3.20	 	 	 	 	 	 	 	 	 	 	 	 	 	 	 	 	 	 	1581479478	7.64	14.15
12/02/2020 03:51:19	120220	12022020	035119	189.86	13.462795	-56.977840	190.04	-0.870	-0.250	3.360	189.86	-1.60	3.80	 	 	 	 	 	 	 	 	 	 	 	 	 	 	 	 	 	 	1581479479	8.05	14.91
12/02/2020 03:51:20	120220	12022020	035120	189.55	13.462757	-56.977855	189.74	-0.870	-0.130	3.630	189.55	-1.50	4.10	 	 	 	 	 	 	 	 	 	 	 	 	 	 	 	 	 	 	1581479480	8.57	15.87
12/02/2020 03:51:21	120220	12022020	035121	189.39	13.462722	-56.977868	189.61	-0.690	0.330	3.420	189.39	-1.00	3.90	 	 	 	 	 	 	 	 	 	 	 	 	 	 	 	 	 	 	1581479481	8.80	16.30
12/02/2020 03:51:22	120220	12022020	035122	189.59	13.462687	-56.977878	189.81	-0.470	1.120	2.830	189.59	-0.20	3.30	 	 	 	 	 	 	 	 	 	 	 	 	 	 	 	 	 	 	1581479482	8.32	15.41
12/02/2020 03:51:23	120220	12022020	035123	190.00	13.462653	-56.977883	190.20	-0.230	1.480	1.990	190.00	0.10	2.40	 	 	 	 	 	 	 	 	 	 	 	 	 	 	 	 	 	 	1581479483	7.53	13.95
12/02/2020 03:51:24	120220	12022020	035124	190.38	13.462617	-56.977888	190.57	0.210	0.980	1.130	190.38	-0.40	1.60	 	 	 	 	 	 	 	 	 	 	 	 	 	 	 	 	 	 	1581479484	7.42	13.74
12/02/2020 03:51:25	120220	12022020	035125	190.67	13.462577	-56.977892	190.84	0.890	-0.020	0.450	190.67	-1.40	0.90	 	 	 	 	 	 	 	 	 	 	 	 	 	 	 	 	 	 	1581479485	8.02	14.85
12/02/2020 03:51:26	120220	12022020	035126	190.98	13.462538	-56.977893	191.14	1.410	-0.810	0.040	190.98	-2.20	0.50	 	 	 	 	 	 	 	 	 	 	 	 	 	 	 	 	 	 	1581479486	8.43	15.61
12/02/2020 03:51:27	120220	12022020	035127	191.23	13.462505	-56.977898	191.39	1.290	-1.210	0.350	191.23	-2.60	0.90	 	 	 	 	 	 	 	 	 	 	 	 	 	 	 	 	 	 	1581479487	8.16	15.11
12/02/2020 03:51:28	120220	12022020	035128	191.03	13.462470	-56.977910	191.17	0.570	-1.680	1.480	191.03	-3.00	2.00	 	 	 	 	 	 	 	 	 	 	 	 	 	 	 	 	 	 	1581479488	7.53	13.95
12/02/2020 03:51:29	120220	12022020	035129	190.21	13.462433	-56.977928	190.36	-0.260	-2.240	3.140	190.21	-3.60	3.70	 	 	 	 	 	 	 	 	 	 	 	 	 	 	 	 	 	 	1581479489	7.76	14.37
12/02/2020 03:51:30	120220	12022020	035130	189.21	13.462398	-56.977948	189.40	-0.860	-2.120	4.700	189.21	-3.40	5.20	 	 	 	 	 	 	 	 	 	 	 	 	 	 	 	 	 	 	1581479490	8.71	16.13
12/02/2020 03:51:31	120220	12022020	035131	188.37	13.462363	-56.977968	188.61	-1.100	-1.130	5.630	188.37	-2.40	6.10	 	 	 	 	 	 	 	 	 	 	 	 	 	 	 	 	 	 	1581479491	8.92	16.52
12/02/2020 03:51:32	120220	12022020	035132	187.97	13.462328	-56.977983	188.25	-1.010	0.130	5.500	187.97	-1.20	5.90	 	 	 	 	 	 	 	 	 	 	 	 	 	 	 	 	 	 	1581479492	8.43	15.61
12/02/2020 03:51:33	120220	12022020	035133	188.15	13.462293	-56.977992	188.44	-0.690	1.110	4.430	188.15	-0.20	4.80	 	 	 	 	 	 	 	 	 	 	 	 	 	 	 	 	 	 	1581479493	8.01	14.83
12/02/2020 03:51:34	120220	12022020	035134	188.78	13.462255	-56.977995	189.07	-0.270	1.590	2.760	188.78	0.20	3.20	 	 	 	 	 	 	 	 	 	 	 	 	 	 	 	 	 	 	1581479494	7.95	14.72
12/02/2020 03:51:35	120220	12022020	035135	189.76	13.462217	-56.977993	190.00	0.140	1.620	1.010	189.76	0.30	1.40	 	 	 	 	 	 	 	 	 	 	 	 	 	 	 	 	 	 	1581479495	8.12	15.04
12/02/2020 03:51:36	120220	12022020	035136	190.78	13.462180	-56.977992	190.96	0.430	1.200	-0.360	190.78	-0.20	0.10	 	 	 	 	 	 	 	 	 	 	 	 	 	 	 	 	 	 	1581479496	8.15	15.09
12/02/2020 03:51:37	120220	12022020	035137	191.32	13.462142	-56.977993	191.47	0.600	0.210	-0.850	191.32	-1.20	-0.30	 	 	 	 	 	 	 	 	 	 	 	 	 	 	 	 	 	 	1581479497	8.05	14.91
12/02/2020 03:51:38	120220	12022020	035138	191.28	13.462105	-56.978002	191.42	0.670	-1.030	-0.200	191.28	-2.40	0.30	 	 	 	 	 	 	 	 	 	 	 	 	 	 	 	 	 	 	1581479498	8.09	14.98
12/02/2020 03:51:39	120220	12022020	035139	190.91	13.462070	-56.978017	191.06	0.620	-1.790	1.060	190.91	-3.10	1.60	 	 	 	 	 	 	 	 	 	 	 	 	 	 	 	 	 	 	1581479499	8.24	15.26
12/02/2020 03:51:40	120220	12022020	035140	190.37	13.462037	-56.978032	190.53	0.440	-1.850	2.450	190.37	-3.20	3.00	 	 	 	 	 	 	 	 	 	 	 	 	 	 	 	 	 	 	1581479500	8.08	14.96
12/02/2020 03:51:41	120220	12022020	035141	189.67	13.462005	-56.978047	189.84	0.170	-1.570	3.680	189.67	-2.90	4.20	 	 	 	 	 	 	 	 	 	 	 	 	 	 	 	 	 	 	1581479501	7.74	14.33
12/02/2020 03:51:42	120220	12022020	035142	188.92	13.461970	-56.978062	189.09	-0.090	-1.120	4.320	188.92	-2.40	4.80	 	 	 	 	 	 	 	 	 	 	 	 	 	 	 	 	 	 	1581479502	7.79	14.43
12/02/2020 03:51:43	120220	12022020	035143	188.29	13.461935	-56.978073	188.50	-0.270	-0.480	4.300	188.29	-1.80	4.70	 	 	 	 	 	 	 	 	 	 	 	 	 	 	 	 	 	 	1581479503	7.98	14.78
12/02/2020 03:51:44	120220	12022020	035144	188.17	13.461900	-56.978082	188.47	-0.460	0.410	3.670	188.22	-0.90	4.10	 	 	 	 	 	 	 	 	 	 	 	 	 	 	 	 	 	 	1581479504	8.06	14.93
12/02/2020 03:51:45	120220	12022020	035145	188.94	13.461865	-56.978087	189.21	-0.670	1.330	2.440	188.94	0.00	2.90	 	 	 	 	 	 	 	 	 	 	 	 	 	 	 	 	 	 	1581479505	7.74	14.33
12/02/2020 03:51:46	120220	12022020	035146	190.07	13.461832	-56.978090	190.30	-0.740	1.580	1.150	190.07	0.20	1.60	 	 	 	 	 	 	 	 	 	 	 	 	 	 	 	 	 	 	1581479506	7.30	13.52
12/02/2020 03:51:47	120220	12022020	035147	190.93	13.461793	-56.978097	191.12	-0.450	0.670	0.430	190.93	-0.80	0.90	 	 	 	 	 	 	 	 	 	 	 	 	 	 	 	 	 	 	1581479507	7.43	13.76
12/02/2020 03:51:48	120220	12022020	035148	191.19	13.461752	-56.978105	191.35	0.220	-0.950	0.350	191.19	-2.40	0.80	 	 	 	 	 	 	 	 	 	 	 	 	 	 	 	 	 	 	1581479508	8.29	15.35
12/02/2020 03:51:49	120220	12022020	035149	190.91	13.461712	-56.978113	191.04	0.860	-2.060	0.820	190.91	-3.40	1.30	 	 	 	 	 	 	 	 	 	 	 	 	 	 	 	 	 	 	1581479509	9.07	16.80
12/02/2020 03:51:50	120220	12022020	035150	190.27	13.461677	-56.978122	190.41	1.000	-1.920	1.660	190.27	-3.20	2.20	 	 	 	 	 	 	 	 	 	 	 	 	 	 	 	 	 	 	1581479510	8.84	16.37
12/02/2020 03:51:51	120220	12022020	035151	189.42	13.461643	-56.978130	189.56	0.550	-0.950	2.550	189.42	-2.30	3.10	 	 	 	 	 	 	 	 	 	 	 	 	 	 	 	 	 	 	1581479511	7.82	14.48
12/02/2020 03:51:52	120220	12022020	035152	188.62	13.461612	-56.978142	188.79	-0.230	0.120	3.330	188.62	-1.20	3.80	 	 	 	 	 	 	 	 	 	 	 	 	 	 	 	 	 	 	1581479512	7.24	13.41
12/02/2020 03:51:53	120220	12022020	035153	188.28	13.461578	-56.978157	188.52	-0.970	1.040	3.700	188.28	-0.30	4.20	 	 	 	 	 	 	 	 	 	 	 	 	 	 	 	 	 	 	1581479513	7.44	13.78
12/02/2020 03:51:54	120220	12022020	035154	188.63	13.461547	-56.978172	188.90	-1.280	1.720	3.390	188.63	0.40	3.80	 	 	 	 	 	 	 	 	 	 	 	 	 	 	 	 	 	 	1581479514	7.73	14.32
12/02/2020 03:51:55	120220	12022020	035155	189.35	13.461512	-56.978182	189.61	-0.940	1.710	2.540	189.35	0.30	3.00	 	 	 	 	 	 	 	 	 	 	 	 	 	 	 	 	 	 	1581479515	7.56	14.00
12/02/2020 03:51:56	120220	12022020	035156	190.03	13.461475	-56.978190	190.25	0.010	0.730	1.500	190.03	-0.70	1.90	 	 	 	 	 	 	 	 	 	 	 	 	 	 	 	 	 	 	1581479516	7.60	14.08
12/02/2020 03:51:57	120220	12022020	035157	190.46	13.461435	-56.978193	190.65	1.050	-0.810	0.640	190.46	-2.20	1.10	 	 	 	 	 	 	 	 	 	 	 	 	 	 	 	 	 	 	1581479517	8.15	15.09
12/02/2020 03:51:58	120220	12022020	035158	190.65	13.461397	-56.978197	190.85	1.520	-1.890	0.280	190.67	-3.30	0.80	 	 	 	 	 	 	 	 	 	 	 	 	 	 	 	 	 	 	1581479518	8.68	16.08
12/02/2020 03:51:59	120220	12022020	035159	190.66	13.461363	-56.978203	190.82	1.160	-1.920	0.540	190.66	-3.30	1.10	 	 	 	 	 	 	 	 	 	 	 	 	 	 	 	 	 	 	1581479519	8.31	15.39
12/02/2020 03:52:00	120220	12022020	035200	190.28	13.461332	-56.978213	190.42	0.420	-1.470	1.310	190.28	-2.80	1.80	 	 	 	 	 	 	 	 	 	 	 	 	 	 	 	 	 	 	1581479520	7.28	13.48
12/02/2020 03:52:01	120220	12022020	035201	189.61	13.461298	-56.978225	189.74	-0.150	-1.070	2.290	189.61	-2.40	2.80	1016.90	26.10	26.20	20.60	20.70	-1.0	71.0	72.0	403.0	25.7	257.00	10.70	68.00	12.30	16	8326.0	27.2	27.2	1581479521	7.06	13.08
12/02/2020 03:52:02	120220	12022020	035202	188.98	13.461262	-56.978238	189.15	-0.370	-0.640	3.040	188.98	-2.00	3.50	 	 	 	 	 	 	 	 	 	 	 	 	 	 	 	 	 	 	1581479522	7.69	14.24
12/02/2020 03:52:03	120220	12022020	035203	188.72	13.461227	-56.978248	188.93	-0.560	0.020	3.450	188.72	-1.30	3.90	 	 	 	 	 	 	 	 	 	 	 	 	 	 	 	 	 	 	1581479523	8.13	15.06
12/02/2020 03:52:04	120220	12022020	035204	188.89	13.461192	-56.978260	189.13	-0.940	0.660	3.610	188.89	-0.70	4.10	 	 	 	 	 	 	 	 	 	 	 	 	 	 	 	 	 	 	1581479524	8.02	14.85
12/02/2020 03:52:05	120220	12022020	035205	189.24	13.461157	-56.978275	189.48	-1.320	0.940	3.690	189.24	-0.40	4.10	 	 	 	 	 	 	 	 	 	 	 	 	 	 	 	 	 	 	1581479525	7.91	14.65
12/02/2020 03:52:06	120220	12022020	035206	189.42	13.461120	-56.978290	189.65	-1.240	0.820	3.670	189.42	-0.50	4.10	 	 	 	 	 	 	 	 	 	 	 	 	 	 	 	 	 	 	1581479526	8.09	14.98
12/02/2020 03:52:07	120220	12022020	035207	189.50	13.461085	-56.978302	189.72	-0.530	0.620	3.180	189.50	-0.70	3.60	 	 	 	 	 	 	 	 	 	 	 	 	 	 	 	 	 	 	1581479527	8.33	15.43
12/02/2020 03:52:08	120220	12022020	035208	189.65	13.461050	-56.978307	189.85	0.500	0.600	1.980	189.65	-0.80	2.40	 	 	 	 	 	 	 	 	 	 	 	 	 	 	 	 	 	 	1581479528	8.10	15.00
12/02/2020 03:52:09	120220	12022020	035209	189.94	13.461017	-56.978303	190.10	1.300	0.480	0.430	189.94	-0.90	0.80	 	 	 	 	 	 	 	 	 	 	 	 	 	 	 	 	 	 	1581479529	7.54	13.96
12/02/2020 03:52:10	120220	12022020	035210	190.24	13.460980	-56.978300	190.35	1.530	-0.150	-0.730	190.24	-1.50	-0.30	 	 	 	 	 	 	 	 	 	 	 	 	 	 	 	 	 	 	1581479530	7.41	13.72
12/02/2020 03:52:11	120220	12022020	035211	190.28	13.460943	-56.978302	190.38	1.200	-1.190	-0.770	190.28	-2.60	-0.30	 	 	 	 	 	 	 	 	 	 	 	 	 	 	 	 	 	 	1581479531	7.71	14.28
12/02/2020 03:52:12	120220	12022020	035212	189.96	13.460907	-56.978312	190.07	0.600	-2.100	0.190	189.96	-3.50	0.70	 	 	 	 	 	 	 	 	 	 	 	 	 	 	 	 	 	 	1581479532	7.93	14.69
12/02/2020 03:52:13	120220	12022020	035213	189.37	13.460872	-56.978327	189.51	0.010	-2.410	1.800	189.37	-3.70	2.30	 	 	 	 	 	 	 	 	 	 	 	 	 	 	 	 	 	 	1581479533	8.08	14.96
12/02/2020 03:52:14	120220	12022020	035214	188.59	13.460838	-56.978347	188.76	-0.460	-2.010	3.590	188.59	-3.30	4.10	 	 	 	 	 	 	 	 	 	 	 	 	 	 	 	 	 	 	1581479534	8.21	15.20
12/02/2020 03:52:15	120220	12022020	035215	187.81	13.460805	-56.978365	188.04	-0.820	-1.060	4.940	187.81	-2.40	5.40	 	 	 	 	 	 	 	 	 	 	 	 	 	 	 	 	 	 	1581479535	8.32	15.41
12/02/2020 03:52:16	120220	12022020	035216	187.44	13.460772	-56.978382	187.73	-1.090	0.290	5.280	187.44	-1.00	5.70	 	 	 	 	 	 	 	 	 	 	 	 	 	 	 	 	 	 	1581479536	8.35	15.46
12/02/2020 03:52:17	120220	12022020	035217	187.70	13.460740	-56.978393	188.00	-1.170	1.730	4.560	187.70	0.40	4.90	 	 	 	 	 	 	 	 	 	 	 	 	 	 	 	 	 	 	1581479537	7.95	14.72
12/02/2020 03:52:18	120220	12022020	035218	188.54	13.460707	-56.978398	188.82	-0.900	2.610	2.950	188.54	1.30	3.30	 	 	 	 	 	 	 	 	 	 	 	 	 	 	 	 	 	 	1581479538	7.28	13.48
12/02/2020 03:52:19	120220	12022020	035219	189.45	13.460670	-56.978397	189.68	-0.170	2.080	1.190	189.45	0.70	1.60	 	 	 	 	 	 	 	 	 	 	 	 	 	 	 	 	 	 	1581479539	7.06	13.08
12/02/2020 03:52:20	120220	12022020	035220	190.04	13.460628	-56.978397	190.21	0.840	0.360	-0.090	190.04	-1.10	0.40	 	 	 	 	 	 	 	 	 	 	 	 	 	 	 	 	 	 	1581479540	7.96	14.74
12/02/2020 03:52:21	120220	12022020	035221	190.32	13.460587	-56.978398	190.46	1.580	-1.220	-0.490	190.32	-2.60	0.00	 	 	 	 	 	 	 	 	 	 	 	 	 	 	 	 	 	 	1581479541	8.99	16.65
12/02/2020 03:52:22	120220	12022020	035222	190.29	13.460552	-56.978402	190.37	1.550	-1.850	-0.060	190.25	-3.20	0.40	 	 	 	 	 	 	 	 	 	 	 	 	 	 	 	 	 	 	1581479542	8.70	16.11
12/02/2020 03:52:23	120220	12022020	035223	189.78	13.460520	-56.978412	189.91	0.880	-1.810	0.890	189.78	-3.10	1.40	 	 	 	 	 	 	 	 	 	 	 	 	 	 	 	 	 	 	1581479543	7.58	14.04
12/02/2020 03:52:24	120220	12022020	035224	189.20	13.460488	-56.978425	189.36	0.070	-1.540	2.060	189.20	-2.90	2.50	 	 	 	 	 	 	 	 	 	 	 	 	 	 	 	 	 	 	1581479544	7.08	13.11
12/02/2020 03:52:25	120220	12022020	035225	188.80	13.460455	-56.978440	188.98	-0.530	-1.140	3.020	188.80	-2.40	3.50	 	 	 	 	 	 	 	 	 	 	 	 	 	 	 	 	 	 	1581479545	7.42	13.74
12/02/2020 03:52:26	120220	12022020	035226	188.64	13.460422	-56.978455	188.85	-0.870	-0.550	3.510	188.64	-1.90	3.90	 	 	 	 	 	 	 	 	 	 	 	 	 	 	 	 	 	 	1581479546	7.83	14.50
12/02/2020 03:52:27	120220	12022020	035227	188.67	13.460388	-56.978468	188.90	-1.030	0.080	3.460	188.67	-1.20	3.90	 	 	 	 	 	 	 	 	 	 	 	 	 	 	 	 	 	 	1581479547	7.89	14.61
12/02/2020 03:52:28	120220	12022020	035228	188.81	13.460352	-56.978478	189.04	-1.010	0.470	3.070	188.81	-0.90	3.50	 	 	 	 	 	 	 	 	 	 	 	 	 	 	 	 	 	 	1581479548	7.85	14.54
12/02/2020 03:52:29	120220	12022020	035229	188.91	13.460315	-56.978488	189.14	-0.660	0.560	2.630	188.91	-0.80	3.10	 	 	 	 	 	 	 	 	 	 	 	 	 	 	 	 	 	 	1581479549	7.99	14.80
12/02/2020 03:52:30	120220	12022020	035230	189.24	13.460278	-56.978493	189.46	-0.110	0.720	1.910	189.24	-0.60	2.30	 	 	 	 	 	 	 	 	 	 	 	 	 	 	 	 	 	 	1581479550	8.25	15.28
12/02/2020 03:52:31	120220	12022020	035231	190.11	13.460243	-56.978495	190.33	0.330	1.100	0.820	190.11	-0.20	1.20	 	 	 	 	 	 	 	 	 	 	 	 	 	 	 	 	 	 	1581479551	8.05	14.91
12/02/2020 03:52:32	120220	12022020	035232	191.08	13.460210	-56.978497	191.29	0.610	1.080	-0.070	191.08	-0.30	0.40	 	 	 	 	 	 	 	 	 	 	 	 	 	 	 	 	 	 	1581479552	7.33	13.58
12/02/2020 03:52:33	120220	12022020	035233	191.53	13.460175	-56.978502	191.67	0.930	0.140	-0.200	191.53	-1.30	0.30	 	 	 	 	 	 	 	 	 	 	 	 	 	 	 	 	 	 	1581479553	7.11	13.17
12/02/2020 03:52:34	120220	12022020	035234	191.25	13.460137	-56.978508	191.24	1.240	-1.360	0.580	191.11	-2.80	1.10	 	 	 	 	 	 	 	 	 	 	 	 	 	 	 	 	 	 	1581479554	7.68	14.22
12/02/2020 03:52:35	120220	12022020	035235	190.11	13.460098	-56.978518	190.26	1.160	-2.370	1.960	190.11	-3.70	2.50	 	 	 	 	 	 	 	 	 	 	 	 	 	 	 	 	 	 	1581479555	8.39	15.54
12/02/2020 03:52:36	120220	12022020	035236	189.18	13.460065	-56.978533	189.39	0.500	-2.200	3.460	189.18	-3.50	4.00	 	 	 	 	 	 	 	 	 	 	 	 	 	 	 	 	 	 	1581479556	8.45	15.65
12/02/2020 03:52:37	120220	12022020	035237	188.69	13.460035	-56.978552	188.94	-0.470	-1.100	4.490	188.69	-2.40	5.00	 	 	 	 	 	 	 	 	 	 	 	 	 	 	 	 	 	 	1581479557	7.90	14.63
12/02/2020 03:52:38	120220	12022020	035238	188.55	13.460005	-56.978568	188.81	-1.140	0.150	4.790	188.55	-1.10	5.20	 	 	 	 	 	 	 	 	 	 	 	 	 	 	 	 	 	 	1581479558	7.46	13.82
12/02/2020 03:52:39	120220	12022020	035239	188.69	13.459972	-56.978580	188.98	-1.150	0.840	4.220	188.69	-0.50	4.60	 	 	 	 	 	 	 	 	 	 	 	 	 	 	 	 	 	 	1581479559	7.34	13.59
12/02/2020 03:52:40	120220	12022020	035240	189.22	13.459935	-56.978588	189.50	-0.760	0.930	2.940	189.22	-0.40	3.40	 	 	 	 	 	 	 	 	 	 	 	 	 	 	 	 	 	 	1581479560	7.66	14.19
12/02/2020 03:52:41	120220	12022020	035241	189.95	13.459898	-56.978593	190.19	-0.340	0.690	1.500	189.95	-0.70	1.90	 	 	 	 	 	 	 	 	 	 	 	 	 	 	 	 	 	 	1581479561	8.00	14.82
12/02/2020 03:52:42	120220	12022020	035242	190.73	13.459862	-56.978597	190.93	-0.020	0.400	0.140	190.73	-1.00	0.60	 	 	 	 	 	 	 	 	 	 	 	 	 	 	 	 	 	 	1581479562	8.03	14.87
12/02/2020 03:52:43	120220	12022020	035243	191.37	13.459827	-56.978598	191.52	0.330	0.160	-0.770	191.37	-1.20	-0.30	 	 	 	 	 	 	 	 	 	 	 	 	 	 	 	 	 	 	1581479563	7.76	14.37
12/02/2020 03:52:44	120220	12022020	035244	191.44	13.459792	-56.978602	191.54	0.760	-0.380	-0.720	191.44	-1.80	-0.20	 	 	 	 	 	 	 	 	 	 	 	 	 	 	 	 	 	 	1581479564	7.46	13.82
12/02/2020 03:52:45	120220	12022020	035245	190.90	13.459755	-56.978610	190.99	1.080	-1.320	0.200	190.90	-2.70	0.70	 	 	 	 	 	 	 	 	 	 	 	 	 	 	 	 	 	 	1581479565	7.62	14.11
12/02/2020 03:52:46	120220	12022020	035246	190.31	13.459717	-56.978620	190.32	1.000	-1.840	1.500	190.19	-3.20	2.00	 	 	 	 	 	 	 	 	 	 	 	 	 	 	 	 	 	 	1581479566	8.30	15.37
12/02/2020 03:52:47	120220	12022020	035247	189.78	13.459683	-56.978633	189.97	0.440	-1.210	2.730	189.78	-2.50	3.20	 	 	 	 	 	 	 	 	 	 	 	 	 	 	 	 	 	 	1581479567	8.40	15.56
12/02/2020 03:52:48	120220	12022020	035248	189.70	13.459655	-56.978645	189.92	-0.390	0.040	3.480	189.70	-1.30	3.90	 	 	 	 	 	 	 	 	 	 	 	 	 	 	 	 	 	 	1581479568	7.56	14.00
12/02/2020 03:52:49	120220	12022020	035249	189.75	13.459623	-56.978658	189.98	-1.130	0.830	3.790	189.75	-0.50	4.20	 	 	 	 	 	 	 	 	 	 	 	 	 	 	 	 	 	 	1581479569	6.88	12.74
12/02/2020 03:52:50	120220	12022020	035250	189.69	13.459590	-56.978675	189.92	-1.480	0.750	3.980	189.69	-0.60	4.40	 	 	 	 	 	 	 	 	 	 	 	 	 	 	 	 	 	 	1581479570	7.18	13.30
12/02/2020 03:52:51	120220	12022020	035251	189.47	13.459553	-56.978692	189.70	-1.260	0.130	3.970	189.47	-1.20	4.40	 	 	 	 	 	 	 	 	 	 	 	 	 	 	 	 	 	 	1581479571	8.04	14.89
12/02/2020 03:52:52	120220	12022020	035252	189.16	13.459517	-56.978707	189.38	-0.500	-0.350	3.690	189.16	-1.70	4.10	 	 	 	 	 	 	 	 	 	 	 	 	 	 	 	 	 	 	1581479572	8.66	16.04
12/02/2020 03:52:53	120220	12022020	035253	188.99	13.459482	-56.978713	189.21	0.480	-0.200	2.840	188.99	-1.50	3.30	 	 	 	 	 	 	 	 	 	 	 	 	 	 	 	 	 	 	1581479573	8.47	15.69
12/02/2020 03:52:54	120220	12022020	035254	189.39	13.459450	-56.978713	189.61	1.190	0.360	1.350	189.39	-1.00	1.80	 	 	 	 	 	 	 	 	 	 	 	 	 	 	 	 	 	 	1581479574	7.59	14.06
12/02/2020 03:52:55	120220	12022020	035255	190.11	13.459417	-56.978708	190.30	1.330	0.510	-0.100	190.11	-0.80	0.40	 	 	 	 	 	 	 	 	 	 	 	 	 	 	 	 	 	 	1581479575	6.95	12.87
12/02/2020 03:52:56	120220	12022020	035256	190.51	13.459380	-56.978708	190.65	1.070	-0.310	-0.570	190.51	-1.70	-0.10	 	 	 	 	 	 	 	 	 	 	 	 	 	 	 	 	 	 	1581479576	7.16	13.26
12/02/2020 03:52:57	120220	12022020	035257	190.24	13.459342	-56.978715	190.36	0.680	-1.580	0.170	190.24	-2.90	0.70	 	 	 	 	 	 	 	 	 	 	 	 	 	 	 	 	 	 	1581479577	7.83	14.50
12/02/2020 03:52:58	120220	12022020	035258	189.64	13.459305	-56.978728	189.80	0.200	-2.030	1.600	189.64	-3.30	2.10	 	 	 	 	 	 	 	 	 	 	 	 	 	 	 	 	 	 	1581479578	8.51	15.76
12/02/2020 03:52:59	120220	12022020	035259	189.14	13.459273	-56.978745	189.33	-0.350	-1.370	3.020	189.14	-2.60	3.50	 	 	 	 	 	 	 	 	 	 	 	 	 	 	 	 	 	 	1581479579	8.25	15.28
12/02/2020 03:53:00	120220	12022020	035300	188.82	13.459243	-56.978760	189.04	-0.840	-0.370	3.800	188.82	-1.70	4.30	 	 	 	 	 	 	 	 	 	 	 	 	 	 	 	 	 	 	1581479580	7.53	13.95
12/02/2020 03:53:01	120220	12022020	035301	188.54	13.459210	-56.978773	188.77	-1.080	0.100	4.110	188.54	-1.20	4.50	1016.90	26.20	26.20	20.80	20.90	-1.0	72.0	72.0	406.0	25.7	255.00	9.80	65.00	11.50	16	9146.0	27.2	27.2	1581479581	7.23	13.39
12/02/2020 03:53:02	120220	12022020	035302	188.30	13.459172	-56.978787	188.54	-1.030	0.010	4.090	188.30	-1.30	4.50	 	 	 	 	 	 	 	 	 	 	 	 	 	 	 	 	 	 	1581479582	7.79	14.43
12/02/2020 03:53:03	120220	12022020	035303	188.11	13.459135	-56.978798	188.36	-0.740	-0.010	3.860	188.11	-1.30	4.30	 	 	 	 	 	 	 	 	 	 	 	 	 	 	 	 	 	 	1581479583	8.48	15.70
12/02/2020 03:53:04	120220	12022020	035304	188.07	13.459100	-56.978808	188.31	-0.330	0.470	3.360	188.07	-0.80	3.80	 	 	 	 	 	 	 	 	 	 	 	 	 	 	 	 	 	 	1581479584	8.45	15.65
12/02/2020 03:53:05	120220	12022020	035305	188.44	13.459068	-56.978812	188.70	0.100	1.210	2.290	188.44	-0.10	2.70	 	 	 	 	 	 	 	 	 	 	 	 	 	 	 	 	 	 	1581479585	7.73	14.32
12/02/2020 03:53:06	120220	12022020	035306	189.31	13.459035	-56.978810	189.54	0.480	1.520	0.770	189.31	0.20	1.20	 	 	 	 	 	 	 	 	 	 	 	 	 	 	 	 	 	 	1581479586	7.02	13.00
12/02/2020 03:53:07	120220	12022020	035307	190.19	13.459000	-56.978808	190.39	0.790	0.890	-0.380	190.19	-0.50	0.10	 	 	 	 	 	 	 	 	 	 	 	 	 	 	 	 	 	 	1581479587	7.00	12.96
12/02/2020 03:53:08	120220	12022020	035308	190.51	13.458962	-56.978812	190.66	1.040	-0.650	-0.360	190.51	-2.10	0.10	 	 	 	 	 	 	 	 	 	 	 	 	 	 	 	 	 	 	1581479588	7.55	13.98
12/02/2020 03:53:09	120220	12022020	035309	190.03	13.458923	-56.978822	190.16	1.160	-2.300	0.910	190.03	-3.70	1.50	 	 	 	 	 	 	 	 	 	 	 	 	 	 	 	 	 	 	1581479589	8.18	15.15
12/02/2020 03:53:10	120220	12022020	035310	188.89	13.458887	-56.978837	189.04	0.960	-3.010	2.980	188.89	-4.30	3.50	 	 	 	 	 	 	 	 	 	 	 	 	 	 	 	 	 	 	1581479590	8.58	15.89
12/02/2020 03:53:11	120220	12022020	035311	187.75	13.458855	-56.978853	187.97	0.340	-2.250	4.750	187.75	-3.50	5.20	 	 	 	 	 	 	 	 	 	 	 	 	 	 	 	 	 	 	1581479591	8.44	15.63
12/02/2020 03:53:12	120220	12022020	035312	187.36	13.458827	-56.978870	187.66	-0.540	-0.450	5.400	187.36	-1.70	5.80	 	 	 	 	 	 	 	 	 	 	 	 	 	 	 	 	 	 	1581479592	7.81	14.46
12/02/2020 03:53:13	120220	12022020	035313	187.74	13.458798	-56.978882	188.06	-1.240	1.230	4.940	187.74	-0.00	5.30	 	 	 	 	 	 	 	 	 	 	 	 	 	 	 	 	 	 	1581479593	6.89	12.76
12/02/2020 03:53:14	120220	12022020	035314	188.33	13.458765	-56.978888	188.64	-1.360	1.680	3.810	188.33	0.30	4.20	 	 	 	 	 	 	 	 	 	 	 	 	 	 	 	 	 	 	1581479594	6.52	12.08
12/02/2020 03:53:15	120220	12022020	035315	188.77	13.458727	-56.978895	189.04	-0.840	0.850	2.570	188.77	-0.50	3.00	 	 	 	 	 	 	 	 	 	 	 	 	 	 	 	 	 	 	1581479595	7.36	13.63
12/02/2020 03:53:16	120220	12022020	035316	189.01	13.458685	-56.978898	189.22	-0.040	-0.280	1.660	189.01	-1.60	2.10	 	 	 	 	 	 	 	 	 	 	 	 	 	 	 	 	 	 	1581479596	8.57	15.87
12/02/2020 03:53:17	120220	12022020	035317	189.16	13.458645	-56.978902	189.35	0.490	-0.870	1.140	189.16	-2.20	1.60	 	 	 	 	 	 	 	 	 	 	 	 	 	 	 	 	 	 	1581479597	8.96	16.59
12/02/2020 03:53:18	120220	12022020	035318	189.32	13.458610	-56.978905	189.52	0.490	-0.820	1.050	189.32	-2.10	1.50	 	 	 	 	 	 	 	 	 	 	 	 	 	 	 	 	 	 	1581479598	8.38	15.52
12/02/2020 03:53:19	120220	12022020	035319	189.47	13.458577	-56.978913	189.65	0.110	-0.480	1.390	189.47	-1.80	1.90	 	 	 	 	 	 	 	 	 	 	 	 	 	 	 	 	 	 	1581479599	7.63	14.13
12/02/2020 03:53:20	120220	12022020	035320	189.49	13.458545	-56.978925	189.68	-0.220	-0.060	1.920	189.49	-1.40	2.40	 	 	 	 	 	 	 	 	 	 	 	 	 	 	 	 	 	 	1581479600	7.30	13.52
12/02/2020 03:53:21	120220	12022020	035321	189.37	13.458513	-56.978935	189.55	-0.170	0.290	2.250	189.37	-1.00	2.70	 	 	 	 	 	 	 	 	 	 	 	 	 	 	 	 	 	 	1581479601	7.31	13.54
12/02/2020 03:53:22	120220	12022020	035322	189.28	13.458478	-56.978943	189.46	0.230	0.350	2.120	189.28	-1.00	2.60	 	 	 	 	 	 	 	 	 	 	 	 	 	 	 	 	 	 	1581479602	7.36	13.63
12/02/2020 03:53:23	120220	12022020	035323	189.33	13.458442	-56.978948	189.50	0.620	0.040	1.810	189.33	-1.30	2.30	 	 	 	 	 	 	 	 	 	 	 	 	 	 	 	 	 	 	1581479603	7.55	13.98
12/02/2020 03:53:24	120220	12022020	035324	189.36	13.458405	-56.978955	189.50	0.720	-0.530	1.780	189.35	-1.90	2.30	 	 	 	 	 	 	 	 	 	 	 	 	 	 	 	 	 	 	1581479604	7.88	14.59
12/02/2020 03:53:25	120220	12022020	035325	189.09	13.458367	-56.978962	189.23	0.480	-1.040	2.210	189.09	-2.40	2.70	 	 	 	 	 	 	 	 	 	 	 	 	 	 	 	 	 	 	1581479605	8.13	15.06
12/02/2020 03:53:26	120220	12022020	035326	188.54	13.458330	-56.978973	188.70	0.020	-1.150	2.960	188.54	-2.40	3.50	 	 	 	 	 	 	 	 	 	 	 	 	 	 	 	 	 	 	1581479606	8.24	15.26
12/02/2020 03:53:27	120220	12022020	035327	188.05	13.458297	-56.978987	188.26	-0.550	-0.600	3.640	188.05	-1.90	4.10	 	 	 	 	 	 	 	 	 	 	 	 	 	 	 	 	 	 	1581479607	8.16	15.11
12/02/2020 03:53:28	120220	12022020	035328	188.04	13.458265	-56.979002	188.29	-1.010	0.320	3.590	188.04	-1.00	4.00	 	 	 	 	 	 	 	 	 	 	 	 	 	 	 	 	 	 	1581479608	7.85	14.54
12/02/2020 03:53:29	120220	12022020	035329	188.59	13.458233	-56.979012	188.84	-1.030	0.970	2.750	188.59	-0.30	3.20	 	 	 	 	 	 	 	 	 	 	 	 	 	 	 	 	 	 	1581479609	7.43	13.76
12/02/2020 03:53:30	120220	12022020	035330	189.30	13.458197	-56.979018	189.52	-0.430	0.760	1.500	189.30	-0.60	1.90	 	 	 	 	 	 	 	 	 	 	 	 	 	 	 	 	 	 	1581479610	7.32	13.56
12/02/2020 03:53:31	120220	12022020	035331	189.85	13.458157	-56.979022	190.04	0.460	-0.200	0.440	189.85	-1.50	0.90	 	 	 	 	 	 	 	 	 	 	 	 	 	 	 	 	 	 	1581479611	7.88	14.59
12/02/2020 03:53:32	120220	12022020	035332	190.14	13.458117	-56.979025	190.30	1.040	-1.030	-0.080	190.14	-2.30	0.40	 	 	 	 	 	 	 	 	 	 	 	 	 	 	 	 	 	 	1581479612	8.67	16.06
12/02/2020 03:53:33	120220	12022020	035333	190.06	13.458080	-56.979028	190.21	1.070	-1.200	-0.030	190.06	-2.50	0.50	 	 	 	 	 	 	 	 	 	 	 	 	 	 	 	 	 	 	1581479613	8.63	15.98
12/02/2020 03:53:34	120220	12022020	035334	189.65	13.458043	-56.979033	189.80	0.700	-1.000	0.480	189.65	-2.30	1.00	 	 	 	 	 	 	 	 	 	 	 	 	 	 	 	 	 	 	1581479614	7.99	14.80
12/02/2020 03:53:35	120220	12022020	035335	189.24	13.458007	-56.979042	189.43	0.080	-0.640	1.250	189.24	-1.90	1.80	 	 	 	 	 	 	 	 	 	 	 	 	 	 	 	 	 	 	1581479615	7.81	14.46
12/02/2020 03:53:36	120220	12022020	035336	189.16	13.457972	-56.979053	189.40	-0.730	-0.200	2.120	189.16	-1.50	2.60	 	 	 	 	 	 	 	 	 	 	 	 	 	 	 	 	 	 	1581479616	7.96	14.74
12/02/2020 03:53:37	120220	12022020	035337	189.18	13.457937	-56.979072	189.44	-1.390	0.110	3.190	189.18	-1.20	3.70	 	 	 	 	 	 	 	 	 	 	 	 	 	 	 	 	 	 	1581479617	8.11	15.02
12/02/2020 03:53:38	120220	12022020	035338	188.90	13.457900	-56.979093	189.17	-1.460	0.110	4.180	188.90	-1.20	4.70	 	 	 	 	 	 	 	 	 	 	 	 	 	 	 	 	 	 	1581479618	8.52	15.78
12/02/2020 03:53:39	120220	12022020	035339	188.39	13.457862	-56.979110	188.68	-0.840	-0.010	4.550	188.39	-1.30	5.00	 	 	 	 	 	 	 	 	 	 	 	 	 	 	 	 	 	 	1581479619	9.03	16.72
12/02/2020 03:53:40	120220	12022020	035340	188.07	13.457823	-56.979122	188.38	-0.030	0.110	4.260	188.07	-1.20	4.70	 	 	 	 	 	 	 	 	 	 	 	 	 	 	 	 	 	 	1581479620	9.02	16.71
12/02/2020 03:53:41	120220	12022020	035341	188.21	13.457788	-56.979128	188.53	0.470	0.490	3.380	188.21	-0.80	3.80	 	 	 	 	 	 	 	 	 	 	 	 	 	 	 	 	 	 	1581479621	8.54	15.82
12/02/2020 03:53:42	120220	12022020	035342	188.65	13.457752	-56.979130	188.93	0.710	0.770	2.090	188.65	-0.50	2.50	 	 	 	 	 	 	 	 	 	 	 	 	 	 	 	 	 	 	1581479622	7.86	14.56
12/02/2020 03:53:43	120220	12022020	035343	189.17	13.457715	-56.979130	189.40	0.900	0.560	0.760	189.17	-0.80	1.20	 	 	 	 	 	 	 	 	 	 	 	 	 	 	 	 	 	 	1581479623	7.61	14.09
12/02/2020 03:53:44	120220	12022020	035344	189.72	13.457677	-56.979130	189.92	1.130	-0.100	-0.190	189.72	-1.40	0.30	 	 	 	 	 	 	 	 	 	 	 	 	 	 	 	 	 	 	1581479624	7.94	14.70
12/02/2020 03:53:45	120220	12022020	035345	190.21	13.457637	-56.979132	190.38	1.200	-0.930	-0.550	190.21	-2.30	-0.00	 	 	 	 	 	 	 	 	 	 	 	 	 	 	 	 	 	 	1581479625	8.33	15.43
12/02/2020 03:53:46	120220	12022020	035346	190.39	13.457598	-56.979138	190.56	0.820	-1.720	0.170	190.39	-3.00	0.70	 	 	 	 	 	 	 	 	 	 	 	 	 	 	 	 	 	 	1581479626	8.48	15.70
12/02/2020 03:53:47	120220	12022020	035347	189.88	13.457560	-56.979155	190.05	-0.020	-2.270	2.210	189.88	-3.60	2.80	 	 	 	 	 	 	 	 	 	 	 	 	 	 	 	 	 	 	1581479627	8.52	15.78
12/02/2020 03:53:48	120220	12022020	035348	188.58	13.457522	-56.979180	188.76	-0.990	-2.360	4.790	188.58	-3.60	5.40	 	 	 	 	 	 	 	 	 	 	 	 	 	 	 	 	 	 	1581479628	8.88	16.45
12/02/2020 03:53:49	120220	12022020	035349	186.97	13.457483	-56.979208	187.19	-1.520	-1.770	6.910	186.97	-3.00	7.40	 	 	 	 	 	 	 	 	 	 	 	 	 	 	 	 	 	 	1581479629	9.75	18.06
12/02/2020 03:53:50	120220	12022020	035350	185.91	13.457447	-56.979232	186.20	-1.400	-0.350	7.890	185.91	-1.50	8.30	 	 	 	 	 	 	 	 	 	 	 	 	 	 	 	 	 	 	1581479630	10.15	18.80
12/02/2020 03:53:51	120220	12022020	035351	185.97	13.457413	-56.979243	186.33	-0.860	1.430	7.170	185.97	0.20	7.60	 	 	 	 	 	 	 	 	 	 	 	 	 	 	 	 	 	 	1581479631	9.36	17.33
12/02/2020 03:53:52	120220	12022020	035352	186.76	13.457375	-56.979245	187.10	-0.250	2.340	5.110	186.76	1.10	5.50	 	 	 	 	 	 	 	 	 	 	 	 	 	 	 	 	 	 	1581479632	7.87	14.58
12/02/2020 03:53:53	120220	12022020	035353	187.69	13.457333	-56.979240	187.97	0.270	1.790	2.640	187.69	0.40	3.10	 	 	 	 	 	 	 	 	 	 	 	 	 	 	 	 	 	 	1581479633	7.91	14.65
12/02/2020 03:53:54	120220	12022020	035354	188.48	13.457288	-56.979235	188.72	0.680	0.380	0.720	188.48	-1.00	1.20	 	 	 	 	 	 	 	 	 	 	 	 	 	 	 	 	 	 	1581479634	9.13	16.91
12/02/2020 03:53:55	120220	12022020	035355	189.08	13.457247	-56.979237	189.28	0.870	-0.690	-0.060	189.08	-2.00	0.40	 	 	 	 	 	 	 	 	 	 	 	 	 	 	 	 	 	 	1581479635	9.67	17.91
12/02/2020 03:53:56	120220	12022020	035356	189.21	13.457210	-56.979243	189.38	0.820	-1.130	0.220	189.21	-2.40	0.80	 	 	 	 	 	 	 	 	 	 	 	 	 	 	 	 	 	 	1581479636	8.91	16.50
12/02/2020 03:53:57	120220	12022020	035357	188.76	13.457175	-56.979253	188.93	0.690	-1.330	1.230	188.76	-2.60	1.70	 	 	 	 	 	 	 	 	 	 	 	 	 	 	 	 	 	 	1581479637	8.01	14.83
12/02/2020 03:53:58	120220	12022020	035358	188.28	13.457138	-56.979267	188.49	0.490	-1.280	2.280	188.28	-2.50	2.80	 	 	 	 	 	 	 	 	 	 	 	 	 	 	 	 	 	 	1581479638	8.06	14.93
12/02/2020 03:53:59	120220	12022020	035359	188.25	13.457102	-56.979278	188.50	0.210	-0.830	2.830	188.25	-2.10	3.30	 	 	 	 	 	 	 	 	 	 	 	 	 	 	 	 	 	 	1581479639	8.30	15.37
12/02/2020 03:54:00	120220	12022020	035400	188.48	13.457065	-56.979287	188.73	-0.190	-0.350	2.890	188.48	-1.60	3.40	 	 	 	 	 	 	 	 	 	 	 	 	 	 	 	 	 	 	1581479640	8.11	15.02
12/02/2020 03:54:01	120220	12022020	035401	188.59	13.457027	-56.979297	188.83	-0.630	-0.260	2.860	188.59	-1.60	3.30	1016.90	26.10	26.10	20.70	20.80	-1.0	72.0	72.0	408.0	25.7	253.00	11.00	64.00	12.90	16	9062.0	27.2	27.2	1581479641	8.12	15.04
12/02/2020 03:54:02	120220	12022020	035402	188.63	13.456985	-56.979308	188.88	-0.950	-0.360	2.860	188.64	-1.60	3.30	 	 	 	 	 	 	 	 	 	 	 	 	 	 	 	 	 	 	1581479642	8.70	16.11
12/02/2020 03:54:03	120220	12022020	035403	188.83	13.456945	-56.979320	189.07	-0.980	-0.180	2.590	188.83	-1.50	3.00	 	 	 	 	 	 	 	 	 	 	 	 	 	 	 	 	 	 	1581479643	9.13	16.91
12/02/2020 03:54:04	120220	12022020	035404	189.20	13.456907	-56.979330	189.44	-0.670	0.290	1.880	189.20	-1.00	2.30	 	 	 	 	 	 	 	 	 	 	 	 	 	 	 	 	 	 	1581479644	8.93	16.54
12/02/2020 03:54:05	120220	12022020	035405	189.67	13.456868	-56.979335	189.88	-0.110	0.640	0.970	189.67	-0.70	1.40	 	 	 	 	 	 	 	 	 	 	 	 	 	 	 	 	 	 	1581479645	8.43	15.61
12/02/2020 03:54:06	120220	12022020	035406	190.16	13.456830	-56.979338	190.34	0.430	0.680	0.130	190.16	-0.60	0.60	 	 	 	 	 	 	 	 	 	 	 	 	 	 	 	 	 	 	1581479646	8.34	15.45
12/02/2020 03:54:07	120220	12022020	035407	190.49	13.456790	-56.979342	190.64	0.710	0.360	-0.130	190.49	-1.00	0.40	 	 	 	 	 	 	 	 	 	 	 	 	 	 	 	 	 	 	1581479647	8.45	15.65
12/02/2020 03:54:08	120220	12022020	035408	190.40	13.456750	-56.979350	190.52	0.810	-0.350	0.290	190.40	-1.70	0.80	 	 	 	 	 	 	 	 	 	 	 	 	 	 	 	 	 	 	1581479648	8.60	15.93
12/02/2020 03:54:09	120220	12022020	035409	189.85	13.456707	-56.979360	189.98	0.890	-1.170	1.110	189.85	-2.50	1.60	 	 	 	 	 	 	 	 	 	 	 	 	 	 	 	 	 	 	1581479649	8.90	16.48
12/02/2020 03:54:10	120220	12022020	035410	189.25	13.456667	-56.979368	189.42	0.780	-1.390	1.930	189.25	-2.70	2.40	 	 	 	 	 	 	 	 	 	 	 	 	 	 	 	 	 	 	1581479650	9.31	17.24
12/02/2020 03:54:11	120220	12022020	035411	188.77	13.456628	-56.979380	188.97	0.150	-0.880	2.690	188.77	-2.10	3.20	 	 	 	 	 	 	 	 	 	 	 	 	 	 	 	 	 	 	1581479651	9.03	16.72
12/02/2020 03:54:12	120220	12022020	035412	188.30	13.456592	-56.979395	188.52	-0.830	-0.330	3.390	188.30	-1.60	3.90	 	 	 	 	 	 	 	 	 	 	 	 	 	 	 	 	 	 	1581479652	8.43	15.61
12/02/2020 03:54:13	120220	12022020	035413	187.90	13.456553	-56.979413	188.14	-1.580	-0.120	3.860	187.90	-1.40	4.30	 	 	 	 	 	 	 	 	 	 	 	 	 	 	 	 	 	 	1581479653	8.55	15.83
12/02/2020 03:54:14	120220	12022020	035414	187.69	13.456512	-56.979430	187.91	-1.550	-0.110	3.770	187.66	-1.40	4.20	 	 	 	 	 	 	 	 	 	 	 	 	 	 	 	 	 	 	1581479654	9.20	17.04
12/02/2020 03:54:15	120220	12022020	035415	187.57	13.456472	-56.979442	187.81	-0.740	-0.070	3.200	187.57	-1.30	3.60	 	 	 	 	 	 	 	 	 	 	 	 	 	 	 	 	 	 	1581479655	9.40	17.41
12/02/2020 03:54:16	120220	12022020	035416	187.65	13.456430	-56.979448	187.89	0.270	0.060	2.320	187.65	-1.20	2.70	 	 	 	 	 	 	 	 	 	 	 	 	 	 	 	 	 	 	1581479656	9.19	17.02
12/02/2020 03:54:17	120220	12022020	035417	188.11	13.456390	-56.979450	188.35	0.810	0.400	1.350	188.11	-0.90	1.80	 	 	 	 	 	 	 	 	 	 	 	 	 	 	 	 	 	 	1581479657	9.03	16.72
12/02/2020 03:54:18	120220	12022020	035418	188.88	13.456352	-56.979452	189.11	0.770	0.680	0.750	188.88	-0.60	1.20	 	 	 	 	 	 	 	 	 	 	 	 	 	 	 	 	 	 	1581479658	8.65	16.02
12/02/2020 03:54:19	120220	12022020	035419	189.52	13.456312	-56.979457	189.72	0.550	0.340	0.820	189.52	-1.00	1.30	 	 	 	 	 	 	 	 	 	 	 	 	 	 	 	 	 	 	1581479659	8.28	15.33
12/02/2020 03:54:20	120220	12022020	035420	189.73	13.456268	-56.979463	189.93	0.590	-0.650	1.240	189.73	-2.00	1.70	 	 	 	 	 	 	 	 	 	 	 	 	 	 	 	 	 	 	1581479660	8.57	15.87
12/02/2020 03:54:21	120220	12022020	035421	189.50	13.456225	-56.979473	189.70	0.870	-1.650	1.920	189.50	-2.90	2.40	 	 	 	 	 	 	 	 	 	 	 	 	 	 	 	 	 	 	1581479661	9.30	17.22
12/02/2020 03:54:22	120220	12022020	035422	189.08	13.456183	-56.979482	189.30	0.840	-1.720	2.630	189.08	-3.00	3.10	 	 	 	 	 	 	 	 	 	 	 	 	 	 	 	 	 	 	1581479662	9.71	17.98
12/02/2020 03:54:23	120220	12022020	035423	188.61	13.456145	-56.979490	188.85	0.210	-0.910	3.060	188.61	-2.10	3.50	 	 	 	 	 	 	 	 	 	 	 	 	 	 	 	 	 	 	1581479663	9.14	16.93
12/02/2020 03:54:24	120220	12022020	035424	188.36	13.456107	-56.979502	188.62	-0.740	0.030	3.080	188.36	-1.20	3.50	 	 	 	 	 	 	 	 	 	 	 	 	 	 	 	 	 	 	1581479664	8.40	15.56
12/02/2020 03:54:25	120220	12022020	035425	188.35	13.456068	-56.979515	188.61	-1.420	0.450	3.040	188.35	-0.80	3.50	 	 	 	 	 	 	 	 	 	 	 	 	 	 	 	 	 	 	1581479665	8.37	15.50
12/02/2020 03:54:26	120220	12022020	035426	188.47	13.456025	-56.979532	188.74	-1.450	0.240	3.050	188.47	-1.10	3.50	 	 	 	 	 	 	 	 	 	 	 	 	 	 	 	 	 	 	1581479666	8.99	16.65
12/02/2020 03:54:27	120220	12022020	035427	188.89	13.455982	-56.979547	189.17	-0.920	0.000	2.800	188.89	-1.30	3.20	 	 	 	 	 	 	 	 	 	 	 	 	 	 	 	 	 	 	1581479667	9.81	18.17
12/02/2020 03:54:28	120220	12022020	035428	189.49	13.455940	-56.979557	189.94	-0.200	0.200	2.060	189.68	-1.10	2.50	 	 	 	 	 	 	 	 	 	 	 	 	 	 	 	 	 	 	1581479668	9.85	18.24
12/02/2020 03:54:29	120220	12022020	035429	190.62	13.455902	-56.979562	190.86	0.460	0.470	0.990	190.62	-0.80	1.40	 	 	 	 	 	 	 	 	 	 	 	 	 	 	 	 	 	 	1581479669	9.10	16.85
12/02/2020 03:54:30	120220	12022020	035430	191.39	13.455860	-56.979563	191.60	0.900	0.320	0.090	191.39	-1.00	0.50	 	 	 	 	 	 	 	 	 	 	 	 	 	 	 	 	 	 	1581479670	8.61	15.95
12/02/2020 03:54:31	120220	12022020	035431	191.61	13.455817	-56.979567	191.77	1.130	-0.410	-0.190	191.61	-1.70	0.30	 	 	 	 	 	 	 	 	 	 	 	 	 	 	 	 	 	 	1581479671	8.85	16.39
12/02/2020 03:54:32	120220	12022020	035432	191.31	13.455772	-56.979572	191.46	1.080	-1.290	0.190	191.31	-2.60	0.70	 	 	 	 	 	 	 	 	 	 	 	 	 	 	 	 	 	 	1581479672	9.38	17.37
12/02/2020 03:54:33	120220	12022020	035433	190.81	13.455730	-56.979582	190.96	0.610	-1.500	1.030	190.81	-2.80	1.50	 	 	 	 	 	 	 	 	 	 	 	 	 	 	 	 	 	 	1581479673	9.73	18.02
12/02/2020 03:54:34	120220	12022020	035434	190.17	13.455690	-56.979597	190.34	-0.150	-0.930	2.090	190.17	-2.20	2.60	 	 	 	 	 	 	 	 	 	 	 	 	 	 	 	 	 	 	1581479674	9.34	17.30
12/02/2020 03:54:35	120220	12022020	035435	189.66	13.455652	-56.979613	189.86	-0.820	-0.210	2.830	189.66	-1.50	3.30	 	 	 	 	 	 	 	 	 	 	 	 	 	 	 	 	 	 	1581479675	8.85	16.39
12/02/2020 03:54:36	120220	12022020	035436	189.57	13.455612	-56.979628	189.80	-1.100	0.320	2.980	189.57	-0.90	3.40	 	 	 	 	 	 	 	 	 	 	 	 	 	 	 	 	 	 	1581479676	8.96	16.59
12/02/2020 03:54:37	120220	12022020	035437	189.90	13.455570	-56.979643	190.16	-0.950	0.540	2.680	189.90	-0.70	3.10	 	 	 	 	 	 	 	 	 	 	 	 	 	 	 	 	 	 	1581479677	9.25	17.13
12/02/2020 03:54:38	120220	12022020	035438	190.37	13.455528	-56.979655	190.61	-0.510	0.360	2.160	190.37	-0.90	2.60	 	 	 	 	 	 	 	 	 	 	 	 	 	 	 	 	 	 	1581479678	9.39	17.39
12/02/2020 03:54:39	120220	12022020	035439	190.58	13.455483	-56.979665	190.79	0.050	-0.220	1.810	190.58	-1.50	2.30	 	 	 	 	 	 	 	 	 	 	 	 	 	 	 	 	 	 	1581479679	9.57	17.72
12/02/2020 03:54:40	120220	12022020	035440	190.45	13.455438	-56.979673	190.66	0.550	-0.700	1.760	190.45	-2.00	2.20	 	 	 	 	 	 	 	 	 	 	 	 	 	 	 	 	 	 	1581479680	9.87	18.28
12/02/2020 03:54:41	120220	12022020	035441	190.27	13.455395	-56.979682	190.49	0.740	-0.550	1.740	190.27	-1.80	2.20	 	 	 	 	 	 	 	 	 	 	 	 	 	 	 	 	 	 	1581479681	9.86	18.26
12/02/2020 03:54:42	120220	12022020	035442	190.24	13.455357	-56.979688	190.44	0.590	-0.020	1.640	190.24	-1.30	2.10	 	 	 	 	 	 	 	 	 	 	 	 	 	 	 	 	 	 	1581479682	9.19	17.02
12/02/2020 03:54:43	120220	12022020	035443	190.13	13.455317	-56.979695	190.33	0.340	0.240	1.670	190.13	-1.00	2.10	 	 	 	 	 	 	 	 	 	 	 	 	 	 	 	 	 	 	1581479683	8.61	15.95
12/02/2020 03:54:44	120220	12022020	035444	189.96	13.455273	-56.979705	190.17	0.100	0.020	1.930	189.96	-1.30	2.40	 	 	 	 	 	 	 	 	 	 	 	 	 	 	 	 	 	 	1581479684	8.78	16.26
12/02/2020 03:54:45	120220	12022020	035445	189.77	13.455230	-56.979718	189.99	-0.100	-0.400	2.310	189.77	-1.70	2.80	 	 	 	 	 	 	 	 	 	 	 	 	 	 	 	 	 	 	1581479685	9.33	17.28
12/02/2020 03:54:46	120220	12022020	035446	189.55	13.455187	-56.979732	189.77	-0.160	-0.710	2.630	189.55	-2.00	3.10	 	 	 	 	 	 	 	 	 	 	 	 	 	 	 	 	 	 	1581479686	9.68	17.93
12/02/2020 03:54:47	120220	12022020	035447	189.55	13.455145	-56.979745	189.80	-0.050	-0.660	2.510	189.55	-1.90	3.00	 	 	 	 	 	 	 	 	 	 	 	 	 	 	 	 	 	 	1581479687	9.78	18.11
12/02/2020 03:54:48	120220	12022020	035448	190.02	13.455102	-56.979752	190.27	0.140	-0.400	1.950	190.02	-1.70	2.40	 	 	 	 	 	 	 	 	 	 	 	 	 	 	 	 	 	 	1581479688	9.55	17.69
12/02/2020 03:54:49	120220	12022020	035449	190.53	13.455058	-56.979760	190.76	0.230	-0.320	1.530	190.53	-1.60	2.00	 	 	 	 	 	 	 	 	 	 	 	 	 	 	 	 	 	 	1581479689	9.25	17.13
12/02/2020 03:54:50	120220	12022020	035450	190.75	13.455015	-56.979768	190.96	0.150	-0.470	1.570	190.75	-1.80	2.10	 	 	 	 	 	 	 	 	 	 	 	 	 	 	 	 	 	 	1581479690	9.40	17.41
12/02/2020 03:54:51	120220	12022020	035451	190.72	13.454972	-56.979778	190.93	-0.190	-0.450	2.050	190.72	-1.70	2.50	 	 	 	 	 	 	 	 	 	 	 	 	 	 	 	 	 	 	1581479691	9.67	17.91
12/02/2020 03:54:52	120220	12022020	035452	190.53	13.454930	-56.979793	190.71	-0.580	-0.220	2.590	190.53	-1.50	3.10	 	 	 	 	 	 	 	 	 	 	 	 	 	 	 	 	 	 	1581479692	9.56	17.71
12/02/2020 03:54:53	120220	12022020	035453	190.04	13.454887	-56.979808	190.21	-0.630	-0.230	3.070	190.04	-1.50	3.50	 	 	 	 	 	 	 	 	 	 	 	 	 	 	 	 	 	 	1581479693	9.37	17.35
12/02/2020 03:54:54	120220	12022020	035454	189.64	13.454842	-56.979823	189.84	-0.240	-0.360	3.100	189.64	-1.60	3.50	 	 	 	 	 	 	 	 	 	 	 	 	 	 	 	 	 	 	1581479694	9.80	18.15
12/02/2020 03:54:55	120220	12022020	035455	189.83	13.454800	-56.979832	190.07	0.280	0.050	2.270	189.83	-1.20	2.70	 	 	 	 	 	 	 	 	 	 	 	 	 	 	 	 	 	 	1581479695	10.14	18.78
12/02/2020 03:54:56	120220	12022020	035456	190.39	13.454758	-56.979835	190.61	0.510	0.700	1.260	190.39	-0.60	1.70	 	 	 	 	 	 	 	 	 	 	 	 	 	 	 	 	 	 	1581479696	9.40	17.41
12/02/2020 03:54:57	120220	12022020	035457	190.75	13.454717	-56.979840	190.94	0.420	0.650	0.830	190.75	-0.70	1.30	 	 	 	 	 	 	 	 	 	 	 	 	 	 	 	 	 	 	1581479697	8.77	16.24
12/02/2020 03:54:58	120220	12022020	035458	190.78	13.454672	-56.979850	190.97	0.210	-0.160	1.070	190.78	-1.50	1.50	 	 	 	 	 	 	 	 	 	 	 	 	 	 	 	 	 	 	1581479698	9.17	16.98
12/02/2020 03:54:59	120220	12022020	035459	190.60	13.454625	-56.979865	190.77	0.100	-1.030	1.750	190.60	-2.30	2.20	 	 	 	 	 	 	 	 	 	 	 	 	 	 	 	 	 	 	1581479699	9.94	18.41
12/02/2020 03:55:00	120220	12022020	035500	190.21	13.454582	-56.979878	190.39	0.180	-1.330	2.390	190.21	-2.60	2.90	 	 	 	 	 	 	 	 	 	 	 	 	 	 	 	 	 	 	1581479700	10.23	18.95
12/02/2020 03:55:01	120220	12022020	035501	189.97	13.454540	-56.979888	190.17	0.250	-0.920	2.560	189.97	-2.20	3.00	1016.90	26.20	26.30	20.80	20.90	-1.0	72.0	72.0	411.0	25.8	257.00	9.80	64.00	11.80	16	8907.0	27.2	27.2	1581479701	9.89	18.32
12/02/2020 03:55:02	120220	12022020	035502	190.14	13.454500	-56.979897	190.35	0.070	-0.160	2.310	190.14	-1.40	2.80	 	 	 	 	 	 	 	 	 	 	 	 	 	 	 	 	 	 	1581479702	9.27	17.17
12/02/2020 03:55:03	120220	12022020	035503	190.38	13.454458	-56.979905	190.58	-0.250	0.170	2.020	190.38	-1.10	2.50	 	 	 	 	 	 	 	 	 	 	 	 	 	 	 	 	 	 	1581479703	8.80	16.30
12/02/2020 03:55:04	120220	12022020	035504	190.31	13.454412	-56.979917	190.43	-0.390	-0.360	2.120	190.25	-1.70	2.60	 	 	 	 	 	 	 	 	 	 	 	 	 	 	 	 	 	 	1581479704	9.10	16.85
12/02/2020 03:55:05	120220	12022020	035505	189.76	13.454363	-56.979930	189.93	-0.260	-1.160	2.550	189.76	-2.40	3.00	 	 	 	 	 	 	 	 	 	 	 	 	 	 	 	 	 	 	1581479705	10.18	18.85
12/02/2020 03:55:06	120220	12022020	035506	189.40	13.454317	-56.979945	189.60	-0.160	-1.060	2.840	189.40	-2.30	3.30	 	 	 	 	 	 	 	 	 	 	 	 	 	 	 	 	 	 	1581479706	10.91	20.21
12/02/2020 03:55:07	120220	12022020	035507	189.67	13.454277	-56.979957	189.92	-0.280	0.160	2.520	189.67	-1.10	2.90	 	 	 	 	 	 	 	 	 	 	 	 	 	 	 	 	 	 	1581479707	10.33	19.13
12/02/2020 03:55:08	120220	12022020	035508	190.52	13.454240	-56.979963	190.76	-0.500	1.520	1.780	190.52	0.30	2.20	 	 	 	 	 	 	 	 	 	 	 	 	 	 	 	 	 	 	1581479708	8.91	16.50
12/02/2020 03:55:09	120220	12022020	035509	191.38	13.454198	-56.979972	191.58	-0.400	1.630	1.210	191.38	0.30	1.70	 	 	 	 	 	 	 	 	 	 	 	 	 	 	 	 	 	 	1581479709	8.20	15.19
12/02/2020 03:55:10	120220	12022020	035510	191.80	13.454150	-56.979980	191.95	0.230	0.220	1.160	191.80	-1.10	1.60	 	 	 	 	 	 	 	 	 	 	 	 	 	 	 	 	 	 	1581479710	9.03	16.72
12/02/2020 03:55:11	120220	12022020	035511	191.68	13.454098	-56.979992	191.81	0.990	-1.490	1.610	191.68	-2.80	2.10	 	 	 	 	 	 	 	 	 	 	 	 	 	 	 	 	 	 	1581479711	10.58	19.59
12/02/2020 03:55:12	120220	12022020	035512	191.48	13.454052	-56.980002	191.62	1.200	-2.130	2.150	191.48	-3.40	2.60	 	 	 	 	 	 	 	 	 	 	 	 	 	 	 	 	 	 	1581479712	11.24	20.82
12/02/2020 03:55:13	120220	12022020	035513	191.46	13.454010	-56.980012	191.61	0.620	-1.410	2.380	191.46	-2.60	2.80	 	 	 	 	 	 	 	 	 	 	 	 	 	 	 	 	 	 	1581479713	10.42	19.30
12/02/2020 03:55:14	120220	12022020	035514	191.59	13.453972	-56.980022	191.75	-0.310	-0.160	2.360	191.59	-1.40	2.80	 	 	 	 	 	 	 	 	 	 	 	 	 	 	 	 	 	 	1581479714	9.11	16.87
12/02/2020 03:55:15	120220	12022020	035515	191.80	13.453932	-56.980033	191.95	-0.960	0.600	2.260	191.80	-0.70	2.70	 	 	 	 	 	 	 	 	 	 	 	 	 	 	 	 	 	 	1581479715	8.51	15.76
12/02/2020 03:55:16	120220	12022020	035516	191.78	13.453887	-56.980048	191.91	-0.890	0.300	2.130	191.78	-1.00	2.60	 	 	 	 	 	 	 	 	 	 	 	 	 	 	 	 	 	 	1581479716	8.99	16.65
12/02/2020 03:55:17	120220	12022020	035517	191.43	13.453837	-56.980062	191.54	-0.280	-0.530	2.120	191.43	-1.80	2.60	 	 	 	 	 	 	 	 	 	 	 	 	 	 	 	 	 	 	1581479717	10.18	18.85
12/02/2020 03:55:18	120220	12022020	035518	191.21	13.453790	-56.980073	191.36	0.170	-0.700	2.030	191.21	-2.00	2.50	 	 	 	 	 	 	 	 	 	 	 	 	 	 	 	 	 	 	1581479718	11.05	20.46
12/02/2020 03:55:19	120220	12022020	035519	191.53	13.453747	-56.980083	191.70	-0.040	0.060	1.730	191.53	-1.20	2.20	 	 	 	 	 	 	 	 	 	 	 	 	 	 	 	 	 	 	1581479719	10.55	19.54
12/02/2020 03:55:20	120220	12022020	035520	192.06	13.453708	-56.980095	192.24	-0.610	0.840	1.530	192.06	-0.40	2.00	 	 	 	 	 	 	 	 	 	 	 	 	 	 	 	 	 	 	1581479720	9.27	17.17
12/02/2020 03:55:21	120220	12022020	035521	192.37	13.453665	-56.980110	192.53	-0.740	0.650	1.600	192.37	-0.70	2.10	 	 	 	 	 	 	 	 	 	 	 	 	 	 	 	 	 	 	1581479721	8.83	16.35
12/02/2020 03:55:22	120220	12022020	035522	192.40	13.453618	-56.980125	192.56	0.030	-0.410	1.510	192.40	-1.70	2.00	 	 	 	 	 	 	 	 	 	 	 	 	 	 	 	 	 	 	1581479722	9.70	17.96
12/02/2020 03:55:23	120220	12022020	035523	192.25	13.453568	-56.980133	192.39	1.050	-1.220	1.330	192.25	-2.50	1.80	 	 	 	 	 	 	 	 	 	 	 	 	 	 	 	 	 	 	1581479723	10.72	19.85
12/02/2020 03:55:24	120220	12022020	035524	192.10	13.453523	-56.980140	192.23	1.280	-1.050	1.260	192.10	-2.30	1.70	 	 	 	 	 	 	 	 	 	 	 	 	 	 	 	 	 	 	1581479724	10.76	19.93
12/02/2020 03:55:25	120220	12022020	035525	192.05	13.453482	-56.980148	192.19	0.510	-0.450	1.370	192.05	-1.70	1.80	 	 	 	 	 	 	 	 	 	 	 	 	 	 	 	 	 	 	1581479725	9.80	18.15
12/02/2020 03:55:26	120220	12022020	035526	191.73	13.453438	-56.980165	191.85	-0.440	-0.340	2.100	191.73	-1.60	2.60	 	 	 	 	 	 	 	 	 	 	 	 	 	 	 	 	 	 	1581479726	9.15	16.95
12/02/2020 03:55:27	120220	12022020	035527	191.04	13.453392	-56.980185	191.18	-0.650	-0.740	2.980	191.04	-2.00	3.40	 	 	 	 	 	 	 	 	 	 	 	 	 	 	 	 	 	 	1581479727	9.81	18.17
12/02/2020 03:55:28	120220	12022020	035528	190.59	13.453345	-56.980202	190.77	-0.180	-0.600	3.230	190.59	-1.90	3.70	 	 	 	 	 	 	 	 	 	 	 	 	 	 	 	 	 	 	1581479728	10.86	20.11
12/02/2020 03:55:29	120220	12022020	035529	190.75	13.453303	-56.980212	190.96	0.100	0.280	2.900	190.75	-1.00	3.30	 	 	 	 	 	 	 	 	 	 	 	 	 	 	 	 	 	 	1581479729	10.57	19.58
12/02/2020 03:55:30	120220	12022020	035530	191.42	13.453262	-56.980220	191.63	-0.250	1.100	2.330	191.42	-0.20	2.80	 	 	 	 	 	 	 	 	 	 	 	 	 	 	 	 	 	 	1581479730	9.52	17.63
12/02/2020 03:55:31	120220	12022020	035531	192.11	13.453218	-56.980233	192.28	-0.820	0.970	2.060	192.11	-0.40	2.50	 	 	 	 	 	 	 	 	 	 	 	 	 	 	 	 	 	 	1581479731	9.01	16.69
12/02/2020 03:55:32	120220	12022020	035532	192.35	13.453172	-56.980248	192.51	-0.820	-0.180	2.250	192.35	-1.50	2.70	 	 	 	 	 	 	 	 	 	 	 	 	 	 	 	 	 	 	1581479732	9.55	17.69
12/02/2020 03:55:33	120220	12022020	035533	192.20	13.453123	-56.980265	192.35	-0.090	-1.490	2.510	192.20	-2.80	3.00	 	 	 	 	 	 	 	 	 	 	 	 	 	 	 	 	 	 	1581479733	10.64	19.71
12/02/2020 03:55:34	120220	12022020	035534	191.75	13.453075	-56.980278	191.89	0.810	-2.000	2.620	191.75	-3.30	3.10	 	 	 	 	 	 	 	 	 	 	 	 	 	 	 	 	 	 	1581479734	11.09	20.54
12/02/2020 03:55:35	120220	12022020	035535	191.24	13.453032	-56.980287	191.39	1.230	-1.360	2.460	191.24	-2.60	2.90	 	 	 	 	 	 	 	 	 	 	 	 	 	 	 	 	 	 	1581479735	10.60	19.63
12/02/2020 03:55:36	120220	12022020	035536	191.04	13.452990	-56.980293	191.22	0.940	-0.030	2.040	191.04	-1.30	2.50	 	 	 	 	 	 	 	 	 	 	 	 	 	 	 	 	 	 	1581479736	9.65	17.87
12/02/2020 03:55:37	120220	12022020	035537	191.08	13.452948	-56.980298	191.24	0.230	0.910	1.660	191.08	-0.40	2.10	 	 	 	 	 	 	 	 	 	 	 	 	 	 	 	 	 	 	1581479737	8.92	16.52
12/02/2020 03:55:38	120220	12022020	035538	191.14	13.452902	-56.980308	191.31	-0.340	0.770	1.570	191.14	-0.50	2.00	 	 	 	 	 	 	 	 	 	 	 	 	 	 	 	 	 	 	1581479738	9.13	16.91
12/02/2020 03:55:39	120220	12022020	035539	191.33	13.452853	-56.980322	191.50	-0.590	0.060	1.760	191.33	-1.30	2.20	 	 	 	 	 	 	 	 	 	 	 	 	 	 	 	 	 	 	1581479739	10.20	18.89
12/02/2020 03:55:40	120220	12022020	035540	191.58	13.452805	-56.980338	191.78	-0.670	-0.510	2.300	191.58	-1.80	2.80	 	 	 	 	 	 	 	 	 	 	 	 	 	 	 	 	 	 	1581479740	10.85	20.09
12/02/2020 03:55:41	120220	12022020	035541	191.90	13.452762	-56.980357	192.11	-0.730	-0.550	2.760	191.90	-1.80	3.20	 	 	 	 	 	 	 	 	 	 	 	 	 	 	 	 	 	 	1581479741	10.76	19.93
12/02/2020 03:55:42	120220	12022020	035542	192.05	13.452720	-56.980373	192.24	-0.620	-0.330	2.810	192.05	-1.60	3.30	 	 	 	 	 	 	 	 	 	 	 	 	 	 	 	 	 	 	1581479742	10.14	18.78
12/02/2020 03:55:43	120220	12022020	035543	191.88	13.452675	-56.980387	192.05	-0.060	-0.370	2.480	191.88	-1.70	2.90	 	 	 	 	 	 	 	 	 	 	 	 	 	 	 	 	 	 	1581479743	9.72	18.00
12/02/2020 03:55:44	120220	12022020	035544	191.75	13.452627	-56.980392	191.90	0.740	-0.470	1.530	191.75	-1.80	1.90	 	 	 	 	 	 	 	 	 	 	 	 	 	 	 	 	 	 	1581479744	10.00	18.52
12/02/2020 03:55:45	120220	12022020	035545	191.99	13.452580	-56.980395	192.15	1.080	-0.310	0.650	191.99	-1.60	1.10	 	 	 	 	 	 	 	 	 	 	 	 	 	 	 	 	 	 	1581479745	10.34	19.15
12/02/2020 03:55:46	120220	12022020	035546	192.40	13.452535	-56.980402	192.55	0.680	-0.200	0.540	192.40	-1.50	1.00	 	 	 	 	 	 	 	 	 	 	 	 	 	 	 	 	 	 	1581479746	10.07	18.65
12/02/2020 03:55:47	120220	12022020	035547	192.44	13.452490	-56.980417	192.56	-0.050	-0.470	1.230	192.44	-1.80	1.70	 	 	 	 	 	 	 	 	 	 	 	 	 	 	 	 	 	 	1581479747	9.80	18.15
12/02/2020 03:55:48	120220	12022020	035548	192.02	13.452443	-56.980437	192.15	-0.490	-0.940	2.460	192.02	-2.20	2.90	 	 	 	 	 	 	 	 	 	 	 	 	 	 	 	 	 	 	1581479748	10.18	18.85
12/02/2020 03:55:49	120220	12022020	035549	191.50	13.452398	-56.980457	191.65	-0.480	-0.940	3.370	191.50	-2.20	3.80	 	 	 	 	 	 	 	 	 	 	 	 	 	 	 	 	 	 	1581479749	10.82	20.04
12/02/2020 03:55:50	120220	12022020	035550	191.14	13.452353	-56.980470	191.32	-0.230	-0.360	3.430	191.14	-1.60	3.90	 	 	 	 	 	 	 	 	 	 	 	 	 	 	 	 	 	 	1581479750	10.69	19.80
12/02/2020 03:55:51	120220	12022020	035551	191.22	13.452310	-56.980480	191.42	-0.120	0.360	2.800	191.22	-0.90	3.20	 	 	 	 	 	 	 	 	 	 	 	 	 	 	 	 	 	 	1581479751	10.05	18.61
12/02/2020 03:55:52	120220	12022020	035552	191.52	13.452265	-56.980488	191.81	-0.240	0.760	2.070	191.61	-0.50	2.50	 	 	 	 	 	 	 	 	 	 	 	 	 	 	 	 	 	 	1581479752	9.71	17.98
12/02/2020 03:55:53	120220	12022020	035553	191.97	13.452220	-56.980500	192.15	-0.350	0.630	1.640	191.97	-0.70	2.10	 	 	 	 	 	 	 	 	 	 	 	 	 	 	 	 	 	 	1581479753	9.74	18.04
12/02/2020 03:55:54	120220	12022020	035554	192.03	13.452173	-56.980512	192.16	-0.160	-0.020	1.640	192.01	-1.40	2.10	 	 	 	 	 	 	 	 	 	 	 	 	 	 	 	 	 	 	1581479754	10.03	18.58
12/02/2020 03:55:55	120220	12022020	035555	191.66	13.452125	-56.980527	191.80	0.390	-0.850	2.010	191.66	-2.20	2.50	 	 	 	 	 	 	 	 	 	 	 	 	 	 	 	 	 	 	1581479755	10.50	19.45
12/02/2020 03:55:56	120220	12022020	035556	191.19	13.452077	-56.980538	191.32	0.960	-1.170	2.230	191.19	-2.50	2.70	 	 	 	 	 	 	 	 	 	 	 	 	 	 	 	 	 	 	1581479756	10.84	20.08
12/02/2020 03:55:57	120220	12022020	035557	190.94	13.452032	-56.980547	191.09	1.060	-0.680	2.090	190.94	-1.90	2.50	 	 	 	 	 	 	 	 	 	 	 	 	 	 	 	 	 	 	1581479757	10.53	19.50
12/02/2020 03:55:58	120220	12022020	035558	191.02	13.451990	-56.980553	191.18	0.560	0.060	1.920	191.02	-1.20	2.40	 	 	 	 	 	 	 	 	 	 	 	 	 	 	 	 	 	 	1581479758	9.73	18.02
12/02/2020 03:55:59	120220	12022020	035559	191.33	13.451947	-56.980563	191.49	-0.140	0.350	1.860	191.33	-1.00	2.30	 	 	 	 	 	 	 	 	 	 	 	 	 	 	 	 	 	 	1581479759	9.25	17.13
12/02/2020 03:56:00	120220	12022020	035600	191.76	13.451900	-56.980577	191.93	-0.690	0.060	2.060	191.76	-1.30	2.50	 	 	 	 	 	 	 	 	 	 	 	 	 	 	 	 	 	 	1581479760	9.59	17.76
12/02/2020 03:56:01	120220	12022020	035601	192.11	13.451853	-56.980595	192.30	-0.900	-0.680	2.430	192.11	-2.00	2.90	1017.00	26.20	26.20	21.00	21.00	-1.0	73.0	73.0	414.0	25.8	265.00	10.10	71.00	11.70	16	8320.0	27.2	27.2	1581479761	10.17	18.83
12/02/2020 03:56:02	120220	12022020	035602	192.13	13.451805	-56.980613	192.28	-0.650	-1.520	2.600	192.13	-2.80	3.00	 	 	 	 	 	 	 	 	 	 	 	 	 	 	 	 	 	 	1581479762	10.74	19.89
12/02/2020 03:56:03	120220	12022020	035603	191.76	13.451757	-56.980630	191.89	-0.070	-1.760	2.620	191.76	-3.00	3.10	 	 	 	 	 	 	 	 	 	 	 	 	 	 	 	 	 	 	1581479763	11.12	20.59
12/02/2020 03:56:04	120220	12022020	035604	191.18	13.451710	-56.980638	191.30	0.450	-1.160	2.400	191.18	-2.40	2.80	 	 	 	 	 	 	 	 	 	 	 	 	 	 	 	 	 	 	1581479764	10.84	20.08
12/02/2020 03:56:05	120220	12022020	035605	190.61	13.451665	-56.980645	190.73	0.530	-0.190	2.020	190.61	-1.40	2.50	 	 	 	 	 	 	 	 	 	 	 	 	 	 	 	 	 	 	1581479765	10.23	18.95
12/02/2020 03:56:06	120220	12022020	035606	190.32	13.451618	-56.980652	190.48	0.150	0.650	1.810	190.32	-0.60	2.30	 	 	 	 	 	 	 	 	 	 	 	 	 	 	 	 	 	 	1581479766	10.06	18.63
12/02/2020 03:56:07	120220	12022020	035607	190.56	13.451572	-56.980663	190.76	-0.440	1.280	1.870	190.56	0.00	2.30	 	 	 	 	 	 	 	 	 	 	 	 	 	 	 	 	 	 	1581479767	10.18	18.85
12/02/2020 03:56:08	120220	12022020	035608	191.06	13.451527	-56.980680	191.41	-0.750	1.540	2.110	191.20	0.20	2.60	 	 	 	 	 	 	 	 	 	 	 	 	 	 	 	 	 	 	1581479768	10.16	18.82
12/02/2020 03:56:09	120220	12022020	035609	191.89	13.451482	-56.980695	192.11	-0.480	1.120	2.220	191.89	-0.20	2.70	 	 	 	 	 	 	 	 	 	 	 	 	 	 	 	 	 	 	1581479769	10.14	18.78
12/02/2020 03:56:10	120220	12022020	035610	192.39	13.451433	-56.980707	192.57	0.250	0.170	2.080	192.39	-1.20	2.50	 	 	 	 	 	 	 	 	 	 	 	 	 	 	 	 	 	 	1581479770	10.40	19.26
12/02/2020 03:56:11	120220	12022020	035611	192.51	13.451385	-56.980717	192.67	0.890	-0.840	1.940	192.51	-2.20	2.40	 	 	 	 	 	 	 	 	 	 	 	 	 	 	 	 	 	 	1581479771	10.65	19.72
12/02/2020 03:56:12	120220	12022020	035612	192.31	13.451337	-56.980727	192.44	1.000	-1.620	1.940	192.31	-2.90	2.40	 	 	 	 	 	 	 	 	 	 	 	 	 	 	 	 	 	 	1581479772	10.62	19.67
12/02/2020 03:56:13	120220	12022020	035613	191.77	13.451290	-56.980740	191.89	0.560	-1.980	2.400	191.77	-3.30	2.90	 	 	 	 	 	 	 	 	 	 	 	 	 	 	 	 	 	 	1581479773	10.44	19.33
12/02/2020 03:56:14	120220	12022020	035614	191.15	13.451247	-56.980755	191.30	-0.080	-1.690	2.990	191.15	-2.90	3.40	 	 	 	 	 	 	 	 	 	 	 	 	 	 	 	 	 	 	1581479774	10.31	19.09
12/02/2020 03:56:15	120220	12022020	035615	190.74	13.451203	-56.980772	190.91	-0.540	-0.880	3.090	190.74	-2.10	3.50	 	 	 	 	 	 	 	 	 	 	 	 	 	 	 	 	 	 	1581479775	10.15	18.80
12/02/2020 03:56:16	120220	12022020	035616	190.58	13.451158	-56.980785	190.76	-0.590	-0.140	2.800	190.58	-1.40	3.20	 	 	 	 	 	 	 	 	 	 	 	 	 	 	 	 	 	 	1581479776	9.89	18.32
12/02/2020 03:56:17	120220	12022020	035617	190.66	13.451110	-56.980797	190.86	-0.340	0.170	2.260	190.66	-1.10	2.70	 	 	 	 	 	 	 	 	 	 	 	 	 	 	 	 	 	 	1581479777	10.62	19.67
12/02/2020 03:56:18	120220	12022020	035618	190.88	13.451060	-56.980807	191.07	-0.020	0.150	1.760	190.88	-1.10	2.20	 	 	 	 	 	 	 	 	 	 	 	 	 	 	 	 	 	 	1581479778	10.62	19.67
12/02/2020 03:56:19	120220	12022020	035619	191.21	13.451010	-56.980815	191.39	0.180	0.090	1.380	191.21	-1.20	1.80	 	 	 	 	 	 	 	 	 	 	 	 	 	 	 	 	 	 	1581479779	10.98	20.33
12/02/2020 03:56:20	120220	12022020	035620	191.73	13.450960	-56.980823	191.93	0.160	0.190	1.270	191.73	-1.10	1.70	 	 	 	 	 	 	 	 	 	 	 	 	 	 	 	 	 	 	1581479780	11.00	20.37
12/02/2020 03:56:21	120220	12022020	035621	192.22	13.450913	-56.980833	192.39	-0.090	0.270	1.590	192.22	-1.00	2.10	 	 	 	 	 	 	 	 	 	 	 	 	 	 	 	 	 	 	1581479781	10.63	19.69
12/02/2020 03:56:22	120220	12022020	035622	192.36	13.450867	-56.980847	192.52	-0.320	0.090	2.110	192.36	-1.20	2.60	 	 	 	 	 	 	 	 	 	 	 	 	 	 	 	 	 	 	1581479782	10.33	19.13
12/02/2020 03:56:23	120220	12022020	035623	192.15	13.450820	-56.980862	192.31	-0.350	-0.260	2.610	192.15	-1.60	3.10	 	 	 	 	 	 	 	 	 	 	 	 	 	 	 	 	 	 	1581479783	10.45	19.35
12/02/2020 03:56:24	120220	12022020	035624	191.77	13.450772	-56.980877	191.93	-0.160	-0.510	2.850	191.77	-1.80	3.30	 	 	 	 	 	 	 	 	 	 	 	 	 	 	 	 	 	 	1581479784	10.68	19.78
12/02/2020 03:56:25	120220	12022020	035625	191.42	13.450727	-56.980890	191.60	0.090	-0.440	2.610	191.42	-1.70	3.00	 	 	 	 	 	 	 	 	 	 	 	 	 	 	 	 	 	 	1581479785	10.66	19.74
12/02/2020 03:56:26	120220	12022020	035626	191.28	13.450680	-56.980898	191.46	0.250	-0.220	2.120	191.28	-1.50	2.60	 	 	 	 	 	 	 	 	 	 	 	 	 	 	 	 	 	 	1581479786	10.29	19.06
12/02/2020 03:56:27	120220	12022020	035627	191.30	13.450633	-56.980908	191.49	0.280	-0.210	1.800	191.30	-1.50	2.30	 	 	 	 	 	 	 	 	 	 	 	 	 	 	 	 	 	 	1581479787	10.05	18.61
12/02/2020 03:56:28	120220	12022020	035628	191.36	13.450587	-56.980922	191.54	0.230	-0.460	1.770	191.36	-1.80	2.20	 	 	 	 	 	 	 	 	 	 	 	 	 	 	 	 	 	 	1581479788	10.23	18.95
12/02/2020 03:56:29	120220	12022020	035629	191.42	13.450538	-56.980935	191.60	0.200	-0.650	1.910	191.42	-1.90	2.40	 	 	 	 	 	 	 	 	 	 	 	 	 	 	 	 	 	 	1581479789	10.58	19.59
12/02/2020 03:56:30	120220	12022020	035630	191.57	13.450492	-56.980948	191.76	0.270	-0.510	1.960	191.57	-1.80	2.40	 	 	 	 	 	 	 	 	 	 	 	 	 	 	 	 	 	 	1581479790	10.66	19.74
12/02/2020 03:56:31	120220	12022020	035631	191.76	13.450447	-56.980958	191.94	0.380	-0.200	1.830	191.76	-1.50	2.30	 	 	 	 	 	 	 	 	 	 	 	 	 	 	 	 	 	 	1581479791	10.34	19.15
12/02/2020 03:56:32	120220	12022020	035632	191.77	13.450398	-56.980967	191.92	0.410	-0.250	1.770	191.77	-1.60	2.30	 	 	 	 	 	 	 	 	 	 	 	 	 	 	 	 	 	 	1581479792	10.11	18.72
12/02/2020 03:56:33	120220	12022020	035633	191.54	13.450347	-56.980977	191.71	0.230	-0.710	2.000	191.54	-2.00	2.50	 	 	 	 	 	 	 	 	 	 	 	 	 	 	 	 	 	 	1581479793	10.51	19.46
12/02/2020 03:56:34	120220	12022020	035634	191.36	13.450297	-56.980992	191.56	-0.230	-0.980	2.450	191.36	-2.30	2.90	 	 	 	 	 	 	 	 	 	 	 	 	 	 	 	 	 	 	1581479794	11.13	20.61
12/02/2020 03:56:35	120220	12022020	035635	191.31	13.450250	-56.981008	191.51	-0.700	-0.690	2.820	191.31	-2.00	3.30	 	 	 	 	 	 	 	 	 	 	 	 	 	 	 	 	 	 	1581479795	11.15	20.65
12/02/2020 03:56:36	120220	12022020	035636	191.33	13.450205	-56.981023	191.54	-0.830	-0.080	2.750	191.33	-1.30	3.20	 	 	 	 	 	 	 	 	 	 	 	 	 	 	 	 	 	 	1581479796	10.73	19.87
12/02/2020 03:56:37	120220	12022020	035637	191.40	13.450157	-56.981035	191.60	-0.520	0.340	2.340	191.40	-0.90	2.80	 	 	 	 	 	 	 	 	 	 	 	 	 	 	 	 	 	 	1581479797	10.34	19.15
12/02/2020 03:56:38	120220	12022020	035638	191.45	13.450108	-56.981043	191.64	-0.020	0.410	1.880	191.45	-0.90	2.30	 	 	 	 	 	 	 	 	 	 	 	 	 	 	 	 	 	 	1581479798	10.44	19.33
12/02/2020 03:56:39	120220	12022020	035639	191.55	13.450058	-56.981052	191.74	0.250	0.290	1.480	191.55	-1.00	2.00	 	 	 	 	 	 	 	 	 	 	 	 	 	 	 	 	 	 	1581479799	10.75	19.91
12/02/2020 03:56:40	120220	12022020	035640	191.69	13.450010	-56.981060	191.88	0.150	0.030	1.390	191.69	-1.30	1.90	 	 	 	 	 	 	 	 	 	 	 	 	 	 	 	 	 	 	1581479800	10.80	20.00
12/02/2020 03:56:41	120220	12022020	035641	191.76	13.449962	-56.981073	191.93	-0.050	-0.350	1.630	191.76	-1.70	2.10	 	 	 	 	 	 	 	 	 	 	 	 	 	 	 	 	 	 	1581479801	10.71	19.83
12/02/2020 03:56:42	120220	12022020	035642	191.72	13.449913	-56.981088	191.90	-0.060	-0.690	1.990	191.72	-2.00	2.50	 	 	 	 	 	 	 	 	 	 	 	 	 	 	 	 	 	 	1581479802	10.73	19.87
12/02/2020 03:56:43	120220	12022020	035643	191.49	13.449865	-56.981103	191.66	0.150	-0.960	2.360	191.49	-2.30	2.80	 	 	 	 	 	 	 	 	 	 	 	 	 	 	 	 	 	 	1581479803	10.74	19.89
12/02/2020 03:56:44	120220	12022020	035644	191.09	13.449817	-56.981118	191.17	0.380	-1.010	2.600	191.00	-2.30	3.10	 	 	 	 	 	 	 	 	 	 	 	 	 	 	 	 	 	 	1581479804	10.80	20.00
12/02/2020 03:56:45	120220	12022020	035645	190.64	13.449770	-56.981128	190.82	0.440	-0.580	2.380	190.64	-1.80	2.80	 	 	 	 	 	 	 	 	 	 	 	 	 	 	 	 	 	 	1581479805	10.81	20.02
12/02/2020 03:56:46	120220	12022020	035646	190.65	13.449723	-56.981135	190.83	0.300	0.120	1.870	190.65	-1.10	2.30	 	 	 	 	 	 	 	 	 	 	 	 	 	 	 	 	 	 	1581479806	10.44	19.33
12/02/2020 03:56:47	120220	12022020	035647	190.91	13.449677	-56.981143	191.09	0.040	0.480	1.500	190.91	-0.80	2.00	 	 	 	 	 	 	 	 	 	 	 	 	 	 	 	 	 	 	1581479807	10.08	18.67
12/02/2020 03:56:48	120220	12022020	035648	191.26	13.449627	-56.981153	191.45	-0.190	0.230	1.490	191.26	-1.10	2.00	 	 	 	 	 	 	 	 	 	 	 	 	 	 	 	 	 	 	1581479808	10.27	19.02
12/02/2020 03:56:49	120220	12022020	035649	191.60	13.449577	-56.981168	191.80	-0.280	-0.350	1.800	191.60	-1.70	2.30	 	 	 	 	 	 	 	 	 	 	 	 	 	 	 	 	 	 	1581479809	10.83	20.06
12/02/2020 03:56:50	120220	12022020	035650	191.79	13.449527	-56.981183	191.97	-0.220	-0.850	2.240	191.79	-2.10	2.70	 	 	 	 	 	 	 	 	 	 	 	 	 	 	 	 	 	 	1581479810	11.20	20.74
12/02/2020 03:56:51	120220	12022020	035651	191.81	13.449478	-56.981198	191.99	-0.080	-0.950	2.530	191.81	-2.20	3.00	 	 	 	 	 	 	 	 	 	 	 	 	 	 	 	 	 	 	1581479811	11.19	20.72
12/02/2020 03:56:52	120220	12022020	035652	191.73	13.449432	-56.981210	191.91	0.020	-0.650	2.520	191.73	-1.90	3.00	 	 	 	 	 	 	 	 	 	 	 	 	 	 	 	 	 	 	1581479812	10.87	20.13
12/02/2020 03:56:53	120220	12022020	035653	191.63	13.449383	-56.981220	191.80	0.030	-0.220	2.320	191.63	-1.50	2.80	 	 	 	 	 	 	 	 	 	 	 	 	 	 	 	 	 	 	1581479813	10.49	19.43
12/02/2020 03:56:54	120220	12022020	035654	191.39	13.449335	-56.981230	191.55	0.060	-0.060	2.010	191.39	-1.40	2.50	 	 	 	 	 	 	 	 	 	 	 	 	 	 	 	 	 	 	1581479814	10.37	19.21
12/02/2020 03:56:55	120220	12022020	035655	191.19	13.449283	-56.981237	191.36	0.090	-0.200	1.600	191.19	-1.50	2.10	 	 	 	 	 	 	 	 	 	 	 	 	 	 	 	 	 	 	1581479815	10.72	19.85
12/02/2020 03:56:56	120220	12022020	035656	191.37	13.449233	-56.981245	191.55	-0.050	-0.170	1.170	191.37	-1.50	1.60	 	 	 	 	 	 	 	 	 	 	 	 	 	 	 	 	 	 	1581479816	11.16	20.67
12/02/2020 03:56:57	120220	12022020	035657	191.79	13.449185	-56.981257	191.96	-0.400	-0.010	1.090	191.79	-1.30	1.60	 	 	 	 	 	 	 	 	 	 	 	 	 	 	 	 	 	 	1581479817	10.97	20.32
12/02/2020 03:56:58	120220	12022020	035658	192.00	13.449138	-56.981273	192.19	-0.660	-0.090	1.490	192.03	-1.40	2.00	 	 	 	 	 	 	 	 	 	 	 	 	 	 	 	 	 	 	1581479818	10.56	19.56
12/02/2020 03:56:59	120220	12022020	035659	192.00	13.449090	-56.981288	192.16	-0.490	-0.360	1.900	192.00	-1.70	2.40	 	 	 	 	 	 	 	 	 	 	 	 	 	 	 	 	 	 	1581479819	10.73	19.87
12/02/2020 03:57:00	120220	12022020	035700	191.84	13.449040	-56.981303	191.99	0.040	-0.540	2.090	191.84	-1.80	2.60	 	 	 	 	 	 	 	 	 	 	 	 	 	 	 	 	 	 	1581479820	10.99	20.35
12/02/2020 03:57:01	120220	12022020	035701	191.62	13.448990	-56.981313	191.78	0.520	-0.580	2.090	191.62	-1.90	2.60	1016.90	26.10	26.10	20.50	20.60	-1.0	71.0	71.0	418.0	25.8	262.00	11.00	69.00	12.90	16	8585.0	27.2	27.2	1581479821	10.96	20.30
12/02/2020 03:57:02	120220	12022020	035702	191.60	13.448942	-56.981325	191.77	0.570	-0.430	2.000	191.60	-1.70	2.50	 	 	 	 	 	 	 	 	 	 	 	 	 	 	 	 	 	 	1581479822	10.90	20.19
12/02/2020 03:57:03	120220	12022020	035703	191.70	13.448893	-56.981337	191.87	0.310	-0.320	2.060	191.70	-1.60	2.50	 	 	 	 	 	 	 	 	 	 	 	 	 	 	 	 	 	 	1581479823	10.74	19.89
12/02/2020 03:57:04	120220	12022020	035704	191.93	13.448843	-56.981350	192.11	0.080	-0.250	2.010	191.93	-1.50	2.50	 	 	 	 	 	 	 	 	 	 	 	 	 	 	 	 	 	 	1581479824	10.79	19.98
12/02/2020 03:57:05	120220	12022020	035705	192.28	13.448795	-56.981362	192.46	0.030	-0.040	1.910	192.28	-1.30	2.40	 	 	 	 	 	 	 	 	 	 	 	 	 	 	 	 	 	 	1581479825	10.91	20.21
12/02/2020 03:57:06	120220	12022020	035706	192.55	13.448747	-56.981372	192.72	0.040	0.090	1.730	192.55	-1.20	2.20	 	 	 	 	 	 	 	 	 	 	 	 	 	 	 	 	 	 	1581479826	10.74	19.89
12/02/2020 03:57:07	120220	12022020	035707	192.72	13.448697	-56.981382	192.88	-0.080	-0.050	1.590	192.72	-1.40	2.10	 	 	 	 	 	 	 	 	 	 	 	 	 	 	 	 	 	 	1581479827	10.72	19.85
12/02/2020 03:57:08	120220	12022020	035708	192.75	13.448647	-56.981395	192.89	-0.360	-0.290	1.720	192.75	-1.60	2.20	 	 	 	 	 	 	 	 	 	 	 	 	 	 	 	 	 	 	1581479828	10.92	20.22
12/02/2020 03:57:09	120220	12022020	035709	192.52	13.448598	-56.981410	192.66	-0.520	-0.640	1.930	192.52	-1.90	2.40	 	 	 	 	 	 	 	 	 	 	 	 	 	 	 	 	 	 	1581479829	10.95	20.28
12/02/2020 03:57:10	120220	12022020	035710	192.27	13.448548	-56.981425	192.41	-0.420	-0.820	2.060	192.27	-2.10	2.50	 	 	 	 	 	 	 	 	 	 	 	 	 	 	 	 	 	 	1581479830	11.15	20.65
12/02/2020 03:57:11	120220	12022020	035711	192.23	13.448500	-56.981440	192.39	-0.070	-0.640	2.000	192.23	-1.90	2.40	 	 	 	 	 	 	 	 	 	 	 	 	 	 	 	 	 	 	1581479831	11.17	20.69
12/02/2020 03:57:12	120220	12022020	035712	192.38	13.448453	-56.981452	192.52	0.240	-0.160	1.620	192.38	-1.40	2.10	 	 	 	 	 	 	 	 	 	 	 	 	 	 	 	 	 	 	1581479832	10.83	20.06
12/02/2020 03:57:13	120220	12022020	035713	192.40	13.448405	-56.981462	192.53	0.390	0.130	1.420	192.40	-1.20	1.90	 	 	 	 	 	 	 	 	 	 	 	 	 	 	 	 	 	 	1581479833	10.40	19.26
12/02/2020 03:57:14	120220	12022020	035714	192.16	13.448355	-56.981473	192.28	0.420	-0.120	1.750	192.16	-1.40	2.20	 	 	 	 	 	 	 	 	 	 	 	 	 	 	 	 	 	 	1581479834	10.45	19.35
12/02/2020 03:57:15	120220	12022020	035715	191.82	13.448303	-56.981487	191.97	0.380	-0.620	2.160	191.82	-1.90	2.60	 	 	 	 	 	 	 	 	 	 	 	 	 	 	 	 	 	 	1581479835	11.04	20.45
12/02/2020 03:57:16	120220	12022020	035716	191.70	13.448253	-56.981502	191.87	0.240	-0.790	2.400	191.70	-2.10	2.90	 	 	 	 	 	 	 	 	 	 	 	 	 	 	 	 	 	 	1581479836	11.51	21.32
12/02/2020 03:57:17	120220	12022020	035717	191.80	13.448203	-56.981515	191.97	0.060	-0.590	2.340	191.80	-1.90	2.80	 	 	 	 	 	 	 	 	 	 	 	 	 	 	 	 	 	 	1581479837	11.30	20.93
12/02/2020 03:57:18	120220	12022020	035718	191.93	13.448155	-56.981527	192.09	-0.070	-0.420	2.100	191.93	-1.70	2.60	 	 	 	 	 	 	 	 	 	 	 	 	 	 	 	 	 	 	1581479838	10.90	20.19
12/02/2020 03:57:19	120220	12022020	035719	192.03	13.448103	-56.981540	192.19	-0.230	-0.360	2.100	192.03	-1.60	2.60	 	 	 	 	 	 	 	 	 	 	 	 	 	 	 	 	 	 	1581479839	10.97	20.32
12/02/2020 03:57:20	120220	12022020	035720	192.13	13.448053	-56.981553	192.31	-0.540	-0.190	2.260	192.13	-1.50	2.70	 	 	 	 	 	 	 	 	 	 	 	 	 	 	 	 	 	 	1581479840	11.18	20.71
12/02/2020 03:57:21	120220	12022020	035721	192.25	13.448005	-56.981568	192.43	-0.870	0.070	2.370	192.25	-1.20	2.80	 	 	 	 	 	 	 	 	 	 	 	 	 	 	 	 	 	 	1581479841	11.11	20.58
12/02/2020 03:57:22	120220	12022020	035722	192.51	13.447957	-56.981583	192.70	-0.940	0.320	2.310	192.51	-1.00	2.80	 	 	 	 	 	 	 	 	 	 	 	 	 	 	 	 	 	 	1581479842	10.95	20.28
12/02/2020 03:57:23	120220	12022020	035723	192.98	13.447908	-56.981597	193.14	-0.570	0.510	1.860	192.98	-0.80	2.30	 	 	 	 	 	 	 	 	 	 	 	 	 	 	 	 	 	 	1581479843	10.87	20.13
12/02/2020 03:57:24	120220	12022020	035724	193.56	13.447860	-56.981607	193.72	0.060	0.480	1.120	193.56	-0.80	1.60	 	 	 	 	 	 	 	 	 	 	 	 	 	 	 	 	 	 	1581479844	10.71	19.83
12/02/2020 03:57:25	120220	12022020	035725	194.11	13.447810	-56.981615	194.26	0.600	0.070	0.580	194.11	-1.20	1.00	 	 	 	 	 	 	 	 	 	 	 	 	 	 	 	 	 	 	1581479845	10.68	19.78
12/02/2020 03:57:26	120220	12022020	035726	194.27	13.447760	-56.981627	194.39	0.890	-0.650	0.610	194.27	-2.00	1.10	 	 	 	 	 	 	 	 	 	 	 	 	 	 	 	 	 	 	1581479846	10.83	20.06
12/02/2020 03:57:27	120220	12022020	035727	193.89	13.447710	-56.981638	193.99	1.010	-1.320	1.140	193.89	-2.60	1.60	 	 	 	 	 	 	 	 	 	 	 	 	 	 	 	 	 	 	1581479847	11.00	20.37
12/02/2020 03:57:28	120220	12022020	035728	193.10	13.447660	-56.981652	193.21	0.970	-1.620	1.970	193.10	-2.90	2.50	 	 	 	 	 	 	 	 	 	 	 	 	 	 	 	 	 	 	1581479848	11.09	20.54
12/02/2020 03:57:29	120220	12022020	035729	192.20	13.447612	-56.981668	192.33	0.660	-1.420	2.800	192.20	-2.70	3.30	 	 	 	 	 	 	 	 	 	 	 	 	 	 	 	 	 	 	1581479849	11.10	20.56
12/02/2020 03:57:30	120220	12022020	035730	191.66	13.447563	-56.981685	191.85	0.080	-0.720	3.120	191.66	-2.00	3.60	 	 	 	 	 	 	 	 	 	 	 	 	 	 	 	 	 	 	1581479850	11.03	20.43
12/02/2020 03:57:31	120220	12022020	035731	191.75	13.447517	-56.981698	191.94	-0.490	0.230	2.770	191.75	-1.00	3.20	 	 	 	 	 	 	 	 	 	 	 	 	 	 	 	 	 	 	1581479851	10.85	20.09
12/02/2020 03:57:32	120220	12022020	035732	192.16	13.447468	-56.981712	192.35	-0.840	0.830	2.120	192.16	-0.40	2.50	 	 	 	 	 	 	 	 	 	 	 	 	 	 	 	 	 	 	1581479852	10.56	19.56
12/02/2020 03:57:33	120220	12022020	035733	192.68	13.447418	-56.981727	192.88	-0.910	0.690	1.640	192.68	-0.60	2.10	 	 	 	 	 	 	 	 	 	 	 	 	 	 	 	 	 	 	1581479853	10.70	19.82
12/02/2020 03:57:34	120220	12022020	035734	193.07	13.447367	-56.981742	193.23	-0.770	-0.030	1.750	193.07	-1.30	2.20	 	 	 	 	 	 	 	 	 	 	 	 	 	 	 	 	 	 	1581479854	11.25	20.84
12/02/2020 03:57:35	120220	12022020	035735	193.10	13.447313	-56.981760	193.24	-0.490	-0.880	2.210	193.10	-2.20	2.70	 	 	 	 	 	 	 	 	 	 	 	 	 	 	 	 	 	 	1581479855	11.73	21.72
12/02/2020 03:57:36	120220	12022020	035736	193.01	13.447263	-56.981778	193.16	-0.200	-1.100	2.580	193.01	-2.40	3.00	 	 	 	 	 	 	 	 	 	 	 	 	 	 	 	 	 	 	1581479856	11.96	22.15
12/02/2020 03:57:37	120220	12022020	035737	193.09	13.447217	-56.981793	193.24	0.020	-0.360	2.460	193.09	-1.60	2.90	 	 	 	 	 	 	 	 	 	 	 	 	 	 	 	 	 	 	1581479857	11.44	21.19
12/02/2020 03:57:38	120220	12022020	035738	193.35	13.447173	-56.981802	193.47	0.320	0.700	1.630	193.35	-0.60	2.10	 	 	 	 	 	 	 	 	 	 	 	 	 	 	 	 	 	 	1581479858	10.34	19.15
12/02/2020 03:57:39	120220	12022020	035739	193.55	13.447123	-56.981805	193.66	0.690	0.810	0.780	193.55	-0.50	1.20	 	 	 	 	 	 	 	 	 	 	 	 	 	 	 	 	 	 	1581479859	9.67	17.91
12/02/2020 03:57:40	120220	12022020	035740	193.55	13.447070	-56.981813	193.65	0.900	-0.200	0.750	193.55	-1.50	1.20	 	 	 	 	 	 	 	 	 	 	 	 	 	 	 	 	 	 	1581479860	10.51	19.46
12/02/2020 03:57:41	120220	12022020	035741	193.15	13.447017	-56.981827	193.23	0.800	-1.380	1.400	193.15	-2.70	1.90	 	 	 	 	 	 	 	 	 	 	 	 	 	 	 	 	 	 	1581479861	11.60	21.48
12/02/2020 03:57:42	120220	12022020	035742	192.47	13.446965	-56.981843	192.56	0.430	-1.830	2.260	192.47	-3.10	2.70	 	 	 	 	 	 	 	 	 	 	 	 	 	 	 	 	 	 	1581479862	11.96	22.15
12/02/2020 03:57:43	120220	12022020	035743	191.88	13.446918	-56.981862	192.03	-0.030	-1.260	2.910	191.88	-2.50	3.40	 	 	 	 	 	 	 	 	 	 	 	 	 	 	 	 	 	 	1581479863	11.58	21.45
12/02/2020 03:57:44	120220	12022020	035744	191.61	13.446873	-56.981877	191.79	-0.420	-0.190	3.040	191.61	-1.40	3.50	 	 	 	 	 	 	 	 	 	 	 	 	 	 	 	 	 	 	1581479864	10.81	20.02
12/02/2020 03:57:45	120220	12022020	035745	191.61	13.446827	-56.981890	191.80	-0.650	0.480	2.810	191.61	-0.80	3.30	 	 	 	 	 	 	 	 	 	 	 	 	 	 	 	 	 	 	1581479865	10.30	19.08
12/02/2020 03:57:46	120220	12022020	035746	191.67	13.446775	-56.981905	191.86	-0.640	0.310	2.520	191.69	-1.00	3.00	 	 	 	 	 	 	 	 	 	 	 	 	 	 	 	 	 	 	1581479866	10.58	19.59
12/02/2020 03:57:47	120220	12022020	035747	191.86	13.446722	-56.981922	192.04	-0.420	-0.300	2.330	191.86	-1.60	2.80	 	 	 	 	 	 	 	 	 	 	 	 	 	 	 	 	 	 	1581479867	11.47	21.24
12/02/2020 03:57:48	120220	12022020	035748	192.19	13.446670	-56.981937	192.48	-0.200	-0.400	2.080	192.29	-1.70	2.50	 	 	 	 	 	 	 	 	 	 	 	 	 	 	 	 	 	 	1581479868	11.99	22.21
12/02/2020 03:57:49	120220	12022020	035749	192.78	13.446623	-56.981948	192.94	-0.090	0.120	1.810	192.78	-1.10	2.30	 	 	 	 	 	 	 	 	 	 	 	 	 	 	 	 	 	 	1581479869	11.38	21.08
12/02/2020 03:57:50	120220	12022020	035750	192.98	13.446577	-56.981960	193.13	0.030	0.390	1.690	192.98	-0.90	2.20	 	 	 	 	 	 	 	 	 	 	 	 	 	 	 	 	 	 	1581479870	10.40	19.26
12/02/2020 03:57:51	120220	12022020	035751	193.14	13.446527	-56.981970	193.29	0.210	0.150	1.520	193.14	-1.20	2.00	 	 	 	 	 	 	 	 	 	 	 	 	 	 	 	 	 	 	1581479871	10.40	19.26
12/02/2020 03:57:52	120220	12022020	035752	193.49	13.446475	-56.981982	193.65	0.400	-0.350	1.320	193.49	-1.60	1.80	 	 	 	 	 	 	 	 	 	 	 	 	 	 	 	 	 	 	1581479872	10.93	20.24
12/02/2020 03:57:53	120220	12022020	035753	193.81	13.446425	-56.981993	193.98	0.560	-0.810	1.240	193.81	-2.10	1.70	 	 	 	 	 	 	 	 	 	 	 	 	 	 	 	 	 	 	1581479873	11.16	20.67
12/02/2020 03:57:54	120220	12022020	035754	193.82	13.446375	-56.982005	193.98	0.610	-0.990	1.470	193.82	-2.30	2.00	 	 	 	 	 	 	 	 	 	 	 	 	 	 	 	 	 	 	1581479874	11.16	20.67
12/02/2020 03:57:55	120220	12022020	035755	193.65	13.446327	-56.982018	193.82	0.410	-0.760	1.800	193.65	-2.00	2.30	 	 	 	 	 	 	 	 	 	 	 	 	 	 	 	 	 	 	1581479875	11.00	20.37
12/02/2020 03:57:56	120220	12022020	035756	193.62	13.446280	-56.982032	193.81	0.010	-0.310	1.820	193.62	-1.60	2.30	 	 	 	 	 	 	 	 	 	 	 	 	 	 	 	 	 	 	1581479876	10.69	19.80
12/02/2020 03:57:57	120220	12022020	035757	193.73	13.446232	-56.982045	193.93	-0.350	-0.150	1.670	193.73	-1.40	2.10	 	 	 	 	 	 	 	 	 	 	 	 	 	 	 	 	 	 	1581479877	10.50	19.45
12/02/2020 03:57:58	120220	12022020	035758	193.60	13.446182	-56.982060	193.77	-0.430	-0.500	1.860	193.60	-1.80	2.30	 	 	 	 	 	 	 	 	 	 	 	 	 	 	 	 	 	 	1581479878	10.77	19.95
12/02/2020 03:57:59	120220	12022020	035759	193.00	13.446128	-56.982078	193.14	-0.300	-0.950	2.430	193.00	-2.20	2.90	 	 	 	 	 	 	 	 	 	 	 	 	 	 	 	 	 	 	1581479879	11.42	21.15
12/02/2020 03:58:00	120220	12022020	035800	192.27	13.446078	-56.982097	192.41	-0.250	-0.880	2.990	192.27	-2.10	3.50	 	 	 	 	 	 	 	 	 	 	 	 	 	 	 	 	 	 	1581479880	11.87	21.98
12/02/2020 03:58:01	120220	12022020	035801	191.66	13.446028	-56.982113	191.83	-0.340	-0.340	3.120	191.66	-1.60	3.60	1017.00	26.10	26.20	20.60	20.60	-1.0	71.0	71.0	421.0	25.8	260.00	9.50	65.00	11.90	16	7945.0	27.2	27.2	1581479881	11.62	21.52
12/02/2020 03:58:02	120220	12022020	035802	191.45	13.445980	-56.982128	191.63	-0.360	0.370	2.690	191.45	-0.90	3.10	 	 	 	 	 	 	 	 	 	 	 	 	 	 	 	 	 	 	1581479882	11.19	20.72
12/02/2020 03:58:03	120220	12022020	035803	191.84	13.445932	-56.982138	192.03	-0.180	1.080	1.780	191.84	-0.20	2.20	 	 	 	 	 	 	 	 	 	 	 	 	 	 	 	 	 	 	1581479883	10.93	20.24
12/02/2020 03:58:04	120220	12022020	035804	192.66	13.445883	-56.982145	192.84	0.080	1.320	0.820	192.66	0.00	1.30	 	 	 	 	 	 	 	 	 	 	 	 	 	 	 	 	 	 	1581479884	10.60	19.63
12/02/2020 03:58:05	120220	12022020	035805	193.37	13.445832	-56.982155	193.52	0.360	0.490	0.490	193.37	-0.90	1.00	 	 	 	 	 	 	 	 	 	 	 	 	 	 	 	 	 	 	1581479885	10.53	19.50
12/02/2020 03:58:06	120220	12022020	035806	193.55	13.445778	-56.982170	193.69	0.670	-1.080	1.050	193.55	-2.40	1.50	 	 	 	 	 	 	 	 	 	 	 	 	 	 	 	 	 	 	1581479886	11.20	20.74
12/02/2020 03:58:07	120220	12022020	035807	193.26	13.445725	-56.982185	193.39	0.770	-2.090	2.030	193.26	-3.40	2.50	 	 	 	 	 	 	 	 	 	 	 	 	 	 	 	 	 	 	1581479887	11.95	22.13
12/02/2020 03:58:08	120220	12022020	035808	192.84	13.445678	-56.982202	193.00	0.390	-1.840	2.990	192.84	-3.10	3.50	 	 	 	 	 	 	 	 	 	 	 	 	 	 	 	 	 	 	1581479888	11.69	21.65
12/02/2020 03:58:09	120220	12022020	035809	192.39	13.445635	-56.982220	192.55	-0.270	-0.950	3.650	192.39	-2.20	4.10	 	 	 	 	 	 	 	 	 	 	 	 	 	 	 	 	 	 	1581479889	10.62	19.67
12/02/2020 03:58:10	120220	12022020	035810	192.06	13.445590	-56.982237	192.16	-0.760	-0.180	3.700	191.99	-1.40	4.10	 	 	 	 	 	 	 	 	 	 	 	 	 	 	 	 	 	 	1581479890	10.14	18.78
12/02/2020 03:58:11	120220	12022020	035811	191.84	13.445542	-56.982253	192.01	-0.830	0.220	3.240	191.84	-1.10	3.70	 	 	 	 	 	 	 	 	 	 	 	 	 	 	 	 	 	 	1581479891	10.49	19.43
12/02/2020 03:58:12	120220	12022020	035812	191.86	13.445490	-56.982267	192.04	-0.470	0.250	2.520	191.88	-1.00	3.00	 	 	 	 	 	 	 	 	 	 	 	 	 	 	 	 	 	 	1581479892	10.95	20.28
12/02/2020 03:58:13	120220	12022020	035813	192.03	13.445438	-56.982277	192.17	0.170	0.060	1.770	192.03	-1.20	2.20	 	 	 	 	 	 	 	 	 	 	 	 	 	 	 	 	 	 	1581479893	11.33	20.98
12/02/2020 03:58:14	120220	12022020	035814	192.19	13.445385	-56.982285	192.31	0.760	-0.090	1.210	192.19	-1.40	1.70	 	 	 	 	 	 	 	 	 	 	 	 	 	 	 	 	 	 	1581479894	11.54	21.37
12/02/2020 03:58:15	120220	12022020	035815	192.45	13.445333	-56.982293	192.56	0.890	-0.030	1.100	192.45	-1.30	1.60	 	 	 	 	 	 	 	 	 	 	 	 	 	 	 	 	 	 	1581479895	11.47	21.24
12/02/2020 03:58:16	120220	12022020	035816	192.72	13.445285	-56.982302	192.83	0.490	0.100	1.420	192.72	-1.20	1.90	 	 	 	 	 	 	 	 	 	 	 	 	 	 	 	 	 	 	1581479896	11.07	20.50
12/02/2020 03:58:17	120220	12022020	035817	192.73	13.445237	-56.982317	192.85	-0.140	-0.070	2.230	192.73	-1.40	2.70	 	 	 	 	 	 	 	 	 	 	 	 	 	 	 	 	 	 	1581479897	10.68	19.78
12/02/2020 03:58:18	120220	12022020	035818	192.38	13.445187	-56.982335	192.50	-0.560	-0.620	3.230	192.38	-1.90	3.70	 	 	 	 	 	 	 	 	 	 	 	 	 	 	 	 	 	 	1581479898	10.80	20.00
12/02/2020 03:58:19	120220	12022020	035819	191.97	13.445137	-56.982355	192.12	-0.610	-1.050	3.600	191.97	-2.30	4.10	 	 	 	 	 	 	 	 	 	 	 	 	 	 	 	 	 	 	1581479899	11.37	21.06
12/02/2020 03:58:20	120220	12022020	035820	191.81	13.445088	-56.982372	191.99	-0.480	-0.980	3.430	191.81	-2.30	3.90	 	 	 	 	 	 	 	 	 	 	 	 	 	 	 	 	 	 	1581479900	11.49	21.28
12/02/2020 03:58:21	120220	12022020	035821	191.80	13.445042	-56.982385	191.96	-0.270	-0.670	2.900	191.80	-1.90	3.30	 	 	 	 	 	 	 	 	 	 	 	 	 	 	 	 	 	 	1581479901	10.98	20.33
12/02/2020 03:58:22	120220	12022020	035822	191.72	13.444992	-56.982397	191.83	0.050	-0.500	2.190	191.69	-1.80	2.60	 	 	 	 	 	 	 	 	 	 	 	 	 	 	 	 	 	 	1581479902	10.69	19.80
12/02/2020 03:58:23	120220	12022020	035823	191.65	13.444940	-56.982405	191.79	0.340	-0.300	1.610	191.65	-1.60	2.10	 	 	 	 	 	 	 	 	 	 	 	 	 	 	 	 	 	 	1581479903	10.94	20.26
12/02/2020 03:58:24	120220	12022020	035824	191.94	13.444892	-56.982413	192.20	0.320	0.280	1.210	192.04	-1.00	1.70	 	 	 	 	 	 	 	 	 	 	 	 	 	 	 	 	 	 	1581479904	11.12	20.59
12/02/2020 03:58:25	120220	12022020	035825	192.42	13.444845	-56.982423	192.55	0.160	0.650	1.150	192.42	-0.60	1.60	 	 	 	 	 	 	 	 	 	 	 	 	 	 	 	 	 	 	1581479905	10.52	19.48
12/02/2020 03:58:26	120220	12022020	035826	192.38	13.444793	-56.982435	192.51	0.280	0.090	1.420	192.38	-1.20	1.90	 	 	 	 	 	 	 	 	 	 	 	 	 	 	 	 	 	 	1581479906	10.38	19.22
12/02/2020 03:58:27	120220	12022020	035827	192.33	13.444740	-56.982448	192.47	0.490	-0.680	1.890	192.33	-2.00	2.40	 	 	 	 	 	 	 	 	 	 	 	 	 	 	 	 	 	 	1581479907	11.37	21.06
12/02/2020 03:58:28	120220	12022020	035828	192.44	13.444688	-56.982462	192.59	0.340	-0.940	2.280	192.44	-2.20	2.80	 	 	 	 	 	 	 	 	 	 	 	 	 	 	 	 	 	 	1581479908	11.85	21.95
12/02/2020 03:58:29	120220	12022020	035829	192.68	13.444640	-56.982478	192.83	-0.190	-0.630	2.450	192.68	-1.90	2.90	 	 	 	 	 	 	 	 	 	 	 	 	 	 	 	 	 	 	1581479909	11.39	21.09
12/02/2020 03:58:30	120220	12022020	035830	193.09	13.444595	-56.982493	193.24	-0.650	-0.060	2.270	193.09	-1.30	2.70	 	 	 	 	 	 	 	 	 	 	 	 	 	 	 	 	 	 	1581479910	10.78	19.96
12/02/2020 03:58:31	120220	12022020	035831	193.47	13.444548	-56.982507	193.59	-0.640	0.190	1.840	193.47	-1.10	2.30	 	 	 	 	 	 	 	 	 	 	 	 	 	 	 	 	 	 	1581479911	10.37	19.21
12/02/2020 03:58:32	120220	12022020	035832	193.43	13.444497	-56.982520	193.51	-0.170	-0.340	1.650	193.43	-1.70	2.10	 	 	 	 	 	 	 	 	 	 	 	 	 	 	 	 	 	 	1581479912	10.52	19.48
12/02/2020 03:58:33	120220	12022020	035833	192.93	13.444442	-56.982533	193.00	0.410	-1.190	1.750	192.93	-2.50	2.20	 	 	 	 	 	 	 	 	 	 	 	 	 	 	 	 	 	 	1581479913	11.35	21.02
12/02/2020 03:58:34	120220	12022020	035834	192.16	13.444390	-56.982548	192.23	0.630	-1.400	2.030	192.16	-2.70	2.50	 	 	 	 	 	 	 	 	 	 	 	 	 	 	 	 	 	 	1581479914	11.99	22.21
12/02/2020 03:58:35	120220	12022020	035835	191.61	13.444343	-56.982560	191.72	0.300	-0.530	2.140	191.61	-1.80	2.60	 	 	 	 	 	 	 	 	 	 	 	 	 	 	 	 	 	 	1581479915	11.62	21.52
12/02/2020 03:58:36	120220	12022020	035836	191.60	13.444298	-56.982573	191.77	-0.350	0.740	1.980	191.64	-0.50	2.40	 	 	 	 	 	 	 	 	 	 	 	 	 	 	 	 	 	 	1581479916	10.57	19.58
12/02/2020 03:58:37	120220	12022020	035837	191.88	13.444252	-56.982588	192.02	-0.760	1.200	1.870	191.88	-0.10	2.30	 	 	 	 	 	 	 	 	 	 	 	 	 	 	 	 	 	 	1581479917	9.85	18.24
12/02/2020 03:58:38	120220	12022020	035838	192.12	13.444202	-56.982605	192.31	-0.580	0.570	1.850	192.17	-0.80	2.30	 	 	 	 	 	 	 	 	 	 	 	 	 	 	 	 	 	 	1581479918	10.42	19.30
12/02/2020 03:58:39	120220	12022020	035839	192.27	13.444148	-56.982620	192.39	0.080	-0.470	1.950	192.27	-1.80	2.40	 	 	 	 	 	 	 	 	 	 	 	 	 	 	 	 	 	 	1581479919	11.46	21.22
12/02/2020 03:58:40	120220	12022020	035840	192.08	13.444095	-56.982633	192.19	0.760	-1.120	2.120	192.08	-2.40	2.60	 	 	 	 	 	 	 	 	 	 	 	 	 	 	 	 	 	 	1581479920	11.92	22.08
12/02/2020 03:58:41	120220	12022020	035841	191.88	13.444047	-56.982643	192.01	0.950	-0.990	2.200	191.88	-2.30	2.70	 	 	 	 	 	 	 	 	 	 	 	 	 	 	 	 	 	 	1581479921	11.66	21.59
12/02/2020 03:58:42	120220	12022020	035842	191.96	13.443998	-56.982652	192.10	0.510	-0.390	2.130	191.96	-1.70	2.60	 	 	 	 	 	 	 	 	 	 	 	 	 	 	 	 	 	 	1581479922	10.89	20.17
12/02/2020 03:58:43	120220	12022020	035843	192.10	13.443950	-56.982663	192.23	-0.170	-0.150	2.140	192.10	-1.40	2.60	 	 	 	 	 	 	 	 	 	 	 	 	 	 	 	 	 	 	1581479923	10.33	19.13
12/02/2020 03:58:44	120220	12022020	035844	192.06	13.443900	-56.982680	192.19	-0.450	-0.470	2.350	192.06	-1.80	2.80	 	 	 	 	 	 	 	 	 	 	 	 	 	 	 	 	 	 	1581479924	10.64	19.71
12/02/2020 03:58:45	120220	12022020	035845	192.00	13.443848	-56.982693	192.14	-0.220	-0.710	2.400	192.00	-2.00	2.90	 	 	 	 	 	 	 	 	 	 	 	 	 	 	 	 	 	 	1581479925	11.43	21.17
12/02/2020 03:58:46	120220	12022020	035846	191.89	13.443797	-56.982705	192.01	0.070	-0.590	2.330	191.89	-1.90	2.80	 	 	 	 	 	 	 	 	 	 	 	 	 	 	 	 	 	 	1581479926	11.54	21.37
12/02/2020 03:58:47	120220	12022020	035847	191.59	13.443747	-56.982718	191.71	-0.010	-0.520	2.540	191.59	-1.80	3.00	 	 	 	 	 	 	 	 	 	 	 	 	 	 	 	 	 	 	1581479927	11.15	20.65
12/02/2020 03:58:48	120220	12022020	035848	191.20	13.443697	-56.982737	191.34	-0.450	-0.520	3.060	191.20	-1.80	3.60	 	 	 	 	 	 	 	 	 	 	 	 	 	 	 	 	 	 	1581479928	11.21	20.76
12/02/2020 03:58:49	120220	12022020	035849	190.94	13.443648	-56.982757	191.12	-0.880	-0.200	3.470	190.94	-1.50	3.90	 	 	 	 	 	 	 	 	 	 	 	 	 	 	 	 	 	 	1581479929	11.44	21.19
12/02/2020 03:58:50	120220	12022020	035850	190.93	13.443602	-56.982775	191.13	-0.820	0.440	3.490	190.93	-0.80	3.90	 	 	 	 	 	 	 	 	 	 	 	 	 	 	 	 	 	 	1581479930	11.22	20.78
12/02/2020 03:58:51	120220	12022020	035851	191.17	13.443553	-56.982785	191.36	-0.060	0.790	2.950	191.17	-0.50	3.40	 	 	 	 	 	 	 	 	 	 	 	 	 	 	 	 	 	 	1581479931	10.65	19.72
12/02/2020 03:58:52	120220	12022020	035852	191.27	13.443502	-56.982793	191.42	0.990	0.130	2.460	191.27	-1.20	2.90	 	 	 	 	 	 	 	 	 	 	 	 	 	 	 	 	 	 	1581479932	10.54	19.52
12/02/2020 03:58:53	120220	12022020	035853	191.23	13.443445	-56.982800	191.42	1.550	-0.790	2.380	191.23	-2.10	2.90	 	 	 	 	 	 	 	 	 	 	 	 	 	 	 	 	 	 	1581479933	11.55	21.39
12/02/2020 03:58:54	120220	12022020	035854	191.41	13.443395	-56.982808	191.62	1.170	-0.770	2.430	191.41	-2.00	2.90	 	 	 	 	 	 	 	 	 	 	 	 	 	 	 	 	 	 	1581479934	12.05	22.32
12/02/2020 03:58:55	120220	12022020	035855	191.82	13.443350	-56.982818	192.02	0.200	0.010	2.440	191.82	-1.30	2.90	 	 	 	 	 	 	 	 	 	 	 	 	 	 	 	 	 	 	1581479935	11.01	20.39
12/02/2020 03:58:56	120220	12022020	035856	192.16	13.443303	-56.982832	192.35	-0.570	0.240	2.470	192.16	-1.10	2.90	 	 	 	 	 	 	 	 	 	 	 	 	 	 	 	 	 	 	1581479936	9.86	18.26
12/02/2020 03:58:57	120220	12022020	035857	192.38	13.443253	-56.982848	192.56	-0.710	-0.400	2.540	192.38	-1.70	3.00	 	 	 	 	 	 	 	 	 	 	 	 	 	 	 	 	 	 	1581479937	10.27	19.02
12/02/2020 03:58:58	120220	12022020	035858	192.34	13.443202	-56.982865	192.50	-0.400	-1.250	2.570	192.34	-2.60	3.00	 	 	 	 	 	 	 	 	 	 	 	 	 	 	 	 	 	 	1581479938	11.33	20.98
12/02/2020 03:58:59	120220	12022020	035859	191.98	13.443148	-56.982878	192.11	0.010	-1.650	2.360	191.98	-2.90	2.80	 	 	 	 	 	 	 	 	 	 	 	 	 	 	 	 	 	 	1581479939	11.80	21.85
12/02/2020 03:59:00	120220	12022020	035900	191.54	13.443098	-56.982888	191.66	0.180	-1.300	1.900	191.54	-2.50	2.40	 	 	 	 	 	 	 	 	 	 	 	 	 	 	 	 	 	 	1581479940	11.60	21.48
12/02/2020 03:59:01	120220	12022020	035901	191.33	13.443050	-56.982897	191.44	-0.040	-0.530	1.420	191.33	-1.80	1.90	1017.00	26.20	26.20	20.80	20.80	-1.0	72.0	72.0	424.0	25.8	266.00	9.40	68.00	11.30	16	7618.0	27.2	27.2	1581479941	11.06	20.48
12/02/2020 03:59:02	120220	12022020	035902	191.30	13.443000	-56.982908	191.39	-0.380	-0.090	1.150	191.30	-1.40	1.60	 	 	 	 	 	 	 	 	 	 	 	 	 	 	 	 	 	 	1581479942	10.71	19.83
12/02/2020 03:59:03	120220	12022020	035903	191.21	13.442947	-56.982922	191.30	-0.520	-0.010	1.260	191.21	-1.30	1.70	 	 	 	 	 	 	 	 	 	 	 	 	 	 	 	 	 	 	1581479943	11.07	20.50
12/02/2020 03:59:04	120220	12022020	035904	191.29	13.442897	-56.982935	191.40	-0.510	0.350	1.500	191.29	-0.90	2.00	 	 	 	 	 	 	 	 	 	 	 	 	 	 	 	 	 	 	1581479944	11.62	21.52
12/02/2020 03:59:05	120220	12022020	035905	191.49	13.442848	-56.982950	191.60	-0.470	0.840	1.770	191.49	-0.40	2.20	 	 	 	 	 	 	 	 	 	 	 	 	 	 	 	 	 	 	1581479945	11.28	20.89
12/02/2020 03:59:06	120220	12022020	035906	191.45	13.442798	-56.982963	191.56	-0.220	0.630	2.080	191.45	-0.70	2.50	 	 	 	 	 	 	 	 	 	 	 	 	 	 	 	 	 	 	1581479946	10.77	19.95
12/02/2020 03:59:07	120220	12022020	035907	191.20	13.442743	-56.982977	191.30	0.340	-0.220	2.190	191.20	-1.50	2.60	 	 	 	 	 	 	 	 	 	 	 	 	 	 	 	 	 	 	1581479947	11.24	20.82
12/02/2020 03:59:08	120220	12022020	035908	191.06	13.442690	-56.982987	191.18	0.940	-0.660	1.930	191.06	-1.90	2.40	 	 	 	 	 	 	 	 	 	 	 	 	 	 	 	 	 	 	1581479948	11.98	22.19
12/02/2020 03:59:09	120220	12022020	035909	191.39	13.442642	-56.982993	191.54	0.980	-0.200	1.430	191.39	-1.50	1.90	 	 	 	 	 	 	 	 	 	 	 	 	 	 	 	 	 	 	1581479949	11.70	21.67
12/02/2020 03:59:10	120220	12022020	035910	191.94	13.442595	-56.983002	192.07	0.360	0.250	1.330	191.94	-1.00	1.80	 	 	 	 	 	 	 	 	 	 	 	 	 	 	 	 	 	 	1581479950	10.51	19.46
12/02/2020 03:59:11	120220	12022020	035911	192.26	13.442548	-56.983018	192.37	-0.320	-0.120	1.820	192.26	-1.40	2.30	 	 	 	 	 	 	 	 	 	 	 	 	 	 	 	 	 	 	1581479951	10.02	18.56
12/02/2020 03:59:12	120220	12022020	035912	192.46	13.442498	-56.983037	192.60	-0.500	-0.870	2.180	192.46	-2.20	2.60	 	 	 	 	 	 	 	 	 	 	 	 	 	 	 	 	 	 	1581479952	10.83	20.06
12/02/2020 03:59:13	120220	12022020	035913	192.70	13.442448	-56.983052	192.85	-0.350	-1.150	2.280	192.70	-2.40	2.70	 	 	 	 	 	 	 	 	 	 	 	 	 	 	 	 	 	 	1581479953	11.44	21.19
12/02/2020 03:59:14	120220	12022020	035914	192.60	13.442400	-56.983067	192.61	-0.110	-1.380	2.380	192.50	-2.70	2.90	 	 	 	 	 	 	 	 	 	 	 	 	 	 	 	 	 	 	1581479954	10.98	20.33
12/02/2020 03:59:15	120220	12022020	035915	191.67	13.442347	-56.983082	191.75	0.230	-1.830	2.690	191.67	-3.10	3.20	 	 	 	 	 	 	 	 	 	 	 	 	 	 	 	 	 	 	1581479955	11.01	20.39
12/02/2020 03:59:16	120220	12022020	035916	190.65	13.442293	-56.983097	190.75	0.530	-1.760	2.980	190.65	-3.00	3.50	 	 	 	 	 	 	 	 	 	 	 	 	 	 	 	 	 	 	1581479956	11.77	21.80
12/02/2020 03:59:17	120220	12022020	035917	190.03	13.442243	-56.983107	190.15	0.510	-0.620	3.030	190.03	-1.80	3.50	 	 	 	 	 	 	 	 	 	 	 	 	 	 	 	 	 	 	1581479957	11.92	22.08
12/02/2020 03:59:18	120220	12022020	035918	190.15	13.442197	-56.983117	190.33	0.000	1.010	2.710	190.15	-0.20	3.20	 	 	 	 	 	 	 	 	 	 	 	 	 	 	 	 	 	 	1581479958	11.09	20.54
12/02/2020 03:59:19	120220	12022020	035919	190.80	13.442148	-56.983127	191.00	-0.680	2.030	2.410	190.80	0.80	2.90	 	 	 	 	 	 	 	 	 	 	 	 	 	 	 	 	 	 	1581479959	10.30	19.08
12/02/2020 03:59:20	120220	12022020	035920	191.58	13.442098	-56.983140	191.77	-0.980	1.810	2.230	191.58	0.50	2.70	 	 	 	 	 	 	 	 	 	 	 	 	 	 	 	 	 	 	1581479960	10.40	19.26
12/02/2020 03:59:21	120220	12022020	035921	192.25	13.442045	-56.983155	192.43	-0.640	0.690	2.150	192.25	-0.60	2.60	 	 	 	 	 	 	 	 	 	 	 	 	 	 	 	 	 	 	1581479961	11.25	20.84
12/02/2020 03:59:22	120220	12022020	035922	192.64	13.441992	-56.983168	192.79	0.100	-0.600	2.170	192.64	-1.90	2.60	 	 	 	 	 	 	 	 	 	 	 	 	 	 	 	 	 	 	1581479962	11.91	22.06
12/02/2020 03:59:23	120220	12022020	035923	192.70	13.441938	-56.983180	192.84	0.740	-1.530	2.220	192.70	-2.80	2.70	 	 	 	 	 	 	 	 	 	 	 	 	 	 	 	 	 	 	1581479963	11.93	22.09
12/02/2020 03:59:24	120220	12022020	035924	192.51	13.441888	-56.983193	192.65	0.860	-1.770	2.490	192.51	-3.00	3.00	 	 	 	 	 	 	 	 	 	 	 	 	 	 	 	 	 	 	1581479964	11.56	21.41
12/02/2020 03:59:25	120220	12022020	035925	192.01	13.441842	-56.983207	192.14	0.500	-1.430	2.960	192.01	-2.70	3.40	 	 	 	 	 	 	 	 	 	 	 	 	 	 	 	 	 	 	1581479965	10.92	20.22
12/02/2020 03:59:26	120220	12022020	035926	191.39	13.441793	-56.983220	191.38	0.050	-0.940	3.270	191.25	-2.20	3.70	 	 	 	 	 	 	 	 	 	 	 	 	 	 	 	 	 	 	1581479966	10.54	19.52
12/02/2020 03:59:27	120220	12022020	035927	190.63	13.441745	-56.983235	190.77	-0.250	-0.390	3.240	190.63	-1.60	3.70	 	 	 	 	 	 	 	 	 	 	 	 	 	 	 	 	 	 	1581479967	10.73	19.87
12/02/2020 03:59:28	120220	12022020	035928	190.39	13.441695	-56.983248	190.55	-0.360	0.160	2.960	190.38	-1.10	3.40	 	 	 	 	 	 	 	 	 	 	 	 	 	 	 	 	 	 	1581479968	10.95	20.28
12/02/2020 03:59:29	120220	12022020	035929	190.56	13.441645	-56.983260	190.75	-0.300	0.440	2.370	190.56	-0.80	2.80	 	 	 	 	 	 	 	 	 	 	 	 	 	 	 	 	 	 	1581479969	10.99	20.35
12/02/2020 03:59:30	120220	12022020	035930	191.11	13.441593	-56.983272	191.30	-0.230	0.480	1.870	191.11	-0.80	2.30	 	 	 	 	 	 	 	 	 	 	 	 	 	 	 	 	 	 	1581479970	11.21	20.76
12/02/2020 03:59:31	120220	12022020	035931	191.79	13.441543	-56.983283	191.96	-0.190	0.390	1.810	191.79	-0.90	2.30	 	 	 	 	 	 	 	 	 	 	 	 	 	 	 	 	 	 	1581479971	11.30	20.93
12/02/2020 03:59:32	120220	12022020	035932	192.32	13.441493	-56.983297	192.44	-0.110	0.130	1.850	192.32	-1.20	2.30	 	 	 	 	 	 	 	 	 	 	 	 	 	 	 	 	 	 	1581479972	11.17	20.69
12/02/2020 03:59:33	120220	12022020	035933	192.51	13.441442	-56.983308	192.62	0.190	-0.400	1.780	192.51	-1.70	2.30	 	 	 	 	 	 	 	 	 	 	 	 	 	 	 	 	 	 	1581479973	11.09	20.54
12/02/2020 03:59:34	120220	12022020	035934	192.65	13.441390	-56.983318	192.78	0.560	-0.800	1.560	192.65	-2.10	2.00	 	 	 	 	 	 	 	 	 	 	 	 	 	 	 	 	 	 	1581479974	11.31	20.95
12/02/2020 03:59:35	120220	12022020	035935	192.93	13.441340	-56.983327	193.06	0.620	-0.730	1.140	192.93	-2.00	1.60	 	 	 	 	 	 	 	 	 	 	 	 	 	 	 	 	 	 	1581479975	11.29	20.91
12/02/2020 03:59:36	120220	12022020	035936	193.11	13.441292	-56.983337	193.23	0.240	-0.630	1.070	193.11	-1.90	1.60	 	 	 	 	 	 	 	 	 	 	 	 	 	 	 	 	 	 	1581479976	10.77	19.95
12/02/2020 03:59:37	120220	12022020	035937	192.93	13.441243	-56.983352	193.03	-0.220	-0.840	1.650	192.93	-2.10	2.20	 	 	 	 	 	 	 	 	 	 	 	 	 	 	 	 	 	 	1581479977	10.61	19.65
12/02/2020 03:59:38	120220	12022020	035938	192.40	13.441193	-56.983370	192.52	-0.430	-0.980	2.330	192.40	-2.30	2.80	 	 	 	 	 	 	 	 	 	 	 	 	 	 	 	 	 	 	1581479978	11.10	20.56
12/02/2020 03:59:39	120220	12022020	035939	191.83	13.441143	-56.983387	191.96	-0.330	-0.740	2.630	191.83	-2.00	3.10	 	 	 	 	 	 	 	 	 	 	 	 	 	 	 	 	 	 	1581479979	11.39	21.09
12/02/2020 03:59:40	120220	12022020	035940	191.32	13.441093	-56.983400	191.46	-0.090	-0.350	2.610	191.32	-1.60	3.10	 	 	 	 	 	 	 	 	 	 	 	 	 	 	 	 	 	 	1581479980	11.16	20.67
12/02/2020 03:59:41	120220	12022020	035941	191.10	13.441043	-56.983412	191.24	0.010	0.010	2.430	191.10	-1.30	2.90	 	 	 	 	 	 	 	 	 	 	 	 	 	 	 	 	 	 	1581479981	11.10	20.56
12/02/2020 03:59:42	120220	12022020	035942	191.03	13.440992	-56.983423	191.16	-0.110	0.190	2.320	191.03	-1.10	2.80	 	 	 	 	 	 	 	 	 	 	 	 	 	 	 	 	 	 	1581479982	11.15	20.65
12/02/2020 03:59:43	120220	12022020	035943	190.93	13.440942	-56.983438	191.07	-0.260	0.180	2.440	190.93	-1.10	2.90	 	 	 	 	 	 	 	 	 	 	 	 	 	 	 	 	 	 	1581479983	11.26	20.85
12/02/2020 03:59:44	120220	12022020	035944	191.09	13.440892	-56.983453	191.25	-0.240	0.370	2.580	191.09	-0.90	3.00	 	 	 	 	 	 	 	 	 	 	 	 	 	 	 	 	 	 	1581479984	11.45	21.21
12/02/2020 03:59:45	120220	12022020	035945	191.62	13.440843	-56.983467	191.80	-0.090	0.570	2.480	191.62	-0.70	2.90	 	 	 	 	 	 	 	 	 	 	 	 	 	 	 	 	 	 	1581479985	11.14	20.63
12/02/2020 03:59:46	120220	12022020	035946	192.22	13.440793	-56.983478	192.40	0.140	0.240	2.310	192.22	-1.10	2.80	 	 	 	 	 	 	 	 	 	 	 	 	 	 	 	 	 	 	1581479986	10.71	19.83
12/02/2020 03:59:47	120220	12022020	035947	192.68	13.440742	-56.983490	192.84	0.400	-0.550	2.020	192.68	-1.90	2.50	 	 	 	 	 	 	 	 	 	 	 	 	 	 	 	 	 	 	1581479987	10.97	20.32
12/02/2020 03:59:48	120220	12022020	035948	192.95	13.440690	-56.983502	193.10	0.510	-1.150	1.800	192.95	-2.40	2.30	 	 	 	 	 	 	 	 	 	 	 	 	 	 	 	 	 	 	1581479988	11.42	21.15
12/02/2020 03:59:49	120220	12022020	035949	192.93	13.440642	-56.983513	193.08	0.340	-1.240	1.960	192.93	-2.50	2.50	 	 	 	 	 	 	 	 	 	 	 	 	 	 	 	 	 	 	1581479989	11.29	20.91
12/02/2020 03:59:50	120220	12022020	035950	192.71	13.440593	-56.983527	192.86	-0.050	-0.920	2.290	192.71	-2.20	2.80	 	 	 	 	 	 	 	 	 	 	 	 	 	 	 	 	 	 	1581479990	10.84	20.08
12/02/2020 03:59:51	120220	12022020	035951	192.56	13.440547	-56.983542	192.71	-0.420	-0.500	2.420	192.56	-1.80	2.90	 	 	 	 	 	 	 	 	 	 	 	 	 	 	 	 	 	 	1581479991	10.59	19.61
12/02/2020 03:59:52	120220	12022020	035952	192.43	13.440497	-56.983557	192.51	-0.410	-0.320	2.300	192.39	-1.60	2.80	 	 	 	 	 	 	 	 	 	 	 	 	 	 	 	 	 	 	1581479992	10.60	19.63
12/02/2020 03:59:53	120220	12022020	035953	192.16	13.440445	-56.983568	192.27	0.060	-0.330	1.990	192.16	-1.60	2.40	 	 	 	 	 	 	 	 	 	 	 	 	 	 	 	 	 	 	1581479993	11.00	20.37
12/02/2020 03:59:54	120220	12022020	035954	192.09	13.440393	-56.983577	192.20	0.490	-0.160	1.650	192.09	-1.40	2.10	 	 	 	 	 	 	 	 	 	 	 	 	 	 	 	 	 	 	1581479994	11.42	21.15
12/02/2020 03:59:55	120220	12022020	035955	192.15	13.440343	-56.983585	192.25	0.450	0.040	1.510	192.15	-1.30	2.00	 	 	 	 	 	 	 	 	 	 	 	 	 	 	 	 	 	 	1581479995	11.32	20.96
12/02/2020 03:59:56	120220	12022020	035956	192.00	13.440292	-56.983600	192.10	0.030	-0.080	1.920	192.00	-1.40	2.40	 	 	 	 	 	 	 	 	 	 	 	 	 	 	 	 	 	 	1581479996	11.10	20.56
12/02/2020 03:59:57	120220	12022020	035957	191.83	13.440240	-56.983617	191.94	-0.350	-0.370	2.460	191.83	-1.70	2.90	 	 	 	 	 	 	 	 	 	 	 	 	 	 	 	 	 	 	1581479997	11.32	20.96
12/02/2020 03:59:58	120220	12022020	035958	191.83	13.440190	-56.983633	191.96	-0.450	-0.490	2.860	191.83	-1.80	3.30	 	 	 	 	 	 	 	 	 	 	 	 	 	 	 	 	 	 	1581479998	11.63	21.54
12/02/2020 03:59:59	120220	12022020	035959	191.87	13.440140	-56.983652	192.00	-0.350	-0.390	3.090	191.87	-1.70	3.50	 	 	 	 	 	 	 	 	 	 	 	 	 	 	 	 	 	 	1581479999	11.52	21.34
12/02/2020 04:00:00	120220	12022020	040000	192.01	13.440092	-56.983665	192.17	-0.300	-0.040	2.870	192.01	-1.30	3.30	 	 	 	 	 	 	 	 	 	 	 	 	 	 	 	 	 	 	1581480000	11.26	20.85
12/02/2020 04:00:01	120220	12022020	040001	192.23	13.440043	-56.983678	192.37	-0.360	0.290	2.370	192.23	-1.00	2.80	1017.00	26.10	26.20	21.20	21.20	-1.0	74.0	74.0	424.0	25.8	275.00	9.50	75.00	10.70	16	7601.0	27.2	27.2	1581480001	10.90	20.19
12/02/2020 04:00:02	120220	12022020	040002	192.30	13.439993	-56.983692	192.42	-0.220	0.070	1.810	192.30	-1.20	2.30	 	 	 	 	 	 	 	 	 	 	 	 	 	 	 	 	 	 	1581480002	10.66	19.74
12/02/2020 04:00:03	120220	12022020	040003	192.42	13.439940	-56.983700	192.54	0.220	-0.370	1.220	192.42	-1.70	1.70	 	 	 	 	 	 	 	 	 	 	 	 	 	 	 	 	 	 	1581480003	11.12	20.59
12/02/2020 04:00:04	120220	12022020	040004	192.64	13.439890	-56.983708	192.81	0.600	-0.450	0.840	192.70	-1.70	1.30	 	 	 	 	 	 	 	 	 	 	 	 	 	 	 	 	 	 	1581480004	11.48	21.26
12/02/2020 04:00:05	120220	12022020	040005	192.82	13.439840	-56.983718	192.91	0.700	-0.490	0.880	192.82	-1.80	1.40	 	 	 	 	 	 	 	 	 	 	 	 	 	 	 	 	 	 	1581480005	11.05	20.46
12/02/2020 04:00:06	120220	12022020	040006	192.62	13.439790	-56.983730	192.72	0.560	-0.770	1.240	192.62	-2.10	1.70	 	 	 	 	 	 	 	 	 	 	 	 	 	 	 	 	 	 	1581480006	10.86	20.11
12/02/2020 04:00:07	120220	12022020	040007	192.36	13.439738	-56.983743	192.47	0.240	-0.930	1.740	192.36	-2.20	2.20	 	 	 	 	 	 	 	 	 	 	 	 	 	 	 	 	 	 	1581480007	11.25	20.84
12/02/2020 04:00:08	120220	12022020	040008	192.15	13.439688	-56.983758	192.30	-0.160	-0.730	2.210	192.15	-2.00	2.70	 	 	 	 	 	 	 	 	 	 	 	 	 	 	 	 	 	 	1581480008	11.34	21.00
12/02/2020 04:00:09	120220	12022020	040009	192.14	13.439640	-56.983775	192.32	-0.540	-0.290	2.530	192.14	-1.60	3.00	 	 	 	 	 	 	 	 	 	 	 	 	 	 	 	 	 	 	1581480009	11.11	20.58
12/02/2020 04:00:10	120220	12022020	040010	192.16	13.439593	-56.983793	192.33	-0.750	0.020	2.730	192.16	-1.30	3.20	 	 	 	 	 	 	 	 	 	 	 	 	 	 	 	 	 	 	1581480010	10.89	20.17
12/02/2020 04:00:11	120220	12022020	040011	191.91	13.439542	-56.983810	192.06	-0.570	-0.110	2.900	191.91	-1.40	3.40	 	 	 	 	 	 	 	 	 	 	 	 	 	 	 	 	 	 	1581480011	10.99	20.35
12/02/2020 04:00:12	120220	12022020	040012	191.56	13.439488	-56.983825	191.71	-0.050	-0.420	2.730	191.56	-1.70	3.20	 	 	 	 	 	 	 	 	 	 	 	 	 	 	 	 	 	 	1581480012	11.50	21.30
12/02/2020 04:00:13	120220	12022020	040013	191.46	13.439437	-56.983837	191.61	0.430	-0.350	2.280	191.46	-1.60	2.70	 	 	 	 	 	 	 	 	 	 	 	 	 	 	 	 	 	 	1581480013	11.84	21.93
12/02/2020 04:00:14	120220	12022020	040014	191.68	13.439387	-56.983843	191.85	0.570	0.080	1.710	191.68	-1.20	2.20	 	 	 	 	 	 	 	 	 	 	 	 	 	 	 	 	 	 	1581480014	11.46	21.22
12/02/2020 04:00:15	120220	12022020	040015	192.14	13.439337	-56.983852	192.32	0.370	0.360	1.230	192.14	-0.90	1.70	 	 	 	 	 	 	 	 	 	 	 	 	 	 	 	 	 	 	1581480015	10.93	20.24
12/02/2020 04:00:16	120220	12022020	040016	192.54	13.439287	-56.983863	192.79	0.040	0.150	1.440	192.62	-1.20	1.90	 	 	 	 	 	 	 	 	 	 	 	 	 	 	 	 	 	 	1581480016	10.85	20.09
12/02/2020 04:00:17	120220	12022020	040017	192.90	13.439235	-56.983880	193.08	-0.210	-0.320	2.130	192.90	-1.60	2.60	 	 	 	 	 	 	 	 	 	 	 	 	 	 	 	 	 	 	1581480017	11.13	20.61
12/02/2020 04:00:18	120220	12022020	040018	192.89	13.439185	-56.983897	193.02	-0.230	-0.830	2.760	192.85	-2.10	3.20	 	 	 	 	 	 	 	 	 	 	 	 	 	 	 	 	 	 	1581480018	11.34	21.00
12/02/2020 04:00:19	120220	12022020	040019	192.54	13.439133	-56.983913	192.71	-0.020	-1.160	2.950	192.54	-2.50	3.40	 	 	 	 	 	 	 	 	 	 	 	 	 	 	 	 	 	 	1581480019	11.47	21.24
12/02/2020 04:00:20	120220	12022020	040020	192.38	13.439083	-56.983925	192.58	0.130	-0.980	2.700	192.38	-2.30	3.20	 	 	 	 	 	 	 	 	 	 	 	 	 	 	 	 	 	 	1581480020	11.51	21.32
12/02/2020 04:00:21	120220	12022020	040021	192.51	13.439035	-56.983935	192.70	0.020	-0.330	2.130	192.51	-1.60	2.60	 	 	 	 	 	 	 	 	 	 	 	 	 	 	 	 	 	 	1581480021	11.13	20.61
12/02/2020 04:00:22	120220	12022020	040022	192.68	13.438987	-56.983945	192.84	-0.270	0.230	1.530	192.68	-1.10	2.00	 	 	 	 	 	 	 	 	 	 	 	 	 	 	 	 	 	 	1581480022	10.56	19.56
12/02/2020 04:00:23	120220	12022020	040023	192.86	13.438937	-56.983957	193.00	-0.490	0.240	1.250	192.86	-1.10	1.70	 	 	 	 	 	 	 	 	 	 	 	 	 	 	 	 	 	 	1581480023	10.56	19.56
12/02/2020 04:00:24	120220	12022020	040024	192.97	13.438887	-56.983973	193.11	-0.400	-0.220	1.460	192.97	-1.50	1.90	 	 	 	 	 	 	 	 	 	 	 	 	 	 	 	 	 	 	1581480024	11.06	20.48
12/02/2020 04:00:25	120220	12022020	040025	192.83	13.438833	-56.983988	192.96	0.050	-0.760	1.700	192.83	-2.10	2.20	 	 	 	 	 	 	 	 	 	 	 	 	 	 	 	 	 	 	1581480025	11.57	21.43
12/02/2020 04:00:26	120220	12022020	040026	192.65	13.438780	-56.984002	192.77	0.550	-0.840	1.750	192.65	-2.10	2.20	 	 	 	 	 	 	 	 	 	 	 	 	 	 	 	 	 	 	1581480026	11.84	21.93
12/02/2020 04:00:27	120220	12022020	040027	192.55	13.438730	-56.984012	192.67	0.750	-0.580	1.660	192.55	-1.90	2.10	 	 	 	 	 	 	 	 	 	 	 	 	 	 	 	 	 	 	1581480027	11.52	21.34
12/02/2020 04:00:28	120220	12022020	040028	192.59	13.438678	-56.984022	192.74	0.560	-0.240	1.460	192.59	-1.50	1.90	 	 	 	 	 	 	 	 	 	 	 	 	 	 	 	 	 	 	1581480028	11.21	20.76
12/02/2020 04:00:29	120220	12022020	040029	192.78	13.438628	-56.984033	192.94	0.040	0.210	1.380	192.78	-1.10	1.90	 	 	 	 	 	 	 	 	 	 	 	 	 	 	 	 	 	 	1581480029	11.18	20.71
12/02/2020 04:00:30	120220	12022020	040030	193.17	13.438582	-56.984047	193.34	-0.580	0.640	1.580	193.17	-0.70	2.10	 	 	 	 	 	 	 	 	 	 	 	 	 	 	 	 	 	 	1581480030	10.95	20.28
12/02/2020 04:00:31	120220	12022020	040031	193.50	13.438533	-56.984065	193.65	-0.970	0.640	2.100	193.50	-0.70	2.60	 	 	 	 	 	 	 	 	 	 	 	 	 	 	 	 	 	 	1581480031	10.72	19.85
12/02/2020 04:00:32	120220	12022020	040032	193.26	13.438483	-56.984087	193.38	-0.710	-0.200	2.750	193.26	-1.50	3.20	 	 	 	 	 	 	 	 	 	 	 	 	 	 	 	 	 	 	1581480032	10.90	20.19
12/02/2020 04:00:33	120220	12022020	040033	192.60	13.438428	-56.984105	192.73	0.140	-1.310	2.980	192.60	-2.60	3.40	 	 	 	 	 	 	 	 	 	 	 	 	 	 	 	 	 	 	1581480033	11.78	21.82
12/02/2020 04:00:34	120220	12022020	040034	192.15	13.438375	-56.984117	192.30	0.930	-1.460	2.560	192.15	-2.70	3.00	 	 	 	 	 	 	 	 	 	 	 	 	 	 	 	 	 	 	1581480034	12.36	22.89
12/02/2020 04:00:35	120220	12022020	040035	192.11	13.438328	-56.984123	192.27	1.040	-0.610	1.850	192.11	-1.90	2.30	 	 	 	 	 	 	 	 	 	 	 	 	 	 	 	 	 	 	1581480035	11.57	21.43
12/02/2020 04:00:36	120220	12022020	040036	192.34	13.438282	-56.984132	192.50	0.440	0.270	1.310	192.34	-1.00	1.80	 	 	 	 	 	 	 	 	 	 	 	 	 	 	 	 	 	 	1581480036	10.40	19.26
12/02/2020 04:00:37	120220	12022020	040037	192.73	13.438233	-56.984143	192.89	-0.370	0.480	1.190	192.73	-0.80	1.70	 	 	 	 	 	 	 	 	 	 	 	 	 	 	 	 	 	 	1581480037	10.11	18.72
12/02/2020 04:00:38	120220	12022020	040038	193.07	13.438183	-56.984160	193.23	-0.780	-0.000	1.420	193.07	-1.30	1.90	 	 	 	 	 	 	 	 	 	 	 	 	 	 	 	 	 	 	1581480038	10.64	19.71
12/02/2020 04:00:39	120220	12022020	040039	193.27	13.438130	-56.984178	193.42	-0.530	-0.780	1.680	193.27	-2.10	2.20	 	 	 	 	 	 	 	 	 	 	 	 	 	 	 	 	 	 	1581480039	11.39	21.09
12/02/2020 04:00:40	120220	12022020	040040	193.30	13.438077	-56.984192	193.44	0.090	-1.360	1.720	193.30	-2.70	2.20	 	 	 	 	 	 	 	 	 	 	 	 	 	 	 	 	 	 	1581480040	11.85	21.95
12/02/2020 04:00:41	120220	12022020	040041	193.04	13.438025	-56.984205	193.16	0.530	-1.430	1.850	193.04	-2.70	2.30	 	 	 	 	 	 	 	 	 	 	 	 	 	 	 	 	 	 	1581480041	11.87	21.98
12/02/2020 04:00:42	120220	12022020	040042	192.73	13.437973	-56.984215	192.87	0.410	-0.830	2.000	192.73	-2.10	2.50	 	 	 	 	 	 	 	 	 	 	 	 	 	 	 	 	 	 	1581480042	11.61	21.50
12/02/2020 04:00:43	120220	12022020	040043	192.40	13.437925	-56.984227	192.55	-0.130	-0.040	2.220	192.40	-1.30	2.70	 	 	 	 	 	 	 	 	 	 	 	 	 	 	 	 	 	 	1581480043	11.12	20.59
12/02/2020 04:00:44	120220	12022020	040044	192.17	13.437875	-56.984243	192.33	-0.640	0.460	2.540	192.17	-0.80	3.00	 	 	 	 	 	 	 	 	 	 	 	 	 	 	 	 	 	 	1581480044	10.91	20.21
12/02/2020 04:00:45	120220	12022020	040045	192.33	13.437823	-56.984260	192.50	-0.810	0.750	2.730	192.33	-0.50	3.20	 	 	 	 	 	 	 	 	 	 	 	 	 	 	 	 	 	 	1581480045	11.28	20.89
12/02/2020 04:00:46	120220	12022020	040046	192.68	13.437775	-56.984278	192.85	-0.680	0.890	2.840	192.68	-0.40	3.30	 	 	 	 	 	 	 	 	 	 	 	 	 	 	 	 	 	 	1581480046	11.38	21.08
12/02/2020 04:00:47	120220	12022020	040047	192.84	13.437725	-56.984295	192.99	-0.310	0.560	2.810	192.84	-0.80	3.30	 	 	 	 	 	 	 	 	 	 	 	 	 	 	 	 	 	 	1581480047	11.20	20.74
12/02/2020 04:00:48	120220	12022020	040048	192.88	13.437673	-56.984310	193.02	0.240	-0.130	2.410	192.88	-1.40	2.90	 	 	 	 	 	 	 	 	 	 	 	 	 	 	 	 	 	 	1581480048	11.37	21.06
12/02/2020 04:00:49	120220	12022020	040049	193.02	13.437622	-56.984322	193.15	0.800	-0.610	1.650	193.02	-1.90	2.10	 	 	 	 	 	 	 	 	 	 	 	 	 	 	 	 	 	 	1581480049	11.60	21.48
12/02/2020 04:00:50	120220	12022020	040050	193.29	13.437572	-56.984328	193.41	1.130	-0.560	0.740	193.29	-1.90	1.20	 	 	 	 	 	 	 	 	 	 	 	 	 	 	 	 	 	 	1581480050	11.29	20.91
12/02/2020 04:00:51	120220	12022020	040051	193.48	13.437523	-56.984333	193.57	1.080	-0.460	0.290	193.48	-1.80	0.80	 	 	 	 	 	 	 	 	 	 	 	 	 	 	 	 	 	 	1581480051	10.65	19.72
12/02/2020 04:00:52	120220	12022020	040052	193.46	13.437475	-56.984343	193.55	0.670	-0.750	0.540	193.46	-2.10	1.10	 	 	 	 	 	 	 	 	 	 	 	 	 	 	 	 	 	 	1581480052	10.48	19.41
12/02/2020 04:00:53	120220	12022020	040053	193.20	13.437423	-56.984358	193.28	0.080	-1.340	1.320	193.20	-2.70	1.80	 	 	 	 	 	 	 	 	 	 	 	 	 	 	 	 	 	 	1581480053	10.92	20.22
12/02/2020 04:00:54	120220	12022020	040054	192.88	13.437370	-56.984380	192.90	-0.440	-1.810	2.290	192.80	-3.10	2.80	 	 	 	 	 	 	 	 	 	 	 	 	 	 	 	 	 	 	1581480054	11.56	21.41
12/02/2020 04:00:55	120220	12022020	040055	192.43	13.437320	-56.984400	192.56	-0.730	-1.490	2.860	192.43	-2.80	3.30	 	 	 	 	 	 	 	 	 	 	 	 	 	 	 	 	 	 	1581480055	11.99	22.21
12/02/2020 04:00:56	120220	12022020	040056	192.09	13.437272	-56.984417	192.23	-0.740	-0.670	2.930	192.09	-1.90	3.40	 	 	 	 	 	 	 	 	 	 	 	 	 	 	 	 	 	 	1581480056	11.60	21.48
12/02/2020 04:00:57	120220	12022020	040057	192.00	13.437222	-56.984432	192.15	-0.640	0.180	2.630	192.00	-1.10	3.10	 	 	 	 	 	 	 	 	 	 	 	 	 	 	 	 	 	 	1581480057	11.20	20.74
12/02/2020 04:00:58	120220	12022020	040058	192.20	13.437170	-56.984445	192.35	-0.530	0.720	2.190	192.20	-0.60	2.70	 	 	 	 	 	 	 	 	 	 	 	 	 	 	 	 	 	 	1581480058	11.19	20.72
12/02/2020 04:00:59	120220	12022020	040059	192.53	13.437118	-56.984457	192.68	-0.430	0.930	1.840	192.53	-0.40	2.30	 	 	 	 	 	 	 	 	 	 	 	 	 	 	 	 	 	 	1581480059	11.34	21.00
12/02/2020 04:01:00	120220	12022020	040100	192.95	13.437067	-56.984470	193.10	-0.290	0.880	1.650	192.95	-0.40	2.10	 	 	 	 	 	 	 	 	 	 	 	 	 	 	 	 	 	 	1581480060	11.41	21.13
12/02/2020 04:01:01	120220	12022020	040101	193.31	13.437017	-56.984485	193.44	-0.020	0.530	1.680	193.31	-0.80	2.20	1017.00	25.80	25.80	21.00	21.00	-1.0	74.0	74.0	423.0	25.8	276.00	9.00	74.00	10.20	16	7973.0	27.2	27.2	1581480061	11.31	20.95
12/02/2020 04:01:02	120220	12022020	040102	193.39	13.436965	-56.984498	193.52	0.490	-0.090	1.760	193.39	-1.40	2.30	 	 	 	 	 	 	 	 	 	 	 	 	 	 	 	 	 	 	1581480062	11.28	20.89
12/02/2020 04:01:03	120220	12022020	040103	193.33	13.436915	-56.984510	193.46	0.990	-0.580	1.660	193.33	-1.90	2.20	 	 	 	 	 	 	 	 	 	 	 	 	 	 	 	 	 	 	1581480063	11.40	21.11
12/02/2020 04:01:04	120220	12022020	040104	193.17	13.436863	-56.984518	193.29	1.090	-0.890	1.580	193.17	-2.20	2.10	 	 	 	 	 	 	 	 	 	 	 	 	 	 	 	 	 	 	1581480064	11.24	20.82
12/02/2020 04:01:05	120220	12022020	040105	192.80	13.436813	-56.984530	192.91	0.690	-1.150	1.850	192.80	-2.40	2.40	 	 	 	 	 	 	 	 	 	 	 	 	 	 	 	 	 	 	1581480065	11.04	20.45
12/02/2020 04:01:06	120220	12022020	040106	192.29	13.436763	-56.984547	192.30	0.050	-1.320	2.480	192.17	-2.60	3.00	 	 	 	 	 	 	 	 	 	 	 	 	 	 	 	 	 	 	1581480066	11.08	20.52
12/02/2020 04:01:07	120220	12022020	040107	191.73	13.436715	-56.984567	191.93	-0.570	-1.030	2.940	191.73	-2.30	3.40	 	 	 	 	 	 	 	 	 	 	 	 	 	 	 	 	 	 	1581480067	11.34	21.00
12/02/2020 04:01:08	120220	12022020	040108	191.81	13.436668	-56.984585	192.10	-0.940	-0.220	2.830	191.89	-1.50	3.30	 	 	 	 	 	 	 	 	 	 	 	 	 	 	 	 	 	 	1581480068	11.32	20.96
12/02/2020 04:01:09	120220	12022020	040109	192.41	13.436620	-56.984602	192.61	-0.840	0.450	2.290	192.41	-0.80	2.80	 	 	 	 	 	 	 	 	 	 	 	 	 	 	 	 	 	 	1581480069	10.80	20.00
12/02/2020 04:01:10	120220	12022020	040110	192.80	13.436568	-56.984613	192.97	-0.160	0.190	1.740	192.80	-1.10	2.20	 	 	 	 	 	 	 	 	 	 	 	 	 	 	 	 	 	 	1581480070	10.69	19.80
12/02/2020 04:01:11	120220	12022020	040111	192.99	13.436512	-56.984625	193.16	0.730	-0.660	1.480	192.99	-2.00	2.00	 	 	 	 	 	 	 	 	 	 	 	 	 	 	 	 	 	 	1581480071	11.59	21.46
12/02/2020 04:01:12	120220	12022020	040112	193.20	13.436457	-56.984635	193.38	1.040	-0.920	1.610	193.20	-2.20	2.10	 	 	 	 	 	 	 	 	 	 	 	 	 	 	 	 	 	 	1581480072	12.48	23.11
12/02/2020 04:01:13	120220	12022020	040113	193.42	13.436408	-56.984647	193.59	0.510	-0.220	1.890	193.42	-1.50	2.40	 	 	 	 	 	 	 	 	 	 	 	 	 	 	 	 	 	 	1581480073	11.94	22.11
12/02/2020 04:01:14	120220	12022020	040114	193.43	13.436362	-56.984660	193.59	-0.400	0.530	2.250	193.43	-0.80	2.80	 	 	 	 	 	 	 	 	 	 	 	 	 	 	 	 	 	 	1581480074	10.67	19.76
12/02/2020 04:01:15	120220	12022020	040115	193.38	13.436313	-56.984678	193.58	-1.010	0.570	2.480	193.38	-0.70	3.00	 	 	 	 	 	 	 	 	 	 	 	 	 	 	 	 	 	 	1581480075	10.32	19.11
12/02/2020 04:01:16	120220	12022020	040116	193.56	13.436263	-56.984698	193.77	-0.980	0.120	2.280	193.56	-1.20	2.80	 	 	 	 	 	 	 	 	 	 	 	 	 	 	 	 	 	 	1581480076	11.05	20.46
12/02/2020 04:01:17	120220	12022020	040117	193.83	13.436213	-56.984715	194.01	-0.380	-0.410	1.720	193.83	-1.70	2.20	 	 	 	 	 	 	 	 	 	 	 	 	 	 	 	 	 	 	1581480077	11.56	21.41
12/02/2020 04:01:18	120220	12022020	040118	193.82	13.436162	-56.984728	193.95	0.440	-0.810	1.200	193.82	-2.10	1.70	 	 	 	 	 	 	 	 	 	 	 	 	 	 	 	 	 	 	1581480078	11.53	21.35
12/02/2020 04:01:19	120220	12022020	040119	193.49	13.436110	-56.984738	193.58	1.000	-0.920	0.910	193.49	-2.20	1.40	 	 	 	 	 	 	 	 	 	 	 	 	 	 	 	 	 	 	1581480079	11.41	21.13
12/02/2020 04:01:20	120220	12022020	040120	193.17	13.436060	-56.984748	193.29	0.940	-0.650	0.890	193.17	-1.90	1.40	 	 	 	 	 	 	 	 	 	 	 	 	 	 	 	 	 	 	1581480080	11.25	20.84
12/02/2020 04:01:21	120220	12022020	040121	193.03	13.436012	-56.984760	193.18	0.360	-0.280	1.080	193.03	-1.60	1.60	 	 	 	 	 	 	 	 	 	 	 	 	 	 	 	 	 	 	1581480081	10.93	20.24
12/02/2020 04:01:22	120220	12022020	040122	192.97	13.435962	-56.984775	193.13	-0.300	-0.170	1.520	192.97	-1.50	2.00	 	 	 	 	 	 	 	 	 	 	 	 	 	 	 	 	 	 	1581480082	10.78	19.96
12/02/2020 04:01:23	120220	12022020	040123	192.94	13.435912	-56.984795	193.11	-0.600	-0.290	2.150	192.94	-1.60	2.70	 	 	 	 	 	 	 	 	 	 	 	 	 	 	 	 	 	 	1581480083	11.11	20.58
12/02/2020 04:01:24	120220	12022020	040124	192.95	13.435862	-56.984813	193.13	-0.440	-0.370	2.460	192.95	-1.70	2.90	 	 	 	 	 	 	 	 	 	 	 	 	 	 	 	 	 	 	1581480084	11.53	21.35
12/02/2020 04:01:25	120220	12022020	040125	192.90	13.435810	-56.984830	193.08	-0.020	-0.290	2.330	192.90	-1.60	2.80	 	 	 	 	 	 	 	 	 	 	 	 	 	 	 	 	 	 	1581480085	11.58	21.45
12/02/2020 04:01:26	120220	12022020	040126	192.87	13.435760	-56.984842	193.04	0.270	-0.090	2.040	192.87	-1.40	2.50	 	 	 	 	 	 	 	 	 	 	 	 	 	 	 	 	 	 	1581480086	11.36	21.04
12/02/2020 04:01:27	120220	12022020	040127	192.97	13.435710	-56.984853	193.13	0.210	0.060	1.760	192.97	-1.20	2.30	 	 	 	 	 	 	 	 	 	 	 	 	 	 	 	 	 	 	1581480087	11.12	20.59
12/02/2020 04:01:28	120220	12022020	040128	193.09	13.435660	-56.984867	193.23	-0.060	-0.070	1.650	193.09	-1.40	2.20	 	 	 	 	 	 	 	 	 	 	 	 	 	 	 	 	 	 	1581480088	11.01	20.39
12/02/2020 04:01:29	120220	12022020	040129	193.09	13.435608	-56.984883	193.23	-0.260	-0.450	1.900	193.09	-1.80	2.40	 	 	 	 	 	 	 	 	 	 	 	 	 	 	 	 	 	 	1581480089	11.18	20.71
12/02/2020 04:01:30	120220	12022020	040130	193.00	13.435558	-56.984900	193.15	-0.220	-0.630	2.160	193.00	-1.90	2.70	 	 	 	 	 	 	 	 	 	 	 	 	 	 	 	 	 	 	1581480090	11.46	21.22
12/02/2020 04:01:31	120220	12022020	040131	192.95	13.435510	-56.984913	193.12	-0.050	-0.500	2.090	192.95	-1.80	2.60	 	 	 	 	 	 	 	 	 	 	 	 	 	 	 	 	 	 	1581480091	11.37	21.06
12/02/2020 04:01:32	120220	12022020	040132	193.00	13.435460	-56.984927	193.18	0.170	-0.420	1.870	193.02	-1.70	2.40	 	 	 	 	 	 	 	 	 	 	 	 	 	 	 	 	 	 	1581480092	11.01	20.39
12/02/2020 04:01:33	120220	12022020	040133	192.97	13.435408	-56.984940	193.12	0.410	-0.590	1.730	192.97	-1.90	2.20	 	 	 	 	 	 	 	 	 	 	 	 	 	 	 	 	 	 	1581480093	11.06	20.48
12/02/2020 04:01:34	120220	12022020	040134	192.77	13.435357	-56.984952	192.93	0.580	-0.600	1.740	192.77	-1.90	2.20	 	 	 	 	 	 	 	 	 	 	 	 	 	 	 	 	 	 	1581480094	11.43	21.17
12/02/2020 04:01:35	120220	12022020	040135	192.72	13.435305	-56.984962	192.89	0.440	-0.130	1.770	192.72	-1.40	2.30	 	 	 	 	 	 	 	 	 	 	 	 	 	 	 	 	 	 	1581480095	11.48	21.26
12/02/2020 04:01:36	120220	12022020	040136	192.88	13.435257	-56.984973	193.07	-0.020	0.350	1.930	192.88	-0.90	2.40	 	 	 	 	 	 	 	 	 	 	 	 	 	 	 	 	 	 	1581480096	10.99	20.35
12/02/2020 04:01:37	120220	12022020	040137	192.98	13.435207	-56.984990	193.16	-0.440	0.240	2.360	192.98	-1.00	2.90	 	 	 	 	 	 	 	 	 	 	 	 	 	 	 	 	 	 	1581480097	10.74	19.89
12/02/2020 04:01:38	120220	12022020	040138	192.91	13.435153	-56.985007	193.11	-0.460	-0.390	2.700	192.91	-1.70	3.20	 	 	 	 	 	 	 	 	 	 	 	 	 	 	 	 	 	 	1581480098	11.25	20.84
12/02/2020 04:01:39	120220	12022020	040139	193.01	13.435102	-56.985023	193.23	-0.240	-0.850	2.690	193.01	-2.10	3.20	 	 	 	 	 	 	 	 	 	 	 	 	 	 	 	 	 	 	1581480099	11.92	22.08
12/02/2020 04:01:40	120220	12022020	040140	193.21	13.435052	-56.985038	193.41	-0.120	-0.780	2.520	193.21	-2.00	3.00	 	 	 	 	 	 	 	 	 	 	 	 	 	 	 	 	 	 	1581480100	11.84	21.93
12/02/2020 04:01:41	120220	12022020	040141	193.26	13.435003	-56.985053	193.43	-0.150	-0.470	2.270	193.26	-1.70	2.70	 	 	 	 	 	 	 	 	 	 	 	 	 	 	 	 	 	 	1581480101	11.22	20.78
12/02/2020 04:01:42	120220	12022020	040142	193.29	13.434955	-56.985068	193.43	-0.200	-0.060	1.750	193.29	-1.30	2.20	 	 	 	 	 	 	 	 	 	 	 	 	 	 	 	 	 	 	1581480102	10.91	20.21
12/02/2020 04:01:43	120220	12022020	040143	193.29	13.434907	-56.985080	193.42	-0.080	0.210	1.290	193.29	-1.00	1.80	 	 	 	 	 	 	 	 	 	 	 	 	 	 	 	 	 	 	1581480103	10.78	19.96
12/02/2020 04:01:44	120220	12022020	040144	193.24	13.434855	-56.985092	193.35	0.280	0.020	1.040	193.23	-1.30	1.50	 	 	 	 	 	 	 	 	 	 	 	 	 	 	 	 	 	 	1581480104	10.83	20.06
12/02/2020 04:01:45	120220	12022020	040145	193.13	13.434800	-56.985103	193.26	0.670	-0.540	1.130	193.13	-1.80	1.70	 	 	 	 	 	 	 	 	 	 	 	 	 	 	 	 	 	 	1581480105	11.33	20.98
12/02/2020 04:01:46	120220	12022020	040146	193.09	13.434747	-56.985117	193.25	0.800	-0.870	1.360	193.09	-2.10	1.90	 	 	 	 	 	 	 	 	 	 	 	 	 	 	 	 	 	 	1581480106	11.83	21.91
12/02/2020 04:01:47	120220	12022020	040147	193.38	13.434697	-56.985128	193.56	0.440	-0.560	1.500	193.38	-1.80	2.00	 	 	 	 	 	 	 	 	 	 	 	 	 	 	 	 	 	 	1581480107	11.79	21.84
12/02/2020 04:01:48	120220	12022020	040148	193.79	13.434650	-56.985143	193.96	-0.270	-0.080	1.820	193.79	-1.30	2.30	 	 	 	 	 	 	 	 	 	 	 	 	 	 	 	 	 	 	1581480108	11.09	20.54
12/02/2020 04:01:49	120220	12022020	040149	193.93	13.434600	-56.985162	194.09	-0.780	-0.110	2.340	193.93	-1.40	2.90	 	 	 	 	 	 	 	 	 	 	 	 	 	 	 	 	 	 	1581480109	10.71	19.83
12/02/2020 04:01:50	120220	12022020	040150	193.70	13.434548	-56.985182	193.86	-0.740	-0.540	2.760	193.70	-1.80	3.30	 	 	 	 	 	 	 	 	 	 	 	 	 	 	 	 	 	 	1581480110	11.25	20.84
12/02/2020 04:01:51	120220	12022020	040151	193.27	13.434497	-56.985197	193.43	-0.410	-0.640	2.810	193.27	-1.90	3.30	 	 	 	 	 	 	 	 	 	 	 	 	 	 	 	 	 	 	1581480111	11.88	22.00
12/02/2020 04:01:52	120220	12022020	040152	192.92	13.434447	-56.985210	193.09	-0.210	-0.260	2.430	192.92	-1.50	2.90	 	 	 	 	 	 	 	 	 	 	 	 	 	 	 	 	 	 	1581480112	11.69	21.65
12/02/2020 04:01:53	120220	12022020	040153	192.79	13.434398	-56.985223	192.97	-0.310	0.220	1.940	192.79	-1.00	2.40	 	 	 	 	 	 	 	 	 	 	 	 	 	 	 	 	 	 	1581480113	11.10	20.56
12/02/2020 04:01:54	120220	12022020	040154	192.76	13.434350	-56.985238	192.91	-0.390	0.360	1.680	192.76	-0.90	2.20	 	 	 	 	 	 	 	 	 	 	 	 	 	 	 	 	 	 	1581480114	10.73	19.87
12/02/2020 04:01:55	120220	12022020	040155	192.53	13.434298	-56.985255	192.66	-0.030	-0.090	1.790	192.53	-1.40	2.30	 	 	 	 	 	 	 	 	 	 	 	 	 	 	 	 	 	 	1581480115	10.85	20.09
12/02/2020 04:01:56	120220	12022020	040156	192.16	13.434245	-56.985270	192.22	0.760	-0.780	2.040	192.08	-2.10	2.50	 	 	 	 	 	 	 	 	 	 	 	 	 	 	 	 	 	 	1581480116	11.46	21.22
12/02/2020 04:01:57	120220	12022020	040157	191.87	13.434193	-56.985282	192.05	1.340	-0.890	2.140	191.87	-2.10	2.60	 	 	 	 	 	 	 	 	 	 	 	 	 	 	 	 	 	 	1581480117	11.98	22.19
12/02/2020 04:01:58	120220	12022020	040158	192.03	13.434143	-56.985290	192.33	1.210	-0.450	1.910	192.12	-1.70	2.40	 	 	 	 	 	 	 	 	 	 	 	 	 	 	 	 	 	 	1581480118	11.50	21.30
12/02/2020 04:01:59	120220	12022020	040159	192.72	13.434095	-56.985300	192.94	0.440	-0.000	1.730	192.72	-1.30	2.20	 	 	 	 	 	 	 	 	 	 	 	 	 	 	 	 	 	 	1581480119	10.82	20.04
12/02/2020 04:02:00	120220	12022020	040200	193.25	13.434047	-56.985315	193.47	-0.530	-0.090	2.310	193.25	-1.40	2.80	 	 	 	 	 	 	 	 	 	 	 	 	 	 	 	 	 	 	1581480120	10.59	19.61
12/02/2020 04:02:01	120220	12022020	040201	193.27	13.433995	-56.985338	193.48	-1.250	-0.800	3.470	193.27	-2.10	4.00	1016.90	25.90	25.90	21.00	21.00	-1.0	74.0	74.0	420.0	25.8	281.00	9.50	80.00	10.10	16	9365.0	27.2	27.2	1581480121	11.02	20.41
12/02/2020 04:02:02	120220	12022020	040202	192.75	13.433943	-56.985367	192.95	-1.360	-1.510	4.370	192.75	-2.80	4.90	 	 	 	 	 	 	 	 	 	 	 	 	 	 	 	 	 	 	1581480122	12.05	22.32
12/02/2020 04:02:03	120220	12022020	040203	192.04	13.433892	-56.985388	192.24	-0.870	-1.380	4.340	192.04	-2.60	4.80	 	 	 	 	 	 	 	 	 	 	 	 	 	 	 	 	 	 	1581480123	12.60	23.34
12/02/2020 04:02:04	120220	12022020	040204	191.78	13.433843	-56.985400	191.98	-0.120	-0.210	3.270	191.78	-1.40	3.70	 	 	 	 	 	 	 	 	 	 	 	 	 	 	 	 	 	 	1581480124	11.94	22.11
12/02/2020 04:02:05	120220	12022020	040205	191.83	13.433795	-56.985403	192.00	0.480	0.850	1.940	191.83	-0.40	2.40	 	 	 	 	 	 	 	 	 	 	 	 	 	 	 	 	 	 	1581480125	10.62	19.67
12/02/2020 04:02:06	120220	12022020	040206	191.77	13.433743	-56.985407	191.91	0.790	0.820	1.090	191.77	-0.50	1.60	 	 	 	 	 	 	 	 	 	 	 	 	 	 	 	 	 	 	1581480126	10.45	19.35
12/02/2020 04:02:07	120220	12022020	040207	191.40	13.433687	-56.985415	191.52	0.800	0.080	1.180	191.40	-1.20	1.70	 	 	 	 	 	 	 	 	 	 	 	 	 	 	 	 	 	 	1581480127	11.38	21.08
12/02/2020 04:02:08	120220	12022020	040208	191.11	13.433635	-56.985428	191.26	0.490	-0.280	1.580	191.11	-1.50	2.10	 	 	 	 	 	 	 	 	 	 	 	 	 	 	 	 	 	 	1581480128	12.06	22.34
12/02/2020 04:02:09	120220	12022020	040209	191.28	13.433587	-56.985443	191.45	-0.040	0.010	1.930	191.28	-1.20	2.40	 	 	 	 	 	 	 	 	 	 	 	 	 	 	 	 	 	 	1581480129	11.62	21.52
12/02/2020 04:02:10	120220	12022020	040210	191.63	13.433540	-56.985460	191.81	-0.330	0.060	2.290	191.63	-1.20	2.80	 	 	 	 	 	 	 	 	 	 	 	 	 	 	 	 	 	 	1581480130	10.62	19.67
12/02/2020 04:02:11	120220	12022020	040211	191.82	13.433490	-56.985477	192.00	-0.080	-0.710	2.450	191.82	-2.00	2.90	 	 	 	 	 	 	 	 	 	 	 	 	 	 	 	 	 	 	1581480131	10.62	19.67
12/02/2020 04:02:12	120220	12022020	040212	191.81	13.433435	-56.985492	191.99	0.350	-1.730	2.610	191.81	-3.00	3.10	 	 	 	 	 	 	 	 	 	 	 	 	 	 	 	 	 	 	1581480132	11.47	21.24
12/02/2020 04:02:13	120220	12022020	040213	191.77	13.433383	-56.985507	191.98	0.310	-1.900	2.890	191.77	-3.10	3.40	 	 	 	 	 	 	 	 	 	 	 	 	 	 	 	 	 	 	1581480133	12.11	22.43
12/02/2020 04:02:14	120220	12022020	040214	191.87	13.433338	-56.985523	192.06	-0.350	-0.920	2.880	191.87	-2.10	3.40	 	 	 	 	 	 	 	 	 	 	 	 	 	 	 	 	 	 	1581480134	11.57	21.43
12/02/2020 04:02:15	120220	12022020	040215	192.17	13.433293	-56.985538	192.37	-1.100	0.410	2.570	192.17	-0.80	3.00	 	 	 	 	 	 	 	 	 	 	 	 	 	 	 	 	 	 	1581480135	10.48	19.41
12/02/2020 04:02:16	120220	12022020	040216	192.57	13.433247	-56.985553	192.74	-1.190	0.930	2.010	192.57	-0.30	2.50	 	 	 	 	 	 	 	 	 	 	 	 	 	 	 	 	 	 	1581480136	10.00	18.52
12/02/2020 04:02:17	120220	12022020	040217	192.84	13.433192	-56.985563	192.99	-0.320	0.370	1.220	192.84	-0.90	1.70	 	 	 	 	 	 	 	 	 	 	 	 	 	 	 	 	 	 	1581480137	10.69	19.80
12/02/2020 04:02:18	120220	12022020	040218	192.91	13.433135	-56.985572	193.05	0.890	-0.490	0.610	192.91	-1.80	1.10	 	 	 	 	 	 	 	 	 	 	 	 	 	 	 	 	 	 	1581480138	11.91	22.06
12/02/2020 04:02:19	120220	12022020	040219	192.76	13.433080	-56.985580	192.89	1.480	-0.780	0.590	192.76	-2.00	1.10	 	 	 	 	 	 	 	 	 	 	 	 	 	 	 	 	 	 	1581480139	12.46	23.08
12/02/2020 04:02:20	120220	12022020	040220	192.51	13.433030	-56.985588	192.64	1.030	-0.390	1.120	192.51	-1.60	1.60	 	 	 	 	 	 	 	 	 	 	 	 	 	 	 	 	 	 	1581480140	11.91	22.06
12/02/2020 04:02:21	120220	12022020	040221	192.19	13.432982	-56.985605	192.34	-0.030	0.200	1.940	192.19	-1.00	2.50	 	 	 	 	 	 	 	 	 	 	 	 	 	 	 	 	 	 	1581480141	10.98	20.33
12/02/2020 04:02:22	120220	12022020	040222	191.97	13.432935	-56.985623	192.11	-0.840	0.480	2.740	191.93	-0.80	3.20	 	 	 	 	 	 	 	 	 	 	 	 	 	 	 	 	 	 	1581480142	10.60	19.63
12/02/2020 04:02:23	120220	12022020	040223	191.92	13.432887	-56.985643	192.11	-0.940	0.350	2.960	191.92	-0.90	3.40	 	 	 	 	 	 	 	 	 	 	 	 	 	 	 	 	 	 	1581480143	10.92	20.22
12/02/2020 04:02:24	120220	12022020	040224	191.95	13.432837	-56.985660	192.13	-0.500	-0.080	2.670	191.95	-1.40	3.10	 	 	 	 	 	 	 	 	 	 	 	 	 	 	 	 	 	 	1581480144	11.22	20.78
12/02/2020 04:02:25	120220	12022020	040225	191.89	13.432785	-56.985675	192.06	-0.030	-0.630	2.320	191.89	-1.90	2.80	 	 	 	 	 	 	 	 	 	 	 	 	 	 	 	 	 	 	1581480145	11.32	20.96
12/02/2020 04:02:26	120220	12022020	040226	191.70	13.432735	-56.985688	191.87	0.180	-1.110	2.130	191.70	-2.40	2.60	 	 	 	 	 	 	 	 	 	 	 	 	 	 	 	 	 	 	1581480146	11.35	21.02
12/02/2020 04:02:27	120220	12022020	040227	191.54	13.432685	-56.985702	191.71	0.200	-1.260	1.880	191.54	-2.50	2.40	 	 	 	 	 	 	 	 	 	 	 	 	 	 	 	 	 	 	1581480147	11.33	20.98
12/02/2020 04:02:28	120220	12022020	040228	191.53	13.432635	-56.985713	191.68	0.230	-1.130	1.650	191.53	-2.40	2.20	 	 	 	 	 	 	 	 	 	 	 	 	 	 	 	 	 	 	1581480148	11.18	20.71
12/02/2020 04:02:29	120220	12022020	040229	191.53	13.432583	-56.985725	191.69	0.410	-0.960	1.590	191.53	-2.20	2.10	 	 	 	 	 	 	 	 	 	 	 	 	 	 	 	 	 	 	1581480149	11.05	20.46
12/02/2020 04:02:30	120220	12022020	040230	191.50	13.432532	-56.985737	191.68	0.580	-0.610	1.690	191.50	-1.90	2.20	 	 	 	 	 	 	 	 	 	 	 	 	 	 	 	 	 	 	1581480150	11.27	20.87
12/02/2020 04:02:31	120220	12022020	040231	191.41	13.432480	-56.985747	191.58	0.430	0.000	1.970	191.41	-1.20	2.50	 	 	 	 	 	 	 	 	 	 	 	 	 	 	 	 	 	 	1581480151	11.36	21.04
12/02/2020 04:02:32	120220	12022020	040232	191.34	13.432430	-56.985758	191.52	-0.120	0.590	2.380	191.34	-0.70	2.90	 	 	 	 	 	 	 	 	 	 	 	 	 	 	 	 	 	 	1581480152	11.15	20.65
12/02/2020 04:02:33	120220	12022020	040233	191.42	13.432380	-56.985772	191.61	-0.720	0.880	2.700	191.42	-0.40	3.20	 	 	 	 	 	 	 	 	 	 	 	 	 	 	 	 	 	 	1581480153	11.04	20.45
12/02/2020 04:02:34	120220	12022020	040234	191.59	13.432330	-56.985787	191.84	-0.960	0.850	2.780	191.64	-0.40	3.30	 	 	 	 	 	 	 	 	 	 	 	 	 	 	 	 	 	 	1581480154	11.18	20.71
12/02/2020 04:02:35	120220	12022020	040235	191.82	13.432278	-56.985802	192.02	-0.650	0.260	2.710	191.82	-1.10	3.20	 	 	 	 	 	 	 	 	 	 	 	 	 	 	 	 	 	 	1581480155	11.25	20.84
12/02/2020 04:02:36	120220	12022020	040236	191.92	13.432225	-56.985817	192.12	0.000	-0.640	2.540	191.93	-1.90	3.00	 	 	 	 	 	 	 	 	 	 	 	 	 	 	 	 	 	 	1581480156	11.61	21.50
12/02/2020 04:02:37	120220	12022020	040237	191.86	13.432173	-56.985830	192.04	0.560	-1.180	2.400	191.86	-2.50	2.90	 	 	 	 	 	 	 	 	 	 	 	 	 	 	 	 	 	 	1581480157	11.90	22.04
12/02/2020 04:02:38	120220	12022020	040238	191.71	13.432123	-56.985842	191.89	0.730	-1.130	2.110	191.71	-2.40	2.60	 	 	 	 	 	 	 	 	 	 	 	 	 	 	 	 	 	 	1581480158	11.53	21.35
12/02/2020 04:02:39	120220	12022020	040239	191.65	13.432075	-56.985852	191.81	0.540	-0.700	1.760	191.65	-2.00	2.30	 	 	 	 	 	 	 	 	 	 	 	 	 	 	 	 	 	 	1581480159	10.92	20.22
12/02/2020 04:02:40	120220	12022020	040240	191.60	13.432028	-56.985863	191.76	0.210	-0.350	1.700	191.60	-1.60	2.20	 	 	 	 	 	 	 	 	 	 	 	 	 	 	 	 	 	 	1581480160	10.51	19.46
12/02/2020 04:02:41	120220	12022020	040241	191.55	13.431978	-56.985877	191.71	0.000	-0.330	1.780	191.55	-1.60	2.30	 	 	 	 	 	 	 	 	 	 	 	 	 	 	 	 	 	 	1581480161	10.60	19.63
12/02/2020 04:02:42	120220	12022020	040242	191.43	13.431925	-56.985890	191.59	-0.030	-0.540	1.990	191.43	-1.80	2.50	 	 	 	 	 	 	 	 	 	 	 	 	 	 	 	 	 	 	1581480162	11.10	20.56
12/02/2020 04:02:43	120220	12022020	040243	191.22	13.431873	-56.985905	191.38	0.040	-0.750	2.340	191.22	-2.00	2.90	 	 	 	 	 	 	 	 	 	 	 	 	 	 	 	 	 	 	1581480163	11.52	21.34
12/02/2020 04:02:44	120220	12022020	040244	191.19	13.431822	-56.985918	191.38	-0.010	-0.540	2.500	191.19	-1.80	3.00	 	 	 	 	 	 	 	 	 	 	 	 	 	 	 	 	 	 	1581480164	11.79	21.84
12/02/2020 04:02:45	120220	12022020	040245	191.46	13.431772	-56.985930	191.67	-0.280	0.100	2.490	191.46	-1.20	3.00	 	 	 	 	 	 	 	 	 	 	 	 	 	 	 	 	 	 	1581480165	11.51	21.32
12/02/2020 04:02:46	120220	12022020	040246	191.85	13.431723	-56.985943	192.17	-0.580	0.790	2.320	191.95	-0.50	2.80	 	 	 	 	 	 	 	 	 	 	 	 	 	 	 	 	 	 	1581480166	10.96	20.30
12/02/2020 04:02:47	120220	12022020	040247	192.48	13.431675	-56.985957	192.67	-0.610	1.020	1.980	192.48	-0.30	2.50	 	 	 	 	 	 	 	 	 	 	 	 	 	 	 	 	 	 	1581480167	10.64	19.71
12/02/2020 04:02:48	120220	12022020	040248	192.75	13.431623	-56.985968	192.93	-0.210	0.350	1.750	192.78	-1.00	2.30	 	 	 	 	 	 	 	 	 	 	 	 	 	 	 	 	 	 	1581480168	10.79	19.98
12/02/2020 04:02:49	120220	12022020	040249	192.71	13.431568	-56.985982	192.85	0.370	-0.820	1.860	192.71	-2.10	2.40	 	 	 	 	 	 	 	 	 	 	 	 	 	 	 	 	 	 	1581480169	11.54	21.37
12/02/2020 04:02:50	120220	12022020	040250	192.58	13.431515	-56.985995	192.72	0.640	-1.400	2.060	192.58	-2.70	2.60	 	 	 	 	 	 	 	 	 	 	 	 	 	 	 	 	 	 	1581480170	12.18	22.56
12/02/2020 04:02:51	120220	12022020	040251	192.43	13.431467	-56.986008	192.57	0.440	-1.090	2.190	192.43	-2.40	2.70	 	 	 	 	 	 	 	 	 	 	 	 	 	 	 	 	 	 	1581480171	11.71	21.69
12/02/2020 04:02:52	120220	12022020	040252	192.26	13.431420	-56.986020	192.40	0.090	-0.520	2.140	192.26	-1.80	2.60	 	 	 	 	 	 	 	 	 	 	 	 	 	 	 	 	 	 	1581480172	10.76	19.93
12/02/2020 04:02:53	120220	12022020	040253	192.05	13.431370	-56.986033	192.20	-0.020	-0.330	1.990	192.05	-1.60	2.50	 	 	 	 	 	 	 	 	 	 	 	 	 	 	 	 	 	 	1581480173	10.44	19.33
12/02/2020 04:02:54	120220	12022020	040254	191.78	13.431318	-56.986045	191.92	0.150	-0.540	1.870	191.78	-1.80	2.40	 	 	 	 	 	 	 	 	 	 	 	 	 	 	 	 	 	 	1581480174	10.91	20.21
12/02/2020 04:02:55	120220	12022020	040255	191.31	13.431265	-56.986058	191.44	0.240	-0.800	1.990	191.31	-2.10	2.50	 	 	 	 	 	 	 	 	 	 	 	 	 	 	 	 	 	 	1581480175	11.55	21.39
12/02/2020 04:02:56	120220	12022020	040256	190.84	13.431212	-56.986072	190.98	-0.060	-0.710	2.270	190.84	-2.00	2.80	 	 	 	 	 	 	 	 	 	 	 	 	 	 	 	 	 	 	1581480176	11.82	21.89
12/02/2020 04:02:57	120220	12022020	040257	190.67	13.431163	-56.986088	190.85	-0.600	-0.170	2.550	190.67	-1.40	3.00	 	 	 	 	 	 	 	 	 	 	 	 	 	 	 	 	 	 	1581480177	11.66	21.59
12/02/2020 04:02:58	120220	12022020	040258	190.86	13.431113	-56.986107	191.06	-0.880	0.360	2.580	190.86	-0.90	3.10	 	 	 	 	 	 	 	 	 	 	 	 	 	 	 	 	 	 	1581480178	11.20	20.74
12/02/2020 04:02:59	120220	12022020	040259	191.34	13.431063	-56.986120	191.54	-0.570	0.500	2.160	191.34	-0.80	2.60	 	 	 	 	 	 	 	 	 	 	 	 	 	 	 	 	 	 	1581480179	11.11	20.58
12/02/2020 04:03:00	120220	12022020	040300	191.94	13.431010	-56.986132	192.16	0.110	0.470	1.580	191.94	-0.80	2.10	 	 	 	 	 	 	 	 	 	 	 	 	 	 	 	 	 	 	1581480180	11.39	21.09
12/02/2020 04:03:01	120220	12022020	040301	192.65	13.430960	-56.986140	192.87	0.610	0.490	0.950	192.65	-0.80	1.40	1017.00	26.00	26.00	21.30	21.30	-1.0	75.0	75.0	413.0	25.7	280.00	9.70	79.00	10.40	16	9417.0	27.2	27.2	1581480181	11.44	21.19
12/02/2020 04:03:02	120220	12022020	040302	193.40	13.430910	-56.986148	193.61	0.600	0.380	0.520	193.40	-0.90	1.00	 	 	 	 	 	 	 	 	 	 	 	 	 	 	 	 	 	 	1581480182	11.09	20.54
12/02/2020 04:03:03	120220	12022020	040303	193.77	13.430860	-56.986160	193.95	0.270	-0.260	0.890	193.77	-1.60	1.40	 	 	 	 	 	 	 	 	 	 	 	 	 	 	 	 	 	 	1581480183	10.80	20.00
12/02/2020 04:03:04	120220	12022020	040304	193.45	13.430808	-56.986177	193.62	0.050	-1.380	1.940	193.45	-2.70	2.50	 	 	 	 	 	 	 	 	 	 	 	 	 	 	 	 	 	 	1581480184	11.03	20.43
12/02/2020 04:03:05	120220	12022020	040305	192.68	13.430757	-56.986197	192.85	0.030	-2.140	2.970	192.68	-3.40	3.50	 	 	 	 	 	 	 	 	 	 	 	 	 	 	 	 	 	 	1581480185	11.76	21.78
12/02/2020 04:03:06	120220	12022020	040306	191.83	13.430707	-56.986215	192.01	0.070	-1.820	3.480	191.83	-3.10	4.00	 	 	 	 	 	 	 	 	 	 	 	 	 	 	 	 	 	 	1581480186	11.94	22.11
12/02/2020 04:03:07	120220	12022020	040307	191.23	13.430660	-56.986228	191.44	0.050	-0.730	3.180	191.23	-2.00	3.60	 	 	 	 	 	 	 	 	 	 	 	 	 	 	 	 	 	 	1581480187	11.21	20.76
12/02/2020 04:03:08	120220	12022020	040308	191.07	13.430612	-56.986238	191.28	-0.020	0.220	2.380	191.07	-1.00	2.80	 	 	 	 	 	 	 	 	 	 	 	 	 	 	 	 	 	 	1581480188	10.47	19.39
12/02/2020 04:03:09	120220	12022020	040309	191.19	13.430560	-56.986248	191.40	-0.030	0.440	1.650	191.19	-0.80	2.10	 	 	 	 	 	 	 	 	 	 	 	 	 	 	 	 	 	 	1581480189	10.56	19.56
12/02/2020 04:03:10	120220	12022020	040310	191.42	13.430507	-56.986258	191.62	0.020	0.160	1.320	191.42	-1.10	1.80	 	 	 	 	 	 	 	 	 	 	 	 	 	 	 	 	 	 	1581480190	11.27	20.87
12/02/2020 04:03:11	120220	12022020	040311	191.59	13.430453	-56.986270	191.79	0.060	-0.260	1.410	191.59	-1.50	1.90	 	 	 	 	 	 	 	 	 	 	 	 	 	 	 	 	 	 	1581480191	11.77	21.80
12/02/2020 04:03:12	120220	12022020	040312	191.70	13.430400	-56.986285	191.94	-0.010	-0.420	1.760	191.74	-1.70	2.30	 	 	 	 	 	 	 	 	 	 	 	 	 	 	 	 	 	 	1581480192	11.89	22.02
12/02/2020 04:03:13	120220	12022020	040313	191.97	13.430352	-56.986300	192.17	-0.210	-0.160	2.160	191.97	-1.40	2.70	 	 	 	 	 	 	 	 	 	 	 	 	 	 	 	 	 	 	1581480193	11.63	21.54
12/02/2020 04:03:14	120220	12022020	040314	192.22	13.430303	-56.986315	192.42	-0.430	0.190	2.320	192.22	-1.10	2.80	 	 	 	 	 	 	 	 	 	 	 	 	 	 	 	 	 	 	1581480194	11.11	20.58
12/02/2020 04:03:15	120220	12022020	040315	192.57	13.430253	-56.986330	192.76	-0.570	0.310	2.160	192.57	-1.00	2.60	 	 	 	 	 	 	 	 	 	 	 	 	 	 	 	 	 	 	1581480195	10.85	20.09
12/02/2020 04:03:16	120220	12022020	040316	193.01	13.430203	-56.986343	193.21	-0.500	0.090	1.830	193.01	-1.20	2.30	 	 	 	 	 	 	 	 	 	 	 	 	 	 	 	 	 	 	1581480196	10.95	20.28
12/02/2020 04:03:17	120220	12022020	040317	193.35	13.430153	-56.986357	193.52	-0.150	-0.310	1.320	193.35	-1.60	1.80	 	 	 	 	 	 	 	 	 	 	 	 	 	 	 	 	 	 	1581480197	11.16	20.67
12/02/2020 04:03:18	120220	12022020	040318	193.42	13.430102	-56.986367	193.57	0.310	-0.740	0.920	193.42	-2.00	1.40	 	 	 	 	 	 	 	 	 	 	 	 	 	 	 	 	 	 	1581480198	11.29	20.91
12/02/2020 04:03:19	120220	12022020	040319	193.33	13.430050	-56.986378	193.46	0.620	-0.980	0.890	193.33	-2.30	1.40	 	 	 	 	 	 	 	 	 	 	 	 	 	 	 	 	 	 	1581480199	11.38	21.08
12/02/2020 04:03:20	120220	12022020	040320	193.04	13.430000	-56.986388	193.16	0.710	-0.960	1.110	193.04	-2.20	1.60	 	 	 	 	 	 	 	 	 	 	 	 	 	 	 	 	 	 	1581480200	11.24	20.82
12/02/2020 04:03:21	120220	12022020	040321	192.51	13.429948	-56.986400	192.63	0.620	-0.870	1.390	192.51	-2.10	1.90	 	 	 	 	 	 	 	 	 	 	 	 	 	 	 	 	 	 	1581480201	11.09	20.54
12/02/2020 04:03:22	120220	12022020	040322	192.12	13.429897	-56.986412	192.16	0.390	-0.710	1.680	192.04	-2.00	2.20	 	 	 	 	 	 	 	 	 	 	 	 	 	 	 	 	 	 	1581480202	11.23	20.80
12/02/2020 04:03:23	120220	12022020	040323	191.84	13.429847	-56.986427	191.98	0.020	-0.230	1.920	191.84	-1.50	2.40	 	 	 	 	 	 	 	 	 	 	 	 	 	 	 	 	 	 	1581480203	11.42	21.15
12/02/2020 04:03:24	120220	12022020	040324	191.92	13.429798	-56.986442	192.15	-0.460	0.500	1.960	191.97	-0.70	2.50	 	 	 	 	 	 	 	 	 	 	 	 	 	 	 	 	 	 	1581480204	11.22	20.78
12/02/2020 04:03:25	120220	12022020	040325	192.34	13.429750	-56.986457	192.54	-0.890	0.880	1.920	192.34	-0.40	2.40	 	 	 	 	 	 	 	 	 	 	 	 	 	 	 	 	 	 	1581480205	10.80	20.00
12/02/2020 04:03:26	120220	12022020	040326	192.68	13.429700	-56.986475	192.87	-1.010	0.500	1.970	192.68	-0.80	2.50	 	 	 	 	 	 	 	 	 	 	 	 	 	 	 	 	 	 	1581480206	10.85	20.09
12/02/2020 04:03:27	120220	12022020	040327	192.86	13.429648	-56.986495	193.02	-0.710	-0.300	2.140	192.86	-1.60	2.60	 	 	 	 	 	 	 	 	 	 	 	 	 	 	 	 	 	 	1581480207	11.49	21.28
12/02/2020 04:03:28	120220	12022020	040328	192.74	13.429595	-56.986512	192.89	-0.090	-0.990	2.320	192.74	-2.30	2.80	 	 	 	 	 	 	 	 	 	 	 	 	 	 	 	 	 	 	1581480208	11.93	22.09
12/02/2020 04:03:29	120220	12022020	040329	192.50	13.429543	-56.986527	192.65	0.600	-1.110	2.040	192.50	-2.40	2.50	 	 	 	 	 	 	 	 	 	 	 	 	 	 	 	 	 	 	1581480209	11.89	22.02
12/02/2020 04:03:30	120220	12022020	040330	192.56	13.429493	-56.986533	192.71	1.060	-0.570	1.270	192.56	-1.80	1.70	 	 	 	 	 	 	 	 	 	 	 	 	 	 	 	 	 	 	1581480210	11.48	21.26
12/02/2020 04:03:31	120220	12022020	040331	192.79	13.429443	-56.986537	192.92	1.130	-0.060	0.590	192.79	-1.30	1.10	 	 	 	 	 	 	 	 	 	 	 	 	 	 	 	 	 	 	1581480211	10.82	20.04
12/02/2020 04:03:32	120220	12022020	040332	193.07	13.429392	-56.986545	193.19	0.750	-0.040	0.590	193.07	-1.30	1.10	 	 	 	 	 	 	 	 	 	 	 	 	 	 	 	 	 	 	1581480212	10.81	20.02
12/02/2020 04:03:33	120220	12022020	040333	193.13	13.429342	-56.986558	193.25	0.010	-0.340	1.520	193.13	-1.60	2.10	 	 	 	 	 	 	 	 	 	 	 	 	 	 	 	 	 	 	1581480213	11.18	20.71
12/02/2020 04:03:34	120220	12022020	040334	192.77	13.429290	-56.986580	192.90	-0.730	-0.820	2.670	192.77	-2.10	3.20	 	 	 	 	 	 	 	 	 	 	 	 	 	 	 	 	 	 	1581480214	11.44	21.19
12/02/2020 04:03:35	120220	12022020	040335	192.20	13.429238	-56.986602	192.35	-1.160	-1.110	3.540	192.20	-2.40	4.10	 	 	 	 	 	 	 	 	 	 	 	 	 	 	 	 	 	 	1581480215	11.85	21.95
12/02/2020 04:03:36	120220	12022020	040336	191.76	13.429188	-56.986625	191.86	-1.120	-0.990	3.830	191.69	-2.20	4.30	 	 	 	 	 	 	 	 	 	 	 	 	 	 	 	 	 	 	1581480216	11.98	22.19
12/02/2020 04:03:37	120220	12022020	040337	191.56	13.429140	-56.986640	191.75	-0.660	-0.300	3.240	191.56	-1.50	3.70	 	 	 	 	 	 	 	 	 	 	 	 	 	 	 	 	 	 	1581480217	11.78	21.82
12/02/2020 04:03:38	120220	12022020	040338	191.80	13.429092	-56.986650	192.06	-0.070	0.550	2.070	191.87	-0.70	2.50	 	 	 	 	 	 	 	 	 	 	 	 	 	 	 	 	 	 	1581480218	11.07	20.50
12/02/2020 04:03:39	120220	12022020	040339	192.22	13.429040	-56.986657	192.40	0.480	0.790	1.130	192.22	-0.50	1.60	 	 	 	 	 	 	 	 	 	 	 	 	 	 	 	 	 	 	1581480219	10.57	19.58
12/02/2020 04:03:40	120220	12022020	040340	192.44	13.428987	-56.986665	192.60	0.840	0.350	0.770	192.44	-1.00	1.30	 	 	 	 	 	 	 	 	 	 	 	 	 	 	 	 	 	 	1581480220	10.96	20.30
12/02/2020 04:03:41	120220	12022020	040341	192.56	13.428933	-56.986675	192.73	0.890	-0.310	1.080	192.56	-1.60	1.60	 	 	 	 	 	 	 	 	 	 	 	 	 	 	 	 	 	 	1581480221	11.55	21.39
12/02/2020 04:03:42	120220	12022020	040342	192.59	13.428882	-56.986690	192.76	0.620	-0.890	1.860	192.59	-2.20	2.40	 	 	 	 	 	 	 	 	 	 	 	 	 	 	 	 	 	 	1581480222	11.67	21.61
12/02/2020 04:03:43	120220	12022020	040343	192.32	13.428832	-56.986707	192.48	0.270	-1.260	2.740	192.32	-2.50	3.30	 	 	 	 	 	 	 	 	 	 	 	 	 	 	 	 	 	 	1581480223	11.56	21.41
12/02/2020 04:03:44	120220	12022020	040344	192.04	13.428782	-56.986727	192.25	-0.030	-1.080	3.250	192.04	-2.30	3.70	 	 	 	 	 	 	 	 	 	 	 	 	 	 	 	 	 	 	1581480224	11.63	21.54
12/02/2020 04:03:45	120220	12022020	040345	192.28	13.428735	-56.986742	192.51	-0.310	-0.150	2.890	192.28	-1.40	3.40	 	 	 	 	 	 	 	 	 	 	 	 	 	 	 	 	 	 	1581480225	11.39	21.09
12/02/2020 04:03:46	120220	12022020	040346	192.87	13.428688	-56.986753	193.09	-0.540	0.710	2.280	192.87	-0.60	2.80	 	 	 	 	 	 	 	 	 	 	 	 	 	 	 	 	 	 	1581480226	10.51	19.46
12/02/2020 04:03:47	120220	12022020	040347	193.22	13.428638	-56.986767	193.41	-0.570	0.550	1.910	193.22	-0.80	2.40	 	 	 	 	 	 	 	 	 	 	 	 	 	 	 	 	 	 	1581480227	10.20	18.89
12/02/2020 04:03:48	120220	12022020	040348	193.18	13.428585	-56.986780	193.34	-0.270	-0.450	1.780	193.18	-1.80	2.30	 	 	 	 	 	 	 	 	 	 	 	 	 	 	 	 	 	 	1581480228	11.07	20.50
12/02/2020 04:03:49	120220	12022020	040349	193.04	13.428530	-56.986793	193.17	0.140	-1.170	1.620	193.04	-2.50	2.10	 	 	 	 	 	 	 	 	 	 	 	 	 	 	 	 	 	 	1581480229	12.10	22.41
12/02/2020 04:03:50	120220	12022020	040350	192.97	13.428478	-56.986805	193.11	0.380	-1.010	1.350	192.97	-2.30	1.90	 	 	 	 	 	 	 	 	 	 	 	 	 	 	 	 	 	 	1581480230	12.06	22.34
12/02/2020 04:03:51	120220	12022020	040351	192.93	13.428430	-56.986813	193.06	0.390	-0.490	1.000	192.93	-1.80	1.50	 	 	 	 	 	 	 	 	 	 	 	 	 	 	 	 	 	 	1581480231	11.12	20.59
12/02/2020 04:03:52	120220	12022020	040352	192.89	13.428380	-56.986823	193.02	0.300	-0.250	0.900	192.89	-1.50	1.40	 	 	 	 	 	 	 	 	 	 	 	 	 	 	 	 	 	 	1581480232	10.71	19.83
12/02/2020 04:03:53	120220	12022020	040353	192.84	13.428328	-56.986837	192.99	0.160	-0.310	1.090	192.84	-1.60	1.60	 	 	 	 	 	 	 	 	 	 	 	 	 	 	 	 	 	 	1581480233	11.03	20.43
12/02/2020 04:03:54	120220	12022020	040354	192.83	13.428277	-56.986852	192.98	-0.050	-0.380	1.530	192.83	-1.70	2.00	 	 	 	 	 	 	 	 	 	 	 	 	 	 	 	 	 	 	1581480234	11.56	21.41
12/02/2020 04:03:55	120220	12022020	040355	192.69	13.428227	-56.986870	192.84	-0.320	-0.320	2.180	192.69	-1.60	2.70	 	 	 	 	 	 	 	 	 	 	 	 	 	 	 	 	 	 	1581480235	11.56	21.41
12/02/2020 04:03:56	120220	12022020	040356	192.47	13.428177	-56.986888	192.63	-0.560	-0.210	2.720	192.47	-1.50	3.20	 	 	 	 	 	 	 	 	 	 	 	 	 	 	 	 	 	 	1581480236	11.47	21.24
12/02/2020 04:03:57	120220	12022020	040357	192.33	13.428127	-56.986907	192.50	-0.670	-0.060	2.840	192.33	-1.30	3.30	 	 	 	 	 	 	 	 	 	 	 	 	 	 	 	 	 	 	1581480237	11.48	21.26
12/02/2020 04:03:58	120220	12022020	040358	192.34	13.428077	-56.986923	192.51	-0.490	0.190	2.490	192.34	-1.10	3.00	 	 	 	 	 	 	 	 	 	 	 	 	 	 	 	 	 	 	1581480238	11.44	21.19
12/02/2020 04:03:59	120220	12022020	040359	192.40	13.428025	-56.986935	192.54	0.010	0.250	1.820	192.40	-1.00	2.30	 	 	 	 	 	 	 	 	 	 	 	 	 	 	 	 	 	 	1581480239	11.18	20.71
12/02/2020 04:04:00	120220	12022020	040400	192.50	13.427972	-56.986943	192.70	0.560	-0.060	1.170	192.55	-1.40	1.70	 	 	 	 	 	 	 	 	 	 	 	 	 	 	 	 	 	 	1581480240	11.19	20.72
12/02/2020 04:04:01	120220	12022020	040401	192.94	13.427922	-56.986953	193.11	0.650	-0.260	0.940	192.94	-1.50	1.40	1017.00	25.90	26.00	21.20	21.20	-1.0	75.0	75.0	407.0	25.7	275.00	9.20	74.00	10.50	16	9195.0	27.2	27.2	1581480241	11.55	21.39
12/02/2020 04:04:02	120220	12022020	040402	193.24	13.427873	-56.986967	193.45	0.260	-0.230	1.160	193.28	-1.50	1.70	 	 	 	 	 	 	 	 	 	 	 	 	 	 	 	 	 	 	1581480242	11.27	20.87
12/02/2020 04:04:03	120220	12022020	040403	193.29	13.427825	-56.986982	193.43	-0.100	-0.360	1.530	193.29	-1.70	2.00	 	 	 	 	 	 	 	 	 	 	 	 	 	 	 	 	 	 	1581480243	10.75	19.91
12/02/2020 04:04:04	120220	12022020	040404	193.02	13.427773	-56.986997	193.14	0.010	-0.770	1.890	193.02	-2.10	2.40	 	 	 	 	 	 	 	 	 	 	 	 	 	 	 	 	 	 	1581480244	10.81	20.02
12/02/2020 04:04:05	120220	12022020	040405	192.83	13.427722	-56.987008	192.98	0.360	-1.100	1.880	192.83	-2.40	2.40	 	 	 	 	 	 	 	 	 	 	 	 	 	 	 	 	 	 	1581480245	11.30	20.93
12/02/2020 04:04:06	120220	12022020	040406	192.68	13.427670	-56.987020	192.81	0.510	-1.230	1.800	192.68	-2.50	2.30	 	 	 	 	 	 	 	 	 	 	 	 	 	 	 	 	 	 	1581480246	11.47	21.24
12/02/2020 04:04:07	120220	12022020	040407	192.38	13.427618	-56.987033	192.52	0.300	-1.230	2.080	192.38	-2.50	2.60	 	 	 	 	 	 	 	 	 	 	 	 	 	 	 	 	 	 	1581480247	11.43	21.17
12/02/2020 04:04:08	120220	12022020	040408	191.99	13.427567	-56.987053	192.15	-0.200	-0.930	2.780	191.99	-2.20	3.30	 	 	 	 	 	 	 	 	 	 	 	 	 	 	 	 	 	 	1581480248	11.57	21.43
12/02/2020 04:04:09	120220	12022020	040409	191.71	13.427518	-56.987073	191.92	-0.800	-0.190	3.550	191.71	-1.40	4.00	 	 	 	 	 	 	 	 	 	 	 	 	 	 	 	 	 	 	1581480249	11.61	21.50
12/02/2020 04:04:10	120220	12022020	040410	191.66	13.427472	-56.987095	191.87	-1.190	0.740	3.770	191.66	-0.50	4.20	 	 	 	 	 	 	 	 	 	 	 	 	 	 	 	 	 	 	1581480250	11.37	21.06
12/02/2020 04:04:11	120220	12022020	040411	191.82	13.427423	-56.987112	192.04	-1.030	1.340	3.390	191.82	0.10	3.80	 	 	 	 	 	 	 	 	 	 	 	 	 	 	 	 	 	 	1581480251	11.03	20.43
12/02/2020 04:04:12	120220	12022020	040412	192.21	13.427372	-56.987123	192.44	-0.330	1.240	2.580	192.21	-0.00	3.00	 	 	 	 	 	 	 	 	 	 	 	 	 	 	 	 	 	 	1581480252	10.97	20.32
12/02/2020 04:04:13	120220	12022020	040413	192.79	13.427318	-56.987132	193.01	0.560	0.540	1.570	192.79	-0.80	2.00	 	 	 	 	 	 	 	 	 	 	 	 	 	 	 	 	 	 	1581480253	11.31	20.95
12/02/2020 04:04:14	120220	12022020	040414	193.29	13.427263	-56.987138	193.59	1.150	-0.410	0.790	193.39	-1.70	1.30	 	 	 	 	 	 	 	 	 	 	 	 	 	 	 	 	 	 	1581480254	11.68	21.63
12/02/2020 04:04:15	120220	12022020	040415	193.73	13.427212	-56.987147	193.89	1.250	-1.220	0.680	193.73	-2.50	1.20	 	 	 	 	 	 	 	 	 	 	 	 	 	 	 	 	 	 	1581480255	11.76	21.78
12/02/2020 04:04:16	120220	12022020	040416	193.67	13.427162	-56.987158	193.81	0.900	-1.610	1.310	193.67	-2.90	1.80	 	 	 	 	 	 	 	 	 	 	 	 	 	 	 	 	 	 	1581480256	11.51	21.32
12/02/2020 04:04:17	120220	12022020	040417	193.15	13.427112	-56.987175	193.27	0.290	-1.650	2.450	193.15	-2.90	3.00	 	 	 	 	 	 	 	 	 	 	 	 	 	 	 	 	 	 	1581480257	11.09	20.54
12/02/2020 04:04:18	120220	12022020	040418	192.23	13.427063	-56.987193	192.37	-0.300	-1.440	3.580	192.23	-2.70	4.10	 	 	 	 	 	 	 	 	 	 	 	 	 	 	 	 	 	 	1581480258	11.02	20.41
12/02/2020 04:04:19	120220	12022020	040419	191.34	13.427015	-56.987213	191.52	-0.750	-0.900	4.150	191.34	-2.10	4.60	 	 	 	 	 	 	 	 	 	 	 	 	 	 	 	 	 	 	1581480259	11.27	20.87
12/02/2020 04:04:20	120220	12022020	040420	191.15	13.426967	-56.987232	191.39	-1.100	0.090	3.930	191.15	-1.10	4.40	 	 	 	 	 	 	 	 	 	 	 	 	 	 	 	 	 	 	1581480260	11.41	21.13
12/02/2020 04:04:21	120220	12022020	040421	191.69	13.426920	-56.987248	191.93	-1.230	0.890	3.090	191.69	-0.40	3.50	 	 	 	 	 	 	 	 	 	 	 	 	 	 	 	 	 	 	1581480261	10.93	20.24
12/02/2020 04:04:22	120220	12022020	040422	192.37	13.426868	-56.987263	192.57	-0.840	0.780	2.050	192.37	-0.50	2.50	 	 	 	 	 	 	 	 	 	 	 	 	 	 	 	 	 	 	1581480262	10.75	19.91
12/02/2020 04:04:23	120220	12022020	040423	192.78	13.426813	-56.987275	192.95	0.120	-0.060	1.200	192.78	-1.40	1.70	 	 	 	 	 	 	 	 	 	 	 	 	 	 	 	 	 	 	1581480263	11.38	21.08
12/02/2020 04:04:24	120220	12022020	040424	193.10	13.426758	-56.987285	193.26	1.000	-0.610	0.870	193.10	-1.90	1.40	 	 	 	 	 	 	 	 	 	 	 	 	 	 	 	 	 	 	1581480264	12.19	22.58
12/02/2020 04:04:25	120220	12022020	040425	193.22	13.426707	-56.987293	193.38	1.170	-0.560	1.080	193.22	-1.80	1.60	 	 	 	 	 	 	 	 	 	 	 	 	 	 	 	 	 	 	1581480265	11.92	22.08
12/02/2020 04:04:26	120220	12022020	040426	193.07	13.426658	-56.987305	193.19	0.710	-0.430	1.670	193.03	-1.70	2.20	 	 	 	 	 	 	 	 	 	 	 	 	 	 	 	 	 	 	1581480266	11.11	20.58
12/02/2020 04:04:27	120220	12022020	040427	192.83	13.426608	-56.987322	193.00	0.060	-0.330	2.290	192.83	-1.60	2.80	 	 	 	 	 	 	 	 	 	 	 	 	 	 	 	 	 	 	1581480267	10.99	20.35
12/02/2020 04:04:28	120220	12022020	040428	192.73	13.426560	-56.987338	192.92	-0.390	-0.070	2.820	192.73	-1.30	3.30	 	 	 	 	 	 	 	 	 	 	 	 	 	 	 	 	 	 	1581480268	11.19	20.72
12/02/2020 04:04:29	120220	12022020	040429	192.75	13.426512	-56.987355	192.95	-0.440	0.250	2.750	192.75	-1.00	3.20	 	 	 	 	 	 	 	 	 	 	 	 	 	 	 	 	 	 	1581480269	11.11	20.58
12/02/2020 04:04:30	120220	12022020	040430	192.75	13.426462	-56.987368	192.95	-0.190	0.200	2.300	192.75	-1.10	2.80	 	 	 	 	 	 	 	 	 	 	 	 	 	 	 	 	 	 	1581480270	10.91	20.21
12/02/2020 04:04:31	120220	12022020	040431	192.80	13.426410	-56.987383	193.01	0.050	-0.160	1.920	192.80	-1.50	2.40	 	 	 	 	 	 	 	 	 	 	 	 	 	 	 	 	 	 	1581480271	11.15	20.65
12/02/2020 04:04:32	120220	12022020	040432	192.93	13.426360	-56.987397	193.13	0.090	-0.440	1.600	192.93	-1.70	2.10	 	 	 	 	 	 	 	 	 	 	 	 	 	 	 	 	 	 	1581480272	11.38	21.08
12/02/2020 04:04:33	120220	12022020	040433	192.95	13.426312	-56.987410	193.14	0.010	-0.670	1.520	192.95	-2.00	2.00	 	 	 	 	 	 	 	 	 	 	 	 	 	 	 	 	 	 	1581480273	11.11	20.58
12/02/2020 04:04:34	120220	12022020	040434	192.79	13.426260	-56.987425	192.96	0.050	-1.030	1.670	192.79	-2.30	2.20	 	 	 	 	 	 	 	 	 	 	 	 	 	 	 	 	 	 	1581480274	10.94	20.26
12/02/2020 04:04:35	120220	12022020	040435	192.47	13.426208	-56.987438	192.63	0.280	-1.370	1.720	192.47	-2.70	2.20	 	 	 	 	 	 	 	 	 	 	 	 	 	 	 	 	 	 	1581480275	11.20	20.74
12/02/2020 04:04:36	120220	12022020	040436	192.17	13.426157	-56.987450	192.32	0.430	-1.320	1.620	192.17	-2.60	2.10	 	 	 	 	 	 	 	 	 	 	 	 	 	 	 	 	 	 	1581480276	11.53	21.35
12/02/2020 04:04:37	120220	12022020	040437	191.95	13.426105	-56.987462	192.10	0.280	-0.870	1.660	191.95	-2.10	2.20	 	 	 	 	 	 	 	 	 	 	 	 	 	 	 	 	 	 	1581480277	11.46	21.22
12/02/2020 04:04:38	120220	12022020	040438	191.87	13.426055	-56.987475	192.05	-0.160	-0.190	1.940	191.87	-1.40	2.40	 	 	 	 	 	 	 	 	 	 	 	 	 	 	 	 	 	 	1581480278	11.28	20.89
12/02/2020 04:04:39	120220	12022020	040439	191.95	13.426005	-56.987492	192.14	-0.580	0.490	2.230	191.95	-0.80	2.70	 	 	 	 	 	 	 	 	 	 	 	 	 	 	 	 	 	 	1581480279	11.19	20.72
12/02/2020 04:04:40	120220	12022020	040440	192.14	13.425955	-56.987507	192.43	-0.700	0.890	2.360	192.21	-0.40	2.80	 	 	 	 	 	 	 	 	 	 	 	 	 	 	 	 	 	 	1581480280	11.19	20.72
12/02/2020 04:04:41	120220	12022020	040441	192.77	13.425903	-56.987522	192.99	-0.580	0.830	2.230	192.77	-0.50	2.70	 	 	 	 	 	 	 	 	 	 	 	 	 	 	 	 	 	 	1581480281	11.33	20.98
12/02/2020 04:04:42	120220	12022020	040442	193.31	13.425852	-56.987537	193.50	-0.350	0.390	2.100	193.31	-0.90	2.60	 	 	 	 	 	 	 	 	 	 	 	 	 	 	 	 	 	 	1581480282	11.52	21.34
12/02/2020 04:04:43	120220	12022020	040443	193.39	13.425800	-56.987552	193.55	0.000	-0.310	2.110	193.39	-1.60	2.60	 	 	 	 	 	 	 	 	 	 	 	 	 	 	 	 	 	 	1581480283	11.59	21.46
12/02/2020 04:04:44	120220	12022020	040444	193.05	13.425748	-56.987567	193.19	0.400	-0.800	2.220	193.05	-2.10	2.70	 	 	 	 	 	 	 	 	 	 	 	 	 	 	 	 	 	 	1581480284	11.70	21.67
12/02/2020 04:04:45	120220	12022020	040445	192.62	13.425698	-56.987578	192.77	0.630	-0.650	2.240	192.62	-1.90	2.70	 	 	 	 	 	 	 	 	 	 	 	 	 	 	 	 	 	 	1581480285	11.53	21.35
12/02/2020 04:04:46	120220	12022020	040446	192.26	13.425652	-56.987590	192.40	0.630	-0.290	2.020	192.26	-1.50	2.50	 	 	 	 	 	 	 	 	 	 	 	 	 	 	 	 	 	 	1581480286	10.84	20.08
12/02/2020 04:04:47	120220	12022020	040447	192.03	13.425602	-56.987600	192.16	0.520	-0.260	1.730	192.03	-1.50	2.20	 	 	 	 	 	 	 	 	 	 	 	 	 	 	 	 	 	 	1581480287	10.52	19.48
12/02/2020 04:04:48	120220	12022020	040448	191.92	13.425550	-56.987613	192.07	0.360	-0.530	1.720	191.92	-1.80	2.20	 	 	 	 	 	 	 	 	 	 	 	 	 	 	 	 	 	 	1581480288	10.89	20.17
12/02/2020 04:04:49	120220	12022020	040449	192.08	13.425500	-56.987628	192.26	0.090	-0.590	1.810	192.08	-1.80	2.30	 	 	 	 	 	 	 	 	 	 	 	 	 	 	 	 	 	 	1581480289	11.36	21.04
12/02/2020 04:04:50	120220	12022020	040450	192.54	13.425452	-56.987643	192.73	-0.250	-0.300	1.810	192.54	-1.50	2.30	 	 	 	 	 	 	 	 	 	 	 	 	 	 	 	 	 	 	1581480290	11.27	20.87
12/02/2020 04:04:51	120220	12022020	040451	193.06	13.425403	-56.987658	193.24	-0.310	-0.160	1.590	193.06	-1.40	2.10	 	 	 	 	 	 	 	 	 	 	 	 	 	 	 	 	 	 	1581480291	10.83	20.06
12/02/2020 04:04:52	120220	12022020	040452	193.55	13.425352	-56.987670	193.72	0.120	-0.480	1.070	193.55	-1.80	1.50	 	 	 	 	 	 	 	 	 	 	 	 	 	 	 	 	 	 	1581480292	10.88	20.15
12/02/2020 04:04:53	120220	12022020	040453	194.04	13.425297	-56.987678	194.20	0.540	-0.940	0.780	194.04	-2.20	1.30	 	 	 	 	 	 	 	 	 	 	 	 	 	 	 	 	 	 	1581480293	11.49	21.28
12/02/2020 04:04:54	120220	12022020	040454	194.29	13.425243	-56.987690	194.47	0.340	-1.150	1.150	194.32	-2.40	1.70	 	 	 	 	 	 	 	 	 	 	 	 	 	 	 	 	 	 	1581480294	11.84	21.93
12/02/2020 04:04:55	120220	12022020	040455	194.08	13.425193	-56.987708	194.22	-0.420	-1.080	2.070	194.08	-2.30	2.60	 	 	 	 	 	 	 	 	 	 	 	 	 	 	 	 	 	 	1581480295	11.64	21.56
12/02/2020 04:04:56	120220	12022020	040456	193.33	13.425143	-56.987732	193.49	-1.120	-0.870	3.140	193.33	-2.10	3.60	 	 	 	 	 	 	 	 	 	 	 	 	 	 	 	 	 	 	1581480296	11.52	21.34
12/02/2020 04:04:57	120220	12022020	040457	192.39	13.425092	-56.987753	192.58	-1.200	-0.540	3.740	192.39	-1.80	4.20	 	 	 	 	 	 	 	 	 	 	 	 	 	 	 	 	 	 	1581480297	11.77	21.80
12/02/2020 04:04:58	120220	12022020	040458	191.76	13.425042	-56.987772	191.95	-0.760	0.150	3.510	191.76	-1.10	4.00	 	 	 	 	 	 	 	 	 	 	 	 	 	 	 	 	 	 	1581480298	11.98	22.19
12/02/2020 04:04:59	120220	12022020	040459	191.75	13.424992	-56.987785	191.97	-0.240	1.050	2.650	191.75	-0.20	3.10	 	 	 	 	 	 	 	 	 	 	 	 	 	 	 	 	 	 	1581480299	11.60	21.48
12/02/2020 04:05:00	120220	12022020	040500	192.23	13.424943	-56.987795	192.46	0.080	1.640	1.680	192.23	0.40	2.10	 	 	 	 	 	 	 	 	 	 	 	 	 	 	 	 	 	 	1581480300	10.95	20.28
12/02/2020 04:05:01	120220	12022020	040501	192.73	13.424893	-56.987805	192.94	0.370	1.390	1.150	192.73	0.10	1.60	1016.90	25.90	26.00	21.00	21.10	-1.0	74.0	74.0	402.0	25.7	271.00	9.00	71.00	10.60	16	8454.0	27.2	27.2	1581480301	10.62	19.67
12/02/2020 04:05:02	120220	12022020	040502	192.91	13.424842	-56.987817	193.09	0.840	0.230	1.130	192.91	-1.10	1.60	 	 	 	 	 	 	 	 	 	 	 	 	 	 	 	 	 	 	1581480302	10.91	20.21
12/02/2020 04:05:03	120220	12022020	040503	192.76	13.424787	-56.987828	192.92	1.290	-1.160	1.540	192.76	-2.50	2.10	 	 	 	 	 	 	 	 	 	 	 	 	 	 	 	 	 	 	1581480303	11.60	21.48
12/02/2020 04:05:04	120220	12022020	040504	192.48	13.424735	-56.987843	192.59	1.300	-1.900	2.170	192.42	-3.20	2.70	 	 	 	 	 	 	 	 	 	 	 	 	 	 	 	 	 	 	1581480304	11.92	22.08
12/02/2020 04:05:05	120220	12022020	040505	192.31	13.424688	-56.987857	192.52	0.730	-1.550	2.410	192.31	-2.80	2.90	 	 	 	 	 	 	 	 	 	 	 	 	 	 	 	 	 	 	1581480305	11.49	21.28
12/02/2020 04:05:06	120220	12022020	040506	192.49	13.424643	-56.987870	192.76	-0.190	-0.730	2.290	192.56	-2.00	2.80	 	 	 	 	 	 	 	 	 	 	 	 	 	 	 	 	 	 	1581480306	10.53	19.50
12/02/2020 04:05:07	120220	12022020	040507	192.94	13.424597	-56.987887	193.17	-0.930	-0.420	2.310	192.94	-1.70	2.80	 	 	 	 	 	 	 	 	 	 	 	 	 	 	 	 	 	 	1581480307	10.02	18.56
12/02/2020 04:05:08	120220	12022020	040508	193.23	13.424545	-56.987907	193.45	-1.110	-0.780	2.550	193.23	-2.10	3.00	 	 	 	 	 	 	 	 	 	 	 	 	 	 	 	 	 	 	1581480308	10.73	19.87
12/02/2020 04:05:09	120220	12022020	040509	193.11	13.424492	-56.987927	193.29	-0.750	-1.250	2.870	193.11	-2.50	3.40	 	 	 	 	 	 	 	 	 	 	 	 	 	 	 	 	 	 	1581480309	11.75	21.76
12/02/2020 04:05:10	120220	12022020	040510	192.67	13.424438	-56.987945	192.85	-0.200	-1.190	2.920	192.67	-2.40	3.40	 	 	 	 	 	 	 	 	 	 	 	 	 	 	 	 	 	 	1581480310	12.25	22.69
12/02/2020 04:05:11	120220	12022020	040511	192.42	13.424388	-56.987957	192.60	0.140	-0.250	2.420	192.42	-1.50	2.90	 	 	 	 	 	 	 	 	 	 	 	 	 	 	 	 	 	 	1581480311	12.04	22.30
12/02/2020 04:05:12	120220	12022020	040512	192.45	13.424340	-56.987963	192.65	0.190	0.940	1.720	192.45	-0.30	2.20	 	 	 	 	 	 	 	 	 	 	 	 	 	 	 	 	 	 	1581480312	11.13	20.61
12/02/2020 04:05:13	120220	12022020	040513	192.55	13.424288	-56.987970	192.74	0.180	1.290	1.270	192.55	-0.00	1.80	 	 	 	 	 	 	 	 	 	 	 	 	 	 	 	 	 	 	1581480313	10.59	19.61
12/02/2020 04:05:14	120220	12022020	040514	192.53	13.424233	-56.987982	192.66	0.260	0.440	1.500	192.49	-0.90	2.00	 	 	 	 	 	 	 	 	 	 	 	 	 	 	 	 	 	 	1581480314	11.15	20.65
12/02/2020 04:05:15	120220	12022020	040515	192.22	13.424177	-56.987997	192.41	0.310	-0.620	2.280	192.22	-1.90	2.80	 	 	 	 	 	 	 	 	 	 	 	 	 	 	 	 	 	 	1581480315	12.24	22.67
12/02/2020 04:05:16	120220	12022020	040516	192.11	13.424125	-56.988015	192.35	0.140	-0.670	2.930	192.12	-1.90	3.40	 	 	 	 	 	 	 	 	 	 	 	 	 	 	 	 	 	 	1581480316	12.58	23.30
12/02/2020 04:05:17	120220	12022020	040517	192.41	13.424080	-56.988030	192.66	-0.270	0.070	3.010	192.41	-1.20	3.50	 	 	 	 	 	 	 	 	 	 	 	 	 	 	 	 	 	 	1581480317	11.48	21.26
12/02/2020 04:05:18	120220	12022020	040518	192.68	13.424035	-56.988045	192.88	-0.590	0.330	2.800	192.68	-1.00	3.30	 	 	 	 	 	 	 	 	 	 	 	 	 	 	 	 	 	 	1581480318	10.20	18.89
12/02/2020 04:05:19	120220	12022020	040519	192.55	13.423983	-56.988062	192.74	-0.420	-0.530	2.640	192.55	-1.80	3.10	 	 	 	 	 	 	 	 	 	 	 	 	 	 	 	 	 	 	1581480319	10.36	19.19
12/02/2020 04:05:20	120220	12022020	040520	192.17	13.423928	-56.988078	192.36	0.160	-1.560	2.560	192.17	-2.90	3.00	 	 	 	 	 	 	 	 	 	 	 	 	 	 	 	 	 	 	1581480320	11.66	21.59
12/02/2020 04:05:21	120220	12022020	040521	191.80	13.423877	-56.988090	192.00	0.650	-1.670	2.360	191.80	-2.90	2.80	 	 	 	 	 	 	 	 	 	 	 	 	 	 	 	 	 	 	1581480321	12.25	22.69
12/02/2020 04:05:22	120220	12022020	040522	191.65	13.423828	-56.988100	191.84	0.640	-0.750	1.990	191.65	-2.00	2.50	 	 	 	 	 	 	 	 	 	 	 	 	 	 	 	 	 	 	1581480322	11.59	21.46
12/02/2020 04:05:23	120220	12022020	040523	191.73	13.423780	-56.988110	191.93	0.200	0.300	1.660	191.73	-0.90	2.10	 	 	 	 	 	 	 	 	 	 	 	 	 	 	 	 	 	 	1581480323	10.57	19.58
12/02/2020 04:05:24	120220	12022020	040524	192.07	13.423732	-56.988122	192.28	-0.270	0.740	1.400	192.07	-0.50	1.90	 	 	 	 	 	 	 	 	 	 	 	 	 	 	 	 	 	 	1581480324	10.31	19.09
12/02/2020 04:05:25	120220	12022020	040525	192.58	13.423680	-56.988135	192.79	-0.400	0.520	1.290	192.58	-0.80	1.80	 	 	 	 	 	 	 	 	 	 	 	 	 	 	 	 	 	 	1581480325	10.81	20.02
12/02/2020 04:05:26	120220	12022020	040526	193.02	13.423627	-56.988148	193.21	-0.120	-0.180	1.410	193.02	-1.50	1.90	 	 	 	 	 	 	 	 	 	 	 	 	 	 	 	 	 	 	1581480326	11.40	21.11
12/02/2020 04:05:27	120220	12022020	040527	193.23	13.423573	-56.988163	193.40	0.280	-0.860	1.670	193.23	-2.20	2.20	 	 	 	 	 	 	 	 	 	 	 	 	 	 	 	 	 	 	1581480327	11.87	21.98
12/02/2020 04:05:28	120220	12022020	040528	193.38	13.423522	-56.988178	193.54	0.420	-0.970	1.880	193.38	-2.20	2.40	 	 	 	 	 	 	 	 	 	 	 	 	 	 	 	 	 	 	1581480328	12.00	22.22
12/02/2020 04:05:29	120220	12022020	040529	193.54	13.423473	-56.988190	193.69	0.220	-0.550	1.960	193.54	-1.80	2.40	 	 	 	 	 	 	 	 	 	 	 	 	 	 	 	 	 	 	1581480329	11.47	21.24
12/02/2020 04:05:30	120220	12022020	040530	193.47	13.423423	-56.988202	193.59	-0.000	-0.220	1.820	193.47	-1.50	2.30	 	 	 	 	 	 	 	 	 	 	 	 	 	 	 	 	 	 	1581480330	10.82	20.04
12/02/2020 04:05:31	120220	12022020	040531	193.11	13.423372	-56.988213	193.24	-0.040	-0.280	1.690	193.11	-1.60	2.20	 	 	 	 	 	 	 	 	 	 	 	 	 	 	 	 	 	 	1581480331	10.86	20.11
12/02/2020 04:05:32	120220	12022020	040532	192.79	13.423318	-56.988227	192.92	-0.070	-0.410	1.730	192.79	-1.70	2.20	 	 	 	 	 	 	 	 	 	 	 	 	 	 	 	 	 	 	1581480332	11.44	21.19
12/02/2020 04:05:33	120220	12022020	040533	192.55	13.423267	-56.988242	192.69	-0.260	-0.410	1.970	192.55	-1.70	2.50	 	 	 	 	 	 	 	 	 	 	 	 	 	 	 	 	 	 	1581480333	11.63	21.54
12/02/2020 04:05:34	120220	12022020	040534	192.30	13.423217	-56.988258	192.45	-0.530	-0.360	2.330	192.30	-1.60	2.80	 	 	 	 	 	 	 	 	 	 	 	 	 	 	 	 	 	 	1581480334	11.51	21.32
12/02/2020 04:05:35	120220	12022020	040535	192.10	13.423167	-56.988277	192.27	-0.630	-0.270	2.640	192.10	-1.50	3.10	 	 	 	 	 	 	 	 	 	 	 	 	 	 	 	 	 	 	1581480335	11.46	21.22
12/02/2020 04:05:36	120220	12022020	040536	192.16	13.423117	-56.988293	192.34	-0.420	-0.050	2.560	192.16	-1.30	3.00	 	 	 	 	 	 	 	 	 	 	 	 	 	 	 	 	 	 	1581480336	11.49	21.28
12/02/2020 04:05:37	120220	12022020	040537	192.48	13.423067	-56.988307	192.65	-0.030	0.120	2.010	192.48	-1.20	2.50	 	 	 	 	 	 	 	 	 	 	 	 	 	 	 	 	 	 	1581480337	11.28	20.89
12/02/2020 04:05:38	120220	12022020	040538	192.90	13.423015	-56.988318	193.07	0.310	0.020	1.410	192.90	-1.30	1.90	 	 	 	 	 	 	 	 	 	 	 	 	 	 	 	 	 	 	1581480338	11.15	20.65
12/02/2020 04:05:39	120220	12022020	040539	193.32	13.422963	-56.988328	193.63	0.480	-0.160	0.810	193.45	-1.40	1.30	 	 	 	 	 	 	 	 	 	 	 	 	 	 	 	 	 	 	1581480339	11.29	20.91
12/02/2020 04:05:40	120220	12022020	040540	194.09	13.422913	-56.988338	194.27	0.460	-0.150	0.350	194.09	-1.40	0.80	 	 	 	 	 	 	 	 	 	 	 	 	 	 	 	 	 	 	1581480340	11.31	20.95
12/02/2020 04:05:41	120220	12022020	040541	194.53	13.422863	-56.988348	194.69	0.360	-0.310	0.470	194.53	-1.60	1.00	 	 	 	 	 	 	 	 	 	 	 	 	 	 	 	 	 	 	1581480341	10.97	20.32
12/02/2020 04:05:42	120220	12022020	040542	194.50	13.422812	-56.988363	194.59	0.290	-0.850	1.150	194.45	-2.10	1.70	 	 	 	 	 	 	 	 	 	 	 	 	 	 	 	 	 	 	1581480342	10.98	20.33
12/02/2020 04:05:43	120220	12022020	040543	194.12	13.422760	-56.988380	194.29	0.170	-1.190	1.900	194.12	-2.50	2.40	 	 	 	 	 	 	 	 	 	 	 	 	 	 	 	 	 	 	1581480343	11.55	21.39
12/02/2020 04:05:44	120220	12022020	040544	193.86	13.422710	-56.988397	194.03	-0.080	-1.000	2.300	193.86	-2.30	2.80	 	 	 	 	 	 	 	 	 	 	 	 	 	 	 	 	 	 	1581480344	11.70	21.67
12/02/2020 04:05:45	120220	12022020	040545	193.60	13.422660	-56.988413	193.68	-0.270	-0.670	2.410	193.51	-1.90	2.90	 	 	 	 	 	 	 	 	 	 	 	 	 	 	 	 	 	 	1581480345	11.33	20.98
12/02/2020 04:05:46	120220	12022020	040546	193.08	13.422608	-56.988430	193.26	-0.240	-0.370	2.380	193.08	-1.60	2.90	 	 	 	 	 	 	 	 	 	 	 	 	 	 	 	 	 	 	1581480346	11.32	20.96
12/02/2020 04:05:47	120220	12022020	040547	192.92	13.422558	-56.988443	193.12	-0.130	0.220	2.040	192.92	-1.00	2.50	 	 	 	 	 	 	 	 	 	 	 	 	 	 	 	 	 	 	1581480347	11.57	21.43
12/02/2020 04:05:48	120220	12022020	040548	193.09	13.422510	-56.988455	193.29	-0.220	0.890	1.600	193.09	-0.40	2.10	 	 	 	 	 	 	 	 	 	 	 	 	 	 	 	 	 	 	1581480348	11.22	20.78
12/02/2020 04:05:49	120220	12022020	040549	193.40	13.422460	-56.988470	193.59	-0.460	0.900	1.370	193.40	-0.40	1.90	 	 	 	 	 	 	 	 	 	 	 	 	 	 	 	 	 	 	1581480349	10.73	19.87
12/02/2020 04:05:50	120220	12022020	040550	193.71	13.422408	-56.988488	193.89	-0.530	0.130	1.510	193.71	-1.20	2.00	 	 	 	 	 	 	 	 	 	 	 	 	 	 	 	 	 	 	1581480350	11.01	20.39
12/02/2020 04:05:51	120220	12022020	040551	193.88	13.422357	-56.988507	194.05	-0.120	-0.820	1.690	193.88	-2.10	2.20	 	 	 	 	 	 	 	 	 	 	 	 	 	 	 	 	 	 	1581480351	11.67	21.61
12/02/2020 04:05:52	120220	12022020	040552	193.96	13.422305	-56.988520	194.12	0.610	-1.330	1.520	193.96	-2.60	2.00	 	 	 	 	 	 	 	 	 	 	 	 	 	 	 	 	 	 	1581480352	11.92	22.08
12/02/2020 04:05:53	120220	12022020	040553	194.02	13.422253	-56.988530	194.17	1.050	-1.190	1.190	194.02	-2.40	1.70	 	 	 	 	 	 	 	 	 	 	 	 	 	 	 	 	 	 	1581480353	11.56	21.41
12/02/2020 04:05:54	120220	12022020	040554	194.07	13.422205	-56.988538	194.24	0.800	-0.750	1.010	194.09	-2.00	1.50	 	 	 	 	 	 	 	 	 	 	 	 	 	 	 	 	 	 	1581480354	11.03	20.43
12/02/2020 04:05:55	120220	12022020	040555	194.18	13.422155	-56.988550	194.33	0.060	-0.510	1.130	194.18	-1.80	1.60	 	 	 	 	 	 	 	 	 	 	 	 	 	 	 	 	 	 	1581480355	10.72	19.85
12/02/2020 04:05:56	120220	12022020	040556	194.15	13.422103	-56.988568	194.27	-0.630	-0.670	1.630	194.15	-1.90	2.10	 	 	 	 	 	 	 	 	 	 	 	 	 	 	 	 	 	 	1581480356	10.99	20.35
12/02/2020 04:05:57	120220	12022020	040557	193.90	13.422052	-56.988590	194.02	-0.890	-0.820	2.300	193.90	-2.10	2.80	 	 	 	 	 	 	 	 	 	 	 	 	 	 	 	 	 	 	1581480357	11.65	21.58
12/02/2020 04:05:58	120220	12022020	040558	193.70	13.422002	-56.988610	193.83	-0.720	-0.410	2.580	193.70	-1.60	3.10	 	 	 	 	 	 	 	 	 	 	 	 	 	 	 	 	 	 	1581480358	12.10	22.41
12/02/2020 04:05:59	120220	12022020	040559	193.59	13.421952	-56.988625	193.71	-0.350	0.370	2.450	193.59	-0.90	2.90	 	 	 	 	 	 	 	 	 	 	 	 	 	 	 	 	 	 	1581480359	11.66	21.59
12/02/2020 04:06:00	120220	12022020	040600	193.48	13.421902	-56.988638	193.62	-0.050	0.870	2.210	193.48	-0.40	2.70	 	 	 	 	 	 	 	 	 	 	 	 	 	 	 	 	 	 	1581480360	11.12	20.59
12/02/2020 04:06:01	120220	12022020	040601	193.57	13.421850	-56.988652	193.73	0.030	0.860	1.960	193.57	-0.40	2.40	1016.90	25.90	25.90	21.10	21.10	-1.0	74.0	74.0	400.0	25.7	269.00	9.10	70.00	10.90	16	8243.0	27.2	27.2	1581480361	11.20	20.74
12/02/2020 04:06:02	120220	12022020	040602	193.86	13.421798	-56.988665	194.02	-0.010	0.550	1.840	193.86	-0.70	2.30	 	 	 	 	 	 	 	 	 	 	 	 	 	 	 	 	 	 	1581480362	11.43	21.17
12/02/2020 04:06:03	120220	12022020	040603	194.12	13.421748	-56.988680	194.24	0.040	0.150	1.830	194.12	-1.10	2.30	 	 	 	 	 	 	 	 	 	 	 	 	 	 	 	 	 	 	1581480363	11.39	21.09
12/02/2020 04:06:04	120220	12022020	040604	194.14	13.421698	-56.988695	194.24	0.390	-0.440	1.650	194.14	-1.70	2.10	 	 	 	 	 	 	 	 	 	 	 	 	 	 	 	 	 	 	1581480364	11.16	20.67
12/02/2020 04:06:05	120220	12022020	040605	194.07	13.421647	-56.988707	194.15	0.890	-1.090	1.380	194.07	-2.40	1.90	 	 	 	 	 	 	 	 	 	 	 	 	 	 	 	 	 	 	1581480365	11.19	20.72
12/02/2020 04:06:06	120220	12022020	040606	193.98	13.421597	-56.988718	194.02	1.080	-1.500	1.390	193.95	-2.80	1.90	 	 	 	 	 	 	 	 	 	 	 	 	 	 	 	 	 	 	1581480366	11.33	20.98
12/02/2020 04:06:07	120220	12022020	040607	193.82	13.421547	-56.988732	193.91	0.610	-1.520	1.690	193.82	-2.80	2.20	 	 	 	 	 	 	 	 	 	 	 	 	 	 	 	 	 	 	1581480367	11.24	20.82
12/02/2020 04:06:08	120220	12022020	040608	193.81	13.421498	-56.988750	193.94	-0.310	-1.240	2.170	193.81	-2.50	2.70	 	 	 	 	 	 	 	 	 	 	 	 	 	 	 	 	 	 	1581480368	11.08	20.52
12/02/2020 04:06:09	120220	12022020	040609	193.73	13.421450	-56.988772	193.85	-1.010	-0.920	2.720	193.73	-2.20	3.20	 	 	 	 	 	 	 	 	 	 	 	 	 	 	 	 	 	 	1581480369	11.05	20.46
12/02/2020 04:06:10	120220	12022020	040610	193.51	13.421400	-56.988793	193.65	-0.910	-0.620	2.940	193.51	-1.90	3.40	 	 	 	 	 	 	 	 	 	 	 	 	 	 	 	 	 	 	1581480370	11.40	21.11
12/02/2020 04:06:11	120220	12022020	040611	193.51	13.421347	-56.988808	193.66	-0.250	-0.070	2.520	193.51	-1.30	3.00	 	 	 	 	 	 	 	 	 	 	 	 	 	 	 	 	 	 	1581480371	11.76	21.78
12/02/2020 04:06:12	120220	12022020	040612	193.82	13.421295	-56.988818	193.98	0.230	0.530	1.900	193.82	-0.70	2.40	 	 	 	 	 	 	 	 	 	 	 	 	 	 	 	 	 	 	1581480372	11.60	21.48
12/02/2020 04:06:13	120220	12022020	040613	194.38	13.421243	-56.988828	194.54	0.100	0.800	1.470	194.38	-0.50	2.00	 	 	 	 	 	 	 	 	 	 	 	 	 	 	 	 	 	 	1581480373	11.44	21.19
12/02/2020 04:06:14	120220	12022020	040614	194.98	13.421190	-56.988842	195.13	-0.390	0.610	1.620	194.98	-0.70	2.10	 	 	 	 	 	 	 	 	 	 	 	 	 	 	 	 	 	 	1581480374	11.46	21.22
12/02/2020 04:06:15	120220	12022020	040615	195.43	13.421138	-56.988860	195.59	-0.670	0.100	2.000	195.43	-1.20	2.50	 	 	 	 	 	 	 	 	 	 	 	 	 	 	 	 	 	 	1581480375	11.55	21.39
12/02/2020 04:06:16	120220	12022020	040616	195.47	13.421087	-56.988878	195.62	-0.420	-0.600	2.340	195.47	-1.90	2.80	 	 	 	 	 	 	 	 	 	 	 	 	 	 	 	 	 	 	1581480376	11.71	21.69
12/02/2020 04:06:17	120220	12022020	040617	195.19	13.421035	-56.988897	195.34	0.200	-1.010	2.380	195.19	-2.30	2.90	 	 	 	 	 	 	 	 	 	 	 	 	 	 	 	 	 	 	1581480377	11.89	22.02
12/02/2020 04:06:18	120220	12022020	040618	194.92	13.420987	-56.988908	195.06	0.620	-0.680	1.990	194.92	-1.90	2.50	 	 	 	 	 	 	 	 	 	 	 	 	 	 	 	 	 	 	1581480378	11.73	21.72
12/02/2020 04:06:19	120220	12022020	040619	194.77	13.420938	-56.988920	194.91	0.610	-0.030	1.390	194.77	-1.30	1.90	 	 	 	 	 	 	 	 	 	 	 	 	 	 	 	 	 	 	1581480379	10.92	20.22
12/02/2020 04:06:20	120220	12022020	040620	194.61	13.420890	-56.988932	194.72	0.470	0.170	0.930	194.61	-1.10	1.40	 	 	 	 	 	 	 	 	 	 	 	 	 	 	 	 	 	 	1581480380	10.36	19.19
12/02/2020 04:06:21	120220	12022020	040621	194.54	13.420840	-56.988947	194.68	0.420	-0.030	0.840	194.54	-1.30	1.30	 	 	 	 	 	 	 	 	 	 	 	 	 	 	 	 	 	 	1581480381	10.73	19.87
12/02/2020 04:06:22	120220	12022020	040622	194.92	13.420790	-56.988962	195.09	0.350	-0.170	0.730	194.92	-1.50	1.20	 	 	 	 	 	 	 	 	 	 	 	 	 	 	 	 	 	 	1581480382	11.27	20.87
12/02/2020 04:06:23	120220	12022020	040623	195.40	13.420742	-56.988977	195.56	0.170	-0.440	0.930	195.40	-1.70	1.40	 	 	 	 	 	 	 	 	 	 	 	 	 	 	 	 	 	 	1581480383	11.15	20.65
12/02/2020 04:06:24	120220	12022020	040624	195.46	13.420690	-56.988997	195.62	0.030	-1.070	1.750	195.46	-2.40	2.30	 	 	 	 	 	 	 	 	 	 	 	 	 	 	 	 	 	 	1581480384	11.15	20.65
12/02/2020 04:06:25	120220	12022020	040625	195.12	13.420638	-56.989018	195.28	-0.080	-1.670	2.740	195.12	-3.00	3.30	 	 	 	 	 	 	 	 	 	 	 	 	 	 	 	 	 	 	1581480385	11.69	21.65
12/02/2020 04:06:26	120220	12022020	040626	194.85	13.420587	-56.989040	195.05	-0.340	-1.490	3.240	194.85	-2.80	3.70	 	 	 	 	 	 	 	 	 	 	 	 	 	 	 	 	 	 	1581480386	12.15	22.50
12/02/2020 04:06:27	120220	12022020	040627	194.98	13.420540	-56.989058	195.21	-0.710	-0.500	3.020	194.98	-1.80	3.50	 	 	 	 	 	 	 	 	 	 	 	 	 	 	 	 	 	 	1581480387	11.71	21.69
12/02/2020 04:06:28	120220	12022020	040628	195.27	13.420493	-56.989073	195.47	-0.870	0.430	2.310	195.27	-0.80	2.80	 	 	 	 	 	 	 	 	 	 	 	 	 	 	 	 	 	 	1581480388	10.82	20.04
12/02/2020 04:06:29	120220	12022020	040629	195.34	13.420440	-56.989087	195.51	-0.470	0.390	1.640	195.34	-0.90	2.10	 	 	 	 	 	 	 	 	 	 	 	 	 	 	 	 	 	 	1581480389	10.65	19.72
12/02/2020 04:06:30	120220	12022020	040630	195.17	13.420383	-56.989100	195.32	0.220	-0.230	1.400	195.17	-1.50	1.90	 	 	 	 	 	 	 	 	 	 	 	 	 	 	 	 	 	 	1581480390	11.66	21.59
12/02/2020 04:06:31	120220	12022020	040631	195.06	13.420330	-56.989115	195.22	0.580	-0.400	1.360	195.06	-1.70	1.90	 	 	 	 	 	 	 	 	 	 	 	 	 	 	 	 	 	 	1581480391	12.45	23.06
12/02/2020 04:06:32	120220	12022020	040632	195.21	13.420282	-56.989128	195.38	0.380	0.210	1.290	195.21	-1.10	1.80	 	 	 	 	 	 	 	 	 	 	 	 	 	 	 	 	 	 	1581480392	12.01	22.24
12/02/2020 04:06:33	120220	12022020	040633	195.52	13.420235	-56.989142	195.69	-0.030	0.840	1.240	195.52	-0.50	1.70	 	 	 	 	 	 	 	 	 	 	 	 	 	 	 	 	 	 	1581480393	10.92	20.22
12/02/2020 04:06:34	120220	12022020	040634	195.71	13.420185	-56.989157	195.87	-0.100	0.540	1.470	195.71	-0.80	2.00	 	 	 	 	 	 	 	 	 	 	 	 	 	 	 	 	 	 	1581480394	10.41	19.28
12/02/2020 04:06:35	120220	12022020	040635	195.56	13.420132	-56.989175	195.71	0.180	-0.470	1.990	195.56	-1.80	2.50	 	 	 	 	 	 	 	 	 	 	 	 	 	 	 	 	 	 	1581480395	11.15	20.65
12/02/2020 04:06:36	120220	12022020	040636	195.15	13.420080	-56.989195	195.29	0.370	-1.250	2.580	195.15	-2.60	3.10	 	 	 	 	 	 	 	 	 	 	 	 	 	 	 	 	 	 	1581480396	12.02	22.26
12/02/2020 04:06:37	120220	12022020	040637	194.66	13.420032	-56.989215	194.79	0.200	-1.090	2.910	194.66	-2.40	3.40	 	 	 	 	 	 	 	 	 	 	 	 	 	 	 	 	 	 	1581480397	12.01	22.24
12/02/2020 04:06:38	120220	12022020	040638	194.28	13.419987	-56.989232	194.43	-0.150	-0.220	2.760	194.28	-1.50	3.20	 	 	 	 	 	 	 	 	 	 	 	 	 	 	 	 	 	 	1581480398	11.17	20.69
12/02/2020 04:06:39	120220	12022020	040639	194.12	13.419940	-56.989247	194.25	-0.280	0.270	2.340	194.09	-1.00	2.80	 	 	 	 	 	 	 	 	 	 	 	 	 	 	 	 	 	 	1581480399	10.29	19.06
12/02/2020 04:06:40	120220	12022020	040640	193.94	13.419888	-56.989263	194.10	-0.000	-0.100	2.010	193.94	-1.40	2.50	 	 	 	 	 	 	 	 	 	 	 	 	 	 	 	 	 	 	1581480400	10.53	19.50
12/02/2020 04:06:41	120220	12022020	040641	194.10	13.419835	-56.989278	194.28	0.380	-0.620	1.760	194.10	-1.90	2.30	 	 	 	 	 	 	 	 	 	 	 	 	 	 	 	 	 	 	1581480401	11.58	21.45
12/02/2020 04:06:42	120220	12022020	040642	194.66	13.419785	-56.989293	194.86	0.460	-0.620	1.540	194.66	-1.90	2.00	 	 	 	 	 	 	 	 	 	 	 	 	 	 	 	 	 	 	1581480402	11.90	22.04
12/02/2020 04:06:43	120220	12022020	040643	195.25	13.419737	-56.989308	195.44	0.250	-0.470	1.500	195.25	-1.80	2.00	 	 	 	 	 	 	 	 	 	 	 	 	 	 	 	 	 	 	1581480403	11.27	20.87
12/02/2020 04:06:44	120220	12022020	040644	195.55	13.419685	-56.989323	195.80	0.060	-0.660	1.660	195.61	-2.00	2.20	 	 	 	 	 	 	 	 	 	 	 	 	 	 	 	 	 	 	1581480404	10.90	20.19
12/02/2020 04:06:45	120220	12022020	040645	195.88	13.419633	-56.989338	196.15	-0.040	-0.860	1.700	195.94	-2.20	2.20	 	 	 	 	 	 	 	 	 	 	 	 	 	 	 	 	 	 	1581480405	11.34	21.00
12/02/2020 04:06:46	120220	12022020	040646	196.13	13.419583	-56.989353	196.33	-0.130	-0.870	1.720	196.13	-2.20	2.20	 	 	 	 	 	 	 	 	 	 	 	 	 	 	 	 	 	 	1581480406	11.52	21.34
12/02/2020 04:06:47	120220	12022020	040647	195.86	13.419532	-56.989370	196.02	-0.140	-0.900	1.890	195.86	-2.20	2.40	 	 	 	 	 	 	 	 	 	 	 	 	 	 	 	 	 	 	1581480407	11.66	21.59
12/02/2020 04:06:48	120220	12022020	040648	195.24	13.419478	-56.989385	195.41	-0.120	-0.760	2.180	195.24	-2.00	2.70	 	 	 	 	 	 	 	 	 	 	 	 	 	 	 	 	 	 	1581480408	11.66	21.59
12/02/2020 04:06:49	120220	12022020	040649	194.89	13.419427	-56.989400	195.06	-0.310	-0.050	2.270	194.89	-1.30	2.80	 	 	 	 	 	 	 	 	 	 	 	 	 	 	 	 	 	 	1581480409	11.86	21.96
12/02/2020 04:06:50	120220	12022020	040650	194.99	13.419378	-56.989415	195.17	-0.800	0.850	2.080	194.99	-0.40	2.60	 	 	 	 	 	 	 	 	 	 	 	 	 	 	 	 	 	 	1581480410	11.39	21.09
12/02/2020 04:06:51	120220	12022020	040651	195.11	13.419330	-56.989435	195.28	-1.230	1.170	2.180	195.11	-0.10	2.70	 	 	 	 	 	 	 	 	 	 	 	 	 	 	 	 	 	 	1581480411	10.86	20.11
12/02/2020 04:06:52	120220	12022020	040652	195.05	13.419280	-56.989458	195.22	-1.140	0.740	2.600	195.05	-0.60	3.10	 	 	 	 	 	 	 	 	 	 	 	 	 	 	 	 	 	 	1581480412	11.17	20.69
12/02/2020 04:06:53	120220	12022020	040653	194.91	13.419230	-56.989482	195.08	-0.410	0.130	2.620	194.91	-1.20	3.10	 	 	 	 	 	 	 	 	 	 	 	 	 	 	 	 	 	 	1581480413	11.88	22.00
12/02/2020 04:06:54	120220	12022020	040654	194.85	13.419180	-56.989498	195.02	0.630	-0.200	2.010	194.85	-1.50	2.50	 	 	 	 	 	 	 	 	 	 	 	 	 	 	 	 	 	 	1581480414	11.92	22.08
12/02/2020 04:06:55	120220	12022020	040655	194.76	13.419130	-56.989508	194.90	1.460	-0.360	1.270	194.76	-1.70	1.70	 	 	 	 	 	 	 	 	 	 	 	 	 	 	 	 	 	 	1581480415	11.29	20.91
12/02/2020 04:06:56	120220	12022020	040656	194.74	13.419080	-56.989515	194.88	1.720	-0.520	0.670	194.76	-1.80	1.20	 	 	 	 	 	 	 	 	 	 	 	 	 	 	 	 	 	 	1581480416	10.90	20.19
12/02/2020 04:06:57	120220	12022020	040657	194.82	13.419030	-56.989525	194.93	1.430	-0.770	0.470	194.82	-2.10	1.00	 	 	 	 	 	 	 	 	 	 	 	 	 	 	 	 	 	 	1581480417	10.86	20.11
12/02/2020 04:06:58	120220	12022020	040658	194.72	13.418980	-56.989540	194.84	0.860	-1.110	0.940	194.72	-2.40	1.50	 	 	 	 	 	 	 	 	 	 	 	 	 	 	 	 	 	 	1581480418	10.92	20.22
12/02/2020 04:06:59	120220	12022020	040659	194.76	13.418932	-56.989557	194.96	0.110	-1.100	1.600	194.81	-2.40	2.10	 	 	 	 	 	 	 	 	 	 	 	 	 	 	 	 	 	 	1581480419	11.19	20.72
12/02/2020 04:07:00	120220	12022020	040700	195.21	13.418885	-56.989577	195.40	-0.760	-0.730	2.220	195.21	-2.00	2.70	 	 	 	 	 	 	 	 	 	 	 	 	 	 	 	 	 	 	1581480420	11.16	20.67
12/02/2020 04:07:01	120220	12022020	040701	195.50	13.418837	-56.989602	195.67	-1.380	-0.710	2.790	195.50	-2.00	3.30	1017.10	26.00	26.00	21.10	21.10	-1.0	74.0	74.0	398.0	25.7	267.00	8.30	67.00	10.40	16	7884.0	27.2	27.2	1581480421	10.85	20.09
12/02/2020 04:07:02	120220	12022020	040702	195.36	13.418785	-56.989627	195.52	-1.320	-1.170	3.200	195.36	-2.50	3.70	 	 	 	 	 	 	 	 	 	 	 	 	 	 	 	 	 	 	1581480422	11.43	21.17
12/02/2020 04:07:03	120220	12022020	040703	195.05	13.418732	-56.989647	195.21	-0.640	-1.260	3.040	195.05	-2.60	3.50	 	 	 	 	 	 	 	 	 	 	 	 	 	 	 	 	 	 	1581480423	12.32	22.82
12/02/2020 04:07:04	120220	12022020	040704	194.82	13.418680	-56.989658	194.98	0.030	-0.470	2.460	194.82	-1.70	2.90	 	 	 	 	 	 	 	 	 	 	 	 	 	 	 	 	 	 	1581480424	12.27	22.72
12/02/2020 04:07:05	120220	12022020	040705	194.83	13.418630	-56.989668	194.99	0.210	0.600	1.680	194.83	-0.70	2.20	 	 	 	 	 	 	 	 	 	 	 	 	 	 	 	 	 	 	1581480425	11.45	21.21
12/02/2020 04:07:06	120220	12022020	040706	194.93	13.418578	-56.989678	195.09	-0.000	1.110	1.190	194.93	-0.20	1.70	 	 	 	 	 	 	 	 	 	 	 	 	 	 	 	 	 	 	1581480426	10.92	20.22
12/02/2020 04:07:07	120220	12022020	040707	194.96	13.418527	-56.989692	195.09	-0.140	0.880	1.160	194.96	-0.50	1.70	 	 	 	 	 	 	 	 	 	 	 	 	 	 	 	 	 	 	1581480427	11.12	20.59
12/02/2020 04:07:08	120220	12022020	040708	194.88	13.418473	-56.989708	195.01	-0.070	0.250	1.470	194.88	-1.10	2.00	 	 	 	 	 	 	 	 	 	 	 	 	 	 	 	 	 	 	1581480428	11.66	21.59
12/02/2020 04:07:09	120220	12022020	040709	194.77	13.418422	-56.989728	194.87	0.090	-0.270	1.970	194.74	-1.60	2.50	 	 	 	 	 	 	 	 	 	 	 	 	 	 	 	 	 	 	1581480429	11.96	22.15
12/02/2020 04:07:10	120220	12022020	040710	194.60	13.418373	-56.989747	194.74	0.240	-0.440	2.200	194.60	-1.80	2.70	 	 	 	 	 	 	 	 	 	 	 	 	 	 	 	 	 	 	1581480430	11.78	21.82
12/02/2020 04:07:11	120220	12022020	040711	194.43	13.418325	-56.989763	194.59	0.400	-0.350	2.060	194.43	-1.70	2.50	 	 	 	 	 	 	 	 	 	 	 	 	 	 	 	 	 	 	1581480431	11.29	20.91
12/02/2020 04:07:12	120220	12022020	040712	194.44	13.418277	-56.989777	194.60	0.520	-0.260	1.670	194.44	-1.60	2.10	 	 	 	 	 	 	 	 	 	 	 	 	 	 	 	 	 	 	1581480432	10.88	20.15
12/02/2020 04:07:13	120220	12022020	040713	194.65	13.418227	-56.989788	194.89	0.470	-0.360	1.270	194.72	-1.70	1.80	 	 	 	 	 	 	 	 	 	 	 	 	 	 	 	 	 	 	1581480433	10.81	20.02
12/02/2020 04:07:14	120220	12022020	040714	195.07	13.418177	-56.989805	195.25	0.250	-0.710	1.310	195.07	-2.00	1.80	 	 	 	 	 	 	 	 	 	 	 	 	 	 	 	 	 	 	1581480434	10.95	20.28
12/02/2020 04:07:15	120220	12022020	040715	195.17	13.418127	-56.989823	195.33	0.000	-1.130	1.860	195.17	-2.40	2.40	 	 	 	 	 	 	 	 	 	 	 	 	 	 	 	 	 	 	1581480435	11.21	20.76
12/02/2020 04:07:16	120220	12022020	040716	195.01	13.418077	-56.989843	195.16	-0.140	-1.280	2.370	195.01	-2.60	2.90	 	 	 	 	 	 	 	 	 	 	 	 	 	 	 	 	 	 	1581480436	11.49	21.28
12/02/2020 04:07:17	120220	12022020	040717	194.75	13.418028	-56.989862	194.82	-0.120	-1.000	2.590	194.67	-2.30	3.10	 	 	 	 	 	 	 	 	 	 	 	 	 	 	 	 	 	 	1581480437	11.53	21.35
12/02/2020 04:07:18	120220	12022020	040718	194.36	13.417978	-56.989877	194.53	-0.030	-0.450	2.360	194.36	-1.70	2.80	 	 	 	 	 	 	 	 	 	 	 	 	 	 	 	 	 	 	1581480438	11.31	20.95
12/02/2020 04:07:19	120220	12022020	040719	194.44	13.417928	-56.989888	194.72	-0.120	0.270	1.740	194.52	-1.00	2.20	 	 	 	 	 	 	 	 	 	 	 	 	 	 	 	 	 	 	1581480439	11.18	20.71
12/02/2020 04:07:20	120220	12022020	040720	195.17	13.417878	-56.989900	195.37	-0.430	0.720	1.160	195.17	-0.60	1.60	 	 	 	 	 	 	 	 	 	 	 	 	 	 	 	 	 	 	1581480440	10.97	20.32
12/02/2020 04:07:21	120220	12022020	040721	195.70	13.417828	-56.989917	195.84	-0.590	0.400	1.070	195.70	-0.90	1.60	 	 	 	 	 	 	 	 	 	 	 	 	 	 	 	 	 	 	1581480441	10.89	20.17
12/02/2020 04:07:22	120220	12022020	040722	195.72	13.417775	-56.989935	195.79	-0.150	-0.540	1.420	195.67	-1.90	1.90	 	 	 	 	 	 	 	 	 	 	 	 	 	 	 	 	 	 	1581480442	11.44	21.19
12/02/2020 04:07:23	120220	12022020	040723	195.29	13.417720	-56.989950	195.38	0.680	-1.180	1.730	195.29	-2.50	2.20	 	 	 	 	 	 	 	 	 	 	 	 	 	 	 	 	 	 	1581480443	12.20	22.59
12/02/2020 04:07:24	120220	12022020	040724	194.89	13.417667	-56.989963	195.01	1.030	-1.070	1.900	194.89	-2.40	2.40	 	 	 	 	 	 	 	 	 	 	 	 	 	 	 	 	 	 	1581480444	12.19	22.58
12/02/2020 04:07:25	120220	12022020	040725	194.68	13.417618	-56.989977	194.84	0.480	-0.530	2.250	194.68	-1.80	2.70	 	 	 	 	 	 	 	 	 	 	 	 	 	 	 	 	 	 	1581480445	11.58	21.45
12/02/2020 04:07:26	120220	12022020	040726	194.61	13.417570	-56.989997	194.77	-0.550	0.060	2.770	194.61	-1.20	3.30	 	 	 	 	 	 	 	 	 	 	 	 	 	 	 	 	 	 	1581480446	11.07	20.50
12/02/2020 04:07:27	120220	12022020	040727	194.54	13.417523	-56.990020	194.71	-1.240	0.460	3.210	194.54	-0.80	3.70	 	 	 	 	 	 	 	 	 	 	 	 	 	 	 	 	 	 	1581480447	11.01	20.39
12/02/2020 04:07:28	120220	12022020	040728	194.43	13.417473	-56.990042	194.61	-1.110	0.440	3.240	194.43	-0.90	3.70	 	 	 	 	 	 	 	 	 	 	 	 	 	 	 	 	 	 	1581480448	11.23	20.80
12/02/2020 04:07:29	120220	12022020	040729	194.44	13.417423	-56.990060	194.62	-0.420	0.100	2.740	194.44	-1.20	3.20	 	 	 	 	 	 	 	 	 	 	 	 	 	 	 	 	 	 	1581480449	11.55	21.39
12/02/2020 04:07:30	120220	12022020	040730	194.71	13.417372	-56.990075	194.88	0.200	-0.140	1.950	194.71	-1.50	2.40	 	 	 	 	 	 	 	 	 	 	 	 	 	 	 	 	 	 	1581480450	11.72	21.71
12/02/2020 04:07:31	120220	12022020	040731	195.05	13.417322	-56.990087	195.22	0.430	-0.170	1.220	195.05	-1.50	1.70	 	 	 	 	 	 	 	 	 	 	 	 	 	 	 	 	 	 	1581480451	11.44	21.19
12/02/2020 04:07:32	120220	12022020	040732	195.25	13.417273	-56.990098	195.40	0.460	-0.250	0.840	195.25	-1.60	1.30	 	 	 	 	 	 	 	 	 	 	 	 	 	 	 	 	 	 	1581480452	10.95	20.28
12/02/2020 04:07:33	120220	12022020	040733	195.28	13.417222	-56.990113	195.41	0.550	-0.550	0.860	195.28	-1.90	1.40	 	 	 	 	 	 	 	 	 	 	 	 	 	 	 	 	 	 	1581480453	10.86	20.11
12/02/2020 04:07:34	120220	12022020	040734	195.23	13.417172	-56.990127	195.34	0.760	-0.840	0.870	195.22	-2.20	1.40	 	 	 	 	 	 	 	 	 	 	 	 	 	 	 	 	 	 	1581480454	11.16	20.67
12/02/2020 04:07:35	120220	12022020	040735	195.18	13.417122	-56.990138	195.29	0.870	-0.830	0.890	195.18	-2.10	1.40	 	 	 	 	 	 	 	 	 	 	 	 	 	 	 	 	 	 	1581480455	11.35	21.02
12/02/2020 04:07:36	120220	12022020	040736	195.24	13.417070	-56.990150	195.43	0.610	-0.560	0.880	195.29	-1.90	1.40	 	 	 	 	 	 	 	 	 	 	 	 	 	 	 	 	 	 	1581480456	11.20	20.74
12/02/2020 04:07:37	120220	12022020	040737	195.52	13.417022	-56.990165	195.67	-0.090	-0.400	1.190	195.52	-1.70	1.70	 	 	 	 	 	 	 	 	 	 	 	 	 	 	 	 	 	 	1581480457	11.01	20.39
12/02/2020 04:07:38	120220	12022020	040738	195.37	13.416970	-56.990187	195.49	-0.790	-0.800	2.110	195.37	-2.10	2.70	 	 	 	 	 	 	 	 	 	 	 	 	 	 	 	 	 	 	1581480458	11.04	20.45
12/02/2020 04:07:39	120220	12022020	040739	194.62	13.416917	-56.990212	194.76	-0.960	-1.450	3.150	194.62	-2.80	3.70	 	 	 	 	 	 	 	 	 	 	 	 	 	 	 	 	 	 	1581480459	11.83	21.91
12/02/2020 04:07:40	120220	12022020	040740	193.94	13.416867	-56.990233	194.11	-0.690	-1.150	3.490	193.94	-2.40	4.00	 	 	 	 	 	 	 	 	 	 	 	 	 	 	 	 	 	 	1581480460	12.69	23.50
12/02/2020 04:07:41	120220	12022020	040741	193.81	13.416818	-56.990250	193.99	-0.460	0.100	3.050	193.81	-1.20	3.50	 	 	 	 	 	 	 	 	 	 	 	 	 	 	 	 	 	 	1581480461	12.03	22.28
12/02/2020 04:07:42	120220	12022020	040742	194.07	13.416772	-56.990265	194.25	-0.460	1.160	2.270	194.07	-0.10	2.80	 	 	 	 	 	 	 	 	 	 	 	 	 	 	 	 	 	 	1581480462	10.72	19.85
12/02/2020 04:07:43	120220	12022020	040743	194.26	13.416722	-56.990278	194.43	-0.370	1.150	1.810	194.26	-0.20	2.30	 	 	 	 	 	 	 	 	 	 	 	 	 	 	 	 	 	 	1581480463	10.40	19.26
12/02/2020 04:07:44	120220	12022020	040744	194.32	13.416668	-56.990293	194.49	0.010	0.420	1.690	194.32	-0.90	2.20	 	 	 	 	 	 	 	 	 	 	 	 	 	 	 	 	 	 	1581480464	11.18	20.71
12/02/2020 04:07:45	120220	12022020	040745	194.45	13.416617	-56.990307	194.64	0.530	-0.170	1.580	194.45	-1.50	2.10	 	 	 	 	 	 	 	 	 	 	 	 	 	 	 	 	 	 	1581480465	11.87	21.98
12/02/2020 04:07:46	120220	12022020	040746	194.55	13.416567	-56.990320	194.75	0.870	-0.450	1.500	194.55	-1.80	2.00	 	 	 	 	 	 	 	 	 	 	 	 	 	 	 	 	 	 	1581480466	11.61	21.50
12/02/2020 04:07:47	120220	12022020	040747	194.56	13.416517	-56.990333	194.75	0.870	-0.620	1.610	194.56	-1.90	2.20	 	 	 	 	 	 	 	 	 	 	 	 	 	 	 	 	 	 	1581480467	11.11	20.58
12/02/2020 04:07:48	120220	12022020	040748	194.57	13.416468	-56.990347	194.75	0.530	-0.760	1.930	194.57	-2.10	2.50	 	 	 	 	 	 	 	 	 	 	 	 	 	 	 	 	 	 	1581480468	10.95	20.28
12/02/2020 04:07:49	120220	12022020	040749	194.57	13.416420	-56.990363	194.77	0.020	-0.810	2.370	194.57	-2.10	2.90	 	 	 	 	 	 	 	 	 	 	 	 	 	 	 	 	 	 	1581480469	10.98	20.33
12/02/2020 04:07:50	120220	12022020	040750	194.53	13.416372	-56.990383	194.72	-0.420	-0.800	2.740	194.53	-2.10	3.30	 	 	 	 	 	 	 	 	 	 	 	 	 	 	 	 	 	 	1581480470	11.03	20.43
12/02/2020 04:07:51	120220	12022020	040751	194.45	13.416322	-56.990402	194.62	-0.510	-0.850	2.800	194.42	-2.20	3.30	 	 	 	 	 	 	 	 	 	 	 	 	 	 	 	 	 	 	1581480471	11.13	20.61
12/02/2020 04:07:52	120220	12022020	040752	194.29	13.416270	-56.990417	194.46	-0.170	-0.930	2.380	194.29	-2.20	2.90	 	 	 	 	 	 	 	 	 	 	 	 	 	 	 	 	 	 	1581480472	11.39	21.09
12/02/2020 04:07:53	120220	12022020	040753	194.30	13.416217	-56.990428	194.45	0.280	-0.770	1.650	194.30	-2.10	2.10	 	 	 	 	 	 	 	 	 	 	 	 	 	 	 	 	 	 	1581480473	11.63	21.54
12/02/2020 04:07:54	120220	12022020	040754	194.55	13.416165	-56.990438	194.69	0.370	-0.150	1.050	194.55	-1.40	1.60	 	 	 	 	 	 	 	 	 	 	 	 	 	 	 	 	 	 	1581480474	11.65	21.58
12/02/2020 04:07:55	120220	12022020	040755	194.74	13.416117	-56.990450	194.87	0.010	0.430	0.990	194.74	-0.90	1.50	 	 	 	 	 	 	 	 	 	 	 	 	 	 	 	 	 	 	1581480475	11.14	20.63
12/02/2020 04:07:56	120220	12022020	040756	194.59	13.416067	-56.990467	194.73	-0.450	0.470	1.580	194.59	-0.90	2.10	 	 	 	 	 	 	 	 	 	 	 	 	 	 	 	 	 	 	1581480476	10.88	20.15
12/02/2020 04:07:57	120220	12022020	040757	194.23	13.416015	-56.990488	194.38	-0.620	0.120	2.300	194.23	-1.20	2.80	 	 	 	 	 	 	 	 	 	 	 	 	 	 	 	 	 	 	1581480477	11.34	21.00
12/02/2020 04:07:58	120220	12022020	040758	194.00	13.415963	-56.990507	194.18	-0.390	-0.140	2.500	194.00	-1.50	3.00	 	 	 	 	 	 	 	 	 	 	 	 	 	 	 	 	 	 	1581480478	11.82	21.89
12/02/2020 04:07:59	120220	12022020	040759	194.10	13.415913	-56.990522	194.27	0.020	-0.110	2.130	194.10	-1.40	2.60	 	 	 	 	 	 	 	 	 	 	 	 	 	 	 	 	 	 	1581480479	11.72	21.71
12/02/2020 04:08:00	120220	12022020	040800	194.40	13.415863	-56.990535	194.57	0.380	-0.170	1.460	194.40	-1.50	2.00	 	 	 	 	 	 	 	 	 	 	 	 	 	 	 	 	 	 	1581480480	11.24	20.82
12/02/2020 04:08:01	120220	12022020	040801	194.85	13.415813	-56.990547	195.01	0.600	-0.400	0.900	194.85	-1.70	1.40	1017.10	26.00	26.00	21.30	21.30	-1.0	75.0	75.0	398.0	25.7	267.00	7.90	66.00	10.10	16	7667.0	27.2	27.2	1581480481	11.16	20.67
12/02/2020 04:08:02	120220	12022020	040802	195.29	13.415762	-56.990558	195.42	0.650	-0.580	0.620	195.29	-1.90	1.20	 	 	 	 	 	 	 	 	 	 	 	 	 	 	 	 	 	 	1581480482	11.28	20.89
12/02/2020 04:08:03	120220	12022020	040803	195.68	13.415712	-56.990572	195.81	0.370	-0.570	0.860	195.68	-1.90	1.40	 	 	 	 	 	 	 	 	 	 	 	 	 	 	 	 	 	 	1581480483	11.24	20.82
12/02/2020 04:08:04	120220	12022020	040804	195.80	13.415665	-56.990588	195.94	-0.170	-0.640	1.530	195.80	-2.00	2.10	 	 	 	 	 	 	 	 	 	 	 	 	 	 	 	 	 	 	1581480484	10.91	20.21
12/02/2020 04:08:05	120220	12022020	040805	195.40	13.415615	-56.990610	195.53	-0.540	-1.090	2.390	195.40	-2.40	2.90	 	 	 	 	 	 	 	 	 	 	 	 	 	 	 	 	 	 	1581480485	10.95	20.28
12/02/2020 04:08:06	120220	12022020	040806	194.74	13.415563	-56.990630	194.88	-0.520	-1.380	2.890	194.74	-2.70	3.40	 	 	 	 	 	 	 	 	 	 	 	 	 	 	 	 	 	 	1581480486	11.63	21.54
12/02/2020 04:08:07	120220	12022020	040807	194.36	13.415512	-56.990648	194.42	-0.280	-0.910	2.810	194.29	-2.20	3.30	 	 	 	 	 	 	 	 	 	 	 	 	 	 	 	 	 	 	1581480487	11.97	22.17
12/02/2020 04:08:08	120220	12022020	040808	194.06	13.415463	-56.990660	194.21	0.010	0.000	2.280	194.06	-1.30	2.80	 	 	 	 	 	 	 	 	 	 	 	 	 	 	 	 	 	 	1581480488	11.36	21.04
12/02/2020 04:08:09	120220	12022020	040809	193.94	13.415413	-56.990672	194.11	0.190	0.610	1.690	193.94	-0.70	2.20	 	 	 	 	 	 	 	 	 	 	 	 	 	 	 	 	 	 	1581480489	10.81	20.02
12/02/2020 04:08:10	120220	12022020	040810	193.97	13.415362	-56.990683	194.19	0.100	0.740	1.550	194.00	-0.60	2.10	 	 	 	 	 	 	 	 	 	 	 	 	 	 	 	 	 	 	1581480490	11.04	20.45
12/02/2020 04:08:11	120220	12022020	040811	194.18	13.415312	-56.990702	194.41	-0.150	0.540	1.880	194.23	-0.80	2.40	 	 	 	 	 	 	 	 	 	 	 	 	 	 	 	 	 	 	1581480491	11.37	21.06
12/02/2020 04:08:12	120220	12022020	040812	194.43	13.415262	-56.990722	194.66	-0.220	0.150	2.280	194.47	-1.20	2.80	 	 	 	 	 	 	 	 	 	 	 	 	 	 	 	 	 	 	1581480492	11.47	21.24
12/02/2020 04:08:13	120220	12022020	040813	194.71	13.415212	-56.990738	194.90	0.060	-0.260	2.400	194.71	-1.60	2.90	 	 	 	 	 	 	 	 	 	 	 	 	 	 	 	 	 	 	1581480493	11.49	21.28
12/02/2020 04:08:14	120220	12022020	040814	194.93	13.415162	-56.990753	195.13	0.440	-0.540	2.250	194.93	-1.90	2.80	 	 	 	 	 	 	 	 	 	 	 	 	 	 	 	 	 	 	1581480494	11.38	21.08
12/02/2020 04:08:15	120220	12022020	040815	195.07	13.415112	-56.990767	195.25	0.600	-0.720	2.000	195.07	-2.10	2.50	 	 	 	 	 	 	 	 	 	 	 	 	 	 	 	 	 	 	1581480495	11.15	20.65
12/02/2020 04:08:16	120220	12022020	040816	195.10	13.415062	-56.990780	195.26	0.490	-0.810	1.680	195.10	-2.20	2.20	 	 	 	 	 	 	 	 	 	 	 	 	 	 	 	 	 	 	1581480496	11.03	20.43
12/02/2020 04:08:17	120220	12022020	040817	195.21	13.415012	-56.990792	195.37	0.210	-0.850	1.420	195.21	-2.20	1.90	 	 	 	 	 	 	 	 	 	 	 	 	 	 	 	 	 	 	1581480497	11.05	20.46
12/02/2020 04:08:18	120220	12022020	040818	195.34	13.414962	-56.990807	195.49	-0.090	-0.910	1.410	195.34	-2.30	1.90	 	 	 	 	 	 	 	 	 	 	 	 	 	 	 	 	 	 	1581480498	11.11	20.58
12/02/2020 04:08:19	120220	12022020	040819	195.17	13.414912	-56.990823	195.28	-0.290	-1.000	1.760	195.17	-2.40	2.30	 	 	 	 	 	 	 	 	 	 	 	 	 	 	 	 	 	 	1581480499	11.22	20.78
12/02/2020 04:08:20	120220	12022020	040820	194.68	13.414860	-56.990843	194.78	-0.380	-0.980	2.210	194.68	-2.30	2.70	 	 	 	 	 	 	 	 	 	 	 	 	 	 	 	 	 	 	1581480500	11.49	21.28
12/02/2020 04:08:21	120220	12022020	040821	194.15	13.414810	-56.990860	194.25	-0.380	-0.640	2.480	194.15	-2.00	3.00	 	 	 	 	 	 	 	 	 	 	 	 	 	 	 	 	 	 	1581480501	11.67	21.61
12/02/2020 04:08:22	120220	12022020	040822	193.98	13.414760	-56.990877	194.14	-0.370	0.070	2.310	193.98	-1.20	2.80	 	 	 	 	 	 	 	 	 	 	 	 	 	 	 	 	 	 	1581480502	11.57	21.43
12/02/2020 04:08:23	120220	12022020	040823	194.33	13.414710	-56.990890	194.52	-0.430	0.780	1.920	194.33	-0.60	2.40	 	 	 	 	 	 	 	 	 	 	 	 	 	 	 	 	 	 	1581480503	11.24	20.82
12/02/2020 04:08:24	120220	12022020	040824	194.78	13.414660	-56.990905	195.06	-0.410	0.890	1.590	194.88	-0.50	2.10	 	 	 	 	 	 	 	 	 	 	 	 	 	 	 	 	 	 	1581480504	10.97	20.32
12/02/2020 04:08:25	120220	12022020	040825	195.45	13.414607	-56.990920	195.61	-0.200	0.440	1.440	195.45	-0.90	2.00	 	 	 	 	 	 	 	 	 	 	 	 	 	 	 	 	 	 	1581480505	11.30	20.93
12/02/2020 04:08:26	120220	12022020	040826	195.83	13.414555	-56.990935	195.97	0.170	-0.120	1.550	195.83	-1.50	2.10	 	 	 	 	 	 	 	 	 	 	 	 	 	 	 	 	 	 	1581480506	11.71	21.69
12/02/2020 04:08:27	120220	12022020	040827	195.84	13.414503	-56.990952	195.97	0.450	-0.660	1.890	195.84	-2.00	2.40	 	 	 	 	 	 	 	 	 	 	 	 	 	 	 	 	 	 	1581480507	11.67	21.61
12/02/2020 04:08:28	120220	12022020	040828	195.67	13.414453	-56.990968	195.81	0.480	-0.920	2.270	195.67	-2.30	2.80	 	 	 	 	 	 	 	 	 	 	 	 	 	 	 	 	 	 	1581480508	11.58	21.45
12/02/2020 04:08:29	120220	12022020	040829	195.50	13.414407	-56.990985	195.66	0.330	-0.640	2.350	195.50	-2.00	2.90	 	 	 	 	 	 	 	 	 	 	 	 	 	 	 	 	 	 	1581480509	11.34	21.00
12/02/2020 04:08:30	120220	12022020	040830	195.44	13.414358	-56.990998	195.56	0.190	-0.170	2.010	195.44	-1.50	2.50	 	 	 	 	 	 	 	 	 	 	 	 	 	 	 	 	 	 	1581480510	10.82	20.04
12/02/2020 04:08:31	120220	12022020	040831	195.42	13.414310	-56.991012	195.54	0.140	-0.080	1.670	195.42	-1.40	2.20	 	 	 	 	 	 	 	 	 	 	 	 	 	 	 	 	 	 	1581480511	10.55	19.54
12/02/2020 04:08:32	120220	12022020	040832	195.34	13.414258	-56.991027	195.48	0.090	-0.380	1.630	195.34	-1.80	2.20	 	 	 	 	 	 	 	 	 	 	 	 	 	 	 	 	 	 	1581480512	10.93	20.24
12/02/2020 04:08:33	120220	12022020	040833	195.29	13.414207	-56.991043	195.43	-0.120	-0.710	1.750	195.29	-2.10	2.30	 	 	 	 	 	 	 	 	 	 	 	 	 	 	 	 	 	 	1581480513	11.47	21.24
12/02/2020 04:08:34	120220	12022020	040834	195.21	13.414157	-56.991063	195.34	-0.420	-0.940	1.980	195.21	-2.30	2.50	 	 	 	 	 	 	 	 	 	 	 	 	 	 	 	 	 	 	1581480514	11.60	21.48
12/02/2020 04:08:35	120220	12022020	040835	195.07	13.414107	-56.991083	195.21	-0.480	-0.940	2.180	195.07	-2.30	2.70	 	 	 	 	 	 	 	 	 	 	 	 	 	 	 	 	 	 	1581480515	11.61	21.50
12/02/2020 04:08:36	120220	12022020	040836	195.08	13.414057	-56.991100	195.21	-0.130	-0.530	1.870	195.08	-1.90	2.40	 	 	 	 	 	 	 	 	 	 	 	 	 	 	 	 	 	 	1581480516	11.55	21.39
12/02/2020 04:08:37	120220	12022020	040837	195.29	13.414007	-56.991110	195.41	0.360	-0.010	1.180	195.29	-1.40	1.70	 	 	 	 	 	 	 	 	 	 	 	 	 	 	 	 	 	 	1581480517	11.20	20.74
12/02/2020 04:08:38	120220	12022020	040838	195.47	13.413955	-56.991120	195.59	0.570	0.100	0.830	195.47	-1.30	1.30	 	 	 	 	 	 	 	 	 	 	 	 	 	 	 	 	 	 	1581480518	11.05	20.46
12/02/2020 04:08:39	120220	12022020	040839	195.60	13.413902	-56.991133	195.75	0.280	-0.180	1.060	195.62	-1.50	1.60	 	 	 	 	 	 	 	 	 	 	 	 	 	 	 	 	 	 	1581480519	11.43	21.17
12/02/2020 04:08:40	120220	12022020	040840	195.65	13.413848	-56.991152	195.78	-0.340	-0.580	1.840	195.65	-1.90	2.40	 	 	 	 	 	 	 	 	 	 	 	 	 	 	 	 	 	 	1581480520	11.77	21.80
12/02/2020 04:08:41	120220	12022020	040841	195.46	13.413798	-56.991177	195.61	-0.910	-0.760	2.830	195.46	-2.10	3.40	 	 	 	 	 	 	 	 	 	 	 	 	 	 	 	 	 	 	1581480521	11.94	22.11
12/02/2020 04:08:42	120220	12022020	040842	195.33	13.413750	-56.991200	195.50	-1.080	-0.420	3.330	195.33	-1.80	3.80	 	 	 	 	 	 	 	 	 	 	 	 	 	 	 	 	 	 	1581480522	11.97	22.17
12/02/2020 04:08:43	120220	12022020	040843	195.50	13.413703	-56.991218	195.68	-0.780	0.420	3.030	195.50	-0.90	3.50	 	 	 	 	 	 	 	 	 	 	 	 	 	 	 	 	 	 	1581480523	11.53	21.35
12/02/2020 04:08:44	120220	12022020	040844	195.93	13.413657	-56.991233	196.10	-0.170	0.980	2.150	195.93	-0.40	2.60	 	 	 	 	 	 	 	 	 	 	 	 	 	 	 	 	 	 	1581480524	10.72	19.85
12/02/2020 04:08:45	120220	12022020	040845	196.18	13.413605	-56.991245	196.34	0.520	0.550	1.290	196.21	-0.80	1.80	 	 	 	 	 	 	 	 	 	 	 	 	 	 	 	 	 	 	1581480525	10.56	19.56
12/02/2020 04:08:46	120220	12022020	040846	196.15	13.413550	-56.991257	196.25	1.130	-0.550	0.860	196.15	-2.00	1.40	 	 	 	 	 	 	 	 	 	 	 	 	 	 	 	 	 	 	1581480526	11.38	21.08
12/02/2020 04:08:47	120220	12022020	040847	196.03	13.413497	-56.991268	196.13	1.340	-1.150	0.720	196.03	-2.50	1.20	 	 	 	 	 	 	 	 	 	 	 	 	 	 	 	 	 	 	1581480527	12.16	22.52
12/02/2020 04:08:48	120220	12022020	040848	195.95	13.413447	-56.991282	196.06	0.970	-1.020	0.970	195.95	-2.40	1.50	 	 	 	 	 	 	 	 	 	 	 	 	 	 	 	 	 	 	1581480528	11.77	21.80
12/02/2020 04:08:49	120220	12022020	040849	195.72	13.413400	-56.991298	195.82	0.270	-0.730	1.530	195.72	-2.10	2.10	 	 	 	 	 	 	 	 	 	 	 	 	 	 	 	 	 	 	1581480529	10.93	20.24
12/02/2020 04:08:50	120220	12022020	040850	195.33	13.413352	-56.991318	195.45	-0.300	-0.540	2.140	195.33	-1.90	2.70	 	 	 	 	 	 	 	 	 	 	 	 	 	 	 	 	 	 	1581480530	10.82	20.04
12/02/2020 04:08:51	120220	12022020	040851	195.15	13.413302	-56.991337	195.31	-0.580	-0.460	2.420	195.14	-1.80	2.90	 	 	 	 	 	 	 	 	 	 	 	 	 	 	 	 	 	 	1581480531	11.21	20.76
12/02/2020 04:08:52	120220	12022020	040852	195.33	13.413250	-56.991355	195.51	-0.650	-0.370	2.190	195.33	-1.70	2.70	 	 	 	 	 	 	 	 	 	 	 	 	 	 	 	 	 	 	1581480532	11.49	21.28
12/02/2020 04:08:53	120220	12022020	040853	195.73	13.413200	-56.991373	195.92	-0.620	-0.370	1.840	195.73	-1.70	2.30	 	 	 	 	 	 	 	 	 	 	 	 	 	 	 	 	 	 	1581480533	11.53	21.35
12/02/2020 04:08:54	120220	12022020	040854	196.15	13.413148	-56.991392	196.34	-0.510	-0.370	1.620	196.15	-1.70	2.10	 	 	 	 	 	 	 	 	 	 	 	 	 	 	 	 	 	 	1581480534	11.61	21.50
12/02/2020 04:08:55	120220	12022020	040855	196.50	13.413098	-56.991408	196.68	-0.300	-0.220	1.470	196.50	-1.60	2.00	 	 	 	 	 	 	 	 	 	 	 	 	 	 	 	 	 	 	1581480535	11.60	21.48
12/02/2020 04:08:56	120220	12022020	040856	196.75	13.413048	-56.991423	196.91	-0.030	-0.040	1.350	196.75	-1.40	1.90	 	 	 	 	 	 	 	 	 	 	 	 	 	 	 	 	 	 	1581480536	11.38	21.08
12/02/2020 04:08:57	120220	12022020	040857	196.77	13.412997	-56.991438	196.91	0.280	-0.110	1.400	196.77	-1.50	1.90	 	 	 	 	 	 	 	 	 	 	 	 	 	 	 	 	 	 	1581480537	11.23	20.80
12/02/2020 04:08:58	120220	12022020	040858	196.72	13.412945	-56.991453	196.87	0.500	-0.250	1.410	196.72	-1.60	1.90	 	 	 	 	 	 	 	 	 	 	 	 	 	 	 	 	 	 	1581480538	11.44	21.19
12/02/2020 04:08:59	120220	12022020	040859	196.77	13.412895	-56.991468	196.92	0.370	-0.090	1.430	196.77	-1.40	2.00	 	 	 	 	 	 	 	 	 	 	 	 	 	 	 	 	 	 	1581480539	11.55	21.39
12/02/2020 04:09:00	120220	12022020	040900	196.68	13.412847	-56.991483	196.83	-0.010	0.060	1.460	196.68	-1.30	2.00	 	 	 	 	 	 	 	 	 	 	 	 	 	 	 	 	 	 	1581480540	11.18	20.71
12/02/2020 04:09:01	120220	12022020	040901	196.38	13.412797	-56.991502	196.51	-0.250	-0.200	1.480	196.38	-1.60	2.00	1017.00	25.90	26.00	21.20	21.20	-1.0	75.0	75.0	399.0	25.7	263.00	8.80	67.00	11.10	16	8209.0	27.2	27.2	1581480541	11.00	20.37
12/02/2020 04:09:02	120220	12022020	040902	196.17	13.412745	-56.991520	196.30	-0.130	-0.540	1.360	196.17	-1.90	1.90	 	 	 	 	 	 	 	 	 	 	 	 	 	 	 	 	 	 	1581480542	11.48	21.26
12/02/2020 04:09:03	120220	12022020	040903	196.10	13.412693	-56.991535	196.18	0.210	-0.620	1.240	196.07	-2.00	1.80	 	 	 	 	 	 	 	 	 	 	 	 	 	 	 	 	 	 	1581480543	11.69	21.65
12/02/2020 04:09:04	120220	12022020	040904	195.78	13.412643	-56.991552	195.89	0.430	-0.690	1.390	195.78	-2.00	1.90	 	 	 	 	 	 	 	 	 	 	 	 	 	 	 	 	 	 	1581480544	11.42	21.15
12/02/2020 04:09:05	120220	12022020	040905	195.39	13.412592	-56.991570	195.41	0.320	-0.810	1.940	195.28	-2.20	2.50	 	 	 	 	 	 	 	 	 	 	 	 	 	 	 	 	 	 	1581480545	11.42	21.15
12/02/2020 04:09:06	120220	12022020	040906	194.98	13.412542	-56.991590	195.15	-0.100	-0.620	2.590	194.98	-1.90	3.10	 	 	 	 	 	 	 	 	 	 	 	 	 	 	 	 	 	 	1581480546	11.68	21.63
12/02/2020 04:09:07	120220	12022020	040907	195.18	13.412495	-56.991612	195.39	-0.610	0.010	2.780	195.18	-1.30	3.30	 	 	 	 	 	 	 	 	 	 	 	 	 	 	 	 	 	 	1581480547	11.55	21.39
12/02/2020 04:09:08	120220	12022020	040908	195.76	13.412448	-56.991630	195.98	-0.780	0.540	2.420	195.76	-0.80	2.90	 	 	 	 	 	 	 	 	 	 	 	 	 	 	 	 	 	 	1581480548	11.01	20.39
12/02/2020 04:09:09	120220	12022020	040909	196.24	13.412398	-56.991647	196.54	-0.320	0.460	1.820	196.35	-0.90	2.30	 	 	 	 	 	 	 	 	 	 	 	 	 	 	 	 	 	 	1581480549	10.79	19.98
12/02/2020 04:09:10	120220	12022020	040910	196.74	13.412347	-56.991662	196.92	0.440	-0.050	1.430	196.74	-1.40	1.90	 	 	 	 	 	 	 	 	 	 	 	 	 	 	 	 	 	 	1581480550	11.25	20.84
12/02/2020 04:09:11	120220	12022020	040911	197.17	13.412295	-56.991673	197.34	0.800	-0.430	1.180	197.17	-1.80	1.70	 	 	 	 	 	 	 	 	 	 	 	 	 	 	 	 	 	 	1581480551	11.72	21.71
12/02/2020 04:09:12	120220	12022020	040912	197.45	13.412245	-56.991690	197.60	0.600	-0.660	1.290	197.45	-2.00	1.80	 	 	 	 	 	 	 	 	 	 	 	 	 	 	 	 	 	 	1581480552	11.51	21.32
12/02/2020 04:09:13	120220	12022020	040913	197.39	13.412195	-56.991707	197.47	0.300	-0.960	1.630	197.33	-2.30	2.20	 	 	 	 	 	 	 	 	 	 	 	 	 	 	 	 	 	 	1581480553	11.19	20.72
12/02/2020 04:09:14	120220	12022020	040914	197.00	13.412143	-56.991723	197.07	0.300	-1.110	1.920	196.93	-2.40	2.40	 	 	 	 	 	 	 	 	 	 	 	 	 	 	 	 	 	 	1581480554	11.36	21.04
12/02/2020 04:09:15	120220	12022020	040915	196.67	13.412092	-56.991738	196.81	0.390	-0.890	1.840	196.67	-2.20	2.30	 	 	 	 	 	 	 	 	 	 	 	 	 	 	 	 	 	 	1581480555	11.57	21.43
12/02/2020 04:09:16	120220	12022020	040916	196.50	13.412042	-56.991752	196.63	0.180	-0.500	1.620	196.50	-1.80	2.10	 	 	 	 	 	 	 	 	 	 	 	 	 	 	 	 	 	 	1581480556	11.46	21.22
12/02/2020 04:09:17	120220	12022020	040917	196.27	13.411990	-56.991768	196.39	-0.340	-0.230	1.680	196.27	-1.60	2.20	 	 	 	 	 	 	 	 	 	 	 	 	 	 	 	 	 	 	1581480557	11.33	20.98
12/02/2020 04:09:18	120220	12022020	040918	196.09	13.411940	-56.991790	196.23	-0.880	-0.130	2.010	196.09	-1.50	2.50	 	 	 	 	 	 	 	 	 	 	 	 	 	 	 	 	 	 	1581480558	11.47	21.24
12/02/2020 04:09:19	120220	12022020	040919	195.97	13.411890	-56.991813	196.12	-1.180	-0.140	2.600	195.97	-1.50	3.10	 	 	 	 	 	 	 	 	 	 	 	 	 	 	 	 	 	 	1581480559	11.71	21.69
12/02/2020 04:09:20	120220	12022020	040920	195.75	13.411840	-56.991840	195.91	-1.110	-0.230	3.030	195.75	-1.60	3.50	 	 	 	 	 	 	 	 	 	 	 	 	 	 	 	 	 	 	1581480560	11.88	22.00
12/02/2020 04:09:21	120220	12022020	040921	195.44	13.411790	-56.991862	195.62	-0.650	-0.160	2.900	195.44	-1.50	3.40	 	 	 	 	 	 	 	 	 	 	 	 	 	 	 	 	 	 	1581480561	12.00	22.22
12/02/2020 04:09:22	120220	12022020	040922	195.50	13.411742	-56.991878	195.70	-0.040	0.400	2.170	195.50	-0.90	2.60	 	 	 	 	 	 	 	 	 	 	 	 	 	 	 	 	 	 	1581480562	11.79	21.84
12/02/2020 04:09:23	120220	12022020	040923	196.20	13.411693	-56.991888	196.39	0.450	1.130	0.980	196.20	-0.20	1.40	 	 	 	 	 	 	 	 	 	 	 	 	 	 	 	 	 	 	1581480563	11.02	20.41
12/02/2020 04:09:24	120220	12022020	040924	197.05	13.411645	-56.991897	197.23	0.830	1.020	0.280	197.05	-0.40	0.80	 	 	 	 	 	 	 	 	 	 	 	 	 	 	 	 	 	 	1581480564	10.33	19.13
12/02/2020 04:09:25	120220	12022020	040925	197.40	13.411592	-56.991910	197.57	1.190	-0.220	0.460	197.42	-1.60	1.00	 	 	 	 	 	 	 	 	 	 	 	 	 	 	 	 	 	 	1581480565	10.71	19.83
12/02/2020 04:09:26	120220	12022020	040926	197.25	13.411537	-56.991925	197.38	1.410	-1.660	1.100	197.25	-3.00	1.60	 	 	 	 	 	 	 	 	 	 	 	 	 	 	 	 	 	 	1581480566	11.74	21.74
12/02/2020 04:09:27	120220	12022020	040927	196.98	13.411485	-56.991942	197.12	1.160	-2.170	1.950	196.98	-3.50	2.50	 	 	 	 	 	 	 	 	 	 	 	 	 	 	 	 	 	 	1581480567	12.27	22.72
12/02/2020 04:09:28	120220	12022020	040928	196.70	13.411438	-56.991960	196.82	0.390	-1.710	2.730	196.70	-3.00	3.30	 	 	 	 	 	 	 	 	 	 	 	 	 	 	 	 	 	 	1581480568	11.64	21.56
12/02/2020 04:09:29	120220	12022020	040929	196.17	13.411392	-56.991983	196.31	-0.510	-1.060	3.370	196.17	-2.40	3.90	 	 	 	 	 	 	 	 	 	 	 	 	 	 	 	 	 	 	1581480569	10.86	20.11
12/02/2020 04:09:30	120220	12022020	040930	195.60	13.411343	-56.992007	195.75	-1.090	-0.580	3.550	195.60	-1.90	4.00	 	 	 	 	 	 	 	 	 	 	 	 	 	 	 	 	 	 	1581480570	11.01	20.39
12/02/2020 04:09:31	120220	12022020	040931	195.22	13.411293	-56.992028	195.39	-1.230	-0.130	3.230	195.22	-1.50	3.70	 	 	 	 	 	 	 	 	 	 	 	 	 	 	 	 	 	 	1581480571	11.56	21.41
12/02/2020 04:09:32	120220	12022020	040932	195.15	13.411242	-56.992047	195.33	-1.030	0.320	2.480	195.15	-1.00	2.90	 	 	 	 	 	 	 	 	 	 	 	 	 	 	 	 	 	 	1581480572	11.74	21.74
12/02/2020 04:09:33	120220	12022020	040933	195.48	13.411190	-56.992062	195.66	-0.620	0.650	1.560	195.48	-0.70	2.00	 	 	 	 	 	 	 	 	 	 	 	 	 	 	 	 	 	 	1581480573	11.64	21.56
12/02/2020 04:09:34	120220	12022020	040934	196.11	13.411138	-56.992075	196.30	-0.150	0.730	0.760	196.11	-0.60	1.30	 	 	 	 	 	 	 	 	 	 	 	 	 	 	 	 	 	 	1581480574	11.49	21.28
12/02/2020 04:09:35	120220	12022020	040935	196.72	13.411087	-56.992088	196.91	0.220	0.390	0.550	196.72	-1.00	1.10	 	 	 	 	 	 	 	 	 	 	 	 	 	 	 	 	 	 	1581480575	11.44	21.19
12/02/2020 04:09:36	120220	12022020	040936	197.03	13.411035	-56.992105	197.20	0.490	-0.250	0.990	197.03	-1.60	1.50	 	 	 	 	 	 	 	 	 	 	 	 	 	 	 	 	 	 	1581480576	11.53	21.35
12/02/2020 04:09:37	120220	12022020	040937	196.94	13.410985	-56.992123	197.08	0.630	-0.740	1.580	196.94	-2.10	2.10	 	 	 	 	 	 	 	 	 	 	 	 	 	 	 	 	 	 	1581480577	11.66	21.59
12/02/2020 04:09:38	120220	12022020	040938	196.62	13.410935	-56.992140	196.76	0.670	-0.860	1.910	196.62	-2.20	2.40	 	 	 	 	 	 	 	 	 	 	 	 	 	 	 	 	 	 	1581480578	11.52	21.34
12/02/2020 04:09:39	120220	12022020	040939	196.42	13.410887	-56.992155	196.54	0.540	-0.580	1.950	196.40	-1.90	2.40	 	 	 	 	 	 	 	 	 	 	 	 	 	 	 	 	 	 	1581480579	11.20	20.74
12/02/2020 04:09:40	120220	12022020	040940	196.47	13.410840	-56.992168	196.63	0.230	-0.090	1.760	196.47	-1.40	2.30	 	 	 	 	 	 	 	 	 	 	 	 	 	 	 	 	 	 	1581480580	10.90	20.19
12/02/2020 04:09:41	120220	12022020	040941	196.64	13.410792	-56.992183	196.79	-0.140	0.120	1.570	196.64	-1.20	2.10	 	 	 	 	 	 	 	 	 	 	 	 	 	 	 	 	 	 	1581480581	10.59	19.61
12/02/2020 04:09:42	120220	12022020	040942	196.56	13.410742	-56.992202	196.69	-0.330	-0.340	1.760	196.56	-1.70	2.30	 	 	 	 	 	 	 	 	 	 	 	 	 	 	 	 	 	 	1581480582	10.74	19.89
12/02/2020 04:09:43	120220	12022020	040943	196.26	13.410690	-56.992225	196.38	-0.240	-1.120	2.240	196.26	-2.50	2.70	 	 	 	 	 	 	 	 	 	 	 	 	 	 	 	 	 	 	1581480583	11.49	21.28
12/02/2020 04:09:44	120220	12022020	040944	195.94	13.410637	-56.992247	196.07	-0.020	-1.460	2.470	195.94	-2.80	3.00	 	 	 	 	 	 	 	 	 	 	 	 	 	 	 	 	 	 	1581480584	12.18	22.56
12/02/2020 04:09:45	120220	12022020	040945	195.63	13.410587	-56.992265	195.75	0.130	-1.080	2.430	195.63	-2.40	2.90	 	 	 	 	 	 	 	 	 	 	 	 	 	 	 	 	 	 	1581480585	12.06	22.34
12/02/2020 04:09:46	120220	12022020	040946	195.43	13.410538	-56.992278	195.58	0.080	-0.140	2.140	195.43	-1.40	2.60	 	 	 	 	 	 	 	 	 	 	 	 	 	 	 	 	 	 	1581480586	11.49	21.28
12/02/2020 04:09:47	120220	12022020	040947	195.52	13.410490	-56.992292	195.69	-0.220	0.830	1.700	195.52	-0.50	2.20	 	 	 	 	 	 	 	 	 	 	 	 	 	 	 	 	 	 	1581480587	10.90	20.19
12/02/2020 04:09:48	120220	12022020	040948	195.95	13.410442	-56.992305	196.12	-0.580	1.130	1.260	195.95	-0.20	1.70	 	 	 	 	 	 	 	 	 	 	 	 	 	 	 	 	 	 	1581480588	10.65	19.72
12/02/2020 04:09:49	120220	12022020	040949	196.49	13.410390	-56.992323	196.63	-0.610	0.560	1.080	196.49	-0.80	1.60	 	 	 	 	 	 	 	 	 	 	 	 	 	 	 	 	 	 	1581480589	10.98	20.33
12/02/2020 04:09:50	120220	12022020	040950	196.73	13.410337	-56.992342	196.89	-0.050	-0.420	1.240	196.76	-1.80	1.70	 	 	 	 	 	 	 	 	 	 	 	 	 	 	 	 	 	 	1581480590	11.62	21.52
12/02/2020 04:09:51	120220	12022020	040951	196.64	13.410283	-56.992358	196.74	0.730	-1.240	1.550	196.64	-2.60	2.10	 	 	 	 	 	 	 	 	 	 	 	 	 	 	 	 	 	 	1581480591	12.02	22.26
12/02/2020 04:09:52	120220	12022020	040952	196.38	13.410233	-56.992373	196.45	0.990	-1.400	1.950	196.33	-2.70	2.50	 	 	 	 	 	 	 	 	 	 	 	 	 	 	 	 	 	 	1581480592	11.97	22.17
12/02/2020 04:09:53	120220	12022020	040953	196.22	13.410187	-56.992392	196.37	0.430	-0.790	2.170	196.22	-2.10	2.70	 	 	 	 	 	 	 	 	 	 	 	 	 	 	 	 	 	 	1581480593	11.47	21.24
12/02/2020 04:09:54	120220	12022020	040954	196.38	13.410142	-56.992408	196.53	-0.420	0.060	1.990	196.38	-1.20	2.50	 	 	 	 	 	 	 	 	 	 	 	 	 	 	 	 	 	 	1581480594	10.71	19.83
12/02/2020 04:09:55	120220	12022020	040955	196.49	13.410093	-56.992428	196.64	-0.720	0.320	1.650	196.49	-1.00	2.10	 	 	 	 	 	 	 	 	 	 	 	 	 	 	 	 	 	 	1581480595	10.34	19.15
12/02/2020 04:09:56	120220	12022020	040956	196.46	13.410042	-56.992445	196.59	-0.190	-0.090	1.350	196.46	-1.40	1.80	 	 	 	 	 	 	 	 	 	 	 	 	 	 	 	 	 	 	1581480596	10.94	20.26
12/02/2020 04:09:57	120220	12022020	040957	196.50	13.409988	-56.992460	196.65	0.630	-0.440	1.090	196.50	-1.80	1.60	 	 	 	 	 	 	 	 	 	 	 	 	 	 	 	 	 	 	1581480597	11.85	21.95
12/02/2020 04:09:58	120220	12022020	040958	196.82	13.409937	-56.992473	196.97	0.840	-0.280	0.920	196.82	-1.60	1.40	 	 	 	 	 	 	 	 	 	 	 	 	 	 	 	 	 	 	1581480598	11.98	22.19
12/02/2020 04:09:59	120220	12022020	040959	197.32	13.409888	-56.992488	197.50	0.160	0.090	1.170	197.32	-1.20	1.70	 	 	 	 	 	 	 	 	 	 	 	 	 	 	 	 	 	 	1581480599	11.35	21.02
12/02/2020 04:10:00	120220	12022020	041000	197.61	13.409842	-56.992510	197.76	-0.780	0.050	1.880	197.61	-1.30	2.40	 	 	 	 	 	 	 	 	 	 	 	 	 	 	 	 	 	 	1581480600	10.74	19.89
12/02/2020 04:10:01	120220	12022020	041001	197.32	13.409793	-56.992535	197.46	-1.110	-0.630	2.860	197.32	-2.00	3.40	1017.00	25.90	26.00	21.20	21.20	-1.0	75.0	75.0	401.0	25.7	262.00	9.00	68.00	11.40	16	7183.0	27.2	27.2	1581480601	10.97	20.32
12/02/2020 04:10:02	120220	12022020	041002	196.41	13.409742	-56.992562	196.52	-0.510	-1.500	3.650	196.41	-2.90	4.20	 	 	 	 	 	 	 	 	 	 	 	 	 	 	 	 	 	 	1581480602	11.80	21.85
12/02/2020 04:10:03	120220	12022020	041003	195.33	13.409688	-56.992580	195.44	0.410	-1.690	3.690	195.33	-3.00	4.20	 	 	 	 	 	 	 	 	 	 	 	 	 	 	 	 	 	 	1581480603	12.40	22.96
12/02/2020 04:10:04	120220	12022020	041004	194.72	13.409640	-56.992593	194.88	0.770	-0.790	3.040	194.72	-2.10	3.50	 	 	 	 	 	 	 	 	 	 	 	 	 	 	 	 	 	 	1581480604	12.03	22.28
12/02/2020 04:10:05	120220	12022020	041005	194.68	13.409593	-56.992605	194.84	0.380	0.450	2.170	194.68	-0.80	2.60	 	 	 	 	 	 	 	 	 	 	 	 	 	 	 	 	 	 	1581480605	10.94	20.26
12/02/2020 04:10:06	120220	12022020	041006	194.83	13.409545	-56.992618	195.02	-0.270	1.070	1.680	194.87	-0.30	2.20	 	 	 	 	 	 	 	 	 	 	 	 	 	 	 	 	 	 	1581480606	10.28	19.04
12/02/2020 04:10:07	120220	12022020	041007	195.08	13.409495	-56.992635	195.24	-0.550	0.800	1.640	195.08	-0.60	2.10	 	 	 	 	 	 	 	 	 	 	 	 	 	 	 	 	 	 	1581480607	10.62	19.67
12/02/2020 04:10:08	120220	12022020	041008	195.32	13.409443	-56.992653	195.50	-0.300	0.110	1.630	195.32	-1.20	2.10	 	 	 	 	 	 	 	 	 	 	 	 	 	 	 	 	 	 	1581480608	11.42	21.15
12/02/2020 04:10:09	120220	12022020	041009	195.70	13.409392	-56.992670	195.88	0.150	-0.340	1.460	195.70	-1.70	1.90	 	 	 	 	 	 	 	 	 	 	 	 	 	 	 	 	 	 	1581480609	11.84	21.93
12/02/2020 04:10:10	120220	12022020	041010	196.27	13.409343	-56.992683	196.44	0.410	-0.470	1.130	196.27	-1.80	1.60	 	 	 	 	 	 	 	 	 	 	 	 	 	 	 	 	 	 	1581480610	11.49	21.28
12/02/2020 04:10:11	120220	12022020	041011	196.71	13.409295	-56.992697	196.85	0.420	-0.650	1.010	196.71	-2.00	1.50	 	 	 	 	 	 	 	 	 	 	 	 	 	 	 	 	 	 	1581480611	10.95	20.28
12/02/2020 04:10:12	120220	12022020	041012	196.77	13.409243	-56.992713	196.89	0.410	-1.010	1.320	196.77	-2.30	1.80	 	 	 	 	 	 	 	 	 	 	 	 	 	 	 	 	 	 	1581480612	10.91	20.21
12/02/2020 04:10:13	120220	12022020	041013	196.57	13.409193	-56.992728	196.57	0.440	-1.260	1.930	196.48	-2.60	2.50	 	 	 	 	 	 	 	 	 	 	 	 	 	 	 	 	 	 	1581480613	11.26	20.85
12/02/2020 04:10:14	120220	12022020	041014	195.85	13.409143	-56.992747	195.94	0.360	-1.160	2.650	195.85	-2.50	3.20	 	 	 	 	 	 	 	 	 	 	 	 	 	 	 	 	 	 	1581480614	11.46	21.22
12/02/2020 04:10:15	120220	12022020	041015	195.45	13.409095	-56.992765	195.58	-0.030	-0.540	2.960	195.45	-1.80	3.50	 	 	 	 	 	 	 	 	 	 	 	 	 	 	 	 	 	 	1581480615	11.48	21.26
12/02/2020 04:10:16	120220	12022020	041016	195.43	13.409047	-56.992783	195.58	-0.610	0.270	2.830	195.43	-1.00	3.30	 	 	 	 	 	 	 	 	 	 	 	 	 	 	 	 	 	 	1581480616	11.14	20.63
12/02/2020 04:10:17	120220	12022020	041017	195.57	13.409000	-56.992802	195.73	-0.990	0.670	2.480	195.57	-0.70	2.90	 	 	 	 	 	 	 	 	 	 	 	 	 	 	 	 	 	 	1581480617	10.81	20.02
12/02/2020 04:10:18	120220	12022020	041018	195.77	13.408948	-56.992820	195.93	-0.890	0.510	2.140	195.77	-0.80	2.60	 	 	 	 	 	 	 	 	 	 	 	 	 	 	 	 	 	 	1581480618	11.02	20.41
12/02/2020 04:10:19	120220	12022020	041019	195.79	13.408898	-56.992838	195.95	-0.440	0.010	1.990	195.79	-1.30	2.50	 	 	 	 	 	 	 	 	 	 	 	 	 	 	 	 	 	 	1581480619	11.44	21.19
12/02/2020 04:10:20	120220	12022020	041020	195.74	13.408847	-56.992855	195.91	0.130	-0.420	1.760	195.74	-1.80	2.20	 	 	 	 	 	 	 	 	 	 	 	 	 	 	 	 	 	 	1581480620	11.68	21.63
12/02/2020 04:10:21	120220	12022020	041021	195.77	13.408797	-56.992870	195.93	0.590	-0.560	1.480	195.77	-1.90	2.00	 	 	 	 	 	 	 	 	 	 	 	 	 	 	 	 	 	 	1581480621	11.58	21.45
12/02/2020 04:10:22	120220	12022020	041022	195.76	13.408747	-56.992882	195.91	0.780	-0.580	1.260	195.76	-1.90	1.80	 	 	 	 	 	 	 	 	 	 	 	 	 	 	 	 	 	 	1581480622	11.09	20.54
12/02/2020 04:10:23	120220	12022020	041023	195.87	13.408697	-56.992895	196.03	0.580	-0.470	1.160	195.87	-1.80	1.70	 	 	 	 	 	 	 	 	 	 	 	 	 	 	 	 	 	 	1581480623	11.09	20.54
12/02/2020 04:10:24	120220	12022020	041024	196.13	13.408648	-56.992910	196.29	0.150	-0.290	1.330	196.13	-1.60	1.90	 	 	 	 	 	 	 	 	 	 	 	 	 	 	 	 	 	 	1581480624	10.98	20.33
12/02/2020 04:10:25	120220	12022020	041025	196.24	13.408600	-56.992928	196.39	-0.140	-0.350	1.730	196.24	-1.70	2.30	 	 	 	 	 	 	 	 	 	 	 	 	 	 	 	 	 	 	1581480625	10.82	20.04
12/02/2020 04:10:26	120220	12022020	041026	196.03	13.408548	-56.992947	196.15	-0.050	-0.750	2.190	196.03	-2.10	2.70	 	 	 	 	 	 	 	 	 	 	 	 	 	 	 	 	 	 	1581480626	11.09	20.54
12/02/2020 04:10:27	120220	12022020	041027	195.70	13.408497	-56.992965	195.85	0.160	-1.030	2.470	195.70	-2.40	3.00	 	 	 	 	 	 	 	 	 	 	 	 	 	 	 	 	 	 	1581480627	11.70	21.67
12/02/2020 04:10:28	120220	12022020	041028	195.54	13.408445	-56.992982	195.68	0.080	-0.690	2.580	195.53	-2.00	3.10	 	 	 	 	 	 	 	 	 	 	 	 	 	 	 	 	 	 	1581480628	11.92	22.08
12/02/2020 04:10:29	120220	12022020	041029	195.62	13.408398	-56.992998	195.79	-0.390	0.070	2.530	195.62	-1.20	3.00	 	 	 	 	 	 	 	 	 	 	 	 	 	 	 	 	 	 	1581480629	11.44	21.19
12/02/2020 04:10:30	120220	12022020	041030	195.80	13.408350	-56.993017	196.03	-0.900	0.600	2.450	195.84	-0.70	2.90	 	 	 	 	 	 	 	 	 	 	 	 	 	 	 	 	 	 	1581480630	10.88	20.15
12/02/2020 04:10:31	120220	12022020	041031	195.97	13.408302	-56.993037	196.14	-0.980	0.510	2.420	195.97	-0.90	2.90	 	 	 	 	 	 	 	 	 	 	 	 	 	 	 	 	 	 	1581480631	10.90	20.19
12/02/2020 04:10:32	120220	12022020	041032	196.09	13.408250	-56.993055	196.27	-0.530	0.100	2.000	196.09	-1.30	2.50	 	 	 	 	 	 	 	 	 	 	 	 	 	 	 	 	 	 	1581480632	11.43	21.17
12/02/2020 04:10:33	120220	12022020	041033	196.20	13.408198	-56.993070	196.34	0.150	-0.240	1.340	196.20	-1.60	1.80	 	 	 	 	 	 	 	 	 	 	 	 	 	 	 	 	 	 	1581480633	11.66	21.59
12/02/2020 04:10:34	120220	12022020	041034	196.01	13.408147	-56.993080	196.12	0.840	-0.610	0.780	196.01	-2.00	1.30	 	 	 	 	 	 	 	 	 	 	 	 	 	 	 	 	 	 	1581480634	11.40	21.11
12/02/2020 04:10:35	120220	12022020	041035	195.67	13.408095	-56.993090	195.79	1.270	-0.880	0.600	195.67	-2.20	1.10	 	 	 	 	 	 	 	 	 	 	 	 	 	 	 	 	 	 	1581480635	11.37	21.06
12/02/2020 04:10:36	120220	12022020	041036	195.59	13.408045	-56.993102	195.73	1.080	-0.730	0.820	195.59	-2.10	1.30	 	 	 	 	 	 	 	 	 	 	 	 	 	 	 	 	 	 	1581480636	11.45	21.21
12/02/2020 04:10:37	120220	12022020	041037	195.74	13.407998	-56.993118	195.88	0.350	-0.270	1.330	195.74	-1.60	1.80	 	 	 	 	 	 	 	 	 	 	 	 	 	 	 	 	 	 	1581480637	11.04	20.45
12/02/2020 04:10:38	120220	12022020	041038	195.75	13.407952	-56.993137	195.90	-0.380	-0.110	2.030	195.75	-1.50	2.60	 	 	 	 	 	 	 	 	 	 	 	 	 	 	 	 	 	 	1581480638	10.60	19.63
12/02/2020 04:10:39	120220	12022020	041039	195.59	13.407900	-56.993158	195.75	-0.680	-0.480	2.720	195.59	-1.80	3.20	 	 	 	 	 	 	 	 	 	 	 	 	 	 	 	 	 	 	1581480639	10.92	20.22
12/02/2020 04:10:40	120220	12022020	041040	195.65	13.407850	-56.993182	195.84	-0.630	-0.820	3.070	195.65	-2.20	3.60	 	 	 	 	 	 	 	 	 	 	 	 	 	 	 	 	 	 	1581480640	11.75	21.76
12/02/2020 04:10:41	120220	12022020	041041	196.02	13.407800	-56.993203	196.23	-0.530	-0.590	2.960	196.02	-1.90	3.40	 	 	 	 	 	 	 	 	 	 	 	 	 	 	 	 	 	 	1581480641	12.01	22.24
12/02/2020 04:10:42	120220	12022020	041042	196.39	13.407753	-56.993220	196.63	-0.410	0.060	2.330	196.46	-1.30	2.80	 	 	 	 	 	 	 	 	 	 	 	 	 	 	 	 	 	 	1581480642	11.42	21.15
12/02/2020 04:10:43	120220	12022020	041043	196.73	13.407705	-56.993233	196.88	-0.140	0.390	1.470	196.73	-1.00	1.90	 	 	 	 	 	 	 	 	 	 	 	 	 	 	 	 	 	 	1581480643	10.73	19.87
12/02/2020 04:10:44	120220	12022020	041044	196.88	13.407652	-56.993245	197.03	0.220	0.140	0.770	196.88	-1.20	1.30	 	 	 	 	 	 	 	 	 	 	 	 	 	 	 	 	 	 	1581480644	10.86	20.11
12/02/2020 04:10:45	120220	12022020	041045	196.84	13.407600	-56.993257	196.96	0.490	-0.440	0.610	196.84	-1.80	1.10	 	 	 	 	 	 	 	 	 	 	 	 	 	 	 	 	 	 	1581480645	11.45	21.21
12/02/2020 04:10:46	120220	12022020	041046	196.52	13.407547	-56.993272	196.64	0.510	-0.930	0.730	196.52	-2.30	1.20	 	 	 	 	 	 	 	 	 	 	 	 	 	 	 	 	 	 	1581480646	11.76	21.78
12/02/2020 04:10:47	120220	12022020	041047	196.12	13.407495	-56.993287	196.25	0.260	-0.960	1.030	196.12	-2.30	1.50	 	 	 	 	 	 	 	 	 	 	 	 	 	 	 	 	 	 	1581480647	11.77	21.80
12/02/2020 04:10:48	120220	12022020	041048	195.90	13.407447	-56.993305	196.03	-0.110	-0.550	1.340	195.90	-1.90	1.80	 	 	 	 	 	 	 	 	 	 	 	 	 	 	 	 	 	 	1581480648	11.45	21.21
12/02/2020 04:10:49	120220	12022020	041049	195.89	13.407398	-56.993322	196.03	-0.360	-0.020	1.410	195.89	-1.30	1.90	 	 	 	 	 	 	 	 	 	 	 	 	 	 	 	 	 	 	1581480649	11.08	20.52
12/02/2020 04:10:50	120220	12022020	041050	195.92	13.407350	-56.993338	196.07	-0.390	0.190	1.450	195.92	-1.20	1.90	 	 	 	 	 	 	 	 	 	 	 	 	 	 	 	 	 	 	1581480650	10.91	20.21
12/02/2020 04:10:51	120220	12022020	041051	195.93	13.407300	-56.993357	196.06	-0.300	0.100	1.580	195.93	-1.30	2.10	 	 	 	 	 	 	 	 	 	 	 	 	 	 	 	 	 	 	1581480651	11.18	20.71
12/02/2020 04:10:52	120220	12022020	041052	195.78	13.407250	-56.993375	195.90	-0.180	-0.090	1.910	195.78	-1.40	2.40	 	 	 	 	 	 	 	 	 	 	 	 	 	 	 	 	 	 	1581480652	11.44	21.19
12/02/2020 04:10:53	120220	12022020	041053	195.50	13.407200	-56.993395	195.63	0.010	-0.300	2.200	195.50	-1.60	2.70	 	 	 	 	 	 	 	 	 	 	 	 	 	 	 	 	 	 	1581480653	11.45	21.21
12/02/2020 04:10:54	120220	12022020	041054	195.37	13.407150	-56.993412	195.50	0.190	-0.320	2.270	195.35	-1.70	2.70	 	 	 	 	 	 	 	 	 	 	 	 	 	 	 	 	 	 	1581480654	11.42	21.15
12/02/2020 04:10:55	120220	12022020	041055	195.43	13.407102	-56.993427	195.57	0.240	-0.130	2.060	195.43	-1.50	2.50	 	 	 	 	 	 	 	 	 	 	 	 	 	 	 	 	 	 	1581480655	11.22	20.78
12/02/2020 04:10:56	120220	12022020	041056	195.59	13.407053	-56.993440	195.73	0.220	-0.060	1.640	195.59	-1.40	2.10	 	 	 	 	 	 	 	 	 	 	 	 	 	 	 	 	 	 	1581480656	10.89	20.17
12/02/2020 04:10:57	120220	12022020	041057	195.79	13.407003	-56.993455	195.93	0.240	-0.270	1.380	195.79	-1.60	1.90	 	 	 	 	 	 	 	 	 	 	 	 	 	 	 	 	 	 	1581480657	10.91	20.21
12/02/2020 04:10:58	120220	12022020	041058	196.06	13.406953	-56.993472	196.20	0.300	-0.510	1.370	196.06	-1.90	1.90	 	 	 	 	 	 	 	 	 	 	 	 	 	 	 	 	 	 	1581480658	11.21	20.76
12/02/2020 04:10:59	120220	12022020	041059	196.30	13.406903	-56.993487	196.42	0.350	-0.670	1.440	196.30	-2.00	1.90	 	 	 	 	 	 	 	 	 	 	 	 	 	 	 	 	 	 	1581480659	11.27	20.87
12/02/2020 04:11:00	120220	12022020	041100	196.38	13.406852	-56.993502	196.49	0.340	-0.850	1.500	196.38	-2.20	2.00	 	 	 	 	 	 	 	 	 	 	 	 	 	 	 	 	 	 	1581480660	11.22	20.78
12/02/2020 04:11:01	120220	12022020	041101	196.38	13.406802	-56.993518	196.49	0.110	-0.950	1.720	196.38	-2.30	2.20	1017.00	25.90	26.00	21.10	21.20	-1.0	74.0	74.0	404.0	25.6	261.00	8.70	66.00	11.10	16	7817.0	27.2	27.2	1581480661	11.38	21.08
12/02/2020 04:11:02	120220	12022020	041102	196.34	13.406752	-56.993535	196.45	-0.290	-0.870	1.920	196.34	-2.20	2.40	 	 	 	 	 	 	 	 	 	 	 	 	 	 	 	 	 	 	1581480662	11.48	21.26
12/02/2020 04:11:03	120220	12022020	041103	196.05	13.406700	-56.993552	196.15	-0.550	-0.780	2.000	196.05	-2.10	2.50	 	 	 	 	 	 	 	 	 	 	 	 	 	 	 	 	 	 	1581480663	11.39	21.09
12/02/2020 04:11:04	120220	12022020	041104	195.61	13.406647	-56.993568	195.72	-0.510	-0.650	1.980	195.61	-2.00	2.40	 	 	 	 	 	 	 	 	 	 	 	 	 	 	 	 	 	 	1581480664	11.57	21.43
12/02/2020 04:11:05	120220	12022020	041105	195.37	13.406597	-56.993583	195.49	-0.410	-0.140	1.760	195.37	-1.40	2.20	 	 	 	 	 	 	 	 	 	 	 	 	 	 	 	 	 	 	1581480665	11.78	21.82
12/02/2020 04:11:06	120220	12022020	041106	195.31	13.406547	-56.993598	195.42	-0.470	0.520	1.540	195.31	-0.80	2.00	 	 	 	 	 	 	 	 	 	 	 	 	 	 	 	 	 	 	1581480666	11.47	21.24
12/02/2020 04:11:07	120220	12022020	041107	195.29	13.406497	-56.993617	195.42	-0.600	0.760	1.620	195.29	-0.60	2.10	 	 	 	 	 	 	 	 	 	 	 	 	 	 	 	 	 	 	1581480667	11.09	20.54
12/02/2020 04:11:08	120220	12022020	041108	195.36	13.406447	-56.993637	195.51	-0.510	0.550	1.860	195.36	-0.80	2.30	 	 	 	 	 	 	 	 	 	 	 	 	 	 	 	 	 	 	1581480668	11.30	20.93
12/02/2020 04:11:09	120220	12022020	041109	195.72	13.406397	-56.993657	195.90	-0.080	0.410	1.710	195.72	-0.90	2.20	 	 	 	 	 	 	 	 	 	 	 	 	 	 	 	 	 	 	1581480669	11.67	21.61
12/02/2020 04:11:10	120220	12022020	041110	196.38	13.406348	-56.993670	196.57	0.540	0.420	1.120	196.38	-0.90	1.60	 	 	 	 	 	 	 	 	 	 	 	 	 	 	 	 	 	 	1581480670	11.37	21.06
12/02/2020 04:11:11	120220	12022020	041111	196.93	13.406300	-56.993682	197.08	1.070	0.030	0.740	196.93	-1.40	1.20	 	 	 	 	 	 	 	 	 	 	 	 	 	 	 	 	 	 	1581480671	10.80	20.00
12/02/2020 04:11:12	120220	12022020	041112	197.10	13.406248	-56.993695	197.25	1.260	-0.820	0.870	197.10	-2.20	1.40	 	 	 	 	 	 	 	 	 	 	 	 	 	 	 	 	 	 	1581480672	10.95	20.28
12/02/2020 04:11:13	120220	12022020	041113	197.10	13.406197	-56.993712	197.23	0.920	-1.450	1.370	197.10	-2.80	1.90	 	 	 	 	 	 	 	 	 	 	 	 	 	 	 	 	 	 	1581480673	11.48	21.26
12/02/2020 04:11:14	120220	12022020	041114	197.01	13.406148	-56.993730	197.15	0.240	-1.530	1.950	197.01	-2.90	2.40	 	 	 	 	 	 	 	 	 	 	 	 	 	 	 	 	 	 	1581480674	11.43	21.17
12/02/2020 04:11:15	120220	12022020	041115	196.77	13.406102	-56.993752	196.89	-0.300	-1.320	2.370	196.77	-2.70	2.90	 	 	 	 	 	 	 	 	 	 	 	 	 	 	 	 	 	 	1581480675	11.08	20.52
12/02/2020 04:11:16	120220	12022020	041116	196.38	13.406052	-56.993770	196.48	-0.410	-1.020	2.380	196.38	-2.40	2.80	 	 	 	 	 	 	 	 	 	 	 	 	 	 	 	 	 	 	1581480676	11.09	20.54
12/02/2020 04:11:17	120220	12022020	041117	196.16	13.406002	-56.993785	196.26	-0.390	-0.550	1.960	196.16	-1.90	2.40	 	 	 	 	 	 	 	 	 	 	 	 	 	 	 	 	 	 	1581480677	11.36	21.04
12/02/2020 04:11:18	120220	12022020	041118	196.12	13.405950	-56.993800	196.22	-0.510	-0.120	1.560	196.11	-1.50	2.00	 	 	 	 	 	 	 	 	 	 	 	 	 	 	 	 	 	 	1581480678	11.40	21.11
12/02/2020 04:11:19	120220	12022020	041119	196.04	13.405898	-56.993817	196.12	-0.680	0.010	1.420	196.04	-1.30	1.90	 	 	 	 	 	 	 	 	 	 	 	 	 	 	 	 	 	 	1581480679	11.43	21.17
12/02/2020 04:11:20	120220	12022020	041120	195.78	13.405845	-56.993835	195.86	-0.600	-0.120	1.590	195.78	-1.50	2.10	 	 	 	 	 	 	 	 	 	 	 	 	 	 	 	 	 	 	1581480680	11.73	21.72
12/02/2020 04:11:21	120220	12022020	041121	195.57	13.405792	-56.993853	195.68	-0.280	-0.140	1.790	195.56	-1.50	2.30	 	 	 	 	 	 	 	 	 	 	 	 	 	 	 	 	 	 	1581480681	12.05	22.32
12/02/2020 04:11:22	120220	12022020	041122	195.69	13.405742	-56.993868	195.83	-0.040	0.290	1.730	195.69	-1.00	2.20	 	 	 	 	 	 	 	 	 	 	 	 	 	 	 	 	 	 	1581480682	11.97	22.17
12/02/2020 04:11:23	120220	12022020	041123	195.99	13.405693	-56.993883	196.12	-0.020	0.760	1.590	195.99	-0.60	2.10	 	 	 	 	 	 	 	 	 	 	 	 	 	 	 	 	 	 	1581480683	11.29	20.91
12/02/2020 04:11:24	120220	12022020	041124	196.30	13.405645	-56.993900	196.44	-0.100	0.780	1.470	196.30	-0.60	1.90	 	 	 	 	 	 	 	 	 	 	 	 	 	 	 	 	 	 	1581480684	10.84	20.08
12/02/2020 04:11:25	120220	12022020	041125	196.65	13.405595	-56.993918	196.77	-0.040	0.340	1.400	196.65	-1.00	1.90	 	 	 	 	 	 	 	 	 	 	 	 	 	 	 	 	 	 	1581480685	11.02	20.41
12/02/2020 04:11:26	120220	12022020	041126	196.82	13.405545	-56.993935	196.95	0.310	-0.360	1.410	196.82	-1.70	1.90	 	 	 	 	 	 	 	 	 	 	 	 	 	 	 	 	 	 	1581480686	11.25	20.84
12/02/2020 04:11:27	120220	12022020	041127	196.88	13.405493	-56.993952	197.01	0.780	-1.010	1.450	196.88	-2.40	1.90	 	 	 	 	 	 	 	 	 	 	 	 	 	 	 	 	 	 	1581480687	11.46	21.22
12/02/2020 04:11:28	120220	12022020	041128	196.94	13.405443	-56.993965	197.10	0.970	-1.300	1.500	196.94	-2.70	2.00	 	 	 	 	 	 	 	 	 	 	 	 	 	 	 	 	 	 	1581480688	11.53	21.35
12/02/2020 04:11:29	120220	12022020	041129	197.07	13.405395	-56.993980	197.22	0.690	-1.170	1.580	197.07	-2.50	2.10	 	 	 	 	 	 	 	 	 	 	 	 	 	 	 	 	 	 	1581480689	11.29	20.91
12/02/2020 04:11:30	120220	12022020	041130	197.05	13.405345	-56.993997	197.15	0.150	-1.000	1.880	197.05	-2.40	2.40	 	 	 	 	 	 	 	 	 	 	 	 	 	 	 	 	 	 	1581480690	10.96	20.30
12/02/2020 04:11:31	120220	12022020	041131	196.62	13.405295	-56.994017	196.71	-0.310	-0.980	2.380	196.62	-2.30	2.90	 	 	 	 	 	 	 	 	 	 	 	 	 	 	 	 	 	 	1581480691	11.08	20.52
12/02/2020 04:11:32	120220	12022020	041132	196.23	13.405243	-56.994037	196.26	-0.630	-0.780	2.730	196.15	-2.10	3.20	 	 	 	 	 	 	 	 	 	 	 	 	 	 	 	 	 	 	1581480692	11.61	21.50
12/02/2020 04:11:33	120220	12022020	041133	195.78	13.405193	-56.994057	195.90	-0.820	-0.360	2.730	195.78	-1.70	3.20	 	 	 	 	 	 	 	 	 	 	 	 	 	 	 	 	 	 	1581480693	11.75	21.76
12/02/2020 04:11:34	120220	12022020	041134	195.55	13.405143	-56.994075	195.67	-0.760	0.070	2.450	195.55	-1.30	2.90	 	 	 	 	 	 	 	 	 	 	 	 	 	 	 	 	 	 	1581480694	11.60	21.48
12/02/2020 04:11:35	120220	12022020	041135	195.45	13.405092	-56.994092	195.58	-0.400	0.360	2.040	195.45	-1.00	2.50	 	 	 	 	 	 	 	 	 	 	 	 	 	 	 	 	 	 	1581480695	11.56	21.41
12/02/2020 04:11:36	120220	12022020	041136	195.55	13.405040	-56.994107	195.69	0.070	0.500	1.560	195.55	-0.90	2.00	 	 	 	 	 	 	 	 	 	 	 	 	 	 	 	 	 	 	1581480696	11.62	21.52
12/02/2020 04:11:37	120220	12022020	041137	195.98	13.404988	-56.994120	196.12	0.390	0.610	1.030	195.98	-0.80	1.50	 	 	 	 	 	 	 	 	 	 	 	 	 	 	 	 	 	 	1581480697	11.64	21.56
12/02/2020 04:11:38	120220	12022020	041138	196.67	13.404938	-56.994133	196.82	0.450	0.620	0.670	196.67	-0.80	1.20	 	 	 	 	 	 	 	 	 	 	 	 	 	 	 	 	 	 	1581480698	11.37	21.06
12/02/2020 04:11:39	120220	12022020	041139	197.31	13.404888	-56.994147	197.44	0.370	0.300	0.630	197.31	-1.10	1.10	 	 	 	 	 	 	 	 	 	 	 	 	 	 	 	 	 	 	1581480699	11.06	20.48
12/02/2020 04:11:40	120220	12022020	041140	197.61	13.404838	-56.994163	197.74	0.370	-0.510	1.040	197.61	-1.90	1.50	 	 	 	 	 	 	 	 	 	 	 	 	 	 	 	 	 	 	1581480700	11.03	20.43
12/02/2020 04:11:41	120220	12022020	041141	197.68	13.404787	-56.994182	197.79	0.430	-1.480	1.600	197.68	-2.90	2.10	 	 	 	 	 	 	 	 	 	 	 	 	 	 	 	 	 	 	1581480701	11.46	21.22
12/02/2020 04:11:42	120220	12022020	041142	197.57	13.404735	-56.994202	197.69	0.390	-1.990	2.120	197.57	-3.40	2.60	 	 	 	 	 	 	 	 	 	 	 	 	 	 	 	 	 	 	1581480702	11.83	21.91
12/02/2020 04:11:43	120220	12022020	041143	197.12	13.404687	-56.994222	197.20	0.250	-1.850	2.550	197.12	-3.20	3.00	 	 	 	 	 	 	 	 	 	 	 	 	 	 	 	 	 	 	1581480703	11.70	21.67
12/02/2020 04:11:44	120220	12022020	041144	196.48	13.404637	-56.994238	196.41	0.030	-1.250	2.780	196.33	-2.60	3.20	 	 	 	 	 	 	 	 	 	 	 	 	 	 	 	 	 	 	1581480704	11.36	21.04
12/02/2020 04:11:45	120220	12022020	041145	195.82	13.404587	-56.994257	195.93	-0.410	-0.300	2.620	195.82	-1.60	3.10	 	 	 	 	 	 	 	 	 	 	 	 	 	 	 	 	 	 	1581480705	11.35	21.02
12/02/2020 04:11:46	120220	12022020	041146	195.90	13.404538	-56.994275	196.04	-0.940	0.640	2.160	195.90	-0.70	2.60	 	 	 	 	 	 	 	 	 	 	 	 	 	 	 	 	 	 	1581480706	11.27	20.87
12/02/2020 04:11:47	120220	12022020	041147	196.30	13.404488	-56.994293	196.45	-1.130	1.180	1.450	196.30	-0.20	1.90	 	 	 	 	 	 	 	 	 	 	 	 	 	 	 	 	 	 	1581480707	11.18	20.71
12/02/2020 04:11:48	120220	12022020	041148	196.80	13.404437	-56.994308	196.93	-0.660	1.150	0.690	196.80	-0.20	1.10	 	 	 	 	 	 	 	 	 	 	 	 	 	 	 	 	 	 	1581480708	11.31	20.95
12/02/2020 04:11:49	120220	12022020	041149	197.19	13.404383	-56.994323	197.31	0.200	0.530	0.430	197.19	-0.90	0.90	 	 	 	 	 	 	 	 	 	 	 	 	 	 	 	 	 	 	1581480709	11.63	21.54
12/02/2020 04:11:50	120220	12022020	041150	197.37	13.404328	-56.994338	197.48	0.810	-0.370	0.710	197.37	-1.80	1.20	 	 	 	 	 	 	 	 	 	 	 	 	 	 	 	 	 	 	1581480710	12.00	22.22
12/02/2020 04:11:51	120220	12022020	041151	197.30	13.404277	-56.994357	197.39	0.750	-0.950	1.370	197.30	-2.30	1.90	 	 	 	 	 	 	 	 	 	 	 	 	 	 	 	 	 	 	1581480711	12.12	22.45
12/02/2020 04:11:52	120220	12022020	041152	197.11	13.404230	-56.994377	197.20	0.220	-0.930	2.040	197.11	-2.30	2.50	 	 	 	 	 	 	 	 	 	 	 	 	 	 	 	 	 	 	1581480712	11.69	21.65
12/02/2020 04:11:53	120220	12022020	041153	196.96	13.404183	-56.994397	197.04	-0.200	-0.570	2.270	196.96	-1.90	2.70	 	 	 	 	 	 	 	 	 	 	 	 	 	 	 	 	 	 	1581480713	11.05	20.46
12/02/2020 04:11:54	120220	12022020	041154	196.83	13.404135	-56.994415	196.92	-0.110	-0.420	2.030	196.83	-1.80	2.50	 	 	 	 	 	 	 	 	 	 	 	 	 	 	 	 	 	 	1581480714	10.68	19.78
12/02/2020 04:11:55	120220	12022020	041155	196.87	13.404085	-56.994430	196.97	0.290	-0.480	1.480	196.87	-1.90	1.90	 	 	 	 	 	 	 	 	 	 	 	 	 	 	 	 	 	 	1581480715	10.98	20.33
12/02/2020 04:11:56	120220	12022020	041156	197.13	13.404033	-56.994445	197.24	0.540	-0.590	1.040	197.13	-2.00	1.50	 	 	 	 	 	 	 	 	 	 	 	 	 	 	 	 	 	 	1581480716	11.38	21.08
12/02/2020 04:11:57	120220	12022020	041157	197.35	13.403983	-56.994462	197.46	0.440	-0.630	1.010	197.35	-2.00	1.50	 	 	 	 	 	 	 	 	 	 	 	 	 	 	 	 	 	 	1581480717	11.47	21.24
12/02/2020 04:11:58	120220	12022020	041158	197.38	13.403933	-56.994478	197.48	0.140	-0.530	1.290	197.38	-1.90	1.80	 	 	 	 	 	 	 	 	 	 	 	 	 	 	 	 	 	 	1581480718	11.43	21.17
12/02/2020 04:11:59	120220	12022020	041159	197.13	13.403883	-56.994497	197.23	-0.230	-0.460	1.860	197.13	-1.80	2.40	 	 	 	 	 	 	 	 	 	 	 	 	 	 	 	 	 	 	1581480719	11.34	21.00
12/02/2020 04:12:00	120220	12022020	041200	196.70	13.403832	-56.994518	196.81	-0.540	-0.490	2.460	196.70	-1.90	2.90	 	 	 	 	 	 	 	 	 	 	 	 	 	 	 	 	 	 	1581480720	11.49	21.28
12/02/2020 04:12:01	120220	12022020	041201	196.34	13.403782	-56.994542	196.47	-0.720	-0.280	2.700	196.34	-1.60	3.20	1016.90	25.90	26.00	21.10	21.20	-1.0	74.0	74.0	407.0	25.6	262.00	8.60	67.00	11.10	15	7774.0	27.2	27.2	1581480721	11.83	21.91
12/02/2020 04:12:02	120220	12022020	041202	196.32	13.403733	-56.994560	196.44	-0.690	0.380	2.290	196.32	-1.00	2.70	 	 	 	 	 	 	 	 	 	 	 	 	 	 	 	 	 	 	1581480722	11.73	21.72
12/02/2020 04:12:03	120220	12022020	041203	196.54	13.403685	-56.994575	196.66	-0.450	0.870	1.500	196.54	-0.50	1.90	 	 	 	 	 	 	 	 	 	 	 	 	 	 	 	 	 	 	1581480723	11.09	20.54
12/02/2020 04:12:04	120220	12022020	041204	196.81	13.403635	-56.994588	196.90	0.020	0.560	0.850	196.81	-0.80	1.30	 	 	 	 	 	 	 	 	 	 	 	 	 	 	 	 	 	 	1581480724	10.83	20.06
12/02/2020 04:12:05	120220	12022020	041205	196.83	13.403582	-56.994603	196.92	0.560	-0.390	0.890	196.83	-1.80	1.40	 	 	 	 	 	 	 	 	 	 	 	 	 	 	 	 	 	 	1581480725	11.36	21.04
12/02/2020 04:12:06	120220	12022020	041206	196.62	13.403528	-56.994620	196.69	0.860	-1.230	1.390	196.62	-2.60	1.90	 	 	 	 	 	 	 	 	 	 	 	 	 	 	 	 	 	 	1581480726	11.97	22.17
12/02/2020 04:12:07	120220	12022020	041207	196.29	13.403478	-56.994637	196.36	0.710	-1.360	1.990	196.29	-2.70	2.50	 	 	 	 	 	 	 	 	 	 	 	 	 	 	 	 	 	 	1581480727	11.96	22.15
12/02/2020 04:12:08	120220	12022020	041208	196.00	13.403432	-56.994655	196.09	0.210	-0.830	2.530	196.00	-2.20	3.00	 	 	 	 	 	 	 	 	 	 	 	 	 	 	 	 	 	 	1581480728	11.34	21.00
12/02/2020 04:12:09	120220	12022020	041209	195.90	13.403385	-56.994675	196.01	-0.270	-0.210	2.700	195.89	-1.60	3.20	 	 	 	 	 	 	 	 	 	 	 	 	 	 	 	 	 	 	1581480729	10.76	19.93
12/02/2020 04:12:10	120220	12022020	041210	195.93	13.403337	-56.994693	196.05	-0.350	0.080	2.510	195.93	-1.30	3.00	 	 	 	 	 	 	 	 	 	 	 	 	 	 	 	 	 	 	1581480730	10.69	19.80
12/02/2020 04:12:11	120220	12022020	041211	196.00	13.403285	-56.994710	196.13	-0.080	-0.150	2.240	196.02	-1.50	2.70	 	 	 	 	 	 	 	 	 	 	 	 	 	 	 	 	 	 	1581480731	11.06	20.48
12/02/2020 04:12:12	120220	12022020	041212	196.21	13.403232	-56.994727	196.32	0.190	-0.490	2.050	196.21	-1.90	2.50	 	 	 	 	 	 	 	 	 	 	 	 	 	 	 	 	 	 	1581480732	11.68	21.63
12/02/2020 04:12:13	120220	12022020	041213	196.60	13.403182	-56.994743	196.71	0.110	-0.350	1.950	196.60	-1.70	2.40	 	 	 	 	 	 	 	 	 	 	 	 	 	 	 	 	 	 	1581480733	11.92	22.08
12/02/2020 04:12:14	120220	12022020	041214	196.95	13.403135	-56.994760	197.07	-0.240	0.010	1.930	196.95	-1.40	2.40	 	 	 	 	 	 	 	 	 	 	 	 	 	 	 	 	 	 	1581480734	11.36	21.04
12/02/2020 04:12:15	120220	12022020	041215	196.89	13.403085	-56.994780	196.98	-0.440	-0.140	2.170	196.89	-1.50	2.70	 	 	 	 	 	 	 	 	 	 	 	 	 	 	 	 	 	 	1581480735	10.85	20.09
12/02/2020 04:12:16	120220	12022020	041216	196.46	13.403033	-56.994798	196.57	-0.290	-0.590	2.490	196.46	-2.00	3.00	 	 	 	 	 	 	 	 	 	 	 	 	 	 	 	 	 	 	1581480736	11.35	21.02
12/02/2020 04:12:17	120220	12022020	041217	196.10	13.402982	-56.994817	196.23	-0.010	-0.620	2.430	196.10	-2.00	2.90	 	 	 	 	 	 	 	 	 	 	 	 	 	 	 	 	 	 	1581480737	11.91	22.06
12/02/2020 04:12:18	120220	12022020	041218	195.92	13.402932	-56.994830	196.05	0.200	-0.220	2.000	195.92	-1.60	2.50	 	 	 	 	 	 	 	 	 	 	 	 	 	 	 	 	 	 	1581480738	11.59	21.46
12/02/2020 04:12:19	120220	12022020	041219	195.83	13.402882	-56.994842	195.93	0.300	0.120	1.490	195.83	-1.20	2.00	 	 	 	 	 	 	 	 	 	 	 	 	 	 	 	 	 	 	1581480739	11.06	20.48
12/02/2020 04:12:20	120220	12022020	041220	195.91	13.402832	-56.994855	196.05	0.350	0.150	1.170	195.91	-1.20	1.70	 	 	 	 	 	 	 	 	 	 	 	 	 	 	 	 	 	 	1581480740	11.01	20.39
12/02/2020 04:12:21	120220	12022020	041221	196.17	13.402780	-56.994868	196.41	0.310	-0.040	1.140	196.26	-1.40	1.60	 	 	 	 	 	 	 	 	 	 	 	 	 	 	 	 	 	 	1581480741	11.26	20.85
12/02/2020 04:12:22	120220	12022020	041222	196.76	13.402730	-56.994887	196.94	0.180	-0.330	1.400	196.76	-1.70	1.90	 	 	 	 	 	 	 	 	 	 	 	 	 	 	 	 	 	 	1581480742	11.37	21.06
12/02/2020 04:12:23	120220	12022020	041223	197.13	13.402682	-56.994905	197.29	0.040	-0.670	1.900	197.13	-2.00	2.40	 	 	 	 	 	 	 	 	 	 	 	 	 	 	 	 	 	 	1581480743	11.33	20.98
12/02/2020 04:12:24	120220	12022020	041224	197.01	13.402632	-56.994925	197.15	-0.000	-1.050	2.470	197.01	-2.40	3.00	 	 	 	 	 	 	 	 	 	 	 	 	 	 	 	 	 	 	1581480744	11.34	21.00
12/02/2020 04:12:25	120220	12022020	041225	196.64	13.402580	-56.994945	196.78	-0.090	-1.130	2.870	196.64	-2.50	3.40	 	 	 	 	 	 	 	 	 	 	 	 	 	 	 	 	 	 	1581480745	11.55	21.39
12/02/2020 04:12:26	120220	12022020	041226	196.29	13.402532	-56.994963	196.43	-0.350	-0.780	3.020	196.29	-2.10	3.50	 	 	 	 	 	 	 	 	 	 	 	 	 	 	 	 	 	 	1581480746	11.57	21.43
12/02/2020 04:12:27	120220	12022020	041227	196.10	13.402483	-56.994983	196.24	-0.600	-0.230	2.720	196.10	-1.60	3.20	 	 	 	 	 	 	 	 	 	 	 	 	 	 	 	 	 	 	1581480747	11.27	20.87
12/02/2020 04:12:28	120220	12022020	041228	196.20	13.402435	-56.995000	196.34	-0.600	0.230	2.000	196.20	-1.10	2.50	 	 	 	 	 	 	 	 	 	 	 	 	 	 	 	 	 	 	1581480748	11.15	20.65
12/02/2020 04:12:29	120220	12022020	041229	196.49	13.402383	-56.995015	196.63	-0.240	0.340	1.120	196.49	-1.00	1.60	 	 	 	 	 	 	 	 	 	 	 	 	 	 	 	 	 	 	1581480749	11.19	20.72
12/02/2020 04:12:30	120220	12022020	041230	196.82	13.402330	-56.995028	196.95	0.300	0.170	0.390	196.82	-1.20	0.90	 	 	 	 	 	 	 	 	 	 	 	 	 	 	 	 	 	 	1581480750	11.45	21.21
12/02/2020 04:12:31	120220	12022020	041231	197.00	13.402278	-56.995040	197.13	0.620	-0.030	0.240	197.00	-1.40	0.70	 	 	 	 	 	 	 	 	 	 	 	 	 	 	 	 	 	 	1581480751	11.65	21.58
12/02/2020 04:12:32	120220	12022020	041232	196.95	13.402227	-56.995055	197.07	0.570	-0.310	0.590	196.95	-1.70	1.10	 	 	 	 	 	 	 	 	 	 	 	 	 	 	 	 	 	 	1581480752	11.51	21.32
12/02/2020 04:12:33	120220	12022020	041233	196.78	13.402177	-56.995073	196.90	0.270	-0.670	1.230	196.78	-2.10	1.80	 	 	 	 	 	 	 	 	 	 	 	 	 	 	 	 	 	 	1581480753	11.42	21.15
12/02/2020 04:12:34	120220	12022020	041234	196.60	13.402127	-56.995093	196.66	-0.070	-0.860	1.920	196.55	-2.20	2.40	 	 	 	 	 	 	 	 	 	 	 	 	 	 	 	 	 	 	1581480754	11.53	21.35
12/02/2020 04:12:35	120220	12022020	041235	196.24	13.402078	-56.995113	196.35	-0.240	-0.730	2.280	196.24	-2.10	2.80	 	 	 	 	 	 	 	 	 	 	 	 	 	 	 	 	 	 	1581480755	11.51	21.32
12/02/2020 04:12:36	120220	12022020	041236	196.03	13.402030	-56.995132	196.12	-0.190	-0.350	2.270	196.00	-1.70	2.70	 	 	 	 	 	 	 	 	 	 	 	 	 	 	 	 	 	 	1581480756	11.31	20.95
12/02/2020 04:12:37	120220	12022020	041237	196.02	13.401980	-56.995147	196.16	-0.130	0.070	1.920	196.02	-1.30	2.40	 	 	 	 	 	 	 	 	 	 	 	 	 	 	 	 	 	 	1581480757	11.11	20.58
12/02/2020 04:12:38	120220	12022020	041238	196.29	13.401932	-56.995162	196.43	-0.210	0.240	1.520	196.29	-1.10	2.00	 	 	 	 	 	 	 	 	 	 	 	 	 	 	 	 	 	 	1581480758	11.02	20.41
12/02/2020 04:12:39	120220	12022020	041239	196.57	13.401882	-56.995180	196.71	-0.330	0.130	1.410	196.57	-1.30	1.90	 	 	 	 	 	 	 	 	 	 	 	 	 	 	 	 	 	 	1581480759	11.10	20.56
12/02/2020 04:12:40	120220	12022020	041240	196.69	13.401832	-56.995197	196.82	-0.220	-0.090	1.460	196.69	-1.50	1.90	 	 	 	 	 	 	 	 	 	 	 	 	 	 	 	 	 	 	1581480760	11.26	20.85
12/02/2020 04:12:41	120220	12022020	041241	196.54	13.401782	-56.995213	196.65	0.160	-0.490	1.670	196.54	-1.90	2.20	 	 	 	 	 	 	 	 	 	 	 	 	 	 	 	 	 	 	1581480761	11.29	20.91
12/02/2020 04:12:42	120220	12022020	041242	196.15	13.401728	-56.995230	196.24	0.540	-1.030	2.020	196.15	-2.40	2.50	 	 	 	 	 	 	 	 	 	 	 	 	 	 	 	 	 	 	1581480762	11.49	21.28
12/02/2020 04:12:43	120220	12022020	041243	195.69	13.401677	-56.995248	195.80	0.550	-1.230	2.340	195.69	-2.60	2.80	 	 	 	 	 	 	 	 	 	 	 	 	 	 	 	 	 	 	1581480763	11.83	21.91
12/02/2020 04:12:44	120220	12022020	041244	195.53	13.401628	-56.995265	195.65	0.110	-0.760	2.410	195.53	-2.10	2.90	 	 	 	 	 	 	 	 	 	 	 	 	 	 	 	 	 	 	1581480764	11.75	21.76
12/02/2020 04:12:45	120220	12022020	041245	195.72	13.401582	-56.995283	195.85	-0.430	0.090	2.210	195.72	-1.30	2.70	 	 	 	 	 	 	 	 	 	 	 	 	 	 	 	 	 	 	1581480765	11.14	20.63
12/02/2020 04:12:46	120220	12022020	041246	195.88	13.401533	-56.995300	195.98	-0.530	0.340	1.940	195.88	-1.00	2.40	 	 	 	 	 	 	 	 	 	 	 	 	 	 	 	 	 	 	1581480766	10.60	19.63
12/02/2020 04:12:47	120220	12022020	041247	195.79	13.401480	-56.995317	195.89	-0.110	-0.250	1.900	195.79	-1.60	2.40	 	 	 	 	 	 	 	 	 	 	 	 	 	 	 	 	 	 	1581480767	11.02	20.41
12/02/2020 04:12:48	120220	12022020	041248	195.69	13.401425	-56.995333	195.81	0.290	-0.850	1.990	195.69	-2.20	2.50	 	 	 	 	 	 	 	 	 	 	 	 	 	 	 	 	 	 	1581480768	12.09	22.39
12/02/2020 04:12:49	120220	12022020	041249	195.74	13.401372	-56.995348	195.87	0.260	-0.810	1.970	195.74	-2.20	2.50	 	 	 	 	 	 	 	 	 	 	 	 	 	 	 	 	 	 	1581480769	12.30	22.78
12/02/2020 04:12:50	120220	12022020	041250	196.01	13.401323	-56.995365	196.14	-0.160	-0.220	1.950	196.01	-1.60	2.40	 	 	 	 	 	 	 	 	 	 	 	 	 	 	 	 	 	 	1581480770	11.67	21.61
12/02/2020 04:12:51	120220	12022020	041251	196.44	13.401277	-56.995380	196.73	-0.570	0.500	1.800	196.57	-0.90	2.30	 	 	 	 	 	 	 	 	 	 	 	 	 	 	 	 	 	 	1581480771	11.02	20.41
12/02/2020 04:12:52	120220	12022020	041252	197.15	13.401228	-56.995398	197.29	-0.690	0.750	1.760	197.15	-0.60	2.30	 	 	 	 	 	 	 	 	 	 	 	 	 	 	 	 	 	 	1581480772	10.68	19.78
12/02/2020 04:12:53	120220	12022020	041253	197.29	13.401178	-56.995417	197.41	-0.380	0.270	1.910	197.29	-1.10	2.40	 	 	 	 	 	 	 	 	 	 	 	 	 	 	 	 	 	 	1581480773	10.88	20.15
12/02/2020 04:12:54	120220	12022020	041254	197.06	13.401127	-56.995437	197.17	0.230	-0.480	1.980	197.06	-1.90	2.50	 	 	 	 	 	 	 	 	 	 	 	 	 	 	 	 	 	 	1581480774	11.54	21.37
12/02/2020 04:12:55	120220	12022020	041255	196.76	13.401075	-56.995453	196.88	0.770	-0.860	1.830	196.76	-2.20	2.30	 	 	 	 	 	 	 	 	 	 	 	 	 	 	 	 	 	 	1581480775	11.95	22.13
12/02/2020 04:12:56	120220	12022020	041256	196.50	13.401025	-56.995465	196.61	0.940	-0.660	1.430	196.50	-2.00	1.90	 	 	 	 	 	 	 	 	 	 	 	 	 	 	 	 	 	 	1581480776	11.60	21.48
12/02/2020 04:12:57	120220	12022020	041257	196.25	13.400977	-56.995478	196.36	0.710	-0.320	1.120	196.25	-1.70	1.60	 	 	 	 	 	 	 	 	 	 	 	 	 	 	 	 	 	 	1581480777	10.97	20.32
12/02/2020 04:12:58	120220	12022020	041258	195.85	13.400927	-56.995493	195.96	0.330	-0.380	1.310	195.85	-1.80	1.80	 	 	 	 	 	 	 	 	 	 	 	 	 	 	 	 	 	 	1581480778	10.73	19.87
12/02/2020 04:12:59	120220	12022020	041259	195.43	13.400875	-56.995512	195.55	-0.010	-0.670	1.710	195.43	-2.00	2.20	 	 	 	 	 	 	 	 	 	 	 	 	 	 	 	 	 	 	1581480779	11.19	20.72
12/02/2020 04:13:00	120220	12022020	041300	195.42	13.400825	-56.995532	195.55	-0.350	-0.710	1.880	195.42	-2.10	2.40	 	 	 	 	 	 	 	 	 	 	 	 	 	 	 	 	 	 	1581480780	11.72	21.71
12/02/2020 04:13:01	120220	12022020	041301	195.63	13.400777	-56.995552	195.76	-0.620	-0.600	1.970	195.63	-2.00	2.50	1017.00	26.00	26.00	21.30	21.30	-1.0	75.0	75.0	410.0	25.6	261.00	9.00	67.00	11.50	15	6992.0	27.2	27.2	1581480781	11.59	21.46
12/02/2020 04:13:02	120220	12022020	041302	195.80	13.400727	-56.995572	195.92	-0.600	-0.500	1.940	195.80	-1.90	2.40	 	 	 	 	 	 	 	 	 	 	 	 	 	 	 	 	 	 	1581480782	11.44	21.19
12/02/2020 04:13:03	120220	12022020	041303	196.01	13.400675	-56.995588	196.12	-0.270	-0.330	1.660	196.01	-1.70	2.10	 	 	 	 	 	 	 	 	 	 	 	 	 	 	 	 	 	 	1581480783	11.54	21.37
12/02/2020 04:13:04	120220	12022020	041304	196.36	13.400623	-56.995602	196.48	0.120	-0.090	1.160	196.36	-1.50	1.60	 	 	 	 	 	 	 	 	 	 	 	 	 	 	 	 	 	 	1581480784	11.53	21.35
12/02/2020 04:13:05	120220	12022020	041305	196.67	13.400572	-56.995615	196.85	0.260	0.030	0.910	196.73	-1.40	1.40	 	 	 	 	 	 	 	 	 	 	 	 	 	 	 	 	 	 	1581480785	11.43	21.17
12/02/2020 04:13:06	120220	12022020	041306	196.88	13.400520	-56.995630	196.99	0.100	-0.140	1.180	196.88	-1.50	1.70	 	 	 	 	 	 	 	 	 	 	 	 	 	 	 	 	 	 	1581480786	11.38	21.08
12/02/2020 04:13:07	120220	12022020	041307	196.79	13.400470	-56.995648	196.90	-0.210	-0.340	1.660	196.79	-1.70	2.20	 	 	 	 	 	 	 	 	 	 	 	 	 	 	 	 	 	 	1581480787	11.56	21.41
12/02/2020 04:13:08	120220	12022020	041308	196.56	13.400420	-56.995668	196.68	-0.520	-0.330	2.250	196.56	-1.70	2.70	 	 	 	 	 	 	 	 	 	 	 	 	 	 	 	 	 	 	1581480788	11.62	21.52
12/02/2020 04:13:09	120220	12022020	041309	196.26	13.400372	-56.995688	196.37	-0.620	-0.300	2.570	196.26	-1.70	3.00	 	 	 	 	 	 	 	 	 	 	 	 	 	 	 	 	 	 	1581480789	11.40	21.11
12/02/2020 04:13:10	120220	12022020	041310	195.85	13.400320	-56.995708	195.95	-0.310	-0.370	2.530	195.85	-1.70	3.00	 	 	 	 	 	 	 	 	 	 	 	 	 	 	 	 	 	 	1581480790	11.37	21.06
12/02/2020 04:13:11	120220	12022020	041311	195.42	13.400270	-56.995725	195.54	0.300	-0.390	2.260	195.42	-1.80	2.70	 	 	 	 	 	 	 	 	 	 	 	 	 	 	 	 	 	 	1581480791	11.53	21.35
12/02/2020 04:13:12	120220	12022020	041312	195.31	13.400218	-56.995737	195.43	0.790	-0.080	1.630	195.31	-1.40	2.10	 	 	 	 	 	 	 	 	 	 	 	 	 	 	 	 	 	 	1581480792	11.25	20.84
12/02/2020 04:13:13	120220	12022020	041313	195.43	13.400168	-56.995747	195.53	0.850	0.150	1.070	195.43	-1.20	1.60	 	 	 	 	 	 	 	 	 	 	 	 	 	 	 	 	 	 	1581480793	11.25	20.84
12/02/2020 04:13:14	120220	12022020	041314	195.54	13.400117	-56.995762	195.64	0.560	-0.040	1.150	195.54	-1.40	1.70	 	 	 	 	 	 	 	 	 	 	 	 	 	 	 	 	 	 	1581480794	11.12	20.59
12/02/2020 04:13:15	120220	12022020	041315	195.82	13.400067	-56.995778	195.95	0.080	-0.240	1.600	195.82	-1.60	2.10	 	 	 	 	 	 	 	 	 	 	 	 	 	 	 	 	 	 	1581480795	11.45	21.21
12/02/2020 04:13:16	120220	12022020	041316	196.11	13.400018	-56.995798	196.25	-0.350	-0.330	2.120	196.11	-1.70	2.60	 	 	 	 	 	 	 	 	 	 	 	 	 	 	 	 	 	 	1581480796	11.43	21.17
12/02/2020 04:13:17	120220	12022020	041317	196.22	13.399968	-56.995820	196.34	-0.470	-0.680	2.460	196.22	-2.10	2.90	 	 	 	 	 	 	 	 	 	 	 	 	 	 	 	 	 	 	1581480797	11.20	20.74
12/02/2020 04:13:18	120220	12022020	041318	196.23	13.399917	-56.995840	196.35	-0.260	-1.060	2.450	196.23	-2.40	2.90	 	 	 	 	 	 	 	 	 	 	 	 	 	 	 	 	 	 	1581480798	11.50	21.30
12/02/2020 04:13:19	120220	12022020	041319	196.26	13.399867	-56.995857	196.37	0.040	-1.030	2.120	196.26	-2.40	2.60	 	 	 	 	 	 	 	 	 	 	 	 	 	 	 	 	 	 	1581480799	11.71	21.69
12/02/2020 04:13:20	120220	12022020	041320	196.16	13.399818	-56.995872	196.25	0.180	-0.680	1.770	196.16	-2.00	2.30	 	 	 	 	 	 	 	 	 	 	 	 	 	 	 	 	 	 	1581480800	11.39	21.09
12/02/2020 04:13:21	120220	12022020	041321	195.90	13.399767	-56.995885	195.97	0.140	-0.410	1.560	195.90	-1.80	2.00	 	 	 	 	 	 	 	 	 	 	 	 	 	 	 	 	 	 	1581480801	11.07	20.50
12/02/2020 04:13:22	120220	12022020	041322	195.66	13.399715	-56.995900	195.76	0.040	-0.260	1.410	195.66	-1.60	1.90	 	 	 	 	 	 	 	 	 	 	 	 	 	 	 	 	 	 	1581480802	11.25	20.84
12/02/2020 04:13:23	120220	12022020	041323	195.61	13.399665	-56.995915	195.71	-0.010	-0.040	1.390	195.61	-1.40	1.90	 	 	 	 	 	 	 	 	 	 	 	 	 	 	 	 	 	 	1581480803	11.54	21.37
12/02/2020 04:13:24	120220	12022020	041324	195.68	13.399613	-56.995930	195.83	0.060	0.280	1.460	195.71	-1.10	2.00	 	 	 	 	 	 	 	 	 	 	 	 	 	 	 	 	 	 	1581480804	11.50	21.30
12/02/2020 04:13:25	120220	12022020	041325	195.95	13.399562	-56.995945	196.09	0.080	0.370	1.660	195.95	-1.00	2.20	 	 	 	 	 	 	 	 	 	 	 	 	 	 	 	 	 	 	1581480805	11.34	21.00
12/02/2020 04:13:26	120220	12022020	041326	196.01	13.399510	-56.995963	196.15	-0.100	-0.010	2.230	196.01	-1.40	2.70	 	 	 	 	 	 	 	 	 	 	 	 	 	 	 	 	 	 	1581480806	11.41	21.13
12/02/2020 04:13:27	120220	12022020	041327	195.88	13.399458	-56.995983	196.03	-0.390	-0.540	2.860	195.88	-1.90	3.40	 	 	 	 	 	 	 	 	 	 	 	 	 	 	 	 	 	 	1581480807	11.77	21.80
12/02/2020 04:13:28	120220	12022020	041328	195.90	13.399410	-56.996005	196.06	-0.590	-0.540	2.980	195.90	-1.90	3.50	 	 	 	 	 	 	 	 	 	 	 	 	 	 	 	 	 	 	1581480808	12.02	22.26
12/02/2020 04:13:29	120220	12022020	041329	195.95	13.399362	-56.996022	196.09	-0.410	-0.190	2.580	195.95	-1.60	3.00	 	 	 	 	 	 	 	 	 	 	 	 	 	 	 	 	 	 	1581480809	11.45	21.21
12/02/2020 04:13:30	120220	12022020	041330	195.86	13.399312	-56.996035	196.00	0.170	-0.190	1.920	195.86	-1.60	2.40	 	 	 	 	 	 	 	 	 	 	 	 	 	 	 	 	 	 	1581480810	10.86	20.11
12/02/2020 04:13:31	120220	12022020	041331	195.91	13.399258	-56.996047	196.04	0.670	-0.460	1.310	195.91	-1.80	1.80	 	 	 	 	 	 	 	 	 	 	 	 	 	 	 	 	 	 	1581480811	11.23	20.80
12/02/2020 04:13:32	120220	12022020	041332	196.12	13.399207	-56.996060	196.26	0.640	-0.580	0.980	196.12	-2.00	1.50	 	 	 	 	 	 	 	 	 	 	 	 	 	 	 	 	 	 	1581480812	11.61	21.50
12/02/2020 04:13:33	120220	12022020	041333	196.29	13.399158	-56.996077	196.42	0.180	-0.570	1.120	196.29	-1.90	1.60	 	 	 	 	 	 	 	 	 	 	 	 	 	 	 	 	 	 	1581480813	11.39	21.09
12/02/2020 04:13:34	120220	12022020	041334	196.33	13.399110	-56.996095	196.47	-0.230	-0.540	1.510	196.33	-1.90	2.00	 	 	 	 	 	 	 	 	 	 	 	 	 	 	 	 	 	 	1581480814	11.15	20.65
12/02/2020 04:13:35	120220	12022020	041335	196.27	13.399060	-56.996113	196.39	-0.320	-0.550	1.790	196.27	-1.90	2.30	 	 	 	 	 	 	 	 	 	 	 	 	 	 	 	 	 	 	1581480815	11.19	20.72
12/02/2020 04:13:36	120220	12022020	041336	196.14	13.399008	-56.996132	196.21	-0.190	-0.610	2.010	196.10	-2.00	2.50	 	 	 	 	 	 	 	 	 	 	 	 	 	 	 	 	 	 	1581480816	11.36	21.04
12/02/2020 04:13:37	120220	12022020	041337	195.81	13.398957	-56.996148	195.92	-0.060	-0.620	2.140	195.81	-2.00	2.60	 	 	 	 	 	 	 	 	 	 	 	 	 	 	 	 	 	 	1581480817	11.57	21.43
12/02/2020 04:13:38	120220	12022020	041338	195.63	13.398907	-56.996167	195.75	-0.070	-0.340	2.040	195.63	-1.70	2.50	 	 	 	 	 	 	 	 	 	 	 	 	 	 	 	 	 	 	1581480818	11.76	21.78
12/02/2020 04:13:39	120220	12022020	041339	195.71	13.398857	-56.996183	195.89	-0.120	0.310	1.660	195.77	-1.00	2.10	 	 	 	 	 	 	 	 	 	 	 	 	 	 	 	 	 	 	1581480819	11.58	21.45
12/02/2020 04:13:40	120220	12022020	041340	196.16	13.398808	-56.996195	196.29	-0.010	0.860	1.100	196.16	-0.50	1.60	 	 	 	 	 	 	 	 	 	 	 	 	 	 	 	 	 	 	1581480820	11.08	20.52
12/02/2020 04:13:41	120220	12022020	041341	196.41	13.398757	-56.996208	196.53	0.260	0.590	0.920	196.41	-0.80	1.40	 	 	 	 	 	 	 	 	 	 	 	 	 	 	 	 	 	 	1581480821	10.86	20.11
12/02/2020 04:13:42	120220	12022020	041342	196.45	13.398702	-56.996223	196.57	0.420	-0.240	1.250	196.45	-1.60	1.70	 	 	 	 	 	 	 	 	 	 	 	 	 	 	 	 	 	 	1581480822	11.47	21.24
12/02/2020 04:13:43	120220	12022020	041343	196.40	13.398652	-56.996243	196.52	0.260	-0.820	1.830	196.40	-2.20	2.30	 	 	 	 	 	 	 	 	 	 	 	 	 	 	 	 	 	 	1581480823	12.00	22.22
12/02/2020 04:13:44	120220	12022020	041344	196.30	13.398603	-56.996262	196.43	-0.140	-0.890	2.350	196.30	-2.30	2.80	 	 	 	 	 	 	 	 	 	 	 	 	 	 	 	 	 	 	1581480824	11.70	21.67
12/02/2020 04:13:45	120220	12022020	041345	196.03	13.398555	-56.996280	196.14	-0.400	-0.890	2.600	196.03	-2.30	3.10	 	 	 	 	 	 	 	 	 	 	 	 	 	 	 	 	 	 	1581480825	11.09	20.54
12/02/2020 04:13:46	120220	12022020	041346	195.60	13.398505	-56.996300	195.68	-0.310	-1.150	2.630	195.60	-2.50	3.10	 	 	 	 	 	 	 	 	 	 	 	 	 	 	 	 	 	 	1581480826	11.64	21.56
12/02/2020 04:13:47	120220	12022020	041347	195.23	13.398452	-56.996318	195.33	-0.040	-1.250	2.410	195.23	-2.60	2.90	 	 	 	 	 	 	 	 	 	 	 	 	 	 	 	 	 	 	1581480827	11.64	21.56
12/02/2020 04:13:48	120220	12022020	041348	195.10	13.398402	-56.996333	195.16	0.100	-0.710	1.900	195.09	-2.10	2.40	 	 	 	 	 	 	 	 	 	 	 	 	 	 	 	 	 	 	1581480828	11.82	21.89
12/02/2020 04:13:49	120220	12022020	041349	195.20	13.398353	-56.996347	195.28	-0.010	0.170	1.350	195.20	-1.20	1.80	 	 	 	 	 	 	 	 	 	 	 	 	 	 	 	 	 	 	1581480829	11.30	20.93
12/02/2020 04:13:50	120220	12022020	041350	195.49	13.398303	-56.996360	195.59	-0.200	0.680	0.990	195.49	-0.70	1.50	 	 	 	 	 	 	 	 	 	 	 	 	 	 	 	 	 	 	1581480830	10.78	19.96
12/02/2020 04:13:51	120220	12022020	041351	195.76	13.398252	-56.996375	195.85	-0.230	0.460	1.020	195.76	-0.90	1.50	 	 	 	 	 	 	 	 	 	 	 	 	 	 	 	 	 	 	1581480831	10.99	20.35
12/02/2020 04:13:52	120220	12022020	041352	195.94	13.398198	-56.996392	196.03	-0.010	-0.160	1.190	195.94	-1.60	1.70	 	 	 	 	 	 	 	 	 	 	 	 	 	 	 	 	 	 	1581480832	11.66	21.59
12/02/2020 04:13:53	120220	12022020	041353	196.15	13.398145	-56.996408	196.23	0.260	-0.620	1.320	196.15	-2.00	1.80	 	 	 	 	 	 	 	 	 	 	 	 	 	 	 	 	 	 	1581480833	12.15	22.50
12/02/2020 04:13:54	120220	12022020	041354	196.36	13.398093	-56.996423	196.46	0.380	-0.550	1.340	196.36	-1.90	1.80	 	 	 	 	 	 	 	 	 	 	 	 	 	 	 	 	 	 	1581480834	12.02	22.26
12/02/2020 04:13:55	120220	12022020	041355	196.53	13.398045	-56.996437	196.66	0.290	-0.050	1.220	196.57	-1.40	1.70	 	 	 	 	 	 	 	 	 	 	 	 	 	 	 	 	 	 	1581480835	11.42	21.15
12/02/2020 04:13:56	120220	12022020	041356	196.63	13.397997	-56.996450	196.72	0.030	0.310	1.280	196.63	-1.10	1.80	 	 	 	 	 	 	 	 	 	 	 	 	 	 	 	 	 	 	1581480836	10.80	20.00
12/02/2020 04:13:57	120220	12022020	041357	196.43	13.397947	-56.996468	196.42	-0.280	0.050	1.800	196.33	-1.40	2.30	 	 	 	 	 	 	 	 	 	 	 	 	 	 	 	 	 	 	1581480837	10.69	19.80
12/02/2020 04:13:58	120220	12022020	041358	195.67	13.397895	-56.996492	195.75	-0.400	-0.760	2.590	195.67	-2.20	3.10	 	 	 	 	 	 	 	 	 	 	 	 	 	 	 	 	 	 	1581480838	11.25	20.84
12/02/2020 04:13:59	120220	12022020	041359	195.15	13.397843	-56.996515	195.16	-0.270	-1.360	3.140	195.04	-2.70	3.60	 	 	 	 	 	 	 	 	 	 	 	 	 	 	 	 	 	 	1581480839	12.09	22.39
12/02/2020 04:14:00	120220	12022020	041400	194.88	13.397797	-56.996535	195.04	-0.010	-0.870	2.990	194.88	-2.20	3.40	 	 	 	 	 	 	 	 	 	 	 	 	 	 	 	 	 	 	1581480840	12.25	22.69
12/02/2020 04:14:01	120220	12022020	041401	195.28	13.397752	-56.996548	195.46	0.220	0.260	2.090	195.28	-1.10	2.50	1017.00	25.90	25.90	21.10	21.10	-1.0	74.0	75.0	412.0	25.6	262.00	8.90	67.00	11.30	15	8184.0	27.2	27.2	1581480841	11.14	20.63
12/02/2020 04:14:02	120220	12022020	041402	195.93	13.397703	-56.996558	196.29	0.350	0.750	1.030	196.10	-0.60	1.50	 	 	 	 	 	 	 	 	 	 	 	 	 	 	 	 	 	 	1581480842	10.06	18.63
12/02/2020 04:14:03	120220	12022020	041403	196.85	13.397653	-56.996572	197.17	0.430	0.170	0.500	197.00	-1.30	1.00	 	 	 	 	 	 	 	 	 	 	 	 	 	 	 	 	 	 	1581480843	10.40	19.26
12/02/2020 04:14:04	120220	12022020	041404	197.35	13.397598	-56.996585	197.48	0.550	-1.050	0.610	197.35	-2.50	1.10	 	 	 	 	 	 	 	 	 	 	 	 	 	 	 	 	 	 	1581480844	11.36	21.04
12/02/2020 04:14:05	120220	12022020	041405	197.19	13.397543	-56.996602	197.24	0.570	-1.940	1.130	197.13	-3.30	1.60	 	 	 	 	 	 	 	 	 	 	 	 	 	 	 	 	 	 	1581480845	12.13	22.46
12/02/2020 04:14:06	120220	12022020	041406	196.73	13.397493	-56.996620	196.86	0.210	-1.750	1.910	196.73	-3.10	2.40	 	 	 	 	 	 	 	 	 	 	 	 	 	 	 	 	 	 	1581480846	12.19	22.58
12/02/2020 04:14:07	120220	12022020	041407	196.30	13.397445	-56.996638	196.41	-0.410	-0.920	2.420	196.30	-2.30	2.90	 	 	 	 	 	 	 	 	 	 	 	 	 	 	 	 	 	 	1581480847	11.42	21.15
12/02/2020 04:14:08	120220	12022020	041408	195.86	13.397397	-56.996658	195.96	-0.890	-0.220	2.540	195.86	-1.60	3.00	 	 	 	 	 	 	 	 	 	 	 	 	 	 	 	 	 	 	1581480848	10.96	20.30
12/02/2020 04:14:09	120220	12022020	041409	195.57	13.397345	-56.996678	195.66	-0.920	0.190	2.490	195.54	-1.20	3.00	 	 	 	 	 	 	 	 	 	 	 	 	 	 	 	 	 	 	1581480849	11.34	21.00
12/02/2020 04:14:10	120220	12022020	041410	195.68	13.397293	-56.996697	195.82	-0.680	0.650	2.150	195.68	-0.70	2.60	 	 	 	 	 	 	 	 	 	 	 	 	 	 	 	 	 	 	1581480850	11.87	21.98
12/02/2020 04:14:11	120220	12022020	041411	196.08	13.397243	-56.996715	196.23	-0.450	1.000	1.860	196.08	-0.40	2.30	 	 	 	 	 	 	 	 	 	 	 	 	 	 	 	 	 	 	1581480851	11.70	21.67
12/02/2020 04:14:12	120220	12022020	041412	196.49	13.397195	-56.996735	196.64	-0.230	1.010	1.860	196.49	-0.40	2.30	 	 	 	 	 	 	 	 	 	 	 	 	 	 	 	 	 	 	1581480852	11.38	21.08
12/02/2020 04:14:13	120220	12022020	041413	196.82	13.397147	-56.996753	196.97	0.080	0.660	1.950	196.82	-0.80	2.40	 	 	 	 	 	 	 	 	 	 	 	 	 	 	 	 	 	 	1581480853	11.30	20.93
12/02/2020 04:14:14	120220	12022020	041414	197.01	13.397097	-56.996772	197.15	0.370	0.150	1.940	197.02	-1.30	2.40	 	 	 	 	 	 	 	 	 	 	 	 	 	 	 	 	 	 	1581480854	11.27	20.87
12/02/2020 04:14:15	120220	12022020	041415	196.96	13.397048	-56.996788	197.07	0.620	-0.440	1.820	196.96	-1.90	2.30	 	 	 	 	 	 	 	 	 	 	 	 	 	 	 	 	 	 	1581480855	11.12	20.59
12/02/2020 04:14:16	120220	12022020	041416	196.95	13.397000	-56.996802	197.07	0.900	-0.860	1.310	196.95	-2.20	1.80	 	 	 	 	 	 	 	 	 	 	 	 	 	 	 	 	 	 	1581480856	11.05	20.46
12/02/2020 04:14:17	120220	12022020	041417	197.26	13.396952	-56.996813	197.37	1.090	-0.890	0.620	197.26	-2.30	1.10	 	 	 	 	 	 	 	 	 	 	 	 	 	 	 	 	 	 	1581480857	10.93	20.24
12/02/2020 04:14:18	120220	12022020	041418	197.31	13.396903	-56.996825	197.38	1.060	-1.130	0.550	197.31	-2.50	1.10	 	 	 	 	 	 	 	 	 	 	 	 	 	 	 	 	 	 	1581480858	10.52	19.48
12/02/2020 04:14:19	120220	12022020	041419	196.78	13.396852	-56.996842	196.85	0.750	-1.760	1.340	196.78	-3.20	1.90	 	 	 	 	 	 	 	 	 	 	 	 	 	 	 	 	 	 	1581480859	10.78	19.96
12/02/2020 04:14:20	120220	12022020	041420	195.99	13.396800	-56.996863	196.06	0.090	-2.090	2.510	195.99	-3.50	3.00	 	 	 	 	 	 	 	 	 	 	 	 	 	 	 	 	 	 	1581480860	11.66	21.59
12/02/2020 04:14:21	120220	12022020	041421	195.30	13.396750	-56.996888	195.39	-0.770	-1.600	3.510	195.30	-2.90	4.00	 	 	 	 	 	 	 	 	 	 	 	 	 	 	 	 	 	 	1581480861	12.08	22.37
12/02/2020 04:14:22	120220	12022020	041422	194.92	13.396703	-56.996913	195.06	-1.460	-0.590	3.920	194.92	-1.90	4.40	 	 	 	 	 	 	 	 	 	 	 	 	 	 	 	 	 	 	1581480862	11.84	21.93
12/02/2020 04:14:23	120220	12022020	041423	194.99	13.396655	-56.996935	195.23	-1.660	0.500	3.600	195.06	-0.80	4.00	 	 	 	 	 	 	 	 	 	 	 	 	 	 	 	 	 	 	1581480863	11.56	21.41
12/02/2020 04:14:24	120220	12022020	041424	195.54	13.396605	-56.996953	195.72	-1.330	1.240	2.770	195.54	-0.10	3.20	 	 	 	 	 	 	 	 	 	 	 	 	 	 	 	 	 	 	1581480864	11.39	21.09
12/02/2020 04:14:25	120220	12022020	041425	196.05	13.396552	-56.996968	196.21	-0.620	1.360	1.880	196.05	-0.00	2.30	 	 	 	 	 	 	 	 	 	 	 	 	 	 	 	 	 	 	1581480865	11.37	21.06
12/02/2020 04:14:26	120220	12022020	041426	196.35	13.396498	-56.996982	196.53	0.180	0.930	1.280	196.39	-0.50	1.80	 	 	 	 	 	 	 	 	 	 	 	 	 	 	 	 	 	 	1581480866	11.61	21.50
12/02/2020 04:14:27	120220	12022020	041427	196.41	13.396445	-56.996993	196.53	0.800	0.250	1.140	196.40	-1.20	1.60	 	 	 	 	 	 	 	 	 	 	 	 	 	 	 	 	 	 	1581480867	11.81	21.87
12/02/2020 04:14:28	120220	12022020	041428	196.22	13.396395	-56.997008	196.34	1.030	-0.310	1.340	196.22	-1.70	1.90	 	 	 	 	 	 	 	 	 	 	 	 	 	 	 	 	 	 	1581480868	11.77	21.80
12/02/2020 04:14:29	120220	12022020	041429	195.91	13.396345	-56.997023	196.04	0.910	-0.580	1.780	195.91	-2.00	2.30	 	 	 	 	 	 	 	 	 	 	 	 	 	 	 	 	 	 	1581480869	11.40	21.11
12/02/2020 04:14:30	120220	12022020	041430	195.67	13.396298	-56.997040	195.79	0.590	-0.650	2.180	195.67	-2.00	2.70	 	 	 	 	 	 	 	 	 	 	 	 	 	 	 	 	 	 	1581480870	10.98	20.33
12/02/2020 04:14:31	120220	12022020	041431	195.52	13.396252	-56.997058	195.66	0.210	-0.630	2.430	195.52	-2.00	2.90	 	 	 	 	 	 	 	 	 	 	 	 	 	 	 	 	 	 	1581480871	10.78	19.96
12/02/2020 04:14:32	120220	12022020	041432	195.47	13.396203	-56.997077	195.60	-0.110	-0.610	2.530	195.47	-2.00	3.00	 	 	 	 	 	 	 	 	 	 	 	 	 	 	 	 	 	 	1581480872	10.77	19.95
12/02/2020 04:14:33	120220	12022020	041433	195.82	13.396157	-56.997093	195.97	-0.300	-0.480	2.220	195.82	-1.80	2.70	 	 	 	 	 	 	 	 	 	 	 	 	 	 	 	 	 	 	1581480873	10.94	20.26
12/02/2020 04:14:34	120220	12022020	041434	196.44	13.396108	-56.997110	196.59	-0.360	-0.330	1.730	196.44	-1.70	2.20	 	 	 	 	 	 	 	 	 	 	 	 	 	 	 	 	 	 	1581480874	10.91	20.21
12/02/2020 04:14:35	120220	12022020	041435	196.74	13.396058	-56.997127	196.86	-0.190	-0.620	1.480	196.74	-2.00	2.00	 	 	 	 	 	 	 	 	 	 	 	 	 	 	 	 	 	 	1581480875	10.79	19.98
12/02/2020 04:14:36	120220	12022020	041436	196.54	13.396005	-56.997145	196.63	0.280	-1.210	1.510	196.54	-2.60	2.00	 	 	 	 	 	 	 	 	 	 	 	 	 	 	 	 	 	 	1581480876	11.27	20.87
12/02/2020 04:14:37	120220	12022020	041437	196.21	13.395953	-56.997158	196.28	0.630	-1.280	1.490	196.21	-2.60	2.00	 	 	 	 	 	 	 	 	 	 	 	 	 	 	 	 	 	 	1581480877	11.93	22.09
12/02/2020 04:14:38	120220	12022020	041438	196.01	13.395903	-56.997172	196.06	0.390	-0.650	1.400	195.98	-2.00	1.90	 	 	 	 	 	 	 	 	 	 	 	 	 	 	 	 	 	 	1581480878	11.76	21.78
12/02/2020 04:14:39	120220	12022020	041439	195.88	13.395853	-56.997187	195.95	-0.240	-0.020	1.210	195.88	-1.40	1.70	 	 	 	 	 	 	 	 	 	 	 	 	 	 	 	 	 	 	1581480879	11.08	20.52
12/02/2020 04:14:40	120220	12022020	041440	195.78	13.395803	-56.997203	195.85	-0.670	0.190	1.060	195.78	-1.20	1.50	 	 	 	 	 	 	 	 	 	 	 	 	 	 	 	 	 	 	1581480880	10.99	20.35
12/02/2020 04:14:41	120220	12022020	041441	195.71	13.395752	-56.997220	195.81	-0.510	0.160	0.990	195.71	-1.20	1.50	 	 	 	 	 	 	 	 	 	 	 	 	 	 	 	 	 	 	1581480881	11.48	21.26
12/02/2020 04:14:42	120220	12022020	041442	195.78	13.395698	-56.997237	195.90	-0.060	0.170	0.970	195.78	-1.20	1.50	 	 	 	 	 	 	 	 	 	 	 	 	 	 	 	 	 	 	1581480882	11.81	21.87
12/02/2020 04:14:43	120220	12022020	041443	196.00	13.395648	-56.997253	196.14	0.050	0.240	1.320	196.00	-1.10	1.80	 	 	 	 	 	 	 	 	 	 	 	 	 	 	 	 	 	 	1581480883	11.72	21.71
12/02/2020 04:14:44	120220	12022020	041444	196.09	13.395602	-56.997275	196.25	-0.270	0.240	2.210	196.09	-1.10	2.70	 	 	 	 	 	 	 	 	 	 	 	 	 	 	 	 	 	 	1581480884	11.39	21.09
12/02/2020 04:14:45	120220	12022020	041445	195.92	13.395553	-56.997300	196.07	-0.570	0.040	2.990	195.92	-1.30	3.50	 	 	 	 	 	 	 	 	 	 	 	 	 	 	 	 	 	 	1581480885	11.23	20.80
12/02/2020 04:14:46	120220	12022020	041446	195.65	13.395505	-56.997322	195.80	-0.420	-0.180	3.220	195.65	-1.50	3.70	 	 	 	 	 	 	 	 	 	 	 	 	 	 	 	 	 	 	1581480886	11.37	21.06
12/02/2020 04:14:47	120220	12022020	041447	195.48	13.395457	-56.997338	195.64	0.090	-0.250	2.890	195.48	-1.60	3.40	 	 	 	 	 	 	 	 	 	 	 	 	 	 	 	 	 	 	1581480887	11.32	20.96
12/02/2020 04:14:48	120220	12022020	041448	195.46	13.395408	-56.997352	195.62	0.640	-0.290	2.070	195.46	-1.70	2.50	 	 	 	 	 	 	 	 	 	 	 	 	 	 	 	 	 	 	1581480888	11.04	20.45
12/02/2020 04:14:49	120220	12022020	041449	195.59	13.395357	-56.997360	195.71	0.940	-0.530	1.160	195.59	-1.90	1.60	 	 	 	 	 	 	 	 	 	 	 	 	 	 	 	 	 	 	1581480889	10.89	20.17
12/02/2020 04:14:50	120220	12022020	041450	195.66	13.395305	-56.997372	195.77	0.930	-0.980	0.800	195.66	-2.40	1.30	 	 	 	 	 	 	 	 	 	 	 	 	 	 	 	 	 	 	1581480890	11.09	20.54
12/02/2020 04:14:51	120220	12022020	041451	195.45	13.395253	-56.997387	195.55	0.660	-1.370	1.260	195.45	-2.70	1.80	 	 	 	 	 	 	 	 	 	 	 	 	 	 	 	 	 	 	1581480891	11.38	21.08
12/02/2020 04:14:52	120220	12022020	041452	195.10	13.395203	-56.997405	195.11	0.230	-1.370	2.060	195.02	-2.70	2.60	 	 	 	 	 	 	 	 	 	 	 	 	 	 	 	 	 	 	1581480892	11.52	21.34
12/02/2020 04:14:53	120220	12022020	041453	194.61	13.395155	-56.997425	194.71	-0.190	-0.950	2.640	194.61	-2.30	3.10	 	 	 	 	 	 	 	 	 	 	 	 	 	 	 	 	 	 	1581480893	11.46	21.22
12/02/2020 04:14:54	120220	12022020	041454	194.36	13.395105	-56.997443	194.47	-0.440	-0.440	2.800	194.36	-1.80	3.30	 	 	 	 	 	 	 	 	 	 	 	 	 	 	 	 	 	 	1581480894	11.31	20.95
12/02/2020 04:14:55	120220	12022020	041455	194.35	13.395053	-56.997460	194.48	-0.530	-0.040	2.670	194.35	-1.40	3.10	 	 	 	 	 	 	 	 	 	 	 	 	 	 	 	 	 	 	1581480895	11.34	21.00
12/02/2020 04:14:56	120220	12022020	041456	194.66	13.395003	-56.997477	194.81	-0.640	0.380	2.410	194.66	-1.00	2.90	 	 	 	 	 	 	 	 	 	 	 	 	 	 	 	 	 	 	1581480896	11.53	21.35
12/02/2020 04:14:57	120220	12022020	041457	195.20	13.394955	-56.997493	195.36	-0.770	0.820	2.080	195.20	-0.50	2.50	 	 	 	 	 	 	 	 	 	 	 	 	 	 	 	 	 	 	1581480897	11.43	21.17
12/02/2020 04:14:58	120220	12022020	041458	195.89	13.394907	-56.997508	196.06	-0.740	1.010	1.630	195.89	-0.40	2.10	 	 	 	 	 	 	 	 	 	 	 	 	 	 	 	 	 	 	1581480898	11.10	20.56
12/02/2020 04:14:59	120220	12022020	041459	196.48	13.394857	-56.997525	196.62	-0.380	0.650	1.240	196.48	-0.70	1.70	 	 	 	 	 	 	 	 	 	 	 	 	 	 	 	 	 	 	1581480899	10.98	20.33
12/02/2020 04:15:00	120220	12022020	041500	196.60	13.394805	-56.997540	196.72	0.330	-0.240	1.180	196.60	-1.60	1.70	 	 	 	 	 	 	 	 	 	 	 	 	 	 	 	 	 	 	1581480900	11.18	20.71
12/02/2020 04:15:01	120220	12022020	041501	196.27	13.394752	-56.997555	196.37	1.010	-1.030	1.430	196.27	-2.40	1.90	1016.90	25.90	25.90	21.10	21.20	-1.0	74.0	75.0	412.0	25.6	259.00	9.90	67.00	12.40	15	7750.0	27.2	27.2	1581480901	11.63	21.54
12/02/2020 04:15:02	120220	12022020	041502	195.55	13.394702	-56.997568	195.64	1.250	-1.320	1.790	195.55	-2.70	2.30	 	 	 	 	 	 	 	 	 	 	 	 	 	 	 	 	 	 	1581480902	11.65	21.58
12/02/2020 04:15:03	120220	12022020	041503	194.76	13.394652	-56.997583	194.86	0.950	-1.140	2.030	194.76	-2.50	2.50	 	 	 	 	 	 	 	 	 	 	 	 	 	 	 	 	 	 	1581480903	11.28	20.89
12/02/2020 04:15:04	120220	12022020	041504	194.26	13.394603	-56.997597	194.30	0.410	-0.750	2.010	194.18	-2.10	2.50	 	 	 	 	 	 	 	 	 	 	 	 	 	 	 	 	 	 	1581480904	11.02	20.41
12/02/2020 04:15:05	120220	12022020	041505	194.06	13.394553	-56.997612	194.18	-0.100	-0.280	1.800	194.06	-1.60	2.30	 	 	 	 	 	 	 	 	 	 	 	 	 	 	 	 	 	 	1581480905	11.04	20.45
12/02/2020 04:15:06	120220	12022020	041506	194.34	13.394503	-56.997628	194.61	-0.520	0.030	1.580	194.46	-1.30	2.10	 	 	 	 	 	 	 	 	 	 	 	 	 	 	 	 	 	 	1581480906	11.08	20.52
12/02/2020 04:15:07	120220	12022020	041507	194.99	13.394453	-56.997648	195.28	-0.840	0.010	1.620	195.13	-1.30	2.10	 	 	 	 	 	 	 	 	 	 	 	 	 	 	 	 	 	 	1581480907	11.20	20.74
12/02/2020 04:15:08	120220	12022020	041508	195.71	13.394403	-56.997670	195.86	-0.940	-0.330	1.980	195.71	-1.70	2.50	 	 	 	 	 	 	 	 	 	 	 	 	 	 	 	 	 	 	1581480908	11.46	21.22
12/02/2020 04:15:09	120220	12022020	041509	196.01	13.394353	-56.997693	196.15	-0.700	-0.660	2.430	196.01	-2.00	2.90	 	 	 	 	 	 	 	 	 	 	 	 	 	 	 	 	 	 	1581480909	11.79	21.84
12/02/2020 04:15:10	120220	12022020	041510	196.03	13.394303	-56.997713	196.16	-0.250	-0.610	2.740	196.03	-1.90	3.20	 	 	 	 	 	 	 	 	 	 	 	 	 	 	 	 	 	 	1581480910	11.82	21.89
12/02/2020 04:15:11	120220	12022020	041511	195.89	13.394255	-56.997728	196.01	0.200	-0.170	2.630	195.89	-1.50	3.10	 	 	 	 	 	 	 	 	 	 	 	 	 	 	 	 	 	 	1581480911	11.46	21.22
12/02/2020 04:15:12	120220	12022020	041512	195.70	13.394205	-56.997740	195.81	0.450	0.310	2.180	195.70	-1.00	2.70	 	 	 	 	 	 	 	 	 	 	 	 	 	 	 	 	 	 	1581480912	10.98	20.33
12/02/2020 04:15:13	120220	12022020	041513	195.59	13.394155	-56.997750	195.72	0.480	0.580	1.650	195.59	-0.80	2.10	 	 	 	 	 	 	 	 	 	 	 	 	 	 	 	 	 	 	1581480913	10.86	20.11
12/02/2020 04:15:14	120220	12022020	041514	195.73	13.394107	-56.997760	195.87	0.390	0.610	1.140	195.73	-0.80	1.60	 	 	 	 	 	 	 	 	 	 	 	 	 	 	 	 	 	 	1581480914	10.96	20.30
12/02/2020 04:15:15	120220	12022020	041515	195.98	13.394055	-56.997773	196.10	0.340	0.190	1.030	195.98	-1.20	1.50	 	 	 	 	 	 	 	 	 	 	 	 	 	 	 	 	 	 	1581480915	10.96	20.30
12/02/2020 04:15:16	120220	12022020	041516	196.02	13.394003	-56.997790	196.12	0.370	-0.720	1.550	196.00	-2.10	2.10	 	 	 	 	 	 	 	 	 	 	 	 	 	 	 	 	 	 	1581480916	11.16	20.67
12/02/2020 04:15:17	120220	12022020	041517	195.65	13.393953	-56.997810	195.73	0.360	-1.530	2.400	195.65	-2.90	2.90	 	 	 	 	 	 	 	 	 	 	 	 	 	 	 	 	 	 	1581480917	11.65	21.58
12/02/2020 04:15:18	120220	12022020	041518	195.10	13.393903	-56.997832	195.21	0.130	-1.710	3.150	195.10	-3.10	3.70	 	 	 	 	 	 	 	 	 	 	 	 	 	 	 	 	 	 	1581480918	11.85	21.95
12/02/2020 04:15:19	120220	12022020	041519	194.46	13.393855	-56.997852	194.58	-0.190	-1.360	3.560	194.46	-2.70	4.00	 	 	 	 	 	 	 	 	 	 	 	 	 	 	 	 	 	 	1581480919	11.49	21.28
12/02/2020 04:15:20	120220	12022020	041520	193.78	13.393807	-56.997870	193.88	-0.330	-0.870	3.460	193.78	-2.20	3.90	 	 	 	 	 	 	 	 	 	 	 	 	 	 	 	 	 	 	1581480920	11.17	20.69
12/02/2020 04:15:21	120220	12022020	041521	193.41	13.393755	-56.997885	193.51	-0.360	-0.260	3.080	193.41	-1.60	3.50	 	 	 	 	 	 	 	 	 	 	 	 	 	 	 	 	 	 	1581480921	11.27	20.87
12/02/2020 04:15:22	120220	12022020	041522	193.56	13.393705	-56.997898	193.71	-0.490	0.390	2.450	193.56	-0.90	2.90	 	 	 	 	 	 	 	 	 	 	 	 	 	 	 	 	 	 	1581480922	11.30	20.93
12/02/2020 04:15:23	120220	12022020	041523	194.04	13.393655	-56.997913	194.32	-0.700	0.780	1.840	194.18	-0.60	2.30	 	 	 	 	 	 	 	 	 	 	 	 	 	 	 	 	 	 	1581480923	11.15	20.65
12/02/2020 04:15:24	120220	12022020	041524	194.90	13.393605	-56.997930	195.04	-0.710	0.590	1.630	194.90	-0.80	2.10	 	 	 	 	 	 	 	 	 	 	 	 	 	 	 	 	 	 	1581480924	11.12	20.59
12/02/2020 04:15:25	120220	12022020	041525	195.45	13.393553	-56.997948	195.59	-0.250	0.060	1.610	195.45	-1.30	2.10	 	 	 	 	 	 	 	 	 	 	 	 	 	 	 	 	 	 	1581480925	11.48	21.26
12/02/2020 04:15:26	120220	12022020	041526	195.94	13.393502	-56.997962	196.09	0.350	-0.140	1.300	195.94	-1.50	1.80	 	 	 	 	 	 	 	 	 	 	 	 	 	 	 	 	 	 	1581480926	11.75	21.76
12/02/2020 04:15:27	120220	12022020	041527	196.48	13.393453	-56.997972	196.60	0.710	0.060	0.780	196.48	-1.30	1.30	 	 	 	 	 	 	 	 	 	 	 	 	 	 	 	 	 	 	1581480927	11.32	20.96
12/02/2020 04:15:28	120220	12022020	041528	196.80	13.393405	-56.997980	196.89	0.860	-0.010	0.420	196.80	-1.40	0.90	 	 	 	 	 	 	 	 	 	 	 	 	 	 	 	 	 	 	1581480928	10.61	19.65
12/02/2020 04:15:29	120220	12022020	041529	196.65	13.393353	-56.997992	196.73	0.920	-0.700	0.730	196.65	-2.10	1.30	 	 	 	 	 	 	 	 	 	 	 	 	 	 	 	 	 	 	1581480929	10.68	19.78
12/02/2020 04:15:30	120220	12022020	041530	196.20	13.393302	-56.998008	196.28	0.750	-1.460	1.580	196.20	-2.80	2.10	 	 	 	 	 	 	 	 	 	 	 	 	 	 	 	 	 	 	1581480930	11.40	21.11
12/02/2020 04:15:31	120220	12022020	041531	195.61	13.393252	-56.998028	195.73	0.220	-1.560	2.450	195.61	-2.90	3.00	 	 	 	 	 	 	 	 	 	 	 	 	 	 	 	 	 	 	1581480931	11.79	21.84
12/02/2020 04:15:32	120220	12022020	041532	195.13	13.393205	-56.998050	195.26	-0.480	-0.970	2.960	195.13	-2.30	3.50	 	 	 	 	 	 	 	 	 	 	 	 	 	 	 	 	 	 	1581480932	11.51	21.32
12/02/2020 04:15:33	120220	12022020	041533	194.95	13.393158	-56.998072	195.09	-1.020	-0.240	3.070	194.95	-1.60	3.50	 	 	 	 	 	 	 	 	 	 	 	 	 	 	 	 	 	 	1581480933	11.02	20.41
12/02/2020 04:15:34	120220	12022020	041534	194.96	13.393110	-56.998093	195.11	-1.080	0.110	2.750	194.96	-1.30	3.20	 	 	 	 	 	 	 	 	 	 	 	 	 	 	 	 	 	 	1581480934	10.96	20.30
12/02/2020 04:15:35	120220	12022020	041535	194.96	13.393057	-56.998110	195.08	-0.620	-0.120	2.190	194.96	-1.50	2.70	 	 	 	 	 	 	 	 	 	 	 	 	 	 	 	 	 	 	1581480935	11.31	20.95
12/02/2020 04:15:36	120220	12022020	041536	195.02	13.393003	-56.998127	195.13	-0.020	-0.390	1.650	195.02	-1.80	2.10	 	 	 	 	 	 	 	 	 	 	 	 	 	 	 	 	 	 	1581480936	11.92	22.08
12/02/2020 04:15:37	120220	12022020	041537	195.28	13.392952	-56.998140	195.38	0.260	-0.100	1.200	195.28	-1.50	1.70	 	 	 	 	 	 	 	 	 	 	 	 	 	 	 	 	 	 	1581480937	12.10	22.41
12/02/2020 04:15:38	120220	12022020	041538	195.71	13.392903	-56.998153	195.83	0.120	0.470	0.990	195.71	-0.90	1.50	 	 	 	 	 	 	 	 	 	 	 	 	 	 	 	 	 	 	1581480938	11.39	21.09
12/02/2020 04:15:39	120220	12022020	041539	196.12	13.392855	-56.998168	196.26	-0.070	0.580	1.140	196.12	-0.80	1.60	 	 	 	 	 	 	 	 	 	 	 	 	 	 	 	 	 	 	1581480939	10.71	19.83
12/02/2020 04:15:40	120220	12022020	041540	196.40	13.392803	-56.998185	196.55	0.060	0.070	1.300	196.40	-1.30	1.80	 	 	 	 	 	 	 	 	 	 	 	 	 	 	 	 	 	 	1581480940	10.88	20.15
12/02/2020 04:15:41	120220	12022020	041541	196.45	13.392752	-56.998200	196.58	0.450	-0.640	1.420	196.45	-2.00	1.90	 	 	 	 	 	 	 	 	 	 	 	 	 	 	 	 	 	 	1581480941	11.46	21.22
12/02/2020 04:15:42	120220	12022020	041542	196.37	13.392700	-56.998213	196.45	0.650	-0.930	1.550	196.34	-2.30	2.10	 	 	 	 	 	 	 	 	 	 	 	 	 	 	 	 	 	 	1581480942	11.77	21.80
12/02/2020 04:15:43	120220	12022020	041543	196.21	13.392652	-56.998228	196.32	0.300	-0.690	1.640	196.21	-2.00	2.10	 	 	 	 	 	 	 	 	 	 	 	 	 	 	 	 	 	 	1581480943	11.47	21.24
12/02/2020 04:15:44	120220	12022020	041544	196.00	13.392605	-56.998245	196.12	-0.370	-0.420	1.840	196.00	-1.80	2.30	 	 	 	 	 	 	 	 	 	 	 	 	 	 	 	 	 	 	1581480944	10.86	20.11
12/02/2020 04:15:45	120220	12022020	041545	195.63	13.392555	-56.998267	195.75	-0.670	-0.470	2.090	195.63	-1.80	2.60	 	 	 	 	 	 	 	 	 	 	 	 	 	 	 	 	 	 	1581480945	10.80	20.00
12/02/2020 04:15:46	120220	12022020	041546	195.28	13.392505	-56.998287	195.39	-0.200	-0.590	1.960	195.28	-2.00	2.40	 	 	 	 	 	 	 	 	 	 	 	 	 	 	 	 	 	 	1581480946	11.37	21.06
12/02/2020 04:15:47	120220	12022020	041547	195.31	13.392453	-56.998298	195.42	0.580	-0.400	1.300	195.31	-1.80	1.80	 	 	 	 	 	 	 	 	 	 	 	 	 	 	 	 	 	 	1581480947	11.68	21.63
12/02/2020 04:15:48	120220	12022020	041548	195.79	13.392403	-56.998310	195.92	0.790	-0.110	0.880	195.79	-1.50	1.40	 	 	 	 	 	 	 	 	 	 	 	 	 	 	 	 	 	 	1581480948	11.43	21.17
12/02/2020 04:15:49	120220	12022020	041549	196.18	13.392353	-56.998327	196.31	0.270	-0.190	1.360	196.18	-1.60	1.90	 	 	 	 	 	 	 	 	 	 	 	 	 	 	 	 	 	 	1581480949	11.10	20.56
12/02/2020 04:15:50	120220	12022020	041550	196.02	13.392303	-56.998350	196.14	-0.450	-0.620	2.470	196.02	-2.00	3.00	 	 	 	 	 	 	 	 	 	 	 	 	 	 	 	 	 	 	1581480950	11.21	20.76
12/02/2020 04:15:51	120220	12022020	041551	195.56	13.392255	-56.998375	195.69	-0.830	-0.740	3.440	195.56	-2.10	4.00	 	 	 	 	 	 	 	 	 	 	 	 	 	 	 	 	 	 	1581480951	11.74	21.74
12/02/2020 04:15:52	120220	12022020	041552	195.16	13.392208	-56.998398	195.31	-0.760	-0.390	3.830	195.16	-1.70	4.30	 	 	 	 	 	 	 	 	 	 	 	 	 	 	 	 	 	 	1581480952	11.73	21.72
12/02/2020 04:15:53	120220	12022020	041553	194.91	13.392160	-56.998417	195.07	-0.270	0.020	3.530	194.91	-1.30	4.00	 	 	 	 	 	 	 	 	 	 	 	 	 	 	 	 	 	 	1581480953	11.19	20.72
12/02/2020 04:15:54	120220	12022020	041554	194.92	13.392110	-56.998430	195.11	0.310	0.230	2.740	194.95	-1.10	3.20	 	 	 	 	 	 	 	 	 	 	 	 	 	 	 	 	 	 	1581480954	10.97	20.32
12/02/2020 04:15:55	120220	12022020	041555	195.27	13.392060	-56.998440	195.55	0.570	0.320	1.880	195.37	-1.00	2.40	 	 	 	 	 	 	 	 	 	 	 	 	 	 	 	 	 	 	1581480955	11.14	20.63
12/02/2020 04:15:56	120220	12022020	041556	195.95	13.392010	-56.998452	196.11	0.510	0.300	1.320	195.95	-1.10	1.80	 	 	 	 	 	 	 	 	 	 	 	 	 	 	 	 	 	 	1581480956	11.11	20.58
12/02/2020 04:15:57	120220	12022020	041557	196.26	13.391960	-56.998467	196.39	0.420	-0.180	1.280	196.26	-1.60	1.80	 	 	 	 	 	 	 	 	 	 	 	 	 	 	 	 	 	 	1581480957	10.93	20.24
12/02/2020 04:15:58	120220	12022020	041558	196.22	13.391908	-56.998482	196.34	0.530	-0.950	1.640	196.22	-2.40	2.20	 	 	 	 	 	 	 	 	 	 	 	 	 	 	 	 	 	 	1581480958	11.21	20.76
12/02/2020 04:15:59	120220	12022020	041559	195.98	13.391857	-56.998498	196.10	0.620	-1.380	2.020	195.98	-2.80	2.50	 	 	 	 	 	 	 	 	 	 	 	 	 	 	 	 	 	 	1581480959	11.65	21.58
12/02/2020 04:16:00	120220	12022020	041600	195.74	13.391807	-56.998513	195.87	0.340	-1.140	2.260	195.74	-2.50	2.80	 	 	 	 	 	 	 	 	 	 	 	 	 	 	 	 	 	 	1581480960	11.55	21.39
12/02/2020 04:16:01	120220	12022020	041601	195.44	13.391760	-56.998530	195.55	-0.320	-0.700	2.490	195.44	-2.10	3.00	1016.90	25.90	25.90	21.20	21.20	-1.0	75.0	75.0	410.0	25.6	266.00	9.00	70.00	11.00	15	8135.0	27.2	27.2	1581480961	10.97	20.32
12/02/2020 04:16:02	120220	12022020	041602	195.12	13.391712	-56.998552	195.24	-1.020	-0.420	2.820	195.12	-1.80	3.30	 	 	 	 	 	 	 	 	 	 	 	 	 	 	 	 	 	 	1581480962	10.86	20.11
12/02/2020 04:16:03	120220	12022020	041603	195.01	13.391663	-56.998575	195.15	-1.350	-0.230	3.030	195.01	-1.60	3.50	 	 	 	 	 	 	 	 	 	 	 	 	 	 	 	 	 	 	1581480963	11.29	20.91
12/02/2020 04:16:04	120220	12022020	041604	195.11	13.391615	-56.998598	195.26	-1.050	0.020	2.810	195.11	-1.30	3.30	 	 	 	 	 	 	 	 	 	 	 	 	 	 	 	 	 	 	1581480964	11.60	21.48
12/02/2020 04:16:05	120220	12022020	041605	195.35	13.391565	-56.998615	195.51	-0.250	0.290	2.010	195.35	-1.10	2.50	 	 	 	 	 	 	 	 	 	 	 	 	 	 	 	 	 	 	1581480965	11.49	21.28
12/02/2020 04:16:06	120220	12022020	041606	195.63	13.391513	-56.998625	195.76	0.600	0.400	1.060	195.63	-1.00	1.50	 	 	 	 	 	 	 	 	 	 	 	 	 	 	 	 	 	 	1581480966	11.25	20.84
12/02/2020 04:16:07	120220	12022020	041607	195.77	13.391462	-56.998633	195.87	0.980	0.230	0.690	195.77	-1.20	1.20	 	 	 	 	 	 	 	 	 	 	 	 	 	 	 	 	 	 	1581480967	11.24	20.82
12/02/2020 04:16:08	120220	12022020	041608	195.68	13.391410	-56.998645	195.77	0.770	-0.220	0.990	195.68	-1.60	1.50	 	 	 	 	 	 	 	 	 	 	 	 	 	 	 	 	 	 	1581480968	11.34	21.00
12/02/2020 04:16:09	120220	12022020	041609	195.57	13.391360	-56.998663	195.68	0.220	-0.510	1.580	195.57	-1.90	2.10	 	 	 	 	 	 	 	 	 	 	 	 	 	 	 	 	 	 	1581480969	11.48	21.26
12/02/2020 04:16:10	120220	12022020	041610	195.52	13.391312	-56.998683	195.64	-0.150	-0.480	2.270	195.52	-1.80	2.80	 	 	 	 	 	 	 	 	 	 	 	 	 	 	 	 	 	 	1581480970	11.32	20.96
12/02/2020 04:16:11	120220	12022020	041611	195.47	13.391265	-56.998702	195.60	-0.030	-0.300	2.450	195.47	-1.70	2.90	 	 	 	 	 	 	 	 	 	 	 	 	 	 	 	 	 	 	1581480971	11.03	20.43
12/02/2020 04:16:12	120220	12022020	041612	195.35	13.391215	-56.998717	195.48	0.380	-0.410	2.160	195.35	-1.80	2.60	 	 	 	 	 	 	 	 	 	 	 	 	 	 	 	 	 	 	1581480972	10.84	20.08
12/02/2020 04:16:13	120220	12022020	041613	195.38	13.391165	-56.998732	195.52	0.500	-0.640	1.890	195.38	-2.00	2.40	 	 	 	 	 	 	 	 	 	 	 	 	 	 	 	 	 	 	1581480973	11.17	20.69
12/02/2020 04:16:14	120220	12022020	041614	195.55	13.391115	-56.998748	195.67	0.120	-0.760	1.870	195.55	-2.10	2.40	 	 	 	 	 	 	 	 	 	 	 	 	 	 	 	 	 	 	1581480974	11.39	21.09
12/02/2020 04:16:15	120220	12022020	041615	195.44	13.391065	-56.998768	195.47	-0.400	-0.900	2.370	195.37	-2.30	2.90	 	 	 	 	 	 	 	 	 	 	 	 	 	 	 	 	 	 	1581480975	11.24	20.82
12/02/2020 04:16:16	120220	12022020	041616	194.84	13.391017	-56.998790	194.95	-0.600	-0.870	2.900	194.84	-2.20	3.40	 	 	 	 	 	 	 	 	 	 	 	 	 	 	 	 	 	 	1581480976	11.41	21.13
12/02/2020 04:16:17	120220	12022020	041617	194.50	13.390968	-56.998810	194.61	-0.470	-0.290	2.930	194.50	-1.60	3.40	 	 	 	 	 	 	 	 	 	 	 	 	 	 	 	 	 	 	1581480977	11.60	21.48
12/02/2020 04:16:18	120220	12022020	041618	194.52	13.390920	-56.998823	194.69	-0.230	0.350	2.510	194.56	-1.00	3.00	 	 	 	 	 	 	 	 	 	 	 	 	 	 	 	 	 	 	1581480978	11.06	20.48
12/02/2020 04:16:19	120220	12022020	041619	194.89	13.390870	-56.998837	195.03	-0.030	0.330	1.870	194.89	-1.10	2.40	 	 	 	 	 	 	 	 	 	 	 	 	 	 	 	 	 	 	1581480979	10.78	19.96
12/02/2020 04:16:20	120220	12022020	041620	195.20	13.390817	-56.998852	195.34	0.150	-0.230	1.470	195.20	-1.60	2.00	 	 	 	 	 	 	 	 	 	 	 	 	 	 	 	 	 	 	1581480980	11.29	20.91
12/02/2020 04:16:21	120220	12022020	041621	195.27	13.390763	-56.998865	195.37	0.360	-0.630	1.430	195.27	-2.00	1.90	 	 	 	 	 	 	 	 	 	 	 	 	 	 	 	 	 	 	1581480981	11.81	21.87
12/02/2020 04:16:22	120220	12022020	041622	195.13	13.390713	-56.998878	195.24	0.440	-0.570	1.700	195.13	-1.90	2.20	 	 	 	 	 	 	 	 	 	 	 	 	 	 	 	 	 	 	1581480982	11.71	21.69
12/02/2020 04:16:23	120220	12022020	041623	194.94	13.390663	-56.998892	195.05	0.160	-0.290	2.180	194.94	-1.60	2.70	 	 	 	 	 	 	 	 	 	 	 	 	 	 	 	 	 	 	1581480983	11.22	20.78
12/02/2020 04:16:24	120220	12022020	041624	194.73	13.390615	-56.998910	194.85	-0.410	-0.130	2.810	194.73	-1.50	3.30	 	 	 	 	 	 	 	 	 	 	 	 	 	 	 	 	 	 	1581480984	10.95	20.28
12/02/2020 04:16:25	120220	12022020	041625	194.63	13.390567	-56.998933	194.75	-0.850	-0.150	3.200	194.63	-1.50	3.70	 	 	 	 	 	 	 	 	 	 	 	 	 	 	 	 	 	 	1581480985	11.11	20.58
12/02/2020 04:16:26	120220	12022020	041626	194.61	13.390518	-56.998953	194.74	-0.740	-0.170	3.080	194.61	-1.50	3.60	 	 	 	 	 	 	 	 	 	 	 	 	 	 	 	 	 	 	1581480986	11.38	21.08
12/02/2020 04:16:27	120220	12022020	041627	194.74	13.390468	-56.998968	194.89	-0.080	-0.100	2.410	194.74	-1.50	2.90	 	 	 	 	 	 	 	 	 	 	 	 	 	 	 	 	 	 	1581480987	11.42	21.15
12/02/2020 04:16:28	120220	12022020	041628	195.12	13.390418	-56.998980	195.26	0.620	0.110	1.370	195.12	-1.30	1.80	 	 	 	 	 	 	 	 	 	 	 	 	 	 	 	 	 	 	1581480988	11.24	20.82
12/02/2020 04:16:29	120220	12022020	041629	195.46	13.390368	-56.998988	195.57	0.860	0.130	0.790	195.46	-1.30	1.30	 	 	 	 	 	 	 	 	 	 	 	 	 	 	 	 	 	 	1581480989	10.96	20.30
12/02/2020 04:16:30	120220	12022020	041630	195.55	13.390318	-56.999002	195.64	0.670	-0.270	0.950	195.55	-1.70	1.50	 	 	 	 	 	 	 	 	 	 	 	 	 	 	 	 	 	 	1581480990	10.88	20.15
12/02/2020 04:16:31	120220	12022020	041631	195.48	13.390268	-56.999020	195.58	0.380	-0.850	1.560	195.48	-2.20	2.10	 	 	 	 	 	 	 	 	 	 	 	 	 	 	 	 	 	 	1581480991	11.15	20.65
12/02/2020 04:16:32	120220	12022020	041632	195.23	13.390218	-56.999038	195.33	0.250	-1.230	2.330	195.23	-2.60	2.90	 	 	 	 	 	 	 	 	 	 	 	 	 	 	 	 	 	 	1581480992	11.41	21.13
12/02/2020 04:16:33	120220	12022020	041633	194.76	13.390168	-56.999057	194.85	0.220	-1.250	2.890	194.76	-2.60	3.40	 	 	 	 	 	 	 	 	 	 	 	 	 	 	 	 	 	 	1581480993	11.45	21.21
12/02/2020 04:16:34	120220	12022020	041634	194.21	13.390120	-56.999075	194.31	0.020	-0.840	3.120	194.21	-2.20	3.60	 	 	 	 	 	 	 	 	 	 	 	 	 	 	 	 	 	 	1581480994	11.35	21.02
12/02/2020 04:16:35	120220	12022020	041635	193.98	13.390072	-56.999090	194.10	-0.470	0.020	2.940	193.98	-1.30	3.40	 	 	 	 	 	 	 	 	 	 	 	 	 	 	 	 	 	 	1581480995	11.14	20.63
12/02/2020 04:16:36	120220	12022020	041636	194.22	13.390027	-56.999105	194.35	-0.970	0.740	2.370	194.22	-0.60	2.80	 	 	 	 	 	 	 	 	 	 	 	 	 	 	 	 	 	 	1581480996	10.67	19.76
12/02/2020 04:16:37	120220	12022020	041637	194.60	13.389975	-56.999122	194.71	-0.990	0.540	1.810	194.60	-0.90	2.30	 	 	 	 	 	 	 	 	 	 	 	 	 	 	 	 	 	 	1581480997	10.48	19.41
12/02/2020 04:16:38	120220	12022020	041638	194.68	13.389920	-56.999138	194.76	-0.330	-0.580	1.730	194.68	-2.00	2.20	 	 	 	 	 	 	 	 	 	 	 	 	 	 	 	 	 	 	1581480998	11.24	20.82
12/02/2020 04:16:39	120220	12022020	041639	194.50	13.389865	-56.999155	194.58	0.460	-1.430	1.840	194.50	-2.80	2.40	 	 	 	 	 	 	 	 	 	 	 	 	 	 	 	 	 	 	1581480999	12.36	22.89
12/02/2020 04:16:40	120220	12022020	041640	194.50	13.389815	-56.999168	194.60	0.600	-0.920	1.790	194.50	-2.30	2.30	 	 	 	 	 	 	 	 	 	 	 	 	 	 	 	 	 	 	1581481000	12.46	23.08
12/02/2020 04:16:41	120220	12022020	041641	195.00	13.389772	-56.999180	195.11	0.030	0.410	1.460	195.00	-0.90	2.00	 	 	 	 	 	 	 	 	 	 	 	 	 	 	 	 	 	 	1581481001	11.07	20.50
12/02/2020 04:16:42	120220	12022020	041642	195.87	13.389727	-56.999193	196.01	-0.590	1.260	1.030	195.87	-0.10	1.50	 	 	 	 	 	 	 	 	 	 	 	 	 	 	 	 	 	 	1581481002	9.84	18.22
12/02/2020 04:16:43	120220	12022020	041643	196.66	13.389678	-56.999208	196.79	-0.510	0.750	0.860	196.66	-0.70	1.40	 	 	 	 	 	 	 	 	 	 	 	 	 	 	 	 	 	 	1581481003	9.87	18.28
12/02/2020 04:16:44	120220	12022020	041644	196.93	13.389622	-56.999225	197.03	0.300	-0.800	1.140	196.92	-2.20	1.70	 	 	 	 	 	 	 	 	 	 	 	 	 	 	 	 	 	 	1581481004	11.12	20.59
12/02/2020 04:16:45	120220	12022020	041645	196.61	13.389567	-56.999243	196.71	1.020	-2.110	1.820	196.61	-3.50	2.40	 	 	 	 	 	 	 	 	 	 	 	 	 	 	 	 	 	 	1581481005	12.38	22.93
12/02/2020 04:16:46	120220	12022020	041646	196.13	13.389517	-56.999262	196.26	0.860	-1.980	2.640	196.13	-3.30	3.20	 	 	 	 	 	 	 	 	 	 	 	 	 	 	 	 	 	 	1581481006	12.61	23.35
12/02/2020 04:16:47	120220	12022020	041647	195.70	13.389473	-56.999282	195.83	-0.070	-0.660	3.160	195.70	-2.00	3.70	 	 	 	 	 	 	 	 	 	 	 	 	 	 	 	 	 	 	1581481007	11.43	21.17
12/02/2020 04:16:48	120220	12022020	041648	195.18	13.389430	-56.999303	195.30	-0.910	0.490	3.370	195.18	-0.90	3.90	 	 	 	 	 	 	 	 	 	 	 	 	 	 	 	 	 	 	1581481008	10.23	18.95
12/02/2020 04:16:49	120220	12022020	041649	194.68	13.389382	-56.999323	194.81	-0.910	0.810	3.310	194.68	-0.60	3.80	 	 	 	 	 	 	 	 	 	 	 	 	 	 	 	 	 	 	1581481009	10.38	19.22
12/02/2020 04:16:50	120220	12022020	041650	194.54	13.389330	-56.999342	194.67	-0.320	0.780	2.820	194.54	-0.60	3.30	 	 	 	 	 	 	 	 	 	 	 	 	 	 	 	 	 	 	1581481010	11.31	20.95
12/02/2020 04:16:51	120220	12022020	041651	194.79	13.389280	-56.999355	194.93	0.240	0.600	2.070	194.79	-0.80	2.60	 	 	 	 	 	 	 	 	 	 	 	 	 	 	 	 	 	 	1581481011	11.54	21.37
12/02/2020 04:16:52	120220	12022020	041652	195.26	13.389228	-56.999368	195.39	0.420	0.140	1.460	195.26	-1.30	2.00	 	 	 	 	 	 	 	 	 	 	 	 	 	 	 	 	 	 	1581481012	11.34	21.00
12/02/2020 04:16:53	120220	12022020	041653	195.64	13.389178	-56.999383	195.87	0.380	-0.430	1.300	195.73	-1.80	1.80	 	 	 	 	 	 	 	 	 	 	 	 	 	 	 	 	 	 	1581481013	11.28	20.89
12/02/2020 04:16:54	120220	12022020	041654	196.20	13.389130	-56.999398	196.32	0.330	-0.860	1.400	196.20	-2.30	1.90	 	 	 	 	 	 	 	 	 	 	 	 	 	 	 	 	 	 	1581481014	11.21	20.76
12/02/2020 04:16:55	120220	12022020	041655	196.40	13.389082	-56.999415	196.52	0.260	-1.220	1.800	196.40	-2.60	2.30	 	 	 	 	 	 	 	 	 	 	 	 	 	 	 	 	 	 	1581481015	10.98	20.33
12/02/2020 04:16:56	120220	12022020	041656	196.09	13.389032	-56.999435	196.21	0.180	-1.600	2.490	196.09	-3.00	3.00	 	 	 	 	 	 	 	 	 	 	 	 	 	 	 	 	 	 	1581481016	10.95	20.28
12/02/2020 04:16:57	120220	12022020	041657	195.52	13.388983	-56.999455	195.63	0.060	-1.660	3.130	195.52	-3.00	3.70	 	 	 	 	 	 	 	 	 	 	 	 	 	 	 	 	 	 	1581481017	11.30	20.93
12/02/2020 04:16:58	120220	12022020	041658	194.85	13.388933	-56.999473	194.96	-0.040	-1.230	3.380	194.85	-2.60	3.90	 	 	 	 	 	 	 	 	 	 	 	 	 	 	 	 	 	 	1581481018	11.42	21.15
12/02/2020 04:16:59	120220	12022020	041659	194.17	13.388885	-56.999490	194.32	-0.130	-0.400	3.360	194.17	-1.70	3.90	 	 	 	 	 	 	 	 	 	 	 	 	 	 	 	 	 	 	1581481019	11.29	20.91
12/02/2020 04:17:00	120220	12022020	041700	193.90	13.388837	-56.999505	194.06	-0.360	0.570	3.100	193.90	-0.80	3.60	 	 	 	 	 	 	 	 	 	 	 	 	 	 	 	 	 	 	1581481020	11.12	20.59
12/02/2020 04:17:01	120220	12022020	041701	194.09	13.388787	-56.999520	194.24	-0.630	1.100	2.650	194.09	-0.30	3.10	1016.90	25.90	25.90	21.10	21.20	-1.0	75.0	75.0	407.0	25.6	260.00	10.40	68.00	12.70	15	7754.0	27.2	27.2	1581481021	10.92	20.22
12/02/2020 04:17:02	120220	12022020	041702	194.34	13.388735	-56.999535	194.47	-0.670	0.890	2.390	194.34	-0.50	2.90	 	 	 	 	 	 	 	 	 	 	 	 	 	 	 	 	 	 	1581481022	11.09	20.54
12/02/2020 04:17:03	120220	12022020	041703	194.40	13.388682	-56.999553	194.52	-0.320	0.210	2.530	194.40	-1.20	3.10	 	 	 	 	 	 	 	 	 	 	 	 	 	 	 	 	 	 	1581481023	11.59	21.46
12/02/2020 04:17:04	120220	12022020	041704	194.50	13.388630	-56.999568	194.64	0.140	-0.210	2.530	194.50	-1.60	3.00	 	 	 	 	 	 	 	 	 	 	 	 	 	 	 	 	 	 	1581481024	12.00	22.22
12/02/2020 04:17:05	120220	12022020	041705	194.84	13.388582	-56.999582	194.98	0.370	-0.140	2.180	194.84	-1.50	2.70	 	 	 	 	 	 	 	 	 	 	 	 	 	 	 	 	 	 	1581481025	11.61	21.50
12/02/2020 04:17:06	120220	12022020	041706	195.14	13.388535	-56.999595	195.25	0.430	-0.180	1.750	195.14	-1.60	2.30	 	 	 	 	 	 	 	 	 	 	 	 	 	 	 	 	 	 	1581481026	10.78	19.96
12/02/2020 04:17:07	120220	12022020	041707	195.12	13.388483	-56.999607	195.22	0.630	-0.710	1.480	195.12	-2.10	2.00	 	 	 	 	 	 	 	 	 	 	 	 	 	 	 	 	 	 	1581481027	10.58	19.59
12/02/2020 04:17:08	120220	12022020	041708	195.19	13.388432	-56.999620	195.31	0.750	-0.990	1.320	195.19	-2.40	1.90	 	 	 	 	 	 	 	 	 	 	 	 	 	 	 	 	 	 	1581481028	11.24	20.82
12/02/2020 04:17:09	120220	12022020	041709	195.49	13.388385	-56.999633	195.62	0.410	-0.670	1.590	195.49	-2.00	2.10	 	 	 	 	 	 	 	 	 	 	 	 	 	 	 	 	 	 	1581481029	11.23	20.80
12/02/2020 04:17:10	120220	12022020	041710	195.70	13.388340	-56.999653	195.80	-0.280	-0.350	2.190	195.70	-1.70	2.70	 	 	 	 	 	 	 	 	 	 	 	 	 	 	 	 	 	 	1581481030	10.53	19.50
12/02/2020 04:17:11	120220	12022020	041711	195.66	13.388293	-56.999677	195.74	-0.810	-0.480	2.710	195.62	-1.90	3.20	 	 	 	 	 	 	 	 	 	 	 	 	 	 	 	 	 	 	1581481031	10.50	19.45
12/02/2020 04:17:12	120220	12022020	041712	195.32	13.388243	-56.999698	195.43	-0.680	-0.840	2.880	195.32	-2.20	3.40	 	 	 	 	 	 	 	 	 	 	 	 	 	 	 	 	 	 	1581481032	11.18	20.71
12/02/2020 04:17:13	120220	12022020	041713	195.00	13.388192	-56.999715	195.11	0.060	-0.960	2.570	195.00	-2.30	3.10	 	 	 	 	 	 	 	 	 	 	 	 	 	 	 	 	 	 	1581481033	11.73	21.72
12/02/2020 04:17:14	120220	12022020	041714	194.92	13.388140	-56.999725	195.06	0.770	-0.630	1.910	194.92	-2.00	2.40	 	 	 	 	 	 	 	 	 	 	 	 	 	 	 	 	 	 	1581481034	11.73	21.72
12/02/2020 04:17:15	120220	12022020	041715	195.08	13.388088	-56.999735	195.22	0.790	-0.130	1.320	195.08	-1.50	1.80	 	 	 	 	 	 	 	 	 	 	 	 	 	 	 	 	 	 	1581481035	11.43	21.17
12/02/2020 04:17:16	120220	12022020	041716	195.33	13.388038	-56.999747	195.45	0.060	0.280	1.430	195.33	-1.10	2.00	 	 	 	 	 	 	 	 	 	 	 	 	 	 	 	 	 	 	1581481036	11.19	20.72
12/02/2020 04:17:17	120220	12022020	041717	195.50	13.387990	-56.999767	195.62	-0.850	0.470	1.980	195.50	-0.90	2.50	 	 	 	 	 	 	 	 	 	 	 	 	 	 	 	 	 	 	1581481037	11.02	20.41
12/02/2020 04:17:18	120220	12022020	041718	195.53	13.387943	-56.999788	195.66	-1.330	0.360	2.500	195.53	-1.00	3.00	 	 	 	 	 	 	 	 	 	 	 	 	 	 	 	 	 	 	1581481038	11.05	20.46
12/02/2020 04:17:19	120220	12022020	041719	195.48	13.387893	-56.999810	195.60	-1.120	-0.040	2.670	195.48	-1.40	3.20	 	 	 	 	 	 	 	 	 	 	 	 	 	 	 	 	 	 	1581481039	11.28	20.89
12/02/2020 04:17:20	120220	12022020	041720	195.38	13.387843	-56.999828	195.47	-0.390	-0.470	2.300	195.38	-1.90	2.80	 	 	 	 	 	 	 	 	 	 	 	 	 	 	 	 	 	 	1581481040	11.52	21.34
12/02/2020 04:17:21	120220	12022020	041721	195.24	13.387793	-56.999842	195.33	0.430	-0.680	1.610	195.24	-2.10	2.10	 	 	 	 	 	 	 	 	 	 	 	 	 	 	 	 	 	 	1581481041	11.48	21.26
12/02/2020 04:17:22	120220	12022020	041722	195.07	13.387743	-56.999852	195.15	0.930	-0.590	1.020	195.07	-2.00	1.50	 	 	 	 	 	 	 	 	 	 	 	 	 	 	 	 	 	 	1581481042	11.22	20.78
12/02/2020 04:17:23	120220	12022020	041723	194.87	13.387693	-56.999862	194.95	0.910	-0.350	0.890	194.87	-1.70	1.40	 	 	 	 	 	 	 	 	 	 	 	 	 	 	 	 	 	 	1581481043	10.95	20.28
12/02/2020 04:17:24	120220	12022020	041724	194.68	13.387645	-56.999875	194.75	0.450	-0.220	1.270	194.68	-1.60	1.80	 	 	 	 	 	 	 	 	 	 	 	 	 	 	 	 	 	 	1581481044	10.75	19.91
12/02/2020 04:17:25	120220	12022020	041725	194.66	13.387597	-56.999893	194.77	-0.130	-0.230	1.850	194.68	-1.60	2.40	 	 	 	 	 	 	 	 	 	 	 	 	 	 	 	 	 	 	1581481045	10.86	20.11
12/02/2020 04:17:26	120220	12022020	041726	194.75	13.387548	-56.999915	194.85	-0.410	-0.320	2.320	194.75	-1.70	2.90	 	 	 	 	 	 	 	 	 	 	 	 	 	 	 	 	 	 	1581481046	11.08	20.52
12/02/2020 04:17:27	120220	12022020	041727	194.68	13.387498	-56.999933	194.78	-0.200	-0.480	2.580	194.68	-1.90	3.10	 	 	 	 	 	 	 	 	 	 	 	 	 	 	 	 	 	 	1581481047	11.42	21.15
12/02/2020 04:17:28	120220	12022020	041728	194.68	13.387448	-56.999948	194.79	0.200	-0.480	2.450	194.68	-1.80	3.00	 	 	 	 	 	 	 	 	 	 	 	 	 	 	 	 	 	 	1581481048	11.42	21.15
12/02/2020 04:17:29	120220	12022020	041729	194.66	13.387398	-56.999962	194.76	0.350	-0.340	2.170	194.66	-1.70	2.70	 	 	 	 	 	 	 	 	 	 	 	 	 	 	 	 	 	 	1581481049	11.31	20.95
12/02/2020 04:17:30	120220	12022020	041730	194.61	13.387348	-56.999975	194.70	0.130	-0.280	1.960	194.61	-1.70	2.50	 	 	 	 	 	 	 	 	 	 	 	 	 	 	 	 	 	 	1581481050	11.12	20.59
12/02/2020 04:17:31	120220	12022020	041731	194.61	13.387298	-56.999990	194.71	-0.240	-0.210	1.930	194.61	-1.60	2.50	 	 	 	 	 	 	 	 	 	 	 	 	 	 	 	 	 	 	1581481051	11.17	20.69
12/02/2020 04:17:32	120220	12022020	041732	194.62	13.387250	-57.000008	194.75	-0.470	-0.110	2.080	194.62	-1.50	2.60	 	 	 	 	 	 	 	 	 	 	 	 	 	 	 	 	 	 	1581481052	11.15	20.65
12/02/2020 04:17:33	120220	12022020	041733	194.72	13.387202	-57.000025	194.85	-0.460	-0.090	2.170	194.72	-1.50	2.70	 	 	 	 	 	 	 	 	 	 	 	 	 	 	 	 	 	 	1581481053	11.08	20.52
12/02/2020 04:17:34	120220	12022020	041734	194.91	13.387152	-57.000042	195.12	-0.270	-0.180	2.040	194.98	-1.60	2.50	 	 	 	 	 	 	 	 	 	 	 	 	 	 	 	 	 	 	1581481054	11.12	20.59
12/02/2020 04:17:35	120220	12022020	041735	195.35	13.387102	-57.000057	195.48	0.050	-0.360	1.610	195.35	-1.70	2.10	 	 	 	 	 	 	 	 	 	 	 	 	 	 	 	 	 	 	1581481055	11.15	20.65
12/02/2020 04:17:36	120220	12022020	041736	195.62	13.387052	-57.000068	195.73	0.460	-0.590	1.170	195.62	-2.00	1.70	 	 	 	 	 	 	 	 	 	 	 	 	 	 	 	 	 	 	1581481056	11.14	20.63
12/02/2020 04:17:37	120220	12022020	041737	195.64	13.387000	-57.000080	195.74	0.850	-0.790	1.060	195.64	-2.20	1.60	 	 	 	 	 	 	 	 	 	 	 	 	 	 	 	 	 	 	1581481057	11.20	20.74
12/02/2020 04:17:38	120220	12022020	041738	195.44	13.386948	-57.000092	195.53	0.840	-0.720	1.390	195.44	-2.10	1.90	 	 	 	 	 	 	 	 	 	 	 	 	 	 	 	 	 	 	1581481058	11.32	20.96
12/02/2020 04:17:39	120220	12022020	041739	195.20	13.386900	-57.000108	195.26	0.320	-0.500	2.060	195.15	-1.90	2.60	 	 	 	 	 	 	 	 	 	 	 	 	 	 	 	 	 	 	1581481059	11.22	20.78
12/02/2020 04:17:40	120220	12022020	041740	195.04	13.386852	-57.000128	195.18	-0.440	-0.240	2.670	195.04	-1.60	3.20	 	 	 	 	 	 	 	 	 	 	 	 	 	 	 	 	 	 	1581481060	11.13	20.61
12/02/2020 04:17:41	120220	12022020	041741	195.19	13.386803	-57.000150	195.36	-0.960	0.050	3.020	195.19	-1.30	3.50	 	 	 	 	 	 	 	 	 	 	 	 	 	 	 	 	 	 	1581481061	11.26	20.85
12/02/2020 04:17:42	120220	12022020	041742	195.57	13.386755	-57.000170	195.78	-0.950	0.240	2.880	195.57	-1.10	3.40	 	 	 	 	 	 	 	 	 	 	 	 	 	 	 	 	 	 	1581481062	11.26	20.85
12/02/2020 04:17:43	120220	12022020	041743	196.02	13.386705	-57.000187	196.20	-0.490	0.140	2.430	196.02	-1.20	2.90	 	 	 	 	 	 	 	 	 	 	 	 	 	 	 	 	 	 	1581481063	11.22	20.78
12/02/2020 04:17:44	120220	12022020	041744	196.14	13.386653	-57.000203	196.31	0.060	-0.330	2.140	196.14	-1.70	2.60	 	 	 	 	 	 	 	 	 	 	 	 	 	 	 	 	 	 	1581481064	11.34	21.00
12/02/2020 04:17:45	120220	12022020	041745	196.15	13.386602	-57.000220	196.33	0.310	-0.620	1.980	196.15	-2.00	2.50	 	 	 	 	 	 	 	 	 	 	 	 	 	 	 	 	 	 	1581481065	11.72	21.71
12/02/2020 04:17:46	120220	12022020	041746	196.23	13.386553	-57.000237	196.42	0.230	-0.390	1.800	196.23	-1.70	2.30	 	 	 	 	 	 	 	 	 	 	 	 	 	 	 	 	 	 	1581481066	11.57	21.43
12/02/2020 04:17:47	120220	12022020	041747	196.32	13.386507	-57.000250	196.49	0.180	0.050	1.470	196.32	-1.30	2.00	 	 	 	 	 	 	 	 	 	 	 	 	 	 	 	 	 	 	1581481067	10.85	20.09
12/02/2020 04:17:48	120220	12022020	041748	196.36	13.386458	-57.000262	196.52	0.390	0.090	1.110	196.35	-1.30	1.60	 	 	 	 	 	 	 	 	 	 	 	 	 	 	 	 	 	 	1581481068	10.46	19.37
12/02/2020 04:17:49	120220	12022020	041749	196.22	13.386407	-57.000275	196.37	0.730	-0.370	0.910	196.22	-1.80	1.50	 	 	 	 	 	 	 	 	 	 	 	 	 	 	 	 	 	 	1581481069	10.78	19.96
12/02/2020 04:17:50	120220	12022020	041750	196.00	13.386355	-57.000288	196.15	0.740	-0.850	1.230	196.00	-2.20	1.80	 	 	 	 	 	 	 	 	 	 	 	 	 	 	 	 	 	 	1581481070	11.44	21.19
12/02/2020 04:17:51	120220	12022020	041751	195.74	13.386305	-57.000307	195.89	0.280	-0.980	1.880	195.74	-2.30	2.40	 	 	 	 	 	 	 	 	 	 	 	 	 	 	 	 	 	 	1581481071	11.58	21.45
12/02/2020 04:17:52	120220	12022020	041752	195.56	13.386258	-57.000328	195.71	-0.380	-0.650	2.410	195.56	-2.00	2.90	 	 	 	 	 	 	 	 	 	 	 	 	 	 	 	 	 	 	1581481072	11.37	21.06
12/02/2020 04:17:53	120220	12022020	041753	195.49	13.386212	-57.000350	195.63	-0.790	-0.160	2.660	195.49	-1.50	3.20	 	 	 	 	 	 	 	 	 	 	 	 	 	 	 	 	 	 	1581481073	11.04	20.45
12/02/2020 04:17:54	120220	12022020	041754	195.46	13.386163	-57.000368	195.60	-0.630	0.060	2.480	195.46	-1.30	3.00	 	 	 	 	 	 	 	 	 	 	 	 	 	 	 	 	 	 	1581481074	10.91	20.21
12/02/2020 04:17:55	120220	12022020	041755	195.44	13.386112	-57.000385	195.57	-0.080	-0.100	1.950	195.44	-1.50	2.50	 	 	 	 	 	 	 	 	 	 	 	 	 	 	 	 	 	 	1581481075	11.15	20.65
12/02/2020 04:17:56	120220	12022020	041756	195.44	13.386058	-57.000398	195.57	0.440	-0.470	1.560	195.44	-1.80	2.10	 	 	 	 	 	 	 	 	 	 	 	 	 	 	 	 	 	 	1581481076	11.54	21.37
12/02/2020 04:17:57	120220	12022020	041757	195.46	13.386007	-57.000412	195.59	0.550	-0.700	1.720	195.46	-2.10	2.30	 	 	 	 	 	 	 	 	 	 	 	 	 	 	 	 	 	 	1581481077	11.80	21.85
12/02/2020 04:17:58	120220	12022020	041758	195.47	13.385957	-57.000430	195.59	0.180	-0.550	2.330	195.46	-1.90	2.90	 	 	 	 	 	 	 	 	 	 	 	 	 	 	 	 	 	 	1581481078	11.69	21.65
12/02/2020 04:17:59	120220	12022020	041759	195.36	13.385910	-57.000452	195.50	-0.390	-0.120	3.090	195.36	-1.50	3.60	 	 	 	 	 	 	 	 	 	 	 	 	 	 	 	 	 	 	1581481079	11.25	20.84
12/02/2020 04:18:00	120220	12022020	041800	195.26	13.385863	-57.000473	195.41	-0.760	0.170	3.400	195.26	-1.20	3.90	 	 	 	 	 	 	 	 	 	 	 	 	 	 	 	 	 	 	1581481080	10.93	20.24
12/02/2020 04:18:01	120220	12022020	041801	195.22	13.385815	-57.000492	195.39	-0.670	0.170	3.390	195.22	-1.20	3.90	1016.80	25.90	25.90	21.10	21.20	-1.0	75.0	75.0	405.0	25.6	262.00	9.60	68.00	11.80	15	7776.0	27.2	27.2	1581481081	10.98	20.33
12/02/2020 04:18:02	120220	12022020	041802	195.16	13.385765	-57.000510	195.32	-0.220	-0.140	3.220	195.16	-1.50	3.70	 	 	 	 	 	 	 	 	 	 	 	 	 	 	 	 	 	 	1581481082	11.17	20.69
12/02/2020 04:18:03	120220	12022020	041803	195.10	13.385713	-57.000525	195.25	0.330	-0.400	2.790	195.10	-1.80	3.30	 	 	 	 	 	 	 	 	 	 	 	 	 	 	 	 	 	 	1581481083	11.48	21.26
12/02/2020 04:18:04	120220	12022020	041804	195.13	13.385663	-57.000537	195.27	0.690	-0.430	2.250	195.13	-1.80	2.80	 	 	 	 	 	 	 	 	 	 	 	 	 	 	 	 	 	 	1581481084	11.44	21.19
12/02/2020 04:18:05	120220	12022020	041805	195.34	13.385613	-57.000547	195.48	0.820	-0.380	1.690	195.34	-1.70	2.20	 	 	 	 	 	 	 	 	 	 	 	 	 	 	 	 	 	 	1581481085	11.15	20.65
12/02/2020 04:18:06	120220	12022020	041806	195.54	13.385562	-57.000557	195.67	0.780	-0.490	1.450	195.54	-1.90	2.00	 	 	 	 	 	 	 	 	 	 	 	 	 	 	 	 	 	 	1581481086	11.00	20.37
12/02/2020 04:18:07	120220	12022020	041807	195.51	13.385510	-57.000572	195.62	0.590	-0.770	1.810	195.51	-2.10	2.40	 	 	 	 	 	 	 	 	 	 	 	 	 	 	 	 	 	 	1581481087	11.16	20.67
12/02/2020 04:18:08	120220	12022020	041808	195.22	13.385460	-57.000590	195.35	0.160	-0.870	2.490	195.22	-2.20	3.00	 	 	 	 	 	 	 	 	 	 	 	 	 	 	 	 	 	 	1581481088	11.46	21.22
12/02/2020 04:18:09	120220	12022020	041809	195.06	13.385412	-57.000610	195.20	-0.510	-0.570	3.130	195.06	-1.90	3.70	 	 	 	 	 	 	 	 	 	 	 	 	 	 	 	 	 	 	1581481089	11.51	21.32
12/02/2020 04:18:10	120220	12022020	041810	195.04	13.385365	-57.000635	195.18	-1.130	-0.150	3.490	195.04	-1.50	4.00	 	 	 	 	 	 	 	 	 	 	 	 	 	 	 	 	 	 	1581481090	11.24	20.82
12/02/2020 04:18:11	120220	12022020	041811	195.00	13.385318	-57.000657	195.14	-1.260	0.010	3.390	195.00	-1.40	3.90	 	 	 	 	 	 	 	 	 	 	 	 	 	 	 	 	 	 	1581481091	11.12	20.59
12/02/2020 04:18:12	120220	12022020	041812	194.97	13.385268	-57.000677	195.11	-0.710	-0.050	2.720	194.98	-1.40	3.20	 	 	 	 	 	 	 	 	 	 	 	 	 	 	 	 	 	 	1581481092	11.35	21.02
12/02/2020 04:18:13	120220	12022020	041813	195.20	13.385217	-57.000688	195.32	0.150	-0.010	1.660	195.20	-1.40	2.20	 	 	 	 	 	 	 	 	 	 	 	 	 	 	 	 	 	 	1581481093	11.52	21.34
12/02/2020 04:18:14	120220	12022020	041814	195.60	13.385165	-57.000697	195.71	0.750	0.090	0.800	195.60	-1.30	1.30	 	 	 	 	 	 	 	 	 	 	 	 	 	 	 	 	 	 	1581481094	11.32	20.96
12/02/2020 04:18:15	120220	12022020	041815	195.76	13.385113	-57.000705	195.83	0.860	-0.130	0.500	195.76	-1.50	1.00	 	 	 	 	 	 	 	 	 	 	 	 	 	 	 	 	 	 	1581481095	11.06	20.48
12/02/2020 04:18:16	120220	12022020	041816	195.59	13.385062	-57.000718	195.66	0.610	-0.620	0.860	195.59	-2.00	1.40	 	 	 	 	 	 	 	 	 	 	 	 	 	 	 	 	 	 	1581481096	11.23	20.80
12/02/2020 04:18:17	120220	12022020	041817	195.37	13.385012	-57.000735	195.44	0.260	-0.930	1.580	195.37	-2.30	2.10	 	 	 	 	 	 	 	 	 	 	 	 	 	 	 	 	 	 	1581481097	11.54	21.37
12/02/2020 04:18:18	120220	12022020	041818	195.18	13.384962	-57.000753	195.28	0.000	-0.780	2.210	195.18	-2.10	2.80	 	 	 	 	 	 	 	 	 	 	 	 	 	 	 	 	 	 	1581481098	11.52	21.34
12/02/2020 04:18:19	120220	12022020	041819	195.03	13.384913	-57.000772	195.12	-0.170	-0.440	2.530	195.03	-1.80	3.10	 	 	 	 	 	 	 	 	 	 	 	 	 	 	 	 	 	 	1581481099	11.19	20.72
12/02/2020 04:18:20	120220	12022020	041820	194.98	13.384865	-57.000790	195.10	-0.380	-0.180	2.620	194.98	-1.50	3.10	 	 	 	 	 	 	 	 	 	 	 	 	 	 	 	 	 	 	1581481100	11.08	20.52
12/02/2020 04:18:21	120220	12022020	041821	195.09	13.384817	-57.000810	195.21	-0.550	-0.010	2.390	195.09	-1.40	2.90	 	 	 	 	 	 	 	 	 	 	 	 	 	 	 	 	 	 	1581481101	11.20	20.74
12/02/2020 04:18:22	120220	12022020	041822	195.30	13.384767	-57.000827	195.44	-0.490	0.000	1.780	195.30	-1.40	2.30	 	 	 	 	 	 	 	 	 	 	 	 	 	 	 	 	 	 	1581481102	11.23	20.80
12/02/2020 04:18:23	120220	12022020	041823	195.61	13.384715	-57.000840	195.85	-0.160	-0.090	0.920	195.70	-1.50	1.40	 	 	 	 	 	 	 	 	 	 	 	 	 	 	 	 	 	 	1581481103	11.27	20.87
12/02/2020 04:18:24	120220	12022020	041824	195.99	13.384665	-57.000852	196.12	0.140	-0.350	0.530	196.02	-1.70	1.10	 	 	 	 	 	 	 	 	 	 	 	 	 	 	 	 	 	 	1581481104	11.29	20.91
12/02/2020 04:18:25	120220	12022020	041825	195.96	13.384613	-57.000868	196.05	0.200	-0.790	0.900	195.96	-2.20	1.40	 	 	 	 	 	 	 	 	 	 	 	 	 	 	 	 	 	 	1581481105	11.36	21.04
12/02/2020 04:18:26	120220	12022020	041826	195.78	13.384563	-57.000888	195.85	0.040	-0.920	1.610	195.74	-2.30	2.10	 	 	 	 	 	 	 	 	 	 	 	 	 	 	 	 	 	 	1581481106	11.59	21.46
12/02/2020 04:18:27	120220	12022020	041827	195.53	13.384515	-57.000908	195.66	-0.120	-0.490	2.330	195.53	-1.80	2.90	 	 	 	 	 	 	 	 	 	 	 	 	 	 	 	 	 	 	1581481107	11.50	21.30
12/02/2020 04:18:28	120220	12022020	041828	195.25	13.384468	-57.000925	195.38	-0.040	0.090	2.690	195.25	-1.30	3.20	 	 	 	 	 	 	 	 	 	 	 	 	 	 	 	 	 	 	1581481108	10.99	20.35
12/02/2020 04:18:29	120220	12022020	041829	194.98	13.384418	-57.000940	195.10	0.280	0.330	2.570	194.98	-1.00	3.10	 	 	 	 	 	 	 	 	 	 	 	 	 	 	 	 	 	 	1581481109	10.79	19.98
12/02/2020 04:18:30	120220	12022020	041830	194.87	13.384367	-57.000953	195.01	0.480	0.060	2.360	194.87	-1.30	2.90	 	 	 	 	 	 	 	 	 	 	 	 	 	 	 	 	 	 	1581481110	11.09	20.54
12/02/2020 04:18:31	120220	12022020	041831	195.00	13.384313	-57.000968	195.15	0.330	-0.370	2.320	195.00	-1.70	2.80	 	 	 	 	 	 	 	 	 	 	 	 	 	 	 	 	 	 	1581481111	11.63	21.54
12/02/2020 04:18:32	120220	12022020	041832	195.22	13.384265	-57.000987	195.37	-0.010	-0.490	2.450	195.22	-1.90	3.00	 	 	 	 	 	 	 	 	 	 	 	 	 	 	 	 	 	 	1581481112	11.71	21.69
12/02/2020 04:18:33	120220	12022020	041833	195.43	13.384217	-57.001003	195.64	-0.270	-0.290	2.530	195.48	-1.70	3.00	 	 	 	 	 	 	 	 	 	 	 	 	 	 	 	 	 	 	1581481113	11.32	20.96
12/02/2020 04:18:34	120220	12022020	041834	195.63	13.384170	-57.001022	195.78	-0.340	-0.170	2.780	195.63	-1.50	3.30	 	 	 	 	 	 	 	 	 	 	 	 	 	 	 	 	 	 	1581481114	10.84	20.08
12/02/2020 04:18:35	120220	12022020	041835	195.52	13.384120	-57.001042	195.59	-0.210	-0.560	3.010	195.46	-1.90	3.50	 	 	 	 	 	 	 	 	 	 	 	 	 	 	 	 	 	 	1581481115	10.77	19.95
12/02/2020 04:18:36	120220	12022020	041836	195.10	13.384068	-57.001060	195.11	0.070	-1.200	2.990	195.00	-2.60	3.50	 	 	 	 	 	 	 	 	 	 	 	 	 	 	 	 	 	 	1581481116	11.37	21.06
12/02/2020 04:18:37	120220	12022020	041837	194.58	13.384017	-57.001077	194.70	0.290	-1.140	2.730	194.58	-2.50	3.20	 	 	 	 	 	 	 	 	 	 	 	 	 	 	 	 	 	 	1581481117	11.93	22.09
12/02/2020 04:18:38	120220	12022020	041838	194.52	13.383970	-57.001088	194.66	0.270	-0.180	2.210	194.54	-1.50	2.70	 	 	 	 	 	 	 	 	 	 	 	 	 	 	 	 	 	 	1581481118	11.52	21.34
12/02/2020 04:18:39	120220	12022020	041839	194.67	13.383923	-57.001098	194.78	0.040	0.550	1.860	194.67	-0.80	2.40	 	 	 	 	 	 	 	 	 	 	 	 	 	 	 	 	 	 	1581481119	10.45	19.35
12/02/2020 04:18:40	120220	12022020	041840	194.81	13.383872	-57.001113	194.92	-0.210	0.380	1.940	194.81	-1.00	2.50	 	 	 	 	 	 	 	 	 	 	 	 	 	 	 	 	 	 	1581481120	10.42	19.30
12/02/2020 04:18:41	120220	12022020	041841	195.04	13.383820	-57.001133	195.17	-0.340	-0.130	2.220	195.04	-1.50	2.70	 	 	 	 	 	 	 	 	 	 	 	 	 	 	 	 	 	 	1581481121	11.35	21.02
12/02/2020 04:18:42	120220	12022020	041842	195.28	13.383770	-57.001150	195.39	-0.250	-0.370	2.280	195.28	-1.70	2.80	 	 	 	 	 	 	 	 	 	 	 	 	 	 	 	 	 	 	1581481122	11.77	21.80
12/02/2020 04:18:43	120220	12022020	041843	195.22	13.383720	-57.001165	195.31	0.080	-0.610	2.140	195.22	-2.00	2.60	 	 	 	 	 	 	 	 	 	 	 	 	 	 	 	 	 	 	1581481123	11.39	21.09
12/02/2020 04:18:44	120220	12022020	041844	195.02	13.383667	-57.001178	195.12	0.390	-0.920	1.970	195.02	-2.30	2.50	 	 	 	 	 	 	 	 	 	 	 	 	 	 	 	 	 	 	1581481124	11.34	21.00
12/02/2020 04:18:45	120220	12022020	041845	194.99	13.383617	-57.001192	195.10	0.330	-0.860	1.810	194.99	-2.20	2.30	 	 	 	 	 	 	 	 	 	 	 	 	 	 	 	 	 	 	1581481125	11.64	21.56
12/02/2020 04:18:46	120220	12022020	041846	194.98	13.383567	-57.001207	195.06	-0.030	-0.470	1.790	194.98	-1.80	2.30	 	 	 	 	 	 	 	 	 	 	 	 	 	 	 	 	 	 	1581481126	11.40	21.11
12/02/2020 04:18:47	120220	12022020	041847	194.75	13.383518	-57.001223	194.83	-0.340	-0.210	2.100	194.75	-1.60	2.60	 	 	 	 	 	 	 	 	 	 	 	 	 	 	 	 	 	 	1581481127	10.99	20.35
12/02/2020 04:18:48	120220	12022020	041848	194.37	13.383468	-57.001243	194.46	-0.370	-0.140	2.630	194.37	-1.50	3.10	 	 	 	 	 	 	 	 	 	 	 	 	 	 	 	 	 	 	1581481128	11.16	20.67
12/02/2020 04:18:49	120220	12022020	041849	194.15	13.383418	-57.001262	194.25	-0.260	0.130	2.800	194.15	-1.20	3.30	 	 	 	 	 	 	 	 	 	 	 	 	 	 	 	 	 	 	1581481129	11.49	21.28
12/02/2020 04:18:50	120220	12022020	041850	194.24	13.383370	-57.001277	194.34	-0.180	0.480	2.560	194.24	-0.90	3.00	 	 	 	 	 	 	 	 	 	 	 	 	 	 	 	 	 	 	1581481130	11.29	20.91
12/02/2020 04:18:51	120220	12022020	041851	194.39	13.383322	-57.001292	194.50	-0.040	0.370	2.210	194.39	-1.00	2.70	 	 	 	 	 	 	 	 	 	 	 	 	 	 	 	 	 	 	1581481131	10.86	20.11
12/02/2020 04:18:52	120220	12022020	041852	194.56	13.383268	-57.001305	194.66	0.280	-0.140	1.860	194.56	-1.50	2.40	 	 	 	 	 	 	 	 	 	 	 	 	 	 	 	 	 	 	1581481132	11.09	20.54
12/02/2020 04:18:53	120220	12022020	041853	194.66	13.383217	-57.001318	194.77	0.550	-0.610	1.740	194.66	-2.00	2.30	 	 	 	 	 	 	 	 	 	 	 	 	 	 	 	 	 	 	1581481133	11.48	21.26
12/02/2020 04:18:54	120220	12022020	041854	194.70	13.383167	-57.001332	194.80	0.480	-0.750	1.820	194.70	-2.10	2.30	 	 	 	 	 	 	 	 	 	 	 	 	 	 	 	 	 	 	1581481134	11.45	21.21
12/02/2020 04:18:55	120220	12022020	041855	194.88	13.383120	-57.001347	195.02	-0.010	-0.510	1.990	194.88	-1.90	2.50	 	 	 	 	 	 	 	 	 	 	 	 	 	 	 	 	 	 	1581481135	11.15	20.65
12/02/2020 04:18:56	120220	12022020	041856	195.23	13.383073	-57.001367	195.38	-0.530	-0.370	2.070	195.23	-1.70	2.60	 	 	 	 	 	 	 	 	 	 	 	 	 	 	 	 	 	 	1581481136	10.70	19.82
12/02/2020 04:18:57	120220	12022020	041857	195.49	13.383023	-57.001385	195.63	-0.470	-0.720	1.760	195.49	-2.10	2.30	 	 	 	 	 	 	 	 	 	 	 	 	 	 	 	 	 	 	1581481137	10.76	19.93
12/02/2020 04:18:58	120220	12022020	041858	195.61	13.382968	-57.001398	195.74	0.270	-1.210	0.940	195.61	-2.60	1.40	 	 	 	 	 	 	 	 	 	 	 	 	 	 	 	 	 	 	1581481138	11.44	21.19
12/02/2020 04:18:59	120220	12022020	041859	195.85	13.382915	-57.001407	195.98	0.950	-1.090	0.190	195.85	-2.40	0.70	 	 	 	 	 	 	 	 	 	 	 	 	 	 	 	 	 	 	1581481139	11.99	22.21
12/02/2020 04:19:00	120220	12022020	041900	196.17	13.382865	-57.001417	196.27	0.740	-0.400	0.190	196.17	-1.70	0.70	 	 	 	 	 	 	 	 	 	 	 	 	 	 	 	 	 	 	1581481140	11.67	21.61
12/02/2020 04:19:01	120220	12022020	041901	196.11	13.382817	-57.001432	196.17	-0.210	-0.030	0.930	196.11	-1.40	1.50	1016.80	25.80	25.90	21.20	21.20	-1.0	75.0	75.0	403.0	25.6	259.00	9.80	67.00	12.30	15	7497.0	27.2	27.2	1581481141	10.90	20.19
12/02/2020 04:19:02	120220	12022020	041902	195.56	13.382767	-57.001457	195.63	-1.160	-0.300	2.300	195.56	-1.70	2.90	 	 	 	 	 	 	 	 	 	 	 	 	 	 	 	 	 	 	1581481142	11.04	20.45
12/02/2020 04:19:03	120220	12022020	041903	194.90	13.382717	-57.001485	194.82	-1.480	-0.490	3.600	194.74	-1.80	4.10	 	 	 	 	 	 	 	 	 	 	 	 	 	 	 	 	 	 	1581481143	12.00	22.22
12/02/2020 04:19:04	120220	12022020	041904	193.97	13.382668	-57.001510	194.06	-1.090	-0.030	4.240	193.97	-1.40	4.70	 	 	 	 	 	 	 	 	 	 	 	 	 	 	 	 	 	 	1581481144	12.40	22.96
12/02/2020 04:19:05	120220	12022020	041905	193.41	13.382620	-57.001532	193.52	-0.370	0.470	4.170	193.41	-0.90	4.70	 	 	 	 	 	 	 	 	 	 	 	 	 	 	 	 	 	 	1581481145	11.64	21.56
12/02/2020 04:19:06	120220	12022020	041906	193.16	13.382570	-57.001545	193.28	0.280	0.630	3.460	193.16	-0.70	3.90	 	 	 	 	 	 	 	 	 	 	 	 	 	 	 	 	 	 	1581481146	11.18	20.71
12/02/2020 04:19:07	120220	12022020	041907	193.40	13.382520	-57.001555	193.53	0.660	0.700	2.290	193.40	-0.60	2.80	 	 	 	 	 	 	 	 	 	 	 	 	 	 	 	 	 	 	1581481147	11.18	20.71
12/02/2020 04:19:08	120220	12022020	041908	194.20	13.382472	-57.001562	194.32	0.740	0.760	1.130	194.20	-0.60	1.60	 	 	 	 	 	 	 	 	 	 	 	 	 	 	 	 	 	 	1581481148	10.93	20.24
12/02/2020 04:19:09	120220	12022020	041909	194.85	13.382423	-57.001572	195.08	0.750	0.170	0.710	194.97	-1.20	1.20	 	 	 	 	 	 	 	 	 	 	 	 	 	 	 	 	 	 	1581481149	10.43	19.32
12/02/2020 04:19:10	120220	12022020	041910	195.28	13.382372	-57.001585	195.38	0.900	-1.170	1.130	195.28	-2.60	1.70	 	 	 	 	 	 	 	 	 	 	 	 	 	 	 	 	 	 	1581481150	10.63	19.69
12/02/2020 04:19:11	120220	12022020	041911	195.37	13.382320	-57.001602	195.51	0.900	-2.210	1.970	195.37	-3.60	2.50	 	 	 	 	 	 	 	 	 	 	 	 	 	 	 	 	 	 	1581481151	11.54	21.37
12/02/2020 04:19:12	120220	12022020	041912	195.50	13.382272	-57.001620	195.67	0.420	-2.200	2.730	195.50	-3.50	3.30	 	 	 	 	 	 	 	 	 	 	 	 	 	 	 	 	 	 	1581481152	11.64	21.56
12/02/2020 04:19:13	120220	12022020	041913	195.56	13.382227	-57.001638	195.71	-0.340	-1.540	3.150	195.56	-2.80	3.70	 	 	 	 	 	 	 	 	 	 	 	 	 	 	 	 	 	 	1581481153	10.89	20.17
12/02/2020 04:19:14	120220	12022020	041914	195.38	13.382180	-57.001658	195.45	-0.840	-0.900	3.240	195.31	-2.20	3.70	 	 	 	 	 	 	 	 	 	 	 	 	 	 	 	 	 	 	1581481154	10.49	19.43
12/02/2020 04:19:15	120220	12022020	041915	194.85	13.382130	-57.001675	194.96	-0.790	-0.530	3.050	194.85	-1.90	3.50	 	 	 	 	 	 	 	 	 	 	 	 	 	 	 	 	 	 	1581481155	10.89	20.17
12/02/2020 04:19:16	120220	12022020	041916	194.25	13.382075	-57.001692	194.34	-0.380	-0.330	2.750	194.25	-1.70	3.30	 	 	 	 	 	 	 	 	 	 	 	 	 	 	 	 	 	 	1581481156	11.53	21.35
12/02/2020 04:19:17	120220	12022020	041917	193.82	13.382022	-57.001705	193.84	-0.060	0.090	2.460	193.74	-1.20	3.00	 	 	 	 	 	 	 	 	 	 	 	 	 	 	 	 	 	 	1581481157	11.99	22.21
12/02/2020 04:19:18	120220	12022020	041918	193.67	13.381972	-57.001718	193.79	-0.130	0.870	2.110	193.67	-0.40	2.60	 	 	 	 	 	 	 	 	 	 	 	 	 	 	 	 	 	 	1581481158	11.91	22.06
12/02/2020 04:19:19	120220	12022020	041919	194.09	13.381923	-57.001732	194.23	-0.440	1.610	1.710	194.09	0.30	2.20	 	 	 	 	 	 	 	 	 	 	 	 	 	 	 	 	 	 	1581481159	11.27	20.87
12/02/2020 04:19:20	120220	12022020	041920	194.83	13.381875	-57.001747	194.99	-0.530	1.660	1.300	194.83	0.30	1.80	 	 	 	 	 	 	 	 	 	 	 	 	 	 	 	 	 	 	1581481160	10.72	19.85
12/02/2020 04:19:21	120220	12022020	041921	195.70	13.381825	-57.001760	195.86	-0.140	0.870	0.990	195.70	-0.50	1.50	 	 	 	 	 	 	 	 	 	 	 	 	 	 	 	 	 	 	1581481161	10.82	20.04
12/02/2020 04:19:22	120220	12022020	041922	196.33	13.381773	-57.001777	196.48	0.430	-0.430	1.120	196.33	-1.80	1.60	 	 	 	 	 	 	 	 	 	 	 	 	 	 	 	 	 	 	1581481162	11.25	20.84
12/02/2020 04:19:23	120220	12022020	041923	196.49	13.381723	-57.001795	196.59	0.780	-1.630	1.680	196.49	-3.00	2.20	 	 	 	 	 	 	 	 	 	 	 	 	 	 	 	 	 	 	1581481163	11.53	21.35
12/02/2020 04:19:24	120220	12022020	041924	196.16	13.381675	-57.001812	196.26	0.780	-2.150	2.400	196.16	-3.50	2.90	 	 	 	 	 	 	 	 	 	 	 	 	 	 	 	 	 	 	1581481164	11.47	21.24
12/02/2020 04:19:25	120220	12022020	041925	195.79	13.381628	-57.001828	195.93	0.420	-1.800	2.730	195.79	-3.10	3.20	 	 	 	 	 	 	 	 	 	 	 	 	 	 	 	 	 	 	1581481165	11.07	20.50
12/02/2020 04:19:26	120220	12022020	041926	195.50	13.381582	-57.001845	195.62	-0.040	-1.150	2.770	195.50	-2.50	3.30	 	 	 	 	 	 	 	 	 	 	 	 	 	 	 	 	 	 	1581481166	10.52	19.48
12/02/2020 04:19:27	120220	12022020	041927	195.29	13.381533	-57.001860	195.38	-0.260	-0.630	2.500	195.26	-1.90	3.00	 	 	 	 	 	 	 	 	 	 	 	 	 	 	 	 	 	 	1581481167	10.48	19.41
12/02/2020 04:19:28	120220	12022020	041928	195.21	13.381483	-57.001875	195.37	-0.170	-0.170	1.960	195.22	-1.50	2.40	 	 	 	 	 	 	 	 	 	 	 	 	 	 	 	 	 	 	1581481168	11.01	20.39
12/02/2020 04:19:29	120220	12022020	041929	195.34	13.381432	-57.001888	195.47	-0.020	0.230	1.540	195.34	-1.10	2.00	 	 	 	 	 	 	 	 	 	 	 	 	 	 	 	 	 	 	1581481169	11.29	20.91
12/02/2020 04:19:30	120220	12022020	041930	195.56	13.381380	-57.001903	195.69	-0.110	0.460	1.320	195.56	-0.90	1.80	 	 	 	 	 	 	 	 	 	 	 	 	 	 	 	 	 	 	1581481170	11.37	21.06
12/02/2020 04:19:31	120220	12022020	041931	195.65	13.381330	-57.001920	195.76	-0.410	0.410	1.560	195.65	-1.00	2.10	 	 	 	 	 	 	 	 	 	 	 	 	 	 	 	 	 	 	1581481171	11.40	21.11
12/02/2020 04:19:32	120220	12022020	041932	195.51	13.381280	-57.001940	195.63	-0.580	0.190	2.070	195.51	-1.20	2.60	 	 	 	 	 	 	 	 	 	 	 	 	 	 	 	 	 	 	1581481172	11.46	21.22
12/02/2020 04:19:33	120220	12022020	041933	195.39	13.381230	-57.001958	195.49	-0.350	0.100	2.240	195.37	-1.30	2.70	 	 	 	 	 	 	 	 	 	 	 	 	 	 	 	 	 	 	1581481173	11.56	21.41
12/02/2020 04:19:34	120220	12022020	041934	195.24	13.381180	-57.001972	195.36	0.180	0.090	2.010	195.24	-1.30	2.50	 	 	 	 	 	 	 	 	 	 	 	 	 	 	 	 	 	 	1581481174	11.30	20.93
12/02/2020 04:19:35	120220	12022020	041935	195.32	13.381130	-57.001983	195.45	0.600	0.020	1.520	195.32	-1.30	2.00	 	 	 	 	 	 	 	 	 	 	 	 	 	 	 	 	 	 	1581481175	11.07	20.50
12/02/2020 04:19:36	120220	12022020	041936	195.73	13.381082	-57.001993	195.88	0.600	-0.090	1.060	195.73	-1.50	1.60	 	 	 	 	 	 	 	 	 	 	 	 	 	 	 	 	 	 	1581481176	11.02	20.41
12/02/2020 04:19:37	120220	12022020	041937	196.23	13.381033	-57.002008	196.37	0.290	-0.470	1.060	196.23	-1.80	1.60	 	 	 	 	 	 	 	 	 	 	 	 	 	 	 	 	 	 	1581481177	10.84	20.08
12/02/2020 04:19:38	120220	12022020	041938	196.43	13.380983	-57.002027	196.58	0.070	-1.190	1.480	196.44	-2.60	2.00	 	 	 	 	 	 	 	 	 	 	 	 	 	 	 	 	 	 	1581481178	10.89	20.17
12/02/2020 04:19:39	120220	12022020	041939	196.34	13.380933	-57.002047	196.48	0.080	-1.810	2.120	196.34	-3.20	2.60	 	 	 	 	 	 	 	 	 	 	 	 	 	 	 	 	 	 	1581481179	11.37	21.06
12/02/2020 04:19:40	120220	12022020	041940	196.10	13.380885	-57.002067	196.21	0.130	-1.680	2.660	196.10	-3.00	3.20	 	 	 	 	 	 	 	 	 	 	 	 	 	 	 	 	 	 	1581481180	11.67	21.61
12/02/2020 04:19:41	120220	12022020	041941	195.76	13.380838	-57.002085	195.89	0.040	-0.830	2.830	195.76	-2.10	3.30	 	 	 	 	 	 	 	 	 	 	 	 	 	 	 	 	 	 	1581481181	11.26	20.85
12/02/2020 04:19:42	120220	12022020	041942	195.49	13.380790	-57.002100	195.62	-0.230	0.050	2.740	195.49	-1.30	3.20	 	 	 	 	 	 	 	 	 	 	 	 	 	 	 	 	 	 	1581481182	10.69	19.80
12/02/2020 04:19:43	120220	12022020	041943	195.45	13.380740	-57.002115	195.58	-0.500	0.430	2.390	195.45	-0.90	2.90	 	 	 	 	 	 	 	 	 	 	 	 	 	 	 	 	 	 	1581481183	10.72	19.85
12/02/2020 04:19:44	120220	12022020	041944	195.62	13.380687	-57.002130	195.75	-0.520	0.290	1.930	195.62	-1.10	2.40	 	 	 	 	 	 	 	 	 	 	 	 	 	 	 	 	 	 	1581481184	11.27	20.87
12/02/2020 04:19:45	120220	12022020	041945	195.85	13.380633	-57.002147	195.97	-0.250	0.090	1.580	195.85	-1.30	2.10	 	 	 	 	 	 	 	 	 	 	 	 	 	 	 	 	 	 	1581481185	11.83	21.91
12/02/2020 04:19:46	120220	12022020	041946	196.23	13.380582	-57.002160	196.34	0.060	0.190	1.360	196.23	-1.20	1.90	 	 	 	 	 	 	 	 	 	 	 	 	 	 	 	 	 	 	1581481186	11.93	22.09
12/02/2020 04:19:47	120220	12022020	041947	196.80	13.380533	-57.002175	196.92	0.190	0.380	1.380	196.80	-1.00	1.90	 	 	 	 	 	 	 	 	 	 	 	 	 	 	 	 	 	 	1581481187	11.45	21.21
12/02/2020 04:19:48	120220	12022020	041948	197.16	13.380485	-57.002193	197.28	0.170	0.220	1.840	197.16	-1.20	2.40	 	 	 	 	 	 	 	 	 	 	 	 	 	 	 	 	 	 	1581481188	10.96	20.30
12/02/2020 04:19:49	120220	12022020	041949	196.98	13.380435	-57.002213	197.09	0.200	-0.370	2.420	196.98	-1.70	2.90	 	 	 	 	 	 	 	 	 	 	 	 	 	 	 	 	 	 	1581481189	11.04	20.45
12/02/2020 04:19:50	120220	12022020	041950	196.65	13.380385	-57.002232	196.78	0.260	-0.700	2.600	196.65	-2.10	3.10	 	 	 	 	 	 	 	 	 	 	 	 	 	 	 	 	 	 	1581481190	11.47	21.24
12/02/2020 04:19:51	120220	12022020	041951	196.72	13.380338	-57.002247	196.88	0.160	-0.430	2.250	196.72	-1.80	2.70	 	 	 	 	 	 	 	 	 	 	 	 	 	 	 	 	 	 	1581481191	11.36	21.04
12/02/2020 04:19:52	120220	12022020	041952	197.04	13.380293	-57.002260	197.21	-0.020	0.000	1.690	197.04	-1.40	2.20	 	 	 	 	 	 	 	 	 	 	 	 	 	 	 	 	 	 	1581481192	10.57	19.58
12/02/2020 04:19:53	120220	12022020	041953	197.15	13.380247	-57.002275	197.29	-0.020	-0.220	1.300	197.15	-1.60	1.80	 	 	 	 	 	 	 	 	 	 	 	 	 	 	 	 	 	 	1581481193	10.12	18.74
12/02/2020 04:19:54	120220	12022020	041954	197.01	13.380195	-57.002292	197.15	0.240	-1.000	1.160	197.01	-2.40	1.70	 	 	 	 	 	 	 	 	 	 	 	 	 	 	 	 	 	 	1581481194	10.71	19.83
12/02/2020 04:19:55	120220	12022020	041955	196.77	13.380143	-57.002310	196.90	0.480	-1.560	1.320	196.77	-2.90	1.80	 	 	 	 	 	 	 	 	 	 	 	 	 	 	 	 	 	 	1581481195	11.59	21.46
12/02/2020 04:19:56	120220	12022020	041956	196.39	13.380093	-57.002327	196.53	0.480	-1.450	1.660	196.39	-2.80	2.20	 	 	 	 	 	 	 	 	 	 	 	 	 	 	 	 	 	 	1581481196	11.73	21.72
12/02/2020 04:19:57	120220	12022020	041957	196.07	13.380045	-57.002343	196.21	0.190	-0.820	1.910	196.07	-2.20	2.40	 	 	 	 	 	 	 	 	 	 	 	 	 	 	 	 	 	 	1581481197	11.35	21.02
12/02/2020 04:19:58	120220	12022020	041958	195.95	13.379995	-57.002360	196.10	-0.170	-0.150	2.030	195.95	-1.50	2.50	 	 	 	 	 	 	 	 	 	 	 	 	 	 	 	 	 	 	1581481198	11.04	20.45
12/02/2020 04:19:59	120220	12022020	041959	196.01	13.379945	-57.002377	196.18	-0.450	0.280	2.060	196.04	-1.10	2.60	 	 	 	 	 	 	 	 	 	 	 	 	 	 	 	 	 	 	1581481199	11.12	20.59
12/02/2020 04:20:00	120220	12022020	042000	196.23	13.379893	-57.002395	196.38	-0.720	0.480	2.060	196.23	-0.90	2.60	 	 	 	 	 	 	 	 	 	 	 	 	 	 	 	 	 	 	1581481200	11.40	21.11
12/02/2020 04:20:01	120220	12022020	042001	196.48	13.379843	-57.002413	196.62	-0.970	0.520	2.170	196.48	-0.90	2.70	1016.80	25.80	25.80	21.10	21.10	-1.0	75.0	75.0	401.0	25.6	254.00	9.30	62.00	12.20	15	7299.0	27.2	27.2	1581481201	11.58	21.45
12/02/2020 04:20:02	120220	12022020	042002	196.63	13.379795	-57.002435	196.77	-1.010	0.400	2.220	196.63	-1.00	2.70	 	 	 	 	 	 	 	 	 	 	 	 	 	 	 	 	 	 	1581481202	11.55	21.39
12/02/2020 04:20:03	120220	12022020	042003	196.57	13.379745	-57.002455	196.69	-0.520	0.080	2.050	196.57	-1.30	2.50	 	 	 	 	 	 	 	 	 	 	 	 	 	 	 	 	 	 	1581481203	11.47	21.24
12/02/2020 04:20:04	120220	12022020	042004	196.49	13.379693	-57.002470	196.61	0.360	-0.140	1.500	196.49	-1.50	2.00	 	 	 	 	 	 	 	 	 	 	 	 	 	 	 	 	 	 	1581481204	11.50	21.30
12/02/2020 04:20:05	120220	12022020	042005	196.56	13.379645	-57.002480	196.67	1.030	-0.080	0.920	196.56	-1.40	1.40	 	 	 	 	 	 	 	 	 	 	 	 	 	 	 	 	 	 	1581481205	11.31	20.95
12/02/2020 04:20:06	120220	12022020	042006	196.65	13.379597	-57.002492	196.73	1.160	-0.100	0.670	196.65	-1.50	1.20	 	 	 	 	 	 	 	 	 	 	 	 	 	 	 	 	 	 	1581481206	10.80	20.00
12/02/2020 04:20:07	120220	12022020	042007	196.56	13.379548	-57.002507	196.64	0.910	-0.460	0.900	196.56	-1.80	1.40	 	 	 	 	 	 	 	 	 	 	 	 	 	 	 	 	 	 	1581481207	10.57	19.58
12/02/2020 04:20:08	120220	12022020	042008	196.39	13.379500	-57.002523	196.46	0.490	-0.950	1.520	196.39	-2.30	2.10	 	 	 	 	 	 	 	 	 	 	 	 	 	 	 	 	 	 	1581481208	10.86	20.11
12/02/2020 04:20:09	120220	12022020	042009	196.16	13.379450	-57.002545	196.26	0.060	-1.370	2.210	196.16	-2.70	2.70	 	 	 	 	 	 	 	 	 	 	 	 	 	 	 	 	 	 	1581481209	11.14	20.63
12/02/2020 04:20:10	120220	12022020	042010	195.93	13.379402	-57.002567	196.05	-0.350	-1.430	2.670	195.93	-2.80	3.20	 	 	 	 	 	 	 	 	 	 	 	 	 	 	 	 	 	 	1581481210	11.39	21.09
12/02/2020 04:20:11	120220	12022020	042011	195.64	13.379355	-57.002588	195.74	-0.620	-1.110	2.920	195.64	-2.40	3.40	 	 	 	 	 	 	 	 	 	 	 	 	 	 	 	 	 	 	1581481211	11.40	21.11
12/02/2020 04:20:12	120220	12022020	042012	195.35	13.379305	-57.002607	195.47	-0.550	-0.610	2.710	195.35	-1.90	3.20	 	 	 	 	 	 	 	 	 	 	 	 	 	 	 	 	 	 	1581481212	11.27	20.87
12/02/2020 04:20:13	120220	12022020	042013	195.26	13.379253	-57.002622	195.36	-0.230	-0.110	2.160	195.26	-1.40	2.60	 	 	 	 	 	 	 	 	 	 	 	 	 	 	 	 	 	 	1581481213	11.30	20.93
12/02/2020 04:20:14	120220	12022020	042014	195.46	13.379202	-57.002635	195.58	-0.040	0.320	1.650	195.46	-1.00	2.10	 	 	 	 	 	 	 	 	 	 	 	 	 	 	 	 	 	 	1581481214	11.43	21.17
12/02/2020 04:20:15	120220	12022020	042015	195.96	13.379152	-57.002650	196.09	-0.180	0.620	1.670	195.96	-0.70	2.20	 	 	 	 	 	 	 	 	 	 	 	 	 	 	 	 	 	 	1581481215	11.46	21.22
12/02/2020 04:20:16	120220	12022020	042016	196.55	13.379103	-57.002670	196.68	-0.420	0.700	2.000	196.55	-0.60	2.50	 	 	 	 	 	 	 	 	 	 	 	 	 	 	 	 	 	 	1581481216	11.30	20.93
12/02/2020 04:20:17	120220	12022020	042017	196.97	13.379055	-57.002688	197.11	-0.330	0.500	2.140	196.97	-0.90	2.60	 	 	 	 	 	 	 	 	 	 	 	 	 	 	 	 	 	 	1581481217	11.17	20.69
12/02/2020 04:20:18	120220	12022020	042018	197.11	13.379005	-57.002703	197.24	0.200	0.020	2.120	197.12	-1.30	2.60	 	 	 	 	 	 	 	 	 	 	 	 	 	 	 	 	 	 	1581481218	11.17	20.69
12/02/2020 04:20:19	120220	12022020	042019	197.07	13.378953	-57.002718	197.18	0.730	-0.460	1.920	197.07	-1.80	2.40	 	 	 	 	 	 	 	 	 	 	 	 	 	 	 	 	 	 	1581481219	11.28	20.89
12/02/2020 04:20:20	120220	12022020	042020	196.94	13.378905	-57.002732	197.05	0.780	-0.690	1.700	196.94	-2.00	2.20	 	 	 	 	 	 	 	 	 	 	 	 	 	 	 	 	 	 	1581481220	11.24	20.82
12/02/2020 04:20:21	120220	12022020	042021	196.79	13.378858	-57.002748	196.91	0.340	-0.740	1.650	196.79	-2.10	2.20	 	 	 	 	 	 	 	 	 	 	 	 	 	 	 	 	 	 	1581481221	10.92	20.22
12/02/2020 04:20:22	120220	12022020	042022	196.54	13.378812	-57.002767	196.65	-0.080	-0.870	1.800	196.54	-2.20	2.30	 	 	 	 	 	 	 	 	 	 	 	 	 	 	 	 	 	 	1581481222	10.65	19.72
12/02/2020 04:20:23	120220	12022020	042023	196.17	13.378762	-57.002788	196.21	-0.140	-1.090	2.130	196.09	-2.40	2.60	 	 	 	 	 	 	 	 	 	 	 	 	 	 	 	 	 	 	1581481223	10.89	20.17
12/02/2020 04:20:24	120220	12022020	042024	195.91	13.378713	-57.002807	196.06	-0.010	-1.050	2.110	195.91	-2.40	2.60	 	 	 	 	 	 	 	 	 	 	 	 	 	 	 	 	 	 	1581481224	11.38	21.08
12/02/2020 04:20:25	120220	12022020	042025	196.11	13.378663	-57.002823	196.27	-0.060	-0.780	2.000	196.11	-2.10	2.50	 	 	 	 	 	 	 	 	 	 	 	 	 	 	 	 	 	 	1581481225	11.38	21.08
12/02/2020 04:20:26	120220	12022020	042026	196.18	13.378613	-57.002843	196.31	-0.340	-0.640	2.320	196.18	-2.00	2.80	 	 	 	 	 	 	 	 	 	 	 	 	 	 	 	 	 	 	1581481226	11.22	20.78
12/02/2020 04:20:27	120220	12022020	042027	195.91	13.378562	-57.002867	196.04	-0.610	-0.570	2.970	195.91	-1.90	3.50	 	 	 	 	 	 	 	 	 	 	 	 	 	 	 	 	 	 	1581481227	11.53	21.35
12/02/2020 04:20:28	120220	12022020	042028	195.66	13.378513	-57.002888	195.83	-0.680	-0.040	3.330	195.66	-1.30	3.80	 	 	 	 	 	 	 	 	 	 	 	 	 	 	 	 	 	 	1581481228	11.96	22.15
12/02/2020 04:20:29	120220	12022020	042029	195.78	13.378467	-57.002907	196.00	-0.500	0.990	2.890	195.78	-0.30	3.40	 	 	 	 	 	 	 	 	 	 	 	 	 	 	 	 	 	 	1581481229	11.63	21.54
12/02/2020 04:20:30	120220	12022020	042030	196.34	13.378418	-57.002918	196.56	-0.100	1.750	1.840	196.34	0.40	2.30	 	 	 	 	 	 	 	 	 	 	 	 	 	 	 	 	 	 	1581481230	10.76	19.93
12/02/2020 04:20:31	120220	12022020	042031	196.99	13.378368	-57.002927	197.18	0.370	1.440	0.840	196.99	0.10	1.30	 	 	 	 	 	 	 	 	 	 	 	 	 	 	 	 	 	 	1581481231	10.43	19.32
12/02/2020 04:20:32	120220	12022020	042032	197.41	13.378315	-57.002938	197.58	0.800	0.220	0.450	197.41	-1.20	1.00	 	 	 	 	 	 	 	 	 	 	 	 	 	 	 	 	 	 	1581481232	11.01	20.39
12/02/2020 04:20:33	120220	12022020	042033	197.37	13.378263	-57.002953	197.50	1.030	-1.210	0.700	197.37	-2.60	1.20	 	 	 	 	 	 	 	 	 	 	 	 	 	 	 	 	 	 	1581481233	11.62	21.52
12/02/2020 04:20:34	120220	12022020	042034	196.74	13.378212	-57.002970	196.88	0.870	-2.230	1.690	196.74	-3.60	2.20	 	 	 	 	 	 	 	 	 	 	 	 	 	 	 	 	 	 	1581481234	11.70	21.67
12/02/2020 04:20:35	120220	12022020	042035	195.79	13.378165	-57.002992	195.92	0.270	-2.490	2.980	195.79	-3.80	3.50	 	 	 	 	 	 	 	 	 	 	 	 	 	 	 	 	 	 	1581481235	11.50	21.30
12/02/2020 04:20:36	120220	12022020	042036	194.90	13.378118	-57.003017	195.04	-0.500	-1.930	3.850	194.90	-3.20	4.40	 	 	 	 	 	 	 	 	 	 	 	 	 	 	 	 	 	 	1581481236	11.26	20.85
12/02/2020 04:20:37	120220	12022020	042037	194.32	13.378075	-57.003042	194.47	-1.010	-0.830	4.200	194.32	-2.10	4.70	 	 	 	 	 	 	 	 	 	 	 	 	 	 	 	 	 	 	1581481237	11.05	20.46
12/02/2020 04:20:38	120220	12022020	042038	194.12	13.378028	-57.003062	194.28	-1.010	0.240	3.860	194.12	-1.00	4.30	 	 	 	 	 	 	 	 	 	 	 	 	 	 	 	 	 	 	1581481238	10.87	20.13
12/02/2020 04:20:39	120220	12022020	042039	194.27	13.377978	-57.003078	194.50	-0.540	0.720	2.990	194.34	-0.60	3.50	 	 	 	 	 	 	 	 	 	 	 	 	 	 	 	 	 	 	1581481239	10.87	20.13
12/02/2020 04:20:40	120220	12022020	042040	194.90	13.377925	-57.003092	195.08	-0.000	0.610	2.070	194.90	-0.70	2.50	 	 	 	 	 	 	 	 	 	 	 	 	 	 	 	 	 	 	1581481240	11.32	20.96
12/02/2020 04:20:41	120220	12022020	042041	195.50	13.377872	-57.003105	195.84	0.290	0.320	1.510	195.65	-1.00	2.00	 	 	 	 	 	 	 	 	 	 	 	 	 	 	 	 	 	 	1581481241	11.85	21.95
12/02/2020 04:20:42	120220	12022020	042042	196.30	13.377820	-57.003118	196.64	0.300	0.250	1.300	196.46	-1.10	1.80	 	 	 	 	 	 	 	 	 	 	 	 	 	 	 	 	 	 	1581481242	11.84	21.93
12/02/2020 04:20:43	120220	12022020	042043	197.14	13.377772	-57.003132	197.31	0.220	0.330	1.270	197.14	-1.00	1.80	 	 	 	 	 	 	 	 	 	 	 	 	 	 	 	 	 	 	1581481243	11.29	20.91
12/02/2020 04:20:44	120220	12022020	042044	197.37	13.377723	-57.003145	197.52	0.280	-0.000	1.480	197.37	-1.40	2.00	 	 	 	 	 	 	 	 	 	 	 	 	 	 	 	 	 	 	1581481244	10.77	19.95
12/02/2020 04:20:45	120220	12022020	042045	197.21	13.377672	-57.003160	197.36	0.470	-0.730	1.730	197.21	-2.10	2.30	 	 	 	 	 	 	 	 	 	 	 	 	 	 	 	 	 	 	1581481245	10.96	20.30
12/02/2020 04:20:46	120220	12022020	042046	197.06	13.377622	-57.003177	197.21	0.420	-1.070	1.970	197.06	-2.40	2.50	 	 	 	 	 	 	 	 	 	 	 	 	 	 	 	 	 	 	1581481246	11.54	21.37
12/02/2020 04:20:47	120220	12022020	042047	196.90	13.377575	-57.003193	197.05	-0.050	-0.870	2.140	196.90	-2.20	2.70	 	 	 	 	 	 	 	 	 	 	 	 	 	 	 	 	 	 	1581481247	11.25	20.84
12/02/2020 04:20:48	120220	12022020	042048	196.61	13.377528	-57.003213	196.74	-0.590	-0.580	2.290	196.61	-1.90	2.80	 	 	 	 	 	 	 	 	 	 	 	 	 	 	 	 	 	 	1581481248	10.66	19.74
12/02/2020 04:20:49	120220	12022020	042049	196.20	13.377482	-57.003235	196.31	-0.670	-0.530	2.370	196.20	-1.90	2.90	 	 	 	 	 	 	 	 	 	 	 	 	 	 	 	 	 	 	1581481249	10.63	19.69
12/02/2020 04:20:50	120220	12022020	042050	195.67	13.377432	-57.003255	195.77	-0.110	-0.690	2.230	195.67	-2.00	2.70	 	 	 	 	 	 	 	 	 	 	 	 	 	 	 	 	 	 	1581481250	11.05	20.46
12/02/2020 04:20:51	120220	12022020	042051	195.24	13.377382	-57.003270	195.36	0.580	-0.610	1.830	195.24	-1.90	2.30	 	 	 	 	 	 	 	 	 	 	 	 	 	 	 	 	 	 	1581481251	11.51	21.32
12/02/2020 04:20:52	120220	12022020	042052	195.32	13.377332	-57.003282	195.46	0.790	-0.160	1.080	195.32	-1.50	1.60	 	 	 	 	 	 	 	 	 	 	 	 	 	 	 	 	 	 	1581481252	11.47	21.24
12/02/2020 04:20:53	120220	12022020	042053	195.93	13.377282	-57.003293	196.08	0.360	0.260	0.500	195.93	-1.10	1.00	 	 	 	 	 	 	 	 	 	 	 	 	 	 	 	 	 	 	1581481253	11.08	20.52
12/02/2020 04:20:54	120220	12022020	042054	196.55	13.377233	-57.003310	196.84	-0.280	0.190	0.850	196.68	-1.20	1.40	 	 	 	 	 	 	 	 	 	 	 	 	 	 	 	 	 	 	1581481254	10.88	20.15
12/02/2020 04:20:55	120220	12022020	042055	197.12	13.377183	-57.003333	197.27	-0.550	-0.350	1.640	197.12	-1.70	2.20	 	 	 	 	 	 	 	 	 	 	 	 	 	 	 	 	 	 	1581481255	11.17	20.69
12/02/2020 04:20:56	120220	12022020	042056	197.12	13.377132	-57.003355	197.27	-0.320	-0.890	2.260	197.12	-2.20	2.80	 	 	 	 	 	 	 	 	 	 	 	 	 	 	 	 	 	 	1581481256	11.74	21.74
12/02/2020 04:20:57	120220	12022020	042057	196.96	13.377082	-57.003375	197.11	0.010	-0.870	2.590	196.96	-2.20	3.10	 	 	 	 	 	 	 	 	 	 	 	 	 	 	 	 	 	 	1581481257	11.93	22.09
12/02/2020 04:20:58	120220	12022020	042058	196.61	13.377035	-57.003392	196.73	0.070	-0.380	2.650	196.61	-1.70	3.10	 	 	 	 	 	 	 	 	 	 	 	 	 	 	 	 	 	 	1581481258	11.44	21.19
12/02/2020 04:20:59	120220	12022020	042059	196.09	13.376987	-57.003407	196.21	-0.090	0.160	2.420	196.09	-1.20	2.90	 	 	 	 	 	 	 	 	 	 	 	 	 	 	 	 	 	 	1581481259	10.89	20.17
12/02/2020 04:21:00	120220	12022020	042100	195.84	13.376938	-57.003420	196.00	-0.260	0.520	1.990	195.84	-0.80	2.50	 	 	 	 	 	 	 	 	 	 	 	 	 	 	 	 	 	 	1581481260	10.79	19.98
12/02/2020 04:21:01	120220	12022020	042101	195.97	13.376888	-57.003435	196.11	-0.250	0.510	1.550	195.97	-0.80	2.00	1016.80	25.80	25.90	21.10	21.10	-1.0	75.0	75.0	399.0	25.6	253.00	9.00	62.00	12.00	15	7357.0	27.2	27.2	1581481261	10.88	20.15
12/02/2020 04:21:02	120220	12022020	042102	195.99	13.376838	-57.003453	196.12	0.040	-0.020	1.450	195.99	-1.40	2.00	 	 	 	 	 	 	 	 	 	 	 	 	 	 	 	 	 	 	1581481262	11.00	20.37
12/02/2020 04:21:03	120220	12022020	042103	195.87	13.376787	-57.003470	195.99	0.460	-0.700	1.570	195.87	-2.10	2.10	 	 	 	 	 	 	 	 	 	 	 	 	 	 	 	 	 	 	1581481263	11.42	21.15
12/02/2020 04:21:04	120220	12022020	042104	195.91	13.376737	-57.003487	196.07	0.600	-0.910	1.710	195.91	-2.20	2.20	 	 	 	 	 	 	 	 	 	 	 	 	 	 	 	 	 	 	1581481264	11.67	21.61
12/02/2020 04:21:05	120220	12022020	042105	195.99	13.376690	-57.003505	196.12	0.380	-0.850	1.940	195.99	-2.20	2.40	 	 	 	 	 	 	 	 	 	 	 	 	 	 	 	 	 	 	1581481265	11.21	20.76
12/02/2020 04:21:06	120220	12022020	042106	195.85	13.376640	-57.003523	195.89	0.180	-1.070	2.190	195.78	-2.40	2.70	 	 	 	 	 	 	 	 	 	 	 	 	 	 	 	 	 	 	1581481266	10.86	20.11
12/02/2020 04:21:07	120220	12022020	042107	195.35	13.376588	-57.003542	195.46	0.210	-1.300	2.410	195.35	-2.60	2.90	 	 	 	 	 	 	 	 	 	 	 	 	 	 	 	 	 	 	1581481267	11.31	20.95
12/02/2020 04:21:08	120220	12022020	042108	195.06	13.376538	-57.003558	195.11	0.150	-0.880	2.650	195.00	-2.20	3.20	 	 	 	 	 	 	 	 	 	 	 	 	 	 	 	 	 	 	1581481268	11.82	21.89
12/02/2020 04:21:09	120220	12022020	042109	194.77	13.376490	-57.003575	194.87	-0.210	-0.020	2.830	194.77	-1.30	3.30	 	 	 	 	 	 	 	 	 	 	 	 	 	 	 	 	 	 	1581481269	11.41	21.13
12/02/2020 04:21:10	120220	12022020	042110	194.85	13.376442	-57.003593	194.98	-0.770	0.750	2.780	194.85	-0.60	3.30	 	 	 	 	 	 	 	 	 	 	 	 	 	 	 	 	 	 	1581481270	10.97	20.32
12/02/2020 04:21:11	120220	12022020	042111	195.29	13.376393	-57.003613	195.43	-1.140	1.010	2.650	195.29	-0.30	3.10	 	 	 	 	 	 	 	 	 	 	 	 	 	 	 	 	 	 	1581481271	10.95	20.28
12/02/2020 04:21:12	120220	12022020	042112	196.00	13.376343	-57.003632	196.14	-0.930	0.890	2.010	196.00	-0.50	2.50	 	 	 	 	 	 	 	 	 	 	 	 	 	 	 	 	 	 	1581481272	11.25	20.84
12/02/2020 04:21:13	120220	12022020	042113	196.69	13.376293	-57.003645	196.79	-0.110	0.500	1.070	196.69	-0.90	1.50	 	 	 	 	 	 	 	 	 	 	 	 	 	 	 	 	 	 	1581481273	11.35	21.02
12/02/2020 04:21:14	120220	12022020	042114	197.01	13.376240	-57.003657	197.09	0.830	-0.230	0.510	197.01	-1.60	1.00	 	 	 	 	 	 	 	 	 	 	 	 	 	 	 	 	 	 	1581481274	11.28	20.89
12/02/2020 04:21:15	120220	12022020	042115	197.05	13.376188	-57.003667	197.07	1.230	-1.000	0.530	197.02	-2.40	1.00	 	 	 	 	 	 	 	 	 	 	 	 	 	 	 	 	 	 	1581481275	11.51	21.32
12/02/2020 04:21:16	120220	12022020	042116	196.71	13.376138	-57.003683	196.75	0.950	-1.570	1.140	196.71	-2.90	1.70	 	 	 	 	 	 	 	 	 	 	 	 	 	 	 	 	 	 	1581481276	11.50	21.30
12/02/2020 04:21:17	120220	12022020	042117	196.11	13.376090	-57.003703	196.16	0.380	-1.720	2.070	196.11	-3.00	2.60	 	 	 	 	 	 	 	 	 	 	 	 	 	 	 	 	 	 	1581481277	11.32	20.96
12/02/2020 04:21:18	120220	12022020	042118	195.54	13.376042	-57.003723	195.61	-0.070	-1.280	2.720	195.54	-2.60	3.20	 	 	 	 	 	 	 	 	 	 	 	 	 	 	 	 	 	 	1581481278	11.28	20.89
12/02/2020 04:21:19	120220	12022020	042119	195.24	13.375995	-57.003743	195.28	-0.330	-0.570	2.770	195.20	-1.90	3.20	 	 	 	 	 	 	 	 	 	 	 	 	 	 	 	 	 	 	1581481279	11.06	20.48
12/02/2020 04:21:20	120220	12022020	042120	195.09	13.375945	-57.003760	195.18	-0.490	-0.040	2.520	195.09	-1.40	3.00	 	 	 	 	 	 	 	 	 	 	 	 	 	 	 	 	 	 	1581481280	10.97	20.32
12/02/2020 04:21:21	120220	12022020	042121	195.11	13.375893	-57.003778	195.21	-0.560	0.100	2.180	195.11	-1.20	2.70	 	 	 	 	 	 	 	 	 	 	 	 	 	 	 	 	 	 	1581481281	11.21	20.76
12/02/2020 04:21:22	120220	12022020	042122	195.17	13.375842	-57.003797	195.26	-0.570	0.080	2.020	195.17	-1.30	2.50	 	 	 	 	 	 	 	 	 	 	 	 	 	 	 	 	 	 	1581481282	11.65	21.58
12/02/2020 04:21:23	120220	12022020	042123	195.27	13.375792	-57.003815	195.38	-0.540	0.170	2.120	195.27	-1.20	2.60	 	 	 	 	 	 	 	 	 	 	 	 	 	 	 	 	 	 	1581481283	11.79	21.84
12/02/2020 04:21:24	120220	12022020	042124	195.44	13.375742	-57.003833	195.55	-0.430	0.370	2.210	195.44	-1.00	2.70	 	 	 	 	 	 	 	 	 	 	 	 	 	 	 	 	 	 	1581481284	11.59	21.46
12/02/2020 04:21:25	120220	12022020	042125	195.61	13.375693	-57.003850	195.74	-0.170	0.430	2.100	195.61	-0.90	2.60	 	 	 	 	 	 	 	 	 	 	 	 	 	 	 	 	 	 	1581481285	11.23	20.80
12/02/2020 04:21:26	120220	12022020	042126	195.79	13.375643	-57.003863	195.92	0.200	0.250	1.770	195.79	-1.10	2.30	 	 	 	 	 	 	 	 	 	 	 	 	 	 	 	 	 	 	1581481286	11.13	20.61
12/02/2020 04:21:27	120220	12022020	042127	196.17	13.375593	-57.003875	196.30	0.470	0.100	1.280	196.17	-1.20	1.80	 	 	 	 	 	 	 	 	 	 	 	 	 	 	 	 	 	 	1581481287	11.23	20.80
12/02/2020 04:21:28	120220	12022020	042128	196.71	13.375545	-57.003888	196.84	0.560	0.050	0.800	196.71	-1.30	1.30	 	 	 	 	 	 	 	 	 	 	 	 	 	 	 	 	 	 	1581481288	11.05	20.46
12/02/2020 04:21:29	120220	12022020	042129	197.12	13.375497	-57.003902	197.23	0.660	-0.210	0.600	197.12	-1.60	1.10	 	 	 	 	 	 	 	 	 	 	 	 	 	 	 	 	 	 	1581481289	10.69	19.80
12/02/2020 04:21:30	120220	12022020	042130	197.32	13.375447	-57.003915	197.42	0.880	-0.800	0.600	197.32	-2.20	1.10	 	 	 	 	 	 	 	 	 	 	 	 	 	 	 	 	 	 	1581481290	10.70	19.82
12/02/2020 04:21:31	120220	12022020	042131	197.21	13.375395	-57.003930	197.28	1.010	-1.500	0.880	197.21	-2.90	1.40	 	 	 	 	 	 	 	 	 	 	 	 	 	 	 	 	 	 	1581481291	11.11	20.58
12/02/2020 04:21:32	120220	12022020	042132	196.65	13.375343	-57.003947	196.70	0.720	-2.010	1.580	196.65	-3.30	2.10	 	 	 	 	 	 	 	 	 	 	 	 	 	 	 	 	 	 	1581481292	11.43	21.17
12/02/2020 04:21:33	120220	12022020	042133	195.78	13.375293	-57.003967	195.86	-0.040	-2.010	2.580	195.78	-3.30	3.10	 	 	 	 	 	 	 	 	 	 	 	 	 	 	 	 	 	 	1581481293	11.63	21.54
12/02/2020 04:21:34	120220	12022020	042134	194.98	13.375245	-57.003990	195.07	-0.970	-1.360	3.390	194.98	-2.60	3.90	 	 	 	 	 	 	 	 	 	 	 	 	 	 	 	 	 	 	1581481294	11.69	21.65
12/02/2020 04:21:35	120220	12022020	042135	194.45	13.375197	-57.004015	194.54	-1.620	-0.310	3.770	194.45	-1.60	4.30	 	 	 	 	 	 	 	 	 	 	 	 	 	 	 	 	 	 	1581481295	11.59	21.46
12/02/2020 04:21:36	120220	12022020	042136	194.35	13.375148	-57.004040	194.47	-1.700	0.600	3.560	194.35	-0.70	4.00	 	 	 	 	 	 	 	 	 	 	 	 	 	 	 	 	 	 	1581481296	11.49	21.28
12/02/2020 04:21:37	120220	12022020	042137	194.70	13.375098	-57.004060	194.80	-1.190	1.180	2.720	194.70	-0.20	3.20	 	 	 	 	 	 	 	 	 	 	 	 	 	 	 	 	 	 	1581481297	11.60	21.48
12/02/2020 04:21:38	120220	12022020	042138	195.28	13.375047	-57.004075	195.39	-0.360	1.350	1.670	195.28	0.00	2.10	 	 	 	 	 	 	 	 	 	 	 	 	 	 	 	 	 	 	1581481298	11.59	21.46
12/02/2020 04:21:39	120220	12022020	042139	195.96	13.374993	-57.004085	196.06	0.410	1.060	0.770	195.96	-0.30	1.30	 	 	 	 	 	 	 	 	 	 	 	 	 	 	 	 	 	 	1581481299	11.58	21.45
12/02/2020 04:21:40	120220	12022020	042140	196.71	13.374942	-57.004097	196.82	0.840	0.520	0.310	196.71	-0.80	0.80	 	 	 	 	 	 	 	 	 	 	 	 	 	 	 	 	 	 	1581481300	11.65	21.58
12/02/2020 04:21:41	120220	12022020	042141	197.44	13.374892	-57.004108	197.54	0.950	0.040	0.210	197.44	-1.30	0.70	 	 	 	 	 	 	 	 	 	 	 	 	 	 	 	 	 	 	1581481301	11.49	21.28
12/02/2020 04:21:42	120220	12022020	042142	197.99	13.374843	-57.004120	198.05	0.910	-0.390	0.340	197.99	-1.80	0.90	 	 	 	 	 	 	 	 	 	 	 	 	 	 	 	 	 	 	1581481302	11.03	20.43
12/02/2020 04:21:43	120220	12022020	042143	198.07	13.374793	-57.004135	198.11	0.880	-1.130	0.910	198.07	-2.50	1.40	 	 	 	 	 	 	 	 	 	 	 	 	 	 	 	 	 	 	1581481303	10.68	19.78
12/02/2020 04:21:44	120220	12022020	042144	197.69	13.374743	-57.004153	197.73	0.730	-2.000	1.860	197.69	-3.40	2.40	 	 	 	 	 	 	 	 	 	 	 	 	 	 	 	 	 	 	1581481304	10.99	20.35
12/02/2020 04:21:45	120220	12022020	042145	196.96	13.374695	-57.004175	196.99	0.200	-2.340	2.930	196.96	-3.70	3.50	 	 	 	 	 	 	 	 	 	 	 	 	 	 	 	 	 	 	1581481305	11.50	21.30
12/02/2020 04:21:46	120220	12022020	042146	195.81	13.374647	-57.004200	195.87	-0.540	-1.990	3.930	195.81	-3.30	4.50	 	 	 	 	 	 	 	 	 	 	 	 	 	 	 	 	 	 	1581481306	11.53	21.35
12/02/2020 04:21:47	120220	12022020	042147	194.51	13.374600	-57.004227	194.59	-1.010	-1.210	4.450	194.51	-2.50	4.90	 	 	 	 	 	 	 	 	 	 	 	 	 	 	 	 	 	 	1581481307	11.46	21.22
12/02/2020 04:21:48	120220	12022020	042148	193.56	13.374552	-57.004250	193.65	-0.910	-0.240	4.260	193.56	-1.50	4.70	 	 	 	 	 	 	 	 	 	 	 	 	 	 	 	 	 	 	1581481308	11.61	21.50
12/02/2020 04:21:49	120220	12022020	042149	193.28	13.374500	-57.004267	193.42	-0.410	0.740	3.360	193.28	-0.50	3.80	 	 	 	 	 	 	 	 	 	 	 	 	 	 	 	 	 	 	1581481309	11.58	21.45
12/02/2020 04:21:50	120220	12022020	042150	193.89	13.374450	-57.004278	194.06	-0.030	1.480	2.070	193.89	0.20	2.50	 	 	 	 	 	 	 	 	 	 	 	 	 	 	 	 	 	 	1581481310	11.39	21.09
12/02/2020 04:21:51	120220	12022020	042151	195.11	13.374398	-57.004290	195.30	-0.050	1.580	1.180	195.11	0.20	1.70	 	 	 	 	 	 	 	 	 	 	 	 	 	 	 	 	 	 	1581481311	11.21	20.76
12/02/2020 04:21:52	120220	12022020	042152	196.35	13.374348	-57.004307	196.54	-0.150	0.920	1.010	196.35	-0.40	1.50	 	 	 	 	 	 	 	 	 	 	 	 	 	 	 	 	 	 	1581481312	11.19	20.72
12/02/2020 04:21:53	120220	12022020	042153	197.30	13.374297	-57.004323	197.49	0.120	-0.120	0.960	197.30	-1.50	1.50	 	 	 	 	 	 	 	 	 	 	 	 	 	 	 	 	 	 	1581481313	11.43	21.17
12/02/2020 04:21:54	120220	12022020	042154	197.90	13.374247	-57.004338	198.05	0.680	-1.020	1.050	197.90	-2.40	1.60	 	 	 	 	 	 	 	 	 	 	 	 	 	 	 	 	 	 	1581481314	11.56	21.41
12/02/2020 04:21:55	120220	12022020	042155	198.05	13.374197	-57.004353	198.16	1.050	-1.620	1.440	198.05	-3.00	2.00	 	 	 	 	 	 	 	 	 	 	 	 	 	 	 	 	 	 	1581481315	11.31	20.95
12/02/2020 04:21:56	120220	12022020	042156	197.76	13.374148	-57.004368	197.84	0.900	-1.810	1.940	197.76	-3.10	2.50	 	 	 	 	 	 	 	 	 	 	 	 	 	 	 	 	 	 	1581481316	11.13	20.61
12/02/2020 04:21:57	120220	12022020	042157	197.21	13.374100	-57.004385	197.28	0.330	-1.520	2.470	197.21	-2.80	3.00	 	 	 	 	 	 	 	 	 	 	 	 	 	 	 	 	 	 	1581481317	11.03	20.43
12/02/2020 04:21:58	120220	12022020	042158	196.68	13.374052	-57.004403	196.66	-0.310	-0.930	2.620	196.56	-2.20	3.10	 	 	 	 	 	 	 	 	 	 	 	 	 	 	 	 	 	 	1581481318	10.92	20.22
12/02/2020 04:21:59	120220	12022020	042159	196.05	13.374003	-57.004422	196.15	-0.780	-0.280	2.460	196.05	-1.60	3.00	 	 	 	 	 	 	 	 	 	 	 	 	 	 	 	 	 	 	1581481319	10.99	20.35
12/02/2020 04:22:00	120220	12022020	042200	195.61	13.373953	-57.004442	195.71	-0.990	0.190	2.260	195.61	-1.10	2.80	 	 	 	 	 	 	 	 	 	 	 	 	 	 	 	 	 	 	1581481320	11.12	20.59
12/02/2020 04:22:01	120220	12022020	042201	195.31	13.373903	-57.004462	195.39	-0.960	0.470	1.940	195.31	-0.90	2.40	1016.80	25.90	25.90	21.20	21.30	-1.0	75.0	75.0	397.0	25.5	254.00	8.50	61.00	11.50	15	7883.0	27.2	27.2	1581481321	11.41	21.13
12/02/2020 04:22:02	120220	12022020	042202	195.14	13.373853	-57.004482	195.23	-0.710	0.540	1.720	195.14	-0.80	2.20	 	 	 	 	 	 	 	 	 	 	 	 	 	 	 	 	 	 	1581481322	11.55	21.39
12/02/2020 04:22:03	120220	12022020	042203	195.12	13.373803	-57.004500	195.23	-0.240	0.460	1.540	195.12	-0.90	2.00	 	 	 	 	 	 	 	 	 	 	 	 	 	 	 	 	 	 	1581481323	11.59	21.46
12/02/2020 04:22:04	120220	12022020	042204	195.32	13.373753	-57.004517	195.45	0.330	0.360	1.170	195.32	-1.00	1.70	 	 	 	 	 	 	 	 	 	 	 	 	 	 	 	 	 	 	1581481324	11.52	21.34
12/02/2020 04:22:05	120220	12022020	042205	195.89	13.373703	-57.004528	196.03	0.730	0.300	0.660	195.89	-1.00	1.20	 	 	 	 	 	 	 	 	 	 	 	 	 	 	 	 	 	 	1581481325	11.27	20.87
12/02/2020 04:22:06	120220	12022020	042206	196.59	13.373655	-57.004542	196.72	0.910	0.020	0.440	196.59	-1.30	1.00	 	 	 	 	 	 	 	 	 	 	 	 	 	 	 	 	 	 	1581481326	10.91	20.21
12/02/2020 04:22:07	120220	12022020	042207	197.05	13.373607	-57.004553	197.15	1.040	-0.550	0.570	197.05	-1.90	1.10	 	 	 	 	 	 	 	 	 	 	 	 	 	 	 	 	 	 	1581481327	10.77	19.95
12/02/2020 04:22:08	120220	12022020	042208	197.07	13.373555	-57.004568	197.18	1.010	-1.160	1.110	197.07	-2.50	1.70	 	 	 	 	 	 	 	 	 	 	 	 	 	 	 	 	 	 	1581481328	10.98	20.33
12/02/2020 04:22:09	120220	12022020	042209	197.02	13.373508	-57.004585	197.12	0.460	-1.350	2.040	197.00	-2.70	2.60	 	 	 	 	 	 	 	 	 	 	 	 	 	 	 	 	 	 	1581481329	11.22	20.78
12/02/2020 04:22:10	120220	12022020	042210	196.80	13.373462	-57.004608	196.90	-0.460	-1.240	2.970	196.80	-2.60	3.50	 	 	 	 	 	 	 	 	 	 	 	 	 	 	 	 	 	 	1581481330	10.96	20.30
12/02/2020 04:22:11	120220	12022020	042211	196.31	13.373415	-57.004633	196.41	-1.090	-1.180	3.530	196.31	-2.50	4.00	 	 	 	 	 	 	 	 	 	 	 	 	 	 	 	 	 	 	1581481331	10.90	20.19
12/02/2020 04:22:12	120220	12022020	042212	195.68	13.373367	-57.004657	195.76	-1.000	-1.090	3.550	195.68	-2.40	4.00	 	 	 	 	 	 	 	 	 	 	 	 	 	 	 	 	 	 	1581481332	11.37	21.06
12/02/2020 04:22:13	120220	12022020	042213	195.24	13.373315	-57.004675	195.34	-0.390	-0.600	3.000	195.24	-1.90	3.50	 	 	 	 	 	 	 	 	 	 	 	 	 	 	 	 	 	 	1581481333	11.72	21.71
12/02/2020 04:22:14	120220	12022020	042214	195.11	13.373265	-57.004688	195.19	0.120	0.150	2.120	195.11	-1.10	2.60	 	 	 	 	 	 	 	 	 	 	 	 	 	 	 	 	 	 	1581481334	11.51	21.32
12/02/2020 04:22:15	120220	12022020	042215	195.05	13.373215	-57.004698	195.13	0.210	0.640	1.400	195.05	-0.70	1.90	 	 	 	 	 	 	 	 	 	 	 	 	 	 	 	 	 	 	1581481335	11.11	20.58
12/02/2020 04:22:16	120220	12022020	042216	195.04	13.373163	-57.004712	195.12	-0.040	0.650	1.270	195.04	-0.70	1.80	 	 	 	 	 	 	 	 	 	 	 	 	 	 	 	 	 	 	1581481336	11.17	20.69
12/02/2020 04:22:17	120220	12022020	042217	195.05	13.373112	-57.004730	195.17	-0.240	0.320	1.520	195.05	-1.00	2.00	 	 	 	 	 	 	 	 	 	 	 	 	 	 	 	 	 	 	1581481337	11.41	21.13
12/02/2020 04:22:18	120220	12022020	042218	195.27	13.373062	-57.004748	195.41	-0.140	0.140	1.650	195.27	-1.20	2.20	 	 	 	 	 	 	 	 	 	 	 	 	 	 	 	 	 	 	1581481338	11.64	21.56
12/02/2020 04:22:19	120220	12022020	042219	195.83	13.373015	-57.004763	196.00	0.160	0.280	1.440	195.83	-1.00	1.90	 	 	 	 	 	 	 	 	 	 	 	 	 	 	 	 	 	 	1581481339	11.39	21.09
12/02/2020 04:22:20	120220	12022020	042220	196.32	13.372967	-57.004777	196.58	0.410	0.140	1.190	196.43	-1.20	1.70	 	 	 	 	 	 	 	 	 	 	 	 	 	 	 	 	 	 	1581481340	10.72	19.85
12/02/2020 04:22:21	120220	12022020	042221	196.76	13.372917	-57.004793	196.91	0.450	-0.540	1.370	196.76	-1.90	1.90	 	 	 	 	 	 	 	 	 	 	 	 	 	 	 	 	 	 	1581481341	10.66	19.74
12/02/2020 04:22:22	120220	12022020	042222	196.74	13.372867	-57.004813	196.88	0.340	-1.390	2.060	196.74	-2.70	2.60	 	 	 	 	 	 	 	 	 	 	 	 	 	 	 	 	 	 	1581481342	11.16	20.67
12/02/2020 04:22:23	120220	12022020	042223	196.54	13.372818	-57.004832	196.65	0.210	-1.690	2.530	196.54	-3.00	3.00	 	 	 	 	 	 	 	 	 	 	 	 	 	 	 	 	 	 	1581481343	11.54	21.37
12/02/2020 04:22:24	120220	12022020	042224	196.30	13.372772	-57.004850	196.42	0.060	-1.190	2.600	196.30	-2.50	3.10	 	 	 	 	 	 	 	 	 	 	 	 	 	 	 	 	 	 	1581481344	11.30	20.93
12/02/2020 04:22:25	120220	12022020	042225	196.17	13.372725	-57.004865	196.25	-0.130	-0.430	2.370	196.15	-1.70	2.90	 	 	 	 	 	 	 	 	 	 	 	 	 	 	 	 	 	 	1581481345	10.66	19.74
12/02/2020 04:22:26	120220	12022020	042226	196.11	13.372677	-57.004882	196.21	-0.280	0.020	1.980	196.11	-1.30	2.50	 	 	 	 	 	 	 	 	 	 	 	 	 	 	 	 	 	 	1581481346	10.49	19.43
12/02/2020 04:22:27	120220	12022020	042227	196.01	13.372627	-57.004898	196.10	-0.260	0.060	1.750	196.01	-1.30	2.20	 	 	 	 	 	 	 	 	 	 	 	 	 	 	 	 	 	 	1581481347	10.86	20.11
12/02/2020 04:22:28	120220	12022020	042228	195.85	13.372575	-57.004915	195.94	-0.030	-0.170	1.760	195.85	-1.50	2.30	 	 	 	 	 	 	 	 	 	 	 	 	 	 	 	 	 	 	1581481348	11.38	21.08
12/02/2020 04:22:29	120220	12022020	042229	195.62	13.372522	-57.004932	195.71	0.260	-0.450	1.910	195.62	-1.80	2.40	 	 	 	 	 	 	 	 	 	 	 	 	 	 	 	 	 	 	1581481349	11.74	21.74
12/02/2020 04:22:30	120220	12022020	042230	195.45	13.372470	-57.004947	195.55	0.360	-0.460	2.130	195.45	-1.80	2.60	 	 	 	 	 	 	 	 	 	 	 	 	 	 	 	 	 	 	1581481350	11.92	22.08
12/02/2020 04:22:31	120220	12022020	042231	195.47	13.372420	-57.004963	195.65	0.140	-0.030	2.290	195.50	-1.30	2.80	 	 	 	 	 	 	 	 	 	 	 	 	 	 	 	 	 	 	1581481351	11.71	21.69
12/02/2020 04:22:32	120220	12022020	042232	195.80	13.372373	-57.004980	195.94	-0.290	0.580	2.140	195.80	-0.70	2.60	 	 	 	 	 	 	 	 	 	 	 	 	 	 	 	 	 	 	1581481352	11.15	20.65
12/02/2020 04:22:33	120220	12022020	042233	196.13	13.372325	-57.004997	196.27	-0.630	0.680	1.920	196.13	-0.70	2.40	 	 	 	 	 	 	 	 	 	 	 	 	 	 	 	 	 	 	1581481353	10.63	19.69
12/02/2020 04:22:34	120220	12022020	042234	196.37	13.372277	-57.005015	196.57	-0.670	0.100	1.840	196.42	-1.30	2.30	 	 	 	 	 	 	 	 	 	 	 	 	 	 	 	 	 	 	1581481354	10.85	20.09
12/02/2020 04:22:35	120220	12022020	042235	196.58	13.372225	-57.005035	196.73	-0.390	-0.670	1.740	196.60	-2.00	2.20	 	 	 	 	 	 	 	 	 	 	 	 	 	 	 	 	 	 	1581481355	11.43	21.17
12/02/2020 04:22:36	120220	12022020	042236	196.49	13.372175	-57.005053	196.53	0.170	-1.220	1.530	196.43	-2.50	2.00	 	 	 	 	 	 	 	 	 	 	 	 	 	 	 	 	 	 	1581481356	11.60	21.48
12/02/2020 04:22:37	120220	12022020	042237	196.07	13.372125	-57.005067	196.18	0.750	-1.220	1.280	196.07	-2.50	1.80	 	 	 	 	 	 	 	 	 	 	 	 	 	 	 	 	 	 	1581481357	11.45	21.21
12/02/2020 04:22:38	120220	12022020	042238	195.95	13.372077	-57.005077	196.07	0.890	-0.620	1.060	195.95	-1.90	1.60	 	 	 	 	 	 	 	 	 	 	 	 	 	 	 	 	 	 	1581481358	11.15	20.65
12/02/2020 04:22:39	120220	12022020	042239	196.11	13.372030	-57.005090	196.25	0.450	-0.060	1.060	196.11	-1.40	1.60	 	 	 	 	 	 	 	 	 	 	 	 	 	 	 	 	 	 	1581481359	10.60	19.63
12/02/2020 04:22:40	120220	12022020	042240	196.18	13.371982	-57.005108	196.29	-0.150	-0.070	1.610	196.18	-1.40	2.10	 	 	 	 	 	 	 	 	 	 	 	 	 	 	 	 	 	 	1581481360	10.50	19.45
12/02/2020 04:22:41	120220	12022020	042241	196.02	13.371932	-57.005132	196.08	-0.380	-0.490	2.420	195.96	-1.80	2.90	 	 	 	 	 	 	 	 	 	 	 	 	 	 	 	 	 	 	1581481361	11.15	20.65
12/02/2020 04:22:42	120220	12022020	042242	195.73	13.371880	-57.005153	195.88	-0.180	-0.620	2.830	195.73	-1.90	3.30	 	 	 	 	 	 	 	 	 	 	 	 	 	 	 	 	 	 	1581481362	11.92	22.08
12/02/2020 04:22:43	120220	12022020	042243	195.73	13.371830	-57.005170	195.87	0.040	-0.350	2.680	195.73	-1.70	3.20	 	 	 	 	 	 	 	 	 	 	 	 	 	 	 	 	 	 	1581481363	11.83	21.91
12/02/2020 04:22:44	120220	12022020	042244	195.79	13.371780	-57.005185	195.92	-0.050	-0.110	2.430	195.79	-1.40	2.90	 	 	 	 	 	 	 	 	 	 	 	 	 	 	 	 	 	 	1581481364	11.30	20.93
12/02/2020 04:22:45	120220	12022020	042245	195.57	13.371730	-57.005202	195.68	-0.370	-0.180	2.430	195.57	-1.50	2.90	 	 	 	 	 	 	 	 	 	 	 	 	 	 	 	 	 	 	1581481365	11.18	20.71
12/02/2020 04:22:46	120220	12022020	042246	195.01	13.371678	-57.005222	195.12	-0.620	-0.350	2.680	195.01	-1.70	3.20	 	 	 	 	 	 	 	 	 	 	 	 	 	 	 	 	 	 	1581481366	11.46	21.22
12/02/2020 04:22:47	120220	12022020	042247	194.65	13.371628	-57.005240	194.77	-0.590	-0.170	2.570	194.65	-1.50	3.00	 	 	 	 	 	 	 	 	 	 	 	 	 	 	 	 	 	 	1581481367	11.69	21.65
12/02/2020 04:22:48	120220	12022020	042248	194.76	13.371582	-57.005253	194.97	-0.310	0.350	1.940	194.83	-1.00	2.40	 	 	 	 	 	 	 	 	 	 	 	 	 	 	 	 	 	 	1581481368	11.36	21.04
12/02/2020 04:22:49	120220	12022020	042249	195.12	13.371533	-57.005267	195.25	0.110	0.470	1.490	195.12	-0.90	2.00	 	 	 	 	 	 	 	 	 	 	 	 	 	 	 	 	 	 	1581481369	10.65	19.72
12/02/2020 04:22:50	120220	12022020	042250	195.23	13.371483	-57.005280	195.35	0.510	0.020	1.400	195.23	-1.30	1.90	 	 	 	 	 	 	 	 	 	 	 	 	 	 	 	 	 	 	1581481370	10.72	19.85
12/02/2020 04:22:51	120220	12022020	042251	195.22	13.371432	-57.005295	195.33	0.760	-0.580	1.510	195.22	-1.90	2.00	 	 	 	 	 	 	 	 	 	 	 	 	 	 	 	 	 	 	1581481371	11.24	20.82
12/02/2020 04:22:52	120220	12022020	042252	195.09	13.371380	-57.005310	195.20	0.830	-1.030	1.740	195.09	-2.40	2.30	 	 	 	 	 	 	 	 	 	 	 	 	 	 	 	 	 	 	1581481372	11.43	21.17
12/02/2020 04:22:53	120220	12022020	042253	194.96	13.371330	-57.005325	195.08	0.610	-1.160	2.060	194.96	-2.50	2.60	 	 	 	 	 	 	 	 	 	 	 	 	 	 	 	 	 	 	1581481373	11.40	21.11
12/02/2020 04:22:54	120220	12022020	042254	195.10	13.371282	-57.005342	195.23	0.040	-0.740	2.330	195.10	-2.00	2.80	 	 	 	 	 	 	 	 	 	 	 	 	 	 	 	 	 	 	1581481374	11.30	20.93
12/02/2020 04:22:55	120220	12022020	042255	195.40	13.371237	-57.005360	195.52	-0.650	-0.040	2.420	195.40	-1.30	2.90	 	 	 	 	 	 	 	 	 	 	 	 	 	 	 	 	 	 	1581481375	10.87	20.13
12/02/2020 04:22:56	120220	12022020	042256	195.65	13.371190	-57.005378	195.76	-0.980	0.180	2.280	195.65	-1.20	2.80	 	 	 	 	 	 	 	 	 	 	 	 	 	 	 	 	 	 	1581481376	10.51	19.46
12/02/2020 04:22:57	120220	12022020	042257	195.57	13.371137	-57.005397	195.67	-0.650	-0.460	2.100	195.57	-1.80	2.60	 	 	 	 	 	 	 	 	 	 	 	 	 	 	 	 	 	 	1581481377	10.90	20.19
12/02/2020 04:22:58	120220	12022020	042258	195.33	13.371082	-57.005413	195.45	0.080	-1.200	1.870	195.33	-2.50	2.40	 	 	 	 	 	 	 	 	 	 	 	 	 	 	 	 	 	 	1581481378	11.98	22.19
12/02/2020 04:22:59	120220	12022020	042259	195.27	13.371028	-57.005427	195.39	0.510	-0.970	1.540	195.27	-2.30	2.00	 	 	 	 	 	 	 	 	 	 	 	 	 	 	 	 	 	 	1581481379	12.49	23.13
12/02/2020 04:23:00	120220	12022020	042300	195.39	13.370980	-57.005438	195.51	0.220	0.000	1.190	195.39	-1.30	1.70	 	 	 	 	 	 	 	 	 	 	 	 	 	 	 	 	 	 	1581481380	11.66	21.59
12/02/2020 04:23:01	120220	12022020	042301	195.60	13.370933	-57.005452	195.72	-0.460	0.680	1.090	195.60	-0.60	1.60	1016.80	26.00	26.00	21.50	21.50	-1.0	76.0	76.0	397.0	25.5	261.00	8.30	65.00	10.90	15	6957.0	27.2	27.2	1581481381	10.61	19.65
12/02/2020 04:23:02	120220	12022020	042302	195.81	13.370883	-57.005470	195.94	-0.830	0.530	1.360	195.81	-0.80	1.90	 	 	 	 	 	 	 	 	 	 	 	 	 	 	 	 	 	 	1581481382	10.60	19.63
12/02/2020 04:23:03	120220	12022020	042303	195.65	13.370832	-57.005490	195.77	-0.470	-0.240	1.860	195.65	-1.60	2.40	 	 	 	 	 	 	 	 	 	 	 	 	 	 	 	 	 	 	1581481383	11.32	20.96
12/02/2020 04:23:04	120220	12022020	042304	195.13	13.370778	-57.005510	195.26	0.150	-0.840	2.410	195.13	-2.20	2.90	 	 	 	 	 	 	 	 	 	 	 	 	 	 	 	 	 	 	1581481384	12.04	22.30
12/02/2020 04:23:05	120220	12022020	042305	194.84	13.370728	-57.005527	194.98	0.320	-0.520	2.650	194.84	-1.80	3.10	 	 	 	 	 	 	 	 	 	 	 	 	 	 	 	 	 	 	1581481385	12.12	22.45
12/02/2020 04:23:06	120220	12022020	042306	194.85	13.370683	-57.005543	194.98	0.040	0.240	2.470	194.85	-1.10	3.00	 	 	 	 	 	 	 	 	 	 	 	 	 	 	 	 	 	 	1581481386	11.11	20.58
12/02/2020 04:23:07	120220	12022020	042307	194.91	13.370637	-57.005558	195.03	-0.070	0.510	2.130	194.91	-0.80	2.60	 	 	 	 	 	 	 	 	 	 	 	 	 	 	 	 	 	 	1581481387	10.30	19.08
12/02/2020 04:23:08	120220	12022020	042308	195.12	13.370587	-57.005572	195.26	0.360	0.160	1.640	195.12	-1.20	2.10	 	 	 	 	 	 	 	 	 	 	 	 	 	 	 	 	 	 	1581481388	10.62	19.67
12/02/2020 04:23:09	120220	12022020	042309	195.45	13.370533	-57.005585	195.59	0.970	-0.350	1.150	195.45	-1.70	1.60	 	 	 	 	 	 	 	 	 	 	 	 	 	 	 	 	 	 	1581481389	11.29	20.91
12/02/2020 04:23:10	120220	12022020	042310	195.85	13.370483	-57.005597	195.99	1.060	-0.700	1.070	195.85	-2.00	1.60	 	 	 	 	 	 	 	 	 	 	 	 	 	 	 	 	 	 	1581481390	11.51	21.32
12/02/2020 04:23:11	120220	12022020	042311	196.20	13.370435	-57.005615	196.34	0.450	-0.890	1.750	196.20	-2.20	2.30	 	 	 	 	 	 	 	 	 	 	 	 	 	 	 	 	 	 	1581481391	11.26	20.85
12/02/2020 04:23:12	120220	12022020	042312	196.21	13.370388	-57.005638	196.26	-0.340	-1.090	2.710	196.16	-2.40	3.20	 	 	 	 	 	 	 	 	 	 	 	 	 	 	 	 	 	 	1581481392	11.00	20.37
12/02/2020 04:23:13	120220	12022020	042313	195.71	13.370338	-57.005662	195.83	-0.680	-1.270	3.360	195.71	-2.60	3.90	 	 	 	 	 	 	 	 	 	 	 	 	 	 	 	 	 	 	1581481393	11.18	20.71
12/02/2020 04:23:14	120220	12022020	042314	195.20	13.370288	-57.005680	195.31	-0.500	-1.210	3.370	195.20	-2.50	3.90	 	 	 	 	 	 	 	 	 	 	 	 	 	 	 	 	 	 	1581481394	11.56	21.41
12/02/2020 04:23:15	120220	12022020	042315	194.86	13.370238	-57.005697	194.91	-0.210	-0.730	2.900	194.80	-2.00	3.40	 	 	 	 	 	 	 	 	 	 	 	 	 	 	 	 	 	 	1581481395	11.60	21.48
12/02/2020 04:23:16	120220	12022020	042316	194.79	13.370188	-57.005708	194.90	-0.180	0.040	2.040	194.79	-1.30	2.50	 	 	 	 	 	 	 	 	 	 	 	 	 	 	 	 	 	 	1581481396	11.38	21.08
12/02/2020 04:23:17	120220	12022020	042317	194.97	13.370138	-57.005720	195.05	-0.370	0.560	1.420	194.97	-0.80	1.90	 	 	 	 	 	 	 	 	 	 	 	 	 	 	 	 	 	 	1581481397	11.04	20.45
12/02/2020 04:23:18	120220	12022020	042318	194.81	13.370085	-57.005735	194.86	-0.380	0.290	1.500	194.81	-1.10	2.00	 	 	 	 	 	 	 	 	 	 	 	 	 	 	 	 	 	 	1581481398	11.01	20.39
12/02/2020 04:23:19	120220	12022020	042319	194.52	13.370032	-57.005753	194.60	-0.130	-0.210	1.820	194.52	-1.50	2.30	 	 	 	 	 	 	 	 	 	 	 	 	 	 	 	 	 	 	1581481399	11.75	21.76
12/02/2020 04:23:20	120220	12022020	042320	194.40	13.369980	-57.005768	194.48	0.150	-0.280	2.050	194.40	-1.60	2.60	 	 	 	 	 	 	 	 	 	 	 	 	 	 	 	 	 	 	1581481400	12.13	22.46
12/02/2020 04:23:21	120220	12022020	042321	194.50	13.369932	-57.005785	194.60	0.230	-0.010	2.140	194.50	-1.30	2.60	 	 	 	 	 	 	 	 	 	 	 	 	 	 	 	 	 	 	1581481401	11.62	21.52
12/02/2020 04:23:22	120220	12022020	042322	194.79	13.369883	-57.005800	194.89	0.130	0.260	2.110	194.79	-1.10	2.60	 	 	 	 	 	 	 	 	 	 	 	 	 	 	 	 	 	 	1581481402	11.05	20.46
12/02/2020 04:23:23	120220	12022020	042323	195.06	13.369835	-57.005817	195.17	0.020	0.230	2.150	195.06	-1.10	2.70	 	 	 	 	 	 	 	 	 	 	 	 	 	 	 	 	 	 	1581481403	10.82	20.04
12/02/2020 04:23:24	120220	12022020	042324	195.21	13.369785	-57.005833	195.34	-0.050	-0.030	2.330	195.23	-1.40	2.80	 	 	 	 	 	 	 	 	 	 	 	 	 	 	 	 	 	 	1581481404	10.94	20.26
12/02/2020 04:23:25	120220	12022020	042325	195.44	13.369738	-57.005852	195.58	-0.070	-0.220	2.340	195.44	-1.50	2.80	 	 	 	 	 	 	 	 	 	 	 	 	 	 	 	 	 	 	1581481405	11.14	20.63
12/02/2020 04:23:26	120220	12022020	042326	195.64	13.369690	-57.005868	195.80	-0.020	-0.360	2.100	195.67	-1.70	2.60	 	 	 	 	 	 	 	 	 	 	 	 	 	 	 	 	 	 	1581481406	11.03	20.43
12/02/2020 04:23:27	120220	12022020	042327	195.71	13.369642	-57.005883	195.79	0.260	-0.670	1.640	195.71	-2.00	2.10	 	 	 	 	 	 	 	 	 	 	 	 	 	 	 	 	 	 	1581481407	10.85	20.09
12/02/2020 04:23:28	120220	12022020	042328	195.55	13.369588	-57.005897	195.62	0.750	-1.070	1.110	195.55	-2.40	1.60	 	 	 	 	 	 	 	 	 	 	 	 	 	 	 	 	 	 	1581481408	11.07	20.50
12/02/2020 04:23:29	120220	12022020	042329	195.46	13.369537	-57.005907	195.53	1.000	-1.130	0.800	195.45	-2.50	1.30	 	 	 	 	 	 	 	 	 	 	 	 	 	 	 	 	 	 	1581481409	11.43	21.17
12/02/2020 04:23:30	120220	12022020	042330	195.45	13.369487	-57.005918	195.52	0.660	-0.850	0.940	195.45	-2.20	1.50	 	 	 	 	 	 	 	 	 	 	 	 	 	 	 	 	 	 	1581481410	11.35	21.02
12/02/2020 04:23:31	120220	12022020	042331	195.27	13.369438	-57.005935	195.33	-0.070	-0.640	1.550	195.27	-2.00	2.10	 	 	 	 	 	 	 	 	 	 	 	 	 	 	 	 	 	 	1581481411	11.01	20.39
12/02/2020 04:23:32	120220	12022020	042332	194.90	13.369388	-57.005957	194.95	-0.730	-0.600	2.420	194.90	-1.90	2.90	 	 	 	 	 	 	 	 	 	 	 	 	 	 	 	 	 	 	1581481412	11.15	20.65
12/02/2020 04:23:33	120220	12022020	042333	194.47	13.369338	-57.005978	194.52	-0.970	-0.490	3.000	194.47	-1.80	3.50	 	 	 	 	 	 	 	 	 	 	 	 	 	 	 	 	 	 	1581481413	11.62	21.52
12/02/2020 04:23:34	120220	12022020	042334	194.10	13.369288	-57.005998	194.20	-0.760	-0.260	3.040	194.10	-1.60	3.50	 	 	 	 	 	 	 	 	 	 	 	 	 	 	 	 	 	 	1581481414	11.76	21.78
12/02/2020 04:23:35	120220	12022020	042335	194.00	13.369237	-57.006015	194.10	-0.430	0.060	2.760	194.00	-1.30	3.20	 	 	 	 	 	 	 	 	 	 	 	 	 	 	 	 	 	 	1581481415	11.66	21.59
12/02/2020 04:23:36	120220	12022020	042336	194.06	13.369185	-57.006030	194.19	-0.260	0.350	2.370	194.09	-1.00	2.90	 	 	 	 	 	 	 	 	 	 	 	 	 	 	 	 	 	 	1581481416	11.50	21.30
12/02/2020 04:23:37	120220	12022020	042337	194.55	13.369135	-57.006043	194.67	-0.340	0.680	1.870	194.55	-0.60	2.40	 	 	 	 	 	 	 	 	 	 	 	 	 	 	 	 	 	 	1581481417	11.38	21.08
12/02/2020 04:23:38	120220	12022020	042338	195.32	13.369088	-57.006057	195.69	-0.490	1.000	1.310	195.55	-0.30	1.80	 	 	 	 	 	 	 	 	 	 	 	 	 	 	 	 	 	 	1581481418	11.09	20.54
12/02/2020 04:23:39	120220	12022020	042339	196.66	13.369042	-57.006072	196.77	-0.330	0.840	0.770	196.66	-0.50	1.30	 	 	 	 	 	 	 	 	 	 	 	 	 	 	 	 	 	 	1581481419	10.62	19.67
12/02/2020 04:23:40	120220	12022020	042340	197.24	13.368990	-57.006085	197.33	0.380	-0.240	0.700	197.24	-1.60	1.20	 	 	 	 	 	 	 	 	 	 	 	 	 	 	 	 	 	 	1581481420	10.61	19.65
12/02/2020 04:23:41	120220	12022020	042341	197.11	13.368935	-57.006102	197.17	1.290	-1.620	1.150	197.11	-3.00	1.70	 	 	 	 	 	 	 	 	 	 	 	 	 	 	 	 	 	 	1581481421	11.43	21.17
12/02/2020 04:23:42	120220	12022020	042342	196.53	13.368883	-57.006117	196.57	1.680	-2.140	1.660	196.53	-3.50	2.20	 	 	 	 	 	 	 	 	 	 	 	 	 	 	 	 	 	 	1581481422	12.08	22.37
12/02/2020 04:23:43	120220	12022020	042343	195.99	13.368837	-57.006130	196.04	1.140	-1.460	2.110	195.99	-2.80	2.60	 	 	 	 	 	 	 	 	 	 	 	 	 	 	 	 	 	 	1581481423	11.63	21.54
12/02/2020 04:23:44	120220	12022020	042344	195.67	13.368792	-57.006147	195.73	0.020	-0.420	2.350	195.67	-1.70	2.90	 	 	 	 	 	 	 	 	 	 	 	 	 	 	 	 	 	 	1581481424	10.60	19.63
12/02/2020 04:23:45	120220	12022020	042345	195.38	13.368743	-57.006167	195.47	-0.980	0.080	2.610	195.38	-1.30	3.10	 	 	 	 	 	 	 	 	 	 	 	 	 	 	 	 	 	 	1581481425	10.28	19.04
12/02/2020 04:23:46	120220	12022020	042346	195.10	13.368693	-57.006192	195.20	-1.440	-0.040	2.950	195.10	-1.40	3.50	 	 	 	 	 	 	 	 	 	 	 	 	 	 	 	 	 	 	1581481426	11.06	20.48
12/02/2020 04:23:47	120220	12022020	042347	194.95	13.368643	-57.006217	195.07	-1.220	-0.220	2.930	194.95	-1.60	3.40	 	 	 	 	 	 	 	 	 	 	 	 	 	 	 	 	 	 	1581481427	12.00	22.22
12/02/2020 04:23:48	120220	12022020	042348	194.99	13.368592	-57.006235	195.11	-0.520	-0.010	2.370	194.99	-1.30	2.80	 	 	 	 	 	 	 	 	 	 	 	 	 	 	 	 	 	 	1581481428	12.19	22.58
12/02/2020 04:23:49	120220	12022020	042349	195.13	13.368542	-57.006248	195.25	0.280	0.250	1.640	195.13	-1.10	2.10	 	 	 	 	 	 	 	 	 	 	 	 	 	 	 	 	 	 	1581481429	11.57	21.43
12/02/2020 04:23:50	120220	12022020	042350	195.35	13.368488	-57.006258	195.47	0.750	0.280	1.030	195.35	-1.10	1.50	 	 	 	 	 	 	 	 	 	 	 	 	 	 	 	 	 	 	1581481430	11.25	20.84
12/02/2020 04:23:51	120220	12022020	042351	195.81	13.368438	-57.006267	195.93	0.720	0.290	0.590	195.81	-1.00	1.10	 	 	 	 	 	 	 	 	 	 	 	 	 	 	 	 	 	 	1581481431	11.34	21.00
12/02/2020 04:23:52	120220	12022020	042352	196.45	13.368390	-57.006278	196.58	0.340	0.370	0.550	196.45	-1.00	1.10	 	 	 	 	 	 	 	 	 	 	 	 	 	 	 	 	 	 	1581481432	11.14	20.63
12/02/2020 04:23:53	120220	12022020	042353	196.98	13.368343	-57.006293	197.10	-0.010	0.060	0.950	196.98	-1.30	1.50	 	 	 	 	 	 	 	 	 	 	 	 	 	 	 	 	 	 	1581481433	10.63	19.69
12/02/2020 04:23:54	120220	12022020	042354	197.09	13.368293	-57.006315	197.18	-0.120	-0.900	1.840	197.09	-2.30	2.40	 	 	 	 	 	 	 	 	 	 	 	 	 	 	 	 	 	 	1581481434	10.69	19.80
12/02/2020 04:23:55	120220	12022020	042355	196.65	13.368243	-57.006340	196.70	0.010	-1.970	3.020	196.65	-3.30	3.50	 	 	 	 	 	 	 	 	 	 	 	 	 	 	 	 	 	 	1581481435	11.44	21.19
12/02/2020 04:23:56	120220	12022020	042356	195.75	13.368193	-57.006363	195.80	0.150	-2.320	3.840	195.75	-3.60	4.30	 	 	 	 	 	 	 	 	 	 	 	 	 	 	 	 	 	 	1581481436	12.06	22.34
12/02/2020 04:23:57	120220	12022020	042357	194.96	13.368145	-57.006382	195.05	0.080	-1.520	4.000	194.96	-2.80	4.50	 	 	 	 	 	 	 	 	 	 	 	 	 	 	 	 	 	 	1581481437	11.89	22.02
12/02/2020 04:23:58	120220	12022020	042358	194.59	13.368098	-57.006398	194.69	-0.150	-0.210	3.530	194.59	-1.50	4.00	 	 	 	 	 	 	 	 	 	 	 	 	 	 	 	 	 	 	1581481438	11.04	20.45
12/02/2020 04:23:59	120220	12022020	042359	194.39	13.368048	-57.006410	194.49	-0.180	0.600	2.650	194.39	-0.70	3.10	 	 	 	 	 	 	 	 	 	 	 	 	 	 	 	 	 	 	1581481439	10.50	19.45
12/02/2020 04:24:00	120220	12022020	042400	194.29	13.367995	-57.006422	194.38	0.060	0.620	1.930	194.28	-0.70	2.40	 	 	 	 	 	 	 	 	 	 	 	 	 	 	 	 	 	 	1581481440	10.97	20.32
12/02/2020 04:24:01	120220	12022020	042401	194.32	13.367940	-57.006433	194.44	0.230	0.270	1.730	194.32	-1.10	2.30	1016.80	25.80	25.90	21.30	21.40	-1.0	76.0	76.0	397.0	25.5	258.00	9.20	65.00	11.80	15	7409.0	27.2	27.2	1581481441	11.86	21.96
12/02/2020 04:24:02	120220	12022020	042402	194.51	13.367887	-57.006450	194.71	0.070	0.100	1.890	194.58	-1.20	2.40	 	 	 	 	 	 	 	 	 	 	 	 	 	 	 	 	 	 	1581481442	12.18	22.56
12/02/2020 04:24:03	120220	12022020	042403	195.07	13.367838	-57.006467	195.20	-0.310	0.290	2.120	195.07	-1.00	2.60	 	 	 	 	 	 	 	 	 	 	 	 	 	 	 	 	 	 	1581481443	11.81	21.87
12/02/2020 04:24:04	120220	12022020	042404	195.59	13.367792	-57.006483	195.72	-0.510	0.410	2.220	195.59	-0.90	2.70	 	 	 	 	 	 	 	 	 	 	 	 	 	 	 	 	 	 	1581481444	11.09	20.54
12/02/2020 04:24:05	120220	12022020	042405	196.00	13.367742	-57.006500	196.12	-0.350	0.090	2.080	196.00	-1.30	2.60	 	 	 	 	 	 	 	 	 	 	 	 	 	 	 	 	 	 	1581481445	10.76	19.93
12/02/2020 04:24:06	120220	12022020	042406	196.29	13.367692	-57.006515	196.40	0.040	-0.490	1.790	196.29	-1.90	2.30	 	 	 	 	 	 	 	 	 	 	 	 	 	 	 	 	 	 	1581481446	11.06	20.48
12/02/2020 04:24:07	120220	12022020	042407	196.54	13.367642	-57.006530	196.66	0.330	-0.790	1.400	196.54	-2.10	1.90	 	 	 	 	 	 	 	 	 	 	 	 	 	 	 	 	 	 	1581481447	11.34	21.00
12/02/2020 04:24:08	120220	12022020	042408	196.79	13.367595	-57.006545	196.92	0.350	-0.620	1.090	196.79	-2.00	1.60	 	 	 	 	 	 	 	 	 	 	 	 	 	 	 	 	 	 	1581481448	11.10	20.56
12/02/2020 04:24:09	120220	12022020	042409	197.07	13.367550	-57.006558	197.20	0.260	-0.310	0.710	197.07	-1.60	1.20	 	 	 	 	 	 	 	 	 	 	 	 	 	 	 	 	 	 	1581481449	10.54	19.52
12/02/2020 04:24:10	120220	12022020	042410	197.36	13.367502	-57.006573	197.48	0.260	-0.290	0.400	197.36	-1.60	0.90	 	 	 	 	 	 	 	 	 	 	 	 	 	 	 	 	 	 	1581481450	10.32	19.11
12/02/2020 04:24:11	120220	12022020	042411	197.55	13.367452	-57.006590	197.64	0.470	-0.720	0.280	197.55	-2.10	0.80	 	 	 	 	 	 	 	 	 	 	 	 	 	 	 	 	 	 	1581481451	10.68	19.78
12/02/2020 04:24:12	120220	12022020	042412	197.29	13.367398	-57.006607	197.35	0.920	-1.470	0.600	197.29	-2.80	1.10	 	 	 	 	 	 	 	 	 	 	 	 	 	 	 	 	 	 	1581481452	11.27	20.87
12/02/2020 04:24:13	120220	12022020	042413	196.66	13.367343	-57.006622	196.52	1.230	-2.030	1.360	196.46	-3.40	1.90	 	 	 	 	 	 	 	 	 	 	 	 	 	 	 	 	 	 	1581481453	11.95	22.13
12/02/2020 04:24:14	120220	12022020	042414	195.85	13.367292	-57.006638	195.85	0.670	-1.340	2.200	195.77	-2.60	2.70	 	 	 	 	 	 	 	 	 	 	 	 	 	 	 	 	 	 	1581481454	12.41	22.98
12/02/2020 04:24:15	120220	12022020	042415	195.57	13.367247	-57.006658	195.69	-0.810	0.270	2.850	195.57	-1.00	3.40	 	 	 	 	 	 	 	 	 	 	 	 	 	 	 	 	 	 	1581481455	11.63	21.54
12/02/2020 04:24:16	120220	12022020	042416	195.61	13.367202	-57.006683	195.77	-2.220	1.390	3.280	195.63	0.10	3.80	 	 	 	 	 	 	 	 	 	 	 	 	 	 	 	 	 	 	1581481456	10.55	19.54
12/02/2020 04:24:17	120220	12022020	042417	195.83	13.367153	-57.006712	195.99	-2.530	1.320	3.340	195.83	-0.00	3.80	 	 	 	 	 	 	 	 	 	 	 	 	 	 	 	 	 	 	1581481457	10.91	20.21
12/02/2020 04:24:18	120220	12022020	042418	196.22	13.367100	-57.006737	196.39	-1.610	0.720	2.850	196.22	-0.60	3.30	 	 	 	 	 	 	 	 	 	 	 	 	 	 	 	 	 	 	1581481458	12.10	22.41
12/02/2020 04:24:19	120220	12022020	042419	196.95	13.367050	-57.006755	197.14	-0.260	0.460	1.830	196.95	-0.90	2.30	 	 	 	 	 	 	 	 	 	 	 	 	 	 	 	 	 	 	1581481459	12.44	23.04
12/02/2020 04:24:20	120220	12022020	042420	197.93	13.367002	-57.006767	198.11	0.650	0.590	0.630	197.93	-0.80	1.10	 	 	 	 	 	 	 	 	 	 	 	 	 	 	 	 	 	 	1581481460	11.63	21.54
12/02/2020 04:24:21	120220	12022020	042421	198.66	13.366955	-57.006777	198.79	0.980	0.390	-0.070	198.66	-1.00	0.40	 	 	 	 	 	 	 	 	 	 	 	 	 	 	 	 	 	 	1581481461	10.57	19.58
12/02/2020 04:24:22	120220	12022020	042422	198.78	13.366907	-57.006790	198.87	1.170	-0.500	0.000	198.78	-1.90	0.50	 	 	 	 	 	 	 	 	 	 	 	 	 	 	 	 	 	 	1581481462	10.29	19.06
12/02/2020 04:24:23	120220	12022020	042423	198.56	13.366857	-57.006805	198.66	1.390	-1.340	0.430	198.56	-2.70	1.00	 	 	 	 	 	 	 	 	 	 	 	 	 	 	 	 	 	 	1581481463	10.83	20.06
12/02/2020 04:24:24	120220	12022020	042424	198.29	13.366810	-57.006820	198.39	1.250	-1.540	1.130	198.29	-2.90	1.70	 	 	 	 	 	 	 	 	 	 	 	 	 	 	 	 	 	 	1581481464	11.07	20.50
12/02/2020 04:24:25	120220	12022020	042425	197.84	13.366765	-57.006840	197.76	0.710	-1.530	2.120	197.68	-2.90	2.70	 	 	 	 	 	 	 	 	 	 	 	 	 	 	 	 	 	 	1581481465	10.59	19.61
12/02/2020 04:24:26	120220	12022020	042426	196.68	13.366717	-57.006865	196.77	0.080	-1.540	3.190	196.68	-2.90	3.70	 	 	 	 	 	 	 	 	 	 	 	 	 	 	 	 	 	 	1581481466	10.68	19.78
12/02/2020 04:24:27	120220	12022020	042427	195.77	13.366670	-57.006890	195.89	-0.440	-1.110	4.020	195.77	-2.40	4.50	 	 	 	 	 	 	 	 	 	 	 	 	 	 	 	 	 	 	1581481467	11.37	21.06
12/02/2020 04:24:28	120220	12022020	042428	195.35	13.366623	-57.006912	195.44	-0.780	-0.240	4.240	195.29	-1.50	4.70	 	 	 	 	 	 	 	 	 	 	 	 	 	 	 	 	 	 	1581481468	11.49	21.28
12/02/2020 04:24:29	120220	12022020	042429	195.24	13.366575	-57.006933	195.40	-0.950	0.550	3.820	195.24	-0.80	4.30	 	 	 	 	 	 	 	 	 	 	 	 	 	 	 	 	 	 	1581481469	11.14	20.63
12/02/2020 04:24:30	120220	12022020	042430	195.52	13.366527	-57.006952	195.69	-0.950	0.930	3.130	195.52	-0.40	3.60	 	 	 	 	 	 	 	 	 	 	 	 	 	 	 	 	 	 	1581481470	11.05	20.46
12/02/2020 04:24:31	120220	12022020	042431	195.95	13.366477	-57.006968	196.11	-0.740	0.940	2.430	195.95	-0.40	2.90	 	 	 	 	 	 	 	 	 	 	 	 	 	 	 	 	 	 	1581481471	11.20	20.74
12/02/2020 04:24:32	120220	12022020	042432	196.33	13.366428	-57.006983	196.46	-0.310	0.650	1.740	196.33	-0.70	2.20	 	 	 	 	 	 	 	 	 	 	 	 	 	 	 	 	 	 	1581481472	11.23	20.80
12/02/2020 04:24:33	120220	12022020	042433	196.59	13.366378	-57.006997	196.70	0.260	0.160	1.200	196.59	-1.20	1.70	 	 	 	 	 	 	 	 	 	 	 	 	 	 	 	 	 	 	1581481473	11.15	20.65
12/02/2020 04:24:34	120220	12022020	042434	196.70	13.366328	-57.007008	196.80	0.750	-0.370	0.950	196.70	-1.70	1.50	 	 	 	 	 	 	 	 	 	 	 	 	 	 	 	 	 	 	1581481474	11.08	20.52
12/02/2020 04:24:35	120220	12022020	042435	196.78	13.366280	-57.007020	196.88	0.970	-0.710	0.890	196.78	-2.10	1.40	 	 	 	 	 	 	 	 	 	 	 	 	 	 	 	 	 	 	1581481475	10.95	20.28
12/02/2020 04:24:36	120220	12022020	042436	196.84	13.366233	-57.007033	196.94	0.840	-0.810	1.090	196.84	-2.20	1.60	 	 	 	 	 	 	 	 	 	 	 	 	 	 	 	 	 	 	1581481476	10.69	19.80
12/02/2020 04:24:37	120220	12022020	042437	196.70	13.366187	-57.007050	196.77	0.490	-0.920	1.680	196.70	-2.30	2.20	 	 	 	 	 	 	 	 	 	 	 	 	 	 	 	 	 	 	1581481477	10.42	19.30
12/02/2020 04:24:38	120220	12022020	042438	196.39	13.366140	-57.007068	196.47	0.090	-0.980	2.270	196.39	-2.30	2.80	 	 	 	 	 	 	 	 	 	 	 	 	 	 	 	 	 	 	1581481478	10.55	19.54
12/02/2020 04:24:39	120220	12022020	042439	196.01	13.366092	-57.007088	196.10	-0.270	-0.990	2.710	196.01	-2.30	3.20	 	 	 	 	 	 	 	 	 	 	 	 	 	 	 	 	 	 	1581481479	10.82	20.04
12/02/2020 04:24:40	120220	12022020	042440	195.56	13.366043	-57.007108	195.63	-0.480	-0.890	2.950	195.56	-2.20	3.50	 	 	 	 	 	 	 	 	 	 	 	 	 	 	 	 	 	 	1581481480	11.07	20.50
12/02/2020 04:24:41	120220	12022020	042441	194.98	13.365995	-57.007128	195.07	-0.380	-0.530	2.910	194.98	-1.80	3.40	 	 	 	 	 	 	 	 	 	 	 	 	 	 	 	 	 	 	1581481481	11.29	20.91
12/02/2020 04:24:42	120220	12022020	042442	194.52	13.365945	-57.007143	194.64	-0.100	0.040	2.560	194.52	-1.30	3.00	 	 	 	 	 	 	 	 	 	 	 	 	 	 	 	 	 	 	1581481482	11.22	20.78
12/02/2020 04:24:43	120220	12022020	042443	194.55	13.365897	-57.007157	194.79	-0.060	0.720	1.930	194.62	-0.60	2.40	 	 	 	 	 	 	 	 	 	 	 	 	 	 	 	 	 	 	1581481483	11.07	20.50
12/02/2020 04:24:44	120220	12022020	042444	195.25	13.365850	-57.007170	195.42	-0.360	1.100	1.490	195.25	-0.20	2.00	 	 	 	 	 	 	 	 	 	 	 	 	 	 	 	 	 	 	1581481484	10.76	19.93
12/02/2020 04:24:45	120220	12022020	042445	195.80	13.365803	-57.007188	195.96	-0.590	0.750	1.610	195.80	-0.60	2.10	 	 	 	 	 	 	 	 	 	 	 	 	 	 	 	 	 	 	1581481485	10.56	19.56
12/02/2020 04:24:46	120220	12022020	042446	196.00	13.365753	-57.007208	196.15	-0.230	-0.220	1.900	196.00	-1.60	2.40	 	 	 	 	 	 	 	 	 	 	 	 	 	 	 	 	 	 	1581481486	10.92	20.22
12/02/2020 04:24:47	120220	12022020	042447	196.01	13.365702	-57.007225	196.16	0.550	-0.990	1.910	196.01	-2.30	2.40	 	 	 	 	 	 	 	 	 	 	 	 	 	 	 	 	 	 	1581481487	11.55	21.39
12/02/2020 04:24:48	120220	12022020	042448	196.05	13.365653	-57.007238	196.19	1.110	-1.130	1.680	196.05	-2.50	2.20	 	 	 	 	 	 	 	 	 	 	 	 	 	 	 	 	 	 	1581481488	11.44	21.19
12/02/2020 04:24:49	120220	12022020	042449	196.17	13.365607	-57.007250	196.30	1.010	-0.820	1.350	196.17	-2.10	1.90	 	 	 	 	 	 	 	 	 	 	 	 	 	 	 	 	 	 	1581481489	10.82	20.04
12/02/2020 04:24:50	120220	12022020	042450	196.29	13.365560	-57.007262	196.42	0.400	-0.460	1.160	196.31	-1.80	1.70	 	 	 	 	 	 	 	 	 	 	 	 	 	 	 	 	 	 	1581481490	10.29	19.06
12/02/2020 04:24:51	120220	12022020	042451	196.32	13.365513	-57.007275	196.42	-0.230	-0.400	1.300	196.32	-1.70	1.80	 	 	 	 	 	 	 	 	 	 	 	 	 	 	 	 	 	 	1581481491	10.20	18.89
12/02/2020 04:24:52	120220	12022020	042452	196.10	13.365463	-57.007293	196.19	-0.560	-0.680	1.700	196.10	-2.00	2.20	 	 	 	 	 	 	 	 	 	 	 	 	 	 	 	 	 	 	1581481492	10.59	19.61
12/02/2020 04:24:53	120220	12022020	042453	195.83	13.365413	-57.007313	195.95	-0.680	-0.870	2.190	195.83	-2.20	2.70	 	 	 	 	 	 	 	 	 	 	 	 	 	 	 	 	 	 	1581481493	11.28	20.89
12/02/2020 04:24:54	120220	12022020	042454	195.90	13.365367	-57.007335	196.02	-0.740	-0.440	2.340	195.90	-1.70	2.80	 	 	 	 	 	 	 	 	 	 	 	 	 	 	 	 	 	 	1581481494	11.60	21.48
12/02/2020 04:24:55	120220	12022020	042455	196.15	13.365322	-57.007355	196.26	-0.670	0.410	2.110	196.15	-0.90	2.60	 	 	 	 	 	 	 	 	 	 	 	 	 	 	 	 	 	 	1581481495	11.09	20.54
12/02/2020 04:24:56	120220	12022020	042456	196.21	13.365275	-57.007370	196.31	-0.180	0.800	1.750	196.21	-0.50	2.30	 	 	 	 	 	 	 	 	 	 	 	 	 	 	 	 	 	 	1581481496	10.39	19.24
12/02/2020 04:24:57	120220	12022020	042457	195.96	13.365223	-57.007382	196.05	0.600	0.330	1.350	195.96	-1.00	1.90	 	 	 	 	 	 	 	 	 	 	 	 	 	 	 	 	 	 	1581481497	10.58	19.59
12/02/2020 04:24:58	120220	12022020	042458	195.70	13.365170	-57.007395	195.79	1.080	-0.320	1.150	195.70	-1.70	1.70	 	 	 	 	 	 	 	 	 	 	 	 	 	 	 	 	 	 	1581481498	11.50	21.30
12/02/2020 04:24:59	120220	12022020	042459	195.46	13.365120	-57.007408	195.56	0.860	-0.610	1.410	195.46	-1.90	1.90	 	 	 	 	 	 	 	 	 	 	 	 	 	 	 	 	 	 	1581481499	11.72	21.71
12/02/2020 04:25:00	120220	12022020	042500	195.32	13.365073	-57.007425	195.43	0.110	-0.490	1.860	195.32	-1.80	2.40	 	 	 	 	 	 	 	 	 	 	 	 	 	 	 	 	 	 	1581481500	11.18	20.71
12/02/2020 04:25:01	120220	12022020	042501	195.43	13.365028	-57.007445	195.55	-0.660	-0.270	2.350	195.43	-1.60	2.90	1016.80	25.80	25.90	21.30	21.40	-1.0	76.0	76.0	396.0	25.5	252.00	8.10	59.00	11.30	15	7579.0	27.2	27.2	1581481501	10.65	19.72
12/02/2020 04:25:02	120220	12022020	042502	195.72	13.364983	-57.007467	195.84	-0.970	-0.290	2.560	195.72	-1.60	3.10	 	 	 	 	 	 	 	 	 	 	 	 	 	 	 	 	 	 	1581481502	10.52	19.48
12/02/2020 04:25:03	120220	12022020	042503	195.93	13.364935	-57.007487	196.02	-0.600	-0.590	2.220	195.93	-1.90	2.70	 	 	 	 	 	 	 	 	 	 	 	 	 	 	 	 	 	 	1581481503	10.78	19.96
12/02/2020 04:25:04	120220	12022020	042504	195.95	13.364885	-57.007502	196.06	0.120	-0.830	1.670	195.96	-2.20	2.20	 	 	 	 	 	 	 	 	 	 	 	 	 	 	 	 	 	 	1581481504	11.08	20.52
12/02/2020 04:25:05	120220	12022020	042505	196.13	13.364837	-57.007513	196.25	0.590	-0.650	1.060	196.13	-2.00	1.60	 	 	 	 	 	 	 	 	 	 	 	 	 	 	 	 	 	 	1581481505	11.23	20.80
12/02/2020 04:25:06	120220	12022020	042506	196.35	13.364788	-57.007523	196.48	0.490	-0.200	0.720	196.39	-1.50	1.20	 	 	 	 	 	 	 	 	 	 	 	 	 	 	 	 	 	 	1581481506	10.89	20.17
12/02/2020 04:25:07	120220	12022020	042507	196.34	13.364740	-57.007537	196.43	0.060	0.030	0.970	196.34	-1.30	1.50	 	 	 	 	 	 	 	 	 	 	 	 	 	 	 	 	 	 	1581481507	10.52	19.48
12/02/2020 04:25:08	120220	12022020	042508	195.93	13.364692	-57.007553	196.01	-0.200	-0.210	1.570	195.93	-1.60	2.10	 	 	 	 	 	 	 	 	 	 	 	 	 	 	 	 	 	 	1581481508	10.65	19.72
12/02/2020 04:25:09	120220	12022020	042509	195.47	13.364640	-57.007573	195.58	-0.140	-0.490	2.060	195.47	-1.80	2.60	 	 	 	 	 	 	 	 	 	 	 	 	 	 	 	 	 	 	1581481509	11.28	20.89
12/02/2020 04:25:10	120220	12022020	042510	195.11	13.364592	-57.007590	195.23	0.080	-0.450	2.260	195.11	-1.80	2.80	 	 	 	 	 	 	 	 	 	 	 	 	 	 	 	 	 	 	1581481510	11.55	21.39
12/02/2020 04:25:11	120220	12022020	042511	194.74	13.364542	-57.007607	194.85	0.270	-0.270	2.290	194.74	-1.60	2.80	 	 	 	 	 	 	 	 	 	 	 	 	 	 	 	 	 	 	1581481511	11.26	20.85
12/02/2020 04:25:12	120220	12022020	042512	194.50	13.364492	-57.007622	194.64	0.200	-0.090	2.240	194.50	-1.40	2.70	 	 	 	 	 	 	 	 	 	 	 	 	 	 	 	 	 	 	1581481512	11.12	20.59
12/02/2020 04:25:13	120220	12022020	042513	194.62	13.364443	-57.007637	194.78	-0.170	0.190	2.190	194.62	-1.10	2.70	 	 	 	 	 	 	 	 	 	 	 	 	 	 	 	 	 	 	1581481513	11.12	20.59
12/02/2020 04:25:14	120220	12022020	042514	195.10	13.364397	-57.007653	195.28	-0.620	0.460	2.000	195.10	-0.90	2.50	 	 	 	 	 	 	 	 	 	 	 	 	 	 	 	 	 	 	1581481514	10.88	20.15
12/02/2020 04:25:15	120220	12022020	042515	195.76	13.364350	-57.007672	195.93	-0.840	0.340	1.710	195.76	-1.00	2.20	 	 	 	 	 	 	 	 	 	 	 	 	 	 	 	 	 	 	1581481515	10.61	19.65
12/02/2020 04:25:16	120220	12022020	042516	196.33	13.364303	-57.007690	196.49	-0.600	-0.250	1.550	196.33	-1.60	2.10	 	 	 	 	 	 	 	 	 	 	 	 	 	 	 	 	 	 	1581481516	10.71	19.83
12/02/2020 04:25:17	120220	12022020	042517	196.53	13.364253	-57.007707	196.64	0.110	-1.020	1.360	196.53	-2.40	1.90	 	 	 	 	 	 	 	 	 	 	 	 	 	 	 	 	 	 	1581481517	11.07	20.50
12/02/2020 04:25:18	120220	12022020	042518	196.34	13.364202	-57.007720	196.33	0.900	-1.530	1.300	196.26	-2.90	1.80	 	 	 	 	 	 	 	 	 	 	 	 	 	 	 	 	 	 	1581481518	11.30	20.93
12/02/2020 04:25:19	120220	12022020	042519	195.80	13.364152	-57.007732	195.89	1.230	-1.350	1.340	195.80	-2.70	1.90	 	 	 	 	 	 	 	 	 	 	 	 	 	 	 	 	 	 	1581481519	11.34	21.00
12/02/2020 04:25:20	120220	12022020	042520	195.61	13.364105	-57.007742	195.71	0.930	-0.560	1.150	195.61	-1.90	1.70	 	 	 	 	 	 	 	 	 	 	 	 	 	 	 	 	 	 	1581481520	10.96	20.30
12/02/2020 04:25:21	120220	12022020	042521	195.60	13.364057	-57.007752	195.67	0.250	0.170	1.130	195.60	-1.10	1.70	 	 	 	 	 	 	 	 	 	 	 	 	 	 	 	 	 	 	1581481521	10.46	19.37
12/02/2020 04:25:22	120220	12022020	042522	195.56	13.364007	-57.007768	195.65	-0.390	0.270	1.570	195.56	-1.10	2.10	 	 	 	 	 	 	 	 	 	 	 	 	 	 	 	 	 	 	1581481522	10.47	19.39
12/02/2020 04:25:23	120220	12022020	042523	195.53	13.363957	-57.007790	195.64	-0.790	-0.100	2.280	195.53	-1.40	2.80	 	 	 	 	 	 	 	 	 	 	 	 	 	 	 	 	 	 	1581481523	11.20	20.74
12/02/2020 04:25:24	120220	12022020	042524	195.50	13.363907	-57.007815	195.64	-0.960	-0.360	2.930	195.50	-1.70	3.40	 	 	 	 	 	 	 	 	 	 	 	 	 	 	 	 	 	 	1581481524	11.88	22.00
12/02/2020 04:25:25	120220	12022020	042525	195.58	13.363858	-57.007837	195.71	-0.920	-0.220	2.990	195.58	-1.50	3.50	 	 	 	 	 	 	 	 	 	 	 	 	 	 	 	 	 	 	1581481525	11.92	22.08
12/02/2020 04:25:26	120220	12022020	042526	195.74	13.363812	-57.007855	195.85	-0.660	0.120	2.440	195.74	-1.20	2.90	 	 	 	 	 	 	 	 	 	 	 	 	 	 	 	 	 	 	1581481526	11.36	21.04
12/02/2020 04:25:27	120220	12022020	042527	195.82	13.363763	-57.007868	195.92	-0.260	0.350	1.630	195.82	-1.00	2.10	 	 	 	 	 	 	 	 	 	 	 	 	 	 	 	 	 	 	1581481527	10.84	20.08
12/02/2020 04:25:28	120220	12022020	042528	195.89	13.363713	-57.007880	195.99	0.150	0.270	0.900	195.89	-1.10	1.40	 	 	 	 	 	 	 	 	 	 	 	 	 	 	 	 	 	 	1581481528	10.73	19.87
12/02/2020 04:25:29	120220	12022020	042529	195.99	13.363663	-57.007892	196.08	0.540	-0.140	0.350	195.99	-1.50	0.90	 	 	 	 	 	 	 	 	 	 	 	 	 	 	 	 	 	 	1581481529	10.86	20.11
12/02/2020 04:25:30	120220	12022020	042530	196.06	13.363613	-57.007903	196.15	0.860	-0.570	0.210	196.06	-1.90	0.70	 	 	 	 	 	 	 	 	 	 	 	 	 	 	 	 	 	 	1581481530	11.11	20.58
12/02/2020 04:25:31	120220	12022020	042531	196.02	13.363563	-57.007917	196.11	0.930	-0.830	0.510	196.02	-2.20	1.10	 	 	 	 	 	 	 	 	 	 	 	 	 	 	 	 	 	 	1581481531	11.13	20.61
12/02/2020 04:25:32	120220	12022020	042532	195.87	13.363515	-57.007932	195.97	0.690	-0.910	1.090	195.87	-2.30	1.60	 	 	 	 	 	 	 	 	 	 	 	 	 	 	 	 	 	 	1581481532	10.96	20.30
12/02/2020 04:25:33	120220	12022020	042533	195.70	13.363467	-57.007948	195.81	0.260	-0.830	1.780	195.70	-2.20	2.30	 	 	 	 	 	 	 	 	 	 	 	 	 	 	 	 	 	 	1581481533	10.87	20.13
12/02/2020 04:25:34	120220	12022020	042534	195.64	13.363420	-57.007968	195.74	-0.210	-0.710	2.340	195.64	-2.10	2.90	 	 	 	 	 	 	 	 	 	 	 	 	 	 	 	 	 	 	1581481534	10.90	20.19
12/02/2020 04:25:35	120220	12022020	042535	195.59	13.363370	-57.007988	195.66	-0.480	-0.670	2.730	195.55	-2.00	3.20	 	 	 	 	 	 	 	 	 	 	 	 	 	 	 	 	 	 	1581481535	11.06	20.48
12/02/2020 04:25:36	120220	12022020	042536	195.29	13.363320	-57.008008	195.40	-0.490	-0.580	2.900	195.29	-1.90	3.40	 	 	 	 	 	 	 	 	 	 	 	 	 	 	 	 	 	 	1581481536	11.37	21.06
12/02/2020 04:25:37	120220	12022020	042537	195.16	13.363270	-57.008025	195.28	-0.430	-0.130	2.660	195.16	-1.50	3.20	 	 	 	 	 	 	 	 	 	 	 	 	 	 	 	 	 	 	1581481537	11.57	21.43
12/02/2020 04:25:38	120220	12022020	042538	195.18	13.363222	-57.008040	195.31	-0.460	0.460	2.330	195.18	-0.90	2.80	 	 	 	 	 	 	 	 	 	 	 	 	 	 	 	 	 	 	1581481538	11.26	20.85
12/02/2020 04:25:39	120220	12022020	042539	195.27	13.363173	-57.008055	195.39	-0.490	0.650	2.020	195.27	-0.70	2.50	 	 	 	 	 	 	 	 	 	 	 	 	 	 	 	 	 	 	1581481539	10.85	20.09
12/02/2020 04:25:40	120220	12022020	042540	195.53	13.363122	-57.008070	195.67	-0.320	0.320	1.660	195.53	-1.10	2.20	 	 	 	 	 	 	 	 	 	 	 	 	 	 	 	 	 	 	1581481540	11.02	20.41
12/02/2020 04:25:41	120220	12022020	042541	195.88	13.363072	-57.008085	196.02	0.100	-0.120	1.290	195.88	-1.50	1.80	 	 	 	 	 	 	 	 	 	 	 	 	 	 	 	 	 	 	1581481541	11.43	21.17
12/02/2020 04:25:42	120220	12022020	042542	196.11	13.363022	-57.008098	196.29	0.560	-0.270	0.790	196.16	-1.60	1.30	 	 	 	 	 	 	 	 	 	 	 	 	 	 	 	 	 	 	1581481542	11.44	21.19
12/02/2020 04:25:43	120220	12022020	042543	196.50	13.362973	-57.008107	196.61	0.740	-0.200	0.360	196.50	-1.60	0.90	 	 	 	 	 	 	 	 	 	 	 	 	 	 	 	 	 	 	1581481543	11.02	20.41
12/02/2020 04:25:44	120220	12022020	042544	196.76	13.362925	-57.008120	196.88	0.470	-0.440	0.510	196.76	-1.80	1.00	 	 	 	 	 	 	 	 	 	 	 	 	 	 	 	 	 	 	1581481544	10.62	19.67
12/02/2020 04:25:45	120220	12022020	042545	196.68	13.362875	-57.008138	196.79	-0.010	-1.140	1.300	196.68	-2.50	1.80	 	 	 	 	 	 	 	 	 	 	 	 	 	 	 	 	 	 	1581481545	10.75	19.91
12/02/2020 04:25:46	120220	12022020	042546	196.42	13.362825	-57.008162	196.43	-0.350	-1.660	2.120	196.33	-3.00	2.60	 	 	 	 	 	 	 	 	 	 	 	 	 	 	 	 	 	 	1581481546	11.37	21.06
12/02/2020 04:25:47	120220	12022020	042547	195.79	13.362777	-57.008183	195.88	-0.350	-1.500	2.590	195.79	-2.80	3.10	 	 	 	 	 	 	 	 	 	 	 	 	 	 	 	 	 	 	1581481547	11.68	21.63
12/02/2020 04:25:48	120220	12022020	042548	195.26	13.362728	-57.008200	195.34	-0.050	-0.830	2.560	195.26	-2.20	3.10	 	 	 	 	 	 	 	 	 	 	 	 	 	 	 	 	 	 	1581481548	11.34	21.00
12/02/2020 04:25:49	120220	12022020	042549	194.84	13.362678	-57.008213	194.94	0.210	-0.080	2.200	194.84	-1.40	2.70	 	 	 	 	 	 	 	 	 	 	 	 	 	 	 	 	 	 	1581481549	10.98	20.33
12/02/2020 04:25:50	120220	12022020	042550	194.72	13.362628	-57.008225	194.83	0.110	0.550	1.810	194.72	-0.80	2.30	 	 	 	 	 	 	 	 	 	 	 	 	 	 	 	 	 	 	1581481550	11.04	20.45
12/02/2020 04:25:51	120220	12022020	042551	194.83	13.362580	-57.008240	194.94	-0.230	0.900	1.690	194.83	-0.50	2.20	 	 	 	 	 	 	 	 	 	 	 	 	 	 	 	 	 	 	1581481551	11.11	20.58
12/02/2020 04:25:52	120220	12022020	042552	195.03	13.362530	-57.008258	195.15	-0.420	0.800	1.800	195.03	-0.60	2.30	 	 	 	 	 	 	 	 	 	 	 	 	 	 	 	 	 	 	1581481552	11.12	20.59
12/02/2020 04:25:53	120220	12022020	042553	195.29	13.362478	-57.008275	195.42	-0.150	0.340	1.830	195.29	-1.00	2.30	 	 	 	 	 	 	 	 	 	 	 	 	 	 	 	 	 	 	1581481553	11.35	21.02
12/02/2020 04:25:54	120220	12022020	042554	195.66	13.362427	-57.008290	195.95	0.280	-0.180	1.720	195.78	-1.60	2.20	 	 	 	 	 	 	 	 	 	 	 	 	 	 	 	 	 	 	1581481554	11.58	21.45
12/02/2020 04:25:55	120220	12022020	042555	196.57	13.362378	-57.008305	196.74	0.270	-0.370	1.730	196.57	-1.70	2.20	 	 	 	 	 	 	 	 	 	 	 	 	 	 	 	 	 	 	1581481555	11.50	21.30
12/02/2020 04:25:56	120220	12022020	042556	197.14	13.362333	-57.008323	197.38	-0.120	-0.530	1.810	197.24	-1.90	2.30	 	 	 	 	 	 	 	 	 	 	 	 	 	 	 	 	 	 	1581481556	10.85	20.09
12/02/2020 04:25:57	120220	12022020	042557	197.38	13.362285	-57.008343	197.49	-0.240	-1.080	1.980	197.38	-2.50	2.50	 	 	 	 	 	 	 	 	 	 	 	 	 	 	 	 	 	 	1581481557	10.53	19.50
12/02/2020 04:25:58	120220	12022020	042558	197.04	13.362235	-57.008362	197.13	0.270	-1.650	2.010	197.04	-3.00	2.50	 	 	 	 	 	 	 	 	 	 	 	 	 	 	 	 	 	 	1581481558	11.04	20.45
12/02/2020 04:25:59	120220	12022020	042559	196.62	13.362185	-57.008375	196.70	0.840	-1.400	1.840	196.62	-2.70	2.30	 	 	 	 	 	 	 	 	 	 	 	 	 	 	 	 	 	 	1581481559	11.49	21.28
12/02/2020 04:26:00	120220	12022020	042600	196.40	13.362138	-57.008387	196.48	0.740	-0.510	1.710	196.40	-1.80	2.20	 	 	 	 	 	 	 	 	 	 	 	 	 	 	 	 	 	 	1581481560	11.10	20.56
12/02/2020 04:26:01	120220	12022020	042601	196.33	13.362090	-57.008402	196.40	0.040	0.190	1.750	196.33	-1.20	2.30	1016.80	25.90	26.00	21.60	21.60	-1.0	77.0	76.0	397.0	25.5	259.00	8.20	63.00	10.80	15	8065.0	27.2	27.2	1581481561	10.49	19.43
12/02/2020 04:26:02	120220	12022020	042602	196.34	13.362042	-57.008422	196.42	-0.600	0.280	1.970	196.34	-1.10	2.50	 	 	 	 	 	 	 	 	 	 	 	 	 	 	 	 	 	 	1581481562	10.64	19.71
12/02/2020 04:26:03	120220	12022020	042603	196.41	13.361990	-57.008442	196.51	-0.650	0.060	2.250	196.41	-1.30	2.80	 	 	 	 	 	 	 	 	 	 	 	 	 	 	 	 	 	 	1581481563	11.35	21.02
12/02/2020 04:26:04	120220	12022020	042604	196.49	13.361940	-57.008462	196.59	-0.340	-0.030	2.460	196.49	-1.40	3.00	 	 	 	 	 	 	 	 	 	 	 	 	 	 	 	 	 	 	1581481564	11.79	21.84
12/02/2020 04:26:05	120220	12022020	042605	196.45	13.361890	-57.008480	196.53	-0.160	-0.010	2.590	196.45	-1.40	3.10	 	 	 	 	 	 	 	 	 	 	 	 	 	 	 	 	 	 	1581481565	11.62	21.52
12/02/2020 04:26:06	120220	12022020	042606	196.24	13.361842	-57.008500	196.24	-0.220	-0.170	2.700	196.17	-1.50	3.20	 	 	 	 	 	 	 	 	 	 	 	 	 	 	 	 	 	 	1581481566	11.33	20.98
12/02/2020 04:26:07	120220	12022020	042607	195.85	13.361792	-57.008520	195.85	-0.220	-0.460	2.580	195.78	-1.80	3.10	 	 	 	 	 	 	 	 	 	 	 	 	 	 	 	 	 	 	1581481567	11.38	21.08
12/02/2020 04:26:08	120220	12022020	042608	195.56	13.361742	-57.008537	195.63	-0.020	-0.440	2.090	195.56	-1.80	2.60	 	 	 	 	 	 	 	 	 	 	 	 	 	 	 	 	 	 	1581481568	11.55	21.39
12/02/2020 04:26:09	120220	12022020	042609	195.71	13.361693	-57.008548	195.79	0.220	-0.120	1.350	195.71	-1.50	1.80	 	 	 	 	 	 	 	 	 	 	 	 	 	 	 	 	 	 	1581481569	11.21	20.76
12/02/2020 04:26:10	120220	12022020	042610	196.16	13.361645	-57.008560	196.23	0.290	0.080	0.700	196.16	-1.30	1.20	 	 	 	 	 	 	 	 	 	 	 	 	 	 	 	 	 	 	1581481570	10.77	19.95
12/02/2020 04:26:11	120220	12022020	042611	196.46	13.361595	-57.008573	196.52	0.280	-0.210	0.640	196.46	-1.60	1.20	 	 	 	 	 	 	 	 	 	 	 	 	 	 	 	 	 	 	1581481571	10.66	19.74
12/02/2020 04:26:12	120220	12022020	042612	196.56	13.361545	-57.008590	196.63	0.230	-0.690	1.160	196.56	-2.00	1.70	 	 	 	 	 	 	 	 	 	 	 	 	 	 	 	 	 	 	1581481572	11.07	20.50
12/02/2020 04:26:13	120220	12022020	042613	196.58	13.361497	-57.008608	196.66	0.050	-0.740	1.900	196.58	-2.10	2.40	 	 	 	 	 	 	 	 	 	 	 	 	 	 	 	 	 	 	1581481573	11.40	21.11
12/02/2020 04:26:14	120220	12022020	042614	196.35	13.361450	-57.008628	196.42	-0.170	-0.580	2.630	196.35	-1.90	3.10	 	 	 	 	 	 	 	 	 	 	 	 	 	 	 	 	 	 	1581481574	11.05	20.46
12/02/2020 04:26:15	120220	12022020	042615	195.79	13.361402	-57.008650	195.86	-0.190	-0.650	3.220	195.79	-2.00	3.70	 	 	 	 	 	 	 	 	 	 	 	 	 	 	 	 	 	 	1581481575	10.87	20.13
12/02/2020 04:26:16	120220	12022020	042616	195.40	13.361350	-57.008667	195.52	-0.030	-0.570	3.070	195.40	-1.90	3.50	 	 	 	 	 	 	 	 	 	 	 	 	 	 	 	 	 	 	1581481576	11.36	21.04
12/02/2020 04:26:17	120220	12022020	042617	195.35	13.361302	-57.008682	195.47	0.090	-0.180	2.520	195.35	-1.50	3.00	 	 	 	 	 	 	 	 	 	 	 	 	 	 	 	 	 	 	1581481577	11.43	21.17
12/02/2020 04:26:18	120220	12022020	042618	195.47	13.361252	-57.008695	195.59	0.090	0.210	1.980	195.47	-1.10	2.50	 	 	 	 	 	 	 	 	 	 	 	 	 	 	 	 	 	 	1581481578	11.06	20.48
12/02/2020 04:26:19	120220	12022020	042619	195.73	13.361203	-57.008708	195.85	0.020	0.410	1.530	195.73	-0.90	2.00	 	 	 	 	 	 	 	 	 	 	 	 	 	 	 	 	 	 	1581481579	10.95	20.28
12/02/2020 04:26:20	120220	12022020	042620	195.94	13.361153	-57.008723	196.04	0.050	0.170	1.410	195.94	-1.20	1.90	 	 	 	 	 	 	 	 	 	 	 	 	 	 	 	 	 	 	1581481580	10.94	20.26
12/02/2020 04:26:21	120220	12022020	042621	195.94	13.361100	-57.008740	196.03	0.280	-0.520	1.560	195.94	-1.90	2.10	 	 	 	 	 	 	 	 	 	 	 	 	 	 	 	 	 	 	1581481581	11.21	20.76
12/02/2020 04:26:22	120220	12022020	042622	195.90	13.361048	-57.008755	196.01	0.390	-1.040	1.750	195.90	-2.40	2.30	 	 	 	 	 	 	 	 	 	 	 	 	 	 	 	 	 	 	1581481582	11.74	21.74
12/02/2020 04:26:23	120220	12022020	042623	195.91	13.361000	-57.008773	196.03	0.110	-0.930	2.050	195.91	-2.30	2.60	 	 	 	 	 	 	 	 	 	 	 	 	 	 	 	 	 	 	1581481583	11.74	21.74
12/02/2020 04:26:24	120220	12022020	042624	195.82	13.360953	-57.008792	195.92	-0.370	-0.600	2.270	195.82	-1.90	2.80	 	 	 	 	 	 	 	 	 	 	 	 	 	 	 	 	 	 	1581481584	11.06	20.48
12/02/2020 04:26:25	120220	12022020	042625	195.59	13.360903	-57.008810	195.70	-0.650	-0.550	2.370	195.59	-1.90	2.90	 	 	 	 	 	 	 	 	 	 	 	 	 	 	 	 	 	 	1581481585	10.81	20.02
12/02/2020 04:26:26	120220	12022020	042626	195.49	13.360853	-57.008828	195.61	-0.600	-0.540	2.220	195.49	-1.90	2.70	 	 	 	 	 	 	 	 	 	 	 	 	 	 	 	 	 	 	1581481586	11.24	20.82
12/02/2020 04:26:27	120220	12022020	042627	195.56	13.360803	-57.008843	195.69	-0.350	-0.270	1.770	195.56	-1.60	2.30	 	 	 	 	 	 	 	 	 	 	 	 	 	 	 	 	 	 	1581481587	11.49	21.28
12/02/2020 04:26:28	120220	12022020	042628	195.65	13.360753	-57.008857	195.80	-0.090	0.030	1.380	195.65	-1.30	1.90	 	 	 	 	 	 	 	 	 	 	 	 	 	 	 	 	 	 	1581481588	11.24	20.82
12/02/2020 04:26:29	120220	12022020	042629	195.81	13.360703	-57.008872	195.97	0.030	0.090	1.160	195.81	-1.30	1.70	 	 	 	 	 	 	 	 	 	 	 	 	 	 	 	 	 	 	1581481589	11.17	20.69
12/02/2020 04:26:30	120220	12022020	042630	196.07	13.360652	-57.008887	196.25	0.040	0.090	1.030	196.07	-1.30	1.50	 	 	 	 	 	 	 	 	 	 	 	 	 	 	 	 	 	 	1581481590	11.38	21.08
12/02/2020 04:26:31	120220	12022020	042631	196.43	13.360602	-57.008902	196.59	0.040	0.240	0.980	196.43	-1.10	1.50	 	 	 	 	 	 	 	 	 	 	 	 	 	 	 	 	 	 	1581481591	11.43	21.17
12/02/2020 04:26:32	120220	12022020	042632	196.68	13.360553	-57.008917	196.81	0.170	0.300	1.100	196.68	-1.00	1.60	 	 	 	 	 	 	 	 	 	 	 	 	 	 	 	 	 	 	1581481592	11.10	20.56
12/02/2020 04:26:33	120220	12022020	042633	196.66	13.360503	-57.008932	196.79	0.370	0.060	1.460	196.66	-1.30	2.00	 	 	 	 	 	 	 	 	 	 	 	 	 	 	 	 	 	 	1581481593	10.95	20.28
12/02/2020 04:26:34	120220	12022020	042634	196.53	13.360453	-57.008948	196.66	0.440	-0.400	1.900	196.53	-1.80	2.40	 	 	 	 	 	 	 	 	 	 	 	 	 	 	 	 	 	 	1581481594	11.15	20.65
12/02/2020 04:26:35	120220	12022020	042635	196.29	13.360403	-57.008965	196.42	0.400	-0.870	2.370	196.29	-2.20	2.90	 	 	 	 	 	 	 	 	 	 	 	 	 	 	 	 	 	 	1581481595	11.30	20.93
12/02/2020 04:26:36	120220	12022020	042636	195.79	13.360353	-57.008985	195.91	0.380	-1.280	2.800	195.79	-2.60	3.30	 	 	 	 	 	 	 	 	 	 	 	 	 	 	 	 	 	 	1581481596	11.33	20.98
12/02/2020 04:26:37	120220	12022020	042637	195.07	13.360303	-57.009003	195.18	0.390	-1.490	2.990	195.07	-2.80	3.50	 	 	 	 	 	 	 	 	 	 	 	 	 	 	 	 	 	 	1581481597	11.44	21.19
12/02/2020 04:26:38	120220	12022020	042638	194.50	13.360253	-57.009018	194.62	0.240	-1.080	2.820	194.50	-2.40	3.30	 	 	 	 	 	 	 	 	 	 	 	 	 	 	 	 	 	 	1581481598	11.60	21.48
12/02/2020 04:26:39	120220	12022020	042639	194.42	13.360205	-57.009033	194.55	-0.220	-0.210	2.310	194.42	-1.50	2.80	 	 	 	 	 	 	 	 	 	 	 	 	 	 	 	 	 	 	1581481599	11.26	20.85
12/02/2020 04:26:40	120220	12022020	042640	194.80	13.360157	-57.009050	194.95	-0.850	0.420	1.840	194.80	-0.90	2.30	 	 	 	 	 	 	 	 	 	 	 	 	 	 	 	 	 	 	1581481600	10.76	19.93
12/02/2020 04:26:41	120220	12022020	042641	195.35	13.360108	-57.009068	195.50	-1.280	0.460	1.700	195.35	-0.90	2.20	 	 	 	 	 	 	 	 	 	 	 	 	 	 	 	 	 	 	1581481601	10.86	20.11
12/02/2020 04:26:42	120220	12022020	042642	195.84	13.360057	-57.009090	195.99	-1.110	0.110	1.730	195.84	-1.20	2.20	 	 	 	 	 	 	 	 	 	 	 	 	 	 	 	 	 	 	1581481602	11.39	21.09
12/02/2020 04:26:43	120220	12022020	042643	196.27	13.360005	-57.009105	196.39	-0.360	-0.180	1.350	196.27	-1.50	1.80	 	 	 	 	 	 	 	 	 	 	 	 	 	 	 	 	 	 	1581481603	11.77	21.80
12/02/2020 04:26:44	120220	12022020	042644	196.50	13.359953	-57.009117	196.64	0.540	-0.270	0.880	196.53	-1.60	1.40	 	 	 	 	 	 	 	 	 	 	 	 	 	 	 	 	 	 	1581481604	11.66	21.59
12/02/2020 04:26:45	120220	12022020	042645	196.50	13.359902	-57.009127	196.57	1.040	-0.410	0.940	196.50	-1.80	1.50	 	 	 	 	 	 	 	 	 	 	 	 	 	 	 	 	 	 	1581481605	11.41	21.13
12/02/2020 04:26:46	120220	12022020	042646	196.17	13.359848	-57.009140	196.23	0.910	-0.640	1.240	196.17	-2.00	1.80	 	 	 	 	 	 	 	 	 	 	 	 	 	 	 	 	 	 	1581481606	11.43	21.17
12/02/2020 04:26:47	120220	12022020	042647	195.77	13.359797	-57.009157	195.85	0.370	-0.690	1.650	195.77	-2.00	2.20	 	 	 	 	 	 	 	 	 	 	 	 	 	 	 	 	 	 	1581481607	11.58	21.45
12/02/2020 04:26:48	120220	12022020	042648	195.52	13.359748	-57.009175	195.60	-0.150	-0.290	2.070	195.52	-1.60	2.60	 	 	 	 	 	 	 	 	 	 	 	 	 	 	 	 	 	 	1581481608	11.52	21.34
12/02/2020 04:26:49	120220	12022020	042649	195.52	13.359702	-57.009192	195.62	-0.420	0.280	2.200	195.52	-1.10	2.70	 	 	 	 	 	 	 	 	 	 	 	 	 	 	 	 	 	 	1581481609	11.15	20.65
12/02/2020 04:26:50	120220	12022020	042650	195.66	13.359653	-57.009210	195.76	-0.520	0.370	2.150	195.66	-1.00	2.60	 	 	 	 	 	 	 	 	 	 	 	 	 	 	 	 	 	 	1581481610	10.81	20.02
12/02/2020 04:26:51	120220	12022020	042651	195.66	13.359602	-57.009230	195.77	-0.410	-0.200	2.250	195.66	-1.60	2.70	 	 	 	 	 	 	 	 	 	 	 	 	 	 	 	 	 	 	1581481611	11.10	20.56
12/02/2020 04:26:52	120220	12022020	042652	195.55	13.359550	-57.009252	195.67	-0.100	-0.870	2.270	195.55	-2.20	2.70	 	 	 	 	 	 	 	 	 	 	 	 	 	 	 	 	 	 	1581481612	11.80	21.85
12/02/2020 04:26:53	120220	12022020	042653	195.51	13.359500	-57.009267	195.62	0.230	-0.890	2.050	195.51	-2.20	2.50	 	 	 	 	 	 	 	 	 	 	 	 	 	 	 	 	 	 	1581481613	12.02	22.26
12/02/2020 04:26:54	120220	12022020	042654	195.58	13.359452	-57.009282	195.69	0.350	-0.400	1.740	195.58	-1.70	2.20	 	 	 	 	 	 	 	 	 	 	 	 	 	 	 	 	 	 	1581481614	11.34	21.00
12/02/2020 04:26:55	120220	12022020	042655	195.79	13.359403	-57.009293	195.90	0.270	-0.070	1.280	195.79	-1.40	1.80	 	 	 	 	 	 	 	 	 	 	 	 	 	 	 	 	 	 	1581481615	10.68	19.78
12/02/2020 04:26:56	120220	12022020	042656	195.98	13.359353	-57.009308	196.13	0.160	-0.150	0.990	196.02	-1.50	1.50	 	 	 	 	 	 	 	 	 	 	 	 	 	 	 	 	 	 	1581481616	10.77	19.95
12/02/2020 04:26:57	120220	12022020	042657	196.17	13.359302	-57.009322	196.28	0.100	-0.330	1.100	196.17	-1.70	1.60	 	 	 	 	 	 	 	 	 	 	 	 	 	 	 	 	 	 	1581481617	11.22	20.78
12/02/2020 04:26:58	120220	12022020	042658	196.21	13.359252	-57.009338	196.32	0.030	-0.380	1.500	196.21	-1.70	2.00	 	 	 	 	 	 	 	 	 	 	 	 	 	 	 	 	 	 	1581481618	11.42	21.15
12/02/2020 04:26:59	120220	12022020	042659	196.18	13.359202	-57.009355	196.30	-0.110	-0.350	1.900	196.18	-1.70	2.40	 	 	 	 	 	 	 	 	 	 	 	 	 	 	 	 	 	 	1581481619	11.33	20.98
12/02/2020 04:27:00	120220	12022020	042700	196.16	13.359152	-57.009373	196.29	-0.240	-0.380	2.030	196.16	-1.70	2.50	 	 	 	 	 	 	 	 	 	 	 	 	 	 	 	 	 	 	1581481620	11.28	20.89
12/02/2020 04:27:01	120220	12022020	042701	196.09	13.359100	-57.009392	196.21	-0.220	-0.550	2.010	196.09	-1.90	2.50	1016.80	25.90	25.90	21.60	21.60	-1.0	77.0	77.0	400.0	25.5	262.00	8.30	65.00	10.80	15	7825.0	27.2	27.2	1581481621	11.40	21.11
12/02/2020 04:27:02	120220	12022020	042702	195.99	13.359048	-57.009408	196.11	-0.000	-0.700	1.770	195.99	-2.10	2.30	 	 	 	 	 	 	 	 	 	 	 	 	 	 	 	 	 	 	1581481622	11.64	21.56
12/02/2020 04:27:03	120220	12022020	042703	195.76	13.358995	-57.009423	195.85	0.290	-0.840	1.630	195.76	-2.20	2.10	 	 	 	 	 	 	 	 	 	 	 	 	 	 	 	 	 	 	1581481623	11.73	21.72
12/02/2020 04:27:04	120220	12022020	042704	195.47	13.358942	-57.009438	195.58	0.390	-0.820	1.760	195.47	-2.20	2.30	 	 	 	 	 	 	 	 	 	 	 	 	 	 	 	 	 	 	1581481624	11.85	21.95
12/02/2020 04:27:05	120220	12022020	042705	195.38	13.358892	-57.009455	195.50	0.040	-0.300	2.030	195.38	-1.60	2.50	 	 	 	 	 	 	 	 	 	 	 	 	 	 	 	 	 	 	1581481625	11.90	22.04
12/02/2020 04:27:06	120220	12022020	042706	195.62	13.358845	-57.009473	195.77	-0.600	0.500	2.190	195.62	-0.80	2.70	 	 	 	 	 	 	 	 	 	 	 	 	 	 	 	 	 	 	1581481626	11.39	21.09
12/02/2020 04:27:07	120220	12022020	042707	196.13	13.358798	-57.009492	196.28	-1.030	1.030	2.110	196.13	-0.30	2.60	 	 	 	 	 	 	 	 	 	 	 	 	 	 	 	 	 	 	1581481627	10.85	20.09
12/02/2020 04:27:08	120220	12022020	042708	196.62	13.358748	-57.009510	196.74	-0.870	0.840	1.890	196.62	-0.50	2.40	 	 	 	 	 	 	 	 	 	 	 	 	 	 	 	 	 	 	1581481628	10.77	19.95
12/02/2020 04:27:09	120220	12022020	042709	196.81	13.358697	-57.009527	196.91	-0.210	0.010	1.740	196.81	-1.40	2.20	 	 	 	 	 	 	 	 	 	 	 	 	 	 	 	 	 	 	1581481629	11.22	20.78
12/02/2020 04:27:10	120220	12022020	042710	196.71	13.358643	-57.009545	196.80	0.540	-0.960	1.620	196.71	-2.40	2.10	 	 	 	 	 	 	 	 	 	 	 	 	 	 	 	 	 	 	1581481630	11.84	21.93
12/02/2020 04:27:11	120220	12022020	042711	196.28	13.358590	-57.009560	196.36	1.060	-1.390	1.510	196.28	-2.70	2.00	 	 	 	 	 	 	 	 	 	 	 	 	 	 	 	 	 	 	1581481631	12.04	22.30
12/02/2020 04:27:12	120220	12022020	042712	195.90	13.358542	-57.009572	195.99	1.140	-0.830	1.280	195.90	-2.20	1.80	 	 	 	 	 	 	 	 	 	 	 	 	 	 	 	 	 	 	1581481632	11.73	21.72
12/02/2020 04:27:13	120220	12022020	042713	195.92	13.358495	-57.009580	196.01	0.740	0.190	0.800	195.92	-1.20	1.30	 	 	 	 	 	 	 	 	 	 	 	 	 	 	 	 	 	 	1581481633	10.86	20.11
12/02/2020 04:27:14	120220	12022020	042714	196.22	13.358447	-57.009593	196.32	0.040	0.560	0.710	196.22	-0.80	1.20	 	 	 	 	 	 	 	 	 	 	 	 	 	 	 	 	 	 	1581481634	10.21	18.91
12/02/2020 04:27:15	120220	12022020	042715	196.49	13.358397	-57.009615	196.57	-0.540	-0.180	1.420	196.49	-1.60	2.00	 	 	 	 	 	 	 	 	 	 	 	 	 	 	 	 	 	 	1581481635	10.61	19.65
12/02/2020 04:27:16	120220	12022020	042716	196.30	13.358343	-57.009642	196.39	-0.560	-1.450	2.430	196.30	-2.80	2.90	 	 	 	 	 	 	 	 	 	 	 	 	 	 	 	 	 	 	1581481636	11.77	21.80
12/02/2020 04:27:17	120220	12022020	042717	195.69	13.358288	-57.009667	195.77	0.040	-2.170	3.070	195.69	-3.50	3.60	 	 	 	 	 	 	 	 	 	 	 	 	 	 	 	 	 	 	1581481637	12.78	23.67
12/02/2020 04:27:18	120220	12022020	042718	195.13	13.358238	-57.009682	195.25	0.620	-1.530	3.030	195.13	-2.80	3.50	 	 	 	 	 	 	 	 	 	 	 	 	 	 	 	 	 	 	1581481638	12.68	23.48
12/02/2020 04:27:19	120220	12022020	042719	195.32	13.358192	-57.009695	195.49	0.340	0.170	2.600	195.32	-1.10	3.10	 	 	 	 	 	 	 	 	 	 	 	 	 	 	 	 	 	 	1581481639	11.56	21.41
12/02/2020 04:27:20	120220	12022020	042720	195.96	13.358147	-57.009708	196.10	-0.590	1.460	2.130	195.96	0.10	2.60	 	 	 	 	 	 	 	 	 	 	 	 	 	 	 	 	 	 	1581481640	10.18	18.85
12/02/2020 04:27:21	120220	12022020	042721	196.45	13.358098	-57.009727	196.56	-1.190	1.270	1.840	196.45	-0.20	2.30	 	 	 	 	 	 	 	 	 	 	 	 	 	 	 	 	 	 	1581481641	10.03	18.58
12/02/2020 04:27:22	120220	12022020	042722	196.51	13.358043	-57.009747	196.59	-0.760	-0.150	1.750	196.51	-1.60	2.20	 	 	 	 	 	 	 	 	 	 	 	 	 	 	 	 	 	 	1581481642	11.26	20.85
12/02/2020 04:27:23	120220	12022020	042723	196.30	13.357987	-57.009763	196.37	0.130	-1.110	1.740	196.30	-2.50	2.20	 	 	 	 	 	 	 	 	 	 	 	 	 	 	 	 	 	 	1581481643	12.70	23.52
12/02/2020 04:27:24	120220	12022020	042724	196.17	13.357937	-57.009778	196.25	0.540	-0.980	1.550	196.17	-2.30	2.10	 	 	 	 	 	 	 	 	 	 	 	 	 	 	 	 	 	 	1581481644	12.53	23.21
12/02/2020 04:27:25	120220	12022020	042725	196.02	13.357888	-57.009792	196.11	0.280	-0.500	1.390	196.02	-1.90	1.90	 	 	 	 	 	 	 	 	 	 	 	 	 	 	 	 	 	 	1581481645	11.25	20.84
12/02/2020 04:27:26	120220	12022020	042726	195.79	13.357840	-57.009808	195.87	-0.110	-0.280	1.580	195.79	-1.60	2.10	 	 	 	 	 	 	 	 	 	 	 	 	 	 	 	 	 	 	1581481646	10.72	19.85
12/02/2020 04:27:27	120220	12022020	042727	195.54	13.357790	-57.009825	195.62	-0.170	-0.240	1.870	195.54	-1.60	2.40	 	 	 	 	 	 	 	 	 	 	 	 	 	 	 	 	 	 	1581481647	11.05	20.46
12/02/2020 04:27:28	120220	12022020	042728	195.27	13.357738	-57.009843	195.37	-0.010	-0.200	2.210	195.27	-1.60	2.70	 	 	 	 	 	 	 	 	 	 	 	 	 	 	 	 	 	 	1581481648	11.41	21.13
12/02/2020 04:27:29	120220	12022020	042729	195.05	13.357690	-57.009863	195.14	0.090	-0.100	2.620	195.05	-1.50	3.10	 	 	 	 	 	 	 	 	 	 	 	 	 	 	 	 	 	 	1581481649	11.47	21.24
12/02/2020 04:27:30	120220	12022020	042730	194.78	13.357640	-57.009883	194.87	0.110	-0.080	2.990	194.78	-1.40	3.50	 	 	 	 	 	 	 	 	 	 	 	 	 	 	 	 	 	 	1581481650	11.36	21.04
12/02/2020 04:27:31	120220	12022020	042731	194.50	13.357590	-57.009902	194.60	0.220	-0.180	3.010	194.50	-1.50	3.50	 	 	 	 	 	 	 	 	 	 	 	 	 	 	 	 	 	 	1581481651	11.34	21.00
12/02/2020 04:27:32	120220	12022020	042732	194.48	13.357540	-57.009917	194.59	0.410	-0.200	2.570	194.48	-1.60	3.00	 	 	 	 	 	 	 	 	 	 	 	 	 	 	 	 	 	 	1581481652	11.44	21.19
12/02/2020 04:27:33	120220	12022020	042733	194.80	13.357490	-57.009928	194.93	0.520	-0.130	1.950	194.80	-1.50	2.40	 	 	 	 	 	 	 	 	 	 	 	 	 	 	 	 	 	 	1581481653	11.30	20.93
12/02/2020 04:27:34	120220	12022020	042734	195.27	13.357440	-57.009940	195.51	0.440	-0.140	1.380	195.38	-1.50	1.90	 	 	 	 	 	 	 	 	 	 	 	 	 	 	 	 	 	 	1581481654	11.07	20.50
12/02/2020 04:27:35	120220	12022020	042735	195.87	13.357390	-57.009953	195.98	0.200	-0.500	1.420	195.87	-1.90	1.90	 	 	 	 	 	 	 	 	 	 	 	 	 	 	 	 	 	 	1581481655	10.99	20.35
12/02/2020 04:27:36	120220	12022020	042736	195.96	13.357338	-57.009972	196.03	-0.030	-1.220	1.950	195.95	-2.60	2.50	 	 	 	 	 	 	 	 	 	 	 	 	 	 	 	 	 	 	1581481656	11.25	20.84
12/02/2020 04:27:37	120220	12022020	042737	195.73	13.357285	-57.009992	195.83	-0.140	-1.600	2.450	195.73	-3.00	3.00	 	 	 	 	 	 	 	 	 	 	 	 	 	 	 	 	 	 	1581481657	11.84	21.93
12/02/2020 04:27:38	120220	12022020	042738	195.49	13.357235	-57.010008	195.59	-0.260	-1.070	2.710	195.49	-2.40	3.20	 	 	 	 	 	 	 	 	 	 	 	 	 	 	 	 	 	 	1581481658	11.94	22.11
12/02/2020 04:27:39	120220	12022020	042739	195.40	13.357188	-57.010023	195.50	-0.510	-0.110	2.470	195.40	-1.40	2.90	 	 	 	 	 	 	 	 	 	 	 	 	 	 	 	 	 	 	1581481659	11.24	20.82
12/02/2020 04:27:40	120220	12022020	042740	195.36	13.357138	-57.010037	195.45	-0.680	0.400	2.050	195.36	-1.00	2.50	 	 	 	 	 	 	 	 	 	 	 	 	 	 	 	 	 	 	1581481660	10.73	19.87
12/02/2020 04:27:41	120220	12022020	042741	195.29	13.357087	-57.010053	195.38	-0.510	0.340	1.750	195.29	-1.00	2.20	 	 	 	 	 	 	 	 	 	 	 	 	 	 	 	 	 	 	1581481661	11.14	20.63
12/02/2020 04:27:42	120220	12022020	042742	195.34	13.357033	-57.010068	195.43	-0.120	0.230	1.420	195.34	-1.10	1.90	 	 	 	 	 	 	 	 	 	 	 	 	 	 	 	 	 	 	1581481662	11.77	21.80
12/02/2020 04:27:43	120220	12022020	042743	195.33	13.356982	-57.010082	195.41	0.190	0.150	1.290	195.33	-1.20	1.80	 	 	 	 	 	 	 	 	 	 	 	 	 	 	 	 	 	 	1581481663	11.74	21.74
12/02/2020 04:27:44	120220	12022020	042744	195.15	13.356930	-57.010098	195.23	0.360	-0.110	1.540	195.15	-1.50	2.00	 	 	 	 	 	 	 	 	 	 	 	 	 	 	 	 	 	 	1581481664	11.46	21.22
12/02/2020 04:27:45	120220	12022020	042745	194.95	13.356878	-57.010113	195.06	0.500	-0.530	1.700	194.95	-1.90	2.20	 	 	 	 	 	 	 	 	 	 	 	 	 	 	 	 	 	 	1581481665	11.50	21.30
12/02/2020 04:27:46	120220	12022020	042746	195.01	13.356827	-57.010128	195.19	0.520	-0.720	1.640	195.06	-2.10	2.10	 	 	 	 	 	 	 	 	 	 	 	 	 	 	 	 	 	 	1581481666	11.72	21.71
12/02/2020 04:27:47	120220	12022020	042747	195.42	13.356777	-57.010143	195.56	0.240	-0.590	1.630	195.42	-1.90	2.10	 	 	 	 	 	 	 	 	 	 	 	 	 	 	 	 	 	 	1581481667	11.54	21.37
12/02/2020 04:27:48	120220	12022020	042748	195.76	13.356728	-57.010160	195.90	-0.260	-0.370	1.700	195.76	-1.70	2.20	 	 	 	 	 	 	 	 	 	 	 	 	 	 	 	 	 	 	1581481668	11.13	20.61
12/02/2020 04:27:49	120220	12022020	042749	196.07	13.356680	-57.010178	196.19	-0.690	-0.220	1.850	196.07	-1.60	2.30	 	 	 	 	 	 	 	 	 	 	 	 	 	 	 	 	 	 	1581481669	10.98	20.33
12/02/2020 04:27:50	120220	12022020	042750	196.11	13.356630	-57.010197	196.22	-0.720	-0.420	2.100	196.11	-1.80	2.60	 	 	 	 	 	 	 	 	 	 	 	 	 	 	 	 	 	 	1581481670	11.03	20.43
12/02/2020 04:27:51	120220	12022020	042751	195.77	13.356578	-57.010217	195.87	-0.280	-0.950	2.400	195.77	-2.30	2.90	 	 	 	 	 	 	 	 	 	 	 	 	 	 	 	 	 	 	1581481671	11.45	21.21
12/02/2020 04:27:52	120220	12022020	042752	195.45	13.356525	-57.010235	195.56	0.250	-0.980	2.360	195.45	-2.30	2.80	 	 	 	 	 	 	 	 	 	 	 	 	 	 	 	 	 	 	1581481672	12.09	22.39
12/02/2020 04:27:53	120220	12022020	042753	195.44	13.356477	-57.010247	195.56	0.440	-0.200	1.880	195.44	-1.50	2.40	 	 	 	 	 	 	 	 	 	 	 	 	 	 	 	 	 	 	1581481673	11.89	22.02
12/02/2020 04:27:54	120220	12022020	042754	195.58	13.356428	-57.010258	195.68	0.350	0.640	1.280	195.58	-0.70	1.80	 	 	 	 	 	 	 	 	 	 	 	 	 	 	 	 	 	 	1581481674	10.96	20.30
12/02/2020 04:27:55	120220	12022020	042755	195.62	13.356377	-57.010268	195.72	0.320	0.740	1.010	195.62	-0.60	1.50	 	 	 	 	 	 	 	 	 	 	 	 	 	 	 	 	 	 	1581481675	10.62	19.67
12/02/2020 04:27:56	120220	12022020	042756	195.74	13.356323	-57.010282	195.86	0.310	0.290	1.160	195.74	-1.10	1.70	 	 	 	 	 	 	 	 	 	 	 	 	 	 	 	 	 	 	1581481676	11.24	20.82
12/02/2020 04:27:57	120220	12022020	042757	195.96	13.356272	-57.010298	196.10	0.090	-0.250	1.720	195.96	-1.60	2.30	 	 	 	 	 	 	 	 	 	 	 	 	 	 	 	 	 	 	1581481677	11.76	21.78
12/02/2020 04:27:58	120220	12022020	042758	196.07	13.356223	-57.010320	196.21	-0.200	-0.700	2.340	196.07	-2.10	2.90	 	 	 	 	 	 	 	 	 	 	 	 	 	 	 	 	 	 	1581481678	11.62	21.52
12/02/2020 04:27:59	120220	12022020	042759	195.98	13.356173	-57.010342	196.11	-0.220	-1.070	2.600	195.98	-2.40	3.10	 	 	 	 	 	 	 	 	 	 	 	 	 	 	 	 	 	 	1581481679	11.51	21.32
12/02/2020 04:28:00	120220	12022020	042800	195.60	13.356123	-57.010358	195.71	0.160	-1.300	2.570	195.60	-2.60	3.10	 	 	 	 	 	 	 	 	 	 	 	 	 	 	 	 	 	 	1581481680	11.45	21.21
12/02/2020 04:28:01	120220	12022020	042801	195.17	13.356070	-57.010372	195.29	0.480	-1.240	2.270	195.17	-2.60	2.80	1016.80	25.80	25.90	21.50	21.50	-1.0	76.0	76.0	409.0	25.5	260.00	9.00	66.00	11.50	15	7951.0	27.2	27.2	1581481681	11.53	21.35
12/02/2020 04:28:02	120220	12022020	042802	195.07	13.356020	-57.010385	195.21	0.230	-0.740	1.890	195.07	-2.10	2.40	 	 	 	 	 	 	 	 	 	 	 	 	 	 	 	 	 	 	1581481682	11.58	21.45
12/02/2020 04:28:03	120220	12022020	042803	195.32	13.355972	-57.010403	195.46	-0.480	-0.040	1.790	195.32	-1.40	2.30	 	 	 	 	 	 	 	 	 	 	 	 	 	 	 	 	 	 	1581481683	11.24	20.82
12/02/2020 04:28:04	120220	12022020	042804	195.68	13.355923	-57.010422	195.81	-1.000	0.390	1.790	195.68	-1.00	2.30	 	 	 	 	 	 	 	 	 	 	 	 	 	 	 	 	 	 	1581481684	10.94	20.26
12/02/2020 04:28:05	120220	12022020	042805	195.88	13.355872	-57.010442	196.00	-0.750	0.190	1.820	195.88	-1.20	2.30	 	 	 	 	 	 	 	 	 	 	 	 	 	 	 	 	 	 	1581481685	11.14	20.63
12/02/2020 04:28:06	120220	12022020	042806	196.01	13.355817	-57.010458	196.13	0.060	-0.280	1.770	196.01	-1.60	2.30	 	 	 	 	 	 	 	 	 	 	 	 	 	 	 	 	 	 	1581481686	11.80	21.85
12/02/2020 04:28:07	120220	12022020	042807	196.20	13.355763	-57.010472	196.32	0.600	-0.360	1.660	196.20	-1.70	2.20	 	 	 	 	 	 	 	 	 	 	 	 	 	 	 	 	 	 	1581481687	11.90	22.04
12/02/2020 04:28:08	120220	12022020	042808	196.42	13.355713	-57.010485	196.55	0.420	-0.050	1.480	196.42	-1.40	2.00	 	 	 	 	 	 	 	 	 	 	 	 	 	 	 	 	 	 	1581481688	11.90	22.04
12/02/2020 04:28:09	120220	12022020	042809	196.66	13.355663	-57.010498	196.78	-0.160	0.270	1.300	196.66	-1.10	1.80	 	 	 	 	 	 	 	 	 	 	 	 	 	 	 	 	 	 	1581481689	11.25	20.84
12/02/2020 04:28:10	120220	12022020	042810	196.85	13.355615	-57.010515	196.95	-0.450	0.280	1.150	196.85	-1.10	1.70	 	 	 	 	 	 	 	 	 	 	 	 	 	 	 	 	 	 	1581481690	10.96	20.30
12/02/2020 04:28:11	120220	12022020	042811	196.92	13.355563	-57.010532	197.02	-0.150	-0.130	1.060	196.92	-1.50	1.60	 	 	 	 	 	 	 	 	 	 	 	 	 	 	 	 	 	 	1581481691	11.14	20.63
12/02/2020 04:28:12	120220	12022020	042812	196.89	13.355512	-57.010550	196.95	0.390	-0.700	1.110	196.85	-2.10	1.60	 	 	 	 	 	 	 	 	 	 	 	 	 	 	 	 	 	 	1581481692	11.53	21.35
12/02/2020 04:28:13	120220	12022020	042813	196.49	13.355460	-57.010567	196.57	0.670	-1.110	1.460	196.49	-2.50	2.00	 	 	 	 	 	 	 	 	 	 	 	 	 	 	 	 	 	 	1581481693	11.73	21.72
12/02/2020 04:28:14	120220	12022020	042814	195.84	13.355410	-57.010585	195.93	0.500	-1.120	1.930	195.84	-2.50	2.40	 	 	 	 	 	 	 	 	 	 	 	 	 	 	 	 	 	 	1581481694	11.65	21.58
12/02/2020 04:28:15	120220	12022020	042815	195.35	13.355362	-57.010603	195.46	-0.030	-0.640	2.300	195.35	-2.00	2.80	 	 	 	 	 	 	 	 	 	 	 	 	 	 	 	 	 	 	1581481695	11.43	21.17
12/02/2020 04:28:16	120220	12022020	042816	195.27	13.355315	-57.010623	195.39	-0.530	0.000	2.370	195.27	-1.30	2.90	 	 	 	 	 	 	 	 	 	 	 	 	 	 	 	 	 	 	1581481696	11.06	20.48
12/02/2020 04:28:17	120220	12022020	042817	195.49	13.355267	-57.010642	195.61	-0.560	0.370	1.970	195.49	-1.00	2.40	 	 	 	 	 	 	 	 	 	 	 	 	 	 	 	 	 	 	1581481697	10.87	20.13
12/02/2020 04:28:18	120220	12022020	042818	195.87	13.355217	-57.010658	196.00	-0.130	0.280	1.430	195.87	-1.10	1.90	 	 	 	 	 	 	 	 	 	 	 	 	 	 	 	 	 	 	1581481698	11.07	20.50
12/02/2020 04:28:19	120220	12022020	042819	196.39	13.355165	-57.010672	196.52	0.380	-0.060	1.120	196.39	-1.40	1.60	 	 	 	 	 	 	 	 	 	 	 	 	 	 	 	 	 	 	1581481699	11.47	21.24
12/02/2020 04:28:20	120220	12022020	042820	196.82	13.355112	-57.010687	196.96	0.590	-0.440	1.150	196.82	-1.80	1.70	 	 	 	 	 	 	 	 	 	 	 	 	 	 	 	 	 	 	1581481700	11.66	21.59
12/02/2020 04:28:21	120220	12022020	042821	196.76	13.355060	-57.010703	196.88	0.530	-1.020	1.610	196.76	-2.40	2.10	 	 	 	 	 	 	 	 	 	 	 	 	 	 	 	 	 	 	1581481701	11.55	21.39
12/02/2020 04:28:22	120220	12022020	042822	196.26	13.355007	-57.010722	196.39	0.300	-1.600	2.440	196.26	-3.00	3.00	 	 	 	 	 	 	 	 	 	 	 	 	 	 	 	 	 	 	1581481702	11.79	21.84
12/02/2020 04:28:23	120220	12022020	042823	195.63	13.354955	-57.010743	195.76	-0.070	-1.570	3.290	195.63	-2.90	3.80	 	 	 	 	 	 	 	 	 	 	 	 	 	 	 	 	 	 	1581481703	12.18	22.56
12/02/2020 04:28:24	120220	12022020	042824	195.16	13.354907	-57.010765	195.20	-0.430	-0.750	3.540	195.06	-2.10	4.00	 	 	 	 	 	 	 	 	 	 	 	 	 	 	 	 	 	 	1581481704	12.01	22.24
12/02/2020 04:28:25	120220	12022020	042825	194.75	13.354858	-57.010782	194.90	-0.680	0.440	3.250	194.75	-0.90	3.70	 	 	 	 	 	 	 	 	 	 	 	 	 	 	 	 	 	 	1581481705	11.39	21.09
12/02/2020 04:28:26	120220	12022020	042826	194.83	13.354810	-57.010797	195.06	-0.770	1.370	2.670	194.90	0.00	3.10	 	 	 	 	 	 	 	 	 	 	 	 	 	 	 	 	 	 	1581481706	10.94	20.26
12/02/2020 04:28:27	120220	12022020	042827	195.48	13.354760	-57.010810	195.66	-0.640	1.580	1.780	195.48	0.20	2.30	 	 	 	 	 	 	 	 	 	 	 	 	 	 	 	 	 	 	1581481707	10.86	20.11
12/02/2020 04:28:28	120220	12022020	042828	196.19	13.354707	-57.010825	196.36	-0.240	0.810	1.160	196.19	-0.60	1.70	 	 	 	 	 	 	 	 	 	 	 	 	 	 	 	 	 	 	1581481708	11.17	20.69
12/02/2020 04:28:29	120220	12022020	042829	196.75	13.354653	-57.010842	196.91	0.320	-0.480	1.160	196.75	-1.90	1.70	 	 	 	 	 	 	 	 	 	 	 	 	 	 	 	 	 	 	1581481709	11.77	21.80
12/02/2020 04:28:30	120220	12022020	042830	196.96	13.354600	-57.010858	197.13	0.810	-1.410	1.460	196.96	-2.80	2.00	 	 	 	 	 	 	 	 	 	 	 	 	 	 	 	 	 	 	1581481710	12.15	22.50
12/02/2020 04:28:31	120220	12022020	042831	196.77	13.354552	-57.010875	196.94	1.020	-1.540	1.820	196.77	-2.90	2.30	 	 	 	 	 	 	 	 	 	 	 	 	 	 	 	 	 	 	1581481711	11.76	21.78
12/02/2020 04:28:32	120220	12022020	042832	196.30	13.354505	-57.010888	196.46	0.870	-1.120	2.140	196.30	-2.50	2.70	 	 	 	 	 	 	 	 	 	 	 	 	 	 	 	 	 	 	1581481712	11.00	20.37
12/02/2020 04:28:33	120220	12022020	042833	195.71	13.354457	-57.010905	195.86	0.440	-0.790	2.430	195.71	-2.10	2.90	 	 	 	 	 	 	 	 	 	 	 	 	 	 	 	 	 	 	1581481713	10.59	19.61
12/02/2020 04:28:34	120220	12022020	042834	195.26	13.354405	-57.010922	195.43	-0.080	-0.660	2.550	195.26	-2.00	3.00	 	 	 	 	 	 	 	 	 	 	 	 	 	 	 	 	 	 	1581481714	10.89	20.17
12/02/2020 04:28:35	120220	12022020	042835	195.11	13.354355	-57.010942	195.28	-0.480	-0.520	2.490	195.11	-1.90	3.00	 	 	 	 	 	 	 	 	 	 	 	 	 	 	 	 	 	 	1581481715	11.49	21.28
12/02/2020 04:28:36	120220	12022020	042836	195.13	13.354303	-57.010962	195.33	-0.600	-0.290	2.340	195.15	-1.60	2.80	 	 	 	 	 	 	 	 	 	 	 	 	 	 	 	 	 	 	1581481716	11.72	21.71
12/02/2020 04:28:37	120220	12022020	042837	195.46	13.354252	-57.010980	195.64	-0.530	0.140	1.970	195.46	-1.20	2.50	 	 	 	 	 	 	 	 	 	 	 	 	 	 	 	 	 	 	1581481717	11.80	21.85
12/02/2020 04:28:38	120220	12022020	042838	196.24	13.354203	-57.010995	196.44	-0.500	0.730	1.460	196.24	-0.60	1.90	 	 	 	 	 	 	 	 	 	 	 	 	 	 	 	 	 	 	1581481718	11.59	21.46
12/02/2020 04:28:39	120220	12022020	042839	197.26	13.354155	-57.011010	197.42	-0.580	1.060	0.980	197.26	-0.30	1.50	 	 	 	 	 	 	 	 	 	 	 	 	 	 	 	 	 	 	1581481719	11.13	20.61
12/02/2020 04:28:40	120220	12022020	042840	197.93	13.354105	-57.011027	198.07	-0.470	0.620	0.790	197.93	-0.80	1.30	 	 	 	 	 	 	 	 	 	 	 	 	 	 	 	 	 	 	1581481720	10.88	20.15
12/02/2020 04:28:41	120220	12022020	042841	198.00	13.354052	-57.011043	198.12	0.060	-0.530	1.120	198.00	-1.90	1.60	 	 	 	 	 	 	 	 	 	 	 	 	 	 	 	 	 	 	1581481721	11.27	20.87
12/02/2020 04:28:42	120220	12022020	042842	197.55	13.353998	-57.011062	197.67	0.720	-1.520	1.610	197.55	-2.90	2.10	 	 	 	 	 	 	 	 	 	 	 	 	 	 	 	 	 	 	1581481722	12.00	22.22
12/02/2020 04:28:43	120220	12022020	042843	196.89	13.353947	-57.011077	197.03	1.030	-1.630	1.900	196.89	-3.00	2.40	 	 	 	 	 	 	 	 	 	 	 	 	 	 	 	 	 	 	1581481723	12.11	22.43
12/02/2020 04:28:44	120220	12022020	042844	196.30	13.353898	-57.011090	196.46	0.740	-0.910	2.020	196.30	-2.20	2.50	 	 	 	 	 	 	 	 	 	 	 	 	 	 	 	 	 	 	1581481724	11.43	21.17
12/02/2020 04:28:45	120220	12022020	042845	195.84	13.353853	-57.011105	196.01	0.000	-0.100	2.190	195.84	-1.40	2.70	 	 	 	 	 	 	 	 	 	 	 	 	 	 	 	 	 	 	1581481725	10.65	19.72
12/02/2020 04:28:46	120220	12022020	042846	195.55	13.353805	-57.011125	195.71	-0.690	0.270	2.320	195.55	-1.10	2.80	 	 	 	 	 	 	 	 	 	 	 	 	 	 	 	 	 	 	1581481726	10.53	19.50
12/02/2020 04:28:47	120220	12022020	042847	195.38	13.353755	-57.011148	195.53	-0.890	0.110	2.370	195.38	-1.30	2.90	 	 	 	 	 	 	 	 	 	 	 	 	 	 	 	 	 	 	1581481727	11.05	20.46
12/02/2020 04:28:48	120220	12022020	042848	195.40	13.353705	-57.011170	195.56	-0.510	-0.130	2.270	195.40	-1.50	2.80	 	 	 	 	 	 	 	 	 	 	 	 	 	 	 	 	 	 	1581481728	11.72	21.71
12/02/2020 04:28:49	120220	12022020	042849	195.62	13.353655	-57.011188	195.79	0.090	-0.150	2.000	195.62	-1.50	2.50	 	 	 	 	 	 	 	 	 	 	 	 	 	 	 	 	 	 	1581481729	11.86	21.96
12/02/2020 04:28:50	120220	12022020	042850	195.99	13.353605	-57.011203	196.15	0.480	-0.060	1.600	195.99	-1.40	2.10	 	 	 	 	 	 	 	 	 	 	 	 	 	 	 	 	 	 	1581481730	11.50	21.30
12/02/2020 04:28:51	120220	12022020	042851	196.51	13.353555	-57.011217	196.66	0.530	0.040	1.140	196.51	-1.30	1.60	 	 	 	 	 	 	 	 	 	 	 	 	 	 	 	 	 	 	1581481731	11.21	20.76
12/02/2020 04:28:52	120220	12022020	042852	197.12	13.353505	-57.011228	197.25	0.410	0.090	0.750	197.12	-1.30	1.30	 	 	 	 	 	 	 	 	 	 	 	 	 	 	 	 	 	 	1581481732	11.08	20.52
12/02/2020 04:28:53	120220	12022020	042853	197.47	13.353453	-57.011240	197.59	0.340	-0.270	0.680	197.47	-1.70	1.20	 	 	 	 	 	 	 	 	 	 	 	 	 	 	 	 	 	 	1581481733	10.95	20.28
12/02/2020 04:28:54	120220	12022020	042854	197.37	13.353402	-57.011257	197.49	0.330	-1.060	1.220	197.37	-2.40	1.80	 	 	 	 	 	 	 	 	 	 	 	 	 	 	 	 	 	 	1581481734	11.22	20.78
12/02/2020 04:28:55	120220	12022020	042855	196.90	13.353348	-57.011277	197.05	0.160	-1.720	2.200	196.90	-3.10	2.70	 	 	 	 	 	 	 	 	 	 	 	 	 	 	 	 	 	 	1581481735	11.81	21.87
12/02/2020 04:28:56	120220	12022020	042856	196.13	13.353300	-57.011298	196.27	-0.250	-1.700	3.220	196.13	-3.00	3.70	 	 	 	 	 	 	 	 	 	 	 	 	 	 	 	 	 	 	1581481736	12.00	22.22
12/02/2020 04:28:57	120220	12022020	042857	195.38	13.353252	-57.011320	195.52	-0.710	-0.910	3.720	195.38	-2.20	4.20	 	 	 	 	 	 	 	 	 	 	 	 	 	 	 	 	 	 	1581481737	11.70	21.67
12/02/2020 04:28:58	120220	12022020	042858	194.84	13.353205	-57.011340	194.98	-0.880	0.120	3.660	194.84	-1.20	4.10	 	 	 	 	 	 	 	 	 	 	 	 	 	 	 	 	 	 	1581481738	11.14	20.63
12/02/2020 04:28:59	120220	12022020	042859	194.52	13.353157	-57.011357	194.67	-0.600	0.650	3.320	194.52	-0.70	3.80	 	 	 	 	 	 	 	 	 	 	 	 	 	 	 	 	 	 	1581481739	10.82	20.04
12/02/2020 04:29:00	120220	12022020	042900	194.57	13.353103	-57.011372	194.75	-0.160	0.670	2.730	194.57	-0.70	3.20	 	 	 	 	 	 	 	 	 	 	 	 	 	 	 	 	 	 	1581481740	11.24	20.82
12/02/2020 04:29:01	120220	12022020	042901	194.99	13.353052	-57.011387	195.17	0.080	0.570	2.110	194.99	-0.80	2.60	1016.70	25.90	25.90	21.70	21.60	-1.0	77.0	77.0	417.0	25.5	265.00	7.90	66.00	10.30	15	8093.0	27.2	27.2	1581481741	11.68	21.63
12/02/2020 04:29:02	120220	12022020	042902	195.44	13.353002	-57.011402	195.74	0.130	0.330	1.790	195.55	-1.00	2.30	 	 	 	 	 	 	 	 	 	 	 	 	 	 	 	 	 	 	1581481742	11.51	21.32
12/02/2020 04:29:03	120220	12022020	042903	196.02	13.352952	-57.011417	196.30	0.270	-0.040	1.720	196.12	-1.40	2.20	 	 	 	 	 	 	 	 	 	 	 	 	 	 	 	 	 	 	1581481743	11.30	20.93
12/02/2020 04:29:04	120220	12022020	042904	196.61	13.352902	-57.011433	196.78	0.600	-0.430	1.630	196.61	-1.80	2.10	 	 	 	 	 	 	 	 	 	 	 	 	 	 	 	 	 	 	1581481744	11.24	20.82
12/02/2020 04:29:05	120220	12022020	042905	197.05	13.352852	-57.011445	197.24	0.870	-0.650	1.320	197.05	-2.00	1.80	 	 	 	 	 	 	 	 	 	 	 	 	 	 	 	 	 	 	1581481745	11.23	20.80
12/02/2020 04:29:06	120220	12022020	042906	197.41	13.352803	-57.011457	197.59	0.800	-0.650	1.030	197.41	-2.00	1.60	 	 	 	 	 	 	 	 	 	 	 	 	 	 	 	 	 	 	1581481746	11.08	20.52
12/02/2020 04:29:07	120220	12022020	042907	197.38	13.352753	-57.011472	197.55	0.450	-0.790	1.160	197.38	-2.20	1.70	 	 	 	 	 	 	 	 	 	 	 	 	 	 	 	 	 	 	1581481747	10.83	20.06
12/02/2020 04:29:08	120220	12022020	042908	196.89	13.352702	-57.011488	197.05	0.150	-1.230	1.570	196.89	-2.60	2.10	 	 	 	 	 	 	 	 	 	 	 	 	 	 	 	 	 	 	1581481748	10.98	20.33
12/02/2020 04:29:09	120220	12022020	042909	196.34	13.352650	-57.011507	196.51	-0.040	-1.390	1.830	196.34	-2.70	2.40	 	 	 	 	 	 	 	 	 	 	 	 	 	 	 	 	 	 	1581481749	11.63	21.54
12/02/2020 04:29:10	120220	12022020	042910	195.98	13.352600	-57.011523	196.16	-0.310	-0.830	1.800	195.98	-2.20	2.30	 	 	 	 	 	 	 	 	 	 	 	 	 	 	 	 	 	 	1581481750	11.83	21.91
12/02/2020 04:29:11	120220	12022020	042911	195.90	13.352552	-57.011540	196.07	-0.800	-0.010	1.690	195.90	-1.40	2.20	 	 	 	 	 	 	 	 	 	 	 	 	 	 	 	 	 	 	1581481751	11.28	20.89
12/02/2020 04:29:12	120220	12022020	042912	195.97	13.352503	-57.011560	196.13	-1.280	0.320	1.780	195.97	-1.00	2.30	 	 	 	 	 	 	 	 	 	 	 	 	 	 	 	 	 	 	1581481752	10.90	20.19
12/02/2020 04:29:13	120220	12022020	042913	196.03	13.352453	-57.011583	196.18	-1.310	0.040	1.970	196.03	-1.30	2.50	 	 	 	 	 	 	 	 	 	 	 	 	 	 	 	 	 	 	1581481753	11.32	20.96
12/02/2020 04:29:14	120220	12022020	042914	196.00	13.352400	-57.011607	196.12	-0.690	-0.330	2.120	195.98	-1.70	2.60	 	 	 	 	 	 	 	 	 	 	 	 	 	 	 	 	 	 	1581481754	12.02	22.26
12/02/2020 04:29:15	120220	12022020	042915	195.91	13.352348	-57.011623	196.05	0.260	-0.260	2.030	195.91	-1.60	2.50	 	 	 	 	 	 	 	 	 	 	 	 	 	 	 	 	 	 	1581481755	12.18	22.56
12/02/2020 04:29:16	120220	12022020	042916	195.89	13.352298	-57.011635	196.04	0.930	0.180	1.610	195.90	-1.20	2.10	 	 	 	 	 	 	 	 	 	 	 	 	 	 	 	 	 	 	1581481756	11.67	21.61
12/02/2020 04:29:17	120220	12022020	042917	195.98	13.352248	-57.011643	196.11	0.970	0.470	1.220	195.98	-0.90	1.70	 	 	 	 	 	 	 	 	 	 	 	 	 	 	 	 	 	 	1581481757	11.11	20.58
12/02/2020 04:29:18	120220	12022020	042918	196.20	13.352197	-57.011657	196.34	0.570	0.360	1.080	196.20	-1.00	1.60	 	 	 	 	 	 	 	 	 	 	 	 	 	 	 	 	 	 	1581481758	11.02	20.41
12/02/2020 04:29:19	120220	12022020	042919	196.60	13.352148	-57.011672	196.75	0.130	0.140	1.170	196.60	-1.20	1.70	 	 	 	 	 	 	 	 	 	 	 	 	 	 	 	 	 	 	1581481759	11.21	20.76
12/02/2020 04:29:20	120220	12022020	042920	196.95	13.352100	-57.011690	197.11	-0.050	-0.190	1.570	196.95	-1.60	2.10	 	 	 	 	 	 	 	 	 	 	 	 	 	 	 	 	 	 	1581481760	11.15	20.65
12/02/2020 04:29:21	120220	12022020	042921	196.87	13.352050	-57.011710	197.02	0.060	-0.950	2.200	196.87	-2.30	2.70	 	 	 	 	 	 	 	 	 	 	 	 	 	 	 	 	 	 	1581481761	11.08	20.52
12/02/2020 04:29:22	120220	12022020	042922	196.30	13.351997	-57.011732	196.45	0.280	-1.780	2.880	196.30	-3.10	3.40	 	 	 	 	 	 	 	 	 	 	 	 	 	 	 	 	 	 	1581481762	11.59	21.46
12/02/2020 04:29:23	120220	12022020	042923	195.59	13.351947	-57.011752	195.73	0.310	-1.930	3.250	195.59	-3.30	3.80	 	 	 	 	 	 	 	 	 	 	 	 	 	 	 	 	 	 	1581481763	12.09	22.39
12/02/2020 04:29:24	120220	12022020	042924	194.96	13.351898	-57.011770	195.10	0.040	-1.230	3.200	194.96	-2.50	3.70	 	 	 	 	 	 	 	 	 	 	 	 	 	 	 	 	 	 	1581481764	11.81	21.87
12/02/2020 04:29:25	120220	12022020	042925	194.60	13.351850	-57.011787	194.74	-0.340	-0.110	2.870	194.60	-1.40	3.30	 	 	 	 	 	 	 	 	 	 	 	 	 	 	 	 	 	 	1581481765	11.15	20.65
12/02/2020 04:29:26	120220	12022020	042926	194.61	13.351802	-57.011802	194.75	-0.560	0.720	2.230	194.61	-0.60	2.70	 	 	 	 	 	 	 	 	 	 	 	 	 	 	 	 	 	 	1581481766	10.74	19.89
12/02/2020 04:29:27	120220	12022020	042927	194.88	13.351750	-57.011815	195.03	-0.480	0.790	1.630	194.88	-0.60	2.10	 	 	 	 	 	 	 	 	 	 	 	 	 	 	 	 	 	 	1581481767	10.89	20.17
12/02/2020 04:29:28	120220	12022020	042928	195.20	13.351695	-57.011830	195.35	-0.130	0.150	1.470	195.20	-1.20	2.00	 	 	 	 	 	 	 	 	 	 	 	 	 	 	 	 	 	 	1581481768	11.52	21.34
12/02/2020 04:29:29	120220	12022020	042929	195.52	13.351640	-57.011845	195.75	0.250	-0.490	1.580	195.60	-1.90	2.10	 	 	 	 	 	 	 	 	 	 	 	 	 	 	 	 	 	 	1581481769	12.20	22.59
12/02/2020 04:29:30	120220	12022020	042930	195.84	13.351588	-57.011860	196.01	0.420	-0.650	2.010	195.84	-2.00	2.50	 	 	 	 	 	 	 	 	 	 	 	 	 	 	 	 	 	 	1581481770	12.20	22.59
12/02/2020 04:29:31	120220	12022020	042931	195.96	13.351538	-57.011875	196.15	0.270	-0.380	2.400	195.96	-1.70	2.90	 	 	 	 	 	 	 	 	 	 	 	 	 	 	 	 	 	 	1581481771	11.62	21.52
12/02/2020 04:29:32	120220	12022020	042932	196.13	13.351490	-57.011890	196.31	-0.130	-0.010	2.490	196.13	-1.40	3.00	 	 	 	 	 	 	 	 	 	 	 	 	 	 	 	 	 	 	1581481772	11.09	20.54
12/02/2020 04:29:33	120220	12022020	042933	196.23	13.351442	-57.011907	196.43	-0.420	-0.050	2.470	196.26	-1.40	3.00	 	 	 	 	 	 	 	 	 	 	 	 	 	 	 	 	 	 	1581481773	10.85	20.09
12/02/2020 04:29:34	120220	12022020	042934	196.33	13.351390	-57.011925	196.51	-0.330	-0.460	2.260	196.33	-1.80	2.80	 	 	 	 	 	 	 	 	 	 	 	 	 	 	 	 	 	 	1581481774	11.20	20.74
12/02/2020 04:29:35	120220	12022020	042935	196.36	13.351338	-57.011942	196.54	-0.050	-0.690	2.010	196.36	-2.00	2.50	 	 	 	 	 	 	 	 	 	 	 	 	 	 	 	 	 	 	1581481775	11.69	21.65
12/02/2020 04:29:36	120220	12022020	042936	196.27	13.351288	-57.011957	196.44	0.070	-0.620	1.810	196.27	-2.00	2.30	 	 	 	 	 	 	 	 	 	 	 	 	 	 	 	 	 	 	1581481776	11.61	21.50
12/02/2020 04:29:37	120220	12022020	042937	196.15	13.351238	-57.011975	196.31	-0.030	-0.440	1.560	196.15	-1.80	2.10	 	 	 	 	 	 	 	 	 	 	 	 	 	 	 	 	 	 	1581481777	11.31	20.95
12/02/2020 04:29:38	120220	12022020	042938	196.22	13.351188	-57.011990	196.39	-0.110	-0.210	1.170	196.22	-1.60	1.70	 	 	 	 	 	 	 	 	 	 	 	 	 	 	 	 	 	 	1581481778	11.25	20.84
12/02/2020 04:29:39	120220	12022020	042939	196.35	13.351138	-57.012003	196.52	0.100	-0.050	0.640	196.38	-1.40	1.10	 	 	 	 	 	 	 	 	 	 	 	 	 	 	 	 	 	 	1581481779	11.22	20.78
12/02/2020 04:29:40	120220	12022020	042940	196.47	13.351085	-57.012015	196.61	0.490	-0.100	0.270	196.47	-1.50	0.80	 	 	 	 	 	 	 	 	 	 	 	 	 	 	 	 	 	 	1581481780	11.30	20.93
12/02/2020 04:29:41	120220	12022020	042941	196.45	13.351032	-57.012030	196.58	0.640	-0.380	0.580	196.45	-1.70	1.10	 	 	 	 	 	 	 	 	 	 	 	 	 	 	 	 	 	 	1581481781	11.56	21.41
12/02/2020 04:29:42	120220	12022020	042942	196.21	13.350980	-57.012048	196.35	0.400	-0.800	1.360	196.21	-2.20	1.90	 	 	 	 	 	 	 	 	 	 	 	 	 	 	 	 	 	 	1581481782	11.77	21.80
12/02/2020 04:29:43	120220	12022020	042943	195.73	13.350928	-57.012070	195.87	-0.070	-0.990	2.410	195.73	-2.30	2.90	 	 	 	 	 	 	 	 	 	 	 	 	 	 	 	 	 	 	1581481783	11.97	22.17
12/02/2020 04:29:44	120220	12022020	042944	195.25	13.350880	-57.012093	195.40	-0.510	-0.570	3.190	195.25	-1.90	3.70	 	 	 	 	 	 	 	 	 	 	 	 	 	 	 	 	 	 	1581481784	11.97	22.17
12/02/2020 04:29:45	120220	12022020	042945	195.16	13.350833	-57.012112	195.32	-0.840	0.390	3.230	195.16	-0.90	3.70	 	 	 	 	 	 	 	 	 	 	 	 	 	 	 	 	 	 	1581481785	11.52	21.34
12/02/2020 04:29:46	120220	12022020	042946	195.45	13.350787	-57.012130	195.59	-0.930	1.030	2.790	195.45	-0.30	3.30	 	 	 	 	 	 	 	 	 	 	 	 	 	 	 	 	 	 	1581481786	10.72	19.85
12/02/2020 04:29:47	120220	12022020	042947	195.82	13.350737	-57.012147	195.95	-0.590	0.640	2.070	195.82	-0.70	2.50	 	 	 	 	 	 	 	 	 	 	 	 	 	 	 	 	 	 	1581481787	10.58	19.59
12/02/2020 04:29:48	120220	12022020	042948	196.16	13.350682	-57.012162	196.26	0.180	-0.370	1.200	196.16	-1.80	1.70	 	 	 	 	 	 	 	 	 	 	 	 	 	 	 	 	 	 	1581481788	11.41	21.13
12/02/2020 04:29:49	120220	12022020	042949	196.51	13.350628	-57.012172	196.63	0.920	-0.990	0.370	196.51	-2.40	0.90	 	 	 	 	 	 	 	 	 	 	 	 	 	 	 	 	 	 	1581481789	12.11	22.43
12/02/2020 04:29:50	120220	12022020	042950	196.82	13.350577	-57.012182	196.94	1.090	-0.990	0.080	196.82	-2.30	0.60	 	 	 	 	 	 	 	 	 	 	 	 	 	 	 	 	 	 	1581481790	11.86	21.96
12/02/2020 04:29:51	120220	12022020	042951	196.79	13.350528	-57.012195	196.90	0.650	-0.940	0.510	196.79	-2.30	1.00	 	 	 	 	 	 	 	 	 	 	 	 	 	 	 	 	 	 	1581481791	11.09	20.54
12/02/2020 04:29:52	120220	12022020	042952	196.52	13.350477	-57.012213	196.56	0.030	-1.150	1.440	196.44	-2.50	2.00	 	 	 	 	 	 	 	 	 	 	 	 	 	 	 	 	 	 	1581481792	11.03	20.43
12/02/2020 04:29:53	120220	12022020	042953	195.95	13.350427	-57.012237	196.09	-0.340	-1.140	2.350	195.95	-2.50	2.90	 	 	 	 	 	 	 	 	 	 	 	 	 	 	 	 	 	 	1581481793	11.63	21.54
12/02/2020 04:29:54	120220	12022020	042954	195.69	13.350377	-57.012257	195.86	-0.450	-0.410	2.630	195.69	-1.70	3.10	 	 	 	 	 	 	 	 	 	 	 	 	 	 	 	 	 	 	1581481794	11.94	22.11
12/02/2020 04:29:55	120220	12022020	042955	195.73	13.350330	-57.012273	195.90	-0.560	0.480	2.520	195.73	-0.80	3.00	 	 	 	 	 	 	 	 	 	 	 	 	 	 	 	 	 	 	1581481795	11.31	20.95
12/02/2020 04:29:56	120220	12022020	042956	195.78	13.350280	-57.012292	195.93	-0.670	0.650	2.440	195.78	-0.70	2.90	 	 	 	 	 	 	 	 	 	 	 	 	 	 	 	 	 	 	1581481796	10.86	20.11
12/02/2020 04:29:57	120220	12022020	042957	195.54	13.350227	-57.012312	195.67	-0.530	0.010	2.470	195.54	-1.40	3.00	 	 	 	 	 	 	 	 	 	 	 	 	 	 	 	 	 	 	1581481797	11.37	21.06
12/02/2020 04:29:58	120220	12022020	042958	195.09	13.350172	-57.012332	195.23	-0.080	-0.610	2.550	195.09	-2.00	3.00	 	 	 	 	 	 	 	 	 	 	 	 	 	 	 	 	 	 	1581481798	12.25	22.69
12/02/2020 04:29:59	120220	12022020	042959	194.77	13.350120	-57.012348	194.93	0.400	-0.480	2.520	194.77	-1.80	3.00	 	 	 	 	 	 	 	 	 	 	 	 	 	 	 	 	 	 	1581481799	12.39	22.95
12/02/2020 04:30:00	120220	12022020	043000	194.92	13.350073	-57.012360	195.10	0.590	0.290	2.020	194.92	-1.00	2.50	 	 	 	 	 	 	 	 	 	 	 	 	 	 	 	 	 	 	1581481800	11.62	21.52
12/02/2020 04:30:01	120220	12022020	043001	195.65	13.350025	-57.012370	195.85	0.360	0.920	1.380	195.65	-0.40	1.90	1016.70	25.90	25.90	21.70	21.70	-1.0	77.0	77.0	421.0	25.5	266.00	8.30	68.00	10.50	15	7777.0	27.1	27.2	1581481801	10.67	19.76
12/02/2020 04:30:02	120220	12022020	043002	196.47	13.349977	-57.012383	196.65	0.010	0.680	1.270	196.47	-0.70	1.80	 	 	 	 	 	 	 	 	 	 	 	 	 	 	 	 	 	 	1581481802	10.31	19.09
12/02/2020 04:30:03	120220	12022020	043003	196.88	13.349925	-57.012400	197.11	-0.090	-0.360	1.560	196.94	-1.80	2.10	 	 	 	 	 	 	 	 	 	 	 	 	 	 	 	 	 	 	1581481803	10.80	20.00
12/02/2020 04:30:04	120220	12022020	043004	196.99	13.349873	-57.012420	197.15	0.120	-1.550	1.940	196.98	-2.90	2.40	 	 	 	 	 	 	 	 	 	 	 	 	 	 	 	 	 	 	1581481804	11.58	21.45
12/02/2020 04:30:05	120220	12022020	043005	196.84	13.349822	-57.012438	197.02	0.400	-2.030	2.110	196.84	-3.40	2.60	 	 	 	 	 	 	 	 	 	 	 	 	 	 	 	 	 	 	1581481805	12.01	22.24
12/02/2020 04:30:06	120220	12022020	043006	196.63	13.349773	-57.012452	196.81	0.510	-1.590	1.940	196.63	-2.90	2.40	 	 	 	 	 	 	 	 	 	 	 	 	 	 	 	 	 	 	1581481806	11.61	21.50
12/02/2020 04:30:07	120220	12022020	043007	196.28	13.349725	-57.012465	196.44	0.390	-0.870	1.690	196.28	-2.20	2.20	 	 	 	 	 	 	 	 	 	 	 	 	 	 	 	 	 	 	1581481807	10.88	20.15
12/02/2020 04:30:08	120220	12022020	043008	195.98	13.349675	-57.012480	196.15	0.030	-0.270	1.560	195.98	-1.60	2.10	 	 	 	 	 	 	 	 	 	 	 	 	 	 	 	 	 	 	1581481808	10.83	20.06
12/02/2020 04:30:09	120220	12022020	043009	195.95	13.349623	-57.012497	196.12	-0.410	0.100	1.600	195.95	-1.20	2.10	 	 	 	 	 	 	 	 	 	 	 	 	 	 	 	 	 	 	1581481809	11.19	20.72
12/02/2020 04:30:10	120220	12022020	043010	196.00	13.349573	-57.012517	196.17	-0.730	0.240	1.870	196.00	-1.10	2.40	 	 	 	 	 	 	 	 	 	 	 	 	 	 	 	 	 	 	1581481810	11.53	21.35
12/02/2020 04:30:11	120220	12022020	043011	195.94	13.349522	-57.012538	196.10	-0.690	0.180	2.220	195.94	-1.20	2.70	 	 	 	 	 	 	 	 	 	 	 	 	 	 	 	 	 	 	1581481811	11.77	21.80
12/02/2020 04:30:12	120220	12022020	043012	195.90	13.349470	-57.012558	196.08	-0.320	0.180	2.150	195.90	-1.20	2.60	 	 	 	 	 	 	 	 	 	 	 	 	 	 	 	 	 	 	1581481812	11.96	22.15
12/02/2020 04:30:13	120220	12022020	043013	195.89	13.349418	-57.012572	196.05	0.140	0.230	1.840	195.89	-1.10	2.30	 	 	 	 	 	 	 	 	 	 	 	 	 	 	 	 	 	 	1581481813	11.77	21.80
12/02/2020 04:30:14	120220	12022020	043014	195.85	13.349367	-57.012585	196.03	0.340	0.070	1.640	195.85	-1.30	2.10	 	 	 	 	 	 	 	 	 	 	 	 	 	 	 	 	 	 	1581481814	11.49	21.28
12/02/2020 04:30:15	120220	12022020	043015	196.01	13.349315	-57.012600	196.21	0.090	-0.170	1.720	196.01	-1.50	2.20	 	 	 	 	 	 	 	 	 	 	 	 	 	 	 	 	 	 	1581481815	11.53	21.35
12/02/2020 04:30:16	120220	12022020	043016	196.46	13.349268	-57.012620	196.67	-0.370	-0.180	2.070	196.46	-1.50	2.60	 	 	 	 	 	 	 	 	 	 	 	 	 	 	 	 	 	 	1581481816	11.46	21.22
12/02/2020 04:30:17	120220	12022020	043017	197.01	13.349223	-57.012640	197.22	-0.550	0.030	2.060	197.01	-1.30	2.50	 	 	 	 	 	 	 	 	 	 	 	 	 	 	 	 	 	 	1581481817	11.08	20.52
12/02/2020 04:30:18	120220	12022020	043018	197.33	13.349175	-57.012657	197.51	-0.090	-0.060	1.650	197.33	-1.40	2.10	 	 	 	 	 	 	 	 	 	 	 	 	 	 	 	 	 	 	1581481818	10.62	19.67
12/02/2020 04:30:19	120220	12022020	043019	197.34	13.349123	-57.012670	197.50	0.750	-0.670	1.300	197.34	-2.10	1.80	 	 	 	 	 	 	 	 	 	 	 	 	 	 	 	 	 	 	1581481819	10.75	19.91
12/02/2020 04:30:20	120220	12022020	043020	197.18	13.349070	-57.012682	197.34	1.230	-1.280	1.180	197.18	-2.60	1.70	 	 	 	 	 	 	 	 	 	 	 	 	 	 	 	 	 	 	1581481820	11.46	21.22
12/02/2020 04:30:21	120220	12022020	043021	196.88	13.349018	-57.012697	197.02	0.940	-1.420	1.570	196.88	-2.80	2.10	 	 	 	 	 	 	 	 	 	 	 	 	 	 	 	 	 	 	1581481821	11.77	21.80
12/02/2020 04:30:22	120220	12022020	043022	196.53	13.348970	-57.012715	196.71	0.130	-1.040	2.230	196.53	-2.40	2.70	 	 	 	 	 	 	 	 	 	 	 	 	 	 	 	 	 	 	1581481822	11.45	21.21
12/02/2020 04:30:23	120220	12022020	043023	196.32	13.348923	-57.012737	196.51	-0.610	-0.370	2.760	196.32	-1.70	3.30	 	 	 	 	 	 	 	 	 	 	 	 	 	 	 	 	 	 	1581481823	11.14	20.63
12/02/2020 04:30:24	120220	12022020	043024	196.22	13.348875	-57.012758	196.40	-0.830	0.090	2.940	196.22	-1.30	3.40	 	 	 	 	 	 	 	 	 	 	 	 	 	 	 	 	 	 	1581481824	11.01	20.39
12/02/2020 04:30:25	120220	12022020	043025	196.13	13.348823	-57.012778	196.30	-0.550	0.080	2.610	196.13	-1.30	3.10	 	 	 	 	 	 	 	 	 	 	 	 	 	 	 	 	 	 	1581481825	11.31	20.95
12/02/2020 04:30:26	120220	12022020	043026	196.07	13.348770	-57.012795	196.23	-0.190	-0.000	2.070	196.07	-1.40	2.50	 	 	 	 	 	 	 	 	 	 	 	 	 	 	 	 	 	 	1581481826	11.84	21.93
12/02/2020 04:30:27	120220	12022020	043027	196.11	13.348718	-57.012810	196.25	-0.040	0.010	1.590	196.11	-1.40	2.10	 	 	 	 	 	 	 	 	 	 	 	 	 	 	 	 	 	 	1581481827	11.93	22.09
12/02/2020 04:30:28	120220	12022020	043028	196.21	13.348667	-57.012825	196.37	-0.040	0.000	1.290	196.21	-1.40	1.80	 	 	 	 	 	 	 	 	 	 	 	 	 	 	 	 	 	 	1581481828	11.65	21.58
12/02/2020 04:30:29	120220	12022020	043029	196.36	13.348617	-57.012840	196.52	-0.060	-0.050	1.280	196.36	-1.40	1.80	 	 	 	 	 	 	 	 	 	 	 	 	 	 	 	 	 	 	1581481829	11.48	21.26
12/02/2020 04:30:30	120220	12022020	043030	196.43	13.348567	-57.012857	196.56	0.070	-0.100	1.350	196.43	-1.50	1.90	 	 	 	 	 	 	 	 	 	 	 	 	 	 	 	 	 	 	1581481830	11.38	21.08
12/02/2020 04:30:31	120220	12022020	043031	196.43	13.348517	-57.012872	196.57	0.260	-0.130	1.360	196.43	-1.50	1.90	 	 	 	 	 	 	 	 	 	 	 	 	 	 	 	 	 	 	1581481831	11.28	20.89
12/02/2020 04:30:32	120220	12022020	043032	196.52	13.348467	-57.012887	196.69	0.240	-0.090	1.460	196.52	-1.50	2.00	 	 	 	 	 	 	 	 	 	 	 	 	 	 	 	 	 	 	1581481832	11.23	20.80
12/02/2020 04:30:33	120220	12022020	043033	196.85	13.348420	-57.012903	197.01	-0.020	-0.040	1.500	196.85	-1.40	2.00	 	 	 	 	 	 	 	 	 	 	 	 	 	 	 	 	 	 	1581481833	11.05	20.46
12/02/2020 04:30:34	120220	12022020	043034	197.33	13.348372	-57.012920	197.48	-0.210	-0.140	1.330	197.33	-1.50	1.80	 	 	 	 	 	 	 	 	 	 	 	 	 	 	 	 	 	 	1581481834	10.86	20.11
12/02/2020 04:30:35	120220	12022020	043035	197.60	13.348322	-57.012937	197.73	0.030	-0.740	1.150	197.60	-2.10	1.70	 	 	 	 	 	 	 	 	 	 	 	 	 	 	 	 	 	 	1581481835	10.87	20.13
12/02/2020 04:30:36	120220	12022020	043036	197.48	13.348268	-57.012955	197.62	0.540	-1.510	1.280	197.48	-2.90	1.80	 	 	 	 	 	 	 	 	 	 	 	 	 	 	 	 	 	 	1581481836	11.43	21.17
12/02/2020 04:30:37	120220	12022020	043037	197.18	13.348217	-57.012972	197.33	0.700	-1.590	1.690	197.18	-2.90	2.20	 	 	 	 	 	 	 	 	 	 	 	 	 	 	 	 	 	 	1581481837	12.01	22.24
12/02/2020 04:30:38	120220	12022020	043038	196.65	13.348168	-57.012990	196.79	0.300	-1.020	2.200	196.65	-2.30	2.70	 	 	 	 	 	 	 	 	 	 	 	 	 	 	 	 	 	 	1581481838	11.59	21.46
12/02/2020 04:30:39	120220	12022020	043039	196.05	13.348120	-57.013010	196.20	-0.310	-0.350	2.580	196.05	-1.70	3.10	 	 	 	 	 	 	 	 	 	 	 	 	 	 	 	 	 	 	1581481839	11.09	20.54
12/02/2020 04:30:40	120220	12022020	043040	195.65	13.348070	-57.013030	195.82	-0.680	0.140	2.720	195.65	-1.20	3.20	 	 	 	 	 	 	 	 	 	 	 	 	 	 	 	 	 	 	1581481840	11.20	20.74
12/02/2020 04:30:41	120220	12022020	043041	195.46	13.348020	-57.013048	195.64	-0.590	0.460	2.580	195.46	-0.90	3.10	 	 	 	 	 	 	 	 	 	 	 	 	 	 	 	 	 	 	1581481841	11.53	21.35
12/02/2020 04:30:42	120220	12022020	043042	195.57	13.347967	-57.013065	195.76	-0.210	0.620	2.170	195.57	-0.70	2.70	 	 	 	 	 	 	 	 	 	 	 	 	 	 	 	 	 	 	1581481842	11.70	21.67
12/02/2020 04:30:43	120220	12022020	043043	196.06	13.347917	-57.013080	196.27	0.010	0.700	1.720	196.06	-0.60	2.20	 	 	 	 	 	 	 	 	 	 	 	 	 	 	 	 	 	 	1581481843	11.71	21.69
12/02/2020 04:30:44	120220	12022020	043044	196.68	13.347867	-57.013097	196.88	-0.050	0.570	1.560	196.68	-0.80	2.10	 	 	 	 	 	 	 	 	 	 	 	 	 	 	 	 	 	 	1581481844	11.47	21.24
12/02/2020 04:30:45	120220	12022020	043045	196.97	13.347817	-57.013113	197.16	-0.090	0.010	1.760	196.97	-1.40	2.30	 	 	 	 	 	 	 	 	 	 	 	 	 	 	 	 	 	 	1581481845	11.22	20.78
12/02/2020 04:30:46	120220	12022020	043046	196.94	13.347765	-57.013132	197.12	0.160	-0.720	1.890	196.94	-2.10	2.40	 	 	 	 	 	 	 	 	 	 	 	 	 	 	 	 	 	 	1581481846	11.35	21.02
12/02/2020 04:30:47	120220	12022020	043047	196.91	13.347715	-57.013147	197.11	0.610	-1.140	1.600	196.91	-2.50	2.10	 	 	 	 	 	 	 	 	 	 	 	 	 	 	 	 	 	 	1581481847	11.59	21.46
12/02/2020 04:30:48	120220	12022020	043048	197.02	13.347665	-57.013158	197.23	0.890	-1.060	1.160	197.02	-2.40	1.70	 	 	 	 	 	 	 	 	 	 	 	 	 	 	 	 	 	 	1581481848	11.39	21.09
12/02/2020 04:30:49	120220	12022020	043049	197.11	13.347617	-57.013170	197.31	0.680	-0.830	1.000	197.11	-2.20	1.50	 	 	 	 	 	 	 	 	 	 	 	 	 	 	 	 	 	 	1581481849	10.96	20.30
12/02/2020 04:30:50	120220	12022020	043050	197.06	13.347567	-57.013187	197.24	0.050	-0.830	1.310	197.06	-2.20	1.90	 	 	 	 	 	 	 	 	 	 	 	 	 	 	 	 	 	 	1581481850	10.80	20.00
12/02/2020 04:30:51	120220	12022020	043051	196.85	13.347517	-57.013210	196.94	-0.530	-1.040	1.940	196.77	-2.40	2.50	 	 	 	 	 	 	 	 	 	 	 	 	 	 	 	 	 	 	1581481851	11.15	20.65
12/02/2020 04:30:52	120220	12022020	043052	196.28	13.347465	-57.013232	196.46	-0.720	-1.100	2.520	196.28	-2.40	3.10	 	 	 	 	 	 	 	 	 	 	 	 	 	 	 	 	 	 	1581481852	11.75	21.76
12/02/2020 04:30:53	120220	12022020	043053	195.91	13.347415	-57.013253	196.11	-0.630	-0.610	2.760	195.91	-1.90	3.30	 	 	 	 	 	 	 	 	 	 	 	 	 	 	 	 	 	 	1581481853	12.03	22.28
12/02/2020 04:30:54	120220	12022020	043054	195.90	13.347367	-57.013272	196.15	-0.560	0.300	2.570	195.94	-1.00	3.10	 	 	 	 	 	 	 	 	 	 	 	 	 	 	 	 	 	 	1581481854	11.72	21.71
12/02/2020 04:30:55	120220	12022020	043055	196.18	13.347317	-57.013288	196.37	-0.470	0.910	2.150	196.18	-0.40	2.70	 	 	 	 	 	 	 	 	 	 	 	 	 	 	 	 	 	 	1581481855	11.14	20.63
12/02/2020 04:30:56	120220	12022020	043056	196.22	13.347265	-57.013303	196.36	-0.100	0.720	1.850	196.20	-0.60	2.40	 	 	 	 	 	 	 	 	 	 	 	 	 	 	 	 	 	 	1581481856	11.12	20.59
12/02/2020 04:30:57	120220	12022020	043057	196.21	13.347210	-57.013318	196.42	0.440	0.380	1.580	196.26	-1.00	2.10	 	 	 	 	 	 	 	 	 	 	 	 	 	 	 	 	 	 	1581481857	11.81	21.87
12/02/2020 04:30:58	120220	12022020	043058	196.68	13.347160	-57.013330	196.84	0.640	0.380	1.370	196.68	-1.00	1.90	 	 	 	 	 	 	 	 	 	 	 	 	 	 	 	 	 	 	1581481858	11.97	22.17
12/02/2020 04:30:59	120220	12022020	043059	196.91	13.347110	-57.013347	197.05	0.480	-0.020	1.590	196.91	-1.40	2.10	 	 	 	 	 	 	 	 	 	 	 	 	 	 	 	 	 	 	1581481859	11.16	20.67
12/02/2020 04:31:00	120220	12022020	043100	196.71	13.347060	-57.013367	196.86	0.330	-0.900	2.120	196.71	-2.30	2.70	 	 	 	 	 	 	 	 	 	 	 	 	 	 	 	 	 	 	1581481860	11.14	20.63
12/02/2020 04:31:01	120220	12022020	043101	196.63	13.347010	-57.013387	196.85	0.270	-1.230	2.210	196.66	-2.60	2.70	1016.70	25.80	25.80	21.40	21.50	-1.0	77.0	77.0	421.0	25.5	265.00	8.10	68.00	10.40	15	7611.0	27.2	27.2	1581481861	11.82	21.89
12/02/2020 04:31:02	120220	12022020	043102	196.95	13.346963	-57.013402	197.15	0.110	-0.740	1.870	196.95	-2.10	2.40	 	 	 	 	 	 	 	 	 	 	 	 	 	 	 	 	 	 	1581481862	11.47	21.24
12/02/2020 04:31:03	120220	12022020	043103	197.21	13.346918	-57.013417	197.41	-0.110	-0.330	1.490	197.24	-1.70	2.00	 	 	 	 	 	 	 	 	 	 	 	 	 	 	 	 	 	 	1581481863	10.45	19.35
12/02/2020 04:31:04	120220	12022020	043104	197.17	13.346868	-57.013435	197.34	-0.130	-0.650	1.470	197.17	-2.00	2.00	 	 	 	 	 	 	 	 	 	 	 	 	 	 	 	 	 	 	1581481864	10.35	19.17
12/02/2020 04:31:05	120220	12022020	043105	196.92	13.346815	-57.013452	197.09	0.000	-1.230	1.630	196.92	-2.60	2.20	 	 	 	 	 	 	 	 	 	 	 	 	 	 	 	 	 	 	1581481865	11.30	20.93
12/02/2020 04:31:06	120220	12022020	043106	196.46	13.346762	-57.013472	196.62	0.080	-1.440	2.010	196.46	-2.80	2.60	 	 	 	 	 	 	 	 	 	 	 	 	 	 	 	 	 	 	1581481866	11.99	22.21
12/02/2020 04:31:07	120220	12022020	043107	195.94	13.346712	-57.013490	196.12	-0.020	-1.020	2.310	195.94	-2.30	2.80	 	 	 	 	 	 	 	 	 	 	 	 	 	 	 	 	 	 	1581481867	12.01	22.24
12/02/2020 04:31:08	120220	12022020	043108	195.68	13.346662	-57.013508	195.89	-0.280	-0.110	2.370	195.68	-1.40	2.90	 	 	 	 	 	 	 	 	 	 	 	 	 	 	 	 	 	 	1581481868	11.69	21.65
12/02/2020 04:31:09	120220	12022020	043109	195.79	13.346613	-57.013525	196.01	-0.480	0.720	2.270	195.79	-0.60	2.80	 	 	 	 	 	 	 	 	 	 	 	 	 	 	 	 	 	 	1581481869	11.24	20.82
12/02/2020 04:31:10	120220	12022020	043110	196.22	13.346563	-57.013542	196.44	-0.500	1.140	1.980	196.22	-0.20	2.50	 	 	 	 	 	 	 	 	 	 	 	 	 	 	 	 	 	 	1581481870	11.17	20.69
12/02/2020 04:31:11	120220	12022020	043111	196.61	13.346512	-57.013560	196.80	-0.350	0.890	1.910	196.61	-0.50	2.40	 	 	 	 	 	 	 	 	 	 	 	 	 	 	 	 	 	 	1581481871	11.31	20.95
12/02/2020 04:31:12	120220	12022020	043112	196.67	13.346460	-57.013578	196.85	-0.070	0.110	2.110	196.67	-1.30	2.60	 	 	 	 	 	 	 	 	 	 	 	 	 	 	 	 	 	 	1581481872	11.62	21.52
12/02/2020 04:31:13	120220	12022020	043113	196.61	13.346407	-57.013597	196.80	0.240	-0.510	2.090	196.61	-1.80	2.60	 	 	 	 	 	 	 	 	 	 	 	 	 	 	 	 	 	 	1581481873	12.00	22.22
12/02/2020 04:31:14	120220	12022020	043114	196.62	13.346358	-57.013612	196.83	0.350	-0.500	1.850	196.62	-1.80	2.40	 	 	 	 	 	 	 	 	 	 	 	 	 	 	 	 	 	 	1581481874	11.80	21.85
12/02/2020 04:31:15	120220	12022020	043115	196.80	13.346312	-57.013627	197.00	0.270	-0.290	1.370	196.80	-1.60	1.90	 	 	 	 	 	 	 	 	 	 	 	 	 	 	 	 	 	 	1581481875	11.00	20.37
12/02/2020 04:31:16	120220	12022020	043116	196.99	13.346262	-57.013640	197.17	0.230	-0.460	0.910	196.99	-1.80	1.40	 	 	 	 	 	 	 	 	 	 	 	 	 	 	 	 	 	 	1581481876	10.59	19.61
12/02/2020 04:31:17	120220	12022020	043117	197.02	13.346212	-57.013657	197.19	0.420	-0.950	0.770	197.02	-2.30	1.30	 	 	 	 	 	 	 	 	 	 	 	 	 	 	 	 	 	 	1581481877	10.94	20.26
12/02/2020 04:31:18	120220	12022020	043118	196.89	13.346160	-57.013672	197.07	0.570	-1.190	0.990	196.89	-2.50	1.50	 	 	 	 	 	 	 	 	 	 	 	 	 	 	 	 	 	 	1581481878	11.53	21.35
12/02/2020 04:31:19	120220	12022020	043119	196.81	13.346110	-57.013688	197.00	0.270	-0.900	1.460	196.81	-2.20	2.00	 	 	 	 	 	 	 	 	 	 	 	 	 	 	 	 	 	 	1581481879	11.56	21.41
12/02/2020 04:31:20	120220	12022020	043120	196.61	13.346063	-57.013708	196.80	-0.360	-0.510	2.160	196.61	-1.80	2.70	 	 	 	 	 	 	 	 	 	 	 	 	 	 	 	 	 	 	1581481880	11.13	20.61
12/02/2020 04:31:21	120220	12022020	043121	196.01	13.346013	-57.013732	196.19	-0.750	-0.580	2.900	196.01	-1.90	3.40	 	 	 	 	 	 	 	 	 	 	 	 	 	 	 	 	 	 	1581481881	11.08	20.52
12/02/2020 04:31:22	120220	12022020	043122	195.38	13.345960	-57.013755	195.58	-0.660	-0.670	3.220	195.38	-2.00	3.70	 	 	 	 	 	 	 	 	 	 	 	 	 	 	 	 	 	 	1581481882	11.81	21.87
12/02/2020 04:31:23	120220	12022020	043123	195.22	13.345910	-57.013773	195.42	-0.400	-0.090	2.920	195.22	-1.40	3.40	 	 	 	 	 	 	 	 	 	 	 	 	 	 	 	 	 	 	1581481883	12.22	22.63
12/02/2020 04:31:24	120220	12022020	043124	195.26	13.345862	-57.013788	195.44	-0.180	0.500	2.330	195.26	-0.80	2.90	 	 	 	 	 	 	 	 	 	 	 	 	 	 	 	 	 	 	1581481884	11.44	21.19
12/02/2020 04:31:25	120220	12022020	043125	195.23	13.345810	-57.013803	195.40	0.080	0.470	1.850	195.23	-0.90	2.40	 	 	 	 	 	 	 	 	 	 	 	 	 	 	 	 	 	 	1581481885	11.03	20.43
12/02/2020 04:31:26	120220	12022020	043126	195.38	13.345757	-57.013817	195.56	0.320	0.250	1.560	195.38	-1.10	2.10	 	 	 	 	 	 	 	 	 	 	 	 	 	 	 	 	 	 	1581481886	11.56	21.41
12/02/2020 04:31:27	120220	12022020	043127	195.70	13.345707	-57.013832	196.00	0.310	0.180	1.520	195.80	-1.10	2.10	 	 	 	 	 	 	 	 	 	 	 	 	 	 	 	 	 	 	1581481887	11.69	21.65
12/02/2020 04:31:28	120220	12022020	043128	196.20	13.345658	-57.013848	196.39	0.080	0.020	1.800	196.20	-1.30	2.40	 	 	 	 	 	 	 	 	 	 	 	 	 	 	 	 	 	 	1581481888	11.23	20.80
12/02/2020 04:31:29	120220	12022020	043129	196.35	13.345608	-57.013868	196.55	-0.070	-0.460	2.210	196.35	-1.80	2.80	 	 	 	 	 	 	 	 	 	 	 	 	 	 	 	 	 	 	1581481889	11.04	20.45
12/02/2020 04:31:30	120220	12022020	043130	196.37	13.345558	-57.013887	196.57	0.090	-0.880	2.220	196.37	-2.20	2.80	 	 	 	 	 	 	 	 	 	 	 	 	 	 	 	 	 	 	1581481890	11.36	21.04
12/02/2020 04:31:31	120220	12022020	043131	196.39	13.345508	-57.013900	196.58	0.440	-0.940	1.790	196.39	-2.30	2.30	 	 	 	 	 	 	 	 	 	 	 	 	 	 	 	 	 	 	1581481891	11.44	21.19
12/02/2020 04:31:32	120220	12022020	043132	196.33	13.345458	-57.013912	196.51	0.630	-0.910	1.420	196.33	-2.20	2.00	 	 	 	 	 	 	 	 	 	 	 	 	 	 	 	 	 	 	1581481892	11.15	20.65
12/02/2020 04:31:33	120220	12022020	043133	196.23	13.345407	-57.013923	196.41	0.350	-0.910	1.410	196.23	-2.20	2.00	 	 	 	 	 	 	 	 	 	 	 	 	 	 	 	 	 	 	1581481893	11.20	20.74
12/02/2020 04:31:34	120220	12022020	043134	196.19	13.345357	-57.013942	196.39	-0.320	-0.750	1.690	196.19	-2.10	2.20	 	 	 	 	 	 	 	 	 	 	 	 	 	 	 	 	 	 	1581481894	11.37	21.06
12/02/2020 04:31:35	120220	12022020	043135	196.08	13.345308	-57.013963	196.27	-0.930	-0.450	2.140	196.08	-1.80	2.70	 	 	 	 	 	 	 	 	 	 	 	 	 	 	 	 	 	 	1581481895	11.32	20.96
12/02/2020 04:31:36	120220	12022020	043136	195.68	13.345258	-57.013985	195.86	-1.010	-0.250	2.570	195.68	-1.60	3.10	 	 	 	 	 	 	 	 	 	 	 	 	 	 	 	 	 	 	1581481896	11.32	20.96
12/02/2020 04:31:37	120220	12022020	043137	195.24	13.345208	-57.014005	195.42	-0.520	-0.140	2.480	195.24	-1.50	3.00	 	 	 	 	 	 	 	 	 	 	 	 	 	 	 	 	 	 	1581481897	11.57	21.43
12/02/2020 04:31:38	120220	12022020	043138	194.99	13.345155	-57.014020	195.19	0.150	-0.010	2.050	194.99	-1.30	2.60	 	 	 	 	 	 	 	 	 	 	 	 	 	 	 	 	 	 	1581481898	11.75	21.76
12/02/2020 04:31:39	120220	12022020	043139	194.99	13.345103	-57.014033	195.20	0.560	0.100	1.590	194.99	-1.20	2.10	 	 	 	 	 	 	 	 	 	 	 	 	 	 	 	 	 	 	1581481899	11.73	21.72
12/02/2020 04:31:40	120220	12022020	043140	195.29	13.345052	-57.014045	195.49	0.540	0.280	1.310	195.29	-1.10	1.90	 	 	 	 	 	 	 	 	 	 	 	 	 	 	 	 	 	 	1581481900	11.64	21.56
12/02/2020 04:31:41	120220	12022020	043141	195.59	13.345002	-57.014062	195.79	0.270	0.350	1.450	195.59	-1.00	2.00	 	 	 	 	 	 	 	 	 	 	 	 	 	 	 	 	 	 	1581481901	11.36	21.04
12/02/2020 04:31:42	120220	12022020	043142	195.70	13.344952	-57.014078	195.91	0.030	0.090	1.860	195.70	-1.30	2.40	 	 	 	 	 	 	 	 	 	 	 	 	 	 	 	 	 	 	1581481902	11.18	20.71
12/02/2020 04:31:43	120220	12022020	043143	195.89	13.344902	-57.014097	196.13	-0.100	-0.150	2.100	195.89	-1.50	2.60	 	 	 	 	 	 	 	 	 	 	 	 	 	 	 	 	 	 	1581481903	11.42	21.15
12/02/2020 04:31:44	120220	12022020	043144	196.23	13.344853	-57.014113	196.55	-0.180	-0.180	1.890	196.32	-1.50	2.40	 	 	 	 	 	 	 	 	 	 	 	 	 	 	 	 	 	 	1581481904	11.36	21.04
12/02/2020 04:31:45	120220	12022020	043145	196.68	13.344805	-57.014128	196.89	-0.090	-0.430	1.410	196.68	-1.80	1.90	 	 	 	 	 	 	 	 	 	 	 	 	 	 	 	 	 	 	1581481905	10.92	20.22
12/02/2020 04:31:46	120220	12022020	043146	196.72	13.344752	-57.014142	196.88	0.330	-1.140	1.010	196.70	-2.50	1.60	 	 	 	 	 	 	 	 	 	 	 	 	 	 	 	 	 	 	1581481906	10.97	20.32
12/02/2020 04:31:47	120220	12022020	043147	196.50	13.344698	-57.014155	196.68	0.790	-1.630	0.840	196.50	-3.00	1.40	 	 	 	 	 	 	 	 	 	 	 	 	 	 	 	 	 	 	1581481907	11.66	21.59
12/02/2020 04:31:48	120220	12022020	043148	196.31	13.344647	-57.014168	196.50	0.680	-1.400	0.960	196.31	-2.70	1.50	 	 	 	 	 	 	 	 	 	 	 	 	 	 	 	 	 	 	1581481908	11.87	21.98
12/02/2020 04:31:49	120220	12022020	043149	196.15	13.344598	-57.014185	196.35	-0.130	-0.790	1.550	196.15	-2.10	2.10	 	 	 	 	 	 	 	 	 	 	 	 	 	 	 	 	 	 	1581481909	11.31	20.95
12/02/2020 04:31:50	120220	12022020	043150	195.93	13.344552	-57.014208	196.12	-1.060	-0.330	2.400	195.93	-1.70	3.00	 	 	 	 	 	 	 	 	 	 	 	 	 	 	 	 	 	 	1581481910	10.98	20.33
12/02/2020 04:31:51	120220	12022020	043151	195.54	13.344502	-57.014233	195.72	-1.370	-0.220	3.030	195.54	-1.60	3.60	 	 	 	 	 	 	 	 	 	 	 	 	 	 	 	 	 	 	1581481911	11.37	21.06
12/02/2020 04:31:52	120220	12022020	043152	195.11	13.344448	-57.014257	195.30	-0.880	-0.170	3.120	195.11	-1.50	3.60	 	 	 	 	 	 	 	 	 	 	 	 	 	 	 	 	 	 	1581481912	12.03	22.28
12/02/2020 04:31:53	120220	12022020	043153	194.90	13.344397	-57.014273	195.06	-0.100	0.150	2.650	194.88	-1.20	3.20	 	 	 	 	 	 	 	 	 	 	 	 	 	 	 	 	 	 	1581481913	12.21	22.61
12/02/2020 04:31:54	120220	12022020	043154	194.95	13.344345	-57.014283	195.14	0.400	0.650	1.900	194.95	-0.70	2.40	 	 	 	 	 	 	 	 	 	 	 	 	 	 	 	 	 	 	1581481914	11.86	21.96
12/02/2020 04:31:55	120220	12022020	043155	195.16	13.344293	-57.014293	195.32	0.420	0.890	1.360	195.16	-0.50	1.90	 	 	 	 	 	 	 	 	 	 	 	 	 	 	 	 	 	 	1581481915	11.40	21.11
12/02/2020 04:31:56	120220	12022020	043156	195.34	13.344242	-57.014307	195.48	0.280	0.650	1.300	195.34	-0.70	1.90	 	 	 	 	 	 	 	 	 	 	 	 	 	 	 	 	 	 	1581481916	11.22	20.78
12/02/2020 04:31:57	120220	12022020	043157	195.52	13.344190	-57.014322	195.72	0.370	0.150	1.340	195.57	-1.20	1.90	 	 	 	 	 	 	 	 	 	 	 	 	 	 	 	 	 	 	1581481917	11.38	21.08
12/02/2020 04:31:58	120220	12022020	043158	195.89	13.344140	-57.014337	196.07	0.620	-0.330	1.360	195.89	-1.70	1.90	 	 	 	 	 	 	 	 	 	 	 	 	 	 	 	 	 	 	1581481918	11.48	21.26
12/02/2020 04:31:59	120220	12022020	043159	196.10	13.344090	-57.014350	196.27	0.690	-0.790	1.570	196.10	-2.20	2.10	 	 	 	 	 	 	 	 	 	 	 	 	 	 	 	 	 	 	1581481919	11.30	20.93
12/02/2020 04:32:00	120220	12022020	043200	196.10	13.344042	-57.014367	196.30	0.380	-1.120	1.950	196.10	-2.50	2.50	 	 	 	 	 	 	 	 	 	 	 	 	 	 	 	 	 	 	1581481920	11.14	20.63
12/02/2020 04:32:01	120220	12022020	043201	196.02	13.343993	-57.014387	196.23	-0.160	-1.230	2.370	196.02	-2.60	2.90	1016.70	25.80	25.90	21.40	21.40	-1.0	76.0	76.0	423.0	25.5	258.00	8.10	62.00	10.90	15	7753.0	27.2	27.2	1581481921	11.07	20.50
12/02/2020 04:32:02	120220	12022020	043202	195.78	13.343947	-57.014408	195.98	-0.510	-1.230	2.650	195.78	-2.60	3.20	 	 	 	 	 	 	 	 	 	 	 	 	 	 	 	 	 	 	1581481922	11.01	20.39
12/02/2020 04:32:03	120220	12022020	043203	195.59	13.343897	-57.014427	195.76	-0.400	-1.160	2.450	195.55	-2.50	3.00	 	 	 	 	 	 	 	 	 	 	 	 	 	 	 	 	 	 	1581481923	11.18	20.71
12/02/2020 04:32:04	120220	12022020	043204	195.59	13.343845	-57.014442	195.82	-0.030	-0.910	1.720	195.59	-2.20	2.20	 	 	 	 	 	 	 	 	 	 	 	 	 	 	 	 	 	 	1581481924	11.41	21.13
12/02/2020 04:32:05	120220	12022020	043205	195.86	13.343793	-57.014453	196.10	0.200	-0.460	0.940	195.86	-1.80	1.50	 	 	 	 	 	 	 	 	 	 	 	 	 	 	 	 	 	 	1581481925	11.47	21.24
12/02/2020 04:32:06	120220	12022020	043206	196.01	13.343740	-57.014465	196.22	0.150	-0.230	0.590	196.01	-1.60	1.10	 	 	 	 	 	 	 	 	 	 	 	 	 	 	 	 	 	 	1581481926	11.39	21.09
12/02/2020 04:32:07	120220	12022020	043207	195.86	13.343685	-57.014480	196.07	-0.030	-0.320	0.840	195.86	-1.70	1.40	 	 	 	 	 	 	 	 	 	 	 	 	 	 	 	 	 	 	1581481927	11.67	21.61
12/02/2020 04:32:08	120220	12022020	043208	195.72	13.343632	-57.014497	195.96	-0.280	-0.150	1.330	195.71	-1.50	1.90	 	 	 	 	 	 	 	 	 	 	 	 	 	 	 	 	 	 	1581481928	12.19	22.58
12/02/2020 04:32:09	120220	12022020	043209	195.82	13.343582	-57.014515	196.09	-0.550	0.460	1.720	195.82	-0.90	2.30	 	 	 	 	 	 	 	 	 	 	 	 	 	 	 	 	 	 	1581481929	12.11	22.43
12/02/2020 04:32:10	120220	12022020	043210	195.99	13.343532	-57.014532	196.23	-0.720	0.860	1.770	195.99	-0.50	2.30	 	 	 	 	 	 	 	 	 	 	 	 	 	 	 	 	 	 	1581481930	11.45	21.21
12/02/2020 04:32:11	120220	12022020	043211	196.07	13.343480	-57.014550	196.33	-0.580	0.720	1.650	196.10	-0.60	2.20	 	 	 	 	 	 	 	 	 	 	 	 	 	 	 	 	 	 	1581481931	11.33	20.98
12/02/2020 04:32:12	120220	12022020	043212	196.33	13.343428	-57.014565	196.57	-0.170	0.500	1.300	196.33	-0.90	1.80	 	 	 	 	 	 	 	 	 	 	 	 	 	 	 	 	 	 	1581481932	11.65	21.58
12/02/2020 04:32:13	120220	12022020	043213	196.46	13.343378	-57.014580	196.68	0.260	0.200	1.010	196.46	-1.20	1.50	 	 	 	 	 	 	 	 	 	 	 	 	 	 	 	 	 	 	1581481933	11.49	21.28
12/02/2020 04:32:14	120220	12022020	043214	196.32	13.343328	-57.014595	196.52	0.580	-0.360	1.210	196.32	-1.70	1.70	 	 	 	 	 	 	 	 	 	 	 	 	 	 	 	 	 	 	1581481934	11.16	20.67
12/02/2020 04:32:15	120220	12022020	043215	196.18	13.343280	-57.014613	196.39	0.700	-0.810	1.530	196.18	-2.20	2.10	 	 	 	 	 	 	 	 	 	 	 	 	 	 	 	 	 	 	1581481935	11.30	20.93
12/02/2020 04:32:16	120220	12022020	043216	196.15	13.343232	-57.014630	196.37	0.630	-0.960	1.690	196.15	-2.30	2.20	 	 	 	 	 	 	 	 	 	 	 	 	 	 	 	 	 	 	1581481936	11.23	20.80
12/02/2020 04:32:17	120220	12022020	043217	196.11	13.343183	-57.014647	196.34	0.450	-1.040	1.770	196.11	-2.40	2.30	 	 	 	 	 	 	 	 	 	 	 	 	 	 	 	 	 	 	1581481937	10.91	20.21
12/02/2020 04:32:18	120220	12022020	043218	196.06	13.343133	-57.014663	196.28	0.310	-1.080	1.610	196.06	-2.40	2.10	 	 	 	 	 	 	 	 	 	 	 	 	 	 	 	 	 	 	1581481938	10.97	20.32
12/02/2020 04:32:19	120220	12022020	043219	195.95	13.343083	-57.014678	196.18	0.270	-0.960	1.310	195.95	-2.30	1.80	 	 	 	 	 	 	 	 	 	 	 	 	 	 	 	 	 	 	1581481939	11.17	20.69
12/02/2020 04:32:20	120220	12022020	043220	195.88	13.343032	-57.014692	196.10	0.280	-0.820	1.080	195.88	-2.20	1.60	 	 	 	 	 	 	 	 	 	 	 	 	 	 	 	 	 	 	1581481940	11.29	20.91
12/02/2020 04:32:21	120220	12022020	043221	195.84	13.342978	-57.014707	196.07	0.150	-0.810	1.110	195.84	-2.20	1.70	 	 	 	 	 	 	 	 	 	 	 	 	 	 	 	 	 	 	1581481941	11.50	21.30
12/02/2020 04:32:22	120220	12022020	043222	195.95	13.342925	-57.014725	196.21	-0.230	-0.720	1.630	195.95	-2.10	2.20	 	 	 	 	 	 	 	 	 	 	 	 	 	 	 	 	 	 	1581481942	11.90	22.04
12/02/2020 04:32:23	120220	12022020	043223	196.07	13.342875	-57.014747	196.33	-0.790	-0.380	2.370	196.07	-1.70	2.90	 	 	 	 	 	 	 	 	 	 	 	 	 	 	 	 	 	 	1581481943	12.01	22.24
12/02/2020 04:32:24	120220	12022020	043224	195.97	13.342825	-57.014768	196.20	-1.210	0.150	2.920	195.97	-1.20	3.40	 	 	 	 	 	 	 	 	 	 	 	 	 	 	 	 	 	 	1581481944	11.85	21.95
12/02/2020 04:32:25	120220	12022020	043225	195.84	13.342775	-57.014790	196.06	-1.220	0.710	2.980	195.84	-0.60	3.50	 	 	 	 	 	 	 	 	 	 	 	 	 	 	 	 	 	 	1581481945	11.67	21.61
12/02/2020 04:32:26	120220	12022020	043226	195.90	13.342725	-57.014805	196.11	-0.790	1.000	2.400	195.90	-0.40	2.90	 	 	 	 	 	 	 	 	 	 	 	 	 	 	 	 	 	 	1581481946	11.46	21.22
12/02/2020 04:32:27	120220	12022020	043227	196.24	13.342673	-57.014818	196.44	-0.100	0.830	1.490	196.24	-0.50	2.00	 	 	 	 	 	 	 	 	 	 	 	 	 	 	 	 	 	 	1581481947	11.39	21.09
12/02/2020 04:32:28	120220	12022020	043228	196.81	13.342620	-57.014830	196.99	0.510	0.300	0.760	196.81	-1.10	1.30	 	 	 	 	 	 	 	 	 	 	 	 	 	 	 	 	 	 	1581481948	11.57	21.43
12/02/2020 04:32:29	120220	12022020	043229	197.07	13.342567	-57.014842	197.23	0.900	-0.420	0.590	197.07	-1.80	1.10	 	 	 	 	 	 	 	 	 	 	 	 	 	 	 	 	 	 	1581481949	11.63	21.54
12/02/2020 04:32:30	120220	12022020	043230	196.82	13.342515	-57.014857	196.97	1.070	-1.080	1.010	196.82	-2.50	1.60	 	 	 	 	 	 	 	 	 	 	 	 	 	 	 	 	 	 	1581481950	11.58	21.45
12/02/2020 04:32:31	120220	12022020	043231	196.50	13.342465	-57.014872	196.66	0.890	-1.260	1.590	196.50	-2.60	2.10	 	 	 	 	 	 	 	 	 	 	 	 	 	 	 	 	 	 	1581481951	11.58	21.45
12/02/2020 04:32:32	120220	12022020	043232	196.30	13.342418	-57.014892	196.48	0.370	-0.940	2.180	196.30	-2.30	2.70	 	 	 	 	 	 	 	 	 	 	 	 	 	 	 	 	 	 	1581481952	11.29	20.91
12/02/2020 04:32:33	120220	12022020	043233	196.30	13.342372	-57.014912	196.52	-0.310	-0.410	2.510	196.33	-1.80	3.00	 	 	 	 	 	 	 	 	 	 	 	 	 	 	 	 	 	 	1581481953	10.94	20.26
12/02/2020 04:32:34	120220	12022020	043234	196.53	13.342325	-57.014933	196.76	-0.750	0.040	2.360	196.58	-1.30	2.90	 	 	 	 	 	 	 	 	 	 	 	 	 	 	 	 	 	 	1581481954	10.83	20.06
12/02/2020 04:32:35	120220	12022020	043235	196.78	13.342277	-57.014952	196.93	-0.590	0.020	1.910	196.78	-1.40	2.40	 	 	 	 	 	 	 	 	 	 	 	 	 	 	 	 	 	 	1581481955	10.86	20.11
12/02/2020 04:32:36	120220	12022020	043236	196.84	13.342223	-57.014968	197.00	0.050	-0.490	1.370	196.84	-1.90	1.90	 	 	 	 	 	 	 	 	 	 	 	 	 	 	 	 	 	 	1581481956	11.31	20.95
12/02/2020 04:32:37	120220	12022020	043237	196.80	13.342168	-57.014983	196.97	0.570	-0.970	1.100	196.80	-2.30	1.60	 	 	 	 	 	 	 	 	 	 	 	 	 	 	 	 	 	 	1581481957	11.98	22.19
12/02/2020 04:32:38	120220	12022020	043238	196.63	13.342117	-57.014998	196.79	0.550	-0.990	1.210	196.63	-2.40	1.70	 	 	 	 	 	 	 	 	 	 	 	 	 	 	 	 	 	 	1581481958	12.13	22.46
12/02/2020 04:32:39	120220	12022020	043239	196.34	13.342067	-57.015015	196.50	0.060	-0.610	1.600	196.34	-2.00	2.10	 	 	 	 	 	 	 	 	 	 	 	 	 	 	 	 	 	 	1581481959	11.74	21.74
12/02/2020 04:32:40	120220	12022020	043240	196.01	13.342017	-57.015035	196.18	-0.410	-0.110	2.040	196.01	-1.50	2.60	 	 	 	 	 	 	 	 	 	 	 	 	 	 	 	 	 	 	1581481960	11.35	21.02
12/02/2020 04:32:41	120220	12022020	043241	195.83	13.341967	-57.015052	196.01	-0.490	0.330	2.250	195.83	-1.00	2.80	 	 	 	 	 	 	 	 	 	 	 	 	 	 	 	 	 	 	1581481961	11.29	20.91
12/02/2020 04:32:42	120220	12022020	043242	195.84	13.341915	-57.015068	196.04	-0.230	0.360	2.090	195.84	-1.00	2.60	 	 	 	 	 	 	 	 	 	 	 	 	 	 	 	 	 	 	1581481962	11.34	21.00
12/02/2020 04:32:43	120220	12022020	043243	196.13	13.341862	-57.015085	196.35	0.070	0.090	1.810	196.13	-1.30	2.30	 	 	 	 	 	 	 	 	 	 	 	 	 	 	 	 	 	 	1581481963	11.65	21.58
12/02/2020 04:32:44	120220	12022020	043244	196.77	13.341812	-57.015100	197.00	0.110	0.050	1.460	196.77	-1.30	2.00	 	 	 	 	 	 	 	 	 	 	 	 	 	 	 	 	 	 	1581481964	11.91	22.06
12/02/2020 04:32:45	120220	12022020	043245	197.32	13.341763	-57.015115	197.62	-0.080	0.080	1.290	197.43	-1.30	1.80	 	 	 	 	 	 	 	 	 	 	 	 	 	 	 	 	 	 	1581481965	11.42	21.15
12/02/2020 04:32:46	120220	12022020	043246	197.62	13.341713	-57.015133	197.79	-0.170	-0.360	1.630	197.62	-1.80	2.20	 	 	 	 	 	 	 	 	 	 	 	 	 	 	 	 	 	 	1581481966	10.94	20.26
12/02/2020 04:32:47	120220	12022020	043247	197.56	13.341662	-57.015152	197.72	-0.080	-0.870	1.960	197.54	-2.30	2.50	 	 	 	 	 	 	 	 	 	 	 	 	 	 	 	 	 	 	1581481967	11.33	20.98
12/02/2020 04:32:48	120220	12022020	043248	197.39	13.341612	-57.015170	197.55	-0.000	-1.050	2.170	197.39	-2.40	2.70	 	 	 	 	 	 	 	 	 	 	 	 	 	 	 	 	 	 	1581481968	11.64	21.56
12/02/2020 04:32:49	120220	12022020	043249	197.09	13.341563	-57.015190	197.17	0.020	-1.010	2.360	196.99	-2.40	2.90	 	 	 	 	 	 	 	 	 	 	 	 	 	 	 	 	 	 	1581481969	11.41	21.13
12/02/2020 04:32:50	120220	12022020	043250	196.43	13.341513	-57.015208	196.59	0.140	-0.830	2.370	196.43	-2.20	2.90	 	 	 	 	 	 	 	 	 	 	 	 	 	 	 	 	 	 	1581481970	11.38	21.08
12/02/2020 04:32:51	120220	12022020	043251	196.03	13.341462	-57.015225	196.13	0.390	-0.460	2.010	195.96	-1.80	2.50	 	 	 	 	 	 	 	 	 	 	 	 	 	 	 	 	 	 	1581481971	11.51	21.32
12/02/2020 04:32:52	120220	12022020	043252	195.91	13.341412	-57.015237	196.10	0.510	0.260	1.360	195.91	-1.10	1.90	 	 	 	 	 	 	 	 	 	 	 	 	 	 	 	 	 	 	1581481972	11.52	21.34
12/02/2020 04:32:53	120220	12022020	043253	196.37	13.341362	-57.015248	196.56	0.300	0.950	0.780	196.37	-0.40	1.30	 	 	 	 	 	 	 	 	 	 	 	 	 	 	 	 	 	 	1581481973	11.16	20.67
12/02/2020 04:32:54	120220	12022020	043254	196.88	13.341312	-57.015263	197.07	-0.010	0.770	0.610	196.88	-0.60	1.10	 	 	 	 	 	 	 	 	 	 	 	 	 	 	 	 	 	 	1581481974	10.77	19.95
12/02/2020 04:32:55	120220	12022020	043255	197.06	13.341258	-57.015283	197.27	-0.030	-0.400	1.090	197.07	-1.80	1.60	 	 	 	 	 	 	 	 	 	 	 	 	 	 	 	 	 	 	1581481975	11.27	20.87
12/02/2020 04:32:56	120220	12022020	043256	197.02	13.341203	-57.015305	197.22	0.130	-1.430	1.900	197.02	-2.80	2.40	 	 	 	 	 	 	 	 	 	 	 	 	 	 	 	 	 	 	1581481976	12.29	22.76
12/02/2020 04:32:57	120220	12022020	043257	196.82	13.341153	-57.015325	197.02	0.110	-1.560	2.480	196.82	-2.90	3.00	 	 	 	 	 	 	 	 	 	 	 	 	 	 	 	 	 	 	1581481977	12.47	23.09
12/02/2020 04:32:58	120220	12022020	043258	196.63	13.341107	-57.015345	196.80	-0.170	-0.930	2.640	196.59	-2.30	3.10	 	 	 	 	 	 	 	 	 	 	 	 	 	 	 	 	 	 	1581481978	11.71	21.69
12/02/2020 04:32:59	120220	12022020	043259	196.48	13.341058	-57.015363	196.71	-0.430	-0.060	2.350	196.48	-1.40	2.80	 	 	 	 	 	 	 	 	 	 	 	 	 	 	 	 	 	 	1581481979	11.01	20.39
12/02/2020 04:33:00	120220	12022020	043300	196.84	13.341012	-57.015377	197.10	-0.460	0.790	1.470	196.84	-0.60	1.90	 	 	 	 	 	 	 	 	 	 	 	 	 	 	 	 	 	 	1581481980	10.76	19.93
12/02/2020 04:33:01	120220	12022020	043301	197.54	13.340963	-57.015388	197.95	-0.360	1.190	0.530	197.72	-0.20	1.00	1016.60	25.80	25.90	21.50	21.50	-1.0	77.0	76.0	420.0	25.5	265.00	8.00	67.00	10.30	15	7794.0	27.2	27.2	1581481981	10.66	19.74
12/02/2020 04:33:02	120220	12022020	043302	198.32	13.340912	-57.015403	198.49	-0.120	0.400	0.390	198.32	-1.00	0.90	 	 	 	 	 	 	 	 	 	 	 	 	 	 	 	 	 	 	1581481982	10.69	19.80
12/02/2020 04:33:03	120220	12022020	043303	198.16	13.340855	-57.015425	198.15	0.360	-1.380	1.090	198.04	-2.80	1.60	 	 	 	 	 	 	 	 	 	 	 	 	 	 	 	 	 	 	1581481983	11.55	21.39
12/02/2020 04:33:04	120220	12022020	043304	197.36	13.340800	-57.015445	197.51	0.780	-2.470	1.930	197.36	-3.80	2.50	 	 	 	 	 	 	 	 	 	 	 	 	 	 	 	 	 	 	1581481984	12.86	23.82
12/02/2020 04:33:05	120220	12022020	043305	196.89	13.340750	-57.015463	197.07	0.750	-1.770	2.350	196.89	-3.10	2.90	 	 	 	 	 	 	 	 	 	 	 	 	 	 	 	 	 	 	1581481985	12.80	23.71
12/02/2020 04:33:06	120220	12022020	043306	196.72	13.340705	-57.015478	196.90	0.250	-0.230	2.350	196.72	-1.60	2.90	 	 	 	 	 	 	 	 	 	 	 	 	 	 	 	 	 	 	1581481986	11.18	20.71
12/02/2020 04:33:07	120220	12022020	043307	196.51	13.340658	-57.015495	196.70	-0.340	0.620	2.420	196.51	-0.80	2.90	 	 	 	 	 	 	 	 	 	 	 	 	 	 	 	 	 	 	1581481987	10.15	18.80
12/02/2020 04:33:08	120220	12022020	043308	196.25	13.340607	-57.015515	196.44	-0.700	0.570	2.600	196.25	-0.80	3.10	 	 	 	 	 	 	 	 	 	 	 	 	 	 	 	 	 	 	1581481988	10.80	20.00
12/02/2020 04:33:09	120220	12022020	043309	196.13	13.340555	-57.015538	196.34	-0.800	0.350	2.750	196.13	-1.00	3.30	 	 	 	 	 	 	 	 	 	 	 	 	 	 	 	 	 	 	1581481989	11.88	22.00
12/02/2020 04:33:10	120220	12022020	043310	196.24	13.340505	-57.015560	196.45	-0.630	0.210	2.780	196.24	-1.20	3.30	 	 	 	 	 	 	 	 	 	 	 	 	 	 	 	 	 	 	1581481990	12.05	22.32
12/02/2020 04:33:11	120220	12022020	043311	196.49	13.340455	-57.015578	196.70	-0.230	0.080	2.490	196.49	-1.30	3.00	 	 	 	 	 	 	 	 	 	 	 	 	 	 	 	 	 	 	1581481991	11.73	21.72
12/02/2020 04:33:12	120220	12022020	043312	196.80	13.340405	-57.015595	197.10	0.320	-0.030	1.800	196.89	-1.40	2.30	 	 	 	 	 	 	 	 	 	 	 	 	 	 	 	 	 	 	1581481992	11.50	21.30
12/02/2020 04:33:13	120220	12022020	043313	197.27	13.340353	-57.015605	197.53	0.810	-0.120	0.950	197.35	-1.50	1.40	 	 	 	 	 	 	 	 	 	 	 	 	 	 	 	 	 	 	1581481993	11.29	20.91
12/02/2020 04:33:14	120220	12022020	043314	197.61	13.340303	-57.015615	197.75	1.020	-0.370	0.450	197.61	-1.80	1.00	 	 	 	 	 	 	 	 	 	 	 	 	 	 	 	 	 	 	1581481994	11.11	20.58
12/02/2020 04:33:15	120220	12022020	043315	197.69	13.340252	-57.015628	197.82	0.750	-0.730	0.610	197.69	-2.10	1.10	 	 	 	 	 	 	 	 	 	 	 	 	 	 	 	 	 	 	1581481995	11.22	20.78
12/02/2020 04:33:16	120220	12022020	043316	197.72	13.340202	-57.015647	197.86	0.080	-0.990	1.160	197.72	-2.40	1.70	 	 	 	 	 	 	 	 	 	 	 	 	 	 	 	 	 	 	1581481996	11.30	20.93
12/02/2020 04:33:17	120220	12022020	043317	197.61	13.340155	-57.015668	197.75	-0.600	-1.100	1.870	197.61	-2.50	2.40	 	 	 	 	 	 	 	 	 	 	 	 	 	 	 	 	 	 	1581481997	11.27	20.87
12/02/2020 04:33:18	120220	12022020	043318	197.32	13.340105	-57.015692	197.46	-0.870	-1.140	2.420	197.32	-2.50	2.90	 	 	 	 	 	 	 	 	 	 	 	 	 	 	 	 	 	 	1581481998	11.33	20.98
12/02/2020 04:33:19	120220	12022020	043319	196.88	13.340055	-57.015713	197.03	-0.620	-1.070	2.500	196.88	-2.40	3.00	 	 	 	 	 	 	 	 	 	 	 	 	 	 	 	 	 	 	1581481999	11.55	21.39
12/02/2020 04:33:20	120220	12022020	043320	196.50	13.340003	-57.015732	196.66	-0.110	-0.750	2.160	196.50	-2.10	2.60	 	 	 	 	 	 	 	 	 	 	 	 	 	 	 	 	 	 	1581482000	11.74	21.74
12/02/2020 04:33:21	120220	12022020	043321	196.27	13.339952	-57.015745	196.43	0.260	-0.170	1.620	196.27	-1.50	2.10	 	 	 	 	 	 	 	 	 	 	 	 	 	 	 	 	 	 	1581482001	11.69	21.65
12/02/2020 04:33:22	120220	12022020	043322	196.24	13.339902	-57.015758	196.41	0.270	0.430	1.240	196.24	-0.90	1.70	 	 	 	 	 	 	 	 	 	 	 	 	 	 	 	 	 	 	1581482002	11.49	21.28
12/02/2020 04:33:23	120220	12022020	043323	196.31	13.339850	-57.015773	196.48	0.050	0.690	1.350	196.31	-0.70	1.90	 	 	 	 	 	 	 	 	 	 	 	 	 	 	 	 	 	 	1581482003	11.30	20.93
12/02/2020 04:33:24	120220	12022020	043324	196.29	13.339798	-57.015792	196.43	-0.100	0.360	1.840	196.26	-1.00	2.40	 	 	 	 	 	 	 	 	 	 	 	 	 	 	 	 	 	 	1581482004	11.36	21.04
12/02/2020 04:33:25	120220	12022020	043325	196.06	13.339745	-57.015812	196.25	-0.120	-0.230	2.460	196.06	-1.60	3.00	 	 	 	 	 	 	 	 	 	 	 	 	 	 	 	 	 	 	1581482005	11.83	21.91
12/02/2020 04:33:26	120220	12022020	043326	196.12	13.339695	-57.015833	196.39	-0.260	-0.300	2.890	196.17	-1.70	3.40	 	 	 	 	 	 	 	 	 	 	 	 	 	 	 	 	 	 	1581482006	12.24	22.67
12/02/2020 04:33:27	120220	12022020	043327	196.62	13.339648	-57.015853	196.84	-0.480	0.170	2.760	196.62	-1.20	3.20	 	 	 	 	 	 	 	 	 	 	 	 	 	 	 	 	 	 	1581482007	11.68	21.63
12/02/2020 04:33:28	120220	12022020	043328	197.11	13.339602	-57.015870	197.31	-0.400	0.290	2.190	197.11	-1.10	2.70	 	 	 	 	 	 	 	 	 	 	 	 	 	 	 	 	 	 	1581482008	10.73	19.87
12/02/2020 04:33:29	120220	12022020	043329	197.33	13.339550	-57.015885	197.50	0.140	-0.370	1.630	197.33	-1.80	2.10	 	 	 	 	 	 	 	 	 	 	 	 	 	 	 	 	 	 	1581482009	10.72	19.85
12/02/2020 04:33:30	120220	12022020	043330	197.46	13.339497	-57.015900	197.64	0.670	-0.980	1.150	197.46	-2.40	1.60	 	 	 	 	 	 	 	 	 	 	 	 	 	 	 	 	 	 	1581482010	11.62	21.52
12/02/2020 04:33:31	120220	12022020	043331	197.77	13.339447	-57.015912	197.93	0.650	-0.860	0.710	197.77	-2.20	1.20	 	 	 	 	 	 	 	 	 	 	 	 	 	 	 	 	 	 	1581482011	11.84	21.93
12/02/2020 04:33:32	120220	12022020	043332	198.07	13.339400	-57.015927	198.20	0.170	-0.400	0.670	198.07	-1.80	1.20	 	 	 	 	 	 	 	 	 	 	 	 	 	 	 	 	 	 	1581482012	11.03	20.43
12/02/2020 04:33:33	120220	12022020	043333	198.15	13.339353	-57.015945	198.25	-0.150	-0.400	1.010	198.15	-1.80	1.50	 	 	 	 	 	 	 	 	 	 	 	 	 	 	 	 	 	 	1581482013	10.48	19.41
12/02/2020 04:33:34	120220	12022020	043334	197.78	13.339300	-57.015963	197.86	0.130	-1.040	1.330	197.78	-2.50	1.80	 	 	 	 	 	 	 	 	 	 	 	 	 	 	 	 	 	 	1581482014	10.95	20.28
12/02/2020 04:33:35	120220	12022020	043335	197.33	13.339245	-57.015980	197.44	0.610	-1.420	1.430	197.33	-2.80	1.90	 	 	 	 	 	 	 	 	 	 	 	 	 	 	 	 	 	 	1581482015	12.00	22.22
12/02/2020 04:33:36	120220	12022020	043336	197.33	13.339195	-57.015995	197.45	0.500	-0.800	1.500	197.33	-2.20	2.00	 	 	 	 	 	 	 	 	 	 	 	 	 	 	 	 	 	 	1581482016	12.31	22.80
12/02/2020 04:33:37	120220	12022020	043337	197.45	13.339147	-57.016012	197.55	-0.260	0.140	1.680	197.45	-1.20	2.20	 	 	 	 	 	 	 	 	 	 	 	 	 	 	 	 	 	 	1581482017	11.34	21.00
12/02/2020 04:33:38	120220	12022020	043338	197.11	13.339098	-57.016035	197.20	-0.960	0.290	2.340	197.11	-1.10	2.90	 	 	 	 	 	 	 	 	 	 	 	 	 	 	 	 	 	 	1581482018	10.73	19.87
12/02/2020 04:33:39	120220	12022020	043339	196.41	13.339047	-57.016063	196.54	-1.090	-0.150	3.090	196.41	-1.50	3.60	 	 	 	 	 	 	 	 	 	 	 	 	 	 	 	 	 	 	1581482019	11.59	21.46
12/02/2020 04:33:40	120220	12022020	043340	195.96	13.338997	-57.016087	196.14	-0.840	-0.010	3.290	195.96	-1.40	3.80	 	 	 	 	 	 	 	 	 	 	 	 	 	 	 	 	 	 	1581482020	12.61	23.35
12/02/2020 04:33:41	120220	12022020	043341	196.01	13.338948	-57.016107	196.21	-0.570	0.640	2.820	196.01	-0.70	3.30	 	 	 	 	 	 	 	 	 	 	 	 	 	 	 	 	 	 	1581482021	12.05	22.32
12/02/2020 04:33:42	120220	12022020	043342	196.39	13.338902	-57.016123	196.57	-0.270	0.990	1.940	196.39	-0.40	2.40	 	 	 	 	 	 	 	 	 	 	 	 	 	 	 	 	 	 	1581482022	10.99	20.35
12/02/2020 04:33:43	120220	12022020	043343	196.71	13.338850	-57.016137	196.93	0.300	0.520	0.980	196.79	-0.90	1.50	 	 	 	 	 	 	 	 	 	 	 	 	 	 	 	 	 	 	1581482023	10.77	19.95
12/02/2020 04:33:44	120220	12022020	043344	197.18	13.338797	-57.016148	197.31	1.090	-0.390	0.190	197.18	-1.80	0.70	 	 	 	 	 	 	 	 	 	 	 	 	 	 	 	 	 	 	1581482024	11.38	21.08
12/02/2020 04:33:45	120220	12022020	043345	197.50	13.338743	-57.016158	197.72	1.520	-0.970	0.070	197.57	-2.40	0.60	 	 	 	 	 	 	 	 	 	 	 	 	 	 	 	 	 	 	1581482025	11.86	21.96
12/02/2020 04:33:46	120220	12022020	043346	197.80	13.338695	-57.016172	197.93	1.150	-1.040	0.650	197.80	-2.40	1.20	 	 	 	 	 	 	 	 	 	 	 	 	 	 	 	 	 	 	1581482026	11.47	21.24
12/02/2020 04:33:47	120220	12022020	043347	197.73	13.338650	-57.016192	197.85	0.180	-1.040	1.760	197.73	-2.40	2.30	 	 	 	 	 	 	 	 	 	 	 	 	 	 	 	 	 	 	1581482027	10.74	19.89
12/02/2020 04:33:48	120220	12022020	043348	197.38	13.338603	-57.016218	197.35	-0.700	-1.320	3.070	197.24	-2.70	3.60	 	 	 	 	 	 	 	 	 	 	 	 	 	 	 	 	 	 	1581482028	10.69	19.80
12/02/2020 04:33:49	120220	12022020	043349	196.26	13.338555	-57.016247	196.35	-0.820	-1.730	4.130	196.26	-3.10	4.60	 	 	 	 	 	 	 	 	 	 	 	 	 	 	 	 	 	 	1581482029	11.41	21.13
12/02/2020 04:33:50	120220	12022020	043350	195.17	13.338503	-57.016272	195.00	-0.190	-1.720	4.610	194.93	-3.10	5.10	 	 	 	 	 	 	 	 	 	 	 	 	 	 	 	 	 	 	1581482030	12.16	22.52
12/02/2020 04:33:51	120220	12022020	043351	194.10	13.338452	-57.016288	194.12	0.300	-0.730	4.410	193.99	-2.10	4.90	 	 	 	 	 	 	 	 	 	 	 	 	 	 	 	 	 	 	1581482031	12.25	22.69
12/02/2020 04:33:52	120220	12022020	043352	194.04	13.338405	-57.016303	194.21	0.020	0.760	3.710	194.04	-0.60	4.20	 	 	 	 	 	 	 	 	 	 	 	 	 	 	 	 	 	 	1581482032	11.49	21.28
12/02/2020 04:33:53	120220	12022020	043353	194.64	13.338358	-57.016318	195.01	-0.740	1.750	2.930	194.83	0.40	3.40	 	 	 	 	 	 	 	 	 	 	 	 	 	 	 	 	 	 	1581482033	10.65	19.72
12/02/2020 04:33:54	120220	12022020	043354	195.80	13.338308	-57.016337	195.99	-1.140	1.700	2.330	195.80	0.30	2.80	 	 	 	 	 	 	 	 	 	 	 	 	 	 	 	 	 	 	1581482034	10.58	19.59
12/02/2020 04:33:55	120220	12022020	043355	196.62	13.338257	-57.016353	196.78	-0.600	0.820	1.740	196.62	-0.60	2.20	 	 	 	 	 	 	 	 	 	 	 	 	 	 	 	 	 	 	1581482035	11.19	20.72
12/02/2020 04:33:56	120220	12022020	043356	197.23	13.338203	-57.016368	197.39	0.430	-0.250	1.400	197.23	-1.70	1.90	 	 	 	 	 	 	 	 	 	 	 	 	 	 	 	 	 	 	1581482036	11.79	21.84
12/02/2020 04:33:57	120220	12022020	043357	197.49	13.338152	-57.016382	197.67	1.080	-1.120	1.410	197.51	-2.50	1.90	 	 	 	 	 	 	 	 	 	 	 	 	 	 	 	 	 	 	1581482037	11.82	21.89
12/02/2020 04:33:58	120220	12022020	043358	197.30	13.338102	-57.016397	197.44	1.030	-1.710	1.880	197.30	-3.10	2.40	 	 	 	 	 	 	 	 	 	 	 	 	 	 	 	 	 	 	1581482038	11.48	21.26
12/02/2020 04:33:59	120220	12022020	043359	196.80	13.338053	-57.016415	196.76	0.660	-1.860	2.450	196.65	-3.20	3.00	 	 	 	 	 	 	 	 	 	 	 	 	 	 	 	 	 	 	1581482039	11.22	20.78
12/02/2020 04:34:00	120220	12022020	043400	195.99	13.338005	-57.016432	196.12	0.310	-1.280	2.650	195.99	-2.60	3.20	 	 	 	 	 	 	 	 	 	 	 	 	 	 	 	 	 	 	1581482040	11.20	20.74
12/02/2020 04:34:01	120220	12022020	043401	195.59	13.337960	-57.016447	195.73	-0.020	-0.230	2.610	195.59	-1.60	3.10	1016.60	25.90	25.90	21.40	21.40	-1.0	76.0	76.0	413.0	25.5	263.00	7.90	65.00	10.40	15	7452.0	27.2	27.2	1581482041	10.84	20.08
12/02/2020 04:34:02	120220	12022020	043402	195.33	13.337912	-57.016463	195.42	-0.320	0.460	2.550	195.27	-0.90	3.00	 	 	 	 	 	 	 	 	 	 	 	 	 	 	 	 	 	 	1581482042	10.41	19.28
12/02/2020 04:34:03	120220	12022020	043403	194.93	13.337862	-57.016482	195.07	-0.500	0.390	2.510	194.93	-1.00	3.00	 	 	 	 	 	 	 	 	 	 	 	 	 	 	 	 	 	 	1581482043	10.74	19.89
12/02/2020 04:34:04	120220	12022020	043404	194.78	13.337810	-57.016503	194.96	-0.610	0.050	2.490	194.78	-1.40	3.00	 	 	 	 	 	 	 	 	 	 	 	 	 	 	 	 	 	 	1581482044	11.59	21.46
12/02/2020 04:34:05	120220	12022020	043405	194.90	13.337760	-57.016523	195.11	-0.620	-0.030	2.450	194.90	-1.40	2.90	 	 	 	 	 	 	 	 	 	 	 	 	 	 	 	 	 	 	1581482045	11.92	22.08
12/02/2020 04:34:06	120220	12022020	043406	195.17	13.337712	-57.016542	195.39	-0.430	0.170	2.220	195.17	-1.20	2.70	 	 	 	 	 	 	 	 	 	 	 	 	 	 	 	 	 	 	1581482046	11.56	21.41
12/02/2020 04:34:07	120220	12022020	043407	195.52	13.337665	-57.016558	195.74	-0.010	0.250	1.860	195.52	-1.20	2.30	 	 	 	 	 	 	 	 	 	 	 	 	 	 	 	 	 	 	1581482047	10.98	20.33
12/02/2020 04:34:08	120220	12022020	043408	195.77	13.337615	-57.016573	195.98	0.530	-0.070	1.520	195.77	-1.50	2.00	 	 	 	 	 	 	 	 	 	 	 	 	 	 	 	 	 	 	1581482048	10.83	20.06
12/02/2020 04:34:09	120220	12022020	043409	195.83	13.337563	-57.016583	196.04	1.000	-0.570	1.180	195.84	-2.00	1.70	 	 	 	 	 	 	 	 	 	 	 	 	 	 	 	 	 	 	1581482049	11.09	20.54
12/02/2020 04:34:10	120220	12022020	043410	196.11	13.337512	-57.016592	196.31	1.050	-0.670	0.760	196.11	-2.10	1.30	 	 	 	 	 	 	 	 	 	 	 	 	 	 	 	 	 	 	1581482050	11.39	21.09
12/02/2020 04:34:11	120220	12022020	043411	196.49	13.337463	-57.016603	196.68	0.570	-0.660	0.820	196.49	-2.10	1.30	 	 	 	 	 	 	 	 	 	 	 	 	 	 	 	 	 	 	1581482051	11.07	20.50
12/02/2020 04:34:12	120220	12022020	043412	196.43	13.337413	-57.016622	196.58	-0.030	-1.120	1.530	196.43	-2.50	2.10	 	 	 	 	 	 	 	 	 	 	 	 	 	 	 	 	 	 	1581482052	10.71	19.83
12/02/2020 04:34:13	120220	12022020	043413	196.04	13.337362	-57.016643	196.04	-0.360	-1.720	2.490	195.90	-3.10	3.00	 	 	 	 	 	 	 	 	 	 	 	 	 	 	 	 	 	 	1581482053	11.35	21.02
12/02/2020 04:34:14	120220	12022020	043414	195.29	13.337310	-57.016665	195.30	-0.460	-1.710	3.290	195.16	-3.10	3.80	 	 	 	 	 	 	 	 	 	 	 	 	 	 	 	 	 	 	1581482054	12.08	22.37
12/02/2020 04:34:15	120220	12022020	043415	194.48	13.337262	-57.016685	194.62	-0.630	-0.880	3.560	194.48	-2.20	4.00	 	 	 	 	 	 	 	 	 	 	 	 	 	 	 	 	 	 	1581482055	11.99	22.21
12/02/2020 04:34:16	120220	12022020	043416	193.95	13.337213	-57.016703	194.10	-0.920	0.260	3.500	193.95	-1.10	4.00	 	 	 	 	 	 	 	 	 	 	 	 	 	 	 	 	 	 	1581482056	11.34	21.00
12/02/2020 04:34:17	120220	12022020	043417	193.56	13.337165	-57.016722	193.69	-1.020	0.970	3.200	193.56	-0.40	3.70	 	 	 	 	 	 	 	 	 	 	 	 	 	 	 	 	 	 	1581482057	10.95	20.28
12/02/2020 04:34:18	120220	12022020	043418	193.27	13.337113	-57.016740	193.42	-0.590	1.060	2.730	193.27	-0.30	3.20	 	 	 	 	 	 	 	 	 	 	 	 	 	 	 	 	 	 	1581482058	11.20	20.74
12/02/2020 04:34:19	120220	12022020	043419	193.28	13.337062	-57.016753	193.45	0.160	0.940	2.340	193.28	-0.40	2.80	 	 	 	 	 	 	 	 	 	 	 	 	 	 	 	 	 	 	1581482059	11.65	21.58
12/02/2020 04:34:20	120220	12022020	043420	193.76	13.337010	-57.016765	193.97	0.670	0.830	1.940	193.76	-0.60	2.40	 	 	 	 	 	 	 	 	 	 	 	 	 	 	 	 	 	 	1581482060	11.63	21.54
12/02/2020 04:34:21	120220	12022020	043421	194.67	13.336962	-57.016778	194.91	0.700	0.560	1.490	194.67	-0.80	2.00	 	 	 	 	 	 	 	 	 	 	 	 	 	 	 	 	 	 	1581482061	11.18	20.71
12/02/2020 04:34:22	120220	12022020	043422	195.81	13.336915	-57.016792	196.04	0.510	0.060	1.140	195.81	-1.30	1.60	 	 	 	 	 	 	 	 	 	 	 	 	 	 	 	 	 	 	1581482062	10.77	19.95
12/02/2020 04:34:23	120220	12022020	043423	196.73	13.336867	-57.016805	196.93	0.490	-0.790	0.970	196.73	-2.20	1.50	 	 	 	 	 	 	 	 	 	 	 	 	 	 	 	 	 	 	1581482063	10.57	19.58
12/02/2020 04:34:24	120220	12022020	043424	196.92	13.336815	-57.016820	197.08	0.750	-2.010	1.320	196.92	-3.40	1.90	 	 	 	 	 	 	 	 	 	 	 	 	 	 	 	 	 	 	1581482064	10.74	19.89
12/02/2020 04:34:25	120220	12022020	043425	196.29	13.336763	-57.016837	196.43	0.920	-2.920	2.130	196.29	-4.30	2.70	 	 	 	 	 	 	 	 	 	 	 	 	 	 	 	 	 	 	1581482065	11.38	21.08
12/02/2020 04:34:26	120220	12022020	043426	195.57	13.336713	-57.016853	195.72	0.500	-2.610	2.830	195.57	-3.90	3.40	 	 	 	 	 	 	 	 	 	 	 	 	 	 	 	 	 	 	1581482066	11.80	21.85
12/02/2020 04:34:27	120220	12022020	043427	194.92	13.336668	-57.016872	195.07	-0.390	-1.340	3.300	194.92	-2.70	3.80	 	 	 	 	 	 	 	 	 	 	 	 	 	 	 	 	 	 	1581482067	11.22	20.78
12/02/2020 04:34:28	120220	12022020	043428	194.20	13.336620	-57.016892	194.34	-1.040	-0.150	3.490	194.20	-1.50	4.00	 	 	 	 	 	 	 	 	 	 	 	 	 	 	 	 	 	 	1581482068	10.60	19.63
12/02/2020 04:34:29	120220	12022020	043429	193.81	13.336570	-57.016910	193.94	-1.060	0.530	3.240	193.76	-0.80	3.70	 	 	 	 	 	 	 	 	 	 	 	 	 	 	 	 	 	 	1581482069	11.00	20.37
12/02/2020 04:34:30	120220	12022020	043430	193.77	13.336517	-57.016927	193.95	-0.600	0.890	2.700	193.77	-0.50	3.20	 	 	 	 	 	 	 	 	 	 	 	 	 	 	 	 	 	 	1581482070	11.75	21.76
12/02/2020 04:34:31	120220	12022020	043431	193.96	13.336462	-57.016940	194.13	-0.140	0.980	2.160	193.96	-0.40	2.70	 	 	 	 	 	 	 	 	 	 	 	 	 	 	 	 	 	 	1581482071	11.97	22.17
12/02/2020 04:34:32	120220	12022020	043432	194.22	13.336408	-57.016953	194.41	-0.070	0.750	2.060	194.22	-0.60	2.60	 	 	 	 	 	 	 	 	 	 	 	 	 	 	 	 	 	 	1581482072	11.94	22.11
12/02/2020 04:34:33	120220	12022020	043433	194.66	13.336358	-57.016972	194.87	-0.390	0.550	2.410	194.66	-0.80	2.90	 	 	 	 	 	 	 	 	 	 	 	 	 	 	 	 	 	 	1581482073	11.91	22.06
12/02/2020 04:34:34	120220	12022020	043434	195.18	13.336312	-57.016992	195.41	-0.710	0.510	2.640	195.18	-0.90	3.10	 	 	 	 	 	 	 	 	 	 	 	 	 	 	 	 	 	 	1581482074	11.47	21.24
12/02/2020 04:34:35	120220	12022020	043435	195.52	13.336265	-57.017010	195.74	-0.530	0.260	2.520	195.52	-1.10	3.00	 	 	 	 	 	 	 	 	 	 	 	 	 	 	 	 	 	 	1581482075	10.86	20.11
12/02/2020 04:34:36	120220	12022020	043436	195.68	13.336215	-57.017025	195.89	0.190	-0.270	1.950	195.68	-1.70	2.40	 	 	 	 	 	 	 	 	 	 	 	 	 	 	 	 	 	 	1581482076	10.74	19.89
12/02/2020 04:34:37	120220	12022020	043437	195.77	13.336165	-57.017035	195.97	0.980	-0.760	1.240	195.77	-2.20	1.70	 	 	 	 	 	 	 	 	 	 	 	 	 	 	 	 	 	 	1581482077	10.96	20.30
12/02/2020 04:34:38	120220	12022020	043438	195.71	13.336115	-57.017045	195.85	1.400	-1.170	0.680	195.68	-2.60	1.20	 	 	 	 	 	 	 	 	 	 	 	 	 	 	 	 	 	 	1581482078	10.97	20.32
12/02/2020 04:34:39	120220	12022020	043439	195.59	13.336065	-57.017055	195.73	1.340	-1.340	0.520	195.56	-2.70	1.10	 	 	 	 	 	 	 	 	 	 	 	 	 	 	 	 	 	 	1581482079	11.00	20.37
12/02/2020 04:34:40	120220	12022020	043440	195.38	13.336017	-57.017067	195.56	0.930	-1.300	0.870	195.38	-2.70	1.40	 	 	 	 	 	 	 	 	 	 	 	 	 	 	 	 	 	 	1581482080	10.97	20.32
12/02/2020 04:34:41	120220	12022020	043441	195.13	13.335967	-57.017083	195.34	0.330	-1.140	1.410	195.13	-2.50	1.90	 	 	 	 	 	 	 	 	 	 	 	 	 	 	 	 	 	 	1581482081	10.97	20.32
12/02/2020 04:34:42	120220	12022020	043442	195.04	13.335918	-57.017102	195.27	-0.400	-0.680	2.080	195.04	-2.00	2.60	 	 	 	 	 	 	 	 	 	 	 	 	 	 	 	 	 	 	1581482082	11.19	20.72
12/02/2020 04:34:43	120220	12022020	043443	195.01	13.335870	-57.017123	195.25	-1.070	-0.140	2.740	195.01	-1.50	3.30	 	 	 	 	 	 	 	 	 	 	 	 	 	 	 	 	 	 	1581482083	11.14	20.63
12/02/2020 04:34:44	120220	12022020	043444	194.82	13.335820	-57.017145	195.04	-1.300	-0.070	3.050	194.82	-1.40	3.60	 	 	 	 	 	 	 	 	 	 	 	 	 	 	 	 	 	 	1581482084	11.12	20.59
12/02/2020 04:34:45	120220	12022020	043445	194.52	13.335767	-57.017165	194.62	-0.900	-0.530	3.060	194.42	-1.90	3.60	 	 	 	 	 	 	 	 	 	 	 	 	 	 	 	 	 	 	1581482085	11.64	21.56
12/02/2020 04:34:46	120220	12022020	043446	193.94	13.335712	-57.017183	194.14	-0.190	-0.700	2.890	193.94	-2.00	3.40	 	 	 	 	 	 	 	 	 	 	 	 	 	 	 	 	 	 	1581482086	12.39	22.95
12/02/2020 04:34:47	120220	12022020	043447	193.78	13.335660	-57.017195	194.03	0.170	0.060	2.330	193.80	-1.30	2.80	 	 	 	 	 	 	 	 	 	 	 	 	 	 	 	 	 	 	1581482087	12.36	22.89
12/02/2020 04:34:48	120220	12022020	043448	194.14	13.335613	-57.017205	194.38	-0.100	1.120	1.690	194.14	-0.20	2.20	 	 	 	 	 	 	 	 	 	 	 	 	 	 	 	 	 	 	1581482088	11.28	20.89
12/02/2020 04:34:49	120220	12022020	043449	194.58	13.335565	-57.017218	194.81	-0.520	1.390	1.460	194.58	0.00	2.00	 	 	 	 	 	 	 	 	 	 	 	 	 	 	 	 	 	 	1581482089	10.38	19.22
12/02/2020 04:34:50	120220	12022020	043450	194.93	13.335515	-57.017235	195.18	-0.420	0.710	1.470	194.93	-0.70	2.00	 	 	 	 	 	 	 	 	 	 	 	 	 	 	 	 	 	 	1581482090	10.68	19.78
12/02/2020 04:34:51	120220	12022020	043451	195.35	13.335462	-57.017250	195.61	0.260	-0.090	1.090	195.35	-1.50	1.60	 	 	 	 	 	 	 	 	 	 	 	 	 	 	 	 	 	 	1581482091	11.53	21.35
12/02/2020 04:34:52	120220	12022020	043452	195.78	13.335412	-57.017260	196.03	0.950	-0.560	0.720	195.78	-1.90	1.20	 	 	 	 	 	 	 	 	 	 	 	 	 	 	 	 	 	 	1581482092	11.61	21.50
12/02/2020 04:34:53	120220	12022020	043453	196.12	13.335363	-57.017273	196.39	1.090	-0.710	0.790	196.18	-2.10	1.30	 	 	 	 	 	 	 	 	 	 	 	 	 	 	 	 	 	 	1581482093	11.14	20.63
12/02/2020 04:34:54	120220	12022020	043454	196.37	13.335318	-57.017288	196.55	0.690	-0.870	1.210	196.37	-2.30	1.70	 	 	 	 	 	 	 	 	 	 	 	 	 	 	 	 	 	 	1581482094	10.57	19.58
12/02/2020 04:34:55	120220	12022020	043455	196.22	13.335270	-57.017307	196.30	0.310	-1.360	1.760	196.15	-2.80	2.30	 	 	 	 	 	 	 	 	 	 	 	 	 	 	 	 	 	 	1581482095	10.44	19.33
12/02/2020 04:34:56	120220	12022020	043456	195.58	13.335220	-57.017325	195.72	0.270	-1.850	2.330	195.58	-3.20	2.90	 	 	 	 	 	 	 	 	 	 	 	 	 	 	 	 	 	 	1581482096	11.02	20.41
12/02/2020 04:34:57	120220	12022020	043457	194.92	13.335168	-57.017343	194.87	0.370	-1.890	2.790	194.73	-3.30	3.30	 	 	 	 	 	 	 	 	 	 	 	 	 	 	 	 	 	 	1581482097	11.53	21.35
12/02/2020 04:34:58	120220	12022020	043458	193.84	13.335118	-57.017358	193.98	0.250	-1.360	3.010	193.84	-2.70	3.50	 	 	 	 	 	 	 	 	 	 	 	 	 	 	 	 	 	 	1581482098	11.57	21.43
12/02/2020 04:34:59	120220	12022020	043459	193.28	13.335068	-57.017373	193.44	-0.310	-0.370	3.080	193.28	-1.70	3.60	 	 	 	 	 	 	 	 	 	 	 	 	 	 	 	 	 	 	1581482099	11.47	21.24
12/02/2020 04:35:00	120220	12022020	043500	193.23	13.335018	-57.017392	193.42	-1.080	0.600	2.960	193.23	-0.80	3.40	 	 	 	 	 	 	 	 	 	 	 	 	 	 	 	 	 	 	1581482100	11.26	20.85
12/02/2020 04:35:01	120220	12022020	043501	193.68	13.334968	-57.017410	193.90	-1.520	1.210	2.640	193.68	-0.20	3.10	1016.50	25.90	25.90	21.50	21.50	-1.0	76.0	76.0	416.0	25.5	261.00	8.00	63.00	10.50	15	7382.0	27.2	27.2	1581482101	11.23	20.80
12/02/2020 04:35:02	120220	12022020	043502	194.53	13.334918	-57.017428	194.77	-1.250	1.420	2.060	194.53	0.00	2.50	 	 	 	 	 	 	 	 	 	 	 	 	 	 	 	 	 	 	1581482102	11.48	21.26
12/02/2020 04:35:03	120220	12022020	043503	195.32	13.334867	-57.017443	195.79	-0.390	1.180	1.300	195.51	-0.20	1.80	 	 	 	 	 	 	 	 	 	 	 	 	 	 	 	 	 	 	1581482103	11.51	21.32
12/02/2020 04:35:04	120220	12022020	043504	196.24	13.334813	-57.017455	196.65	0.440	0.550	0.890	196.38	-0.90	1.40	 	 	 	 	 	 	 	 	 	 	 	 	 	 	 	 	 	 	1581482104	11.49	21.28
12/02/2020 04:35:05	120220	12022020	043505	196.87	13.334765	-57.017468	197.19	0.700	-0.100	1.030	196.94	-1.50	1.50	 	 	 	 	 	 	 	 	 	 	 	 	 	 	 	 	 	 	1581482105	11.48	21.26
12/02/2020 04:35:06	120220	12022020	043506	197.11	13.334718	-57.017485	197.33	0.460	-0.610	1.570	197.11	-2.00	2.10	 	 	 	 	 	 	 	 	 	 	 	 	 	 	 	 	 	 	1581482106	11.07	20.50
12/02/2020 04:35:07	120220	12022020	043507	196.87	13.334672	-57.017503	197.05	0.300	-1.110	2.010	196.87	-2.50	2.50	 	 	 	 	 	 	 	 	 	 	 	 	 	 	 	 	 	 	1581482107	10.61	19.65
12/02/2020 04:35:08	120220	12022020	043508	196.40	13.334623	-57.017518	196.59	0.610	-1.480	1.960	196.40	-2.90	2.40	 	 	 	 	 	 	 	 	 	 	 	 	 	 	 	 	 	 	1581482108	10.66	19.74
12/02/2020 04:35:09	120220	12022020	043509	195.95	13.334573	-57.017530	196.14	1.010	-1.470	1.750	195.95	-2.80	2.20	 	 	 	 	 	 	 	 	 	 	 	 	 	 	 	 	 	 	1581482109	10.85	20.09
12/02/2020 04:35:10	120220	12022020	043510	195.63	13.334525	-57.017542	195.82	0.920	-1.090	1.530	195.63	-2.50	2.00	 	 	 	 	 	 	 	 	 	 	 	 	 	 	 	 	 	 	1581482110	10.87	20.13
12/02/2020 04:35:11	120220	12022020	043511	195.34	13.334477	-57.017555	195.54	0.200	-0.690	1.460	195.34	-2.10	2.00	 	 	 	 	 	 	 	 	 	 	 	 	 	 	 	 	 	 	1581482111	10.76	19.93
12/02/2020 04:35:12	120220	12022020	043512	195.05	13.334427	-57.017575	195.26	-0.680	-0.560	1.970	195.05	-1.90	2.50	 	 	 	 	 	 	 	 	 	 	 	 	 	 	 	 	 	 	1581482112	10.92	20.22
12/02/2020 04:35:13	120220	12022020	043513	194.70	13.334377	-57.017600	194.93	-1.090	-0.530	2.550	194.70	-1.90	3.10	 	 	 	 	 	 	 	 	 	 	 	 	 	 	 	 	 	 	1581482113	11.47	21.24
12/02/2020 04:35:14	120220	12022020	043514	194.44	13.334325	-57.017620	194.67	-0.860	-0.280	2.740	194.44	-1.60	3.20	 	 	 	 	 	 	 	 	 	 	 	 	 	 	 	 	 	 	1581482114	11.94	22.11
12/02/2020 04:35:15	120220	12022020	043515	194.40	13.334275	-57.017637	194.65	-0.400	0.260	2.500	194.41	-1.10	3.00	 	 	 	 	 	 	 	 	 	 	 	 	 	 	 	 	 	 	1581482115	11.81	21.87
12/02/2020 04:35:16	120220	12022020	043516	194.53	13.334227	-57.017652	194.83	-0.160	0.820	2.040	194.57	-0.50	2.50	 	 	 	 	 	 	 	 	 	 	 	 	 	 	 	 	 	 	1581482116	11.35	21.02
12/02/2020 04:35:17	120220	12022020	043517	194.95	13.334177	-57.017663	195.23	-0.260	1.100	1.630	194.95	-0.30	2.10	 	 	 	 	 	 	 	 	 	 	 	 	 	 	 	 	 	 	1581482117	10.99	20.35
12/02/2020 04:35:18	120220	12022020	043518	195.53	13.334130	-57.017678	195.83	-0.410	0.960	1.380	195.53	-0.40	1.90	 	 	 	 	 	 	 	 	 	 	 	 	 	 	 	 	 	 	1581482118	10.83	20.06
12/02/2020 04:35:19	120220	12022020	043519	196.14	13.334080	-57.017693	196.40	-0.250	0.440	1.130	196.14	-1.00	1.60	 	 	 	 	 	 	 	 	 	 	 	 	 	 	 	 	 	 	1581482119	10.80	20.00
12/02/2020 04:35:20	120220	12022020	043520	196.48	13.334032	-57.017708	196.71	0.320	-0.430	1.130	196.48	-1.80	1.60	 	 	 	 	 	 	 	 	 	 	 	 	 	 	 	 	 	 	1581482120	10.87	20.13
12/02/2020 04:35:21	120220	12022020	043521	196.41	13.333980	-57.017723	196.62	1.040	-1.380	1.290	196.41	-2.80	1.80	 	 	 	 	 	 	 	 	 	 	 	 	 	 	 	 	 	 	1581482121	11.09	20.54
12/02/2020 04:35:22	120220	12022020	043522	195.99	13.333930	-57.017737	196.17	1.500	-1.890	1.580	195.99	-3.30	2.10	 	 	 	 	 	 	 	 	 	 	 	 	 	 	 	 	 	 	1581482122	11.34	21.00
12/02/2020 04:35:23	120220	12022020	043523	195.55	13.333882	-57.017748	195.73	1.300	-1.610	1.840	195.55	-3.00	2.40	 	 	 	 	 	 	 	 	 	 	 	 	 	 	 	 	 	 	1581482123	11.26	20.85
12/02/2020 04:35:24	120220	12022020	043524	195.52	13.333835	-57.017762	195.73	0.400	-0.660	1.910	195.52	-2.00	2.40	 	 	 	 	 	 	 	 	 	 	 	 	 	 	 	 	 	 	1581482124	10.81	20.02
12/02/2020 04:35:25	120220	12022020	043525	195.75	13.333790	-57.017780	195.95	-0.710	0.120	1.930	195.75	-1.30	2.40	 	 	 	 	 	 	 	 	 	 	 	 	 	 	 	 	 	 	1581482125	10.21	18.91
12/02/2020 04:35:26	120220	12022020	043526	195.77	13.333742	-57.017800	195.94	-1.270	0.050	2.140	195.77	-1.40	2.70	 	 	 	 	 	 	 	 	 	 	 	 	 	 	 	 	 	 	1581482126	10.32	19.11
12/02/2020 04:35:27	120220	12022020	043527	195.61	13.333690	-57.017822	195.74	-1.000	-0.470	2.450	195.56	-1.90	3.00	 	 	 	 	 	 	 	 	 	 	 	 	 	 	 	 	 	 	1581482127	11.36	21.04
12/02/2020 04:35:28	120220	12022020	043528	195.30	13.333637	-57.017842	195.48	-0.360	-0.660	2.600	195.30	-2.00	3.10	 	 	 	 	 	 	 	 	 	 	 	 	 	 	 	 	 	 	1581482128	12.18	22.56
12/02/2020 04:35:29	120220	12022020	043529	195.16	13.333587	-57.017857	195.36	0.090	-0.320	2.360	195.16	-1.70	2.90	 	 	 	 	 	 	 	 	 	 	 	 	 	 	 	 	 	 	1581482129	11.99	22.21
12/02/2020 04:35:30	120220	12022020	043530	195.24	13.333537	-57.017870	195.51	0.140	0.260	1.860	195.28	-1.10	2.40	 	 	 	 	 	 	 	 	 	 	 	 	 	 	 	 	 	 	1581482130	11.41	21.13
12/02/2020 04:35:31	120220	12022020	043531	195.57	13.333488	-57.017882	195.89	0.010	0.680	1.280	195.65	-0.70	1.80	 	 	 	 	 	 	 	 	 	 	 	 	 	 	 	 	 	 	1581482131	10.96	20.30
12/02/2020 04:35:32	120220	12022020	043532	196.06	13.333438	-57.017895	196.30	-0.060	0.590	0.990	196.06	-0.80	1.50	 	 	 	 	 	 	 	 	 	 	 	 	 	 	 	 	 	 	1581482132	10.78	19.96
12/02/2020 04:35:33	120220	12022020	043533	196.33	13.333388	-57.017912	196.55	-0.050	0.060	1.240	196.33	-1.30	1.80	 	 	 	 	 	 	 	 	 	 	 	 	 	 	 	 	 	 	1581482133	11.04	20.45
12/02/2020 04:35:34	120220	12022020	043534	196.40	13.333340	-57.017932	196.62	-0.030	-0.450	1.740	196.40	-1.80	2.30	 	 	 	 	 	 	 	 	 	 	 	 	 	 	 	 	 	 	1581482134	11.35	21.02
12/02/2020 04:35:35	120220	12022020	043535	196.32	13.333292	-57.017950	196.53	0.030	-0.660	2.080	196.32	-2.00	2.60	 	 	 	 	 	 	 	 	 	 	 	 	 	 	 	 	 	 	1581482135	11.29	20.91
12/02/2020 04:35:36	120220	12022020	043536	196.23	13.333245	-57.017967	196.44	0.200	-0.620	2.000	196.23	-2.00	2.50	 	 	 	 	 	 	 	 	 	 	 	 	 	 	 	 	 	 	1581482136	10.95	20.28
12/02/2020 04:35:37	120220	12022020	043537	196.18	13.333195	-57.017978	196.38	0.440	-0.620	1.710	196.18	-2.00	2.20	 	 	 	 	 	 	 	 	 	 	 	 	 	 	 	 	 	 	1581482137	10.72	19.85
12/02/2020 04:35:38	120220	12022020	043538	196.02	13.333145	-57.017992	196.20	0.650	-0.800	1.550	196.02	-2.20	2.10	 	 	 	 	 	 	 	 	 	 	 	 	 	 	 	 	 	 	1581482138	10.84	20.08
12/02/2020 04:35:39	120220	12022020	043539	195.89	13.333093	-57.018005	196.07	0.660	-0.860	1.480	195.88	-2.20	2.00	 	 	 	 	 	 	 	 	 	 	 	 	 	 	 	 	 	 	1581482139	11.24	20.82
12/02/2020 04:35:40	120220	12022020	043540	195.84	13.333045	-57.018020	196.03	0.400	-0.550	1.630	195.84	-1.90	2.20	 	 	 	 	 	 	 	 	 	 	 	 	 	 	 	 	 	 	1581482140	11.39	21.09
12/02/2020 04:35:41	120220	12022020	043541	195.83	13.332995	-57.018037	196.01	-0.040	-0.140	1.950	195.82	-1.50	2.50	 	 	 	 	 	 	 	 	 	 	 	 	 	 	 	 	 	 	1581482141	11.10	20.56
12/02/2020 04:35:42	120220	12022020	043542	195.81	13.332947	-57.018055	196.01	-0.500	-0.000	2.330	195.81	-1.40	2.80	 	 	 	 	 	 	 	 	 	 	 	 	 	 	 	 	 	 	1581482142	10.95	20.28
12/02/2020 04:35:43	120220	12022020	043543	195.74	13.332897	-57.018075	195.94	-0.840	-0.220	2.750	195.74	-1.60	3.30	 	 	 	 	 	 	 	 	 	 	 	 	 	 	 	 	 	 	1581482143	11.22	20.78
12/02/2020 04:35:44	120220	12022020	043544	195.37	13.332845	-57.018098	195.56	-0.830	-0.570	3.110	195.37	-1.90	3.60	 	 	 	 	 	 	 	 	 	 	 	 	 	 	 	 	 	 	1581482144	11.65	21.58
12/02/2020 04:35:45	120220	12022020	043545	194.93	13.332793	-57.018117	195.11	-0.400	-0.590	2.860	194.93	-2.00	3.30	 	 	 	 	 	 	 	 	 	 	 	 	 	 	 	 	 	 	1581482145	11.95	22.13
12/02/2020 04:35:46	120220	12022020	043546	195.06	13.332743	-57.018127	195.29	0.140	-0.000	1.810	195.06	-1.40	2.30	 	 	 	 	 	 	 	 	 	 	 	 	 	 	 	 	 	 	1581482146	11.75	21.76
12/02/2020 04:35:47	120220	12022020	043547	195.71	13.332695	-57.018135	195.93	0.360	0.540	0.910	195.71	-0.80	1.40	 	 	 	 	 	 	 	 	 	 	 	 	 	 	 	 	 	 	1581482147	10.98	20.33
12/02/2020 04:35:48	120220	12022020	043548	196.31	13.332645	-57.018148	196.51	0.250	0.360	0.710	196.31	-1.00	1.20	 	 	 	 	 	 	 	 	 	 	 	 	 	 	 	 	 	 	1581482148	10.59	19.61
12/02/2020 04:35:49	120220	12022020	043549	196.55	13.332595	-57.018165	196.76	0.070	-0.360	1.190	196.57	-1.80	1.70	 	 	 	 	 	 	 	 	 	 	 	 	 	 	 	 	 	 	1581482149	10.99	20.35
12/02/2020 04:35:50	120220	12022020	043550	196.47	13.332545	-57.018185	196.65	0.030	-0.960	1.990	196.47	-2.40	2.50	 	 	 	 	 	 	 	 	 	 	 	 	 	 	 	 	 	 	1581482150	11.51	21.32
12/02/2020 04:35:51	120220	12022020	043551	196.20	13.332497	-57.018205	196.28	0.140	-1.060	2.630	196.11	-2.40	3.10	 	 	 	 	 	 	 	 	 	 	 	 	 	 	 	 	 	 	1581482151	11.58	21.45
12/02/2020 04:35:52	120220	12022020	043552	195.81	13.332448	-57.018223	195.93	0.230	-0.710	2.780	195.76	-2.10	3.30	 	 	 	 	 	 	 	 	 	 	 	 	 	 	 	 	 	 	1581482152	11.29	20.91
12/02/2020 04:35:53	120220	12022020	043553	195.75	13.332400	-57.018237	196.02	0.170	-0.020	2.410	195.81	-1.40	2.90	 	 	 	 	 	 	 	 	 	 	 	 	 	 	 	 	 	 	1581482153	11.02	20.41
12/02/2020 04:35:54	120220	12022020	043554	196.24	13.332353	-57.018248	196.61	-0.040	0.610	1.580	196.38	-0.80	2.00	 	 	 	 	 	 	 	 	 	 	 	 	 	 	 	 	 	 	1581482154	10.67	19.76
12/02/2020 04:35:55	120220	12022020	043555	196.95	13.332303	-57.018262	197.26	-0.200	0.410	1.050	197.05	-1.00	1.50	 	 	 	 	 	 	 	 	 	 	 	 	 	 	 	 	 	 	1581482155	10.47	19.39
12/02/2020 04:35:56	120220	12022020	043556	197.19	13.332250	-57.018280	197.33	-0.090	-0.680	1.360	197.16	-2.10	1.90	 	 	 	 	 	 	 	 	 	 	 	 	 	 	 	 	 	 	1581482156	11.04	20.45
12/02/2020 04:35:57	120220	12022020	043557	196.66	13.332197	-57.018300	196.82	0.210	-1.710	2.050	196.66	-3.10	2.60	 	 	 	 	 	 	 	 	 	 	 	 	 	 	 	 	 	 	1581482157	12.02	22.26
12/02/2020 04:35:58	120220	12022020	043558	196.05	13.332147	-57.018318	196.22	0.260	-1.570	2.500	196.05	-2.90	3.00	 	 	 	 	 	 	 	 	 	 	 	 	 	 	 	 	 	 	1581482158	12.38	22.93
12/02/2020 04:35:59	120220	12022020	043559	195.58	13.332100	-57.018335	195.75	-0.100	-0.540	2.700	195.58	-1.90	3.20	 	 	 	 	 	 	 	 	 	 	 	 	 	 	 	 	 	 	1581482159	11.46	21.22
12/02/2020 04:36:00	120220	12022020	043600	195.25	13.332053	-57.018353	195.44	-0.500	0.310	2.670	195.25	-1.10	3.10	 	 	 	 	 	 	 	 	 	 	 	 	 	 	 	 	 	 	1581482160	10.47	19.39
12/02/2020 04:36:01	120220	12022020	043601	195.23	13.332005	-57.018370	195.46	-0.570	0.630	2.340	195.23	-0.70	2.80	1016.60	25.90	25.90	21.40	21.50	-1.0	76.0	76.0	424.0	25.5	262.00	9.00	68.00	11.40	15	7238.0	27.2	27.2	1581482161	10.64	19.71
12/02/2020 04:36:02	120220	12022020	043602	195.70	13.331955	-57.018387	195.94	-0.260	0.690	1.720	195.70	-0.70	2.20	 	 	 	 	 	 	 	 	 	 	 	 	 	 	 	 	 	 	1581482162	11.18	20.71
12/02/2020 04:36:03	120220	12022020	043603	196.43	13.331905	-57.018400	196.66	0.120	0.440	1.130	196.43	-1.00	1.60	 	 	 	 	 	 	 	 	 	 	 	 	 	 	 	 	 	 	1581482163	11.28	20.89
12/02/2020 04:36:04	120220	12022020	043604	196.83	13.331853	-57.018417	197.08	0.380	-0.290	1.110	196.89	-1.70	1.60	 	 	 	 	 	 	 	 	 	 	 	 	 	 	 	 	 	 	1581482164	11.25	20.84
12/02/2020 04:36:05	120220	12022020	043605	197.02	13.331802	-57.018433	197.21	0.420	-1.040	1.560	197.03	-2.40	2.10	 	 	 	 	 	 	 	 	 	 	 	 	 	 	 	 	 	 	1581482165	11.57	21.43
12/02/2020 04:36:06	120220	12022020	043606	196.95	13.331752	-57.018450	197.08	0.220	-1.150	2.130	196.90	-2.50	2.60	 	 	 	 	 	 	 	 	 	 	 	 	 	 	 	 	 	 	1581482166	11.70	21.67
12/02/2020 04:36:07	120220	12022020	043607	196.58	13.331705	-57.018468	196.69	-0.060	-0.810	2.680	196.50	-2.20	3.20	 	 	 	 	 	 	 	 	 	 	 	 	 	 	 	 	 	 	1581482167	11.15	20.65
12/02/2020 04:36:08	120220	12022020	043608	196.09	13.331657	-57.018487	196.27	-0.220	-0.430	2.920	196.09	-1.80	3.40	 	 	 	 	 	 	 	 	 	 	 	 	 	 	 	 	 	 	1581482168	10.81	20.02
12/02/2020 04:36:09	120220	12022020	043609	195.73	13.331607	-57.018503	195.89	-0.180	-0.270	2.790	195.73	-1.60	3.30	 	 	 	 	 	 	 	 	 	 	 	 	 	 	 	 	 	 	1581482169	10.89	20.17
12/02/2020 04:36:10	120220	12022020	043610	195.62	13.331557	-57.018518	195.82	-0.070	-0.240	2.320	195.62	-1.60	2.80	 	 	 	 	 	 	 	 	 	 	 	 	 	 	 	 	 	 	1581482170	11.29	20.91
12/02/2020 04:36:11	120220	12022020	043611	195.84	13.331505	-57.018533	196.06	-0.050	-0.060	1.840	195.84	-1.40	2.30	 	 	 	 	 	 	 	 	 	 	 	 	 	 	 	 	 	 	1581482171	11.52	21.34
12/02/2020 04:36:12	120220	12022020	043612	196.15	13.331457	-57.018548	196.35	-0.110	0.150	1.580	196.15	-1.20	2.10	 	 	 	 	 	 	 	 	 	 	 	 	 	 	 	 	 	 	1581482172	11.33	20.98
12/02/2020 04:36:13	120220	12022020	043613	196.27	13.331407	-57.018567	196.47	-0.140	0.040	1.680	196.27	-1.40	2.20	 	 	 	 	 	 	 	 	 	 	 	 	 	 	 	 	 	 	1581482173	11.08	20.52
12/02/2020 04:36:14	120220	12022020	043614	196.39	13.331357	-57.018585	196.59	-0.090	-0.260	1.850	196.39	-1.70	2.30	 	 	 	 	 	 	 	 	 	 	 	 	 	 	 	 	 	 	1581482174	11.30	20.93
12/02/2020 04:36:15	120220	12022020	043615	196.52	13.331307	-57.018603	196.75	0.000	-0.420	1.980	196.54	-1.80	2.50	 	 	 	 	 	 	 	 	 	 	 	 	 	 	 	 	 	 	1581482175	11.49	21.28
12/02/2020 04:36:16	120220	12022020	043616	196.57	13.331258	-57.018618	196.76	0.150	-0.370	1.910	196.56	-1.80	2.40	 	 	 	 	 	 	 	 	 	 	 	 	 	 	 	 	 	 	1581482176	11.30	20.93
12/02/2020 04:36:17	120220	12022020	043617	196.52	13.331208	-57.018632	196.69	0.280	-0.300	1.550	196.51	-1.70	2.00	 	 	 	 	 	 	 	 	 	 	 	 	 	 	 	 	 	 	1581482177	11.02	20.41
12/02/2020 04:36:18	120220	12022020	043618	196.42	13.331158	-57.018645	196.57	0.260	-0.340	1.320	196.39	-1.70	1.80	 	 	 	 	 	 	 	 	 	 	 	 	 	 	 	 	 	 	1581482178	10.97	20.32
12/02/2020 04:36:19	120220	12022020	043619	196.24	13.331108	-57.018658	196.36	0.060	-0.530	1.310	196.20	-1.90	1.80	 	 	 	 	 	 	 	 	 	 	 	 	 	 	 	 	 	 	1581482179	11.11	20.58
12/02/2020 04:36:20	120220	12022020	043620	195.87	13.331057	-57.018677	195.91	-0.140	-0.900	1.590	195.77	-2.30	2.10	 	 	 	 	 	 	 	 	 	 	 	 	 	 	 	 	 	 	1581482180	11.31	20.95
12/02/2020 04:36:21	120220	12022020	043621	195.28	13.331003	-57.018695	195.33	-0.190	-1.150	2.130	195.17	-2.50	2.60	 	 	 	 	 	 	 	 	 	 	 	 	 	 	 	 	 	 	1581482181	11.66	21.59
12/02/2020 04:36:22	120220	12022020	043622	194.95	13.330953	-57.018715	195.15	-0.210	-0.800	2.360	194.95	-2.20	2.80	 	 	 	 	 	 	 	 	 	 	 	 	 	 	 	 	 	 	1581482182	11.93	22.09
12/02/2020 04:36:23	120220	12022020	043623	195.29	13.330907	-57.018733	195.51	-0.390	0.020	2.210	195.29	-1.30	2.70	 	 	 	 	 	 	 	 	 	 	 	 	 	 	 	 	 	 	1581482183	11.57	21.43
12/02/2020 04:36:24	120220	12022020	043624	195.83	13.330858	-57.018752	196.06	-0.550	0.680	2.020	195.83	-0.70	2.50	 	 	 	 	 	 	 	 	 	 	 	 	 	 	 	 	 	 	1581482184	10.92	20.22
12/02/2020 04:36:25	120220	12022020	043625	196.34	13.330810	-57.018767	196.73	-0.430	0.970	1.500	196.50	-0.40	2.00	 	 	 	 	 	 	 	 	 	 	 	 	 	 	 	 	 	 	1581482185	10.84	20.08
12/02/2020 04:36:26	120220	12022020	043626	197.33	13.330760	-57.018780	197.52	-0.120	0.860	0.920	197.33	-0.60	1.40	 	 	 	 	 	 	 	 	 	 	 	 	 	 	 	 	 	 	1581482186	10.97	20.32
12/02/2020 04:36:27	120220	12022020	043627	197.76	13.330708	-57.018795	197.91	0.260	-0.070	0.970	197.76	-1.50	1.50	 	 	 	 	 	 	 	 	 	 	 	 	 	 	 	 	 	 	1581482187	11.01	20.39
12/02/2020 04:36:28	120220	12022020	043628	197.40	13.330653	-57.018812	197.51	0.740	-1.550	1.420	197.40	-3.00	1.90	 	 	 	 	 	 	 	 	 	 	 	 	 	 	 	 	 	 	1581482188	11.53	21.35
12/02/2020 04:36:29	120220	12022020	043629	196.87	13.330602	-57.018828	196.89	0.910	-2.060	1.960	196.75	-3.40	2.50	 	 	 	 	 	 	 	 	 	 	 	 	 	 	 	 	 	 	1581482189	12.38	22.93
12/02/2020 04:36:30	120220	12022020	043630	196.38	13.330555	-57.018843	196.46	0.430	-1.070	2.320	196.31	-2.40	2.80	 	 	 	 	 	 	 	 	 	 	 	 	 	 	 	 	 	 	1581482190	11.93	22.09
12/02/2020 04:36:31	120220	12022020	043631	196.02	13.330512	-57.018860	196.09	-0.330	0.070	2.420	195.95	-1.30	2.90	 	 	 	 	 	 	 	 	 	 	 	 	 	 	 	 	 	 	1581482191	10.37	19.21
12/02/2020 04:36:32	120220	12022020	043632	195.59	13.330462	-57.018880	195.66	-0.720	0.220	2.540	195.50	-1.20	3.00	 	 	 	 	 	 	 	 	 	 	 	 	 	 	 	 	 	 	1581482192	10.07	18.65
12/02/2020 04:36:33	120220	12022020	043633	195.23	13.330408	-57.018900	195.39	-0.610	-0.200	2.630	195.21	-1.60	3.10	 	 	 	 	 	 	 	 	 	 	 	 	 	 	 	 	 	 	1581482193	11.29	20.91
12/02/2020 04:36:34	120220	12022020	043634	195.38	13.330357	-57.018920	195.76	-0.410	-0.240	2.440	195.50	-1.60	2.90	 	 	 	 	 	 	 	 	 	 	 	 	 	 	 	 	 	 	1581482194	12.24	22.67
12/02/2020 04:36:35	120220	12022020	043635	196.44	13.330310	-57.018938	196.71	-0.430	0.250	1.970	196.44	-1.10	2.40	 	 	 	 	 	 	 	 	 	 	 	 	 	 	 	 	 	 	1581482195	11.84	21.93
12/02/2020 04:36:36	120220	12022020	043636	197.39	13.330265	-57.018957	197.88	-0.490	0.720	1.470	197.63	-0.70	1.90	 	 	 	 	 	 	 	 	 	 	 	 	 	 	 	 	 	 	1581482196	10.92	20.22
12/02/2020 04:36:37	120220	12022020	043637	198.50	13.330217	-57.018972	198.91	-0.080	0.580	0.880	198.69	-0.80	1.30	 	 	 	 	 	 	 	 	 	 	 	 	 	 	 	 	 	 	1581482197	10.43	19.32
12/02/2020 04:36:38	120220	12022020	043638	199.23	13.330165	-57.018985	199.47	0.820	-0.300	0.410	199.30	-1.70	0.90	 	 	 	 	 	 	 	 	 	 	 	 	 	 	 	 	 	 	1581482198	10.73	19.87
12/02/2020 04:36:39	120220	12022020	043639	199.28	13.330110	-57.018998	199.41	1.500	-1.490	0.670	199.28	-2.90	1.20	 	 	 	 	 	 	 	 	 	 	 	 	 	 	 	 	 	 	1581482199	11.51	21.32
12/02/2020 04:36:40	120220	12022020	043640	198.94	13.330060	-57.019017	198.97	1.130	-1.830	1.600	198.83	-3.20	2.10	 	 	 	 	 	 	 	 	 	 	 	 	 	 	 	 	 	 	1581482200	12.13	22.46
12/02/2020 04:36:41	120220	12022020	043641	198.38	13.330017	-57.019038	198.40	-0.170	-0.970	2.580	198.25	-2.30	3.10	 	 	 	 	 	 	 	 	 	 	 	 	 	 	 	 	 	 	1581482201	11.54	21.37
12/02/2020 04:36:42	120220	12022020	043642	197.74	13.329975	-57.019062	197.78	-1.350	0.150	3.130	197.63	-1.20	3.60	 	 	 	 	 	 	 	 	 	 	 	 	 	 	 	 	 	 	1581482202	10.44	19.33
12/02/2020 04:36:43	120220	12022020	043643	197.22	13.329928	-57.019087	197.28	-1.460	0.410	3.190	197.13	-1.00	3.70	 	 	 	 	 	 	 	 	 	 	 	 	 	 	 	 	 	 	1581482203	10.24	18.96
12/02/2020 04:36:44	120220	12022020	043644	196.84	13.329877	-57.019108	196.99	-0.530	-0.060	2.750	196.81	-1.50	3.20	 	 	 	 	 	 	 	 	 	 	 	 	 	 	 	 	 	 	1581482204	11.17	20.69
12/02/2020 04:36:45	120220	12022020	043645	196.89	13.329825	-57.019125	197.18	0.450	-0.230	1.920	196.96	-1.60	2.40	 	 	 	 	 	 	 	 	 	 	 	 	 	 	 	 	 	 	1581482205	12.10	22.41
12/02/2020 04:36:46	120220	12022020	043646	197.48	13.329777	-57.019140	197.82	0.670	0.200	1.300	197.62	-1.20	1.80	 	 	 	 	 	 	 	 	 	 	 	 	 	 	 	 	 	 	1581482206	11.80	21.85
12/02/2020 04:36:47	120220	12022020	043647	198.13	13.329732	-57.019157	198.38	0.260	0.520	1.340	198.22	-0.90	1.80	 	 	 	 	 	 	 	 	 	 	 	 	 	 	 	 	 	 	1581482207	10.66	19.74
12/02/2020 04:36:48	120220	12022020	043648	198.26	13.329685	-57.019177	198.31	-0.010	-0.050	1.960	198.19	-1.50	2.50	 	 	 	 	 	 	 	 	 	 	 	 	 	 	 	 	 	 	1581482208	10.21	18.91
12/02/2020 04:36:49	120220	12022020	043649	197.66	13.329635	-57.019198	197.80	0.110	-1.000	2.800	197.66	-2.40	3.30	 	 	 	 	 	 	 	 	 	 	 	 	 	 	 	 	 	 	1581482209	10.99	20.35
12/02/2020 04:36:50	120220	12022020	043650	197.37	13.329587	-57.019220	197.53	0.200	-1.140	3.180	197.34	-2.50	3.60	 	 	 	 	 	 	 	 	 	 	 	 	 	 	 	 	 	 	1581482210	11.82	21.89
12/02/2020 04:36:51	120220	12022020	043651	197.44	13.329543	-57.019240	197.63	0.020	-0.390	2.870	197.44	-1.80	3.30	 	 	 	 	 	 	 	 	 	 	 	 	 	 	 	 	 	 	1581482211	11.23	20.80
12/02/2020 04:36:52	120220	12022020	043652	197.50	13.329500	-57.019255	197.64	-0.140	0.160	2.320	197.49	-1.20	2.80	 	 	 	 	 	 	 	 	 	 	 	 	 	 	 	 	 	 	1581482212	10.07	18.65
12/02/2020 04:36:53	120220	12022020	043653	197.27	13.329450	-57.019270	197.34	0.100	-0.120	1.990	197.19	-1.50	2.50	 	 	 	 	 	 	 	 	 	 	 	 	 	 	 	 	 	 	1581482213	10.04	18.59
12/02/2020 04:36:54	120220	12022020	043654	196.98	13.329400	-57.019285	197.12	0.390	-0.430	1.770	196.95	-1.80	2.30	 	 	 	 	 	 	 	 	 	 	 	 	 	 	 	 	 	 	1581482214	11.09	20.54
12/02/2020 04:36:55	120220	12022020	043655	196.92	13.329352	-57.019300	197.08	0.270	-0.340	1.820	196.92	-1.70	2.30	 	 	 	 	 	 	 	 	 	 	 	 	 	 	 	 	 	 	1581482215	11.40	21.11
12/02/2020 04:36:56	120220	12022020	043656	196.85	13.329305	-57.019318	196.98	-0.160	-0.300	2.230	196.82	-1.70	2.70	 	 	 	 	 	 	 	 	 	 	 	 	 	 	 	 	 	 	1581482216	10.85	20.09
12/02/2020 04:36:57	120220	12022020	043657	196.54	13.329257	-57.019342	196.62	-0.360	-0.620	2.810	196.46	-2.00	3.30	 	 	 	 	 	 	 	 	 	 	 	 	 	 	 	 	 	 	1581482217	10.76	19.93
12/02/2020 04:36:58	120220	12022020	043658	196.10	13.329208	-57.019362	196.19	-0.060	-0.870	3.080	196.02	-2.30	3.50	 	 	 	 	 	 	 	 	 	 	 	 	 	 	 	 	 	 	1581482218	11.33	20.98
12/02/2020 04:36:59	120220	12022020	043659	195.74	13.329160	-57.019378	195.88	0.360	-0.580	2.900	195.70	-1.90	3.40	 	 	 	 	 	 	 	 	 	 	 	 	 	 	 	 	 	 	1581482219	11.50	21.30
12/02/2020 04:37:00	120220	12022020	043700	195.53	13.329113	-57.019392	195.68	0.430	0.060	2.620	195.50	-1.30	3.10	 	 	 	 	 	 	 	 	 	 	 	 	 	 	 	 	 	 	1581482220	10.94	20.26
12/02/2020 04:37:01	120220	12022020	043701	195.44	13.329067	-57.019405	195.65	-0.010	0.500	2.440	195.45	-0.90	2.90	1016.60	26.00	26.00	21.30	21.40	-1.0	75.0	75.0	424.0	25.5	260.00	8.70	66.00	11.20	15	8334.0	27.2	27.2	1581482221	10.41	19.28
12/02/2020 04:37:02	120220	12022020	043702	195.59	13.329020	-57.019425	195.82	-0.650	0.420	2.460	195.63	-1.00	2.90	 	 	 	 	 	 	 	 	 	 	 	 	 	 	 	 	 	 	1581482222	10.41	19.28
12/02/2020 04:37:03	120220	12022020	043703	195.73	13.328972	-57.019447	195.92	-0.890	-0.170	2.730	195.73	-1.60	3.20	 	 	 	 	 	 	 	 	 	 	 	 	 	 	 	 	 	 	1581482223	10.76	19.93
12/02/2020 04:37:04	120220	12022020	043704	195.68	13.328923	-57.019470	195.81	-0.400	-0.840	2.840	195.65	-2.20	3.30	 	 	 	 	 	 	 	 	 	 	 	 	 	 	 	 	 	 	1581482224	11.37	21.06
12/02/2020 04:37:05	120220	12022020	043705	195.43	13.328872	-57.019487	195.52	0.600	-1.090	2.480	195.37	-2.50	2.90	 	 	 	 	 	 	 	 	 	 	 	 	 	 	 	 	 	 	1581482225	11.65	21.58
12/02/2020 04:37:06	120220	12022020	043706	195.18	13.328822	-57.019497	195.35	1.310	-0.710	1.720	195.17	-2.10	2.20	 	 	 	 	 	 	 	 	 	 	 	 	 	 	 	 	 	 	1581482226	11.36	21.04
12/02/2020 04:37:07	120220	12022020	043707	195.40	13.328775	-57.019503	195.71	1.000	0.160	1.220	195.51	-1.20	1.70	 	 	 	 	 	 	 	 	 	 	 	 	 	 	 	 	 	 	1581482227	10.90	20.19
12/02/2020 04:37:08	120220	12022020	043708	195.97	13.328732	-57.019518	196.26	-0.080	0.790	1.430	196.08	-0.60	1.90	 	 	 	 	 	 	 	 	 	 	 	 	 	 	 	 	 	 	1581482228	10.15	18.80
12/02/2020 04:37:09	120220	12022020	043709	196.34	13.328687	-57.019538	196.53	-0.900	0.530	2.090	196.34	-0.90	2.60	 	 	 	 	 	 	 	 	 	 	 	 	 	 	 	 	 	 	1581482229	9.84	18.22
12/02/2020 04:37:10	120220	12022020	043710	196.22	13.328638	-57.019562	196.34	-0.730	-0.470	2.740	196.16	-1.90	3.20	 	 	 	 	 	 	 	 	 	 	 	 	 	 	 	 	 	 	1581482230	10.64	19.71
12/02/2020 04:37:11	120220	12022020	043711	195.85	13.328588	-57.019582	195.93	0.060	-1.300	3.010	195.76	-2.70	3.50	 	 	 	 	 	 	 	 	 	 	 	 	 	 	 	 	 	 	1581482231	11.60	21.48
12/02/2020 04:37:12	120220	12022020	043712	195.39	13.328538	-57.019598	195.45	0.660	-1.470	2.960	195.29	-2.80	3.40	 	 	 	 	 	 	 	 	 	 	 	 	 	 	 	 	 	 	1581482232	11.67	21.61
12/02/2020 04:37:13	120220	12022020	043713	194.91	13.328492	-57.019612	195.08	0.530	-0.980	2.770	194.91	-2.30	3.20	 	 	 	 	 	 	 	 	 	 	 	 	 	 	 	 	 	 	1581482233	11.14	20.63
12/02/2020 04:37:14	120220	12022020	043714	194.82	13.328445	-57.019627	195.02	-0.090	-0.290	2.570	194.83	-1.60	3.00	 	 	 	 	 	 	 	 	 	 	 	 	 	 	 	 	 	 	1581482234	10.56	19.56
12/02/2020 04:37:15	120220	12022020	043715	194.87	13.328398	-57.019643	195.08	-0.620	0.070	2.520	194.87	-1.30	3.00	 	 	 	 	 	 	 	 	 	 	 	 	 	 	 	 	 	 	1581482235	10.35	19.17
12/02/2020 04:37:16	120220	12022020	043716	194.80	13.328348	-57.019663	194.95	-0.630	-0.130	2.690	194.76	-1.50	3.20	 	 	 	 	 	 	 	 	 	 	 	 	 	 	 	 	 	 	1581482236	10.73	19.87
12/02/2020 04:37:17	120220	12022020	043717	194.47	13.328298	-57.019683	194.59	-0.190	-0.350	2.950	194.39	-1.70	3.40	 	 	 	 	 	 	 	 	 	 	 	 	 	 	 	 	 	 	1581482237	11.48	21.26
12/02/2020 04:37:18	120220	12022020	043718	194.25	13.328248	-57.019698	194.51	0.180	0.060	2.660	194.28	-1.30	3.10	 	 	 	 	 	 	 	 	 	 	 	 	 	 	 	 	 	 	1581482238	11.74	21.74
12/02/2020 04:37:19	120220	12022020	043719	194.66	13.328203	-57.019708	195.08	0.170	0.880	1.950	194.82	-0.50	2.40	 	 	 	 	 	 	 	 	 	 	 	 	 	 	 	 	 	 	1581482239	11.04	20.45
12/02/2020 04:37:20	120220	12022020	043720	195.43	13.328157	-57.019722	195.79	-0.000	1.050	1.600	195.55	-0.40	2.10	 	 	 	 	 	 	 	 	 	 	 	 	 	 	 	 	 	 	1581482240	10.08	18.67
12/02/2020 04:37:21	120220	12022020	043721	195.74	13.328107	-57.019737	195.93	0.100	0.020	1.960	195.72	-1.40	2.40	 	 	 	 	 	 	 	 	 	 	 	 	 	 	 	 	 	 	1581482241	10.17	18.83
12/02/2020 04:37:22	120220	12022020	043722	195.40	13.328055	-57.019755	195.48	0.470	-1.350	2.570	195.29	-2.80	3.00	 	 	 	 	 	 	 	 	 	 	 	 	 	 	 	 	 	 	1581482242	11.26	20.85
12/02/2020 04:37:23	120220	12022020	043723	194.76	13.328005	-57.019772	194.85	0.660	-1.760	3.070	194.65	-3.10	3.50	 	 	 	 	 	 	 	 	 	 	 	 	 	 	 	 	 	 	1581482243	11.99	22.21
12/02/2020 04:37:24	120220	12022020	043724	194.20	13.327960	-57.019787	194.34	0.430	-1.040	3.150	194.11	-2.40	3.60	 	 	 	 	 	 	 	 	 	 	 	 	 	 	 	 	 	 	1581482244	11.28	20.89
12/02/2020 04:37:25	120220	12022020	043725	193.91	13.327915	-57.019800	194.14	-0.090	-0.120	2.770	193.89	-1.50	3.20	 	 	 	 	 	 	 	 	 	 	 	 	 	 	 	 	 	 	1581482245	10.15	18.80
12/02/2020 04:37:26	120220	12022020	043726	193.89	13.327868	-57.019813	194.15	-0.510	0.100	2.430	193.90	-1.30	2.90	 	 	 	 	 	 	 	 	 	 	 	 	 	 	 	 	 	 	1581482246	9.86	18.26
12/02/2020 04:37:27	120220	12022020	043727	193.94	13.327818	-57.019832	194.20	-0.570	-0.320	2.330	193.96	-1.70	2.80	 	 	 	 	 	 	 	 	 	 	 	 	 	 	 	 	 	 	1581482247	10.57	19.58
12/02/2020 04:37:28	120220	12022020	043728	194.01	13.327767	-57.019848	194.27	-0.220	-0.770	2.250	194.03	-2.20	2.70	 	 	 	 	 	 	 	 	 	 	 	 	 	 	 	 	 	 	1581482248	11.47	21.24
12/02/2020 04:37:29	120220	12022020	043729	194.16	13.327715	-57.019863	194.41	0.260	-0.760	2.050	194.16	-2.10	2.50	 	 	 	 	 	 	 	 	 	 	 	 	 	 	 	 	 	 	1581482249	11.74	21.74
12/02/2020 04:37:30	120220	12022020	043730	194.36	13.327665	-57.019875	194.68	0.440	-0.260	1.710	194.43	-1.60	2.20	 	 	 	 	 	 	 	 	 	 	 	 	 	 	 	 	 	 	1581482250	11.40	21.11
12/02/2020 04:37:31	120220	12022020	043731	194.75	13.327618	-57.019885	195.10	0.110	0.340	1.410	194.83	-1.00	1.90	 	 	 	 	 	 	 	 	 	 	 	 	 	 	 	 	 	 	1581482251	10.87	20.13
12/02/2020 04:37:32	120220	12022020	043732	195.08	13.327570	-57.019900	195.38	-0.440	0.550	1.540	195.11	-0.80	2.00	 	 	 	 	 	 	 	 	 	 	 	 	 	 	 	 	 	 	1581482252	10.55	19.54
12/02/2020 04:37:33	120220	12022020	043733	195.11	13.327522	-57.019917	195.31	-0.690	0.180	1.870	195.08	-1.20	2.30	 	 	 	 	 	 	 	 	 	 	 	 	 	 	 	 	 	 	1581482253	10.67	19.76
12/02/2020 04:37:34	120220	12022020	043734	194.82	13.327470	-57.019935	194.96	-0.390	-0.490	2.120	194.73	-1.90	2.60	 	 	 	 	 	 	 	 	 	 	 	 	 	 	 	 	 	 	1581482254	11.21	20.76
12/02/2020 04:37:35	120220	12022020	043735	194.29	13.327418	-57.019952	194.43	0.150	-0.910	2.210	194.20	-2.30	2.70	 	 	 	 	 	 	 	 	 	 	 	 	 	 	 	 	 	 	1581482255	11.65	21.58
12/02/2020 04:37:36	120220	12022020	043736	193.88	13.327370	-57.019963	194.08	0.490	-0.630	1.830	193.83	-2.00	2.30	 	 	 	 	 	 	 	 	 	 	 	 	 	 	 	 	 	 	1581482256	11.57	21.43
12/02/2020 04:37:37	120220	12022020	043737	193.73	13.327322	-57.019973	193.97	0.410	-0.020	1.360	193.73	-1.40	1.80	 	 	 	 	 	 	 	 	 	 	 	 	 	 	 	 	 	 	1581482257	10.87	20.13
12/02/2020 04:37:38	120220	12022020	043738	193.75	13.327275	-57.019985	194.01	0.120	0.300	1.210	193.77	-1.10	1.70	 	 	 	 	 	 	 	 	 	 	 	 	 	 	 	 	 	 	1581482258	10.32	19.11
12/02/2020 04:37:39	120220	12022020	043739	193.81	13.327227	-57.020000	194.04	-0.090	0.000	1.520	193.80	-1.40	2.00	 	 	 	 	 	 	 	 	 	 	 	 	 	 	 	 	 	 	1581482259	10.43	19.32
12/02/2020 04:37:40	120220	12022020	043740	193.68	13.327175	-57.020018	193.90	-0.050	-0.640	2.110	193.65	-2.00	2.60	 	 	 	 	 	 	 	 	 	 	 	 	 	 	 	 	 	 	1581482260	11.01	20.39
12/02/2020 04:37:41	120220	12022020	043741	193.56	13.327125	-57.020035	193.81	0.060	-0.930	2.580	193.55	-2.30	3.00	 	 	 	 	 	 	 	 	 	 	 	 	 	 	 	 	 	 	1581482261	11.61	21.50
12/02/2020 04:37:42	120220	12022020	043742	193.66	13.327077	-57.020050	193.92	0.050	-0.640	2.590	193.66	-2.00	3.00	 	 	 	 	 	 	 	 	 	 	 	 	 	 	 	 	 	 	1581482262	11.40	21.11
12/02/2020 04:37:43	120220	12022020	043743	193.93	13.327030	-57.020063	194.25	-0.100	-0.260	2.220	194.00	-1.60	2.70	 	 	 	 	 	 	 	 	 	 	 	 	 	 	 	 	 	 	1581482263	10.74	19.89
12/02/2020 04:37:44	120220	12022020	043744	194.16	13.326980	-57.020077	194.41	-0.180	-0.270	2.050	194.17	-1.70	2.50	 	 	 	 	 	 	 	 	 	 	 	 	 	 	 	 	 	 	1581482264	10.52	19.48
12/02/2020 04:37:45	120220	12022020	043745	194.15	13.326930	-57.020093	194.36	-0.040	-0.550	2.140	194.13	-1.90	2.60	 	 	 	 	 	 	 	 	 	 	 	 	 	 	 	 	 	 	1581482265	10.95	20.28
12/02/2020 04:37:46	120220	12022020	043746	194.05	13.326878	-57.020107	194.25	0.220	-0.660	2.190	194.03	-2.00	2.60	 	 	 	 	 	 	 	 	 	 	 	 	 	 	 	 	 	 	1581482266	11.46	21.22
12/02/2020 04:37:47	120220	12022020	043747	193.87	13.326828	-57.020120	194.04	0.330	-0.490	2.150	193.83	-1.90	2.60	 	 	 	 	 	 	 	 	 	 	 	 	 	 	 	 	 	 	1581482267	11.44	21.19
12/02/2020 04:37:48	120220	12022020	043748	193.68	13.326777	-57.020132	193.89	0.190	-0.170	1.880	193.67	-1.50	2.30	 	 	 	 	 	 	 	 	 	 	 	 	 	 	 	 	 	 	1581482268	11.22	20.78
12/02/2020 04:37:49	120220	12022020	043749	193.73	13.326728	-57.020143	193.96	-0.150	0.130	1.490	193.76	-1.30	2.00	 	 	 	 	 	 	 	 	 	 	 	 	 	 	 	 	 	 	1581482269	11.07	20.50
12/02/2020 04:37:50	120220	12022020	043750	193.82	13.326677	-57.020157	194.02	-0.410	0.130	1.440	193.82	-1.30	1.90	 	 	 	 	 	 	 	 	 	 	 	 	 	 	 	 	 	 	1581482270	10.97	20.32
12/02/2020 04:37:51	120220	12022020	043751	193.77	13.326627	-57.020172	193.97	-0.440	-0.090	1.710	193.75	-1.50	2.20	 	 	 	 	 	 	 	 	 	 	 	 	 	 	 	 	 	 	1581482271	11.18	20.71
12/02/2020 04:37:52	120220	12022020	043752	193.69	13.326577	-57.020188	193.90	-0.250	-0.180	1.880	193.68	-1.60	2.30	 	 	 	 	 	 	 	 	 	 	 	 	 	 	 	 	 	 	1581482272	11.43	21.17
12/02/2020 04:37:53	120220	12022020	043753	193.73	13.326527	-57.020202	194.00	-0.010	-0.010	1.670	193.77	-1.40	2.10	 	 	 	 	 	 	 	 	 	 	 	 	 	 	 	 	 	 	1581482273	11.29	20.91
12/02/2020 04:37:54	120220	12022020	043754	194.03	13.326478	-57.020212	194.32	0.140	0.090	1.350	194.09	-1.30	1.80	 	 	 	 	 	 	 	 	 	 	 	 	 	 	 	 	 	 	1581482274	10.90	20.19
12/02/2020 04:37:55	120220	12022020	043755	194.29	13.326428	-57.020225	194.54	0.200	-0.220	1.490	194.33	-1.60	2.00	 	 	 	 	 	 	 	 	 	 	 	 	 	 	 	 	 	 	1581482275	10.72	19.85
12/02/2020 04:37:56	120220	12022020	043756	194.34	13.326378	-57.020242	194.55	0.210	-0.710	1.870	194.34	-2.10	2.30	 	 	 	 	 	 	 	 	 	 	 	 	 	 	 	 	 	 	1581482276	11.05	20.46
12/02/2020 04:37:57	120220	12022020	043757	194.34	13.326330	-57.020258	194.59	0.100	-0.800	2.130	194.37	-2.20	2.60	 	 	 	 	 	 	 	 	 	 	 	 	 	 	 	 	 	 	1581482277	11.39	21.09
12/02/2020 04:37:58	120220	12022020	043758	194.51	13.326282	-57.020273	194.78	-0.060	-0.510	2.070	194.56	-1.90	2.50	 	 	 	 	 	 	 	 	 	 	 	 	 	 	 	 	 	 	1581482278	11.09	20.54
12/02/2020 04:37:59	120220	12022020	043759	194.64	13.326233	-57.020288	194.82	-0.050	-0.580	1.800	194.63	-2.00	2.20	 	 	 	 	 	 	 	 	 	 	 	 	 	 	 	 	 	 	1581482279	10.62	19.67
12/02/2020 04:38:00	120220	12022020	043800	194.44	13.326182	-57.020303	194.54	0.260	-0.990	1.600	194.37	-2.40	2.10	 	 	 	 	 	 	 	 	 	 	 	 	 	 	 	 	 	 	1581482280	10.99	20.35
12/02/2020 04:38:01	120220	12022020	043801	194.01	13.326128	-57.020315	194.10	0.640	-1.080	1.440	193.93	-2.40	1.90	1016.50	26.00	26.10	21.40	21.40	-1.0	75.0	75.0	420.0	25.5	268.00	8.20	69.00	10.10	15	6788.0	27.2	27.2	1581482281	11.67	21.61
12/02/2020 04:38:02	120220	12022020	043802	193.62	13.326077	-57.020323	193.76	0.620	-0.560	1.390	193.57	-1.90	1.90	 	 	 	 	 	 	 	 	 	 	 	 	 	 	 	 	 	 	1581482282	11.72	21.71
12/02/2020 04:38:03	120220	12022020	043803	193.44	13.326027	-57.020337	193.64	-0.020	0.050	1.740	193.43	-1.30	2.20	 	 	 	 	 	 	 	 	 	 	 	 	 	 	 	 	 	 	1581482283	11.25	20.84
12/02/2020 04:38:04	120220	12022020	043804	193.39	13.325977	-57.020357	193.60	-0.930	0.260	2.510	193.39	-1.10	3.00	 	 	 	 	 	 	 	 	 	 	 	 	 	 	 	 	 	 	1581482284	11.05	20.46
12/02/2020 04:38:05	120220	12022020	043805	193.45	13.325927	-57.020382	193.75	-1.480	0.230	3.150	193.50	-1.10	3.60	 	 	 	 	 	 	 	 	 	 	 	 	 	 	 	 	 	 	1581482285	11.48	21.26
12/02/2020 04:38:06	120220	12022020	043806	193.89	13.325878	-57.020403	194.30	-1.230	0.500	2.980	194.03	-0.90	3.40	 	 	 	 	 	 	 	 	 	 	 	 	 	 	 	 	 	 	1581482286	11.92	22.08
12/02/2020 04:38:07	120220	12022020	043807	194.61	13.325830	-57.020417	195.00	-0.270	0.780	2.110	194.75	-0.60	2.50	 	 	 	 	 	 	 	 	 	 	 	 	 	 	 	 	 	 	1581482287	11.35	21.02
12/02/2020 04:38:08	120220	12022020	043808	195.23	13.325778	-57.020425	195.56	0.760	0.450	1.200	195.33	-1.00	1.60	 	 	 	 	 	 	 	 	 	 	 	 	 	 	 	 	 	 	1581482288	10.75	19.91
12/02/2020 04:38:09	120220	12022020	043809	195.71	13.325727	-57.020432	196.01	1.160	-0.280	0.640	195.79	-1.70	1.10	 	 	 	 	 	 	 	 	 	 	 	 	 	 	 	 	 	 	1581482289	11.20	20.74
12/02/2020 04:38:10	120220	12022020	043810	195.93	13.325675	-57.020445	196.11	0.820	-0.990	0.900	195.91	-2.40	1.40	 	 	 	 	 	 	 	 	 	 	 	 	 	 	 	 	 	 	1581482290	11.46	21.22
12/02/2020 04:38:11	120220	12022020	043811	195.65	13.325627	-57.020462	195.73	0.270	-1.520	1.730	195.55	-2.90	2.20	 	 	 	 	 	 	 	 	 	 	 	 	 	 	 	 	 	 	1581482291	11.21	20.76
12/02/2020 04:38:12	120220	12022020	043812	195.15	13.325577	-57.020480	195.26	0.020	-1.520	2.270	195.07	-2.90	2.70	 	 	 	 	 	 	 	 	 	 	 	 	 	 	 	 	 	 	1581482292	11.21	20.76
12/02/2020 04:38:13	120220	12022020	043813	194.83	13.325530	-57.020497	194.98	-0.040	-1.010	2.410	194.79	-2.40	2.90	 	 	 	 	 	 	 	 	 	 	 	 	 	 	 	 	 	 	1581482293	11.09	20.54
12/02/2020 04:38:14	120220	12022020	043814	194.62	13.325482	-57.020512	194.76	-0.060	-0.590	2.300	194.57	-2.00	2.70	 	 	 	 	 	 	 	 	 	 	 	 	 	 	 	 	 	 	1581482294	10.75	19.91
12/02/2020 04:38:15	120220	12022020	043815	194.35	13.325430	-57.020528	194.46	-0.020	-0.630	2.130	194.28	-2.00	2.60	 	 	 	 	 	 	 	 	 	 	 	 	 	 	 	 	 	 	1581482295	10.96	20.30
12/02/2020 04:38:16	120220	12022020	043816	193.99	13.325375	-57.020545	194.09	0.020	-0.830	2.270	193.92	-2.20	2.70	 	 	 	 	 	 	 	 	 	 	 	 	 	 	 	 	 	 	1581482296	11.70	21.67
12/02/2020 04:38:17	120220	12022020	043817	193.76	13.325322	-57.020563	193.97	-0.120	-0.490	2.590	193.77	-1.80	3.00	 	 	 	 	 	 	 	 	 	 	 	 	 	 	 	 	 	 	1581482297	12.24	22.67
12/02/2020 04:38:18	120220	12022020	043818	194.03	13.325275	-57.020580	194.39	-0.600	0.800	2.730	194.15	-0.50	3.20	 	 	 	 	 	 	 	 	 	 	 	 	 	 	 	 	 	 	1581482298	11.96	22.15
12/02/2020 04:38:19	120220	12022020	043819	194.78	13.325232	-57.020595	195.20	-1.140	2.130	2.480	194.96	0.80	2.90	 	 	 	 	 	 	 	 	 	 	 	 	 	 	 	 	 	 	1581482299	10.70	19.82
12/02/2020 04:38:20	120220	12022020	043820	195.63	13.325185	-57.020612	195.99	-1.200	2.020	2.060	195.78	0.60	2.50	 	 	 	 	 	 	 	 	 	 	 	 	 	 	 	 	 	 	1581482300	9.85	18.24
12/02/2020 04:38:21	120220	12022020	043821	196.28	13.325132	-57.020628	196.59	-0.530	0.470	1.760	196.39	-1.00	2.20	 	 	 	 	 	 	 	 	 	 	 	 	 	 	 	 	 	 	1581482301	10.68	19.78
12/02/2020 04:38:22	120220	12022020	043822	196.73	13.325077	-57.020645	196.99	0.580	-1.120	1.390	196.79	-2.50	1.80	 	 	 	 	 	 	 	 	 	 	 	 	 	 	 	 	 	 	1581482302	12.05	22.32
12/02/2020 04:38:23	120220	12022020	043823	196.93	13.325027	-57.020655	197.10	1.540	-1.690	0.910	196.94	-3.10	1.30	 	 	 	 	 	 	 	 	 	 	 	 	 	 	 	 	 	 	1581482303	12.20	22.59
12/02/2020 04:38:24	120220	12022020	043824	196.84	13.324977	-57.020663	196.94	1.860	-1.540	0.570	196.80	-2.90	1.00	 	 	 	 	 	 	 	 	 	 	 	 	 	 	 	 	 	 	1581482304	11.21	20.76
12/02/2020 04:38:25	120220	12022020	043825	196.65	13.324928	-57.020672	196.79	1.370	-1.220	0.670	196.63	-2.60	1.10	 	 	 	 	 	 	 	 	 	 	 	 	 	 	 	 	 	 	1581482305	10.62	19.67
12/02/2020 04:38:26	120220	12022020	043826	196.60	13.324880	-57.020687	196.78	0.310	-1.060	1.220	196.60	-2.40	1.70	 	 	 	 	 	 	 	 	 	 	 	 	 	 	 	 	 	 	1581482306	10.61	19.65
12/02/2020 04:38:27	120220	12022020	043827	196.59	13.324832	-57.020708	196.76	-0.770	-0.940	2.070	196.57	-2.30	2.50	 	 	 	 	 	 	 	 	 	 	 	 	 	 	 	 	 	 	1581482307	10.95	20.28
12/02/2020 04:38:28	120220	12022020	043828	196.51	13.324783	-57.020733	196.67	-1.350	-0.710	2.870	196.47	-2.10	3.30	 	 	 	 	 	 	 	 	 	 	 	 	 	 	 	 	 	 	1581482308	11.40	21.11
12/02/2020 04:38:29	120220	12022020	043829	196.17	13.324733	-57.020758	196.23	-1.220	-0.540	3.430	196.05	-1.90	3.90	 	 	 	 	 	 	 	 	 	 	 	 	 	 	 	 	 	 	1581482309	11.61	21.50
12/02/2020 04:38:30	120220	12022020	043830	195.47	13.324682	-57.020780	195.48	-0.700	-0.380	3.690	195.32	-1.70	4.10	 	 	 	 	 	 	 	 	 	 	 	 	 	 	 	 	 	 	1581482310	11.85	21.95
12/02/2020 04:38:31	120220	12022020	043831	194.83	13.324630	-57.020798	194.92	-0.340	0.100	3.530	194.74	-1.30	3.90	 	 	 	 	 	 	 	 	 	 	 	 	 	 	 	 	 	 	1581482311	12.08	22.37
12/02/2020 04:38:32	120220	12022020	043832	194.56	13.324580	-57.020815	194.77	-0.250	0.800	3.010	194.57	-0.60	3.40	 	 	 	 	 	 	 	 	 	 	 	 	 	 	 	 	 	 	1581482312	11.75	21.76
12/02/2020 04:38:33	120220	12022020	043833	194.81	13.324532	-57.020828	195.14	-0.190	1.470	2.270	194.93	0.10	2.70	 	 	 	 	 	 	 	 	 	 	 	 	 	 	 	 	 	 	1581482313	11.24	20.82
12/02/2020 04:38:34	120220	12022020	043834	195.62	13.324483	-57.020840	196.05	0.080	1.690	1.340	195.83	0.30	1.80	 	 	 	 	 	 	 	 	 	 	 	 	 	 	 	 	 	 	1581482314	10.82	20.04
12/02/2020 04:38:35	120220	12022020	043835	196.72	13.324433	-57.020850	197.16	0.520	1.030	0.630	196.93	-0.40	1.10	 	 	 	 	 	 	 	 	 	 	 	 	 	 	 	 	 	 	1581482315	10.69	19.80
12/02/2020 04:38:36	120220	12022020	043836	197.69	13.324382	-57.020865	198.06	0.890	-0.380	0.630	197.84	-1.80	1.10	 	 	 	 	 	 	 	 	 	 	 	 	 	 	 	 	 	 	1581482316	11.04	20.45
12/02/2020 04:38:37	120220	12022020	043837	198.26	13.324332	-57.020883	198.50	1.000	-1.810	1.330	198.31	-3.20	1.80	 	 	 	 	 	 	 	 	 	 	 	 	 	 	 	 	 	 	1581482317	11.48	21.26
12/02/2020 04:38:38	120220	12022020	043838	198.28	13.324285	-57.020903	198.38	0.810	-2.510	2.340	198.22	-3.90	2.80	 	 	 	 	 	 	 	 	 	 	 	 	 	 	 	 	 	 	1581482318	11.48	21.26
12/02/2020 04:38:39	120220	12022020	043839	197.77	13.324238	-57.020923	197.78	0.540	-2.440	3.180	197.62	-3.80	3.60	 	 	 	 	 	 	 	 	 	 	 	 	 	 	 	 	 	 	1581482319	11.03	20.43
12/02/2020 04:38:40	120220	12022020	043840	196.98	13.324190	-57.020940	196.98	0.310	-1.970	3.490	196.82	-3.30	3.90	 	 	 	 	 	 	 	 	 	 	 	 	 	 	 	 	 	 	1581482320	10.70	19.82
12/02/2020 04:38:41	120220	12022020	043841	196.24	13.324140	-57.020957	196.29	0.060	-1.230	3.440	196.12	-2.60	3.90	 	 	 	 	 	 	 	 	 	 	 	 	 	 	 	 	 	 	1581482321	10.92	20.22
12/02/2020 04:38:42	120220	12022020	043842	195.81	13.324090	-57.020972	195.96	-0.350	-0.210	3.120	195.77	-1.60	3.50	 	 	 	 	 	 	 	 	 	 	 	 	 	 	 	 	 	 	1581482322	11.25	20.84
12/02/2020 04:38:43	120220	12022020	043843	195.74	13.324042	-57.020988	195.94	-0.910	0.770	2.680	195.75	-0.60	3.10	 	 	 	 	 	 	 	 	 	 	 	 	 	 	 	 	 	 	1581482323	11.22	20.78
12/02/2020 04:38:44	120220	12022020	043844	195.80	13.323992	-57.021008	195.99	-1.330	1.200	2.480	195.80	-0.20	2.90	 	 	 	 	 	 	 	 	 	 	 	 	 	 	 	 	 	 	1581482324	11.18	20.71
12/02/2020 04:38:45	120220	12022020	043845	195.77	13.323940	-57.021030	195.94	-1.260	1.020	2.510	195.76	-0.40	2.90	 	 	 	 	 	 	 	 	 	 	 	 	 	 	 	 	 	 	1581482325	11.54	21.37
12/02/2020 04:38:46	120220	12022020	043846	195.88	13.323888	-57.021050	196.19	-0.730	0.810	2.180	195.98	-0.60	2.60	 	 	 	 	 	 	 	 	 	 	 	 	 	 	 	 	 	 	1581482326	12.06	22.34
12/02/2020 04:38:47	120220	12022020	043847	196.61	13.323838	-57.021065	197.05	-0.120	0.880	1.280	196.83	-0.50	1.70	 	 	 	 	 	 	 	 	 	 	 	 	 	 	 	 	 	 	1581482327	11.87	21.98
12/02/2020 04:38:48	120220	12022020	043848	197.73	13.323792	-57.021077	198.13	0.370	0.750	0.450	197.95	-0.70	0.90	 	 	 	 	 	 	 	 	 	 	 	 	 	 	 	 	 	 	1581482328	10.99	20.35
12/02/2020 04:38:49	120220	12022020	043849	198.56	13.323742	-57.021088	198.75	0.860	-0.070	0.190	198.63	-1.50	0.60	 	 	 	 	 	 	 	 	 	 	 	 	 	 	 	 	 	 	1581482329	10.51	19.46
12/02/2020 04:38:50	120220	12022020	043850	198.63	13.323690	-57.021103	198.68	1.390	-1.340	0.630	198.58	-2.80	1.10	 	 	 	 	 	 	 	 	 	 	 	 	 	 	 	 	 	 	1581482330	10.87	20.13
12/02/2020 04:38:51	120220	12022020	043851	198.21	13.323640	-57.021120	198.22	1.500	-2.040	1.480	198.10	-3.40	1.90	 	 	 	 	 	 	 	 	 	 	 	 	 	 	 	 	 	 	1581482331	11.45	21.21
12/02/2020 04:38:52	120220	12022020	043852	197.68	13.323595	-57.021138	197.72	0.840	-1.750	2.520	197.57	-3.10	3.00	 	 	 	 	 	 	 	 	 	 	 	 	 	 	 	 	 	 	1581482332	11.26	20.85
12/02/2020 04:38:53	120220	12022020	043853	197.18	13.323552	-57.021162	197.25	-0.240	-1.070	3.250	197.09	-2.40	3.70	 	 	 	 	 	 	 	 	 	 	 	 	 	 	 	 	 	 	1581482333	10.51	19.46
12/02/2020 04:38:54	120220	12022020	043854	196.74	13.323507	-57.021185	196.81	-1.000	-0.570	3.490	196.65	-2.00	3.90	 	 	 	 	 	 	 	 	 	 	 	 	 	 	 	 	 	 	1581482334	10.46	19.37
12/02/2020 04:38:55	120220	12022020	043855	196.38	13.323458	-57.021207	196.51	-1.010	-0.260	3.300	196.34	-1.60	3.70	 	 	 	 	 	 	 	 	 	 	 	 	 	 	 	 	 	 	1581482335	10.99	20.35
12/02/2020 04:38:56	120220	12022020	043856	196.35	13.323408	-57.021225	196.58	-0.530	0.210	2.580	196.39	-1.20	3.00	 	 	 	 	 	 	 	 	 	 	 	 	 	 	 	 	 	 	1581482336	11.47	21.24
12/02/2020 04:38:57	120220	12022020	043857	196.65	13.323360	-57.021238	196.89	-0.080	0.690	1.620	196.72	-0.70	2.00	 	 	 	 	 	 	 	 	 	 	 	 	 	 	 	 	 	 	1581482337	11.30	20.93
12/02/2020 04:38:58	120220	12022020	043858	197.00	13.323308	-57.021250	197.20	0.130	0.690	0.920	197.06	-0.70	1.40	 	 	 	 	 	 	 	 	 	 	 	 	 	 	 	 	 	 	1581482338	11.00	20.37
12/02/2020 04:38:59	120220	12022020	043859	197.19	13.323257	-57.021265	197.32	0.240	0.120	0.830	197.19	-1.30	1.30	 	 	 	 	 	 	 	 	 	 	 	 	 	 	 	 	 	 	1581482339	11.16	20.67
12/02/2020 04:39:00	120220	12022020	043900	197.13	13.323205	-57.021280	197.23	0.420	-0.550	0.980	197.11	-2.00	1.40	 	 	 	 	 	 	 	 	 	 	 	 	 	 	 	 	 	 	1581482340	11.53	21.35
12/02/2020 04:39:01	120220	12022020	043901	196.97	13.323155	-57.021295	197.03	0.430	-0.870	1.420	196.92	-2.30	1.90	1016.50	26.00	26.10	21.10	21.30	-1.0	74.0	74.0	420.0	25.6	259.00	10.00	68.00	12.50	15	7709.0	27.2	27.2	1581482341	11.70	21.67
12/02/2020 04:39:02	120220	12022020	043902	196.63	13.323107	-57.021315	196.70	0.120	-0.860	2.290	196.57	-2.30	2.80	 	 	 	 	 	 	 	 	 	 	 	 	 	 	 	 	 	 	1581482342	11.30	20.93
12/02/2020 04:39:03	120220	12022020	043903	196.33	13.323062	-57.021337	196.44	-0.400	-0.580	3.030	196.29	-2.00	3.50	 	 	 	 	 	 	 	 	 	 	 	 	 	 	 	 	 	 	1581482343	11.01	20.39
12/02/2020 04:39:04	120220	12022020	043904	196.09	13.323017	-57.021360	196.19	-0.720	-0.170	3.410	196.02	-1.60	3.90	 	 	 	 	 	 	 	 	 	 	 	 	 	 	 	 	 	 	1581482344	10.86	20.11
12/02/2020 04:39:05	120220	12022020	043905	195.84	13.322970	-57.021380	195.96	-0.520	0.030	3.260	195.82	-1.40	3.70	 	 	 	 	 	 	 	 	 	 	 	 	 	 	 	 	 	 	1581482345	10.77	19.95
12/02/2020 04:39:06	120220	12022020	043906	195.84	13.322920	-57.021397	196.03	0.070	0.040	2.580	195.89	-1.40	3.00	 	 	 	 	 	 	 	 	 	 	 	 	 	 	 	 	 	 	1581482346	10.97	20.32
12/02/2020 04:39:07	120220	12022020	043907	196.20	13.322870	-57.021408	196.47	0.600	0.000	1.690	196.30	-1.40	2.10	 	 	 	 	 	 	 	 	 	 	 	 	 	 	 	 	 	 	1581482347	11.10	20.56
12/02/2020 04:39:08	120220	12022020	043908	196.68	13.322820	-57.021418	196.91	0.730	-0.120	1.140	196.76	-1.50	1.60	 	 	 	 	 	 	 	 	 	 	 	 	 	 	 	 	 	 	1581482348	11.04	20.45
12/02/2020 04:39:09	120220	12022020	043909	196.88	13.322770	-57.021433	196.99	0.560	-0.450	1.300	196.87	-1.90	1.80	 	 	 	 	 	 	 	 	 	 	 	 	 	 	 	 	 	 	1581482349	10.97	20.32
12/02/2020 04:39:10	120220	12022020	043910	196.72	13.322720	-57.021450	196.82	0.270	-0.720	1.790	196.68	-2.10	2.20	 	 	 	 	 	 	 	 	 	 	 	 	 	 	 	 	 	 	1581482350	11.12	20.59
12/02/2020 04:39:11	120220	12022020	043911	196.57	13.322673	-57.021468	196.75	-0.080	-0.650	2.130	196.56	-2.00	2.60	 	 	 	 	 	 	 	 	 	 	 	 	 	 	 	 	 	 	1581482351	11.26	20.85
12/02/2020 04:39:12	120220	12022020	043912	196.56	13.322627	-57.021487	196.74	-0.360	-0.370	2.170	196.56	-1.80	2.60	 	 	 	 	 	 	 	 	 	 	 	 	 	 	 	 	 	 	1581482352	11.01	20.39
12/02/2020 04:39:13	120220	12022020	043913	196.52	13.322578	-57.021503	196.66	-0.380	-0.190	1.890	196.51	-1.60	2.30	 	 	 	 	 	 	 	 	 	 	 	 	 	 	 	 	 	 	1581482353	10.76	19.93
12/02/2020 04:39:14	120220	12022020	043914	196.43	13.322528	-57.021518	196.57	-0.080	-0.290	1.460	196.41	-1.70	1.90	 	 	 	 	 	 	 	 	 	 	 	 	 	 	 	 	 	 	1581482354	10.85	20.09
12/02/2020 04:39:15	120220	12022020	043915	196.35	13.322477	-57.021532	196.48	0.280	-0.530	1.160	196.33	-1.90	1.60	 	 	 	 	 	 	 	 	 	 	 	 	 	 	 	 	 	 	1581482355	11.21	20.76
12/02/2020 04:39:16	120220	12022020	043916	196.19	13.322425	-57.021547	196.29	0.370	-0.760	1.280	196.14	-2.20	1.70	 	 	 	 	 	 	 	 	 	 	 	 	 	 	 	 	 	 	1581482356	11.44	21.19
12/02/2020 04:39:17	120220	12022020	043917	195.96	13.322375	-57.021563	196.10	0.080	-0.780	1.740	195.93	-2.20	2.20	 	 	 	 	 	 	 	 	 	 	 	 	 	 	 	 	 	 	1581482357	11.51	21.32
12/02/2020 04:39:18	120220	12022020	043918	195.86	13.322327	-57.021583	196.04	-0.440	-0.460	2.380	195.84	-1.80	2.80	 	 	 	 	 	 	 	 	 	 	 	 	 	 	 	 	 	 	1581482358	11.44	21.19
12/02/2020 04:39:19	120220	12022020	043919	195.76	13.322280	-57.021605	195.94	-0.820	0.060	3.000	195.73	-1.30	3.40	 	 	 	 	 	 	 	 	 	 	 	 	 	 	 	 	 	 	1581482359	11.16	20.67
12/02/2020 04:39:20	120220	12022020	043920	195.70	13.322233	-57.021625	195.93	-0.830	0.530	2.990	195.72	-0.90	3.40	 	 	 	 	 	 	 	 	 	 	 	 	 	 	 	 	 	 	1581482360	10.97	20.32
12/02/2020 04:39:21	120220	12022020	043921	195.96	13.322187	-57.021642	196.26	-0.510	0.800	2.340	196.05	-0.60	2.80	 	 	 	 	 	 	 	 	 	 	 	 	 	 	 	 	 	 	1581482361	10.89	20.17
12/02/2020 04:39:22	120220	12022020	043922	196.38	13.322137	-57.021655	196.62	0.090	0.440	1.530	196.43	-1.00	2.00	 	 	 	 	 	 	 	 	 	 	 	 	 	 	 	 	 	 	1581482362	10.79	19.98
12/02/2020 04:39:23	120220	12022020	043923	196.56	13.322083	-57.021668	196.74	0.880	-0.420	0.910	196.57	-1.80	1.40	 	 	 	 	 	 	 	 	 	 	 	 	 	 	 	 	 	 	1581482363	11.16	20.67
12/02/2020 04:39:24	120220	12022020	043924	196.54	13.322030	-57.021678	196.69	1.450	-1.050	0.680	196.52	-2.50	1.10	 	 	 	 	 	 	 	 	 	 	 	 	 	 	 	 	 	 	1581482364	11.73	21.72
12/02/2020 04:39:25	120220	12022020	043925	196.44	13.321980	-57.021690	196.61	1.230	-1.040	0.950	196.43	-2.40	1.40	 	 	 	 	 	 	 	 	 	 	 	 	 	 	 	 	 	 	1581482365	11.69	21.65
12/02/2020 04:39:26	120220	12022020	043926	196.44	13.321933	-57.021707	196.63	0.220	-0.520	1.610	196.44	-1.90	2.10	 	 	 	 	 	 	 	 	 	 	 	 	 	 	 	 	 	 	1581482366	11.03	20.43
12/02/2020 04:39:27	120220	12022020	043927	196.45	13.321890	-57.021728	196.64	-0.900	-0.150	2.310	196.45	-1.50	2.80	 	 	 	 	 	 	 	 	 	 	 	 	 	 	 	 	 	 	1581482367	10.40	19.26
12/02/2020 04:39:28	120220	12022020	043928	196.40	13.321842	-57.021752	196.55	-1.320	-0.310	2.700	196.37	-1.70	3.20	 	 	 	 	 	 	 	 	 	 	 	 	 	 	 	 	 	 	1581482368	10.59	19.61
12/02/2020 04:39:29	120220	12022020	043929	196.11	13.321790	-57.021773	196.19	-0.760	-0.970	2.730	196.02	-2.40	3.20	 	 	 	 	 	 	 	 	 	 	 	 	 	 	 	 	 	 	1581482369	11.28	20.89
12/02/2020 04:39:30	120220	12022020	043930	195.59	13.321737	-57.021790	195.64	0.220	-1.340	2.500	195.48	-2.70	2.90	 	 	 	 	 	 	 	 	 	 	 	 	 	 	 	 	 	 	1581482370	12.04	22.30
12/02/2020 04:39:31	120220	12022020	043931	195.09	13.321685	-57.021803	195.18	0.700	-0.820	2.250	195.01	-2.20	2.70	 	 	 	 	 	 	 	 	 	 	 	 	 	 	 	 	 	 	1581482371	12.13	22.46
12/02/2020 04:39:32	120220	12022020	043932	194.88	13.321638	-57.021817	195.08	0.300	0.270	1.990	194.89	-1.10	2.40	 	 	 	 	 	 	 	 	 	 	 	 	 	 	 	 	 	 	1581482372	11.36	21.04
12/02/2020 04:39:33	120220	12022020	043933	195.06	13.321592	-57.021832	195.34	-0.470	1.150	1.770	195.14	-0.20	2.20	 	 	 	 	 	 	 	 	 	 	 	 	 	 	 	 	 	 	1581482373	10.51	19.46
12/02/2020 04:39:34	120220	12022020	043934	195.48	13.321543	-57.021848	195.77	-0.790	1.140	1.580	195.56	-0.30	2.00	 	 	 	 	 	 	 	 	 	 	 	 	 	 	 	 	 	 	1581482374	10.34	19.15
12/02/2020 04:39:35	120220	12022020	043935	195.88	13.321493	-57.021867	196.16	-0.400	0.370	1.540	195.96	-1.00	2.00	 	 	 	 	 	 	 	 	 	 	 	 	 	 	 	 	 	 	1581482375	10.98	20.33
12/02/2020 04:39:36	120220	12022020	043936	196.24	13.321442	-57.021883	196.50	0.260	-0.450	1.580	196.30	-1.90	2.00	 	 	 	 	 	 	 	 	 	 	 	 	 	 	 	 	 	 	1581482376	11.69	21.65
12/02/2020 04:39:37	120220	12022020	043937	196.43	13.321392	-57.021900	196.64	0.640	-0.900	1.570	196.45	-2.30	2.00	 	 	 	 	 	 	 	 	 	 	 	 	 	 	 	 	 	 	1581482377	11.69	21.65
12/02/2020 04:39:38	120220	12022020	043938	196.48	13.321342	-57.021913	196.66	0.560	-0.980	1.560	196.47	-2.40	2.00	 	 	 	 	 	 	 	 	 	 	 	 	 	 	 	 	 	 	1581482378	11.26	20.85
12/02/2020 04:39:39	120220	12022020	043939	196.39	13.321293	-57.021928	196.55	0.290	-0.950	1.620	196.36	-2.30	2.10	 	 	 	 	 	 	 	 	 	 	 	 	 	 	 	 	 	 	1581482379	10.90	20.19
12/02/2020 04:39:40	120220	12022020	043940	196.22	13.321243	-57.021943	196.38	0.170	-0.890	1.590	196.18	-2.30	2.00	 	 	 	 	 	 	 	 	 	 	 	 	 	 	 	 	 	 	1581482380	10.90	20.19
12/02/2020 04:39:41	120220	12022020	043941	196.05	13.321193	-57.021957	196.21	0.190	-0.660	1.560	196.01	-2.00	2.00	 	 	 	 	 	 	 	 	 	 	 	 	 	 	 	 	 	 	1581482381	11.11	20.58
12/02/2020 04:39:42	120220	12022020	043942	195.86	13.321143	-57.021970	196.02	0.100	-0.390	1.730	195.82	-1.80	2.20	 	 	 	 	 	 	 	 	 	 	 	 	 	 	 	 	 	 	1581482382	11.15	20.65
12/02/2020 04:39:43	120220	12022020	043943	195.67	13.321093	-57.021988	195.82	-0.240	-0.290	2.070	195.62	-1.70	2.50	 	 	 	 	 	 	 	 	 	 	 	 	 	 	 	 	 	 	1581482383	11.17	20.69
12/02/2020 04:39:44	120220	12022020	043944	195.38	13.321043	-57.022008	195.49	-0.640	-0.400	2.530	195.29	-1.80	3.00	 	 	 	 	 	 	 	 	 	 	 	 	 	 	 	 	 	 	1581482384	11.40	21.11
12/02/2020 04:39:45	120220	12022020	043945	194.93	13.320993	-57.022032	195.03	-0.780	-0.370	2.900	194.84	-1.70	3.40	 	 	 	 	 	 	 	 	 	 	 	 	 	 	 	 	 	 	1581482385	11.79	21.84
12/02/2020 04:39:46	120220	12022020	043946	194.64	13.320945	-57.022052	194.86	-0.570	0.250	2.690	194.65	-1.10	3.10	 	 	 	 	 	 	 	 	 	 	 	 	 	 	 	 	 	 	1581482386	11.87	21.98
12/02/2020 04:39:47	120220	12022020	043947	194.93	13.320898	-57.022065	195.27	-0.230	1.100	1.880	195.05	-0.30	2.30	 	 	 	 	 	 	 	 	 	 	 	 	 	 	 	 	 	 	1581482387	11.17	20.69
12/02/2020 04:39:48	120220	12022020	043948	195.55	13.320850	-57.022077	195.86	0.130	1.080	1.130	195.66	-0.30	1.60	 	 	 	 	 	 	 	 	 	 	 	 	 	 	 	 	 	 	1581482388	10.35	19.17
12/02/2020 04:39:49	120220	12022020	043949	195.94	13.320797	-57.022090	196.12	0.510	-0.050	0.920	195.96	-1.50	1.40	 	 	 	 	 	 	 	 	 	 	 	 	 	 	 	 	 	 	1581482389	10.73	19.87
12/02/2020 04:39:50	120220	12022020	043950	195.91	13.320743	-57.022107	196.05	0.770	-1.290	1.350	195.88	-2.70	1.80	 	 	 	 	 	 	 	 	 	 	 	 	 	 	 	 	 	 	1581482390	11.73	21.72
12/02/2020 04:39:51	120220	12022020	043951	195.70	13.320693	-57.022123	195.82	0.690	-1.630	1.920	195.65	-3.00	2.40	 	 	 	 	 	 	 	 	 	 	 	 	 	 	 	 	 	 	1581482391	12.05	22.32
12/02/2020 04:39:52	120220	12022020	043952	195.44	13.320647	-57.022140	195.57	0.360	-1.200	2.240	195.39	-2.60	2.70	 	 	 	 	 	 	 	 	 	 	 	 	 	 	 	 	 	 	1581482392	11.27	20.87
12/02/2020 04:39:53	120220	12022020	043953	195.23	13.320600	-57.022155	195.42	0.110	-0.660	2.240	195.22	-2.00	2.70	 	 	 	 	 	 	 	 	 	 	 	 	 	 	 	 	 	 	1581482393	10.57	19.58
12/02/2020 04:39:54	120220	12022020	043954	195.26	13.320550	-57.022168	195.49	0.010	-0.320	1.920	195.28	-1.70	2.40	 	 	 	 	 	 	 	 	 	 	 	 	 	 	 	 	 	 	1581482394	10.61	19.65
12/02/2020 04:39:55	120220	12022020	043955	195.43	13.320500	-57.022182	195.67	-0.140	-0.240	1.860	195.46	-1.60	2.30	 	 	 	 	 	 	 	 	 	 	 	 	 	 	 	 	 	 	1581482395	10.99	20.35
12/02/2020 04:39:56	120220	12022020	043956	195.50	13.320448	-57.022200	195.68	-0.400	-0.310	2.140	195.50	-1.70	2.60	 	 	 	 	 	 	 	 	 	 	 	 	 	 	 	 	 	 	1581482396	11.32	20.96
12/02/2020 04:39:57	120220	12022020	043957	195.39	13.320398	-57.022220	195.54	-0.620	-0.290	2.480	195.36	-1.70	2.90	 	 	 	 	 	 	 	 	 	 	 	 	 	 	 	 	 	 	1581482397	11.59	21.46
12/02/2020 04:39:58	120220	12022020	043958	195.27	13.320348	-57.022238	195.44	-0.630	-0.040	2.540	195.26	-1.40	3.00	 	 	 	 	 	 	 	 	 	 	 	 	 	 	 	 	 	 	1581482398	11.62	21.52
12/02/2020 04:39:59	120220	12022020	043959	195.32	13.320298	-57.022253	195.57	-0.420	0.390	2.110	195.37	-1.00	2.60	 	 	 	 	 	 	 	 	 	 	 	 	 	 	 	 	 	 	1581482399	11.42	21.15
12/02/2020 04:40:00	120220	12022020	044000	195.68	13.320250	-57.022265	195.97	-0.190	0.630	1.480	195.77	-0.80	1.90	 	 	 	 	 	 	 	 	 	 	 	 	 	 	 	 	 	 	1581482400	11.05	20.46
12/02/2020 04:40:01	120220	12022020	044001	196.08	13.320198	-57.022280	196.27	0.080	0.160	1.060	196.12	-1.30	1.50	1016.50	26.00	26.10	20.50	20.80	-1.0	72.0	72.0	420.0	25.6	253.00	10.10	64.00	13.00	15	7796.0	27.2	27.2	1581482401	10.92	20.22
12/02/2020 04:40:02	120220	12022020	044002	196.05	13.320145	-57.022295	196.11	0.490	-0.820	1.200	195.98	-2.30	1.70	 	 	 	 	 	 	 	 	 	 	 	 	 	 	 	 	 	 	1581482402	11.38	21.08
12/02/2020 04:40:03	120220	12022020	044003	195.61	13.320092	-57.022312	195.64	0.890	-1.410	1.520	195.51	-2.80	2.00	 	 	 	 	 	 	 	 	 	 	 	 	 	 	 	 	 	 	1581482403	12.01	22.24
12/02/2020 04:40:04	120220	12022020	044004	195.16	13.320042	-57.022325	195.26	0.790	-1.080	1.800	195.09	-2.50	2.30	 	 	 	 	 	 	 	 	 	 	 	 	 	 	 	 	 	 	1581482404	11.92	22.08
12/02/2020 04:40:05	120220	12022020	044005	194.85	13.319995	-57.022342	194.99	0.150	-0.370	2.060	194.81	-1.70	2.50	 	 	 	 	 	 	 	 	 	 	 	 	 	 	 	 	 	 	1581482405	11.01	20.39
12/02/2020 04:40:06	120220	12022020	044006	194.65	13.319948	-57.022360	194.81	-0.550	0.060	2.280	194.62	-1.30	2.70	 	 	 	 	 	 	 	 	 	 	 	 	 	 	 	 	 	 	1581482406	10.56	19.56
12/02/2020 04:40:07	120220	12022020	044007	194.61	13.319900	-57.022380	194.85	-0.830	0.220	2.250	194.65	-1.20	2.70	 	 	 	 	 	 	 	 	 	 	 	 	 	 	 	 	 	 	1581482407	10.92	20.22
12/02/2020 04:40:08	120220	12022020	044008	194.99	13.319850	-57.022398	195.34	-0.600	0.260	1.800	195.11	-1.10	2.20	 	 	 	 	 	 	 	 	 	 	 	 	 	 	 	 	 	 	1581482408	11.29	20.91
12/02/2020 04:40:09	120220	12022020	044009	195.71	13.319798	-57.022413	196.10	-0.100	0.000	1.320	195.88	-1.40	1.80	 	 	 	 	 	 	 	 	 	 	 	 	 	 	 	 	 	 	1581482409	11.31	20.95
12/02/2020 04:40:10	120220	12022020	044010	196.46	13.319747	-57.022428	196.80	0.330	-0.480	1.140	196.59	-1.90	1.60	 	 	 	 	 	 	 	 	 	 	 	 	 	 	 	 	 	 	1581482410	11.45	21.21
12/02/2020 04:40:11	120220	12022020	044011	196.93	13.319695	-57.022443	197.16	0.500	-0.860	1.270	196.98	-2.30	1.70	 	 	 	 	 	 	 	 	 	 	 	 	 	 	 	 	 	 	1581482411	11.64	21.56
12/02/2020 04:40:12	120220	12022020	044012	197.05	13.319645	-57.022458	197.22	0.330	-0.780	1.710	197.04	-2.20	2.20	 	 	 	 	 	 	 	 	 	 	 	 	 	 	 	 	 	 	1581482412	11.59	21.46
12/02/2020 04:40:13	120220	12022020	044013	196.94	13.319598	-57.022475	197.07	-0.060	-0.320	2.170	196.90	-1.70	2.60	 	 	 	 	 	 	 	 	 	 	 	 	 	 	 	 	 	 	1581482413	11.17	20.69
12/02/2020 04:40:14	120220	12022020	044014	196.68	13.319550	-57.022492	196.77	-0.400	0.010	2.320	196.62	-1.40	2.80	 	 	 	 	 	 	 	 	 	 	 	 	 	 	 	 	 	 	1581482414	10.76	19.93
12/02/2020 04:40:15	120220	12022020	044015	196.33	13.319500	-57.022508	196.39	-0.450	-0.180	2.280	196.24	-1.60	2.70	 	 	 	 	 	 	 	 	 	 	 	 	 	 	 	 	 	 	1581482415	10.82	20.04
12/02/2020 04:40:16	120220	12022020	044016	195.84	13.319447	-57.022527	195.87	-0.150	-0.740	2.240	195.73	-2.20	2.70	 	 	 	 	 	 	 	 	 	 	 	 	 	 	 	 	 	 	1581482416	11.40	21.11
12/02/2020 04:40:17	120220	12022020	044017	195.28	13.319393	-57.022545	195.34	0.290	-1.020	1.980	195.20	-2.40	2.40	 	 	 	 	 	 	 	 	 	 	 	 	 	 	 	 	 	 	1581482417	12.00	22.22
12/02/2020 04:40:18	120220	12022020	044018	194.95	13.319343	-57.022558	195.10	0.480	-0.540	1.460	194.94	-1.90	1.90	 	 	 	 	 	 	 	 	 	 	 	 	 	 	 	 	 	 	1581482418	12.00	22.22
12/02/2020 04:40:19	120220	12022020	044019	195.03	13.319297	-57.022570	195.25	0.190	0.310	1.030	195.08	-1.10	1.50	 	 	 	 	 	 	 	 	 	 	 	 	 	 	 	 	 	 	1581482419	11.20	20.74
12/02/2020 04:40:20	120220	12022020	044020	195.31	13.319248	-57.022583	195.53	-0.270	0.590	0.980	195.35	-0.80	1.40	 	 	 	 	 	 	 	 	 	 	 	 	 	 	 	 	 	 	1581482420	10.53	19.50
12/02/2020 04:40:21	120220	12022020	044021	195.48	13.319197	-57.022603	195.66	-0.450	-0.040	1.390	195.49	-1.50	1.90	 	 	 	 	 	 	 	 	 	 	 	 	 	 	 	 	 	 	1581482421	10.78	19.96
12/02/2020 04:40:22	120220	12022020	044022	195.53	13.319143	-57.022625	195.73	-0.240	-0.860	2.030	195.55	-2.30	2.50	 	 	 	 	 	 	 	 	 	 	 	 	 	 	 	 	 	 	1581482422	11.81	21.87
12/02/2020 04:40:23	120220	12022020	044023	195.73	13.319093	-57.022643	195.99	-0.010	-0.880	2.340	195.79	-2.30	2.80	 	 	 	 	 	 	 	 	 	 	 	 	 	 	 	 	 	 	1581482423	12.31	22.80
12/02/2020 04:40:24	120220	12022020	044024	196.02	13.319045	-57.022660	196.26	0.000	-0.270	2.330	196.07	-1.70	2.80	 	 	 	 	 	 	 	 	 	 	 	 	 	 	 	 	 	 	1581482424	11.52	21.34
12/02/2020 04:40:25	120220	12022020	044025	196.21	13.318998	-57.022673	196.41	-0.090	0.140	2.110	196.23	-1.30	2.60	 	 	 	 	 	 	 	 	 	 	 	 	 	 	 	 	 	 	1581482425	10.63	19.69
12/02/2020 04:40:26	120220	12022020	044026	196.30	13.318948	-57.022688	196.49	-0.110	0.080	1.910	196.32	-1.30	2.40	 	 	 	 	 	 	 	 	 	 	 	 	 	 	 	 	 	 	1581482426	10.71	19.83
12/02/2020 04:40:27	120220	12022020	044027	196.37	13.318898	-57.022705	196.57	-0.020	-0.080	1.820	196.39	-1.50	2.30	 	 	 	 	 	 	 	 	 	 	 	 	 	 	 	 	 	 	1581482427	11.19	20.72
12/02/2020 04:40:28	120220	12022020	044028	196.51	13.318848	-57.022720	196.71	0.100	-0.030	1.490	196.54	-1.40	1.90	 	 	 	 	 	 	 	 	 	 	 	 	 	 	 	 	 	 	1581482428	11.35	21.02
12/02/2020 04:40:29	120220	12022020	044029	196.53	13.318800	-57.022735	196.63	0.270	-0.190	1.190	196.50	-1.60	1.60	 	 	 	 	 	 	 	 	 	 	 	 	 	 	 	 	 	 	1581482429	10.98	20.33
12/02/2020 04:40:30	120220	12022020	044030	196.24	13.318747	-57.022748	196.29	0.520	-0.800	1.150	196.16	-2.20	1.60	 	 	 	 	 	 	 	 	 	 	 	 	 	 	 	 	 	 	1581482430	11.03	20.43
12/02/2020 04:40:31	120220	12022020	044031	195.77	13.318693	-57.022763	195.81	0.680	-1.390	1.480	195.67	-2.80	2.00	 	 	 	 	 	 	 	 	 	 	 	 	 	 	 	 	 	 	1581482431	11.65	21.58
12/02/2020 04:40:32	120220	12022020	044032	195.33	13.318642	-57.022780	195.45	0.460	-1.370	1.940	195.28	-2.80	2.40	 	 	 	 	 	 	 	 	 	 	 	 	 	 	 	 	 	 	1581482432	11.94	22.11
12/02/2020 04:40:33	120220	12022020	044033	195.17	13.318593	-57.022798	195.37	-0.210	-0.690	2.480	195.16	-2.10	3.00	 	 	 	 	 	 	 	 	 	 	 	 	 	 	 	 	 	 	1581482433	11.63	21.54
12/02/2020 04:40:34	120220	12022020	044034	195.09	13.318547	-57.022820	195.26	-0.890	0.050	3.060	195.06	-1.30	3.50	 	 	 	 	 	 	 	 	 	 	 	 	 	 	 	 	 	 	1581482434	11.03	20.43
12/02/2020 04:40:35	120220	12022020	044035	194.93	13.318498	-57.022842	195.11	-1.060	0.380	3.350	194.90	-1.00	3.80	 	 	 	 	 	 	 	 	 	 	 	 	 	 	 	 	 	 	1581482435	11.02	20.41
12/02/2020 04:40:36	120220	12022020	044036	194.94	13.318447	-57.022862	195.21	-0.630	0.390	3.030	194.99	-1.00	3.50	 	 	 	 	 	 	 	 	 	 	 	 	 	 	 	 	 	 	1581482436	11.51	21.32
12/02/2020 04:40:37	120220	12022020	044037	195.37	13.318395	-57.022877	195.71	0.040	0.410	2.300	195.50	-1.00	2.70	 	 	 	 	 	 	 	 	 	 	 	 	 	 	 	 	 	 	1581482437	11.76	21.78
12/02/2020 04:40:38	120220	12022020	044038	196.09	13.318345	-57.022888	196.42	0.470	0.290	1.570	196.23	-1.10	2.00	 	 	 	 	 	 	 	 	 	 	 	 	 	 	 	 	 	 	1581482438	11.54	21.37
12/02/2020 04:40:39	120220	12022020	044039	196.66	13.318293	-57.022902	196.87	0.560	-0.140	1.290	196.73	-1.60	1.80	 	 	 	 	 	 	 	 	 	 	 	 	 	 	 	 	 	 	1581482439	11.33	20.98
12/02/2020 04:40:40	120220	12022020	044040	196.85	13.318242	-57.022915	197.00	0.450	-0.530	1.290	196.87	-1.90	1.80	 	 	 	 	 	 	 	 	 	 	 	 	 	 	 	 	 	 	1581482440	11.38	21.08
12/02/2020 04:40:41	120220	12022020	044041	196.91	13.318193	-57.022928	197.04	0.260	-0.630	1.360	196.91	-2.00	1.80	 	 	 	 	 	 	 	 	 	 	 	 	 	 	 	 	 	 	1581482441	11.33	20.98
12/02/2020 04:40:42	120220	12022020	044042	196.76	13.318143	-57.022943	196.78	0.060	-0.940	1.730	196.67	-2.40	2.20	 	 	 	 	 	 	 	 	 	 	 	 	 	 	 	 	 	 	1581482442	10.96	20.30
12/02/2020 04:40:43	120220	12022020	044043	196.17	13.318092	-57.022963	196.14	-0.090	-1.380	2.300	196.05	-2.80	2.80	 	 	 	 	 	 	 	 	 	 	 	 	 	 	 	 	 	 	1581482443	11.21	20.76
12/02/2020 04:40:44	120220	12022020	044044	195.57	13.318040	-57.022983	195.61	-0.260	-1.390	2.620	195.49	-2.80	3.10	 	 	 	 	 	 	 	 	 	 	 	 	 	 	 	 	 	 	1581482444	11.80	21.85
12/02/2020 04:40:45	120220	12022020	044045	195.32	13.317992	-57.023002	195.45	-0.400	-0.740	2.450	195.31	-2.10	2.90	 	 	 	 	 	 	 	 	 	 	 	 	 	 	 	 	 	 	1581482445	11.78	21.82
12/02/2020 04:40:46	120220	12022020	044046	195.34	13.317943	-57.023020	195.50	-0.370	0.090	2.100	195.35	-1.30	2.50	 	 	 	 	 	 	 	 	 	 	 	 	 	 	 	 	 	 	1581482446	11.25	20.84
12/02/2020 04:40:47	120220	12022020	044047	195.43	13.317893	-57.023033	195.62	-0.080	0.600	1.660	195.46	-0.80	2.10	 	 	 	 	 	 	 	 	 	 	 	 	 	 	 	 	 	 	1581482447	11.00	20.37
12/02/2020 04:40:48	120220	12022020	044048	195.69	13.317842	-57.023047	195.96	0.160	0.800	1.370	195.77	-0.60	1.80	 	 	 	 	 	 	 	 	 	 	 	 	 	 	 	 	 	 	1581482448	11.30	20.93
12/02/2020 04:40:49	120220	12022020	044049	196.16	13.317790	-57.023063	196.44	0.080	0.760	1.370	196.27	-0.70	1.80	 	 	 	 	 	 	 	 	 	 	 	 	 	 	 	 	 	 	1581482449	11.47	21.24
12/02/2020 04:40:50	120220	12022020	044050	196.65	13.317740	-57.023082	196.91	-0.100	0.300	1.540	196.73	-1.10	2.00	 	 	 	 	 	 	 	 	 	 	 	 	 	 	 	 	 	 	1581482450	11.30	20.93
12/02/2020 04:40:51	120220	12022020	044051	196.90	13.317690	-57.023100	197.06	0.040	-0.540	1.900	196.90	-2.00	2.40	 	 	 	 	 	 	 	 	 	 	 	 	 	 	 	 	 	 	1581482451	11.39	21.09
12/02/2020 04:40:52	120220	12022020	044052	196.73	13.317638	-57.023120	196.82	0.540	-1.340	2.280	196.66	-2.80	2.80	 	 	 	 	 	 	 	 	 	 	 	 	 	 	 	 	 	 	1581482452	11.69	21.65
12/02/2020 04:40:53	120220	12022020	044053	196.35	13.317587	-57.023135	196.46	0.910	-1.420	2.280	196.29	-2.80	2.70	 	 	 	 	 	 	 	 	 	 	 	 	 	 	 	 	 	 	1581482453	11.41	21.13
12/02/2020 04:40:54	120220	12022020	044054	196.13	13.317538	-57.023147	196.31	0.660	-0.790	1.970	196.12	-2.20	2.40	 	 	 	 	 	 	 	 	 	 	 	 	 	 	 	 	 	 	1581482454	11.41	21.13
12/02/2020 04:40:55	120220	12022020	044055	196.08	13.317492	-57.023162	196.22	-0.090	-0.260	1.830	196.05	-1.60	2.30	 	 	 	 	 	 	 	 	 	 	 	 	 	 	 	 	 	 	1581482455	10.69	19.80
12/02/2020 04:40:56	120220	12022020	044056	195.85	13.317440	-57.023178	195.95	-0.700	-0.360	1.990	195.79	-1.80	2.50	 	 	 	 	 	 	 	 	 	 	 	 	 	 	 	 	 	 	1581482456	10.68	19.78
12/02/2020 04:40:57	120220	12022020	044057	195.66	13.317388	-57.023200	195.81	-0.870	-0.670	2.180	195.64	-2.10	2.60	 	 	 	 	 	 	 	 	 	 	 	 	 	 	 	 	 	 	1581482457	11.53	21.35
12/02/2020 04:40:58	120220	12022020	044058	195.66	13.317337	-57.023220	195.85	-0.690	-0.610	2.290	195.68	-2.00	2.70	 	 	 	 	 	 	 	 	 	 	 	 	 	 	 	 	 	 	1581482458	12.09	22.39
12/02/2020 04:40:59	120220	12022020	044059	195.74	13.317287	-57.023238	195.91	-0.360	-0.220	2.180	195.75	-1.60	2.60	 	 	 	 	 	 	 	 	 	 	 	 	 	 	 	 	 	 	1581482459	11.85	21.95
12/02/2020 04:41:00	120220	12022020	044100	195.76	13.317237	-57.023255	195.88	0.020	0.090	1.860	195.75	-1.30	2.30	 	 	 	 	 	 	 	 	 	 	 	 	 	 	 	 	 	 	1581482460	11.40	21.11
12/02/2020 04:41:01	120220	12022020	044101	195.75	13.317183	-57.023268	195.90	0.380	0.180	1.490	195.77	-1.20	2.00	1016.50	26.10	26.20	20.60	20.80	-1.0	71.0	72.0	420.0	25.6	255.00	10.00	65.00	12.90	15	8211.0	27.2	27.2	1581482461	11.36	21.04
12/02/2020 04:41:02	120220	12022020	044102	195.87	13.317132	-57.023280	196.05	0.490	0.190	1.380	195.90	-1.20	1.90	 	 	 	 	 	 	 	 	 	 	 	 	 	 	 	 	 	 	1581482462	11.58	21.45
12/02/2020 04:41:03	120220	12022020	044103	196.04	13.317080	-57.023295	196.22	0.260	0.090	1.510	196.07	-1.30	2.00	 	 	 	 	 	 	 	 	 	 	 	 	 	 	 	 	 	 	1581482463	11.55	21.39
12/02/2020 04:41:04	120220	12022020	044104	196.25	13.317032	-57.023313	196.46	-0.100	0.080	1.750	196.31	-1.30	2.20	 	 	 	 	 	 	 	 	 	 	 	 	 	 	 	 	 	 	1581482464	11.49	21.28
12/02/2020 04:41:05	120220	12022020	044105	196.66	13.316985	-57.023332	196.91	-0.350	0.270	1.940	196.76	-1.10	2.40	 	 	 	 	 	 	 	 	 	 	 	 	 	 	 	 	 	 	1581482465	11.27	20.87
12/02/2020 04:41:06	120220	12022020	044106	197.09	13.316937	-57.023350	197.26	-0.210	0.120	1.840	197.13	-1.30	2.30	 	 	 	 	 	 	 	 	 	 	 	 	 	 	 	 	 	 	1581482466	10.79	19.98
12/02/2020 04:41:07	120220	12022020	044107	197.09	13.316885	-57.023367	197.10	0.350	-0.810	1.620	197.02	-2.30	2.10	 	 	 	 	 	 	 	 	 	 	 	 	 	 	 	 	 	 	1581482467	10.82	20.04
12/02/2020 04:41:08	120220	12022020	044108	196.55	13.316830	-57.023383	196.49	1.000	-1.900	1.760	196.41	-3.30	2.20	 	 	 	 	 	 	 	 	 	 	 	 	 	 	 	 	 	 	1581482468	11.72	21.71
12/02/2020 04:41:09	120220	12022020	044109	195.77	13.316777	-57.023398	195.71	1.100	-2.080	2.090	195.61	-3.50	2.60	 	 	 	 	 	 	 	 	 	 	 	 	 	 	 	 	 	 	1581482469	12.40	22.96
12/02/2020 04:41:10	120220	12022020	044110	195.10	13.316727	-57.023413	195.12	0.380	-1.090	2.370	195.00	-2.40	2.80	 	 	 	 	 	 	 	 	 	 	 	 	 	 	 	 	 	 	1581482470	11.98	22.19
12/02/2020 04:41:11	120220	12022020	044111	194.83	13.316682	-57.023432	195.00	-0.710	0.280	2.510	194.83	-1.10	3.00	 	 	 	 	 	 	 	 	 	 	 	 	 	 	 	 	 	 	1581482471	10.97	20.32
12/02/2020 04:41:12	120220	12022020	044112	195.07	13.316635	-57.023452	195.38	-1.410	1.200	2.240	195.18	-0.20	2.70	 	 	 	 	 	 	 	 	 	 	 	 	 	 	 	 	 	 	1581482472	10.54	19.52
12/02/2020 04:41:13	120220	12022020	044113	195.76	13.316585	-57.023470	196.13	-1.320	1.210	1.640	195.91	-0.20	2.10	 	 	 	 	 	 	 	 	 	 	 	 	 	 	 	 	 	 	1581482473	10.84	20.08
12/02/2020 04:41:14	120220	12022020	044114	196.49	13.316530	-57.023488	196.82	-0.520	0.330	1.330	196.62	-1.10	1.80	 	 	 	 	 	 	 	 	 	 	 	 	 	 	 	 	 	 	1581482474	11.52	21.34
12/02/2020 04:41:15	120220	12022020	044115	197.09	13.316475	-57.023507	197.40	0.450	-0.680	1.160	197.21	-2.10	1.60	 	 	 	 	 	 	 	 	 	 	 	 	 	 	 	 	 	 	1581482475	12.32	22.82
12/02/2020 04:41:16	120220	12022020	044116	197.68	13.316423	-57.023522	197.97	0.920	-0.940	1.190	197.79	-2.30	1.70	 	 	 	 	 	 	 	 	 	 	 	 	 	 	 	 	 	 	1581482476	12.50	23.15
12/02/2020 04:41:17	120220	12022020	044117	198.13	13.316375	-57.023535	198.35	0.690	-0.530	1.530	198.18	-1.90	2.00	 	 	 	 	 	 	 	 	 	 	 	 	 	 	 	 	 	 	1581482477	11.60	21.48
12/02/2020 04:41:18	120220	12022020	044118	198.14	13.316328	-57.023552	198.21	0.260	-0.330	1.930	198.06	-1.70	2.40	 	 	 	 	 	 	 	 	 	 	 	 	 	 	 	 	 	 	1581482478	10.63	19.69
12/02/2020 04:41:19	120220	12022020	044119	197.60	13.316278	-57.023572	197.61	0.040	-0.620	2.410	197.46	-2.00	2.90	 	 	 	 	 	 	 	 	 	 	 	 	 	 	 	 	 	 	1581482479	10.74	19.89
12/02/2020 04:41:20	120220	12022020	044120	196.85	13.316227	-57.023592	196.88	-0.030	-0.750	2.740	196.72	-2.10	3.20	 	 	 	 	 	 	 	 	 	 	 	 	 	 	 	 	 	 	1581482480	11.57	21.43
12/02/2020 04:41:21	120220	12022020	044121	196.39	13.316178	-57.023608	196.55	-0.110	-0.300	2.460	196.35	-1.70	2.90	 	 	 	 	 	 	 	 	 	 	 	 	 	 	 	 	 	 	1581482481	11.75	21.76
12/02/2020 04:41:22	120220	12022020	044122	196.40	13.316130	-57.023625	196.61	-0.230	0.100	1.910	196.43	-1.30	2.40	 	 	 	 	 	 	 	 	 	 	 	 	 	 	 	 	 	 	1581482482	11.17	20.69
12/02/2020 04:41:23	120220	12022020	044123	196.50	13.316078	-57.023642	196.66	-0.240	-0.080	1.750	196.50	-1.50	2.20	 	 	 	 	 	 	 	 	 	 	 	 	 	 	 	 	 	 	1581482483	10.97	20.32
12/02/2020 04:41:24	120220	12022020	044124	196.43	13.316078	-57.023642	196.57	-0.100	-0.490	1.930	196.40	-1.90	2.40	 	 	 	 	 	 	 	 	 	 	 	 	 	 	 	 	 	 	1581482484	11.53	21.35
12/02/2020 04:41:25	120220	12022020	044125	196.35	13.315975	-57.023680	196.51	-0.010	-0.620	2.090	196.34	-2.00	2.50	 	 	 	 	 	 	 	 	 	 	 	 	 	 	 	 	 	 	1581482485	11.94	22.11
12/02/2020 04:41:26	120220	12022020	044126	196.35	13.315927	-57.023700	196.51	0.020	-0.450	2.170	196.36	-1.80	2.60	 	 	 	 	 	 	 	 	 	 	 	 	 	 	 	 	 	 	1581482486	11.69	21.65
12/02/2020 04:41:27	120220	12022020	044127	196.39	13.315877	-57.023717	196.55	0.080	-0.150	2.060	196.40	-1.50	2.50	 	 	 	 	 	 	 	 	 	 	 	 	 	 	 	 	 	 	1581482487	11.31	20.95
12/02/2020 04:41:28	120220	12022020	044128	196.41	13.315828	-57.023730	196.55	0.110	0.110	1.900	196.40	-1.30	2.40	 	 	 	 	 	 	 	 	 	 	 	 	 	 	 	 	 	 	1581482488	11.10	20.56
12/02/2020 04:41:29	120220	12022020	044129	196.30	13.315778	-57.023748	196.41	0.020	0.030	2.030	196.26	-1.40	2.50	 	 	 	 	 	 	 	 	 	 	 	 	 	 	 	 	 	 	1581482489	11.04	20.45
12/02/2020 04:41:30	120220	12022020	044130	196.05	13.315728	-57.023768	196.11	-0.030	-0.380	2.450	195.98	-1.80	2.90	 	 	 	 	 	 	 	 	 	 	 	 	 	 	 	 	 	 	1581482490	11.32	20.96
12/02/2020 04:41:31	120220	12022020	044131	195.66	13.315677	-57.023790	195.74	0.200	-0.600	2.690	195.60	-2.00	3.20	 	 	 	 	 	 	 	 	 	 	 	 	 	 	 	 	 	 	1581482491	11.75	21.76
12/02/2020 04:41:32	120220	12022020	044132	195.39	13.315627	-57.023805	195.53	0.510	-0.320	2.510	195.37	-1.70	3.00	 	 	 	 	 	 	 	 	 	 	 	 	 	 	 	 	 	 	1581482492	11.71	21.69
12/02/2020 04:41:33	120220	12022020	044133	195.44	13.315578	-57.023817	195.67	0.440	0.180	2.030	195.49	-1.20	2.50	 	 	 	 	 	 	 	 	 	 	 	 	 	 	 	 	 	 	1581482493	11.20	20.74
12/02/2020 04:41:34	120220	12022020	044134	195.72	13.315530	-57.023830	195.95	-0.040	0.230	1.720	195.77	-1.20	2.20	 	 	 	 	 	 	 	 	 	 	 	 	 	 	 	 	 	 	1581482494	10.73	19.87
12/02/2020 04:41:35	120220	12022020	044135	195.86	13.315478	-57.023848	196.06	-0.390	-0.440	1.870	195.87	-1.90	2.30	 	 	 	 	 	 	 	 	 	 	 	 	 	 	 	 	 	 	1581482495	10.87	20.13
12/02/2020 04:41:36	120220	12022020	044136	195.88	13.315427	-57.023868	196.05	-0.200	-1.220	1.960	195.87	-2.60	2.40	 	 	 	 	 	 	 	 	 	 	 	 	 	 	 	 	 	 	1581482496	11.67	21.61
12/02/2020 04:41:37	120220	12022020	044137	195.81	13.315373	-57.023883	195.99	0.290	-1.470	1.830	195.80	-2.90	2.30	 	 	 	 	 	 	 	 	 	 	 	 	 	 	 	 	 	 	1581482497	12.07	22.35
12/02/2020 04:41:38	120220	12022020	044138	195.74	13.315323	-57.023898	195.91	0.440	-1.190	1.760	195.72	-2.60	2.20	 	 	 	 	 	 	 	 	 	 	 	 	 	 	 	 	 	 	1581482498	11.76	21.78
12/02/2020 04:41:39	120220	12022020	044139	195.56	13.315273	-57.023913	195.69	0.060	-0.700	1.950	195.50	-2.10	2.40	 	 	 	 	 	 	 	 	 	 	 	 	 	 	 	 	 	 	1581482499	11.30	20.93
12/02/2020 04:41:40	120220	12022020	044140	195.18	13.315223	-57.023932	195.26	-0.480	-0.310	2.440	195.08	-1.70	2.90	 	 	 	 	 	 	 	 	 	 	 	 	 	 	 	 	 	 	1581482500	11.18	20.71
12/02/2020 04:41:41	120220	12022020	044141	194.70	13.315172	-57.023952	194.80	-0.710	0.080	2.940	194.61	-1.30	3.40	 	 	 	 	 	 	 	 	 	 	 	 	 	 	 	 	 	 	1581482501	11.46	21.22
12/02/2020 04:41:42	120220	12022020	044142	194.43	13.315172	-57.023952	194.66	-0.570	0.500	2.960	194.43	-0.90	3.40	 	 	 	 	 	 	 	 	 	 	 	 	 	 	 	 	 	 	1581482502	11.55	21.39
12/02/2020 04:41:43	120220	12022020	044143	194.54	13.315072	-57.023987	194.79	-0.310	0.710	2.750	194.57	-0.70	3.20	 	 	 	 	 	 	 	 	 	 	 	 	 	 	 	 	 	 	1581482503	11.55	21.39
12/02/2020 04:41:44	120220	12022020	044144	194.68	13.315020	-57.024003	194.92	-0.100	0.540	2.580	194.70	-0.90	3.00	 	 	 	 	 	 	 	 	 	 	 	 	 	 	 	 	 	 	1581482504	11.42	21.15
12/02/2020 04:41:45	120220	12022020	044145	194.78	13.314968	-57.024020	195.04	0.020	0.120	2.380	194.82	-1.30	2.90	 	 	 	 	 	 	 	 	 	 	 	 	 	 	 	 	 	 	1581482505	11.56	21.41
12/02/2020 04:41:46	120220	12022020	044146	195.05	13.314918	-57.024037	195.34	0.090	-0.140	2.210	195.12	-1.50	2.70	 	 	 	 	 	 	 	 	 	 	 	 	 	 	 	 	 	 	1581482506	11.65	21.58
12/02/2020 04:41:47	120220	12022020	044147	195.40	13.314870	-57.024052	195.66	0.220	-0.250	2.000	195.45	-1.70	2.50	 	 	 	 	 	 	 	 	 	 	 	 	 	 	 	 	 	 	1581482507	11.29	20.91
12/02/2020 04:41:48	120220	12022020	044148	195.49	13.314820	-57.024067	195.65	0.480	-0.610	1.870	195.46	-2.00	2.30	 	 	 	 	 	 	 	 	 	 	 	 	 	 	 	 	 	 	1581482508	10.87	20.13
12/02/2020 04:41:49	120220	12022020	044149	195.28	13.314770	-57.024082	195.42	0.750	-1.000	1.800	195.24	-2.40	2.30	 	 	 	 	 	 	 	 	 	 	 	 	 	 	 	 	 	 	1581482509	11.11	20.58
12/02/2020 04:41:50	120220	12022020	044150	195.17	13.314718	-57.024093	195.38	0.790	-1.000	1.590	195.18	-2.40	2.10	 	 	 	 	 	 	 	 	 	 	 	 	 	 	 	 	 	 	1581482510	11.41	21.13
12/02/2020 04:41:51	120220	12022020	044151	195.41	13.314670	-57.024105	195.70	0.500	-0.630	1.260	195.49	-2.00	1.70	 	 	 	 	 	 	 	 	 	 	 	 	 	 	 	 	 	 	1581482511	11.20	20.74
12/02/2020 04:41:52	120220	12022020	044152	195.81	13.314620	-57.024120	196.06	0.020	-0.470	1.230	195.88	-1.90	1.70	 	 	 	 	 	 	 	 	 	 	 	 	 	 	 	 	 	 	1581482512	10.87	20.13
12/02/2020 04:41:53	120220	12022020	044153	196.02	13.314568	-57.024137	196.18	-0.340	-0.660	1.660	196.02	-2.00	2.20	 	 	 	 	 	 	 	 	 	 	 	 	 	 	 	 	 	 	1581482513	11.05	20.46
12/02/2020 04:41:54	120220	12022020	044154	195.89	13.314517	-57.024155	195.96	-0.450	-0.870	2.130	195.82	-2.30	2.60	 	 	 	 	 	 	 	 	 	 	 	 	 	 	 	 	 	 	1581482514	11.62	21.52
12/02/2020 04:41:55	120220	12022020	044155	195.52	13.314463	-57.024173	195.58	-0.490	-0.770	2.480	195.44	-2.10	3.00	 	 	 	 	 	 	 	 	 	 	 	 	 	 	 	 	 	 	1581482515	11.94	22.11
12/02/2020 04:41:56	120220	12022020	044156	195.11	13.314413	-57.024190	195.18	-0.630	-0.390	2.560	195.03	-1.80	3.00	 	 	 	 	 	 	 	 	 	 	 	 	 	 	 	 	 	 	1581482516	11.82	21.89
12/02/2020 04:41:57	120220	12022020	044157	194.66	13.314362	-57.024208	194.73	-0.690	-0.000	2.390	194.57	-1.40	2.90	 	 	 	 	 	 	 	 	 	 	 	 	 	 	 	 	 	 	1581482517	11.57	21.43
12/02/2020 04:41:58	120220	12022020	044158	194.25	13.314310	-57.024225	194.35	-0.500	0.190	2.250	194.20	-1.20	2.70	 	 	 	 	 	 	 	 	 	 	 	 	 	 	 	 	 	 	1581482518	11.58	21.45
12/02/2020 04:41:59	120220	12022020	044159	194.06	13.314258	-57.024240	194.21	-0.130	0.310	2.050	194.06	-1.10	2.50	 	 	 	 	 	 	 	 	 	 	 	 	 	 	 	 	 	 	1581482519	11.76	21.78
12/02/2020 04:42:00	120220	12022020	044200	194.14	13.314207	-57.024255	194.35	0.120	0.440	1.730	194.18	-0.90	2.20	 	 	 	 	 	 	 	 	 	 	 	 	 	 	 	 	 	 	1581482520	11.73	21.72
12/02/2020 04:42:01	120220	12022020	044201	194.43	13.314157	-57.024270	194.67	0.160	0.390	1.650	194.50	-1.00	2.10	1016.50	26.10	26.20	20.70	20.80	-1.0	72.0	72.0	423.0	25.6	254.00	10.00	64.00	12.90	16	8203.0	27.2	27.2	1581482521	11.44	21.19
12/02/2020 04:42:02	120220	12022020	044202	194.71	13.314105	-57.024287	194.91	0.090	-0.020	1.980	194.74	-1.40	2.50	 	 	 	 	 	 	 	 	 	 	 	 	 	 	 	 	 	 	1581482522	11.22	20.78
12/02/2020 04:42:03	120220	12022020	044203	194.83	13.314055	-57.024305	195.01	0.030	-0.560	2.450	194.84	-2.00	2.90	 	 	 	 	 	 	 	 	 	 	 	 	 	 	 	 	 	 	1581482523	11.38	21.08
12/02/2020 04:42:04	120220	12022020	044204	194.80	13.314005	-57.024325	194.97	0.030	-0.870	2.840	194.77	-2.30	3.30	 	 	 	 	 	 	 	 	 	 	 	 	 	 	 	 	 	 	1581482524	11.55	21.39
12/02/2020 04:42:05	120220	12022020	044205	194.59	13.313957	-57.024342	194.71	0.190	-0.890	2.880	194.53	-2.30	3.40	 	 	 	 	 	 	 	 	 	 	 	 	 	 	 	 	 	 	1581482525	11.40	21.11
12/02/2020 04:42:06	120220	12022020	044206	194.44	13.313907	-57.024353	194.68	0.430	-0.580	2.350	194.48	-1.90	2.80	 	 	 	 	 	 	 	 	 	 	 	 	 	 	 	 	 	 	1581482526	11.23	20.80
12/02/2020 04:42:07	120220	12022020	044207	194.84	13.313857	-57.024362	195.19	0.470	-0.050	1.470	194.96	-1.40	1.90	 	 	 	 	 	 	 	 	 	 	 	 	 	 	 	 	 	 	1581482527	11.07	20.50
12/02/2020 04:42:08	120220	12022020	044208	195.49	13.313807	-57.024372	195.81	0.310	0.060	0.920	195.61	-1.30	1.40	 	 	 	 	 	 	 	 	 	 	 	 	 	 	 	 	 	 	1581482528	10.73	19.87
12/02/2020 04:42:09	120220	12022020	044209	195.86	13.313753	-57.024385	196.03	0.230	-0.540	0.990	195.87	-1.90	1.50	 	 	 	 	 	 	 	 	 	 	 	 	 	 	 	 	 	 	1581482529	10.94	20.26
12/02/2020 04:42:10	120220	12022020	044210	195.69	13.313698	-57.024400	195.79	0.320	-1.350	1.540	195.62	-2.70	2.10	 	 	 	 	 	 	 	 	 	 	 	 	 	 	 	 	 	 	1581482530	11.72	21.71
12/02/2020 04:42:11	120220	12022020	044211	195.37	13.313647	-57.024418	195.54	0.200	-1.430	2.290	195.33	-2.80	2.80	 	 	 	 	 	 	 	 	 	 	 	 	 	 	 	 	 	 	1581482531	12.33	22.84
12/02/2020 04:42:12	120220	12022020	044212	195.21	13.313598	-57.024437	195.41	-0.360	-0.690	2.930	195.18	-2.00	3.40	 	 	 	 	 	 	 	 	 	 	 	 	 	 	 	 	 	 	1581482532	11.92	22.08
12/02/2020 04:42:13	120220	12022020	044213	194.92	13.313550	-57.024458	195.03	-0.960	-0.050	3.370	194.81	-1.40	3.90	 	 	 	 	 	 	 	 	 	 	 	 	 	 	 	 	 	 	1581482533	11.08	20.52
12/02/2020 04:42:14	120220	12022020	044214	194.31	13.313500	-57.024482	194.40	-1.110	0.070	3.620	194.18	-1.30	4.10	 	 	 	 	 	 	 	 	 	 	 	 	 	 	 	 	 	 	1581482534	11.17	20.69
12/02/2020 04:42:15	120220	12022020	044215	193.81	13.313448	-57.024502	194.03	-0.780	0.260	3.330	193.78	-1.10	3.80	 	 	 	 	 	 	 	 	 	 	 	 	 	 	 	 	 	 	1581482535	11.92	22.08
12/02/2020 04:42:16	120220	12022020	044216	193.96	13.313398	-57.024517	194.32	-0.320	0.740	2.370	194.06	-0.60	2.80	 	 	 	 	 	 	 	 	 	 	 	 	 	 	 	 	 	 	1581482536	11.90	22.04
12/02/2020 04:42:17	120220	12022020	044217	194.60	13.313348	-57.024527	194.99	0.070	0.910	1.300	194.74	-0.50	1.80	 	 	 	 	 	 	 	 	 	 	 	 	 	 	 	 	 	 	1581482537	11.14	20.63
12/02/2020 04:42:18	120220	12022020	044218	195.30	13.313297	-57.024537	195.65	0.490	0.320	0.550	195.43	-1.10	1.00	 	 	 	 	 	 	 	 	 	 	 	 	 	 	 	 	 	 	1581482538	10.93	20.24
12/02/2020 04:42:19	120220	12022020	044219	195.81	13.313242	-57.024547	196.07	0.950	-0.710	0.450	195.87	-2.10	1.00	 	 	 	 	 	 	 	 	 	 	 	 	 	 	 	 	 	 	1581482539	11.48	21.26
12/02/2020 04:42:20	120220	12022020	044220	195.93	13.313188	-57.024560	196.10	1.140	-1.510	0.920	195.90	-2.90	1.40	 	 	 	 	 	 	 	 	 	 	 	 	 	 	 	 	 	 	1581482540	11.93	22.09
12/02/2020 04:42:21	120220	12022020	044221	195.76	13.313137	-57.024575	195.93	0.710	-1.580	1.730	195.72	-2.90	2.20	 	 	 	 	 	 	 	 	 	 	 	 	 	 	 	 	 	 	1581482541	11.89	22.02
12/02/2020 04:42:22	120220	12022020	044222	195.54	13.313090	-57.024595	195.72	-0.130	-1.050	2.540	195.51	-2.40	3.00	 	 	 	 	 	 	 	 	 	 	 	 	 	 	 	 	 	 	1581482542	11.33	20.98
12/02/2020 04:42:23	120220	12022020	044223	195.44	13.313043	-57.024617	195.67	-0.820	-0.390	2.850	195.44	-1.70	3.30	 	 	 	 	 	 	 	 	 	 	 	 	 	 	 	 	 	 	1581482543	10.93	20.24
12/02/2020 04:42:24	120220	12022020	044224	195.48	13.312995	-57.024637	195.73	-0.930	0.080	2.680	195.49	-1.30	3.10	 	 	 	 	 	 	 	 	 	 	 	 	 	 	 	 	 	 	1581482544	10.95	20.28
12/02/2020 04:42:25	120220	12022020	044225	195.54	13.312945	-57.024653	195.79	-0.560	0.190	2.390	195.55	-1.20	2.90	 	 	 	 	 	 	 	 	 	 	 	 	 	 	 	 	 	 	1581482545	11.14	20.63
12/02/2020 04:42:26	120220	12022020	044226	195.59	13.312893	-57.024672	195.79	-0.130	0.010	2.100	195.58	-1.40	2.60	 	 	 	 	 	 	 	 	 	 	 	 	 	 	 	 	 	 	1581482546	11.49	21.28
12/02/2020 04:42:27	120220	12022020	044227	195.48	13.312840	-57.024687	195.60	0.210	-0.460	1.960	195.42	-1.80	2.40	 	 	 	 	 	 	 	 	 	 	 	 	 	 	 	 	 	 	1581482547	11.70	21.67
12/02/2020 04:42:28	120220	12022020	044228	195.09	13.312787	-57.024703	195.18	0.540	-0.890	2.050	195.00	-2.30	2.50	 	 	 	 	 	 	 	 	 	 	 	 	 	 	 	 	 	 	1581482548	11.96	22.15
12/02/2020 04:42:29	120220	12022020	044229	194.74	13.312733	-57.024717	194.93	0.700	-0.600	2.110	194.71	-1.90	2.60	 	 	 	 	 	 	 	 	 	 	 	 	 	 	 	 	 	 	1581482549	12.13	22.46
12/02/2020 04:42:30	120220	12022020	044230	194.78	13.312685	-57.024728	195.05	0.400	0.200	2.030	194.83	-1.20	2.50	 	 	 	 	 	 	 	 	 	 	 	 	 	 	 	 	 	 	1581482550	11.56	21.41
12/02/2020 04:42:31	120220	12022020	044231	195.00	13.312637	-57.024743	195.28	-0.230	0.480	1.980	195.05	-0.90	2.50	 	 	 	 	 	 	 	 	 	 	 	 	 	 	 	 	 	 	1581482551	10.74	19.89
12/02/2020 04:42:32	120220	12022020	044232	195.27	13.312587	-57.024762	195.58	-0.770	0.280	1.990	195.34	-1.10	2.50	 	 	 	 	 	 	 	 	 	 	 	 	 	 	 	 	 	 	1581482552	11.00	20.37
12/02/2020 04:42:33	120220	12022020	044233	195.67	13.312537	-57.024782	195.97	-0.790	0.170	1.760	195.75	-1.20	2.20	 	 	 	 	 	 	 	 	 	 	 	 	 	 	 	 	 	 	1581482553	11.52	21.34
12/02/2020 04:42:34	120220	12022020	044234	196.00	13.312487	-57.024797	196.24	-0.200	-0.080	1.360	196.04	-1.50	1.80	 	 	 	 	 	 	 	 	 	 	 	 	 	 	 	 	 	 	1581482554	11.25	20.84
12/02/2020 04:42:35	120220	12022020	044235	196.09	13.312435	-57.024810	196.24	0.610	-0.780	1.160	196.07	-2.20	1.60	 	 	 	 	 	 	 	 	 	 	 	 	 	 	 	 	 	 	1581482555	11.20	20.74
12/02/2020 04:42:36	120220	12022020	044236	195.92	13.312380	-57.024825	196.02	1.070	-1.480	1.270	195.87	-2.90	1.80	 	 	 	 	 	 	 	 	 	 	 	 	 	 	 	 	 	 	1581482556	11.75	21.76
12/02/2020 04:42:37	120220	12022020	044237	195.61	13.312328	-57.024840	195.69	0.890	-1.500	1.620	195.54	-2.90	2.10	 	 	 	 	 	 	 	 	 	 	 	 	 	 	 	 	 	 	1581482557	12.05	22.32
12/02/2020 04:42:38	120220	12022020	044238	195.38	13.312280	-57.024857	195.54	0.150	-0.670	2.000	195.37	-2.00	2.50	 	 	 	 	 	 	 	 	 	 	 	 	 	 	 	 	 	 	1581482558	11.65	21.58
12/02/2020 04:42:39	120220	12022020	044239	195.46	13.312235	-57.024875	195.70	-0.670	0.320	2.180	195.51	-1.00	2.70	 	 	 	 	 	 	 	 	 	 	 	 	 	 	 	 	 	 	1581482559	10.86	20.11
12/02/2020 04:42:40	120220	12022020	044240	195.65	13.312185	-57.024893	195.84	-0.980	0.460	2.170	195.66	-0.90	2.70	 	 	 	 	 	 	 	 	 	 	 	 	 	 	 	 	 	 	1581482560	10.51	19.46
12/02/2020 04:42:41	120220	12022020	044241	195.59	13.312132	-57.024913	195.71	-0.620	-0.310	2.150	195.54	-1.70	2.60	 	 	 	 	 	 	 	 	 	 	 	 	 	 	 	 	 	 	1581482561	11.29	20.91
12/02/2020 04:42:42	120220	12022020	044242	195.29	13.312075	-57.024932	195.41	-0.000	-0.990	2.070	195.23	-2.40	2.60	 	 	 	 	 	 	 	 	 	 	 	 	 	 	 	 	 	 	1581482562	12.43	23.02
12/02/2020 04:42:43	120220	12022020	044243	195.04	13.312023	-57.024948	195.19	0.330	-0.790	1.840	195.01	-2.20	2.30	 	 	 	 	 	 	 	 	 	 	 	 	 	 	 	 	 	 	1581482563	12.65	23.43
12/02/2020 04:42:44	120220	12022020	044244	194.96	13.311973	-57.024960	195.15	0.180	0.070	1.560	194.96	-1.30	2.00	 	 	 	 	 	 	 	 	 	 	 	 	 	 	 	 	 	 	1581482564	11.76	21.78
12/02/2020 04:42:45	120220	12022020	044245	195.01	13.311925	-57.024973	195.24	-0.160	0.740	1.400	195.06	-0.60	1.90	 	 	 	 	 	 	 	 	 	 	 	 	 	 	 	 	 	 	1581482565	10.85	20.09
12/02/2020 04:42:46	120220	12022020	044246	195.35	13.311875	-57.024990	195.66	-0.380	0.760	1.360	195.45	-0.60	1.90	 	 	 	 	 	 	 	 	 	 	 	 	 	 	 	 	 	 	1581482566	10.76	19.93
12/02/2020 04:42:47	120220	12022020	044247	195.87	13.311825	-57.025008	196.18	-0.250	0.240	1.580	195.97	-1.20	2.10	 	 	 	 	 	 	 	 	 	 	 	 	 	 	 	 	 	 	1581482567	11.24	20.82
12/02/2020 04:42:48	120220	12022020	044248	196.33	13.311773	-57.025027	196.58	0.210	-0.460	1.750	196.38	-1.90	2.20	 	 	 	 	 	 	 	 	 	 	 	 	 	 	 	 	 	 	1581482568	11.67	21.61
12/02/2020 04:42:49	120220	12022020	044249	196.52	13.311720	-57.025042	196.71	0.690	-0.980	1.790	196.53	-2.40	2.30	 	 	 	 	 	 	 	 	 	 	 	 	 	 	 	 	 	 	1581482569	11.80	21.85
12/02/2020 04:42:50	120220	12022020	044250	196.54	13.311670	-57.025055	196.74	0.810	-1.070	1.760	196.54	-2.40	2.30	 	 	 	 	 	 	 	 	 	 	 	 	 	 	 	 	 	 	1581482570	11.68	21.63
12/02/2020 04:42:51	120220	12022020	044251	196.59	13.311622	-57.025068	196.80	0.460	-0.640	1.640	196.60	-2.00	2.10	 	 	 	 	 	 	 	 	 	 	 	 	 	 	 	 	 	 	1581482571	11.34	21.00
12/02/2020 04:42:52	120220	12022020	044252	196.61	13.311573	-57.025083	196.77	-0.130	-0.200	1.650	196.60	-1.60	2.10	 	 	 	 	 	 	 	 	 	 	 	 	 	 	 	 	 	 	1581482572	10.83	20.06
12/02/2020 04:42:53	120220	12022020	044253	196.41	13.311523	-57.025102	196.51	-0.470	-0.400	1.940	196.34	-1.80	2.40	 	 	 	 	 	 	 	 	 	 	 	 	 	 	 	 	 	 	1581482573	10.69	19.80
12/02/2020 04:42:54	120220	12022020	044254	195.96	13.311470	-57.025123	196.02	-0.320	-1.010	2.340	195.84	-2.40	2.80	 	 	 	 	 	 	 	 	 	 	 	 	 	 	 	 	 	 	1581482574	11.48	21.26
12/02/2020 04:42:55	120220	12022020	044255	195.43	13.311417	-57.025143	195.53	0.040	-1.200	2.570	195.35	-2.60	3.10	 	 	 	 	 	 	 	 	 	 	 	 	 	 	 	 	 	 	1581482575	12.32	22.82
12/02/2020 04:42:56	120220	12022020	044256	195.15	13.311365	-57.025160	195.34	0.100	-0.620	2.480	195.13	-2.00	3.00	 	 	 	 	 	 	 	 	 	 	 	 	 	 	 	 	 	 	1581482576	12.27	22.72
12/02/2020 04:42:57	120220	12022020	044257	195.21	13.311317	-57.025175	195.48	-0.240	0.270	2.140	195.26	-1.10	2.60	 	 	 	 	 	 	 	 	 	 	 	 	 	 	 	 	 	 	1581482577	11.50	21.30
12/02/2020 04:42:58	120220	12022020	044258	195.57	13.311268	-57.025193	195.87	-0.650	0.840	1.780	195.66	-0.50	2.30	 	 	 	 	 	 	 	 	 	 	 	 	 	 	 	 	 	 	1581482578	10.99	20.35
12/02/2020 04:42:59	120220	12022020	044259	195.98	13.311217	-57.025210	196.23	-0.560	0.710	1.460	196.04	-0.70	1.90	 	 	 	 	 	 	 	 	 	 	 	 	 	 	 	 	 	 	1581482579	11.01	20.39
12/02/2020 04:43:00	120220	12022020	044300	196.34	13.311163	-57.025223	196.58	0.160	0.190	0.970	196.40	-1.20	1.50	 	 	 	 	 	 	 	 	 	 	 	 	 	 	 	 	 	 	1581482580	11.51	21.32
12/02/2020 04:43:01	120220	12022020	044301	196.66	13.311110	-57.025237	196.85	0.830	-0.370	0.820	196.68	-1.80	1.30	1016.40	26.20	26.20	20.80	20.90	-1.0	72.0	72.0	424.0	25.6	259.00	9.20	65.00	11.80	16	8203.0	27.2	27.2	1581482581	11.87	21.98
12/02/2020 04:43:02	120220	12022020	044302	196.60	13.311057	-57.025252	196.64	0.890	-1.010	1.350	196.52	-2.40	1.90	 	 	 	 	 	 	 	 	 	 	 	 	 	 	 	 	 	 	1581482582	11.81	21.87
12/02/2020 04:43:03	120220	12022020	044303	196.09	13.311005	-57.025270	196.11	0.400	-1.360	2.180	195.97	-2.70	2.70	 	 	 	 	 	 	 	 	 	 	 	 	 	 	 	 	 	 	1581482583	11.82	21.89
12/02/2020 04:43:04	120220	12022020	044304	195.61	13.310957	-57.025292	195.77	-0.260	-0.930	2.700	195.58	-2.30	3.20	 	 	 	 	 	 	 	 	 	 	 	 	 	 	 	 	 	 	1581482584	11.82	21.89
12/02/2020 04:43:05	120220	12022020	044305	195.73	13.310912	-57.025310	196.07	-0.730	0.190	2.600	195.83	-1.20	3.10	 	 	 	 	 	 	 	 	 	 	 	 	 	 	 	 	 	 	1581482585	11.32	20.96
12/02/2020 04:43:06	120220	12022020	044306	196.40	13.310867	-57.025327	196.81	-0.770	0.950	2.030	196.57	-0.40	2.50	 	 	 	 	 	 	 	 	 	 	 	 	 	 	 	 	 	 	1581482586	10.48	19.41
12/02/2020 04:43:07	120220	12022020	044307	197.14	13.310815	-57.025343	197.45	-0.250	0.570	1.300	197.25	-0.80	1.80	 	 	 	 	 	 	 	 	 	 	 	 	 	 	 	 	 	 	1581482587	10.46	19.37
12/02/2020 04:43:08	120220	12022020	044308	197.54	13.310760	-57.025358	197.74	0.590	-0.610	0.870	197.57	-2.00	1.40	 	 	 	 	 	 	 	 	 	 	 	 	 	 	 	 	 	 	1581482588	11.45	21.21
12/02/2020 04:43:09	120220	12022020	044309	197.60	13.310705	-57.025373	197.76	1.040	-1.380	1.000	197.57	-2.80	1.50	 	 	 	 	 	 	 	 	 	 	 	 	 	 	 	 	 	 	1581482589	12.42	23.00
12/02/2020 04:43:10	120220	12022020	044310	197.35	13.310655	-57.025390	197.42	0.720	-1.270	1.610	197.27	-2.60	2.10	 	 	 	 	 	 	 	 	 	 	 	 	 	 	 	 	 	 	1581482590	12.16	22.52
12/02/2020 04:43:11	120220	12022020	044311	196.74	13.310608	-57.025412	196.77	0.010	-0.750	2.440	196.60	-2.10	3.00	 	 	 	 	 	 	 	 	 	 	 	 	 	 	 	 	 	 	1581482591	11.23	20.80
12/02/2020 04:43:12	120220	12022020	044312	195.98	13.310562	-57.025433	196.04	-0.440	-0.300	3.030	195.85	-1.70	3.50	 	 	 	 	 	 	 	 	 	 	 	 	 	 	 	 	 	 	1581482592	10.92	20.22
12/02/2020 04:43:13	120220	12022020	044313	195.44	13.310512	-57.025453	195.60	-0.320	0.000	2.990	195.39	-1.40	3.50	 	 	 	 	 	 	 	 	 	 	 	 	 	 	 	 	 	 	1581482593	11.24	20.82
12/02/2020 04:43:14	120220	12022020	044314	195.29	13.310460	-57.025470	195.53	0.060	0.100	2.600	195.30	-1.30	3.10	 	 	 	 	 	 	 	 	 	 	 	 	 	 	 	 	 	 	1581482594	11.46	21.22
12/02/2020 04:43:15	120220	12022020	044315	195.48	13.310408	-57.025485	195.81	0.140	0.060	2.250	195.56	-1.30	2.70	 	 	 	 	 	 	 	 	 	 	 	 	 	 	 	 	 	 	1581482595	11.65	21.58
12/02/2020 04:43:16	120220	12022020	044316	196.00	13.310357	-57.025502	196.41	-0.260	0.010	2.220	196.14	-1.40	2.70	 	 	 	 	 	 	 	 	 	 	 	 	 	 	 	 	 	 	1581482596	11.68	21.63
12/02/2020 04:43:17	120220	12022020	044317	196.74	13.310310	-57.025523	197.18	-0.700	0.010	2.390	196.90	-1.40	2.90	 	 	 	 	 	 	 	 	 	 	 	 	 	 	 	 	 	 	1581482597	11.48	21.26
12/02/2020 04:43:18	120220	12022020	044318	197.44	13.310262	-57.025543	197.78	-0.570	-0.080	2.330	197.54	-1.50	2.80	 	 	 	 	 	 	 	 	 	 	 	 	 	 	 	 	 	 	1581482598	11.24	20.82
12/02/2020 04:43:19	120220	12022020	044319	197.77	13.310212	-57.025558	198.00	0.200	-0.390	1.920	197.79	-1.80	2.40	 	 	 	 	 	 	 	 	 	 	 	 	 	 	 	 	 	 	1581482599	11.13	20.61
12/02/2020 04:43:20	120220	12022020	044320	197.84	13.310160	-57.025572	198.05	0.840	-0.650	1.600	197.84	-2.00	2.10	 	 	 	 	 	 	 	 	 	 	 	 	 	 	 	 	 	 	1581482600	11.37	21.06
12/02/2020 04:43:21	120220	12022020	044321	197.80	13.310108	-57.025585	197.97	0.800	-0.710	1.520	197.77	-2.10	2.00	 	 	 	 	 	 	 	 	 	 	 	 	 	 	 	 	 	 	1581482601	11.46	21.22
12/02/2020 04:43:22	120220	12022020	044322	197.52	13.310060	-57.025602	197.61	0.280	-0.720	1.780	197.44	-2.10	2.30	 	 	 	 	 	 	 	 	 	 	 	 	 	 	 	 	 	 	1581482602	11.18	20.71
12/02/2020 04:43:23	120220	12022020	044323	196.99	13.310010	-57.025622	197.06	-0.150	-0.690	2.220	196.88	-2.10	2.70	 	 	 	 	 	 	 	 	 	 	 	 	 	 	 	 	 	 	1581482603	11.17	20.69
12/02/2020 04:43:24	120220	12022020	044324	196.55	13.309962	-57.025640	196.72	-0.300	-0.320	2.350	196.51	-1.70	2.80	 	 	 	 	 	 	 	 	 	 	 	 	 	 	 	 	 	 	1581482604	11.41	21.13
12/02/2020 04:43:25	120220	12022020	044325	196.42	13.309913	-57.025658	196.61	-0.230	0.140	2.100	196.40	-1.20	2.60	 	 	 	 	 	 	 	 	 	 	 	 	 	 	 	 	 	 	1581482605	11.22	20.78
12/02/2020 04:43:26	120220	12022020	044326	196.30	13.309863	-57.025675	196.47	-0.050	0.160	1.850	196.26	-1.20	2.40	 	 	 	 	 	 	 	 	 	 	 	 	 	 	 	 	 	 	1581482606	10.96	20.30
12/02/2020 04:43:27	120220	12022020	044327	196.12	13.309812	-57.025692	196.30	0.100	-0.250	1.780	196.09	-1.60	2.30	 	 	 	 	 	 	 	 	 	 	 	 	 	 	 	 	 	 	1581482607	11.28	20.89
12/02/2020 04:43:28	120220	12022020	044328	196.06	13.309760	-57.025710	196.30	0.030	-0.540	1.910	196.07	-1.90	2.40	 	 	 	 	 	 	 	 	 	 	 	 	 	 	 	 	 	 	1581482608	11.80	21.85
12/02/2020 04:43:29	120220	12022020	044329	196.13	13.309712	-57.025730	196.37	-0.190	-0.500	2.210	196.15	-1.90	2.70	 	 	 	 	 	 	 	 	 	 	 	 	 	 	 	 	 	 	1581482609	11.71	21.69
12/02/2020 04:43:30	120220	12022020	044330	196.16	13.309663	-57.025748	196.39	-0.260	-0.400	2.410	196.17	-1.80	2.90	 	 	 	 	 	 	 	 	 	 	 	 	 	 	 	 	 	 	1581482610	11.28	20.89
12/02/2020 04:43:31	120220	12022020	044331	196.23	13.309612	-57.025765	196.51	0.030	-0.400	2.060	196.27	-1.80	2.50	 	 	 	 	 	 	 	 	 	 	 	 	 	 	 	 	 	 	1581482611	11.22	20.78
12/02/2020 04:43:32	120220	12022020	044332	196.55	13.309562	-57.025778	196.90	0.390	-0.250	1.490	196.65	-1.60	2.00	 	 	 	 	 	 	 	 	 	 	 	 	 	 	 	 	 	 	1581482612	11.37	21.06
12/02/2020 04:43:33	120220	12022020	044333	197.09	13.309513	-57.025790	197.46	0.370	0.080	1.070	197.21	-1.30	1.60	 	 	 	 	 	 	 	 	 	 	 	 	 	 	 	 	 	 	1581482613	11.26	20.85
12/02/2020 04:43:34	120220	12022020	044334	197.60	13.309465	-57.025805	197.88	-0.030	0.240	1.030	197.66	-1.10	1.50	 	 	 	 	 	 	 	 	 	 	 	 	 	 	 	 	 	 	1581482614	10.87	20.13
12/02/2020 04:43:35	120220	12022020	044335	197.61	13.309415	-57.025825	197.72	-0.370	-0.260	1.640	197.53	-1.70	2.20	 	 	 	 	 	 	 	 	 	 	 	 	 	 	 	 	 	 	1581482615	10.73	19.87
12/02/2020 04:43:36	120220	12022020	044336	197.04	13.309363	-57.025847	197.08	-0.320	-1.090	2.440	196.90	-2.50	3.00	 	 	 	 	 	 	 	 	 	 	 	 	 	 	 	 	 	 	1581482616	11.35	21.02
12/02/2020 04:43:37	120220	12022020	044337	196.28	13.309312	-57.025868	196.34	0.030	-1.330	2.750	196.15	-2.70	3.20	 	 	 	 	 	 	 	 	 	 	 	 	 	 	 	 	 	 	1581482617	12.11	22.43
12/02/2020 04:43:38	120220	12022020	044338	195.71	13.309263	-57.025883	195.86	0.400	-0.700	2.340	195.65	-2.00	2.80	 	 	 	 	 	 	 	 	 	 	 	 	 	 	 	 	 	 	1581482618	11.89	22.02
12/02/2020 04:43:39	120220	12022020	044339	195.56	13.309215	-57.025895	195.81	0.480	0.250	1.560	195.58	-1.10	2.00	 	 	 	 	 	 	 	 	 	 	 	 	 	 	 	 	 	 	1581482619	11.04	20.45
12/02/2020 04:43:40	120220	12022020	044340	195.76	13.309167	-57.025905	196.03	0.200	0.650	1.160	195.80	-0.70	1.70	 	 	 	 	 	 	 	 	 	 	 	 	 	 	 	 	 	 	1581482620	10.55	19.54
12/02/2020 04:43:41	120220	12022020	044341	195.88	13.309115	-57.025922	196.06	-0.200	0.140	1.500	195.86	-1.30	2.00	 	 	 	 	 	 	 	 	 	 	 	 	 	 	 	 	 	 	1581482621	10.81	20.02
12/02/2020 04:43:42	120220	12022020	044342	195.56	13.309062	-57.025945	195.66	-0.430	-0.960	2.400	195.45	-2.30	2.90	 	 	 	 	 	 	 	 	 	 	 	 	 	 	 	 	 	 	1581482622	11.57	21.43
12/02/2020 04:43:43	120220	12022020	044343	195.00	13.309010	-57.025968	195.13	-0.450	-1.570	3.250	194.90	-2.90	3.80	 	 	 	 	 	 	 	 	 	 	 	 	 	 	 	 	 	 	1581482623	12.43	23.02
12/02/2020 04:43:44	120220	12022020	044344	194.63	13.308962	-57.025990	194.86	-0.420	-1.050	3.410	194.61	-2.40	3.90	 	 	 	 	 	 	 	 	 	 	 	 	 	 	 	 	 	 	1581482624	12.34	22.85
12/02/2020 04:43:45	120220	12022020	044345	194.71	13.308915	-57.026005	195.04	-0.390	0.080	2.860	194.78	-1.20	3.30	 	 	 	 	 	 	 	 	 	 	 	 	 	 	 	 	 	 	1581482625	11.24	20.82
12/02/2020 04:43:46	120220	12022020	044346	195.12	13.308868	-57.026018	195.49	-0.230	0.770	2.040	195.22	-0.60	2.50	 	 	 	 	 	 	 	 	 	 	 	 	 	 	 	 	 	 	1581482626	10.32	19.11
12/02/2020 04:43:47	120220	12022020	044347	195.60	13.308818	-57.026030	195.94	0.150	0.610	1.240	195.69	-0.80	1.70	 	 	 	 	 	 	 	 	 	 	 	 	 	 	 	 	 	 	1581482627	10.48	19.41
12/02/2020 04:43:48	120220	12022020	044348	195.98	13.308765	-57.026040	196.26	0.580	0.000	0.920	196.03	-1.40	1.40	 	 	 	 	 	 	 	 	 	 	 	 	 	 	 	 	 	 	1581482628	11.27	20.87
12/02/2020 04:43:49	120220	12022020	044349	196.17	13.308712	-57.026053	196.40	0.740	-0.590	1.110	196.18	-2.00	1.60	 	 	 	 	 	 	 	 	 	 	 	 	 	 	 	 	 	 	1581482629	11.71	21.69
12/02/2020 04:43:50	120220	12022020	044350	196.12	13.308660	-57.026068	196.28	0.500	-0.960	1.750	196.09	-2.30	2.30	 	 	 	 	 	 	 	 	 	 	 	 	 	 	 	 	 	 	1581482630	11.65	21.58
12/02/2020 04:43:51	120220	12022020	044351	195.81	13.308612	-57.026088	195.95	0.070	-0.980	2.560	195.74	-2.30	3.10	 	 	 	 	 	 	 	 	 	 	 	 	 	 	 	 	 	 	1581482631	11.43	21.17
12/02/2020 04:43:52	120220	12022020	044352	195.51	13.308563	-57.026107	195.71	-0.240	-0.560	2.850	195.48	-1.90	3.30	 	 	 	 	 	 	 	 	 	 	 	 	 	 	 	 	 	 	1581482632	11.29	20.91
12/02/2020 04:43:53	120220	12022020	044353	195.44	13.308517	-57.026122	195.69	-0.330	0.040	2.660	195.45	-1.30	3.20	 	 	 	 	 	 	 	 	 	 	 	 	 	 	 	 	 	 	1581482633	11.00	20.37
12/02/2020 04:43:54	120220	12022020	044354	195.53	13.308467	-57.026137	195.78	-0.260	0.210	2.250	195.55	-1.20	2.70	 	 	 	 	 	 	 	 	 	 	 	 	 	 	 	 	 	 	1581482634	10.73	19.87
12/02/2020 04:43:55	120220	12022020	044355	195.54	13.308415	-57.026153	195.72	-0.130	-0.280	1.980	195.50	-1.70	2.50	 	 	 	 	 	 	 	 	 	 	 	 	 	 	 	 	 	 	1581482635	11.00	20.37
12/02/2020 04:43:56	120220	12022020	044356	195.29	13.308362	-57.026170	195.43	0.050	-0.940	2.070	195.22	-2.30	2.60	 	 	 	 	 	 	 	 	 	 	 	 	 	 	 	 	 	 	1581482636	11.67	21.61
12/02/2020 04:43:57	120220	12022020	044357	194.93	13.308310	-57.026187	195.06	0.170	-1.100	2.250	194.85	-2.40	2.80	 	 	 	 	 	 	 	 	 	 	 	 	 	 	 	 	 	 	1581482637	12.03	22.28
12/02/2020 04:43:58	120220	12022020	044358	194.63	13.308260	-57.026202	194.84	0.080	-0.690	2.240	194.62	-2.00	2.70	 	 	 	 	 	 	 	 	 	 	 	 	 	 	 	 	 	 	1581482638	11.70	21.67
12/02/2020 04:43:59	120220	12022020	044359	194.81	13.308212	-57.026217	195.16	-0.310	0.000	1.960	194.92	-1.30	2.40	 	 	 	 	 	 	 	 	 	 	 	 	 	 	 	 	 	 	1581482639	11.20	20.74
12/02/2020 04:44:00	120220	12022020	044400	195.46	13.308165	-57.026233	195.85	-0.760	0.560	1.640	195.61	-0.80	2.10	 	 	 	 	 	 	 	 	 	 	 	 	 	 	 	 	 	 	1581482640	10.83	20.06
12/02/2020 04:44:01	120220	12022020	044401	196.14	13.308115	-57.026250	196.46	-0.800	0.620	1.280	196.24	-0.70	1.80	1016.40	26.10	26.20	21.10	21.20	-1.0	73.0	73.0	421.0	25.7	256.00	9.80	66.00	12.60	16	7452.0	27.2	27.2	1581482641	10.75	19.91
12/02/2020 04:44:02	120220	12022020	044402	196.68	13.308063	-57.026265	196.97	-0.220	0.310	0.750	196.78	-1.10	1.20	 	 	 	 	 	 	 	 	 	 	 	 	 	 	 	 	 	 	1581482642	11.13	20.61
12/02/2020 04:44:03	120220	12022020	044403	197.23	13.308012	-57.026275	197.54	0.610	-0.150	0.150	197.33	-1.50	0.60	 	 	 	 	 	 	 	 	 	 	 	 	 	 	 	 	 	 	1581482643	11.48	21.26
12/02/2020 04:44:04	120220	12022020	044404	197.73	13.307958	-57.026285	197.99	1.010	-0.670	0.100	197.79	-2.10	0.60	 	 	 	 	 	 	 	 	 	 	 	 	 	 	 	 	 	 	1581482644	11.63	21.54
12/02/2020 04:44:05	120220	12022020	044405	197.80	13.307907	-57.026300	197.92	0.760	-1.210	0.960	197.73	-2.60	1.50	 	 	 	 	 	 	 	 	 	 	 	 	 	 	 	 	 	 	1581482645	11.58	21.45
12/02/2020 04:44:06	120220	12022020	044406	197.13	13.307857	-57.026322	197.07	0.180	-1.580	2.420	196.91	-2.90	3.00	 	 	 	 	 	 	 	 	 	 	 	 	 	 	 	 	 	 	1581482646	11.48	21.26
12/02/2020 04:44:07	120220	12022020	044407	195.94	13.307808	-57.026348	195.89	-0.350	-1.410	3.770	195.69	-2.70	4.30	 	 	 	 	 	 	 	 	 	 	 	 	 	 	 	 	 	 	1581482647	11.64	21.56
12/02/2020 04:44:08	120220	12022020	044408	194.84	13.307762	-57.026372	194.92	-0.590	-0.550	4.220	194.68	-1.90	4.70	 	 	 	 	 	 	 	 	 	 	 	 	 	 	 	 	 	 	1581482648	11.67	21.61
12/02/2020 04:44:09	120220	12022020	044409	194.39	13.307717	-57.026390	194.64	-0.550	0.510	3.720	194.38	-0.80	4.20	 	 	 	 	 	 	 	 	 	 	 	 	 	 	 	 	 	 	1581482649	11.14	20.63
12/02/2020 04:44:10	120220	12022020	044410	194.51	13.307667	-57.026403	194.81	-0.360	0.850	2.860	194.57	-0.50	3.30	 	 	 	 	 	 	 	 	 	 	 	 	 	 	 	 	 	 	1581482650	10.63	19.69
12/02/2020 04:44:11	120220	12022020	044411	194.84	13.307615	-57.026418	195.12	-0.150	0.380	2.230	194.90	-1.00	2.70	 	 	 	 	 	 	 	 	 	 	 	 	 	 	 	 	 	 	1581482651	11.03	20.43
12/02/2020 04:44:12	120220	12022020	044412	195.15	13.307562	-57.026435	195.43	-0.010	-0.260	2.100	195.21	-1.60	2.60	 	 	 	 	 	 	 	 	 	 	 	 	 	 	 	 	 	 	1581482652	11.72	21.71
12/02/2020 04:44:13	120220	12022020	044413	195.41	13.307512	-57.026453	195.67	0.030	-0.550	2.250	195.46	-1.90	2.80	 	 	 	 	 	 	 	 	 	 	 	 	 	 	 	 	 	 	1581482653	11.88	22.00
12/02/2020 04:44:14	120220	12022020	044414	195.59	13.307463	-57.026470	195.83	0.110	-0.450	2.440	195.61	-1.80	3.00	 	 	 	 	 	 	 	 	 	 	 	 	 	 	 	 	 	 	1581482654	11.42	21.15
12/02/2020 04:44:15	120220	12022020	044415	195.73	13.307415	-57.026483	195.99	0.260	-0.200	2.190	195.78	-1.50	2.70	 	 	 	 	 	 	 	 	 	 	 	 	 	 	 	 	 	 	1581482655	10.94	20.26
12/02/2020 04:44:16	120220	12022020	044416	196.02	13.307367	-57.026493	196.31	0.370	0.030	1.630	196.10	-1.30	2.10	 	 	 	 	 	 	 	 	 	 	 	 	 	 	 	 	 	 	1581482656	10.75	19.91
12/02/2020 04:44:17	120220	12022020	044417	196.38	13.307317	-57.026505	196.63	0.390	-0.090	1.140	196.43	-1.50	1.70	 	 	 	 	 	 	 	 	 	 	 	 	 	 	 	 	 	 	1581482657	10.72	19.85
12/02/2020 04:44:18	120220	12022020	044418	196.56	13.307263	-57.026517	196.79	0.430	-0.670	0.810	196.58	-2.00	1.30	 	 	 	 	 	 	 	 	 	 	 	 	 	 	 	 	 	 	1581482658	10.97	20.32
12/02/2020 04:44:19	120220	12022020	044419	196.65	13.307212	-57.026530	196.84	0.450	-1.230	0.850	196.65	-2.60	1.40	 	 	 	 	 	 	 	 	 	 	 	 	 	 	 	 	 	 	1581482659	11.53	21.35
12/02/2020 04:44:20	120220	12022020	044420	196.53	13.307160	-57.026547	196.64	0.370	-1.390	1.410	196.46	-2.70	1.90	 	 	 	 	 	 	 	 	 	 	 	 	 	 	 	 	 	 	1581482660	11.68	21.63
12/02/2020 04:44:21	120220	12022020	044421	196.05	13.307160	-57.026547	196.09	0.060	-1.260	2.210	195.91	-2.60	2.70	 	 	 	 	 	 	 	 	 	 	 	 	 	 	 	 	 	 	1581482661	11.42	21.15
12/02/2020 04:44:22	120220	12022020	044422	195.37	13.307060	-57.026583	195.44	-0.460	-0.880	2.930	195.24	-2.20	3.40	 	 	 	 	 	 	 	 	 	 	 	 	 	 	 	 	 	 	1581482662	11.38	21.08
12/02/2020 04:44:23	120220	12022020	044423	194.84	13.307012	-57.026607	194.99	-1.040	-0.260	3.380	194.77	-1.60	3.90	 	 	 	 	 	 	 	 	 	 	 	 	 	 	 	 	 	 	1581482663	11.53	21.35
12/02/2020 04:44:24	120220	12022020	044424	194.66	13.306965	-57.026630	194.90	-1.330	0.550	3.360	194.67	-0.80	3.80	 	 	 	 	 	 	 	 	 	 	 	 	 	 	 	 	 	 	1581482664	11.53	21.35
12/02/2020 04:44:25	120220	12022020	044425	194.85	13.306917	-57.026648	195.15	-1.060	1.180	2.780	194.92	-0.20	3.30	 	 	 	 	 	 	 	 	 	 	 	 	 	 	 	 	 	 	1581482665	11.27	20.87
12/02/2020 04:44:26	120220	12022020	044426	195.23	13.306865	-57.026663	195.55	-0.310	1.120	2.010	195.33	-0.30	2.50	 	 	 	 	 	 	 	 	 	 	 	 	 	 	 	 	 	 	1581482666	11.06	20.48
12/02/2020 04:44:27	120220	12022020	044427	195.82	13.306813	-57.026677	196.20	0.480	0.630	1.260	195.96	-0.80	1.80	 	 	 	 	 	 	 	 	 	 	 	 	 	 	 	 	 	 	1581482667	11.44	21.19
12/02/2020 04:44:28	120220	12022020	044428	196.57	13.306762	-57.026688	196.91	0.950	0.140	0.740	196.69	-1.20	1.30	 	 	 	 	 	 	 	 	 	 	 	 	 	 	 	 	 	 	1581482668	11.64	21.56
12/02/2020 04:44:29	120220	12022020	044429	197.03	13.306712	-57.026700	197.26	1.080	-0.360	0.680	197.07	-1.70	1.20	 	 	 	 	 	 	 	 	 	 	 	 	 	 	 	 	 	 	1581482669	11.29	20.91
12/02/2020 04:44:30	120220	12022020	044430	197.13	13.306662	-57.026712	197.32	1.050	-0.880	0.970	197.13	-2.30	1.50	 	 	 	 	 	 	 	 	 	 	 	 	 	 	 	 	 	 	1581482670	11.01	20.39
12/02/2020 04:44:31	120220	12022020	044431	197.12	13.306613	-57.026727	197.28	0.850	-1.220	1.470	197.10	-2.60	2.00	 	 	 	 	 	 	 	 	 	 	 	 	 	 	 	 	 	 	1581482671	11.03	20.43
12/02/2020 04:44:32	120220	12022020	044432	196.89	13.306563	-57.026742	197.00	0.480	-1.470	2.080	196.81	-2.80	2.60	 	 	 	 	 	 	 	 	 	 	 	 	 	 	 	 	 	 	1581482672	10.95	20.28
12/02/2020 04:44:33	120220	12022020	044433	196.44	13.306513	-57.026762	196.54	-0.010	-1.670	2.600	196.34	-3.00	3.10	 	 	 	 	 	 	 	 	 	 	 	 	 	 	 	 	 	 	1581482673	11.08	20.52
12/02/2020 04:44:34	120220	12022020	044434	195.96	13.306465	-57.026783	196.11	-0.460	-1.460	2.900	195.88	-2.80	3.40	 	 	 	 	 	 	 	 	 	 	 	 	 	 	 	 	 	 	1581482674	11.47	21.24
12/02/2020 04:44:35	120220	12022020	044435	195.61	13.306417	-57.026802	195.81	-0.730	-0.750	2.900	195.55	-2.10	3.40	 	 	 	 	 	 	 	 	 	 	 	 	 	 	 	 	 	 	1581482675	11.50	21.30
12/02/2020 04:44:36	120220	12022020	044436	195.36	13.306367	-57.026818	195.56	-0.800	-0.110	2.690	195.32	-1.40	3.20	 	 	 	 	 	 	 	 	 	 	 	 	 	 	 	 	 	 	1581482676	11.15	20.65
12/02/2020 04:44:37	120220	12022020	044437	195.22	13.306315	-57.026837	195.47	-0.830	0.170	2.470	195.22	-1.20	3.00	 	 	 	 	 	 	 	 	 	 	 	 	 	 	 	 	 	 	1581482677	11.28	20.89
12/02/2020 04:44:38	120220	12022020	044438	195.34	13.306263	-57.026857	195.66	-0.880	0.350	2.300	195.41	-1.00	2.80	 	 	 	 	 	 	 	 	 	 	 	 	 	 	 	 	 	 	1581482678	11.75	21.76
12/02/2020 04:44:39	120220	12022020	044439	195.71	13.306213	-57.026875	196.00	-0.770	0.610	2.090	195.77	-0.70	2.60	 	 	 	 	 	 	 	 	 	 	 	 	 	 	 	 	 	 	1581482679	11.81	21.87
12/02/2020 04:44:40	120220	12022020	044440	196.00	13.306163	-57.026892	196.27	-0.290	0.650	1.840	196.06	-0.70	2.30	 	 	 	 	 	 	 	 	 	 	 	 	 	 	 	 	 	 	1581482680	11.45	21.21
12/02/2020 04:44:41	120220	12022020	044441	196.35	13.306112	-57.026905	196.67	0.460	0.560	1.300	196.45	-0.80	1.80	 	 	 	 	 	 	 	 	 	 	 	 	 	 	 	 	 	 	1581482681	11.45	21.21
12/02/2020 04:44:42	120220	12022020	044442	196.89	13.306060	-57.026915	197.22	1.090	0.550	0.580	197.00	-0.80	1.10	 	 	 	 	 	 	 	 	 	 	 	 	 	 	 	 	 	 	1581482682	11.44	21.19
12/02/2020 04:44:43	120220	12022020	044443	197.39	13.306010	-57.026922	197.66	1.290	0.370	0.100	197.46	-1.00	0.60	 	 	 	 	 	 	 	 	 	 	 	 	 	 	 	 	 	 	1581482683	11.12	20.59
12/02/2020 04:44:44	120220	12022020	044444	197.64	13.305960	-57.026935	197.85	1.040	-0.420	0.510	197.65	-1.80	1.00	 	 	 	 	 	 	 	 	 	 	 	 	 	 	 	 	 	 	1581482684	10.96	20.30
12/02/2020 04:44:45	120220	12022020	044445	197.51	13.305908	-57.026955	197.62	0.590	-1.600	1.750	197.44	-3.00	2.30	 	 	 	 	 	 	 	 	 	 	 	 	 	 	 	 	 	 	1581482685	11.21	20.76
12/02/2020 04:44:46	120220	12022020	044446	196.90	13.305858	-57.026978	196.88	0.190	-2.460	3.140	196.71	-3.80	3.70	 	 	 	 	 	 	 	 	 	 	 	 	 	 	 	 	 	 	1581482686	11.73	21.72
12/02/2020 04:44:47	120220	12022020	044447	195.80	13.305808	-57.027003	195.73	-0.050	-2.550	4.230	195.55	-3.90	4.70	 	 	 	 	 	 	 	 	 	 	 	 	 	 	 	 	 	 	1581482687	11.91	22.06
12/02/2020 04:44:48	120220	12022020	044448	194.73	13.305762	-57.027025	194.78	-0.340	-1.650	4.560	194.58	-3.00	5.10	 	 	 	 	 	 	 	 	 	 	 	 	 	 	 	 	 	 	1581482688	11.75	21.76
12/02/2020 04:44:49	120220	12022020	044449	194.24	13.305715	-57.027043	194.45	-0.840	-0.180	4.230	194.22	-1.50	4.70	 	 	 	 	 	 	 	 	 	 	 	 	 	 	 	 	 	 	1581482689	11.23	20.80
12/02/2020 04:44:50	120220	12022020	044450	194.37	13.305668	-57.027062	194.67	-1.340	0.990	3.440	194.44	-0.40	3.90	 	 	 	 	 	 	 	 	 	 	 	 	 	 	 	 	 	 	1581482690	10.67	19.76
12/02/2020 04:44:51	120220	12022020	044451	194.79	13.305618	-57.027080	195.09	-1.350	1.250	2.600	194.87	-0.10	3.10	 	 	 	 	 	 	 	 	 	 	 	 	 	 	 	 	 	 	1581482691	10.76	19.93
12/02/2020 04:44:52	120220	12022020	044452	195.15	13.305565	-57.027097	195.41	-0.520	0.700	1.920	195.22	-0.70	2.40	 	 	 	 	 	 	 	 	 	 	 	 	 	 	 	 	 	 	1581482692	11.45	21.21
12/02/2020 04:44:53	120220	12022020	044453	195.58	13.305508	-57.027110	195.94	0.730	0.200	1.180	195.71	-1.20	1.70	 	 	 	 	 	 	 	 	 	 	 	 	 	 	 	 	 	 	1581482693	12.21	22.61
12/02/2020 04:44:54	120220	12022020	044454	196.44	13.305457	-57.027117	196.88	1.450	0.290	0.610	196.65	-1.10	1.10	 	 	 	 	 	 	 	 	 	 	 	 	 	 	 	 	 	 	1581482694	12.19	22.58
12/02/2020 04:44:55	120220	12022020	044455	197.38	13.305408	-57.027125	197.74	1.230	0.270	0.570	197.51	-1.10	1.10	 	 	 	 	 	 	 	 	 	 	 	 	 	 	 	 	 	 	1581482695	11.22	20.78
12/02/2020 04:44:56	120220	12022020	044456	197.74	13.305358	-57.027142	197.95	0.610	-0.480	1.190	197.73	-2.00	1.80	 	 	 	 	 	 	 	 	 	 	 	 	 	 	 	 	 	 	1581482696	10.66	19.74
12/02/2020 04:44:57	120220	12022020	044457	197.41	13.305307	-57.027163	197.47	0.030	-1.780	2.570	197.27	-3.20	3.10	 	 	 	 	 	 	 	 	 	 	 	 	 	 	 	 	 	 	1581482697	11.27	20.87
12/02/2020 04:44:58	120220	12022020	044458	196.66	13.305257	-57.027187	196.72	-0.150	-2.100	3.520	196.50	-3.40	4.00	 	 	 	 	 	 	 	 	 	 	 	 	 	 	 	 	 	 	1581482698	12.04	22.30
12/02/2020 04:44:59	120220	12022020	044459	196.00	13.305210	-57.027205	196.14	-0.220	-1.360	3.570	195.91	-2.70	4.10	 	 	 	 	 	 	 	 	 	 	 	 	 	 	 	 	 	 	1581482699	11.69	21.65
12/02/2020 04:45:00	120220	12022020	044500	195.64	13.305210	-57.027205	195.80	-0.320	-0.390	3.050	195.59	-1.70	3.50	 	 	 	 	 	 	 	 	 	 	 	 	 	 	 	 	 	 	1581482700	10.75	19.91
12/02/2020 04:45:01	120220	12022020	044501	195.37	13.305115	-57.027235	195.51	-0.330	0.020	2.430	195.31	-1.30	2.90	1016.40	26.10	26.20	21.10	21.20	-1.0	74.0	74.0	418.0	25.7	257.00	9.80	66.00	12.50	16	8038.0	27.2	27.2	1581482701	10.48	19.41
12/02/2020 04:45:02	120220	12022020	044502	195.10	13.305062	-57.027250	195.26	-0.200	-0.160	2.120	195.05	-1.50	2.60	 	 	 	 	 	 	 	 	 	 	 	 	 	 	 	 	 	 	1581482702	11.12	20.59
12/02/2020 04:45:03	120220	12022020	044503	194.87	13.305008	-57.027268	195.03	-0.080	-0.300	2.180	194.84	-1.70	2.70	 	 	 	 	 	 	 	 	 	 	 	 	 	 	 	 	 	 	1581482703	11.90	22.04
12/02/2020 04:45:04	120220	12022020	044504	194.85	13.304957	-57.027287	195.12	-0.180	0.040	2.270	194.90	-1.30	2.80	 	 	 	 	 	 	 	 	 	 	 	 	 	 	 	 	 	 	1581482704	12.04	22.30
12/02/2020 04:45:05	120220	12022020	044505	195.27	13.304910	-57.027303	195.66	-0.500	0.710	2.210	195.40	-0.60	2.70	 	 	 	 	 	 	 	 	 	 	 	 	 	 	 	 	 	 	1581482705	11.50	21.30
12/02/2020 04:45:06	120220	12022020	044506	196.13	13.304865	-57.027320	196.59	-0.700	1.260	1.740	196.33	-0.10	2.20	 	 	 	 	 	 	 	 	 	 	 	 	 	 	 	 	 	 	1581482706	10.81	20.02
12/02/2020 04:45:07	120220	12022020	044507	197.06	13.304817	-57.027335	197.45	-0.380	1.020	1.040	197.22	-0.40	1.50	 	 	 	 	 	 	 	 	 	 	 	 	 	 	 	 	 	 	1581482707	10.40	19.26
12/02/2020 04:45:08	120220	12022020	044508	197.69	13.304763	-57.027348	197.98	0.530	-0.110	0.370	197.78	-1.50	0.90	 	 	 	 	 	 	 	 	 	 	 	 	 	 	 	 	 	 	1581482708	10.80	20.00
12/02/2020 04:45:09	120220	12022020	044509	198.02	13.304708	-57.027358	198.30	1.400	-1.320	0.060	198.07	-2.70	0.60	 	 	 	 	 	 	 	 	 	 	 	 	 	 	 	 	 	 	1581482709	11.71	21.69
12/02/2020 04:45:10	120220	12022020	044510	198.19	13.304657	-57.027372	198.42	1.560	-1.820	0.340	198.19	-3.20	0.90	 	 	 	 	 	 	 	 	 	 	 	 	 	 	 	 	 	 	1581482710	12.01	22.24
12/02/2020 04:45:11	120220	12022020	044511	197.97	13.304610	-57.027387	198.06	1.000	-1.780	1.170	197.86	-3.10	1.70	 	 	 	 	 	 	 	 	 	 	 	 	 	 	 	 	 	 	1581482711	11.33	20.98
12/02/2020 04:45:12	120220	12022020	044512	197.15	13.304560	-57.027407	197.10	0.230	-1.640	2.380	196.91	-3.00	2.90	 	 	 	 	 	 	 	 	 	 	 	 	 	 	 	 	 	 	1581482712	10.87	20.13
12/02/2020 04:45:13	120220	12022020	044513	196.00	13.304512	-57.027428	196.02	-0.500	-1.190	3.450	195.79	-2.50	4.00	 	 	 	 	 	 	 	 	 	 	 	 	 	 	 	 	 	 	1581482713	11.28	20.89
12/02/2020 04:45:14	120220	12022020	044514	195.31	13.304463	-57.027452	195.53	-1.250	-0.090	3.760	195.26	-1.40	4.20	 	 	 	 	 	 	 	 	 	 	 	 	 	 	 	 	 	 	1581482714	11.66	21.59
12/02/2020 04:45:15	120220	12022020	044515	195.35	13.304418	-57.027475	195.71	-1.790	1.020	3.510	195.42	-0.30	4.00	 	 	 	 	 	 	 	 	 	 	 	 	 	 	 	 	 	 	1581482715	11.19	20.72
12/02/2020 04:45:16	120220	12022020	044516	195.79	13.304418	-57.027475	196.18	-1.660	1.260	2.880	195.89	-0.10	3.30	 	 	 	 	 	 	 	 	 	 	 	 	 	 	 	 	 	 	1581482716	10.90	20.19
12/02/2020 04:45:17	120220	12022020	044517	196.33	13.304317	-57.027518	196.66	-0.730	0.720	1.830	196.45	-0.70	2.10	 	 	 	 	 	 	 	 	 	 	 	 	 	 	 	 	 	 	1581482717	11.47	21.24
12/02/2020 04:45:18	120220	12022020	044518	197.09	13.304263	-57.027528	197.53	0.710	0.170	0.420	197.26	-1.20	0.90	 	 	 	 	 	 	 	 	 	 	 	 	 	 	 	 	 	 	1581482718	12.15	22.50
12/02/2020 04:45:19	120220	12022020	044519	198.03	13.304213	-57.027538	198.44	1.250	0.140	-0.180	198.19	-1.20	0.30	 	 	 	 	 	 	 	 	 	 	 	 	 	 	 	 	 	 	1581482719	11.97	22.17
12/02/2020 04:45:20	120220	12022020	044520	198.62	13.304165	-57.027550	198.88	0.860	-0.030	0.030	198.66	-1.40	0.60	 	 	 	 	 	 	 	 	 	 	 	 	 	 	 	 	 	 	1581482720	10.96	20.30
12/02/2020 04:45:21	120220	12022020	044521	198.57	13.304117	-57.027568	198.69	0.210	-0.750	0.910	198.49	-2.10	1.40	 	 	 	 	 	 	 	 	 	 	 	 	 	 	 	 	 	 	1581482721	10.53	19.50
12/02/2020 04:45:22	120220	12022020	044522	198.05	13.304068	-57.027592	198.12	-0.050	-1.550	1.900	197.93	-2.90	2.40	 	 	 	 	 	 	 	 	 	 	 	 	 	 	 	 	 	 	1581482722	11.06	20.48
12/02/2020 04:45:23	120220	12022020	044523	197.44	13.304020	-57.027613	197.55	0.170	-1.650	2.450	197.34	-3.00	2.90	 	 	 	 	 	 	 	 	 	 	 	 	 	 	 	 	 	 	1581482723	11.63	21.54
12/02/2020 04:45:24	120220	12022020	044524	197.05	13.303973	-57.027632	197.24	0.380	-1.010	2.400	197.01	-2.30	2.90	 	 	 	 	 	 	 	 	 	 	 	 	 	 	 	 	 	 	1581482724	11.35	21.02
12/02/2020 04:45:25	120220	12022020	044525	196.91	13.303927	-57.027647	197.13	0.240	-0.290	2.150	196.89	-1.60	2.60	 	 	 	 	 	 	 	 	 	 	 	 	 	 	 	 	 	 	1581482725	10.72	19.85
12/02/2020 04:45:26	120220	12022020	044526	196.82	13.303927	-57.027647	197.00	-0.160	0.010	2.110	196.78	-1.30	2.60	 	 	 	 	 	 	 	 	 	 	 	 	 	 	 	 	 	 	1581482726	10.61	19.65
12/02/2020 04:45:27	120220	12022020	044527	196.57	13.303877	-57.027665	196.72	-0.490	-0.120	2.460	196.50	-1.50	3.00	 	 	 	 	 	 	 	 	 	 	 	 	 	 	 	 	 	 	1581482727	11.09	20.54
12/02/2020 04:45:28	120220	12022020	044528	196.21	13.303777	-57.027707	196.36	-0.510	-0.290	2.840	196.15	-1.60	3.30	 	 	 	 	 	 	 	 	 	 	 	 	 	 	 	 	 	 	1581482728	11.64	21.56
12/02/2020 04:45:29	120220	12022020	044529	195.99	13.303727	-57.027725	196.25	-0.280	-0.070	2.790	196.00	-1.40	3.30	 	 	 	 	 	 	 	 	 	 	 	 	 	 	 	 	 	 	1581482729	11.82	21.89
12/02/2020 04:45:30	120220	12022020	044530	196.22	13.303678	-57.027740	196.58	-0.090	0.450	2.400	196.30	-0.90	2.90	 	 	 	 	 	 	 	 	 	 	 	 	 	 	 	 	 	 	1581482730	11.40	21.11
12/02/2020 04:45:31	120220	12022020	044531	196.66	13.303632	-57.027757	196.98	-0.060	0.670	2.030	196.73	-0.70	2.50	 	 	 	 	 	 	 	 	 	 	 	 	 	 	 	 	 	 	1581482731	10.74	19.89
12/02/2020 04:45:32	120220	12022020	044532	196.86	13.303583	-57.027772	197.09	0.030	0.270	1.870	196.87	-1.10	2.40	 	 	 	 	 	 	 	 	 	 	 	 	 	 	 	 	 	 	1581482732	10.62	19.67
12/02/2020 04:45:33	120220	12022020	044533	196.80	13.303533	-57.027788	197.00	0.260	-0.370	1.960	196.78	-1.80	2.50	 	 	 	 	 	 	 	 	 	 	 	 	 	 	 	 	 	 	1581482733	11.05	20.46
12/02/2020 04:45:34	120220	12022020	044534	196.63	13.303483	-57.027805	196.80	0.530	-0.890	2.190	196.58	-2.30	2.70	 	 	 	 	 	 	 	 	 	 	 	 	 	 	 	 	 	 	1581482734	11.33	20.98
12/02/2020 04:45:35	120220	12022020	044535	196.39	13.303433	-57.027822	196.58	0.680	-1.290	2.420	196.35	-2.60	2.90	 	 	 	 	 	 	 	 	 	 	 	 	 	 	 	 	 	 	1581482735	11.26	20.85
12/02/2020 04:45:36	120220	12022020	044536	196.20	13.303383	-57.027838	196.37	0.630	-1.350	2.590	196.16	-2.70	3.10	 	 	 	 	 	 	 	 	 	 	 	 	 	 	 	 	 	 	1581482736	11.32	20.96
12/02/2020 04:45:37	120220	12022020	044537	196.05	13.303335	-57.027853	196.28	0.340	-0.880	2.710	196.04	-2.20	3.20	 	 	 	 	 	 	 	 	 	 	 	 	 	 	 	 	 	 	1581482737	11.29	20.91
12/02/2020 04:45:38	120220	12022020	044538	196.09	13.303288	-57.027868	196.34	-0.110	-0.130	2.610	196.11	-1.40	3.10	 	 	 	 	 	 	 	 	 	 	 	 	 	 	 	 	 	 	1581482738	10.96	20.30
12/02/2020 04:45:39	120220	12022020	044539	196.20	13.303240	-57.027885	196.44	-0.700	0.360	2.390	196.22	-1.00	2.90	 	 	 	 	 	 	 	 	 	 	 	 	 	 	 	 	 	 	1581482739	10.56	19.56
12/02/2020 04:45:40	120220	12022020	044540	196.24	13.303190	-57.027905	196.44	-0.960	0.100	2.460	196.23	-1.30	3.00	 	 	 	 	 	 	 	 	 	 	 	 	 	 	 	 	 	 	1581482740	10.85	20.09
12/02/2020 04:45:41	120220	12022020	044541	196.11	13.303138	-57.027927	196.26	-0.740	-0.340	2.570	196.06	-1.70	3.10	 	 	 	 	 	 	 	 	 	 	 	 	 	 	 	 	 	 	1581482741	11.61	21.50
12/02/2020 04:45:42	120220	12022020	044542	195.82	13.303087	-57.027945	195.97	-0.100	-0.520	2.400	195.77	-1.90	2.90	 	 	 	 	 	 	 	 	 	 	 	 	 	 	 	 	 	 	1581482742	11.93	22.09
12/02/2020 04:45:43	120220	12022020	044543	195.63	13.303037	-57.027958	195.86	0.570	-0.230	1.820	195.64	-1.60	2.30	 	 	 	 	 	 	 	 	 	 	 	 	 	 	 	 	 	 	1581482743	11.73	21.72
12/02/2020 04:45:44	120220	12022020	044544	195.82	13.302988	-57.027967	196.09	0.850	0.330	0.970	195.89	-1.00	1.40	 	 	 	 	 	 	 	 	 	 	 	 	 	 	 	 	 	 	1581482744	11.19	20.72
12/02/2020 04:45:45	120220	12022020	044545	196.17	13.302938	-57.027975	196.41	0.690	0.500	0.520	196.22	-0.90	1.00	 	 	 	 	 	 	 	 	 	 	 	 	 	 	 	 	 	 	1581482745	10.67	19.76
12/02/2020 04:45:46	120220	12022020	044546	196.32	13.302938	-57.027975	196.49	0.340	-0.080	0.890	196.32	-1.50	1.40	 	 	 	 	 	 	 	 	 	 	 	 	 	 	 	 	 	 	1581482746	10.73	19.87
12/02/2020 04:45:47	120220	12022020	044547	196.27	13.302837	-57.028008	196.45	-0.050	-0.880	1.900	196.25	-2.30	2.40	 	 	 	 	 	 	 	 	 	 	 	 	 	 	 	 	 	 	1581482747	11.32	20.96
12/02/2020 04:45:48	120220	12022020	044548	196.19	13.302788	-57.028032	196.39	-0.420	-1.200	3.000	196.17	-2.50	3.50	 	 	 	 	 	 	 	 	 	 	 	 	 	 	 	 	 	 	1581482748	11.74	21.74
12/02/2020 04:45:49	120220	12022020	044549	195.92	13.302788	-57.028032	196.01	-0.650	-1.090	3.760	195.81	-2.40	4.30	 	 	 	 	 	 	 	 	 	 	 	 	 	 	 	 	 	 	1581482749	11.46	21.22
12/02/2020 04:45:50	120220	12022020	044550	195.21	13.302693	-57.028078	195.22	-0.500	-1.080	4.150	195.04	-2.40	4.60	 	 	 	 	 	 	 	 	 	 	 	 	 	 	 	 	 	 	1581482750	11.09	20.54
12/02/2020 04:45:51	120220	12022020	044551	194.47	13.302643	-57.028097	194.63	-0.120	-0.940	3.840	194.38	-2.20	4.20	 	 	 	 	 	 	 	 	 	 	 	 	 	 	 	 	 	 	1581482751	11.46	21.22
12/02/2020 04:45:52	120220	12022020	044552	194.21	13.302593	-57.028110	194.44	0.220	-0.240	3.000	194.22	-1.50	3.40	 	 	 	 	 	 	 	 	 	 	 	 	 	 	 	 	 	 	1581482752	11.64	21.56
12/02/2020 04:45:53	120220	12022020	044553	194.43	13.302545	-57.028118	194.76	0.240	0.640	1.860	194.53	-0.70	2.30	 	 	 	 	 	 	 	 	 	 	 	 	 	 	 	 	 	 	1581482753	11.03	20.43
12/02/2020 04:45:54	120220	12022020	044554	194.95	13.302495	-57.028128	195.23	0.070	0.910	1.090	195.06	-0.50	1.50	 	 	 	 	 	 	 	 	 	 	 	 	 	 	 	 	 	 	1581482754	10.68	19.78
12/02/2020 04:45:55	120220	12022020	044555	195.52	13.302443	-57.028140	195.79	-0.050	0.640	0.830	195.63	-0.80	1.40	 	 	 	 	 	 	 	 	 	 	 	 	 	 	 	 	 	 	1581482755	10.90	20.19
12/02/2020 04:45:56	120220	12022020	044556	196.02	13.302392	-57.028153	196.29	0.090	-0.050	0.960	196.10	-1.40	1.50	 	 	 	 	 	 	 	 	 	 	 	 	 	 	 	 	 	 	1581482756	11.21	20.76
12/02/2020 04:45:57	120220	12022020	044557	196.27	13.302340	-57.028168	196.49	0.330	-0.940	1.250	196.30	-2.30	1.80	 	 	 	 	 	 	 	 	 	 	 	 	 	 	 	 	 	 	1581482757	11.38	21.08
12/02/2020 04:45:58	120220	12022020	044558	196.30	13.302288	-57.028187	196.48	0.430	-1.630	1.940	196.28	-3.00	2.40	 	 	 	 	 	 	 	 	 	 	 	 	 	 	 	 	 	 	1581482758	11.66	21.59
12/02/2020 04:45:59	120220	12022020	044559	196.08	13.302240	-57.028205	196.25	0.280	-1.650	2.650	196.01	-2.90	3.20	 	 	 	 	 	 	 	 	 	 	 	 	 	 	 	 	 	 	1581482759	11.66	21.59
12/02/2020 04:46:00	120220	12022020	044600	195.76	13.302240	-57.028205	195.93	-0.250	-0.850	3.160	195.71	-2.20	3.60	 	 	 	 	 	 	 	 	 	 	 	 	 	 	 	 	 	 	1581482760	11.20	20.74
12/02/2020 04:46:01	120220	12022020	044601	195.55	13.302147	-57.028240	195.75	-0.790	-0.070	3.250	195.50	-1.40	3.70	1016.30	26.10	26.10	21.30	21.30	-1.0	74.0	74.0	416.0	25.7	263.00	10.00	71.00	12.20	16	8324.0	27.2	27.2	1581482761	10.65	19.72
12/02/2020 04:46:02	120220	12022020	044602	195.27	13.302098	-57.028260	195.40	-1.080	0.200	3.180	195.21	-1.20	3.60	 	 	 	 	 	 	 	 	 	 	 	 	 	 	 	 	 	 	1581482762	10.58	19.59
12/02/2020 04:46:03	120220	12022020	044603	194.94	13.302047	-57.028278	195.10	-0.730	-0.020	2.840	194.88	-1.40	3.20	 	 	 	 	 	 	 	 	 	 	 	 	 	 	 	 	 	 	1581482763	11.32	20.96
12/02/2020 04:46:04	120220	12022020	044604	194.82	13.302047	-57.028278	195.06	0.010	0.020	2.030	194.85	-1.30	2.50	 	 	 	 	 	 	 	 	 	 	 	 	 	 	 	 	 	 	1581482764	11.97	22.17
12/02/2020 04:46:05	120220	12022020	044605	195.13	13.301943	-57.028305	195.39	0.400	0.430	1.350	195.23	-0.90	1.80	 	 	 	 	 	 	 	 	 	 	 	 	 	 	 	 	 	 	1581482765	11.72	21.71
12/02/2020 04:46:06	120220	12022020	044606	195.69	13.301895	-57.028315	195.93	0.460	0.700	0.890	195.79	-0.70	1.40	 	 	 	 	 	 	 	 	 	 	 	 	 	 	 	 	 	 	1581482766	10.91	20.21
12/02/2020 04:46:07	120220	12022020	044607	196.12	13.301845	-57.028328	196.33	0.450	0.350	0.880	196.17	-1.10	1.40	 	 	 	 	 	 	 	 	 	 	 	 	 	 	 	 	 	 	1581482767	10.65	19.72
12/02/2020 04:46:08	120220	12022020	044608	196.33	13.301795	-57.028343	196.52	0.530	-0.350	1.130	196.35	-1.80	1.70	 	 	 	 	 	 	 	 	 	 	 	 	 	 	 	 	 	 	1581482768	11.07	20.50
12/02/2020 04:46:09	120220	12022020	044609	196.41	13.301745	-57.028358	196.59	0.520	-0.870	1.460	196.41	-2.30	2.00	 	 	 	 	 	 	 	 	 	 	 	 	 	 	 	 	 	 	1581482769	11.40	21.11
12/02/2020 04:46:10	120220	12022020	044610	196.41	13.301697	-57.028373	196.59	0.230	-1.000	1.880	196.39	-2.40	2.40	 	 	 	 	 	 	 	 	 	 	 	 	 	 	 	 	 	 	1581482770	11.18	20.71
12/02/2020 04:46:11	120220	12022020	044611	196.28	13.301650	-57.028393	196.44	-0.220	-1.040	2.360	196.25	-2.40	2.80	 	 	 	 	 	 	 	 	 	 	 	 	 	 	 	 	 	 	1581482771	10.80	20.00
12/02/2020 04:46:12	120220	12022020	044612	196.11	13.301602	-57.028412	196.26	-0.450	-1.110	2.520	196.06	-2.50	3.00	 	 	 	 	 	 	 	 	 	 	 	 	 	 	 	 	 	 	1581482772	10.86	20.11
12/02/2020 04:46:13	120220	12022020	044613	195.81	13.301552	-57.028432	195.93	-0.420	-1.110	2.590	195.72	-2.40	3.10	 	 	 	 	 	 	 	 	 	 	 	 	 	 	 	 	 	 	1581482773	11.18	20.71
12/02/2020 04:46:14	120220	12022020	044614	195.37	13.301502	-57.028450	195.52	-0.240	-0.820	2.640	195.29	-2.10	3.10	 	 	 	 	 	 	 	 	 	 	 	 	 	 	 	 	 	 	1581482774	11.44	21.19
12/02/2020 04:46:15	120220	12022020	044615	195.06	13.301452	-57.028465	195.25	-0.120	-0.220	2.430	195.03	-1.50	2.90	 	 	 	 	 	 	 	 	 	 	 	 	 	 	 	 	 	 	1581482775	11.38	21.08
12/02/2020 04:46:16	120220	12022020	044616	195.03	13.301403	-57.028478	195.24	-0.150	0.360	2.010	195.05	-0.90	2.40	 	 	 	 	 	 	 	 	 	 	 	 	 	 	 	 	 	 	1581482776	11.14	20.63
12/02/2020 04:46:17	120220	12022020	044617	195.26	13.301403	-57.028478	195.51	-0.220	0.570	1.630	195.34	-0.80	2.10	 	 	 	 	 	 	 	 	 	 	 	 	 	 	 	 	 	 	1581482777	11.11	20.58
12/02/2020 04:46:18	120220	12022020	044618	195.70	13.301352	-57.028493	195.95	-0.150	0.450	1.310	195.79	-0.90	1.80	 	 	 	 	 	 	 	 	 	 	 	 	 	 	 	 	 	 	1581482778	11.37	21.06
12/02/2020 04:46:19	120220	12022020	044619	196.07	13.301300	-57.028507	196.28	0.180	0.110	1.160	196.12	-1.30	1.70	 	 	 	 	 	 	 	 	 	 	 	 	 	 	 	 	 	 	1581482779	11.52	21.34
12/02/2020 04:46:20	120220	12022020	044620	196.31	13.301195	-57.028533	196.52	0.510	-0.280	1.310	196.34	-1.70	1.90	 	 	 	 	 	 	 	 	 	 	 	 	 	 	 	 	 	 	1581482780	11.62	21.52
12/02/2020 04:46:21	120220	12022020	044621	196.45	13.301145	-57.028548	196.63	0.440	-0.520	1.740	196.45	-1.90	2.30	 	 	 	 	 	 	 	 	 	 	 	 	 	 	 	 	 	 	1581482781	11.60	21.48
12/02/2020 04:46:22	120220	12022020	044622	196.37	13.301145	-57.028548	196.53	-0.000	-0.650	2.240	196.33	-2.00	2.80	 	 	 	 	 	 	 	 	 	 	 	 	 	 	 	 	 	 	1581482782	11.30	20.93
12/02/2020 04:46:23	120220	12022020	044623	196.19	13.301048	-57.028585	196.37	-0.470	-0.580	2.670	196.16	-1.90	3.20	 	 	 	 	 	 	 	 	 	 	 	 	 	 	 	 	 	 	1581482783	11.15	20.65
12/02/2020 04:46:24	120220	12022020	044624	195.99	13.301000	-57.028605	196.16	-0.560	-0.460	2.810	195.95	-1.80	3.30	 	 	 	 	 	 	 	 	 	 	 	 	 	 	 	 	 	 	1581482784	11.02	20.41
12/02/2020 04:46:25	120220	12022020	044625	195.84	13.301000	-57.028605	196.03	-0.330	-0.360	2.510	195.82	-1.70	2.90	 	 	 	 	 	 	 	 	 	 	 	 	 	 	 	 	 	 	1581482785	11.02	20.41
12/02/2020 04:46:26	120220	12022020	044626	195.78	13.300903	-57.028638	195.97	-0.080	-0.240	2.110	195.78	-1.60	2.50	 	 	 	 	 	 	 	 	 	 	 	 	 	 	 	 	 	 	1581482786	11.12	20.59
12/02/2020 04:46:27	120220	12022020	044627	195.72	13.300903	-57.028638	195.87	0.100	-0.200	1.830	195.68	-1.60	2.30	 	 	 	 	 	 	 	 	 	 	 	 	 	 	 	 	 	 	1581482787	11.06	20.48
12/02/2020 04:46:28	120220	12022020	044628	195.44	13.300803	-57.028670	195.57	0.350	-0.310	1.680	195.38	-1.70	2.10	 	 	 	 	 	 	 	 	 	 	 	 	 	 	 	 	 	 	1581482788	11.10	20.56
12/02/2020 04:46:29	120220	12022020	044629	195.28	13.300752	-57.028682	195.47	0.630	-0.330	1.420	195.31	-1.70	1.90	 	 	 	 	 	 	 	 	 	 	 	 	 	 	 	 	 	 	1581482789	11.33	20.98
12/02/2020 04:46:30	120220	12022020	044630	195.55	13.300702	-57.028693	195.80	0.790	-0.130	1.100	195.64	-1.50	1.60	 	 	 	 	 	 	 	 	 	 	 	 	 	 	 	 	 	 	1581482790	11.31	20.95
12/02/2020 04:46:31	120220	12022020	044631	195.96	13.300702	-57.028693	196.18	0.680	-0.110	0.950	196.03	-1.50	1.50	 	 	 	 	 	 	 	 	 	 	 	 	 	 	 	 	 	 	1581482791	11.04	20.45
12/02/2020 04:46:32	120220	12022020	044632	196.24	13.300600	-57.028720	196.45	0.280	-0.500	1.380	196.28	-1.90	2.00	 	 	 	 	 	 	 	 	 	 	 	 	 	 	 	 	 	 	1581482792	11.11	20.58
12/02/2020 04:46:33	120220	12022020	044633	196.31	13.300548	-57.028742	196.50	-0.260	-0.990	2.270	196.30	-2.40	2.90	 	 	 	 	 	 	 	 	 	 	 	 	 	 	 	 	 	 	1581482793	11.56	21.41
12/02/2020 04:46:34	120220	12022020	044634	196.18	13.300500	-57.028763	196.35	-0.690	-1.170	3.020	196.13	-2.50	3.60	 	 	 	 	 	 	 	 	 	 	 	 	 	 	 	 	 	 	1581482794	11.77	21.80
12/02/2020 04:46:35	120220	12022020	044635	195.91	13.300450	-57.028783	196.07	-0.820	-1.010	3.300	195.85	-2.30	3.80	 	 	 	 	 	 	 	 	 	 	 	 	 	 	 	 	 	 	1581482795	11.65	21.58
12/02/2020 04:46:36	120220	12022020	044636	195.59	13.300400	-57.028802	195.74	-0.720	-0.660	3.240	195.52	-2.00	3.70	 	 	 	 	 	 	 	 	 	 	 	 	 	 	 	 	 	 	1581482796	11.45	21.21
12/02/2020 04:46:37	120220	12022020	044637	195.34	13.300350	-57.028818	195.54	-0.580	-0.210	2.940	195.34	-1.50	3.40	 	 	 	 	 	 	 	 	 	 	 	 	 	 	 	 	 	 	1581482797	11.40	21.11
12/02/2020 04:46:38	120220	12022020	044638	195.44	13.300350	-57.028818	195.68	-0.560	0.380	2.450	195.49	-0.90	2.90	 	 	 	 	 	 	 	 	 	 	 	 	 	 	 	 	 	 	1581482798	11.40	21.11
12/02/2020 04:46:39	120220	12022020	044639	195.74	13.300252	-57.028850	195.97	-0.490	0.870	1.970	195.80	-0.50	2.40	 	 	 	 	 	 	 	 	 	 	 	 	 	 	 	 	 	 	1581482799	11.11	20.58
12/02/2020 04:46:40	120220	12022020	044640	195.95	13.300200	-57.028863	196.15	-0.030	0.770	1.500	195.98	-0.70	2.00	 	 	 	 	 	 	 	 	 	 	 	 	 	 	 	 	 	 	1581482800	10.94	20.26
12/02/2020 04:46:41	120220	12022020	044641	196.08	13.300147	-57.028875	196.28	0.790	0.130	1.070	196.13	-1.30	1.50	 	 	 	 	 	 	 	 	 	 	 	 	 	 	 	 	 	 	1581482801	11.38	21.08
12/02/2020 04:46:42	120220	12022020	044642	196.42	13.300093	-57.028885	196.66	1.340	-0.250	0.740	196.51	-1.60	1.20	 	 	 	 	 	 	 	 	 	 	 	 	 	 	 	 	 	 	1581482802	11.93	22.09
12/02/2020 04:46:43	120220	12022020	044643	196.83	13.300045	-57.028897	197.04	1.140	-0.280	1.000	196.88	-1.70	1.60	 	 	 	 	 	 	 	 	 	 	 	 	 	 	 	 	 	 	1581482803	11.54	21.37
12/02/2020 04:46:44	120220	12022020	044644	196.82	13.299997	-57.028915	196.94	0.410	-0.560	1.950	196.74	-2.00	2.60	 	 	 	 	 	 	 	 	 	 	 	 	 	 	 	 	 	 	1581482804	10.80	20.00
12/02/2020 04:46:45	120220	12022020	044645	196.16	13.299947	-57.028938	196.23	-0.180	-1.240	3.170	195.99	-2.70	3.80	 	 	 	 	 	 	 	 	 	 	 	 	 	 	 	 	 	 	1581482805	10.97	20.32
12/02/2020 04:46:46	120220	12022020	044646	195.37	13.299897	-57.028962	195.51	-0.300	-1.600	3.790	195.26	-2.90	4.30	 	 	 	 	 	 	 	 	 	 	 	 	 	 	 	 	 	 	1581482806	11.78	21.82
12/02/2020 04:46:47	120220	12022020	044647	195.07	13.299848	-57.028980	195.28	-0.200	-1.090	3.510	195.07	-2.30	3.90	 	 	 	 	 	 	 	 	 	 	 	 	 	 	 	 	 	 	1581482807	11.86	21.96
12/02/2020 04:46:48	120220	12022020	044648	195.26	13.299802	-57.028993	195.51	-0.260	-0.190	2.660	195.33	-1.40	3.00	 	 	 	 	 	 	 	 	 	 	 	 	 	 	 	 	 	 	1581482808	11.00	20.37
12/02/2020 04:46:49	120220	12022020	044649	195.72	13.299753	-57.029005	195.96	-0.470	0.320	1.730	195.83	-1.00	2.10	 	 	 	 	 	 	 	 	 	 	 	 	 	 	 	 	 	 	1581482809	10.50	19.45
12/02/2020 04:46:50	120220	12022020	044650	196.23	13.299702	-57.029020	196.45	-0.530	0.140	1.100	196.32	-1.30	1.60	 	 	 	 	 	 	 	 	 	 	 	 	 	 	 	 	 	 	1581482810	10.79	19.98
12/02/2020 04:46:51	120220	12022020	044651	196.57	13.299648	-57.029035	196.77	-0.250	-0.450	1.010	196.62	-1.90	1.50	 	 	 	 	 	 	 	 	 	 	 	 	 	 	 	 	 	 	1581482811	11.47	21.24
12/02/2020 04:46:52	120220	12022020	044652	196.78	13.299595	-57.029052	197.01	0.100	-0.820	1.290	196.84	-2.20	1.80	 	 	 	 	 	 	 	 	 	 	 	 	 	 	 	 	 	 	1581482812	11.96	22.15
12/02/2020 04:46:53	120220	12022020	044653	197.13	13.299545	-57.029068	197.38	0.100	-0.630	1.610	197.21	-1.90	2.20	 	 	 	 	 	 	 	 	 	 	 	 	 	 	 	 	 	 	1581482813	11.88	22.00
12/02/2020 04:46:54	120220	12022020	044654	197.52	13.299498	-57.029087	197.76	-0.190	-0.140	1.820	197.59	-1.40	2.30	 	 	 	 	 	 	 	 	 	 	 	 	 	 	 	 	 	 	1581482814	11.26	20.85
12/02/2020 04:46:55	120220	12022020	044655	197.75	13.299450	-57.029103	197.94	-0.280	0.100	1.810	197.76	-1.30	2.30	 	 	 	 	 	 	 	 	 	 	 	 	 	 	 	 	 	 	1581482815	10.86	20.11
12/02/2020 04:46:56	120220	12022020	044656	197.63	13.299397	-57.029118	197.77	0.160	-0.160	1.650	197.56	-1.60	2.10	 	 	 	 	 	 	 	 	 	 	 	 	 	 	 	 	 	 	1581482816	11.06	20.48
12/02/2020 04:46:57	120220	12022020	044657	197.17	13.299343	-57.029133	197.28	0.670	-0.470	1.770	197.06	-1.80	2.30	 	 	 	 	 	 	 	 	 	 	 	 	 	 	 	 	 	 	1581482817	11.73	21.72
12/02/2020 04:46:58	120220	12022020	044658	196.65	13.299292	-57.029148	196.79	0.620	-0.300	2.080	196.57	-1.60	2.60	 	 	 	 	 	 	 	 	 	 	 	 	 	 	 	 	 	 	1581482818	11.97	22.17
12/02/2020 04:46:59	120220	12022020	044659	196.35	13.299292	-57.029148	196.54	-0.010	0.310	2.140	196.33	-1.00	2.60	 	 	 	 	 	 	 	 	 	 	 	 	 	 	 	 	 	 	1581482819	11.41	21.13
12/02/2020 04:47:00	120220	12022020	044700	196.41	13.299200	-57.029185	196.65	-0.650	0.820	1.950	196.46	-0.50	2.40	 	 	 	 	 	 	 	 	 	 	 	 	 	 	 	 	 	 	1581482820	10.75	19.91
12/02/2020 04:47:01	120220	12022020	044701	196.77	13.299152	-57.029203	197.04	-0.680	0.730	1.570	196.87	-0.70	2.00	1016.30	26.00	26.10	21.00	21.00	-1.0	73.0	74.0	417.0	25.7	260.00	10.50	70.00	12.80	16	8369.0	27.2	27.2	1581482821	10.61	19.65
12/02/2020 04:47:02	120220	12022020	044702	197.24	13.299102	-57.029222	197.48	-0.120	-0.040	1.190	197.31	-1.50	1.70	 	 	 	 	 	 	 	 	 	 	 	 	 	 	 	 	 	 	1581482822	11.00	20.37
12/02/2020 04:47:03	120220	12022020	044703	197.43	13.299048	-57.029240	197.62	0.470	-1.140	1.280	197.43	-2.60	1.80	 	 	 	 	 	 	 	 	 	 	 	 	 	 	 	 	 	 	1581482823	11.55	21.39
12/02/2020 04:47:04	120220	12022020	044704	197.29	13.298998	-57.029260	197.46	0.640	-1.900	1.690	197.23	-3.30	2.30	 	 	 	 	 	 	 	 	 	 	 	 	 	 	 	 	 	 	1581482824	11.88	22.00
12/02/2020 04:47:05	120220	12022020	044705	196.93	13.298998	-57.029260	197.05	0.380	-1.870	2.090	196.83	-3.20	2.60	 	 	 	 	 	 	 	 	 	 	 	 	 	 	 	 	 	 	1581482825	11.68	21.63
12/02/2020 04:47:06	120220	12022020	044706	196.44	13.298903	-57.029298	196.59	0.040	-1.220	2.300	196.35	-2.50	2.80	 	 	 	 	 	 	 	 	 	 	 	 	 	 	 	 	 	 	1581482826	11.13	20.61
12/02/2020 04:47:07	120220	12022020	044707	196.12	13.298855	-57.029313	196.34	-0.080	-0.430	2.130	196.10	-1.70	2.60	 	 	 	 	 	 	 	 	 	 	 	 	 	 	 	 	 	 	1581482827	10.82	20.04
12/02/2020 04:47:08	120220	12022020	044708	196.10	13.298803	-57.029327	196.35	0.000	0.160	1.800	196.12	-1.20	2.30	 	 	 	 	 	 	 	 	 	 	 	 	 	 	 	 	 	 	1581482828	10.90	20.19
12/02/2020 04:47:09	120220	12022020	044709	196.24	13.298752	-57.029342	196.49	0.050	0.300	1.640	196.28	-1.10	2.20	 	 	 	 	 	 	 	 	 	 	 	 	 	 	 	 	 	 	1581482829	11.26	20.85
12/02/2020 04:47:10	120220	12022020	044710	196.46	13.298698	-57.029358	196.72	-0.130	0.100	1.860	196.51	-1.30	2.40	 	 	 	 	 	 	 	 	 	 	 	 	 	 	 	 	 	 	1581482830	11.74	21.74
12/02/2020 04:47:11	120220	12022020	044711	196.70	13.298647	-57.029380	196.93	-0.510	-0.010	2.520	196.72	-1.40	3.10	 	 	 	 	 	 	 	 	 	 	 	 	 	 	 	 	 	 	1581482831	12.01	22.24
12/02/2020 04:47:12	120220	12022020	044712	196.65	13.298598	-57.029402	196.83	-0.760	-0.030	3.350	196.59	-1.40	3.90	 	 	 	 	 	 	 	 	 	 	 	 	 	 	 	 	 	 	1581482832	11.76	21.78
12/02/2020 04:47:13	120220	12022020	044713	196.27	13.298598	-57.029402	196.43	-0.550	-0.150	3.800	196.18	-1.50	4.30	 	 	 	 	 	 	 	 	 	 	 	 	 	 	 	 	 	 	1581482833	11.58	21.45
12/02/2020 04:47:14	120220	12022020	044714	195.95	13.298497	-57.029440	196.15	-0.100	-0.100	3.520	195.91	-1.40	3.90	 	 	 	 	 	 	 	 	 	 	 	 	 	 	 	 	 	 	1581482834	11.70	21.67
12/02/2020 04:47:15	120220	12022020	044715	195.88	13.298448	-57.029455	196.11	0.230	0.180	2.720	195.90	-1.10	3.10	 	 	 	 	 	 	 	 	 	 	 	 	 	 	 	 	 	 	1581482835	11.44	21.19
12/02/2020 04:47:16	120220	12022020	044716	196.01	13.298400	-57.029467	196.22	0.440	0.350	1.700	196.05	-1.00	2.10	 	 	 	 	 	 	 	 	 	 	 	 	 	 	 	 	 	 	1581482836	10.92	20.22
12/02/2020 04:47:17	120220	12022020	044717	196.21	13.298348	-57.029477	196.41	0.700	0.070	0.880	196.25	-1.30	1.40	 	 	 	 	 	 	 	 	 	 	 	 	 	 	 	 	 	 	1581482837	10.79	19.98
12/02/2020 04:47:18	120220	12022020	044718	196.41	13.298297	-57.029490	196.62	0.860	-0.520	0.740	196.44	-1.90	1.30	 	 	 	 	 	 	 	 	 	 	 	 	 	 	 	 	 	 	1581482838	11.15	20.65
12/02/2020 04:47:19	120220	12022020	044719	196.52	13.298247	-57.029507	196.71	0.620	-0.990	1.110	196.52	-2.40	1.70	 	 	 	 	 	 	 	 	 	 	 	 	 	 	 	 	 	 	1581482839	11.44	21.19
12/02/2020 04:47:20	120220	12022020	044720	196.54	13.298198	-57.029525	196.72	0.080	-1.130	1.640	196.52	-2.50	2.20	 	 	 	 	 	 	 	 	 	 	 	 	 	 	 	 	 	 	1581482840	11.30	20.93
12/02/2020 04:47:21	120220	12022020	044721	196.44	13.298150	-57.029545	196.61	-0.340	-1.250	2.150	196.40	-2.60	2.70	 	 	 	 	 	 	 	 	 	 	 	 	 	 	 	 	 	 	1581482841	11.11	20.58
12/02/2020 04:47:22	120220	12022020	044722	196.28	13.298100	-57.029567	196.47	-0.390	-1.320	2.440	196.27	-2.70	3.00	 	 	 	 	 	 	 	 	 	 	 	 	 	 	 	 	 	 	1581482842	11.38	21.08
12/02/2020 04:47:23	120220	12022020	044723	196.28	13.298050	-57.029585	196.51	-0.230	-0.860	2.360	196.30	-2.10	2.80	 	 	 	 	 	 	 	 	 	 	 	 	 	 	 	 	 	 	1581482843	11.73	21.72
12/02/2020 04:47:24	120220	12022020	044724	196.44	13.298002	-57.029598	196.65	-0.140	0.120	1.870	196.47	-1.10	2.30	 	 	 	 	 	 	 	 	 	 	 	 	 	 	 	 	 	 	1581482844	11.37	21.06
12/02/2020 04:47:25	120220	12022020	044725	196.63	13.298002	-57.029598	196.83	-0.240	0.790	1.280	196.69	-0.50	1.70	 	 	 	 	 	 	 	 	 	 	 	 	 	 	 	 	 	 	1581482845	10.76	19.93
12/02/2020 04:47:26	120220	12022020	044726	196.83	13.297902	-57.029627	197.00	-0.400	0.630	1.140	196.83	-0.80	1.70	 	 	 	 	 	 	 	 	 	 	 	 	 	 	 	 	 	 	1581482846	10.90	20.19
12/02/2020 04:47:27	120220	12022020	044727	196.60	13.297847	-57.029647	196.70	-0.330	-0.270	1.620	196.50	-1.80	2.20	 	 	 	 	 	 	 	 	 	 	 	 	 	 	 	 	 	 	1581482847	11.51	21.32
12/02/2020 04:47:28	120220	12022020	044728	196.00	13.297847	-57.029647	196.08	0.010	-1.000	2.140	195.88	-2.40	2.70	 	 	 	 	 	 	 	 	 	 	 	 	 	 	 	 	 	 	1581482848	12.29	22.76
12/02/2020 04:47:29	120220	12022020	044729	195.49	13.297793	-57.029667	195.64	0.370	-0.790	2.240	195.44	-2.00	2.70	 	 	 	 	 	 	 	 	 	 	 	 	 	 	 	 	 	 	1581482849	12.33	22.84
12/02/2020 04:47:30	120220	12022020	044730	195.42	13.297743	-57.029683	195.64	0.430	0.030	1.960	195.45	-1.20	2.40	 	 	 	 	 	 	 	 	 	 	 	 	 	 	 	 	 	 	1581482850	11.38	21.08
12/02/2020 04:47:31	120220	12022020	044731	195.67	13.297648	-57.029710	195.91	0.130	0.480	1.820	195.74	-0.90	2.30	 	 	 	 	 	 	 	 	 	 	 	 	 	 	 	 	 	 	1581482851	10.59	19.61
12/02/2020 04:47:32	120220	12022020	044732	196.09	13.297648	-57.029710	196.36	-0.290	0.270	1.990	196.20	-1.20	2.60	 	 	 	 	 	 	 	 	 	 	 	 	 	 	 	 	 	 	1581482852	10.73	19.87
12/02/2020 04:47:33	120220	12022020	044733	196.65	13.297548	-57.029750	196.94	-0.530	-0.320	2.500	196.75	-1.80	3.10	 	 	 	 	 	 	 	 	 	 	 	 	 	 	 	 	 	 	1581482853	11.31	20.95
12/02/2020 04:47:34	120220	12022020	044734	196.98	13.297498	-57.029773	197.19	-0.410	-0.910	3.100	196.98	-2.30	3.70	 	 	 	 	 	 	 	 	 	 	 	 	 	 	 	 	 	 	1581482854	11.66	21.59
12/02/2020 04:47:35	120220	12022020	044735	196.67	13.297498	-57.029773	196.79	0.080	-1.250	3.480	196.55	-2.60	4.00	 	 	 	 	 	 	 	 	 	 	 	 	 	 	 	 	 	 	1581482855	11.73	21.72
12/02/2020 04:47:36	120220	12022020	044736	195.99	13.297398	-57.029810	196.13	0.600	-0.950	3.410	195.89	-2.20	3.80	 	 	 	 	 	 	 	 	 	 	 	 	 	 	 	 	 	 	1581482856	11.65	21.58
12/02/2020 04:47:37	120220	12022020	044737	195.74	13.297398	-57.029810	195.96	0.680	0.080	2.600	195.77	-1.10	3.00	 	 	 	 	 	 	 	 	 	 	 	 	 	 	 	 	 	 	1581482857	11.23	20.80
12/02/2020 04:47:38	120220	12022020	044738	196.01	13.297303	-57.029830	196.25	0.340	0.840	1.560	196.09	-0.50	2.00	 	 	 	 	 	 	 	 	 	 	 	 	 	 	 	 	 	 	1581482858	10.43	19.32
12/02/2020 04:47:39	120220	12022020	044739	196.36	13.297253	-57.029843	196.56	0.030	0.490	1.020	196.40	-1.00	1.50	 	 	 	 	 	 	 	 	 	 	 	 	 	 	 	 	 	 	1581482859	10.41	19.28
12/02/2020 04:47:40	120220	12022020	044740	196.44	13.297198	-57.029860	196.61	0.060	-0.680	1.200	196.41	-2.20	1.80	 	 	 	 	 	 	 	 	 	 	 	 	 	 	 	 	 	 	1581482860	11.39	21.09
12/02/2020 04:47:41	120220	12022020	044741	196.20	13.297145	-57.029882	196.35	0.170	-1.670	2.030	196.12	-3.10	2.70	 	 	 	 	 	 	 	 	 	 	 	 	 	 	 	 	 	 	1581482861	12.31	22.80
12/02/2020 04:47:42	120220	12022020	044742	195.83	13.297145	-57.029882	195.97	-0.010	-1.720	2.880	195.74	-3.00	3.50	 	 	 	 	 	 	 	 	 	 	 	 	 	 	 	 	 	 	1581482862	12.36	22.89
12/02/2020 04:47:43	120220	12022020	044743	195.43	13.297048	-57.029925	195.56	-0.390	-0.950	3.300	195.35	-2.20	3.80	 	 	 	 	 	 	 	 	 	 	 	 	 	 	 	 	 	 	1581482863	11.61	21.50
12/02/2020 04:47:44	120220	12022020	044744	195.12	13.297002	-57.029943	195.27	-0.580	-0.050	3.170	195.09	-1.30	3.60	 	 	 	 	 	 	 	 	 	 	 	 	 	 	 	 	 	 	1581482864	10.91	20.21
12/02/2020 04:47:45	120220	12022020	044745	195.06	13.296952	-57.029958	195.25	-0.450	0.510	2.720	195.08	-0.80	3.20	 	 	 	 	 	 	 	 	 	 	 	 	 	 	 	 	 	 	1581482865	10.79	19.98
12/02/2020 04:47:46	120220	12022020	044746	195.18	13.296900	-57.029972	195.36	-0.230	0.580	2.370	195.20	-0.80	2.90	 	 	 	 	 	 	 	 	 	 	 	 	 	 	 	 	 	 	1581482866	11.13	20.61
12/02/2020 04:47:47	120220	12022020	044747	195.26	13.296847	-57.029988	195.44	-0.100	0.190	2.280	195.28	-1.20	2.80	 	 	 	 	 	 	 	 	 	 	 	 	 	 	 	 	 	 	1581482867	11.52	21.34
12/02/2020 04:47:48	120220	12022020	044748	195.35	13.296795	-57.030007	195.53	-0.040	-0.180	2.420	195.38	-1.60	3.00	 	 	 	 	 	 	 	 	 	 	 	 	 	 	 	 	 	 	1581482868	11.89	22.02
12/02/2020 04:47:49	120220	12022020	044749	195.45	13.296795	-57.030007	195.61	0.070	-0.070	2.490	195.47	-1.40	3.00	 	 	 	 	 	 	 	 	 	 	 	 	 	 	 	 	 	 	1581482869	11.77	21.80
12/02/2020 04:47:50	120220	12022020	044750	195.53	13.296698	-57.030035	195.70	0.210	0.090	2.220	195.55	-1.30	2.70	 	 	 	 	 	 	 	 	 	 	 	 	 	 	 	 	 	 	1581482870	11.07	20.50
12/02/2020 04:47:51	120220	12022020	044751	195.65	13.296647	-57.030048	195.82	0.310	-0.200	1.820	195.66	-1.60	2.30	 	 	 	 	 	 	 	 	 	 	 	 	 	 	 	 	 	 	1581482871	10.84	20.08
12/02/2020 04:47:52	120220	12022020	044752	195.67	13.296647	-57.030048	195.81	0.310	-0.830	1.750	195.65	-2.30	2.30	 	 	 	 	 	 	 	 	 	 	 	 	 	 	 	 	 	 	1581482872	11.21	20.76
12/02/2020 04:47:53	120220	12022020	044753	195.46	13.296595	-57.030063	195.57	0.260	-1.310	2.020	195.39	-2.70	2.60	 	 	 	 	 	 	 	 	 	 	 	 	 	 	 	 	 	 	1581482873	11.57	21.43
12/02/2020 04:47:54	120220	12022020	044754	195.01	13.296545	-57.030082	195.09	0.250	-1.330	2.420	194.89	-2.60	3.00	 	 	 	 	 	 	 	 	 	 	 	 	 	 	 	 	 	 	1581482874	11.58	21.45
12/02/2020 04:47:55	120220	12022020	044755	194.46	13.296445	-57.030117	194.57	0.250	-0.890	2.740	194.38	-2.20	3.30	 	 	 	 	 	 	 	 	 	 	 	 	 	 	 	 	 	 	1581482875	11.36	21.04
12/02/2020 04:47:56	120220	12022020	044756	194.29	13.296445	-57.030117	194.49	0.040	-0.120	2.740	194.33	-1.40	3.20	 	 	 	 	 	 	 	 	 	 	 	 	 	 	 	 	 	 	1581482876	11.14	20.63
12/02/2020 04:47:57	120220	12022020	044757	194.60	13.296397	-57.030132	194.81	-0.400	0.480	2.540	194.68	-0.80	3.00	 	 	 	 	 	 	 	 	 	 	 	 	 	 	 	 	 	 	1581482877	10.85	20.09
12/02/2020 04:47:58	120220	12022020	044758	194.87	13.296298	-57.030165	195.00	-0.710	0.390	2.500	194.87	-1.00	3.00	 	 	 	 	 	 	 	 	 	 	 	 	 	 	 	 	 	 	1581482878	10.85	20.09
12/02/2020 04:47:59	120220	12022020	044759	194.71	13.296298	-57.030165	194.82	-0.500	-0.250	2.690	194.67	-1.70	3.20	 	 	 	 	 	 	 	 	 	 	 	 	 	 	 	 	 	 	1581482879	11.48	21.26
12/02/2020 04:48:00	120220	12022020	044800	194.63	13.296245	-57.030185	194.83	0.030	-0.400	2.540	194.68	-1.70	3.00	 	 	 	 	 	 	 	 	 	 	 	 	 	 	 	 	 	 	1581482880	12.21	22.61
12/02/2020 04:48:01	120220	12022020	044801	195.16	13.296145	-57.030210	195.45	0.250	0.260	1.920	195.33	-1.00	2.30	1016.40	26.10	26.10	21.00	21.10	-1.0	73.0	73.0	419.0	25.7	256.00	10.30	66.00	13.00	16	7740.0	27.2	27.2	1581482881	11.78	21.82
12/02/2020 04:48:02	120220	12022020	044802	195.99	13.296097	-57.030222	196.25	-0.020	0.660	1.400	196.13	-0.70	1.90	 	 	 	 	 	 	 	 	 	 	 	 	 	 	 	 	 	 	1581482882	10.59	19.61
12/02/2020 04:48:03	120220	12022020	044803	196.37	13.296097	-57.030222	196.51	-0.230	-0.060	1.630	196.34	-1.60	2.20	 	 	 	 	 	 	 	 	 	 	 	 	 	 	 	 	 	 	1581482883	10.37	19.21
12/02/2020 04:48:04	120220	12022020	044804	196.01	13.295992	-57.030258	196.10	0.110	-1.430	2.190	195.89	-2.90	2.70	 	 	 	 	 	 	 	 	 	 	 	 	 	 	 	 	 	 	1581482884	11.42	21.15
12/02/2020 04:48:05	120220	12022020	044805	195.40	13.295992	-57.030258	195.50	0.640	-1.990	2.370	195.31	-3.30	2.90	 	 	 	 	 	 	 	 	 	 	 	 	 	 	 	 	 	 	1581482885	12.41	22.98
12/02/2020 04:48:06	120220	12022020	044806	195.08	13.295892	-57.030287	195.24	0.660	-1.330	2.300	195.06	-2.60	2.80	 	 	 	 	 	 	 	 	 	 	 	 	 	 	 	 	 	 	1581482886	11.93	22.09
12/02/2020 04:48:07	120220	12022020	044807	195.09	13.295845	-57.030302	195.26	0.090	-0.380	2.190	195.09	-1.70	2.70	 	 	 	 	 	 	 	 	 	 	 	 	 	 	 	 	 	 	1581482887	10.76	19.93
12/02/2020 04:48:08	120220	12022020	044808	195.05	13.295795	-57.030320	195.20	-0.510	-0.050	2.330	195.00	-1.40	2.90	 	 	 	 	 	 	 	 	 	 	 	 	 	 	 	 	 	 	1581482888	10.44	19.33
12/02/2020 04:48:09	120220	12022020	044809	194.71	13.295743	-57.030342	194.82	-0.620	-0.260	2.870	194.60	-1.60	3.50	 	 	 	 	 	 	 	 	 	 	 	 	 	 	 	 	 	 	1581482889	11.20	20.74
12/02/2020 04:48:10	120220	12022020	044810	194.17	13.295692	-57.030363	194.29	-0.330	-0.250	3.520	194.07	-1.60	4.10	 	 	 	 	 	 	 	 	 	 	 	 	 	 	 	 	 	 	1581482890	12.02	22.26
12/02/2020 04:48:11	120220	12022020	044811	193.86	13.295692	-57.030363	194.07	-0.130	0.280	3.800	193.86	-1.00	4.30	 	 	 	 	 	 	 	 	 	 	 	 	 	 	 	 	 	 	1581482891	11.98	22.19
12/02/2020 04:48:12	120220	12022020	044812	194.03	13.295595	-57.030398	194.31	-0.230	0.830	3.600	194.11	-0.50	4.00	 	 	 	 	 	 	 	 	 	 	 	 	 	 	 	 	 	 	1581482892	11.28	20.89
12/02/2020 04:48:13	120220	12022020	044813	194.55	13.295595	-57.030398	194.86	-0.360	0.920	2.990	194.67	-0.50	3.40	 	 	 	 	 	 	 	 	 	 	 	 	 	 	 	 	 	 	1581482893	10.91	20.21
12/02/2020 04:48:14	120220	12022020	044814	195.23	13.295547	-57.030413	195.52	-0.080	0.500	2.100	195.37	-1.00	2.50	 	 	 	 	 	 	 	 	 	 	 	 	 	 	 	 	 	 	1581482894	11.01	20.39
12/02/2020 04:48:15	120220	12022020	044815	195.79	13.295442	-57.030435	196.02	0.560	-0.440	1.470	195.87	-1.90	2.00	 	 	 	 	 	 	 	 	 	 	 	 	 	 	 	 	 	 	1581482895	11.29	20.91
12/02/2020 04:48:16	120220	12022020	044816	195.96	13.295387	-57.030448	196.12	1.040	-1.440	1.590	195.95	-2.90	2.20	 	 	 	 	 	 	 	 	 	 	 	 	 	 	 	 	 	 	1581482896	11.79	21.84
12/02/2020 04:48:17	120220	12022020	044817	195.78	13.295337	-57.030465	195.94	0.970	-1.810	2.210	195.73	-3.10	2.80	 	 	 	 	 	 	 	 	 	 	 	 	 	 	 	 	 	 	1581482897	11.91	22.06
12/02/2020 04:48:18	120220	12022020	044818	195.57	13.295337	-57.030465	195.76	0.340	-1.250	2.800	195.55	-2.50	3.40	 	 	 	 	 	 	 	 	 	 	 	 	 	 	 	 	 	 	1581482898	11.39	21.09
12/02/2020 04:48:19	120220	12022020	044819	195.46	13.295290	-57.030482	195.64	-0.480	-0.320	3.130	195.44	-1.60	3.60	 	 	 	 	 	 	 	 	 	 	 	 	 	 	 	 	 	 	1581482899	10.53	19.50
12/02/2020 04:48:20	120220	12022020	044820	195.23	13.295198	-57.030518	195.33	-0.950	-0.080	3.240	195.14	-1.50	3.70	 	 	 	 	 	 	 	 	 	 	 	 	 	 	 	 	 	 	1581482900	10.16	18.82
12/02/2020 04:48:21	120220	12022020	044821	194.59	13.295145	-57.030540	194.61	-0.690	-0.930	3.380	194.41	-2.40	3.90	 	 	 	 	 	 	 	 	 	 	 	 	 	 	 	 	 	 	1581482901	11.04	20.45
12/02/2020 04:48:22	120220	12022020	044822	193.76	13.295145	-57.030540	193.83	-0.080	-1.530	3.560	193.63	-2.80	4.10	 	 	 	 	 	 	 	 	 	 	 	 	 	 	 	 	 	 	1581482902	12.60	23.34
12/02/2020 04:48:23	120220	12022020	044823	193.41	13.295038	-57.030578	193.60	0.210	-0.610	3.400	193.44	-1.70	3.80	 	 	 	 	 	 	 	 	 	 	 	 	 	 	 	 	 	 	1581482903	12.79	23.69
12/02/2020 04:48:24	120220	12022020	044824	193.83	13.294995	-57.030590	194.11	-0.020	1.130	2.760	193.96	-0.00	3.20	 	 	 	 	 	 	 	 	 	 	 	 	 	 	 	 	 	 	1581482904	11.18	20.71
12/02/2020 04:48:25	120220	12022020	044825	194.55	13.294995	-57.030590	194.82	-0.280	1.970	2.100	194.67	0.60	2.50	 	 	 	 	 	 	 	 	 	 	 	 	 	 	 	 	 	 	1581482905	9.84	18.22
12/02/2020 04:48:26	120220	12022020	044826	195.12	13.294948	-57.030602	195.33	-0.110	1.230	1.790	195.20	-0.30	2.30	 	 	 	 	 	 	 	 	 	 	 	 	 	 	 	 	 	 	1581482906	10.29	19.06
12/02/2020 04:48:27	120220	12022020	044827	195.40	13.294840	-57.030630	195.58	0.320	-0.310	1.950	195.42	-1.90	2.50	 	 	 	 	 	 	 	 	 	 	 	 	 	 	 	 	 	 	1581482907	11.71	21.69
12/02/2020 04:48:28	120220	12022020	044828	195.32	13.294785	-57.030647	195.45	0.520	-1.610	2.480	195.26	-3.10	3.10	 	 	 	 	 	 	 	 	 	 	 	 	 	 	 	 	 	 	1581482908	12.45	23.06
12/02/2020 04:48:29	120220	12022020	044829	194.92	13.294785	-57.030647	195.02	0.290	-2.170	3.210	194.83	-3.50	3.80	 	 	 	 	 	 	 	 	 	 	 	 	 	 	 	 	 	 	1581482909	12.19	22.58
12/02/2020 04:48:30	120220	12022020	044830	194.52	13.294687	-57.030687	194.64	-0.130	-1.840	3.580	194.46	-3.10	4.10	 	 	 	 	 	 	 	 	 	 	 	 	 	 	 	 	 	 	1581482910	11.71	21.69
12/02/2020 04:48:31	120220	12022020	044831	194.28	13.294640	-57.030702	194.43	-0.390	-0.820	3.320	194.26	-2.00	3.80	 	 	 	 	 	 	 	 	 	 	 	 	 	 	 	 	 	 	1581482911	11.11	20.58
12/02/2020 04:48:32	120220	12022020	044832	194.31	13.294593	-57.030717	194.49	-0.440	0.340	2.720	194.35	-0.90	3.10	 	 	 	 	 	 	 	 	 	 	 	 	 	 	 	 	 	 	1581482912	10.54	19.52
12/02/2020 04:48:33	120220	12022020	044833	194.60	13.294547	-57.030728	194.80	-0.430	1.060	2.020	194.67	-0.30	2.40	 	 	 	 	 	 	 	 	 	 	 	 	 	 	 	 	 	 	1581482913	10.35	19.17
12/02/2020 04:48:34	120220	12022020	044834	194.85	13.294495	-57.030743	194.99	-0.310	0.840	1.620	194.87	-0.60	2.10	 	 	 	 	 	 	 	 	 	 	 	 	 	 	 	 	 	 	1581482914	10.56	19.56
12/02/2020 04:48:35	120220	12022020	044835	194.79	13.294442	-57.030760	194.90	0.090	-0.210	1.690	194.75	-1.70	2.20	 	 	 	 	 	 	 	 	 	 	 	 	 	 	 	 	 	 	1581482915	11.30	20.93
12/02/2020 04:48:36	120220	12022020	044836	194.56	13.294387	-57.030775	194.69	0.690	-1.110	1.870	194.53	-2.50	2.40	 	 	 	 	 	 	 	 	 	 	 	 	 	 	 	 	 	 	1581482916	12.18	22.56
12/02/2020 04:48:37	120220	12022020	044837	194.57	13.294337	-57.030788	194.78	1.050	-0.990	1.800	194.62	-2.30	2.30	 	 	 	 	 	 	 	 	 	 	 	 	 	 	 	 	 	 	1581482917	12.21	22.61
12/02/2020 04:48:38	120220	12022020	044838	194.93	13.294290	-57.030798	195.16	0.830	-0.190	1.610	195.00	-1.50	2.10	 	 	 	 	 	 	 	 	 	 	 	 	 	 	 	 	 	 	1581482918	11.18	20.71
12/02/2020 04:48:39	120220	12022020	044839	195.29	13.294290	-57.030798	195.52	0.200	0.320	1.710	195.34	-1.00	2.30	 	 	 	 	 	 	 	 	 	 	 	 	 	 	 	 	 	 	1581482919	10.32	19.11
12/02/2020 04:48:40	120220	12022020	044840	195.36	13.294192	-57.030828	195.52	-0.390	-0.020	2.220	195.32	-1.50	2.80	 	 	 	 	 	 	 	 	 	 	 	 	 	 	 	 	 	 	1581482920	10.44	19.33
12/02/2020 04:48:41	120220	12022020	044841	194.98	13.294192	-57.030828	195.08	-0.610	-0.990	3.000	194.86	-2.50	3.60	 	 	 	 	 	 	 	 	 	 	 	 	 	 	 	 	 	 	1581482921	11.38	21.08
12/02/2020 04:48:42	120220	12022020	044842	194.39	13.294085	-57.030872	194.52	-0.550	-1.630	3.540	194.30	-3.00	4.10	 	 	 	 	 	 	 	 	 	 	 	 	 	 	 	 	 	 	1581482922	12.36	22.89
12/02/2020 04:48:43	120220	12022020	044843	194.14	13.294037	-57.030888	194.33	-0.510	-1.070	3.410	194.14	-2.30	3.80	 	 	 	 	 	 	 	 	 	 	 	 	 	 	 	 	 	 	1581482923	12.38	22.93
12/02/2020 04:48:44	120220	12022020	044844	194.33	13.293990	-57.030903	194.55	-0.590	0.140	2.750	194.40	-1.10	3.20	 	 	 	 	 	 	 	 	 	 	 	 	 	 	 	 	 	 	1581482924	11.20	20.74
12/02/2020 04:48:45	120220	12022020	044845	194.67	13.293942	-57.030917	194.88	-0.540	0.810	1.940	194.74	-0.50	2.40	 	 	 	 	 	 	 	 	 	 	 	 	 	 	 	 	 	 	1581482925	10.30	19.08
12/02/2020 04:48:46	120220	12022020	044846	195.02	13.293890	-57.030930	195.22	-0.180	0.610	1.220	195.09	-0.80	1.60	 	 	 	 	 	 	 	 	 	 	 	 	 	 	 	 	 	 	1581482926	10.67	19.76
12/02/2020 04:48:47	120220	12022020	044847	195.34	13.293837	-57.030942	195.54	0.320	0.000	0.760	195.39	-1.40	1.20	 	 	 	 	 	 	 	 	 	 	 	 	 	 	 	 	 	 	1581482927	11.46	21.22
12/02/2020 04:48:48	120220	12022020	044848	195.55	13.293837	-57.030942	195.74	0.650	-0.450	0.630	195.57	-1.80	1.20	 	 	 	 	 	 	 	 	 	 	 	 	 	 	 	 	 	 	1581482928	11.74	21.74
12/02/2020 04:48:49	120220	12022020	044849	195.61	13.293785	-57.030955	195.78	0.680	-0.600	0.700	195.61	-2.00	1.20	 	 	 	 	 	 	 	 	 	 	 	 	 	 	 	 	 	 	1581482929	11.44	21.19
12/02/2020 04:48:50	120220	12022020	044850	195.54	13.293685	-57.030982	195.69	0.590	-0.720	0.870	195.51	-2.10	1.40	 	 	 	 	 	 	 	 	 	 	 	 	 	 	 	 	 	 	1581482930	11.06	20.48
12/02/2020 04:48:51	120220	12022020	044851	195.34	13.293633	-57.030995	195.49	0.580	-0.980	1.100	195.29	-2.40	1.60	 	 	 	 	 	 	 	 	 	 	 	 	 	 	 	 	 	 	1581482931	11.10	20.56
12/02/2020 04:48:52	120220	12022020	044852	195.24	13.293633	-57.030995	195.45	0.400	-1.030	1.420	195.26	-2.30	2.00	 	 	 	 	 	 	 	 	 	 	 	 	 	 	 	 	 	 	1581482932	11.56	21.41
12/02/2020 04:48:53	120220	12022020	044853	195.42	13.293533	-57.031030	195.70	-0.240	-0.520	2.100	195.48	-1.80	2.70	 	 	 	 	 	 	 	 	 	 	 	 	 	 	 	 	 	 	1581482933	11.66	21.59
12/02/2020 04:48:54	120220	12022020	044854	195.70	13.293533	-57.031030	195.93	-1.100	0.310	2.740	195.73	-1.00	3.30	 	 	 	 	 	 	 	 	 	 	 	 	 	 	 	 	 	 	1581482934	11.15	20.65
12/02/2020 04:48:55	120220	12022020	044855	195.73	13.293443	-57.031077	195.90	-1.490	0.700	2.990	195.70	-0.70	3.50	 	 	 	 	 	 	 	 	 	 	 	 	 	 	 	 	 	 	1581482935	10.80	20.00
12/02/2020 04:48:56	120220	12022020	044856	195.54	13.293392	-57.031095	195.65	-0.920	0.380	2.700	195.49	-1.00	3.10	 	 	 	 	 	 	 	 	 	 	 	 	 	 	 	 	 	 	1581482936	11.10	20.56
12/02/2020 04:48:57	120220	12022020	044857	195.27	13.293337	-57.031107	195.37	0.250	-0.270	2.010	195.20	-1.70	2.40	 	 	 	 	 	 	 	 	 	 	 	 	 	 	 	 	 	 	1581482937	11.72	21.71
12/02/2020 04:48:58	120220	12022020	044858	194.86	13.293282	-57.031117	194.94	1.150	-0.870	1.420	194.76	-2.30	1.90	 	 	 	 	 	 	 	 	 	 	 	 	 	 	 	 	 	 	1581482938	12.04	22.30
12/02/2020 04:48:59	120220	12022020	044859	194.39	13.293228	-57.031127	194.51	1.240	-0.990	1.380	194.32	-2.30	1.90	 	 	 	 	 	 	 	 	 	 	 	 	 	 	 	 	 	 	1581482939	12.07	22.35
12/02/2020 04:49:00	120220	12022020	044900	194.23	13.293228	-57.031127	194.44	0.610	-0.410	1.740	194.26	-1.60	2.30	 	 	 	 	 	 	 	 	 	 	 	 	 	 	 	 	 	 	1581482940	11.53	21.35
12/02/2020 04:49:01	120220	12022020	044901	194.56	13.293182	-57.031143	194.83	-0.220	0.450	2.060	194.66	-0.80	2.60	1016.30	26.00	26.10	20.90	21.00	-1.0	73.0	73.0	420.0	25.7	252.00	10.30	62.00	13.30	16	7481.0	27.2	27.2	1581482941	10.70	19.82
12/02/2020 04:49:02	120220	12022020	044902	195.22	13.293092	-57.031178	195.53	-0.690	0.870	2.100	195.36	-0.50	2.60	 	 	 	 	 	 	 	 	 	 	 	 	 	 	 	 	 	 	1581482942	10.22	18.93
12/02/2020 04:49:03	120220	12022020	044903	195.97	13.293043	-57.031197	196.26	-0.590	0.420	1.890	196.09	-1.10	2.40	 	 	 	 	 	 	 	 	 	 	 	 	 	 	 	 	 	 	1581482943	10.42	19.30
12/02/2020 04:49:04	120220	12022020	044904	196.44	13.292990	-57.031215	196.65	-0.030	-0.770	1.680	196.49	-2.30	2.20	 	 	 	 	 	 	 	 	 	 	 	 	 	 	 	 	 	 	1581482944	11.12	20.59
12/02/2020 04:49:05	120220	12022020	044905	196.54	13.292935	-57.031230	196.70	0.660	-1.860	1.570	196.53	-3.30	2.10	 	 	 	 	 	 	 	 	 	 	 	 	 	 	 	 	 	 	1581482945	11.98	22.19
12/02/2020 04:49:06	120220	12022020	044906	196.46	13.292883	-57.031243	196.64	1.000	-1.980	1.510	196.43	-3.30	2.00	 	 	 	 	 	 	 	 	 	 	 	 	 	 	 	 	 	 	1581482946	12.19	22.58
12/02/2020 04:49:07	120220	12022020	044907	196.28	13.292883	-57.031243	196.44	0.760	-1.230	1.540	196.23	-2.50	2.10	 	 	 	 	 	 	 	 	 	 	 	 	 	 	 	 	 	 	1581482947	11.52	21.34
12/02/2020 04:49:08	120220	12022020	044908	195.95	13.292785	-57.031267	196.09	0.060	-0.390	1.840	195.87	-1.60	2.40	 	 	 	 	 	 	 	 	 	 	 	 	 	 	 	 	 	 	1581482948	10.88	20.15
12/02/2020 04:49:09	120220	12022020	044909	195.52	13.292735	-57.031285	195.65	-0.790	0.170	2.330	195.43	-1.10	2.90	 	 	 	 	 	 	 	 	 	 	 	 	 	 	 	 	 	 	1581482949	11.00	20.37
12/02/2020 04:49:10	120220	12022020	044910	195.07	13.292683	-57.031307	195.19	-1.360	0.490	2.740	194.98	-0.80	3.30	 	 	 	 	 	 	 	 	 	 	 	 	 	 	 	 	 	 	1581482950	11.47	21.24
12/02/2020 04:49:11	120220	12022020	044911	194.72	13.292683	-57.031307	194.89	-1.400	0.740	2.870	194.70	-0.60	3.30	 	 	 	 	 	 	 	 	 	 	 	 	 	 	 	 	 	 	1581482951	11.82	21.89
12/02/2020 04:49:12	120220	12022020	044912	194.84	13.292633	-57.031328	195.11	-0.920	0.970	2.360	194.93	-0.40	2.80	 	 	 	 	 	 	 	 	 	 	 	 	 	 	 	 	 	 	1581482952	11.80	21.85
12/02/2020 04:49:13	120220	12022020	044913	195.45	13.292583	-57.031348	195.76	-0.160	0.980	1.440	195.61	-0.40	1.80	 	 	 	 	 	 	 	 	 	 	 	 	 	 	 	 	 	 	1581482953	11.39	21.09
12/02/2020 04:49:14	120220	12022020	044914	196.20	13.292533	-57.031362	196.45	0.670	0.590	0.420	196.32	-0.90	0.80	 	 	 	 	 	 	 	 	 	 	 	 	 	 	 	 	 	 	1581482954	11.09	20.54
12/02/2020 04:49:15	120220	12022020	044915	196.79	13.292483	-57.031373	197.04	1.350	-0.080	-0.290	196.90	-1.50	0.20	 	 	 	 	 	 	 	 	 	 	 	 	 	 	 	 	 	 	1581482955	11.09	20.54
12/02/2020 04:49:16	120220	12022020	044916	197.32	13.292432	-57.031382	197.58	1.460	-0.750	-0.220	197.40	-2.20	0.40	 	 	 	 	 	 	 	 	 	 	 	 	 	 	 	 	 	 	1581482956	11.16	20.67
12/02/2020 04:49:17	120220	12022020	044917	197.55	13.292383	-57.031393	197.75	1.020	-1.520	0.530	197.53	-3.00	1.20	 	 	 	 	 	 	 	 	 	 	 	 	 	 	 	 	 	 	1581482957	10.88	20.15
12/02/2020 04:49:18	120220	12022020	044918	197.26	13.292335	-57.031410	197.38	0.420	-2.280	1.780	197.13	-3.70	2.50	 	 	 	 	 	 	 	 	 	 	 	 	 	 	 	 	 	 	1581482958	10.97	20.32
12/02/2020 04:49:19	120220	12022020	044919	196.51	13.292237	-57.031457	196.60	-0.080	-2.590	3.150	196.32	-3.90	3.80	 	 	 	 	 	 	 	 	 	 	 	 	 	 	 	 	 	 	1581482959	11.48	21.26
12/02/2020 04:49:20	120220	12022020	044920	195.60	13.292237	-57.031457	195.73	-0.510	-2.060	4.120	195.43	-3.30	4.70	 	 	 	 	 	 	 	 	 	 	 	 	 	 	 	 	 	 	1581482960	11.75	21.76
12/02/2020 04:49:21	120220	12022020	044921	194.90	13.292188	-57.031480	195.08	-0.840	-0.860	4.310	194.81	-2.00	4.80	 	 	 	 	 	 	 	 	 	 	 	 	 	 	 	 	 	 	1581482961	11.60	21.48
12/02/2020 04:49:22	120220	12022020	044922	194.63	13.292140	-57.031503	194.85	-0.950	0.520	3.880	194.64	-0.60	4.30	 	 	 	 	 	 	 	 	 	 	 	 	 	 	 	 	 	 	1581482962	11.29	20.91
12/02/2020 04:49:23	120220	12022020	044923	194.88	13.292043	-57.031537	195.16	-0.770	1.640	2.920	194.98	0.40	3.30	 	 	 	 	 	 	 	 	 	 	 	 	 	 	 	 	 	 	1581482963	11.13	20.61
12/02/2020 04:49:24	120220	12022020	044924	195.50	13.292043	-57.031537	195.79	-0.400	2.080	1.840	195.65	0.70	2.20	 	 	 	 	 	 	 	 	 	 	 	 	 	 	 	 	 	 	1581482964	11.08	20.52
12/02/2020 04:49:25	120220	12022020	044925	196.14	13.291992	-57.031547	196.37	0.000	1.580	1.150	196.24	0.10	1.60	 	 	 	 	 	 	 	 	 	 	 	 	 	 	 	 	 	 	1581482965	11.29	20.91
12/02/2020 04:49:26	120220	12022020	044926	196.53	13.291938	-57.031558	196.72	0.390	0.390	1.000	196.58	-1.10	1.50	 	 	 	 	 	 	 	 	 	 	 	 	 	 	 	 	 	 	1581482966	11.70	21.67
12/02/2020 04:49:27	120220	12022020	044927	196.72	13.291832	-57.031587	196.93	0.690	-0.680	1.120	196.74	-2.10	1.70	 	 	 	 	 	 	 	 	 	 	 	 	 	 	 	 	 	 	1581482967	12.01	22.24
12/02/2020 04:49:28	120220	12022020	044928	196.89	13.291832	-57.031587	197.12	0.800	-1.040	1.350	196.92	-2.40	1.90	 	 	 	 	 	 	 	 	 	 	 	 	 	 	 	 	 	 	1581482968	11.64	21.56
12/02/2020 04:49:29	120220	12022020	044929	197.05	13.291738	-57.031615	197.25	0.600	-0.960	1.800	197.06	-2.30	2.40	 	 	 	 	 	 	 	 	 	 	 	 	 	 	 	 	 	 	1581482969	10.72	19.85
12/02/2020 04:49:30	120220	12022020	044930	196.96	13.291738	-57.031615	197.10	0.320	-1.040	2.310	196.89	-2.40	2.90	 	 	 	 	 	 	 	 	 	 	 	 	 	 	 	 	 	 	1581482970	10.14	18.78
12/02/2020 04:49:31	120220	12022020	044931	196.51	13.291693	-57.031635	196.62	0.210	-1.420	2.610	196.40	-2.80	3.10	 	 	 	 	 	 	 	 	 	 	 	 	 	 	 	 	 	 	1581482971	10.50	19.45
12/02/2020 04:49:32	120220	12022020	044932	196.01	13.291645	-57.031655	196.14	0.210	-1.560	2.620	195.93	-2.90	3.10	 	 	 	 	 	 	 	 	 	 	 	 	 	 	 	 	 	 	1581482972	11.22	20.78
12/02/2020 04:49:33	120220	12022020	044933	195.66	13.291595	-57.031672	195.80	0.080	-1.190	2.470	195.60	-2.50	2.90	 	 	 	 	 	 	 	 	 	 	 	 	 	 	 	 	 	 	1581482973	11.38	21.08
12/02/2020 04:49:34	120220	12022020	044934	195.44	13.291545	-57.031688	195.59	-0.230	-0.640	2.170	195.41	-1.90	2.60	 	 	 	 	 	 	 	 	 	 	 	 	 	 	 	 	 	 	1581482974	11.17	20.69
12/02/2020 04:49:35	120220	12022020	044935	195.33	13.291495	-57.031703	195.51	-0.580	-0.100	1.900	195.33	-1.40	2.40	 	 	 	 	 	 	 	 	 	 	 	 	 	 	 	 	 	 	1581482975	11.25	20.84
12/02/2020 04:49:36	120220	12022020	044936	195.46	13.291445	-57.031720	195.69	-0.740	0.570	1.590	195.53	-0.70	2.00	 	 	 	 	 	 	 	 	 	 	 	 	 	 	 	 	 	 	1581482976	11.44	21.19
12/02/2020 04:49:37	120220	12022020	044937	195.92	13.291395	-57.031737	196.20	-0.640	1.140	1.170	196.03	-0.20	1.60	 	 	 	 	 	 	 	 	 	 	 	 	 	 	 	 	 	 	1581482977	11.24	20.82
12/02/2020 04:49:38	120220	12022020	044938	196.46	13.291347	-57.031752	196.73	-0.310	1.020	0.940	196.56	-0.40	1.40	 	 	 	 	 	 	 	 	 	 	 	 	 	 	 	 	 	 	1581482978	11.07	20.50
12/02/2020 04:49:39	120220	12022020	044939	196.87	13.291295	-57.031767	197.09	0.180	0.320	1.040	196.93	-1.10	1.60	 	 	 	 	 	 	 	 	 	 	 	 	 	 	 	 	 	 	1581482979	11.45	21.21
12/02/2020 04:49:40	120220	12022020	044940	197.14	13.291242	-57.031783	197.36	0.600	-0.300	1.320	197.19	-1.70	1.90	 	 	 	 	 	 	 	 	 	 	 	 	 	 	 	 	 	 	1581482980	11.83	21.91
12/02/2020 04:49:41	120220	12022020	044941	197.34	13.291142	-57.031813	197.53	0.670	-0.490	1.670	197.34	-1.80	2.20	 	 	 	 	 	 	 	 	 	 	 	 	 	 	 	 	 	 	1581482981	11.55	21.39
12/02/2020 04:49:42	120220	12022020	044942	197.22	13.291095	-57.031830	197.36	0.450	-0.630	2.090	197.15	-2.00	2.70	 	 	 	 	 	 	 	 	 	 	 	 	 	 	 	 	 	 	1581482982	10.87	20.13
12/02/2020 04:49:43	120220	12022020	044943	196.84	13.291047	-57.031848	196.99	0.200	-0.960	2.530	196.76	-2.30	3.10	 	 	 	 	 	 	 	 	 	 	 	 	 	 	 	 	 	 	1581482983	10.76	19.93
12/02/2020 04:49:44	120220	12022020	044944	196.48	13.291047	-57.031848	196.63	0.050	-1.120	2.680	196.41	-2.40	3.20	 	 	 	 	 	 	 	 	 	 	 	 	 	 	 	 	 	 	1581482984	11.15	20.65
12/02/2020 04:49:45	120220	12022020	044945	196.22	13.290950	-57.031883	196.37	-0.060	-0.820	2.530	196.18	-2.10	3.00	 	 	 	 	 	 	 	 	 	 	 	 	 	 	 	 	 	 	1581482985	11.21	20.76
12/02/2020 04:49:46	120220	12022020	044946	196.16	13.290902	-57.031900	196.34	-0.200	-0.370	2.180	196.17	-1.70	2.60	 	 	 	 	 	 	 	 	 	 	 	 	 	 	 	 	 	 	1581482986	10.87	20.13
12/02/2020 04:49:47	120220	12022020	044947	196.13	13.290853	-57.031917	196.28	-0.270	-0.290	1.870	196.10	-1.70	2.30	 	 	 	 	 	 	 	 	 	 	 	 	 	 	 	 	 	 	1581482987	10.76	19.93
12/02/2020 04:49:48	120220	12022020	044948	195.93	13.290853	-57.031917	196.07	-0.130	-0.510	1.690	195.90	-1.90	2.20	 	 	 	 	 	 	 	 	 	 	 	 	 	 	 	 	 	 	1581482988	11.25	20.84
12/02/2020 04:49:49	120220	12022020	044949	195.95	13.290800	-57.031933	196.17	0.010	-0.290	1.440	196.01	-1.60	1.90	 	 	 	 	 	 	 	 	 	 	 	 	 	 	 	 	 	 	1581482989	11.79	21.84
12/02/2020 04:49:50	120220	12022020	044950	196.37	13.290748	-57.031947	196.61	-0.070	0.300	1.250	196.48	-1.00	1.70	 	 	 	 	 	 	 	 	 	 	 	 	 	 	 	 	 	 	1581482990	11.39	21.09
12/02/2020 04:49:51	120220	12022020	044951	196.80	13.290702	-57.031962	197.00	-0.210	0.390	1.330	196.84	-1.00	1.90	 	 	 	 	 	 	 	 	 	 	 	 	 	 	 	 	 	 	1581482991	10.75	19.91
12/02/2020 04:49:52	120220	12022020	044952	196.87	13.290652	-57.031978	197.03	-0.050	-0.230	1.750	196.85	-1.70	2.30	 	 	 	 	 	 	 	 	 	 	 	 	 	 	 	 	 	 	1581482992	11.09	20.54
12/02/2020 04:49:53	120220	12022020	044953	196.76	13.290600	-57.031997	196.93	0.300	-0.830	2.090	196.73	-2.20	2.60	 	 	 	 	 	 	 	 	 	 	 	 	 	 	 	 	 	 	1581482993	11.90	22.04
12/02/2020 04:49:54	120220	12022020	044954	196.63	13.290547	-57.032013	196.80	0.410	-0.900	2.200	196.60	-2.20	2.70	 	 	 	 	 	 	 	 	 	 	 	 	 	 	 	 	 	 	1581482994	12.00	22.22
12/02/2020 04:49:55	120220	12022020	044955	196.52	13.290495	-57.032030	196.71	0.140	-0.510	2.140	196.51	-1.80	2.60	 	 	 	 	 	 	 	 	 	 	 	 	 	 	 	 	 	 	1581482995	11.47	21.24
12/02/2020 04:49:56	120220	12022020	044956	196.53	13.290447	-57.032047	196.72	-0.260	0.040	1.930	196.55	-1.20	2.40	 	 	 	 	 	 	 	 	 	 	 	 	 	 	 	 	 	 	1581482996	10.96	20.30
12/02/2020 04:49:57	120220	12022020	044957	196.66	13.290400	-57.032062	196.86	-0.420	0.410	1.600	196.71	-0.90	2.10	 	 	 	 	 	 	 	 	 	 	 	 	 	 	 	 	 	 	1581482997	10.72	19.85
12/02/2020 04:49:58	120220	12022020	044958	196.96	13.290352	-57.032078	197.16	-0.300	0.330	1.290	197.02	-1.10	1.80	 	 	 	 	 	 	 	 	 	 	 	 	 	 	 	 	 	 	1581482998	10.82	20.04
12/02/2020 04:49:59	120220	12022020	044959	197.20	13.290303	-57.032093	197.38	-0.090	-0.200	1.330	197.22	-1.60	1.90	 	 	 	 	 	 	 	 	 	 	 	 	 	 	 	 	 	 	1581482999	11.14	20.63
12/02/2020 04:50:00	120220	12022020	045000	197.16	13.290252	-57.032110	197.29	0.080	-0.970	1.640	197.11	-2.40	2.20	 	 	 	 	 	 	 	 	 	 	 	 	 	 	 	 	 	 	1581483000	11.56	21.41
12/02/2020 04:50:01	120220	12022020	045001	196.81	13.290198	-57.032128	196.91	0.120	-1.400	2.170	196.72	-2.70	2.70	1016.50	26.20	26.20	21.40	21.40	-1.0	75.0	74.0	418.0	25.7	259.00	9.00	66.00	11.60	16	7732.0	27.2	27.2	1581483001	11.93	22.09
12/02/2020 04:50:02	120220	12022020	045002	196.38	13.290100	-57.032167	196.49	0.080	-0.970	2.480	196.30	-2.20	3.00	 	 	 	 	 	 	 	 	 	 	 	 	 	 	 	 	 	 	1581483002	11.83	21.91
12/02/2020 04:50:03	120220	12022020	045003	196.12	13.290052	-57.032182	196.30	0.020	0.050	2.250	196.12	-1.20	2.70	 	 	 	 	 	 	 	 	 	 	 	 	 	 	 	 	 	 	1581483003	11.13	20.61
12/02/2020 04:50:04	120220	12022020	045004	196.26	13.290005	-57.032193	196.47	-0.120	0.800	1.770	196.32	-0.50	2.20	 	 	 	 	 	 	 	 	 	 	 	 	 	 	 	 	 	 	1581483004	10.51	19.46
12/02/2020 04:50:05	120220	12022020	045005	196.62	13.289953	-57.032208	196.82	-0.230	0.700	1.360	196.67	-0.70	1.80	 	 	 	 	 	 	 	 	 	 	 	 	 	 	 	 	 	 	1581483005	10.60	19.63
12/02/2020 04:50:06	120220	12022020	045006	196.80	13.289953	-57.032208	196.97	-0.120	-0.120	1.260	196.81	-1.60	1.80	 	 	 	 	 	 	 	 	 	 	 	 	 	 	 	 	 	 	1581483006	11.29	20.91
12/02/2020 04:50:07	120220	12022020	045007	196.84	13.289902	-57.032227	197.02	0.200	-0.730	1.390	196.87	-2.10	1.90	 	 	 	 	 	 	 	 	 	 	 	 	 	 	 	 	 	 	1581483007	12.00	22.22
12/02/2020 04:50:08	120220	12022020	045008	197.05	13.289800	-57.032260	197.27	0.450	-0.680	1.210	197.11	-2.00	1.70	 	 	 	 	 	 	 	 	 	 	 	 	 	 	 	 	 	 	1581483008	11.81	21.87
12/02/2020 04:50:09	120220	12022020	045009	197.32	13.289800	-57.032260	197.50	0.420	-0.570	1.040	197.34	-2.00	1.60	 	 	 	 	 	 	 	 	 	 	 	 	 	 	 	 	 	 	1581483009	10.96	20.30
12/02/2020 04:50:10	120220	12022020	045010	197.18	13.289752	-57.032275	197.28	0.300	-1.000	1.470	197.08	-2.40	2.10	 	 	 	 	 	 	 	 	 	 	 	 	 	 	 	 	 	 	1581483010	10.80	20.00
12/02/2020 04:50:11	120220	12022020	045011	196.60	13.289648	-57.032312	196.70	0.180	-1.470	2.060	196.48	-2.80	2.60	 	 	 	 	 	 	 	 	 	 	 	 	 	 	 	 	 	 	1581483011	11.55	21.39
12/02/2020 04:50:12	120220	12022020	045012	196.11	13.289598	-57.032330	196.27	-0.150	-1.070	2.340	196.05	-2.30	2.90	 	 	 	 	 	 	 	 	 	 	 	 	 	 	 	 	 	 	1581483012	12.09	22.39
12/02/2020 04:50:13	120220	12022020	045013	195.98	13.289598	-57.032330	196.22	-0.680	0.050	2.350	196.00	-1.20	2.80	 	 	 	 	 	 	 	 	 	 	 	 	 	 	 	 	 	 	1581483013	11.42	21.15
12/02/2020 04:50:14	120220	12022020	045014	196.17	13.289507	-57.032367	196.42	-1.030	0.860	2.160	196.22	-0.50	2.60	 	 	 	 	 	 	 	 	 	 	 	 	 	 	 	 	 	 	1581483014	10.62	19.67
12/02/2020 04:50:15	120220	12022020	045015	196.35	13.289507	-57.032367	196.55	-0.920	0.640	2.050	196.35	-0.80	2.50	 	 	 	 	 	 	 	 	 	 	 	 	 	 	 	 	 	 	1581483015	10.78	19.96
12/02/2020 04:50:16	120220	12022020	045016	196.29	13.289455	-57.032387	196.49	-0.350	-0.150	2.100	196.29	-1.60	2.60	 	 	 	 	 	 	 	 	 	 	 	 	 	 	 	 	 	 	1581483016	11.80	21.85
12/02/2020 04:50:17	120220	12022020	045017	196.42	13.289400	-57.032407	196.69	0.220	-0.270	1.940	196.50	-1.60	2.40	 	 	 	 	 	 	 	 	 	 	 	 	 	 	 	 	 	 	1581483017	12.48	23.11
12/02/2020 04:50:18	120220	12022020	045018	196.99	13.289300	-57.032433	197.28	0.400	0.380	1.440	197.12	-0.90	1.90	 	 	 	 	 	 	 	 	 	 	 	 	 	 	 	 	 	 	1581483018	11.67	21.61
12/02/2020 04:50:19	120220	12022020	045019	197.64	13.289253	-57.032445	197.88	0.310	0.700	1.050	197.73	-0.70	1.50	 	 	 	 	 	 	 	 	 	 	 	 	 	 	 	 	 	 	1581483019	10.45	19.35
12/02/2020 04:50:20	120220	12022020	045020	197.87	13.289253	-57.032445	198.01	0.340	-0.030	1.220	197.84	-1.60	1.80	 	 	 	 	 	 	 	 	 	 	 	 	 	 	 	 	 	 	1581483020	10.38	19.22
12/02/2020 04:50:21	120220	12022020	045021	197.55	13.289203	-57.032462	197.64	0.580	-1.210	1.930	197.44	-2.70	2.50	 	 	 	 	 	 	 	 	 	 	 	 	 	 	 	 	 	 	1581483021	11.38	21.08
12/02/2020 04:50:22	120220	12022020	045022	196.91	13.289150	-57.032480	196.97	0.710	-1.800	2.670	196.76	-3.20	3.20	 	 	 	 	 	 	 	 	 	 	 	 	 	 	 	 	 	 	1581483022	12.06	22.34
12/02/2020 04:50:23	120220	12022020	045023	196.24	13.289052	-57.032518	196.34	0.490	-1.520	3.000	196.13	-2.80	3.50	 	 	 	 	 	 	 	 	 	 	 	 	 	 	 	 	 	 	1581483023	11.70	21.67
12/02/2020 04:50:24	120220	12022020	045024	195.85	13.289005	-57.032535	195.99	0.010	-0.800	2.950	195.82	-2.10	3.40	 	 	 	 	 	 	 	 	 	 	 	 	 	 	 	 	 	 	1581483024	11.03	20.43
12/02/2020 04:50:25	120220	12022020	045025	195.81	13.289005	-57.032535	196.00	-0.520	-0.100	2.840	195.84	-1.40	3.30	 	 	 	 	 	 	 	 	 	 	 	 	 	 	 	 	 	 	1581483025	10.73	19.87
12/02/2020 04:50:26	120220	12022020	045026	196.00	13.288957	-57.032553	196.20	-0.860	0.200	2.540	196.05	-1.20	3.00	 	 	 	 	 	 	 	 	 	 	 	 	 	 	 	 	 	 	1581483026	10.84	20.08
12/02/2020 04:50:27	120220	12022020	045027	196.16	13.288908	-57.032573	196.31	-0.730	-0.000	2.140	196.17	-1.40	2.60	 	 	 	 	 	 	 	 	 	 	 	 	 	 	 	 	 	 	1581483027	11.22	20.78
12/02/2020 04:50:28	120220	12022020	045028	196.17	13.288803	-57.032608	196.32	-0.140	-0.470	1.920	196.17	-1.90	2.40	 	 	 	 	 	 	 	 	 	 	 	 	 	 	 	 	 	 	1581483028	11.80	21.85
12/02/2020 04:50:29	120220	12022020	045029	196.29	13.288750	-57.032623	196.50	0.400	-0.500	1.720	196.35	-1.80	2.20	 	 	 	 	 	 	 	 	 	 	 	 	 	 	 	 	 	 	1581483029	12.20	22.59
12/02/2020 04:50:30	120220	12022020	045030	196.73	13.288750	-57.032623	196.96	0.360	0.070	1.480	196.83	-1.20	2.00	 	 	 	 	 	 	 	 	 	 	 	 	 	 	 	 	 	 	1581483030	11.83	21.91
12/02/2020 04:50:31	120220	12022020	045031	197.20	13.288700	-57.032635	197.42	-0.160	0.560	1.570	197.27	-0.80	2.10	 	 	 	 	 	 	 	 	 	 	 	 	 	 	 	 	 	 	1581483031	11.00	20.37
12/02/2020 04:50:32	120220	12022020	045032	197.45	13.288652	-57.032650	197.66	-0.560	0.450	1.830	197.50	-1.00	2.40	 	 	 	 	 	 	 	 	 	 	 	 	 	 	 	 	 	 	1581483032	10.80	20.00
12/02/2020 04:50:33	120220	12022020	045033	197.67	13.288602	-57.032668	197.87	-0.490	-0.070	1.950	197.71	-1.50	2.40	 	 	 	 	 	 	 	 	 	 	 	 	 	 	 	 	 	 	1581483033	11.30	20.93
12/02/2020 04:50:34	120220	12022020	045034	197.73	13.288498	-57.032705	197.88	-0.030	-0.710	1.880	197.70	-2.20	2.40	 	 	 	 	 	 	 	 	 	 	 	 	 	 	 	 	 	 	1581483034	11.68	21.63
12/02/2020 04:50:35	120220	12022020	045035	197.49	13.288498	-57.032705	197.58	0.490	-1.100	1.670	197.41	-2.50	2.10	 	 	 	 	 	 	 	 	 	 	 	 	 	 	 	 	 	 	1581483035	11.81	21.87
12/02/2020 04:50:36	120220	12022020	045036	197.13	13.288447	-57.032722	197.21	0.610	-0.940	1.490	197.06	-2.30	2.00	 	 	 	 	 	 	 	 	 	 	 	 	 	 	 	 	 	 	1581483036	11.66	21.59
12/02/2020 04:50:37	120220	12022020	045037	196.80	13.288397	-57.032735	196.89	0.240	-0.440	1.440	196.74	-1.70	1.90	 	 	 	 	 	 	 	 	 	 	 	 	 	 	 	 	 	 	1581483037	11.15	20.65
12/02/2020 04:50:38	120220	12022020	045038	196.59	13.288348	-57.032750	196.68	-0.250	-0.070	1.490	196.55	-1.40	2.00	 	 	 	 	 	 	 	 	 	 	 	 	 	 	 	 	 	 	1581483038	10.79	19.98
12/02/2020 04:50:39	120220	12022020	045039	196.44	13.288302	-57.032768	196.54	-0.420	-0.050	1.700	196.43	-1.40	2.20	 	 	 	 	 	 	 	 	 	 	 	 	 	 	 	 	 	 	1581483039	10.96	20.30
12/02/2020 04:50:40	120220	12022020	045040	196.44	13.288202	-57.032808	196.58	-0.170	-0.250	1.890	196.46	-1.60	2.40	 	 	 	 	 	 	 	 	 	 	 	 	 	 	 	 	 	 	1581483040	11.45	21.21
12/02/2020 04:50:41	120220	12022020	045041	196.60	13.288202	-57.032808	196.78	0.250	-0.350	1.860	196.65	-1.70	2.30	 	 	 	 	 	 	 	 	 	 	 	 	 	 	 	 	 	 	1581483041	11.72	21.71
12/02/2020 04:50:42	120220	12022020	045042	196.95	13.288150	-57.032827	197.15	0.440	-0.170	1.650	197.03	-1.50	2.10	 	 	 	 	 	 	 	 	 	 	 	 	 	 	 	 	 	 	1581483042	11.61	21.50
12/02/2020 04:50:43	120220	12022020	045043	197.37	13.288100	-57.032843	197.55	0.270	0.000	1.540	197.43	-1.40	2.00	 	 	 	 	 	 	 	 	 	 	 	 	 	 	 	 	 	 	1581483043	11.19	20.72
12/02/2020 04:50:44	120220	12022020	045044	197.62	13.288052	-57.032858	197.77	-0.060	-0.200	1.640	197.64	-1.60	2.10	 	 	 	 	 	 	 	 	 	 	 	 	 	 	 	 	 	 	1581483044	11.02	20.41
12/02/2020 04:50:45	120220	12022020	045045	197.61	13.288002	-57.032875	197.72	-0.220	-0.700	1.820	197.58	-2.10	2.30	 	 	 	 	 	 	 	 	 	 	 	 	 	 	 	 	 	 	1581483045	11.37	21.06
12/02/2020 04:50:46	120220	12022020	045046	197.43	13.287950	-57.032893	197.53	-0.120	-1.080	2.040	197.37	-2.50	2.50	 	 	 	 	 	 	 	 	 	 	 	 	 	 	 	 	 	 	1581483046	11.81	21.87
12/02/2020 04:50:47	120220	12022020	045047	197.09	13.287897	-57.032912	197.16	0.050	-1.100	2.260	197.00	-2.40	2.80	 	 	 	 	 	 	 	 	 	 	 	 	 	 	 	 	 	 	1581483047	11.89	22.02
12/02/2020 04:50:48	120220	12022020	045048	196.65	13.287845	-57.032930	196.74	0.050	-0.750	2.430	196.57	-2.00	2.90	 	 	 	 	 	 	 	 	 	 	 	 	 	 	 	 	 	 	1581483048	11.77	21.80
12/02/2020 04:50:49	120220	12022020	045049	196.34	13.287743	-57.032963	196.47	-0.230	-0.120	2.500	196.30	-1.40	3.00	 	 	 	 	 	 	 	 	 	 	 	 	 	 	 	 	 	 	1581483049	11.60	21.48
12/02/2020 04:50:50	120220	12022020	045050	196.29	13.287743	-57.032963	196.48	-0.560	0.490	2.460	196.33	-0.80	2.90	 	 	 	 	 	 	 	 	 	 	 	 	 	 	 	 	 	 	1581483050	11.32	20.96
12/02/2020 04:50:51	120220	12022020	045051	196.58	13.287695	-57.032980	196.82	-0.660	0.800	2.200	196.67	-0.60	2.60	 	 	 	 	 	 	 	 	 	 	 	 	 	 	 	 	 	 	1581483051	11.21	20.76
12/02/2020 04:50:52	120220	12022020	045052	197.02	13.287645	-57.032998	197.24	-0.370	0.670	1.730	197.11	-0.80	2.10	 	 	 	 	 	 	 	 	 	 	 	 	 	 	 	 	 	 	1581483052	11.28	20.89
12/02/2020 04:50:53	120220	12022020	045053	197.41	13.287595	-57.033015	197.63	0.220	0.210	1.190	197.50	-1.20	1.60	 	 	 	 	 	 	 	 	 	 	 	 	 	 	 	 	 	 	1581483053	11.46	21.22
12/02/2020 04:50:54	120220	12022020	045054	197.83	13.287543	-57.033030	198.03	0.690	-0.180	0.850	197.90	-1.60	1.30	 	 	 	 	 	 	 	 	 	 	 	 	 	 	 	 	 	 	1581483054	11.61	21.50
12/02/2020 04:50:55	120220	12022020	045055	198.07	13.287492	-57.033043	198.20	0.790	-0.630	0.820	198.07	-2.10	1.30	 	 	 	 	 	 	 	 	 	 	 	 	 	 	 	 	 	 	1581483055	11.34	21.00
12/02/2020 04:50:56	120220	12022020	045056	197.85	13.287442	-57.033058	197.91	0.640	-1.320	1.180	197.76	-2.80	1.70	 	 	 	 	 	 	 	 	 	 	 	 	 	 	 	 	 	 	1581483056	11.22	20.78
12/02/2020 04:50:57	120220	12022020	045057	197.33	13.287390	-57.033077	197.38	0.440	-1.720	1.760	197.22	-3.10	2.30	 	 	 	 	 	 	 	 	 	 	 	 	 	 	 	 	 	 	1581483057	11.67	21.61
12/02/2020 04:50:58	120220	12022020	045058	196.80	13.287338	-57.033097	196.88	0.250	-1.430	2.230	196.71	-2.70	2.70	 	 	 	 	 	 	 	 	 	 	 	 	 	 	 	 	 	 	1581483058	11.77	21.80
12/02/2020 04:50:59	120220	12022020	045059	196.33	13.287290	-57.033115	196.40	0.010	-0.770	2.420	196.23	-2.00	2.90	 	 	 	 	 	 	 	 	 	 	 	 	 	 	 	 	 	 	1581483059	11.42	21.15
12/02/2020 04:51:00	120220	12022020	045100	195.96	13.287240	-57.033133	196.08	-0.280	-0.160	2.470	195.92	-1.40	2.90	 	 	 	 	 	 	 	 	 	 	 	 	 	 	 	 	 	 	1581483060	11.27	20.87
12/02/2020 04:51:01	120220	12022020	045101	195.91	13.287190	-57.033152	196.07	-0.640	0.330	2.330	195.94	-1.00	2.80	1016.30	26.00	26.10	21.20	21.30	-1.0	74.0	74.0	416.0	25.7	258.00	10.40	69.00	12.90	16	7384.0	27.2	27.2	1581483061	11.54	21.37
12/02/2020 04:51:02	120220	12022020	045102	196.19	13.287138	-57.033170	196.40	-0.950	0.680	2.000	196.29	-0.60	2.40	 	 	 	 	 	 	 	 	 	 	 	 	 	 	 	 	 	 	1581483062	11.65	21.58
12/02/2020 04:51:03	120220	12022020	045103	196.76	13.287087	-57.033188	197.00	-1.020	0.690	1.600	196.88	-0.70	2.00	 	 	 	 	 	 	 	 	 	 	 	 	 	 	 	 	 	 	1581483063	11.59	21.46
12/02/2020 04:51:04	120220	12022020	045104	197.39	13.287037	-57.033207	197.64	-0.650	0.310	1.160	197.52	-1.10	1.60	 	 	 	 	 	 	 	 	 	 	 	 	 	 	 	 	 	 	1581483064	11.65	21.58
12/02/2020 04:51:05	120220	12022020	045105	197.96	13.286985	-57.033225	198.15	0.050	-0.190	0.760	198.05	-1.60	1.20	 	 	 	 	 	 	 	 	 	 	 	 	 	 	 	 	 	 	1581483065	11.81	21.87
12/02/2020 04:51:06	120220	12022020	045106	198.32	13.286932	-57.033242	198.46	0.680	-0.550	0.700	198.35	-1.90	1.20	 	 	 	 	 	 	 	 	 	 	 	 	 	 	 	 	 	 	1581483066	11.79	21.84
12/02/2020 04:51:07	120220	12022020	045107	198.33	13.286880	-57.033257	198.44	0.960	-0.690	1.010	198.30	-2.00	1.50	 	 	 	 	 	 	 	 	 	 	 	 	 	 	 	 	 	 	1581483067	11.52	21.34
12/02/2020 04:51:08	120220	12022020	045108	198.03	13.286830	-57.033272	198.10	0.910	-0.650	1.410	197.95	-2.00	1.90	 	 	 	 	 	 	 	 	 	 	 	 	 	 	 	 	 	 	1581483068	11.24	20.82
12/02/2020 04:51:09	120220	12022020	045109	197.54	13.286782	-57.033287	197.59	0.730	-0.590	1.740	197.43	-1.90	2.20	 	 	 	 	 	 	 	 	 	 	 	 	 	 	 	 	 	 	1581483069	11.12	20.59
12/02/2020 04:51:10	120220	12022020	045110	197.11	13.286730	-57.033303	197.20	0.410	-0.440	1.870	197.05	-1.80	2.30	 	 	 	 	 	 	 	 	 	 	 	 	 	 	 	 	 	 	1581483070	11.26	20.85
12/02/2020 04:51:11	120220	12022020	045111	196.94	13.286630	-57.033337	197.10	-0.160	-0.290	1.980	196.93	-1.60	2.50	 	 	 	 	 	 	 	 	 	 	 	 	 	 	 	 	 	 	1581483071	11.34	21.00
12/02/2020 04:51:12	120220	12022020	045112	196.86	13.286630	-57.033337	196.99	-0.800	-0.320	2.350	196.82	-1.70	2.90	 	 	 	 	 	 	 	 	 	 	 	 	 	 	 	 	 	 	1581483072	11.33	20.98
12/02/2020 04:51:13	120220	12022020	045113	196.44	13.286582	-57.033360	196.50	-0.990	-0.720	2.980	196.30	-2.10	3.50	 	 	 	 	 	 	 	 	 	 	 	 	 	 	 	 	 	 	1581483073	11.58	21.45
12/02/2020 04:51:14	120220	12022020	045114	195.72	13.286532	-57.033387	195.77	-0.470	-1.130	3.320	195.58	-2.50	3.80	 	 	 	 	 	 	 	 	 	 	 	 	 	 	 	 	 	 	1581483074	12.25	22.69
12/02/2020 04:51:15	120220	12022020	045115	195.27	13.286478	-57.033412	195.43	0.260	-0.780	2.880	195.28	-2.00	3.20	 	 	 	 	 	 	 	 	 	 	 	 	 	 	 	 	 	 	1581483075	12.55	23.24
12/02/2020 04:51:16	120220	12022020	045116	195.61	13.286427	-57.033430	195.87	0.440	0.360	1.840	195.77	-0.80	2.20	 	 	 	 	 	 	 	 	 	 	 	 	 	 	 	 	 	 	1581483076	11.77	21.80
12/02/2020 04:51:17	120220	12022020	045117	196.49	13.286378	-57.033440	196.77	0.010	1.230	0.980	196.68	-0.10	1.40	 	 	 	 	 	 	 	 	 	 	 	 	 	 	 	 	 	 	1581483077	10.61	19.65
12/02/2020 04:51:18	120220	12022020	045118	197.28	13.286332	-57.033450	197.49	-0.400	0.860	0.900	197.38	-0.60	1.40	 	 	 	 	 	 	 	 	 	 	 	 	 	 	 	 	 	 	1581483078	10.31	19.09
12/02/2020 04:51:19	120220	12022020	045119	197.57	13.286282	-57.033467	197.71	-0.240	-0.480	1.400	197.56	-2.00	2.00	 	 	 	 	 	 	 	 	 	 	 	 	 	 	 	 	 	 	1581483079	11.23	20.80
12/02/2020 04:51:20	120220	12022020	045120	197.48	13.286228	-57.033487	197.61	0.290	-1.600	1.900	197.45	-3.00	2.40	 	 	 	 	 	 	 	 	 	 	 	 	 	 	 	 	 	 	1581483080	12.31	22.80
12/02/2020 04:51:21	120220	12022020	045121	197.32	13.286173	-57.033505	197.43	0.610	-1.590	2.160	197.29	-2.90	2.70	 	 	 	 	 	 	 	 	 	 	 	 	 	 	 	 	 	 	1581483081	12.31	22.80
12/02/2020 04:51:22	120220	12022020	045122	197.23	13.286123	-57.033523	197.40	0.420	-0.680	2.130	197.24	-1.90	2.60	 	 	 	 	 	 	 	 	 	 	 	 	 	 	 	 	 	 	1581483082	11.32	20.96
12/02/2020 04:51:23	120220	12022020	045123	197.34	13.286078	-57.033538	197.51	-0.010	0.300	1.790	197.36	-1.00	2.20	 	 	 	 	 	 	 	 	 	 	 	 	 	 	 	 	 	 	1581483083	10.43	19.32
12/02/2020 04:51:24	120220	12022020	045124	197.26	13.286032	-57.033553	197.34	-0.130	0.400	1.650	197.18	-1.00	2.20	 	 	 	 	 	 	 	 	 	 	 	 	 	 	 	 	 	 	1581483084	10.30	19.08
12/02/2020 04:51:25	120220	12022020	045125	196.72	13.285982	-57.033568	196.74	0.170	-0.410	2.060	196.57	-1.90	2.60	 	 	 	 	 	 	 	 	 	 	 	 	 	 	 	 	 	 	1581483085	11.24	20.82
12/02/2020 04:51:26	120220	12022020	045126	196.10	13.285927	-57.033587	196.20	0.280	-0.920	2.700	196.02	-2.30	3.20	 	 	 	 	 	 	 	 	 	 	 	 	 	 	 	 	 	 	1581483086	12.51	23.17
12/02/2020 04:51:27	120220	12022020	045127	195.95	13.285873	-57.033607	196.16	-0.180	-0.460	3.090	195.99	-1.70	3.60	 	 	 	 	 	 	 	 	 	 	 	 	 	 	 	 	 	 	1581483087	12.43	23.02
12/02/2020 04:51:28	120220	12022020	045128	196.29	13.285825	-57.033628	196.55	-0.850	0.380	3.020	196.40	-0.90	3.50	 	 	 	 	 	 	 	 	 	 	 	 	 	 	 	 	 	 	1581483088	11.34	21.00
12/02/2020 04:51:29	120220	12022020	045129	196.83	13.285780	-57.033650	197.07	-0.940	0.680	2.570	196.93	-0.70	2.90	 	 	 	 	 	 	 	 	 	 	 	 	 	 	 	 	 	 	1581483089	10.65	19.72
12/02/2020 04:51:30	120220	12022020	045130	197.27	13.285733	-57.033672	197.48	-0.180	0.120	1.770	197.34	-1.40	2.10	 	 	 	 	 	 	 	 	 	 	 	 	 	 	 	 	 	 	1581483090	10.96	20.30
12/02/2020 04:51:31	120220	12022020	045131	197.57	13.285680	-57.033688	197.73	0.800	-0.760	1.100	197.61	-2.20	1.50	 	 	 	 	 	 	 	 	 	 	 	 	 	 	 	 	 	 	1581483091	11.78	21.82
12/02/2020 04:51:32	120220	12022020	045132	197.72	13.285625	-57.033702	197.87	1.120	-1.190	0.870	197.73	-2.50	1.40	 	 	 	 	 	 	 	 	 	 	 	 	 	 	 	 	 	 	1581483092	12.20	22.59
12/02/2020 04:51:33	120220	12022020	045133	197.81	13.285525	-57.033732	198.00	0.500	-0.860	1.210	197.84	-2.10	1.80	 	 	 	 	 	 	 	 	 	 	 	 	 	 	 	 	 	 	1581483093	11.75	21.76
12/02/2020 04:51:34	120220	12022020	045134	198.09	13.285525	-57.033732	198.31	-0.560	-0.040	1.690	198.17	-1.30	2.20	 	 	 	 	 	 	 	 	 	 	 	 	 	 	 	 	 	 	1581483094	10.89	20.17
12/02/2020 04:51:35	120220	12022020	045135	198.42	13.285437	-57.033773	198.60	-1.180	0.570	1.900	198.46	-0.80	2.40	 	 	 	 	 	 	 	 	 	 	 	 	 	 	 	 	 	 	1581483095	10.30	19.08
12/02/2020 04:51:36	120220	12022020	045136	198.45	13.285437	-57.033773	198.55	-0.760	0.180	1.760	198.40	-1.30	2.20	 	 	 	 	 	 	 	 	 	 	 	 	 	 	 	 	 	 	1581483096	10.44	19.33
12/02/2020 04:51:37	120220	12022020	045137	198.02	13.285387	-57.033793	198.04	0.520	-0.960	1.630	197.88	-2.50	2.10	 	 	 	 	 	 	 	 	 	 	 	 	 	 	 	 	 	 	1581483097	11.51	21.32
12/02/2020 04:51:38	120220	12022020	045138	197.37	13.285332	-57.033812	197.42	1.500	-1.560	1.610	197.26	-2.90	2.10	 	 	 	 	 	 	 	 	 	 	 	 	 	 	 	 	 	 	1581483098	12.61	23.35
12/02/2020 04:51:39	120220	12022020	045139	196.92	13.285277	-57.033827	197.03	1.220	-0.850	1.840	196.86	-2.10	2.40	 	 	 	 	 	 	 	 	 	 	 	 	 	 	 	 	 	 	1581483099	12.42	23.00
12/02/2020 04:51:40	120220	12022020	045140	196.71	13.285227	-57.033842	196.85	-0.070	0.450	2.230	196.69	-0.80	2.70	 	 	 	 	 	 	 	 	 	 	 	 	 	 	 	 	 	 	1581483100	10.99	20.35
12/02/2020 04:51:41	120220	12022020	045141	196.72	13.285183	-57.033860	196.91	-1.250	1.230	2.610	196.74	-0.10	3.10	 	 	 	 	 	 	 	 	 	 	 	 	 	 	 	 	 	 	1581483101	10.19	18.87
12/02/2020 04:51:42	120220	12022020	045142	196.84	13.285138	-57.033882	197.02	-1.390	0.820	2.900	196.85	-0.70	3.40	 	 	 	 	 	 	 	 	 	 	 	 	 	 	 	 	 	 	1581483102	10.61	19.65
12/02/2020 04:51:43	120220	12022020	045143	196.91	13.285090	-57.033907	197.12	-0.580	-0.320	2.750	196.94	-1.80	3.20	 	 	 	 	 	 	 	 	 	 	 	 	 	 	 	 	 	 	1581483103	11.78	21.82
12/02/2020 04:51:44	120220	12022020	045144	197.07	13.285037	-57.033930	197.29	0.310	-1.090	2.310	197.11	-2.50	2.70	 	 	 	 	 	 	 	 	 	 	 	 	 	 	 	 	 	 	1581483104	12.49	23.13
12/02/2020 04:51:45	120220	12022020	045145	197.28	13.284983	-57.033948	197.50	0.610	-1.100	1.880	197.33	-2.40	2.30	 	 	 	 	 	 	 	 	 	 	 	 	 	 	 	 	 	 	1581483105	12.04	22.30
12/02/2020 04:51:46	120220	12022020	045146	197.49	13.284933	-57.033965	197.69	0.420	-0.720	1.560	197.53	-2.00	2.00	 	 	 	 	 	 	 	 	 	 	 	 	 	 	 	 	 	 	1581483106	11.08	20.52
12/02/2020 04:51:47	120220	12022020	045147	197.63	13.284840	-57.033995	197.77	0.130	-0.410	1.530	197.62	-1.80	2.00	 	 	 	 	 	 	 	 	 	 	 	 	 	 	 	 	 	 	1581483107	10.61	19.65
12/02/2020 04:51:48	120220	12022020	045148	197.45	13.284840	-57.033995	197.55	0.080	-0.440	1.890	197.38	-1.80	2.40	 	 	 	 	 	 	 	 	 	 	 	 	 	 	 	 	 	 	1581483108	10.72	19.85
12/02/2020 04:51:49	120220	12022020	045149	197.13	13.284790	-57.034013	197.23	0.140	-0.410	2.280	197.07	-1.70	2.80	 	 	 	 	 	 	 	 	 	 	 	 	 	 	 	 	 	 	1581483109	11.29	20.91
12/02/2020 04:51:50	120220	12022020	045150	196.86	13.284740	-57.034032	196.97	0.150	-0.120	2.490	196.80	-1.40	3.00	 	 	 	 	 	 	 	 	 	 	 	 	 	 	 	 	 	 	1581483110	11.43	21.17
12/02/2020 04:51:51	120220	12022020	045151	196.62	13.284690	-57.034050	196.75	0.070	0.120	2.510	196.60	-1.20	3.00	 	 	 	 	 	 	 	 	 	 	 	 	 	 	 	 	 	 	1581483111	11.22	20.78
12/02/2020 04:51:52	120220	12022020	045152	196.55	13.284642	-57.034067	196.71	-0.030	0.200	2.520	196.54	-1.20	3.00	 	 	 	 	 	 	 	 	 	 	 	 	 	 	 	 	 	 	1581483112	11.26	20.85
12/02/2020 04:51:53	120220	12022020	045153	196.54	13.284592	-57.034085	196.69	-0.020	0.090	2.560	196.53	-1.30	3.00	 	 	 	 	 	 	 	 	 	 	 	 	 	 	 	 	 	 	1581483113	11.37	21.06
12/02/2020 04:51:54	120220	12022020	045154	196.53	13.284492	-57.034122	196.68	0.070	-0.130	2.550	196.54	-1.50	3.00	 	 	 	 	 	 	 	 	 	 	 	 	 	 	 	 	 	 	1581483114	11.47	21.24
12/02/2020 04:51:55	120220	12022020	045155	196.58	13.284492	-57.034122	196.74	0.100	-0.330	2.540	196.59	-1.70	3.00	 	 	 	 	 	 	 	 	 	 	 	 	 	 	 	 	 	 	1581483115	11.50	21.30
12/02/2020 04:51:56	120220	12022020	045156	196.57	13.284442	-57.034138	196.72	-0.010	-0.510	2.580	196.55	-1.90	3.10	 	 	 	 	 	 	 	 	 	 	 	 	 	 	 	 	 	 	1581483116	11.34	21.00
12/02/2020 04:51:57	120220	12022020	045157	196.38	13.284392	-57.034157	196.49	-0.100	-0.800	2.680	196.33	-2.20	3.20	 	 	 	 	 	 	 	 	 	 	 	 	 	 	 	 	 	 	1581483117	11.24	20.82
12/02/2020 04:51:58	120220	12022020	045158	196.11	13.284342	-57.034177	196.25	-0.150	-0.910	2.790	196.07	-2.20	3.30	 	 	 	 	 	 	 	 	 	 	 	 	 	 	 	 	 	 	1581483118	11.44	21.19
12/02/2020 04:51:59	120220	12022020	045159	195.89	13.284293	-57.034197	196.02	-0.170	-0.580	2.860	195.84	-1.90	3.30	 	 	 	 	 	 	 	 	 	 	 	 	 	 	 	 	 	 	1581483119	11.36	21.04
12/02/2020 04:52:00	120220	12022020	045200	195.68	13.284247	-57.034215	195.80	-0.080	-0.150	2.720	195.65	-1.50	3.20	 	 	 	 	 	 	 	 	 	 	 	 	 	 	 	 	 	 	1581483120	10.94	20.26
12/02/2020 04:52:01	120220	12022020	045201	195.50	13.284198	-57.034233	195.62	0.090	-0.050	2.560	195.48	-1.40	3.00	1016.30	26.00	26.10	20.90	21.00	-1.0	73.0	73.0	413.0	25.7	257.00	10.10	67.00	12.80	16	8570.0	27.2	27.2	1581483121	10.82	20.04
12/02/2020 04:52:02	120220	12022020	045202	195.48	13.284148	-57.034248	195.66	0.240	-0.290	2.590	195.50	-1.70	3.10	 	 	 	 	 	 	 	 	 	 	 	 	 	 	 	 	 	 	1581483122	11.20	20.74
12/02/2020 04:52:03	120220	12022020	045203	195.66	13.284097	-57.034265	195.87	0.290	-0.540	2.610	195.72	-1.90	3.10	 	 	 	 	 	 	 	 	 	 	 	 	 	 	 	 	 	 	1581483123	11.65	21.58
12/02/2020 04:52:04	120220	12022020	045204	196.01	13.284045	-57.034283	196.25	0.290	-0.390	2.390	196.10	-1.70	2.80	 	 	 	 	 	 	 	 	 	 	 	 	 	 	 	 	 	 	1581483124	11.71	21.69
12/02/2020 04:52:05	120220	12022020	045205	196.48	13.283995	-57.034298	196.73	0.220	0.040	2.180	196.58	-1.30	2.60	 	 	 	 	 	 	 	 	 	 	 	 	 	 	 	 	 	 	1581483125	11.28	20.89
12/02/2020 04:52:06	120220	12022020	045206	196.86	13.283947	-57.034312	197.04	0.080	0.250	2.050	196.89	-1.10	2.50	 	 	 	 	 	 	 	 	 	 	 	 	 	 	 	 	 	 	1581483126	10.86	20.11
12/02/2020 04:52:07	120220	12022020	045207	196.75	13.283897	-57.034325	196.83	-0.070	-0.230	2.330	196.65	-1.70	2.90	 	 	 	 	 	 	 	 	 	 	 	 	 	 	 	 	 	 	1581483127	10.94	20.26
12/02/2020 04:52:08	120220	12022020	045208	196.15	13.283845	-57.034342	196.20	-0.260	-0.960	3.080	196.01	-2.40	3.70	 	 	 	 	 	 	 	 	 	 	 	 	 	 	 	 	 	 	1581483128	11.68	21.63
12/02/2020 04:52:09	120220	12022020	045209	195.50	13.283792	-57.034362	195.60	-0.570	-1.080	3.570	195.39	-2.40	4.10	 	 	 	 	 	 	 	 	 	 	 	 	 	 	 	 	 	 	1581483129	12.21	22.61
12/02/2020 04:52:10	120220	12022020	045210	195.02	13.283742	-57.034385	195.15	-0.840	-0.470	3.470	194.95	-1.70	3.90	 	 	 	 	 	 	 	 	 	 	 	 	 	 	 	 	 	 	1581483130	11.76	21.78
12/02/2020 04:52:11	120220	12022020	045211	194.76	13.283695	-57.034407	194.90	-0.680	0.330	2.820	194.73	-0.90	3.20	 	 	 	 	 	 	 	 	 	 	 	 	 	 	 	 	 	 	1581483131	10.98	20.33
12/02/2020 04:52:12	120220	12022020	045212	194.71	13.283650	-57.034423	194.83	-0.000	0.710	1.720	194.71	-0.70	2.10	 	 	 	 	 	 	 	 	 	 	 	 	 	 	 	 	 	 	1581483132	10.59	19.61
12/02/2020 04:52:13	120220	12022020	045213	194.77	13.283602	-57.034437	194.89	0.720	0.410	0.950	194.79	-1.00	1.40	 	 	 	 	 	 	 	 	 	 	 	 	 	 	 	 	 	 	1581483133	10.81	20.02
12/02/2020 04:52:14	120220	12022020	045214	194.85	13.283548	-57.034447	194.97	1.030	-0.310	0.850	194.87	-1.80	1.40	 	 	 	 	 	 	 	 	 	 	 	 	 	 	 	 	 	 	1581483134	11.35	21.02
12/02/2020 04:52:15	120220	12022020	045215	194.89	13.283497	-57.034458	195.01	0.810	-0.960	1.180	194.89	-2.40	1.70	 	 	 	 	 	 	 	 	 	 	 	 	 	 	 	 	 	 	1581483135	11.60	21.48
12/02/2020 04:52:16	120220	12022020	045216	194.82	13.283445	-57.034472	194.91	0.310	-1.280	1.910	194.77	-2.70	2.50	 	 	 	 	 	 	 	 	 	 	 	 	 	 	 	 	 	 	1581483136	11.51	21.32
12/02/2020 04:52:17	120220	12022020	045217	194.53	13.283395	-57.034490	194.64	-0.140	-1.290	2.740	194.46	-2.60	3.30	 	 	 	 	 	 	 	 	 	 	 	 	 	 	 	 	 	 	1581483137	11.30	20.93
12/02/2020 04:52:18	120220	12022020	045218	194.18	13.283347	-57.034508	194.28	-0.400	-1.040	3.320	194.11	-2.30	3.80	 	 	 	 	 	 	 	 	 	 	 	 	 	 	 	 	 	 	1581483138	11.29	20.91
12/02/2020 04:52:19	120220	12022020	045219	193.90	13.283297	-57.034528	194.04	-0.510	-0.610	3.320	193.88	-1.90	3.80	 	 	 	 	 	 	 	 	 	 	 	 	 	 	 	 	 	 	1581483139	11.35	21.02
12/02/2020 04:52:20	120220	12022020	045220	193.92	13.283247	-57.034547	194.08	-0.610	-0.040	2.980	193.96	-1.30	3.40	 	 	 	 	 	 	 	 	 	 	 	 	 	 	 	 	 	 	1581483140	11.40	21.11
12/02/2020 04:52:21	120220	12022020	045221	194.22	13.283197	-57.034562	194.39	-0.690	0.540	2.470	194.30	-0.80	2.90	 	 	 	 	 	 	 	 	 	 	 	 	 	 	 	 	 	 	1581483141	11.27	20.87
12/02/2020 04:52:22	120220	12022020	045222	194.74	13.283147	-57.034577	194.92	-0.680	0.860	1.810	194.85	-0.50	2.20	 	 	 	 	 	 	 	 	 	 	 	 	 	 	 	 	 	 	1581483142	11.10	20.56
12/02/2020 04:52:23	120220	12022020	045223	195.28	13.283098	-57.034592	195.41	-0.470	0.720	1.300	195.35	-0.70	1.70	 	 	 	 	 	 	 	 	 	 	 	 	 	 	 	 	 	 	1581483143	11.07	20.50
12/02/2020 04:52:24	120220	12022020	045224	195.56	13.283047	-57.034605	195.65	0.020	0.170	1.060	195.59	-1.30	1.50	 	 	 	 	 	 	 	 	 	 	 	 	 	 	 	 	 	 	1581483144	11.21	20.76
12/02/2020 04:52:25	120220	12022020	045225	195.57	13.282943	-57.034630	195.65	0.640	-0.560	1.040	195.56	-2.00	1.50	 	 	 	 	 	 	 	 	 	 	 	 	 	 	 	 	 	 	1581483145	11.46	21.22
12/02/2020 04:52:26	120220	12022020	045226	195.34	13.282943	-57.034630	195.37	1.050	-1.240	1.270	195.24	-2.70	1.80	 	 	 	 	 	 	 	 	 	 	 	 	 	 	 	 	 	 	1581483146	11.64	21.56
12/02/2020 04:52:27	120220	12022020	045227	194.73	13.282837	-57.034657	194.74	1.000	-1.640	1.900	194.60	-3.00	2.50	 	 	 	 	 	 	 	 	 	 	 	 	 	 	 	 	 	 	1581483147	11.70	21.67
12/02/2020 04:52:28	120220	12022020	045228	194.19	13.282837	-57.034657	194.27	0.390	-1.190	2.570	194.12	-2.40	3.10	 	 	 	 	 	 	 	 	 	 	 	 	 	 	 	 	 	 	1581483148	11.68	21.63
12/02/2020 04:52:29	120220	12022020	045229	193.95	13.282788	-57.034672	194.07	-0.560	-0.060	2.980	193.93	-1.30	3.50	 	 	 	 	 	 	 	 	 	 	 	 	 	 	 	 	 	 	1581483149	11.06	20.48
12/02/2020 04:52:30	120220	12022020	045230	193.92	13.282743	-57.034692	194.08	-1.250	0.720	3.010	193.95	-0.60	3.50	 	 	 	 	 	 	 	 	 	 	 	 	 	 	 	 	 	 	1581483150	10.39	19.24
12/02/2020 04:52:31	120220	12022020	045231	194.17	13.282698	-57.034712	194.37	-1.230	0.730	2.630	194.26	-0.70	3.00	 	 	 	 	 	 	 	 	 	 	 	 	 	 	 	 	 	 	1581483151	10.77	19.95
12/02/2020 04:52:32	120220	12022020	045232	194.65	13.282648	-57.034732	194.84	-0.520	0.350	1.910	194.75	-1.10	2.30	 	 	 	 	 	 	 	 	 	 	 	 	 	 	 	 	 	 	1581483152	11.47	21.24
12/02/2020 04:52:33	120220	12022020	045233	195.20	13.282597	-57.034750	195.38	0.360	-0.040	1.050	195.31	-1.40	1.40	 	 	 	 	 	 	 	 	 	 	 	 	 	 	 	 	 	 	1581483153	11.70	21.67
12/02/2020 04:52:34	120220	12022020	045234	195.76	13.282545	-57.034762	195.90	0.860	-0.400	0.470	195.84	-1.80	0.90	 	 	 	 	 	 	 	 	 	 	 	 	 	 	 	 	 	 	1581483154	11.52	21.34
12/02/2020 04:52:35	120220	12022020	045235	196.09	13.282493	-57.034772	196.20	0.880	-0.790	0.410	196.12	-2.20	0.90	 	 	 	 	 	 	 	 	 	 	 	 	 	 	 	 	 	 	1581483155	11.32	20.96
12/02/2020 04:52:36	120220	12022020	045236	196.12	13.282442	-57.034785	196.22	0.610	-1.090	0.760	196.11	-2.50	1.30	 	 	 	 	 	 	 	 	 	 	 	 	 	 	 	 	 	 	1581483156	11.28	20.89
12/02/2020 04:52:37	120220	12022020	045237	196.00	13.282392	-57.034798	196.11	0.240	-1.020	1.380	195.96	-2.30	1.90	 	 	 	 	 	 	 	 	 	 	 	 	 	 	 	 	 	 	1581483157	11.29	20.91
12/02/2020 04:52:38	120220	12022020	045238	195.78	13.282342	-57.034815	195.87	-0.110	-0.700	1.890	195.71	-2.00	2.40	 	 	 	 	 	 	 	 	 	 	 	 	 	 	 	 	 	 	1581483158	11.06	20.48
12/02/2020 04:52:39	120220	12022020	045239	195.32	13.282293	-57.034832	195.35	-0.290	-0.720	2.290	195.18	-2.10	2.80	 	 	 	 	 	 	 	 	 	 	 	 	 	 	 	 	 	 	1581483159	10.90	20.19
12/02/2020 04:52:40	120220	12022020	045240	194.53	13.282243	-57.034848	194.55	-0.230	-1.140	2.700	194.35	-2.50	3.20	 	 	 	 	 	 	 	 	 	 	 	 	 	 	 	 	 	 	1581483160	11.49	21.28
12/02/2020 04:52:41	120220	12022020	045241	193.75	13.282135	-57.034885	193.81	-0.230	-0.970	3.040	193.63	-2.20	3.50	 	 	 	 	 	 	 	 	 	 	 	 	 	 	 	 	 	 	1581483161	12.33	22.84
12/02/2020 04:52:42	120220	12022020	045242	193.40	13.282135	-57.034885	193.55	-0.550	0.170	3.030	193.40	-1.00	3.50	 	 	 	 	 	 	 	 	 	 	 	 	 	 	 	 	 	 	1581483162	12.07	22.35
12/02/2020 04:52:43	120220	12022020	045243	193.66	13.282087	-57.034902	193.89	-0.970	1.510	2.550	193.78	0.30	2.90	 	 	 	 	 	 	 	 	 	 	 	 	 	 	 	 	 	 	1581483163	10.99	20.35
12/02/2020 04:52:44	120220	12022020	045244	194.39	13.282042	-57.034918	194.64	-1.060	1.980	1.960	194.56	0.60	2.30	 	 	 	 	 	 	 	 	 	 	 	 	 	 	 	 	 	 	1581483164	10.35	19.17
12/02/2020 04:52:45	120220	12022020	045245	195.21	13.281995	-57.034935	195.43	-0.400	1.280	1.260	195.37	-0.30	1.60	 	 	 	 	 	 	 	 	 	 	 	 	 	 	 	 	 	 	1581483165	10.74	19.89
12/02/2020 04:52:46	120220	12022020	045246	195.93	13.281943	-57.034950	196.13	0.680	0.000	0.580	196.06	-1.50	1.00	 	 	 	 	 	 	 	 	 	 	 	 	 	 	 	 	 	 	1581483166	11.58	21.45
12/02/2020 04:52:47	120220	12022020	045247	196.51	13.281837	-57.034973	196.67	1.400	-1.040	0.420	196.59	-2.50	0.90	 	 	 	 	 	 	 	 	 	 	 	 	 	 	 	 	 	 	1581483167	12.00	22.22
12/02/2020 04:52:48	120220	12022020	045248	196.70	13.281787	-57.034988	196.78	1.470	-1.630	0.900	196.66	-3.00	1.50	 	 	 	 	 	 	 	 	 	 	 	 	 	 	 	 	 	 	1581483168	11.51	21.32
12/02/2020 04:52:49	120220	12022020	045249	196.24	13.281787	-57.034988	196.23	1.130	-1.910	1.780	196.08	-3.30	2.40	 	 	 	 	 	 	 	 	 	 	 	 	 	 	 	 	 	 	1581483169	10.98	20.33
12/02/2020 04:52:50	120220	12022020	045250	195.45	13.281738	-57.035003	195.48	0.570	-1.710	2.710	195.31	-3.00	3.30	 	 	 	 	 	 	 	 	 	 	 	 	 	 	 	 	 	 	1581483170	10.98	20.33
12/02/2020 04:52:51	120220	12022020	045251	194.91	13.281642	-57.035038	195.02	-0.190	-0.980	3.200	194.84	-2.20	3.70	 	 	 	 	 	 	 	 	 	 	 	 	 	 	 	 	 	 	1581483171	11.05	20.46
12/02/2020 04:52:52	120220	12022020	045252	194.68	13.281642	-57.035038	194.82	-0.870	-0.230	3.130	194.66	-1.50	3.60	 	 	 	 	 	 	 	 	 	 	 	 	 	 	 	 	 	 	1581483172	10.86	20.11
12/02/2020 04:52:53	120220	12022020	045253	194.60	13.281595	-57.035058	194.76	-1.130	0.010	2.890	194.61	-1.30	3.30	 	 	 	 	 	 	 	 	 	 	 	 	 	 	 	 	 	 	1581483173	11.01	20.39
12/02/2020 04:52:54	120220	12022020	045254	194.69	13.281543	-57.035078	194.84	-0.920	0.090	2.430	194.73	-1.30	2.80	 	 	 	 	 	 	 	 	 	 	 	 	 	 	 	 	 	 	1581483174	11.70	21.67
12/02/2020 04:52:55	120220	12022020	045255	194.99	13.281492	-57.035097	195.15	-0.510	0.360	1.710	195.07	-1.00	2.10	 	 	 	 	 	 	 	 	 	 	 	 	 	 	 	 	 	 	1581483175	11.89	22.02
12/02/2020 04:52:56	120220	12022020	045256	195.46	13.281440	-57.035112	195.61	-0.130	0.560	0.960	195.56	-0.80	1.40	 	 	 	 	 	 	 	 	 	 	 	 	 	 	 	 	 	 	1581483176	11.48	21.26
12/02/2020 04:52:57	120220	12022020	045257	195.90	13.281390	-57.035125	196.05	0.180	0.420	0.550	195.98	-1.00	1.00	 	 	 	 	 	 	 	 	 	 	 	 	 	 	 	 	 	 	1581483177	11.25	20.84
12/02/2020 04:52:58	120220	12022020	045258	196.22	13.281338	-57.035137	196.34	0.450	0.030	0.530	196.26	-1.40	1.00	 	 	 	 	 	 	 	 	 	 	 	 	 	 	 	 	 	 	1581483178	11.36	21.04
12/02/2020 04:52:59	120220	12022020	045259	196.29	13.281287	-57.035150	196.37	0.580	-0.380	0.880	196.27	-1.80	1.40	 	 	 	 	 	 	 	 	 	 	 	 	 	 	 	 	 	 	1581483179	11.43	21.17
12/02/2020 04:53:00	120220	12022020	045300	196.04	13.281235	-57.035165	196.08	0.540	-0.680	1.510	195.96	-2.10	2.10	 	 	 	 	 	 	 	 	 	 	 	 	 	 	 	 	 	 	1581483180	11.35	21.02
12/02/2020 04:53:01	120220	12022020	045301	195.70	13.281185	-57.035180	195.79	0.310	-0.670	2.050	195.65	-2.00	2.60	1016.40	26.10	26.10	21.00	21.10	-1.0	73.0	73.0	409.0	25.7	256.00	9.80	65.00	12.50	16	7313.0	27.2	27.2	1581483181	11.27	20.87
12/02/2020 04:53:02	120220	12022020	045302	195.52	13.281137	-57.035197	195.65	-0.030	-0.390	2.360	195.50	-1.70	2.80	 	 	 	 	 	 	 	 	 	 	 	 	 	 	 	 	 	 	1581483182	11.04	20.45
12/02/2020 04:53:03	120220	12022020	045303	195.43	13.281090	-57.035213	195.56	-0.330	-0.200	2.380	195.43	-1.60	2.80	 	 	 	 	 	 	 	 	 	 	 	 	 	 	 	 	 	 	1581483183	10.78	19.96
12/02/2020 04:53:04	120220	12022020	045304	195.37	13.281042	-57.035230	195.49	-0.400	-0.330	2.430	195.35	-1.70	2.90	 	 	 	 	 	 	 	 	 	 	 	 	 	 	 	 	 	 	1581483184	10.91	20.21
12/02/2020 04:53:05	120220	12022020	045305	195.32	13.280993	-57.035250	195.45	-0.160	-0.570	2.330	195.32	-2.00	2.70	 	 	 	 	 	 	 	 	 	 	 	 	 	 	 	 	 	 	1581483185	11.33	20.98
12/02/2020 04:53:06	120220	12022020	045306	195.33	13.280943	-57.035270	195.43	0.310	-0.590	1.830	195.32	-2.00	2.20	 	 	 	 	 	 	 	 	 	 	 	 	 	 	 	 	 	 	1581483186	11.49	21.28
12/02/2020 04:53:07	120220	12022020	045307	195.23	13.280893	-57.035285	195.31	0.730	-0.540	1.450	195.20	-1.90	1.90	 	 	 	 	 	 	 	 	 	 	 	 	 	 	 	 	 	 	1581483187	11.23	20.80
12/02/2020 04:53:08	120220	12022020	045308	195.08	13.280842	-57.035297	195.17	0.770	-0.490	1.400	195.05	-1.90	1.90	 	 	 	 	 	 	 	 	 	 	 	 	 	 	 	 	 	 	1581483188	11.19	20.72
12/02/2020 04:53:09	120220	12022020	045309	194.91	13.280792	-57.035308	195.01	0.410	-0.520	1.580	194.87	-1.90	2.10	 	 	 	 	 	 	 	 	 	 	 	 	 	 	 	 	 	 	1581483189	11.27	20.87
12/02/2020 04:53:10	120220	12022020	045310	194.76	13.280740	-57.035322	194.90	-0.100	-0.540	1.890	194.76	-1.90	2.40	 	 	 	 	 	 	 	 	 	 	 	 	 	 	 	 	 	 	1581483190	11.43	21.17
12/02/2020 04:53:11	120220	12022020	045311	194.89	13.280688	-57.035338	195.09	-0.590	-0.320	2.190	194.96	-1.60	2.70	 	 	 	 	 	 	 	 	 	 	 	 	 	 	 	 	 	 	1581483191	11.60	21.48
12/02/2020 04:53:12	120220	12022020	045312	195.38	13.280638	-57.035357	195.62	-0.920	0.150	2.230	195.50	-1.20	2.70	 	 	 	 	 	 	 	 	 	 	 	 	 	 	 	 	 	 	1581483192	11.41	21.13
12/02/2020 04:53:13	120220	12022020	045313	196.03	13.280590	-57.035375	196.27	-0.910	0.450	1.800	196.15	-0.90	2.20	 	 	 	 	 	 	 	 	 	 	 	 	 	 	 	 	 	 	1581483193	11.05	20.46
12/02/2020 04:53:14	120220	12022020	045314	196.59	13.280542	-57.035393	196.78	-0.420	0.250	1.160	196.67	-1.20	1.50	 	 	 	 	 	 	 	 	 	 	 	 	 	 	 	 	 	 	1581483194	11.00	20.37
12/02/2020 04:53:15	120220	12022020	045315	196.88	13.280490	-57.035407	197.00	0.320	-0.320	0.710	196.90	-1.80	1.10	 	 	 	 	 	 	 	 	 	 	 	 	 	 	 	 	 	 	1581483195	11.42	21.15
12/02/2020 04:53:16	120220	12022020	045316	196.95	13.280437	-57.035420	197.06	0.820	-0.700	0.610	196.96	-2.10	1.10	 	 	 	 	 	 	 	 	 	 	 	 	 	 	 	 	 	 	1581483196	11.87	21.98
12/02/2020 04:53:17	120220	12022020	045317	197.06	13.280335	-57.035447	197.18	0.790	-0.440	0.790	197.08	-1.80	1.30	 	 	 	 	 	 	 	 	 	 	 	 	 	 	 	 	 	 	1581483197	11.68	21.63
12/02/2020 04:53:18	120220	12022020	045318	197.13	13.280335	-57.035447	197.21	0.380	0.040	1.100	197.11	-1.30	1.60	 	 	 	 	 	 	 	 	 	 	 	 	 	 	 	 	 	 	1581483198	10.88	20.15
12/02/2020 04:53:19	120220	12022020	045319	196.88	13.280288	-57.035460	196.90	0.010	-0.070	1.620	196.77	-1.50	2.20	 	 	 	 	 	 	 	 	 	 	 	 	 	 	 	 	 	 	1581483199	10.43	19.32
12/02/2020 04:53:20	120220	12022020	045320	196.22	13.280240	-57.035477	196.22	-0.110	-0.860	2.380	196.06	-2.40	2.90	 	 	 	 	 	 	 	 	 	 	 	 	 	 	 	 	 	 	1581483200	11.03	20.43
12/02/2020 04:53:21	120220	12022020	045321	195.56	13.280188	-57.035497	195.64	-0.120	-1.370	2.830	195.48	-2.70	3.30	 	 	 	 	 	 	 	 	 	 	 	 	 	 	 	 	 	 	1581483201	12.08	22.37
12/02/2020 04:53:22	120220	12022020	045322	195.37	13.280135	-57.035520	195.53	-0.210	-0.880	2.830	195.38	-2.10	3.20	 	 	 	 	 	 	 	 	 	 	 	 	 	 	 	 	 	 	1581483202	12.17	22.54
12/02/2020 04:53:23	120220	12022020	045323	195.56	13.280088	-57.035540	195.74	-0.310	0.050	2.370	195.62	-1.30	2.70	 	 	 	 	 	 	 	 	 	 	 	 	 	 	 	 	 	 	1581483203	11.12	20.59
12/02/2020 04:53:24	120220	12022020	045324	195.84	13.280042	-57.035557	196.02	-0.180	0.430	1.650	195.91	-1.00	2.00	 	 	 	 	 	 	 	 	 	 	 	 	 	 	 	 	 	 	1581483204	10.52	19.48
12/02/2020 04:53:25	120220	12022020	045325	196.28	13.279993	-57.035572	196.50	0.120	0.220	1.010	196.39	-1.20	1.40	 	 	 	 	 	 	 	 	 	 	 	 	 	 	 	 	 	 	1581483205	11.03	20.43
12/02/2020 04:53:26	120220	12022020	045326	196.90	13.279940	-57.035585	197.13	0.220	-0.060	0.670	197.02	-1.50	1.10	 	 	 	 	 	 	 	 	 	 	 	 	 	 	 	 	 	 	1581483206	11.62	21.52
12/02/2020 04:53:27	120220	12022020	045327	197.39	13.279888	-57.035600	197.55	0.040	-0.230	0.850	197.45	-1.60	1.40	 	 	 	 	 	 	 	 	 	 	 	 	 	 	 	 	 	 	1581483207	11.53	21.35
12/02/2020 04:53:28	120220	12022020	045328	197.54	13.279838	-57.035617	197.66	-0.110	-0.410	1.360	197.53	-1.80	1.90	 	 	 	 	 	 	 	 	 	 	 	 	 	 	 	 	 	 	1581483208	11.21	20.76
12/02/2020 04:53:29	120220	12022020	045329	197.40	13.279790	-57.035635	197.49	0.080	-0.600	1.750	197.35	-2.00	2.20	 	 	 	 	 	 	 	 	 	 	 	 	 	 	 	 	 	 	1581483209	11.20	20.74
12/02/2020 04:53:30	120220	12022020	045330	197.13	13.279740	-57.035653	197.23	0.460	-0.750	1.870	197.07	-2.20	2.30	 	 	 	 	 	 	 	 	 	 	 	 	 	 	 	 	 	 	1581483210	11.30	20.93
12/02/2020 04:53:31	120220	12022020	045331	196.87	13.279690	-57.035667	196.97	0.580	-0.720	1.800	196.83	-2.10	2.30	 	 	 	 	 	 	 	 	 	 	 	 	 	 	 	 	 	 	1581483211	11.43	21.17
12/02/2020 04:53:32	120220	12022020	045332	196.67	13.279638	-57.035680	196.77	0.200	-0.580	1.890	196.62	-2.00	2.40	 	 	 	 	 	 	 	 	 	 	 	 	 	 	 	 	 	 	1581483212	11.39	21.09
12/02/2020 04:53:33	120220	12022020	045333	196.40	13.279588	-57.035697	196.49	-0.400	-0.480	2.320	196.33	-1.90	2.90	 	 	 	 	 	 	 	 	 	 	 	 	 	 	 	 	 	 	1581483213	11.27	20.87
12/02/2020 04:53:34	120220	12022020	045334	196.00	13.279538	-57.035718	196.10	-0.730	-0.370	2.840	195.92	-1.70	3.30	 	 	 	 	 	 	 	 	 	 	 	 	 	 	 	 	 	 	1581483214	11.42	21.15
12/02/2020 04:53:35	120220	12022020	045335	195.66	13.279490	-57.035740	195.81	-0.610	-0.100	2.900	195.62	-1.40	3.30	 	 	 	 	 	 	 	 	 	 	 	 	 	 	 	 	 	 	1581483215	11.58	21.45
12/02/2020 04:53:36	120220	12022020	045336	195.68	13.279440	-57.035762	195.92	-0.290	0.360	2.420	195.76	-1.00	2.80	 	 	 	 	 	 	 	 	 	 	 	 	 	 	 	 	 	 	1581483216	11.45	21.21
12/02/2020 04:53:37	120220	12022020	045337	196.27	13.279392	-57.035777	196.54	-0.090	0.720	1.590	196.41	-0.70	1.90	 	 	 	 	 	 	 	 	 	 	 	 	 	 	 	 	 	 	1581483217	11.06	20.48
12/02/2020 04:53:38	120220	12022020	045338	196.99	13.279343	-57.035790	197.22	0.020	0.470	0.930	197.10	-1.00	1.40	 	 	 	 	 	 	 	 	 	 	 	 	 	 	 	 	 	 	1581483218	10.80	20.00
12/02/2020 04:53:39	120220	12022020	045339	197.37	13.279293	-57.035805	197.50	0.350	-0.510	0.900	197.38	-2.10	1.40	 	 	 	 	 	 	 	 	 	 	 	 	 	 	 	 	 	 	1581483219	11.12	20.59
12/02/2020 04:53:40	120220	12022020	045340	197.27	13.279240	-57.035820	197.38	0.810	-1.560	1.310	197.22	-3.00	1.90	 	 	 	 	 	 	 	 	 	 	 	 	 	 	 	 	 	 	1581483220	11.85	21.95
12/02/2020 04:53:41	120220	12022020	045341	196.95	13.279187	-57.035837	197.02	0.830	-1.730	2.030	196.85	-3.10	2.60	 	 	 	 	 	 	 	 	 	 	 	 	 	 	 	 	 	 	1581483221	12.18	22.56
12/02/2020 04:53:42	120220	12022020	045342	196.43	13.279137	-57.035855	196.48	0.280	-1.030	2.710	196.30	-2.30	3.20	 	 	 	 	 	 	 	 	 	 	 	 	 	 	 	 	 	 	1581483222	11.50	21.30
12/02/2020 04:53:43	120220	12022020	045343	195.82	13.279088	-57.035873	195.89	-0.390	-0.170	3.070	195.71	-1.50	3.50	 	 	 	 	 	 	 	 	 	 	 	 	 	 	 	 	 	 	1581483223	10.79	19.98
12/02/2020 04:53:44	120220	12022020	045344	195.46	13.279042	-57.035893	195.60	-0.720	0.440	2.970	195.46	-0.90	3.40	 	 	 	 	 	 	 	 	 	 	 	 	 	 	 	 	 	 	1581483224	10.82	20.04
12/02/2020 04:53:45	120220	12022020	045345	195.66	13.278993	-57.035912	195.88	-0.630	0.760	2.380	195.76	-0.60	2.80	 	 	 	 	 	 	 	 	 	 	 	 	 	 	 	 	 	 	1581483225	11.19	20.72
12/02/2020 04:53:46	120220	12022020	045346	196.30	13.278943	-57.035927	196.57	-0.340	0.700	1.680	196.46	-0.80	2.10	 	 	 	 	 	 	 	 	 	 	 	 	 	 	 	 	 	 	1581483226	11.32	20.96
12/02/2020 04:53:47	120220	12022020	045347	197.07	13.278892	-57.035942	197.31	-0.040	0.170	1.240	197.21	-1.30	1.70	 	 	 	 	 	 	 	 	 	 	 	 	 	 	 	 	 	 	1581483227	11.43	21.17
12/02/2020 04:53:48	120220	12022020	045348	197.65	13.278840	-57.035958	197.86	0.160	-0.550	1.300	197.73	-2.00	1.80	 	 	 	 	 	 	 	 	 	 	 	 	 	 	 	 	 	 	1581483228	11.61	21.50
12/02/2020 04:53:49	120220	12022020	045349	197.92	13.278790	-57.035977	198.07	0.230	-0.970	1.660	197.93	-2.40	2.20	 	 	 	 	 	 	 	 	 	 	 	 	 	 	 	 	 	 	1581483229	11.66	21.59
12/02/2020 04:53:50	120220	12022020	045350	197.76	13.278740	-57.035995	197.83	0.230	-1.060	2.110	197.69	-2.50	2.60	 	 	 	 	 	 	 	 	 	 	 	 	 	 	 	 	 	 	1581483230	11.28	20.89
12/02/2020 04:53:51	120220	12022020	045351	197.27	13.278692	-57.036013	197.31	0.250	-1.080	2.520	197.15	-2.50	3.00	 	 	 	 	 	 	 	 	 	 	 	 	 	 	 	 	 	 	1581483231	11.00	20.37
12/02/2020 04:53:52	120220	12022020	045352	196.61	13.278643	-57.036032	196.63	0.290	-1.010	2.720	196.48	-2.40	3.20	 	 	 	 	 	 	 	 	 	 	 	 	 	 	 	 	 	 	1581483232	11.16	20.67
12/02/2020 04:53:53	120220	12022020	045353	195.99	13.278593	-57.036048	196.04	0.200	-0.570	2.700	195.89	-1.90	3.20	 	 	 	 	 	 	 	 	 	 	 	 	 	 	 	 	 	 	1581483233	11.43	21.17
12/02/2020 04:53:54	120220	12022020	045354	195.72	13.278543	-57.036065	195.85	-0.130	0.190	2.510	195.72	-1.10	2.90	 	 	 	 	 	 	 	 	 	 	 	 	 	 	 	 	 	 	1581483234	11.28	20.89
12/02/2020 04:53:55	120220	12022020	045355	195.80	13.278495	-57.036080	195.95	-0.560	0.640	2.330	195.83	-0.80	2.80	 	 	 	 	 	 	 	 	 	 	 	 	 	 	 	 	 	 	1581483235	10.90	20.19
12/02/2020 04:53:56	120220	12022020	045356	195.91	13.278445	-57.036097	196.07	-0.680	0.410	2.350	195.94	-1.00	2.80	 	 	 	 	 	 	 	 	 	 	 	 	 	 	 	 	 	 	1581483236	11.09	20.54
12/02/2020 04:53:57	120220	12022020	045357	196.05	13.278395	-57.036117	196.22	-0.340	-0.040	2.400	196.08	-1.50	2.80	 	 	 	 	 	 	 	 	 	 	 	 	 	 	 	 	 	 	1581483237	11.75	21.76
12/02/2020 04:53:58	120220	12022020	045358	196.23	13.278343	-57.036137	196.41	0.220	-0.180	2.170	196.28	-1.60	2.60	 	 	 	 	 	 	 	 	 	 	 	 	 	 	 	 	 	 	1581483238	11.98	22.19
12/02/2020 04:53:59	120220	12022020	045359	196.54	13.278292	-57.036153	196.73	0.570	-0.020	1.700	196.61	-1.40	2.10	 	 	 	 	 	 	 	 	 	 	 	 	 	 	 	 	 	 	1581483239	11.51	21.32
12/02/2020 04:54:00	120220	12022020	045400	196.84	13.278242	-57.036165	197.01	0.420	-0.070	1.530	196.88	-1.50	2.00	 	 	 	 	 	 	 	 	 	 	 	 	 	 	 	 	 	 	1581483240	10.98	20.33
12/02/2020 04:54:01	120220	12022020	045401	196.93	13.278193	-57.036178	197.05	-0.050	-0.550	1.950	196.90	-2.00	2.50	1016.40	26.10	26.10	21.20	21.30	-1.0	74.0	74.0	405.0	25.7	257.00	9.90	67.00	12.60	16	7431.0	27.2	27.2	1581483241	10.93	20.24
12/02/2020 04:54:02	120220	12022020	045402	196.68	13.278143	-57.036197	196.75	-0.390	-1.100	2.530	196.60	-2.60	3.10	 	 	 	 	 	 	 	 	 	 	 	 	 	 	 	 	 	 	1581483242	11.33	20.98
12/02/2020 04:54:03	120220	12022020	045403	196.17	13.278093	-57.036220	196.23	-0.220	-1.290	2.880	196.07	-2.70	3.30	 	 	 	 	 	 	 	 	 	 	 	 	 	 	 	 	 	 	1581483243	11.58	21.45
12/02/2020 04:54:04	120220	12022020	045404	195.71	13.278045	-57.036240	195.80	0.310	-0.960	2.700	195.65	-2.30	3.10	 	 	 	 	 	 	 	 	 	 	 	 	 	 	 	 	 	 	1581483244	11.43	21.17
12/02/2020 04:54:05	120220	12022020	045405	195.54	13.277995	-57.036255	195.68	0.630	-0.350	2.210	195.54	-1.70	2.60	 	 	 	 	 	 	 	 	 	 	 	 	 	 	 	 	 	 	1581483245	11.09	20.54
12/02/2020 04:54:06	120220	12022020	045406	195.55	13.277947	-57.036265	195.70	0.460	0.010	1.850	195.56	-1.40	2.30	 	 	 	 	 	 	 	 	 	 	 	 	 	 	 	 	 	 	1581483246	10.89	20.17
12/02/2020 04:54:07	120220	12022020	045407	195.71	13.277895	-57.036277	195.91	-0.100	0.090	1.950	195.78	-1.30	2.50	 	 	 	 	 	 	 	 	 	 	 	 	 	 	 	 	 	 	1581483247	11.15	20.65
12/02/2020 04:54:08	120220	12022020	045408	196.12	13.277845	-57.036293	196.34	-0.660	0.080	2.430	196.20	-1.30	3.00	 	 	 	 	 	 	 	 	 	 	 	 	 	 	 	 	 	 	1581483248	11.41	21.13
12/02/2020 04:54:09	120220	12022020	045409	196.38	13.277795	-57.036313	196.55	-0.810	-0.050	2.970	196.37	-1.50	3.50	 	 	 	 	 	 	 	 	 	 	 	 	 	 	 	 	 	 	1581483249	11.40	21.11
12/02/2020 04:54:10	120220	12022020	045410	196.22	13.277747	-57.036337	196.35	-0.410	-0.430	3.120	196.17	-1.90	3.50	 	 	 	 	 	 	 	 	 	 	 	 	 	 	 	 	 	 	1581483250	11.49	21.28
12/02/2020 04:54:11	120220	12022020	045411	196.02	13.277697	-57.036357	196.17	0.160	-0.660	2.700	196.00	-2.10	3.10	 	 	 	 	 	 	 	 	 	 	 	 	 	 	 	 	 	 	1581483251	11.79	21.84
12/02/2020 04:54:12	120220	12022020	045412	195.96	13.277643	-57.036373	196.11	0.480	-0.470	1.990	195.96	-1.80	2.40	 	 	 	 	 	 	 	 	 	 	 	 	 	 	 	 	 	 	1581483252	11.68	21.63
12/02/2020 04:54:13	120220	12022020	045413	195.91	13.277593	-57.036385	196.02	0.450	-0.170	1.400	195.88	-1.50	1.80	 	 	 	 	 	 	 	 	 	 	 	 	 	 	 	 	 	 	1581483253	11.19	20.72
12/02/2020 04:54:14	120220	12022020	045414	195.72	13.277543	-57.036395	195.82	0.270	-0.190	1.420	195.68	-1.60	1.90	 	 	 	 	 	 	 	 	 	 	 	 	 	 	 	 	 	 	1581483254	11.03	20.43
12/02/2020 04:54:15	120220	12022020	045415	195.66	13.277492	-57.036408	195.83	0.010	-0.230	1.660	195.70	-1.60	2.20	 	 	 	 	 	 	 	 	 	 	 	 	 	 	 	 	 	 	1581483255	11.38	21.08
12/02/2020 04:54:16	120220	12022020	045416	196.09	13.277440	-57.036423	196.33	-0.350	0.030	1.860	196.22	-1.30	2.30	 	 	 	 	 	 	 	 	 	 	 	 	 	 	 	 	 	 	1581483256	11.49	21.28
12/02/2020 04:54:17	120220	12022020	045417	196.78	13.277393	-57.036442	197.02	-0.700	0.300	2.010	196.90	-1.10	2.50	 	 	 	 	 	 	 	 	 	 	 	 	 	 	 	 	 	 	1581483257	11.00	20.37
12/02/2020 04:54:18	120220	12022020	045418	197.24	13.277347	-57.036462	197.40	-0.670	-0.010	2.010	197.27	-1.50	2.50	 	 	 	 	 	 	 	 	 	 	 	 	 	 	 	 	 	 	1581483258	10.74	19.89
12/02/2020 04:54:19	120220	12022020	045419	197.23	13.277298	-57.036482	197.32	-0.040	-0.940	1.740	197.18	-2.40	2.20	 	 	 	 	 	 	 	 	 	 	 	 	 	 	 	 	 	 	1581483259	11.20	20.74
12/02/2020 04:54:20	120220	12022020	045420	197.00	13.277245	-57.036500	197.08	0.750	-1.460	1.270	196.95	-2.80	1.70	 	 	 	 	 	 	 	 	 	 	 	 	 	 	 	 	 	 	1581483260	12.01	22.24
12/02/2020 04:54:21	120220	12022020	045421	196.80	13.277192	-57.036513	196.89	0.990	-0.970	0.910	196.77	-2.30	1.40	 	 	 	 	 	 	 	 	 	 	 	 	 	 	 	 	 	 	1581483261	11.89	22.02
12/02/2020 04:54:22	120220	12022020	045422	196.58	13.277142	-57.036525	196.64	0.560	-0.180	0.870	196.51	-1.50	1.40	 	 	 	 	 	 	 	 	 	 	 	 	 	 	 	 	 	 	1581483262	10.88	20.15
12/02/2020 04:54:23	120220	12022020	045423	196.15	13.277095	-57.036537	196.17	-0.060	0.060	1.250	196.04	-1.30	1.80	 	 	 	 	 	 	 	 	 	 	 	 	 	 	 	 	 	 	1581483263	10.48	19.41
12/02/2020 04:54:24	120220	12022020	045424	195.66	13.277045	-57.036555	195.73	-0.440	-0.120	1.910	195.59	-1.50	2.50	 	 	 	 	 	 	 	 	 	 	 	 	 	 	 	 	 	 	1581483264	11.16	20.67
12/02/2020 04:54:25	120220	12022020	045425	195.50	13.276995	-57.036575	195.66	-0.600	-0.150	2.360	195.54	-1.50	2.80	 	 	 	 	 	 	 	 	 	 	 	 	 	 	 	 	 	 	1581483265	11.82	21.89
12/02/2020 04:54:26	120220	12022020	045426	195.81	13.276943	-57.036595	196.02	-0.650	-0.000	2.430	195.89	-1.40	2.90	 	 	 	 	 	 	 	 	 	 	 	 	 	 	 	 	 	 	1581483266	11.76	21.78
12/02/2020 04:54:27	120220	12022020	045427	196.28	13.276895	-57.036617	196.50	-0.540	0.130	2.270	196.37	-1.30	2.70	 	 	 	 	 	 	 	 	 	 	 	 	 	 	 	 	 	 	1581483267	11.45	21.21
12/02/2020 04:54:28	120220	12022020	045428	196.81	13.276847	-57.036638	197.06	-0.160	0.210	1.780	196.93	-1.20	2.10	 	 	 	 	 	 	 	 	 	 	 	 	 	 	 	 	 	 	1581483268	11.30	20.93
12/02/2020 04:54:29	120220	12022020	045429	197.44	13.276797	-57.036655	197.67	0.300	0.200	1.060	197.56	-1.20	1.40	 	 	 	 	 	 	 	 	 	 	 	 	 	 	 	 	 	 	1581483269	11.16	20.67
12/02/2020 04:54:30	120220	12022020	045430	197.95	13.276747	-57.036667	198.13	0.590	-0.130	0.600	198.03	-1.60	1.10	 	 	 	 	 	 	 	 	 	 	 	 	 	 	 	 	 	 	1581483270	11.07	20.50
12/02/2020 04:54:31	120220	12022020	045431	198.21	13.276697	-57.036678	198.33	0.600	-0.730	0.820	198.22	-2.20	1.40	 	 	 	 	 	 	 	 	 	 	 	 	 	 	 	 	 	 	1581483271	11.24	20.82
12/02/2020 04:54:32	120220	12022020	045432	198.02	13.276645	-57.036693	198.07	0.380	-1.300	1.510	197.92	-2.70	2.10	 	 	 	 	 	 	 	 	 	 	 	 	 	 	 	 	 	 	1581483272	11.39	21.09
12/02/2020 04:54:33	120220	12022020	045433	197.35	13.276595	-57.036712	197.34	0.080	-1.540	2.440	197.17	-2.90	3.00	 	 	 	 	 	 	 	 	 	 	 	 	 	 	 	 	 	 	1581483273	11.46	21.22
12/02/2020 04:54:34	120220	12022020	045434	196.36	13.276547	-57.036732	196.32	-0.210	-1.360	3.350	196.13	-2.70	3.90	 	 	 	 	 	 	 	 	 	 	 	 	 	 	 	 	 	 	1581483274	11.42	21.15
12/02/2020 04:54:35	120220	12022020	045435	195.27	13.276498	-57.036755	195.24	-0.320	-0.950	3.870	195.06	-2.30	4.30	 	 	 	 	 	 	 	 	 	 	 	 	 	 	 	 	 	 	1581483275	11.41	21.13
12/02/2020 04:54:36	120220	12022020	045436	194.36	13.276448	-57.036777	194.41	-0.200	-0.430	3.850	194.23	-1.70	4.20	 	 	 	 	 	 	 	 	 	 	 	 	 	 	 	 	 	 	1581483276	11.56	21.41
12/02/2020 04:54:37	120220	12022020	045437	194.09	13.276398	-57.036797	194.29	-0.120	0.470	3.240	194.16	-0.80	3.60	 	 	 	 	 	 	 	 	 	 	 	 	 	 	 	 	 	 	1581483277	11.69	21.65
12/02/2020 04:54:38	120220	12022020	045438	194.80	13.276348	-57.036813	195.13	-0.270	1.500	2.180	195.05	0.20	2.50	 	 	 	 	 	 	 	 	 	 	 	 	 	 	 	 	 	 	1581483278	11.21	20.76
12/02/2020 04:54:39	120220	12022020	045439	196.16	13.276302	-57.036827	196.46	-0.510	1.800	1.350	196.40	0.30	1.80	 	 	 	 	 	 	 	 	 	 	 	 	 	 	 	 	 	 	1581483279	10.49	19.43
12/02/2020 04:54:40	120220	12022020	045440	197.19	13.276253	-57.036840	197.40	-0.390	0.740	1.420	197.30	-0.90	2.00	 	 	 	 	 	 	 	 	 	 	 	 	 	 	 	 	 	 	1581483280	10.55	19.54
12/02/2020 04:54:41	120220	12022020	045441	197.40	13.276203	-57.036860	197.52	0.240	-1.060	2.250	197.37	-2.70	2.80	 	 	 	 	 	 	 	 	 	 	 	 	 	 	 	 	 	 	1581483281	12.48	23.11
12/02/2020 04:54:42	120220	12022020	045442	197.22	13.276150	-57.036882	197.37	0.850	-2.020	2.930	197.22	-3.40	3.40	 	 	 	 	 	 	 	 	 	 	 	 	 	 	 	 	 	 	1581483282	12.48	23.11
12/02/2020 04:54:43	120220	12022020	045443	197.34	13.276098	-57.036902	197.54	0.890	-1.420	3.030	197.40	-2.70	3.50	 	 	 	 	 	 	 	 	 	 	 	 	 	 	 	 	 	 	1581483283	11.85	21.95
12/02/2020 04:54:44	120220	12022020	045444	197.71	13.276053	-57.036917	197.92	0.450	-0.170	2.570	197.78	-1.50	3.00	 	 	 	 	 	 	 	 	 	 	 	 	 	 	 	 	 	 	1581483284	10.20	18.89
12/02/2020 04:54:45	120220	12022020	045445	197.96	13.276012	-57.036930	198.10	0.030	0.380	1.910	197.97	-1.00	2.30	 	 	 	 	 	 	 	 	 	 	 	 	 	 	 	 	 	 	1581483285	9.44	17.48
12/02/2020 04:54:46	120220	12022020	045446	197.88	13.275965	-57.036940	197.96	-0.070	-0.140	1.640	197.82	-1.70	2.10	 	 	 	 	 	 	 	 	 	 	 	 	 	 	 	 	 	 	1581483286	10.21	18.91
12/02/2020 04:54:47	120220	12022020	045447	197.50	13.275913	-57.036953	197.54	-0.010	-1.110	1.780	197.40	-2.60	2.30	 	 	 	 	 	 	 	 	 	 	 	 	 	 	 	 	 	 	1581483287	11.52	21.34
12/02/2020 04:54:48	120220	12022020	045448	196.97	13.275858	-57.036972	197.00	-0.080	-1.600	2.170	196.85	-3.00	2.70	 	 	 	 	 	 	 	 	 	 	 	 	 	 	 	 	 	 	1581483288	12.23	22.65
12/02/2020 04:54:49	120220	12022020	045449	196.40	13.275807	-57.036992	196.44	-0.300	-1.290	2.610	196.28	-2.60	3.10	 	 	 	 	 	 	 	 	 	 	 	 	 	 	 	 	 	 	1581483289	11.97	22.17
12/02/2020 04:54:50	120220	12022020	045450	195.81	13.275758	-57.037013	195.87	-0.450	-0.560	2.830	195.71	-1.90	3.30	 	 	 	 	 	 	 	 	 	 	 	 	 	 	 	 	 	 	1581483290	11.38	21.08
12/02/2020 04:54:51	120220	12022020	045451	195.45	13.275712	-57.037035	195.58	-0.480	0.280	2.600	195.43	-1.00	3.00	 	 	 	 	 	 	 	 	 	 	 	 	 	 	 	 	 	 	1581483291	11.10	20.56
12/02/2020 04:54:52	120220	12022020	045452	195.54	13.275663	-57.037053	195.73	-0.460	0.950	1.970	195.60	-0.40	2.40	 	 	 	 	 	 	 	 	 	 	 	 	 	 	 	 	 	 	1581483292	10.98	20.33
12/02/2020 04:54:53	120220	12022020	045453	195.99	13.275615	-57.037070	196.22	-0.410	1.140	1.270	196.10	-0.30	1.70	 	 	 	 	 	 	 	 	 	 	 	 	 	 	 	 	 	 	1581483293	10.95	20.28
12/02/2020 04:54:54	120220	12022020	045454	196.58	13.275565	-57.037085	196.79	-0.270	0.830	0.820	196.69	-0.70	1.30	 	 	 	 	 	 	 	 	 	 	 	 	 	 	 	 	 	 	1581483294	11.11	20.58
12/02/2020 04:54:55	120220	12022020	045455	197.00	13.275515	-57.037102	197.16	0.070	0.190	0.880	197.05	-1.30	1.40	 	 	 	 	 	 	 	 	 	 	 	 	 	 	 	 	 	 	1581483295	11.26	20.85
12/02/2020 04:54:56	120220	12022020	045456	197.08	13.275465	-57.037117	197.20	0.520	-0.590	1.310	197.07	-2.10	1.90	 	 	 	 	 	 	 	 	 	 	 	 	 	 	 	 	 	 	1581483296	11.36	21.04
12/02/2020 04:54:57	120220	12022020	045457	197.12	13.275415	-57.037133	197.29	0.690	-0.950	1.790	197.16	-2.40	2.30	 	 	 	 	 	 	 	 	 	 	 	 	 	 	 	 	 	 	1581483297	11.48	21.26
12/02/2020 04:54:58	120220	12022020	045458	197.39	13.275365	-57.037150	197.59	0.410	-0.700	2.210	197.45	-2.10	2.70	 	 	 	 	 	 	 	 	 	 	 	 	 	 	 	 	 	 	1581483298	11.09	20.54
12/02/2020 04:54:59	120220	12022020	045459	197.67	13.275320	-57.037168	197.85	0.030	-0.320	2.310	197.71	-1.70	2.80	 	 	 	 	 	 	 	 	 	 	 	 	 	 	 	 	 	 	1581483299	10.33	19.13
12/02/2020 04:55:00	120220	12022020	045500	197.65	13.275277	-57.037185	197.74	0.080	-0.440	2.200	197.60	-1.90	2.70	 	 	 	 	 	 	 	 	 	 	 	 	 	 	 	 	 	 	1581483300	10.10	18.71
12/02/2020 04:55:01	120220	12022020	045501	197.25	13.275228	-57.037200	197.30	0.500	-1.030	2.120	197.15	-2.50	2.60	1016.30	26.00	26.10	21.10	21.10	-1.0	74.0	74.0	402.0	25.7	257.00	9.20	65.00	11.90	16	8047.0	27.2	27.2	1581483301	10.75	19.91
12/02/2020 04:55:02	120220	12022020	045502	196.68	13.275177	-57.037215	196.72	0.710	-1.510	2.260	196.56	-2.90	2.80	 	 	 	 	 	 	 	 	 	 	 	 	 	 	 	 	 	 	1581483302	11.60	21.48
12/02/2020 04:55:03	120220	12022020	045503	196.09	13.275123	-57.037230	196.12	0.320	-1.510	2.680	195.95	-2.90	3.30	 	 	 	 	 	 	 	 	 	 	 	 	 	 	 	 	 	 	1581483303	11.78	21.82
12/02/2020 04:55:04	120220	12022020	045504	195.32	13.275073	-57.037248	195.35	-0.410	-1.180	3.450	195.15	-2.50	4.10	 	 	 	 	 	 	 	 	 	 	 	 	 	 	 	 	 	 	1581483304	11.54	21.37
12/02/2020 04:55:05	120220	12022020	045505	194.38	13.275025	-57.037270	194.43	-0.940	-0.720	4.220	194.22	-2.00	4.80	 	 	 	 	 	 	 	 	 	 	 	 	 	 	 	 	 	 	1581483305	11.57	21.43
12/02/2020 04:55:06	120220	12022020	045506	193.77	13.274975	-57.037295	193.93	-1.080	0.100	4.340	193.75	-1.10	4.80	 	 	 	 	 	 	 	 	 	 	 	 	 	 	 	 	 	 	1581483306	11.93	22.09
12/02/2020 04:55:07	120220	12022020	045507	193.99	13.274925	-57.037318	194.26	-1.000	1.200	3.680	194.11	-0.10	4.00	 	 	 	 	 	 	 	 	 	 	 	 	 	 	 	 	 	 	1581483307	11.62	21.52
12/02/2020 04:55:08	120220	12022020	045508	194.80	13.274878	-57.037337	195.10	-0.820	1.990	2.620	195.00	0.60	3.00	 	 	 	 	 	 	 	 	 	 	 	 	 	 	 	 	 	 	1581483308	10.92	20.22
12/02/2020 04:55:09	120220	12022020	045509	195.82	13.274832	-57.037352	196.12	-0.420	1.970	1.480	196.04	0.50	1.80	 	 	 	 	 	 	 	 	 	 	 	 	 	 	 	 	 	 	1581483309	10.56	19.56
12/02/2020 04:55:10	120220	12022020	045510	196.81	13.274783	-57.037365	197.07	0.360	1.010	0.610	196.98	-0.60	1.00	 	 	 	 	 	 	 	 	 	 	 	 	 	 	 	 	 	 	1581483310	10.80	20.00
12/02/2020 04:55:11	120220	12022020	045511	197.49	13.274732	-57.037377	197.69	1.250	-0.440	0.330	197.58	-2.00	0.80	 	 	 	 	 	 	 	 	 	 	 	 	 	 	 	 	 	 	1581483311	11.32	20.96
12/02/2020 04:55:12	120220	12022020	045512	197.83	13.274678	-57.037387	197.98	1.660	-1.670	0.630	197.86	-3.20	1.20	 	 	 	 	 	 	 	 	 	 	 	 	 	 	 	 	 	 	1581483312	11.66	21.59
12/02/2020 04:55:13	120220	12022020	045513	197.89	13.274627	-57.037400	198.03	1.280	-2.120	1.470	197.87	-3.50	2.10	 	 	 	 	 	 	 	 	 	 	 	 	 	 	 	 	 	 	1581483313	11.35	21.02
12/02/2020 04:55:14	120220	12022020	045514	197.64	13.274580	-57.037415	197.72	0.440	-1.890	2.470	197.54	-3.20	3.10	 	 	 	 	 	 	 	 	 	 	 	 	 	 	 	 	 	 	1581483314	10.65	19.72
12/02/2020 04:55:15	120220	12022020	045515	196.95	13.274535	-57.037435	196.96	-0.190	-1.530	3.280	196.77	-2.90	3.80	 	 	 	 	 	 	 	 	 	 	 	 	 	 	 	 	 	 	1581483315	10.23	18.95
12/02/2020 04:55:16	120220	12022020	045516	196.00	13.274490	-57.037455	196.01	-0.330	-1.380	3.600	195.82	-2.80	4.10	 	 	 	 	 	 	 	 	 	 	 	 	 	 	 	 	 	 	1581483316	10.60	19.63
12/02/2020 04:55:17	120220	12022020	045517	195.06	13.274442	-57.037473	195.09	-0.230	-1.290	3.580	194.91	-2.60	4.00	 	 	 	 	 	 	 	 	 	 	 	 	 	 	 	 	 	 	1581483317	11.38	21.08
12/02/2020 04:55:18	120220	12022020	045518	194.43	13.274388	-57.037492	194.54	-0.300	-0.810	3.430	194.37	-2.10	3.90	 	 	 	 	 	 	 	 	 	 	 	 	 	 	 	 	 	 	1581483318	12.00	22.22
12/02/2020 04:55:19	120220	12022020	045519	194.43	13.274335	-57.037510	194.64	-0.760	0.290	3.140	194.51	-0.90	3.60	 	 	 	 	 	 	 	 	 	 	 	 	 	 	 	 	 	 	1581483319	11.96	22.15
12/02/2020 04:55:20	120220	12022020	045520	195.05	13.274287	-57.037528	195.34	-1.370	1.570	2.780	195.23	0.30	3.20	 	 	 	 	 	 	 	 	 	 	 	 	 	 	 	 	 	 	1581483320	11.28	20.89
12/02/2020 04:55:21	120220	12022020	045521	196.01	13.274240	-57.037548	196.31	-1.580	2.260	2.330	196.21	0.90	2.70	 	 	 	 	 	 	 	 	 	 	 	 	 	 	 	 	 	 	1581483321	10.71	19.83
12/02/2020 04:55:22	120220	12022020	045522	197.01	13.274195	-57.037568	197.31	-1.000	1.940	1.640	197.21	0.40	2.00	 	 	 	 	 	 	 	 	 	 	 	 	 	 	 	 	 	 	1581483322	10.74	19.89
12/02/2020 04:55:23	120220	12022020	045523	197.94	13.274145	-57.037587	198.20	0.090	0.860	0.940	198.11	-0.70	1.40	 	 	 	 	 	 	 	 	 	 	 	 	 	 	 	 	 	 	1581483323	11.21	20.76
12/02/2020 04:55:24	120220	12022020	045524	198.55	13.274093	-57.037602	198.72	1.110	-0.420	0.640	198.61	-2.00	1.10	 	 	 	 	 	 	 	 	 	 	 	 	 	 	 	 	 	 	1581483324	11.56	21.41
12/02/2020 04:55:25	120220	12022020	045525	198.65	13.274042	-57.037617	198.73	1.620	-1.330	0.670	198.62	-2.80	1.20	 	 	 	 	 	 	 	 	 	 	 	 	 	 	 	 	 	 	1581483325	11.44	21.19
12/02/2020 04:55:26	120220	12022020	045526	198.37	13.273993	-57.037628	198.39	1.600	-1.710	0.880	198.27	-3.10	1.40	 	 	 	 	 	 	 	 	 	 	 	 	 	 	 	 	 	 	1581483326	11.00	20.37
12/02/2020 04:55:27	120220	12022020	045527	197.75	13.273945	-57.037642	197.74	1.260	-1.760	1.350	197.60	-3.10	1.90	 	 	 	 	 	 	 	 	 	 	 	 	 	 	 	 	 	 	1581483327	10.57	19.58
12/02/2020 04:55:28	120220	12022020	045528	197.02	13.273898	-57.037655	197.01	0.640	-1.520	1.950	196.88	-2.80	2.50	 	 	 	 	 	 	 	 	 	 	 	 	 	 	 	 	 	 	1581483328	10.64	19.71
12/02/2020 04:55:29	120220	12022020	045529	196.35	13.273850	-57.037670	196.38	-0.240	-1.020	2.510	196.24	-2.30	3.10	 	 	 	 	 	 	 	 	 	 	 	 	 	 	 	 	 	 	1581483329	10.79	19.98
12/02/2020 04:55:30	120220	12022020	045530	195.82	13.273803	-57.037690	195.88	-1.050	-0.560	2.960	195.74	-1.90	3.50	 	 	 	 	 	 	 	 	 	 	 	 	 	 	 	 	 	 	1581483330	10.95	20.28
12/02/2020 04:55:31	120220	12022020	045531	195.43	13.273755	-57.037713	195.50	-1.430	-0.260	3.200	195.36	-1.60	3.70	 	 	 	 	 	 	 	 	 	 	 	 	 	 	 	 	 	 	1581483331	11.32	20.96
12/02/2020 04:55:32	120220	12022020	045532	195.13	13.273707	-57.037737	195.25	-1.280	0.030	3.030	195.10	-1.30	3.50	 	 	 	 	 	 	 	 	 	 	 	 	 	 	 	 	 	 	1581483332	11.68	21.63
12/02/2020 04:55:33	120220	12022020	045533	195.10	13.273657	-57.037760	195.26	-0.860	0.500	2.530	195.13	-0.80	2.90	 	 	 	 	 	 	 	 	 	 	 	 	 	 	 	 	 	 	1581483333	11.71	21.69
12/02/2020 04:55:34	120220	12022020	045534	195.31	13.273607	-57.037778	195.48	-0.380	0.960	1.910	195.36	-0.40	2.30	 	 	 	 	 	 	 	 	 	 	 	 	 	 	 	 	 	 	1581483334	11.31	20.95
12/02/2020 04:55:35	120220	12022020	045535	195.56	13.273558	-57.037795	195.72	0.150	1.070	1.380	195.60	-0.40	1.80	 	 	 	 	 	 	 	 	 	 	 	 	 	 	 	 	 	 	1581483335	10.91	20.21
12/02/2020 04:55:36	120220	12022020	045536	195.77	13.273510	-57.037808	195.92	0.720	0.690	1.060	195.82	-0.80	1.50	 	 	 	 	 	 	 	 	 	 	 	 	 	 	 	 	 	 	1581483336	10.89	20.17
12/02/2020 04:55:37	120220	12022020	045537	196.05	13.273460	-57.037820	196.24	1.150	0.060	1.010	196.12	-1.40	1.50	 	 	 	 	 	 	 	 	 	 	 	 	 	 	 	 	 	 	1581483337	11.12	20.59
12/02/2020 04:55:38	120220	12022020	045538	196.46	13.273408	-57.037832	196.66	1.230	-0.520	1.170	196.54	-2.00	1.70	 	 	 	 	 	 	 	 	 	 	 	 	 	 	 	 	 	 	1581483338	11.15	20.65
12/02/2020 04:55:39	120220	12022020	045539	196.74	13.273360	-57.037843	196.90	0.930	-1.040	1.580	196.76	-2.50	2.20	 	 	 	 	 	 	 	 	 	 	 	 	 	 	 	 	 	 	1581483339	10.87	20.13
12/02/2020 04:55:40	120220	12022020	045540	196.59	13.273312	-57.037858	196.67	0.470	-1.670	2.570	196.49	-3.20	3.20	 	 	 	 	 	 	 	 	 	 	 	 	 	 	 	 	 	 	1581483340	10.74	19.89
12/02/2020 04:55:41	120220	12022020	045541	195.95	13.273263	-57.037877	196.00	0.070	-2.140	3.600	195.80	-3.50	4.20	 	 	 	 	 	 	 	 	 	 	 	 	 	 	 	 	 	 	1581483341	11.14	20.63
12/02/2020 04:55:42	120220	12022020	045542	195.10	13.273215	-57.037900	195.16	-0.280	-1.870	4.090	194.95	-3.20	4.60	 	 	 	 	 	 	 	 	 	 	 	 	 	 	 	 	 	 	1581483342	11.53	21.35
12/02/2020 04:55:43	120220	12022020	045543	194.44	13.273167	-57.037920	194.57	-0.610	-0.890	3.980	194.37	-2.10	4.40	 	 	 	 	 	 	 	 	 	 	 	 	 	 	 	 	 	 	1581483343	11.30	20.93
12/02/2020 04:55:44	120220	12022020	045544	194.27	13.273118	-57.037937	194.45	-0.780	0.260	3.190	194.29	-1.00	3.50	 	 	 	 	 	 	 	 	 	 	 	 	 	 	 	 	 	 	1581483344	10.84	20.08
12/02/2020 04:55:45	120220	12022020	045545	194.50	13.273072	-57.037952	194.69	-0.670	0.980	2.090	194.58	-0.40	2.50	 	 	 	 	 	 	 	 	 	 	 	 	 	 	 	 	 	 	1581483345	10.70	19.82
12/02/2020 04:55:46	120220	12022020	045546	194.95	13.273022	-57.037965	195.13	-0.290	1.040	1.170	195.05	-0.40	1.60	 	 	 	 	 	 	 	 	 	 	 	 	 	 	 	 	 	 	1581483346	11.00	20.37
12/02/2020 04:55:47	120220	12022020	045547	195.42	13.272970	-57.037977	195.57	0.130	0.610	0.760	195.50	-0.90	1.30	 	 	 	 	 	 	 	 	 	 	 	 	 	 	 	 	 	 	1581483347	11.45	21.21
12/02/2020 04:55:48	120220	12022020	045548	195.72	13.272917	-57.037988	195.84	0.300	-0.020	0.990	195.74	-1.50	1.60	 	 	 	 	 	 	 	 	 	 	 	 	 	 	 	 	 	 	1581483348	11.68	21.63
12/02/2020 04:55:49	120220	12022020	045549	195.68	13.272865	-57.038003	195.75	0.200	-0.520	1.720	195.63	-2.00	2.30	 	 	 	 	 	 	 	 	 	 	 	 	 	 	 	 	 	 	1581483349	11.60	21.48
12/02/2020 04:55:50	120220	12022020	045550	195.44	13.272815	-57.038023	195.53	0.070	-0.530	2.270	195.40	-1.90	2.80	 	 	 	 	 	 	 	 	 	 	 	 	 	 	 	 	 	 	1581483350	11.34	21.00
12/02/2020 04:55:51	120220	12022020	045551	195.34	13.272768	-57.038042	195.46	0.130	-0.100	2.230	195.34	-1.40	2.70	 	 	 	 	 	 	 	 	 	 	 	 	 	 	 	 	 	 	1581483351	10.84	20.08
12/02/2020 04:55:52	120220	12022020	045552	195.38	13.272723	-57.038057	195.51	0.390	0.020	1.820	195.40	-1.40	2.30	 	 	 	 	 	 	 	 	 	 	 	 	 	 	 	 	 	 	1581483352	10.24	18.96
12/02/2020 04:55:53	120220	12022020	045553	195.52	13.272675	-57.038068	195.68	0.630	-0.360	1.320	195.56	-1.80	1.80	 	 	 	 	 	 	 	 	 	 	 	 	 	 	 	 	 	 	1581483353	10.53	19.50
12/02/2020 04:55:54	120220	12022020	045554	195.77	13.272625	-57.038080	195.93	0.600	-0.810	0.990	195.82	-2.30	1.50	 	 	 	 	 	 	 	 	 	 	 	 	 	 	 	 	 	 	1581483354	11.10	20.56
12/02/2020 04:55:55	120220	12022020	045555	195.98	13.272575	-57.038092	196.12	0.250	-1.080	1.190	195.98	-2.50	1.80	 	 	 	 	 	 	 	 	 	 	 	 	 	 	 	 	 	 	1581483355	11.23	20.80
12/02/2020 04:55:56	120220	12022020	045556	195.76	13.272525	-57.038107	195.82	-0.110	-1.240	1.930	195.65	-2.70	2.50	 	 	 	 	 	 	 	 	 	 	 	 	 	 	 	 	 	 	1581483356	11.05	20.46
12/02/2020 04:55:57	120220	12022020	045557	195.10	13.272477	-57.038125	195.16	-0.260	-1.280	2.720	194.96	-2.60	3.30	 	 	 	 	 	 	 	 	 	 	 	 	 	 	 	 	 	 	1581483357	11.21	20.76
12/02/2020 04:55:58	120220	12022020	045558	194.59	13.272427	-57.038145	194.73	-0.410	-0.910	3.110	194.54	-2.20	3.60	 	 	 	 	 	 	 	 	 	 	 	 	 	 	 	 	 	 	1581483358	11.53	21.35
12/02/2020 04:55:59	120220	12022020	045559	194.49	13.272377	-57.038165	194.69	-0.640	-0.070	2.960	194.52	-1.30	3.40	 	 	 	 	 	 	 	 	 	 	 	 	 	 	 	 	 	 	1581483359	11.39	21.09
12/02/2020 04:56:00	120220	12022020	045600	194.73	13.272330	-57.038183	194.95	-0.800	0.820	2.410	194.81	-0.50	2.80	 	 	 	 	 	 	 	 	 	 	 	 	 	 	 	 	 	 	1581483360	10.90	20.19
12/02/2020 04:56:01	120220	12022020	045601	195.16	13.272283	-57.038200	195.36	-0.620	1.130	1.820	195.23	-0.30	2.30	1016.20	26.10	26.10	21.20	21.20	-1.0	74.0	74.0	400.0	25.7	263.00	9.10	69.00	11.40	16	7579.0	27.2	27.2	1581483361	10.54	19.52
12/02/2020 04:56:02	120220	12022020	045602	195.35	13.272235	-57.038213	195.46	-0.010	0.510	1.580	195.32	-1.00	2.10	 	 	 	 	 	 	 	 	 	 	 	 	 	 	 	 	 	 	1581483362	10.82	20.04
12/02/2020 04:56:03	120220	12022020	045603	195.05	13.272182	-57.038227	195.12	0.710	-0.620	1.860	194.96	-2.10	2.40	 	 	 	 	 	 	 	 	 	 	 	 	 	 	 	 	 	 	1581483363	11.61	21.50
12/02/2020 04:56:04	120220	12022020	045604	194.64	13.272127	-57.038242	194.73	0.900	-1.260	2.310	194.57	-2.60	2.90	 	 	 	 	 	 	 	 	 	 	 	 	 	 	 	 	 	 	1581483364	12.24	22.67
12/02/2020 04:56:05	120220	12022020	045605	194.44	13.272073	-57.038257	194.58	0.440	-0.830	2.620	194.44	-2.10	3.10	 	 	 	 	 	 	 	 	 	 	 	 	 	 	 	 	 	 	1581483365	11.85	21.95
12/02/2020 04:56:06	120220	12022020	045606	194.53	13.272027	-57.038272	194.71	-0.240	0.080	2.650	194.57	-1.20	3.10	 	 	 	 	 	 	 	 	 	 	 	 	 	 	 	 	 	 	1581483366	10.72	19.85
12/02/2020 04:56:07	120220	12022020	045607	194.81	13.271982	-57.038288	194.99	-0.540	0.540	2.450	194.88	-0.80	2.90	 	 	 	 	 	 	 	 	 	 	 	 	 	 	 	 	 	 	1581483367	10.10	18.71
12/02/2020 04:56:08	120220	12022020	045608	195.21	13.271937	-57.038305	195.40	-0.300	0.360	1.970	195.29	-1.10	2.40	 	 	 	 	 	 	 	 	 	 	 	 	 	 	 	 	 	 	1581483368	10.51	19.46
12/02/2020 04:56:09	120220	12022020	045609	195.69	13.271887	-57.038320	195.87	0.070	-0.150	1.490	195.78	-1.60	1.90	 	 	 	 	 	 	 	 	 	 	 	 	 	 	 	 	 	 	1581483369	11.15	20.65
12/02/2020 04:56:10	120220	12022020	045610	196.10	13.271835	-57.038333	196.26	0.210	-0.600	1.370	196.17	-2.00	1.90	 	 	 	 	 	 	 	 	 	 	 	 	 	 	 	 	 	 	1581483370	11.37	21.06
12/02/2020 04:56:11	120220	12022020	045611	196.29	13.271785	-57.038348	196.40	0.150	-0.900	1.580	196.28	-2.30	2.10	 	 	 	 	 	 	 	 	 	 	 	 	 	 	 	 	 	 	1581483371	11.18	20.71
12/02/2020 04:56:12	120220	12022020	045612	196.03	13.271737	-57.038365	196.06	0.130	-1.160	1.960	195.92	-2.60	2.50	 	 	 	 	 	 	 	 	 	 	 	 	 	 	 	 	 	 	1581483372	10.98	20.33
12/02/2020 04:56:13	120220	12022020	045613	195.49	13.271688	-57.038382	195.52	0.180	-1.180	2.210	195.38	-2.50	2.70	 	 	 	 	 	 	 	 	 	 	 	 	 	 	 	 	 	 	1581483373	11.16	20.67
12/02/2020 04:56:14	120220	12022020	045614	195.05	13.271638	-57.038398	195.13	0.190	-0.700	2.120	194.99	-2.00	2.60	 	 	 	 	 	 	 	 	 	 	 	 	 	 	 	 	 	 	1581483374	11.24	20.82
12/02/2020 04:56:15	120220	12022020	045615	194.81	13.271590	-57.038412	194.89	0.040	-0.070	1.920	194.77	-1.40	2.40	 	 	 	 	 	 	 	 	 	 	 	 	 	 	 	 	 	 	1581483375	10.90	20.19
12/02/2020 04:56:16	120220	12022020	045616	194.65	13.271540	-57.038425	194.72	-0.250	0.120	2.010	194.60	-1.30	2.60	 	 	 	 	 	 	 	 	 	 	 	 	 	 	 	 	 	 	1581483376	10.80	20.00
12/02/2020 04:56:17	120220	12022020	045617	194.34	13.271490	-57.038440	194.38	-0.430	-0.230	2.500	194.26	-1.70	3.00	 	 	 	 	 	 	 	 	 	 	 	 	 	 	 	 	 	 	1581483377	11.25	20.84
12/02/2020 04:56:18	120220	12022020	045618	193.95	13.271438	-57.038460	194.02	-0.380	-0.500	2.850	193.90	-1.90	3.40	 	 	 	 	 	 	 	 	 	 	 	 	 	 	 	 	 	 	1581483378	11.97	22.17
12/02/2020 04:56:19	120220	12022020	045619	193.86	13.271387	-57.038480	193.99	-0.250	-0.220	2.820	193.89	-1.50	3.30	 	 	 	 	 	 	 	 	 	 	 	 	 	 	 	 	 	 	1581483379	12.01	22.24
12/02/2020 04:56:20	120220	12022020	045620	194.22	13.271335	-57.038497	194.41	-0.240	0.350	2.460	194.32	-1.00	2.90	 	 	 	 	 	 	 	 	 	 	 	 	 	 	 	 	 	 	1581483380	11.37	21.06
12/02/2020 04:56:21	120220	12022020	045621	194.79	13.271288	-57.038510	194.99	-0.290	0.670	2.060	194.91	-0.70	2.50	 	 	 	 	 	 	 	 	 	 	 	 	 	 	 	 	 	 	1581483381	10.75	19.91
12/02/2020 04:56:22	120220	12022020	045622	195.36	13.271240	-57.038523	195.55	-0.240	0.470	1.740	195.46	-1.00	2.20	 	 	 	 	 	 	 	 	 	 	 	 	 	 	 	 	 	 	1581483382	10.70	19.82
12/02/2020 04:56:23	120220	12022020	045623	195.77	13.271190	-57.038537	195.92	-0.070	-0.100	1.700	195.83	-1.60	2.20	 	 	 	 	 	 	 	 	 	 	 	 	 	 	 	 	 	 	1581483383	11.03	20.43
12/02/2020 04:56:24	120220	12022020	045624	195.95	13.271140	-57.038552	196.06	0.110	-0.750	1.860	195.95	-2.20	2.40	 	 	 	 	 	 	 	 	 	 	 	 	 	 	 	 	 	 	1581483384	11.34	21.00
12/02/2020 04:56:25	120220	12022020	045625	195.90	13.271090	-57.038568	196.01	0.270	-1.160	2.000	195.89	-2.60	2.50	 	 	 	 	 	 	 	 	 	 	 	 	 	 	 	 	 	 	1581483385	11.34	21.00
12/02/2020 04:56:26	120220	12022020	045626	195.85	13.271040	-57.038583	195.95	0.420	-1.120	1.940	195.83	-2.50	2.40	 	 	 	 	 	 	 	 	 	 	 	 	 	 	 	 	 	 	1581483386	11.22	20.78
12/02/2020 04:56:27	120220	12022020	045627	195.74	13.270990	-57.038598	195.83	0.500	-0.830	1.870	195.71	-2.20	2.40	 	 	 	 	 	 	 	 	 	 	 	 	 	 	 	 	 	 	1581483387	10.91	20.21
12/02/2020 04:56:28	120220	12022020	045628	195.50	13.270942	-57.038612	195.55	0.450	-0.570	1.860	195.43	-1.90	2.30	 	 	 	 	 	 	 	 	 	 	 	 	 	 	 	 	 	 	1581483388	10.83	20.06
12/02/2020 04:56:29	120220	12022020	045629	195.10	13.270893	-57.038627	195.12	0.330	-0.340	1.770	195.01	-1.70	2.20	 	 	 	 	 	 	 	 	 	 	 	 	 	 	 	 	 	 	1581483389	11.04	20.45
12/02/2020 04:56:30	120220	12022020	045630	194.76	13.270842	-57.038640	194.84	0.110	0.030	1.600	194.73	-1.30	2.10	 	 	 	 	 	 	 	 	 	 	 	 	 	 	 	 	 	 	1581483390	11.24	20.82
12/02/2020 04:56:31	120220	12022020	045631	194.85	13.270792	-57.038653	195.01	-0.280	0.460	1.460	194.91	-0.90	1.90	 	 	 	 	 	 	 	 	 	 	 	 	 	 	 	 	 	 	1581483391	11.14	20.63
12/02/2020 04:56:32	120220	12022020	045632	195.12	13.270743	-57.038667	195.24	-0.680	0.360	1.680	195.13	-1.10	2.30	 	 	 	 	 	 	 	 	 	 	 	 	 	 	 	 	 	 	1581483392	10.86	20.11
12/02/2020 04:56:33	120220	12022020	045633	194.95	13.270695	-57.038687	195.00	-0.740	-0.430	2.480	194.87	-1.90	3.10	 	 	 	 	 	 	 	 	 	 	 	 	 	 	 	 	 	 	1581483393	11.22	20.78
12/02/2020 04:56:34	120220	12022020	045634	194.59	13.270643	-57.038710	194.70	-0.450	-0.940	3.000	194.56	-2.30	3.50	 	 	 	 	 	 	 	 	 	 	 	 	 	 	 	 	 	 	1581483394	12.14	22.48
12/02/2020 04:56:35	120220	12022020	045635	194.64	13.270592	-57.038733	194.81	-0.130	-0.560	2.750	194.70	-1.90	3.20	 	 	 	 	 	 	 	 	 	 	 	 	 	 	 	 	 	 	1581483395	12.03	22.28
12/02/2020 04:56:36	120220	12022020	045636	195.03	13.270545	-57.038748	195.20	0.080	-0.030	2.110	195.12	-1.40	2.50	 	 	 	 	 	 	 	 	 	 	 	 	 	 	 	 	 	 	1581483396	10.84	20.08
12/02/2020 04:56:37	120220	12022020	045637	195.46	13.270497	-57.038762	195.61	0.300	-0.160	1.520	195.54	-1.60	2.00	 	 	 	 	 	 	 	 	 	 	 	 	 	 	 	 	 	 	1581483397	10.48	19.41
12/02/2020 04:56:38	120220	12022020	045638	195.81	13.270447	-57.038772	195.94	0.520	-0.640	1.390	195.86	-2.10	1.90	 	 	 	 	 	 	 	 	 	 	 	 	 	 	 	 	 	 	1581483398	11.19	20.72
12/02/2020 04:56:39	120220	12022020	045639	196.03	13.270393	-57.038785	196.14	0.550	-0.820	1.620	196.05	-2.20	2.20	 	 	 	 	 	 	 	 	 	 	 	 	 	 	 	 	 	 	1581483399	11.65	21.58
12/02/2020 04:56:40	120220	12022020	045640	196.02	13.270342	-57.038798	196.09	0.270	-0.610	2.010	196.00	-2.00	2.50	 	 	 	 	 	 	 	 	 	 	 	 	 	 	 	 	 	 	1581483400	11.39	21.09
12/02/2020 04:56:41	120220	12022020	045641	195.85	13.270293	-57.038813	195.91	-0.250	-0.330	2.340	195.81	-1.70	2.90	 	 	 	 	 	 	 	 	 	 	 	 	 	 	 	 	 	 	1581483401	11.04	20.45
12/02/2020 04:56:42	120220	12022020	045642	195.58	13.270243	-57.038828	195.62	-0.780	-0.120	2.770	195.50	-1.50	3.30	 	 	 	 	 	 	 	 	 	 	 	 	 	 	 	 	 	 	1581483402	11.02	20.41
12/02/2020 04:56:43	120220	12022020	045643	195.14	13.270195	-57.038848	195.18	-0.920	-0.160	3.170	195.05	-1.60	3.70	 	 	 	 	 	 	 	 	 	 	 	 	 	 	 	 	 	 	1581483403	11.19	20.72
12/02/2020 04:56:44	120220	12022020	045644	194.79	13.270147	-57.038870	194.90	-0.660	-0.120	3.080	194.76	-1.50	3.50	 	 	 	 	 	 	 	 	 	 	 	 	 	 	 	 	 	 	1581483404	11.59	21.46
12/02/2020 04:56:45	120220	12022020	045645	194.79	13.270097	-57.038890	194.96	-0.230	0.160	2.570	194.84	-1.20	2.90	 	 	 	 	 	 	 	 	 	 	 	 	 	 	 	 	 	 	1581483405	11.58	21.45
12/02/2020 04:56:46	120220	12022020	045646	195.22	13.270047	-57.038908	195.43	0.190	0.530	1.550	195.35	-0.80	1.90	 	 	 	 	 	 	 	 	 	 	 	 	 	 	 	 	 	 	1581483406	11.14	20.63
12/02/2020 04:56:47	120220	12022020	045647	195.85	13.269998	-57.038922	196.03	0.620	0.610	0.430	195.97	-0.80	0.80	 	 	 	 	 	 	 	 	 	 	 	 	 	 	 	 	 	 	1581483407	10.69	19.80
12/02/2020 04:56:48	120220	12022020	045648	196.35	13.269950	-57.038930	196.47	0.990	0.090	-0.010	196.41	-1.40	0.50	 	 	 	 	 	 	 	 	 	 	 	 	 	 	 	 	 	 	1581483408	10.70	19.82
12/02/2020 04:56:49	120220	12022020	045649	196.44	13.269898	-57.038938	196.50	1.000	-0.940	0.560	196.40	-2.50	1.20	 	 	 	 	 	 	 	 	 	 	 	 	 	 	 	 	 	 	1581483409	11.15	20.65
12/02/2020 04:56:50	120220	12022020	045650	196.06	13.269847	-57.038952	196.10	0.570	-1.870	1.730	195.95	-3.30	2.40	 	 	 	 	 	 	 	 	 	 	 	 	 	 	 	 	 	 	1581483410	11.62	21.52
12/02/2020 04:56:51	120220	12022020	045651	195.49	13.269795	-57.038972	195.53	-0.110	-2.020	2.840	195.37	-3.40	3.40	 	 	 	 	 	 	 	 	 	 	 	 	 	 	 	 	 	 	1581483411	11.78	21.82
12/02/2020 04:56:52	120220	12022020	045652	194.96	13.269747	-57.038995	195.04	-0.680	-1.350	3.400	194.87	-2.60	3.90	 	 	 	 	 	 	 	 	 	 	 	 	 	 	 	 	 	 	1581483412	11.45	21.21
12/02/2020 04:56:53	120220	12022020	045653	194.60	13.269700	-57.039017	194.72	-0.960	-0.410	3.420	194.55	-1.70	3.90	 	 	 	 	 	 	 	 	 	 	 	 	 	 	 	 	 	 	1581483413	10.96	20.30
12/02/2020 04:56:54	120220	12022020	045654	194.53	13.269655	-57.039037	194.69	-0.900	0.300	2.950	194.56	-1.00	3.30	 	 	 	 	 	 	 	 	 	 	 	 	 	 	 	 	 	 	1581483414	10.83	20.06
12/02/2020 04:56:55	120220	12022020	045655	194.84	13.269605	-57.039053	195.03	-0.620	0.580	2.110	194.93	-0.80	2.50	 	 	 	 	 	 	 	 	 	 	 	 	 	 	 	 	 	 	1581483415	11.08	20.52
12/02/2020 04:56:56	120220	12022020	045656	195.31	13.269555	-57.039068	195.46	-0.230	0.450	1.370	195.38	-1.00	1.80	 	 	 	 	 	 	 	 	 	 	 	 	 	 	 	 	 	 	1581483416	11.41	21.13
12/02/2020 04:56:57	120220	12022020	045657	195.61	13.269502	-57.039082	195.74	0.200	0.130	1.100	195.65	-1.30	1.60	 	 	 	 	 	 	 	 	 	 	 	 	 	 	 	 	 	 	1581483417	11.66	21.59
12/02/2020 04:56:58	120220	12022020	045658	195.82	13.269448	-57.039095	195.95	0.530	0.090	0.990	195.86	-1.30	1.50	 	 	 	 	 	 	 	 	 	 	 	 	 	 	 	 	 	 	1581483418	11.71	21.69
12/02/2020 04:56:59	120220	12022020	045659	196.04	13.269398	-57.039107	196.16	0.570	0.430	0.910	196.08	-0.90	1.40	 	 	 	 	 	 	 	 	 	 	 	 	 	 	 	 	 	 	1581483419	11.22	20.78
12/02/2020 04:57:00	120220	12022020	045700	196.15	13.269350	-57.039118	196.26	0.310	0.450	1.170	196.16	-1.00	1.70	 	 	 	 	 	 	 	 	 	 	 	 	 	 	 	 	 	 	1581483420	10.49	19.43
12/02/2020 04:57:01	120220	12022020	045701	196.03	13.269303	-57.039132	196.09	0.010	-0.310	1.810	195.95	-1.80	2.40	1016.30	26.00	26.00	21.00	21.10	-1.0	74.0	74.0	397.0	25.7	263.00	10.60	72.00	12.60	16	7477.0	27.2	27.2	1581483421	10.48	19.41
12/02/2020 04:57:02	120220	12022020	045702	195.47	13.269255	-57.039150	195.47	0.050	-1.520	2.640	195.31	-3.00	3.20	 	 	 	 	 	 	 	 	 	 	 	 	 	 	 	 	 	 	1581483422	11.23	20.80
12/02/2020 04:57:03	120220	12022020	045703	194.69	13.269203	-57.039172	194.73	0.320	-2.150	3.180	194.55	-3.50	3.70	 	 	 	 	 	 	 	 	 	 	 	 	 	 	 	 	 	 	1581483423	12.06	22.34
12/02/2020 04:57:04	120220	12022020	045704	194.18	13.269152	-57.039192	194.29	0.330	-1.560	3.250	194.14	-2.80	3.70	 	 	 	 	 	 	 	 	 	 	 	 	 	 	 	 	 	 	1581483424	11.90	22.04
12/02/2020 04:57:05	120220	12022020	045705	194.04	13.269103	-57.039208	194.17	-0.050	-0.380	2.950	194.04	-1.60	3.40	 	 	 	 	 	 	 	 	 	 	 	 	 	 	 	 	 	 	1581483425	10.88	20.15
12/02/2020 04:57:06	120220	12022020	045706	194.10	13.269058	-57.039223	194.26	-0.450	0.450	2.370	194.14	-0.90	2.80	 	 	 	 	 	 	 	 	 	 	 	 	 	 	 	 	 	 	1581483426	10.30	19.08
12/02/2020 04:57:07	120220	12022020	045707	194.55	13.269010	-57.039238	194.80	-0.530	0.730	1.610	194.72	-0.70	2.00	 	 	 	 	 	 	 	 	 	 	 	 	 	 	 	 	 	 	1581483427	10.71	19.83
12/02/2020 04:57:08	120220	12022020	045708	195.48	13.268958	-57.039250	195.74	-0.360	0.530	1.020	195.66	-0.90	1.50	 	 	 	 	 	 	 	 	 	 	 	 	 	 	 	 	 	 	1581483428	11.22	20.78
12/02/2020 04:57:09	120220	12022020	045709	196.22	13.268907	-57.039263	196.39	-0.090	-0.170	1.100	196.29	-1.70	1.70	 	 	 	 	 	 	 	 	 	 	 	 	 	 	 	 	 	 	1581483429	11.45	21.21
12/02/2020 04:57:10	120220	12022020	045710	196.28	13.268855	-57.039280	196.37	0.220	-1.000	1.700	196.23	-2.40	2.30	 	 	 	 	 	 	 	 	 	 	 	 	 	 	 	 	 	 	1581483430	11.82	21.89
12/02/2020 04:57:11	120220	12022020	045711	195.98	13.268802	-57.039298	196.09	0.310	-1.050	2.340	195.93	-2.40	2.90	 	 	 	 	 	 	 	 	 	 	 	 	 	 	 	 	 	 	1581483431	12.06	22.34
12/02/2020 04:57:12	120220	12022020	045712	195.77	13.268752	-57.039315	195.89	0.090	-0.260	2.610	195.74	-1.50	3.10	 	 	 	 	 	 	 	 	 	 	 	 	 	 	 	 	 	 	1581483432	11.36	21.04
12/02/2020 04:57:13	120220	12022020	045713	195.61	13.268707	-57.039332	195.72	-0.120	0.460	2.450	195.58	-0.90	2.90	 	 	 	 	 	 	 	 	 	 	 	 	 	 	 	 	 	 	1581483433	10.39	19.24
12/02/2020 04:57:14	120220	12022020	045714	195.48	13.268660	-57.039345	195.58	-0.030	0.370	2.030	195.45	-1.10	2.50	 	 	 	 	 	 	 	 	 	 	 	 	 	 	 	 	 	 	1581483434	10.35	19.17
12/02/2020 04:57:15	120220	12022020	045715	195.37	13.268610	-57.039358	195.47	0.290	-0.290	1.700	195.35	-1.80	2.20	 	 	 	 	 	 	 	 	 	 	 	 	 	 	 	 	 	 	1581483435	11.17	20.69
12/02/2020 04:57:16	120220	12022020	045716	195.34	13.268557	-57.039373	195.46	0.470	-0.790	1.660	195.35	-2.20	2.20	 	 	 	 	 	 	 	 	 	 	 	 	 	 	 	 	 	 	1581483436	11.84	21.93
12/02/2020 04:57:17	120220	12022020	045717	195.42	13.268503	-57.039388	195.55	0.270	-0.680	1.790	195.45	-2.00	2.30	 	 	 	 	 	 	 	 	 	 	 	 	 	 	 	 	 	 	1581483437	11.71	21.69
12/02/2020 04:57:18	120220	12022020	045718	195.54	13.268455	-57.039405	195.66	-0.110	-0.300	1.940	195.56	-1.70	2.40	 	 	 	 	 	 	 	 	 	 	 	 	 	 	 	 	 	 	1581483438	11.01	20.39
12/02/2020 04:57:19	120220	12022020	045719	195.61	13.268408	-57.039422	195.71	-0.320	-0.210	2.050	195.62	-1.60	2.50	 	 	 	 	 	 	 	 	 	 	 	 	 	 	 	 	 	 	1581483439	10.68	19.78
12/02/2020 04:57:20	120220	12022020	045720	195.67	13.268360	-57.039438	195.78	-0.240	-0.390	2.000	195.68	-1.80	2.50	 	 	 	 	 	 	 	 	 	 	 	 	 	 	 	 	 	 	1581483440	11.01	20.39
12/02/2020 04:57:21	120220	12022020	045721	195.74	13.268310	-57.039455	195.85	-0.050	-0.510	1.810	195.74	-1.90	2.30	 	 	 	 	 	 	 	 	 	 	 	 	 	 	 	 	 	 	1581483441	11.40	21.11
12/02/2020 04:57:22	120220	12022020	045722	195.76	13.268258	-57.039470	195.86	0.060	-0.520	1.570	195.74	-1.90	2.00	 	 	 	 	 	 	 	 	 	 	 	 	 	 	 	 	 	 	1581483442	11.40	21.11
12/02/2020 04:57:23	120220	12022020	045723	195.71	13.268208	-57.039485	195.81	0.030	-0.440	1.450	195.70	-1.80	1.90	 	 	 	 	 	 	 	 	 	 	 	 	 	 	 	 	 	 	1581483443	11.32	20.96
12/02/2020 04:57:24	120220	12022020	045724	195.72	13.268158	-57.039500	195.84	-0.050	-0.230	1.370	195.74	-1.60	1.80	 	 	 	 	 	 	 	 	 	 	 	 	 	 	 	 	 	 	1581483444	11.26	20.85
12/02/2020 04:57:25	120220	12022020	045725	195.81	13.268108	-57.039515	195.91	-0.000	-0.090	1.290	195.81	-1.50	1.80	 	 	 	 	 	 	 	 	 	 	 	 	 	 	 	 	 	 	1581483445	11.14	20.63
12/02/2020 04:57:26	120220	12022020	045726	195.84	13.268058	-57.039530	195.94	0.210	-0.200	1.280	195.84	-1.60	1.80	 	 	 	 	 	 	 	 	 	 	 	 	 	 	 	 	 	 	1581483446	11.18	20.71
12/02/2020 04:57:27	120220	12022020	045727	195.89	13.268007	-57.039545	195.98	0.330	-0.380	1.410	195.89	-1.80	1.90	 	 	 	 	 	 	 	 	 	 	 	 	 	 	 	 	 	 	1581483447	11.49	21.28
12/02/2020 04:57:28	120220	12022020	045728	195.81	13.267955	-57.039560	195.89	0.220	-0.450	1.750	195.77	-1.80	2.30	 	 	 	 	 	 	 	 	 	 	 	 	 	 	 	 	 	 	1581483448	11.58	21.45
12/02/2020 04:57:29	120220	12022020	045729	195.70	13.267903	-57.039577	195.81	-0.090	-0.320	2.010	195.69	-1.70	2.50	 	 	 	 	 	 	 	 	 	 	 	 	 	 	 	 	 	 	1581483449	11.48	21.26
12/02/2020 04:57:30	120220	12022020	045730	195.75	13.267853	-57.039593	195.90	-0.400	-0.050	2.090	195.79	-1.40	2.60	 	 	 	 	 	 	 	 	 	 	 	 	 	 	 	 	 	 	1581483450	11.28	20.89
12/02/2020 04:57:31	120220	12022020	045731	195.97	13.267805	-57.039610	196.13	-0.500	0.110	1.860	196.02	-1.30	2.30	 	 	 	 	 	 	 	 	 	 	 	 	 	 	 	 	 	 	1581483451	11.04	20.45
12/02/2020 04:57:32	120220	12022020	045732	196.18	13.267757	-57.039627	196.31	-0.310	-0.040	1.570	196.21	-1.50	2.00	 	 	 	 	 	 	 	 	 	 	 	 	 	 	 	 	 	 	1581483452	11.06	20.48
12/02/2020 04:57:33	120220	12022020	045733	196.23	13.267707	-57.039642	196.32	0.100	-0.420	1.400	196.21	-1.80	1.90	 	 	 	 	 	 	 	 	 	 	 	 	 	 	 	 	 	 	1581483453	11.29	20.91
12/02/2020 04:57:34	120220	12022020	045734	196.02	13.267655	-57.039658	196.08	0.540	-0.710	1.430	195.96	-2.10	1.90	 	 	 	 	 	 	 	 	 	 	 	 	 	 	 	 	 	 	1581483454	11.53	21.35
12/02/2020 04:57:35	120220	12022020	045735	195.67	13.267603	-57.039673	195.74	0.780	-0.780	1.580	195.62	-2.10	2.10	 	 	 	 	 	 	 	 	 	 	 	 	 	 	 	 	 	 	1581483455	11.53	21.35
12/02/2020 04:57:36	120220	12022020	045736	195.48	13.267552	-57.039687	195.57	0.600	-0.570	1.790	195.47	-1.90	2.30	 	 	 	 	 	 	 	 	 	 	 	 	 	 	 	 	 	 	1581483456	11.46	21.22
12/02/2020 04:57:37	120220	12022020	045737	195.51	13.267502	-57.039700	195.63	0.070	-0.230	2.040	195.54	-1.60	2.60	 	 	 	 	 	 	 	 	 	 	 	 	 	 	 	 	 	 	1581483457	11.23	20.80
12/02/2020 04:57:38	120220	12022020	045738	195.76	13.267453	-57.039717	195.92	-0.450	-0.090	2.150	195.83	-1.50	2.60	 	 	 	 	 	 	 	 	 	 	 	 	 	 	 	 	 	 	1581483458	11.09	20.54
12/02/2020 04:57:39	120220	12022020	045739	196.22	13.267403	-57.039737	196.43	-0.670	-0.100	1.920	196.35	-1.50	2.30	 	 	 	 	 	 	 	 	 	 	 	 	 	 	 	 	 	 	1581483459	11.32	20.96
12/02/2020 04:57:40	120220	12022020	045740	196.97	13.267353	-57.039757	197.20	-0.600	-0.030	1.410	197.13	-1.40	1.80	 	 	 	 	 	 	 	 	 	 	 	 	 	 	 	 	 	 	1581483460	11.48	21.26
12/02/2020 04:57:41	120220	12022020	045741	197.60	13.267305	-57.039773	197.73	-0.340	-0.070	1.030	197.67	-1.50	1.50	 	 	 	 	 	 	 	 	 	 	 	 	 	 	 	 	 	 	1581483461	11.22	20.78
12/02/2020 04:57:42	120220	12022020	045742	197.68	13.267255	-57.039788	197.74	0.130	-0.460	0.900	197.65	-1.90	1.40	 	 	 	 	 	 	 	 	 	 	 	 	 	 	 	 	 	 	1581483462	11.16	20.67
12/02/2020 04:57:43	120220	12022020	045743	197.44	13.267203	-57.039803	197.49	0.620	-0.870	0.890	197.38	-2.30	1.40	 	 	 	 	 	 	 	 	 	 	 	 	 	 	 	 	 	 	1581483463	11.61	21.50
12/02/2020 04:57:44	120220	12022020	045744	197.21	13.267150	-57.039817	197.28	0.800	-0.860	1.010	197.17	-2.20	1.50	 	 	 	 	 	 	 	 	 	 	 	 	 	 	 	 	 	 	1581483464	11.84	21.93
12/02/2020 04:57:45	120220	12022020	045745	197.02	13.267097	-57.039828	197.10	0.480	-0.490	1.210	196.99	-1.80	1.70	 	 	 	 	 	 	 	 	 	 	 	 	 	 	 	 	 	 	1581483465	11.55	21.39
12/02/2020 04:57:46	120220	12022020	045746	196.80	13.267047	-57.039842	196.89	-0.240	-0.080	1.630	196.76	-1.40	2.20	 	 	 	 	 	 	 	 	 	 	 	 	 	 	 	 	 	 	1581483466	11.22	20.78
12/02/2020 04:57:47	120220	12022020	045747	196.51	13.266997	-57.039860	196.60	-0.920	0.130	2.310	196.45	-1.20	2.90	 	 	 	 	 	 	 	 	 	 	 	 	 	 	 	 	 	 	1581483467	11.16	20.67
12/02/2020 04:57:48	120220	12022020	045748	196.26	13.266950	-57.039883	196.36	-1.080	0.140	2.670	196.24	-1.20	3.20	 	 	 	 	 	 	 	 	 	 	 	 	 	 	 	 	 	 	1581483468	11.48	21.26
12/02/2020 04:57:49	120220	12022020	045749	196.22	13.266900	-57.039908	196.36	-0.610	0.130	2.400	196.24	-1.20	2.80	 	 	 	 	 	 	 	 	 	 	 	 	 	 	 	 	 	 	1581483469	11.74	21.74
12/02/2020 04:57:50	120220	12022020	045750	196.44	13.266852	-57.039930	196.61	0.160	0.130	1.610	196.52	-1.20	2.00	 	 	 	 	 	 	 	 	 	 	 	 	 	 	 	 	 	 	1581483470	11.58	21.45
12/02/2020 04:57:51	120220	12022020	045751	196.90	13.266800	-57.039945	197.09	0.700	-0.080	0.830	197.02	-1.50	1.30	 	 	 	 	 	 	 	 	 	 	 	 	 	 	 	 	 	 	1581483471	11.30	20.93
12/02/2020 04:57:52	120220	12022020	045752	197.43	13.266750	-57.039958	197.59	0.810	-0.590	0.630	197.51	-2.00	1.10	 	 	 	 	 	 	 	 	 	 	 	 	 	 	 	 	 	 	1581483472	11.31	20.95
12/02/2020 04:57:53	120220	12022020	045753	197.65	13.266698	-57.039973	197.72	0.650	-1.110	1.020	197.62	-2.50	1.60	 	 	 	 	 	 	 	 	 	 	 	 	 	 	 	 	 	 	1581483473	11.45	21.21
12/02/2020 04:57:54	120220	12022020	045754	197.41	13.266647	-57.039990	197.47	0.370	-1.310	1.720	197.34	-2.70	2.30	 	 	 	 	 	 	 	 	 	 	 	 	 	 	 	 	 	 	1581483474	11.51	21.32
12/02/2020 04:57:55	120220	12022020	045755	197.09	13.266597	-57.040007	197.17	-0.060	-1.000	2.320	197.03	-2.30	2.90	 	 	 	 	 	 	 	 	 	 	 	 	 	 	 	 	 	 	1581483475	11.45	21.21
12/02/2020 04:57:56	120220	12022020	045756	196.84	13.266548	-57.040025	196.94	-0.520	-0.410	2.580	196.81	-1.70	3.10	 	 	 	 	 	 	 	 	 	 	 	 	 	 	 	 	 	 	1581483476	11.17	20.69
12/02/2020 04:57:57	120220	12022020	045757	196.84	13.266500	-57.040045	197.00	-0.850	0.170	2.410	196.88	-1.10	2.90	 	 	 	 	 	 	 	 	 	 	 	 	 	 	 	 	 	 	1581483477	11.10	20.56
12/02/2020 04:57:58	120220	12022020	045758	197.08	13.266452	-57.040063	197.24	-0.790	0.560	2.000	197.13	-0.80	2.40	 	 	 	 	 	 	 	 	 	 	 	 	 	 	 	 	 	 	1581483478	11.17	20.69
12/02/2020 04:57:59	120220	12022020	045759	197.26	13.266402	-57.040082	197.37	-0.230	0.460	1.570	197.27	-1.00	2.00	 	 	 	 	 	 	 	 	 	 	 	 	 	 	 	 	 	 	1581483479	11.26	20.85
12/02/2020 04:58:00	120220	12022020	045800	197.21	13.266350	-57.040098	197.30	0.560	-0.090	1.330	197.18	-1.50	1.80	 	 	 	 	 	 	 	 	 	 	 	 	 	 	 	 	 	 	1581483480	11.64	21.56
12/02/2020 04:58:01	120220	12022020	045801	197.12	13.266297	-57.040113	197.24	0.970	-0.420	1.410	197.12	-1.80	1.90	1016.20	26.00	26.10	20.80	20.90	-1.0	73.0	73.0	395.0	25.7	261.00	10.20	70.00	12.50	16	8322.0	27.2	27.2	1581483481	12.09	22.39
12/02/2020 04:58:02	120220	12022020	045802	197.19	13.266243	-57.040128	197.32	0.640	-0.200	1.730	197.22	-1.50	2.30	 	 	 	 	 	 	 	 	 	 	 	 	 	 	 	 	 	 	1581483482	11.77	21.80
12/02/2020 04:58:03	120220	12022020	045803	197.26	13.266195	-57.040145	197.34	-0.080	0.010	2.150	197.23	-1.40	2.70	 	 	 	 	 	 	 	 	 	 	 	 	 	 	 	 	 	 	1581483483	10.88	20.15
12/02/2020 04:58:04	120220	12022020	045804	196.98	13.266150	-57.040165	197.00	-0.450	-0.530	2.630	196.88	-2.00	3.20	 	 	 	 	 	 	 	 	 	 	 	 	 	 	 	 	 	 	1581483484	10.65	19.72
12/02/2020 04:58:05	120220	12022020	045805	196.50	13.266102	-57.040188	196.55	-0.220	-1.270	2.880	196.43	-2.70	3.40	 	 	 	 	 	 	 	 	 	 	 	 	 	 	 	 	 	 	1581483485	11.62	21.52
12/02/2020 04:58:06	120220	12022020	045806	196.38	13.266048	-57.040212	196.52	0.190	-1.140	2.420	196.42	-2.40	2.80	 	 	 	 	 	 	 	 	 	 	 	 	 	 	 	 	 	 	1581483486	12.20	22.59
12/02/2020 04:58:07	120220	12022020	045807	196.63	13.266000	-57.040230	196.76	0.340	-0.270	1.600	196.69	-1.60	2.00	 	 	 	 	 	 	 	 	 	 	 	 	 	 	 	 	 	 	1581483487	11.35	21.02
12/02/2020 04:58:08	120220	12022020	045808	196.84	13.265953	-57.040242	196.95	0.190	0.210	1.090	196.87	-1.20	1.60	 	 	 	 	 	 	 	 	 	 	 	 	 	 	 	 	 	 	1581483488	10.45	19.35
12/02/2020 04:58:09	120220	12022020	045809	197.00	13.265903	-57.040255	197.13	-0.120	0.030	1.080	197.04	-1.40	1.60	 	 	 	 	 	 	 	 	 	 	 	 	 	 	 	 	 	 	1581483489	10.83	20.06
12/02/2020 04:58:10	120220	12022020	045810	197.19	13.265852	-57.040270	197.32	-0.350	-0.290	1.240	197.23	-1.70	1.80	 	 	 	 	 	 	 	 	 	 	 	 	 	 	 	 	 	 	1581483490	11.57	21.43
12/02/2020 04:58:11	120220	12022020	045811	197.33	13.265800	-57.040288	197.44	-0.310	-0.470	1.410	197.33	-1.90	1.90	 	 	 	 	 	 	 	 	 	 	 	 	 	 	 	 	 	 	1581483491	11.76	21.78
12/02/2020 04:58:12	120220	12022020	045812	197.24	13.265748	-57.040307	197.33	-0.040	-0.610	1.690	197.21	-2.00	2.20	 	 	 	 	 	 	 	 	 	 	 	 	 	 	 	 	 	 	1581483492	11.63	21.54
12/02/2020 04:58:13	120220	12022020	045813	197.07	13.265698	-57.040323	197.17	0.120	-0.470	2.000	197.05	-1.80	2.50	 	 	 	 	 	 	 	 	 	 	 	 	 	 	 	 	 	 	1581483493	11.69	21.65
12/02/2020 04:58:14	120220	12022020	045814	196.96	13.265647	-57.040342	197.05	-0.030	0.040	2.070	196.93	-1.30	2.50	 	 	 	 	 	 	 	 	 	 	 	 	 	 	 	 	 	 	1581483494	11.43	21.17
12/02/2020 04:58:15	120220	12022020	045815	196.77	13.265600	-57.040358	196.82	-0.210	0.310	1.970	196.70	-1.10	2.40	 	 	 	 	 	 	 	 	 	 	 	 	 	 	 	 	 	 	1581483495	10.86	20.11
12/02/2020 04:58:16	120220	12022020	045816	196.38	13.265552	-57.040375	196.40	-0.030	-0.100	1.880	196.29	-1.60	2.40	 	 	 	 	 	 	 	 	 	 	 	 	 	 	 	 	 	 	1581483496	10.94	20.26
12/02/2020 04:58:17	120220	12022020	045817	195.91	13.265500	-57.040393	195.94	0.470	-0.760	1.880	195.82	-2.20	2.40	 	 	 	 	 	 	 	 	 	 	 	 	 	 	 	 	 	 	1581483497	11.68	21.63
12/02/2020 04:58:18	120220	12022020	045818	195.50	13.265447	-57.040410	195.56	0.740	-0.940	2.090	195.44	-2.30	2.60	 	 	 	 	 	 	 	 	 	 	 	 	 	 	 	 	 	 	1581483498	12.08	22.37
12/02/2020 04:58:19	120220	12022020	045819	195.40	13.265395	-57.040427	195.54	0.400	-0.400	2.300	195.44	-1.70	2.80	 	 	 	 	 	 	 	 	 	 	 	 	 	 	 	 	 	 	1581483499	11.71	21.69
12/02/2020 04:58:20	120220	12022020	045820	195.68	13.265347	-57.040445	195.85	-0.310	0.280	2.350	195.75	-1.10	2.80	 	 	 	 	 	 	 	 	 	 	 	 	 	 	 	 	 	 	1581483500	10.90	20.19
12/02/2020 04:58:21	120220	12022020	045821	196.06	13.265302	-57.040463	196.24	-0.760	0.340	2.330	196.15	-1.10	2.80	 	 	 	 	 	 	 	 	 	 	 	 	 	 	 	 	 	 	1581483501	10.58	19.59
12/02/2020 04:58:22	120220	12022020	045822	196.56	13.265253	-57.040483	196.79	-0.640	-0.040	2.080	196.70	-1.50	2.50	 	 	 	 	 	 	 	 	 	 	 	 	 	 	 	 	 	 	1581483502	11.20	20.74
12/02/2020 04:58:23	120220	12022020	045823	197.32	13.265203	-57.040503	197.55	-0.190	-0.230	1.510	197.49	-1.60	1.90	 	 	 	 	 	 	 	 	 	 	 	 	 	 	 	 	 	 	1581483503	11.64	21.56
12/02/2020 04:58:24	120220	12022020	045824	197.97	13.265152	-57.040520	198.12	0.230	-0.380	1.030	198.03	-1.80	1.50	 	 	 	 	 	 	 	 	 	 	 	 	 	 	 	 	 	 	1581483504	11.27	20.87
12/02/2020 04:58:25	120220	12022020	045825	197.98	13.265103	-57.040533	198.02	0.610	-0.950	1.020	197.91	-2.40	1.60	 	 	 	 	 	 	 	 	 	 	 	 	 	 	 	 	 	 	1581483505	11.10	20.56
12/02/2020 04:58:26	120220	12022020	045826	197.46	13.265050	-57.040547	197.47	0.850	-1.500	1.460	197.33	-2.90	2.00	 	 	 	 	 	 	 	 	 	 	 	 	 	 	 	 	 	 	1581483506	11.68	21.63
12/02/2020 04:58:27	120220	12022020	045827	196.92	13.264997	-57.040562	196.96	0.690	-1.140	1.790	196.84	-2.40	2.30	 	 	 	 	 	 	 	 	 	 	 	 	 	 	 	 	 	 	1581483507	12.06	22.34
12/02/2020 04:58:28	120220	12022020	045828	196.59	13.264945	-57.040577	196.67	0.030	-0.240	2.120	196.54	-1.50	2.70	 	 	 	 	 	 	 	 	 	 	 	 	 	 	 	 	 	 	1581483508	11.39	21.09
12/02/2020 04:58:29	120220	12022020	045829	196.39	13.264897	-57.040593	196.50	-0.770	0.350	2.510	196.38	-1.00	3.00	 	 	 	 	 	 	 	 	 	 	 	 	 	 	 	 	 	 	1581483509	10.84	20.08
12/02/2020 04:58:30	120220	12022020	045830	196.39	13.264850	-57.040615	196.54	-1.180	0.550	2.590	196.42	-0.80	3.10	 	 	 	 	 	 	 	 	 	 	 	 	 	 	 	 	 	 	1581483510	11.24	20.82
12/02/2020 04:58:31	120220	12022020	045831	196.56	13.264802	-57.040638	196.71	-0.920	0.560	2.320	196.60	-0.80	2.80	 	 	 	 	 	 	 	 	 	 	 	 	 	 	 	 	 	 	1581483511	11.61	21.50
12/02/2020 04:58:32	120220	12022020	045832	196.68	13.264752	-57.040660	196.79	-0.130	0.220	1.890	196.68	-1.20	2.30	 	 	 	 	 	 	 	 	 	 	 	 	 	 	 	 	 	 	1581483512	11.54	21.37
12/02/2020 04:58:33	120220	12022020	045833	196.70	13.264700	-57.040677	196.80	0.620	-0.420	1.460	196.70	-1.90	1.90	 	 	 	 	 	 	 	 	 	 	 	 	 	 	 	 	 	 	1581483513	11.70	21.67
12/02/2020 04:58:34	120220	12022020	045834	196.68	13.264647	-57.040692	196.77	0.870	-0.930	1.330	196.66	-2.30	1.80	 	 	 	 	 	 	 	 	 	 	 	 	 	 	 	 	 	 	1581483514	11.97	22.17
12/02/2020 04:58:35	120220	12022020	045835	196.53	13.264593	-57.040707	196.61	0.580	-0.970	1.640	196.49	-2.30	2.20	 	 	 	 	 	 	 	 	 	 	 	 	 	 	 	 	 	 	1581483515	11.80	21.85
12/02/2020 04:58:36	120220	12022020	045836	196.43	13.264543	-57.040723	196.57	-0.010	-0.440	2.020	196.45	-1.70	2.50	 	 	 	 	 	 	 	 	 	 	 	 	 	 	 	 	 	 	1581483516	11.34	21.00
12/02/2020 04:58:37	120220	12022020	045837	196.62	13.264497	-57.040742	196.77	-0.580	0.260	2.280	196.66	-1.00	2.80	 	 	 	 	 	 	 	 	 	 	 	 	 	 	 	 	 	 	1581483517	10.79	19.98
12/02/2020 04:58:38	120220	12022020	045838	196.76	13.264452	-57.040762	196.85	-0.690	0.280	2.270	196.74	-1.20	2.70	 	 	 	 	 	 	 	 	 	 	 	 	 	 	 	 	 	 	1581483518	10.54	19.52
12/02/2020 04:58:39	120220	12022020	045839	196.62	13.264403	-57.040782	196.69	-0.130	-0.440	1.970	196.59	-1.90	2.40	 	 	 	 	 	 	 	 	 	 	 	 	 	 	 	 	 	 	1581483519	11.23	20.80
12/02/2020 04:58:40	120220	12022020	045840	196.59	13.264350	-57.040802	196.69	0.590	-0.800	1.390	196.61	-2.20	1.80	 	 	 	 	 	 	 	 	 	 	 	 	 	 	 	 	 	 	1581483520	12.17	22.54
12/02/2020 04:58:41	120220	12022020	045841	196.72	13.264295	-57.040815	196.81	0.810	-0.540	0.930	196.72	-1.90	1.40	 	 	 	 	 	 	 	 	 	 	 	 	 	 	 	 	 	 	1581483521	11.93	22.09
12/02/2020 04:58:42	120220	12022020	045842	196.61	13.264245	-57.040825	196.65	0.430	-0.400	1.150	196.54	-1.80	1.70	 	 	 	 	 	 	 	 	 	 	 	 	 	 	 	 	 	 	1581483522	11.16	20.67
12/02/2020 04:58:43	120220	12022020	045843	196.22	13.264195	-57.040840	196.27	-0.160	-0.520	1.940	196.13	-1.90	2.50	 	 	 	 	 	 	 	 	 	 	 	 	 	 	 	 	 	 	1581483523	11.21	20.76
12/02/2020 04:58:44	120220	12022020	045844	195.83	13.264143	-57.040858	195.89	-0.520	-0.540	2.520	195.77	-1.90	3.00	 	 	 	 	 	 	 	 	 	 	 	 	 	 	 	 	 	 	1581483524	11.66	21.59
12/02/2020 04:58:45	120220	12022020	045845	195.58	13.264093	-57.040880	195.67	-0.490	-0.460	2.600	195.55	-1.80	3.10	 	 	 	 	 	 	 	 	 	 	 	 	 	 	 	 	 	 	1581483525	11.73	21.72
12/02/2020 04:58:46	120220	12022020	045846	195.52	13.264042	-57.040900	195.64	-0.240	-0.340	2.430	195.54	-1.70	2.90	 	 	 	 	 	 	 	 	 	 	 	 	 	 	 	 	 	 	1581483526	11.69	21.65
12/02/2020 04:58:47	120220	12022020	045847	195.68	13.263992	-57.040918	195.83	-0.080	-0.160	2.170	195.73	-1.50	2.60	 	 	 	 	 	 	 	 	 	 	 	 	 	 	 	 	 	 	1581483527	11.70	21.67
12/02/2020 04:58:48	120220	12022020	045848	195.93	13.263940	-57.040935	196.05	-0.130	0.060	1.910	195.97	-1.30	2.40	 	 	 	 	 	 	 	 	 	 	 	 	 	 	 	 	 	 	1581483528	11.53	21.35
12/02/2020 04:58:49	120220	12022020	045849	196.12	13.263890	-57.040952	196.24	-0.260	0.180	1.820	196.15	-1.20	2.30	 	 	 	 	 	 	 	 	 	 	 	 	 	 	 	 	 	 	1581483529	11.31	20.95
12/02/2020 04:58:50	120220	12022020	045850	196.24	13.263840	-57.040968	196.35	-0.290	0.110	1.820	196.24	-1.30	2.30	 	 	 	 	 	 	 	 	 	 	 	 	 	 	 	 	 	 	1581483530	11.25	20.84
12/02/2020 04:58:51	120220	12022020	045851	196.20	13.263790	-57.040987	196.26	-0.060	-0.190	1.910	196.16	-1.60	2.40	 	 	 	 	 	 	 	 	 	 	 	 	 	 	 	 	 	 	1581483531	11.30	20.93
12/02/2020 04:58:52	120220	12022020	045852	195.98	13.263740	-57.041003	196.04	0.340	-0.620	2.040	195.94	-2.00	2.50	 	 	 	 	 	 	 	 	 	 	 	 	 	 	 	 	 	 	1581483532	11.53	21.35
12/02/2020 04:58:53	120220	12022020	045853	195.84	13.263688	-57.041022	195.93	0.670	-0.710	2.030	195.83	-2.10	2.50	 	 	 	 	 	 	 	 	 	 	 	 	 	 	 	 	 	 	1581483533	11.78	21.82
12/02/2020 04:58:54	120220	12022020	045854	195.79	13.263637	-57.041037	195.90	0.740	-0.380	1.830	195.79	-1.70	2.30	 	 	 	 	 	 	 	 	 	 	 	 	 	 	 	 	 	 	1581483534	11.51	21.32
12/02/2020 04:58:55	120220	12022020	045855	195.88	13.263587	-57.041050	196.01	0.510	0.080	1.550	195.93	-1.30	2.00	 	 	 	 	 	 	 	 	 	 	 	 	 	 	 	 	 	 	1581483535	11.06	20.48
12/02/2020 04:58:56	120220	12022020	045856	196.20	13.263538	-57.041062	196.37	0.110	0.280	1.360	196.28	-1.10	1.90	 	 	 	 	 	 	 	 	 	 	 	 	 	 	 	 	 	 	1581483536	10.88	20.15
12/02/2020 04:58:57	120220	12022020	045857	196.56	13.263488	-57.041077	196.70	-0.260	-0.080	1.570	196.60	-1.50	2.10	 	 	 	 	 	 	 	 	 	 	 	 	 	 	 	 	 	 	1581483537	11.01	20.39
12/02/2020 04:58:58	120220	12022020	045858	196.56	13.263438	-57.041093	196.63	-0.350	-0.990	2.260	196.49	-2.50	2.90	 	 	 	 	 	 	 	 	 	 	 	 	 	 	 	 	 	 	1581483538	11.45	21.21
12/02/2020 04:58:59	120220	12022020	045859	196.00	13.263385	-57.041115	196.01	-0.100	-1.840	2.890	195.84	-3.20	3.40	 	 	 	 	 	 	 	 	 	 	 	 	 	 	 	 	 	 	1581483539	12.18	22.56
12/02/2020 04:59:00	120220	12022020	045900	195.33	13.263332	-57.041138	195.42	0.060	-1.610	3.020	195.26	-2.80	3.50	 	 	 	 	 	 	 	 	 	 	 	 	 	 	 	 	 	 	1581483540	12.53	23.21
12/02/2020 04:59:01	120220	12022020	045901	195.21	13.263280	-57.041157	195.37	-0.200	-0.340	2.680	195.24	-1.50	3.10	1016.30	26.10	26.10	20.90	21.00	-1.0	73.0	73.0	395.0	25.7	265.00	9.50	71.00	11.60	16	8284.0	27.2	27.2	1581483541	11.67	21.61
12/02/2020 04:59:02	120220	12022020	045902	195.38	13.263233	-57.041172	195.52	-0.650	0.640	2.290	195.39	-0.70	2.80	 	 	 	 	 	 	 	 	 	 	 	 	 	 	 	 	 	 	1581483542	10.47	19.39
12/02/2020 04:59:03	120220	12022020	045903	195.26	13.263187	-57.041187	195.32	-0.640	0.380	2.210	195.19	-1.10	2.70	 	 	 	 	 	 	 	 	 	 	 	 	 	 	 	 	 	 	1581483543	10.58	19.59
12/02/2020 04:59:04	120220	12022020	045904	194.82	13.263135	-57.041207	194.90	0.020	-0.450	2.290	194.75	-1.90	2.80	 	 	 	 	 	 	 	 	 	 	 	 	 	 	 	 	 	 	1581483544	11.95	22.13
12/02/2020 04:59:05	120220	12022020	045905	194.70	13.263078	-57.041225	194.87	0.600	-0.300	2.070	194.76	-1.60	2.50	 	 	 	 	 	 	 	 	 	 	 	 	 	 	 	 	 	 	1581483545	12.84	23.78
12/02/2020 04:59:06	120220	12022020	045906	195.21	13.263025	-57.041238	195.46	0.470	0.710	1.540	195.37	-0.50	2.00	 	 	 	 	 	 	 	 	 	 	 	 	 	 	 	 	 	 	1581483546	11.78	21.82
12/02/2020 04:59:07	120220	12022020	045907	195.96	13.262978	-57.041248	196.20	-0.120	1.100	1.270	196.10	-0.30	1.80	 	 	 	 	 	 	 	 	 	 	 	 	 	 	 	 	 	 	1581483547	10.38	19.22
12/02/2020 04:59:08	120220	12022020	045908	196.43	13.262930	-57.041263	196.58	-0.340	0.190	1.590	196.47	-1.40	2.10	 	 	 	 	 	 	 	 	 	 	 	 	 	 	 	 	 	 	1581483548	10.51	19.46
12/02/2020 04:59:09	120220	12022020	045909	196.54	13.262880	-57.041282	196.65	0.180	-1.120	1.900	196.53	-2.60	2.40	 	 	 	 	 	 	 	 	 	 	 	 	 	 	 	 	 	 	1581483549	11.77	21.80
12/02/2020 04:59:10	120220	12022020	045910	196.52	13.262825	-57.041302	196.64	0.810	-1.650	1.990	196.52	-3.00	2.50	 	 	 	 	 	 	 	 	 	 	 	 	 	 	 	 	 	 	1581483550	12.41	22.98
12/02/2020 04:59:11	120220	12022020	045911	196.45	13.262773	-57.041317	196.56	0.720	-1.260	2.200	196.42	-2.50	2.70	 	 	 	 	 	 	 	 	 	 	 	 	 	 	 	 	 	 	1581483551	11.72	21.71
12/02/2020 04:59:12	120220	12022020	045912	196.19	13.262725	-57.041332	196.24	-0.120	-0.620	2.700	196.10	-1.90	3.30	 	 	 	 	 	 	 	 	 	 	 	 	 	 	 	 	 	 	1581483552	10.77	19.95
12/02/2020 04:59:13	120220	12022020	045913	195.58	13.262680	-57.041352	195.58	-0.940	-0.440	3.350	195.42	-1.80	3.90	 	 	 	 	 	 	 	 	 	 	 	 	 	 	 	 	 	 	1581483553	10.58	19.59
12/02/2020 04:59:14	120220	12022020	045914	194.76	13.262632	-57.041375	194.78	-0.990	-0.700	3.780	194.61	-2.10	4.30	 	 	 	 	 	 	 	 	 	 	 	 	 	 	 	 	 	 	1581483554	11.42	21.15
12/02/2020 04:59:15	120220	12022020	045915	194.09	13.262580	-57.041400	194.16	-0.240	-0.790	3.750	194.00	-2.10	4.20	 	 	 	 	 	 	 	 	 	 	 	 	 	 	 	 	 	 	1581483555	12.21	22.61
12/02/2020 04:59:16	120220	12022020	045916	193.81	13.262528	-57.041422	193.96	0.650	-0.340	3.000	193.82	-1.60	3.40	 	 	 	 	 	 	 	 	 	 	 	 	 	 	 	 	 	 	1581483556	12.20	22.59
12/02/2020 04:59:17	120220	12022020	045917	194.15	13.262475	-57.041435	194.40	0.850	0.490	1.940	194.30	-0.80	2.30	 	 	 	 	 	 	 	 	 	 	 	 	 	 	 	 	 	 	1581483557	11.63	21.54
12/02/2020 04:59:18	120220	12022020	045918	195.01	13.262425	-57.041442	195.30	0.240	1.050	1.470	195.20	-0.30	2.00	 	 	 	 	 	 	 	 	 	 	 	 	 	 	 	 	 	 	1581483558	11.04	20.45
12/02/2020 04:59:19	120220	12022020	045919	195.76	13.262375	-57.041452	195.96	-0.570	0.760	1.880	195.83	-0.70	2.50	 	 	 	 	 	 	 	 	 	 	 	 	 	 	 	 	 	 	1581483559	10.74	19.89
12/02/2020 04:59:20	120220	12022020	045920	195.94	13.262325	-57.041468	196.07	-0.790	-0.230	2.600	195.92	-1.70	3.20	 	 	 	 	 	 	 	 	 	 	 	 	 	 	 	 	 	 	1581483560	11.24	20.82
12/02/2020 04:59:21	120220	12022020	045921	195.76	13.262275	-57.041490	195.86	-0.280	-1.130	3.000	195.71	-2.50	3.50	 	 	 	 	 	 	 	 	 	 	 	 	 	 	 	 	 	 	1581483561	12.02	22.26
12/02/2020 04:59:22	120220	12022020	045922	195.53	13.262222	-57.041512	195.64	0.340	-1.270	2.870	195.49	-2.60	3.30	 	 	 	 	 	 	 	 	 	 	 	 	 	 	 	 	 	 	1581483562	12.03	22.28
12/02/2020 04:59:23	120220	12022020	045923	195.23	13.262172	-57.041527	195.30	0.530	-0.960	2.610	195.14	-2.30	3.10	 	 	 	 	 	 	 	 	 	 	 	 	 	 	 	 	 	 	1581483563	11.31	20.95
12/02/2020 04:59:24	120220	12022020	045924	194.64	13.262123	-57.041540	194.65	0.320	-0.790	2.520	194.49	-2.10	3.00	 	 	 	 	 	 	 	 	 	 	 	 	 	 	 	 	 	 	1581483564	10.86	20.11
12/02/2020 04:59:25	120220	12022020	045925	193.92	13.262073	-57.041555	193.94	0.030	-0.610	2.580	193.79	-1.90	3.10	 	 	 	 	 	 	 	 	 	 	 	 	 	 	 	 	 	 	1581483565	11.20	20.74
12/02/2020 04:59:26	120220	12022020	045926	193.50	13.262022	-57.041572	193.62	-0.130	-0.020	2.490	193.48	-1.30	3.00	 	 	 	 	 	 	 	 	 	 	 	 	 	 	 	 	 	 	1581483566	11.47	21.24
12/02/2020 04:59:27	120220	12022020	045927	193.55	13.261973	-57.041588	193.73	-0.150	0.560	2.160	193.60	-0.80	2.60	 	 	 	 	 	 	 	 	 	 	 	 	 	 	 	 	 	 	1581483567	11.03	20.43
12/02/2020 04:59:28	120220	12022020	045928	193.89	13.261925	-57.041602	194.10	-0.090	0.470	1.900	193.97	-0.90	2.40	 	 	 	 	 	 	 	 	 	 	 	 	 	 	 	 	 	 	1581483568	10.83	20.06
12/02/2020 04:59:29	120220	12022020	045929	194.26	13.261873	-57.041617	194.45	0.020	-0.220	1.990	194.32	-1.70	2.50	 	 	 	 	 	 	 	 	 	 	 	 	 	 	 	 	 	 	1581483569	11.34	21.00
12/02/2020 04:59:30	120220	12022020	045930	194.48	13.261822	-57.041633	194.65	0.170	-0.940	2.330	194.50	-2.30	2.90	 	 	 	 	 	 	 	 	 	 	 	 	 	 	 	 	 	 	1581483570	11.93	22.09
12/02/2020 04:59:31	120220	12022020	045931	194.55	13.261768	-57.041650	194.73	0.290	-1.070	2.570	194.57	-2.40	3.10	 	 	 	 	 	 	 	 	 	 	 	 	 	 	 	 	 	 	1581483571	12.02	22.26
12/02/2020 04:59:32	120220	12022020	045932	194.69	13.261717	-57.041665	194.91	0.180	-0.510	2.550	194.75	-1.80	3.00	 	 	 	 	 	 	 	 	 	 	 	 	 	 	 	 	 	 	1581483572	11.52	21.34
12/02/2020 04:59:33	120220	12022020	045933	195.03	13.261667	-57.041678	195.26	-0.200	0.080	2.400	195.09	-1.20	2.90	 	 	 	 	 	 	 	 	 	 	 	 	 	 	 	 	 	 	1581483573	10.83	20.06
12/02/2020 04:59:34	120220	12022020	045934	195.16	13.261620	-57.041690	195.30	-0.510	0.050	2.390	195.12	-1.40	2.90	 	 	 	 	 	 	 	 	 	 	 	 	 	 	 	 	 	 	1581483574	10.65	19.72
12/02/2020 04:59:35	120220	12022020	045935	194.85	13.261570	-57.041707	194.96	-0.410	-0.450	2.630	194.77	-1.80	3.20	 	 	 	 	 	 	 	 	 	 	 	 	 	 	 	 	 	 	1581483575	11.32	20.96
12/02/2020 04:59:36	120220	12022020	045936	194.61	13.261517	-57.041725	194.77	-0.080	-0.550	2.520	194.60	-1.90	3.00	 	 	 	 	 	 	 	 	 	 	 	 	 	 	 	 	 	 	1581483576	12.01	22.24
12/02/2020 04:59:37	120220	12022020	045937	194.66	13.261465	-57.041740	194.84	0.070	-0.160	2.110	194.69	-1.50	2.60	 	 	 	 	 	 	 	 	 	 	 	 	 	 	 	 	 	 	1581483577	11.69	21.65
12/02/2020 04:59:38	120220	12022020	045938	194.85	13.261415	-57.041755	195.04	0.040	0.130	1.720	194.88	-1.20	2.20	 	 	 	 	 	 	 	 	 	 	 	 	 	 	 	 	 	 	1581483578	11.01	20.39
12/02/2020 04:59:39	120220	12022020	045939	194.99	13.261367	-57.041768	195.15	0.120	-0.000	1.400	195.00	-1.40	1.90	 	 	 	 	 	 	 	 	 	 	 	 	 	 	 	 	 	 	1581483579	10.92	20.22
12/02/2020 04:59:40	120220	12022020	045940	194.96	13.261315	-57.041783	195.09	0.410	-0.470	1.370	194.95	-1.90	1.90	 	 	 	 	 	 	 	 	 	 	 	 	 	 	 	 	 	 	1581483580	11.29	20.91
12/02/2020 04:59:41	120220	12022020	045941	194.87	13.261263	-57.041797	195.01	0.530	-0.850	1.650	194.86	-2.20	2.20	 	 	 	 	 	 	 	 	 	 	 	 	 	 	 	 	 	 	1581483581	11.69	21.65
12/02/2020 04:59:42	120220	12022020	045942	194.84	13.261210	-57.041810	194.98	0.150	-0.790	1.960	194.82	-2.10	2.50	 	 	 	 	 	 	 	 	 	 	 	 	 	 	 	 	 	 	1581483582	11.73	21.72
12/02/2020 04:59:43	120220	12022020	045943	194.72	13.261160	-57.041827	194.84	-0.450	-0.430	2.310	194.68	-1.70	2.90	 	 	 	 	 	 	 	 	 	 	 	 	 	 	 	 	 	 	1581483583	11.30	20.93
12/02/2020 04:59:44	120220	12022020	045944	194.58	13.261112	-57.041845	194.72	-0.740	-0.160	2.470	194.58	-1.50	3.00	 	 	 	 	 	 	 	 	 	 	 	 	 	 	 	 	 	 	1581483584	11.02	20.41
12/02/2020 04:59:45	120220	12022020	045945	194.64	13.261063	-57.041863	194.80	-0.530	-0.080	2.220	194.66	-1.40	2.70	 	 	 	 	 	 	 	 	 	 	 	 	 	 	 	 	 	 	1581483585	11.21	20.76
12/02/2020 04:59:46	120220	12022020	045946	194.66	13.261012	-57.041878	194.79	-0.040	-0.290	2.090	194.64	-1.70	2.60	 	 	 	 	 	 	 	 	 	 	 	 	 	 	 	 	 	 	1581483586	11.41	21.13
12/02/2020 04:59:47	120220	12022020	045947	194.53	13.260960	-57.041893	194.66	0.390	-0.570	1.990	194.51	-1.90	2.50	 	 	 	 	 	 	 	 	 	 	 	 	 	 	 	 	 	 	1581483587	11.75	21.76
12/02/2020 04:59:48	120220	12022020	045948	194.53	13.260905	-57.041908	194.72	0.430	-0.420	2.010	194.56	-1.70	2.50	 	 	 	 	 	 	 	 	 	 	 	 	 	 	 	 	 	 	1581483588	11.95	22.13
12/02/2020 04:59:49	120220	12022020	045949	194.76	13.260853	-57.041922	194.97	0.070	0.040	2.150	194.82	-1.30	2.70	 	 	 	 	 	 	 	 	 	 	 	 	 	 	 	 	 	 	1581483589	11.43	21.17
12/02/2020 04:59:50	120220	12022020	045950	195.03	13.260805	-57.041937	195.23	-0.320	0.210	2.310	195.08	-1.20	2.80	 	 	 	 	 	 	 	 	 	 	 	 	 	 	 	 	 	 	1581483590	10.91	20.21
12/02/2020 04:59:51	120220	12022020	045951	195.28	13.260757	-57.041953	195.48	-0.400	-0.000	2.460	195.32	-1.40	3.00	 	 	 	 	 	 	 	 	 	 	 	 	 	 	 	 	 	 	1581483591	11.06	20.48
12/02/2020 04:59:52	120220	12022020	045952	195.48	13.260707	-57.041972	195.66	-0.170	-0.280	2.490	195.50	-1.70	3.00	 	 	 	 	 	 	 	 	 	 	 	 	 	 	 	 	 	 	1581483592	11.44	21.19
12/02/2020 04:59:53	120220	12022020	045953	195.40	13.260657	-57.041990	195.51	0.170	-0.640	2.420	195.34	-2.00	2.90	 	 	 	 	 	 	 	 	 	 	 	 	 	 	 	 	 	 	1581483593	11.46	21.22
12/02/2020 04:59:54	120220	12022020	045954	195.05	13.260605	-57.042005	195.15	0.400	-0.910	2.170	194.99	-2.30	2.60	 	 	 	 	 	 	 	 	 	 	 	 	 	 	 	 	 	 	1581483594	11.61	21.50
12/02/2020 04:59:55	120220	12022020	045955	194.80	13.260552	-57.042020	194.93	0.370	-0.620	1.760	194.77	-1.90	2.20	 	 	 	 	 	 	 	 	 	 	 	 	 	 	 	 	 	 	1581483595	11.69	21.65
12/02/2020 04:59:56	120220	12022020	045956	194.78	13.260502	-57.042032	194.95	0.110	0.060	1.330	194.81	-1.20	1.80	 	 	 	 	 	 	 	 	 	 	 	 	 	 	 	 	 	 	1581483596	11.21	20.76
12/02/2020 04:59:57	120220	12022020	045957	195.01	13.260453	-57.042042	195.20	-0.150	0.290	1.100	195.06	-1.10	1.60	 	 	 	 	 	 	 	 	 	 	 	 	 	 	 	 	 	 	1581483597	10.68	19.78
12/02/2020 04:59:58	120220	12022020	045958	195.20	13.260403	-57.042053	195.36	-0.170	-0.310	1.270	195.21	-1.80	1.80	 	 	 	 	 	 	 	 	 	 	 	 	 	 	 	 	 	 	1581483598	11.02	20.41
12/02/2020 04:59:59	120220	12022020	045959	195.21	13.260350	-57.042070	195.36	0.040	-1.070	1.690	195.22	-2.50	2.30	 	 	 	 	 	 	 	 	 	 	 	 	 	 	 	 	 	 	1581483599	11.95	22.13
12/02/2020 05:00:00	120220	12022020	050000	195.22	13.260295	-57.042088	195.38	0.180	-1.100	1.950	195.22	-2.40	2.50	 	 	 	 	 	 	 	 	 	 	 	 	 	 	 	 	 	 	1581483600	12.31	22.80
12/02/2020 05:00:01	120220	12022020	050001	195.11	13.260245	-57.042105	195.22	0.000	-0.620	2.170	195.04	-1.90	2.70	1016.20	26.00	26.00	20.20	20.40	-1.0	70.0	71.0	394.0	25.7	259.00	11.40	70.00	13.80	16	8753.0	27.2	27.2	1581483601	11.56	21.41
12/02/2020 05:00:02	120220	12022020	050002	194.70	13.260195	-57.042120	194.80	-0.370	-0.370	2.620	194.60	-1.70	3.20	 	 	 	 	 	 	 	 	 	 	 	 	 	 	 	 	 	 	1581483602	11.00	20.37
12/02/2020 05:00:03	120220	12022020	050003	194.25	13.260145	-57.042138	194.40	-0.730	-0.410	3.100	194.18	-1.70	3.70	 	 	 	 	 	 	 	 	 	 	 	 	 	 	 	 	 	 	1581483603	11.41	21.13
12/02/2020 05:00:04	120220	12022020	050004	194.09	13.260093	-57.042158	194.30	-0.840	-0.140	3.280	194.10	-1.40	3.80	 	 	 	 	 	 	 	 	 	 	 	 	 	 	 	 	 	 	1581483604	11.96	22.15
12/02/2020 05:00:05	120220	12022020	050005	194.22	13.260043	-57.042182	194.46	-0.550	0.460	2.920	194.26	-0.80	3.30	 	 	 	 	 	 	 	 	 	 	 	 	 	 	 	 	 	 	1581483605	11.68	21.63
12/02/2020 05:00:06	120220	12022020	050006	194.51	13.259995	-57.042198	194.77	0.070	0.660	2.260	194.59	-0.70	2.70	 	 	 	 	 	 	 	 	 	 	 	 	 	 	 	 	 	 	1581483606	11.06	20.48
12/02/2020 05:00:07	120220	12022020	050007	194.96	13.259945	-57.042212	195.23	0.660	0.440	1.680	195.06	-1.00	2.10	 	 	 	 	 	 	 	 	 	 	 	 	 	 	 	 	 	 	1581483607	11.25	20.84
12/02/2020 05:00:08	120220	12022020	050008	195.45	13.259892	-57.042223	195.68	0.950	0.110	1.250	195.54	-1.30	1.70	 	 	 	 	 	 	 	 	 	 	 	 	 	 	 	 	 	 	1581483608	11.53	21.35
12/02/2020 05:00:09	120220	12022020	050009	195.76	13.259840	-57.042233	195.94	0.920	-0.340	1.170	195.78	-1.80	1.70	 	 	 	 	 	 	 	 	 	 	 	 	 	 	 	 	 	 	1581483609	11.42	21.15
12/02/2020 05:00:10	120220	12022020	050010	195.74	13.259788	-57.042243	195.88	0.670	-0.870	1.600	195.72	-2.30	2.20	 	 	 	 	 	 	 	 	 	 	 	 	 	 	 	 	 	 	1581483610	11.38	21.08
12/02/2020 05:00:11	120220	12022020	050011	195.62	13.259737	-57.042258	195.78	0.210	-1.120	2.170	195.61	-2.50	2.80	 	 	 	 	 	 	 	 	 	 	 	 	 	 	 	 	 	 	1581483611	11.50	21.30
12/02/2020 05:00:12	120220	12022020	050012	195.57	13.259687	-57.042275	195.74	-0.280	-0.970	2.480	195.57	-2.30	3.00	 	 	 	 	 	 	 	 	 	 	 	 	 	 	 	 	 	 	1581483612	11.32	20.96
12/02/2020 05:00:13	120220	12022020	050013	195.49	13.259638	-57.042292	195.62	-0.510	-0.780	2.340	195.45	-2.10	2.80	 	 	 	 	 	 	 	 	 	 	 	 	 	 	 	 	 	 	1581483613	11.01	20.39
12/02/2020 05:00:14	120220	12022020	050014	195.35	13.259588	-57.042310	195.49	-0.340	-0.810	1.920	195.34	-2.20	2.40	 	 	 	 	 	 	 	 	 	 	 	 	 	 	 	 	 	 	1581483614	11.11	20.58
12/02/2020 05:00:15	120220	12022020	050015	195.42	13.259537	-57.042325	195.58	-0.120	-0.770	1.430	195.45	-2.10	1.90	 	 	 	 	 	 	 	 	 	 	 	 	 	 	 	 	 	 	1581483615	11.58	21.45
12/02/2020 05:00:16	120220	12022020	050016	195.56	13.259485	-57.042338	195.70	-0.150	-0.650	1.290	195.56	-2.00	1.80	 	 	 	 	 	 	 	 	 	 	 	 	 	 	 	 	 	 	1581483616	11.63	21.54
12/02/2020 05:00:17	120220	12022020	050017	195.40	13.259433	-57.042353	195.49	-0.300	-0.710	1.640	195.33	-2.10	2.20	 	 	 	 	 	 	 	 	 	 	 	 	 	 	 	 	 	 	1581483617	11.53	21.35
12/02/2020 05:00:18	120220	12022020	050018	194.95	13.259382	-57.042372	195.03	-0.350	-0.720	2.170	194.86	-2.00	2.70	 	 	 	 	 	 	 	 	 	 	 	 	 	 	 	 	 	 	1581483618	11.88	22.00
12/02/2020 05:00:19	120220	12022020	050019	194.56	13.259328	-57.042392	194.70	-0.280	-0.230	2.390	194.51	-1.50	2.90	 	 	 	 	 	 	 	 	 	 	 	 	 	 	 	 	 	 	1581483619	12.14	22.48
12/02/2020 05:00:20	120220	12022020	050020	194.56	13.259277	-57.042410	194.81	-0.260	0.780	2.190	194.65	-0.40	2.60	 	 	 	 	 	 	 	 	 	 	 	 	 	 	 	 	 	 	1581483620	11.76	21.78
12/02/2020 05:00:21	120220	12022020	050021	195.20	13.259227	-57.042425	195.52	-0.380	1.730	1.680	195.38	0.40	2.10	 	 	 	 	 	 	 	 	 	 	 	 	 	 	 	 	 	 	1581483621	11.07	20.50
12/02/2020 05:00:22	120220	12022020	050022	196.12	13.259180	-57.042438	196.42	-0.370	1.760	1.210	196.29	0.30	1.70	 	 	 	 	 	 	 	 	 	 	 	 	 	 	 	 	 	 	1581483622	10.58	19.59
12/02/2020 05:00:23	120220	12022020	050023	196.87	13.259132	-57.042455	197.10	0.130	0.720	0.950	196.99	-0.80	1.50	 	 	 	 	 	 	 	 	 	 	 	 	 	 	 	 	 	 	1581483623	10.98	20.33
12/02/2020 05:00:24	120220	12022020	050024	197.32	13.259078	-57.042470	197.50	0.960	-0.650	0.930	197.37	-2.10	1.50	 	 	 	 	 	 	 	 	 	 	 	 	 	 	 	 	 	 	1581483624	11.79	21.84
12/02/2020 05:00:25	120220	12022020	050025	197.45	13.259025	-57.042487	197.57	1.480	-1.540	1.130	197.43	-3.00	1.70	 	 	 	 	 	 	 	 	 	 	 	 	 	 	 	 	 	 	1581483625	11.99	22.21
12/02/2020 05:00:26	120220	12022020	050026	197.19	13.258973	-57.042500	197.25	1.340	-1.870	1.440	197.11	-3.20	2.00	 	 	 	 	 	 	 	 	 	 	 	 	 	 	 	 	 	 	1581483626	11.46	21.22
12/02/2020 05:00:27	120220	12022020	050027	196.76	13.258925	-57.042513	196.82	0.600	-1.720	1.800	196.67	-3.00	2.40	 	 	 	 	 	 	 	 	 	 	 	 	 	 	 	 	 	 	1581483627	11.03	20.43
12/02/2020 05:00:28	120220	12022020	050028	196.35	13.258877	-57.042528	196.41	-0.360	-1.350	2.270	196.26	-2.70	2.90	 	 	 	 	 	 	 	 	 	 	 	 	 	 	 	 	 	 	1581483628	10.83	20.06
12/02/2020 05:00:29	120220	12022020	050029	195.79	13.258828	-57.042548	195.84	-0.960	-1.120	2.620	195.67	-2.40	3.20	 	 	 	 	 	 	 	 	 	 	 	 	 	 	 	 	 	 	1581483629	10.97	20.32
12/02/2020 05:00:30	120220	12022020	050030	195.22	13.258778	-57.042570	195.30	-1.030	-0.960	2.730	195.14	-2.30	3.20	 	 	 	 	 	 	 	 	 	 	 	 	 	 	 	 	 	 	1581483630	11.59	21.46
12/02/2020 05:00:31	120220	12022020	050031	194.96	13.258727	-57.042592	195.12	-0.800	-0.590	2.510	194.98	-1.90	3.00	 	 	 	 	 	 	 	 	 	 	 	 	 	 	 	 	 	 	1581483631	12.11	22.43
12/02/2020 05:00:32	120220	12022020	050032	195.18	13.258675	-57.042613	195.39	-0.590	0.190	2.040	195.26	-1.00	2.50	 	 	 	 	 	 	 	 	 	 	 	 	 	 	 	 	 	 	1581483632	12.11	22.43
12/02/2020 05:00:33	120220	12022020	050033	195.63	13.258625	-57.042632	195.84	-0.450	0.990	1.650	195.72	-0.30	2.10	 	 	 	 	 	 	 	 	 	 	 	 	 	 	 	 	 	 	1581483633	11.52	21.34
12/02/2020 05:00:34	120220	12022020	050034	196.04	13.258575	-57.042648	196.24	-0.130	1.200	1.370	196.12	-0.20	1.90	 	 	 	 	 	 	 	 	 	 	 	 	 	 	 	 	 	 	1581483634	11.16	20.67
12/02/2020 05:00:35	120220	12022020	050035	196.48	13.258523	-57.042663	196.70	0.320	0.850	1.280	196.58	-0.60	1.80	 	 	 	 	 	 	 	 	 	 	 	 	 	 	 	 	 	 	1581483635	11.50	21.30
12/02/2020 05:00:36	120220	12022020	050036	196.92	13.258470	-57.042677	197.09	0.600	0.330	1.600	196.98	-1.10	2.20	 	 	 	 	 	 	 	 	 	 	 	 	 	 	 	 	 	 	1581483636	11.80	21.85
12/02/2020 05:00:37	120220	12022020	050037	197.11	13.258418	-57.042693	197.25	0.570	-0.200	2.080	197.12	-1.60	2.70	 	 	 	 	 	 	 	 	 	 	 	 	 	 	 	 	 	 	1581483637	11.65	21.58
12/02/2020 05:00:38	120220	12022020	050038	197.12	13.258368	-57.042710	197.23	0.370	-0.480	2.480	197.10	-1.90	3.00	 	 	 	 	 	 	 	 	 	 	 	 	 	 	 	 	 	 	1581483638	11.41	21.13
12/02/2020 05:00:39	120220	12022020	050039	196.98	13.258320	-57.042728	197.06	0.260	-0.580	2.570	196.93	-2.00	3.10	 	 	 	 	 	 	 	 	 	 	 	 	 	 	 	 	 	 	1581483639	11.05	20.46
12/02/2020 05:00:40	120220	12022020	050040	196.63	13.258273	-57.042745	196.68	0.420	-0.890	2.330	196.54	-2.30	2.80	 	 	 	 	 	 	 	 	 	 	 	 	 	 	 	 	 	 	1581483640	10.80	20.00
12/02/2020 05:00:41	120220	12022020	050041	196.13	13.258223	-57.042760	196.15	0.660	-1.380	2.030	196.04	-2.80	2.50	 	 	 	 	 	 	 	 	 	 	 	 	 	 	 	 	 	 	1581483641	11.13	20.61
12/02/2020 05:00:42	120220	12022020	050042	195.67	13.258170	-57.042773	195.71	0.560	-1.520	1.910	195.59	-2.80	2.40	 	 	 	 	 	 	 	 	 	 	 	 	 	 	 	 	 	 	1581483642	11.59	21.46
12/02/2020 05:00:43	120220	12022020	050043	195.37	13.258118	-57.042788	195.48	-0.020	-1.090	1.900	195.35	-2.30	2.40	 	 	 	 	 	 	 	 	 	 	 	 	 	 	 	 	 	 	1581483643	11.59	21.46
12/02/2020 05:00:44	120220	12022020	050044	195.40	13.258068	-57.042805	195.57	-0.790	-0.360	1.960	195.45	-1.60	2.50	 	 	 	 	 	 	 	 	 	 	 	 	 	 	 	 	 	 	1581483644	11.22	20.78
12/02/2020 05:00:45	120220	12022020	050045	195.70	13.258022	-57.042825	195.89	-1.200	0.170	2.030	195.78	-1.10	2.50	 	 	 	 	 	 	 	 	 	 	 	 	 	 	 	 	 	 	1581483645	11.03	20.43
12/02/2020 05:00:46	120220	12022020	050046	196.07	13.257973	-57.042845	196.25	-0.990	0.200	2.010	196.14	-1.20	2.50	 	 	 	 	 	 	 	 	 	 	 	 	 	 	 	 	 	 	1581483646	11.24	20.82
12/02/2020 05:00:47	120220	12022020	050047	196.34	13.257923	-57.042865	196.49	-0.350	-0.170	2.010	196.38	-1.60	2.50	 	 	 	 	 	 	 	 	 	 	 	 	 	 	 	 	 	 	1581483647	11.71	21.69
12/02/2020 05:00:48	120220	12022020	050048	196.51	13.257870	-57.042885	196.63	0.400	-0.450	1.840	196.54	-1.80	2.30	 	 	 	 	 	 	 	 	 	 	 	 	 	 	 	 	 	 	1581483648	12.16	22.52
12/02/2020 05:00:49	120220	12022020	050049	196.69	13.257817	-57.042903	196.81	0.890	-0.050	1.450	196.73	-1.30	1.90	 	 	 	 	 	 	 	 	 	 	 	 	 	 	 	 	 	 	1581483649	12.10	22.41
12/02/2020 05:00:50	120220	12022020	050050	196.83	13.257765	-57.042915	196.92	0.950	0.490	1.240	196.85	-0.80	1.80	 	 	 	 	 	 	 	 	 	 	 	 	 	 	 	 	 	 	1581483650	11.31	20.95
12/02/2020 05:00:51	120220	12022020	050051	196.97	13.257715	-57.042925	197.06	0.580	0.390	1.330	197.00	-1.00	1.90	 	 	 	 	 	 	 	 	 	 	 	 	 	 	 	 	 	 	1581483651	10.97	20.32
12/02/2020 05:00:52	120220	12022020	050052	196.99	13.257663	-57.042937	197.04	-0.030	-0.370	2.040	196.96	-1.80	2.70	 	 	 	 	 	 	 	 	 	 	 	 	 	 	 	 	 	 	1581483652	11.44	21.19
12/02/2020 05:00:53	120220	12022020	050053	196.70	13.257610	-57.042957	196.69	-0.560	-1.110	3.040	196.60	-2.50	3.70	 	 	 	 	 	 	 	 	 	 	 	 	 	 	 	 	 	 	1581483653	12.04	22.30
12/02/2020 05:00:54	120220	12022020	050054	196.18	13.257560	-57.042982	196.20	-0.690	-1.090	3.530	196.09	-2.40	4.00	 	 	 	 	 	 	 	 	 	 	 	 	 	 	 	 	 	 	1581483654	12.25	22.69
12/02/2020 05:00:55	120220	12022020	050055	195.85	13.257510	-57.043005	195.94	-0.500	-0.280	3.260	195.83	-1.50	3.70	 	 	 	 	 	 	 	 	 	 	 	 	 	 	 	 	 	 	1581483655	11.57	21.43
12/02/2020 05:00:56	120220	12022020	050056	195.89	13.257465	-57.043023	195.99	-0.230	0.480	2.450	195.92	-0.80	2.80	 	 	 	 	 	 	 	 	 	 	 	 	 	 	 	 	 	 	1581483656	10.62	19.67
12/02/2020 05:00:57	120220	12022020	050057	195.99	13.257418	-57.043037	196.05	0.100	0.260	1.650	195.98	-1.20	2.10	 	 	 	 	 	 	 	 	 	 	 	 	 	 	 	 	 	 	1581483657	10.39	19.24
12/02/2020 05:00:58	120220	12022020	050058	195.84	13.257367	-57.043050	195.87	0.520	-0.780	1.430	195.79	-2.30	2.00	 	 	 	 	 	 	 	 	 	 	 	 	 	 	 	 	 	 	1581483658	11.29	20.91
12/02/2020 05:00:59	120220	12022020	050059	195.67	13.257312	-57.043065	195.76	0.790	-1.480	1.590	195.65	-2.80	2.10	 	 	 	 	 	 	 	 	 	 	 	 	 	 	 	 	 	 	1581483659	12.30	22.78
12/02/2020 05:01:00	120220	12022020	050100	195.60	13.257258	-57.043082	195.70	0.660	-1.160	1.810	195.59	-2.40	2.40	 	 	 	 	 	 	 	 	 	 	 	 	 	 	 	 	 	 	1581483660	12.15	22.50
12/02/2020 05:01:01	120220	12022020	050101	195.52	13.257208	-57.043097	195.64	0.250	-0.420	1.990	195.52	-1.70	2.50	1016.20	26.10	26.10	20.20	20.30	-1.0	70.0	70.0	394.0	25.7	256.00	10.40	66.00	13.10	16	8603.0	27.2	27.2	1581483661	11.16	20.67
12/02/2020 05:01:02	120220	12022020	050102	195.62	13.257160	-57.043112	195.77	-0.130	0.040	1.960	195.66	-1.30	2.50	 	 	 	 	 	 	 	 	 	 	 	 	 	 	 	 	 	 	1581483662	10.81	20.02
12/02/2020 05:01:03	120220	12022020	050103	195.83	13.257110	-57.043128	195.98	-0.330	-0.020	1.980	195.87	-1.40	2.50	 	 	 	 	 	 	 	 	 	 	 	 	 	 	 	 	 	 	1581483663	11.21	20.76
12/02/2020 05:01:04	120220	12022020	050104	196.03	13.257058	-57.043145	196.21	-0.350	-0.210	2.090	196.10	-1.60	2.60	 	 	 	 	 	 	 	 	 	 	 	 	 	 	 	 	 	 	1581483664	11.83	21.91
12/02/2020 05:01:05	120220	12022020	050105	196.47	13.257005	-57.043163	196.69	-0.390	-0.030	1.960	196.59	-1.30	2.40	 	 	 	 	 	 	 	 	 	 	 	 	 	 	 	 	 	 	1581483665	12.06	22.34
12/02/2020 05:01:06	120220	12022020	050106	197.05	13.256953	-57.043180	197.23	-0.480	0.380	1.830	197.13	-0.90	2.30	 	 	 	 	 	 	 	 	 	 	 	 	 	 	 	 	 	 	1581483666	11.52	21.34
12/02/2020 05:01:07	120220	12022020	050107	197.28	13.256907	-57.043198	197.36	-0.380	0.320	1.830	197.27	-1.10	2.30	 	 	 	 	 	 	 	 	 	 	 	 	 	 	 	 	 	 	1581483667	10.99	20.35
12/02/2020 05:01:08	120220	12022020	050108	197.06	13.256857	-57.043217	197.09	0.090	-0.270	1.820	197.00	-1.70	2.30	 	 	 	 	 	 	 	 	 	 	 	 	 	 	 	 	 	 	1581483668	11.30	20.93
12/02/2020 05:01:09	120220	12022020	050109	196.84	13.256805	-57.043235	196.93	0.540	-0.590	1.630	196.85	-1.90	2.10	 	 	 	 	 	 	 	 	 	 	 	 	 	 	 	 	 	 	1581483669	11.92	22.08
12/02/2020 05:01:10	120220	12022020	050110	197.02	13.256752	-57.043250	197.14	0.560	-0.370	1.190	197.07	-1.70	1.70	 	 	 	 	 	 	 	 	 	 	 	 	 	 	 	 	 	 	1581483670	11.69	21.65
12/02/2020 05:01:11	120220	12022020	050111	197.22	13.256703	-57.043263	197.27	0.280	-0.130	0.940	197.22	-1.50	1.50	 	 	 	 	 	 	 	 	 	 	 	 	 	 	 	 	 	 	1581483671	10.88	20.15
12/02/2020 05:01:12	120220	12022020	050112	197.08	13.256655	-57.043278	197.09	0.140	-0.440	1.110	197.02	-1.90	1.70	 	 	 	 	 	 	 	 	 	 	 	 	 	 	 	 	 	 	1581483672	10.68	19.78
12/02/2020 05:01:13	120220	12022020	050113	196.72	13.256605	-57.043293	196.71	0.140	-1.100	1.630	196.62	-2.50	2.20	 	 	 	 	 	 	 	 	 	 	 	 	 	 	 	 	 	 	1581483673	11.34	21.00
12/02/2020 05:01:14	120220	12022020	050114	196.21	13.256552	-57.043310	196.23	0.030	-1.570	2.350	196.11	-2.90	2.90	 	 	 	 	 	 	 	 	 	 	 	 	 	 	 	 	 	 	1581483674	12.00	22.22
12/02/2020 05:01:15	120220	12022020	050115	195.79	13.256498	-57.043332	195.86	-0.270	-1.280	2.780	195.74	-2.50	3.30	 	 	 	 	 	 	 	 	 	 	 	 	 	 	 	 	 	 	1581483675	12.17	22.54
12/02/2020 05:01:16	120220	12022020	050116	195.74	13.256448	-57.043353	195.91	-0.640	-0.200	2.710	195.79	-1.40	3.20	 	 	 	 	 	 	 	 	 	 	 	 	 	 	 	 	 	 	1581483676	11.73	21.72
12/02/2020 05:01:17	120220	12022020	050117	196.09	13.256402	-57.043373	196.29	-0.800	0.850	2.280	196.18	-0.40	2.70	 	 	 	 	 	 	 	 	 	 	 	 	 	 	 	 	 	 	1581483677	10.90	20.19
12/02/2020 05:01:18	120220	12022020	050118	196.53	13.256355	-57.043392	196.71	-0.510	1.060	1.660	196.61	-0.40	2.10	 	 	 	 	 	 	 	 	 	 	 	 	 	 	 	 	 	 	1581483678	10.69	19.80
12/02/2020 05:01:19	120220	12022020	050119	196.90	13.256305	-57.043408	197.06	0.150	0.450	1.180	196.96	-1.00	1.70	 	 	 	 	 	 	 	 	 	 	 	 	 	 	 	 	 	 	1581483679	11.39	21.09
12/02/2020 05:01:20	120220	12022020	050120	197.18	13.256250	-57.043422	197.33	0.720	-0.230	1.010	197.23	-1.60	1.50	 	 	 	 	 	 	 	 	 	 	 	 	 	 	 	 	 	 	1581483680	12.10	22.41
12/02/2020 05:01:21	120220	12022020	050121	197.33	13.256197	-57.043435	197.46	0.700	-0.510	1.220	197.33	-1.90	1.80	 	 	 	 	 	 	 	 	 	 	 	 	 	 	 	 	 	 	1581483681	12.06	22.34
12/02/2020 05:01:22	120220	12022020	050122	197.27	13.256145	-57.043450	197.35	0.170	-0.580	1.770	197.22	-1.90	2.40	 	 	 	 	 	 	 	 	 	 	 	 	 	 	 	 	 	 	1581483682	11.39	21.09
12/02/2020 05:01:23	120220	12022020	050123	196.86	13.256097	-57.043468	196.88	-0.320	-0.890	2.510	196.72	-2.30	3.10	 	 	 	 	 	 	 	 	 	 	 	 	 	 	 	 	 	 	1581483683	11.03	20.43
12/02/2020 05:01:24	120220	12022020	050124	196.01	13.256048	-57.043490	196.00	-0.290	-1.320	3.170	195.82	-2.70	3.70	 	 	 	 	 	 	 	 	 	 	 	 	 	 	 	 	 	 	1581483684	11.45	21.21
12/02/2020 05:01:25	120220	12022020	050125	195.20	13.255997	-57.043513	195.27	0.070	-1.030	3.190	195.11	-2.30	3.60	 	 	 	 	 	 	 	 	 	 	 	 	 	 	 	 	 	 	1581483685	12.03	22.28
12/02/2020 05:01:26	120220	12022020	050126	195.09	13.255947	-57.043532	195.29	0.220	-0.030	2.390	195.15	-1.30	2.80	 	 	 	 	 	 	 	 	 	 	 	 	 	 	 	 	 	 	1581483686	11.53	21.35
12/02/2020 05:01:27	120220	12022020	050127	195.44	13.255898	-57.043543	195.64	-0.010	0.620	1.540	195.51	-0.70	2.00	 	 	 	 	 	 	 	 	 	 	 	 	 	 	 	 	 	 	1581483687	10.63	19.69
12/02/2020 05:01:28	120220	12022020	050128	195.72	13.255850	-57.043557	195.90	-0.240	0.370	1.350	195.76	-1.10	1.90	 	 	 	 	 	 	 	 	 	 	 	 	 	 	 	 	 	 	1581483688	10.76	19.93
12/02/2020 05:01:29	120220	12022020	050129	195.92	13.255798	-57.043575	196.10	-0.130	-0.220	1.450	195.96	-1.60	2.00	 	 	 	 	 	 	 	 	 	 	 	 	 	 	 	 	 	 	1581483689	11.61	21.50
12/02/2020 05:01:30	120220	12022020	050130	196.17	13.255747	-57.043592	196.38	0.130	-0.490	1.620	196.24	-1.90	2.20	 	 	 	 	 	 	 	 	 	 	 	 	 	 	 	 	 	 	1581483690	11.98	22.19
12/02/2020 05:01:31	120220	12022020	050131	196.53	13.255695	-57.043608	196.72	0.210	-0.530	1.710	196.59	-1.90	2.30	 	 	 	 	 	 	 	 	 	 	 	 	 	 	 	 	 	 	1581483691	11.57	21.43
12/02/2020 05:01:32	120220	12022020	050132	196.74	13.255645	-57.043623	196.90	0.030	-0.610	1.970	196.75	-2.00	2.50	 	 	 	 	 	 	 	 	 	 	 	 	 	 	 	 	 	 	1581483692	11.22	20.78
12/02/2020 05:01:33	120220	12022020	050133	196.65	13.255595	-57.043640	196.74	-0.170	-0.760	2.340	196.59	-2.10	2.90	 	 	 	 	 	 	 	 	 	 	 	 	 	 	 	 	 	 	1581483693	11.26	20.85
12/02/2020 05:01:34	120220	12022020	050134	196.29	13.255545	-57.043658	196.38	-0.230	-0.830	2.610	196.21	-2.20	3.10	 	 	 	 	 	 	 	 	 	 	 	 	 	 	 	 	 	 	1581483694	11.47	21.24
12/02/2020 05:01:35	120220	12022020	050135	195.94	13.255493	-57.043677	196.04	-0.140	-0.690	2.630	195.89	-2.00	3.10	 	 	 	 	 	 	 	 	 	 	 	 	 	 	 	 	 	 	1581483695	11.61	21.50
12/02/2020 05:01:36	120220	12022020	050136	195.78	13.255443	-57.043695	195.90	-0.010	-0.320	2.270	195.77	-1.60	2.70	 	 	 	 	 	 	 	 	 	 	 	 	 	 	 	 	 	 	1581483696	11.56	21.41
12/02/2020 05:01:37	120220	12022020	050137	195.77	13.255392	-57.043710	195.90	0.010	0.090	1.900	195.78	-1.20	2.40	 	 	 	 	 	 	 	 	 	 	 	 	 	 	 	 	 	 	1581483697	11.36	21.04
12/02/2020 05:01:38	120220	12022020	050138	195.81	13.255342	-57.043725	195.93	-0.110	0.260	1.790	195.82	-1.10	2.30	 	 	 	 	 	 	 	 	 	 	 	 	 	 	 	 	 	 	1581483698	11.25	20.84
12/02/2020 05:01:39	120220	12022020	050139	195.88	13.255292	-57.043740	196.01	-0.310	0.200	1.920	195.90	-1.20	2.40	 	 	 	 	 	 	 	 	 	 	 	 	 	 	 	 	 	 	1581483699	11.38	21.08
12/02/2020 05:01:40	120220	12022020	050140	195.96	13.255242	-57.043760	196.10	-0.320	-0.070	2.080	195.98	-1.50	2.60	 	 	 	 	 	 	 	 	 	 	 	 	 	 	 	 	 	 	1581483700	11.51	21.32
12/02/2020 05:01:41	120220	12022020	050141	195.96	13.255192	-57.043780	196.08	0.100	-0.350	2.020	195.95	-1.70	2.50	 	 	 	 	 	 	 	 	 	 	 	 	 	 	 	 	 	 	1581483701	11.66	21.59
12/02/2020 05:01:42	120220	12022020	050142	195.98	13.255140	-57.043798	196.13	0.730	-0.340	1.610	196.00	-1.70	2.10	 	 	 	 	 	 	 	 	 	 	 	 	 	 	 	 	 	 	1581483702	11.69	21.65
12/02/2020 05:01:43	120220	12022020	050143	196.17	13.255088	-57.043810	196.36	0.950	-0.140	1.270	196.23	-1.50	1.80	 	 	 	 	 	 	 	 	 	 	 	 	 	 	 	 	 	 	1581483703	11.38	21.08
12/02/2020 05:01:44	120220	12022020	050144	196.47	13.255037	-57.043820	196.63	0.530	-0.150	1.280	196.51	-1.60	1.80	 	 	 	 	 	 	 	 	 	 	 	 	 	 	 	 	 	 	1581483704	11.08	20.52
12/02/2020 05:01:45	120220	12022020	050145	196.51	13.254987	-57.043833	196.63	-0.150	-0.560	1.680	196.49	-2.00	2.30	 	 	 	 	 	 	 	 	 	 	 	 	 	 	 	 	 	 	1581483705	11.10	20.56
12/02/2020 05:01:46	120220	12022020	050146	196.39	13.254937	-57.043852	196.52	-0.600	-0.930	2.130	196.38	-2.30	2.70	 	 	 	 	 	 	 	 	 	 	 	 	 	 	 	 	 	 	1581483706	11.55	21.39
12/02/2020 05:01:47	120220	12022020	050147	196.53	13.254887	-57.043873	196.73	-0.670	-0.780	2.110	196.61	-2.10	2.60	 	 	 	 	 	 	 	 	 	 	 	 	 	 	 	 	 	 	1581483707	11.77	21.80
12/02/2020 05:01:48	120220	12022020	050148	196.99	13.254838	-57.043893	197.19	-0.550	-0.390	1.800	197.10	-1.70	2.30	 	 	 	 	 	 	 	 	 	 	 	 	 	 	 	 	 	 	1581483708	11.25	20.84
12/02/2020 05:01:49	120220	12022020	050149	197.45	13.254790	-57.043912	197.61	-0.340	-0.330	1.600	197.51	-1.70	2.10	 	 	 	 	 	 	 	 	 	 	 	 	 	 	 	 	 	 	1581483709	10.88	20.15
12/02/2020 05:01:50	120220	12022020	050150	197.47	13.254742	-57.043928	197.50	0.070	-0.830	1.670	197.39	-2.30	2.20	 	 	 	 	 	 	 	 	 	 	 	 	 	 	 	 	 	 	1581483710	11.17	20.69
12/02/2020 05:01:51	120220	12022020	050151	196.85	13.254688	-57.043948	196.79	0.630	-1.380	2.020	196.66	-2.80	2.60	 	 	 	 	 	 	 	 	 	 	 	 	 	 	 	 	 	 	1581483711	11.91	22.06
12/02/2020 05:01:52	120220	12022020	050152	195.88	13.254635	-57.043965	195.84	0.860	-1.200	2.530	195.70	-2.50	3.10	 	 	 	 	 	 	 	 	 	 	 	 	 	 	 	 	 	 	1581483712	12.34	22.85
12/02/2020 05:01:53	120220	12022020	050153	195.16	13.254582	-57.043982	195.23	0.370	-0.130	2.780	195.09	-1.30	3.30	 	 	 	 	 	 	 	 	 	 	 	 	 	 	 	 	 	 	1581483713	11.95	22.13
12/02/2020 05:01:54	120220	12022020	050154	195.10	13.254532	-57.043998	195.27	-0.580	1.140	2.680	195.17	-0.10	3.20	 	 	 	 	 	 	 	 	 	 	 	 	 	 	 	 	 	 	1581483714	11.10	20.56
12/02/2020 05:01:55	120220	12022020	050155	195.69	13.254485	-57.044017	195.95	-1.290	1.760	2.420	195.86	0.40	2.90	 	 	 	 	 	 	 	 	 	 	 	 	 	 	 	 	 	 	1581483715	10.66	19.74
12/02/2020 05:01:56	120220	12022020	050156	196.57	13.254438	-57.044037	196.82	-1.080	1.370	2.010	196.74	-0.10	2.40	 	 	 	 	 	 	 	 	 	 	 	 	 	 	 	 	 	 	1581483716	10.99	20.35
12/02/2020 05:01:57	120220	12022020	050157	197.46	13.254388	-57.044058	197.68	-0.020	0.300	1.270	197.61	-1.20	1.70	 	 	 	 	 	 	 	 	 	 	 	 	 	 	 	 	 	 	1581483717	11.69	21.65
12/02/2020 05:01:58	120220	12022020	050158	198.14	13.254335	-57.044075	198.30	0.970	-0.830	0.880	198.22	-2.30	1.40	 	 	 	 	 	 	 	 	 	 	 	 	 	 	 	 	 	 	1581483718	12.13	22.46
12/02/2020 05:01:59	120220	12022020	050159	198.38	13.254282	-57.044090	198.46	1.140	-1.480	1.310	198.36	-2.90	1.90	 	 	 	 	 	 	 	 	 	 	 	 	 	 	 	 	 	 	1581483719	12.00	22.22
12/02/2020 05:02:00	120220	12022020	050200	198.08	13.254232	-57.044107	198.09	0.570	-1.540	2.290	197.96	-2.90	2.90	 	 	 	 	 	 	 	 	 	 	 	 	 	 	 	 	 	 	1581483720	11.30	20.93
12/02/2020 05:02:01	120220	12022020	050201	197.29	13.254185	-57.044127	197.26	-0.150	-1.180	3.420	197.09	-2.50	4.10	1016.20	26.10	26.10	20.40	20.50	-1.0	71.0	71.0	394.0	25.7	255.00	10.10	66.00	12.90	16	7795.0	27.2	27.2	1581483721	10.77	19.95
12/02/2020 05:02:02	120220	12022020	050202	196.28	13.254140	-57.044148	196.26	-0.510	-0.840	4.160	196.08	-2.20	4.70	 	 	 	 	 	 	 	 	 	 	 	 	 	 	 	 	 	 	1581483722	10.69	19.80
12/02/2020 05:02:03	120220	12022020	050203	195.39	13.254095	-57.044173	195.41	-0.320	-0.810	4.150	195.24	-2.20	4.60	 	 	 	 	 	 	 	 	 	 	 	 	 	 	 	 	 	 	1581483723	11.10	20.56
12/02/2020 05:02:04	120220	12022020	050204	194.82	13.254045	-57.044195	194.92	0.150	-0.660	3.600	194.76	-2.00	4.00	 	 	 	 	 	 	 	 	 	 	 	 	 	 	 	 	 	 	1581483724	11.68	21.63
12/02/2020 05:02:05	120220	12022020	050205	194.70	13.253993	-57.044213	194.88	0.420	-0.040	2.830	194.72	-1.30	3.20	 	 	 	 	 	 	 	 	 	 	 	 	 	 	 	 	 	 	1581483725	11.72	21.71
12/02/2020 05:02:06	120220	12022020	050206	194.92	13.253942	-57.044225	195.13	0.250	0.630	2.220	194.98	-0.70	2.70	 	 	 	 	 	 	 	 	 	 	 	 	 	 	 	 	 	 	1581483726	11.17	20.69
12/02/2020 05:02:07	120220	12022020	050207	195.23	13.253893	-57.044237	195.47	-0.180	0.750	2.120	195.31	-0.60	2.70	 	 	 	 	 	 	 	 	 	 	 	 	 	 	 	 	 	 	1581483727	10.86	20.11
12/02/2020 05:02:08	120220	12022020	050208	195.59	13.253843	-57.044252	195.81	-0.500	0.340	2.410	195.65	-1.10	3.00	 	 	 	 	 	 	 	 	 	 	 	 	 	 	 	 	 	 	1581483728	11.19	20.72
12/02/2020 05:02:09	120220	12022020	050209	195.82	13.253792	-57.044270	196.00	-0.440	-0.240	2.720	195.83	-1.70	3.30	 	 	 	 	 	 	 	 	 	 	 	 	 	 	 	 	 	 	1581483729	11.60	21.48
12/02/2020 05:02:10	120220	12022020	050210	195.74	13.253742	-57.044290	195.88	0.000	-0.760	2.770	195.70	-2.20	3.30	 	 	 	 	 	 	 	 	 	 	 	 	 	 	 	 	 	 	1581483730	11.71	21.69
12/02/2020 05:02:11	120220	12022020	050211	195.51	13.253690	-57.044308	195.65	0.450	-0.930	2.580	195.48	-2.30	3.10	 	 	 	 	 	 	 	 	 	 	 	 	 	 	 	 	 	 	1581483731	11.67	21.61
12/02/2020 05:02:12	120220	12022020	050212	195.45	13.253638	-57.044322	195.62	0.430	-0.540	2.310	195.46	-1.80	2.80	 	 	 	 	 	 	 	 	 	 	 	 	 	 	 	 	 	 	1581483732	11.39	21.09
12/02/2020 05:02:13	120220	12022020	050213	195.57	13.253590	-57.044335	195.74	-0.040	-0.010	2.060	195.59	-1.30	2.60	 	 	 	 	 	 	 	 	 	 	 	 	 	 	 	 	 	 	1581483733	10.75	19.91
12/02/2020 05:02:14	120220	12022020	050214	195.62	13.253545	-57.044350	195.75	-0.450	-0.000	1.970	195.60	-1.40	2.50	 	 	 	 	 	 	 	 	 	 	 	 	 	 	 	 	 	 	1581483734	10.40	19.26
12/02/2020 05:02:15	120220	12022020	050215	195.46	13.253497	-57.044367	195.58	-0.370	-0.560	2.130	195.41	-2.00	2.70	 	 	 	 	 	 	 	 	 	 	 	 	 	 	 	 	 	 	1581483735	10.88	20.15
12/02/2020 05:02:16	120220	12022020	050216	195.19	13.253445	-57.044385	195.32	0.080	-0.980	2.380	195.14	-2.30	2.90	 	 	 	 	 	 	 	 	 	 	 	 	 	 	 	 	 	 	1581483736	11.64	21.56
12/02/2020 05:02:17	120220	12022020	050217	194.99	13.253393	-57.044402	195.15	0.440	-0.810	2.440	194.97	-2.10	2.90	 	 	 	 	 	 	 	 	 	 	 	 	 	 	 	 	 	 	1581483737	11.72	21.71
12/02/2020 05:02:18	120220	12022020	050218	194.92	13.253343	-57.044417	195.10	0.430	-0.330	2.280	194.93	-1.60	2.80	 	 	 	 	 	 	 	 	 	 	 	 	 	 	 	 	 	 	1581483738	11.19	20.72
12/02/2020 05:02:19	120220	12022020	050219	195.06	13.253295	-57.044430	195.29	0.150	0.110	1.910	195.12	-1.20	2.40	 	 	 	 	 	 	 	 	 	 	 	 	 	 	 	 	 	 	1581483739	10.90	20.19
12/02/2020 05:02:20	120220	12022020	050220	195.44	13.253245	-57.044443	195.68	-0.150	0.290	1.610	195.51	-1.10	2.10	 	 	 	 	 	 	 	 	 	 	 	 	 	 	 	 	 	 	1581483740	10.95	20.28
12/02/2020 05:02:21	120220	12022020	050221	195.81	13.253197	-57.044458	196.03	-0.240	0.140	1.620	195.87	-1.30	2.20	 	 	 	 	 	 	 	 	 	 	 	 	 	 	 	 	 	 	1581483741	11.11	20.58
12/02/2020 05:02:22	120220	12022020	050222	196.02	13.253145	-57.044473	196.19	-0.140	-0.120	1.770	196.03	-1.50	2.30	 	 	 	 	 	 	 	 	 	 	 	 	 	 	 	 	 	 	1581483742	11.40	21.11
12/02/2020 05:02:23	120220	12022020	050223	195.94	13.253095	-57.044490	196.09	-0.060	-0.410	2.070	195.89	-1.80	2.60	 	 	 	 	 	 	 	 	 	 	 	 	 	 	 	 	 	 	1581483743	11.43	21.17
12/02/2020 05:02:24	120220	12022020	050224	195.64	13.253045	-57.044508	195.78	-0.030	-0.680	2.350	195.57	-2.10	2.90	 	 	 	 	 	 	 	 	 	 	 	 	 	 	 	 	 	 	1581483744	11.46	21.22
12/02/2020 05:02:25	120220	12022020	050225	195.34	13.252995	-57.044528	195.48	0.060	-0.710	2.290	195.30	-2.00	2.80	 	 	 	 	 	 	 	 	 	 	 	 	 	 	 	 	 	 	1581483745	11.51	21.32
12/02/2020 05:02:26	120220	12022020	050226	195.24	13.252945	-57.044545	195.42	0.210	-0.350	1.770	195.24	-1.60	2.20	 	 	 	 	 	 	 	 	 	 	 	 	 	 	 	 	 	 	1581483746	11.37	21.06
12/02/2020 05:02:27	120220	12022020	050227	195.32	13.252895	-57.044560	195.51	0.240	0.100	1.150	195.35	-1.20	1.60	 	 	 	 	 	 	 	 	 	 	 	 	 	 	 	 	 	 	1581483747	10.95	20.28
12/02/2020 05:02:28	120220	12022020	050228	195.54	13.252847	-57.044572	195.75	0.060	0.280	0.770	195.61	-1.10	1.30	 	 	 	 	 	 	 	 	 	 	 	 	 	 	 	 	 	 	1581483748	10.72	19.85
12/02/2020 05:02:29	120220	12022020	050229	195.95	13.252798	-57.044583	196.16	-0.250	0.100	0.760	196.02	-1.30	1.30	 	 	 	 	 	 	 	 	 	 	 	 	 	 	 	 	 	 	1581483749	10.84	20.08
12/02/2020 05:02:30	120220	12022020	050230	196.10	13.252750	-57.044598	196.20	-0.340	-0.660	1.260	196.04	-2.20	1.90	 	 	 	 	 	 	 	 	 	 	 	 	 	 	 	 	 	 	1581483750	11.00	20.37
12/02/2020 05:02:31	120220	12022020	050231	195.48	13.252698	-57.044618	195.47	0.070	-1.820	2.010	195.27	-3.30	2.60	 	 	 	 	 	 	 	 	 	 	 	 	 	 	 	 	 	 	1581483751	11.59	21.46
12/02/2020 05:02:32	120220	12022020	050232	194.35	13.252645	-57.044638	194.35	0.590	-2.200	2.530	194.14	-3.50	3.10	 	 	 	 	 	 	 	 	 	 	 	 	 	 	 	 	 	 	1581483752	12.41	22.98
12/02/2020 05:02:33	120220	12022020	050233	193.45	13.252590	-57.044657	193.53	0.570	-1.190	2.550	193.34	-2.30	3.00	 	 	 	 	 	 	 	 	 	 	 	 	 	 	 	 	 	 	1581483753	12.18	22.56
12/02/2020 05:02:34	120220	12022020	050234	193.12	13.252542	-57.044670	193.26	-0.050	0.360	2.040	193.10	-0.80	2.50	 	 	 	 	 	 	 	 	 	 	 	 	 	 	 	 	 	 	1581483754	11.00	20.37
12/02/2020 05:02:35	120220	12022020	050235	193.05	13.252495	-57.044682	193.18	-0.810	1.280	1.760	193.05	-0.00	2.30	 	 	 	 	 	 	 	 	 	 	 	 	 	 	 	 	 	 	1581483755	10.32	19.11
12/02/2020 05:02:36	120220	12022020	050236	193.06	13.252447	-57.044695	193.21	-1.180	1.290	1.820	193.07	-0.10	2.40	 	 	 	 	 	 	 	 	 	 	 	 	 	 	 	 	 	 	1581483756	10.82	20.04
12/02/2020 05:02:37	120220	12022020	050237	193.09	13.252395	-57.044713	193.23	-1.030	0.750	2.030	193.09	-0.70	2.60	 	 	 	 	 	 	 	 	 	 	 	 	 	 	 	 	 	 	1581483757	11.62	21.52
12/02/2020 05:02:38	120220	12022020	050238	193.01	13.252343	-57.044733	193.13	-0.610	0.180	2.400	192.96	-1.20	2.90	 	 	 	 	 	 	 	 	 	 	 	 	 	 	 	 	 	 	1581483758	11.99	22.21
12/02/2020 05:02:39	120220	12022020	050239	192.61	13.252293	-57.044755	192.67	-0.040	-0.230	2.580	192.49	-1.60	3.10	 	 	 	 	 	 	 	 	 	 	 	 	 	 	 	 	 	 	1581483759	11.71	21.69
12/02/2020 05:02:40	120220	12022020	050240	191.86	13.252243	-57.044773	191.84	0.700	-0.560	2.310	191.67	-1.90	2.80	 	 	 	 	 	 	 	 	 	 	 	 	 	 	 	 	 	 	1581483760	11.26	20.85
12/02/2020 05:02:41	120220	12022020	050241	190.98	13.252193	-57.044787	190.95	1.360	-0.790	1.890	190.81	-2.10	2.30	 	 	 	 	 	 	 	 	 	 	 	 	 	 	 	 	 	 	1581483761	11.01	20.39
12/02/2020 05:02:42	120220	12022020	050242	190.13	13.252143	-57.044795	190.04	1.540	-0.880	1.640	189.94	-2.20	2.10	 	 	 	 	 	 	 	 	 	 	 	 	 	 	 	 	 	 	1581483762	10.98	20.33
12/02/2020 05:02:43	120220	12022020	050243	189.10	13.252093	-57.044802	188.99	1.170	-0.890	1.800	188.88	-2.20	2.40	 	 	 	 	 	 	 	 	 	 	 	 	 	 	 	 	 	 	1581483763	10.91	20.21
12/02/2020 05:02:44	120220	12022020	050244	188.14	13.252043	-57.044810	188.10	0.410	-0.640	2.340	187.99	-1.90	2.90	 	 	 	 	 	 	 	 	 	 	 	 	 	 	 	 	 	 	1581483764	10.96	20.30
12/02/2020 05:02:45	120220	12022020	050245	187.56	13.251993	-57.044822	187.60	-0.470	-0.220	3.010	187.47	-1.50	3.60	 	 	 	 	 	 	 	 	 	 	 	 	 	 	 	 	 	 	1581483765	10.93	20.24
12/02/2020 05:02:46	120220	12022020	050246	187.09	13.251947	-57.044838	187.12	-1.040	-0.220	3.710	186.98	-1.60	4.30	 	 	 	 	 	 	 	 	 	 	 	 	 	 	 	 	 	 	1581483766	10.86	20.11
12/02/2020 05:02:47	120220	12022020	050247	186.42	13.251897	-57.044858	186.44	-0.980	-0.740	4.150	186.27	-2.10	4.70	 	 	 	 	 	 	 	 	 	 	 	 	 	 	 	 	 	 	1581483767	11.48	21.26
12/02/2020 05:02:48	120220	12022020	050248	185.71	13.251842	-57.044877	185.80	-0.480	-1.070	4.050	185.63	-2.40	4.50	 	 	 	 	 	 	 	 	 	 	 	 	 	 	 	 	 	 	1581483768	12.22	22.63
12/02/2020 05:02:49	120220	12022020	050249	185.44	13.251788	-57.044892	185.58	-0.130	-0.570	3.340	185.44	-1.80	3.70	 	 	 	 	 	 	 	 	 	 	 	 	 	 	 	 	 	 	1581483769	12.16	22.52
12/02/2020 05:02:50	120220	12022020	050250	185.43	13.251737	-57.044900	185.55	-0.160	0.280	2.530	185.40	-1.00	3.00	 	 	 	 	 	 	 	 	 	 	 	 	 	 	 	 	 	 	1581483770	11.06	20.48
12/02/2020 05:02:51	120220	12022020	050251	185.08	13.251688	-57.044903	185.11	-0.220	0.370	2.250	184.95	-1.00	2.80	 	 	 	 	 	 	 	 	 	 	 	 	 	 	 	 	 	 	1581483771	10.40	19.26
12/02/2020 05:02:52	120220	12022020	050252	184.27	13.251637	-57.044910	184.26	-0.030	-0.250	2.560	184.07	-1.60	3.10	 	 	 	 	 	 	 	 	 	 	 	 	 	 	 	 	 	 	1581483772	11.10	20.56
12/02/2020 05:02:53	120220	12022020	050253	183.25	13.251582	-57.044918	183.27	0.140	-0.440	3.040	183.06	-1.70	3.60	 	 	 	 	 	 	 	 	 	 	 	 	 	 	 	 	 	 	1581483773	12.05	22.32
12/02/2020 05:02:54	120220	12022020	050254	182.50	13.251528	-57.044930	182.60	0.020	0.320	3.130	182.40	-0.90	3.60	 	 	 	 	 	 	 	 	 	 	 	 	 	 	 	 	 	 	1581483774	11.77	21.80
12/02/2020 05:02:55	120220	12022020	050255	182.18	13.251480	-57.044938	182.31	-0.210	1.240	2.780	182.14	-0.00	3.20	 	 	 	 	 	 	 	 	 	 	 	 	 	 	 	 	 	 	1581483775	10.50	19.45
12/02/2020 05:02:56	120220	12022020	050256	181.93	13.251435	-57.044947	182.04	-0.000	1.110	2.320	181.86	-0.40	2.80	 	 	 	 	 	 	 	 	 	 	 	 	 	 	 	 	 	 	1581483776	9.78	18.11
12/02/2020 05:02:57	120220	12022020	050257	181.42	13.251387	-57.044950	181.50	0.830	-0.390	2.090	181.29	-1.90	2.60	 	 	 	 	 	 	 	 	 	 	 	 	 	 	 	 	 	 	1581483777	10.49	19.43
12/02/2020 05:02:58	120220	12022020	050258	180.74	13.251332	-57.044953	180.83	1.510	-1.720	2.380	180.61	-3.10	3.00	 	 	 	 	 	 	 	 	 	 	 	 	 	 	 	 	 	 	1581483778	12.00	22.22
12/02/2020 05:02:59	120220	12022020	050259	180.03	13.251275	-57.044955	180.12	1.240	-1.690	3.140	179.87	-2.90	3.80	 	 	 	 	 	 	 	 	 	 	 	 	 	 	 	 	 	 	1581483779	12.03	22.28
12/02/2020 05:03:00	120220	12022020	050300	179.16	13.251227	-57.044960	179.24	0.150	-0.810	4.140	178.98	-2.00	4.80	 	 	 	 	 	 	 	 	 	 	 	 	 	 	 	 	 	 	1581483780	10.66	19.74
12/02/2020 05:03:01	120220	12022020	050301	178.21	13.251180	-57.044970	178.33	-0.970	-0.140	5.010	178.04	-1.40	5.60	1016.20	26.00	26.10	20.50	20.60	-1.0	71.0	71.0	394.0	25.7	260.00	10.20	65.00	12.60	16	8238.0	27.2	27.2	1581483781	9.95	18.43
12/02/2020 05:03:02	120220	12022020	050302	177.50	13.251133	-57.044983	177.69	-1.480	-0.000	5.310	177.40	-1.30	5.80	 	 	 	 	 	 	 	 	 	 	 	 	 	 	 	 	 	 	1581483782	10.52	19.48
12/02/2020 05:03:03	120220	12022020	050303	177.12	13.251083	-57.044997	177.34	-1.190	-0.230	4.910	177.06	-1.60	5.30	 	 	 	 	 	 	 	 	 	 	 	 	 	 	 	 	 	 	1581483783	11.19	20.72
12/02/2020 05:03:04	120220	12022020	050304	176.78	13.251030	-57.045005	176.96	-0.290	-0.640	4.130	176.69	-2.00	4.50	 	 	 	 	 	 	 	 	 	 	 	 	 	 	 	 	 	 	1581483784	11.39	21.09
12/02/2020 05:03:05	120220	12022020	050305	176.39	13.250977	-57.045008	176.58	0.590	-0.840	3.210	176.33	-2.10	3.60	 	 	 	 	 	 	 	 	 	 	 	 	 	 	 	 	 	 	1581483785	11.50	21.30
12/02/2020 05:03:06	120220	12022020	050306	176.21	13.250925	-57.045005	176.40	0.830	-0.440	2.350	176.19	-1.70	2.80	 	 	 	 	 	 	 	 	 	 	 	 	 	 	 	 	 	 	1581483786	11.40	21.11
12/02/2020 05:03:07	120220	12022020	050307	176.14	13.250875	-57.044998	176.29	0.430	0.190	2.010	176.11	-1.10	2.50	 	 	 	 	 	 	 	 	 	 	 	 	 	 	 	 	 	 	1581483787	10.73	19.87
12/02/2020 05:03:08	120220	12022020	050308	175.84	13.250827	-57.044995	175.92	-0.060	0.400	2.260	175.72	-0.90	2.80	 	 	 	 	 	 	 	 	 	 	 	 	 	 	 	 	 	 	1581483788	10.23	18.95
12/02/2020 05:03:09	120220	12022020	050309	175.11	13.250778	-57.044995	175.14	-0.080	-0.020	2.810	174.93	-1.40	3.40	 	 	 	 	 	 	 	 	 	 	 	 	 	 	 	 	 	 	1581483789	10.56	19.56
12/02/2020 05:03:10	120220	12022020	050310	174.21	13.250725	-57.044997	174.25	0.230	-0.470	3.250	174.04	-1.80	3.80	 	 	 	 	 	 	 	 	 	 	 	 	 	 	 	 	 	 	1581483790	11.38	21.08
12/02/2020 05:03:11	120220	12022020	050311	173.46	13.250672	-57.044995	173.55	0.200	-0.400	3.530	173.33	-1.60	4.10	 	 	 	 	 	 	 	 	 	 	 	 	 	 	 	 	 	 	1581483791	11.52	21.34
12/02/2020 05:03:12	120220	12022020	050312	172.84	13.250622	-57.044995	172.95	-0.410	0.030	3.900	172.72	-1.20	4.40	 	 	 	 	 	 	 	 	 	 	 	 	 	 	 	 	 	 	1581483792	10.92	20.22
12/02/2020 05:03:13	120220	12022020	050313	172.15	13.250573	-57.044998	172.24	-1.100	0.320	4.390	172.00	-1.00	4.90	 	 	 	 	 	 	 	 	 	 	 	 	 	 	 	 	 	 	1581483793	10.41	19.28
12/02/2020 05:03:14	120220	12022020	050314	171.32	13.250525	-57.045005	171.40	-1.090	0.060	4.760	171.16	-1.30	5.30	 	 	 	 	 	 	 	 	 	 	 	 	 	 	 	 	 	 	1581483794	10.56	19.56
12/02/2020 05:03:15	120220	12022020	050315	170.64	13.250473	-57.045012	170.76	-0.150	-0.410	4.520	170.54	-1.70	4.90	 	 	 	 	 	 	 	 	 	 	 	 	 	 	 	 	 	 	1581483795	11.10	20.56
12/02/2020 05:03:16	120220	12022020	050316	170.31	13.250422	-57.045013	170.48	1.010	-0.560	3.660	170.29	-1.80	4.00	 	 	 	 	 	 	 	 	 	 	 	 	 	 	 	 	 	 	1581483796	11.15	20.65
12/02/2020 05:03:17	120220	12022020	050317	170.36	13.250372	-57.045005	170.56	1.510	-0.360	2.630	170.40	-1.60	3.00	 	 	 	 	 	 	 	 	 	 	 	 	 	 	 	 	 	 	1581483797	10.61	19.65
12/02/2020 05:03:18	120220	12022020	050318	170.66	13.250327	-57.044992	170.88	1.050	-0.180	2.170	170.73	-1.50	2.70	 	 	 	 	 	 	 	 	 	 	 	 	 	 	 	 	 	 	1581483798	10.14	18.78
12/02/2020 05:03:19	120220	12022020	050319	170.85	13.250282	-57.044982	171.01	0.160	-0.390	2.780	170.82	-1.70	3.40	 	 	 	 	 	 	 	 	 	 	 	 	 	 	 	 	 	 	1581483799	9.86	18.26
12/02/2020 05:03:20	120220	12022020	050320	170.37	13.250235	-57.044978	170.41	-0.440	-1.140	4.180	170.17	-2.50	4.90	 	 	 	 	 	 	 	 	 	 	 	 	 	 	 	 	 	 	1581483800	10.16	18.82
12/02/2020 05:03:21	120220	12022020	050321	169.20	13.250183	-57.044982	169.21	-0.410	-1.990	5.530	168.93	-3.30	6.20	 	 	 	 	 	 	 	 	 	 	 	 	 	 	 	 	 	 	1581483801	11.17	20.69
12/02/2020 05:03:22	120220	12022020	050322	167.97	13.250128	-57.044983	168.05	-0.130	-2.010	6.130	167.77	-3.20	6.60	 	 	 	 	 	 	 	 	 	 	 	 	 	 	 	 	 	 	1581483802	11.95	22.13
12/02/2020 05:03:23	120220	12022020	050323	167.30	13.250075	-57.044983	167.50	-0.080	-0.810	5.850	167.25	-1.90	6.20	 	 	 	 	 	 	 	 	 	 	 	 	 	 	 	 	 	 	1581483803	11.54	21.37
12/02/2020 05:03:24	120220	12022020	050324	167.34	13.250027	-57.044980	167.65	-0.420	0.880	4.870	167.42	-0.20	5.20	 	 	 	 	 	 	 	 	 	 	 	 	 	 	 	 	 	 	1581483804	10.29	19.06
12/02/2020 05:03:25	120220	12022020	050325	167.88	13.249983	-57.044973	168.19	-0.900	1.820	3.690	167.99	0.60	4.10	 	 	 	 	 	 	 	 	 	 	 	 	 	 	 	 	 	 	1581483805	9.43	17.46
12/02/2020 05:03:26	120220	12022020	050326	168.41	13.249940	-57.044963	168.67	-1.100	1.500	3.080	168.48	0.10	3.60	 	 	 	 	 	 	 	 	 	 	 	 	 	 	 	 	 	 	1581483806	9.69	17.95
12/02/2020 05:03:27	120220	12022020	050327	168.58	13.249890	-57.044955	168.75	-0.680	0.180	2.920	168.55	-1.30	3.40	 	 	 	 	 	 	 	 	 	 	 	 	 	 	 	 	 	 	1581483807	10.60	19.63
12/02/2020 05:03:28	120220	12022020	050328	168.28	13.249837	-57.044948	168.41	0.290	-1.190	2.820	168.20	-2.60	3.30	 	 	 	 	 	 	 	 	 	 	 	 	 	 	 	 	 	 	1581483808	11.52	21.34
12/02/2020 05:03:29	120220	12022020	050329	167.88	13.249783	-57.044942	168.03	1.180	-1.440	2.620	167.83	-2.60	3.10	 	 	 	 	 	 	 	 	 	 	 	 	 	 	 	 	 	 	1581483809	11.73	21.72
12/02/2020 05:03:30	120220	12022020	050330	167.78	13.249735	-57.044932	167.98	1.370	-0.400	1.990	167.80	-1.50	2.40	 	 	 	 	 	 	 	 	 	 	 	 	 	 	 	 	 	 	1581483810	10.66	19.74
12/02/2020 05:03:31	120220	12022020	050331	167.96	13.249693	-57.044918	168.16	0.780	0.780	1.410	167.99	-0.40	1.90	 	 	 	 	 	 	 	 	 	 	 	 	 	 	 	 	 	 	1581483811	9.19	17.02
12/02/2020 05:03:32	120220	12022020	050332	168.00	13.249655	-57.044905	168.15	-0.010	0.630	1.790	167.96	-0.80	2.40	 	 	 	 	 	 	 	 	 	 	 	 	 	 	 	 	 	 	1581483812	8.75	16.21
12/02/2020 05:03:33	120220	12022020	050333	167.71	13.249610	-57.044898	167.84	-0.390	-0.800	2.750	167.64	-2.30	3.40	 	 	 	 	 	 	 	 	 	 	 	 	 	 	 	 	 	 	1581483813	9.92	18.37
12/02/2020 05:03:34	120220	12022020	050334	167.37	13.249555	-57.044897	167.54	-0.360	-1.860	3.610	167.31	-3.20	4.20	 	 	 	 	 	 	 	 	 	 	 	 	 	 	 	 	 	 	1581483814	11.69	21.65
12/02/2020 05:03:35	120220	12022020	050335	167.20	13.249500	-57.044895	167.44	-0.350	-1.530	4.120	167.20	-2.70	4.60	 	 	 	 	 	 	 	 	 	 	 	 	 	 	 	 	 	 	1581483815	11.72	21.71
12/02/2020 05:03:36	120220	12022020	050336	167.26	13.249453	-57.044895	167.52	-0.510	-0.410	4.020	167.28	-1.50	4.50	 	 	 	 	 	 	 	 	 	 	 	 	 	 	 	 	 	 	1581483816	10.34	19.15
12/02/2020 05:03:37	120220	12022020	050337	167.22	13.249410	-57.044893	167.41	-0.430	0.190	3.610	167.16	-1.10	4.10	 	 	 	 	 	 	 	 	 	 	 	 	 	 	 	 	 	 	1581483817	9.30	17.22
12/02/2020 05:03:38	120220	12022020	050338	166.74	13.249365	-57.044887	166.88	0.140	-0.270	3.410	166.62	-1.60	3.90	 	 	 	 	 	 	 	 	 	 	 	 	 	 	 	 	 	 	1581483818	9.76	18.08
12/02/2020 05:03:39	120220	12022020	050339	166.16	13.249313	-57.044877	166.34	0.800	-0.820	3.220	166.08	-2.10	3.70	 	 	 	 	 	 	 	 	 	 	 	 	 	 	 	 	 	 	1581483819	11.13	20.61
12/02/2020 05:03:40	120220	12022020	050340	166.00	13.249262	-57.044863	166.28	0.850	-0.460	2.880	166.05	-1.60	3.40	 	 	 	 	 	 	 	 	 	 	 	 	 	 	 	 	 	 	1581483820	11.57	21.43
12/02/2020 05:03:41	120220	12022020	050341	166.42	13.249215	-57.044850	166.77	0.050	0.490	2.740	166.55	-0.70	3.30	 	 	 	 	 	 	 	 	 	 	 	 	 	 	 	 	 	 	1581483821	10.63	19.69
12/02/2020 05:03:42	120220	12022020	050342	167.10	13.249170	-57.044840	167.44	-1.050	1.040	2.960	167.22	-0.20	3.50	 	 	 	 	 	 	 	 	 	 	 	 	 	 	 	 	 	 	1581483822	9.64	17.85
12/02/2020 05:03:43	120220	12022020	050343	167.59	13.249125	-57.044837	167.87	-1.550	0.770	3.250	167.65	-0.60	3.80	 	 	 	 	 	 	 	 	 	 	 	 	 	 	 	 	 	 	1581483823	9.74	18.04
12/02/2020 05:03:44	120220	12022020	050344	167.81	13.249077	-57.044835	168.04	-1.040	-0.110	3.220	167.82	-1.50	3.70	 	 	 	 	 	 	 	 	 	 	 	 	 	 	 	 	 	 	1581483824	10.55	19.54
12/02/2020 05:03:45	120220	12022020	050345	167.71	13.249025	-57.044832	167.84	0.050	-1.000	2.840	167.63	-2.40	3.30	 	 	 	 	 	 	 	 	 	 	 	 	 	 	 	 	 	 	1581483825	11.08	20.52
12/02/2020 05:03:46	120220	12022020	050346	167.15	13.248973	-57.044825	167.21	0.930	-1.380	2.380	167.00	-2.70	2.80	 	 	 	 	 	 	 	 	 	 	 	 	 	 	 	 	 	 	1581483826	11.10	20.56
12/02/2020 05:03:47	120220	12022020	050347	166.39	13.248925	-57.044813	166.44	1.150	-1.050	1.880	166.25	-2.20	2.30	 	 	 	 	 	 	 	 	 	 	 	 	 	 	 	 	 	 	1581483827	10.70	19.82
12/02/2020 05:03:48	120220	12022020	050348	165.76	13.248880	-57.044800	165.84	0.750	-0.210	1.620	165.65	-1.40	2.10	 	 	 	 	 	 	 	 	 	 	 	 	 	 	 	 	 	 	1581483828	10.13	18.76
12/02/2020 05:03:49	120220	12022020	050349	165.31	13.248838	-57.044787	165.43	0.120	0.500	1.850	165.25	-0.70	2.40	 	 	 	 	 	 	 	 	 	 	 	 	 	 	 	 	 	 	1581483829	9.57	17.72
12/02/2020 05:03:50	120220	12022020	050350	165.08	13.248793	-57.044778	165.24	-0.360	0.630	2.330	165.04	-0.70	2.90	 	 	 	 	 	 	 	 	 	 	 	 	 	 	 	 	 	 	1581483830	9.69	17.95
12/02/2020 05:03:51	120220	12022020	050351	164.93	13.248745	-57.044773	165.11	-0.420	0.250	2.750	164.89	-1.10	3.30	 	 	 	 	 	 	 	 	 	 	 	 	 	 	 	 	 	 	1581483831	10.30	19.08
12/02/2020 05:03:52	120220	12022020	050352	164.80	13.248695	-57.044768	165.03	-0.010	-0.360	2.940	164.78	-1.70	3.40	 	 	 	 	 	 	 	 	 	 	 	 	 	 	 	 	 	 	1581483832	10.81	20.02
12/02/2020 05:03:53	120220	12022020	050353	164.72	13.248645	-57.044760	164.95	0.560	-0.930	2.900	164.70	-2.30	3.40	 	 	 	 	 	 	 	 	 	 	 	 	 	 	 	 	 	 	1581483833	10.96	20.30
12/02/2020 05:03:54	120220	12022020	050354	164.61	13.248597	-57.044748	164.83	0.730	-1.240	2.900	164.59	-2.50	3.40	 	 	 	 	 	 	 	 	 	 	 	 	 	 	 	 	 	 	1581483834	10.91	20.21
12/02/2020 05:03:55	120220	12022020	050355	164.59	13.248547	-57.044735	164.84	0.150	-0.980	3.240	164.59	-2.20	3.80	 	 	 	 	 	 	 	 	 	 	 	 	 	 	 	 	 	 	1581483835	10.76	19.93
12/02/2020 05:03:56	120220	12022020	050356	164.59	13.248500	-57.044725	164.84	-0.830	-0.370	3.860	164.58	-1.60	4.40	 	 	 	 	 	 	 	 	 	 	 	 	 	 	 	 	 	 	1581483836	10.23	18.95
12/02/2020 05:03:57	120220	12022020	050357	164.38	13.248455	-57.044722	164.58	-1.410	-0.050	4.490	164.30	-1.30	5.00	 	 	 	 	 	 	 	 	 	 	 	 	 	 	 	 	 	 	1581483837	9.96	18.45
12/02/2020 05:03:58	120220	12022020	050358	163.87	13.248405	-57.044722	164.06	-0.990	-0.490	4.720	163.76	-1.80	5.20	 	 	 	 	 	 	 	 	 	 	 	 	 	 	 	 	 	 	1581483838	10.50	19.45
12/02/2020 05:03:59	120220	12022020	050359	163.40	13.248353	-57.044717	163.62	0.070	-0.720	4.210	163.35	-1.90	4.60	 	 	 	 	 	 	 	 	 	 	 	 	 	 	 	 	 	 	1581483839	11.49	21.28
12/02/2020 05:04:00	120220	12022020	050400	163.39	13.248300	-57.044705	163.70	0.780	0.160	3.190	163.47	-0.90	3.50	 	 	 	 	 	 	 	 	 	 	 	 	 	 	 	 	 	 	1581483840	11.38	21.08
12/02/2020 05:04:01	120220	12022020	050401	164.03	13.248257	-57.044690	164.40	0.660	1.370	1.840	164.21	0.20	2.20	1016.10	26.00	26.10	20.50	20.60	-1.0	71.0	71.0	395.0	25.7	286.00	12.60	69.00	12.30	16	10336.0	27.2	27.2	1581483841	9.97	18.46
12/02/2020 05:04:02	120220	12022020	050402	164.85	13.248218	-57.044670	165.13	0.180	1.380	1.010	164.95	-0.00	1.50	 	 	 	 	 	 	 	 	 	 	 	 	 	 	 	 	 	 	1581483842	9.10	16.85
12/02/2020 05:04:03	120220	12022020	050403	165.14	13.248177	-57.044653	165.33	0.120	-0.210	1.330	165.13	-1.70	1.90	 	 	 	 	 	 	 	 	 	 	 	 	 	 	 	 	 	 	1581483843	9.75	18.06
12/02/2020 05:04:04	120220	12022020	050404	164.88	13.248125	-57.044642	165.03	0.570	-1.940	2.240	164.79	-3.30	2.90	 	 	 	 	 	 	 	 	 	 	 	 	 	 	 	 	 	 	1581483844	11.38	21.08
12/02/2020 05:04:05	120220	12022020	050405	164.36	13.248070	-57.044632	164.51	0.850	-2.170	2.970	164.26	-3.30	3.50	 	 	 	 	 	 	 	 	 	 	 	 	 	 	 	 	 	 	1581483845	11.97	22.17
12/02/2020 05:04:06	120220	12022020	050406	164.00	13.248022	-57.044622	164.21	0.460	-0.980	3.210	163.98	-2.10	3.70	 	 	 	 	 	 	 	 	 	 	 	 	 	 	 	 	 	 	1581483846	10.65	19.72
12/02/2020 05:04:07	120220	12022020	050407	164.04	13.247980	-57.044613	164.30	-0.400	0.300	3.050	164.08	-0.90	3.50	 	 	 	 	 	 	 	 	 	 	 	 	 	 	 	 	 	 	1581483847	9.23	17.09
12/02/2020 05:04:08	120220	12022020	050408	164.22	13.247938	-57.044605	164.48	-1.080	0.630	2.860	164.26	-0.70	3.30	 	 	 	 	 	 	 	 	 	 	 	 	 	 	 	 	 	 	1581483848	9.06	16.78
12/02/2020 05:04:09	120220	12022020	050409	164.35	13.247893	-57.044597	164.59	-1.080	0.010	2.750	164.36	-1.40	3.20	 	 	 	 	 	 	 	 	 	 	 	 	 	 	 	 	 	 	1581483849	10.07	18.65
12/02/2020 05:04:10	120220	12022020	050410	164.38	13.247842	-57.044588	164.62	-0.410	-0.740	2.540	164.39	-2.00	3.00	 	 	 	 	 	 	 	 	 	 	 	 	 	 	 	 	 	 	1581483850	11.19	20.72
12/02/2020 05:04:11	120220	12022020	050411	164.46	13.247788	-57.044578	164.71	0.340	-0.790	2.200	164.48	-2.00	2.60	 	 	 	 	 	 	 	 	 	 	 	 	 	 	 	 	 	 	1581483851	11.47	21.24
12/02/2020 05:04:12	120220	12022020	050412	164.53	13.247740	-57.044565	164.73	0.650	-0.330	1.850	164.52	-1.50	2.30	 	 	 	 	 	 	 	 	 	 	 	 	 	 	 	 	 	 	1581483852	10.72	19.85
12/02/2020 05:04:13	120220	12022020	050413	164.49	13.247695	-57.044552	164.70	0.540	-0.040	1.730	164.49	-1.30	2.20	 	 	 	 	 	 	 	 	 	 	 	 	 	 	 	 	 	 	1581483853	10.08	18.67
12/02/2020 05:04:14	120220	12022020	050414	164.57	13.247650	-57.044538	164.79	0.280	0.100	1.840	164.59	-1.20	2.40	 	 	 	 	 	 	 	 	 	 	 	 	 	 	 	 	 	 	1581483854	10.22	18.93
12/02/2020 05:04:15	120220	12022020	050415	164.79	13.247603	-57.044525	165.04	0.070	0.200	2.130	164.84	-1.10	2.70	 	 	 	 	 	 	 	 	 	 	 	 	 	 	 	 	 	 	1581483855	10.39	19.24
12/02/2020 05:04:16	120220	12022020	050416	165.16	13.247557	-57.044513	165.45	-0.030	0.110	2.350	165.27	-1.20	2.90	 	 	 	 	 	 	 	 	 	 	 	 	 	 	 	 	 	 	1581483856	10.35	19.17
12/02/2020 05:04:17	120220	12022020	050417	165.71	13.247508	-57.044503	166.00	-0.070	-0.120	2.360	165.81	-1.40	2.90	 	 	 	 	 	 	 	 	 	 	 	 	 	 	 	 	 	 	1581483857	10.46	19.37
12/02/2020 05:04:18	120220	12022020	050418	166.17	13.247462	-57.044493	166.43	-0.210	-0.420	2.490	166.22	-1.70	3.00	 	 	 	 	 	 	 	 	 	 	 	 	 	 	 	 	 	 	1581483858	10.47	19.39
12/02/2020 05:04:19	120220	12022020	050419	166.23	13.247413	-57.044483	166.39	-0.380	-0.820	2.930	166.18	-2.10	3.50	 	 	 	 	 	 	 	 	 	 	 	 	 	 	 	 	 	 	1581483859	10.45	19.35
12/02/2020 05:04:20	120220	12022020	050420	165.83	13.247365	-57.044477	165.95	-0.390	-1.120	3.250	165.72	-2.40	3.80	 	 	 	 	 	 	 	 	 	 	 	 	 	 	 	 	 	 	1581483860	10.65	19.72
12/02/2020 05:04:21	120220	12022020	050421	165.30	13.247315	-57.044468	165.40	-0.220	-1.070	3.320	165.19	-2.30	3.80	 	 	 	 	 	 	 	 	 	 	 	 	 	 	 	 	 	 	1581483861	10.79	19.98
12/02/2020 05:04:22	120220	12022020	050422	164.79	13.247267	-57.044460	164.90	0.130	-0.870	3.040	164.70	-2.10	3.40	 	 	 	 	 	 	 	 	 	 	 	 	 	 	 	 	 	 	1581483862	10.67	19.76
12/02/2020 05:04:23	120220	12022020	050423	164.52	13.247217	-57.044450	164.69	0.630	-0.460	2.250	164.53	-1.60	2.60	 	 	 	 	 	 	 	 	 	 	 	 	 	 	 	 	 	 	1581483863	10.76	19.93
12/02/2020 05:04:24	120220	12022020	050424	164.86	13.247168	-57.044437	165.14	0.910	0.460	1.150	165.02	-0.70	1.50	 	 	 	 	 	 	 	 	 	 	 	 	 	 	 	 	 	 	1581483864	10.76	19.93
12/02/2020 05:04:25	120220	12022020	050425	165.75	13.247125	-57.044418	166.05	0.590	1.330	0.470	165.94	0.10	1.00	 	 	 	 	 	 	 	 	 	 	 	 	 	 	 	 	 	 	1581483865	10.17	18.83
12/02/2020 05:04:26	120220	12022020	050426	166.52	13.247083	-57.044402	166.75	-0.160	1.080	1.020	166.60	-0.30	1.70	 	 	 	 	 	 	 	 	 	 	 	 	 	 	 	 	 	 	1581483866	9.70	17.96
12/02/2020 05:04:27	120220	12022020	050427	166.81	13.247037	-57.044392	167.00	-0.790	-0.230	2.220	166.81	-1.70	2.90	 	 	 	 	 	 	 	 	 	 	 	 	 	 	 	 	 	 	1581483867	10.30	19.08
12/02/2020 05:04:28	120220	12022020	050428	166.64	13.246983	-57.044388	166.78	-0.880	-1.530	3.340	166.56	-2.90	3.90	 	 	 	 	 	 	 	 	 	 	 	 	 	 	 	 	 	 	1581483868	11.49	21.28
12/02/2020 05:04:29	120220	12022020	050429	166.23	13.246928	-57.044387	166.38	-0.440	-1.870	3.890	166.15	-3.10	4.40	 	 	 	 	 	 	 	 	 	 	 	 	 	 	 	 	 	 	1581483869	11.76	21.78
12/02/2020 05:04:30	120220	12022020	050430	165.87	13.246878	-57.044385	166.02	0.180	-1.210	3.630	165.81	-2.40	4.00	 	 	 	 	 	 	 	 	 	 	 	 	 	 	 	 	 	 	1581483870	10.89	20.17
12/02/2020 05:04:31	120220	12022020	050431	165.55	13.246833	-57.044375	165.69	0.650	-0.510	2.920	165.49	-1.70	3.30	 	 	 	 	 	 	 	 	 	 	 	 	 	 	 	 	 	 	1581483871	9.83	18.21
12/02/2020 05:04:32	120220	12022020	050432	165.26	13.246788	-57.044362	165.38	0.830	-0.350	2.170	165.21	-1.60	2.60	 	 	 	 	 	 	 	 	 	 	 	 	 	 	 	 	 	 	1581483872	10.00	18.52
12/02/2020 05:04:33	120220	12022020	050433	165.14	13.246740	-57.044345	165.33	0.680	-0.280	1.740	165.17	-1.50	2.20	 	 	 	 	 	 	 	 	 	 	 	 	 	 	 	 	 	 	1581483873	10.85	20.09
12/02/2020 05:04:34	120220	12022020	050434	165.42	13.246692	-57.044328	165.66	0.280	0.300	1.630	165.52	-0.90	2.10	 	 	 	 	 	 	 	 	 	 	 	 	 	 	 	 	 	 	1581483874	11.06	20.48
12/02/2020 05:04:35	120220	12022020	050435	165.96	13.246645	-57.044315	166.23	-0.310	0.900	1.760	166.07	-0.40	2.30	 	 	 	 	 	 	 	 	 	 	 	 	 	 	 	 	 	 	1581483875	10.36	19.19
12/02/2020 05:04:36	120220	12022020	050436	166.50	13.246600	-57.044305	166.80	-0.920	0.710	2.370	166.60	-0.70	3.00	 	 	 	 	 	 	 	 	 	 	 	 	 	 	 	 	 	 	1581483876	9.96	18.45
12/02/2020 05:04:37	120220	12022020	050437	166.87	13.246552	-57.044298	167.13	-1.230	-0.200	3.240	166.91	-1.60	3.80	 	 	 	 	 	 	 	 	 	 	 	 	 	 	 	 	 	 	1581483877	10.59	19.61
12/02/2020 05:04:38	120220	12022020	050438	166.88	13.246498	-57.044298	167.09	-0.930	-1.030	3.790	166.84	-2.40	4.30	 	 	 	 	 	 	 	 	 	 	 	 	 	 	 	 	 	 	1581483878	11.41	21.13
12/02/2020 05:04:39	120220	12022020	050439	166.65	13.246445	-57.044297	166.84	-0.020	-1.150	3.700	166.61	-2.40	4.10	 	 	 	 	 	 	 	 	 	 	 	 	 	 	 	 	 	 	1581483879	11.41	21.13
12/02/2020 05:04:40	120220	12022020	050440	166.53	13.246397	-57.044290	166.75	0.870	-0.710	3.140	166.53	-1.90	3.50	 	 	 	 	 	 	 	 	 	 	 	 	 	 	 	 	 	 	1581483880	10.64	19.71
12/02/2020 05:04:41	120220	12022020	050441	166.56	13.246352	-57.044277	166.77	1.280	-0.380	2.300	166.58	-1.60	2.70	 	 	 	 	 	 	 	 	 	 	 	 	 	 	 	 	 	 	1581483881	10.10	18.71
12/02/2020 05:04:42	120220	12022020	050442	166.72	13.246305	-57.044260	166.96	1.130	-0.290	1.520	166.80	-1.50	2.00	 	 	 	 	 	 	 	 	 	 	 	 	 	 	 	 	 	 	1581483882	10.35	19.17
12/02/2020 05:04:43	120220	12022020	050443	167.23	13.246260	-57.044242	167.49	0.540	-0.170	1.230	167.36	-1.40	1.80	 	 	 	 	 	 	 	 	 	 	 	 	 	 	 	 	 	 	1581483883	10.68	19.78
12/02/2020 05:04:44	120220	12022020	050444	167.69	13.246213	-57.044227	167.90	-0.190	-0.320	1.830	167.73	-1.60	2.50	 	 	 	 	 	 	 	 	 	 	 	 	 	 	 	 	 	 	1581483884	10.50	19.45
12/02/2020 05:04:45	120220	12022020	050445	167.70	13.246163	-57.044218	167.87	-0.700	-0.730	2.960	167.66	-2.00	3.60	 	 	 	 	 	 	 	 	 	 	 	 	 	 	 	 	 	 	1581483885	10.69	19.80
12/02/2020 05:04:46	120220	12022020	050446	167.48	13.246112	-57.044215	167.67	-0.930	-0.840	3.900	167.44	-2.10	4.50	 	 	 	 	 	 	 	 	 	 	 	 	 	 	 	 	 	 	1581483886	11.27	20.87
12/02/2020 05:04:47	120220	12022020	050447	167.42	13.246060	-57.044213	167.67	-0.960	-0.340	4.080	167.45	-1.50	4.50	 	 	 	 	 	 	 	 	 	 	 	 	 	 	 	 	 	 	1581483887	11.28	20.89
12/02/2020 05:04:48	120220	12022020	050448	167.71	13.246010	-57.044212	168.00	-0.850	0.400	3.480	167.80	-0.80	3.90	 	 	 	 	 	 	 	 	 	 	 	 	 	 	 	 	 	 	1581483888	10.59	19.61
12/02/2020 05:04:49	120220	12022020	050449	168.15	13.245963	-57.044205	168.42	-0.480	0.660	2.580	168.24	-0.70	2.90	 	 	 	 	 	 	 	 	 	 	 	 	 	 	 	 	 	 	1581483889	10.07	18.65
12/02/2020 05:04:50	120220	12022020	050450	168.59	13.245917	-57.044195	168.83	0.190	0.280	1.590	168.67	-1.10	2.00	 	 	 	 	 	 	 	 	 	 	 	 	 	 	 	 	 	 	1581483890	10.35	19.17
12/02/2020 05:04:51	120220	12022020	050451	168.95	13.245867	-57.044182	169.16	0.930	-0.200	0.730	169.01	-1.50	1.20	 	 	 	 	 	 	 	 	 	 	 	 	 	 	 	 	 	 	1581483891	10.99	20.35
12/02/2020 05:04:52	120220	12022020	050452	169.17	13.245818	-57.044165	169.35	1.330	-0.400	0.330	169.19	-1.70	0.90	 	 	 	 	 	 	 	 	 	 	 	 	 	 	 	 	 	 	1581483892	11.08	20.52
12/02/2020 05:04:53	120220	12022020	050453	169.24	13.245770	-57.044150	169.41	1.110	-0.450	0.590	169.24	-1.80	1.20	 	 	 	 	 	 	 	 	 	 	 	 	 	 	 	 	 	 	1581483893	10.71	19.83
12/02/2020 05:04:54	120220	12022020	050454	169.15	13.245723	-57.044137	169.32	0.430	-0.680	1.360	169.12	-2.00	2.00	 	 	 	 	 	 	 	 	 	 	 	 	 	 	 	 	 	 	1581483894	10.39	19.24
12/02/2020 05:04:55	120220	12022020	050455	169.06	13.245675	-57.044128	169.28	-0.310	-0.950	2.270	169.08	-2.30	2.90	 	 	 	 	 	 	 	 	 	 	 	 	 	 	 	 	 	 	1581483895	10.62	19.67
12/02/2020 05:04:56	120220	12022020	050456	169.17	13.245625	-57.044127	169.42	-0.820	-0.810	2.960	169.20	-2.10	3.50	 	 	 	 	 	 	 	 	 	 	 	 	 	 	 	 	 	 	1581483896	10.99	20.35
12/02/2020 05:04:57	120220	12022020	050457	169.26	13.245573	-57.044127	169.48	-0.890	-0.390	2.990	169.26	-1.60	3.40	 	 	 	 	 	 	 	 	 	 	 	 	 	 	 	 	 	 	1581483897	10.79	19.98
12/02/2020 05:04:58	120220	12022020	050458	169.26	13.245525	-57.044125	169.46	-0.540	-0.180	2.470	169.26	-1.50	2.90	 	 	 	 	 	 	 	 	 	 	 	 	 	 	 	 	 	 	1581483898	10.43	19.32
12/02/2020 05:04:59	120220	12022020	050459	169.23	13.245477	-57.044118	169.43	-0.110	-0.330	1.970	169.22	-1.70	2.40	 	 	 	 	 	 	 	 	 	 	 	 	 	 	 	 	 	 	1581483899	10.57	19.58
12/02/2020 05:05:00	120220	12022020	050500	169.09	13.245427	-57.044107	169.25	0.130	-0.790	1.920	169.04	-2.10	2.50	 	 	 	 	 	 	 	 	 	 	 	 	 	 	 	 	 	 	1581483900	11.01	20.39
12/02/2020 05:05:01	120220	12022020	050501	168.79	13.245375	-57.044097	168.95	0.140	-1.030	2.260	168.72	-2.30	2.80	1016.20	26.10	26.10	20.70	20.70	-1.0	72.0	72.0	395.0	25.7	288.00	13.30	70.00	12.70	16	10300.0	27.2	27.2	1581483901	11.50	21.30
12/02/2020 05:05:02	120220	12022020	050502	168.59	13.245322	-57.044090	168.83	-0.030	-0.400	2.600	168.61	-1.50	3.10	 	 	 	 	 	 	 	 	 	 	 	 	 	 	 	 	 	 	1581483902	11.57	21.43
12/02/2020 05:05:03	120220	12022020	050503	168.92	13.245272	-57.044085	169.25	-0.210	0.930	2.500	169.04	-0.20	3.00	 	 	 	 	 	 	 	 	 	 	 	 	 	 	 	 	 	 	1581483903	10.76	19.93
12/02/2020 05:05:04	120220	12022020	050504	169.53	13.245227	-57.044080	169.80	-0.150	1.550	2.100	169.62	0.20	2.60	 	 	 	 	 	 	 	 	 	 	 	 	 	 	 	 	 	 	1581483904	9.65	17.87
12/02/2020 05:05:05	120220	12022020	050505	169.86	13.245182	-57.044070	170.09	0.310	0.610	1.860	169.89	-0.90	2.40	 	 	 	 	 	 	 	 	 	 	 	 	 	 	 	 	 	 	1581483905	9.94	18.41
12/02/2020 05:05:06	120220	12022020	050506	169.97	13.245130	-57.044058	170.18	0.760	-0.800	2.110	169.97	-2.20	2.70	 	 	 	 	 	 	 	 	 	 	 	 	 	 	 	 	 	 	1581483906	11.49	21.28
12/02/2020 05:05:07	120220	12022020	050507	169.90	13.245075	-57.044048	170.09	0.650	-1.430	2.720	169.86	-2.70	3.30	 	 	 	 	 	 	 	 	 	 	 	 	 	 	 	 	 	 	1581483907	12.05	22.32
12/02/2020 05:05:08	120220	12022020	050508	169.62	13.245022	-57.044042	169.79	-0.010	-1.120	3.380	169.56	-2.30	4.00	 	 	 	 	 	 	 	 	 	 	 	 	 	 	 	 	 	 	1581483908	11.23	20.80
12/02/2020 05:05:09	120220	12022020	050509	169.33	13.244975	-57.044040	169.51	-0.740	-0.330	3.760	169.28	-1.50	4.30	 	 	 	 	 	 	 	 	 	 	 	 	 	 	 	 	 	 	1581483909	10.37	19.21
12/02/2020 05:05:10	120220	12022020	050510	169.20	13.244928	-57.044042	169.42	-0.850	0.380	3.460	169.22	-0.90	3.90	 	 	 	 	 	 	 	 	 	 	 	 	 	 	 	 	 	 	1581483910	10.00	18.52
12/02/2020 05:05:11	120220	12022020	050511	169.45	13.244882	-57.044040	169.72	-0.210	0.520	2.440	169.54	-0.80	2.80	 	 	 	 	 	 	 	 	 	 	 	 	 	 	 	 	 	 	1581483911	9.99	18.50
12/02/2020 05:05:12	120220	12022020	050512	169.84	13.244833	-57.044030	170.08	0.710	-0.290	1.580	169.90	-1.70	2.00	 	 	 	 	 	 	 	 	 	 	 	 	 	 	 	 	 	 	1581483912	10.38	19.22
12/02/2020 05:05:13	120220	12022020	050513	170.11	13.244783	-57.044017	170.34	1.230	-1.380	1.410	170.16	-2.80	2.00	 	 	 	 	 	 	 	 	 	 	 	 	 	 	 	 	 	 	1581483913	11.41	21.13
12/02/2020 05:05:14	120220	12022020	050514	170.29	13.244728	-57.044005	170.53	1.000	-1.690	1.840	170.32	-2.90	2.40	 	 	 	 	 	 	 	 	 	 	 	 	 	 	 	 	 	 	1581483914	11.87	21.98
12/02/2020 05:05:15	120220	12022020	050515	170.36	13.244677	-57.043997	170.57	0.200	-1.010	2.500	170.34	-2.20	3.10	 	 	 	 	 	 	 	 	 	 	 	 	 	 	 	 	 	 	1581483915	11.18	20.71
12/02/2020 05:05:16	120220	12022020	050516	170.18	13.244630	-57.043992	170.37	-0.670	-0.250	3.270	170.12	-1.50	3.90	 	 	 	 	 	 	 	 	 	 	 	 	 	 	 	 	 	 	1581483916	10.25	18.98
12/02/2020 05:05:17	120220	12022020	050517	169.87	13.244582	-57.043990	170.07	-1.220	0.060	4.030	169.81	-1.20	4.60	 	 	 	 	 	 	 	 	 	 	 	 	 	 	 	 	 	 	1581483917	10.33	19.13
12/02/2020 05:05:18	120220	12022020	050518	169.51	13.244530	-57.043990	169.68	-1.220	0.050	4.450	169.44	-1.30	5.00	 	 	 	 	 	 	 	 	 	 	 	 	 	 	 	 	 	 	1581483918	11.05	20.46
12/02/2020 05:05:19	120220	12022020	050519	169.10	13.244477	-57.043992	169.27	-0.730	0.080	4.370	169.02	-1.20	4.80	 	 	 	 	 	 	 	 	 	 	 	 	 	 	 	 	 	 	1581483919	11.50	21.30
12/02/2020 05:05:20	120220	12022020	050520	168.83	13.244423	-57.043988	169.05	-0.020	0.280	3.910	168.82	-1.00	4.30	 	 	 	 	 	 	 	 	 	 	 	 	 	 	 	 	 	 	1581483920	11.42	21.15
12/02/2020 05:05:21	120220	12022020	050521	168.95	13.244373	-57.043982	169.22	0.560	0.690	2.980	169.04	-0.60	3.40	 	 	 	 	 	 	 	 	 	 	 	 	 	 	 	 	 	 	1581483921	11.09	20.54
12/02/2020 05:05:22	120220	12022020	050522	169.54	13.244325	-57.043970	169.84	0.750	0.930	1.980	169.69	-0.40	2.40	 	 	 	 	 	 	 	 	 	 	 	 	 	 	 	 	 	 	1581483922	10.59	19.61
12/02/2020 05:05:23	120220	12022020	050523	170.25	13.244278	-57.043955	170.52	0.590	0.450	1.680	170.37	-1.00	2.20	 	 	 	 	 	 	 	 	 	 	 	 	 	 	 	 	 	 	1581483923	10.32	19.11
12/02/2020 05:05:24	120220	12022020	050524	170.62	13.244232	-57.043943	170.82	0.350	-0.750	2.280	170.61	-2.20	2.90	 	 	 	 	 	 	 	 	 	 	 	 	 	 	 	 	 	 	1581483924	10.53	19.50
12/02/2020 05:05:25	120220	12022020	050525	170.26	13.244180	-57.043938	170.35	0.320	-2.110	3.390	170.10	-3.50	4.00	 	 	 	 	 	 	 	 	 	 	 	 	 	 	 	 	 	 	1581483925	11.14	20.63
12/02/2020 05:05:26	120220	12022020	050526	169.41	13.244125	-57.043937	169.52	0.420	-2.620	4.340	169.26	-3.90	4.90	 	 	 	 	 	 	 	 	 	 	 	 	 	 	 	 	 	 	1581483926	11.70	21.67
12/02/2020 05:05:27	120220	12022020	050527	168.87	13.244072	-57.043935	169.10	0.180	-1.610	4.690	168.83	-2.70	5.20	 	 	 	 	 	 	 	 	 	 	 	 	 	 	 	 	 	 	1581483927	11.40	21.11
12/02/2020 05:05:28	120220	12022020	050528	168.78	13.244025	-57.043932	169.05	-0.490	0.010	4.610	168.78	-1.10	5.10	 	 	 	 	 	 	 	 	 	 	 	 	 	 	 	 	 	 	1581483928	10.05	18.61
12/02/2020 05:05:29	120220	12022020	050529	168.76	13.243982	-57.043930	169.01	-0.990	0.770	4.240	168.75	-0.50	4.70	 	 	 	 	 	 	 	 	 	 	 	 	 	 	 	 	 	 	1581483929	9.36	17.33
12/02/2020 05:05:30	120220	12022020	050530	168.69	13.243935	-57.043927	168.94	-0.790	0.320	3.730	168.69	-1.10	4.20	 	 	 	 	 	 	 	 	 	 	 	 	 	 	 	 	 	 	1581483930	10.22	18.93
12/02/2020 05:05:31	120220	12022020	050531	168.81	13.243882	-57.043920	169.10	-0.010	-0.330	3.180	168.89	-1.70	3.60	 	 	 	 	 	 	 	 	 	 	 	 	 	 	 	 	 	 	1581483931	11.59	21.46
12/02/2020 05:05:32	120220	12022020	050532	169.42	13.243827	-57.043910	169.79	0.640	-0.270	2.550	169.61	-1.50	3.00	 	 	 	 	 	 	 	 	 	 	 	 	 	 	 	 	 	 	1581483932	11.95	22.13
12/02/2020 05:05:33	120220	12022020	050533	170.39	13.243777	-57.043900	170.75	0.630	0.240	2.110	170.58	-1.00	2.60	 	 	 	 	 	 	 	 	 	 	 	 	 	 	 	 	 	 	1581483933	11.08	20.52
12/02/2020 05:05:34	120220	12022020	050534	171.04	13.243730	-57.043888	171.28	0.180	0.340	2.430	171.08	-1.00	3.00	 	 	 	 	 	 	 	 	 	 	 	 	 	 	 	 	 	 	1581483934	10.20	18.89
12/02/2020 05:05:35	120220	12022020	050535	170.98	13.243682	-57.043882	171.13	-0.190	-0.180	3.290	170.90	-1.60	3.90	 	 	 	 	 	 	 	 	 	 	 	 	 	 	 	 	 	 	1581483935	10.32	19.11
12/02/2020 05:05:36	120220	12022020	050536	170.57	13.243632	-57.043878	170.72	-0.310	-0.620	3.890	170.48	-1.90	4.40	 	 	 	 	 	 	 	 	 	 	 	 	 	 	 	 	 	 	1581483936	11.03	20.43
12/02/2020 05:05:37	120220	12022020	050537	170.15	13.243580	-57.043877	170.29	-0.230	-0.720	3.910	170.07	-2.00	4.40	 	 	 	 	 	 	 	 	 	 	 	 	 	 	 	 	 	 	1581483937	11.09	20.54
12/02/2020 05:05:38	120220	12022020	050538	169.80	13.243530	-57.043872	169.96	-0.050	-0.670	3.490	169.75	-2.00	3.90	 	 	 	 	 	 	 	 	 	 	 	 	 	 	 	 	 	 	1581483938	10.75	19.91
12/02/2020 05:05:39	120220	12022020	050539	169.66	13.243480	-57.043867	169.85	0.110	-0.470	2.710	169.67	-1.70	3.10	 	 	 	 	 	 	 	 	 	 	 	 	 	 	 	 	 	 	1581483939	10.65	19.72
12/02/2020 05:05:40	120220	12022020	050540	169.74	13.243433	-57.043858	169.92	0.130	-0.100	1.880	169.76	-1.40	2.30	 	 	 	 	 	 	 	 	 	 	 	 	 	 	 	 	 	 	1581483940	10.50	19.45
12/02/2020 05:05:41	120220	12022020	050541	169.75	13.243387	-57.043848	169.91	0.050	-0.010	1.630	169.72	-1.30	2.20	 	 	 	 	 	 	 	 	 	 	 	 	 	 	 	 	 	 	1581483941	10.21	18.91
12/02/2020 05:05:42	120220	12022020	050542	169.50	13.243338	-57.043842	169.61	0.060	-0.460	1.960	169.42	-1.80	2.50	 	 	 	 	 	 	 	 	 	 	 	 	 	 	 	 	 	 	1581483942	10.41	19.28
12/02/2020 05:05:43	120220	12022020	050543	169.01	13.243287	-57.043835	169.13	0.160	-0.960	2.580	168.93	-2.30	3.20	 	 	 	 	 	 	 	 	 	 	 	 	 	 	 	 	 	 	1581483943	11.10	20.56
12/02/2020 05:05:44	120220	12022020	050544	168.73	13.243233	-57.043830	168.96	0.110	-0.700	3.130	168.74	-1.90	3.70	 	 	 	 	 	 	 	 	 	 	 	 	 	 	 	 	 	 	1581483944	11.49	21.28
12/02/2020 05:05:45	120220	12022020	050545	168.89	13.243183	-57.043827	169.16	-0.170	0.070	3.320	168.94	-1.10	3.80	 	 	 	 	 	 	 	 	 	 	 	 	 	 	 	 	 	 	1581483945	10.82	20.04
12/02/2020 05:05:46	120220	12022020	050546	169.12	13.243137	-57.043822	169.38	-0.370	0.360	3.310	169.16	-1.00	3.80	 	 	 	 	 	 	 	 	 	 	 	 	 	 	 	 	 	 	1581483946	10.04	18.59
12/02/2020 05:05:47	120220	12022020	050547	169.16	13.243088	-57.043815	169.37	-0.240	-0.300	3.480	169.13	-1.70	4.00	 	 	 	 	 	 	 	 	 	 	 	 	 	 	 	 	 	 	1581483947	10.41	19.28
12/02/2020 05:05:48	120220	12022020	050548	168.94	13.243035	-57.043808	169.15	0.040	-1.090	3.720	168.90	-2.40	4.20	 	 	 	 	 	 	 	 	 	 	 	 	 	 	 	 	 	 	1581483948	11.57	21.43
12/02/2020 05:05:49	120220	12022020	050549	169.00	13.242980	-57.043803	169.31	0.090	-0.690	3.430	169.09	-1.80	3.90	 	 	 	 	 	 	 	 	 	 	 	 	 	 	 	 	 	 	1581483949	12.02	22.26
12/02/2020 05:05:50	120220	12022020	050550	169.58	13.242930	-57.043797	169.91	-0.200	0.600	2.750	169.71	-0.60	3.20	 	 	 	 	 	 	 	 	 	 	 	 	 	 	 	 	 	 	1581483950	10.73	19.87
12/02/2020 05:05:51	120220	12022020	050551	170.12	13.242888	-57.043788	170.37	-0.440	1.080	2.290	170.18	-0.30	2.80	 	 	 	 	 	 	 	 	 	 	 	 	 	 	 	 	 	 	1581483951	9.30	17.22
12/02/2020 05:05:52	120220	12022020	050552	170.27	13.242843	-57.043782	170.45	-0.230	0.250	2.220	170.27	-1.20	2.70	 	 	 	 	 	 	 	 	 	 	 	 	 	 	 	 	 	 	1581483952	9.81	18.17
12/02/2020 05:05:53	120220	12022020	050553	170.14	13.242792	-57.043773	170.28	0.280	-0.860	2.420	170.09	-2.30	3.00	 	 	 	 	 	 	 	 	 	 	 	 	 	 	 	 	 	 	1581483953	11.19	20.72
12/02/2020 05:05:54	120220	12022020	050554	169.81	13.242738	-57.043765	169.95	0.700	-1.420	2.770	169.73	-2.70	3.30	 	 	 	 	 	 	 	 	 	 	 	 	 	 	 	 	 	 	1581483954	11.63	21.54
12/02/2020 05:05:55	120220	12022020	050555	169.34	13.242687	-57.043757	169.46	0.730	-1.320	3.020	169.24	-2.60	3.60	 	 	 	 	 	 	 	 	 	 	 	 	 	 	 	 	 	 	1581483955	11.23	20.80
12/02/2020 05:05:56	120220	12022020	050556	168.81	13.242637	-57.043750	168.94	0.390	-0.790	3.160	168.71	-2.00	3.70	 	 	 	 	 	 	 	 	 	 	 	 	 	 	 	 	 	 	1581483956	10.74	19.89
12/02/2020 05:05:57	120220	12022020	050557	168.41	13.242588	-57.043743	168.57	-0.120	-0.120	3.200	168.36	-1.30	3.70	 	 	 	 	 	 	 	 	 	 	 	 	 	 	 	 	 	 	1581483957	10.47	19.39
12/02/2020 05:05:58	120220	12022020	050558	168.35	13.242540	-57.043737	168.60	-0.590	0.450	2.900	168.41	-0.80	3.40	 	 	 	 	 	 	 	 	 	 	 	 	 	 	 	 	 	 	1581483958	10.45	19.35
12/02/2020 05:05:59	120220	12022020	050559	168.81	13.242492	-57.043730	169.12	-0.980	0.720	2.650	168.94	-0.60	3.10	 	 	 	 	 	 	 	 	 	 	 	 	 	 	 	 	 	 	1581483959	10.51	19.46
12/02/2020 05:06:00	120220	12022020	050600	169.60	13.242443	-57.043727	169.95	-1.040	0.530	2.440	169.78	-0.80	2.90	 	 	 	 	 	 	 	 	 	 	 	 	 	 	 	 	 	 	1581483960	10.62	19.67
12/02/2020 05:06:01	120220	12022020	050601	170.37	13.242392	-57.043725	170.66	-0.560	0.030	2.090	170.49	-1.40	2.60	1016.00	26.00	26.10	20.30	20.40	-1.0	71.0	71.0	396.0	25.7	287.00	13.90	74.00	13.30	16	9810.0	27.2	27.2	1581483961	10.86	20.11
12/02/2020 05:06:02	120220	12022020	050602	170.80	13.242342	-57.043720	171.03	0.380	-0.640	1.890	170.86	-2.00	2.40	 	 	 	 	 	 	 	 	 	 	 	 	 	 	 	 	 	 	1581483962	10.93	20.24
12/02/2020 05:06:03	120220	12022020	050603	171.01	13.242292	-57.043710	171.21	1.160	-1.210	1.920	171.03	-2.60	2.50	 	 	 	 	 	 	 	 	 	 	 	 	 	 	 	 	 	 	1581483963	11.09	20.54
12/02/2020 05:06:04	120220	12022020	050604	171.02	13.242240	-57.043698	171.23	1.250	-1.370	2.270	171.03	-2.60	2.90	 	 	 	 	 	 	 	 	 	 	 	 	 	 	 	 	 	 	1581483964	11.15	20.65
12/02/2020 05:06:05	120220	12022020	050605	171.09	13.242190	-57.043688	171.35	0.550	-0.920	2.840	171.12	-2.10	3.40	 	 	 	 	 	 	 	 	 	 	 	 	 	 	 	 	 	 	1581483965	10.99	20.35
12/02/2020 05:06:06	120220	12022020	050606	171.29	13.242142	-57.043682	171.58	-0.450	-0.060	3.360	171.34	-1.30	3.90	 	 	 	 	 	 	 	 	 	 	 	 	 	 	 	 	 	 	1581483966	10.45	19.35
12/02/2020 05:06:07	120220	12022020	050607	171.60	13.242095	-57.043678	171.91	-1.040	0.510	3.580	171.68	-0.80	4.10	 	 	 	 	 	 	 	 	 	 	 	 	 	 	 	 	 	 	1581483967	10.05	18.61
12/02/2020 05:06:08	120220	12022020	050608	172.12	13.242047	-57.043677	172.45	-0.900	0.400	3.200	172.24	-1.00	3.60	 	 	 	 	 	 	 	 	 	 	 	 	 	 	 	 	 	 	1581483968	10.37	19.21
12/02/2020 05:06:09	120220	12022020	050609	172.75	13.241997	-57.043673	173.07	-0.300	-0.090	2.670	172.88	-1.40	3.10	 	 	 	 	 	 	 	 	 	 	 	 	 	 	 	 	 	 	1581483969	11.04	20.45
12/02/2020 05:06:10	120220	12022020	050610	173.41	13.241943	-57.043668	173.72	0.210	-0.380	2.070	173.56	-1.70	2.50	 	 	 	 	 	 	 	 	 	 	 	 	 	 	 	 	 	 	1581483970	11.39	21.09
12/02/2020 05:06:11	120220	12022020	050611	174.10	13.241893	-57.043660	174.35	0.320	-0.220	1.500	174.22	-1.50	2.00	 	 	 	 	 	 	 	 	 	 	 	 	 	 	 	 	 	 	1581483971	11.09	20.54
12/02/2020 05:06:12	120220	12022020	050612	174.67	13.241845	-57.043652	174.88	0.110	-0.030	1.280	174.78	-1.40	1.80	 	 	 	 	 	 	 	 	 	 	 	 	 	 	 	 	 	 	1581483972	10.48	19.41
12/02/2020 05:06:13	120220	12022020	050613	175.17	13.241797	-57.043645	175.38	-0.150	-0.210	1.490	175.27	-1.60	2.00	 	 	 	 	 	 	 	 	 	 	 	 	 	 	 	 	 	 	1581483973	10.31	19.09
12/02/2020 05:06:14	120220	12022020	050614	175.64	13.241748	-57.043642	175.84	-0.140	-0.520	1.740	175.73	-1.90	2.30	 	 	 	 	 	 	 	 	 	 	 	 	 	 	 	 	 	 	1581483974	10.66	19.74
12/02/2020 05:06:15	120220	12022020	050615	176.10	13.241697	-57.043640	176.32	0.200	-0.580	1.740	176.22	-1.90	2.20	 	 	 	 	 	 	 	 	 	 	 	 	 	 	 	 	 	 	1581483975	10.92	20.22
12/02/2020 05:06:16	120220	12022020	050616	176.74	13.241647	-57.043637	177.00	0.560	-0.410	1.500	176.89	-1.70	2.00	 	 	 	 	 	 	 	 	 	 	 	 	 	 	 	 	 	 	1581483976	10.74	19.89
12/02/2020 05:06:17	120220	12022020	050617	177.47	13.241598	-57.043630	177.71	0.620	-0.340	1.250	177.61	-1.70	1.70	 	 	 	 	 	 	 	 	 	 	 	 	 	 	 	 	 	 	1581483977	10.53	19.50
12/02/2020 05:06:18	120220	12022020	050618	178.05	13.241550	-57.043623	178.24	0.400	-0.610	1.180	178.13	-2.00	1.70	 	 	 	 	 	 	 	 	 	 	 	 	 	 	 	 	 	 	1581483978	10.61	19.65
12/02/2020 05:06:19	120220	12022020	050619	178.44	13.241498	-57.043618	178.65	0.070	-1.030	1.360	178.52	-2.40	1.90	 	 	 	 	 	 	 	 	 	 	 	 	 	 	 	 	 	 	1581483979	11.03	20.43
12/02/2020 05:06:20	120220	12022020	050620	179.07	13.241445	-57.043615	179.37	-0.400	-0.810	1.530	179.25	-2.00	2.10	 	 	 	 	 	 	 	 	 	 	 	 	 	 	 	 	 	 	1581483980	11.43	21.17
12/02/2020 05:06:21	120220	12022020	050621	180.26	13.241395	-57.043617	180.64	-0.960	0.280	1.530	180.56	-0.90	2.00	 	 	 	 	 	 	 	 	 	 	 	 	 	 	 	 	 	 	1581483981	10.91	20.21
12/02/2020 05:06:22	120220	12022020	050622	181.64	13.241350	-57.043618	181.98	-1.320	1.070	1.340	181.87	-0.30	1.80	 	 	 	 	 	 	 	 	 	 	 	 	 	 	 	 	 	 	1581483982	9.77	18.09
12/02/2020 05:06:23	120220	12022020	050623	182.48	13.241305	-57.043622	182.70	-0.980	0.450	1.280	182.58	-1.10	1.80	 	 	 	 	 	 	 	 	 	 	 	 	 	 	 	 	 	 	1581483983	9.73	18.02
12/02/2020 05:06:24	120220	12022020	050624	182.83	13.241252	-57.043627	183.04	0.030	-0.830	1.290	182.90	-2.30	1.80	 	 	 	 	 	 	 	 	 	 	 	 	 	 	 	 	 	 	1581483984	11.21	20.76
12/02/2020 05:06:25	120220	12022020	050625	183.30	13.241195	-57.043628	183.57	0.960	-1.000	1.000	183.43	-2.30	1.40	 	 	 	 	 	 	 	 	 	 	 	 	 	 	 	 	 	 	1581483985	12.21	22.61
12/02/2020 05:06:26	120220	12022020	050626	184.09	13.241143	-57.043628	184.37	1.160	-0.020	0.450	184.26	-1.20	0.90	 	 	 	 	 	 	 	 	 	 	 	 	 	 	 	 	 	 	1581483986	11.17	20.69
12/02/2020 05:06:27	120220	12022020	050627	184.85	13.241098	-57.043623	185.06	0.790	0.590	0.160	184.96	-0.80	0.70	 	 	 	 	 	 	 	 	 	 	 	 	 	 	 	 	 	 	1581483987	9.73	18.02
12/02/2020 05:06:28	120220	12022020	050628	185.24	13.241053	-57.043622	185.38	0.520	0.090	0.420	185.27	-1.40	1.00	 	 	 	 	 	 	 	 	 	 	 	 	 	 	 	 	 	 	1581483988	9.80	18.15
12/02/2020 05:06:29	120220	12022020	050629	185.43	13.241002	-57.043623	185.60	0.580	-0.650	0.770	185.49	-2.10	1.30	 	 	 	 	 	 	 	 	 	 	 	 	 	 	 	 	 	 	1581483989	10.93	20.24
12/02/2020 05:06:30	120220	12022020	050630	185.93	13.240950	-57.043625	186.16	0.420	-0.840	0.820	186.07	-2.20	1.40	 	 	 	 	 	 	 	 	 	 	 	 	 	 	 	 	 	 	1581483990	11.44	21.19
12/02/2020 05:06:31	120220	12022020	050631	186.74	13.240898	-57.043627	187.00	-0.310	-0.750	1.160	186.92	-2.10	1.70	 	 	 	 	 	 	 	 	 	 	 	 	 	 	 	 	 	 	1581483991	10.89	20.17
12/02/2020 05:06:32	120220	12022020	050632	187.60	13.240850	-57.043635	187.82	-1.230	-0.700	1.620	187.74	-2.10	2.20	 	 	 	 	 	 	 	 	 	 	 	 	 	 	 	 	 	 	1581483992	10.51	19.46
12/02/2020 05:06:33	120220	12022020	050633	188.19	13.240803	-57.043648	188.38	-1.610	-0.790	1.910	188.26	-2.20	2.40	 	 	 	 	 	 	 	 	 	 	 	 	 	 	 	 	 	 	1581483993	10.64	19.71
12/02/2020 05:06:34	120220	12022020	050634	188.49	13.240753	-57.043665	188.64	-1.020	-0.790	1.800	188.53	-2.10	2.30	 	 	 	 	 	 	 	 	 	 	 	 	 	 	 	 	 	 	1581483994	11.01	20.39
12/02/2020 05:06:35	120220	12022020	050635	188.64	13.240703	-57.043677	188.76	0.000	-0.440	1.360	188.67	-1.70	1.80	 	 	 	 	 	 	 	 	 	 	 	 	 	 	 	 	 	 	1581483995	11.08	20.52
12/02/2020 05:06:36	120220	12022020	050636	188.85	13.240653	-57.043683	188.98	0.680	0.080	0.720	188.90	-1.20	1.20	 	 	 	 	 	 	 	 	 	 	 	 	 	 	 	 	 	 	1581483996	10.82	20.04
12/02/2020 05:06:37	120220	12022020	050637	189.15	13.240605	-57.043687	189.29	0.760	0.340	0.160	189.22	-1.00	0.60	 	 	 	 	 	 	 	 	 	 	 	 	 	 	 	 	 	 	1581483997	10.65	19.72
12/02/2020 05:06:38	120220	12022020	050638	189.55	13.240555	-57.043688	189.70	0.510	0.360	-0.280	189.65	-1.00	0.20	 	 	 	 	 	 	 	 	 	 	 	 	 	 	 	 	 	 	1581483998	10.81	20.02
12/02/2020 05:06:39	120220	12022020	050639	190.00	13.240503	-57.043692	190.13	0.300	0.290	-0.250	190.07	-1.10	0.30	 	 	 	 	 	 	 	 	 	 	 	 	 	 	 	 	 	 	1581483999	10.93	20.24
12/02/2020 05:06:40	120220	12022020	050640	190.22	13.240453	-57.043697	190.31	0.280	0.090	0.290	190.22	-1.30	0.90	 	 	 	 	 	 	 	 	 	 	 	 	 	 	 	 	 	 	1581484000	10.80	20.00
12/02/2020 05:06:41	120220	12022020	050641	190.22	13.240403	-57.043705	190.31	0.230	-0.190	0.990	190.22	-1.60	1.60	 	 	 	 	 	 	 	 	 	 	 	 	 	 	 	 	 	 	1581484001	10.82	20.04
12/02/2020 05:06:42	120220	12022020	050642	190.25	13.240355	-57.043715	190.37	-0.050	-0.410	1.590	190.26	-1.80	2.10	 	 	 	 	 	 	 	 	 	 	 	 	 	 	 	 	 	 	1581484002	10.90	20.19
12/02/2020 05:06:43	120220	12022020	050643	190.28	13.240307	-57.043728	190.39	-0.340	-0.490	1.780	190.28	-1.90	2.30	 	 	 	 	 	 	 	 	 	 	 	 	 	 	 	 	 	 	1581484003	10.81	20.02
12/02/2020 05:06:44	120220	12022020	050644	190.25	13.240258	-57.043742	190.36	-0.270	-0.570	1.590	190.25	-2.00	2.00	 	 	 	 	 	 	 	 	 	 	 	 	 	 	 	 	 	 	1581484004	10.62	19.67
12/02/2020 05:06:45	120220	12022020	050645	190.33	13.240210	-57.043755	190.45	0.130	-0.710	1.170	190.37	-2.10	1.60	 	 	 	 	 	 	 	 	 	 	 	 	 	 	 	 	 	 	1581484005	10.66	19.74
12/02/2020 05:06:46	120220	12022020	050646	190.54	13.240162	-57.043765	190.66	0.440	-0.890	0.870	190.58	-2.30	1.40	 	 	 	 	 	 	 	 	 	 	 	 	 	 	 	 	 	 	1581484006	10.84	20.08
12/02/2020 05:06:47	120220	12022020	050647	190.67	13.240110	-57.043773	190.75	0.410	-0.930	1.080	190.67	-2.30	1.60	 	 	 	 	 	 	 	 	 	 	 	 	 	 	 	 	 	 	1581484007	10.95	20.28
12/02/2020 05:06:48	120220	12022020	050648	190.55	13.240062	-57.043785	190.59	0.100	-0.730	1.740	190.50	-2.00	2.30	 	 	 	 	 	 	 	 	 	 	 	 	 	 	 	 	 	 	1581484008	10.90	20.19
12/02/2020 05:06:49	120220	12022020	050649	190.24	13.240013	-57.043798	190.28	-0.280	-0.330	2.470	190.16	-1.60	3.00	 	 	 	 	 	 	 	 	 	 	 	 	 	 	 	 	 	 	1581484009	10.80	20.00
12/02/2020 05:06:50	120220	12022020	050650	189.87	13.239965	-57.043813	189.93	-0.510	0.030	2.890	189.82	-1.30	3.40	 	 	 	 	 	 	 	 	 	 	 	 	 	 	 	 	 	 	1581484010	10.76	19.93
12/02/2020 05:06:51	120220	12022020	050651	189.74	13.239917	-57.043828	189.85	-0.440	0.290	2.770	189.75	-1.00	3.20	 	 	 	 	 	 	 	 	 	 	 	 	 	 	 	 	 	 	1581484011	10.88	20.15
12/02/2020 05:06:52	120220	12022020	050652	189.91	13.239867	-57.043842	190.07	-0.020	0.400	2.250	189.98	-1.00	2.70	 	 	 	 	 	 	 	 	 	 	 	 	 	 	 	 	 	 	1581484012	10.94	20.26
12/02/2020 05:06:53	120220	12022020	050653	190.31	13.239817	-57.043850	190.50	0.540	0.250	1.440	190.41	-1.10	1.90	 	 	 	 	 	 	 	 	 	 	 	 	 	 	 	 	 	 	1581484013	10.97	20.32
12/02/2020 05:06:54	120220	12022020	050654	190.89	13.239765	-57.043855	191.13	0.830	-0.010	0.890	191.03	-1.40	1.40	 	 	 	 	 	 	 	 	 	 	 	 	 	 	 	 	 	 	1581484014	11.14	20.63
12/02/2020 05:06:55	120220	12022020	050655	191.58	13.239715	-57.043860	191.81	0.550	-0.150	1.010	191.70	-1.50	1.60	 	 	 	 	 	 	 	 	 	 	 	 	 	 	 	 	 	 	1581484015	11.08	20.52
12/02/2020 05:06:56	120220	12022020	050656	192.03	13.239665	-57.043868	192.17	-0.090	-0.370	1.610	192.05	-1.80	2.20	 	 	 	 	 	 	 	 	 	 	 	 	 	 	 	 	 	 	1581484016	10.61	19.65
12/02/2020 05:06:57	120220	12022020	050657	191.89	13.239618	-57.043882	191.95	-0.460	-0.930	2.550	191.80	-2.40	3.20	 	 	 	 	 	 	 	 	 	 	 	 	 	 	 	 	 	 	1581484017	10.54	19.52
12/02/2020 05:06:58	120220	12022020	050658	191.27	13.239570	-57.043900	191.30	-0.220	-1.580	3.310	191.14	-3.00	3.90	 	 	 	 	 	 	 	 	 	 	 	 	 	 	 	 	 	 	1581484018	11.13	20.61
12/02/2020 05:06:59	120220	12022020	050659	190.63	13.239518	-57.043917	190.69	0.180	-1.490	3.400	190.54	-2.80	3.90	 	 	 	 	 	 	 	 	 	 	 	 	 	 	 	 	 	 	1581484019	11.69	21.65
12/02/2020 05:07:00	120220	12022020	050700	190.32	13.239467	-57.043930	190.41	0.210	-0.480	2.870	190.30	-1.70	3.30	 	 	 	 	 	 	 	 	 	 	 	 	 	 	 	 	 	 	1581484020	11.24	20.82
12/02/2020 05:07:01	120220	12022020	050701	190.27	13.239420	-57.043940	190.38	-0.110	0.600	2.120	190.28	-0.70	2.50	1016.10	26.00	26.10	20.40	20.50	-1.0	71.0	71.0	398.0	25.7	267.00	11.50	66.00	13.10	16	8393.0	27.2	27.2	1581484021	10.27	19.02
12/02/2020 05:07:02	120220	12022020	050702	190.33	13.239375	-57.043948	190.43	-0.360	0.970	1.480	190.34	-0.40	1.90	 	 	 	 	 	 	 	 	 	 	 	 	 	 	 	 	 	 	1581484022	10.02	18.56
12/02/2020 05:07:03	120220	12022020	050703	190.37	13.239327	-57.043957	190.46	-0.240	0.560	1.170	190.38	-0.90	1.70	 	 	 	 	 	 	 	 	 	 	 	 	 	 	 	 	 	 	1581484023	10.59	19.61
12/02/2020 05:07:04	120220	12022020	050704	190.41	13.239275	-57.043968	190.52	0.210	-0.180	1.070	190.43	-1.60	1.60	 	 	 	 	 	 	 	 	 	 	 	 	 	 	 	 	 	 	1581484024	11.27	20.87
12/02/2020 05:07:05	120220	12022020	050705	190.55	13.239222	-57.043980	190.69	0.590	-0.640	1.000	190.61	-2.00	1.50	 	 	 	 	 	 	 	 	 	 	 	 	 	 	 	 	 	 	1581484025	11.57	21.43
12/02/2020 05:07:06	120220	12022020	050706	190.95	13.239172	-57.043990	191.15	0.520	-0.590	1.120	191.06	-1.90	1.70	 	 	 	 	 	 	 	 	 	 	 	 	 	 	 	 	 	 	1581484026	11.23	20.80
12/02/2020 05:07:07	120220	12022020	050707	191.50	13.239123	-57.044000	191.71	0.000	-0.350	1.620	191.60	-1.70	2.20	 	 	 	 	 	 	 	 	 	 	 	 	 	 	 	 	 	 	1581484027	10.57	19.58
12/02/2020 05:07:08	120220	12022020	050708	191.86	13.239077	-57.044013	192.02	-0.420	-0.400	2.210	191.88	-1.80	2.80	 	 	 	 	 	 	 	 	 	 	 	 	 	 	 	 	 	 	1581484028	10.22	18.93
12/02/2020 05:07:09	120220	12022020	050709	191.87	13.239030	-57.044028	191.99	-0.350	-0.860	2.650	191.86	-2.30	3.20	 	 	 	 	 	 	 	 	 	 	 	 	 	 	 	 	 	 	1581484029	10.60	19.63
12/02/2020 05:07:10	120220	12022020	050710	191.77	13.238980	-57.044045	191.88	0.070	-1.130	2.680	191.75	-2.50	3.10	 	 	 	 	 	 	 	 	 	 	 	 	 	 	 	 	 	 	1581484030	11.27	20.87
12/02/2020 05:07:11	120220	12022020	050711	191.68	13.238928	-57.044057	191.79	0.410	-0.870	2.250	191.68	-2.20	2.70	 	 	 	 	 	 	 	 	 	 	 	 	 	 	 	 	 	 	1581484031	11.38	21.08
12/02/2020 05:07:12	120220	12022020	050712	191.76	13.238878	-57.044067	191.91	0.340	-0.270	1.660	191.81	-1.50	2.10	 	 	 	 	 	 	 	 	 	 	 	 	 	 	 	 	 	 	1581484032	11.00	20.37
12/02/2020 05:07:13	120220	12022020	050713	192.05	13.238828	-57.044073	192.22	-0.040	0.270	1.260	192.13	-1.00	1.80	 	 	 	 	 	 	 	 	 	 	 	 	 	 	 	 	 	 	1581484033	10.73	19.87
12/02/2020 05:07:14	120220	12022020	050714	192.41	13.238780	-57.044082	192.56	-0.390	0.510	1.250	192.47	-0.80	1.80	 	 	 	 	 	 	 	 	 	 	 	 	 	 	 	 	 	 	1581484034	10.68	19.78
12/02/2020 05:07:15	120220	12022020	050715	192.71	13.238732	-57.044093	192.85	-0.480	0.450	1.500	192.76	-0.90	2.10	 	 	 	 	 	 	 	 	 	 	 	 	 	 	 	 	 	 	1581484035	10.87	20.13
12/02/2020 05:07:16	120220	12022020	050716	192.89	13.238682	-57.044108	193.01	-0.390	0.250	1.880	192.90	-1.10	2.40	 	 	 	 	 	 	 	 	 	 	 	 	 	 	 	 	 	 	1581484036	11.00	20.37
12/02/2020 05:07:17	120220	12022020	050717	192.81	13.238633	-57.044122	192.88	-0.170	-0.120	2.180	192.75	-1.50	2.70	 	 	 	 	 	 	 	 	 	 	 	 	 	 	 	 	 	 	1581484037	10.94	20.26
12/02/2020 05:07:18	120220	12022020	050718	192.29	13.238583	-57.044137	192.30	0.170	-0.880	2.310	192.15	-2.30	2.80	 	 	 	 	 	 	 	 	 	 	 	 	 	 	 	 	 	 	1581484038	10.98	20.33
12/02/2020 05:07:19	120220	12022020	050719	191.57	13.238532	-57.044152	191.58	0.470	-1.510	2.240	191.44	-2.90	2.70	 	 	 	 	 	 	 	 	 	 	 	 	 	 	 	 	 	 	1581484039	11.48	21.26
12/02/2020 05:07:20	120220	12022020	050720	191.19	13.238480	-57.044167	191.29	0.490	-1.070	1.840	191.19	-2.30	2.30	 	 	 	 	 	 	 	 	 	 	 	 	 	 	 	 	 	 	1581484040	11.67	21.61
12/02/2020 05:07:21	120220	12022020	050721	191.36	13.238432	-57.044178	191.52	0.140	0.100	1.120	191.44	-1.10	1.50	 	 	 	 	 	 	 	 	 	 	 	 	 	 	 	 	 	 	1581484041	10.68	19.78
12/02/2020 05:07:22	120220	12022020	050722	191.83	13.238387	-57.044187	192.00	-0.340	0.740	0.680	191.92	-0.60	1.20	 	 	 	 	 	 	 	 	 	 	 	 	 	 	 	 	 	 	1581484042	9.73	18.02
12/02/2020 05:07:23	120220	12022020	050723	192.22	13.238342	-57.044198	192.37	-0.490	0.190	0.880	192.27	-1.30	1.40	 	 	 	 	 	 	 	 	 	 	 	 	 	 	 	 	 	 	1581484043	10.11	18.72
12/02/2020 05:07:24	120220	12022020	050724	192.41	13.238290	-57.044213	192.55	-0.170	-0.760	1.360	192.44	-2.20	1.90	 	 	 	 	 	 	 	 	 	 	 	 	 	 	 	 	 	 	1581484044	11.41	21.13
12/02/2020 05:07:25	120220	12022020	050725	192.54	13.238237	-57.044230	192.69	0.150	-0.970	1.860	192.56	-2.30	2.40	 	 	 	 	 	 	 	 	 	 	 	 	 	 	 	 	 	 	1581484045	12.04	22.30
12/02/2020 05:07:26	120220	12022020	050726	192.60	13.238187	-57.044245	192.73	0.140	-0.430	2.190	192.59	-1.70	2.70	 	 	 	 	 	 	 	 	 	 	 	 	 	 	 	 	 	 	1581484046	11.33	20.98
12/02/2020 05:07:27	120220	12022020	050727	192.43	13.238140	-57.044258	192.48	0.010	0.010	2.310	192.36	-1.30	2.80	 	 	 	 	 	 	 	 	 	 	 	 	 	 	 	 	 	 	1581484047	10.45	19.35
12/02/2020 05:07:28	120220	12022020	050728	192.07	13.238092	-57.044272	192.12	0.120	-0.020	2.180	192.01	-1.40	2.60	 	 	 	 	 	 	 	 	 	 	 	 	 	 	 	 	 	 	1581484048	10.53	19.50
12/02/2020 05:07:29	120220	12022020	050729	191.89	13.238042	-57.044283	191.99	0.430	-0.090	1.630	191.88	-1.50	2.10	 	 	 	 	 	 	 	 	 	 	 	 	 	 	 	 	 	 	1581484049	11.12	20.59
12/02/2020 05:07:30	120220	12022020	050730	191.92	13.237990	-57.044290	192.05	0.530	-0.010	1.320	191.94	-1.40	1.80	 	 	 	 	 	 	 	 	 	 	 	 	 	 	 	 	 	 	1581484050	11.21	20.76
12/02/2020 05:07:31	120220	12022020	050731	191.93	13.237940	-57.044298	192.02	0.150	-0.160	1.640	191.89	-1.60	2.20	 	 	 	 	 	 	 	 	 	 	 	 	 	 	 	 	 	 	1581484051	10.85	20.09
12/02/2020 05:07:32	120220	12022020	050732	191.50	13.237892	-57.044308	191.50	-0.460	-0.770	2.540	191.34	-2.20	3.20	 	 	 	 	 	 	 	 	 	 	 	 	 	 	 	 	 	 	1581484052	10.83	20.06
12/02/2020 05:07:33	120220	12022020	050733	190.59	13.237842	-57.044328	190.57	-0.940	-1.440	3.690	190.41	-2.80	4.30	 	 	 	 	 	 	 	 	 	 	 	 	 	 	 	 	 	 	1581484053	11.50	21.30
12/02/2020 05:07:34	120220	12022020	050734	189.94	13.237790	-57.044352	190.05	-1.130	-1.210	4.280	189.90	-2.40	4.80	 	 	 	 	 	 	 	 	 	 	 	 	 	 	 	 	 	 	1581484054	12.15	22.50
12/02/2020 05:07:35	120220	12022020	050735	189.99	13.237742	-57.044377	190.16	-0.910	-0.160	3.820	190.05	-1.40	4.20	 	 	 	 	 	 	 	 	 	 	 	 	 	 	 	 	 	 	1581484055	11.51	21.32
12/02/2020 05:07:36	120220	12022020	050736	190.37	13.237698	-57.044395	190.53	-0.250	0.540	2.640	190.44	-0.80	3.00	 	 	 	 	 	 	 	 	 	 	 	 	 	 	 	 	 	 	1581484056	10.34	19.15
12/02/2020 05:07:37	120220	12022020	050737	190.67	13.237652	-57.044407	190.78	0.730	0.280	1.380	190.72	-1.20	1.80	 	 	 	 	 	 	 	 	 	 	 	 	 	 	 	 	 	 	1581484057	10.34	19.15
12/02/2020 05:07:38	120220	12022020	050738	190.94	13.237598	-57.044412	191.07	1.370	-0.210	0.750	191.00	-1.60	1.30	 	 	 	 	 	 	 	 	 	 	 	 	 	 	 	 	 	 	1581484058	11.46	21.22
12/02/2020 05:07:39	120220	12022020	050739	191.27	13.237543	-57.044413	191.40	1.090	-0.220	0.840	191.33	-1.60	1.40	 	 	 	 	 	 	 	 	 	 	 	 	 	 	 	 	 	 	1581484059	11.78	21.82
12/02/2020 05:07:40	120220	12022020	050740	191.51	13.237493	-57.044420	191.65	0.160	0.030	1.450	191.54	-1.30	2.10	 	 	 	 	 	 	 	 	 	 	 	 	 	 	 	 	 	 	1581484060	10.95	20.28
12/02/2020 05:07:41	120220	12022020	050741	191.48	13.237445	-57.044432	191.57	-0.610	-0.100	2.450	191.44	-1.50	3.10	 	 	 	 	 	 	 	 	 	 	 	 	 	 	 	 	 	 	1581484061	10.39	19.24
12/02/2020 05:07:42	120220	12022020	050742	191.25	13.237398	-57.044450	191.35	-0.720	-0.550	3.220	191.21	-2.00	3.80	 	 	 	 	 	 	 	 	 	 	 	 	 	 	 	 	 	 	1581484062	10.86	20.11
12/02/2020 05:07:43	120220	12022020	050743	191.05	13.237348	-57.044470	191.15	-0.320	-0.740	3.230	191.02	-2.10	3.70	 	 	 	 	 	 	 	 	 	 	 	 	 	 	 	 	 	 	1581484063	11.41	21.13
12/02/2020 05:07:44	120220	12022020	050744	190.80	13.237300	-57.044485	190.84	0.140	-0.730	2.800	190.72	-2.10	3.20	 	 	 	 	 	 	 	 	 	 	 	 	 	 	 	 	 	 	1581484064	11.12	20.59
12/02/2020 05:07:45	120220	12022020	050745	190.36	13.237250	-57.044497	190.38	0.390	-0.790	2.310	190.27	-2.20	2.80	 	 	 	 	 	 	 	 	 	 	 	 	 	 	 	 	 	 	1581484065	10.85	20.09
12/02/2020 05:07:46	120220	12022020	050746	190.01	13.237200	-57.044507	190.06	0.300	-0.730	1.950	189.96	-2.10	2.40	 	 	 	 	 	 	 	 	 	 	 	 	 	 	 	 	 	 	1581484066	11.06	20.48
12/02/2020 05:07:47	120220	12022020	050747	189.81	13.237150	-57.044515	189.88	-0.040	-0.400	1.950	189.78	-1.70	2.50	 	 	 	 	 	 	 	 	 	 	 	 	 	 	 	 	 	 	1581484067	11.08	20.52
12/02/2020 05:07:48	120220	12022020	050748	189.72	13.237100	-57.044527	189.80	-0.430	0.070	2.240	189.71	-1.20	2.80	 	 	 	 	 	 	 	 	 	 	 	 	 	 	 	 	 	 	1581484068	10.84	20.08
12/02/2020 05:07:49	120220	12022020	050749	189.75	13.237052	-57.044540	189.87	-0.720	0.410	2.520	189.77	-0.90	3.00	 	 	 	 	 	 	 	 	 	 	 	 	 	 	 	 	 	 	1581484069	10.69	19.80
12/02/2020 05:07:50	120220	12022020	050750	189.88	13.237005	-57.044555	190.02	-0.650	0.270	2.540	189.92	-1.20	3.00	 	 	 	 	 	 	 	 	 	 	 	 	 	 	 	 	 	 	1581484070	10.78	19.96
12/02/2020 05:07:51	120220	12022020	050751	190.09	13.236955	-57.044572	190.24	-0.150	-0.200	2.090	190.15	-1.60	2.50	 	 	 	 	 	 	 	 	 	 	 	 	 	 	 	 	 	 	1581484071	11.24	20.82
12/02/2020 05:07:52	120220	12022020	050752	190.41	13.236902	-57.044585	190.55	0.560	-0.410	1.260	190.47	-1.80	1.70	 	 	 	 	 	 	 	 	 	 	 	 	 	 	 	 	 	 	1581484072	11.55	21.39
12/02/2020 05:07:53	120220	12022020	050753	190.66	13.236850	-57.044592	190.77	0.960	-0.350	0.680	190.70	-1.70	1.20	 	 	 	 	 	 	 	 	 	 	 	 	 	 	 	 	 	 	1581484073	11.21	20.76
12/02/2020 05:07:54	120220	12022020	050754	190.74	13.236800	-57.044595	190.82	0.790	-0.320	0.760	190.73	-1.70	1.30	 	 	 	 	 	 	 	 	 	 	 	 	 	 	 	 	 	 	1581484074	10.83	20.06
12/02/2020 05:07:55	120220	12022020	050755	190.60	13.236752	-57.044602	190.64	0.210	-0.470	1.490	190.54	-1.90	2.10	 	 	 	 	 	 	 	 	 	 	 	 	 	 	 	 	 	 	1581484075	10.72	19.85
12/02/2020 05:07:56	120220	12022020	050756	190.21	13.236702	-57.044613	190.24	-0.430	-0.670	2.430	190.11	-2.00	3.00	 	 	 	 	 	 	 	 	 	 	 	 	 	 	 	 	 	 	1581484076	10.90	20.19
12/02/2020 05:07:57	120220	12022020	050757	189.77	13.236652	-57.044630	189.83	-0.930	-0.640	3.120	189.70	-2.00	3.70	 	 	 	 	 	 	 	 	 	 	 	 	 	 	 	 	 	 	1581484077	11.20	20.74
12/02/2020 05:07:58	120220	12022020	050758	189.41	13.236603	-57.044648	189.47	-1.070	-0.480	3.310	189.34	-1.80	3.80	 	 	 	 	 	 	 	 	 	 	 	 	 	 	 	 	 	 	1581484078	11.16	20.67
12/02/2020 05:07:59	120220	12022020	050759	189.10	13.236555	-57.044667	189.16	-0.680	-0.310	2.890	189.05	-1.70	3.30	 	 	 	 	 	 	 	 	 	 	 	 	 	 	 	 	 	 	1581484079	11.09	20.54
12/02/2020 05:08:00	120220	12022020	050800	188.79	13.236505	-57.044682	188.82	0.140	-0.330	2.140	188.72	-1.70	2.50	 	 	 	 	 	 	 	 	 	 	 	 	 	 	 	 	 	 	1581484080	11.01	20.39
12/02/2020 05:08:01	120220	12022020	050801	188.39	13.236455	-57.044690	188.42	0.920	-0.430	1.610	188.32	-1.80	2.10	1016.10	26.00	26.10	20.70	20.70	-1.0	72.0	72.0	400.0	25.7	267.00	10.20	70.00	11.90	16	8934.0	27.2	27.2	1581484081	11.22	20.78
12/02/2020 05:08:02	120220	12022020	050802	188.21	13.236402	-57.044695	188.31	1.030	-0.150	1.320	188.22	-1.40	1.80	 	 	 	 	 	 	 	 	 	 	 	 	 	 	 	 	 	 	1581484082	11.46	21.22
12/02/2020 05:08:03	120220	12022020	050803	188.37	13.236350	-57.044700	188.49	0.390	0.350	1.610	188.41	-1.00	2.20	 	 	 	 	 	 	 	 	 	 	 	 	 	 	 	 	 	 	1581484083	11.00	20.37
12/02/2020 05:08:04	120220	12022020	050804	188.47	13.236303	-57.044708	188.54	-0.370	0.340	2.370	188.45	-1.10	3.00	 	 	 	 	 	 	 	 	 	 	 	 	 	 	 	 	 	 	1581484084	10.40	19.26
12/02/2020 05:08:05	120220	12022020	050805	188.34	13.236255	-57.044723	188.43	-0.580	-0.150	3.100	188.32	-1.60	3.60	 	 	 	 	 	 	 	 	 	 	 	 	 	 	 	 	 	 	1581484085	10.80	20.00
12/02/2020 05:08:06	120220	12022020	050806	188.27	13.236203	-57.044740	188.38	-0.350	-0.490	3.460	188.26	-1.90	4.00	 	 	 	 	 	 	 	 	 	 	 	 	 	 	 	 	 	 	1581484086	11.41	21.13
12/02/2020 05:08:07	120220	12022020	050807	188.26	13.236153	-57.044755	188.38	0.010	-0.620	3.450	188.26	-2.00	3.90	 	 	 	 	 	 	 	 	 	 	 	 	 	 	 	 	 	 	1581484087	11.23	20.80
12/02/2020 05:08:08	120220	12022020	050808	188.29	13.236105	-57.044767	188.41	0.330	-0.690	3.070	188.30	-2.00	3.50	 	 	 	 	 	 	 	 	 	 	 	 	 	 	 	 	 	 	1581484088	10.94	20.26
12/02/2020 05:08:09	120220	12022020	050809	188.33	13.236053	-57.044775	188.45	0.450	-0.580	2.620	188.35	-1.90	3.10	 	 	 	 	 	 	 	 	 	 	 	 	 	 	 	 	 	 	1581484089	10.95	20.28
12/02/2020 05:08:10	120220	12022020	050810	188.41	13.236003	-57.044782	188.52	0.290	-0.270	2.270	188.43	-1.60	2.70	 	 	 	 	 	 	 	 	 	 	 	 	 	 	 	 	 	 	1581484090	10.85	20.09
12/02/2020 05:08:11	120220	12022020	050811	188.52	13.235955	-57.044790	188.62	0.060	-0.060	1.870	188.53	-1.40	2.30	 	 	 	 	 	 	 	 	 	 	 	 	 	 	 	 	 	 	1581484091	10.55	19.54
12/02/2020 05:08:12	120220	12022020	050812	188.63	13.235907	-57.044797	188.75	0.050	-0.110	1.600	188.66	-1.50	2.10	 	 	 	 	 	 	 	 	 	 	 	 	 	 	 	 	 	 	1581484092	10.62	19.67
12/02/2020 05:08:13	120220	12022020	050813	188.75	13.235857	-57.044805	188.85	0.240	-0.400	1.620	188.76	-1.80	2.10	 	 	 	 	 	 	 	 	 	 	 	 	 	 	 	 	 	 	1581484093	10.91	20.21
12/02/2020 05:08:14	120220	12022020	050814	188.78	13.235805	-57.044813	188.87	0.290	-0.750	1.760	188.77	-2.10	2.30	 	 	 	 	 	 	 	 	 	 	 	 	 	 	 	 	 	 	1581484094	11.24	20.82
12/02/2020 05:08:15	120220	12022020	050815	188.70	13.235753	-57.044822	188.78	0.030	-0.910	2.090	188.67	-2.30	2.60	 	 	 	 	 	 	 	 	 	 	 	 	 	 	 	 	 	 	1581484095	11.38	21.08
12/02/2020 05:08:16	120220	12022020	050816	188.49	13.235702	-57.044832	188.54	-0.360	-0.830	2.340	188.43	-2.20	2.90	 	 	 	 	 	 	 	 	 	 	 	 	 	 	 	 	 	 	1581484096	11.29	20.91
12/02/2020 05:08:17	120220	12022020	050817	188.07	13.235650	-57.044843	188.08	-0.670	-0.680	2.730	187.97	-2.00	3.30	 	 	 	 	 	 	 	 	 	 	 	 	 	 	 	 	 	 	1581484097	11.18	20.71
12/02/2020 05:08:18	120220	12022020	050818	187.66	13.235598	-57.044855	187.73	-0.810	-0.430	3.140	187.61	-1.70	3.70	 	 	 	 	 	 	 	 	 	 	 	 	 	 	 	 	 	 	1581484098	11.34	21.00
12/02/2020 05:08:19	120220	12022020	050819	187.57	13.235548	-57.044870	187.69	-0.780	0.000	3.080	187.59	-1.30	3.50	 	 	 	 	 	 	 	 	 	 	 	 	 	 	 	 	 	 	1581484099	11.44	21.19
12/02/2020 05:08:20	120220	12022020	050820	187.77	13.235497	-57.044885	187.90	-0.510	0.530	2.540	187.83	-0.80	3.00	 	 	 	 	 	 	 	 	 	 	 	 	 	 	 	 	 	 	1581484100	11.23	20.80
12/02/2020 05:08:21	120220	12022020	050821	188.04	13.235448	-57.044895	188.16	0.030	0.870	1.730	188.09	-0.50	2.10	 	 	 	 	 	 	 	 	 	 	 	 	 	 	 	 	 	 	1581484101	10.87	20.13
12/02/2020 05:08:22	120220	12022020	050822	188.37	13.235398	-57.044903	188.51	0.560	0.970	0.900	188.47	-0.40	1.30	 	 	 	 	 	 	 	 	 	 	 	 	 	 	 	 	 	 	1581484102	10.70	19.82
12/02/2020 05:08:23	120220	12022020	050823	188.93	13.235350	-57.044905	189.07	0.770	0.730	0.300	189.04	-0.70	0.80	 	 	 	 	 	 	 	 	 	 	 	 	 	 	 	 	 	 	1581484103	10.61	19.65
12/02/2020 05:08:24	120220	12022020	050824	189.25	13.235302	-57.044908	189.29	0.760	-0.210	0.510	189.22	-1.70	1.10	 	 	 	 	 	 	 	 	 	 	 	 	 	 	 	 	 	 	1581484104	10.44	19.33
12/02/2020 05:08:25	120220	12022020	050825	188.83	13.235252	-57.044917	188.80	0.820	-1.530	1.490	188.70	-3.00	2.10	 	 	 	 	 	 	 	 	 	 	 	 	 	 	 	 	 	 	1581484105	11.49	21.28
12/02/2020 05:08:26	120220	12022020	050826	188.16	13.235200	-57.044928	188.20	0.820	-2.050	2.320	188.08	-3.40	2.90	 	 	 	 	 	 	 	 	 	 	 	 	 	 	 	 	 	 	1581484106	11.49	21.28
12/02/2020 05:08:27	120220	12022020	050827	187.88	13.235150	-57.044940	187.97	0.450	-1.530	2.730	187.85	-2.80	3.30	 	 	 	 	 	 	 	 	 	 	 	 	 	 	 	 	 	 	1581484107	11.06	20.48
12/02/2020 05:08:28	120220	12022020	050828	187.77	13.235103	-57.044950	187.87	-0.220	-0.900	3.050	187.74	-2.20	3.60	 	 	 	 	 	 	 	 	 	 	 	 	 	 	 	 	 	 	1581484108	10.13	18.76
12/02/2020 05:08:29	120220	12022020	050829	187.53	13.235057	-57.044962	187.61	-0.820	-0.870	3.270	187.46	-2.20	3.80	 	 	 	 	 	 	 	 	 	 	 	 	 	 	 	 	 	 	1581484109	10.20	18.89
12/02/2020 05:08:30	120220	12022020	050830	187.21	13.235007	-57.044975	187.33	-1.100	-0.990	3.500	187.18	-2.30	4.00	 	 	 	 	 	 	 	 	 	 	 	 	 	 	 	 	 	 	1581484110	11.18	20.71
12/02/2020 05:08:31	120220	12022020	050831	187.15	13.234953	-57.044990	187.30	-1.100	-0.430	3.420	187.18	-1.70	3.90	 	 	 	 	 	 	 	 	 	 	 	 	 	 	 	 	 	 	1581484111	11.76	21.78
12/02/2020 05:08:32	120220	12022020	050832	187.36	13.234905	-57.045005	187.54	-0.900	0.620	2.900	187.42	-0.60	3.30	 	 	 	 	 	 	 	 	 	 	 	 	 	 	 	 	 	 	1581484112	11.09	20.54
12/02/2020 05:08:33	120220	12022020	050833	187.66	13.234858	-57.045015	187.80	-0.480	1.180	2.140	187.71	-0.20	2.50	 	 	 	 	 	 	 	 	 	 	 	 	 	 	 	 	 	 	1581484113	10.23	18.95
12/02/2020 05:08:34	120220	12022020	050834	187.83	13.234810	-57.045022	187.94	0.120	0.860	1.430	187.85	-0.60	1.90	 	 	 	 	 	 	 	 	 	 	 	 	 	 	 	 	 	 	1581484114	10.35	19.17
12/02/2020 05:08:35	120220	12022020	050835	187.79	13.234760	-57.045027	187.86	0.740	0.080	1.090	187.76	-1.40	1.60	 	 	 	 	 	 	 	 	 	 	 	 	 	 	 	 	 	 	1581484115	11.04	20.45
12/02/2020 05:08:36	120220	12022020	050836	187.65	13.234707	-57.045030	187.73	1.030	-0.300	1.100	187.63	-1.70	1.60	 	 	 	 	 	 	 	 	 	 	 	 	 	 	 	 	 	 	1581484116	11.40	21.11
12/02/2020 05:08:37	120220	12022020	050837	187.68	13.234657	-57.045033	187.80	0.750	-0.150	1.430	187.71	-1.50	2.00	 	 	 	 	 	 	 	 	 	 	 	 	 	 	 	 	 	 	1581484117	10.87	20.13
12/02/2020 05:08:38	120220	12022020	050838	187.94	13.234610	-57.045040	188.09	0.170	-0.070	2.080	188.00	-1.40	2.70	 	 	 	 	 	 	 	 	 	 	 	 	 	 	 	 	 	 	1581484118	10.01	18.54
12/02/2020 05:08:39	120220	12022020	050839	188.22	13.234565	-57.045052	188.35	-0.240	-0.390	2.810	188.25	-1.80	3.40	 	 	 	 	 	 	 	 	 	 	 	 	 	 	 	 	 	 	1581484119	9.92	18.37
12/02/2020 05:08:40	120220	12022020	050840	188.25	13.234518	-57.045067	188.34	-0.260	-1.050	3.420	188.21	-2.50	4.00	 	 	 	 	 	 	 	 	 	 	 	 	 	 	 	 	 	 	1581484120	10.37	19.21
12/02/2020 05:08:41	120220	12022020	050841	187.92	13.234472	-57.045082	187.94	-0.020	-1.660	3.790	187.81	-3.10	4.30	 	 	 	 	 	 	 	 	 	 	 	 	 	 	 	 	 	 	1581484121	10.86	20.11
12/02/2020 05:08:42	120220	12022020	050842	187.33	13.234422	-57.045097	187.34	0.220	-1.710	3.720	187.20	-3.00	4.10	 	 	 	 	 	 	 	 	 	 	 	 	 	 	 	 	 	 	1581484122	11.04	20.45
12/02/2020 05:08:43	120220	12022020	050843	186.76	13.234373	-57.045108	186.81	0.250	-1.060	3.130	186.68	-2.30	3.50	 	 	 	 	 	 	 	 	 	 	 	 	 	 	 	 	 	 	1581484123	10.70	19.82
12/02/2020 05:08:44	120220	12022020	050844	186.55	13.234327	-57.045115	186.67	0.050	0.030	2.200	186.57	-1.20	2.60	 	 	 	 	 	 	 	 	 	 	 	 	 	 	 	 	 	 	1581484124	10.18	18.85
12/02/2020 05:08:45	120220	12022020	050845	186.70	13.234282	-57.045118	186.80	-0.200	0.780	1.370	186.74	-0.60	1.80	 	 	 	 	 	 	 	 	 	 	 	 	 	 	 	 	 	 	1581484125	9.70	17.96
12/02/2020 05:08:46	120220	12022020	050846	186.80	13.234235	-57.045122	186.88	-0.260	0.630	1.140	186.80	-0.80	1.60	 	 	 	 	 	 	 	 	 	 	 	 	 	 	 	 	 	 	1581484126	9.88	18.30
12/02/2020 05:08:47	120220	12022020	050847	186.83	13.234187	-57.045128	186.97	-0.220	0.060	1.400	186.87	-1.40	1.90	 	 	 	 	 	 	 	 	 	 	 	 	 	 	 	 	 	 	1581484127	10.72	19.85
12/02/2020 05:08:48	120220	12022020	050848	187.25	13.234135	-57.045138	187.47	-0.250	-0.120	1.830	187.37	-1.50	2.40	 	 	 	 	 	 	 	 	 	 	 	 	 	 	 	 	 	 	1581484128	11.17	20.69
12/02/2020 05:08:49	120220	12022020	050849	187.91	13.234087	-57.045150	188.10	-0.240	-0.030	2.170	188.02	-1.40	2.70	 	 	 	 	 	 	 	 	 	 	 	 	 	 	 	 	 	 	1581484129	10.58	19.59
12/02/2020 05:08:50	120220	12022020	050850	188.24	13.234042	-57.045162	188.35	0.050	-0.330	2.350	188.24	-1.80	2.80	 	 	 	 	 	 	 	 	 	 	 	 	 	 	 	 	 	 	1581484130	10.01	18.54
12/02/2020 05:08:51	120220	12022020	050851	188.14	13.233995	-57.045172	188.21	0.570	-0.940	2.350	188.09	-2.40	2.80	 	 	 	 	 	 	 	 	 	 	 	 	 	 	 	 	 	 	1581484131	10.29	19.06
12/02/2020 05:08:52	120220	12022020	050852	187.92	13.233945	-57.045180	187.98	0.710	-0.960	2.400	187.87	-2.30	2.90	 	 	 	 	 	 	 	 	 	 	 	 	 	 	 	 	 	 	1581484132	10.77	19.95
12/02/2020 05:08:53	120220	12022020	050853	187.62	13.233898	-57.045187	187.65	0.280	-0.420	2.530	187.54	-1.70	3.00	 	 	 	 	 	 	 	 	 	 	 	 	 	 	 	 	 	 	1581484133	10.19	18.87
12/02/2020 05:08:54	120220	12022020	050854	187.18	13.233855	-57.045193	187.19	-0.330	-0.080	2.660	187.07	-1.40	3.20	 	 	 	 	 	 	 	 	 	 	 	 	 	 	 	 	 	 	1581484134	9.53	17.65
12/02/2020 05:08:55	120220	12022020	050855	186.69	13.233810	-57.045203	186.71	-0.700	-0.170	2.930	186.61	-1.50	3.40	 	 	 	 	 	 	 	 	 	 	 	 	 	 	 	 	 	 	1581484135	9.81	18.17
12/02/2020 05:08:56	120220	12022020	050856	186.42	13.233763	-57.045217	186.50	-0.650	-0.210	3.010	186.42	-1.50	3.50	 	 	 	 	 	 	 	 	 	 	 	 	 	 	 	 	 	 	1581484136	10.49	19.43
12/02/2020 05:08:57	120220	12022020	050857	186.60	13.233717	-57.045232	186.73	-0.290	0.110	2.500	186.68	-1.20	2.90	 	 	 	 	 	 	 	 	 	 	 	 	 	 	 	 	 	 	1581484137	10.54	19.52
12/02/2020 05:08:58	120220	12022020	050858	186.99	13.233672	-57.045242	187.11	0.160	0.330	1.730	187.07	-1.00	2.10	 	 	 	 	 	 	 	 	 	 	 	 	 	 	 	 	 	 	1581484138	9.87	18.28
12/02/2020 05:08:59	120220	12022020	050859	187.32	13.233627	-57.045247	187.44	0.540	0.050	1.210	187.38	-1.40	1.70	 	 	 	 	 	 	 	 	 	 	 	 	 	 	 	 	 	 	1581484139	9.68	17.93
12/02/2020 05:09:00	120220	12022020	050900	187.57	13.233580	-57.045252	187.67	0.720	-0.500	1.160	187.59	-1.90	1.70	 	 	 	 	 	 	 	 	 	 	 	 	 	 	 	 	 	 	1581484140	10.06	18.63
12/02/2020 05:09:01	120220	12022020	050901	187.54	13.233533	-57.045255	187.58	0.680	-1.020	1.550	187.49	-2.40	2.10	1016.10	26.00	26.00	20.60	20.60	-1.0	72.0	72.0	400.0	25.7	266.00	10.00	66.00	11.80	16	8748.0	27.2	27.2	1581484141	10.24	18.96
12/02/2020 05:09:02	120220	12022020	050902	187.26	13.233487	-57.045263	187.30	0.390	-1.160	2.180	187.22	-2.50	2.80	 	 	 	 	 	 	 	 	 	 	 	 	 	 	 	 	 	 	1581484142	10.27	19.02
12/02/2020 05:09:03	120220	12022020	050903	187.15	13.233440	-57.045272	187.25	-0.230	-0.590	2.810	187.16	-1.80	3.40	 	 	 	 	 	 	 	 	 	 	 	 	 	 	 	 	 	 	1581484143	10.09	18.69
12/02/2020 05:09:04	120220	12022020	050904	187.27	13.233397	-57.045283	187.37	-0.950	0.230	3.250	187.29	-1.10	3.80	 	 	 	 	 	 	 	 	 	 	 	 	 	 	 	 	 	 	1581484144	9.44	17.48
12/02/2020 05:09:05	120220	12022020	050905	187.20	13.233357	-57.045297	187.24	-1.190	0.310	3.410	187.14	-1.10	3.90	 	 	 	 	 	 	 	 	 	 	 	 	 	 	 	 	 	 	1581484145	9.07	16.80
12/02/2020 05:09:06	120220	12022020	050906	186.71	13.233313	-57.045310	186.70	-0.570	-0.520	3.320	186.58	-2.00	3.80	 	 	 	 	 	 	 	 	 	 	 	 	 	 	 	 	 	 	1581484146	9.82	18.19
12/02/2020 05:09:07	120220	12022020	050907	186.07	13.233263	-57.045322	186.11	0.510	-1.180	2.930	185.98	-2.50	3.30	 	 	 	 	 	 	 	 	 	 	 	 	 	 	 	 	 	 	1581484147	10.98	20.33
12/02/2020 05:09:08	120220	12022020	050908	185.92	13.233213	-57.045330	186.06	1.110	-0.550	2.050	185.97	-1.80	2.40	 	 	 	 	 	 	 	 	 	 	 	 	 	 	 	 	 	 	1581484148	11.07	20.50
12/02/2020 05:09:09	120220	12022020	050909	186.34	13.233168	-57.045330	186.51	0.720	0.730	1.190	186.46	-0.50	1.60	 	 	 	 	 	 	 	 	 	 	 	 	 	 	 	 	 	 	1581484149	9.68	17.93
12/02/2020 05:09:10	120220	12022020	050910	186.89	13.233128	-57.045330	187.04	-0.190	1.260	1.020	186.98	-0.10	1.50	 	 	 	 	 	 	 	 	 	 	 	 	 	 	 	 	 	 	1581484150	8.50	15.74
12/02/2020 05:09:11	120220	12022020	050911	187.19	13.233088	-57.045333	187.29	-0.760	0.520	1.500	187.20	-1.00	2.10	 	 	 	 	 	 	 	 	 	 	 	 	 	 	 	 	 	 	1581484151	8.75	16.21
12/02/2020 05:09:12	120220	12022020	050912	187.19	13.233043	-57.045345	187.28	-0.560	-0.840	2.170	187.17	-2.40	2.70	 	 	 	 	 	 	 	 	 	 	 	 	 	 	 	 	 	 	1581484152	9.94	18.41
12/02/2020 05:09:13	120220	12022020	050913	187.08	13.232995	-57.045358	187.17	0.030	-1.650	2.650	187.04	-3.00	3.20	 	 	 	 	 	 	 	 	 	 	 	 	 	 	 	 	 	 	1581484153	10.75	19.91
12/02/2020 05:09:14	120220	12022020	050914	186.81	13.232948	-57.045372	186.89	0.430	-1.490	2.850	186.74	-2.80	3.30	 	 	 	 	 	 	 	 	 	 	 	 	 	 	 	 	 	 	1581484154	10.32	19.11
12/02/2020 05:09:15	120220	12022020	050915	186.36	13.232907	-57.045380	186.41	0.440	-0.910	2.830	186.27	-2.20	3.30	 	 	 	 	 	 	 	 	 	 	 	 	 	 	 	 	 	 	1581484155	9.39	17.39
12/02/2020 05:09:16	120220	12022020	050916	186.03	13.232863	-57.045387	186.15	0.160	-0.220	2.450	186.03	-1.50	2.90	 	 	 	 	 	 	 	 	 	 	 	 	 	 	 	 	 	 	1581484156	9.15	16.95
12/02/2020 05:09:17	120220	12022020	050917	186.25	13.232822	-57.045392	186.45	-0.250	0.600	1.830	186.35	-0.70	2.30	 	 	 	 	 	 	 	 	 	 	 	 	 	 	 	 	 	 	1581484157	9.26	17.15
12/02/2020 05:09:18	120220	12022020	050918	186.82	13.232780	-57.045397	187.02	-0.510	0.950	1.370	186.93	-0.40	1.80	 	 	 	 	 	 	 	 	 	 	 	 	 	 	 	 	 	 	1581484158	8.99	16.65
12/02/2020 05:09:19	120220	12022020	050919	187.20	13.232737	-57.045402	187.32	-0.350	0.410	1.290	187.22	-1.10	1.80	 	 	 	 	 	 	 	 	 	 	 	 	 	 	 	 	 	 	1581484159	9.14	16.93
12/02/2020 05:09:20	120220	12022020	050920	187.10	13.232692	-57.045410	187.14	0.230	-0.630	1.630	187.03	-2.10	2.20	 	 	 	 	 	 	 	 	 	 	 	 	 	 	 	 	 	 	1581484160	9.94	18.41
12/02/2020 05:09:21	120220	12022020	050921	186.74	13.232643	-57.045418	186.82	0.700	-1.190	2.110	186.68	-2.50	2.60	 	 	 	 	 	 	 	 	 	 	 	 	 	 	 	 	 	 	1581484161	10.56	19.56
12/02/2020 05:09:22	120220	12022020	050922	186.59	13.232597	-57.045427	186.73	0.560	-0.720	2.420	186.59	-2.00	2.90	 	 	 	 	 	 	 	 	 	 	 	 	 	 	 	 	 	 	1581484162	10.19	18.87
12/02/2020 05:09:23	120220	12022020	050923	186.54	13.232555	-57.045433	186.67	-0.100	-0.010	2.650	186.51	-1.30	3.20	 	 	 	 	 	 	 	 	 	 	 	 	 	 	 	 	 	 	1581484163	9.01	16.69
12/02/2020 05:09:24	120220	12022020	050924	186.39	13.232517	-57.045442	186.53	-0.670	0.140	2.790	186.36	-1.20	3.30	 	 	 	 	 	 	 	 	 	 	 	 	 	 	 	 	 	 	1581484164	8.62	15.96
12/02/2020 05:09:25	120220	12022020	050925	186.35	13.232473	-57.045452	186.51	-0.670	-0.050	2.590	186.37	-1.40	3.00	 	 	 	 	 	 	 	 	 	 	 	 	 	 	 	 	 	 	1581484165	9.30	17.22
12/02/2020 05:09:26	120220	12022020	050926	186.58	13.232430	-57.045463	186.77	-0.180	-0.150	1.960	186.65	-1.50	2.40	 	 	 	 	 	 	 	 	 	 	 	 	 	 	 	 	 	 	1581484166	9.70	17.96
12/02/2020 05:09:27	120220	12022020	050927	186.90	13.232387	-57.045470	187.05	0.370	-0.280	1.360	186.94	-1.70	1.80	 	 	 	 	 	 	 	 	 	 	 	 	 	 	 	 	 	 	1581484167	9.47	17.54
12/02/2020 05:09:28	120220	12022020	050928	186.97	13.232343	-57.045475	187.06	0.640	-0.580	1.110	186.94	-2.00	1.60	 	 	 	 	 	 	 	 	 	 	 	 	 	 	 	 	 	 	1581484168	9.40	17.41
12/02/2020 05:09:29	120220	12022020	050929	186.72	13.232298	-57.045480	186.75	0.560	-0.730	1.310	186.64	-2.10	1.90	 	 	 	 	 	 	 	 	 	 	 	 	 	 	 	 	 	 	1581484169	9.59	17.76
12/02/2020 05:09:30	120220	12022020	050930	186.32	13.232255	-57.045485	186.38	0.250	-0.500	1.700	186.25	-1.80	2.20	 	 	 	 	 	 	 	 	 	 	 	 	 	 	 	 	 	 	1581484170	9.54	17.67
12/02/2020 05:09:31	120220	12022020	050931	186.07	13.232212	-57.045490	186.17	-0.110	-0.120	2.030	186.05	-1.40	2.60	 	 	 	 	 	 	 	 	 	 	 	 	 	 	 	 	 	 	1581484171	9.23	17.09
12/02/2020 05:09:32	120220	12022020	050932	186.07	13.232170	-57.045497	186.19	-0.390	0.050	2.270	186.09	-1.30	2.80	 	 	 	 	 	 	 	 	 	 	 	 	 	 	 	 	 	 	1581484172	9.10	16.85
12/02/2020 05:09:33	120220	12022020	050933	186.30	13.232128	-57.045507	186.48	-0.520	0.110	2.260	186.37	-1.20	2.70	 	 	 	 	 	 	 	 	 	 	 	 	 	 	 	 	 	 	1581484173	9.34	17.30
12/02/2020 05:09:34	120220	12022020	050934	186.65	13.232085	-57.045517	186.82	-0.460	0.150	2.050	186.71	-1.20	2.50	 	 	 	 	 	 	 	 	 	 	 	 	 	 	 	 	 	 	1581484174	9.37	17.35
12/02/2020 05:09:35	120220	12022020	050935	186.84	13.232043	-57.045525	186.95	-0.120	-0.100	1.830	186.84	-1.50	2.30	 	 	 	 	 	 	 	 	 	 	 	 	 	 	 	 	 	 	1581484175	9.15	16.95
12/02/2020 05:09:36	120220	12022020	050936	186.66	13.232002	-57.045533	186.70	0.390	-0.680	1.800	186.59	-2.10	2.30	 	 	 	 	 	 	 	 	 	 	 	 	 	 	 	 	 	 	1581484176	9.31	17.24
12/02/2020 05:09:37	120220	12022020	050937	186.32	13.231957	-57.045540	186.39	0.690	-1.060	1.880	186.27	-2.40	2.40	 	 	 	 	 	 	 	 	 	 	 	 	 	 	 	 	 	 	1581484177	9.76	18.08
12/02/2020 05:09:38	120220	12022020	050938	186.30	13.231912	-57.045545	186.46	0.440	-0.680	1.940	186.36	-1.90	2.40	 	 	 	 	 	 	 	 	 	 	 	 	 	 	 	 	 	 	1581484178	9.79	18.13
12/02/2020 05:09:39	120220	12022020	050939	186.66	13.231870	-57.045550	186.82	-0.210	0.140	2.050	186.72	-1.10	2.60	 	 	 	 	 	 	 	 	 	 	 	 	 	 	 	 	 	 	1581484179	9.01	16.69
12/02/2020 05:09:40	120220	12022020	050940	186.87	13.231832	-57.045558	186.98	-0.620	0.500	2.280	186.87	-0.90	2.80	 	 	 	 	 	 	 	 	 	 	 	 	 	 	 	 	 	 	1581484180	8.38	15.52
12/02/2020 05:09:41	120220	12022020	050941	186.79	13.231792	-57.045568	186.86	-0.380	0.020	2.450	186.75	-1.40	2.90	 	 	 	 	 	 	 	 	 	 	 	 	 	 	 	 	 	 	1581484181	8.78	16.26
12/02/2020 05:09:42	120220	12022020	050942	186.65	13.231747	-57.045578	186.75	0.210	-0.590	2.410	186.64	-2.00	2.90	 	 	 	 	 	 	 	 	 	 	 	 	 	 	 	 	 	 	1581484182	9.75	18.06
12/02/2020 05:09:43	120220	12022020	050943	186.64	13.231702	-57.045585	186.78	0.570	-0.690	2.160	186.66	-2.00	2.60	 	 	 	 	 	 	 	 	 	 	 	 	 	 	 	 	 	 	1581484183	9.99	18.50
12/02/2020 05:09:44	120220	12022020	050944	186.83	13.231658	-57.045590	186.98	0.400	-0.300	1.790	186.90	-1.60	2.20	 	 	 	 	 	 	 	 	 	 	 	 	 	 	 	 	 	 	1581484184	9.44	17.48
12/02/2020 05:09:45	120220	12022020	050945	187.20	13.231617	-57.045593	187.34	-0.050	0.100	1.500	187.28	-1.20	2.00	 	 	 	 	 	 	 	 	 	 	 	 	 	 	 	 	 	 	1581484185	8.80	16.30
12/02/2020 05:09:46	120220	12022020	050946	187.48	13.231578	-57.045600	187.57	-0.290	0.070	1.480	187.50	-1.30	2.00	 	 	 	 	 	 	 	 	 	 	 	 	 	 	 	 	 	 	1581484186	8.58	15.89
12/02/2020 05:09:47	120220	12022020	050947	187.44	13.231537	-57.045607	187.48	-0.090	-0.450	1.660	187.40	-1.90	2.20	 	 	 	 	 	 	 	 	 	 	 	 	 	 	 	 	 	 	1581484187	9.01	16.69
12/02/2020 05:09:48	120220	12022020	050948	187.11	13.231492	-57.045615	187.12	0.160	-0.880	2.060	187.03	-2.30	2.60	 	 	 	 	 	 	 	 	 	 	 	 	 	 	 	 	 	 	1581484188	9.64	17.85
12/02/2020 05:09:49	120220	12022020	050949	186.77	13.231448	-57.045625	186.84	-0.010	-0.640	2.520	186.74	-1.90	3.00	 	 	 	 	 	 	 	 	 	 	 	 	 	 	 	 	 	 	1581484189	9.75	18.06
12/02/2020 05:09:50	120220	12022020	050950	186.79	13.231407	-57.045635	186.93	-0.480	0.110	2.560	186.85	-1.20	3.00	 	 	 	 	 	 	 	 	 	 	 	 	 	 	 	 	 	 	1581484190	9.15	16.95
12/02/2020 05:09:51	120220	12022020	050951	187.14	13.231368	-57.045645	187.27	-0.680	0.620	2.160	187.20	-0.70	2.60	 	 	 	 	 	 	 	 	 	 	 	 	 	 	 	 	 	 	1581484191	8.47	15.69
12/02/2020 05:09:52	120220	12022020	050952	187.46	13.231330	-57.045655	187.56	-0.100	0.350	1.380	187.50	-1.10	1.80	 	 	 	 	 	 	 	 	 	 	 	 	 	 	 	 	 	 	1581484192	8.50	15.74
12/02/2020 05:09:53	120220	12022020	050953	187.69	13.231287	-57.045658	187.79	0.840	-0.390	0.670	187.72	-1.90	1.10	 	 	 	 	 	 	 	 	 	 	 	 	 	 	 	 	 	 	1581484193	9.25	17.13
12/02/2020 05:09:54	120220	12022020	050954	187.81	13.231242	-57.045660	187.89	1.210	-1.010	0.640	187.81	-2.40	1.20	 	 	 	 	 	 	 	 	 	 	 	 	 	 	 	 	 	 	1581484194	9.87	18.28
12/02/2020 05:09:55	120220	12022020	050955	187.73	13.231197	-57.045663	187.79	0.690	-1.160	1.370	187.69	-2.50	2.00	 	 	 	 	 	 	 	 	 	 	 	 	 	 	 	 	 	 	1581484195	9.72	18.00
12/02/2020 05:09:56	120220	12022020	050956	187.53	13.231155	-57.045672	187.61	-0.250	-0.790	2.410	187.49	-2.10	3.00	 	 	 	 	 	 	 	 	 	 	 	 	 	 	 	 	 	 	1581484196	9.22	17.08
12/02/2020 05:09:57	120220	12022020	050957	187.33	13.231115	-57.045685	187.42	-0.830	-0.180	3.190	187.29	-1.50	3.70	 	 	 	 	 	 	 	 	 	 	 	 	 	 	 	 	 	 	1581484197	8.88	16.45
12/02/2020 05:09:58	120220	12022020	050958	187.06	13.231077	-57.045700	187.13	-0.840	0.150	3.560	186.99	-1.20	4.10	 	 	 	 	 	 	 	 	 	 	 	 	 	 	 	 	 	 	1581484198	8.74	16.19
12/02/2020 05:09:59	120220	12022020	050959	186.75	13.231037	-57.045712	186.83	-0.510	0.070	3.500	186.70	-1.30	3.90	 	 	 	 	 	 	 	 	 	 	 	 	 	 	 	 	 	 	1581484199	9.03	16.72
12/02/2020 05:10:00	120220	12022020	051000	186.60	13.230995	-57.045723	186.73	-0.160	-0.060	3.010	186.60	-1.40	3.40	 	 	 	 	 	 	 	 	 	 	 	 	 	 	 	 	 	 	1581484200	9.46	17.52
12/02/2020 05:10:01	120220	12022020	051001	186.71	13.230952	-57.045732	186.86	0.060	0.040	2.320	186.77	-1.30	2.70	1016.00	26.00	26.00	20.60	20.70	-1.0	72.0	72.0	400.0	25.7	263.00	10.40	66.00	12.00	16	8090.0	27.2	27.2	1581484201	9.45	17.50
12/02/2020 05:10:02	120220	12022020	051002	187.06	13.230910	-57.045737	187.22	0.250	0.270	1.610	187.15	-1.10	2.00	 	 	 	 	 	 	 	 	 	 	 	 	 	 	 	 	 	 	1581484202	9.02	16.71
12/02/2020 05:10:03	120220	12022020	051003	187.48	13.230870	-57.045742	187.62	0.510	0.180	0.910	187.55	-1.20	1.30	 	 	 	 	 	 	 	 	 	 	 	 	 	 	 	 	 	 	1581484203	8.67	16.06
12/02/2020 05:10:04	120220	12022020	051004	187.77	13.230828	-57.045743	187.90	0.740	-0.380	0.630	187.81	-1.80	1.20	 	 	 	 	 	 	 	 	 	 	 	 	 	 	 	 	 	 	1581484204	8.84	16.37
12/02/2020 05:10:05	120220	12022020	051005	187.88	13.230785	-57.045747	187.99	0.610	-0.820	1.020	187.89	-2.20	1.60	 	 	 	 	 	 	 	 	 	 	 	 	 	 	 	 	 	 	1581484205	9.26	17.15
12/02/2020 05:10:06	120220	12022020	051006	187.89	13.230743	-57.045753	188.00	0.060	-0.750	1.630	187.89	-2.10	2.20	 	 	 	 	 	 	 	 	 	 	 	 	 	 	 	 	 	 	1581484206	9.13	16.91
12/02/2020 05:10:07	120220	12022020	051007	187.76	13.230705	-57.045763	187.81	-0.490	-0.590	2.340	187.69	-1.90	2.90	 	 	 	 	 	 	 	 	 	 	 	 	 	 	 	 	 	 	1581484207	8.62	15.96
12/02/2020 05:10:08	120220	12022020	051008	187.32	13.230667	-57.045777	187.35	-0.540	-0.680	2.990	187.22	-2.10	3.50	 	 	 	 	 	 	 	 	 	 	 	 	 	 	 	 	 	 	1581484208	8.67	16.06
12/02/2020 05:10:09	120220	12022020	051009	186.87	13.230627	-57.045792	186.93	-0.100	-0.640	3.040	186.80	-2.00	3.50	 	 	 	 	 	 	 	 	 	 	 	 	 	 	 	 	 	 	1581484209	9.24	17.11
12/02/2020 05:10:10	120220	12022020	051010	186.63	13.230585	-57.045802	186.73	0.320	-0.310	2.670	186.61	-1.60	3.10	 	 	 	 	 	 	 	 	 	 	 	 	 	 	 	 	 	 	1581484210	9.20	17.04
12/02/2020 05:10:11	120220	12022020	051011	186.59	13.230543	-57.045807	186.70	0.360	-0.030	2.230	186.59	-1.40	2.70	 	 	 	 	 	 	 	 	 	 	 	 	 	 	 	 	 	 	1581484211	8.90	16.48
12/02/2020 05:10:12	120220	12022020	051012	186.64	13.230502	-57.045812	186.76	0.090	0.070	1.960	186.66	-1.30	2.40	 	 	 	 	 	 	 	 	 	 	 	 	 	 	 	 	 	 	1581484212	8.90	16.48
12/02/2020 05:10:13	120220	12022020	051013	186.74	13.230460	-57.045817	186.85	-0.200	0.100	1.930	186.76	-1.30	2.40	 	 	 	 	 	 	 	 	 	 	 	 	 	 	 	 	 	 	1581484213	9.03	16.72
12/02/2020 05:10:14	120220	12022020	051014	186.86	13.230420	-57.045823	186.99	-0.330	0.050	2.070	186.90	-1.30	2.60	 	 	 	 	 	 	 	 	 	 	 	 	 	 	 	 	 	 	1581484214	9.02	16.71
12/02/2020 05:10:15	120220	12022020	051015	187.05	13.230378	-57.045832	187.18	-0.330	-0.070	2.270	187.09	-1.50	2.80	 	 	 	 	 	 	 	 	 	 	 	 	 	 	 	 	 	 	1581484215	9.00	16.67
12/02/2020 05:10:16	120220	12022020	051016	187.18	13.230338	-57.045843	187.28	-0.290	-0.180	2.350	187.20	-1.60	2.80	 	 	 	 	 	 	 	 	 	 	 	 	 	 	 	 	 	 	1581484216	8.95	16.58
12/02/2020 05:10:17	120220	12022020	051017	187.19	13.230298	-57.045853	187.26	-0.250	-0.300	2.290	187.16	-1.70	2.80	 	 	 	 	 	 	 	 	 	 	 	 	 	 	 	 	 	 	1581484217	8.81	16.32
12/02/2020 05:10:18	120220	12022020	051018	186.95	13.230258	-57.045862	186.98	-0.090	-0.550	2.260	186.88	-1.90	2.70	 	 	 	 	 	 	 	 	 	 	 	 	 	 	 	 	 	 	1581484218	8.72	16.15
12/02/2020 05:10:19	120220	12022020	051019	186.62	13.230218	-57.045870	186.68	0.150	-0.690	2.130	186.56	-2.00	2.60	 	 	 	 	 	 	 	 	 	 	 	 	 	 	 	 	 	 	1581484219	8.93	16.54
12/02/2020 05:10:20	120220	12022020	051020	186.43	13.230177	-57.045877	186.54	0.370	-0.560	1.940	186.43	-1.90	2.40	 	 	 	 	 	 	 	 	 	 	 	 	 	 	 	 	 	 	1581484220	8.99	16.65
12/02/2020 05:10:21	120220	12022020	051021	186.60	13.230135	-57.045882	186.77	0.460	-0.200	1.490	186.69	-1.50	1.90	 	 	 	 	 	 	 	 	 	 	 	 	 	 	 	 	 	 	1581484221	8.86	16.41
12/02/2020 05:10:22	120220	12022020	051022	187.11	13.230095	-57.045885	187.30	0.410	0.270	0.960	187.24	-1.10	1.40	 	 	 	 	 	 	 	 	 	 	 	 	 	 	 	 	 	 	1581484222	8.64	16.00
12/02/2020 05:10:23	120220	12022020	051023	187.68	13.230057	-57.045888	187.84	0.240	0.400	0.870	187.77	-1.00	1.40	 	 	 	 	 	 	 	 	 	 	 	 	 	 	 	 	 	 	1581484223	8.36	15.48
12/02/2020 05:10:24	120220	12022020	051024	187.95	13.230018	-57.045893	188.04	0.020	-0.120	1.410	187.94	-1.60	2.00	 	 	 	 	 	 	 	 	 	 	 	 	 	 	 	 	 	 	1581484224	8.43	15.61
12/02/2020 05:10:25	120220	12022020	051025	187.70	13.229977	-57.045902	187.71	-0.120	-0.970	2.180	187.59	-2.40	2.80	 	 	 	 	 	 	 	 	 	 	 	 	 	 	 	 	 	 	1581484225	8.98	16.63
12/02/2020 05:10:26	120220	12022020	051026	187.03	13.229935	-57.045913	187.02	-0.230	-1.600	3.150	186.87	-3.00	3.80	 	 	 	 	 	 	 	 	 	 	 	 	 	 	 	 	 	 	1581484226	9.50	17.59
12/02/2020 05:10:27	120220	12022020	051027	186.29	13.229892	-57.045927	186.32	-0.340	-1.520	3.940	186.15	-2.80	4.50	 	 	 	 	 	 	 	 	 	 	 	 	 	 	 	 	 	 	1581484227	9.69	17.95
12/02/2020 05:10:28	120220	12022020	051028	185.73	13.229850	-57.045942	185.82	-0.460	-0.630	4.120	185.64	-1.80	4.60	 	 	 	 	 	 	 	 	 	 	 	 	 	 	 	 	 	 	1581484228	9.37	17.35
12/02/2020 05:10:29	120220	12022020	051029	185.47	13.229812	-57.045953	185.64	-0.550	0.600	3.760	185.48	-0.60	4.10	 	 	 	 	 	 	 	 	 	 	 	 	 	 	 	 	 	 	1581484229	8.66	16.04
12/02/2020 05:10:30	120220	12022020	051030	185.86	13.229775	-57.045962	186.15	-0.560	1.580	2.680	186.01	0.30	3.00	 	 	 	 	 	 	 	 	 	 	 	 	 	 	 	 	 	 	1581484230	8.19	15.17
12/02/2020 05:10:31	120220	12022020	051031	186.88	13.229737	-57.045967	187.20	-0.370	1.830	1.250	187.12	0.40	1.60	 	 	 	 	 	 	 	 	 	 	 	 	 	 	 	 	 	 	1581484231	8.05	14.91
12/02/2020 05:10:32	120220	12022020	051032	188.00	13.229698	-57.045968	188.25	0.090	1.090	0.070	188.19	-0.50	0.50	 	 	 	 	 	 	 	 	 	 	 	 	 	 	 	 	 	 	1581484232	8.23	15.24
12/02/2020 05:10:33	120220	12022020	051033	188.60	13.229658	-57.045970	188.70	0.760	-0.500	-0.400	188.63	-2.10	0.10	 	 	 	 	 	 	 	 	 	 	 	 	 	 	 	 	 	 	1581484233	8.79	16.28
12/02/2020 05:10:34	120220	12022020	051034	188.47	13.229613	-57.045972	188.47	1.270	-2.110	0.070	188.37	-3.60	0.70	 	 	 	 	 	 	 	 	 	 	 	 	 	 	 	 	 	 	1581484234	9.47	17.54
12/02/2020 05:10:35	120220	12022020	051035	187.89	13.229570	-57.045977	187.89	1.150	-2.740	1.230	187.76	-4.10	1.90	 	 	 	 	 	 	 	 	 	 	 	 	 	 	 	 	 	 	1581484235	9.67	17.91
12/02/2020 05:10:36	120220	12022020	051036	187.30	13.229528	-57.045985	187.34	0.340	-2.140	2.550	187.20	-3.40	3.20	 	 	 	 	 	 	 	 	 	 	 	 	 	 	 	 	 	 	1581484236	9.10	16.85
12/02/2020 05:10:37	120220	12022020	051037	186.86	13.229492	-57.045998	186.94	-0.640	-1.000	3.630	186.79	-2.20	4.20	 	 	 	 	 	 	 	 	 	 	 	 	 	 	 	 	 	 	1581484237	8.39	15.54
12/02/2020 05:10:38	120220	12022020	051038	186.50	13.229455	-57.046013	186.63	-1.190	-0.000	4.150	186.44	-1.30	4.70	 	 	 	 	 	 	 	 	 	 	 	 	 	 	 	 	 	 	1581484238	8.34	15.45
12/02/2020 05:10:39	120220	12022020	051039	186.36	13.229417	-57.046028	186.55	-1.190	0.670	4.060	186.38	-0.60	4.50	 	 	 	 	 	 	 	 	 	 	 	 	 	 	 	 	 	 	1581484239	8.77	16.24
12/02/2020 05:10:40	120220	12022020	051040	186.61	13.229377	-57.046040	186.85	-0.900	1.050	3.410	186.70	-0.30	3.80	 	 	 	 	 	 	 	 	 	 	 	 	 	 	 	 	 	 	1581484240	9.06	16.78
12/02/2020 05:10:41	120220	12022020	051041	187.21	13.229335	-57.046048	187.47	-0.590	1.160	2.370	187.36	-0.20	2.70	 	 	 	 	 	 	 	 	 	 	 	 	 	 	 	 	 	 	1581484241	9.06	16.78
12/02/2020 05:10:42	120220	12022020	051042	188.02	13.229293	-57.046053	188.24	-0.320	1.040	1.190	188.17	-0.40	1.60	 	 	 	 	 	 	 	 	 	 	 	 	 	 	 	 	 	 	1581484242	8.91	16.50
12/02/2020 05:10:43	120220	12022020	051043	188.72	13.229253	-57.046057	188.88	0.000	0.620	0.280	188.81	-0.80	0.70	 	 	 	 	 	 	 	 	 	 	 	 	 	 	 	 	 	 	1581484243	8.69	16.09
12/02/2020 05:10:44	120220	12022020	051044	189.09	13.229213	-57.046060	189.18	0.460	-0.080	-0.040	189.12	-1.60	0.50	 	 	 	 	 	 	 	 	 	 	 	 	 	 	 	 	 	 	1581484244	8.59	15.91
12/02/2020 05:10:45	120220	12022020	051045	189.13	13.229173	-57.046065	189.18	0.930	-0.780	0.130	189.10	-2.20	0.70	 	 	 	 	 	 	 	 	 	 	 	 	 	 	 	 	 	 	1581484245	8.64	16.00
12/02/2020 05:10:46	120220	12022020	051046	188.87	13.229135	-57.046072	188.89	1.160	-1.330	0.800	188.78	-2.80	1.40	 	 	 	 	 	 	 	 	 	 	 	 	 	 	 	 	 	 	1581484246	8.61	15.95
12/02/2020 05:10:47	120220	12022020	051047	188.36	13.229095	-57.046078	188.36	1.020	-1.640	1.810	188.24	-3.00	2.40	 	 	 	 	 	 	 	 	 	 	 	 	 	 	 	 	 	 	1581484247	8.57	15.87
12/02/2020 05:10:48	120220	12022020	051048	187.75	13.229057	-57.046087	187.77	0.600	-1.550	2.720	187.64	-2.90	3.30	 	 	 	 	 	 	 	 	 	 	 	 	 	 	 	 	 	 	1581484248	8.67	16.06
12/02/2020 05:10:49	120220	12022020	051049	187.31	13.229017	-57.046097	187.41	-0.080	-0.980	3.390	187.26	-2.20	3.90	 	 	 	 	 	 	 	 	 	 	 	 	 	 	 	 	 	 	1581484249	8.68	16.08
12/02/2020 05:10:50	120220	12022020	051050	187.16	13.228978	-57.046107	187.30	-0.860	-0.150	3.780	187.15	-1.40	4.30	 	 	 	 	 	 	 	 	 	 	 	 	 	 	 	 	 	 	1581484250	8.49	15.72
12/02/2020 05:10:51	120220	12022020	051051	187.13	13.228942	-57.046120	187.28	-1.370	0.470	3.810	187.14	-0.80	4.30	 	 	 	 	 	 	 	 	 	 	 	 	 	 	 	 	 	 	1581484251	8.43	15.61
12/02/2020 05:10:52	120220	12022020	051052	187.15	13.228903	-57.046135	187.30	-1.290	0.610	3.580	187.16	-0.80	4.00	 	 	 	 	 	 	 	 	 	 	 	 	 	 	 	 	 	 	1581484252	8.67	16.06
12/02/2020 05:10:53	120220	12022020	051053	187.24	13.228863	-57.046150	187.41	-0.610	0.480	2.910	187.29	-0.90	3.30	 	 	 	 	 	 	 	 	 	 	 	 	 	 	 	 	 	 	1581484253	9.09	16.83
12/02/2020 05:10:54	120220	12022020	051054	187.61	13.228823	-57.046160	187.80	0.170	0.490	1.660	187.73	-0.90	2.00	 	 	 	 	 	 	 	 	 	 	 	 	 	 	 	 	 	 	1581484254	9.17	16.98
12/02/2020 05:10:55	120220	12022020	051055	188.31	13.228782	-57.046162	188.50	0.590	0.470	0.450	188.45	-0.90	0.90	 	 	 	 	 	 	 	 	 	 	 	 	 	 	 	 	 	 	1581484255	8.74	16.19
12/02/2020 05:10:56	120220	12022020	051056	188.91	13.228743	-57.046162	189.02	0.660	0.000	-0.030	188.97	-1.50	0.50	 	 	 	 	 	 	 	 	 	 	 	 	 	 	 	 	 	 	1581484256	8.41	15.58
12/02/2020 05:10:57	120220	12022020	051057	188.96	13.228703	-57.046165	188.96	0.680	-0.870	0.380	188.89	-2.40	1.00	 	 	 	 	 	 	 	 	 	 	 	 	 	 	 	 	 	 	1581484257	8.49	15.72
12/02/2020 05:10:58	120220	12022020	051058	188.42	13.228662	-57.046170	188.35	0.660	-1.490	1.550	188.25	-2.90	2.30	 	 	 	 	 	 	 	 	 	 	 	 	 	 	 	 	 	 	1581484258	8.92	16.52
12/02/2020 05:10:59	120220	12022020	051059	187.43	13.228622	-57.046182	187.35	0.470	-1.410	3.090	187.22	-2.70	3.80	 	 	 	 	 	 	 	 	 	 	 	 	 	 	 	 	 	 	1581484259	8.93	16.54
12/02/2020 05:11:00	120220	12022020	051100	186.53	13.228583	-57.046195	186.58	0.040	-0.510	4.110	186.43	-1.70	4.70	 	 	 	 	 	 	 	 	 	 	 	 	 	 	 	 	 	 	1581484260	8.70	16.11
12/02/2020 05:11:01	120220	12022020	051101	186.31	13.228548	-57.046208	186.50	-0.480	0.700	4.220	186.36	-0.60	4.70	1016.10	26.00	26.10	20.90	20.90	-1.0	73.0	73.0	399.0	25.7	264.00	10.30	69.00	11.70	16	9455.0	27.2	27.2	1581484261	8.14	15.08
12/02/2020 05:11:02	120220	12022020	051102	186.68	13.228515	-57.046220	186.93	-0.740	1.230	3.620	186.78	-0.20	4.00	 	 	 	 	 	 	 	 	 	 	 	 	 	 	 	 	 	 	1581484262	7.56	14.00
12/02/2020 05:11:03	120220	12022020	051103	187.15	13.228480	-57.046228	187.35	-0.450	0.550	2.780	187.21	-1.00	3.20	 	 	 	 	 	 	 	 	 	 	 	 	 	 	 	 	 	 	1581484263	7.85	14.54
12/02/2020 05:11:04	120220	12022020	051104	187.37	13.228440	-57.046237	187.50	0.260	-0.850	2.090	187.37	-2.40	2.50	 	 	 	 	 	 	 	 	 	 	 	 	 	 	 	 	 	 	1581484264	8.90	16.48
12/02/2020 05:11:05	120220	12022020	051105	187.32	13.228395	-57.046243	187.40	0.830	-1.710	1.770	187.29	-3.10	2.30	 	 	 	 	 	 	 	 	 	 	 	 	 	 	 	 	 	 	1581484265	9.74	18.04
12/02/2020 05:11:06	120220	12022020	051106	187.21	13.228352	-57.046250	187.31	0.690	-1.150	1.670	187.21	-2.40	2.20	 	 	 	 	 	 	 	 	 	 	 	 	 	 	 	 	 	 	1581484266	9.37	17.35
12/02/2020 05:11:07	120220	12022020	051107	187.24	13.228315	-57.046255	187.35	-0.030	0.090	1.590	187.26	-1.10	2.10	 	 	 	 	 	 	 	 	 	 	 	 	 	 	 	 	 	 	1581484267	7.92	14.67
12/02/2020 05:11:08	120220	12022020	051108	187.37	13.228283	-57.046260	187.45	-0.630	0.640	1.540	187.38	-0.80	2.10	 	 	 	 	 	 	 	 	 	 	 	 	 	 	 	 	 	 	1581484268	7.04	13.04
12/02/2020 05:11:09	120220	12022020	051109	187.38	13.228247	-57.046268	187.44	-0.620	0.110	1.700	187.37	-1.40	2.20	 	 	 	 	 	 	 	 	 	 	 	 	 	 	 	 	 	 	1581484269	7.74	14.33
12/02/2020 05:11:10	120220	12022020	051110	187.23	13.228207	-57.046278	187.27	-0.160	-0.610	2.160	187.18	-2.00	2.70	 	 	 	 	 	 	 	 	 	 	 	 	 	 	 	 	 	 	1581484270	9.00	16.67
12/02/2020 05:11:11	120220	12022020	051111	186.95	13.228163	-57.046288	187.00	0.220	-0.710	2.680	186.88	-2.00	3.20	 	 	 	 	 	 	 	 	 	 	 	 	 	 	 	 	 	 	1581484271	9.38	17.37
12/02/2020 05:11:12	120220	12022020	051112	186.64	13.228125	-57.046298	186.73	0.290	-0.230	2.940	186.58	-1.50	3.40	 	 	 	 	 	 	 	 	 	 	 	 	 	 	 	 	 	 	1581484272	8.79	16.28
12/02/2020 05:11:13	120220	12022020	051113	186.40	13.228088	-57.046307	186.51	0.170	0.260	2.950	186.36	-1.10	3.40	 	 	 	 	 	 	 	 	 	 	 	 	 	 	 	 	 	 	1581484273	8.11	15.02
12/02/2020 05:11:14	120220	12022020	051114	186.27	13.228052	-57.046313	186.41	0.140	0.320	2.700	186.27	-1.10	3.10	 	 	 	 	 	 	 	 	 	 	 	 	 	 	 	 	 	 	1581484274	7.99	14.80
12/02/2020 05:11:15	120220	12022020	051115	186.30	13.228013	-57.046320	186.45	0.240	0.190	2.190	186.32	-1.20	2.60	 	 	 	 	 	 	 	 	 	 	 	 	 	 	 	 	 	 	1581484275	8.36	15.48
12/02/2020 05:11:16	120220	12022020	051116	186.48	13.227973	-57.046327	186.64	0.300	0.160	1.700	186.53	-1.20	2.20	 	 	 	 	 	 	 	 	 	 	 	 	 	 	 	 	 	 	1581484276	8.46	15.67
12/02/2020 05:11:17	120220	12022020	051117	186.65	13.227937	-57.046330	186.77	0.200	-0.060	1.550	186.66	-1.50	2.10	 	 	 	 	 	 	 	 	 	 	 	 	 	 	 	 	 	 	1581484277	8.10	15.00
12/02/2020 05:11:18	120220	12022020	051118	186.53	13.227898	-57.046337	186.59	0.040	-0.750	1.940	186.47	-2.20	2.50	 	 	 	 	 	 	 	 	 	 	 	 	 	 	 	 	 	 	1581484278	8.09	14.98
12/02/2020 05:11:19	120220	12022020	051119	186.09	13.227860	-57.046345	186.14	-0.020	-1.490	2.560	186.00	-2.90	3.10	 	 	 	 	 	 	 	 	 	 	 	 	 	 	 	 	 	 	1581484279	8.67	16.06
12/02/2020 05:11:20	120220	12022020	051120	185.78	13.227818	-57.046357	185.91	-0.050	-1.500	2.910	185.76	-2.80	3.40	 	 	 	 	 	 	 	 	 	 	 	 	 	 	 	 	 	 	1581484280	9.08	16.82
12/02/2020 05:11:21	120220	12022020	051121	185.81	13.227780	-57.046367	185.98	-0.150	-0.700	2.830	185.83	-1.90	3.30	 	 	 	 	 	 	 	 	 	 	 	 	 	 	 	 	 	 	1581484281	8.58	15.89
12/02/2020 05:11:22	120220	12022020	051122	185.80	13.227745	-57.046375	185.92	-0.210	0.010	2.660	185.77	-1.30	3.10	 	 	 	 	 	 	 	 	 	 	 	 	 	 	 	 	 	 	1581484282	7.69	14.24
12/02/2020 05:11:23	120220	12022020	051123	185.64	13.227710	-57.046382	185.76	-0.140	0.200	2.430	185.60	-1.20	2.90	 	 	 	 	 	 	 	 	 	 	 	 	 	 	 	 	 	 	1581484283	7.80	14.45
12/02/2020 05:11:24	120220	12022020	051124	185.54	13.227672	-57.046387	185.69	-0.070	0.260	2.210	185.54	-1.10	2.70	 	 	 	 	 	 	 	 	 	 	 	 	 	 	 	 	 	 	1581484284	8.45	15.65
12/02/2020 05:11:25	120220	12022020	051125	185.60	13.227632	-57.046392	185.79	-0.090	0.470	1.970	185.64	-0.90	2.40	 	 	 	 	 	 	 	 	 	 	 	 	 	 	 	 	 	 	1581484285	8.55	15.83
12/02/2020 05:11:26	120220	12022020	051126	185.79	13.227593	-57.046397	185.94	-0.140	0.580	1.560	185.81	-0.80	2.00	 	 	 	 	 	 	 	 	 	 	 	 	 	 	 	 	 	 	1581484286	8.16	15.11
12/02/2020 05:11:27	120220	12022020	051127	185.81	13.227557	-57.046400	185.92	-0.030	0.240	1.360	185.79	-1.20	1.90	 	 	 	 	 	 	 	 	 	 	 	 	 	 	 	 	 	 	1581484287	7.98	14.78
12/02/2020 05:11:28	120220	12022020	051128	185.67	13.227518	-57.046405	185.76	0.220	-0.360	1.470	185.64	-1.80	2.00	 	 	 	 	 	 	 	 	 	 	 	 	 	 	 	 	 	 	1581484288	8.26	15.30
12/02/2020 05:11:29	120220	12022020	051129	185.50	13.227480	-57.046412	185.57	0.470	-0.810	1.730	185.45	-2.20	2.30	 	 	 	 	 	 	 	 	 	 	 	 	 	 	 	 	 	 	1581484289	8.50	15.74
12/02/2020 05:11:30	120220	12022020	051130	185.22	13.227442	-57.046418	185.28	0.490	-1.040	2.140	185.15	-2.40	2.70	 	 	 	 	 	 	 	 	 	 	 	 	 	 	 	 	 	 	1581484290	8.26	15.30
12/02/2020 05:11:31	120220	12022020	051131	184.85	13.227405	-57.046425	184.90	0.190	-1.030	2.790	184.77	-2.40	3.40	 	 	 	 	 	 	 	 	 	 	 	 	 	 	 	 	 	 	1581484291	8.11	15.02
12/02/2020 05:11:32	120220	12022020	051132	184.37	13.227368	-57.046433	184.43	-0.280	-0.830	3.530	184.27	-2.20	4.10	 	 	 	 	 	 	 	 	 	 	 	 	 	 	 	 	 	 	1581484292	8.05	14.91
12/02/2020 05:11:33	120220	12022020	051133	183.87	13.227332	-57.046445	183.98	-0.620	-0.470	4.030	183.80	-1.80	4.50	 	 	 	 	 	 	 	 	 	 	 	 	 	 	 	 	 	 	1581484293	8.19	15.17
12/02/2020 05:11:34	120220	12022020	051134	183.68	13.227297	-57.046458	183.88	-0.650	0.160	3.860	183.71	-1.10	4.30	 	 	 	 	 	 	 	 	 	 	 	 	 	 	 	 	 	 	1581484294	8.26	15.30
12/02/2020 05:11:35	120220	12022020	051135	183.96	13.227260	-57.046468	184.18	-0.430	0.760	2.950	184.04	-0.60	3.30	 	 	 	 	 	 	 	 	 	 	 	 	 	 	 	 	 	 	1581484295	7.88	14.59
12/02/2020 05:11:36	120220	12022020	051136	184.34	13.227225	-57.046472	184.51	-0.050	0.650	1.780	184.38	-0.80	2.20	 	 	 	 	 	 	 	 	 	 	 	 	 	 	 	 	 	 	1581484296	7.49	13.87
12/02/2020 05:11:37	120220	12022020	051137	184.42	13.227188	-57.046472	184.53	0.360	-0.190	1.040	184.40	-1.70	1.50	 	 	 	 	 	 	 	 	 	 	 	 	 	 	 	 	 	 	1581484297	7.97	14.76
12/02/2020 05:11:38	120220	12022020	051138	184.18	13.227148	-57.046470	184.23	0.580	-0.960	0.990	184.10	-2.40	1.60	 	 	 	 	 	 	 	 	 	 	 	 	 	 	 	 	 	 	1581484298	8.71	16.13
12/02/2020 05:11:39	120220	12022020	051139	183.86	13.227108	-57.046472	183.94	0.490	-0.880	1.370	183.82	-2.20	1.90	 	 	 	 	 	 	 	 	 	 	 	 	 	 	 	 	 	 	1581484299	8.69	16.09
12/02/2020 05:11:40	120220	12022020	051140	183.79	13.227072	-57.046475	183.94	0.110	-0.080	1.880	183.81	-1.40	2.50	 	 	 	 	 	 	 	 	 	 	 	 	 	 	 	 	 	 	1581484300	7.84	14.52
12/02/2020 05:11:41	120220	12022020	051141	183.93	13.227040	-57.046482	184.10	-0.330	0.510	2.440	183.96	-0.90	3.00	 	 	 	 	 	 	 	 	 	 	 	 	 	 	 	 	 	 	1581484301	6.97	12.91
12/02/2020 05:11:42	120220	12022020	051142	184.02	13.227008	-57.046490	184.17	-0.540	0.180	2.820	184.02	-1.30	3.40	 	 	 	 	 	 	 	 	 	 	 	 	 	 	 	 	 	 	1581484302	7.05	13.06
12/02/2020 05:11:43	120220	12022020	051143	183.88	13.226972	-57.046500	183.98	-0.360	-0.750	3.000	183.81	-2.20	3.50	 	 	 	 	 	 	 	 	 	 	 	 	 	 	 	 	 	 	1581484303	7.95	14.72
12/02/2020 05:11:44	120220	12022020	051144	183.45	13.226933	-57.046510	183.53	0.080	-1.320	3.020	183.35	-2.70	3.50	 	 	 	 	 	 	 	 	 	 	 	 	 	 	 	 	 	 	1581484304	8.73	16.17
12/02/2020 05:11:45	120220	12022020	051145	183.03	13.226893	-57.046517	183.13	0.470	-0.950	2.600	182.98	-2.20	3.00	 	 	 	 	 	 	 	 	 	 	 	 	 	 	 	 	 	 	1581484305	8.55	15.83
12/02/2020 05:11:46	120220	12022020	051146	182.90	13.226858	-57.046520	183.02	0.440	-0.150	1.930	182.89	-1.40	2.40	 	 	 	 	 	 	 	 	 	 	 	 	 	 	 	 	 	 	1581484306	7.62	14.11
12/02/2020 05:11:47	120220	12022020	051147	182.84	13.226825	-57.046518	182.95	0.020	0.250	1.630	182.82	-1.10	2.10	 	 	 	 	 	 	 	 	 	 	 	 	 	 	 	 	 	 	1581484307	7.12	13.19
12/02/2020 05:11:48	120220	12022020	051148	182.81	13.226790	-57.046518	182.95	-0.550	0.210	1.780	182.82	-1.20	2.30	 	 	 	 	 	 	 	 	 	 	 	 	 	 	 	 	 	 	1581484308	7.45	13.80
12/02/2020 05:11:49	120220	12022020	051149	182.90	13.226755	-57.046525	183.05	-0.910	0.170	2.100	182.92	-1.20	2.60	 	 	 	 	 	 	 	 	 	 	 	 	 	 	 	 	 	 	1581484309	7.94	14.70
12/02/2020 05:11:50	120220	12022020	051150	183.03	13.226718	-57.046535	183.20	-0.750	0.190	2.270	183.06	-1.20	2.80	 	 	 	 	 	 	 	 	 	 	 	 	 	 	 	 	 	 	1581484310	7.95	14.72
12/02/2020 05:11:51	120220	12022020	051151	183.17	13.226683	-57.046545	183.34	-0.050	0.010	2.060	183.20	-1.40	2.50	 	 	 	 	 	 	 	 	 	 	 	 	 	 	 	 	 	 	1581484311	7.73	14.32
12/02/2020 05:11:52	120220	12022020	051152	183.31	13.226648	-57.046550	183.46	0.640	-0.380	1.700	183.34	-1.80	2.20	 	 	 	 	 	 	 	 	 	 	 	 	 	 	 	 	 	 	1581484312	7.71	14.28
12/02/2020 05:11:53	120220	12022020	051153	183.41	13.226612	-57.046550	183.55	0.780	-0.730	1.390	183.42	-2.10	1.90	 	 	 	 	 	 	 	 	 	 	 	 	 	 	 	 	 	 	1581484313	7.93	14.69
12/02/2020 05:11:54	120220	12022020	051154	183.42	13.226575	-57.046550	183.56	0.360	-0.710	1.230	183.41	-2.00	1.70	 	 	 	 	 	 	 	 	 	 	 	 	 	 	 	 	 	 	1581484314	7.89	14.61
12/02/2020 05:11:55	120220	12022020	051155	183.37	13.226540	-57.046553	183.52	-0.170	-0.340	1.320	183.37	-1.60	1.90	 	 	 	 	 	 	 	 	 	 	 	 	 	 	 	 	 	 	1581484315	7.53	13.95
12/02/2020 05:11:56	120220	12022020	051156	183.44	13.226507	-57.046557	183.61	-0.480	0.070	1.610	183.46	-1.30	2.20	 	 	 	 	 	 	 	 	 	 	 	 	 	 	 	 	 	 	1581484316	7.17	13.28
12/02/2020 05:11:57	120220	12022020	051157	183.48	13.226475	-57.046563	183.62	-0.410	-0.060	2.080	183.46	-1.50	2.60	 	 	 	 	 	 	 	 	 	 	 	 	 	 	 	 	 	 	1581484317	7.12	13.19
12/02/2020 05:11:58	120220	12022020	051158	183.18	13.226440	-57.046572	183.25	-0.030	-0.750	2.700	183.08	-2.20	3.30	 	 	 	 	 	 	 	 	 	 	 	 	 	 	 	 	 	 	1581484318	7.74	14.33
12/02/2020 05:11:59	120220	12022020	051159	182.61	13.226400	-57.046580	182.70	0.370	-1.200	3.300	182.51	-2.50	3.80	 	 	 	 	 	 	 	 	 	 	 	 	 	 	 	 	 	 	1581484319	8.57	15.87
12/02/2020 05:12:00	120220	12022020	051200	182.29	13.226362	-57.046588	182.45	0.440	-0.660	3.440	182.28	-1.90	3.90	 	 	 	 	 	 	 	 	 	 	 	 	 	 	 	 	 	 	1581484320	8.63	15.98
12/02/2020 05:12:01	120220	12022020	051201	182.47	13.226327	-57.046593	182.69	0.120	0.570	2.930	182.56	-0.70	3.30	1016.00	26.00	26.00	20.40	20.50	-1.0	71.0	71.0	398.0	25.7	261.00	11.90	68.00	13.20	16	9457.0	27.2	27.2	1581484321	7.61	14.09
12/02/2020 05:12:02	120220	12022020	051202	182.97	13.226295	-57.046595	183.19	-0.310	1.360	2.110	183.07	0.00	2.50	 	 	 	 	 	 	 	 	 	 	 	 	 	 	 	 	 	 	1581484322	6.58	12.19
12/02/2020 05:12:03	120220	12022020	051203	183.41	13.226265	-57.046595	183.58	-0.450	0.970	1.550	183.47	-0.50	2.00	 	 	 	 	 	 	 	 	 	 	 	 	 	 	 	 	 	 	1581484323	6.64	12.30
12/02/2020 05:12:04	120220	12022020	051204	183.62	13.226230	-57.046597	183.74	-0.150	-0.330	1.410	183.64	-1.90	1.90	 	 	 	 	 	 	 	 	 	 	 	 	 	 	 	 	 	 	1581484324	7.63	14.13
12/02/2020 05:12:05	120220	12022020	051205	183.75	13.226190	-57.046602	183.88	0.280	-1.410	1.380	183.79	-2.90	1.90	 	 	 	 	 	 	 	 	 	 	 	 	 	 	 	 	 	 	1581484325	8.62	15.96
12/02/2020 05:12:06	120220	12022020	051206	183.93	13.226150	-57.046605	184.05	0.330	-1.520	1.510	183.96	-2.80	2.10	 	 	 	 	 	 	 	 	 	 	 	 	 	 	 	 	 	 	1581484326	8.56	15.85
12/02/2020 05:12:07	120220	12022020	051207	183.99	13.226115	-57.046610	184.06	-0.030	-0.910	2.050	183.97	-2.20	2.60	 	 	 	 	 	 	 	 	 	 	 	 	 	 	 	 	 	 	1581484327	7.62	14.11
12/02/2020 05:12:08	120220	12022020	051208	183.80	13.226083	-57.046620	183.84	-0.370	-0.160	2.790	183.73	-1.50	3.40	 	 	 	 	 	 	 	 	 	 	 	 	 	 	 	 	 	 	1581484328	6.99	12.95
12/02/2020 05:12:09	120220	12022020	051209	183.47	13.226052	-57.046630	183.54	-0.320	0.370	3.250	183.42	-1.00	3.80	 	 	 	 	 	 	 	 	 	 	 	 	 	 	 	 	 	 	1581484329	7.02	13.00
12/02/2020 05:12:10	120220	12022020	051210	183.38	13.226020	-57.046638	183.52	0.020	0.480	3.160	183.40	-0.90	3.60	 	 	 	 	 	 	 	 	 	 	 	 	 	 	 	 	 	 	1581484330	7.30	13.52
12/02/2020 05:12:11	120220	12022020	051211	183.47	13.225983	-57.046642	183.60	0.410	0.040	2.820	183.48	-1.40	3.30	 	 	 	 	 	 	 	 	 	 	 	 	 	 	 	 	 	 	1581484331	7.61	14.09
12/02/2020 05:12:12	120220	12022020	051212	183.53	13.225947	-57.046645	183.66	0.640	-0.520	2.370	183.54	-2.00	2.80	 	 	 	 	 	 	 	 	 	 	 	 	 	 	 	 	 	 	1581484332	8.10	15.00
12/02/2020 05:12:13	120220	12022020	051213	183.65	13.225908	-57.046645	183.80	0.570	-0.600	1.810	183.69	-1.90	2.30	 	 	 	 	 	 	 	 	 	 	 	 	 	 	 	 	 	 	1581484333	8.28	15.33
12/02/2020 05:12:14	120220	12022020	051214	183.95	13.225872	-57.046645	184.10	0.130	-0.200	1.520	184.02	-1.50	2.00	 	 	 	 	 	 	 	 	 	 	 	 	 	 	 	 	 	 	1581484334	7.76	14.37
12/02/2020 05:12:15	120220	12022020	051215	184.32	13.225840	-57.046647	184.47	-0.450	0.080	1.650	184.38	-1.30	2.20	 	 	 	 	 	 	 	 	 	 	 	 	 	 	 	 	 	 	1581484335	7.05	13.06
12/02/2020 05:12:16	120220	12022020	051216	184.49	13.225807	-57.046652	184.60	-0.800	-0.160	2.080	184.49	-1.60	2.60	 	 	 	 	 	 	 	 	 	 	 	 	 	 	 	 	 	 	1581484336	7.08	13.11
12/02/2020 05:12:17	120220	12022020	051217	184.38	13.225772	-57.046662	184.46	-0.770	-0.580	2.690	184.34	-2.00	3.30	 	 	 	 	 	 	 	 	 	 	 	 	 	 	 	 	 	 	1581484337	7.74	14.33
12/02/2020 05:12:18	120220	12022020	051218	184.12	13.225737	-57.046675	184.19	-0.420	-0.630	3.230	184.06	-2.00	3.80	 	 	 	 	 	 	 	 	 	 	 	 	 	 	 	 	 	 	1581484338	8.20	15.19
12/02/2020 05:12:19	120220	12022020	051219	183.89	13.225700	-57.046685	184.00	0.020	-0.230	3.290	183.86	-1.50	3.80	 	 	 	 	 	 	 	 	 	 	 	 	 	 	 	 	 	 	1581484339	7.94	14.70
12/02/2020 05:12:20	120220	12022020	051220	183.86	13.225667	-57.046693	184.02	0.360	0.210	2.830	183.88	-1.10	3.20	 	 	 	 	 	 	 	 	 	 	 	 	 	 	 	 	 	 	1581484340	7.38	13.67
12/02/2020 05:12:21	120220	12022020	051221	184.05	13.225633	-57.046697	184.21	0.600	0.270	1.970	184.09	-1.10	2.40	 	 	 	 	 	 	 	 	 	 	 	 	 	 	 	 	 	 	1581484341	7.16	13.26
12/02/2020 05:12:22	120220	12022020	051222	184.25	13.225600	-57.046695	184.38	0.800	-0.090	1.120	184.29	-1.50	1.60	 	 	 	 	 	 	 	 	 	 	 	 	 	 	 	 	 	 	1581484342	7.49	13.87
12/02/2020 05:12:23	120220	12022020	051223	184.40	13.225563	-57.046692	184.51	0.800	-0.550	0.680	184.42	-2.00	1.20	 	 	 	 	 	 	 	 	 	 	 	 	 	 	 	 	 	 	1581484343	7.93	14.69
12/02/2020 05:12:24	120220	12022020	051224	184.47	13.225525	-57.046690	184.55	0.450	-0.780	0.870	184.47	-2.20	1.40	 	 	 	 	 	 	 	 	 	 	 	 	 	 	 	 	 	 	1581484344	7.99	14.80
12/02/2020 05:12:25	120220	12022020	051225	184.36	13.225490	-57.046695	184.42	-0.090	-0.750	1.630	184.30	-2.10	2.30	 	 	 	 	 	 	 	 	 	 	 	 	 	 	 	 	 	 	1581484345	7.69	14.24
12/02/2020 05:12:26	120220	12022020	051226	183.98	13.225455	-57.046703	184.03	-0.470	-0.610	2.680	183.88	-2.00	3.30	 	 	 	 	 	 	 	 	 	 	 	 	 	 	 	 	 	 	1581484346	7.58	14.04
12/02/2020 05:12:27	120220	12022020	051227	183.60	13.225422	-57.046715	183.74	-0.630	-0.220	3.560	183.58	-1.50	4.10	 	 	 	 	 	 	 	 	 	 	 	 	 	 	 	 	 	 	1581484347	7.77	14.39
12/02/2020 05:12:28	120220	12022020	051228	183.71	13.225387	-57.046725	183.95	-0.770	0.360	3.910	183.79	-1.00	4.40	 	 	 	 	 	 	 	 	 	 	 	 	 	 	 	 	 	 	1581484348	7.71	14.28
12/02/2020 05:12:29	120220	12022020	051229	184.14	13.225355	-57.046735	184.38	-0.820	0.570	3.730	184.23	-0.80	4.20	 	 	 	 	 	 	 	 	 	 	 	 	 	 	 	 	 	 	1581484349	7.36	13.63
12/02/2020 05:12:30	120220	12022020	051230	184.47	13.225320	-57.046745	184.63	-0.500	0.110	3.190	184.49	-1.40	3.60	 	 	 	 	 	 	 	 	 	 	 	 	 	 	 	 	 	 	1581484350	7.49	13.87
12/02/2020 05:12:31	120220	12022020	051231	184.52	13.225283	-57.046752	184.65	0.250	-0.590	2.260	184.53	-2.00	2.60	 	 	 	 	 	 	 	 	 	 	 	 	 	 	 	 	 	 	1581484351	8.08	14.96
12/02/2020 05:12:32	120220	12022020	051232	184.66	13.225245	-57.046755	184.81	0.870	-0.550	1.090	184.73	-1.90	1.50	 	 	 	 	 	 	 	 	 	 	 	 	 	 	 	 	 	 	1581484352	8.37	15.50
12/02/2020 05:12:33	120220	12022020	051233	185.00	13.225210	-57.046753	185.12	0.910	0.060	0.070	185.07	-1.30	0.50	 	 	 	 	 	 	 	 	 	 	 	 	 	 	 	 	 	 	1581484353	7.63	14.13
12/02/2020 05:12:34	120220	12022020	051234	185.22	13.225178	-57.046748	185.27	0.560	0.220	-0.440	185.22	-1.20	0.10	 	 	 	 	 	 	 	 	 	 	 	 	 	 	 	 	 	 	1581484354	6.79	12.58
12/02/2020 05:12:35	120220	12022020	051235	185.01	13.225145	-57.046747	184.99	0.260	-0.570	0.010	184.92	-2.10	0.60	 	 	 	 	 	 	 	 	 	 	 	 	 	 	 	 	 	 	1581484355	7.03	13.02
12/02/2020 05:12:36	120220	12022020	051236	184.45	13.225108	-57.046752	184.45	0.130	-1.550	1.240	184.34	-3.00	1.90	 	 	 	 	 	 	 	 	 	 	 	 	 	 	 	 	 	 	1581484356	8.12	15.04
12/02/2020 05:12:37	120220	12022020	051237	183.98	13.225068	-57.046762	184.07	-0.060	-1.460	2.570	183.92	-2.70	3.20	 	 	 	 	 	 	 	 	 	 	 	 	 	 	 	 	 	 	1581484357	8.87	16.43
12/02/2020 05:12:38	120220	12022020	051238	183.88	13.225032	-57.046775	184.07	-0.470	-0.180	3.370	183.92	-1.40	3.90	 	 	 	 	 	 	 	 	 	 	 	 	 	 	 	 	 	 	1581484358	8.26	15.30
12/02/2020 05:12:39	120220	12022020	051239	184.14	13.225002	-57.046787	184.36	-0.860	1.070	3.470	184.21	-0.20	3.90	 	 	 	 	 	 	 	 	 	 	 	 	 	 	 	 	 	 	1581484359	7.03	13.02
12/02/2020 05:12:40	120220	12022020	051240	184.55	13.224972	-57.046795	184.79	-0.920	1.250	3.040	184.64	-0.20	3.50	 	 	 	 	 	 	 	 	 	 	 	 	 	 	 	 	 	 	1581484360	6.67	12.35
12/02/2020 05:12:41	120220	12022020	051241	184.98	13.224938	-57.046802	185.21	-0.600	0.470	2.430	185.05	-1.10	2.80	 	 	 	 	 	 	 	 	 	 	 	 	 	 	 	 	 	 	1581484361	7.46	13.82
12/02/2020 05:12:42	120220	12022020	051242	185.25	13.224900	-57.046807	185.40	-0.130	-0.500	1.820	185.27	-2.00	2.30	 	 	 	 	 	 	 	 	 	 	 	 	 	 	 	 	 	 	1581484362	8.28	15.33
12/02/2020 05:12:43	120220	12022020	051243	185.20	13.224860	-57.046812	185.28	0.360	-1.040	1.380	185.15	-2.50	1.90	 	 	 	 	 	 	 	 	 	 	 	 	 	 	 	 	 	 	1581484363	8.38	15.52
12/02/2020 05:12:44	120220	12022020	051244	184.93	13.224823	-57.046815	185.00	0.730	-0.960	1.130	184.88	-2.30	1.60	 	 	 	 	 	 	 	 	 	 	 	 	 	 	 	 	 	 	1581484364	7.96	14.74
12/02/2020 05:12:45	120220	12022020	051245	184.75	13.224790	-57.046817	184.83	0.830	-0.450	1.010	184.73	-1.80	1.50	 	 	 	 	 	 	 	 	 	 	 	 	 	 	 	 	 	 	1581484365	7.41	13.72
12/02/2020 05:12:46	120220	12022020	051246	184.66	13.224757	-57.046818	184.76	0.630	-0.050	1.080	184.66	-1.40	1.60	 	 	 	 	 	 	 	 	 	 	 	 	 	 	 	 	 	 	1581484366	7.00	12.96
12/02/2020 05:12:47	120220	12022020	051247	184.65	13.224723	-57.046820	184.75	0.240	-0.040	1.490	184.64	-1.50	2.10	 	 	 	 	 	 	 	 	 	 	 	 	 	 	 	 	 	 	1581484367	7.15	13.24
12/02/2020 05:12:48	120220	12022020	051248	184.53	13.224688	-57.046825	184.62	-0.160	-0.270	2.270	184.48	-1.70	2.90	 	 	 	 	 	 	 	 	 	 	 	 	 	 	 	 	 	 	1581484368	7.59	14.06
12/02/2020 05:12:49	120220	12022020	051249	184.25	13.224652	-57.046833	184.34	-0.370	-0.450	3.060	184.19	-1.80	3.60	 	 	 	 	 	 	 	 	 	 	 	 	 	 	 	 	 	 	1581484369	8.04	14.89
12/02/2020 05:12:50	120220	12022020	051250	184.06	13.224617	-57.046845	184.20	-0.340	-0.370	3.470	184.06	-1.70	4.00	 	 	 	 	 	 	 	 	 	 	 	 	 	 	 	 	 	 	1581484370	8.21	15.20
12/02/2020 05:12:51	120220	12022020	051251	184.19	13.224580	-57.046857	184.40	-0.200	-0.010	3.190	184.27	-1.30	3.60	 	 	 	 	 	 	 	 	 	 	 	 	 	 	 	 	 	 	1581484371	7.99	14.80
12/02/2020 05:12:52	120220	12022020	051252	184.81	13.224545	-57.046863	185.07	-0.170	0.500	2.220	184.98	-0.90	2.60	 	 	 	 	 	 	 	 	 	 	 	 	 	 	 	 	 	 	1581484372	7.55	13.98
12/02/2020 05:12:53	120220	12022020	051253	185.59	13.224513	-57.046865	185.80	-0.270	0.560	1.300	185.71	-0.90	1.70	 	 	 	 	 	 	 	 	 	 	 	 	 	 	 	 	 	 	1581484373	7.01	12.98
12/02/2020 05:12:54	120220	12022020	051254	185.85	13.224480	-57.046865	185.91	-0.230	-0.360	1.170	185.80	-1.90	1.70	 	 	 	 	 	 	 	 	 	 	 	 	 	 	 	 	 	 	1581484374	7.12	13.19
12/02/2020 05:12:55	120220	12022020	051255	185.33	13.224443	-57.046870	185.30	0.140	-1.640	1.760	185.16	-3.10	2.40	 	 	 	 	 	 	 	 	 	 	 	 	 	 	 	 	 	 	1581484375	8.06	14.93
12/02/2020 05:12:56	120220	12022020	051256	184.58	13.224402	-57.046878	184.62	0.470	-1.930	2.400	184.48	-3.20	2.90	 	 	 	 	 	 	 	 	 	 	 	 	 	 	 	 	 	 	1581484376	8.90	16.48
12/02/2020 05:12:57	120220	12022020	051257	184.41	13.224363	-57.046885	184.57	0.280	-0.770	2.530	184.45	-1.90	3.00	 	 	 	 	 	 	 	 	 	 	 	 	 	 	 	 	 	 	1581484377	8.40	15.56
12/02/2020 05:12:58	120220	12022020	051258	184.82	13.224332	-57.046890	185.04	-0.260	0.850	2.240	184.94	-0.40	2.70	 	 	 	 	 	 	 	 	 	 	 	 	 	 	 	 	 	 	1581484378	6.95	12.87
12/02/2020 05:12:59	120220	12022020	051259	185.39	13.224303	-57.046897	185.58	-0.530	1.660	1.770	185.48	0.30	2.20	 	 	 	 	 	 	 	 	 	 	 	 	 	 	 	 	 	 	1581484379	6.22	11.52
12/02/2020 05:13:00	120220	12022020	051300	185.81	13.224272	-57.046900	185.95	-0.170	1.130	1.390	185.86	-0.40	1.90	 	 	 	 	 	 	 	 	 	 	 	 	 	 	 	 	 	 	1581484380	6.76	12.52
12/02/2020 05:13:01	120220	12022020	051301	185.88	13.224235	-57.046905	185.95	0.470	-0.220	1.470	185.86	-1.80	2.00	1016.10	26.00	26.10	20.60	20.70	-1.0	72.0	72.0	396.0	25.7	261.00	12.10	68.00	13.30	16	10040.0	27.2	27.2	1581484381	7.97	14.76
12/02/2020 05:13:02	120220	12022020	051302	185.70	13.224195	-57.046910	185.77	0.810	-1.250	1.850	185.65	-2.70	2.40	 	 	 	 	 	 	 	 	 	 	 	 	 	 	 	 	 	 	1581484382	8.80	16.30
12/02/2020 05:13:03	120220	12022020	051303	185.51	13.224155	-57.046915	185.60	0.540	-1.250	2.300	185.47	-2.60	2.90	 	 	 	 	 	 	 	 	 	 	 	 	 	 	 	 	 	 	1581484383	8.56	15.85
12/02/2020 05:13:04	120220	12022020	051304	185.40	13.224122	-57.046923	185.52	-0.060	-0.600	2.600	185.39	-1.90	3.10	 	 	 	 	 	 	 	 	 	 	 	 	 	 	 	 	 	 	1581484384	7.51	13.91
12/02/2020 05:13:05	120220	12022020	051305	185.35	13.224090	-57.046932	185.48	-0.540	-0.160	2.670	185.34	-1.50	3.20	 	 	 	 	 	 	 	 	 	 	 	 	 	 	 	 	 	 	1581484385	6.89	12.76
12/02/2020 05:13:06	120220	12022020	051306	185.31	13.224058	-57.046940	185.46	-0.620	-0.200	2.630	185.32	-1.60	3.10	 	 	 	 	 	 	 	 	 	 	 	 	 	 	 	 	 	 	1581484386	7.19	13.32
12/02/2020 05:13:07	120220	12022020	051307	185.40	13.224023	-57.046950	185.56	-0.360	-0.390	2.340	185.44	-1.80	2.80	 	 	 	 	 	 	 	 	 	 	 	 	 	 	 	 	 	 	1581484387	7.85	14.54
12/02/2020 05:13:08	120220	12022020	051308	185.59	13.223987	-57.046958	185.72	-0.010	-0.330	1.750	185.61	-1.70	2.20	 	 	 	 	 	 	 	 	 	 	 	 	 	 	 	 	 	 	1581484388	8.06	14.93
12/02/2020 05:13:09	120220	12022020	051309	185.64	13.223950	-57.046962	185.73	0.250	-0.130	1.290	185.64	-1.50	1.80	 	 	 	 	 	 	 	 	 	 	 	 	 	 	 	 	 	 	1581484389	7.76	14.37
12/02/2020 05:13:10	120220	12022020	051310	185.54	13.223915	-57.046963	185.60	0.370	-0.110	1.280	185.51	-1.50	1.80	 	 	 	 	 	 	 	 	 	 	 	 	 	 	 	 	 	 	1581484390	7.59	14.06
12/02/2020 05:13:11	120220	12022020	051311	185.35	13.223878	-57.046967	185.43	0.370	-0.150	1.420	185.33	-1.50	1.90	 	 	 	 	 	 	 	 	 	 	 	 	 	 	 	 	 	 	1581484391	7.79	14.43
12/02/2020 05:13:12	120220	12022020	051312	185.33	13.223842	-57.046970	185.45	0.190	0.060	1.530	185.35	-1.30	2.00	 	 	 	 	 	 	 	 	 	 	 	 	 	 	 	 	 	 	1581484392	7.94	14.70
12/02/2020 05:13:13	120220	12022020	051313	185.49	13.223807	-57.046973	185.63	-0.100	0.250	1.880	185.53	-1.20	2.40	 	 	 	 	 	 	 	 	 	 	 	 	 	 	 	 	 	 	1581484393	7.62	14.11
12/02/2020 05:13:14	120220	12022020	051314	185.66	13.223773	-57.046980	185.81	-0.360	0.110	2.490	185.69	-1.30	3.10	 	 	 	 	 	 	 	 	 	 	 	 	 	 	 	 	 	 	1581484394	7.48	13.85
12/02/2020 05:13:15	120220	12022020	051315	185.72	13.223738	-57.046990	185.85	-0.450	-0.320	3.070	185.71	-1.80	3.60	 	 	 	 	 	 	 	 	 	 	 	 	 	 	 	 	 	 	1581484395	7.78	14.41
12/02/2020 05:13:16	120220	12022020	051316	185.59	13.223702	-57.047003	185.72	-0.360	-0.700	3.490	185.55	-2.10	4.00	 	 	 	 	 	 	 	 	 	 	 	 	 	 	 	 	 	 	1581484396	8.13	15.06
12/02/2020 05:13:17	120220	12022020	051317	185.42	13.223667	-57.047015	185.57	-0.090	-0.720	3.500	185.39	-2.10	3.90	 	 	 	 	 	 	 	 	 	 	 	 	 	 	 	 	 	 	1581484397	8.17	15.13
12/02/2020 05:13:18	120220	12022020	051318	185.25	13.223632	-57.047025	185.38	0.380	-0.500	3.020	185.21	-1.90	3.40	 	 	 	 	 	 	 	 	 	 	 	 	 	 	 	 	 	 	1581484398	7.75	14.35
12/02/2020 05:13:19	120220	12022020	051319	185.12	13.223597	-57.047030	185.25	0.780	-0.280	2.200	185.12	-1.60	2.60	 	 	 	 	 	 	 	 	 	 	 	 	 	 	 	 	 	 	1581484399	7.48	13.85
12/02/2020 05:13:20	120220	12022020	051320	185.28	13.223562	-57.047028	185.47	0.690	-0.030	1.500	185.36	-1.40	1.90	 	 	 	 	 	 	 	 	 	 	 	 	 	 	 	 	 	 	1581484400	7.63	14.13
12/02/2020 05:13:21	120220	12022020	051321	185.72	13.223527	-57.047028	185.91	0.120	0.060	1.180	185.81	-1.40	1.70	 	 	 	 	 	 	 	 	 	 	 	 	 	 	 	 	 	 	1581484401	7.57	14.02
12/02/2020 05:13:22	120220	12022020	051322	186.01	13.223492	-57.047030	186.12	-0.400	-0.350	1.250	186.01	-1.90	1.80	 	 	 	 	 	 	 	 	 	 	 	 	 	 	 	 	 	 	1581484402	7.50	13.89
12/02/2020 05:13:23	120220	12022020	051323	185.86	13.223455	-57.047037	185.92	-0.400	-1.050	1.700	185.81	-2.50	2.30	 	 	 	 	 	 	 	 	 	 	 	 	 	 	 	 	 	 	1581484403	8.07	14.95
12/02/2020 05:13:24	120220	12022020	051324	185.58	13.223415	-57.047047	185.67	-0.100	-1.060	2.220	185.54	-2.40	2.80	 	 	 	 	 	 	 	 	 	 	 	 	 	 	 	 	 	 	1581484404	8.74	16.19
12/02/2020 05:13:25	120220	12022020	051325	185.46	13.223378	-57.047057	185.59	-0.030	-0.160	2.610	185.45	-1.40	3.10	 	 	 	 	 	 	 	 	 	 	 	 	 	 	 	 	 	 	1581484405	8.26	15.30
12/02/2020 05:13:26	120220	12022020	051326	185.52	13.223345	-57.047063	185.69	-0.380	0.840	2.680	185.55	-0.50	3.10	 	 	 	 	 	 	 	 	 	 	 	 	 	 	 	 	 	 	1581484406	7.24	13.41
12/02/2020 05:13:27	120220	12022020	051327	185.75	13.223313	-57.047070	185.93	-0.790	1.170	2.500	185.80	-0.30	2.90	 	 	 	 	 	 	 	 	 	 	 	 	 	 	 	 	 	 	1581484407	6.91	12.80
12/02/2020 05:13:28	120220	12022020	051328	186.06	13.223280	-57.047080	186.26	-0.740	0.730	2.170	186.13	-0.80	2.60	 	 	 	 	 	 	 	 	 	 	 	 	 	 	 	 	 	 	1581484408	7.38	13.67
12/02/2020 05:13:29	120220	12022020	051329	186.34	13.223245	-57.047088	186.50	-0.040	-0.080	1.620	186.38	-1.60	2.00	 	 	 	 	 	 	 	 	 	 	 	 	 	 	 	 	 	 	1581484409	8.01	14.83
12/02/2020 05:13:30	120220	12022020	051330	186.44	13.223207	-57.047095	186.53	0.870	-0.840	1.000	186.43	-2.30	1.40	 	 	 	 	 	 	 	 	 	 	 	 	 	 	 	 	 	 	1581484410	8.22	15.22
12/02/2020 05:13:31	120220	12022020	051331	186.35	13.223168	-57.047097	186.40	1.350	-1.260	0.580	186.31	-2.70	1.10	 	 	 	 	 	 	 	 	 	 	 	 	 	 	 	 	 	 	1581484411	8.15	15.09
12/02/2020 05:13:32	120220	12022020	051332	186.15	13.223132	-57.047097	186.18	1.060	-1.240	0.650	186.10	-2.60	1.20	 	 	 	 	 	 	 	 	 	 	 	 	 	 	 	 	 	 	1581484412	7.92	14.67
12/02/2020 05:13:33	120220	12022020	051333	185.94	13.223097	-57.047100	185.98	0.270	-0.920	1.120	185.91	-2.30	1.70	 	 	 	 	 	 	 	 	 	 	 	 	 	 	 	 	 	 	1581484413	7.55	13.98
12/02/2020 05:13:34	120220	12022020	051334	185.77	13.223063	-57.047107	185.82	-0.450	-0.570	1.750	185.74	-1.90	2.30	 	 	 	 	 	 	 	 	 	 	 	 	 	 	 	 	 	 	1581484414	7.45	13.80
12/02/2020 05:13:35	120220	12022020	051335	185.57	13.223028	-57.047117	185.64	-0.730	-0.330	2.470	185.52	-1.70	3.00	 	 	 	 	 	 	 	 	 	 	 	 	 	 	 	 	 	 	1581484415	7.75	14.35
12/02/2020 05:13:36	120220	12022020	051336	185.38	13.222992	-57.047128	185.50	-0.680	0.020	3.060	185.37	-1.30	3.60	 	 	 	 	 	 	 	 	 	 	 	 	 	 	 	 	 	 	1581484416	8.20	15.19
12/02/2020 05:13:37	120220	12022020	051337	185.44	13.222955	-57.047140	185.61	-0.640	0.620	3.280	185.48	-0.70	3.70	 	 	 	 	 	 	 	 	 	 	 	 	 	 	 	 	 	 	1581484417	8.17	15.13
12/02/2020 05:13:38	120220	12022020	051338	185.71	13.222920	-57.047148	185.90	-0.720	1.080	3.100	185.76	-0.30	3.50	 	 	 	 	 	 	 	 	 	 	 	 	 	 	 	 	 	 	1581484418	7.69	14.24
12/02/2020 05:13:39	120220	12022020	051339	185.93	13.222887	-57.047157	186.07	-0.560	0.830	2.600	185.94	-0.70	3.00	 	 	 	 	 	 	 	 	 	 	 	 	 	 	 	 	 	 	1581484419	7.43	13.76
12/02/2020 05:13:40	120220	12022020	051340	186.00	13.222852	-57.047163	186.13	0.110	-0.040	1.770	186.01	-1.60	2.10	 	 	 	 	 	 	 	 	 	 	 	 	 	 	 	 	 	 	1581484420	7.84	14.52
12/02/2020 05:13:41	120220	12022020	051341	186.04	13.222812	-57.047167	186.14	0.940	-0.860	0.870	186.04	-2.40	1.30	 	 	 	 	 	 	 	 	 	 	 	 	 	 	 	 	 	 	1581484421	8.41	15.58
12/02/2020 05:13:42	120220	12022020	051342	185.95	13.222773	-57.047167	186.01	1.230	-1.210	0.480	185.91	-2.60	1.00	 	 	 	 	 	 	 	 	 	 	 	 	 	 	 	 	 	 	1581484422	8.40	15.56
12/02/2020 05:13:43	120220	12022020	051343	185.76	13.222737	-57.047167	185.81	0.710	-1.010	0.620	185.72	-2.40	1.20	 	 	 	 	 	 	 	 	 	 	 	 	 	 	 	 	 	 	1581484423	7.91	14.65
12/02/2020 05:13:44	120220	12022020	051344	185.54	13.222703	-57.047170	185.59	-0.160	-0.550	1.220	185.50	-1.90	1.80	 	 	 	 	 	 	 	 	 	 	 	 	 	 	 	 	 	 	1581484424	7.35	13.61
12/02/2020 05:13:45	120220	12022020	051345	185.35	13.222670	-57.047180	185.43	-0.640	-0.200	1.970	185.32	-1.60	2.50	 	 	 	 	 	 	 	 	 	 	 	 	 	 	 	 	 	 	1581484425	7.29	13.50
12/02/2020 05:13:46	120220	12022020	051346	185.29	13.222637	-57.047192	185.42	-0.530	-0.070	2.520	185.30	-1.50	3.00	 	 	 	 	 	 	 	 	 	 	 	 	 	 	 	 	 	 	1581484426	7.68	14.22
12/02/2020 05:13:47	120220	12022020	051347	185.38	13.222600	-57.047203	185.52	-0.060	-0.070	2.730	185.40	-1.50	3.20	 	 	 	 	 	 	 	 	 	 	 	 	 	 	 	 	 	 	1581484427	8.02	14.85
12/02/2020 05:13:48	120220	12022020	051348	185.47	13.222563	-57.047212	185.59	0.390	-0.120	2.650	185.48	-1.50	3.10	 	 	 	 	 	 	 	 	 	 	 	 	 	 	 	 	 	 	1581484428	8.12	15.04
12/02/2020 05:13:49	120220	12022020	051349	185.47	13.222527	-57.047217	185.60	0.520	-0.140	2.390	185.47	-1.50	2.80	 	 	 	 	 	 	 	 	 	 	 	 	 	 	 	 	 	 	1581484429	8.10	15.00
12/02/2020 05:13:50	120220	12022020	051350	185.53	13.222488	-57.047218	185.67	0.120	-0.020	2.140	185.55	-1.40	2.60	 	 	 	 	 	 	 	 	 	 	 	 	 	 	 	 	 	 	1581484430	8.06	14.93
12/02/2020 05:13:51	120220	12022020	051351	185.62	13.222453	-57.047222	185.76	-0.510	0.110	2.220	185.64	-1.30	2.70	 	 	 	 	 	 	 	 	 	 	 	 	 	 	 	 	 	 	1581484431	7.78	14.41
12/02/2020 05:13:52	120220	12022020	051352	185.76	13.222418	-57.047228	185.91	-0.860	0.090	2.320	185.80	-1.30	2.80	 	 	 	 	 	 	 	 	 	 	 	 	 	 	 	 	 	 	1581484432	7.63	14.13
12/02/2020 05:13:53	120220	12022020	051353	185.98	13.222383	-57.047240	186.14	-0.600	-0.130	2.120	186.03	-1.60	2.60	 	 	 	 	 	 	 	 	 	 	 	 	 	 	 	 	 	 	1581484433	7.75	14.35
12/02/2020 05:13:54	120220	12022020	051354	186.16	13.222348	-57.047248	186.29	0.070	-0.540	1.720	186.19	-2.00	2.20	 	 	 	 	 	 	 	 	 	 	 	 	 	 	 	 	 	 	1581484434	7.88	14.59
12/02/2020 05:13:55	120220	12022020	051355	186.19	13.222312	-57.047253	186.27	0.660	-0.830	1.380	186.18	-2.30	1.80	 	 	 	 	 	 	 	 	 	 	 	 	 	 	 	 	 	 	1581484435	8.04	14.89
12/02/2020 05:13:56	120220	12022020	051356	186.02	13.222273	-57.047258	186.06	0.840	-0.830	1.190	185.97	-2.20	1.70	 	 	 	 	 	 	 	 	 	 	 	 	 	 	 	 	 	 	1581484436	8.00	14.82
12/02/2020 05:13:57	120220	12022020	051357	185.80	13.222237	-57.047260	185.85	0.590	-0.520	1.100	185.77	-1.90	1.60	 	 	 	 	 	 	 	 	 	 	 	 	 	 	 	 	 	 	1581484437	7.86	14.56
12/02/2020 05:13:58	120220	12022020	051358	185.70	13.222202	-57.047262	185.78	0.160	-0.070	1.220	185.70	-1.40	1.70	 	 	 	 	 	 	 	 	 	 	 	 	 	 	 	 	 	 	1581484438	7.69	14.24
12/02/2020 05:13:59	120220	12022020	051359	185.73	13.222167	-57.047267	185.83	-0.130	0.250	1.570	185.74	-1.10	2.10	 	 	 	 	 	 	 	 	 	 	 	 	 	 	 	 	 	 	1581484439	7.61	14.09
12/02/2020 05:14:00	120220	12022020	051400	185.75	13.222132	-57.047272	185.84	-0.200	0.210	2.080	185.74	-1.20	2.60	 	 	 	 	 	 	 	 	 	 	 	 	 	 	 	 	 	 	1581484440	7.75	14.35
12/02/2020 05:14:01	120220	12022020	051401	185.73	13.222093	-57.047280	185.85	-0.290	-0.080	2.650	185.73	-1.50	3.20	1015.90	26.00	26.10	20.60	20.70	-1.0	72.0	72.0	396.0	25.7	257.00	11.40	65.00	13.00	16	9904.0	27.2	27.2	1581484441	8.13	15.06
12/02/2020 05:14:02	120220	12022020	051402	185.80	13.222057	-57.047290	185.97	-0.500	-0.230	3.110	185.83	-1.60	3.60	 	 	 	 	 	 	 	 	 	 	 	 	 	 	 	 	 	 	1581484442	8.42	15.59
12/02/2020 05:14:03	120220	12022020	051403	186.03	13.222020	-57.047302	186.22	-0.610	0.030	3.120	186.09	-1.30	3.50	 	 	 	 	 	 	 	 	 	 	 	 	 	 	 	 	 	 	1581484443	8.22	15.22
12/02/2020 05:14:04	120220	12022020	051404	186.30	13.221987	-57.047313	186.45	-0.360	0.270	2.600	186.32	-1.20	3.00	 	 	 	 	 	 	 	 	 	 	 	 	 	 	 	 	 	 	1581484444	7.58	14.04
12/02/2020 05:14:05	120220	12022020	051405	186.36	13.221953	-57.047320	186.48	0.190	-0.070	1.950	186.36	-1.60	2.40	 	 	 	 	 	 	 	 	 	 	 	 	 	 	 	 	 	 	1581484445	7.26	13.45
12/02/2020 05:14:06	120220	12022020	051406	186.33	13.221917	-57.047322	186.42	0.650	-0.730	1.500	186.32	-2.20	2.00	 	 	 	 	 	 	 	 	 	 	 	 	 	 	 	 	 	 	1581484446	7.87	14.58
12/02/2020 05:14:07	120220	12022020	051407	186.23	13.221878	-57.047325	186.28	0.770	-1.100	1.350	186.20	-2.50	1.80	 	 	 	 	 	 	 	 	 	 	 	 	 	 	 	 	 	 	1581484447	8.30	15.37
12/02/2020 05:14:08	120220	12022020	051408	186.12	13.221840	-57.047328	186.20	0.620	-0.920	1.260	186.13	-2.30	1.70	 	 	 	 	 	 	 	 	 	 	 	 	 	 	 	 	 	 	1581484448	8.13	15.06
12/02/2020 05:14:09	120220	12022020	051409	186.22	13.221805	-57.047332	186.32	0.380	-0.440	1.060	186.26	-1.80	1.50	 	 	 	 	 	 	 	 	 	 	 	 	 	 	 	 	 	 	1581484449	7.73	14.32
12/02/2020 05:14:10	120220	12022020	051410	186.39	13.221770	-57.047335	186.46	0.120	-0.180	1.060	186.40	-1.60	1.60	 	 	 	 	 	 	 	 	 	 	 	 	 	 	 	 	 	 	1581484450	7.51	13.91
12/02/2020 05:14:11	120220	12022020	051411	186.33	13.221733	-57.047337	186.36	-0.250	-0.310	1.620	186.28	-1.80	2.20	 	 	 	 	 	 	 	 	 	 	 	 	 	 	 	 	 	 	1581484451	7.79	14.43
12/02/2020 05:14:12	120220	12022020	051412	186.05	13.221695	-57.047345	186.07	-0.700	-0.440	2.380	185.98	-1.80	2.90	 	 	 	 	 	 	 	 	 	 	 	 	 	 	 	 	 	 	1581484452	8.34	15.45
12/02/2020 05:14:13	120220	12022020	051413	185.75	13.221657	-57.047355	185.80	-1.010	-0.070	2.960	185.69	-1.40	3.50	 	 	 	 	 	 	 	 	 	 	 	 	 	 	 	 	 	 	1581484453	8.59	15.91
12/02/2020 05:14:14	120220	12022020	051414	185.59	13.221622	-57.047368	185.69	-0.980	0.660	3.100	185.60	-0.70	3.50	 	 	 	 	 	 	 	 	 	 	 	 	 	 	 	 	 	 	1581484454	8.21	15.20
12/02/2020 05:14:15	120220	12022020	051415	185.81	13.221588	-57.047380	185.98	-0.620	1.090	2.670	185.89	-0.30	3.10	 	 	 	 	 	 	 	 	 	 	 	 	 	 	 	 	 	 	1581484455	7.59	14.06
12/02/2020 05:14:16	120220	12022020	051416	186.34	13.221553	-57.047388	186.53	-0.100	0.770	1.860	186.46	-0.70	2.20	 	 	 	 	 	 	 	 	 	 	 	 	 	 	 	 	 	 	1581484456	7.46	13.82
12/02/2020 05:14:17	120220	12022020	051417	186.85	13.221518	-57.047393	186.98	0.510	-0.130	1.120	186.92	-1.70	1.50	 	 	 	 	 	 	 	 	 	 	 	 	 	 	 	 	 	 	1581484457	7.86	14.56
12/02/2020 05:14:18	120220	12022020	051418	187.01	13.221480	-57.047397	187.06	1.050	-1.000	0.810	186.99	-2.50	1.30	 	 	 	 	 	 	 	 	 	 	 	 	 	 	 	 	 	 	1581484458	8.27	15.32
12/02/2020 05:14:19	120220	12022020	051419	186.80	13.221442	-57.047400	186.81	1.280	-1.250	0.740	186.74	-2.60	1.20	 	 	 	 	 	 	 	 	 	 	 	 	 	 	 	 	 	 	1581484459	8.25	15.28
12/02/2020 05:14:20	120220	12022020	051420	186.54	13.221405	-57.047403	186.56	1.010	-0.920	0.820	186.49	-2.30	1.30	 	 	 	 	 	 	 	 	 	 	 	 	 	 	 	 	 	 	1581484460	7.74	14.33
12/02/2020 05:14:21	120220	12022020	051421	186.35	13.221372	-57.047407	186.38	0.450	-0.450	1.050	186.32	-1.80	1.60	 	 	 	 	 	 	 	 	 	 	 	 	 	 	 	 	 	 	1581484461	7.22	13.37
12/02/2020 05:14:22	120220	12022020	051422	186.19	13.221338	-57.047412	186.23	-0.030	-0.320	1.400	186.15	-1.80	1.90	 	 	 	 	 	 	 	 	 	 	 	 	 	 	 	 	 	 	1581484462	7.19	13.32
12/02/2020 05:14:23	120220	12022020	051423	186.01	13.221303	-57.047418	186.06	-0.240	-0.650	2.010	185.97	-2.10	2.60	 	 	 	 	 	 	 	 	 	 	 	 	 	 	 	 	 	 	1581484463	7.73	14.32
12/02/2020 05:14:24	120220	12022020	051424	185.91	13.221265	-57.047427	186.03	-0.450	-0.880	2.870	185.92	-2.30	3.50	 	 	 	 	 	 	 	 	 	 	 	 	 	 	 	 	 	 	1581484464	8.55	15.83
12/02/2020 05:14:25	120220	12022020	051425	186.05	13.221225	-57.047438	186.24	-0.920	-0.560	3.760	186.10	-1.90	4.30	 	 	 	 	 	 	 	 	 	 	 	 	 	 	 	 	 	 	1581484465	8.77	16.24
12/02/2020 05:14:26	120220	12022020	051426	186.38	13.221188	-57.047453	186.60	-1.420	0.170	4.230	186.44	-1.10	4.70	 	 	 	 	 	 	 	 	 	 	 	 	 	 	 	 	 	 	1581484466	8.40	15.56
12/02/2020 05:14:27	120220	12022020	051427	186.75	13.221157	-57.047470	186.97	-1.410	0.830	3.860	186.82	-0.50	4.20	 	 	 	 	 	 	 	 	 	 	 	 	 	 	 	 	 	 	1581484467	7.91	14.65
12/02/2020 05:14:28	120220	12022020	051428	187.13	13.221123	-57.047482	187.32	-0.640	0.970	2.750	187.19	-0.50	3.10	 	 	 	 	 	 	 	 	 	 	 	 	 	 	 	 	 	 	1581484468	7.52	13.93
12/02/2020 05:14:29	120220	12022020	051429	187.31	13.221088	-57.047487	187.45	0.470	0.420	1.550	187.30	-1.10	1.90	 	 	 	 	 	 	 	 	 	 	 	 	 	 	 	 	 	 	1581484469	7.66	14.19
12/02/2020 05:14:30	120220	12022020	051430	187.09	13.221050	-57.047487	187.16	1.240	-0.380	0.750	187.03	-1.90	1.20	 	 	 	 	 	 	 	 	 	 	 	 	 	 	 	 	 	 	1581484470	8.27	15.32
12/02/2020 05:14:31	120220	12022020	051431	186.80	13.221010	-57.047485	186.85	1.290	-0.670	0.420	186.75	-2.10	0.90	 	 	 	 	 	 	 	 	 	 	 	 	 	 	 	 	 	 	1581484471	8.58	15.89
12/02/2020 05:14:32	120220	12022020	051432	186.63	13.220973	-57.047487	186.71	0.900	-0.430	0.700	186.61	-1.80	1.20	 	 	 	 	 	 	 	 	 	 	 	 	 	 	 	 	 	 	1581484472	7.93	14.69
12/02/2020 05:14:33	120220	12022020	051433	186.58	13.220938	-57.047490	186.67	0.560	-0.260	1.220	186.58	-1.70	1.80	 	 	 	 	 	 	 	 	 	 	 	 	 	 	 	 	 	 	1581484473	7.25	13.43
12/02/2020 05:14:34	120220	12022020	051434	186.52	13.220905	-57.047497	186.62	0.400	-0.560	1.860	186.51	-2.00	2.40	 	 	 	 	 	 	 	 	 	 	 	 	 	 	 	 	 	 	1581484474	7.38	13.67
12/02/2020 05:14:35	120220	12022020	051435	186.48	13.220868	-57.047505	186.61	0.030	-0.930	2.710	186.48	-2.40	3.30	 	 	 	 	 	 	 	 	 	 	 	 	 	 	 	 	 	 	1581484475	8.04	14.89
12/02/2020 05:14:36	120220	12022020	051436	186.50	13.220832	-57.047517	186.66	-0.660	-0.850	3.570	186.51	-2.20	4.10	 	 	 	 	 	 	 	 	 	 	 	 	 	 	 	 	 	 	1581484476	8.37	15.50
12/02/2020 05:14:37	120220	12022020	051437	186.55	13.220797	-57.047533	186.73	-1.250	-0.260	4.110	186.56	-1.60	4.60	 	 	 	 	 	 	 	 	 	 	 	 	 	 	 	 	 	 	1581484477	8.19	15.17
12/02/2020 05:14:38	120220	12022020	051438	186.60	13.220765	-57.047550	186.79	-1.160	0.300	4.010	186.63	-1.10	4.40	 	 	 	 	 	 	 	 	 	 	 	 	 	 	 	 	 	 	1581484478	7.78	14.41
12/02/2020 05:14:39	120220	12022020	051439	186.78	13.220732	-57.047562	186.96	-0.440	0.300	3.160	186.82	-1.20	3.50	 	 	 	 	 	 	 	 	 	 	 	 	 	 	 	 	 	 	1581484479	7.57	14.02
12/02/2020 05:14:40	120220	12022020	051440	186.97	13.220695	-57.047568	187.09	0.320	-0.190	2.090	186.98	-1.70	2.40	 	 	 	 	 	 	 	 	 	 	 	 	 	 	 	 	 	 	1581484480	7.92	14.67
12/02/2020 05:14:41	120220	12022020	051441	186.91	13.220657	-57.047570	186.96	0.650	-0.620	1.280	186.86	-2.10	1.70	 	 	 	 	 	 	 	 	 	 	 	 	 	 	 	 	 	 	1581484481	8.40	15.56
12/02/2020 05:14:42	120220	12022020	051442	186.51	13.220617	-57.047570	186.51	0.580	-0.670	0.990	186.41	-2.10	1.50	 	 	 	 	 	 	 	 	 	 	 	 	 	 	 	 	 	 	1581484482	8.35	15.46
12/02/2020 05:14:43	120220	12022020	051443	186.05	13.220580	-57.047572	186.09	0.380	-0.340	1.040	185.98	-1.70	1.50	 	 	 	 	 	 	 	 	 	 	 	 	 	 	 	 	 	 	1581484483	7.98	14.78
12/02/2020 05:14:44	120220	12022020	051444	185.88	13.220545	-57.047577	185.98	0.180	0.180	1.180	185.90	-1.20	1.70	 	 	 	 	 	 	 	 	 	 	 	 	 	 	 	 	 	 	1581484484	7.65	14.17
12/02/2020 05:14:45	120220	12022020	051445	186.04	13.220510	-57.047582	186.17	0.030	0.470	1.210	186.08	-0.90	1.70	 	 	 	 	 	 	 	 	 	 	 	 	 	 	 	 	 	 	1581484485	7.45	13.80
12/02/2020 05:14:46	120220	12022020	051446	186.23	13.220477	-57.047587	186.36	-0.130	0.190	1.540	186.26	-1.30	2.10	 	 	 	 	 	 	 	 	 	 	 	 	 	 	 	 	 	 	1581484486	7.55	13.98
12/02/2020 05:14:47	120220	12022020	051447	186.26	13.220440	-57.047595	186.38	-0.350	-0.450	2.540	186.24	-1.90	3.10	 	 	 	 	 	 	 	 	 	 	 	 	 	 	 	 	 	 	1581484487	8.05	14.91
12/02/2020 05:14:48	120220	12022020	051448	186.10	13.220402	-57.047607	186.22	-0.560	-0.830	3.710	186.07	-2.30	4.30	 	 	 	 	 	 	 	 	 	 	 	 	 	 	 	 	 	 	1581484488	8.50	15.74
12/02/2020 05:14:49	120220	12022020	051449	185.90	13.220365	-57.047623	186.03	-0.590	-0.740	4.320	185.85	-2.10	4.80	 	 	 	 	 	 	 	 	 	 	 	 	 	 	 	 	 	 	1581484489	8.47	15.69
12/02/2020 05:14:50	120220	12022020	051450	185.66	13.220332	-57.047637	185.79	-0.260	-0.500	4.200	185.61	-1.90	4.60	 	 	 	 	 	 	 	 	 	 	 	 	 	 	 	 	 	 	1581484490	7.98	14.78
12/02/2020 05:14:51	120220	12022020	051451	185.38	13.220297	-57.047647	185.50	0.300	-0.330	3.650	185.32	-1.70	4.00	 	 	 	 	 	 	 	 	 	 	 	 	 	 	 	 	 	 	1581484491	7.70	14.26
12/02/2020 05:14:52	120220	12022020	051452	185.12	13.220260	-57.047652	185.23	0.750	-0.150	2.860	185.08	-1.50	3.20	 	 	 	 	 	 	 	 	 	 	 	 	 	 	 	 	 	 	1581484492	7.78	14.41
12/02/2020 05:14:53	120220	12022020	051453	185.07	13.220223	-57.047652	185.21	0.780	0.170	2.000	185.09	-1.20	2.40	 	 	 	 	 	 	 	 	 	 	 	 	 	 	 	 	 	 	1581484493	7.85	14.54
12/02/2020 05:14:54	120220	12022020	051454	185.32	13.220188	-57.047652	185.48	0.370	0.390	1.450	185.40	-1.00	1.90	 	 	 	 	 	 	 	 	 	 	 	 	 	 	 	 	 	 	1581484494	7.67	14.20
12/02/2020 05:14:55	120220	12022020	051455	185.74	13.220153	-57.047653	185.90	-0.180	0.300	1.380	185.82	-1.20	1.90	 	 	 	 	 	 	 	 	 	 	 	 	 	 	 	 	 	 	1581484495	7.50	13.89
12/02/2020 05:14:56	120220	12022020	051456	186.11	13.220118	-57.047658	186.26	-0.460	-0.110	1.610	186.17	-1.60	2.10	 	 	 	 	 	 	 	 	 	 	 	 	 	 	 	 	 	 	1581484496	7.63	14.13
12/02/2020 05:14:57	120220	12022020	051457	186.30	13.220083	-57.047668	186.41	-0.250	-0.660	1.820	186.31	-2.10	2.30	 	 	 	 	 	 	 	 	 	 	 	 	 	 	 	 	 	 	1581484497	7.93	14.69
12/02/2020 05:14:58	120220	12022020	051458	186.24	13.220047	-57.047677	186.32	0.200	-1.130	2.050	186.20	-2.60	2.50	 	 	 	 	 	 	 	 	 	 	 	 	 	 	 	 	 	 	1581484498	8.12	15.04
12/02/2020 05:14:59	120220	12022020	051459	185.98	13.220008	-57.047683	186.03	0.510	-1.340	2.250	185.91	-2.70	2.70	 	 	 	 	 	 	 	 	 	 	 	 	 	 	 	 	 	 	1581484499	8.17	15.13
12/02/2020 05:15:00	120220	12022020	051500	185.62	13.219972	-57.047690	185.68	0.370	-1.030	2.370	185.55	-2.30	2.90	 	 	 	 	 	 	 	 	 	 	 	 	 	 	 	 	 	 	1581484500	8.15	15.09
12/02/2020 05:15:01	120220	12022020	051501	185.37	13.219935	-57.047695	185.48	-0.200	-0.210	2.510	185.35	-1.50	3.00	1016.00	26.10	26.10	21.00	21.00	-1.0	73.0	73.0	395.0	25.7	258.00	11.30	66.00	12.80	16	9411.0	27.2	27.2	1581484501	7.87	14.58
12/02/2020 05:15:02	120220	12022020	051502	185.33	13.219902	-57.047700	185.47	-0.800	0.540	2.510	185.35	-0.80	2.90	 	 	 	 	 	 	 	 	 	 	 	 	 	 	 	 	 	 	1581484502	7.41	13.72
12/02/2020 05:15:03	120220	12022020	051503	185.51	13.219867	-57.047708	185.67	-1.020	0.760	2.230	185.56	-0.60	2.60	 	 	 	 	 	 	 	 	 	 	 	 	 	 	 	 	 	 	1581484503	7.45	13.80
12/02/2020 05:15:04	120220	12022020	051504	185.80	13.219832	-57.047717	185.96	-0.700	0.510	1.870	185.85	-0.90	2.30	 	 	 	 	 	 	 	 	 	 	 	 	 	 	 	 	 	 	1581484504	7.98	14.78
12/02/2020 05:15:05	120220	12022020	051505	186.08	13.219793	-57.047725	186.23	-0.020	0.140	1.510	186.13	-1.30	1.90	 	 	 	 	 	 	 	 	 	 	 	 	 	 	 	 	 	 	1581484505	8.36	15.48
12/02/2020 05:15:06	120220	12022020	051506	186.31	13.219755	-57.047732	186.45	0.530	0.000	1.090	186.36	-1.40	1.50	 	 	 	 	 	 	 	 	 	 	 	 	 	 	 	 	 	 	1581484506	8.29	15.35
12/02/2020 05:15:07	120220	12022020	051507	186.59	13.219718	-57.047735	186.73	0.610	0.150	0.710	186.65	-1.20	1.20	 	 	 	 	 	 	 	 	 	 	 	 	 	 	 	 	 	 	1581484507	7.85	14.54
12/02/2020 05:15:08	120220	12022020	051508	186.76	13.219685	-57.047737	186.84	0.360	0.060	0.800	186.76	-1.40	1.30	 	 	 	 	 	 	 	 	 	 	 	 	 	 	 	 	 	 	1581484508	7.25	13.43
12/02/2020 05:15:09	120220	12022020	051509	186.64	13.219652	-57.047742	186.69	0.250	-0.560	1.190	186.59	-2.10	1.70	 	 	 	 	 	 	 	 	 	 	 	 	 	 	 	 	 	 	1581484509	7.26	13.45
12/02/2020 05:15:10	120220	12022020	051510	186.40	13.219615	-57.047750	186.43	0.430	-1.230	1.530	186.34	-2.70	2.00	 	 	 	 	 	 	 	 	 	 	 	 	 	 	 	 	 	 	1581484510	7.93	14.69
12/02/2020 05:15:11	120220	12022020	051511	186.08	13.219578	-57.047758	186.10	0.660	-1.430	1.890	185.99	-2.80	2.40	 	 	 	 	 	 	 	 	 	 	 	 	 	 	 	 	 	 	1581484511	8.25	15.28
12/02/2020 05:15:12	120220	12022020	051512	185.66	13.219542	-57.047763	185.69	0.540	-1.210	2.250	185.58	-2.60	2.80	 	 	 	 	 	 	 	 	 	 	 	 	 	 	 	 	 	 	1581484512	7.98	14.78
12/02/2020 05:15:13	120220	12022020	051513	185.30	13.219505	-57.047768	185.37	-0.070	-0.810	2.630	185.25	-2.10	3.10	 	 	 	 	 	 	 	 	 	 	 	 	 	 	 	 	 	 	1581484513	7.81	14.46
12/02/2020 05:15:14	120220	12022020	051514	185.11	13.219470	-57.047775	185.23	-0.950	-0.280	3.120	185.08	-1.60	3.60	 	 	 	 	 	 	 	 	 	 	 	 	 	 	 	 	 	 	1581484514	7.90	14.63
12/02/2020 05:15:15	120220	12022020	051515	185.01	13.219433	-57.047787	185.15	-1.570	0.300	3.660	185.00	-1.00	4.10	 	 	 	 	 	 	 	 	 	 	 	 	 	 	 	 	 	 	1581484515	8.04	14.89
12/02/2020 05:15:16	120220	12022020	051516	185.01	13.219398	-57.047802	185.18	-1.500	0.830	3.730	185.04	-0.50	4.10	 	 	 	 	 	 	 	 	 	 	 	 	 	 	 	 	 	 	1581484516	8.23	15.24
12/02/2020 05:15:17	120220	12022020	051517	185.37	13.219363	-57.047815	185.58	-0.770	1.140	2.900	185.48	-0.30	3.20	 	 	 	 	 	 	 	 	 	 	 	 	 	 	 	 	 	 	1581484517	8.14	15.08
12/02/2020 05:15:18	120220	12022020	051518	186.00	13.219327	-57.047822	186.18	0.300	0.880	1.430	186.12	-0.60	1.70	 	 	 	 	 	 	 	 	 	 	 	 	 	 	 	 	 	 	1581484518	7.83	14.50
12/02/2020 05:15:19	120220	12022020	051519	186.48	13.219290	-57.047822	186.58	1.220	0.030	0.140	186.54	-1.50	0.50	 	 	 	 	 	 	 	 	 	 	 	 	 	 	 	 	 	 	1581484519	8.03	14.87
12/02/2020 05:15:20	120220	12022020	051520	186.66	13.219250	-57.047817	186.70	1.480	-0.770	-0.310	186.66	-2.20	0.20	 	 	 	 	 	 	 	 	 	 	 	 	 	 	 	 	 	 	1581484520	8.58	15.89
12/02/2020 05:15:21	120220	12022020	051521	186.54	13.219212	-57.047813	186.54	0.950	-1.020	0.140	186.49	-2.40	0.70	 	 	 	 	 	 	 	 	 	 	 	 	 	 	 	 	 	 	1581484521	8.36	15.48
12/02/2020 05:15:22	120220	12022020	051522	186.25	13.219177	-57.047817	186.27	0.050	-0.830	1.240	186.19	-2.20	1.80	 	 	 	 	 	 	 	 	 	 	 	 	 	 	 	 	 	 	1581484522	7.60	14.08
12/02/2020 05:15:23	120220	12022020	051523	185.98	13.219143	-57.047828	186.04	-0.550	-0.560	2.400	185.94	-1.90	2.90	 	 	 	 	 	 	 	 	 	 	 	 	 	 	 	 	 	 	1581484523	7.40	13.70
12/02/2020 05:15:24	120220	12022020	051524	185.87	13.219110	-57.047843	185.97	-0.480	-0.500	3.010	185.87	-1.90	3.50	 	 	 	 	 	 	 	 	 	 	 	 	 	 	 	 	 	 	1581484524	7.75	14.35
12/02/2020 05:15:25	120220	12022020	051525	185.89	13.219075	-57.047857	186.01	0.030	-0.600	2.950	185.91	-2.00	3.30	 	 	 	 	 	 	 	 	 	 	 	 	 	 	 	 	 	 	1581484525	8.07	14.95
12/02/2020 05:15:26	120220	12022020	051526	185.99	13.219038	-57.047867	186.13	0.420	-0.550	2.410	186.03	-1.90	2.80	 	 	 	 	 	 	 	 	 	 	 	 	 	 	 	 	 	 	1581484526	8.22	15.22
12/02/2020 05:15:27	120220	12022020	051527	186.22	13.219000	-57.047870	186.39	0.270	-0.150	1.710	186.29	-1.50	2.10	 	 	 	 	 	 	 	 	 	 	 	 	 	 	 	 	 	 	1581484527	8.11	15.02
12/02/2020 05:15:28	120220	12022020	051528	186.55	13.218965	-57.047872	186.72	-0.320	0.380	1.160	186.62	-1.00	1.60	 	 	 	 	 	 	 	 	 	 	 	 	 	 	 	 	 	 	1581484528	7.65	14.17
12/02/2020 05:15:29	120220	12022020	051529	186.86	13.218932	-57.047873	187.00	-0.860	0.530	0.990	186.91	-0.90	1.50	 	 	 	 	 	 	 	 	 	 	 	 	 	 	 	 	 	 	1581484529	7.31	13.54
12/02/2020 05:15:30	120220	12022020	051530	187.03	13.218897	-57.047878	187.13	-0.870	0.100	1.120	187.03	-1.40	1.60	 	 	 	 	 	 	 	 	 	 	 	 	 	 	 	 	 	 	1581484530	7.50	13.89
12/02/2020 05:15:31	120220	12022020	051531	186.96	13.218860	-57.047888	187.02	-0.270	-0.630	1.290	186.91	-2.10	1.70	 	 	 	 	 	 	 	 	 	 	 	 	 	 	 	 	 	 	1581484531	8.19	15.17
12/02/2020 05:15:32	120220	12022020	051532	186.71	13.218822	-57.047898	186.76	0.560	-1.030	1.260	186.67	-2.40	1.70	 	 	 	 	 	 	 	 	 	 	 	 	 	 	 	 	 	 	1581484532	8.62	15.96
12/02/2020 05:15:33	120220	12022020	051533	186.59	13.218782	-57.047905	186.67	0.980	-0.660	1.020	186.59	-2.00	1.50	 	 	 	 	 	 	 	 	 	 	 	 	 	 	 	 	 	 	1581484533	8.41	15.58
12/02/2020 05:15:34	120220	12022020	051534	186.61	13.218747	-57.047907	186.70	0.670	0.030	1.010	186.62	-1.30	1.50	 	 	 	 	 	 	 	 	 	 	 	 	 	 	 	 	 	 	1581484534	7.65	14.17
12/02/2020 05:15:35	120220	12022020	051535	186.63	13.218713	-57.047908	186.70	-0.090	0.390	1.390	186.61	-1.00	1.90	 	 	 	 	 	 	 	 	 	 	 	 	 	 	 	 	 	 	1581484535	7.15	13.24
12/02/2020 05:15:36	120220	12022020	051536	186.46	13.218680	-57.047917	186.52	-0.620	0.170	2.110	186.40	-1.30	2.60	 	 	 	 	 	 	 	 	 	 	 	 	 	 	 	 	 	 	1581484536	7.41	13.72
12/02/2020 05:15:37	120220	12022020	051537	186.16	13.218643	-57.047928	186.26	-0.480	-0.210	2.650	186.12	-1.60	3.10	 	 	 	 	 	 	 	 	 	 	 	 	 	 	 	 	 	 	1581484537	8.15	15.09
12/02/2020 05:15:38	120220	12022020	051538	186.05	13.218607	-57.047940	186.20	0.020	-0.200	2.570	186.07	-1.60	3.00	 	 	 	 	 	 	 	 	 	 	 	 	 	 	 	 	 	 	1581484538	8.40	15.56
12/02/2020 05:15:39	120220	12022020	051539	186.27	13.218570	-57.047947	186.46	0.340	-0.040	2.000	186.35	-1.40	2.40	 	 	 	 	 	 	 	 	 	 	 	 	 	 	 	 	 	 	1581484539	7.86	14.56
12/02/2020 05:15:40	120220	12022020	051540	186.69	13.218535	-57.047950	186.88	0.330	-0.090	1.410	186.78	-1.50	1.80	 	 	 	 	 	 	 	 	 	 	 	 	 	 	 	 	 	 	1581484540	7.50	13.89
12/02/2020 05:15:41	120220	12022020	051541	186.99	13.218500	-57.047953	187.10	0.210	-0.370	1.380	186.99	-1.80	1.90	 	 	 	 	 	 	 	 	 	 	 	 	 	 	 	 	 	 	1581484541	7.56	14.00
12/02/2020 05:15:42	120220	12022020	051542	186.79	13.218465	-57.047958	186.82	0.210	-0.820	2.030	186.69	-2.30	2.60	 	 	 	 	 	 	 	 	 	 	 	 	 	 	 	 	 	 	1581484542	7.75	14.35
12/02/2020 05:15:43	120220	12022020	051543	186.11	13.218428	-57.047967	186.12	0.230	-1.150	2.880	185.96	-2.50	3.40	 	 	 	 	 	 	 	 	 	 	 	 	 	 	 	 	 	 	1581484543	8.09	14.98
12/02/2020 05:15:44	120220	12022020	051544	185.37	13.218392	-57.047977	185.42	0.120	-0.980	3.320	185.26	-2.30	3.80	 	 	 	 	 	 	 	 	 	 	 	 	 	 	 	 	 	 	1581484544	8.32	15.41
12/02/2020 05:15:45	120220	12022020	051545	184.98	13.218355	-57.047987	185.11	-0.080	-0.240	3.130	184.97	-1.50	3.50	 	 	 	 	 	 	 	 	 	 	 	 	 	 	 	 	 	 	1581484545	8.05	14.91
12/02/2020 05:15:46	120220	12022020	051546	185.09	13.218320	-57.047995	185.27	-0.190	0.540	2.390	185.15	-0.80	2.70	 	 	 	 	 	 	 	 	 	 	 	 	 	 	 	 	 	 	1581484546	7.46	13.82
12/02/2020 05:15:47	120220	12022020	051547	185.38	13.218287	-57.047997	185.54	-0.170	0.680	1.690	185.43	-0.80	2.10	 	 	 	 	 	 	 	 	 	 	 	 	 	 	 	 	 	 	1581484547	7.21	13.35
12/02/2020 05:15:48	120220	12022020	051548	185.53	13.218252	-57.048000	185.66	-0.060	0.130	1.480	185.55	-1.30	1.90	 	 	 	 	 	 	 	 	 	 	 	 	 	 	 	 	 	 	1581484548	7.75	14.35
12/02/2020 05:15:49	120220	12022020	051549	185.66	13.218212	-57.048005	185.82	-0.010	-0.370	1.590	185.71	-1.80	2.10	 	 	 	 	 	 	 	 	 	 	 	 	 	 	 	 	 	 	1581484549	8.45	15.65
12/02/2020 05:15:50	120220	12022020	051550	185.95	13.218173	-57.048012	186.12	-0.090	-0.350	1.790	186.01	-1.70	2.30	 	 	 	 	 	 	 	 	 	 	 	 	 	 	 	 	 	 	1581484550	8.38	15.52
12/02/2020 05:15:51	120220	12022020	051551	186.17	13.218140	-57.048020	186.29	-0.140	-0.270	1.990	186.18	-1.70	2.50	 	 	 	 	 	 	 	 	 	 	 	 	 	 	 	 	 	 	1581484551	7.66	14.19
12/02/2020 05:15:52	120220	12022020	051552	186.04	13.218105	-57.048027	186.11	0.110	-0.650	2.180	185.98	-2.10	2.70	 	 	 	 	 	 	 	 	 	 	 	 	 	 	 	 	 	 	1581484552	7.45	13.80
12/02/2020 05:15:53	120220	12022020	051553	185.60	13.218068	-57.048033	185.64	0.480	-1.190	2.440	185.49	-2.60	2.90	 	 	 	 	 	 	 	 	 	 	 	 	 	 	 	 	 	 	1581484553	8.05	14.91
12/02/2020 05:15:54	120220	12022020	051554	185.19	13.218028	-57.048038	185.31	0.400	-1.000	2.700	185.18	-2.30	3.20	 	 	 	 	 	 	 	 	 	 	 	 	 	 	 	 	 	 	1581484554	8.59	15.91
12/02/2020 05:15:55	120220	12022020	051555	185.32	13.217992	-57.048045	185.54	-0.230	0.180	2.650	185.41	-1.00	3.10	 	 	 	 	 	 	 	 	 	 	 	 	 	 	 	 	 	 	1581484555	8.13	15.06
12/02/2020 05:15:56	120220	12022020	051556	185.88	13.217960	-57.048052	186.11	-0.820	1.430	2.260	186.00	0.10	2.70	 	 	 	 	 	 	 	 	 	 	 	 	 	 	 	 	 	 	1581484556	7.02	13.00
12/02/2020 05:15:57	120220	12022020	051557	186.39	13.217930	-57.048062	186.57	-0.590	1.520	1.770	186.46	0.00	2.20	 	 	 	 	 	 	 	 	 	 	 	 	 	 	 	 	 	 	1581484557	6.54	12.11
12/02/2020 05:15:58	120220	12022020	051558	186.64	13.217897	-57.048068	186.76	0.350	0.330	1.400	186.66	-1.30	1.90	 	 	 	 	 	 	 	 	 	 	 	 	 	 	 	 	 	 	1581484558	7.40	13.70
12/02/2020 05:15:59	120220	12022020	051559	186.59	13.217857	-57.048072	186.68	1.080	-1.090	1.550	186.55	-2.60	2.10	 	 	 	 	 	 	 	 	 	 	 	 	 	 	 	 	 	 	1581484559	8.70	16.11
12/02/2020 05:16:00	120220	12022020	051600	186.34	13.217815	-57.048075	186.42	0.950	-1.870	2.030	186.28	-3.30	2.60	 	 	 	 	 	 	 	 	 	 	 	 	 	 	 	 	 	 	1581484560	9.02	16.71
12/02/2020 05:16:01	120220	12022020	051601	186.07	13.217777	-57.048082	186.19	0.130	-1.650	2.760	186.03	-2.90	3.30	1016.00	26.00	26.10	20.90	20.90	-1.0	73.0	73.0	395.0	25.7	260.00	10.90	67.00	12.20	16	9537.0	27.2	27.2	1581484561	8.49	15.72
12/02/2020 05:16:02	120220	12022020	051602	185.97	13.217742	-57.048093	186.13	-0.650	-0.650	3.300	185.97	-1.90	3.80	 	 	 	 	 	 	 	 	 	 	 	 	 	 	 	 	 	 	1581484562	7.77	14.39
12/02/2020 05:16:03	120220	12022020	051603	186.07	13.217710	-57.048107	186.25	-0.850	0.310	3.190	186.10	-1.00	3.60	 	 	 	 	 	 	 	 	 	 	 	 	 	 	 	 	 	 	1581484563	7.19	13.32
12/02/2020 05:16:04	120220	12022020	051604	186.28	13.217678	-57.048117	186.46	-0.510	0.490	2.540	186.32	-1.00	2.90	 	 	 	 	 	 	 	 	 	 	 	 	 	 	 	 	 	 	1581484564	7.10	13.15
12/02/2020 05:16:05	120220	12022020	051605	186.48	13.217643	-57.048122	186.63	0.030	-0.030	1.850	186.51	-1.50	2.20	 	 	 	 	 	 	 	 	 	 	 	 	 	 	 	 	 	 	1581484565	7.85	14.54
12/02/2020 05:16:06	120220	12022020	051606	186.53	13.217603	-57.048127	186.65	0.370	-0.500	1.450	186.52	-1.90	1.90	 	 	 	 	 	 	 	 	 	 	 	 	 	 	 	 	 	 	1581484566	8.65	16.02
12/02/2020 05:16:07	120220	12022020	051607	186.47	13.217563	-57.048130	186.58	0.280	-0.350	1.350	186.46	-1.70	1.80	 	 	 	 	 	 	 	 	 	 	 	 	 	 	 	 	 	 	1581484567	8.67	16.06
12/02/2020 05:16:08	120220	12022020	051608	186.45	13.217527	-57.048133	186.56	-0.120	0.200	1.480	186.45	-1.10	2.00	 	 	 	 	 	 	 	 	 	 	 	 	 	 	 	 	 	 	1581484568	7.95	14.72
12/02/2020 05:16:09	120220	12022020	051609	186.40	13.217492	-57.048138	186.49	-0.370	0.450	1.770	186.36	-1.00	2.30	 	 	 	 	 	 	 	 	 	 	 	 	 	 	 	 	 	 	1581484569	7.37	13.65
12/02/2020 05:16:10	120220	12022020	051610	186.14	13.217458	-57.048147	186.22	-0.230	0.140	2.210	186.07	-1.30	2.70	 	 	 	 	 	 	 	 	 	 	 	 	 	 	 	 	 	 	1581484570	7.59	14.06
12/02/2020 05:16:11	120220	12022020	051611	185.85	13.217420	-57.048155	185.97	0.010	-0.150	2.530	185.82	-1.60	3.00	 	 	 	 	 	 	 	 	 	 	 	 	 	 	 	 	 	 	1581484571	8.22	15.22
12/02/2020 05:16:12	120220	12022020	051612	185.83	13.217383	-57.048163	186.01	0.030	-0.110	2.420	185.87	-1.50	2.80	 	 	 	 	 	 	 	 	 	 	 	 	 	 	 	 	 	 	1581484572	8.20	15.19
12/02/2020 05:16:13	120220	12022020	051613	186.05	13.217348	-57.048170	186.22	-0.110	-0.200	1.950	186.09	-1.60	2.30	 	 	 	 	 	 	 	 	 	 	 	 	 	 	 	 	 	 	1581484573	7.64	14.15
12/02/2020 05:16:14	120220	12022020	051614	186.24	13.217313	-57.048177	186.38	-0.060	-0.700	1.560	186.26	-2.20	2.00	 	 	 	 	 	 	 	 	 	 	 	 	 	 	 	 	 	 	1581484574	7.58	14.04
12/02/2020 05:16:15	120220	12022020	051615	186.26	13.217277	-57.048183	186.36	0.350	-1.260	1.340	186.25	-2.70	1.80	 	 	 	 	 	 	 	 	 	 	 	 	 	 	 	 	 	 	1581484575	8.08	14.96
12/02/2020 05:16:16	120220	12022020	051616	186.18	13.217238	-57.048190	186.25	0.760	-1.230	1.310	186.15	-2.60	1.80	 	 	 	 	 	 	 	 	 	 	 	 	 	 	 	 	 	 	1581484576	8.37	15.50
12/02/2020 05:16:17	120220	12022020	051617	185.97	13.217202	-57.048195	186.03	0.680	-0.580	1.540	185.91	-1.90	2.10	 	 	 	 	 	 	 	 	 	 	 	 	 	 	 	 	 	 	1581484577	7.98	14.78
12/02/2020 05:16:18	120220	12022020	051618	185.59	13.217167	-57.048198	185.65	0.170	0.030	1.960	185.52	-1.30	2.50	 	 	 	 	 	 	 	 	 	 	 	 	 	 	 	 	 	 	1581484578	7.44	13.78
12/02/2020 05:16:19	120220	12022020	051619	185.26	13.217132	-57.048205	185.36	-0.420	0.320	2.430	185.21	-1.00	2.90	 	 	 	 	 	 	 	 	 	 	 	 	 	 	 	 	 	 	1581484579	7.58	14.04
12/02/2020 05:16:20	120220	12022020	051620	185.16	13.217095	-57.048213	185.34	-0.810	0.480	2.860	185.19	-0.90	3.40	 	 	 	 	 	 	 	 	 	 	 	 	 	 	 	 	 	 	1581484580	8.08	14.96
12/02/2020 05:16:21	120220	12022020	051621	185.44	13.217058	-57.048223	185.66	-0.890	0.600	2.990	185.54	-0.80	3.40	 	 	 	 	 	 	 	 	 	 	 	 	 	 	 	 	 	 	1581484581	8.23	15.24
12/02/2020 05:16:22	120220	12022020	051622	185.96	13.217022	-57.048233	186.20	-0.740	0.390	2.690	186.07	-1.10	3.10	 	 	 	 	 	 	 	 	 	 	 	 	 	 	 	 	 	 	1581484582	8.07	14.95
12/02/2020 05:16:23	120220	12022020	051623	186.47	13.216985	-57.048242	186.68	-0.360	-0.250	2.210	186.55	-1.70	2.60	 	 	 	 	 	 	 	 	 	 	 	 	 	 	 	 	 	 	1581484583	8.09	14.98
12/02/2020 05:16:24	120220	12022020	051624	186.76	13.216948	-57.048250	186.92	0.230	-0.910	1.710	186.79	-2.30	2.10	 	 	 	 	 	 	 	 	 	 	 	 	 	 	 	 	 	 	1581484584	8.34	15.45
12/02/2020 05:16:25	120220	12022020	051625	186.78	13.216910	-57.048255	186.88	0.730	-0.920	1.270	186.75	-2.30	1.70	 	 	 	 	 	 	 	 	 	 	 	 	 	 	 	 	 	 	1581484585	8.29	15.35
12/02/2020 05:16:26	120220	12022020	051626	186.58	13.216873	-57.048258	186.66	0.840	-0.400	1.070	186.53	-1.70	1.50	 	 	 	 	 	 	 	 	 	 	 	 	 	 	 	 	 	 	1581484586	7.67	14.20
12/02/2020 05:16:27	120220	12022020	051627	186.34	13.216842	-57.048258	186.39	0.570	-0.110	1.170	186.27	-1.50	1.70	 	 	 	 	 	 	 	 	 	 	 	 	 	 	 	 	 	 	1581484587	7.11	13.17
12/02/2020 05:16:28	120220	12022020	051628	185.91	13.216807	-57.048262	185.94	0.230	-0.600	1.770	185.79	-2.10	2.30	 	 	 	 	 	 	 	 	 	 	 	 	 	 	 	 	 	 	1581484588	7.35	13.61
12/02/2020 05:16:29	120220	12022020	051629	185.34	13.216768	-57.048268	185.41	-0.040	-1.160	2.520	185.25	-2.50	3.10	 	 	 	 	 	 	 	 	 	 	 	 	 	 	 	 	 	 	1581484589	8.44	15.63
12/02/2020 05:16:30	120220	12022020	051630	185.20	13.216727	-57.048280	185.41	-0.440	-0.560	2.940	185.26	-1.80	3.40	 	 	 	 	 	 	 	 	 	 	 	 	 	 	 	 	 	 	1581484590	9.07	16.80
12/02/2020 05:16:31	120220	12022020	051631	185.79	13.216692	-57.048290	186.09	-0.960	0.870	3.000	185.94	-0.30	3.40	 	 	 	 	 	 	 	 	 	 	 	 	 	 	 	 	 	 	1581484591	8.06	14.93
12/02/2020 05:16:32	120220	12022020	051632	186.66	13.216662	-57.048302	186.94	-1.220	1.720	2.770	186.81	0.30	3.20	 	 	 	 	 	 	 	 	 	 	 	 	 	 	 	 	 	 	1581484592	6.81	12.61
12/02/2020 05:16:33	120220	12022020	051633	187.31	13.216632	-57.048312	187.53	-0.790	1.170	2.180	187.39	-0.40	2.50	 	 	 	 	 	 	 	 	 	 	 	 	 	 	 	 	 	 	1581484593	6.85	12.69
12/02/2020 05:16:34	120220	12022020	051634	187.64	13.216595	-57.048320	187.79	0.190	-0.140	1.460	187.66	-1.70	1.90	 	 	 	 	 	 	 	 	 	 	 	 	 	 	 	 	 	 	1581484594	7.97	14.76
12/02/2020 05:16:35	120220	12022020	051635	187.63	13.216555	-57.048325	187.70	1.120	-1.230	1.060	187.58	-2.70	1.50	 	 	 	 	 	 	 	 	 	 	 	 	 	 	 	 	 	 	1581484595	8.68	16.08
12/02/2020 05:16:36	120220	12022020	051636	187.29	13.216515	-57.048327	187.31	1.510	-1.620	0.990	187.20	-3.00	1.50	 	 	 	 	 	 	 	 	 	 	 	 	 	 	 	 	 	 	1581484596	8.48	15.70
12/02/2020 05:16:37	120220	12022020	051637	186.88	13.216478	-57.048328	186.92	1.160	-1.260	1.110	186.81	-2.60	1.60	 	 	 	 	 	 	 	 	 	 	 	 	 	 	 	 	 	 	1581484597	7.92	14.67
12/02/2020 05:16:38	120220	12022020	051638	186.62	13.216445	-57.048330	186.70	0.350	-0.590	1.490	186.59	-1.90	2.00	 	 	 	 	 	 	 	 	 	 	 	 	 	 	 	 	 	 	1581484598	7.32	13.56
12/02/2020 05:16:39	120220	12022020	051639	186.50	13.216412	-57.048335	186.59	-0.510	-0.180	2.070	186.47	-1.60	2.60	 	 	 	 	 	 	 	 	 	 	 	 	 	 	 	 	 	 	1581484599	7.16	13.26
12/02/2020 05:16:40	120220	12022020	051640	186.38	13.216378	-57.048347	186.49	-1.080	-0.160	2.690	186.36	-1.60	3.20	 	 	 	 	 	 	 	 	 	 	 	 	 	 	 	 	 	 	1581484600	7.70	14.26
12/02/2020 05:16:41	120220	12022020	051641	186.32	13.216342	-57.048360	186.49	-1.220	-0.130	3.080	186.33	-1.50	3.50	 	 	 	 	 	 	 	 	 	 	 	 	 	 	 	 	 	 	1581484601	8.47	15.69
12/02/2020 05:16:42	120220	12022020	051642	186.46	13.216303	-57.048375	186.67	-0.950	0.290	2.910	186.51	-1.00	3.30	 	 	 	 	 	 	 	 	 	 	 	 	 	 	 	 	 	 	1581484602	8.59	15.91
12/02/2020 05:16:43	120220	12022020	051643	186.69	13.216268	-57.048387	186.87	-0.340	0.750	2.250	186.72	-0.60	2.60	 	 	 	 	 	 	 	 	 	 	 	 	 	 	 	 	 	 	1581484603	7.91	14.65
12/02/2020 05:16:44	120220	12022020	051644	186.81	13.216235	-57.048392	186.95	0.310	0.700	1.480	186.82	-0.80	1.90	 	 	 	 	 	 	 	 	 	 	 	 	 	 	 	 	 	 	1581484604	7.46	13.82
12/02/2020 05:16:45	120220	12022020	051645	186.86	13.216198	-57.048392	186.99	0.630	0.190	1.090	186.86	-1.30	1.60	 	 	 	 	 	 	 	 	 	 	 	 	 	 	 	 	 	 	1581484605	7.83	14.50
12/02/2020 05:16:46	120220	12022020	051646	186.83	13.216160	-57.048393	186.95	0.570	-0.410	1.330	186.82	-1.90	1.80	 	 	 	 	 	 	 	 	 	 	 	 	 	 	 	 	 	 	1581484606	8.09	14.98
12/02/2020 05:16:47	120220	12022020	051647	186.75	13.216123	-57.048398	186.86	0.390	-0.850	1.820	186.71	-2.30	2.30	 	 	 	 	 	 	 	 	 	 	 	 	 	 	 	 	 	 	1581484607	8.02	14.85
12/02/2020 05:16:48	120220	12022020	051648	186.52	13.216088	-57.048407	186.62	0.370	-1.060	2.280	186.46	-2.50	2.80	 	 	 	 	 	 	 	 	 	 	 	 	 	 	 	 	 	 	1581484608	7.90	14.63
12/02/2020 05:16:49	120220	12022020	051649	186.23	13.216053	-57.048417	186.34	0.480	-1.080	2.540	186.19	-2.50	3.00	 	 	 	 	 	 	 	 	 	 	 	 	 	 	 	 	 	 	1581484609	7.84	14.52
12/02/2020 05:16:50	120220	12022020	051650	186.12	13.216017	-57.048425	186.26	0.430	-0.660	2.410	186.12	-2.00	2.80	 	 	 	 	 	 	 	 	 	 	 	 	 	 	 	 	 	 	1581484610	7.85	14.54
12/02/2020 05:16:51	120220	12022020	051651	186.19	13.215982	-57.048430	186.34	0.000	0.020	2.080	186.21	-1.30	2.50	 	 	 	 	 	 	 	 	 	 	 	 	 	 	 	 	 	 	1581484611	7.53	13.95
12/02/2020 05:16:52	120220	12022020	051652	186.26	13.215948	-57.048433	186.41	-0.530	0.310	1.930	186.27	-1.10	2.40	 	 	 	 	 	 	 	 	 	 	 	 	 	 	 	 	 	 	1581484612	7.17	13.28
12/02/2020 05:16:53	120220	12022020	051653	186.25	13.215915	-57.048440	186.38	-0.770	0.030	2.070	186.23	-1.40	2.50	 	 	 	 	 	 	 	 	 	 	 	 	 	 	 	 	 	 	1581484613	7.57	14.02
12/02/2020 05:16:54	120220	12022020	051654	186.14	13.215877	-57.048448	186.28	-0.550	-0.400	2.400	186.13	-1.80	2.90	 	 	 	 	 	 	 	 	 	 	 	 	 	 	 	 	 	 	1581484614	8.27	15.32
12/02/2020 05:16:55	120220	12022020	051655	186.12	13.215838	-57.048458	186.28	-0.130	-0.520	2.570	186.13	-1.90	3.00	 	 	 	 	 	 	 	 	 	 	 	 	 	 	 	 	 	 	1581484615	8.58	15.89
12/02/2020 05:16:56	120220	12022020	051656	186.25	13.215800	-57.048468	186.43	0.170	-0.170	2.360	186.28	-1.50	2.80	 	 	 	 	 	 	 	 	 	 	 	 	 	 	 	 	 	 	1581484616	8.30	15.37
12/02/2020 05:16:57	120220	12022020	051657	186.40	13.215765	-57.048475	186.55	0.330	0.320	1.920	186.41	-1.10	2.30	 	 	 	 	 	 	 	 	 	 	 	 	 	 	 	 	 	 	1581484617	7.67	14.20
12/02/2020 05:16:58	120220	12022020	051658	186.47	13.215732	-57.048478	186.60	0.420	0.500	1.420	186.48	-0.90	1.80	 	 	 	 	 	 	 	 	 	 	 	 	 	 	 	 	 	 	1581484618	7.35	13.61
12/02/2020 05:16:59	120220	12022020	051659	186.55	13.215697	-57.048478	186.67	0.400	0.310	1.050	186.56	-1.20	1.50	 	 	 	 	 	 	 	 	 	 	 	 	 	 	 	 	 	 	1581484619	7.51	13.91
12/02/2020 05:17:00	120220	12022020	051700	186.54	13.215660	-57.048480	186.63	0.310	-0.290	1.030	186.52	-1.80	1.50	 	 	 	 	 	 	 	 	 	 	 	 	 	 	 	 	 	 	1581484620	7.73	14.32
12/02/2020 05:17:01	120220	12022020	051701	186.37	13.215623	-57.048485	186.44	0.210	-1.040	1.380	186.32	-2.50	1.90	1015.90	26.00	26.00	20.80	20.90	-1.0	73.0	73.0	396.0	25.6	261.00	11.10	69.00	12.40	16	9620.0	27.2	27.2	1581484621	8.06	14.93
12/02/2020 05:17:02	120220	12022020	051702	186.12	13.215585	-57.048493	186.20	0.100	-1.380	1.960	186.08	-2.80	2.50	 	 	 	 	 	 	 	 	 	 	 	 	 	 	 	 	 	 	1581484622	8.41	15.58
12/02/2020 05:17:03	120220	12022020	051703	186.03	13.215548	-57.048503	186.18	-0.040	-0.930	2.300	186.05	-2.20	2.80	 	 	 	 	 	 	 	 	 	 	 	 	 	 	 	 	 	 	1581484623	8.28	15.33
12/02/2020 05:17:04	120220	12022020	051704	186.20	13.215513	-57.048512	186.38	-0.260	-0.130	2.380	186.24	-1.50	2.80	 	 	 	 	 	 	 	 	 	 	 	 	 	 	 	 	 	 	1581484624	7.59	14.06
12/02/2020 05:17:05	120220	12022020	051705	186.26	13.215482	-57.048518	186.38	-0.430	0.210	2.510	186.22	-1.20	3.00	 	 	 	 	 	 	 	 	 	 	 	 	 	 	 	 	 	 	1581484625	7.12	13.19
12/02/2020 05:17:06	120220	12022020	051706	185.96	13.215447	-57.048527	186.03	-0.340	-0.200	2.720	185.86	-1.70	3.20	 	 	 	 	 	 	 	 	 	 	 	 	 	 	 	 	 	 	1581484626	7.61	14.09
12/02/2020 05:17:07	120220	12022020	051707	185.53	13.215408	-57.048535	185.62	-0.070	-0.750	2.800	185.46	-2.20	3.20	 	 	 	 	 	 	 	 	 	 	 	 	 	 	 	 	 	 	1581484627	8.58	15.89
12/02/2020 05:17:08	120220	12022020	051708	185.41	13.215367	-57.048543	185.59	0.090	-0.570	2.600	185.46	-1.90	3.00	 	 	 	 	 	 	 	 	 	 	 	 	 	 	 	 	 	 	1581484628	8.97	16.61
12/02/2020 05:17:09	120220	12022020	051709	185.88	13.215328	-57.048548	186.13	0.010	0.450	1.970	186.02	-0.80	2.30	 	 	 	 	 	 	 	 	 	 	 	 	 	 	 	 	 	 	1581484629	8.26	15.30
12/02/2020 05:17:10	120220	12022020	051710	186.61	13.215297	-57.048552	186.81	-0.200	1.290	1.220	186.72	-0.10	1.60	 	 	 	 	 	 	 	 	 	 	 	 	 	 	 	 	 	 	1581484630	7.05	13.06
12/02/2020 05:17:11	120220	12022020	051711	186.99	13.215265	-57.048552	187.11	-0.230	0.930	1.050	187.02	-0.60	1.50	 	 	 	 	 	 	 	 	 	 	 	 	 	 	 	 	 	 	1581484631	6.80	12.59
12/02/2020 05:17:12	120220	12022020	051712	186.97	13.215228	-57.048557	187.06	0.030	-0.230	1.460	186.94	-1.80	2.00	 	 	 	 	 	 	 	 	 	 	 	 	 	 	 	 	 	 	1581484632	7.80	14.45
12/02/2020 05:17:13	120220	12022020	051713	186.80	13.215188	-57.048567	186.92	0.450	-1.050	1.970	186.77	-2.50	2.50	 	 	 	 	 	 	 	 	 	 	 	 	 	 	 	 	 	 	1581484633	8.70	16.11
12/02/2020 05:17:14	120220	12022020	051714	186.71	13.215150	-57.048575	186.87	0.740	-1.010	2.200	186.71	-2.40	2.60	 	 	 	 	 	 	 	 	 	 	 	 	 	 	 	 	 	 	1581484634	8.46	15.67
12/02/2020 05:17:15	120220	12022020	051715	186.71	13.215117	-57.048582	186.89	0.700	-0.630	2.150	186.71	-2.00	2.60	 	 	 	 	 	 	 	 	 	 	 	 	 	 	 	 	 	 	1581484635	7.52	13.93
12/02/2020 05:17:16	120220	12022020	051716	186.72	13.215083	-57.048585	186.91	0.310	-0.480	2.110	186.72	-1.90	2.60	 	 	 	 	 	 	 	 	 	 	 	 	 	 	 	 	 	 	1581484636	7.14	13.22
12/02/2020 05:17:17	120220	12022020	051717	186.68	13.215048	-57.048590	186.84	-0.200	-0.630	2.170	186.64	-2.10	2.60	 	 	 	 	 	 	 	 	 	 	 	 	 	 	 	 	 	 	1581484637	7.47	13.83
12/02/2020 05:17:18	120220	12022020	051718	186.30	13.215013	-57.048597	186.39	-0.450	-1.030	2.510	186.18	-2.50	3.00	 	 	 	 	 	 	 	 	 	 	 	 	 	 	 	 	 	 	1581484638	7.95	14.72
12/02/2020 05:17:19	120220	12022020	051719	185.61	13.214975	-57.048607	185.69	-0.360	-1.280	2.920	185.48	-2.70	3.40	 	 	 	 	 	 	 	 	 	 	 	 	 	 	 	 	 	 	1581484639	8.53	15.80
12/02/2020 05:17:20	120220	12022020	051720	185.15	13.214933	-57.048617	185.29	-0.280	-0.770	3.040	185.12	-2.00	3.50	 	 	 	 	 	 	 	 	 	 	 	 	 	 	 	 	 	 	1581484640	8.85	16.39
12/02/2020 05:17:21	120220	12022020	051721	185.29	13.214897	-57.048625	185.53	-0.520	0.440	2.720	185.38	-0.80	3.10	 	 	 	 	 	 	 	 	 	 	 	 	 	 	 	 	 	 	1581484641	8.28	15.33
12/02/2020 05:17:22	120220	12022020	051722	185.96	13.214863	-57.048632	186.24	-0.940	1.640	2.020	186.13	0.30	2.40	 	 	 	 	 	 	 	 	 	 	 	 	 	 	 	 	 	 	1581484642	7.41	13.72
12/02/2020 05:17:23	120220	12022020	051723	186.91	13.214832	-57.048638	187.19	-1.050	2.060	1.180	187.09	0.60	1.50	 	 	 	 	 	 	 	 	 	 	 	 	 	 	 	 	 	 	1581484643	6.93	12.83
12/02/2020 05:17:24	120220	12022020	051724	187.70	13.214798	-57.048643	187.91	-0.410	1.280	0.470	187.81	-0.30	0.90	 	 	 	 	 	 	 	 	 	 	 	 	 	 	 	 	 	 	1581484644	7.21	13.35
12/02/2020 05:17:25	120220	12022020	051725	188.07	13.214760	-57.048647	188.18	0.770	-0.310	0.130	188.09	-1.90	0.60	 	 	 	 	 	 	 	 	 	 	 	 	 	 	 	 	 	 	1581484645	8.05	14.91
12/02/2020 05:17:26	120220	12022020	051726	187.97	13.214720	-57.048650	187.99	1.690	-1.770	0.370	187.89	-3.30	0.90	 	 	 	 	 	 	 	 	 	 	 	 	 	 	 	 	 	 	1581484646	8.85	16.39
12/02/2020 05:17:27	120220	12022020	051727	187.47	13.214678	-57.048653	187.47	1.680	-2.220	1.240	187.35	-3.60	1.80	 	 	 	 	 	 	 	 	 	 	 	 	 	 	 	 	 	 	1581484647	8.84	16.37
12/02/2020 05:17:28	120220	12022020	051728	186.88	13.214642	-57.048658	186.92	0.760	-1.560	2.420	186.78	-2.80	3.00	 	 	 	 	 	 	 	 	 	 	 	 	 	 	 	 	 	 	1581484648	8.04	14.89
12/02/2020 05:17:29	120220	12022020	051729	186.53	13.214610	-57.048668	186.65	-0.440	-0.300	3.250	186.50	-1.60	3.80	 	 	 	 	 	 	 	 	 	 	 	 	 	 	 	 	 	 	1581484649	7.22	13.37
12/02/2020 05:17:30	120220	12022020	051730	186.48	13.214580	-57.048678	186.65	-1.180	0.490	3.510	186.49	-0.90	3.90	 	 	 	 	 	 	 	 	 	 	 	 	 	 	 	 	 	 	1581484650	6.87	12.72
12/02/2020 05:17:31	120220	12022020	051731	186.50	13.214547	-57.048692	186.65	-1.080	0.180	3.320	186.49	-1.30	3.70	 	 	 	 	 	 	 	 	 	 	 	 	 	 	 	 	 	 	1581484651	7.40	13.70
12/02/2020 05:17:32	120220	12022020	051732	186.42	13.214508	-57.048702	186.59	-0.530	-0.590	2.990	186.41	-2.10	3.40	 	 	 	 	 	 	 	 	 	 	 	 	 	 	 	 	 	 	1581484652	8.60	15.93
12/02/2020 05:17:33	120220	12022020	051733	186.47	13.214467	-57.048710	186.68	-0.200	-0.710	2.530	186.52	-2.10	2.90	 	 	 	 	 	 	 	 	 	 	 	 	 	 	 	 	 	 	1581484653	9.25	17.13
12/02/2020 05:17:34	120220	12022020	051734	186.83	13.214427	-57.048717	187.05	-0.340	0.050	1.840	186.91	-1.20	2.20	 	 	 	 	 	 	 	 	 	 	 	 	 	 	 	 	 	 	1581484654	8.62	15.96
12/02/2020 05:17:35	120220	12022020	051735	187.18	13.214393	-57.048723	187.35	-0.520	0.890	1.270	187.22	-0.50	1.70	 	 	 	 	 	 	 	 	 	 	 	 	 	 	 	 	 	 	1581484655	7.41	13.72
12/02/2020 05:17:36	120220	12022020	051736	187.25	13.214360	-57.048728	187.35	-0.180	0.950	0.900	187.24	-0.50	1.30	 	 	 	 	 	 	 	 	 	 	 	 	 	 	 	 	 	 	1581484656	7.01	12.98
12/02/2020 05:17:37	120220	12022020	051737	187.19	13.214325	-57.048732	187.29	0.550	0.320	0.650	187.19	-1.20	1.10	 	 	 	 	 	 	 	 	 	 	 	 	 	 	 	 	 	 	1581484657	7.67	14.20
12/02/2020 05:17:38	120220	12022020	051738	187.27	13.214287	-57.048735	187.40	1.070	-0.320	0.530	187.31	-1.80	1.00	 	 	 	 	 	 	 	 	 	 	 	 	 	 	 	 	 	 	1581484658	8.39	15.54
12/02/2020 05:17:39	120220	12022020	051739	187.44	13.214248	-57.048737	187.57	0.970	-0.580	0.770	187.47	-2.00	1.30	 	 	 	 	 	 	 	 	 	 	 	 	 	 	 	 	 	 	1581484659	8.31	15.39
12/02/2020 05:17:40	120220	12022020	051740	187.57	13.214212	-57.048742	187.69	0.440	-0.490	1.220	187.59	-1.90	1.80	 	 	 	 	 	 	 	 	 	 	 	 	 	 	 	 	 	 	1581484660	7.74	14.33
12/02/2020 05:17:41	120220	12022020	051741	187.58	13.214178	-57.048748	187.68	-0.110	-0.460	1.880	187.55	-1.90	2.40	 	 	 	 	 	 	 	 	 	 	 	 	 	 	 	 	 	 	1581484661	7.27	13.46
12/02/2020 05:17:42	120220	12022020	051742	187.25	13.214145	-57.048757	187.30	-0.330	-0.930	2.850	187.13	-2.40	3.40	 	 	 	 	 	 	 	 	 	 	 	 	 	 	 	 	 	 	1581484662	7.43	13.76
12/02/2020 05:17:43	120220	12022020	051743	186.56	13.214108	-57.048770	186.59	-0.180	-1.560	3.760	186.42	-3.00	4.30	 	 	 	 	 	 	 	 	 	 	 	 	 	 	 	 	 	 	1581484663	8.29	15.35
12/02/2020 05:17:44	120220	12022020	051744	186.01	13.214070	-57.048785	186.12	-0.000	-1.410	4.030	185.96	-2.70	4.50	 	 	 	 	 	 	 	 	 	 	 	 	 	 	 	 	 	 	1581484664	8.99	16.65
12/02/2020 05:17:45	120220	12022020	051745	186.01	13.214032	-57.048795	186.23	-0.150	-0.270	3.590	186.08	-1.50	3.90	 	 	 	 	 	 	 	 	 	 	 	 	 	 	 	 	 	 	1581484665	8.42	15.59
12/02/2020 05:17:46	120220	12022020	051746	186.47	13.213998	-57.048802	186.69	-0.520	0.840	2.610	186.56	-0.50	2.90	 	 	 	 	 	 	 	 	 	 	 	 	 	 	 	 	 	 	1581484666	7.26	13.45
12/02/2020 05:17:47	120220	12022020	051747	186.83	13.213967	-57.048805	187.00	-0.620	0.840	1.710	186.87	-0.70	2.10	 	 	 	 	 	 	 	 	 	 	 	 	 	 	 	 	 	 	1581484667	6.98	12.93
12/02/2020 05:17:48	120220	12022020	051748	186.93	13.213930	-57.048808	187.06	-0.330	0.150	1.350	186.93	-1.30	1.80	 	 	 	 	 	 	 	 	 	 	 	 	 	 	 	 	 	 	1581484668	8.02	14.85
12/02/2020 05:17:49	120220	12022020	051749	186.93	13.213888	-57.048813	187.07	0.070	-0.130	1.260	186.93	-1.50	1.70	 	 	 	 	 	 	 	 	 	 	 	 	 	 	 	 	 	 	1581484669	8.78	16.26
12/02/2020 05:17:50	120220	12022020	051750	186.97	13.213850	-57.048820	187.11	0.320	0.180	1.160	186.99	-1.20	1.60	 	 	 	 	 	 	 	 	 	 	 	 	 	 	 	 	 	 	1581484670	8.34	15.45
12/02/2020 05:17:51	120220	12022020	051751	187.05	13.213817	-57.048825	187.19	0.490	0.380	1.130	187.09	-1.00	1.60	 	 	 	 	 	 	 	 	 	 	 	 	 	 	 	 	 	 	1581484671	7.49	13.87
12/02/2020 05:17:52	120220	12022020	051752	187.28	13.213782	-57.048832	187.43	0.700	0.080	1.000	187.33	-1.40	1.50	 	 	 	 	 	 	 	 	 	 	 	 	 	 	 	 	 	 	1581484672	7.40	13.70
12/02/2020 05:17:53	120220	12022020	051753	187.47	13.213747	-57.048835	187.57	0.840	-0.640	1.040	187.47	-2.10	1.60	 	 	 	 	 	 	 	 	 	 	 	 	 	 	 	 	 	 	1581484673	7.82	14.48
12/02/2020 05:17:54	120220	12022020	051754	187.35	13.213708	-57.048838	187.43	0.610	-1.360	1.750	187.29	-2.80	2.40	 	 	 	 	 	 	 	 	 	 	 	 	 	 	 	 	 	 	1581484674	8.22	15.22
12/02/2020 05:17:55	120220	12022020	051755	186.92	13.213670	-57.048845	186.97	-0.030	-1.580	2.990	186.81	-2.90	3.60	 	 	 	 	 	 	 	 	 	 	 	 	 	 	 	 	 	 	1581484675	8.37	15.50
12/02/2020 05:17:56	120220	12022020	051756	186.33	13.213633	-57.048858	186.41	-0.750	-1.070	4.210	186.22	-2.40	4.80	 	 	 	 	 	 	 	 	 	 	 	 	 	 	 	 	 	 	1581484676	8.27	15.32
12/02/2020 05:17:57	120220	12022020	051757	185.81	13.213600	-57.048875	185.94	-1.040	-0.310	4.850	185.74	-1.60	5.30	 	 	 	 	 	 	 	 	 	 	 	 	 	 	 	 	 	 	1581484677	8.02	14.85
12/02/2020 05:17:58	120220	12022020	051758	185.58	13.213567	-57.048892	185.76	-0.750	0.220	4.570	185.58	-1.10	4.90	 	 	 	 	 	 	 	 	 	 	 	 	 	 	 	 	 	 	1581484678	7.93	14.69
12/02/2020 05:17:59	120220	12022020	051759	185.82	13.213532	-57.048903	186.07	-0.100	0.480	3.360	185.91	-0.90	3.60	 	 	 	 	 	 	 	 	 	 	 	 	 	 	 	 	 	 	1581484679	8.00	14.82
12/02/2020 05:18:00	120220	12022020	051800	186.38	13.213495	-57.048908	186.62	0.490	0.610	1.760	186.50	-0.80	2.00	 	 	 	 	 	 	 	 	 	 	 	 	 	 	 	 	 	 	1581484680	8.03	14.87
12/02/2020 05:18:01	120220	12022020	051801	186.94	13.213457	-57.048907	187.11	0.730	0.550	0.380	187.04	-0.90	0.70	1016.00	26.10	26.10	21.00	21.00	-1.0	73.0	73.0	397.0	25.6	263.00	10.40	69.00	11.70	16	9463.0	27.2	27.2	1581484681	8.02	14.85
12/02/2020 05:18:02	120220	12022020	051802	187.31	13.213420	-57.048902	187.41	0.610	0.140	-0.170	187.35	-1.40	0.30	 	 	 	 	 	 	 	 	 	 	 	 	 	 	 	 	 	 	1581484682	8.03	14.87
12/02/2020 05:18:03	120220	12022020	051803	187.36	13.213383	-57.048900	187.41	0.330	-0.590	0.210	187.33	-2.10	0.80	 	 	 	 	 	 	 	 	 	 	 	 	 	 	 	 	 	 	1581484683	8.01	14.83
12/02/2020 05:18:04	120220	12022020	051804	187.15	13.213345	-57.048907	187.22	0.100	-1.090	1.050	187.10	-2.50	1.60	 	 	 	 	 	 	 	 	 	 	 	 	 	 	 	 	 	 	1581484684	8.21	15.20
12/02/2020 05:18:05	120220	12022020	051805	186.95	13.213308	-57.048915	187.04	-0.110	-0.970	1.960	186.91	-2.30	2.50	 	 	 	 	 	 	 	 	 	 	 	 	 	 	 	 	 	 	1581484685	8.18	15.15
12/02/2020 05:18:06	120220	12022020	051806	186.70	13.213273	-57.048925	186.78	-0.290	-0.740	2.870	186.61	-2.10	3.40	 	 	 	 	 	 	 	 	 	 	 	 	 	 	 	 	 	 	1581484686	7.71	14.28
12/02/2020 05:18:07	120220	12022020	051807	186.24	13.213240	-57.048938	186.32	-0.350	-0.760	3.540	186.15	-2.20	4.00	 	 	 	 	 	 	 	 	 	 	 	 	 	 	 	 	 	 	1581484687	7.79	14.43
12/02/2020 05:18:08	120220	12022020	051808	185.83	13.213203	-57.048950	185.94	-0.310	-0.720	3.650	185.77	-2.10	4.10	 	 	 	 	 	 	 	 	 	 	 	 	 	 	 	 	 	 	1581484688	8.34	15.45
12/02/2020 05:18:09	120220	12022020	051809	185.69	13.213165	-57.048960	185.86	-0.300	-0.170	3.310	185.72	-1.40	3.70	 	 	 	 	 	 	 	 	 	 	 	 	 	 	 	 	 	 	1581484689	8.45	15.65
12/02/2020 05:18:10	120220	12022020	051810	185.99	13.213128	-57.048967	186.23	-0.380	0.730	2.600	186.09	-0.60	2.90	 	 	 	 	 	 	 	 	 	 	 	 	 	 	 	 	 	 	1581484690	7.90	14.63
12/02/2020 05:18:11	120220	12022020	051811	186.49	13.213095	-57.048972	186.69	-0.390	1.220	1.740	186.58	-0.20	2.10	 	 	 	 	 	 	 	 	 	 	 	 	 	 	 	 	 	 	1581484691	7.25	13.43
12/02/2020 05:18:12	120220	12022020	051812	186.87	13.213062	-57.048977	187.04	-0.050	0.920	1.020	186.93	-0.60	1.40	 	 	 	 	 	 	 	 	 	 	 	 	 	 	 	 	 	 	1581484692	7.32	13.56
12/02/2020 05:18:13	120220	12022020	051813	187.25	13.213025	-57.048982	187.42	0.590	0.230	0.350	187.33	-1.30	0.80	 	 	 	 	 	 	 	 	 	 	 	 	 	 	 	 	 	 	1581484693	7.96	14.74
12/02/2020 05:18:14	120220	12022020	051814	187.71	13.212987	-57.048982	187.88	1.050	-0.460	-0.030	187.80	-2.00	0.40	 	 	 	 	 	 	 	 	 	 	 	 	 	 	 	 	 	 	1581484694	8.24	15.26
12/02/2020 05:18:15	120220	12022020	051815	188.00	13.212948	-57.048983	188.11	0.940	-1.130	0.300	188.01	-2.60	0.90	 	 	 	 	 	 	 	 	 	 	 	 	 	 	 	 	 	 	1581484695	8.11	15.02
12/02/2020 05:18:16	120220	12022020	051816	187.74	13.212912	-57.048987	187.74	0.360	-1.790	1.520	187.60	-3.30	2.20	 	 	 	 	 	 	 	 	 	 	 	 	 	 	 	 	 	 	1581484696	7.96	14.74
12/02/2020 05:18:17	120220	12022020	051817	186.82	13.212875	-57.048997	186.77	-0.190	-2.180	3.330	186.58	-3.60	4.00	 	 	 	 	 	 	 	 	 	 	 	 	 	 	 	 	 	 	1581484697	8.28	15.33
12/02/2020 05:18:18	120220	12022020	051818	185.64	13.212837	-57.049013	185.62	-0.410	-1.810	4.960	185.42	-3.10	5.60	 	 	 	 	 	 	 	 	 	 	 	 	 	 	 	 	 	 	1581484698	8.85	16.39
12/02/2020 05:18:19	120220	12022020	051819	184.84	13.212800	-57.049032	184.95	-0.470	-0.470	5.630	184.76	-1.70	6.10	 	 	 	 	 	 	 	 	 	 	 	 	 	 	 	 	 	 	1581484699	8.79	16.28
12/02/2020 05:18:20	120220	12022020	051820	184.87	13.212767	-57.049045	185.15	-0.700	1.270	5.060	184.98	0.00	5.40	 	 	 	 	 	 	 	 	 	 	 	 	 	 	 	 	 	 	1581484700	7.84	14.52
12/02/2020 05:18:21	120220	12022020	051821	185.57	13.212735	-57.049052	185.87	-1.050	2.260	3.730	185.74	0.90	4.00	 	 	 	 	 	 	 	 	 	 	 	 	 	 	 	 	 	 	1581484701	6.92	12.82
12/02/2020 05:18:22	120220	12022020	051822	186.29	13.212703	-57.049057	186.52	-1.020	1.840	2.230	186.40	0.30	2.50	 	 	 	 	 	 	 	 	 	 	 	 	 	 	 	 	 	 	1581484702	6.97	12.91
12/02/2020 05:18:23	120220	12022020	051823	186.78	13.212665	-57.049058	186.95	-0.280	0.370	0.830	186.86	-1.30	1.20	 	 	 	 	 	 	 	 	 	 	 	 	 	 	 	 	 	 	1581484703	7.99	14.80
12/02/2020 05:18:24	120220	12022020	051824	187.05	13.212623	-57.049060	187.17	0.880	-1.170	-0.110	187.08	-2.70	0.30	 	 	 	 	 	 	 	 	 	 	 	 	 	 	 	 	 	 	1581484704	8.95	16.58
12/02/2020 05:18:25	120220	12022020	051825	187.18	13.212582	-57.049062	187.28	1.650	-1.800	-0.310	187.20	-3.20	0.20	 	 	 	 	 	 	 	 	 	 	 	 	 	 	 	 	 	 	1581484705	9.07	16.80
12/02/2020 05:18:26	120220	12022020	051826	187.34	13.212543	-57.049062	187.46	1.360	-1.220	0.310	187.37	-2.50	0.90	 	 	 	 	 	 	 	 	 	 	 	 	 	 	 	 	 	 	1581484706	8.22	15.22
12/02/2020 05:18:27	120220	12022020	051827	187.42	13.212512	-57.049067	187.52	0.360	-0.280	1.340	187.41	-1.60	2.00	 	 	 	 	 	 	 	 	 	 	 	 	 	 	 	 	 	 	1581484707	6.87	12.72
12/02/2020 05:18:28	120220	12022020	051828	187.15	13.212483	-57.049077	187.20	-0.440	-0.110	2.570	187.04	-1.60	3.20	 	 	 	 	 	 	 	 	 	 	 	 	 	 	 	 	 	 	1581484708	6.53	12.09
12/02/2020 05:18:29	120220	12022020	051829	186.48	13.212450	-57.049088	186.51	-0.610	-0.720	3.870	186.32	-2.20	4.50	 	 	 	 	 	 	 	 	 	 	 	 	 	 	 	 	 	 	1581484709	7.63	14.13
12/02/2020 05:18:30	120220	12022020	051830	185.81	13.212410	-57.049103	185.91	-0.550	-1.010	4.830	185.72	-2.40	5.40	 	 	 	 	 	 	 	 	 	 	 	 	 	 	 	 	 	 	1581484710	8.94	16.56
12/02/2020 05:18:31	120220	12022020	051831	185.60	13.212372	-57.049118	185.79	-0.660	-0.430	5.050	185.63	-1.70	5.50	 	 	 	 	 	 	 	 	 	 	 	 	 	 	 	 	 	 	1581484711	9.02	16.71
12/02/2020 05:18:32	120220	12022020	051832	185.95	13.212337	-57.049132	186.21	-0.850	0.670	4.390	186.08	-0.60	4.70	 	 	 	 	 	 	 	 	 	 	 	 	 	 	 	 	 	 	1581484712	8.08	14.96
12/02/2020 05:18:33	120220	12022020	051833	186.71	13.212305	-57.049142	186.98	-0.660	1.460	2.850	186.89	0.10	3.10	 	 	 	 	 	 	 	 	 	 	 	 	 	 	 	 	 	 	1581484713	7.12	13.19
12/02/2020 05:18:34	120220	12022020	051834	187.57	13.212273	-57.049147	187.76	-0.050	1.280	1.140	187.71	-0.30	1.40	 	 	 	 	 	 	 	 	 	 	 	 	 	 	 	 	 	 	1581484714	6.85	12.69
12/02/2020 05:18:35	120220	12022020	051835	188.05	13.212238	-57.049145	188.12	0.660	0.130	0.080	188.07	-1.50	0.50	 	 	 	 	 	 	 	 	 	 	 	 	 	 	 	 	 	 	1581484715	7.58	14.04
12/02/2020 05:18:36	120220	12022020	051836	187.96	13.212198	-57.049145	187.95	1.070	-1.190	-0.180	187.89	-2.70	0.30	 	 	 	 	 	 	 	 	 	 	 	 	 	 	 	 	 	 	1581484716	8.42	15.59
12/02/2020 05:18:37	120220	12022020	051837	187.60	13.212158	-57.049148	187.59	0.970	-1.670	0.080	187.53	-3.10	0.60	 	 	 	 	 	 	 	 	 	 	 	 	 	 	 	 	 	 	1581484717	8.61	15.95
12/02/2020 05:18:38	120220	12022020	051838	187.22	13.212123	-57.049155	187.24	0.530	-1.290	0.700	187.16	-2.60	1.30	 	 	 	 	 	 	 	 	 	 	 	 	 	 	 	 	 	 	1581484718	7.90	14.63
12/02/2020 05:18:39	120220	12022020	051839	186.88	13.212090	-57.049163	186.94	0.100	-0.700	1.490	186.83	-2.10	2.10	 	 	 	 	 	 	 	 	 	 	 	 	 	 	 	 	 	 	1581484719	7.22	13.37
12/02/2020 05:18:40	120220	12022020	051840	186.70	13.212058	-57.049173	186.81	-0.240	-0.250	2.200	186.69	-1.60	2.70	 	 	 	 	 	 	 	 	 	 	 	 	 	 	 	 	 	 	1581484720	7.29	13.50
12/02/2020 05:18:41	120220	12022020	051841	186.61	13.212023	-57.049183	186.73	-0.620	-0.020	2.930	186.58	-1.40	3.50	 	 	 	 	 	 	 	 	 	 	 	 	 	 	 	 	 	 	1581484721	7.62	14.11
12/02/2020 05:18:42	120220	12022020	051842	186.33	13.211988	-57.049195	186.42	-0.910	0.020	3.680	186.25	-1.40	4.20	 	 	 	 	 	 	 	 	 	 	 	 	 	 	 	 	 	 	1581484722	7.95	14.72
12/02/2020 05:18:43	120220	12022020	051843	185.99	13.211952	-57.049208	186.12	-0.900	0.050	4.020	185.96	-1.40	4.40	 	 	 	 	 	 	 	 	 	 	 	 	 	 	 	 	 	 	1581484723	8.27	15.32
12/02/2020 05:18:44	120220	12022020	051844	185.94	13.211917	-57.049222	186.12	-0.550	0.250	3.690	185.97	-1.10	4.10	 	 	 	 	 	 	 	 	 	 	 	 	 	 	 	 	 	 	1581484724	8.30	15.37
12/02/2020 05:18:45	120220	12022020	051845	186.17	13.211880	-57.049232	186.38	0.010	0.440	2.800	186.24	-1.00	3.10	 	 	 	 	 	 	 	 	 	 	 	 	 	 	 	 	 	 	1581484725	7.88	14.59
12/02/2020 05:18:46	120220	12022020	051846	186.52	13.211845	-57.049235	186.69	0.550	0.310	1.700	186.58	-1.20	2.00	 	 	 	 	 	 	 	 	 	 	 	 	 	 	 	 	 	 	1581484726	7.57	14.02
12/02/2020 05:18:47	120220	12022020	051847	186.69	13.211810	-57.049237	186.79	0.890	-0.210	0.870	186.69	-1.70	1.30	 	 	 	 	 	 	 	 	 	 	 	 	 	 	 	 	 	 	1581484727	7.67	14.20
12/02/2020 05:18:48	120220	12022020	051848	186.60	13.211773	-57.049237	186.65	0.810	-0.620	0.770	186.55	-2.10	1.30	 	 	 	 	 	 	 	 	 	 	 	 	 	 	 	 	 	 	1581484728	8.01	14.83
12/02/2020 05:18:49	120220	12022020	051849	186.29	13.211737	-57.049240	186.32	0.330	-0.610	1.300	186.22	-2.00	1.90	 	 	 	 	 	 	 	 	 	 	 	 	 	 	 	 	 	 	1581484729	7.82	14.48
12/02/2020 05:18:50	120220	12022020	051850	185.92	13.211703	-57.049248	185.99	-0.140	-0.400	1.870	185.87	-1.80	2.40	 	 	 	 	 	 	 	 	 	 	 	 	 	 	 	 	 	 	1581484730	7.44	13.78
12/02/2020 05:18:51	120220	12022020	051851	185.74	13.211670	-57.049258	185.84	-0.320	-0.270	2.190	185.73	-1.70	2.70	 	 	 	 	 	 	 	 	 	 	 	 	 	 	 	 	 	 	1581484731	7.38	13.67
12/02/2020 05:18:52	120220	12022020	051852	185.69	13.211637	-57.049268	185.81	-0.210	-0.420	2.410	185.69	-1.90	2.90	 	 	 	 	 	 	 	 	 	 	 	 	 	 	 	 	 	 	1581484732	7.50	13.89
12/02/2020 05:18:53	120220	12022020	051853	185.71	13.211602	-57.049277	185.85	-0.030	-0.750	2.550	185.72	-2.20	3.00	 	 	 	 	 	 	 	 	 	 	 	 	 	 	 	 	 	 	1581484733	7.88	14.59
12/02/2020 05:18:54	120220	12022020	051854	185.76	13.211563	-57.049285	185.90	0.050	-0.870	2.590	185.78	-2.30	3.00	 	 	 	 	 	 	 	 	 	 	 	 	 	 	 	 	 	 	1581484734	8.17	15.13
12/02/2020 05:18:55	120220	12022020	051855	185.84	13.211527	-57.049292	185.99	0.050	-0.640	2.520	185.86	-2.00	3.00	 	 	 	 	 	 	 	 	 	 	 	 	 	 	 	 	 	 	1581484735	8.10	15.00
12/02/2020 05:18:56	120220	12022020	051856	185.91	13.211490	-57.049298	186.07	-0.030	-0.140	2.370	185.93	-1.50	2.80	 	 	 	 	 	 	 	 	 	 	 	 	 	 	 	 	 	 	1581484736	7.82	14.48
12/02/2020 05:18:57	120220	12022020	051857	185.98	13.211457	-57.049303	186.13	-0.180	0.440	2.170	185.99	-0.90	2.60	 	 	 	 	 	 	 	 	 	 	 	 	 	 	 	 	 	 	1581484737	7.57	14.02
12/02/2020 05:18:58	120220	12022020	051858	186.01	13.211422	-57.049308	186.13	-0.350	0.760	1.990	186.00	-0.70	2.40	 	 	 	 	 	 	 	 	 	 	 	 	 	 	 	 	 	 	1581484738	7.36	13.63
12/02/2020 05:18:59	120220	12022020	051859	185.98	13.211388	-57.049313	186.12	-0.460	0.650	1.920	185.98	-0.80	2.40	 	 	 	 	 	 	 	 	 	 	 	 	 	 	 	 	 	 	1581484739	7.44	13.78
12/02/2020 05:19:00	120220	12022020	051900	185.94	13.211353	-57.049320	186.06	-0.390	0.180	2.060	185.91	-1.30	2.60	 	 	 	 	 	 	 	 	 	 	 	 	 	 	 	 	 	 	1581484740	7.69	14.24
12/02/2020 05:19:01	120220	12022020	051901	185.70	13.211317	-57.049328	185.79	-0.010	-0.510	2.420	185.63	-2.00	2.90	1016.00	26.00	26.00	20.90	20.90	-1.0	73.0	73.0	397.0	25.6	261.00	11.60	70.00	12.90	16	8623.0	27.2	27.2	1581484741	7.96	14.74
12/02/2020 05:19:02	120220	12022020	051902	185.24	13.211280	-57.049337	185.31	0.540	-1.080	2.720	185.15	-2.50	3.20	 	 	 	 	 	 	 	 	 	 	 	 	 	 	 	 	 	 	1581484742	8.21	15.20
12/02/2020 05:19:03	120220	12022020	051903	184.82	13.211242	-57.049345	184.92	0.930	-1.070	2.700	184.78	-2.40	3.10	 	 	 	 	 	 	 	 	 	 	 	 	 	 	 	 	 	 	1581484743	8.28	15.33
12/02/2020 05:19:04	120220	12022020	051904	184.82	13.211207	-57.049350	185.00	0.840	-0.400	2.280	184.88	-1.70	2.70	 	 	 	 	 	 	 	 	 	 	 	 	 	 	 	 	 	 	1581484744	7.80	14.45
12/02/2020 05:19:05	120220	12022020	051905	185.20	13.211173	-57.049352	185.39	0.370	0.210	1.640	185.29	-1.20	2.10	 	 	 	 	 	 	 	 	 	 	 	 	 	 	 	 	 	 	1581484745	7.05	13.06
12/02/2020 05:19:06	120220	12022020	051906	185.57	13.211142	-57.049353	185.72	-0.110	0.150	1.180	185.63	-1.30	1.60	 	 	 	 	 	 	 	 	 	 	 	 	 	 	 	 	 	 	1581484746	6.95	12.87
12/02/2020 05:19:07	120220	12022020	051907	185.81	13.211105	-57.049355	185.95	-0.470	-0.390	1.250	185.85	-1.90	1.80	 	 	 	 	 	 	 	 	 	 	 	 	 	 	 	 	 	 	1581484747	7.63	14.13
12/02/2020 05:19:08	120220	12022020	051908	185.94	13.211068	-57.049362	186.08	-0.730	-0.750	1.890	185.95	-2.20	2.50	 	 	 	 	 	 	 	 	 	 	 	 	 	 	 	 	 	 	1581484748	8.24	15.26
12/02/2020 05:19:09	120220	12022020	051909	185.89	13.211032	-57.049372	185.99	-0.790	-0.670	2.600	185.86	-2.10	3.10	 	 	 	 	 	 	 	 	 	 	 	 	 	 	 	 	 	 	1581484749	8.26	15.30
12/02/2020 05:19:10	120220	12022020	051910	185.64	13.210997	-57.049385	185.72	-0.490	-0.410	2.970	185.58	-1.80	3.40	 	 	 	 	 	 	 	 	 	 	 	 	 	 	 	 	 	 	1581484750	7.97	14.76
12/02/2020 05:19:11	120220	12022020	051911	185.35	13.210962	-57.049395	185.45	-0.010	-0.200	2.950	185.30	-1.60	3.40	 	 	 	 	 	 	 	 	 	 	 	 	 	 	 	 	 	 	1581484751	7.79	14.43
12/02/2020 05:19:12	120220	12022020	051912	185.16	13.210925	-57.049402	185.31	0.370	-0.010	2.570	185.14	-1.40	3.00	 	 	 	 	 	 	 	 	 	 	 	 	 	 	 	 	 	 	1581484752	7.89	14.61
12/02/2020 05:19:13	120220	12022020	051913	185.08	13.210888	-57.049405	185.22	0.470	0.210	1.910	185.08	-1.20	2.30	 	 	 	 	 	 	 	 	 	 	 	 	 	 	 	 	 	 	1581484753	7.89	14.61
12/02/2020 05:19:14	120220	12022020	051914	185.19	13.210852	-57.049405	185.37	0.250	0.390	1.340	185.25	-1.00	1.80	 	 	 	 	 	 	 	 	 	 	 	 	 	 	 	 	 	 	1581484754	7.80	14.45
12/02/2020 05:19:15	120220	12022020	051915	185.61	13.210817	-57.049405	185.80	-0.130	0.330	1.260	185.70	-1.10	1.80	 	 	 	 	 	 	 	 	 	 	 	 	 	 	 	 	 	 	1581484755	7.63	14.13
12/02/2020 05:19:16	120220	12022020	051916	185.98	13.210782	-57.049410	186.12	-0.280	-0.120	1.530	186.01	-1.60	2.10	 	 	 	 	 	 	 	 	 	 	 	 	 	 	 	 	 	 	1581484756	7.62	14.11
12/02/2020 05:19:17	120220	12022020	051917	185.97	13.210747	-57.049420	186.07	0.080	-0.750	1.800	185.94	-2.20	2.30	 	 	 	 	 	 	 	 	 	 	 	 	 	 	 	 	 	 	1581484757	7.99	14.80
12/02/2020 05:19:18	120220	12022020	051918	185.86	13.210708	-57.049428	185.99	0.570	-0.940	1.850	185.86	-2.30	2.30	 	 	 	 	 	 	 	 	 	 	 	 	 	 	 	 	 	 	1581484758	8.28	15.33
12/02/2020 05:19:19	120220	12022020	051919	185.86	13.210672	-57.049433	186.00	0.540	-0.640	1.950	185.86	-2.00	2.50	 	 	 	 	 	 	 	 	 	 	 	 	 	 	 	 	 	 	1581484759	7.95	14.72
12/02/2020 05:19:20	120220	12022020	051920	185.78	13.210637	-57.049438	185.88	-0.080	-0.350	2.270	185.74	-1.70	2.80	 	 	 	 	 	 	 	 	 	 	 	 	 	 	 	 	 	 	1581484760	7.44	13.78
12/02/2020 05:19:21	120220	12022020	051921	185.51	13.210603	-57.049445	185.59	-0.800	-0.290	2.800	185.43	-1.70	3.30	 	 	 	 	 	 	 	 	 	 	 	 	 	 	 	 	 	 	1581484761	7.48	13.85
12/02/2020 05:19:22	120220	12022020	051922	185.18	13.210568	-57.049457	185.29	-1.020	-0.170	3.270	185.13	-1.50	3.80	 	 	 	 	 	 	 	 	 	 	 	 	 	 	 	 	 	 	1581484762	8.02	14.85
12/02/2020 05:19:23	120220	12022020	051923	185.03	13.210533	-57.049472	185.19	-0.510	0.200	3.140	185.04	-1.20	3.50	 	 	 	 	 	 	 	 	 	 	 	 	 	 	 	 	 	 	1581484763	8.22	15.22
12/02/2020 05:19:24	120220	12022020	051924	185.15	13.210498	-57.049482	185.33	0.400	0.330	2.340	185.20	-1.10	2.70	 	 	 	 	 	 	 	 	 	 	 	 	 	 	 	 	 	 	1581484764	7.74	14.33
12/02/2020 05:19:25	120220	12022020	051925	185.41	13.210462	-57.049485	185.59	1.100	-0.090	1.360	185.47	-1.60	1.70	 	 	 	 	 	 	 	 	 	 	 	 	 	 	 	 	 	 	1581484765	7.72	14.30
12/02/2020 05:19:26	120220	12022020	051926	185.73	13.210423	-57.049482	185.90	1.130	-0.640	0.920	185.78	-2.10	1.40	 	 	 	 	 	 	 	 	 	 	 	 	 	 	 	 	 	 	1581484766	8.33	15.43
12/02/2020 05:19:27	120220	12022020	051927	185.91	13.210385	-57.049480	186.03	0.490	-0.890	1.380	185.90	-2.30	2.00	 	 	 	 	 	 	 	 	 	 	 	 	 	 	 	 	 	 	1581484767	8.35	15.46
12/02/2020 05:19:28	120220	12022020	051928	185.71	13.210348	-57.049485	185.80	-0.380	-0.830	2.550	185.63	-2.20	3.20	 	 	 	 	 	 	 	 	 	 	 	 	 	 	 	 	 	 	1581484768	7.89	14.61
12/02/2020 05:19:29	120220	12022020	051929	185.16	13.210313	-57.049497	185.24	-1.020	-0.520	3.940	185.03	-1.90	4.60	 	 	 	 	 	 	 	 	 	 	 	 	 	 	 	 	 	 	1581484769	7.82	14.48
12/02/2020 05:19:30	120220	12022020	051930	184.51	13.210280	-57.049513	184.62	-1.110	-0.150	4.920	184.39	-1.50	5.50	 	 	 	 	 	 	 	 	 	 	 	 	 	 	 	 	 	 	1581484770	8.13	15.06
12/02/2020 05:19:31	120220	12022020	051931	184.06	13.210247	-57.049532	184.21	-0.650	0.060	5.100	184.01	-1.30	5.50	 	 	 	 	 	 	 	 	 	 	 	 	 	 	 	 	 	 	1581484771	8.28	15.33
12/02/2020 05:19:32	120220	12022020	051932	184.08	13.210210	-57.049545	184.32	0.040	0.220	4.250	184.16	-1.10	4.60	 	 	 	 	 	 	 	 	 	 	 	 	 	 	 	 	 	 	1581484772	8.20	15.19
12/02/2020 05:19:33	120220	12022020	051933	184.66	13.210173	-57.049550	184.93	0.520	0.450	2.660	184.83	-0.90	2.90	 	 	 	 	 	 	 	 	 	 	 	 	 	 	 	 	 	 	1581484773	7.89	14.61
12/02/2020 05:19:34	120220	12022020	051934	185.52	13.210138	-57.049548	185.77	0.630	0.430	1.090	185.68	-1.00	1.40	 	 	 	 	 	 	 	 	 	 	 	 	 	 	 	 	 	 	1581484774	7.56	14.00
12/02/2020 05:19:35	120220	12022020	051935	186.22	13.210103	-57.049545	186.41	0.550	-0.130	0.170	186.32	-1.60	0.60	 	 	 	 	 	 	 	 	 	 	 	 	 	 	 	 	 	 	1581484775	7.55	13.98
12/02/2020 05:19:36	120220	12022020	051936	186.53	13.210067	-57.049543	186.63	0.450	-0.840	0.160	186.52	-2.30	0.70	 	 	 	 	 	 	 	 	 	 	 	 	 	 	 	 	 	 	1581484776	7.86	14.56
12/02/2020 05:19:37	120220	12022020	051937	186.30	13.210030	-57.049545	186.32	0.290	-1.220	0.960	186.19	-2.60	1.60	 	 	 	 	 	 	 	 	 	 	 	 	 	 	 	 	 	 	1581484777	7.95	14.72
12/02/2020 05:19:38	120220	12022020	051938	185.58	13.209995	-57.049553	185.55	0.110	-1.360	2.180	185.40	-2.80	2.80	 	 	 	 	 	 	 	 	 	 	 	 	 	 	 	 	 	 	1581484778	7.77	14.39
12/02/2020 05:19:39	120220	12022020	051939	184.65	13.209960	-57.049563	184.68	-0.080	-1.220	3.380	184.51	-2.50	4.00	 	 	 	 	 	 	 	 	 	 	 	 	 	 	 	 	 	 	1581484779	7.95	14.72
12/02/2020 05:19:40	120220	12022020	051940	184.12	13.209923	-57.049577	184.25	-0.350	-0.490	4.080	184.08	-1.70	4.60	 	 	 	 	 	 	 	 	 	 	 	 	 	 	 	 	 	 	1581484780	8.21	15.20
12/02/2020 05:19:41	120220	12022020	051941	184.24	13.209888	-57.049590	184.47	-0.650	0.650	3.950	184.35	-0.60	4.30	 	 	 	 	 	 	 	 	 	 	 	 	 	 	 	 	 	 	1581484781	7.90	14.63
12/02/2020 05:19:42	120220	12022020	051942	184.95	13.209857	-57.049600	185.24	-0.870	1.530	3.080	185.13	0.20	3.40	 	 	 	 	 	 	 	 	 	 	 	 	 	 	 	 	 	 	1581484782	7.22	13.37
12/02/2020 05:19:43	120220	12022020	051943	185.80	13.209825	-57.049607	186.04	-0.730	1.430	1.930	185.94	-0.10	2.30	 	 	 	 	 	 	 	 	 	 	 	 	 	 	 	 	 	 	1581484783	6.97	12.91
12/02/2020 05:19:44	120220	12022020	051944	186.30	13.209792	-57.049612	186.45	-0.090	0.320	0.990	186.34	-1.20	1.40	 	 	 	 	 	 	 	 	 	 	 	 	 	 	 	 	 	 	1581484784	7.50	13.89
12/02/2020 05:19:45	120220	12022020	051945	186.40	13.209752	-57.049615	186.49	0.720	-0.890	0.370	186.40	-2.40	0.80	 	 	 	 	 	 	 	 	 	 	 	 	 	 	 	 	 	 	1581484785	8.38	15.52
12/02/2020 05:19:46	120220	12022020	051946	186.28	13.209712	-57.049615	186.32	1.120	-1.580	0.320	186.22	-3.00	0.90	 	 	 	 	 	 	 	 	 	 	 	 	 	 	 	 	 	 	1581484786	8.58	15.89
12/02/2020 05:19:47	120220	12022020	051947	185.79	13.209675	-57.049615	185.77	0.900	-1.780	1.100	185.64	-3.20	1.70	 	 	 	 	 	 	 	 	 	 	 	 	 	 	 	 	 	 	1581484787	8.08	14.96
12/02/2020 05:19:48	120220	12022020	051948	184.93	13.209638	-57.049622	184.91	0.290	-1.490	2.420	184.75	-2.80	3.10	 	 	 	 	 	 	 	 	 	 	 	 	 	 	 	 	 	 	1581484788	7.81	14.46
12/02/2020 05:19:49	120220	12022020	051949	184.27	13.209603	-57.049632	184.38	-0.420	-0.410	3.470	184.21	-1.60	4.00	 	 	 	 	 	 	 	 	 	 	 	 	 	 	 	 	 	 	1581484789	7.91	14.65
12/02/2020 05:19:50	120220	12022020	051950	184.30	13.209570	-57.049645	184.53	-1.000	1.040	3.850	184.38	-0.20	4.30	 	 	 	 	 	 	 	 	 	 	 	 	 	 	 	 	 	 	1581484790	7.49	13.87
12/02/2020 05:19:51	120220	12022020	051951	184.79	13.209540	-57.049657	185.02	-1.210	1.750	3.670	184.87	0.30	4.10	 	 	 	 	 	 	 	 	 	 	 	 	 	 	 	 	 	 	1581484791	6.91	12.80
12/02/2020 05:19:52	120220	12022020	051952	185.13	13.209508	-57.049667	185.30	-0.810	1.130	3.200	185.16	-0.40	3.60	 	 	 	 	 	 	 	 	 	 	 	 	 	 	 	 	 	 	1581484792	7.22	13.37
12/02/2020 05:19:53	120220	12022020	051953	185.30	13.209472	-57.049677	185.48	0.080	-0.140	2.410	185.34	-1.70	2.80	 	 	 	 	 	 	 	 	 	 	 	 	 	 	 	 	 	 	1581484793	8.25	15.28
12/02/2020 05:19:54	120220	12022020	051954	185.43	13.209432	-57.049680	185.56	1.000	-1.010	1.460	185.41	-2.50	1.80	 	 	 	 	 	 	 	 	 	 	 	 	 	 	 	 	 	 	1581484794	8.80	16.30
12/02/2020 05:19:55	120220	12022020	051955	185.15	13.209392	-57.049680	185.20	1.430	-1.390	0.900	185.04	-2.80	1.40	 	 	 	 	 	 	 	 	 	 	 	 	 	 	 	 	 	 	1581484795	8.37	15.50
12/02/2020 05:19:56	120220	12022020	051956	184.63	13.209355	-57.049678	184.71	1.040	-1.260	0.990	184.55	-2.60	1.50	 	 	 	 	 	 	 	 	 	 	 	 	 	 	 	 	 	 	1581484796	7.99	14.80
12/02/2020 05:19:57	120220	12022020	051957	184.40	13.209320	-57.049678	184.53	-0.070	-0.580	1.750	184.38	-1.90	2.40	 	 	 	 	 	 	 	 	 	 	 	 	 	 	 	 	 	 	1581484797	7.64	14.15
12/02/2020 05:19:58	120220	12022020	051958	184.41	13.209287	-57.049685	184.57	-1.200	0.150	2.800	184.41	-1.20	3.40	 	 	 	 	 	 	 	 	 	 	 	 	 	 	 	 	 	 	1581484798	7.18	13.30
12/02/2020 05:19:59	120220	12022020	051959	184.39	13.209255	-57.049702	184.54	-1.530	0.390	3.600	184.37	-1.00	4.10	 	 	 	 	 	 	 	 	 	 	 	 	 	 	 	 	 	 	1581484799	7.57	14.02
12/02/2020 05:20:00	120220	12022020	052000	184.34	13.209220	-57.049718	184.52	-0.850	0.220	3.730	184.36	-1.20	4.20	 	 	 	 	 	 	 	 	 	 	 	 	 	 	 	 	 	 	1581484800	8.26	15.30
12/02/2020 05:20:01	120220	12022020	052001	184.62	13.209183	-57.049732	184.85	0.180	0.130	3.020	184.73	-1.30	3.40	1016.00	26.00	26.10	20.80	20.80	-1.0	72.0	73.0	397.0	25.6	262.00	11.70	69.00	12.90	16	9709.0	27.2	27.2	1581484801	8.44	15.63
12/02/2020 05:20:02	120220	12022020	052002	185.21	13.209147	-57.049737	185.45	0.770	0.210	1.890	185.34	-1.20	2.20	 	 	 	 	 	 	 	 	 	 	 	 	 	 	 	 	 	 	1581484802	8.00	14.82
12/02/2020 05:20:03	120220	12022020	052003	185.66	13.209112	-57.049735	185.81	0.760	0.100	1.020	185.70	-1.40	1.40	 	 	 	 	 	 	 	 	 	 	 	 	 	 	 	 	 	 	1581484803	7.53	13.95
12/02/2020 05:20:04	120220	12022020	052004	185.66	13.209077	-57.049733	185.74	0.530	-0.360	0.850	185.62	-1.80	1.40	 	 	 	 	 	 	 	 	 	 	 	 	 	 	 	 	 	 	1581484804	7.46	13.82
12/02/2020 05:20:05	120220	12022020	052005	185.29	13.209042	-57.049733	185.32	0.410	-0.990	1.320	185.18	-2.50	1.90	 	 	 	 	 	 	 	 	 	 	 	 	 	 	 	 	 	 	1581484805	7.73	14.32
12/02/2020 05:20:06	120220	12022020	052006	184.63	13.209003	-57.049738	184.65	0.390	-1.400	2.130	184.49	-2.80	2.70	 	 	 	 	 	 	 	 	 	 	 	 	 	 	 	 	 	 	1581484806	8.11	15.02
12/02/2020 05:20:07	120220	12022020	052007	184.07	13.208965	-57.049747	184.16	0.160	-1.180	2.880	184.01	-2.50	3.40	 	 	 	 	 	 	 	 	 	 	 	 	 	 	 	 	 	 	1581484807	8.31	15.39
12/02/2020 05:20:08	120220	12022020	052008	184.01	13.208930	-57.049755	184.21	-0.410	-0.310	3.310	184.08	-1.60	3.80	 	 	 	 	 	 	 	 	 	 	 	 	 	 	 	 	 	 	1581484808	8.05	14.91
12/02/2020 05:20:09	120220	12022020	052009	184.49	13.208897	-57.049767	184.76	-1.080	0.820	3.300	184.63	-0.50	3.70	 	 	 	 	 	 	 	 	 	 	 	 	 	 	 	 	 	 	1581484809	7.47	13.83
12/02/2020 05:20:10	120220	12022020	052010	185.10	13.208867	-57.049778	185.32	-1.360	1.370	3.010	185.19	-0.10	3.40	 	 	 	 	 	 	 	 	 	 	 	 	 	 	 	 	 	 	1581484810	6.93	12.83
12/02/2020 05:20:11	120220	12022020	052011	185.41	13.208835	-57.049788	185.58	-0.870	0.730	2.570	185.45	-0.80	3.00	 	 	 	 	 	 	 	 	 	 	 	 	 	 	 	 	 	 	1581484811	7.12	13.19
12/02/2020 05:20:12	120220	12022020	052012	185.55	13.208797	-57.049795	185.70	0.210	-0.460	1.870	185.57	-2.00	2.30	 	 	 	 	 	 	 	 	 	 	 	 	 	 	 	 	 	 	1581484812	8.16	15.11
12/02/2020 05:20:13	120220	12022020	052013	185.60	13.208757	-57.049800	185.73	1.230	-1.120	1.150	185.61	-2.50	1.60	 	 	 	 	 	 	 	 	 	 	 	 	 	 	 	 	 	 	1581484813	8.78	16.26
12/02/2020 05:20:14	120220	12022020	052014	185.68	13.208718	-57.049800	185.81	1.590	-0.920	0.500	185.70	-2.20	0.90	 	 	 	 	 	 	 	 	 	 	 	 	 	 	 	 	 	 	1581484814	8.38	15.52
12/02/2020 05:20:15	120220	12022020	052015	185.80	13.208683	-57.049797	185.92	1.130	-0.250	0.250	185.81	-1.60	0.80	 	 	 	 	 	 	 	 	 	 	 	 	 	 	 	 	 	 	1581484815	7.54	13.96
12/02/2020 05:20:16	120220	12022020	052016	185.81	13.208650	-57.049795	185.90	0.230	0.130	0.860	185.79	-1.30	1.50	 	 	 	 	 	 	 	 	 	 	 	 	 	 	 	 	 	 	1581484816	6.92	12.82
12/02/2020 05:20:17	120220	12022020	052017	185.53	13.208618	-57.049800	185.59	-0.550	-0.160	2.200	185.42	-1.60	2.90	 	 	 	 	 	 	 	 	 	 	 	 	 	 	 	 	 	 	1581484817	7.08	13.11
12/02/2020 05:20:18	120220	12022020	052018	184.81	13.208583	-57.049813	184.84	-0.850	-0.810	3.750	184.64	-2.30	4.40	 	 	 	 	 	 	 	 	 	 	 	 	 	 	 	 	 	 	1581484818	8.06	14.93
12/02/2020 05:20:19	120220	12022020	052019	183.96	13.208545	-57.049830	184.04	-0.750	-1.070	4.940	183.82	-2.40	5.50	 	 	 	 	 	 	 	 	 	 	 	 	 	 	 	 	 	 	1581484819	8.94	16.56
12/02/2020 05:20:20	120220	12022020	052020	183.44	13.208507	-57.049847	183.59	-0.500	-0.590	5.200	183.39	-1.90	5.60	 	 	 	 	 	 	 	 	 	 	 	 	 	 	 	 	 	 	1581484820	8.87	16.43
12/02/2020 05:20:21	120220	12022020	052021	183.41	13.208472	-57.049860	183.62	-0.210	0.280	4.430	183.47	-1.00	4.70	 	 	 	 	 	 	 	 	 	 	 	 	 	 	 	 	 	 	1581484821	7.97	14.76
12/02/2020 05:20:22	120220	12022020	052022	183.81	13.208440	-57.049867	184.04	0.120	0.840	2.850	183.92	-0.50	3.10	 	 	 	 	 	 	 	 	 	 	 	 	 	 	 	 	 	 	1581484822	7.12	13.19
12/02/2020 05:20:23	120220	12022020	052023	184.40	13.208407	-57.049865	184.61	0.380	0.750	1.180	184.52	-0.70	1.50	 	 	 	 	 	 	 	 	 	 	 	 	 	 	 	 	 	 	1581484823	7.18	13.30
12/02/2020 05:20:24	120220	12022020	052024	184.98	13.208370	-57.049860	185.15	0.420	0.140	0.130	185.08	-1.40	0.60	 	 	 	 	 	 	 	 	 	 	 	 	 	 	 	 	 	 	1581484824	7.73	14.32
12/02/2020 05:20:25	120220	12022020	052025	185.29	13.208333	-57.049857	185.37	0.350	-0.710	-0.040	185.30	-2.20	0.50	 	 	 	 	 	 	 	 	 	 	 	 	 	 	 	 	 	 	1581484825	7.93	14.69
12/02/2020 05:20:26	120220	12022020	052026	185.15	13.208297	-57.049860	185.15	0.440	-1.520	0.510	185.05	-3.00	1.10	 	 	 	 	 	 	 	 	 	 	 	 	 	 	 	 	 	 	1581484826	8.02	14.85
12/02/2020 05:20:27	120220	12022020	052027	184.59	13.208258	-57.049867	184.58	0.680	-1.820	1.480	184.46	-3.20	2.10	 	 	 	 	 	 	 	 	 	 	 	 	 	 	 	 	 	 	1581484827	8.20	15.19
12/02/2020 05:20:28	120220	12022020	052028	184.03	13.208222	-57.049875	184.09	0.590	-1.110	2.410	183.96	-2.30	3.00	 	 	 	 	 	 	 	 	 	 	 	 	 	 	 	 	 	 	1581484828	8.18	15.15
12/02/2020 05:20:29	120220	12022020	052029	183.83	13.208188	-57.049882	183.94	-0.070	0.200	3.010	183.82	-1.00	3.50	 	 	 	 	 	 	 	 	 	 	 	 	 	 	 	 	 	 	1581484829	7.43	13.76
12/02/2020 05:20:30	120220	12022020	052030	183.79	13.208157	-57.049888	183.90	-0.860	1.040	3.310	183.78	-0.30	3.80	 	 	 	 	 	 	 	 	 	 	 	 	 	 	 	 	 	 	1581484830	6.82	12.63
12/02/2020 05:20:31	120220	12022020	052031	183.75	13.208125	-57.049898	183.88	-1.160	0.970	3.430	183.77	-0.50	3.90	 	 	 	 	 	 	 	 	 	 	 	 	 	 	 	 	 	 	1581484831	7.20	13.33
12/02/2020 05:20:32	120220	12022020	052032	183.99	13.208088	-57.049908	184.20	-0.860	0.550	3.140	184.09	-0.90	3.50	 	 	 	 	 	 	 	 	 	 	 	 	 	 	 	 	 	 	1581484832	8.12	15.04
12/02/2020 05:20:33	120220	12022020	052033	184.59	13.208052	-57.049917	184.83	-0.280	0.140	2.440	184.74	-1.30	2.80	 	 	 	 	 	 	 	 	 	 	 	 	 	 	 	 	 	 	1581484833	8.27	15.32
12/02/2020 05:20:34	120220	12022020	052034	185.19	13.208015	-57.049922	185.36	0.280	-0.380	1.620	185.26	-1.90	2.00	 	 	 	 	 	 	 	 	 	 	 	 	 	 	 	 	 	 	1581484834	7.85	14.54
12/02/2020 05:20:35	120220	12022020	052035	185.32	13.207978	-57.049925	185.40	0.760	-1.040	0.970	185.29	-2.50	1.40	 	 	 	 	 	 	 	 	 	 	 	 	 	 	 	 	 	 	1581484835	7.73	14.32
12/02/2020 05:20:36	120220	12022020	052036	185.13	13.207942	-57.049927	185.20	0.980	-1.320	0.700	185.09	-2.70	1.20	 	 	 	 	 	 	 	 	 	 	 	 	 	 	 	 	 	 	1581484836	7.98	14.78
12/02/2020 05:20:37	120220	12022020	052037	185.01	13.207905	-57.049927	185.11	0.730	-0.880	0.770	185.00	-2.20	1.30	 	 	 	 	 	 	 	 	 	 	 	 	 	 	 	 	 	 	1581484837	7.82	14.48
12/02/2020 05:20:38	120220	12022020	052038	185.02	13.207872	-57.049930	185.13	0.150	-0.120	0.960	185.03	-1.40	1.50	 	 	 	 	 	 	 	 	 	 	 	 	 	 	 	 	 	 	1581484838	7.18	13.30
12/02/2020 05:20:39	120220	12022020	052039	185.02	13.207840	-57.049933	185.12	-0.420	0.320	1.390	185.01	-1.10	1.90	 	 	 	 	 	 	 	 	 	 	 	 	 	 	 	 	 	 	1581484839	6.86	12.70
12/02/2020 05:20:40	120220	12022020	052040	185.03	13.207807	-57.049942	185.17	-0.700	0.270	2.090	185.05	-1.20	2.60	 	 	 	 	 	 	 	 	 	 	 	 	 	 	 	 	 	 	1581484840	7.33	13.58
12/02/2020 05:20:41	120220	12022020	052041	185.16	13.207772	-57.049953	185.31	-0.560	0.040	2.610	185.18	-1.40	3.10	 	 	 	 	 	 	 	 	 	 	 	 	 	 	 	 	 	 	1581484841	8.00	14.82
12/02/2020 05:20:42	120220	12022020	052042	185.09	13.207735	-57.049965	185.15	-0.030	-0.350	2.830	185.02	-1.80	3.30	 	 	 	 	 	 	 	 	 	 	 	 	 	 	 	 	 	 	1581484842	8.15	15.09
12/02/2020 05:20:43	120220	12022020	052043	184.51	13.207698	-57.049973	184.52	0.550	-0.880	3.110	184.38	-2.30	3.60	 	 	 	 	 	 	 	 	 	 	 	 	 	 	 	 	 	 	1581484843	8.19	15.17
12/02/2020 05:20:44	120220	12022020	052044	183.96	13.207658	-57.049978	184.05	0.560	-0.830	3.280	183.92	-2.10	3.80	 	 	 	 	 	 	 	 	 	 	 	 	 	 	 	 	 	 	1581484844	8.53	15.80
12/02/2020 05:20:45	120220	12022020	052045	184.06	13.207622	-57.049982	184.27	-0.160	0.040	3.170	184.17	-1.20	3.60	 	 	 	 	 	 	 	 	 	 	 	 	 	 	 	 	 	 	1581484845	8.06	14.93
12/02/2020 05:20:46	120220	12022020	052046	184.69	13.207590	-57.049988	184.93	-1.010	0.850	2.840	184.83	-0.50	3.30	 	 	 	 	 	 	 	 	 	 	 	 	 	 	 	 	 	 	1581484846	6.98	12.93
12/02/2020 05:20:47	120220	12022020	052047	185.27	13.207560	-57.049997	185.47	-1.140	0.780	2.430	185.36	-0.70	2.80	 	 	 	 	 	 	 	 	 	 	 	 	 	 	 	 	 	 	1581484847	6.73	12.46
12/02/2020 05:20:48	120220	12022020	052048	185.62	13.207527	-57.050007	185.78	-0.300	0.030	1.780	185.66	-1.50	2.20	 	 	 	 	 	 	 	 	 	 	 	 	 	 	 	 	 	 	1581484848	7.52	13.93
12/02/2020 05:20:49	120220	12022020	052049	185.73	13.207488	-57.050013	185.85	0.860	-0.710	1.230	185.73	-2.20	1.70	 	 	 	 	 	 	 	 	 	 	 	 	 	 	 	 	 	 	1581484849	8.16	15.11
12/02/2020 05:20:50	120220	12022020	052050	185.68	13.207450	-57.050015	185.77	1.450	-0.940	1.000	185.65	-2.30	1.50	 	 	 	 	 	 	 	 	 	 	 	 	 	 	 	 	 	 	1581484850	8.26	15.30
12/02/2020 05:20:51	120220	12022020	052051	185.57	13.207413	-57.050015	185.65	1.120	-0.760	1.120	185.54	-2.10	1.70	 	 	 	 	 	 	 	 	 	 	 	 	 	 	 	 	 	 	1581484851	7.85	14.54
12/02/2020 05:20:52	120220	12022020	052052	185.35	13.207380	-57.050015	185.43	0.220	-0.550	1.770	185.29	-1.90	2.40	 	 	 	 	 	 	 	 	 	 	 	 	 	 	 	 	 	 	1581484852	7.45	13.80
12/02/2020 05:20:53	120220	12022020	052053	185.03	13.207345	-57.050022	185.13	-0.550	-0.340	2.640	184.98	-1.70	3.20	 	 	 	 	 	 	 	 	 	 	 	 	 	 	 	 	 	 	1581484853	7.50	13.89
12/02/2020 05:20:54	120220	12022020	052054	184.84	13.207310	-57.050033	184.98	-0.780	-0.060	3.180	184.82	-1.40	3.70	 	 	 	 	 	 	 	 	 	 	 	 	 	 	 	 	 	 	1581484854	7.83	14.50
12/02/2020 05:20:55	120220	12022020	052055	184.69	13.207277	-57.050045	184.81	-0.540	-0.020	3.420	184.64	-1.40	3.90	 	 	 	 	 	 	 	 	 	 	 	 	 	 	 	 	 	 	1581484855	7.83	14.50
12/02/2020 05:20:56	120220	12022020	052056	184.41	13.207240	-57.050055	184.52	-0.200	-0.310	3.370	184.36	-1.70	3.80	 	 	 	 	 	 	 	 	 	 	 	 	 	 	 	 	 	 	1581484856	8.01	14.83
12/02/2020 05:20:57	120220	12022020	052057	184.30	13.207202	-57.050062	184.45	-0.150	-0.340	2.950	184.31	-1.70	3.30	 	 	 	 	 	 	 	 	 	 	 	 	 	 	 	 	 	 	1581484857	8.36	15.48
12/02/2020 05:20:58	120220	12022020	052058	184.46	13.207165	-57.050068	184.61	-0.410	0.110	2.320	184.49	-1.20	2.70	 	 	 	 	 	 	 	 	 	 	 	 	 	 	 	 	 	 	1581484858	8.00	14.82
12/02/2020 05:20:59	120220	12022020	052059	184.61	13.207132	-57.050073	184.73	-0.510	0.360	1.720	184.63	-1.10	2.10	 	 	 	 	 	 	 	 	 	 	 	 	 	 	 	 	 	 	1581484859	7.24	13.41
12/02/2020 05:21:00	120220	12022020	052100	184.67	13.207098	-57.050078	184.78	-0.070	0.030	1.120	184.68	-1.40	1.50	 	 	 	 	 	 	 	 	 	 	 	 	 	 	 	 	 	 	1581484860	7.26	13.45
12/02/2020 05:21:01	120220	12022020	052101	184.80	13.207062	-57.050082	184.94	0.690	-0.450	0.580	184.85	-1.90	1.00	1015.80	26.00	26.00	20.70	20.80	-1.0	72.0	72.0	397.0	25.6	259.00	12.30	67.00	13.70	16	8909.0	27.2	27.2	1581484861	7.89	14.61
12/02/2020 05:21:02	120220	12022020	052102	185.14	13.207023	-57.050082	185.31	1.070	-0.570	0.400	185.22	-2.00	0.90	 	 	 	 	 	 	 	 	 	 	 	 	 	 	 	 	 	 	1581484862	8.21	15.20
12/02/2020 05:21:03	120220	12022020	052103	185.46	13.206987	-57.050083	185.62	0.750	-0.280	0.740	185.50	-1.60	1.30	 	 	 	 	 	 	 	 	 	 	 	 	 	 	 	 	 	 	1581484863	7.81	14.46
12/02/2020 05:21:04	120220	12022020	052104	185.55	13.206953	-57.050087	185.67	0.050	0.180	1.440	185.54	-1.20	2.00	 	 	 	 	 	 	 	 	 	 	 	 	 	 	 	 	 	 	1581484864	7.24	13.41
12/02/2020 05:21:05	120220	12022020	052105	185.42	13.206922	-57.050095	185.53	-0.410	0.270	2.230	185.37	-1.20	2.80	 	 	 	 	 	 	 	 	 	 	 	 	 	 	 	 	 	 	1581484865	7.02	13.00
12/02/2020 05:21:06	120220	12022020	052106	185.12	13.206888	-57.050103	185.23	-0.410	-0.350	3.010	185.05	-1.90	3.60	 	 	 	 	 	 	 	 	 	 	 	 	 	 	 	 	 	 	1581484866	7.42	13.74
12/02/2020 05:21:07	120220	12022020	052107	184.68	13.206852	-57.050113	184.76	-0.080	-1.280	3.730	184.58	-2.80	4.30	 	 	 	 	 	 	 	 	 	 	 	 	 	 	 	 	 	 	1581484867	8.26	15.30
12/02/2020 05:21:08	120220	12022020	052108	184.14	13.206812	-57.050125	184.22	0.200	-1.710	4.080	184.04	-3.10	4.50	 	 	 	 	 	 	 	 	 	 	 	 	 	 	 	 	 	 	1581484868	8.86	16.41
12/02/2020 05:21:09	120220	12022020	052109	183.64	13.206773	-57.050133	183.74	0.150	-1.110	3.980	183.57	-2.40	4.40	 	 	 	 	 	 	 	 	 	 	 	 	 	 	 	 	 	 	1581484869	8.59	15.91
12/02/2020 05:21:10	120220	12022020	052110	183.37	13.206738	-57.050140	183.50	-0.250	0.210	3.660	183.35	-1.00	4.10	 	 	 	 	 	 	 	 	 	 	 	 	 	 	 	 	 	 	1581484870	7.64	14.15
12/02/2020 05:21:11	120220	12022020	052111	183.43	13.206707	-57.050147	183.62	-0.670	1.280	2.970	183.50	-0.10	3.30	 	 	 	 	 	 	 	 	 	 	 	 	 	 	 	 	 	 	1581484871	6.79	12.58
12/02/2020 05:21:12	120220	12022020	052112	183.89	13.206677	-57.050152	184.09	-0.690	1.440	1.920	184.01	-0.00	2.30	 	 	 	 	 	 	 	 	 	 	 	 	 	 	 	 	 	 	1581484872	6.76	12.52
12/02/2020 05:21:13	120220	12022020	052113	184.44	13.206642	-57.050153	184.59	-0.220	0.610	1.080	184.52	-1.00	1.50	 	 	 	 	 	 	 	 	 	 	 	 	 	 	 	 	 	 	1581484873	7.37	13.65
12/02/2020 05:21:14	120220	12022020	052114	184.71	13.206603	-57.050157	184.81	0.510	-0.570	0.810	184.73	-2.10	1.30	 	 	 	 	 	 	 	 	 	 	 	 	 	 	 	 	 	 	1581484874	8.22	15.22
12/02/2020 05:21:15	120220	12022020	052115	184.78	13.206563	-57.050160	184.87	1.010	-1.130	0.740	184.80	-2.50	1.20	 	 	 	 	 	 	 	 	 	 	 	 	 	 	 	 	 	 	1581484875	8.61	15.95
12/02/2020 05:21:16	120220	12022020	052116	184.84	13.206527	-57.050162	184.94	0.930	-0.980	0.940	184.84	-2.30	1.50	 	 	 	 	 	 	 	 	 	 	 	 	 	 	 	 	 	 	1581484876	8.05	14.91
12/02/2020 05:21:17	120220	12022020	052117	184.80	13.206492	-57.050162	184.88	0.360	-0.690	1.650	184.76	-2.10	2.30	 	 	 	 	 	 	 	 	 	 	 	 	 	 	 	 	 	 	1581484877	7.28	13.48
12/02/2020 05:21:18	120220	12022020	052118	184.56	13.206460	-57.050167	184.65	-0.240	-0.650	2.630	184.50	-2.10	3.20	 	 	 	 	 	 	 	 	 	 	 	 	 	 	 	 	 	 	1581484878	7.19	13.32
12/02/2020 05:21:19	120220	12022020	052119	184.20	13.206425	-57.050175	184.28	-0.510	-0.660	3.460	184.13	-2.10	4.00	 	 	 	 	 	 	 	 	 	 	 	 	 	 	 	 	 	 	1581484879	7.72	14.30
12/02/2020 05:21:20	120220	12022020	052120	183.73	13.206388	-57.050187	183.80	-0.460	-0.480	4.040	183.63	-1.90	4.60	 	 	 	 	 	 	 	 	 	 	 	 	 	 	 	 	 	 	1581484880	8.10	15.00
12/02/2020 05:21:21	120220	12022020	052121	183.24	13.206352	-57.050197	183.35	-0.310	-0.080	4.300	183.18	-1.40	4.70	 	 	 	 	 	 	 	 	 	 	 	 	 	 	 	 	 	 	1581484881	8.08	14.96
12/02/2020 05:21:22	120220	12022020	052122	183.18	13.206317	-57.050205	183.36	-0.300	0.510	3.840	183.23	-0.80	4.20	 	 	 	 	 	 	 	 	 	 	 	 	 	 	 	 	 	 	1581484882	7.86	14.56
12/02/2020 05:21:23	120220	12022020	052123	183.60	13.206282	-57.050210	183.82	-0.400	0.920	2.860	183.71	-0.50	3.20	 	 	 	 	 	 	 	 	 	 	 	 	 	 	 	 	 	 	1581484883	7.41	13.72
12/02/2020 05:21:24	120220	12022020	052124	184.11	13.206248	-57.050213	184.29	-0.320	0.640	1.990	184.18	-0.90	2.40	 	 	 	 	 	 	 	 	 	 	 	 	 	 	 	 	 	 	1581484884	7.20	13.33
12/02/2020 05:21:25	120220	12022020	052125	184.30	13.206213	-57.050215	184.40	0.140	-0.230	1.450	184.29	-1.80	1.90	 	 	 	 	 	 	 	 	 	 	 	 	 	 	 	 	 	 	1581484885	7.62	14.11
12/02/2020 05:21:26	120220	12022020	052126	184.18	13.206175	-57.050218	184.26	0.800	-1.050	1.120	184.16	-2.50	1.60	 	 	 	 	 	 	 	 	 	 	 	 	 	 	 	 	 	 	1581484886	8.24	15.26
12/02/2020 05:21:27	120220	12022020	052127	184.22	13.206137	-57.050220	184.37	1.100	-1.130	0.790	184.28	-2.50	1.30	 	 	 	 	 	 	 	 	 	 	 	 	 	 	 	 	 	 	1581484887	8.38	15.52
12/02/2020 05:21:28	120220	12022020	052128	184.68	13.206100	-57.050218	184.89	0.650	-0.490	0.640	184.80	-1.80	1.10	 	 	 	 	 	 	 	 	 	 	 	 	 	 	 	 	 	 	1581484888	7.77	14.39
12/02/2020 05:21:29	120220	12022020	052129	185.32	13.206068	-57.050220	185.53	-0.270	0.120	0.890	185.44	-1.30	1.40	 	 	 	 	 	 	 	 	 	 	 	 	 	 	 	 	 	 	1581484889	6.90	12.78
12/02/2020 05:21:30	120220	12022020	052130	185.76	13.206037	-57.050225	185.93	-0.950	0.080	1.490	185.80	-1.40	2.10	 	 	 	 	 	 	 	 	 	 	 	 	 	 	 	 	 	 	1581484890	6.79	12.58
12/02/2020 05:21:31	120220	12022020	052131	185.73	13.206003	-57.050235	185.82	-0.830	-0.610	2.300	185.66	-2.10	2.90	 	 	 	 	 	 	 	 	 	 	 	 	 	 	 	 	 	 	1581484891	7.59	14.06
12/02/2020 05:21:32	120220	12022020	052132	185.26	13.205965	-57.050247	185.34	-0.020	-1.280	2.970	185.16	-2.70	3.50	 	 	 	 	 	 	 	 	 	 	 	 	 	 	 	 	 	 	1581484892	8.53	15.80
12/02/2020 05:21:33	120220	12022020	052133	184.84	13.205925	-57.050257	185.00	0.590	-1.120	3.120	184.82	-2.40	3.60	 	 	 	 	 	 	 	 	 	 	 	 	 	 	 	 	 	 	1581484893	8.83	16.35
12/02/2020 05:21:34	120220	12022020	052134	184.93	13.205888	-57.050260	185.15	0.270	-0.140	3.050	184.98	-1.40	3.50	 	 	 	 	 	 	 	 	 	 	 	 	 	 	 	 	 	 	1581484894	8.19	15.17
12/02/2020 05:21:35	120220	12022020	052135	185.25	13.205855	-57.050263	185.46	-0.620	0.820	3.110	185.30	-0.50	3.60	 	 	 	 	 	 	 	 	 	 	 	 	 	 	 	 	 	 	1581484895	7.14	13.22
12/02/2020 05:21:36	120220	12022020	052136	185.41	13.205823	-57.050270	185.57	-1.110	1.180	3.160	185.41	-0.30	3.60	 	 	 	 	 	 	 	 	 	 	 	 	 	 	 	 	 	 	1581484896	6.90	12.78
12/02/2020 05:21:37	120220	12022020	052137	185.34	13.205790	-57.050280	185.47	-0.610	0.780	3.110	185.31	-0.70	3.60	 	 	 	 	 	 	 	 	 	 	 	 	 	 	 	 	 	 	1581484897	7.42	13.74
12/02/2020 05:21:38	120220	12022020	052138	185.15	13.205753	-57.050290	185.27	0.530	-0.090	2.940	185.13	-1.60	3.40	 	 	 	 	 	 	 	 	 	 	 	 	 	 	 	 	 	 	1581484898	8.06	14.93
12/02/2020 05:21:39	120220	12022020	052139	185.12	13.205715	-57.050297	185.29	1.260	-0.660	2.600	185.16	-2.10	3.00	 	 	 	 	 	 	 	 	 	 	 	 	 	 	 	 	 	 	1581484899	8.50	15.74
12/02/2020 05:21:40	120220	12022020	052140	185.44	13.205677	-57.050300	185.68	1.050	-0.530	2.190	185.54	-1.90	2.60	 	 	 	 	 	 	 	 	 	 	 	 	 	 	 	 	 	 	1581484900	8.14	15.08
12/02/2020 05:21:41	120220	12022020	052141	186.04	13.205645	-57.050303	186.30	0.230	-0.010	1.770	186.18	-1.40	2.20	 	 	 	 	 	 	 	 	 	 	 	 	 	 	 	 	 	 	1581484901	7.10	13.15
12/02/2020 05:21:42	120220	12022020	052142	186.71	13.205615	-57.050307	186.94	-0.330	0.040	1.120	186.84	-1.40	1.50	 	 	 	 	 	 	 	 	 	 	 	 	 	 	 	 	 	 	1581484902	6.43	11.91
12/02/2020 05:21:43	120220	12022020	052143	187.22	13.205583	-57.050312	187.39	-0.210	-0.690	0.610	187.28	-2.20	1.10	 	 	 	 	 	 	 	 	 	 	 	 	 	 	 	 	 	 	1581484903	6.82	12.63
12/02/2020 05:21:44	120220	12022020	052144	187.25	13.205547	-57.050315	187.31	0.240	-1.730	0.850	187.16	-3.30	1.40	 	 	 	 	 	 	 	 	 	 	 	 	 	 	 	 	 	 	1581484904	7.81	14.46
12/02/2020 05:21:45	120220	12022020	052145	186.61	13.205508	-57.050320	186.63	0.420	-2.330	1.770	186.46	-3.70	2.40	 	 	 	 	 	 	 	 	 	 	 	 	 	 	 	 	 	 	1581484905	8.50	15.74
12/02/2020 05:21:46	120220	12022020	052146	185.80	13.205468	-57.050328	185.86	-0.030	-1.810	2.910	185.65	-3.10	3.50	 	 	 	 	 	 	 	 	 	 	 	 	 	 	 	 	 	 	1581484906	8.67	16.06
12/02/2020 05:21:47	120220	12022020	052147	185.21	13.205432	-57.050340	185.35	-0.770	-0.310	3.870	185.14	-1.50	4.40	 	 	 	 	 	 	 	 	 	 	 	 	 	 	 	 	 	 	1581484907	8.16	15.11
12/02/2020 05:21:48	120220	12022020	052148	185.14	13.205400	-57.050353	185.38	-1.210	1.440	3.980	185.20	0.20	4.40	 	 	 	 	 	 	 	 	 	 	 	 	 	 	 	 	 	 	1581484908	7.56	14.00
12/02/2020 05:21:49	120220	12022020	052149	185.63	13.205368	-57.050363	185.91	-1.100	2.500	3.210	185.76	1.10	3.60	 	 	 	 	 	 	 	 	 	 	 	 	 	 	 	 	 	 	1581484909	7.04	13.04
12/02/2020 05:21:50	120220	12022020	052150	186.27	13.205337	-57.050370	186.50	-0.570	2.300	2.200	186.37	0.80	2.60	 	 	 	 	 	 	 	 	 	 	 	 	 	 	 	 	 	 	1581484910	7.06	13.08
12/02/2020 05:21:51	120220	12022020	052151	186.62	13.205300	-57.050373	186.76	0.140	0.920	1.490	186.64	-0.70	1.90	 	 	 	 	 	 	 	 	 	 	 	 	 	 	 	 	 	 	1581484911	7.73	14.32
12/02/2020 05:21:52	120220	12022020	052152	186.60	13.205262	-57.050377	186.69	0.800	-0.780	1.230	186.57	-2.40	1.70	 	 	 	 	 	 	 	 	 	 	 	 	 	 	 	 	 	 	1581484912	8.56	15.85
12/02/2020 05:21:53	120220	12022020	052153	186.38	13.205220	-57.050382	186.46	1.210	-1.810	1.370	186.32	-3.30	1.90	 	 	 	 	 	 	 	 	 	 	 	 	 	 	 	 	 	 	1581484913	8.73	16.17
12/02/2020 05:21:54	120220	12022020	052154	186.14	13.205183	-57.050388	186.24	1.300	-1.780	1.520	186.11	-3.10	2.00	 	 	 	 	 	 	 	 	 	 	 	 	 	 	 	 	 	 	1581484914	8.08	14.96
12/02/2020 05:21:55	120220	12022020	052155	186.08	13.205150	-57.050392	186.23	1.010	-1.030	1.490	186.10	-2.30	2.00	 	 	 	 	 	 	 	 	 	 	 	 	 	 	 	 	 	 	1581484915	7.14	13.22
12/02/2020 05:21:56	120220	12022020	052156	186.24	13.205120	-57.050395	186.40	0.340	-0.360	1.450	186.27	-1.70	2.00	 	 	 	 	 	 	 	 	 	 	 	 	 	 	 	 	 	 	1581484916	6.53	12.09
12/02/2020 05:21:57	120220	12022020	052157	186.36	13.205090	-57.050398	186.50	-0.410	-0.300	1.640	186.36	-1.70	2.20	 	 	 	 	 	 	 	 	 	 	 	 	 	 	 	 	 	 	1581484917	6.73	12.46
12/02/2020 05:21:58	120220	12022020	052158	186.26	13.205055	-57.050407	186.37	-0.890	-0.690	2.190	186.21	-2.10	2.80	 	 	 	 	 	 	 	 	 	 	 	 	 	 	 	 	 	 	1581484918	7.61	14.09
12/02/2020 05:21:59	120220	12022020	052159	185.89	13.205017	-57.050418	185.99	-0.910	-1.000	2.980	185.80	-2.40	3.60	 	 	 	 	 	 	 	 	 	 	 	 	 	 	 	 	 	 	1581484919	8.44	15.63
12/02/2020 05:22:00	120220	12022020	052200	185.60	13.204978	-57.050432	185.77	-0.640	-0.570	3.330	185.60	-1.80	3.80	 	 	 	 	 	 	 	 	 	 	 	 	 	 	 	 	 	 	1581484920	8.76	16.22
12/02/2020 05:22:01	120220	12022020	052201	185.90	13.204942	-57.050442	186.16	-0.400	0.580	2.900	186.03	-0.70	3.30	1015.90	26.10	26.10	20.90	20.90	-1.0	73.0	73.0	398.0	25.6	257.00	11.20	65.00	12.70	16	8521.0	27.2	27.2	1581484921	8.15	15.09
12/02/2020 05:22:02	120220	12022020	052202	186.63	13.204910	-57.050447	186.89	-0.270	1.400	2.060	186.77	0.00	2.50	 	 	 	 	 	 	 	 	 	 	 	 	 	 	 	 	 	 	1581484922	7.09	13.13
12/02/2020 05:22:03	120220	12022020	052203	187.18	13.204877	-57.050448	187.35	-0.090	0.960	1.390	187.22	-0.60	1.90	 	 	 	 	 	 	 	 	 	 	 	 	 	 	 	 	 	 	1581484923	6.94	12.85
12/02/2020 05:22:04	120220	12022020	052204	187.18	13.204840	-57.050450	187.27	0.260	-0.370	1.280	187.11	-1.90	1.80	 	 	 	 	 	 	 	 	 	 	 	 	 	 	 	 	 	 	1581484924	7.93	14.69
12/02/2020 05:22:05	120220	12022020	052205	186.77	13.204800	-57.050455	186.84	0.640	-1.340	1.730	186.68	-2.80	2.30	 	 	 	 	 	 	 	 	 	 	 	 	 	 	 	 	 	 	1581484925	8.83	16.35
12/02/2020 05:22:06	120220	12022020	052206	186.40	13.204760	-57.050462	186.53	0.710	-1.050	2.320	186.37	-2.30	2.90	 	 	 	 	 	 	 	 	 	 	 	 	 	 	 	 	 	 	1581484926	8.63	15.98
12/02/2020 05:22:07	120220	12022020	052207	186.40	13.204727	-57.050468	186.59	0.320	0.070	2.610	186.44	-1.20	3.10	 	 	 	 	 	 	 	 	 	 	 	 	 	 	 	 	 	 	1581484927	7.42	13.74
12/02/2020 05:22:08	120220	12022020	052208	186.62	13.204697	-57.050475	186.79	-0.130	0.680	2.490	186.65	-0.80	3.00	 	 	 	 	 	 	 	 	 	 	 	 	 	 	 	 	 	 	1581484928	6.39	11.83
12/02/2020 05:22:09	120220	12022020	052209	186.69	13.204667	-57.050483	186.84	-0.150	0.020	2.300	186.69	-1.50	2.80	 	 	 	 	 	 	 	 	 	 	 	 	 	 	 	 	 	 	1581484929	6.73	12.46
12/02/2020 05:22:10	120220	12022020	052210	186.71	13.204630	-57.050490	186.87	0.150	-0.910	2.000	186.72	-2.40	2.50	 	 	 	 	 	 	 	 	 	 	 	 	 	 	 	 	 	 	1581484930	8.14	15.08
12/02/2020 05:22:11	120220	12022020	052211	186.85	13.204590	-57.050495	187.04	0.220	-1.030	1.680	186.90	-2.40	2.10	 	 	 	 	 	 	 	 	 	 	 	 	 	 	 	 	 	 	1581484931	8.67	16.06
12/02/2020 05:22:12	120220	12022020	052212	187.05	13.204553	-57.050500	187.22	-0.090	-0.490	1.540	187.08	-1.80	2.00	 	 	 	 	 	 	 	 	 	 	 	 	 	 	 	 	 	 	1581484932	7.85	14.54
12/02/2020 05:22:13	120220	12022020	052213	187.12	13.204522	-57.050507	187.26	-0.400	-0.050	1.590	187.13	-1.40	2.10	 	 	 	 	 	 	 	 	 	 	 	 	 	 	 	 	 	 	1581484933	7.09	13.13
12/02/2020 05:22:14	120220	12022020	052214	187.21	13.204488	-57.050515	187.39	-0.410	0.110	1.570	187.25	-1.30	2.10	 	 	 	 	 	 	 	 	 	 	 	 	 	 	 	 	 	 	1581484934	7.24	13.41
12/02/2020 05:22:15	120220	12022020	052215	187.59	13.204453	-57.050522	187.82	-0.170	0.150	1.390	187.71	-1.30	1.90	 	 	 	 	 	 	 	 	 	 	 	 	 	 	 	 	 	 	1581484935	7.65	14.17
12/02/2020 05:22:16	120220	12022020	052216	188.19	13.204418	-57.050527	188.41	0.070	-0.020	1.110	188.29	-1.50	1.60	 	 	 	 	 	 	 	 	 	 	 	 	 	 	 	 	 	 	1581484936	7.72	14.30
12/02/2020 05:22:17	120220	12022020	052217	188.47	13.204382	-57.050532	188.59	0.230	-0.530	1.170	188.44	-2.00	1.70	 	 	 	 	 	 	 	 	 	 	 	 	 	 	 	 	 	 	1581484937	7.76	14.37
12/02/2020 05:22:18	120220	12022020	052218	188.15	13.204345	-57.050538	188.19	0.320	-1.050	1.770	188.02	-2.50	2.40	 	 	 	 	 	 	 	 	 	 	 	 	 	 	 	 	 	 	1581484938	8.08	14.96
12/02/2020 05:22:19	120220	12022020	052219	187.42	13.204307	-57.050547	187.45	0.360	-1.090	2.510	187.26	-2.40	3.10	 	 	 	 	 	 	 	 	 	 	 	 	 	 	 	 	 	 	1581484939	8.29	15.35
12/02/2020 05:22:20	120220	12022020	052220	186.66	13.204270	-57.050555	186.76	0.230	-0.460	3.080	186.55	-1.70	3.60	 	 	 	 	 	 	 	 	 	 	 	 	 	 	 	 	 	 	1581484940	8.13	15.06
12/02/2020 05:22:21	120220	12022020	052221	186.38	13.204237	-57.050563	186.61	-0.180	0.560	3.270	186.41	-0.70	3.70	 	 	 	 	 	 	 	 	 	 	 	 	 	 	 	 	 	 	1581484941	7.66	14.19
12/02/2020 05:22:22	120220	12022020	052222	186.81	13.204203	-57.050570	187.12	-0.680	1.310	2.900	186.95	-0.10	3.30	 	 	 	 	 	 	 	 	 	 	 	 	 	 	 	 	 	 	1581484942	7.11	13.17
12/02/2020 05:22:23	120220	12022020	052223	187.62	13.204172	-57.050578	187.91	-0.870	1.100	2.250	187.76	-0.40	2.70	 	 	 	 	 	 	 	 	 	 	 	 	 	 	 	 	 	 	1581484943	7.02	13.00
12/02/2020 05:22:24	120220	12022020	052224	188.20	13.204137	-57.050585	188.43	-0.500	-0.060	1.860	188.28	-1.60	2.30	 	 	 	 	 	 	 	 	 	 	 	 	 	 	 	 	 	 	1581484944	7.64	14.15
12/02/2020 05:22:25	120220	12022020	052225	188.49	13.204098	-57.050595	188.68	0.100	-1.100	1.700	188.52	-2.60	2.20	 	 	 	 	 	 	 	 	 	 	 	 	 	 	 	 	 	 	1581484945	8.57	15.87
12/02/2020 05:22:26	120220	12022020	052226	188.58	13.204060	-57.050603	188.72	0.510	-1.260	1.510	188.57	-2.60	2.00	 	 	 	 	 	 	 	 	 	 	 	 	 	 	 	 	 	 	1581484946	8.50	15.74
12/02/2020 05:22:27	120220	12022020	052227	188.43	13.204025	-57.050612	188.51	0.720	-0.890	1.440	188.36	-2.30	1.90	 	 	 	 	 	 	 	 	 	 	 	 	 	 	 	 	 	 	1581484947	7.56	14.00
12/02/2020 05:22:28	120220	12022020	052228	188.06	13.203993	-57.050617	188.15	0.800	-0.580	1.480	187.99	-2.00	2.00	 	 	 	 	 	 	 	 	 	 	 	 	 	 	 	 	 	 	1581484948	7.07	13.09
12/02/2020 05:22:29	120220	12022020	052229	187.83	13.203958	-57.050620	187.98	0.630	-0.310	1.520	187.82	-1.70	2.00	 	 	 	 	 	 	 	 	 	 	 	 	 	 	 	 	 	 	1581484949	7.44	13.78
12/02/2020 05:22:30	120220	12022020	052230	187.86	13.203923	-57.050623	188.04	0.160	0.030	1.710	187.88	-1.30	2.20	 	 	 	 	 	 	 	 	 	 	 	 	 	 	 	 	 	 	1581484950	7.67	14.20
12/02/2020 05:22:31	120220	12022020	052231	187.98	13.203888	-57.050628	188.16	-0.410	0.250	2.110	187.99	-1.20	2.70	 	 	 	 	 	 	 	 	 	 	 	 	 	 	 	 	 	 	1581484951	7.59	14.06
12/02/2020 05:22:32	120220	12022020	052232	187.93	13.203853	-57.050637	188.09	-0.770	0.060	2.700	187.89	-1.40	3.30	 	 	 	 	 	 	 	 	 	 	 	 	 	 	 	 	 	 	1581484952	7.67	14.20
12/02/2020 05:22:33	120220	12022020	052233	187.80	13.203817	-57.050648	187.98	-0.780	-0.350	3.170	187.79	-1.80	3.70	 	 	 	 	 	 	 	 	 	 	 	 	 	 	 	 	 	 	1581484953	8.17	15.13
12/02/2020 05:22:34	120220	12022020	052234	187.83	13.203780	-57.050662	188.04	-0.530	-0.620	3.300	187.85	-2.00	3.80	 	 	 	 	 	 	 	 	 	 	 	 	 	 	 	 	 	 	1581484954	8.50	15.74
12/02/2020 05:22:35	120220	12022020	052235	187.97	13.203743	-57.050673	188.16	-0.170	-0.530	2.870	187.99	-1.90	3.30	 	 	 	 	 	 	 	 	 	 	 	 	 	 	 	 	 	 	1581484955	8.33	15.43
12/02/2020 05:22:36	120220	12022020	052236	187.99	13.203708	-57.050682	188.13	0.150	-0.200	2.080	187.98	-1.50	2.50	 	 	 	 	 	 	 	 	 	 	 	 	 	 	 	 	 	 	1581484956	7.83	14.50
12/02/2020 05:22:37	120220	12022020	052237	187.93	13.203673	-57.050687	188.07	0.270	0.220	1.370	187.93	-1.10	1.80	 	 	 	 	 	 	 	 	 	 	 	 	 	 	 	 	 	 	1581484957	7.56	14.00
12/02/2020 05:22:38	120220	12022020	052238	188.07	13.203638	-57.050688	188.25	0.130	0.500	1.010	188.14	-0.90	1.50	 	 	 	 	 	 	 	 	 	 	 	 	 	 	 	 	 	 	1581484958	7.45	13.80
12/02/2020 05:22:39	120220	12022020	052239	188.49	13.203603	-57.050692	188.71	-0.100	0.480	1.000	188.60	-1.00	1.50	 	 	 	 	 	 	 	 	 	 	 	 	 	 	 	 	 	 	1581484959	7.40	13.70
12/02/2020 05:22:40	120220	12022020	052240	188.93	13.203570	-57.050698	189.10	-0.120	0.030	1.260	188.96	-1.50	1.80	 	 	 	 	 	 	 	 	 	 	 	 	 	 	 	 	 	 	1581484960	7.47	13.83
12/02/2020 05:22:41	120220	12022020	052241	188.82	13.203535	-57.050708	188.90	0.340	-0.940	1.840	188.72	-2.50	2.40	 	 	 	 	 	 	 	 	 	 	 	 	 	 	 	 	 	 	1581484961	7.81	14.46
12/02/2020 05:22:42	120220	12022020	052242	188.28	13.203497	-57.050718	188.37	0.850	-1.590	2.420	188.19	-3.00	3.00	 	 	 	 	 	 	 	 	 	 	 	 	 	 	 	 	 	 	1581484962	8.50	15.74
12/02/2020 05:22:43	120220	12022020	052243	187.97	13.203457	-57.050727	188.15	0.800	-1.060	2.580	187.97	-2.30	3.10	 	 	 	 	 	 	 	 	 	 	 	 	 	 	 	 	 	 	1581484963	8.58	15.89
12/02/2020 05:22:44	120220	12022020	052244	188.13	13.203423	-57.050733	188.37	0.160	0.120	2.290	188.21	-1.20	2.70	 	 	 	 	 	 	 	 	 	 	 	 	 	 	 	 	 	 	1581484964	7.46	13.82
12/02/2020 05:22:45	120220	12022020	052245	188.60	13.203393	-57.050738	188.85	-0.570	0.760	1.970	188.70	-0.70	2.40	 	 	 	 	 	 	 	 	 	 	 	 	 	 	 	 	 	 	1581484965	6.63	12.28
12/02/2020 05:22:46	120220	12022020	052246	188.99	13.203360	-57.050745	189.17	-0.860	0.320	2.050	189.01	-1.20	2.60	 	 	 	 	 	 	 	 	 	 	 	 	 	 	 	 	 	 	1581484966	7.03	13.02
12/02/2020 05:22:47	120220	12022020	052247	188.83	13.203323	-57.050755	188.92	-0.530	-0.730	2.610	188.74	-2.30	3.20	 	 	 	 	 	 	 	 	 	 	 	 	 	 	 	 	 	 	1581484967	8.17	15.13
12/02/2020 05:22:48	120220	12022020	052248	188.24	13.203283	-57.050768	188.33	-0.050	-1.270	3.150	188.14	-2.70	3.70	 	 	 	 	 	 	 	 	 	 	 	 	 	 	 	 	 	 	1581484968	9.08	16.82
12/02/2020 05:22:49	120220	12022020	052249	187.87	13.203245	-57.050780	188.04	0.030	-0.630	3.110	187.86	-1.90	3.50	 	 	 	 	 	 	 	 	 	 	 	 	 	 	 	 	 	 	1581484969	8.87	16.43
12/02/2020 05:22:50	120220	12022020	052250	188.06	13.203210	-57.050790	188.29	-0.230	0.500	2.480	188.15	-0.80	2.90	 	 	 	 	 	 	 	 	 	 	 	 	 	 	 	 	 	 	1581484970	7.58	14.04
12/02/2020 05:22:51	120220	12022020	052251	188.65	13.203180	-57.050797	188.90	-0.270	1.070	1.390	188.79	-0.30	1.70	 	 	 	 	 	 	 	 	 	 	 	 	 	 	 	 	 	 	1581484971	6.75	12.50
12/02/2020 05:22:52	120220	12022020	052252	189.27	13.203147	-57.050800	189.45	0.200	0.630	0.370	189.36	-0.90	0.80	 	 	 	 	 	 	 	 	 	 	 	 	 	 	 	 	 	 	1581484972	7.05	13.06
12/02/2020 05:22:53	120220	12022020	052253	189.49	13.203110	-57.050802	189.55	0.810	-0.470	0.140	189.45	-2.00	0.70	 	 	 	 	 	 	 	 	 	 	 	 	 	 	 	 	 	 	1581484973	8.02	14.85
12/02/2020 05:22:54	120220	12022020	052254	189.17	13.203070	-57.050805	189.21	0.950	-1.320	0.650	189.09	-2.80	1.20	 	 	 	 	 	 	 	 	 	 	 	 	 	 	 	 	 	 	1581484974	8.72	16.15
12/02/2020 05:22:55	120220	12022020	052255	188.85	13.203030	-57.050812	188.95	0.380	-1.190	1.550	188.81	-2.50	2.20	 	 	 	 	 	 	 	 	 	 	 	 	 	 	 	 	 	 	1581484975	8.59	15.91
12/02/2020 05:22:56	120220	12022020	052256	188.68	13.202995	-57.050823	188.81	-0.420	-0.540	2.610	188.65	-1.90	3.20	 	 	 	 	 	 	 	 	 	 	 	 	 	 	 	 	 	 	1581484976	7.73	14.32
12/02/2020 05:22:57	120220	12022020	052257	188.52	13.202963	-57.050837	188.66	-0.790	-0.150	3.390	188.49	-1.50	3.90	 	 	 	 	 	 	 	 	 	 	 	 	 	 	 	 	 	 	1581484977	7.43	13.76
12/02/2020 05:22:58	120220	12022020	052258	188.37	13.202930	-57.050852	188.53	-0.550	-0.170	3.680	188.35	-1.60	4.20	 	 	 	 	 	 	 	 	 	 	 	 	 	 	 	 	 	 	1581484978	7.84	14.52
12/02/2020 05:22:59	120220	12022020	052259	188.27	13.202895	-57.050865	188.45	-0.120	-0.220	3.540	188.26	-1.60	4.00	 	 	 	 	 	 	 	 	 	 	 	 	 	 	 	 	 	 	1581484979	8.33	15.43
12/02/2020 05:23:00	120220	12022020	052300	188.30	13.202857	-57.050875	188.49	0.070	-0.040	2.850	188.33	-1.40	3.20	 	 	 	 	 	 	 	 	 	 	 	 	 	 	 	 	 	 	1581484980	8.35	15.46
12/02/2020 05:23:01	120220	12022020	052301	188.58	13.202820	-57.050882	188.79	-0.070	0.350	1.970	188.65	-1.00	2.40	1015.80	26.10	26.10	21.30	21.30	-1.0	75.0	74.0	399.0	25.6	260.00	10.70	68.00	12.10	16	8309.0	27.2	27.2	1581484981	8.00	14.82
12/02/2020 05:23:02	120220	12022020	052302	188.93	13.202785	-57.050887	189.13	-0.190	0.560	1.340	188.99	-0.90	1.80	 	 	 	 	 	 	 	 	 	 	 	 	 	 	 	 	 	 	1581484982	7.53	13.95
12/02/2020 05:23:03	120220	12022020	052303	189.10	13.202752	-57.050892	189.23	-0.000	0.280	1.070	189.09	-1.20	1.60	 	 	 	 	 	 	 	 	 	 	 	 	 	 	 	 	 	 	1581484983	7.44	13.78
12/02/2020 05:23:04	120220	12022020	052304	188.93	13.202715	-57.050897	189.02	0.470	-0.390	1.140	188.86	-1.90	1.70	 	 	 	 	 	 	 	 	 	 	 	 	 	 	 	 	 	 	1581484984	7.80	14.45
12/02/2020 05:23:05	120220	12022020	052305	188.64	13.202677	-57.050903	188.75	0.830	-0.980	1.430	188.60	-2.40	2.00	 	 	 	 	 	 	 	 	 	 	 	 	 	 	 	 	 	 	1581484985	8.28	15.33
12/02/2020 05:23:06	120220	12022020	052306	188.59	13.202638	-57.050910	188.75	0.710	-0.960	1.600	188.62	-2.30	2.10	 	 	 	 	 	 	 	 	 	 	 	 	 	 	 	 	 	 	1581484986	8.35	15.46
12/02/2020 05:23:07	120220	12022020	052307	188.84	13.202603	-57.050917	189.04	0.090	-0.490	1.670	188.91	-1.80	2.20	 	 	 	 	 	 	 	 	 	 	 	 	 	 	 	 	 	 	1581484987	7.83	14.50
12/02/2020 05:23:08	120220	12022020	052308	189.14	13.202570	-57.050925	189.31	-0.570	-0.220	1.960	189.16	-1.60	2.50	 	 	 	 	 	 	 	 	 	 	 	 	 	 	 	 	 	 	1581484988	7.33	13.58
12/02/2020 05:23:09	120220	12022020	052309	189.08	13.202537	-57.050935	189.19	-0.830	-0.540	2.600	189.02	-2.00	3.20	 	 	 	 	 	 	 	 	 	 	 	 	 	 	 	 	 	 	1581484989	7.56	14.00
12/02/2020 05:23:10	120220	12022020	052310	188.69	13.202498	-57.050948	188.77	-0.660	-0.880	3.330	188.59	-2.30	3.90	 	 	 	 	 	 	 	 	 	 	 	 	 	 	 	 	 	 	1581484990	8.47	15.69
12/02/2020 05:23:11	120220	12022020	052311	188.18	13.202460	-57.050963	188.29	-0.360	-0.590	3.850	188.09	-1.90	4.40	 	 	 	 	 	 	 	 	 	 	 	 	 	 	 	 	 	 	1581484991	8.86	16.41
12/02/2020 05:23:12	120220	12022020	052312	187.82	13.202423	-57.050977	187.97	-0.110	0.220	3.780	187.79	-1.00	4.20	 	 	 	 	 	 	 	 	 	 	 	 	 	 	 	 	 	 	1581484992	8.33	15.43
12/02/2020 05:23:13	120220	12022020	052313	187.72	13.202390	-57.050987	187.90	0.140	0.840	2.960	187.74	-0.50	3.30	 	 	 	 	 	 	 	 	 	 	 	 	 	 	 	 	 	 	1581484993	7.56	14.00
12/02/2020 05:23:14	120220	12022020	052314	187.85	13.202355	-57.050990	188.02	0.420	0.830	1.900	187.88	-0.60	2.30	 	 	 	 	 	 	 	 	 	 	 	 	 	 	 	 	 	 	1581484994	7.50	13.89
12/02/2020 05:23:15	120220	12022020	052315	187.99	13.202318	-57.050990	188.16	0.560	0.310	1.260	188.02	-1.10	1.70	 	 	 	 	 	 	 	 	 	 	 	 	 	 	 	 	 	 	1581484995	7.99	14.80
12/02/2020 05:23:16	120220	12022020	052316	188.07	13.202280	-57.050992	188.22	0.460	-0.270	1.230	188.07	-1.70	1.80	 	 	 	 	 	 	 	 	 	 	 	 	 	 	 	 	 	 	1581484996	8.27	15.32
12/02/2020 05:23:17	120220	12022020	052317	188.05	13.202242	-57.050998	188.20	0.260	-0.650	1.560	188.04	-2.00	2.10	 	 	 	 	 	 	 	 	 	 	 	 	 	 	 	 	 	 	1581484997	8.14	15.08
12/02/2020 05:23:18	120220	12022020	052318	188.00	13.202207	-57.051008	188.16	0.160	-0.810	1.890	188.00	-2.20	2.40	 	 	 	 	 	 	 	 	 	 	 	 	 	 	 	 	 	 	1581484998	7.93	14.69
12/02/2020 05:23:19	120220	12022020	052319	188.14	13.202172	-57.051018	188.37	0.100	-0.740	1.950	188.20	-2.10	2.40	 	 	 	 	 	 	 	 	 	 	 	 	 	 	 	 	 	 	1581484999	7.77	14.39
12/02/2020 05:23:20	120220	12022020	052320	188.48	13.202137	-57.051025	188.69	-0.070	-0.630	1.830	188.53	-2.00	2.30	 	 	 	 	 	 	 	 	 	 	 	 	 	 	 	 	 	 	1581485000	7.59	14.06
12/02/2020 05:23:21	120220	12022020	052321	188.62	13.202103	-57.051032	188.77	-0.310	-0.870	1.890	188.60	-2.30	2.40	 	 	 	 	 	 	 	 	 	 	 	 	 	 	 	 	 	 	1581485001	7.59	14.06
12/02/2020 05:23:22	120220	12022020	052322	188.35	13.202065	-57.051040	188.43	-0.430	-1.290	2.300	188.25	-2.70	2.90	 	 	 	 	 	 	 	 	 	 	 	 	 	 	 	 	 	 	1581485002	8.14	15.08
12/02/2020 05:23:23	120220	12022020	052323	187.82	13.202027	-57.051052	187.89	-0.350	-1.180	2.880	187.70	-2.50	3.40	 	 	 	 	 	 	 	 	 	 	 	 	 	 	 	 	 	 	1581485003	8.74	16.19
12/02/2020 05:23:24	120220	12022020	052324	187.27	13.201988	-57.051062	187.38	-0.250	-0.220	3.220	187.20	-1.40	3.70	 	 	 	 	 	 	 	 	 	 	 	 	 	 	 	 	 	 	1581485004	8.58	15.89
12/02/2020 05:23:25	120220	12022020	052325	187.03	13.201953	-57.051070	187.19	-0.220	0.950	2.880	187.03	-0.30	3.30	 	 	 	 	 	 	 	 	 	 	 	 	 	 	 	 	 	 	1581485005	7.81	14.46
12/02/2020 05:23:26	120220	12022020	052326	187.19	13.201918	-57.051077	187.40	-0.240	1.500	2.230	187.27	0.10	2.60	 	 	 	 	 	 	 	 	 	 	 	 	 	 	 	 	 	 	1581485006	7.39	13.69
12/02/2020 05:23:27	120220	12022020	052327	187.64	13.201883	-57.051080	187.86	-0.140	1.170	1.580	187.74	-0.30	2.00	 	 	 	 	 	 	 	 	 	 	 	 	 	 	 	 	 	 	1581485007	7.67	14.20
12/02/2020 05:23:28	120220	12022020	052328	188.07	13.201845	-57.051085	188.26	0.110	0.350	1.190	188.15	-1.10	1.70	 	 	 	 	 	 	 	 	 	 	 	 	 	 	 	 	 	 	1581485008	8.22	15.22
12/02/2020 05:23:29	120220	12022020	052329	188.37	13.201807	-57.051090	188.52	0.380	-0.550	1.240	188.41	-2.00	1.80	 	 	 	 	 	 	 	 	 	 	 	 	 	 	 	 	 	 	1581485009	8.46	15.67
12/02/2020 05:23:30	120220	12022020	052330	188.41	13.201768	-57.051097	188.52	0.500	-1.230	1.670	188.38	-2.70	2.20	 	 	 	 	 	 	 	 	 	 	 	 	 	 	 	 	 	 	1581485010	8.37	15.50
12/02/2020 05:23:31	120220	12022020	052331	188.20	13.201732	-57.051105	188.30	0.400	-1.400	2.220	188.14	-2.80	2.80	 	 	 	 	 	 	 	 	 	 	 	 	 	 	 	 	 	 	1581485011	8.17	15.13
12/02/2020 05:23:32	120220	12022020	052332	187.94	13.201695	-57.051115	188.05	0.130	-1.040	2.600	187.89	-2.40	3.10	 	 	 	 	 	 	 	 	 	 	 	 	 	 	 	 	 	 	1581485012	7.86	14.56
12/02/2020 05:23:33	120220	12022020	052333	187.74	13.201662	-57.051125	187.87	-0.110	-0.450	2.670	187.72	-1.80	3.10	 	 	 	 	 	 	 	 	 	 	 	 	 	 	 	 	 	 	1581485013	7.52	13.93
12/02/2020 05:23:34	120220	12022020	052334	187.74	13.201628	-57.051133	187.91	-0.280	0.050	2.510	187.77	-1.30	2.90	 	 	 	 	 	 	 	 	 	 	 	 	 	 	 	 	 	 	1581485014	7.46	13.82
12/02/2020 05:23:35	120220	12022020	052335	188.02	13.201593	-57.051140	188.23	-0.360	0.240	2.120	188.10	-1.20	2.50	 	 	 	 	 	 	 	 	 	 	 	 	 	 	 	 	 	 	1581485015	7.62	14.11
12/02/2020 05:23:36	120220	12022020	052336	188.39	13.201558	-57.051148	188.57	-0.250	0.060	1.600	188.44	-1.40	2.00	 	 	 	 	 	 	 	 	 	 	 	 	 	 	 	 	 	 	1581485016	7.90	14.63
12/02/2020 05:23:37	120220	12022020	052337	188.54	13.201520	-57.051153	188.66	0.160	-0.370	1.150	188.53	-1.80	1.60	 	 	 	 	 	 	 	 	 	 	 	 	 	 	 	 	 	 	1581485017	8.21	15.20
12/02/2020 05:23:38	120220	12022020	052338	188.41	13.201480	-57.051158	188.48	0.640	-0.820	1.000	188.35	-2.20	1.50	 	 	 	 	 	 	 	 	 	 	 	 	 	 	 	 	 	 	1581485018	8.53	15.80
12/02/2020 05:23:39	120220	12022020	052339	188.07	13.201440	-57.051162	188.16	0.660	-0.800	1.310	188.00	-2.10	1.90	 	 	 	 	 	 	 	 	 	 	 	 	 	 	 	 	 	 	1581485019	8.69	16.09
12/02/2020 05:23:40	120220	12022020	052340	187.82	13.201402	-57.051165	187.97	-0.090	-0.120	1.860	187.81	-1.40	2.40	 	 	 	 	 	 	 	 	 	 	 	 	 	 	 	 	 	 	1581485020	8.34	15.45
12/02/2020 05:23:41	120220	12022020	052341	187.88	13.201367	-57.051172	188.08	-1.120	0.610	2.450	187.93	-0.70	3.00	 	 	 	 	 	 	 	 	 	 	 	 	 	 	 	 	 	 	1581485021	7.60	14.08
12/02/2020 05:23:42	120220	12022020	052342	188.28	13.201335	-57.051187	188.54	-1.580	0.750	2.700	188.40	-0.70	3.20	 	 	 	 	 	 	 	 	 	 	 	 	 	 	 	 	 	 	1581485022	7.63	14.13
12/02/2020 05:23:43	120220	12022020	052343	188.88	13.201300	-57.051205	189.12	-0.950	0.330	2.190	188.99	-1.10	2.60	 	 	 	 	 	 	 	 	 	 	 	 	 	 	 	 	 	 	1581485023	8.29	15.35
12/02/2020 05:23:44	120220	12022020	052344	189.32	13.201263	-57.051218	189.48	0.310	-0.250	1.420	189.36	-1.70	1.80	 	 	 	 	 	 	 	 	 	 	 	 	 	 	 	 	 	 	1581485024	8.48	15.70
12/02/2020 05:23:45	120220	12022020	052345	189.38	13.201225	-57.051225	189.47	1.250	-0.610	0.820	189.34	-2.00	1.30	 	 	 	 	 	 	 	 	 	 	 	 	 	 	 	 	 	 	1581485025	8.44	15.63
12/02/2020 05:23:46	120220	12022020	052346	189.09	13.201187	-57.051228	189.13	1.310	-0.670	0.470	189.02	-2.00	0.90	 	 	 	 	 	 	 	 	 	 	 	 	 	 	 	 	 	 	1581485026	8.21	15.20
12/02/2020 05:23:47	120220	12022020	052347	188.81	13.201150	-57.051228	188.91	0.600	-0.430	0.580	188.79	-1.80	1.10	 	 	 	 	 	 	 	 	 	 	 	 	 	 	 	 	 	 	1581485027	7.93	14.69
12/02/2020 05:23:48	120220	12022020	052348	188.82	13.201115	-57.051233	188.97	-0.280	-0.140	1.080	188.85	-1.50	1.60	 	 	 	 	 	 	 	 	 	 	 	 	 	 	 	 	 	 	1581485028	7.56	14.00
12/02/2020 05:23:49	120220	12022020	052349	188.97	13.201082	-57.051243	189.11	-0.710	-0.240	1.730	188.98	-1.70	2.30	 	 	 	 	 	 	 	 	 	 	 	 	 	 	 	 	 	 	1581485029	7.52	13.93
12/02/2020 05:23:50	120220	12022020	052350	188.86	13.201045	-57.051258	188.94	-0.480	-0.850	2.490	188.80	-2.30	3.00	 	 	 	 	 	 	 	 	 	 	 	 	 	 	 	 	 	 	1581485030	8.09	14.98
12/02/2020 05:23:51	120220	12022020	052351	188.50	13.201007	-57.051273	188.62	0.090	-1.240	3.070	188.45	-2.60	3.60	 	 	 	 	 	 	 	 	 	 	 	 	 	 	 	 	 	 	1581485031	8.93	16.54
12/02/2020 05:23:52	120220	12022020	052352	188.35	13.200967	-57.051287	188.53	0.410	-0.690	3.090	188.37	-1.90	3.50	 	 	 	 	 	 	 	 	 	 	 	 	 	 	 	 	 	 	1581485032	9.03	16.72
12/02/2020 05:23:53	120220	12022020	052353	188.58	13.200932	-57.051295	188.81	0.180	0.540	2.550	188.65	-0.70	2.90	 	 	 	 	 	 	 	 	 	 	 	 	 	 	 	 	 	 	1581485033	8.00	14.82
12/02/2020 05:23:54	120220	12022020	052354	188.94	13.200898	-57.051298	189.14	-0.260	1.260	1.870	188.99	-0.10	2.30	 	 	 	 	 	 	 	 	 	 	 	 	 	 	 	 	 	 	1581485034	6.98	12.93
12/02/2020 05:23:55	120220	12022020	052355	189.03	13.200865	-57.051302	189.16	-0.410	0.710	1.560	188.99	-0.80	2.10	 	 	 	 	 	 	 	 	 	 	 	 	 	 	 	 	 	 	1581485035	7.12	13.19
12/02/2020 05:23:56	120220	12022020	052356	188.67	13.200828	-57.051307	188.75	-0.220	-0.610	1.950	188.55	-2.10	2.50	 	 	 	 	 	 	 	 	 	 	 	 	 	 	 	 	 	 	1581485036	8.28	15.33
12/02/2020 05:23:57	120220	12022020	052357	188.05	13.200785	-57.051317	188.13	-0.010	-1.400	2.670	187.94	-2.80	3.20	 	 	 	 	 	 	 	 	 	 	 	 	 	 	 	 	 	 	1581485037	9.24	17.11
12/02/2020 05:23:58	120220	12022020	052358	187.61	13.200747	-57.051330	187.76	0.020	-1.010	2.950	187.57	-2.30	3.40	 	 	 	 	 	 	 	 	 	 	 	 	 	 	 	 	 	 	1581485038	9.01	16.69
12/02/2020 05:23:59	120220	12022020	052359	187.59	13.200712	-57.051342	187.78	-0.030	-0.010	2.630	187.62	-1.30	3.00	 	 	 	 	 	 	 	 	 	 	 	 	 	 	 	 	 	 	1581485039	7.84	14.52
12/02/2020 05:24:00	120220	12022020	052400	187.80	13.200680	-57.051350	187.99	0.140	0.530	2.020	187.84	-0.90	2.40	 	 	 	 	 	 	 	 	 	 	 	 	 	 	 	 	 	 	1581485040	7.00	12.96
12/02/2020 05:24:01	120220	12022020	052401	187.97	13.200647	-57.051355	188.15	0.520	0.190	1.450	188.01	-1.30	1.90	1015.90	25.90	26.00	21.00	21.10	-1.0	74.0	74.0	400.0	25.6	260.00	10.80	69.00	12.20	16	9717.0	27.2	27.2	1581485041	7.32	13.56
12/02/2020 05:24:02	120220	12022020	052402	188.26	13.200608	-57.051358	188.47	0.710	-0.360	1.060	188.32	-1.80	1.50	 	 	 	 	 	 	 	 	 	 	 	 	 	 	 	 	 	 	1581485042	8.28	15.33
12/02/2020 05:24:03	120220	12022020	052403	188.57	13.200568	-57.051362	188.76	0.490	-0.590	1.030	188.61	-2.00	1.50	 	 	 	 	 	 	 	 	 	 	 	 	 	 	 	 	 	 	1581485043	8.52	15.78
12/02/2020 05:24:04	120220	12022020	052404	188.60	13.200532	-57.051367	188.72	0.090	-0.650	1.450	188.55	-2.10	2.00	 	 	 	 	 	 	 	 	 	 	 	 	 	 	 	 	 	 	1581485044	8.05	14.91
12/02/2020 05:24:05	120220	12022020	052405	188.27	13.200495	-57.051373	188.38	-0.210	-0.790	2.300	188.20	-2.20	2.90	 	 	 	 	 	 	 	 	 	 	 	 	 	 	 	 	 	 	1581485045	7.87	14.58
12/02/2020 05:24:06	120220	12022020	052406	187.97	13.200458	-57.051385	188.11	-0.430	-0.720	3.030	187.92	-2.10	3.60	 	 	 	 	 	 	 	 	 	 	 	 	 	 	 	 	 	 	1581485046	8.24	15.26
12/02/2020 05:24:07	120220	12022020	052407	187.69	13.200422	-57.051398	187.82	-0.570	-0.350	3.460	187.63	-1.70	4.00	 	 	 	 	 	 	 	 	 	 	 	 	 	 	 	 	 	 	1581485047	8.31	15.39
12/02/2020 05:24:08	120220	12022020	052408	187.44	13.200387	-57.051412	187.60	-0.540	0.110	3.500	187.42	-1.20	3.90	 	 	 	 	 	 	 	 	 	 	 	 	 	 	 	 	 	 	1581485048	8.12	15.04
12/02/2020 05:24:09	120220	12022020	052409	187.44	13.200352	-57.051423	187.64	-0.280	0.480	2.990	187.48	-0.90	3.40	 	 	 	 	 	 	 	 	 	 	 	 	 	 	 	 	 	 	1581485049	7.98	14.78
12/02/2020 05:24:10	120220	12022020	052410	187.75	13.200315	-57.051430	187.98	0.130	0.670	1.930	187.85	-0.70	2.30	 	 	 	 	 	 	 	 	 	 	 	 	 	 	 	 	 	 	1581485050	7.87	14.58
12/02/2020 05:24:11	120220	12022020	052411	188.25	13.200278	-57.051432	188.47	0.460	0.500	0.860	188.36	-1.00	1.30	 	 	 	 	 	 	 	 	 	 	 	 	 	 	 	 	 	 	1581485051	7.84	14.52
12/02/2020 05:24:12	120220	12022020	052412	188.70	13.200242	-57.051432	188.86	0.550	-0.260	0.420	188.75	-1.80	0.90	 	 	 	 	 	 	 	 	 	 	 	 	 	 	 	 	 	 	1581485052	7.98	14.78
12/02/2020 05:24:13	120220	12022020	052413	188.80	13.200203	-57.051433	188.88	0.450	-1.210	0.640	188.76	-2.70	1.20	 	 	 	 	 	 	 	 	 	 	 	 	 	 	 	 	 	 	1581485053	8.36	15.48
12/02/2020 05:24:14	120220	12022020	052414	188.47	13.200163	-57.051440	188.52	0.250	-1.630	1.370	188.38	-3.00	2.00	 	 	 	 	 	 	 	 	 	 	 	 	 	 	 	 	 	 	1581485054	8.61	15.95
12/02/2020 05:24:15	120220	12022020	052415	187.99	13.200127	-57.051450	188.07	0.060	-1.320	2.190	187.92	-2.60	2.70	 	 	 	 	 	 	 	 	 	 	 	 	 	 	 	 	 	 	1581485055	8.37	15.50
12/02/2020 05:24:16	120220	12022020	052416	187.63	13.200090	-57.051462	187.73	-0.080	-0.580	2.680	187.58	-1.90	3.20	 	 	 	 	 	 	 	 	 	 	 	 	 	 	 	 	 	 	1581485056	7.95	14.72
12/02/2020 05:24:17	120220	12022020	052417	187.48	13.200055	-57.051470	187.64	-0.280	0.240	2.820	187.49	-1.10	3.30	 	 	 	 	 	 	 	 	 	 	 	 	 	 	 	 	 	 	1581485057	7.74	14.33
12/02/2020 05:24:18	120220	12022020	052418	187.66	13.200020	-57.051478	187.87	-0.540	0.880	2.780	187.72	-0.50	3.20	 	 	 	 	 	 	 	 	 	 	 	 	 	 	 	 	 	 	1581485058	7.73	14.32
12/02/2020 05:24:19	120220	12022020	052419	187.99	13.199987	-57.051488	188.21	-0.670	1.140	2.500	188.07	-0.30	2.90	 	 	 	 	 	 	 	 	 	 	 	 	 	 	 	 	 	 	1581485059	7.72	14.30
12/02/2020 05:24:20	120220	12022020	052420	188.31	13.199952	-57.051498	188.50	-0.410	0.800	2.130	188.36	-0.70	2.60	 	 	 	 	 	 	 	 	 	 	 	 	 	 	 	 	 	 	1581485060	7.80	14.45
12/02/2020 05:24:21	120220	12022020	052421	188.52	13.199913	-57.051505	188.69	0.160	-0.080	1.790	188.55	-1.60	2.20	 	 	 	 	 	 	 	 	 	 	 	 	 	 	 	 	 	 	1581485061	8.09	14.98
12/02/2020 05:24:22	120220	12022020	052422	188.59	13.199875	-57.051512	188.72	0.710	-0.970	1.380	188.59	-2.50	1.80	 	 	 	 	 	 	 	 	 	 	 	 	 	 	 	 	 	 	1581485062	8.52	15.78
12/02/2020 05:24:23	120220	12022020	052423	188.57	13.199835	-57.051515	188.69	0.870	-1.390	1.080	188.58	-2.80	1.50	 	 	 	 	 	 	 	 	 	 	 	 	 	 	 	 	 	 	1581485063	8.61	15.95
12/02/2020 05:24:24	120220	12022020	052424	188.65	13.199797	-57.051520	188.79	0.530	-1.120	1.060	188.68	-2.40	1.50	 	 	 	 	 	 	 	 	 	 	 	 	 	 	 	 	 	 	1581485064	8.23	15.24
12/02/2020 05:24:25	120220	12022020	052425	188.80	13.199762	-57.051525	188.92	0.010	-0.420	1.210	188.81	-1.70	1.70	 	 	 	 	 	 	 	 	 	 	 	 	 	 	 	 	 	 	1581485065	7.59	14.06
12/02/2020 05:24:26	120220	12022020	052426	188.82	13.199730	-57.051532	188.92	-0.350	-0.010	1.520	188.80	-1.40	2.00	 	 	 	 	 	 	 	 	 	 	 	 	 	 	 	 	 	 	1581485066	7.20	13.33
12/02/2020 05:24:27	120220	12022020	052427	188.69	13.199695	-57.051540	188.79	-0.380	-0.320	1.870	188.66	-1.80	2.40	 	 	 	 	 	 	 	 	 	 	 	 	 	 	 	 	 	 	1581485067	7.59	14.06
12/02/2020 05:24:28	120220	12022020	052428	188.54	13.199657	-57.051550	188.65	-0.250	-0.790	2.350	188.51	-2.20	2.90	 	 	 	 	 	 	 	 	 	 	 	 	 	 	 	 	 	 	1581485068	8.60	15.93
12/02/2020 05:24:29	120220	12022020	052429	188.38	13.199615	-57.051560	188.50	-0.230	-0.740	2.920	188.34	-2.10	3.40	 	 	 	 	 	 	 	 	 	 	 	 	 	 	 	 	 	 	1581485069	9.01	16.69
12/02/2020 05:24:30	120220	12022020	052430	188.21	13.199577	-57.051572	188.35	-0.410	-0.080	3.250	188.19	-1.40	3.70	 	 	 	 	 	 	 	 	 	 	 	 	 	 	 	 	 	 	1581485070	8.60	15.93
12/02/2020 05:24:31	120220	12022020	052431	188.21	13.199542	-57.051582	188.39	-0.580	0.770	3.100	188.24	-0.50	3.50	 	 	 	 	 	 	 	 	 	 	 	 	 	 	 	 	 	 	1581485071	7.94	14.70
12/02/2020 05:24:32	120220	12022020	052432	188.38	13.199508	-57.051590	188.55	-0.510	1.210	2.680	188.43	-0.20	3.00	 	 	 	 	 	 	 	 	 	 	 	 	 	 	 	 	 	 	1581485072	7.50	13.89
12/02/2020 05:24:33	120220	12022020	052433	188.69	13.199473	-57.051598	188.88	-0.100	1.080	1.880	188.76	-0.40	2.20	 	 	 	 	 	 	 	 	 	 	 	 	 	 	 	 	 	 	1581485073	7.61	14.09
12/02/2020 05:24:34	120220	12022020	052434	188.95	13.199437	-57.051603	189.08	0.430	0.410	1.060	188.96	-1.10	1.50	 	 	 	 	 	 	 	 	 	 	 	 	 	 	 	 	 	 	1581485074	7.88	14.59
12/02/2020 05:24:35	120220	12022020	052435	188.82	13.199398	-57.051607	188.88	0.860	-0.690	0.880	188.75	-2.20	1.40	 	 	 	 	 	 	 	 	 	 	 	 	 	 	 	 	 	 	1581485075	8.17	15.13
12/02/2020 05:24:36	120220	12022020	052436	188.46	13.199360	-57.051612	188.51	1.050	-1.600	1.100	188.39	-3.10	1.60	 	 	 	 	 	 	 	 	 	 	 	 	 	 	 	 	 	 	1581485076	8.54	15.82
12/02/2020 05:24:37	120220	12022020	052437	188.24	13.199320	-57.051617	188.36	0.840	-1.740	1.390	188.23	-3.10	1.90	 	 	 	 	 	 	 	 	 	 	 	 	 	 	 	 	 	 	1581485077	8.54	15.82
12/02/2020 05:24:38	120220	12022020	052438	188.24	13.199283	-57.051623	188.38	0.310	-1.270	1.960	188.25	-2.60	2.50	 	 	 	 	 	 	 	 	 	 	 	 	 	 	 	 	 	 	1581485078	8.01	14.83
12/02/2020 05:24:39	120220	12022020	052439	188.24	13.199250	-57.051633	188.37	-0.220	-0.630	2.520	188.23	-1.90	3.00	 	 	 	 	 	 	 	 	 	 	 	 	 	 	 	 	 	 	1581485079	7.61	14.09
12/02/2020 05:24:40	120220	12022020	052440	188.25	13.199215	-57.051645	188.43	-0.600	-0.000	2.800	188.27	-1.30	3.30	 	 	 	 	 	 	 	 	 	 	 	 	 	 	 	 	 	 	1581485080	7.65	14.17
12/02/2020 05:24:41	120220	12022020	052441	188.41	13.199180	-57.051655	188.60	-0.860	0.360	2.910	188.44	-1.00	3.40	 	 	 	 	 	 	 	 	 	 	 	 	 	 	 	 	 	 	1581485081	7.78	14.41
12/02/2020 05:24:42	120220	12022020	052442	188.47	13.199145	-57.051663	188.60	-0.970	0.110	3.070	188.43	-1.40	3.50	 	 	 	 	 	 	 	 	 	 	 	 	 	 	 	 	 	 	1581485082	8.01	14.83
12/02/2020 05:24:43	120220	12022020	052443	188.13	13.199107	-57.051675	188.21	-0.770	-0.390	3.330	188.03	-1.80	3.80	 	 	 	 	 	 	 	 	 	 	 	 	 	 	 	 	 	 	1581485083	8.65	16.02
12/02/2020 05:24:44	120220	12022020	052444	187.81	13.199065	-57.051687	187.97	-0.310	-0.240	3.070	187.82	-1.50	3.40	 	 	 	 	 	 	 	 	 	 	 	 	 	 	 	 	 	 	1581485084	9.12	16.89
12/02/2020 05:24:45	120220	12022020	052445	188.08	13.199027	-57.051695	188.29	0.190	0.620	2.010	188.19	-0.70	2.30	 	 	 	 	 	 	 	 	 	 	 	 	 	 	 	 	 	 	1581485085	8.44	15.63
12/02/2020 05:24:46	120220	12022020	052446	188.67	13.198993	-57.051698	188.87	0.540	1.060	0.850	188.78	-0.40	1.20	 	 	 	 	 	 	 	 	 	 	 	 	 	 	 	 	 	 	1581485086	7.34	13.59
12/02/2020 05:24:47	120220	12022020	052447	189.06	13.198958	-57.051697	189.18	0.780	0.470	0.380	189.10	-1.10	0.80	 	 	 	 	 	 	 	 	 	 	 	 	 	 	 	 	 	 	1581485087	7.40	13.70
12/02/2020 05:24:48	120220	12022020	052448	189.09	13.198920	-57.051700	189.16	0.840	-0.610	0.690	189.05	-2.10	1.20	 	 	 	 	 	 	 	 	 	 	 	 	 	 	 	 	 	 	1581485088	8.22	15.22
12/02/2020 05:24:49	120220	12022020	052449	188.77	13.198880	-57.051707	188.80	0.640	-1.310	1.620	188.67	-2.70	2.20	 	 	 	 	 	 	 	 	 	 	 	 	 	 	 	 	 	 	1581485089	8.64	16.00
12/02/2020 05:24:50	120220	12022020	052450	188.24	13.198843	-57.051717	188.26	0.260	-1.250	2.700	188.11	-2.60	3.30	 	 	 	 	 	 	 	 	 	 	 	 	 	 	 	 	 	 	1581485090	8.37	15.50
12/02/2020 05:24:51	120220	12022020	052451	187.68	13.198808	-57.051730	187.74	-0.110	-0.760	3.360	187.59	-2.10	3.80	 	 	 	 	 	 	 	 	 	 	 	 	 	 	 	 	 	 	1581485091	7.85	14.54
12/02/2020 05:24:52	120220	12022020	052452	187.31	13.198777	-57.051743	187.42	-0.350	-0.390	3.460	187.29	-1.80	3.90	 	 	 	 	 	 	 	 	 	 	 	 	 	 	 	 	 	 	1581485092	7.57	14.02
12/02/2020 05:24:53	120220	12022020	052453	187.33	13.198742	-57.051753	187.51	-0.500	-0.180	3.100	187.38	-1.60	3.50	 	 	 	 	 	 	 	 	 	 	 	 	 	 	 	 	 	 	1581485093	7.82	14.48
12/02/2020 05:24:54	120220	12022020	052454	187.78	13.198705	-57.051762	188.01	-0.580	0.050	2.430	187.91	-1.30	2.80	 	 	 	 	 	 	 	 	 	 	 	 	 	 	 	 	 	 	1581485094	8.06	14.93
12/02/2020 05:24:55	120220	12022020	052455	188.47	13.198668	-57.051770	188.70	-0.510	0.210	1.680	188.61	-1.20	2.00	 	 	 	 	 	 	 	 	 	 	 	 	 	 	 	 	 	 	1581485095	7.95	14.72
12/02/2020 05:24:56	120220	12022020	052456	189.09	13.198632	-57.051775	189.26	-0.190	0.030	1.070	189.17	-1.40	1.50	 	 	 	 	 	 	 	 	 	 	 	 	 	 	 	 	 	 	1581485096	7.85	14.54
12/02/2020 05:24:57	120220	12022020	052457	189.35	13.198595	-57.051780	189.46	0.330	-0.450	0.790	189.36	-1.90	1.20	 	 	 	 	 	 	 	 	 	 	 	 	 	 	 	 	 	 	1581485097	8.14	15.08
12/02/2020 05:24:58	120220	12022020	052458	189.31	13.198555	-57.051785	189.38	0.640	-0.710	0.940	189.28	-2.10	1.40	 	 	 	 	 	 	 	 	 	 	 	 	 	 	 	 	 	 	1581485098	8.52	15.78
12/02/2020 05:24:59	120220	12022020	052459	189.15	13.198517	-57.051790	189.23	0.460	-0.420	1.380	189.11	-1.80	1.90	 	 	 	 	 	 	 	 	 	 	 	 	 	 	 	 	 	 	1581485099	8.37	15.50
12/02/2020 05:25:00	120220	12022020	052500	188.94	13.198482	-57.051797	189.03	-0.070	0.110	1.920	188.89	-1.30	2.40	 	 	 	 	 	 	 	 	 	 	 	 	 	 	 	 	 	 	1581485100	7.74	14.33
12/02/2020 05:25:01	120220	12022020	052501	188.72	13.198448	-57.051805	188.82	-0.520	0.350	2.460	188.66	-1.10	3.00	1015.90	26.00	26.00	21.00	21.10	-1.0	74.0	74.0	401.0	25.6	260.00	11.20	70.00	12.50	16	8867.0	27.2	27.2	1581485101	7.44	13.78
12/02/2020 05:25:02	120220	12022020	052502	188.36	13.198413	-57.051818	188.41	-0.520	0.010	3.050	188.25	-1.50	3.60	 	 	 	 	 	 	 	 	 	 	 	 	 	 	 	 	 	 	1581485102	7.72	14.30
12/02/2020 05:25:03	120220	12022020	052503	187.80	13.198377	-57.051832	187.89	-0.060	-0.620	3.480	187.71	-2.10	3.90	 	 	 	 	 	 	 	 	 	 	 	 	 	 	 	 	 	 	1581485103	8.39	15.54
12/02/2020 05:25:04	120220	12022020	052504	187.54	13.198338	-57.051843	187.74	0.370	-0.690	3.390	187.57	-2.00	3.80	 	 	 	 	 	 	 	 	 	 	 	 	 	 	 	 	 	 	1581485104	8.91	16.50
12/02/2020 05:25:05	120220	12022020	052505	187.94	13.198300	-57.051853	188.22	0.410	0.040	2.710	188.09	-1.20	3.00	 	 	 	 	 	 	 	 	 	 	 	 	 	 	 	 	 	 	1581485105	8.35	15.46
12/02/2020 05:25:06	120220	12022020	052506	188.88	13.198267	-57.051858	189.18	0.090	0.820	1.580	189.10	-0.60	1.90	 	 	 	 	 	 	 	 	 	 	 	 	 	 	 	 	 	 	1581485106	7.19	13.32
12/02/2020 05:25:07	120220	12022020	052507	189.80	13.198235	-57.051860	190.00	-0.180	0.540	0.720	189.92	-1.00	1.10	 	 	 	 	 	 	 	 	 	 	 	 	 	 	 	 	 	 	1581485107	6.70	12.41
12/02/2020 05:25:08	120220	12022020	052508	190.12	13.198202	-57.051863	190.22	-0.100	-0.780	0.740	190.10	-2.40	1.30	 	 	 	 	 	 	 	 	 	 	 	 	 	 	 	 	 	 	1581485108	7.51	13.91
12/02/2020 05:25:09	120220	12022020	052509	189.77	13.198162	-57.051872	189.79	0.170	-1.940	1.480	189.64	-3.40	2.00	 	 	 	 	 	 	 	 	 	 	 	 	 	 	 	 	 	 	1581485109	8.71	16.13
12/02/2020 05:25:10	120220	12022020	052510	189.08	13.198122	-57.051883	189.11	0.370	-1.940	2.250	188.95	-3.20	2.80	 	 	 	 	 	 	 	 	 	 	 	 	 	 	 	 	 	 	1581485110	8.99	16.65
12/02/2020 05:25:11	120220	12022020	052511	188.60	13.198085	-57.051895	188.69	0.310	-0.800	2.530	188.55	-2.00	3.00	 	 	 	 	 	 	 	 	 	 	 	 	 	 	 	 	 	 	1581485111	8.20	15.19
12/02/2020 05:25:12	120220	12022020	052512	188.42	13.198053	-57.051903	188.54	0.090	0.400	2.530	188.39	-0.90	3.00	 	 	 	 	 	 	 	 	 	 	 	 	 	 	 	 	 	 	1581485112	7.17	13.28
12/02/2020 05:25:13	120220	12022020	052513	188.27	13.198020	-57.051910	188.39	-0.200	0.840	2.530	188.25	-0.60	3.00	 	 	 	 	 	 	 	 	 	 	 	 	 	 	 	 	 	 	1581485113	7.09	13.13
12/02/2020 05:25:14	120220	12022020	052514	188.25	13.197985	-57.051917	188.41	-0.560	0.720	2.560	188.27	-0.70	3.00	 	 	 	 	 	 	 	 	 	 	 	 	 	 	 	 	 	 	1581485114	7.86	14.56
12/02/2020 05:25:15	120220	12022020	052515	188.38	13.197947	-57.051925	188.56	-0.770	0.490	2.650	188.42	-0.90	3.10	 	 	 	 	 	 	 	 	 	 	 	 	 	 	 	 	 	 	1581485115	8.35	15.46
12/02/2020 05:25:16	120220	12022020	052516	188.60	13.197910	-57.051937	188.78	-0.540	0.310	2.510	188.65	-1.10	2.90	 	 	 	 	 	 	 	 	 	 	 	 	 	 	 	 	 	 	1581485116	8.30	15.37
12/02/2020 05:25:17	120220	12022020	052517	188.83	13.197875	-57.051948	188.96	0.130	-0.050	2.010	188.86	-1.50	2.40	 	 	 	 	 	 	 	 	 	 	 	 	 	 	 	 	 	 	1581485117	7.98	14.78
12/02/2020 05:25:18	120220	12022020	052518	188.91	13.197838	-57.051955	189.02	0.760	-0.650	1.570	188.91	-2.10	2.00	 	 	 	 	 	 	 	 	 	 	 	 	 	 	 	 	 	 	1581485118	7.93	14.69
12/02/2020 05:25:19	120220	12022020	052519	188.85	13.197800	-57.051958	188.92	0.840	-1.150	1.580	188.82	-2.60	2.10	 	 	 	 	 	 	 	 	 	 	 	 	 	 	 	 	 	 	1581485119	8.17	15.13
12/02/2020 05:25:20	120220	12022020	052520	188.67	13.197763	-57.051965	188.75	0.390	-1.190	1.830	188.64	-2.60	2.30	 	 	 	 	 	 	 	 	 	 	 	 	 	 	 	 	 	 	1581485120	8.11	15.02
12/02/2020 05:25:21	120220	12022020	052521	188.47	13.197727	-57.051973	188.54	-0.160	-0.860	2.050	188.42	-2.20	2.50	 	 	 	 	 	 	 	 	 	 	 	 	 	 	 	 	 	 	1581485121	7.78	14.41
12/02/2020 05:25:22	120220	12022020	052522	188.25	13.197693	-57.051982	188.34	-0.440	-0.480	2.250	188.22	-1.80	2.70	 	 	 	 	 	 	 	 	 	 	 	 	 	 	 	 	 	 	1581485122	7.58	14.04
12/02/2020 05:25:23	120220	12022020	052523	188.14	13.197658	-57.051993	188.24	-0.420	-0.050	2.310	188.13	-1.40	2.70	 	 	 	 	 	 	 	 	 	 	 	 	 	 	 	 	 	 	1581485123	7.79	14.43
12/02/2020 05:25:24	120220	12022020	052524	188.16	13.197623	-57.052002	188.29	-0.290	0.370	2.150	188.18	-1.00	2.60	 	 	 	 	 	 	 	 	 	 	 	 	 	 	 	 	 	 	1581485124	7.86	14.56
12/02/2020 05:25:25	120220	12022020	052525	188.31	13.197588	-57.052010	188.45	-0.190	0.560	1.900	188.34	-0.90	2.30	 	 	 	 	 	 	 	 	 	 	 	 	 	 	 	 	 	 	1581485125	7.81	14.46
12/02/2020 05:25:26	120220	12022020	052526	188.37	13.197552	-57.052015	188.46	-0.080	0.280	1.970	188.34	-1.20	2.50	 	 	 	 	 	 	 	 	 	 	 	 	 	 	 	 	 	 	1581485126	7.87	14.58
12/02/2020 05:25:27	120220	12022020	052527	188.15	13.197513	-57.052023	188.23	0.110	-0.280	2.300	188.10	-1.70	2.80	 	 	 	 	 	 	 	 	 	 	 	 	 	 	 	 	 	 	1581485127	8.24	15.26
12/02/2020 05:25:28	120220	12022020	052528	188.03	13.197475	-57.052032	188.18	0.280	-0.380	2.360	188.07	-1.70	2.80	 	 	 	 	 	 	 	 	 	 	 	 	 	 	 	 	 	 	1581485128	8.61	15.95
12/02/2020 05:25:29	120220	12022020	052529	188.36	13.197438	-57.052042	188.55	0.360	0.190	1.920	188.45	-1.20	2.30	 	 	 	 	 	 	 	 	 	 	 	 	 	 	 	 	 	 	1581485129	8.12	15.04
12/02/2020 05:25:30	120220	12022020	052530	188.74	13.197407	-57.052047	188.86	0.400	0.300	1.460	188.77	-1.20	1.90	 	 	 	 	 	 	 	 	 	 	 	 	 	 	 	 	 	 	1581485130	7.02	13.00
12/02/2020 05:25:31	120220	12022020	052531	188.69	13.197373	-57.052050	188.74	0.410	-0.650	1.580	188.62	-2.20	2.10	 	 	 	 	 	 	 	 	 	 	 	 	 	 	 	 	 	 	1581485131	7.21	13.35
12/02/2020 05:25:32	120220	12022020	052532	188.21	13.197333	-57.052055	188.24	0.190	-1.740	2.220	188.09	-3.20	2.80	 	 	 	 	 	 	 	 	 	 	 	 	 	 	 	 	 	 	1581485132	8.42	15.59
12/02/2020 05:25:33	120220	12022020	052533	187.61	13.197293	-57.052065	187.67	-0.330	-1.820	3.100	187.50	-3.10	3.60	 	 	 	 	 	 	 	 	 	 	 	 	 	 	 	 	 	 	1581485133	8.97	16.61
12/02/2020 05:25:34	120220	12022020	052534	187.20	13.197257	-57.052080	187.32	-0.830	-0.810	3.670	187.15	-2.00	4.10	 	 	 	 	 	 	 	 	 	 	 	 	 	 	 	 	 	 	1581485134	8.44	15.63
12/02/2020 05:25:35	120220	12022020	052535	187.10	13.197225	-57.052095	187.28	-0.870	0.410	3.590	187.13	-0.90	4.00	 	 	 	 	 	 	 	 	 	 	 	 	 	 	 	 	 	 	1581485135	7.58	14.04
12/02/2020 05:25:36	120220	12022020	052536	187.32	13.197193	-57.052107	187.52	-0.320	0.880	2.910	187.40	-0.50	3.30	 	 	 	 	 	 	 	 	 	 	 	 	 	 	 	 	 	 	1581485136	7.22	13.37
12/02/2020 05:25:37	120220	12022020	052537	187.76	13.197157	-57.052113	187.97	0.370	0.530	2.030	187.86	-1.00	2.40	 	 	 	 	 	 	 	 	 	 	 	 	 	 	 	 	 	 	1581485137	7.81	14.46
12/02/2020 05:25:38	120220	12022020	052538	188.21	13.197117	-57.052115	188.41	0.680	-0.080	1.480	188.30	-1.50	1.90	 	 	 	 	 	 	 	 	 	 	 	 	 	 	 	 	 	 	1581485138	8.60	15.93
12/02/2020 05:25:39	120220	12022020	052539	188.63	13.197077	-57.052117	188.79	0.440	-0.330	1.320	188.70	-1.80	1.80	 	 	 	 	 	 	 	 	 	 	 	 	 	 	 	 	 	 	1581485139	8.73	16.17
12/02/2020 05:25:40	120220	12022020	052540	188.88	13.197040	-57.052120	189.01	-0.070	-0.250	1.680	188.90	-1.70	2.20	 	 	 	 	 	 	 	 	 	 	 	 	 	 	 	 	 	 	1581485140	8.12	15.04
12/02/2020 05:25:41	120220	12022020	052541	188.81	13.197005	-57.052128	188.88	-0.390	-0.220	2.410	188.74	-1.70	3.00	 	 	 	 	 	 	 	 	 	 	 	 	 	 	 	 	 	 	1581485141	7.52	13.93
12/02/2020 05:25:42	120220	12022020	052542	188.38	13.196972	-57.052138	188.43	-0.290	-0.410	3.090	188.28	-1.90	3.60	 	 	 	 	 	 	 	 	 	 	 	 	 	 	 	 	 	 	1581485142	7.61	14.09
12/02/2020 05:25:43	120220	12022020	052543	187.90	13.196937	-57.052152	187.99	0.060	-0.610	3.400	187.83	-2.00	3.80	 	 	 	 	 	 	 	 	 	 	 	 	 	 	 	 	 	 	1581485143	8.02	14.85
12/02/2020 05:25:44	120220	12022020	052544	187.68	13.196900	-57.052163	187.82	0.380	-0.540	3.300	187.68	-1.90	3.70	 	 	 	 	 	 	 	 	 	 	 	 	 	 	 	 	 	 	1581485144	8.23	15.24
12/02/2020 05:25:45	120220	12022020	052545	187.81	13.196863	-57.052172	187.99	0.510	-0.110	2.710	187.87	-1.50	3.10	 	 	 	 	 	 	 	 	 	 	 	 	 	 	 	 	 	 	1581485145	7.97	14.76
12/02/2020 05:25:46	120220	12022020	052546	188.19	13.196828	-57.052177	188.38	0.370	0.300	1.830	188.28	-1.10	2.20	 	 	 	 	 	 	 	 	 	 	 	 	 	 	 	 	 	 	1581485146	7.47	13.83
12/02/2020 05:25:47	120220	12022020	052547	188.67	13.196795	-57.052178	188.86	0.010	0.240	1.220	188.77	-1.20	1.60	 	 	 	 	 	 	 	 	 	 	 	 	 	 	 	 	 	 	1581485147	7.37	13.65
12/02/2020 05:25:48	120220	12022020	052548	189.06	13.196760	-57.052182	189.19	-0.310	-0.350	1.150	189.11	-1.90	1.60	 	 	 	 	 	 	 	 	 	 	 	 	 	 	 	 	 	 	1581485148	7.66	14.19
12/02/2020 05:25:49	120220	12022020	052549	189.13	13.196722	-57.052190	189.19	-0.270	-1.120	1.390	189.08	-2.60	1.90	 	 	 	 	 	 	 	 	 	 	 	 	 	 	 	 	 	 	1581485149	8.18	15.15
12/02/2020 05:25:50	120220	12022020	052550	188.83	13.196683	-57.052200	188.88	0.070	-1.470	1.690	188.77	-2.90	2.20	 	 	 	 	 	 	 	 	 	 	 	 	 	 	 	 	 	 	1581485150	8.58	15.89
12/02/2020 05:25:51	120220	12022020	052551	188.68	13.196645	-57.052208	188.79	0.160	-0.840	1.800	188.69	-2.10	2.30	 	 	 	 	 	 	 	 	 	 	 	 	 	 	 	 	 	 	1581485151	8.48	15.70
12/02/2020 05:25:52	120220	12022020	052552	188.78	13.196610	-57.052215	188.90	-0.190	0.170	1.850	188.80	-1.20	2.30	 	 	 	 	 	 	 	 	 	 	 	 	 	 	 	 	 	 	1581485152	7.60	14.08
12/02/2020 05:25:53	120220	12022020	052553	188.70	13.196578	-57.052222	188.75	-0.580	0.490	2.090	188.64	-1.00	2.60	 	 	 	 	 	 	 	 	 	 	 	 	 	 	 	 	 	 	1581485153	7.09	13.13
12/02/2020 05:25:54	120220	12022020	052554	188.28	13.196543	-57.052232	188.32	-0.550	0.050	2.550	188.20	-1.40	3.00	 	 	 	 	 	 	 	 	 	 	 	 	 	 	 	 	 	 	1581485154	7.79	14.43
12/02/2020 05:25:55	120220	12022020	052555	187.94	13.196503	-57.052243	188.04	-0.180	-0.220	2.740	187.93	-1.60	3.20	 	 	 	 	 	 	 	 	 	 	 	 	 	 	 	 	 	 	1581485155	8.79	16.28
12/02/2020 05:25:56	120220	12022020	052556	188.10	13.196465	-57.052255	188.28	0.120	0.160	2.320	188.20	-1.20	2.70	 	 	 	 	 	 	 	 	 	 	 	 	 	 	 	 	 	 	1581485156	8.68	16.08
12/02/2020 05:25:57	120220	12022020	052557	188.62	13.196430	-57.052262	188.80	0.170	0.690	1.630	188.71	-0.70	2.00	 	 	 	 	 	 	 	 	 	 	 	 	 	 	 	 	 	 	1581485157	7.67	14.20
12/02/2020 05:25:58	120220	12022020	052558	188.93	13.196398	-57.052267	189.04	0.210	0.510	1.220	188.94	-1.00	1.70	 	 	 	 	 	 	 	 	 	 	 	 	 	 	 	 	 	 	1581485158	7.06	13.08
12/02/2020 05:25:59	120220	12022020	052559	188.82	13.196363	-57.052272	188.88	0.420	-0.390	1.340	188.77	-1.90	1.80	 	 	 	 	 	 	 	 	 	 	 	 	 	 	 	 	 	 	1581485159	7.58	14.04
12/02/2020 05:26:00	120220	12022020	052600	188.62	13.196325	-57.052278	188.71	0.590	-1.060	1.690	188.60	-2.50	2.20	 	 	 	 	 	 	 	 	 	 	 	 	 	 	 	 	 	 	1581485160	8.43	15.61
12/02/2020 05:26:01	120220	12022020	052601	188.54	13.196287	-57.052287	188.66	0.450	-1.020	2.060	188.54	-2.40	2.60	1015.80	26.00	26.00	21.10	21.10	-1.0	74.0	74.0	403.0	25.6	258.00	10.70	68.00	12.20	16	8914.0	27.2	27.2	1581485161	8.35	15.46
12/02/2020 05:26:02	120220	12022020	052602	188.55	13.196252	-57.052295	188.68	0.040	-0.640	2.330	188.55	-2.00	2.80	 	 	 	 	 	 	 	 	 	 	 	 	 	 	 	 	 	 	1581485162	7.66	14.19
12/02/2020 05:26:03	120220	12022020	052603	188.54	13.196218	-57.052303	188.66	-0.360	-0.470	2.510	188.53	-1.90	3.00	 	 	 	 	 	 	 	 	 	 	 	 	 	 	 	 	 	 	1581485163	7.36	13.63
12/02/2020 05:26:04	120220	12022020	052604	188.44	13.196183	-57.052313	188.55	-0.460	-0.540	2.610	188.42	-2.00	3.00	 	 	 	 	 	 	 	 	 	 	 	 	 	 	 	 	 	 	1581485164	7.74	14.33
12/02/2020 05:26:05	120220	12022020	052605	188.27	13.196147	-57.052325	188.35	-0.250	-0.570	2.550	188.27	-2.00	3.00	 	 	 	 	 	 	 	 	 	 	 	 	 	 	 	 	 	 	1581485165	8.19	15.17
12/02/2020 05:26:06	120220	12022020	052606	187.98	13.196110	-57.052333	188.03	0.050	-0.460	2.430	187.90	-1.80	2.90	 	 	 	 	 	 	 	 	 	 	 	 	 	 	 	 	 	 	1581485166	8.25	15.28
12/02/2020 05:26:07	120220	12022020	052607	187.61	13.196072	-57.052342	187.68	0.130	-0.160	2.350	187.55	-1.50	2.80	 	 	 	 	 	 	 	 	 	 	 	 	 	 	 	 	 	 	1581485167	8.19	15.17
12/02/2020 05:26:08	120220	12022020	052608	187.43	13.196035	-57.052347	187.55	-0.090	0.470	2.170	187.44	-0.90	2.60	 	 	 	 	 	 	 	 	 	 	 	 	 	 	 	 	 	 	1581485168	8.05	14.91
12/02/2020 05:26:09	120220	12022020	052609	187.64	13.196000	-57.052353	187.80	-0.350	1.070	1.870	187.72	-0.30	2.30	 	 	 	 	 	 	 	 	 	 	 	 	 	 	 	 	 	 	1581485169	7.61	14.09
12/02/2020 05:26:10	120220	12022020	052610	188.02	13.195967	-57.052360	188.17	-0.310	0.860	1.660	188.08	-0.70	2.10	 	 	 	 	 	 	 	 	 	 	 	 	 	 	 	 	 	 	1581485170	7.31	13.54
12/02/2020 05:26:11	120220	12022020	052611	188.24	13.195932	-57.052365	188.36	0.100	-0.320	1.850	188.26	-1.90	2.40	 	 	 	 	 	 	 	 	 	 	 	 	 	 	 	 	 	 	1581485171	7.87	14.58
12/02/2020 05:26:12	120220	12022020	052612	188.30	13.195890	-57.052375	188.41	0.500	-1.460	2.390	188.28	-2.90	2.90	 	 	 	 	 	 	 	 	 	 	 	 	 	 	 	 	 	 	1581485172	8.87	16.43
12/02/2020 05:26:13	120220	12022020	052613	188.19	13.195850	-57.052385	188.30	0.500	-1.540	2.990	188.15	-2.90	3.50	 	 	 	 	 	 	 	 	 	 	 	 	 	 	 	 	 	 	1581485173	8.97	16.61
12/02/2020 05:26:14	120220	12022020	052614	187.93	13.195815	-57.052397	188.02	0.160	-0.680	3.390	187.87	-2.00	3.90	 	 	 	 	 	 	 	 	 	 	 	 	 	 	 	 	 	 	1581485174	7.98	14.78
12/02/2020 05:26:15	120220	12022020	052615	187.68	13.195783	-57.052407	187.80	-0.150	0.210	3.380	187.66	-1.10	3.80	 	 	 	 	 	 	 	 	 	 	 	 	 	 	 	 	 	 	1581485175	7.02	13.00
12/02/2020 05:26:16	120220	12022020	052616	187.68	13.195752	-57.052413	187.82	-0.180	0.490	3.000	187.70	-0.90	3.40	 	 	 	 	 	 	 	 	 	 	 	 	 	 	 	 	 	 	1581485176	6.99	12.95
12/02/2020 05:26:17	120220	12022020	052617	187.73	13.195717	-57.052420	187.85	0.060	0.120	2.520	187.73	-1.20	3.10	 	 	 	 	 	 	 	 	 	 	 	 	 	 	 	 	 	 	1581485177	7.58	14.04
12/02/2020 05:26:18	120220	12022020	052618	187.68	13.195680	-57.052425	187.79	0.300	-0.430	2.170	187.66	-1.90	2.60	 	 	 	 	 	 	 	 	 	 	 	 	 	 	 	 	 	 	1581485178	8.28	15.33
12/02/2020 05:26:19	120220	12022020	052619	187.66	13.195640	-57.052430	187.79	0.190	-0.650	2.070	187.66	-2.00	2.50	 	 	 	 	 	 	 	 	 	 	 	 	 	 	 	 	 	 	1581485179	8.57	15.87
12/02/2020 05:26:20	120220	12022020	052620	187.82	13.195602	-57.052435	188.01	-0.220	-0.400	2.250	187.88	-1.70	2.70	 	 	 	 	 	 	 	 	 	 	 	 	 	 	 	 	 	 	1581485180	8.25	15.28
12/02/2020 05:26:21	120220	12022020	052621	188.17	13.195567	-57.052445	188.35	-0.530	0.040	2.380	188.22	-1.30	2.80	 	 	 	 	 	 	 	 	 	 	 	 	 	 	 	 	 	 	1581485181	7.73	14.32
12/02/2020 05:26:22	120220	12022020	052622	188.32	13.195533	-57.052455	188.44	-0.350	-0.010	2.340	188.31	-1.50	2.80	 	 	 	 	 	 	 	 	 	 	 	 	 	 	 	 	 	 	1581485182	7.40	13.70
12/02/2020 05:26:23	120220	12022020	052623	188.21	13.195498	-57.052463	188.30	0.220	-0.620	2.140	188.18	-2.10	2.60	 	 	 	 	 	 	 	 	 	 	 	 	 	 	 	 	 	 	1581485183	7.81	14.46
12/02/2020 05:26:24	120220	12022020	052624	187.99	13.195460	-57.052470	188.06	0.620	-1.020	2.060	187.94	-2.40	2.50	 	 	 	 	 	 	 	 	 	 	 	 	 	 	 	 	 	 	1581485184	8.58	15.89
12/02/2020 05:26:25	120220	12022020	052625	187.77	13.195420	-57.052475	187.86	0.460	-0.610	2.060	187.75	-1.90	2.50	 	 	 	 	 	 	 	 	 	 	 	 	 	 	 	 	 	 	1581485185	8.58	15.89
12/02/2020 05:26:26	120220	12022020	052626	187.78	13.195383	-57.052482	187.92	-0.160	0.390	1.970	187.82	-0.90	2.40	 	 	 	 	 	 	 	 	 	 	 	 	 	 	 	 	 	 	1581485186	7.81	14.46
12/02/2020 05:26:27	120220	12022020	052627	188.09	13.195352	-57.052487	188.27	-0.800	1.130	1.910	188.17	-0.20	2.40	 	 	 	 	 	 	 	 	 	 	 	 	 	 	 	 	 	 	1581485187	7.07	13.09
12/02/2020 05:26:28	120220	12022020	052628	188.53	13.195320	-57.052497	188.72	-0.930	0.990	1.950	188.63	-0.50	2.40	 	 	 	 	 	 	 	 	 	 	 	 	 	 	 	 	 	 	1581485188	7.11	13.17
12/02/2020 05:26:29	120220	12022020	052629	188.96	13.195285	-57.052507	189.12	-0.430	0.040	1.880	188.96	-1.10	2.40	 	 	 	 	 	 	 	 	 	 	 	 	 	 	 	 	 	 	1581485189	7.88	14.59
12/02/2020 05:26:30	120220	12022020	052630	189.06	13.195247	-57.052518	189.15	0.380	-1.090	1.810	189.03	-2.60	2.30	 	 	 	 	 	 	 	 	 	 	 	 	 	 	 	 	 	 	1581485190	8.58	15.89
12/02/2020 05:26:31	120220	12022020	052631	188.72	13.195207	-57.052528	188.75	1.020	-1.650	1.750	188.61	-3.10	2.20	 	 	 	 	 	 	 	 	 	 	 	 	 	 	 	 	 	 	1581485191	8.80	16.30
12/02/2020 05:26:32	120220	12022020	052632	188.16	13.195168	-57.052535	188.19	1.140	-1.300	1.570	188.08	-2.60	2.00	 	 	 	 	 	 	 	 	 	 	 	 	 	 	 	 	 	 	1581485192	8.35	15.46
12/02/2020 05:26:33	120220	12022020	052633	187.82	13.195133	-57.052537	187.89	0.650	-0.460	1.390	187.79	-1.80	1.90	 	 	 	 	 	 	 	 	 	 	 	 	 	 	 	 	 	 	1581485193	7.64	14.15
12/02/2020 05:26:34	120220	12022020	052634	187.74	13.195100	-57.052538	187.83	-0.170	0.110	1.540	187.74	-1.30	2.00	 	 	 	 	 	 	 	 	 	 	 	 	 	 	 	 	 	 	1581485194	7.22	13.37
12/02/2020 05:26:35	120220	12022020	052635	187.80	13.195065	-57.052545	187.92	-0.900	0.180	1.970	187.82	-1.20	2.50	 	 	 	 	 	 	 	 	 	 	 	 	 	 	 	 	 	 	1581485195	7.53	13.95
12/02/2020 05:26:36	120220	12022020	052636	187.91	13.195028	-57.052557	188.06	-1.230	0.070	2.520	187.93	-1.30	3.00	 	 	 	 	 	 	 	 	 	 	 	 	 	 	 	 	 	 	1581485196	8.25	15.28
12/02/2020 05:26:37	120220	12022020	052637	188.01	13.194992	-57.052573	188.16	-1.020	0.040	2.800	188.03	-1.40	3.20	 	 	 	 	 	 	 	 	 	 	 	 	 	 	 	 	 	 	1581485197	8.61	15.95
12/02/2020 05:26:38	120220	12022020	052638	188.13	13.194955	-57.052587	188.27	-0.460	0.150	2.550	188.16	-1.20	2.90	 	 	 	 	 	 	 	 	 	 	 	 	 	 	 	 	 	 	1581485198	8.42	15.59
12/02/2020 05:26:39	120220	12022020	052639	188.25	13.194918	-57.052597	188.36	0.140	0.180	1.990	188.26	-1.20	2.40	 	 	 	 	 	 	 	 	 	 	 	 	 	 	 	 	 	 	1581485199	8.01	14.83
12/02/2020 05:26:40	120220	12022020	052640	188.18	13.194882	-57.052600	188.21	0.590	-0.070	1.510	188.13	-1.50	2.00	 	 	 	 	 	 	 	 	 	 	 	 	 	 	 	 	 	 	1581485200	7.88	14.59
12/02/2020 05:26:41	120220	12022020	052641	187.76	13.194845	-57.052602	187.76	0.780	-0.430	1.510	187.65	-1.90	2.00	 	 	 	 	 	 	 	 	 	 	 	 	 	 	 	 	 	 	1581485201	8.10	15.00
12/02/2020 05:26:42	120220	12022020	052642	187.23	13.194807	-57.052607	187.27	0.670	-0.470	1.810	187.16	-1.80	2.30	 	 	 	 	 	 	 	 	 	 	 	 	 	 	 	 	 	 	1581485202	8.24	15.26
12/02/2020 05:26:43	120220	12022020	052643	187.08	13.194770	-57.052613	187.21	0.360	0.010	1.900	187.12	-1.30	2.30	 	 	 	 	 	 	 	 	 	 	 	 	 	 	 	 	 	 	1581485203	7.95	14.72
12/02/2020 05:26:44	120220	12022020	052644	187.43	13.194737	-57.052620	187.59	0.110	0.460	1.660	187.51	-0.90	2.10	 	 	 	 	 	 	 	 	 	 	 	 	 	 	 	 	 	 	1581485204	7.31	13.54
12/02/2020 05:26:45	120220	12022020	052645	187.77	13.194705	-57.052627	187.89	0.110	-0.020	1.510	187.80	-1.60	2.00	 	 	 	 	 	 	 	 	 	 	 	 	 	 	 	 	 	 	1581485205	7.04	13.04
12/02/2020 05:26:46	120220	12022020	052646	187.69	13.194668	-57.052633	187.74	0.180	-1.220	1.960	187.63	-2.80	2.50	 	 	 	 	 	 	 	 	 	 	 	 	 	 	 	 	 	 	1581485206	7.90	14.63
12/02/2020 05:26:47	120220	12022020	052647	187.27	13.194628	-57.052642	187.31	0.020	-2.020	2.930	187.17	-3.40	3.50	 	 	 	 	 	 	 	 	 	 	 	 	 	 	 	 	 	 	1581485207	8.92	16.52
12/02/2020 05:26:48	120220	12022020	052648	186.77	13.194588	-57.052653	186.83	-0.360	-1.730	3.860	186.66	-3.00	4.40	 	 	 	 	 	 	 	 	 	 	 	 	 	 	 	 	 	 	1581485208	8.99	16.65
12/02/2020 05:26:49	120220	12022020	052649	186.26	13.194552	-57.052667	186.37	-0.720	-0.700	4.420	186.18	-1.90	4.90	 	 	 	 	 	 	 	 	 	 	 	 	 	 	 	 	 	 	1581485209	8.26	15.30
12/02/2020 05:26:50	120220	12022020	052650	185.99	13.194518	-57.052678	186.15	-0.840	0.420	4.490	185.99	-0.90	4.90	 	 	 	 	 	 	 	 	 	 	 	 	 	 	 	 	 	 	1581485210	7.77	14.39
12/02/2020 05:26:51	120220	12022020	052651	186.15	13.194483	-57.052690	186.37	-0.590	1.180	3.780	186.24	-0.20	4.10	 	 	 	 	 	 	 	 	 	 	 	 	 	 	 	 	 	 	1581485211	7.70	14.26
12/02/2020 05:26:52	120220	12022020	052652	186.69	13.194448	-57.052698	186.90	-0.020	1.400	2.310	186.82	-0.00	2.60	 	 	 	 	 	 	 	 	 	 	 	 	 	 	 	 	 	 	1581485212	7.75	14.35
12/02/2020 05:26:53	120220	12022020	052653	187.37	13.194412	-57.052698	187.57	0.580	0.880	0.790	187.51	-0.60	1.10	 	 	 	 	 	 	 	 	 	 	 	 	 	 	 	 	 	 	1581485213	7.96	14.74
12/02/2020 05:26:54	120220	12022020	052654	188.00	13.194372	-57.052695	188.17	0.800	-0.030	0.150	188.10	-1.60	0.60	 	 	 	 	 	 	 	 	 	 	 	 	 	 	 	 	 	 	1581485214	8.49	15.72
12/02/2020 05:26:55	120220	12022020	052655	188.27	13.194332	-57.052693	188.34	0.560	-0.810	0.480	188.27	-2.10	0.80	 	 	 	 	 	 	 	 	 	 	 	 	 	 	 	 	 	 	1581485215	8.53	15.80
12/02/2020 05:26:56	120220	12022020	052656	187.97	13.194295	-57.052698	187.97	0.140	-1.220	1.560	187.85	-2.60	2.20	 	 	 	 	 	 	 	 	 	 	 	 	 	 	 	 	 	 	1581485216	8.12	15.04
12/02/2020 05:26:57	120220	12022020	052657	187.20	13.194260	-57.052710	187.18	-0.080	-1.270	2.990	187.04	-2.60	3.60	 	 	 	 	 	 	 	 	 	 	 	 	 	 	 	 	 	 	1581485217	7.89	14.61
12/02/2020 05:26:58	120220	12022020	052658	186.48	13.194225	-57.052725	186.56	-0.010	-0.940	3.830	186.41	-2.20	4.30	 	 	 	 	 	 	 	 	 	 	 	 	 	 	 	 	 	 	1581485218	8.01	14.83
12/02/2020 05:26:59	120220	12022020	052659	186.37	13.194192	-57.052738	186.55	0.120	-0.210	3.590	186.42	-1.50	3.90	 	 	 	 	 	 	 	 	 	 	 	 	 	 	 	 	 	 	1581485219	7.88	14.59
12/02/2020 05:27:00	120220	12022020	052700	186.81	13.194158	-57.052745	187.03	0.120	0.340	2.630	186.93	-1.00	2.90	 	 	 	 	 	 	 	 	 	 	 	 	 	 	 	 	 	 	1581485220	7.37	13.65
12/02/2020 05:27:01	120220	12022020	052701	187.36	13.194123	-57.052748	187.54	0.050	0.160	1.620	187.44	-1.30	2.00	1015.80	26.00	26.00	21.00	21.10	-1.0	74.0	74.0	405.0	25.6	257.00	11.60	67.00	13.10	16	9876.0	27.2	27.2	1581485221	7.34	13.59
12/02/2020 05:27:02	120220	12022020	052702	187.69	13.194087	-57.052750	187.82	-0.010	-0.540	1.140	187.72	-2.00	1.60	 	 	 	 	 	 	 	 	 	 	 	 	 	 	 	 	 	 	1581485222	8.01	14.83
12/02/2020 05:27:03	120220	12022020	052703	187.75	13.194047	-57.052753	187.82	-0.040	-1.090	1.320	187.72	-2.50	1.80	 	 	 	 	 	 	 	 	 	 	 	 	 	 	 	 	 	 	1581485223	8.64	16.00
12/02/2020 05:27:04	120220	12022020	052704	187.53	13.194007	-57.052762	187.58	-0.110	-1.040	1.770	187.47	-2.40	2.30	 	 	 	 	 	 	 	 	 	 	 	 	 	 	 	 	 	 	1581485224	8.64	16.00
12/02/2020 05:27:05	120220	12022020	052705	187.29	13.193970	-57.052770	187.38	-0.340	-0.310	2.200	187.26	-1.60	2.70	 	 	 	 	 	 	 	 	 	 	 	 	 	 	 	 	 	 	1581485225	8.24	15.26
12/02/2020 05:27:06	120220	12022020	052706	187.30	13.193935	-57.052780	187.45	-0.670	0.710	2.340	187.34	-0.60	2.80	 	 	 	 	 	 	 	 	 	 	 	 	 	 	 	 	 	 	1581485226	7.65	14.17
12/02/2020 05:27:07	120220	12022020	052707	187.61	13.193903	-57.052790	187.80	-0.800	1.330	1.990	187.61	-0.10	2.50	 	 	 	 	 	 	 	 	 	 	 	 	 	 	 	 	 	 	1581485227	7.19	13.32
12/02/2020 05:27:08	120220	12022020	052708	188.03	13.193870	-57.052797	188.19	-0.450	0.980	1.440	188.11	-0.50	1.80	 	 	 	 	 	 	 	 	 	 	 	 	 	 	 	 	 	 	1581485228	7.29	13.50
12/02/2020 05:27:09	120220	12022020	052709	188.33	13.193833	-57.052803	188.44	0.300	-0.090	0.950	188.33	-1.20	1.50	 	 	 	 	 	 	 	 	 	 	 	 	 	 	 	 	 	 	1581485229	8.04	14.89
12/02/2020 05:27:10	120220	12022020	052710	188.48	13.193793	-57.052807	188.56	1.000	-0.940	0.640	188.50	-2.40	1.10	 	 	 	 	 	 	 	 	 	 	 	 	 	 	 	 	 	 	1581485230	8.75	16.21
12/02/2020 05:27:11	120220	12022020	052711	188.57	13.193753	-57.052810	188.64	1.110	-1.100	0.720	188.57	-2.50	1.20	 	 	 	 	 	 	 	 	 	 	 	 	 	 	 	 	 	 	1581485231	8.56	15.85
12/02/2020 05:27:12	120220	12022020	052712	188.50	13.193717	-57.052813	188.53	0.630	-0.960	1.340	188.44	-2.40	1.90	 	 	 	 	 	 	 	 	 	 	 	 	 	 	 	 	 	 	1581485232	7.73	14.32
12/02/2020 05:27:13	120220	12022020	052713	188.03	13.193683	-57.052820	187.99	0.040	-1.020	2.400	187.88	-2.40	3.00	 	 	 	 	 	 	 	 	 	 	 	 	 	 	 	 	 	 	1581485233	7.39	13.69
12/02/2020 05:27:14	120220	12022020	052714	187.24	13.193648	-57.052830	187.23	-0.330	-1.060	3.560	187.08	-2.40	4.10	 	 	 	 	 	 	 	 	 	 	 	 	 	 	 	 	 	 	1581485234	7.96	14.74
12/02/2020 05:27:15	120220	12022020	052715	186.54	13.193612	-57.052845	186.62	-0.530	-0.590	4.330	186.45	-1.90	4.80	 	 	 	 	 	 	 	 	 	 	 	 	 	 	 	 	 	 	1581485235	8.50	15.74
12/02/2020 05:27:16	120220	12022020	052716	186.32	13.193575	-57.052858	186.51	-0.690	0.340	4.290	186.35	-0.90	4.70	 	 	 	 	 	 	 	 	 	 	 	 	 	 	 	 	 	 	1581485236	8.28	15.33
12/02/2020 05:27:17	120220	12022020	052717	186.79	13.193542	-57.052870	187.06	-0.800	1.150	3.390	186.96	-0.20	3.70	 	 	 	 	 	 	 	 	 	 	 	 	 	 	 	 	 	 	1581485237	7.65	14.17
12/02/2020 05:27:18	120220	12022020	052718	187.79	13.193508	-57.052878	188.07	-0.640	1.300	1.970	188.01	-0.20	2.20	 	 	 	 	 	 	 	 	 	 	 	 	 	 	 	 	 	 	1581485238	7.37	13.65
12/02/2020 05:27:19	120220	12022020	052719	188.77	13.193473	-57.052882	188.97	-0.050	0.600	0.570	188.92	-1.00	0.90	 	 	 	 	 	 	 	 	 	 	 	 	 	 	 	 	 	 	1581485239	7.59	14.06
12/02/2020 05:27:20	120220	12022020	052720	189.29	13.193435	-57.052882	189.38	0.690	-0.600	-0.150	189.32	-2.20	0.30	 	 	 	 	 	 	 	 	 	 	 	 	 	 	 	 	 	 	1581485240	8.26	15.30
12/02/2020 05:27:21	120220	12022020	052721	189.23	13.193393	-57.052883	189.23	1.040	-1.510	-0.020	189.15	-3.00	0.50	 	 	 	 	 	 	 	 	 	 	 	 	 	 	 	 	 	 	1581485241	8.74	16.19
12/02/2020 05:27:22	120220	12022020	052722	188.61	13.193355	-57.052887	188.55	0.830	-1.680	0.840	188.45	-3.00	1.40	 	 	 	 	 	 	 	 	 	 	 	 	 	 	 	 	 	 	1581485242	8.49	15.72
12/02/2020 05:27:23	120220	12022020	052723	187.76	13.193318	-57.052895	187.75	0.250	-1.110	1.980	187.63	-2.40	2.60	 	 	 	 	 	 	 	 	 	 	 	 	 	 	 	 	 	 	1581485243	7.97	14.76
12/02/2020 05:27:24	120220	12022020	052724	187.29	13.193285	-57.052907	187.38	-0.290	-0.060	2.660	187.27	-1.30	3.10	 	 	 	 	 	 	 	 	 	 	 	 	 	 	 	 	 	 	1581485244	7.66	14.19
12/02/2020 05:27:25	120220	12022020	052725	187.51	13.193252	-57.052918	187.72	-0.460	0.830	2.500	187.64	-0.50	2.90	 	 	 	 	 	 	 	 	 	 	 	 	 	 	 	 	 	 	1581485245	7.37	13.65
12/02/2020 05:27:26	120220	12022020	052726	188.24	13.193220	-57.052928	188.46	-0.330	1.000	1.890	188.39	-0.40	2.30	 	 	 	 	 	 	 	 	 	 	 	 	 	 	 	 	 	 	1581485246	7.28	13.48
12/02/2020 05:27:27	120220	12022020	052727	188.87	13.193185	-57.052933	189.03	-0.210	0.340	1.590	188.94	-1.20	2.10	 	 	 	 	 	 	 	 	 	 	 	 	 	 	 	 	 	 	1581485247	7.68	14.22
12/02/2020 05:27:28	120220	12022020	052728	188.98	13.193147	-57.052940	189.04	-0.220	-0.760	1.900	188.93	-2.30	2.40	 	 	 	 	 	 	 	 	 	 	 	 	 	 	 	 	 	 	1581485248	8.33	15.43
12/02/2020 05:27:29	120220	12022020	052729	188.58	13.193107	-57.052950	188.60	-0.260	-1.560	2.570	188.46	-3.00	3.10	 	 	 	 	 	 	 	 	 	 	 	 	 	 	 	 	 	 	1581485249	8.81	16.32
12/02/2020 05:27:30	120220	12022020	052730	187.98	13.193068	-57.052963	188.02	-0.200	-1.390	3.230	187.87	-2.70	3.70	 	 	 	 	 	 	 	 	 	 	 	 	 	 	 	 	 	 	1581485250	8.84	16.37
12/02/2020 05:27:31	120220	12022020	052731	187.55	13.193032	-57.052978	187.66	-0.030	-0.360	3.340	187.52	-1.60	3.70	 	 	 	 	 	 	 	 	 	 	 	 	 	 	 	 	 	 	1581485251	8.15	15.09
12/02/2020 05:27:32	120220	12022020	052732	187.59	13.193000	-57.052988	187.79	0.140	0.690	2.570	187.66	-0.60	2.90	 	 	 	 	 	 	 	 	 	 	 	 	 	 	 	 	 	 	1581485252	7.21	13.35
12/02/2020 05:27:33	120220	12022020	052733	188.04	13.192968	-57.052992	188.23	0.250	1.040	1.390	188.04	-0.40	2.10	 	 	 	 	 	 	 	 	 	 	 	 	 	 	 	 	 	 	1581485253	6.99	12.95
12/02/2020 05:27:34	120220	12022020	052734	188.50	13.192933	-57.052992	188.64	0.400	0.530	0.520	188.57	-1.00	0.90	 	 	 	 	 	 	 	 	 	 	 	 	 	 	 	 	 	 	1581485254	7.55	13.98
12/02/2020 05:27:35	120220	12022020	052735	188.78	13.192895	-57.052993	188.89	0.580	-0.370	0.220	188.82	-1.90	0.70	 	 	 	 	 	 	 	 	 	 	 	 	 	 	 	 	 	 	1581485255	8.29	15.35
12/02/2020 05:27:36	120220	12022020	052736	188.89	13.192855	-57.052995	188.96	0.580	-1.030	0.530	188.88	-2.50	1.10	 	 	 	 	 	 	 	 	 	 	 	 	 	 	 	 	 	 	1581485256	8.64	16.00
12/02/2020 05:27:37	120220	12022020	052737	188.66	13.192815	-57.053000	188.70	0.290	-1.260	1.500	188.57	-2.70	2.10	 	 	 	 	 	 	 	 	 	 	 	 	 	 	 	 	 	 	1581485257	8.36	15.48
12/02/2020 05:27:38	120220	12022020	052738	188.15	13.192780	-57.053012	188.20	-0.230	-1.020	2.680	188.04	-2.40	3.30	 	 	 	 	 	 	 	 	 	 	 	 	 	 	 	 	 	 	1581485258	8.07	14.95
12/02/2020 05:27:39	120220	12022020	052739	187.65	13.192745	-57.053025	187.72	-0.740	-0.440	3.580	187.57	-1.80	4.10	 	 	 	 	 	 	 	 	 	 	 	 	 	 	 	 	 	 	1581485259	7.92	14.67
12/02/2020 05:27:40	120220	12022020	052740	187.38	13.192712	-57.053040	187.52	-0.930	0.170	3.850	187.37	-1.20	4.30	 	 	 	 	 	 	 	 	 	 	 	 	 	 	 	 	 	 	1581485260	7.82	14.48
12/02/2020 05:27:41	120220	12022020	052741	187.49	13.192678	-57.053053	187.69	-0.740	0.560	3.440	187.55	-0.80	3.80	 	 	 	 	 	 	 	 	 	 	 	 	 	 	 	 	 	 	1581485261	7.74	14.33
12/02/2020 05:27:42	120220	12022020	052742	187.86	13.192643	-57.053063	188.06	-0.280	0.480	2.670	187.94	-1.00	3.00	 	 	 	 	 	 	 	 	 	 	 	 	 	 	 	 	 	 	1581485262	7.72	14.30
12/02/2020 05:27:43	120220	12022020	052743	188.27	13.192607	-57.053068	188.46	0.250	0.010	1.750	188.35	-1.50	2.10	 	 	 	 	 	 	 	 	 	 	 	 	 	 	 	 	 	 	1581485263	7.97	14.76
12/02/2020 05:27:44	120220	12022020	052744	188.64	13.192568	-57.053073	188.80	0.680	-0.410	0.800	188.70	-1.80	1.20	 	 	 	 	 	 	 	 	 	 	 	 	 	 	 	 	 	 	1581485264	8.30	15.37
12/02/2020 05:27:45	120220	12022020	052745	188.91	13.192530	-57.053075	189.03	0.890	-0.460	0.180	188.91	-1.90	0.80	 	 	 	 	 	 	 	 	 	 	 	 	 	 	 	 	 	 	1581485265	8.24	15.26
12/02/2020 05:27:46	120220	12022020	052746	189.00	13.192495	-57.053075	189.10	0.890	-0.420	0.030	189.00	-1.80	0.50	 	 	 	 	 	 	 	 	 	 	 	 	 	 	 	 	 	 	1581485266	7.80	14.45
12/02/2020 05:27:47	120220	12022020	052747	188.95	13.192458	-57.053077	189.03	0.630	-0.510	0.430	188.92	-1.90	1.00	 	 	 	 	 	 	 	 	 	 	 	 	 	 	 	 	 	 	1581485267	7.68	14.22
12/02/2020 05:27:48	120220	12022020	052748	188.77	13.192422	-57.053082	188.87	0.100	-0.670	1.440	188.74	-2.10	2.10	 	 	 	 	 	 	 	 	 	 	 	 	 	 	 	 	 	 	1581485268	7.88	14.59
12/02/2020 05:27:49	120220	12022020	052749	188.52	13.192385	-57.053092	188.62	-0.550	-0.750	2.740	188.46	-2.10	3.30	 	 	 	 	 	 	 	 	 	 	 	 	 	 	 	 	 	 	1581485269	8.11	15.02
12/02/2020 05:27:50	120220	12022020	052750	188.18	13.192350	-57.053107	188.29	-1.060	-0.650	3.750	188.11	-2.00	4.30	 	 	 	 	 	 	 	 	 	 	 	 	 	 	 	 	 	 	1581485270	8.37	15.50
12/02/2020 05:27:51	120220	12022020	052751	187.91	13.192313	-57.053123	188.07	-1.220	-0.200	4.160	187.89	-1.50	4.60	 	 	 	 	 	 	 	 	 	 	 	 	 	 	 	 	 	 	1581485271	8.48	15.70
12/02/2020 05:27:52	120220	12022020	052752	187.99	13.192280	-57.053138	188.22	-0.960	0.480	3.740	188.07	-0.80	4.10	 	 	 	 	 	 	 	 	 	 	 	 	 	 	 	 	 	 	1581485272	8.14	15.08
12/02/2020 05:27:53	120220	12022020	052753	188.41	13.192247	-57.053150	188.63	-0.330	0.750	2.590	188.50	-0.70	2.90	 	 	 	 	 	 	 	 	 	 	 	 	 	 	 	 	 	 	1581485273	7.57	14.02
12/02/2020 05:27:54	120220	12022020	052754	188.83	13.192210	-57.053155	189.03	0.460	0.310	1.260	188.92	-1.20	1.60	 	 	 	 	 	 	 	 	 	 	 	 	 	 	 	 	 	 	1581485274	7.68	14.22
12/02/2020 05:27:55	120220	12022020	052755	189.20	13.192172	-57.053157	189.36	1.100	-0.300	0.160	189.20	-1.60	0.80	 	 	 	 	 	 	 	 	 	 	 	 	 	 	 	 	 	 	1581485275	8.34	15.45
12/02/2020 05:27:56	120220	12022020	052756	189.39	13.192132	-57.053155	189.50	1.290	-0.580	-0.270	189.39	-2.00	0.20	 	 	 	 	 	 	 	 	 	 	 	 	 	 	 	 	 	 	1581485276	8.56	15.85
12/02/2020 05:27:57	120220	12022020	052757	189.23	13.192095	-57.053155	189.28	0.870	-0.600	0.190	189.23	-2.00	0.50	 	 	 	 	 	 	 	 	 	 	 	 	 	 	 	 	 	 	1581485277	8.11	15.02
12/02/2020 05:27:58	120220	12022020	052758	188.75	13.192058	-57.053158	188.81	0.050	-0.500	1.310	188.66	-1.90	1.90	 	 	 	 	 	 	 	 	 	 	 	 	 	 	 	 	 	 	1581485278	7.66	14.19
12/02/2020 05:27:59	120220	12022020	052759	188.35	13.192025	-57.053170	188.47	-0.720	-0.400	2.490	188.35	-1.80	2.70	 	 	 	 	 	 	 	 	 	 	 	 	 	 	 	 	 	 	1581485279	7.73	14.32
12/02/2020 05:28:00	120220	12022020	052800	188.21	13.191990	-57.053185	188.38	-0.960	-0.320	3.150	188.21	-1.70	3.60	 	 	 	 	 	 	 	 	 	 	 	 	 	 	 	 	 	 	1581485280	8.08	14.96
12/02/2020 05:28:01	120220	12022020	052801	188.26	13.191957	-57.053202	188.46	-0.580	-0.250	3.100	188.30	-1.60	3.50	1015.80	26.00	26.00	21.20	21.20	-1.0	74.0	74.0	407.0	25.6	256.00	11.30	66.00	12.90	16	8650.0	27.2	27.2	1581485281	8.24	15.26
12/02/2020 05:28:02	120220	12022020	052802	188.55	13.191920	-57.053215	188.78	-0.040	-0.070	2.390	188.64	-1.50	2.70	 	 	 	 	 	 	 	 	 	 	 	 	 	 	 	 	 	 	1581485282	8.12	15.04
12/02/2020 05:28:03	120220	12022020	052803	189.04	13.191883	-57.053220	189.24	0.220	0.050	1.480	189.13	-1.40	1.90	 	 	 	 	 	 	 	 	 	 	 	 	 	 	 	 	 	 	1581485283	7.85	14.54
12/02/2020 05:28:04	120220	12022020	052804	189.39	13.191848	-57.053223	189.52	0.240	-0.250	0.920	189.42	-1.70	1.40	 	 	 	 	 	 	 	 	 	 	 	 	 	 	 	 	 	 	1581485284	7.70	14.26
12/02/2020 05:28:05	120220	12022020	052805	189.32	13.191812	-57.053227	189.37	0.350	-0.910	0.860	189.25	-2.40	1.40	 	 	 	 	 	 	 	 	 	 	 	 	 	 	 	 	 	 	1581485285	7.99	14.80
12/02/2020 05:28:06	120220	12022020	052806	188.89	13.191772	-57.053232	188.93	0.540	-1.230	1.280	188.79	-2.60	1.90	 	 	 	 	 	 	 	 	 	 	 	 	 	 	 	 	 	 	1581485286	8.52	15.78
12/02/2020 05:28:07	120220	12022020	052807	188.39	13.191733	-57.053238	188.44	0.360	-0.730	2.120	188.30	-2.00	2.70	 	 	 	 	 	 	 	 	 	 	 	 	 	 	 	 	 	 	1581485287	8.51	15.76
12/02/2020 05:28:08	120220	12022020	052808	188.05	13.191697	-57.053247	188.17	-0.350	0.260	2.820	188.03	-1.00	3.30	 	 	 	 	 	 	 	 	 	 	 	 	 	 	 	 	 	 	1581485288	7.89	14.61
12/02/2020 05:28:09	120220	12022020	052809	188.09	13.191663	-57.053258	188.29	-1.150	1.050	3.110	188.09	-0.50	3.50	 	 	 	 	 	 	 	 	 	 	 	 	 	 	 	 	 	 	1581485289	7.49	13.87
12/02/2020 05:28:10	120220	12022020	052810	188.53	13.191632	-57.053272	188.78	-1.450	1.310	2.890	188.65	-0.10	3.30	 	 	 	 	 	 	 	 	 	 	 	 	 	 	 	 	 	 	1581485290	7.60	14.08
12/02/2020 05:28:11	120220	12022020	052811	189.13	13.191598	-57.053285	189.35	-0.930	0.820	2.270	189.24	-0.70	2.60	 	 	 	 	 	 	 	 	 	 	 	 	 	 	 	 	 	 	1581485291	7.78	14.41
12/02/2020 05:28:12	120220	12022020	052812	189.58	13.191562	-57.053297	189.75	0.260	-0.230	1.330	189.64	-1.80	1.70	 	 	 	 	 	 	 	 	 	 	 	 	 	 	 	 	 	 	1581485292	8.13	15.06
12/02/2020 05:28:13	120220	12022020	052813	189.75	13.191523	-57.053303	189.85	1.470	-1.100	0.390	189.74	-2.60	0.80	 	 	 	 	 	 	 	 	 	 	 	 	 	 	 	 	 	 	1581485293	8.53	15.80
12/02/2020 05:28:14	120220	12022020	052814	189.63	13.191483	-57.053305	189.70	1.960	-1.290	0.000	189.58	-2.70	0.50	 	 	 	 	 	 	 	 	 	 	 	 	 	 	 	 	 	 	1581485294	8.48	15.70
12/02/2020 05:28:15	120220	12022020	052815	189.40	13.191447	-57.053303	189.48	1.450	-1.030	0.340	189.36	-2.40	0.90	 	 	 	 	 	 	 	 	 	 	 	 	 	 	 	 	 	 	1581485295	7.91	14.65
12/02/2020 05:28:16	120220	12022020	052816	189.25	13.191412	-57.053307	189.38	0.390	-0.640	1.030	189.24	-2.00	1.60	 	 	 	 	 	 	 	 	 	 	 	 	 	 	 	 	 	 	1581485296	7.43	13.76
12/02/2020 05:28:17	120220	12022020	052817	189.19	13.191378	-57.053315	189.30	-0.610	-0.300	1.920	189.16	-1.70	2.50	 	 	 	 	 	 	 	 	 	 	 	 	 	 	 	 	 	 	1581485297	7.50	13.89
12/02/2020 05:28:18	120220	12022020	052818	188.98	13.191343	-57.053327	189.09	-1.230	-0.280	3.090	188.92	-1.70	3.70	 	 	 	 	 	 	 	 	 	 	 	 	 	 	 	 	 	 	1581485298	7.81	14.46
12/02/2020 05:28:19	120220	12022020	052819	188.68	13.191308	-57.053343	188.81	-1.440	-0.390	4.110	188.61	-1.80	4.60	 	 	 	 	 	 	 	 	 	 	 	 	 	 	 	 	 	 	1581485299	8.51	15.76
12/02/2020 05:28:20	120220	12022020	052820	188.30	13.191272	-57.053365	188.42	-1.190	-0.360	4.450	188.22	-1.70	4.90	 	 	 	 	 	 	 	 	 	 	 	 	 	 	 	 	 	 	1581485300	9.02	16.71
12/02/2020 05:28:21	120220	12022020	052821	187.97	13.191235	-57.053383	188.12	-0.540	0.070	3.980	187.94	-1.30	4.30	 	 	 	 	 	 	 	 	 	 	 	 	 	 	 	 	 	 	1581485301	8.84	16.37
12/02/2020 05:28:22	120220	12022020	052822	188.07	13.191198	-57.053395	188.28	0.290	0.720	2.520	188.15	-0.60	2.80	 	 	 	 	 	 	 	 	 	 	 	 	 	 	 	 	 	 	1581485302	8.13	15.06
12/02/2020 05:28:23	120220	12022020	052823	188.63	13.191163	-57.053397	188.85	0.830	1.010	0.690	188.77	-0.40	1.00	 	 	 	 	 	 	 	 	 	 	 	 	 	 	 	 	 	 	1581485303	7.55	13.98
12/02/2020 05:28:24	120220	12022020	052824	189.31	13.191128	-57.053390	189.47	0.900	0.470	-0.600	189.39	-1.10	-0.20	 	 	 	 	 	 	 	 	 	 	 	 	 	 	 	 	 	 	1581485304	7.77	14.39
12/02/2020 05:28:25	120220	12022020	052825	189.55	13.191090	-57.053387	189.61	0.710	-0.710	-0.550	189.52	-2.30	0.00	 	 	 	 	 	 	 	 	 	 	 	 	 	 	 	 	 	 	1581485305	8.19	15.17
12/02/2020 05:28:26	120220	12022020	052826	189.17	13.191050	-57.053390	189.18	0.530	-1.700	0.570	189.05	-3.20	1.20	 	 	 	 	 	 	 	 	 	 	 	 	 	 	 	 	 	 	1581485306	8.48	15.70
12/02/2020 05:28:27	120220	12022020	052827	188.53	13.191012	-57.053402	188.55	0.360	-1.630	1.970	188.40	-2.90	2.60	 	 	 	 	 	 	 	 	 	 	 	 	 	 	 	 	 	 	1581485307	8.57	15.87
12/02/2020 05:28:28	120220	12022020	052828	187.94	13.190978	-57.053415	187.99	0.110	-0.750	3.170	187.83	-2.00	3.70	 	 	 	 	 	 	 	 	 	 	 	 	 	 	 	 	 	 	1581485308	7.90	14.63
12/02/2020 05:28:29	120220	12022020	052829	187.48	13.190947	-57.053430	187.56	-0.170	-0.020	3.760	187.41	-1.40	4.20	 	 	 	 	 	 	 	 	 	 	 	 	 	 	 	 	 	 	1581485309	7.30	13.52
12/02/2020 05:28:30	120220	12022020	052830	187.21	13.190913	-57.053442	187.35	-0.390	0.090	3.730	187.20	-1.30	4.10	 	 	 	 	 	 	 	 	 	 	 	 	 	 	 	 	 	 	1581485310	7.53	13.95
12/02/2020 05:28:31	120220	12022020	052831	187.32	13.190877	-57.053453	187.53	-0.520	0.020	3.350	187.40	-1.40	3.70	 	 	 	 	 	 	 	 	 	 	 	 	 	 	 	 	 	 	1581485311	8.24	15.26
12/02/2020 05:28:32	120220	12022020	052832	187.82	13.190840	-57.053463	188.05	-0.540	0.260	2.630	187.95	-1.10	3.00	 	 	 	 	 	 	 	 	 	 	 	 	 	 	 	 	 	 	1581485312	8.40	15.56
12/02/2020 05:28:33	120220	12022020	052833	188.47	13.190803	-57.053472	188.68	-0.440	0.610	1.640	188.60	-0.80	2.00	 	 	 	 	 	 	 	 	 	 	 	 	 	 	 	 	 	 	1581485313	7.81	14.46
12/02/2020 05:28:34	120220	12022020	052834	189.03	13.190770	-57.053477	189.19	-0.100	0.460	0.580	189.12	-1.00	0.90	 	 	 	 	 	 	 	 	 	 	 	 	 	 	 	 	 	 	1581485314	7.35	13.61
12/02/2020 05:28:35	120220	12022020	052835	189.29	13.190735	-57.053478	189.37	0.460	-0.370	0.010	189.29	-1.60	0.50	 	 	 	 	 	 	 	 	 	 	 	 	 	 	 	 	 	 	1581485315	7.62	14.11
12/02/2020 05:28:36	120220	12022020	052836	189.20	13.190697	-57.053480	189.23	0.900	-1.240	0.100	189.15	-2.70	0.60	 	 	 	 	 	 	 	 	 	 	 	 	 	 	 	 	 	 	1581485316	8.34	15.45
12/02/2020 05:28:37	120220	12022020	052837	188.92	13.190657	-57.053485	188.95	0.860	-1.420	0.670	188.85	-2.80	1.20	 	 	 	 	 	 	 	 	 	 	 	 	 	 	 	 	 	 	1581485317	8.58	15.89
12/02/2020 05:28:38	120220	12022020	052838	188.63	13.190620	-57.053490	188.71	0.350	-0.720	1.490	188.60	-2.00	2.00	 	 	 	 	 	 	 	 	 	 	 	 	 	 	 	 	 	 	1581485318	8.07	14.95
12/02/2020 05:28:39	120220	12022020	052839	188.71	13.190587	-57.053500	188.88	-0.320	0.390	2.140	188.78	-0.90	2.60	 	 	 	 	 	 	 	 	 	 	 	 	 	 	 	 	 	 	1581485319	7.38	13.67
12/02/2020 05:28:40	120220	12022020	052840	189.11	13.190557	-57.053510	189.28	-0.740	0.940	2.490	189.17	-0.50	3.00	 	 	 	 	 	 	 	 	 	 	 	 	 	 	 	 	 	 	1581485320	6.92	12.82
12/02/2020 05:28:41	120220	12022020	052841	189.27	13.190523	-57.053522	189.37	-0.670	0.410	2.820	189.24	-1.10	3.30	 	 	 	 	 	 	 	 	 	 	 	 	 	 	 	 	 	 	1581485321	7.27	13.46
12/02/2020 05:28:42	120220	12022020	052842	188.96	13.190487	-57.053533	189.03	-0.240	-0.680	3.200	188.86	-2.20	3.70	 	 	 	 	 	 	 	 	 	 	 	 	 	 	 	 	 	 	1581485322	8.35	15.46
12/02/2020 05:28:43	120220	12022020	052843	188.55	13.190447	-57.053547	188.66	0.160	-1.250	3.230	188.50	-2.70	3.60	 	 	 	 	 	 	 	 	 	 	 	 	 	 	 	 	 	 	1581485323	9.14	16.93
12/02/2020 05:28:44	120220	12022020	052844	188.44	13.190407	-57.053558	188.58	0.310	-0.750	2.660	188.44	-2.10	3.00	 	 	 	 	 	 	 	 	 	 	 	 	 	 	 	 	 	 	1581485324	8.76	16.22
12/02/2020 05:28:45	120220	12022020	052845	188.47	13.190373	-57.053565	188.56	0.280	0.060	1.730	188.46	-1.30	2.10	 	 	 	 	 	 	 	 	 	 	 	 	 	 	 	 	 	 	1581485325	7.52	13.93
12/02/2020 05:28:46	120220	12022020	052846	188.46	13.190340	-57.053567	188.55	0.240	0.330	1.000	188.47	-1.10	1.40	 	 	 	 	 	 	 	 	 	 	 	 	 	 	 	 	 	 	1581485326	7.05	13.06
12/02/2020 05:28:47	120220	12022020	052847	188.52	13.190305	-57.053568	188.62	0.100	0.110	0.810	188.52	-1.20	1.30	 	 	 	 	 	 	 	 	 	 	 	 	 	 	 	 	 	 	1581485327	7.63	14.13
12/02/2020 05:28:48	120220	12022020	052848	188.58	13.190267	-57.053572	188.66	-0.170	-0.120	1.000	188.58	-1.60	1.50	 	 	 	 	 	 	 	 	 	 	 	 	 	 	 	 	 	 	1581485328	8.09	14.98
12/02/2020 05:28:49	120220	12022020	052849	188.59	13.190230	-57.053582	188.70	-0.410	-0.130	1.390	188.59	-1.60	1.70	 	 	 	 	 	 	 	 	 	 	 	 	 	 	 	 	 	 	1581485329	8.09	14.98
12/02/2020 05:28:50	120220	12022020	052850	188.66	13.190197	-57.053593	188.77	-0.400	-0.110	1.680	188.66	-1.50	2.20	 	 	 	 	 	 	 	 	 	 	 	 	 	 	 	 	 	 	1581485330	7.85	14.54
12/02/2020 05:28:51	120220	12022020	052851	188.58	13.190162	-57.053603	188.67	-0.080	-0.370	2.000	188.54	-1.80	2.50	 	 	 	 	 	 	 	 	 	 	 	 	 	 	 	 	 	 	1581485331	7.71	14.28
12/02/2020 05:28:52	120220	12022020	052852	188.42	13.190125	-57.053613	188.54	0.280	-0.640	2.210	188.41	-2.10	2.70	 	 	 	 	 	 	 	 	 	 	 	 	 	 	 	 	 	 	1581485332	8.06	14.93
12/02/2020 05:28:53	120220	12022020	052853	188.52	13.190088	-57.053623	188.69	0.430	-0.420	1.970	188.58	-1.80	2.40	 	 	 	 	 	 	 	 	 	 	 	 	 	 	 	 	 	 	1581485333	8.20	15.19
12/02/2020 05:28:54	120220	12022020	052854	188.87	13.190053	-57.053630	189.03	0.400	0.130	1.420	188.93	-1.20	1.80	 	 	 	 	 	 	 	 	 	 	 	 	 	 	 	 	 	 	1581485334	7.66	14.19
12/02/2020 05:28:55	120220	12022020	052855	189.06	13.190020	-57.053633	189.15	0.360	0.180	1.130	189.06	-1.30	1.60	 	 	 	 	 	 	 	 	 	 	 	 	 	 	 	 	 	 	1581485335	7.11	13.17
12/02/2020 05:28:56	120220	12022020	052856	188.95	13.189985	-57.053635	189.00	0.210	-0.450	1.370	188.89	-2.00	1.90	 	 	 	 	 	 	 	 	 	 	 	 	 	 	 	 	 	 	1581485336	7.55	13.98
12/02/2020 05:28:57	120220	12022020	052857	188.54	13.189947	-57.053640	188.55	-0.120	-1.200	2.120	188.42	-2.70	2.70	 	 	 	 	 	 	 	 	 	 	 	 	 	 	 	 	 	 	1581485337	8.33	15.43
12/02/2020 05:28:58	120220	12022020	052858	187.89	13.189908	-57.053652	187.91	-0.440	-1.490	3.100	187.75	-2.90	3.70	 	 	 	 	 	 	 	 	 	 	 	 	 	 	 	 	 	 	1581485338	8.72	16.15
12/02/2020 05:28:59	120220	12022020	052859	187.23	13.189870	-57.053665	187.29	-0.530	-1.130	3.750	187.11	-2.40	4.20	 	 	 	 	 	 	 	 	 	 	 	 	 	 	 	 	 	 	1581485339	8.69	16.09
12/02/2020 05:29:00	120220	12022020	052900	186.80	13.189833	-57.053680	186.93	-0.480	-0.220	3.790	186.76	-1.50	4.20	 	 	 	 	 	 	 	 	 	 	 	 	 	 	 	 	 	 	1581485340	8.36	15.48
12/02/2020 05:29:01	120220	12022020	052901	186.78	13.189798	-57.053692	186.98	-0.400	0.950	3.150	186.85	-0.30	3.50	1015.80	26.00	26.00	21.00	21.10	-1.0	74.0	74.0	408.0	25.6	255.00	10.90	66.00	12.50	16	8745.0	27.2	27.2	1581485341	7.86	14.56
12/02/2020 05:29:02	120220	12022020	052902	187.39	13.189765	-57.053700	187.65	-0.340	1.880	1.860	187.57	0.50	2.10	 	 	 	 	 	 	 	 	 	 	 	 	 	 	 	 	 	 	1581485342	7.30	13.52
12/02/2020 05:29:03	120220	12022020	052903	188.39	13.189733	-57.053702	188.62	-0.230	1.830	0.570	188.57	0.30	0.90	 	 	 	 	 	 	 	 	 	 	 	 	 	 	 	 	 	 	1581485343	7.02	13.00
12/02/2020 05:29:04	120220	12022020	052904	189.07	13.189698	-57.053702	189.16	0.130	0.410	0.070	189.11	-1.20	0.60	 	 	 	 	 	 	 	 	 	 	 	 	 	 	 	 	 	 	1581485344	7.42	13.74
12/02/2020 05:29:05	120220	12022020	052905	188.96	13.189660	-57.053707	188.96	0.720	-1.560	0.500	188.87	-3.20	1.10	 	 	 	 	 	 	 	 	 	 	 	 	 	 	 	 	 	 	1581485345	8.49	15.72
12/02/2020 05:29:06	120220	12022020	052906	188.41	13.189617	-57.053713	188.43	1.050	-2.520	1.320	188.31	-3.90	1.90	 	 	 	 	 	 	 	 	 	 	 	 	 	 	 	 	 	 	1581485346	9.24	17.11
12/02/2020 05:29:07	120220	12022020	052907	188.04	13.189578	-57.053722	188.14	0.780	-1.880	1.960	188.01	-3.10	2.50	 	 	 	 	 	 	 	 	 	 	 	 	 	 	 	 	 	 	1581485347	8.60	15.93
12/02/2020 05:29:08	120220	12022020	052908	188.04	13.189545	-57.053730	188.19	0.130	-0.550	2.190	188.06	-1.80	2.60	 	 	 	 	 	 	 	 	 	 	 	 	 	 	 	 	 	 	1581485348	7.19	13.32
12/02/2020 05:29:09	120220	12022020	052909	188.16	13.189517	-57.053738	188.29	-0.370	0.210	2.220	188.18	-1.20	2.70	 	 	 	 	 	 	 	 	 	 	 	 	 	 	 	 	 	 	1581485349	6.56	12.15
12/02/2020 05:29:10	120220	12022020	052910	188.23	13.189483	-57.053747	188.34	-0.510	0.170	2.290	188.23	-1.30	2.80	 	 	 	 	 	 	 	 	 	 	 	 	 	 	 	 	 	 	1581485350	7.28	13.48
12/02/2020 05:29:11	120220	12022020	052911	188.19	13.189445	-57.053755	188.29	-0.440	-0.090	2.450	188.18	-1.50	2.90	 	 	 	 	 	 	 	 	 	 	 	 	 	 	 	 	 	 	1581485351	8.28	15.33
12/02/2020 05:29:12	120220	12022020	052912	188.11	13.189407	-57.053765	188.23	-0.400	-0.110	2.550	188.11	-1.50	3.00	 	 	 	 	 	 	 	 	 	 	 	 	 	 	 	 	 	 	1581485352	8.63	15.98
12/02/2020 05:29:13	120220	12022020	052913	188.16	13.189368	-57.053773	188.33	-0.420	0.080	2.440	188.16	-1.40	2.90	 	 	 	 	 	 	 	 	 	 	 	 	 	 	 	 	 	 	1581485353	8.35	15.46
12/02/2020 05:29:14	120220	12022020	052914	188.34	13.189332	-57.053780	188.49	-0.430	0.210	2.230	188.37	-1.20	2.70	 	 	 	 	 	 	 	 	 	 	 	 	 	 	 	 	 	 	1581485354	7.99	14.80
12/02/2020 05:29:15	120220	12022020	052915	188.40	13.189297	-57.053787	188.50	-0.370	0.090	2.140	188.38	-1.30	2.60	 	 	 	 	 	 	 	 	 	 	 	 	 	 	 	 	 	 	1581485355	7.89	14.61
12/02/2020 05:29:16	120220	12022020	052916	188.26	13.189260	-57.053795	188.34	-0.240	-0.190	2.190	188.22	-1.60	2.60	 	 	 	 	 	 	 	 	 	 	 	 	 	 	 	 	 	 	1581485356	8.07	14.95
12/02/2020 05:29:17	120220	12022020	052917	188.09	13.189222	-57.053805	188.19	-0.010	-0.280	2.080	188.08	-1.70	2.50	 	 	 	 	 	 	 	 	 	 	 	 	 	 	 	 	 	 	1581485357	8.24	15.26
12/02/2020 05:29:18	120220	12022020	052918	188.18	13.189187	-57.053815	188.31	0.330	0.070	1.480	188.24	-1.30	1.80	 	 	 	 	 	 	 	 	 	 	 	 	 	 	 	 	 	 	1581485358	8.04	14.89
12/02/2020 05:29:19	120220	12022020	052919	188.54	13.189152	-57.053820	188.66	0.720	0.380	0.650	188.61	-1.00	1.00	 	 	 	 	 	 	 	 	 	 	 	 	 	 	 	 	 	 	1581485359	7.38	13.67
12/02/2020 05:29:20	120220	12022020	052920	188.85	13.189118	-57.053822	188.92	0.960	-0.050	0.160	188.87	-1.60	0.60	 	 	 	 	 	 	 	 	 	 	 	 	 	 	 	 	 	 	1581485360	7.22	13.37
12/02/2020 05:29:21	120220	12022020	052921	188.83	13.189082	-57.053822	188.87	0.850	-1.050	0.460	188.79	-2.60	1.00	 	 	 	 	 	 	 	 	 	 	 	 	 	 	 	 	 	 	1581485361	7.94	14.70
12/02/2020 05:29:22	120220	12022020	052922	188.58	13.189042	-57.053825	188.62	0.300	-1.820	1.580	188.51	-3.30	2.20	 	 	 	 	 	 	 	 	 	 	 	 	 	 	 	 	 	 	1581485362	8.68	16.08
12/02/2020 05:29:23	120220	12022020	052923	188.24	13.189002	-57.053837	188.31	-0.440	-1.720	2.960	188.16	-3.00	3.50	 	 	 	 	 	 	 	 	 	 	 	 	 	 	 	 	 	 	1581485363	8.77	16.24
12/02/2020 05:29:24	120220	12022020	052924	187.88	13.188967	-57.053853	187.97	-0.930	-0.780	3.940	187.81	-2.00	4.40	 	 	 	 	 	 	 	 	 	 	 	 	 	 	 	 	 	 	1581485364	8.41	15.58
12/02/2020 05:29:25	120220	12022020	052925	187.55	13.188933	-57.053868	187.66	-0.950	0.280	4.230	187.55	-1.30	4.70	 	 	 	 	 	 	 	 	 	 	 	 	 	 	 	 	 	 	1581485365	7.81	14.46
12/02/2020 05:29:26	120220	12022020	052926	187.41	13.188900	-57.053882	187.58	-0.700	0.900	3.910	187.42	-0.50	4.30	 	 	 	 	 	 	 	 	 	 	 	 	 	 	 	 	 	 	1581485366	7.58	14.04
12/02/2020 05:29:27	120220	12022020	052927	187.57	13.188865	-57.053888	187.76	-0.470	0.920	3.200	187.61	-0.50	3.60	 	 	 	 	 	 	 	 	 	 	 	 	 	 	 	 	 	 	1581485367	7.86	14.56
12/02/2020 05:29:28	120220	12022020	052928	187.86	13.188827	-57.053895	188.04	-0.240	0.550	2.400	187.92	-0.90	2.80	 	 	 	 	 	 	 	 	 	 	 	 	 	 	 	 	 	 	1581485368	8.21	15.20
12/02/2020 05:29:29	120220	12022020	052929	188.22	13.188788	-57.053902	188.40	0.160	0.230	1.540	188.31	-1.20	1.90	 	 	 	 	 	 	 	 	 	 	 	 	 	 	 	 	 	 	1581485369	8.36	15.48
12/02/2020 05:29:30	120220	12022020	052930	188.75	13.188752	-57.053905	188.94	0.760	0.100	0.400	188.87	-1.30	0.70	 	 	 	 	 	 	 	 	 	 	 	 	 	 	 	 	 	 	1581485370	8.11	15.02
12/02/2020 05:29:31	120220	12022020	052931	189.33	13.188715	-57.053907	189.49	1.230	-0.080	-0.550	189.43	-1.50	-0.10	 	 	 	 	 	 	 	 	 	 	 	 	 	 	 	 	 	 	1581485371	7.69	14.24
12/02/2020 05:29:32	120220	12022020	052932	189.61	13.188680	-57.053905	189.69	1.180	-0.760	-0.610	189.61	-2.30	-0.10	 	 	 	 	 	 	 	 	 	 	 	 	 	 	 	 	 	 	1581485372	7.62	14.11
12/02/2020 05:29:33	120220	12022020	052933	189.28	13.188643	-57.053905	189.26	0.580	-1.800	0.420	189.13	-3.30	1.10	 	 	 	 	 	 	 	 	 	 	 	 	 	 	 	 	 	 	1581485373	7.98	14.78
12/02/2020 05:29:34	120220	12022020	052934	188.32	13.188605	-57.053915	188.29	-0.300	-2.420	2.230	188.10	-3.80	2.90	 	 	 	 	 	 	 	 	 	 	 	 	 	 	 	 	 	 	1581485374	8.58	15.89
12/02/2020 05:29:35	120220	12022020	052935	187.33	13.188565	-57.053932	187.40	-1.030	-1.840	3.870	187.19	-3.00	4.50	 	 	 	 	 	 	 	 	 	 	 	 	 	 	 	 	 	 	1581485375	9.06	16.78
12/02/2020 05:29:36	120220	12022020	052936	186.99	13.188532	-57.053953	187.21	-1.260	-0.070	4.420	187.02	-1.20	4.80	 	 	 	 	 	 	 	 	 	 	 	 	 	 	 	 	 	 	1581485376	8.77	16.24
12/02/2020 05:29:37	120220	12022020	052937	187.38	13.188502	-57.053972	187.67	-0.990	1.470	3.790	187.38	-0.20	4.50	 	 	 	 	 	 	 	 	 	 	 	 	 	 	 	 	 	 	1581485377	7.45	13.80
12/02/2020 05:29:38	120220	12022020	052938	188.04	13.188470	-57.053980	188.30	-0.430	1.500	2.580	188.17	0.00	2.90	 	 	 	 	 	 	 	 	 	 	 	 	 	 	 	 	 	 	1581485378	6.90	12.78
12/02/2020 05:29:39	120220	12022020	052939	188.64	13.188432	-57.053983	188.83	0.110	0.380	1.420	188.64	-0.70	2.10	 	 	 	 	 	 	 	 	 	 	 	 	 	 	 	 	 	 	1581485379	8.14	15.08
12/02/2020 05:29:40	120220	12022020	052940	188.86	13.188390	-57.053987	188.95	0.450	-0.620	0.900	188.85	-2.10	1.40	 	 	 	 	 	 	 	 	 	 	 	 	 	 	 	 	 	 	1581485380	9.22	17.08
12/02/2020 05:29:41	120220	12022020	052941	188.69	13.188348	-57.053990	188.75	0.620	-0.630	0.850	188.64	-2.00	1.30	 	 	 	 	 	 	 	 	 	 	 	 	 	 	 	 	 	 	1581485381	8.94	16.56
12/02/2020 05:29:42	120220	12022020	052942	188.54	13.188312	-57.053995	188.62	0.660	0.160	0.830	188.53	-1.20	1.30	 	 	 	 	 	 	 	 	 	 	 	 	 	 	 	 	 	 	1581485382	7.82	14.48
12/02/2020 05:29:43	120220	12022020	052943	188.58	13.188280	-57.053998	188.67	0.540	0.700	0.770	188.59	-0.70	1.30	 	 	 	 	 	 	 	 	 	 	 	 	 	 	 	 	 	 	1581485383	6.79	12.58
12/02/2020 05:29:44	120220	12022020	052944	188.65	13.188250	-57.054003	188.73	0.300	0.190	0.990	188.65	-1.40	1.50	 	 	 	 	 	 	 	 	 	 	 	 	 	 	 	 	 	 	1581485384	6.80	12.59
12/02/2020 05:29:45	120220	12022020	052945	188.54	13.188213	-57.054008	188.61	0.020	-1.060	1.750	188.49	-2.60	2.30	 	 	 	 	 	 	 	 	 	 	 	 	 	 	 	 	 	 	1581485385	7.77	14.39
12/02/2020 05:29:46	120220	12022020	052946	188.19	13.188175	-57.054020	188.25	-0.270	-2.070	2.790	188.09	-3.50	3.40	 	 	 	 	 	 	 	 	 	 	 	 	 	 	 	 	 	 	1581485386	8.76	16.22
12/02/2020 05:29:47	120220	12022020	052947	187.69	13.188135	-57.054035	187.77	-0.520	-2.050	3.770	187.58	-3.40	4.30	 	 	 	 	 	 	 	 	 	 	 	 	 	 	 	 	 	 	1581485387	9.04	16.74
12/02/2020 05:29:48	120220	12022020	052948	187.22	13.188100	-57.054053	187.33	-0.540	-1.040	4.150	187.15	-2.30	4.60	 	 	 	 	 	 	 	 	 	 	 	 	 	 	 	 	 	 	1581485388	8.56	15.85
12/02/2020 05:29:49	120220	12022020	052949	187.01	13.188067	-57.054070	187.17	-0.190	0.230	3.470	187.01	-1.00	3.80	 	 	 	 	 	 	 	 	 	 	 	 	 	 	 	 	 	 	1581485389	7.69	14.24
12/02/2020 05:29:50	120220	12022020	052950	187.22	13.188035	-57.054075	187.42	0.290	0.980	2.050	187.31	-0.40	2.30	 	 	 	 	 	 	 	 	 	 	 	 	 	 	 	 	 	 	1581485390	7.17	13.28
12/02/2020 05:29:51	120220	12022020	052951	187.74	13.187998	-57.054073	187.93	0.490	0.880	0.810	187.85	-0.60	1.20	 	 	 	 	 	 	 	 	 	 	 	 	 	 	 	 	 	 	1581485391	7.69	14.24
12/02/2020 05:29:52	120220	12022020	052952	188.30	13.187960	-57.054070	188.48	0.290	0.330	0.120	188.39	-1.20	0.60	 	 	 	 	 	 	 	 	 	 	 	 	 	 	 	 	 	 	1581485392	8.39	15.54
12/02/2020 05:29:53	120220	12022020	052953	188.74	13.187920	-57.054072	188.87	-0.120	-0.110	0.120	188.78	-1.60	0.70	 	 	 	 	 	 	 	 	 	 	 	 	 	 	 	 	 	 	1581485393	8.50	15.74
12/02/2020 05:29:54	120220	12022020	052954	188.81	13.187883	-57.054077	188.87	-0.350	-0.430	0.870	188.77	-1.90	1.50	 	 	 	 	 	 	 	 	 	 	 	 	 	 	 	 	 	 	1581485394	8.06	14.93
12/02/2020 05:29:55	120220	12022020	052955	188.54	13.187848	-57.054087	188.59	-0.310	-0.820	1.900	188.46	-2.30	2.50	 	 	 	 	 	 	 	 	 	 	 	 	 	 	 	 	 	 	1581485395	7.90	14.63
12/02/2020 05:29:56	120220	12022020	052956	188.02	13.187812	-57.054098	188.05	-0.140	-1.050	2.990	187.89	-2.50	3.60	 	 	 	 	 	 	 	 	 	 	 	 	 	 	 	 	 	 	1581485396	8.20	15.19
12/02/2020 05:29:57	120220	12022020	052957	187.46	13.187775	-57.054113	187.56	-0.030	-0.810	3.670	187.40	-2.10	4.10	 	 	 	 	 	 	 	 	 	 	 	 	 	 	 	 	 	 	1581485397	8.38	15.52
12/02/2020 05:29:58	120220	12022020	052958	187.41	13.187740	-57.054127	187.61	-0.040	0.070	3.360	187.47	-1.20	3.70	 	 	 	 	 	 	 	 	 	 	 	 	 	 	 	 	 	 	1581485398	8.13	15.06
12/02/2020 05:29:59	120220	12022020	052959	187.86	13.187707	-57.054135	188.07	-0.040	0.940	2.320	187.97	-0.40	2.60	 	 	 	 	 	 	 	 	 	 	 	 	 	 	 	 	 	 	1581485399	7.24	13.41
12/02/2020 05:30:00	120220	12022020	053000	188.31	13.187677	-57.054140	188.45	0.220	0.850	1.140	188.37	-0.70	1.50	 	 	 	 	 	 	 	 	 	 	 	 	 	 	 	 	 	 	1581485400	6.83	12.65
12/02/2020 05:30:01	120220	12022020	053001	188.51	13.187640	-57.054142	188.63	0.680	-0.200	0.310	188.51	-1.30	0.90	1015.80	26.00	26.10	21.20	21.20	-1.0	74.0	74.0	407.0	25.6	252.00	9.90	61.00	11.90	16	8812.0	27.2	27.2	1581485401	7.65	14.17
12/02/2020 05:30:02	120220	12022020	053002	188.62	13.187600	-57.054142	188.75	0.890	-1.160	0.140	188.65	-2.60	0.60	 	 	 	 	 	 	 	 	 	 	 	 	 	 	 	 	 	 	1581485402	8.73	16.17
12/02/2020 05:30:03	120220	12022020	053003	188.80	13.187560	-57.054145	188.95	0.530	-1.220	0.440	188.80	-2.70	0.80	 	 	 	 	 	 	 	 	 	 	 	 	 	 	 	 	 	 	1581485403	8.70	16.11
12/02/2020 05:30:04	120220	12022020	053004	189.02	13.187523	-57.054153	189.16	-0.180	-0.570	0.930	189.05	-1.90	1.50	 	 	 	 	 	 	 	 	 	 	 	 	 	 	 	 	 	 	1581485404	7.78	14.41
12/02/2020 05:30:05	120220	12022020	053005	189.09	13.187493	-57.054162	189.20	-0.680	-0.130	1.540	189.08	-1.50	2.10	 	 	 	 	 	 	 	 	 	 	 	 	 	 	 	 	 	 	1581485405	7.05	13.06
12/02/2020 05:30:06	120220	12022020	053006	189.00	13.187460	-57.054173	189.10	-0.730	-0.310	2.130	188.97	-1.80	2.60	 	 	 	 	 	 	 	 	 	 	 	 	 	 	 	 	 	 	1581485406	7.35	13.61
12/02/2020 05:30:07	120220	12022020	053007	188.81	13.187423	-57.054185	188.90	-0.450	-0.720	2.640	188.76	-2.20	3.10	 	 	 	 	 	 	 	 	 	 	 	 	 	 	 	 	 	 	1581485407	8.23	15.24
12/02/2020 05:30:08	120220	12022020	053008	188.50	13.187385	-57.054197	188.59	-0.120	-0.870	2.900	188.43	-2.30	3.30	 	 	 	 	 	 	 	 	 	 	 	 	 	 	 	 	 	 	1581485408	8.71	16.13
12/02/2020 05:30:09	120220	12022020	053009	188.23	13.187347	-57.054207	188.34	0.070	-0.430	2.590	188.21	-1.80	3.00	 	 	 	 	 	 	 	 	 	 	 	 	 	 	 	 	 	 	1581485409	8.62	15.96
12/02/2020 05:30:10	120220	12022020	053010	188.31	13.187308	-57.054213	188.47	0.020	0.480	1.910	188.38	-0.80	2.30	 	 	 	 	 	 	 	 	 	 	 	 	 	 	 	 	 	 	1581485410	8.10	15.00
12/02/2020 05:30:11	120220	12022020	053011	188.76	13.187275	-57.054217	188.92	-0.260	1.280	1.350	188.86	-0.10	1.80	 	 	 	 	 	 	 	 	 	 	 	 	 	 	 	 	 	 	1581485411	7.42	13.74
12/02/2020 05:30:12	120220	12022020	053012	189.18	13.187242	-57.054220	189.29	-0.390	1.240	0.980	189.22	-0.30	1.40	 	 	 	 	 	 	 	 	 	 	 	 	 	 	 	 	 	 	1581485412	7.09	13.13
12/02/2020 05:30:13	120220	12022020	053013	189.22	13.187207	-57.054227	189.26	-0.070	0.320	0.910	189.18	-1.20	1.40	 	 	 	 	 	 	 	 	 	 	 	 	 	 	 	 	 	 	1581485413	7.59	14.06
12/02/2020 05:30:14	120220	12022020	053014	188.97	13.187168	-57.054237	189.01	0.510	-0.640	1.200	188.91	-2.10	1.70	 	 	 	 	 	 	 	 	 	 	 	 	 	 	 	 	 	 	1581485414	8.41	15.58
12/02/2020 05:30:15	120220	12022020	053015	188.72	13.187130	-57.054245	188.79	0.950	-0.990	1.460	188.72	-2.40	1.90	 	 	 	 	 	 	 	 	 	 	 	 	 	 	 	 	 	 	1581485415	8.49	15.72
12/02/2020 05:30:16	120220	12022020	053016	188.52	13.187095	-57.054253	188.58	0.960	-0.890	1.510	188.47	-2.30	2.00	 	 	 	 	 	 	 	 	 	 	 	 	 	 	 	 	 	 	1581485416	7.82	14.48
12/02/2020 05:30:17	120220	12022020	053017	188.32	13.187062	-57.054258	188.40	0.580	-0.770	1.650	188.30	-2.20	2.10	 	 	 	 	 	 	 	 	 	 	 	 	 	 	 	 	 	 	1581485417	7.35	13.61
12/02/2020 05:30:18	120220	12022020	053018	188.27	13.187027	-57.054265	188.41	0.010	-0.660	1.910	188.29	-2.10	2.40	 	 	 	 	 	 	 	 	 	 	 	 	 	 	 	 	 	 	1581485418	7.49	13.87
12/02/2020 05:30:19	120220	12022020	053019	188.43	13.186992	-57.054273	188.58	-0.500	-0.510	1.990	188.47	-1.90	2.40	 	 	 	 	 	 	 	 	 	 	 	 	 	 	 	 	 	 	1581485419	7.69	14.24
12/02/2020 05:30:20	120220	12022020	053020	188.56	13.186957	-57.054283	188.69	-0.680	-0.550	1.990	188.56	-2.00	2.40	 	 	 	 	 	 	 	 	 	 	 	 	 	 	 	 	 	 	1581485420	7.78	14.41
12/02/2020 05:30:21	120220	12022020	053021	188.44	13.186922	-57.054293	188.55	-0.490	-0.790	2.160	188.40	-2.20	2.60	 	 	 	 	 	 	 	 	 	 	 	 	 	 	 	 	 	 	1581485421	8.06	14.93
12/02/2020 05:30:22	120220	12022020	053022	188.19	13.186883	-57.054302	188.30	-0.180	-0.810	2.340	188.13	-2.20	2.80	 	 	 	 	 	 	 	 	 	 	 	 	 	 	 	 	 	 	1581485422	8.52	15.78
12/02/2020 05:30:23	120220	12022020	053023	187.96	13.186843	-57.054312	188.09	-0.070	-0.250	2.350	187.93	-1.60	2.80	 	 	 	 	 	 	 	 	 	 	 	 	 	 	 	 	 	 	1581485423	8.53	15.80
12/02/2020 05:30:24	120220	12022020	053024	187.89	13.186807	-57.054318	188.06	-0.230	0.660	2.200	187.92	-0.70	2.60	 	 	 	 	 	 	 	 	 	 	 	 	 	 	 	 	 	 	1581485424	8.02	14.85
12/02/2020 05:30:25	120220	12022020	053025	188.09	13.186773	-57.054323	188.26	-0.450	1.310	1.850	188.15	-0.10	2.30	 	 	 	 	 	 	 	 	 	 	 	 	 	 	 	 	 	 	1581485425	7.47	13.83
12/02/2020 05:30:26	120220	12022020	053026	188.37	13.186738	-57.054328	188.51	-0.460	1.160	1.640	188.41	-0.40	2.10	 	 	 	 	 	 	 	 	 	 	 	 	 	 	 	 	 	 	1581485426	7.39	13.69
12/02/2020 05:30:27	120220	12022020	053027	188.46	13.186703	-57.054335	188.54	-0.120	0.400	1.740	188.46	-0.80	2.20	 	 	 	 	 	 	 	 	 	 	 	 	 	 	 	 	 	 	1581485427	7.89	14.61
12/02/2020 05:30:28	120220	12022020	053028	188.36	13.186665	-57.054345	188.45	0.480	-0.390	1.730	188.33	-1.90	2.20	 	 	 	 	 	 	 	 	 	 	 	 	 	 	 	 	 	 	1581485428	8.37	15.50
12/02/2020 05:30:29	120220	12022020	053029	188.27	13.186627	-57.054353	188.38	1.030	-0.760	1.350	188.27	-2.10	1.90	 	 	 	 	 	 	 	 	 	 	 	 	 	 	 	 	 	 	1581485429	8.31	15.39
12/02/2020 05:30:30	120220	12022020	053030	188.28	13.186592	-57.054357	188.39	1.210	-0.870	0.850	188.30	-2.30	1.30	 	 	 	 	 	 	 	 	 	 	 	 	 	 	 	 	 	 	1581485430	7.84	14.52
12/02/2020 05:30:31	120220	12022020	053031	188.42	13.186555	-57.054358	188.55	0.880	-0.930	0.580	188.46	-2.40	1.10	 	 	 	 	 	 	 	 	 	 	 	 	 	 	 	 	 	 	1581485431	7.61	14.09
12/02/2020 05:30:32	120220	12022020	053032	188.55	13.186520	-57.054360	188.65	0.170	-1.080	1.050	188.54	-2.50	1.60	 	 	 	 	 	 	 	 	 	 	 	 	 	 	 	 	 	 	1581485432	7.59	14.06
12/02/2020 05:30:33	120220	12022020	053033	188.32	13.186485	-57.054367	188.37	-0.540	-1.380	2.240	188.22	-2.80	2.90	 	 	 	 	 	 	 	 	 	 	 	 	 	 	 	 	 	 	1581485433	7.77	14.39
12/02/2020 05:30:34	120220	12022020	053034	187.71	13.186448	-57.054382	187.75	-0.900	-1.480	3.530	187.57	-2.90	4.10	 	 	 	 	 	 	 	 	 	 	 	 	 	 	 	 	 	 	1581485434	8.45	15.65
12/02/2020 05:30:35	120220	12022020	053035	187.07	13.186410	-57.054398	187.16	-0.850	-0.950	4.280	186.98	-2.30	4.80	 	 	 	 	 	 	 	 	 	 	 	 	 	 	 	 	 	 	1581485435	8.92	16.52
12/02/2020 05:30:36	120220	12022020	053036	186.87	13.186373	-57.054413	187.06	-0.650	0.200	4.140	186.91	-1.10	4.50	 	 	 	 	 	 	 	 	 	 	 	 	 	 	 	 	 	 	1581485436	8.60	15.93
12/02/2020 05:30:37	120220	12022020	053037	187.25	13.186338	-57.054425	187.49	-0.520	1.400	3.150	187.38	0.10	3.50	 	 	 	 	 	 	 	 	 	 	 	 	 	 	 	 	 	 	1581485437	7.83	14.50
12/02/2020 05:30:38	120220	12022020	053038	187.98	13.186305	-57.054430	188.21	-0.370	1.950	1.650	188.16	0.50	1.90	 	 	 	 	 	 	 	 	 	 	 	 	 	 	 	 	 	 	1581485438	7.33	13.58
12/02/2020 05:30:39	120220	12022020	053039	188.92	13.186268	-57.054430	189.14	-0.010	1.670	0.020	189.12	0.10	0.30	 	 	 	 	 	 	 	 	 	 	 	 	 	 	 	 	 	 	1581485439	7.56	14.00
12/02/2020 05:30:40	120220	12022020	053040	189.76	13.186232	-57.054428	189.91	0.600	0.530	-0.910	189.88	-1.10	-0.50	 	 	 	 	 	 	 	 	 	 	 	 	 	 	 	 	 	 	1581485440	8.03	14.87
12/02/2020 05:30:41	120220	12022020	053041	190.07	13.186192	-57.054428	190.13	1.120	-1.080	-0.600	190.04	-2.70	0.00	 	 	 	 	 	 	 	 	 	 	 	 	 	 	 	 	 	 	1581485441	8.48	15.70
12/02/2020 05:30:42	120220	12022020	053042	189.67	13.186152	-57.054433	189.67	1.190	-2.290	0.730	189.53	-3.80	1.40	 	 	 	 	 	 	 	 	 	 	 	 	 	 	 	 	 	 	1581485442	8.74	16.19
12/02/2020 05:30:43	120220	12022020	053043	188.72	13.186113	-57.054443	188.69	0.780	-2.450	2.490	188.50	-3.80	3.20	 	 	 	 	 	 	 	 	 	 	 	 	 	 	 	 	 	 	1581485443	8.52	15.78
12/02/2020 05:30:44	120220	12022020	053044	187.66	13.186078	-57.054457	187.73	0.160	-1.680	3.790	187.51	-2.90	4.30	 	 	 	 	 	 	 	 	 	 	 	 	 	 	 	 	 	 	1581485444	8.01	14.83
12/02/2020 05:30:45	120220	12022020	053045	187.22	13.186047	-57.054470	187.43	-0.550	-0.340	4.120	187.24	-1.60	4.60	 	 	 	 	 	 	 	 	 	 	 	 	 	 	 	 	 	 	1581485445	7.66	14.19
12/02/2020 05:30:46	120220	12022020	053046	187.52	13.186015	-57.054482	187.81	-1.180	0.840	3.720	187.64	-0.50	4.10	 	 	 	 	 	 	 	 	 	 	 	 	 	 	 	 	 	 	1581485446	7.28	13.48
12/02/2020 05:30:47	120220	12022020	053047	188.20	13.185982	-57.054493	188.49	-1.470	1.190	2.790	188.35	-0.30	3.10	 	 	 	 	 	 	 	 	 	 	 	 	 	 	 	 	 	 	1581485447	7.25	13.43
12/02/2020 05:30:48	120220	12022020	053048	188.86	13.185947	-57.054503	189.07	-1.130	0.660	1.680	188.98	-0.90	2.00	 	 	 	 	 	 	 	 	 	 	 	 	 	 	 	 	 	 	1581485448	7.85	14.54
12/02/2020 05:30:49	120220	12022020	053049	189.31	13.185908	-57.054512	189.44	-0.140	-0.200	0.640	189.37	-1.70	1.00	 	 	 	 	 	 	 	 	 	 	 	 	 	 	 	 	 	 	1581485449	8.59	15.91
12/02/2020 05:30:50	120220	12022020	053050	189.45	13.185867	-57.054517	189.52	0.920	-0.690	0.120	189.44	-2.10	0.60	 	 	 	 	 	 	 	 	 	 	 	 	 	 	 	 	 	 	1581485450	8.92	16.52
12/02/2020 05:30:51	120220	12022020	053051	189.41	13.185827	-57.054518	189.48	1.260	-0.490	0.030	189.41	-2.00	0.50	 	 	 	 	 	 	 	 	 	 	 	 	 	 	 	 	 	 	1581485451	8.60	15.93
12/02/2020 05:30:52	120220	12022020	053052	189.45	13.185790	-57.054520	189.55	0.700	0.130	0.240	189.47	-1.20	0.80	 	 	 	 	 	 	 	 	 	 	 	 	 	 	 	 	 	 	1581485452	7.83	14.50
12/02/2020 05:30:53	120220	12022020	053053	189.57	13.185758	-57.054523	189.68	-0.150	0.520	0.770	189.57	-1.00	1.10	 	 	 	 	 	 	 	 	 	 	 	 	 	 	 	 	 	 	1581485453	7.13	13.20
12/02/2020 05:30:54	120220	12022020	053054	189.68	13.185725	-57.054533	189.79	-0.600	0.430	1.480	189.70	-1.00	2.00	 	 	 	 	 	 	 	 	 	 	 	 	 	 	 	 	 	 	1581485454	7.24	13.41
12/02/2020 05:30:55	120220	12022020	053055	189.80	13.185692	-57.054547	189.91	-0.450	-0.030	2.030	189.81	-1.50	2.50	 	 	 	 	 	 	 	 	 	 	 	 	 	 	 	 	 	 	1581485455	7.74	14.33
12/02/2020 05:30:56	120220	12022020	053056	189.69	13.185657	-57.054560	189.72	0.040	-0.770	2.430	189.60	-2.30	2.90	 	 	 	 	 	 	 	 	 	 	 	 	 	 	 	 	 	 	1581485456	8.05	14.91
12/02/2020 05:30:57	120220	12022020	053057	189.06	13.185620	-57.054573	189.04	0.530	-1.570	2.800	188.89	-3.10	3.30	 	 	 	 	 	 	 	 	 	 	 	 	 	 	 	 	 	 	1581485457	8.32	15.41
12/02/2020 05:30:58	120220	12022020	053058	188.29	13.185582	-57.054583	188.33	0.710	-1.750	2.840	188.18	-3.10	3.30	 	 	 	 	 	 	 	 	 	 	 	 	 	 	 	 	 	 	1581485458	8.64	16.00
12/02/2020 05:30:59	120220	12022020	053059	187.96	13.185542	-57.054590	188.09	0.480	-0.920	2.440	187.96	-2.20	2.80	 	 	 	 	 	 	 	 	 	 	 	 	 	 	 	 	 	 	1581485459	8.43	15.61
12/02/2020 05:31:00	120220	12022020	053100	188.11	13.185508	-57.054595	188.30	0.010	0.190	1.870	188.19	-1.10	2.30	 	 	 	 	 	 	 	 	 	 	 	 	 	 	 	 	 	 	1581485460	7.54	13.96
12/02/2020 05:31:01	120220	12022020	053101	188.55	13.185475	-57.054598	188.73	-0.420	0.740	1.470	188.64	-0.70	1.90	1015.80	26.10	26.10	21.60	21.60	-1.0	76.0	75.0	405.0	25.6	260.00	8.90	66.00	10.50	16	9332.0	27.2	27.2	1581485461	7.19	13.32
12/02/2020 05:31:02	120220	12022020	053102	188.92	13.185440	-57.054605	189.08	-0.650	0.630	1.420	188.98	-0.80	1.90	 	 	 	 	 	 	 	 	 	 	 	 	 	 	 	 	 	 	1581485462	7.67	14.20
12/02/2020 05:31:03	120220	12022020	053103	189.15	13.185402	-57.054615	189.27	-0.680	0.400	1.600	189.15	-1.00	2.00	 	 	 	 	 	 	 	 	 	 	 	 	 	 	 	 	 	 	1581485463	8.27	15.32
12/02/2020 05:31:04	120220	12022020	053104	189.25	13.185365	-57.054627	189.35	-0.580	0.290	1.770	189.26	-1.20	2.20	 	 	 	 	 	 	 	 	 	 	 	 	 	 	 	 	 	 	1581485464	8.29	15.35
12/02/2020 05:31:05	120220	12022020	053105	189.19	13.185330	-57.054637	189.26	-0.240	0.030	1.850	189.16	-1.50	2.30	 	 	 	 	 	 	 	 	 	 	 	 	 	 	 	 	 	 	1581485465	7.93	14.69
12/02/2020 05:31:06	120220	12022020	053106	189.02	13.185293	-57.054647	189.09	0.340	-0.510	1.830	188.99	-2.00	2.30	 	 	 	 	 	 	 	 	 	 	 	 	 	 	 	 	 	 	1581485466	7.91	14.65
12/02/2020 05:31:07	120220	12022020	053107	188.96	13.185257	-57.054653	189.10	0.870	-0.880	1.660	188.99	-2.30	2.10	 	 	 	 	 	 	 	 	 	 	 	 	 	 	 	 	 	 	1581485467	8.25	15.28
12/02/2020 05:31:08	120220	12022020	053108	189.19	13.185218	-57.054660	189.35	0.990	-0.850	1.460	189.24	-2.30	1.90	 	 	 	 	 	 	 	 	 	 	 	 	 	 	 	 	 	 	1581485468	8.20	15.19
12/02/2020 05:31:09	120220	12022020	053109	189.36	13.185183	-57.054665	189.48	0.700	-0.570	1.510	189.37	-2.00	2.00	 	 	 	 	 	 	 	 	 	 	 	 	 	 	 	 	 	 	1581485469	7.73	14.32
12/02/2020 05:31:10	120220	12022020	053110	189.26	13.185148	-57.054672	189.34	0.290	-0.340	1.880	189.22	-1.70	2.40	 	 	 	 	 	 	 	 	 	 	 	 	 	 	 	 	 	 	1581485470	7.46	13.82
12/02/2020 05:31:11	120220	12022020	053111	189.03	13.185115	-57.054680	189.11	-0.050	-0.190	2.210	188.98	-1.60	2.70	 	 	 	 	 	 	 	 	 	 	 	 	 	 	 	 	 	 	1581485471	7.63	14.13
12/02/2020 05:31:12	120220	12022020	053112	188.74	13.185078	-57.054688	188.81	-0.360	-0.230	2.600	188.67	-1.70	3.10	 	 	 	 	 	 	 	 	 	 	 	 	 	 	 	 	 	 	1581485472	7.86	14.56
12/02/2020 05:31:13	120220	12022020	053113	188.45	13.185042	-57.054698	188.57	-0.640	-0.290	2.990	188.43	-1.70	3.50	 	 	 	 	 	 	 	 	 	 	 	 	 	 	 	 	 	 	1581485473	8.17	15.13
12/02/2020 05:31:14	120220	12022020	053114	188.49	13.185005	-57.054710	188.68	-0.790	-0.110	2.980	188.55	-1.50	3.40	 	 	 	 	 	 	 	 	 	 	 	 	 	 	 	 	 	 	1581485474	8.36	15.48
12/02/2020 05:31:15	120220	12022020	053115	188.85	13.184970	-57.054723	189.04	-0.680	0.280	2.630	188.85	-1.20	3.20	 	 	 	 	 	 	 	 	 	 	 	 	 	 	 	 	 	 	1581485475	8.10	15.00
12/02/2020 05:31:16	120220	12022020	053116	189.23	13.184935	-57.054733	189.40	-0.220	0.460	1.930	189.31	-1.00	2.20	 	 	 	 	 	 	 	 	 	 	 	 	 	 	 	 	 	 	1581485476	7.72	14.30
12/02/2020 05:31:17	120220	12022020	053117	189.64	13.184900	-57.054740	189.79	0.330	0.290	0.960	189.64	-1.10	1.60	 	 	 	 	 	 	 	 	 	 	 	 	 	 	 	 	 	 	1581485477	7.68	14.22
12/02/2020 05:31:18	120220	12022020	053118	189.92	13.184863	-57.054743	190.01	0.640	-0.120	0.350	189.94	-1.60	0.80	 	 	 	 	 	 	 	 	 	 	 	 	 	 	 	 	 	 	1581485478	7.87	14.58
12/02/2020 05:31:19	120220	12022020	053119	189.84	13.184827	-57.054747	189.87	0.670	-0.680	0.350	189.84	-2.00	0.80	 	 	 	 	 	 	 	 	 	 	 	 	 	 	 	 	 	 	1581485479	7.93	14.69
12/02/2020 05:31:20	120220	12022020	053120	189.40	13.184790	-57.054752	189.40	0.550	-1.100	0.790	189.30	-2.50	1.30	 	 	 	 	 	 	 	 	 	 	 	 	 	 	 	 	 	 	1581485480	8.03	14.87
12/02/2020 05:31:21	120220	12022020	053121	188.87	13.184753	-57.054760	188.89	0.400	-1.170	1.410	188.77	-2.60	1.90	 	 	 	 	 	 	 	 	 	 	 	 	 	 	 	 	 	 	1581485481	8.08	14.96
12/02/2020 05:31:22	120220	12022020	053122	188.46	13.184717	-57.054770	188.53	0.220	-0.830	1.950	188.40	-2.20	2.40	 	 	 	 	 	 	 	 	 	 	 	 	 	 	 	 	 	 	1581485482	8.04	14.89
12/02/2020 05:31:23	120220	12022020	053123	188.35	13.184682	-57.054780	188.49	-0.100	-0.120	2.360	188.37	-1.40	2.80	 	 	 	 	 	 	 	 	 	 	 	 	 	 	 	 	 	 	1581485483	7.91	14.65
12/02/2020 05:31:24	120220	12022020	053124	188.57	13.184648	-57.054790	188.75	-0.530	0.590	2.480	188.64	-0.80	2.90	 	 	 	 	 	 	 	 	 	 	 	 	 	 	 	 	 	 	1581485484	7.61	14.09
12/02/2020 05:31:25	120220	12022020	053125	188.96	13.184615	-57.054800	189.12	-0.810	0.800	2.340	189.03	-0.70	2.70	 	 	 	 	 	 	 	 	 	 	 	 	 	 	 	 	 	 	1581485485	7.44	13.78
12/02/2020 05:31:26	120220	12022020	053126	189.16	13.184580	-57.054810	189.25	-0.630	0.250	2.240	189.15	-1.30	2.70	 	 	 	 	 	 	 	 	 	 	 	 	 	 	 	 	 	 	1581485486	7.71	14.28
12/02/2020 05:31:27	120220	12022020	053127	189.05	13.184542	-57.054820	189.12	-0.080	-0.620	2.150	189.02	-2.10	2.60	 	 	 	 	 	 	 	 	 	 	 	 	 	 	 	 	 	 	1581485487	8.41	15.58
12/02/2020 05:31:28	120220	12022020	053128	189.06	13.184502	-57.054828	189.20	0.240	-0.870	1.860	189.10	-2.30	2.30	 	 	 	 	 	 	 	 	 	 	 	 	 	 	 	 	 	 	1581485488	8.85	16.39
12/02/2020 05:31:29	120220	12022020	053129	189.37	13.184463	-57.054835	189.52	0.030	-0.340	1.600	189.44	-1.70	2.00	 	 	 	 	 	 	 	 	 	 	 	 	 	 	 	 	 	 	1581485489	8.23	15.24
12/02/2020 05:31:30	120220	12022020	053130	189.66	13.184432	-57.054843	189.73	-0.270	0.210	1.440	189.67	-1.20	1.90	 	 	 	 	 	 	 	 	 	 	 	 	 	 	 	 	 	 	1581485490	7.18	13.30
12/02/2020 05:31:31	120220	12022020	053131	189.53	13.184400	-57.054852	189.52	-0.050	-0.050	1.350	189.44	-1.60	1.80	 	 	 	 	 	 	 	 	 	 	 	 	 	 	 	 	 	 	1581485491	6.94	12.85
12/02/2020 05:31:32	120220	12022020	053132	189.02	13.184365	-57.054858	189.01	0.520	-0.760	1.530	188.92	-2.20	2.00	 	 	 	 	 	 	 	 	 	 	 	 	 	 	 	 	 	 	1581485492	7.84	14.52
12/02/2020 05:31:33	120220	12022020	053133	188.68	13.184325	-57.054865	188.78	0.710	-0.830	1.770	188.68	-2.20	2.20	 	 	 	 	 	 	 	 	 	 	 	 	 	 	 	 	 	 	1581485493	8.68	16.08
12/02/2020 05:31:34	120220	12022020	053134	188.91	13.184287	-57.054872	189.07	0.240	-0.070	1.830	188.99	-1.40	2.30	 	 	 	 	 	 	 	 	 	 	 	 	 	 	 	 	 	 	1581485494	8.23	15.24
12/02/2020 05:31:35	120220	12022020	053135	189.34	13.184255	-57.054880	189.49	-0.420	0.540	1.880	189.41	-0.90	2.30	 	 	 	 	 	 	 	 	 	 	 	 	 	 	 	 	 	 	1581485495	7.20	13.33
12/02/2020 05:31:36	120220	12022020	053136	189.55	13.184223	-57.054890	189.66	-0.460	0.210	2.040	189.56	-1.30	2.50	 	 	 	 	 	 	 	 	 	 	 	 	 	 	 	 	 	 	1581485496	7.16	13.26
12/02/2020 05:31:37	120220	12022020	053137	189.53	13.184187	-57.054902	189.62	0.180	-0.490	2.010	189.52	-2.00	2.40	 	 	 	 	 	 	 	 	 	 	 	 	 	 	 	 	 	 	1581485497	8.16	15.11
12/02/2020 05:31:38	120220	12022020	053138	189.50	13.184147	-57.054910	189.61	0.600	-0.720	2.040	189.50	-2.10	2.50	 	 	 	 	 	 	 	 	 	 	 	 	 	 	 	 	 	 	1581485498	8.69	16.09
12/02/2020 05:31:39	120220	12022020	053139	189.48	13.184110	-57.054917	189.59	0.280	-0.470	2.150	189.47	-1.90	2.60	 	 	 	 	 	 	 	 	 	 	 	 	 	 	 	 	 	 	1581485499	8.19	15.17
12/02/2020 05:31:40	120220	12022020	053140	189.33	13.184075	-57.054925	189.42	-0.440	-0.170	2.260	189.29	-1.60	2.70	 	 	 	 	 	 	 	 	 	 	 	 	 	 	 	 	 	 	1581485500	7.59	14.06
12/02/2020 05:31:41	120220	12022020	053141	189.11	13.184042	-57.054937	189.20	-0.820	-0.010	2.370	189.08	-1.40	2.80	 	 	 	 	 	 	 	 	 	 	 	 	 	 	 	 	 	 	1581485501	7.57	14.02
12/02/2020 05:31:42	120220	12022020	053142	188.99	13.184008	-57.054950	189.09	-0.570	0.040	2.340	188.97	-1.40	2.80	 	 	 	 	 	 	 	 	 	 	 	 	 	 	 	 	 	 	1581485502	7.77	14.39
12/02/2020 05:31:43	120220	12022020	053143	188.89	13.183973	-57.054960	188.99	0.000	-0.150	2.080	188.87	-1.60	2.50	 	 	 	 	 	 	 	 	 	 	 	 	 	 	 	 	 	 	1581485503	7.83	14.50
12/02/2020 05:31:44	120220	12022020	053144	188.76	13.183937	-57.054968	188.85	0.460	-0.500	1.790	188.74	-2.00	2.20	 	 	 	 	 	 	 	 	 	 	 	 	 	 	 	 	 	 	1581485504	8.02	14.85
12/02/2020 05:31:45	120220	12022020	053145	188.69	13.183898	-57.054975	188.82	0.550	-0.680	1.600	188.71	-2.10	2.00	 	 	 	 	 	 	 	 	 	 	 	 	 	 	 	 	 	 	1581485505	8.27	15.32
12/02/2020 05:31:46	120220	12022020	053146	188.92	13.183862	-57.054982	189.08	0.300	-0.410	1.520	188.98	-1.80	2.00	 	 	 	 	 	 	 	 	 	 	 	 	 	 	 	 	 	 	1581485506	8.20	15.19
12/02/2020 05:31:47	120220	12022020	053147	189.16	13.183827	-57.054987	189.27	-0.020	-0.040	1.680	189.16	-1.50	2.20	 	 	 	 	 	 	 	 	 	 	 	 	 	 	 	 	 	 	1581485507	7.68	14.22
12/02/2020 05:31:48	120220	12022020	053148	188.96	13.183792	-57.054995	189.00	-0.060	-0.190	2.140	188.87	-1.70	2.70	 	 	 	 	 	 	 	 	 	 	 	 	 	 	 	 	 	 	1581485508	7.45	13.80
12/02/2020 05:31:49	120220	12022020	053149	188.54	13.183755	-57.055003	188.63	0.050	-0.550	2.560	188.48	-2.00	3.00	 	 	 	 	 	 	 	 	 	 	 	 	 	 	 	 	 	 	1581485509	8.10	15.00
12/02/2020 05:31:50	120220	12022020	053150	188.39	13.183717	-57.055013	188.55	-0.110	-0.360	2.710	188.40	-1.70	3.20	 	 	 	 	 	 	 	 	 	 	 	 	 	 	 	 	 	 	1581485510	8.54	15.82
12/02/2020 05:31:51	120220	12022020	053151	188.49	13.183680	-57.055022	188.65	-0.570	0.230	2.660	188.51	-1.10	3.10	 	 	 	 	 	 	 	 	 	 	 	 	 	 	 	 	 	 	1581485511	7.97	14.76
12/02/2020 05:31:52	120220	12022020	053152	188.52	13.183648	-57.055032	188.64	-0.840	0.430	2.660	188.50	-1.00	3.10	 	 	 	 	 	 	 	 	 	 	 	 	 	 	 	 	 	 	1581485512	7.31	13.54
12/02/2020 05:31:53	120220	12022020	053153	188.38	13.183615	-57.055045	188.47	-0.470	-0.070	2.650	188.35	-1.60	3.10	 	 	 	 	 	 	 	 	 	 	 	 	 	 	 	 	 	 	1581485513	7.64	14.15
12/02/2020 05:31:54	120220	12022020	053154	188.27	13.183577	-57.055057	188.39	0.330	-0.550	2.350	188.28	-2.00	2.70	 	 	 	 	 	 	 	 	 	 	 	 	 	 	 	 	 	 	1581485514	8.43	15.61
12/02/2020 05:31:55	120220	12022020	053155	188.42	13.183538	-57.055065	188.57	0.910	-0.390	1.680	188.42	-1.90	2.30	 	 	 	 	 	 	 	 	 	 	 	 	 	 	 	 	 	 	1581485515	8.51	15.76
12/02/2020 05:31:56	120220	12022020	053156	188.79	13.183503	-57.055068	188.95	0.860	0.160	0.890	188.88	-1.20	1.30	 	 	 	 	 	 	 	 	 	 	 	 	 	 	 	 	 	 	1581485516	7.75	14.35
12/02/2020 05:31:57	120220	12022020	053157	189.19	13.183470	-57.055068	189.31	0.330	0.320	0.480	189.25	-1.10	0.90	 	 	 	 	 	 	 	 	 	 	 	 	 	 	 	 	 	 	1581485517	7.12	13.19
12/02/2020 05:31:58	120220	12022020	053158	189.35	13.183437	-57.055070	189.40	-0.190	-0.260	0.810	189.32	-1.80	1.40	 	 	 	 	 	 	 	 	 	 	 	 	 	 	 	 	 	 	1581485518	7.25	13.43
12/02/2020 05:31:59	120220	12022020	053159	189.04	13.183400	-57.055078	189.05	-0.370	-1.230	1.730	188.94	-2.80	2.30	 	 	 	 	 	 	 	 	 	 	 	 	 	 	 	 	 	 	1581485519	7.97	14.76
12/02/2020 05:32:00	120220	12022020	053200	188.43	13.183362	-57.055092	188.43	-0.210	-1.840	2.730	188.28	-3.30	3.30	 	 	 	 	 	 	 	 	 	 	 	 	 	 	 	 	 	 	1581485520	8.73	16.17
12/02/2020 05:32:01	120220	12022020	053201	187.74	13.183323	-57.055107	187.78	-0.020	-1.570	3.360	187.63	-2.90	3.80	1015.70	26.00	26.00	21.40	21.40	-1.0	75.0	75.0	403.0	25.6	263.00	9.40	70.00	10.70	16	8814.0	27.2	27.2	1581485521	8.86	16.41
12/02/2020 05:32:02	120220	12022020	053202	187.42	13.183287	-57.055118	187.56	-0.120	-0.410	3.270	187.43	-1.70	3.60	 	 	 	 	 	 	 	 	 	 	 	 	 	 	 	 	 	 	1581485522	8.31	15.39
12/02/2020 05:32:03	120220	12022020	053203	187.72	13.183253	-57.055127	187.95	-0.470	1.020	2.580	187.85	-0.30	2.90	 	 	 	 	 	 	 	 	 	 	 	 	 	 	 	 	 	 	1581485523	7.40	13.70
12/02/2020 05:32:04	120220	12022020	053204	188.33	13.183222	-57.055133	188.51	-0.700	1.640	1.700	188.44	0.20	2.10	 	 	 	 	 	 	 	 	 	 	 	 	 	 	 	 	 	 	1581485524	6.78	12.56
12/02/2020 05:32:05	120220	12022020	053205	188.71	13.183188	-57.055137	188.78	-0.500	0.910	1.220	188.73	-0.70	1.70	 	 	 	 	 	 	 	 	 	 	 	 	 	 	 	 	 	 	1581485525	7.24	13.41
12/02/2020 05:32:06	120220	12022020	053206	188.71	13.183148	-57.055142	188.74	-0.010	-0.300	1.290	188.68	-1.90	1.80	 	 	 	 	 	 	 	 	 	 	 	 	 	 	 	 	 	 	1581485526	8.49	15.72
12/02/2020 05:32:07	120220	12022020	053207	188.58	13.183108	-57.055152	188.65	0.420	-0.860	1.520	188.57	-2.30	2.00	 	 	 	 	 	 	 	 	 	 	 	 	 	 	 	 	 	 	1581485527	9.05	16.76
12/02/2020 05:32:08	120220	12022020	053208	188.61	13.183070	-57.055160	188.71	0.610	-0.470	1.440	188.64	-1.80	1.80	 	 	 	 	 	 	 	 	 	 	 	 	 	 	 	 	 	 	1581485528	8.36	15.48
12/02/2020 05:32:09	120220	12022020	053209	188.82	13.183037	-57.055167	188.92	0.580	0.060	1.090	188.82	-1.40	1.60	 	 	 	 	 	 	 	 	 	 	 	 	 	 	 	 	 	 	1581485529	7.21	13.35
12/02/2020 05:32:10	120220	12022020	053210	188.93	13.183005	-57.055168	188.99	0.410	-0.170	1.140	188.92	-1.70	1.70	 	 	 	 	 	 	 	 	 	 	 	 	 	 	 	 	 	 	1581485530	6.91	12.80
12/02/2020 05:32:11	120220	12022020	053211	188.66	13.182970	-57.055175	188.66	0.220	-1.060	1.840	188.55	-2.60	2.40	 	 	 	 	 	 	 	 	 	 	 	 	 	 	 	 	 	 	1581485531	7.66	14.19
12/02/2020 05:32:12	120220	12022020	053212	188.01	13.182932	-57.055185	188.01	0.120	-1.590	2.690	187.86	-3.00	3.20	 	 	 	 	 	 	 	 	 	 	 	 	 	 	 	 	 	 	1581485532	8.59	15.91
12/02/2020 05:32:13	120220	12022020	053213	187.39	13.182893	-57.055198	187.46	0.010	-1.000	3.220	187.31	-2.30	3.70	 	 	 	 	 	 	 	 	 	 	 	 	 	 	 	 	 	 	1581485533	8.66	16.04
12/02/2020 05:32:14	120220	12022020	053214	187.23	13.182858	-57.055208	187.39	-0.250	0.130	3.180	187.26	-1.20	3.60	 	 	 	 	 	 	 	 	 	 	 	 	 	 	 	 	 	 	1581485534	7.68	14.22
12/02/2020 05:32:15	120220	12022020	053215	187.46	13.182827	-57.055215	187.64	-0.600	0.600	2.770	187.52	-0.90	3.20	 	 	 	 	 	 	 	 	 	 	 	 	 	 	 	 	 	 	1581485535	7.01	12.98
12/02/2020 05:32:16	120220	12022020	053216	187.72	13.182792	-57.055223	187.88	-0.800	0.140	2.430	187.76	-1.40	2.80	 	 	 	 	 	 	 	 	 	 	 	 	 	 	 	 	 	 	1581485536	7.58	14.04
12/02/2020 05:32:17	120220	12022020	053217	187.87	13.182753	-57.055232	188.01	-0.620	-0.450	2.270	187.89	-1.90	2.70	 	 	 	 	 	 	 	 	 	 	 	 	 	 	 	 	 	 	1581485537	8.58	15.89
12/02/2020 05:32:18	120220	12022020	053218	187.87	13.182713	-57.055242	187.95	-0.130	-0.410	2.140	187.85	-1.80	2.60	 	 	 	 	 	 	 	 	 	 	 	 	 	 	 	 	 	 	1581485538	8.82	16.33
12/02/2020 05:32:19	120220	12022020	053219	187.76	13.182677	-57.055250	187.82	0.410	0.140	1.850	187.74	-1.20	2.30	 	 	 	 	 	 	 	 	 	 	 	 	 	 	 	 	 	 	1581485539	8.10	15.00
12/02/2020 05:32:20	120220	12022020	053220	187.67	13.182643	-57.055255	187.75	0.630	0.580	1.530	187.66	-0.80	2.00	 	 	 	 	 	 	 	 	 	 	 	 	 	 	 	 	 	 	1581485540	7.40	13.70
12/02/2020 05:32:21	120220	12022020	053221	187.63	13.182608	-57.055257	187.73	0.460	0.380	1.490	187.63	-1.10	2.00	 	 	 	 	 	 	 	 	 	 	 	 	 	 	 	 	 	 	1581485541	7.35	13.61
12/02/2020 05:32:22	120220	12022020	053222	187.58	13.182572	-57.055260	187.67	0.150	-0.310	1.690	187.55	-1.80	2.20	 	 	 	 	 	 	 	 	 	 	 	 	 	 	 	 	 	 	1581485542	7.80	14.45
12/02/2020 05:32:23	120220	12022020	053223	187.48	13.182535	-57.055268	187.60	-0.010	-0.990	1.980	187.48	-2.50	2.50	 	 	 	 	 	 	 	 	 	 	 	 	 	 	 	 	 	 	1581485543	8.28	15.33
12/02/2020 05:32:24	120220	12022020	053224	187.59	13.182497	-57.055277	187.77	-0.010	-1.080	2.130	187.64	-2.50	2.60	 	 	 	 	 	 	 	 	 	 	 	 	 	 	 	 	 	 	1581485544	8.44	15.63
12/02/2020 05:32:25	120220	12022020	053225	187.80	13.182462	-57.055287	187.96	0.010	-0.650	2.130	187.82	-2.00	2.60	 	 	 	 	 	 	 	 	 	 	 	 	 	 	 	 	 	 	1581485545	7.92	14.67
12/02/2020 05:32:26	120220	12022020	053226	187.74	13.182428	-57.055295	187.83	-0.030	-0.380	2.220	187.68	-1.80	2.70	 	 	 	 	 	 	 	 	 	 	 	 	 	 	 	 	 	 	1581485546	7.32	13.56
12/02/2020 05:32:27	120220	12022020	053227	187.38	13.182393	-57.055302	187.47	-0.090	-0.500	2.440	187.30	-2.00	2.90	 	 	 	 	 	 	 	 	 	 	 	 	 	 	 	 	 	 	1581485547	7.56	14.00
12/02/2020 05:32:28	120220	12022020	053228	187.07	13.182355	-57.055308	187.18	-0.170	-0.420	2.560	187.03	-1.80	3.00	 	 	 	 	 	 	 	 	 	 	 	 	 	 	 	 	 	 	1581485548	8.23	15.24
12/02/2020 05:32:29	120220	12022020	053229	186.94	13.182318	-57.055318	187.08	-0.250	0.220	2.610	186.94	-1.10	3.10	 	 	 	 	 	 	 	 	 	 	 	 	 	 	 	 	 	 	1581485549	8.22	15.22
12/02/2020 05:32:30	120220	12022020	053230	186.95	13.182283	-57.055325	187.11	-0.230	0.680	2.510	186.97	-0.70	2.90	 	 	 	 	 	 	 	 	 	 	 	 	 	 	 	 	 	 	1581485550	7.56	14.00
12/02/2020 05:32:31	120220	12022020	053231	187.07	13.182250	-57.055332	187.23	-0.050	0.410	2.130	187.07	-0.90	2.70	 	 	 	 	 	 	 	 	 	 	 	 	 	 	 	 	 	 	1581485551	7.52	13.93
12/02/2020 05:32:32	120220	12022020	053232	187.29	13.182212	-57.055338	187.48	0.280	-0.240	1.760	187.36	-1.70	2.20	 	 	 	 	 	 	 	 	 	 	 	 	 	 	 	 	 	 	1581485552	8.19	15.17
12/02/2020 05:32:33	120220	12022020	053233	187.66	13.182173	-57.055345	187.86	0.510	-0.570	1.420	187.66	-2.00	2.00	 	 	 	 	 	 	 	 	 	 	 	 	 	 	 	 	 	 	1581485553	8.55	15.83
12/02/2020 05:32:34	120220	12022020	053234	188.10	13.182135	-57.055350	188.28	0.430	-0.410	1.070	188.17	-1.80	1.50	 	 	 	 	 	 	 	 	 	 	 	 	 	 	 	 	 	 	1581485554	8.13	15.06
12/02/2020 05:32:35	120220	12022020	053235	188.44	13.182102	-57.055353	188.60	0.080	-0.130	0.860	188.50	-1.50	1.30	 	 	 	 	 	 	 	 	 	 	 	 	 	 	 	 	 	 	1581485555	7.46	13.82
12/02/2020 05:32:36	120220	12022020	053236	188.66	13.182068	-57.055358	188.81	-0.280	-0.160	1.080	188.69	-1.60	1.60	 	 	 	 	 	 	 	 	 	 	 	 	 	 	 	 	 	 	1581485556	7.20	13.33
12/02/2020 05:32:37	120220	12022020	053237	188.69	13.182033	-57.055367	188.79	-0.360	-0.600	1.590	188.65	-2.10	2.10	 	 	 	 	 	 	 	 	 	 	 	 	 	 	 	 	 	 	1581485557	7.51	13.91
12/02/2020 05:32:38	120220	12022020	053238	188.33	13.181997	-57.055377	188.36	-0.080	-1.180	2.240	188.21	-2.70	2.80	 	 	 	 	 	 	 	 	 	 	 	 	 	 	 	 	 	 	1581485558	8.11	15.02
12/02/2020 05:32:39	120220	12022020	053239	187.66	13.181958	-57.055388	187.69	0.300	-1.370	2.950	187.52	-2.70	3.50	 	 	 	 	 	 	 	 	 	 	 	 	 	 	 	 	 	 	1581485559	8.62	15.96
12/02/2020 05:32:40	120220	12022020	053240	187.13	13.181920	-57.055398	187.26	0.300	-0.590	3.320	187.09	-1.80	3.80	 	 	 	 	 	 	 	 	 	 	 	 	 	 	 	 	 	 	1581485560	8.63	15.98
12/02/2020 05:32:41	120220	12022020	053241	187.22	13.181885	-57.055405	187.45	-0.160	0.820	3.060	187.32	-0.40	3.40	 	 	 	 	 	 	 	 	 	 	 	 	 	 	 	 	 	 	1581485561	7.80	14.45
12/02/2020 05:32:42	120220	12022020	053242	187.78	13.181853	-57.055412	187.99	-0.570	1.630	2.330	187.89	0.20	2.70	 	 	 	 	 	 	 	 	 	 	 	 	 	 	 	 	 	 	1581485562	6.85	12.69
12/02/2020 05:32:43	120220	12022020	053243	188.22	13.181822	-57.055417	188.36	-0.390	1.020	1.630	188.22	-0.20	2.20	 	 	 	 	 	 	 	 	 	 	 	 	 	 	 	 	 	 	1581485563	7.02	13.00
12/02/2020 05:32:44	120220	12022020	053244	188.41	13.181783	-57.055423	188.51	0.160	-0.350	1.340	188.44	-1.90	1.80	 	 	 	 	 	 	 	 	 	 	 	 	 	 	 	 	 	 	1581485564	8.30	15.37
12/02/2020 05:32:45	120220	12022020	053245	188.58	13.181742	-57.055430	188.71	0.420	-1.140	1.340	188.58	-2.50	1.80	 	 	 	 	 	 	 	 	 	 	 	 	 	 	 	 	 	 	1581485565	9.10	16.85
12/02/2020 05:32:46	120220	12022020	053246	188.79	13.181703	-57.055438	188.92	0.210	-0.940	1.360	188.82	-2.30	1.80	 	 	 	 	 	 	 	 	 	 	 	 	 	 	 	 	 	 	1581485566	8.43	15.61
12/02/2020 05:32:47	120220	12022020	053247	188.79	13.181670	-57.055447	188.86	-0.030	-0.670	1.510	188.74	-2.10	2.00	 	 	 	 	 	 	 	 	 	 	 	 	 	 	 	 	 	 	1581485567	7.26	13.45
12/02/2020 05:32:48	120220	12022020	053248	188.44	13.181637	-57.055455	188.49	0.100	-0.870	1.820	188.36	-2.30	2.30	 	 	 	 	 	 	 	 	 	 	 	 	 	 	 	 	 	 	1581485568	7.23	13.39
12/02/2020 05:32:49	120220	12022020	053249	188.04	13.181600	-57.055463	188.14	0.350	-0.890	2.210	187.99	-2.20	2.70	 	 	 	 	 	 	 	 	 	 	 	 	 	 	 	 	 	 	1581485569	8.10	15.00
12/02/2020 05:32:50	120220	12022020	053250	188.01	13.181563	-57.055470	188.18	0.250	-0.250	2.340	188.05	-1.50	2.80	 	 	 	 	 	 	 	 	 	 	 	 	 	 	 	 	 	 	1581485570	8.33	15.43
12/02/2020 05:32:51	120220	12022020	053251	188.37	13.181527	-57.055477	188.58	-0.250	0.660	2.350	188.46	-0.70	2.80	 	 	 	 	 	 	 	 	 	 	 	 	 	 	 	 	 	 	1581485571	7.68	14.22
12/02/2020 05:32:52	120220	12022020	053252	188.75	13.181495	-57.055485	188.91	-0.700	1.000	2.430	188.78	-0.40	2.90	 	 	 	 	 	 	 	 	 	 	 	 	 	 	 	 	 	 	1581485572	7.14	13.22
12/02/2020 05:32:53	120220	12022020	053253	188.76	13.181462	-57.055493	188.88	-0.620	0.430	2.590	188.74	-1.10	3.00	 	 	 	 	 	 	 	 	 	 	 	 	 	 	 	 	 	 	1581485573	7.48	13.85
12/02/2020 05:32:54	120220	12022020	053254	188.67	13.181423	-57.055503	188.82	-0.130	-0.330	2.450	188.69	-1.80	2.80	 	 	 	 	 	 	 	 	 	 	 	 	 	 	 	 	 	 	1581485574	8.39	15.54
12/02/2020 05:32:55	120220	12022020	053255	188.83	13.181385	-57.055512	188.99	0.270	-0.610	1.860	188.83	-2.00	2.50	 	 	 	 	 	 	 	 	 	 	 	 	 	 	 	 	 	 	1581485575	8.62	15.96
12/02/2020 05:32:56	120220	12022020	053256	188.93	13.181348	-57.055518	189.04	0.320	-0.670	1.390	188.91	-2.10	1.80	 	 	 	 	 	 	 	 	 	 	 	 	 	 	 	 	 	 	1581485576	7.96	14.74
12/02/2020 05:32:57	120220	12022020	053257	188.61	13.181313	-57.055523	188.64	0.220	-0.940	1.570	188.61	-2.30	1.90	 	 	 	 	 	 	 	 	 	 	 	 	 	 	 	 	 	 	1581485577	7.57	14.02
12/02/2020 05:32:58	120220	12022020	053258	187.96	13.181277	-57.055532	188.00	0.220	-1.200	2.130	187.84	-2.60	2.60	 	 	 	 	 	 	 	 	 	 	 	 	 	 	 	 	 	 	1581485578	7.93	14.69
12/02/2020 05:32:59	120220	12022020	053259	187.53	13.181240	-57.055542	187.67	0.230	-0.780	2.530	187.50	-2.10	3.00	 	 	 	 	 	 	 	 	 	 	 	 	 	 	 	 	 	 	1581485579	8.36	15.48
12/02/2020 05:33:00	120220	12022020	053300	187.62	13.181203	-57.055550	187.85	0.020	0.220	2.690	187.69	-1.10	3.10	 	 	 	 	 	 	 	 	 	 	 	 	 	 	 	 	 	 	1581485580	7.98	14.78
12/02/2020 05:33:01	120220	12022020	053301	188.08	13.181170	-57.055558	188.32	-0.400	0.990	2.610	188.18	-0.40	3.00	1015.70	26.00	26.00	21.20	21.30	-1.0	75.0	75.0	401.0	25.6	263.00	10.50	71.00	11.70	16	8947.0	27.2	27.2	1581485581	7.26	13.45
12/02/2020 05:33:02	120220	12022020	053302	188.60	13.181138	-57.055567	188.82	-0.710	1.020	2.250	188.69	-0.50	2.60	 	 	 	 	 	 	 	 	 	 	 	 	 	 	 	 	 	 	1581485582	7.19	13.32
12/02/2020 05:33:03	120220	12022020	053303	188.96	13.181103	-57.055575	189.12	-0.530	0.290	1.710	189.00	-1.20	2.10	 	 	 	 	 	 	 	 	 	 	 	 	 	 	 	 	 	 	1581485583	7.73	14.32
12/02/2020 05:33:04	120220	12022020	053304	189.09	13.181065	-57.055583	189.22	0.090	-0.570	1.200	189.11	-2.10	1.60	 	 	 	 	 	 	 	 	 	 	 	 	 	 	 	 	 	 	1581485584	8.38	15.52
12/02/2020 05:33:05	120220	12022020	053305	189.11	13.181027	-57.055588	189.22	0.660	-0.900	0.830	189.10	-2.30	1.30	 	 	 	 	 	 	 	 	 	 	 	 	 	 	 	 	 	 	1581485585	8.51	15.76
12/02/2020 05:33:06	120220	12022020	053306	188.96	13.180988	-57.055592	189.01	0.670	-0.750	0.850	188.89	-2.10	1.40	 	 	 	 	 	 	 	 	 	 	 	 	 	 	 	 	 	 	1581485586	7.98	14.78
12/02/2020 05:33:07	120220	12022020	053307	188.53	13.180955	-57.055597	188.55	0.220	-0.570	1.500	188.42	-2.00	2.10	 	 	 	 	 	 	 	 	 	 	 	 	 	 	 	 	 	 	1581485587	7.39	13.69
12/02/2020 05:33:08	120220	12022020	053308	187.95	13.180922	-57.055605	187.99	-0.220	-0.670	2.440	187.83	-2.10	3.00	 	 	 	 	 	 	 	 	 	 	 	 	 	 	 	 	 	 	1581485588	7.47	13.83
12/02/2020 05:33:09	120220	12022020	053309	187.41	13.180885	-57.055618	187.46	-0.260	-0.870	3.150	187.41	-2.20	3.50	 	 	 	 	 	 	 	 	 	 	 	 	 	 	 	 	 	 	1581485589	8.14	15.08
12/02/2020 05:33:10	120220	12022020	053310	186.93	13.180848	-57.055632	187.03	-0.010	-0.730	3.520	186.87	-2.10	4.00	 	 	 	 	 	 	 	 	 	 	 	 	 	 	 	 	 	 	1581485590	8.58	15.89
12/02/2020 05:33:11	120220	12022020	053311	186.84	13.180810	-57.055643	187.04	0.120	-0.050	3.170	186.90	-1.30	3.50	 	 	 	 	 	 	 	 	 	 	 	 	 	 	 	 	 	 	1581485591	8.40	15.56
12/02/2020 05:33:12	120220	12022020	053312	187.42	13.180775	-57.055650	187.69	-0.150	0.910	2.190	187.58	-0.40	2.50	 	 	 	 	 	 	 	 	 	 	 	 	 	 	 	 	 	 	1581485592	7.74	14.33
12/02/2020 05:33:13	120220	12022020	053313	188.33	13.180742	-57.055653	188.58	-0.590	1.430	1.260	188.50	0.00	1.60	 	 	 	 	 	 	 	 	 	 	 	 	 	 	 	 	 	 	1581485593	7.09	13.13
12/02/2020 05:33:14	120220	12022020	053314	189.10	13.180710	-57.055657	189.28	-0.710	0.990	0.800	189.21	-0.50	1.20	 	 	 	 	 	 	 	 	 	 	 	 	 	 	 	 	 	 	1581485594	7.04	13.04
12/02/2020 05:33:15	120220	12022020	053315	189.52	13.180675	-57.055662	189.65	-0.300	-0.190	0.780	189.56	-1.80	1.30	 	 	 	 	 	 	 	 	 	 	 	 	 	 	 	 	 	 	1581485595	7.71	14.28
12/02/2020 05:33:16	120220	12022020	053316	189.56	13.180637	-57.055670	189.64	0.410	-1.420	1.200	189.51	-2.90	1.70	 	 	 	 	 	 	 	 	 	 	 	 	 	 	 	 	 	 	1581485596	8.45	15.65
12/02/2020 05:33:17	120220	12022020	053317	189.17	13.180597	-57.055682	189.20	1.030	-2.020	1.780	189.06	-3.40	2.30	 	 	 	 	 	 	 	 	 	 	 	 	 	 	 	 	 	 	1581485597	8.61	15.95
12/02/2020 05:33:18	120220	12022020	053318	188.54	13.180560	-57.055690	188.57	1.220	-1.650	2.100	188.41	-2.90	2.60	 	 	 	 	 	 	 	 	 	 	 	 	 	 	 	 	 	 	1581485598	8.22	15.22
12/02/2020 05:33:19	120220	12022020	053319	188.00	13.180525	-57.055695	188.09	0.780	-0.570	2.260	187.92	-1.80	2.70	 	 	 	 	 	 	 	 	 	 	 	 	 	 	 	 	 	 	1581485599	7.58	14.04
12/02/2020 05:33:20	120220	12022020	053320	187.71	13.180492	-57.055697	187.84	-0.140	0.310	2.500	187.68	-1.00	3.00	 	 	 	 	 	 	 	 	 	 	 	 	 	 	 	 	 	 	1581485600	7.08	13.11
12/02/2020 05:33:21	120220	12022020	053321	187.63	13.180458	-57.055703	187.81	-1.060	0.500	2.840	187.63	-0.90	3.20	 	 	 	 	 	 	 	 	 	 	 	 	 	 	 	 	 	 	1581485601	7.29	13.50
12/02/2020 05:33:22	120220	12022020	053322	187.75	13.180423	-57.055715	187.97	-1.480	0.340	3.220	187.80	-1.10	3.70	 	 	 	 	 	 	 	 	 	 	 	 	 	 	 	 	 	 	1581485602	8.18	15.15
12/02/2020 05:33:23	120220	12022020	053323	188.09	13.180385	-57.055732	188.36	-1.230	0.370	3.200	188.09	-1.10	3.70	 	 	 	 	 	 	 	 	 	 	 	 	 	 	 	 	 	 	1581485603	8.71	16.13
12/02/2020 05:33:24	120220	12022020	053324	188.66	13.180350	-57.055747	188.93	-0.520	0.590	2.370	188.79	-0.80	2.70	 	 	 	 	 	 	 	 	 	 	 	 	 	 	 	 	 	 	1581485604	8.37	15.50
12/02/2020 05:33:25	120220	12022020	053325	189.32	13.180315	-57.055757	189.55	0.340	0.610	1.020	189.43	-0.80	1.30	 	 	 	 	 	 	 	 	 	 	 	 	 	 	 	 	 	 	1581485605	7.63	14.13
12/02/2020 05:33:26	120220	12022020	053326	189.82	13.180280	-57.055758	189.98	1.000	0.190	-0.130	189.88	-1.30	0.20	 	 	 	 	 	 	 	 	 	 	 	 	 	 	 	 	 	 	1581485606	7.49	13.87
12/02/2020 05:33:27	120220	12022020	053327	190.01	13.180245	-57.055757	190.13	1.190	-0.440	-0.530	190.02	-1.90	-0.10	 	 	 	 	 	 	 	 	 	 	 	 	 	 	 	 	 	 	1581485607	7.83	14.50
12/02/2020 05:33:28	120220	12022020	053328	189.86	13.180208	-57.055757	189.91	0.910	-1.060	-0.110	189.77	-2.60	0.50	 	 	 	 	 	 	 	 	 	 	 	 	 	 	 	 	 	 	1581485608	7.91	14.65
12/02/2020 05:33:29	120220	12022020	053329	189.31	13.180172	-57.055762	189.33	0.460	-1.690	1.110	189.16	-3.10	1.70	 	 	 	 	 	 	 	 	 	 	 	 	 	 	 	 	 	 	1581485609	7.82	14.48
12/02/2020 05:33:30	120220	12022020	053330	188.55	13.180135	-57.055773	188.60	0.110	-1.870	2.560	188.39	-3.20	3.20	 	 	 	 	 	 	 	 	 	 	 	 	 	 	 	 	 	 	1581485610	8.18	15.15
12/02/2020 05:33:31	120220	12022020	053331	187.87	13.180098	-57.055788	187.98	-0.060	-1.290	3.520	187.76	-2.60	4.00	 	 	 	 	 	 	 	 	 	 	 	 	 	 	 	 	 	 	1581485611	8.38	15.52
12/02/2020 05:33:32	120220	12022020	053332	187.47	13.180065	-57.055802	187.63	-0.180	-0.240	3.830	187.42	-1.50	4.30	 	 	 	 	 	 	 	 	 	 	 	 	 	 	 	 	 	 	1581485612	7.98	14.78
12/02/2020 05:33:33	120220	12022020	053333	187.39	13.180030	-57.055812	187.61	-0.450	0.810	3.590	187.39	-0.80	4.10	 	 	 	 	 	 	 	 	 	 	 	 	 	 	 	 	 	 	1581485613	7.58	14.04
12/02/2020 05:33:34	120220	12022020	053334	187.81	13.179997	-57.055818	188.11	-0.940	1.590	2.940	187.96	0.30	3.30	 	 	 	 	 	 	 	 	 	 	 	 	 	 	 	 	 	 	1581485614	7.48	13.85
12/02/2020 05:33:35	120220	12022020	053335	188.67	13.179963	-57.055825	188.99	-1.300	1.800	2.100	188.67	0.40	2.80	 	 	 	 	 	 	 	 	 	 	 	 	 	 	 	 	 	 	1581485615	7.34	13.59
12/02/2020 05:33:36	120220	12022020	053336	189.52	13.179930	-57.055833	189.73	-1.010	0.960	1.260	189.63	-0.60	1.60	 	 	 	 	 	 	 	 	 	 	 	 	 	 	 	 	 	 	1581485616	7.34	13.59
12/02/2020 05:33:37	120220	12022020	053337	189.83	13.179893	-57.055842	189.94	0.080	-0.810	0.770	189.82	-2.40	1.20	 	 	 	 	 	 	 	 	 	 	 	 	 	 	 	 	 	 	1581485617	7.95	14.72
12/02/2020 05:33:38	120220	12022020	053338	189.59	13.179852	-57.055850	189.65	1.320	-2.210	0.790	189.51	-3.70	1.30	 	 	 	 	 	 	 	 	 	 	 	 	 	 	 	 	 	 	1581485618	8.99	16.65
12/02/2020 05:33:39	120220	12022020	053339	189.20	13.179812	-57.055857	189.28	1.860	-2.040	0.840	189.14	-3.30	1.30	 	 	 	 	 	 	 	 	 	 	 	 	 	 	 	 	 	 	1581485619	8.95	16.58
12/02/2020 05:33:40	120220	12022020	053340	189.05	13.179777	-57.055860	189.18	1.390	-0.670	0.620	189.06	-1.90	1.10	 	 	 	 	 	 	 	 	 	 	 	 	 	 	 	 	 	 	1581485620	7.66	14.19
12/02/2020 05:33:41	120220	12022020	053341	189.15	13.179745	-57.055860	189.29	0.260	0.460	0.650	189.17	-0.90	1.20	 	 	 	 	 	 	 	 	 	 	 	 	 	 	 	 	 	 	1581485621	6.56	12.15
12/02/2020 05:33:42	120220	12022020	053342	189.22	13.179715	-57.055862	189.35	-0.780	0.590	1.290	189.23	-0.90	1.90	 	 	 	 	 	 	 	 	 	 	 	 	 	 	 	 	 	 	1581485622	6.68	12.37
12/02/2020 05:33:43	120220	12022020	053343	189.21	13.179680	-57.055872	189.33	-1.280	0.210	2.220	189.19	-1.20	2.80	 	 	 	 	 	 	 	 	 	 	 	 	 	 	 	 	 	 	1581485623	7.81	14.46
12/02/2020 05:33:44	120220	12022020	053344	189.05	13.179643	-57.055888	189.18	-1.170	-0.150	3.040	189.02	-1.60	3.50	 	 	 	 	 	 	 	 	 	 	 	 	 	 	 	 	 	 	1581485624	8.59	15.91
12/02/2020 05:33:45	120220	12022020	053345	188.99	13.179607	-57.055907	189.17	-0.610	-0.290	3.170	189.02	-1.70	3.60	 	 	 	 	 	 	 	 	 	 	 	 	 	 	 	 	 	 	1581485625	8.69	16.09
12/02/2020 05:33:46	120220	12022020	053346	189.23	13.179570	-57.055920	189.42	0.130	-0.200	2.490	189.30	-1.60	2.80	 	 	 	 	 	 	 	 	 	 	 	 	 	 	 	 	 	 	1581485626	8.30	15.37
12/02/2020 05:33:47	120220	12022020	053347	189.52	13.179535	-57.055928	189.67	0.760	-0.130	1.480	189.52	-1.50	2.20	 	 	 	 	 	 	 	 	 	 	 	 	 	 	 	 	 	 	1581485627	7.76	14.37
12/02/2020 05:33:48	120220	12022020	053348	189.52	13.179500	-57.055930	189.58	1.000	-0.240	0.820	189.47	-1.70	1.20	 	 	 	 	 	 	 	 	 	 	 	 	 	 	 	 	 	 	1581485628	7.66	14.19
12/02/2020 05:33:49	120220	12022020	053349	189.17	13.179463	-57.055930	189.22	0.770	-0.310	0.640	189.17	-1.70	1.10	 	 	 	 	 	 	 	 	 	 	 	 	 	 	 	 	 	 	1581485629	7.84	14.52
12/02/2020 05:33:50	120220	12022020	053350	188.91	13.179427	-57.055933	189.01	0.180	-0.190	0.720	188.89	-1.60	1.20	 	 	 	 	 	 	 	 	 	 	 	 	 	 	 	 	 	 	1581485630	7.80	14.45
12/02/2020 05:33:51	120220	12022020	053351	188.85	13.179392	-57.055940	188.98	-0.390	-0.080	1.080	188.86	-1.50	1.60	 	 	 	 	 	 	 	 	 	 	 	 	 	 	 	 	 	 	1581485631	7.54	13.96
12/02/2020 05:33:52	120220	12022020	053352	188.96	13.179358	-57.055952	189.12	-0.550	-0.130	1.480	189.00	-1.50	2.00	 	 	 	 	 	 	 	 	 	 	 	 	 	 	 	 	 	 	1581485632	7.62	14.11
12/02/2020 05:33:53	120220	12022020	053353	189.16	13.179325	-57.055965	189.32	-0.190	-0.330	1.630	189.20	-1.80	2.10	 	 	 	 	 	 	 	 	 	 	 	 	 	 	 	 	 	 	1581485633	7.87	14.58
12/02/2020 05:33:54	120220	12022020	053354	189.37	13.179290	-57.055975	189.53	0.340	-0.600	1.480	189.41	-2.00	1.90	 	 	 	 	 	 	 	 	 	 	 	 	 	 	 	 	 	 	1581485634	7.99	14.80
12/02/2020 05:33:55	120220	12022020	053355	189.53	13.179252	-57.055983	189.67	0.560	-0.750	1.370	189.55	-2.20	1.80	 	 	 	 	 	 	 	 	 	 	 	 	 	 	 	 	 	 	1581485635	8.06	14.93
12/02/2020 05:33:56	120220	12022020	053356	189.54	13.179215	-57.055988	189.67	0.240	-0.690	1.540	189.52	-2.10	2.00	 	 	 	 	 	 	 	 	 	 	 	 	 	 	 	 	 	 	1581485636	8.00	14.82
12/02/2020 05:33:57	120220	12022020	053357	189.38	13.179180	-57.055993	189.49	-0.380	-0.380	2.020	189.33	-1.70	2.50	 	 	 	 	 	 	 	 	 	 	 	 	 	 	 	 	 	 	1581485637	7.80	14.45
12/02/2020 05:33:58	120220	12022020	053358	189.16	13.179145	-57.056003	189.28	-0.800	-0.040	2.550	189.12	-1.40	3.00	 	 	 	 	 	 	 	 	 	 	 	 	 	 	 	 	 	 	1581485638	7.65	14.17
12/02/2020 05:33:59	120220	12022020	053359	188.98	13.179112	-57.056017	189.11	-0.590	0.050	2.800	188.94	-1.40	3.20	 	 	 	 	 	 	 	 	 	 	 	 	 	 	 	 	 	 	1581485639	7.80	14.45
12/02/2020 05:34:00	120220	12022020	053400	188.81	13.179077	-57.056030	188.93	0.170	-0.040	2.600	188.78	-1.40	3.00	 	 	 	 	 	 	 	 	 	 	 	 	 	 	 	 	 	 	1581485640	8.10	15.00
12/02/2020 05:34:01	120220	12022020	053401	188.75	13.179038	-57.056038	188.91	0.770	0.120	2.070	188.77	-1.20	2.40	1015.80	26.00	26.00	21.20	21.20	-1.0	74.0	74.0	401.0	25.6	262.00	9.80	70.00	11.10	16	8751.0	27.2	27.2	1581485641	8.26	15.30
12/02/2020 05:34:02	120220	12022020	053402	188.95	13.179002	-57.056042	189.12	0.710	0.520	1.400	189.00	-0.80	1.80	 	 	 	 	 	 	 	 	 	 	 	 	 	 	 	 	 	 	1581485642	7.96	14.74
12/02/2020 05:34:03	120220	12022020	053403	189.24	13.178968	-57.056043	189.40	0.160	0.620	0.940	189.29	-0.80	1.40	 	 	 	 	 	 	 	 	 	 	 	 	 	 	 	 	 	 	1581485643	7.36	13.63
12/02/2020 05:34:04	120220	12022020	053404	189.54	13.178933	-57.056047	189.70	-0.320	0.140	0.950	189.59	-1.40	1.50	 	 	 	 	 	 	 	 	 	 	 	 	 	 	 	 	 	 	1581485644	7.29	13.50
12/02/2020 05:34:05	120220	12022020	053405	189.72	13.178900	-57.056055	189.86	-0.300	-0.750	1.410	189.73	-2.30	1.90	 	 	 	 	 	 	 	 	 	 	 	 	 	 	 	 	 	 	1581485645	7.75	14.35
12/02/2020 05:34:06	120220	12022020	053406	189.59	13.178863	-57.056068	189.67	0.180	-1.620	1.910	189.52	-3.10	2.40	 	 	 	 	 	 	 	 	 	 	 	 	 	 	 	 	 	 	1581485646	8.30	15.37
12/02/2020 05:34:07	120220	12022020	053407	189.21	13.178825	-57.056082	189.31	0.570	-1.810	2.210	189.14	-3.10	2.70	 	 	 	 	 	 	 	 	 	 	 	 	 	 	 	 	 	 	1581485647	8.54	15.82
12/02/2020 05:34:08	120220	12022020	053408	189.04	13.178788	-57.056090	189.21	0.310	-0.930	2.240	189.06	-2.20	2.70	 	 	 	 	 	 	 	 	 	 	 	 	 	 	 	 	 	 	1581485648	8.18	15.15
12/02/2020 05:34:09	120220	12022020	053409	189.25	13.178755	-57.056097	189.44	-0.370	0.300	1.940	189.31	-1.00	2.40	 	 	 	 	 	 	 	 	 	 	 	 	 	 	 	 	 	 	1581485649	7.18	13.30
12/02/2020 05:34:10	120220	12022020	053410	189.43	13.178725	-57.056105	189.57	-0.730	0.700	1.600	189.44	-0.70	2.00	 	 	 	 	 	 	 	 	 	 	 	 	 	 	 	 	 	 	1581485650	6.70	12.41
12/02/2020 05:34:11	120220	12022020	053411	189.41	13.178690	-57.056112	189.52	-0.420	0.250	1.450	189.41	-1.00	1.90	 	 	 	 	 	 	 	 	 	 	 	 	 	 	 	 	 	 	1581485651	7.53	13.95
12/02/2020 05:34:12	120220	12022020	053412	189.31	13.178652	-57.056120	189.43	0.210	-0.310	1.520	189.30	-1.80	2.00	 	 	 	 	 	 	 	 	 	 	 	 	 	 	 	 	 	 	1581485652	8.58	15.89
12/02/2020 05:34:13	120220	12022020	053413	189.29	13.178612	-57.056127	189.45	0.540	-0.420	1.640	189.31	-1.80	2.10	 	 	 	 	 	 	 	 	 	 	 	 	 	 	 	 	 	 	1581485653	8.77	16.24
12/02/2020 05:34:14	120220	12022020	053414	189.49	13.178573	-57.056133	189.69	0.230	-0.090	1.690	189.55	-1.40	2.20	 	 	 	 	 	 	 	 	 	 	 	 	 	 	 	 	 	 	1581485654	8.25	15.28
12/02/2020 05:34:15	120220	12022020	053415	189.77	13.178538	-57.056142	189.95	-0.390	0.160	2.040	189.81	-1.20	2.60	 	 	 	 	 	 	 	 	 	 	 	 	 	 	 	 	 	 	1581485655	7.60	14.08
12/02/2020 05:34:16	120220	12022020	053416	189.89	13.178505	-57.056152	190.05	-0.740	0.130	2.580	189.90	-1.30	3.10	 	 	 	 	 	 	 	 	 	 	 	 	 	 	 	 	 	 	1581485656	7.56	14.00
12/02/2020 05:34:17	120220	12022020	053417	189.95	13.178472	-57.056167	190.11	-0.500	0.060	2.550	189.97	-1.30	3.00	 	 	 	 	 	 	 	 	 	 	 	 	 	 	 	 	 	 	1581485657	7.92	14.67
12/02/2020 05:34:18	120220	12022020	053418	189.98	13.178437	-57.056178	190.12	0.150	-0.020	2.160	189.97	-1.40	2.60	 	 	 	 	 	 	 	 	 	 	 	 	 	 	 	 	 	 	1581485658	7.81	14.46
12/02/2020 05:34:19	120220	12022020	053419	189.85	13.178403	-57.056187	189.94	0.760	-0.340	1.710	189.80	-1.80	2.10	 	 	 	 	 	 	 	 	 	 	 	 	 	 	 	 	 	 	1581485659	7.62	14.11
12/02/2020 05:34:20	120220	12022020	053420	189.60	13.178367	-57.056192	189.68	0.920	-0.790	1.290	189.54	-2.20	1.70	 	 	 	 	 	 	 	 	 	 	 	 	 	 	 	 	 	 	1581485660	7.86	14.56
12/02/2020 05:34:21	120220	12022020	053421	189.25	13.178328	-57.056195	189.30	0.580	-1.110	1.350	189.15	-2.50	1.90	 	 	 	 	 	 	 	 	 	 	 	 	 	 	 	 	 	 	1581485661	8.11	15.02
12/02/2020 05:34:22	120220	12022020	053422	188.73	13.178292	-57.056200	188.79	0.090	-1.150	2.080	188.63	-2.50	2.60	 	 	 	 	 	 	 	 	 	 	 	 	 	 	 	 	 	 	1581485662	8.10	15.00
12/02/2020 05:34:23	120220	12022020	053423	188.31	13.178255	-57.056212	188.44	-0.280	-0.770	2.740	188.27	-2.10	3.20	 	 	 	 	 	 	 	 	 	 	 	 	 	 	 	 	 	 	1581485663	8.19	15.17
12/02/2020 05:34:24	120220	12022020	053424	188.26	13.178220	-57.056225	188.47	-0.480	-0.010	2.900	188.31	-1.30	3.30	 	 	 	 	 	 	 	 	 	 	 	 	 	 	 	 	 	 	1581485664	8.07	14.95
12/02/2020 05:34:25	120220	12022020	053425	188.67	13.178185	-57.056237	188.96	-0.640	0.790	2.560	188.67	-0.80	3.10	 	 	 	 	 	 	 	 	 	 	 	 	 	 	 	 	 	 	1581485665	7.73	14.32
12/02/2020 05:34:26	120220	12022020	053426	189.45	13.178153	-57.056245	189.74	-0.740	1.250	1.790	189.62	-0.20	2.10	 	 	 	 	 	 	 	 	 	 	 	 	 	 	 	 	 	 	1581485666	7.40	13.70
12/02/2020 05:34:27	120220	12022020	053427	190.16	13.178120	-57.056252	190.36	-0.540	0.820	0.990	190.25	-0.70	1.40	 	 	 	 	 	 	 	 	 	 	 	 	 	 	 	 	 	 	1581485667	7.30	13.52
12/02/2020 05:34:28	120220	12022020	053428	190.36	13.178083	-57.056258	190.47	-0.000	-0.410	0.770	190.34	-2.00	1.30	 	 	 	 	 	 	 	 	 	 	 	 	 	 	 	 	 	 	1581485668	7.89	14.61
12/02/2020 05:34:29	120220	12022020	053429	190.14	13.178043	-57.056265	190.22	0.550	-1.480	1.190	190.06	-2.90	1.70	 	 	 	 	 	 	 	 	 	 	 	 	 	 	 	 	 	 	1581485669	8.73	16.17
12/02/2020 05:34:30	120220	12022020	053430	189.67	13.178003	-57.056273	189.73	0.750	-1.700	1.850	189.56	-3.10	2.40	 	 	 	 	 	 	 	 	 	 	 	 	 	 	 	 	 	 	1581485670	8.74	16.19
12/02/2020 05:34:31	120220	12022020	053431	189.08	13.177967	-57.056282	189.13	0.590	-1.200	2.390	188.95	-2.50	2.90	 	 	 	 	 	 	 	 	 	 	 	 	 	 	 	 	 	 	1581485671	8.10	15.00
12/02/2020 05:34:32	120220	12022020	053432	188.53	13.177932	-57.056290	188.62	0.230	-0.440	2.680	188.44	-1.70	3.20	 	 	 	 	 	 	 	 	 	 	 	 	 	 	 	 	 	 	1581485672	7.62	14.11
12/02/2020 05:34:33	120220	12022020	053433	188.27	13.177898	-57.056298	188.42	-0.190	0.240	2.690	188.26	-1.10	3.10	 	 	 	 	 	 	 	 	 	 	 	 	 	 	 	 	 	 	1581485673	7.56	14.00
12/02/2020 05:34:34	120220	12022020	053434	188.35	13.177863	-57.056307	188.54	-0.610	0.640	2.440	188.39	-0.70	2.90	 	 	 	 	 	 	 	 	 	 	 	 	 	 	 	 	 	 	1581485674	7.72	14.30
12/02/2020 05:34:35	120220	12022020	053435	188.63	13.177827	-57.056313	188.83	-0.940	0.760	2.100	188.69	-0.60	2.50	 	 	 	 	 	 	 	 	 	 	 	 	 	 	 	 	 	 	1581485675	7.92	14.67
12/02/2020 05:34:36	120220	12022020	053436	188.95	13.177790	-57.056323	189.15	-1.010	0.650	1.950	189.01	-0.80	2.40	 	 	 	 	 	 	 	 	 	 	 	 	 	 	 	 	 	 	1581485676	8.01	14.83
12/02/2020 05:34:37	120220	12022020	053437	189.25	13.177755	-57.056335	189.43	-0.690	0.400	1.800	189.25	-0.90	2.30	 	 	 	 	 	 	 	 	 	 	 	 	 	 	 	 	 	 	1581485677	8.07	14.95
12/02/2020 05:34:38	120220	12022020	053438	189.56	13.177720	-57.056347	189.74	-0.010	0.070	1.390	189.63	-1.40	1.80	 	 	 	 	 	 	 	 	 	 	 	 	 	 	 	 	 	 	1581485678	8.01	14.83
12/02/2020 05:34:39	120220	12022020	053439	189.90	13.177683	-57.056355	190.06	0.770	-0.380	0.760	189.90	-1.70	1.40	 	 	 	 	 	 	 	 	 	 	 	 	 	 	 	 	 	 	1581485679	7.85	14.54
12/02/2020 05:34:40	120220	12022020	053440	190.13	13.177647	-57.056358	190.25	1.260	-0.860	0.240	190.14	-2.30	0.70	 	 	 	 	 	 	 	 	 	 	 	 	 	 	 	 	 	 	1581485680	7.88	14.59
12/02/2020 05:34:41	120220	12022020	053441	190.03	13.177610	-57.056360	190.07	1.200	-1.270	0.290	189.95	-2.70	0.80	 	 	 	 	 	 	 	 	 	 	 	 	 	 	 	 	 	 	1581485681	7.97	14.76
12/02/2020 05:34:42	120220	12022020	053442	189.46	13.177573	-57.056362	189.47	0.670	-1.560	1.130	189.32	-3.00	1.70	 	 	 	 	 	 	 	 	 	 	 	 	 	 	 	 	 	 	1581485682	7.98	14.78
12/02/2020 05:34:43	120220	12022020	053443	188.75	13.177537	-57.056370	188.80	-0.100	-1.390	2.240	188.62	-2.70	2.80	 	 	 	 	 	 	 	 	 	 	 	 	 	 	 	 	 	 	1581485683	8.15	15.09
12/02/2020 05:34:44	120220	12022020	053444	188.26	13.177500	-57.056382	188.40	-0.780	-0.640	3.080	188.22	-1.90	3.60	 	 	 	 	 	 	 	 	 	 	 	 	 	 	 	 	 	 	1581485684	8.24	15.26
12/02/2020 05:34:45	120220	12022020	053445	188.26	13.177465	-57.056398	188.47	-1.090	0.350	3.260	188.31	-0.90	3.70	 	 	 	 	 	 	 	 	 	 	 	 	 	 	 	 	 	 	1581485685	8.06	14.93
12/02/2020 05:34:46	120220	12022020	053446	188.63	13.177432	-57.056412	188.87	-0.930	1.020	2.880	188.72	-0.30	3.30	 	 	 	 	 	 	 	 	 	 	 	 	 	 	 	 	 	 	1581485686	7.79	14.43
12/02/2020 05:34:47	120220	12022020	053447	189.08	13.177397	-57.056422	189.31	-0.500	1.060	2.290	189.17	-0.40	2.70	 	 	 	 	 	 	 	 	 	 	 	 	 	 	 	 	 	 	1581485687	7.80	14.45
12/02/2020 05:34:48	120220	12022020	053448	189.48	13.177360	-57.056428	189.67	-0.100	0.660	1.760	189.54	-0.80	2.20	 	 	 	 	 	 	 	 	 	 	 	 	 	 	 	 	 	 	1581485688	8.20	15.19
12/02/2020 05:34:49	120220	12022020	053449	189.69	13.177320	-57.056435	189.84	0.130	0.180	1.360	189.71	-1.30	1.80	 	 	 	 	 	 	 	 	 	 	 	 	 	 	 	 	 	 	1581485689	8.38	15.52
12/02/2020 05:34:50	120220	12022020	053450	189.77	13.177283	-57.056440	189.90	0.330	-0.210	1.060	189.78	-1.70	1.50	 	 	 	 	 	 	 	 	 	 	 	 	 	 	 	 	 	 	1581485690	8.22	15.22
12/02/2020 05:34:51	120220	12022020	053451	189.74	13.177247	-57.056445	189.83	0.530	-0.570	0.970	189.71	-2.00	1.50	 	 	 	 	 	 	 	 	 	 	 	 	 	 	 	 	 	 	1581485691	7.92	14.67
12/02/2020 05:34:52	120220	12022020	053452	189.58	13.177210	-57.056452	189.67	0.600	-0.970	1.150	189.54	-2.40	1.70	 	 	 	 	 	 	 	 	 	 	 	 	 	 	 	 	 	 	1581485692	7.79	14.43
12/02/2020 05:34:53	120220	12022020	053453	189.35	13.177175	-57.056457	189.43	0.430	-1.250	1.500	189.28	-2.70	2.00	 	 	 	 	 	 	 	 	 	 	 	 	 	 	 	 	 	 	1581485693	7.90	14.63
12/02/2020 05:34:54	120220	12022020	053454	188.99	13.177138	-57.056467	189.07	0.120	-1.220	2.000	188.92	-2.60	2.50	 	 	 	 	 	 	 	 	 	 	 	 	 	 	 	 	 	 	1581485694	8.00	14.82
12/02/2020 05:34:55	120220	12022020	053455	188.70	13.177103	-57.056477	188.82	-0.160	-0.820	2.410	188.65	-2.20	2.90	 	 	 	 	 	 	 	 	 	 	 	 	 	 	 	 	 	 	1581485695	8.02	14.85
12/02/2020 05:34:56	120220	12022020	053456	188.52	13.177067	-57.056487	188.65	-0.270	-0.270	2.620	188.48	-1.60	3.10	 	 	 	 	 	 	 	 	 	 	 	 	 	 	 	 	 	 	1581485696	7.88	14.59
12/02/2020 05:34:57	120220	12022020	053457	188.37	13.177032	-57.056497	188.52	-0.210	0.190	2.620	188.36	-1.20	3.10	 	 	 	 	 	 	 	 	 	 	 	 	 	 	 	 	 	 	1581485697	7.90	14.63
12/02/2020 05:34:58	120220	12022020	053458	188.46	13.176995	-57.056505	188.68	-0.170	0.630	2.300	188.53	-0.70	2.70	 	 	 	 	 	 	 	 	 	 	 	 	 	 	 	 	 	 	1581485698	8.09	14.98
12/02/2020 05:34:59	120220	12022020	053459	188.99	13.176958	-57.056513	189.27	-0.290	0.970	1.650	189.15	-0.40	2.00	 	 	 	 	 	 	 	 	 	 	 	 	 	 	 	 	 	 	1581485699	8.04	14.89
12/02/2020 05:35:00	120220	12022020	053500	189.78	13.176923	-57.056518	190.04	-0.400	0.870	1.080	189.93	-0.60	1.50	 	 	 	 	 	 	 	 	 	 	 	 	 	 	 	 	 	 	1581485700	7.76	14.37
12/02/2020 05:35:01	120220	12022020	053501	190.36	13.176887	-57.056525	190.54	-0.130	0.080	0.780	190.36	-1.10	1.30	1015.70	26.00	26.00	21.30	21.30	-1.0	75.0	75.0	402.0	25.6	259.00	10.60	69.00	12.10	16	8871.0	27.2	27.2	1581485701	7.76	14.37
12/02/2020 05:35:02	120220	12022020	053502	190.45	13.176850	-57.056532	190.54	0.440	-1.020	0.870	190.39	-2.60	1.40	 	 	 	 	 	 	 	 	 	 	 	 	 	 	 	 	 	 	1581485702	8.22	15.22
12/02/2020 05:35:03	120220	12022020	053503	189.92	13.176810	-57.056538	189.93	0.790	-1.840	1.640	189.75	-3.30	2.20	 	 	 	 	 	 	 	 	 	 	 	 	 	 	 	 	 	 	1581485703	8.64	16.00
12/02/2020 05:35:04	120220	12022020	053504	189.02	13.176770	-57.056547	189.05	0.520	-1.800	2.580	188.87	-3.10	3.10	 	 	 	 	 	 	 	 	 	 	 	 	 	 	 	 	 	 	1581485704	8.63	15.98
12/02/2020 05:35:05	120220	12022020	053505	188.42	13.176733	-57.056557	188.55	-0.250	-0.850	3.180	188.37	-2.10	3.70	 	 	 	 	 	 	 	 	 	 	 	 	 	 	 	 	 	 	1581485705	8.23	15.24
12/02/2020 05:35:06	120220	12022020	053506	188.39	13.176700	-57.056570	188.61	-0.880	0.450	3.220	188.46	-0.80	3.60	 	 	 	 	 	 	 	 	 	 	 	 	 	 	 	 	 	 	1581485706	7.68	14.22
12/02/2020 05:35:07	120220	12022020	053507	188.94	13.176670	-57.056585	189.23	-0.860	1.440	2.450	189.11	0.10	2.80	 	 	 	 	 	 	 	 	 	 	 	 	 	 	 	 	 	 	1581485707	7.41	13.72
12/02/2020 05:35:08	120220	12022020	053508	189.87	13.176637	-57.056595	190.16	-0.270	1.560	1.190	190.07	0.10	1.50	 	 	 	 	 	 	 	 	 	 	 	 	 	 	 	 	 	 	1581485708	7.32	13.56
12/02/2020 05:35:09	120220	12022020	053509	190.76	13.176600	-57.056600	190.96	0.470	0.650	0.250	190.88	-0.90	0.70	 	 	 	 	 	 	 	 	 	 	 	 	 	 	 	 	 	 	1581485709	7.78	14.41
12/02/2020 05:35:10	120220	12022020	053510	191.11	13.176562	-57.056603	191.20	0.960	-0.780	0.020	191.10	-2.30	0.50	 	 	 	 	 	 	 	 	 	 	 	 	 	 	 	 	 	 	1581485710	8.55	15.83
12/02/2020 05:35:11	120220	12022020	053511	190.87	13.176520	-57.056607	190.91	0.960	-1.730	0.420	190.77	-3.20	1.00	 	 	 	 	 	 	 	 	 	 	 	 	 	 	 	 	 	 	1581485711	8.98	16.63
12/02/2020 05:35:12	120220	12022020	053512	190.34	13.176480	-57.056613	190.39	0.420	-1.760	1.390	190.22	-3.10	2.00	 	 	 	 	 	 	 	 	 	 	 	 	 	 	 	 	 	 	1581485712	8.67	16.06
12/02/2020 05:35:13	120220	12022020	053513	189.84	13.176443	-57.056623	189.94	-0.330	-1.020	2.420	189.77	-2.30	3.00	 	 	 	 	 	 	 	 	 	 	 	 	 	 	 	 	 	 	1581485713	7.96	14.74
12/02/2020 05:35:14	120220	12022020	053514	189.57	13.176412	-57.056638	189.71	-0.830	-0.110	2.910	189.54	-1.40	3.40	 	 	 	 	 	 	 	 	 	 	 	 	 	 	 	 	 	 	1581485714	7.57	14.02
12/02/2020 05:35:15	120220	12022020	053515	189.42	13.176380	-57.056652	189.55	-0.780	0.240	2.850	189.42	-1.20	3.40	 	 	 	 	 	 	 	 	 	 	 	 	 	 	 	 	 	 	1581485715	7.55	13.98
12/02/2020 05:35:16	120220	12022020	053516	189.25	13.176343	-57.056665	189.36	-0.320	0.060	2.480	189.21	-1.40	2.90	 	 	 	 	 	 	 	 	 	 	 	 	 	 	 	 	 	 	1581485716	8.09	14.98
12/02/2020 05:35:17	120220	12022020	053517	189.12	13.176305	-57.056673	189.26	0.070	0.020	2.020	189.13	-1.40	2.40	 	 	 	 	 	 	 	 	 	 	 	 	 	 	 	 	 	 	1581485717	8.63	15.98
12/02/2020 05:35:18	120220	12022020	053518	189.27	13.176267	-57.056680	189.45	0.120	0.360	1.440	189.33	-1.00	1.90	 	 	 	 	 	 	 	 	 	 	 	 	 	 	 	 	 	 	1581485718	8.44	15.63
12/02/2020 05:35:19	120220	12022020	053519	189.58	13.176230	-57.056685	189.74	-0.000	0.550	1.010	189.63	-0.90	1.50	 	 	 	 	 	 	 	 	 	 	 	 	 	 	 	 	 	 	1581485719	7.76	14.37
12/02/2020 05:35:20	120220	12022020	053520	189.83	13.176195	-57.056690	189.99	0.010	0.220	0.900	189.88	-1.30	1.40	 	 	 	 	 	 	 	 	 	 	 	 	 	 	 	 	 	 	1581485720	7.63	14.13
12/02/2020 05:35:21	120220	12022020	053521	190.02	13.176158	-57.056698	190.16	0.220	-0.360	1.050	190.03	-1.80	1.60	 	 	 	 	 	 	 	 	 	 	 	 	 	 	 	 	 	 	1581485721	8.06	14.93
12/02/2020 05:35:22	120220	12022020	053522	190.00	13.176122	-57.056707	190.11	0.480	-0.790	1.380	189.97	-2.20	1.90	 	 	 	 	 	 	 	 	 	 	 	 	 	 	 	 	 	 	1581485722	8.30	15.37
12/02/2020 05:35:23	120220	12022020	053523	189.74	13.176083	-57.056717	189.81	0.590	-0.980	1.880	189.65	-2.40	2.40	 	 	 	 	 	 	 	 	 	 	 	 	 	 	 	 	 	 	1581485723	8.18	15.15
12/02/2020 05:35:24	120220	12022020	053524	189.25	13.176048	-57.056725	189.33	0.470	-0.990	2.440	189.15	-2.40	3.00	 	 	 	 	 	 	 	 	 	 	 	 	 	 	 	 	 	 	1581485724	8.06	14.93
12/02/2020 05:35:25	120220	12022020	053525	188.86	13.176010	-57.056733	189.00	0.110	-0.740	2.780	188.82	-2.10	3.30	 	 	 	 	 	 	 	 	 	 	 	 	 	 	 	 	 	 	1581485725	8.12	15.04
12/02/2020 05:35:26	120220	12022020	053526	188.82	13.175975	-57.056743	189.01	-0.370	-0.210	2.860	188.85	-1.50	3.30	 	 	 	 	 	 	 	 	 	 	 	 	 	 	 	 	 	 	1581485726	8.10	15.00
12/02/2020 05:35:27	120220	12022020	053527	189.00	13.175940	-57.056753	189.19	-0.660	0.330	2.640	189.00	-1.20	3.20	 	 	 	 	 	 	 	 	 	 	 	 	 	 	 	 	 	 	1581485727	7.83	14.50
12/02/2020 05:35:28	120220	12022020	053528	189.16	13.175905	-57.056763	189.33	-0.480	0.560	2.150	189.20	-0.80	2.50	 	 	 	 	 	 	 	 	 	 	 	 	 	 	 	 	 	 	1581485728	7.71	14.28
12/02/2020 05:35:29	120220	12022020	053529	189.34	13.175868	-57.056772	189.51	0.000	0.430	1.580	189.38	-1.00	2.00	 	 	 	 	 	 	 	 	 	 	 	 	 	 	 	 	 	 	1581485729	7.88	14.59
12/02/2020 05:35:30	120220	12022020	053530	189.51	13.175832	-57.056777	189.66	0.330	0.100	1.310	189.53	-1.30	1.80	 	 	 	 	 	 	 	 	 	 	 	 	 	 	 	 	 	 	1581485730	8.15	15.09
12/02/2020 05:35:31	120220	12022020	053531	189.51	13.175793	-57.056782	189.64	0.340	-0.380	1.350	189.48	-1.80	1.90	 	 	 	 	 	 	 	 	 	 	 	 	 	 	 	 	 	 	1581485731	8.18	15.15
12/02/2020 05:35:32	120220	12022020	053532	189.30	13.175757	-57.056788	189.41	0.210	-0.890	1.620	189.26	-2.30	2.10	 	 	 	 	 	 	 	 	 	 	 	 	 	 	 	 	 	 	1581485732	8.26	15.30
12/02/2020 05:35:33	120220	12022020	053533	189.24	13.175718	-57.056798	189.42	0.110	-0.960	1.690	189.27	-2.30	2.20	 	 	 	 	 	 	 	 	 	 	 	 	 	 	 	 	 	 	1581485733	8.46	15.67
12/02/2020 05:35:34	120220	12022020	053534	189.49	13.175680	-57.056808	189.69	-0.010	-0.660	1.600	189.56	-2.00	2.10	 	 	 	 	 	 	 	 	 	 	 	 	 	 	 	 	 	 	1581485734	8.19	15.17
12/02/2020 05:35:35	120220	12022020	053535	189.82	13.175645	-57.056817	190.01	-0.230	-0.330	1.530	189.88	-1.70	2.00	 	 	 	 	 	 	 	 	 	 	 	 	 	 	 	 	 	 	1581485735	7.77	14.39
12/02/2020 05:35:36	120220	12022020	053536	190.02	13.175612	-57.056825	190.16	-0.400	-0.180	1.610	190.02	-1.60	2.10	 	 	 	 	 	 	 	 	 	 	 	 	 	 	 	 	 	 	1581485736	7.69	14.24
12/02/2020 05:35:37	120220	12022020	053537	189.81	13.175575	-57.056835	189.87	-0.300	-0.350	2.020	189.71	-1.80	2.50	 	 	 	 	 	 	 	 	 	 	 	 	 	 	 	 	 	 	1581485737	7.86	14.56
12/02/2020 05:35:38	120220	12022020	053538	189.17	13.175538	-57.056845	189.21	0.080	-0.760	2.570	189.03	-2.20	3.10	 	 	 	 	 	 	 	 	 	 	 	 	 	 	 	 	 	 	1581485738	8.34	15.45
12/02/2020 05:35:39	120220	12022020	053539	188.57	13.175498	-57.056855	188.68	0.360	-0.660	2.800	188.57	-2.20	3.30	 	 	 	 	 	 	 	 	 	 	 	 	 	 	 	 	 	 	1581485739	8.91	16.50
12/02/2020 05:35:40	120220	12022020	053540	188.48	13.175458	-57.056863	188.68	0.250	0.350	2.560	188.53	-0.90	3.00	 	 	 	 	 	 	 	 	 	 	 	 	 	 	 	 	 	 	1581485740	8.65	16.02
12/02/2020 05:35:41	120220	12022020	053541	188.76	13.175425	-57.056870	188.97	-0.160	1.430	2.210	188.83	0.10	2.70	 	 	 	 	 	 	 	 	 	 	 	 	 	 	 	 	 	 	1581485741	7.49	13.87
12/02/2020 05:35:42	120220	12022020	053542	189.09	13.175393	-57.056875	189.28	-0.560	1.540	2.030	189.15	0.00	2.50	 	 	 	 	 	 	 	 	 	 	 	 	 	 	 	 	 	 	1581485742	6.92	12.82
12/02/2020 05:35:43	120220	12022020	053543	189.35	13.175358	-57.056883	189.52	-0.560	0.530	2.170	189.39	-1.10	2.70	 	 	 	 	 	 	 	 	 	 	 	 	 	 	 	 	 	 	1581485743	7.55	13.98
12/02/2020 05:35:44	120220	12022020	053544	189.50	13.175320	-57.056897	189.66	-0.050	-0.860	2.340	189.52	-2.40	2.80	 	 	 	 	 	 	 	 	 	 	 	 	 	 	 	 	 	 	1581485744	8.58	15.89
12/02/2020 05:35:45	120220	12022020	053545	189.48	13.175282	-57.056910	189.60	0.660	-1.670	2.140	189.45	-3.10	2.60	 	 	 	 	 	 	 	 	 	 	 	 	 	 	 	 	 	 	1581485745	8.96	16.59
12/02/2020 05:35:46	120220	12022020	053546	189.28	13.175243	-57.056922	189.37	1.110	-1.630	1.580	189.24	-3.00	2.00	 	 	 	 	 	 	 	 	 	 	 	 	 	 	 	 	 	 	1581485746	8.34	15.45
12/02/2020 05:35:47	120220	12022020	053547	189.08	13.175210	-57.056925	189.18	1.050	-1.090	0.970	189.05	-2.40	1.40	 	 	 	 	 	 	 	 	 	 	 	 	 	 	 	 	 	 	1581485747	7.55	13.98
12/02/2020 05:35:48	120220	12022020	053548	188.97	13.175175	-57.056927	189.07	0.460	-0.600	0.740	188.94	-2.00	1.20	 	 	 	 	 	 	 	 	 	 	 	 	 	 	 	 	 	 	1581485748	7.35	13.61
12/02/2020 05:35:49	120220	12022020	053549	188.79	13.175140	-57.056928	188.88	-0.340	-0.460	1.160	188.74	-1.90	1.70	 	 	 	 	 	 	 	 	 	 	 	 	 	 	 	 	 	 	1581485749	7.56	14.00
12/02/2020 05:35:50	120220	12022020	053550	188.50	13.175103	-57.056937	188.60	-0.860	-0.480	1.910	188.44	-1.90	2.50	 	 	 	 	 	 	 	 	 	 	 	 	 	 	 	 	 	 	1581485750	8.16	15.11
12/02/2020 05:35:51	120220	12022020	053551	188.27	13.175065	-57.056950	188.42	-0.910	-0.300	2.580	188.26	-1.70	3.10	 	 	 	 	 	 	 	 	 	 	 	 	 	 	 	 	 	 	1581485751	8.70	16.11
12/02/2020 05:35:52	120220	12022020	053552	188.32	13.175025	-57.056962	188.52	-0.770	0.120	2.870	188.36	-1.20	3.30	 	 	 	 	 	 	 	 	 	 	 	 	 	 	 	 	 	 	1581485752	8.73	16.17
12/02/2020 05:35:53	120220	12022020	053553	188.61	13.174988	-57.056975	188.83	-0.710	0.590	2.890	188.68	-0.80	3.30	 	 	 	 	 	 	 	 	 	 	 	 	 	 	 	 	 	 	1581485753	8.44	15.63
12/02/2020 05:35:54	120220	12022020	053554	188.93	13.174952	-57.056987	189.12	-0.690	0.940	2.700	188.97	-0.40	3.10	 	 	 	 	 	 	 	 	 	 	 	 	 	 	 	 	 	 	1581485754	8.08	14.96
12/02/2020 05:35:55	120220	12022020	053555	189.09	13.174917	-57.056995	189.25	-0.460	1.050	2.330	189.10	-0.40	2.70	 	 	 	 	 	 	 	 	 	 	 	 	 	 	 	 	 	 	1581485755	7.81	14.46
12/02/2020 05:35:56	120220	12022020	053556	189.15	13.174883	-57.057003	189.28	0.100	0.840	1.820	189.15	-0.60	2.20	 	 	 	 	 	 	 	 	 	 	 	 	 	 	 	 	 	 	1581485756	7.66	14.19
12/02/2020 05:35:57	120220	12022020	053557	189.17	13.174848	-57.057010	189.28	0.850	0.200	1.320	189.17	-1.00	1.90	 	 	 	 	 	 	 	 	 	 	 	 	 	 	 	 	 	 	1581485757	7.66	14.19
12/02/2020 05:35:58	120220	12022020	053558	189.06	13.174812	-57.057013	189.16	1.440	-0.810	1.040	189.04	-2.30	1.50	 	 	 	 	 	 	 	 	 	 	 	 	 	 	 	 	 	 	1581485758	7.88	14.59
12/02/2020 05:35:59	120220	12022020	053559	188.92	13.174773	-57.057017	189.02	1.460	-1.680	1.140	188.89	-3.10	1.70	 	 	 	 	 	 	 	 	 	 	 	 	 	 	 	 	 	 	1581485759	8.30	15.37
12/02/2020 05:36:00	120220	12022020	053600	188.74	13.174735	-57.057022	188.85	0.900	-1.880	1.600	188.70	-3.20	2.10	 	 	 	 	 	 	 	 	 	 	 	 	 	 	 	 	 	 	1581485760	8.31	15.39
12/02/2020 05:36:01	120220	12022020	053601	188.58	13.174698	-57.057030	188.72	0.080	-1.310	2.160	188.57	-2.60	2.70	1015.80	25.90	26.00	21.00	21.10	-1.0	74.0	74.0	403.0	25.6	256.00	11.00	66.00	12.70	16	8620.0	27.2	27.2	1581485761	7.90	14.63
12/02/2020 05:36:02	120220	12022020	053602	188.51	13.174665	-57.057040	188.65	-0.590	-0.500	2.620	188.49	-1.80	3.10	 	 	 	 	 	 	 	 	 	 	 	 	 	 	 	 	 	 	1581485762	7.46	13.82
12/02/2020 05:36:03	120220	12022020	053603	188.38	13.174633	-57.057052	188.51	-0.940	-0.090	2.980	188.34	-1.50	3.50	 	 	 	 	 	 	 	 	 	 	 	 	 	 	 	 	 	 	1581485763	7.42	13.74
12/02/2020 05:36:04	120220	12022020	053604	188.21	13.174597	-57.057063	188.35	-0.950	-0.120	3.180	188.19	-1.50	3.60	 	 	 	 	 	 	 	 	 	 	 	 	 	 	 	 	 	 	1581485764	8.04	14.89
12/02/2020 05:36:05	120220	12022020	053605	188.10	13.174558	-57.057075	188.24	-0.720	-0.130	3.010	188.10	-1.60	3.50	 	 	 	 	 	 	 	 	 	 	 	 	 	 	 	 	 	 	1581485765	8.68	16.08
12/02/2020 05:36:06	120220	12022020	053606	188.07	13.174520	-57.057085	188.24	-0.420	0.260	2.490	188.09	-1.10	2.90	 	 	 	 	 	 	 	 	 	 	 	 	 	 	 	 	 	 	1581485766	8.69	16.09
12/02/2020 05:36:07	120220	12022020	053607	188.30	13.174482	-57.057092	188.50	-0.210	0.880	1.690	188.30	-0.70	2.40	 	 	 	 	 	 	 	 	 	 	 	 	 	 	 	 	 	 	1581485767	8.12	15.04
12/02/2020 05:36:08	120220	12022020	053608	188.76	13.174447	-57.057095	188.95	-0.030	1.110	0.830	188.85	-0.30	1.20	 	 	 	 	 	 	 	 	 	 	 	 	 	 	 	 	 	 	1581485768	7.54	13.96
12/02/2020 05:36:09	120220	12022020	053609	189.11	13.174412	-57.057098	189.23	0.320	0.510	0.370	189.13	-1.00	0.90	 	 	 	 	 	 	 	 	 	 	 	 	 	 	 	 	 	 	1581485769	7.54	13.96
12/02/2020 05:36:10	120220	12022020	053610	189.04	13.174375	-57.057100	189.11	0.760	-0.600	0.570	188.99	-2.10	1.10	 	 	 	 	 	 	 	 	 	 	 	 	 	 	 	 	 	 	1581485770	8.15	15.09
12/02/2020 05:36:11	120220	12022020	053611	188.79	13.174335	-57.057105	188.88	0.910	-1.360	1.080	188.75	-2.80	1.60	 	 	 	 	 	 	 	 	 	 	 	 	 	 	 	 	 	 	1581485771	8.70	16.11
12/02/2020 05:36:12	120220	12022020	053612	188.63	13.174295	-57.057113	188.76	0.600	-1.300	1.810	188.60	-2.70	2.40	 	 	 	 	 	 	 	 	 	 	 	 	 	 	 	 	 	 	1581485772	8.48	15.70
12/02/2020 05:36:13	120220	12022020	053613	188.53	13.174260	-57.057122	188.66	0.100	-0.800	2.520	188.50	-2.10	3.10	 	 	 	 	 	 	 	 	 	 	 	 	 	 	 	 	 	 	1581485773	7.75	14.35
12/02/2020 05:36:14	120220	12022020	053614	188.35	13.174228	-57.057133	188.47	-0.270	-0.390	3.090	188.30	-1.80	3.60	 	 	 	 	 	 	 	 	 	 	 	 	 	 	 	 	 	 	1581485774	7.43	13.76
12/02/2020 05:36:15	120220	12022020	053615	188.11	13.174193	-57.057147	188.24	-0.460	-0.170	3.500	188.06	-1.50	4.00	 	 	 	 	 	 	 	 	 	 	 	 	 	 	 	 	 	 	1581485775	7.75	14.35
12/02/2020 05:36:16	120220	12022020	053616	187.88	13.174158	-57.057158	188.03	-0.480	-0.070	3.580	187.85	-1.50	4.00	 	 	 	 	 	 	 	 	 	 	 	 	 	 	 	 	 	 	1581485776	8.12	15.04
12/02/2020 05:36:17	120220	12022020	053617	187.87	13.174122	-57.057170	188.08	-0.360	0.100	3.010	187.87	-1.40	3.70	 	 	 	 	 	 	 	 	 	 	 	 	 	 	 	 	 	 	1581485777	8.28	15.33
12/02/2020 05:36:18	120220	12022020	053618	188.30	13.174085	-57.057178	188.56	-0.210	0.310	1.930	188.42	-1.10	2.30	 	 	 	 	 	 	 	 	 	 	 	 	 	 	 	 	 	 	1581485778	8.12	15.04
12/02/2020 05:36:19	120220	12022020	053619	188.89	13.174048	-57.057182	189.12	-0.010	0.260	0.980	188.99	-1.20	1.40	 	 	 	 	 	 	 	 	 	 	 	 	 	 	 	 	 	 	1581485779	7.86	14.56
12/02/2020 05:36:20	120220	12022020	053620	189.30	13.174012	-57.057183	189.46	0.270	-0.110	0.420	189.34	-1.60	0.90	 	 	 	 	 	 	 	 	 	 	 	 	 	 	 	 	 	 	1581485780	7.96	14.74
12/02/2020 05:36:21	120220	12022020	053621	189.48	13.173973	-57.057187	189.62	0.530	-0.490	0.190	189.50	-1.90	0.70	 	 	 	 	 	 	 	 	 	 	 	 	 	 	 	 	 	 	1581485781	8.23	15.24
12/02/2020 05:36:22	120220	12022020	053622	189.54	13.173935	-57.057190	189.67	0.620	-0.560	0.460	189.54	-1.90	1.00	 	 	 	 	 	 	 	 	 	 	 	 	 	 	 	 	 	 	1581485782	8.24	15.26
12/02/2020 05:36:23	120220	12022020	053623	189.51	13.173898	-57.057195	189.64	0.460	-0.370	0.960	189.50	-1.80	1.50	 	 	 	 	 	 	 	 	 	 	 	 	 	 	 	 	 	 	1581485783	7.90	14.63
12/02/2020 05:36:24	120220	12022020	053624	189.40	13.173863	-57.057200	189.51	0.110	-0.360	1.540	189.35	-1.80	2.10	 	 	 	 	 	 	 	 	 	 	 	 	 	 	 	 	 	 	1581485784	7.61	14.09
12/02/2020 05:36:25	120220	12022020	053625	188.98	13.173828	-57.057210	189.04	-0.270	-0.740	2.460	188.86	-2.20	3.10	 	 	 	 	 	 	 	 	 	 	 	 	 	 	 	 	 	 	1581485785	7.84	14.52
12/02/2020 05:36:26	120220	12022020	053626	188.34	13.173790	-57.057223	188.43	-0.580	-0.920	3.520	188.22	-2.30	4.10	 	 	 	 	 	 	 	 	 	 	 	 	 	 	 	 	 	 	1581485786	8.55	15.83
12/02/2020 05:36:27	120220	12022020	053627	187.88	13.173753	-57.057238	188.04	-0.790	-0.430	4.100	187.83	-1.70	4.60	 	 	 	 	 	 	 	 	 	 	 	 	 	 	 	 	 	 	1581485787	8.78	16.26
12/02/2020 05:36:28	120220	12022020	053628	187.76	13.173718	-57.057255	187.95	-0.770	0.260	3.910	187.77	-1.10	4.30	 	 	 	 	 	 	 	 	 	 	 	 	 	 	 	 	 	 	1581485788	8.14	15.08
12/02/2020 05:36:29	120220	12022020	053629	187.83	13.173685	-57.057267	188.03	-0.330	0.440	2.960	187.83	-0.90	3.70	 	 	 	 	 	 	 	 	 	 	 	 	 	 	 	 	 	 	1581485789	7.69	14.24
12/02/2020 05:36:30	120220	12022020	053630	188.18	13.173648	-57.057275	188.42	0.340	0.280	1.410	188.31	-1.10	1.70	 	 	 	 	 	 	 	 	 	 	 	 	 	 	 	 	 	 	1581485790	8.01	14.83
12/02/2020 05:36:31	120220	12022020	053631	188.93	13.173610	-57.057275	189.19	0.840	0.220	-0.190	189.10	-1.20	0.10	 	 	 	 	 	 	 	 	 	 	 	 	 	 	 	 	 	 	1581485791	8.37	15.50
12/02/2020 05:36:32	120220	12022020	053632	189.65	13.173572	-57.057270	189.81	0.900	-0.040	-1.060	189.72	-1.50	-0.60	 	 	 	 	 	 	 	 	 	 	 	 	 	 	 	 	 	 	1581485792	8.18	15.15
12/02/2020 05:36:33	120220	12022020	053633	189.77	13.173535	-57.057268	189.84	0.620	-0.760	-0.650	189.73	-2.30	-0.00	 	 	 	 	 	 	 	 	 	 	 	 	 	 	 	 	 	 	1581485793	8.04	14.89
12/02/2020 05:36:34	120220	12022020	053634	189.36	13.173495	-57.057272	189.41	0.100	-1.430	0.910	189.24	-2.90	1.60	 	 	 	 	 	 	 	 	 	 	 	 	 	 	 	 	 	 	1581485794	8.33	15.43
12/02/2020 05:36:35	120220	12022020	053635	188.77	13.173458	-57.057285	188.86	-0.500	-1.380	2.700	188.67	-2.70	3.40	 	 	 	 	 	 	 	 	 	 	 	 	 	 	 	 	 	 	1581485795	8.65	16.02
12/02/2020 05:36:36	120220	12022020	053636	188.31	13.173422	-57.057303	188.44	-0.980	-0.590	3.940	188.23	-1.90	4.50	 	 	 	 	 	 	 	 	 	 	 	 	 	 	 	 	 	 	1581485796	8.50	15.74
12/02/2020 05:36:37	120220	12022020	053637	188.04	13.173390	-57.057322	188.24	-1.100	0.300	4.330	188.03	-1.00	4.80	 	 	 	 	 	 	 	 	 	 	 	 	 	 	 	 	 	 	1581485797	8.00	14.82
12/02/2020 05:36:38	120220	12022020	053638	188.06	13.173358	-57.057338	188.28	-0.660	0.680	3.720	188.09	-0.70	4.00	 	 	 	 	 	 	 	 	 	 	 	 	 	 	 	 	 	 	1581485798	7.73	14.32
12/02/2020 05:36:39	120220	12022020	053639	188.26	13.173322	-57.057348	188.47	0.190	0.490	2.370	188.31	-1.00	2.70	 	 	 	 	 	 	 	 	 	 	 	 	 	 	 	 	 	 	1581485799	7.86	14.56
12/02/2020 05:36:40	120220	12022020	053640	188.59	13.173283	-57.057350	188.79	0.930	0.120	0.950	188.66	-1.30	1.30	 	 	 	 	 	 	 	 	 	 	 	 	 	 	 	 	 	 	1581485800	8.35	15.46
12/02/2020 05:36:41	120220	12022020	053641	188.93	13.173243	-57.057347	189.09	1.120	-0.210	0.090	188.93	-1.50	0.70	 	 	 	 	 	 	 	 	 	 	 	 	 	 	 	 	 	 	1581485801	8.53	15.80
12/02/2020 05:36:42	120220	12022020	053642	189.02	13.173205	-57.057345	189.11	0.770	-0.590	0.240	188.98	-2.00	0.80	 	 	 	 	 	 	 	 	 	 	 	 	 	 	 	 	 	 	1581485802	8.25	15.28
12/02/2020 05:36:43	120220	12022020	053643	188.83	13.173168	-57.057350	188.95	0.200	-0.880	1.000	188.81	-2.30	1.60	 	 	 	 	 	 	 	 	 	 	 	 	 	 	 	 	 	 	1581485803	8.05	14.91
12/02/2020 05:36:44	120220	12022020	053644	188.75	13.173132	-57.057360	188.90	-0.310	-0.800	1.830	188.75	-2.20	2.40	 	 	 	 	 	 	 	 	 	 	 	 	 	 	 	 	 	 	1581485804	8.15	15.09
12/02/2020 05:36:45	120220	12022020	053645	188.74	13.173097	-57.057373	188.91	-0.650	-0.400	2.570	188.75	-1.70	3.10	 	 	 	 	 	 	 	 	 	 	 	 	 	 	 	 	 	 	1581485805	8.01	14.83
12/02/2020 05:36:46	120220	12022020	053646	188.83	13.173063	-57.057388	189.03	-0.760	0.010	2.800	188.86	-1.30	3.20	 	 	 	 	 	 	 	 	 	 	 	 	 	 	 	 	 	 	1581485806	7.82	14.48
12/02/2020 05:36:47	120220	12022020	053647	189.06	13.173030	-57.057400	189.28	-0.600	0.190	2.370	189.12	-1.20	2.80	 	 	 	 	 	 	 	 	 	 	 	 	 	 	 	 	 	 	1581485807	7.72	14.30
12/02/2020 05:36:48	120220	12022020	053648	189.33	13.172995	-57.057408	189.52	-0.190	-0.160	1.790	189.37	-1.60	2.20	 	 	 	 	 	 	 	 	 	 	 	 	 	 	 	 	 	 	1581485808	7.82	14.48
12/02/2020 05:36:49	120220	12022020	053649	189.40	13.172957	-57.057413	189.52	0.300	-0.770	1.400	189.37	-2.20	1.90	 	 	 	 	 	 	 	 	 	 	 	 	 	 	 	 	 	 	1581485809	8.33	15.43
12/02/2020 05:36:50	120220	12022020	053650	189.08	13.172915	-57.057418	189.14	0.580	-1.050	1.380	188.97	-2.40	1.90	 	 	 	 	 	 	 	 	 	 	 	 	 	 	 	 	 	 	1581485810	8.74	16.19
12/02/2020 05:36:51	120220	12022020	053651	188.58	13.172877	-57.057423	188.65	0.430	-0.590	1.560	188.49	-1.90	2.10	 	 	 	 	 	 	 	 	 	 	 	 	 	 	 	 	 	 	1581485811	8.57	15.87
12/02/2020 05:36:52	120220	12022020	053652	188.32	13.172840	-57.057428	188.46	-0.010	0.310	1.630	188.32	-1.00	2.10	 	 	 	 	 	 	 	 	 	 	 	 	 	 	 	 	 	 	1581485812	7.91	14.65
12/02/2020 05:36:53	120220	12022020	053653	188.44	13.172807	-57.057437	188.63	-0.390	0.940	1.530	188.44	-0.50	2.00	 	 	 	 	 	 	 	 	 	 	 	 	 	 	 	 	 	 	1581485813	7.35	13.61
12/02/2020 05:36:54	120220	12022020	053654	188.81	13.172773	-57.057443	189.03	-0.430	0.900	1.430	188.90	-0.60	1.90	 	 	 	 	 	 	 	 	 	 	 	 	 	 	 	 	 	 	1581485814	7.43	13.76
12/02/2020 05:36:55	120220	12022020	053655	189.26	13.172737	-57.057453	189.46	-0.100	0.270	1.390	189.33	-1.20	1.90	 	 	 	 	 	 	 	 	 	 	 	 	 	 	 	 	 	 	1581485815	7.96	14.74
12/02/2020 05:36:56	120220	12022020	053656	189.52	13.172698	-57.057463	189.67	0.380	-0.530	1.390	189.53	-2.00	1.90	 	 	 	 	 	 	 	 	 	 	 	 	 	 	 	 	 	 	1581485816	8.42	15.59
12/02/2020 05:36:57	120220	12022020	053657	189.46	13.172660	-57.057472	189.58	0.650	-1.080	1.500	189.43	-2.50	2.00	 	 	 	 	 	 	 	 	 	 	 	 	 	 	 	 	 	 	1581485817	8.55	15.83
12/02/2020 05:36:58	120220	12022020	053658	189.26	13.172622	-57.057477	189.38	0.420	-1.150	1.770	189.22	-2.50	2.30	 	 	 	 	 	 	 	 	 	 	 	 	 	 	 	 	 	 	1581485818	8.35	15.46
12/02/2020 05:36:59	120220	12022020	053659	188.99	13.172585	-57.057483	189.11	-0.210	-0.900	2.280	188.93	-2.30	2.80	 	 	 	 	 	 	 	 	 	 	 	 	 	 	 	 	 	 	1581485819	7.94	14.70
12/02/2020 05:37:00	120220	12022020	053700	188.58	13.172550	-57.057495	188.67	-0.700	-0.600	2.830	188.47	-2.00	3.30	 	 	 	 	 	 	 	 	 	 	 	 	 	 	 	 	 	 	1581485820	7.73	14.32
12/02/2020 05:37:01	120220	12022020	053701	188.03	13.172517	-57.057508	188.12	-0.630	-0.370	3.170	187.93	-1.70	3.60	1015.70	26.00	26.10	20.80	20.90	-1.0	73.0	73.0	403.0	25.6	255.00	10.70	65.00	12.40	16	9063.0	27.2	27.2	1581485821	7.95	14.72
12/02/2020 05:37:02	120220	12022020	053702	187.76	13.172480	-57.057520	187.96	-0.170	0.030	2.930	187.79	-1.30	3.30	 	 	 	 	 	 	 	 	 	 	 	 	 	 	 	 	 	 	1581485822	8.24	15.26
12/02/2020 05:37:03	120220	12022020	053703	188.12	13.172443	-57.057530	188.39	0.290	0.490	2.080	188.26	-0.90	2.40	 	 	 	 	 	 	 	 	 	 	 	 	 	 	 	 	 	 	1581485823	8.08	14.96
12/02/2020 05:37:04	120220	12022020	053704	188.88	13.172407	-57.057533	189.16	0.560	0.570	1.030	189.04	-0.90	1.40	 	 	 	 	 	 	 	 	 	 	 	 	 	 	 	 	 	 	1581485824	7.78	14.41
12/02/2020 05:37:05	120220	12022020	053705	189.48	13.172370	-57.057535	189.66	0.720	-0.000	0.540	189.53	-1.50	1.00	 	 	 	 	 	 	 	 	 	 	 	 	 	 	 	 	 	 	1581485825	7.93	14.69
12/02/2020 05:37:06	120220	12022020	053706	189.54	13.172332	-57.057537	189.64	0.750	-0.830	0.920	189.50	-2.30	1.50	 	 	 	 	 	 	 	 	 	 	 	 	 	 	 	 	 	 	1581485826	8.47	15.69
12/02/2020 05:37:07	120220	12022020	053707	189.25	13.172290	-57.057542	189.34	0.370	-1.160	1.920	189.25	-2.60	2.10	 	 	 	 	 	 	 	 	 	 	 	 	 	 	 	 	 	 	1581485827	8.79	16.28
12/02/2020 05:37:08	120220	12022020	053708	188.83	13.172252	-57.057550	188.93	-0.400	-0.840	3.120	188.73	-2.20	3.70	 	 	 	 	 	 	 	 	 	 	 	 	 	 	 	 	 	 	1581485828	8.43	15.61
12/02/2020 05:37:09	120220	12022020	053709	188.30	13.172218	-57.057565	188.41	-1.090	-0.300	3.990	188.19	-1.60	4.50	 	 	 	 	 	 	 	 	 	 	 	 	 	 	 	 	 	 	1581485829	8.01	14.83
12/02/2020 05:37:10	120220	12022020	053710	187.81	13.172185	-57.057582	187.96	-1.240	0.190	4.300	187.76	-1.10	4.70	 	 	 	 	 	 	 	 	 	 	 	 	 	 	 	 	 	 	1581485830	8.10	15.00
12/02/2020 05:37:11	120220	12022020	053711	187.81	13.172150	-57.057600	188.06	-0.770	0.730	3.650	187.91	-0.60	4.00	 	 	 	 	 	 	 	 	 	 	 	 	 	 	 	 	 	 	1581485831	8.23	15.24
12/02/2020 05:37:12	120220	12022020	053712	188.48	13.172115	-57.057610	188.76	-0.020	0.990	2.110	188.66	-0.40	2.40	 	 	 	 	 	 	 	 	 	 	 	 	 	 	 	 	 	 	1581485832	7.78	14.41
12/02/2020 05:37:13	120220	12022020	053713	189.42	13.172080	-57.057615	189.66	0.690	0.500	0.550	189.59	-1.00	0.90	 	 	 	 	 	 	 	 	 	 	 	 	 	 	 	 	 	 	1581485833	7.51	13.91
12/02/2020 05:37:14	120220	12022020	053714	190.05	13.172043	-57.057615	190.19	1.210	-0.660	-0.260	190.11	-2.20	0.20	 	 	 	 	 	 	 	 	 	 	 	 	 	 	 	 	 	 	1581485834	7.97	14.76
12/02/2020 05:37:15	120220	12022020	053715	190.17	13.172003	-57.057615	190.26	1.330	-1.690	-0.240	190.15	-3.20	0.30	 	 	 	 	 	 	 	 	 	 	 	 	 	 	 	 	 	 	1581485835	8.59	15.91
12/02/2020 05:37:16	120220	12022020	053716	190.05	13.171963	-57.057618	190.14	0.860	-1.760	0.430	190.02	-3.10	1.00	 	 	 	 	 	 	 	 	 	 	 	 	 	 	 	 	 	 	1581485836	8.65	16.02
12/02/2020 05:37:17	120220	12022020	053717	189.82	13.171928	-57.057625	189.91	0.040	-1.070	1.380	189.76	-2.40	2.00	 	 	 	 	 	 	 	 	 	 	 	 	 	 	 	 	 	 	1581485837	7.86	14.56
12/02/2020 05:37:18	120220	12022020	053718	189.51	13.171895	-57.057637	189.62	-0.710	-0.350	2.310	189.45	-1.70	2.90	 	 	 	 	 	 	 	 	 	 	 	 	 	 	 	 	 	 	1581485838	7.41	13.72
12/02/2020 05:37:19	120220	12022020	053719	189.24	13.171862	-57.057652	189.38	-1.110	0.050	3.050	189.20	-1.30	3.60	 	 	 	 	 	 	 	 	 	 	 	 	 	 	 	 	 	 	1581485839	7.70	14.26
12/02/2020 05:37:20	120220	12022020	053720	189.09	13.171827	-57.057667	189.25	-1.060	0.180	3.370	189.06	-1.20	3.80	 	 	 	 	 	 	 	 	 	 	 	 	 	 	 	 	 	 	1581485840	8.28	15.33
12/02/2020 05:37:21	120220	12022020	053721	188.98	13.171790	-57.057682	189.14	-0.710	0.190	3.340	188.96	-1.20	3.80	 	 	 	 	 	 	 	 	 	 	 	 	 	 	 	 	 	 	1581485841	8.55	15.83
12/02/2020 05:37:22	120220	12022020	053722	188.82	13.171752	-57.057695	188.98	-0.320	0.180	3.100	188.80	-1.20	3.50	 	 	 	 	 	 	 	 	 	 	 	 	 	 	 	 	 	 	1581485842	8.53	15.80
12/02/2020 05:37:23	120220	12022020	053723	188.83	13.171713	-57.057703	189.05	-0.100	0.390	2.640	188.88	-1.00	3.00	 	 	 	 	 	 	 	 	 	 	 	 	 	 	 	 	 	 	1581485843	8.41	15.58
12/02/2020 05:37:24	120220	12022020	053724	189.25	13.171678	-57.057712	189.49	-0.010	0.840	1.880	189.37	-0.50	2.20	 	 	 	 	 	 	 	 	 	 	 	 	 	 	 	 	 	 	1581485844	7.93	14.69
12/02/2020 05:37:25	120220	12022020	053725	189.83	13.171645	-57.057718	190.05	0.280	0.870	0.870	189.93	-0.60	1.20	 	 	 	 	 	 	 	 	 	 	 	 	 	 	 	 	 	 	1581485845	7.24	13.41
12/02/2020 05:37:26	120220	12022020	053726	190.16	13.171612	-57.057722	190.30	0.850	-0.120	0.190	190.17	-1.70	0.70	 	 	 	 	 	 	 	 	 	 	 	 	 	 	 	 	 	 	1581485846	7.25	13.43
12/02/2020 05:37:27	120220	12022020	053727	190.06	13.171573	-57.057723	190.15	1.270	-1.560	0.420	190.00	-3.10	1.00	 	 	 	 	 	 	 	 	 	 	 	 	 	 	 	 	 	 	1581485847	8.26	15.30
12/02/2020 05:37:28	120220	12022020	053728	189.65	13.171532	-57.057730	189.71	1.070	-2.270	1.370	189.54	-3.70	2.00	 	 	 	 	 	 	 	 	 	 	 	 	 	 	 	 	 	 	1581485848	8.93	16.54
12/02/2020 05:37:29	120220	12022020	053729	189.05	13.171493	-57.057740	189.13	0.290	-1.690	2.690	188.93	-2.90	3.30	 	 	 	 	 	 	 	 	 	 	 	 	 	 	 	 	 	 	1581485849	8.58	15.89
12/02/2020 05:37:30	120220	12022020	053730	188.64	13.171460	-57.057755	188.81	-0.580	-0.240	3.680	188.61	-1.50	4.20	 	 	 	 	 	 	 	 	 	 	 	 	 	 	 	 	 	 	1581485850	7.76	14.37
12/02/2020 05:37:31	120220	12022020	053731	188.67	13.171430	-57.057770	188.90	-1.080	0.990	3.990	188.71	-0.30	4.50	 	 	 	 	 	 	 	 	 	 	 	 	 	 	 	 	 	 	1581485851	7.08	13.11
12/02/2020 05:37:32	120220	12022020	053732	188.83	13.171400	-57.057782	189.03	-0.950	0.940	3.850	188.83	-0.60	4.30	 	 	 	 	 	 	 	 	 	 	 	 	 	 	 	 	 	 	1581485852	7.05	13.06
12/02/2020 05:37:33	120220	12022020	053733	188.69	13.171365	-57.057793	188.81	-0.270	-0.380	3.470	188.61	-2.00	3.90	 	 	 	 	 	 	 	 	 	 	 	 	 	 	 	 	 	 	1581485853	8.14	15.08
12/02/2020 05:37:34	120220	12022020	053734	188.33	13.171320	-57.057803	188.48	0.360	-1.390	3.020	188.30	-2.80	3.40	 	 	 	 	 	 	 	 	 	 	 	 	 	 	 	 	 	 	1581485854	9.60	17.78
12/02/2020 05:37:35	120220	12022020	053735	188.37	13.171277	-57.057812	188.61	0.470	-0.820	2.290	188.44	-2.10	2.70	 	 	 	 	 	 	 	 	 	 	 	 	 	 	 	 	 	 	1581485855	9.57	17.72
12/02/2020 05:37:36	120220	12022020	053736	188.91	13.171242	-57.057817	189.17	0.070	0.700	1.370	189.04	-0.60	1.80	 	 	 	 	 	 	 	 	 	 	 	 	 	 	 	 	 	 	1581485856	7.82	14.48
12/02/2020 05:37:37	120220	12022020	053737	189.44	13.171212	-57.057818	189.62	-0.350	1.390	0.870	189.50	-0.10	1.40	 	 	 	 	 	 	 	 	 	 	 	 	 	 	 	 	 	 	1581485857	6.36	11.78
12/02/2020 05:37:38	120220	12022020	053738	189.49	13.171180	-57.057822	189.59	-0.320	0.550	1.200	189.44	-1.00	1.80	 	 	 	 	 	 	 	 	 	 	 	 	 	 	 	 	 	 	1581485858	6.77	12.54
12/02/2020 05:37:39	120220	12022020	053739	189.17	13.171142	-57.057832	189.26	0.070	-0.840	1.870	189.09	-2.40	2.40	 	 	 	 	 	 	 	 	 	 	 	 	 	 	 	 	 	 	1581485859	8.37	15.50
12/02/2020 05:37:40	120220	12022020	053740	188.78	13.171102	-57.057845	188.90	0.380	-1.400	2.510	188.72	-2.80	3.10	 	 	 	 	 	 	 	 	 	 	 	 	 	 	 	 	 	 	1581485860	9.23	17.09
12/02/2020 05:37:41	120220	12022020	053741	188.54	13.171063	-57.057858	188.71	0.390	-0.860	2.890	188.53	-2.20	3.40	 	 	 	 	 	 	 	 	 	 	 	 	 	 	 	 	 	 	1581485861	8.55	15.83
12/02/2020 05:37:42	120220	12022020	053742	188.60	13.171030	-57.057868	188.80	0.200	0.020	2.740	188.63	-1.30	3.20	 	 	 	 	 	 	 	 	 	 	 	 	 	 	 	 	 	 	1581485862	7.42	13.74
12/02/2020 05:37:43	120220	12022020	053743	188.77	13.171000	-57.057875	188.96	0.060	0.330	2.340	188.80	-1.10	2.80	 	 	 	 	 	 	 	 	 	 	 	 	 	 	 	 	 	 	1581485863	6.90	12.78
12/02/2020 05:37:44	120220	12022020	053744	188.78	13.170965	-57.057880	188.90	0.120	-0.140	2.100	188.74	-1.60	2.60	 	 	 	 	 	 	 	 	 	 	 	 	 	 	 	 	 	 	1581485864	7.41	13.72
12/02/2020 05:37:45	120220	12022020	053745	188.48	13.170927	-57.057887	188.56	0.280	-0.800	2.110	188.48	-2.10	2.60	 	 	 	 	 	 	 	 	 	 	 	 	 	 	 	 	 	 	1581485865	8.29	15.35
12/02/2020 05:37:46	120220	12022020	053746	188.07	13.170888	-57.057895	188.19	0.300	-0.920	2.180	188.01	-2.30	2.70	 	 	 	 	 	 	 	 	 	 	 	 	 	 	 	 	 	 	1581485866	8.65	16.02
12/02/2020 05:37:47	120220	12022020	053747	187.94	13.170850	-57.057903	188.14	0.000	-0.330	2.060	187.98	-1.60	2.50	 	 	 	 	 	 	 	 	 	 	 	 	 	 	 	 	 	 	1581485867	8.26	15.30
12/02/2020 05:37:48	120220	12022020	053748	188.27	13.170815	-57.057910	188.50	-0.540	0.310	1.940	188.35	-1.10	2.40	 	 	 	 	 	 	 	 	 	 	 	 	 	 	 	 	 	 	1581485868	7.50	13.89
12/02/2020 05:37:49	120220	12022020	053749	188.62	13.170783	-57.057917	188.81	-0.890	0.290	2.140	188.66	-1.20	2.70	 	 	 	 	 	 	 	 	 	 	 	 	 	 	 	 	 	 	1581485869	7.28	13.48
12/02/2020 05:37:50	120220	12022020	053750	188.65	13.170748	-57.057928	188.79	-0.700	-0.320	2.480	188.61	-1.80	3.00	 	 	 	 	 	 	 	 	 	 	 	 	 	 	 	 	 	 	1581485870	7.97	14.76
12/02/2020 05:37:51	120220	12022020	053751	188.37	13.170708	-57.057942	188.49	-0.090	-0.740	2.700	188.30	-2.10	3.20	 	 	 	 	 	 	 	 	 	 	 	 	 	 	 	 	 	 	1581485871	8.73	16.17
12/02/2020 05:37:52	120220	12022020	053752	188.09	13.170670	-57.057953	188.24	0.430	-0.500	2.550	188.05	-1.80	3.00	 	 	 	 	 	 	 	 	 	 	 	 	 	 	 	 	 	 	1581485872	8.66	16.04
12/02/2020 05:37:53	120220	12022020	053753	187.99	13.170633	-57.057960	188.15	0.590	0.080	2.000	187.98	-1.30	2.40	 	 	 	 	 	 	 	 	 	 	 	 	 	 	 	 	 	 	1581485873	7.93	14.69
12/02/2020 05:37:54	120220	12022020	053754	187.94	13.170600	-57.057962	188.09	0.490	0.370	1.480	187.93	-1.00	2.00	 	 	 	 	 	 	 	 	 	 	 	 	 	 	 	 	 	 	1581485874	7.43	13.76
12/02/2020 05:37:55	120220	12022020	053755	187.84	13.170565	-57.057965	187.98	0.320	0.160	1.350	187.82	-1.30	1.90	 	 	 	 	 	 	 	 	 	 	 	 	 	 	 	 	 	 	1581485875	7.58	14.04
12/02/2020 05:37:56	120220	12022020	053756	187.75	13.170527	-57.057970	187.91	0.160	-0.170	1.530	187.75	-1.60	2.10	 	 	 	 	 	 	 	 	 	 	 	 	 	 	 	 	 	 	1581485876	8.04	14.89
12/02/2020 05:37:57	120220	12022020	053757	187.79	13.170490	-57.057977	187.97	-0.040	-0.240	1.880	187.79	-1.60	2.30	 	 	 	 	 	 	 	 	 	 	 	 	 	 	 	 	 	 	1581485877	8.19	15.17
12/02/2020 05:37:58	120220	12022020	053758	187.86	13.170455	-57.057988	188.05	-0.180	-0.270	2.210	187.88	-1.70	2.70	 	 	 	 	 	 	 	 	 	 	 	 	 	 	 	 	 	 	1581485878	7.90	14.63
12/02/2020 05:37:59	120220	12022020	053759	187.97	13.170420	-57.058000	188.17	-0.120	-0.550	2.280	187.97	-1.90	2.80	 	 	 	 	 	 	 	 	 	 	 	 	 	 	 	 	 	 	1581485879	7.83	14.50
12/02/2020 05:38:00	120220	12022020	053800	188.15	13.170383	-57.058008	188.35	-0.000	-0.850	2.140	188.18	-2.30	2.60	 	 	 	 	 	 	 	 	 	 	 	 	 	 	 	 	 	 	1581485880	8.07	14.95
12/02/2020 05:38:01	120220	12022020	053801	188.20	13.170347	-57.058017	188.37	0.000	-0.860	1.980	188.19	-2.20	2.50	1015.70	26.10	26.10	21.00	21.10	-1.0	73.0	73.0	402.0	25.6	263.00	11.10	73.00	12.30	16	8371.0	27.2	27.2	1581485881	8.19	15.17
12/02/2020 05:38:02	120220	12022020	053802	188.04	13.170310	-57.058022	188.17	-0.090	-0.640	1.850	187.98	-2.00	2.30	 	 	 	 	 	 	 	 	 	 	 	 	 	 	 	 	 	 	1581485882	8.01	14.83
12/02/2020 05:38:03	120220	12022020	053803	187.75	13.170273	-57.058028	187.87	-0.180	-0.500	1.740	187.69	-1.90	2.20	 	 	 	 	 	 	 	 	 	 	 	 	 	 	 	 	 	 	1581485883	7.89	14.61
12/02/2020 05:38:04	120220	12022020	053804	187.49	13.170235	-57.058033	187.64	-0.240	-0.360	1.760	187.47	-1.70	2.30	 	 	 	 	 	 	 	 	 	 	 	 	 	 	 	 	 	 	1581485884	8.14	15.08
12/02/2020 05:38:05	120220	12022020	053805	187.46	13.170198	-57.058042	187.65	-0.330	0.060	1.830	187.49	-1.30	2.30	 	 	 	 	 	 	 	 	 	 	 	 	 	 	 	 	 	 	1581485885	8.30	15.37
12/02/2020 05:38:06	120220	12022020	053806	187.65	13.170162	-57.058048	187.86	-0.460	0.600	1.850	187.70	-0.80	2.30	 	 	 	 	 	 	 	 	 	 	 	 	 	 	 	 	 	 	1581485886	8.00	14.82
12/02/2020 05:38:07	120220	12022020	053807	187.82	13.170127	-57.058057	187.99	-0.440	0.710	1.970	187.83	-0.70	2.50	 	 	 	 	 	 	 	 	 	 	 	 	 	 	 	 	 	 	1581485887	7.67	14.20
12/02/2020 05:38:08	120220	12022020	053808	187.76	13.170090	-57.058067	187.90	-0.070	0.200	2.280	187.72	-1.30	2.80	 	 	 	 	 	 	 	 	 	 	 	 	 	 	 	 	 	 	1581485888	7.93	14.69
12/02/2020 05:38:09	120220	12022020	053809	187.59	13.170052	-57.058077	187.76	0.500	-0.400	2.400	187.59	-1.70	2.90	 	 	 	 	 	 	 	 	 	 	 	 	 	 	 	 	 	 	1581485889	8.54	15.82
12/02/2020 05:38:10	120220	12022020	053810	187.59	13.170013	-57.058083	187.79	0.820	-0.590	2.240	187.61	-2.00	2.70	 	 	 	 	 	 	 	 	 	 	 	 	 	 	 	 	 	 	1581485890	8.66	16.04
12/02/2020 05:38:11	120220	12022020	053811	187.81	13.169975	-57.058088	188.04	0.660	-0.310	1.910	187.87	-1.70	2.40	 	 	 	 	 	 	 	 	 	 	 	 	 	 	 	 	 	 	1581485891	8.18	15.15
12/02/2020 05:38:12	120220	12022020	053812	188.08	13.169940	-57.058092	188.27	0.160	0.050	1.720	188.10	-1.30	2.20	 	 	 	 	 	 	 	 	 	 	 	 	 	 	 	 	 	 	1581485892	7.51	13.91
12/02/2020 05:38:13	120220	12022020	053813	188.15	13.169907	-57.058098	188.33	-0.320	0.030	1.910	188.15	-1.40	2.40	 	 	 	 	 	 	 	 	 	 	 	 	 	 	 	 	 	 	1581485893	7.23	13.39
12/02/2020 05:38:14	120220	12022020	053814	188.15	13.169873	-57.058107	188.33	-0.550	-0.370	2.140	188.14	-1.80	2.70	 	 	 	 	 	 	 	 	 	 	 	 	 	 	 	 	 	 	1581485894	7.64	14.15
12/02/2020 05:38:15	120220	12022020	053815	188.03	13.169837	-57.058118	188.19	-0.440	-0.890	2.490	187.99	-2.40	3.00	 	 	 	 	 	 	 	 	 	 	 	 	 	 	 	 	 	 	1581485895	8.17	15.13
12/02/2020 05:38:16	120220	12022020	053816	187.85	13.169798	-57.058132	188.03	-0.020	-1.220	2.650	187.83	-2.60	3.10	 	 	 	 	 	 	 	 	 	 	 	 	 	 	 	 	 	 	1581485896	8.49	15.72
12/02/2020 05:38:17	120220	12022020	053817	187.82	13.169760	-57.058142	188.01	0.530	-1.050	2.170	187.83	-2.40	2.60	 	 	 	 	 	 	 	 	 	 	 	 	 	 	 	 	 	 	1581485897	8.51	15.76
12/02/2020 05:38:18	120220	12022020	053818	187.94	13.169723	-57.058148	188.13	0.880	-0.490	1.330	187.97	-1.80	1.70	 	 	 	 	 	 	 	 	 	 	 	 	 	 	 	 	 	 	1581485898	8.13	15.06
12/02/2020 05:38:19	120220	12022020	053819	188.04	13.169687	-57.058147	188.22	0.660	0.090	0.910	188.04	-1.30	1.40	 	 	 	 	 	 	 	 	 	 	 	 	 	 	 	 	 	 	1581485899	7.89	14.61
12/02/2020 05:38:20	120220	12022020	053820	188.05	13.169650	-57.058145	188.24	-0.200	0.400	1.120	188.07	-1.00	1.70	 	 	 	 	 	 	 	 	 	 	 	 	 	 	 	 	 	 	1581485900	7.89	14.61
12/02/2020 05:38:21	120220	12022020	053821	188.17	13.169613	-57.058150	188.38	-1.280	0.470	1.800	188.20	-1.00	2.40	 	 	 	 	 	 	 	 	 	 	 	 	 	 	 	 	 	 	1581485901	8.01	14.83
12/02/2020 05:38:22	120220	12022020	053822	188.32	13.169577	-57.058163	188.53	-1.850	0.290	2.770	188.34	-1.20	3.40	 	 	 	 	 	 	 	 	 	 	 	 	 	 	 	 	 	 	1581485902	8.26	15.30
12/02/2020 05:38:23	120220	12022020	053823	188.39	13.169542	-57.058183	188.61	-1.370	-0.080	3.270	188.40	-1.50	3.70	 	 	 	 	 	 	 	 	 	 	 	 	 	 	 	 	 	 	1581485903	8.78	16.26
12/02/2020 05:38:24	120220	12022020	053824	188.40	13.169505	-57.058202	188.59	-0.100	-0.410	2.840	188.39	-1.90	3.20	 	 	 	 	 	 	 	 	 	 	 	 	 	 	 	 	 	 	1581485904	8.84	16.37
12/02/2020 05:38:25	120220	12022020	053825	188.35	13.169467	-57.058213	188.51	1.050	-0.500	1.970	188.33	-1.90	2.30	 	 	 	 	 	 	 	 	 	 	 	 	 	 	 	 	 	 	1581485905	8.44	15.63
12/02/2020 05:38:26	120220	12022020	053826	188.21	13.169428	-57.058217	188.34	1.410	-0.420	1.190	188.17	-1.80	1.60	 	 	 	 	 	 	 	 	 	 	 	 	 	 	 	 	 	 	1581485906	8.10	15.00
12/02/2020 05:38:27	120220	12022020	053827	187.99	13.169393	-57.058217	188.11	1.040	-0.300	0.780	187.94	-1.70	1.30	 	 	 	 	 	 	 	 	 	 	 	 	 	 	 	 	 	 	1581485907	7.88	14.59
12/02/2020 05:38:28	120220	12022020	053828	187.80	13.169357	-57.058218	187.94	0.440	-0.100	0.880	187.79	-1.50	1.40	 	 	 	 	 	 	 	 	 	 	 	 	 	 	 	 	 	 	1581485908	7.75	14.35
12/02/2020 05:38:29	120220	12022020	053829	187.89	13.169322	-57.058225	188.09	-0.080	0.240	1.100	187.94	-1.10	1.60	 	 	 	 	 	 	 	 	 	 	 	 	 	 	 	 	 	 	1581485909	7.71	14.28
12/02/2020 05:38:30	120220	12022020	053830	188.19	13.169287	-57.058233	188.40	-0.370	0.360	1.390	188.25	-1.10	1.90	 	 	 	 	 	 	 	 	 	 	 	 	 	 	 	 	 	 	1581485910	7.53	13.95
12/02/2020 05:38:31	120220	12022020	053831	188.41	13.169253	-57.058243	188.59	-0.330	-0.160	1.800	188.42	-1.70	2.30	 	 	 	 	 	 	 	 	 	 	 	 	 	 	 	 	 	 	1581485911	7.64	14.15
12/02/2020 05:38:32	120220	12022020	053832	188.40	13.169217	-57.058255	188.56	-0.010	-1.170	2.200	188.38	-2.70	2.70	 	 	 	 	 	 	 	 	 	 	 	 	 	 	 	 	 	 	1581485912	8.31	15.39
12/02/2020 05:38:33	120220	12022020	053833	188.33	13.169175	-57.058265	188.53	0.210	-1.690	2.450	188.34	-3.10	2.90	 	 	 	 	 	 	 	 	 	 	 	 	 	 	 	 	 	 	1581485913	9.02	16.71
12/02/2020 05:38:34	120220	12022020	053834	188.49	13.169135	-57.058273	188.72	-0.050	-1.150	2.540	188.54	-2.40	3.00	 	 	 	 	 	 	 	 	 	 	 	 	 	 	 	 	 	 	1581485914	8.84	16.37
12/02/2020 05:38:35	120220	12022020	053835	188.74	13.169100	-57.058282	188.96	-0.620	-0.060	2.530	188.74	-1.70	3.00	 	 	 	 	 	 	 	 	 	 	 	 	 	 	 	 	 	 	1581485915	7.77	14.39
12/02/2020 05:38:36	120220	12022020	053836	188.79	13.169068	-57.058292	188.95	-0.940	0.600	2.570	188.76	-0.80	3.10	 	 	 	 	 	 	 	 	 	 	 	 	 	 	 	 	 	 	1581485916	7.09	13.13
12/02/2020 05:38:37	120220	12022020	053837	188.48	13.169035	-57.058302	188.58	-0.600	0.400	2.670	188.39	-1.10	3.20	 	 	 	 	 	 	 	 	 	 	 	 	 	 	 	 	 	 	1581485917	7.47	13.83
12/02/2020 05:38:38	120220	12022020	053838	187.93	13.168997	-57.058312	188.02	0.180	-0.190	2.740	187.82	-1.70	3.20	 	 	 	 	 	 	 	 	 	 	 	 	 	 	 	 	 	 	1581485918	8.42	15.59
12/02/2020 05:38:39	120220	12022020	053839	187.50	13.168957	-57.058320	187.65	0.770	-0.420	2.540	187.47	-1.80	3.00	 	 	 	 	 	 	 	 	 	 	 	 	 	 	 	 	 	 	1581485919	9.01	16.69
12/02/2020 05:38:40	120220	12022020	053840	187.58	13.168917	-57.058327	187.80	0.820	-0.020	1.970	187.65	-1.30	2.40	 	 	 	 	 	 	 	 	 	 	 	 	 	 	 	 	 	 	1581485920	8.70	16.11
12/02/2020 05:38:41	120220	12022020	053841	188.06	13.168880	-57.058330	188.30	0.510	0.640	1.350	188.17	-0.70	1.80	 	 	 	 	 	 	 	 	 	 	 	 	 	 	 	 	 	 	1581485921	7.85	14.54
12/02/2020 05:38:42	120220	12022020	053842	188.52	13.168847	-57.058333	188.73	0.190	0.810	1.140	188.60	-0.60	1.70	 	 	 	 	 	 	 	 	 	 	 	 	 	 	 	 	 	 	1581485922	7.23	13.39
12/02/2020 05:38:43	120220	12022020	053843	188.85	13.168812	-57.058338	189.05	-0.020	0.310	1.510	188.90	-1.20	2.10	 	 	 	 	 	 	 	 	 	 	 	 	 	 	 	 	 	 	1581485923	7.42	13.74
12/02/2020 05:38:44	120220	12022020	053844	189.09	13.168777	-57.058348	189.29	-0.100	-0.550	2.060	189.13	-2.10	2.60	 	 	 	 	 	 	 	 	 	 	 	 	 	 	 	 	 	 	1581485924	7.99	14.80
12/02/2020 05:38:45	120220	12022020	053845	189.16	13.168738	-57.058360	189.32	-0.040	-1.360	2.480	189.14	-2.80	3.00	 	 	 	 	 	 	 	 	 	 	 	 	 	 	 	 	 	 	1581485925	8.40	15.56
12/02/2020 05:38:46	120220	12022020	053846	188.92	13.168702	-57.058373	189.04	0.090	-1.820	2.810	188.84	-3.20	3.30	 	 	 	 	 	 	 	 	 	 	 	 	 	 	 	 	 	 	1581485926	8.42	15.59
12/02/2020 05:38:47	120220	12022020	053847	188.47	13.168665	-57.058385	188.56	0.090	-1.710	2.960	188.47	-3.20	3.40	 	 	 	 	 	 	 	 	 	 	 	 	 	 	 	 	 	 	1581485927	8.30	15.37
12/02/2020 05:38:48	120220	12022020	053848	187.97	13.168628	-57.058393	188.07	-0.080	-1.050	2.880	187.87	-2.30	3.40	 	 	 	 	 	 	 	 	 	 	 	 	 	 	 	 	 	 	1581485928	8.08	14.96
12/02/2020 05:38:49	120220	12022020	053849	187.59	13.168593	-57.058402	187.74	-0.310	-0.040	2.690	187.55	-1.30	3.10	 	 	 	 	 	 	 	 	 	 	 	 	 	 	 	 	 	 	1581485929	7.87	14.58
12/02/2020 05:38:50	120220	12022020	053850	187.65	13.168558	-57.058410	187.87	-0.440	1.050	2.230	187.72	-0.20	2.60	 	 	 	 	 	 	 	 	 	 	 	 	 	 	 	 	 	 	1581485930	7.72	14.30
12/02/2020 05:38:51	120220	12022020	053851	188.17	13.168523	-57.058417	188.41	-0.250	1.650	1.420	188.29	0.20	1.80	 	 	 	 	 	 	 	 	 	 	 	 	 	 	 	 	 	 	1581485931	7.51	13.91
12/02/2020 05:38:52	120220	12022020	053852	188.69	13.168488	-57.058420	188.88	0.260	1.050	0.840	188.77	-0.50	1.30	 	 	 	 	 	 	 	 	 	 	 	 	 	 	 	 	 	 	1581485932	7.61	14.09
12/02/2020 05:38:53	120220	12022020	053853	188.96	13.168448	-57.058423	189.10	0.700	-0.390	0.970	188.97	-2.00	1.50	 	 	 	 	 	 	 	 	 	 	 	 	 	 	 	 	 	 	1581485933	8.54	15.82
12/02/2020 05:38:54	120220	12022020	053854	188.88	13.168407	-57.058430	189.01	0.660	-1.430	1.790	188.84	-2.90	2.40	 	 	 	 	 	 	 	 	 	 	 	 	 	 	 	 	 	 	1581485934	9.28	17.19
12/02/2020 05:38:55	120220	12022020	053855	188.63	13.168367	-57.058440	188.78	0.120	-1.320	2.860	188.58	-2.60	3.50	 	 	 	 	 	 	 	 	 	 	 	 	 	 	 	 	 	 	1581485935	8.91	16.50
12/02/2020 05:38:56	120220	12022020	053856	188.42	13.168332	-57.058453	188.59	-0.560	-0.500	3.650	188.39	-1.80	4.20	 	 	 	 	 	 	 	 	 	 	 	 	 	 	 	 	 	 	1581485936	7.86	14.56
12/02/2020 05:38:57	120220	12022020	053857	188.22	13.168302	-57.058468	188.37	-0.880	-0.010	4.090	188.16	-1.40	4.60	 	 	 	 	 	 	 	 	 	 	 	 	 	 	 	 	 	 	1581485937	7.19	13.32
12/02/2020 05:38:58	120220	12022020	053858	187.92	13.168270	-57.058483	188.08	-0.590	-0.210	4.090	187.87	-1.60	4.50	 	 	 	 	 	 	 	 	 	 	 	 	 	 	 	 	 	 	1581485938	7.60	14.08
12/02/2020 05:38:59	120220	12022020	053859	187.89	13.168232	-57.058495	188.13	-0.010	-0.380	3.350	187.89	-1.80	4.10	 	 	 	 	 	 	 	 	 	 	 	 	 	 	 	 	 	 	1581485939	8.48	15.70
12/02/2020 05:39:00	120220	12022020	053900	188.32	13.168193	-57.058503	188.59	0.480	-0.050	2.120	188.44	-1.40	2.40	 	 	 	 	 	 	 	 	 	 	 	 	 	 	 	 	 	 	1581485940	8.47	15.69
12/02/2020 05:39:01	120220	12022020	053901	188.93	13.168157	-57.058507	189.17	0.650	0.370	0.890	189.05	-1.00	1.30	1015.70	26.00	26.00	20.50	20.60	-1.0	71.0	72.0	402.0	25.6	259.00	11.50	69.00	12.90	16	8505.0	27.2	27.2	1581485941	7.84	14.52
12/02/2020 05:39:02	120220	12022020	053902	189.53	13.168122	-57.058505	189.75	0.510	0.320	0.110	189.64	-1.10	0.60	 	 	 	 	 	 	 	 	 	 	 	 	 	 	 	 	 	 	1581485942	7.52	13.93
12/02/2020 05:39:03	120220	12022020	053903	190.00	13.168087	-57.058507	190.19	0.120	-0.060	0.210	190.06	-1.50	0.80	 	 	 	 	 	 	 	 	 	 	 	 	 	 	 	 	 	 	1581485943	7.75	14.35
12/02/2020 05:39:04	120220	12022020	053904	190.09	13.168050	-57.058513	190.20	-0.240	-0.500	1.040	190.04	-2.00	1.70	 	 	 	 	 	 	 	 	 	 	 	 	 	 	 	 	 	 	1581485944	7.83	14.50
12/02/2020 05:39:05	120220	12022020	053905	189.62	13.168015	-57.058525	189.68	-0.230	-1.030	2.130	189.47	-2.50	2.80	 	 	 	 	 	 	 	 	 	 	 	 	 	 	 	 	 	 	1581485945	7.92	14.67
12/02/2020 05:39:06	120220	12022020	053906	188.80	13.167980	-57.058538	188.86	0.030	-1.550	3.270	188.62	-3.00	3.90	 	 	 	 	 	 	 	 	 	 	 	 	 	 	 	 	 	 	1581485946	8.24	15.26
12/02/2020 05:39:07	120220	12022020	053907	188.02	13.167942	-57.058553	188.16	0.150	-1.520	4.190	187.92	-2.80	4.70	 	 	 	 	 	 	 	 	 	 	 	 	 	 	 	 	 	 	1581485947	8.73	16.17
12/02/2020 05:39:08	120220	12022020	053908	187.84	13.167903	-57.058568	188.11	-0.140	-0.520	4.350	187.89	-1.80	4.80	 	 	 	 	 	 	 	 	 	 	 	 	 	 	 	 	 	 	1581485948	8.71	16.13
12/02/2020 05:39:09	120220	12022020	053909	188.34	13.167870	-57.058582	188.70	-0.610	1.000	3.750	188.51	-0.30	4.10	 	 	 	 	 	 	 	 	 	 	 	 	 	 	 	 	 	 	1581485949	7.78	14.41
12/02/2020 05:39:10	120220	12022020	053910	189.27	13.167840	-57.058592	189.63	-0.760	1.970	2.450	189.47	0.60	2.70	 	 	 	 	 	 	 	 	 	 	 	 	 	 	 	 	 	 	1581485950	6.82	12.63
12/02/2020 05:39:11	120220	12022020	053911	190.18	13.167808	-57.058598	190.46	-0.350	1.600	0.940	190.18	0.40	1.70	 	 	 	 	 	 	 	 	 	 	 	 	 	 	 	 	 	 	1581485951	6.76	12.52
12/02/2020 05:39:12	120220	12022020	053912	190.59	13.167773	-57.058600	190.73	0.330	0.130	0.190	190.58	-1.50	0.70	 	 	 	 	 	 	 	 	 	 	 	 	 	 	 	 	 	 	1581485952	7.80	14.45
12/02/2020 05:39:13	120220	12022020	053913	190.30	13.167732	-57.058603	190.35	0.780	-1.410	0.440	190.30	-2.50	0.80	 	 	 	 	 	 	 	 	 	 	 	 	 	 	 	 	 	 	1581485953	8.74	16.19
12/02/2020 05:39:14	120220	12022020	053914	189.74	13.167692	-57.058610	189.83	0.730	-1.930	1.210	189.65	-3.30	1.80	 	 	 	 	 	 	 	 	 	 	 	 	 	 	 	 	 	 	1581485954	8.87	16.43
12/02/2020 05:39:15	120220	12022020	053915	189.39	13.167655	-57.058622	189.56	0.340	-1.370	1.980	189.37	-2.70	2.50	 	 	 	 	 	 	 	 	 	 	 	 	 	 	 	 	 	 	1581485955	8.10	15.00
12/02/2020 05:39:16	120220	12022020	053916	189.33	13.167623	-57.058633	189.53	-0.020	-0.620	2.400	189.33	-2.00	2.90	 	 	 	 	 	 	 	 	 	 	 	 	 	 	 	 	 	 	1581485956	7.27	13.46
12/02/2020 05:39:17	120220	12022020	053917	189.27	13.167593	-57.058645	189.44	-0.170	-0.290	2.560	189.23	-1.70	3.10	 	 	 	 	 	 	 	 	 	 	 	 	 	 	 	 	 	 	1581485957	7.16	13.26
12/02/2020 05:39:18	120220	12022020	053918	188.96	13.167558	-57.058657	189.10	-0.230	-0.320	2.750	188.88	-1.70	3.20	 	 	 	 	 	 	 	 	 	 	 	 	 	 	 	 	 	 	1581485958	7.73	14.32
12/02/2020 05:39:19	120220	12022020	053919	188.60	13.167522	-57.058667	188.75	-0.420	-0.250	2.900	188.54	-1.60	3.40	 	 	 	 	 	 	 	 	 	 	 	 	 	 	 	 	 	 	1581485959	8.32	15.41
12/02/2020 05:39:20	120220	12022020	053920	188.36	13.167483	-57.058677	188.53	-0.680	0.140	2.880	188.32	-1.20	3.30	 	 	 	 	 	 	 	 	 	 	 	 	 	 	 	 	 	 	1581485960	8.35	15.46
12/02/2020 05:39:21	120220	12022020	053921	188.23	13.167448	-57.058688	188.42	-0.760	0.590	2.760	188.22	-0.80	3.20	 	 	 	 	 	 	 	 	 	 	 	 	 	 	 	 	 	 	1581485961	7.96	14.74
12/02/2020 05:39:22	120220	12022020	053922	188.27	13.167415	-57.058700	188.48	-0.430	0.830	2.350	188.30	-0.60	2.80	 	 	 	 	 	 	 	 	 	 	 	 	 	 	 	 	 	 	1581485962	7.72	14.30
12/02/2020 05:39:23	120220	12022020	053923	188.47	13.167380	-57.058710	188.69	0.190	0.760	1.620	188.52	-0.70	2.00	 	 	 	 	 	 	 	 	 	 	 	 	 	 	 	 	 	 	1581485963	7.64	14.15
12/02/2020 05:39:24	120220	12022020	053924	188.74	13.167345	-57.058715	188.94	0.780	0.250	0.930	188.80	-1.30	1.40	 	 	 	 	 	 	 	 	 	 	 	 	 	 	 	 	 	 	1581485964	7.66	14.19
12/02/2020 05:39:25	120220	12022020	053925	188.92	13.167308	-57.058718	189.07	1.070	-0.640	0.690	188.92	-1.80	1.20	 	 	 	 	 	 	 	 	 	 	 	 	 	 	 	 	 	 	1581485965	7.90	14.63
12/02/2020 05:39:26	120220	12022020	053926	188.77	13.167270	-57.058722	188.87	0.970	-1.450	1.090	188.70	-2.90	1.70	 	 	 	 	 	 	 	 	 	 	 	 	 	 	 	 	 	 	1581485966	8.21	15.20
12/02/2020 05:39:27	120220	12022020	053927	188.36	13.167232	-57.058727	188.48	0.450	-1.670	2.090	188.28	-3.00	2.70	 	 	 	 	 	 	 	 	 	 	 	 	 	 	 	 	 	 	1581485967	8.26	15.30
12/02/2020 05:39:28	120220	12022020	053928	188.03	13.167197	-57.058737	188.19	-0.330	-1.190	3.100	187.98	-2.50	3.70	 	 	 	 	 	 	 	 	 	 	 	 	 	 	 	 	 	 	1581485968	7.95	14.72
12/02/2020 05:39:29	120220	12022020	053929	187.75	13.167163	-57.058750	187.93	-1.020	-0.470	3.800	187.69	-1.80	4.30	 	 	 	 	 	 	 	 	 	 	 	 	 	 	 	 	 	 	1581485969	7.58	14.04
12/02/2020 05:39:30	120220	12022020	053930	187.43	13.167132	-57.058767	187.60	-1.210	-0.080	4.140	187.37	-1.40	4.60	 	 	 	 	 	 	 	 	 	 	 	 	 	 	 	 	 	 	1581485970	7.59	14.06
12/02/2020 05:39:31	120220	12022020	053931	187.15	13.167098	-57.058782	187.32	-0.720	-0.050	3.890	187.09	-1.40	4.30	 	 	 	 	 	 	 	 	 	 	 	 	 	 	 	 	 	 	1581485971	8.07	14.95
12/02/2020 05:39:32	120220	12022020	053932	186.89	13.167060	-57.058793	187.06	0.180	-0.030	3.170	186.85	-1.40	3.50	 	 	 	 	 	 	 	 	 	 	 	 	 	 	 	 	 	 	1581485972	8.41	15.58
12/02/2020 05:39:33	120220	12022020	053933	186.80	13.167022	-57.058798	187.01	0.870	0.290	2.270	186.82	-1.00	2.70	 	 	 	 	 	 	 	 	 	 	 	 	 	 	 	 	 	 	1581485973	8.40	15.56
12/02/2020 05:39:34	120220	12022020	053934	187.08	13.166985	-57.058798	187.35	0.850	0.840	1.490	187.18	-0.50	1.90	 	 	 	 	 	 	 	 	 	 	 	 	 	 	 	 	 	 	1581485974	8.07	14.95
12/02/2020 05:39:35	120220	12022020	053935	187.69	13.166950	-57.058798	187.98	0.200	1.070	1.150	187.83	-0.40	1.60	 	 	 	 	 	 	 	 	 	 	 	 	 	 	 	 	 	 	1581485975	7.50	13.89
12/02/2020 05:39:36	120220	12022020	053936	188.33	13.166917	-57.058802	188.60	-0.400	0.610	1.340	188.44	-0.90	1.90	 	 	 	 	 	 	 	 	 	 	 	 	 	 	 	 	 	 	1581485976	7.24	13.41
12/02/2020 05:39:37	120220	12022020	053937	188.76	13.166882	-57.058812	188.98	-0.340	-0.350	1.630	188.76	-1.50	2.10	 	 	 	 	 	 	 	 	 	 	 	 	 	 	 	 	 	 	1581485977	7.68	14.22
12/02/2020 05:39:38	120220	12022020	053938	188.89	13.166845	-57.058825	189.07	0.260	-1.200	1.710	188.88	-2.70	2.20	 	 	 	 	 	 	 	 	 	 	 	 	 	 	 	 	 	 	1581485978	8.16	15.11
12/02/2020 05:39:39	120220	12022020	053939	188.69	13.166810	-57.058833	188.83	0.770	-1.710	1.720	188.69	-3.00	2.20	 	 	 	 	 	 	 	 	 	 	 	 	 	 	 	 	 	 	1581485979	8.06	14.93
12/02/2020 05:39:40	120220	12022020	053940	188.33	13.166773	-57.058838	188.47	0.680	-1.800	1.790	188.26	-3.20	2.30	 	 	 	 	 	 	 	 	 	 	 	 	 	 	 	 	 	 	1581485980	7.91	14.65
12/02/2020 05:39:41	120220	12022020	053941	187.97	13.166737	-57.058843	188.11	0.030	-1.500	2.060	187.89	-2.80	2.60	 	 	 	 	 	 	 	 	 	 	 	 	 	 	 	 	 	 	1581485981	7.82	14.48
12/02/2020 05:39:42	120220	12022020	053942	187.47	13.166702	-57.058852	187.58	-0.670	-1.070	2.540	187.35	-2.40	3.10	 	 	 	 	 	 	 	 	 	 	 	 	 	 	 	 	 	 	1581485982	7.81	14.46
12/02/2020 05:39:43	120220	12022020	053943	186.83	13.166665	-57.058863	186.95	-0.970	-0.490	3.050	186.72	-1.80	3.60	 	 	 	 	 	 	 	 	 	 	 	 	 	 	 	 	 	 	1581485983	8.18	15.15
12/02/2020 05:39:44	120220	12022020	053944	186.55	13.166628	-57.058877	186.79	-0.840	0.550	3.070	186.59	-0.70	3.50	 	 	 	 	 	 	 	 	 	 	 	 	 	 	 	 	 	 	1581485984	8.54	15.82
12/02/2020 05:39:45	120220	12022020	053945	186.98	13.166592	-57.058888	187.30	-0.550	1.770	2.450	187.13	0.50	2.80	 	 	 	 	 	 	 	 	 	 	 	 	 	 	 	 	 	 	1581485985	8.09	14.98
12/02/2020 05:39:46	120220	12022020	053946	187.79	13.166558	-57.058895	188.10	-0.220	2.280	1.530	187.95	0.90	1.90	 	 	 	 	 	 	 	 	 	 	 	 	 	 	 	 	 	 	1581485986	7.31	13.54
12/02/2020 05:39:47	120220	12022020	053947	188.47	13.166525	-57.058900	188.70	0.200	1.550	0.820	188.56	0.00	1.30	 	 	 	 	 	 	 	 	 	 	 	 	 	 	 	 	 	 	1581485987	7.34	13.59
12/02/2020 05:39:48	120220	12022020	053948	188.78	13.166487	-57.058902	188.95	0.700	0.100	0.620	188.81	-1.40	1.10	 	 	 	 	 	 	 	 	 	 	 	 	 	 	 	 	 	 	1581485988	8.11	15.02
12/02/2020 05:39:49	120220	12022020	053949	188.81	13.166447	-57.058907	188.96	1.080	-1.150	0.820	188.80	-2.60	1.40	 	 	 	 	 	 	 	 	 	 	 	 	 	 	 	 	 	 	1581485989	8.59	15.91
12/02/2020 05:39:50	120220	12022020	053950	188.72	13.166410	-57.058913	188.87	1.080	-1.790	1.290	188.69	-3.20	1.90	 	 	 	 	 	 	 	 	 	 	 	 	 	 	 	 	 	 	1581485990	8.31	15.39
12/02/2020 05:39:51	120220	12022020	053951	188.46	13.166373	-57.058920	188.57	0.660	-1.800	2.020	188.37	-3.10	2.60	 	 	 	 	 	 	 	 	 	 	 	 	 	 	 	 	 	 	1581485991	7.73	14.32
12/02/2020 05:39:52	120220	12022020	053952	187.94	13.166342	-57.058930	188.04	0.100	-1.500	2.750	187.82	-2.80	3.30	 	 	 	 	 	 	 	 	 	 	 	 	 	 	 	 	 	 	1581485992	7.35	13.61
12/02/2020 05:39:53	120220	12022020	053953	187.27	13.166308	-57.058940	187.36	-0.310	-1.290	3.310	187.14	-2.60	3.80	 	 	 	 	 	 	 	 	 	 	 	 	 	 	 	 	 	 	1581485993	7.42	13.74
12/02/2020 05:39:54	120220	12022020	053954	186.64	13.166273	-57.058952	186.78	-0.540	-1.130	3.580	186.55	-2.50	4.00	 	 	 	 	 	 	 	 	 	 	 	 	 	 	 	 	 	 	1581485994	8.00	14.82
12/02/2020 05:39:55	120220	12022020	053955	186.40	13.166235	-57.058962	186.63	-0.790	-0.520	3.430	186.42	-1.80	3.80	 	 	 	 	 	 	 	 	 	 	 	 	 	 	 	 	 	 	1581485995	8.55	15.83
12/02/2020 05:39:56	120220	12022020	053956	186.73	13.166197	-57.058972	187.04	-1.060	0.640	2.840	186.86	-0.60	3.20	 	 	 	 	 	 	 	 	 	 	 	 	 	 	 	 	 	 	1581485996	8.34	15.45
12/02/2020 05:39:57	120220	12022020	053957	187.47	13.166163	-57.058980	187.79	-1.080	1.700	1.880	187.64	0.40	2.20	 	 	 	 	 	 	 	 	 	 	 	 	 	 	 	 	 	 	1581485997	7.61	14.09
12/02/2020 05:39:58	120220	12022020	053958	188.27	13.166130	-57.058987	188.56	-0.560	1.880	0.820	188.42	0.40	1.20	 	 	 	 	 	 	 	 	 	 	 	 	 	 	 	 	 	 	1581485998	7.25	13.43
12/02/2020 05:39:59	120220	12022020	053959	188.89	13.166093	-57.058990	189.11	0.360	1.050	0.110	188.98	-0.50	0.60	 	 	 	 	 	 	 	 	 	 	 	 	 	 	 	 	 	 	1581485999	7.77	14.39
12/02/2020 05:40:00	120220	12022020	054000	189.09	13.166053	-57.058993	189.22	1.190	-0.300	0.140	189.05	-1.80	0.70	 	 	 	 	 	 	 	 	 	 	 	 	 	 	 	 	 	 	1581486000	8.51	15.76
12/02/2020 05:40:01	120220	12022020	054001	188.75	13.166013	-57.058997	188.83	1.480	-1.360	0.830	188.65	-2.80	1.40	1015.50	26.00	26.10	20.70	20.80	-1.0	72.0	72.0	409.0	25.7	257.00	11.20	67.00	12.70	16	8999.0	27.2	27.2	1581486001	8.81	16.32
12/02/2020 05:40:02	120220	12022020	054002	188.24	13.165973	-57.059002	188.36	1.040	-1.470	1.740	188.15	-2.80	2.30	 	 	 	 	 	 	 	 	 	 	 	 	 	 	 	 	 	 	1581486002	8.52	15.78
12/02/2020 05:40:03	120220	12022020	054003	187.93	13.165938	-57.059008	188.12	0.080	-0.820	2.620	187.89	-2.10	3.20	 	 	 	 	 	 	 	 	 	 	 	 	 	 	 	 	 	 	1581486003	7.69	14.24
12/02/2020 05:40:04	120220	12022020	054004	187.84	13.165908	-57.059020	188.06	-0.850	-0.220	3.330	187.83	-1.50	3.90	 	 	 	 	 	 	 	 	 	 	 	 	 	 	 	 	 	 	1581486004	7.04	13.04
12/02/2020 05:40:05	120220	12022020	054005	187.77	13.165877	-57.059035	187.98	-1.130	-0.180	3.610	187.75	-1.60	4.10	 	 	 	 	 	 	 	 	 	 	 	 	 	 	 	 	 	 	1581486005	7.39	13.69
12/02/2020 05:40:06	120220	12022020	054006	187.68	13.165843	-57.059050	187.90	-0.650	-0.430	3.240	187.68	-1.80	3.60	 	 	 	 	 	 	 	 	 	 	 	 	 	 	 	 	 	 	1581486006	8.11	15.02
12/02/2020 05:40:07	120220	12022020	054007	187.75	13.165805	-57.059062	188.00	0.120	-0.440	2.260	187.80	-1.80	2.60	 	 	 	 	 	 	 	 	 	 	 	 	 	 	 	 	 	 	1581486007	8.44	15.63
12/02/2020 05:40:08	120220	12022020	054008	188.08	13.165767	-57.059067	188.33	0.550	-0.080	1.130	188.15	-1.40	1.50	 	 	 	 	 	 	 	 	 	 	 	 	 	 	 	 	 	 	1581486008	8.19	15.17
12/02/2020 05:40:09	120220	12022020	054009	188.40	13.165732	-57.059068	188.61	0.460	0.190	0.370	188.43	-1.20	0.80	 	 	 	 	 	 	 	 	 	 	 	 	 	 	 	 	 	 	1581486009	7.69	14.24
12/02/2020 05:40:10	120220	12022020	054010	188.40	13.165697	-57.059068	188.54	0.160	-0.010	0.360	188.35	-1.40	0.90	 	 	 	 	 	 	 	 	 	 	 	 	 	 	 	 	 	 	1581486010	7.58	14.04
12/02/2020 05:40:11	120220	12022020	054011	187.97	13.165660	-57.059073	188.06	0.020	-0.530	0.980	187.85	-1.90	1.50	 	 	 	 	 	 	 	 	 	 	 	 	 	 	 	 	 	 	1581486011	7.93	14.69
12/02/2020 05:40:12	120220	12022020	054012	187.48	13.165622	-57.059083	187.64	0.080	-0.670	1.640	187.42	-2.00	2.20	 	 	 	 	 	 	 	 	 	 	 	 	 	 	 	 	 	 	1581486012	8.49	15.72
12/02/2020 05:40:13	120220	12022020	054013	187.46	13.165585	-57.059095	187.73	0.120	-0.190	1.900	187.53	-1.50	2.40	 	 	 	 	 	 	 	 	 	 	 	 	 	 	 	 	 	 	1581486013	8.34	15.45
12/02/2020 05:40:14	120220	12022020	054014	187.89	13.165550	-57.059103	188.20	-0.040	0.280	1.910	187.99	-1.10	2.40	 	 	 	 	 	 	 	 	 	 	 	 	 	 	 	 	 	 	1581486014	7.61	14.09
12/02/2020 05:40:15	120220	12022020	054015	188.33	13.165517	-57.059110	188.61	-0.370	0.260	2.080	188.33	-1.10	2.50	 	 	 	 	 	 	 	 	 	 	 	 	 	 	 	 	 	 	1581486015	7.37	13.65
12/02/2020 05:40:16	120220	12022020	054016	188.52	13.165482	-57.059118	188.74	-0.600	-0.130	2.460	188.51	-1.60	3.00	 	 	 	 	 	 	 	 	 	 	 	 	 	 	 	 	 	 	1581486016	7.73	14.32
12/02/2020 05:40:17	120220	12022020	054017	188.29	13.165445	-57.059130	188.45	-0.470	-0.530	2.990	188.29	-1.80	3.30	 	 	 	 	 	 	 	 	 	 	 	 	 	 	 	 	 	 	1581486017	8.13	15.06
12/02/2020 05:40:18	120220	12022020	054018	187.71	13.165408	-57.059142	187.83	-0.020	-0.720	3.400	187.58	-2.10	3.90	 	 	 	 	 	 	 	 	 	 	 	 	 	 	 	 	 	 	1581486018	8.22	15.22
12/02/2020 05:40:19	120220	12022020	054019	187.03	13.165373	-57.059153	187.16	0.450	-0.590	3.410	186.91	-1.90	3.80	 	 	 	 	 	 	 	 	 	 	 	 	 	 	 	 	 	 	1581486019	8.07	14.95
12/02/2020 05:40:20	120220	12022020	054020	186.59	13.165337	-57.059160	186.78	0.670	-0.240	3.010	186.55	-1.60	3.40	 	 	 	 	 	 	 	 	 	 	 	 	 	 	 	 	 	 	1581486020	7.83	14.50
12/02/2020 05:40:21	120220	12022020	054021	186.59	13.165302	-57.059163	186.84	0.620	0.020	2.410	186.63	-1.30	2.80	 	 	 	 	 	 	 	 	 	 	 	 	 	 	 	 	 	 	1581486021	7.61	14.09
12/02/2020 05:40:22	120220	12022020	054022	186.87	13.165267	-57.059167	187.14	0.450	0.080	1.720	186.95	-1.30	2.10	 	 	 	 	 	 	 	 	 	 	 	 	 	 	 	 	 	 	1581486022	7.63	14.13
12/02/2020 05:40:23	120220	12022020	054023	187.29	13.165230	-57.059170	187.56	0.260	-0.020	1.160	187.37	-1.40	1.60	 	 	 	 	 	 	 	 	 	 	 	 	 	 	 	 	 	 	1581486023	7.80	14.45
12/02/2020 05:40:24	120220	12022020	054024	187.68	13.165193	-57.059173	187.92	-0.060	-0.240	1.180	187.74	-1.60	1.70	 	 	 	 	 	 	 	 	 	 	 	 	 	 	 	 	 	 	1581486024	7.89	14.61
12/02/2020 05:40:25	120220	12022020	054025	187.87	13.165158	-57.059180	188.08	-0.460	-0.500	1.620	187.87	-1.80	2.00	 	 	 	 	 	 	 	 	 	 	 	 	 	 	 	 	 	 	1581486025	7.90	14.63
12/02/2020 05:40:26	120220	12022020	054026	187.83	13.165122	-57.059190	188.01	-0.760	-0.590	2.230	187.81	-1.90	2.80	 	 	 	 	 	 	 	 	 	 	 	 	 	 	 	 	 	 	1581486026	7.98	14.78
12/02/2020 05:40:27	120220	12022020	054027	187.67	13.165087	-57.059203	187.85	-0.690	-0.460	2.750	187.67	-1.90	3.10	 	 	 	 	 	 	 	 	 	 	 	 	 	 	 	 	 	 	1581486027	7.99	14.80
12/02/2020 05:40:28	120220	12022020	054028	187.55	13.165053	-57.059217	187.75	-0.240	-0.290	2.780	187.54	-1.60	3.20	 	 	 	 	 	 	 	 	 	 	 	 	 	 	 	 	 	 	1581486028	7.87	14.58
12/02/2020 05:40:29	120220	12022020	054029	187.55	13.165018	-57.059227	187.74	0.370	-0.300	2.300	187.55	-1.60	2.90	 	 	 	 	 	 	 	 	 	 	 	 	 	 	 	 	 	 	1581486029	7.78	14.41
12/02/2020 05:40:30	120220	12022020	054030	187.57	13.164982	-57.059230	187.76	0.790	-0.450	1.640	187.58	-1.80	2.00	 	 	 	 	 	 	 	 	 	 	 	 	 	 	 	 	 	 	1581486030	8.01	14.83
12/02/2020 05:40:31	120220	12022020	054031	187.61	13.164942	-57.059230	187.80	0.730	-0.430	1.200	187.62	-1.80	1.60	 	 	 	 	 	 	 	 	 	 	 	 	 	 	 	 	 	 	1581486031	8.30	15.37
12/02/2020 05:40:32	120220	12022020	054032	187.70	13.164905	-57.059232	187.91	0.200	-0.080	1.150	187.73	-1.40	1.70	 	 	 	 	 	 	 	 	 	 	 	 	 	 	 	 	 	 	1581486032	8.17	15.13
12/02/2020 05:40:33	120220	12022020	054033	187.86	13.164868	-57.059235	188.06	-0.490	0.340	1.520	187.88	-1.00	2.10	 	 	 	 	 	 	 	 	 	 	 	 	 	 	 	 	 	 	1581486033	7.70	14.26
12/02/2020 05:40:34	120220	12022020	054034	187.79	13.164835	-57.059243	187.93	-0.830	0.240	2.270	187.73	-1.20	2.80	 	 	 	 	 	 	 	 	 	 	 	 	 	 	 	 	 	 	1581486034	7.52	13.93
12/02/2020 05:40:35	120220	12022020	054035	187.44	13.164800	-57.059258	187.60	-0.610	-0.200	2.890	187.38	-1.60	3.40	 	 	 	 	 	 	 	 	 	 	 	 	 	 	 	 	 	 	1581486035	8.14	15.08
12/02/2020 05:40:36	120220	12022020	054036	187.30	13.164763	-57.059273	187.51	-0.140	-0.220	2.800	187.31	-1.60	3.20	 	 	 	 	 	 	 	 	 	 	 	 	 	 	 	 	 	 	1581486036	8.61	15.95
12/02/2020 05:40:37	120220	12022020	054037	187.43	13.164727	-57.059282	187.65	0.180	0.020	2.240	187.46	-1.30	2.60	 	 	 	 	 	 	 	 	 	 	 	 	 	 	 	 	 	 	1581486037	7.98	14.78
12/02/2020 05:40:38	120220	12022020	054038	187.53	13.164693	-57.059287	187.70	0.260	-0.160	1.700	187.53	-1.60	2.10	 	 	 	 	 	 	 	 	 	 	 	 	 	 	 	 	 	 	1581486038	7.41	13.72
12/02/2020 05:40:39	120220	12022020	054039	187.44	13.164657	-57.059290	187.60	0.240	-0.690	1.540	187.44	-1.90	2.00	 	 	 	 	 	 	 	 	 	 	 	 	 	 	 	 	 	 	1581486039	7.75	14.35
12/02/2020 05:40:40	120220	12022020	054040	187.41	13.164618	-57.059297	187.60	0.210	-0.950	1.490	187.43	-2.30	2.00	 	 	 	 	 	 	 	 	 	 	 	 	 	 	 	 	 	 	1581486040	8.29	15.35
12/02/2020 05:40:41	120220	12022020	054041	187.55	13.164582	-57.059303	187.75	0.200	-0.740	1.450	187.58	-2.10	1.90	 	 	 	 	 	 	 	 	 	 	 	 	 	 	 	 	 	 	1581486041	8.17	15.13
12/02/2020 05:40:42	120220	12022020	054042	187.64	13.164547	-57.059310	187.81	0.240	-0.330	1.480	187.64	-1.60	2.00	 	 	 	 	 	 	 	 	 	 	 	 	 	 	 	 	 	 	1581486042	7.73	14.32
12/02/2020 05:40:43	120220	12022020	054043	187.72	13.164512	-57.059317	187.91	0.220	0.060	1.410	187.75	-1.30	1.90	 	 	 	 	 	 	 	 	 	 	 	 	 	 	 	 	 	 	1581486043	7.56	14.00
12/02/2020 05:40:44	120220	12022020	054044	187.84	13.164477	-57.059322	188.01	0.090	0.070	1.410	187.85	-1.30	1.90	 	 	 	 	 	 	 	 	 	 	 	 	 	 	 	 	 	 	1581486044	7.62	14.11
12/02/2020 05:40:45	120220	12022020	054045	187.76	13.164440	-57.059327	187.90	-0.090	-0.300	1.690	187.72	-1.70	2.20	 	 	 	 	 	 	 	 	 	 	 	 	 	 	 	 	 	 	1581486045	7.98	14.78
12/02/2020 05:40:46	120220	12022020	054046	187.53	13.164400	-57.059335	187.67	-0.300	-0.480	2.140	187.48	-1.80	2.70	 	 	 	 	 	 	 	 	 	 	 	 	 	 	 	 	 	 	1581486046	8.48	15.70
12/02/2020 05:40:47	120220	12022020	054047	187.41	13.164363	-57.059343	187.59	-0.510	-0.210	2.520	187.41	-1.50	3.00	 	 	 	 	 	 	 	 	 	 	 	 	 	 	 	 	 	 	1581486047	8.43	15.61
12/02/2020 05:40:48	120220	12022020	054048	187.49	13.164327	-57.059353	187.70	-0.660	0.190	2.750	187.52	-1.10	3.20	 	 	 	 	 	 	 	 	 	 	 	 	 	 	 	 	 	 	1581486048	7.94	14.70
12/02/2020 05:40:49	120220	12022020	054049	187.55	13.164293	-57.059365	187.74	-0.570	0.300	2.710	187.55	-1.10	3.10	 	 	 	 	 	 	 	 	 	 	 	 	 	 	 	 	 	 	1581486049	7.66	14.19
12/02/2020 05:40:50	120220	12022020	054050	187.54	13.164258	-57.059373	187.71	-0.220	0.020	2.250	187.53	-1.40	2.60	 	 	 	 	 	 	 	 	 	 	 	 	 	 	 	 	 	 	1581486050	7.82	14.48
12/02/2020 05:40:51	120220	12022020	054051	187.48	13.164220	-57.059380	187.64	0.230	-0.520	1.720	187.48	-1.80	2.30	 	 	 	 	 	 	 	 	 	 	 	 	 	 	 	 	 	 	1581486051	8.15	15.09
12/02/2020 05:40:52	120220	12022020	054052	187.41	13.164182	-57.059385	187.57	0.580	-0.950	1.330	187.41	-2.30	1.80	 	 	 	 	 	 	 	 	 	 	 	 	 	 	 	 	 	 	1581486052	8.42	15.59
12/02/2020 05:40:53	120220	12022020	054053	187.48	13.164143	-57.059390	187.67	0.590	-0.700	1.080	187.48	-2.20	1.60	 	 	 	 	 	 	 	 	 	 	 	 	 	 	 	 	 	 	1581486053	8.43	15.61
12/02/2020 05:40:54	120220	12022020	054054	187.79	13.164107	-57.059393	188.02	0.230	0.210	0.970	187.87	-1.10	1.40	 	 	 	 	 	 	 	 	 	 	 	 	 	 	 	 	 	 	1581486054	7.78	14.41
12/02/2020 05:40:55	120220	12022020	054055	188.19	13.164075	-57.059400	188.40	-0.170	0.780	1.080	188.24	-0.60	1.60	 	 	 	 	 	 	 	 	 	 	 	 	 	 	 	 	 	 	1581486055	6.92	12.82
12/02/2020 05:40:56	120220	12022020	054056	188.37	13.164043	-57.059407	188.54	-0.140	0.260	1.400	188.37	-1.20	1.90	 	 	 	 	 	 	 	 	 	 	 	 	 	 	 	 	 	 	1581486056	7.04	13.04
12/02/2020 05:40:57	120220	12022020	054057	188.31	13.164007	-57.059415	188.47	0.280	-0.910	1.850	188.26	-2.40	2.40	 	 	 	 	 	 	 	 	 	 	 	 	 	 	 	 	 	 	1581486057	8.18	15.15
12/02/2020 05:40:58	120220	12022020	054058	187.96	13.163965	-57.059425	188.07	0.570	-1.750	2.600	187.85	-3.10	3.20	 	 	 	 	 	 	 	 	 	 	 	 	 	 	 	 	 	 	1581486058	9.08	16.82
12/02/2020 05:40:59	120220	12022020	054059	187.42	13.163923	-57.059433	187.58	0.270	-1.460	3.280	187.35	-2.70	3.80	 	 	 	 	 	 	 	 	 	 	 	 	 	 	 	 	 	 	1581486059	9.10	16.85
12/02/2020 05:41:00	120220	12022020	054100	187.35	13.163887	-57.059443	187.63	-0.630	-0.010	3.490	187.41	-1.20	3.90	 	 	 	 	 	 	 	 	 	 	 	 	 	 	 	 	 	 	1581486060	8.24	15.26
12/02/2020 05:41:01	120220	12022020	054101	187.83	13.163855	-57.059453	188.14	-1.480	1.370	3.100	187.94	0.10	3.50	1015.70	26.10	26.10	20.90	21.00	-1.0	73.0	73.0	420.0	25.7	257.00	10.80	66.00	12.40	16	8902.0	27.2	27.2	1581486061	6.93	12.83
12/02/2020 05:41:02	120220	12022020	054102	188.33	13.163827	-57.059463	188.58	-1.510	1.330	2.390	188.40	-0.20	2.80	 	 	 	 	 	 	 	 	 	 	 	 	 	 	 	 	 	 	1581486062	6.61	12.24
12/02/2020 05:41:03	120220	12022020	054103	188.50	13.163792	-57.059473	188.67	-0.540	0.010	1.720	188.50	-1.50	2.10	 	 	 	 	 	 	 	 	 	 	 	 	 	 	 	 	 	 	1581486063	7.83	14.50
12/02/2020 05:41:04	120220	12022020	054104	188.48	13.163748	-57.059482	188.65	0.690	-1.090	1.060	188.48	-2.50	1.50	 	 	 	 	 	 	 	 	 	 	 	 	 	 	 	 	 	 	1581486064	9.26	17.15
12/02/2020 05:41:05	120220	12022020	054105	188.52	13.163707	-57.059487	188.69	1.320	-1.020	0.520	188.52	-2.50	1.10	 	 	 	 	 	 	 	 	 	 	 	 	 	 	 	 	 	 	1581486065	9.22	17.08
12/02/2020 05:41:06	120220	12022020	054106	188.60	13.163670	-57.059488	188.77	1.140	-0.230	0.310	188.61	-1.50	0.80	 	 	 	 	 	 	 	 	 	 	 	 	 	 	 	 	 	 	1581486066	7.94	14.70
12/02/2020 05:41:07	120220	12022020	054107	188.66	13.163637	-57.059490	188.83	0.560	0.370	0.490	188.67	-1.00	1.00	 	 	 	 	 	 	 	 	 	 	 	 	 	 	 	 	 	 	1581486067	7.03	13.02
12/02/2020 05:41:08	120220	12022020	054108	188.74	13.163603	-57.059493	188.93	0.020	0.370	0.920	188.76	-1.00	1.50	 	 	 	 	 	 	 	 	 	 	 	 	 	 	 	 	 	 	1581486068	7.13	13.20
12/02/2020 05:41:09	120220	12022020	054109	188.76	13.163568	-57.059500	188.93	-0.350	-0.120	1.710	188.74	-1.60	2.30	 	 	 	 	 	 	 	 	 	 	 	 	 	 	 	 	 	 	1581486069	7.72	14.30
12/02/2020 05:41:10	120220	12022020	054110	188.54	13.163532	-57.059513	188.68	-0.520	-0.790	2.740	188.46	-2.20	3.30	 	 	 	 	 	 	 	 	 	 	 	 	 	 	 	 	 	 	1581486070	8.31	15.39
12/02/2020 05:41:11	120220	12022020	054111	188.03	13.163495	-57.059528	188.14	-0.480	-1.280	3.550	187.90	-2.70	4.10	 	 	 	 	 	 	 	 	 	 	 	 	 	 	 	 	 	 	1581486071	8.72	16.15
12/02/2020 05:41:12	120220	12022020	054112	187.46	13.163457	-57.059545	187.60	-0.260	-1.250	3.760	187.38	-2.60	4.20	 	 	 	 	 	 	 	 	 	 	 	 	 	 	 	 	 	 	1581486072	8.78	16.26
12/02/2020 05:41:13	120220	12022020	054113	187.27	13.163420	-57.059557	187.50	-0.060	-0.640	3.170	187.30	-1.90	3.50	 	 	 	 	 	 	 	 	 	 	 	 	 	 	 	 	 	 	1581486073	8.36	15.48
12/02/2020 05:41:14	120220	12022020	054114	187.58	13.163383	-57.059562	187.85	-0.080	0.170	2.010	187.69	-1.10	2.40	 	 	 	 	 	 	 	 	 	 	 	 	 	 	 	 	 	 	1581486074	7.77	14.39
12/02/2020 05:41:15	120220	12022020	054115	188.15	13.163348	-57.059563	188.41	-0.280	0.710	0.970	188.27	-0.60	1.40	 	 	 	 	 	 	 	 	 	 	 	 	 	 	 	 	 	 	1581486075	7.46	13.82
12/02/2020 05:41:16	120220	12022020	054116	188.69	13.163313	-57.059567	188.90	-0.350	0.670	0.510	188.77	-0.80	1.00	 	 	 	 	 	 	 	 	 	 	 	 	 	 	 	 	 	 	1581486076	7.54	13.96
12/02/2020 05:41:17	120220	12022020	054117	188.87	13.163278	-57.059570	188.99	-0.090	0.000	0.600	188.87	-1.20	1.00	 	 	 	 	 	 	 	 	 	 	 	 	 	 	 	 	 	 	1581486077	7.91	14.65
12/02/2020 05:41:18	120220	12022020	054118	188.63	13.163238	-57.059577	188.72	0.360	-0.760	1.090	188.55	-2.20	1.70	 	 	 	 	 	 	 	 	 	 	 	 	 	 	 	 	 	 	1581486078	8.51	15.76
12/02/2020 05:41:19	120220	12022020	054119	188.24	13.163198	-57.059585	188.34	0.620	-0.870	1.730	188.15	-2.20	2.30	 	 	 	 	 	 	 	 	 	 	 	 	 	 	 	 	 	 	1581486079	8.76	16.22
12/02/2020 05:41:20	120220	12022020	054120	187.76	13.163162	-57.059593	187.87	0.560	-0.410	2.330	187.68	-1.70	2.90	 	 	 	 	 	 	 	 	 	 	 	 	 	 	 	 	 	 	1581486080	8.20	15.19
12/02/2020 05:41:21	120220	12022020	054121	187.44	13.163127	-57.059602	187.65	0.250	0.230	2.630	187.47	-1.10	3.10	 	 	 	 	 	 	 	 	 	 	 	 	 	 	 	 	 	 	1581486081	7.68	14.22
12/02/2020 05:41:22	120220	12022020	054122	187.87	13.163093	-57.059612	188.21	-0.120	0.850	2.390	188.04	-0.50	2.80	 	 	 	 	 	 	 	 	 	 	 	 	 	 	 	 	 	 	1581486082	7.53	13.95
12/02/2020 05:41:23	120220	12022020	054123	188.87	13.163060	-57.059620	189.24	-0.280	0.900	1.860	189.09	-0.50	2.30	 	 	 	 	 	 	 	 	 	 	 	 	 	 	 	 	 	 	1581486083	7.24	13.41
12/02/2020 05:41:24	120220	12022020	054124	189.84	13.163027	-57.059627	190.14	-0.140	-0.090	1.370	189.98	-1.60	1.80	 	 	 	 	 	 	 	 	 	 	 	 	 	 	 	 	 	 	1581486084	7.37	13.65
12/02/2020 05:41:25	120220	12022020	054125	190.29	13.162988	-57.059635	190.48	0.200	-1.700	1.330	190.30	-3.30	1.80	 	 	 	 	 	 	 	 	 	 	 	 	 	 	 	 	 	 	1581486085	8.23	15.24
12/02/2020 05:41:26	120220	12022020	054126	190.13	13.162948	-57.059643	190.25	0.340	-2.670	1.820	190.04	-4.10	2.40	 	 	 	 	 	 	 	 	 	 	 	 	 	 	 	 	 	 	1581486086	9.09	16.83
12/02/2020 05:41:27	120220	12022020	054127	189.56	13.162908	-57.059655	189.65	0.140	-2.270	2.580	189.41	-3.50	3.10	 	 	 	 	 	 	 	 	 	 	 	 	 	 	 	 	 	 	1581486087	8.92	16.52
12/02/2020 05:41:28	120220	12022020	054128	188.80	13.162872	-57.059668	188.90	-0.220	-0.900	3.280	188.65	-2.10	3.80	 	 	 	 	 	 	 	 	 	 	 	 	 	 	 	 	 	 	1581486088	8.03	14.87
12/02/2020 05:41:29	120220	12022020	054129	188.28	13.162840	-57.059680	188.48	-0.540	0.670	3.430	188.28	-1.00	3.90	 	 	 	 	 	 	 	 	 	 	 	 	 	 	 	 	 	 	1581486089	7.48	13.85
12/02/2020 05:41:30	120220	12022020	054130	188.44	13.162807	-57.059690	188.76	-0.650	1.810	2.900	188.56	0.50	3.30	 	 	 	 	 	 	 	 	 	 	 	 	 	 	 	 	 	 	1581486090	7.41	13.72
12/02/2020 05:41:31	120220	12022020	054131	189.24	13.162773	-57.059698	189.60	-0.440	2.220	1.890	189.24	0.80	2.60	 	 	 	 	 	 	 	 	 	 	 	 	 	 	 	 	 	 	1581486091	7.59	14.06
12/02/2020 05:41:32	120220	12022020	054132	190.26	13.162737	-57.059705	190.59	0.060	1.650	0.730	190.44	0.10	1.10	 	 	 	 	 	 	 	 	 	 	 	 	 	 	 	 	 	 	1581486092	7.79	14.43
12/02/2020 05:41:33	120220	12022020	054133	191.10	13.162698	-57.059708	191.36	0.620	0.190	0.090	191.20	-1.40	0.60	 	 	 	 	 	 	 	 	 	 	 	 	 	 	 	 	 	 	1581486093	8.25	15.28
12/02/2020 05:41:34	120220	12022020	054134	191.41	13.162658	-57.059712	191.57	0.910	-1.420	0.450	191.39	-3.00	1.00	 	 	 	 	 	 	 	 	 	 	 	 	 	 	 	 	 	 	1581486094	8.73	16.17
12/02/2020 05:41:35	120220	12022020	054135	191.06	13.162618	-57.059720	191.14	0.750	-2.410	1.640	190.91	-3.80	2.30	 	 	 	 	 	 	 	 	 	 	 	 	 	 	 	 	 	 	1581486095	8.71	16.13
12/02/2020 05:41:36	120220	12022020	054136	190.22	13.162582	-57.059733	190.29	0.250	-2.440	3.050	190.03	-3.70	3.70	 	 	 	 	 	 	 	 	 	 	 	 	 	 	 	 	 	 	1581486096	8.36	15.48
12/02/2020 05:41:37	120220	12022020	054137	189.40	13.162548	-57.059750	189.55	-0.380	-1.580	3.970	189.28	-2.80	4.50	 	 	 	 	 	 	 	 	 	 	 	 	 	 	 	 	 	 	1581486097	8.02	14.85
12/02/2020 05:41:38	120220	12022020	054138	189.03	13.162517	-57.059767	189.27	-0.810	-0.300	4.050	189.02	-1.50	4.40	 	 	 	 	 	 	 	 	 	 	 	 	 	 	 	 	 	 	1581486098	7.70	14.26
12/02/2020 05:41:39	120220	12022020	054139	189.10	13.162485	-57.059780	189.37	-0.780	0.780	3.220	189.15	-0.50	3.50	 	 	 	 	 	 	 	 	 	 	 	 	 	 	 	 	 	 	1581486099	7.39	13.69
12/02/2020 05:41:40	120220	12022020	054140	189.30	13.162452	-57.059788	189.53	-0.390	1.090	1.990	189.32	-0.30	2.30	 	 	 	 	 	 	 	 	 	 	 	 	 	 	 	 	 	 	1581486100	7.36	13.63
12/02/2020 05:41:41	120220	12022020	054141	189.31	13.162415	-57.059793	189.49	0.150	0.680	1.110	189.29	-0.80	1.50	 	 	 	 	 	 	 	 	 	 	 	 	 	 	 	 	 	 	1581486101	8.02	14.85
12/02/2020 05:41:42	120220	12022020	054142	189.19	13.162375	-57.059798	189.37	0.560	0.190	0.730	189.18	-1.20	1.20	 	 	 	 	 	 	 	 	 	 	 	 	 	 	 	 	 	 	1581486102	8.69	16.09
12/02/2020 05:41:43	120220	12022020	054143	189.32	13.162335	-57.059803	189.57	0.620	0.170	0.630	189.39	-1.20	1.10	 	 	 	 	 	 	 	 	 	 	 	 	 	 	 	 	 	 	1581486103	8.68	16.08
12/02/2020 05:41:44	120220	12022020	054144	189.75	13.162298	-57.059808	190.02	0.420	0.360	0.950	189.84	-1.00	1.50	 	 	 	 	 	 	 	 	 	 	 	 	 	 	 	 	 	 	1581486104	7.92	14.67
12/02/2020 05:41:45	120220	12022020	054145	190.14	13.162265	-57.059818	190.39	0.270	0.240	1.520	190.19	-1.20	2.10	 	 	 	 	 	 	 	 	 	 	 	 	 	 	 	 	 	 	1581486105	7.28	13.48
12/02/2020 05:41:46	120220	12022020	054146	190.26	13.162233	-57.059830	190.46	0.350	-0.330	2.000	190.24	-1.80	2.50	 	 	 	 	 	 	 	 	 	 	 	 	 	 	 	 	 	 	1581486106	7.37	13.65
12/02/2020 05:41:47	120220	12022020	054147	189.99	13.162198	-57.059840	190.14	0.410	-1.160	2.510	189.89	-2.60	3.10	 	 	 	 	 	 	 	 	 	 	 	 	 	 	 	 	 	 	1581486107	7.75	14.35
12/02/2020 05:41:48	120220	12022020	054148	189.32	13.162162	-57.059850	189.43	0.210	-1.890	3.230	189.16	-3.30	3.80	 	 	 	 	 	 	 	 	 	 	 	 	 	 	 	 	 	 	1581486108	8.13	15.06
12/02/2020 05:41:49	120220	12022020	054149	188.49	13.162125	-57.059863	188.62	-0.190	-2.070	3.990	188.34	-3.40	4.50	 	 	 	 	 	 	 	 	 	 	 	 	 	 	 	 	 	 	1581486109	8.44	15.63
12/02/2020 05:41:50	120220	12022020	054150	187.94	13.162088	-57.059877	188.16	-0.560	-1.430	4.270	187.89	-2.70	4.70	 	 	 	 	 	 	 	 	 	 	 	 	 	 	 	 	 	 	1581486110	8.49	15.72
12/02/2020 05:41:51	120220	12022020	054151	187.87	13.162053	-57.059890	188.15	-0.710	-0.280	3.890	187.90	-1.50	4.30	 	 	 	 	 	 	 	 	 	 	 	 	 	 	 	 	 	 	1581486111	8.07	14.95
12/02/2020 05:41:52	120220	12022020	054152	188.03	13.162018	-57.059902	188.29	-0.540	0.660	3.080	188.06	-0.60	3.40	 	 	 	 	 	 	 	 	 	 	 	 	 	 	 	 	 	 	1581486112	7.56	14.00
12/02/2020 05:41:53	120220	12022020	054153	188.25	13.161983	-57.059908	188.52	-0.190	1.090	2.100	188.32	-0.20	2.50	 	 	 	 	 	 	 	 	 	 	 	 	 	 	 	 	 	 	1581486113	7.68	14.22
12/02/2020 05:41:54	120220	12022020	054154	188.71	13.161947	-57.059912	189.01	0.040	1.250	1.080	188.83	-0.10	1.40	 	 	 	 	 	 	 	 	 	 	 	 	 	 	 	 	 	 	1581486114	8.12	15.04
12/02/2020 05:41:55	120220	12022020	054155	189.27	13.161908	-57.059913	189.54	0.030	0.990	0.380	189.27	-0.30	1.00	 	 	 	 	 	 	 	 	 	 	 	 	 	 	 	 	 	 	1581486115	8.10	15.00
12/02/2020 05:41:56	120220	12022020	054156	189.64	13.161872	-57.059917	189.85	0.020	0.190	0.440	189.67	-1.30	1.00	 	 	 	 	 	 	 	 	 	 	 	 	 	 	 	 	 	 	1581486116	8.04	14.89
12/02/2020 05:41:57	120220	12022020	054157	189.65	13.161833	-57.059923	189.82	0.240	-0.680	1.080	189.61	-2.10	1.70	 	 	 	 	 	 	 	 	 	 	 	 	 	 	 	 	 	 	1581486117	8.25	15.28
12/02/2020 05:41:58	120220	12022020	054158	189.34	13.161797	-57.059935	189.48	0.530	-1.020	2.000	189.27	-2.40	2.60	 	 	 	 	 	 	 	 	 	 	 	 	 	 	 	 	 	 	1581486118	8.31	15.39
12/02/2020 05:41:59	120220	12022020	054159	188.99	13.161762	-57.059945	189.16	0.520	-0.760	2.760	188.93	-2.10	3.30	 	 	 	 	 	 	 	 	 	 	 	 	 	 	 	 	 	 	1581486119	7.86	14.56
12/02/2020 05:42:00	120220	12022020	054200	188.70	13.161730	-57.059957	188.88	0.240	-0.500	3.090	188.64	-1.90	3.60	 	 	 	 	 	 	 	 	 	 	 	 	 	 	 	 	 	 	1581486120	7.29	13.50
12/02/2020 05:42:01	120220	12022020	054201	188.36	13.161697	-57.059968	188.53	0.090	-0.660	3.120	188.29	-2.10	3.60	1015.60	26.10	26.10	21.00	21.00	-1.0	73.0	73.0	428.0	25.7	261.00	10.40	70.00	11.80	16	8732.0	27.2	27.2	1581486121	7.35	13.61
12/02/2020 05:42:02	120220	12022020	054202	188.13	13.161662	-57.059978	188.35	0.110	-0.760	2.760	188.13	-2.10	3.20	 	 	 	 	 	 	 	 	 	 	 	 	 	 	 	 	 	 	1581486122	7.96	14.74
12/02/2020 05:42:03	120220	12022020	054203	188.19	13.161625	-57.059987	188.43	0.080	-0.420	2.090	188.22	-1.70	2.50	 	 	 	 	 	 	 	 	 	 	 	 	 	 	 	 	 	 	1581486123	8.14	15.08
12/02/2020 05:42:04	120220	12022020	054204	188.35	13.161590	-57.059992	188.56	-0.040	-0.120	1.460	188.37	-1.50	1.90	 	 	 	 	 	 	 	 	 	 	 	 	 	 	 	 	 	 	1581486124	7.67	14.20
12/02/2020 05:42:05	120220	12022020	054205	188.48	13.161553	-57.059997	188.70	-0.170	-0.190	1.070	188.48	-1.50	1.60	 	 	 	 	 	 	 	 	 	 	 	 	 	 	 	 	 	 	1581486125	7.68	14.22
12/02/2020 05:42:06	120220	12022020	054206	188.67	13.161517	-57.060002	188.90	-0.240	-0.420	1.020	188.71	-1.80	1.50	 	 	 	 	 	 	 	 	 	 	 	 	 	 	 	 	 	 	1581486126	8.14	15.08
12/02/2020 05:42:07	120220	12022020	054207	188.84	13.161478	-57.060008	189.06	-0.350	-0.480	1.300	188.84	-1.90	1.70	 	 	 	 	 	 	 	 	 	 	 	 	 	 	 	 	 	 	1581486127	8.41	15.58
12/02/2020 05:42:08	120220	12022020	054208	188.86	13.161440	-57.060018	189.06	-0.490	-0.300	1.770	188.85	-1.60	2.30	 	 	 	 	 	 	 	 	 	 	 	 	 	 	 	 	 	 	1581486128	8.29	15.35
12/02/2020 05:42:09	120220	12022020	054209	188.75	13.161405	-57.060030	188.95	-0.530	0.100	2.210	188.75	-1.40	2.60	 	 	 	 	 	 	 	 	 	 	 	 	 	 	 	 	 	 	1581486129	8.08	14.96
12/02/2020 05:42:10	120220	12022020	054210	188.60	13.161370	-57.060042	188.80	-0.300	0.500	2.350	188.58	-0.80	2.80	 	 	 	 	 	 	 	 	 	 	 	 	 	 	 	 	 	 	1581486130	7.84	14.52
12/02/2020 05:42:11	120220	12022020	054211	188.49	13.161335	-57.060052	188.70	0.110	0.650	2.210	188.47	-0.70	2.70	 	 	 	 	 	 	 	 	 	 	 	 	 	 	 	 	 	 	1581486131	7.69	14.24
12/02/2020 05:42:12	120220	12022020	054212	188.45	13.161300	-57.060058	188.66	0.440	0.370	1.940	188.45	-1.10	2.40	 	 	 	 	 	 	 	 	 	 	 	 	 	 	 	 	 	 	1581486132	7.74	14.33
12/02/2020 05:42:13	120220	12022020	054213	188.46	13.161263	-57.060063	188.67	0.520	-0.230	1.740	188.46	-1.70	2.20	 	 	 	 	 	 	 	 	 	 	 	 	 	 	 	 	 	 	1581486133	7.99	14.80
12/02/2020 05:42:14	120220	12022020	054214	188.49	13.161225	-57.060070	188.70	0.360	-0.720	1.900	188.50	-2.10	2.40	 	 	 	 	 	 	 	 	 	 	 	 	 	 	 	 	 	 	1581486134	8.23	15.24
12/02/2020 05:42:15	120220	12022020	054215	188.49	13.161188	-57.060078	188.68	0.190	-0.800	2.210	188.48	-2.20	2.70	 	 	 	 	 	 	 	 	 	 	 	 	 	 	 	 	 	 	1581486135	8.11	15.02
12/02/2020 05:42:16	120220	12022020	054216	188.38	13.161155	-57.060088	188.57	0.200	-0.670	2.280	188.36	-2.00	2.70	 	 	 	 	 	 	 	 	 	 	 	 	 	 	 	 	 	 	1581486136	7.74	14.33
12/02/2020 05:42:17	120220	12022020	054217	188.28	13.161120	-57.060098	188.48	0.280	-0.620	2.060	188.27	-2.00	2.50	 	 	 	 	 	 	 	 	 	 	 	 	 	 	 	 	 	 	1581486137	7.58	14.04
12/02/2020 05:42:18	120220	12022020	054218	188.24	13.161085	-57.060103	188.43	0.180	-0.710	1.810	188.24	-2.10	2.30	 	 	 	 	 	 	 	 	 	 	 	 	 	 	 	 	 	 	1581486138	7.75	14.35
12/02/2020 05:42:19	120220	12022020	054219	188.20	13.161048	-57.060108	188.39	-0.170	-0.900	1.800	188.19	-2.30	2.30	 	 	 	 	 	 	 	 	 	 	 	 	 	 	 	 	 	 	1581486139	8.04	14.89
12/02/2020 05:42:20	120220	12022020	054220	188.05	13.161010	-57.060115	188.22	-0.600	-0.950	2.240	188.00	-2.30	2.80	 	 	 	 	 	 	 	 	 	 	 	 	 	 	 	 	 	 	1581486140	8.31	15.39
12/02/2020 05:42:21	120220	12022020	054221	187.72	13.160972	-57.060127	187.87	-0.810	-0.650	2.880	187.64	-1.90	3.40	 	 	 	 	 	 	 	 	 	 	 	 	 	 	 	 	 	 	1581486141	8.45	15.65
12/02/2020 05:42:22	120220	12022020	054222	187.35	13.160935	-57.060140	187.53	-0.640	0.100	3.210	187.31	-1.10	3.70	 	 	 	 	 	 	 	 	 	 	 	 	 	 	 	 	 	 	1581486142	8.43	15.61
12/02/2020 05:42:23	120220	12022020	054223	187.41	13.160900	-57.060153	187.69	-0.360	1.140	2.850	187.49	-0.10	3.20	 	 	 	 	 	 	 	 	 	 	 	 	 	 	 	 	 	 	1581486143	8.08	14.96
12/02/2020 05:42:24	120220	12022020	054224	188.03	13.160867	-57.060162	188.34	-0.110	1.780	2.000	188.19	0.40	2.40	 	 	 	 	 	 	 	 	 	 	 	 	 	 	 	 	 	 	1581486144	7.43	13.76
12/02/2020 05:42:25	120220	12022020	054225	188.74	13.160833	-57.060167	188.99	0.220	1.370	1.170	188.85	-0.10	1.60	 	 	 	 	 	 	 	 	 	 	 	 	 	 	 	 	 	 	1581486145	7.24	13.41
12/02/2020 05:42:26	120220	12022020	054226	189.08	13.160797	-57.060170	189.25	0.760	0.020	0.770	189.09	-1.50	1.20	 	 	 	 	 	 	 	 	 	 	 	 	 	 	 	 	 	 	1581486146	7.85	14.54
12/02/2020 05:42:27	120220	12022020	054227	189.02	13.160757	-57.060173	189.15	1.290	-1.440	0.810	188.98	-2.90	1.30	 	 	 	 	 	 	 	 	 	 	 	 	 	 	 	 	 	 	1581486147	8.68	16.08
12/02/2020 05:42:28	120220	12022020	054228	188.85	13.160715	-57.060177	189.01	1.260	-2.110	1.320	188.82	-3.50	1.90	 	 	 	 	 	 	 	 	 	 	 	 	 	 	 	 	 	 	1581486148	8.89	16.46
12/02/2020 05:42:29	120220	12022020	054229	188.74	13.160677	-57.060182	188.93	0.430	-1.760	2.250	188.72	-3.00	2.90	 	 	 	 	 	 	 	 	 	 	 	 	 	 	 	 	 	 	1581486149	8.26	15.30
12/02/2020 05:42:30	120220	12022020	054230	188.53	13.160643	-57.060193	188.69	-0.700	-1.010	3.280	188.46	-2.30	3.90	 	 	 	 	 	 	 	 	 	 	 	 	 	 	 	 	 	 	1581486150	7.41	13.72
12/02/2020 05:42:31	120220	12022020	054231	188.10	13.160613	-57.060208	188.26	-1.380	-0.500	4.040	188.10	-1.90	4.40	 	 	 	 	 	 	 	 	 	 	 	 	 	 	 	 	 	 	1581486151	7.44	13.78
12/02/2020 05:42:32	120220	12022020	054232	187.66	13.160580	-57.060227	187.84	-1.300	-0.290	4.330	187.59	-1.60	4.80	 	 	 	 	 	 	 	 	 	 	 	 	 	 	 	 	 	 	1581486152	8.15	15.09
12/02/2020 05:42:33	120220	12022020	054233	187.49	13.160543	-57.060243	187.75	-0.700	-0.010	4.030	187.52	-1.30	4.40	 	 	 	 	 	 	 	 	 	 	 	 	 	 	 	 	 	 	1581486153	8.65	16.02
12/02/2020 05:42:34	120220	12022020	054234	187.86	13.160505	-57.060255	188.18	-0.080	0.480	3.050	187.98	-0.80	3.40	 	 	 	 	 	 	 	 	 	 	 	 	 	 	 	 	 	 	1581486154	8.54	15.82
12/02/2020 05:42:35	120220	12022020	054235	188.62	13.160468	-57.060260	188.94	0.310	0.980	1.730	188.77	-0.40	2.10	 	 	 	 	 	 	 	 	 	 	 	 	 	 	 	 	 	 	1581486155	8.05	14.91
12/02/2020 05:42:36	120220	12022020	054236	189.35	13.160432	-57.060262	189.61	0.550	0.920	0.630	189.47	-0.50	1.00	 	 	 	 	 	 	 	 	 	 	 	 	 	 	 	 	 	 	1581486156	7.74	14.33
12/02/2020 05:42:37	120220	12022020	054237	189.84	13.160395	-57.060262	190.08	0.680	0.300	0.220	189.92	-1.20	0.70	 	 	 	 	 	 	 	 	 	 	 	 	 	 	 	 	 	 	1581486157	8.00	14.82
12/02/2020 05:42:38	120220	12022020	054238	190.15	13.160357	-57.060263	190.36	0.570	-0.290	0.300	190.19	-1.70	0.80	 	 	 	 	 	 	 	 	 	 	 	 	 	 	 	 	 	 	1581486158	8.29	15.35
12/02/2020 05:42:39	120220	12022020	054239	190.15	13.160320	-57.060270	190.28	0.250	-0.610	0.890	190.09	-2.00	1.50	 	 	 	 	 	 	 	 	 	 	 	 	 	 	 	 	 	 	1581486159	7.97	14.76
12/02/2020 05:42:40	120220	12022020	054240	189.63	13.160285	-57.060278	189.70	-0.020	-0.950	2.010	189.47	-2.40	2.60	 	 	 	 	 	 	 	 	 	 	 	 	 	 	 	 	 	 	1581486160	7.58	14.04
12/02/2020 05:42:41	120220	12022020	054241	188.77	13.160252	-57.060293	188.85	0.020	-1.330	3.110	188.60	-2.70	3.70	 	 	 	 	 	 	 	 	 	 	 	 	 	 	 	 	 	 	1581486161	7.82	14.48
12/02/2020 05:42:42	120220	12022020	054242	187.93	13.160217	-57.060307	188.04	0.210	-1.400	3.760	187.79	-2.70	4.30	 	 	 	 	 	 	 	 	 	 	 	 	 	 	 	 	 	 	1581486162	8.28	15.33
12/02/2020 05:42:43	120220	12022020	054243	187.36	13.160178	-57.060320	187.55	0.190	-0.940	3.920	187.36	-2.50	4.40	 	 	 	 	 	 	 	 	 	 	 	 	 	 	 	 	 	 	1581486163	8.32	15.41
12/02/2020 05:42:44	120220	12022020	054244	187.29	13.160143	-57.060330	187.55	-0.250	-0.110	3.510	187.33	-1.40	3.90	 	 	 	 	 	 	 	 	 	 	 	 	 	 	 	 	 	 	1581486164	7.98	14.78
12/02/2020 05:42:45	120220	12022020	054245	187.69	13.160108	-57.060338	188.01	-0.880	0.670	2.760	187.69	-0.90	3.40	 	 	 	 	 	 	 	 	 	 	 	 	 	 	 	 	 	 	1581486165	7.60	14.08
12/02/2020 05:42:46	120220	12022020	054246	188.38	13.160075	-57.060347	188.70	-1.150	1.050	1.880	188.52	-0.30	2.20	 	 	 	 	 	 	 	 	 	 	 	 	 	 	 	 	 	 	1581486166	7.46	13.82
12/02/2020 05:42:47	120220	12022020	054247	189.03	13.160042	-57.060355	189.29	-0.660	0.750	0.920	189.13	-0.70	1.30	 	 	 	 	 	 	 	 	 	 	 	 	 	 	 	 	 	 	1581486167	7.60	14.08
12/02/2020 05:42:48	120220	12022020	054248	189.39	13.160005	-57.060362	189.56	0.320	-0.170	0.250	189.41	-1.70	0.70	 	 	 	 	 	 	 	 	 	 	 	 	 	 	 	 	 	 	1581486168	8.02	14.85
12/02/2020 05:42:49	120220	12022020	054249	189.28	13.159963	-57.060365	189.38	1.090	-1.050	0.210	189.20	-2.50	0.70	 	 	 	 	 	 	 	 	 	 	 	 	 	 	 	 	 	 	1581486169	8.64	16.00
12/02/2020 05:42:50	120220	12022020	054250	188.82	13.159923	-57.060370	188.91	1.160	-1.200	0.710	188.71	-2.50	1.30	 	 	 	 	 	 	 	 	 	 	 	 	 	 	 	 	 	 	1581486170	8.69	16.09
12/02/2020 05:42:51	120220	12022020	054251	188.36	13.159887	-57.060375	188.48	0.590	-0.500	1.480	188.28	-1.80	2.10	 	 	 	 	 	 	 	 	 	 	 	 	 	 	 	 	 	 	1581486171	8.07	14.95
12/02/2020 05:42:52	120220	12022020	054252	188.07	13.159853	-57.060383	188.24	-0.200	0.440	2.210	188.04	-0.80	2.70	 	 	 	 	 	 	 	 	 	 	 	 	 	 	 	 	 	 	1581486172	7.27	13.46
12/02/2020 05:42:53	120220	12022020	054253	188.03	13.159822	-57.060392	188.24	-0.790	0.800	2.690	188.04	-0.60	3.20	 	 	 	 	 	 	 	 	 	 	 	 	 	 	 	 	 	 	1581486173	7.02	13.00
12/02/2020 05:42:54	120220	12022020	054254	188.11	13.159790	-57.060405	188.33	-0.850	0.310	2.900	188.14	-1.20	3.40	 	 	 	 	 	 	 	 	 	 	 	 	 	 	 	 	 	 	1581486174	7.58	14.04
12/02/2020 05:42:55	120220	12022020	054255	188.28	13.159753	-57.060418	188.51	-0.380	-0.550	2.730	188.32	-2.00	3.20	 	 	 	 	 	 	 	 	 	 	 	 	 	 	 	 	 	 	1581486175	8.43	15.61
12/02/2020 05:42:56	120220	12022020	054256	188.52	13.159713	-57.060432	188.74	0.150	-1.060	2.260	188.55	-2.40	2.70	 	 	 	 	 	 	 	 	 	 	 	 	 	 	 	 	 	 	1581486176	8.74	16.19
12/02/2020 05:42:57	120220	12022020	054257	188.59	13.159677	-57.060440	188.74	0.400	-1.050	1.740	188.59	-2.40	2.30	 	 	 	 	 	 	 	 	 	 	 	 	 	 	 	 	 	 	1581486177	8.29	15.35
12/02/2020 05:42:58	120220	12022020	054258	188.32	13.159640	-57.060445	188.42	0.320	-0.840	1.450	188.24	-2.20	1.90	 	 	 	 	 	 	 	 	 	 	 	 	 	 	 	 	 	 	1581486178	7.75	14.35
12/02/2020 05:42:59	120220	12022020	054259	187.94	13.159605	-57.060450	188.07	0.030	-0.490	1.520	187.94	-2.00	2.00	 	 	 	 	 	 	 	 	 	 	 	 	 	 	 	 	 	 	1581486179	7.74	14.33
12/02/2020 05:43:00	120220	12022020	054300	187.82	13.159568	-57.060457	187.99	-0.260	0.080	1.690	187.82	-1.20	2.20	 	 	 	 	 	 	 	 	 	 	 	 	 	 	 	 	 	 	1581486180	7.82	14.48
12/02/2020 05:43:01	120220	12022020	054301	187.88	13.159535	-57.060465	188.07	-0.300	0.620	1.710	187.90	-0.70	2.20	1015.60	26.00	26.00	21.10	21.10	-1.0	74.0	74.0	429.0	25.7	260.00	10.70	69.00	12.10	16	8796.0	27.2	27.2	1581486181	7.67	14.20
12/02/2020 05:43:02	120220	12022020	054302	187.90	13.159500	-57.060473	188.06	-0.000	0.630	1.740	187.88	-0.80	2.20	 	 	 	 	 	 	 	 	 	 	 	 	 	 	 	 	 	 	1581486182	7.56	14.00
12/02/2020 05:43:03	120220	12022020	054303	187.81	13.159463	-57.060480	187.99	0.370	0.190	1.840	187.81	-1.20	2.30	 	 	 	 	 	 	 	 	 	 	 	 	 	 	 	 	 	 	1581486183	7.98	14.78
12/02/2020 05:43:04	120220	12022020	054304	187.99	13.159425	-57.060487	188.24	0.390	-0.160	1.900	188.07	-1.60	2.40	 	 	 	 	 	 	 	 	 	 	 	 	 	 	 	 	 	 	1581486184	8.44	15.63
12/02/2020 05:43:05	120220	12022020	054305	188.44	13.159388	-57.060493	188.70	0.020	-0.280	2.230	188.52	-1.70	2.80	 	 	 	 	 	 	 	 	 	 	 	 	 	 	 	 	 	 	1581486185	8.20	15.19
12/02/2020 05:43:06	120220	12022020	054306	188.74	13.159353	-57.060503	188.98	-0.370	-0.400	2.830	188.77	-1.80	3.40	 	 	 	 	 	 	 	 	 	 	 	 	 	 	 	 	 	 	1581486186	7.76	14.37
12/02/2020 05:43:07	120220	12022020	054307	188.73	13.159320	-57.060517	188.92	-0.400	-0.540	3.330	188.69	-1.90	3.80	 	 	 	 	 	 	 	 	 	 	 	 	 	 	 	 	 	 	1581486187	7.72	14.30
12/02/2020 05:43:08	120220	12022020	054308	188.49	13.159285	-57.060530	188.66	-0.050	-0.630	3.380	188.42	-2.00	3.80	 	 	 	 	 	 	 	 	 	 	 	 	 	 	 	 	 	 	1581486188	7.81	14.46
12/02/2020 05:43:09	120220	12022020	054309	188.18	13.159252	-57.060540	188.34	0.470	-0.670	2.910	188.18	-2.00	3.50	 	 	 	 	 	 	 	 	 	 	 	 	 	 	 	 	 	 	1581486189	7.78	14.41
12/02/2020 05:43:10	120220	12022020	054310	187.88	13.159215	-57.060547	188.04	0.830	-0.740	2.200	187.82	-2.10	2.60	 	 	 	 	 	 	 	 	 	 	 	 	 	 	 	 	 	 	1581486190	7.86	14.56
12/02/2020 05:43:11	120220	12022020	054311	187.59	13.159177	-57.060547	187.75	0.750	-0.730	1.630	187.59	-2.10	2.20	 	 	 	 	 	 	 	 	 	 	 	 	 	 	 	 	 	 	1581486191	8.11	15.02
12/02/2020 05:43:12	120220	12022020	054312	187.44	13.159138	-57.060547	187.63	0.190	-0.470	1.480	187.44	-1.80	2.00	 	 	 	 	 	 	 	 	 	 	 	 	 	 	 	 	 	 	1581486192	8.24	15.26
12/02/2020 05:43:13	120220	12022020	054313	187.56	13.159102	-57.060552	187.80	-0.570	-0.010	1.750	187.61	-1.30	2.30	 	 	 	 	 	 	 	 	 	 	 	 	 	 	 	 	 	 	1581486193	8.04	14.89
12/02/2020 05:43:14	120220	12022020	054314	187.93	13.159067	-57.060562	188.21	-1.130	0.360	2.160	188.03	-1.00	2.70	 	 	 	 	 	 	 	 	 	 	 	 	 	 	 	 	 	 	1581486194	7.85	14.54
12/02/2020 05:43:15	120220	12022020	054315	188.34	13.159032	-57.060575	188.60	-1.160	0.400	2.540	188.39	-1.00	3.00	 	 	 	 	 	 	 	 	 	 	 	 	 	 	 	 	 	 	1581486195	7.97	14.76
12/02/2020 05:43:16	120220	12022020	054316	188.55	13.158997	-57.060590	188.79	-0.660	0.090	2.570	188.59	-1.30	3.00	 	 	 	 	 	 	 	 	 	 	 	 	 	 	 	 	 	 	1581486196	8.24	15.26
12/02/2020 05:43:17	120220	12022020	054317	188.78	13.158960	-57.060603	189.03	0.050	-0.070	2.050	188.83	-1.40	2.40	 	 	 	 	 	 	 	 	 	 	 	 	 	 	 	 	 	 	1581486197	8.47	15.69
12/02/2020 05:43:18	120220	12022020	054318	188.99	13.158922	-57.060610	189.20	0.570	0.030	1.280	189.00	-1.30	1.70	 	 	 	 	 	 	 	 	 	 	 	 	 	 	 	 	 	 	1581486198	8.11	15.02
12/02/2020 05:43:19	120220	12022020	054319	188.92	13.158887	-57.060612	189.08	0.760	0.010	0.750	188.88	-1.40	1.20	 	 	 	 	 	 	 	 	 	 	 	 	 	 	 	 	 	 	1581486199	7.67	14.20
12/02/2020 05:43:20	120220	12022020	054320	188.77	13.158850	-57.060613	188.94	0.630	-0.110	0.590	188.75	-1.50	1.10	 	 	 	 	 	 	 	 	 	 	 	 	 	 	 	 	 	 	1581486200	7.71	14.28
12/02/2020 05:43:21	120220	12022020	054321	188.65	13.158815	-57.060617	188.81	0.350	-0.280	0.910	188.65	-1.60	1.30	 	 	 	 	 	 	 	 	 	 	 	 	 	 	 	 	 	 	1581486201	7.75	14.35
12/02/2020 05:43:22	120220	12022020	054322	188.37	13.158780	-57.060623	188.51	0.190	-0.660	1.690	188.29	-2.10	2.30	 	 	 	 	 	 	 	 	 	 	 	 	 	 	 	 	 	 	1581486202	7.71	14.28
12/02/2020 05:43:23	120220	12022020	054323	187.91	13.158743	-57.060635	188.03	0.240	-1.090	2.480	187.81	-2.50	3.00	 	 	 	 	 	 	 	 	 	 	 	 	 	 	 	 	 	 	1581486203	8.14	15.08
12/02/2020 05:43:24	120220	12022020	054324	187.51	13.158707	-57.060648	187.70	0.290	-1.030	2.900	187.48	-2.30	3.40	 	 	 	 	 	 	 	 	 	 	 	 	 	 	 	 	 	 	1581486204	8.53	15.80
12/02/2020 05:43:25	120220	12022020	054325	187.50	13.158670	-57.060660	187.74	0.110	-0.410	2.750	187.54	-1.70	3.20	 	 	 	 	 	 	 	 	 	 	 	 	 	 	 	 	 	 	1581486205	8.21	15.20
12/02/2020 05:43:26	120220	12022020	054326	187.82	13.158635	-57.060667	188.09	-0.220	0.170	2.120	187.91	-1.20	2.50	 	 	 	 	 	 	 	 	 	 	 	 	 	 	 	 	 	 	1581486206	7.53	13.95
12/02/2020 05:43:27	120220	12022020	054327	188.28	13.158602	-57.060672	188.55	-0.490	0.180	1.440	188.38	-1.20	1.90	 	 	 	 	 	 	 	 	 	 	 	 	 	 	 	 	 	 	1581486207	7.41	13.72
12/02/2020 05:43:28	120220	12022020	054328	188.70	13.158565	-57.060677	188.94	-0.610	-0.290	1.160	188.76	-1.70	1.70	 	 	 	 	 	 	 	 	 	 	 	 	 	 	 	 	 	 	1581486208	7.95	14.72
12/02/2020 05:43:29	120220	12022020	054329	188.76	13.158525	-57.060683	188.91	-0.620	-0.770	1.480	188.70	-2.20	2.00	 	 	 	 	 	 	 	 	 	 	 	 	 	 	 	 	 	 	1581486209	8.45	15.65
12/02/2020 05:43:30	120220	12022020	054330	188.25	13.158487	-57.060693	188.33	-0.490	-0.960	2.210	188.09	-2.30	2.80	 	 	 	 	 	 	 	 	 	 	 	 	 	 	 	 	 	 	1581486210	8.61	15.95
12/02/2020 05:43:31	120220	12022020	054331	187.52	13.158448	-57.060707	187.65	-0.250	-0.550	2.730	187.41	-1.80	3.20	 	 	 	 	 	 	 	 	 	 	 	 	 	 	 	 	 	 	1581486211	8.61	15.95
12/02/2020 05:43:32	120220	12022020	054332	187.20	13.158412	-57.060718	187.43	0.040	0.510	2.620	187.21	-0.70	3.00	 	 	 	 	 	 	 	 	 	 	 	 	 	 	 	 	 	 	1581486212	8.27	15.32
12/02/2020 05:43:33	120220	12022020	054333	187.46	13.158378	-57.060727	187.76	0.300	1.420	1.940	187.46	-0.10	2.60	 	 	 	 	 	 	 	 	 	 	 	 	 	 	 	 	 	 	1581486213	7.40	13.70
12/02/2020 05:43:34	120220	12022020	054334	188.04	13.158345	-57.060730	188.34	0.510	1.320	1.130	188.16	-0.10	1.50	 	 	 	 	 	 	 	 	 	 	 	 	 	 	 	 	 	 	1581486214	7.14	13.22
12/02/2020 05:43:35	120220	12022020	054335	188.59	13.158310	-57.060732	188.86	0.670	0.270	0.760	188.59	-0.80	1.30	 	 	 	 	 	 	 	 	 	 	 	 	 	 	 	 	 	 	1581486215	7.78	14.41
12/02/2020 05:43:36	120220	12022020	054336	188.87	13.158270	-57.060735	189.10	0.690	-0.940	1.060	188.89	-2.40	1.60	 	 	 	 	 	 	 	 	 	 	 	 	 	 	 	 	 	 	1581486216	8.47	15.69
12/02/2020 05:43:37	120220	12022020	054337	188.83	13.158232	-57.060743	189.01	0.530	-1.610	1.720	188.78	-3.00	2.30	 	 	 	 	 	 	 	 	 	 	 	 	 	 	 	 	 	 	1581486217	8.53	15.80
12/02/2020 05:43:38	120220	12022020	054338	188.43	13.158195	-57.060753	188.57	0.320	-1.710	2.490	188.32	-3.10	3.00	 	 	 	 	 	 	 	 	 	 	 	 	 	 	 	 	 	 	1581486218	8.06	14.93
12/02/2020 05:43:39	120220	12022020	054339	187.85	13.158162	-57.060765	188.01	0.040	-1.520	3.160	187.74	-2.80	3.70	 	 	 	 	 	 	 	 	 	 	 	 	 	 	 	 	 	 	1581486219	7.76	14.37
12/02/2020 05:43:40	120220	12022020	054340	187.41	13.158125	-57.060775	187.63	-0.460	-1.020	3.780	187.36	-2.30	4.30	 	 	 	 	 	 	 	 	 	 	 	 	 	 	 	 	 	 	1581486220	7.94	14.70
12/02/2020 05:43:41	120220	12022020	054341	187.30	13.158090	-57.060788	187.57	-1.040	-0.140	4.060	187.32	-1.40	4.50	 	 	 	 	 	 	 	 	 	 	 	 	 	 	 	 	 	 	1581486221	8.09	14.98
12/02/2020 05:43:42	120220	12022020	054342	187.55	13.158057	-57.060803	187.88	-1.290	0.860	3.680	187.64	-0.40	4.00	 	 	 	 	 	 	 	 	 	 	 	 	 	 	 	 	 	 	1581486222	7.95	14.72
12/02/2020 05:43:43	120220	12022020	054343	188.07	13.158023	-57.060815	188.41	-0.900	1.320	2.650	188.19	-0.00	3.00	 	 	 	 	 	 	 	 	 	 	 	 	 	 	 	 	 	 	1581486223	7.60	14.08
12/02/2020 05:43:44	120220	12022020	054344	188.65	13.157987	-57.060822	188.94	0.050	0.860	1.400	188.75	-0.60	1.70	 	 	 	 	 	 	 	 	 	 	 	 	 	 	 	 	 	 	1581486224	7.76	14.37
12/02/2020 05:43:45	120220	12022020	054345	189.08	13.157948	-57.060823	189.33	1.050	-0.060	0.290	189.15	-1.50	0.70	 	 	 	 	 	 	 	 	 	 	 	 	 	 	 	 	 	 	1581486225	8.53	15.80
12/02/2020 05:43:46	120220	12022020	054346	189.47	13.157905	-57.060823	189.72	1.380	-0.630	-0.210	189.54	-2.00	0.30	 	 	 	 	 	 	 	 	 	 	 	 	 	 	 	 	 	 	1581486226	9.03	16.72
12/02/2020 05:43:47	120220	12022020	054347	189.67	13.157867	-57.060822	189.86	0.760	-0.770	0.560	189.67	-2.10	0.80	 	 	 	 	 	 	 	 	 	 	 	 	 	 	 	 	 	 	1581486227	8.46	15.67
12/02/2020 05:43:48	120220	12022020	054348	189.35	13.157832	-57.060828	189.47	-0.280	-0.830	2.210	189.21	-2.20	2.90	 	 	 	 	 	 	 	 	 	 	 	 	 	 	 	 	 	 	1581486228	7.61	14.09
12/02/2020 05:43:49	120220	12022020	054349	188.57	13.157798	-57.060843	188.70	-1.000	-0.810	3.930	188.57	-2.20	4.00	 	 	 	 	 	 	 	 	 	 	 	 	 	 	 	 	 	 	1581486229	7.83	14.50
12/02/2020 05:43:50	120220	12022020	054350	187.77	13.157765	-57.060865	187.95	-1.000	-0.560	5.200	187.65	-1.90	5.70	 	 	 	 	 	 	 	 	 	 	 	 	 	 	 	 	 	 	1581486230	8.49	15.72
12/02/2020 05:43:51	120220	12022020	054351	187.31	13.157732	-57.060888	187.56	-0.350	-0.240	5.390	187.27	-1.50	5.80	 	 	 	 	 	 	 	 	 	 	 	 	 	 	 	 	 	 	1581486231	8.55	15.83
12/02/2020 05:43:52	120220	12022020	054352	187.25	13.157698	-57.060903	187.52	0.450	-0.150	4.570	187.26	-1.50	4.90	 	 	 	 	 	 	 	 	 	 	 	 	 	 	 	 	 	 	1581486232	8.09	14.98
12/02/2020 05:43:53	120220	12022020	054353	187.36	13.157662	-57.060910	187.63	0.870	-0.290	3.210	187.41	-1.60	3.50	 	 	 	 	 	 	 	 	 	 	 	 	 	 	 	 	 	 	1581486233	8.01	14.83
12/02/2020 05:43:54	120220	12022020	054354	187.74	13.157622	-57.060910	188.06	0.640	-0.150	1.870	187.87	-1.40	2.20	 	 	 	 	 	 	 	 	 	 	 	 	 	 	 	 	 	 	1581486234	8.35	15.46
12/02/2020 05:43:55	120220	12022020	054355	188.51	13.157585	-57.060910	188.86	-0.080	0.480	0.970	188.69	-0.80	1.40	 	 	 	 	 	 	 	 	 	 	 	 	 	 	 	 	 	 	1581486235	7.97	14.76
12/02/2020 05:43:56	120220	12022020	054356	189.36	13.157553	-57.060912	189.64	-0.670	0.860	0.440	189.49	-0.50	0.90	 	 	 	 	 	 	 	 	 	 	 	 	 	 	 	 	 	 	1581486236	6.98	12.93
12/02/2020 05:43:57	120220	12022020	054357	189.81	13.157522	-57.060918	190.01	-0.560	0.290	0.300	189.83	-1.20	0.80	 	 	 	 	 	 	 	 	 	 	 	 	 	 	 	 	 	 	1581486237	6.81	12.61
12/02/2020 05:43:58	120220	12022020	054358	189.77	13.157487	-57.060927	189.91	0.050	-0.880	0.730	189.71	-2.40	1.30	 	 	 	 	 	 	 	 	 	 	 	 	 	 	 	 	 	 	1581486238	7.74	14.33
12/02/2020 05:43:59	120220	12022020	054359	189.34	13.157448	-57.060937	189.44	0.610	-1.770	1.590	189.34	-3.00	1.90	 	 	 	 	 	 	 	 	 	 	 	 	 	 	 	 	 	 	1581486239	8.57	15.87
12/02/2020 05:44:00	120220	12022020	054400	188.63	13.157410	-57.060948	188.70	0.700	-1.770	2.580	188.46	-3.00	3.20	 	 	 	 	 	 	 	 	 	 	 	 	 	 	 	 	 	 	1581486240	8.61	15.95
12/02/2020 05:44:01	120220	12022020	054401	187.86	13.157373	-57.060958	188.01	0.230	-0.880	3.400	187.86	-2.50	3.70	1015.60	26.00	26.00	21.00	21.10	-1.0	74.0	74.0	432.0	25.7	267.00	10.20	73.00	11.20	16	8869.0	27.2	27.2	1581486241	8.10	15.00
12/02/2020 05:44:02	120220	12022020	054402	187.57	13.157340	-57.060970	187.82	-0.480	0.350	3.640	187.58	-0.90	4.10	 	 	 	 	 	 	 	 	 	 	 	 	 	 	 	 	 	 	1581486242	7.51	13.91
12/02/2020 05:44:03	120220	12022020	054403	187.75	13.157308	-57.060980	188.02	-0.970	1.100	3.400	187.80	-0.20	3.80	 	 	 	 	 	 	 	 	 	 	 	 	 	 	 	 	 	 	1581486243	7.19	13.32
12/02/2020 05:44:04	120220	12022020	054404	188.04	13.157277	-57.060992	188.30	-0.850	1.010	2.760	188.09	-0.40	3.10	 	 	 	 	 	 	 	 	 	 	 	 	 	 	 	 	 	 	1581486244	7.44	13.78
12/02/2020 05:44:05	120220	12022020	054405	188.27	13.157240	-57.061003	188.50	-0.210	0.370	1.810	188.30	-1.10	2.20	 	 	 	 	 	 	 	 	 	 	 	 	 	 	 	 	 	 	1581486245	8.04	14.89
12/02/2020 05:44:06	120220	12022020	054406	188.39	13.157202	-57.061008	188.60	0.490	-0.320	0.940	188.41	-1.80	1.30	 	 	 	 	 	 	 	 	 	 	 	 	 	 	 	 	 	 	1581486246	8.41	15.58
12/02/2020 05:44:07	120220	12022020	054407	188.49	13.157163	-57.061012	188.69	0.700	-0.770	0.600	188.50	-2.10	1.10	 	 	 	 	 	 	 	 	 	 	 	 	 	 	 	 	 	 	1581486247	8.41	15.58
12/02/2020 05:44:08	120220	12022020	054408	188.55	13.157125	-57.061015	188.75	0.360	-0.830	0.910	188.55	-2.20	1.50	 	 	 	 	 	 	 	 	 	 	 	 	 	 	 	 	 	 	1581486248	8.07	14.95
12/02/2020 05:44:09	120220	12022020	054409	188.51	13.157090	-57.061022	188.71	-0.160	-0.600	1.650	188.49	-1.90	2.20	 	 	 	 	 	 	 	 	 	 	 	 	 	 	 	 	 	 	1581486249	7.65	14.17
12/02/2020 05:44:10	120220	12022020	054410	188.37	13.157057	-57.061033	188.57	-0.450	-0.310	2.510	188.33	-1.60	3.10	 	 	 	 	 	 	 	 	 	 	 	 	 	 	 	 	 	 	1581486250	7.49	13.87
12/02/2020 05:44:11	120220	12022020	054411	188.18	13.157025	-57.061047	188.38	-0.320	-0.140	3.070	188.18	-1.50	3.40	 	 	 	 	 	 	 	 	 	 	 	 	 	 	 	 	 	 	1581486251	7.63	14.13
12/02/2020 05:44:12	120220	12022020	054412	187.95	13.156990	-57.061060	188.14	0.100	-0.100	3.080	187.90	-1.40	3.50	 	 	 	 	 	 	 	 	 	 	 	 	 	 	 	 	 	 	1581486252	7.83	14.50
12/02/2020 05:44:13	120220	12022020	054413	187.72	13.156955	-57.061070	187.91	0.470	-0.110	2.690	187.68	-1.50	3.10	 	 	 	 	 	 	 	 	 	 	 	 	 	 	 	 	 	 	1581486253	7.93	14.69
12/02/2020 05:44:14	120220	12022020	054414	187.54	13.156918	-57.061075	187.73	0.510	-0.130	2.200	187.52	-1.50	2.60	 	 	 	 	 	 	 	 	 	 	 	 	 	 	 	 	 	 	1581486254	7.94	14.70
12/02/2020 05:44:15	120220	12022020	054415	187.50	13.156882	-57.061078	187.72	0.210	-0.130	1.840	187.52	-1.50	2.30	 	 	 	 	 	 	 	 	 	 	 	 	 	 	 	 	 	 	1581486255	7.91	14.65
12/02/2020 05:44:16	120220	12022020	054416	187.63	13.156845	-57.061082	187.84	-0.110	-0.200	1.740	187.64	-1.60	2.20	 	 	 	 	 	 	 	 	 	 	 	 	 	 	 	 	 	 	1581486256	7.76	14.37
12/02/2020 05:44:17	120220	12022020	054417	187.59	13.156810	-57.061088	187.75	-0.160	-0.490	1.920	187.54	-1.90	2.40	 	 	 	 	 	 	 	 	 	 	 	 	 	 	 	 	 	 	1581486257	7.71	14.28
12/02/2020 05:44:18	120220	12022020	054418	187.30	13.156775	-57.061098	187.44	-0.030	-0.710	2.220	187.24	-2.10	2.70	 	 	 	 	 	 	 	 	 	 	 	 	 	 	 	 	 	 	1581486258	8.01	14.83
12/02/2020 05:44:19	120220	12022020	054419	187.11	13.156737	-57.061107	187.31	-0.070	-0.550	2.420	187.10	-1.90	2.90	 	 	 	 	 	 	 	 	 	 	 	 	 	 	 	 	 	 	1581486259	8.18	15.15
12/02/2020 05:44:20	120220	12022020	054420	187.22	13.156702	-57.061117	187.45	-0.320	-0.170	2.320	187.27	-1.50	2.70	 	 	 	 	 	 	 	 	 	 	 	 	 	 	 	 	 	 	1581486260	7.88	14.59
12/02/2020 05:44:21	120220	12022020	054421	187.48	13.156668	-57.061127	187.71	-0.490	0.110	2.060	187.53	-1.20	2.50	 	 	 	 	 	 	 	 	 	 	 	 	 	 	 	 	 	 	1581486261	7.60	14.08
12/02/2020 05:44:22	120220	12022020	054422	187.67	13.156633	-57.061135	187.88	-0.280	0.080	1.800	187.70	-1.30	2.20	 	 	 	 	 	 	 	 	 	 	 	 	 	 	 	 	 	 	1581486262	7.64	14.15
12/02/2020 05:44:23	120220	12022020	054423	187.80	13.156597	-57.061143	188.01	0.150	0.000	1.470	187.83	-1.40	1.90	 	 	 	 	 	 	 	 	 	 	 	 	 	 	 	 	 	 	1581486263	7.93	14.69
12/02/2020 05:44:24	120220	12022020	054424	187.96	13.156560	-57.061148	188.15	0.420	-0.030	1.130	187.98	-1.40	1.60	 	 	 	 	 	 	 	 	 	 	 	 	 	 	 	 	 	 	1581486264	7.97	14.76
12/02/2020 05:44:25	120220	12022020	054425	187.97	13.156525	-57.061152	188.11	0.420	-0.210	1.150	187.97	-1.50	1.60	 	 	 	 	 	 	 	 	 	 	 	 	 	 	 	 	 	 	1581486265	7.80	14.45
12/02/2020 05:44:26	120220	12022020	054426	187.80	13.156488	-57.061157	187.94	0.240	-0.490	1.510	187.76	-1.90	2.00	 	 	 	 	 	 	 	 	 	 	 	 	 	 	 	 	 	 	1581486266	7.87	14.58
12/02/2020 05:44:27	120220	12022020	054427	187.61	13.156452	-57.061163	187.77	0.050	-0.600	1.910	187.58	-2.00	2.40	 	 	 	 	 	 	 	 	 	 	 	 	 	 	 	 	 	 	1581486267	8.05	14.91
12/02/2020 05:44:28	120220	12022020	054428	187.40	13.156415	-57.061173	187.55	-0.030	-0.510	2.230	187.36	-1.80	2.70	 	 	 	 	 	 	 	 	 	 	 	 	 	 	 	 	 	 	1581486268	7.98	14.78
12/02/2020 05:44:29	120220	12022020	054429	187.20	13.156380	-57.061183	187.37	-0.020	-0.300	2.420	187.18	-1.60	2.90	 	 	 	 	 	 	 	 	 	 	 	 	 	 	 	 	 	 	1581486269	7.85	14.54
12/02/2020 05:44:30	120220	12022020	054430	187.17	13.156345	-57.061192	187.37	-0.040	-0.050	2.310	187.19	-1.40	2.70	 	 	 	 	 	 	 	 	 	 	 	 	 	 	 	 	 	 	1581486270	7.79	14.43
12/02/2020 05:44:31	120220	12022020	054431	187.29	13.156310	-57.061198	187.48	-0.190	0.050	2.110	187.30	-1.30	2.60	 	 	 	 	 	 	 	 	 	 	 	 	 	 	 	 	 	 	1581486271	7.72	14.30
12/02/2020 05:44:32	120220	12022020	054432	187.26	13.156273	-57.061205	187.42	-0.380	-0.150	2.100	187.24	-1.50	2.60	 	 	 	 	 	 	 	 	 	 	 	 	 	 	 	 	 	 	1581486272	7.75	14.35
12/02/2020 05:44:33	120220	12022020	054433	187.09	13.156237	-57.061213	187.23	-0.390	-0.430	2.120	187.05	-1.80	2.60	 	 	 	 	 	 	 	 	 	 	 	 	 	 	 	 	 	 	1581486273	8.07	14.95
12/02/2020 05:44:34	120220	12022020	054434	186.96	13.156200	-57.061223	187.13	-0.180	-0.420	2.090	186.95	-1.80	2.50	 	 	 	 	 	 	 	 	 	 	 	 	 	 	 	 	 	 	1581486274	8.28	15.33
12/02/2020 05:44:35	120220	12022020	054435	186.99	13.156163	-57.061232	187.17	0.170	-0.160	1.840	187.01	-1.50	2.30	 	 	 	 	 	 	 	 	 	 	 	 	 	 	 	 	 	 	1581486275	8.01	14.83
12/02/2020 05:44:36	120220	12022020	054436	187.08	13.156128	-57.061238	187.25	0.470	-0.040	1.490	187.09	-1.40	1.90	 	 	 	 	 	 	 	 	 	 	 	 	 	 	 	 	 	 	1581486276	7.64	14.15
12/02/2020 05:44:37	120220	12022020	054437	187.10	13.156093	-57.061242	187.24	0.610	-0.190	1.290	187.10	-1.50	1.80	 	 	 	 	 	 	 	 	 	 	 	 	 	 	 	 	 	 	1581486277	7.73	14.32
12/02/2020 05:44:38	120220	12022020	054438	187.09	13.156057	-57.061247	187.26	0.540	-0.320	1.290	187.10	-1.70	1.80	 	 	 	 	 	 	 	 	 	 	 	 	 	 	 	 	 	 	1581486278	8.03	14.87
12/02/2020 05:44:39	120220	12022020	054439	187.27	13.156018	-57.061252	187.49	0.210	-0.150	1.340	187.27	-1.60	1.80	 	 	 	 	 	 	 	 	 	 	 	 	 	 	 	 	 	 	1581486279	8.06	14.93
12/02/2020 05:44:40	120220	12022020	054440	187.66	13.155983	-57.061257	187.88	-0.320	0.030	1.630	187.72	-1.40	2.10	 	 	 	 	 	 	 	 	 	 	 	 	 	 	 	 	 	 	1581486280	7.68	14.22
12/02/2020 05:44:41	120220	12022020	054441	187.81	13.155950	-57.061265	187.95	-0.680	-0.270	2.200	187.77	-1.70	2.70	 	 	 	 	 	 	 	 	 	 	 	 	 	 	 	 	 	 	1581486281	7.49	13.87
12/02/2020 05:44:42	120220	12022020	054442	187.51	13.155913	-57.061277	187.61	-0.550	-0.920	2.820	187.42	-2.40	3.30	 	 	 	 	 	 	 	 	 	 	 	 	 	 	 	 	 	 	1581486282	8.07	14.95
12/02/2020 05:44:43	120220	12022020	054443	187.08	13.155875	-57.061288	187.18	-0.140	-1.160	3.250	186.99	-2.50	3.70	 	 	 	 	 	 	 	 	 	 	 	 	 	 	 	 	 	 	1581486283	8.74	16.19
12/02/2020 05:44:44	120220	12022020	054444	186.71	13.155837	-57.061298	186.83	0.170	-0.760	3.240	186.65	-2.10	3.60	 	 	 	 	 	 	 	 	 	 	 	 	 	 	 	 	 	 	1581486284	8.54	15.82
12/02/2020 05:44:45	120220	12022020	054445	186.60	13.155800	-57.061307	186.79	0.210	-0.060	2.610	186.64	-1.30	3.00	 	 	 	 	 	 	 	 	 	 	 	 	 	 	 	 	 	 	1581486285	7.98	14.78
12/02/2020 05:44:46	120220	12022020	054446	186.93	13.155765	-57.061310	187.14	0.060	0.660	1.680	187.02	-0.60	2.00	 	 	 	 	 	 	 	 	 	 	 	 	 	 	 	 	 	 	1581486286	7.65	14.17
12/02/2020 05:44:47	120220	12022020	054447	187.39	13.155730	-57.061312	187.59	-0.110	1.060	0.990	187.47	-0.30	1.40	 	 	 	 	 	 	 	 	 	 	 	 	 	 	 	 	 	 	1581486287	7.41	13.72
12/02/2020 05:44:48	120220	12022020	054448	187.71	13.155695	-57.061313	187.87	-0.200	0.660	0.800	187.75	-0.80	1.30	 	 	 	 	 	 	 	 	 	 	 	 	 	 	 	 	 	 	1581486288	7.44	13.78
12/02/2020 05:44:49	120220	12022020	054449	187.76	13.155658	-57.061318	187.88	-0.190	-0.350	1.050	187.76	-1.50	1.40	 	 	 	 	 	 	 	 	 	 	 	 	 	 	 	 	 	 	1581486289	8.00	14.82
12/02/2020 05:44:50	120220	12022020	054450	187.56	13.155620	-57.061328	187.67	-0.080	-1.170	1.670	187.51	-2.60	2.20	 	 	 	 	 	 	 	 	 	 	 	 	 	 	 	 	 	 	1581486290	8.67	16.06
12/02/2020 05:44:51	120220	12022020	054451	187.35	13.155582	-57.061340	187.47	0.180	-1.240	2.060	187.35	-2.70	2.50	 	 	 	 	 	 	 	 	 	 	 	 	 	 	 	 	 	 	1581486291	8.71	16.13
12/02/2020 05:44:52	120220	12022020	054452	187.21	13.155545	-57.061352	187.33	0.490	-0.820	1.890	187.19	-2.10	2.30	 	 	 	 	 	 	 	 	 	 	 	 	 	 	 	 	 	 	1581486292	8.03	14.87
12/02/2020 05:44:53	120220	12022020	054453	187.18	13.155510	-57.061357	187.31	0.590	-0.430	1.530	187.19	-1.80	2.00	 	 	 	 	 	 	 	 	 	 	 	 	 	 	 	 	 	 	1581486293	7.54	13.96
12/02/2020 05:44:54	120220	12022020	054454	187.24	13.155475	-57.061360	187.37	0.260	-0.170	1.290	187.25	-1.50	1.80	 	 	 	 	 	 	 	 	 	 	 	 	 	 	 	 	 	 	1581486294	7.66	14.19
12/02/2020 05:44:55	120220	12022020	054455	187.29	13.155438	-57.061363	187.41	-0.340	0.030	1.360	187.29	-1.30	1.90	 	 	 	 	 	 	 	 	 	 	 	 	 	 	 	 	 	 	1581486295	7.83	14.50
12/02/2020 05:44:56	120220	12022020	054456	187.34	13.155403	-57.061372	187.48	-0.810	0.180	1.720	187.36	-1.20	2.20	 	 	 	 	 	 	 	 	 	 	 	 	 	 	 	 	 	 	1581486296	7.90	14.63
12/02/2020 05:44:57	120220	12022020	054457	187.44	13.155367	-57.061382	187.59	-0.840	0.250	2.060	187.46	-1.10	2.50	 	 	 	 	 	 	 	 	 	 	 	 	 	 	 	 	 	 	1581486297	8.00	14.82
12/02/2020 05:44:58	120220	12022020	054458	187.57	13.155332	-57.061393	187.72	-0.390	0.160	2.130	187.59	-1.20	2.60	 	 	 	 	 	 	 	 	 	 	 	 	 	 	 	 	 	 	1581486298	8.05	14.91
12/02/2020 05:44:59	120220	12022020	054459	187.68	13.155295	-57.061403	187.82	0.260	-0.160	1.940	187.69	-1.60	2.40	 	 	 	 	 	 	 	 	 	 	 	 	 	 	 	 	 	 	1581486299	8.09	14.98
12/02/2020 05:45:00	120220	12022020	054500	187.64	13.155257	-57.061408	187.74	0.700	-0.570	1.710	187.61	-2.00	2.20	 	 	 	 	 	 	 	 	 	 	 	 	 	 	 	 	 	 	1581486300	8.26	15.30
12/02/2020 05:45:01	120220	12022020	054501	187.49	13.155218	-57.061412	187.59	0.670	-0.740	1.750	187.46	-2.10	2.30	1015.60	25.90	26.00	20.90	20.90	-1.0	73.0	73.0	434.0	25.7	270.00	10.00	75.00	10.80	16	9410.0	27.2	27.2	1581486301	8.39	15.54
12/02/2020 05:45:02	120220	12022020	054502	187.37	13.155180	-57.061417	187.50	0.250	-0.460	2.050	187.36	-1.80	2.50	 	 	 	 	 	 	 	 	 	 	 	 	 	 	 	 	 	 	1581486302	8.16	15.11
12/02/2020 05:45:03	120220	12022020	054503	187.43	13.155147	-57.061425	187.59	-0.280	0.170	2.260	187.43	-1.40	2.70	 	 	 	 	 	 	 	 	 	 	 	 	 	 	 	 	 	 	1581486303	7.66	14.19
12/02/2020 05:45:04	120220	12022020	054504	187.50	13.155113	-57.061433	187.63	-0.470	0.320	2.430	187.48	-1.10	2.90	 	 	 	 	 	 	 	 	 	 	 	 	 	 	 	 	 	 	1581486304	7.18	13.30
12/02/2020 05:45:05	120220	12022020	054505	187.32	13.155080	-57.061443	187.41	-0.120	-0.420	2.540	187.27	-1.90	3.00	 	 	 	 	 	 	 	 	 	 	 	 	 	 	 	 	 	 	1581486305	7.52	13.93
12/02/2020 05:45:06	120220	12022020	054506	187.04	13.155042	-57.061453	187.15	0.290	-1.200	2.610	187.00	-2.60	3.10	 	 	 	 	 	 	 	 	 	 	 	 	 	 	 	 	 	 	1581486306	8.62	15.96
12/02/2020 05:45:07	120220	12022020	054507	186.91	13.155000	-57.061460	187.05	0.230	-1.140	2.650	186.91	-2.40	3.10	 	 	 	 	 	 	 	 	 	 	 	 	 	 	 	 	 	 	1581486307	8.98	16.63
12/02/2020 05:45:08	120220	12022020	054508	187.08	13.154962	-57.061468	187.27	-0.270	-0.260	2.460	187.15	-1.50	2.90	 	 	 	 	 	 	 	 	 	 	 	 	 	 	 	 	 	 	1581486308	8.28	15.33
12/02/2020 05:45:09	120220	12022020	054509	187.56	13.154928	-57.061477	187.80	-0.700	0.750	2.020	187.68	-0.60	2.40	 	 	 	 	 	 	 	 	 	 	 	 	 	 	 	 	 	 	1581486309	7.38	13.67
12/02/2020 05:45:10	120220	12022020	054510	188.12	13.154897	-57.061485	188.32	-0.600	1.120	1.500	188.21	-0.30	1.90	 	 	 	 	 	 	 	 	 	 	 	 	 	 	 	 	 	 	1581486310	7.04	13.04
12/02/2020 05:45:11	120220	12022020	054511	188.47	13.154863	-57.061492	188.62	0.060	0.560	1.030	188.50	-0.90	1.50	 	 	 	 	 	 	 	 	 	 	 	 	 	 	 	 	 	 	1581486311	7.44	13.78
12/02/2020 05:45:12	120220	12022020	054512	188.49	13.154825	-57.061497	188.58	0.800	-0.390	0.850	188.46	-1.90	1.30	 	 	 	 	 	 	 	 	 	 	 	 	 	 	 	 	 	 	1581486312	8.30	15.37
12/02/2020 05:45:13	120220	12022020	054513	188.29	13.154785	-57.061500	188.37	1.080	-0.940	1.000	188.29	-2.30	1.40	 	 	 	 	 	 	 	 	 	 	 	 	 	 	 	 	 	 	1581486313	8.73	16.17
12/02/2020 05:45:14	120220	12022020	054514	188.05	13.154747	-57.061505	188.14	0.700	-0.950	1.410	188.01	-2.30	2.00	 	 	 	 	 	 	 	 	 	 	 	 	 	 	 	 	 	 	1581486314	8.36	15.48
12/02/2020 05:45:15	120220	12022020	054515	187.87	13.154710	-57.061510	187.98	-0.070	-0.690	2.130	187.87	-2.10	2.40	 	 	 	 	 	 	 	 	 	 	 	 	 	 	 	 	 	 	1581486315	7.81	14.46
12/02/2020 05:45:16	120220	12022020	054516	187.73	13.154677	-57.061522	187.87	-0.690	-0.470	2.870	187.70	-1.80	3.40	 	 	 	 	 	 	 	 	 	 	 	 	 	 	 	 	 	 	1581486316	7.69	14.24
12/02/2020 05:45:17	120220	12022020	054517	187.58	13.154642	-57.061537	187.71	-0.780	-0.440	3.140	187.55	-1.80	3.60	 	 	 	 	 	 	 	 	 	 	 	 	 	 	 	 	 	 	1581486317	8.00	14.82
12/02/2020 05:45:18	120220	12022020	054518	187.53	13.154605	-57.061550	187.70	-0.460	-0.420	2.840	187.55	-1.80	3.20	 	 	 	 	 	 	 	 	 	 	 	 	 	 	 	 	 	 	1581486318	8.31	15.39
12/02/2020 05:45:19	120220	12022020	054519	187.75	13.154568	-57.061560	187.93	-0.100	-0.130	2.110	187.82	-1.50	2.50	 	 	 	 	 	 	 	 	 	 	 	 	 	 	 	 	 	 	1581486319	8.33	15.43
12/02/2020 05:45:20	120220	12022020	054520	188.02	13.154532	-57.061567	188.16	0.060	0.210	1.430	188.05	-1.20	1.90	 	 	 	 	 	 	 	 	 	 	 	 	 	 	 	 	 	 	1581486320	7.96	14.74
12/02/2020 05:45:21	120220	12022020	054521	188.10	13.154495	-57.061570	188.23	0.080	0.270	1.120	188.11	-1.10	1.60	 	 	 	 	 	 	 	 	 	 	 	 	 	 	 	 	 	 	1581486321	7.76	14.37
12/02/2020 05:45:22	120220	12022020	054522	188.19	13.154458	-57.061573	188.33	0.050	0.070	1.090	188.20	-1.40	1.60	 	 	 	 	 	 	 	 	 	 	 	 	 	 	 	 	 	 	1581486322	8.01	14.83
12/02/2020 05:45:23	120220	12022020	054523	188.22	13.154422	-57.061580	188.33	0.070	-0.220	1.310	188.21	-1.60	1.80	 	 	 	 	 	 	 	 	 	 	 	 	 	 	 	 	 	 	1581486323	8.20	15.19
12/02/2020 05:45:24	120220	12022020	054524	188.19	13.154383	-57.061588	188.32	0.170	-0.340	1.520	188.19	-1.70	2.00	 	 	 	 	 	 	 	 	 	 	 	 	 	 	 	 	 	 	1581486324	8.27	15.32
12/02/2020 05:45:25	120220	12022020	054525	188.27	13.154347	-57.061597	188.42	0.300	-0.140	1.480	188.29	-1.50	1.90	 	 	 	 	 	 	 	 	 	 	 	 	 	 	 	 	 	 	1581486325	8.13	15.06
12/02/2020 05:45:26	120220	12022020	054526	188.35	13.154312	-57.061605	188.50	0.380	0.020	1.350	188.37	-1.40	1.80	 	 	 	 	 	 	 	 	 	 	 	 	 	 	 	 	 	 	1581486326	7.70	14.26
12/02/2020 05:45:27	120220	12022020	054527	188.49	13.154277	-57.061610	188.65	0.290	-0.130	1.330	188.49	-1.50	1.80	 	 	 	 	 	 	 	 	 	 	 	 	 	 	 	 	 	 	1581486327	7.65	14.17
12/02/2020 05:45:28	120220	12022020	054528	188.56	13.154240	-57.061615	188.69	0.080	-0.560	1.740	188.54	-2.00	2.30	 	 	 	 	 	 	 	 	 	 	 	 	 	 	 	 	 	 	1581486328	7.91	14.65
12/02/2020 05:45:29	120220	12022020	054529	188.30	13.154203	-57.061625	188.39	-0.080	-1.110	2.380	188.30	-2.40	2.70	 	 	 	 	 	 	 	 	 	 	 	 	 	 	 	 	 	 	1581486329	8.24	15.26
12/02/2020 05:45:30	120220	12022020	054530	187.97	13.154165	-57.061637	188.09	-0.180	-1.250	2.810	187.92	-2.60	3.30	 	 	 	 	 	 	 	 	 	 	 	 	 	 	 	 	 	 	1581486330	8.64	16.00
12/02/2020 05:45:31	120220	12022020	054531	187.79	13.154127	-57.061648	187.93	-0.370	-0.790	2.960	187.77	-2.10	3.40	 	 	 	 	 	 	 	 	 	 	 	 	 	 	 	 	 	 	1581486331	8.50	15.74
12/02/2020 05:45:32	120220	12022020	054532	187.75	13.154090	-57.061658	187.90	-0.590	-0.110	2.780	187.75	-1.40	3.20	 	 	 	 	 	 	 	 	 	 	 	 	 	 	 	 	 	 	1581486332	7.95	14.72
12/02/2020 05:45:33	120220	12022020	054533	187.79	13.154057	-57.061668	187.93	-0.630	0.420	2.370	187.80	-0.90	2.80	 	 	 	 	 	 	 	 	 	 	 	 	 	 	 	 	 	 	1581486333	7.73	14.32
12/02/2020 05:45:34	120220	12022020	054534	187.82	13.154020	-57.061677	187.96	-0.290	0.530	1.960	187.83	-0.90	2.40	 	 	 	 	 	 	 	 	 	 	 	 	 	 	 	 	 	 	1581486334	7.82	14.48
12/02/2020 05:45:35	120220	12022020	054535	187.97	13.153983	-57.061683	188.16	0.230	0.420	1.480	188.05	-1.00	1.90	 	 	 	 	 	 	 	 	 	 	 	 	 	 	 	 	 	 	1581486335	8.21	15.20
12/02/2020 05:45:36	120220	12022020	054536	188.44	13.153945	-57.061688	188.65	0.550	0.470	1.050	188.55	-0.90	1.50	 	 	 	 	 	 	 	 	 	 	 	 	 	 	 	 	 	 	1581486336	8.39	15.54
12/02/2020 05:45:37	120220	12022020	054537	188.96	13.153907	-57.061692	189.13	0.520	0.550	0.830	189.03	-0.80	1.30	 	 	 	 	 	 	 	 	 	 	 	 	 	 	 	 	 	 	1581486337	7.96	14.74
12/02/2020 05:45:38	120220	12022020	054538	189.20	13.153873	-57.061697	189.32	0.340	0.140	0.930	189.21	-1.30	1.40	 	 	 	 	 	 	 	 	 	 	 	 	 	 	 	 	 	 	1581486338	7.49	13.87
12/02/2020 05:45:39	120220	12022020	054539	189.13	13.153837	-57.061703	189.22	0.290	-0.840	1.420	189.13	-2.00	1.70	 	 	 	 	 	 	 	 	 	 	 	 	 	 	 	 	 	 	1581486339	7.76	14.37
12/02/2020 05:45:40	120220	12022020	054540	188.78	13.153800	-57.061712	188.84	0.440	-1.790	2.080	188.68	-3.20	2.60	 	 	 	 	 	 	 	 	 	 	 	 	 	 	 	 	 	 	1581486340	8.41	15.58
12/02/2020 05:45:41	120220	12022020	054541	188.28	13.153760	-57.061723	188.35	0.520	-2.070	2.640	188.19	-3.40	3.10	 	 	 	 	 	 	 	 	 	 	 	 	 	 	 	 	 	 	1581486341	8.75	16.21
12/02/2020 05:45:42	120220	12022020	054542	187.91	13.153722	-57.061733	188.04	0.190	-1.400	2.960	187.87	-2.60	3.40	 	 	 	 	 	 	 	 	 	 	 	 	 	 	 	 	 	 	1581486342	8.46	15.67
12/02/2020 05:45:43	120220	12022020	054543	187.84	13.153687	-57.061742	188.00	-0.490	-0.230	2.970	187.85	-1.40	3.40	 	 	 	 	 	 	 	 	 	 	 	 	 	 	 	 	 	 	1581486343	7.79	14.43
12/02/2020 05:45:44	120220	12022020	054544	187.97	13.153653	-57.061752	188.15	-1.110	0.690	2.720	188.01	-0.60	3.10	 	 	 	 	 	 	 	 	 	 	 	 	 	 	 	 	 	 	1581486344	7.38	13.67
12/02/2020 05:45:45	120220	12022020	054545	188.19	13.153620	-57.061760	188.39	-1.280	0.830	2.320	188.25	-0.60	2.70	 	 	 	 	 	 	 	 	 	 	 	 	 	 	 	 	 	 	1581486345	7.62	14.11
12/02/2020 05:45:46	120220	12022020	054546	188.53	13.153582	-57.061770	188.72	-0.940	0.450	1.790	188.60	-1.00	2.20	 	 	 	 	 	 	 	 	 	 	 	 	 	 	 	 	 	 	1581486346	8.36	15.48
12/02/2020 05:45:47	120220	12022020	054547	188.86	13.153542	-57.061778	189.02	-0.290	0.130	1.270	188.91	-1.30	1.70	 	 	 	 	 	 	 	 	 	 	 	 	 	 	 	 	 	 	1581486347	8.82	16.33
12/02/2020 05:45:48	120220	12022020	054548	188.98	13.153502	-57.061787	189.08	0.460	0.060	0.880	188.98	-1.30	1.30	 	 	 	 	 	 	 	 	 	 	 	 	 	 	 	 	 	 	1581486348	8.62	15.96
12/02/2020 05:45:49	120220	12022020	054549	188.95	13.153465	-57.061792	189.07	1.010	0.170	0.600	188.97	-1.20	1.00	 	 	 	 	 	 	 	 	 	 	 	 	 	 	 	 	 	 	1581486349	8.20	15.19
12/02/2020 05:45:50	120220	12022020	054550	189.14	13.153428	-57.061795	189.30	1.060	0.380	0.430	189.21	-1.00	0.90	 	 	 	 	 	 	 	 	 	 	 	 	 	 	 	 	 	 	1581486350	7.89	14.61
12/02/2020 05:45:51	120220	12022020	054551	189.41	13.153393	-57.061798	189.56	0.750	0.260	0.700	189.44	-1.20	1.20	 	 	 	 	 	 	 	 	 	 	 	 	 	 	 	 	 	 	1581486351	7.47	13.83
12/02/2020 05:45:52	120220	12022020	054552	189.46	13.153358	-57.061803	189.57	0.450	-0.520	1.330	189.43	-2.00	1.90	 	 	 	 	 	 	 	 	 	 	 	 	 	 	 	 	 	 	1581486352	7.47	13.83
12/02/2020 05:45:53	120220	12022020	054553	189.22	13.153322	-57.061813	189.29	0.240	-1.520	2.240	189.13	-3.00	2.80	 	 	 	 	 	 	 	 	 	 	 	 	 	 	 	 	 	 	1581486353	8.16	15.11
12/02/2020 05:45:54	120220	12022020	054554	188.66	13.153283	-57.061825	188.71	-0.060	-2.120	3.450	188.53	-3.50	4.00	 	 	 	 	 	 	 	 	 	 	 	 	 	 	 	 	 	 	1581486354	8.71	16.13
12/02/2020 05:45:55	120220	12022020	054555	187.94	13.153245	-57.061840	188.02	-0.460	-1.990	4.390	187.82	-3.30	4.90	 	 	 	 	 	 	 	 	 	 	 	 	 	 	 	 	 	 	1581486355	8.84	16.37
12/02/2020 05:45:56	120220	12022020	054556	187.48	13.153208	-57.061857	187.66	-0.780	-1.000	4.490	187.46	-2.20	4.90	 	 	 	 	 	 	 	 	 	 	 	 	 	 	 	 	 	 	1581486356	8.71	16.13
12/02/2020 05:45:57	120220	12022020	054557	187.57	13.153173	-57.061870	187.84	-0.840	0.450	3.800	187.65	-0.70	4.10	 	 	 	 	 	 	 	 	 	 	 	 	 	 	 	 	 	 	1581486357	8.07	14.95
12/02/2020 05:45:58	120220	12022020	054558	188.10	13.153140	-57.061880	188.39	-0.610	1.450	2.450	188.24	0.10	2.70	 	 	 	 	 	 	 	 	 	 	 	 	 	 	 	 	 	 	1581486358	7.40	13.70
12/02/2020 05:45:59	120220	12022020	054559	188.88	13.153105	-57.061883	189.18	-0.230	1.460	0.890	189.06	0.00	1.20	 	 	 	 	 	 	 	 	 	 	 	 	 	 	 	 	 	 	1581486359	7.56	14.00
12/02/2020 05:46:00	120220	12022020	054600	189.76	13.153065	-57.061883	190.02	0.100	0.790	-0.220	189.93	-0.70	0.20	 	 	 	 	 	 	 	 	 	 	 	 	 	 	 	 	 	 	1581486360	8.36	15.48
12/02/2020 05:46:01	120220	12022020	054601	190.34	13.153025	-57.061883	190.49	0.330	-0.090	-0.340	190.37	-1.60	0.20	1015.60	25.90	25.90	21.40	21.40	-1.0	76.0	76.0	435.0	25.7	280.00	9.70	84.00	9.90	16	10098.0	27.2	27.2	1581486361	8.70	16.11
12/02/2020 05:46:02	120220	12022020	054602	190.19	13.152987	-57.061888	190.22	0.570	-0.960	0.510	190.08	-2.40	1.10	 	 	 	 	 	 	 	 	 	 	 	 	 	 	 	 	 	 	1581486362	8.52	15.78
12/02/2020 05:46:03	120220	12022020	054603	189.48	13.152948	-57.061897	189.50	0.690	-1.430	1.810	189.48	-2.80	2.00	 	 	 	 	 	 	 	 	 	 	 	 	 	 	 	 	 	 	1581486363	8.47	15.69
12/02/2020 05:46:04	120220	12022020	054604	188.74	13.152910	-57.061908	188.79	0.490	-1.250	2.990	188.60	-2.60	3.60	 	 	 	 	 	 	 	 	 	 	 	 	 	 	 	 	 	 	1581486364	8.39	15.54
12/02/2020 05:46:05	120220	12022020	054605	188.21	13.152875	-57.061922	188.37	0.060	-0.630	3.610	188.21	-2.20	4.00	 	 	 	 	 	 	 	 	 	 	 	 	 	 	 	 	 	 	1581486365	8.09	14.98
12/02/2020 05:46:06	120220	12022020	054606	188.16	13.152840	-57.061935	188.41	-0.310	0.140	3.440	188.21	-1.10	3.80	 	 	 	 	 	 	 	 	 	 	 	 	 	 	 	 	 	 	1581486366	7.87	14.58
12/02/2020 05:46:07	120220	12022020	054607	188.60	13.152807	-57.061947	188.88	-0.390	0.640	2.560	188.70	-0.70	2.90	 	 	 	 	 	 	 	 	 	 	 	 	 	 	 	 	 	 	1581486367	7.63	14.13
12/02/2020 05:46:08	120220	12022020	054608	189.11	13.152772	-57.061953	189.34	-0.250	0.460	1.630	189.19	-1.00	2.00	 	 	 	 	 	 	 	 	 	 	 	 	 	 	 	 	 	 	1581486368	7.63	14.13
12/02/2020 05:46:09	120220	12022020	054609	189.41	13.152735	-57.061960	189.60	-0.090	-0.170	1.150	189.45	-1.60	1.60	 	 	 	 	 	 	 	 	 	 	 	 	 	 	 	 	 	 	1581486369	8.17	15.13
12/02/2020 05:46:10	120220	12022020	054610	189.63	13.152695	-57.061967	189.83	-0.030	-0.440	0.920	189.69	-1.80	1.40	 	 	 	 	 	 	 	 	 	 	 	 	 	 	 	 	 	 	1581486370	8.58	15.89
12/02/2020 05:46:11	120220	12022020	054611	189.93	13.152658	-57.061975	190.13	-0.070	-0.190	0.770	189.98	-1.50	1.20	 	 	 	 	 	 	 	 	 	 	 	 	 	 	 	 	 	 	1581486371	8.21	15.20
12/02/2020 05:46:12	120220	12022020	054612	190.04	13.152623	-57.061982	190.19	-0.020	-0.200	0.920	190.02	-1.60	1.40	 	 	 	 	 	 	 	 	 	 	 	 	 	 	 	 	 	 	1581486372	7.48	13.85
12/02/2020 05:46:13	120220	12022020	054613	189.80	13.152590	-57.061990	189.89	0.280	-0.740	1.420	189.72	-2.20	1.90	 	 	 	 	 	 	 	 	 	 	 	 	 	 	 	 	 	 	1581486373	7.70	14.26
12/02/2020 05:46:14	120220	12022020	054614	189.47	13.152550	-57.062000	189.60	0.620	-1.170	1.790	189.44	-2.50	2.30	 	 	 	 	 	 	 	 	 	 	 	 	 	 	 	 	 	 	1581486374	8.54	15.82
12/02/2020 05:46:15	120220	12022020	054615	189.40	13.152512	-57.062008	189.56	0.580	-0.880	2.010	189.40	-2.20	2.50	 	 	 	 	 	 	 	 	 	 	 	 	 	 	 	 	 	 	1581486375	8.75	16.21
12/02/2020 05:46:16	120220	12022020	054616	189.39	13.152473	-57.062017	189.55	0.080	-0.140	2.230	189.38	-1.40	2.70	 	 	 	 	 	 	 	 	 	 	 	 	 	 	 	 	 	 	1581486376	8.06	14.93
12/02/2020 05:46:17	120220	12022020	054617	189.24	13.152440	-57.062025	189.36	-0.470	0.310	2.480	189.24	-1.10	2.90	 	 	 	 	 	 	 	 	 	 	 	 	 	 	 	 	 	 	1581486377	7.50	13.89
12/02/2020 05:46:18	120220	12022020	054618	188.94	13.152405	-57.062035	189.05	-0.630	0.290	2.670	188.87	-1.10	3.20	 	 	 	 	 	 	 	 	 	 	 	 	 	 	 	 	 	 	1581486378	7.74	14.33
12/02/2020 05:46:19	120220	12022020	054619	188.53	13.152368	-57.062045	188.64	-0.450	-0.020	3.000	188.53	-1.30	3.40	 	 	 	 	 	 	 	 	 	 	 	 	 	 	 	 	 	 	1581486379	8.28	15.33
12/02/2020 05:46:20	120220	12022020	054620	188.32	13.152330	-57.062058	188.51	-0.230	-0.180	3.100	188.34	-1.50	3.50	 	 	 	 	 	 	 	 	 	 	 	 	 	 	 	 	 	 	1581486380	8.68	16.08
12/02/2020 05:46:21	120220	12022020	054621	188.61	13.152292	-57.062070	188.85	-0.200	0.160	2.750	188.72	-1.10	3.10	 	 	 	 	 	 	 	 	 	 	 	 	 	 	 	 	 	 	1581486381	8.56	15.85
12/02/2020 05:46:22	120220	12022020	054622	189.27	13.152257	-57.062080	189.54	-0.250	0.720	2.170	189.42	-0.60	2.50	 	 	 	 	 	 	 	 	 	 	 	 	 	 	 	 	 	 	1581486382	7.79	14.43
12/02/2020 05:46:23	120220	12022020	054623	190.01	13.152225	-57.062090	190.24	-0.080	0.760	1.460	190.14	-0.70	1.80	 	 	 	 	 	 	 	 	 	 	 	 	 	 	 	 	 	 	1581486383	7.14	13.22
12/02/2020 05:46:24	120220	12022020	054624	190.50	13.152192	-57.062097	190.65	0.430	-0.110	0.770	190.54	-1.60	1.20	 	 	 	 	 	 	 	 	 	 	 	 	 	 	 	 	 	 	1581486384	7.28	13.48
12/02/2020 05:46:25	120220	12022020	054625	190.51	13.152155	-57.062102	190.57	1.020	-1.430	0.500	190.45	-2.90	1.00	 	 	 	 	 	 	 	 	 	 	 	 	 	 	 	 	 	 	1581486385	8.17	15.13
12/02/2020 05:46:26	120220	12022020	054626	190.14	13.152113	-57.062107	190.18	1.180	-2.050	0.740	190.05	-3.40	1.30	 	 	 	 	 	 	 	 	 	 	 	 	 	 	 	 	 	 	1581486386	8.87	16.43
12/02/2020 05:46:27	120220	12022020	054627	189.67	13.152075	-57.062112	189.72	0.700	-1.530	1.190	189.57	-2.80	1.70	 	 	 	 	 	 	 	 	 	 	 	 	 	 	 	 	 	 	1581486387	8.48	15.70
12/02/2020 05:46:28	120220	12022020	054628	189.17	13.152040	-57.062120	189.23	-0.050	-0.640	1.780	189.06	-1.90	2.30	 	 	 	 	 	 	 	 	 	 	 	 	 	 	 	 	 	 	1581486388	7.51	13.91
12/02/2020 05:46:29	120220	12022020	054629	188.69	13.152007	-57.062130	188.78	-0.570	-0.040	2.450	188.69	-1.50	2.80	 	 	 	 	 	 	 	 	 	 	 	 	 	 	 	 	 	 	1581486389	7.42	13.74
12/02/2020 05:46:30	120220	12022020	054630	188.55	13.151972	-57.062143	188.75	-0.770	0.430	2.740	188.59	-0.90	3.20	 	 	 	 	 	 	 	 	 	 	 	 	 	 	 	 	 	 	1581486390	8.11	15.02
12/02/2020 05:46:31	120220	12022020	054631	188.92	13.151935	-57.062157	189.19	-0.800	0.940	2.640	189.04	-0.40	3.00	 	 	 	 	 	 	 	 	 	 	 	 	 	 	 	 	 	 	1581486391	8.34	15.45
12/02/2020 05:46:32	120220	12022020	054632	189.61	13.151900	-57.062168	189.89	-0.730	1.110	2.320	189.74	-0.30	2.70	 	 	 	 	 	 	 	 	 	 	 	 	 	 	 	 	 	 	1581486392	8.01	14.83
12/02/2020 05:46:33	120220	12022020	054633	190.21	13.151865	-57.062178	190.44	-0.510	0.580	1.900	190.28	-0.90	2.30	 	 	 	 	 	 	 	 	 	 	 	 	 	 	 	 	 	 	1581486393	7.87	14.58
12/02/2020 05:46:34	120220	12022020	054634	190.43	13.151827	-57.062188	190.59	-0.130	-0.450	1.680	190.43	-1.90	2.10	 	 	 	 	 	 	 	 	 	 	 	 	 	 	 	 	 	 	1581486394	8.27	15.32
12/02/2020 05:46:35	120220	12022020	054635	190.41	13.151788	-57.062197	190.55	0.230	-1.170	1.610	190.39	-2.60	2.00	 	 	 	 	 	 	 	 	 	 	 	 	 	 	 	 	 	 	1581486395	8.74	16.19
12/02/2020 05:46:36	120220	12022020	054636	190.28	13.151750	-57.062207	190.39	0.490	-1.160	1.460	190.22	-2.50	1.90	 	 	 	 	 	 	 	 	 	 	 	 	 	 	 	 	 	 	1581486396	8.47	15.69
12/02/2020 05:46:37	120220	12022020	054637	189.84	13.151715	-57.062217	189.88	0.730	-0.920	1.420	189.70	-2.30	1.90	 	 	 	 	 	 	 	 	 	 	 	 	 	 	 	 	 	 	1581486397	7.71	14.28
12/02/2020 05:46:38	120220	12022020	054638	189.20	13.151680	-57.062222	189.29	0.830	-0.710	1.480	189.11	-2.00	1.90	 	 	 	 	 	 	 	 	 	 	 	 	 	 	 	 	 	 	1581486398	7.62	14.11
12/02/2020 05:46:39	120220	12022020	054639	188.95	13.151643	-57.062227	189.12	0.470	-0.080	1.620	188.95	-1.40	2.10	 	 	 	 	 	 	 	 	 	 	 	 	 	 	 	 	 	 	1581486399	8.01	14.83
12/02/2020 05:46:40	120220	12022020	054640	189.08	13.151608	-57.062233	189.31	-0.220	0.710	1.940	189.14	-0.60	2.40	 	 	 	 	 	 	 	 	 	 	 	 	 	 	 	 	 	 	1581486400	7.65	14.17
12/02/2020 05:46:41	120220	12022020	054641	189.35	13.151575	-57.062245	189.56	-0.630	0.860	2.290	189.39	-0.60	2.80	 	 	 	 	 	 	 	 	 	 	 	 	 	 	 	 	 	 	1581486401	7.30	13.52
12/02/2020 05:46:42	120220	12022020	054642	189.44	13.151542	-57.062258	189.62	-0.330	0.060	2.560	189.43	-1.40	3.00	 	 	 	 	 	 	 	 	 	 	 	 	 	 	 	 	 	 	1581486402	7.85	14.54
12/02/2020 05:46:43	120220	12022020	054643	189.41	13.151503	-57.062272	189.61	0.310	-0.780	2.750	189.43	-2.20	3.20	 	 	 	 	 	 	 	 	 	 	 	 	 	 	 	 	 	 	1581486403	8.87	16.43
12/02/2020 05:46:44	120220	12022020	054644	189.67	13.151462	-57.062283	189.93	0.470	-0.670	2.680	189.76	-2.00	3.10	 	 	 	 	 	 	 	 	 	 	 	 	 	 	 	 	 	 	1581486404	9.05	16.76
12/02/2020 05:46:45	120220	12022020	054645	190.15	13.151427	-57.062292	190.38	-0.030	0.040	2.370	190.22	-1.30	2.80	 	 	 	 	 	 	 	 	 	 	 	 	 	 	 	 	 	 	1581486405	7.87	14.58
12/02/2020 05:46:46	120220	12022020	054646	190.37	13.151395	-57.062298	190.53	-0.580	0.190	2.110	190.36	-1.20	2.50	 	 	 	 	 	 	 	 	 	 	 	 	 	 	 	 	 	 	1581486406	6.82	12.63
12/02/2020 05:46:47	120220	12022020	054647	190.21	13.151363	-57.062307	190.33	-0.560	-0.560	2.030	190.16	-2.00	2.50	 	 	 	 	 	 	 	 	 	 	 	 	 	 	 	 	 	 	1581486407	7.24	13.41
12/02/2020 05:46:48	120220	12022020	054648	189.95	13.151325	-57.062318	190.06	-0.050	-1.360	1.940	189.90	-2.80	2.40	 	 	 	 	 	 	 	 	 	 	 	 	 	 	 	 	 	 	1581486408	8.42	15.59
12/02/2020 05:46:49	120220	12022020	054649	189.64	13.151285	-57.062330	189.73	0.450	-1.420	1.850	189.56	-2.70	2.30	 	 	 	 	 	 	 	 	 	 	 	 	 	 	 	 	 	 	1581486409	8.81	16.32
12/02/2020 05:46:50	120220	12022020	054650	189.24	13.151248	-57.062338	189.32	0.520	-0.710	1.820	189.15	-2.00	2.30	 	 	 	 	 	 	 	 	 	 	 	 	 	 	 	 	 	 	1581486410	8.27	15.32
12/02/2020 05:46:51	120220	12022020	054651	188.82	13.151213	-57.062345	188.92	0.220	0.180	1.920	188.74	-1.10	2.40	 	 	 	 	 	 	 	 	 	 	 	 	 	 	 	 	 	 	1581486411	7.65	14.17
12/02/2020 05:46:52	120220	12022020	054652	188.58	13.151178	-57.062352	188.74	-0.130	0.860	1.970	188.58	-0.40	2.40	 	 	 	 	 	 	 	 	 	 	 	 	 	 	 	 	 	 	1581486412	7.49	13.87
12/02/2020 05:46:53	120220	12022020	054653	188.73	13.151143	-57.062358	188.96	-0.330	1.210	1.860	188.80	-0.10	2.30	 	 	 	 	 	 	 	 	 	 	 	 	 	 	 	 	 	 	1581486413	7.69	14.24
12/02/2020 05:46:54	120220	12022020	054654	189.15	13.151108	-57.062367	189.40	-0.350	1.090	1.720	189.25	-0.30	2.20	 	 	 	 	 	 	 	 	 	 	 	 	 	 	 	 	 	 	1581486414	7.77	14.39
12/02/2020 05:46:55	120220	12022020	054655	189.57	13.151073	-57.062375	189.80	-0.190	0.340	1.650	189.57	-0.80	2.10	 	 	 	 	 	 	 	 	 	 	 	 	 	 	 	 	 	 	1581486415	7.90	14.63
12/02/2020 05:46:56	120220	12022020	054656	189.80	13.151035	-57.062385	189.98	0.060	-0.810	1.750	189.80	-2.30	2.20	 	 	 	 	 	 	 	 	 	 	 	 	 	 	 	 	 	 	1581486416	8.27	15.32
12/02/2020 05:46:57	120220	12022020	054657	189.66	13.150997	-57.062397	189.77	0.300	-1.730	2.080	189.59	-3.20	2.60	 	 	 	 	 	 	 	 	 	 	 	 	 	 	 	 	 	 	1581486417	8.60	15.93
12/02/2020 05:46:58	120220	12022020	054658	189.22	13.150960	-57.062408	189.31	0.400	-1.820	2.350	189.14	-3.10	2.80	 	 	 	 	 	 	 	 	 	 	 	 	 	 	 	 	 	 	1581486418	8.53	15.80
12/02/2020 05:46:59	120220	12022020	054659	188.76	13.150923	-57.062420	188.86	0.250	-1.060	2.350	188.68	-2.30	2.80	 	 	 	 	 	 	 	 	 	 	 	 	 	 	 	 	 	 	1581486419	7.93	14.69
12/02/2020 05:47:00	120220	12022020	054700	188.45	13.150892	-57.062427	188.59	-0.040	-0.180	2.120	188.42	-1.50	2.50	 	 	 	 	 	 	 	 	 	 	 	 	 	 	 	 	 	 	1581486420	7.22	13.37
12/02/2020 05:47:01	120220	12022020	054701	188.43	13.150858	-57.062433	188.61	-0.280	0.330	1.780	188.45	-1.00	2.20	1015.60	25.60	25.60	20.80	20.90	-1.0	75.0	75.0	436.0	25.7	274.00	9.00	78.00	9.70	16	10028.0	27.2	27.2	1581486421	7.22	13.37
12/02/2020 05:47:02	120220	12022020	054702	188.50	13.150823	-57.062440	188.67	-0.330	0.350	1.660	188.50	-1.00	2.10	 	 	 	 	 	 	 	 	 	 	 	 	 	 	 	 	 	 	1581486422	7.70	14.26
12/02/2020 05:47:03	120220	12022020	054703	188.49	13.150785	-57.062447	188.66	-0.150	0.040	1.730	188.49	-1.40	2.20	 	 	 	 	 	 	 	 	 	 	 	 	 	 	 	 	 	 	1581486423	8.23	15.24
12/02/2020 05:47:04	120220	12022020	054704	188.63	13.150747	-57.062455	188.86	0.030	-0.040	1.740	188.70	-1.40	2.20	 	 	 	 	 	 	 	 	 	 	 	 	 	 	 	 	 	 	1581486424	8.63	15.98
12/02/2020 05:47:05	120220	12022020	054705	189.05	13.150708	-57.062463	189.31	-0.010	0.240	1.750	189.15	-1.10	2.20	 	 	 	 	 	 	 	 	 	 	 	 	 	 	 	 	 	 	1581486425	8.36	15.48
12/02/2020 05:47:06	120220	12022020	054706	189.41	13.150673	-57.062472	189.61	-0.220	0.340	1.950	189.45	-1.10	2.40	 	 	 	 	 	 	 	 	 	 	 	 	 	 	 	 	 	 	1581486426	7.67	14.20
12/02/2020 05:47:07	120220	12022020	054707	189.48	13.150640	-57.062482	189.63	-0.250	0.010	2.290	189.48	-1.30	2.70	 	 	 	 	 	 	 	 	 	 	 	 	 	 	 	 	 	 	1581486427	7.59	14.06
12/02/2020 05:47:08	120220	12022020	054708	189.30	13.150603	-57.062493	189.41	0.100	-0.490	2.490	189.24	-1.90	2.90	 	 	 	 	 	 	 	 	 	 	 	 	 	 	 	 	 	 	1581486428	8.02	14.85
12/02/2020 05:47:09	120220	12022020	054709	188.90	13.150567	-57.062505	188.99	0.600	-0.740	2.520	188.90	-2.10	3.00	 	 	 	 	 	 	 	 	 	 	 	 	 	 	 	 	 	 	1581486429	8.25	15.28
12/02/2020 05:47:10	120220	12022020	054710	188.60	13.150530	-57.062513	188.76	0.740	-0.560	2.200	188.59	-1.90	2.60	 	 	 	 	 	 	 	 	 	 	 	 	 	 	 	 	 	 	1581486430	8.07	14.95
12/02/2020 05:47:11	120220	12022020	054711	188.72	13.150495	-57.062517	188.94	0.280	-0.220	1.550	188.78	-1.60	1.90	 	 	 	 	 	 	 	 	 	 	 	 	 	 	 	 	 	 	1581486431	7.65	14.17
12/02/2020 05:47:12	120220	12022020	054712	188.95	13.150462	-57.062520	189.12	-0.400	-0.320	1.140	188.96	-1.70	1.60	 	 	 	 	 	 	 	 	 	 	 	 	 	 	 	 	 	 	1581486432	7.35	13.61
12/02/2020 05:47:13	120220	12022020	054713	188.82	13.150425	-57.062527	188.95	-0.710	-0.890	1.460	188.77	-2.30	2.00	 	 	 	 	 	 	 	 	 	 	 	 	 	 	 	 	 	 	1581486433	7.77	14.39
12/02/2020 05:47:14	120220	12022020	054714	188.61	13.150387	-57.062538	188.77	-0.490	-1.060	1.800	188.60	-2.40	2.30	 	 	 	 	 	 	 	 	 	 	 	 	 	 	 	 	 	 	1581486434	8.64	16.00
12/02/2020 05:47:15	120220	12022020	054715	188.66	13.150350	-57.062552	188.86	-0.090	-0.410	1.720	188.70	-1.70	2.10	 	 	 	 	 	 	 	 	 	 	 	 	 	 	 	 	 	 	1581486435	8.57	15.87
12/02/2020 05:47:16	120220	12022020	054716	188.87	13.150315	-57.062562	189.04	0.200	0.390	1.420	188.90	-0.90	1.80	 	 	 	 	 	 	 	 	 	 	 	 	 	 	 	 	 	 	1581486436	7.67	14.20
12/02/2020 05:47:17	120220	12022020	054717	188.94	13.150282	-57.062567	189.08	0.290	0.580	1.260	188.93	-0.80	1.70	 	 	 	 	 	 	 	 	 	 	 	 	 	 	 	 	 	 	1581486437	7.31	13.54
12/02/2020 05:47:18	120220	12022020	054718	188.75	13.150245	-57.062572	188.85	0.200	0.160	1.530	188.68	-1.30	2.00	 	 	 	 	 	 	 	 	 	 	 	 	 	 	 	 	 	 	1581486438	7.85	14.54
12/02/2020 05:47:19	120220	12022020	054719	188.39	13.150207	-57.062578	188.50	-0.050	-0.230	2.130	188.39	-1.50	2.40	 	 	 	 	 	 	 	 	 	 	 	 	 	 	 	 	 	 	1581486439	8.48	15.70
12/02/2020 05:47:20	120220	12022020	054720	188.08	13.150168	-57.062590	188.22	-0.310	-0.100	2.560	188.03	-1.40	3.00	 	 	 	 	 	 	 	 	 	 	 	 	 	 	 	 	 	 	1581486440	8.53	15.80
12/02/2020 05:47:21	120220	12022020	054721	188.01	13.150133	-57.062602	188.21	-0.340	0.320	2.400	188.04	-1.00	2.80	 	 	 	 	 	 	 	 	 	 	 	 	 	 	 	 	 	 	1581486441	7.98	14.78
12/02/2020 05:47:22	120220	12022020	054722	188.17	13.150102	-57.062613	188.37	-0.040	0.230	1.790	188.19	-1.20	2.20	 	 	 	 	 	 	 	 	 	 	 	 	 	 	 	 	 	 	1581486442	7.35	13.61
12/02/2020 05:47:23	120220	12022020	054723	188.25	13.150067	-57.062620	188.42	0.380	-0.610	1.320	188.25	-2.10	1.80	 	 	 	 	 	 	 	 	 	 	 	 	 	 	 	 	 	 	1581486443	7.57	14.02
12/02/2020 05:47:24	120220	12022020	054724	188.20	13.150027	-57.062623	188.35	0.550	-1.460	1.350	188.18	-2.90	1.90	 	 	 	 	 	 	 	 	 	 	 	 	 	 	 	 	 	 	1581486444	8.43	15.61
12/02/2020 05:47:25	120220	12022020	054725	188.08	13.149987	-57.062632	188.24	0.340	-1.530	1.770	188.07	-2.80	2.30	 	 	 	 	 	 	 	 	 	 	 	 	 	 	 	 	 	 	1581486445	8.67	16.06
12/02/2020 05:47:26	120220	12022020	054726	188.07	13.149952	-57.062640	188.27	-0.100	-0.700	2.180	188.08	-1.90	2.70	 	 	 	 	 	 	 	 	 	 	 	 	 	 	 	 	 	 	1581486446	8.10	15.00
12/02/2020 05:47:27	120220	12022020	054727	188.15	13.149918	-57.062650	188.35	-0.480	0.340	2.390	188.16	-0.90	2.90	 	 	 	 	 	 	 	 	 	 	 	 	 	 	 	 	 	 	1581486447	7.30	13.52
12/02/2020 05:47:28	120220	12022020	054728	188.18	13.149887	-57.062660	188.35	-0.490	0.690	2.440	188.18	-0.70	2.90	 	 	 	 	 	 	 	 	 	 	 	 	 	 	 	 	 	 	1581486448	7.01	12.98
12/02/2020 05:47:29	120220	12022020	054729	188.17	13.149853	-57.062670	188.35	-0.140	0.270	2.290	188.16	-1.20	2.70	 	 	 	 	 	 	 	 	 	 	 	 	 	 	 	 	 	 	1581486449	7.70	14.26
12/02/2020 05:47:30	120220	12022020	054730	188.09	13.149813	-57.062678	188.26	0.230	-0.270	2.240	188.07	-1.70	2.70	 	 	 	 	 	 	 	 	 	 	 	 	 	 	 	 	 	 	1581486450	8.53	15.80
12/02/2020 05:47:31	120220	12022020	054731	188.00	13.149775	-57.062687	188.20	0.370	-0.410	2.190	188.00	-1.80	2.60	 	 	 	 	 	 	 	 	 	 	 	 	 	 	 	 	 	 	1581486451	8.70	16.11
12/02/2020 05:47:32	120220	12022020	054732	188.11	13.149737	-57.062693	188.33	0.220	-0.120	1.860	188.16	-1.50	2.30	 	 	 	 	 	 	 	 	 	 	 	 	 	 	 	 	 	 	1581486452	8.24	15.26
12/02/2020 05:47:33	120220	12022020	054733	188.35	13.149667	-57.062703	188.53	0.000	0.000	1.550	188.35	-1.40	2.10	 	 	 	 	 	 	 	 	 	 	 	 	 	 	 	 	 	 	1581486453	7.63	14.13
12/02/2020 05:47:34	120220	12022020	054734	188.40	13.149667	-57.062703	188.53	-0.040	-0.330	1.690	188.38	-1.80	2.20	 	 	 	 	 	 	 	 	 	 	 	 	 	 	 	 	 	 	1581486454	7.59	14.06
12/02/2020 05:47:35	120220	12022020	054735	188.21	13.149630	-57.062712	188.32	-0.030	-0.690	2.060	188.16	-2.10	2.60	 	 	 	 	 	 	 	 	 	 	 	 	 	 	 	 	 	 	1581486455	8.09	14.98
12/02/2020 05:47:36	120220	12022020	054736	187.93	13.149593	-57.062722	188.05	-0.230	-0.550	2.350	187.88	-1.90	2.80	 	 	 	 	 	 	 	 	 	 	 	 	 	 	 	 	 	 	1581486456	8.27	15.32
12/02/2020 05:47:37	120220	12022020	054737	187.71	13.149558	-57.062733	187.85	-0.590	-0.140	2.510	187.69	-1.50	3.00	 	 	 	 	 	 	 	 	 	 	 	 	 	 	 	 	 	 	1581486457	7.80	14.45
12/02/2020 05:47:38	120220	12022020	054738	187.66	13.149525	-57.062745	187.83	-0.650	0.090	2.360	187.68	-1.30	2.80	 	 	 	 	 	 	 	 	 	 	 	 	 	 	 	 	 	 	1581486458	7.56	14.00
12/02/2020 05:47:39	120220	12022020	054739	187.77	13.149492	-57.062758	187.96	-0.110	0.080	1.900	187.80	-1.30	2.30	 	 	 	 	 	 	 	 	 	 	 	 	 	 	 	 	 	 	1581486459	7.76	14.37
12/02/2020 05:47:40	120220	12022020	054740	187.94	13.149455	-57.062767	188.12	0.790	-0.070	1.280	187.98	-1.50	1.70	 	 	 	 	 	 	 	 	 	 	 	 	 	 	 	 	 	 	1581486460	7.97	14.76
12/02/2020 05:47:41	120220	12022020	054741	188.25	13.149418	-57.062772	188.46	1.330	-0.210	0.770	188.34	-1.60	1.20	 	 	 	 	 	 	 	 	 	 	 	 	 	 	 	 	 	 	1581486461	8.11	15.02
12/02/2020 05:47:42	120220	12022020	054742	188.76	13.149380	-57.062772	188.99	0.960	-0.250	0.680	188.87	-1.60	1.20	 	 	 	 	 	 	 	 	 	 	 	 	 	 	 	 	 	 	1581486462	8.12	15.04
12/02/2020 05:47:43	120220	12022020	054743	189.13	13.149343	-57.062773	189.31	-0.080	-0.350	1.470	189.15	-1.70	2.10	 	 	 	 	 	 	 	 	 	 	 	 	 	 	 	 	 	 	1581486463	7.76	14.37
12/02/2020 05:47:44	120220	12022020	054744	188.96	13.149310	-57.062783	189.04	-0.970	-0.750	2.880	188.85	-2.20	3.50	 	 	 	 	 	 	 	 	 	 	 	 	 	 	 	 	 	 	1581486464	7.61	14.09
12/02/2020 05:47:45	120220	12022020	054745	188.21	13.149275	-57.062802	188.24	-1.030	-1.300	4.220	188.21	-2.50	4.40	 	 	 	 	 	 	 	 	 	 	 	 	 	 	 	 	 	 	1581486465	8.34	15.45
12/02/2020 05:47:46	120220	12022020	054746	187.24	13.149238	-57.062822	187.34	-0.420	-1.480	4.950	187.08	-2.80	5.40	 	 	 	 	 	 	 	 	 	 	 	 	 	 	 	 	 	 	1581486466	8.96	16.59
12/02/2020 05:47:47	120220	12022020	054747	186.74	13.149200	-57.062837	186.98	0.070	-0.760	4.660	186.74	-2.00	5.00	 	 	 	 	 	 	 	 	 	 	 	 	 	 	 	 	 	 	1581486467	8.86	16.41
12/02/2020 05:47:48	120220	12022020	054748	187.01	13.149165	-57.062847	187.32	-0.030	0.540	3.560	187.10	-0.70	3.90	 	 	 	 	 	 	 	 	 	 	 	 	 	 	 	 	 	 	1581486468	7.87	14.58
12/02/2020 05:47:49	120220	12022020	054749	187.54	13.149133	-57.062852	187.81	-0.360	1.420	2.210	187.63	0.10	2.50	 	 	 	 	 	 	 	 	 	 	 	 	 	 	 	 	 	 	1581486469	6.90	12.78
12/02/2020 05:47:50	120220	12022020	054750	187.89	13.149102	-57.062855	188.10	-0.260	1.280	1.070	187.95	-0.20	1.40	 	 	 	 	 	 	 	 	 	 	 	 	 	 	 	 	 	 	1581486470	6.92	12.82
12/02/2020 05:47:51	120220	12022020	054751	188.15	13.149065	-57.062858	188.34	0.280	0.550	0.270	188.20	-0.90	0.70	 	 	 	 	 	 	 	 	 	 	 	 	 	 	 	 	 	 	1581486471	7.80	14.45
12/02/2020 05:47:52	120220	12022020	054752	188.44	13.149027	-57.062862	188.62	0.790	-0.090	-0.210	188.51	-1.50	0.20	 	 	 	 	 	 	 	 	 	 	 	 	 	 	 	 	 	 	1581486472	8.30	15.37
12/02/2020 05:47:53	120220	12022020	054753	188.76	13.148990	-57.062865	188.90	0.860	-0.610	-0.120	188.80	-2.00	0.40	 	 	 	 	 	 	 	 	 	 	 	 	 	 	 	 	 	 	1581486473	8.01	14.83
12/02/2020 05:47:54	120220	12022020	054754	188.86	13.148953	-57.062870	188.97	0.530	-1.220	0.730	188.85	-2.70	1.30	 	 	 	 	 	 	 	 	 	 	 	 	 	 	 	 	 	 	1581486474	7.68	14.22
12/02/2020 05:47:55	120220	12022020	054755	188.69	13.148918	-57.062878	188.77	0.050	-1.670	2.100	188.63	-3.10	2.70	 	 	 	 	 	 	 	 	 	 	 	 	 	 	 	 	 	 	1581486475	7.85	14.54
12/02/2020 05:47:56	120220	12022020	054756	188.25	13.148883	-57.062893	188.31	-0.350	-1.660	3.550	188.13	-3.00	4.20	 	 	 	 	 	 	 	 	 	 	 	 	 	 	 	 	 	 	1581486476	8.12	15.04
12/02/2020 05:47:57	120220	12022020	054757	187.64	13.148850	-57.062910	187.73	-0.560	-1.170	4.510	187.64	-2.70	4.80	 	 	 	 	 	 	 	 	 	 	 	 	 	 	 	 	 	 	1581486477	8.19	15.17
12/02/2020 05:47:58	120220	12022020	054758	187.16	13.148817	-57.062927	187.30	-0.610	-0.320	4.640	187.09	-1.60	5.10	 	 	 	 	 	 	 	 	 	 	 	 	 	 	 	 	 	 	1581486478	8.02	14.85
12/02/2020 05:47:59	120220	12022020	054759	186.87	13.148783	-57.062940	187.02	-0.470	0.430	4.100	186.87	-1.10	4.70	 	 	 	 	 	 	 	 	 	 	 	 	 	 	 	 	 	 	1581486479	7.65	14.17
12/02/2020 05:48:00	120220	12022020	054800	186.81	13.148748	-57.062947	186.99	-0.200	0.800	3.120	186.82	-0.50	3.50	 	 	 	 	 	 	 	 	 	 	 	 	 	 	 	 	 	 	1581486480	7.64	14.15
12/02/2020 05:48:01	120220	12022020	054801	186.99	13.148712	-57.062952	187.21	0.050	0.880	2.040	187.08	-0.50	2.40	1015.60	25.60	25.60	20.70	20.70	-1.0	74.0	74.0	435.0	25.6	274.00	8.10	75.00	8.80	16	9568.0	27.2	27.2	1581486481	7.92	14.67
12/02/2020 05:48:02	120220	12022020	054802	187.50	13.148675	-57.062955	187.75	0.240	0.830	0.950	187.64	-0.60	1.30	 	 	 	 	 	 	 	 	 	 	 	 	 	 	 	 	 	 	1581486482	7.98	14.78
12/02/2020 05:48:03	120220	12022020	054803	188.18	13.148638	-57.062957	188.41	0.360	0.500	0.070	188.31	-0.90	0.50	 	 	 	 	 	 	 	 	 	 	 	 	 	 	 	 	 	 	1581486483	7.80	14.45
12/02/2020 05:48:04	120220	12022020	054804	188.69	13.148602	-57.062958	188.85	0.490	-0.180	-0.010	188.74	-1.60	0.50	 	 	 	 	 	 	 	 	 	 	 	 	 	 	 	 	 	 	1581486484	7.74	14.33
12/02/2020 05:48:05	120220	12022020	054805	188.80	13.148567	-57.062963	188.91	0.620	-1.000	0.640	188.77	-2.50	1.20	 	 	 	 	 	 	 	 	 	 	 	 	 	 	 	 	 	 	1581486485	7.85	14.54
12/02/2020 05:48:06	120220	12022020	054806	188.60	13.148530	-57.062970	188.72	0.520	-1.580	1.520	188.55	-3.00	2.10	 	 	 	 	 	 	 	 	 	 	 	 	 	 	 	 	 	 	1581486486	8.04	14.89
12/02/2020 05:48:07	120220	12022020	054807	188.34	13.148493	-57.062980	188.47	-0.000	-1.570	2.530	188.27	-2.90	3.10	 	 	 	 	 	 	 	 	 	 	 	 	 	 	 	 	 	 	1581486487	8.06	14.93
12/02/2020 05:48:08	120220	12022020	054808	187.93	13.148458	-57.062993	188.03	-0.640	-1.170	3.530	187.81	-2.50	4.10	 	 	 	 	 	 	 	 	 	 	 	 	 	 	 	 	 	 	1581486488	7.79	14.43
12/02/2020 05:48:09	120220	12022020	054809	187.28	13.148427	-57.063010	187.39	-0.900	-0.690	4.190	187.14	-2.00	4.70	 	 	 	 	 	 	 	 	 	 	 	 	 	 	 	 	 	 	1581486489	7.85	14.54
12/02/2020 05:48:10	120220	12022020	054810	186.68	13.148392	-57.063027	186.83	-0.670	-0.120	4.220	186.60	-1.40	4.60	 	 	 	 	 	 	 	 	 	 	 	 	 	 	 	 	 	 	1581486490	8.11	15.02
12/02/2020 05:48:11	120220	12022020	054811	186.56	13.148357	-57.063038	186.81	-0.180	0.600	3.380	186.61	-0.60	3.70	 	 	 	 	 	 	 	 	 	 	 	 	 	 	 	 	 	 	1581486491	8.12	15.04
12/02/2020 05:48:12	120220	12022020	054812	187.03	13.148322	-57.063045	187.32	0.200	1.210	1.890	187.16	-0.10	2.20	 	 	 	 	 	 	 	 	 	 	 	 	 	 	 	 	 	 	1581486492	7.72	14.30
12/02/2020 05:48:13	120220	12022020	054813	187.82	13.148287	-57.063045	188.11	0.310	1.190	0.530	187.98	-0.20	0.90	 	 	 	 	 	 	 	 	 	 	 	 	 	 	 	 	 	 	1581486493	7.48	13.85
12/02/2020 05:48:14	120220	12022020	054814	188.53	13.148250	-57.063043	188.75	0.270	0.370	0.040	188.62	-1.10	0.50	 	 	 	 	 	 	 	 	 	 	 	 	 	 	 	 	 	 	1581486494	7.73	14.32
12/02/2020 05:48:15	120220	12022020	054815	188.76	13.148213	-57.063045	188.90	0.270	-0.840	0.420	188.74	-2.30	1.00	 	 	 	 	 	 	 	 	 	 	 	 	 	 	 	 	 	 	1581486495	8.14	15.08
12/02/2020 05:48:16	120220	12022020	054816	188.54	13.148173	-57.063053	188.64	0.370	-1.680	1.330	188.47	-3.10	1.90	 	 	 	 	 	 	 	 	 	 	 	 	 	 	 	 	 	 	1581486496	8.50	15.74
12/02/2020 05:48:17	120220	12022020	054817	188.19	13.148137	-57.063065	188.32	0.380	-1.590	2.180	188.14	-2.90	2.70	 	 	 	 	 	 	 	 	 	 	 	 	 	 	 	 	 	 	1581486497	8.42	15.59
12/02/2020 05:48:18	120220	12022020	054818	187.97	13.148102	-57.063077	188.13	0.180	-0.760	2.520	187.94	-2.00	3.00	 	 	 	 	 	 	 	 	 	 	 	 	 	 	 	 	 	 	1581486498	7.75	14.35
12/02/2020 05:48:19	120220	12022020	054819	187.79	13.148072	-57.063087	187.93	-0.150	0.020	2.560	187.74	-1.30	3.00	 	 	 	 	 	 	 	 	 	 	 	 	 	 	 	 	 	 	1581486499	7.03	13.02
12/02/2020 05:48:20	120220	12022020	054820	187.52	13.148040	-57.063095	187.66	-0.370	0.250	2.540	187.46	-1.10	3.00	 	 	 	 	 	 	 	 	 	 	 	 	 	 	 	 	 	 	1581486500	7.10	13.15
12/02/2020 05:48:21	120220	12022020	054821	187.24	13.148003	-57.063103	187.39	-0.400	0.130	2.390	187.20	-1.20	2.80	 	 	 	 	 	 	 	 	 	 	 	 	 	 	 	 	 	 	1581486501	7.76	14.37
12/02/2020 05:48:22	120220	12022020	054822	187.13	13.147967	-57.063112	187.31	-0.260	0.040	2.080	187.14	-1.30	2.50	 	 	 	 	 	 	 	 	 	 	 	 	 	 	 	 	 	 	1581486502	8.21	15.20
12/02/2020 05:48:23	120220	12022020	054823	187.30	13.147930	-57.063118	187.53	-0.110	0.030	1.650	187.30	-1.30	2.20	 	 	 	 	 	 	 	 	 	 	 	 	 	 	 	 	 	 	1581486503	8.14	15.08
12/02/2020 05:48:24	120220	12022020	054824	187.71	13.147893	-57.063123	187.94	-0.020	-0.100	1.300	187.78	-1.50	1.80	 	 	 	 	 	 	 	 	 	 	 	 	 	 	 	 	 	 	1581486504	7.92	14.67
12/02/2020 05:48:25	120220	12022020	054825	187.99	13.147857	-57.063130	188.18	0.060	-0.410	1.290	188.02	-1.80	1.80	 	 	 	 	 	 	 	 	 	 	 	 	 	 	 	 	 	 	1581486505	7.86	14.56
12/02/2020 05:48:26	120220	12022020	054826	188.07	13.147820	-57.063138	188.23	0.130	-0.550	1.460	188.07	-1.90	1.90	 	 	 	 	 	 	 	 	 	 	 	 	 	 	 	 	 	 	1581486506	8.04	14.89
12/02/2020 05:48:27	120220	12022020	054827	188.07	13.147785	-57.063147	188.21	0.150	-0.290	1.580	188.07	-1.60	2.00	 	 	 	 	 	 	 	 	 	 	 	 	 	 	 	 	 	 	1581486507	7.95	14.72
12/02/2020 05:48:28	120220	12022020	054828	188.12	13.147750	-57.063155	188.28	0.170	0.100	1.510	188.15	-1.20	2.00	 	 	 	 	 	 	 	 	 	 	 	 	 	 	 	 	 	 	1581486508	7.51	13.91
12/02/2020 05:48:29	120220	12022020	054829	188.22	13.147717	-57.063162	188.37	0.210	0.140	1.280	188.23	-1.20	1.70	 	 	 	 	 	 	 	 	 	 	 	 	 	 	 	 	 	 	1581486509	7.29	13.50
12/02/2020 05:48:30	120220	12022020	054830	188.16	13.147682	-57.063167	188.26	0.240	-0.380	1.200	188.12	-1.80	1.70	 	 	 	 	 	 	 	 	 	 	 	 	 	 	 	 	 	 	1581486510	7.58	14.04
12/02/2020 05:48:31	120220	12022020	054831	187.94	13.147643	-57.063170	188.02	0.120	-0.880	1.420	187.89	-2.20	1.90	 	 	 	 	 	 	 	 	 	 	 	 	 	 	 	 	 	 	1581486511	8.25	15.28
12/02/2020 05:48:32	120220	12022020	054832	187.69	13.147605	-57.063178	187.79	-0.220	-0.700	1.830	187.65	-2.00	2.40	 	 	 	 	 	 	 	 	 	 	 	 	 	 	 	 	 	 	1581486512	8.43	15.61
12/02/2020 05:48:33	120220	12022020	054833	187.58	13.147570	-57.063188	187.71	-0.590	-0.140	2.200	187.57	-1.40	2.70	 	 	 	 	 	 	 	 	 	 	 	 	 	 	 	 	 	 	1581486513	7.88	14.59
12/02/2020 05:48:34	120220	12022020	054834	187.57	13.147537	-57.063200	187.70	-0.620	0.160	2.310	187.55	-1.20	2.80	 	 	 	 	 	 	 	 	 	 	 	 	 	 	 	 	 	 	1581486514	7.49	13.87
12/02/2020 05:48:35	120220	12022020	054835	187.50	13.147503	-57.063212	187.64	-0.130	-0.080	2.130	187.49	-1.50	2.60	 	 	 	 	 	 	 	 	 	 	 	 	 	 	 	 	 	 	1581486515	7.72	14.30
12/02/2020 05:48:36	120220	12022020	054836	187.49	13.147467	-57.063220	187.65	0.470	-0.340	1.720	187.52	-1.70	2.10	 	 	 	 	 	 	 	 	 	 	 	 	 	 	 	 	 	 	1581486516	8.23	15.24
12/02/2020 05:48:37	120220	12022020	054837	187.68	13.147428	-57.063227	187.87	0.660	-0.240	1.060	187.75	-1.50	1.50	 	 	 	 	 	 	 	 	 	 	 	 	 	 	 	 	 	 	1581486517	8.31	15.39
12/02/2020 05:48:38	120220	12022020	054838	188.04	13.147392	-57.063228	188.22	0.350	0.070	0.550	188.10	-1.20	1.00	 	 	 	 	 	 	 	 	 	 	 	 	 	 	 	 	 	 	1581486518	7.87	14.58
12/02/2020 05:48:39	120220	12022020	054839	188.26	13.147357	-57.063232	188.40	-0.080	0.080	0.620	188.26	-1.30	1.10	 	 	 	 	 	 	 	 	 	 	 	 	 	 	 	 	 	 	1581486519	7.43	13.76
12/02/2020 05:48:40	120220	12022020	054840	188.19	13.147322	-57.063237	188.30	-0.260	-0.370	1.050	188.15	-1.80	1.60	 	 	 	 	 	 	 	 	 	 	 	 	 	 	 	 	 	 	1581486520	7.60	14.08
12/02/2020 05:48:41	120220	12022020	054841	187.99	13.147285	-57.063245	188.11	-0.230	-0.780	1.650	187.96	-2.10	2.20	 	 	 	 	 	 	 	 	 	 	 	 	 	 	 	 	 	 	1581486521	8.25	15.28
12/02/2020 05:48:42	120220	12022020	054842	187.88	13.147247	-57.063257	188.05	-0.150	-0.650	2.240	187.88	-1.90	2.70	 	 	 	 	 	 	 	 	 	 	 	 	 	 	 	 	 	 	1581486522	8.47	15.69
12/02/2020 05:48:43	120220	12022020	054843	187.91	13.147212	-57.063268	188.07	-0.160	-0.050	2.450	187.91	-1.30	2.90	 	 	 	 	 	 	 	 	 	 	 	 	 	 	 	 	 	 	1581486523	8.05	14.91
12/02/2020 05:48:44	120220	12022020	054844	187.88	13.147178	-57.063278	188.04	-0.190	0.280	2.370	187.87	-1.10	2.80	 	 	 	 	 	 	 	 	 	 	 	 	 	 	 	 	 	 	1581486524	7.39	13.69
12/02/2020 05:48:45	120220	12022020	054845	187.76	13.147145	-57.063287	187.90	-0.130	-0.070	2.200	187.73	-1.50	2.60	 	 	 	 	 	 	 	 	 	 	 	 	 	 	 	 	 	 	1581486525	7.50	13.89
12/02/2020 05:48:46	120220	12022020	054846	187.62	13.147107	-57.063295	187.77	0.070	-0.560	1.960	187.60	-1.90	2.40	 	 	 	 	 	 	 	 	 	 	 	 	 	 	 	 	 	 	1581486526	8.21	15.20
12/02/2020 05:48:47	120220	12022020	054847	187.58	13.147068	-57.063303	187.73	0.310	-0.560	1.580	187.58	-1.90	2.20	 	 	 	 	 	 	 	 	 	 	 	 	 	 	 	 	 	 	1581486527	8.48	15.70
12/02/2020 05:48:48	120220	12022020	054848	187.63	13.147032	-57.063310	187.80	0.450	-0.160	1.010	187.66	-1.40	1.40	 	 	 	 	 	 	 	 	 	 	 	 	 	 	 	 	 	 	1581486528	7.99	14.80
12/02/2020 05:48:49	120220	12022020	054849	187.85	13.146997	-57.063312	188.04	0.350	0.080	0.470	187.85	-1.30	1.10	 	 	 	 	 	 	 	 	 	 	 	 	 	 	 	 	 	 	1581486529	7.52	13.93
12/02/2020 05:48:50	120220	12022020	054850	188.09	13.146962	-57.063313	188.26	0.070	-0.160	0.420	188.12	-1.60	0.90	 	 	 	 	 	 	 	 	 	 	 	 	 	 	 	 	 	 	1581486530	7.62	14.11
12/02/2020 05:48:51	120220	12022020	054851	188.16	13.146925	-57.063318	188.30	-0.250	-0.690	1.040	188.16	-2.10	1.60	 	 	 	 	 	 	 	 	 	 	 	 	 	 	 	 	 	 	1581486531	8.09	14.98
12/02/2020 05:48:52	120220	12022020	054852	188.07	13.146885	-57.063328	188.19	-0.440	-0.990	1.930	188.03	-2.30	2.50	 	 	 	 	 	 	 	 	 	 	 	 	 	 	 	 	 	 	1581486532	8.56	15.85
12/02/2020 05:48:53	120220	12022020	054853	187.89	13.146848	-57.063342	188.03	-0.460	-0.670	2.600	187.87	-1.90	3.10	 	 	 	 	 	 	 	 	 	 	 	 	 	 	 	 	 	 	1581486533	8.61	15.95
12/02/2020 05:48:54	120220	12022020	054854	187.83	13.146812	-57.063353	188.00	-0.460	0.130	2.900	187.82	-1.10	3.40	 	 	 	 	 	 	 	 	 	 	 	 	 	 	 	 	 	 	1581486534	8.10	15.00
12/02/2020 05:48:55	120220	12022020	054855	187.79	13.146780	-57.063365	187.95	-0.450	0.810	2.830	187.77	-0.50	3.30	 	 	 	 	 	 	 	 	 	 	 	 	 	 	 	 	 	 	1581486535	7.42	13.74
12/02/2020 05:48:56	120220	12022020	054856	187.64	13.146747	-57.063373	187.77	-0.180	0.640	2.440	187.60	-0.80	2.90	 	 	 	 	 	 	 	 	 	 	 	 	 	 	 	 	 	 	1581486536	7.27	13.46
12/02/2020 05:48:57	120220	12022020	054857	187.47	13.146710	-57.063382	187.60	0.410	-0.190	1.870	187.44	-1.60	2.30	 	 	 	 	 	 	 	 	 	 	 	 	 	 	 	 	 	 	1581486537	7.97	14.76
12/02/2020 05:48:58	120220	12022020	054858	187.42	13.146670	-57.063387	187.55	1.000	-0.810	1.360	187.41	-2.20	1.80	 	 	 	 	 	 	 	 	 	 	 	 	 	 	 	 	 	 	1581486538	8.75	16.21
12/02/2020 05:48:59	120220	12022020	054859	187.43	13.146630	-57.063390	187.56	1.090	-0.690	1.040	187.44	-2.00	1.50	 	 	 	 	 	 	 	 	 	 	 	 	 	 	 	 	 	 	1581486539	8.64	16.00
12/02/2020 05:49:00	120220	12022020	054900	187.66	13.146593	-57.063392	187.88	0.450	-0.110	0.940	187.76	-1.40	1.40	 	 	 	 	 	 	 	 	 	 	 	 	 	 	 	 	 	 	1581486540	7.84	14.52
12/02/2020 05:49:01	120220	12022020	054901	188.27	13.146560	-57.063397	188.54	-0.470	0.360	1.060	188.42	-1.00	1.60	1015.70	25.60	25.60	20.90	20.90	-1.0	75.0	75.0	433.0	25.6	274.00	7.90	74.00	8.60	15	10061.0	27.2	27.2	1581486541	7.15	13.24
12/02/2020 05:49:02	120220	12022020	054902	188.88	13.146530	-57.063407	189.10	-0.890	0.200	1.230	188.94	-1.20	1.70	 	 	 	 	 	 	 	 	 	 	 	 	 	 	 	 	 	 	1581486542	7.10	13.15
12/02/2020 05:49:03	120220	12022020	054903	189.09	13.146495	-57.063418	189.26	-0.440	-0.770	1.430	189.09	-2.30	1.90	 	 	 	 	 	 	 	 	 	 	 	 	 	 	 	 	 	 	1581486543	7.71	14.28
12/02/2020 05:49:04	120220	12022020	054904	189.08	13.146457	-57.063428	189.23	0.210	-1.670	1.640	189.06	-3.10	2.20	 	 	 	 	 	 	 	 	 	 	 	 	 	 	 	 	 	 	1581486544	8.69	16.09
12/02/2020 05:49:05	120220	12022020	054905	188.94	13.146415	-57.063437	189.06	0.330	-1.650	2.000	188.89	-2.90	2.50	 	 	 	 	 	 	 	 	 	 	 	 	 	 	 	 	 	 	1581486545	8.98	16.63
12/02/2020 05:49:06	120220	12022020	054906	188.59	13.146377	-57.063445	188.70	-0.140	-0.860	2.460	188.49	-2.10	3.00	 	 	 	 	 	 	 	 	 	 	 	 	 	 	 	 	 	 	1581486546	8.29	15.35
12/02/2020 05:49:07	120220	12022020	054907	188.14	13.146343	-57.063455	188.28	-0.650	0.160	2.800	188.07	-1.10	3.30	 	 	 	 	 	 	 	 	 	 	 	 	 	 	 	 	 	 	1581486547	7.70	14.26
12/02/2020 05:49:08	120220	12022020	054908	187.83	13.146308	-57.063467	188.01	-0.700	0.940	2.800	187.80	-0.30	3.30	 	 	 	 	 	 	 	 	 	 	 	 	 	 	 	 	 	 	1581486548	7.62	14.11
12/02/2020 05:49:09	120220	12022020	054909	187.69	13.146275	-57.063477	187.87	-0.270	1.180	2.470	187.68	-0.20	2.90	 	 	 	 	 	 	 	 	 	 	 	 	 	 	 	 	 	 	1581486549	7.79	14.43
12/02/2020 05:49:10	120220	12022020	054910	187.81	13.146237	-57.063483	188.08	0.200	1.050	1.740	187.92	-0.30	2.10	 	 	 	 	 	 	 	 	 	 	 	 	 	 	 	 	 	 	1581486550	8.17	15.13
12/02/2020 05:49:11	120220	12022020	054911	188.52	13.146198	-57.063488	188.84	0.280	0.870	0.860	188.71	-0.50	1.30	 	 	 	 	 	 	 	 	 	 	 	 	 	 	 	 	 	 	1581486551	8.25	15.28
12/02/2020 05:49:12	120220	12022020	054912	189.44	13.146163	-57.063492	189.72	0.080	0.270	0.420	189.59	-1.20	0.90	 	 	 	 	 	 	 	 	 	 	 	 	 	 	 	 	 	 	1581486552	7.77	14.39
12/02/2020 05:49:13	120220	12022020	054913	189.86	13.146128	-57.063498	190.01	0.150	-1.060	0.740	189.86	-2.10	1.10	 	 	 	 	 	 	 	 	 	 	 	 	 	 	 	 	 	 	1581486553	7.66	14.19
12/02/2020 05:49:14	120220	12022020	054914	189.48	13.146090	-57.063510	189.54	0.660	-2.370	1.510	189.36	-3.80	2.10	 	 	 	 	 	 	 	 	 	 	 	 	 	 	 	 	 	 	1581486554	8.42	15.59
12/02/2020 05:49:15	120220	12022020	054915	188.80	13.146050	-57.063522	188.85	1.020	-2.400	2.320	188.68	-3.60	2.90	 	 	 	 	 	 	 	 	 	 	 	 	 	 	 	 	 	 	1581486555	8.90	16.48
12/02/2020 05:49:16	120220	12022020	054916	188.28	13.146015	-57.063532	188.41	0.760	-1.180	2.750	188.21	-2.30	3.30	 	 	 	 	 	 	 	 	 	 	 	 	 	 	 	 	 	 	1581486556	8.09	14.98
12/02/2020 05:49:17	120220	12022020	054917	188.07	13.145982	-57.063540	188.27	-0.060	0.240	2.720	188.07	-1.00	3.20	 	 	 	 	 	 	 	 	 	 	 	 	 	 	 	 	 	 	1581486557	7.06	13.08
12/02/2020 05:49:18	120220	12022020	054918	188.23	13.145952	-57.063547	188.48	-0.930	1.090	2.440	188.31	-0.20	2.90	 	 	 	 	 	 	 	 	 	 	 	 	 	 	 	 	 	 	1581486558	6.92	12.82
12/02/2020 05:49:19	120220	12022020	054919	188.67	13.145917	-57.063557	188.94	-1.300	1.190	2.070	188.76	-0.20	2.50	 	 	 	 	 	 	 	 	 	 	 	 	 	 	 	 	 	 	1581486559	7.49	13.87
12/02/2020 05:49:20	120220	12022020	054920	189.03	13.145882	-57.063567	189.25	-0.950	0.620	1.730	189.07	-0.80	2.20	 	 	 	 	 	 	 	 	 	 	 	 	 	 	 	 	 	 	1581486560	8.10	15.00
12/02/2020 05:49:21	120220	12022020	054921	189.25	13.145842	-57.063577	189.47	-0.180	-0.130	1.300	189.31	-1.50	1.70	 	 	 	 	 	 	 	 	 	 	 	 	 	 	 	 	 	 	1581486561	8.67	16.06
12/02/2020 05:49:22	120220	12022020	054922	189.63	13.145802	-57.063587	189.85	0.460	-0.500	0.780	189.71	-1.90	1.20	 	 	 	 	 	 	 	 	 	 	 	 	 	 	 	 	 	 	1581486562	8.77	16.24
12/02/2020 05:49:23	120220	12022020	054923	189.92	13.145765	-57.063593	190.05	0.680	-0.610	0.440	189.92	-2.00	0.90	 	 	 	 	 	 	 	 	 	 	 	 	 	 	 	 	 	 	1581486563	8.15	15.09
12/02/2020 05:49:24	120220	12022020	054924	189.74	13.145730	-57.063598	189.79	0.640	-0.900	0.590	189.65	-2.30	1.20	 	 	 	 	 	 	 	 	 	 	 	 	 	 	 	 	 	 	1581486564	7.65	14.17
12/02/2020 05:49:25	120220	12022020	054925	189.18	13.145693	-57.063603	189.21	0.470	-1.210	1.260	189.05	-2.60	1.90	 	 	 	 	 	 	 	 	 	 	 	 	 	 	 	 	 	 	1581486565	7.90	14.63
12/02/2020 05:49:26	120220	12022020	054926	188.52	13.145655	-57.063612	188.57	0.100	-1.000	2.170	188.40	-2.30	2.80	 	 	 	 	 	 	 	 	 	 	 	 	 	 	 	 	 	 	1581486566	8.30	15.37
12/02/2020 05:49:27	120220	12022020	054927	188.03	13.145620	-57.063623	188.15	-0.330	-0.190	2.770	187.98	-1.40	3.30	 	 	 	 	 	 	 	 	 	 	 	 	 	 	 	 	 	 	1581486567	8.17	15.13
12/02/2020 05:49:28	120220	12022020	054928	187.97	13.145585	-57.063637	188.17	-0.590	0.730	2.740	188.01	-0.50	3.20	 	 	 	 	 	 	 	 	 	 	 	 	 	 	 	 	 	 	1581486568	7.77	14.39
12/02/2020 05:49:29	120220	12022020	054929	188.37	13.145553	-57.063648	188.62	-0.560	1.160	2.140	188.49	-0.20	2.50	 	 	 	 	 	 	 	 	 	 	 	 	 	 	 	 	 	 	1581486569	7.52	13.93
12/02/2020 05:49:30	120220	12022020	054930	188.98	13.145518	-57.063657	189.21	-0.340	0.940	1.560	189.09	-0.50	2.00	 	 	 	 	 	 	 	 	 	 	 	 	 	 	 	 	 	 	1581486570	7.66	14.19
12/02/2020 05:49:31	120220	12022020	054931	189.48	13.145482	-57.063665	189.68	-0.120	0.350	1.340	189.54	-1.10	1.80	 	 	 	 	 	 	 	 	 	 	 	 	 	 	 	 	 	 	1581486571	7.99	14.80
12/02/2020 05:49:32	120220	12022020	054932	189.65	13.145445	-57.063673	189.78	0.110	-0.350	1.430	189.64	-1.80	1.90	 	 	 	 	 	 	 	 	 	 	 	 	 	 	 	 	 	 	1581486572	8.08	14.96
12/02/2020 05:49:33	120220	12022020	054933	189.38	13.145410	-57.063683	189.44	0.480	-1.120	1.600	189.28	-2.50	2.10	 	 	 	 	 	 	 	 	 	 	 	 	 	 	 	 	 	 	1581486573	8.00	14.82
12/02/2020 05:49:34	120220	12022020	054934	188.83	13.145373	-57.063693	188.88	0.870	-1.560	1.790	188.72	-2.90	2.30	 	 	 	 	 	 	 	 	 	 	 	 	 	 	 	 	 	 	1581486574	8.13	15.06
12/02/2020 05:49:35	120220	12022020	054935	188.30	13.145337	-57.063700	188.37	0.960	-1.340	1.900	188.22	-2.60	2.40	 	 	 	 	 	 	 	 	 	 	 	 	 	 	 	 	 	 	1581486575	8.08	14.96
12/02/2020 05:49:36	120220	12022020	054936	188.06	13.145300	-57.063707	188.21	0.630	-0.660	1.640	188.07	-1.90	2.10	 	 	 	 	 	 	 	 	 	 	 	 	 	 	 	 	 	 	1581486576	7.68	14.22
12/02/2020 05:49:37	120220	12022020	054937	188.27	13.145267	-57.063712	188.50	-0.020	0.030	1.290	188.27	-1.40	1.80	 	 	 	 	 	 	 	 	 	 	 	 	 	 	 	 	 	 	1581486577	7.41	13.72
12/02/2020 05:49:38	120220	12022020	054938	188.67	13.145232	-57.063717	188.87	-0.650	0.200	1.390	188.73	-1.20	1.90	 	 	 	 	 	 	 	 	 	 	 	 	 	 	 	 	 	 	1581486578	7.42	13.74
12/02/2020 05:49:39	120220	12022020	054939	188.84	13.145197	-57.063725	188.97	-0.880	-0.160	1.800	188.84	-1.40	2.20	 	 	 	 	 	 	 	 	 	 	 	 	 	 	 	 	 	 	1581486579	7.97	14.76
12/02/2020 05:49:40	120220	12022020	054940	188.71	13.145158	-57.063738	188.83	-0.690	-0.430	2.270	188.66	-1.80	2.80	 	 	 	 	 	 	 	 	 	 	 	 	 	 	 	 	 	 	1581486580	8.69	16.09
12/02/2020 05:49:41	120220	12022020	054941	188.46	13.145120	-57.063752	188.59	-0.420	-0.190	2.680	188.42	-1.50	3.20	 	 	 	 	 	 	 	 	 	 	 	 	 	 	 	 	 	 	1581486581	8.74	16.19
12/02/2020 05:49:42	120220	12022020	054942	188.29	13.145083	-57.063762	188.45	-0.290	0.360	2.700	188.28	-0.90	3.20	 	 	 	 	 	 	 	 	 	 	 	 	 	 	 	 	 	 	1581486582	8.18	15.15
12/02/2020 05:49:43	120220	12022020	054943	188.35	13.145048	-57.063772	188.54	-0.230	0.840	2.300	188.38	-0.50	2.70	 	 	 	 	 	 	 	 	 	 	 	 	 	 	 	 	 	 	1581486583	7.67	14.20
12/02/2020 05:49:44	120220	12022020	054944	188.57	13.145015	-57.063780	188.78	0.010	0.940	1.750	188.63	-0.50	2.20	 	 	 	 	 	 	 	 	 	 	 	 	 	 	 	 	 	 	1581486584	7.41	13.72
12/02/2020 05:49:45	120220	12022020	054945	188.86	13.144980	-57.063785	189.05	0.500	0.450	1.020	188.91	-1.00	1.40	 	 	 	 	 	 	 	 	 	 	 	 	 	 	 	 	 	 	1581486585	7.47	13.83
12/02/2020 05:49:46	120220	12022020	054946	189.01	13.144945	-57.063788	189.13	0.980	-0.660	0.440	188.99	-2.20	0.90	 	 	 	 	 	 	 	 	 	 	 	 	 	 	 	 	 	 	1581486586	7.86	14.56
12/02/2020 05:49:47	120220	12022020	054947	188.77	13.144905	-57.063792	188.82	1.110	-1.840	0.710	188.68	-3.30	1.30	 	 	 	 	 	 	 	 	 	 	 	 	 	 	 	 	 	 	1581486587	8.48	15.70
12/02/2020 05:49:48	120220	12022020	054948	188.22	13.144865	-57.063798	188.25	0.780	-2.200	1.710	188.09	-3.50	2.30	 	 	 	 	 	 	 	 	 	 	 	 	 	 	 	 	 	 	1581486588	8.76	16.22
12/02/2020 05:49:49	120220	12022020	054949	187.61	13.144827	-57.063808	187.71	0.140	-1.510	2.640	187.52	-2.70	3.20	 	 	 	 	 	 	 	 	 	 	 	 	 	 	 	 	 	 	1581486589	8.37	15.50
12/02/2020 05:49:50	120220	12022020	054950	187.39	13.144793	-57.063822	187.57	-0.570	-0.270	2.980	187.40	-1.50	3.50	 	 	 	 	 	 	 	 	 	 	 	 	 	 	 	 	 	 	1581486590	7.74	14.33
12/02/2020 05:49:51	120220	12022020	054951	187.59	13.144762	-57.063833	187.84	-1.050	0.720	2.890	187.66	-0.60	3.30	 	 	 	 	 	 	 	 	 	 	 	 	 	 	 	 	 	 	1581486591	7.29	13.50
12/02/2020 05:49:52	120220	12022020	054952	188.02	13.144728	-57.063845	188.26	-1.080	1.040	2.430	188.11	-0.30	2.80	 	 	 	 	 	 	 	 	 	 	 	 	 	 	 	 	 	 	1581486592	7.47	13.83
12/02/2020 05:49:53	120220	12022020	054953	188.50	13.144693	-57.063855	188.72	-0.620	0.760	1.670	188.58	-0.70	2.10	 	 	 	 	 	 	 	 	 	 	 	 	 	 	 	 	 	 	1581486593	7.97	14.76
12/02/2020 05:49:54	120220	12022020	054954	188.89	13.144655	-57.063862	189.08	0.080	0.210	0.850	188.96	-1.20	1.30	 	 	 	 	 	 	 	 	 	 	 	 	 	 	 	 	 	 	1581486594	8.41	15.58
12/02/2020 05:49:55	120220	12022020	054955	189.21	13.144615	-57.063865	189.39	0.590	-0.090	0.280	189.28	-1.50	0.80	 	 	 	 	 	 	 	 	 	 	 	 	 	 	 	 	 	 	1581486595	8.57	15.87
12/02/2020 05:49:56	120220	12022020	054956	189.54	13.144577	-57.063868	189.71	0.690	-0.070	0.090	189.60	-1.40	0.60	 	 	 	 	 	 	 	 	 	 	 	 	 	 	 	 	 	 	1581486596	8.19	15.17
12/02/2020 05:49:57	120220	12022020	054957	189.66	13.144542	-57.063870	189.75	0.580	-0.270	0.380	189.63	-1.70	1.00	 	 	 	 	 	 	 	 	 	 	 	 	 	 	 	 	 	 	1581486597	7.54	13.96
12/02/2020 05:49:58	120220	12022020	054958	189.26	13.144507	-57.063877	189.28	0.610	-1.100	1.220	189.11	-2.60	1.80	 	 	 	 	 	 	 	 	 	 	 	 	 	 	 	 	 	 	1581486598	7.59	14.06
12/02/2020 05:49:59	120220	12022020	054959	188.49	13.144468	-57.063887	188.51	0.660	-1.790	2.300	188.33	-3.20	2.90	 	 	 	 	 	 	 	 	 	 	 	 	 	 	 	 	 	 	1581486599	8.53	15.80
12/02/2020 05:50:00	120220	12022020	055000	187.91	13.144428	-57.063898	188.04	0.280	-1.340	3.060	187.85	-2.60	3.60	 	 	 	 	 	 	 	 	 	 	 	 	 	 	 	 	 	 	1581486600	8.96	16.59
12/02/2020 05:50:01	120220	12022020	055001	187.83	13.144393	-57.063910	188.06	-0.600	-0.020	3.230	187.87	-1.20	3.70	1015.60	25.50	25.60	20.80	20.80	-1.0	75.0	75.0	432.0	25.6	274.00	7.50	73.00	8.30	15	9658.0	27.2	27.2	1581486601	8.08	14.96
12/02/2020 05:50:02	120220	12022020	055002	188.15	13.144362	-57.063922	188.42	-1.430	1.040	2.910	188.24	-0.30	3.30	 	 	 	 	 	 	 	 	 	 	 	 	 	 	 	 	 	 	1581486602	7.08	13.11
12/02/2020 05:50:03	120220	12022020	055003	188.65	13.144330	-57.063932	188.91	-1.600	1.140	2.280	188.75	-0.30	2.70	 	 	 	 	 	 	 	 	 	 	 	 	 	 	 	 	 	 	1581486603	7.09	13.13
12/02/2020 05:50:04	120220	12022020	055004	189.20	13.144297	-57.063943	189.44	-0.980	0.450	1.520	189.30	-1.00	1.90	 	 	 	 	 	 	 	 	 	 	 	 	 	 	 	 	 	 	1581486604	7.85	14.54
12/02/2020 05:50:05	120220	12022020	055005	189.61	13.144257	-57.063953	189.79	0.100	-0.510	0.870	189.65	-2.00	1.30	 	 	 	 	 	 	 	 	 	 	 	 	 	 	 	 	 	 	1581486605	8.56	15.85
12/02/2020 05:50:06	120220	12022020	055006	189.65	13.144217	-57.063960	189.77	1.160	-1.120	0.420	189.62	-2.50	0.90	 	 	 	 	 	 	 	 	 	 	 	 	 	 	 	 	 	 	1581486606	8.82	16.33
12/02/2020 05:50:07	120220	12022020	055007	189.50	13.144177	-57.063965	189.64	1.720	-1.010	0.120	189.49	-2.30	0.60	 	 	 	 	 	 	 	 	 	 	 	 	 	 	 	 	 	 	1581486607	8.64	16.00
12/02/2020 05:50:08	120220	12022020	055008	189.47	13.144140	-57.063967	189.63	1.470	-0.280	0.140	189.49	-1.60	0.70	 	 	 	 	 	 	 	 	 	 	 	 	 	 	 	 	 	 	1581486608	8.11	15.02
12/02/2020 05:50:09	120220	12022020	055009	189.67	13.144105	-57.063967	189.88	0.470	0.570	0.590	189.75	-0.70	1.20	 	 	 	 	 	 	 	 	 	 	 	 	 	 	 	 	 	 	1581486609	7.49	13.87
12/02/2020 05:50:10	120220	12022020	055010	190.03	13.144072	-57.063972	190.26	-0.680	0.950	1.350	190.09	-0.40	1.90	 	 	 	 	 	 	 	 	 	 	 	 	 	 	 	 	 	 	1581486610	7.05	13.06
12/02/2020 05:50:11	120220	12022020	055011	190.20	13.144040	-57.063983	190.36	-1.240	0.420	2.270	190.17	-1.10	2.90	 	 	 	 	 	 	 	 	 	 	 	 	 	 	 	 	 	 	1581486611	7.35	13.61
12/02/2020 05:50:12	120220	12022020	055012	189.86	13.144005	-57.064002	189.94	-0.890	-0.910	3.170	189.72	-2.40	3.80	 	 	 	 	 	 	 	 	 	 	 	 	 	 	 	 	 	 	1581486612	8.31	15.39
12/02/2020 05:50:13	120220	12022020	055013	189.09	13.143965	-57.064018	189.14	-0.130	-2.020	3.750	188.92	-3.40	4.30	 	 	 	 	 	 	 	 	 	 	 	 	 	 	 	 	 	 	1581486613	9.31	17.24
12/02/2020 05:50:14	120220	12022020	055014	188.31	13.143923	-57.064033	188.40	0.290	-1.870	3.710	188.18	-3.10	4.10	 	 	 	 	 	 	 	 	 	 	 	 	 	 	 	 	 	 	1581486614	9.42	17.45
12/02/2020 05:50:15	120220	12022020	055015	187.80	13.143887	-57.064045	187.94	0.190	-0.610	3.060	187.80	-2.30	3.80	 	 	 	 	 	 	 	 	 	 	 	 	 	 	 	 	 	 	1581486615	8.34	15.45
12/02/2020 05:50:16	120220	12022020	055016	187.81	13.143855	-57.064052	188.03	-0.090	0.830	1.860	187.89	-0.40	2.20	 	 	 	 	 	 	 	 	 	 	 	 	 	 	 	 	 	 	1581486616	7.18	13.30
12/02/2020 05:50:17	120220	12022020	055017	188.42	13.143823	-57.064055	188.68	-0.120	1.490	0.470	188.42	0.10	1.30	 	 	 	 	 	 	 	 	 	 	 	 	 	 	 	 	 	 	1581486617	6.85	12.69
12/02/2020 05:50:18	120220	12022020	055018	189.31	13.143788	-57.064057	189.55	0.210	1.090	-0.640	189.48	-0.40	-0.20	 	 	 	 	 	 	 	 	 	 	 	 	 	 	 	 	 	 	1581486618	7.42	13.74
12/02/2020 05:50:19	120220	12022020	055019	190.13	13.143750	-57.064058	190.30	0.600	0.050	-1.060	190.24	-1.50	-0.50	 	 	 	 	 	 	 	 	 	 	 	 	 	 	 	 	 	 	1581486619	8.32	15.41
12/02/2020 05:50:20	120220	12022020	055020	190.37	13.143708	-57.064062	190.44	0.670	-1.100	-0.410	190.33	-2.60	0.30	 	 	 	 	 	 	 	 	 	 	 	 	 	 	 	 	 	 	1581486620	8.75	16.21
12/02/2020 05:50:21	120220	12022020	055021	190.02	13.143668	-57.064068	190.04	0.260	-1.750	1.060	189.91	-3.10	1.80	 	 	 	 	 	 	 	 	 	 	 	 	 	 	 	 	 	 	1581486621	8.75	16.21
12/02/2020 05:50:22	120220	12022020	055022	189.41	13.143632	-57.064082	189.44	-0.410	-1.550	2.630	189.28	-2.80	3.30	 	 	 	 	 	 	 	 	 	 	 	 	 	 	 	 	 	 	1581486622	8.53	15.80
12/02/2020 05:50:23	120220	12022020	055023	188.79	13.143597	-57.064100	188.88	-0.880	-0.820	3.710	188.69	-2.10	4.30	 	 	 	 	 	 	 	 	 	 	 	 	 	 	 	 	 	 	1581486623	8.20	15.19
12/02/2020 05:50:24	120220	12022020	055024	188.37	13.143565	-57.064118	188.50	-0.760	-0.020	3.960	188.32	-1.30	4.40	 	 	 	 	 	 	 	 	 	 	 	 	 	 	 	 	 	 	1581486624	8.00	14.82
12/02/2020 05:50:25	120220	12022020	055025	188.27	13.143532	-57.064133	188.46	-0.120	0.480	3.200	188.30	-0.80	3.50	 	 	 	 	 	 	 	 	 	 	 	 	 	 	 	 	 	 	1581486625	7.86	14.56
12/02/2020 05:50:26	120220	12022020	055026	188.56	13.143495	-57.064142	188.79	0.450	0.670	1.880	188.66	-0.70	2.20	 	 	 	 	 	 	 	 	 	 	 	 	 	 	 	 	 	 	1581486626	7.95	14.72
12/02/2020 05:50:27	120220	12022020	055027	189.12	13.143457	-57.064142	189.34	0.440	0.620	0.940	189.12	-0.70	1.60	 	 	 	 	 	 	 	 	 	 	 	 	 	 	 	 	 	 	1581486627	8.16	15.11
12/02/2020 05:50:28	120220	12022020	055028	189.58	13.143420	-57.064143	189.75	-0.020	0.350	0.830	189.63	-1.10	1.40	 	 	 	 	 	 	 	 	 	 	 	 	 	 	 	 	 	 	1581486628	8.00	14.82
12/02/2020 05:50:29	120220	12022020	055029	189.64	13.143385	-57.064152	189.77	-0.320	-0.120	1.230	189.64	-1.40	1.60	 	 	 	 	 	 	 	 	 	 	 	 	 	 	 	 	 	 	1581486629	7.79	14.43
12/02/2020 05:50:30	120220	12022020	055030	189.43	13.143350	-57.064163	189.55	-0.020	-0.580	1.650	189.40	-2.00	2.20	 	 	 	 	 	 	 	 	 	 	 	 	 	 	 	 	 	 	1581486630	7.97	14.76
12/02/2020 05:50:31	120220	12022020	055031	189.35	13.143315	-57.064177	189.50	0.660	-0.710	1.620	189.35	-2.10	2.10	 	 	 	 	 	 	 	 	 	 	 	 	 	 	 	 	 	 	1581486631	8.08	14.96
12/02/2020 05:50:32	120220	12022020	055032	189.40	13.143280	-57.064185	189.53	1.140	-0.700	1.280	189.39	-2.10	1.70	 	 	 	 	 	 	 	 	 	 	 	 	 	 	 	 	 	 	1581486632	7.73	14.32
12/02/2020 05:50:33	120220	12022020	055033	189.30	13.143245	-57.064190	189.38	0.990	-0.970	1.130	189.24	-2.40	1.70	 	 	 	 	 	 	 	 	 	 	 	 	 	 	 	 	 	 	1581486633	7.58	14.04
12/02/2020 05:50:34	120220	12022020	055034	188.96	13.143207	-57.064193	189.03	0.260	-1.300	1.540	188.88	-2.70	2.10	 	 	 	 	 	 	 	 	 	 	 	 	 	 	 	 	 	 	1581486634	8.04	14.89
12/02/2020 05:50:35	120220	12022020	055035	188.64	13.143168	-57.064202	188.78	-0.680	-0.970	2.210	188.61	-2.20	2.80	 	 	 	 	 	 	 	 	 	 	 	 	 	 	 	 	 	 	1581486635	8.44	15.63
12/02/2020 05:50:36	120220	12022020	055036	188.67	13.143133	-57.064215	188.89	-1.410	0.030	2.740	188.72	-1.20	3.30	 	 	 	 	 	 	 	 	 	 	 	 	 	 	 	 	 	 	1581486636	8.21	15.20
12/02/2020 05:50:37	120220	12022020	055037	189.06	13.143102	-57.064230	189.33	-1.590	0.880	2.750	189.16	-0.40	3.20	 	 	 	 	 	 	 	 	 	 	 	 	 	 	 	 	 	 	1581486637	7.64	14.15
12/02/2020 05:50:38	120220	12022020	055038	189.53	13.143068	-57.064245	189.75	-1.050	0.860	2.200	189.59	-0.60	2.60	 	 	 	 	 	 	 	 	 	 	 	 	 	 	 	 	 	 	1581486638	7.55	13.98
12/02/2020 05:50:39	120220	12022020	055039	189.74	13.143033	-57.064257	189.87	0.030	0.050	1.410	189.74	-1.40	1.80	 	 	 	 	 	 	 	 	 	 	 	 	 	 	 	 	 	 	1581486639	8.08	14.96
12/02/2020 05:50:40	120220	12022020	055040	189.58	13.142993	-57.064263	189.65	1.040	-0.740	0.880	189.52	-2.20	1.30	 	 	 	 	 	 	 	 	 	 	 	 	 	 	 	 	 	 	1581486640	8.82	16.33
12/02/2020 05:50:41	120220	12022020	055041	189.33	13.142952	-57.064267	189.45	1.340	-0.730	0.550	189.31	-2.00	1.00	 	 	 	 	 	 	 	 	 	 	 	 	 	 	 	 	 	 	1581486641	8.96	16.59
12/02/2020 05:50:42	120220	12022020	055042	189.37	13.142913	-57.064268	189.53	0.800	0.080	0.380	189.41	-1.20	0.90	 	 	 	 	 	 	 	 	 	 	 	 	 	 	 	 	 	 	1581486642	8.18	15.15
12/02/2020 05:50:43	120220	12022020	055043	189.55	13.142880	-57.064270	189.71	-0.040	0.750	0.620	189.58	-0.60	1.20	 	 	 	 	 	 	 	 	 	 	 	 	 	 	 	 	 	 	1581486643	7.10	13.15
12/02/2020 05:50:44	120220	12022020	055044	189.58	13.142848	-57.064278	189.73	-0.490	0.530	1.350	189.57	-0.90	1.90	 	 	 	 	 	 	 	 	 	 	 	 	 	 	 	 	 	 	1581486644	6.95	12.87
12/02/2020 05:50:45	120220	12022020	055045	189.55	13.142813	-57.064292	189.72	-0.380	-0.270	2.130	189.55	-1.70	2.70	 	 	 	 	 	 	 	 	 	 	 	 	 	 	 	 	 	 	1581486645	7.94	14.70
12/02/2020 05:50:46	120220	12022020	055046	189.58	13.142777	-57.064307	189.76	-0.050	-0.910	2.570	189.59	-2.30	3.10	 	 	 	 	 	 	 	 	 	 	 	 	 	 	 	 	 	 	1581486646	8.68	16.08
12/02/2020 05:50:47	120220	12022020	055047	189.57	13.142740	-57.064322	189.72	0.140	-1.110	2.570	189.54	-2.50	3.00	 	 	 	 	 	 	 	 	 	 	 	 	 	 	 	 	 	 	1581486647	8.52	15.78
12/02/2020 05:50:48	120220	12022020	055048	189.38	13.142705	-57.064333	189.51	0.160	-1.060	2.230	189.33	-2.40	2.70	 	 	 	 	 	 	 	 	 	 	 	 	 	 	 	 	 	 	1581486648	8.01	14.83
12/02/2020 05:50:49	120220	12022020	055049	189.19	13.142668	-57.064343	189.31	0.160	-0.790	1.630	189.16	-2.10	2.10	 	 	 	 	 	 	 	 	 	 	 	 	 	 	 	 	 	 	1581486649	7.84	14.52
12/02/2020 05:50:50	120220	12022020	055050	189.12	13.142633	-57.064348	189.25	0.200	-0.330	0.980	189.13	-1.60	1.40	 	 	 	 	 	 	 	 	 	 	 	 	 	 	 	 	 	 	1581486650	7.81	14.46
12/02/2020 05:50:51	120220	12022020	055051	189.23	13.142597	-57.064352	189.38	0.160	0.040	0.410	189.23	-1.40	1.00	 	 	 	 	 	 	 	 	 	 	 	 	 	 	 	 	 	 	1581486651	7.75	14.35
12/02/2020 05:50:52	120220	12022020	055052	189.40	13.142562	-57.064355	189.55	-0.090	0.180	0.220	189.44	-1.20	0.70	 	 	 	 	 	 	 	 	 	 	 	 	 	 	 	 	 	 	1581486652	7.89	14.61
12/02/2020 05:50:53	120220	12022020	055053	189.56	13.142523	-57.064360	189.69	-0.480	0.180	0.580	189.56	-1.20	1.00	 	 	 	 	 	 	 	 	 	 	 	 	 	 	 	 	 	 	1581486653	8.08	14.96
12/02/2020 05:50:54	120220	12022020	055054	189.48	13.142487	-57.064368	189.54	-0.650	-0.020	1.270	189.42	-1.40	1.90	 	 	 	 	 	 	 	 	 	 	 	 	 	 	 	 	 	 	1581486654	8.15	15.09
12/02/2020 05:50:55	120220	12022020	055055	189.04	13.142450	-57.064383	189.10	-0.380	-0.340	2.000	188.97	-1.70	2.60	 	 	 	 	 	 	 	 	 	 	 	 	 	 	 	 	 	 	1581486655	8.42	15.59
12/02/2020 05:50:56	120220	12022020	055056	188.76	13.142412	-57.064397	188.90	0.120	-0.230	2.230	188.75	-1.50	2.70	 	 	 	 	 	 	 	 	 	 	 	 	 	 	 	 	 	 	1581486656	8.72	16.15
12/02/2020 05:50:57	120220	12022020	055057	188.89	13.142375	-57.064408	189.08	0.380	0.190	1.990	188.95	-1.10	2.40	 	 	 	 	 	 	 	 	 	 	 	 	 	 	 	 	 	 	1581486657	8.18	15.15
12/02/2020 05:50:58	120220	12022020	055058	189.21	13.142342	-57.064415	189.40	0.230	0.390	1.660	189.27	-1.00	2.10	 	 	 	 	 	 	 	 	 	 	 	 	 	 	 	 	 	 	1581486658	7.49	13.87
12/02/2020 05:50:59	120220	12022020	055059	189.35	13.142308	-57.064422	189.45	-0.020	0.020	1.510	189.33	-1.40	2.00	 	 	 	 	 	 	 	 	 	 	 	 	 	 	 	 	 	 	1581486659	7.40	13.70
12/02/2020 05:51:00	120220	12022020	055100	189.12	13.142272	-57.064432	189.19	0.020	-0.700	1.650	189.05	-2.10	2.20	 	 	 	 	 	 	 	 	 	 	 	 	 	 	 	 	 	 	1581486660	7.89	14.61
12/02/2020 05:51:01	120220	12022020	055101	188.81	13.142235	-57.064442	188.91	0.280	-0.990	1.750	188.77	-2.30	2.30	1015.50	25.60	25.60	21.10	21.10	-1.0	76.0	76.0	430.0	25.6	272.00	7.10	71.00	8.10	15	9464.0	27.2	27.2	1581486661	8.44	15.63
12/02/2020 05:51:02	120220	12022020	055102	188.69	13.142197	-57.064452	188.82	0.440	-0.690	1.640	188.69	-2.00	2.10	 	 	 	 	 	 	 	 	 	 	 	 	 	 	 	 	 	 	1581486662	8.18	15.15
12/02/2020 05:51:03	120220	12022020	055103	188.77	13.142163	-57.064458	188.90	0.340	-0.260	1.350	188.77	-1.70	1.90	 	 	 	 	 	 	 	 	 	 	 	 	 	 	 	 	 	 	1581486663	7.61	14.09
12/02/2020 05:51:04	120220	12022020	055104	188.97	13.142128	-57.064465	189.10	0.040	-0.030	1.160	189.00	-1.40	1.70	 	 	 	 	 	 	 	 	 	 	 	 	 	 	 	 	 	 	1581486664	7.48	13.85
12/02/2020 05:51:05	120220	12022020	055105	189.04	13.142093	-57.064472	189.15	-0.210	-0.070	1.390	189.04	-1.40	1.80	 	 	 	 	 	 	 	 	 	 	 	 	 	 	 	 	 	 	1581486665	7.69	14.24
12/02/2020 05:51:06	120220	12022020	055106	188.93	13.142057	-57.064482	189.03	-0.240	-0.300	1.860	188.90	-1.70	2.40	 	 	 	 	 	 	 	 	 	 	 	 	 	 	 	 	 	 	1581486666	7.98	14.78
12/02/2020 05:51:07	120220	12022020	055107	188.76	13.142020	-57.064492	188.88	-0.140	-0.550	2.200	188.72	-1.90	2.70	 	 	 	 	 	 	 	 	 	 	 	 	 	 	 	 	 	 	1581486667	8.27	15.32
12/02/2020 05:51:08	120220	12022020	055108	188.55	13.141983	-57.064502	188.67	-0.040	-0.710	2.380	188.52	-2.10	2.90	 	 	 	 	 	 	 	 	 	 	 	 	 	 	 	 	 	 	1581486668	8.37	15.50
12/02/2020 05:51:09	120220	12022020	055109	188.36	13.141945	-57.064512	188.48	-0.050	-0.650	2.390	188.33	-2.00	2.90	 	 	 	 	 	 	 	 	 	 	 	 	 	 	 	 	 	 	1581486669	8.40	15.56
12/02/2020 05:51:10	120220	12022020	055110	188.26	13.141908	-57.064523	188.39	-0.150	-0.120	2.130	188.26	-1.40	2.60	 	 	 	 	 	 	 	 	 	 	 	 	 	 	 	 	 	 	1581486670	8.27	15.32
12/02/2020 05:51:11	120220	12022020	055111	188.32	13.141873	-57.064530	188.46	-0.250	0.610	1.630	188.35	-0.70	2.10	 	 	 	 	 	 	 	 	 	 	 	 	 	 	 	 	 	 	1581486671	7.77	14.39
12/02/2020 05:51:12	120220	12022020	055112	188.43	13.141838	-57.064537	188.56	-0.280	0.800	1.120	188.46	-0.60	1.60	 	 	 	 	 	 	 	 	 	 	 	 	 	 	 	 	 	 	1581486672	7.33	13.58
12/02/2020 05:51:13	120220	12022020	055113	188.53	13.141803	-57.064542	188.66	-0.210	0.230	0.970	188.55	-1.20	1.50	 	 	 	 	 	 	 	 	 	 	 	 	 	 	 	 	 	 	1581486673	7.66	14.19
12/02/2020 05:51:14	120220	12022020	055114	188.62	13.141765	-57.064548	188.76	-0.040	-0.560	1.230	188.64	-2.00	1.80	 	 	 	 	 	 	 	 	 	 	 	 	 	 	 	 	 	 	1581486674	8.37	15.50
12/02/2020 05:51:15	120220	12022020	055115	188.73	13.141727	-57.064558	188.86	0.170	-0.940	1.540	188.75	-2.30	2.10	 	 	 	 	 	 	 	 	 	 	 	 	 	 	 	 	 	 	1581486675	8.64	16.00
12/02/2020 05:51:16	120220	12022020	055116	188.71	13.141690	-57.064568	188.81	0.370	-0.850	1.830	188.68	-2.20	2.40	 	 	 	 	 	 	 	 	 	 	 	 	 	 	 	 	 	 	1581486676	8.26	15.30
12/02/2020 05:51:17	120220	12022020	055117	188.44	13.141655	-57.064578	188.51	0.480	-0.610	2.170	188.44	-2.00	2.60	 	 	 	 	 	 	 	 	 	 	 	 	 	 	 	 	 	 	1581486677	7.79	14.43
12/02/2020 05:51:18	120220	12022020	055118	187.96	13.141620	-57.064587	188.00	0.420	-0.410	2.460	187.85	-1.70	3.00	 	 	 	 	 	 	 	 	 	 	 	 	 	 	 	 	 	 	1581486678	7.75	14.35
12/02/2020 05:51:19	120220	12022020	055119	187.53	13.141583	-57.064595	187.63	0.160	-0.060	2.440	187.53	-1.50	3.00	 	 	 	 	 	 	 	 	 	 	 	 	 	 	 	 	 	 	1581486679	7.95	14.72
12/02/2020 05:51:20	120220	12022020	055120	187.66	13.141547	-57.064603	187.87	-0.300	0.510	1.970	187.75	-0.80	2.40	 	 	 	 	 	 	 	 	 	 	 	 	 	 	 	 	 	 	1581486680	7.94	14.70
12/02/2020 05:51:21	120220	12022020	055121	188.25	13.141513	-57.064610	188.48	-0.690	0.790	1.450	188.38	-0.60	1.90	 	 	 	 	 	 	 	 	 	 	 	 	 	 	 	 	 	 	1581486681	7.48	13.85
12/02/2020 05:51:22	120220	12022020	055122	188.80	13.141480	-57.064618	188.97	-0.650	0.290	1.100	188.87	-1.20	1.60	 	 	 	 	 	 	 	 	 	 	 	 	 	 	 	 	 	 	1581486682	7.43	13.76
12/02/2020 05:51:23	120220	12022020	055123	188.98	13.141443	-57.064627	189.07	-0.130	-0.820	1.010	188.96	-2.30	1.50	 	 	 	 	 	 	 	 	 	 	 	 	 	 	 	 	 	 	1581486683	8.10	15.00
12/02/2020 05:51:24	120220	12022020	055124	188.81	13.141402	-57.064635	188.88	0.460	-1.650	1.320	188.75	-3.00	1.90	 	 	 	 	 	 	 	 	 	 	 	 	 	 	 	 	 	 	1581486684	8.88	16.45
12/02/2020 05:51:25	120220	12022020	055125	188.57	13.141362	-57.064643	188.68	0.640	-1.510	1.650	188.54	-2.80	2.20	 	 	 	 	 	 	 	 	 	 	 	 	 	 	 	 	 	 	1581486685	8.90	16.48
12/02/2020 05:51:26	120220	12022020	055126	188.44	13.141325	-57.064652	188.56	0.340	-0.620	1.680	188.42	-1.90	2.20	 	 	 	 	 	 	 	 	 	 	 	 	 	 	 	 	 	 	1581486686	8.11	15.02
12/02/2020 05:51:27	120220	12022020	055127	188.26	13.141292	-57.064657	188.36	-0.110	0.130	1.820	188.20	-1.20	2.40	 	 	 	 	 	 	 	 	 	 	 	 	 	 	 	 	 	 	1581486687	7.34	13.59
12/02/2020 05:51:28	120220	12022020	055128	187.93	13.141257	-57.064663	188.03	-0.500	0.390	2.180	187.86	-0.90	2.70	 	 	 	 	 	 	 	 	 	 	 	 	 	 	 	 	 	 	1581486688	7.50	13.89
12/02/2020 05:51:29	120220	12022020	055129	187.73	13.141220	-57.064673	187.89	-0.810	0.560	2.390	187.72	-0.80	2.90	 	 	 	 	 	 	 	 	 	 	 	 	 	 	 	 	 	 	1581486689	8.15	15.09
12/02/2020 05:51:30	120220	12022020	055130	187.85	13.141183	-57.064685	188.06	-0.970	0.700	2.390	187.92	-0.70	2.80	 	 	 	 	 	 	 	 	 	 	 	 	 	 	 	 	 	 	1581486690	8.25	15.28
12/02/2020 05:51:31	120220	12022020	055131	188.34	13.141148	-57.064697	188.61	-0.750	0.630	1.970	188.47	-0.80	2.40	 	 	 	 	 	 	 	 	 	 	 	 	 	 	 	 	 	 	1581486691	8.09	14.98
12/02/2020 05:51:32	120220	12022020	055132	188.97	13.141113	-57.064708	189.17	-0.020	0.150	1.260	189.05	-1.30	1.70	 	 	 	 	 	 	 	 	 	 	 	 	 	 	 	 	 	 	1581486692	8.00	14.82
12/02/2020 05:51:33	120220	12022020	055133	189.18	13.141075	-57.064717	189.27	0.970	-0.700	0.750	189.16	-2.20	1.20	 	 	 	 	 	 	 	 	 	 	 	 	 	 	 	 	 	 	1581486693	8.11	15.02
12/02/2020 05:51:34	120220	12022020	055134	188.96	13.141037	-57.064722	189.02	1.510	-1.260	0.730	188.89	-2.60	1.30	 	 	 	 	 	 	 	 	 	 	 	 	 	 	 	 	 	 	1581486694	8.53	15.80
12/02/2020 05:51:35	120220	12022020	055135	188.64	13.140997	-57.064725	188.72	1.160	-1.100	0.960	188.59	-2.40	1.50	 	 	 	 	 	 	 	 	 	 	 	 	 	 	 	 	 	 	1581486695	8.45	15.65
12/02/2020 05:51:36	120220	12022020	055136	188.48	13.140962	-57.064728	188.61	0.170	-0.430	1.310	188.48	-1.70	1.90	 	 	 	 	 	 	 	 	 	 	 	 	 	 	 	 	 	 	1581486696	7.76	14.37
12/02/2020 05:51:37	120220	12022020	055137	188.57	13.140928	-57.064737	188.74	-0.770	0.120	1.750	188.61	-1.20	2.30	 	 	 	 	 	 	 	 	 	 	 	 	 	 	 	 	 	 	1581486697	7.24	13.41
12/02/2020 05:51:38	120220	12022020	055138	188.70	13.140895	-57.064748	188.86	-1.090	0.110	2.160	188.71	-1.30	2.70	 	 	 	 	 	 	 	 	 	 	 	 	 	 	 	 	 	 	1581486698	7.46	13.82
12/02/2020 05:51:39	120220	12022020	055139	188.65	13.140860	-57.064762	188.79	-0.720	-0.380	2.480	188.63	-1.80	3.00	 	 	 	 	 	 	 	 	 	 	 	 	 	 	 	 	 	 	1581486699	8.15	15.09
12/02/2020 05:51:40	120220	12022020	055140	188.52	13.140822	-57.064777	188.65	-0.090	-0.780	2.510	188.49	-2.10	3.00	 	 	 	 	 	 	 	 	 	 	 	 	 	 	 	 	 	 	1581486700	8.80	16.30
12/02/2020 05:51:41	120220	12022020	055141	188.49	13.140782	-57.064787	188.67	0.300	-0.650	2.180	188.49	-2.10	2.80	 	 	 	 	 	 	 	 	 	 	 	 	 	 	 	 	 	 	1581486701	8.81	16.32
12/02/2020 05:51:42	120220	12022020	055142	188.71	13.140745	-57.064793	188.89	0.230	0.020	1.650	188.77	-1.20	2.10	 	 	 	 	 	 	 	 	 	 	 	 	 	 	 	 	 	 	1581486702	8.26	15.30
12/02/2020 05:51:43	120220	12022020	055143	189.00	13.140710	-57.064797	189.16	-0.160	0.610	1.160	189.05	-0.70	1.60	 	 	 	 	 	 	 	 	 	 	 	 	 	 	 	 	 	 	1581486703	7.56	14.00
12/02/2020 05:51:44	120220	12022020	055144	189.15	13.140675	-57.064802	189.24	-0.440	0.500	1.040	189.14	-0.90	1.60	 	 	 	 	 	 	 	 	 	 	 	 	 	 	 	 	 	 	1581486704	7.36	13.63
12/02/2020 05:51:45	120220	12022020	055145	188.98	13.140640	-57.064808	189.04	-0.310	-0.260	1.400	188.92	-1.70	1.90	 	 	 	 	 	 	 	 	 	 	 	 	 	 	 	 	 	 	1581486705	7.94	14.70
12/02/2020 05:51:46	120220	12022020	055146	188.55	13.140600	-57.064818	188.58	0.160	-1.030	1.900	188.44	-2.40	2.40	 	 	 	 	 	 	 	 	 	 	 	 	 	 	 	 	 	 	1581486706	8.71	16.13
12/02/2020 05:51:47	120220	12022020	055147	187.95	13.140560	-57.064830	187.97	0.550	-1.210	2.290	187.83	-2.50	2.80	 	 	 	 	 	 	 	 	 	 	 	 	 	 	 	 	 	 	1581486707	8.95	16.58
12/02/2020 05:51:48	120220	12022020	055148	187.53	13.140522	-57.064840	187.63	0.480	-0.510	2.360	187.50	-1.70	2.80	 	 	 	 	 	 	 	 	 	 	 	 	 	 	 	 	 	 	1581486708	8.56	15.85
12/02/2020 05:51:49	120220	12022020	055149	187.64	13.140487	-57.064848	187.84	-0.010	0.740	2.050	187.73	-0.50	2.50	 	 	 	 	 	 	 	 	 	 	 	 	 	 	 	 	 	 	1581486709	7.69	14.24
12/02/2020 05:51:50	120220	12022020	055150	188.22	13.140455	-57.064855	188.46	-0.450	1.550	1.400	188.35	0.20	1.80	 	 	 	 	 	 	 	 	 	 	 	 	 	 	 	 	 	 	1581486710	6.81	12.61
12/02/2020 05:51:51	120220	12022020	055151	188.74	13.140425	-57.064862	188.92	-0.390	0.910	0.900	188.80	-0.60	1.40	 	 	 	 	 	 	 	 	 	 	 	 	 	 	 	 	 	 	1581486711	6.76	12.52
12/02/2020 05:51:52	120220	12022020	055152	188.94	13.140388	-57.064867	189.08	0.080	-0.760	0.890	188.96	-2.30	1.40	 	 	 	 	 	 	 	 	 	 	 	 	 	 	 	 	 	 	1581486712	8.04	14.89
12/02/2020 05:51:53	120220	12022020	055153	189.00	13.140345	-57.064875	189.14	0.510	-1.990	1.240	189.01	-3.40	1.80	 	 	 	 	 	 	 	 	 	 	 	 	 	 	 	 	 	 	1581486713	9.28	17.19
12/02/2020 05:51:54	120220	12022020	055154	189.02	13.140305	-57.064885	189.16	0.570	-1.920	1.650	189.01	-3.20	2.20	 	 	 	 	 	 	 	 	 	 	 	 	 	 	 	 	 	 	1581486714	9.09	16.83
12/02/2020 05:51:55	120220	12022020	055155	188.82	13.140268	-57.064895	188.90	0.330	-1.110	2.120	188.82	-2.70	2.50	 	 	 	 	 	 	 	 	 	 	 	 	 	 	 	 	 	 	1581486715	7.91	14.65
12/02/2020 05:51:56	120220	12022020	055156	188.27	13.140237	-57.064903	188.34	0.020	-0.370	2.590	188.15	-1.60	3.10	 	 	 	 	 	 	 	 	 	 	 	 	 	 	 	 	 	 	1581486716	7.28	13.48
12/02/2020 05:51:57	120220	12022020	055157	187.90	13.140202	-57.064912	188.07	-0.340	0.260	2.680	187.90	-1.00	3.10	 	 	 	 	 	 	 	 	 	 	 	 	 	 	 	 	 	 	1581486717	7.67	14.20
12/02/2020 05:51:58	120220	12022020	055158	188.11	13.140165	-57.064920	188.35	-0.640	0.880	2.250	188.19	-0.40	2.70	 	 	 	 	 	 	 	 	 	 	 	 	 	 	 	 	 	 	1581486718	7.96	14.74
12/02/2020 05:51:59	120220	12022020	055159	188.48	13.140130	-57.064928	188.68	-0.660	0.970	1.750	188.53	-0.40	2.20	 	 	 	 	 	 	 	 	 	 	 	 	 	 	 	 	 	 	1581486719	7.74	14.33
12/02/2020 05:52:00	120220	12022020	055200	188.61	13.140093	-57.064937	188.76	-0.290	0.270	1.480	188.61	-1.20	2.00	 	 	 	 	 	 	 	 	 	 	 	 	 	 	 	 	 	 	1581486720	7.97	14.76
12/02/2020 05:52:01	120220	12022020	055201	188.53	13.140053	-57.064943	188.64	0.170	-0.520	1.610	188.49	-1.90	2.10	1015.50	25.50	25.60	21.00	21.00	-1.0	75.0	75.0	427.0	25.6	276.00	7.00	73.00	7.80	15	9399.0	27.2	27.2	1581486721	8.71	16.13
12/02/2020 05:52:02	120220	12022020	055202	188.37	13.140013	-57.064953	188.51	0.350	-0.680	1.840	188.37	-2.00	2.30	 	 	 	 	 	 	 	 	 	 	 	 	 	 	 	 	 	 	1581486722	8.88	16.45
12/02/2020 05:52:03	120220	12022020	055203	188.45	13.139977	-57.064962	188.63	0.160	-0.130	1.780	188.50	-1.40	2.20	 	 	 	 	 	 	 	 	 	 	 	 	 	 	 	 	 	 	1581486723	8.19	15.17
12/02/2020 05:52:04	120220	12022020	055204	188.71	13.139943	-57.064970	188.89	-0.040	0.360	1.510	188.76	-1.00	2.00	 	 	 	 	 	 	 	 	 	 	 	 	 	 	 	 	 	 	1581486724	7.28	13.48
12/02/2020 05:52:05	120220	12022020	055205	188.93	13.139912	-57.064978	189.09	0.110	0.220	1.220	188.97	-1.20	1.70	 	 	 	 	 	 	 	 	 	 	 	 	 	 	 	 	 	 	1581486725	7.10	13.15
12/02/2020 05:52:06	120220	12022020	055206	188.99	13.139877	-57.064987	189.12	0.580	-0.380	0.960	188.99	-1.90	1.40	 	 	 	 	 	 	 	 	 	 	 	 	 	 	 	 	 	 	1581486726	7.70	14.26
12/02/2020 05:52:07	120220	12022020	055207	188.99	13.139838	-57.064992	189.08	0.990	-1.070	0.640	188.99	-2.30	1.20	 	 	 	 	 	 	 	 	 	 	 	 	 	 	 	 	 	 	1581486727	8.36	15.48
12/02/2020 05:52:08	120220	12022020	055208	188.95	13.139798	-57.064995	189.04	0.720	-1.300	0.810	188.92	-2.70	1.40	 	 	 	 	 	 	 	 	 	 	 	 	 	 	 	 	 	 	1581486728	8.46	15.67
12/02/2020 05:52:09	120220	12022020	055209	188.72	13.139762	-57.064998	188.80	-0.070	-1.240	1.620	188.72	-2.60	1.90	 	 	 	 	 	 	 	 	 	 	 	 	 	 	 	 	 	 	1581486729	8.14	15.08
12/02/2020 05:52:10	120220	12022020	055210	188.20	13.139725	-57.065008	188.25	-0.910	-0.990	2.800	188.08	-2.30	3.40	 	 	 	 	 	 	 	 	 	 	 	 	 	 	 	 	 	 	1581486730	8.07	14.95
12/02/2020 05:52:11	120220	12022020	055211	187.53	13.139690	-57.065025	187.63	-1.340	-0.530	3.880	187.42	-1.80	4.40	 	 	 	 	 	 	 	 	 	 	 	 	 	 	 	 	 	 	1581486731	8.43	15.61
12/02/2020 05:52:12	120220	12022020	055212	187.20	13.139653	-57.065043	187.40	-1.160	0.280	4.080	187.20	-1.00	4.50	 	 	 	 	 	 	 	 	 	 	 	 	 	 	 	 	 	 	1581486732	8.77	16.24
12/02/2020 05:52:13	120220	12022020	055213	187.37	13.139618	-57.065060	187.61	-0.550	1.080	3.270	187.45	-0.20	3.60	 	 	 	 	 	 	 	 	 	 	 	 	 	 	 	 	 	 	1581486733	8.36	15.48
12/02/2020 05:52:14	120220	12022020	055214	187.79	13.139583	-57.065070	188.01	0.210	1.310	1.920	187.88	-0.10	2.20	 	 	 	 	 	 	 	 	 	 	 	 	 	 	 	 	 	 	1581486734	7.75	14.35
12/02/2020 05:52:15	120220	12022020	055215	188.26	13.139547	-57.065072	188.46	0.800	0.840	0.550	188.36	-0.60	0.90	 	 	 	 	 	 	 	 	 	 	 	 	 	 	 	 	 	 	1581486735	7.96	14.74
12/02/2020 05:52:16	120220	12022020	055216	188.68	13.139507	-57.065070	188.82	1.050	0.120	-0.340	188.74	-1.30	0.10	 	 	 	 	 	 	 	 	 	 	 	 	 	 	 	 	 	 	1581486736	8.43	15.61
12/02/2020 05:52:17	120220	12022020	055217	188.82	13.139468	-57.065068	188.91	1.000	-0.550	-0.420	188.81	-2.10	0.20	 	 	 	 	 	 	 	 	 	 	 	 	 	 	 	 	 	 	1581486737	8.42	15.59
12/02/2020 05:52:18	120220	12022020	055218	188.74	13.139430	-57.065072	188.83	0.590	-1.170	0.270	188.72	-2.60	0.90	 	 	 	 	 	 	 	 	 	 	 	 	 	 	 	 	 	 	1581486738	8.17	15.13
12/02/2020 05:52:19	120220	12022020	055219	188.66	13.139393	-57.065078	188.78	0.070	-1.340	1.320	188.64	-2.70	2.10	 	 	 	 	 	 	 	 	 	 	 	 	 	 	 	 	 	 	1581486739	8.00	14.82
12/02/2020 05:52:20	120220	12022020	055220	188.49	13.139358	-57.065092	188.60	-0.500	-1.280	2.760	188.43	-2.60	3.40	 	 	 	 	 	 	 	 	 	 	 	 	 	 	 	 	 	 	1581486740	7.89	14.61
12/02/2020 05:52:21	120220	12022020	055221	188.05	13.139325	-57.065110	188.14	-0.590	-1.200	3.720	187.95	-2.50	4.30	 	 	 	 	 	 	 	 	 	 	 	 	 	 	 	 	 	 	1581486741	8.06	14.93
12/02/2020 05:52:22	120220	12022020	055222	187.54	13.139290	-57.065127	187.70	-0.310	-0.990	4.010	187.46	-2.20	4.50	 	 	 	 	 	 	 	 	 	 	 	 	 	 	 	 	 	 	1581486742	8.40	15.56
12/02/2020 05:52:23	120220	12022020	055223	187.24	13.139253	-57.065138	187.39	0.080	-0.280	3.670	187.22	-1.50	4.10	 	 	 	 	 	 	 	 	 	 	 	 	 	 	 	 	 	 	1581486743	8.46	15.67
12/02/2020 05:52:24	120220	12022020	055224	187.36	13.139215	-57.065147	187.58	0.140	0.570	2.670	187.43	-0.70	3.00	 	 	 	 	 	 	 	 	 	 	 	 	 	 	 	 	 	 	1581486744	8.09	14.98
12/02/2020 05:52:25	120220	12022020	055225	187.77	13.139180	-57.065148	187.99	-0.080	0.980	1.460	187.86	-0.40	1.80	 	 	 	 	 	 	 	 	 	 	 	 	 	 	 	 	 	 	1581486745	7.71	14.28
12/02/2020 05:52:26	120220	12022020	055226	188.13	13.139143	-57.065150	188.28	-0.250	0.730	0.750	188.19	-0.80	1.10	 	 	 	 	 	 	 	 	 	 	 	 	 	 	 	 	 	 	1581486746	7.86	14.56
12/02/2020 05:52:27	120220	12022020	055227	188.47	13.139105	-57.065153	188.62	-0.230	0.240	0.390	188.57	-1.20	0.80	 	 	 	 	 	 	 	 	 	 	 	 	 	 	 	 	 	 	1581486747	8.39	15.54
12/02/2020 05:52:28	120220	12022020	055228	188.99	13.139065	-57.065158	189.19	-0.030	-0.060	0.290	189.10	-1.50	0.80	 	 	 	 	 	 	 	 	 	 	 	 	 	 	 	 	 	 	1581486748	8.45	15.65
12/02/2020 05:52:29	120220	12022020	055229	189.37	13.139028	-57.065165	189.48	0.160	-0.320	0.520	189.38	-1.80	1.10	 	 	 	 	 	 	 	 	 	 	 	 	 	 	 	 	 	 	1581486749	8.01	14.83
12/02/2020 05:52:30	120220	12022020	055230	189.22	13.138993	-57.065175	189.29	0.400	-0.820	1.160	189.14	-2.30	1.80	 	 	 	 	 	 	 	 	 	 	 	 	 	 	 	 	 	 	1581486750	7.89	14.61
12/02/2020 05:52:31	120220	12022020	055231	188.68	13.138957	-57.065185	188.77	0.540	-1.230	1.980	188.68	-2.60	2.40	 	 	 	 	 	 	 	 	 	 	 	 	 	 	 	 	 	 	1581486751	8.22	15.22
12/02/2020 05:52:32	120220	12022020	055232	188.13	13.138918	-57.065195	188.25	0.330	-1.050	2.520	188.07	-2.20	3.00	 	 	 	 	 	 	 	 	 	 	 	 	 	 	 	 	 	 	1581486752	8.39	15.54
12/02/2020 05:52:33	120220	12022020	055233	188.02	13.138883	-57.065203	188.16	-0.270	-0.170	2.510	188.02	-1.70	3.00	 	 	 	 	 	 	 	 	 	 	 	 	 	 	 	 	 	 	1581486753	7.97	14.76
12/02/2020 05:52:34	120220	12022020	055234	188.28	13.138850	-57.065213	188.42	-0.830	0.680	2.110	188.35	-0.60	2.50	 	 	 	 	 	 	 	 	 	 	 	 	 	 	 	 	 	 	1581486754	7.28	13.48
12/02/2020 05:52:35	120220	12022020	055235	188.65	13.138818	-57.065225	188.80	-0.680	0.780	1.480	188.73	-0.70	1.80	 	 	 	 	 	 	 	 	 	 	 	 	 	 	 	 	 	 	1581486755	7.22	13.37
12/02/2020 05:52:36	120220	12022020	055236	189.04	13.138783	-57.065235	189.17	0.290	0.070	0.660	189.12	-1.50	1.00	 	 	 	 	 	 	 	 	 	 	 	 	 	 	 	 	 	 	1581486756	7.88	14.59
12/02/2020 05:52:37	120220	12022020	055237	189.49	13.138743	-57.065240	189.63	1.260	-0.780	0.050	189.61	-2.30	0.50	 	 	 	 	 	 	 	 	 	 	 	 	 	 	 	 	 	 	1581486757	8.73	16.17
12/02/2020 05:52:38	120220	12022020	055238	190.06	13.138702	-57.065242	190.19	1.290	-1.010	0.340	190.16	-2.30	1.00	 	 	 	 	 	 	 	 	 	 	 	 	 	 	 	 	 	 	1581486758	8.91	16.50
12/02/2020 05:52:39	120220	12022020	055239	190.38	13.138665	-57.065247	190.49	0.300	-0.640	1.370	190.38	-1.90	2.10	 	 	 	 	 	 	 	 	 	 	 	 	 	 	 	 	 	 	1581486759	8.04	14.89
12/02/2020 05:52:40	120220	12022020	055240	190.13	13.138632	-57.065258	190.24	-0.810	-0.420	2.750	190.02	-1.80	3.50	 	 	 	 	 	 	 	 	 	 	 	 	 	 	 	 	 	 	1581486760	7.41	13.72
12/02/2020 05:52:41	120220	12022020	055241	189.55	13.138598	-57.065277	189.72	-1.270	-0.410	3.940	189.44	-1.80	4.60	 	 	 	 	 	 	 	 	 	 	 	 	 	 	 	 	 	 	1581486761	7.98	14.78
12/02/2020 05:52:42	120220	12022020	055242	189.03	13.138565	-57.065297	189.21	-0.910	-0.350	4.500	188.94	-1.70	5.00	 	 	 	 	 	 	 	 	 	 	 	 	 	 	 	 	 	 	1581486762	8.60	15.93
12/02/2020 05:52:43	120220	12022020	055243	188.67	13.138528	-57.065313	188.85	-0.150	-0.080	4.190	188.67	-1.50	4.70	 	 	 	 	 	 	 	 	 	 	 	 	 	 	 	 	 	 	1581486763	8.54	15.82
12/02/2020 05:52:44	120220	12022020	055244	188.64	13.138492	-57.065325	188.81	0.410	0.300	3.050	188.67	-1.00	3.20	 	 	 	 	 	 	 	 	 	 	 	 	 	 	 	 	 	 	1581486764	8.09	14.98
12/02/2020 05:52:45	120220	12022020	055245	188.92	13.138457	-57.065328	189.08	0.470	0.540	1.550	188.92	-0.80	2.20	 	 	 	 	 	 	 	 	 	 	 	 	 	 	 	 	 	 	1581486765	7.78	14.41
12/02/2020 05:52:46	120220	12022020	055246	189.29	13.138420	-57.065328	189.40	0.310	0.470	0.340	189.36	-1.00	0.70	 	 	 	 	 	 	 	 	 	 	 	 	 	 	 	 	 	 	1581486766	7.69	14.24
12/02/2020 05:52:47	120220	12022020	055247	189.53	13.138385	-57.065330	189.62	0.300	0.010	-0.160	189.54	-1.50	0.30	 	 	 	 	 	 	 	 	 	 	 	 	 	 	 	 	 	 	1581486767	7.71	14.28
12/02/2020 05:52:48	120220	12022020	055248	189.48	13.138348	-57.065333	189.55	0.470	-0.710	-0.030	189.45	-2.20	0.60	 	 	 	 	 	 	 	 	 	 	 	 	 	 	 	 	 	 	1581486768	7.92	14.67
12/02/2020 05:52:49	120220	12022020	055249	189.31	13.138310	-57.065342	189.38	0.480	-1.220	0.570	189.27	-2.60	1.20	 	 	 	 	 	 	 	 	 	 	 	 	 	 	 	 	 	 	1581486769	8.22	15.22
12/02/2020 05:52:50	120220	12022020	055250	189.16	13.138273	-57.065352	189.27	0.080	-1.150	1.500	189.14	-2.40	2.20	 	 	 	 	 	 	 	 	 	 	 	 	 	 	 	 	 	 	1581486770	8.19	15.17
12/02/2020 05:52:51	120220	12022020	055251	189.10	13.138240	-57.065367	189.22	-0.480	-0.590	2.290	189.10	-1.80	2.90	 	 	 	 	 	 	 	 	 	 	 	 	 	 	 	 	 	 	1581486771	7.89	14.61
12/02/2020 05:52:52	120220	12022020	055252	189.12	13.138208	-57.065382	189.25	-0.750	0.070	2.580	189.13	-1.20	3.00	 	 	 	 	 	 	 	 	 	 	 	 	 	 	 	 	 	 	1581486772	7.60	14.08
12/02/2020 05:52:53	120220	12022020	055253	189.12	13.138177	-57.065395	189.23	-0.500	0.300	2.510	189.09	-1.10	3.00	 	 	 	 	 	 	 	 	 	 	 	 	 	 	 	 	 	 	1581486773	7.48	13.85
12/02/2020 05:52:54	120220	12022020	055254	188.86	13.138140	-57.065405	188.95	0.050	-0.150	2.480	188.77	-1.70	2.90	 	 	 	 	 	 	 	 	 	 	 	 	 	 	 	 	 	 	1581486774	7.82	14.48
12/02/2020 05:52:55	120220	12022020	055255	188.35	13.138102	-57.065412	188.42	0.440	-0.760	2.470	188.24	-2.20	2.90	 	 	 	 	 	 	 	 	 	 	 	 	 	 	 	 	 	 	1581486775	8.59	15.91
12/02/2020 05:52:56	120220	12022020	055256	188.00	13.138060	-57.065418	188.10	0.350	-0.600	2.280	188.00	-1.80	2.70	 	 	 	 	 	 	 	 	 	 	 	 	 	 	 	 	 	 	1581486776	8.89	16.46
12/02/2020 05:52:57	120220	12022020	055257	188.28	13.138023	-57.065425	188.44	-0.120	0.500	1.810	188.28	-1.00	2.40	 	 	 	 	 	 	 	 	 	 	 	 	 	 	 	 	 	 	1581486777	8.07	14.95
12/02/2020 05:52:58	120220	12022020	055258	189.03	13.137993	-57.065432	189.20	-0.500	1.380	1.070	189.16	0.00	1.40	 	 	 	 	 	 	 	 	 	 	 	 	 	 	 	 	 	 	1581486778	6.78	12.56
12/02/2020 05:52:59	120220	12022020	055259	189.47	13.137962	-57.065437	189.57	-0.330	0.660	0.810	189.47	-0.50	1.30	 	 	 	 	 	 	 	 	 	 	 	 	 	 	 	 	 	 	1581486779	6.63	12.28
12/02/2020 05:53:00	120220	12022020	055300	189.26	13.137925	-57.065445	189.35	0.320	-1.250	1.310	189.16	-3.00	2.00	 	 	 	 	 	 	 	 	 	 	 	 	 	 	 	 	 	 	1581486780	8.19	15.17
12/02/2020 05:53:01	120220	12022020	055301	188.59	13.137882	-57.065457	188.67	0.750	-2.510	2.350	188.42	-3.90	3.10	1015.70	25.60	25.60	21.20	21.20	-1.0	76.0	76.0	424.0	25.5	278.00	6.90	73.00	7.50	15	9580.0	27.2	27.2	1581486781	9.64	17.85
12/02/2020 05:53:02	120220	12022020	055302	187.76	13.137840	-57.065470	187.85	0.520	-2.010	3.390	187.61	-3.00	4.00	 	 	 	 	 	 	 	 	 	 	 	 	 	 	 	 	 	 	1581486782	9.29	17.21
12/02/2020 05:53:03	120220	12022020	055303	187.30	13.137807	-57.065483	187.45	-0.230	-0.200	3.800	187.30	-1.10	4.20	 	 	 	 	 	 	 	 	 	 	 	 	 	 	 	 	 	 	1581486783	7.90	14.63
12/02/2020 05:53:04	120220	12022020	055304	187.59	13.137777	-57.065495	187.79	-0.970	1.660	3.430	187.72	0.60	3.70	 	 	 	 	 	 	 	 	 	 	 	 	 	 	 	 	 	 	1581486784	6.71	12.43
12/02/2020 05:53:05	120220	12022020	055305	188.35	13.137750	-57.065505	188.55	-1.100	2.330	2.430	188.51	0.90	2.60	 	 	 	 	 	 	 	 	 	 	 	 	 	 	 	 	 	 	1581486785	6.42	11.89
12/02/2020 05:53:06	120220	12022020	055306	189.03	13.137717	-57.065513	189.19	-0.350	1.400	1.130	189.13	-0.30	1.30	 	 	 	 	 	 	 	 	 	 	 	 	 	 	 	 	 	 	1581486786	7.19	13.32
12/02/2020 05:53:07	120220	12022020	055307	189.35	13.137677	-57.065518	189.48	0.790	-0.400	0.120	189.39	-2.10	0.50	 	 	 	 	 	 	 	 	 	 	 	 	 	 	 	 	 	 	1581486787	8.54	15.82
12/02/2020 05:53:08	120220	12022020	055308	189.45	13.137633	-57.065520	189.57	1.430	-1.800	-0.040	189.45	-3.30	0.50	 	 	 	 	 	 	 	 	 	 	 	 	 	 	 	 	 	 	1581486788	9.35	17.32
12/02/2020 05:53:09	120220	12022020	055309	189.30	13.137593	-57.065523	189.40	1.100	-2.030	0.750	189.22	-3.30	1.50	 	 	 	 	 	 	 	 	 	 	 	 	 	 	 	 	 	 	1581486789	8.80	16.30
12/02/2020 05:53:10	120220	12022020	055310	188.74	13.137558	-57.065532	188.85	0.220	-1.520	2.040	188.58	-2.70	2.80	 	 	 	 	 	 	 	 	 	 	 	 	 	 	 	 	 	 	1581486790	7.62	14.11
12/02/2020 05:53:11	120220	12022020	055311	187.91	13.137527	-57.065545	188.04	-0.470	-0.980	3.210	187.91	-2.40	3.50	 	 	 	 	 	 	 	 	 	 	 	 	 	 	 	 	 	 	1581486791	7.32	13.56
12/02/2020 05:53:12	120220	12022020	055312	187.33	13.137493	-57.065560	187.50	-0.710	-0.460	3.760	187.27	-1.70	4.20	 	 	 	 	 	 	 	 	 	 	 	 	 	 	 	 	 	 	1581486792	7.91	14.65
12/02/2020 05:53:13	120220	12022020	055313	187.21	13.137458	-57.065575	187.39	-0.670	0.220	3.570	187.21	-1.00	3.90	 	 	 	 	 	 	 	 	 	 	 	 	 	 	 	 	 	 	1581486793	8.20	15.19
12/02/2020 05:53:14	120220	12022020	055314	187.30	13.137423	-57.065585	187.49	-0.620	0.680	2.970	187.34	-0.60	3.30	 	 	 	 	 	 	 	 	 	 	 	 	 	 	 	 	 	 	1581486794	7.94	14.70
12/02/2020 05:53:15	120220	12022020	055315	187.65	13.137387	-57.065593	187.85	-0.690	0.820	2.150	187.75	-0.50	2.40	 	 	 	 	 	 	 	 	 	 	 	 	 	 	 	 	 	 	1581486795	8.00	14.82
12/02/2020 05:53:16	120220	12022020	055316	188.25	13.137350	-57.065600	188.45	-0.710	0.870	1.340	188.39	-0.50	1.70	 	 	 	 	 	 	 	 	 	 	 	 	 	 	 	 	 	 	1581486796	8.08	14.96
12/02/2020 05:53:17	120220	12022020	055317	188.87	13.137313	-57.065607	189.02	-0.400	0.860	0.740	188.95	-0.60	1.10	 	 	 	 	 	 	 	 	 	 	 	 	 	 	 	 	 	 	1581486797	7.79	14.43
12/02/2020 05:53:18	120220	12022020	055318	189.09	13.137280	-57.065615	189.19	0.360	0.410	0.490	189.09	-1.10	0.90	 	 	 	 	 	 	 	 	 	 	 	 	 	 	 	 	 	 	1581486798	7.49	13.87
12/02/2020 05:53:19	120220	12022020	055319	189.07	13.137245	-57.065622	189.18	1.190	-0.310	0.360	189.08	-1.80	0.90	 	 	 	 	 	 	 	 	 	 	 	 	 	 	 	 	 	 	1581486799	7.73	14.32
12/02/2020 05:53:20	120220	12022020	055320	189.09	13.137208	-57.065627	189.20	1.520	-0.920	0.550	189.09	-2.40	1.10	 	 	 	 	 	 	 	 	 	 	 	 	 	 	 	 	 	 	1581486800	7.96	14.74
12/02/2020 05:53:21	120220	12022020	055321	189.02	13.137172	-57.065630	189.12	1.220	-1.300	1.090	189.02	-2.60	1.50	 	 	 	 	 	 	 	 	 	 	 	 	 	 	 	 	 	 	1581486801	7.74	14.33
12/02/2020 05:53:22	120220	12022020	055322	188.69	13.137137	-57.065638	188.80	0.540	-1.460	1.820	188.59	-2.80	2.50	 	 	 	 	 	 	 	 	 	 	 	 	 	 	 	 	 	 	1581486802	7.58	14.04
12/02/2020 05:53:23	120220	12022020	055323	188.14	13.137103	-57.065647	188.27	-0.160	-1.350	2.650	188.14	-2.70	3.00	 	 	 	 	 	 	 	 	 	 	 	 	 	 	 	 	 	 	1581486803	7.69	14.24
12/02/2020 05:53:24	120220	12022020	055324	187.74	13.137068	-57.065660	187.90	-0.740	-0.890	3.230	187.71	-2.10	3.80	 	 	 	 	 	 	 	 	 	 	 	 	 	 	 	 	 	 	1581486804	7.94	14.70
12/02/2020 05:53:25	120220	12022020	055325	187.72	13.137033	-57.065673	187.90	-1.090	-0.190	3.270	187.75	-1.40	3.70	 	 	 	 	 	 	 	 	 	 	 	 	 	 	 	 	 	 	1581486805	7.92	14.67
12/02/2020 05:53:26	120220	12022020	055326	187.87	13.137000	-57.065687	188.05	-1.100	0.290	2.890	187.89	-1.00	3.20	 	 	 	 	 	 	 	 	 	 	 	 	 	 	 	 	 	 	1581486806	7.75	14.35
12/02/2020 05:53:27	120220	12022020	055327	188.00	13.136965	-57.065697	188.17	-0.760	0.340	2.370	188.03	-1.00	2.70	 	 	 	 	 	 	 	 	 	 	 	 	 	 	 	 	 	 	1581486807	7.96	14.74
12/02/2020 05:53:28	120220	12022020	055328	188.23	13.136927	-57.065707	188.42	-0.260	0.300	1.750	188.31	-1.00	2.10	 	 	 	 	 	 	 	 	 	 	 	 	 	 	 	 	 	 	1581486808	8.33	15.43
12/02/2020 05:53:29	120220	12022020	055329	188.72	13.136888	-57.065713	188.91	0.130	0.530	1.030	188.83	-0.70	1.40	 	 	 	 	 	 	 	 	 	 	 	 	 	 	 	 	 	 	1581486809	8.32	15.41
12/02/2020 05:53:30	120220	12022020	055330	189.23	13.136853	-57.065717	189.40	0.320	0.860	0.450	189.31	-0.50	0.90	 	 	 	 	 	 	 	 	 	 	 	 	 	 	 	 	 	 	1581486810	7.71	14.28
12/02/2020 05:53:31	120220	12022020	055331	189.45	13.136820	-57.065720	189.58	0.480	0.680	0.220	189.44	-0.80	0.70	 	 	 	 	 	 	 	 	 	 	 	 	 	 	 	 	 	 	1581486811	7.24	13.41
12/02/2020 05:53:32	120220	12022020	055332	189.30	13.136785	-57.065725	189.40	0.680	-0.190	0.390	189.24	-1.80	1.00	 	 	 	 	 	 	 	 	 	 	 	 	 	 	 	 	 	 	1581486812	7.50	13.89
12/02/2020 05:53:33	120220	12022020	055333	188.96	13.136747	-57.065730	189.09	0.680	-1.110	0.980	188.96	-2.40	1.40	 	 	 	 	 	 	 	 	 	 	 	 	 	 	 	 	 	 	1581486813	8.16	15.11
12/02/2020 05:53:34	120220	12022020	055334	188.69	13.136710	-57.065740	188.83	0.380	-1.430	1.690	188.65	-2.80	2.30	 	 	 	 	 	 	 	 	 	 	 	 	 	 	 	 	 	 	1581486814	8.30	15.37
12/02/2020 05:53:35	120220	12022020	055335	188.48	13.136675	-57.065752	188.61	-0.040	-1.180	2.210	188.48	-2.60	2.60	 	 	 	 	 	 	 	 	 	 	 	 	 	 	 	 	 	 	1581486815	7.84	14.52
12/02/2020 05:53:36	120220	12022020	055336	188.18	13.136643	-57.065763	188.29	-0.260	-0.950	2.540	188.10	-2.30	3.10	 	 	 	 	 	 	 	 	 	 	 	 	 	 	 	 	 	 	1581486816	7.47	13.83
12/02/2020 05:53:37	120220	12022020	055337	187.78	13.136608	-57.065775	187.90	-0.200	-0.920	2.700	187.71	-2.20	3.20	 	 	 	 	 	 	 	 	 	 	 	 	 	 	 	 	 	 	1581486817	7.78	14.41
12/02/2020 05:53:38	120220	12022020	055338	187.57	13.136570	-57.065785	187.74	-0.140	-0.580	2.590	187.58	-1.80	3.00	 	 	 	 	 	 	 	 	 	 	 	 	 	 	 	 	 	 	1581486818	8.30	15.37
12/02/2020 05:53:39	120220	12022020	055339	187.80	13.136533	-57.065793	187.99	-0.320	0.360	2.220	187.89	-0.70	2.60	 	 	 	 	 	 	 	 	 	 	 	 	 	 	 	 	 	 	1581486819	8.15	15.09
12/02/2020 05:53:40	120220	12022020	055340	188.37	13.136500	-57.065800	188.56	-0.620	1.340	1.710	188.49	0.10	2.10	 	 	 	 	 	 	 	 	 	 	 	 	 	 	 	 	 	 	1581486820	7.36	13.63
12/02/2020 05:53:41	120220	12022020	055341	188.93	13.136468	-57.065807	189.11	-0.670	1.490	1.110	189.03	0.00	1.50	 	 	 	 	 	 	 	 	 	 	 	 	 	 	 	 	 	 	1581486821	6.99	12.95
12/02/2020 05:53:42	120220	12022020	055342	189.28	13.136433	-57.065813	189.41	-0.250	0.580	0.550	189.31	-1.10	1.00	 	 	 	 	 	 	 	 	 	 	 	 	 	 	 	 	 	 	1581486822	7.53	13.95
12/02/2020 05:53:43	120220	12022020	055343	189.22	13.136395	-57.065820	189.31	0.560	-0.720	0.300	189.16	-2.30	0.80	 	 	 	 	 	 	 	 	 	 	 	 	 	 	 	 	 	 	1581486823	8.42	15.59
12/02/2020 05:53:44	120220	12022020	055344	188.75	13.136355	-57.065827	188.83	1.330	-1.540	0.430	188.63	-2.90	1.00	 	 	 	 	 	 	 	 	 	 	 	 	 	 	 	 	 	 	1581486824	8.81	16.32
12/02/2020 05:53:45	120220	12022020	055345	188.22	13.136315	-57.065832	188.32	1.370	-1.470	0.820	188.22	-2.90	1.30	 	 	 	 	 	 	 	 	 	 	 	 	 	 	 	 	 	 	1581486825	8.47	15.69
12/02/2020 05:53:46	120220	12022020	055346	187.94	13.136280	-57.065835	188.07	0.520	-0.750	1.510	187.94	-1.90	2.20	 	 	 	 	 	 	 	 	 	 	 	 	 	 	 	 	 	 	1581486826	7.72	14.30
12/02/2020 05:53:47	120220	12022020	055347	188.13	13.136247	-57.065843	188.32	-0.750	0.100	2.310	188.13	-1.40	2.70	 	 	 	 	 	 	 	 	 	 	 	 	 	 	 	 	 	 	1581486827	7.20	13.33
12/02/2020 05:53:48	120220	12022020	055348	188.53	13.136217	-57.065857	188.73	-1.610	0.470	2.950	188.59	-0.90	3.50	 	 	 	 	 	 	 	 	 	 	 	 	 	 	 	 	 	 	1581486828	7.27	13.46
12/02/2020 05:53:49	120220	12022020	055349	188.69	13.136185	-57.065873	188.90	-1.500	-0.030	3.260	188.69	-1.30	3.70	 	 	 	 	 	 	 	 	 	 	 	 	 	 	 	 	 	 	1581486829	7.87	14.58
12/02/2020 05:53:50	120220	12022020	055350	188.41	13.136147	-57.065892	188.59	-0.550	-0.990	3.270	188.32	-2.50	3.70	 	 	 	 	 	 	 	 	 	 	 	 	 	 	 	 	 	 	1581486830	8.76	16.22
12/02/2020 05:53:51	120220	12022020	055351	187.94	13.136107	-57.065905	188.10	0.530	-1.300	2.890	187.88	-2.50	3.20	 	 	 	 	 	 	 	 	 	 	 	 	 	 	 	 	 	 	1581486831	9.33	17.28
12/02/2020 05:53:52	120220	12022020	055352	187.87	13.136067	-57.065913	188.05	1.020	-0.220	1.880	187.93	-1.20	2.10	 	 	 	 	 	 	 	 	 	 	 	 	 	 	 	 	 	 	1581486832	8.77	16.24
12/02/2020 05:53:53	120220	12022020	055353	188.32	13.136032	-57.065915	188.49	0.750	1.380	0.650	188.44	0.30	0.90	 	 	 	 	 	 	 	 	 	 	 	 	 	 	 	 	 	 	1581486833	7.28	13.48
12/02/2020 05:53:54	120220	12022020	055354	188.85	13.136002	-57.065912	188.98	0.200	1.870	-0.070	188.92	0.40	0.40	 	 	 	 	 	 	 	 	 	 	 	 	 	 	 	 	 	 	1581486834	6.49	12.02
12/02/2020 05:53:55	120220	12022020	055355	188.98	13.135968	-57.065910	189.07	-0.080	0.670	0.140	188.93	-1.10	0.80	 	 	 	 	 	 	 	 	 	 	 	 	 	 	 	 	 	 	1581486835	7.16	13.26
12/02/2020 05:53:56	120220	12022020	055356	188.58	13.135930	-57.065917	188.66	0.060	-1.210	1.190	188.45	-2.90	2.00	 	 	 	 	 	 	 	 	 	 	 	 	 	 	 	 	 	 	1581486836	8.62	15.96
12/02/2020 05:53:57	120220	12022020	055357	187.92	13.135887	-57.065932	188.02	0.300	-2.150	2.360	187.80	-3.50	3.00	 	 	 	 	 	 	 	 	 	 	 	 	 	 	 	 	 	 	1581486837	9.46	17.52
12/02/2020 05:53:58	120220	12022020	055358	187.42	13.135850	-57.065947	187.52	0.310	-1.670	2.900	187.35	-2.80	3.40	 	 	 	 	 	 	 	 	 	 	 	 	 	 	 	 	 	 	1581486838	8.76	16.22
12/02/2020 05:53:59	120220	12022020	055359	187.16	13.135817	-57.065957	187.27	0.060	-0.770	2.930	187.14	-2.00	3.40	 	 	 	 	 	 	 	 	 	 	 	 	 	 	 	 	 	 	1581486839	7.39	13.69
12/02/2020 05:54:00	120220	12022020	055400	187.13	13.135785	-57.065967	187.25	-0.200	-0.270	2.560	187.15	-1.60	2.90	 	 	 	 	 	 	 	 	 	 	 	 	 	 	 	 	 	 	1581486840	7.10	13.15
12/02/2020 05:54:01	120220	12022020	055401	187.26	13.135750	-57.065975	187.38	-0.310	-0.070	1.950	187.29	-1.40	2.30	1015.50	25.50	25.50	21.10	21.10	-1.0	77.0	76.0	423.0	25.5	273.00	6.80	70.00	7.80	15	9175.0	27.2	27.2	1581486841	7.65	14.17
12/02/2020 05:54:02	120220	12022020	055402	187.42	13.135713	-57.065980	187.54	-0.350	0.100	1.450	187.45	-1.20	1.90	 	 	 	 	 	 	 	 	 	 	 	 	 	 	 	 	 	 	1581486842	8.01	14.83
12/02/2020 05:54:03	120220	12022020	055403	187.52	13.135677	-57.065985	187.62	-0.350	0.180	1.170	187.52	-1.20	1.60	 	 	 	 	 	 	 	 	 	 	 	 	 	 	 	 	 	 	1581486843	8.00	14.82
12/02/2020 05:54:04	120220	12022020	055404	187.52	13.135640	-57.065992	187.61	-0.240	0.100	1.070	187.51	-1.30	1.60	 	 	 	 	 	 	 	 	 	 	 	 	 	 	 	 	 	 	1581486844	8.05	14.91
12/02/2020 05:54:05	120220	12022020	055405	187.49	13.135602	-57.065998	187.60	-0.080	0.040	1.210	187.48	-1.30	1.80	 	 	 	 	 	 	 	 	 	 	 	 	 	 	 	 	 	 	1581486845	8.22	15.22
12/02/2020 05:54:06	120220	12022020	055406	187.49	13.135565	-57.066007	187.62	0.170	0.090	1.390	187.52	-1.20	1.90	 	 	 	 	 	 	 	 	 	 	 	 	 	 	 	 	 	 	1581486846	8.16	15.11
12/02/2020 05:54:07	120220	12022020	055407	187.64	13.135528	-57.066013	187.78	0.440	0.150	1.310	187.68	-1.20	1.80	 	 	 	 	 	 	 	 	 	 	 	 	 	 	 	 	 	 	1581486847	7.97	14.76
12/02/2020 05:54:08	120220	12022020	055408	187.85	13.135492	-57.066018	187.99	0.520	-0.030	1.260	187.90	-1.40	1.80	 	 	 	 	 	 	 	 	 	 	 	 	 	 	 	 	 	 	1581486848	7.85	14.54
12/02/2020 05:54:09	120220	12022020	055409	188.13	13.135457	-57.066023	188.29	0.260	-0.300	1.550	188.20	-1.70	2.10	 	 	 	 	 	 	 	 	 	 	 	 	 	 	 	 	 	 	1581486849	7.95	14.72
12/02/2020 05:54:10	120220	12022020	055410	188.44	13.135420	-57.066032	188.61	-0.180	-0.450	1.920	188.48	-1.80	2.50	 	 	 	 	 	 	 	 	 	 	 	 	 	 	 	 	 	 	1581486850	7.89	14.61
12/02/2020 05:54:11	120220	12022020	055411	188.38	13.135387	-57.066043	188.51	-0.390	-0.760	2.360	188.38	-2.00	2.80	 	 	 	 	 	 	 	 	 	 	 	 	 	 	 	 	 	 	1581486851	7.66	14.19
12/02/2020 05:54:12	120220	12022020	055412	187.75	13.135350	-57.066055	187.88	-0.210	-1.300	2.980	187.59	-2.70	3.60	 	 	 	 	 	 	 	 	 	 	 	 	 	 	 	 	 	 	1581486852	7.96	14.74
12/02/2020 05:54:13	120220	12022020	055413	187.05	13.135313	-57.066067	187.20	0.140	-1.320	3.240	187.05	-2.70	3.70	 	 	 	 	 	 	 	 	 	 	 	 	 	 	 	 	 	 	1581486853	8.59	15.91
12/02/2020 05:54:14	120220	12022020	055414	186.81	13.135275	-57.066077	187.00	0.260	-0.420	2.860	186.84	-1.50	3.20	 	 	 	 	 	 	 	 	 	 	 	 	 	 	 	 	 	 	1581486854	8.35	15.46
12/02/2020 05:54:15	120220	12022020	055415	187.18	13.135240	-57.066082	187.39	0.020	0.690	2.070	187.30	-0.50	2.40	 	 	 	 	 	 	 	 	 	 	 	 	 	 	 	 	 	 	1581486855	7.44	13.78
12/02/2020 05:54:16	120220	12022020	055416	187.78	13.135208	-57.066085	187.97	-0.330	1.110	1.390	187.88	-0.30	1.80	 	 	 	 	 	 	 	 	 	 	 	 	 	 	 	 	 	 	1581486856	7.08	13.11
12/02/2020 05:54:17	120220	12022020	055417	188.14	13.135173	-57.066090	188.31	-0.380	0.650	1.140	188.18	-0.90	1.60	 	 	 	 	 	 	 	 	 	 	 	 	 	 	 	 	 	 	1581486857	7.61	14.09
12/02/2020 05:54:18	120220	12022020	055418	188.31	13.135135	-57.066098	188.46	-0.000	-0.090	0.960	188.36	-1.50	1.40	 	 	 	 	 	 	 	 	 	 	 	 	 	 	 	 	 	 	1581486858	8.40	15.56
12/02/2020 05:54:19	120220	12022020	055419	188.61	13.135095	-57.066107	188.76	0.450	-0.470	0.600	188.66	-1.80	1.10	 	 	 	 	 	 	 	 	 	 	 	 	 	 	 	 	 	 	1581486859	8.60	15.93
12/02/2020 05:54:20	120220	12022020	055420	188.80	13.135058	-57.066112	188.93	0.570	-0.600	0.520	188.78	-2.00	1.10	 	 	 	 	 	 	 	 	 	 	 	 	 	 	 	 	 	 	1581486860	8.04	14.89
12/02/2020 05:54:21	120220	12022020	055421	188.53	13.135023	-57.066115	188.64	0.320	-0.970	1.020	188.43	-2.40	1.70	 	 	 	 	 	 	 	 	 	 	 	 	 	 	 	 	 	 	1581486861	7.62	14.11
12/02/2020 05:54:22	120220	12022020	055422	187.90	13.134987	-57.066122	187.99	-0.130	-1.450	1.930	187.75	-2.80	2.70	 	 	 	 	 	 	 	 	 	 	 	 	 	 	 	 	 	 	1581486862	8.00	14.82
12/02/2020 05:54:23	120220	12022020	055423	187.15	13.134948	-57.066133	187.28	-0.520	-1.490	2.980	187.15	-2.90	3.40	 	 	 	 	 	 	 	 	 	 	 	 	 	 	 	 	 	 	1581486863	8.56	15.85
12/02/2020 05:54:24	120220	12022020	055424	186.69	13.134912	-57.066150	186.87	-0.720	-0.690	3.540	186.66	-1.70	4.00	 	 	 	 	 	 	 	 	 	 	 	 	 	 	 	 	 	 	1581486864	8.67	16.06
12/02/2020 05:54:25	120220	12022020	055425	186.75	13.134877	-57.066165	186.95	-0.750	0.720	3.310	186.75	-0.80	3.90	 	 	 	 	 	 	 	 	 	 	 	 	 	 	 	 	 	 	1581486865	8.06	14.93
12/02/2020 05:54:26	120220	12022020	055426	187.21	13.134845	-57.066175	187.42	-0.560	1.770	2.430	187.33	0.50	2.70	 	 	 	 	 	 	 	 	 	 	 	 	 	 	 	 	 	 	1581486866	7.12	13.19
12/02/2020 05:54:27	120220	12022020	055427	187.76	13.134813	-57.066180	187.93	-0.020	1.480	1.320	187.83	-0.10	1.60	 	 	 	 	 	 	 	 	 	 	 	 	 	 	 	 	 	 	1581486867	7.04	13.04
12/02/2020 05:54:28	120220	12022020	055428	188.07	13.134775	-57.066182	188.22	0.730	0.030	0.570	188.09	-1.70	1.00	 	 	 	 	 	 	 	 	 	 	 	 	 	 	 	 	 	 	1581486868	8.18	15.15
12/02/2020 05:54:29	120220	12022020	055429	188.11	13.134732	-57.066183	188.25	1.110	-1.250	0.560	188.11	-2.70	1.20	 	 	 	 	 	 	 	 	 	 	 	 	 	 	 	 	 	 	1581486869	9.27	17.17
12/02/2020 05:54:30	120220	12022020	055430	188.15	13.134690	-57.066187	188.30	0.760	-1.390	1.120	188.16	-2.60	1.80	 	 	 	 	 	 	 	 	 	 	 	 	 	 	 	 	 	 	1581486870	8.96	16.59
12/02/2020 05:54:31	120220	12022020	055431	188.26	13.134655	-57.066195	188.41	-0.020	-0.700	1.790	188.28	-1.90	2.40	 	 	 	 	 	 	 	 	 	 	 	 	 	 	 	 	 	 	1581486871	7.67	14.20
12/02/2020 05:54:32	120220	12022020	055432	188.34	13.134625	-57.066207	188.50	-0.530	-0.220	2.240	188.33	-1.60	2.80	 	 	 	 	 	 	 	 	 	 	 	 	 	 	 	 	 	 	1581486872	6.93	12.83
12/02/2020 05:54:33	120220	12022020	055433	188.21	13.134593	-57.066218	188.37	-0.410	-0.480	2.450	188.16	-1.90	3.00	 	 	 	 	 	 	 	 	 	 	 	 	 	 	 	 	 	 	1581486873	7.29	13.50
12/02/2020 05:54:34	120220	12022020	055434	187.93	13.134557	-57.066228	188.07	-0.000	-0.890	2.480	187.87	-2.30	3.00	 	 	 	 	 	 	 	 	 	 	 	 	 	 	 	 	 	 	1581486874	8.28	15.33
12/02/2020 05:54:35	120220	12022020	055435	187.69	13.134517	-57.066238	187.84	0.130	-0.680	2.280	187.66	-1.90	2.70	 	 	 	 	 	 	 	 	 	 	 	 	 	 	 	 	 	 	1581486875	8.65	16.02
12/02/2020 05:54:36	120220	12022020	055436	187.64	13.134480	-57.066243	187.81	-0.150	0.060	1.890	187.66	-1.10	2.30	 	 	 	 	 	 	 	 	 	 	 	 	 	 	 	 	 	 	1581486876	8.11	15.02
12/02/2020 05:54:37	120220	12022020	055437	187.86	13.134445	-57.066250	188.02	-0.530	0.630	1.390	187.86	-0.80	2.00	 	 	 	 	 	 	 	 	 	 	 	 	 	 	 	 	 	 	1581486877	7.53	13.95
12/02/2020 05:54:38	120220	12022020	055438	188.26	13.134410	-57.066255	188.43	-0.620	0.680	0.910	188.36	-0.70	1.30	 	 	 	 	 	 	 	 	 	 	 	 	 	 	 	 	 	 	1581486878	7.61	14.09
12/02/2020 05:54:39	120220	12022020	055439	188.78	13.134373	-57.066262	188.93	-0.270	0.370	0.530	188.78	-0.90	1.10	 	 	 	 	 	 	 	 	 	 	 	 	 	 	 	 	 	 	1581486879	8.02	14.85
12/02/2020 05:54:40	120220	12022020	055440	189.24	13.134337	-57.066268	189.37	0.280	-0.060	0.210	189.30	-1.50	0.70	 	 	 	 	 	 	 	 	 	 	 	 	 	 	 	 	 	 	1581486880	8.23	15.24
12/02/2020 05:54:41	120220	12022020	055441	189.41	13.134298	-57.066275	189.51	0.620	-0.520	0.290	189.39	-2.00	0.90	 	 	 	 	 	 	 	 	 	 	 	 	 	 	 	 	 	 	1581486881	8.15	15.09
12/02/2020 05:54:42	120220	12022020	055442	189.13	13.134262	-57.066282	189.24	0.570	-0.910	1.040	189.02	-2.30	1.80	 	 	 	 	 	 	 	 	 	 	 	 	 	 	 	 	 	 	1581486882	8.07	14.95
12/02/2020 05:54:43	120220	12022020	055443	188.51	13.134225	-57.066290	188.64	0.240	-1.080	2.040	188.38	-2.40	2.70	 	 	 	 	 	 	 	 	 	 	 	 	 	 	 	 	 	 	1581486883	8.05	14.91
12/02/2020 05:54:44	120220	12022020	055444	187.98	13.134188	-57.066302	188.14	-0.120	-0.810	2.680	187.91	-2.00	3.30	 	 	 	 	 	 	 	 	 	 	 	 	 	 	 	 	 	 	1581486884	8.13	15.06
12/02/2020 05:54:45	120220	12022020	055445	187.79	13.134153	-57.066313	187.97	-0.320	-0.200	2.910	187.78	-1.40	3.40	 	 	 	 	 	 	 	 	 	 	 	 	 	 	 	 	 	 	1581486885	7.92	14.67
12/02/2020 05:54:46	120220	12022020	055446	187.86	13.134120	-57.066325	188.06	-0.300	0.270	2.640	187.88	-1.00	3.00	 	 	 	 	 	 	 	 	 	 	 	 	 	 	 	 	 	 	1581486886	7.65	14.17
12/02/2020 05:54:47	120220	12022020	055447	188.05	13.134085	-57.066332	188.25	-0.160	0.250	1.960	188.11	-1.10	2.30	 	 	 	 	 	 	 	 	 	 	 	 	 	 	 	 	 	 	1581486887	7.73	14.32
12/02/2020 05:54:48	120220	12022020	055448	188.47	13.134047	-57.066338	188.67	-0.120	0.020	1.280	188.58	-1.40	1.70	 	 	 	 	 	 	 	 	 	 	 	 	 	 	 	 	 	 	1581486888	8.19	15.17
12/02/2020 05:54:49	120220	12022020	055449	188.98	13.134010	-57.066345	189.16	-0.150	-0.090	0.880	189.06	-1.50	1.40	 	 	 	 	 	 	 	 	 	 	 	 	 	 	 	 	 	 	1581486889	8.23	15.24
12/02/2020 05:54:50	120220	12022020	055450	189.17	13.133973	-57.066350	189.30	-0.070	-0.260	0.880	189.14	-1.70	1.50	 	 	 	 	 	 	 	 	 	 	 	 	 	 	 	 	 	 	1581486890	7.88	14.59
12/02/2020 05:54:51	120220	12022020	055451	188.85	13.133937	-57.066358	188.98	0.170	-0.620	1.390	188.74	-2.00	2.10	 	 	 	 	 	 	 	 	 	 	 	 	 	 	 	 	 	 	1581486891	7.88	14.59
12/02/2020 05:54:52	120220	12022020	055452	188.23	13.133900	-57.066367	188.38	0.390	-0.890	2.090	188.13	-2.20	2.70	 	 	 	 	 	 	 	 	 	 	 	 	 	 	 	 	 	 	1581486892	8.25	15.28
12/02/2020 05:54:53	120220	12022020	055453	187.89	13.133862	-57.066377	188.07	0.370	-0.510	2.390	187.90	-1.60	2.90	 	 	 	 	 	 	 	 	 	 	 	 	 	 	 	 	 	 	1581486893	8.46	15.67
12/02/2020 05:54:54	120220	12022020	055454	188.14	13.133827	-57.066385	188.33	0.090	0.470	2.180	188.24	-0.70	2.60	 	 	 	 	 	 	 	 	 	 	 	 	 	 	 	 	 	 	1581486894	7.85	14.54
12/02/2020 05:54:55	120220	12022020	055455	188.65	13.133795	-57.066392	188.85	-0.210	1.040	1.790	188.75	-0.30	2.20	 	 	 	 	 	 	 	 	 	 	 	 	 	 	 	 	 	 	1581486895	7.04	13.04
12/02/2020 05:54:56	120220	12022020	055456	189.03	13.133762	-57.066398	189.19	-0.270	0.580	1.470	189.07	-1.00	1.90	 	 	 	 	 	 	 	 	 	 	 	 	 	 	 	 	 	 	1581486896	7.16	13.26
12/02/2020 05:54:57	120220	12022020	055457	189.15	13.133725	-57.066405	189.31	-0.060	-0.460	1.430	189.14	-2.00	2.00	 	 	 	 	 	 	 	 	 	 	 	 	 	 	 	 	 	 	1581486897	8.08	14.96
12/02/2020 05:54:58	120220	12022020	055458	189.01	13.133685	-57.066415	189.15	0.240	-1.310	1.580	188.95	-2.80	2.10	 	 	 	 	 	 	 	 	 	 	 	 	 	 	 	 	 	 	1581486898	8.63	15.98
12/02/2020 05:54:59	120220	12022020	055459	188.67	13.133647	-57.066425	188.80	0.470	-1.650	1.680	188.59	-3.00	2.20	 	 	 	 	 	 	 	 	 	 	 	 	 	 	 	 	 	 	1581486899	8.52	15.78
12/02/2020 05:55:00	120220	12022020	055500	188.23	13.133610	-57.066433	188.36	0.470	-1.520	1.860	188.14	-2.70	2.40	 	 	 	 	 	 	 	 	 	 	 	 	 	 	 	 	 	 	1581486900	8.22	15.22
12/02/2020 05:55:01	120220	12022020	055501	187.84	13.133573	-57.066440	187.99	0.060	-0.850	2.160	187.84	-2.30	2.60	1015.60	25.60	25.60	21.30	21.30	-1.0	77.0	77.0	428.0	25.5	279.00	7.40	76.00	7.90	15	9433.0	27.2	27.2	1581486901	8.09	14.98
12/02/2020 05:55:02	120220	12022020	055502	187.82	13.133538	-57.066448	188.02	-0.640	0.350	2.200	187.88	-0.70	2.70	 	 	 	 	 	 	 	 	 	 	 	 	 	 	 	 	 	 	1581486902	7.86	14.56
12/02/2020 05:55:03	120220	12022020	055503	188.26	13.133505	-57.066458	188.48	-1.190	1.480	1.870	188.39	0.30	2.30	 	 	 	 	 	 	 	 	 	 	 	 	 	 	 	 	 	 	1581486903	7.35	13.61
12/02/2020 05:55:04	120220	12022020	055504	188.88	13.133472	-57.066467	189.08	-1.040	1.560	1.410	188.99	0.10	1.80	 	 	 	 	 	 	 	 	 	 	 	 	 	 	 	 	 	 	1581486904	7.20	13.33
12/02/2020 05:55:05	120220	12022020	055505	189.33	13.133437	-57.066475	189.50	-0.110	0.510	0.930	189.39	-1.10	1.30	 	 	 	 	 	 	 	 	 	 	 	 	 	 	 	 	 	 	1581486905	8.00	14.82
12/02/2020 05:55:06	120220	12022020	055506	189.59	13.133395	-57.066483	189.75	0.930	-0.600	0.570	189.63	-2.10	1.10	 	 	 	 	 	 	 	 	 	 	 	 	 	 	 	 	 	 	1581486906	9.01	16.69
12/02/2020 05:55:07	120220	12022020	055507	189.74	13.133353	-57.066488	189.91	1.330	-0.830	0.520	189.75	-2.10	1.10	 	 	 	 	 	 	 	 	 	 	 	 	 	 	 	 	 	 	1581486907	8.95	16.58
12/02/2020 05:55:08	120220	12022020	055508	189.75	13.133317	-57.066492	189.90	0.930	-0.420	0.780	189.71	-1.70	1.40	 	 	 	 	 	 	 	 	 	 	 	 	 	 	 	 	 	 	1581486908	7.79	14.43
12/02/2020 05:55:09	120220	12022020	055509	189.47	13.133285	-57.066497	189.62	0.190	-0.370	1.450	189.36	-1.80	2.20	 	 	 	 	 	 	 	 	 	 	 	 	 	 	 	 	 	 	1581486909	6.97	12.91
12/02/2020 05:55:10	120220	12022020	055510	188.80	13.133252	-57.066505	188.95	-0.350	-1.060	2.520	188.64	-2.60	3.30	 	 	 	 	 	 	 	 	 	 	 	 	 	 	 	 	 	 	1581486910	7.47	13.83
12/02/2020 05:55:11	120220	12022020	055511	187.97	13.133213	-57.066520	188.13	-0.570	-1.720	3.560	187.82	-3.10	4.20	 	 	 	 	 	 	 	 	 	 	 	 	 	 	 	 	 	 	1581486911	8.75	16.21
12/02/2020 05:55:12	120220	12022020	055512	187.38	13.133173	-57.066537	187.57	-0.610	-1.330	3.970	187.34	-2.40	4.40	 	 	 	 	 	 	 	 	 	 	 	 	 	 	 	 	 	 	1581486912	9.27	17.17
12/02/2020 05:55:13	120220	12022020	055513	187.46	13.133138	-57.066553	187.68	-0.620	0.130	3.470	187.57	-0.80	3.70	 	 	 	 	 	 	 	 	 	 	 	 	 	 	 	 	 	 	1581486913	8.42	15.59
12/02/2020 05:55:14	120220	12022020	055514	188.14	13.133107	-57.066563	188.38	-0.550	1.460	2.220	188.32	0.30	2.40	 	 	 	 	 	 	 	 	 	 	 	 	 	 	 	 	 	 	1581486914	7.03	13.02
12/02/2020 05:55:15	120220	12022020	055515	189.04	13.133075	-57.066568	189.27	-0.190	1.480	0.710	189.04	0.20	1.40	 	 	 	 	 	 	 	 	 	 	 	 	 	 	 	 	 	 	1581486915	6.79	12.58
12/02/2020 05:55:16	120220	12022020	055516	189.92	13.133038	-57.066568	190.11	0.380	0.470	-0.550	190.07	-1.10	-0.20	 	 	 	 	 	 	 	 	 	 	 	 	 	 	 	 	 	 	1581486916	7.95	14.72
12/02/2020 05:55:17	120220	12022020	055517	190.47	13.132997	-57.066568	190.59	0.820	-0.610	-1.010	190.51	-2.10	-0.40	 	 	 	 	 	 	 	 	 	 	 	 	 	 	 	 	 	 	1581486917	8.88	16.45
12/02/2020 05:55:18	120220	12022020	055518	190.38	13.132957	-57.066572	190.48	0.910	-1.290	-0.490	190.30	-2.70	0.30	 	 	 	 	 	 	 	 	 	 	 	 	 	 	 	 	 	 	1581486918	8.70	16.11
12/02/2020 05:55:19	120220	12022020	055519	189.83	13.132918	-57.066577	189.93	0.630	-1.440	0.710	189.70	-2.70	1.50	 	 	 	 	 	 	 	 	 	 	 	 	 	 	 	 	 	 	1581486919	8.22	15.22
12/02/2020 05:55:20	120220	12022020	055520	189.24	13.132883	-57.066585	189.38	0.040	-1.050	2.090	189.14	-2.20	2.90	 	 	 	 	 	 	 	 	 	 	 	 	 	 	 	 	 	 	1581486920	7.93	14.69
12/02/2020 05:55:21	120220	12022020	055521	188.83	13.132850	-57.066598	189.00	-0.650	-0.370	3.220	188.76	-1.50	3.90	 	 	 	 	 	 	 	 	 	 	 	 	 	 	 	 	 	 	1581486921	7.76	14.37
12/02/2020 05:55:22	120220	12022020	055522	188.60	13.132817	-57.066615	188.80	-1.100	0.200	3.720	188.58	-1.00	4.20	 	 	 	 	 	 	 	 	 	 	 	 	 	 	 	 	 	 	1581486922	7.78	14.41
12/02/2020 05:55:23	120220	12022020	055523	188.54	13.132783	-57.066632	188.74	-1.050	0.400	3.530	188.54	-0.90	3.90	 	 	 	 	 	 	 	 	 	 	 	 	 	 	 	 	 	 	1581486923	7.97	14.76
12/02/2020 05:55:24	120220	12022020	055524	188.58	13.132748	-57.066647	188.80	-0.440	0.200	2.700	188.63	-1.20	2.90	 	 	 	 	 	 	 	 	 	 	 	 	 	 	 	 	 	 	1581486924	8.23	15.24
12/02/2020 05:55:25	120220	12022020	055525	189.08	13.132710	-57.066655	189.30	0.380	0.120	1.080	189.25	-1.20	1.20	 	 	 	 	 	 	 	 	 	 	 	 	 	 	 	 	 	 	1581486925	8.44	15.63
12/02/2020 05:55:26	120220	12022020	055526	190.03	13.132672	-57.066658	190.25	0.810	0.310	-0.510	190.22	-1.00	-0.20	 	 	 	 	 	 	 	 	 	 	 	 	 	 	 	 	 	 	1581486926	8.13	15.06
12/02/2020 05:55:27	120220	12022020	055527	190.78	13.132637	-57.066655	190.94	0.660	0.180	-1.030	190.78	-1.10	-0.50	 	 	 	 	 	 	 	 	 	 	 	 	 	 	 	 	 	 	1581486927	7.64	14.15
12/02/2020 05:55:28	120220	12022020	055528	190.71	13.132602	-57.066658	190.82	0.350	-0.620	-0.370	190.59	-2.20	0.40	 	 	 	 	 	 	 	 	 	 	 	 	 	 	 	 	 	 	1581486928	7.54	13.96
12/02/2020 05:55:29	120220	12022020	055529	189.84	13.132565	-57.066668	189.94	0.290	-1.460	1.030	189.84	-2.70	1.30	 	 	 	 	 	 	 	 	 	 	 	 	 	 	 	 	 	 	1581486929	8.25	15.28
12/02/2020 05:55:30	120220	12022020	055530	189.00	13.132527	-57.066683	189.17	0.360	-1.280	2.270	188.94	-2.40	2.90	 	 	 	 	 	 	 	 	 	 	 	 	 	 	 	 	 	 	1581486930	8.75	16.21
12/02/2020 05:55:31	120220	12022020	055531	189.00	13.132492	-57.066697	189.22	0.190	0.050	2.580	189.08	-1.00	3.00	 	 	 	 	 	 	 	 	 	 	 	 	 	 	 	 	 	 	1581486931	8.05	14.91
12/02/2020 05:55:32	120220	12022020	055532	189.51	13.132463	-57.066707	189.73	-0.270	1.120	2.350	189.60	-0.20	2.80	 	 	 	 	 	 	 	 	 	 	 	 	 	 	 	 	 	 	1581486932	6.61	12.24
12/02/2020 05:55:33	120220	12022020	055533	189.77	13.132433	-57.066715	189.96	-0.560	0.720	2.310	189.76	-0.90	2.80	 	 	 	 	 	 	 	 	 	 	 	 	 	 	 	 	 	 	1581486933	6.55	12.13
12/02/2020 05:55:34	120220	12022020	055534	189.52	13.132398	-57.066725	189.70	-0.400	-0.670	2.620	189.43	-2.30	3.20	 	 	 	 	 	 	 	 	 	 	 	 	 	 	 	 	 	 	1581486934	7.99	14.80
12/02/2020 05:55:35	120220	12022020	055535	189.09	13.132357	-57.066738	189.27	-0.000	-1.620	2.880	189.02	-3.00	3.40	 	 	 	 	 	 	 	 	 	 	 	 	 	 	 	 	 	 	1581486935	9.18	17.00
12/02/2020 05:55:36	120220	12022020	055536	188.85	13.132317	-57.066750	189.04	0.240	-1.470	2.790	188.82	-2.60	3.20	 	 	 	 	 	 	 	 	 	 	 	 	 	 	 	 	 	 	1581486936	8.90	16.48
12/02/2020 05:55:37	120220	12022020	055537	188.76	13.132282	-57.066760	188.94	0.190	-0.650	2.410	188.76	-2.10	3.00	 	 	 	 	 	 	 	 	 	 	 	 	 	 	 	 	 	 	1581486937	7.78	14.41
12/02/2020 05:55:38	120220	12022020	055538	188.66	13.132250	-57.066767	188.83	0.020	0.080	1.930	188.65	-1.20	2.30	 	 	 	 	 	 	 	 	 	 	 	 	 	 	 	 	 	 	1581486938	7.15	13.24
12/02/2020 05:55:39	120220	12022020	055539	188.65	13.132217	-57.066773	188.82	-0.130	0.470	1.420	188.67	-0.80	1.80	 	 	 	 	 	 	 	 	 	 	 	 	 	 	 	 	 	 	1581486939	7.38	13.67
12/02/2020 05:55:40	120220	12022020	055540	188.78	13.132180	-57.066778	188.93	-0.160	0.650	0.980	188.81	-0.70	1.40	 	 	 	 	 	 	 	 	 	 	 	 	 	 	 	 	 	 	1581486940	7.71	14.28
12/02/2020 05:55:41	120220	12022020	055541	188.89	13.132145	-57.066785	189.03	-0.030	0.560	0.780	188.89	-0.70	1.30	 	 	 	 	 	 	 	 	 	 	 	 	 	 	 	 	 	 	1581486941	7.82	14.48
12/02/2020 05:55:42	120220	12022020	055542	188.91	13.132108	-57.066790	189.02	0.150	0.090	0.930	188.89	-1.40	1.50	 	 	 	 	 	 	 	 	 	 	 	 	 	 	 	 	 	 	1581486942	7.93	14.69
12/02/2020 05:55:43	120220	12022020	055543	188.83	13.132070	-57.066798	188.97	0.170	-0.460	1.540	188.83	-1.90	2.20	 	 	 	 	 	 	 	 	 	 	 	 	 	 	 	 	 	 	1581486943	8.22	15.22
12/02/2020 05:55:44	120220	12022020	055544	188.99	13.132033	-57.066808	189.18	-0.060	-0.520	2.400	189.06	-1.80	3.10	 	 	 	 	 	 	 	 	 	 	 	 	 	 	 	 	 	 	1581486944	8.34	15.45
12/02/2020 05:55:45	120220	12022020	055545	189.45	13.132000	-57.066823	189.66	-0.310	-0.070	2.900	189.56	-1.30	3.40	 	 	 	 	 	 	 	 	 	 	 	 	 	 	 	 	 	 	1581486945	7.85	14.54
12/02/2020 05:55:46	120220	12022020	055546	189.85	13.131970	-57.066838	190.04	-0.150	0.090	2.750	189.88	-1.30	3.20	 	 	 	 	 	 	 	 	 	 	 	 	 	 	 	 	 	 	1581486946	7.16	13.26
12/02/2020 05:55:47	120220	12022020	055547	189.91	13.131938	-57.066848	190.06	0.430	-0.390	2.260	189.89	-1.90	2.70	 	 	 	 	 	 	 	 	 	 	 	 	 	 	 	 	 	 	1581486947	7.18	13.30
12/02/2020 05:55:48	120220	12022020	055548	189.76	13.131902	-57.066855	189.91	0.920	-1.040	1.760	189.72	-2.50	2.20	 	 	 	 	 	 	 	 	 	 	 	 	 	 	 	 	 	 	1581486948	7.93	14.69
12/02/2020 05:55:49	120220	12022020	055549	189.47	13.131863	-57.066858	189.58	0.900	-1.420	1.400	189.38	-2.80	1.90	 	 	 	 	 	 	 	 	 	 	 	 	 	 	 	 	 	 	1581486949	8.30	15.37
12/02/2020 05:55:50	120220	12022020	055550	188.97	13.131825	-57.066860	189.09	0.380	-1.370	1.470	188.87	-2.60	2.10	 	 	 	 	 	 	 	 	 	 	 	 	 	 	 	 	 	 	1581486950	8.26	15.30
12/02/2020 05:55:51	120220	12022020	055551	188.54	13.131788	-57.066867	188.70	-0.350	-0.750	1.930	188.54	-2.20	2.40	 	 	 	 	 	 	 	 	 	 	 	 	 	 	 	 	 	 	1581486951	8.11	15.02
12/02/2020 05:55:52	120220	12022020	055552	188.50	13.131753	-57.066878	188.68	-0.950	0.380	2.210	188.55	-0.70	2.70	 	 	 	 	 	 	 	 	 	 	 	 	 	 	 	 	 	 	1581486952	7.90	14.63
12/02/2020 05:55:53	120220	12022020	055553	188.94	13.131720	-57.066892	189.17	-1.230	1.410	2.040	188.94	-0.00	2.60	 	 	 	 	 	 	 	 	 	 	 	 	 	 	 	 	 	 	1581486953	7.50	13.89
12/02/2020 05:55:54	120220	12022020	055554	189.66	13.131688	-57.066903	189.88	-1.060	1.660	1.560	189.80	0.20	1.90	 	 	 	 	 	 	 	 	 	 	 	 	 	 	 	 	 	 	1581486954	7.29	13.50
12/02/2020 05:55:55	120220	12022020	055555	190.25	13.131655	-57.066913	190.44	-0.470	0.890	1.010	190.32	-0.80	1.40	 	 	 	 	 	 	 	 	 	 	 	 	 	 	 	 	 	 	1581486955	7.62	14.11
12/02/2020 05:55:56	120220	12022020	055556	190.37	13.131617	-57.066922	190.52	0.310	-0.570	0.750	190.34	-2.20	1.30	 	 	 	 	 	 	 	 	 	 	 	 	 	 	 	 	 	 	1581486956	8.34	15.45
12/02/2020 05:55:57	120220	12022020	055557	190.09	13.131575	-57.066930	190.22	0.890	-1.690	0.880	190.02	-3.10	1.50	 	 	 	 	 	 	 	 	 	 	 	 	 	 	 	 	 	 	1581486957	8.95	16.58
12/02/2020 05:55:58	120220	12022020	055558	189.72	13.131537	-57.066938	189.85	1.030	-1.600	1.100	189.65	-2.80	1.60	 	 	 	 	 	 	 	 	 	 	 	 	 	 	 	 	 	 	1581486958	8.67	16.06
12/02/2020 05:55:59	120220	12022020	055559	189.48	13.131502	-57.066945	189.61	0.790	-0.630	1.070	189.45	-1.70	1.60	 	 	 	 	 	 	 	 	 	 	 	 	 	 	 	 	 	 	1581486959	7.55	13.98
12/02/2020 05:56:00	120220	12022020	055600	189.37	13.131470	-57.066950	189.49	0.370	0.140	0.910	189.35	-1.10	1.40	 	 	 	 	 	 	 	 	 	 	 	 	 	 	 	 	 	 	1581486960	6.77	12.54
12/02/2020 05:56:01	120220	12022020	055601	189.24	13.131438	-57.066955	189.34	-0.050	0.230	0.990	189.22	-1.10	1.60	1015.50	25.70	25.80	21.50	21.50	-1.0	77.0	77.0	433.0	25.5	272.00	7.60	72.00	8.50	15	8994.0	27.2	27.2	1581486961	7.10	13.15
12/02/2020 05:56:02	120220	12022020	055602	189.27	13.131402	-57.066962	189.42	-0.500	0.080	1.350	189.31	-1.30	2.00	 	 	 	 	 	 	 	 	 	 	 	 	 	 	 	 	 	 	1581486962	7.93	14.69
12/02/2020 05:56:03	120220	12022020	055603	189.50	13.131365	-57.066973	189.65	-0.910	-0.000	1.900	189.53	-1.40	2.50	 	 	 	 	 	 	 	 	 	 	 	 	 	 	 	 	 	 	1581486963	8.19	15.17
12/02/2020 05:56:04	120220	12022020	055604	189.50	13.131330	-57.066987	189.65	-1.030	-0.210	2.480	189.45	-1.60	3.10	 	 	 	 	 	 	 	 	 	 	 	 	 	 	 	 	 	 	1581486964	8.08	14.96
12/02/2020 05:56:05	120220	12022020	055605	189.10	13.131295	-57.067003	189.25	-0.590	-0.690	2.970	189.10	-1.90	3.40	 	 	 	 	 	 	 	 	 	 	 	 	 	 	 	 	 	 	1581486965	8.25	15.28
12/02/2020 05:56:06	120220	12022020	055606	188.46	13.131258	-57.067018	188.59	0.260	-1.050	3.150	188.34	-2.40	3.60	 	 	 	 	 	 	 	 	 	 	 	 	 	 	 	 	 	 	1581486966	8.62	15.96
12/02/2020 05:56:07	120220	12022020	055607	188.00	13.131220	-57.067030	188.16	0.900	-0.660	2.670	187.98	-1.80	3.00	 	 	 	 	 	 	 	 	 	 	 	 	 	 	 	 	 	 	1581486967	8.60	15.93
12/02/2020 05:56:08	120220	12022020	055608	188.15	13.131183	-57.067033	188.33	0.770	0.450	1.600	188.25	-0.60	1.90	 	 	 	 	 	 	 	 	 	 	 	 	 	 	 	 	 	 	1581486968	7.87	14.58
12/02/2020 05:56:09	120220	12022020	055609	188.84	13.131152	-57.067033	189.03	0.070	1.310	0.620	189.01	0.00	1.00	 	 	 	 	 	 	 	 	 	 	 	 	 	 	 	 	 	 	1581486969	6.93	12.83
12/02/2020 05:56:10	120220	12022020	055610	189.56	13.131120	-57.067035	189.71	-0.440	0.970	0.250	189.65	-0.60	0.80	 	 	 	 	 	 	 	 	 	 	 	 	 	 	 	 	 	 	1581486970	6.75	12.50
12/02/2020 05:56:11	120220	12022020	055611	189.75	13.131085	-57.067042	189.87	-0.260	-0.520	0.580	189.71	-2.20	1.30	 	 	 	 	 	 	 	 	 	 	 	 	 	 	 	 	 	 	1581486971	7.72	14.30
12/02/2020 05:56:12	120220	12022020	055612	189.41	13.131043	-57.067053	189.53	0.330	-1.890	1.410	189.31	-3.40	2.10	 	 	 	 	 	 	 	 	 	 	 	 	 	 	 	 	 	 	1581486972	9.00	16.67
12/02/2020 05:56:13	120220	12022020	055613	188.99	13.131003	-57.067065	189.14	0.610	-1.960	2.120	188.94	-3.10	2.70	 	 	 	 	 	 	 	 	 	 	 	 	 	 	 	 	 	 	1581486973	9.18	17.00
12/02/2020 05:56:14	120220	12022020	055614	188.88	13.130967	-57.067075	189.05	0.220	-0.850	2.390	188.89	-1.90	2.90	 	 	 	 	 	 	 	 	 	 	 	 	 	 	 	 	 	 	1581486974	8.05	14.91
12/02/2020 05:56:15	120220	12022020	055615	188.92	13.130935	-57.067083	189.08	-0.500	0.270	2.530	188.91	-0.90	3.10	 	 	 	 	 	 	 	 	 	 	 	 	 	 	 	 	 	 	1581486975	6.93	12.83
12/02/2020 05:56:16	120220	12022020	055616	188.76	13.130905	-57.067093	188.91	-0.900	0.570	2.730	188.70	-0.80	3.30	 	 	 	 	 	 	 	 	 	 	 	 	 	 	 	 	 	 	1581486976	7.03	13.02
12/02/2020 05:56:17	120220	12022020	055617	188.52	13.130868	-57.067105	188.70	-0.700	0.420	2.760	188.52	-0.90	3.30	 	 	 	 	 	 	 	 	 	 	 	 	 	 	 	 	 	 	1581486977	8.03	14.87
12/02/2020 05:56:18	120220	12022020	055618	188.70	13.130830	-57.067117	188.91	-0.260	0.510	2.290	188.78	-0.80	2.60	 	 	 	 	 	 	 	 	 	 	 	 	 	 	 	 	 	 	1581486978	8.53	15.80
12/02/2020 05:56:19	120220	12022020	055619	189.22	13.130795	-57.067123	189.43	0.080	0.630	1.550	189.22	-0.70	2.10	 	 	 	 	 	 	 	 	 	 	 	 	 	 	 	 	 	 	1581486979	7.94	14.70
12/02/2020 05:56:20	120220	12022020	055620	189.56	13.130760	-57.067130	189.73	0.340	0.150	1.030	189.57	-1.40	1.50	 	 	 	 	 	 	 	 	 	 	 	 	 	 	 	 	 	 	1581486980	7.49	13.87
12/02/2020 05:56:21	120220	12022020	055621	189.50	13.130723	-57.067137	189.65	0.710	-0.820	0.820	189.45	-2.30	1.30	 	 	 	 	 	 	 	 	 	 	 	 	 	 	 	 	 	 	1581486981	7.91	14.65
12/02/2020 05:56:22	120220	12022020	055622	189.21	13.130685	-57.067143	189.35	0.990	-1.420	0.880	189.14	-2.70	1.40	 	 	 	 	 	 	 	 	 	 	 	 	 	 	 	 	 	 	1581486982	8.46	15.67
12/02/2020 05:56:23	120220	12022020	055623	188.93	13.130647	-57.067148	189.09	0.820	-1.150	1.070	188.90	-2.30	1.60	 	 	 	 	 	 	 	 	 	 	 	 	 	 	 	 	 	 	1581486983	8.23	15.24
12/02/2020 05:56:24	120220	12022020	055624	188.93	13.130613	-57.067155	189.11	0.100	-0.340	1.280	188.96	-1.50	1.90	 	 	 	 	 	 	 	 	 	 	 	 	 	 	 	 	 	 	1581486984	7.47	13.83
12/02/2020 05:56:25	120220	12022020	055625	189.08	13.130582	-57.067163	189.26	-0.780	0.140	1.680	189.10	-1.20	2.30	 	 	 	 	 	 	 	 	 	 	 	 	 	 	 	 	 	 	1581486985	7.01	12.98
12/02/2020 05:56:26	120220	12022020	055626	189.15	13.130548	-57.067175	189.32	-1.180	-0.060	2.140	189.14	-1.50	2.70	 	 	 	 	 	 	 	 	 	 	 	 	 	 	 	 	 	 	1581486986	7.55	13.98
12/02/2020 05:56:27	120220	12022020	055627	189.05	13.130512	-57.067190	189.23	-0.850	-0.470	2.390	189.02	-1.80	2.90	 	 	 	 	 	 	 	 	 	 	 	 	 	 	 	 	 	 	1581486987	8.52	15.78
12/02/2020 05:56:28	120220	12022020	055628	188.87	13.130473	-57.067203	189.05	-0.150	-0.510	2.330	188.85	-1.80	2.80	 	 	 	 	 	 	 	 	 	 	 	 	 	 	 	 	 	 	1581486988	8.80	16.30
12/02/2020 05:56:29	120220	12022020	055629	188.86	13.130435	-57.067213	189.04	0.240	-0.090	1.950	188.88	-1.30	2.30	 	 	 	 	 	 	 	 	 	 	 	 	 	 	 	 	 	 	1581486989	8.38	15.52
12/02/2020 05:56:30	120220	12022020	055630	188.97	13.130400	-57.067218	189.14	0.140	0.480	1.400	188.99	-0.70	1.80	 	 	 	 	 	 	 	 	 	 	 	 	 	 	 	 	 	 	1581486990	7.73	14.32
12/02/2020 05:56:31	120220	12022020	055631	189.06	13.130365	-57.067223	189.21	-0.080	0.760	1.000	189.08	-0.60	1.50	 	 	 	 	 	 	 	 	 	 	 	 	 	 	 	 	 	 	1581486991	7.34	13.59
12/02/2020 05:56:32	120220	12022020	055632	189.17	13.130332	-57.067228	189.32	-0.030	0.520	0.850	189.19	-0.90	1.40	 	 	 	 	 	 	 	 	 	 	 	 	 	 	 	 	 	 	1581486992	7.41	13.72
12/02/2020 05:56:33	120220	12022020	055633	189.17	13.130297	-57.067237	189.31	0.340	-0.200	1.030	189.14	-1.70	1.60	 	 	 	 	 	 	 	 	 	 	 	 	 	 	 	 	 	 	1581486993	7.77	14.39
12/02/2020 05:56:34	120220	12022020	055634	188.82	13.130260	-57.067245	188.94	0.740	-1.050	1.520	188.70	-2.50	2.20	 	 	 	 	 	 	 	 	 	 	 	 	 	 	 	 	 	 	1581486994	8.20	15.19
12/02/2020 05:56:35	120220	12022020	055635	188.27	13.130222	-57.067255	188.41	0.850	-1.450	2.110	188.18	-2.70	2.70	 	 	 	 	 	 	 	 	 	 	 	 	 	 	 	 	 	 	1581486995	8.49	15.72
12/02/2020 05:56:36	120220	12022020	055636	188.03	13.130183	-57.067265	188.22	0.460	-1.010	2.450	188.03	-2.10	3.00	 	 	 	 	 	 	 	 	 	 	 	 	 	 	 	 	 	 	1581486996	8.28	15.33
12/02/2020 05:56:37	120220	12022020	055637	188.16	13.130150	-57.067275	188.35	-0.240	-0.110	2.550	188.20	-1.30	3.10	 	 	 	 	 	 	 	 	 	 	 	 	 	 	 	 	 	 	1581486997	7.54	13.96
12/02/2020 05:56:38	120220	12022020	055638	188.31	13.130118	-57.067285	188.49	-0.730	0.340	2.700	188.32	-1.00	3.20	 	 	 	 	 	 	 	 	 	 	 	 	 	 	 	 	 	 	1581486998	7.10	13.15
12/02/2020 05:56:39	120220	12022020	055639	188.28	13.130085	-57.067297	188.45	-0.680	0.100	2.770	188.27	-1.30	3.20	 	 	 	 	 	 	 	 	 	 	 	 	 	 	 	 	 	 	1581486999	7.63	14.13
12/02/2020 05:56:40	120220	12022020	055640	188.31	13.130047	-57.067307	188.50	-0.340	-0.150	2.550	188.37	-1.50	3.00	 	 	 	 	 	 	 	 	 	 	 	 	 	 	 	 	 	 	1581487000	8.46	15.67
12/02/2020 05:56:41	120220	12022020	055641	188.79	13.130008	-57.067315	189.00	-0.140	0.080	1.960	188.79	-1.30	2.60	 	 	 	 	 	 	 	 	 	 	 	 	 	 	 	 	 	 	1581487001	8.42	15.59
12/02/2020 05:56:42	120220	12022020	055642	189.55	13.129973	-57.067322	189.74	-0.140	0.390	1.090	189.70	-0.90	1.40	 	 	 	 	 	 	 	 	 	 	 	 	 	 	 	 	 	 	1581487002	7.61	14.09
12/02/2020 05:56:43	120220	12022020	055643	190.13	13.129940	-57.067325	190.28	-0.000	0.040	0.450	190.13	-1.20	1.00	 	 	 	 	 	 	 	 	 	 	 	 	 	 	 	 	 	 	1581487003	7.22	13.37
12/02/2020 05:56:44	120220	12022020	055644	190.19	13.129905	-57.067330	190.31	0.450	-0.920	0.450	190.13	-2.50	1.10	 	 	 	 	 	 	 	 	 	 	 	 	 	 	 	 	 	 	1581487004	7.79	14.43
12/02/2020 05:56:45	120220	12022020	055645	189.52	13.129865	-57.067337	189.61	0.930	-1.790	1.320	189.33	-3.20	2.10	 	 	 	 	 	 	 	 	 	 	 	 	 	 	 	 	 	 	1581487005	8.54	15.82
12/02/2020 05:56:46	120220	12022020	055646	188.48	13.129825	-57.067345	188.59	0.890	-1.730	2.450	188.30	-2.80	3.20	 	 	 	 	 	 	 	 	 	 	 	 	 	 	 	 	 	 	1581487006	8.84	16.37
12/02/2020 05:56:47	120220	12022020	055647	187.80	13.129788	-57.067357	187.98	0.080	-0.440	3.240	187.74	-1.40	3.90	 	 	 	 	 	 	 	 	 	 	 	 	 	 	 	 	 	 	1581487007	8.36	15.48
12/02/2020 05:56:48	120220	12022020	055648	187.76	13.129755	-57.067368	188.00	-1.010	1.170	3.570	187.83	0.10	4.00	 	 	 	 	 	 	 	 	 	 	 	 	 	 	 	 	 	 	1581487008	7.37	13.65
12/02/2020 05:56:49	120220	12022020	055649	188.27	13.129727	-57.067383	188.54	-1.590	2.040	3.260	188.42	0.80	3.60	 	 	 	 	 	 	 	 	 	 	 	 	 	 	 	 	 	 	1581487009	7.02	13.00
12/02/2020 05:56:50	120220	12022020	055650	189.05	13.129695	-57.067397	189.34	-1.220	1.690	2.450	189.23	0.20	2.70	 	 	 	 	 	 	 	 	 	 	 	 	 	 	 	 	 	 	1581487010	7.40	13.70
12/02/2020 05:56:51	120220	12022020	055651	189.87	13.129658	-57.067408	190.14	-0.140	0.440	1.350	190.02	-1.20	1.60	 	 	 	 	 	 	 	 	 	 	 	 	 	 	 	 	 	 	1581487011	8.16	15.11
12/02/2020 05:56:52	120220	12022020	055652	190.48	13.129618	-57.067415	190.71	0.930	-0.940	0.410	190.56	-2.50	0.80	 	 	 	 	 	 	 	 	 	 	 	 	 	 	 	 	 	 	1581487012	8.74	16.19
12/02/2020 05:56:53	120220	12022020	055653	190.70	13.129578	-57.067420	190.88	1.410	-1.690	-0.010	190.70	-3.00	0.50	 	 	 	 	 	 	 	 	 	 	 	 	 	 	 	 	 	 	1581487013	8.71	16.13
12/02/2020 05:56:54	120220	12022020	055654	190.54	13.129542	-57.067425	190.68	1.160	-1.610	0.120	190.47	-2.80	0.70	 	 	 	 	 	 	 	 	 	 	 	 	 	 	 	 	 	 	1581487014	8.01	14.83
12/02/2020 05:56:55	120220	12022020	055655	190.16	13.129508	-57.067430	190.28	0.510	-1.060	0.560	190.16	-2.40	1.00	 	 	 	 	 	 	 	 	 	 	 	 	 	 	 	 	 	 	1581487015	7.27	13.46
12/02/2020 05:56:56	120220	12022020	055656	189.69	13.129475	-57.067437	189.83	-0.140	-0.500	1.270	189.60	-1.70	1.90	 	 	 	 	 	 	 	 	 	 	 	 	 	 	 	 	 	 	1581487016	7.07	13.09
12/02/2020 05:56:57	120220	12022020	055657	189.43	13.129442	-57.067448	189.63	-0.570	-0.100	1.840	189.43	-1.40	2.40	 	 	 	 	 	 	 	 	 	 	 	 	 	 	 	 	 	 	1581487017	7.47	13.83
12/02/2020 05:56:58	120220	12022020	055658	189.45	13.129408	-57.067460	189.66	-0.720	0.070	2.190	189.45	-1.20	2.80	 	 	 	 	 	 	 	 	 	 	 	 	 	 	 	 	 	 	1581487018	7.90	14.63
12/02/2020 05:56:59	120220	12022020	055659	189.36	13.129372	-57.067473	189.56	-0.590	-0.070	2.610	189.30	-1.40	3.20	 	 	 	 	 	 	 	 	 	 	 	 	 	 	 	 	 	 	1581487019	8.19	15.17
12/02/2020 05:57:00	120220	12022020	055700	189.02	13.129333	-57.067487	189.23	-0.350	-0.230	3.080	188.95	-1.50	3.60	 	 	 	 	 	 	 	 	 	 	 	 	 	 	 	 	 	 	1581487020	8.57	15.87
12/02/2020 05:57:01	120220	12022020	055701	188.71	13.129297	-57.067498	188.94	-0.220	0.050	3.310	188.68	-1.10	3.80	1015.60	25.80	25.80	21.30	21.30	-1.0	76.0	76.0	435.0	25.5	269.00	8.70	73.00	9.70	15	8569.0	27.2	27.2	1581487021	8.67	16.06
12/02/2020 05:57:02	120220	12022020	055702	188.72	13.129260	-57.067510	188.98	-0.210	0.660	2.970	188.77	-0.60	3.30	 	 	 	 	 	 	 	 	 	 	 	 	 	 	 	 	 	 	1581487022	8.13	15.06
12/02/2020 05:57:03	120220	12022020	055703	189.13	13.129227	-57.067520	189.38	-0.140	0.980	2.000	189.24	-0.40	2.20	 	 	 	 	 	 	 	 	 	 	 	 	 	 	 	 	 	 	1581487023	7.44	13.78
12/02/2020 05:57:04	120220	12022020	055704	189.66	13.129193	-57.067525	189.90	0.110	0.560	0.910	189.74	-0.90	1.30	 	 	 	 	 	 	 	 	 	 	 	 	 	 	 	 	 	 	1581487024	7.32	13.56
12/02/2020 05:57:05	120220	12022020	055705	189.84	13.129157	-57.067528	190.01	0.490	-0.410	0.460	189.81	-2.00	1.00	 	 	 	 	 	 	 	 	 	 	 	 	 	 	 	 	 	 	1581487025	7.79	14.43
12/02/2020 05:57:06	120220	12022020	055706	189.51	13.129118	-57.067535	189.64	0.760	-1.320	0.720	189.39	-2.80	1.40	 	 	 	 	 	 	 	 	 	 	 	 	 	 	 	 	 	 	1581487026	8.25	15.28
12/02/2020 05:57:07	120220	12022020	055707	188.87	13.129082	-57.067543	189.00	0.690	-1.530	1.460	188.87	-2.90	1.90	 	 	 	 	 	 	 	 	 	 	 	 	 	 	 	 	 	 	1581487027	8.29	15.35
12/02/2020 05:57:08	120220	12022020	055708	188.33	13.129047	-57.067553	188.49	0.300	-0.950	2.120	188.30	-2.10	2.70	 	 	 	 	 	 	 	 	 	 	 	 	 	 	 	 	 	 	1581487028	7.84	14.52
12/02/2020 05:57:09	120220	12022020	055709	188.43	13.129013	-57.067565	188.63	-0.190	0.020	2.160	188.43	-1.40	2.70	 	 	 	 	 	 	 	 	 	 	 	 	 	 	 	 	 	 	1581487029	7.35	13.61
12/02/2020 05:57:10	120220	12022020	055710	188.92	13.128983	-57.067575	189.11	-0.450	0.580	1.970	189.00	-0.80	2.40	 	 	 	 	 	 	 	 	 	 	 	 	 	 	 	 	 	 	1581487030	6.97	12.91
12/02/2020 05:57:11	120220	12022020	055711	189.15	13.128950	-57.067585	189.31	-0.200	0.140	1.930	189.13	-1.40	2.50	 	 	 	 	 	 	 	 	 	 	 	 	 	 	 	 	 	 	1581487031	7.31	13.54
12/02/2020 05:57:12	120220	12022020	055712	188.89	13.128912	-57.067595	189.03	0.420	-0.840	2.050	188.82	-2.30	2.60	 	 	 	 	 	 	 	 	 	 	 	 	 	 	 	 	 	 	1581487032	8.39	15.54
12/02/2020 05:57:13	120220	12022020	055713	188.53	13.128870	-57.067603	188.67	0.720	-1.100	2.180	188.48	-2.30	2.70	 	 	 	 	 	 	 	 	 	 	 	 	 	 	 	 	 	 	1581487033	9.13	16.91
12/02/2020 05:57:14	120220	12022020	055714	188.38	13.128832	-57.067608	188.54	0.240	-0.330	2.200	188.39	-1.40	2.70	 	 	 	 	 	 	 	 	 	 	 	 	 	 	 	 	 	 	1581487034	8.47	15.69
12/02/2020 05:57:15	120220	12022020	055715	188.59	13.128798	-57.067613	188.79	-0.730	0.600	2.070	188.69	-0.60	2.50	 	 	 	 	 	 	 	 	 	 	 	 	 	 	 	 	 	 	1581487035	7.30	13.52
12/02/2020 05:57:16	120220	12022020	055716	189.06	13.128767	-57.067622	189.25	-1.450	0.900	1.990	189.15	-0.50	2.50	 	 	 	 	 	 	 	 	 	 	 	 	 	 	 	 	 	 	1581487036	6.97	12.91
12/02/2020 05:57:17	120220	12022020	055717	189.34	13.128733	-57.067635	189.52	-1.230	0.370	1.990	189.35	-1.20	2.50	 	 	 	 	 	 	 	 	 	 	 	 	 	 	 	 	 	 	1581487037	7.57	14.02
12/02/2020 05:57:18	120220	12022020	055718	189.29	13.128698	-57.067650	189.46	-0.170	-0.470	1.920	189.25	-1.90	2.40	 	 	 	 	 	 	 	 	 	 	 	 	 	 	 	 	 	 	1581487038	8.39	15.54
12/02/2020 05:57:19	120220	12022020	055719	189.03	13.128660	-57.067662	189.19	0.910	-0.880	1.690	188.97	-2.20	2.10	 	 	 	 	 	 	 	 	 	 	 	 	 	 	 	 	 	 	1581487039	8.63	15.98
12/02/2020 05:57:20	120220	12022020	055720	188.71	13.128622	-57.067668	188.85	1.300	-0.720	1.370	188.65	-2.00	1.90	 	 	 	 	 	 	 	 	 	 	 	 	 	 	 	 	 	 	1581487040	8.19	15.17
12/02/2020 05:57:21	120220	12022020	055721	188.37	13.128587	-57.067672	188.48	0.990	-0.360	1.370	188.30	-1.60	1.90	 	 	 	 	 	 	 	 	 	 	 	 	 	 	 	 	 	 	1581487041	7.62	14.11
12/02/2020 05:57:22	120220	12022020	055722	188.11	13.128552	-57.067677	188.24	0.470	-0.070	1.460	188.09	-1.30	2.00	 	 	 	 	 	 	 	 	 	 	 	 	 	 	 	 	 	 	1581487042	7.46	13.82
12/02/2020 05:57:23	120220	12022020	055723	188.15	13.128517	-57.067683	188.31	0.070	0.150	1.460	188.19	-1.10	2.00	 	 	 	 	 	 	 	 	 	 	 	 	 	 	 	 	 	 	1581487043	7.63	14.13
12/02/2020 05:57:24	120220	12022020	055724	188.43	13.128482	-57.067690	188.60	-0.230	0.200	1.590	188.50	-1.20	2.10	 	 	 	 	 	 	 	 	 	 	 	 	 	 	 	 	 	 	1581487044	7.67	14.20
12/02/2020 05:57:25	120220	12022020	055725	188.72	13.128447	-57.067700	188.88	-0.510	-0.050	1.830	188.72	-1.30	2.30	 	 	 	 	 	 	 	 	 	 	 	 	 	 	 	 	 	 	1581487045	7.77	14.39
12/02/2020 05:57:26	120220	12022020	055726	188.68	13.128412	-57.067712	188.81	-0.630	-0.610	2.260	188.63	-2.10	2.90	 	 	 	 	 	 	 	 	 	 	 	 	 	 	 	 	 	 	1581487046	8.08	14.96
12/02/2020 05:57:27	120220	12022020	055727	188.36	13.128375	-57.067727	188.49	-0.410	-1.010	2.550	188.31	-2.30	3.00	 	 	 	 	 	 	 	 	 	 	 	 	 	 	 	 	 	 	1581487047	8.53	15.80
12/02/2020 05:57:28	120220	12022020	055728	188.19	13.128338	-57.067740	188.33	0.030	-0.690	2.190	188.18	-1.90	2.50	 	 	 	 	 	 	 	 	 	 	 	 	 	 	 	 	 	 	1581487048	8.46	15.67
12/02/2020 05:57:29	120220	12022020	055729	188.15	13.128303	-57.067747	188.27	0.320	-0.120	1.590	188.13	-1.40	2.00	 	 	 	 	 	 	 	 	 	 	 	 	 	 	 	 	 	 	1581487049	7.59	14.06
12/02/2020 05:57:30	120220	12022020	055730	188.02	13.128268	-57.067750	188.12	0.350	-0.030	1.200	187.97	-1.40	1.70	 	 	 	 	 	 	 	 	 	 	 	 	 	 	 	 	 	 	1581487050	7.34	13.59
12/02/2020 05:57:31	120220	12022020	055731	187.72	13.128233	-57.067753	187.81	0.250	-0.400	1.290	187.72	-1.70	1.80	 	 	 	 	 	 	 	 	 	 	 	 	 	 	 	 	 	 	1581487051	7.88	14.59
12/02/2020 05:57:32	120220	12022020	055732	187.40	13.128193	-57.067760	187.51	0.140	-0.430	1.550	187.35	-1.70	2.10	 	 	 	 	 	 	 	 	 	 	 	 	 	 	 	 	 	 	1581487052	8.48	15.70
12/02/2020 05:57:33	120220	12022020	055733	187.24	13.128157	-57.067768	187.35	0.050	0.100	1.680	187.22	-1.10	2.20	 	 	 	 	 	 	 	 	 	 	 	 	 	 	 	 	 	 	1581487053	8.22	15.22
12/02/2020 05:57:34	120220	12022020	055734	187.20	13.128122	-57.067777	187.33	-0.100	0.530	1.800	187.20	-0.80	2.30	 	 	 	 	 	 	 	 	 	 	 	 	 	 	 	 	 	 	1581487054	7.54	13.96
12/02/2020 05:57:35	120220	12022020	055735	187.30	13.128088	-57.067783	187.44	-0.330	0.400	1.980	187.33	-1.10	2.50	 	 	 	 	 	 	 	 	 	 	 	 	 	 	 	 	 	 	1581487055	7.49	13.87
12/02/2020 05:57:36	120220	12022020	055736	187.43	13.128052	-57.067792	187.59	-0.540	-0.210	2.220	187.44	-1.70	2.80	 	 	 	 	 	 	 	 	 	 	 	 	 	 	 	 	 	 	1581487056	7.97	14.76
12/02/2020 05:57:37	120220	12022020	055737	187.37	13.128015	-57.067803	187.52	-0.470	-0.880	2.660	187.32	-2.30	3.20	 	 	 	 	 	 	 	 	 	 	 	 	 	 	 	 	 	 	1581487057	8.41	15.58
12/02/2020 05:57:38	120220	12022020	055738	187.07	13.127977	-57.067817	187.23	-0.100	-1.130	2.970	186.99	-2.40	3.50	 	 	 	 	 	 	 	 	 	 	 	 	 	 	 	 	 	 	1581487058	8.56	15.85
12/02/2020 05:57:39	120220	12022020	055739	186.67	13.127940	-57.067828	186.83	0.340	-0.770	2.860	186.61	-2.00	3.30	 	 	 	 	 	 	 	 	 	 	 	 	 	 	 	 	 	 	1581487059	8.19	15.17
12/02/2020 05:57:40	120220	12022020	055740	186.51	13.127907	-57.067835	186.68	0.510	-0.000	2.370	186.52	-1.20	2.70	 	 	 	 	 	 	 	 	 	 	 	 	 	 	 	 	 	 	1581487060	7.59	14.06
12/02/2020 05:57:41	120220	12022020	055741	186.67	13.127873	-57.067840	186.84	0.400	0.470	1.730	186.73	-0.90	2.10	 	 	 	 	 	 	 	 	 	 	 	 	 	 	 	 	 	 	1581487061	7.16	13.26
12/02/2020 05:57:42	120220	12022020	055742	187.02	13.127838	-57.067842	187.20	0.220	0.300	1.140	187.11	-1.10	1.60	 	 	 	 	 	 	 	 	 	 	 	 	 	 	 	 	 	 	1581487062	7.39	13.69
12/02/2020 05:57:43	120220	12022020	055743	187.40	13.127802	-57.067845	187.56	0.160	-0.210	0.960	187.46	-1.70	1.50	 	 	 	 	 	 	 	 	 	 	 	 	 	 	 	 	 	 	1581487063	8.02	14.85
12/02/2020 05:57:44	120220	12022020	055744	187.59	13.127763	-57.067850	187.74	0.180	-0.630	1.200	187.61	-2.00	1.80	 	 	 	 	 	 	 	 	 	 	 	 	 	 	 	 	 	 	1581487064	8.35	15.46
12/02/2020 05:57:45	120220	12022020	055745	187.66	13.127725	-57.067857	187.82	0.100	-0.730	1.580	187.66	-2.10	2.00	 	 	 	 	 	 	 	 	 	 	 	 	 	 	 	 	 	 	1581487065	8.28	15.33
12/02/2020 05:57:46	120220	12022020	055746	187.72	13.127688	-57.067865	187.88	-0.190	-0.430	1.940	187.74	-1.70	2.50	 	 	 	 	 	 	 	 	 	 	 	 	 	 	 	 	 	 	1581487066	7.97	14.76
12/02/2020 05:57:47	120220	12022020	055747	187.79	13.127655	-57.067873	187.92	-0.520	-0.050	2.120	187.80	-1.40	2.60	 	 	 	 	 	 	 	 	 	 	 	 	 	 	 	 	 	 	1581487067	7.56	14.00
12/02/2020 05:57:48	120220	12022020	055748	187.81	13.127622	-57.067883	187.94	-0.680	-0.060	2.130	187.81	-1.50	2.60	 	 	 	 	 	 	 	 	 	 	 	 	 	 	 	 	 	 	1581487068	7.45	13.80
12/02/2020 05:57:49	120220	12022020	055749	187.71	13.127585	-57.067892	187.83	-0.580	-0.460	2.220	187.68	-1.90	2.70	 	 	 	 	 	 	 	 	 	 	 	 	 	 	 	 	 	 	1581487069	7.91	14.65
12/02/2020 05:57:50	120220	12022020	055750	187.53	13.127548	-57.067903	187.63	-0.260	-0.750	2.320	187.49	-2.10	2.80	 	 	 	 	 	 	 	 	 	 	 	 	 	 	 	 	 	 	1581487070	8.45	15.65
12/02/2020 05:57:51	120220	12022020	055751	187.40	13.127510	-57.067913	187.49	0.140	-0.510	2.100	187.38	-1.80	2.50	 	 	 	 	 	 	 	 	 	 	 	 	 	 	 	 	 	 	1581487071	8.44	15.63
12/02/2020 05:57:52	120220	12022020	055752	187.26	13.127473	-57.067920	187.35	0.440	-0.090	1.660	187.22	-1.40	2.00	 	 	 	 	 	 	 	 	 	 	 	 	 	 	 	 	 	 	1581487072	7.93	14.69
12/02/2020 05:57:53	120220	12022020	055753	187.16	13.127438	-57.067923	187.27	0.510	0.150	1.230	187.17	-1.20	1.60	 	 	 	 	 	 	 	 	 	 	 	 	 	 	 	 	 	 	1581487073	7.76	14.37
12/02/2020 05:57:54	120220	12022020	055754	187.35	13.127400	-57.067927	187.46	0.240	0.380	0.820	187.41	-0.90	1.20	 	 	 	 	 	 	 	 	 	 	 	 	 	 	 	 	 	 	1581487074	7.97	14.76
12/02/2020 05:57:55	120220	12022020	055755	187.72	13.127365	-57.067930	187.86	-0.210	0.540	0.670	187.80	-0.80	1.20	 	 	 	 	 	 	 	 	 	 	 	 	 	 	 	 	 	 	1581487075	7.77	14.39
12/02/2020 05:57:56	120220	12022020	055756	188.03	13.127330	-57.067937	188.17	-0.470	0.300	0.880	188.08	-1.20	1.40	 	 	 	 	 	 	 	 	 	 	 	 	 	 	 	 	 	 	1581487076	7.58	14.04
12/02/2020 05:57:57	120220	12022020	055757	188.13	13.127295	-57.067947	188.25	-0.250	-0.290	1.300	188.13	-1.60	1.70	 	 	 	 	 	 	 	 	 	 	 	 	 	 	 	 	 	 	1581487077	7.91	14.65
12/02/2020 05:57:58	120220	12022020	055758	188.00	13.127258	-57.067958	188.10	0.290	-0.800	1.730	187.97	-2.20	2.30	 	 	 	 	 	 	 	 	 	 	 	 	 	 	 	 	 	 	1581487078	8.30	15.37
12/02/2020 05:57:59	120220	12022020	055759	187.94	13.127220	-57.067967	188.05	0.580	-0.880	1.990	187.94	-2.20	2.40	 	 	 	 	 	 	 	 	 	 	 	 	 	 	 	 	 	 	1581487079	8.26	15.30
12/02/2020 05:58:00	120220	12022020	055800	188.08	13.127185	-57.067975	188.20	0.310	-0.610	2.170	188.09	-1.90	2.70	 	 	 	 	 	 	 	 	 	 	 	 	 	 	 	 	 	 	1581487080	7.84	14.52
12/02/2020 05:58:01	120220	12022020	055801	187.98	13.127150	-57.067982	188.07	-0.200	-0.520	2.490	187.98	-1.90	2.90	1015.60	25.90	26.00	21.30	21.30	-1.0	75.0	75.0	435.0	25.5	268.00	8.20	70.00	9.30	15	8572.0	27.2	27.2	1581487081	7.45	13.80
12/02/2020 05:58:02	120220	12022020	055802	187.48	13.127117	-57.067992	187.56	-0.430	-0.770	2.850	187.37	-2.20	3.30	 	 	 	 	 	 	 	 	 	 	 	 	 	 	 	 	 	 	1581487082	7.78	14.41
12/02/2020 05:58:03	120220	12022020	055803	187.10	13.127078	-57.068003	187.22	-0.360	-0.770	2.750	187.07	-2.00	3.10	 	 	 	 	 	 	 	 	 	 	 	 	 	 	 	 	 	 	1581487083	8.47	15.69
12/02/2020 05:58:04	120220	12022020	055804	187.09	13.127040	-57.068012	187.22	-0.190	-0.260	2.140	187.13	-1.50	2.40	 	 	 	 	 	 	 	 	 	 	 	 	 	 	 	 	 	 	1581487084	8.39	15.54
12/02/2020 05:58:05	120220	12022020	055805	187.29	13.127005	-57.068018	187.41	-0.040	0.330	1.310	187.31	-1.00	1.60	 	 	 	 	 	 	 	 	 	 	 	 	 	 	 	 	 	 	1581487085	7.78	14.41
12/02/2020 05:58:06	120220	12022020	055806	187.36	13.126968	-57.068022	187.47	0.100	0.470	0.830	187.37	-0.90	1.30	 	 	 	 	 	 	 	 	 	 	 	 	 	 	 	 	 	 	1581487086	7.62	14.11
12/02/2020 05:58:07	120220	12022020	055807	187.49	13.126932	-57.068023	187.63	0.080	0.300	0.850	187.55	-1.10	1.40	 	 	 	 	 	 	 	 	 	 	 	 	 	 	 	 	 	 	1581487087	8.04	14.89
12/02/2020 05:58:08	120220	12022020	055808	187.81	13.126893	-57.068028	187.96	-0.140	0.100	1.200	187.88	-1.30	1.80	 	 	 	 	 	 	 	 	 	 	 	 	 	 	 	 	 	 	1581487088	8.25	15.28
12/02/2020 05:58:09	120220	12022020	055809	188.14	13.126857	-57.068038	188.29	-0.300	-0.060	1.670	188.19	-1.50	2.20	 	 	 	 	 	 	 	 	 	 	 	 	 	 	 	 	 	 	1581487089	8.14	15.08
12/02/2020 05:58:10	120220	12022020	055810	188.28	13.126822	-57.068052	188.41	-0.130	-0.300	2.040	188.27	-1.70	2.60	 	 	 	 	 	 	 	 	 	 	 	 	 	 	 	 	 	 	1581487090	8.01	14.83
12/02/2020 05:58:11	120220	12022020	055811	188.12	13.126787	-57.068062	188.22	0.320	-0.630	2.200	188.06	-2.00	2.70	 	 	 	 	 	 	 	 	 	 	 	 	 	 	 	 	 	 	1581487091	8.01	14.83
12/02/2020 05:58:12	120220	12022020	055812	187.85	13.126750	-57.068072	187.96	0.620	-0.700	2.090	187.82	-2.00	2.50	 	 	 	 	 	 	 	 	 	 	 	 	 	 	 	 	 	 	1581487092	8.13	15.06
12/02/2020 05:58:13	120220	12022020	055813	187.85	13.126713	-57.068075	187.98	0.380	-0.360	1.730	187.89	-1.60	2.10	 	 	 	 	 	 	 	 	 	 	 	 	 	 	 	 	 	 	1581487093	7.95	14.72
12/02/2020 05:58:14	120220	12022020	055814	188.08	13.126678	-57.068080	188.21	-0.290	-0.030	1.450	188.12	-1.40	1.90	 	 	 	 	 	 	 	 	 	 	 	 	 	 	 	 	 	 	1581487094	7.50	13.89
12/02/2020 05:58:15	120220	12022020	055815	188.10	13.126643	-57.068085	188.18	-0.800	-0.210	1.570	188.06	-1.70	2.10	 	 	 	 	 	 	 	 	 	 	 	 	 	 	 	 	 	 	1581487095	7.43	13.76
12/02/2020 05:58:16	120220	12022020	055816	187.80	13.126608	-57.068097	187.88	-0.680	-0.730	1.930	187.72	-2.20	2.50	 	 	 	 	 	 	 	 	 	 	 	 	 	 	 	 	 	 	1581487096	8.12	15.04
12/02/2020 05:58:17	120220	12022020	055817	187.36	13.126570	-57.068110	187.45	-0.090	-0.990	2.230	187.27	-2.30	2.70	 	 	 	 	 	 	 	 	 	 	 	 	 	 	 	 	 	 	1581487097	8.73	16.17
12/02/2020 05:58:18	120220	12022020	055818	186.92	13.126532	-57.068122	187.02	0.520	-0.710	2.270	186.85	-1.90	2.70	 	 	 	 	 	 	 	 	 	 	 	 	 	 	 	 	 	 	1581487098	8.62	15.96
12/02/2020 05:58:19	120220	12022020	055819	186.73	13.126493	-57.068128	186.85	0.770	-0.040	1.850	186.75	-1.20	2.20	 	 	 	 	 	 	 	 	 	 	 	 	 	 	 	 	 	 	1581487099	8.14	15.08
12/02/2020 05:58:20	120220	12022020	055820	187.08	13.126458	-57.068132	187.21	0.520	0.680	1.140	187.22	-0.50	1.50	 	 	 	 	 	 	 	 	 	 	 	 	 	 	 	 	 	 	1581487100	7.75	14.35
12/02/2020 05:58:21	120220	12022020	055821	187.88	13.126423	-57.068133	188.03	-0.020	1.110	0.690	187.88	-0.30	1.20	 	 	 	 	 	 	 	 	 	 	 	 	 	 	 	 	 	 	1581487101	7.49	13.87
12/02/2020 05:58:22	120220	12022020	055822	188.63	13.126388	-57.068137	188.77	-0.500	0.840	0.750	188.73	-0.70	1.30	 	 	 	 	 	 	 	 	 	 	 	 	 	 	 	 	 	 	1581487102	7.36	13.63
12/02/2020 05:58:23	120220	12022020	055823	188.85	13.126353	-57.068143	188.96	-0.630	-0.370	1.450	188.85	-1.50	1.80	 	 	 	 	 	 	 	 	 	 	 	 	 	 	 	 	 	 	1581487103	7.76	14.37
12/02/2020 05:58:24	120220	12022020	055824	188.41	13.126315	-57.068157	188.50	-0.390	-1.870	2.630	188.27	-3.50	3.40	 	 	 	 	 	 	 	 	 	 	 	 	 	 	 	 	 	 	1581487104	8.80	16.30
12/02/2020 05:58:25	120220	12022020	055825	187.55	13.126273	-57.068173	187.63	-0.030	-2.470	3.820	187.37	-3.70	4.50	 	 	 	 	 	 	 	 	 	 	 	 	 	 	 	 	 	 	1581487105	9.56	17.71
12/02/2020 05:58:26	120220	12022020	055826	186.64	13.126235	-57.068192	186.74	0.210	-1.580	4.300	186.49	-2.60	4.70	 	 	 	 	 	 	 	 	 	 	 	 	 	 	 	 	 	 	1581487106	9.09	16.83
12/02/2020 05:58:27	120220	12022020	055827	186.10	13.126202	-57.068203	186.23	0.240	0.170	3.800	186.06	-0.80	4.00	 	 	 	 	 	 	 	 	 	 	 	 	 	 	 	 	 	 	1581487107	7.67	14.20
12/02/2020 05:58:28	120220	12022020	055828	186.15	13.126170	-57.068207	186.31	0.120	1.530	2.520	186.24	0.30	2.70	 	 	 	 	 	 	 	 	 	 	 	 	 	 	 	 	 	 	1581487108	6.72	12.45
12/02/2020 05:58:29	120220	12022020	055829	186.69	13.126138	-57.068207	186.83	0.100	1.650	0.950	186.82	0.10	1.10	 	 	 	 	 	 	 	 	 	 	 	 	 	 	 	 	 	 	1581487109	6.95	12.87
12/02/2020 05:58:30	120220	12022020	055830	187.30	13.126102	-57.068205	187.41	0.340	0.590	-0.310	187.40	-1.10	0.00	 	 	 	 	 	 	 	 	 	 	 	 	 	 	 	 	 	 	1581487110	7.97	14.76
12/02/2020 05:58:31	120220	12022020	055831	187.64	13.126060	-57.068203	187.72	0.590	-0.930	-0.530	187.68	-2.60	0.10	 	 	 	 	 	 	 	 	 	 	 	 	 	 	 	 	 	 	1581487111	8.96	16.59
12/02/2020 05:58:32	120220	12022020	055832	187.69	13.126017	-57.068207	187.78	0.410	-1.870	0.530	187.67	-3.30	1.40	 	 	 	 	 	 	 	 	 	 	 	 	 	 	 	 	 	 	1581487112	9.26	17.15
12/02/2020 05:58:33	120220	12022020	055833	187.47	13.125977	-57.068217	187.58	-0.270	-1.690	2.330	187.47	-3.10	2.60	 	 	 	 	 	 	 	 	 	 	 	 	 	 	 	 	 	 	1581487113	8.69	16.09
12/02/2020 05:58:34	120220	12022020	055834	187.10	13.125943	-57.068235	187.24	-0.970	-0.800	3.960	187.03	-1.90	4.70	 	 	 	 	 	 	 	 	 	 	 	 	 	 	 	 	 	 	1581487114	8.07	14.95
12/02/2020 05:58:35	120220	12022020	055835	186.74	13.125913	-57.068255	186.89	-1.120	-0.010	4.880	186.74	-1.40	5.30	 	 	 	 	 	 	 	 	 	 	 	 	 	 	 	 	 	 	1581487115	7.85	14.54
12/02/2020 05:58:36	120220	12022020	055836	186.51	13.125880	-57.068273	186.70	-0.560	0.330	4.710	186.49	-1.00	5.00	 	 	 	 	 	 	 	 	 	 	 	 	 	 	 	 	 	 	1581487116	8.02	14.85
12/02/2020 05:58:37	120220	12022020	055837	186.60	13.125845	-57.068285	186.80	0.320	0.530	3.530	186.66	-0.80	3.60	 	 	 	 	 	 	 	 	 	 	 	 	 	 	 	 	 	 	1581487117	8.19	15.17
12/02/2020 05:58:38	120220	12022020	055838	187.02	13.125807	-57.068287	187.18	0.930	0.660	1.900	187.11	-0.70	2.00	 	 	 	 	 	 	 	 	 	 	 	 	 	 	 	 	 	 	1581487118	8.10	15.00
12/02/2020 05:58:39	120220	12022020	055839	187.46	13.125770	-57.068282	187.57	0.960	0.350	0.570	187.52	-1.10	0.90	 	 	 	 	 	 	 	 	 	 	 	 	 	 	 	 	 	 	1581487119	8.06	14.93
12/02/2020 05:58:40	120220	12022020	055840	187.65	13.125732	-57.068277	187.76	0.600	-0.360	0.230	187.66	-1.90	0.80	 	 	 	 	 	 	 	 	 	 	 	 	 	 	 	 	 	 	1581487120	8.23	15.24
12/02/2020 05:58:41	120220	12022020	055841	187.64	13.125693	-57.068278	187.74	0.160	-0.950	0.710	187.63	-2.40	1.40	 	 	 	 	 	 	 	 	 	 	 	 	 	 	 	 	 	 	1581487121	8.27	15.32
12/02/2020 05:58:42	120220	12022020	055842	187.48	13.125657	-57.068287	187.57	-0.160	-1.060	1.560	187.43	-2.40	2.20	 	 	 	 	 	 	 	 	 	 	 	 	 	 	 	 	 	 	1581487122	8.15	15.09
12/02/2020 05:58:43	120220	12022020	055843	187.14	13.125622	-57.068300	187.23	-0.300	-0.910	2.410	187.05	-2.20	3.00	 	 	 	 	 	 	 	 	 	 	 	 	 	 	 	 	 	 	1581487123	7.86	14.56
12/02/2020 05:58:44	120220	12022020	055844	186.79	13.125587	-57.068313	186.91	-0.350	-0.730	2.810	186.75	-2.00	3.30	 	 	 	 	 	 	 	 	 	 	 	 	 	 	 	 	 	 	1581487124	7.91	14.65
12/02/2020 05:58:45	120220	12022020	055845	186.66	13.125552	-57.068325	186.82	-0.340	-0.430	2.720	186.66	-1.80	3.20	 	 	 	 	 	 	 	 	 	 	 	 	 	 	 	 	 	 	1581487125	8.05	14.91
12/02/2020 05:58:46	120220	12022020	055846	186.88	13.125517	-57.068335	187.06	-0.260	0.060	2.120	186.97	-1.20	2.40	 	 	 	 	 	 	 	 	 	 	 	 	 	 	 	 	 	 	1581487126	7.96	14.74
12/02/2020 05:58:47	120220	12022020	055847	187.41	13.125480	-57.068340	187.58	-0.230	0.480	1.270	187.41	-0.90	1.90	 	 	 	 	 	 	 	 	 	 	 	 	 	 	 	 	 	 	1581487127	7.70	14.26
12/02/2020 05:58:48	120220	12022020	055848	187.91	13.125445	-57.068343	188.05	-0.230	0.510	0.710	187.98	-0.90	1.10	 	 	 	 	 	 	 	 	 	 	 	 	 	 	 	 	 	 	1581487128	7.62	14.11
12/02/2020 05:58:49	120220	12022020	055849	188.11	13.125408	-57.068347	188.22	-0.100	0.130	0.640	188.11	-1.20	1.10	 	 	 	 	 	 	 	 	 	 	 	 	 	 	 	 	 	 	1581487129	7.84	14.52
12/02/2020 05:58:50	120220	12022020	055850	188.04	13.125372	-57.068353	188.12	0.230	-0.310	0.800	188.01	-1.70	1.30	 	 	 	 	 	 	 	 	 	 	 	 	 	 	 	 	 	 	1581487130	8.17	15.13
12/02/2020 05:58:51	120220	12022020	055851	187.88	13.125333	-57.068360	187.96	0.530	-0.580	1.060	187.83	-2.00	1.70	 	 	 	 	 	 	 	 	 	 	 	 	 	 	 	 	 	 	1581487131	8.24	15.26
12/02/2020 05:58:52	120220	12022020	055852	187.63	13.125297	-57.068365	187.72	0.570	-0.680	1.720	187.57	-2.00	2.40	 	 	 	 	 	 	 	 	 	 	 	 	 	 	 	 	 	 	1581487132	8.09	14.98
12/02/2020 05:58:53	120220	12022020	055853	187.36	13.125260	-57.068375	187.46	0.380	-0.590	2.340	187.32	-1.90	2.90	 	 	 	 	 	 	 	 	 	 	 	 	 	 	 	 	 	 	1581487133	7.98	14.78
12/02/2020 05:58:54	120220	12022020	055854	187.16	13.125225	-57.068383	187.27	0.110	-0.370	2.590	187.13	-1.70	3.10	 	 	 	 	 	 	 	 	 	 	 	 	 	 	 	 	 	 	1581487134	7.89	14.61
12/02/2020 05:58:55	120220	12022020	055855	187.02	13.125190	-57.068392	187.16	-0.180	-0.150	2.720	187.00	-1.50	3.20	 	 	 	 	 	 	 	 	 	 	 	 	 	 	 	 	 	 	1581487135	7.79	14.43
12/02/2020 05:58:56	120220	12022020	055856	186.95	13.125153	-57.068400	187.10	-0.480	-0.070	2.730	186.94	-1.40	3.20	 	 	 	 	 	 	 	 	 	 	 	 	 	 	 	 	 	 	1581487136	7.81	14.46
12/02/2020 05:58:57	120220	12022020	055857	187.01	13.125118	-57.068410	187.16	-0.690	-0.010	2.450	187.04	-1.30	2.80	 	 	 	 	 	 	 	 	 	 	 	 	 	 	 	 	 	 	1581487137	7.97	14.76
12/02/2020 05:58:58	120220	12022020	055858	187.26	13.125082	-57.068420	187.42	-0.670	0.120	1.900	187.33	-1.20	2.20	 	 	 	 	 	 	 	 	 	 	 	 	 	 	 	 	 	 	1581487138	7.97	14.76
12/02/2020 05:58:59	120220	12022020	055859	187.60	13.125047	-57.068427	187.74	-0.320	0.080	1.300	187.66	-1.30	1.70	 	 	 	 	 	 	 	 	 	 	 	 	 	 	 	 	 	 	1581487139	7.78	14.41
12/02/2020 05:59:00	120220	12022020	055900	187.87	13.125010	-57.068433	187.98	0.220	-0.190	0.850	187.91	-1.60	1.30	 	 	 	 	 	 	 	 	 	 	 	 	 	 	 	 	 	 	1581487140	7.86	14.56
12/02/2020 05:59:01	120220	12022020	055901	187.94	13.124973	-57.068437	188.02	0.670	-0.530	0.670	187.92	-2.00	1.20	1015.40	26.00	26.00	21.50	21.50	-1.0	76.0	76.0	435.0	25.5	272.00	7.80	71.00	8.70	15	8595.0	27.2	27.2	1581487141	8.05	14.91
12/02/2020 05:59:02	120220	12022020	055902	187.73	13.124937	-57.068440	187.81	0.870	-0.830	0.770	187.68	-2.20	1.30	 	 	 	 	 	 	 	 	 	 	 	 	 	 	 	 	 	 	1581487142	8.14	15.08
12/02/2020 05:59:03	120220	12022020	055903	187.43	13.124898	-57.068443	187.52	0.710	-0.890	1.130	187.37	-2.20	1.70	 	 	 	 	 	 	 	 	 	 	 	 	 	 	 	 	 	 	1581487143	8.23	15.24
12/02/2020 05:59:04	120220	12022020	055904	187.13	13.124860	-57.068448	187.22	0.200	-0.610	1.740	187.07	-1.90	2.40	 	 	 	 	 	 	 	 	 	 	 	 	 	 	 	 	 	 	1581487144	8.12	15.04
12/02/2020 05:59:05	120220	12022020	055905	186.86	13.124825	-57.068457	186.98	-0.450	-0.080	2.410	186.83	-1.30	3.00	 	 	 	 	 	 	 	 	 	 	 	 	 	 	 	 	 	 	1581487145	7.92	14.67
12/02/2020 05:59:06	120220	12022020	055906	186.87	13.124790	-57.068468	187.02	-0.920	0.540	2.730	186.92	-0.70	3.20	 	 	 	 	 	 	 	 	 	 	 	 	 	 	 	 	 	 	1581487146	7.82	14.48
12/02/2020 05:59:07	120220	12022020	055907	187.20	13.124757	-57.068480	187.36	-0.970	0.780	2.580	187.29	-0.60	3.00	 	 	 	 	 	 	 	 	 	 	 	 	 	 	 	 	 	 	1581487147	7.68	14.22
12/02/2020 05:59:08	120220	12022020	055908	187.58	13.124722	-57.068490	187.71	-0.510	0.310	2.230	187.63	-1.20	2.60	 	 	 	 	 	 	 	 	 	 	 	 	 	 	 	 	 	 	1581487148	7.82	14.48
12/02/2020 05:59:09	120220	12022020	055909	187.80	13.124683	-57.068500	187.91	0.200	-0.540	1.810	187.83	-2.10	2.20	 	 	 	 	 	 	 	 	 	 	 	 	 	 	 	 	 	 	1581487149	8.40	15.56
12/02/2020 05:59:10	120220	12022020	055910	187.94	13.124643	-57.068505	188.03	0.660	-1.060	1.380	187.96	-2.40	1.80	 	 	 	 	 	 	 	 	 	 	 	 	 	 	 	 	 	 	1581487150	8.79	16.28
12/02/2020 05:59:11	120220	12022020	055911	187.98	13.124603	-57.068510	188.06	0.610	-0.910	1.160	187.98	-2.30	1.70	 	 	 	 	 	 	 	 	 	 	 	 	 	 	 	 	 	 	1581487151	8.46	15.67
12/02/2020 05:59:12	120220	12022020	055912	187.94	13.124568	-57.068513	188.02	0.230	-0.290	1.060	187.94	-1.50	1.50	 	 	 	 	 	 	 	 	 	 	 	 	 	 	 	 	 	 	1581487152	7.76	14.37
12/02/2020 05:59:13	120220	12022020	055913	188.03	13.124533	-57.068518	188.12	-0.190	0.370	1.010	188.03	-1.10	1.50	 	 	 	 	 	 	 	 	 	 	 	 	 	 	 	 	 	 	1581487153	7.30	13.52
12/02/2020 05:59:14	120220	12022020	055914	188.32	13.124500	-57.068525	188.42	-0.400	0.570	0.950	188.39	-0.90	1.40	 	 	 	 	 	 	 	 	 	 	 	 	 	 	 	 	 	 	1581487154	7.24	13.41
12/02/2020 05:59:15	120220	12022020	055915	188.66	13.124467	-57.068532	188.76	-0.230	0.050	0.950	188.72	-1.50	1.40	 	 	 	 	 	 	 	 	 	 	 	 	 	 	 	 	 	 	1581487155	7.65	14.17
12/02/2020 05:59:16	120220	12022020	055916	188.88	13.124428	-57.068540	188.98	0.270	-0.820	1.020	188.90	-2.30	1.50	 	 	 	 	 	 	 	 	 	 	 	 	 	 	 	 	 	 	1581487156	8.37	15.50
12/02/2020 05:59:17	120220	12022020	055917	188.86	13.124387	-57.068547	188.94	0.710	-1.390	1.240	188.82	-2.80	1.80	 	 	 	 	 	 	 	 	 	 	 	 	 	 	 	 	 	 	1581487157	8.85	16.39
12/02/2020 05:59:18	120220	12022020	055918	188.53	13.124347	-57.068553	188.62	0.560	-1.160	1.890	188.45	-2.30	2.50	 	 	 	 	 	 	 	 	 	 	 	 	 	 	 	 	 	 	1581487158	8.70	16.11
12/02/2020 05:59:19	120220	12022020	055919	188.15	13.124310	-57.068562	188.27	-0.260	-0.160	2.740	188.10	-1.20	3.40	 	 	 	 	 	 	 	 	 	 	 	 	 	 	 	 	 	 	1581487159	8.05	14.91
12/02/2020 05:59:20	120220	12022020	055920	188.00	13.124278	-57.068573	188.17	-1.130	0.970	3.300	188.02	-0.20	3.80	 	 	 	 	 	 	 	 	 	 	 	 	 	 	 	 	 	 	1581487160	7.47	13.83
12/02/2020 05:59:21	120220	12022020	055921	188.19	13.124248	-57.068590	188.37	-1.240	1.360	3.070	188.25	-0.10	3.40	 	 	 	 	 	 	 	 	 	 	 	 	 	 	 	 	 	 	1581487161	7.38	13.67
12/02/2020 05:59:22	120220	12022020	055922	188.52	13.124213	-57.068603	188.71	-0.340	0.550	2.100	188.61	-1.10	2.30	 	 	 	 	 	 	 	 	 	 	 	 	 	 	 	 	 	 	1581487162	7.78	14.41
12/02/2020 05:59:23	120220	12022020	055923	189.03	13.124173	-57.068610	189.22	0.770	-0.640	0.880	189.16	-2.20	1.10	 	 	 	 	 	 	 	 	 	 	 	 	 	 	 	 	 	 	1581487163	8.77	16.24
12/02/2020 05:59:24	120220	12022020	055924	189.64	13.124132	-57.068613	189.80	1.160	-1.090	-0.060	189.75	-2.40	0.30	 	 	 	 	 	 	 	 	 	 	 	 	 	 	 	 	 	 	1581487164	9.09	16.83
12/02/2020 05:59:25	120220	12022020	055925	189.97	13.124093	-57.068613	190.08	0.730	-0.870	-0.390	189.97	-2.30	0.10	 	 	 	 	 	 	 	 	 	 	 	 	 	 	 	 	 	 	1581487165	8.13	15.06
12/02/2020 05:59:26	120220	12022020	055926	189.79	13.124060	-57.068618	189.88	0.120	-0.690	0.060	189.72	-2.00	0.70	 	 	 	 	 	 	 	 	 	 	 	 	 	 	 	 	 	 	1581487166	7.30	13.52
12/02/2020 05:59:27	120220	12022020	055927	189.44	13.124027	-57.068627	189.57	-0.190	-0.590	0.900	189.39	-1.90	1.60	 	 	 	 	 	 	 	 	 	 	 	 	 	 	 	 	 	 	1581487167	7.56	14.00
12/02/2020 05:59:28	120220	12022020	055928	189.33	13.123990	-57.068637	189.47	-0.250	-0.240	1.640	189.35	-1.50	2.20	 	 	 	 	 	 	 	 	 	 	 	 	 	 	 	 	 	 	1581487168	8.03	14.87
12/02/2020 05:59:29	120220	12022020	055929	189.43	13.123955	-57.068648	189.58	-0.330	0.110	2.240	189.44	-1.20	2.80	 	 	 	 	 	 	 	 	 	 	 	 	 	 	 	 	 	 	1581487169	7.92	14.67
12/02/2020 05:59:30	120220	12022020	055930	189.39	13.123920	-57.068662	189.54	-0.420	0.060	2.810	189.36	-1.30	3.40	 	 	 	 	 	 	 	 	 	 	 	 	 	 	 	 	 	 	1581487170	7.89	14.61
12/02/2020 05:59:31	120220	12022020	055931	189.16	13.123885	-57.068675	189.31	-0.390	-0.240	3.090	189.10	-1.60	3.50	 	 	 	 	 	 	 	 	 	 	 	 	 	 	 	 	 	 	1581487171	8.30	15.37
12/02/2020 05:59:32	120220	12022020	055932	188.92	13.123847	-57.068687	189.08	-0.140	-0.350	2.960	188.89	-1.70	3.30	 	 	 	 	 	 	 	 	 	 	 	 	 	 	 	 	 	 	1581487172	8.55	15.83
12/02/2020 05:59:33	120220	12022020	055933	188.83	13.123810	-57.068698	189.00	0.160	-0.060	2.450	188.83	-1.30	2.80	 	 	 	 	 	 	 	 	 	 	 	 	 	 	 	 	 	 	1581487173	8.28	15.33
12/02/2020 05:59:34	120220	12022020	055934	188.82	13.123775	-57.068705	188.97	0.330	0.340	1.740	188.81	-1.00	2.10	 	 	 	 	 	 	 	 	 	 	 	 	 	 	 	 	 	 	1581487174	7.69	14.24
12/02/2020 05:59:35	120220	12022020	055935	188.74	13.123740	-57.068710	188.86	0.330	0.290	1.240	188.74	-1.00	1.80	 	 	 	 	 	 	 	 	 	 	 	 	 	 	 	 	 	 	1581487175	7.38	13.67
12/02/2020 05:59:36	120220	12022020	055936	188.66	13.123705	-57.068713	188.79	0.270	-0.230	1.160	188.66	-1.70	1.70	 	 	 	 	 	 	 	 	 	 	 	 	 	 	 	 	 	 	1581487176	7.75	14.35
12/02/2020 05:59:37	120220	12022020	055937	188.80	13.123667	-57.068722	188.96	0.190	-0.660	1.350	188.80	-2.00	1.80	 	 	 	 	 	 	 	 	 	 	 	 	 	 	 	 	 	 	1581487177	8.25	15.28
12/02/2020 05:59:38	120220	12022020	055938	189.19	13.123630	-57.068732	189.38	0.140	-0.580	1.590	189.29	-1.90	2.10	 	 	 	 	 	 	 	 	 	 	 	 	 	 	 	 	 	 	1581487178	8.22	15.22
12/02/2020 05:59:39	120220	12022020	055939	189.66	13.123595	-57.068742	189.84	0.110	-0.220	1.650	189.66	-1.60	2.10	 	 	 	 	 	 	 	 	 	 	 	 	 	 	 	 	 	 	1581487179	7.68	14.22
12/02/2020 05:59:40	120220	12022020	055940	189.90	13.123563	-57.068752	190.07	0.120	-0.240	1.630	189.91	-1.70	2.10	 	 	 	 	 	 	 	 	 	 	 	 	 	 	 	 	 	 	1581487180	7.29	13.50
12/02/2020 05:59:41	120220	12022020	055941	189.75	13.123528	-57.068758	189.91	0.140	-0.670	1.820	189.67	-2.10	2.40	 	 	 	 	 	 	 	 	 	 	 	 	 	 	 	 	 	 	1581487181	7.68	14.22
12/02/2020 05:59:42	120220	12022020	055942	189.23	13.123490	-57.068767	189.37	0.140	-1.050	2.250	189.10	-2.40	2.80	 	 	 	 	 	 	 	 	 	 	 	 	 	 	 	 	 	 	1581487182	8.25	15.28
12/02/2020 05:59:43	120220	12022020	055943	188.62	13.123452	-57.068777	188.79	0.030	-0.910	2.690	188.52	-2.10	3.20	 	 	 	 	 	 	 	 	 	 	 	 	 	 	 	 	 	 	1581487183	8.47	15.69
12/02/2020 05:59:44	120220	12022020	055944	188.35	13.123415	-57.068787	188.55	-0.260	-0.170	2.810	188.36	-1.30	3.20	 	 	 	 	 	 	 	 	 	 	 	 	 	 	 	 	 	 	1581487184	8.20	15.19
12/02/2020 05:59:45	120220	12022020	055945	188.58	13.123382	-57.068797	188.78	-0.590	0.770	2.550	188.67	-0.40	2.90	 	 	 	 	 	 	 	 	 	 	 	 	 	 	 	 	 	 	1581487185	7.67	14.20
12/02/2020 05:59:46	120220	12022020	055946	189.10	13.123348	-57.068805	189.29	-0.650	1.270	1.960	189.21	-0.10	2.30	 	 	 	 	 	 	 	 	 	 	 	 	 	 	 	 	 	 	1581487186	7.26	13.45
12/02/2020 05:59:47	120220	12022020	055947	189.53	13.123315	-57.068813	189.70	-0.260	0.790	1.350	189.56	-0.80	1.70	 	 	 	 	 	 	 	 	 	 	 	 	 	 	 	 	 	 	1581487187	7.38	13.67
12/02/2020 05:59:48	120220	12022020	055948	189.47	13.123278	-57.068820	189.60	0.470	-0.530	1.140	189.39	-2.20	1.60	 	 	 	 	 	 	 	 	 	 	 	 	 	 	 	 	 	 	1581487188	8.16	15.11
12/02/2020 05:59:49	120220	12022020	055949	189.07	13.123237	-57.068827	189.21	0.990	-1.630	1.300	189.00	-3.10	1.90	 	 	 	 	 	 	 	 	 	 	 	 	 	 	 	 	 	 	1581487189	9.03	16.72
12/02/2020 05:59:50	120220	12022020	055950	188.91	13.123195	-57.068833	189.09	0.700	-1.550	1.780	188.92	-2.70	2.40	 	 	 	 	 	 	 	 	 	 	 	 	 	 	 	 	 	 	1581487190	8.97	16.61
12/02/2020 05:59:51	120220	12022020	055951	189.05	13.123160	-57.068843	189.25	-0.230	-0.570	2.300	189.10	-1.70	2.90	 	 	 	 	 	 	 	 	 	 	 	 	 	 	 	 	 	 	1581487191	7.84	14.52
12/02/2020 05:59:52	120220	12022020	055952	189.25	13.123130	-57.068857	189.45	-0.990	0.340	2.650	189.28	-0.90	3.20	 	 	 	 	 	 	 	 	 	 	 	 	 	 	 	 	 	 	1581487192	7.08	13.11
12/02/2020 05:59:53	120220	12022020	055953	189.40	13.123098	-57.068872	189.60	-0.900	0.580	2.770	189.42	-0.80	3.20	 	 	 	 	 	 	 	 	 	 	 	 	 	 	 	 	 	 	1581487193	7.32	13.56
12/02/2020 05:59:54	120220	12022020	055954	189.55	13.123063	-57.068885	189.76	-0.080	0.350	2.460	189.59	-1.10	2.80	 	 	 	 	 	 	 	 	 	 	 	 	 	 	 	 	 	 	1581487194	7.98	14.78
12/02/2020 05:59:55	120220	12022020	055955	189.75	13.123027	-57.068893	189.95	0.740	0.110	1.820	189.79	-1.30	2.20	 	 	 	 	 	 	 	 	 	 	 	 	 	 	 	 	 	 	1581487195	8.33	15.43
12/02/2020 05:59:56	120220	12022020	055956	189.90	13.122988	-57.068897	190.07	0.950	-0.060	1.350	189.92	-1.50	1.80	 	 	 	 	 	 	 	 	 	 	 	 	 	 	 	 	 	 	1581487196	8.22	15.22
12/02/2020 05:59:57	120220	12022020	055957	189.92	13.122952	-57.068900	190.09	0.570	-0.290	1.200	189.91	-1.70	1.70	 	 	 	 	 	 	 	 	 	 	 	 	 	 	 	 	 	 	1581487197	7.98	14.78
12/02/2020 05:59:58	120220	12022020	055958	189.73	13.122915	-57.068905	189.88	0.050	-0.620	1.450	189.66	-2.10	2.00	 	 	 	 	 	 	 	 	 	 	 	 	 	 	 	 	 	 	1581487198	7.88	14.59
12/02/2020 05:59:59	120220	12022020	055959	189.33	13.122878	-57.068913	189.46	-0.240	-1.040	1.990	189.24	-2.50	2.60	 	 	 	 	 	 	 	 	 	 	 	 	 	 	 	 	 	 	1581487199	8.02	14.85
12/02/2020 06:00:00	120220	12022020	060000	188.89	13.122842	-57.068925	189.02	-0.300	-1.220	2.560	188.80	-2.50	3.10	 	 	 	 	 	 	 	 	 	 	 	 	 	 	 	 	 	 	1581487200	8.36	15.48
12/02/2020 06:00:01	120220	12022020	060001	188.47	13.122805	-57.068938	188.61	-0.350	-0.860	2.930	188.47	-2.30	3.40	1015.50	25.90	26.00	21.50	21.50	-1.0	76.0	76.0	435.0	25.6	273.00	8.80	76.00	9.40	15	8955.0	27.2	27.2	1581487201	8.40	15.56
12/02/2020 06:00:02	120220	12022020	060002	188.15	13.122770	-57.068952	188.30	-0.460	-0.160	2.960	188.11	-1.30	3.40	 	 	 	 	 	 	 	 	 	 	 	 	 	 	 	 	 	 	1581487202	8.01	14.83
12/02/2020 06:00:03	120220	12022020	060003	188.08	13.122735	-57.068963	188.25	-0.540	0.470	2.590	188.08	-0.90	3.10	 	 	 	 	 	 	 	 	 	 	 	 	 	 	 	 	 	 	1581487203	7.70	14.26
12/02/2020 06:00:04	120220	12022020	060004	188.41	13.122702	-57.068972	188.60	-0.430	0.800	1.810	188.53	-0.50	2.10	 	 	 	 	 	 	 	 	 	 	 	 	 	 	 	 	 	 	1581487204	7.67	14.20
12/02/2020 06:00:05	120220	12022020	060005	189.13	13.122665	-57.068978	189.31	-0.100	0.720	0.790	189.28	-0.70	1.00	 	 	 	 	 	 	 	 	 	 	 	 	 	 	 	 	 	 	1581487205	7.77	14.39
12/02/2020 06:00:06	120220	12022020	060006	189.82	13.122628	-57.068982	189.97	0.360	0.060	0.050	189.90	-1.50	0.50	 	 	 	 	 	 	 	 	 	 	 	 	 	 	 	 	 	 	1581487206	7.98	14.78
12/02/2020 06:00:07	120220	12022020	060007	189.97	13.122590	-57.068985	190.08	0.730	-0.900	0.150	189.92	-2.40	0.80	 	 	 	 	 	 	 	 	 	 	 	 	 	 	 	 	 	 	1581487207	8.43	15.61
12/02/2020 06:00:08	120220	12022020	060008	189.50	13.122550	-57.068992	189.62	0.810	-1.450	1.000	189.37	-2.80	1.70	 	 	 	 	 	 	 	 	 	 	 	 	 	 	 	 	 	 	1581487208	8.70	16.11
12/02/2020 06:00:09	120220	12022020	060009	188.87	13.122512	-57.069000	189.01	0.490	-1.100	2.020	188.76	-2.30	2.70	 	 	 	 	 	 	 	 	 	 	 	 	 	 	 	 	 	 	1581487209	8.46	15.67
12/02/2020 06:00:10	120220	12022020	060010	188.44	13.122477	-57.069010	188.61	-0.140	-0.250	2.810	188.39	-1.40	3.40	 	 	 	 	 	 	 	 	 	 	 	 	 	 	 	 	 	 	1581487210	7.77	14.39
12/02/2020 06:00:11	120220	12022020	060011	188.31	13.122443	-57.069020	188.49	-0.780	0.360	3.180	188.31	-0.90	3.70	 	 	 	 	 	 	 	 	 	 	 	 	 	 	 	 	 	 	1581487211	7.39	13.69
12/02/2020 06:00:12	120220	12022020	060012	188.30	13.122410	-57.069033	188.48	-1.050	0.520	3.130	188.30	-0.90	3.50	 	 	 	 	 	 	 	 	 	 	 	 	 	 	 	 	 	 	1581487212	7.68	14.22
12/02/2020 06:00:13	120220	12022020	060013	188.35	13.122375	-57.069047	188.52	-0.750	0.330	2.700	188.38	-1.10	3.00	 	 	 	 	 	 	 	 	 	 	 	 	 	 	 	 	 	 	1581487213	8.11	15.02
12/02/2020 06:00:14	120220	12022020	060014	188.59	13.122337	-57.069057	188.77	-0.040	0.060	1.860	188.67	-1.30	2.10	 	 	 	 	 	 	 	 	 	 	 	 	 	 	 	 	 	 	1581487214	8.32	15.41
12/02/2020 06:00:15	120220	12022020	060015	189.00	13.122300	-57.069065	189.17	0.680	-0.100	0.830	189.00	-1.40	1.40	 	 	 	 	 	 	 	 	 	 	 	 	 	 	 	 	 	 	1581487215	8.22	15.22
12/02/2020 06:00:16	120220	12022020	060016	189.41	13.122263	-57.069067	189.56	0.930	-0.180	0.090	189.47	-1.60	0.50	 	 	 	 	 	 	 	 	 	 	 	 	 	 	 	 	 	 	1581487216	7.97	14.76
12/02/2020 06:00:17	120220	12022020	060017	189.56	13.122227	-57.069068	189.67	0.640	-0.490	0.000	189.55	-2.00	0.50	 	 	 	 	 	 	 	 	 	 	 	 	 	 	 	 	 	 	1581487217	7.73	14.32
12/02/2020 06:00:18	120220	12022020	060018	189.38	13.122190	-57.069073	189.49	0.140	-0.990	0.530	189.32	-2.40	1.20	 	 	 	 	 	 	 	 	 	 	 	 	 	 	 	 	 	 	1581487218	7.83	14.50
12/02/2020 06:00:19	120220	12022020	060019	189.04	13.122153	-57.069083	189.16	-0.180	-1.160	1.330	188.97	-2.50	2.00	 	 	 	 	 	 	 	 	 	 	 	 	 	 	 	 	 	 	1581487219	8.25	15.28
12/02/2020 06:00:20	120220	12022020	060020	188.60	13.122118	-57.069097	188.72	-0.100	-0.840	2.070	188.50	-2.10	2.60	 	 	 	 	 	 	 	 	 	 	 	 	 	 	 	 	 	 	1581487220	8.22	15.22
12/02/2020 06:00:21	120220	12022020	060021	188.15	13.122083	-57.069108	188.28	0.150	-0.460	2.500	188.09	-1.70	3.00	 	 	 	 	 	 	 	 	 	 	 	 	 	 	 	 	 	 	1581487221	7.94	14.70
12/02/2020 06:00:22	120220	12022020	060022	187.99	13.122047	-57.069117	188.13	0.100	-0.160	2.620	188.00	-1.40	3.10	 	 	 	 	 	 	 	 	 	 	 	 	 	 	 	 	 	 	1581487222	8.05	14.91
12/02/2020 06:00:23	120220	12022020	060023	188.21	13.122008	-57.069125	188.39	-0.400	0.270	2.630	188.31	-1.00	3.10	 	 	 	 	 	 	 	 	 	 	 	 	 	 	 	 	 	 	1581487223	8.17	15.13
12/02/2020 06:00:24	120220	12022020	060024	188.78	13.121973	-57.069133	188.97	-1.060	0.750	2.510	188.91	-0.50	2.90	 	 	 	 	 	 	 	 	 	 	 	 	 	 	 	 	 	 	1581487224	7.91	14.65
12/02/2020 06:00:25	120220	12022020	060025	189.27	13.121940	-57.069145	189.44	-1.260	0.710	2.350	189.27	-0.60	2.80	 	 	 	 	 	 	 	 	 	 	 	 	 	 	 	 	 	 	1581487225	7.58	14.04
12/02/2020 06:00:26	120220	12022020	060026	189.33	13.121905	-57.069157	189.48	-0.630	-0.040	2.130	189.30	-1.60	2.50	 	 	 	 	 	 	 	 	 	 	 	 	 	 	 	 	 	 	1581487226	7.94	14.70
12/02/2020 06:00:27	120220	12022020	060027	189.11	13.121867	-57.069168	189.25	0.490	-0.770	1.690	189.11	-2.10	2.20	 	 	 	 	 	 	 	 	 	 	 	 	 	 	 	 	 	 	1581487227	8.63	15.98
12/02/2020 06:00:28	120220	12022020	060028	188.91	13.121827	-57.069175	189.05	1.270	-0.790	1.100	188.89	-2.10	1.40	 	 	 	 	 	 	 	 	 	 	 	 	 	 	 	 	 	 	1581487228	8.66	16.04
12/02/2020 06:00:29	120220	12022020	060029	188.90	13.121790	-57.069177	189.05	1.170	-0.260	0.630	188.90	-1.70	1.10	 	 	 	 	 	 	 	 	 	 	 	 	 	 	 	 	 	 	1581487229	8.00	14.82
12/02/2020 06:00:30	120220	12022020	060030	189.07	13.121755	-57.069177	189.20	0.470	0.260	0.530	189.11	-1.00	1.00	 	 	 	 	 	 	 	 	 	 	 	 	 	 	 	 	 	 	1581487230	7.31	13.54
12/02/2020 06:00:31	120220	12022020	060031	189.26	13.121722	-57.069182	189.40	-0.170	0.270	0.850	189.28	-1.20	1.40	 	 	 	 	 	 	 	 	 	 	 	 	 	 	 	 	 	 	1581487231	7.15	13.24
12/02/2020 06:00:32	120220	12022020	060032	189.25	13.121688	-57.069192	189.38	-0.380	-0.410	1.590	189.21	-2.00	2.30	 	 	 	 	 	 	 	 	 	 	 	 	 	 	 	 	 	 	1581487232	7.68	14.22
12/02/2020 06:00:33	120220	12022020	060033	188.92	13.121650	-57.069205	189.05	-0.240	-1.240	2.660	188.82	-2.70	3.30	 	 	 	 	 	 	 	 	 	 	 	 	 	 	 	 	 	 	1581487233	8.56	15.85
12/02/2020 06:00:34	120220	12022020	060034	188.44	13.121612	-57.069222	188.60	-0.090	-1.380	3.430	188.35	-2.60	3.90	 	 	 	 	 	 	 	 	 	 	 	 	 	 	 	 	 	 	1581487234	9.03	16.72
12/02/2020 06:00:35	120220	12022020	060035	188.00	13.121575	-57.069237	188.17	-0.070	-0.720	3.580	187.92	-1.90	4.00	 	 	 	 	 	 	 	 	 	 	 	 	 	 	 	 	 	 	1581487235	8.48	15.70
12/02/2020 06:00:36	120220	12022020	060036	187.63	13.121542	-57.069247	187.80	-0.050	0.070	3.150	187.59	-1.10	3.40	 	 	 	 	 	 	 	 	 	 	 	 	 	 	 	 	 	 	1581487236	7.69	14.24
12/02/2020 06:00:37	120220	12022020	060037	187.63	13.121507	-57.069255	187.81	0.020	0.660	2.080	187.70	-0.60	2.30	 	 	 	 	 	 	 	 	 	 	 	 	 	 	 	 	 	 	1581487237	7.59	14.06
12/02/2020 06:00:38	120220	12022020	060038	188.13	13.121470	-57.069257	188.29	0.060	0.870	0.790	188.26	-0.50	1.00	 	 	 	 	 	 	 	 	 	 	 	 	 	 	 	 	 	 	1581487238	7.71	14.28
12/02/2020 06:00:39	120220	12022020	060039	188.77	13.121433	-57.069257	188.93	-0.030	0.490	0.050	188.88	-1.00	0.50	 	 	 	 	 	 	 	 	 	 	 	 	 	 	 	 	 	 	1581487239	7.85	14.54
12/02/2020 06:00:40	120220	12022020	060040	189.08	13.121397	-57.069260	189.20	-0.100	-0.430	0.250	189.08	-2.00	0.90	 	 	 	 	 	 	 	 	 	 	 	 	 	 	 	 	 	 	1581487240	8.11	15.02
12/02/2020 06:00:41	120220	12022020	060041	188.87	13.121358	-57.069268	188.96	-0.060	-1.340	1.210	188.77	-2.80	1.90	 	 	 	 	 	 	 	 	 	 	 	 	 	 	 	 	 	 	1581487241	8.54	15.82
12/02/2020 06:00:42	120220	12022020	060042	188.26	13.121318	-57.069282	188.35	0.090	-1.650	2.380	188.11	-3.00	3.10	 	 	 	 	 	 	 	 	 	 	 	 	 	 	 	 	 	 	1581487242	8.72	16.15
12/02/2020 06:00:43	120220	12022020	060043	187.57	13.121282	-57.069295	187.68	0.230	-1.220	3.250	187.47	-2.40	3.80	 	 	 	 	 	 	 	 	 	 	 	 	 	 	 	 	 	 	1581487243	8.48	15.70
12/02/2020 06:00:44	120220	12022020	060044	187.22	13.121247	-57.069308	187.38	0.170	-0.190	3.450	187.21	-1.30	3.80	 	 	 	 	 	 	 	 	 	 	 	 	 	 	 	 	 	 	1581487244	8.01	14.83
12/02/2020 06:00:45	120220	12022020	060045	187.31	13.121213	-57.069318	187.47	-0.090	0.910	2.950	187.37	-0.30	3.20	 	 	 	 	 	 	 	 	 	 	 	 	 	 	 	 	 	 	1581487245	7.43	13.76
12/02/2020 06:00:46	120220	12022020	060046	187.66	13.121182	-57.069323	187.81	-0.370	1.420	2.110	187.75	0.10	2.40	 	 	 	 	 	 	 	 	 	 	 	 	 	 	 	 	 	 	1581487246	7.13	13.20
12/02/2020 06:00:47	120220	12022020	060047	188.07	13.121147	-57.069327	188.21	-0.470	0.930	1.410	188.14	-0.70	1.80	 	 	 	 	 	 	 	 	 	 	 	 	 	 	 	 	 	 	1581487247	7.44	13.78
12/02/2020 06:00:48	120220	12022020	060048	188.31	13.121108	-57.069332	188.43	-0.200	-0.320	1.160	188.33	-2.00	1.60	 	 	 	 	 	 	 	 	 	 	 	 	 	 	 	 	 	 	1581487248	8.20	15.19
12/02/2020 06:00:49	120220	12022020	060049	188.31	13.121068	-57.069340	188.39	0.380	-1.440	1.140	188.28	-2.90	1.60	 	 	 	 	 	 	 	 	 	 	 	 	 	 	 	 	 	 	1581487249	8.93	16.54
12/02/2020 06:00:50	120220	12022020	060050	188.20	13.121028	-57.069350	188.29	0.880	-1.620	1.170	188.20	-2.90	1.60	 	 	 	 	 	 	 	 	 	 	 	 	 	 	 	 	 	 	1581487250	8.89	16.46
12/02/2020 06:00:51	120220	12022020	060051	188.29	13.120992	-57.069355	188.39	0.820	-0.810	1.150	188.33	-1.90	1.60	 	 	 	 	 	 	 	 	 	 	 	 	 	 	 	 	 	 	1581487251	8.00	14.82
12/02/2020 06:00:52	120220	12022020	060052	188.46	13.120958	-57.069360	188.56	0.220	0.110	1.160	188.47	-1.10	1.70	 	 	 	 	 	 	 	 	 	 	 	 	 	 	 	 	 	 	1581487252	7.02	13.00
12/02/2020 06:00:53	120220	12022020	060053	188.40	13.120927	-57.069365	188.48	-0.510	0.360	1.420	188.40	-1.00	1.80	 	 	 	 	 	 	 	 	 	 	 	 	 	 	 	 	 	 	1581487253	6.89	12.76
12/02/2020 06:00:54	120220	12022020	060054	188.05	13.120893	-57.069375	188.15	-0.870	-0.080	1.930	187.97	-1.60	2.50	 	 	 	 	 	 	 	 	 	 	 	 	 	 	 	 	 	 	1581487254	7.68	14.22
12/02/2020 06:00:55	120220	12022020	060055	187.66	13.120855	-57.069387	187.80	-0.720	-0.590	2.380	187.61	-2.00	2.90	 	 	 	 	 	 	 	 	 	 	 	 	 	 	 	 	 	 	1581487255	8.63	15.98
12/02/2020 06:00:56	120220	12022020	060056	187.52	13.120815	-57.069400	187.67	-0.290	-0.630	2.450	187.53	-1.90	2.90	 	 	 	 	 	 	 	 	 	 	 	 	 	 	 	 	 	 	1581487256	8.85	16.39
12/02/2020 06:00:57	120220	12022020	060057	187.64	13.120778	-57.069412	187.80	0.120	-0.330	2.130	187.68	-1.60	2.50	 	 	 	 	 	 	 	 	 	 	 	 	 	 	 	 	 	 	1581487257	8.35	15.46
12/02/2020 06:00:58	120220	12022020	060058	187.93	13.120742	-57.069420	188.09	0.320	0.050	1.580	187.99	-1.20	1.90	 	 	 	 	 	 	 	 	 	 	 	 	 	 	 	 	 	 	1581487258	7.92	14.67
12/02/2020 06:00:59	120220	12022020	060059	188.24	13.120707	-57.069425	188.38	0.320	0.340	1.090	188.28	-1.00	1.50	 	 	 	 	 	 	 	 	 	 	 	 	 	 	 	 	 	 	1581487259	7.70	14.26
12/02/2020 06:01:00	120220	12022020	060100	188.36	13.120672	-57.069428	188.49	0.220	0.390	0.950	188.36	-1.00	1.40	 	 	 	 	 	 	 	 	 	 	 	 	 	 	 	 	 	 	1581487260	7.62	14.11
12/02/2020 06:01:01	120220	12022020	060101	188.30	13.120635	-57.069433	188.42	0.090	0.200	1.080	188.28	-1.20	1.60	1015.50	26.00	26.10	21.50	21.50	-1.0	76.0	75.0	433.0	25.6	274.00	8.50	76.00	9.20	15	8701.0	27.2	27.2	1581487261	7.73	14.32
12/02/2020 06:01:02	120220	12022020	060102	188.24	13.120600	-57.069440	188.36	-0.060	-0.090	1.280	188.24	-1.50	1.80	 	 	 	 	 	 	 	 	 	 	 	 	 	 	 	 	 	 	1581487262	7.89	14.61
12/02/2020 06:01:03	120220	12022020	060103	188.27	13.120563	-57.069448	188.40	-0.130	-0.410	1.510	188.27	-1.70	1.90	 	 	 	 	 	 	 	 	 	 	 	 	 	 	 	 	 	 	1581487263	7.93	14.69
12/02/2020 06:01:04	120220	12022020	060104	188.30	13.120528	-57.069458	188.42	0.010	-0.760	1.680	188.28	-2.20	2.20	 	 	 	 	 	 	 	 	 	 	 	 	 	 	 	 	 	 	1581487264	7.96	14.74
12/02/2020 06:01:05	120220	12022020	060105	188.15	13.120492	-57.069468	188.28	0.260	-1.100	1.880	188.15	-2.40	2.30	 	 	 	 	 	 	 	 	 	 	 	 	 	 	 	 	 	 	1581487265	8.04	14.89
12/02/2020 06:01:06	120220	12022020	060106	187.92	13.120455	-57.069477	188.05	0.370	-1.160	2.130	187.88	-2.40	2.60	 	 	 	 	 	 	 	 	 	 	 	 	 	 	 	 	 	 	1581487266	8.21	15.20
12/02/2020 06:01:07	120220	12022020	060107	187.69	13.120418	-57.069485	187.81	0.150	-0.730	2.370	187.64	-1.90	2.90	 	 	 	 	 	 	 	 	 	 	 	 	 	 	 	 	 	 	1581487267	8.12	15.04
12/02/2020 06:01:08	120220	12022020	060108	187.30	13.120383	-57.069493	187.40	-0.230	-0.150	2.660	187.20	-1.40	3.20	 	 	 	 	 	 	 	 	 	 	 	 	 	 	 	 	 	 	1581487268	7.73	14.32
12/02/2020 06:01:09	120220	12022020	060109	186.81	13.120348	-57.069502	186.93	-0.510	0.200	2.970	186.75	-1.10	3.40	 	 	 	 	 	 	 	 	 	 	 	 	 	 	 	 	 	 	1581487269	7.71	14.28
12/02/2020 06:01:10	120220	12022020	060110	186.71	13.120312	-57.069512	186.87	-0.570	0.430	2.920	186.76	-0.90	3.30	 	 	 	 	 	 	 	 	 	 	 	 	 	 	 	 	 	 	1581487270	8.09	14.98
12/02/2020 06:01:11	120220	12022020	060111	187.15	13.120275	-57.069522	187.33	-0.400	0.600	2.290	187.30	-0.70	2.60	 	 	 	 	 	 	 	 	 	 	 	 	 	 	 	 	 	 	1581487271	8.16	15.11
12/02/2020 06:01:12	120220	12022020	060112	187.90	13.120238	-57.069530	188.06	-0.070	0.540	1.420	188.05	-0.90	1.70	 	 	 	 	 	 	 	 	 	 	 	 	 	 	 	 	 	 	1581487272	7.95	14.72
12/02/2020 06:01:13	120220	12022020	060113	188.59	13.120202	-57.069533	188.73	0.270	0.120	0.820	188.70	-1.40	1.20	 	 	 	 	 	 	 	 	 	 	 	 	 	 	 	 	 	 	1581487273	7.87	14.58
12/02/2020 06:01:14	120220	12022020	060114	188.91	13.120165	-57.069537	189.02	0.470	-0.480	0.760	188.92	-2.00	1.30	 	 	 	 	 	 	 	 	 	 	 	 	 	 	 	 	 	 	1581487274	8.00	14.82
12/02/2020 06:01:15	120220	12022020	060115	188.75	13.120128	-57.069543	188.84	0.480	-0.920	1.150	188.69	-2.30	1.70	 	 	 	 	 	 	 	 	 	 	 	 	 	 	 	 	 	 	1581487275	8.07	14.95
12/02/2020 06:01:16	120220	12022020	060116	188.38	13.120092	-57.069550	188.48	0.260	-0.960	1.870	188.30	-2.30	2.50	 	 	 	 	 	 	 	 	 	 	 	 	 	 	 	 	 	 	1581487276	8.01	14.83
12/02/2020 06:01:17	120220	12022020	060117	187.98	13.120057	-57.069560	188.08	-0.010	-0.780	2.620	187.98	-2.20	3.00	 	 	 	 	 	 	 	 	 	 	 	 	 	 	 	 	 	 	1581487277	7.78	14.41
12/02/2020 06:01:18	120220	12022020	060118	187.59	13.120022	-57.069572	187.72	-0.100	-0.690	2.990	187.52	-2.00	3.40	 	 	 	 	 	 	 	 	 	 	 	 	 	 	 	 	 	 	1581487278	7.84	14.52
12/02/2020 06:01:19	120220	12022020	060119	187.31	13.119985	-57.069583	187.47	0.010	-0.600	2.810	187.31	-2.00	3.30	 	 	 	 	 	 	 	 	 	 	 	 	 	 	 	 	 	 	1581487279	8.14	15.08
12/02/2020 06:01:20	120220	12022020	060120	187.45	13.119948	-57.069590	187.65	-0.050	-0.150	2.270	187.53	-1.40	2.60	 	 	 	 	 	 	 	 	 	 	 	 	 	 	 	 	 	 	1581487280	8.31	15.39
12/02/2020 06:01:21	120220	12022020	060121	188.02	13.119912	-57.069595	188.21	-0.480	0.590	1.620	188.15	-0.60	1.90	 	 	 	 	 	 	 	 	 	 	 	 	 	 	 	 	 	 	1581487281	7.85	14.54
12/02/2020 06:01:22	120220	12022020	060122	188.66	13.119878	-57.069600	188.82	-0.940	0.990	1.070	188.76	-0.40	1.50	 	 	 	 	 	 	 	 	 	 	 	 	 	 	 	 	 	 	1581487282	7.24	13.41
12/02/2020 06:01:23	120220	12022020	060123	188.94	13.119845	-57.069608	189.06	-0.810	0.470	0.990	188.93	-1.10	1.50	 	 	 	 	 	 	 	 	 	 	 	 	 	 	 	 	 	 	1581487283	7.33	13.58
12/02/2020 06:01:24	120220	12022020	060124	188.72	13.119808	-57.069618	188.83	0.060	-0.720	1.270	188.65	-2.30	1.80	 	 	 	 	 	 	 	 	 	 	 	 	 	 	 	 	 	 	1581487284	8.22	15.22
12/02/2020 06:01:25	120220	12022020	060125	188.48	13.119767	-57.069628	188.60	0.960	-1.350	1.440	188.46	-2.70	1.90	 	 	 	 	 	 	 	 	 	 	 	 	 	 	 	 	 	 	1581487285	9.09	16.83
12/02/2020 06:01:26	120220	12022020	060126	188.49	13.119728	-57.069635	188.66	1.180	-0.730	1.360	188.52	-1.80	1.80	 	 	 	 	 	 	 	 	 	 	 	 	 	 	 	 	 	 	1581487286	8.62	15.96
12/02/2020 06:01:27	120220	12022020	060127	188.57	13.119695	-57.069640	188.71	0.700	0.360	1.180	188.57	-0.80	1.60	 	 	 	 	 	 	 	 	 	 	 	 	 	 	 	 	 	 	1581487287	7.24	13.41
12/02/2020 06:01:28	120220	12022020	060128	188.57	13.119663	-57.069643	188.71	0.010	0.780	1.160	188.57	-0.60	1.60	 	 	 	 	 	 	 	 	 	 	 	 	 	 	 	 	 	 	1581487288	6.63	12.28
12/02/2020 06:01:29	120220	12022020	060129	188.65	13.119630	-57.069648	188.81	-0.480	0.250	1.380	188.68	-1.30	1.90	 	 	 	 	 	 	 	 	 	 	 	 	 	 	 	 	 	 	1581487289	7.27	13.46
12/02/2020 06:01:30	120220	12022020	060130	188.78	13.119593	-57.069658	188.94	-0.620	-0.640	1.890	188.80	-2.20	2.50	 	 	 	 	 	 	 	 	 	 	 	 	 	 	 	 	 	 	1581487290	8.24	15.26
12/02/2020 06:01:31	120220	12022020	060131	188.67	13.119555	-57.069672	188.80	-0.450	-1.310	2.440	188.60	-2.80	3.00	 	 	 	 	 	 	 	 	 	 	 	 	 	 	 	 	 	 	1581487291	8.70	16.11
12/02/2020 06:01:32	120220	12022020	060132	188.16	13.119517	-57.069685	188.28	-0.160	-1.530	2.880	188.05	-2.90	3.40	 	 	 	 	 	 	 	 	 	 	 	 	 	 	 	 	 	 	1581487292	8.61	15.95
12/02/2020 06:01:33	120220	12022020	060133	187.64	13.119480	-57.069697	187.78	0.010	-1.150	3.020	187.58	-2.30	3.40	 	 	 	 	 	 	 	 	 	 	 	 	 	 	 	 	 	 	1581487293	8.39	15.54
12/02/2020 06:01:34	120220	12022020	060134	187.54	13.119443	-57.069707	187.72	-0.070	-0.170	2.690	187.58	-1.30	3.00	 	 	 	 	 	 	 	 	 	 	 	 	 	 	 	 	 	 	1581487294	7.99	14.80
12/02/2020 06:01:35	120220	12022020	060135	187.76	13.119410	-57.069715	187.94	-0.230	0.850	2.060	187.81	-0.40	2.40	 	 	 	 	 	 	 	 	 	 	 	 	 	 	 	 	 	 	1581487295	7.35	13.61
12/02/2020 06:01:36	120220	12022020	060136	187.99	13.119378	-57.069720	188.14	-0.220	1.100	1.400	188.03	-0.30	1.70	 	 	 	 	 	 	 	 	 	 	 	 	 	 	 	 	 	 	1581487296	7.16	13.26
12/02/2020 06:01:37	120220	12022020	060137	188.20	13.119342	-57.069725	188.34	0.040	0.620	0.910	188.25	-0.90	1.30	 	 	 	 	 	 	 	 	 	 	 	 	 	 	 	 	 	 	1581487297	7.81	14.46
12/02/2020 06:01:38	120220	12022020	060138	188.58	13.119303	-57.069730	188.74	0.340	0.100	0.670	188.70	-1.30	1.10	 	 	 	 	 	 	 	 	 	 	 	 	 	 	 	 	 	 	1581487298	8.46	15.67
12/02/2020 06:01:39	120220	12022020	060139	189.20	13.119265	-57.069737	189.37	0.480	-0.010	0.530	189.32	-1.40	1.00	 	 	 	 	 	 	 	 	 	 	 	 	 	 	 	 	 	 	1581487299	8.26	15.30
12/02/2020 06:01:40	120220	12022020	060140	189.58	13.119230	-57.069742	189.71	0.530	-0.230	0.630	189.58	-1.70	1.20	 	 	 	 	 	 	 	 	 	 	 	 	 	 	 	 	 	 	1581487300	7.53	13.95
12/02/2020 06:01:41	120220	12022020	060141	189.32	13.119195	-57.069747	189.42	0.620	-0.970	1.290	189.32	-2.20	1.70	 	 	 	 	 	 	 	 	 	 	 	 	 	 	 	 	 	 	1581487301	7.50	13.89
12/02/2020 06:01:42	120220	12022020	060142	188.71	13.119158	-57.069755	188.81	0.580	-1.660	2.300	188.58	-3.10	3.00	 	 	 	 	 	 	 	 	 	 	 	 	 	 	 	 	 	 	1581487302	8.26	15.30
12/02/2020 06:01:43	120220	12022020	060143	188.13	13.119120	-57.069765	188.29	0.170	-1.670	3.210	188.13	-3.10	3.60	 	 	 	 	 	 	 	 	 	 	 	 	 	 	 	 	 	 	1581487303	8.58	15.89
12/02/2020 06:01:44	120220	12022020	060144	187.85	13.119083	-57.069777	188.06	-0.560	-0.900	3.850	187.82	-2.00	4.40	 	 	 	 	 	 	 	 	 	 	 	 	 	 	 	 	 	 	1581487304	8.23	15.24
12/02/2020 06:01:45	120220	12022020	060145	187.78	13.119050	-57.069792	188.00	-1.240	0.160	4.030	187.77	-1.00	4.40	 	 	 	 	 	 	 	 	 	 	 	 	 	 	 	 	 	 	1581487305	7.71	14.28
12/02/2020 06:01:46	120220	12022020	060146	187.72	13.119018	-57.069805	187.92	-1.350	0.710	3.700	187.70	-0.60	4.00	 	 	 	 	 	 	 	 	 	 	 	 	 	 	 	 	 	 	1581487306	7.47	13.83
12/02/2020 06:01:47	120220	12022020	060147	187.59	13.118983	-57.069818	187.80	-0.690	0.390	2.980	187.58	-1.10	3.20	 	 	 	 	 	 	 	 	 	 	 	 	 	 	 	 	 	 	1581487307	7.89	14.61
12/02/2020 06:01:48	120220	12022020	060148	187.67	13.118943	-57.069827	187.88	0.250	-0.010	1.930	187.75	-1.40	2.10	 	 	 	 	 	 	 	 	 	 	 	 	 	 	 	 	 	 	1581487308	8.73	16.17
12/02/2020 06:01:49	120220	12022020	060149	188.30	13.118903	-57.069832	188.52	0.780	0.330	0.660	188.49	-0.90	0.90	 	 	 	 	 	 	 	 	 	 	 	 	 	 	 	 	 	 	1581487309	8.75	16.21
12/02/2020 06:01:50	120220	12022020	060150	189.28	13.118868	-57.069832	189.48	0.650	0.930	-0.420	189.47	-0.40	-0.10	 	 	 	 	 	 	 	 	 	 	 	 	 	 	 	 	 	 	1581487310	7.72	14.30
12/02/2020 06:01:51	120220	12022020	060151	189.98	13.118835	-57.069830	190.12	0.370	0.710	-0.700	190.03	-0.90	-0.10	 	 	 	 	 	 	 	 	 	 	 	 	 	 	 	 	 	 	1581487311	6.95	12.87
12/02/2020 06:01:52	120220	12022020	060152	189.97	13.118802	-57.069835	190.08	0.500	-0.550	-0.020	189.89	-2.20	0.70	 	 	 	 	 	 	 	 	 	 	 	 	 	 	 	 	 	 	1581487312	7.41	13.72
12/02/2020 06:01:53	120220	12022020	060153	189.55	13.118762	-57.069843	189.68	0.850	-1.770	1.070	189.45	-3.20	1.80	 	 	 	 	 	 	 	 	 	 	 	 	 	 	 	 	 	 	1581487313	8.56	15.85
12/02/2020 06:01:54	120220	12022020	060154	189.13	13.118723	-57.069853	189.29	0.800	-1.980	2.200	189.05	-3.20	2.90	 	 	 	 	 	 	 	 	 	 	 	 	 	 	 	 	 	 	1581487314	8.77	16.24
12/02/2020 06:01:55	120220	12022020	060155	188.71	13.118687	-57.069863	188.90	0.090	-1.390	3.240	188.71	-2.80	3.60	 	 	 	 	 	 	 	 	 	 	 	 	 	 	 	 	 	 	1581487315	8.00	14.82
12/02/2020 06:01:56	120220	12022020	060156	188.17	13.118653	-57.069877	188.36	-0.860	-0.710	4.130	188.04	-1.90	4.70	 	 	 	 	 	 	 	 	 	 	 	 	 	 	 	 	 	 	1581487316	7.52	13.93
12/02/2020 06:01:57	120220	12022020	060157	187.57	13.118620	-57.069892	187.78	-1.400	-0.300	4.630	187.49	-1.50	5.10	 	 	 	 	 	 	 	 	 	 	 	 	 	 	 	 	 	 	1581487317	7.93	14.69
12/02/2020 06:01:58	120220	12022020	060158	187.33	13.118585	-57.069910	187.57	-1.310	0.190	4.380	187.35	-1.00	4.70	 	 	 	 	 	 	 	 	 	 	 	 	 	 	 	 	 	 	1581487318	8.59	15.91
12/02/2020 06:01:59	120220	12022020	060159	187.57	13.118548	-57.069925	187.78	-0.790	0.830	3.370	187.64	-0.40	3.50	 	 	 	 	 	 	 	 	 	 	 	 	 	 	 	 	 	 	1581487319	8.40	15.56
12/02/2020 06:02:00	120220	12022020	060200	187.99	13.118513	-57.069933	188.16	-0.060	1.150	1.900	188.08	-0.20	2.00	 	 	 	 	 	 	 	 	 	 	 	 	 	 	 	 	 	 	1581487320	7.84	14.52
12/02/2020 06:02:01	120220	12022020	060201	188.50	13.118477	-57.069937	188.65	0.610	0.980	0.350	188.63	-0.40	0.50	1015.40	26.10	26.20	21.70	21.70	-1.0	76.0	76.0	431.0	25.6	272.00	8.60	75.00	9.40	15	9456.0	27.2	27.2	1581487321	7.83	14.50
12/02/2020 06:02:02	120220	12022020	060202	189.20	13.118438	-57.069933	189.33	0.960	0.520	-0.700	189.33	-1.00	-0.30	 	 	 	 	 	 	 	 	 	 	 	 	 	 	 	 	 	 	1581487322	8.16	15.11
12/02/2020 06:02:03	120220	12022020	060203	189.70	13.118402	-57.069932	189.81	0.980	-0.260	-0.740	189.73	-1.80	-0.10	 	 	 	 	 	 	 	 	 	 	 	 	 	 	 	 	 	 	1581487323	8.06	14.93
12/02/2020 06:02:04	120220	12022020	060204	189.58	13.118365	-57.069935	189.69	0.870	-1.210	0.160	189.50	-2.70	0.90	 	 	 	 	 	 	 	 	 	 	 	 	 	 	 	 	 	 	1581487324	7.96	14.74
12/02/2020 06:02:05	120220	12022020	060205	189.13	13.118327	-57.069945	189.26	0.630	-1.690	1.540	189.13	-3.00	1.80	 	 	 	 	 	 	 	 	 	 	 	 	 	 	 	 	 	 	1581487325	8.22	15.22
12/02/2020 06:02:06	120220	12022020	060206	188.72	13.118292	-57.069958	188.91	0.180	-1.350	2.740	188.65	-2.50	3.40	 	 	 	 	 	 	 	 	 	 	 	 	 	 	 	 	 	 	1581487326	8.05	14.91
12/02/2020 06:02:07	120220	12022020	060207	188.36	13.118260	-57.069972	188.56	-0.380	-0.790	3.460	188.36	-2.20	3.80	 	 	 	 	 	 	 	 	 	 	 	 	 	 	 	 	 	 	1581487327	7.55	13.98
12/02/2020 06:02:08	120220	12022020	060208	188.00	13.118227	-57.069987	188.20	-0.770	-0.560	3.810	187.93	-1.90	4.30	 	 	 	 	 	 	 	 	 	 	 	 	 	 	 	 	 	 	1581487328	7.60	14.08
12/02/2020 06:02:09	120220	12022020	060209	187.72	13.118192	-57.070000	187.93	-0.770	-0.550	3.690	187.72	-1.90	4.20	 	 	 	 	 	 	 	 	 	 	 	 	 	 	 	 	 	 	1581487329	8.22	15.22
12/02/2020 06:02:10	120220	12022020	060210	187.62	13.118153	-57.070012	187.83	-0.480	-0.380	3.090	187.64	-1.60	3.40	 	 	 	 	 	 	 	 	 	 	 	 	 	 	 	 	 	 	1581487330	8.57	15.87
12/02/2020 06:02:11	120220	12022020	060211	187.83	13.118115	-57.070020	188.03	-0.240	0.180	2.200	187.91	-1.00	2.50	 	 	 	 	 	 	 	 	 	 	 	 	 	 	 	 	 	 	1581487331	8.41	15.58
12/02/2020 06:02:12	120220	12022020	060212	188.22	13.118078	-57.070025	188.41	-0.190	0.820	1.260	188.31	-0.40	1.60	 	 	 	 	 	 	 	 	 	 	 	 	 	 	 	 	 	 	1581487332	7.87	14.58
12/02/2020 06:02:13	120220	12022020	060213	188.61	13.118043	-57.070028	188.78	-0.200	1.020	0.630	188.68	-0.30	1.00	 	 	 	 	 	 	 	 	 	 	 	 	 	 	 	 	 	 	1581487333	7.55	13.98
12/02/2020 06:02:14	120220	12022020	060214	188.96	13.118008	-57.070033	189.12	-0.000	0.690	0.400	189.03	-0.80	0.90	 	 	 	 	 	 	 	 	 	 	 	 	 	 	 	 	 	 	1581487334	7.71	14.28
12/02/2020 06:02:15	120220	12022020	060215	189.28	13.117972	-57.070040	189.43	0.390	0.150	0.320	189.33	-1.30	0.80	 	 	 	 	 	 	 	 	 	 	 	 	 	 	 	 	 	 	1581487335	8.07	14.95
12/02/2020 06:02:16	120220	12022020	060216	189.43	13.117935	-57.070047	189.57	0.730	-0.320	0.610	189.43	-1.70	1.20	 	 	 	 	 	 	 	 	 	 	 	 	 	 	 	 	 	 	1581487336	8.08	14.96
12/02/2020 06:02:17	120220	12022020	060217	189.27	13.117898	-57.070055	189.41	0.870	-0.690	1.310	189.20	-2.10	2.00	 	 	 	 	 	 	 	 	 	 	 	 	 	 	 	 	 	 	1581487337	7.86	14.56
12/02/2020 06:02:18	120220	12022020	060218	188.85	13.117863	-57.070063	188.98	0.790	-0.980	2.100	188.76	-2.40	2.70	 	 	 	 	 	 	 	 	 	 	 	 	 	 	 	 	 	 	1581487338	7.72	14.30
12/02/2020 06:02:19	120220	12022020	060219	188.34	13.117828	-57.070072	188.49	0.520	-1.150	2.800	188.22	-2.50	3.40	 	 	 	 	 	 	 	 	 	 	 	 	 	 	 	 	 	 	1581487339	7.80	14.45
12/02/2020 06:02:20	120220	12022020	060220	187.81	13.117793	-57.070082	187.98	0.060	-1.210	3.430	187.71	-2.50	4.00	 	 	 	 	 	 	 	 	 	 	 	 	 	 	 	 	 	 	1581487340	7.95	14.72
12/02/2020 06:02:21	120220	12022020	060221	187.46	13.117757	-57.070093	187.66	-0.550	-0.980	3.790	187.42	-2.20	4.30	 	 	 	 	 	 	 	 	 	 	 	 	 	 	 	 	 	 	1581487341	8.22	15.22
12/02/2020 06:02:22	120220	12022020	060222	187.38	13.117722	-57.070107	187.61	-1.140	-0.340	3.780	187.40	-1.50	4.20	 	 	 	 	 	 	 	 	 	 	 	 	 	 	 	 	 	 	1581487342	8.19	15.17
12/02/2020 06:02:23	120220	12022020	060223	187.60	13.117687	-57.070122	187.83	-1.360	0.400	3.240	187.66	-0.80	3.50	 	 	 	 	 	 	 	 	 	 	 	 	 	 	 	 	 	 	1581487343	7.87	14.58
12/02/2020 06:02:24	120220	12022020	060224	187.99	13.117653	-57.070133	188.19	-0.890	0.720	2.240	188.08	-0.60	2.40	 	 	 	 	 	 	 	 	 	 	 	 	 	 	 	 	 	 	1581487344	7.66	14.19
12/02/2020 06:02:25	120220	12022020	060225	188.34	13.117618	-57.070142	188.49	0.170	0.430	1.060	188.39	-1.00	1.30	 	 	 	 	 	 	 	 	 	 	 	 	 	 	 	 	 	 	1581487345	7.87	14.58
12/02/2020 06:02:26	120220	12022020	060226	188.61	13.117578	-57.070145	188.75	1.160	-0.030	0.090	188.68	-1.40	0.40	 	 	 	 	 	 	 	 	 	 	 	 	 	 	 	 	 	 	1581487346	8.47	15.69
12/02/2020 06:02:27	120220	12022020	060227	188.97	13.117538	-57.070143	189.10	1.360	-0.080	-0.290	189.03	-1.40	0.20	 	 	 	 	 	 	 	 	 	 	 	 	 	 	 	 	 	 	1581487347	8.69	16.09
12/02/2020 06:02:28	120220	12022020	060228	189.13	13.117502	-57.070142	189.24	0.780	-0.050	0.210	189.09	-1.40	0.90	 	 	 	 	 	 	 	 	 	 	 	 	 	 	 	 	 	 	1581487348	7.99	14.80
12/02/2020 06:02:29	120220	12022020	060229	188.67	13.117467	-57.070147	188.78	0.010	-0.500	1.660	188.52	-2.00	2.50	 	 	 	 	 	 	 	 	 	 	 	 	 	 	 	 	 	 	1581487349	7.54	13.96
12/02/2020 06:02:30	120220	12022020	060230	187.92	13.117430	-57.070160	188.07	-0.570	-0.990	3.410	187.79	-2.30	4.20	 	 	 	 	 	 	 	 	 	 	 	 	 	 	 	 	 	 	1581487350	8.26	15.30
12/02/2020 06:02:31	120220	12022020	060231	187.45	13.117393	-57.070178	187.66	-0.870	-0.870	4.520	187.45	-2.20	4.90	 	 	 	 	 	 	 	 	 	 	 	 	 	 	 	 	 	 	1581487351	8.84	16.37
12/02/2020 06:02:32	120220	12022020	060232	187.38	13.117358	-57.070198	187.62	-0.830	-0.420	4.680	187.40	-1.70	5.00	 	 	 	 	 	 	 	 	 	 	 	 	 	 	 	 	 	 	1581487352	8.41	15.58
12/02/2020 06:02:33	120220	12022020	060233	187.48	13.117327	-57.070213	187.71	-0.360	-0.150	3.910	187.48	-1.50	4.50	 	 	 	 	 	 	 	 	 	 	 	 	 	 	 	 	 	 	1581487353	7.81	14.46
12/02/2020 06:02:34	120220	12022020	060234	187.60	13.117292	-57.070223	187.79	0.370	-0.050	2.590	187.63	-1.30	2.70	 	 	 	 	 	 	 	 	 	 	 	 	 	 	 	 	 	 	1581487354	7.78	14.41
12/02/2020 06:02:35	120220	12022020	060235	187.84	13.117255	-57.070225	188.01	0.910	0.150	1.200	187.91	-1.20	1.40	 	 	 	 	 	 	 	 	 	 	 	 	 	 	 	 	 	 	1581487355	7.94	14.70
12/02/2020 06:02:36	120220	12022020	060236	188.26	13.117218	-57.070225	188.41	0.940	0.210	0.090	188.34	-1.20	0.40	 	 	 	 	 	 	 	 	 	 	 	 	 	 	 	 	 	 	1581487356	7.85	14.54
12/02/2020 06:02:37	120220	12022020	060237	188.66	13.117182	-57.070223	188.81	0.470	-0.010	-0.340	188.75	-1.40	0.20	 	 	 	 	 	 	 	 	 	 	 	 	 	 	 	 	 	 	1581487357	7.85	14.54
12/02/2020 06:02:38	120220	12022020	060238	188.98	13.117145	-57.070225	189.13	-0.180	-0.370	0.040	189.01	-1.80	0.70	 	 	 	 	 	 	 	 	 	 	 	 	 	 	 	 	 	 	1581487358	7.92	14.67
12/02/2020 06:02:39	120220	12022020	060239	188.92	13.117108	-57.070235	189.05	-0.560	-0.800	1.180	188.85	-2.20	1.90	 	 	 	 	 	 	 	 	 	 	 	 	 	 	 	 	 	 	1581487359	8.00	14.82
12/02/2020 06:02:40	120220	12022020	060240	188.44	13.117073	-57.070250	188.55	-0.450	-1.210	2.380	188.32	-2.60	3.00	 	 	 	 	 	 	 	 	 	 	 	 	 	 	 	 	 	 	1581487360	8.32	15.41
12/02/2020 06:02:41	120220	12022020	060241	187.93	13.117035	-57.070265	188.08	-0.120	-1.170	3.020	187.86	-2.40	3.50	 	 	 	 	 	 	 	 	 	 	 	 	 	 	 	 	 	 	1581487361	8.61	15.95
12/02/2020 06:02:42	120220	12022020	060242	187.74	13.116998	-57.070277	187.93	0.030	-0.500	2.980	187.74	-1.60	3.40	 	 	 	 	 	 	 	 	 	 	 	 	 	 	 	 	 	 	1581487362	8.35	15.46
12/02/2020 06:02:43	120220	12022020	060243	187.85	13.116963	-57.070283	188.04	-0.030	0.310	2.420	187.88	-0.90	2.80	 	 	 	 	 	 	 	 	 	 	 	 	 	 	 	 	 	 	1581487363	7.68	14.22
12/02/2020 06:02:44	120220	12022020	060244	187.99	13.116928	-57.070290	188.17	-0.140	0.660	1.800	188.00	-0.70	2.20	 	 	 	 	 	 	 	 	 	 	 	 	 	 	 	 	 	 	1581487364	7.45	13.80
12/02/2020 06:02:45	120220	12022020	060245	188.09	13.116893	-57.070295	188.27	-0.160	0.600	1.460	188.09	-0.70	2.00	 	 	 	 	 	 	 	 	 	 	 	 	 	 	 	 	 	 	1581487365	7.82	14.48
12/02/2020 06:02:46	120220	12022020	060246	188.27	13.116857	-57.070302	188.45	-0.180	0.370	1.410	188.31	-1.00	1.90	 	 	 	 	 	 	 	 	 	 	 	 	 	 	 	 	 	 	1581487366	8.09	14.98
12/02/2020 06:02:47	120220	12022020	060247	188.41	13.116820	-57.070308	188.56	-0.150	-0.020	1.490	188.40	-1.50	2.00	 	 	 	 	 	 	 	 	 	 	 	 	 	 	 	 	 	 	1581487367	8.02	14.85
12/02/2020 06:02:48	120220	12022020	060248	188.27	13.116783	-57.070318	188.41	0.070	-0.550	1.660	188.24	-2.00	2.20	 	 	 	 	 	 	 	 	 	 	 	 	 	 	 	 	 	 	1581487368	8.04	14.89
12/02/2020 06:02:49	120220	12022020	060249	188.13	13.116747	-57.070328	188.28	0.410	-0.800	1.610	188.11	-2.10	2.00	 	 	 	 	 	 	 	 	 	 	 	 	 	 	 	 	 	 	1581487369	8.22	15.22
12/02/2020 06:02:50	120220	12022020	060250	188.15	13.116710	-57.070337	188.31	0.560	-0.670	1.310	188.16	-2.00	1.70	 	 	 	 	 	 	 	 	 	 	 	 	 	 	 	 	 	 	1581487370	7.99	14.80
12/02/2020 06:02:51	120220	12022020	060251	188.17	13.116675	-57.070340	188.32	0.380	-0.520	1.180	188.15	-1.90	1.70	 	 	 	 	 	 	 	 	 	 	 	 	 	 	 	 	 	 	1581487371	7.63	14.13
12/02/2020 06:02:52	120220	12022020	060252	187.92	13.116640	-57.070345	188.04	0.040	-0.590	1.560	187.83	-2.00	2.20	 	 	 	 	 	 	 	 	 	 	 	 	 	 	 	 	 	 	1581487372	7.66	14.19
12/02/2020 06:02:53	120220	12022020	060253	187.56	13.116603	-57.070355	187.70	-0.260	-0.640	2.150	187.50	-2.00	2.70	 	 	 	 	 	 	 	 	 	 	 	 	 	 	 	 	 	 	1581487373	8.12	15.04
12/02/2020 06:02:54	120220	12022020	060254	187.45	13.116565	-57.070365	187.63	-0.450	-0.380	2.480	187.48	-1.60	2.90	 	 	 	 	 	 	 	 	 	 	 	 	 	 	 	 	 	 	1581487374	8.40	15.56
12/02/2020 06:02:55	120220	12022020	060255	187.77	13.116530	-57.070378	187.97	-0.480	0.160	2.240	187.87	-1.10	2.60	 	 	 	 	 	 	 	 	 	 	 	 	 	 	 	 	 	 	1581487375	8.15	15.09
12/02/2020 06:02:56	120220	12022020	060256	188.27	13.116495	-57.070387	188.46	-0.370	0.550	1.720	188.36	-0.80	2.10	 	 	 	 	 	 	 	 	 	 	 	 	 	 	 	 	 	 	1581487376	7.67	14.20
12/02/2020 06:02:57	120220	12022020	060257	188.58	13.116460	-57.070392	188.74	-0.170	0.350	1.440	188.58	-0.90	1.90	 	 	 	 	 	 	 	 	 	 	 	 	 	 	 	 	 	 	1581487377	7.58	14.04
12/02/2020 06:02:58	120220	12022020	060258	188.44	13.116423	-57.070398	188.56	0.100	-0.390	1.550	188.36	-1.90	2.10	 	 	 	 	 	 	 	 	 	 	 	 	 	 	 	 	 	 	1581487378	8.06	14.93
12/02/2020 06:02:59	120220	12022020	060259	187.91	13.116383	-57.070405	188.03	0.320	-1.000	1.900	187.91	-2.30	2.30	 	 	 	 	 	 	 	 	 	 	 	 	 	 	 	 	 	 	1581487379	8.65	16.02
12/02/2020 06:03:00	120220	12022020	060300	187.36	13.116343	-57.070413	187.50	0.300	-0.780	2.300	187.29	-2.00	2.90	 	 	 	 	 	 	 	 	 	 	 	 	 	 	 	 	 	 	1581487380	8.64	16.00
12/02/2020 06:03:01	120220	12022020	060301	186.99	13.116308	-57.070422	187.14	0.100	-0.100	2.500	186.94	-1.30	3.00	1015.40	26.10	26.10	21.30	21.40	-1.0	75.0	75.0	431.0	25.6	268.00	9.90	74.00	10.90	16	9046.0	27.2	27.2	1581487381	7.86	14.56
12/02/2020 06:03:02	120220	12022020	060302	186.81	13.116275	-57.070430	186.97	-0.090	0.310	2.360	186.81	-1.00	2.80	 	 	 	 	 	 	 	 	 	 	 	 	 	 	 	 	 	 	1581487382	7.42	13.74
12/02/2020 06:03:03	120220	12022020	060303	187.09	13.116240	-57.070438	187.27	-0.220	0.430	2.000	187.21	-0.90	2.40	 	 	 	 	 	 	 	 	 	 	 	 	 	 	 	 	 	 	1581487383	7.79	14.43
12/02/2020 06:03:04	120220	12022020	060304	187.85	13.116203	-57.070448	188.05	-0.220	0.490	1.550	188.03	-0.90	1.90	 	 	 	 	 	 	 	 	 	 	 	 	 	 	 	 	 	 	1581487384	7.96	14.74
12/02/2020 06:03:05	120220	12022020	060305	188.71	13.116168	-57.070457	188.89	-0.130	0.270	1.050	188.85	-1.20	1.40	 	 	 	 	 	 	 	 	 	 	 	 	 	 	 	 	 	 	1581487385	7.68	14.22
12/02/2020 06:03:06	120220	12022020	060306	189.16	13.116133	-57.070462	189.28	0.140	-0.590	0.840	189.16	-2.20	1.40	 	 	 	 	 	 	 	 	 	 	 	 	 	 	 	 	 	 	1581487386	7.65	14.17
12/02/2020 06:03:07	120220	12022020	060307	188.96	13.116095	-57.070468	189.05	0.490	-1.800	1.260	188.87	-3.40	1.90	 	 	 	 	 	 	 	 	 	 	 	 	 	 	 	 	 	 	1581487387	8.31	15.39
12/02/2020 06:03:08	120220	12022020	060308	188.43	13.116055	-57.070477	188.53	0.480	-2.130	2.100	188.32	-3.40	2.80	 	 	 	 	 	 	 	 	 	 	 	 	 	 	 	 	 	 	1581487388	8.99	16.65
12/02/2020 06:03:09	120220	12022020	060309	187.91	13.116017	-57.070488	188.05	0.060	-1.000	2.810	187.83	-2.00	3.40	 	 	 	 	 	 	 	 	 	 	 	 	 	 	 	 	 	 	1581487389	8.50	15.74
12/02/2020 06:03:10	120220	12022020	060310	187.71	13.115985	-57.070500	187.89	-0.440	0.670	2.870	187.73	-0.40	3.20	 	 	 	 	 	 	 	 	 	 	 	 	 	 	 	 	 	 	1581487390	7.27	13.46
12/02/2020 06:03:11	120220	12022020	060311	187.89	13.115955	-57.070508	188.08	-0.610	1.410	2.390	187.94	0.00	2.70	 	 	 	 	 	 	 	 	 	 	 	 	 	 	 	 	 	 	1581487391	6.68	12.37
12/02/2020 06:03:12	120220	12022020	060312	188.08	13.115920	-57.070515	188.24	-0.360	0.790	2.020	188.09	-0.80	2.50	 	 	 	 	 	 	 	 	 	 	 	 	 	 	 	 	 	 	1581487392	7.48	13.85
12/02/2020 06:03:13	120220	12022020	060313	188.10	13.115880	-57.070520	188.27	-0.030	-0.330	2.100	188.09	-1.90	2.70	 	 	 	 	 	 	 	 	 	 	 	 	 	 	 	 	 	 	1581487393	8.79	16.28
12/02/2020 06:03:14	120220	12022020	060314	188.00	13.115838	-57.070528	188.16	0.040	-0.960	2.530	187.98	-2.40	3.10	 	 	 	 	 	 	 	 	 	 	 	 	 	 	 	 	 	 	1581487394	9.21	17.06
12/02/2020 06:03:15	120220	12022020	060315	187.87	13.115800	-57.070540	188.04	-0.120	-0.800	2.980	187.84	-2.10	3.50	 	 	 	 	 	 	 	 	 	 	 	 	 	 	 	 	 	 	1581487395	8.66	16.04
12/02/2020 06:03:16	120220	12022020	060316	187.73	13.115765	-57.070553	187.91	-0.220	-0.260	3.160	187.71	-1.50	3.60	 	 	 	 	 	 	 	 	 	 	 	 	 	 	 	 	 	 	1581487396	7.89	14.61
12/02/2020 06:03:17	120220	12022020	060317	187.76	13.115732	-57.070565	187.95	-0.120	0.320	2.750	187.80	-1.00	3.00	 	 	 	 	 	 	 	 	 	 	 	 	 	 	 	 	 	 	1581487397	7.46	13.82
12/02/2020 06:03:18	120220	12022020	060318	188.03	13.115700	-57.070573	188.22	0.090	0.610	1.830	188.10	-0.80	2.10	 	 	 	 	 	 	 	 	 	 	 	 	 	 	 	 	 	 	1581487398	7.28	13.48
12/02/2020 06:03:19	120220	12022020	060319	188.35	13.115665	-57.070577	188.51	0.360	0.330	0.910	188.39	-1.20	1.20	 	 	 	 	 	 	 	 	 	 	 	 	 	 	 	 	 	 	1581487399	7.38	13.67
12/02/2020 06:03:20	120220	12022020	060320	188.46	13.115628	-57.070580	188.59	0.660	-0.440	0.370	188.45	-2.00	0.80	 	 	 	 	 	 	 	 	 	 	 	 	 	 	 	 	 	 	1581487400	7.88	14.59
12/02/2020 06:03:21	120220	12022020	060321	188.35	13.115590	-57.070583	188.47	0.810	-1.180	0.370	188.35	-2.50	0.80	 	 	 	 	 	 	 	 	 	 	 	 	 	 	 	 	 	 	1581487401	8.38	15.52
12/02/2020 06:03:22	120220	12022020	060322	188.13	13.115550	-57.070587	188.26	0.520	-1.420	1.050	188.07	-2.80	1.80	 	 	 	 	 	 	 	 	 	 	 	 	 	 	 	 	 	 	1581487402	8.49	15.72
12/02/2020 06:03:23	120220	12022020	060323	187.83	13.115513	-57.070593	187.99	-0.200	-1.040	2.180	187.83	-2.50	2.50	 	 	 	 	 	 	 	 	 	 	 	 	 	 	 	 	 	 	1581487403	8.16	15.11
12/02/2020 06:03:24	120220	12022020	060324	187.48	13.115478	-57.070607	187.67	-0.920	-0.400	3.270	187.42	-1.60	3.90	 	 	 	 	 	 	 	 	 	 	 	 	 	 	 	 	 	 	1581487404	7.86	14.56
12/02/2020 06:03:25	120220	12022020	060325	187.16	13.115445	-57.070623	187.35	-1.110	0.050	3.890	187.10	-1.30	4.40	 	 	 	 	 	 	 	 	 	 	 	 	 	 	 	 	 	 	1581487405	7.96	14.74
12/02/2020 06:03:26	120220	12022020	060326	186.86	13.115410	-57.070638	187.04	-0.640	0.170	3.920	186.81	-1.20	4.30	 	 	 	 	 	 	 	 	 	 	 	 	 	 	 	 	 	 	1581487406	8.24	15.26
12/02/2020 06:03:27	120220	12022020	060327	186.75	13.115373	-57.070650	186.95	-0.040	0.330	3.380	186.78	-1.00	3.70	 	 	 	 	 	 	 	 	 	 	 	 	 	 	 	 	 	 	1581487407	8.45	15.65
12/02/2020 06:03:28	120220	12022020	060328	187.09	13.115335	-57.070657	187.28	0.190	0.590	2.350	187.21	-0.80	2.60	 	 	 	 	 	 	 	 	 	 	 	 	 	 	 	 	 	 	1581487408	8.21	15.20
12/02/2020 06:03:29	120220	12022020	060329	187.71	13.115300	-57.070660	187.89	0.070	0.580	1.260	187.85	-0.90	1.60	 	 	 	 	 	 	 	 	 	 	 	 	 	 	 	 	 	 	1581487409	7.74	14.33
12/02/2020 06:03:30	120220	12022020	060330	188.29	13.115263	-57.070662	188.44	0.020	0.100	0.520	188.37	-1.40	0.90	 	 	 	 	 	 	 	 	 	 	 	 	 	 	 	 	 	 	1581487410	7.66	14.19
12/02/2020 06:03:31	120220	12022020	060331	188.55	13.115227	-57.070667	188.66	0.250	-0.660	0.360	188.55	-2.20	0.90	 	 	 	 	 	 	 	 	 	 	 	 	 	 	 	 	 	 	1581487411	7.96	14.74
12/02/2020 06:03:32	120220	12022020	060332	188.36	13.115188	-57.070672	188.45	0.540	-1.300	0.840	188.26	-2.80	1.50	 	 	 	 	 	 	 	 	 	 	 	 	 	 	 	 	 	 	1581487412	8.25	15.28
12/02/2020 06:03:33	120220	12022020	060333	187.83	13.115152	-57.070680	187.94	0.570	-1.390	1.680	187.72	-2.70	2.30	 	 	 	 	 	 	 	 	 	 	 	 	 	 	 	 	 	 	1581487413	8.33	15.43
12/02/2020 06:03:34	120220	12022020	060334	187.48	13.115115	-57.070690	187.61	0.200	-0.730	2.350	187.48	-2.20	2.80	 	 	 	 	 	 	 	 	 	 	 	 	 	 	 	 	 	 	1581487414	8.12	15.04
12/02/2020 06:03:35	120220	12022020	060335	187.52	13.115082	-57.070700	187.71	-0.330	0.220	2.620	187.52	-1.30	3.10	 	 	 	 	 	 	 	 	 	 	 	 	 	 	 	 	 	 	1581487415	7.58	14.04
12/02/2020 06:03:36	120220	12022020	060336	187.80	13.115048	-57.070710	187.96	-0.580	0.660	2.620	187.83	-0.80	3.10	 	 	 	 	 	 	 	 	 	 	 	 	 	 	 	 	 	 	1581487416	7.23	13.39
12/02/2020 06:03:37	120220	12022020	060337	187.87	13.115013	-57.070720	188.03	-0.380	0.200	2.480	187.88	-1.30	2.90	 	 	 	 	 	 	 	 	 	 	 	 	 	 	 	 	 	 	1581487417	7.67	14.20
12/02/2020 06:03:38	120220	12022020	060338	187.93	13.114975	-57.070728	188.10	-0.050	-0.410	2.220	187.96	-1.80	2.60	 	 	 	 	 	 	 	 	 	 	 	 	 	 	 	 	 	 	1581487418	8.62	15.96
12/02/2020 06:03:39	120220	12022020	060339	188.11	13.114935	-57.070737	188.27	0.110	-0.370	1.880	188.15	-1.70	2.30	 	 	 	 	 	 	 	 	 	 	 	 	 	 	 	 	 	 	1581487419	8.75	16.21
12/02/2020 06:03:40	120220	12022020	060340	188.24	13.114898	-57.070743	188.38	0.110	-0.010	1.610	188.24	-1.40	2.10	 	 	 	 	 	 	 	 	 	 	 	 	 	 	 	 	 	 	1581487420	7.90	14.63
12/02/2020 06:03:41	120220	12022020	060341	188.10	13.114865	-57.070750	188.22	0.140	-0.050	1.570	188.04	-1.50	2.10	 	 	 	 	 	 	 	 	 	 	 	 	 	 	 	 	 	 	1581487421	7.40	13.70
12/02/2020 06:03:42	120220	12022020	060342	187.80	13.114830	-57.070757	187.91	0.240	-0.470	1.800	187.72	-1.90	2.40	 	 	 	 	 	 	 	 	 	 	 	 	 	 	 	 	 	 	1581487422	7.83	14.50
12/02/2020 06:03:43	120220	12022020	060343	187.42	13.114792	-57.070767	187.55	0.240	-0.710	2.160	187.36	-2.10	2.70	 	 	 	 	 	 	 	 	 	 	 	 	 	 	 	 	 	 	1581487423	8.34	15.45
12/02/2020 06:03:44	120220	12022020	060344	187.20	13.114755	-57.070775	187.35	0.030	-0.370	2.300	187.19	-1.60	2.80	 	 	 	 	 	 	 	 	 	 	 	 	 	 	 	 	 	 	1581487424	8.30	15.37
12/02/2020 06:03:45	120220	12022020	060345	187.33	13.114720	-57.070785	187.51	-0.280	0.190	2.050	187.33	-1.30	2.60	 	 	 	 	 	 	 	 	 	 	 	 	 	 	 	 	 	 	1581487425	7.72	14.30
12/02/2020 06:03:46	120220	12022020	060346	187.65	13.114687	-57.070793	187.80	-0.400	0.280	1.710	187.65	-1.10	2.20	 	 	 	 	 	 	 	 	 	 	 	 	 	 	 	 	 	 	1581487426	7.36	13.63
12/02/2020 06:03:47	120220	12022020	060347	187.83	13.114650	-57.070800	187.97	-0.130	-0.310	1.540	187.83	-1.60	2.00	 	 	 	 	 	 	 	 	 	 	 	 	 	 	 	 	 	 	1581487427	7.80	14.45
12/02/2020 06:03:48	120220	12022020	060348	187.85	13.114612	-57.070808	187.97	0.330	-1.020	1.550	187.83	-2.50	2.10	 	 	 	 	 	 	 	 	 	 	 	 	 	 	 	 	 	 	1581487428	8.56	15.85
12/02/2020 06:03:49	120220	12022020	060349	187.72	13.114572	-57.070815	187.85	0.550	-1.200	1.790	187.72	-2.60	2.20	 	 	 	 	 	 	 	 	 	 	 	 	 	 	 	 	 	 	1581487429	8.80	16.30
12/02/2020 06:03:50	120220	12022020	060350	187.47	13.114533	-57.070822	187.60	0.290	-0.710	2.300	187.42	-1.90	2.90	 	 	 	 	 	 	 	 	 	 	 	 	 	 	 	 	 	 	1581487430	8.36	15.48
12/02/2020 06:03:51	120220	12022020	060351	187.18	13.114498	-57.070830	187.32	-0.240	0.120	2.800	187.13	-1.10	3.40	 	 	 	 	 	 	 	 	 	 	 	 	 	 	 	 	 	 	1581487431	7.74	14.33
12/02/2020 06:03:52	120220	12022020	060352	186.95	13.114465	-57.070840	187.11	-0.570	0.780	3.080	186.92	-0.50	3.60	 	 	 	 	 	 	 	 	 	 	 	 	 	 	 	 	 	 	1581487432	7.49	13.87
12/02/2020 06:03:53	120220	12022020	060353	186.92	13.114430	-57.070850	187.09	-0.510	0.940	2.990	186.94	-0.50	3.40	 	 	 	 	 	 	 	 	 	 	 	 	 	 	 	 	 	 	1581487433	7.64	14.15
12/02/2020 06:03:54	120220	12022020	060354	187.03	13.114395	-57.070860	187.18	-0.170	0.560	2.780	187.04	-1.00	3.20	 	 	 	 	 	 	 	 	 	 	 	 	 	 	 	 	 	 	1581487434	7.96	14.74
12/02/2020 06:03:55	120220	12022020	060355	187.05	13.114357	-57.070868	187.20	0.200	-0.110	2.660	187.05	-1.60	3.10	 	 	 	 	 	 	 	 	 	 	 	 	 	 	 	 	 	 	1581487435	8.25	15.28
12/02/2020 06:03:56	120220	12022020	060356	187.04	13.114318	-57.070877	187.18	0.440	-0.680	2.480	187.05	-2.10	2.90	 	 	 	 	 	 	 	 	 	 	 	 	 	 	 	 	 	 	1581487436	8.39	15.54
12/02/2020 06:03:57	120220	12022020	060357	187.09	13.114282	-57.070883	187.25	0.530	-0.940	2.180	187.09	-2.30	2.70	 	 	 	 	 	 	 	 	 	 	 	 	 	 	 	 	 	 	1581487437	8.23	15.24
12/02/2020 06:03:58	120220	12022020	060358	187.20	13.114245	-57.070890	187.34	0.520	-0.940	1.780	187.22	-2.30	2.20	 	 	 	 	 	 	 	 	 	 	 	 	 	 	 	 	 	 	1581487438	7.89	14.61
12/02/2020 06:03:59	120220	12022020	060359	187.29	13.114210	-57.070895	187.43	0.420	-0.840	1.390	187.29	-2.20	1.90	 	 	 	 	 	 	 	 	 	 	 	 	 	 	 	 	 	 	1581487439	7.69	14.24
12/02/2020 06:04:00	120220	12022020	060400	187.29	13.114173	-57.070898	187.42	0.190	-0.620	1.310	187.29	-2.00	1.80	 	 	 	 	 	 	 	 	 	 	 	 	 	 	 	 	 	 	1581487440	7.72	14.30
12/02/2020 06:04:01	120220	12022020	060401	187.11	13.114138	-57.070905	187.24	-0.050	-0.440	1.680	187.06	-1.80	2.30	1015.40	26.20	26.30	21.10	21.20	-1.0	73.0	73.0	432.0	25.7	268.00	9.70	73.00	10.70	16	9028.0	27.2	27.2	1581487441	7.75	14.35
12/02/2020 06:04:02	120220	12022020	060402	186.87	13.114102	-57.070913	187.02	-0.280	-0.330	2.130	186.85	-1.70	2.70	 	 	 	 	 	 	 	 	 	 	 	 	 	 	 	 	 	 	1581487442	8.00	14.82
12/02/2020 06:04:03	120220	12022020	060403	186.77	13.114065	-57.070922	186.93	-0.510	-0.140	2.450	186.76	-1.50	3.00	 	 	 	 	 	 	 	 	 	 	 	 	 	 	 	 	 	 	1581487443	8.28	15.33
12/02/2020 06:04:04	120220	12022020	060404	186.78	13.114027	-57.070932	186.92	-0.600	0.140	2.510	186.79	-1.20	3.00	 	 	 	 	 	 	 	 	 	 	 	 	 	 	 	 	 	 	1581487444	8.29	15.35
12/02/2020 06:04:05	120220	12022020	060405	186.91	13.113990	-57.070942	187.06	-0.470	0.450	2.180	186.97	-0.90	2.60	 	 	 	 	 	 	 	 	 	 	 	 	 	 	 	 	 	 	1581487445	8.16	15.11
12/02/2020 06:04:06	120220	12022020	060406	187.30	13.113953	-57.070948	187.46	-0.320	0.630	1.690	187.40	-0.80	2.10	 	 	 	 	 	 	 	 	 	 	 	 	 	 	 	 	 	 	1581487446	7.95	14.72
12/02/2020 06:04:07	120220	12022020	060407	187.72	13.113918	-57.070953	187.86	-0.260	0.390	1.520	187.77	-1.10	2.00	 	 	 	 	 	 	 	 	 	 	 	 	 	 	 	 	 	 	1581487447	7.81	14.46
12/02/2020 06:04:08	120220	12022020	060408	187.81	13.113882	-57.070962	187.92	-0.100	-0.300	1.750	187.81	-1.60	2.20	 	 	 	 	 	 	 	 	 	 	 	 	 	 	 	 	 	 	1581487448	7.97	14.76
12/02/2020 06:04:09	120220	12022020	060409	187.50	13.113843	-57.070972	187.62	0.320	-0.950	2.050	187.50	-2.30	2.50	 	 	 	 	 	 	 	 	 	 	 	 	 	 	 	 	 	 	1581487449	8.41	15.58
12/02/2020 06:04:10	120220	12022020	060410	187.24	13.113805	-57.070980	187.36	0.700	-0.940	2.130	187.24	-2.40	2.60	 	 	 	 	 	 	 	 	 	 	 	 	 	 	 	 	 	 	1581487450	8.48	15.70
12/02/2020 06:04:11	120220	12022020	060411	187.26	13.113770	-57.070987	187.43	0.630	-0.290	1.930	187.26	-1.80	2.50	 	 	 	 	 	 	 	 	 	 	 	 	 	 	 	 	 	 	1581487451	7.85	14.54
12/02/2020 06:04:12	120220	12022020	060412	187.28	13.113737	-57.070992	187.43	0.290	0.140	1.640	187.28	-1.30	2.20	 	 	 	 	 	 	 	 	 	 	 	 	 	 	 	 	 	 	1581487452	7.05	13.06
12/02/2020 06:04:13	120220	12022020	060413	186.94	13.113703	-57.070997	187.08	0.150	-0.260	1.750	186.94	-1.50	2.20	 	 	 	 	 	 	 	 	 	 	 	 	 	 	 	 	 	 	1581487453	7.23	13.39
12/02/2020 06:04:14	120220	12022020	060414	186.58	13.113667	-57.071005	186.73	0.260	-0.810	2.040	186.58	-2.10	2.50	 	 	 	 	 	 	 	 	 	 	 	 	 	 	 	 	 	 	1581487454	8.31	15.39
12/02/2020 06:04:15	120220	12022020	060415	186.57	13.113627	-57.071013	186.74	0.280	-0.800	2.270	186.57	-2.20	2.70	 	 	 	 	 	 	 	 	 	 	 	 	 	 	 	 	 	 	1581487455	8.73	16.17
12/02/2020 06:04:16	120220	12022020	060416	186.94	13.113588	-57.071022	187.13	-0.070	-0.330	2.520	186.94	-1.80	3.00	 	 	 	 	 	 	 	 	 	 	 	 	 	 	 	 	 	 	1581487456	8.22	15.22
12/02/2020 06:04:17	120220	12022020	060417	187.52	13.113555	-57.071032	187.72	-0.630	0.220	2.740	187.52	-1.20	3.20	 	 	 	 	 	 	 	 	 	 	 	 	 	 	 	 	 	 	1581487457	7.71	14.28
12/02/2020 06:04:18	120220	12022020	060418	188.08	13.113522	-57.071043	188.27	-1.030	0.550	2.790	188.17	-0.80	3.30	 	 	 	 	 	 	 	 	 	 	 	 	 	 	 	 	 	 	1581487458	7.53	13.95
12/02/2020 06:04:19	120220	12022020	060419	188.36	13.113488	-57.071055	188.53	-0.980	0.420	2.710	188.39	-1.00	3.20	 	 	 	 	 	 	 	 	 	 	 	 	 	 	 	 	 	 	1581487459	7.61	14.09
12/02/2020 06:04:20	120220	12022020	060420	188.43	13.113453	-57.071067	188.59	-0.490	-0.110	2.360	188.43	-1.40	2.90	 	 	 	 	 	 	 	 	 	 	 	 	 	 	 	 	 	 	1581487460	7.97	14.76
12/02/2020 06:04:21	120220	12022020	060421	188.31	13.113415	-57.071077	188.43	0.250	-0.750	1.810	188.31	-2.00	2.40	 	 	 	 	 	 	 	 	 	 	 	 	 	 	 	 	 	 	1581487461	8.27	15.32
12/02/2020 06:04:22	120220	12022020	060422	188.00	13.113377	-57.071082	187.98	0.960	-1.130	1.280	188.00	-2.50	1.80	 	 	 	 	 	 	 	 	 	 	 	 	 	 	 	 	 	 	1581487462	8.46	15.67
12/02/2020 06:04:23	120220	12022020	060423	187.42	13.113337	-57.071083	187.54	1.230	-0.890	0.920	187.42	-2.30	1.50	 	 	 	 	 	 	 	 	 	 	 	 	 	 	 	 	 	 	1581487463	8.42	15.59
12/02/2020 06:04:24	120220	12022020	060424	187.35	13.113300	-57.071083	187.53	0.750	-0.040	0.980	187.35	-1.50	1.50	 	 	 	 	 	 	 	 	 	 	 	 	 	 	 	 	 	 	1581487464	7.97	14.76
12/02/2020 06:04:25	120220	12022020	060425	187.57	13.113267	-57.071087	187.74	-0.210	0.710	1.450	187.57	-0.70	1.90	 	 	 	 	 	 	 	 	 	 	 	 	 	 	 	 	 	 	1581487465	7.17	13.28
12/02/2020 06:04:26	120220	12022020	060426	187.65	13.113235	-57.071097	187.83	-0.930	0.690	2.190	187.65	-0.60	2.60	 	 	 	 	 	 	 	 	 	 	 	 	 	 	 	 	 	 	1581487466	7.20	13.33
12/02/2020 06:04:27	120220	12022020	060427	187.55	13.113200	-57.071112	187.73	-0.910	-0.030	2.890	187.55	-1.30	3.30	 	 	 	 	 	 	 	 	 	 	 	 	 	 	 	 	 	 	1581487467	8.10	15.00
12/02/2020 06:04:28	120220	12022020	060428	187.37	13.113162	-57.071128	187.56	-0.310	-0.830	3.270	187.37	-2.10	3.70	 	 	 	 	 	 	 	 	 	 	 	 	 	 	 	 	 	 	1581487468	8.87	16.43
12/02/2020 06:04:29	120220	12022020	060429	187.22	13.113123	-57.071142	187.42	0.220	-1.140	3.170	187.22	-2.50	3.70	 	 	 	 	 	 	 	 	 	 	 	 	 	 	 	 	 	 	1581487469	8.91	16.50
12/02/2020 06:04:30	120220	12022020	060430	187.15	13.113085	-57.071150	187.35	0.260	-0.760	2.720	187.15	-2.20	3.30	 	 	 	 	 	 	 	 	 	 	 	 	 	 	 	 	 	 	1581487470	8.34	15.45
12/02/2020 06:04:31	120220	12022020	060431	187.24	13.113050	-57.071157	187.44	-0.130	0.090	2.140	187.24	-1.40	2.70	 	 	 	 	 	 	 	 	 	 	 	 	 	 	 	 	 	 	1581487471	7.62	14.11
12/02/2020 06:04:32	120220	12022020	060432	187.56	13.113018	-57.071163	187.75	-0.440	0.840	1.440	187.56	-0.60	2.00	 	 	 	 	 	 	 	 	 	 	 	 	 	 	 	 	 	 	1581487472	7.03	13.02
12/02/2020 06:04:33	120220	12022020	060433	187.85	13.112987	-57.071168	188.02	-0.220	0.760	0.760	187.85	-0.60	1.40	 	 	 	 	 	 	 	 	 	 	 	 	 	 	 	 	 	 	1581487473	6.95	12.87
12/02/2020 06:04:34	120220	12022020	060434	187.82	13.112950	-57.071172	187.96	0.530	-0.260	0.420	187.82	-1.50	1.00	 	 	 	 	 	 	 	 	 	 	 	 	 	 	 	 	 	 	1581487474	7.71	14.28
12/02/2020 06:04:35	120220	12022020	060435	187.55	13.112910	-57.071175	187.69	1.140	-1.320	0.630	187.55	-2.60	1.10	 	 	 	 	 	 	 	 	 	 	 	 	 	 	 	 	 	 	1581487475	8.79	16.28
12/02/2020 06:04:36	120220	12022020	060436	187.33	13.112868	-57.071180	187.50	0.970	-1.540	1.440	187.33	-3.00	1.80	 	 	 	 	 	 	 	 	 	 	 	 	 	 	 	 	 	 	1581487476	9.00	16.67
12/02/2020 06:04:37	120220	12022020	060437	187.27	13.112830	-57.071188	187.48	0.060	-0.820	2.670	187.27	-2.30	3.00	 	 	 	 	 	 	 	 	 	 	 	 	 	 	 	 	 	 	1581487477	8.26	15.30
12/02/2020 06:04:38	120220	12022020	060438	187.26	13.112798	-57.071202	187.49	-0.920	0.190	3.780	187.26	-1.30	4.20	 	 	 	 	 	 	 	 	 	 	 	 	 	 	 	 	 	 	1581487478	7.54	13.96
12/02/2020 06:04:39	120220	12022020	060439	187.13	13.112768	-57.071218	187.35	-1.250	0.680	4.400	187.13	-0.70	4.90	 	 	 	 	 	 	 	 	 	 	 	 	 	 	 	 	 	 	1581487479	7.47	13.83
12/02/2020 06:04:40	120220	12022020	060440	187.02	13.112735	-57.071235	187.25	-0.820	0.520	4.280	187.02	-0.80	4.80	 	 	 	 	 	 	 	 	 	 	 	 	 	 	 	 	 	 	1581487480	7.92	14.67
12/02/2020 06:04:41	120220	12022020	060441	187.13	13.112697	-57.071247	187.35	-0.080	0.080	3.470	187.13	-1.20	4.10	 	 	 	 	 	 	 	 	 	 	 	 	 	 	 	 	 	 	1581487481	8.34	15.45
12/02/2020 06:04:42	120220	12022020	060442	187.34	13.112658	-57.071253	187.54	0.510	-0.300	2.370	187.34	-1.60	3.00	 	 	 	 	 	 	 	 	 	 	 	 	 	 	 	 	 	 	1581487482	8.38	15.52
12/02/2020 06:04:43	120220	12022020	060443	187.58	13.112620	-57.071255	187.75	0.760	-0.480	1.320	187.58	-1.90	2.00	 	 	 	 	 	 	 	 	 	 	 	 	 	 	 	 	 	 	1581487483	8.22	15.22
12/02/2020 06:04:44	120220	12022020	060444	187.71	13.112583	-57.071255	187.87	0.680	-0.550	0.790	187.71	-1.90	1.30	 	 	 	 	 	 	 	 	 	 	 	 	 	 	 	 	 	 	1581487484	7.99	14.80
12/02/2020 06:04:45	120220	12022020	060445	187.74	13.112547	-57.071257	187.91	0.340	-0.600	0.910	187.74	-2.00	1.40	 	 	 	 	 	 	 	 	 	 	 	 	 	 	 	 	 	 	1581487485	7.86	14.56
12/02/2020 06:04:46	120220	12022020	060446	187.79	13.112512	-57.071262	187.98	-0.130	-0.490	1.370	187.79	-1.90	1.80	 	 	 	 	 	 	 	 	 	 	 	 	 	 	 	 	 	 	1581487486	7.85	14.54
12/02/2020 06:04:47	120220	12022020	060447	187.82	13.112477	-57.071273	188.01	-0.480	-0.190	1.890	187.82	-1.60	2.30	 	 	 	 	 	 	 	 	 	 	 	 	 	 	 	 	 	 	1581487487	7.79	14.43
12/02/2020 06:04:48	120220	12022020	060448	187.64	13.112443	-57.071287	187.81	-0.450	-0.090	2.420	187.64	-1.50	2.90	 	 	 	 	 	 	 	 	 	 	 	 	 	 	 	 	 	 	1581487488	7.69	14.24
12/02/2020 06:04:49	120220	12022020	060449	187.29	13.112408	-57.071298	187.47	-0.060	-0.310	2.790	187.29	-1.70	3.30	 	 	 	 	 	 	 	 	 	 	 	 	 	 	 	 	 	 	1581487489	7.92	14.67
12/02/2020 06:04:50	120220	12022020	060450	187.01	13.112370	-57.071308	187.22	0.320	-0.530	2.900	187.01	-1.90	3.40	 	 	 	 	 	 	 	 	 	 	 	 	 	 	 	 	 	 	1581487490	8.35	15.46
12/02/2020 06:04:51	120220	12022020	060451	186.97	13.112332	-57.071317	187.19	0.410	-0.360	2.770	186.97	-1.80	3.30	 	 	 	 	 	 	 	 	 	 	 	 	 	 	 	 	 	 	1581487491	8.42	15.59
12/02/2020 06:04:52	120220	12022020	060452	187.30	13.112295	-57.071323	187.53	0.210	0.160	2.210	187.30	-1.30	2.80	 	 	 	 	 	 	 	 	 	 	 	 	 	 	 	 	 	 	1581487492	8.01	14.83
12/02/2020 06:04:53	120220	12022020	060453	187.96	13.112262	-57.071328	188.18	-0.130	0.580	1.550	187.96	-0.80	2.20	 	 	 	 	 	 	 	 	 	 	 	 	 	 	 	 	 	 	1581487493	7.49	13.87
12/02/2020 06:04:54	120220	12022020	060454	188.46	13.112227	-57.071332	188.66	-0.340	0.320	1.450	188.46	-1.00	2.00	 	 	 	 	 	 	 	 	 	 	 	 	 	 	 	 	 	 	1581487494	7.34	13.59
12/02/2020 06:04:55	120220	12022020	060455	188.42	13.112192	-57.071340	188.59	-0.250	-0.480	1.770	188.42	-1.80	2.30	 	 	 	 	 	 	 	 	 	 	 	 	 	 	 	 	 	 	1581487495	7.90	14.63
12/02/2020 06:04:56	120220	12022020	060456	187.98	13.112153	-57.071350	188.14	-0.010	-1.140	2.260	187.98	-2.40	2.70	 	 	 	 	 	 	 	 	 	 	 	 	 	 	 	 	 	 	1581487496	8.55	15.83
12/02/2020 06:04:57	120220	12022020	060457	187.37	13.112115	-57.071362	187.54	0.160	-1.180	2.800	187.37	-2.60	3.30	 	 	 	 	 	 	 	 	 	 	 	 	 	 	 	 	 	 	1581487497	8.56	15.85
12/02/2020 06:04:58	120220	12022020	060458	186.91	13.112078	-57.071373	187.10	0.170	-0.670	3.020	186.91	-2.10	3.50	 	 	 	 	 	 	 	 	 	 	 	 	 	 	 	 	 	 	1581487498	8.12	15.04
12/02/2020 06:04:59	120220	12022020	060459	186.80	13.112043	-57.071382	186.99	0.160	0.020	2.770	186.80	-1.40	3.30	 	 	 	 	 	 	 	 	 	 	 	 	 	 	 	 	 	 	1581487499	7.67	14.20
12/02/2020 06:05:00	120220	12022020	060500	186.91	13.112010	-57.071390	187.14	0.260	0.420	2.180	186.91	-1.00	2.80	 	 	 	 	 	 	 	 	 	 	 	 	 	 	 	 	 	 	1581487500	7.48	13.85
12/02/2020 06:05:01	120220	12022020	060501	187.16	13.111975	-57.071393	187.35	0.350	0.280	1.660	187.16	-1.00	2.20	1015.40	26.30	26.30	21.40	21.40	-1.0	74.0	74.0	433.0	25.7	276.00	9.40	79.00	9.90	16	9205.0	27.2	27.2	1581487501	7.73	14.32
12/02/2020 06:05:02	120220	12022020	060502	187.30	13.111937	-57.071397	187.48	0.220	-0.190	1.500	187.30	-1.50	2.00	 	 	 	 	 	 	 	 	 	 	 	 	 	 	 	 	 	 	1581487502	8.22	15.22
12/02/2020 06:05:03	120220	12022020	060503	187.43	13.111897	-57.071403	187.63	-0.170	-0.400	1.650	187.43	-1.80	2.10	 	 	 	 	 	 	 	 	 	 	 	 	 	 	 	 	 	 	1581487503	8.49	15.72
12/02/2020 06:05:04	120220	12022020	060504	187.56	13.111860	-57.071412	187.76	-0.590	-0.270	2.040	187.56	-1.60	2.50	 	 	 	 	 	 	 	 	 	 	 	 	 	 	 	 	 	 	1581487504	8.14	15.08
12/02/2020 06:05:05	120220	12022020	060505	187.63	13.111827	-57.071423	187.84	-0.700	-0.170	2.310	187.63	-1.50	2.80	 	 	 	 	 	 	 	 	 	 	 	 	 	 	 	 	 	 	1581487505	7.78	14.41
12/02/2020 06:05:06	120220	12022020	060506	187.71	13.111792	-57.071433	187.92	-0.400	-0.310	2.260	187.71	-1.60	2.80	 	 	 	 	 	 	 	 	 	 	 	 	 	 	 	 	 	 	1581487506	7.85	14.54
12/02/2020 06:05:07	120220	12022020	060507	187.73	13.111755	-57.071443	187.92	0.060	-0.530	2.180	187.73	-1.90	2.70	 	 	 	 	 	 	 	 	 	 	 	 	 	 	 	 	 	 	1581487507	8.11	15.02
12/02/2020 06:05:08	120220	12022020	060508	187.59	13.111717	-57.071452	187.77	0.420	-0.640	1.980	187.59	-2.00	2.50	 	 	 	 	 	 	 	 	 	 	 	 	 	 	 	 	 	 	1581487508	8.23	15.24
12/02/2020 06:05:09	120220	12022020	060509	187.38	13.111680	-57.071458	187.55	0.570	-0.450	1.690	187.38	-1.90	2.30	 	 	 	 	 	 	 	 	 	 	 	 	 	 	 	 	 	 	1581487509	8.20	15.19
12/02/2020 06:05:10	120220	12022020	060510	187.16	13.111643	-57.071462	187.31	0.500	0.030	1.530	187.16	-1.40	2.10	 	 	 	 	 	 	 	 	 	 	 	 	 	 	 	 	 	 	1581487510	7.92	14.67
12/02/2020 06:05:11	120220	12022020	060511	186.92	13.111608	-57.071467	187.07	0.270	0.450	1.580	186.92	-0.90	2.10	 	 	 	 	 	 	 	 	 	 	 	 	 	 	 	 	 	 	1581487511	7.58	14.04
12/02/2020 06:05:12	120220	12022020	060512	186.76	13.111573	-57.071472	186.88	-0.040	0.390	1.830	186.76	-0.90	2.30	 	 	 	 	 	 	 	 	 	 	 	 	 	 	 	 	 	 	1581487512	7.57	14.02
12/02/2020 06:05:13	120220	12022020	060513	186.61	13.111537	-57.071478	186.79	-0.240	-0.190	2.230	186.61	-1.50	2.70	 	 	 	 	 	 	 	 	 	 	 	 	 	 	 	 	 	 	1581487513	7.98	14.78
12/02/2020 06:05:14	120220	12022020	060514	186.66	13.111498	-57.071490	186.89	-0.190	-0.800	2.470	186.66	-2.10	3.00	 	 	 	 	 	 	 	 	 	 	 	 	 	 	 	 	 	 	1581487514	8.63	15.98
12/02/2020 06:05:15	120220	12022020	060515	187.03	13.111460	-57.071502	187.25	-0.020	-0.830	2.370	187.03	-2.20	2.90	 	 	 	 	 	 	 	 	 	 	 	 	 	 	 	 	 	 	1581487515	8.71	16.13
12/02/2020 06:05:16	120220	12022020	060516	187.59	13.111423	-57.071512	187.80	0.020	-0.330	1.950	187.59	-1.80	2.50	 	 	 	 	 	 	 	 	 	 	 	 	 	 	 	 	 	 	1581487516	8.05	14.91
12/02/2020 06:05:17	120220	12022020	060517	188.09	13.111390	-57.071518	188.26	-0.150	0.050	1.530	188.09	-1.30	2.10	 	 	 	 	 	 	 	 	 	 	 	 	 	 	 	 	 	 	1581487517	7.32	13.56
12/02/2020 06:05:18	120220	12022020	060518	188.19	13.111357	-57.071525	188.34	-0.370	-0.100	1.480	188.19	-1.40	2.00	 	 	 	 	 	 	 	 	 	 	 	 	 	 	 	 	 	 	1581487518	7.33	13.58
12/02/2020 06:05:19	120220	12022020	060519	187.79	13.111320	-57.071532	187.91	-0.370	-0.700	1.770	187.79	-2.00	2.30	 	 	 	 	 	 	 	 	 	 	 	 	 	 	 	 	 	 	1581487519	7.94	14.70
12/02/2020 06:05:20	120220	12022020	060520	187.16	13.111280	-57.071540	187.30	-0.120	-1.110	2.110	187.16	-2.40	2.60	 	 	 	 	 	 	 	 	 	 	 	 	 	 	 	 	 	 	1581487520	8.65	16.02
12/02/2020 06:05:21	120220	12022020	060521	186.74	13.111240	-57.071550	186.90	0.170	-0.730	2.210	186.74	-2.20	2.80	 	 	 	 	 	 	 	 	 	 	 	 	 	 	 	 	 	 	1581487521	8.77	16.24
12/02/2020 06:05:22	120220	12022020	060522	186.70	13.111203	-57.071557	186.87	0.250	0.210	2.010	186.70	-1.30	2.60	 	 	 	 	 	 	 	 	 	 	 	 	 	 	 	 	 	 	1581487522	8.09	14.98
12/02/2020 06:05:23	120220	12022020	060523	186.90	13.111170	-57.071562	187.08	0.140	0.960	1.720	186.90	-0.50	2.30	 	 	 	 	 	 	 	 	 	 	 	 	 	 	 	 	 	 	1581487523	7.42	13.74
12/02/2020 06:05:24	120220	12022020	060524	187.22	13.111137	-57.071568	187.40	0.100	1.050	1.420	187.22	-0.30	2.00	 	 	 	 	 	 	 	 	 	 	 	 	 	 	 	 	 	 	1581487524	7.40	13.70
12/02/2020 06:05:25	120220	12022020	060525	187.61	13.111100	-57.071573	187.79	0.190	0.620	1.250	187.61	-0.70	1.80	 	 	 	 	 	 	 	 	 	 	 	 	 	 	 	 	 	 	1581487525	7.79	14.43
12/02/2020 06:05:26	120220	12022020	060526	187.86	13.111063	-57.071580	188.05	0.230	-0.140	1.550	187.86	-1.40	2.00	 	 	 	 	 	 	 	 	 	 	 	 	 	 	 	 	 	 	1581487526	8.03	14.87
12/02/2020 06:05:27	120220	12022020	060527	187.70	13.111027	-57.071588	187.84	0.120	-1.190	2.290	187.70	-2.40	2.70	 	 	 	 	 	 	 	 	 	 	 	 	 	 	 	 	 	 	1581487527	8.14	15.08
12/02/2020 06:05:28	120220	12022020	060528	186.96	13.110988	-57.071600	187.09	-0.100	-2.010	3.330	186.96	-3.30	3.70	 	 	 	 	 	 	 	 	 	 	 	 	 	 	 	 	 	 	1581487528	8.62	15.96
12/02/2020 06:05:29	120220	12022020	060529	186.16	13.110950	-57.071615	186.34	-0.280	-1.860	4.130	186.16	-3.30	4.60	 	 	 	 	 	 	 	 	 	 	 	 	 	 	 	 	 	 	1581487529	8.89	16.46
12/02/2020 06:05:30	120220	12022020	060530	185.86	13.110913	-57.071632	186.08	-0.300	-0.670	3.960	185.86	-2.20	4.60	 	 	 	 	 	 	 	 	 	 	 	 	 	 	 	 	 	 	1581487530	8.33	15.43
12/02/2020 06:05:31	120220	12022020	060531	186.09	13.110882	-57.071642	186.31	-0.140	0.670	2.910	186.09	-0.80	3.60	 	 	 	 	 	 	 	 	 	 	 	 	 	 	 	 	 	 	1581487531	7.26	13.45
12/02/2020 06:05:32	120220	12022020	060532	186.57	13.110850	-57.071645	186.77	0.160	1.210	1.600	186.57	-0.20	2.30	 	 	 	 	 	 	 	 	 	 	 	 	 	 	 	 	 	 	1581487532	6.93	12.83
12/02/2020 06:05:33	120220	12022020	060533	187.06	13.110813	-57.071643	187.22	0.440	0.790	0.510	187.06	-0.50	1.20	 	 	 	 	 	 	 	 	 	 	 	 	 	 	 	 	 	 	1581487533	7.68	14.22
12/02/2020 06:05:34	120220	12022020	060534	187.42	13.110775	-57.071642	187.57	0.440	-0.080	0.110	187.42	-1.30	0.60	 	 	 	 	 	 	 	 	 	 	 	 	 	 	 	 	 	 	1581487534	8.54	15.82
12/02/2020 06:05:35	120220	12022020	060535	187.41	13.110733	-57.071642	187.56	0.110	-1.030	0.890	187.41	-2.30	1.30	 	 	 	 	 	 	 	 	 	 	 	 	 	 	 	 	 	 	1581487535	8.65	16.02
12/02/2020 06:05:36	120220	12022020	060536	187.10	13.110695	-57.071650	187.15	-0.310	-1.640	2.540	187.10	-3.00	2.80	 	 	 	 	 	 	 	 	 	 	 	 	 	 	 	 	 	 	1581487536	8.62	15.96
12/02/2020 06:05:37	120220	12022020	060537	186.29	13.110658	-57.071667	186.45	-0.530	-1.640	4.160	186.29	-3.00	4.50	 	 	 	 	 	 	 	 	 	 	 	 	 	 	 	 	 	 	1581487537	8.76	16.22
12/02/2020 06:05:38	120220	12022020	060538	185.38	13.110622	-57.071685	185.55	-0.380	-1.160	5.190	185.38	-2.60	5.60	 	 	 	 	 	 	 	 	 	 	 	 	 	 	 	 	 	 	1581487538	8.64	16.00
12/02/2020 06:05:39	120220	12022020	060539	184.64	13.110587	-57.071702	184.84	-0.120	-0.260	5.390	184.64	-1.80	5.90	 	 	 	 	 	 	 	 	 	 	 	 	 	 	 	 	 	 	1581487539	8.38	15.52
12/02/2020 06:05:40	120220	12022020	060540	184.54	13.110550	-57.071712	184.77	-0.090	0.950	4.600	184.54	-0.60	5.30	 	 	 	 	 	 	 	 	 	 	 	 	 	 	 	 	 	 	1581487540	7.94	14.70
12/02/2020 06:05:41	120220	12022020	060541	185.09	13.110517	-57.071717	185.33	-0.300	1.830	3.020	185.09	0.40	3.80	 	 	 	 	 	 	 	 	 	 	 	 	 	 	 	 	 	 	1581487541	7.26	13.45
12/02/2020 06:05:42	120220	12022020	060542	185.99	13.110483	-57.071715	186.19	-0.420	1.620	1.450	185.99	0.40	2.20	 	 	 	 	 	 	 	 	 	 	 	 	 	 	 	 	 	 	1581487542	7.13	13.20
12/02/2020 06:05:43	120220	12022020	060543	186.76	13.110448	-57.071717	186.93	-0.080	0.400	0.430	186.76	-0.80	1.10	 	 	 	 	 	 	 	 	 	 	 	 	 	 	 	 	 	 	1581487543	7.78	14.41
12/02/2020 06:05:44	120220	12022020	060544	187.25	13.110408	-57.071720	187.39	0.690	-0.950	-0.050	187.25	-2.20	0.50	 	 	 	 	 	 	 	 	 	 	 	 	 	 	 	 	 	 	1581487544	8.57	15.87
12/02/2020 06:05:45	120220	12022020	060545	187.54	13.110368	-57.071723	187.69	1.310	-1.610	-0.120	187.54	-3.00	0.40	 	 	 	 	 	 	 	 	 	 	 	 	 	 	 	 	 	 	1581487545	8.66	16.04
12/02/2020 06:05:46	120220	12022020	060546	187.86	13.110330	-57.071725	188.03	1.190	-1.470	0.290	187.86	-2.90	0.70	 	 	 	 	 	 	 	 	 	 	 	 	 	 	 	 	 	 	1581487546	8.01	14.83
12/02/2020 06:05:47	120220	12022020	060547	188.07	13.110297	-57.071730	188.25	0.370	-1.020	1.310	188.07	-2.40	1.70	 	 	 	 	 	 	 	 	 	 	 	 	 	 	 	 	 	 	1581487547	7.20	13.33
12/02/2020 06:05:48	120220	12022020	060548	187.73	13.110265	-57.071738	187.88	-0.510	-1.020	2.820	187.73	-2.40	3.10	 	 	 	 	 	 	 	 	 	 	 	 	 	 	 	 	 	 	1581487548	7.05	13.06
12/02/2020 06:05:49	120220	12022020	060549	186.73	13.110232	-57.071753	186.88	-0.830	-1.450	4.330	186.73	-2.80	4.70	 	 	 	 	 	 	 	 	 	 	 	 	 	 	 	 	 	 	1581487549	8.09	14.98
12/02/2020 06:05:50	120220	12022020	060550	185.90	13.110192	-57.071772	185.94	-0.740	-1.180	5.320	185.90	-2.60	5.70	 	 	 	 	 	 	 	 	 	 	 	 	 	 	 	 	 	 	1581487550	9.28	17.19
12/02/2020 06:05:51	120220	12022020	060551	185.50	13.110153	-57.071788	185.78	-0.700	0.170	5.380	185.50	-1.40	5.90	 	 	 	 	 	 	 	 	 	 	 	 	 	 	 	 	 	 	1581487551	8.98	16.63
12/02/2020 06:05:52	120220	12022020	060552	185.92	13.110120	-57.071800	186.35	-0.820	1.560	4.480	185.92	0.00	5.10	 	 	 	 	 	 	 	 	 	 	 	 	 	 	 	 	 	 	1581487552	7.63	14.13
12/02/2020 06:05:53	120220	12022020	060553	186.87	13.110088	-57.071807	187.12	-0.790	1.920	3.080	186.87	0.60	3.80	 	 	 	 	 	 	 	 	 	 	 	 	 	 	 	 	 	 	1581487553	7.02	13.00
12/02/2020 06:05:54	120220	12022020	060554	187.57	13.110053	-57.071812	187.75	-0.200	1.170	1.550	187.57	-0.10	2.30	 	 	 	 	 	 	 	 	 	 	 	 	 	 	 	 	 	 	1581487554	7.62	14.11
12/02/2020 06:05:55	120220	12022020	060555	188.07	13.110013	-57.071813	188.21	0.730	-0.000	0.290	188.07	-1.20	1.00	 	 	 	 	 	 	 	 	 	 	 	 	 	 	 	 	 	 	1581487555	8.49	15.72
12/02/2020 06:05:56	120220	12022020	060556	188.50	13.109972	-57.071812	188.66	1.280	-0.780	-0.320	188.50	-2.10	0.30	 	 	 	 	 	 	 	 	 	 	 	 	 	 	 	 	 	 	1581487556	8.75	16.21
12/02/2020 06:05:57	120220	12022020	060557	188.76	13.109935	-57.071813	188.88	1.080	-1.010	-0.310	188.76	-2.40	0.20	 	 	 	 	 	 	 	 	 	 	 	 	 	 	 	 	 	 	1581487557	8.07	14.95
12/02/2020 06:05:58	120220	12022020	060558	188.61	13.109902	-57.071817	188.73	0.390	-1.040	0.380	188.61	-2.40	0.80	 	 	 	 	 	 	 	 	 	 	 	 	 	 	 	 	 	 	1581487558	7.32	13.56
12/02/2020 06:05:59	120220	12022020	060559	188.19	13.109868	-57.071827	188.32	-0.250	-1.040	1.510	188.19	-2.40	1.90	 	 	 	 	 	 	 	 	 	 	 	 	 	 	 	 	 	 	1581487559	7.29	13.50
12/02/2020 06:06:00	120220	12022020	060600	187.74	13.109835	-57.071842	187.90	-0.490	-0.880	2.460	187.74	-2.30	2.90	 	 	 	 	 	 	 	 	 	 	 	 	 	 	 	 	 	 	1581487560	7.74	14.33
12/02/2020 06:06:01	120220	12022020	060601	187.46	13.109802	-57.071855	187.64	-0.440	-0.600	2.860	187.46	-2.00	3.30	1015.40	26.20	26.20	21.20	21.30	0.0	74.0	74.0	435.0	25.7	275.00	10.10	79.00	10.60	16	9651.0	27.2	27.2	1581487561	7.87	14.58
12/02/2020 06:06:02	120220	12022020	060602	187.33	13.109767	-57.071868	187.47	-0.290	-0.370	3.040	187.33	-1.80	3.50	 	 	 	 	 	 	 	 	 	 	 	 	 	 	 	 	 	 	1581487562	7.89	14.61
12/02/2020 06:06:03	120220	12022020	060603	187.08	13.109732	-57.071880	187.24	-0.060	-0.220	3.050	187.08	-1.60	3.60	 	 	 	 	 	 	 	 	 	 	 	 	 	 	 	 	 	 	1581487563	8.04	14.89
12/02/2020 06:06:04	120220	12022020	060604	186.87	13.109695	-57.071890	187.01	0.210	-0.010	2.760	186.87	-1.40	3.30	 	 	 	 	 	 	 	 	 	 	 	 	 	 	 	 	 	 	1581487564	8.16	15.11
12/02/2020 06:06:05	120220	12022020	060605	186.86	13.109657	-57.071895	187.06	0.320	0.350	2.250	186.86	-1.10	2.90	 	 	 	 	 	 	 	 	 	 	 	 	 	 	 	 	 	 	1581487565	8.08	14.96
12/02/2020 06:06:06	120220	12022020	060606	187.25	13.109622	-57.071898	187.48	0.140	0.630	1.820	187.25	-0.80	2.40	 	 	 	 	 	 	 	 	 	 	 	 	 	 	 	 	 	 	1581487566	7.79	14.43
12/02/2020 06:06:07	120220	12022020	060607	187.69	13.109587	-57.071903	187.90	-0.170	0.560	1.590	187.69	-0.80	2.10	 	 	 	 	 	 	 	 	 	 	 	 	 	 	 	 	 	 	1581487567	7.54	13.96
12/02/2020 06:06:08	120220	12022020	060608	187.78	13.109552	-57.071910	187.96	-0.280	-0.000	1.690	187.78	-1.30	2.20	 	 	 	 	 	 	 	 	 	 	 	 	 	 	 	 	 	 	1581487568	7.64	14.15
12/02/2020 06:06:09	120220	12022020	060609	187.59	13.109515	-57.071920	187.77	-0.160	-0.680	1.990	187.59	-2.00	2.50	 	 	 	 	 	 	 	 	 	 	 	 	 	 	 	 	 	 	1581487569	8.10	15.00
12/02/2020 06:06:10	120220	12022020	060610	187.41	13.109478	-57.071932	187.59	0.030	-0.930	2.190	187.41	-2.30	2.70	 	 	 	 	 	 	 	 	 	 	 	 	 	 	 	 	 	 	1581487570	8.32	15.41
12/02/2020 06:06:11	120220	12022020	060611	187.47	13.109442	-57.071942	187.67	0.120	-0.630	2.010	187.47	-2.10	2.60	 	 	 	 	 	 	 	 	 	 	 	 	 	 	 	 	 	 	1581487571	7.96	14.74
12/02/2020 06:06:12	120220	12022020	060612	187.77	13.109408	-57.071948	187.96	0.090	-0.220	1.680	187.77	-1.60	2.30	 	 	 	 	 	 	 	 	 	 	 	 	 	 	 	 	 	 	1581487572	7.32	13.56
12/02/2020 06:06:13	120220	12022020	060613	187.86	13.109377	-57.071955	188.02	0.140	-0.310	1.520	187.86	-1.60	2.10	 	 	 	 	 	 	 	 	 	 	 	 	 	 	 	 	 	 	1581487573	7.15	13.24
12/02/2020 06:06:14	120220	12022020	060614	187.48	13.109340	-57.071960	187.62	0.330	-0.770	1.730	187.48	-2.10	2.20	 	 	 	 	 	 	 	 	 	 	 	 	 	 	 	 	 	 	1581487574	7.79	14.43
12/02/2020 06:06:15	120220	12022020	060615	186.89	13.109302	-57.071967	187.05	0.360	-0.900	2.260	186.89	-2.30	2.70	 	 	 	 	 	 	 	 	 	 	 	 	 	 	 	 	 	 	1581487575	8.45	15.65
12/02/2020 06:06:16	120220	12022020	060616	186.57	13.109263	-57.071975	186.75	0.030	-0.290	2.610	186.57	-1.80	3.10	 	 	 	 	 	 	 	 	 	 	 	 	 	 	 	 	 	 	1581487576	8.35	15.46
12/02/2020 06:06:17	120220	12022020	060617	186.71	13.109230	-57.071985	186.92	-0.500	0.610	2.570	186.71	-0.90	3.10	 	 	 	 	 	 	 	 	 	 	 	 	 	 	 	 	 	 	1581487577	7.65	14.17
12/02/2020 06:06:18	120220	12022020	060618	187.12	13.109197	-57.071995	187.31	-0.800	0.970	2.360	187.12	-0.40	2.90	 	 	 	 	 	 	 	 	 	 	 	 	 	 	 	 	 	 	1581487578	7.19	13.32
12/02/2020 06:06:19	120220	12022020	060619	187.42	13.109163	-57.072005	187.60	-0.580	0.520	2.220	187.42	-0.80	2.80	 	 	 	 	 	 	 	 	 	 	 	 	 	 	 	 	 	 	1581487579	7.55	13.98
12/02/2020 06:06:20	120220	12022020	060620	187.55	13.109127	-57.072017	187.74	0.060	-0.180	1.920	187.55	-1.50	2.50	 	 	 	 	 	 	 	 	 	 	 	 	 	 	 	 	 	 	1581487580	8.27	15.32
12/02/2020 06:06:21	120220	12022020	060621	187.44	13.109088	-57.072025	187.60	0.730	-0.640	1.550	187.44	-2.00	2.10	 	 	 	 	 	 	 	 	 	 	 	 	 	 	 	 	 	 	1581487581	8.36	15.48
12/02/2020 06:06:22	120220	12022020	060622	187.16	13.109052	-57.072030	187.31	1.080	-0.870	1.290	187.16	-2.20	1.90	 	 	 	 	 	 	 	 	 	 	 	 	 	 	 	 	 	 	1581487582	8.04	14.89
12/02/2020 06:06:23	120220	12022020	060623	187.08	13.109015	-57.072032	187.25	0.820	-0.760	1.240	187.08	-2.20	1.80	 	 	 	 	 	 	 	 	 	 	 	 	 	 	 	 	 	 	1581487583	7.94	14.70
12/02/2020 06:06:24	120220	12022020	060624	187.30	13.108980	-57.072035	187.49	0.040	-0.270	1.500	187.30	-1.70	2.00	 	 	 	 	 	 	 	 	 	 	 	 	 	 	 	 	 	 	1581487584	7.64	14.15
12/02/2020 06:06:25	120220	12022020	060625	187.55	13.108947	-57.072043	187.74	-0.700	0.120	2.070	187.55	-1.30	2.50	 	 	 	 	 	 	 	 	 	 	 	 	 	 	 	 	 	 	1581487585	7.22	13.37
12/02/2020 06:06:26	120220	12022020	060626	187.61	13.108915	-57.072055	187.77	-0.820	-0.030	2.640	187.61	-1.40	3.10	 	 	 	 	 	 	 	 	 	 	 	 	 	 	 	 	 	 	1581487586	7.44	13.78
12/02/2020 06:06:27	120220	12022020	060627	187.38	13.108878	-57.072068	187.57	-0.390	-0.500	3.020	187.38	-1.80	3.50	 	 	 	 	 	 	 	 	 	 	 	 	 	 	 	 	 	 	1581487587	8.15	15.09
12/02/2020 06:06:28	120220	12022020	060628	187.26	13.108842	-57.072080	187.45	0.090	-0.780	2.880	187.26	-2.10	3.50	 	 	 	 	 	 	 	 	 	 	 	 	 	 	 	 	 	 	1581487588	8.56	15.85
12/02/2020 06:06:29	120220	12022020	060629	187.19	13.108803	-57.072090	187.35	0.280	-0.740	2.370	187.19	-2.10	3.00	 	 	 	 	 	 	 	 	 	 	 	 	 	 	 	 	 	 	1581487589	8.30	15.37
12/02/2020 06:06:30	120220	12022020	060630	186.85	13.108767	-57.072095	186.97	0.290	-0.650	2.050	186.85	-2.00	2.60	 	 	 	 	 	 	 	 	 	 	 	 	 	 	 	 	 	 	1581487590	7.93	14.69
12/02/2020 06:06:31	120220	12022020	060631	186.33	13.108730	-57.072098	186.49	0.220	-0.490	2.090	186.33	-1.90	2.60	 	 	 	 	 	 	 	 	 	 	 	 	 	 	 	 	 	 	1581487591	8.05	14.91
12/02/2020 06:06:32	120220	12022020	060632	186.22	13.108692	-57.072105	186.42	-0.130	0.160	2.090	186.22	-1.30	2.60	 	 	 	 	 	 	 	 	 	 	 	 	 	 	 	 	 	 	1581487592	8.22	15.22
12/02/2020 06:06:33	120220	12022020	060633	186.59	13.108657	-57.072112	186.81	-0.620	1.010	1.910	186.59	-0.50	2.50	 	 	 	 	 	 	 	 	 	 	 	 	 	 	 	 	 	 	1581487593	7.70	14.26
12/02/2020 06:06:34	120220	12022020	060634	187.27	13.108625	-57.072122	187.49	-0.770	1.370	1.470	187.27	-0.00	2.10	 	 	 	 	 	 	 	 	 	 	 	 	 	 	 	 	 	 	1581487594	7.28	13.48
12/02/2020 06:06:35	120220	12022020	060635	187.87	13.108592	-57.072132	188.04	-0.210	0.790	1.000	187.87	-0.50	1.60	 	 	 	 	 	 	 	 	 	 	 	 	 	 	 	 	 	 	1581487595	7.42	13.74
12/02/2020 06:06:36	120220	12022020	060636	188.02	13.108553	-57.072138	188.19	0.720	-0.390	0.870	188.02	-1.60	1.40	 	 	 	 	 	 	 	 	 	 	 	 	 	 	 	 	 	 	1581487596	8.13	15.06
12/02/2020 06:06:37	120220	12022020	060637	188.15	13.108513	-57.072143	188.34	1.090	-1.030	1.160	188.15	-2.40	1.60	 	 	 	 	 	 	 	 	 	 	 	 	 	 	 	 	 	 	1581487597	8.72	16.15
12/02/2020 06:06:38	120220	12022020	060638	188.32	13.108477	-57.072148	188.51	0.580	-0.880	1.860	188.32	-2.30	2.30	 	 	 	 	 	 	 	 	 	 	 	 	 	 	 	 	 	 	1581487598	8.02	14.85
12/02/2020 06:06:39	120220	12022020	060639	188.22	13.108445	-57.072158	188.38	-0.170	-0.770	2.760	188.22	-2.10	3.20	 	 	 	 	 	 	 	 	 	 	 	 	 	 	 	 	 	 	1581487599	7.10	13.15
12/02/2020 06:06:40	120220	12022020	060640	187.72	13.108413	-57.072173	187.68	-0.240	-1.320	3.570	187.72	-2.60	4.00	 	 	 	 	 	 	 	 	 	 	 	 	 	 	 	 	 	 	1581487600	7.47	13.83
12/02/2020 06:06:41	120220	12022020	060641	186.63	13.108377	-57.072188	186.78	0.280	-1.770	3.990	186.63	-3.10	4.50	 	 	 	 	 	 	 	 	 	 	 	 	 	 	 	 	 	 	1581487601	8.63	15.98
12/02/2020 06:06:42	120220	12022020	060642	186.17	13.108337	-57.072200	186.36	0.590	-1.120	3.700	186.17	-2.60	4.30	 	 	 	 	 	 	 	 	 	 	 	 	 	 	 	 	 	 	1581487602	8.93	16.54
12/02/2020 06:06:43	120220	12022020	060643	186.41	13.108300	-57.072207	186.62	0.110	0.350	2.850	186.41	-1.20	3.50	 	 	 	 	 	 	 	 	 	 	 	 	 	 	 	 	 	 	1581487603	7.90	14.63
12/02/2020 06:06:44	120220	12022020	060644	187.03	13.108268	-57.072210	187.22	-0.870	1.490	1.900	187.03	0.00	2.60	 	 	 	 	 	 	 	 	 	 	 	 	 	 	 	 	 	 	1581487604	6.88	12.74
12/02/2020 06:06:45	120220	12022020	060645	187.68	13.108237	-57.072213	187.84	-1.540	1.470	1.420	187.68	0.20	2.00	 	 	 	 	 	 	 	 	 	 	 	 	 	 	 	 	 	 	1581487605	6.95	12.87
12/02/2020 06:06:46	120220	12022020	060646	188.26	13.108200	-57.072223	188.42	-1.280	0.610	1.140	188.26	-0.60	1.70	 	 	 	 	 	 	 	 	 	 	 	 	 	 	 	 	 	 	1581487606	7.96	14.74
12/02/2020 06:06:47	120220	12022020	060647	188.67	13.108162	-57.072235	188.81	-0.190	-0.400	0.730	188.67	-1.70	1.30	 	 	 	 	 	 	 	 	 	 	 	 	 	 	 	 	 	 	1581487607	8.70	16.11
12/02/2020 06:06:48	120220	12022020	060648	188.71	13.108122	-57.072243	188.82	0.960	-1.090	0.510	188.71	-2.40	1.10	 	 	 	 	 	 	 	 	 	 	 	 	 	 	 	 	 	 	1581487608	8.66	16.04
12/02/2020 06:06:49	120220	12022020	060649	188.35	13.108083	-57.072248	188.44	1.390	-1.120	0.780	188.35	-2.50	1.30	 	 	 	 	 	 	 	 	 	 	 	 	 	 	 	 	 	 	1581487609	8.31	15.39
12/02/2020 06:06:50	120220	12022020	060650	187.79	13.108048	-57.072253	187.90	0.930	-0.600	1.430	187.79	-2.10	1.90	 	 	 	 	 	 	 	 	 	 	 	 	 	 	 	 	 	 	1581487610	7.67	14.20
12/02/2020 06:06:51	120220	12022020	060651	187.20	13.108017	-57.072258	187.33	0.080	0.010	2.250	187.20	-1.40	2.70	 	 	 	 	 	 	 	 	 	 	 	 	 	 	 	 	 	 	1581487611	7.15	13.24
12/02/2020 06:06:52	120220	12022020	060652	186.72	13.107983	-57.072268	186.76	-0.560	0.250	3.110	186.72	-1.10	3.50	 	 	 	 	 	 	 	 	 	 	 	 	 	 	 	 	 	 	1581487612	7.26	13.45
12/02/2020 06:06:53	120220	12022020	060653	186.27	13.107950	-57.072283	186.47	-0.730	0.240	3.710	186.27	-1.10	4.20	 	 	 	 	 	 	 	 	 	 	 	 	 	 	 	 	 	 	1581487613	7.93	14.69
12/02/2020 06:06:54	120220	12022020	060654	186.33	13.107913	-57.072298	186.62	-0.480	0.270	3.570	186.33	-1.10	4.20	 	 	 	 	 	 	 	 	 	 	 	 	 	 	 	 	 	 	1581487614	8.32	15.41
12/02/2020 06:06:55	120220	12022020	060655	186.84	13.107880	-57.072312	187.05	-0.020	0.250	2.680	186.84	-1.10	3.40	 	 	 	 	 	 	 	 	 	 	 	 	 	 	 	 	 	 	1581487615	7.94	14.70
12/02/2020 06:06:56	120220	12022020	060656	187.23	13.107845	-57.072320	187.41	0.480	-0.200	1.490	187.23	-1.50	2.20	 	 	 	 	 	 	 	 	 	 	 	 	 	 	 	 	 	 	1581487616	7.54	13.96
12/02/2020 06:06:57	120220	12022020	060657	187.55	13.107808	-57.072322	187.71	0.830	-0.920	0.450	187.55	-2.20	1.10	 	 	 	 	 	 	 	 	 	 	 	 	 	 	 	 	 	 	1581487617	7.85	14.54
12/02/2020 06:06:58	120220	12022020	060658	187.81	13.107770	-57.072323	187.95	0.790	-1.330	0.030	187.81	-2.70	0.60	 	 	 	 	 	 	 	 	 	 	 	 	 	 	 	 	 	 	1581487618	8.23	15.24
12/02/2020 06:06:59	120220	12022020	060659	187.79	13.107733	-57.072325	187.91	0.320	-1.180	0.390	187.79	-2.60	0.90	 	 	 	 	 	 	 	 	 	 	 	 	 	 	 	 	 	 	1581487619	7.98	14.78
12/02/2020 06:07:00	120220	12022020	060700	187.22	13.107698	-57.072332	187.32	-0.240	-0.820	1.440	187.22	-2.20	1.80	 	 	 	 	 	 	 	 	 	 	 	 	 	 	 	 	 	 	1581487620	7.53	13.95
12/02/2020 06:07:01	120220	12022020	060701	186.43	13.107665	-57.072342	186.55	-0.540	-0.350	2.690	186.43	-1.80	3.10	1015.50	26.20	26.30	21.20	21.30	-1.0	74.0	74.0	438.0	25.7	273.00	9.90	77.00	10.50	16	8723.0	27.2	27.2	1581487621	7.72	14.30
12/02/2020 06:07:02	120220	12022020	060702	186.14	13.107630	-57.072357	186.33	-0.590	0.420	3.320	186.14	-1.00	3.80	 	 	 	 	 	 	 	 	 	 	 	 	 	 	 	 	 	 	1581487622	8.08	14.96
12/02/2020 06:07:03	120220	12022020	060703	186.37	13.107595	-57.072367	186.57	-0.560	0.980	3.310	186.37	-0.40	3.90	 	 	 	 	 	 	 	 	 	 	 	 	 	 	 	 	 	 	1581487623	7.70	14.26
12/02/2020 06:07:04	120220	12022020	060704	186.69	13.107562	-57.072377	186.89	-0.500	0.810	2.950	186.69	-0.50	3.50	 	 	 	 	 	 	 	 	 	 	 	 	 	 	 	 	 	 	1581487624	7.56	14.00
12/02/2020 06:07:05	120220	12022020	060705	187.00	13.107525	-57.072383	187.19	-0.340	0.140	2.460	187.00	-1.10	3.00	 	 	 	 	 	 	 	 	 	 	 	 	 	 	 	 	 	 	1581487625	8.04	14.89
12/02/2020 06:07:06	120220	12022020	060706	187.16	13.107487	-57.072390	187.34	-0.050	-0.460	2.220	187.16	-1.80	2.80	 	 	 	 	 	 	 	 	 	 	 	 	 	 	 	 	 	 	1581487626	8.33	15.43
12/02/2020 06:07:07	120220	12022020	060707	186.99	13.107450	-57.072400	187.13	0.330	-0.780	2.200	186.99	-2.10	2.70	 	 	 	 	 	 	 	 	 	 	 	 	 	 	 	 	 	 	1581487627	8.10	15.00
12/02/2020 06:07:08	120220	12022020	060708	186.66	13.107415	-57.072408	186.81	0.600	-0.670	2.060	186.66	-2.10	2.60	 	 	 	 	 	 	 	 	 	 	 	 	 	 	 	 	 	 	1581487628	7.82	14.48
12/02/2020 06:07:09	120220	12022020	060709	186.65	13.107380	-57.072415	186.81	0.590	-0.150	1.680	186.65	-1.60	2.30	 	 	 	 	 	 	 	 	 	 	 	 	 	 	 	 	 	 	1581487629	7.44	13.78
12/02/2020 06:07:10	120220	12022020	060710	186.82	13.107348	-57.072420	186.97	0.360	0.170	1.410	186.82	-1.20	2.00	 	 	 	 	 	 	 	 	 	 	 	 	 	 	 	 	 	 	1581487630	6.96	12.89
12/02/2020 06:07:11	120220	12022020	060711	186.82	13.107315	-57.072423	186.97	0.200	-0.130	1.470	186.82	-1.40	2.00	 	 	 	 	 	 	 	 	 	 	 	 	 	 	 	 	 	 	1581487631	7.12	13.19
12/02/2020 06:07:12	120220	12022020	060712	186.70	13.107280	-57.072430	186.86	0.200	-0.620	1.660	186.70	-1.90	2.20	 	 	 	 	 	 	 	 	 	 	 	 	 	 	 	 	 	 	1581487632	7.84	14.52
12/02/2020 06:07:13	120220	12022020	060713	186.62	13.107243	-57.072438	186.79	0.260	-0.680	1.820	186.62	-2.10	2.30	 	 	 	 	 	 	 	 	 	 	 	 	 	 	 	 	 	 	1581487633	8.20	15.19
12/02/2020 06:07:14	120220	12022020	060714	186.61	13.107207	-57.072445	186.79	0.200	-0.390	1.900	186.61	-1.80	2.40	 	 	 	 	 	 	 	 	 	 	 	 	 	 	 	 	 	 	1581487634	7.84	14.52
12/02/2020 06:07:15	120220	12022020	060715	186.76	13.107173	-57.072452	186.95	-0.090	-0.170	1.960	186.76	-1.60	2.50	 	 	 	 	 	 	 	 	 	 	 	 	 	 	 	 	 	 	1581487635	7.50	13.89
12/02/2020 06:07:16	120220	12022020	060716	186.86	13.107138	-57.072458	187.03	-0.500	-0.180	2.310	186.86	-1.50	2.80	 	 	 	 	 	 	 	 	 	 	 	 	 	 	 	 	 	 	1581487636	7.56	14.00
12/02/2020 06:07:17	120220	12022020	060717	186.71	13.107103	-57.072468	186.89	-0.790	-0.330	2.850	186.71	-1.70	3.30	 	 	 	 	 	 	 	 	 	 	 	 	 	 	 	 	 	 	1581487637	7.83	14.50
12/02/2020 06:07:18	120220	12022020	060718	186.47	13.107067	-57.072482	186.59	-0.730	-0.450	3.280	186.47	-1.80	3.80	 	 	 	 	 	 	 	 	 	 	 	 	 	 	 	 	 	 	1581487638	8.13	15.06
12/02/2020 06:07:19	120220	12022020	060719	186.13	13.107032	-57.072493	186.31	-0.360	-0.400	3.340	186.13	-1.80	3.90	 	 	 	 	 	 	 	 	 	 	 	 	 	 	 	 	 	 	1581487639	8.22	15.22
12/02/2020 06:07:20	120220	12022020	060720	186.04	13.106995	-57.072505	186.23	0.100	-0.140	2.940	186.04	-1.50	3.50	 	 	 	 	 	 	 	 	 	 	 	 	 	 	 	 	 	 	1581487640	8.02	14.85
12/02/2020 06:07:21	120220	12022020	060721	186.22	13.106960	-57.072510	186.39	0.450	0.110	2.070	186.22	-1.30	2.70	 	 	 	 	 	 	 	 	 	 	 	 	 	 	 	 	 	 	1581487641	7.71	14.28
12/02/2020 06:07:22	120220	12022020	060722	186.45	13.106925	-57.072513	186.58	0.620	0.050	1.170	186.45	-1.30	1.80	 	 	 	 	 	 	 	 	 	 	 	 	 	 	 	 	 	 	1581487642	7.60	14.08
12/02/2020 06:07:23	120220	12022020	060723	186.52	13.106888	-57.072512	186.65	0.530	-0.270	0.860	186.52	-1.60	1.40	 	 	 	 	 	 	 	 	 	 	 	 	 	 	 	 	 	 	1581487643	7.91	14.65
12/02/2020 06:07:24	120220	12022020	060724	186.41	13.106850	-57.072513	186.53	0.150	-0.460	1.190	186.41	-1.80	1.70	 	 	 	 	 	 	 	 	 	 	 	 	 	 	 	 	 	 	1581487644	8.10	15.00
12/02/2020 06:07:25	120220	12022020	060725	186.19	13.106813	-57.072520	186.32	-0.320	-0.310	1.840	186.19	-1.70	2.30	 	 	 	 	 	 	 	 	 	 	 	 	 	 	 	 	 	 	1581487645	7.98	14.78
12/02/2020 06:07:26	120220	12022020	060726	186.06	13.106780	-57.072532	186.22	-0.580	0.060	2.500	186.06	-1.40	3.00	 	 	 	 	 	 	 	 	 	 	 	 	 	 	 	 	 	 	1581487646	7.78	14.41
12/02/2020 06:07:27	120220	12022020	060727	186.07	13.106747	-57.072545	186.25	-0.400	0.300	2.780	186.07	-1.10	3.30	 	 	 	 	 	 	 	 	 	 	 	 	 	 	 	 	 	 	1581487647	7.67	14.20
12/02/2020 06:07:28	120220	12022020	060728	186.12	13.106712	-57.072557	186.31	0.060	0.200	2.590	186.12	-1.10	3.20	 	 	 	 	 	 	 	 	 	 	 	 	 	 	 	 	 	 	1581487648	7.62	14.11
12/02/2020 06:07:29	120220	12022020	060729	186.16	13.106677	-57.072563	186.33	0.420	-0.170	2.310	186.16	-1.50	2.90	 	 	 	 	 	 	 	 	 	 	 	 	 	 	 	 	 	 	1581487649	7.78	14.41
12/02/2020 06:07:30	120220	12022020	060730	186.18	13.106640	-57.072568	186.35	0.440	-0.540	1.980	186.18	-1.90	2.60	 	 	 	 	 	 	 	 	 	 	 	 	 	 	 	 	 	 	1581487650	7.96	14.74
12/02/2020 06:07:31	120220	12022020	060731	186.23	13.106603	-57.072573	186.37	0.250	-0.730	1.630	186.23	-2.10	2.20	 	 	 	 	 	 	 	 	 	 	 	 	 	 	 	 	 	 	1581487651	7.91	14.65
12/02/2020 06:07:32	120220	12022020	060732	186.22	13.106568	-57.072578	186.37	0.090	-0.790	1.390	186.22	-2.20	2.00	 	 	 	 	 	 	 	 	 	 	 	 	 	 	 	 	 	 	1581487652	7.76	14.37
12/02/2020 06:07:33	120220	12022020	060733	186.36	13.106532	-57.072583	186.53	-0.070	-0.660	1.200	186.36	-2.10	1.80	 	 	 	 	 	 	 	 	 	 	 	 	 	 	 	 	 	 	1581487653	7.76	14.37
12/02/2020 06:07:34	120220	12022020	060734	186.63	13.106497	-57.072590	186.77	-0.240	-0.410	1.240	186.63	-1.80	1.80	 	 	 	 	 	 	 	 	 	 	 	 	 	 	 	 	 	 	1581487654	7.64	14.15
12/02/2020 06:07:35	120220	12022020	060735	186.60	13.106463	-57.072597	186.73	-0.230	-0.400	1.550	186.60	-1.70	2.00	 	 	 	 	 	 	 	 	 	 	 	 	 	 	 	 	 	 	1581487655	7.57	14.02
12/02/2020 06:07:36	120220	12022020	060736	186.36	13.106427	-57.072605	186.50	0.020	-0.520	1.890	186.36	-1.90	2.40	 	 	 	 	 	 	 	 	 	 	 	 	 	 	 	 	 	 	1581487656	7.98	14.78
12/02/2020 06:07:37	120220	12022020	060737	186.16	13.106388	-57.072612	186.31	0.170	-0.410	2.340	186.16	-1.80	2.80	 	 	 	 	 	 	 	 	 	 	 	 	 	 	 	 	 	 	1581487657	8.35	15.46
12/02/2020 06:07:38	120220	12022020	060738	186.03	13.106350	-57.072620	186.20	0.010	-0.060	2.840	186.03	-1.50	3.30	 	 	 	 	 	 	 	 	 	 	 	 	 	 	 	 	 	 	1581487658	8.21	15.20
12/02/2020 06:07:39	120220	12022020	060739	185.93	13.106315	-57.072628	186.11	-0.370	0.360	3.140	185.93	-1.00	3.60	 	 	 	 	 	 	 	 	 	 	 	 	 	 	 	 	 	 	1581487659	7.99	14.80
12/02/2020 06:07:40	120220	12022020	060740	185.85	13.106278	-57.072637	186.03	-0.670	0.590	3.210	185.85	-0.80	3.70	 	 	 	 	 	 	 	 	 	 	 	 	 	 	 	 	 	 	1581487660	7.82	14.48
12/02/2020 06:07:41	120220	12022020	060741	185.92	13.106243	-57.072645	186.10	-0.710	0.520	3.020	185.92	-0.80	3.60	 	 	 	 	 	 	 	 	 	 	 	 	 	 	 	 	 	 	1581487661	7.90	14.63
12/02/2020 06:07:42	120220	12022020	060742	186.16	13.106207	-57.072655	186.46	-0.490	0.290	2.430	186.16	-1.00	3.10	 	 	 	 	 	 	 	 	 	 	 	 	 	 	 	 	 	 	1581487662	8.03	14.87
12/02/2020 06:07:43	120220	12022020	060743	186.79	13.106172	-57.072663	186.97	-0.090	0.120	1.510	186.79	-1.20	2.20	 	 	 	 	 	 	 	 	 	 	 	 	 	 	 	 	 	 	1581487663	7.91	14.65
12/02/2020 06:07:44	120220	12022020	060744	187.14	13.106137	-57.072670	187.32	0.460	-0.140	0.580	187.14	-1.50	1.20	 	 	 	 	 	 	 	 	 	 	 	 	 	 	 	 	 	 	1581487664	7.55	13.98
12/02/2020 06:07:45	120220	12022020	060745	187.25	13.106102	-57.072672	187.34	1.060	-0.690	0.120	187.25	-2.00	0.70	 	 	 	 	 	 	 	 	 	 	 	 	 	 	 	 	 	 	1581487665	7.49	13.87
12/02/2020 06:07:46	120220	12022020	060746	186.99	13.106065	-57.072673	187.06	1.350	-1.370	0.290	186.99	-2.70	0.80	 	 	 	 	 	 	 	 	 	 	 	 	 	 	 	 	 	 	1581487666	7.91	14.65
12/02/2020 06:07:47	120220	12022020	060747	186.64	13.106027	-57.072675	186.75	0.980	-1.500	0.880	186.64	-2.90	1.30	 	 	 	 	 	 	 	 	 	 	 	 	 	 	 	 	 	 	1581487667	8.30	15.37
12/02/2020 06:07:48	120220	12022020	060748	186.50	13.105990	-57.072680	186.64	0.000	-0.860	1.660	186.50	-2.30	2.10	 	 	 	 	 	 	 	 	 	 	 	 	 	 	 	 	 	 	1581487668	8.01	14.83
12/02/2020 06:07:49	120220	12022020	060749	186.51	13.105957	-57.072690	186.67	-0.990	-0.020	2.400	186.51	-1.50	2.80	 	 	 	 	 	 	 	 	 	 	 	 	 	 	 	 	 	 	1581487669	7.48	13.85
12/02/2020 06:07:50	120220	12022020	060750	186.61	13.105923	-57.072703	186.80	-1.430	0.430	2.910	186.61	-1.00	3.40	 	 	 	 	 	 	 	 	 	 	 	 	 	 	 	 	 	 	1581487670	7.56	14.00
12/02/2020 06:07:51	120220	12022020	060751	186.92	13.105888	-57.072718	187.14	-1.160	0.430	2.910	186.92	-0.90	3.50	 	 	 	 	 	 	 	 	 	 	 	 	 	 	 	 	 	 	1581487671	8.07	14.95
12/02/2020 06:07:52	120220	12022020	060752	187.30	13.105852	-57.072730	187.50	-0.460	0.180	2.430	187.30	-1.10	3.00	 	 	 	 	 	 	 	 	 	 	 	 	 	 	 	 	 	 	1581487672	8.35	15.46
12/02/2020 06:07:53	120220	12022020	060753	187.37	13.105813	-57.072738	187.51	0.260	-0.190	1.870	187.37	-1.50	2.50	 	 	 	 	 	 	 	 	 	 	 	 	 	 	 	 	 	 	1581487673	8.35	15.46
12/02/2020 06:07:54	120220	12022020	060754	187.10	13.105775	-57.072743	187.22	0.620	-0.440	1.530	187.10	-1.80	2.10	 	 	 	 	 	 	 	 	 	 	 	 	 	 	 	 	 	 	1581487674	8.36	15.48
12/02/2020 06:07:55	120220	12022020	060755	186.69	13.105737	-57.072747	186.79	0.480	-0.420	1.540	186.69	-1.80	2.10	 	 	 	 	 	 	 	 	 	 	 	 	 	 	 	 	 	 	1581487675	8.20	15.19
12/02/2020 06:07:56	120220	12022020	060756	186.31	13.105702	-57.072752	186.43	0.130	-0.240	1.630	186.31	-1.60	2.20	 	 	 	 	 	 	 	 	 	 	 	 	 	 	 	 	 	 	1581487676	7.91	14.65
12/02/2020 06:07:57	120220	12022020	060757	186.23	13.105665	-57.072760	186.38	-0.090	0.100	1.430	186.23	-1.30	2.00	 	 	 	 	 	 	 	 	 	 	 	 	 	 	 	 	 	 	1581487677	7.79	14.43
12/02/2020 06:07:58	120220	12022020	060758	186.72	13.105630	-57.072767	186.89	-0.060	0.470	0.920	186.72	-0.90	1.50	 	 	 	 	 	 	 	 	 	 	 	 	 	 	 	 	 	 	1581487678	7.65	14.17
12/02/2020 06:07:59	120220	12022020	060759	187.37	13.105597	-57.072770	187.52	0.080	0.420	0.760	187.37	-0.90	1.30	 	 	 	 	 	 	 	 	 	 	 	 	 	 	 	 	 	 	1581487679	7.38	13.67
12/02/2020 06:08:00	120220	12022020	060800	187.48	13.105562	-57.072775	187.59	0.190	-0.420	1.360	187.48	-1.60	1.80	 	 	 	 	 	 	 	 	 	 	 	 	 	 	 	 	 	 	1581487680	7.58	14.04
12/02/2020 06:08:01	120220	12022020	060801	186.96	13.105523	-57.072785	187.08	0.200	-1.450	2.530	186.96	-2.70	2.90	1015.40	26.20	26.30	21.20	21.20	0.0	73.0	73.0	439.0	25.8	280.00	11.10	85.00	11.10	16	9600.0	27.2	27.2	1581487681	8.45	15.65
12/02/2020 06:08:02	120220	12022020	060802	186.32	13.105483	-57.072798	186.48	0.040	-1.630	3.790	186.32	-3.00	4.20	 	 	 	 	 	 	 	 	 	 	 	 	 	 	 	 	 	 	1581487682	9.03	16.72
12/02/2020 06:08:03	120220	12022020	060803	185.94	13.105447	-57.072813	186.13	-0.240	-0.760	4.500	185.94	-2.30	5.00	 	 	 	 	 	 	 	 	 	 	 	 	 	 	 	 	 	 	1581487683	8.54	15.82
12/02/2020 06:08:04	120220	12022020	060804	185.86	13.105415	-57.072827	186.07	-0.450	0.410	4.370	185.86	-1.10	4.90	 	 	 	 	 	 	 	 	 	 	 	 	 	 	 	 	 	 	1581487684	7.53	13.95
12/02/2020 06:08:05	120220	12022020	060805	186.09	13.105383	-57.072837	186.30	-0.420	1.040	3.460	186.09	-0.40	4.10	 	 	 	 	 	 	 	 	 	 	 	 	 	 	 	 	 	 	1581487685	7.03	13.02
12/02/2020 06:08:06	120220	12022020	060806	186.43	13.105350	-57.072843	186.71	-0.030	0.830	2.030	186.43	-0.50	2.80	 	 	 	 	 	 	 	 	 	 	 	 	 	 	 	 	 	 	1581487686	7.29	13.50
12/02/2020 06:08:07	120220	12022020	060807	186.90	13.105313	-57.072845	187.05	0.610	-0.050	0.690	186.90	-1.30	1.40	 	 	 	 	 	 	 	 	 	 	 	 	 	 	 	 	 	 	1581487687	8.02	14.85
12/02/2020 06:08:08	120220	12022020	060808	186.97	13.105272	-57.072843	187.07	1.110	-1.010	0.110	186.97	-2.30	0.70	 	 	 	 	 	 	 	 	 	 	 	 	 	 	 	 	 	 	1581487688	8.65	16.02
12/02/2020 06:08:09	120220	12022020	060809	186.77	13.105232	-57.072843	186.88	1.040	-1.390	0.390	186.77	-2.80	0.90	 	 	 	 	 	 	 	 	 	 	 	 	 	 	 	 	 	 	1581487689	8.76	16.22
12/02/2020 06:08:10	120220	12022020	060810	186.51	13.105193	-57.072845	186.63	0.330	-1.090	1.370	186.51	-2.50	1.70	 	 	 	 	 	 	 	 	 	 	 	 	 	 	 	 	 	 	1581487690	8.20	15.19
12/02/2020 06:08:11	120220	12022020	060811	186.20	13.105158	-57.072855	186.34	-0.590	-0.560	2.770	186.20	-2.00	3.10	 	 	 	 	 	 	 	 	 	 	 	 	 	 	 	 	 	 	1581487691	7.68	14.22
12/02/2020 06:08:12	120220	12022020	060812	185.87	13.105125	-57.072870	186.04	-1.180	-0.210	3.990	185.87	-1.60	4.40	 	 	 	 	 	 	 	 	 	 	 	 	 	 	 	 	 	 	1581487692	7.93	14.69
12/02/2020 06:08:13	120220	12022020	060813	185.83	13.105090	-57.072888	186.04	-1.280	0.110	4.430	185.83	-1.30	4.90	 	 	 	 	 	 	 	 	 	 	 	 	 	 	 	 	 	 	1581487693	8.50	15.74
12/02/2020 06:08:14	120220	12022020	060814	186.09	13.105053	-57.072903	186.32	-1.030	0.590	4.090	186.09	-0.80	4.70	 	 	 	 	 	 	 	 	 	 	 	 	 	 	 	 	 	 	1581487694	8.39	15.54
12/02/2020 06:08:15	120220	12022020	060815	186.49	13.105020	-57.072915	186.68	-0.520	0.770	3.160	186.49	-0.60	3.80	 	 	 	 	 	 	 	 	 	 	 	 	 	 	 	 	 	 	1581487695	7.78	14.41
12/02/2020 06:08:16	120220	12022020	060816	186.81	13.104985	-57.072922	186.97	0.240	0.260	1.930	186.81	-1.00	2.60	 	 	 	 	 	 	 	 	 	 	 	 	 	 	 	 	 	 	1581487696	7.70	14.26
12/02/2020 06:08:17	120220	12022020	060817	187.12	13.104945	-57.072923	187.26	1.000	-0.390	0.790	187.12	-1.70	1.40	 	 	 	 	 	 	 	 	 	 	 	 	 	 	 	 	 	 	1581487697	8.36	15.48
12/02/2020 06:08:18	120220	12022020	060818	187.41	13.104907	-57.072922	187.54	1.370	-0.560	0.210	187.41	-1.90	0.80	 	 	 	 	 	 	 	 	 	 	 	 	 	 	 	 	 	 	1581487698	8.52	15.78
12/02/2020 06:08:19	120220	12022020	060819	187.58	13.104870	-57.072920	187.70	1.100	-0.430	0.400	187.58	-1.80	0.90	 	 	 	 	 	 	 	 	 	 	 	 	 	 	 	 	 	 	1581487699	7.89	14.61
12/02/2020 06:08:20	120220	12022020	060820	187.52	13.104835	-57.072923	187.58	0.420	-0.450	1.270	187.52	-1.80	1.70	 	 	 	 	 	 	 	 	 	 	 	 	 	 	 	 	 	 	1581487700	7.37	13.65
12/02/2020 06:08:21	120220	12022020	060821	187.07	13.104800	-57.072932	187.20	-0.200	-0.660	2.490	187.07	-2.00	2.90	 	 	 	 	 	 	 	 	 	 	 	 	 	 	 	 	 	 	1581487701	7.62	14.11
12/02/2020 06:08:22	120220	12022020	060822	186.69	13.104765	-57.072945	186.76	-0.550	-0.720	3.560	186.69	-2.10	3.90	 	 	 	 	 	 	 	 	 	 	 	 	 	 	 	 	 	 	1581487702	8.16	15.11
12/02/2020 06:08:23	120220	12022020	060823	186.15	13.104730	-57.072962	186.32	-0.630	-0.610	4.270	186.15	-2.00	4.70	 	 	 	 	 	 	 	 	 	 	 	 	 	 	 	 	 	 	1581487703	8.31	15.39
12/02/2020 06:08:24	120220	12022020	060824	185.94	13.104693	-57.072977	186.14	-0.510	-0.340	4.260	185.94	-1.70	4.80	 	 	 	 	 	 	 	 	 	 	 	 	 	 	 	 	 	 	1581487704	8.31	15.39
12/02/2020 06:08:25	120220	12022020	060825	186.13	13.104658	-57.072988	186.34	-0.290	0.040	3.430	186.13	-1.40	4.10	 	 	 	 	 	 	 	 	 	 	 	 	 	 	 	 	 	 	1581487705	8.06	14.93
12/02/2020 06:08:26	120220	12022020	060826	186.65	13.104623	-57.072995	186.84	-0.020	0.270	2.090	186.65	-1.10	2.80	 	 	 	 	 	 	 	 	 	 	 	 	 	 	 	 	 	 	1581487706	7.74	14.33
12/02/2020 06:08:27	120220	12022020	060827	187.17	13.104587	-57.072997	187.32	0.270	0.200	0.840	187.17	-1.20	1.50	 	 	 	 	 	 	 	 	 	 	 	 	 	 	 	 	 	 	1581487707	7.72	14.30
12/02/2020 06:08:28	120220	12022020	060828	187.33	13.104550	-57.072997	187.44	0.520	-0.190	0.230	187.33	-1.50	0.80	 	 	 	 	 	 	 	 	 	 	 	 	 	 	 	 	 	 	1581487708	7.91	14.65
12/02/2020 06:08:29	120220	12022020	060829	187.16	13.104512	-57.072997	187.27	0.590	-0.640	0.260	187.16	-2.00	0.80	 	 	 	 	 	 	 	 	 	 	 	 	 	 	 	 	 	 	1581487709	8.20	15.19
12/02/2020 06:08:30	120220	12022020	060830	186.94	13.104473	-57.073000	187.08	0.240	-0.840	0.900	186.94	-2.20	1.30	 	 	 	 	 	 	 	 	 	 	 	 	 	 	 	 	 	 	1581487710	8.30	15.37
12/02/2020 06:08:31	120220	12022020	060831	186.74	13.104437	-57.073007	186.88	-0.370	-0.720	1.970	186.74	-2.10	2.40	 	 	 	 	 	 	 	 	 	 	 	 	 	 	 	 	 	 	1581487711	8.13	15.06
12/02/2020 06:08:32	120220	12022020	060832	186.49	13.104402	-57.073020	186.55	-0.820	-0.350	3.030	186.49	-1.80	3.40	 	 	 	 	 	 	 	 	 	 	 	 	 	 	 	 	 	 	1581487712	8.09	14.98
12/02/2020 06:08:33	120220	12022020	060833	186.03	13.104367	-57.073037	186.18	-0.810	0.090	3.700	186.03	-1.30	4.20	 	 	 	 	 	 	 	 	 	 	 	 	 	 	 	 	 	 	1581487713	8.12	15.04
12/02/2020 06:08:34	120220	12022020	060834	185.92	13.104332	-57.073052	186.14	-0.440	0.540	3.600	185.92	-0.90	4.20	 	 	 	 	 	 	 	 	 	 	 	 	 	 	 	 	 	 	1581487714	8.08	14.96
12/02/2020 06:08:35	120220	12022020	060835	186.24	13.104298	-57.073062	186.44	0.060	0.810	2.720	186.24	-0.60	3.40	 	 	 	 	 	 	 	 	 	 	 	 	 	 	 	 	 	 	1581487715	7.77	14.39
12/02/2020 06:08:36	120220	12022020	060836	186.58	13.104263	-57.073067	186.73	0.540	0.560	1.600	186.58	-0.70	2.30	 	 	 	 	 	 	 	 	 	 	 	 	 	 	 	 	 	 	1581487716	7.51	13.91
12/02/2020 06:08:37	120220	12022020	060837	186.63	13.104227	-57.073068	186.75	0.960	-0.240	0.840	186.63	-1.50	1.50	 	 	 	 	 	 	 	 	 	 	 	 	 	 	 	 	 	 	1581487717	7.82	14.48
12/02/2020 06:08:38	120220	12022020	060838	186.63	13.104188	-57.073067	186.75	1.060	-0.960	0.570	186.63	-2.30	1.10	 	 	 	 	 	 	 	 	 	 	 	 	 	 	 	 	 	 	1581487718	8.34	15.45
12/02/2020 06:08:39	120220	12022020	060839	186.83	13.104150	-57.073068	186.98	0.650	-1.200	0.820	186.83	-2.60	1.30	 	 	 	 	 	 	 	 	 	 	 	 	 	 	 	 	 	 	1581487719	8.24	15.26
12/02/2020 06:08:40	120220	12022020	060840	186.94	13.104113	-57.073075	187.09	-0.050	-1.100	1.630	186.94	-2.50	2.00	 	 	 	 	 	 	 	 	 	 	 	 	 	 	 	 	 	 	1581487720	7.73	14.32
12/02/2020 06:08:41	120220	12022020	060841	186.74	13.104080	-57.073087	186.88	-0.580	-0.940	2.630	186.74	-2.30	3.00	 	 	 	 	 	 	 	 	 	 	 	 	 	 	 	 	 	 	1581487721	7.64	14.15
12/02/2020 06:08:42	120220	12022020	060842	186.39	13.104045	-57.073100	186.54	-0.710	-0.740	3.340	186.39	-2.10	3.80	 	 	 	 	 	 	 	 	 	 	 	 	 	 	 	 	 	 	1581487722	8.00	14.82
12/02/2020 06:08:43	120220	12022020	060843	186.04	13.104010	-57.073113	186.21	-0.490	-0.420	3.670	186.04	-1.80	4.20	 	 	 	 	 	 	 	 	 	 	 	 	 	 	 	 	 	 	1581487723	8.25	15.28
12/02/2020 06:08:44	120220	12022020	060844	185.94	13.103973	-57.073125	186.15	-0.250	0.190	3.390	185.94	-1.30	4.00	 	 	 	 	 	 	 	 	 	 	 	 	 	 	 	 	 	 	1581487724	8.29	15.35
12/02/2020 06:08:45	120220	12022020	060845	186.36	13.103937	-57.073133	186.57	-0.180	0.840	2.530	186.36	-0.60	3.20	 	 	 	 	 	 	 	 	 	 	 	 	 	 	 	 	 	 	1581487725	7.88	14.59
12/02/2020 06:08:46	120220	12022020	060846	186.98	13.103902	-57.073135	187.17	-0.200	1.000	1.650	186.98	-0.40	2.30	 	 	 	 	 	 	 	 	 	 	 	 	 	 	 	 	 	 	1581487726	7.50	13.89
12/02/2020 06:08:47	120220	12022020	060847	187.41	13.103867	-57.073137	187.56	-0.140	0.460	1.150	187.41	-0.80	1.70	 	 	 	 	 	 	 	 	 	 	 	 	 	 	 	 	 	 	1581487727	7.66	14.19
12/02/2020 06:08:48	120220	12022020	060848	187.41	13.103828	-57.073142	187.53	0.120	-0.440	1.130	187.41	-1.70	1.60	 	 	 	 	 	 	 	 	 	 	 	 	 	 	 	 	 	 	1581487728	8.15	15.09
12/02/2020 06:08:49	120220	12022020	060849	187.14	13.103790	-57.073150	187.27	0.410	-1.030	1.420	187.14	-2.40	1.90	 	 	 	 	 	 	 	 	 	 	 	 	 	 	 	 	 	 	1581487729	8.51	15.76
12/02/2020 06:08:50	120220	12022020	060850	187.01	13.103753	-57.073158	187.16	0.480	-0.820	1.550	187.01	-2.20	2.10	 	 	 	 	 	 	 	 	 	 	 	 	 	 	 	 	 	 	1581487730	8.28	15.33
12/02/2020 06:08:51	120220	12022020	060851	187.01	13.103718	-57.073165	187.15	0.290	-0.350	1.480	187.01	-1.80	2.00	 	 	 	 	 	 	 	 	 	 	 	 	 	 	 	 	 	 	1581487731	7.48	13.85
12/02/2020 06:08:52	120220	12022020	060852	186.92	13.103685	-57.073173	187.07	0.070	-0.270	1.660	186.92	-1.60	2.10	 	 	 	 	 	 	 	 	 	 	 	 	 	 	 	 	 	 	1581487732	7.21	13.35
12/02/2020 06:08:53	120220	12022020	060853	186.64	13.103650	-57.073180	186.78	-0.030	-0.500	2.170	186.64	-1.80	2.60	 	 	 	 	 	 	 	 	 	 	 	 	 	 	 	 	 	 	1581487733	7.74	14.33
12/02/2020 06:08:54	120220	12022020	060854	186.29	13.103613	-57.073190	186.46	-0.110	-0.510	2.780	186.29	-1.90	3.20	 	 	 	 	 	 	 	 	 	 	 	 	 	 	 	 	 	 	1581487734	8.28	15.33
12/02/2020 06:08:55	120220	12022020	060855	186.07	13.103577	-57.073202	186.27	-0.250	-0.150	3.240	186.07	-1.60	3.70	 	 	 	 	 	 	 	 	 	 	 	 	 	 	 	 	 	 	1581487735	8.22	15.22
12/02/2020 06:08:56	120220	12022020	060856	186.07	13.103542	-57.073213	186.30	-0.320	0.250	3.300	186.07	-1.10	3.80	 	 	 	 	 	 	 	 	 	 	 	 	 	 	 	 	 	 	1581487736	7.85	14.54
12/02/2020 06:08:57	120220	12022020	060857	186.25	13.103508	-57.073223	186.45	-0.180	0.360	2.930	186.25	-1.00	3.50	 	 	 	 	 	 	 	 	 	 	 	 	 	 	 	 	 	 	1581487737	7.63	14.13
12/02/2020 06:08:58	120220	12022020	060858	186.30	13.103472	-57.073228	186.49	0.100	-0.050	2.460	186.30	-1.30	3.00	 	 	 	 	 	 	 	 	 	 	 	 	 	 	 	 	 	 	1581487738	7.77	14.39
12/02/2020 06:08:59	120220	12022020	060859	186.32	13.103435	-57.073233	186.50	0.280	-0.550	1.980	186.32	-1.90	2.60	 	 	 	 	 	 	 	 	 	 	 	 	 	 	 	 	 	 	1581487739	8.25	15.28
12/02/2020 06:09:00	120220	12022020	060900	186.46	13.103395	-57.073238	186.64	0.190	-0.560	1.570	186.46	-2.00	2.10	 	 	 	 	 	 	 	 	 	 	 	 	 	 	 	 	 	 	1581487740	8.35	15.46
12/02/2020 06:09:01	120220	12022020	060901	186.68	13.103360	-57.073243	186.85	-0.040	-0.220	1.430	186.68	-1.60	2.00	1015.40	26.10	26.20	21.00	21.10	0.0	73.0	73.0	439.0	25.8	277.00	11.10	83.00	11.30	16	9394.0	27.2	27.2	1581487741	7.77	14.39
12/02/2020 06:09:02	120220	12022020	060902	186.70	13.103327	-57.073250	186.83	-0.100	-0.230	1.600	186.70	-1.50	2.10	 	 	 	 	 	 	 	 	 	 	 	 	 	 	 	 	 	 	1581487742	7.32	13.56
12/02/2020 06:09:03	120220	12022020	060903	186.38	13.103292	-57.073257	186.53	0.130	-0.750	1.980	186.38	-2.00	2.40	 	 	 	 	 	 	 	 	 	 	 	 	 	 	 	 	 	 	1581487743	7.76	14.37
12/02/2020 06:09:04	120220	12022020	060904	186.05	13.103252	-57.073263	186.21	0.280	-0.990	2.490	186.05	-2.30	3.00	 	 	 	 	 	 	 	 	 	 	 	 	 	 	 	 	 	 	1581487744	8.57	15.87
12/02/2020 06:09:05	120220	12022020	060905	185.85	13.103213	-57.073272	186.03	0.020	-0.400	2.900	185.85	-1.90	3.40	 	 	 	 	 	 	 	 	 	 	 	 	 	 	 	 	 	 	1581487745	8.51	15.76
12/02/2020 06:09:06	120220	12022020	060906	185.80	13.103178	-57.073280	185.99	-0.490	0.460	3.050	185.80	-1.00	3.60	 	 	 	 	 	 	 	 	 	 	 	 	 	 	 	 	 	 	1581487746	7.67	14.20
12/02/2020 06:09:07	120220	12022020	060907	185.87	13.103145	-57.073290	186.08	-0.780	0.760	2.920	185.87	-0.60	3.50	 	 	 	 	 	 	 	 	 	 	 	 	 	 	 	 	 	 	1581487747	7.29	13.50
12/02/2020 06:09:08	120220	12022020	060908	186.04	13.103110	-57.073300	186.30	-0.560	0.470	2.440	186.04	-0.80	3.00	 	 	 	 	 	 	 	 	 	 	 	 	 	 	 	 	 	 	1581487748	7.79	14.43
12/02/2020 06:09:09	120220	12022020	060909	186.39	13.103073	-57.073308	186.58	0.010	-0.060	1.790	186.39	-1.30	2.40	 	 	 	 	 	 	 	 	 	 	 	 	 	 	 	 	 	 	1581487749	8.24	15.26
12/02/2020 06:09:10	120220	12022020	060910	186.53	13.103035	-57.073313	186.69	0.540	-0.540	1.320	186.53	-1.80	1.90	 	 	 	 	 	 	 	 	 	 	 	 	 	 	 	 	 	 	1581487750	8.26	15.30
12/02/2020 06:09:11	120220	12022020	060911	186.37	13.102997	-57.073317	186.50	0.760	-0.890	1.220	186.37	-2.20	1.70	 	 	 	 	 	 	 	 	 	 	 	 	 	 	 	 	 	 	1581487751	8.14	15.08
12/02/2020 06:09:12	120220	12022020	060912	186.17	13.102960	-57.073322	186.33	0.540	-0.770	1.310	186.17	-2.20	1.80	 	 	 	 	 	 	 	 	 	 	 	 	 	 	 	 	 	 	1581487752	8.08	14.96
12/02/2020 06:09:13	120220	12022020	060913	186.36	13.102925	-57.073327	186.55	0.040	-0.160	1.310	186.36	-1.60	1.80	 	 	 	 	 	 	 	 	 	 	 	 	 	 	 	 	 	 	1581487753	7.74	14.33
12/02/2020 06:09:14	120220	12022020	060914	186.77	13.102892	-57.073333	186.97	-0.330	0.270	1.360	186.77	-1.10	1.90	 	 	 	 	 	 	 	 	 	 	 	 	 	 	 	 	 	 	1581487754	7.23	13.39
12/02/2020 06:09:15	120220	12022020	060915	186.94	13.102858	-57.073342	187.10	-0.260	-0.070	1.650	186.94	-1.40	2.10	 	 	 	 	 	 	 	 	 	 	 	 	 	 	 	 	 	 	1581487755	7.36	13.63
12/02/2020 06:09:16	120220	12022020	060916	186.79	13.102822	-57.073350	186.95	0.020	-0.730	2.150	186.79	-2.00	2.60	 	 	 	 	 	 	 	 	 	 	 	 	 	 	 	 	 	 	1581487756	8.24	15.26
12/02/2020 06:09:17	120220	12022020	060917	186.48	13.102782	-57.073360	186.64	0.130	-0.880	2.780	186.48	-2.30	3.20	 	 	 	 	 	 	 	 	 	 	 	 	 	 	 	 	 	 	1581487757	8.74	16.19
12/02/2020 06:09:18	120220	12022020	060918	186.20	13.102743	-57.073370	186.37	-0.050	-0.360	3.140	186.20	-1.80	3.60	 	 	 	 	 	 	 	 	 	 	 	 	 	 	 	 	 	 	1581487758	8.35	15.46
12/02/2020 06:09:19	120220	12022020	060919	186.03	13.102710	-57.073380	186.20	-0.300	0.200	3.090	186.03	-1.20	3.60	 	 	 	 	 	 	 	 	 	 	 	 	 	 	 	 	 	 	1581487759	7.67	14.20
12/02/2020 06:09:20	120220	12022020	060920	185.81	13.102675	-57.073387	185.99	-0.290	0.160	2.880	185.81	-1.20	3.40	 	 	 	 	 	 	 	 	 	 	 	 	 	 	 	 	 	 	1581487760	7.54	13.96
12/02/2020 06:09:21	120220	12022020	060921	185.57	13.102638	-57.073395	185.74	-0.070	-0.230	2.540	185.57	-1.50	3.10	 	 	 	 	 	 	 	 	 	 	 	 	 	 	 	 	 	 	1581487761	8.17	15.13
12/02/2020 06:09:22	120220	12022020	060922	185.52	13.102598	-57.073400	185.73	0.100	-0.290	2.020	185.52	-1.70	2.60	 	 	 	 	 	 	 	 	 	 	 	 	 	 	 	 	 	 	1581487762	8.52	15.78
12/02/2020 06:09:23	120220	12022020	060923	185.74	13.102562	-57.073405	185.93	0.070	-0.070	1.510	185.74	-1.50	2.10	 	 	 	 	 	 	 	 	 	 	 	 	 	 	 	 	 	 	1581487763	8.10	15.00
12/02/2020 06:09:24	120220	12022020	060924	185.90	13.102527	-57.073408	186.08	-0.020	-0.080	1.390	185.90	-1.40	1.90	 	 	 	 	 	 	 	 	 	 	 	 	 	 	 	 	 	 	1581487764	7.64	14.15
12/02/2020 06:09:25	120220	12022020	060925	185.88	13.102490	-57.073413	186.06	-0.040	-0.360	1.680	185.88	-1.70	2.10	 	 	 	 	 	 	 	 	 	 	 	 	 	 	 	 	 	 	1581487765	7.83	14.50
12/02/2020 06:09:26	120220	12022020	060926	185.74	13.102452	-57.073422	185.92	-0.010	-0.660	2.140	185.74	-2.00	2.60	 	 	 	 	 	 	 	 	 	 	 	 	 	 	 	 	 	 	1581487766	8.22	15.22
12/02/2020 06:09:27	120220	12022020	060927	185.61	13.102415	-57.073430	185.82	0.010	-0.630	2.440	185.61	-2.00	2.90	 	 	 	 	 	 	 	 	 	 	 	 	 	 	 	 	 	 	1581487767	8.37	15.50
12/02/2020 06:09:28	120220	12022020	060928	185.70	13.102378	-57.073440	185.93	-0.020	-0.160	2.400	185.70	-1.60	2.90	 	 	 	 	 	 	 	 	 	 	 	 	 	 	 	 	 	 	1581487768	8.15	15.09
12/02/2020 06:09:29	120220	12022020	060929	185.93	13.102343	-57.073448	186.15	-0.010	0.310	2.150	185.93	-1.10	2.70	 	 	 	 	 	 	 	 	 	 	 	 	 	 	 	 	 	 	1581487769	7.64	14.15
12/02/2020 06:09:30	120220	12022020	060930	186.18	13.102308	-57.073453	186.40	0.080	0.450	1.790	186.18	-0.90	2.40	 	 	 	 	 	 	 	 	 	 	 	 	 	 	 	 	 	 	1581487770	7.52	13.93
12/02/2020 06:09:31	120220	12022020	060931	186.36	13.102273	-57.073458	186.57	0.210	0.170	1.510	186.36	-1.10	2.10	 	 	 	 	 	 	 	 	 	 	 	 	 	 	 	 	 	 	1581487771	7.78	14.41
12/02/2020 06:09:32	120220	12022020	060932	186.41	13.102235	-57.073462	186.60	0.310	-0.340	1.460	186.41	-1.60	2.00	 	 	 	 	 	 	 	 	 	 	 	 	 	 	 	 	 	 	1581487772	8.11	15.02
12/02/2020 06:09:33	120220	12022020	060933	186.27	13.102197	-57.073467	186.45	0.260	-0.810	1.700	186.27	-2.10	2.20	 	 	 	 	 	 	 	 	 	 	 	 	 	 	 	 	 	 	1581487773	8.28	15.33
12/02/2020 06:09:34	120220	12022020	060934	185.98	13.102158	-57.073473	186.16	0.040	-1.060	2.150	185.98	-2.40	2.60	 	 	 	 	 	 	 	 	 	 	 	 	 	 	 	 	 	 	1581487774	8.30	15.37
12/02/2020 06:09:35	120220	12022020	060935	185.67	13.102122	-57.073482	185.84	-0.220	-0.920	2.570	185.67	-2.30	3.00	 	 	 	 	 	 	 	 	 	 	 	 	 	 	 	 	 	 	1581487775	8.25	15.28
12/02/2020 06:09:36	120220	12022020	060936	185.49	13.102085	-57.073492	185.67	-0.410	-0.430	2.770	185.49	-1.90	3.30	 	 	 	 	 	 	 	 	 	 	 	 	 	 	 	 	 	 	1581487776	8.11	15.02
12/02/2020 06:09:37	120220	12022020	060937	185.72	13.102050	-57.073502	185.94	-0.440	0.230	2.460	185.72	-1.20	3.00	 	 	 	 	 	 	 	 	 	 	 	 	 	 	 	 	 	 	1581487777	7.89	14.61
12/02/2020 06:09:38	120220	12022020	060938	186.21	13.102015	-57.073510	186.43	-0.230	0.600	1.740	186.21	-0.80	2.40	 	 	 	 	 	 	 	 	 	 	 	 	 	 	 	 	 	 	1581487778	7.61	14.09
12/02/2020 06:09:39	120220	12022020	060939	186.59	13.101980	-57.073513	186.78	0.160	0.360	1.090	186.59	-0.90	1.70	 	 	 	 	 	 	 	 	 	 	 	 	 	 	 	 	 	 	1581487779	7.71	14.28
12/02/2020 06:09:40	120220	12022020	060940	186.69	13.101942	-57.073517	186.87	0.460	-0.270	0.900	186.69	-1.50	1.40	 	 	 	 	 	 	 	 	 	 	 	 	 	 	 	 	 	 	1581487780	8.25	15.28
12/02/2020 06:09:41	120220	12022020	060941	186.60	13.101902	-57.073520	186.77	0.370	-0.750	1.140	186.60	-2.10	1.60	 	 	 	 	 	 	 	 	 	 	 	 	 	 	 	 	 	 	1581487781	8.61	15.95
12/02/2020 06:09:42	120220	12022020	060942	186.36	13.101862	-57.073525	186.53	-0.010	-0.890	1.670	186.36	-2.20	2.10	 	 	 	 	 	 	 	 	 	 	 	 	 	 	 	 	 	 	1581487782	8.44	15.63
12/02/2020 06:09:43	120220	12022020	060943	186.09	13.101825	-57.073535	186.27	-0.350	-0.770	2.300	186.09	-2.20	2.70	 	 	 	 	 	 	 	 	 	 	 	 	 	 	 	 	 	 	1581487783	8.26	15.30
12/02/2020 06:09:44	120220	12022020	060944	186.13	13.101788	-57.073547	186.34	-0.470	-0.270	2.570	186.13	-1.70	3.10	 	 	 	 	 	 	 	 	 	 	 	 	 	 	 	 	 	 	1581487784	8.28	15.33
12/02/2020 06:09:45	120220	12022020	060945	186.58	13.101753	-57.073557	186.81	-0.400	0.480	2.300	186.58	-1.00	2.90	 	 	 	 	 	 	 	 	 	 	 	 	 	 	 	 	 	 	1581487785	7.94	14.70
12/02/2020 06:09:46	120220	12022020	060946	187.10	13.101720	-57.073565	187.31	-0.230	0.800	1.820	187.10	-0.60	2.40	 	 	 	 	 	 	 	 	 	 	 	 	 	 	 	 	 	 	1581487786	7.41	13.72
12/02/2020 06:09:47	120220	12022020	060947	187.32	13.101685	-57.073570	187.50	0.050	0.310	1.340	187.32	-0.90	1.90	 	 	 	 	 	 	 	 	 	 	 	 	 	 	 	 	 	 	1581487787	7.60	14.08
12/02/2020 06:09:48	120220	12022020	060948	187.32	13.101645	-57.073575	187.47	0.330	-0.530	1.030	187.32	-1.80	1.60	 	 	 	 	 	 	 	 	 	 	 	 	 	 	 	 	 	 	1581487788	8.36	15.48
12/02/2020 06:09:49	120220	12022020	060949	187.16	13.101605	-57.073580	187.30	0.460	-1.050	1.150	187.16	-2.40	1.60	 	 	 	 	 	 	 	 	 	 	 	 	 	 	 	 	 	 	1581487789	8.72	16.15
12/02/2020 06:09:50	120220	12022020	060950	186.90	13.101567	-57.073587	187.03	0.480	-1.030	1.440	186.90	-2.40	1.90	 	 	 	 	 	 	 	 	 	 	 	 	 	 	 	 	 	 	1581487790	8.44	15.63
12/02/2020 06:09:51	120220	12022020	060951	186.59	13.101530	-57.073593	186.74	0.370	-0.580	1.670	186.59	-2.00	2.20	 	 	 	 	 	 	 	 	 	 	 	 	 	 	 	 	 	 	1581487791	8.00	14.82
12/02/2020 06:09:52	120220	12022020	060952	186.48	13.101495	-57.073598	186.67	0.070	0.070	1.870	186.48	-1.40	2.40	 	 	 	 	 	 	 	 	 	 	 	 	 	 	 	 	 	 	1581487792	7.76	14.37
12/02/2020 06:09:53	120220	12022020	060953	186.68	13.101460	-57.073607	186.88	-0.320	0.600	2.010	186.68	-0.80	2.50	 	 	 	 	 	 	 	 	 	 	 	 	 	 	 	 	 	 	1581487793	7.57	14.02
12/02/2020 06:09:54	120220	12022020	060954	186.91	13.101425	-57.073615	187.09	-0.460	0.590	1.980	186.91	-0.70	2.50	 	 	 	 	 	 	 	 	 	 	 	 	 	 	 	 	 	 	1581487794	7.58	14.04
12/02/2020 06:09:55	120220	12022020	060955	186.92	13.101390	-57.073623	187.08	-0.210	-0.220	1.960	186.92	-1.40	2.50	 	 	 	 	 	 	 	 	 	 	 	 	 	 	 	 	 	 	1581487795	7.99	14.80
12/02/2020 06:09:56	120220	12022020	060956	186.71	13.101350	-57.073632	186.87	0.200	-1.210	2.040	186.71	-2.50	2.50	 	 	 	 	 	 	 	 	 	 	 	 	 	 	 	 	 	 	1581487796	8.83	16.35
12/02/2020 06:09:57	120220	12022020	060957	186.52	13.101307	-57.073640	186.69	0.330	-1.450	2.120	186.52	-2.80	2.60	 	 	 	 	 	 	 	 	 	 	 	 	 	 	 	 	 	 	1581487797	9.18	17.00
12/02/2020 06:09:58	120220	12022020	060958	186.55	13.101268	-57.073648	186.72	0.000	-0.660	2.060	186.55	-2.20	2.60	 	 	 	 	 	 	 	 	 	 	 	 	 	 	 	 	 	 	1581487798	8.50	15.74
12/02/2020 06:09:59	120220	12022020	060959	186.79	13.101235	-57.073655	186.97	-0.540	0.470	1.850	186.79	-1.00	2.40	 	 	 	 	 	 	 	 	 	 	 	 	 	 	 	 	 	 	1581487799	7.39	13.69
12/02/2020 06:10:00	120220	12022020	061000	186.94	13.101203	-57.073662	187.11	-0.780	0.760	1.680	186.94	-0.60	2.20	 	 	 	 	 	 	 	 	 	 	 	 	 	 	 	 	 	 	1581487800	6.91	12.80
12/02/2020 06:10:01	120220	12022020	061001	186.90	13.101168	-57.073670	187.03	-0.370	-0.010	1.670	186.90	-1.20	2.20	1015.40	26.10	26.20	20.80	20.90	0.0	72.0	72.0	439.0	25.8	275.00	10.30	79.00	10.80	17	8695.0	27.2	27.2	1581487801	7.78	14.41
12/02/2020 06:10:02	120220	12022020	061002	186.77	13.101127	-57.073678	186.92	0.360	-0.730	1.780	186.77	-2.00	2.30	 	 	 	 	 	 	 	 	 	 	 	 	 	 	 	 	 	 	1581487802	9.01	16.69
12/02/2020 06:10:03	120220	12022020	061003	186.98	13.101085	-57.073687	187.16	0.720	-0.570	1.790	186.98	-2.00	2.30	 	 	 	 	 	 	 	 	 	 	 	 	 	 	 	 	 	 	1581487803	9.08	16.82
12/02/2020 06:10:04	120220	12022020	061004	187.59	13.101048	-57.073692	187.79	0.430	0.170	1.740	187.59	-1.30	2.30	 	 	 	 	 	 	 	 	 	 	 	 	 	 	 	 	 	 	1581487804	8.07	14.95
12/02/2020 06:10:05	120220	12022020	061005	188.20	13.101015	-57.073697	188.38	-0.110	0.650	1.820	188.20	-0.70	2.30	 	 	 	 	 	 	 	 	 	 	 	 	 	 	 	 	 	 	1581487805	7.18	13.30
12/02/2020 06:10:06	120220	12022020	061006	188.38	13.100983	-57.073703	188.54	-0.320	0.340	2.230	188.38	-0.90	2.70	 	 	 	 	 	 	 	 	 	 	 	 	 	 	 	 	 	 	1581487806	7.20	13.33
12/02/2020 06:10:07	120220	12022020	061007	187.93	13.100947	-57.073713	188.07	0.010	-0.580	2.930	187.93	-1.80	3.30	 	 	 	 	 	 	 	 	 	 	 	 	 	 	 	 	 	 	1581487807	7.99	14.80
12/02/2020 06:10:08	120220	12022020	061008	187.15	13.100907	-57.073725	187.30	0.460	-1.240	3.570	187.15	-2.60	4.00	 	 	 	 	 	 	 	 	 	 	 	 	 	 	 	 	 	 	1581487808	8.82	16.33
12/02/2020 06:10:09	120220	12022020	061009	186.53	13.100868	-57.073737	186.71	0.510	-1.120	3.800	186.53	-2.50	4.30	 	 	 	 	 	 	 	 	 	 	 	 	 	 	 	 	 	 	1581487809	8.77	16.24
12/02/2020 06:10:10	120220	12022020	061010	186.39	13.100832	-57.073745	186.60	0.060	-0.380	3.390	186.39	-1.90	4.00	 	 	 	 	 	 	 	 	 	 	 	 	 	 	 	 	 	 	1581487810	8.09	14.98
12/02/2020 06:10:11	120220	12022020	061011	186.80	13.100798	-57.073753	187.02	-0.510	0.450	2.520	186.80	-1.00	3.20	 	 	 	 	 	 	 	 	 	 	 	 	 	 	 	 	 	 	1581487811	7.42	13.74
12/02/2020 06:10:12	120220	12022020	061012	187.46	13.100765	-57.073760	187.66	-0.690	0.690	1.520	187.46	-0.70	2.20	 	 	 	 	 	 	 	 	 	 	 	 	 	 	 	 	 	 	1581487812	7.18	13.30
12/02/2020 06:10:13	120220	12022020	061013	188.05	13.100730	-57.073767	188.23	-0.220	0.110	0.510	188.05	-1.20	1.20	 	 	 	 	 	 	 	 	 	 	 	 	 	 	 	 	 	 	1581487813	7.67	14.20
12/02/2020 06:10:14	120220	12022020	061014	188.45	13.100690	-57.073772	188.66	0.450	-0.730	-0.150	188.45	-2.00	0.40	 	 	 	 	 	 	 	 	 	 	 	 	 	 	 	 	 	 	1581487814	8.51	15.76
12/02/2020 06:10:15	120220	12022020	061015	188.69	13.100650	-57.073775	188.80	0.720	-1.140	-0.080	188.69	-2.50	0.40	 	 	 	 	 	 	 	 	 	 	 	 	 	 	 	 	 	 	1581487815	8.81	16.32
12/02/2020 06:10:16	120220	12022020	061016	188.51	13.100612	-57.073778	188.62	0.400	-0.950	0.480	188.51	-2.40	0.90	 	 	 	 	 	 	 	 	 	 	 	 	 	 	 	 	 	 	1581487816	8.41	15.58
12/02/2020 06:10:17	120220	12022020	061017	188.25	13.100575	-57.073787	188.38	-0.270	-0.330	1.240	188.25	-1.80	1.60	 	 	 	 	 	 	 	 	 	 	 	 	 	 	 	 	 	 	1581487817	7.90	14.63
12/02/2020 06:10:18	120220	12022020	061018	187.97	13.100542	-57.073797	188.10	-0.840	0.150	2.100	187.97	-1.30	2.50	 	 	 	 	 	 	 	 	 	 	 	 	 	 	 	 	 	 	1581487818	7.62	14.11
12/02/2020 06:10:19	120220	12022020	061019	187.52	13.100507	-57.073810	187.66	-0.850	0.080	2.920	187.52	-1.30	3.30	 	 	 	 	 	 	 	 	 	 	 	 	 	 	 	 	 	 	1581487819	7.96	14.74
12/02/2020 06:10:20	120220	12022020	061020	187.04	13.100468	-57.073825	187.21	-0.310	-0.160	3.290	187.04	-1.50	3.80	 	 	 	 	 	 	 	 	 	 	 	 	 	 	 	 	 	 	1581487820	8.72	16.15
12/02/2020 06:10:21	120220	12022020	061021	186.98	13.100430	-57.073838	187.19	0.270	0.100	2.920	186.98	-1.30	3.50	 	 	 	 	 	 	 	 	 	 	 	 	 	 	 	 	 	 	1581487821	8.90	16.48
12/02/2020 06:10:22	120220	12022020	061022	187.32	13.100393	-57.073847	187.54	0.460	0.720	2.170	187.32	-0.70	2.80	 	 	 	 	 	 	 	 	 	 	 	 	 	 	 	 	 	 	1581487822	8.02	14.85
12/02/2020 06:10:23	120220	12022020	061023	187.71	13.100360	-57.073850	187.90	0.330	0.890	1.370	187.71	-0.50	2.00	 	 	 	 	 	 	 	 	 	 	 	 	 	 	 	 	 	 	1581487823	7.19	13.32
12/02/2020 06:10:24	120220	12022020	061024	187.94	13.100327	-57.073852	188.10	0.240	0.170	0.830	187.94	-1.10	1.40	 	 	 	 	 	 	 	 	 	 	 	 	 	 	 	 	 	 	1581487824	7.31	13.54
12/02/2020 06:10:25	120220	12022020	061025	187.90	13.100288	-57.073855	188.03	0.380	-1.100	0.880	187.90	-2.30	1.40	 	 	 	 	 	 	 	 	 	 	 	 	 	 	 	 	 	 	1581487825	8.10	15.00
12/02/2020 06:10:26	120220	12022020	061026	187.59	13.100248	-57.073863	187.71	0.560	-2.010	1.390	187.59	-3.30	1.80	 	 	 	 	 	 	 	 	 	 	 	 	 	 	 	 	 	 	1581487826	8.80	16.30
12/02/2020 06:10:27	120220	12022020	061027	187.15	13.100208	-57.073873	187.28	0.440	-1.800	1.970	187.15	-3.30	2.40	 	 	 	 	 	 	 	 	 	 	 	 	 	 	 	 	 	 	1581487827	8.74	16.19
12/02/2020 06:10:28	120220	12022020	061028	186.90	13.100173	-57.073883	187.07	-0.050	-0.660	2.360	186.90	-2.20	2.80	 	 	 	 	 	 	 	 	 	 	 	 	 	 	 	 	 	 	1581487828	7.95	14.72
12/02/2020 06:10:29	120220	12022020	061029	186.96	13.100142	-57.073895	187.13	-0.570	0.520	2.420	186.96	-1.00	2.90	 	 	 	 	 	 	 	 	 	 	 	 	 	 	 	 	 	 	1581487829	7.17	13.28
12/02/2020 06:10:30	120220	12022020	061030	187.14	13.100110	-57.073903	187.32	-0.750	0.900	2.310	187.14	-0.50	2.80	 	 	 	 	 	 	 	 	 	 	 	 	 	 	 	 	 	 	1581487830	7.11	13.17
12/02/2020 06:10:31	120220	12022020	061031	187.43	13.100073	-57.073912	187.61	-0.510	0.510	2.080	187.43	-0.80	2.60	 	 	 	 	 	 	 	 	 	 	 	 	 	 	 	 	 	 	1581487831	7.88	14.59
12/02/2020 06:10:32	120220	12022020	061032	187.85	13.100035	-57.073920	188.02	-0.110	0.030	1.680	187.85	-1.30	2.20	 	 	 	 	 	 	 	 	 	 	 	 	 	 	 	 	 	 	1581487832	8.60	15.93
12/02/2020 06:10:33	120220	12022020	061033	188.16	13.099995	-57.073927	188.31	0.230	-0.270	1.300	188.16	-1.60	1.80	 	 	 	 	 	 	 	 	 	 	 	 	 	 	 	 	 	 	1581487833	8.51	15.76
12/02/2020 06:10:34	120220	12022020	061034	188.20	13.099958	-57.073932	188.32	0.440	-0.660	1.170	188.20	-2.00	1.70	 	 	 	 	 	 	 	 	 	 	 	 	 	 	 	 	 	 	1581487834	8.15	15.09
12/02/2020 06:10:35	120220	12022020	061035	188.04	13.099920	-57.073937	188.16	0.520	-0.990	1.280	188.04	-2.30	1.80	 	 	 	 	 	 	 	 	 	 	 	 	 	 	 	 	 	 	1581487835	8.26	15.30
12/02/2020 06:10:36	120220	12022020	061036	187.81	13.099882	-57.073942	187.86	0.380	-0.870	1.720	187.81	-2.30	2.20	 	 	 	 	 	 	 	 	 	 	 	 	 	 	 	 	 	 	1581487836	8.35	15.46
12/02/2020 06:10:37	120220	12022020	061037	187.41	13.099845	-57.073950	187.55	-0.020	-0.300	2.330	187.41	-1.80	2.80	 	 	 	 	 	 	 	 	 	 	 	 	 	 	 	 	 	 	1581487837	8.06	14.93
12/02/2020 06:10:38	120220	12022020	061038	187.31	13.099810	-57.073958	187.49	-0.530	0.430	2.730	187.31	-1.00	3.20	 	 	 	 	 	 	 	 	 	 	 	 	 	 	 	 	 	 	1581487838	7.72	14.30
12/02/2020 06:10:39	120220	12022020	061039	187.55	13.099777	-57.073970	187.74	-0.820	0.810	2.700	187.55	-0.60	3.20	 	 	 	 	 	 	 	 	 	 	 	 	 	 	 	 	 	 	1581487839	7.53	13.95
12/02/2020 06:10:40	120220	12022020	061040	187.75	13.099743	-57.073980	187.93	-0.590	0.390	2.480	187.75	-0.90	3.00	 	 	 	 	 	 	 	 	 	 	 	 	 	 	 	 	 	 	1581487840	7.68	14.22
12/02/2020 06:10:41	120220	12022020	061041	187.72	13.099705	-57.073992	187.88	0.060	-0.470	2.330	187.72	-1.70	2.90	 	 	 	 	 	 	 	 	 	 	 	 	 	 	 	 	 	 	1581487841	8.42	15.59
12/02/2020 06:10:42	120220	12022020	061042	187.71	13.099665	-57.074000	187.89	0.630	-0.740	1.940	187.71	-2.10	2.50	 	 	 	 	 	 	 	 	 	 	 	 	 	 	 	 	 	 	1581487842	8.92	16.52
12/02/2020 06:10:43	120220	12022020	061043	187.94	13.099627	-57.074008	188.12	0.740	-0.180	1.320	187.94	-1.70	1.90	 	 	 	 	 	 	 	 	 	 	 	 	 	 	 	 	 	 	1581487843	8.24	15.26
12/02/2020 06:10:44	120220	12022020	061044	188.24	13.099593	-57.074012	188.40	0.520	0.330	0.740	188.24	-1.10	1.30	 	 	 	 	 	 	 	 	 	 	 	 	 	 	 	 	 	 	1581487844	7.16	13.26
12/02/2020 06:10:45	120220	12022020	061045	188.44	13.099560	-57.074013	188.58	0.360	-0.080	0.370	188.44	-1.30	0.90	 	 	 	 	 	 	 	 	 	 	 	 	 	 	 	 	 	 	1581487845	7.11	13.17
12/02/2020 06:10:46	120220	12022020	061046	188.47	13.099523	-57.074017	188.60	0.420	-1.130	0.480	188.47	-2.40	1.00	 	 	 	 	 	 	 	 	 	 	 	 	 	 	 	 	 	 	1581487846	8.10	15.00
12/02/2020 06:10:47	120220	12022020	061047	188.18	13.099482	-57.074022	188.31	0.420	-1.730	1.260	188.18	-3.10	1.70	 	 	 	 	 	 	 	 	 	 	 	 	 	 	 	 	 	 	1581487847	8.95	16.58
12/02/2020 06:10:48	120220	12022020	061048	187.70	13.099442	-57.074032	187.84	-0.010	-1.200	2.240	187.70	-2.70	2.60	 	 	 	 	 	 	 	 	 	 	 	 	 	 	 	 	 	 	1581487848	8.78	16.26
12/02/2020 06:10:49	120220	12022020	061049	187.38	13.099407	-57.074043	187.57	-0.800	0.010	2.880	187.38	-1.50	3.30	 	 	 	 	 	 	 	 	 	 	 	 	 	 	 	 	 	 	1581487849	7.90	14.63
12/02/2020 06:10:50	120220	12022020	061050	187.38	13.099375	-57.074057	187.62	-1.420	0.830	3.000	187.38	-0.60	3.50	 	 	 	 	 	 	 	 	 	 	 	 	 	 	 	 	 	 	1581487850	7.38	13.67
12/02/2020 06:10:51	120220	12022020	061051	187.70	13.099342	-57.074070	187.92	-1.260	0.740	2.660	187.70	-0.60	3.20	 	 	 	 	 	 	 	 	 	 	 	 	 	 	 	 	 	 	1581487851	7.74	14.33
12/02/2020 06:10:52	120220	12022020	061052	188.03	13.099305	-57.074083	188.31	-0.330	0.090	1.880	188.03	-1.20	2.50	 	 	 	 	 	 	 	 	 	 	 	 	 	 	 	 	 	 	1581487852	8.53	15.80
12/02/2020 06:10:53	120220	12022020	061053	188.67	13.099263	-57.074090	188.86	0.670	-0.310	0.840	188.67	-1.70	1.50	 	 	 	 	 	 	 	 	 	 	 	 	 	 	 	 	 	 	1581487853	8.96	16.59
12/02/2020 06:10:54	120220	12022020	061054	189.20	13.099223	-57.074093	189.34	1.070	-0.220	0.150	189.20	-1.60	0.70	 	 	 	 	 	 	 	 	 	 	 	 	 	 	 	 	 	 	1581487854	8.59	15.91
12/02/2020 06:10:55	120220	12022020	061055	189.22	13.099187	-57.074095	189.33	0.830	-0.110	0.260	189.22	-1.50	0.70	 	 	 	 	 	 	 	 	 	 	 	 	 	 	 	 	 	 	1581487855	7.80	14.45
12/02/2020 06:10:56	120220	12022020	061056	188.72	13.099152	-57.074098	188.84	0.410	-0.230	0.970	188.72	-1.60	1.40	 	 	 	 	 	 	 	 	 	 	 	 	 	 	 	 	 	 	1581487856	7.60	14.08
12/02/2020 06:10:57	120220	12022020	061057	188.28	13.099117	-57.074107	188.44	0.050	-0.170	1.680	188.28	-1.60	2.10	 	 	 	 	 	 	 	 	 	 	 	 	 	 	 	 	 	 	1581487857	7.94	14.70
12/02/2020 06:10:58	120220	12022020	061058	188.19	13.099080	-57.074117	188.38	-0.250	0.000	2.240	188.19	-1.40	2.70	 	 	 	 	 	 	 	 	 	 	 	 	 	 	 	 	 	 	1581487858	7.88	14.59
12/02/2020 06:10:59	120220	12022020	061059	188.30	13.099047	-57.074128	188.51	-0.460	-0.020	2.610	188.30	-1.40	3.10	 	 	 	 	 	 	 	 	 	 	 	 	 	 	 	 	 	 	1581487859	7.76	14.37
12/02/2020 06:11:00	120220	12022020	061100	188.43	13.099012	-57.074142	188.67	-0.440	-0.370	2.680	188.43	-1.70	3.20	 	 	 	 	 	 	 	 	 	 	 	 	 	 	 	 	 	 	1581487860	7.92	14.67
12/02/2020 06:11:01	120220	12022020	061101	188.47	13.098975	-57.074155	188.67	-0.090	-0.920	2.560	188.47	-2.20	3.10	1015.40	26.20	26.20	21.00	21.00	0.0	73.0	73.0	440.0	25.8	275.00	9.40	78.00	10.00	17	9488.0	27.2	27.2	1581487861	8.24	15.26
12/02/2020 06:11:02	120220	12022020	061102	188.36	13.098938	-57.074167	188.50	0.450	-1.270	2.220	188.36	-2.60	2.80	 	 	 	 	 	 	 	 	 	 	 	 	 	 	 	 	 	 	1581487862	8.52	15.78
12/02/2020 06:11:03	120220	12022020	061103	188.20	13.098898	-57.074173	188.39	0.690	-0.900	1.750	188.20	-2.40	2.30	 	 	 	 	 	 	 	 	 	 	 	 	 	 	 	 	 	 	1581487863	8.46	15.67
12/02/2020 06:11:04	120220	12022020	061104	188.22	13.098863	-57.074177	188.42	0.340	0.070	1.360	188.22	-1.40	1.90	 	 	 	 	 	 	 	 	 	 	 	 	 	 	 	 	 	 	1581487864	7.83	14.50
12/02/2020 06:11:05	120220	12022020	061105	188.21	13.098830	-57.074180	188.36	-0.300	0.760	1.180	188.21	-0.70	1.70	 	 	 	 	 	 	 	 	 	 	 	 	 	 	 	 	 	 	1581487865	7.10	13.15
12/02/2020 06:11:06	120220	12022020	061106	188.09	13.098797	-57.074187	188.24	-0.640	0.630	1.220	188.09	-0.70	1.70	 	 	 	 	 	 	 	 	 	 	 	 	 	 	 	 	 	 	1581487866	7.31	13.54
12/02/2020 06:11:07	120220	12022020	061107	188.11	13.098760	-57.074195	188.28	-0.490	0.040	1.380	188.11	-1.20	1.90	 	 	 	 	 	 	 	 	 	 	 	 	 	 	 	 	 	 	1581487867	8.20	15.19
12/02/2020 06:11:08	120220	12022020	061108	188.24	13.098720	-57.074207	188.41	0.040	-0.520	1.550	188.24	-1.80	2.00	 	 	 	 	 	 	 	 	 	 	 	 	 	 	 	 	 	 	1581487868	8.66	16.04
12/02/2020 06:11:09	120220	12022020	061109	188.23	13.098682	-57.074217	188.37	0.530	-0.870	1.680	188.23	-2.20	2.20	 	 	 	 	 	 	 	 	 	 	 	 	 	 	 	 	 	 	1581487869	8.56	15.85
12/02/2020 06:11:10	120220	12022020	061110	188.06	13.098643	-57.074225	188.21	0.590	-0.830	1.890	188.06	-2.20	2.40	 	 	 	 	 	 	 	 	 	 	 	 	 	 	 	 	 	 	1581487870	8.33	15.43
12/02/2020 06:11:11	120220	12022020	061111	187.97	13.098607	-57.074232	188.13	0.080	-0.310	2.250	187.97	-1.80	2.70	 	 	 	 	 	 	 	 	 	 	 	 	 	 	 	 	 	 	1581487871	8.01	14.83
12/02/2020 06:11:12	120220	12022020	061112	188.02	13.098573	-57.074240	188.19	-0.620	0.320	2.540	188.02	-1.10	3.00	 	 	 	 	 	 	 	 	 	 	 	 	 	 	 	 	 	 	1581487872	7.50	13.89
12/02/2020 06:11:13	120220	12022020	061113	188.08	13.098542	-57.074250	188.23	-0.890	0.500	2.580	188.08	-0.90	3.10	 	 	 	 	 	 	 	 	 	 	 	 	 	 	 	 	 	 	1581487873	7.35	13.61
12/02/2020 06:11:14	120220	12022020	061114	188.04	13.098507	-57.074262	188.20	-0.440	0.050	2.380	188.04	-1.20	2.90	 	 	 	 	 	 	 	 	 	 	 	 	 	 	 	 	 	 	1581487874	7.77	14.39
12/02/2020 06:11:15	120220	12022020	061115	187.99	13.098468	-57.074270	188.13	0.350	-0.550	2.040	187.99	-1.90	2.60	 	 	 	 	 	 	 	 	 	 	 	 	 	 	 	 	 	 	1581487875	8.42	15.59
12/02/2020 06:11:16	120220	12022020	061116	187.90	13.098428	-57.074278	188.00	0.850	-0.740	1.710	187.90	-2.10	2.30	 	 	 	 	 	 	 	 	 	 	 	 	 	 	 	 	 	 	1581487876	8.60	15.93
12/02/2020 06:11:17	120220	12022020	061117	187.85	13.098392	-57.074283	188.01	0.750	-0.300	1.460	187.85	-1.80	2.00	 	 	 	 	 	 	 	 	 	 	 	 	 	 	 	 	 	 	1581487877	8.19	15.17
12/02/2020 06:11:18	120220	12022020	061118	188.15	13.098357	-57.074288	188.32	0.200	0.420	1.210	188.15	-1.00	1.80	 	 	 	 	 	 	 	 	 	 	 	 	 	 	 	 	 	 	1581487878	7.47	13.83
12/02/2020 06:11:19	120220	12022020	061119	188.57	13.098325	-57.074293	188.72	-0.270	0.640	1.060	188.57	-0.70	1.60	 	 	 	 	 	 	 	 	 	 	 	 	 	 	 	 	 	 	1581487879	6.94	12.85
12/02/2020 06:11:20	120220	12022020	061120	188.65	13.098292	-57.074300	188.78	-0.190	-0.230	1.270	188.65	-1.40	1.70	 	 	 	 	 	 	 	 	 	 	 	 	 	 	 	 	 	 	1581487880	7.31	13.54
12/02/2020 06:11:21	120220	12022020	061121	188.31	13.098253	-57.074310	188.43	0.240	-1.530	1.860	188.31	-2.70	2.30	 	 	 	 	 	 	 	 	 	 	 	 	 	 	 	 	 	 	1581487881	8.53	15.80
12/02/2020 06:11:22	120220	12022020	061122	187.88	13.098212	-57.074320	188.03	0.390	-2.040	2.570	187.88	-3.40	3.00	 	 	 	 	 	 	 	 	 	 	 	 	 	 	 	 	 	 	1581487882	9.33	17.28
12/02/2020 06:11:23	120220	12022020	061123	187.79	13.098172	-57.074330	187.99	-0.060	-1.190	3.010	187.79	-2.70	3.50	 	 	 	 	 	 	 	 	 	 	 	 	 	 	 	 	 	 	1581487883	8.84	16.37
12/02/2020 06:11:24	120220	12022020	061124	187.98	13.098138	-57.074342	188.18	-0.730	0.260	3.010	187.98	-1.30	3.50	 	 	 	 	 	 	 	 	 	 	 	 	 	 	 	 	 	 	1581487884	7.59	14.06
12/02/2020 06:11:25	120220	12022020	061125	188.07	13.098107	-57.074352	188.24	-0.920	0.950	2.920	188.07	-0.40	3.40	 	 	 	 	 	 	 	 	 	 	 	 	 	 	 	 	 	 	1581487885	6.93	12.83
12/02/2020 06:11:26	120220	12022020	061126	188.10	13.098073	-57.074362	188.30	-0.440	0.730	2.530	188.10	-0.60	3.10	 	 	 	 	 	 	 	 	 	 	 	 	 	 	 	 	 	 	1581487886	7.73	14.32
12/02/2020 06:11:27	120220	12022020	061127	188.44	13.098033	-57.074370	188.67	0.140	0.500	1.830	188.44	-0.90	2.40	 	 	 	 	 	 	 	 	 	 	 	 	 	 	 	 	 	 	1581487887	8.65	16.02
12/02/2020 06:11:28	120220	12022020	061128	188.85	13.097995	-57.074375	189.13	0.350	0.450	1.230	188.85	-0.90	1.80	 	 	 	 	 	 	 	 	 	 	 	 	 	 	 	 	 	 	1581487888	8.37	15.50
12/02/2020 06:11:29	120220	12022020	061129	189.11	13.097958	-57.074378	189.28	0.290	0.070	1.070	189.11	-1.20	1.60	 	 	 	 	 	 	 	 	 	 	 	 	 	 	 	 	 	 	1581487889	7.78	14.41
12/02/2020 06:11:30	120220	12022020	061130	188.89	13.097922	-57.074385	189.04	0.250	-0.650	1.290	188.89	-1.90	1.80	 	 	 	 	 	 	 	 	 	 	 	 	 	 	 	 	 	 	1581487890	7.93	14.69
12/02/2020 06:11:31	120220	12022020	061131	188.59	13.097883	-57.074393	188.75	0.370	-1.130	1.590	188.59	-2.50	2.10	 	 	 	 	 	 	 	 	 	 	 	 	 	 	 	 	 	 	1581487891	8.36	15.48
12/02/2020 06:11:32	120220	12022020	061132	188.54	13.097847	-57.074403	188.72	0.450	-0.940	1.740	188.54	-2.40	2.20	 	 	 	 	 	 	 	 	 	 	 	 	 	 	 	 	 	 	1581487892	8.29	15.35
12/02/2020 06:11:33	120220	12022020	061133	188.66	13.097812	-57.074412	188.84	0.290	-0.410	1.600	188.66	-1.80	2.10	 	 	 	 	 	 	 	 	 	 	 	 	 	 	 	 	 	 	1581487893	7.66	14.19
12/02/2020 06:11:34	120220	12022020	061134	188.64	13.097778	-57.074418	188.79	-0.010	-0.230	1.450	188.64	-1.60	2.00	 	 	 	 	 	 	 	 	 	 	 	 	 	 	 	 	 	 	1581487894	7.32	13.56
12/02/2020 06:11:35	120220	12022020	061135	188.38	13.097743	-57.074425	188.52	-0.250	-0.550	1.630	188.38	-1.90	2.10	 	 	 	 	 	 	 	 	 	 	 	 	 	 	 	 	 	 	1581487895	7.78	14.41
12/02/2020 06:11:36	120220	12022020	061136	188.17	13.097705	-57.074435	188.33	-0.380	-0.650	1.850	188.17	-2.00	2.30	 	 	 	 	 	 	 	 	 	 	 	 	 	 	 	 	 	 	1581487896	8.52	15.78
12/02/2020 06:11:37	120220	12022020	061137	188.21	13.097667	-57.074447	188.39	-0.470	-0.140	1.980	188.21	-1.60	2.50	 	 	 	 	 	 	 	 	 	 	 	 	 	 	 	 	 	 	1581487897	8.46	15.67
12/02/2020 06:11:38	120220	12022020	061138	188.27	13.097632	-57.074457	188.43	-0.470	0.350	2.030	188.27	-1.00	2.50	 	 	 	 	 	 	 	 	 	 	 	 	 	 	 	 	 	 	1581487898	7.78	14.41
12/02/2020 06:11:39	120220	12022020	061139	188.23	13.097597	-57.074467	188.39	-0.240	0.310	1.930	188.23	-1.00	2.50	 	 	 	 	 	 	 	 	 	 	 	 	 	 	 	 	 	 	1581487899	7.78	14.41
12/02/2020 06:11:40	120220	12022020	061140	188.30	13.097560	-57.074477	188.54	0.150	0.160	1.460	188.30	-1.20	2.00	 	 	 	 	 	 	 	 	 	 	 	 	 	 	 	 	 	 	1581487900	8.32	15.41
12/02/2020 06:11:41	120220	12022020	061141	188.74	13.097522	-57.074482	188.92	0.420	0.230	0.880	188.74	-1.10	1.50	 	 	 	 	 	 	 	 	 	 	 	 	 	 	 	 	 	 	1581487901	8.28	15.33
12/02/2020 06:11:42	120220	12022020	061142	189.02	13.097485	-57.074485	189.17	0.450	0.050	0.640	189.02	-1.30	1.20	 	 	 	 	 	 	 	 	 	 	 	 	 	 	 	 	 	 	1581487902	7.79	14.43
12/02/2020 06:11:43	120220	12022020	061143	188.80	13.097450	-57.074490	188.91	0.400	-0.740	1.130	188.80	-2.00	1.50	 	 	 	 	 	 	 	 	 	 	 	 	 	 	 	 	 	 	1581487903	7.82	14.48
12/02/2020 06:11:44	120220	12022020	061144	188.10	13.097410	-57.074498	188.23	0.320	-1.490	2.150	188.10	-2.80	2.50	 	 	 	 	 	 	 	 	 	 	 	 	 	 	 	 	 	 	1581487904	8.52	15.78
12/02/2020 06:11:45	120220	12022020	061145	187.49	13.097372	-57.074510	187.66	-0.030	-1.330	3.150	187.49	-2.80	3.50	 	 	 	 	 	 	 	 	 	 	 	 	 	 	 	 	 	 	1581487905	8.88	16.45
12/02/2020 06:11:46	120220	12022020	061146	187.24	13.097335	-57.074522	187.45	-0.630	-0.410	3.770	187.24	-1.90	4.20	 	 	 	 	 	 	 	 	 	 	 	 	 	 	 	 	 	 	1581487906	8.21	15.20
12/02/2020 06:11:47	120220	12022020	061147	187.40	13.097303	-57.074537	187.63	-1.110	0.470	3.690	187.40	-1.00	4.20	 	 	 	 	 	 	 	 	 	 	 	 	 	 	 	 	 	 	1581487907	7.58	14.04
12/02/2020 06:11:48	120220	12022020	061148	187.79	13.097270	-57.074550	188.00	-0.960	0.700	2.960	187.79	-0.60	3.60	 	 	 	 	 	 	 	 	 	 	 	 	 	 	 	 	 	 	1581487908	7.57	14.02
12/02/2020 06:11:49	120220	12022020	061149	188.02	13.097233	-57.074560	188.19	-0.110	0.290	1.990	188.02	-1.00	2.60	 	 	 	 	 	 	 	 	 	 	 	 	 	 	 	 	 	 	1581487909	8.05	14.91
12/02/2020 06:11:50	120220	12022020	061150	188.18	13.097195	-57.074567	188.36	0.820	-0.030	1.070	188.18	-1.40	1.70	 	 	 	 	 	 	 	 	 	 	 	 	 	 	 	 	 	 	1581487910	8.64	16.00
12/02/2020 06:11:51	120220	12022020	061151	188.52	13.097155	-57.074568	188.68	1.140	0.050	0.190	188.52	-1.30	0.80	 	 	 	 	 	 	 	 	 	 	 	 	 	 	 	 	 	 	1581487911	8.47	15.69
12/02/2020 06:11:52	120220	12022020	061152	188.79	13.097118	-57.074567	188.97	0.770	0.060	-0.230	188.79	-1.30	0.30	 	 	 	 	 	 	 	 	 	 	 	 	 	 	 	 	 	 	1581487912	7.85	14.54
12/02/2020 06:11:53	120220	12022020	061153	188.91	13.097083	-57.074568	189.05	0.150	-0.320	0.400	188.91	-1.60	0.80	 	 	 	 	 	 	 	 	 	 	 	 	 	 	 	 	 	 	1581487913	7.65	14.17
12/02/2020 06:11:54	120220	12022020	061154	188.82	13.097047	-57.074577	188.94	-0.290	-0.800	1.640	188.82	-2.10	2.00	 	 	 	 	 	 	 	 	 	 	 	 	 	 	 	 	 	 	1581487914	7.96	14.74
12/02/2020 06:11:55	120220	12022020	061155	188.33	13.097010	-57.074592	188.48	-0.360	-1.210	2.990	188.33	-2.50	3.30	 	 	 	 	 	 	 	 	 	 	 	 	 	 	 	 	 	 	1581487915	8.32	15.41
12/02/2020 06:11:56	120220	12022020	061156	187.58	13.096975	-57.074608	187.75	-0.130	-1.460	4.100	187.58	-2.80	4.50	 	 	 	 	 	 	 	 	 	 	 	 	 	 	 	 	 	 	1581487916	8.63	15.98
12/02/2020 06:11:57	120220	12022020	061157	186.97	13.096937	-57.074625	187.18	0.050	-1.160	4.380	186.97	-2.60	4.90	 	 	 	 	 	 	 	 	 	 	 	 	 	 	 	 	 	 	1581487917	8.85	16.39
12/02/2020 06:11:58	120220	12022020	061158	186.82	13.096900	-57.074637	187.05	-0.020	-0.190	3.710	186.82	-1.70	4.30	 	 	 	 	 	 	 	 	 	 	 	 	 	 	 	 	 	 	1581487918	8.38	15.52
12/02/2020 06:11:59	120220	12022020	061159	187.11	13.096865	-57.074643	187.35	-0.300	0.890	2.490	187.11	-0.60	3.20	 	 	 	 	 	 	 	 	 	 	 	 	 	 	 	 	 	 	1581487919	7.56	14.00
12/02/2020 06:12:00	120220	12022020	061200	187.83	13.096832	-57.074645	188.06	-0.560	1.480	1.090	187.83	0.10	1.80	 	 	 	 	 	 	 	 	 	 	 	 	 	 	 	 	 	 	1581487920	7.27	13.46
12/02/2020 06:12:01	120220	12022020	061201	188.82	13.096797	-57.074645	189.03	-0.600	1.220	0.030	188.82	-0.10	0.60	1015.30	26.20	26.20	21.00	21.10	0.0	73.0	73.0	439.0	25.8	277.00	10.00	82.00	10.30	17	9772.0	27.2	27.2	1581487921	7.51	13.91
12/02/2020 06:12:02	120220	12022020	061202	189.51	13.096760	-57.074648	189.67	-0.250	0.040	-0.170	189.51	-1.10	0.30	 	 	 	 	 	 	 	 	 	 	 	 	 	 	 	 	 	 	1581487922	7.97	14.76
12/02/2020 06:12:03	120220	12022020	061203	189.37	13.096720	-57.074657	189.48	0.410	-1.530	0.540	189.37	-2.70	0.90	 	 	 	 	 	 	 	 	 	 	 	 	 	 	 	 	 	 	1581487923	8.68	16.08
12/02/2020 06:12:04	120220	12022020	061204	188.60	13.096678	-57.074668	188.72	0.980	-2.290	1.580	188.60	-3.60	1.90	 	 	 	 	 	 	 	 	 	 	 	 	 	 	 	 	 	 	1581487924	9.27	17.17
12/02/2020 06:12:05	120220	12022020	061205	187.81	13.096638	-57.074678	187.96	0.910	-1.570	2.430	187.81	-3.10	2.80	 	 	 	 	 	 	 	 	 	 	 	 	 	 	 	 	 	 	1581487925	8.80	16.30
12/02/2020 06:12:06	120220	12022020	061206	187.54	13.096605	-57.074688	187.74	0.150	-0.010	2.770	187.54	-1.60	3.20	 	 	 	 	 	 	 	 	 	 	 	 	 	 	 	 	 	 	1581487926	7.55	13.98
12/02/2020 06:12:07	120220	12022020	061207	187.77	13.096575	-57.074697	187.98	-0.760	1.110	2.730	187.77	-0.40	3.20	 	 	 	 	 	 	 	 	 	 	 	 	 	 	 	 	 	 	1581487927	6.73	12.46
12/02/2020 06:12:08	120220	12022020	061208	188.02	13.096543	-57.074707	188.21	-1.120	1.000	2.600	188.02	-0.30	3.10	 	 	 	 	 	 	 	 	 	 	 	 	 	 	 	 	 	 	1581487928	7.12	13.19
12/02/2020 06:12:09	120220	12022020	061209	188.10	13.096507	-57.074718	188.28	-0.710	0.090	2.480	188.10	-1.20	3.00	 	 	 	 	 	 	 	 	 	 	 	 	 	 	 	 	 	 	1581487929	8.39	15.54
12/02/2020 06:12:10	120220	12022020	061210	188.09	13.096465	-57.074732	188.29	0.090	-0.530	2.270	188.09	-1.90	2.80	 	 	 	 	 	 	 	 	 	 	 	 	 	 	 	 	 	 	1581487930	9.20	17.04
12/02/2020 06:12:11	120220	12022020	061211	188.27	13.096425	-57.074740	188.47	0.630	-0.420	1.720	188.27	-1.80	2.30	 	 	 	 	 	 	 	 	 	 	 	 	 	 	 	 	 	 	1581487931	8.78	16.26
12/02/2020 06:12:12	120220	12022020	061212	188.73	13.096388	-57.074745	188.94	0.610	0.050	1.020	188.73	-1.40	1.60	 	 	 	 	 	 	 	 	 	 	 	 	 	 	 	 	 	 	1581487932	7.85	14.54
12/02/2020 06:12:13	120220	12022020	061213	189.19	13.096355	-57.074747	189.37	0.300	0.210	0.670	189.19	-1.20	1.20	 	 	 	 	 	 	 	 	 	 	 	 	 	 	 	 	 	 	1581487933	7.27	13.46
12/02/2020 06:12:14	120220	12022020	061214	189.35	13.096322	-57.074752	189.51	0.080	-0.070	0.870	189.35	-1.40	1.30	 	 	 	 	 	 	 	 	 	 	 	 	 	 	 	 	 	 	1581487934	7.41	13.72
12/02/2020 06:12:15	120220	12022020	061215	189.10	13.096285	-57.074760	189.25	0.030	-0.600	1.680	189.10	-1.90	2.00	 	 	 	 	 	 	 	 	 	 	 	 	 	 	 	 	 	 	1581487935	7.85	14.54
12/02/2020 06:12:16	120220	12022020	061216	188.67	13.096248	-57.074772	188.71	0.050	-1.130	2.690	188.67	-2.40	3.10	 	 	 	 	 	 	 	 	 	 	 	 	 	 	 	 	 	 	1581487936	8.29	15.35
12/02/2020 06:12:17	120220	12022020	061217	187.99	13.096210	-57.074785	188.18	0.040	-1.250	3.320	187.99	-2.60	3.80	 	 	 	 	 	 	 	 	 	 	 	 	 	 	 	 	 	 	1581487937	8.61	15.95
12/02/2020 06:12:18	120220	12022020	061218	187.70	13.096173	-57.074798	187.84	-0.020	-0.900	3.420	187.70	-2.30	3.90	 	 	 	 	 	 	 	 	 	 	 	 	 	 	 	 	 	 	1581487938	8.42	15.59
12/02/2020 06:12:19	120220	12022020	061219	187.52	13.096138	-57.074808	187.71	-0.020	-0.280	2.920	187.52	-1.70	3.50	 	 	 	 	 	 	 	 	 	 	 	 	 	 	 	 	 	 	1581487939	8.02	14.85
12/02/2020 06:12:20	120220	12022020	061220	187.57	13.096102	-57.074815	187.76	-0.110	0.270	2.200	187.57	-1.20	2.80	 	 	 	 	 	 	 	 	 	 	 	 	 	 	 	 	 	 	1581487940	7.76	14.37
12/02/2020 06:12:21	120220	12022020	061221	187.67	13.096067	-57.074818	187.85	-0.420	0.390	1.820	187.67	-1.00	2.30	 	 	 	 	 	 	 	 	 	 	 	 	 	 	 	 	 	 	1581487941	7.80	14.45
12/02/2020 06:12:22	120220	12022020	061222	187.65	13.096028	-57.074825	187.81	-0.730	0.110	1.830	187.65	-1.20	2.30	 	 	 	 	 	 	 	 	 	 	 	 	 	 	 	 	 	 	1581487942	8.13	15.06
12/02/2020 06:12:23	120220	12022020	061223	187.56	13.095992	-57.074837	187.73	-0.690	-0.040	1.950	187.56	-1.40	2.40	 	 	 	 	 	 	 	 	 	 	 	 	 	 	 	 	 	 	1581487943	8.58	15.89
12/02/2020 06:12:24	120220	12022020	061224	187.63	13.095953	-57.074850	187.80	-0.100	0.170	1.740	187.63	-1.20	2.30	 	 	 	 	 	 	 	 	 	 	 	 	 	 	 	 	 	 	1581487944	8.47	15.69
12/02/2020 06:12:25	120220	12022020	061225	187.85	13.095918	-57.074860	188.02	0.680	0.330	1.180	187.85	-1.00	1.70	 	 	 	 	 	 	 	 	 	 	 	 	 	 	 	 	 	 	1581487945	7.88	14.59
12/02/2020 06:12:26	120220	12022020	061226	188.10	13.095882	-57.074863	188.26	1.000	0.160	0.950	188.10	-1.20	1.40	 	 	 	 	 	 	 	 	 	 	 	 	 	 	 	 	 	 	1581487946	7.75	14.35
12/02/2020 06:12:27	120220	12022020	061227	188.22	13.095845	-57.074865	188.38	0.600	-0.210	1.460	188.22	-1.50	1.90	 	 	 	 	 	 	 	 	 	 	 	 	 	 	 	 	 	 	1581487947	7.89	14.61
12/02/2020 06:12:28	120220	12022020	061228	188.17	13.095810	-57.074873	188.27	-0.130	-0.550	2.340	188.17	-1.90	2.70	 	 	 	 	 	 	 	 	 	 	 	 	 	 	 	 	 	 	1581487948	7.88	14.59
12/02/2020 06:12:29	120220	12022020	061229	187.74	13.095775	-57.074887	187.88	-0.550	-0.840	3.330	187.74	-2.20	3.70	 	 	 	 	 	 	 	 	 	 	 	 	 	 	 	 	 	 	1581487949	7.94	14.70
12/02/2020 06:12:30	120220	12022020	061230	187.20	13.095742	-57.074903	187.18	-0.270	-1.180	4.140	187.20	-2.50	4.50	 	 	 	 	 	 	 	 	 	 	 	 	 	 	 	 	 	 	1581487950	8.20	15.19
12/02/2020 06:12:31	120220	12022020	061231	186.41	13.095705	-57.074920	186.57	0.420	-1.160	4.090	186.41	-2.60	4.60	 	 	 	 	 	 	 	 	 	 	 	 	 	 	 	 	 	 	1581487951	8.49	15.72
12/02/2020 06:12:32	120220	12022020	061232	186.28	13.095668	-57.074928	186.46	0.850	-0.570	3.160	186.28	-2.00	3.80	 	 	 	 	 	 	 	 	 	 	 	 	 	 	 	 	 	 	1581487952	8.18	15.15
12/02/2020 06:12:33	120220	12022020	061233	186.55	13.095632	-57.074930	186.76	0.660	0.050	2.070	186.55	-1.40	2.70	 	 	 	 	 	 	 	 	 	 	 	 	 	 	 	 	 	 	1581487953	7.60	14.08
12/02/2020 06:12:34	120220	12022020	061234	186.82	13.095597	-57.074930	186.99	0.090	0.070	1.490	186.82	-1.30	2.00	 	 	 	 	 	 	 	 	 	 	 	 	 	 	 	 	 	 	1581487954	7.54	13.96
12/02/2020 06:12:35	120220	12022020	061235	186.94	13.095560	-57.074932	187.14	-0.490	-0.280	1.570	186.94	-1.60	2.00	 	 	 	 	 	 	 	 	 	 	 	 	 	 	 	 	 	 	1581487955	8.13	15.06
12/02/2020 06:12:36	120220	12022020	061236	187.31	13.095520	-57.074940	187.53	-0.930	-0.270	1.970	187.31	-1.70	2.40	 	 	 	 	 	 	 	 	 	 	 	 	 	 	 	 	 	 	1581487956	8.66	16.04
12/02/2020 06:12:37	120220	12022020	061237	187.79	13.095483	-57.074953	188.01	-1.140	0.140	2.510	187.79	-1.30	2.90	 	 	 	 	 	 	 	 	 	 	 	 	 	 	 	 	 	 	1581487957	8.37	15.50
12/02/2020 06:12:38	120220	12022020	061238	188.03	13.095450	-57.074968	188.24	-0.970	0.410	2.870	188.03	-1.00	3.30	 	 	 	 	 	 	 	 	 	 	 	 	 	 	 	 	 	 	1581487958	7.91	14.65
12/02/2020 06:12:39	120220	12022020	061239	187.89	13.095417	-57.074983	188.07	-0.380	0.300	2.840	187.89	-1.10	3.40	 	 	 	 	 	 	 	 	 	 	 	 	 	 	 	 	 	 	1581487959	7.82	14.48
12/02/2020 06:12:40	120220	12022020	061240	187.70	13.095380	-57.074992	187.88	0.340	0.140	2.400	187.70	-1.20	3.00	 	 	 	 	 	 	 	 	 	 	 	 	 	 	 	 	 	 	1581487960	8.01	14.83
12/02/2020 06:12:41	120220	12022020	061241	187.61	13.095343	-57.074997	187.77	0.910	-0.060	1.730	187.61	-1.40	2.30	 	 	 	 	 	 	 	 	 	 	 	 	 	 	 	 	 	 	1581487961	7.90	14.63
12/02/2020 06:12:42	120220	12022020	061242	187.36	13.095307	-57.075000	187.50	1.250	-0.580	1.310	187.36	-1.90	1.80	 	 	 	 	 	 	 	 	 	 	 	 	 	 	 	 	 	 	1581487962	7.84	14.52
12/02/2020 06:12:43	120220	12022020	061243	187.08	13.095268	-57.075002	187.24	1.170	-1.060	1.340	187.08	-2.40	1.80	 	 	 	 	 	 	 	 	 	 	 	 	 	 	 	 	 	 	1581487963	8.24	15.26
12/02/2020 06:12:44	120220	12022020	061244	187.08	13.095230	-57.075005	187.32	0.540	-0.950	1.850	187.08	-2.40	2.30	 	 	 	 	 	 	 	 	 	 	 	 	 	 	 	 	 	 	1581487964	8.34	15.45
12/02/2020 06:12:45	120220	12022020	061245	187.37	13.095195	-57.075015	187.58	-0.320	-0.340	2.510	187.37	-1.80	2.90	 	 	 	 	 	 	 	 	 	 	 	 	 	 	 	 	 	 	1581487965	7.84	14.52
12/02/2020 06:12:46	120220	12022020	061246	187.58	13.095163	-57.075028	187.79	-0.840	0.110	2.860	187.58	-1.30	3.30	 	 	 	 	 	 	 	 	 	 	 	 	 	 	 	 	 	 	1581487966	7.50	13.89
12/02/2020 06:12:47	120220	12022020	061247	187.82	13.095130	-57.075042	188.05	-0.850	-0.050	2.860	187.82	-1.40	3.40	 	 	 	 	 	 	 	 	 	 	 	 	 	 	 	 	 	 	1581487967	7.65	14.17
12/02/2020 06:12:48	120220	12022020	061248	187.99	13.095093	-57.075053	188.21	-0.600	-0.580	2.860	187.99	-1.90	3.40	 	 	 	 	 	 	 	 	 	 	 	 	 	 	 	 	 	 	1581487968	8.27	15.32
12/02/2020 06:12:49	120220	12022020	061249	187.77	13.095055	-57.075065	187.95	-0.320	-0.920	2.760	187.77	-2.30	3.30	 	 	 	 	 	 	 	 	 	 	 	 	 	 	 	 	 	 	1581487969	8.70	16.11
12/02/2020 06:12:50	120220	12022020	061250	187.24	13.095015	-57.075075	187.40	-0.100	-0.620	2.590	187.24	-2.10	3.10	 	 	 	 	 	 	 	 	 	 	 	 	 	 	 	 	 	 	1581487970	8.60	15.93
12/02/2020 06:12:51	120220	12022020	061251	187.02	13.094978	-57.075082	187.20	0.010	0.260	2.180	187.02	-1.20	2.80	 	 	 	 	 	 	 	 	 	 	 	 	 	 	 	 	 	 	1581487971	8.08	14.96
12/02/2020 06:12:52	120220	12022020	061252	187.22	13.094945	-57.075087	187.42	0.120	0.990	1.550	187.22	-0.40	2.10	 	 	 	 	 	 	 	 	 	 	 	 	 	 	 	 	 	 	1581487972	7.35	13.61
12/02/2020 06:12:53	120220	12022020	061253	187.50	13.094912	-57.075090	187.67	0.310	0.770	1.140	187.50	-0.50	1.70	 	 	 	 	 	 	 	 	 	 	 	 	 	 	 	 	 	 	1581487973	7.27	13.46
12/02/2020 06:12:54	120220	12022020	061254	187.41	13.094873	-57.075095	187.56	0.540	-0.250	1.450	187.41	-1.50	1.90	 	 	 	 	 	 	 	 	 	 	 	 	 	 	 	 	 	 	1581487974	8.06	14.93
12/02/2020 06:12:55	120220	12022020	061255	187.10	13.094833	-57.075103	187.26	0.570	-0.990	2.210	187.10	-2.30	2.60	 	 	 	 	 	 	 	 	 	 	 	 	 	 	 	 	 	 	1581487975	8.91	16.50
12/02/2020 06:12:56	120220	12022020	061256	186.87	13.094795	-57.075115	187.04	0.250	-0.770	2.930	186.87	-2.20	3.40	 	 	 	 	 	 	 	 	 	 	 	 	 	 	 	 	 	 	1581487976	8.69	16.09
12/02/2020 06:12:57	120220	12022020	061257	186.75	13.094760	-57.075127	186.93	-0.220	-0.170	3.310	186.75	-1.60	3.80	 	 	 	 	 	 	 	 	 	 	 	 	 	 	 	 	 	 	1581487977	7.63	14.13
12/02/2020 06:12:58	120220	12022020	061258	186.60	13.094728	-57.075137	186.79	-0.450	-0.160	3.280	186.60	-1.50	3.80	 	 	 	 	 	 	 	 	 	 	 	 	 	 	 	 	 	 	1581487978	7.18	13.30
12/02/2020 06:12:59	120220	12022020	061259	186.38	13.094693	-57.075147	186.58	-0.330	-0.730	3.030	186.38	-2.00	3.60	 	 	 	 	 	 	 	 	 	 	 	 	 	 	 	 	 	 	1581487979	7.86	14.56
12/02/2020 06:13:00	120220	12022020	061300	186.22	13.094655	-57.075155	186.42	-0.070	-1.110	2.610	186.22	-2.50	3.20	 	 	 	 	 	 	 	 	 	 	 	 	 	 	 	 	 	 	1581487980	8.65	16.02
12/02/2020 06:13:01	120220	12022020	061301	186.22	13.094615	-57.075163	186.42	0.120	-0.780	1.960	186.22	-2.20	2.60	1015.20	26.10	26.20	20.90	21.00	-1.0	72.0	73.0	439.0	25.8	276.00	10.50	81.00	10.90	17	7722.0	27.2	27.2	1581487981	8.60	15.93
12/02/2020 06:13:02	120220	12022020	061302	186.35	13.094578	-57.075168	186.54	0.200	-0.050	1.240	186.35	-1.50	1.80	 	 	 	 	 	 	 	 	 	 	 	 	 	 	 	 	 	 	1581487982	7.91	14.65
12/02/2020 06:13:03	120220	12022020	061303	186.46	13.094543	-57.075170	186.64	0.220	0.380	0.910	186.46	-1.00	1.40	 	 	 	 	 	 	 	 	 	 	 	 	 	 	 	 	 	 	1581487983	7.51	13.91
12/02/2020 06:13:04	120220	12022020	061304	186.60	13.094508	-57.075172	186.79	-0.010	0.430	1.180	186.60	-0.90	1.60	 	 	 	 	 	 	 	 	 	 	 	 	 	 	 	 	 	 	1581487984	7.83	14.50
12/02/2020 06:13:05	120220	12022020	061305	186.66	13.094470	-57.075177	186.87	-0.500	0.300	2.060	186.66	-1.10	2.40	 	 	 	 	 	 	 	 	 	 	 	 	 	 	 	 	 	 	1581487985	8.10	15.00
12/02/2020 06:13:06	120220	12022020	061306	186.45	13.094433	-57.075190	186.64	-0.800	-0.040	3.200	186.45	-1.40	3.60	 	 	 	 	 	 	 	 	 	 	 	 	 	 	 	 	 	 	1581487986	8.26	15.30
12/02/2020 06:13:07	120220	12022020	061307	186.10	13.094397	-57.075207	186.31	-0.510	-0.430	3.900	186.10	-1.70	4.30	 	 	 	 	 	 	 	 	 	 	 	 	 	 	 	 	 	 	1581487987	8.62	15.96
12/02/2020 06:13:08	120220	12022020	061308	185.88	13.094360	-57.075222	186.05	0.240	-0.550	3.770	185.88	-1.90	4.30	 	 	 	 	 	 	 	 	 	 	 	 	 	 	 	 	 	 	1581487988	8.62	15.96
12/02/2020 06:13:09	120220	12022020	061309	185.85	13.094323	-57.075230	186.10	0.820	-0.270	2.860	185.85	-1.70	3.50	 	 	 	 	 	 	 	 	 	 	 	 	 	 	 	 	 	 	1581487989	8.15	15.09
12/02/2020 06:13:10	120220	12022020	061310	186.19	13.094288	-57.075232	186.43	0.830	0.070	1.610	186.19	-1.30	2.30	 	 	 	 	 	 	 	 	 	 	 	 	 	 	 	 	 	 	1581487990	7.59	14.06
12/02/2020 06:13:11	120220	12022020	061311	186.51	13.094253	-57.075230	186.72	0.480	-0.120	0.730	186.51	-1.40	1.30	 	 	 	 	 	 	 	 	 	 	 	 	 	 	 	 	 	 	1581487991	7.38	13.67
12/02/2020 06:13:12	120220	12022020	061312	186.55	13.094217	-57.075232	186.73	0.190	-0.850	0.650	186.55	-2.10	1.10	 	 	 	 	 	 	 	 	 	 	 	 	 	 	 	 	 	 	1581487992	7.85	14.54
12/02/2020 06:13:13	120220	12022020	061313	186.43	13.094178	-57.075237	186.61	-0.050	-1.310	1.170	186.43	-2.70	1.60	 	 	 	 	 	 	 	 	 	 	 	 	 	 	 	 	 	 	1581487993	8.56	15.85
12/02/2020 06:13:14	120220	12022020	061314	186.27	13.094138	-57.075245	186.46	-0.390	-0.950	1.990	186.27	-2.40	2.40	 	 	 	 	 	 	 	 	 	 	 	 	 	 	 	 	 	 	1581487994	8.55	15.83
12/02/2020 06:13:15	120220	12022020	061315	186.15	13.094103	-57.075258	186.35	-0.710	-0.170	2.580	186.15	-1.60	3.00	 	 	 	 	 	 	 	 	 	 	 	 	 	 	 	 	 	 	1581487995	7.97	14.76
12/02/2020 06:13:16	120220	12022020	061316	186.07	13.094070	-57.075272	186.28	-0.680	0.270	2.700	186.07	-1.10	3.20	 	 	 	 	 	 	 	 	 	 	 	 	 	 	 	 	 	 	1581487996	7.66	14.19
12/02/2020 06:13:17	120220	12022020	061317	185.98	13.094035	-57.075282	186.21	-0.250	0.130	2.640	185.98	-1.20	3.20	 	 	 	 	 	 	 	 	 	 	 	 	 	 	 	 	 	 	1581487997	7.97	14.76
12/02/2020 06:13:18	120220	12022020	061318	186.15	13.093995	-57.075288	186.40	0.150	0.030	2.330	186.15	-1.40	2.90	 	 	 	 	 	 	 	 	 	 	 	 	 	 	 	 	 	 	1581487998	8.61	15.95
12/02/2020 06:13:19	120220	12022020	061319	186.68	13.093957	-57.075293	186.95	0.150	0.390	1.810	186.68	-1.00	2.40	 	 	 	 	 	 	 	 	 	 	 	 	 	 	 	 	 	 	1581487999	8.43	15.61
12/02/2020 06:13:20	120220	12022020	061320	187.14	13.093922	-57.075298	187.47	-0.120	0.710	1.430	187.14	-0.70	2.00	 	 	 	 	 	 	 	 	 	 	 	 	 	 	 	 	 	 	1581488000	7.58	14.04
12/02/2020 06:13:21	120220	12022020	061321	187.42	13.093888	-57.075303	187.61	-0.190	0.350	1.450	187.42	-0.90	1.90	 	 	 	 	 	 	 	 	 	 	 	 	 	 	 	 	 	 	1581488001	7.22	13.37
12/02/2020 06:13:22	120220	12022020	061322	187.20	13.093853	-57.075312	187.37	0.150	-0.530	1.770	187.20	-1.80	2.20	 	 	 	 	 	 	 	 	 	 	 	 	 	 	 	 	 	 	1581488002	7.79	14.43
12/02/2020 06:13:23	120220	12022020	061323	186.74	13.093815	-57.075320	186.91	0.650	-1.290	2.140	186.74	-2.60	2.60	 	 	 	 	 	 	 	 	 	 	 	 	 	 	 	 	 	 	1581488003	8.41	15.58
12/02/2020 06:13:24	120220	12022020	061324	186.20	13.093777	-57.075328	186.38	0.910	-1.550	2.460	186.20	-2.90	2.90	 	 	 	 	 	 	 	 	 	 	 	 	 	 	 	 	 	 	1581488004	8.49	15.72
12/02/2020 06:13:25	120220	12022020	061325	185.80	13.093738	-57.075335	186.01	0.670	-1.300	2.710	185.80	-2.70	3.20	 	 	 	 	 	 	 	 	 	 	 	 	 	 	 	 	 	 	1581488005	8.27	15.32
12/02/2020 06:13:26	120220	12022020	061326	185.83	13.093702	-57.075342	186.07	-0.020	-0.540	2.940	185.83	-2.00	3.40	 	 	 	 	 	 	 	 	 	 	 	 	 	 	 	 	 	 	1581488006	8.07	14.95
12/02/2020 06:13:27	120220	12022020	061327	186.15	13.093667	-57.075352	186.42	-0.820	0.490	3.120	186.15	-1.00	3.60	 	 	 	 	 	 	 	 	 	 	 	 	 	 	 	 	 	 	1581488007	7.68	14.22
12/02/2020 06:13:28	120220	12022020	061328	186.52	13.093635	-57.075362	186.78	-1.290	1.160	3.010	186.52	-0.20	3.50	 	 	 	 	 	 	 	 	 	 	 	 	 	 	 	 	 	 	1581488008	7.38	13.67
12/02/2020 06:13:29	120220	12022020	061329	186.81	13.093602	-57.075373	187.07	-1.160	1.000	2.590	186.81	-0.30	3.20	 	 	 	 	 	 	 	 	 	 	 	 	 	 	 	 	 	 	1581488009	7.55	13.98
12/02/2020 06:13:30	120220	12022020	061330	186.97	13.093565	-57.075383	187.19	-0.450	0.190	2.000	186.97	-1.10	2.60	 	 	 	 	 	 	 	 	 	 	 	 	 	 	 	 	 	 	1581488010	8.19	15.17
12/02/2020 06:13:31	120220	12022020	061331	186.96	13.093525	-57.075392	187.17	0.470	-0.590	1.410	186.96	-1.90	2.00	 	 	 	 	 	 	 	 	 	 	 	 	 	 	 	 	 	 	1581488011	8.68	16.08
12/02/2020 06:13:32	120220	12022020	061332	186.85	13.093485	-57.075395	187.00	1.080	-0.770	1.010	186.85	-2.20	1.60	 	 	 	 	 	 	 	 	 	 	 	 	 	 	 	 	 	 	1581488012	8.61	15.95
12/02/2020 06:13:33	120220	12022020	061333	186.69	13.093448	-57.075397	186.88	1.060	-0.400	0.770	186.69	-1.80	1.30	 	 	 	 	 	 	 	 	 	 	 	 	 	 	 	 	 	 	1581488013	7.97	14.76
12/02/2020 06:13:34	120220	12022020	061334	186.69	13.093413	-57.075398	186.87	0.580	-0.050	0.830	186.69	-1.40	1.30	 	 	 	 	 	 	 	 	 	 	 	 	 	 	 	 	 	 	1581488014	7.32	13.56
12/02/2020 06:13:35	120220	12022020	061335	186.62	13.093380	-57.075402	186.79	0.080	-0.360	1.350	186.62	-1.60	1.80	 	 	 	 	 	 	 	 	 	 	 	 	 	 	 	 	 	 	1581488015	7.25	13.43
12/02/2020 06:13:36	120220	12022020	061336	186.14	13.093343	-57.075410	186.31	-0.130	-1.320	2.350	186.14	-2.60	2.70	 	 	 	 	 	 	 	 	 	 	 	 	 	 	 	 	 	 	1581488016	8.08	14.96
12/02/2020 06:13:37	120220	12022020	061337	185.59	13.093303	-57.075423	185.81	-0.200	-1.790	3.370	185.59	-3.20	3.70	 	 	 	 	 	 	 	 	 	 	 	 	 	 	 	 	 	 	1581488017	9.25	17.13
12/02/2020 06:13:38	120220	12022020	061338	185.48	13.093262	-57.075438	185.74	-0.470	-0.920	3.960	185.48	-2.50	4.40	 	 	 	 	 	 	 	 	 	 	 	 	 	 	 	 	 	 	1581488018	9.19	17.02
12/02/2020 06:13:39	120220	12022020	061339	185.67	13.093228	-57.075452	185.94	-0.920	0.610	3.990	185.67	-0.90	4.50	 	 	 	 	 	 	 	 	 	 	 	 	 	 	 	 	 	 	1581488019	7.81	14.46
12/02/2020 06:13:40	120220	12022020	061340	185.88	13.093198	-57.075463	186.14	-1.090	1.460	3.610	185.88	0.00	4.10	 	 	 	 	 	 	 	 	 	 	 	 	 	 	 	 	 	 	1581488020	6.89	12.76
12/02/2020 06:13:41	120220	12022020	061341	185.90	13.093165	-57.075472	186.12	-0.630	1.000	3.100	185.90	-0.20	3.70	 	 	 	 	 	 	 	 	 	 	 	 	 	 	 	 	 	 	1581488021	7.31	13.54
12/02/2020 06:13:42	120220	12022020	061342	185.75	13.093127	-57.075480	185.96	0.320	-0.120	2.600	185.75	-1.30	3.20	 	 	 	 	 	 	 	 	 	 	 	 	 	 	 	 	 	 	1581488022	8.52	15.78
12/02/2020 06:13:43	120220	12022020	061343	185.59	13.093085	-57.075485	185.81	1.170	-0.680	1.990	185.59	-2.00	2.60	 	 	 	 	 	 	 	 	 	 	 	 	 	 	 	 	 	 	1581488023	9.19	17.02
12/02/2020 06:13:44	120220	12022020	061344	185.90	13.093045	-57.075487	186.15	1.320	-0.130	1.140	185.90	-1.60	1.80	 	 	 	 	 	 	 	 	 	 	 	 	 	 	 	 	 	 	1581488024	8.57	15.87
12/02/2020 06:13:45	120220	12022020	061345	186.73	13.093012	-57.075485	187.00	0.750	0.660	0.560	186.73	-0.80	1.10	 	 	 	 	 	 	 	 	 	 	 	 	 	 	 	 	 	 	1581488025	7.11	13.17
12/02/2020 06:13:46	120220	12022020	061346	187.36	13.092982	-57.075487	187.66	0.060	0.320	0.750	187.36	-0.90	1.20	 	 	 	 	 	 	 	 	 	 	 	 	 	 	 	 	 	 	1581488026	6.36	11.78
12/02/2020 06:13:47	120220	12022020	061347	187.25	13.092948	-57.075493	187.40	-0.140	-1.350	1.890	187.25	-2.50	2.20	 	 	 	 	 	 	 	 	 	 	 	 	 	 	 	 	 	 	1581488027	7.31	13.54
12/02/2020 06:13:48	120220	12022020	061348	186.27	13.092908	-57.075505	186.41	-0.010	-2.790	3.590	186.27	-4.00	3.90	 	 	 	 	 	 	 	 	 	 	 	 	 	 	 	 	 	 	1581488028	9.15	16.95
12/02/2020 06:13:49	120220	12022020	061349	185.34	13.092865	-57.075523	185.53	-0.100	-2.470	4.900	185.34	-4.00	5.30	 	 	 	 	 	 	 	 	 	 	 	 	 	 	 	 	 	 	1581488029	9.68	17.93
12/02/2020 06:13:50	120220	12022020	061350	185.05	13.092830	-57.075538	185.29	-0.510	-0.600	5.110	185.05	-2.20	5.60	 	 	 	 	 	 	 	 	 	 	 	 	 	 	 	 	 	 	1581488030	8.44	15.63
12/02/2020 06:13:51	120220	12022020	061351	185.36	13.092800	-57.075550	185.61	-0.870	1.220	4.320	185.36	-0.30	5.00	 	 	 	 	 	 	 	 	 	 	 	 	 	 	 	 	 	 	1581488031	6.81	12.61
12/02/2020 06:13:52	120220	12022020	061352	185.88	13.092770	-57.075558	186.10	-0.700	1.610	2.960	185.88	0.30	3.70	 	 	 	 	 	 	 	 	 	 	 	 	 	 	 	 	 	 	1581488032	6.58	12.19
12/02/2020 06:13:53	120220	12022020	061353	186.22	13.092735	-57.075562	186.39	0.080	0.720	1.540	186.22	-0.50	2.20	 	 	 	 	 	 	 	 	 	 	 	 	 	 	 	 	 	 	1581488033	7.88	14.59
12/02/2020 06:13:54	120220	12022020	061354	186.22	13.092692	-57.075563	186.37	0.880	-0.160	0.680	186.22	-1.50	1.30	 	 	 	 	 	 	 	 	 	 	 	 	 	 	 	 	 	 	1581488034	9.13	16.91
12/02/2020 06:13:55	120220	12022020	061355	186.19	13.092650	-57.075563	186.34	0.900	-0.150	0.480	186.19	-1.60	1.00	 	 	 	 	 	 	 	 	 	 	 	 	 	 	 	 	 	 	1581488035	8.98	16.63
12/02/2020 06:13:56	120220	12022020	061356	186.25	13.092615	-57.075563	186.43	0.150	0.140	0.790	186.25	-1.20	1.20	 	 	 	 	 	 	 	 	 	 	 	 	 	 	 	 	 	 	1581488036	7.67	14.20
12/02/2020 06:13:57	120220	12022020	061357	186.27	13.092582	-57.075572	186.43	-0.610	-0.140	1.520	186.27	-1.40	1.90	 	 	 	 	 	 	 	 	 	 	 	 	 	 	 	 	 	 	1581488037	7.08	13.11
12/02/2020 06:13:58	120220	12022020	061358	186.20	13.092548	-57.075585	186.37	-0.650	-0.840	2.340	186.20	-2.10	2.80	 	 	 	 	 	 	 	 	 	 	 	 	 	 	 	 	 	 	1581488038	7.93	14.69
12/02/2020 06:13:59	120220	12022020	061359	186.09	13.092510	-57.075600	186.29	-0.090	-1.190	2.770	186.09	-2.50	3.20	 	 	 	 	 	 	 	 	 	 	 	 	 	 	 	 	 	 	1581488039	8.67	16.06
12/02/2020 06:14:00	120220	12022020	061400	186.03	13.092473	-57.075613	186.23	0.480	-0.890	2.560	186.03	-2.30	3.10	 	 	 	 	 	 	 	 	 	 	 	 	 	 	 	 	 	 	1581488040	8.35	15.46
12/02/2020 06:14:01	120220	12022020	061401	186.10	13.092440	-57.075622	186.30	0.630	-0.120	1.820	186.10	-1.60	2.40	1015.20	26.10	26.20	20.70	20.80	-1.0	71.0	72.0	439.0	25.8	273.00	10.80	78.00	11.30	16	8603.0	27.2	27.2	1581488041	7.59	14.06
12/02/2020 06:14:02	120220	12022020	061402	186.36	13.092407	-57.075623	186.56	0.360	0.490	0.970	186.36	-0.90	1.60	 	 	 	 	 	 	 	 	 	 	 	 	 	 	 	 	 	 	1581488042	7.03	13.02
12/02/2020 06:14:03	120220	12022020	061403	186.54	13.092373	-57.075622	186.71	0.030	0.270	0.560	186.54	-1.00	1.10	 	 	 	 	 	 	 	 	 	 	 	 	 	 	 	 	 	 	1581488043	7.09	13.13
12/02/2020 06:14:04	120220	12022020	061404	186.27	13.092337	-57.075623	186.38	-0.070	-0.820	1.000	186.27	-2.00	1.40	 	 	 	 	 	 	 	 	 	 	 	 	 	 	 	 	 	 	1581488044	7.87	14.58
12/02/2020 06:14:05	120220	12022020	061405	185.46	13.092297	-57.075630	185.58	-0.010	-1.880	2.330	185.46	-3.20	2.70	 	 	 	 	 	 	 	 	 	 	 	 	 	 	 	 	 	 	1581488045	8.96	16.59
12/02/2020 06:14:06	120220	12022020	061406	184.68	13.092253	-57.075643	184.88	-0.130	-1.730	3.730	184.68	-3.20	4.10	 	 	 	 	 	 	 	 	 	 	 	 	 	 	 	 	 	 	1581488046	9.56	17.71
12/02/2020 06:14:07	120220	12022020	061407	184.68	13.092215	-57.075658	184.97	-0.610	-0.040	4.410	184.68	-1.70	4.90	 	 	 	 	 	 	 	 	 	 	 	 	 	 	 	 	 	 	1581488047	8.86	16.41
12/02/2020 06:14:08	120220	12022020	061408	185.26	13.092185	-57.075675	185.78	-1.090	1.980	3.990	185.26	0.40	4.60	 	 	 	 	 	 	 	 	 	 	 	 	 	 	 	 	 	 	1581488048	7.24	13.41
12/02/2020 06:14:09	120220	12022020	061409	186.38	13.092160	-57.075685	186.64	-0.960	2.490	2.730	186.38	1.20	3.40	 	 	 	 	 	 	 	 	 	 	 	 	 	 	 	 	 	 	1581488049	6.14	11.37
12/02/2020 06:14:10	120220	12022020	061410	186.93	13.092127	-57.075690	187.26	-0.090	1.060	1.310	186.93	-0.10	2.00	 	 	 	 	 	 	 	 	 	 	 	 	 	 	 	 	 	 	1581488050	7.02	13.00
12/02/2020 06:14:11	120220	12022020	061411	187.45	13.092087	-57.075692	187.62	0.900	-0.790	0.400	187.45	-2.00	1.00	 	 	 	 	 	 	 	 	 	 	 	 	 	 	 	 	 	 	1581488051	8.86	16.41
12/02/2020 06:14:12	120220	12022020	061412	187.52	13.092043	-57.075693	187.65	1.320	-1.720	0.140	187.52	-3.00	0.70	 	 	 	 	 	 	 	 	 	 	 	 	 	 	 	 	 	 	1581488052	9.19	17.02
12/02/2020 06:14:13	120220	12022020	061413	187.33	13.092005	-57.075695	187.47	1.060	-1.630	0.540	187.33	-3.10	1.00	 	 	 	 	 	 	 	 	 	 	 	 	 	 	 	 	 	 	1581488053	8.14	15.08
12/02/2020 06:14:14	120220	12022020	061414	187.11	13.091972	-57.075702	187.27	0.510	-1.100	1.280	187.11	-2.60	1.70	 	 	 	 	 	 	 	 	 	 	 	 	 	 	 	 	 	 	1581488054	7.23	13.39
12/02/2020 06:14:15	120220	12022020	061415	186.91	13.091940	-57.075708	187.08	0.050	-0.590	2.010	186.91	-2.00	2.40	 	 	 	 	 	 	 	 	 	 	 	 	 	 	 	 	 	 	1581488055	7.12	13.19
12/02/2020 06:14:16	120220	12022020	061416	186.65	13.091907	-57.075718	186.82	-0.230	-0.360	2.530	186.65	-1.80	3.00	 	 	 	 	 	 	 	 	 	 	 	 	 	 	 	 	 	 	1581488056	7.49	13.87
12/02/2020 06:14:17	120220	12022020	061417	186.40	13.091870	-57.075728	186.59	-0.460	-0.320	2.720	186.40	-1.70	3.20	 	 	 	 	 	 	 	 	 	 	 	 	 	 	 	 	 	 	1581488057	8.02	14.85
12/02/2020 06:14:18	120220	12022020	061418	186.35	13.091833	-57.075738	186.56	-0.780	-0.070	2.710	186.35	-1.50	3.20	 	 	 	 	 	 	 	 	 	 	 	 	 	 	 	 	 	 	1581488058	8.37	15.50
12/02/2020 06:14:19	120220	12022020	061419	186.61	13.091797	-57.075750	186.84	-1.080	0.560	2.500	186.61	-0.90	3.00	 	 	 	 	 	 	 	 	 	 	 	 	 	 	 	 	 	 	1581488059	8.14	15.08
12/02/2020 06:14:20	120220	12022020	061420	186.91	13.091763	-57.075760	187.21	-1.040	0.990	2.130	186.91	-0.40	2.70	 	 	 	 	 	 	 	 	 	 	 	 	 	 	 	 	 	 	1581488060	7.54	13.96
12/02/2020 06:14:21	120220	12022020	061421	187.29	13.091730	-57.075768	187.46	-0.430	0.640	1.620	187.29	-0.70	2.20	 	 	 	 	 	 	 	 	 	 	 	 	 	 	 	 	 	 	1581488061	7.47	13.83
12/02/2020 06:14:22	120220	12022020	061422	187.35	13.091692	-57.075777	187.50	0.560	-0.220	1.140	187.35	-1.50	1.70	 	 	 	 	 	 	 	 	 	 	 	 	 	 	 	 	 	 	1581488062	8.09	14.98
12/02/2020 06:14:23	120220	12022020	061423	187.23	13.091653	-57.075782	187.39	1.340	-0.770	0.810	187.23	-2.10	1.30	 	 	 	 	 	 	 	 	 	 	 	 	 	 	 	 	 	 	1581488063	8.57	15.87
12/02/2020 06:14:24	120220	12022020	061424	187.15	13.091615	-57.075783	187.29	1.410	-0.670	0.670	187.15	-2.10	1.20	 	 	 	 	 	 	 	 	 	 	 	 	 	 	 	 	 	 	1581488064	8.24	15.26
12/02/2020 06:14:25	120220	12022020	061425	186.97	13.091580	-57.075785	187.11	0.730	-0.370	1.000	186.97	-1.80	1.40	 	 	 	 	 	 	 	 	 	 	 	 	 	 	 	 	 	 	1581488065	7.46	13.82
12/02/2020 06:14:26	120220	12022020	061426	186.61	13.091547	-57.075792	186.76	-0.210	-0.310	1.940	186.61	-1.70	2.30	 	 	 	 	 	 	 	 	 	 	 	 	 	 	 	 	 	 	1581488066	7.20	13.33
12/02/2020 06:14:27	120220	12022020	061427	186.22	13.091513	-57.075803	186.41	-0.790	-0.430	2.910	186.22	-1.80	3.30	 	 	 	 	 	 	 	 	 	 	 	 	 	 	 	 	 	 	1581488067	7.76	14.37
12/02/2020 06:14:28	120220	12022020	061428	186.03	13.091478	-57.075820	186.25	-0.760	-0.430	3.340	186.03	-1.80	3.80	 	 	 	 	 	 	 	 	 	 	 	 	 	 	 	 	 	 	1581488068	8.30	15.37
12/02/2020 06:14:29	120220	12022020	061429	186.12	13.091442	-57.075833	186.35	-0.340	-0.260	3.150	186.12	-1.70	3.70	 	 	 	 	 	 	 	 	 	 	 	 	 	 	 	 	 	 	1581488069	8.16	15.11
12/02/2020 06:14:30	120220	12022020	061430	186.42	13.091407	-57.075842	186.65	0.060	-0.130	2.510	186.42	-1.50	3.10	 	 	 	 	 	 	 	 	 	 	 	 	 	 	 	 	 	 	1581488070	7.81	14.46
12/02/2020 06:14:31	120220	12022020	061431	186.73	13.091372	-57.075847	186.94	0.230	-0.250	1.790	186.73	-1.60	2.40	 	 	 	 	 	 	 	 	 	 	 	 	 	 	 	 	 	 	1581488071	7.72	14.30
12/02/2020 06:14:32	120220	12022020	061432	186.83	13.091335	-57.075848	187.00	0.280	-0.520	1.440	186.83	-1.90	2.00	 	 	 	 	 	 	 	 	 	 	 	 	 	 	 	 	 	 	1581488072	7.95	14.72
12/02/2020 06:14:33	120220	12022020	061433	186.64	13.091297	-57.075853	186.81	0.260	-0.590	1.600	186.64	-2.00	2.10	 	 	 	 	 	 	 	 	 	 	 	 	 	 	 	 	 	 	1581488073	8.14	15.08
12/02/2020 06:14:34	120220	12022020	061434	186.37	13.091260	-57.075860	186.56	0.110	-0.190	1.990	186.37	-1.60	2.40	 	 	 	 	 	 	 	 	 	 	 	 	 	 	 	 	 	 	1581488074	8.02	14.85
12/02/2020 06:14:35	120220	12022020	061435	186.15	13.091225	-57.075868	186.34	-0.070	0.370	2.270	186.15	-1.10	2.70	 	 	 	 	 	 	 	 	 	 	 	 	 	 	 	 	 	 	1581488075	7.57	14.02
12/02/2020 06:14:36	120220	12022020	061436	185.99	13.091192	-57.075877	186.18	-0.110	0.480	2.360	185.99	-0.90	2.80	 	 	 	 	 	 	 	 	 	 	 	 	 	 	 	 	 	 	1581488076	7.37	13.65
12/02/2020 06:14:37	120220	12022020	061437	185.82	13.091157	-57.075883	186.03	-0.010	-0.010	2.410	185.82	-1.30	2.90	 	 	 	 	 	 	 	 	 	 	 	 	 	 	 	 	 	 	1581488077	7.75	14.35
12/02/2020 06:14:38	120220	12022020	061438	185.79	13.091118	-57.075892	186.02	0.040	-0.460	2.380	185.79	-1.80	2.90	 	 	 	 	 	 	 	 	 	 	 	 	 	 	 	 	 	 	1581488078	8.39	15.54
12/02/2020 06:14:39	120220	12022020	061439	185.95	13.091082	-57.075898	186.19	-0.010	-0.450	2.190	185.95	-1.90	2.70	 	 	 	 	 	 	 	 	 	 	 	 	 	 	 	 	 	 	1581488079	8.28	15.33
12/02/2020 06:14:40	120220	12022020	061440	186.25	13.091047	-57.075907	186.49	-0.070	-0.290	1.820	186.25	-1.70	2.40	 	 	 	 	 	 	 	 	 	 	 	 	 	 	 	 	 	 	1581488080	7.67	14.20
12/02/2020 06:14:41	120220	12022020	061441	186.57	13.091012	-57.075912	186.78	-0.040	-0.390	1.470	186.57	-1.70	2.00	 	 	 	 	 	 	 	 	 	 	 	 	 	 	 	 	 	 	1581488081	7.44	13.78
12/02/2020 06:14:42	120220	12022020	061442	186.79	13.090977	-57.075918	187.01	-0.010	-0.600	1.460	186.79	-2.00	1.90	 	 	 	 	 	 	 	 	 	 	 	 	 	 	 	 	 	 	1581488082	7.73	14.32
12/02/2020 06:14:43	120220	12022020	061443	186.92	13.090940	-57.075925	187.13	-0.060	-0.490	1.670	186.92	-1.90	2.10	 	 	 	 	 	 	 	 	 	 	 	 	 	 	 	 	 	 	1581488083	7.96	14.74
12/02/2020 06:14:44	120220	12022020	061444	186.92	13.090905	-57.075933	187.12	-0.080	-0.160	1.810	186.92	-1.60	2.30	 	 	 	 	 	 	 	 	 	 	 	 	 	 	 	 	 	 	1581488084	7.67	14.20
12/02/2020 06:14:45	120220	12022020	061445	186.69	13.090872	-57.075942	186.87	0.160	-0.150	1.920	186.69	-1.50	2.40	 	 	 	 	 	 	 	 	 	 	 	 	 	 	 	 	 	 	1581488085	7.45	13.80
12/02/2020 06:14:46	120220	12022020	061446	186.32	13.090835	-57.075948	186.41	0.600	-0.470	2.170	186.32	-1.80	2.60	 	 	 	 	 	 	 	 	 	 	 	 	 	 	 	 	 	 	1581488086	7.89	14.61
12/02/2020 06:14:47	120220	12022020	061447	185.97	13.090797	-57.075953	186.18	0.710	-0.440	2.280	185.97	-1.90	2.80	 	 	 	 	 	 	 	 	 	 	 	 	 	 	 	 	 	 	1581488087	8.47	15.69
12/02/2020 06:14:48	120220	12022020	061448	186.02	13.090758	-57.075957	186.31	0.180	0.100	2.300	186.02	-1.40	2.80	 	 	 	 	 	 	 	 	 	 	 	 	 	 	 	 	 	 	1581488088	8.15	15.09
12/02/2020 06:14:49	120220	12022020	061449	186.40	13.090725	-57.075963	186.64	-0.620	0.660	2.410	186.40	-0.80	2.90	 	 	 	 	 	 	 	 	 	 	 	 	 	 	 	 	 	 	1581488089	7.42	13.74
12/02/2020 06:14:50	120220	12022020	061450	186.79	13.090692	-57.075973	187.02	-1.100	0.710	2.580	186.79	-0.60	3.00	 	 	 	 	 	 	 	 	 	 	 	 	 	 	 	 	 	 	1581488090	7.24	13.41
12/02/2020 06:14:51	120220	12022020	061451	187.01	13.090658	-57.075985	187.20	-0.930	0.030	2.730	187.01	-1.20	3.20	 	 	 	 	 	 	 	 	 	 	 	 	 	 	 	 	 	 	1581488091	7.63	14.13
12/02/2020 06:14:52	120220	12022020	061452	186.91	13.090622	-57.075997	187.09	-0.250	-0.980	2.670	186.91	-2.20	3.20	 	 	 	 	 	 	 	 	 	 	 	 	 	 	 	 	 	 	1581488092	8.36	15.48
12/02/2020 06:14:53	120220	12022020	061453	186.81	13.090583	-57.076008	186.99	0.500	-1.450	2.210	186.81	-2.80	2.80	 	 	 	 	 	 	 	 	 	 	 	 	 	 	 	 	 	 	1581488093	8.75	16.21
12/02/2020 06:14:54	120220	12022020	061454	186.75	13.090545	-57.076015	186.92	0.930	-1.070	1.520	186.75	-2.50	2.10	 	 	 	 	 	 	 	 	 	 	 	 	 	 	 	 	 	 	1581488094	8.22	15.22
12/02/2020 06:14:55	120220	12022020	061455	186.65	13.090510	-57.076017	186.80	0.890	-0.450	0.870	186.65	-1.90	1.40	 	 	 	 	 	 	 	 	 	 	 	 	 	 	 	 	 	 	1581488095	7.50	13.89
12/02/2020 06:14:56	120220	12022020	061456	186.50	13.090477	-57.076015	186.64	0.440	-0.070	0.780	186.50	-1.50	1.30	 	 	 	 	 	 	 	 	 	 	 	 	 	 	 	 	 	 	1581488096	7.46	13.82
12/02/2020 06:14:57	120220	12022020	061457	186.44	13.090440	-57.076017	186.60	-0.300	0.180	1.240	186.44	-1.20	1.70	 	 	 	 	 	 	 	 	 	 	 	 	 	 	 	 	 	 	1581488097	7.76	14.37
12/02/2020 06:14:58	120220	12022020	061458	186.54	13.090403	-57.076025	186.72	-1.040	0.400	1.900	186.54	-1.00	2.30	 	 	 	 	 	 	 	 	 	 	 	 	 	 	 	 	 	 	1581488098	7.90	14.63
12/02/2020 06:14:59	120220	12022020	061459	186.68	13.090368	-57.076037	186.88	-1.320	0.380	2.550	186.68	-1.00	3.00	 	 	 	 	 	 	 	 	 	 	 	 	 	 	 	 	 	 	1581488099	8.00	14.82
12/02/2020 06:15:00	120220	12022020	061500	186.70	13.090333	-57.076053	186.88	-0.820	-0.040	2.920	186.70	-1.30	3.40	 	 	 	 	 	 	 	 	 	 	 	 	 	 	 	 	 	 	1581488100	8.29	15.35
12/02/2020 06:15:01	120220	12022020	061501	186.51	13.090297	-57.076068	186.71	0.260	-0.570	2.770	186.51	-1.90	3.30	1015.20	26.20	26.20	21.00	21.00	-1.0	72.0	72.0	437.0	25.8	272.00	11.20	78.00	11.80	16	8149.0	27.2	27.2	1581488101	8.60	15.93
12/02/2020 06:15:02	120220	12022020	061502	186.49	13.090257	-57.076077	186.71	1.080	-0.570	2.040	186.49	-2.00	2.60	 	 	 	 	 	 	 	 	 	 	 	 	 	 	 	 	 	 	1581488102	8.60	15.93
12/02/2020 06:15:03	120220	12022020	061503	186.76	13.090220	-57.076077	186.97	0.990	-0.000	1.290	186.76	-1.50	1.90	 	 	 	 	 	 	 	 	 	 	 	 	 	 	 	 	 	 	1581488103	8.00	14.82
12/02/2020 06:15:04	120220	12022020	061504	187.01	13.090187	-57.076075	187.18	0.190	0.330	1.050	187.01	-1.10	1.50	 	 	 	 	 	 	 	 	 	 	 	 	 	 	 	 	 	 	1581488104	7.18	13.30
12/02/2020 06:15:05	120220	12022020	061505	187.03	13.090153	-57.076080	187.20	-0.590	0.010	1.420	187.03	-1.30	1.80	 	 	 	 	 	 	 	 	 	 	 	 	 	 	 	 	 	 	1581488105	7.10	13.15
12/02/2020 06:15:06	120220	12022020	061506	186.83	13.090118	-57.076090	187.00	-0.750	-0.640	2.140	186.83	-1.90	2.50	 	 	 	 	 	 	 	 	 	 	 	 	 	 	 	 	 	 	1581488106	7.88	14.59
12/02/2020 06:15:07	120220	12022020	061507	186.49	13.090082	-57.076105	186.67	-0.230	-1.160	2.690	186.49	-2.50	3.10	 	 	 	 	 	 	 	 	 	 	 	 	 	 	 	 	 	 	1581488107	8.55	15.83
12/02/2020 06:15:08	120220	12022020	061508	186.26	13.090043	-57.076118	186.46	0.430	-1.090	2.680	186.26	-2.50	3.20	 	 	 	 	 	 	 	 	 	 	 	 	 	 	 	 	 	 	1581488108	8.61	15.95
12/02/2020 06:15:09	120220	12022020	061509	186.32	13.090007	-57.076127	186.53	0.630	-0.350	2.180	186.32	-1.90	2.70	 	 	 	 	 	 	 	 	 	 	 	 	 	 	 	 	 	 	1581488109	8.06	14.93
12/02/2020 06:15:10	120220	12022020	061510	186.58	13.089973	-57.076130	186.79	0.270	0.510	1.520	186.58	-1.00	2.10	 	 	 	 	 	 	 	 	 	 	 	 	 	 	 	 	 	 	1581488110	7.30	13.52
12/02/2020 06:15:11	120220	12022020	061511	186.81	13.089942	-57.076132	186.99	-0.210	0.760	1.000	186.81	-0.60	1.50	 	 	 	 	 	 	 	 	 	 	 	 	 	 	 	 	 	 	1581488111	6.98	12.93
12/02/2020 06:15:12	120220	12022020	061512	186.90	13.089907	-57.076135	187.07	-0.350	0.200	0.940	186.90	-1.10	1.40	 	 	 	 	 	 	 	 	 	 	 	 	 	 	 	 	 	 	1581488112	7.49	13.87
12/02/2020 06:15:13	120220	12022020	061513	186.97	13.089868	-57.076142	187.13	-0.140	-0.570	1.270	186.97	-1.90	1.70	 	 	 	 	 	 	 	 	 	 	 	 	 	 	 	 	 	 	1581488113	8.30	15.37
12/02/2020 06:15:14	120220	12022020	061514	186.98	13.089830	-57.076152	187.14	0.070	-1.040	1.810	186.98	-2.40	2.20	 	 	 	 	 	 	 	 	 	 	 	 	 	 	 	 	 	 	1581488114	8.59	15.91
12/02/2020 06:15:15	120220	12022020	061515	186.84	13.089792	-57.076162	187.00	0.040	-1.010	2.360	186.84	-2.40	2.80	 	 	 	 	 	 	 	 	 	 	 	 	 	 	 	 	 	 	1581488115	8.37	15.50
12/02/2020 06:15:16	120220	12022020	061516	186.66	13.089757	-57.076173	186.83	-0.150	-0.530	2.690	186.66	-2.00	3.10	 	 	 	 	 	 	 	 	 	 	 	 	 	 	 	 	 	 	1581488116	8.01	14.83
12/02/2020 06:15:17	120220	12022020	061517	186.56	13.089722	-57.076183	186.73	-0.290	0.170	2.630	186.56	-1.30	3.10	 	 	 	 	 	 	 	 	 	 	 	 	 	 	 	 	 	 	1581488117	7.64	14.15
12/02/2020 06:15:18	120220	12022020	061518	186.63	13.089688	-57.076190	186.83	-0.290	0.630	2.120	186.63	-0.80	2.70	 	 	 	 	 	 	 	 	 	 	 	 	 	 	 	 	 	 	1581488118	7.36	13.63
12/02/2020 06:15:19	120220	12022020	061519	186.88	13.089653	-57.076193	187.08	-0.230	0.470	1.530	186.88	-0.90	2.10	 	 	 	 	 	 	 	 	 	 	 	 	 	 	 	 	 	 	1581488119	7.49	13.87
12/02/2020 06:15:20	120220	12022020	061520	186.98	13.089617	-57.076198	187.15	-0.100	-0.170	1.420	186.98	-1.50	1.90	 	 	 	 	 	 	 	 	 	 	 	 	 	 	 	 	 	 	1581488120	7.99	14.80
12/02/2020 06:15:21	120220	12022020	061521	186.71	13.089578	-57.076205	186.85	0.160	-0.800	1.830	186.71	-2.10	2.20	 	 	 	 	 	 	 	 	 	 	 	 	 	 	 	 	 	 	1581488121	8.45	15.65
12/02/2020 06:15:22	120220	12022020	061522	186.38	13.089540	-57.076215	186.54	0.460	-0.860	2.150	186.38	-2.30	2.60	 	 	 	 	 	 	 	 	 	 	 	 	 	 	 	 	 	 	1581488122	8.56	15.85
12/02/2020 06:15:23	120220	12022020	061523	186.33	13.089503	-57.076223	186.54	0.500	-0.250	2.260	186.33	-1.70	2.70	 	 	 	 	 	 	 	 	 	 	 	 	 	 	 	 	 	 	1581488123	8.03	14.87
12/02/2020 06:15:24	120220	12022020	061524	186.60	13.089470	-57.076232	186.82	0.230	0.540	2.070	186.60	-0.90	2.60	 	 	 	 	 	 	 	 	 	 	 	 	 	 	 	 	 	 	1581488124	7.23	13.39
12/02/2020 06:15:25	120220	12022020	061525	186.83	13.089440	-57.076237	187.03	0.000	0.530	1.750	186.83	-0.80	2.30	 	 	 	 	 	 	 	 	 	 	 	 	 	 	 	 	 	 	1581488125	6.83	12.65
12/02/2020 06:15:26	120220	12022020	061526	186.68	13.089405	-57.076243	186.76	0.130	-0.580	1.890	186.68	-1.80	2.30	 	 	 	 	 	 	 	 	 	 	 	 	 	 	 	 	 	 	1581488126	7.58	14.04
12/02/2020 06:15:27	120220	12022020	061527	186.09	13.089363	-57.076252	186.27	0.360	-1.520	2.480	186.09	-2.80	2.90	 	 	 	 	 	 	 	 	 	 	 	 	 	 	 	 	 	 	1581488127	8.92	16.52
12/02/2020 06:15:28	120220	12022020	061528	185.88	13.089323	-57.076263	186.10	0.320	-1.140	2.710	185.88	-2.70	3.20	 	 	 	 	 	 	 	 	 	 	 	 	 	 	 	 	 	 	1581488128	9.07	16.80
12/02/2020 06:15:29	120220	12022020	061529	186.24	13.089288	-57.076272	186.48	-0.130	0.150	2.290	186.24	-1.40	2.80	 	 	 	 	 	 	 	 	 	 	 	 	 	 	 	 	 	 	1581488129	7.75	14.35
12/02/2020 06:15:30	120220	12022020	061530	186.86	13.089258	-57.076277	187.08	-0.620	0.900	1.640	186.86	-0.50	2.20	 	 	 	 	 	 	 	 	 	 	 	 	 	 	 	 	 	 	1581488130	6.62	12.26
12/02/2020 06:15:31	120220	12022020	061531	187.25	13.089225	-57.076282	187.43	-0.680	0.410	1.390	187.25	-0.90	1.90	 	 	 	 	 	 	 	 	 	 	 	 	 	 	 	 	 	 	1581488131	7.00	12.96
12/02/2020 06:15:32	120220	12022020	061532	187.32	13.089188	-57.076288	187.49	-0.320	-0.660	1.610	187.32	-1.90	2.00	 	 	 	 	 	 	 	 	 	 	 	 	 	 	 	 	 	 	1581488132	8.28	15.33
12/02/2020 06:15:33	120220	12022020	061533	186.92	13.089147	-57.076297	187.06	0.150	-1.510	2.230	186.92	-2.80	2.60	 	 	 	 	 	 	 	 	 	 	 	 	 	 	 	 	 	 	1581488133	8.94	16.56
12/02/2020 06:15:34	120220	12022020	061534	186.01	13.089107	-57.076307	186.13	0.450	-1.670	3.040	186.01	-3.10	3.40	 	 	 	 	 	 	 	 	 	 	 	 	 	 	 	 	 	 	1581488134	8.92	16.52
12/02/2020 06:15:35	120220	12022020	061535	185.14	13.089068	-57.076318	185.30	0.320	-0.730	3.590	185.14	-2.30	4.00	 	 	 	 	 	 	 	 	 	 	 	 	 	 	 	 	 	 	1581488135	8.61	15.95
12/02/2020 06:15:36	120220	12022020	061536	184.95	13.089033	-57.076328	185.24	-0.150	1.050	3.350	184.95	-0.60	3.90	 	 	 	 	 	 	 	 	 	 	 	 	 	 	 	 	 	 	1581488136	7.69	14.24
12/02/2020 06:15:37	120220	12022020	061537	185.58	13.089005	-57.076335	185.84	-0.540	2.280	2.520	185.58	0.80	3.10	 	 	 	 	 	 	 	 	 	 	 	 	 	 	 	 	 	 	1581488137	6.50	12.04
12/02/2020 06:15:38	120220	12022020	061538	186.24	13.088975	-57.076338	186.45	-0.310	1.560	1.660	186.24	0.40	2.20	 	 	 	 	 	 	 	 	 	 	 	 	 	 	 	 	 	 	1581488138	6.51	12.06
12/02/2020 06:15:39	120220	12022020	061539	186.66	13.088937	-57.076343	186.85	0.430	-0.480	1.160	186.66	-1.60	1.70	 	 	 	 	 	 	 	 	 	 	 	 	 	 	 	 	 	 	1581488139	8.26	15.30
12/02/2020 06:15:40	120220	12022020	061540	187.01	13.088892	-57.076348	187.20	0.900	-1.950	1.340	187.01	-3.20	1.80	 	 	 	 	 	 	 	 	 	 	 	 	 	 	 	 	 	 	1581488140	9.63	17.83
12/02/2020 06:15:41	120220	12022020	061541	187.05	13.088850	-57.076355	187.23	0.600	-1.910	2.060	187.05	-3.40	2.40	 	 	 	 	 	 	 	 	 	 	 	 	 	 	 	 	 	 	1581488141	8.99	16.65
12/02/2020 06:15:42	120220	12022020	061542	186.77	13.088817	-57.076367	186.95	-0.110	-0.960	2.790	186.77	-2.50	3.20	 	 	 	 	 	 	 	 	 	 	 	 	 	 	 	 	 	 	1581488142	7.50	13.89
12/02/2020 06:15:43	120220	12022020	061543	186.51	13.088787	-57.076377	186.71	-0.650	-0.050	3.110	186.51	-1.50	3.60	 	 	 	 	 	 	 	 	 	 	 	 	 	 	 	 	 	 	1581488143	6.81	12.61
12/02/2020 06:15:44	120220	12022020	061544	186.53	13.088757	-57.076388	186.74	-0.710	0.230	2.940	186.53	-1.10	3.40	 	 	 	 	 	 	 	 	 	 	 	 	 	 	 	 	 	 	1581488144	7.05	13.06
12/02/2020 06:15:45	120220	12022020	061545	186.66	13.088722	-57.076397	186.86	-0.310	-0.070	2.490	186.66	-1.40	3.00	 	 	 	 	 	 	 	 	 	 	 	 	 	 	 	 	 	 	1581488145	7.78	14.41
12/02/2020 06:15:46	120220	12022020	061546	186.83	13.088683	-57.076405	187.03	0.200	-0.340	1.800	186.83	-1.70	2.40	 	 	 	 	 	 	 	 	 	 	 	 	 	 	 	 	 	 	1581488146	8.43	15.61
12/02/2020 06:15:47	120220	12022020	061547	187.06	13.088643	-57.076408	187.25	0.470	-0.140	1.150	187.06	-1.60	1.70	 	 	 	 	 	 	 	 	 	 	 	 	 	 	 	 	 	 	1581488147	8.38	15.52
12/02/2020 06:15:48	120220	12022020	061548	187.18	13.088608	-57.076410	187.34	0.420	0.180	0.890	187.18	-1.20	1.40	 	 	 	 	 	 	 	 	 	 	 	 	 	 	 	 	 	 	1581488148	7.81	14.46
12/02/2020 06:15:49	120220	12022020	061549	187.05	13.088573	-57.076412	187.22	0.210	0.140	1.130	187.05	-1.20	1.60	 	 	 	 	 	 	 	 	 	 	 	 	 	 	 	 	 	 	1581488149	7.55	13.98
12/02/2020 06:15:50	120220	12022020	061550	186.93	13.088537	-57.076418	187.10	-0.040	-0.120	1.670	186.93	-1.50	2.10	 	 	 	 	 	 	 	 	 	 	 	 	 	 	 	 	 	 	1581488150	7.92	14.67
12/02/2020 06:15:51	120220	12022020	061551	186.92	13.088498	-57.076427	187.14	-0.350	-0.130	2.380	186.92	-1.50	2.70	 	 	 	 	 	 	 	 	 	 	 	 	 	 	 	 	 	 	1581488151	8.21	15.20
12/02/2020 06:15:52	120220	12022020	061552	187.01	13.088465	-57.076440	187.27	-0.650	0.090	2.980	187.01	-1.30	3.40	 	 	 	 	 	 	 	 	 	 	 	 	 	 	 	 	 	 	1581488152	7.97	14.76
12/02/2020 06:15:53	120220	12022020	061553	187.09	13.088432	-57.076453	187.32	-0.690	0.000	3.080	187.09	-1.40	3.60	 	 	 	 	 	 	 	 	 	 	 	 	 	 	 	 	 	 	1581488153	7.63	14.13
12/02/2020 06:15:54	120220	12022020	061554	187.06	13.088398	-57.076467	187.27	-0.340	-0.480	2.730	187.06	-1.80	3.30	 	 	 	 	 	 	 	 	 	 	 	 	 	 	 	 	 	 	1581488154	7.80	14.45
12/02/2020 06:15:55	120220	12022020	061555	186.91	13.088362	-57.076477	187.09	0.230	-0.980	2.230	186.91	-2.30	2.80	 	 	 	 	 	 	 	 	 	 	 	 	 	 	 	 	 	 	1581488155	8.12	15.04
12/02/2020 06:15:56	120220	12022020	061556	186.63	13.088323	-57.076483	186.79	0.690	-1.130	1.770	186.63	-2.50	2.30	 	 	 	 	 	 	 	 	 	 	 	 	 	 	 	 	 	 	1581488156	8.22	15.22
12/02/2020 06:15:57	120220	12022020	061557	186.57	13.088287	-57.076487	186.75	0.750	-0.690	1.160	186.57	-2.20	1.70	 	 	 	 	 	 	 	 	 	 	 	 	 	 	 	 	 	 	1581488157	8.06	14.93
12/02/2020 06:15:58	120220	12022020	061558	186.89	13.088250	-57.076488	187.06	0.380	0.090	0.670	186.89	-1.40	1.20	 	 	 	 	 	 	 	 	 	 	 	 	 	 	 	 	 	 	1581488158	7.61	14.09
12/02/2020 06:15:59	120220	12022020	061559	187.15	13.088217	-57.076490	187.29	-0.070	0.510	0.750	187.15	-0.90	1.20	 	 	 	 	 	 	 	 	 	 	 	 	 	 	 	 	 	 	1581488159	7.16	13.26
12/02/2020 06:16:00	120220	12022020	061600	187.03	13.088183	-57.076495	187.17	-0.190	0.140	1.330	187.03	-1.20	1.70	 	 	 	 	 	 	 	 	 	 	 	 	 	 	 	 	 	 	1581488160	7.46	13.82
12/02/2020 06:16:01	120220	12022020	061601	186.88	13.088145	-57.076503	187.05	-0.050	-0.400	1.920	186.88	-1.70	2.30	1015.30	26.10	26.20	21.10	21.10	-1.0	73.0	73.0	433.0	25.7	268.00	10.70	75.00	11.60	15	7370.0	27.2	27.2	1581488161	8.40	15.56
12/02/2020 06:16:02	120220	12022020	061602	186.98	13.088105	-57.076513	187.23	-0.050	-0.410	2.490	186.98	-1.80	2.90	 	 	 	 	 	 	 	 	 	 	 	 	 	 	 	 	 	 	1581488162	8.72	16.15
12/02/2020 06:16:03	120220	12022020	061603	187.30	13.088068	-57.076523	187.51	-0.340	0.050	2.940	187.30	-1.40	3.40	 	 	 	 	 	 	 	 	 	 	 	 	 	 	 	 	 	 	1581488163	8.12	15.04
12/02/2020 06:16:04	120220	12022020	061604	187.46	13.088037	-57.076535	187.65	-0.660	0.360	3.130	187.46	-1.00	3.60	 	 	 	 	 	 	 	 	 	 	 	 	 	 	 	 	 	 	1581488164	7.42	13.74
12/02/2020 06:16:05	120220	12022020	061605	187.23	13.088003	-57.076547	187.39	-0.600	-0.110	3.290	187.23	-1.40	3.70	 	 	 	 	 	 	 	 	 	 	 	 	 	 	 	 	 	 	1581488165	7.39	13.69
12/02/2020 06:16:06	120220	12022020	061606	186.66	13.087967	-57.076557	186.82	-0.130	-0.950	3.410	186.66	-2.30	3.90	 	 	 	 	 	 	 	 	 	 	 	 	 	 	 	 	 	 	1581488166	8.26	15.30
12/02/2020 06:16:07	120220	12022020	061607	186.32	13.087927	-57.076568	186.52	0.310	-0.980	3.100	186.32	-2.40	3.60	 	 	 	 	 	 	 	 	 	 	 	 	 	 	 	 	 	 	1581488167	8.86	16.41
12/02/2020 06:16:08	120220	12022020	061608	186.58	13.087892	-57.076578	186.79	0.470	-0.040	2.080	186.58	-1.60	2.70	 	 	 	 	 	 	 	 	 	 	 	 	 	 	 	 	 	 	1581488168	8.04	14.89
12/02/2020 06:16:09	120220	12022020	061609	187.08	13.087860	-57.076582	187.27	0.480	0.650	0.700	187.08	-0.80	1.30	 	 	 	 	 	 	 	 	 	 	 	 	 	 	 	 	 	 	1581488169	6.76	12.52
12/02/2020 06:16:10	120220	12022020	061610	187.33	13.087827	-57.076580	187.47	0.630	0.180	-0.140	187.33	-1.10	0.40	 	 	 	 	 	 	 	 	 	 	 	 	 	 	 	 	 	 	1581488170	6.94	12.85
12/02/2020 06:16:11	120220	12022020	061611	187.29	13.087790	-57.076578	187.44	0.690	-0.820	0.080	187.29	-2.10	0.50	 	 	 	 	 	 	 	 	 	 	 	 	 	 	 	 	 	 	1581488171	8.20	15.19
12/02/2020 06:16:12	120220	12022020	061612	187.13	13.087748	-57.076583	187.29	0.330	-1.370	1.150	187.13	-2.70	1.50	 	 	 	 	 	 	 	 	 	 	 	 	 	 	 	 	 	 	1581488172	8.81	16.32
12/02/2020 06:16:13	120220	12022020	061613	186.80	13.087710	-57.076595	186.97	-0.330	-1.090	2.530	186.80	-2.60	2.80	 	 	 	 	 	 	 	 	 	 	 	 	 	 	 	 	 	 	1581488173	8.56	15.85
12/02/2020 06:16:14	120220	12022020	061614	186.37	13.087677	-57.076610	186.56	-0.790	-0.260	3.690	186.37	-1.80	4.00	 	 	 	 	 	 	 	 	 	 	 	 	 	 	 	 	 	 	1581488174	8.16	15.11
12/02/2020 06:16:15	120220	12022020	061615	186.23	13.087643	-57.076627	186.47	-0.780	0.730	3.990	186.23	-0.80	4.50	 	 	 	 	 	 	 	 	 	 	 	 	 	 	 	 	 	 	1581488175	7.79	14.43
12/02/2020 06:16:16	120220	12022020	061616	186.57	13.087612	-57.076638	186.83	-0.470	1.200	3.490	186.57	-0.20	4.00	 	 	 	 	 	 	 	 	 	 	 	 	 	 	 	 	 	 	1581488176	7.35	13.61
12/02/2020 06:16:17	120220	12022020	061617	187.11	13.087578	-57.076645	187.36	-0.140	0.780	2.690	187.11	-0.50	3.30	 	 	 	 	 	 	 	 	 	 	 	 	 	 	 	 	 	 	1581488177	7.40	13.70
12/02/2020 06:16:18	120220	12022020	061618	187.36	13.087540	-57.076650	187.55	0.150	-0.350	2.060	187.36	-1.60	2.60	 	 	 	 	 	 	 	 	 	 	 	 	 	 	 	 	 	 	1581488178	7.96	14.74
12/02/2020 06:16:19	120220	12022020	061619	187.01	13.087502	-57.076655	187.15	0.450	-1.600	1.960	187.01	-2.80	2.40	 	 	 	 	 	 	 	 	 	 	 	 	 	 	 	 	 	 	1581488179	8.53	15.80
12/02/2020 06:16:20	120220	12022020	061620	186.29	13.087462	-57.076663	186.44	0.720	-2.140	2.120	186.29	-3.50	2.60	 	 	 	 	 	 	 	 	 	 	 	 	 	 	 	 	 	 	1581488180	8.83	16.35
12/02/2020 06:16:21	120220	12022020	061621	185.70	13.087422	-57.076670	185.87	0.650	-1.320	2.210	185.70	-2.90	2.70	 	 	 	 	 	 	 	 	 	 	 	 	 	 	 	 	 	 	1581488181	8.48	15.70
12/02/2020 06:16:22	120220	12022020	061622	185.63	13.087388	-57.076675	185.86	0.060	0.290	2.110	185.63	-1.30	2.60	 	 	 	 	 	 	 	 	 	 	 	 	 	 	 	 	 	 	1581488182	7.32	13.56
12/02/2020 06:16:23	120220	12022020	061623	186.05	13.087358	-57.076682	186.30	-0.680	1.330	1.990	186.05	-0.10	2.50	 	 	 	 	 	 	 	 	 	 	 	 	 	 	 	 	 	 	1581488183	6.50	12.04
12/02/2020 06:16:24	120220	12022020	061624	186.49	13.087327	-57.076690	186.71	-0.940	1.130	2.000	186.49	-0.20	2.50	 	 	 	 	 	 	 	 	 	 	 	 	 	 	 	 	 	 	1581488184	7.02	13.00
12/02/2020 06:16:25	120220	12022020	061625	186.75	13.087292	-57.076702	186.95	-0.400	0.300	2.020	186.75	-1.00	2.50	 	 	 	 	 	 	 	 	 	 	 	 	 	 	 	 	 	 	1581488185	8.24	15.26
12/02/2020 06:16:26	120220	12022020	061626	186.94	13.087252	-57.076712	187.23	0.450	-0.250	1.900	186.94	-1.60	2.40	 	 	 	 	 	 	 	 	 	 	 	 	 	 	 	 	 	 	1581488186	8.80	16.30
12/02/2020 06:16:27	120220	12022020	061627	187.40	13.087213	-57.076718	187.62	0.870	-0.390	1.590	187.40	-1.80	2.10	 	 	 	 	 	 	 	 	 	 	 	 	 	 	 	 	 	 	1581488187	8.30	15.37
12/02/2020 06:16:28	120220	12022020	061628	187.63	13.087178	-57.076722	187.83	0.630	-0.530	1.580	187.63	-1.90	2.00	 	 	 	 	 	 	 	 	 	 	 	 	 	 	 	 	 	 	1581488188	7.63	14.13
12/02/2020 06:16:29	120220	12022020	061629	187.44	13.087143	-57.076727	187.62	0.120	-0.900	2.200	187.44	-2.20	2.60	 	 	 	 	 	 	 	 	 	 	 	 	 	 	 	 	 	 	1581488189	7.46	13.82
12/02/2020 06:16:30	120220	12022020	061630	186.82	13.087108	-57.076735	186.98	-0.150	-1.290	3.070	186.82	-2.60	3.40	 	 	 	 	 	 	 	 	 	 	 	 	 	 	 	 	 	 	1581488190	7.88	14.59
12/02/2020 06:16:31	120220	12022020	061631	185.99	13.087072	-57.076748	186.18	-0.140	-1.310	3.840	185.99	-2.70	4.20	 	 	 	 	 	 	 	 	 	 	 	 	 	 	 	 	 	 	1581488191	8.28	15.33
12/02/2020 06:16:32	120220	12022020	061632	185.38	13.087035	-57.076760	185.60	-0.200	-0.750	4.150	185.38	-2.20	4.60	 	 	 	 	 	 	 	 	 	 	 	 	 	 	 	 	 	 	1581488192	8.31	15.39
12/02/2020 06:16:33	120220	12022020	061633	185.24	13.087000	-57.076772	185.49	-0.480	0.190	3.770	185.24	-1.30	4.30	 	 	 	 	 	 	 	 	 	 	 	 	 	 	 	 	 	 	1581488193	7.90	14.63
12/02/2020 06:16:34	120220	12022020	061634	185.62	13.086967	-57.076780	185.85	-0.740	1.030	2.830	185.62	-0.40	3.40	 	 	 	 	 	 	 	 	 	 	 	 	 	 	 	 	 	 	1581488194	7.44	13.78
12/02/2020 06:16:35	120220	12022020	061635	186.35	13.086933	-57.076787	186.56	-0.640	1.260	1.600	186.35	-0.10	2.20	 	 	 	 	 	 	 	 	 	 	 	 	 	 	 	 	 	 	1581488195	7.26	13.45
12/02/2020 06:16:36	120220	12022020	061636	186.91	13.086898	-57.076790	187.08	-0.020	0.510	0.680	186.91	-0.70	1.20	 	 	 	 	 	 	 	 	 	 	 	 	 	 	 	 	 	 	1581488196	7.58	14.04
12/02/2020 06:16:37	120220	12022020	061637	186.83	13.086858	-57.076792	186.93	0.800	-0.800	0.670	186.83	-2.00	1.10	 	 	 	 	 	 	 	 	 	 	 	 	 	 	 	 	 	 	1581488197	8.42	15.59
12/02/2020 06:16:38	120220	12022020	061638	186.51	13.086817	-57.076797	186.56	1.220	-1.570	1.130	186.51	-2.90	1.50	 	 	 	 	 	 	 	 	 	 	 	 	 	 	 	 	 	 	1581488198	9.05	16.76
12/02/2020 06:16:39	120220	12022020	061639	186.35	13.086777	-57.076802	186.52	0.850	-1.010	1.630	186.35	-2.50	2.00	 	 	 	 	 	 	 	 	 	 	 	 	 	 	 	 	 	 	1581488199	8.67	16.06
12/02/2020 06:16:40	120220	12022020	061640	186.57	13.086743	-57.076807	186.88	-0.060	0.240	2.120	186.57	-1.30	2.50	 	 	 	 	 	 	 	 	 	 	 	 	 	 	 	 	 	 	1581488200	7.32	13.56
12/02/2020 06:16:41	120220	12022020	061641	187.13	13.086713	-57.076817	187.37	-0.810	0.970	2.530	187.13	-0.50	2.90	 	 	 	 	 	 	 	 	 	 	 	 	 	 	 	 	 	 	1581488201	6.53	12.09
12/02/2020 06:16:42	120220	12022020	061642	187.31	13.086683	-57.076828	187.53	-0.950	0.520	3.020	187.31	-0.70	3.40	 	 	 	 	 	 	 	 	 	 	 	 	 	 	 	 	 	 	1581488202	6.98	12.93
12/02/2020 06:16:43	120220	12022020	061643	186.99	13.086648	-57.076842	187.18	-0.520	-0.750	3.680	186.99	-2.00	4.00	 	 	 	 	 	 	 	 	 	 	 	 	 	 	 	 	 	 	1581488203	8.20	15.19
12/02/2020 06:16:44	120220	12022020	061644	186.31	13.086607	-57.076855	186.52	0.110	-1.750	4.220	186.31	-3.10	4.60	 	 	 	 	 	 	 	 	 	 	 	 	 	 	 	 	 	 	1581488204	9.25	17.13
12/02/2020 06:16:45	120220	12022020	061645	185.76	13.086567	-57.076868	185.97	0.530	-1.560	4.120	185.76	-3.00	4.60	 	 	 	 	 	 	 	 	 	 	 	 	 	 	 	 	 	 	1581488205	9.23	17.09
12/02/2020 06:16:46	120220	12022020	061646	185.74	13.086530	-57.076877	185.96	0.480	-0.320	3.260	185.74	-1.90	3.90	 	 	 	 	 	 	 	 	 	 	 	 	 	 	 	 	 	 	1581488206	8.09	14.98
12/02/2020 06:16:47	120220	12022020	061647	186.30	13.086497	-57.076878	186.53	0.090	0.930	2.030	186.30	-0.60	2.70	 	 	 	 	 	 	 	 	 	 	 	 	 	 	 	 	 	 	1581488207	6.98	12.93
12/02/2020 06:16:48	120220	12022020	061648	187.06	13.086465	-57.076878	187.28	-0.250	1.350	0.960	187.06	-0.00	1.50	 	 	 	 	 	 	 	 	 	 	 	 	 	 	 	 	 	 	1581488208	6.74	12.48
12/02/2020 06:16:49	120220	12022020	061649	187.46	13.086432	-57.076878	187.62	-0.210	0.630	0.500	187.46	-0.60	1.00	 	 	 	 	 	 	 	 	 	 	 	 	 	 	 	 	 	 	1581488209	7.31	13.54
12/02/2020 06:16:50	120220	12022020	061650	187.39	13.086393	-57.076883	187.43	0.130	-0.700	0.870	187.39	-1.90	1.20	 	 	 	 	 	 	 	 	 	 	 	 	 	 	 	 	 	 	1581488210	8.33	15.43
12/02/2020 06:16:51	120220	12022020	061651	186.74	13.086352	-57.076892	186.87	0.410	-1.570	1.890	186.74	-2.90	2.20	 	 	 	 	 	 	 	 	 	 	 	 	 	 	 	 	 	 	1581488211	9.03	16.72
12/02/2020 06:16:52	120220	12022020	061652	186.31	13.086313	-57.076905	186.41	0.340	-1.240	2.830	186.31	-2.70	3.20	 	 	 	 	 	 	 	 	 	 	 	 	 	 	 	 	 	 	1581488212	8.87	16.43
12/02/2020 06:16:53	120220	12022020	061653	186.15	13.086278	-57.076917	186.35	-0.070	-0.110	3.180	186.15	-1.70	3.60	 	 	 	 	 	 	 	 	 	 	 	 	 	 	 	 	 	 	1581488213	7.82	14.48
12/02/2020 06:16:54	120220	12022020	061654	186.36	13.086248	-57.076927	186.64	-0.500	0.690	3.020	186.36	-0.80	3.50	 	 	 	 	 	 	 	 	 	 	 	 	 	 	 	 	 	 	1581488214	6.87	12.72
12/02/2020 06:16:55	120220	12022020	061655	186.63	13.086217	-57.076935	186.82	-0.560	0.440	2.670	186.63	-0.90	3.20	 	 	 	 	 	 	 	 	 	 	 	 	 	 	 	 	 	 	1581488215	7.00	12.96
12/02/2020 06:16:56	120220	12022020	061656	186.53	13.086180	-57.076942	186.70	-0.200	-0.530	2.330	186.53	-1.80	2.80	 	 	 	 	 	 	 	 	 	 	 	 	 	 	 	 	 	 	1581488216	8.03	14.87
12/02/2020 06:16:57	120220	12022020	061657	186.30	13.086138	-57.076948	186.49	0.170	-1.140	2.130	186.30	-2.50	2.60	 	 	 	 	 	 	 	 	 	 	 	 	 	 	 	 	 	 	1581488217	8.91	16.50
12/02/2020 06:16:58	120220	12022020	061658	186.21	13.086098	-57.076955	186.42	0.170	-0.840	1.940	186.21	-2.30	2.40	 	 	 	 	 	 	 	 	 	 	 	 	 	 	 	 	 	 	1581488218	8.65	16.02
12/02/2020 06:16:59	120220	12022020	061659	186.15	13.086063	-57.076962	186.34	-0.080	-0.130	1.820	186.15	-1.60	2.30	 	 	 	 	 	 	 	 	 	 	 	 	 	 	 	 	 	 	1581488219	7.68	14.22
12/02/2020 06:17:00	120220	12022020	061700	185.94	13.086030	-57.076968	186.15	-0.160	0.230	1.990	185.94	-1.20	2.40	 	 	 	 	 	 	 	 	 	 	 	 	 	 	 	 	 	 	1581488220	7.24	13.41
12/02/2020 06:17:01	120220	12022020	061701	186.00	13.085995	-57.076977	186.23	-0.000	0.330	2.060	186.00	-1.10	2.50	1015.20	26.10	26.10	21.00	21.10	-2.0	73.0	74.0	430.0	25.7	277.00	11.10	82.00	11.30	15	7991.0	27.2	27.2	1581488221	7.74	14.33
12/02/2020 06:17:02	120220	12022020	061702	186.47	13.085960	-57.076983	186.73	0.150	0.490	1.940	186.47	-0.90	2.40	 	 	 	 	 	 	 	 	 	 	 	 	 	 	 	 	 	 	1581488222	7.99	14.80
12/02/2020 06:17:03	120220	12022020	061703	187.02	13.085923	-57.076990	187.26	0.160	0.520	1.750	187.02	-0.90	2.20	 	 	 	 	 	 	 	 	 	 	 	 	 	 	 	 	 	 	1581488223	7.67	14.20
12/02/2020 06:17:04	120220	12022020	061704	187.11	13.085890	-57.076997	187.29	0.200	-0.170	1.850	187.11	-1.40	2.30	 	 	 	 	 	 	 	 	 	 	 	 	 	 	 	 	 	 	1581488224	7.47	13.83
12/02/2020 06:17:05	120220	12022020	061705	186.58	13.085852	-57.077003	186.74	0.360	-1.350	2.500	186.58	-2.60	2.90	 	 	 	 	 	 	 	 	 	 	 	 	 	 	 	 	 	 	1581488225	8.18	15.15
12/02/2020 06:17:06	120220	12022020	061706	185.98	13.085812	-57.077013	186.18	0.330	-1.690	3.170	185.98	-3.10	3.60	 	 	 	 	 	 	 	 	 	 	 	 	 	 	 	 	 	 	1581488226	9.01	16.69
12/02/2020 06:17:07	120220	12022020	061707	185.78	13.085773	-57.077023	186.01	-0.070	-0.770	3.320	185.78	-2.30	3.80	 	 	 	 	 	 	 	 	 	 	 	 	 	 	 	 	 	 	1581488227	8.43	15.61
12/02/2020 06:17:08	120220	12022020	061708	185.92	13.085742	-57.077033	186.14	-0.570	0.380	2.960	185.92	-1.10	3.50	 	 	 	 	 	 	 	 	 	 	 	 	 	 	 	 	 	 	1581488228	7.12	13.19
12/02/2020 06:17:09	120220	12022020	061709	186.13	13.085712	-57.077042	186.33	-0.680	0.660	2.370	186.13	-0.70	2.90	 	 	 	 	 	 	 	 	 	 	 	 	 	 	 	 	 	 	1581488229	6.72	12.45
12/02/2020 06:17:10	120220	12022020	061710	186.29	13.085677	-57.077047	186.47	-0.280	-0.000	1.810	186.29	-1.30	2.30	 	 	 	 	 	 	 	 	 	 	 	 	 	 	 	 	 	 	1581488230	7.60	14.08
12/02/2020 06:17:11	120220	12022020	061711	186.47	13.085637	-57.077052	186.66	0.170	-0.740	1.570	186.47	-2.10	2.00	 	 	 	 	 	 	 	 	 	 	 	 	 	 	 	 	 	 	1581488231	8.69	16.09
12/02/2020 06:17:12	120220	12022020	061712	186.56	13.085597	-57.077058	186.75	0.250	-0.870	1.810	186.56	-2.30	2.20	 	 	 	 	 	 	 	 	 	 	 	 	 	 	 	 	 	 	1581488232	8.79	16.28
12/02/2020 06:17:13	120220	12022020	061713	186.40	13.085560	-57.077067	186.57	0.110	-0.400	2.190	186.40	-1.90	2.60	 	 	 	 	 	 	 	 	 	 	 	 	 	 	 	 	 	 	1581488233	8.16	15.11
12/02/2020 06:17:14	120220	12022020	061714	186.04	13.085525	-57.077075	186.22	0.100	0.060	2.400	186.04	-1.40	2.90	 	 	 	 	 	 	 	 	 	 	 	 	 	 	 	 	 	 	1581488234	7.54	13.96
12/02/2020 06:17:15	120220	12022020	061715	185.81	13.085490	-57.077083	186.03	0.140	0.310	2.370	185.81	-1.10	2.90	 	 	 	 	 	 	 	 	 	 	 	 	 	 	 	 	 	 	1581488235	7.66	14.19
12/02/2020 06:17:16	120220	12022020	061716	185.94	13.085455	-57.077088	186.27	-0.020	0.630	2.090	185.94	-0.80	2.60	 	 	 	 	 	 	 	 	 	 	 	 	 	 	 	 	 	 	1581488236	7.86	14.56
12/02/2020 06:17:17	120220	12022020	061717	186.65	13.085420	-57.077095	186.90	-0.290	0.860	1.640	186.65	-0.50	2.20	 	 	 	 	 	 	 	 	 	 	 	 	 	 	 	 	 	 	1581488237	7.54	13.96
12/02/2020 06:17:18	120220	12022020	061718	187.07	13.085387	-57.077100	187.32	-0.320	0.370	1.450	187.07	-0.90	1.90	 	 	 	 	 	 	 	 	 	 	 	 	 	 	 	 	 	 	1581488238	7.21	13.35
12/02/2020 06:17:19	120220	12022020	061719	186.96	13.085352	-57.077108	187.13	0.090	-0.980	1.870	186.96	-2.20	2.30	 	 	 	 	 	 	 	 	 	 	 	 	 	 	 	 	 	 	1581488239	7.77	14.39
12/02/2020 06:17:20	120220	12022020	061720	186.48	13.085312	-57.077118	186.65	0.520	-2.120	2.660	186.48	-3.40	3.00	 	 	 	 	 	 	 	 	 	 	 	 	 	 	 	 	 	 	1581488240	8.87	16.43
12/02/2020 06:17:21	120220	12022020	061721	185.87	13.085272	-57.077130	186.04	0.550	-2.080	3.330	185.87	-3.50	3.70	 	 	 	 	 	 	 	 	 	 	 	 	 	 	 	 	 	 	1581488241	9.02	16.71
12/02/2020 06:17:22	120220	12022020	061722	185.38	13.085235	-57.077142	185.59	0.230	-0.890	3.390	185.38	-2.50	3.90	 	 	 	 	 	 	 	 	 	 	 	 	 	 	 	 	 	 	1581488242	8.14	15.08
12/02/2020 06:17:23	120220	12022020	061723	185.48	13.085203	-57.077150	185.73	-0.200	0.720	2.780	185.48	-0.90	3.40	 	 	 	 	 	 	 	 	 	 	 	 	 	 	 	 	 	 	1581488243	7.13	13.20
12/02/2020 06:17:24	120220	12022020	061724	185.99	13.085172	-57.077153	186.21	-0.420	1.550	1.930	185.99	0.10	2.50	 	 	 	 	 	 	 	 	 	 	 	 	 	 	 	 	 	 	1581488244	6.57	12.17
12/02/2020 06:17:25	120220	12022020	061725	186.33	13.085140	-57.077157	186.51	-0.290	0.960	1.400	186.33	-0.30	1.90	 	 	 	 	 	 	 	 	 	 	 	 	 	 	 	 	 	 	1581488245	7.12	13.19
12/02/2020 06:17:26	120220	12022020	061726	186.33	13.085100	-57.077160	186.50	-0.040	-0.350	1.510	186.33	-1.60	1.90	 	 	 	 	 	 	 	 	 	 	 	 	 	 	 	 	 	 	1581488246	8.50	15.74
12/02/2020 06:17:27	120220	12022020	061727	186.14	13.085058	-57.077167	186.32	0.040	-1.170	2.110	186.14	-2.50	2.50	 	 	 	 	 	 	 	 	 	 	 	 	 	 	 	 	 	 	1581488247	9.19	17.02
12/02/2020 06:17:28	120220	12022020	061728	186.13	13.085018	-57.077178	186.33	-0.090	-0.940	2.560	186.13	-2.40	3.00	 	 	 	 	 	 	 	 	 	 	 	 	 	 	 	 	 	 	1581488248	8.77	16.24
12/02/2020 06:17:29	120220	12022020	061729	186.15	13.084985	-57.077188	186.33	-0.200	-0.320	2.710	186.15	-1.80	3.20	 	 	 	 	 	 	 	 	 	 	 	 	 	 	 	 	 	 	1581488249	7.67	14.20
12/02/2020 06:17:30	120220	12022020	061730	185.96	13.084952	-57.077198	186.04	-0.010	-0.200	2.860	185.96	-1.60	3.30	 	 	 	 	 	 	 	 	 	 	 	 	 	 	 	 	 	 	1581488250	7.21	13.35
12/02/2020 06:17:31	120220	12022020	061731	185.44	13.084917	-57.077207	185.61	0.290	-0.380	2.910	185.44	-1.80	3.40	 	 	 	 	 	 	 	 	 	 	 	 	 	 	 	 	 	 	1581488251	7.85	14.54
12/02/2020 06:17:32	120220	12022020	061732	185.37	13.084878	-57.077212	185.58	0.290	-0.150	2.610	185.37	-1.60	3.10	 	 	 	 	 	 	 	 	 	 	 	 	 	 	 	 	 	 	1581488252	8.35	15.46
12/02/2020 06:17:33	120220	12022020	061733	185.75	13.084842	-57.077217	185.97	-0.130	0.340	2.110	185.75	-1.10	2.60	 	 	 	 	 	 	 	 	 	 	 	 	 	 	 	 	 	 	1581488253	7.88	14.59
12/02/2020 06:17:34	120220	12022020	061734	186.22	13.084808	-57.077222	186.43	-0.550	0.450	1.900	186.22	-0.90	2.40	 	 	 	 	 	 	 	 	 	 	 	 	 	 	 	 	 	 	1581488254	7.33	13.58
12/02/2020 06:17:35	120220	12022020	061735	186.39	13.084773	-57.077228	186.57	-0.460	-0.090	2.030	186.39	-1.40	2.50	 	 	 	 	 	 	 	 	 	 	 	 	 	 	 	 	 	 	1581488255	7.60	14.08
12/02/2020 06:17:36	120220	12022020	061736	186.30	13.084737	-57.077238	186.46	0.080	-0.760	2.180	186.30	-2.10	2.60	 	 	 	 	 	 	 	 	 	 	 	 	 	 	 	 	 	 	1581488256	8.31	15.39
12/02/2020 06:17:37	120220	12022020	061737	186.24	13.084697	-57.077247	186.43	0.540	-0.960	2.230	186.24	-2.40	2.70	 	 	 	 	 	 	 	 	 	 	 	 	 	 	 	 	 	 	1581488257	8.56	15.85
12/02/2020 06:17:38	120220	12022020	061738	186.17	13.084660	-57.077253	186.34	0.610	-0.690	2.220	186.17	-2.10	2.70	 	 	 	 	 	 	 	 	 	 	 	 	 	 	 	 	 	 	1581488258	8.08	14.96
12/02/2020 06:17:39	120220	12022020	061739	185.82	13.084625	-57.077258	185.97	0.410	-0.370	2.320	185.82	-1.80	2.80	 	 	 	 	 	 	 	 	 	 	 	 	 	 	 	 	 	 	1581488259	7.61	14.09
12/02/2020 06:17:40	120220	12022020	061740	185.49	13.084588	-57.077263	185.67	0.050	-0.040	2.510	185.49	-1.50	3.00	 	 	 	 	 	 	 	 	 	 	 	 	 	 	 	 	 	 	1581488260	7.77	14.39
12/02/2020 06:17:41	120220	12022020	061741	185.64	13.084553	-57.077270	185.86	-0.380	0.410	2.480	185.64	-1.00	3.00	 	 	 	 	 	 	 	 	 	 	 	 	 	 	 	 	 	 	1581488261	7.91	14.65
12/02/2020 06:17:42	120220	12022020	061742	186.04	13.084518	-57.077278	186.38	-0.660	0.660	2.330	186.04	-0.70	2.80	 	 	 	 	 	 	 	 	 	 	 	 	 	 	 	 	 	 	1581488262	7.70	14.26
12/02/2020 06:17:43	120220	12022020	061743	186.65	13.084483	-57.077290	186.85	-0.520	0.380	2.020	186.65	-0.90	2.50	 	 	 	 	 	 	 	 	 	 	 	 	 	 	 	 	 	 	1581488263	7.71	14.28
12/02/2020 06:17:44	120220	12022020	061744	186.89	13.084447	-57.077298	187.11	-0.020	-0.320	1.560	186.89	-1.60	2.10	 	 	 	 	 	 	 	 	 	 	 	 	 	 	 	 	 	 	1581488264	8.04	14.89
12/02/2020 06:17:45	120220	12022020	061745	186.89	13.084408	-57.077303	187.05	0.460	-0.940	1.340	186.89	-2.30	1.80	 	 	 	 	 	 	 	 	 	 	 	 	 	 	 	 	 	 	1581488265	8.38	15.52
12/02/2020 06:17:46	120220	12022020	061746	186.60	13.084370	-57.077308	186.74	0.630	-1.230	1.430	186.60	-2.60	1.90	 	 	 	 	 	 	 	 	 	 	 	 	 	 	 	 	 	 	1581488266	8.34	15.45
12/02/2020 06:17:47	120220	12022020	061747	186.14	13.084333	-57.077313	186.29	0.450	-1.200	1.840	186.14	-2.60	2.30	 	 	 	 	 	 	 	 	 	 	 	 	 	 	 	 	 	 	1581488267	8.14	15.08
12/02/2020 06:17:48	120220	12022020	061748	185.73	13.084295	-57.077320	185.91	0.050	-0.800	2.440	185.73	-2.30	2.80	 	 	 	 	 	 	 	 	 	 	 	 	 	 	 	 	 	 	1581488268	8.09	14.98
12/02/2020 06:17:49	120220	12022020	061749	185.64	13.084260	-57.077328	185.85	-0.440	0.060	2.860	185.64	-1.40	3.30	 	 	 	 	 	 	 	 	 	 	 	 	 	 	 	 	 	 	1581488269	8.00	14.82
12/02/2020 06:17:50	120220	12022020	061750	185.89	13.084225	-57.077338	186.12	-0.810	0.910	2.870	185.89	-0.60	3.40	 	 	 	 	 	 	 	 	 	 	 	 	 	 	 	 	 	 	1581488270	7.61	14.09
12/02/2020 06:17:51	120220	12022020	061751	186.23	13.084192	-57.077348	186.43	-0.810	0.970	2.630	186.23	-0.40	3.10	 	 	 	 	 	 	 	 	 	 	 	 	 	 	 	 	 	 	1581488271	7.51	13.91
12/02/2020 06:17:52	120220	12022020	061752	186.33	13.084155	-57.077358	186.52	-0.310	0.270	2.430	186.33	-1.00	2.90	 	 	 	 	 	 	 	 	 	 	 	 	 	 	 	 	 	 	1581488272	8.15	15.09
12/02/2020 06:17:53	120220	12022020	061753	186.33	13.084115	-57.077368	186.53	0.420	-0.350	1.950	186.33	-1.70	2.50	 	 	 	 	 	 	 	 	 	 	 	 	 	 	 	 	 	 	1581488273	8.83	16.35
12/02/2020 06:17:54	120220	12022020	061754	186.42	13.084075	-57.077372	186.59	0.780	-0.310	1.410	186.42	-1.70	1.90	 	 	 	 	 	 	 	 	 	 	 	 	 	 	 	 	 	 	1581488274	8.58	15.89
12/02/2020 06:17:55	120220	12022020	061755	186.31	13.084040	-57.077373	186.43	0.610	-0.240	1.260	186.31	-1.60	1.70	 	 	 	 	 	 	 	 	 	 	 	 	 	 	 	 	 	 	1581488275	7.65	14.17
12/02/2020 06:17:56	120220	12022020	061756	185.78	13.084005	-57.077377	185.88	0.240	-0.770	1.610	185.78	-2.10	2.00	 	 	 	 	 	 	 	 	 	 	 	 	 	 	 	 	 	 	1581488276	7.46	13.82
12/02/2020 06:17:57	120220	12022020	061757	185.28	13.083967	-57.077383	185.44	-0.050	-1.280	2.130	185.28	-2.60	2.60	 	 	 	 	 	 	 	 	 	 	 	 	 	 	 	 	 	 	1581488277	8.36	15.48
12/02/2020 06:17:58	120220	12022020	061758	185.41	13.083928	-57.077395	185.62	-0.180	-0.780	2.260	185.41	-2.30	2.70	 	 	 	 	 	 	 	 	 	 	 	 	 	 	 	 	 	 	1581488278	8.77	16.24
12/02/2020 06:17:59	120220	12022020	061759	185.97	13.083893	-57.077407	186.16	-0.200	0.230	2.030	185.97	-1.30	2.50	 	 	 	 	 	 	 	 	 	 	 	 	 	 	 	 	 	 	1581488279	7.72	14.30
12/02/2020 06:18:00	120220	12022020	061800	186.28	13.083863	-57.077413	186.43	-0.120	0.500	1.910	186.28	-0.90	2.40	 	 	 	 	 	 	 	 	 	 	 	 	 	 	 	 	 	 	1581488280	6.92	12.82
12/02/2020 06:18:01	120220	12022020	061801	186.14	13.083828	-57.077420	186.27	0.020	-0.080	2.090	186.14	-1.40	2.50	1015.10	26.00	26.00	20.70	20.80	-2.0	72.0	72.0	425.0	25.7	275.00	10.80	80.00	11.30	15	8787.0	27.2	27.2	1581488281	7.64	14.15
12/02/2020 06:18:02	120220	12022020	061802	185.92	13.083788	-57.077427	186.08	0.040	-0.520	2.440	185.92	-1.90	2.90	 	 	 	 	 	 	 	 	 	 	 	 	 	 	 	 	 	 	1581488282	8.65	16.02
12/02/2020 06:18:03	120220	12022020	061803	185.88	13.083748	-57.077433	186.06	-0.150	-0.360	2.710	185.88	-1.80	3.20	 	 	 	 	 	 	 	 	 	 	 	 	 	 	 	 	 	 	1581488283	8.56	15.85
12/02/2020 06:18:04	120220	12022020	061804	185.78	13.083713	-57.077442	185.96	-0.360	-0.170	2.910	185.78	-1.60	3.40	 	 	 	 	 	 	 	 	 	 	 	 	 	 	 	 	 	 	1581488284	7.86	14.56
12/02/2020 06:18:05	120220	12022020	061805	185.55	13.083677	-57.077450	185.72	-0.290	-0.350	2.980	185.55	-1.70	3.50	 	 	 	 	 	 	 	 	 	 	 	 	 	 	 	 	 	 	1581488285	7.86	14.56
12/02/2020 06:18:06	120220	12022020	061806	185.38	13.083640	-57.077460	185.52	0.090	-0.500	2.660	185.38	-1.90	3.20	 	 	 	 	 	 	 	 	 	 	 	 	 	 	 	 	 	 	1581488286	8.36	15.48
12/02/2020 06:18:07	120220	12022020	061807	185.40	13.083602	-57.077467	185.57	0.450	-0.160	2.010	185.40	-1.60	2.60	 	 	 	 	 	 	 	 	 	 	 	 	 	 	 	 	 	 	1581488287	8.39	15.54
12/02/2020 06:18:08	120220	12022020	061808	185.66	13.083565	-57.077470	185.92	0.470	0.480	1.280	185.66	-1.00	1.90	 	 	 	 	 	 	 	 	 	 	 	 	 	 	 	 	 	 	1581488288	7.72	14.30
12/02/2020 06:18:09	120220	12022020	061809	186.10	13.083532	-57.077470	186.25	0.200	0.590	0.780	186.10	-0.80	1.30	 	 	 	 	 	 	 	 	 	 	 	 	 	 	 	 	 	 	1581488289	7.15	13.24
12/02/2020 06:18:10	120220	12022020	061810	186.12	13.083498	-57.077472	186.25	-0.080	-0.170	0.950	186.12	-1.40	1.40	 	 	 	 	 	 	 	 	 	 	 	 	 	 	 	 	 	 	1581488290	7.47	13.83
12/02/2020 06:18:11	120220	12022020	061811	185.81	13.083458	-57.077478	185.93	-0.150	-1.160	1.690	185.81	-2.40	2.10	 	 	 	 	 	 	 	 	 	 	 	 	 	 	 	 	 	 	1581488291	8.42	15.59
12/02/2020 06:18:12	120220	12022020	061812	185.39	13.083418	-57.077490	185.54	-0.030	-1.460	2.440	185.39	-2.90	2.80	 	 	 	 	 	 	 	 	 	 	 	 	 	 	 	 	 	 	1581488292	8.94	16.56
12/02/2020 06:18:13	120220	12022020	061813	185.09	13.083382	-57.077502	185.27	0.080	-0.920	2.870	185.09	-2.40	3.30	 	 	 	 	 	 	 	 	 	 	 	 	 	 	 	 	 	 	1581488293	8.51	15.76
12/02/2020 06:18:14	120220	12022020	061814	185.26	13.083347	-57.077510	185.47	-0.090	0.040	2.720	185.26	-1.50	3.20	 	 	 	 	 	 	 	 	 	 	 	 	 	 	 	 	 	 	1581488294	7.76	14.37
12/02/2020 06:18:15	120220	12022020	061815	185.74	13.083313	-57.077517	185.92	-0.430	0.700	2.320	185.74	-0.70	2.80	 	 	 	 	 	 	 	 	 	 	 	 	 	 	 	 	 	 	1581488295	7.24	13.41
12/02/2020 06:18:16	120220	12022020	061816	186.08	13.083280	-57.077523	186.26	-0.520	0.640	1.980	186.08	-0.70	2.50	 	 	 	 	 	 	 	 	 	 	 	 	 	 	 	 	 	 	1581488296	7.34	13.59
12/02/2020 06:18:17	120220	12022020	061817	186.42	13.083243	-57.077528	186.58	-0.240	0.160	1.520	186.42	-1.20	2.10	 	 	 	 	 	 	 	 	 	 	 	 	 	 	 	 	 	 	1581488297	7.98	14.78
12/02/2020 06:18:18	120220	12022020	061818	186.57	13.083205	-57.077533	186.71	0.240	-0.430	1.200	186.57	-1.70	1.70	 	 	 	 	 	 	 	 	 	 	 	 	 	 	 	 	 	 	1581488298	8.28	15.33
12/02/2020 06:18:19	120220	12022020	061819	186.29	13.083167	-57.077538	186.42	0.690	-1.020	1.250	186.29	-2.30	1.70	 	 	 	 	 	 	 	 	 	 	 	 	 	 	 	 	 	 	1581488299	8.33	15.43
12/02/2020 06:18:20	120220	12022020	061820	185.97	13.083127	-57.077543	186.07	0.820	-1.130	1.460	185.97	-2.50	1.90	 	 	 	 	 	 	 	 	 	 	 	 	 	 	 	 	 	 	1581488300	8.49	15.72
12/02/2020 06:18:21	120220	12022020	061821	185.70	13.083088	-57.077547	185.89	0.410	-0.590	1.840	185.70	-2.10	2.30	 	 	 	 	 	 	 	 	 	 	 	 	 	 	 	 	 	 	1581488301	8.24	15.26
12/02/2020 06:18:22	120220	12022020	061822	185.69	13.083053	-57.077552	185.90	-0.330	0.140	2.360	185.69	-1.30	2.80	 	 	 	 	 	 	 	 	 	 	 	 	 	 	 	 	 	 	1581488302	7.65	14.17
12/02/2020 06:18:23	120220	12022020	061823	185.93	13.083020	-57.077562	186.16	-0.910	0.590	2.620	185.93	-0.80	3.10	 	 	 	 	 	 	 	 	 	 	 	 	 	 	 	 	 	 	1581488303	7.54	13.96
12/02/2020 06:18:24	120220	12022020	061824	186.46	13.082985	-57.077573	186.69	-0.970	0.710	2.430	186.46	-0.70	2.90	 	 	 	 	 	 	 	 	 	 	 	 	 	 	 	 	 	 	1581488304	7.83	14.50
12/02/2020 06:18:25	120220	12022020	061825	186.97	13.082950	-57.077583	187.19	-0.460	0.410	1.920	186.97	-0.90	2.50	 	 	 	 	 	 	 	 	 	 	 	 	 	 	 	 	 	 	1581488305	7.96	14.74
12/02/2020 06:18:26	120220	12022020	061826	187.22	13.082913	-57.077592	187.41	0.270	-0.230	1.340	187.22	-1.50	1.90	 	 	 	 	 	 	 	 	 	 	 	 	 	 	 	 	 	 	1581488306	8.08	14.96
12/02/2020 06:18:27	120220	12022020	061827	187.04	13.082875	-57.077595	187.20	0.770	-1.000	1.140	187.04	-2.30	1.60	 	 	 	 	 	 	 	 	 	 	 	 	 	 	 	 	 	 	1581488307	8.30	15.37
12/02/2020 06:18:28	120220	12022020	061828	186.50	13.082835	-57.077598	186.66	0.870	-1.610	1.450	186.50	-3.00	1.90	 	 	 	 	 	 	 	 	 	 	 	 	 	 	 	 	 	 	1581488308	8.54	15.82
12/02/2020 06:18:29	120220	12022020	061829	185.94	13.082795	-57.077603	186.13	0.540	-1.530	1.940	185.94	-3.00	2.40	 	 	 	 	 	 	 	 	 	 	 	 	 	 	 	 	 	 	1581488309	8.69	16.09
12/02/2020 06:18:30	120220	12022020	061830	185.84	13.082757	-57.077610	186.08	-0.100	-0.480	2.360	185.84	-2.10	2.80	 	 	 	 	 	 	 	 	 	 	 	 	 	 	 	 	 	 	1581488310	8.37	15.50
12/02/2020 06:18:31	120220	12022020	061831	186.42	13.082722	-57.077620	186.69	-0.760	1.100	2.350	186.42	-0.50	2.90	 	 	 	 	 	 	 	 	 	 	 	 	 	 	 	 	 	 	1581488311	7.57	14.02
12/02/2020 06:18:32	120220	12022020	061832	187.22	13.082692	-57.077630	187.70	-1.080	2.100	1.790	187.22	0.60	2.40	 	 	 	 	 	 	 	 	 	 	 	 	 	 	 	 	 	 	1581488312	6.79	12.58
12/02/2020 06:18:33	120220	12022020	061833	188.28	13.082662	-57.077638	188.51	-0.740	1.490	1.140	188.28	0.30	1.70	 	 	 	 	 	 	 	 	 	 	 	 	 	 	 	 	 	 	1581488313	6.85	12.69
12/02/2020 06:18:34	120220	12022020	061834	188.42	13.082623	-57.077643	188.53	0.250	-0.650	0.950	188.42	-1.70	1.40	 	 	 	 	 	 	 	 	 	 	 	 	 	 	 	 	 	 	1581488314	8.17	15.13
12/02/2020 06:18:35	120220	12022020	061835	187.83	13.082578	-57.077650	187.97	1.260	-2.520	1.240	187.83	-3.70	1.70	 	 	 	 	 	 	 	 	 	 	 	 	 	 	 	 	 	 	1581488315	9.80	18.15
12/02/2020 06:18:36	120220	12022020	061836	187.25	13.082533	-57.077657	187.41	1.450	-2.440	1.670	187.25	-4.00	2.10	 	 	 	 	 	 	 	 	 	 	 	 	 	 	 	 	 	 	1581488316	9.89	18.32
12/02/2020 06:18:37	120220	12022020	061837	186.99	13.082495	-57.077660	187.19	0.590	-0.720	2.060	186.99	-2.40	2.50	 	 	 	 	 	 	 	 	 	 	 	 	 	 	 	 	 	 	1581488317	8.12	15.04
12/02/2020 06:18:38	120220	12022020	061838	187.01	13.082465	-57.077667	187.24	-0.710	1.000	2.350	187.01	-0.60	2.80	 	 	 	 	 	 	 	 	 	 	 	 	 	 	 	 	 	 	1581488318	6.52	12.08
12/02/2020 06:18:39	120220	12022020	061839	187.22	13.082437	-57.077675	187.47	-1.590	1.550	2.460	187.22	0.20	2.90	 	 	 	 	 	 	 	 	 	 	 	 	 	 	 	 	 	 	1581488319	6.61	12.24
12/02/2020 06:18:40	120220	12022020	061840	187.57	13.082402	-57.077688	187.84	-1.610	0.990	2.330	187.57	-0.30	2.80	 	 	 	 	 	 	 	 	 	 	 	 	 	 	 	 	 	 	1581488320	7.85	14.54
12/02/2020 06:18:41	120220	12022020	061841	188.20	13.082363	-57.077703	188.47	-0.830	0.130	1.780	188.20	-1.20	2.30	 	 	 	 	 	 	 	 	 	 	 	 	 	 	 	 	 	 	1581488321	8.88	16.45
12/02/2020 06:18:42	120220	12022020	061842	188.81	13.082323	-57.077715	189.02	0.320	-0.530	0.930	188.81	-1.90	1.50	 	 	 	 	 	 	 	 	 	 	 	 	 	 	 	 	 	 	1581488322	8.84	16.37
12/02/2020 06:18:43	120220	12022020	061843	188.72	13.082285	-57.077722	188.84	1.390	-1.200	0.420	188.72	-2.50	0.90	 	 	 	 	 	 	 	 	 	 	 	 	 	 	 	 	 	 	1581488323	8.32	15.41
12/02/2020 06:18:44	120220	12022020	061844	188.06	13.082247	-57.077723	188.20	1.810	-1.460	0.500	188.06	-2.90	1.00	 	 	 	 	 	 	 	 	 	 	 	 	 	 	 	 	 	 	1581488324	8.49	15.72
12/02/2020 06:18:45	120220	12022020	061845	187.82	13.082207	-57.077723	188.02	1.140	-0.670	0.730	187.82	-2.20	1.20	 	 	 	 	 	 	 	 	 	 	 	 	 	 	 	 	 	 	1581488325	8.46	15.67
12/02/2020 06:18:46	120220	12022020	061846	188.09	13.082173	-57.077727	188.43	-0.200	0.560	1.090	188.09	-1.00	1.50	 	 	 	 	 	 	 	 	 	 	 	 	 	 	 	 	 	 	1581488326	7.38	13.67
12/02/2020 06:18:47	120220	12022020	061847	188.64	13.082142	-57.077735	188.86	-1.300	0.940	1.750	188.64	-0.50	2.10	 	 	 	 	 	 	 	 	 	 	 	 	 	 	 	 	 	 	1581488327	6.80	12.59
12/02/2020 06:18:48	120220	12022020	061848	188.87	13.082108	-57.077750	189.08	-1.510	0.210	2.600	188.87	-1.10	2.90	 	 	 	 	 	 	 	 	 	 	 	 	 	 	 	 	 	 	1581488328	7.76	14.37
12/02/2020 06:18:49	120220	12022020	061849	188.84	13.082070	-57.077768	189.03	-0.910	-0.870	3.340	188.84	-2.10	3.70	 	 	 	 	 	 	 	 	 	 	 	 	 	 	 	 	 	 	1581488329	9.09	16.83
12/02/2020 06:18:50	120220	12022020	061850	188.47	13.082030	-57.077787	188.64	-0.020	-1.360	3.590	188.47	-2.80	4.00	 	 	 	 	 	 	 	 	 	 	 	 	 	 	 	 	 	 	1581488330	9.56	17.71
12/02/2020 06:18:51	120220	12022020	061851	187.86	13.081990	-57.077800	188.01	0.640	-0.900	3.270	187.86	-2.40	3.80	 	 	 	 	 	 	 	 	 	 	 	 	 	 	 	 	 	 	1581488331	8.90	16.48
12/02/2020 06:18:52	120220	12022020	061852	187.33	13.081955	-57.077807	187.50	0.910	0.100	2.500	187.33	-1.40	3.10	 	 	 	 	 	 	 	 	 	 	 	 	 	 	 	 	 	 	1581488332	7.84	14.52
12/02/2020 06:18:53	120220	12022020	061853	187.21	13.081920	-57.077807	187.38	0.790	0.870	1.430	187.21	-0.60	2.00	 	 	 	 	 	 	 	 	 	 	 	 	 	 	 	 	 	 	1581488333	7.36	13.63
12/02/2020 06:18:54	120220	12022020	061854	187.36	13.081887	-57.077805	187.52	0.410	0.950	0.680	187.36	-0.40	1.20	 	 	 	 	 	 	 	 	 	 	 	 	 	 	 	 	 	 	1581488334	7.50	13.89
12/02/2020 06:18:55	120220	12022020	061855	187.54	13.081848	-57.077805	187.72	0.000	0.400	0.540	187.54	-0.90	1.00	 	 	 	 	 	 	 	 	 	 	 	 	 	 	 	 	 	 	1581488335	7.90	14.63
12/02/2020 06:18:56	120220	12022020	061856	187.77	13.081812	-57.077812	187.95	-0.250	-0.280	0.790	187.77	-1.60	1.20	 	 	 	 	 	 	 	 	 	 	 	 	 	 	 	 	 	 	1581488336	8.33	15.43
12/02/2020 06:18:57	120220	12022020	061857	188.02	13.081773	-57.077823	188.23	-0.210	-0.850	1.240	188.02	-2.20	1.60	 	 	 	 	 	 	 	 	 	 	 	 	 	 	 	 	 	 	1581488337	8.38	15.52
12/02/2020 06:18:58	120220	12022020	061858	188.11	13.081737	-57.077835	188.27	0.090	-1.320	1.850	188.11	-2.70	2.20	 	 	 	 	 	 	 	 	 	 	 	 	 	 	 	 	 	 	1581488338	8.26	15.30
12/02/2020 06:18:59	120220	12022020	061859	187.70	13.081700	-57.077848	187.85	0.460	-1.680	2.560	187.70	-3.00	2.90	 	 	 	 	 	 	 	 	 	 	 	 	 	 	 	 	 	 	1581488339	8.30	15.37
12/02/2020 06:19:00	120220	12022020	061900	187.11	13.081662	-57.077858	187.29	0.560	-1.480	3.070	187.11	-3.00	3.50	 	 	 	 	 	 	 	 	 	 	 	 	 	 	 	 	 	 	1581488340	8.54	15.82
12/02/2020 06:19:01	120220	12022020	061901	186.94	13.081625	-57.077868	187.18	0.080	-0.260	3.160	186.94	-1.90	3.60	1015.30	26.10	26.10	20.70	20.80	-2.0	72.0	72.0	423.0	25.7	274.00	10.00	78.00	10.50	14	9497.0	27.2	27.2	1581488341	8.36	15.48
12/02/2020 06:19:02	120220	12022020	061902	187.33	13.081592	-57.077875	187.57	-0.720	1.230	2.780	187.33	-0.30	3.30	 	 	 	 	 	 	 	 	 	 	 	 	 	 	 	 	 	 	1581488342	7.33	13.58
12/02/2020 06:19:03	120220	12022020	061903	187.87	13.081560	-57.077880	188.09	-1.120	1.650	2.080	187.87	0.30	2.70	 	 	 	 	 	 	 	 	 	 	 	 	 	 	 	 	 	 	1581488343	6.75	12.50
12/02/2020 06:19:04	120220	12022020	061904	188.13	13.081525	-57.077887	188.33	-0.590	0.470	1.500	188.13	-0.70	2.00	 	 	 	 	 	 	 	 	 	 	 	 	 	 	 	 	 	 	1581488344	7.60	14.08
12/02/2020 06:19:05	120220	12022020	061905	187.96	13.081483	-57.077893	188.12	0.500	-1.220	1.390	187.96	-2.40	1.90	 	 	 	 	 	 	 	 	 	 	 	 	 	 	 	 	 	 	1581488345	9.23	17.09
12/02/2020 06:19:06	120220	12022020	061906	187.69	13.081437	-57.077900	187.89	1.100	-1.630	1.620	187.69	-3.10	2.10	 	 	 	 	 	 	 	 	 	 	 	 	 	 	 	 	 	 	1581488346	9.96	18.45
12/02/2020 06:19:07	120220	12022020	061907	187.66	13.081397	-57.077907	187.90	0.670	-0.330	1.910	187.66	-2.00	2.40	 	 	 	 	 	 	 	 	 	 	 	 	 	 	 	 	 	 	1581488347	8.67	16.06
12/02/2020 06:19:08	120220	12022020	061908	187.94	13.081367	-57.077915	188.17	-0.270	1.280	2.080	187.94	-0.30	2.50	 	 	 	 	 	 	 	 	 	 	 	 	 	 	 	 	 	 	1581488348	6.69	12.39
12/02/2020 06:19:09	120220	12022020	061909	188.24	13.081340	-57.077923	188.45	-0.740	1.430	2.040	188.24	0.10	2.50	 	 	 	 	 	 	 	 	 	 	 	 	 	 	 	 	 	 	1581488349	6.10	11.30
12/02/2020 06:19:10	120220	12022020	061910	188.38	13.081307	-57.077933	188.60	-0.350	-0.000	1.930	188.38	-1.20	2.40	 	 	 	 	 	 	 	 	 	 	 	 	 	 	 	 	 	 	1581488350	7.48	13.85
12/02/2020 06:19:11	120220	12022020	061911	188.44	13.081265	-57.077943	188.64	0.430	-1.540	1.770	188.44	-2.80	2.30	 	 	 	 	 	 	 	 	 	 	 	 	 	 	 	 	 	 	1581488351	9.17	16.98
12/02/2020 06:19:12	120220	12022020	061912	188.44	13.081222	-57.077953	188.63	0.880	-1.720	1.450	188.44	-3.20	2.00	 	 	 	 	 	 	 	 	 	 	 	 	 	 	 	 	 	 	1581488352	9.41	17.43
12/02/2020 06:19:13	120220	12022020	061913	188.60	13.081185	-57.077958	188.78	0.650	-0.630	0.920	188.60	-2.20	1.50	 	 	 	 	 	 	 	 	 	 	 	 	 	 	 	 	 	 	1581488353	8.06	14.93
12/02/2020 06:19:14	120220	12022020	061914	188.83	13.081153	-57.077960	189.00	0.030	0.310	0.630	188.83	-1.20	1.10	 	 	 	 	 	 	 	 	 	 	 	 	 	 	 	 	 	 	1581488354	6.71	12.43
12/02/2020 06:19:15	120220	12022020	061915	188.78	13.081123	-57.077963	188.90	-0.420	0.110	1.010	188.78	-1.20	1.40	 	 	 	 	 	 	 	 	 	 	 	 	 	 	 	 	 	 	1581488355	6.81	12.61
12/02/2020 06:19:16	120220	12022020	061916	188.27	13.081085	-57.077973	188.39	-0.450	-0.760	1.920	188.27	-2.10	2.20	 	 	 	 	 	 	 	 	 	 	 	 	 	 	 	 	 	 	1581488356	8.14	15.08
12/02/2020 06:19:17	120220	12022020	061917	187.52	13.081045	-57.077985	187.64	-0.300	-1.220	2.960	187.52	-2.60	3.30	 	 	 	 	 	 	 	 	 	 	 	 	 	 	 	 	 	 	1581488357	9.18	17.00
12/02/2020 06:19:18	120220	12022020	061918	186.88	13.081005	-57.078000	187.04	-0.230	-0.780	3.690	186.88	-2.30	4.10	 	 	 	 	 	 	 	 	 	 	 	 	 	 	 	 	 	 	1581488358	9.12	16.89
12/02/2020 06:19:19	120220	12022020	061919	186.64	13.080968	-57.078015	186.84	-0.230	0.280	3.740	186.64	-1.30	4.20	 	 	 	 	 	 	 	 	 	 	 	 	 	 	 	 	 	 	1581488359	8.31	15.39
12/02/2020 06:19:20	120220	12022020	061920	186.85	13.080935	-57.078025	187.05	-0.150	1.160	3.000	186.85	-0.30	3.60	 	 	 	 	 	 	 	 	 	 	 	 	 	 	 	 	 	 	1581488360	7.48	13.85
12/02/2020 06:19:21	120220	12022020	061921	187.33	13.080902	-57.078028	187.55	0.010	1.280	1.950	187.33	-0.10	2.60	 	 	 	 	 	 	 	 	 	 	 	 	 	 	 	 	 	 	1581488361	7.32	13.56
12/02/2020 06:19:22	120220	12022020	061922	187.80	13.080865	-57.078030	188.13	0.140	0.720	1.210	187.80	-0.60	1.80	 	 	 	 	 	 	 	 	 	 	 	 	 	 	 	 	 	 	1581488362	7.79	14.43
12/02/2020 06:19:23	120220	12022020	061923	188.27	13.080828	-57.078033	188.44	0.200	-0.230	0.920	188.27	-1.50	1.40	 	 	 	 	 	 	 	 	 	 	 	 	 	 	 	 	 	 	1581488363	8.11	15.02
12/02/2020 06:19:24	120220	12022020	061924	188.19	13.080790	-57.078040	188.25	0.320	-1.300	1.150	188.19	-2.60	1.60	 	 	 	 	 	 	 	 	 	 	 	 	 	 	 	 	 	 	1581488364	8.28	15.33
12/02/2020 06:19:25	120220	12022020	061925	187.58	13.080752	-57.078050	187.73	0.520	-1.980	1.710	187.58	-3.40	2.10	 	 	 	 	 	 	 	 	 	 	 	 	 	 	 	 	 	 	1581488365	8.52	15.78
12/02/2020 06:19:26	120220	12022020	061926	187.28	13.080713	-57.078060	187.47	0.530	-1.530	2.030	187.28	-3.10	2.50	 	 	 	 	 	 	 	 	 	 	 	 	 	 	 	 	 	 	1581488366	8.49	15.72
12/02/2020 06:19:27	120220	12022020	061927	187.25	13.080680	-57.078067	187.45	0.250	-0.350	2.070	187.25	-1.90	2.50	 	 	 	 	 	 	 	 	 	 	 	 	 	 	 	 	 	 	1581488367	7.50	13.89
12/02/2020 06:19:28	120220	12022020	061928	187.13	13.080648	-57.078073	187.31	-0.050	0.290	2.000	187.13	-1.20	2.50	 	 	 	 	 	 	 	 	 	 	 	 	 	 	 	 	 	 	1581488368	6.77	12.54
12/02/2020 06:19:29	120220	12022020	061929	187.10	13.080613	-57.078078	187.30	-0.300	0.170	1.980	187.10	-1.20	2.40	 	 	 	 	 	 	 	 	 	 	 	 	 	 	 	 	 	 	1581488369	7.54	13.96
12/02/2020 06:19:30	120220	12022020	061930	187.22	13.080575	-57.078085	187.43	-0.500	-0.040	2.350	187.22	-1.40	2.80	 	 	 	 	 	 	 	 	 	 	 	 	 	 	 	 	 	 	1581488370	8.45	15.65
12/02/2020 06:19:31	120220	12022020	061931	187.29	13.080537	-57.078095	187.49	-0.650	-0.100	2.800	187.29	-1.50	3.20	 	 	 	 	 	 	 	 	 	 	 	 	 	 	 	 	 	 	1581488371	8.56	15.85
12/02/2020 06:19:32	120220	12022020	061932	187.17	13.080498	-57.078107	187.37	-0.650	-0.150	3.120	187.17	-1.60	3.50	 	 	 	 	 	 	 	 	 	 	 	 	 	 	 	 	 	 	1581488372	8.40	15.56
12/02/2020 06:19:33	120220	12022020	061933	187.10	13.080462	-57.078120	187.32	-0.390	-0.020	3.100	187.10	-1.50	3.60	 	 	 	 	 	 	 	 	 	 	 	 	 	 	 	 	 	 	1581488373	8.43	15.61
12/02/2020 06:19:34	120220	12022020	061934	187.43	13.080427	-57.078133	187.65	0.070	0.500	2.240	187.43	-1.00	2.90	 	 	 	 	 	 	 	 	 	 	 	 	 	 	 	 	 	 	1581488374	8.14	15.08
12/02/2020 06:19:35	120220	12022020	061935	188.02	13.080393	-57.078137	188.22	0.500	0.820	0.890	188.02	-0.60	1.50	 	 	 	 	 	 	 	 	 	 	 	 	 	 	 	 	 	 	1581488375	7.30	13.52
12/02/2020 06:19:36	120220	12022020	061936	188.47	13.080358	-57.078135	188.63	0.680	0.220	-0.060	188.47	-1.10	0.50	 	 	 	 	 	 	 	 	 	 	 	 	 	 	 	 	 	 	1581488376	7.27	13.46
12/02/2020 06:19:37	120220	12022020	061937	188.53	13.080322	-57.078135	188.66	0.580	-1.050	-0.010	188.53	-2.30	0.40	 	 	 	 	 	 	 	 	 	 	 	 	 	 	 	 	 	 	1581488377	8.05	14.91
12/02/2020 06:19:38	120220	12022020	061938	188.27	13.080282	-57.078140	188.41	0.330	-2.010	0.860	188.27	-3.30	1.20	 	 	 	 	 	 	 	 	 	 	 	 	 	 	 	 	 	 	1581488378	8.71	16.13
12/02/2020 06:19:39	120220	12022020	061939	187.74	13.080242	-57.078150	187.88	0.060	-1.990	2.120	187.74	-3.50	2.40	 	 	 	 	 	 	 	 	 	 	 	 	 	 	 	 	 	 	1581488379	8.73	16.17
12/02/2020 06:19:40	120220	12022020	061940	187.10	13.080207	-57.078163	187.29	-0.200	-1.100	3.210	187.10	-2.70	3.50	 	 	 	 	 	 	 	 	 	 	 	 	 	 	 	 	 	 	1581488380	8.23	15.24
12/02/2020 06:19:41	120220	12022020	061941	186.69	13.080173	-57.078178	186.90	-0.470	0.200	3.640	186.69	-1.40	4.10	 	 	 	 	 	 	 	 	 	 	 	 	 	 	 	 	 	 	1581488381	7.72	14.30
12/02/2020 06:19:42	120220	12022020	061942	186.60	13.080140	-57.078188	186.81	-0.680	1.110	3.390	186.60	-0.40	3.90	 	 	 	 	 	 	 	 	 	 	 	 	 	 	 	 	 	 	1581488382	7.30	13.52
12/02/2020 06:19:43	120220	12022020	061943	186.66	13.080107	-57.078197	186.86	-0.690	1.000	2.760	186.66	-0.30	3.30	 	 	 	 	 	 	 	 	 	 	 	 	 	 	 	 	 	 	1581488383	7.49	13.87
12/02/2020 06:19:44	120220	12022020	061944	186.77	13.080068	-57.078202	186.95	-0.450	0.210	2.080	186.77	-1.10	2.60	 	 	 	 	 	 	 	 	 	 	 	 	 	 	 	 	 	 	1581488384	8.39	15.54
12/02/2020 06:19:45	120220	12022020	061945	187.27	13.080027	-57.078208	187.49	-0.110	-0.130	1.230	187.27	-1.50	1.80	 	 	 	 	 	 	 	 	 	 	 	 	 	 	 	 	 	 	1581488385	8.98	16.63
12/02/2020 06:19:46	120220	12022020	061946	188.06	13.079988	-57.078213	188.53	0.100	0.290	0.380	188.06	-1.20	1.00	 	 	 	 	 	 	 	 	 	 	 	 	 	 	 	 	 	 	1581488386	8.27	15.32
12/02/2020 06:19:47	120220	12022020	061947	189.22	13.079957	-57.078218	189.42	0.230	0.480	-0.040	189.22	-0.90	0.50	 	 	 	 	 	 	 	 	 	 	 	 	 	 	 	 	 	 	1581488387	7.00	12.96
12/02/2020 06:19:48	120220	12022020	061948	189.41	13.079925	-57.078222	189.49	0.530	-0.450	0.310	189.41	-1.70	0.70	 	 	 	 	 	 	 	 	 	 	 	 	 	 	 	 	 	 	1581488388	6.89	12.76
12/02/2020 06:19:49	120220	12022020	061949	188.74	13.079887	-57.078228	188.84	0.820	-1.740	1.430	188.74	-3.00	1.70	 	 	 	 	 	 	 	 	 	 	 	 	 	 	 	 	 	 	1581488389	8.13	15.06
12/02/2020 06:19:50	120220	12022020	061950	187.89	13.079847	-57.078240	188.05	0.760	-2.070	2.710	187.89	-3.50	3.00	 	 	 	 	 	 	 	 	 	 	 	 	 	 	 	 	 	 	1581488390	8.95	16.58
12/02/2020 06:19:51	120220	12022020	061951	187.36	13.079810	-57.078252	187.56	0.220	-1.150	3.500	187.36	-2.70	3.90	 	 	 	 	 	 	 	 	 	 	 	 	 	 	 	 	 	 	1581488391	8.44	15.63
12/02/2020 06:19:52	120220	12022020	061952	187.25	13.079777	-57.078263	187.48	-0.550	0.090	3.740	187.25	-1.40	4.20	 	 	 	 	 	 	 	 	 	 	 	 	 	 	 	 	 	 	1581488392	7.45	13.80
12/02/2020 06:19:53	120220	12022020	061953	187.48	13.079745	-57.078273	187.72	-1.100	0.860	3.590	187.48	-0.60	4.10	 	 	 	 	 	 	 	 	 	 	 	 	 	 	 	 	 	 	1581488393	7.22	13.37
12/02/2020 06:19:54	120220	12022020	061954	187.81	13.079712	-57.078285	188.03	-1.110	0.960	2.990	187.81	-0.40	3.60	 	 	 	 	 	 	 	 	 	 	 	 	 	 	 	 	 	 	1581488394	7.70	14.26
12/02/2020 06:19:55	120220	12022020	061955	188.12	13.079675	-57.078297	188.31	-0.560	0.660	1.970	188.12	-0.70	2.60	 	 	 	 	 	 	 	 	 	 	 	 	 	 	 	 	 	 	1581488395	8.16	15.11
12/02/2020 06:19:56	120220	12022020	061956	188.43	13.079637	-57.078303	188.59	0.180	0.290	0.910	188.43	-1.10	1.50	 	 	 	 	 	 	 	 	 	 	 	 	 	 	 	 	 	 	1581488396	8.26	15.30
12/02/2020 06:19:57	120220	12022020	061957	188.66	13.079598	-57.078307	188.81	0.710	-0.170	0.210	188.66	-1.50	0.80	 	 	 	 	 	 	 	 	 	 	 	 	 	 	 	 	 	 	1581488397	8.10	15.00
12/02/2020 06:19:58	120220	12022020	061958	188.54	13.079562	-57.078308	188.64	0.840	-0.850	0.190	188.54	-2.10	0.60	 	 	 	 	 	 	 	 	 	 	 	 	 	 	 	 	 	 	1581488398	8.01	14.83
12/02/2020 06:19:59	120220	12022020	061959	188.00	13.079523	-57.078312	188.10	0.560	-1.460	1.120	188.00	-2.80	1.40	 	 	 	 	 	 	 	 	 	 	 	 	 	 	 	 	 	 	1581488399	8.23	15.24
12/02/2020 06:20:00	120220	12022020	062000	187.50	13.079485	-57.078322	187.54	-0.020	-1.420	2.610	187.50	-2.90	2.90	 	 	 	 	 	 	 	 	 	 	 	 	 	 	 	 	 	 	1581488400	8.43	15.61
12/02/2020 06:20:01	120220	12022020	062001	186.97	13.079450	-57.078337	187.18	-0.690	-0.670	3.880	186.97	-2.20	4.20	1015.10	26.10	26.20	21.00	21.00	-1.0	73.0	73.0	419.0	25.7	272.00	9.60	77.00	10.30	14	8429.0	27.2	27.2	1581488401	8.26	15.30
12/02/2020 06:20:02	120220	12022020	062002	186.76	13.079418	-57.078355	186.99	-1.040	0.340	4.490	186.76	-1.20	4.90	 	 	 	 	 	 	 	 	 	 	 	 	 	 	 	 	 	 	1581488402	7.96	14.74
12/02/2020 06:20:03	120220	12022020	062003	186.77	13.079387	-57.078372	187.01	-0.760	1.010	4.240	186.77	-0.40	4.80	 	 	 	 	 	 	 	 	 	 	 	 	 	 	 	 	 	 	1581488403	7.70	14.26
12/02/2020 06:20:04	120220	12022020	062004	186.96	13.079353	-57.078383	187.18	0.080	0.910	3.220	186.96	-0.40	3.80	 	 	 	 	 	 	 	 	 	 	 	 	 	 	 	 	 	 	1581488404	7.54	13.96
12/02/2020 06:20:05	120220	12022020	062005	187.24	13.079317	-57.078387	187.41	0.910	0.170	1.930	187.24	-1.10	2.60	 	 	 	 	 	 	 	 	 	 	 	 	 	 	 	 	 	 	1581488405	7.99	14.80
12/02/2020 06:20:06	120220	12022020	062006	187.56	13.079277	-57.078385	187.73	1.210	-0.600	1.100	187.56	-1.90	1.70	 	 	 	 	 	 	 	 	 	 	 	 	 	 	 	 	 	 	1581488406	8.62	15.96
12/02/2020 06:20:07	120220	12022020	062007	187.82	13.079237	-57.078385	187.99	0.840	-1.030	1.110	187.82	-2.40	1.50	 	 	 	 	 	 	 	 	 	 	 	 	 	 	 	 	 	 	1581488407	8.49	15.72
12/02/2020 06:20:08	120220	12022020	062008	187.74	13.079200	-57.078388	187.90	0.100	-1.200	2.020	187.74	-2.60	2.30	 	 	 	 	 	 	 	 	 	 	 	 	 	 	 	 	 	 	1581488408	7.94	14.70
12/02/2020 06:20:09	120220	12022020	062009	187.32	13.079165	-57.078400	187.50	-0.570	-1.110	3.380	187.32	-2.50	3.70	 	 	 	 	 	 	 	 	 	 	 	 	 	 	 	 	 	 	1581488409	7.86	14.56
12/02/2020 06:20:10	120220	12022020	062010	186.81	13.079132	-57.078417	187.01	-0.830	-0.700	4.460	186.81	-2.10	4.80	 	 	 	 	 	 	 	 	 	 	 	 	 	 	 	 	 	 	1581488410	8.19	15.17
12/02/2020 06:20:11	120220	12022020	062011	186.20	13.079098	-57.078435	186.40	-0.590	-0.240	4.960	186.20	-1.70	5.40	 	 	 	 	 	 	 	 	 	 	 	 	 	 	 	 	 	 	1581488411	8.15	15.09
12/02/2020 06:20:12	120220	12022020	062012	185.82	13.079063	-57.078450	185.99	-0.140	0.060	4.680	185.82	-1.30	5.20	 	 	 	 	 	 	 	 	 	 	 	 	 	 	 	 	 	 	1581488412	8.03	14.87
12/02/2020 06:20:13	120220	12022020	062013	185.86	13.079027	-57.078457	186.11	0.140	0.310	3.680	185.86	-1.10	4.30	 	 	 	 	 	 	 	 	 	 	 	 	 	 	 	 	 	 	1581488413	8.10	15.00
12/02/2020 06:20:14	120220	12022020	062014	186.38	13.078990	-57.078460	186.79	0.170	0.650	2.280	186.38	-0.80	3.00	 	 	 	 	 	 	 	 	 	 	 	 	 	 	 	 	 	 	1581488414	7.99	14.80
12/02/2020 06:20:15	120220	12022020	062015	187.47	13.078953	-57.078460	187.70	0.080	0.840	0.990	187.47	-0.60	1.60	 	 	 	 	 	 	 	 	 	 	 	 	 	 	 	 	 	 	1581488415	7.62	14.11
12/02/2020 06:20:16	120220	12022020	062016	188.27	13.078920	-57.078460	188.50	0.080	0.470	0.340	188.27	-0.80	0.90	 	 	 	 	 	 	 	 	 	 	 	 	 	 	 	 	 	 	1581488416	7.42	13.74
12/02/2020 06:20:17	120220	12022020	062017	188.82	13.078883	-57.078462	189.02	0.230	-0.480	0.360	188.82	-1.70	0.80	 	 	 	 	 	 	 	 	 	 	 	 	 	 	 	 	 	 	1581488417	7.68	14.22
12/02/2020 06:20:18	120220	12022020	062018	188.86	13.078847	-57.078470	189.01	0.470	-1.520	0.930	188.86	-2.80	1.30	 	 	 	 	 	 	 	 	 	 	 	 	 	 	 	 	 	 	1581488418	8.14	15.08
12/02/2020 06:20:19	120220	12022020	062019	188.27	13.078808	-57.078480	188.41	0.610	-2.080	1.920	188.27	-3.40	2.30	 	 	 	 	 	 	 	 	 	 	 	 	 	 	 	 	 	 	1581488419	8.41	15.58
12/02/2020 06:20:20	120220	12022020	062020	187.34	13.078772	-57.078490	187.49	0.380	-1.730	2.990	187.34	-3.20	3.30	 	 	 	 	 	 	 	 	 	 	 	 	 	 	 	 	 	 	1581488420	8.34	15.45
12/02/2020 06:20:21	120220	12022020	062021	186.55	13.078737	-57.078502	186.73	-0.230	-0.520	3.680	186.55	-2.10	4.10	 	 	 	 	 	 	 	 	 	 	 	 	 	 	 	 	 	 	1581488421	7.91	14.65
12/02/2020 06:20:22	120220	12022020	062022	186.26	13.078705	-57.078515	186.47	-0.860	0.790	3.770	186.26	-0.70	4.20	 	 	 	 	 	 	 	 	 	 	 	 	 	 	 	 	 	 	1581488422	7.29	13.50
12/02/2020 06:20:23	120220	12022020	062023	186.37	13.078673	-57.078525	186.58	-1.040	1.290	3.480	186.37	-0.10	4.00	 	 	 	 	 	 	 	 	 	 	 	 	 	 	 	 	 	 	1581488423	7.21	13.35
12/02/2020 06:20:24	120220	12022020	062024	186.67	13.078638	-57.078537	186.89	-0.600	0.970	2.830	186.67	-0.30	3.40	 	 	 	 	 	 	 	 	 	 	 	 	 	 	 	 	 	 	1581488424	7.89	14.61
12/02/2020 06:20:25	120220	12022020	062025	187.19	13.078600	-57.078545	187.42	0.210	0.520	1.730	187.19	-0.80	2.40	 	 	 	 	 	 	 	 	 	 	 	 	 	 	 	 	 	 	1581488425	8.49	15.72
12/02/2020 06:20:26	120220	12022020	062026	187.99	13.078562	-57.078550	188.21	0.800	0.250	0.480	187.99	-1.10	1.10	 	 	 	 	 	 	 	 	 	 	 	 	 	 	 	 	 	 	1581488426	8.29	15.35
12/02/2020 06:20:27	120220	12022020	062027	188.74	13.078525	-57.078548	188.94	0.810	-0.120	-0.160	188.74	-1.40	0.30	 	 	 	 	 	 	 	 	 	 	 	 	 	 	 	 	 	 	1581488427	7.77	14.39
12/02/2020 06:20:28	120220	12022020	062028	189.07	13.078490	-57.078550	189.24	0.390	-0.890	0.320	189.07	-2.10	0.70	 	 	 	 	 	 	 	 	 	 	 	 	 	 	 	 	 	 	1581488428	7.47	13.83
12/02/2020 06:20:29	120220	12022020	062029	188.68	13.078455	-57.078557	188.82	0.000	-1.890	1.690	188.68	-3.10	1.90	 	 	 	 	 	 	 	 	 	 	 	 	 	 	 	 	 	 	1581488429	7.73	14.32
12/02/2020 06:20:30	120220	12022020	062030	187.58	13.078418	-57.078572	187.70	-0.080	-2.520	3.560	187.58	-3.80	3.70	 	 	 	 	 	 	 	 	 	 	 	 	 	 	 	 	 	 	1581488430	8.42	15.59
12/02/2020 06:20:31	120220	12022020	062031	186.19	13.078380	-57.078588	186.35	-0.040	-2.120	5.310	186.19	-3.60	5.50	 	 	 	 	 	 	 	 	 	 	 	 	 	 	 	 	 	 	1581488431	8.85	16.39
12/02/2020 06:20:32	120220	12022020	062032	185.29	13.078345	-57.078605	185.51	-0.210	-0.610	6.110	185.29	-2.20	6.50	 	 	 	 	 	 	 	 	 	 	 	 	 	 	 	 	 	 	1581488432	8.57	15.87
12/02/2020 06:20:33	120220	12022020	062033	185.43	13.078312	-57.078620	185.74	-0.670	1.300	5.580	185.43	-0.30	6.10	 	 	 	 	 	 	 	 	 	 	 	 	 	 	 	 	 	 	1581488433	7.70	14.26
12/02/2020 06:20:34	120220	12022020	062034	186.37	13.078282	-57.078630	186.68	-1.030	2.520	4.010	186.37	1.10	4.70	 	 	 	 	 	 	 	 	 	 	 	 	 	 	 	 	 	 	1581488434	6.81	12.61
12/02/2020 06:20:35	120220	12022020	062035	187.59	13.078250	-57.078633	187.87	-0.840	2.380	1.900	187.59	1.10	2.60	 	 	 	 	 	 	 	 	 	 	 	 	 	 	 	 	 	 	1581488435	6.82	12.63
12/02/2020 06:20:36	120220	12022020	062036	188.59	13.078215	-57.078633	188.82	-0.040	0.880	0.090	188.59	-0.20	0.80	 	 	 	 	 	 	 	 	 	 	 	 	 	 	 	 	 	 	1581488436	7.74	14.33
12/02/2020 06:20:37	120220	12022020	062037	188.83	13.078173	-57.078633	188.97	0.910	-1.210	-0.500	188.83	-2.30	-0.00	 	 	 	 	 	 	 	 	 	 	 	 	 	 	 	 	 	 	1581488437	8.82	16.33
12/02/2020 06:20:38	120220	12022020	062038	188.39	13.078130	-57.078635	188.30	1.440	-2.690	0.080	188.39	-3.90	0.40	 	 	 	 	 	 	 	 	 	 	 	 	 	 	 	 	 	 	1581488438	9.24	17.11
12/02/2020 06:20:39	120220	12022020	062039	187.46	13.078090	-57.078642	187.60	1.170	-2.430	1.120	187.46	-3.90	1.40	 	 	 	 	 	 	 	 	 	 	 	 	 	 	 	 	 	 	1581488439	8.80	16.30
12/02/2020 06:20:40	120220	12022020	062040	187.18	13.078057	-57.078650	187.39	0.240	-0.740	2.110	187.18	-2.40	2.50	 	 	 	 	 	 	 	 	 	 	 	 	 	 	 	 	 	 	1581488440	7.43	13.76
12/02/2020 06:20:41	120220	12022020	062041	187.41	13.078030	-57.078662	187.64	-0.770	0.810	2.710	187.41	-0.70	3.10	 	 	 	 	 	 	 	 	 	 	 	 	 	 	 	 	 	 	1581488441	6.24	11.56
12/02/2020 06:20:42	120220	12022020	062042	187.76	13.078002	-57.078675	187.98	-1.240	1.130	2.910	187.76	-0.20	3.30	 	 	 	 	 	 	 	 	 	 	 	 	 	 	 	 	 	 	1581488442	6.49	12.02
12/02/2020 06:20:43	120220	12022020	062043	187.87	13.077968	-57.078688	188.09	-0.990	0.380	2.990	187.87	-0.90	3.40	 	 	 	 	 	 	 	 	 	 	 	 	 	 	 	 	 	 	1581488443	7.75	14.35
12/02/2020 06:20:44	120220	12022020	062044	187.77	13.077930	-57.078702	188.00	-0.300	-0.460	3.010	187.77	-1.80	3.50	 	 	 	 	 	 	 	 	 	 	 	 	 	 	 	 	 	 	1581488444	8.85	16.39
12/02/2020 06:20:45	120220	12022020	062045	187.69	13.077890	-57.078715	187.92	0.340	-0.580	2.730	187.69	-2.00	3.20	 	 	 	 	 	 	 	 	 	 	 	 	 	 	 	 	 	 	1581488445	8.89	16.46
12/02/2020 06:20:46	120220	12022020	062046	187.77	13.077853	-57.078722	187.98	0.600	-0.140	2.100	187.77	-1.60	2.70	 	 	 	 	 	 	 	 	 	 	 	 	 	 	 	 	 	 	1581488446	8.00	14.82
12/02/2020 06:20:47	120220	12022020	062047	187.89	13.077820	-57.078727	188.08	0.550	0.170	1.440	187.89	-1.20	2.00	 	 	 	 	 	 	 	 	 	 	 	 	 	 	 	 	 	 	1581488447	7.22	13.37
12/02/2020 06:20:48	120220	12022020	062048	187.91	13.077787	-57.078728	188.04	0.490	-0.010	0.960	187.91	-1.30	1.50	 	 	 	 	 	 	 	 	 	 	 	 	 	 	 	 	 	 	1581488448	7.25	13.43
12/02/2020 06:20:49	120220	12022020	062049	187.70	13.077752	-57.078730	187.83	0.450	-0.630	0.880	187.70	-1.90	1.30	 	 	 	 	 	 	 	 	 	 	 	 	 	 	 	 	 	 	1581488449	7.76	14.37
12/02/2020 06:20:50	120220	12022020	062050	187.44	13.077713	-57.078733	187.50	0.200	-1.250	1.470	187.44	-2.50	1.80	 	 	 	 	 	 	 	 	 	 	 	 	 	 	 	 	 	 	1581488450	8.29	15.35
12/02/2020 06:20:51	120220	12022020	062051	186.92	13.077675	-57.078743	187.09	-0.330	-1.350	2.520	186.92	-2.70	2.80	 	 	 	 	 	 	 	 	 	 	 	 	 	 	 	 	 	 	1581488451	8.48	15.70
12/02/2020 06:20:52	120220	12022020	062052	186.53	13.077638	-57.078757	186.64	-0.890	-0.780	3.540	186.53	-2.20	3.90	 	 	 	 	 	 	 	 	 	 	 	 	 	 	 	 	 	 	1581488452	8.35	15.46
12/02/2020 06:20:53	120220	12022020	062053	186.01	13.077605	-57.078775	186.24	-1.100	0.180	4.300	186.01	-1.30	4.70	 	 	 	 	 	 	 	 	 	 	 	 	 	 	 	 	 	 	1581488453	8.05	14.91
12/02/2020 06:20:54	120220	12022020	062054	185.82	13.077573	-57.078792	186.04	-0.700	0.930	4.360	185.82	-0.50	4.90	 	 	 	 	 	 	 	 	 	 	 	 	 	 	 	 	 	 	1581488454	7.80	14.45
12/02/2020 06:20:55	120220	12022020	062055	185.95	13.077540	-57.078805	186.18	0.160	1.160	3.650	185.95	-0.20	4.20	 	 	 	 	 	 	 	 	 	 	 	 	 	 	 	 	 	 	1581488455	7.63	14.13
12/02/2020 06:20:56	120220	12022020	062056	186.35	13.077503	-57.078810	186.58	0.960	0.840	2.530	186.35	-0.40	3.20	 	 	 	 	 	 	 	 	 	 	 	 	 	 	 	 	 	 	1581488456	7.73	14.32
12/02/2020 06:20:57	120220	12022020	062057	186.92	13.077467	-57.078808	187.14	1.160	0.120	1.580	186.92	-1.10	2.10	 	 	 	 	 	 	 	 	 	 	 	 	 	 	 	 	 	 	1581488457	8.02	14.85
12/02/2020 06:20:58	120220	12022020	062058	187.31	13.077428	-57.078807	187.51	0.780	-0.760	1.370	187.31	-2.00	1.80	 	 	 	 	 	 	 	 	 	 	 	 	 	 	 	 	 	 	1581488458	8.06	14.93
12/02/2020 06:20:59	120220	12022020	062059	187.07	13.077393	-57.078812	187.21	0.340	-1.600	2.040	187.07	-2.90	2.40	 	 	 	 	 	 	 	 	 	 	 	 	 	 	 	 	 	 	1581488459	7.91	14.65
12/02/2020 06:21:00	120220	12022020	062100	186.34	13.077357	-57.078822	186.26	0.230	-2.160	3.150	186.34	-3.50	3.50	 	 	 	 	 	 	 	 	 	 	 	 	 	 	 	 	 	 	1581488460	8.10	15.00
12/02/2020 06:21:01	120220	12022020	062101	185.20	13.077318	-57.078835	185.41	0.170	-1.840	3.950	185.20	-3.30	4.40	1015.10	26.10	26.20	20.60	20.80	-1.0	71.0	72.0	412.0	25.7	273.00	10.80	79.00	11.40	15	9775.0	27.2	27.2	1581488461	8.46	15.67
12/02/2020 06:21:02	120220	12022020	062102	185.07	13.077283	-57.078847	185.41	-0.170	-0.550	3.870	185.07	-2.10	4.40	 	 	 	 	 	 	 	 	 	 	 	 	 	 	 	 	 	 	1581488462	8.05	14.91
12/02/2020 06:21:03	120220	12022020	062103	185.93	13.077252	-57.078855	186.23	-0.720	0.870	3.140	185.93	-0.60	3.70	 	 	 	 	 	 	 	 	 	 	 	 	 	 	 	 	 	 	1581488463	7.08	13.11
12/02/2020 06:21:04	120220	12022020	062104	186.66	13.077222	-57.078862	187.04	-0.930	1.370	2.320	186.66	0.00	2.90	 	 	 	 	 	 	 	 	 	 	 	 	 	 	 	 	 	 	1581488464	6.71	12.43
12/02/2020 06:21:05	120220	12022020	062105	187.30	13.077187	-57.078868	187.53	-0.520	0.790	1.710	187.30	-0.50	2.20	 	 	 	 	 	 	 	 	 	 	 	 	 	 	 	 	 	 	1581488465	7.45	13.80
12/02/2020 06:21:06	120220	12022020	062106	187.69	13.077148	-57.078873	187.92	0.090	-0.010	1.390	187.69	-1.30	1.90	 	 	 	 	 	 	 	 	 	 	 	 	 	 	 	 	 	 	1581488466	8.53	15.80
12/02/2020 06:21:07	120220	12022020	062107	187.91	13.077108	-57.078878	188.12	0.390	-0.510	1.390	187.91	-1.80	1.80	 	 	 	 	 	 	 	 	 	 	 	 	 	 	 	 	 	 	1581488467	8.62	15.96
12/02/2020 06:21:08	120220	12022020	062108	187.73	13.077070	-57.078883	187.91	0.330	-0.760	1.790	187.73	-2.10	2.20	 	 	 	 	 	 	 	 	 	 	 	 	 	 	 	 	 	 	1581488468	8.14	15.08
12/02/2020 06:21:09	120220	12022020	062109	187.40	13.077035	-57.078892	187.60	0.100	-0.710	2.280	187.40	-2.10	2.70	 	 	 	 	 	 	 	 	 	 	 	 	 	 	 	 	 	 	1581488469	7.92	14.67
12/02/2020 06:21:10	120220	12022020	062110	187.12	13.077000	-57.078902	187.30	-0.070	-0.370	2.590	187.12	-1.80	3.00	 	 	 	 	 	 	 	 	 	 	 	 	 	 	 	 	 	 	1581488470	7.77	14.39
12/02/2020 06:21:11	120220	12022020	062111	186.86	13.076967	-57.078913	187.04	0.010	-0.050	2.620	186.86	-1.40	3.10	 	 	 	 	 	 	 	 	 	 	 	 	 	 	 	 	 	 	1581488471	7.53	13.95
12/02/2020 06:21:12	120220	12022020	062112	186.77	13.076932	-57.078922	186.94	0.280	0.020	2.160	186.77	-1.30	2.70	 	 	 	 	 	 	 	 	 	 	 	 	 	 	 	 	 	 	1581488472	7.57	14.02
12/02/2020 06:21:13	120220	12022020	062113	186.91	13.076897	-57.078928	187.09	0.470	-0.060	1.510	186.91	-1.40	2.10	 	 	 	 	 	 	 	 	 	 	 	 	 	 	 	 	 	 	1581488473	7.81	14.46
12/02/2020 06:21:14	120220	12022020	062114	187.30	13.076860	-57.078932	187.50	0.370	-0.170	1.020	187.30	-1.50	1.50	 	 	 	 	 	 	 	 	 	 	 	 	 	 	 	 	 	 	1581488474	7.93	14.69
12/02/2020 06:21:15	120220	12022020	062115	187.64	13.076823	-57.078935	187.82	0.030	-0.360	1.010	187.64	-1.70	1.40	 	 	 	 	 	 	 	 	 	 	 	 	 	 	 	 	 	 	1581488475	7.83	14.50
12/02/2020 06:21:16	120220	12022020	062116	187.64	13.076788	-57.078942	187.75	-0.340	-0.560	1.650	187.64	-1.90	2.00	 	 	 	 	 	 	 	 	 	 	 	 	 	 	 	 	 	 	1581488476	7.83	14.50
12/02/2020 06:21:17	120220	12022020	062117	187.24	13.076752	-57.078955	187.38	-0.500	-0.560	2.550	187.24	-1.90	2.90	 	 	 	 	 	 	 	 	 	 	 	 	 	 	 	 	 	 	1581488477	8.03	14.87
12/02/2020 06:21:18	120220	12022020	062118	186.81	13.076718	-57.078968	186.98	-0.360	-0.270	3.120	186.81	-1.70	3.50	 	 	 	 	 	 	 	 	 	 	 	 	 	 	 	 	 	 	1581488478	8.07	14.95
12/02/2020 06:21:19	120220	12022020	062119	186.66	13.076683	-57.078982	186.82	-0.050	0.060	2.970	186.66	-1.30	3.50	 	 	 	 	 	 	 	 	 	 	 	 	 	 	 	 	 	 	1581488479	7.80	14.45
12/02/2020 06:21:20	120220	12022020	062120	186.72	13.076648	-57.078988	186.90	0.200	-0.010	2.490	186.72	-1.30	3.00	 	 	 	 	 	 	 	 	 	 	 	 	 	 	 	 	 	 	1581488480	7.58	14.04
12/02/2020 06:21:21	120220	12022020	062121	186.70	13.076612	-57.078992	186.85	0.280	-0.540	2.270	186.70	-1.80	2.70	 	 	 	 	 	 	 	 	 	 	 	 	 	 	 	 	 	 	1581488481	7.93	14.69
12/02/2020 06:21:22	120220	12022020	062122	186.33	13.076573	-57.078997	186.47	0.210	-1.000	2.490	186.33	-2.30	2.90	 	 	 	 	 	 	 	 	 	 	 	 	 	 	 	 	 	 	1581488482	8.46	15.67
12/02/2020 06:21:23	120220	12022020	062123	185.86	13.076533	-57.079005	186.01	0.090	-0.810	2.790	185.86	-2.20	3.20	 	 	 	 	 	 	 	 	 	 	 	 	 	 	 	 	 	 	1581488483	8.57	15.87
12/02/2020 06:21:24	120220	12022020	062124	185.46	13.076498	-57.079015	185.62	-0.030	-0.070	2.890	185.46	-1.50	3.40	 	 	 	 	 	 	 	 	 	 	 	 	 	 	 	 	 	 	1581488484	8.02	14.85
12/02/2020 06:21:25	120220	12022020	062125	185.40	13.076465	-57.079022	185.61	-0.120	0.690	2.560	185.40	-0.80	3.10	 	 	 	 	 	 	 	 	 	 	 	 	 	 	 	 	 	 	1581488485	7.42	13.74
12/02/2020 06:21:26	120220	12022020	062126	185.75	13.076430	-57.079027	186.10	-0.230	0.990	1.950	185.75	-0.40	2.50	 	 	 	 	 	 	 	 	 	 	 	 	 	 	 	 	 	 	1581488486	7.25	13.43
12/02/2020 06:21:27	120220	12022020	062127	186.39	13.076397	-57.079030	186.59	-0.290	0.480	1.660	186.39	-0.80	2.10	 	 	 	 	 	 	 	 	 	 	 	 	 	 	 	 	 	 	1581488487	7.41	13.72
12/02/2020 06:21:28	120220	12022020	062128	186.48	13.076360	-57.079037	186.61	-0.150	-0.580	2.000	186.48	-1.80	2.40	 	 	 	 	 	 	 	 	 	 	 	 	 	 	 	 	 	 	1581488488	8.05	14.91
12/02/2020 06:21:29	120220	12022020	062129	186.12	13.076320	-57.079047	186.28	0.090	-1.280	2.660	186.12	-2.60	3.00	 	 	 	 	 	 	 	 	 	 	 	 	 	 	 	 	 	 	1581488489	8.70	16.11
12/02/2020 06:21:30	120220	12022020	062130	185.79	13.076282	-57.079057	185.97	0.190	-1.030	3.100	185.79	-2.50	3.50	 	 	 	 	 	 	 	 	 	 	 	 	 	 	 	 	 	 	1581488490	8.53	15.80
12/02/2020 06:21:31	120220	12022020	062131	185.65	13.076248	-57.079067	185.84	0.110	-0.330	2.930	185.65	-1.80	3.50	 	 	 	 	 	 	 	 	 	 	 	 	 	 	 	 	 	 	1581488491	7.61	14.09
12/02/2020 06:21:32	120220	12022020	062132	185.70	13.076215	-57.079073	185.89	0.020	0.060	2.370	185.70	-1.30	2.90	 	 	 	 	 	 	 	 	 	 	 	 	 	 	 	 	 	 	1581488492	7.10	13.15
12/02/2020 06:21:33	120220	12022020	062133	185.68	13.076182	-57.079077	185.85	0.100	-0.210	1.940	185.68	-1.50	2.50	 	 	 	 	 	 	 	 	 	 	 	 	 	 	 	 	 	 	1581488493	7.40	13.70
12/02/2020 06:21:34	120220	12022020	062134	185.51	13.076143	-57.079080	185.68	0.310	-0.800	1.720	185.51	-2.10	2.20	 	 	 	 	 	 	 	 	 	 	 	 	 	 	 	 	 	 	1581488494	8.22	15.22
12/02/2020 06:21:35	120220	12022020	062135	185.49	13.076103	-57.079083	185.69	0.320	-0.790	1.590	185.49	-2.20	2.10	 	 	 	 	 	 	 	 	 	 	 	 	 	 	 	 	 	 	1581488495	8.76	16.22
12/02/2020 06:21:36	120220	12022020	062136	185.85	13.076065	-57.079088	186.06	-0.060	0.070	1.580	185.85	-1.40	2.10	 	 	 	 	 	 	 	 	 	 	 	 	 	 	 	 	 	 	1581488496	8.21	15.20
12/02/2020 06:21:37	120220	12022020	062137	186.41	13.076032	-57.079093	186.62	-0.580	0.980	1.650	186.41	-0.50	2.10	 	 	 	 	 	 	 	 	 	 	 	 	 	 	 	 	 	 	1581488497	7.18	13.30
12/02/2020 06:21:38	120220	12022020	062138	186.81	13.076000	-57.079102	187.09	-0.770	1.050	1.830	186.81	-0.30	2.30	 	 	 	 	 	 	 	 	 	 	 	 	 	 	 	 	 	 	1581488498	6.92	12.82
12/02/2020 06:21:39	120220	12022020	062139	187.05	13.075967	-57.079110	187.25	-0.470	0.200	2.300	187.05	-1.00	2.70	 	 	 	 	 	 	 	 	 	 	 	 	 	 	 	 	 	 	1581488499	7.61	14.09
12/02/2020 06:21:40	120220	12022020	062140	186.88	13.075928	-57.079122	186.98	0.120	-1.020	2.940	186.88	-2.20	3.30	 	 	 	 	 	 	 	 	 	 	 	 	 	 	 	 	 	 	1581488500	8.54	15.82
12/02/2020 06:21:41	120220	12022020	062141	186.34	13.075887	-57.079132	186.54	0.620	-1.660	3.210	186.34	-3.00	3.70	 	 	 	 	 	 	 	 	 	 	 	 	 	 	 	 	 	 	1581488501	9.05	16.76
12/02/2020 06:21:42	120220	12022020	062142	186.22	13.075848	-57.079140	186.48	0.610	-1.140	2.910	186.22	-2.60	3.40	 	 	 	 	 	 	 	 	 	 	 	 	 	 	 	 	 	 	1581488502	8.64	16.00
12/02/2020 06:21:43	120220	12022020	062143	186.47	13.075813	-57.079145	186.70	0.070	-0.090	2.460	186.47	-1.60	3.00	 	 	 	 	 	 	 	 	 	 	 	 	 	 	 	 	 	 	1581488503	7.42	13.74
12/02/2020 06:21:44	120220	12022020	062144	186.54	13.075783	-57.079148	186.71	-0.460	0.410	2.070	186.54	-1.00	2.60	 	 	 	 	 	 	 	 	 	 	 	 	 	 	 	 	 	 	1581488504	6.74	12.48
12/02/2020 06:21:45	120220	12022020	062145	186.22	13.075748	-57.079155	186.37	-0.450	-0.010	1.890	186.22	-1.30	2.40	 	 	 	 	 	 	 	 	 	 	 	 	 	 	 	 	 	 	1581488505	7.33	13.58
12/02/2020 06:21:46	120220	12022020	062146	185.98	13.075710	-57.079162	186.16	-0.090	-0.450	1.770	185.98	-1.80	2.30	 	 	 	 	 	 	 	 	 	 	 	 	 	 	 	 	 	 	1581488506	8.49	15.72
12/02/2020 06:21:47	120220	12022020	062147	186.41	13.075670	-57.079168	186.64	0.080	-0.090	1.500	186.41	-1.50	2.00	 	 	 	 	 	 	 	 	 	 	 	 	 	 	 	 	 	 	1581488507	8.69	16.09
12/02/2020 06:21:48	120220	12022020	062148	187.25	13.075635	-57.079175	187.47	-0.140	0.590	1.240	187.25	-0.80	1.70	 	 	 	 	 	 	 	 	 	 	 	 	 	 	 	 	 	 	1581488508	7.66	14.19
12/02/2020 06:21:49	120220	12022020	062149	187.85	13.075603	-57.079180	188.03	-0.370	0.590	1.330	187.85	-0.70	1.80	 	 	 	 	 	 	 	 	 	 	 	 	 	 	 	 	 	 	1581488509	6.99	12.95
12/02/2020 06:21:50	120220	12022020	062150	187.86	13.075568	-57.079188	188.01	-0.150	-0.330	1.810	187.86	-1.50	2.20	 	 	 	 	 	 	 	 	 	 	 	 	 	 	 	 	 	 	1581488510	7.55	13.98
12/02/2020 06:21:51	120220	12022020	062151	187.42	13.075530	-57.079198	187.56	0.340	-1.180	2.520	187.42	-2.40	2.90	 	 	 	 	 	 	 	 	 	 	 	 	 	 	 	 	 	 	1581488511	8.62	15.96
12/02/2020 06:21:52	120220	12022020	062152	187.11	13.075490	-57.079210	187.26	0.580	-1.040	2.830	187.11	-2.40	3.30	 	 	 	 	 	 	 	 	 	 	 	 	 	 	 	 	 	 	1581488512	8.75	16.21
12/02/2020 06:21:53	120220	12022020	062153	187.03	13.075455	-57.079217	187.21	0.340	-0.290	2.640	187.03	-1.70	3.10	 	 	 	 	 	 	 	 	 	 	 	 	 	 	 	 	 	 	1581488513	7.72	14.30
12/02/2020 06:21:54	120220	12022020	062154	186.85	13.075423	-57.079222	186.99	-0.060	0.020	2.560	186.85	-1.30	3.00	 	 	 	 	 	 	 	 	 	 	 	 	 	 	 	 	 	 	1581488514	6.98	12.93
12/02/2020 06:21:55	120220	12022020	062155	186.36	13.075390	-57.079228	186.50	-0.210	-0.390	2.750	186.36	-1.70	3.20	 	 	 	 	 	 	 	 	 	 	 	 	 	 	 	 	 	 	1581488515	7.51	13.91
12/02/2020 06:21:56	120220	12022020	062156	185.90	13.075350	-57.079238	186.05	-0.120	-0.610	2.920	185.90	-2.00	3.40	 	 	 	 	 	 	 	 	 	 	 	 	 	 	 	 	 	 	1581488516	8.55	15.83
12/02/2020 06:21:57	120220	12022020	062157	185.80	13.075312	-57.079248	185.99	-0.080	-0.170	2.820	185.80	-1.60	3.30	 	 	 	 	 	 	 	 	 	 	 	 	 	 	 	 	 	 	1581488517	8.53	15.80
12/02/2020 06:21:58	120220	12022020	062158	186.13	13.075277	-57.079257	186.34	-0.210	0.510	2.440	186.13	-0.90	3.00	 	 	 	 	 	 	 	 	 	 	 	 	 	 	 	 	 	 	1581488518	7.74	14.33
12/02/2020 06:21:59	120220	12022020	062159	186.71	13.075243	-57.079263	186.93	-0.360	0.770	2.000	186.71	-0.60	2.50	 	 	 	 	 	 	 	 	 	 	 	 	 	 	 	 	 	 	1581488519	7.23	13.39
12/02/2020 06:22:00	120220	12022020	062200	187.26	13.075210	-57.079270	187.47	-0.310	0.310	1.620	187.26	-0.90	2.10	 	 	 	 	 	 	 	 	 	 	 	 	 	 	 	 	 	 	1581488520	7.41	13.72
12/02/2020 06:22:01	120220	12022020	062201	187.41	13.075173	-57.079275	187.59	0.010	-0.700	1.620	187.41	-1.90	2.10	1015.10	26.30	26.30	20.50	20.60	-1.0	70.0	70.0	407.0	25.7	275.00	11.10	81.00	11.50	15	10194.0	27.2	27.2	1581488521	7.99	14.80
12/02/2020 06:22:02	120220	12022020	062202	187.03	13.075133	-57.079283	187.18	0.440	-1.650	2.120	187.03	-2.90	2.50	 	 	 	 	 	 	 	 	 	 	 	 	 	 	 	 	 	 	1581488522	8.62	15.96
12/02/2020 06:22:03	120220	12022020	062203	186.46	13.075093	-57.079293	186.63	0.670	-1.640	2.540	186.46	-3.00	3.00	 	 	 	 	 	 	 	 	 	 	 	 	 	 	 	 	 	 	1581488523	8.82	16.33
12/02/2020 06:22:04	120220	12022020	062204	186.24	13.075057	-57.079300	186.44	0.470	-0.440	2.600	186.24	-2.00	3.10	 	 	 	 	 	 	 	 	 	 	 	 	 	 	 	 	 	 	1581488524	8.13	15.06
12/02/2020 06:22:05	120220	12022020	062205	186.41	13.075025	-57.079307	186.62	-0.060	0.910	2.430	186.41	-0.60	2.90	 	 	 	 	 	 	 	 	 	 	 	 	 	 	 	 	 	 	1581488525	6.94	12.85
12/02/2020 06:22:06	120220	12022020	062206	186.65	13.074995	-57.079310	186.87	-0.580	1.250	2.380	186.65	-0.10	2.90	 	 	 	 	 	 	 	 	 	 	 	 	 	 	 	 	 	 	1581488526	6.63	12.28
12/02/2020 06:22:07	120220	12022020	062207	186.76	13.074960	-57.079317	186.96	-0.780	0.410	2.670	186.76	-0.80	3.10	 	 	 	 	 	 	 	 	 	 	 	 	 	 	 	 	 	 	1581488527	7.50	13.89
12/02/2020 06:22:08	120220	12022020	062208	186.52	13.074922	-57.079327	186.69	-0.530	-0.950	3.300	186.52	-2.10	3.70	 	 	 	 	 	 	 	 	 	 	 	 	 	 	 	 	 	 	1581488528	8.69	16.09
12/02/2020 06:22:09	120220	12022020	062209	185.91	13.074880	-57.079342	186.07	0.020	-1.750	3.840	185.91	-3.00	4.30	 	 	 	 	 	 	 	 	 	 	 	 	 	 	 	 	 	 	1581488529	9.43	17.46
12/02/2020 06:22:10	120220	12022020	062210	185.50	13.074840	-57.079355	185.68	0.490	-1.280	3.700	185.50	-2.80	4.20	 	 	 	 	 	 	 	 	 	 	 	 	 	 	 	 	 	 	1581488530	9.11	16.87
12/02/2020 06:22:11	120220	12022020	062211	185.63	13.074803	-57.079362	185.83	0.560	0.050	2.840	185.63	-1.50	3.50	 	 	 	 	 	 	 	 	 	 	 	 	 	 	 	 	 	 	1581488531	7.77	14.39
12/02/2020 06:22:12	120220	12022020	062212	186.10	13.074773	-57.079365	186.30	0.270	1.040	1.730	186.10	-0.40	2.40	 	 	 	 	 	 	 	 	 	 	 	 	 	 	 	 	 	 	1581488532	6.68	12.37
12/02/2020 06:22:13	120220	12022020	062213	186.51	13.074742	-57.079365	186.68	-0.050	0.920	1.010	186.51	-0.40	1.60	 	 	 	 	 	 	 	 	 	 	 	 	 	 	 	 	 	 	1581488533	6.85	12.69
12/02/2020 06:22:14	120220	12022020	062214	186.68	13.074705	-57.079365	186.86	-0.270	0.070	1.040	186.68	-1.20	1.50	 	 	 	 	 	 	 	 	 	 	 	 	 	 	 	 	 	 	1581488534	7.86	14.56
12/02/2020 06:22:15	120220	12022020	062215	186.69	13.074665	-57.079372	186.90	-0.460	-0.670	1.860	186.69	-1.90	2.20	 	 	 	 	 	 	 	 	 	 	 	 	 	 	 	 	 	 	1581488535	8.57	15.87
12/02/2020 06:22:16	120220	12022020	062216	186.50	13.074628	-57.079385	186.71	-0.510	-0.920	2.890	186.50	-2.30	3.30	 	 	 	 	 	 	 	 	 	 	 	 	 	 	 	 	 	 	1581488536	8.56	15.85
12/02/2020 06:22:17	120220	12022020	062217	186.24	13.074593	-57.079402	186.43	-0.180	-0.810	3.280	186.24	-2.20	3.70	 	 	 	 	 	 	 	 	 	 	 	 	 	 	 	 	 	 	1581488537	8.25	15.28
12/02/2020 06:22:18	120220	12022020	062218	186.07	13.074558	-57.079413	186.23	0.540	-0.700	2.840	186.07	-2.10	3.40	 	 	 	 	 	 	 	 	 	 	 	 	 	 	 	 	 	 	1581488538	7.81	14.46
12/02/2020 06:22:19	120220	12022020	062219	185.97	13.074522	-57.079418	186.16	1.190	-0.690	1.920	185.97	-2.00	2.50	 	 	 	 	 	 	 	 	 	 	 	 	 	 	 	 	 	 	1581488539	7.82	14.48
12/02/2020 06:22:20	120220	12022020	062220	186.08	13.074483	-57.079417	186.27	1.090	-0.550	1.170	186.08	-1.90	1.70	 	 	 	 	 	 	 	 	 	 	 	 	 	 	 	 	 	 	1581488540	8.20	15.19
12/02/2020 06:22:21	120220	12022020	062221	186.38	13.074447	-57.079413	186.59	0.080	-0.170	1.150	186.38	-1.60	1.60	 	 	 	 	 	 	 	 	 	 	 	 	 	 	 	 	 	 	1581488541	8.19	15.17
12/02/2020 06:22:22	120220	12022020	062222	186.60	13.074410	-57.079417	186.81	-1.280	0.310	2.050	186.60	-1.10	2.40	 	 	 	 	 	 	 	 	 	 	 	 	 	 	 	 	 	 	1581488542	7.70	14.26
12/02/2020 06:22:23	120220	12022020	062223	186.55	13.074377	-57.079432	186.75	-2.050	0.530	3.330	186.55	-0.80	3.60	 	 	 	 	 	 	 	 	 	 	 	 	 	 	 	 	 	 	1581488543	7.79	14.43
12/02/2020 06:22:24	120220	12022020	062224	186.31	13.074343	-57.079453	186.52	-1.590	0.280	4.190	186.31	-1.00	4.60	 	 	 	 	 	 	 	 	 	 	 	 	 	 	 	 	 	 	1581488544	8.54	15.82
12/02/2020 06:22:25	120220	12022020	062225	185.99	13.074308	-57.079475	186.22	-0.090	-0.200	4.130	185.99	-1.50	4.70	 	 	 	 	 	 	 	 	 	 	 	 	 	 	 	 	 	 	1581488545	8.91	16.50
12/02/2020 06:22:26	120220	12022020	062226	185.79	13.074270	-57.079487	186.00	1.340	-0.450	3.270	185.79	-1.80	3.90	 	 	 	 	 	 	 	 	 	 	 	 	 	 	 	 	 	 	1581488546	8.63	15.98
12/02/2020 06:22:27	120220	12022020	062227	185.86	13.074232	-57.079487	186.07	1.720	-0.350	2.010	185.86	-1.70	2.70	 	 	 	 	 	 	 	 	 	 	 	 	 	 	 	 	 	 	1581488547	8.25	15.28
12/02/2020 06:22:28	120220	12022020	062228	186.13	13.074195	-57.079482	186.43	1.020	-0.060	0.900	186.13	-1.50	1.50	 	 	 	 	 	 	 	 	 	 	 	 	 	 	 	 	 	 	1581488548	7.87	14.58
12/02/2020 06:22:29	120220	12022020	062229	186.65	13.074160	-57.079478	186.85	0.050	0.020	0.460	186.65	-1.30	1.00	 	 	 	 	 	 	 	 	 	 	 	 	 	 	 	 	 	 	1581488549	7.34	13.59
12/02/2020 06:22:30	120220	12022020	062230	186.88	13.074127	-57.079482	187.07	-0.390	-0.410	0.690	186.88	-1.70	1.10	 	 	 	 	 	 	 	 	 	 	 	 	 	 	 	 	 	 	1581488550	7.30	13.52
12/02/2020 06:22:31	120220	12022020	062231	186.81	13.074090	-57.079490	187.00	-0.260	-1.010	1.370	186.81	-2.30	1.70	 	 	 	 	 	 	 	 	 	 	 	 	 	 	 	 	 	 	1581488551	7.96	14.74
12/02/2020 06:22:32	120220	12022020	062232	186.54	13.074053	-57.079502	186.63	-0.030	-1.280	2.220	186.54	-2.60	2.60	 	 	 	 	 	 	 	 	 	 	 	 	 	 	 	 	 	 	1581488552	8.46	15.67
12/02/2020 06:22:33	120220	12022020	062233	185.96	13.074017	-57.079513	186.13	-0.070	-1.020	2.950	185.96	-2.40	3.30	 	 	 	 	 	 	 	 	 	 	 	 	 	 	 	 	 	 	1581488553	8.39	15.54
12/02/2020 06:22:34	120220	12022020	062234	185.62	13.073980	-57.079527	185.80	-0.330	-0.330	3.330	185.62	-1.80	3.80	 	 	 	 	 	 	 	 	 	 	 	 	 	 	 	 	 	 	1581488554	8.11	15.02
12/02/2020 06:22:35	120220	12022020	062235	185.52	13.073945	-57.079537	185.71	-0.470	0.390	3.200	185.52	-1.00	3.70	 	 	 	 	 	 	 	 	 	 	 	 	 	 	 	 	 	 	1581488555	7.76	14.37
12/02/2020 06:22:36	120220	12022020	062236	185.53	13.073912	-57.079545	185.74	-0.300	0.690	2.690	185.53	-0.70	3.20	 	 	 	 	 	 	 	 	 	 	 	 	 	 	 	 	 	 	1581488556	7.63	14.13
12/02/2020 06:22:37	120220	12022020	062237	185.73	13.073873	-57.079548	185.96	-0.100	0.620	2.070	185.73	-0.70	2.60	 	 	 	 	 	 	 	 	 	 	 	 	 	 	 	 	 	 	1581488557	7.96	14.74
12/02/2020 06:22:38	120220	12022020	062238	186.12	13.073837	-57.079552	186.34	-0.050	0.420	1.520	186.12	-0.90	2.10	 	 	 	 	 	 	 	 	 	 	 	 	 	 	 	 	 	 	1581488558	8.14	15.08
12/02/2020 06:22:39	120220	12022020	062239	186.38	13.073800	-57.079557	186.57	0.040	-0.020	1.220	186.38	-1.30	1.70	 	 	 	 	 	 	 	 	 	 	 	 	 	 	 	 	 	 	1581488559	7.94	14.70
12/02/2020 06:22:40	120220	12022020	062240	186.36	13.073763	-57.079563	186.53	0.360	-0.640	1.160	186.36	-1.90	1.60	 	 	 	 	 	 	 	 	 	 	 	 	 	 	 	 	 	 	1581488560	8.00	14.82
12/02/2020 06:22:41	120220	12022020	062241	186.33	13.073725	-57.079568	186.52	0.660	-0.950	1.220	186.33	-2.30	1.70	 	 	 	 	 	 	 	 	 	 	 	 	 	 	 	 	 	 	1581488561	8.24	15.26
12/02/2020 06:22:42	120220	12022020	062242	186.46	13.073688	-57.079573	186.69	0.600	-0.750	1.350	186.46	-2.10	1.80	 	 	 	 	 	 	 	 	 	 	 	 	 	 	 	 	 	 	1581488562	8.00	14.82
12/02/2020 06:22:43	120220	12022020	062243	186.53	13.073653	-57.079578	186.69	0.250	-0.550	1.680	186.53	-1.90	2.10	 	 	 	 	 	 	 	 	 	 	 	 	 	 	 	 	 	 	1581488563	7.47	13.83
12/02/2020 06:22:44	120220	12022020	062244	186.08	13.073618	-57.079585	186.24	-0.050	-0.730	2.490	186.08	-2.00	2.80	 	 	 	 	 	 	 	 	 	 	 	 	 	 	 	 	 	 	1581488564	7.58	14.04
12/02/2020 06:22:45	120220	12022020	062245	185.40	13.073582	-57.079597	185.57	-0.200	-0.850	3.480	185.40	-2.20	3.80	 	 	 	 	 	 	 	 	 	 	 	 	 	 	 	 	 	 	1581488565	8.35	15.46
12/02/2020 06:22:46	120220	12022020	062246	184.98	13.073543	-57.079608	185.22	-0.350	-0.280	4.030	184.98	-1.80	4.40	 	 	 	 	 	 	 	 	 	 	 	 	 	 	 	 	 	 	1581488566	8.69	16.09
12/02/2020 06:22:47	120220	12022020	062247	185.04	13.073508	-57.079622	185.29	-0.550	0.730	3.920	185.04	-0.80	4.40	 	 	 	 	 	 	 	 	 	 	 	 	 	 	 	 	 	 	1581488567	8.05	14.91
12/02/2020 06:22:48	120220	12022020	062248	185.35	13.073475	-57.079632	185.62	-0.560	1.340	3.240	185.35	-0.10	3.80	 	 	 	 	 	 	 	 	 	 	 	 	 	 	 	 	 	 	1581488568	7.31	13.54
12/02/2020 06:22:49	120220	12022020	062249	185.90	13.073442	-57.079638	186.15	-0.190	1.050	2.030	185.90	-0.20	2.70	 	 	 	 	 	 	 	 	 	 	 	 	 	 	 	 	 	 	1581488569	7.33	13.58
12/02/2020 06:22:50	120220	12022020	062250	186.51	13.073405	-57.079640	186.72	0.460	-0.080	0.850	186.51	-1.30	1.50	 	 	 	 	 	 	 	 	 	 	 	 	 	 	 	 	 	 	1581488570	7.98	14.78
12/02/2020 06:22:51	120220	12022020	062251	186.96	13.073365	-57.079640	187.16	0.950	-1.400	0.230	186.96	-2.60	0.80	 	 	 	 	 	 	 	 	 	 	 	 	 	 	 	 	 	 	1581488571	8.71	16.13
12/02/2020 06:22:52	120220	12022020	062252	187.16	13.073323	-57.079640	187.35	0.920	-2.020	0.420	187.16	-3.40	0.80	 	 	 	 	 	 	 	 	 	 	 	 	 	 	 	 	 	 	1581488572	8.89	16.46
12/02/2020 06:22:53	120220	12022020	062253	186.97	13.073285	-57.079645	187.17	0.360	-1.660	1.450	186.97	-3.10	1.80	 	 	 	 	 	 	 	 	 	 	 	 	 	 	 	 	 	 	1581488573	8.23	15.24
12/02/2020 06:22:54	120220	12022020	062254	186.35	13.073252	-57.079655	186.52	-0.360	-0.820	2.870	186.35	-2.30	3.20	 	 	 	 	 	 	 	 	 	 	 	 	 	 	 	 	 	 	1581488574	7.49	13.87
12/02/2020 06:22:55	120220	12022020	062255	185.54	13.073218	-57.079667	185.72	-0.840	-0.030	4.100	185.54	-1.50	4.40	 	 	 	 	 	 	 	 	 	 	 	 	 	 	 	 	 	 	1581488575	7.50	13.89
12/02/2020 06:22:56	120220	12022020	062256	185.02	13.073185	-57.079682	185.25	-0.960	0.500	4.720	185.02	-0.90	5.10	 	 	 	 	 	 	 	 	 	 	 	 	 	 	 	 	 	 	1581488576	7.99	14.80
12/02/2020 06:22:57	120220	12022020	062257	185.12	13.073148	-57.079697	185.41	-0.740	0.930	4.470	185.12	-0.50	5.00	 	 	 	 	 	 	 	 	 	 	 	 	 	 	 	 	 	 	1581488577	8.36	15.48
12/02/2020 06:22:58	120220	12022020	062258	185.74	13.073112	-57.079707	186.04	-0.310	1.190	3.380	185.74	-0.20	4.00	 	 	 	 	 	 	 	 	 	 	 	 	 	 	 	 	 	 	1581488578	8.10	15.00
12/02/2020 06:22:59	120220	12022020	062259	186.51	13.073077	-57.079713	186.76	0.220	1.010	1.830	186.51	-0.30	2.50	 	 	 	 	 	 	 	 	 	 	 	 	 	 	 	 	 	 	1581488579	7.73	14.32
12/02/2020 06:23:00	120220	12022020	062300	187.15	13.073040	-57.079713	187.36	0.720	0.370	0.390	187.15	-0.90	1.00	 	 	 	 	 	 	 	 	 	 	 	 	 	 	 	 	 	 	1581488580	7.80	14.45
12/02/2020 06:23:01	120220	12022020	062301	187.58	13.073003	-57.079712	187.75	0.970	-0.510	-0.360	187.58	-1.80	0.20	1015.20	26.20	26.30	20.30	20.40	-1.0	69.0	70.0	403.0	25.7	269.00	11.10	75.00	12.00	15	8965.0	27.2	27.2	1581488581	8.00	14.82
12/02/2020 06:23:02	120220	12022020	062302	187.63	13.072967	-57.079712	187.76	0.820	-1.420	-0.070	187.63	-2.70	0.30	 	 	 	 	 	 	 	 	 	 	 	 	 	 	 	 	 	 	1581488582	7.97	14.76
12/02/2020 06:23:03	120220	12022020	062303	187.03	13.072930	-57.079717	187.14	0.400	-2.160	1.150	187.03	-3.50	1.40	 	 	 	 	 	 	 	 	 	 	 	 	 	 	 	 	 	 	1581488583	7.91	14.65
12/02/2020 06:23:04	120220	12022020	062304	185.91	13.072893	-57.079727	186.04	-0.030	-2.360	2.740	185.91	-3.70	3.00	 	 	 	 	 	 	 	 	 	 	 	 	 	 	 	 	 	 	1581488584	8.22	15.22
12/02/2020 06:23:05	120220	12022020	062305	184.87	13.072857	-57.079743	185.05	-0.350	-1.530	4.000	184.87	-3.10	4.30	 	 	 	 	 	 	 	 	 	 	 	 	 	 	 	 	 	 	1581488585	8.51	15.76
12/02/2020 06:23:06	120220	12022020	062306	184.51	13.072822	-57.079758	184.74	-0.590	0.220	4.290	184.51	-1.40	4.80	 	 	 	 	 	 	 	 	 	 	 	 	 	 	 	 	 	 	1581488586	8.12	15.04
12/02/2020 06:23:07	120220	12022020	062307	184.85	13.072790	-57.079770	185.12	-0.770	1.710	3.630	184.85	0.20	4.20	 	 	 	 	 	 	 	 	 	 	 	 	 	 	 	 	 	 	1581488587	7.08	13.11
12/02/2020 06:23:08	120220	12022020	062308	185.35	13.072760	-57.079775	185.76	-0.790	1.950	2.620	185.35	0.60	3.20	 	 	 	 	 	 	 	 	 	 	 	 	 	 	 	 	 	 	1581488588	6.89	12.76
12/02/2020 06:23:09	120220	12022020	062309	186.21	13.072723	-57.079780	186.46	-0.590	1.190	1.620	186.21	-0.10	2.20	 	 	 	 	 	 	 	 	 	 	 	 	 	 	 	 	 	 	1581488589	7.78	14.41
12/02/2020 06:23:10	120220	12022020	062310	186.66	13.072685	-57.079783	186.87	-0.120	0.140	1.080	186.66	-1.10	1.60	 	 	 	 	 	 	 	 	 	 	 	 	 	 	 	 	 	 	1581488590	8.37	15.50
12/02/2020 06:23:11	120220	12022020	062311	186.55	13.072647	-57.079790	186.72	0.630	-0.890	1.060	186.55	-2.20	1.50	 	 	 	 	 	 	 	 	 	 	 	 	 	 	 	 	 	 	1581488591	8.31	15.39
12/02/2020 06:23:12	120220	12022020	062312	186.05	13.072608	-57.079795	186.20	1.320	-1.540	1.230	186.05	-2.90	1.70	 	 	 	 	 	 	 	 	 	 	 	 	 	 	 	 	 	 	1581488592	8.21	15.20
12/02/2020 06:23:13	120220	12022020	062313	185.59	13.072572	-57.079798	185.75	1.390	-1.390	1.590	185.59	-2.90	2.00	 	 	 	 	 	 	 	 	 	 	 	 	 	 	 	 	 	 	1581488593	7.97	14.76
12/02/2020 06:23:14	120220	12022020	062314	185.40	13.072537	-57.079802	185.60	0.660	-0.680	2.030	185.40	-2.20	2.50	 	 	 	 	 	 	 	 	 	 	 	 	 	 	 	 	 	 	1581488594	7.38	13.67
12/02/2020 06:23:15	120220	12022020	062315	185.38	13.072505	-57.079807	185.59	-0.380	-0.090	2.430	185.38	-1.50	2.90	 	 	 	 	 	 	 	 	 	 	 	 	 	 	 	 	 	 	1581488595	6.93	12.83
12/02/2020 06:23:16	120220	12022020	062316	185.42	13.072473	-57.079817	185.63	-1.020	0.010	2.680	185.42	-1.40	3.10	 	 	 	 	 	 	 	 	 	 	 	 	 	 	 	 	 	 	1581488596	7.31	13.54
12/02/2020 06:23:17	120220	12022020	062317	185.49	13.072438	-57.079830	185.69	-0.950	-0.190	2.660	185.49	-1.60	3.10	 	 	 	 	 	 	 	 	 	 	 	 	 	 	 	 	 	 	1581488597	8.04	14.89
12/02/2020 06:23:18	120220	12022020	062318	185.59	13.072400	-57.079840	185.80	-0.460	-0.320	2.360	185.59	-1.70	2.90	 	 	 	 	 	 	 	 	 	 	 	 	 	 	 	 	 	 	1581488598	8.40	15.56
12/02/2020 06:23:19	120220	12022020	062319	185.73	13.072362	-57.079848	185.93	-0.060	-0.190	1.910	185.73	-1.60	2.40	 	 	 	 	 	 	 	 	 	 	 	 	 	 	 	 	 	 	1581488599	8.24	15.26
12/02/2020 06:23:20	120220	12022020	062320	185.90	13.072327	-57.079852	186.14	-0.050	0.160	1.450	185.90	-1.30	2.00	 	 	 	 	 	 	 	 	 	 	 	 	 	 	 	 	 	 	1581488600	7.88	14.59
12/02/2020 06:23:21	120220	12022020	062321	186.13	13.072292	-57.079855	186.30	-0.220	0.380	1.370	186.13	-1.00	1.80	 	 	 	 	 	 	 	 	 	 	 	 	 	 	 	 	 	 	1581488601	7.51	13.91
12/02/2020 06:23:22	120220	12022020	062322	186.18	13.072257	-57.079862	186.38	-0.180	0.290	1.580	186.18	-1.10	2.00	 	 	 	 	 	 	 	 	 	 	 	 	 	 	 	 	 	 	1581488602	7.51	13.91
12/02/2020 06:23:23	120220	12022020	062323	186.30	13.072222	-57.079870	186.48	0.210	0.160	1.720	186.30	-1.20	2.20	 	 	 	 	 	 	 	 	 	 	 	 	 	 	 	 	 	 	1581488603	7.79	14.43
12/02/2020 06:23:24	120220	12022020	062324	186.27	13.072187	-57.079878	186.45	0.820	-0.030	1.790	186.27	-1.40	2.30	 	 	 	 	 	 	 	 	 	 	 	 	 	 	 	 	 	 	1581488604	7.73	14.32
12/02/2020 06:23:25	120220	12022020	062325	186.13	13.072152	-57.079883	186.29	1.220	-0.420	1.750	186.13	-1.80	2.20	 	 	 	 	 	 	 	 	 	 	 	 	 	 	 	 	 	 	1581488605	7.71	14.28
12/02/2020 06:23:26	120220	12022020	062326	185.93	13.072115	-57.079885	186.10	1.020	-0.800	1.890	185.93	-2.20	2.30	 	 	 	 	 	 	 	 	 	 	 	 	 	 	 	 	 	 	1581488606	7.92	14.67
12/02/2020 06:23:27	120220	12022020	062327	185.77	13.072078	-57.079890	185.96	0.300	-0.900	2.330	185.77	-2.30	2.70	 	 	 	 	 	 	 	 	 	 	 	 	 	 	 	 	 	 	1581488607	7.93	14.69
12/02/2020 06:23:28	120220	12022020	062328	185.66	13.072042	-57.079897	185.86	-0.510	-0.680	2.830	185.66	-2.10	3.20	 	 	 	 	 	 	 	 	 	 	 	 	 	 	 	 	 	 	1581488608	7.72	14.30
12/02/2020 06:23:29	120220	12022020	062329	185.64	13.072008	-57.079908	185.83	-0.960	-0.390	3.160	185.64	-1.80	3.60	 	 	 	 	 	 	 	 	 	 	 	 	 	 	 	 	 	 	1581488609	7.59	14.06
12/02/2020 06:23:30	120220	12022020	062330	185.67	13.071975	-57.079920	185.89	-0.880	-0.330	3.160	185.67	-1.70	3.70	 	 	 	 	 	 	 	 	 	 	 	 	 	 	 	 	 	 	1581488610	7.73	14.32
12/02/2020 06:23:31	120220	12022020	062331	185.87	13.071938	-57.079930	186.10	-0.450	-0.380	2.730	185.87	-1.80	3.30	 	 	 	 	 	 	 	 	 	 	 	 	 	 	 	 	 	 	1581488611	8.07	14.95
12/02/2020 06:23:32	120220	12022020	062332	186.12	13.071902	-57.079938	186.40	-0.070	-0.240	2.120	186.12	-1.70	2.70	 	 	 	 	 	 	 	 	 	 	 	 	 	 	 	 	 	 	1581488612	8.17	15.13
12/02/2020 06:23:33	120220	12022020	062333	186.51	13.071865	-57.079943	186.71	0.080	0.070	1.400	186.51	-1.40	2.00	 	 	 	 	 	 	 	 	 	 	 	 	 	 	 	 	 	 	1581488613	7.90	14.63
12/02/2020 06:23:34	120220	12022020	062334	186.58	13.071830	-57.079945	186.74	0.190	0.030	0.790	186.58	-1.30	1.30	 	 	 	 	 	 	 	 	 	 	 	 	 	 	 	 	 	 	1581488614	7.64	14.15
12/02/2020 06:23:35	120220	12022020	062335	186.22	13.071793	-57.079947	186.37	0.480	-0.440	0.690	186.22	-1.80	1.20	 	 	 	 	 	 	 	 	 	 	 	 	 	 	 	 	 	 	1581488615	7.97	14.76
12/02/2020 06:23:36	120220	12022020	062336	185.77	13.071753	-57.079948	185.92	0.660	-0.520	1.100	185.77	-1.90	1.50	 	 	 	 	 	 	 	 	 	 	 	 	 	 	 	 	 	 	1581488616	8.58	15.89
12/02/2020 06:23:37	120220	12022020	062337	185.58	13.071715	-57.079953	185.77	0.360	0.080	1.740	185.58	-1.40	2.10	 	 	 	 	 	 	 	 	 	 	 	 	 	 	 	 	 	 	1581488617	8.27	15.32
12/02/2020 06:23:38	120220	12022020	062338	185.79	13.071680	-57.079960	186.02	-0.350	0.750	2.390	185.79	-0.70	2.80	 	 	 	 	 	 	 	 	 	 	 	 	 	 	 	 	 	 	1581488618	7.48	13.85
12/02/2020 06:23:39	120220	12022020	062339	186.20	13.071648	-57.079970	186.46	-0.900	0.740	2.980	186.20	-0.60	3.40	 	 	 	 	 	 	 	 	 	 	 	 	 	 	 	 	 	 	1581488619	7.33	13.58
12/02/2020 06:23:40	120220	12022020	062340	186.57	13.071613	-57.079985	186.85	-0.830	0.120	3.320	186.57	-1.20	3.80	 	 	 	 	 	 	 	 	 	 	 	 	 	 	 	 	 	 	1581488620	7.97	14.76
12/02/2020 06:23:41	120220	12022020	062341	186.85	13.071577	-57.080000	187.10	-0.230	-0.400	3.150	186.85	-1.70	3.70	 	 	 	 	 	 	 	 	 	 	 	 	 	 	 	 	 	 	1581488621	8.47	15.69
12/02/2020 06:23:42	120220	12022020	062342	186.89	13.071542	-57.080012	187.09	0.520	-0.640	2.570	186.89	-2.00	3.10	 	 	 	 	 	 	 	 	 	 	 	 	 	 	 	 	 	 	1581488622	8.05	14.91
12/02/2020 06:23:43	120220	12022020	062343	186.65	13.071507	-57.080018	186.81	1.050	-0.870	1.840	186.65	-2.20	2.40	 	 	 	 	 	 	 	 	 	 	 	 	 	 	 	 	 	 	1581488623	7.59	14.06
12/02/2020 06:23:44	120220	12022020	062344	186.42	13.071470	-57.080018	186.58	1.160	-1.070	1.130	186.42	-2.40	1.70	 	 	 	 	 	 	 	 	 	 	 	 	 	 	 	 	 	 	1581488624	7.77	14.39
12/02/2020 06:23:45	120220	12022020	062345	186.49	13.071433	-57.080017	186.66	0.800	-1.070	0.560	186.49	-2.50	1.10	 	 	 	 	 	 	 	 	 	 	 	 	 	 	 	 	 	 	1581488625	8.05	14.91
12/02/2020 06:23:46	120220	12022020	062346	186.61	13.071397	-57.080017	186.79	0.170	-0.880	0.590	186.61	-2.30	1.00	 	 	 	 	 	 	 	 	 	 	 	 	 	 	 	 	 	 	1581488626	8.04	14.89
12/02/2020 06:23:47	120220	12022020	062347	186.54	13.071358	-57.080022	186.71	-0.480	-0.560	1.420	186.54	-2.00	1.80	 	 	 	 	 	 	 	 	 	 	 	 	 	 	 	 	 	 	1581488627	8.00	14.82
12/02/2020 06:23:48	120220	12022020	062348	186.43	13.071322	-57.080032	186.64	-1.010	-0.060	2.450	186.43	-1.50	2.80	 	 	 	 	 	 	 	 	 	 	 	 	 	 	 	 	 	 	1581488628	8.16	15.11
12/02/2020 06:23:49	120220	12022020	062349	186.45	13.071287	-57.080045	186.69	-1.320	0.520	3.120	186.45	-0.90	3.50	 	 	 	 	 	 	 	 	 	 	 	 	 	 	 	 	 	 	1581488629	8.19	15.17
12/02/2020 06:23:50	120220	12022020	062350	186.60	13.071252	-57.080060	186.84	-1.250	0.830	3.250	186.60	-0.60	3.70	 	 	 	 	 	 	 	 	 	 	 	 	 	 	 	 	 	 	1581488630	8.06	14.93
12/02/2020 06:23:51	120220	12022020	062351	186.79	13.071217	-57.080072	187.02	-0.720	0.600	2.970	186.79	-0.70	3.50	 	 	 	 	 	 	 	 	 	 	 	 	 	 	 	 	 	 	1581488631	8.07	14.95
12/02/2020 06:23:52	120220	12022020	062352	186.75	13.071178	-57.080082	186.93	0.150	-0.030	2.540	186.75	-1.30	3.10	 	 	 	 	 	 	 	 	 	 	 	 	 	 	 	 	 	 	1581488632	8.35	15.46
12/02/2020 06:23:53	120220	12022020	062353	186.42	13.071138	-57.080087	186.58	0.930	-0.450	2.140	186.42	-1.80	2.70	 	 	 	 	 	 	 	 	 	 	 	 	 	 	 	 	 	 	1581488633	8.60	15.93
12/02/2020 06:23:54	120220	12022020	062354	186.24	13.071100	-57.080090	186.42	1.190	-0.240	1.660	186.24	-1.70	2.20	 	 	 	 	 	 	 	 	 	 	 	 	 	 	 	 	 	 	1581488634	8.39	15.54
12/02/2020 06:23:55	120220	12022020	062355	186.47	13.071065	-57.080092	186.66	0.850	0.410	1.150	186.47	-1.10	1.70	 	 	 	 	 	 	 	 	 	 	 	 	 	 	 	 	 	 	1581488635	7.61	14.09
12/02/2020 06:23:56	120220	12022020	062356	186.92	13.071033	-57.080093	187.23	0.270	0.710	0.760	186.92	-0.70	1.30	 	 	 	 	 	 	 	 	 	 	 	 	 	 	 	 	 	 	1581488636	6.87	12.72
12/02/2020 06:23:57	120220	12022020	062357	187.37	13.071000	-57.080097	187.55	-0.090	-0.040	0.900	187.37	-1.30	1.30	 	 	 	 	 	 	 	 	 	 	 	 	 	 	 	 	 	 	1581488637	6.91	12.80
12/02/2020 06:23:58	120220	12022020	062358	187.16	13.070965	-57.080103	187.19	0.010	-1.600	1.780	187.16	-2.80	2.10	 	 	 	 	 	 	 	 	 	 	 	 	 	 	 	 	 	 	1581488638	7.97	14.76
12/02/2020 06:23:59	120220	12022020	062359	186.33	13.070923	-57.080117	186.47	0.270	-2.680	2.850	186.33	-4.00	3.20	 	 	 	 	 	 	 	 	 	 	 	 	 	 	 	 	 	 	1581488639	9.21	17.06
12/02/2020 06:24:00	120220	12022020	062400	185.79	13.070882	-57.080130	185.98	0.240	-2.190	3.490	185.79	-3.80	3.90	 	 	 	 	 	 	 	 	 	 	 	 	 	 	 	 	 	 	1581488640	9.31	17.24
12/02/2020 06:24:01	120220	12022020	062401	185.66	13.070847	-57.080140	185.88	-0.210	-0.510	3.540	185.66	-2.20	4.00	1015.30	26.30	26.30	20.50	20.60	-1.0	70.0	70.0	400.0	25.7	271.00	10.90	76.00	11.60	15	9887.0	27.2	27.2	1581488641	8.03	14.87
12/02/2020 06:24:02	120220	12022020	062402	185.83	13.070815	-57.080148	186.07	-0.720	0.970	3.070	185.83	-0.60	3.60	 	 	 	 	 	 	 	 	 	 	 	 	 	 	 	 	 	 	1581488642	6.85	12.69
12/02/2020 06:24:03	120220	12022020	062403	186.17	13.070783	-57.080155	186.40	-0.880	1.330	2.270	186.17	-0.10	2.90	 	 	 	 	 	 	 	 	 	 	 	 	 	 	 	 	 	 	1581488643	7.00	12.96
12/02/2020 06:24:04	120220	12022020	062404	186.49	13.070747	-57.080158	186.70	-0.580	0.770	1.520	186.49	-0.60	2.10	 	 	 	 	 	 	 	 	 	 	 	 	 	 	 	 	 	 	1581488644	8.08	14.96
12/02/2020 06:24:05	120220	12022020	062405	186.75	13.070705	-57.080163	186.95	-0.110	0.180	1.080	186.75	-1.20	1.60	 	 	 	 	 	 	 	 	 	 	 	 	 	 	 	 	 	 	1581488645	8.92	16.52
12/02/2020 06:24:06	120220	12022020	062406	186.99	13.070665	-57.080168	187.19	0.180	0.080	0.920	186.99	-1.40	1.40	 	 	 	 	 	 	 	 	 	 	 	 	 	 	 	 	 	 	1581488646	8.74	16.19
12/02/2020 06:24:07	120220	12022020	062407	187.29	13.070628	-57.080173	187.47	0.190	0.150	0.930	187.29	-1.30	1.40	 	 	 	 	 	 	 	 	 	 	 	 	 	 	 	 	 	 	1581488647	7.94	14.70
12/02/2020 06:24:08	120220	12022020	062408	187.41	13.070593	-57.080178	187.55	0.160	-0.100	1.210	187.41	-1.50	1.60	 	 	 	 	 	 	 	 	 	 	 	 	 	 	 	 	 	 	1581488648	7.46	13.82
12/02/2020 06:24:09	120220	12022020	062409	187.10	13.070558	-57.080187	187.23	0.380	-0.760	1.770	187.10	-2.10	2.20	 	 	 	 	 	 	 	 	 	 	 	 	 	 	 	 	 	 	1581488649	7.71	14.28
12/02/2020 06:24:10	120220	12022020	062410	186.61	13.070522	-57.080195	186.61	0.710	-1.320	2.480	186.61	-2.70	2.90	 	 	 	 	 	 	 	 	 	 	 	 	 	 	 	 	 	 	1581488650	8.29	15.35
12/02/2020 06:24:11	120220	12022020	062411	185.90	13.070482	-57.080203	186.05	0.760	-1.240	2.990	185.90	-2.70	3.40	 	 	 	 	 	 	 	 	 	 	 	 	 	 	 	 	 	 	1581488651	8.46	15.67
12/02/2020 06:24:12	120220	12022020	062412	185.73	13.070445	-57.080212	185.92	0.330	-0.510	3.000	185.73	-2.00	3.50	 	 	 	 	 	 	 	 	 	 	 	 	 	 	 	 	 	 	1581488652	8.07	14.95
12/02/2020 06:24:13	120220	12022020	062413	185.95	13.070412	-57.080220	186.16	-0.330	0.290	2.740	185.95	-1.20	3.20	 	 	 	 	 	 	 	 	 	 	 	 	 	 	 	 	 	 	1581488653	7.44	13.78
12/02/2020 06:24:14	120220	12022020	062414	186.42	13.070378	-57.080227	186.65	-0.820	0.590	2.300	186.42	-0.80	2.80	 	 	 	 	 	 	 	 	 	 	 	 	 	 	 	 	 	 	1581488654	7.33	13.58
12/02/2020 06:24:15	120220	12022020	062415	186.95	13.070343	-57.080233	187.16	-0.910	0.320	1.840	186.95	-1.00	2.40	 	 	 	 	 	 	 	 	 	 	 	 	 	 	 	 	 	 	1581488655	7.75	14.35
12/02/2020 06:24:16	120220	12022020	062416	187.24	13.070307	-57.080243	187.42	-0.510	-0.290	1.580	187.24	-1.60	2.10	 	 	 	 	 	 	 	 	 	 	 	 	 	 	 	 	 	 	1581488656	8.23	15.24
12/02/2020 06:24:17	120220	12022020	062417	187.22	13.070267	-57.080252	187.39	0.120	-0.770	1.480	187.22	-2.10	2.00	 	 	 	 	 	 	 	 	 	 	 	 	 	 	 	 	 	 	1581488657	8.57	15.87
12/02/2020 06:24:18	120220	12022020	062418	187.15	13.070228	-57.080257	187.32	0.500	-0.780	1.510	187.15	-2.20	2.00	 	 	 	 	 	 	 	 	 	 	 	 	 	 	 	 	 	 	1581488658	8.54	15.82
12/02/2020 06:24:19	120220	12022020	062419	187.08	13.070190	-57.080262	187.24	0.480	-0.510	1.700	187.08	-2.00	2.20	 	 	 	 	 	 	 	 	 	 	 	 	 	 	 	 	 	 	1581488659	8.10	15.00
12/02/2020 06:24:20	120220	12022020	062420	186.93	13.070155	-57.080268	187.04	0.320	-0.220	1.880	186.93	-1.70	2.30	 	 	 	 	 	 	 	 	 	 	 	 	 	 	 	 	 	 	1581488660	7.84	14.52
12/02/2020 06:24:21	120220	12022020	062421	186.65	13.070118	-57.080273	186.83	0.180	0.060	1.990	186.65	-1.40	2.50	 	 	 	 	 	 	 	 	 	 	 	 	 	 	 	 	 	 	1581488661	7.89	14.61
12/02/2020 06:24:22	120220	12022020	062422	186.72	13.070082	-57.080280	186.97	-0.070	0.430	1.920	186.72	-1.00	2.40	 	 	 	 	 	 	 	 	 	 	 	 	 	 	 	 	 	 	1581488662	7.98	14.78
12/02/2020 06:24:23	120220	12022020	062423	187.12	13.070045	-57.080285	187.32	-0.460	0.520	1.770	187.12	-0.90	2.30	 	 	 	 	 	 	 	 	 	 	 	 	 	 	 	 	 	 	1581488663	7.74	14.33
12/02/2020 06:24:24	120220	12022020	062424	187.36	13.070010	-57.080293	187.58	-0.720	0.070	1.830	187.36	-1.30	2.30	 	 	 	 	 	 	 	 	 	 	 	 	 	 	 	 	 	 	1581488664	7.82	14.48
12/02/2020 06:24:25	120220	12022020	062425	187.52	13.069973	-57.080305	187.68	-0.530	-0.670	2.060	187.52	-2.00	2.50	 	 	 	 	 	 	 	 	 	 	 	 	 	 	 	 	 	 	1581488665	8.35	15.46
12/02/2020 06:24:26	120220	12022020	062426	187.40	13.069935	-57.080318	187.54	0.130	-1.140	2.160	187.40	-2.50	2.60	 	 	 	 	 	 	 	 	 	 	 	 	 	 	 	 	 	 	1581488666	8.72	16.15
12/02/2020 06:24:27	120220	12022020	062427	186.98	13.069897	-57.080327	187.11	0.840	-1.060	2.130	186.98	-2.50	2.60	 	 	 	 	 	 	 	 	 	 	 	 	 	 	 	 	 	 	1581488667	8.51	15.76
12/02/2020 06:24:28	120220	12022020	062428	186.61	13.069858	-57.080332	186.75	0.960	-0.390	1.940	186.61	-1.90	2.50	 	 	 	 	 	 	 	 	 	 	 	 	 	 	 	 	 	 	1581488668	8.11	15.02
12/02/2020 06:24:29	120220	12022020	062429	186.70	13.069823	-57.080333	186.85	0.320	0.510	1.600	186.70	-1.00	2.10	 	 	 	 	 	 	 	 	 	 	 	 	 	 	 	 	 	 	1581488669	7.61	14.09
12/02/2020 06:24:30	120220	12022020	062430	187.03	13.069790	-57.080337	187.20	-0.540	0.830	1.490	187.03	-0.60	2.00	 	 	 	 	 	 	 	 	 	 	 	 	 	 	 	 	 	 	1581488670	7.16	13.26
12/02/2020 06:24:31	120220	12022020	062431	187.20	13.069755	-57.080343	187.34	-0.890	0.170	1.850	187.20	-1.10	2.30	 	 	 	 	 	 	 	 	 	 	 	 	 	 	 	 	 	 	1581488671	7.55	13.98
12/02/2020 06:24:32	120220	12022020	062432	187.03	13.069717	-57.080357	187.16	-0.530	-1.020	2.410	187.03	-2.30	2.80	 	 	 	 	 	 	 	 	 	 	 	 	 	 	 	 	 	 	1581488672	8.69	16.09
12/02/2020 06:24:33	120220	12022020	062433	186.70	13.069675	-57.080372	186.84	0.080	-1.540	2.770	186.70	-2.90	3.20	 	 	 	 	 	 	 	 	 	 	 	 	 	 	 	 	 	 	1581488673	9.47	17.54
12/02/2020 06:24:34	120220	12022020	062434	186.65	13.069635	-57.080383	186.83	0.360	-0.750	2.560	186.65	-2.30	3.10	 	 	 	 	 	 	 	 	 	 	 	 	 	 	 	 	 	 	1581488674	8.94	16.56
12/02/2020 06:24:35	120220	12022020	062435	187.08	13.069602	-57.080390	187.25	0.230	0.590	1.800	187.08	-1.00	2.40	 	 	 	 	 	 	 	 	 	 	 	 	 	 	 	 	 	 	1581488675	7.45	13.80
12/02/2020 06:24:36	120220	12022020	062436	187.54	13.069572	-57.080392	187.68	0.080	0.950	1.090	187.54	-0.40	1.60	 	 	 	 	 	 	 	 	 	 	 	 	 	 	 	 	 	 	1581488676	6.63	12.28
12/02/2020 06:24:37	120220	12022020	062437	187.58	13.069535	-57.080393	187.71	0.220	0.010	1.020	187.58	-1.20	1.50	 	 	 	 	 	 	 	 	 	 	 	 	 	 	 	 	 	 	1581488677	7.57	14.02
12/02/2020 06:24:38	120220	12022020	062438	187.29	13.069493	-57.080398	187.39	0.470	-1.090	1.510	187.29	-2.40	1.90	 	 	 	 	 	 	 	 	 	 	 	 	 	 	 	 	 	 	1581488678	8.98	16.63
12/02/2020 06:24:39	120220	12022020	062439	186.92	13.069452	-57.080405	187.05	0.370	-1.260	2.190	186.92	-2.70	2.60	 	 	 	 	 	 	 	 	 	 	 	 	 	 	 	 	 	 	1581488679	9.31	17.24
12/02/2020 06:24:40	120220	12022020	062440	186.58	13.069413	-57.080413	186.72	-0.260	-0.610	3.090	186.58	-2.10	3.40	 	 	 	 	 	 	 	 	 	 	 	 	 	 	 	 	 	 	1581488680	8.43	15.61
12/02/2020 06:24:41	120220	12022020	062441	186.43	13.069378	-57.080425	186.62	-1.090	0.290	3.850	186.43	-1.20	4.20	 	 	 	 	 	 	 	 	 	 	 	 	 	 	 	 	 	 	1581488681	7.72	14.30
12/02/2020 06:24:42	120220	12022020	062442	186.71	13.069347	-57.080440	186.93	-1.520	0.870	3.840	186.71	-0.60	4.40	 	 	 	 	 	 	 	 	 	 	 	 	 	 	 	 	 	 	1581488682	7.68	14.22
12/02/2020 06:24:43	120220	12022020	062443	187.24	13.069313	-57.080457	187.46	-1.010	0.770	3.050	187.24	-0.60	3.70	 	 	 	 	 	 	 	 	 	 	 	 	 	 	 	 	 	 	1581488683	7.85	14.54
12/02/2020 06:24:44	120220	12022020	062444	187.66	13.069278	-57.080468	187.82	0.430	0.070	1.690	187.66	-1.20	2.30	 	 	 	 	 	 	 	 	 	 	 	 	 	 	 	 	 	 	1581488684	8.13	15.06
12/02/2020 06:24:45	120220	12022020	062445	187.80	13.069238	-57.080472	187.91	1.820	-0.730	0.610	187.80	-2.10	1.20	 	 	 	 	 	 	 	 	 	 	 	 	 	 	 	 	 	 	1581488685	8.59	15.91
12/02/2020 06:24:46	120220	12022020	062446	187.78	13.069197	-57.080468	187.87	2.070	-1.060	0.340	187.78	-2.50	0.80	 	 	 	 	 	 	 	 	 	 	 	 	 	 	 	 	 	 	1581488686	8.87	16.43
12/02/2020 06:24:47	120220	12022020	062447	187.73	13.069158	-57.080468	187.85	1.020	-0.850	0.890	187.73	-2.30	1.20	 	 	 	 	 	 	 	 	 	 	 	 	 	 	 	 	 	 	1581488687	8.33	15.43
12/02/2020 06:24:48	120220	12022020	062448	187.68	13.069123	-57.080473	187.81	-0.530	-0.420	2.100	187.68	-1.90	2.40	 	 	 	 	 	 	 	 	 	 	 	 	 	 	 	 	 	 	1581488688	7.63	14.13
12/02/2020 06:24:49	120220	12022020	062449	187.59	13.069090	-57.080490	187.77	-1.470	-0.110	3.270	187.59	-1.50	3.60	 	 	 	 	 	 	 	 	 	 	 	 	 	 	 	 	 	 	1581488689	7.83	14.50
12/02/2020 06:24:50	120220	12022020	062450	187.61	13.069057	-57.080510	187.80	-1.300	-0.130	3.660	187.61	-1.50	4.10	 	 	 	 	 	 	 	 	 	 	 	 	 	 	 	 	 	 	1581488690	8.38	15.52
12/02/2020 06:24:51	120220	12022020	062451	187.72	13.069020	-57.080527	187.93	-0.410	-0.440	3.340	187.72	-1.80	3.90	 	 	 	 	 	 	 	 	 	 	 	 	 	 	 	 	 	 	1581488691	8.58	15.89
12/02/2020 06:24:52	120220	12022020	062452	187.87	13.068982	-57.080537	188.08	0.390	-0.610	2.540	187.87	-2.00	3.10	 	 	 	 	 	 	 	 	 	 	 	 	 	 	 	 	 	 	1581488692	8.73	16.17
12/02/2020 06:24:53	120220	12022020	062453	188.18	13.068942	-57.080542	188.39	0.500	-0.190	1.540	188.18	-1.70	2.10	 	 	 	 	 	 	 	 	 	 	 	 	 	 	 	 	 	 	1581488693	8.57	15.87
12/02/2020 06:24:54	120220	12022020	062454	188.53	13.068905	-57.080543	188.72	0.040	0.510	0.910	188.53	-1.00	1.40	 	 	 	 	 	 	 	 	 	 	 	 	 	 	 	 	 	 	1581488694	7.82	14.48
12/02/2020 06:24:55	120220	12022020	062455	188.60	13.068872	-57.080545	188.75	-0.400	0.690	0.880	188.60	-0.70	1.30	 	 	 	 	 	 	 	 	 	 	 	 	 	 	 	 	 	 	1581488695	7.22	13.37
12/02/2020 06:24:56	120220	12022020	062456	188.34	13.068837	-57.080552	188.48	-0.400	0.210	1.190	188.34	-1.10	1.60	 	 	 	 	 	 	 	 	 	 	 	 	 	 	 	 	 	 	1581488696	7.58	14.04
12/02/2020 06:24:57	120220	12022020	062457	187.81	13.068798	-57.080560	187.94	0.050	-0.470	1.770	187.81	-1.80	2.20	 	 	 	 	 	 	 	 	 	 	 	 	 	 	 	 	 	 	1581488697	8.32	15.41
12/02/2020 06:24:58	120220	12022020	062458	187.22	13.068760	-57.080572	187.36	0.670	-0.870	2.160	187.22	-2.20	2.60	 	 	 	 	 	 	 	 	 	 	 	 	 	 	 	 	 	 	1581488698	8.68	16.08
12/02/2020 06:24:59	120220	12022020	062459	186.97	13.068722	-57.080582	187.12	0.970	-0.780	2.230	186.97	-2.20	2.70	 	 	 	 	 	 	 	 	 	 	 	 	 	 	 	 	 	 	1581488699	8.47	15.69
12/02/2020 06:25:00	120220	12022020	062500	187.05	13.068687	-57.080590	187.29	0.720	-0.390	2.300	187.05	-1.90	2.70	 	 	 	 	 	 	 	 	 	 	 	 	 	 	 	 	 	 	1581488700	7.97	14.76
12/02/2020 06:25:01	120220	12022020	062501	187.47	13.068652	-57.080597	187.66	0.070	-0.010	2.500	187.47	-1.50	2.90	1015.20	26.30	26.30	20.50	20.60	-1.0	70.0	70.0	399.0	25.7	273.00	11.30	80.00	11.80	15	10231.0	27.2	27.2	1581488701	7.57	14.02
12/02/2020 06:25:02	120220	12022020	062502	187.65	13.068618	-57.080607	187.84	-0.560	-0.020	2.830	187.65	-1.40	3.20	 	 	 	 	 	 	 	 	 	 	 	 	 	 	 	 	 	 	1581488702	7.48	13.85
12/02/2020 06:25:03	120220	12022020	062503	187.46	13.068583	-57.080620	187.63	-0.750	-0.490	3.230	187.46	-1.80	3.60	 	 	 	 	 	 	 	 	 	 	 	 	 	 	 	 	 	 	1581488703	7.93	14.69
12/02/2020 06:25:04	120220	12022020	062504	187.24	13.068545	-57.080633	187.44	-0.560	-0.750	3.360	187.24	-2.20	3.80	 	 	 	 	 	 	 	 	 	 	 	 	 	 	 	 	 	 	1581488704	8.65	16.02
12/02/2020 06:25:05	120220	12022020	062505	187.33	13.068508	-57.080647	187.53	-0.240	-0.280	2.920	187.33	-1.80	3.50	 	 	 	 	 	 	 	 	 	 	 	 	 	 	 	 	 	 	1581488705	8.54	15.82
12/02/2020 06:25:06	120220	12022020	062506	187.61	13.068473	-57.080653	187.78	0.080	0.390	2.150	187.61	-1.10	2.70	 	 	 	 	 	 	 	 	 	 	 	 	 	 	 	 	 	 	1581488706	7.63	14.13
12/02/2020 06:25:07	120220	12022020	062507	187.76	13.068440	-57.080657	187.89	0.370	0.400	1.620	187.76	-1.00	2.10	 	 	 	 	 	 	 	 	 	 	 	 	 	 	 	 	 	 	1581488707	7.24	13.41
12/02/2020 06:25:08	120220	12022020	062508	187.65	13.068403	-57.080658	187.76	0.560	-0.290	1.650	187.65	-1.60	2.10	 	 	 	 	 	 	 	 	 	 	 	 	 	 	 	 	 	 	1581488708	7.88	14.59
12/02/2020 06:25:09	120220	12022020	062509	187.29	13.068363	-57.080663	187.41	0.570	-0.990	2.150	187.29	-2.30	2.50	 	 	 	 	 	 	 	 	 	 	 	 	 	 	 	 	 	 	1581488709	8.62	15.96
12/02/2020 06:25:10	120220	12022020	062510	186.92	13.068323	-57.080672	187.05	0.340	-1.090	2.740	186.92	-2.50	3.10	 	 	 	 	 	 	 	 	 	 	 	 	 	 	 	 	 	 	1581488710	8.75	16.21
12/02/2020 06:25:11	120220	12022020	062511	186.60	13.068287	-57.080682	186.75	-0.090	-0.590	3.310	186.60	-2.10	3.70	 	 	 	 	 	 	 	 	 	 	 	 	 	 	 	 	 	 	1581488711	8.27	15.32
12/02/2020 06:25:12	120220	12022020	062512	186.34	13.068252	-57.080693	186.43	-0.480	0.060	3.680	186.34	-1.40	4.10	 	 	 	 	 	 	 	 	 	 	 	 	 	 	 	 	 	 	1581488712	7.75	14.35
12/02/2020 06:25:13	120220	12022020	062513	185.96	13.068218	-57.080705	186.14	-0.560	0.400	3.660	185.96	-1.00	4.10	 	 	 	 	 	 	 	 	 	 	 	 	 	 	 	 	 	 	1581488713	7.66	14.19
12/02/2020 06:25:14	120220	12022020	062514	185.91	13.068183	-57.080715	186.13	-0.370	0.500	3.230	185.91	-0.90	3.80	 	 	 	 	 	 	 	 	 	 	 	 	 	 	 	 	 	 	1581488714	7.94	14.70
12/02/2020 06:25:15	120220	12022020	062515	186.32	13.068147	-57.080723	186.56	-0.160	0.570	2.550	186.32	-0.80	3.10	 	 	 	 	 	 	 	 	 	 	 	 	 	 	 	 	 	 	1581488715	8.02	14.85
12/02/2020 06:25:16	120220	12022020	062516	186.92	13.068110	-57.080730	187.15	-0.030	0.300	1.860	186.92	-1.00	2.40	 	 	 	 	 	 	 	 	 	 	 	 	 	 	 	 	 	 	1581488716	7.75	14.35
12/02/2020 06:25:17	120220	12022020	062517	187.41	13.068075	-57.080735	187.61	0.120	-0.400	1.360	187.41	-1.70	1.90	 	 	 	 	 	 	 	 	 	 	 	 	 	 	 	 	 	 	1581488717	7.83	14.50
12/02/2020 06:25:18	120220	12022020	062518	187.53	13.068037	-57.080742	187.69	0.430	-1.150	1.230	187.53	-2.50	1.70	 	 	 	 	 	 	 	 	 	 	 	 	 	 	 	 	 	 	1581488718	8.21	15.20
12/02/2020 06:25:19	120220	12022020	062519	187.42	13.067998	-57.080748	187.55	0.760	-1.450	1.260	187.42	-2.80	1.70	 	 	 	 	 	 	 	 	 	 	 	 	 	 	 	 	 	 	1581488719	8.35	15.46
12/02/2020 06:25:20	120220	12022020	062520	187.26	13.067962	-57.080752	187.38	0.770	-1.120	1.370	187.26	-2.60	1.80	 	 	 	 	 	 	 	 	 	 	 	 	 	 	 	 	 	 	1581488720	8.08	14.96
12/02/2020 06:25:21	120220	12022020	062521	187.13	13.067927	-57.080757	187.26	0.320	-0.400	1.600	187.13	-1.90	2.00	 	 	 	 	 	 	 	 	 	 	 	 	 	 	 	 	 	 	1581488721	7.65	14.17
12/02/2020 06:25:22	120220	12022020	062522	186.98	13.067892	-57.080762	187.12	-0.350	0.130	2.080	186.98	-1.30	2.50	 	 	 	 	 	 	 	 	 	 	 	 	 	 	 	 	 	 	1581488722	7.39	13.69
12/02/2020 06:25:23	120220	12022020	062523	186.77	13.067857	-57.080770	186.91	-0.910	0.100	2.670	186.77	-1.30	3.10	 	 	 	 	 	 	 	 	 	 	 	 	 	 	 	 	 	 	1581488723	7.69	14.24
12/02/2020 06:25:24	120220	12022020	062524	186.60	13.067820	-57.080782	186.75	-1.160	-0.170	3.070	186.60	-1.50	3.50	 	 	 	 	 	 	 	 	 	 	 	 	 	 	 	 	 	 	1581488724	8.46	15.67
12/02/2020 06:25:25	120220	12022020	062525	186.42	13.067780	-57.080795	186.58	-1.040	-0.220	3.390	186.42	-1.60	3.80	 	 	 	 	 	 	 	 	 	 	 	 	 	 	 	 	 	 	1581488725	8.85	16.39
12/02/2020 06:25:26	120220	12022020	062526	186.25	13.067743	-57.080810	186.39	-0.560	0.060	3.350	186.25	-1.40	3.80	 	 	 	 	 	 	 	 	 	 	 	 	 	 	 	 	 	 	1581488726	8.70	16.11
12/02/2020 06:25:27	120220	12022020	062527	186.21	13.067707	-57.080822	186.41	0.100	0.480	2.630	186.21	-1.00	3.20	 	 	 	 	 	 	 	 	 	 	 	 	 	 	 	 	 	 	1581488727	8.19	15.17
12/02/2020 06:25:28	120220	12022020	062528	186.61	13.067672	-57.080828	186.81	0.600	0.830	1.430	186.61	-0.60	2.10	 	 	 	 	 	 	 	 	 	 	 	 	 	 	 	 	 	 	1581488728	7.70	14.26
12/02/2020 06:25:29	120220	12022020	062529	187.21	13.067637	-57.080830	187.37	0.750	0.770	0.360	187.21	-0.60	1.00	 	 	 	 	 	 	 	 	 	 	 	 	 	 	 	 	 	 	1581488729	7.42	13.74
12/02/2020 06:25:30	120220	12022020	062530	187.53	13.067602	-57.080828	187.68	0.650	0.070	-0.010	187.53	-1.20	0.50	 	 	 	 	 	 	 	 	 	 	 	 	 	 	 	 	 	 	1581488730	7.50	13.89
12/02/2020 06:25:31	120220	12022020	062531	187.51	13.067565	-57.080832	187.65	0.590	-1.000	0.330	187.51	-2.30	0.70	 	 	 	 	 	 	 	 	 	 	 	 	 	 	 	 	 	 	1581488731	7.89	14.61
12/02/2020 06:25:32	120220	12022020	062532	187.26	13.067527	-57.080838	187.39	0.690	-1.870	1.110	187.26	-3.20	1.50	 	 	 	 	 	 	 	 	 	 	 	 	 	 	 	 	 	 	1581488732	8.32	15.41
12/02/2020 06:25:33	120220	12022020	062533	186.69	13.067490	-57.080847	186.80	0.690	-2.150	2.140	186.69	-3.50	2.50	 	 	 	 	 	 	 	 	 	 	 	 	 	 	 	 	 	 	1581488733	8.41	15.58
12/02/2020 06:25:34	120220	12022020	062534	185.97	13.067452	-57.080857	186.10	0.180	-1.720	3.170	185.97	-3.20	3.50	 	 	 	 	 	 	 	 	 	 	 	 	 	 	 	 	 	 	1581488734	8.27	15.32
12/02/2020 06:25:35	120220	12022020	062535	185.67	13.067415	-57.080868	185.89	-0.850	-0.530	3.960	185.67	-2.10	4.30	 	 	 	 	 	 	 	 	 	 	 	 	 	 	 	 	 	 	1581488735	8.16	15.11
12/02/2020 06:25:36	120220	12022020	062536	185.90	13.067383	-57.080883	186.28	-1.800	0.910	4.250	185.90	-0.70	4.70	 	 	 	 	 	 	 	 	 	 	 	 	 	 	 	 	 	 	1581488736	7.85	14.54
12/02/2020 06:25:37	120220	12022020	062537	186.62	13.067352	-57.080902	186.89	-1.930	1.760	3.940	186.62	0.30	4.50	 	 	 	 	 	 	 	 	 	 	 	 	 	 	 	 	 	 	1581488737	7.59	14.06
12/02/2020 06:25:38	120220	12022020	062538	187.04	13.067318	-57.080913	187.35	-1.090	1.420	3.160	187.04	0.10	3.70	 	 	 	 	 	 	 	 	 	 	 	 	 	 	 	 	 	 	1581488738	7.65	14.17
12/02/2020 06:25:39	120220	12022020	062539	187.42	13.067280	-57.080923	187.60	0.160	0.230	2.190	187.42	-1.00	2.80	 	 	 	 	 	 	 	 	 	 	 	 	 	 	 	 	 	 	1581488739	8.49	15.72
12/02/2020 06:25:40	120220	12022020	062540	187.52	13.067237	-57.080927	187.65	1.160	-0.770	1.250	187.52	-2.10	1.80	 	 	 	 	 	 	 	 	 	 	 	 	 	 	 	 	 	 	1581488740	9.14	16.93
12/02/2020 06:25:41	120220	12022020	062541	187.38	13.067197	-57.080928	187.47	1.590	-0.960	0.590	187.38	-2.40	1.10	 	 	 	 	 	 	 	 	 	 	 	 	 	 	 	 	 	 	1581488741	8.85	16.39
12/02/2020 06:25:42	120220	12022020	062542	187.02	13.067160	-57.080927	187.10	1.400	-0.650	0.520	187.02	-2.10	1.00	 	 	 	 	 	 	 	 	 	 	 	 	 	 	 	 	 	 	1581488742	7.97	14.76
12/02/2020 06:25:43	120220	12022020	062543	186.62	13.067125	-57.080927	186.74	0.680	-0.260	1.140	186.62	-1.70	1.50	 	 	 	 	 	 	 	 	 	 	 	 	 	 	 	 	 	 	1581488743	7.42	13.74
12/02/2020 06:25:44	120220	12022020	062544	186.36	13.067092	-57.080935	186.53	-0.250	0.070	2.120	186.36	-1.40	2.50	 	 	 	 	 	 	 	 	 	 	 	 	 	 	 	 	 	 	1581488744	7.41	13.72
12/02/2020 06:25:45	120220	12022020	062545	186.43	13.067058	-57.080948	186.65	-0.980	0.310	2.960	186.43	-1.10	3.30	 	 	 	 	 	 	 	 	 	 	 	 	 	 	 	 	 	 	1581488745	7.72	14.30
12/02/2020 06:25:46	120220	12022020	062546	186.70	13.067025	-57.080965	186.93	-1.170	0.140	3.450	186.70	-1.20	3.90	 	 	 	 	 	 	 	 	 	 	 	 	 	 	 	 	 	 	1581488746	7.94	14.70
12/02/2020 06:25:47	120220	12022020	062547	186.82	13.066990	-57.080982	187.02	-0.720	-0.530	3.580	186.82	-1.80	4.00	 	 	 	 	 	 	 	 	 	 	 	 	 	 	 	 	 	 	1581488747	8.26	15.30
12/02/2020 06:25:48	120220	12022020	062548	186.60	13.066952	-57.080997	186.77	0.140	-1.290	3.290	186.60	-2.60	3.80	 	 	 	 	 	 	 	 	 	 	 	 	 	 	 	 	 	 	1581488748	8.68	16.08
12/02/2020 06:25:49	120220	12022020	062549	186.30	13.066913	-57.081007	186.45	0.860	-1.400	2.580	186.30	-2.80	3.20	 	 	 	 	 	 	 	 	 	 	 	 	 	 	 	 	 	 	1581488749	8.80	16.30
12/02/2020 06:25:50	120220	12022020	062550	186.19	13.066873	-57.081010	186.34	0.940	-0.660	1.650	186.19	-2.20	2.20	 	 	 	 	 	 	 	 	 	 	 	 	 	 	 	 	 	 	1581488750	8.31	15.39
12/02/2020 06:25:51	120220	12022020	062551	186.23	13.066838	-57.081008	186.38	0.360	0.290	1.030	186.23	-1.20	1.60	 	 	 	 	 	 	 	 	 	 	 	 	 	 	 	 	 	 	1581488751	7.56	14.00
12/02/2020 06:25:52	120220	12022020	062552	186.25	13.066805	-57.081007	186.38	-0.380	0.680	1.090	186.25	-0.70	1.50	 	 	 	 	 	 	 	 	 	 	 	 	 	 	 	 	 	 	1581488752	7.21	13.35
12/02/2020 06:25:53	120220	12022020	062553	186.02	13.066770	-57.081013	186.17	-0.680	0.370	1.770	186.02	-1.00	2.10	 	 	 	 	 	 	 	 	 	 	 	 	 	 	 	 	 	 	1581488753	7.67	14.20
12/02/2020 06:25:54	120220	12022020	062554	185.65	13.066732	-57.081025	185.85	-0.400	-0.150	2.510	185.65	-1.50	2.90	 	 	 	 	 	 	 	 	 	 	 	 	 	 	 	 	 	 	1581488754	8.54	15.82
12/02/2020 06:25:55	120220	12022020	062555	185.48	13.066693	-57.081037	185.71	0.040	-0.250	2.800	185.48	-1.70	3.20	 	 	 	 	 	 	 	 	 	 	 	 	 	 	 	 	 	 	1581488755	8.84	16.37
12/02/2020 06:25:56	120220	12022020	062556	185.64	13.066655	-57.081047	185.88	0.150	0.070	2.760	185.64	-1.40	3.20	 	 	 	 	 	 	 	 	 	 	 	 	 	 	 	 	 	 	1581488756	8.24	15.26
12/02/2020 06:25:57	120220	12022020	062557	185.92	13.066622	-57.081053	186.15	-0.020	0.230	2.680	185.92	-1.20	3.20	 	 	 	 	 	 	 	 	 	 	 	 	 	 	 	 	 	 	1581488757	7.49	13.87
12/02/2020 06:25:58	120220	12022020	062558	186.03	13.066588	-57.081062	186.24	-0.100	-0.100	2.530	186.03	-1.40	3.00	 	 	 	 	 	 	 	 	 	 	 	 	 	 	 	 	 	 	1581488758	7.41	13.72
12/02/2020 06:25:59	120220	12022020	062559	185.92	13.066552	-57.081070	186.10	0.110	-0.680	2.390	185.92	-2.00	2.90	 	 	 	 	 	 	 	 	 	 	 	 	 	 	 	 	 	 	1581488759	7.91	14.65
12/02/2020 06:26:00	120220	12022020	062600	185.53	13.066515	-57.081077	185.68	0.530	-1.190	2.380	185.53	-2.50	2.90	 	 	 	 	 	 	 	 	 	 	 	 	 	 	 	 	 	 	1581488760	8.23	15.24
12/02/2020 06:26:01	120220	12022020	062601	184.99	13.066477	-57.081083	185.17	0.840	-1.330	2.390	184.99	-2.70	2.90	1015.20	26.20	26.30	20.30	20.40	-1.0	70.0	70.0	398.0	25.8	271.00	10.80	77.00	11.50	16	10020.0	27.2	27.2	1581488761	8.35	15.46
12/02/2020 06:26:02	120220	12022020	062602	184.75	13.066438	-57.081087	184.97	0.630	-0.790	2.330	184.75	-2.30	2.80	 	 	 	 	 	 	 	 	 	 	 	 	 	 	 	 	 	 	1581488762	8.28	15.33
12/02/2020 06:26:03	120220	12022020	062603	184.93	13.066402	-57.081090	185.22	-0.180	0.290	2.340	184.93	-1.30	2.80	 	 	 	 	 	 	 	 	 	 	 	 	 	 	 	 	 	 	1581488763	7.73	14.32
12/02/2020 06:26:04	120220	12022020	062604	185.43	13.066370	-57.081097	185.73	-1.040	1.170	2.360	185.43	-0.30	2.90	 	 	 	 	 	 	 	 	 	 	 	 	 	 	 	 	 	 	1581488764	7.11	13.17
12/02/2020 06:26:05	120220	12022020	062605	186.02	13.066338	-57.081108	186.30	-1.210	1.240	2.120	186.02	-0.10	2.60	 	 	 	 	 	 	 	 	 	 	 	 	 	 	 	 	 	 	1581488765	7.20	13.33
12/02/2020 06:26:06	120220	12022020	062606	186.41	13.066303	-57.081118	186.66	-0.460	0.390	1.780	186.41	-0.90	2.30	 	 	 	 	 	 	 	 	 	 	 	 	 	 	 	 	 	 	1581488766	7.78	14.41
12/02/2020 06:26:07	120220	12022020	062607	186.53	13.066263	-57.081127	186.75	0.680	-0.810	1.480	186.53	-2.00	2.00	 	 	 	 	 	 	 	 	 	 	 	 	 	 	 	 	 	 	1581488767	8.56	15.85
12/02/2020 06:26:08	120220	12022020	062608	186.47	13.066223	-57.081132	186.66	1.320	-1.450	1.380	186.47	-2.80	1.90	 	 	 	 	 	 	 	 	 	 	 	 	 	 	 	 	 	 	1581488768	8.94	16.56
12/02/2020 06:26:09	120220	12022020	062609	186.26	13.066183	-57.081133	186.46	1.020	-1.260	1.560	186.26	-2.70	2.00	 	 	 	 	 	 	 	 	 	 	 	 	 	 	 	 	 	 	1581488769	8.45	15.65
12/02/2020 06:26:10	120220	12022020	062610	186.09	13.066148	-57.081137	186.31	0.110	-0.590	2.030	186.09	-2.10	2.40	 	 	 	 	 	 	 	 	 	 	 	 	 	 	 	 	 	 	1581488770	7.66	14.19
12/02/2020 06:26:11	120220	12022020	062611	186.06	13.066115	-57.081143	186.31	-0.730	0.000	2.650	186.06	-1.40	3.10	 	 	 	 	 	 	 	 	 	 	 	 	 	 	 	 	 	 	1581488771	7.32	13.56
12/02/2020 06:26:12	120220	12022020	062612	186.10	13.066082	-57.081155	186.36	-1.030	0.180	3.050	186.10	-1.20	3.50	 	 	 	 	 	 	 	 	 	 	 	 	 	 	 	 	 	 	1581488772	7.58	14.04
12/02/2020 06:26:13	120220	12022020	062613	185.96	13.066045	-57.081167	186.18	-0.750	-0.150	3.180	185.96	-1.50	3.60	 	 	 	 	 	 	 	 	 	 	 	 	 	 	 	 	 	 	1581488773	8.08	14.96
12/02/2020 06:26:14	120220	12022020	062614	185.58	13.066007	-57.081178	185.67	-0.150	-0.730	3.210	185.58	-2.00	3.70	 	 	 	 	 	 	 	 	 	 	 	 	 	 	 	 	 	 	1581488774	8.62	15.96
12/02/2020 06:26:15	120220	12022020	062615	185.05	13.065967	-57.081188	185.28	0.330	-0.730	3.010	185.05	-2.20	3.50	 	 	 	 	 	 	 	 	 	 	 	 	 	 	 	 	 	 	1581488775	9.05	16.76
12/02/2020 06:26:16	120220	12022020	062616	185.05	13.065927	-57.081195	185.36	0.430	0.190	2.410	185.05	-1.40	3.00	 	 	 	 	 	 	 	 	 	 	 	 	 	 	 	 	 	 	1581488776	8.53	15.80
12/02/2020 06:26:17	120220	12022020	062617	185.49	13.065893	-57.081198	185.74	0.220	1.120	1.630	185.49	-0.40	2.20	 	 	 	 	 	 	 	 	 	 	 	 	 	 	 	 	 	 	1581488777	7.36	13.63
12/02/2020 06:26:18	120220	12022020	062618	186.00	13.065860	-57.081200	186.24	-0.050	1.190	1.080	186.00	-0.20	1.60	 	 	 	 	 	 	 	 	 	 	 	 	 	 	 	 	 	 	1581488778	7.06	13.08
12/02/2020 06:26:19	120220	12022020	062619	186.66	13.065825	-57.081202	186.91	-0.220	0.580	0.890	186.66	-0.70	1.40	 	 	 	 	 	 	 	 	 	 	 	 	 	 	 	 	 	 	1581488779	7.62	14.11
12/02/2020 06:26:20	120220	12022020	062620	187.06	13.065788	-57.081208	187.28	-0.120	-0.370	1.190	187.06	-1.60	1.60	 	 	 	 	 	 	 	 	 	 	 	 	 	 	 	 	 	 	1581488780	8.04	14.89
12/02/2020 06:26:21	120220	12022020	062621	186.72	13.065752	-57.081218	186.90	0.310	-1.450	1.970	186.72	-2.70	2.30	 	 	 	 	 	 	 	 	 	 	 	 	 	 	 	 	 	 	1581488781	8.24	15.26
12/02/2020 06:26:22	120220	12022020	062622	185.96	13.065713	-57.081230	186.12	0.710	-2.070	2.810	185.96	-3.40	3.20	 	 	 	 	 	 	 	 	 	 	 	 	 	 	 	 	 	 	1581488782	8.55	15.83
12/02/2020 06:26:23	120220	12022020	062623	185.31	13.065675	-57.081240	185.49	0.680	-1.820	3.310	185.31	-3.30	3.80	 	 	 	 	 	 	 	 	 	 	 	 	 	 	 	 	 	 	1581488783	8.47	15.69
12/02/2020 06:26:24	120220	12022020	062624	185.01	13.065638	-57.081248	185.21	0.300	-0.880	3.130	185.01	-2.40	3.70	 	 	 	 	 	 	 	 	 	 	 	 	 	 	 	 	 	 	1581488784	7.93	14.69
12/02/2020 06:26:25	120220	12022020	062625	185.04	13.065605	-57.081255	185.26	-0.090	0.200	2.420	185.04	-1.30	3.00	 	 	 	 	 	 	 	 	 	 	 	 	 	 	 	 	 	 	1581488785	7.44	13.78
12/02/2020 06:26:26	120220	12022020	062626	185.26	13.065572	-57.081258	185.58	-0.280	0.840	1.590	185.26	-0.60	2.20	 	 	 	 	 	 	 	 	 	 	 	 	 	 	 	 	 	 	1581488786	7.37	13.65
12/02/2020 06:26:27	120220	12022020	062627	185.81	13.065535	-57.081260	186.06	-0.430	0.840	1.060	185.81	-0.50	1.60	 	 	 	 	 	 	 	 	 	 	 	 	 	 	 	 	 	 	1581488787	7.82	14.48
12/02/2020 06:26:28	120220	12022020	062628	186.14	13.065497	-57.081263	186.41	-0.660	0.330	1.180	186.14	-1.00	1.60	 	 	 	 	 	 	 	 	 	 	 	 	 	 	 	 	 	 	1581488788	8.29	15.35
12/02/2020 06:26:29	120220	12022020	062629	186.12	13.065457	-57.081270	186.30	-0.800	-0.470	1.970	186.12	-1.80	2.30	 	 	 	 	 	 	 	 	 	 	 	 	 	 	 	 	 	 	1581488789	8.59	15.91
12/02/2020 06:26:30	120220	12022020	062630	185.65	13.065417	-57.081283	185.85	-0.620	-1.020	2.950	185.65	-2.40	3.30	 	 	 	 	 	 	 	 	 	 	 	 	 	 	 	 	 	 	1581488790	9.00	16.67
12/02/2020 06:26:31	120220	12022020	062631	185.29	13.065378	-57.081297	185.52	-0.240	-0.710	3.460	185.29	-2.20	3.90	 	 	 	 	 	 	 	 	 	 	 	 	 	 	 	 	 	 	1581488791	8.94	16.56
12/02/2020 06:26:32	120220	12022020	062632	185.14	13.065342	-57.081308	185.38	0.100	0.170	3.230	185.14	-1.40	3.80	 	 	 	 	 	 	 	 	 	 	 	 	 	 	 	 	 	 	1581488792	7.99	14.80
12/02/2020 06:26:33	120220	12022020	062633	185.20	13.065310	-57.081315	185.43	0.330	0.740	2.320	185.20	-0.70	3.00	 	 	 	 	 	 	 	 	 	 	 	 	 	 	 	 	 	 	1581488793	7.15	13.24
12/02/2020 06:26:34	120220	12022020	062634	185.49	13.065277	-57.081317	185.70	0.520	0.630	1.230	185.49	-0.70	1.80	 	 	 	 	 	 	 	 	 	 	 	 	 	 	 	 	 	 	1581488794	7.26	13.45
12/02/2020 06:26:35	120220	12022020	062635	185.63	13.065240	-57.081317	185.80	0.770	-0.080	0.660	185.63	-1.40	1.20	 	 	 	 	 	 	 	 	 	 	 	 	 	 	 	 	 	 	1581488795	7.81	14.46
12/02/2020 06:26:36	120220	12022020	062636	185.55	13.065202	-57.081318	185.74	0.940	-0.820	0.610	185.55	-2.10	1.10	 	 	 	 	 	 	 	 	 	 	 	 	 	 	 	 	 	 	1581488796	8.32	15.41
12/02/2020 06:26:37	120220	12022020	062637	185.55	13.065162	-57.081320	185.74	0.740	-1.060	0.870	185.55	-2.50	1.30	 	 	 	 	 	 	 	 	 	 	 	 	 	 	 	 	 	 	1581488797	8.40	15.56
12/02/2020 06:26:38	120220	12022020	062638	185.55	13.065125	-57.081325	185.69	0.170	-0.940	1.550	185.55	-2.30	1.90	 	 	 	 	 	 	 	 	 	 	 	 	 	 	 	 	 	 	1581488798	7.95	14.72
12/02/2020 06:26:39	120220	12022020	062639	185.24	13.065090	-57.081335	185.43	-0.430	-0.860	2.560	185.24	-2.30	2.90	 	 	 	 	 	 	 	 	 	 	 	 	 	 	 	 	 	 	1581488799	7.76	14.37
12/02/2020 06:26:40	120220	12022020	062640	185.03	13.065055	-57.081348	185.25	-0.800	-0.730	3.400	185.03	-2.10	3.80	 	 	 	 	 	 	 	 	 	 	 	 	 	 	 	 	 	 	1581488800	8.29	15.35
12/02/2020 06:26:41	120220	12022020	062641	185.18	13.065017	-57.081363	185.46	-0.900	-0.240	3.530	185.18	-1.70	4.00	 	 	 	 	 	 	 	 	 	 	 	 	 	 	 	 	 	 	1581488801	8.56	15.85
12/02/2020 06:26:42	120220	12022020	062642	185.69	13.064982	-57.081375	186.13	-0.820	0.490	2.880	185.69	-1.00	3.50	 	 	 	 	 	 	 	 	 	 	 	 	 	 	 	 	 	 	1581488802	8.06	14.93
12/02/2020 06:26:43	120220	12022020	062643	186.48	13.064948	-57.081382	186.71	-0.540	0.730	1.920	186.48	-0.70	2.50	 	 	 	 	 	 	 	 	 	 	 	 	 	 	 	 	 	 	1581488803	7.43	13.76
12/02/2020 06:26:44	120220	12022020	062644	186.63	13.064912	-57.081385	186.80	0.010	0.070	1.140	186.63	-1.20	1.70	 	 	 	 	 	 	 	 	 	 	 	 	 	 	 	 	 	 	1581488804	7.72	14.30
12/02/2020 06:26:45	120220	12022020	062645	186.53	13.064872	-57.081385	186.70	0.580	-0.710	0.820	186.53	-2.00	1.30	 	 	 	 	 	 	 	 	 	 	 	 	 	 	 	 	 	 	1581488805	8.75	16.21
12/02/2020 06:26:46	120220	12022020	062646	186.51	13.064830	-57.081387	186.69	0.820	-0.740	0.800	186.51	-2.20	1.30	 	 	 	 	 	 	 	 	 	 	 	 	 	 	 	 	 	 	1581488806	8.96	16.59
12/02/2020 06:26:47	120220	12022020	062647	186.49	13.064792	-57.081390	186.65	0.590	-0.150	1.010	186.49	-1.60	1.50	 	 	 	 	 	 	 	 	 	 	 	 	 	 	 	 	 	 	1581488807	8.14	15.08
12/02/2020 06:26:48	120220	12022020	062648	186.32	13.064758	-57.081393	186.48	0.050	0.250	1.660	186.32	-1.20	2.00	 	 	 	 	 	 	 	 	 	 	 	 	 	 	 	 	 	 	1581488808	7.38	13.67
12/02/2020 06:26:49	120220	12022020	062649	186.04	13.064723	-57.081403	186.21	-0.470	0.100	2.680	186.04	-1.30	3.00	 	 	 	 	 	 	 	 	 	 	 	 	 	 	 	 	 	 	1581488809	7.60	14.08
12/02/2020 06:26:50	120220	12022020	062650	185.81	13.064687	-57.081417	185.96	-0.660	-0.180	3.630	185.81	-1.60	4.00	 	 	 	 	 	 	 	 	 	 	 	 	 	 	 	 	 	 	1581488810	8.38	15.52
12/02/2020 06:26:51	120220	12022020	062651	185.71	13.064650	-57.081435	185.93	-0.470	-0.130	3.880	185.71	-1.60	4.40	 	 	 	 	 	 	 	 	 	 	 	 	 	 	 	 	 	 	1581488811	8.68	16.08
12/02/2020 06:26:52	120220	12022020	062652	185.82	13.064615	-57.081448	186.06	0.030	-0.040	3.220	185.82	-1.40	3.80	 	 	 	 	 	 	 	 	 	 	 	 	 	 	 	 	 	 	1581488812	8.08	14.96
12/02/2020 06:26:53	120220	12022020	062653	185.99	13.064580	-57.081455	186.18	0.560	-0.300	2.200	185.99	-1.60	2.80	 	 	 	 	 	 	 	 	 	 	 	 	 	 	 	 	 	 	1581488813	7.67	14.20
12/02/2020 06:26:54	120220	12022020	062654	186.13	13.064543	-57.081455	186.38	0.780	-0.670	1.280	186.13	-2.00	1.90	 	 	 	 	 	 	 	 	 	 	 	 	 	 	 	 	 	 	1581488814	8.08	14.96
12/02/2020 06:26:55	120220	12022020	062655	186.60	13.064503	-57.081455	186.79	0.470	-0.780	0.830	186.60	-2.20	1.30	 	 	 	 	 	 	 	 	 	 	 	 	 	 	 	 	 	 	1581488815	8.33	15.43
12/02/2020 06:26:56	120220	12022020	062656	186.94	13.064467	-57.081458	187.13	-0.070	-0.710	1.170	186.94	-2.10	1.60	 	 	 	 	 	 	 	 	 	 	 	 	 	 	 	 	 	 	1581488816	7.98	14.78
12/02/2020 06:26:57	120220	12022020	062657	187.04	13.064432	-57.081467	187.20	-0.390	-0.610	1.880	187.04	-2.00	2.30	 	 	 	 	 	 	 	 	 	 	 	 	 	 	 	 	 	 	1581488817	7.87	14.58
12/02/2020 06:26:58	120220	12022020	062658	186.77	13.064395	-57.081478	186.92	-0.340	-0.480	2.540	186.77	-1.90	2.90	 	 	 	 	 	 	 	 	 	 	 	 	 	 	 	 	 	 	1581488818	8.04	14.89
12/02/2020 06:26:59	120220	12022020	062659	186.32	13.064360	-57.081488	186.48	-0.150	-0.270	2.980	186.32	-1.70	3.40	 	 	 	 	 	 	 	 	 	 	 	 	 	 	 	 	 	 	1581488819	8.16	15.11
12/02/2020 06:27:00	120220	12022020	062700	185.96	13.064322	-57.081497	186.14	-0.090	-0.040	3.100	185.96	-1.50	3.60	 	 	 	 	 	 	 	 	 	 	 	 	 	 	 	 	 	 	1581488820	8.17	15.13
12/02/2020 06:27:01	120220	12022020	062701	185.68	13.064285	-57.081503	185.86	-0.150	0.050	3.110	185.68	-1.40	3.60	1015.30	26.30	26.30	20.50	20.50	-1.0	70.0	70.0	397.0	25.8	277.00	10.40	80.00	10.70	16	9428.0	27.2	27.2	1581488821	8.15	15.09
12/02/2020 06:27:02	120220	12022020	062702	185.59	13.064247	-57.081512	185.80	-0.150	0.130	2.980	185.59	-1.30	3.50	 	 	 	 	 	 	 	 	 	 	 	 	 	 	 	 	 	 	1581488822	8.31	15.39
12/02/2020 06:27:03	120220	12022020	062703	185.79	13.064208	-57.081518	185.99	-0.050	0.290	2.620	185.79	-1.10	3.10	 	 	 	 	 	 	 	 	 	 	 	 	 	 	 	 	 	 	1581488823	8.27	15.32
12/02/2020 06:27:04	120220	12022020	062704	185.98	13.064172	-57.081525	186.24	0.060	0.260	2.260	185.98	-1.10	2.80	 	 	 	 	 	 	 	 	 	 	 	 	 	 	 	 	 	 	1581488824	8.02	14.85
12/02/2020 06:27:05	120220	12022020	062705	186.26	13.064135	-57.081530	186.53	0.050	0.070	2.010	186.32	-1.30	2.50	 	 	 	 	 	 	 	 	 	 	 	 	 	 	 	 	 	 	1581488825	8.04	14.89
12/02/2020 06:27:06	120220	12022020	062706	186.49	13.064098	-57.081538	186.70	-0.010	-0.110	1.910	186.49	-1.50	2.40	 	 	 	 	 	 	 	 	 	 	 	 	 	 	 	 	 	 	1581488826	8.02	14.85
12/02/2020 06:27:07	120220	12022020	062707	186.58	13.064063	-57.081547	186.76	0.070	-0.200	1.750	186.58	-1.60	2.30	 	 	 	 	 	 	 	 	 	 	 	 	 	 	 	 	 	 	1581488827	7.87	14.58
12/02/2020 06:27:08	120220	12022020	062708	186.71	13.064028	-57.081553	186.90	0.260	-0.260	1.460	186.71	-1.70	2.00	 	 	 	 	 	 	 	 	 	 	 	 	 	 	 	 	 	 	1581488828	7.71	14.28
12/02/2020 06:27:09	120220	12022020	062709	186.80	13.063993	-57.081558	186.97	0.390	-0.670	1.420	186.80	-2.00	1.90	 	 	 	 	 	 	 	 	 	 	 	 	 	 	 	 	 	 	1581488829	7.63	14.13
12/02/2020 06:27:10	120220	12022020	062710	186.64	13.063955	-57.081563	186.79	0.380	-1.350	1.710	186.64	-2.70	2.10	 	 	 	 	 	 	 	 	 	 	 	 	 	 	 	 	 	 	1581488830	8.08	14.96
12/02/2020 06:27:11	120220	12022020	062711	186.26	13.063917	-57.081570	186.42	0.270	-1.710	2.350	186.26	-3.10	2.70	 	 	 	 	 	 	 	 	 	 	 	 	 	 	 	 	 	 	1581488831	8.64	16.00
12/02/2020 06:27:12	120220	12022020	062712	185.90	13.063877	-57.081580	186.10	0.100	-1.230	2.870	185.90	-2.70	3.30	 	 	 	 	 	 	 	 	 	 	 	 	 	 	 	 	 	 	1581488832	8.72	16.15
12/02/2020 06:27:13	120220	12022020	062713	185.91	13.063840	-57.081588	186.14	-0.220	-0.020	2.880	185.91	-1.60	3.40	 	 	 	 	 	 	 	 	 	 	 	 	 	 	 	 	 	 	1581488833	8.18	15.15
12/02/2020 06:27:14	120220	12022020	062714	186.08	13.063805	-57.081595	186.30	-0.650	1.020	2.740	186.08	-0.50	3.20	 	 	 	 	 	 	 	 	 	 	 	 	 	 	 	 	 	 	1581488834	7.43	13.76
12/02/2020 06:27:15	120220	12022020	062715	186.24	13.063772	-57.081603	186.47	-0.940	1.240	2.630	186.24	-0.10	3.10	 	 	 	 	 	 	 	 	 	 	 	 	 	 	 	 	 	 	1581488835	7.46	13.82
12/02/2020 06:27:16	120220	12022020	062716	186.41	13.063735	-57.081610	186.67	-0.830	0.800	2.420	186.41	-0.50	2.90	 	 	 	 	 	 	 	 	 	 	 	 	 	 	 	 	 	 	1581488836	8.12	15.04
12/02/2020 06:27:17	120220	12022020	062717	186.47	13.063695	-57.081618	186.66	-0.310	0.030	2.350	186.47	-1.20	2.80	 	 	 	 	 	 	 	 	 	 	 	 	 	 	 	 	 	 	1581488837	8.55	15.83
12/02/2020 06:27:18	120220	12022020	062718	186.29	13.063655	-57.081627	186.42	0.400	-0.760	2.340	186.29	-2.10	2.80	 	 	 	 	 	 	 	 	 	 	 	 	 	 	 	 	 	 	1581488838	8.75	16.21
12/02/2020 06:27:19	120220	12022020	062719	186.10	13.063615	-57.081635	186.31	0.820	-0.960	2.250	186.10	-2.40	2.70	 	 	 	 	 	 	 	 	 	 	 	 	 	 	 	 	 	 	1581488839	8.82	16.33
12/02/2020 06:27:20	120220	12022020	062720	186.20	13.063578	-57.081640	186.45	0.720	-0.350	2.070	186.20	-1.90	2.60	 	 	 	 	 	 	 	 	 	 	 	 	 	 	 	 	 	 	1581488840	8.20	15.19
12/02/2020 06:27:21	120220	12022020	062721	186.43	13.063545	-57.081645	186.66	0.320	0.350	1.670	186.43	-1.10	2.20	 	 	 	 	 	 	 	 	 	 	 	 	 	 	 	 	 	 	1581488841	7.22	13.37
12/02/2020 06:27:22	120220	12022020	062722	186.63	13.063512	-57.081648	186.83	0.030	0.280	1.290	186.63	-1.00	1.80	 	 	 	 	 	 	 	 	 	 	 	 	 	 	 	 	 	 	1581488842	6.96	12.89
12/02/2020 06:27:23	120220	12022020	062723	186.85	13.063477	-57.081653	187.06	-0.070	-0.400	1.310	186.85	-1.70	1.80	 	 	 	 	 	 	 	 	 	 	 	 	 	 	 	 	 	 	1581488843	7.76	14.37
12/02/2020 06:27:24	120220	12022020	062724	186.99	13.063438	-57.081662	187.20	-0.130	-1.060	1.790	186.99	-2.40	2.20	 	 	 	 	 	 	 	 	 	 	 	 	 	 	 	 	 	 	1581488844	8.45	15.65
12/02/2020 06:27:25	120220	12022020	062725	186.74	13.063400	-57.081672	186.91	-0.130	-1.390	2.520	186.74	-2.70	2.90	 	 	 	 	 	 	 	 	 	 	 	 	 	 	 	 	 	 	1581488845	8.54	15.82
12/02/2020 06:27:26	120220	12022020	062726	186.17	13.063362	-57.081683	186.34	0.000	-1.310	3.170	186.17	-2.70	3.60	 	 	 	 	 	 	 	 	 	 	 	 	 	 	 	 	 	 	1581488846	8.50	15.74
12/02/2020 06:27:27	120220	12022020	062727	185.82	13.063325	-57.081695	186.04	0.110	-0.670	3.340	185.82	-2.10	3.80	 	 	 	 	 	 	 	 	 	 	 	 	 	 	 	 	 	 	1581488847	8.43	15.61
12/02/2020 06:27:28	120220	12022020	062728	186.03	13.063287	-57.081702	186.29	-0.090	0.310	2.980	186.03	-1.20	3.50	 	 	 	 	 	 	 	 	 	 	 	 	 	 	 	 	 	 	1581488848	8.05	14.91
12/02/2020 06:27:29	120220	12022020	062729	186.64	13.063252	-57.081707	186.90	-0.530	1.030	2.240	186.64	-0.40	2.80	 	 	 	 	 	 	 	 	 	 	 	 	 	 	 	 	 	 	1581488849	7.61	14.09
12/02/2020 06:27:30	120220	12022020	062730	187.05	13.063217	-57.081712	187.31	-0.790	1.000	1.690	187.05	-0.30	2.20	 	 	 	 	 	 	 	 	 	 	 	 	 	 	 	 	 	 	1581488850	7.59	14.06
12/02/2020 06:27:31	120220	12022020	062731	187.17	13.063180	-57.081717	187.32	-0.500	0.290	1.590	187.17	-1.00	2.10	 	 	 	 	 	 	 	 	 	 	 	 	 	 	 	 	 	 	1581488851	8.11	15.02
12/02/2020 06:27:32	120220	12022020	062732	186.98	13.063140	-57.081725	187.06	0.050	-0.550	1.840	186.98	-1.80	2.30	 	 	 	 	 	 	 	 	 	 	 	 	 	 	 	 	 	 	1581488852	8.71	16.13
12/02/2020 06:27:33	120220	12022020	062733	186.52	13.063100	-57.081733	186.65	0.400	-0.980	2.230	186.52	-2.30	2.70	 	 	 	 	 	 	 	 	 	 	 	 	 	 	 	 	 	 	1581488853	8.83	16.35
12/02/2020 06:27:34	120220	12022020	062734	186.03	13.063062	-57.081742	186.19	0.510	-0.840	2.570	186.03	-2.30	3.00	 	 	 	 	 	 	 	 	 	 	 	 	 	 	 	 	 	 	1581488854	8.50	15.74
12/02/2020 06:27:35	120220	12022020	062735	185.79	13.063025	-57.081752	185.98	0.490	-0.180	2.570	185.79	-1.70	3.10	 	 	 	 	 	 	 	 	 	 	 	 	 	 	 	 	 	 	1581488855	8.05	14.91
12/02/2020 06:27:36	120220	12022020	062736	185.99	13.062992	-57.081758	186.22	0.360	0.590	2.200	185.99	-0.90	2.70	 	 	 	 	 	 	 	 	 	 	 	 	 	 	 	 	 	 	1581488856	7.49	13.87
12/02/2020 06:27:37	120220	12022020	062737	186.45	13.062958	-57.081762	186.68	0.060	0.690	1.890	186.45	-0.70	2.40	 	 	 	 	 	 	 	 	 	 	 	 	 	 	 	 	 	 	1581488857	7.17	13.28
12/02/2020 06:27:38	120220	12022020	062738	186.66	13.062923	-57.081767	186.85	-0.210	-0.200	1.920	186.66	-1.40	2.40	 	 	 	 	 	 	 	 	 	 	 	 	 	 	 	 	 	 	1581488858	7.60	14.08
12/02/2020 06:27:39	120220	12022020	062739	186.38	13.062883	-57.081777	186.57	-0.210	-1.400	2.390	186.38	-2.70	2.80	 	 	 	 	 	 	 	 	 	 	 	 	 	 	 	 	 	 	1581488859	8.62	15.96
12/02/2020 06:27:40	120220	12022020	062740	185.95	13.062843	-57.081788	186.15	-0.030	-1.830	2.880	185.95	-3.20	3.30	 	 	 	 	 	 	 	 	 	 	 	 	 	 	 	 	 	 	1581488860	9.26	17.15
12/02/2020 06:27:41	120220	12022020	062741	185.66	13.062803	-57.081800	185.87	0.070	-1.190	2.960	185.66	-2.70	3.40	 	 	 	 	 	 	 	 	 	 	 	 	 	 	 	 	 	 	1581488861	8.71	16.13
12/02/2020 06:27:42	120220	12022020	062742	185.51	13.062768	-57.081808	185.68	0.000	-0.230	2.720	185.51	-1.70	3.20	 	 	 	 	 	 	 	 	 	 	 	 	 	 	 	 	 	 	1581488862	7.67	14.20
12/02/2020 06:27:43	120220	12022020	062743	185.35	13.062735	-57.081813	185.55	-0.100	0.320	2.400	185.33	-1.10	2.90	 	 	 	 	 	 	 	 	 	 	 	 	 	 	 	 	 	 	1581488863	7.43	13.76
12/02/2020 06:27:44	120220	12022020	062744	185.41	13.062698	-57.081818	185.66	-0.170	0.460	2.090	185.41	-0.90	2.60	 	 	 	 	 	 	 	 	 	 	 	 	 	 	 	 	 	 	1581488864	7.96	14.74
12/02/2020 06:27:45	120220	12022020	062745	185.73	13.062660	-57.081822	186.00	-0.180	0.390	1.810	185.73	-1.00	2.30	 	 	 	 	 	 	 	 	 	 	 	 	 	 	 	 	 	 	1581488865	8.40	15.56
12/02/2020 06:27:46	120220	12022020	062746	186.09	13.062620	-57.081827	186.35	-0.170	0.180	1.750	186.09	-1.20	2.20	 	 	 	 	 	 	 	 	 	 	 	 	 	 	 	 	 	 	1581488866	8.46	15.67
12/02/2020 06:27:47	120220	12022020	062747	186.31	13.062582	-57.081832	186.55	-0.140	-0.030	2.040	186.31	-1.40	2.50	 	 	 	 	 	 	 	 	 	 	 	 	 	 	 	 	 	 	1581488867	8.44	15.63
12/02/2020 06:27:48	120220	12022020	062748	186.25	13.062543	-57.081840	186.46	-0.070	-0.170	2.510	186.25	-1.50	2.90	 	 	 	 	 	 	 	 	 	 	 	 	 	 	 	 	 	 	1581488868	8.27	15.32
12/02/2020 06:27:49	120220	12022020	062749	185.76	13.062507	-57.081850	185.97	-0.000	-0.400	3.100	185.76	-1.80	3.50	 	 	 	 	 	 	 	 	 	 	 	 	 	 	 	 	 	 	1581488869	8.08	14.96
12/02/2020 06:27:50	120220	12022020	062750	185.24	13.062470	-57.081858	185.48	-0.040	-0.500	3.670	185.24	-1.90	4.10	 	 	 	 	 	 	 	 	 	 	 	 	 	 	 	 	 	 	1581488870	8.26	15.30
12/02/2020 06:27:51	120220	12022020	062751	184.94	13.062433	-57.081870	185.21	-0.100	-0.370	3.870	184.94	-1.80	4.40	 	 	 	 	 	 	 	 	 	 	 	 	 	 	 	 	 	 	1581488871	8.22	15.22
12/02/2020 06:27:52	120220	12022020	062752	184.97	13.062398	-57.081880	185.25	0.050	-0.120	3.370	184.97	-1.50	3.90	 	 	 	 	 	 	 	 	 	 	 	 	 	 	 	 	 	 	1581488872	8.00	14.82
12/02/2020 06:27:53	120220	12022020	062753	185.34	13.062362	-57.081887	185.63	0.390	0.010	2.370	185.34	-1.40	3.00	 	 	 	 	 	 	 	 	 	 	 	 	 	 	 	 	 	 	1581488873	7.76	14.37
12/02/2020 06:27:54	120220	12022020	062754	185.80	13.062327	-57.081890	186.21	0.680	-0.170	1.340	185.80	-1.50	1.90	 	 	 	 	 	 	 	 	 	 	 	 	 	 	 	 	 	 	1581488874	7.78	14.41
12/02/2020 06:27:55	120220	12022020	062755	186.47	13.062288	-57.081892	186.72	0.700	-0.520	0.620	186.47	-1.90	1.20	 	 	 	 	 	 	 	 	 	 	 	 	 	 	 	 	 	 	1581488875	8.07	14.95
12/02/2020 06:27:56	120220	12022020	062756	186.73	13.062250	-57.081892	186.94	0.380	-0.760	0.550	186.73	-2.10	1.00	 	 	 	 	 	 	 	 	 	 	 	 	 	 	 	 	 	 	1581488876	8.25	15.28
12/02/2020 06:27:57	120220	12022020	062757	186.58	13.062212	-57.081893	186.78	-0.120	-0.920	1.350	186.58	-2.30	1.70	 	 	 	 	 	 	 	 	 	 	 	 	 	 	 	 	 	 	1581488877	8.15	15.09
12/02/2020 06:27:58	120220	12022020	062758	186.18	13.062175	-57.081902	186.42	-0.570	-1.060	2.490	186.18	-2.40	2.80	 	 	 	 	 	 	 	 	 	 	 	 	 	 	 	 	 	 	1581488878	8.26	15.30
12/02/2020 06:27:59	120220	12022020	062759	185.88	13.062135	-57.081913	186.16	-0.870	-0.820	3.460	185.88	-2.30	3.80	 	 	 	 	 	 	 	 	 	 	 	 	 	 	 	 	 	 	1581488879	8.71	16.13
12/02/2020 06:28:00	120220	12022020	062800	185.80	13.062098	-57.081928	186.11	-0.960	-0.160	4.040	185.80	-1.60	4.50	 	 	 	 	 	 	 	 	 	 	 	 	 	 	 	 	 	 	1581488880	8.67	16.06
12/02/2020 06:28:01	120220	12022020	062801	185.99	13.062062	-57.081942	186.30	-0.780	0.600	3.740	185.99	-0.90	4.30	1015.20	26.20	26.30	20.60	20.60	-1.0	71.0	71.0	397.0	25.8	274.00	11.30	79.00	11.80	16	9641.0	27.2	27.2	1581488881	8.31	15.39
12/02/2020 06:28:02	120220	12022020	062802	186.22	13.062027	-57.081952	186.49	-0.300	1.010	2.730	186.22	-0.40	3.30	 	 	 	 	 	 	 	 	 	 	 	 	 	 	 	 	 	 	1581488882	7.87	14.58
12/02/2020 06:28:03	120220	12022020	062803	186.51	13.061990	-57.081957	186.76	0.220	1.020	1.590	186.51	-0.30	2.20	 	 	 	 	 	 	 	 	 	 	 	 	 	 	 	 	 	 	1581488883	7.91	14.65
12/02/2020 06:28:04	120220	12022020	062804	186.80	13.061953	-57.081958	187.02	0.650	0.610	0.680	186.80	-0.70	1.30	 	 	 	 	 	 	 	 	 	 	 	 	 	 	 	 	 	 	1581488884	8.02	14.85
12/02/2020 06:28:05	120220	12022020	062805	186.88	13.061915	-57.081958	187.06	0.900	-0.190	0.400	186.88	-1.50	0.90	 	 	 	 	 	 	 	 	 	 	 	 	 	 	 	 	 	 	1581488885	8.16	15.11
12/02/2020 06:28:06	120220	12022020	062806	186.71	13.061877	-57.081958	186.89	0.840	-1.120	0.950	186.71	-2.40	1.30	 	 	 	 	 	 	 	 	 	 	 	 	 	 	 	 	 	 	1581488886	8.36	15.48
12/02/2020 06:28:07	120220	12022020	062807	186.43	13.061837	-57.081965	186.63	0.450	-1.720	2.030	186.43	-3.00	2.40	 	 	 	 	 	 	 	 	 	 	 	 	 	 	 	 	 	 	1581488887	8.53	15.80
12/02/2020 06:28:08	120220	12022020	062808	186.09	13.061798	-57.081978	186.18	-0.050	-1.730	3.110	186.09	-3.10	3.40	 	 	 	 	 	 	 	 	 	 	 	 	 	 	 	 	 	 	1581488888	8.55	15.83
12/02/2020 06:28:09	120220	12022020	062809	185.60	13.061762	-57.081992	185.84	-0.440	-1.090	3.760	185.60	-2.60	4.20	 	 	 	 	 	 	 	 	 	 	 	 	 	 	 	 	 	 	1581488889	8.44	15.63
12/02/2020 06:28:10	120220	12022020	062810	185.69	13.061727	-57.082005	185.97	-0.660	-0.070	3.640	185.69	-1.60	4.20	 	 	 	 	 	 	 	 	 	 	 	 	 	 	 	 	 	 	1581488890	8.08	14.96
12/02/2020 06:28:11	120220	12022020	062811	186.33	13.061693	-57.082015	186.62	-0.750	0.840	2.750	186.33	-0.60	3.40	 	 	 	 	 	 	 	 	 	 	 	 	 	 	 	 	 	 	1581488891	7.66	14.19
12/02/2020 06:28:12	120220	12022020	062812	187.11	13.061658	-57.082022	187.34	-0.630	1.070	1.640	187.11	-0.30	2.30	 	 	 	 	 	 	 	 	 	 	 	 	 	 	 	 	 	 	1581488892	7.47	13.83
12/02/2020 06:28:13	120220	12022020	062813	187.60	13.061622	-57.082025	187.79	-0.270	0.570	0.890	187.60	-0.70	1.50	 	 	 	 	 	 	 	 	 	 	 	 	 	 	 	 	 	 	1581488893	7.93	14.69
12/02/2020 06:28:14	120220	12022020	062814	187.78	13.061583	-57.082028	187.93	0.200	-0.100	0.610	187.78	-1.40	1.10	 	 	 	 	 	 	 	 	 	 	 	 	 	 	 	 	 	 	1581488894	8.53	15.80
12/02/2020 06:28:15	120220	12022020	062815	187.58	13.061543	-57.082033	187.71	0.690	-0.680	0.810	187.58	-2.00	1.20	 	 	 	 	 	 	 	 	 	 	 	 	 	 	 	 	 	 	1581488895	8.53	15.80
12/02/2020 06:28:16	120220	12022020	062816	186.98	13.061505	-57.082038	187.12	1.130	-1.210	1.430	186.98	-2.50	1.80	 	 	 	 	 	 	 	 	 	 	 	 	 	 	 	 	 	 	1581488896	8.44	15.63
12/02/2020 06:28:17	120220	12022020	062817	186.39	13.061465	-57.082043	186.55	1.090	-1.200	2.210	186.39	-2.60	2.60	 	 	 	 	 	 	 	 	 	 	 	 	 	 	 	 	 	 	1581488897	8.65	16.02
12/02/2020 06:28:18	120220	12022020	062818	186.06	13.061427	-57.082048	186.21	0.250	-0.470	3.070	186.06	-2.00	3.40	 	 	 	 	 	 	 	 	 	 	 	 	 	 	 	 	 	 	1581488898	8.36	15.48
12/02/2020 06:28:19	120220	12022020	062819	185.89	13.061392	-57.082058	186.15	-0.970	0.430	3.600	185.89	-1.00	4.00	 	 	 	 	 	 	 	 	 	 	 	 	 	 	 	 	 	 	1581488899	7.74	14.33
12/02/2020 06:28:20	120220	12022020	062820	186.13	13.061358	-57.082073	186.55	-1.740	0.990	3.590	186.13	-0.40	4.10	 	 	 	 	 	 	 	 	 	 	 	 	 	 	 	 	 	 	1581488900	7.78	14.41
12/02/2020 06:28:21	120220	12022020	062821	187.10	13.061325	-57.082092	187.40	-1.390	1.000	2.750	187.10	-0.30	3.40	 	 	 	 	 	 	 	 	 	 	 	 	 	 	 	 	 	 	1581488901	8.10	15.00
12/02/2020 06:28:22	120220	12022020	062822	187.74	13.061290	-57.082105	188.05	-0.120	0.170	1.480	187.74	-1.00	2.10	 	 	 	 	 	 	 	 	 	 	 	 	 	 	 	 	 	 	1581488902	8.06	14.93
12/02/2020 06:28:23	120220	12022020	062823	187.98	13.061250	-57.082110	188.13	1.170	-1.080	0.600	187.98	-2.30	1.20	 	 	 	 	 	 	 	 	 	 	 	 	 	 	 	 	 	 	1581488903	8.64	16.00
12/02/2020 06:28:24	120220	12022020	062824	187.76	13.061207	-57.082112	187.89	1.560	-1.660	0.270	187.76	-3.00	0.80	 	 	 	 	 	 	 	 	 	 	 	 	 	 	 	 	 	 	1581488904	9.23	17.09
12/02/2020 06:28:25	120220	12022020	062825	187.50	13.061167	-57.082113	187.65	0.930	-1.140	0.500	187.50	-2.60	0.90	 	 	 	 	 	 	 	 	 	 	 	 	 	 	 	 	 	 	1581488905	8.67	16.06
12/02/2020 06:28:26	120220	12022020	062826	187.34	13.061132	-57.082117	187.50	-0.120	-0.170	1.170	187.34	-1.70	1.60	 	 	 	 	 	 	 	 	 	 	 	 	 	 	 	 	 	 	1581488906	7.59	14.06
12/02/2020 06:28:27	120220	12022020	062827	187.26	13.061098	-57.082125	187.45	-0.850	0.400	1.890	187.26	-1.00	2.30	 	 	 	 	 	 	 	 	 	 	 	 	 	 	 	 	 	 	1581488907	7.25	13.43
12/02/2020 06:28:28	120220	12022020	062828	187.12	13.061065	-57.082137	187.30	-0.930	0.280	2.590	187.12	-1.00	3.00	 	 	 	 	 	 	 	 	 	 	 	 	 	 	 	 	 	 	1581488908	7.85	14.54
12/02/2020 06:28:29	120220	12022020	062829	186.89	13.061027	-57.082150	187.11	-0.530	-0.150	3.120	186.89	-1.50	3.50	 	 	 	 	 	 	 	 	 	 	 	 	 	 	 	 	 	 	1581488909	8.72	16.15
12/02/2020 06:28:30	120220	12022020	062830	186.87	13.060985	-57.082163	187.13	-0.130	-0.230	3.130	186.87	-1.60	3.60	 	 	 	 	 	 	 	 	 	 	 	 	 	 	 	 	 	 	1581488910	9.09	16.83
12/02/2020 06:28:31	120220	12022020	062831	187.11	13.060947	-57.082175	187.38	0.010	0.160	2.770	187.11	-1.30	3.30	 	 	 	 	 	 	 	 	 	 	 	 	 	 	 	 	 	 	1581488911	8.54	15.82
12/02/2020 06:28:32	120220	12022020	062832	187.27	13.060913	-57.082183	187.51	0.130	0.440	2.190	187.27	-0.90	2.80	 	 	 	 	 	 	 	 	 	 	 	 	 	 	 	 	 	 	1581488912	7.70	14.26
12/02/2020 06:28:33	120220	12022020	062833	187.25	13.060878	-57.082188	187.43	0.510	0.120	1.490	187.25	-1.20	2.10	 	 	 	 	 	 	 	 	 	 	 	 	 	 	 	 	 	 	1581488913	7.56	14.00
12/02/2020 06:28:34	120220	12022020	062834	187.14	13.060840	-57.082190	187.30	0.970	-0.540	0.990	187.14	-1.80	1.50	 	 	 	 	 	 	 	 	 	 	 	 	 	 	 	 	 	 	1581488914	8.17	15.13
12/02/2020 06:28:35	120220	12022020	062835	187.14	13.060800	-57.082192	187.34	0.930	-0.910	0.860	187.14	-2.30	1.40	 	 	 	 	 	 	 	 	 	 	 	 	 	 	 	 	 	 	1581488915	8.64	16.00
12/02/2020 06:28:36	120220	12022020	062836	187.13	13.060762	-57.082195	187.32	0.230	-0.820	1.370	187.13	-2.20	1.80	 	 	 	 	 	 	 	 	 	 	 	 	 	 	 	 	 	 	1581488916	8.29	15.35
12/02/2020 06:28:37	120220	12022020	062837	186.93	13.060727	-57.082205	187.14	-0.580	-0.560	2.360	186.93	-2.00	2.70	 	 	 	 	 	 	 	 	 	 	 	 	 	 	 	 	 	 	1581488917	7.89	14.61
12/02/2020 06:28:38	120220	12022020	062838	186.68	13.060692	-57.082220	186.91	-0.840	-0.350	3.120	186.68	-1.70	3.50	 	 	 	 	 	 	 	 	 	 	 	 	 	 	 	 	 	 	1581488918	8.07	14.95
12/02/2020 06:28:39	120220	12022020	062839	186.65	13.060657	-57.082237	186.91	-0.470	-0.250	3.190	186.65	-1.60	3.70	 	 	 	 	 	 	 	 	 	 	 	 	 	 	 	 	 	 	1581488919	8.33	15.43
12/02/2020 06:28:40	120220	12022020	062840	186.96	13.060618	-57.082248	187.24	0.120	-0.180	2.590	186.96	-1.60	3.20	 	 	 	 	 	 	 	 	 	 	 	 	 	 	 	 	 	 	1581488920	8.40	15.56
12/02/2020 06:28:41	120220	12022020	062841	187.43	13.060582	-57.082255	187.68	0.470	-0.020	1.610	187.43	-1.40	2.20	 	 	 	 	 	 	 	 	 	 	 	 	 	 	 	 	 	 	1581488921	8.30	15.37
12/02/2020 06:28:42	120220	12022020	062842	187.72	13.060543	-57.082257	187.94	0.400	0.190	0.830	187.72	-1.20	1.40	 	 	 	 	 	 	 	 	 	 	 	 	 	 	 	 	 	 	1581488922	8.07	14.95
12/02/2020 06:28:43	120220	12022020	062843	187.80	13.060507	-57.082257	187.99	0.000	0.250	0.660	187.80	-1.10	1.20	 	 	 	 	 	 	 	 	 	 	 	 	 	 	 	 	 	 	1581488923	7.95	14.72
12/02/2020 06:28:44	120220	12022020	062844	187.74	13.060470	-57.082260	187.89	-0.400	0.030	1.040	187.74	-1.30	1.50	 	 	 	 	 	 	 	 	 	 	 	 	 	 	 	 	 	 	1581488924	7.86	14.56
12/02/2020 06:28:45	120220	12022020	062845	187.46	13.060433	-57.082270	187.64	-0.400	-0.480	1.750	187.46	-1.80	2.20	 	 	 	 	 	 	 	 	 	 	 	 	 	 	 	 	 	 	1581488925	8.14	15.08
12/02/2020 06:28:46	120220	12022020	062846	187.13	13.060395	-57.082283	187.34	0.100	-0.970	2.250	187.13	-2.30	2.70	 	 	 	 	 	 	 	 	 	 	 	 	 	 	 	 	 	 	1581488926	8.62	15.96
12/02/2020 06:28:47	120220	12022020	062847	186.90	13.060357	-57.082295	187.13	0.680	-1.010	2.300	186.90	-2.40	2.80	 	 	 	 	 	 	 	 	 	 	 	 	 	 	 	 	 	 	1581488927	8.77	16.24
12/02/2020 06:28:48	120220	12022020	062848	186.93	13.060318	-57.082302	187.20	0.760	-0.400	2.130	186.93	-1.90	2.70	 	 	 	 	 	 	 	 	 	 	 	 	 	 	 	 	 	 	1581488928	8.37	15.50
12/02/2020 06:28:49	120220	12022020	062849	187.19	13.060283	-57.082307	187.45	0.250	0.440	1.850	187.19	-1.00	2.40	 	 	 	 	 	 	 	 	 	 	 	 	 	 	 	 	 	 	1581488929	7.62	14.11
12/02/2020 06:28:50	120220	12022020	062850	187.42	13.060250	-57.082312	187.67	-0.420	0.850	1.570	187.42	-0.50	2.10	 	 	 	 	 	 	 	 	 	 	 	 	 	 	 	 	 	 	1581488930	7.16	13.26
12/02/2020 06:28:51	120220	12022020	062851	187.51	13.060217	-57.082318	187.74	-0.740	0.460	1.590	187.51	-0.80	2.10	 	 	 	 	 	 	 	 	 	 	 	 	 	 	 	 	 	 	1581488931	7.41	13.72
12/02/2020 06:28:52	120220	12022020	062852	187.36	13.060180	-57.082328	187.57	-0.430	-0.490	1.920	187.36	-1.70	2.40	 	 	 	 	 	 	 	 	 	 	 	 	 	 	 	 	 	 	1581488932	8.21	15.20
12/02/2020 06:28:53	120220	12022020	062853	186.98	13.060140	-57.082342	187.19	0.230	-1.310	2.270	186.98	-2.60	2.70	 	 	 	 	 	 	 	 	 	 	 	 	 	 	 	 	 	 	1581488933	8.92	16.52
12/02/2020 06:28:54	120220	12022020	062854	186.58	13.060100	-57.082352	186.80	0.690	-1.380	2.450	186.58	-2.80	2.90	 	 	 	 	 	 	 	 	 	 	 	 	 	 	 	 	 	 	1581488934	8.97	16.61
12/02/2020 06:28:55	120220	12022020	062855	186.52	13.060062	-57.082360	186.79	0.620	-0.630	2.300	186.52	-2.10	2.80	 	 	 	 	 	 	 	 	 	 	 	 	 	 	 	 	 	 	1581488935	8.37	15.50
12/02/2020 06:28:56	120220	12022020	062856	186.94	13.060027	-57.082365	187.40	0.110	0.480	1.810	186.94	-1.00	2.40	 	 	 	 	 	 	 	 	 	 	 	 	 	 	 	 	 	 	1581488936	7.55	13.98
12/02/2020 06:28:57	120220	12022020	062857	187.87	13.059995	-57.082368	188.13	-0.470	1.020	1.380	187.87	-0.40	1.90	 	 	 	 	 	 	 	 	 	 	 	 	 	 	 	 	 	 	1581488937	6.92	12.82
12/02/2020 06:28:58	120220	12022020	062858	188.13	13.059962	-57.082373	188.31	-0.580	0.290	1.490	188.13	-0.90	1.90	 	 	 	 	 	 	 	 	 	 	 	 	 	 	 	 	 	 	1581488938	7.23	13.39
12/02/2020 06:28:59	120220	12022020	062859	187.64	13.059922	-57.082382	187.78	-0.150	-1.020	2.130	187.64	-2.20	2.50	 	 	 	 	 	 	 	 	 	 	 	 	 	 	 	 	 	 	1581488939	8.55	15.83
12/02/2020 06:29:00	120220	12022020	062900	186.91	13.059880	-57.082393	187.10	0.330	-1.570	2.950	186.91	-2.90	3.30	 	 	 	 	 	 	 	 	 	 	 	 	 	 	 	 	 	 	1581488940	9.45	17.50
12/02/2020 06:29:01	120220	12022020	062901	186.46	13.059840	-57.082405	186.69	0.420	-0.870	3.340	186.46	-2.40	3.80	1015.30	26.20	26.30	20.30	20.40	-1.0	70.0	70.0	396.0	25.8	268.00	10.90	75.00	11.80	16	9253.0	27.2	27.2	1581488941	8.97	16.61
12/02/2020 06:29:02	120220	12022020	062902	186.59	13.059805	-57.082413	186.86	0.090	0.390	3.020	186.59	-1.10	3.60	 	 	 	 	 	 	 	 	 	 	 	 	 	 	 	 	 	 	1581488942	7.75	14.35
12/02/2020 06:29:03	120220	12022020	062903	187.05	13.059773	-57.082420	187.32	-0.230	1.070	2.400	187.05	-0.30	3.00	 	 	 	 	 	 	 	 	 	 	 	 	 	 	 	 	 	 	1581488943	6.97	12.91
12/02/2020 06:29:04	120220	12022020	062904	187.49	13.059740	-57.082425	187.73	-0.230	0.790	1.820	187.49	-0.50	2.40	 	 	 	 	 	 	 	 	 	 	 	 	 	 	 	 	 	 	1581488944	7.34	13.59
12/02/2020 06:29:05	120220	12022020	062905	187.75	13.059702	-57.082432	187.96	-0.000	0.000	1.500	187.75	-1.30	2.00	 	 	 	 	 	 	 	 	 	 	 	 	 	 	 	 	 	 	1581488945	8.15	15.09
12/02/2020 06:29:06	120220	12022020	062906	187.55	13.059663	-57.082438	187.73	0.280	-0.840	1.550	187.55	-2.10	2.00	 	 	 	 	 	 	 	 	 	 	 	 	 	 	 	 	 	 	1581488946	8.52	15.78
12/02/2020 06:29:07	120220	12022020	062907	186.98	13.059623	-57.082447	187.15	0.460	-1.410	1.900	186.98	-2.70	2.40	 	 	 	 	 	 	 	 	 	 	 	 	 	 	 	 	 	 	1581488947	8.60	15.93
12/02/2020 06:29:08	120220	12022020	062908	186.40	13.059585	-57.082455	186.60	0.420	-1.280	2.230	186.40	-2.70	2.70	 	 	 	 	 	 	 	 	 	 	 	 	 	 	 	 	 	 	1581488948	8.56	15.85
12/02/2020 06:29:09	120220	12022020	062909	186.33	13.059548	-57.082463	186.58	0.100	-0.390	2.140	186.33	-1.90	2.70	 	 	 	 	 	 	 	 	 	 	 	 	 	 	 	 	 	 	1581488949	8.11	15.02
12/02/2020 06:29:10	120220	12022020	062910	186.63	13.059513	-57.082470	186.99	-0.310	0.500	1.840	186.63	-1.00	2.40	 	 	 	 	 	 	 	 	 	 	 	 	 	 	 	 	 	 	1581488950	7.38	13.67
12/02/2020 06:29:11	120220	12022020	062911	187.15	13.059482	-57.082477	187.41	-0.490	0.640	1.540	187.15	-0.70	2.10	 	 	 	 	 	 	 	 	 	 	 	 	 	 	 	 	 	 	1581488951	7.25	13.43
12/02/2020 06:29:12	120220	12022020	062912	187.47	13.059445	-57.082483	187.70	-0.300	0.060	1.440	187.47	-1.20	1.90	 	 	 	 	 	 	 	 	 	 	 	 	 	 	 	 	 	 	1581488952	7.94	14.70
12/02/2020 06:29:13	120220	12022020	062913	187.53	13.059405	-57.082490	187.74	0.040	-0.710	1.690	187.53	-2.00	2.10	 	 	 	 	 	 	 	 	 	 	 	 	 	 	 	 	 	 	1581488953	8.68	16.08
12/02/2020 06:29:14	120220	12022020	062914	187.48	13.059363	-57.082498	187.72	0.110	-0.920	2.040	187.48	-2.30	2.50	 	 	 	 	 	 	 	 	 	 	 	 	 	 	 	 	 	 	1581488954	8.94	16.56
12/02/2020 06:29:15	120220	12022020	062915	187.49	13.059327	-57.082507	187.75	-0.210	-0.350	2.410	187.49	-1.80	2.90	 	 	 	 	 	 	 	 	 	 	 	 	 	 	 	 	 	 	1581488955	8.42	15.59
12/02/2020 06:29:16	120220	12022020	062916	187.41	13.059292	-57.082518	187.64	-0.450	0.290	2.720	187.41	-1.10	3.20	 	 	 	 	 	 	 	 	 	 	 	 	 	 	 	 	 	 	1581488956	7.56	14.00
12/02/2020 06:29:17	120220	12022020	062917	187.08	13.059260	-57.082530	187.28	-0.050	0.190	2.760	187.08	-1.10	3.30	 	 	 	 	 	 	 	 	 	 	 	 	 	 	 	 	 	 	1581488957	7.43	13.76
12/02/2020 06:29:18	120220	12022020	062918	186.57	13.059222	-57.082538	186.77	0.770	-0.540	2.560	186.57	-1.80	3.10	 	 	 	 	 	 	 	 	 	 	 	 	 	 	 	 	 	 	1581488958	8.22	15.22
12/02/2020 06:29:19	120220	12022020	062919	186.31	13.059180	-57.082543	186.57	1.040	-0.770	2.400	186.31	-2.20	2.90	 	 	 	 	 	 	 	 	 	 	 	 	 	 	 	 	 	 	1581488959	9.06	16.78
12/02/2020 06:29:20	120220	12022020	062920	186.63	13.059140	-57.082547	186.93	0.300	-0.020	2.250	186.63	-1.50	2.80	 	 	 	 	 	 	 	 	 	 	 	 	 	 	 	 	 	 	1581488960	8.58	15.89
12/02/2020 06:29:21	120220	12022020	062921	187.31	13.059108	-57.082552	187.60	-0.870	0.900	2.000	187.31	-0.60	2.50	 	 	 	 	 	 	 	 	 	 	 	 	 	 	 	 	 	 	1581488961	7.25	13.43
12/02/2020 06:29:22	120220	12022020	062922	187.78	13.059077	-57.082560	188.12	-1.420	0.770	2.000	187.78	-0.50	2.50	 	 	 	 	 	 	 	 	 	 	 	 	 	 	 	 	 	 	1581488962	6.75	12.50
12/02/2020 06:29:23	120220	12022020	062923	188.10	13.059043	-57.082573	188.33	-0.900	-0.430	2.090	188.13	-1.60	2.60	 	 	 	 	 	 	 	 	 	 	 	 	 	 	 	 	 	 	1581488963	7.85	14.54
12/02/2020 06:29:24	120220	12022020	062924	188.09	13.059003	-57.082587	188.25	0.190	-1.580	2.080	188.09	-2.90	2.60	 	 	 	 	 	 	 	 	 	 	 	 	 	 	 	 	 	 	1581488964	9.09	16.83
12/02/2020 06:29:25	120220	12022020	062925	187.73	13.058962	-57.082598	187.92	1.000	-1.730	1.770	187.73	-3.20	2.30	 	 	 	 	 	 	 	 	 	 	 	 	 	 	 	 	 	 	1581488965	9.18	17.00
12/02/2020 06:29:26	120220	12022020	062926	187.41	13.058923	-57.082603	187.59	1.060	-0.850	1.350	187.41	-2.40	1.90	 	 	 	 	 	 	 	 	 	 	 	 	 	 	 	 	 	 	1581488966	8.29	15.35
12/02/2020 06:29:27	120220	12022020	062927	187.21	13.058888	-57.082605	187.38	0.520	0.280	1.100	187.21	-1.20	1.60	 	 	 	 	 	 	 	 	 	 	 	 	 	 	 	 	 	 	1581488967	7.37	13.65
12/02/2020 06:29:28	120220	12022020	062928	187.09	13.058857	-57.082605	187.26	-0.160	0.870	1.170	187.09	-0.50	1.60	 	 	 	 	 	 	 	 	 	 	 	 	 	 	 	 	 	 	1581488968	7.11	13.17
12/02/2020 06:29:29	120220	12022020	062929	186.94	13.058820	-57.082610	187.10	-0.620	0.630	1.750	186.94	-0.70	2.20	 	 	 	 	 	 	 	 	 	 	 	 	 	 	 	 	 	 	1581488969	7.62	14.11
12/02/2020 06:29:30	120220	12022020	062930	186.64	13.058783	-57.082620	186.84	-0.790	0.020	2.650	186.64	-1.30	3.00	 	 	 	 	 	 	 	 	 	 	 	 	 	 	 	 	 	 	1581488970	8.52	15.78
12/02/2020 06:29:31	120220	12022020	062931	186.47	13.058743	-57.082637	186.70	-0.790	-0.250	3.270	186.47	-1.60	3.70	 	 	 	 	 	 	 	 	 	 	 	 	 	 	 	 	 	 	1581488971	9.06	16.78
12/02/2020 06:29:32	120220	12022020	062932	186.57	13.058707	-57.082652	186.83	-0.620	-0.070	3.350	186.57	-1.50	3.90	 	 	 	 	 	 	 	 	 	 	 	 	 	 	 	 	 	 	1581488972	8.60	15.93
12/02/2020 06:29:33	120220	12022020	062933	186.71	13.058673	-57.082665	186.94	-0.110	-0.090	2.760	186.71	-1.40	3.40	 	 	 	 	 	 	 	 	 	 	 	 	 	 	 	 	 	 	1581488973	7.80	14.45
12/02/2020 06:29:34	120220	12022020	062934	186.82	13.058638	-57.082673	187.04	0.660	-0.580	1.660	186.82	-1.90	2.30	 	 	 	 	 	 	 	 	 	 	 	 	 	 	 	 	 	 	1581488974	7.70	14.26
12/02/2020 06:29:35	120220	12022020	062935	186.91	13.058598	-57.082675	187.12	1.190	-0.950	0.670	186.91	-2.30	1.30	 	 	 	 	 	 	 	 	 	 	 	 	 	 	 	 	 	 	1581488975	8.30	15.37
12/02/2020 06:29:36	120220	12022020	062936	187.02	13.058560	-57.082673	187.22	1.000	-0.800	0.310	187.02	-2.20	0.80	 	 	 	 	 	 	 	 	 	 	 	 	 	 	 	 	 	 	1581488976	8.40	15.56
12/02/2020 06:29:37	120220	12022020	062937	187.03	13.058523	-57.082673	187.22	0.210	-0.420	0.640	187.03	-1.80	1.10	 	 	 	 	 	 	 	 	 	 	 	 	 	 	 	 	 	 	1581488977	7.81	14.46
12/02/2020 06:29:38	120220	12022020	062938	186.72	13.058488	-57.082678	186.91	-0.590	-0.270	1.550	186.72	-1.60	1.90	 	 	 	 	 	 	 	 	 	 	 	 	 	 	 	 	 	 	1581488978	7.52	13.93
12/02/2020 06:29:39	120220	12022020	062939	186.26	13.058453	-57.082690	186.48	-0.940	-0.380	2.670	186.26	-1.70	3.00	 	 	 	 	 	 	 	 	 	 	 	 	 	 	 	 	 	 	1581488979	8.05	14.91
12/02/2020 06:29:40	120220	12022020	062940	185.85	13.058417	-57.082705	186.10	-0.730	-0.430	3.520	185.85	-1.80	3.90	 	 	 	 	 	 	 	 	 	 	 	 	 	 	 	 	 	 	1581488980	8.70	16.11
12/02/2020 06:29:41	120220	12022020	062941	185.71	13.058378	-57.082720	185.98	-0.260	-0.120	3.620	185.71	-1.60	4.10	 	 	 	 	 	 	 	 	 	 	 	 	 	 	 	 	 	 	1581488981	8.79	16.28
12/02/2020 06:29:42	120220	12022020	062942	185.98	13.058340	-57.082730	186.25	0.030	0.470	3.070	185.98	-1.00	3.60	 	 	 	 	 	 	 	 	 	 	 	 	 	 	 	 	 	 	1581488982	8.23	15.24
12/02/2020 06:29:43	120220	12022020	062943	186.44	13.058307	-57.082737	186.71	0.060	0.800	2.310	186.44	-0.60	2.90	 	 	 	 	 	 	 	 	 	 	 	 	 	 	 	 	 	 	1581488983	7.60	14.08
12/02/2020 06:29:44	120220	12022020	062944	186.88	13.058272	-57.082740	187.14	0.050	0.600	1.560	186.88	-0.70	2.20	 	 	 	 	 	 	 	 	 	 	 	 	 	 	 	 	 	 	1581488984	7.56	14.00
12/02/2020 06:29:45	120220	12022020	062945	187.25	13.058235	-57.082743	187.49	0.150	0.210	0.950	187.25	-1.10	1.50	 	 	 	 	 	 	 	 	 	 	 	 	 	 	 	 	 	 	1581488985	7.89	14.61
12/02/2020 06:29:46	120220	12022020	062946	187.32	13.058198	-57.082748	187.51	0.380	-0.320	0.750	187.32	-1.60	1.30	 	 	 	 	 	 	 	 	 	 	 	 	 	 	 	 	 	 	1581488986	7.86	14.56
12/02/2020 06:29:47	120220	12022020	062947	187.02	13.058162	-57.082753	187.18	0.730	-1.070	1.000	187.02	-2.40	1.50	 	 	 	 	 	 	 	 	 	 	 	 	 	 	 	 	 	 	1581488987	7.86	14.56
12/02/2020 06:29:48	120220	12022020	062948	186.66	13.058123	-57.082758	186.76	0.920	-1.730	1.360	186.66	-3.10	1.80	 	 	 	 	 	 	 	 	 	 	 	 	 	 	 	 	 	 	1581488988	8.27	15.32
12/02/2020 06:29:49	120220	12022020	062949	186.30	13.058085	-57.082763	186.52	0.590	-1.730	2.010	186.30	-3.20	2.40	 	 	 	 	 	 	 	 	 	 	 	 	 	 	 	 	 	 	1581488989	8.56	15.85
12/02/2020 06:29:50	120220	12022020	062950	186.24	13.058047	-57.082772	186.50	-0.260	-0.980	2.930	186.24	-2.50	3.30	 	 	 	 	 	 	 	 	 	 	 	 	 	 	 	 	 	 	1581488990	8.22	15.22
12/02/2020 06:29:51	120220	12022020	062951	186.35	13.058013	-57.082785	186.63	-1.110	0.100	3.570	186.35	-1.40	4.00	 	 	 	 	 	 	 	 	 	 	 	 	 	 	 	 	 	 	1581488991	7.82	14.48
12/02/2020 06:29:52	120220	12022020	062952	186.54	13.057980	-57.082800	186.83	-1.360	0.940	3.620	186.54	-0.50	4.10	 	 	 	 	 	 	 	 	 	 	 	 	 	 	 	 	 	 	1581488992	7.65	14.17
12/02/2020 06:29:53	120220	12022020	062953	186.88	13.057947	-57.082813	187.16	-0.810	1.060	3.020	186.88	-0.30	3.60	 	 	 	 	 	 	 	 	 	 	 	 	 	 	 	 	 	 	1581488993	7.72	14.30
12/02/2020 06:29:54	120220	12022020	062954	187.30	13.057910	-57.082820	187.54	0.200	0.510	2.010	187.30	-0.80	2.60	 	 	 	 	 	 	 	 	 	 	 	 	 	 	 	 	 	 	1581488994	8.17	15.13
12/02/2020 06:29:55	120220	12022020	062955	187.54	13.057868	-57.082822	187.76	0.890	-0.210	1.310	187.54	-1.50	1.90	 	 	 	 	 	 	 	 	 	 	 	 	 	 	 	 	 	 	1581488995	8.74	16.19
12/02/2020 06:29:56	120220	12022020	062956	187.73	13.057828	-57.082822	187.97	0.730	-0.450	1.240	187.73	-1.90	1.70	 	 	 	 	 	 	 	 	 	 	 	 	 	 	 	 	 	 	1581488996	8.83	16.35
12/02/2020 06:29:57	120220	12022020	062957	187.91	13.057792	-57.082825	188.16	-0.060	-0.220	1.760	187.91	-1.60	2.20	 	 	 	 	 	 	 	 	 	 	 	 	 	 	 	 	 	 	1581488997	8.00	14.82
12/02/2020 06:29:58	120220	12022020	062958	187.64	13.057758	-57.082833	187.87	-0.660	-0.280	2.770	187.64	-1.60	3.10	 	 	 	 	 	 	 	 	 	 	 	 	 	 	 	 	 	 	1581488998	7.31	13.54
12/02/2020 06:29:59	120220	12022020	062959	186.71	13.057725	-57.082850	186.94	-0.450	-0.980	3.910	186.71	-2.30	4.30	 	 	 	 	 	 	 	 	 	 	 	 	 	 	 	 	 	 	1581488999	7.89	14.61
12/02/2020 06:30:00	120220	12022020	063000	185.86	13.057687	-57.082867	185.92	0.330	-1.430	4.400	185.86	-2.80	4.90	 	 	 	 	 	 	 	 	 	 	 	 	 	 	 	 	 	 	1581489000	9.02	16.71
12/02/2020 06:30:01	120220	12022020	063001	185.26	13.057647	-57.082882	185.56	0.920	-0.660	3.760	185.26	-2.20	4.40	1015.40	26.20	26.20	20.50	20.50	-1.0	70.0	70.0	396.0	25.8	268.00	10.40	74.00	11.30	16	9080.0	27.2	27.2	1581489001	8.97	16.61
12/02/2020 06:30:02	120220	12022020	063002	185.63	13.057613	-57.082887	186.10	0.800	0.820	2.230	185.63	-0.80	3.00	 	 	 	 	 	 	 	 	 	 	 	 	 	 	 	 	 	 	1581489002	7.53	13.95
12/02/2020 06:30:03	120220	12022020	063003	186.82	13.057583	-57.082883	187.12	0.120	1.520	0.670	186.82	0.10	1.40	 	 	 	 	 	 	 	 	 	 	 	 	 	 	 	 	 	 	1581489003	6.47	11.98
12/02/2020 06:30:04	120220	12022020	063004	187.59	13.057552	-57.082880	187.80	-0.390	0.560	-0.040	187.59	-0.60	0.50	 	 	 	 	 	 	 	 	 	 	 	 	 	 	 	 	 	 	1581489004	6.83	12.65
12/02/2020 06:30:05	120220	12022020	063005	187.59	13.057513	-57.082885	187.78	-0.230	-1.410	0.290	187.59	-2.50	0.70	 	 	 	 	 	 	 	 	 	 	 	 	 	 	 	 	 	 	1581489005	8.28	15.33
12/02/2020 06:30:06	120220	12022020	063006	187.12	13.057468	-57.082893	187.30	0.220	-2.570	1.240	187.12	-3.90	1.60	 	 	 	 	 	 	 	 	 	 	 	 	 	 	 	 	 	 	1581489006	9.57	17.72
12/02/2020 06:30:07	120220	12022020	063007	186.78	13.057428	-57.082905	187.01	0.170	-2.030	2.150	186.78	-3.60	2.50	 	 	 	 	 	 	 	 	 	 	 	 	 	 	 	 	 	 	1581489007	9.17	16.98
12/02/2020 06:30:08	120220	12022020	063008	186.64	13.057393	-57.082915	186.89	-0.490	-0.580	2.890	186.64	-2.10	3.30	 	 	 	 	 	 	 	 	 	 	 	 	 	 	 	 	 	 	1581489008	7.71	14.28
12/02/2020 06:30:09	120220	12022020	063009	186.33	13.057363	-57.082927	186.56	-1.060	0.470	3.600	186.33	-1.00	4.00	 	 	 	 	 	 	 	 	 	 	 	 	 	 	 	 	 	 	1581489009	7.05	13.06
12/02/2020 06:30:10	120220	12022020	063010	185.85	13.057330	-57.082942	186.09	-0.930	0.820	4.070	185.85	-0.60	4.50	 	 	 	 	 	 	 	 	 	 	 	 	 	 	 	 	 	 	1581489010	7.72	14.30
12/02/2020 06:30:11	120220	12022020	063011	185.66	13.057293	-57.082955	185.93	-0.220	1.010	3.890	185.66	-0.40	4.40	 	 	 	 	 	 	 	 	 	 	 	 	 	 	 	 	 	 	1581489011	8.50	15.74
12/02/2020 06:30:12	120220	12022020	063012	185.87	13.057255	-57.082965	186.15	0.560	1.040	3.050	185.87	-0.30	3.70	 	 	 	 	 	 	 	 	 	 	 	 	 	 	 	 	 	 	1581489012	8.31	15.39
12/02/2020 06:30:13	120220	12022020	063013	186.47	13.057218	-57.082968	186.76	0.940	0.720	1.830	186.47	-0.60	2.50	 	 	 	 	 	 	 	 	 	 	 	 	 	 	 	 	 	 	1581489013	8.01	14.83
12/02/2020 06:30:14	120220	12022020	063014	187.11	13.057182	-57.082967	187.53	0.820	0.130	0.900	187.11	-1.20	1.50	 	 	 	 	 	 	 	 	 	 	 	 	 	 	 	 	 	 	1581489014	7.95	14.72
12/02/2020 06:30:15	120220	12022020	063015	187.80	13.057145	-57.082967	188.01	0.410	-0.560	0.800	187.80	-1.80	1.30	 	 	 	 	 	 	 	 	 	 	 	 	 	 	 	 	 	 	1581489015	7.79	14.43
12/02/2020 06:30:16	120220	12022020	063016	187.69	13.057110	-57.082972	187.85	0.050	-1.390	1.460	187.69	-2.70	1.90	 	 	 	 	 	 	 	 	 	 	 	 	 	 	 	 	 	 	1581489016	7.61	14.09
12/02/2020 06:30:17	120220	12022020	063017	187.03	13.057075	-57.082983	187.21	-0.080	-1.970	2.540	187.03	-3.30	2.90	 	 	 	 	 	 	 	 	 	 	 	 	 	 	 	 	 	 	1581489017	8.03	14.87
12/02/2020 06:30:18	120220	12022020	063018	186.40	13.057038	-57.082998	186.63	-0.050	-1.720	3.300	186.40	-3.20	3.70	 	 	 	 	 	 	 	 	 	 	 	 	 	 	 	 	 	 	1581489018	8.38	15.52
12/02/2020 06:30:19	120220	12022020	063019	186.12	13.057003	-57.083012	186.37	-0.030	-0.760	3.330	186.12	-2.30	3.80	 	 	 	 	 	 	 	 	 	 	 	 	 	 	 	 	 	 	1581489019	7.95	14.72
12/02/2020 06:30:20	120220	12022020	063020	186.02	13.056970	-57.083020	186.29	-0.100	0.150	2.920	186.02	-1.30	3.50	 	 	 	 	 	 	 	 	 	 	 	 	 	 	 	 	 	 	1581489020	7.28	13.48
12/02/2020 06:30:21	120220	12022020	063021	186.10	13.056937	-57.083027	186.38	-0.220	0.570	2.280	186.10	-0.80	2.90	 	 	 	 	 	 	 	 	 	 	 	 	 	 	 	 	 	 	1581489021	7.39	13.69
12/02/2020 06:30:22	120220	12022020	063022	186.37	13.056900	-57.083030	186.65	-0.310	0.630	1.670	186.37	-0.80	2.30	 	 	 	 	 	 	 	 	 	 	 	 	 	 	 	 	 	 	1581489022	7.87	14.58
12/02/2020 06:30:23	120220	12022020	063023	186.63	13.056863	-57.083035	186.87	-0.280	0.420	1.360	186.63	-0.90	1.90	 	 	 	 	 	 	 	 	 	 	 	 	 	 	 	 	 	 	1581489023	8.08	14.96
12/02/2020 06:30:24	120220	12022020	063024	186.61	13.056825	-57.083040	186.79	-0.100	-0.010	1.410	186.61	-1.30	1.90	 	 	 	 	 	 	 	 	 	 	 	 	 	 	 	 	 	 	1581489024	8.12	15.04
12/02/2020 06:30:25	120220	12022020	063025	186.33	13.056788	-57.083047	186.55	0.110	-0.400	1.650	186.33	-1.70	2.10	 	 	 	 	 	 	 	 	 	 	 	 	 	 	 	 	 	 	1581489025	8.25	15.28
12/02/2020 06:30:26	120220	12022020	063026	186.12	13.056750	-57.083055	186.36	0.160	-0.550	1.870	186.12	-1.90	2.40	 	 	 	 	 	 	 	 	 	 	 	 	 	 	 	 	 	 	1581489026	8.20	15.19
12/02/2020 06:30:27	120220	12022020	063027	186.01	13.056715	-57.083062	186.24	0.080	-0.430	2.040	186.01	-1.80	2.50	 	 	 	 	 	 	 	 	 	 	 	 	 	 	 	 	 	 	1581489027	7.98	14.78
12/02/2020 06:30:28	120220	12022020	063028	186.04	13.056680	-57.083072	186.29	-0.020	-0.140	2.120	186.04	-1.60	2.60	 	 	 	 	 	 	 	 	 	 	 	 	 	 	 	 	 	 	1581489028	7.75	14.35
12/02/2020 06:30:29	120220	12022020	063029	186.34	13.056645	-57.083080	186.62	-0.010	0.080	1.990	186.34	-1.30	2.50	 	 	 	 	 	 	 	 	 	 	 	 	 	 	 	 	 	 	1581489029	7.57	14.02
12/02/2020 06:30:30	120220	12022020	063030	186.66	13.056610	-57.083087	186.94	0.100	-0.020	1.800	186.66	-1.40	2.30	 	 	 	 	 	 	 	 	 	 	 	 	 	 	 	 	 	 	1581489030	7.53	13.95
12/02/2020 06:30:31	120220	12022020	063031	186.68	13.056575	-57.083092	186.92	0.200	-0.450	1.850	186.68	-1.80	2.30	 	 	 	 	 	 	 	 	 	 	 	 	 	 	 	 	 	 	1581489031	7.76	14.37
12/02/2020 06:30:32	120220	12022020	063032	186.35	13.056537	-57.083098	186.57	0.100	-0.830	2.240	186.35	-2.20	2.70	 	 	 	 	 	 	 	 	 	 	 	 	 	 	 	 	 	 	1581489032	8.15	15.09
12/02/2020 06:30:33	120220	12022020	063033	185.82	13.056500	-57.083107	186.06	-0.140	-0.880	2.780	185.82	-2.30	3.20	 	 	 	 	 	 	 	 	 	 	 	 	 	 	 	 	 	 	1581489033	8.28	15.33
12/02/2020 06:30:34	120220	12022020	063034	185.44	13.056463	-57.083117	185.71	-0.320	-0.430	3.110	185.44	-1.90	3.60	 	 	 	 	 	 	 	 	 	 	 	 	 	 	 	 	 	 	1581489034	8.20	15.19
12/02/2020 06:30:35	120220	12022020	063035	185.38	13.056428	-57.083128	185.65	-0.200	0.260	2.930	185.38	-1.20	3.50	 	 	 	 	 	 	 	 	 	 	 	 	 	 	 	 	 	 	1581489035	7.81	14.46
12/02/2020 06:30:36	120220	12022020	063036	185.59	13.056395	-57.083135	185.86	0.090	0.520	2.320	185.59	-0.90	2.90	 	 	 	 	 	 	 	 	 	 	 	 	 	 	 	 	 	 	1581489036	7.42	13.74
12/02/2020 06:30:37	120220	12022020	063037	185.92	13.056360	-57.083140	186.16	0.250	0.220	1.740	185.92	-1.10	2.30	 	 	 	 	 	 	 	 	 	 	 	 	 	 	 	 	 	 	1581489037	7.72	14.30
12/02/2020 06:30:38	120220	12022020	063038	186.14	13.056322	-57.083143	186.42	0.180	-0.180	1.540	186.14	-1.50	2.10	 	 	 	 	 	 	 	 	 	 	 	 	 	 	 	 	 	 	1581489038	8.14	15.08
12/02/2020 06:30:39	120220	12022020	063039	186.28	13.056285	-57.083150	186.51	0.120	-0.430	1.520	186.28	-1.80	2.00	 	 	 	 	 	 	 	 	 	 	 	 	 	 	 	 	 	 	1581489039	8.11	15.02
12/02/2020 06:30:40	120220	12022020	063040	186.13	13.056248	-57.083155	186.35	0.250	-0.670	1.650	186.13	-2.00	2.10	 	 	 	 	 	 	 	 	 	 	 	 	 	 	 	 	 	 	1581489040	7.89	14.61
12/02/2020 06:30:41	120220	12022020	063041	186.03	13.056212	-57.083160	186.26	0.340	-0.760	1.930	186.03	-2.20	2.40	 	 	 	 	 	 	 	 	 	 	 	 	 	 	 	 	 	 	1581489041	8.03	14.87
12/02/2020 06:30:42	120220	12022020	063042	186.03	13.056175	-57.083167	186.27	0.090	-0.530	2.230	186.03	-2.00	2.70	 	 	 	 	 	 	 	 	 	 	 	 	 	 	 	 	 	 	1581489042	8.01	14.83
12/02/2020 06:30:43	120220	12022020	063043	185.91	13.056140	-57.083173	186.15	-0.380	-0.250	2.600	185.91	-1.70	3.10	 	 	 	 	 	 	 	 	 	 	 	 	 	 	 	 	 	 	1581489043	7.71	14.28
12/02/2020 06:30:44	120220	12022020	063044	185.69	13.056105	-57.083183	185.95	-0.730	-0.210	2.980	185.69	-1.60	3.40	 	 	 	 	 	 	 	 	 	 	 	 	 	 	 	 	 	 	1581489044	7.74	14.33
12/02/2020 06:30:45	120220	12022020	063045	185.41	13.056068	-57.083193	185.66	-0.730	-0.300	3.220	185.41	-1.70	3.70	 	 	 	 	 	 	 	 	 	 	 	 	 	 	 	 	 	 	1581489045	8.13	15.06
12/02/2020 06:30:46	120220	12022020	063046	185.19	13.056030	-57.083205	185.44	-0.390	-0.270	3.090	185.19	-1.70	3.60	 	 	 	 	 	 	 	 	 	 	 	 	 	 	 	 	 	 	1581489046	8.37	15.50
12/02/2020 06:30:47	120220	12022020	063047	185.20	13.055993	-57.083213	185.46	0.020	-0.060	2.520	185.20	-1.50	3.10	 	 	 	 	 	 	 	 	 	 	 	 	 	 	 	 	 	 	1581489047	8.26	15.30
12/02/2020 06:30:48	120220	12022020	063048	185.51	13.055957	-57.083217	185.77	0.220	0.250	1.770	185.51	-1.20	2.40	 	 	 	 	 	 	 	 	 	 	 	 	 	 	 	 	 	 	1581489048	7.99	14.80
12/02/2020 06:30:49	120220	12022020	063049	185.97	13.055920	-57.083218	186.21	0.170	0.470	1.200	185.97	-1.00	1.80	 	 	 	 	 	 	 	 	 	 	 	 	 	 	 	 	 	 	1581489049	7.72	14.30
12/02/2020 06:30:50	120220	12022020	063050	186.20	13.055885	-57.083222	186.44	0.090	0.310	1.120	186.20	-1.10	1.60	 	 	 	 	 	 	 	 	 	 	 	 	 	 	 	 	 	 	1581489050	7.54	13.96
12/02/2020 06:30:51	120220	12022020	063051	186.15	13.055850	-57.083227	186.36	0.190	-0.220	1.460	186.15	-1.60	1.90	 	 	 	 	 	 	 	 	 	 	 	 	 	 	 	 	 	 	1581489051	7.75	14.35
12/02/2020 06:30:52	120220	12022020	063052	185.97	13.055812	-57.083235	186.20	0.460	-0.720	1.820	185.97	-2.10	2.30	 	 	 	 	 	 	 	 	 	 	 	 	 	 	 	 	 	 	1581489052	8.18	15.15
12/02/2020 06:30:53	120220	12022020	063053	185.99	13.055775	-57.083242	186.25	0.640	-0.780	1.950	185.99	-2.20	2.50	 	 	 	 	 	 	 	 	 	 	 	 	 	 	 	 	 	 	1581489053	8.23	15.24
12/02/2020 06:30:54	120220	12022020	063054	186.19	13.055740	-57.083248	186.44	0.510	-0.550	1.860	186.19	-2.00	2.40	 	 	 	 	 	 	 	 	 	 	 	 	 	 	 	 	 	 	1581489054	7.78	14.41
12/02/2020 06:30:55	120220	12022020	063055	186.21	13.055705	-57.083252	186.45	0.130	-0.570	1.910	186.21	-2.00	2.40	 	 	 	 	 	 	 	 	 	 	 	 	 	 	 	 	 	 	1581489055	7.47	13.83
12/02/2020 06:30:56	120220	12022020	063056	185.94	13.055668	-57.083257	186.17	-0.380	-0.810	2.310	185.94	-2.20	2.80	 	 	 	 	 	 	 	 	 	 	 	 	 	 	 	 	 	 	1581489056	7.85	14.54
12/02/2020 06:30:57	120220	12022020	063057	185.60	13.055630	-57.083265	185.84	-0.820	-0.870	2.820	185.60	-2.30	3.30	 	 	 	 	 	 	 	 	 	 	 	 	 	 	 	 	 	 	1581489057	8.38	15.52
12/02/2020 06:30:58	120220	12022020	063058	185.35	13.055592	-57.083277	185.60	-0.990	-0.500	3.150	185.35	-2.00	3.60	 	 	 	 	 	 	 	 	 	 	 	 	 	 	 	 	 	 	1581489058	8.52	15.78
12/02/2020 06:30:59	120220	12022020	063059	185.24	13.055557	-57.083288	185.50	-0.820	0.130	3.100	185.24	-1.40	3.60	 	 	 	 	 	 	 	 	 	 	 	 	 	 	 	 	 	 	1581489059	8.23	15.24
12/02/2020 06:31:00	120220	12022020	063100	185.35	13.055520	-57.083298	185.60	-0.430	0.650	2.600	185.35	-0.80	3.20	 	 	 	 	 	 	 	 	 	 	 	 	 	 	 	 	 	 	1581489060	7.88	14.59
12/02/2020 06:31:01	120220	12022020	063101	185.65	13.055485	-57.083303	185.91	-0.000	0.770	1.850	185.65	-0.60	2.50	1015.30	26.20	26.20	20.40	20.50	-1.0	70.0	70.0	397.0	25.8	271.00	10.30	76.00	11.00	16	10048.0	27.2	27.2	1581489061	7.78	14.41
12/02/2020 06:31:02	120220	12022020	063102	185.93	13.055448	-57.083307	186.23	0.390	0.390	1.150	185.93	-1.00	1.80	 	 	 	 	 	 	 	 	 	 	 	 	 	 	 	 	 	 	1581489062	7.96	14.74
12/02/2020 06:31:03	120220	12022020	063103	186.29	13.055410	-57.083310	186.52	0.700	-0.090	0.620	186.29	-1.50	1.20	 	 	 	 	 	 	 	 	 	 	 	 	 	 	 	 	 	 	1581489063	8.28	15.33
12/02/2020 06:31:04	120220	12022020	063104	186.50	13.055372	-57.083310	186.76	0.760	-0.300	0.470	186.50	-1.70	1.00	 	 	 	 	 	 	 	 	 	 	 	 	 	 	 	 	 	 	1581489064	8.23	15.24
12/02/2020 06:31:05	120220	12022020	063105	186.59	13.055335	-57.083313	186.79	0.590	-0.530	0.790	186.59	-1.90	1.20	 	 	 	 	 	 	 	 	 	 	 	 	 	 	 	 	 	 	1581489065	7.76	14.37
12/02/2020 06:31:06	120220	12022020	063106	186.38	13.055300	-57.083318	186.58	0.320	-0.960	1.480	186.38	-2.30	1.90	 	 	 	 	 	 	 	 	 	 	 	 	 	 	 	 	 	 	1581489066	7.74	14.33
12/02/2020 06:31:07	120220	12022020	063107	185.99	13.055262	-57.083327	186.22	0.060	-1.230	2.430	185.99	-2.60	2.80	 	 	 	 	 	 	 	 	 	 	 	 	 	 	 	 	 	 	1581489067	8.22	15.22
12/02/2020 06:31:08	120220	12022020	063108	185.66	13.055225	-57.083337	185.92	-0.280	-1.060	3.380	185.66	-2.50	3.80	 	 	 	 	 	 	 	 	 	 	 	 	 	 	 	 	 	 	1581489068	8.40	15.56
12/02/2020 06:31:09	120220	12022020	063109	185.60	13.055188	-57.083348	185.88	-0.710	-0.570	3.870	185.60	-2.00	4.30	 	 	 	 	 	 	 	 	 	 	 	 	 	 	 	 	 	 	1581489069	8.24	15.26
12/02/2020 06:31:10	120220	12022020	063110	185.67	13.055153	-57.083362	185.95	-0.990	-0.040	3.820	185.67	-1.50	4.30	 	 	 	 	 	 	 	 	 	 	 	 	 	 	 	 	 	 	1581489070	8.05	14.91
12/02/2020 06:31:11	120220	12022020	063111	185.74	13.055117	-57.083373	186.00	-0.720	0.200	3.260	185.74	-1.20	3.90	 	 	 	 	 	 	 	 	 	 	 	 	 	 	 	 	 	 	1581489071	8.02	14.85
12/02/2020 06:31:12	120220	12022020	063112	185.88	13.055080	-57.083382	186.14	0.040	0.200	2.220	185.88	-1.20	2.90	 	 	 	 	 	 	 	 	 	 	 	 	 	 	 	 	 	 	1581489072	8.24	15.26
12/02/2020 06:31:13	120220	12022020	063113	186.18	13.055040	-57.083383	186.43	0.610	0.400	1.210	186.18	-1.10	1.80	 	 	 	 	 	 	 	 	 	 	 	 	 	 	 	 	 	 	1581489073	8.46	15.67
12/02/2020 06:31:14	120220	12022020	063114	186.52	13.055003	-57.083383	186.75	0.580	0.690	0.650	186.52	-0.80	1.20	 	 	 	 	 	 	 	 	 	 	 	 	 	 	 	 	 	 	1581489074	8.12	15.04
12/02/2020 06:31:15	120220	12022020	063115	186.86	13.054968	-57.083383	187.07	0.170	0.610	0.530	186.86	-0.80	1.00	 	 	 	 	 	 	 	 	 	 	 	 	 	 	 	 	 	 	1581489075	7.60	14.08
12/02/2020 06:31:16	120220	12022020	063116	187.04	13.054932	-57.083388	187.25	-0.090	0.020	0.790	187.04	-1.30	1.20	 	 	 	 	 	 	 	 	 	 	 	 	 	 	 	 	 	 	1581489076	7.65	14.17
12/02/2020 06:31:17	120220	12022020	063117	186.92	13.054895	-57.083397	187.10	0.140	-0.850	1.420	186.92	-2.20	1.80	 	 	 	 	 	 	 	 	 	 	 	 	 	 	 	 	 	 	1581489077	8.11	15.02
12/02/2020 06:31:18	120220	12022020	063118	186.60	13.054857	-57.083407	186.81	0.600	-1.490	1.940	186.60	-2.90	2.40	 	 	 	 	 	 	 	 	 	 	 	 	 	 	 	 	 	 	1581489078	8.55	15.83
12/02/2020 06:31:19	120220	12022020	063119	186.32	13.054818	-57.083415	186.53	0.700	-1.580	2.280	186.32	-3.00	2.70	 	 	 	 	 	 	 	 	 	 	 	 	 	 	 	 	 	 	1581489079	8.49	15.72
12/02/2020 06:31:20	120220	12022020	063120	186.00	13.054782	-57.083422	186.22	0.260	-1.240	2.550	186.00	-2.70	3.00	 	 	 	 	 	 	 	 	 	 	 	 	 	 	 	 	 	 	1581489080	8.13	15.06
12/02/2020 06:31:21	120220	12022020	063121	185.75	13.054745	-57.083430	185.99	-0.440	-0.630	2.640	185.75	-2.10	3.10	 	 	 	 	 	 	 	 	 	 	 	 	 	 	 	 	 	 	1581489081	7.95	14.72
12/02/2020 06:31:22	120220	12022020	063122	185.85	13.054708	-57.083438	186.11	-1.050	0.210	2.470	185.85	-1.30	3.00	 	 	 	 	 	 	 	 	 	 	 	 	 	 	 	 	 	 	1581489082	7.90	14.63
12/02/2020 06:31:23	120220	12022020	063123	186.14	13.054675	-57.083447	186.38	-1.180	0.700	2.210	186.14	-0.70	2.70	 	 	 	 	 	 	 	 	 	 	 	 	 	 	 	 	 	 	1581489083	7.68	14.22
12/02/2020 06:31:24	120220	12022020	063124	186.36	13.054638	-57.083455	186.60	-0.760	0.560	1.980	186.36	-0.80	2.50	 	 	 	 	 	 	 	 	 	 	 	 	 	 	 	 	 	 	1581489084	7.98	14.78
12/02/2020 06:31:25	120220	12022020	063125	186.58	13.054598	-57.083463	186.82	-0.080	0.210	1.800	186.58	-1.20	2.30	 	 	 	 	 	 	 	 	 	 	 	 	 	 	 	 	 	 	1581489085	8.58	15.89
12/02/2020 06:31:26	120220	12022020	063126	186.86	13.054558	-57.083470	187.08	0.480	0.130	1.650	186.86	-1.30	2.20	 	 	 	 	 	 	 	 	 	 	 	 	 	 	 	 	 	 	1581489086	8.73	16.17
12/02/2020 06:31:27	120220	12022020	063127	187.05	13.054522	-57.083477	187.26	0.760	0.290	1.400	187.05	-1.10	1.90	 	 	 	 	 	 	 	 	 	 	 	 	 	 	 	 	 	 	1581489087	8.22	15.22
12/02/2020 06:31:28	120220	12022020	063128	187.12	13.054485	-57.083480	187.34	0.750	0.330	1.240	187.12	-1.10	1.80	 	 	 	 	 	 	 	 	 	 	 	 	 	 	 	 	 	 	1581489088	7.71	14.28
12/02/2020 06:31:29	120220	12022020	063129	187.10	13.054450	-57.083482	187.31	0.550	-0.050	1.320	187.10	-1.40	1.80	 	 	 	 	 	 	 	 	 	 	 	 	 	 	 	 	 	 	1581489089	7.60	14.08
12/02/2020 06:31:30	120220	12022020	063130	186.95	13.054413	-57.083487	187.16	0.300	-0.700	1.530	186.95	-2.00	2.00	 	 	 	 	 	 	 	 	 	 	 	 	 	 	 	 	 	 	1581489090	7.91	14.65
12/02/2020 06:31:31	120220	12022020	063131	186.79	13.054377	-57.083493	187.01	0.050	-1.160	1.930	186.79	-2.50	2.40	 	 	 	 	 	 	 	 	 	 	 	 	 	 	 	 	 	 	1581489091	8.22	15.22
12/02/2020 06:31:32	120220	12022020	063132	186.51	13.054340	-57.083502	186.74	-0.090	-1.360	2.540	186.51	-2.70	2.90	 	 	 	 	 	 	 	 	 	 	 	 	 	 	 	 	 	 	1581489092	8.15	15.09
12/02/2020 06:31:33	120220	12022020	063133	186.16	13.054303	-57.083513	186.41	-0.130	-1.320	3.040	186.16	-2.70	3.50	 	 	 	 	 	 	 	 	 	 	 	 	 	 	 	 	 	 	1581489093	8.18	15.15
12/02/2020 06:31:34	120220	12022020	063134	185.81	13.054265	-57.083523	186.07	-0.180	-1.040	3.380	185.81	-2.50	3.80	 	 	 	 	 	 	 	 	 	 	 	 	 	 	 	 	 	 	1581489094	8.29	15.35
12/02/2020 06:31:35	120220	12022020	063135	185.74	13.054228	-57.083535	186.03	-0.320	-0.450	3.280	185.74	-1.90	3.80	 	 	 	 	 	 	 	 	 	 	 	 	 	 	 	 	 	 	1581489095	8.40	15.56
12/02/2020 06:31:36	120220	12022020	063136	186.15	13.054190	-57.083543	186.46	-0.450	0.390	2.590	186.15	-1.10	3.20	 	 	 	 	 	 	 	 	 	 	 	 	 	 	 	 	 	 	1581489096	8.21	15.20
12/02/2020 06:31:37	120220	12022020	063137	186.79	13.054155	-57.083548	187.08	-0.430	1.010	1.650	186.79	-0.40	2.30	 	 	 	 	 	 	 	 	 	 	 	 	 	 	 	 	 	 	1581489097	7.81	14.46
12/02/2020 06:31:38	120220	12022020	063138	187.44	13.054118	-57.083550	187.70	-0.260	1.080	0.830	187.44	-0.30	1.40	 	 	 	 	 	 	 	 	 	 	 	 	 	 	 	 	 	 	1581489098	7.83	14.50
12/02/2020 06:31:39	120220	12022020	063139	187.83	13.054080	-57.083552	188.05	-0.070	0.660	0.530	187.83	-0.70	1.00	 	 	 	 	 	 	 	 	 	 	 	 	 	 	 	 	 	 	1581489099	8.16	15.11
12/02/2020 06:31:40	120220	12022020	063140	187.78	13.054042	-57.083557	187.91	0.110	-0.080	0.990	187.78	-1.40	1.40	 	 	 	 	 	 	 	 	 	 	 	 	 	 	 	 	 	 	1581489100	8.36	15.48
12/02/2020 06:31:41	120220	12022020	063141	187.42	13.054003	-57.083563	187.59	0.260	-0.660	1.700	187.42	-2.00	2.10	 	 	 	 	 	 	 	 	 	 	 	 	 	 	 	 	 	 	1581489101	8.57	15.87
12/02/2020 06:31:42	120220	12022020	063142	187.16	13.053965	-57.083575	187.38	0.430	-0.830	2.280	187.16	-2.20	2.70	 	 	 	 	 	 	 	 	 	 	 	 	 	 	 	 	 	 	1581489102	8.44	15.63
12/02/2020 06:31:43	120220	12022020	063143	186.93	13.053928	-57.083583	187.16	0.590	-0.810	2.570	186.93	-2.20	3.00	 	 	 	 	 	 	 	 	 	 	 	 	 	 	 	 	 	 	1581489103	8.01	14.83
12/02/2020 06:31:44	120220	12022020	063144	186.79	13.053893	-57.083592	187.05	0.600	-0.760	2.400	186.79	-2.20	2.90	 	 	 	 	 	 	 	 	 	 	 	 	 	 	 	 	 	 	1581489104	7.90	14.63
12/02/2020 06:31:45	120220	12022020	063145	186.84	13.053857	-57.083597	187.10	0.350	-0.580	2.020	186.84	-2.00	2.60	 	 	 	 	 	 	 	 	 	 	 	 	 	 	 	 	 	 	1581489105	7.97	14.76
12/02/2020 06:31:46	120220	12022020	063146	186.98	13.053820	-57.083602	187.25	-0.090	-0.360	1.700	186.98	-1.80	2.20	 	 	 	 	 	 	 	 	 	 	 	 	 	 	 	 	 	 	1581489106	7.89	14.61
12/02/2020 06:31:47	120220	12022020	063147	187.17	13.053783	-57.083607	187.43	-0.540	-0.180	1.640	187.17	-1.60	2.10	 	 	 	 	 	 	 	 	 	 	 	 	 	 	 	 	 	 	1581489107	7.91	14.65
12/02/2020 06:31:48	120220	12022020	063148	187.28	13.053747	-57.083617	187.54	-0.740	-0.160	1.760	187.28	-1.50	2.20	 	 	 	 	 	 	 	 	 	 	 	 	 	 	 	 	 	 	1581489108	8.01	14.83
12/02/2020 06:31:49	120220	12022020	063149	187.24	13.053710	-57.083627	187.48	-0.580	-0.330	1.860	187.24	-1.70	2.30	 	 	 	 	 	 	 	 	 	 	 	 	 	 	 	 	 	 	1581489109	8.31	15.39
12/02/2020 06:31:50	120220	12022020	063150	187.20	13.053672	-57.083637	187.46	-0.120	-0.440	1.810	187.20	-1.80	2.30	 	 	 	 	 	 	 	 	 	 	 	 	 	 	 	 	 	 	1581489110	8.61	15.95
12/02/2020 06:31:51	120220	12022020	063151	187.31	13.053632	-57.083643	187.57	0.310	-0.220	1.530	187.31	-1.70	2.10	 	 	 	 	 	 	 	 	 	 	 	 	 	 	 	 	 	 	1581489111	8.65	16.02
12/02/2020 06:31:52	120220	12022020	063152	187.44	13.053593	-57.083648	187.71	0.400	0.260	1.250	187.44	-1.20	1.80	 	 	 	 	 	 	 	 	 	 	 	 	 	 	 	 	 	 	1581489112	8.30	15.37
12/02/2020 06:31:53	120220	12022020	063153	187.62	13.053557	-57.083650	187.86	0.070	0.740	1.350	187.62	-0.70	1.80	 	 	 	 	 	 	 	 	 	 	 	 	 	 	 	 	 	 	1581489113	7.88	14.59
12/02/2020 06:31:54	120220	12022020	063154	187.64	13.053522	-57.083657	187.83	-0.290	0.710	1.760	187.64	-0.60	2.20	 	 	 	 	 	 	 	 	 	 	 	 	 	 	 	 	 	 	1581489114	7.53	13.95
12/02/2020 06:31:55	120220	12022020	063155	187.35	13.053487	-57.083665	187.55	-0.170	-0.010	2.190	187.35	-1.30	2.60	 	 	 	 	 	 	 	 	 	 	 	 	 	 	 	 	 	 	1581489115	7.84	14.52
12/02/2020 06:31:56	120220	12022020	063156	187.04	13.053448	-57.083677	187.27	0.410	-0.940	2.380	187.04	-2.20	2.90	 	 	 	 	 	 	 	 	 	 	 	 	 	 	 	 	 	 	1581489116	8.56	15.85
12/02/2020 06:31:57	120220	12022020	063157	186.84	13.053408	-57.083685	187.09	0.860	-1.400	2.250	186.84	-2.80	2.80	 	 	 	 	 	 	 	 	 	 	 	 	 	 	 	 	 	 	1581489117	8.87	16.43
12/02/2020 06:31:58	120220	12022020	063158	186.83	13.053368	-57.083690	187.10	0.680	-1.090	1.980	186.83	-2.60	2.50	 	 	 	 	 	 	 	 	 	 	 	 	 	 	 	 	 	 	1581489118	8.50	15.74
12/02/2020 06:31:59	120220	12022020	063159	187.07	13.053333	-57.083695	187.33	-0.070	-0.340	1.800	187.07	-1.80	2.30	 	 	 	 	 	 	 	 	 	 	 	 	 	 	 	 	 	 	1581489119	7.81	14.46
12/02/2020 06:32:00	120220	12022020	063200	187.46	13.053298	-57.083700	187.71	-0.840	0.250	1.690	187.46	-1.20	2.20	 	 	 	 	 	 	 	 	 	 	 	 	 	 	 	 	 	 	1581489120	7.34	13.59
12/02/2020 06:32:01	120220	12022020	063201	187.66	13.053265	-57.083708	187.88	-1.070	0.090	1.810	187.66	-1.20	2.30	1015.20	26.20	26.20	20.30	20.40	-1.0	70.0	70.0	398.0	25.8	270.00	10.40	75.00	11.20	16	8984.0	27.2	27.2	1581489121	7.48	13.85
12/02/2020 06:32:02	120220	12022020	063202	187.46	13.053228	-57.083720	187.64	-0.530	-0.750	2.130	187.46	-2.00	2.60	 	 	 	 	 	 	 	 	 	 	 	 	 	 	 	 	 	 	1581489122	8.36	15.48
12/02/2020 06:32:03	120220	12022020	063203	187.08	13.053185	-57.083730	187.28	0.270	-1.230	2.380	187.08	-2.60	2.80	 	 	 	 	 	 	 	 	 	 	 	 	 	 	 	 	 	 	1581489123	9.35	17.32
12/02/2020 06:32:04	120220	12022020	063204	186.92	13.053143	-57.083738	187.16	0.590	-0.450	2.380	186.92	-2.00	2.90	 	 	 	 	 	 	 	 	 	 	 	 	 	 	 	 	 	 	1581489124	9.23	17.09
12/02/2020 06:32:05	120220	12022020	063205	187.09	13.053107	-57.083745	187.34	0.320	0.960	1.980	187.09	-0.60	2.50	 	 	 	 	 	 	 	 	 	 	 	 	 	 	 	 	 	 	1581489125	7.86	14.56
12/02/2020 06:32:06	120220	12022020	063206	187.36	13.053075	-57.083748	187.59	0.030	1.560	1.470	187.36	0.20	2.00	 	 	 	 	 	 	 	 	 	 	 	 	 	 	 	 	 	 	1581489126	6.87	12.72
12/02/2020 06:32:07	120220	12022020	063207	187.52	13.053042	-57.083750	187.74	0.120	0.790	1.230	187.52	-0.40	1.70	 	 	 	 	 	 	 	 	 	 	 	 	 	 	 	 	 	 	1581489127	7.44	13.78
12/02/2020 06:32:08	120220	12022020	063208	187.76	13.053000	-57.083755	188.01	0.270	-0.370	1.550	187.76	-1.60	2.00	 	 	 	 	 	 	 	 	 	 	 	 	 	 	 	 	 	 	1581489128	8.76	16.22
12/02/2020 06:32:09	120220	12022020	063209	188.07	13.052960	-57.083762	188.32	0.090	-1.020	2.150	188.07	-2.40	2.60	 	 	 	 	 	 	 	 	 	 	 	 	 	 	 	 	 	 	1581489129	9.01	16.69
12/02/2020 06:32:10	120220	12022020	063210	188.16	13.052922	-57.083775	188.40	-0.260	-1.130	2.610	188.16	-2.50	3.00	 	 	 	 	 	 	 	 	 	 	 	 	 	 	 	 	 	 	1581489130	8.39	15.54
12/02/2020 06:32:11	120220	12022020	063211	187.99	13.052888	-57.083788	188.23	-0.310	-1.100	2.850	187.99	-2.50	3.30	 	 	 	 	 	 	 	 	 	 	 	 	 	 	 	 	 	 	1581489131	7.89	14.61
12/02/2020 06:32:12	120220	12022020	063212	187.60	13.052853	-57.083800	187.82	0.090	-1.130	2.810	187.60	-2.50	3.30	 	 	 	 	 	 	 	 	 	 	 	 	 	 	 	 	 	 	1581489132	7.88	14.59
12/02/2020 06:32:13	120220	12022020	063213	187.05	13.052817	-57.083807	187.26	0.540	-1.190	2.670	187.05	-2.60	3.20	 	 	 	 	 	 	 	 	 	 	 	 	 	 	 	 	 	 	1581489133	8.17	15.13
12/02/2020 06:32:14	120220	12022020	063214	186.63	13.052777	-57.083812	186.88	0.520	-0.840	2.470	186.63	-2.30	3.00	 	 	 	 	 	 	 	 	 	 	 	 	 	 	 	 	 	 	1581489134	8.60	15.93
12/02/2020 06:32:15	120220	12022020	063215	186.82	13.052737	-57.083817	187.10	-0.080	0.160	2.180	186.82	-1.40	2.70	 	 	 	 	 	 	 	 	 	 	 	 	 	 	 	 	 	 	1581489135	8.49	15.72
12/02/2020 06:32:16	120220	12022020	063216	187.62	13.052702	-57.083825	187.91	-0.750	1.370	1.740	187.62	-0.20	2.30	 	 	 	 	 	 	 	 	 	 	 	 	 	 	 	 	 	 	1581489136	7.77	14.39
12/02/2020 06:32:17	120220	12022020	063217	188.58	13.052668	-57.083832	188.86	-0.890	1.820	1.180	188.58	0.40	1.70	 	 	 	 	 	 	 	 	 	 	 	 	 	 	 	 	 	 	1581489137	7.23	13.39
12/02/2020 06:32:18	120220	12022020	063218	189.15	13.052633	-57.083838	189.47	-0.440	0.970	0.950	189.15	-0.30	1.50	 	 	 	 	 	 	 	 	 	 	 	 	 	 	 	 	 	 	1581489138	7.63	14.13
12/02/2020 06:32:19	120220	12022020	063219	189.48	13.052593	-57.083845	189.66	0.150	-0.570	1.240	189.48	-1.80	1.70	 	 	 	 	 	 	 	 	 	 	 	 	 	 	 	 	 	 	1581489139	8.73	16.17
12/02/2020 06:32:20	120220	12022020	063220	189.16	13.052552	-57.083855	189.30	0.520	-1.680	1.740	189.16	-3.00	2.20	 	 	 	 	 	 	 	 	 	 	 	 	 	 	 	 	 	 	1581489140	9.34	17.30
12/02/2020 06:32:21	120220	12022020	063221	188.47	13.052512	-57.083865	188.59	0.630	-1.690	2.190	188.47	-3.10	2.60	 	 	 	 	 	 	 	 	 	 	 	 	 	 	 	 	 	 	1581489141	8.98	16.63
12/02/2020 06:32:22	120220	12022020	063222	187.83	13.052475	-57.083875	188.01	0.560	-0.820	2.360	187.83	-2.40	2.80	 	 	 	 	 	 	 	 	 	 	 	 	 	 	 	 	 	 	1581489142	8.03	14.87
12/02/2020 06:32:23	120220	12022020	063223	187.57	13.052442	-57.083882	187.77	0.310	0.090	2.260	187.57	-1.40	2.80	 	 	 	 	 	 	 	 	 	 	 	 	 	 	 	 	 	 	1581489143	7.27	13.46
12/02/2020 06:32:24	120220	12022020	063224	187.64	13.052408	-57.083887	187.87	-0.110	0.420	2.050	187.64	-1.00	2.60	 	 	 	 	 	 	 	 	 	 	 	 	 	 	 	 	 	 	1581489144	7.28	13.48
12/02/2020 06:32:25	120220	12022020	063225	187.85	13.052372	-57.083893	188.07	-0.490	0.140	1.770	187.85	-1.20	2.30	 	 	 	 	 	 	 	 	 	 	 	 	 	 	 	 	 	 	1581489145	7.87	14.58
12/02/2020 06:32:26	120220	12022020	063226	187.87	13.052333	-57.083903	188.09	-0.570	-0.370	1.670	187.87	-1.70	2.10	 	 	 	 	 	 	 	 	 	 	 	 	 	 	 	 	 	 	1581489146	8.49	15.72
12/02/2020 06:32:27	120220	12022020	063227	187.69	13.052295	-57.083915	187.91	-0.230	-0.700	1.730	187.69	-2.10	2.20	 	 	 	 	 	 	 	 	 	 	 	 	 	 	 	 	 	 	1581489147	8.79	16.28
12/02/2020 06:32:28	120220	12022020	063228	187.44	13.052257	-57.083925	187.69	0.150	-0.620	1.800	187.44	-2.00	2.30	 	 	 	 	 	 	 	 	 	 	 	 	 	 	 	 	 	 	1581489148	8.65	16.02
12/02/2020 06:32:29	120220	12022020	063229	187.40	13.052218	-57.083933	187.66	0.190	-0.190	1.780	187.40	-1.70	2.30	 	 	 	 	 	 	 	 	 	 	 	 	 	 	 	 	 	 	1581489149	8.28	15.33
12/02/2020 06:32:30	120220	12022020	063230	187.57	13.052182	-57.083940	187.89	-0.090	0.310	1.680	187.57	-1.10	2.20	 	 	 	 	 	 	 	 	 	 	 	 	 	 	 	 	 	 	1581489150	7.90	14.63
12/02/2020 06:32:31	120220	12022020	063231	187.86	13.052147	-57.083948	188.14	-0.260	0.530	1.530	187.86	-0.90	2.00	 	 	 	 	 	 	 	 	 	 	 	 	 	 	 	 	 	 	1581489151	7.67	14.20
12/02/2020 06:32:32	120220	12022020	063232	188.01	13.052112	-57.083957	188.29	-0.040	0.290	1.350	188.01	-1.10	1.90	 	 	 	 	 	 	 	 	 	 	 	 	 	 	 	 	 	 	1581489152	7.83	14.50
12/02/2020 06:32:33	120220	12022020	063233	188.16	13.052073	-57.083962	188.42	0.350	-0.180	1.190	188.16	-1.50	1.70	 	 	 	 	 	 	 	 	 	 	 	 	 	 	 	 	 	 	1581489153	8.23	15.24
12/02/2020 06:32:34	120220	12022020	063234	188.14	13.052035	-57.083967	188.38	0.540	-0.790	1.350	188.14	-2.10	1.80	 	 	 	 	 	 	 	 	 	 	 	 	 	 	 	 	 	 	1581489154	8.41	15.58
12/02/2020 06:32:35	120220	12022020	063235	187.75	13.051995	-57.083973	187.98	0.440	-1.280	2.000	187.75	-2.60	2.40	 	 	 	 	 	 	 	 	 	 	 	 	 	 	 	 	 	 	1581489155	8.55	15.83
12/02/2020 06:32:36	120220	12022020	063236	187.16	13.051957	-57.083983	187.41	0.180	-1.260	2.830	187.16	-2.70	3.20	 	 	 	 	 	 	 	 	 	 	 	 	 	 	 	 	 	 	1581489156	8.66	16.04
12/02/2020 06:32:37	120220	12022020	063237	186.72	13.051920	-57.083995	187.00	-0.180	-0.540	3.390	186.72	-2.00	3.80	 	 	 	 	 	 	 	 	 	 	 	 	 	 	 	 	 	 	1581489157	8.42	15.59
12/02/2020 06:32:38	120220	12022020	063238	186.68	13.051885	-57.084007	186.99	-0.510	0.420	3.320	186.68	-1.10	3.80	 	 	 	 	 	 	 	 	 	 	 	 	 	 	 	 	 	 	1581489158	7.86	14.56
12/02/2020 06:32:39	120220	12022020	063239	186.85	13.051852	-57.084017	187.15	-0.600	0.910	2.790	186.85	-0.50	3.40	 	 	 	 	 	 	 	 	 	 	 	 	 	 	 	 	 	 	1581489159	7.45	13.80
12/02/2020 06:32:40	120220	12022020	063240	186.98	13.051817	-57.084023	187.27	-0.330	0.500	2.080	186.98	-0.80	2.70	 	 	 	 	 	 	 	 	 	 	 	 	 	 	 	 	 	 	1581489160	7.75	14.35
12/02/2020 06:32:41	120220	12022020	063241	187.16	13.051777	-57.084028	187.44	0.070	-0.270	1.430	187.16	-1.60	2.00	 	 	 	 	 	 	 	 	 	 	 	 	 	 	 	 	 	 	1581489161	8.60	15.93
12/02/2020 06:32:42	120220	12022020	063242	187.32	13.051735	-57.084033	187.61	0.300	-0.740	1.110	187.32	-2.10	1.60	 	 	 	 	 	 	 	 	 	 	 	 	 	 	 	 	 	 	1581489162	8.91	16.50
12/02/2020 06:32:43	120220	12022020	063243	187.31	13.051695	-57.084038	187.54	0.350	-0.860	1.260	187.31	-2.30	1.70	 	 	 	 	 	 	 	 	 	 	 	 	 	 	 	 	 	 	1581489163	8.51	15.76
12/02/2020 06:32:44	120220	12022020	063244	187.16	13.051658	-57.084045	187.37	0.340	-0.750	1.580	187.16	-2.20	2.00	 	 	 	 	 	 	 	 	 	 	 	 	 	 	 	 	 	 	1581489164	8.19	15.17
12/02/2020 06:32:45	120220	12022020	063245	187.17	13.051622	-57.084053	187.44	0.250	-0.330	1.690	187.17	-1.80	2.20	 	 	 	 	 	 	 	 	 	 	 	 	 	 	 	 	 	 	1581489165	8.14	15.08
12/02/2020 06:32:46	120220	12022020	063246	187.49	13.051585	-57.084060	187.77	0.000	0.270	1.680	187.49	-1.20	2.20	 	 	 	 	 	 	 	 	 	 	 	 	 	 	 	 	 	 	1581489166	7.88	14.59
12/02/2020 06:32:47	120220	12022020	063247	187.77	13.051550	-57.084067	188.02	-0.240	0.510	1.640	187.77	-0.90	2.10	 	 	 	 	 	 	 	 	 	 	 	 	 	 	 	 	 	 	1581489167	7.56	14.00
12/02/2020 06:32:48	120220	12022020	063248	187.81	13.051515	-57.084073	188.04	-0.260	0.200	1.650	187.81	-1.10	2.10	 	 	 	 	 	 	 	 	 	 	 	 	 	 	 	 	 	 	1581489168	7.82	14.48
12/02/2020 06:32:49	120220	12022020	063249	187.77	13.051477	-57.084082	188.03	-0.080	-0.330	1.760	187.77	-1.70	2.20	 	 	 	 	 	 	 	 	 	 	 	 	 	 	 	 	 	 	1581489169	8.38	15.52
12/02/2020 06:32:50	120220	12022020	063250	187.93	13.051437	-57.084088	188.21	0.030	-0.670	1.810	187.93	-2.00	2.30	 	 	 	 	 	 	 	 	 	 	 	 	 	 	 	 	 	 	1581489170	8.63	15.98
12/02/2020 06:32:51	120220	12022020	063251	188.12	13.051398	-57.084097	188.39	0.010	-0.800	1.860	188.12	-2.20	2.30	 	 	 	 	 	 	 	 	 	 	 	 	 	 	 	 	 	 	1581489171	8.40	15.56
12/02/2020 06:32:52	120220	12022020	063252	187.96	13.051362	-57.084107	188.21	0.040	-0.890	2.060	187.96	-2.30	2.50	 	 	 	 	 	 	 	 	 	 	 	 	 	 	 	 	 	 	1581489172	8.20	15.19
12/02/2020 06:32:53	120220	12022020	063253	187.50	13.051323	-57.084115	187.77	0.190	-0.810	2.300	187.50	-2.20	2.80	 	 	 	 	 	 	 	 	 	 	 	 	 	 	 	 	 	 	1581489173	8.36	15.48
12/02/2020 06:32:54	120220	12022020	063254	187.34	13.051285	-57.084123	187.64	0.150	-0.160	2.260	187.34	-1.70	2.80	 	 	 	 	 	 	 	 	 	 	 	 	 	 	 	 	 	 	1581489174	8.46	15.67
12/02/2020 06:32:55	120220	12022020	063255	187.59	13.051250	-57.084130	187.92	-0.190	0.620	2.020	187.59	-0.90	2.50	 	 	 	 	 	 	 	 	 	 	 	 	 	 	 	 	 	 	1581489175	7.88	14.59
12/02/2020 06:32:56	120220	12022020	063256	187.86	13.051215	-57.084135	188.16	-0.520	0.750	1.850	187.86	-0.60	2.40	 	 	 	 	 	 	 	 	 	 	 	 	 	 	 	 	 	 	1581489176	7.54	13.96
12/02/2020 06:32:57	120220	12022020	063257	187.94	13.051178	-57.084143	188.22	-0.440	0.170	1.780	187.94	-1.10	2.30	 	 	 	 	 	 	 	 	 	 	 	 	 	 	 	 	 	 	1581489177	8.07	14.95
12/02/2020 06:32:58	120220	12022020	063258	188.02	13.051138	-57.084153	188.32	-0.030	-0.340	1.680	188.02	-1.70	2.20	 	 	 	 	 	 	 	 	 	 	 	 	 	 	 	 	 	 	1581489178	8.80	16.30
12/02/2020 06:32:59	120220	12022020	063259	188.22	13.051098	-57.084160	188.52	0.290	-0.440	1.510	188.22	-1.80	2.00	 	 	 	 	 	 	 	 	 	 	 	 	 	 	 	 	 	 	1581489179	8.68	16.08
12/02/2020 06:33:00	120220	12022020	063300	188.32	13.051062	-57.084167	188.60	0.380	-0.430	1.380	188.32	-1.80	1.90	 	 	 	 	 	 	 	 	 	 	 	 	 	 	 	 	 	 	1581489180	8.09	14.98
12/02/2020 06:33:01	120220	12022020	063301	188.21	13.051025	-57.084175	188.49	0.340	-0.470	1.380	188.21	-1.90	1.90	1015.30	26.20	26.30	20.60	20.70	-1.0	71.0	71.0	400.0	25.8	270.00	9.50	74.00	10.40	16	9258.0	27.2	27.2	1581489181	7.94	14.70
12/02/2020 06:33:02	120220	12022020	063302	188.20	13.050988	-57.084182	188.47	0.230	-0.320	1.380	188.20	-1.70	1.90	 	 	 	 	 	 	 	 	 	 	 	 	 	 	 	 	 	 	1581489182	8.07	14.95
12/02/2020 06:33:03	120220	12022020	063303	188.33	13.050952	-57.084188	188.61	0.040	-0.180	1.360	188.33	-1.60	1.90	 	 	 	 	 	 	 	 	 	 	 	 	 	 	 	 	 	 	1581489183	7.90	14.63
12/02/2020 06:33:04	120220	12022020	063304	188.25	13.050917	-57.084193	188.51	-0.080	-0.470	1.550	188.25	-1.80	2.00	 	 	 	 	 	 	 	 	 	 	 	 	 	 	 	 	 	 	1581489184	7.88	14.59
12/02/2020 06:33:05	120220	12022020	063305	187.86	13.050878	-57.084203	188.11	-0.000	-1.020	1.980	187.86	-2.30	2.40	 	 	 	 	 	 	 	 	 	 	 	 	 	 	 	 	 	 	1581489185	8.47	15.69
12/02/2020 06:33:06	120220	12022020	063306	187.46	13.050837	-57.084213	187.75	0.080	-1.120	2.360	187.46	-2.50	2.80	 	 	 	 	 	 	 	 	 	 	 	 	 	 	 	 	 	 	1581489186	9.02	16.71
12/02/2020 06:33:07	120220	12022020	063307	187.15	13.050797	-57.084222	187.47	-0.190	-0.520	2.610	187.15	-2.00	3.10	 	 	 	 	 	 	 	 	 	 	 	 	 	 	 	 	 	 	1581489187	8.77	16.24
12/02/2020 06:33:08	120220	12022020	063308	187.05	13.050760	-57.084228	187.37	-0.780	0.310	2.640	187.05	-1.20	3.10	 	 	 	 	 	 	 	 	 	 	 	 	 	 	 	 	 	 	1581489188	8.08	14.96
12/02/2020 06:33:09	120220	12022020	063309	187.09	13.050725	-57.084238	187.40	-1.220	0.720	2.520	187.09	-0.70	3.00	 	 	 	 	 	 	 	 	 	 	 	 	 	 	 	 	 	 	1581489189	7.82	14.48
12/02/2020 06:33:10	120220	12022020	063310	187.24	13.050688	-57.084252	187.54	-0.970	0.620	2.220	187.24	-0.70	2.80	 	 	 	 	 	 	 	 	 	 	 	 	 	 	 	 	 	 	1581489190	8.22	15.22
12/02/2020 06:33:11	120220	12022020	063311	187.58	13.050650	-57.084263	187.87	-0.010	0.360	1.350	187.58	-1.00	2.00	 	 	 	 	 	 	 	 	 	 	 	 	 	 	 	 	 	 	1581489191	8.62	15.96
12/02/2020 06:33:12	120220	12022020	063312	188.16	13.050612	-57.084268	188.42	1.020	0.220	0.290	188.16	-1.20	0.90	 	 	 	 	 	 	 	 	 	 	 	 	 	 	 	 	 	 	1581489192	8.54	15.82
12/02/2020 06:33:13	120220	12022020	063313	188.66	13.050573	-57.084268	188.88	1.460	0.080	-0.230	188.66	-1.30	0.30	 	 	 	 	 	 	 	 	 	 	 	 	 	 	 	 	 	 	1581489193	8.22	15.22
12/02/2020 06:33:14	120220	12022020	063314	188.74	13.050537	-57.084268	188.91	1.160	-0.340	-0.080	188.74	-1.70	0.40	 	 	 	 	 	 	 	 	 	 	 	 	 	 	 	 	 	 	1581489194	7.96	14.74
12/02/2020 06:33:15	120220	12022020	063315	188.55	13.050498	-57.084272	188.73	0.440	-0.930	0.710	188.55	-2.20	1.10	 	 	 	 	 	 	 	 	 	 	 	 	 	 	 	 	 	 	1581489195	8.05	14.91
12/02/2020 06:33:16	120220	12022020	063316	188.08	13.050462	-57.084282	188.28	-0.180	-1.420	2.040	188.08	-2.80	2.30	 	 	 	 	 	 	 	 	 	 	 	 	 	 	 	 	 	 	1581489196	8.29	15.35
12/02/2020 06:33:17	120220	12022020	063317	187.42	13.050423	-57.084297	187.67	-0.450	-1.430	3.300	187.42	-2.80	3.60	 	 	 	 	 	 	 	 	 	 	 	 	 	 	 	 	 	 	1581489197	8.65	16.02
12/02/2020 06:33:18	120220	12022020	063318	187.04	13.050387	-57.084312	187.33	-0.610	-0.820	3.870	187.04	-2.30	4.30	 	 	 	 	 	 	 	 	 	 	 	 	 	 	 	 	 	 	1581489198	8.57	15.87
12/02/2020 06:33:19	120220	12022020	063319	187.12	13.050352	-57.084325	187.43	-0.790	-0.090	3.620	187.12	-1.50	4.10	 	 	 	 	 	 	 	 	 	 	 	 	 	 	 	 	 	 	1581489199	8.07	14.95
12/02/2020 06:33:20	120220	12022020	063320	187.32	13.050317	-57.084337	187.66	-0.780	0.160	2.870	187.32	-1.20	3.50	 	 	 	 	 	 	 	 	 	 	 	 	 	 	 	 	 	 	1581489200	7.83	14.50
12/02/2020 06:33:21	120220	12022020	063321	187.60	13.050280	-57.084345	187.88	-0.360	-0.120	1.910	187.60	-1.50	2.50	 	 	 	 	 	 	 	 	 	 	 	 	 	 	 	 	 	 	1581489201	8.28	15.33
12/02/2020 06:33:22	120220	12022020	063322	187.72	13.050238	-57.084350	187.98	0.250	-0.340	1.140	187.72	-1.70	1.70	 	 	 	 	 	 	 	 	 	 	 	 	 	 	 	 	 	 	1581489202	8.86	16.41
12/02/2020 06:33:23	120220	12022020	063323	187.75	13.050198	-57.084352	187.97	0.620	-0.080	0.650	187.75	-1.50	1.20	 	 	 	 	 	 	 	 	 	 	 	 	 	 	 	 	 	 	1581489203	8.84	16.37
12/02/2020 06:33:24	120220	12022020	063324	187.93	13.050160	-57.084355	188.15	0.480	0.520	0.410	187.93	-1.00	0.90	 	 	 	 	 	 	 	 	 	 	 	 	 	 	 	 	 	 	1581489204	8.31	15.39
12/02/2020 06:33:25	120220	12022020	063325	188.27	13.050123	-57.084357	188.48	0.020	0.910	0.530	188.27	-0.50	1.00	 	 	 	 	 	 	 	 	 	 	 	 	 	 	 	 	 	 	1581489205	7.69	14.24
12/02/2020 06:33:26	120220	12022020	063326	188.59	13.050088	-57.084363	188.78	-0.370	0.610	1.000	188.59	-0.70	1.40	 	 	 	 	 	 	 	 	 	 	 	 	 	 	 	 	 	 	1581489206	7.64	14.15
12/02/2020 06:33:27	120220	12022020	063327	188.64	13.050052	-57.084373	188.81	-0.350	-0.330	1.930	188.64	-1.60	2.30	 	 	 	 	 	 	 	 	 	 	 	 	 	 	 	 	 	 	1581489207	8.17	15.13
12/02/2020 06:33:28	120220	12022020	063328	188.18	13.050013	-57.084388	188.35	0.110	-1.260	3.030	188.18	-2.50	3.40	 	 	 	 	 	 	 	 	 	 	 	 	 	 	 	 	 	 	1581489208	8.92	16.52
12/02/2020 06:33:29	120220	12022020	063329	187.47	13.049973	-57.084403	187.65	0.630	-1.460	3.610	187.47	-2.90	4.00	 	 	 	 	 	 	 	 	 	 	 	 	 	 	 	 	 	 	1581489209	9.07	16.80
12/02/2020 06:33:30	120220	12022020	063330	187.14	13.049935	-57.084413	187.37	0.590	-0.680	3.390	187.14	-2.20	3.90	 	 	 	 	 	 	 	 	 	 	 	 	 	 	 	 	 	 	1581489210	8.41	15.58
12/02/2020 06:33:31	120220	12022020	063331	187.44	13.049902	-57.084420	187.71	-0.010	0.300	2.680	187.44	-1.20	3.30	 	 	 	 	 	 	 	 	 	 	 	 	 	 	 	 	 	 	1581489211	7.36	13.63
12/02/2020 06:33:32	120220	12022020	063332	187.82	13.049870	-57.084425	188.11	-0.530	0.370	1.950	187.82	-0.90	2.50	 	 	 	 	 	 	 	 	 	 	 	 	 	 	 	 	 	 	1581489212	6.97	12.91
12/02/2020 06:33:33	120220	12022020	063333	188.09	13.049833	-57.084432	188.31	-0.380	-0.520	1.460	188.09	-1.80	2.00	 	 	 	 	 	 	 	 	 	 	 	 	 	 	 	 	 	 	1581489213	7.90	14.63
12/02/2020 06:33:34	120220	12022020	063334	188.19	13.049793	-57.084440	188.46	0.280	-1.130	1.040	188.19	-2.50	1.60	 	 	 	 	 	 	 	 	 	 	 	 	 	 	 	 	 	 	1581489214	9.10	16.85
12/02/2020 06:33:35	120220	12022020	063335	188.33	13.049752	-57.084447	188.57	0.690	-0.750	0.880	188.33	-2.20	1.40	 	 	 	 	 	 	 	 	 	 	 	 	 	 	 	 	 	 	1581489215	8.99	16.65
12/02/2020 06:33:36	120220	12022020	063336	188.24	13.049715	-57.084450	188.43	0.540	-0.130	0.910	188.24	-1.60	1.40	 	 	 	 	 	 	 	 	 	 	 	 	 	 	 	 	 	 	1581489216	7.95	14.72
12/02/2020 06:33:37	120220	12022020	063337	187.94	13.049678	-57.084455	188.14	0.060	-0.010	1.190	187.94	-1.40	1.60	 	 	 	 	 	 	 	 	 	 	 	 	 	 	 	 	 	 	1581489217	7.70	14.26
12/02/2020 06:33:38	120220	12022020	063338	187.72	13.049640	-57.084462	187.94	-0.400	-0.140	1.790	187.72	-1.50	2.20	 	 	 	 	 	 	 	 	 	 	 	 	 	 	 	 	 	 	1581489218	8.35	15.46
12/02/2020 06:33:39	120220	12022020	063339	187.38	13.049602	-57.084473	187.63	-0.630	-0.150	2.630	187.38	-1.50	3.00	 	 	 	 	 	 	 	 	 	 	 	 	 	 	 	 	 	 	1581489219	8.73	16.17
12/02/2020 06:33:40	120220	12022020	063340	187.05	13.049563	-57.084487	187.35	-0.650	0.140	3.240	187.05	-1.30	3.70	 	 	 	 	 	 	 	 	 	 	 	 	 	 	 	 	 	 	1581489220	8.74	16.19
12/02/2020 06:33:41	120220	12022020	063341	187.09	13.049527	-57.084500	187.41	-0.570	0.630	3.300	187.09	-0.80	3.80	 	 	 	 	 	 	 	 	 	 	 	 	 	 	 	 	 	 	1581489221	8.39	15.54
12/02/2020 06:33:42	120220	12022020	063342	187.46	13.049492	-57.084512	187.79	-0.370	0.890	2.840	187.46	-0.50	3.40	 	 	 	 	 	 	 	 	 	 	 	 	 	 	 	 	 	 	1581489222	7.84	14.52
12/02/2020 06:33:43	120220	12022020	063343	187.83	13.049457	-57.084520	188.13	0.040	0.430	2.070	187.83	-0.80	2.60	 	 	 	 	 	 	 	 	 	 	 	 	 	 	 	 	 	 	1581489223	7.61	14.09
12/02/2020 06:33:44	120220	12022020	063344	188.07	13.049420	-57.084525	188.34	0.500	-0.670	1.300	188.07	-1.90	1.90	 	 	 	 	 	 	 	 	 	 	 	 	 	 	 	 	 	 	1581489224	8.09	14.98
12/02/2020 06:33:45	120220	12022020	063345	188.22	13.049380	-57.084530	188.50	0.770	-1.610	0.850	188.22	-2.90	1.40	 	 	 	 	 	 	 	 	 	 	 	 	 	 	 	 	 	 	1581489225	8.76	16.22
12/02/2020 06:33:46	120220	12022020	063346	188.27	13.049340	-57.084535	188.52	0.850	-1.710	0.630	188.27	-3.10	1.10	 	 	 	 	 	 	 	 	 	 	 	 	 	 	 	 	 	 	1581489226	8.72	16.15
12/02/2020 06:33:47	120220	12022020	063347	188.17	13.049302	-57.084540	188.39	0.820	-1.040	0.610	188.17	-2.50	1.10	 	 	 	 	 	 	 	 	 	 	 	 	 	 	 	 	 	 	1581489227	8.05	14.91
12/02/2020 06:33:48	120220	12022020	063348	187.99	13.049268	-57.084545	188.21	0.580	-0.250	0.950	187.99	-1.70	1.40	 	 	 	 	 	 	 	 	 	 	 	 	 	 	 	 	 	 	1581489228	7.53	13.95
12/02/2020 06:33:49	120220	12022020	063349	187.73	13.049232	-57.084548	187.97	-0.040	0.240	1.770	187.73	-1.20	2.10	 	 	 	 	 	 	 	 	 	 	 	 	 	 	 	 	 	 	1581489229	7.62	14.11
12/02/2020 06:33:50	120220	12022020	063350	187.41	13.049197	-57.084558	187.66	-0.830	0.310	2.890	187.41	-1.00	3.20	 	 	 	 	 	 	 	 	 	 	 	 	 	 	 	 	 	 	1581489230	8.06	14.93
12/02/2020 06:33:51	120220	12022020	063351	187.02	13.049158	-57.084573	187.28	-1.300	0.140	3.860	187.02	-1.20	4.20	 	 	 	 	 	 	 	 	 	 	 	 	 	 	 	 	 	 	1581489231	8.67	16.06
12/02/2020 06:33:52	120220	12022020	063352	186.70	13.049120	-57.084590	186.96	-1.060	-0.080	4.280	186.70	-1.40	4.70	 	 	 	 	 	 	 	 	 	 	 	 	 	 	 	 	 	 	1581489232	9.10	16.85
12/02/2020 06:33:53	120220	12022020	063353	186.57	13.049082	-57.084607	186.86	-0.230	-0.190	3.820	186.57	-1.50	4.40	 	 	 	 	 	 	 	 	 	 	 	 	 	 	 	 	 	 	1581489233	9.03	16.72
12/02/2020 06:33:54	120220	12022020	063354	187.01	13.049042	-57.084617	187.31	0.550	0.050	2.330	187.01	-1.40	3.00	 	 	 	 	 	 	 	 	 	 	 	 	 	 	 	 	 	 	1581489234	8.64	16.00
12/02/2020 06:33:55	120220	12022020	063355	187.98	13.049005	-57.084617	188.27	0.660	0.500	0.700	187.98	-0.90	1.40	 	 	 	 	 	 	 	 	 	 	 	 	 	 	 	 	 	 	1581489235	8.04	14.89
12/02/2020 06:33:56	120220	12022020	063356	188.69	13.048970	-57.084615	188.91	0.230	0.390	0.100	188.69	-0.90	0.60	 	 	 	 	 	 	 	 	 	 	 	 	 	 	 	 	 	 	1581489236	7.40	13.70
12/02/2020 06:33:57	120220	12022020	063357	188.47	13.048937	-57.084617	188.62	-0.100	-0.640	0.720	188.47	-1.80	1.10	 	 	 	 	 	 	 	 	 	 	 	 	 	 	 	 	 	 	1581489237	7.44	13.78
12/02/2020 06:33:58	120220	12022020	063358	187.79	13.048898	-57.084627	187.73	0.050	-1.720	1.850	187.79	-3.00	2.20	 	 	 	 	 	 	 	 	 	 	 	 	 	 	 	 	 	 	1581489238	8.52	15.78
12/02/2020 06:33:59	120220	12022020	063359	186.70	13.048857	-57.084642	186.91	0.360	-1.810	2.900	186.70	-3.20	3.30	 	 	 	 	 	 	 	 	 	 	 	 	 	 	 	 	 	 	1581489239	9.14	16.93
12/02/2020 06:34:00	120220	12022020	063400	186.38	13.048820	-57.084655	186.66	0.410	-0.680	3.180	186.38	-2.20	3.70	 	 	 	 	 	 	 	 	 	 	 	 	 	 	 	 	 	 	1581489240	8.57	15.87
12/02/2020 06:34:01	120220	12022020	063401	186.69	13.048788	-57.084665	186.98	0.170	0.770	2.590	186.69	-0.80	3.20	1015.30	26.20	26.20	20.90	20.90	-1.0	72.0	72.0	402.0	25.8	269.00	9.90	74.00	10.80	16	8944.0	27.3	27.2	1581489241	7.29	13.50
12/02/2020 06:34:02	120220	12022020	063402	187.02	13.048757	-57.084670	187.26	-0.040	1.210	1.910	187.02	-0.10	2.50	 	 	 	 	 	 	 	 	 	 	 	 	 	 	 	 	 	 	1581489242	6.69	12.39
12/02/2020 06:34:03	120220	12022020	063403	187.03	13.048722	-57.084673	187.24	0.000	0.450	1.660	187.03	-0.80	2.20	 	 	 	 	 	 	 	 	 	 	 	 	 	 	 	 	 	 	1581489243	7.55	13.98
12/02/2020 06:34:04	120220	12022020	063404	187.04	13.048682	-57.084678	187.30	0.050	-0.460	1.740	187.04	-1.70	2.20	 	 	 	 	 	 	 	 	 	 	 	 	 	 	 	 	 	 	1581489244	8.79	16.28
12/02/2020 06:34:05	120220	12022020	063405	187.28	13.048640	-57.084685	187.56	-0.180	-0.700	1.960	187.28	-2.10	2.40	 	 	 	 	 	 	 	 	 	 	 	 	 	 	 	 	 	 	1581489245	8.86	16.41
12/02/2020 06:34:06	120220	12022020	063406	187.40	13.048605	-57.084695	187.65	-0.510	-0.580	2.270	187.40	-2.00	2.70	 	 	 	 	 	 	 	 	 	 	 	 	 	 	 	 	 	 	1581489246	8.01	14.83
12/02/2020 06:34:07	120220	12022020	063407	187.14	13.048572	-57.084707	187.38	-0.530	-0.630	2.660	187.14	-2.00	3.10	 	 	 	 	 	 	 	 	 	 	 	 	 	 	 	 	 	 	1581489247	7.64	14.15
12/02/2020 06:34:08	120220	12022020	063408	186.88	13.048535	-57.084717	187.13	-0.180	-0.690	2.720	186.88	-2.10	3.20	 	 	 	 	 	 	 	 	 	 	 	 	 	 	 	 	 	 	1581489248	8.00	14.82
12/02/2020 06:34:09	120220	12022020	063409	186.76	13.048498	-57.084727	187.02	0.250	-0.520	2.340	186.76	-1.90	2.90	 	 	 	 	 	 	 	 	 	 	 	 	 	 	 	 	 	 	1581489249	8.15	15.09
12/02/2020 06:34:10	120220	12022020	063410	186.71	13.048462	-57.084732	186.94	0.470	-0.190	1.880	186.71	-1.60	2.40	 	 	 	 	 	 	 	 	 	 	 	 	 	 	 	 	 	 	1581489250	7.96	14.74
12/02/2020 06:34:11	120220	12022020	063411	186.58	13.048427	-57.084735	186.81	0.420	0.050	1.690	186.58	-1.30	2.20	 	 	 	 	 	 	 	 	 	 	 	 	 	 	 	 	 	 	1581489251	7.80	14.45
12/02/2020 06:34:12	120220	12022020	063412	186.46	13.048390	-57.084738	186.71	0.190	0.120	1.770	186.46	-1.30	2.30	 	 	 	 	 	 	 	 	 	 	 	 	 	 	 	 	 	 	1581489252	7.87	14.58
12/02/2020 06:34:13	120220	12022020	063413	186.55	13.048352	-57.084745	186.84	-0.080	0.210	1.780	186.55	-1.20	2.30	 	 	 	 	 	 	 	 	 	 	 	 	 	 	 	 	 	 	1581489253	8.05	14.91
12/02/2020 06:34:14	120220	12022020	063414	186.78	13.048317	-57.084752	187.06	-0.320	0.210	1.840	186.78	-1.10	2.30	 	 	 	 	 	 	 	 	 	 	 	 	 	 	 	 	 	 	1581489254	7.95	14.72
12/02/2020 06:34:15	120220	12022020	063415	186.80	13.048280	-57.084760	187.06	-0.360	-0.140	2.190	186.80	-1.40	2.60	 	 	 	 	 	 	 	 	 	 	 	 	 	 	 	 	 	 	1581489255	7.91	14.65
12/02/2020 06:34:16	120220	12022020	063416	186.68	13.048243	-57.084770	186.95	-0.180	-0.550	2.540	186.68	-1.90	3.00	 	 	 	 	 	 	 	 	 	 	 	 	 	 	 	 	 	 	1581489256	8.29	15.35
12/02/2020 06:34:17	120220	12022020	063417	186.69	13.048205	-57.084780	186.98	0.090	-0.580	2.520	186.69	-2.00	3.00	 	 	 	 	 	 	 	 	 	 	 	 	 	 	 	 	 	 	1581489257	8.42	15.59
12/02/2020 06:34:18	120220	12022020	063418	186.83	13.048168	-57.084788	187.14	0.310	-0.290	2.070	186.83	-1.70	2.60	 	 	 	 	 	 	 	 	 	 	 	 	 	 	 	 	 	 	1581489258	7.98	14.78
12/02/2020 06:34:19	120220	12022020	063419	186.99	13.048133	-57.084793	187.26	0.360	-0.090	1.490	186.99	-1.50	2.10	 	 	 	 	 	 	 	 	 	 	 	 	 	 	 	 	 	 	1581489259	7.55	13.98
12/02/2020 06:34:20	120220	12022020	063420	187.07	13.048098	-57.084795	187.32	0.170	-0.160	1.160	187.07	-1.50	1.70	 	 	 	 	 	 	 	 	 	 	 	 	 	 	 	 	 	 	1581489260	7.61	14.09
12/02/2020 06:34:21	120220	12022020	063421	186.93	13.048062	-57.084798	187.16	-0.150	-0.540	1.330	186.93	-1.80	1.80	 	 	 	 	 	 	 	 	 	 	 	 	 	 	 	 	 	 	1581489261	7.86	14.56
12/02/2020 06:34:22	120220	12022020	063422	186.52	13.048025	-57.084805	186.61	-0.280	-1.130	2.040	186.52	-2.40	2.40	 	 	 	 	 	 	 	 	 	 	 	 	 	 	 	 	 	 	1581489262	8.26	15.30
12/02/2020 06:34:23	120220	12022020	063423	185.82	13.047985	-57.084817	186.08	-0.160	-1.130	2.690	185.82	-2.50	3.10	 	 	 	 	 	 	 	 	 	 	 	 	 	 	 	 	 	 	1581489263	8.87	16.43
12/02/2020 06:34:24	120220	12022020	063424	185.76	13.047947	-57.084830	186.11	-0.040	0.000	2.640	185.76	-1.60	3.20	 	 	 	 	 	 	 	 	 	 	 	 	 	 	 	 	 	 	1581489264	8.61	15.95
12/02/2020 06:34:25	120220	12022020	063425	186.36	13.047913	-57.084837	186.67	-0.090	1.270	2.000	186.36	-0.20	2.60	 	 	 	 	 	 	 	 	 	 	 	 	 	 	 	 	 	 	1581489265	7.25	13.43
12/02/2020 06:34:26	120220	12022020	063426	187.03	13.047883	-57.084840	187.32	-0.150	1.240	1.220	187.03	-0.00	1.80	 	 	 	 	 	 	 	 	 	 	 	 	 	 	 	 	 	 	1581489266	6.69	12.39
12/02/2020 06:34:27	120220	12022020	063427	187.38	13.047847	-57.084843	187.63	-0.030	-0.040	0.980	187.38	-1.20	1.50	 	 	 	 	 	 	 	 	 	 	 	 	 	 	 	 	 	 	1581489267	7.73	14.32
12/02/2020 06:34:28	120220	12022020	063428	187.19	13.047805	-57.084848	187.40	0.210	-1.440	1.490	187.19	-2.60	1.90	 	 	 	 	 	 	 	 	 	 	 	 	 	 	 	 	 	 	1581489268	8.97	16.61
12/02/2020 06:34:29	120220	12022020	063429	186.66	13.047763	-57.084857	186.87	0.330	-1.950	2.210	186.66	-3.30	2.60	 	 	 	 	 	 	 	 	 	 	 	 	 	 	 	 	 	 	1581489269	9.23	17.09
12/02/2020 06:34:30	120220	12022020	063430	186.02	13.047725	-57.084867	186.24	0.180	-1.400	2.770	186.02	-2.90	3.20	 	 	 	 	 	 	 	 	 	 	 	 	 	 	 	 	 	 	1581489270	8.59	15.91
12/02/2020 06:34:31	120220	12022020	063431	185.62	13.047690	-57.084875	185.85	-0.210	-0.230	2.890	185.62	-1.80	3.40	 	 	 	 	 	 	 	 	 	 	 	 	 	 	 	 	 	 	1581489271	7.77	14.39
12/02/2020 06:34:32	120220	12022020	063432	185.66	13.047657	-57.084883	185.91	-0.610	0.810	2.540	185.66	-0.70	3.10	 	 	 	 	 	 	 	 	 	 	 	 	 	 	 	 	 	 	1581489272	7.24	13.41
12/02/2020 06:34:33	120220	12022020	063433	186.09	13.047623	-57.084888	186.36	-0.770	1.240	1.860	186.09	-0.20	2.40	 	 	 	 	 	 	 	 	 	 	 	 	 	 	 	 	 	 	1581489273	7.28	13.48
12/02/2020 06:34:34	120220	12022020	063434	186.90	13.047588	-57.084893	187.15	-0.560	1.080	1.080	186.90	-0.20	1.70	 	 	 	 	 	 	 	 	 	 	 	 	 	 	 	 	 	 	1581489274	7.72	14.30
12/02/2020 06:34:35	120220	12022020	063435	187.63	13.047552	-57.084900	187.85	0.050	0.340	0.600	187.63	-0.90	1.10	 	 	 	 	 	 	 	 	 	 	 	 	 	 	 	 	 	 	1581489275	8.00	14.82
12/02/2020 06:34:36	120220	12022020	063436	187.78	13.047513	-57.084907	187.97	0.910	-0.830	0.610	187.78	-2.00	1.10	 	 	 	 	 	 	 	 	 	 	 	 	 	 	 	 	 	 	1581489276	8.34	15.45
12/02/2020 06:34:37	120220	12022020	063437	187.57	13.047472	-57.084912	187.73	1.360	-1.510	0.970	187.53	-2.80	1.40	 	 	 	 	 	 	 	 	 	 	 	 	 	 	 	 	 	 	1581489277	8.81	16.32
12/02/2020 06:34:38	120220	12022020	063438	187.50	13.047433	-57.084915	187.75	0.780	-1.090	1.540	187.50	-2.60	1.90	 	 	 	 	 	 	 	 	 	 	 	 	 	 	 	 	 	 	1581489278	8.48	15.70
12/02/2020 06:34:39	120220	12022020	063439	187.63	13.047400	-57.084922	187.89	-0.400	-0.330	2.230	187.65	-1.80	2.60	 	 	 	 	 	 	 	 	 	 	 	 	 	 	 	 	 	 	1581489279	7.34	13.59
12/02/2020 06:34:40	120220	12022020	063440	187.58	13.047368	-57.084933	187.80	-1.120	-0.130	2.900	187.58	-1.50	3.30	 	 	 	 	 	 	 	 	 	 	 	 	 	 	 	 	 	 	1581489280	7.16	13.26
12/02/2020 06:34:41	120220	12022020	063441	187.40	13.047335	-57.084950	187.64	-0.780	-0.440	3.090	187.40	-1.80	3.60	 	 	 	 	 	 	 	 	 	 	 	 	 	 	 	 	 	 	1581489281	8.11	15.02
12/02/2020 06:34:42	120220	12022020	063442	187.37	13.047295	-57.084962	187.64	-0.030	-0.530	2.890	187.37	-1.90	3.40	 	 	 	 	 	 	 	 	 	 	 	 	 	 	 	 	 	 	1581489282	8.73	16.17
12/02/2020 06:34:43	120220	12022020	063443	187.59	13.047257	-57.084970	187.87	0.280	-0.210	2.310	187.59	-1.60	2.90	 	 	 	 	 	 	 	 	 	 	 	 	 	 	 	 	 	 	1581489283	8.54	15.82
12/02/2020 06:34:44	120220	12022020	063444	187.91	13.047220	-57.084975	188.16	-0.010	0.180	1.530	187.91	-1.20	2.10	 	 	 	 	 	 	 	 	 	 	 	 	 	 	 	 	 	 	1581489284	8.00	14.82
12/02/2020 06:34:45	120220	12022020	063445	188.20	13.047183	-57.084978	188.43	-0.410	0.320	0.990	188.20	-1.10	1.50	 	 	 	 	 	 	 	 	 	 	 	 	 	 	 	 	 	 	1581489285	7.75	14.35
12/02/2020 06:34:46	120220	12022020	063446	188.40	13.047148	-57.084983	188.62	-0.400	0.170	0.790	188.40	-1.20	1.30	 	 	 	 	 	 	 	 	 	 	 	 	 	 	 	 	 	 	1581489286	7.87	14.58
12/02/2020 06:34:47	120220	12022020	063447	188.37	13.047110	-57.084990	188.55	0.020	-0.260	0.980	188.37	-1.60	1.40	 	 	 	 	 	 	 	 	 	 	 	 	 	 	 	 	 	 	1581489287	8.08	14.96
12/02/2020 06:34:48	120220	12022020	063448	188.03	13.047073	-57.084998	188.08	0.510	-0.730	1.490	188.03	-2.00	1.90	 	 	 	 	 	 	 	 	 	 	 	 	 	 	 	 	 	 	1581489288	8.39	15.54
12/02/2020 06:34:49	120220	12022020	063449	187.43	13.047033	-57.085008	187.64	0.640	-0.650	1.920	187.43	-2.10	2.40	 	 	 	 	 	 	 	 	 	 	 	 	 	 	 	 	 	 	1581489289	8.60	15.93
12/02/2020 06:34:50	120220	12022020	063450	187.33	13.046997	-57.085017	187.60	0.290	0.120	2.090	187.33	-1.40	2.60	 	 	 	 	 	 	 	 	 	 	 	 	 	 	 	 	 	 	1581489290	8.15	15.09
12/02/2020 06:34:51	120220	12022020	063451	187.47	13.046963	-57.085025	187.76	-0.150	0.810	2.110	187.47	-0.60	2.60	 	 	 	 	 	 	 	 	 	 	 	 	 	 	 	 	 	 	1581489291	7.25	13.43
12/02/2020 06:34:52	120220	12022020	063452	187.59	13.046932	-57.085033	187.87	-0.270	0.590	2.060	187.59	-0.70	2.60	 	 	 	 	 	 	 	 	 	 	 	 	 	 	 	 	 	 	1581489292	7.08	13.11
12/02/2020 06:34:53	120220	12022020	063453	187.51	13.046897	-57.085040	187.76	-0.020	-0.480	2.050	187.51	-1.70	2.50	 	 	 	 	 	 	 	 	 	 	 	 	 	 	 	 	 	 	1581489293	7.91	14.65
12/02/2020 06:34:54	120220	12022020	063454	187.14	13.046855	-57.085048	187.39	0.230	-1.500	2.390	187.14	-2.80	2.80	 	 	 	 	 	 	 	 	 	 	 	 	 	 	 	 	 	 	1581489294	8.87	16.43
12/02/2020 06:34:55	120220	12022020	063455	186.83	13.046815	-57.085060	187.10	0.150	-1.490	2.670	186.83	-2.90	3.10	 	 	 	 	 	 	 	 	 	 	 	 	 	 	 	 	 	 	1581489295	9.08	16.82
12/02/2020 06:34:56	120220	12022020	063456	186.71	13.046778	-57.085070	186.97	-0.180	-0.590	2.570	186.71	-2.10	3.10	 	 	 	 	 	 	 	 	 	 	 	 	 	 	 	 	 	 	1581489296	8.12	15.04
12/02/2020 06:34:57	120220	12022020	063457	186.66	13.046747	-57.085078	186.90	-0.280	0.140	2.160	186.66	-1.30	2.70	 	 	 	 	 	 	 	 	 	 	 	 	 	 	 	 	 	 	1581489297	7.18	13.30
12/02/2020 06:34:58	120220	12022020	063458	186.46	13.046713	-57.085085	186.68	0.100	0.060	1.770	186.46	-1.30	2.30	 	 	 	 	 	 	 	 	 	 	 	 	 	 	 	 	 	 	1581489298	7.36	13.63
12/02/2020 06:34:59	120220	12022020	063459	186.26	13.046673	-57.085090	186.49	0.480	-0.280	1.660	186.26	-1.60	2.20	 	 	 	 	 	 	 	 	 	 	 	 	 	 	 	 	 	 	1581489299	8.35	15.46
12/02/2020 06:35:00	120220	12022020	063500	186.33	13.046633	-57.085093	186.62	0.330	-0.210	1.680	186.33	-1.60	2.20	 	 	 	 	 	 	 	 	 	 	 	 	 	 	 	 	 	 	1581489300	8.77	16.24
12/02/2020 06:35:01	120220	12022020	063501	186.68	13.046595	-57.085098	186.94	-0.240	0.210	1.870	186.68	-1.20	2.30	1015.20	26.20	26.30	21.00	21.00	-1.0	73.0	73.0	401.0	25.8	273.00	10.00	77.00	10.60	16	9516.0	27.2	27.2	1581489301	8.21	15.20
12/02/2020 06:35:02	120220	12022020	063502	186.90	13.046560	-57.085107	187.23	-0.620	0.440	2.110	186.90	-0.90	2.60	 	 	 	 	 	 	 	 	 	 	 	 	 	 	 	 	 	 	1581489302	7.70	14.26
12/02/2020 06:35:03	120220	12022020	063503	187.17	13.046527	-57.085118	187.45	-0.450	0.330	2.130	187.17	-1.00	2.60	 	 	 	 	 	 	 	 	 	 	 	 	 	 	 	 	 	 	1581489303	7.79	14.43
12/02/2020 06:35:04	120220	12022020	063504	187.24	13.046490	-57.085127	187.50	0.030	-0.090	2.050	187.24	-1.40	2.60	 	 	 	 	 	 	 	 	 	 	 	 	 	 	 	 	 	 	1581489304	7.99	14.80
12/02/2020 06:35:05	120220	12022020	063505	187.08	13.046452	-57.085133	187.32	0.390	-0.670	2.040	187.08	-2.00	2.50	 	 	 	 	 	 	 	 	 	 	 	 	 	 	 	 	 	 	1581489305	8.23	15.24
12/02/2020 06:35:06	120220	12022020	063506	186.83	13.046413	-57.085138	187.08	0.380	-1.040	2.170	186.83	-2.40	2.60	 	 	 	 	 	 	 	 	 	 	 	 	 	 	 	 	 	 	1581489306	8.43	15.61
12/02/2020 06:35:07	120220	12022020	063507	186.56	13.046375	-57.085147	186.79	0.180	-0.990	2.470	186.56	-2.40	2.90	 	 	 	 	 	 	 	 	 	 	 	 	 	 	 	 	 	 	1581489307	8.33	15.43
12/02/2020 06:35:08	120220	12022020	063508	186.29	13.046338	-57.085155	186.52	0.010	-0.600	2.640	186.29	-2.00	3.10	 	 	 	 	 	 	 	 	 	 	 	 	 	 	 	 	 	 	1581489308	8.07	14.95
12/02/2020 06:35:09	120220	12022020	063509	186.15	13.046303	-57.085163	186.41	-0.080	0.010	2.440	186.15	-1.40	3.00	 	 	 	 	 	 	 	 	 	 	 	 	 	 	 	 	 	 	1581489309	7.86	14.56
12/02/2020 06:35:10	120220	12022020	063510	186.22	13.046268	-57.085170	186.47	-0.180	0.480	2.010	186.22	-0.90	2.60	 	 	 	 	 	 	 	 	 	 	 	 	 	 	 	 	 	 	1581489310	7.62	14.11
12/02/2020 06:35:11	120220	12022020	063511	186.43	13.046233	-57.085177	186.69	-0.250	0.480	1.500	186.43	-0.90	2.10	 	 	 	 	 	 	 	 	 	 	 	 	 	 	 	 	 	 	1581489311	7.66	14.19
12/02/2020 06:35:12	120220	12022020	063512	186.81	13.046197	-57.085182	187.05	-0.240	0.180	1.030	186.81	-1.10	1.60	 	 	 	 	 	 	 	 	 	 	 	 	 	 	 	 	 	 	1581489312	8.03	14.87
12/02/2020 06:35:13	120220	12022020	063513	187.08	13.046158	-57.085187	187.37	-0.050	-0.280	0.980	187.13	-1.60	1.50	 	 	 	 	 	 	 	 	 	 	 	 	 	 	 	 	 	 	1581489313	8.19	15.17
12/02/2020 06:35:14	120220	12022020	063514	187.18	13.046120	-57.085195	187.37	0.350	-0.900	1.390	187.18	-2.20	1.80	 	 	 	 	 	 	 	 	 	 	 	 	 	 	 	 	 	 	1581489314	8.33	15.43
12/02/2020 06:35:15	120220	12022020	063515	186.79	13.046082	-57.085203	187.01	0.740	-1.190	2.000	186.79	-2.60	2.40	 	 	 	 	 	 	 	 	 	 	 	 	 	 	 	 	 	 	1581489315	8.60	15.93
12/02/2020 06:35:16	120220	12022020	063516	186.53	13.046043	-57.085212	186.79	0.700	-0.570	2.380	186.53	-2.10	2.90	 	 	 	 	 	 	 	 	 	 	 	 	 	 	 	 	 	 	1581489316	8.53	15.80
12/02/2020 06:35:17	120220	12022020	063517	186.78	13.046008	-57.085218	187.08	0.090	0.560	2.300	186.78	-1.00	2.80	 	 	 	 	 	 	 	 	 	 	 	 	 	 	 	 	 	 	1581489317	7.65	14.17
12/02/2020 06:35:18	120220	12022020	063518	187.30	13.045977	-57.085222	187.59	-0.700	1.000	2.020	187.30	-0.40	2.50	 	 	 	 	 	 	 	 	 	 	 	 	 	 	 	 	 	 	1581489318	6.85	12.69
12/02/2020 06:35:19	120220	12022020	063519	187.47	13.045943	-57.085228	187.73	-1.070	0.080	2.120	187.47	-1.10	2.60	 	 	 	 	 	 	 	 	 	 	 	 	 	 	 	 	 	 	1581489319	7.27	13.46
12/02/2020 06:35:20	120220	12022020	063520	187.15	13.045903	-57.085238	187.38	-0.740	-1.460	2.590	187.15	-2.60	3.00	 	 	 	 	 	 	 	 	 	 	 	 	 	 	 	 	 	 	1581489320	8.77	16.24
12/02/2020 06:35:21	120220	12022020	063521	186.62	13.045860	-57.085253	186.86	0.020	-2.130	2.910	186.62	-3.50	3.40	 	 	 	 	 	 	 	 	 	 	 	 	 	 	 	 	 	 	1581489321	9.77	18.09
12/02/2020 06:35:22	120220	12022020	063522	186.19	13.045818	-57.085263	186.44	0.610	-1.300	2.720	186.19	-2.80	3.30	 	 	 	 	 	 	 	 	 	 	 	 	 	 	 	 	 	 	1581489322	9.15	16.95
12/02/2020 06:35:23	120220	12022020	063523	186.01	13.045783	-57.085270	186.26	0.680	0.240	2.140	186.01	-1.30	2.70	 	 	 	 	 	 	 	 	 	 	 	 	 	 	 	 	 	 	1581489323	7.68	14.22
12/02/2020 06:35:24	120220	12022020	063524	186.04	13.045752	-57.085272	186.27	0.350	1.160	1.510	186.04	-0.30	2.10	 	 	 	 	 	 	 	 	 	 	 	 	 	 	 	 	 	 	1581489324	6.95	12.87
12/02/2020 06:35:25	120220	12022020	063525	186.12	13.045717	-57.085272	186.35	-0.080	1.050	1.270	186.12	-0.30	1.80	 	 	 	 	 	 	 	 	 	 	 	 	 	 	 	 	 	 	1581489325	7.51	13.91
12/02/2020 06:35:26	120220	12022020	063526	186.27	13.045678	-57.085277	186.54	-0.400	0.540	1.590	186.27	-0.80	2.00	 	 	 	 	 	 	 	 	 	 	 	 	 	 	 	 	 	 	1581489326	8.41	15.58
12/02/2020 06:35:27	120220	12022020	063527	186.70	13.045638	-57.085285	186.99	-0.560	0.320	1.960	186.70	-1.00	2.40	 	 	 	 	 	 	 	 	 	 	 	 	 	 	 	 	 	 	1581489327	8.66	16.04
12/02/2020 06:35:28	120220	12022020	063528	187.25	13.045602	-57.085297	187.54	-0.520	0.280	2.120	187.25	-1.10	2.60	 	 	 	 	 	 	 	 	 	 	 	 	 	 	 	 	 	 	1581489328	8.06	14.93
12/02/2020 06:35:29	120220	12022020	063529	187.55	13.045568	-57.085307	187.82	-0.140	-0.250	2.000	187.57	-1.50	2.50	 	 	 	 	 	 	 	 	 	 	 	 	 	 	 	 	 	 	1581489329	7.52	13.93
12/02/2020 06:35:30	120220	12022020	063530	187.44	13.045533	-57.085317	187.65	0.630	-1.450	1.680	187.44	-2.60	2.20	 	 	 	 	 	 	 	 	 	 	 	 	 	 	 	 	 	 	1581489330	7.82	14.48
12/02/2020 06:35:31	120220	12022020	063531	187.07	13.045493	-57.085322	187.28	1.340	-2.320	1.400	187.07	-3.60	1.90	 	 	 	 	 	 	 	 	 	 	 	 	 	 	 	 	 	 	1581489331	8.73	16.17
12/02/2020 06:35:32	120220	12022020	063532	186.59	13.045453	-57.085325	186.79	1.350	-2.120	1.420	186.59	-3.60	1.90	 	 	 	 	 	 	 	 	 	 	 	 	 	 	 	 	 	 	1581489332	8.85	16.39
12/02/2020 06:35:33	120220	12022020	063533	186.12	13.045415	-57.085327	186.35	0.470	-0.960	1.830	186.12	-2.50	2.20	 	 	 	 	 	 	 	 	 	 	 	 	 	 	 	 	 	 	1581489333	8.17	15.13
12/02/2020 06:35:34	120220	12022020	063534	185.94	13.045380	-57.085332	186.21	-0.880	0.550	2.590	185.94	-1.00	3.00	 	 	 	 	 	 	 	 	 	 	 	 	 	 	 	 	 	 	1581489334	7.49	13.87
12/02/2020 06:35:35	120220	12022020	063535	186.26	13.045347	-57.085342	186.57	-1.950	1.620	3.080	186.26	0.20	3.50	 	 	 	 	 	 	 	 	 	 	 	 	 	 	 	 	 	 	1581489335	7.42	13.74
12/02/2020 06:35:36	120220	12022020	063536	186.64	13.045313	-57.085358	187.05	-2.040	1.670	3.030	186.64	0.40	3.60	 	 	 	 	 	 	 	 	 	 	 	 	 	 	 	 	 	 	1581489336	7.91	14.65
12/02/2020 06:35:37	120220	12022020	063537	187.22	13.045277	-57.085373	187.52	-1.060	0.890	2.360	187.22	-0.40	3.00	 	 	 	 	 	 	 	 	 	 	 	 	 	 	 	 	 	 	1581489337	8.67	16.06
12/02/2020 06:35:38	120220	12022020	063538	187.77	13.045235	-57.085383	188.03	0.320	0.060	1.200	187.77	-1.20	1.90	 	 	 	 	 	 	 	 	 	 	 	 	 	 	 	 	 	 	1581489338	9.07	16.80
12/02/2020 06:35:39	120220	12022020	063539	188.09	13.045195	-57.085387	188.28	1.260	-0.640	0.220	188.09	-1.90	0.80	 	 	 	 	 	 	 	 	 	 	 	 	 	 	 	 	 	 	1581489339	8.77	16.24
12/02/2020 06:35:40	120220	12022020	063540	187.85	13.045155	-57.085387	187.98	1.470	-1.270	0.090	187.85	-2.60	0.60	 	 	 	 	 	 	 	 	 	 	 	 	 	 	 	 	 	 	1581489340	8.46	15.67
12/02/2020 06:35:41	120220	12022020	063541	187.30	13.045117	-57.085387	187.32	1.120	-1.410	0.780	187.17	-2.80	1.20	 	 	 	 	 	 	 	 	 	 	 	 	 	 	 	 	 	 	1581489341	8.30	15.37
12/02/2020 06:35:42	120220	12022020	063542	186.63	13.045080	-57.085392	186.84	0.380	-0.610	1.700	186.63	-2.10	2.10	 	 	 	 	 	 	 	 	 	 	 	 	 	 	 	 	 	 	1581489342	7.99	14.80
12/02/2020 06:35:43	120220	12022020	063543	186.49	13.045048	-57.085400	186.74	-0.480	0.560	2.390	186.49	-0.90	2.80	 	 	 	 	 	 	 	 	 	 	 	 	 	 	 	 	 	 	1581489343	7.24	13.41
12/02/2020 06:35:44	120220	12022020	063544	186.64	13.045017	-57.085412	186.93	-1.040	0.980	2.700	186.64	-0.40	3.20	 	 	 	 	 	 	 	 	 	 	 	 	 	 	 	 	 	 	1581489344	6.94	12.85
12/02/2020 06:35:45	120220	12022020	063545	186.90	13.044983	-57.085425	187.18	-0.950	0.350	2.720	186.90	-0.90	3.20	 	 	 	 	 	 	 	 	 	 	 	 	 	 	 	 	 	 	1581489345	7.71	14.28
12/02/2020 06:35:46	120220	12022020	063546	187.07	13.044945	-57.085438	187.33	-0.220	-0.660	2.380	187.07	-1.90	2.90	 	 	 	 	 	 	 	 	 	 	 	 	 	 	 	 	 	 	1581489346	8.73	16.17
12/02/2020 06:35:47	120220	12022020	063547	187.20	13.044905	-57.085448	187.45	0.590	-1.130	1.690	187.20	-2.50	2.30	 	 	 	 	 	 	 	 	 	 	 	 	 	 	 	 	 	 	1581489347	9.04	16.74
12/02/2020 06:35:48	120220	12022020	063548	187.21	13.044865	-57.085453	187.43	0.870	-0.870	1.060	187.21	-2.30	1.60	 	 	 	 	 	 	 	 	 	 	 	 	 	 	 	 	 	 	1581489348	8.44	15.63
12/02/2020 06:35:49	120220	12022020	063549	187.04	13.044830	-57.085455	187.24	0.580	-0.500	0.780	187.04	-1.90	1.30	 	 	 	 	 	 	 	 	 	 	 	 	 	 	 	 	 	 	1581489349	7.67	14.20
12/02/2020 06:35:50	120220	12022020	063550	186.90	13.044795	-57.085457	187.06	0.020	-0.320	0.820	186.90	-1.70	1.30	 	 	 	 	 	 	 	 	 	 	 	 	 	 	 	 	 	 	1581489350	7.61	14.09
12/02/2020 06:35:51	120220	12022020	063551	186.81	13.044758	-57.085462	187.02	-0.460	-0.160	1.200	186.81	-1.50	1.60	 	 	 	 	 	 	 	 	 	 	 	 	 	 	 	 	 	 	1581489351	7.91	14.65
12/02/2020 06:35:52	120220	12022020	063552	186.79	13.044722	-57.085470	186.97	-0.610	0.070	1.790	186.79	-1.30	2.20	 	 	 	 	 	 	 	 	 	 	 	 	 	 	 	 	 	 	1581489352	8.08	14.96
12/02/2020 06:35:53	120220	12022020	063553	186.69	13.044687	-57.085482	186.90	-0.460	0.230	2.370	186.69	-1.10	2.80	 	 	 	 	 	 	 	 	 	 	 	 	 	 	 	 	 	 	1581489353	8.06	14.93
12/02/2020 06:35:54	120220	12022020	063554	186.61	13.044650	-57.085492	186.84	-0.210	0.210	2.900	186.61	-1.10	3.30	 	 	 	 	 	 	 	 	 	 	 	 	 	 	 	 	 	 	1581489354	8.08	14.96
12/02/2020 06:35:55	120220	12022020	063555	186.47	13.044613	-57.085502	186.72	0.070	0.030	3.220	186.47	-1.30	3.70	 	 	 	 	 	 	 	 	 	 	 	 	 	 	 	 	 	 	1581489355	8.23	15.24
12/02/2020 06:35:56	120220	12022020	063556	186.43	13.044575	-57.085512	186.71	0.390	0.010	2.900	186.43	-1.40	3.50	 	 	 	 	 	 	 	 	 	 	 	 	 	 	 	 	 	 	1581489356	8.34	15.45
12/02/2020 06:35:57	120220	12022020	063557	186.73	13.044538	-57.085518	187.01	0.640	0.300	2.080	186.73	-1.10	2.70	 	 	 	 	 	 	 	 	 	 	 	 	 	 	 	 	 	 	1581489357	8.02	14.85
12/02/2020 06:35:58	120220	12022020	063558	187.21	13.044505	-57.085520	187.48	0.680	0.370	1.220	187.21	-1.00	1.80	 	 	 	 	 	 	 	 	 	 	 	 	 	 	 	 	 	 	1581489358	7.42	13.74
12/02/2020 06:35:59	120220	12022020	063559	187.49	13.044470	-57.085520	187.72	0.520	-0.350	0.710	187.49	-1.60	1.20	 	 	 	 	 	 	 	 	 	 	 	 	 	 	 	 	 	 	1581489359	7.39	13.69
12/02/2020 06:36:00	120220	12022020	063600	187.29	13.044432	-57.085522	187.47	0.270	-1.560	1.020	187.29	-2.80	1.40	 	 	 	 	 	 	 	 	 	 	 	 	 	 	 	 	 	 	1581489360	8.07	14.95
12/02/2020 06:36:01	120220	12022020	063601	186.70	13.044392	-57.085530	186.89	0.000	-2.240	2.000	186.70	-3.60	2.40	1015.20	26.20	26.30	21.00	21.00	-1.0	73.0	73.0	399.0	25.8	274.00	9.70	77.00	10.20	16	10013.0	27.2	27.2	1581489361	8.85	16.39
12/02/2020 06:36:02	120220	12022020	063602	186.28	13.044353	-57.085543	186.43	-0.320	-1.600	2.890	186.28	-3.10	3.30	 	 	 	 	 	 	 	 	 	 	 	 	 	 	 	 	 	 	1581489362	8.83	16.35
12/02/2020 06:36:03	120220	12022020	063603	186.01	13.044318	-57.085557	186.26	-0.650	-0.210	3.220	186.01	-1.70	3.70	 	 	 	 	 	 	 	 	 	 	 	 	 	 	 	 	 	 	1581489363	7.89	14.61
12/02/2020 06:36:04	120220	12022020	063604	186.10	13.044287	-57.085567	186.44	-0.750	0.830	2.930	186.10	-0.60	3.50	 	 	 	 	 	 	 	 	 	 	 	 	 	 	 	 	 	 	1581489364	7.23	13.39
12/02/2020 06:36:05	120220	12022020	063605	186.48	13.044253	-57.085575	186.84	-0.440	1.090	2.170	186.56	-0.30	2.80	 	 	 	 	 	 	 	 	 	 	 	 	 	 	 	 	 	 	1581489365	7.48	13.85
12/02/2020 06:36:06	120220	12022020	063606	187.02	13.044215	-57.085580	187.29	0.080	0.850	1.360	187.02	-0.50	2.00	 	 	 	 	 	 	 	 	 	 	 	 	 	 	 	 	 	 	1581489366	8.14	15.08
12/02/2020 06:36:07	120220	12022020	063607	187.49	13.044175	-57.085582	187.74	0.430	0.410	0.760	187.49	-0.90	1.30	 	 	 	 	 	 	 	 	 	 	 	 	 	 	 	 	 	 	1581489367	8.50	15.74
12/02/2020 06:36:08	120220	12022020	063608	187.78	13.044137	-57.085583	187.99	0.440	-0.040	0.750	187.78	-1.30	1.20	 	 	 	 	 	 	 	 	 	 	 	 	 	 	 	 	 	 	1581489368	8.38	15.52
12/02/2020 06:36:09	120220	12022020	063609	187.65	13.044100	-57.085588	187.84	0.340	-0.540	1.420	187.65	-1.80	1.80	 	 	 	 	 	 	 	 	 	 	 	 	 	 	 	 	 	 	1581489369	8.05	14.91
12/02/2020 06:36:10	120220	12022020	063610	187.15	13.044063	-57.085597	187.35	0.360	-0.950	2.260	187.15	-2.30	2.60	 	 	 	 	 	 	 	 	 	 	 	 	 	 	 	 	 	 	1581489370	8.05	14.91
12/02/2020 06:36:11	120220	12022020	063611	186.69	13.044027	-57.085607	186.93	0.370	-1.000	2.790	186.69	-2.40	3.20	 	 	 	 	 	 	 	 	 	 	 	 	 	 	 	 	 	 	1581489371	8.15	15.09
12/02/2020 06:36:12	120220	12022020	063612	186.72	13.043992	-57.085617	186.98	0.150	-0.660	2.740	186.72	-2.10	3.30	 	 	 	 	 	 	 	 	 	 	 	 	 	 	 	 	 	 	1581489372	7.97	14.76
12/02/2020 06:36:13	120220	12022020	063613	187.14	13.043957	-57.085623	187.41	-0.200	-0.200	2.260	187.14	-1.60	2.80	 	 	 	 	 	 	 	 	 	 	 	 	 	 	 	 	 	 	1581489373	7.60	14.08
12/02/2020 06:36:14	120220	12022020	063614	187.53	13.043923	-57.085630	187.77	-0.450	-0.070	1.780	187.53	-1.40	2.30	 	 	 	 	 	 	 	 	 	 	 	 	 	 	 	 	 	 	1581489374	7.41	13.72
12/02/2020 06:36:15	120220	12022020	063615	187.72	13.043887	-57.085637	187.94	-0.500	-0.240	1.510	187.72	-1.60	2.00	 	 	 	 	 	 	 	 	 	 	 	 	 	 	 	 	 	 	1581489375	7.77	14.39
12/02/2020 06:36:16	120220	12022020	063616	187.72	13.043850	-57.085643	187.89	-0.380	-0.540	1.520	187.72	-1.80	2.00	 	 	 	 	 	 	 	 	 	 	 	 	 	 	 	 	 	 	1581489376	8.20	15.19
12/02/2020 06:36:17	120220	12022020	063617	187.54	13.043810	-57.085652	187.69	-0.140	-0.770	1.700	187.51	-2.10	2.20	 	 	 	 	 	 	 	 	 	 	 	 	 	 	 	 	 	 	1581489377	8.48	15.70
12/02/2020 06:36:18	120220	12022020	063618	187.41	13.043772	-57.085660	187.60	0.090	-0.470	1.720	187.41	-1.90	2.20	 	 	 	 	 	 	 	 	 	 	 	 	 	 	 	 	 	 	1581489378	8.59	15.91
12/02/2020 06:36:19	120220	12022020	063619	187.41	13.043735	-57.085667	187.61	0.170	0.260	1.560	187.42	-1.20	2.10	 	 	 	 	 	 	 	 	 	 	 	 	 	 	 	 	 	 	1581489379	8.12	15.04
12/02/2020 06:36:20	120220	12022020	063620	187.53	13.043700	-57.085672	187.73	0.080	0.780	1.390	187.53	-0.60	1.90	 	 	 	 	 	 	 	 	 	 	 	 	 	 	 	 	 	 	1581489380	7.55	13.98
12/02/2020 06:36:21	120220	12022020	063621	187.83	13.043665	-57.085677	188.03	-0.070	0.850	1.100	187.83	-0.50	1.60	 	 	 	 	 	 	 	 	 	 	 	 	 	 	 	 	 	 	1581489381	7.58	14.04
12/02/2020 06:36:22	120220	12022020	063622	188.04	13.043628	-57.085682	188.20	-0.130	0.470	1.000	188.04	-0.80	1.50	 	 	 	 	 	 	 	 	 	 	 	 	 	 	 	 	 	 	1581489382	7.78	14.41
12/02/2020 06:36:23	120220	12022020	063623	187.89	13.043593	-57.085690	188.05	0.040	-0.250	1.260	187.89	-1.50	1.70	 	 	 	 	 	 	 	 	 	 	 	 	 	 	 	 	 	 	1581489383	8.01	14.83
12/02/2020 06:36:24	120220	12022020	063624	187.88	13.043555	-57.085698	188.07	0.220	-0.760	1.440	187.88	-2.10	1.90	 	 	 	 	 	 	 	 	 	 	 	 	 	 	 	 	 	 	1581489384	8.36	15.48
12/02/2020 06:36:25	120220	12022020	063625	187.99	13.043518	-57.085707	188.19	0.270	-1.070	1.790	187.99	-2.40	2.20	 	 	 	 	 	 	 	 	 	 	 	 	 	 	 	 	 	 	1581489385	8.11	15.02
12/02/2020 06:36:26	120220	12022020	063626	187.87	13.043482	-57.085717	187.93	0.260	-1.430	2.460	187.87	-2.70	2.80	 	 	 	 	 	 	 	 	 	 	 	 	 	 	 	 	 	 	1581489386	7.94	14.70
12/02/2020 06:36:27	120220	12022020	063627	187.06	13.043445	-57.085727	187.21	0.320	-1.640	3.120	187.06	-3.00	3.50	 	 	 	 	 	 	 	 	 	 	 	 	 	 	 	 	 	 	1581489387	8.30	15.37
12/02/2020 06:36:28	120220	12022020	063628	186.52	13.043407	-57.085738	186.64	0.230	-0.990	3.350	186.52	-2.50	3.80	 	 	 	 	 	 	 	 	 	 	 	 	 	 	 	 	 	 	1581489388	8.61	15.95
12/02/2020 06:36:29	120220	12022020	063629	186.43	13.043370	-57.085745	186.70	-0.210	0.400	3.070	186.43	-1.10	3.60	 	 	 	 	 	 	 	 	 	 	 	 	 	 	 	 	 	 	1581489389	7.98	14.78
12/02/2020 06:36:30	120220	12022020	063630	186.93	13.043338	-57.085752	187.20	-0.770	1.400	2.420	186.93	-0.00	3.00	 	 	 	 	 	 	 	 	 	 	 	 	 	 	 	 	 	 	1581489390	7.06	13.08
12/02/2020 06:36:31	120220	12022020	063631	187.42	13.043305	-57.085757	187.68	-1.020	1.070	1.980	187.42	-0.20	2.50	 	 	 	 	 	 	 	 	 	 	 	 	 	 	 	 	 	 	1581489391	7.16	13.26
12/02/2020 06:36:32	120220	12022020	063632	187.65	13.043267	-57.085765	187.88	-0.760	-0.130	2.080	187.65	-1.30	2.50	 	 	 	 	 	 	 	 	 	 	 	 	 	 	 	 	 	 	1581489392	8.39	15.54
12/02/2020 06:36:33	120220	12022020	063633	187.72	13.043225	-57.085777	187.95	-0.140	-0.840	2.280	187.72	-2.20	2.80	 	 	 	 	 	 	 	 	 	 	 	 	 	 	 	 	 	 	1581489393	9.36	17.33
12/02/2020 06:36:34	120220	12022020	063634	187.74	13.043185	-57.085788	187.93	0.500	-0.580	2.110	187.74	-2.00	2.60	 	 	 	 	 	 	 	 	 	 	 	 	 	 	 	 	 	 	1581489394	8.81	16.32
12/02/2020 06:36:35	120220	12022020	063635	187.65	13.043152	-57.085795	187.83	0.940	-0.080	1.590	187.65	-1.50	2.10	 	 	 	 	 	 	 	 	 	 	 	 	 	 	 	 	 	 	1581489395	7.57	14.02
12/02/2020 06:36:36	120220	12022020	063636	187.49	13.043117	-57.085797	187.66	1.010	0.040	1.140	187.49	-1.30	1.70	 	 	 	 	 	 	 	 	 	 	 	 	 	 	 	 	 	 	1581489396	7.30	13.52
12/02/2020 06:36:37	120220	12022020	063637	187.35	13.043082	-57.085797	187.52	0.690	-0.250	0.950	187.35	-1.60	1.50	 	 	 	 	 	 	 	 	 	 	 	 	 	 	 	 	 	 	1581489397	7.74	14.33
12/02/2020 06:36:38	120220	12022020	063638	187.27	13.043043	-57.085798	187.44	0.130	-0.550	1.140	187.27	-1.90	1.60	 	 	 	 	 	 	 	 	 	 	 	 	 	 	 	 	 	 	1581489398	8.15	15.09
12/02/2020 06:36:39	120220	12022020	063639	187.00	13.043007	-57.085805	187.16	-0.370	-0.800	2.010	187.00	-2.10	2.30	 	 	 	 	 	 	 	 	 	 	 	 	 	 	 	 	 	 	1581489399	8.14	15.08
12/02/2020 06:36:40	120220	12022020	063640	186.62	13.042970	-57.085817	186.72	-0.650	-0.900	3.160	186.62	-2.30	3.50	 	 	 	 	 	 	 	 	 	 	 	 	 	 	 	 	 	 	1581489400	8.33	15.43
12/02/2020 06:36:41	120220	12022020	063641	186.24	13.042932	-57.085833	186.42	-0.850	-0.610	3.960	186.19	-2.00	4.40	 	 	 	 	 	 	 	 	 	 	 	 	 	 	 	 	 	 	1581489401	8.57	15.87
12/02/2020 06:36:42	120220	12022020	063642	186.15	13.042897	-57.085848	186.42	-0.970	-0.060	4.110	186.15	-1.50	4.60	 	 	 	 	 	 	 	 	 	 	 	 	 	 	 	 	 	 	1581489402	8.35	15.46
12/02/2020 06:36:43	120220	12022020	063643	186.43	13.042862	-57.085863	186.86	-0.820	0.500	3.370	186.55	-0.90	4.00	 	 	 	 	 	 	 	 	 	 	 	 	 	 	 	 	 	 	1581489403	8.02	14.85
12/02/2020 06:36:44	120220	12022020	063644	187.35	13.042828	-57.085873	187.65	-0.220	0.820	1.830	187.35	-0.60	2.50	 	 	 	 	 	 	 	 	 	 	 	 	 	 	 	 	 	 	1581489404	7.66	14.19
12/02/2020 06:36:45	120220	12022020	063645	188.06	13.042793	-57.085875	188.29	0.700	0.490	0.220	188.06	-0.80	0.90	 	 	 	 	 	 	 	 	 	 	 	 	 	 	 	 	 	 	1581489405	7.56	14.00
12/02/2020 06:36:46	120220	12022020	063646	188.34	13.042755	-57.085872	188.51	1.460	-0.410	-0.680	188.34	-1.60	-0.10	 	 	 	 	 	 	 	 	 	 	 	 	 	 	 	 	 	 	1581489406	8.24	15.26
12/02/2020 06:36:47	120220	12022020	063647	188.26	13.042713	-57.085868	188.41	1.530	-1.160	-0.710	188.26	-2.50	-0.30	 	 	 	 	 	 	 	 	 	 	 	 	 	 	 	 	 	 	1581489407	8.86	16.41
12/02/2020 06:36:48	120220	12022020	063648	187.96	13.042673	-57.085868	188.11	0.820	-1.220	0.070	187.96	-2.60	0.40	 	 	 	 	 	 	 	 	 	 	 	 	 	 	 	 	 	 	1581489408	8.65	16.02
12/02/2020 06:36:49	120220	12022020	063649	187.53	13.042637	-57.085873	187.70	-0.270	-0.800	1.480	187.53	-2.20	1.80	 	 	 	 	 	 	 	 	 	 	 	 	 	 	 	 	 	 	1581489409	7.94	14.70
12/02/2020 06:36:50	120220	12022020	063650	187.08	13.042603	-57.085887	187.26	-1.140	-0.510	3.040	187.08	-1.90	3.30	 	 	 	 	 	 	 	 	 	 	 	 	 	 	 	 	 	 	1581489410	7.81	14.46
12/02/2020 06:36:51	120220	12022020	063651	186.61	13.042568	-57.085905	186.81	-1.400	-0.510	4.270	186.61	-1.90	4.60	 	 	 	 	 	 	 	 	 	 	 	 	 	 	 	 	 	 	1581489411	8.49	15.72
12/02/2020 06:36:52	120220	12022020	063652	186.39	13.042530	-57.085925	186.65	-1.190	-0.240	4.550	186.39	-1.70	5.00	 	 	 	 	 	 	 	 	 	 	 	 	 	 	 	 	 	 	1581489412	9.12	16.89
12/02/2020 06:36:53	120220	12022020	063653	186.82	13.042493	-57.085940	187.14	-0.930	0.680	3.740	186.82	-0.80	4.40	 	 	 	 	 	 	 	 	 	 	 	 	 	 	 	 	 	 	1581489413	8.68	16.08
12/02/2020 06:36:54	120220	12022020	063654	187.55	13.042460	-57.085950	188.04	-0.650	1.440	2.300	187.55	0.00	3.00	 	 	 	 	 	 	 	 	 	 	 	 	 	 	 	 	 	 	1581489414	7.38	13.67
12/02/2020 06:36:55	120220	12022020	063655	188.35	13.042428	-57.085955	188.66	0.040	0.950	0.830	188.44	-0.30	1.50	 	 	 	 	 	 	 	 	 	 	 	 	 	 	 	 	 	 	1581489415	6.94	12.85
12/02/2020 06:36:56	120220	12022020	063656	188.61	13.042392	-57.085957	188.79	1.230	-0.570	-0.270	188.61	-1.70	0.30	 	 	 	 	 	 	 	 	 	 	 	 	 	 	 	 	 	 	1581489416	8.04	14.89
12/02/2020 06:36:57	120220	12022020	063657	188.60	13.042348	-57.085957	188.77	2.110	-1.520	-0.700	188.60	-2.80	-0.20	 	 	 	 	 	 	 	 	 	 	 	 	 	 	 	 	 	 	1581489417	9.35	17.32
12/02/2020 06:36:58	120220	12022020	063658	188.72	13.042307	-57.085957	188.92	1.870	-0.960	-0.550	188.72	-2.50	-0.10	 	 	 	 	 	 	 	 	 	 	 	 	 	 	 	 	 	 	1581489418	8.90	16.48
12/02/2020 06:36:59	120220	12022020	063659	188.93	13.042273	-57.085957	189.12	0.590	0.160	0.070	188.93	-1.30	0.40	 	 	 	 	 	 	 	 	 	 	 	 	 	 	 	 	 	 	1581489419	7.21	13.35
12/02/2020 06:37:00	120220	12022020	063700	188.95	13.042243	-57.085963	189.15	-0.800	0.440	1.260	188.95	-0.90	1.60	 	 	 	 	 	 	 	 	 	 	 	 	 	 	 	 	 	 	1581489420	6.40	11.85
12/02/2020 06:37:01	120220	12022020	063701	188.79	13.042212	-57.085977	189.03	-1.470	-0.350	2.700	188.79	-1.60	3.00	1015.10	26.20	26.20	20.70	20.80	-1.0	72.0	72.0	397.0	25.8	274.00	10.00	79.00	10.50	16	9613.0	27.2	27.2	1581489421	7.54	13.96
12/02/2020 06:37:02	120220	12022020	063702	188.57	13.042173	-57.085997	188.82	-1.260	-1.230	3.720	188.57	-2.50	4.10	 	 	 	 	 	 	 	 	 	 	 	 	 	 	 	 	 	 	1581489422	9.10	16.85
12/02/2020 06:37:03	120220	12022020	063703	188.37	13.042135	-57.086017	188.62	-0.600	-1.470	3.870	188.37	-2.80	4.40	 	 	 	 	 	 	 	 	 	 	 	 	 	 	 	 	 	 	1581489423	9.39	17.39
12/02/2020 06:37:04	120220	12022020	063704	188.27	13.042098	-57.086032	188.48	0.010	-1.070	3.290	188.27	-2.50	3.90	 	 	 	 	 	 	 	 	 	 	 	 	 	 	 	 	 	 	1581489424	8.63	15.98
12/02/2020 06:37:05	120220	12022020	063705	188.11	13.042062	-57.086040	188.17	0.330	-0.520	2.480	188.03	-2.00	3.10	 	 	 	 	 	 	 	 	 	 	 	 	 	 	 	 	 	 	1581489425	7.89	14.61
12/02/2020 06:37:06	120220	12022020	063706	187.50	13.042025	-57.086043	187.62	0.400	-0.070	1.900	187.50	-1.50	2.40	 	 	 	 	 	 	 	 	 	 	 	 	 	 	 	 	 	 	1581489426	7.84	14.52
12/02/2020 06:37:07	120220	12022020	063707	187.11	13.041988	-57.086047	187.22	0.230	0.570	1.570	187.07	-0.90	2.10	 	 	 	 	 	 	 	 	 	 	 	 	 	 	 	 	 	 	1581489427	8.10	15.00
12/02/2020 06:37:08	120220	12022020	063708	187.11	13.041952	-57.086052	187.31	-0.110	1.380	1.340	187.11	-0.10	1.90	 	 	 	 	 	 	 	 	 	 	 	 	 	 	 	 	 	 	1581489428	7.88	14.59
12/02/2020 06:37:09	120220	12022020	063709	187.45	13.041918	-57.086057	187.78	-0.340	1.650	1.210	187.55	0.30	1.70	 	 	 	 	 	 	 	 	 	 	 	 	 	 	 	 	 	 	1581489429	7.36	13.63
12/02/2020 06:37:10	120220	12022020	063710	188.01	13.041883	-57.086063	188.23	-0.220	0.870	1.410	188.01	-0.30	1.80	 	 	 	 	 	 	 	 	 	 	 	 	 	 	 	 	 	 	1581489430	7.49	13.87
12/02/2020 06:37:11	120220	12022020	063711	188.27	13.041847	-57.086073	188.48	0.270	-0.470	1.830	188.27	-1.60	2.20	 	 	 	 	 	 	 	 	 	 	 	 	 	 	 	 	 	 	1581489431	8.31	15.39
12/02/2020 06:37:12	120220	12022020	063712	188.30	13.041807	-57.086085	188.50	0.750	-1.430	2.290	188.30	-2.70	2.70	 	 	 	 	 	 	 	 	 	 	 	 	 	 	 	 	 	 	1581489432	8.79	16.28
12/02/2020 06:37:13	120220	12022020	063713	188.10	13.041770	-57.086095	188.29	0.870	-1.590	2.650	188.10	-3.00	3.10	 	 	 	 	 	 	 	 	 	 	 	 	 	 	 	 	 	 	1581489433	8.36	15.48
12/02/2020 06:37:14	120220	12022020	063714	187.69	13.041735	-57.086103	187.85	0.570	-1.270	2.780	187.69	-2.70	3.30	 	 	 	 	 	 	 	 	 	 	 	 	 	 	 	 	 	 	1581489434	7.56	14.00
12/02/2020 06:37:15	120220	12022020	063715	187.19	13.041702	-57.086110	187.33	0.110	-0.840	2.730	187.19	-2.30	3.20	 	 	 	 	 	 	 	 	 	 	 	 	 	 	 	 	 	 	1581489435	7.26	13.45
12/02/2020 06:37:16	120220	12022020	063716	186.97	13.041668	-57.086117	187.15	-0.290	-0.330	2.500	186.97	-1.80	3.00	 	 	 	 	 	 	 	 	 	 	 	 	 	 	 	 	 	 	1581489436	7.45	13.80
12/02/2020 06:37:17	120220	12022020	063717	187.10	13.041633	-57.086123	187.28	-0.440	0.090	2.020	187.10	-1.30	2.60	 	 	 	 	 	 	 	 	 	 	 	 	 	 	 	 	 	 	1581489437	7.55	13.98
12/02/2020 06:37:18	120220	12022020	063718	187.17	13.041598	-57.086130	187.33	-0.300	0.010	1.610	187.17	-1.30	2.10	 	 	 	 	 	 	 	 	 	 	 	 	 	 	 	 	 	 	1581489438	7.67	14.20
12/02/2020 06:37:19	120220	12022020	063719	187.06	13.041560	-57.086135	187.17	-0.050	-0.490	1.650	187.02	-1.80	2.10	 	 	 	 	 	 	 	 	 	 	 	 	 	 	 	 	 	 	1581489439	8.26	15.30
12/02/2020 06:37:20	120220	12022020	063720	186.76	13.041520	-57.086142	186.92	0.100	-0.680	2.040	186.76	-2.10	2.50	 	 	 	 	 	 	 	 	 	 	 	 	 	 	 	 	 	 	1581489440	8.86	16.41
12/02/2020 06:37:21	120220	12022020	063721	186.66	13.041480	-57.086152	186.84	0.050	-0.110	2.320	186.66	-1.60	2.80	 	 	 	 	 	 	 	 	 	 	 	 	 	 	 	 	 	 	1581489441	8.69	16.09
12/02/2020 06:37:22	120220	12022020	063722	186.79	13.041445	-57.086160	186.98	-0.130	0.700	2.360	186.79	-0.80	2.90	 	 	 	 	 	 	 	 	 	 	 	 	 	 	 	 	 	 	1581489442	7.83	14.50
12/02/2020 06:37:23	120220	12022020	063723	187.03	13.041412	-57.086167	187.23	-0.360	1.020	2.380	187.03	-0.40	2.90	 	 	 	 	 	 	 	 	 	 	 	 	 	 	 	 	 	 	1581489443	7.36	13.63
12/02/2020 06:37:24	120220	12022020	063724	187.42	13.041377	-57.086173	187.64	-0.620	0.800	2.430	187.42	-0.50	2.90	 	 	 	 	 	 	 	 	 	 	 	 	 	 	 	 	 	 	1581489444	7.61	14.09
12/02/2020 06:37:25	120220	12022020	063725	187.72	13.041342	-57.086183	187.93	-0.680	0.170	2.370	187.72	-1.10	2.90	 	 	 	 	 	 	 	 	 	 	 	 	 	 	 	 	 	 	1581489445	7.85	14.54
12/02/2020 06:37:26	120220	12022020	063726	187.75	13.041305	-57.086193	187.93	-0.220	-0.690	2.100	187.75	-1.90	2.60	 	 	 	 	 	 	 	 	 	 	 	 	 	 	 	 	 	 	1581489446	8.08	14.96
12/02/2020 06:37:27	120220	12022020	063727	187.58	13.041268	-57.086203	187.75	0.750	-1.390	1.610	187.58	-2.70	2.20	 	 	 	 	 	 	 	 	 	 	 	 	 	 	 	 	 	 	1581489447	8.26	15.30
12/02/2020 06:37:28	120220	12022020	063728	187.27	13.041230	-57.086210	187.41	1.640	-1.510	1.080	187.27	-2.90	1.60	 	 	 	 	 	 	 	 	 	 	 	 	 	 	 	 	 	 	1581489448	8.25	15.28
12/02/2020 06:37:29	120220	12022020	063729	187.22	13.041193	-57.086210	187.39	1.610	-0.840	0.750	187.22	-2.30	1.30	 	 	 	 	 	 	 	 	 	 	 	 	 	 	 	 	 	 	1581489449	8.04	14.89
12/02/2020 06:37:30	120220	12022020	063730	187.42	13.041158	-57.086208	187.64	0.560	0.020	1.110	187.42	-1.40	1.50	 	 	 	 	 	 	 	 	 	 	 	 	 	 	 	 	 	 	1581489450	7.36	13.63
12/02/2020 06:37:31	120220	12022020	063731	187.58	13.041127	-57.086213	187.73	-0.690	0.280	2.090	187.58	-1.10	2.40	 	 	 	 	 	 	 	 	 	 	 	 	 	 	 	 	 	 	1581489451	6.98	12.93
12/02/2020 06:37:32	120220	12022020	063732	187.35	13.041092	-57.086227	187.50	-1.240	-0.150	3.210	187.35	-1.40	3.50	 	 	 	 	 	 	 	 	 	 	 	 	 	 	 	 	 	 	1581489452	7.86	14.56
12/02/2020 06:37:33	120220	12022020	063733	186.96	13.041055	-57.086245	187.15	-0.950	-0.510	3.980	186.96	-1.80	4.40	 	 	 	 	 	 	 	 	 	 	 	 	 	 	 	 	 	 	1581489453	8.92	16.52
12/02/2020 06:37:34	120220	12022020	063734	186.73	13.041017	-57.086260	186.95	-0.390	-0.330	4.090	186.73	-1.70	4.60	 	 	 	 	 	 	 	 	 	 	 	 	 	 	 	 	 	 	1581489454	8.91	16.50
12/02/2020 06:37:35	120220	12022020	063735	186.75	13.040980	-57.086272	186.98	-0.110	0.090	3.560	186.75	-1.30	4.10	 	 	 	 	 	 	 	 	 	 	 	 	 	 	 	 	 	 	1581489455	8.16	15.11
12/02/2020 06:37:36	120220	12022020	063736	186.87	13.040945	-57.086277	187.08	-0.190	0.280	2.820	186.87	-1.10	3.40	 	 	 	 	 	 	 	 	 	 	 	 	 	 	 	 	 	 	1581489456	7.65	14.17
12/02/2020 06:37:37	120220	12022020	063737	186.92	13.040910	-57.086282	187.12	-0.270	0.140	2.210	186.92	-1.20	2.80	 	 	 	 	 	 	 	 	 	 	 	 	 	 	 	 	 	 	1581489457	7.70	14.26
12/02/2020 06:37:38	120220	12022020	063738	186.92	13.040873	-57.086288	187.10	-0.000	-0.040	1.510	186.92	-1.40	2.10	 	 	 	 	 	 	 	 	 	 	 	 	 	 	 	 	 	 	1581489458	7.92	14.67
12/02/2020 06:37:39	120220	12022020	063739	187.01	13.040837	-57.086293	187.18	0.550	-0.130	0.770	187.01	-1.50	1.40	 	 	 	 	 	 	 	 	 	 	 	 	 	 	 	 	 	 	1581489459	7.92	14.67
12/02/2020 06:37:40	120220	12022020	063740	187.21	13.040800	-57.086295	187.40	0.970	-0.440	0.300	187.21	-1.70	0.90	 	 	 	 	 	 	 	 	 	 	 	 	 	 	 	 	 	 	1581489460	7.75	14.35
12/02/2020 06:37:41	120220	12022020	063741	187.41	13.040763	-57.086297	187.58	0.920	-0.990	0.530	187.41	-2.30	1.00	 	 	 	 	 	 	 	 	 	 	 	 	 	 	 	 	 	 	1581489461	7.97	14.76
12/02/2020 06:37:42	120220	12022020	063742	187.29	13.040725	-57.086302	187.35	0.330	-1.310	1.640	187.29	-2.70	2.00	 	 	 	 	 	 	 	 	 	 	 	 	 	 	 	 	 	 	1581489462	8.20	15.19
12/02/2020 06:37:43	120220	12022020	063743	186.51	13.040688	-57.086312	186.66	-0.430	-1.130	3.290	186.51	-2.50	3.60	 	 	 	 	 	 	 	 	 	 	 	 	 	 	 	 	 	 	1581489463	8.23	15.24
12/02/2020 06:37:44	120220	12022020	063744	185.84	13.040653	-57.086328	185.92	-0.970	-0.450	4.720	185.84	-1.90	5.00	 	 	 	 	 	 	 	 	 	 	 	 	 	 	 	 	 	 	1581489464	8.29	15.35
12/02/2020 06:37:45	120220	12022020	063745	185.40	13.040620	-57.086345	185.68	-1.140	0.480	5.380	185.40	-1.00	5.80	 	 	 	 	 	 	 	 	 	 	 	 	 	 	 	 	 	 	1581489465	8.27	15.32
12/02/2020 06:37:46	120220	12022020	063746	185.74	13.040585	-57.086362	186.07	-0.910	1.270	5.110	185.74	-0.20	5.70	 	 	 	 	 	 	 	 	 	 	 	 	 	 	 	 	 	 	1581489466	8.01	14.83
12/02/2020 06:37:47	120220	12022020	063747	186.64	13.040553	-57.086375	186.99	-0.360	1.570	3.760	186.64	0.20	4.50	 	 	 	 	 	 	 	 	 	 	 	 	 	 	 	 	 	 	1581489467	7.64	14.15
12/02/2020 06:37:48	120220	12022020	063748	187.87	13.040518	-57.086380	188.20	0.370	1.160	1.620	187.87	-0.10	2.40	 	 	 	 	 	 	 	 	 	 	 	 	 	 	 	 	 	 	1581489468	7.41	13.72
12/02/2020 06:37:49	120220	12022020	063749	188.90	13.040483	-57.086380	189.16	1.070	0.040	-0.390	188.90	-1.20	0.30	 	 	 	 	 	 	 	 	 	 	 	 	 	 	 	 	 	 	1581489469	7.68	14.22
12/02/2020 06:37:50	120220	12022020	063750	189.21	13.040445	-57.086375	189.39	1.460	-1.340	-1.180	189.21	-2.50	-0.60	 	 	 	 	 	 	 	 	 	 	 	 	 	 	 	 	 	 	1581489470	8.21	15.20
12/02/2020 06:37:51	120220	12022020	063751	188.67	13.040407	-57.086373	188.82	1.300	-2.420	-0.490	188.67	-3.70	-0.10	 	 	 	 	 	 	 	 	 	 	 	 	 	 	 	 	 	 	1581489471	8.31	15.39
12/02/2020 06:37:52	120220	12022020	063752	187.70	13.040368	-57.086377	187.82	0.550	-2.660	1.070	187.70	-4.00	1.40	 	 	 	 	 	 	 	 	 	 	 	 	 	 	 	 	 	 	1581489472	8.16	15.11
12/02/2020 06:37:53	120220	12022020	063753	186.80	13.040333	-57.086390	186.96	-0.460	-1.840	2.840	186.80	-3.30	3.10	 	 	 	 	 	 	 	 	 	 	 	 	 	 	 	 	 	 	1581489473	8.02	14.85
12/02/2020 06:37:54	120220	12022020	063754	186.33	13.040300	-57.086408	186.56	-1.280	-0.400	4.020	186.33	-1.90	4.40	 	 	 	 	 	 	 	 	 	 	 	 	 	 	 	 	 	 	1581489474	8.00	14.82
12/02/2020 06:37:55	120220	12022020	063755	186.48	13.040270	-57.086427	186.77	-1.600	1.010	4.080	186.48	-0.50	4.60	 	 	 	 	 	 	 	 	 	 	 	 	 	 	 	 	 	 	1581489475	7.89	14.61
12/02/2020 06:37:56	120220	12022020	063756	187.25	13.040237	-57.086442	187.60	-1.480	1.800	3.130	187.25	0.40	3.80	 	 	 	 	 	 	 	 	 	 	 	 	 	 	 	 	 	 	1581489476	7.60	14.08
12/02/2020 06:37:57	120220	12022020	063757	188.25	13.040203	-57.086452	188.57	-1.040	1.680	1.840	188.25	0.40	2.50	 	 	 	 	 	 	 	 	 	 	 	 	 	 	 	 	 	 	1581489477	7.64	14.15
12/02/2020 06:37:58	120220	12022020	063758	188.92	13.040167	-57.086458	189.15	-0.350	0.890	0.840	188.92	-0.30	1.50	 	 	 	 	 	 	 	 	 	 	 	 	 	 	 	 	 	 	1581489478	8.01	14.83
12/02/2020 06:37:59	120220	12022020	063759	189.04	13.040128	-57.086465	189.18	0.470	0.000	0.400	189.02	-1.30	0.90	 	 	 	 	 	 	 	 	 	 	 	 	 	 	 	 	 	 	1581489479	8.31	15.39
12/02/2020 06:38:00	120220	12022020	063800	188.86	13.040090	-57.086470	189.02	1.140	-0.450	0.310	188.86	-1.80	0.80	 	 	 	 	 	 	 	 	 	 	 	 	 	 	 	 	 	 	1581489480	8.17	15.13
12/02/2020 06:38:01	120220	12022020	063801	188.75	13.040055	-57.086472	188.91	1.390	-0.500	0.360	188.75	-1.90	0.90	1015.20	26.20	26.20	20.00	20.20	-1.0	69.0	69.0	396.0	25.8	269.00	10.80	76.00	11.60	16	10100.0	27.2	27.2	1581489481	7.57	14.02
12/02/2020 06:38:02	120220	12022020	063802	188.58	13.040023	-57.086475	188.72	1.180	-0.720	0.790	188.58	-2.00	1.20	 	 	 	 	 	 	 	 	 	 	 	 	 	 	 	 	 	 	1581489482	7.04	13.04
12/02/2020 06:38:03	120220	12022020	063803	187.97	13.039990	-57.086480	188.09	0.720	-1.330	1.940	187.97	-2.60	2.30	 	 	 	 	 	 	 	 	 	 	 	 	 	 	 	 	 	 	1581489483	7.23	13.39
12/02/2020 06:38:04	120220	12022020	063804	187.13	13.039953	-57.086490	187.29	0.120	-1.610	3.370	187.13	-3.00	3.70	 	 	 	 	 	 	 	 	 	 	 	 	 	 	 	 	 	 	1581489484	8.03	14.87
12/02/2020 06:38:05	120220	12022020	063805	186.54	13.039918	-57.086505	186.75	-0.530	-0.990	4.330	186.54	-2.40	4.70	 	 	 	 	 	 	 	 	 	 	 	 	 	 	 	 	 	 	1581489485	8.31	15.39
12/02/2020 06:38:06	120220	12022020	063806	186.38	13.039887	-57.086522	186.63	-1.030	0.100	4.500	186.38	-1.40	5.00	 	 	 	 	 	 	 	 	 	 	 	 	 	 	 	 	 	 	1581489486	7.77	14.39
12/02/2020 06:38:07	120220	12022020	063807	186.57	13.039855	-57.086537	186.82	-1.100	0.770	3.950	186.57	-0.60	4.50	 	 	 	 	 	 	 	 	 	 	 	 	 	 	 	 	 	 	1581489487	7.20	13.33
12/02/2020 06:38:08	120220	12022020	063808	186.76	13.039823	-57.086547	187.06	-0.670	0.540	3.020	186.76	-0.70	3.60	 	 	 	 	 	 	 	 	 	 	 	 	 	 	 	 	 	 	1581489488	7.32	13.56
12/02/2020 06:38:09	120220	12022020	063809	186.95	13.039787	-57.086553	187.18	0.030	-0.180	2.040	186.95	-1.40	2.70	 	 	 	 	 	 	 	 	 	 	 	 	 	 	 	 	 	 	1581489489	8.06	14.93
12/02/2020 06:38:10	120220	12022020	063810	186.99	13.039747	-57.086558	187.18	0.580	-0.570	1.300	186.99	-1.90	1.90	 	 	 	 	 	 	 	 	 	 	 	 	 	 	 	 	 	 	1581489490	8.58	15.89
12/02/2020 06:38:11	120220	12022020	063811	187.10	13.039708	-57.086560	187.27	0.690	-0.200	0.810	187.10	-1.60	1.40	 	 	 	 	 	 	 	 	 	 	 	 	 	 	 	 	 	 	1581489491	8.22	15.22
12/02/2020 06:38:12	120220	12022020	063812	187.24	13.039675	-57.086562	187.38	0.470	0.380	0.590	187.24	-1.00	1.10	 	 	 	 	 	 	 	 	 	 	 	 	 	 	 	 	 	 	1581489492	7.25	13.43
12/02/2020 06:38:13	120220	12022020	063813	187.21	13.039643	-57.086563	187.34	0.210	0.350	0.800	187.21	-0.90	1.30	 	 	 	 	 	 	 	 	 	 	 	 	 	 	 	 	 	 	1581489493	6.77	12.54
12/02/2020 06:38:14	120220	12022020	063814	186.93	13.039610	-57.086568	187.06	0.110	-0.310	1.450	186.93	-1.60	1.90	 	 	 	 	 	 	 	 	 	 	 	 	 	 	 	 	 	 	1581489494	7.34	13.59
12/02/2020 06:38:15	120220	12022020	063815	186.47	13.039573	-57.086578	186.63	0.120	-0.940	2.340	186.47	-2.20	2.70	 	 	 	 	 	 	 	 	 	 	 	 	 	 	 	 	 	 	1581489495	8.16	15.11
12/02/2020 06:38:16	120220	12022020	063816	186.20	13.039535	-57.086590	186.39	0.060	-0.930	3.020	186.20	-2.30	3.40	 	 	 	 	 	 	 	 	 	 	 	 	 	 	 	 	 	 	1581489496	8.36	15.48
12/02/2020 06:38:17	120220	12022020	063817	186.22	13.039502	-57.086602	186.46	-0.150	-0.390	3.300	186.22	-1.80	3.80	 	 	 	 	 	 	 	 	 	 	 	 	 	 	 	 	 	 	1581489497	7.79	14.43
12/02/2020 06:38:18	120220	12022020	063818	186.29	13.039470	-57.086612	186.51	-0.340	0.090	3.310	186.29	-1.30	3.80	 	 	 	 	 	 	 	 	 	 	 	 	 	 	 	 	 	 	1581489498	7.17	13.28
12/02/2020 06:38:19	120220	12022020	063819	186.23	13.039437	-57.086622	186.45	-0.320	0.130	3.100	186.23	-1.20	3.60	 	 	 	 	 	 	 	 	 	 	 	 	 	 	 	 	 	 	1581489499	7.17	13.28
12/02/2020 06:38:20	120220	12022020	063820	186.34	13.039403	-57.086628	186.65	-0.140	-0.010	2.400	186.34	-1.30	3.00	 	 	 	 	 	 	 	 	 	 	 	 	 	 	 	 	 	 	1581489500	7.64	14.15
12/02/2020 06:38:21	120220	12022020	063821	186.79	13.039367	-57.086633	187.02	0.110	-0.250	1.490	186.79	-1.60	2.10	 	 	 	 	 	 	 	 	 	 	 	 	 	 	 	 	 	 	1581489501	7.76	14.37
12/02/2020 06:38:22	120220	12022020	063822	187.02	13.039330	-57.086637	187.23	0.410	-0.560	0.840	187.02	-1.90	1.40	 	 	 	 	 	 	 	 	 	 	 	 	 	 	 	 	 	 	1581489502	7.77	14.39
12/02/2020 06:38:23	120220	12022020	063823	186.96	13.039295	-57.086640	187.13	0.630	-0.780	0.680	186.96	-2.10	1.20	 	 	 	 	 	 	 	 	 	 	 	 	 	 	 	 	 	 	1581489503	7.88	14.59
12/02/2020 06:38:24	120220	12022020	063824	186.66	13.039258	-57.086643	186.83	0.490	-0.690	1.020	186.66	-2.10	1.50	 	 	 	 	 	 	 	 	 	 	 	 	 	 	 	 	 	 	1581489504	7.93	14.69
12/02/2020 06:38:25	120220	12022020	063825	186.25	13.039222	-57.086648	186.43	-0.010	-0.230	1.800	186.25	-1.70	2.20	 	 	 	 	 	 	 	 	 	 	 	 	 	 	 	 	 	 	1581489505	7.77	14.39
12/02/2020 06:38:26	120220	12022020	063826	185.92	13.039188	-57.086658	186.14	-0.520	0.430	2.550	185.92	-1.00	3.00	 	 	 	 	 	 	 	 	 	 	 	 	 	 	 	 	 	 	1581489506	7.55	13.98
12/02/2020 06:38:27	120220	12022020	063827	185.97	13.039155	-57.086670	186.23	-0.700	1.000	2.720	185.97	-0.40	3.20	 	 	 	 	 	 	 	 	 	 	 	 	 	 	 	 	 	 	1581489507	7.42	13.74
12/02/2020 06:38:28	120220	12022020	063828	186.28	13.039123	-57.086680	186.56	-0.490	0.880	2.560	186.28	-0.40	3.10	 	 	 	 	 	 	 	 	 	 	 	 	 	 	 	 	 	 	1581489508	7.21	13.35
12/02/2020 06:38:29	120220	12022020	063829	186.56	13.039088	-57.086688	186.83	0.020	0.020	2.220	186.56	-1.20	2.80	 	 	 	 	 	 	 	 	 	 	 	 	 	 	 	 	 	 	1581489509	7.63	14.13
12/02/2020 06:38:30	120220	12022020	063830	186.84	13.039052	-57.086695	187.10	0.550	-0.830	1.610	186.84	-2.10	2.20	 	 	 	 	 	 	 	 	 	 	 	 	 	 	 	 	 	 	1581489510	8.22	15.22
12/02/2020 06:38:31	120220	12022020	063831	187.13	13.039013	-57.086700	187.35	0.810	-1.200	1.020	187.13	-2.50	1.60	 	 	 	 	 	 	 	 	 	 	 	 	 	 	 	 	 	 	1581489511	8.11	15.02
12/02/2020 06:38:32	120220	12022020	063832	187.17	13.038978	-57.086702	187.34	0.680	-1.310	1.030	187.17	-2.70	1.50	 	 	 	 	 	 	 	 	 	 	 	 	 	 	 	 	 	 	1581489512	7.57	14.02
12/02/2020 06:38:33	120220	12022020	063833	186.80	13.038945	-57.086707	186.82	0.300	-1.370	1.700	186.66	-2.70	2.10	 	 	 	 	 	 	 	 	 	 	 	 	 	 	 	 	 	 	1581489513	7.44	13.78
12/02/2020 06:38:34	120220	12022020	063834	186.01	13.038908	-57.086715	186.03	-0.180	-1.140	2.630	186.01	-2.50	3.00	 	 	 	 	 	 	 	 	 	 	 	 	 	 	 	 	 	 	1581489514	7.83	14.50
12/02/2020 06:38:35	120220	12022020	063835	185.37	13.038873	-57.086725	185.54	-0.730	-0.270	3.350	185.30	-1.80	3.80	 	 	 	 	 	 	 	 	 	 	 	 	 	 	 	 	 	 	1581489515	8.13	15.06
12/02/2020 06:38:36	120220	12022020	063836	185.24	13.038838	-57.086738	185.52	-1.130	0.870	3.600	185.24	-0.60	4.10	 	 	 	 	 	 	 	 	 	 	 	 	 	 	 	 	 	 	1581489516	7.79	14.43
12/02/2020 06:38:37	120220	12022020	063837	185.47	13.038807	-57.086750	185.86	-1.030	1.540	3.160	185.55	0.20	3.80	 	 	 	 	 	 	 	 	 	 	 	 	 	 	 	 	 	 	1581489517	7.40	13.70
12/02/2020 06:38:38	120220	12022020	063838	186.01	13.038773	-57.086760	186.32	-0.350	1.310	2.230	186.01	0.00	2.90	 	 	 	 	 	 	 	 	 	 	 	 	 	 	 	 	 	 	1581489518	7.40	13.70
12/02/2020 06:38:39	120220	12022020	063839	186.43	13.038737	-57.086763	186.74	0.510	0.420	1.470	186.43	-0.80	2.10	 	 	 	 	 	 	 	 	 	 	 	 	 	 	 	 	 	 	1581489519	7.96	14.74
12/02/2020 06:38:40	120220	12022020	063840	186.81	13.038697	-57.086765	187.11	1.050	-0.530	1.070	186.81	-1.80	1.60	 	 	 	 	 	 	 	 	 	 	 	 	 	 	 	 	 	 	1581489520	8.41	15.58
12/02/2020 06:38:41	120220	12022020	063841	187.15	13.038658	-57.086767	187.42	0.970	-0.980	1.050	187.15	-2.30	1.60	 	 	 	 	 	 	 	 	 	 	 	 	 	 	 	 	 	 	1581489521	8.24	15.26
12/02/2020 06:38:42	120220	12022020	063842	187.33	13.038625	-57.086770	187.59	0.440	-0.920	1.560	187.33	-2.30	2.00	 	 	 	 	 	 	 	 	 	 	 	 	 	 	 	 	 	 	1581489522	7.51	13.91
12/02/2020 06:38:43	120220	12022020	063843	187.27	13.038593	-57.086780	187.50	-0.110	-0.710	2.490	187.27	-2.10	2.90	 	 	 	 	 	 	 	 	 	 	 	 	 	 	 	 	 	 	1581489523	7.00	12.96
12/02/2020 06:38:44	120220	12022020	063844	186.86	13.038562	-57.086792	187.06	-0.310	-0.660	3.410	186.86	-2.00	3.80	 	 	 	 	 	 	 	 	 	 	 	 	 	 	 	 	 	 	1581489524	7.12	13.19
12/02/2020 06:38:45	120220	12022020	063845	186.37	13.038528	-57.086805	186.60	-0.210	-0.640	3.940	186.37	-2.00	4.40	 	 	 	 	 	 	 	 	 	 	 	 	 	 	 	 	 	 	1581489525	7.66	14.19
12/02/2020 06:38:46	120220	12022020	063846	186.14	13.038493	-57.086817	186.35	-0.020	-0.570	4.030	186.14	-1.90	4.50	 	 	 	 	 	 	 	 	 	 	 	 	 	 	 	 	 	 	1581489526	7.88	14.59
12/02/2020 06:38:47	120220	12022020	063847	186.05	13.038458	-57.086825	186.34	0.070	-0.470	3.660	186.07	-1.80	4.30	 	 	 	 	 	 	 	 	 	 	 	 	 	 	 	 	 	 	1581489527	7.93	14.69
12/02/2020 06:38:48	120220	12022020	063848	186.25	13.038422	-57.086830	186.54	-0.050	-0.290	3.010	186.25	-1.70	3.60	 	 	 	 	 	 	 	 	 	 	 	 	 	 	 	 	 	 	1581489528	7.96	14.74
12/02/2020 06:38:49	120220	12022020	063849	186.48	13.038385	-57.086835	186.82	-0.270	0.020	2.320	186.54	-1.40	2.90	 	 	 	 	 	 	 	 	 	 	 	 	 	 	 	 	 	 	1581489529	7.86	14.56
12/02/2020 06:38:50	120220	12022020	063850	186.85	13.038350	-57.086838	187.11	-0.460	0.330	1.730	186.85	-1.00	2.30	 	 	 	 	 	 	 	 	 	 	 	 	 	 	 	 	 	 	1581489530	7.63	14.13
12/02/2020 06:38:51	120220	12022020	063851	187.14	13.038315	-57.086843	187.41	-0.570	0.490	1.260	187.14	-0.90	1.80	 	 	 	 	 	 	 	 	 	 	 	 	 	 	 	 	 	 	1581489531	7.47	13.83
12/02/2020 06:38:52	120220	12022020	063852	187.33	13.038282	-57.086850	187.59	-0.480	0.410	1.000	187.33	-0.90	1.60	 	 	 	 	 	 	 	 	 	 	 	 	 	 	 	 	 	 	1581489532	7.47	13.83
12/02/2020 06:38:53	120220	12022020	063853	187.47	13.038247	-57.086857	187.69	-0.110	0.140	0.930	187.47	-1.20	1.50	 	 	 	 	 	 	 	 	 	 	 	 	 	 	 	 	 	 	1581489533	7.59	14.06
12/02/2020 06:38:54	120220	12022020	063854	187.36	13.038212	-57.086865	187.54	0.460	-0.340	1.120	187.36	-1.60	1.60	 	 	 	 	 	 	 	 	 	 	 	 	 	 	 	 	 	 	1581489534	7.68	14.22
12/02/2020 06:38:55	120220	12022020	063855	187.04	13.038175	-57.086870	187.23	0.880	-0.850	1.590	187.04	-2.10	2.00	 	 	 	 	 	 	 	 	 	 	 	 	 	 	 	 	 	 	1581489535	7.91	14.65
12/02/2020 06:38:56	120220	12022020	063856	186.92	13.038138	-57.086877	187.13	0.630	-0.810	2.310	186.92	-2.20	2.70	 	 	 	 	 	 	 	 	 	 	 	 	 	 	 	 	 	 	1581489536	8.10	15.00
12/02/2020 06:38:57	120220	12022020	063857	186.91	13.038103	-57.086885	187.12	-0.190	-0.160	3.140	186.91	-1.60	3.50	 	 	 	 	 	 	 	 	 	 	 	 	 	 	 	 	 	 	1581489537	7.59	14.06
12/02/2020 06:38:58	120220	12022020	063858	186.82	13.038073	-57.086898	186.97	-0.870	0.390	3.760	186.82	-1.00	4.20	 	 	 	 	 	 	 	 	 	 	 	 	 	 	 	 	 	 	1581489538	7.04	13.04
12/02/2020 06:38:59	120220	12022020	063859	186.44	13.038043	-57.086913	186.62	-0.620	0.100	3.960	186.44	-1.20	4.50	 	 	 	 	 	 	 	 	 	 	 	 	 	 	 	 	 	 	1581489539	7.20	13.33
12/02/2020 06:39:00	120220	12022020	063900	186.11	13.038008	-57.086927	186.31	0.340	-0.660	3.510	186.11	-1.90	4.10	 	 	 	 	 	 	 	 	 	 	 	 	 	 	 	 	 	 	1581489540	7.98	14.78
12/02/2020 06:39:01	120220	12022020	063901	185.97	13.037970	-57.086933	186.23	1.100	-1.020	2.700	185.98	-2.40	3.30	1015.10	26.30	26.30	20.20	20.30	-1.0	69.0	69.0	396.0	25.8	272.00	10.50	78.00	11.10	16	9764.0	27.2	27.2	1581489541	8.48	15.70
12/02/2020 06:39:02	120220	12022020	063902	186.31	13.037932	-57.086937	186.57	0.980	-0.570	1.730	186.31	-2.00	2.40	 	 	 	 	 	 	 	 	 	 	 	 	 	 	 	 	 	 	1581489542	8.17	15.13
12/02/2020 06:39:03	120220	12022020	063903	186.98	13.037898	-57.086937	187.23	0.120	0.230	0.900	186.98	-1.20	1.50	 	 	 	 	 	 	 	 	 	 	 	 	 	 	 	 	 	 	1581489543	7.22	13.37
12/02/2020 06:39:04	120220	12022020	063904	187.55	13.037868	-57.086937	187.77	-0.820	0.530	0.800	187.55	-0.80	1.30	 	 	 	 	 	 	 	 	 	 	 	 	 	 	 	 	 	 	1581489544	6.60	12.22
12/02/2020 06:39:05	120220	12022020	063905	187.64	13.037837	-57.086943	187.83	-1.240	-0.090	1.550	187.64	-1.30	2.00	 	 	 	 	 	 	 	 	 	 	 	 	 	 	 	 	 	 	1581489545	6.98	12.93
12/02/2020 06:39:06	120220	12022020	063906	187.27	13.037800	-57.086957	187.45	-0.940	-1.100	2.490	187.27	-2.30	2.90	 	 	 	 	 	 	 	 	 	 	 	 	 	 	 	 	 	 	1581489546	8.24	15.26
12/02/2020 06:39:07	120220	12022020	063907	186.53	13.037762	-57.086973	186.71	-0.180	-1.590	3.230	186.53	-2.90	3.70	 	 	 	 	 	 	 	 	 	 	 	 	 	 	 	 	 	 	1581489547	8.99	16.65
12/02/2020 06:39:08	120220	12022020	063908	185.71	13.037723	-57.086988	185.93	0.510	-1.130	3.430	185.71	-2.60	4.00	 	 	 	 	 	 	 	 	 	 	 	 	 	 	 	 	 	 	1581489548	8.68	16.08
12/02/2020 06:39:09	120220	12022020	063909	185.31	13.037688	-57.086995	185.57	0.650	0.120	2.920	185.31	-1.40	3.50	 	 	 	 	 	 	 	 	 	 	 	 	 	 	 	 	 	 	1581489549	7.77	14.39
12/02/2020 06:39:10	120220	12022020	063910	185.48	13.037657	-57.086997	185.89	0.160	1.380	2.060	185.48	-0.10	2.70	 	 	 	 	 	 	 	 	 	 	 	 	 	 	 	 	 	 	1581489550	6.90	12.78
12/02/2020 06:39:11	120220	12022020	063911	186.12	13.037627	-57.086997	186.55	-0.510	1.710	1.440	186.25	0.40	2.00	 	 	 	 	 	 	 	 	 	 	 	 	 	 	 	 	 	 	1581489551	6.56	12.15
12/02/2020 06:39:12	120220	12022020	063912	186.66	13.037593	-57.087000	186.93	-0.650	0.840	1.460	186.66	-0.40	2.00	 	 	 	 	 	 	 	 	 	 	 	 	 	 	 	 	 	 	1581489552	7.03	13.02
12/02/2020 06:39:13	120220	12022020	063913	186.62	13.037557	-57.087012	186.86	0.010	-0.550	1.740	186.62	-1.70	2.20	 	 	 	 	 	 	 	 	 	 	 	 	 	 	 	 	 	 	1581489553	8.14	15.08
12/02/2020 06:39:14	120220	12022020	063914	186.47	13.037518	-57.087022	186.71	0.880	-1.310	1.810	186.47	-2.60	2.30	 	 	 	 	 	 	 	 	 	 	 	 	 	 	 	 	 	 	1581489554	8.72	16.15
12/02/2020 06:39:15	120220	12022020	063915	186.52	13.037482	-57.087028	186.77	1.080	-1.070	1.690	186.52	-2.50	2.20	 	 	 	 	 	 	 	 	 	 	 	 	 	 	 	 	 	 	1581489555	8.04	14.89
12/02/2020 06:39:16	120220	12022020	063916	186.74	13.037450	-57.087033	186.97	0.450	-0.510	1.500	186.74	-1.90	2.10	 	 	 	 	 	 	 	 	 	 	 	 	 	 	 	 	 	 	1581489556	6.94	12.85
12/02/2020 06:39:17	120220	12022020	063917	186.82	13.037418	-57.087037	186.99	-0.390	-0.420	1.670	186.82	-1.80	2.10	 	 	 	 	 	 	 	 	 	 	 	 	 	 	 	 	 	 	1581489557	6.57	12.17
12/02/2020 06:39:18	120220	12022020	063918	186.44	13.037387	-57.087047	186.58	-0.690	-0.930	2.360	186.44	-2.20	2.80	 	 	 	 	 	 	 	 	 	 	 	 	 	 	 	 	 	 	1581489558	7.27	13.46
12/02/2020 06:39:19	120220	12022020	063919	185.71	13.037350	-57.087060	185.87	-0.330	-1.360	3.140	185.71	-2.70	3.60	 	 	 	 	 	 	 	 	 	 	 	 	 	 	 	 	 	 	1581489559	8.35	15.46
12/02/2020 06:39:20	120220	12022020	063920	185.09	13.037312	-57.087072	185.30	0.090	-0.910	3.540	185.09	-2.40	4.00	 	 	 	 	 	 	 	 	 	 	 	 	 	 	 	 	 	 	1581489560	8.69	16.09
12/02/2020 06:39:21	120220	12022020	063921	185.01	13.037275	-57.087082	185.27	0.070	0.270	3.350	185.01	-1.20	3.90	 	 	 	 	 	 	 	 	 	 	 	 	 	 	 	 	 	 	1581489561	7.93	14.69
12/02/2020 06:39:22	120220	12022020	063922	185.28	13.037243	-57.087087	185.57	-0.230	1.090	2.770	185.28	-0.30	3.40	 	 	 	 	 	 	 	 	 	 	 	 	 	 	 	 	 	 	1581489562	7.01	12.98
12/02/2020 06:39:23	120220	12022020	063923	185.55	13.037210	-57.087092	185.93	-0.290	0.950	2.050	185.63	-0.40	2.70	 	 	 	 	 	 	 	 	 	 	 	 	 	 	 	 	 	 	1581489563	7.10	13.15
12/02/2020 06:39:24	120220	12022020	063924	185.96	13.037173	-57.087095	186.32	-0.050	0.370	1.360	185.96	-0.90	2.00	 	 	 	 	 	 	 	 	 	 	 	 	 	 	 	 	 	 	1581489564	7.96	14.74
12/02/2020 06:39:25	120220	12022020	063925	186.29	13.037135	-57.087097	186.58	0.190	-0.150	0.970	186.33	-1.50	1.50	 	 	 	 	 	 	 	 	 	 	 	 	 	 	 	 	 	 	1581489565	8.27	15.32
12/02/2020 06:39:26	120220	12022020	063926	186.46	13.037098	-57.087100	186.71	0.140	-0.440	1.040	186.46	-1.80	1.50	 	 	 	 	 	 	 	 	 	 	 	 	 	 	 	 	 	 	1581489566	8.03	14.87
12/02/2020 06:39:27	120220	12022020	063927	186.63	13.037063	-57.087107	186.89	-0.160	-0.450	1.480	186.63	-1.80	1.90	 	 	 	 	 	 	 	 	 	 	 	 	 	 	 	 	 	 	1581489567	7.67	14.20
12/02/2020 06:39:28	120220	12022020	063928	186.73	13.037030	-57.087117	186.97	-0.330	-0.330	2.190	186.73	-1.70	2.60	 	 	 	 	 	 	 	 	 	 	 	 	 	 	 	 	 	 	1581489568	7.35	13.61
12/02/2020 06:39:29	120220	12022020	063929	186.52	13.036998	-57.087128	186.72	-0.040	-0.420	2.900	186.52	-1.70	3.30	 	 	 	 	 	 	 	 	 	 	 	 	 	 	 	 	 	 	1581489569	7.27	13.46
12/02/2020 06:39:30	120220	12022020	063930	185.91	13.036965	-57.087140	186.10	0.640	-0.850	3.300	185.91	-2.10	3.80	 	 	 	 	 	 	 	 	 	 	 	 	 	 	 	 	 	 	1581489570	7.58	14.04
12/02/2020 06:39:31	120220	12022020	063931	185.40	13.036928	-57.087148	185.65	1.060	-0.970	3.220	185.40	-2.40	3.80	 	 	 	 	 	 	 	 	 	 	 	 	 	 	 	 	 	 	1581489571	8.14	15.08
12/02/2020 06:39:32	120220	12022020	063932	185.59	13.036892	-57.087153	185.90	0.750	-0.360	2.730	185.59	-1.80	3.30	 	 	 	 	 	 	 	 	 	 	 	 	 	 	 	 	 	 	1581489572	8.06	14.93
12/02/2020 06:39:33	120220	12022020	063933	186.14	13.036858	-57.087155	186.43	-0.080	0.280	2.280	186.14	-1.10	2.90	 	 	 	 	 	 	 	 	 	 	 	 	 	 	 	 	 	 	1581489573	7.16	13.26
12/02/2020 06:39:34	120220	12022020	063934	186.24	13.036827	-57.087158	186.46	-0.750	-0.010	2.350	186.24	-1.30	2.80	 	 	 	 	 	 	 	 	 	 	 	 	 	 	 	 	 	 	1581489574	6.89	12.76
12/02/2020 06:39:35	120220	12022020	063935	185.86	13.036790	-57.087168	186.08	-0.840	-0.830	2.770	185.86	-2.10	3.20	 	 	 	 	 	 	 	 	 	 	 	 	 	 	 	 	 	 	1581489575	8.01	14.83
12/02/2020 06:39:36	120220	12022020	063936	185.59	13.036750	-57.087180	185.85	-0.570	-0.880	3.000	185.59	-2.30	3.50	 	 	 	 	 	 	 	 	 	 	 	 	 	 	 	 	 	 	1581489576	9.02	16.71
12/02/2020 06:39:37	120220	12022020	063937	185.66	13.036712	-57.087193	186.06	-0.270	0.160	2.490	185.73	-1.40	3.10	 	 	 	 	 	 	 	 	 	 	 	 	 	 	 	 	 	 	1581489577	8.44	15.63
12/02/2020 06:39:38	120220	12022020	063938	186.38	13.036682	-57.087200	186.71	-0.110	1.290	1.370	186.38	-0.20	2.10	 	 	 	 	 	 	 	 	 	 	 	 	 	 	 	 	 	 	1581489578	6.96	12.89
12/02/2020 06:39:39	120220	12022020	063939	186.98	13.036652	-57.087202	187.38	0.040	1.280	0.420	187.10	-0.00	1.00	 	 	 	 	 	 	 	 	 	 	 	 	 	 	 	 	 	 	1581489579	6.44	11.93
12/02/2020 06:39:40	120220	12022020	063940	187.44	13.036617	-57.087202	187.69	0.260	0.100	0.230	187.44	-1.10	0.70	 	 	 	 	 	 	 	 	 	 	 	 	 	 	 	 	 	 	1581489580	7.33	13.58
12/02/2020 06:39:41	120220	12022020	063941	187.29	13.036578	-57.087205	187.49	0.440	-1.240	0.900	187.29	-2.40	1.30	 	 	 	 	 	 	 	 	 	 	 	 	 	 	 	 	 	 	1581489581	8.37	15.50
12/02/2020 06:39:42	120220	12022020	063942	186.73	13.036538	-57.087213	186.91	0.470	-1.780	1.970	186.73	-3.10	2.40	 	 	 	 	 	 	 	 	 	 	 	 	 	 	 	 	 	 	1581489582	8.59	15.91
12/02/2020 06:39:43	120220	12022020	063943	185.89	13.036503	-57.087225	186.05	0.420	-1.420	2.920	185.89	-2.90	3.30	 	 	 	 	 	 	 	 	 	 	 	 	 	 	 	 	 	 	1581489583	8.03	14.87
12/02/2020 06:39:44	120220	12022020	063944	185.14	13.036472	-57.087237	185.35	0.350	-0.700	3.370	185.14	-2.10	3.90	 	 	 	 	 	 	 	 	 	 	 	 	 	 	 	 	 	 	1581489584	7.40	13.70
12/02/2020 06:39:45	120220	12022020	063945	184.88	13.036438	-57.087245	185.13	0.140	-0.020	3.250	184.88	-1.50	3.80	 	 	 	 	 	 	 	 	 	 	 	 	 	 	 	 	 	 	1581489585	7.26	13.45
12/02/2020 06:39:46	120220	12022020	063946	184.93	13.036405	-57.087252	185.26	-0.260	0.410	2.850	184.93	-1.00	3.40	 	 	 	 	 	 	 	 	 	 	 	 	 	 	 	 	 	 	1581489586	7.40	13.70
12/02/2020 06:39:47	120220	12022020	063947	185.30	13.036370	-57.087258	185.60	-0.700	0.640	2.390	185.30	-0.70	3.00	 	 	 	 	 	 	 	 	 	 	 	 	 	 	 	 	 	 	1581489587	7.61	14.09
12/02/2020 06:39:48	120220	12022020	063948	185.66	13.036335	-57.087267	186.08	-0.860	0.680	1.940	185.66	-0.70	2.50	 	 	 	 	 	 	 	 	 	 	 	 	 	 	 	 	 	 	1581489588	7.68	14.22
12/02/2020 06:39:49	120220	12022020	063949	186.17	13.036300	-57.087275	186.54	-0.560	0.400	1.440	186.26	-0.90	2.00	 	 	 	 	 	 	 	 	 	 	 	 	 	 	 	 	 	 	1581489589	7.66	14.19
12/02/2020 06:39:50	120220	12022020	063950	186.58	13.036265	-57.087282	186.83	0.060	-0.240	1.040	186.58	-1.50	1.60	 	 	 	 	 	 	 	 	 	 	 	 	 	 	 	 	 	 	1581489590	7.73	14.32
12/02/2020 06:39:51	120220	12022020	063951	186.65	13.036228	-57.087287	186.83	0.650	-1.080	0.890	186.63	-2.30	1.40	 	 	 	 	 	 	 	 	 	 	 	 	 	 	 	 	 	 	1581489591	7.98	14.78
12/02/2020 06:39:52	120220	12022020	063952	186.27	13.036190	-57.087290	186.44	0.840	-1.590	1.190	186.27	-2.90	1.60	 	 	 	 	 	 	 	 	 	 	 	 	 	 	 	 	 	 	1581489592	8.25	15.28
12/02/2020 06:39:53	120220	12022020	063953	185.68	13.036152	-57.087295	185.86	0.480	-1.320	1.910	185.68	-2.80	2.30	 	 	 	 	 	 	 	 	 	 	 	 	 	 	 	 	 	 	1581489593	8.11	15.02
12/02/2020 06:39:54	120220	12022020	063954	185.15	13.036118	-57.087302	185.34	-0.140	-0.380	2.670	185.15	-1.90	3.10	 	 	 	 	 	 	 	 	 	 	 	 	 	 	 	 	 	 	1581489594	7.62	14.11
12/02/2020 06:39:55	120220	12022020	063955	184.91	13.036085	-57.087313	185.14	-0.550	0.710	3.100	184.91	-0.80	3.60	 	 	 	 	 	 	 	 	 	 	 	 	 	 	 	 	 	 	1581489595	7.22	13.37
12/02/2020 06:39:56	120220	12022020	063956	185.08	13.036053	-57.087323	185.36	-0.570	1.320	2.980	185.08	-0.10	3.50	 	 	 	 	 	 	 	 	 	 	 	 	 	 	 	 	 	 	1581489596	7.10	13.15
12/02/2020 06:39:57	120220	12022020	063957	185.43	13.036022	-57.087330	185.72	-0.330	0.970	2.720	185.43	-0.30	3.30	 	 	 	 	 	 	 	 	 	 	 	 	 	 	 	 	 	 	1581489597	7.30	13.52
12/02/2020 06:39:58	120220	12022020	063958	185.69	13.035985	-57.087337	185.97	-0.010	-0.090	2.560	185.69	-1.30	3.10	 	 	 	 	 	 	 	 	 	 	 	 	 	 	 	 	 	 	1581489598	8.00	14.82
12/02/2020 06:39:59	120220	12022020	063959	185.74	13.035945	-57.087343	186.00	0.280	-1.040	2.480	185.74	-2.30	3.00	 	 	 	 	 	 	 	 	 	 	 	 	 	 	 	 	 	 	1581489599	8.56	15.85
12/02/2020 06:40:00	120220	12022020	064000	185.70	13.035907	-57.087350	185.97	0.460	-1.260	2.370	185.70	-2.60	2.90	 	 	 	 	 	 	 	 	 	 	 	 	 	 	 	 	 	 	1581489600	8.43	15.61
12/02/2020 06:40:01	120220	12022020	064001	185.82	13.035872	-57.087357	186.07	0.480	-0.800	2.030	185.82	-2.20	2.60	1015.20	26.20	26.30	19.90	20.00	-1.0	68.0	68.0	397.0	25.8	272.00	10.20	76.00	10.80	16	9493.0	27.3	27.2	1581489601	7.71	14.28
12/02/2020 06:40:02	120220	12022020	064002	185.97	13.035838	-57.087362	186.19	0.340	-0.170	1.610	185.97	-1.60	2.20	 	 	 	 	 	 	 	 	 	 	 	 	 	 	 	 	 	 	1581489602	6.98	12.93
12/02/2020 06:40:03	120220	12022020	064003	185.99	13.035808	-57.087365	186.20	0.090	0.100	1.330	185.99	-1.30	1.90	 	 	 	 	 	 	 	 	 	 	 	 	 	 	 	 	 	 	1581489603	6.81	12.61
12/02/2020 06:40:04	120220	12022020	064004	185.88	13.035773	-57.087368	186.07	-0.200	-0.200	1.340	185.88	-1.50	1.80	 	 	 	 	 	 	 	 	 	 	 	 	 	 	 	 	 	 	1581489604	7.27	13.46
12/02/2020 06:40:05	120220	12022020	064005	185.51	13.035737	-57.087373	185.70	-0.320	-0.900	1.960	185.51	-2.20	2.40	 	 	 	 	 	 	 	 	 	 	 	 	 	 	 	 	 	 	1581489605	7.99	14.80
12/02/2020 06:40:06	120220	12022020	064006	185.09	13.035698	-57.087383	185.35	-0.260	-1.160	2.690	185.09	-2.50	3.10	 	 	 	 	 	 	 	 	 	 	 	 	 	 	 	 	 	 	1581489606	8.78	16.26
12/02/2020 06:40:07	120220	12022020	064007	185.26	13.035658	-57.087395	185.57	-0.250	-0.230	2.770	185.26	-1.70	3.30	 	 	 	 	 	 	 	 	 	 	 	 	 	 	 	 	 	 	1581489607	8.69	16.09
12/02/2020 06:40:08	120220	12022020	064008	186.13	13.035625	-57.087403	186.49	-0.500	1.210	2.280	186.13	-0.30	2.90	 	 	 	 	 	 	 	 	 	 	 	 	 	 	 	 	 	 	1581489608	7.32	13.56
12/02/2020 06:40:09	120220	12022020	064009	187.11	13.035597	-57.087408	187.42	-0.720	1.650	1.760	187.11	0.30	2.30	 	 	 	 	 	 	 	 	 	 	 	 	 	 	 	 	 	 	1581489609	6.28	11.63
12/02/2020 06:40:10	120220	12022020	064010	187.49	13.035565	-57.087415	187.76	-0.430	0.590	1.590	187.49	-0.60	2.10	 	 	 	 	 	 	 	 	 	 	 	 	 	 	 	 	 	 	1581489610	6.84	12.67
12/02/2020 06:40:11	120220	12022020	064011	187.24	13.035528	-57.087423	187.48	0.350	-0.950	1.780	187.24	-2.10	2.30	 	 	 	 	 	 	 	 	 	 	 	 	 	 	 	 	 	 	1581489611	8.27	15.32
12/02/2020 06:40:12	120220	12022020	064012	186.78	13.035488	-57.087432	186.87	1.060	-1.660	1.990	186.78	-3.00	2.50	 	 	 	 	 	 	 	 	 	 	 	 	 	 	 	 	 	 	1581489612	8.87	16.43
12/02/2020 06:40:13	120220	12022020	064013	186.18	13.035450	-57.087437	186.27	1.220	-1.220	1.950	186.07	-2.70	2.50	 	 	 	 	 	 	 	 	 	 	 	 	 	 	 	 	 	 	1581489613	8.17	15.13
12/02/2020 06:40:14	120220	12022020	064014	185.81	13.035417	-57.087440	186.00	0.730	-0.340	1.710	185.81	-1.80	2.30	 	 	 	 	 	 	 	 	 	 	 	 	 	 	 	 	 	 	1581489614	7.15	13.24
12/02/2020 06:40:15	120220	12022020	064015	185.92	13.035385	-57.087442	186.15	-0.090	0.140	1.610	185.92	-1.20	2.10	 	 	 	 	 	 	 	 	 	 	 	 	 	 	 	 	 	 	1581489615	6.80	12.59
12/02/2020 06:40:16	120220	12022020	064016	186.13	13.035352	-57.087447	186.34	-0.800	-0.060	2.020	186.13	-1.40	2.50	 	 	 	 	 	 	 	 	 	 	 	 	 	 	 	 	 	 	1581489616	7.24	13.41
12/02/2020 06:40:17	120220	12022020	064017	186.04	13.035317	-57.087458	186.29	-1.030	-0.540	2.770	186.04	-1.80	3.20	 	 	 	 	 	 	 	 	 	 	 	 	 	 	 	 	 	 	1581489617	8.13	15.06
12/02/2020 06:40:18	120220	12022020	064018	185.81	13.035278	-57.087473	186.09	-0.800	-0.620	3.330	185.81	-2.00	3.80	 	 	 	 	 	 	 	 	 	 	 	 	 	 	 	 	 	 	1581489618	8.74	16.19
12/02/2020 06:40:19	120220	12022020	064019	185.70	13.035242	-57.087488	186.00	-0.370	-0.110	3.310	185.70	-1.50	3.90	 	 	 	 	 	 	 	 	 	 	 	 	 	 	 	 	 	 	1581489619	8.43	15.61
12/02/2020 06:40:20	120220	12022020	064020	185.80	13.035208	-57.087498	186.10	0.040	0.570	2.610	185.80	-0.90	3.30	 	 	 	 	 	 	 	 	 	 	 	 	 	 	 	 	 	 	1581489620	7.60	14.08
12/02/2020 06:40:21	120220	12022020	064021	186.16	13.035175	-57.087502	186.43	0.340	0.850	1.440	186.16	-0.50	2.10	 	 	 	 	 	 	 	 	 	 	 	 	 	 	 	 	 	 	1581489621	7.13	13.20
12/02/2020 06:40:22	120220	12022020	064022	186.42	13.035140	-57.087500	186.65	0.530	0.410	0.690	186.42	-0.90	1.30	 	 	 	 	 	 	 	 	 	 	 	 	 	 	 	 	 	 	1581489622	7.36	13.63
12/02/2020 06:40:23	120220	12022020	064023	186.36	13.035103	-57.087500	186.58	0.650	-0.480	0.660	186.36	-1.70	1.20	 	 	 	 	 	 	 	 	 	 	 	 	 	 	 	 	 	 	1581489623	7.91	14.65
12/02/2020 06:40:24	120220	12022020	064024	186.08	13.035065	-57.087502	186.29	0.620	-1.180	1.100	186.08	-2.50	1.60	 	 	 	 	 	 	 	 	 	 	 	 	 	 	 	 	 	 	1581489624	8.28	15.33
12/02/2020 06:40:25	120220	12022020	064025	185.61	13.035028	-57.087508	185.82	0.350	-1.300	1.900	185.61	-2.70	2.30	 	 	 	 	 	 	 	 	 	 	 	 	 	 	 	 	 	 	1581489625	8.18	15.15
12/02/2020 06:40:26	120220	12022020	064026	185.21	13.034993	-57.087517	185.45	-0.150	-0.940	2.650	185.21	-2.40	3.10	 	 	 	 	 	 	 	 	 	 	 	 	 	 	 	 	 	 	1581489626	7.82	14.48
12/02/2020 06:40:27	120220	12022020	064027	185.06	13.034958	-57.087528	185.31	-0.650	-0.390	3.100	185.04	-1.80	3.60	 	 	 	 	 	 	 	 	 	 	 	 	 	 	 	 	 	 	1581489627	7.59	14.06
12/02/2020 06:40:28	120220	12022020	064028	185.09	13.034927	-57.087540	185.39	-0.810	0.040	3.130	185.09	-1.40	3.70	 	 	 	 	 	 	 	 	 	 	 	 	 	 	 	 	 	 	1581489628	7.60	14.08
12/02/2020 06:40:29	120220	12022020	064029	185.26	13.034892	-57.087552	185.61	-0.500	0.290	2.740	185.32	-1.10	3.30	 	 	 	 	 	 	 	 	 	 	 	 	 	 	 	 	 	 	1581489629	7.73	14.32
12/02/2020 06:40:30	120220	12022020	064030	185.65	13.034857	-57.087558	185.95	0.060	0.280	2.100	185.65	-1.10	2.70	 	 	 	 	 	 	 	 	 	 	 	 	 	 	 	 	 	 	1581489630	7.79	14.43
12/02/2020 06:40:31	120220	12022020	064031	185.92	13.034820	-57.087562	186.27	0.490	0.050	1.370	185.98	-1.30	2.00	 	 	 	 	 	 	 	 	 	 	 	 	 	 	 	 	 	 	1581489631	7.96	14.74
12/02/2020 06:40:32	120220	12022020	064032	186.17	13.034782	-57.087563	186.44	0.510	-0.220	1.010	186.17	-1.50	1.60	 	 	 	 	 	 	 	 	 	 	 	 	 	 	 	 	 	 	1581489632	8.15	15.09
12/02/2020 06:40:33	120220	12022020	064033	186.18	13.034743	-57.087565	186.41	0.180	-0.350	1.180	186.16	-1.70	1.70	 	 	 	 	 	 	 	 	 	 	 	 	 	 	 	 	 	 	1581489633	8.06	14.93
12/02/2020 06:40:34	120220	12022020	064034	186.07	13.034708	-57.087570	186.30	-0.160	-0.220	1.550	186.07	-1.60	2.00	 	 	 	 	 	 	 	 	 	 	 	 	 	 	 	 	 	 	1581489634	7.86	14.56
12/02/2020 06:40:35	120220	12022020	064035	185.96	13.034673	-57.087578	186.20	-0.270	-0.040	1.990	185.96	-1.40	2.40	 	 	 	 	 	 	 	 	 	 	 	 	 	 	 	 	 	 	1581489635	7.58	14.04
12/02/2020 06:40:36	120220	12022020	064036	185.86	13.034640	-57.087588	186.12	-0.160	-0.120	2.340	185.86	-1.40	2.80	 	 	 	 	 	 	 	 	 	 	 	 	 	 	 	 	 	 	1581489636	7.54	13.96
12/02/2020 06:40:37	120220	12022020	064037	185.80	13.034605	-57.087597	186.04	0.090	-0.380	2.350	185.80	-1.70	2.90	 	 	 	 	 	 	 	 	 	 	 	 	 	 	 	 	 	 	1581489637	7.82	14.48
12/02/2020 06:40:38	120220	12022020	064038	185.81	13.034568	-57.087605	186.10	0.340	-0.540	2.030	185.83	-1.90	2.60	 	 	 	 	 	 	 	 	 	 	 	 	 	 	 	 	 	 	1581489638	8.02	14.85
12/02/2020 06:40:39	120220	12022020	064039	185.96	13.034532	-57.087610	186.21	0.420	-0.440	1.630	185.96	-1.80	2.20	 	 	 	 	 	 	 	 	 	 	 	 	 	 	 	 	 	 	1581489639	7.90	14.63
12/02/2020 06:40:40	120220	12022020	064040	186.04	13.034497	-57.087612	186.27	0.300	-0.240	1.350	186.04	-1.60	1.90	 	 	 	 	 	 	 	 	 	 	 	 	 	 	 	 	 	 	1581489640	7.64	14.15
12/02/2020 06:40:41	120220	12022020	064041	186.19	13.034462	-57.087615	186.44	0.080	-0.130	1.200	186.19	-1.50	1.70	 	 	 	 	 	 	 	 	 	 	 	 	 	 	 	 	 	 	1581489641	7.58	14.04
12/02/2020 06:40:42	120220	12022020	064042	186.37	13.034425	-57.087620	186.61	-0.130	-0.300	1.350	186.37	-1.60	1.80	 	 	 	 	 	 	 	 	 	 	 	 	 	 	 	 	 	 	1581489642	7.69	14.24
12/02/2020 06:40:43	120220	12022020	064043	186.32	13.034388	-57.087625	186.55	-0.250	-0.800	1.880	186.32	-2.10	2.30	 	 	 	 	 	 	 	 	 	 	 	 	 	 	 	 	 	 	1581489643	8.03	14.87
12/02/2020 06:40:44	120220	12022020	064044	186.04	13.034350	-57.087635	186.17	-0.320	-1.060	2.560	185.94	-2.40	3.00	 	 	 	 	 	 	 	 	 	 	 	 	 	 	 	 	 	 	1581489644	8.57	15.87
12/02/2020 06:40:45	120220	12022020	064045	185.49	13.034312	-57.087647	185.62	-0.430	-0.650	3.150	185.38	-2.10	3.60	 	 	 	 	 	 	 	 	 	 	 	 	 	 	 	 	 	 	1581489645	8.60	15.93
12/02/2020 06:40:46	120220	12022020	064046	185.14	13.034275	-57.087657	185.42	-0.550	0.200	3.210	185.14	-1.30	3.70	 	 	 	 	 	 	 	 	 	 	 	 	 	 	 	 	 	 	1581489646	8.07	14.95
12/02/2020 06:40:47	120220	12022020	064047	185.46	13.034242	-57.087667	185.76	-0.510	0.930	2.570	185.46	-0.50	3.20	 	 	 	 	 	 	 	 	 	 	 	 	 	 	 	 	 	 	1581489647	7.51	13.91
12/02/2020 06:40:48	120220	12022020	064048	185.76	13.034208	-57.087672	186.22	-0.120	1.010	1.670	185.85	-0.30	2.30	 	 	 	 	 	 	 	 	 	 	 	 	 	 	 	 	 	 	1581489648	7.33	13.58
12/02/2020 06:40:49	120220	12022020	064049	186.27	13.034172	-57.087675	186.61	0.550	0.370	0.810	186.36	-0.90	1.40	 	 	 	 	 	 	 	 	 	 	 	 	 	 	 	 	 	 	1581489649	7.76	14.37
12/02/2020 06:40:50	120220	12022020	064050	186.69	13.034133	-57.087675	186.95	1.060	-0.320	0.330	186.69	-1.60	0.90	 	 	 	 	 	 	 	 	 	 	 	 	 	 	 	 	 	 	1581489650	8.43	15.61
12/02/2020 06:40:51	120220	12022020	064051	186.93	13.034093	-57.087675	187.27	0.950	-0.510	0.290	186.99	-1.90	0.80	 	 	 	 	 	 	 	 	 	 	 	 	 	 	 	 	 	 	1581489651	8.38	15.52
12/02/2020 06:40:52	120220	12022020	064052	187.11	13.034058	-57.087677	187.35	0.260	-0.530	0.960	187.13	-1.90	1.30	 	 	 	 	 	 	 	 	 	 	 	 	 	 	 	 	 	 	1581489652	7.67	14.20
12/02/2020 06:40:53	120220	12022020	064053	186.93	13.034025	-57.087685	187.08	-0.460	-0.840	2.230	186.86	-2.10	2.60	 	 	 	 	 	 	 	 	 	 	 	 	 	 	 	 	 	 	1581489653	7.39	13.69
12/02/2020 06:40:54	120220	12022020	064054	186.47	13.033990	-57.087700	186.60	-0.750	-1.260	3.300	186.36	-2.60	3.70	 	 	 	 	 	 	 	 	 	 	 	 	 	 	 	 	 	 	1581489654	8.08	14.96
12/02/2020 06:40:55	120220	12022020	064055	185.92	13.033953	-57.087717	186.05	-0.430	-1.420	3.770	185.81	-2.80	4.20	 	 	 	 	 	 	 	 	 	 	 	 	 	 	 	 	 	 	1581489655	8.61	15.95
12/02/2020 06:40:56	120220	12022020	064056	185.44	13.033915	-57.087730	185.65	0.230	-1.080	3.520	185.38	-2.50	4.10	 	 	 	 	 	 	 	 	 	 	 	 	 	 	 	 	 	 	1581489656	8.56	15.85
12/02/2020 06:40:57	120220	12022020	064057	185.35	13.033878	-57.087737	185.66	0.560	-0.240	2.670	185.38	-1.70	3.30	 	 	 	 	 	 	 	 	 	 	 	 	 	 	 	 	 	 	1581489657	8.13	15.06
12/02/2020 06:40:58	120220	12022020	064058	185.58	13.033843	-57.087735	185.92	0.230	0.550	1.800	185.64	-0.90	2.40	 	 	 	 	 	 	 	 	 	 	 	 	 	 	 	 	 	 	1581489658	7.70	14.26
12/02/2020 06:40:59	120220	12022020	064059	185.88	13.033807	-57.087735	186.20	-0.470	0.790	1.250	185.94	-0.60	1.80	 	 	 	 	 	 	 	 	 	 	 	 	 	 	 	 	 	 	1581489659	7.61	14.09
12/02/2020 06:41:00	120220	12022020	064100	186.22	13.033770	-57.087738	186.56	-0.970	0.630	0.970	186.31	-0.70	1.50	 	 	 	 	 	 	 	 	 	 	 	 	 	 	 	 	 	 	1581489660	7.95	14.72
12/02/2020 06:41:01	120220	12022020	064101	186.63	13.033733	-57.087745	186.94	-0.920	0.350	0.870	186.70	-1.00	1.40	1015.20	26.20	26.30	19.70	19.80	-1.0	67.0	67.0	401.0	25.8	271.00	9.80	75.00	10.50	16	9930.0	27.2	27.2	1581489661	8.21	15.20
12/02/2020 06:41:02	120220	12022020	064102	186.85	13.033695	-57.087753	187.12	-0.410	-0.080	1.060	186.87	-1.40	1.50	 	 	 	 	 	 	 	 	 	 	 	 	 	 	 	 	 	 	1581489662	8.19	15.17
12/02/2020 06:41:03	120220	12022020	064103	186.84	13.033658	-57.087763	187.03	0.250	-0.470	1.410	186.80	-1.80	1.90	 	 	 	 	 	 	 	 	 	 	 	 	 	 	 	 	 	 	1581489663	8.23	15.24
12/02/2020 06:41:04	120220	12022020	064104	186.63	13.033622	-57.087772	186.72	0.740	-0.560	1.750	186.56	-1.90	2.20	 	 	 	 	 	 	 	 	 	 	 	 	 	 	 	 	 	 	1581489664	8.14	15.08
12/02/2020 06:41:05	120220	12022020	064105	186.27	13.033585	-57.087778	186.49	0.910	-0.380	1.860	186.24	-1.80	2.40	 	 	 	 	 	 	 	 	 	 	 	 	 	 	 	 	 	 	1581489665	7.84	14.52
12/02/2020 06:41:06	120220	12022020	064106	186.24	13.033552	-57.087782	186.52	0.750	-0.270	1.710	186.25	-1.60	2.30	 	 	 	 	 	 	 	 	 	 	 	 	 	 	 	 	 	 	1581489666	7.57	14.02
12/02/2020 06:41:07	120220	12022020	064107	186.32	13.033515	-57.087785	186.58	0.410	-0.380	1.730	186.32	-1.70	2.20	 	 	 	 	 	 	 	 	 	 	 	 	 	 	 	 	 	 	1581489667	7.61	14.09
12/02/2020 06:41:08	120220	12022020	064108	186.29	13.033480	-57.087790	186.55	0.050	-0.540	1.930	186.29	-1.90	2.40	 	 	 	 	 	 	 	 	 	 	 	 	 	 	 	 	 	 	1581489668	7.87	14.58
12/02/2020 06:41:09	120220	12022020	064109	186.28	13.033443	-57.087798	186.56	-0.330	-0.520	2.120	186.29	-1.90	2.60	 	 	 	 	 	 	 	 	 	 	 	 	 	 	 	 	 	 	1581489669	8.04	14.89
12/02/2020 06:41:10	120220	12022020	064110	186.36	13.033407	-57.087807	186.66	-0.660	-0.390	2.400	186.38	-1.80	2.90	 	 	 	 	 	 	 	 	 	 	 	 	 	 	 	 	 	 	1581489670	8.01	14.83
12/02/2020 06:41:11	120220	12022020	064111	186.44	13.033372	-57.087818	186.71	-0.710	-0.340	2.700	186.44	-1.70	3.20	 	 	 	 	 	 	 	 	 	 	 	 	 	 	 	 	 	 	1581489671	8.02	14.85
12/02/2020 06:41:12	120220	12022020	064112	186.33	13.033335	-57.087830	186.55	-0.280	-0.430	2.710	186.29	-1.80	3.20	 	 	 	 	 	 	 	 	 	 	 	 	 	 	 	 	 	 	1581489672	8.18	15.15
12/02/2020 06:41:13	120220	12022020	064113	186.18	13.033297	-57.087838	186.46	0.350	-0.390	2.230	186.18	-1.80	2.80	 	 	 	 	 	 	 	 	 	 	 	 	 	 	 	 	 	 	1581489673	8.38	15.52
12/02/2020 06:41:14	120220	12022020	064114	186.31	13.033258	-57.087842	186.70	0.590	-0.000	1.590	186.38	-1.40	2.20	 	 	 	 	 	 	 	 	 	 	 	 	 	 	 	 	 	 	1581489674	8.34	15.45
12/02/2020 06:41:15	120220	12022020	064115	186.76	13.033222	-57.087842	187.18	0.250	0.450	0.920	186.87	-0.90	1.50	 	 	 	 	 	 	 	 	 	 	 	 	 	 	 	 	 	 	1581489675	7.90	14.63
12/02/2020 06:41:16	120220	12022020	064116	187.29	13.033187	-57.087842	187.63	-0.280	0.470	0.580	187.37	-0.80	1.10	 	 	 	 	 	 	 	 	 	 	 	 	 	 	 	 	 	 	1581489676	7.54	13.96
12/02/2020 06:41:17	120220	12022020	064117	187.47	13.033150	-57.087845	187.66	-0.410	-0.240	1.070	187.43	-1.50	1.50	 	 	 	 	 	 	 	 	 	 	 	 	 	 	 	 	 	 	1581489677	7.73	14.32
12/02/2020 06:41:18	120220	12022020	064118	187.03	13.033112	-57.087855	187.11	-0.080	-1.220	2.140	186.90	-2.50	2.50	 	 	 	 	 	 	 	 	 	 	 	 	 	 	 	 	 	 	1581489678	8.55	15.83
12/02/2020 06:41:19	120220	12022020	064119	186.29	13.033070	-57.087867	186.39	0.210	-1.380	3.180	186.15	-2.80	3.60	 	 	 	 	 	 	 	 	 	 	 	 	 	 	 	 	 	 	1581489679	9.18	17.00
12/02/2020 06:41:20	120220	12022020	064120	185.79	13.033032	-57.087880	186.03	0.070	-0.360	3.620	185.75	-1.90	4.10	 	 	 	 	 	 	 	 	 	 	 	 	 	 	 	 	 	 	1581489680	8.66	16.04
12/02/2020 06:41:21	120220	12022020	064121	185.92	13.033000	-57.087890	186.35	-0.390	1.000	3.210	186.04	-0.50	3.80	 	 	 	 	 	 	 	 	 	 	 	 	 	 	 	 	 	 	1581489681	7.42	13.74
12/02/2020 06:41:22	120220	12022020	064122	186.60	13.032970	-57.087898	187.02	-0.660	1.430	2.280	186.74	0.10	2.90	 	 	 	 	 	 	 	 	 	 	 	 	 	 	 	 	 	 	1581489682	6.69	12.39
12/02/2020 06:41:23	120220	12022020	064123	187.18	13.032937	-57.087903	187.49	-0.170	0.460	1.320	187.25	-0.70	2.00	 	 	 	 	 	 	 	 	 	 	 	 	 	 	 	 	 	 	1581489683	7.28	13.48
12/02/2020 06:41:24	120220	12022020	064124	187.44	13.032897	-57.087908	187.69	0.820	-1.040	0.550	187.47	-2.20	1.10	 	 	 	 	 	 	 	 	 	 	 	 	 	 	 	 	 	 	1581489684	8.66	16.04
12/02/2020 06:41:25	120220	12022020	064125	187.49	13.032852	-57.087910	187.69	1.380	-1.750	0.530	187.48	-3.10	1.00	 	 	 	 	 	 	 	 	 	 	 	 	 	 	 	 	 	 	1581489685	9.38	17.37
12/02/2020 06:41:26	120220	12022020	064126	187.35	13.032813	-57.087913	187.48	1.000	-1.270	0.990	187.30	-2.70	1.40	 	 	 	 	 	 	 	 	 	 	 	 	 	 	 	 	 	 	1581489686	8.58	15.89
12/02/2020 06:41:27	120220	12022020	064127	187.18	13.032778	-57.087917	187.38	0.040	-0.250	1.430	187.17	-1.70	1.90	 	 	 	 	 	 	 	 	 	 	 	 	 	 	 	 	 	 	1581489687	7.42	13.74
12/02/2020 06:41:28	120220	12022020	064128	187.22	13.032747	-57.087923	187.50	-0.930	0.440	1.950	187.24	-0.90	2.40	 	 	 	 	 	 	 	 	 	 	 	 	 	 	 	 	 	 	1581489688	6.96	12.89
12/02/2020 06:41:29	120220	12022020	064129	187.29	13.032713	-57.087935	187.49	-1.320	0.160	2.690	187.27	-1.10	3.10	 	 	 	 	 	 	 	 	 	 	 	 	 	 	 	 	 	 	1581489689	7.41	13.72
12/02/2020 06:41:30	120220	12022020	064130	187.06	13.032677	-57.087950	187.21	-0.940	-0.670	3.340	186.99	-1.90	3.80	 	 	 	 	 	 	 	 	 	 	 	 	 	 	 	 	 	 	1581489690	8.70	16.11
12/02/2020 06:41:31	120220	12022020	064131	186.69	13.032635	-57.087967	186.87	-0.110	-0.950	3.470	186.63	-2.30	4.00	 	 	 	 	 	 	 	 	 	 	 	 	 	 	 	 	 	 	1581489691	9.51	17.61
12/02/2020 06:41:32	120220	12022020	064132	186.57	13.032595	-57.087978	186.86	0.470	-0.140	2.960	186.60	-1.60	3.50	 	 	 	 	 	 	 	 	 	 	 	 	 	 	 	 	 	 	1581489692	8.94	16.56
12/02/2020 06:41:33	120220	12022020	064133	186.90	13.032560	-57.087983	187.30	0.410	0.980	2.020	187.01	-0.50	2.70	 	 	 	 	 	 	 	 	 	 	 	 	 	 	 	 	 	 	1581489693	7.59	14.06
12/02/2020 06:41:34	120220	12022020	064134	187.48	13.032528	-57.087983	187.84	0.060	1.310	1.070	187.59	-0.00	1.70	 	 	 	 	 	 	 	 	 	 	 	 	 	 	 	 	 	 	1581489694	6.87	12.72
12/02/2020 06:41:35	120220	12022020	064135	187.90	13.032495	-57.087985	188.16	0.020	0.450	0.520	187.94	-0.70	1.10	 	 	 	 	 	 	 	 	 	 	 	 	 	 	 	 	 	 	1581489695	7.29	13.50
12/02/2020 06:41:36	120220	12022020	064136	187.99	13.032455	-57.087987	188.17	0.420	-0.900	0.540	187.97	-2.10	1.00	 	 	 	 	 	 	 	 	 	 	 	 	 	 	 	 	 	 	1581489696	8.35	15.46
12/02/2020 06:41:37	120220	12022020	064137	187.75	13.032415	-57.087992	187.85	0.690	-1.730	1.120	187.66	-3.00	1.50	 	 	 	 	 	 	 	 	 	 	 	 	 	 	 	 	 	 	1581489697	8.92	16.52
12/02/2020 06:41:38	120220	12022020	064138	187.24	13.032375	-57.088000	187.29	0.470	-1.780	2.010	187.11	-3.10	2.40	 	 	 	 	 	 	 	 	 	 	 	 	 	 	 	 	 	 	1581489698	8.56	15.85
12/02/2020 06:41:39	120220	12022020	064139	186.62	13.032340	-57.088012	186.69	-0.110	-1.180	2.920	186.51	-2.60	3.30	 	 	 	 	 	 	 	 	 	 	 	 	 	 	 	 	 	 	1581489699	8.12	15.04
12/02/2020 06:41:40	120220	12022020	064140	186.22	13.032305	-57.088025	186.38	-0.630	-0.210	3.470	186.17	-1.70	3.90	 	 	 	 	 	 	 	 	 	 	 	 	 	 	 	 	 	 	1581489700	7.90	14.63
12/02/2020 06:41:41	120220	12022020	064141	186.31	13.032272	-57.088038	186.74	-0.810	0.780	3.130	186.43	-0.70	3.70	 	 	 	 	 	 	 	 	 	 	 	 	 	 	 	 	 	 	1581489701	7.75	14.35
12/02/2020 06:41:42	120220	12022020	064142	186.96	13.032237	-57.088047	187.71	-0.680	1.310	2.100	187.17	-0.10	2.70	 	 	 	 	 	 	 	 	 	 	 	 	 	 	 	 	 	 	1581489702	7.54	13.96
12/02/2020 06:41:43	120220	12022020	064143	188.26	13.032202	-57.088053	188.74	-0.330	1.110	1.010	188.44	-0.20	1.60	 	 	 	 	 	 	 	 	 	 	 	 	 	 	 	 	 	 	1581489703	7.60	14.08
12/02/2020 06:41:44	120220	12022020	064144	188.97	13.032165	-57.088057	189.27	0.190	0.180	0.410	189.03	-1.00	1.00	 	 	 	 	 	 	 	 	 	 	 	 	 	 	 	 	 	 	1581489704	7.98	14.78
12/02/2020 06:41:45	120220	12022020	064145	189.00	13.032127	-57.088060	189.10	0.750	-0.990	0.460	188.94	-2.20	0.90	 	 	 	 	 	 	 	 	 	 	 	 	 	 	 	 	 	 	1581489705	8.48	15.70
12/02/2020 06:41:46	120220	12022020	064146	188.47	13.032087	-57.088065	188.42	1.130	-1.710	1.000	188.31	-3.00	1.40	 	 	 	 	 	 	 	 	 	 	 	 	 	 	 	 	 	 	1581489706	8.75	16.21
12/02/2020 06:41:47	120220	12022020	064147	187.69	13.032047	-57.088072	187.65	1.020	-1.580	1.810	187.54	-3.00	2.20	 	 	 	 	 	 	 	 	 	 	 	 	 	 	 	 	 	 	1581489707	8.55	15.83
12/02/2020 06:41:48	120220	12022020	064148	187.12	13.032010	-57.088078	187.25	0.350	-0.690	2.490	187.08	-2.20	2.90	 	 	 	 	 	 	 	 	 	 	 	 	 	 	 	 	 	 	1581489708	8.04	14.89
12/02/2020 06:41:49	120220	12022020	064149	187.19	13.031977	-57.088088	187.53	-0.650	0.620	2.700	187.30	-0.90	3.20	 	 	 	 	 	 	 	 	 	 	 	 	 	 	 	 	 	 	1581489709	7.54	13.96
12/02/2020 06:41:50	120220	12022020	064150	187.91	13.031945	-57.088098	188.36	-1.440	1.500	2.510	188.10	0.10	3.00	 	 	 	 	 	 	 	 	 	 	 	 	 	 	 	 	 	 	1581489710	7.08	13.11
12/02/2020 06:41:51	120220	12022020	064151	188.76	13.031913	-57.088110	189.11	-1.410	1.170	2.100	188.89	-0.10	2.70	 	 	 	 	 	 	 	 	 	 	 	 	 	 	 	 	 	 	1581489711	7.20	13.33
12/02/2020 06:41:52	120220	12022020	064152	189.13	13.031877	-57.088120	189.34	-0.500	-0.350	1.730	189.16	-1.40	2.30	 	 	 	 	 	 	 	 	 	 	 	 	 	 	 	 	 	 	1581489712	8.16	15.11
12/02/2020 06:41:53	120220	12022020	064153	188.99	13.031835	-57.088130	189.05	0.600	-1.810	1.650	188.92	-3.00	2.10	 	 	 	 	 	 	 	 	 	 	 	 	 	 	 	 	 	 	1581489713	9.37	17.35
12/02/2020 06:41:54	120220	12022020	064154	188.64	13.031790	-57.088138	188.60	1.090	-1.840	1.710	188.54	-3.30	2.20	 	 	 	 	 	 	 	 	 	 	 	 	 	 	 	 	 	 	1581489714	9.53	17.65
12/02/2020 06:41:55	120220	12022020	064155	188.16	13.031753	-57.088147	188.25	0.830	-0.510	1.690	188.10	-2.10	2.20	 	 	 	 	 	 	 	 	 	 	 	 	 	 	 	 	 	 	1581489715	8.18	15.15
12/02/2020 06:41:56	120220	12022020	064156	187.97	13.031722	-57.088150	188.13	0.280	0.920	1.470	187.97	-0.60	2.00	 	 	 	 	 	 	 	 	 	 	 	 	 	 	 	 	 	 	1581489716	6.79	12.58
12/02/2020 06:41:57	120220	12022020	064157	188.04	13.031692	-57.088153	188.21	-0.140	1.300	1.230	188.06	-0.00	1.80	 	 	 	 	 	 	 	 	 	 	 	 	 	 	 	 	 	 	1581489717	6.62	12.26
12/02/2020 06:41:58	120220	12022020	064158	188.14	13.031657	-57.088158	188.33	-0.230	0.500	1.320	188.15	-0.70	1.80	 	 	 	 	 	 	 	 	 	 	 	 	 	 	 	 	 	 	1581489718	7.59	14.06
12/02/2020 06:41:59	120220	12022020	064159	188.09	13.031617	-57.088167	188.23	-0.090	-0.740	1.790	188.04	-1.90	2.20	 	 	 	 	 	 	 	 	 	 	 	 	 	 	 	 	 	 	1581489719	8.73	16.17
12/02/2020 06:42:00	120220	12022020	064200	187.79	13.031575	-57.088178	187.91	0.030	-1.480	2.420	187.72	-2.80	2.80	 	 	 	 	 	 	 	 	 	 	 	 	 	 	 	 	 	 	1581489720	9.27	17.17
12/02/2020 06:42:01	120220	12022020	064201	187.46	13.031535	-57.088192	187.62	0.020	-1.230	2.880	187.42	-2.60	3.30	1015.20	26.30	26.30	20.10	20.10	-1.0	68.0	68.0	404.0	25.8	270.00	10.60	76.00	11.40	16	9852.0	27.2	27.2	1581489721	8.95	16.58
12/02/2020 06:42:02	120220	12022020	064202	187.36	13.031500	-57.088203	187.63	-0.140	-0.220	2.820	187.38	-1.70	3.30	 	 	 	 	 	 	 	 	 	 	 	 	 	 	 	 	 	 	1581489722	7.99	14.80
12/02/2020 06:42:03	120220	12022020	064203	187.63	13.031468	-57.088210	188.00	-0.370	0.790	2.240	187.73	-0.70	2.80	 	 	 	 	 	 	 	 	 	 	 	 	 	 	 	 	 	 	1581489723	7.09	13.13
12/02/2020 06:42:04	120220	12022020	064204	188.12	13.031437	-57.088215	188.43	-0.490	0.980	1.570	188.19	-0.30	2.10	 	 	 	 	 	 	 	 	 	 	 	 	 	 	 	 	 	 	1581489724	6.85	12.69
12/02/2020 06:42:05	120220	12022020	064205	188.31	13.031402	-57.088220	188.47	-0.210	-0.000	1.240	188.29	-1.20	1.80	 	 	 	 	 	 	 	 	 	 	 	 	 	 	 	 	 	 	1581489725	7.46	13.82
12/02/2020 06:42:06	120220	12022020	064206	188.00	13.031362	-57.088228	188.05	0.460	-1.370	1.330	187.89	-2.60	1.80	 	 	 	 	 	 	 	 	 	 	 	 	 	 	 	 	 	 	1581489726	8.71	16.13
12/02/2020 06:42:07	120220	12022020	064207	187.42	13.031320	-57.088235	187.50	1.000	-1.650	1.500	187.33	-3.00	2.00	 	 	 	 	 	 	 	 	 	 	 	 	 	 	 	 	 	 	1581489727	9.39	17.39
12/02/2020 06:42:08	120220	12022020	064208	187.14	13.031280	-57.088240	187.36	0.760	-0.490	1.570	187.15	-2.00	2.10	 	 	 	 	 	 	 	 	 	 	 	 	 	 	 	 	 	 	1581489728	8.53	15.80
12/02/2020 06:42:09	120220	12022020	064209	187.32	13.031247	-57.088243	187.62	-0.130	0.790	1.600	187.39	-0.70	2.10	 	 	 	 	 	 	 	 	 	 	 	 	 	 	 	 	 	 	1581489729	6.98	12.93
12/02/2020 06:42:10	120220	12022020	064210	187.65	13.031217	-57.088250	187.96	-0.850	0.960	1.770	187.71	-0.30	2.30	 	 	 	 	 	 	 	 	 	 	 	 	 	 	 	 	 	 	1581489730	6.66	12.33
12/02/2020 06:42:11	120220	12022020	064211	187.94	13.031183	-57.088262	188.22	-0.720	0.130	1.960	187.98	-1.10	2.40	 	 	 	 	 	 	 	 	 	 	 	 	 	 	 	 	 	 	1581489731	7.80	14.45
12/02/2020 06:42:12	120220	12022020	064212	188.04	13.031143	-57.088275	188.25	0.010	-0.780	2.220	188.03	-2.00	2.70	 	 	 	 	 	 	 	 	 	 	 	 	 	 	 	 	 	 	1581489732	8.85	16.39
12/02/2020 06:42:13	120220	12022020	064213	187.88	13.031103	-57.088285	188.03	0.580	-1.070	2.550	187.82	-2.40	3.00	 	 	 	 	 	 	 	 	 	 	 	 	 	 	 	 	 	 	1581489733	8.96	16.59
12/02/2020 06:42:14	120220	12022020	064214	187.54	13.031065	-57.088295	187.66	0.530	-0.790	2.710	187.46	-2.20	3.20	 	 	 	 	 	 	 	 	 	 	 	 	 	 	 	 	 	 	1581489734	8.35	15.46
12/02/2020 06:42:15	120220	12022020	064215	187.17	13.031030	-57.088302	187.31	0.040	-0.280	2.660	187.11	-1.70	3.20	 	 	 	 	 	 	 	 	 	 	 	 	 	 	 	 	 	 	1581489735	7.84	14.52
12/02/2020 06:42:16	120220	12022020	064216	187.02	13.030995	-57.088310	187.26	-0.440	0.360	2.350	187.02	-1.10	2.90	 	 	 	 	 	 	 	 	 	 	 	 	 	 	 	 	 	 	1581489736	7.67	14.20
12/02/2020 06:42:17	120220	12022020	064217	187.24	13.030960	-57.088317	187.57	-0.570	0.760	1.780	187.32	-0.60	2.40	 	 	 	 	 	 	 	 	 	 	 	 	 	 	 	 	 	 	1581489737	7.47	13.83
12/02/2020 06:42:18	120220	12022020	064218	187.70	13.030927	-57.088322	188.05	-0.300	0.500	1.190	187.80	-0.80	1.80	 	 	 	 	 	 	 	 	 	 	 	 	 	 	 	 	 	 	1581489738	7.54	13.96
12/02/2020 06:42:19	120220	12022020	064219	188.11	13.030888	-57.088327	188.39	0.200	-0.300	0.960	188.15	-1.50	1.50	 	 	 	 	 	 	 	 	 	 	 	 	 	 	 	 	 	 	1581489739	8.07	14.95
12/02/2020 06:42:20	120220	12022020	064220	188.21	13.030850	-57.088333	188.42	0.610	-1.020	1.160	188.20	-2.30	1.60	 	 	 	 	 	 	 	 	 	 	 	 	 	 	 	 	 	 	1581489740	8.59	15.91
12/02/2020 06:42:21	120220	12022020	064221	188.13	13.030810	-57.088342	188.31	0.590	-0.970	1.610	188.11	-2.40	2.10	 	 	 	 	 	 	 	 	 	 	 	 	 	 	 	 	 	 	1581489741	8.56	15.85
12/02/2020 06:42:22	120220	12022020	064222	187.99	13.030775	-57.088350	188.14	0.170	-0.370	2.110	187.94	-1.80	2.60	 	 	 	 	 	 	 	 	 	 	 	 	 	 	 	 	 	 	1581489742	7.78	14.41
12/02/2020 06:42:23	120220	12022020	064223	187.69	13.030742	-57.088358	187.78	-0.180	-0.100	2.580	187.61	-1.40	3.00	 	 	 	 	 	 	 	 	 	 	 	 	 	 	 	 	 	 	1581489743	7.23	13.39
12/02/2020 06:42:24	120220	12022020	064224	187.24	13.030708	-57.088368	187.32	-0.140	-0.480	2.980	187.14	-1.70	3.40	 	 	 	 	 	 	 	 	 	 	 	 	 	 	 	 	 	 	1581489744	7.71	14.28
12/02/2020 06:42:25	120220	12022020	064225	186.82	13.030670	-57.088378	186.99	0.140	-0.790	3.130	186.77	-2.10	3.60	 	 	 	 	 	 	 	 	 	 	 	 	 	 	 	 	 	 	1581489745	8.66	16.04
12/02/2020 06:42:26	120220	12022020	064226	186.77	13.030630	-57.088388	187.07	0.150	-0.460	2.850	186.81	-1.90	3.40	 	 	 	 	 	 	 	 	 	 	 	 	 	 	 	 	 	 	1581489746	8.79	16.28
12/02/2020 06:42:27	120220	12022020	064227	187.09	13.030592	-57.088395	187.47	-0.270	0.200	2.310	187.19	-1.20	2.90	 	 	 	 	 	 	 	 	 	 	 	 	 	 	 	 	 	 	1581489747	8.07	14.95
12/02/2020 06:42:28	120220	12022020	064228	187.50	13.030558	-57.088402	188.01	-0.730	0.660	1.740	187.61	-0.70	2.30	 	 	 	 	 	 	 	 	 	 	 	 	 	 	 	 	 	 	1581489748	7.52	13.93
12/02/2020 06:42:29	120220	12022020	064229	188.16	13.030523	-57.088408	188.53	-0.760	0.700	1.160	188.27	-0.60	1.70	 	 	 	 	 	 	 	 	 	 	 	 	 	 	 	 	 	 	1581489749	7.50	13.89
12/02/2020 06:42:30	120220	12022020	064230	188.55	13.030488	-57.088415	188.89	-0.310	0.340	0.860	188.61	-0.90	1.40	 	 	 	 	 	 	 	 	 	 	 	 	 	 	 	 	 	 	1581489750	7.76	14.37
12/02/2020 06:42:31	120220	12022020	064231	188.68	13.030452	-57.088420	188.79	0.330	-0.400	0.920	188.64	-1.60	1.40	 	 	 	 	 	 	 	 	 	 	 	 	 	 	 	 	 	 	1581489751	8.00	14.82
12/02/2020 06:42:32	120220	12022020	064232	188.31	13.030413	-57.088427	188.36	0.800	-1.180	1.290	188.21	-2.40	1.70	 	 	 	 	 	 	 	 	 	 	 	 	 	 	 	 	 	 	1581489752	8.42	15.59
12/02/2020 06:42:33	120220	12022020	064233	187.74	13.030373	-57.088435	187.79	0.850	-1.400	1.960	187.63	-2.80	2.40	 	 	 	 	 	 	 	 	 	 	 	 	 	 	 	 	 	 	1581489753	8.65	16.02
12/02/2020 06:42:34	120220	12022020	064234	187.24	13.030335	-57.088443	187.37	0.490	-0.780	2.480	187.16	-2.30	2.90	 	 	 	 	 	 	 	 	 	 	 	 	 	 	 	 	 	 	1581489754	8.33	15.43
12/02/2020 06:42:35	120220	12022020	064235	187.03	13.030302	-57.088452	187.24	-0.080	0.280	2.630	187.03	-1.20	3.10	 	 	 	 	 	 	 	 	 	 	 	 	 	 	 	 	 	 	1581489755	7.63	14.13
12/02/2020 06:42:36	120220	12022020	064236	187.18	13.030268	-57.088462	187.50	-0.560	1.040	2.480	187.25	-0.40	3.00	 	 	 	 	 	 	 	 	 	 	 	 	 	 	 	 	 	 	1581489756	7.17	13.28
12/02/2020 06:42:37	120220	12022020	064237	187.61	13.030237	-57.088472	187.95	-0.680	0.930	2.080	187.71	-0.40	2.60	 	 	 	 	 	 	 	 	 	 	 	 	 	 	 	 	 	 	1581489757	7.28	13.48
12/02/2020 06:42:38	120220	12022020	064238	187.99	13.030200	-57.088480	188.25	-0.350	-0.090	1.700	188.03	-1.30	2.20	 	 	 	 	 	 	 	 	 	 	 	 	 	 	 	 	 	 	1581489758	7.90	14.63
12/02/2020 06:42:39	120220	12022020	064239	188.02	13.030162	-57.088488	188.17	0.250	-1.350	1.540	187.97	-2.50	2.10	 	 	 	 	 	 	 	 	 	 	 	 	 	 	 	 	 	 	1581489759	8.73	16.17
12/02/2020 06:42:40	120220	12022020	064240	187.70	13.030118	-57.088495	187.80	0.670	-1.880	1.640	187.62	-3.20	2.10	 	 	 	 	 	 	 	 	 	 	 	 	 	 	 	 	 	 	1581489760	9.10	16.85
12/02/2020 06:42:41	120220	12022020	064241	187.33	13.030080	-57.088500	187.45	0.460	-1.370	1.890	187.28	-2.80	2.40	 	 	 	 	 	 	 	 	 	 	 	 	 	 	 	 	 	 	1581489761	8.65	16.02
12/02/2020 06:42:42	120220	12022020	064242	187.16	13.030043	-57.088507	187.30	-0.280	-0.340	2.240	187.14	-1.80	2.70	 	 	 	 	 	 	 	 	 	 	 	 	 	 	 	 	 	 	1581489762	7.78	14.41
12/02/2020 06:42:43	120220	12022020	064243	187.10	13.030010	-57.088515	187.28	-0.950	0.600	2.640	187.10	-0.90	3.10	 	 	 	 	 	 	 	 	 	 	 	 	 	 	 	 	 	 	1581489763	7.44	13.78
12/02/2020 06:42:44	120220	12022020	064244	187.09	13.029977	-57.088528	187.30	-0.920	1.010	2.780	187.10	-0.40	3.30	 	 	 	 	 	 	 	 	 	 	 	 	 	 	 	 	 	 	1581489764	7.68	14.22
12/02/2020 06:42:45	120220	12022020	064245	187.17	13.029942	-57.088540	187.41	-0.210	0.810	2.450	187.20	-0.50	3.00	 	 	 	 	 	 	 	 	 	 	 	 	 	 	 	 	 	 	1581489765	8.12	15.04
12/02/2020 06:42:46	120220	12022020	064246	187.45	13.029902	-57.088548	187.75	0.530	0.360	1.920	187.52	-0.90	2.50	 	 	 	 	 	 	 	 	 	 	 	 	 	 	 	 	 	 	1581489766	8.52	15.78
12/02/2020 06:42:47	120220	12022020	064247	187.89	13.029863	-57.088552	188.22	0.720	0.070	1.460	187.99	-1.30	2.00	 	 	 	 	 	 	 	 	 	 	 	 	 	 	 	 	 	 	1581489767	8.51	15.76
12/02/2020 06:42:48	120220	12022020	064248	188.35	13.029825	-57.088555	188.61	0.340	-0.100	1.260	188.41	-1.40	1.80	 	 	 	 	 	 	 	 	 	 	 	 	 	 	 	 	 	 	1581489768	8.00	14.82
12/02/2020 06:42:49	120220	12022020	064249	188.50	13.029792	-57.088560	188.64	-0.090	-0.530	1.690	188.48	-1.80	2.10	 	 	 	 	 	 	 	 	 	 	 	 	 	 	 	 	 	 	1581489769	7.52	13.93
12/02/2020 06:42:50	120220	12022020	064250	188.15	13.029757	-57.088568	188.17	-0.080	-1.260	2.540	188.03	-2.50	2.90	 	 	 	 	 	 	 	 	 	 	 	 	 	 	 	 	 	 	1581489770	7.77	14.39
12/02/2020 06:42:51	120220	12022020	064251	187.42	13.029718	-57.088582	187.40	0.320	-1.740	3.250	187.26	-3.00	3.70	 	 	 	 	 	 	 	 	 	 	 	 	 	 	 	 	 	 	1581489771	8.45	15.65
12/02/2020 06:42:52	120220	12022020	064252	186.70	13.029680	-57.088593	186.76	0.640	-1.530	3.380	186.59	-2.90	3.90	 	 	 	 	 	 	 	 	 	 	 	 	 	 	 	 	 	 	1581489772	8.61	15.95
12/02/2020 06:42:53	120220	12022020	064253	186.34	13.029643	-57.088602	186.54	0.480	-0.740	2.950	186.32	-2.20	3.50	 	 	 	 	 	 	 	 	 	 	 	 	 	 	 	 	 	 	1581489773	8.19	15.17
12/02/2020 06:42:54	120220	12022020	064254	186.43	13.029607	-57.088605	186.74	-0.180	0.210	2.300	186.49	-1.30	2.90	 	 	 	 	 	 	 	 	 	 	 	 	 	 	 	 	 	 	1581489774	7.82	14.48
12/02/2020 06:42:55	120220	12022020	064255	186.87	13.029572	-57.088610	187.25	-0.950	1.020	1.800	186.99	-0.40	2.40	 	 	 	 	 	 	 	 	 	 	 	 	 	 	 	 	 	 	1581489775	7.62	14.11
12/02/2020 06:42:56	120220	12022020	064256	187.54	13.029537	-57.088617	187.94	-1.370	1.410	1.610	187.68	0.00	2.10	 	 	 	 	 	 	 	 	 	 	 	 	 	 	 	 	 	 	1581489776	7.59	14.06
12/02/2020 06:42:57	120220	12022020	064257	188.12	13.029503	-57.088627	188.42	-1.120	0.990	1.710	188.19	-0.30	2.20	 	 	 	 	 	 	 	 	 	 	 	 	 	 	 	 	 	 	1581489777	7.72	14.30
12/02/2020 06:42:58	120220	12022020	064258	188.31	13.029465	-57.088638	188.49	-0.240	-0.100	1.740	188.31	-1.30	2.30	 	 	 	 	 	 	 	 	 	 	 	 	 	 	 	 	 	 	1581489778	8.33	15.43
12/02/2020 06:42:59	120220	12022020	064259	188.28	13.029425	-57.088650	188.44	0.780	-0.910	1.460	188.27	-2.20	2.00	 	 	 	 	 	 	 	 	 	 	 	 	 	 	 	 	 	 	1581489779	8.96	16.59
12/02/2020 06:43:00	120220	12022020	064300	188.26	13.029385	-57.088655	188.42	1.390	-0.810	0.880	188.26	-2.20	1.50	 	 	 	 	 	 	 	 	 	 	 	 	 	 	 	 	 	 	1581489780	8.63	15.98
12/02/2020 06:43:01	120220	12022020	064301	188.25	13.029350	-57.088655	188.40	1.340	-0.400	0.290	188.26	-1.80	0.90	1015.20	26.30	26.30	20.10	20.20	-1.0	69.0	69.0	407.0	25.8	269.00	10.10	74.00	11.00	16	9651.0	27.3	27.2	1581489781	7.68	14.22
12/02/2020 06:43:02	120220	12022020	064302	188.25	13.029317	-57.088653	188.37	0.680	-0.390	0.420	188.21	-1.70	0.90	 	 	 	 	 	 	 	 	 	 	 	 	 	 	 	 	 	 	1581489782	7.36	13.63
12/02/2020 06:43:03	120220	12022020	064303	187.88	13.029280	-57.088657	187.86	-0.150	-0.930	1.750	187.74	-2.20	2.00	 	 	 	 	 	 	 	 	 	 	 	 	 	 	 	 	 	 	1581489783	7.62	14.11
12/02/2020 06:43:04	120220	12022020	064304	186.94	13.029243	-57.088670	186.87	-0.710	-1.520	3.540	186.72	-2.80	3.80	 	 	 	 	 	 	 	 	 	 	 	 	 	 	 	 	 	 	1581489784	8.55	15.83
12/02/2020 06:43:05	120220	12022020	064305	186.00	13.029203	-57.088688	186.10	-0.910	-1.290	4.700	185.88	-2.70	5.10	 	 	 	 	 	 	 	 	 	 	 	 	 	 	 	 	 	 	1581489785	9.41	17.43
12/02/2020 06:43:06	120220	12022020	064306	185.74	13.029167	-57.088708	186.09	-0.900	-0.110	4.810	185.79	-1.60	5.40	 	 	 	 	 	 	 	 	 	 	 	 	 	 	 	 	 	 	1581489786	8.98	16.63
12/02/2020 06:43:07	120220	12022020	064307	186.35	13.029133	-57.088723	186.89	-0.730	1.220	3.690	186.55	-0.30	4.40	 	 	 	 	 	 	 	 	 	 	 	 	 	 	 	 	 	 	1581489787	7.72	14.30
12/02/2020 06:43:08	120220	12022020	064308	187.40	13.029102	-57.088728	187.88	-0.400	1.530	1.940	187.58	0.20	2.70	 	 	 	 	 	 	 	 	 	 	 	 	 	 	 	 	 	 	1581489788	6.92	12.82
12/02/2020 06:43:09	120220	12022020	064309	188.11	13.029067	-57.088730	188.39	0.160	0.530	0.710	188.18	-0.60	1.40	 	 	 	 	 	 	 	 	 	 	 	 	 	 	 	 	 	 	1581489789	7.57	14.02
12/02/2020 06:43:10	120220	12022020	064310	188.24	13.029025	-57.088730	188.37	0.770	-0.770	0.340	188.21	-2.00	0.90	 	 	 	 	 	 	 	 	 	 	 	 	 	 	 	 	 	 	1581489790	8.79	16.28
12/02/2020 06:43:11	120220	12022020	064311	187.99	13.028983	-57.088733	188.09	1.020	-1.200	0.520	187.93	-2.50	1.00	 	 	 	 	 	 	 	 	 	 	 	 	 	 	 	 	 	 	1581489791	9.09	16.83
12/02/2020 06:43:12	120220	12022020	064312	187.69	13.028945	-57.088737	187.82	0.670	-0.770	1.070	187.65	-2.20	1.50	 	 	 	 	 	 	 	 	 	 	 	 	 	 	 	 	 	 	1581489792	8.22	15.22
12/02/2020 06:43:13	120220	12022020	064313	187.55	13.028912	-57.088743	187.74	-0.070	-0.130	1.690	187.54	-1.50	2.10	 	 	 	 	 	 	 	 	 	 	 	 	 	 	 	 	 	 	1581489793	7.34	13.59
12/02/2020 06:43:14	120220	12022020	064314	187.54	13.028880	-57.088752	187.76	-0.670	0.170	2.290	187.55	-1.20	2.70	 	 	 	 	 	 	 	 	 	 	 	 	 	 	 	 	 	 	1581489794	7.17	13.28
12/02/2020 06:43:15	120220	12022020	064315	187.56	13.028847	-57.088765	187.76	-0.720	-0.090	2.660	187.55	-1.40	3.10	 	 	 	 	 	 	 	 	 	 	 	 	 	 	 	 	 	 	1581489795	7.66	14.19
12/02/2020 06:43:16	120220	12022020	064316	187.52	13.028810	-57.088778	187.70	-0.220	-0.610	2.610	187.50	-1.90	3.10	 	 	 	 	 	 	 	 	 	 	 	 	 	 	 	 	 	 	1581489796	8.29	15.35
12/02/2020 06:43:17	120220	12022020	064317	187.40	13.028772	-57.088790	187.56	0.420	-0.920	2.240	187.37	-2.20	2.80	 	 	 	 	 	 	 	 	 	 	 	 	 	 	 	 	 	 	1581489797	8.59	15.91
12/02/2020 06:43:18	120220	12022020	064318	187.28	13.028733	-57.088797	187.47	0.720	-0.680	1.670	187.27	-2.10	2.30	 	 	 	 	 	 	 	 	 	 	 	 	 	 	 	 	 	 	1581489798	8.45	15.65
12/02/2020 06:43:19	120220	12022020	064319	187.32	13.028697	-57.088798	187.55	0.510	-0.030	1.180	187.35	-1.50	1.80	 	 	 	 	 	 	 	 	 	 	 	 	 	 	 	 	 	 	1581489799	7.98	14.78
12/02/2020 06:43:20	120220	12022020	064320	187.44	13.028662	-57.088800	187.67	0.010	0.440	1.190	187.47	-0.90	1.70	 	 	 	 	 	 	 	 	 	 	 	 	 	 	 	 	 	 	1581489800	7.48	13.85
12/02/2020 06:43:21	120220	12022020	064321	187.53	13.028627	-57.088805	187.76	-0.460	0.380	1.610	187.55	-0.90	2.10	 	 	 	 	 	 	 	 	 	 	 	 	 	 	 	 	 	 	1581489801	7.55	13.98
12/02/2020 06:43:22	120220	12022020	064322	187.61	13.028590	-57.088813	187.89	-0.690	0.060	2.130	187.64	-1.20	2.60	 	 	 	 	 	 	 	 	 	 	 	 	 	 	 	 	 	 	1581489802	8.11	15.02
12/02/2020 06:43:23	120220	12022020	064323	187.70	13.028553	-57.088827	187.93	-0.590	-0.240	2.640	187.70	-1.50	3.10	 	 	 	 	 	 	 	 	 	 	 	 	 	 	 	 	 	 	1581489803	8.39	15.54
12/02/2020 06:43:24	120220	12022020	064324	187.58	13.028517	-57.088840	187.74	-0.120	-0.510	2.820	187.52	-1.80	3.30	 	 	 	 	 	 	 	 	 	 	 	 	 	 	 	 	 	 	1581489804	8.31	15.39
12/02/2020 06:43:25	120220	12022020	064325	187.27	13.028480	-57.088852	187.41	0.480	-0.650	2.530	187.21	-2.00	3.10	 	 	 	 	 	 	 	 	 	 	 	 	 	 	 	 	 	 	1581489805	8.17	15.13
12/02/2020 06:43:26	120220	12022020	064326	186.99	13.028443	-57.088857	187.15	0.770	-0.580	2.050	186.95	-1.90	2.60	 	 	 	 	 	 	 	 	 	 	 	 	 	 	 	 	 	 	1581489806	8.05	14.91
12/02/2020 06:43:27	120220	12022020	064327	186.82	13.028407	-57.088860	187.04	0.580	-0.470	1.630	186.81	-1.80	2.20	 	 	 	 	 	 	 	 	 	 	 	 	 	 	 	 	 	 	1581489807	7.90	14.63
12/02/2020 06:43:28	120220	12022020	064328	186.95	13.028370	-57.088862	187.26	0.090	-0.290	1.310	187.02	-1.60	1.90	 	 	 	 	 	 	 	 	 	 	 	 	 	 	 	 	 	 	1581489808	7.93	14.69
12/02/2020 06:43:29	120220	12022020	064329	187.36	13.028333	-57.088867	187.68	-0.370	-0.150	1.310	187.45	-1.50	1.80	 	 	 	 	 	 	 	 	 	 	 	 	 	 	 	 	 	 	1581489809	7.85	14.54
12/02/2020 06:43:30	120220	12022020	064330	187.70	13.028298	-57.088875	187.93	-0.460	-0.240	1.650	187.72	-1.50	2.10	 	 	 	 	 	 	 	 	 	 	 	 	 	 	 	 	 	 	1581489810	7.90	14.63
12/02/2020 06:43:31	120220	12022020	064331	187.69	13.028260	-57.088885	187.86	-0.160	-0.470	2.070	187.66	-1.80	2.50	 	 	 	 	 	 	 	 	 	 	 	 	 	 	 	 	 	 	1581489811	8.26	15.30
12/02/2020 06:43:32	120220	12022020	064332	187.57	13.028222	-57.088895	187.76	0.140	-0.260	2.290	187.55	-1.70	2.80	 	 	 	 	 	 	 	 	 	 	 	 	 	 	 	 	 	 	1581489812	8.54	15.82
12/02/2020 06:43:33	120220	12022020	064333	187.56	13.028185	-57.088903	187.82	0.160	0.440	2.180	187.58	-1.00	2.70	 	 	 	 	 	 	 	 	 	 	 	 	 	 	 	 	 	 	1581489813	8.09	14.98
12/02/2020 06:43:34	120220	12022020	064334	187.65	13.028152	-57.088908	187.87	-0.020	0.820	1.870	187.65	-0.50	2.40	 	 	 	 	 	 	 	 	 	 	 	 	 	 	 	 	 	 	1581489814	7.32	13.56
12/02/2020 06:43:35	120220	12022020	064335	187.52	13.028118	-57.088912	187.63	-0.130	0.180	1.850	187.46	-1.00	2.30	 	 	 	 	 	 	 	 	 	 	 	 	 	 	 	 	 	 	1581489815	7.41	13.72
12/02/2020 06:43:36	120220	12022020	064336	187.09	13.028080	-57.088920	187.15	-0.070	-0.920	2.270	186.99	-2.10	2.70	 	 	 	 	 	 	 	 	 	 	 	 	 	 	 	 	 	 	1581489816	8.40	15.56
12/02/2020 06:43:37	120220	12022020	064337	186.54	13.028038	-57.088930	186.61	0.100	-1.480	2.700	186.43	-2.80	3.20	 	 	 	 	 	 	 	 	 	 	 	 	 	 	 	 	 	 	1581489817	9.06	16.78
12/02/2020 06:43:38	120220	12022020	064338	186.08	13.028000	-57.088942	186.22	0.260	-1.170	2.750	186.02	-2.60	3.30	 	 	 	 	 	 	 	 	 	 	 	 	 	 	 	 	 	 	1581489818	8.72	16.15
12/02/2020 06:43:39	120220	12022020	064339	186.03	13.027963	-57.088952	186.34	0.280	-0.260	2.180	186.10	-1.70	2.80	 	 	 	 	 	 	 	 	 	 	 	 	 	 	 	 	 	 	1581489819	7.96	14.74
12/02/2020 06:43:40	120220	12022020	064340	186.65	13.027930	-57.088957	187.13	0.160	0.680	1.110	186.84	-0.70	1.80	 	 	 	 	 	 	 	 	 	 	 	 	 	 	 	 	 	 	1581489820	7.30	13.52
12/02/2020 06:43:41	120220	12022020	064341	187.64	13.027897	-57.088958	188.09	0.010	0.940	0.140	187.83	-0.40	0.80	 	 	 	 	 	 	 	 	 	 	 	 	 	 	 	 	 	 	1581489821	7.07	13.09
12/02/2020 06:43:42	120220	12022020	064342	188.35	13.027862	-57.088958	188.60	0.000	0.030	-0.010	188.40	-1.10	0.50	 	 	 	 	 	 	 	 	 	 	 	 	 	 	 	 	 	 	1581489822	7.56	14.00
12/02/2020 06:43:43	120220	12022020	064343	188.26	13.027822	-57.088962	188.30	0.110	-1.510	0.880	188.14	-2.60	1.20	 	 	 	 	 	 	 	 	 	 	 	 	 	 	 	 	 	 	1581489823	8.60	15.93
12/02/2020 06:43:44	120220	12022020	064344	187.36	13.027778	-57.088972	187.27	0.090	-2.370	2.440	187.11	-3.70	2.70	 	 	 	 	 	 	 	 	 	 	 	 	 	 	 	 	 	 	1581489824	9.51	17.61
12/02/2020 06:43:45	120220	12022020	064345	186.29	13.027737	-57.088985	186.39	-0.260	-1.620	3.730	186.14	-3.10	4.10	 	 	 	 	 	 	 	 	 	 	 	 	 	 	 	 	 	 	1581489825	9.43	17.46
12/02/2020 06:43:46	120220	12022020	064346	185.99	13.027702	-57.088998	186.35	-0.800	0.410	4.090	186.05	-1.20	4.60	 	 	 	 	 	 	 	 	 	 	 	 	 	 	 	 	 	 	1581489826	8.33	15.43
12/02/2020 06:43:47	120220	12022020	064347	186.57	13.027672	-57.089012	187.04	-1.060	2.190	3.470	186.72	0.70	4.10	 	 	 	 	 	 	 	 	 	 	 	 	 	 	 	 	 	 	1581489827	6.91	12.80
12/02/2020 06:43:48	120220	12022020	064348	187.38	13.027643	-57.089022	187.78	-0.640	2.240	2.150	187.52	1.00	2.90	 	 	 	 	 	 	 	 	 	 	 	 	 	 	 	 	 	 	1581489828	6.54	12.11
12/02/2020 06:43:49	120220	12022020	064349	187.95	13.027607	-57.089027	188.21	0.330	0.640	0.940	188.02	-0.40	1.60	 	 	 	 	 	 	 	 	 	 	 	 	 	 	 	 	 	 	1581489829	7.84	14.52
12/02/2020 06:43:50	120220	12022020	064350	188.14	13.027563	-57.089028	188.31	1.150	-1.150	0.410	188.13	-2.30	1.00	 	 	 	 	 	 	 	 	 	 	 	 	 	 	 	 	 	 	1581489830	9.41	17.43
12/02/2020 06:43:51	120220	12022020	064351	188.04	13.027518	-57.089030	188.18	1.260	-1.850	0.400	188.01	-3.20	0.90	 	 	 	 	 	 	 	 	 	 	 	 	 	 	 	 	 	 	1581489831	9.47	17.54
12/02/2020 06:43:52	120220	12022020	064352	187.94	13.027480	-57.089035	188.11	0.640	-1.460	0.750	187.93	-2.90	1.20	 	 	 	 	 	 	 	 	 	 	 	 	 	 	 	 	 	 	1581489832	8.30	15.37
12/02/2020 06:43:53	120220	12022020	064353	187.86	13.027448	-57.089042	187.99	-0.140	-0.760	1.360	187.83	-2.20	1.80	 	 	 	 	 	 	 	 	 	 	 	 	 	 	 	 	 	 	1581489833	7.27	13.46
12/02/2020 06:43:54	120220	12022020	064354	187.67	13.027415	-57.089053	187.81	-0.550	-0.270	2.090	187.64	-1.60	2.50	 	 	 	 	 	 	 	 	 	 	 	 	 	 	 	 	 	 	1581489834	7.24	13.41
12/02/2020 06:43:55	120220	12022020	064355	187.61	13.027382	-57.089067	187.87	-0.540	0.050	2.450	187.64	-1.30	2.90	 	 	 	 	 	 	 	 	 	 	 	 	 	 	 	 	 	 	1581489835	7.84	14.52
12/02/2020 06:43:56	120220	12022020	064356	187.81	13.027345	-57.089078	188.09	-0.360	0.230	2.380	187.86	-1.10	2.90	 	 	 	 	 	 	 	 	 	 	 	 	 	 	 	 	 	 	1581489836	8.11	15.02
12/02/2020 06:43:57	120220	12022020	064357	188.00	13.027308	-57.089087	188.23	-0.190	0.040	2.230	188.02	-1.20	2.80	 	 	 	 	 	 	 	 	 	 	 	 	 	 	 	 	 	 	1581489837	8.11	15.02
12/02/2020 06:43:58	120220	12022020	064358	187.94	13.027270	-57.089095	188.07	0.000	-0.480	2.230	187.89	-1.70	2.70	 	 	 	 	 	 	 	 	 	 	 	 	 	 	 	 	 	 	1581489838	8.44	15.63
12/02/2020 06:43:59	120220	12022020	064359	187.58	13.027230	-57.089102	187.66	0.210	-0.790	2.330	187.48	-2.10	2.80	 	 	 	 	 	 	 	 	 	 	 	 	 	 	 	 	 	 	1581489839	8.84	16.37
12/02/2020 06:44:00	120220	12022020	064400	187.21	13.027190	-57.089108	187.42	0.110	-0.380	2.330	187.20	-1.80	2.90	 	 	 	 	 	 	 	 	 	 	 	 	 	 	 	 	 	 	1581489840	8.76	16.22
12/02/2020 06:44:01	120220	12022020	064401	187.35	13.027153	-57.089113	187.69	-0.380	0.620	2.230	187.43	-0.90	2.80	1015.10	26.30	26.30	20.50	20.50	-1.0	70.0	70.0	410.0	25.9	270.00	9.90	75.00	10.80	17	9172.0	27.3	27.2	1581489841	8.00	14.82
12/02/2020 06:44:02	120220	12022020	064402	187.86	13.027122	-57.089123	188.22	-0.770	1.380	1.990	187.97	-0.00	2.60	 	 	 	 	 	 	 	 	 	 	 	 	 	 	 	 	 	 	1581489842	7.10	13.15
12/02/2020 06:44:03	120220	12022020	064403	188.33	13.027090	-57.089133	188.60	-0.390	0.980	1.510	188.39	-0.20	2.10	 	 	 	 	 	 	 	 	 	 	 	 	 	 	 	 	 	 	1581489843	6.98	12.93
12/02/2020 06:44:04	120220	12022020	064404	188.47	13.027055	-57.089142	188.65	0.700	-0.540	1.140	188.46	-1.60	1.70	 	 	 	 	 	 	 	 	 	 	 	 	 	 	 	 	 	 	1581489844	7.88	14.59
12/02/2020 06:44:05	120220	12022020	064405	188.28	13.027012	-57.089145	188.41	1.500	-1.970	1.310	188.22	-3.20	1.80	 	 	 	 	 	 	 	 	 	 	 	 	 	 	 	 	 	 	1581489845	9.17	16.98
12/02/2020 06:44:06	120220	12022020	064406	187.97	13.026970	-57.089152	188.07	1.230	-2.110	2.050	187.89	-3.50	2.50	 	 	 	 	 	 	 	 	 	 	 	 	 	 	 	 	 	 	1581489846	9.31	17.24
12/02/2020 06:44:07	120220	12022020	064407	187.63	13.026932	-57.089160	187.75	0.100	-1.020	2.880	187.57	-2.50	3.30	 	 	 	 	 	 	 	 	 	 	 	 	 	 	 	 	 	 	1581489847	8.22	15.22
12/02/2020 06:44:08	120220	12022020	064408	187.40	13.026900	-57.089172	187.61	-1.060	0.350	3.320	187.38	-1.10	3.80	 	 	 	 	 	 	 	 	 	 	 	 	 	 	 	 	 	 	1581489848	7.23	13.39
12/02/2020 06:44:09	120220	12022020	064409	187.47	13.026870	-57.089185	187.74	-1.550	1.010	3.290	187.50	-0.30	3.80	 	 	 	 	 	 	 	 	 	 	 	 	 	 	 	 	 	 	1581489849	7.16	13.26
12/02/2020 06:44:10	120220	12022020	064410	187.64	13.026837	-57.089198	187.95	-1.090	0.740	2.910	187.68	-0.50	3.50	 	 	 	 	 	 	 	 	 	 	 	 	 	 	 	 	 	 	1581489850	7.86	14.56
12/02/2020 06:44:11	120220	12022020	064411	187.85	13.026798	-57.089212	188.09	-0.030	0.130	2.120	187.88	-1.10	2.80	 	 	 	 	 	 	 	 	 	 	 	 	 	 	 	 	 	 	1581489851	8.63	15.98
12/02/2020 06:44:12	120220	12022020	064412	187.97	13.026757	-57.089217	188.27	0.890	-0.210	1.160	188.02	-1.50	1.80	 	 	 	 	 	 	 	 	 	 	 	 	 	 	 	 	 	 	1581489852	8.82	16.33
12/02/2020 06:44:13	120220	12022020	064413	188.30	13.026718	-57.089218	188.58	1.100	-0.190	0.400	188.37	-1.50	1.00	 	 	 	 	 	 	 	 	 	 	 	 	 	 	 	 	 	 	1581489853	8.45	15.65
12/02/2020 06:44:14	120220	12022020	064414	188.65	13.026682	-57.089217	188.90	0.600	-0.180	0.290	188.71	-1.50	0.80	 	 	 	 	 	 	 	 	 	 	 	 	 	 	 	 	 	 	1581489854	7.84	14.52
12/02/2020 06:44:15	120220	12022020	064415	188.76	13.026647	-57.089220	188.91	-0.100	-0.430	1.040	188.73	-1.70	1.40	 	 	 	 	 	 	 	 	 	 	 	 	 	 	 	 	 	 	1581489855	7.53	13.95
12/02/2020 06:44:16	120220	12022020	064416	188.44	13.026612	-57.089232	188.52	-0.420	-0.830	2.250	188.33	-2.10	2.60	 	 	 	 	 	 	 	 	 	 	 	 	 	 	 	 	 	 	1581489856	7.87	14.58
12/02/2020 06:44:17	120220	12022020	064417	187.82	13.026575	-57.089248	187.89	-0.220	-1.110	3.310	187.68	-2.40	3.70	 	 	 	 	 	 	 	 	 	 	 	 	 	 	 	 	 	 	1581489857	8.45	15.65
12/02/2020 06:44:18	120220	12022020	064418	187.21	13.026538	-57.089263	187.35	0.150	-1.000	3.700	187.12	-2.40	4.20	 	 	 	 	 	 	 	 	 	 	 	 	 	 	 	 	 	 	1581489858	8.61	15.95
12/02/2020 06:44:19	120220	12022020	064419	186.91	13.026502	-57.089275	187.13	0.200	-0.460	3.490	186.88	-1.90	4.00	 	 	 	 	 	 	 	 	 	 	 	 	 	 	 	 	 	 	1581489859	8.28	15.33
12/02/2020 06:44:20	120220	12022020	064420	186.90	13.026465	-57.089282	187.19	-0.180	0.220	2.850	186.92	-1.20	3.50	 	 	 	 	 	 	 	 	 	 	 	 	 	 	 	 	 	 	1581489860	7.82	14.48
12/02/2020 06:44:21	120220	12022020	064421	187.08	13.026430	-57.089285	187.41	-0.700	0.650	2.070	187.14	-0.70	2.70	 	 	 	 	 	 	 	 	 	 	 	 	 	 	 	 	 	 	1581489861	7.58	14.04
12/02/2020 06:44:22	120220	12022020	064422	187.35	13.026395	-57.089288	187.77	-0.920	0.610	1.440	187.42	-0.70	2.10	 	 	 	 	 	 	 	 	 	 	 	 	 	 	 	 	 	 	1581489862	7.71	14.28
12/02/2020 06:44:23	120220	12022020	064423	187.88	13.026358	-57.089297	188.19	-0.510	0.230	0.920	187.96	-1.00	1.50	 	 	 	 	 	 	 	 	 	 	 	 	 	 	 	 	 	 	1581489863	8.05	14.91
12/02/2020 06:44:24	120220	12022020	064424	188.18	13.026322	-57.089305	188.38	0.420	-0.300	0.520	188.20	-1.60	1.10	 	 	 	 	 	 	 	 	 	 	 	 	 	 	 	 	 	 	1581489864	8.26	15.30
12/02/2020 06:44:25	120220	12022020	064425	188.11	13.026283	-57.089312	188.23	1.270	-0.680	0.500	188.06	-2.00	1.00	 	 	 	 	 	 	 	 	 	 	 	 	 	 	 	 	 	 	1581489865	8.31	15.39
12/02/2020 06:44:26	120220	12022020	064426	187.80	13.026245	-57.089317	187.92	1.370	-0.640	0.900	187.74	-2.00	1.40	 	 	 	 	 	 	 	 	 	 	 	 	 	 	 	 	 	 	1581489866	8.22	15.22
12/02/2020 06:44:27	120220	12022020	064427	187.57	13.026208	-57.089320	187.84	0.550	-0.180	1.540	187.59	-1.60	2.00	 	 	 	 	 	 	 	 	 	 	 	 	 	 	 	 	 	 	1581489867	7.83	14.50
12/02/2020 06:44:28	120220	12022020	064428	187.90	13.026175	-57.089327	188.32	-0.730	0.350	2.240	188.02	-1.00	2.70	 	 	 	 	 	 	 	 	 	 	 	 	 	 	 	 	 	 	1581489868	7.36	13.63
12/02/2020 06:44:29	120220	12022020	064429	188.46	13.026143	-57.089340	188.83	-1.560	0.270	2.950	188.54	-1.00	3.40	 	 	 	 	 	 	 	 	 	 	 	 	 	 	 	 	 	 	1581489869	7.29	13.50
12/02/2020 06:44:30	120220	12022020	064430	188.61	13.026112	-57.089358	188.80	-1.230	-0.700	3.510	188.56	-1.90	4.00	 	 	 	 	 	 	 	 	 	 	 	 	 	 	 	 	 	 	1581489870	8.09	14.98
12/02/2020 06:44:31	120220	12022020	064431	188.16	13.026073	-57.089377	188.23	0.040	-1.730	3.590	188.02	-3.00	4.10	 	 	 	 	 	 	 	 	 	 	 	 	 	 	 	 	 	 	1581489871	9.12	16.89
12/02/2020 06:44:32	120220	12022020	064432	187.48	13.026032	-57.089390	187.60	1.180	-1.600	3.030	187.38	-3.00	3.70	 	 	 	 	 	 	 	 	 	 	 	 	 	 	 	 	 	 	1581489872	9.34	17.30
12/02/2020 06:44:33	120220	12022020	064433	187.19	13.025992	-57.089393	187.45	1.310	-0.270	1.930	187.21	-1.80	2.60	 	 	 	 	 	 	 	 	 	 	 	 	 	 	 	 	 	 	1581489873	8.35	15.46
12/02/2020 06:44:34	120220	12022020	064434	187.51	13.025958	-57.089388	187.85	0.490	1.030	0.790	187.61	-0.40	1.50	 	 	 	 	 	 	 	 	 	 	 	 	 	 	 	 	 	 	1581489874	7.21	13.35
12/02/2020 06:44:35	120220	12022020	064435	187.89	13.025927	-57.089387	188.10	-0.450	1.030	0.530	187.91	-0.20	1.10	 	 	 	 	 	 	 	 	 	 	 	 	 	 	 	 	 	 	1581489875	6.92	12.82
12/02/2020 06:44:36	120220	12022020	064436	187.81	13.025890	-57.089390	187.96	-0.810	-0.020	1.200	187.76	-1.20	1.60	 	 	 	 	 	 	 	 	 	 	 	 	 	 	 	 	 	 	1581489876	7.93	14.69
12/02/2020 06:44:37	120220	12022020	064437	187.65	13.025848	-57.089403	187.87	-0.700	-0.580	2.090	187.64	-1.90	2.50	 	 	 	 	 	 	 	 	 	 	 	 	 	 	 	 	 	 	1581489877	9.23	17.09
12/02/2020 06:44:38	120220	12022020	064438	187.60	13.025812	-57.089418	187.85	-0.470	-0.190	2.810	187.59	-1.60	3.30	 	 	 	 	 	 	 	 	 	 	 	 	 	 	 	 	 	 	1581489878	8.88	16.45
12/02/2020 06:44:39	120220	12022020	064439	187.47	13.025778	-57.089435	187.67	-0.220	0.250	2.990	187.42	-1.10	3.50	 	 	 	 	 	 	 	 	 	 	 	 	 	 	 	 	 	 	1581489879	7.74	14.33
12/02/2020 06:44:40	120220	12022020	064440	187.27	13.025747	-57.089445	187.48	0.090	0.100	2.550	187.25	-1.20	3.20	 	 	 	 	 	 	 	 	 	 	 	 	 	 	 	 	 	 	1581489880	7.34	13.59
12/02/2020 06:44:41	120220	12022020	064441	187.18	13.025710	-57.089452	187.41	0.420	-0.480	1.950	187.18	-1.70	2.60	 	 	 	 	 	 	 	 	 	 	 	 	 	 	 	 	 	 	1581489881	7.80	14.45
12/02/2020 06:44:42	120220	12022020	064442	187.15	13.025672	-57.089458	187.37	0.750	-0.900	1.250	187.14	-2.20	1.90	 	 	 	 	 	 	 	 	 	 	 	 	 	 	 	 	 	 	1581489882	8.21	15.20
12/02/2020 06:44:43	120220	12022020	064443	187.13	13.025635	-57.089462	187.33	1.020	-0.930	0.520	187.13	-2.30	1.10	 	 	 	 	 	 	 	 	 	 	 	 	 	 	 	 	 	 	1581489883	8.12	15.04
12/02/2020 06:44:44	120220	12022020	064444	187.13	13.025598	-57.089462	187.35	0.960	-0.710	0.270	187.14	-2.10	0.80	 	 	 	 	 	 	 	 	 	 	 	 	 	 	 	 	 	 	1581489884	7.87	14.58
12/02/2020 06:44:45	120220	12022020	064445	187.22	13.025562	-57.089462	187.50	0.320	-0.460	0.820	187.25	-1.80	1.30	 	 	 	 	 	 	 	 	 	 	 	 	 	 	 	 	 	 	1581489885	7.77	14.39
12/02/2020 06:44:46	120220	12022020	064446	187.33	13.025527	-57.089468	187.63	-0.640	-0.260	1.870	187.36	-1.60	2.30	 	 	 	 	 	 	 	 	 	 	 	 	 	 	 	 	 	 	1581489886	7.75	14.35
12/02/2020 06:44:47	120220	12022020	064447	187.29	13.025492	-57.089482	187.48	-1.250	-0.200	3.090	187.24	-1.50	3.50	 	 	 	 	 	 	 	 	 	 	 	 	 	 	 	 	 	 	1581489887	8.07	14.95
12/02/2020 06:44:48	120220	12022020	064448	187.02	13.025457	-57.089500	187.11	-1.050	-0.270	4.010	186.94	-1.60	4.40	 	 	 	 	 	 	 	 	 	 	 	 	 	 	 	 	 	 	1581489888	8.57	15.87
12/02/2020 06:44:49	120220	12022020	064449	186.52	13.025418	-57.089517	186.74	-0.330	-0.250	4.190	186.46	-1.60	4.70	 	 	 	 	 	 	 	 	 	 	 	 	 	 	 	 	 	 	1581489889	8.81	16.32
12/02/2020 06:44:50	120220	12022020	064450	186.40	13.025380	-57.089527	186.71	0.140	0.100	3.640	186.42	-1.30	4.30	 	 	 	 	 	 	 	 	 	 	 	 	 	 	 	 	 	 	1581489890	8.57	15.87
12/02/2020 06:44:51	120220	12022020	064451	186.68	13.025343	-57.089533	187.03	0.030	0.670	2.630	186.76	-0.70	3.30	 	 	 	 	 	 	 	 	 	 	 	 	 	 	 	 	 	 	1581489891	7.93	14.69
12/02/2020 06:44:52	120220	12022020	064452	187.09	13.025310	-57.089537	187.41	-0.260	0.970	1.630	187.16	-0.40	2.30	 	 	 	 	 	 	 	 	 	 	 	 	 	 	 	 	 	 	1581489892	7.29	13.50
12/02/2020 06:44:53	120220	12022020	064453	187.40	13.025277	-57.089540	187.67	-0.140	0.570	0.940	187.44	-0.70	1.60	 	 	 	 	 	 	 	 	 	 	 	 	 	 	 	 	 	 	1581489893	7.18	13.30
12/02/2020 06:44:54	120220	12022020	064454	187.54	13.025242	-57.089545	187.73	0.610	-0.420	0.510	187.53	-1.60	1.10	 	 	 	 	 	 	 	 	 	 	 	 	 	 	 	 	 	 	1581489894	7.70	14.26
12/02/2020 06:44:55	120220	12022020	064455	187.41	13.025203	-57.089550	187.54	1.440	-1.280	0.480	187.35	-2.50	1.00	 	 	 	 	 	 	 	 	 	 	 	 	 	 	 	 	 	 	1581489895	8.32	15.41
12/02/2020 06:44:56	120220	12022020	064456	187.10	13.025163	-57.089553	187.25	1.570	-1.460	0.950	187.04	-2.80	1.40	 	 	 	 	 	 	 	 	 	 	 	 	 	 	 	 	 	 	1581489896	8.39	15.54
12/02/2020 06:44:57	120220	12022020	064457	186.88	13.025127	-57.089557	187.17	0.680	-0.930	1.700	186.89	-2.40	2.10	 	 	 	 	 	 	 	 	 	 	 	 	 	 	 	 	 	 	1581489897	7.90	14.63
12/02/2020 06:44:58	120220	12022020	064458	187.04	13.025093	-57.089563	187.39	-0.730	-0.160	2.810	187.09	-1.60	3.20	 	 	 	 	 	 	 	 	 	 	 	 	 	 	 	 	 	 	1581489898	7.35	13.61
12/02/2020 06:44:59	120220	12022020	064459	187.18	13.025063	-57.089580	187.45	-1.620	0.120	4.060	187.16	-1.20	4.50	 	 	 	 	 	 	 	 	 	 	 	 	 	 	 	 	 	 	1581489899	7.48	13.85
12/02/2020 06:45:00	120220	12022020	064500	187.02	13.025030	-57.089602	187.16	-1.300	-0.240	4.660	186.96	-1.50	5.20	 	 	 	 	 	 	 	 	 	 	 	 	 	 	 	 	 	 	1581489900	8.47	15.69
12/02/2020 06:45:01	120220	12022020	064501	186.70	13.024992	-57.089620	186.98	-0.270	-0.520	4.270	186.69	-1.80	4.90	1015.10	26.20	26.30	20.50	20.50	-1.0	70.0	70.0	412.0	25.9	278.00	10.70	83.00	11.00	17	10256.0	27.2	27.2	1581489901	8.99	16.65
12/02/2020 06:45:02	120220	12022020	064502	186.81	13.024953	-57.089628	187.15	0.440	-0.280	3.230	186.86	-1.70	3.90	 	 	 	 	 	 	 	 	 	 	 	 	 	 	 	 	 	 	1581489902	8.65	16.02
12/02/2020 06:45:03	120220	12022020	064503	187.11	13.024917	-57.089632	187.41	0.400	0.110	2.040	187.16	-1.30	2.80	 	 	 	 	 	 	 	 	 	 	 	 	 	 	 	 	 	 	1581489903	7.93	14.69
12/02/2020 06:45:04	120220	12022020	064504	187.27	13.024880	-57.089632	187.47	-0.020	0.200	1.220	187.27	-1.10	1.90	 	 	 	 	 	 	 	 	 	 	 	 	 	 	 	 	 	 	1581489904	7.56	14.00
12/02/2020 06:45:05	120220	12022020	064505	187.16	13.024845	-57.089633	187.30	-0.230	-0.040	1.050	187.12	-1.30	1.60	 	 	 	 	 	 	 	 	 	 	 	 	 	 	 	 	 	 	1581489905	7.74	14.33
12/02/2020 06:45:06	120220	12022020	064506	186.90	13.024807	-57.089637	187.02	-0.090	-0.290	1.260	186.84	-1.60	1.80	 	 	 	 	 	 	 	 	 	 	 	 	 	 	 	 	 	 	1581489906	8.10	15.00
12/02/2020 06:45:07	120220	12022020	064507	186.61	13.024770	-57.089645	186.77	0.130	-0.260	1.610	186.57	-1.60	2.10	 	 	 	 	 	 	 	 	 	 	 	 	 	 	 	 	 	 	1581489907	8.19	15.17
12/02/2020 06:45:08	120220	12022020	064508	186.48	13.024733	-57.089653	186.72	0.180	0.040	1.890	186.50	-1.30	2.40	 	 	 	 	 	 	 	 	 	 	 	 	 	 	 	 	 	 	1581489908	7.94	14.70
12/02/2020 06:45:09	120220	12022020	064509	186.68	13.024700	-57.089662	187.00	0.100	0.270	1.880	186.75	-1.10	2.50	 	 	 	 	 	 	 	 	 	 	 	 	 	 	 	 	 	 	1581489909	7.55	13.98
12/02/2020 06:45:10	120220	12022020	064510	186.99	13.024667	-57.089670	187.23	0.130	-0.050	1.760	187.01	-1.30	2.30	 	 	 	 	 	 	 	 	 	 	 	 	 	 	 	 	 	 	1581489910	7.42	13.74
12/02/2020 06:45:11	120220	12022020	064511	186.91	13.024630	-57.089677	187.02	0.420	-0.840	1.910	186.84	-2.10	2.40	 	 	 	 	 	 	 	 	 	 	 	 	 	 	 	 	 	 	1581489911	7.91	14.65
12/02/2020 06:45:12	120220	12022020	064512	186.60	13.024592	-57.089687	186.66	0.630	-1.150	2.250	186.53	-2.50	2.80	 	 	 	 	 	 	 	 	 	 	 	 	 	 	 	 	 	 	1581489912	8.56	15.85
12/02/2020 06:45:13	120220	12022020	064513	186.35	13.024553	-57.089693	186.63	0.260	-0.480	2.400	186.37	-1.90	2.90	 	 	 	 	 	 	 	 	 	 	 	 	 	 	 	 	 	 	1581489913	8.28	15.33
12/02/2020 06:45:14	120220	12022020	064514	186.58	13.024522	-57.089700	186.91	-0.660	0.440	2.370	186.64	-1.00	2.90	 	 	 	 	 	 	 	 	 	 	 	 	 	 	 	 	 	 	1581489914	7.21	13.35
12/02/2020 06:45:15	120220	12022020	064515	186.83	13.024490	-57.089708	187.06	-1.360	0.450	2.550	186.83	-0.80	3.10	 	 	 	 	 	 	 	 	 	 	 	 	 	 	 	 	 	 	1581489915	6.78	12.56
12/02/2020 06:45:16	120220	12022020	064516	186.71	13.024457	-57.089722	186.84	-1.040	-0.590	2.780	186.64	-1.70	3.30	 	 	 	 	 	 	 	 	 	 	 	 	 	 	 	 	 	 	1581489916	7.83	14.50
12/02/2020 06:45:17	120220	12022020	064517	186.30	13.024417	-57.089737	186.43	0.210	-1.410	2.520	186.22	-2.70	3.10	 	 	 	 	 	 	 	 	 	 	 	 	 	 	 	 	 	 	1581489917	9.16	16.96
12/02/2020 06:45:18	120220	12022020	064518	186.01	13.024375	-57.089743	186.22	1.300	-1.040	1.810	186.00	-2.50	2.50	 	 	 	 	 	 	 	 	 	 	 	 	 	 	 	 	 	 	1581489918	9.08	16.82
12/02/2020 06:45:19	120220	12022020	064519	186.13	13.024338	-57.089743	186.43	1.280	0.110	1.150	186.19	-1.30	1.80	 	 	 	 	 	 	 	 	 	 	 	 	 	 	 	 	 	 	1581489919	7.95	14.72
12/02/2020 06:45:20	120220	12022020	064520	186.44	13.024305	-57.089742	186.72	0.310	0.870	1.160	186.49	-0.50	1.70	 	 	 	 	 	 	 	 	 	 	 	 	 	 	 	 	 	 	1581489920	6.97	12.91
12/02/2020 06:45:21	120220	12022020	064521	186.50	13.024273	-57.089743	186.65	-0.750	0.650	1.970	186.46	-0.60	2.40	 	 	 	 	 	 	 	 	 	 	 	 	 	 	 	 	 	 	1581489921	6.94	12.85
12/02/2020 06:45:22	120220	12022020	064522	186.16	13.024238	-57.089755	186.28	-1.120	-0.150	2.980	186.08	-1.30	3.40	 	 	 	 	 	 	 	 	 	 	 	 	 	 	 	 	 	 	1581489922	7.98	14.78
12/02/2020 06:45:23	120220	12022020	064523	185.73	13.024198	-57.089772	185.91	-0.780	-0.680	3.680	185.67	-1.90	4.20	 	 	 	 	 	 	 	 	 	 	 	 	 	 	 	 	 	 	1581489923	8.95	16.58
12/02/2020 06:45:24	120220	12022020	064524	185.54	13.024162	-57.089788	185.79	-0.150	-0.620	3.700	185.53	-1.90	4.30	 	 	 	 	 	 	 	 	 	 	 	 	 	 	 	 	 	 	1581489924	8.78	16.26
12/02/2020 06:45:25	120220	12022020	064525	185.55	13.024127	-57.089800	185.79	0.370	-0.330	3.040	185.55	-1.70	3.70	 	 	 	 	 	 	 	 	 	 	 	 	 	 	 	 	 	 	1581489925	7.89	14.61
12/02/2020 06:45:26	120220	12022020	064526	185.49	13.024093	-57.089805	185.69	0.660	-0.210	2.010	185.46	-1.50	2.70	 	 	 	 	 	 	 	 	 	 	 	 	 	 	 	 	 	 	1581489926	7.36	13.63
12/02/2020 06:45:27	120220	12022020	064527	185.36	13.024058	-57.089803	185.59	0.690	-0.250	1.080	185.35	-1.50	1.70	 	 	 	 	 	 	 	 	 	 	 	 	 	 	 	 	 	 	1581489927	7.59	14.06
12/02/2020 06:45:28	120220	12022020	064528	185.44	13.024022	-57.089802	185.76	0.380	-0.230	0.590	185.49	-1.50	1.20	 	 	 	 	 	 	 	 	 	 	 	 	 	 	 	 	 	 	1581489928	7.88	14.59
12/02/2020 06:45:29	120220	12022020	064529	185.77	13.023985	-57.089803	186.13	-0.180	-0.070	0.690	185.85	-1.40	1.20	 	 	 	 	 	 	 	 	 	 	 	 	 	 	 	 	 	 	1581489929	7.68	14.22
12/02/2020 06:45:30	120220	12022020	064530	186.11	13.023952	-57.089810	186.40	-0.540	-0.030	1.160	186.15	-1.30	1.60	 	 	 	 	 	 	 	 	 	 	 	 	 	 	 	 	 	 	1581489930	7.47	13.83
12/02/2020 06:45:31	120220	12022020	064531	186.19	13.023917	-57.089822	186.45	-0.360	-0.250	1.700	186.19	-1.50	2.20	 	 	 	 	 	 	 	 	 	 	 	 	 	 	 	 	 	 	1581489931	7.65	14.17
12/02/2020 06:45:32	120220	12022020	064532	186.24	13.023882	-57.089833	186.54	0.120	-0.440	1.890	186.26	-1.70	2.40	 	 	 	 	 	 	 	 	 	 	 	 	 	 	 	 	 	 	1581489932	8.01	14.83
12/02/2020 06:45:33	120220	12022020	064533	186.37	13.023845	-57.089840	186.64	0.380	-0.510	1.950	186.39	-1.80	2.50	 	 	 	 	 	 	 	 	 	 	 	 	 	 	 	 	 	 	1581489933	7.96	14.74
12/02/2020 06:45:34	120220	12022020	064534	186.31	13.023810	-57.089845	186.50	0.170	-0.640	2.300	186.27	-1.90	2.80	 	 	 	 	 	 	 	 	 	 	 	 	 	 	 	 	 	 	1581489934	7.78	14.41
12/02/2020 06:45:35	120220	12022020	064535	186.02	13.023773	-57.089852	186.17	-0.320	-0.780	2.950	185.95	-2.10	3.40	 	 	 	 	 	 	 	 	 	 	 	 	 	 	 	 	 	 	1581489935	7.94	14.70
12/02/2020 06:45:36	120220	12022020	064536	185.66	13.023737	-57.089862	185.82	-0.630	-0.720	3.530	185.59	-2.00	4.00	 	 	 	 	 	 	 	 	 	 	 	 	 	 	 	 	 	 	1581489936	8.21	15.20
12/02/2020 06:45:37	120220	12022020	064537	185.31	13.023700	-57.089875	185.49	-0.380	-0.440	3.560	185.25	-1.80	4.10	 	 	 	 	 	 	 	 	 	 	 	 	 	 	 	 	 	 	1581489937	8.31	15.39
12/02/2020 06:45:38	120220	12022020	064538	185.08	13.023663	-57.089885	185.34	0.270	0.090	2.800	185.07	-1.30	3.50	 	 	 	 	 	 	 	 	 	 	 	 	 	 	 	 	 	 	1581489938	8.14	15.08
12/02/2020 06:45:39	120220	12022020	064539	185.21	13.023627	-57.089888	185.60	0.600	0.770	1.730	185.30	-0.60	2.40	 	 	 	 	 	 	 	 	 	 	 	 	 	 	 	 	 	 	1581489939	7.81	14.46
12/02/2020 06:45:40	120220	12022020	064540	185.73	13.023593	-57.089887	186.16	0.180	1.110	1.020	185.84	-0.20	1.60	 	 	 	 	 	 	 	 	 	 	 	 	 	 	 	 	 	 	1581489940	7.47	13.83
12/02/2020 06:45:41	120220	12022020	064541	186.20	13.023558	-57.089887	186.55	-0.560	0.700	1.060	186.26	-0.50	1.60	 	 	 	 	 	 	 	 	 	 	 	 	 	 	 	 	 	 	1581489941	7.27	13.46
12/02/2020 06:45:42	120220	12022020	064542	186.28	13.023523	-57.089895	186.49	-0.820	-0.330	1.710	186.23	-1.50	2.20	 	 	 	 	 	 	 	 	 	 	 	 	 	 	 	 	 	 	1581489942	7.73	14.32
12/02/2020 06:45:43	120220	12022020	064543	185.91	13.023487	-57.089910	186.04	-0.230	-1.320	2.380	185.81	-2.50	2.90	 	 	 	 	 	 	 	 	 	 	 	 	 	 	 	 	 	 	1581489943	8.58	15.89
12/02/2020 06:45:44	120220	12022020	064544	185.51	13.023448	-57.089925	185.68	0.740	-1.470	2.350	185.46	-2.80	3.00	 	 	 	 	 	 	 	 	 	 	 	 	 	 	 	 	 	 	1581489944	8.75	16.21
12/02/2020 06:45:45	120220	12022020	064545	185.36	13.023413	-57.089932	185.58	1.240	-0.850	1.720	185.36	-2.20	2.40	 	 	 	 	 	 	 	 	 	 	 	 	 	 	 	 	 	 	1581489945	7.86	14.56
12/02/2020 06:45:46	120220	12022020	064546	185.42	13.023380	-57.089932	185.65	0.850	-0.180	1.070	185.44	-1.50	1.70	 	 	 	 	 	 	 	 	 	 	 	 	 	 	 	 	 	 	1581489946	7.11	13.17
12/02/2020 06:45:47	120220	12022020	064547	185.55	13.023347	-57.089928	185.76	-0.070	0.010	1.000	185.57	-1.30	1.50	 	 	 	 	 	 	 	 	 	 	 	 	 	 	 	 	 	 	1581489947	7.11	13.17
12/02/2020 06:45:48	120220	12022020	064548	185.53	13.023312	-57.089932	185.70	-0.780	-0.350	1.580	185.50	-1.60	2.00	 	 	 	 	 	 	 	 	 	 	 	 	 	 	 	 	 	 	1581489948	7.54	13.96
12/02/2020 06:45:49	120220	12022020	064549	185.31	13.023273	-57.089943	185.46	-0.800	-0.870	2.330	185.25	-2.10	2.80	 	 	 	 	 	 	 	 	 	 	 	 	 	 	 	 	 	 	1581489949	8.40	15.56
12/02/2020 06:45:50	120220	12022020	064550	185.12	13.023235	-57.089957	185.30	-0.300	-0.850	2.680	185.08	-2.20	3.20	 	 	 	 	 	 	 	 	 	 	 	 	 	 	 	 	 	 	1581489950	8.91	16.50
12/02/2020 06:45:51	120220	12022020	064551	185.03	13.023197	-57.089967	185.32	0.060	-0.100	2.510	185.04	-1.50	3.10	 	 	 	 	 	 	 	 	 	 	 	 	 	 	 	 	 	 	1581489951	8.41	15.58
12/02/2020 06:45:52	120220	12022020	064552	185.19	13.023163	-57.089973	185.54	-0.080	0.860	2.000	185.23	-0.50	2.60	 	 	 	 	 	 	 	 	 	 	 	 	 	 	 	 	 	 	1581489952	7.45	13.80
12/02/2020 06:45:53	120220	12022020	064553	185.42	13.023132	-57.089977	185.73	-0.490	1.230	1.550	185.46	-0.10	2.20	 	 	 	 	 	 	 	 	 	 	 	 	 	 	 	 	 	 	1581489953	6.94	12.85
12/02/2020 06:45:54	120220	12022020	064554	185.54	13.023097	-57.089980	185.80	-0.600	0.650	1.400	185.54	-0.50	2.00	 	 	 	 	 	 	 	 	 	 	 	 	 	 	 	 	 	 	1581489954	7.24	13.41
12/02/2020 06:45:55	120220	12022020	064555	185.48	13.023060	-57.089987	185.73	-0.170	-0.400	1.540	185.46	-1.50	2.10	 	 	 	 	 	 	 	 	 	 	 	 	 	 	 	 	 	 	1581489955	8.10	15.00
12/02/2020 06:45:56	120220	12022020	064556	185.39	13.023022	-57.089995	185.65	0.620	-1.130	1.660	185.38	-2.40	2.20	 	 	 	 	 	 	 	 	 	 	 	 	 	 	 	 	 	 	1581489956	8.64	16.00
12/02/2020 06:45:57	120220	12022020	064557	185.42	13.022983	-57.090003	185.74	1.170	-1.110	1.460	185.46	-2.40	2.10	 	 	 	 	 	 	 	 	 	 	 	 	 	 	 	 	 	 	1581489957	8.36	15.48
12/02/2020 06:45:58	120220	12022020	064558	185.63	13.022948	-57.090007	185.94	1.020	-0.650	1.180	185.66	-2.00	1.80	 	 	 	 	 	 	 	 	 	 	 	 	 	 	 	 	 	 	1581489958	7.57	14.02
12/02/2020 06:45:59	120220	12022020	064559	185.75	13.022915	-57.090007	186.00	0.270	-0.350	1.450	185.75	-1.70	1.90	 	 	 	 	 	 	 	 	 	 	 	 	 	 	 	 	 	 	1581489959	7.07	13.09
12/02/2020 06:46:00	120220	12022020	064600	185.59	13.022882	-57.090013	185.75	-0.540	-0.360	2.180	185.52	-1.60	2.60	 	 	 	 	 	 	 	 	 	 	 	 	 	 	 	 	 	 	1581489960	7.25	13.43
12/02/2020 06:46:01	120220	12022020	064601	185.19	13.022847	-57.090023	185.33	-0.880	-0.530	2.890	185.09	-1.80	3.30	1015.20	26.20	26.20	20.10	20.20	-1.0	69.0	69.0	413.0	25.9	273.00	10.50	77.00	11.10	17	9926.0	27.2	27.2	1581489961	7.86	14.56
12/02/2020 06:46:02	120220	12022020	064602	184.73	13.022810	-57.090037	184.94	-0.660	-0.570	3.410	184.66	-1.90	3.90	 	 	 	 	 	 	 	 	 	 	 	 	 	 	 	 	 	 	1581489962	8.36	15.48
12/02/2020 06:46:03	120220	12022020	064603	184.66	13.022773	-57.090050	185.06	-0.200	-0.040	3.290	184.73	-1.40	3.90	 	 	 	 	 	 	 	 	 	 	 	 	 	 	 	 	 	 	1581489963	8.51	15.76
12/02/2020 06:46:04	120220	12022020	064604	185.23	13.022738	-57.090058	185.76	0.100	0.890	2.300	185.40	-0.50	3.00	 	 	 	 	 	 	 	 	 	 	 	 	 	 	 	 	 	 	1581489964	7.72	14.30
12/02/2020 06:46:05	120220	12022020	064605	186.13	13.022707	-57.090062	186.59	0.180	1.190	0.990	186.28	-0.10	1.70	 	 	 	 	 	 	 	 	 	 	 	 	 	 	 	 	 	 	1581489965	6.84	12.67
12/02/2020 06:46:06	120220	12022020	064606	186.76	13.022673	-57.090060	187.08	0.180	0.310	0.380	186.82	-0.80	1.00	 	 	 	 	 	 	 	 	 	 	 	 	 	 	 	 	 	 	1581489966	7.11	13.17
12/02/2020 06:46:07	120220	12022020	064607	186.76	13.022635	-57.090060	186.86	0.270	-1.210	0.890	186.67	-2.30	1.30	 	 	 	 	 	 	 	 	 	 	 	 	 	 	 	 	 	 	1581489967	8.09	14.98
12/02/2020 06:46:08	120220	12022020	064608	186.11	13.022595	-57.090068	186.14	0.400	-2.230	1.910	185.96	-3.40	2.30	 	 	 	 	 	 	 	 	 	 	 	 	 	 	 	 	 	 	1581489968	8.85	16.39
12/02/2020 06:46:09	120220	12022020	064609	185.40	13.022555	-57.090078	185.52	0.360	-1.850	2.880	185.30	-3.30	3.30	 	 	 	 	 	 	 	 	 	 	 	 	 	 	 	 	 	 	1581489969	8.83	16.35
12/02/2020 06:46:10	120220	12022020	064610	185.05	13.022520	-57.090088	185.28	0.040	-0.260	3.300	185.03	-1.80	3.80	 	 	 	 	 	 	 	 	 	 	 	 	 	 	 	 	 	 	1581489970	7.77	14.39
12/02/2020 06:46:11	120220	12022020	064611	185.05	13.022492	-57.090098	185.30	-0.360	1.090	3.030	185.07	-0.30	3.60	 	 	 	 	 	 	 	 	 	 	 	 	 	 	 	 	 	 	1581489971	6.51	12.06
12/02/2020 06:46:12	120220	12022020	064612	185.15	13.022462	-57.090103	185.44	-0.580	1.140	2.510	185.18	-0.10	3.10	 	 	 	 	 	 	 	 	 	 	 	 	 	 	 	 	 	 	1581489972	6.56	12.15
12/02/2020 06:46:13	120220	12022020	064613	185.35	13.022425	-57.090108	185.68	-0.540	0.400	2.170	185.40	-0.80	2.70	 	 	 	 	 	 	 	 	 	 	 	 	 	 	 	 	 	 	1581489973	7.80	14.45
12/02/2020 06:46:14	120220	12022020	064614	185.64	13.022387	-57.090117	186.00	-0.260	-0.270	1.940	185.70	-1.50	2.50	 	 	 	 	 	 	 	 	 	 	 	 	 	 	 	 	 	 	1581489974	8.51	15.76
12/02/2020 06:46:15	120220	12022020	064615	185.89	13.022348	-57.090125	186.18	0.140	-0.630	1.680	185.91	-1.90	2.30	 	 	 	 	 	 	 	 	 	 	 	 	 	 	 	 	 	 	1581489975	8.28	15.33
12/02/2020 06:46:16	120220	12022020	064616	185.91	13.022313	-57.090132	186.16	0.500	-0.770	1.570	185.90	-2.10	2.10	 	 	 	 	 	 	 	 	 	 	 	 	 	 	 	 	 	 	1581489976	7.85	14.54
12/02/2020 06:46:17	120220	12022020	064617	185.87	13.022278	-57.090137	186.13	0.600	-0.590	1.500	185.88	-1.90	2.10	 	 	 	 	 	 	 	 	 	 	 	 	 	 	 	 	 	 	1581489977	7.70	14.26
12/02/2020 06:46:18	120220	12022020	064618	185.93	13.022243	-57.090140	186.20	0.460	-0.160	1.360	185.95	-1.50	2.00	 	 	 	 	 	 	 	 	 	 	 	 	 	 	 	 	 	 	1581489978	7.44	13.78
12/02/2020 06:46:19	120220	12022020	064619	186.05	13.022210	-57.090143	186.34	0.170	0.130	1.240	186.08	-1.20	1.80	 	 	 	 	 	 	 	 	 	 	 	 	 	 	 	 	 	 	1581489979	7.24	13.41
12/02/2020 06:46:20	120220	12022020	064620	186.31	13.022175	-57.090147	186.65	-0.200	0.090	1.340	186.38	-1.20	1.90	 	 	 	 	 	 	 	 	 	 	 	 	 	 	 	 	 	 	1581489980	7.37	13.65
12/02/2020 06:46:21	120220	12022020	064621	186.63	13.022140	-57.090153	186.92	-0.480	-0.130	1.730	186.66	-1.40	2.20	 	 	 	 	 	 	 	 	 	 	 	 	 	 	 	 	 	 	1581489981	7.63	14.13
12/02/2020 06:46:22	120220	12022020	064622	186.62	13.022107	-57.090163	186.76	-0.340	-0.540	2.290	186.54	-1.80	2.80	 	 	 	 	 	 	 	 	 	 	 	 	 	 	 	 	 	 	1581489982	7.76	14.37
12/02/2020 06:46:23	120220	12022020	064623	186.00	13.022070	-57.090175	186.01	0.330	-1.200	2.970	185.82	-2.40	3.40	 	 	 	 	 	 	 	 	 	 	 	 	 	 	 	 	 	 	1581489983	8.03	14.87
12/02/2020 06:46:24	120220	12022020	064624	185.12	13.022032	-57.090183	185.18	0.900	-1.410	3.490	184.97	-2.70	4.00	 	 	 	 	 	 	 	 	 	 	 	 	 	 	 	 	 	 	1581489984	8.58	15.89
12/02/2020 06:46:25	120220	12022020	064625	184.64	13.021992	-57.090190	184.90	0.610	-0.610	3.570	184.65	-2.10	4.10	 	 	 	 	 	 	 	 	 	 	 	 	 	 	 	 	 	 	1581489985	8.49	15.72
12/02/2020 06:46:26	120220	12022020	064626	184.95	13.021958	-57.090195	185.35	-0.500	0.700	3.330	185.07	-0.80	3.90	 	 	 	 	 	 	 	 	 	 	 	 	 	 	 	 	 	 	1581489986	7.51	13.91
12/02/2020 06:46:27	120220	12022020	064627	185.59	13.021927	-57.090202	185.98	-1.530	1.370	3.090	185.71	0.00	3.70	 	 	 	 	 	 	 	 	 	 	 	 	 	 	 	 	 	 	1581489987	6.72	12.45
12/02/2020 06:46:28	120220	12022020	064628	186.01	13.021895	-57.090213	186.46	-1.560	0.940	2.700	186.09	-0.30	3.30	 	 	 	 	 	 	 	 	 	 	 	 	 	 	 	 	 	 	1581489988	7.25	13.43
12/02/2020 06:46:29	120220	12022020	064629	186.58	13.021858	-57.090225	186.97	-0.590	0.000	1.870	186.70	-1.20	2.60	 	 	 	 	 	 	 	 	 	 	 	 	 	 	 	 	 	 	1581489989	8.26	15.30
12/02/2020 06:46:30	120220	12022020	064630	187.13	13.021820	-57.090233	187.46	0.660	-0.640	0.850	187.21	-1.90	1.60	 	 	 	 	 	 	 	 	 	 	 	 	 	 	 	 	 	 	1581489990	8.59	15.91
12/02/2020 06:46:31	120220	12022020	064631	187.49	13.021782	-57.090237	187.73	1.410	-0.640	-0.070	187.54	-2.00	0.60	 	 	 	 	 	 	 	 	 	 	 	 	 	 	 	 	 	 	1581489991	8.16	15.11
12/02/2020 06:46:32	120220	12022020	064632	187.72	13.021747	-57.090235	187.92	1.340	-0.220	-0.590	187.75	-1.60	0.00	 	 	 	 	 	 	 	 	 	 	 	 	 	 	 	 	 	 	1581489992	7.49	13.87
12/02/2020 06:46:33	120220	12022020	064633	187.78	13.021715	-57.090232	187.89	0.720	-0.190	-0.300	187.74	-1.50	0.20	 	 	 	 	 	 	 	 	 	 	 	 	 	 	 	 	 	 	1581489993	6.98	12.93
12/02/2020 06:46:34	120220	12022020	064634	187.32	13.021682	-57.090235	187.27	0.190	-1.080	0.950	187.15	-2.20	1.30	 	 	 	 	 	 	 	 	 	 	 	 	 	 	 	 	 	 	1581489994	7.23	13.39
12/02/2020 06:46:35	120220	12022020	064635	186.37	13.021643	-57.090245	186.32	-0.030	-2.000	2.820	186.16	-3.20	3.10	 	 	 	 	 	 	 	 	 	 	 	 	 	 	 	 	 	 	1581489995	8.59	15.91
12/02/2020 06:46:36	120220	12022020	064636	185.51	13.021602	-57.090263	185.65	-0.220	-1.670	4.390	185.40	-3.10	4.80	 	 	 	 	 	 	 	 	 	 	 	 	 	 	 	 	 	 	1581489996	9.49	17.58
12/02/2020 06:46:37	120220	12022020	064637	185.24	13.021565	-57.090280	185.56	-0.690	-0.060	4.930	185.25	-1.60	5.40	 	 	 	 	 	 	 	 	 	 	 	 	 	 	 	 	 	 	1581489997	8.67	16.06
12/02/2020 06:46:38	120220	12022020	064638	185.48	13.021535	-57.090295	185.89	-1.220	1.570	4.390	185.56	0.10	5.00	 	 	 	 	 	 	 	 	 	 	 	 	 	 	 	 	 	 	1581489998	7.13	13.20
12/02/2020 06:46:39	120220	12022020	064639	185.92	13.021507	-57.090305	186.36	-1.290	1.980	3.190	186.03	0.70	3.90	 	 	 	 	 	 	 	 	 	 	 	 	 	 	 	 	 	 	1581489999	6.50	12.04
12/02/2020 06:46:40	120220	12022020	064640	186.46	13.021473	-57.090312	187.10	-0.710	1.320	1.430	186.61	0.10	2.20	 	 	 	 	 	 	 	 	 	 	 	 	 	 	 	 	 	 	1581490000	7.30	13.52
12/02/2020 06:46:41	120220	12022020	064641	187.48	13.021437	-57.090313	187.90	0.280	0.160	-0.130	187.63	-1.00	0.60	 	 	 	 	 	 	 	 	 	 	 	 	 	 	 	 	 	 	1581490001	8.05	14.91
12/02/2020 06:46:42	120220	12022020	064642	187.92	13.021398	-57.090313	188.12	1.210	-1.310	-0.550	187.94	-2.40	0.00	 	 	 	 	 	 	 	 	 	 	 	 	 	 	 	 	 	 	1581490002	8.30	15.37
12/02/2020 06:46:43	120220	12022020	064643	187.49	13.021358	-57.090317	187.47	1.630	-2.500	0.290	187.31	-3.70	0.70	 	 	 	 	 	 	 	 	 	 	 	 	 	 	 	 	 	 	1581490003	8.59	15.91
12/02/2020 06:46:44	120220	12022020	064644	186.47	13.021318	-57.090322	186.50	1.180	-2.320	1.760	186.30	-3.80	2.10	 	 	 	 	 	 	 	 	 	 	 	 	 	 	 	 	 	 	1581490004	8.66	16.04
12/02/2020 06:46:45	120220	12022020	064645	185.96	13.021283	-57.090332	186.30	-0.010	-0.410	2.940	185.99	-2.10	3.40	 	 	 	 	 	 	 	 	 	 	 	 	 	 	 	 	 	 	1581490005	7.88	14.59
12/02/2020 06:46:46	120220	12022020	064646	186.49	13.021257	-57.090345	187.00	-1.180	1.820	3.130	186.67	0.30	3.70	 	 	 	 	 	 	 	 	 	 	 	 	 	 	 	 	 	 	1581490006	6.41	11.87
12/02/2020 06:46:47	120220	12022020	064647	187.32	13.021232	-57.090357	187.71	-1.430	2.210	2.720	187.43	1.00	3.30	 	 	 	 	 	 	 	 	 	 	 	 	 	 	 	 	 	 	1581490007	5.69	10.54
12/02/2020 06:46:48	120220	12022020	064648	187.60	13.021200	-57.090367	187.83	-0.520	0.430	2.420	187.58	-0.60	3.00	 	 	 	 	 	 	 	 	 	 	 	 	 	 	 	 	 	 	1581490008	7.11	13.17
12/02/2020 06:46:49	120220	12022020	064649	187.38	13.021158	-57.090375	187.54	0.650	-1.610	2.510	187.31	-2.70	3.00	 	 	 	 	 	 	 	 	 	 	 	 	 	 	 	 	 	 	1581490009	9.37	17.35
12/02/2020 06:46:50	120220	12022020	064650	187.01	13.021113	-57.090383	187.15	1.080	-2.160	2.750	186.92	-3.50	3.30	 	 	 	 	 	 	 	 	 	 	 	 	 	 	 	 	 	 	1581490010	9.82	18.19
12/02/2020 06:46:51	120220	12022020	064651	186.58	13.021075	-57.090390	186.73	0.560	-1.170	3.100	186.49	-2.70	3.60	 	 	 	 	 	 	 	 	 	 	 	 	 	 	 	 	 	 	1581490011	8.38	15.52
12/02/2020 06:46:52	120220	12022020	064652	186.30	13.021043	-57.090398	186.53	-0.370	0.380	3.280	186.27	-1.20	3.80	 	 	 	 	 	 	 	 	 	 	 	 	 	 	 	 	 	 	1581490012	6.91	12.80
12/02/2020 06:46:53	120220	12022020	064653	186.40	13.021015	-57.090410	186.78	-1.030	1.540	2.880	186.48	0.10	3.50	 	 	 	 	 	 	 	 	 	 	 	 	 	 	 	 	 	 	1581490013	6.39	11.83
12/02/2020 06:46:54	120220	12022020	064654	186.92	13.020987	-57.090418	187.34	-0.970	1.650	1.980	187.04	0.40	2.70	 	 	 	 	 	 	 	 	 	 	 	 	 	 	 	 	 	 	1581490014	6.57	12.17
12/02/2020 06:46:55	120220	12022020	064655	187.51	13.020953	-57.090427	187.84	-0.210	0.580	0.890	187.59	-0.50	1.60	 	 	 	 	 	 	 	 	 	 	 	 	 	 	 	 	 	 	1581490015	7.29	13.50
12/02/2020 06:46:56	120220	12022020	064656	187.74	13.020915	-57.090432	187.92	0.800	-0.990	0.290	187.72	-2.10	0.90	 	 	 	 	 	 	 	 	 	 	 	 	 	 	 	 	 	 	1581490016	8.29	15.35
12/02/2020 06:46:57	120220	12022020	064657	187.48	13.020875	-57.090435	187.60	1.410	-1.970	0.380	187.41	-3.20	0.90	 	 	 	 	 	 	 	 	 	 	 	 	 	 	 	 	 	 	1581490017	8.86	16.41
12/02/2020 06:46:58	120220	12022020	064658	187.22	13.020835	-57.090438	187.44	1.160	-1.610	0.960	187.21	-3.10	1.40	 	 	 	 	 	 	 	 	 	 	 	 	 	 	 	 	 	 	1581490018	8.46	15.67
12/02/2020 06:46:59	120220	12022020	064659	187.24	13.020802	-57.090443	187.49	0.310	-0.490	1.880	187.24	-2.00	2.30	 	 	 	 	 	 	 	 	 	 	 	 	 	 	 	 	 	 	1581490019	7.23	13.39
12/02/2020 06:47:00	120220	12022020	064700	187.11	13.020773	-57.090453	187.26	-0.420	0.210	2.950	187.03	-1.20	3.30	 	 	 	 	 	 	 	 	 	 	 	 	 	 	 	 	 	 	1581490020	6.57	12.17
12/02/2020 06:47:01	120220	12022020	064701	186.63	13.020742	-57.090467	186.79	-0.670	0.200	3.880	186.53	-1.10	4.30	1015.10	26.30	26.30	20.60	20.60	-1.0	70.0	70.0	416.0	25.9	275.00	10.50	80.00	10.90	17	9397.0	27.2	27.2	1581490021	7.29	13.50
12/02/2020 06:47:02	120220	12022020	064702	186.33	13.020705	-57.090480	186.59	-0.690	0.160	4.200	186.31	-1.20	4.70	 	 	 	 	 	 	 	 	 	 	 	 	 	 	 	 	 	 	1581490022	8.25	15.28
12/02/2020 06:47:03	120220	12022020	064703	186.31	13.020670	-57.090493	186.57	-0.640	0.180	3.980	186.31	-1.10	4.50	 	 	 	 	 	 	 	 	 	 	 	 	 	 	 	 	 	 	1581490023	8.15	15.09
12/02/2020 06:47:04	120220	12022020	064704	186.25	13.020635	-57.090503	186.47	-0.420	-0.020	3.510	186.22	-1.30	4.10	 	 	 	 	 	 	 	 	 	 	 	 	 	 	 	 	 	 	1581490024	7.87	14.58
12/02/2020 06:47:05	120220	12022020	064705	186.18	13.020598	-57.090512	186.44	0.000	-0.180	2.750	186.19	-1.50	3.40	 	 	 	 	 	 	 	 	 	 	 	 	 	 	 	 	 	 	1581490025	7.98	14.78
12/02/2020 06:47:06	120220	12022020	064706	186.32	13.020562	-57.090517	186.71	0.440	0.060	1.650	186.38	-1.30	2.40	 	 	 	 	 	 	 	 	 	 	 	 	 	 	 	 	 	 	1581490026	7.87	14.58
12/02/2020 06:47:07	120220	12022020	064707	186.87	13.020528	-57.090518	187.18	0.660	0.280	0.590	186.97	-1.10	1.30	 	 	 	 	 	 	 	 	 	 	 	 	 	 	 	 	 	 	1581490027	7.28	13.48
12/02/2020 06:47:08	120220	12022020	064708	187.21	13.020495	-57.090518	187.40	0.680	-0.140	0.190	187.22	-1.40	0.80	 	 	 	 	 	 	 	 	 	 	 	 	 	 	 	 	 	 	1581490028	7.06	13.08
12/02/2020 06:47:09	120220	12022020	064709	187.10	13.020460	-57.090522	187.16	0.580	-1.020	0.670	187.02	-2.20	1.10	 	 	 	 	 	 	 	 	 	 	 	 	 	 	 	 	 	 	1581490029	7.63	14.13
12/02/2020 06:47:10	120220	12022020	064710	186.57	13.020422	-57.090528	186.55	0.320	-1.480	1.770	186.42	-2.80	2.20	 	 	 	 	 	 	 	 	 	 	 	 	 	 	 	 	 	 	1581490030	8.28	15.33
12/02/2020 06:47:11	120220	12022020	064711	185.90	13.020385	-57.090540	185.97	-0.130	-1.010	2.800	185.79	-2.40	3.20	 	 	 	 	 	 	 	 	 	 	 	 	 	 	 	 	 	 	1581490031	8.23	15.24
12/02/2020 06:47:12	120220	12022020	064712	185.59	13.020352	-57.090552	185.82	-0.670	-0.010	3.300	185.58	-1.40	3.80	 	 	 	 	 	 	 	 	 	 	 	 	 	 	 	 	 	 	1581490032	7.59	14.06
12/02/2020 06:47:13	120220	12022020	064713	185.73	13.020322	-57.090563	186.06	-0.900	0.650	3.270	185.79	-0.70	3.80	 	 	 	 	 	 	 	 	 	 	 	 	 	 	 	 	 	 	1581490033	7.11	13.17
12/02/2020 06:47:14	120220	12022020	064714	186.09	13.020288	-57.090575	186.42	-0.540	0.550	2.820	186.16	-0.70	3.40	 	 	 	 	 	 	 	 	 	 	 	 	 	 	 	 	 	 	1581490034	7.33	13.58
12/02/2020 06:47:15	120220	12022020	064715	186.42	13.020253	-57.090583	186.70	0.180	0.040	2.110	186.47	-1.20	2.70	 	 	 	 	 	 	 	 	 	 	 	 	 	 	 	 	 	 	1581490035	7.95	14.72
12/02/2020 06:47:16	120220	12022020	064716	186.72	13.020215	-57.090587	187.03	0.650	-0.250	1.440	186.80	-1.60	2.10	 	 	 	 	 	 	 	 	 	 	 	 	 	 	 	 	 	 	1581490036	8.31	15.39
12/02/2020 06:47:17	120220	12022020	064717	187.12	13.020178	-57.090590	187.41	0.480	-0.160	1.080	187.20	-1.50	1.70	 	 	 	 	 	 	 	 	 	 	 	 	 	 	 	 	 	 	1581490037	7.92	14.67
12/02/2020 06:47:18	120220	12022020	064718	187.34	13.020145	-57.090593	187.51	-0.020	-0.220	1.290	187.35	-1.50	1.80	 	 	 	 	 	 	 	 	 	 	 	 	 	 	 	 	 	 	1581490038	7.23	13.39
12/02/2020 06:47:19	120220	12022020	064719	187.08	13.020112	-57.090600	187.08	-0.210	-0.750	1.960	186.96	-2.00	2.40	 	 	 	 	 	 	 	 	 	 	 	 	 	 	 	 	 	 	1581490039	7.29	13.50
12/02/2020 06:47:20	120220	12022020	064720	186.35	13.020075	-57.090610	186.35	0.020	-1.210	2.900	186.20	-2.50	3.30	 	 	 	 	 	 	 	 	 	 	 	 	 	 	 	 	 	 	1581490040	8.03	14.87
12/02/2020 06:47:21	120220	12022020	064721	185.53	13.020038	-57.090622	185.57	0.340	-1.060	3.690	185.38	-2.40	4.10	 	 	 	 	 	 	 	 	 	 	 	 	 	 	 	 	 	 	1581490041	8.37	15.50
12/02/2020 06:47:22	120220	12022020	064722	184.98	13.020002	-57.090633	185.18	0.350	-0.310	3.740	184.94	-1.70	4.30	 	 	 	 	 	 	 	 	 	 	 	 	 	 	 	 	 	 	1581490042	8.06	14.93
12/02/2020 06:47:23	120220	12022020	064723	185.04	13.019968	-57.090640	185.41	-0.070	0.570	3.290	185.13	-0.90	3.90	 	 	 	 	 	 	 	 	 	 	 	 	 	 	 	 	 	 	1581490043	7.46	13.82
12/02/2020 06:47:24	120220	12022020	064724	185.72	13.019935	-57.090645	186.23	-0.570	1.170	2.610	185.92	-0.20	3.20	 	 	 	 	 	 	 	 	 	 	 	 	 	 	 	 	 	 	1581490044	7.14	13.22
12/02/2020 06:47:25	120220	12022020	064725	186.73	13.019903	-57.090652	187.22	-0.780	1.170	1.880	186.92	-0.10	2.50	 	 	 	 	 	 	 	 	 	 	 	 	 	 	 	 	 	 	1581490045	7.06	13.08
12/02/2020 06:47:26	120220	12022020	064726	187.48	13.019870	-57.090658	187.78	-0.520	0.300	1.500	187.56	-0.90	2.10	 	 	 	 	 	 	 	 	 	 	 	 	 	 	 	 	 	 	1581490046	7.25	13.43
12/02/2020 06:47:27	120220	12022020	064727	187.58	13.019833	-57.090665	187.70	0.040	-1.150	1.710	187.52	-2.30	2.20	 	 	 	 	 	 	 	 	 	 	 	 	 	 	 	 	 	 	1581490047	7.96	14.74
12/02/2020 06:47:28	120220	12022020	064728	187.24	13.019795	-57.090675	187.14	0.590	-2.140	2.210	187.11	-3.40	2.70	 	 	 	 	 	 	 	 	 	 	 	 	 	 	 	 	 	 	1581490048	8.67	16.06
12/02/2020 06:47:29	120220	12022020	064729	186.38	13.019757	-57.090687	186.40	0.860	-1.930	2.550	186.23	-3.30	3.10	 	 	 	 	 	 	 	 	 	 	 	 	 	 	 	 	 	 	1581490049	8.50	15.74
12/02/2020 06:47:30	120220	12022020	064730	185.78	13.019722	-57.090693	185.73	0.790	-0.740	2.580	185.66	-2.20	3.10	 	 	 	 	 	 	 	 	 	 	 	 	 	 	 	 	 	 	1581490050	7.59	14.06
12/02/2020 06:47:31	120220	12022020	064731	185.25	13.019690	-57.090697	185.48	0.420	0.620	2.220	185.25	-0.90	2.80	 	 	 	 	 	 	 	 	 	 	 	 	 	 	 	 	 	 	1581490051	6.86	12.70
12/02/2020 06:47:32	120220	12022020	064732	185.51	13.019658	-57.090698	185.88	-0.160	1.310	1.650	185.61	-0.00	2.20	 	 	 	 	 	 	 	 	 	 	 	 	 	 	 	 	 	 	1581490052	6.79	12.58
12/02/2020 06:47:33	120220	12022020	064733	186.04	13.019625	-57.090700	186.40	-0.730	1.030	1.740	186.13	-0.20	2.20	 	 	 	 	 	 	 	 	 	 	 	 	 	 	 	 	 	 	1581490053	7.26	13.45
12/02/2020 06:47:34	120220	12022020	064734	186.32	13.019588	-57.090708	186.58	-1.010	0.110	2.510	186.33	-1.10	2.90	 	 	 	 	 	 	 	 	 	 	 	 	 	 	 	 	 	 	1581490054	8.01	14.83
12/02/2020 06:47:35	120220	12022020	064735	186.26	13.019550	-57.090723	186.45	-0.830	-0.840	3.210	186.22	-2.00	3.70	 	 	 	 	 	 	 	 	 	 	 	 	 	 	 	 	 	 	1581490055	8.74	16.19
12/02/2020 06:47:36	120220	12022020	064736	185.99	13.019513	-57.090738	186.17	-0.320	-1.300	3.580	185.92	-2.60	4.10	 	 	 	 	 	 	 	 	 	 	 	 	 	 	 	 	 	 	1581490056	8.78	16.26
12/02/2020 06:47:37	120220	12022020	064737	185.56	13.019477	-57.090752	185.65	0.170	-1.190	3.630	185.44	-2.50	4.20	 	 	 	 	 	 	 	 	 	 	 	 	 	 	 	 	 	 	1581490057	8.19	15.17
12/02/2020 06:47:38	120220	12022020	064738	184.93	13.019442	-57.090760	184.97	0.460	-0.740	3.260	184.80	-2.10	3.90	 	 	 	 	 	 	 	 	 	 	 	 	 	 	 	 	 	 	1581490058	7.57	14.02
12/02/2020 06:47:39	120220	12022020	064739	184.37	13.019408	-57.090763	184.48	0.540	-0.190	2.550	184.30	-1.60	3.20	 	 	 	 	 	 	 	 	 	 	 	 	 	 	 	 	 	 	1581490059	7.40	13.70
12/02/2020 06:47:40	120220	12022020	064740	184.27	13.019373	-57.090765	184.58	0.450	0.460	1.650	184.34	-0.90	2.30	 	 	 	 	 	 	 	 	 	 	 	 	 	 	 	 	 	 	1581490060	7.46	13.82
12/02/2020 06:47:41	120220	12022020	064741	184.81	13.019340	-57.090765	185.23	0.200	0.900	0.800	184.95	-0.40	1.40	 	 	 	 	 	 	 	 	 	 	 	 	 	 	 	 	 	 	1581490061	7.34	13.59
12/02/2020 06:47:42	120220	12022020	064742	185.40	13.019305	-57.090765	185.73	-0.110	0.540	0.740	185.47	-0.70	1.20	 	 	 	 	 	 	 	 	 	 	 	 	 	 	 	 	 	 	1581490062	7.28	13.48
12/02/2020 06:47:43	120220	12022020	064743	185.55	13.019270	-57.090768	185.80	-0.370	-0.290	1.610	185.55	-1.50	2.00	 	 	 	 	 	 	 	 	 	 	 	 	 	 	 	 	 	 	1581490063	7.85	14.54
12/02/2020 06:47:44	120220	12022020	064744	185.44	13.019232	-57.090780	185.66	-0.430	-0.810	2.810	185.40	-2.10	3.20	 	 	 	 	 	 	 	 	 	 	 	 	 	 	 	 	 	 	1581490064	8.44	15.63
12/02/2020 06:47:45	120220	12022020	064745	185.21	13.019197	-57.090795	185.42	-0.260	-0.820	3.630	185.16	-2.20	4.10	 	 	 	 	 	 	 	 	 	 	 	 	 	 	 	 	 	 	1581490065	8.28	15.33
12/02/2020 06:47:46	120220	12022020	064746	184.86	13.019162	-57.090808	185.02	0.090	-0.680	3.800	184.78	-2.00	4.30	 	 	 	 	 	 	 	 	 	 	 	 	 	 	 	 	 	 	1581490066	7.72	14.30
12/02/2020 06:47:47	120220	12022020	064747	184.42	13.019128	-57.090817	184.58	0.410	-0.630	3.500	184.35	-1.90	4.10	 	 	 	 	 	 	 	 	 	 	 	 	 	 	 	 	 	 	1581490067	7.50	13.89
12/02/2020 06:47:48	120220	12022020	064748	184.15	13.019093	-57.090820	184.41	0.490	-0.540	2.770	184.14	-1.90	3.40	 	 	 	 	 	 	 	 	 	 	 	 	 	 	 	 	 	 	1581490068	7.71	14.28
12/02/2020 06:47:49	120220	12022020	064749	184.28	13.019057	-57.090820	184.64	0.200	-0.180	1.930	184.36	-1.60	2.60	 	 	 	 	 	 	 	 	 	 	 	 	 	 	 	 	 	 	1581490069	7.83	14.50
12/02/2020 06:47:50	120220	12022020	064750	184.78	13.019022	-57.090820	185.17	-0.290	0.210	1.480	184.89	-1.10	2.10	 	 	 	 	 	 	 	 	 	 	 	 	 	 	 	 	 	 	1581490070	7.53	13.95
12/02/2020 06:47:51	120220	12022020	064751	185.20	13.018988	-57.090825	185.46	-0.620	0.200	1.700	185.22	-1.10	2.20	 	 	 	 	 	 	 	 	 	 	 	 	 	 	 	 	 	 	1581490071	7.27	13.46
12/02/2020 06:47:52	120220	12022020	064752	185.10	13.018953	-57.090833	185.25	-0.440	-0.270	2.250	185.04	-1.50	2.70	 	 	 	 	 	 	 	 	 	 	 	 	 	 	 	 	 	 	1581490072	7.69	14.24
12/02/2020 06:47:53	120220	12022020	064753	184.77	13.018915	-57.090843	184.97	0.000	-0.560	2.580	184.73	-1.90	3.10	 	 	 	 	 	 	 	 	 	 	 	 	 	 	 	 	 	 	1581490073	8.36	15.48
12/02/2020 06:47:54	120220	12022020	064754	184.73	13.018878	-57.090852	185.03	0.220	-0.300	2.530	184.76	-1.70	3.10	 	 	 	 	 	 	 	 	 	 	 	 	 	 	 	 	 	 	1581490074	8.29	15.35
12/02/2020 06:47:55	120220	12022020	064755	184.92	13.018843	-57.090858	185.23	0.100	0.170	2.330	184.97	-1.20	2.90	 	 	 	 	 	 	 	 	 	 	 	 	 	 	 	 	 	 	1581490075	7.56	14.00
12/02/2020 06:47:56	120220	12022020	064756	185.12	13.018810	-57.090863	185.51	-0.070	0.370	2.030	185.18	-0.90	2.60	 	 	 	 	 	 	 	 	 	 	 	 	 	 	 	 	 	 	1581490076	7.16	13.26
12/02/2020 06:47:57	120220	12022020	064757	185.53	13.018777	-57.090867	185.84	-0.120	0.120	1.710	185.58	-1.10	2.30	 	 	 	 	 	 	 	 	 	 	 	 	 	 	 	 	 	 	1581490077	7.34	13.59
12/02/2020 06:47:58	120220	12022020	064758	185.68	13.018740	-57.090870	185.85	-0.010	-0.630	1.770	185.65	-1.80	2.30	 	 	 	 	 	 	 	 	 	 	 	 	 	 	 	 	 	 	1581490078	7.74	14.33
12/02/2020 06:47:59	120220	12022020	064759	185.37	13.018702	-57.090877	185.47	0.160	-1.320	2.180	185.27	-2.60	2.70	 	 	 	 	 	 	 	 	 	 	 	 	 	 	 	 	 	 	1581490079	8.32	15.41
12/02/2020 06:48:00	120220	12022020	064800	184.91	13.018663	-57.090887	185.04	0.200	-1.110	2.500	184.84	-2.50	3.00	 	 	 	 	 	 	 	 	 	 	 	 	 	 	 	 	 	 	1581490080	8.55	15.83
12/02/2020 06:48:01	120220	12022020	064801	184.63	13.018628	-57.090895	184.82	0.040	-0.060	2.410	184.60	-1.50	3.00	1015.00	26.20	26.20	20.20	20.30	-1.0	69.0	70.0	416.0	25.9	273.00	10.70	78.00	11.30	17	10218.0	27.2	27.2	1581490081	7.74	14.33
12/02/2020 06:48:02	120220	12022020	064802	184.57	13.018598	-57.090900	184.82	-0.200	0.740	2.030	184.58	-0.60	2.60	 	 	 	 	 	 	 	 	 	 	 	 	 	 	 	 	 	 	1581490082	6.77	12.54
12/02/2020 06:48:03	120220	12022020	064803	184.66	13.018565	-57.090905	184.93	-0.290	0.520	1.630	184.69	-0.70	2.20	 	 	 	 	 	 	 	 	 	 	 	 	 	 	 	 	 	 	1581490083	6.91	12.80
12/02/2020 06:48:04	120220	12022020	064804	184.74	13.018528	-57.090908	184.99	-0.170	-0.300	1.590	184.74	-1.50	2.10	 	 	 	 	 	 	 	 	 	 	 	 	 	 	 	 	 	 	1581490084	7.92	14.67
12/02/2020 06:48:05	120220	12022020	064805	184.67	13.018490	-57.090913	184.90	0.030	-0.810	1.870	184.64	-2.10	2.40	 	 	 	 	 	 	 	 	 	 	 	 	 	 	 	 	 	 	1581490085	8.60	15.93
12/02/2020 06:48:06	120220	12022020	064806	184.57	13.018452	-57.090922	184.84	0.080	-0.660	2.220	184.57	-2.00	2.70	 	 	 	 	 	 	 	 	 	 	 	 	 	 	 	 	 	 	1581490086	8.34	15.45
12/02/2020 06:48:07	120220	12022020	064807	184.65	13.018417	-57.090928	184.99	-0.050	-0.230	2.450	184.69	-1.60	3.00	 	 	 	 	 	 	 	 	 	 	 	 	 	 	 	 	 	 	1581490087	7.68	14.22
12/02/2020 06:48:08	120220	12022020	064808	184.99	13.018383	-57.090937	185.37	-0.190	0.080	2.360	185.07	-1.30	2.90	 	 	 	 	 	 	 	 	 	 	 	 	 	 	 	 	 	 	1581490088	7.35	13.61
12/02/2020 06:48:09	120220	12022020	064809	185.30	13.018350	-57.090943	185.58	-0.170	-0.020	2.150	185.32	-1.30	2.70	 	 	 	 	 	 	 	 	 	 	 	 	 	 	 	 	 	 	1581490089	7.34	13.59
12/02/2020 06:48:10	120220	12022020	064810	185.16	13.018313	-57.090948	185.29	0.020	-0.520	2.230	185.07	-1.80	2.70	 	 	 	 	 	 	 	 	 	 	 	 	 	 	 	 	 	 	1581490090	7.75	14.35
12/02/2020 06:48:11	120220	12022020	064811	184.58	13.018275	-57.090955	184.68	0.230	-0.910	2.530	184.47	-2.20	3.10	 	 	 	 	 	 	 	 	 	 	 	 	 	 	 	 	 	 	1581490091	8.31	15.39
12/02/2020 06:48:12	120220	12022020	064812	184.13	13.018237	-57.090962	184.35	0.220	-0.630	2.510	184.10	-2.00	3.10	 	 	 	 	 	 	 	 	 	 	 	 	 	 	 	 	 	 	1581490092	8.45	15.65
12/02/2020 06:48:13	120220	12022020	064813	184.19	13.018202	-57.090967	184.55	-0.030	0.240	2.210	184.26	-1.20	2.80	 	 	 	 	 	 	 	 	 	 	 	 	 	 	 	 	 	 	1581490093	7.82	14.48
12/02/2020 06:48:14	120220	12022020	064814	184.70	13.018168	-57.090970	185.12	-0.290	0.930	1.760	184.83	-0.40	2.40	 	 	 	 	 	 	 	 	 	 	 	 	 	 	 	 	 	 	1581490094	7.05	13.06
12/02/2020 06:48:15	120220	12022020	064815	185.29	13.018137	-57.090973	185.65	-0.350	0.700	1.430	185.38	-0.50	2.00	 	 	 	 	 	 	 	 	 	 	 	 	 	 	 	 	 	 	1581490095	6.94	12.85
12/02/2020 06:48:16	120220	12022020	064816	185.55	13.018102	-57.090978	185.79	-0.180	-0.360	1.630	185.54	-1.50	2.10	 	 	 	 	 	 	 	 	 	 	 	 	 	 	 	 	 	 	1581490096	7.73	14.32
12/02/2020 06:48:17	120220	12022020	064817	185.39	13.018062	-57.090987	185.56	0.100	-1.380	2.230	185.34	-2.60	2.70	 	 	 	 	 	 	 	 	 	 	 	 	 	 	 	 	 	 	1581490097	8.66	16.04
12/02/2020 06:48:18	120220	12022020	064818	185.12	13.018022	-57.090998	185.32	0.310	-1.360	2.620	185.08	-2.80	3.10	 	 	 	 	 	 	 	 	 	 	 	 	 	 	 	 	 	 	1581490098	8.88	16.45
12/02/2020 06:48:19	120220	12022020	064819	184.98	13.017985	-57.091007	185.22	0.310	-0.340	2.540	184.97	-1.80	3.10	 	 	 	 	 	 	 	 	 	 	 	 	 	 	 	 	 	 	1581490099	7.91	14.65
12/02/2020 06:48:20	120220	12022020	064820	184.98	13.017955	-57.091012	185.25	0.160	0.590	2.130	184.99	-0.80	2.70	 	 	 	 	 	 	 	 	 	 	 	 	 	 	 	 	 	 	1581490100	6.76	12.52
12/02/2020 06:48:21	120220	12022020	064821	185.01	13.017923	-57.091015	185.24	0.060	0.530	1.590	185.01	-0.70	2.20	 	 	 	 	 	 	 	 	 	 	 	 	 	 	 	 	 	 	1581490101	6.74	12.48
12/02/2020 06:48:22	120220	12022020	064822	185.08	13.017887	-57.091015	185.34	0.040	-0.210	1.120	185.10	-1.40	1.70	 	 	 	 	 	 	 	 	 	 	 	 	 	 	 	 	 	 	1581490102	7.78	14.41
12/02/2020 06:48:23	120220	12022020	064823	185.25	13.017848	-57.091018	185.51	0.020	-0.840	1.220	185.28	-2.10	1.70	 	 	 	 	 	 	 	 	 	 	 	 	 	 	 	 	 	 	1581490103	8.52	15.78
12/02/2020 06:48:24	120220	12022020	064824	185.26	13.017808	-57.091023	185.43	-0.080	-0.990	1.850	185.21	-2.30	2.30	 	 	 	 	 	 	 	 	 	 	 	 	 	 	 	 	 	 	1581490104	8.41	15.58
12/02/2020 06:48:25	120220	12022020	064825	184.97	13.017773	-57.091033	185.12	-0.290	-0.690	2.620	184.90	-2.10	3.10	 	 	 	 	 	 	 	 	 	 	 	 	 	 	 	 	 	 	1581490105	8.04	14.89
12/02/2020 06:48:26	120220	12022020	064826	184.74	13.017738	-57.091043	184.96	-0.430	-0.200	3.030	184.72	-1.60	3.50	 	 	 	 	 	 	 	 	 	 	 	 	 	 	 	 	 	 	1581490106	7.79	14.43
12/02/2020 06:48:27	120220	12022020	064827	184.72	13.017703	-57.091053	184.98	-0.280	0.170	2.910	184.73	-1.20	3.50	 	 	 	 	 	 	 	 	 	 	 	 	 	 	 	 	 	 	1581490107	7.66	14.19
12/02/2020 06:48:28	120220	12022020	064828	184.82	13.017668	-57.091062	185.14	0.080	0.250	2.350	184.87	-1.10	3.00	 	 	 	 	 	 	 	 	 	 	 	 	 	 	 	 	 	 	1581490108	7.72	14.30
12/02/2020 06:48:29	120220	12022020	064829	185.18	13.017632	-57.091063	185.55	0.250	0.250	1.560	185.27	-1.10	2.20	 	 	 	 	 	 	 	 	 	 	 	 	 	 	 	 	 	 	1581490109	7.96	14.74
12/02/2020 06:48:30	120220	12022020	064830	185.61	13.017595	-57.091065	185.89	0.120	0.080	1.110	185.66	-1.20	1.70	 	 	 	 	 	 	 	 	 	 	 	 	 	 	 	 	 	 	1581490110	7.86	14.56
12/02/2020 06:48:31	120220	12022020	064831	185.67	13.017558	-57.091067	185.81	-0.100	-0.410	1.410	185.63	-1.70	1.90	 	 	 	 	 	 	 	 	 	 	 	 	 	 	 	 	 	 	1581490111	7.80	14.45
12/02/2020 06:48:32	120220	12022020	064832	185.35	13.017522	-57.091073	185.45	-0.220	-0.740	2.140	185.27	-2.00	2.60	 	 	 	 	 	 	 	 	 	 	 	 	 	 	 	 	 	 	1581490112	8.12	15.04
12/02/2020 06:48:33	120220	12022020	064833	184.98	13.017485	-57.091083	185.12	-0.160	-0.570	2.730	184.92	-1.90	3.20	 	 	 	 	 	 	 	 	 	 	 	 	 	 	 	 	 	 	1581490113	8.20	15.19
12/02/2020 06:48:34	120220	12022020	064834	184.77	13.017450	-57.091095	184.98	0.000	-0.110	2.780	184.76	-1.50	3.30	 	 	 	 	 	 	 	 	 	 	 	 	 	 	 	 	 	 	1581490114	7.79	14.43
12/02/2020 06:48:35	120220	12022020	064835	184.81	13.017417	-57.091102	185.08	0.190	0.220	2.330	184.85	-1.10	2.90	 	 	 	 	 	 	 	 	 	 	 	 	 	 	 	 	 	 	1581490115	7.39	13.69
12/02/2020 06:48:36	120220	12022020	064836	185.09	13.017382	-57.091105	185.39	0.340	0.130	1.590	185.15	-1.10	2.20	 	 	 	 	 	 	 	 	 	 	 	 	 	 	 	 	 	 	1581490116	7.42	13.74
12/02/2020 06:48:37	120220	12022020	064837	185.38	13.017347	-57.091107	185.62	0.460	-0.490	1.060	185.42	-1.70	1.70	 	 	 	 	 	 	 	 	 	 	 	 	 	 	 	 	 	 	1581490117	7.79	14.43
12/02/2020 06:48:38	120220	12022020	064838	185.41	13.017307	-57.091107	185.56	0.460	-1.190	1.180	185.37	-2.40	1.70	 	 	 	 	 	 	 	 	 	 	 	 	 	 	 	 	 	 	1581490118	8.33	15.43
12/02/2020 06:48:39	120220	12022020	064839	185.16	13.017268	-57.091112	185.30	0.190	-1.250	1.730	185.10	-2.60	2.20	 	 	 	 	 	 	 	 	 	 	 	 	 	 	 	 	 	 	1581490119	8.59	15.91
12/02/2020 06:48:40	120220	12022020	064840	185.02	13.017230	-57.091118	185.29	-0.380	-0.420	2.160	185.05	-1.90	2.60	 	 	 	 	 	 	 	 	 	 	 	 	 	 	 	 	 	 	1581490120	8.16	15.11
12/02/2020 06:48:41	120220	12022020	064841	185.32	13.017197	-57.091127	185.67	-0.990	0.530	2.380	185.41	-0.90	2.90	 	 	 	 	 	 	 	 	 	 	 	 	 	 	 	 	 	 	1581490121	7.36	13.63
12/02/2020 06:48:42	120220	12022020	064842	185.68	13.017165	-57.091137	185.94	-1.090	0.670	2.560	185.70	-0.60	3.10	 	 	 	 	 	 	 	 	 	 	 	 	 	 	 	 	 	 	1581490122	7.16	13.26
12/02/2020 06:48:43	120220	12022020	064843	185.66	13.017130	-57.091148	185.86	-0.470	-0.010	2.610	185.63	-1.20	3.20	 	 	 	 	 	 	 	 	 	 	 	 	 	 	 	 	 	 	1581490123	7.93	14.69
12/02/2020 06:48:44	120220	12022020	064844	185.56	13.017090	-57.091157	185.80	0.290	-0.490	2.440	185.56	-1.80	3.00	 	 	 	 	 	 	 	 	 	 	 	 	 	 	 	 	 	 	1581490124	8.82	16.33
12/02/2020 06:48:45	120220	12022020	064845	185.68	13.017050	-57.091162	185.99	0.550	-0.240	1.990	185.73	-1.60	2.60	 	 	 	 	 	 	 	 	 	 	 	 	 	 	 	 	 	 	1581490125	8.64	16.00
12/02/2020 06:48:46	120220	12022020	064846	186.08	13.017015	-57.091163	186.44	0.330	0.360	1.280	186.19	-1.10	1.90	 	 	 	 	 	 	 	 	 	 	 	 	 	 	 	 	 	 	1581490126	7.67	14.20
12/02/2020 06:48:47	120220	12022020	064847	186.61	13.016982	-57.091167	186.91	0.200	0.500	0.730	186.68	-0.80	1.30	 	 	 	 	 	 	 	 	 	 	 	 	 	 	 	 	 	 	1581490127	7.02	13.00
12/02/2020 06:48:48	120220	12022020	064848	186.87	13.016948	-57.091168	187.05	0.490	-0.130	0.670	186.87	-1.30	1.20	 	 	 	 	 	 	 	 	 	 	 	 	 	 	 	 	 	 	1581490128	7.30	13.52
12/02/2020 06:48:49	120220	12022020	064849	186.66	13.016910	-57.091172	186.72	0.810	-1.120	1.300	186.55	-2.30	1.70	 	 	 	 	 	 	 	 	 	 	 	 	 	 	 	 	 	 	1581490129	8.09	14.98
12/02/2020 06:48:50	120220	12022020	064850	185.99	13.016870	-57.091178	186.03	0.660	-1.740	2.340	185.84	-3.00	2.70	 	 	 	 	 	 	 	 	 	 	 	 	 	 	 	 	 	 	1581490130	8.68	16.08
12/02/2020 06:48:51	120220	12022020	064851	185.44	13.016832	-57.091188	185.66	-0.050	-1.260	3.210	185.41	-2.70	3.70	 	 	 	 	 	 	 	 	 	 	 	 	 	 	 	 	 	 	1581490131	8.74	16.19
12/02/2020 06:48:52	120220	12022020	064852	185.59	13.016797	-57.091202	186.00	-0.890	0.140	3.400	185.69	-1.40	3.90	 	 	 	 	 	 	 	 	 	 	 	 	 	 	 	 	 	 	1581490132	8.00	14.82
12/02/2020 06:48:53	120220	12022020	064853	186.19	13.016767	-57.091213	186.60	-1.230	1.100	2.970	186.31	-0.30	3.60	 	 	 	 	 	 	 	 	 	 	 	 	 	 	 	 	 	 	1581490133	7.00	12.96
12/02/2020 06:48:54	120220	12022020	064854	186.75	13.016735	-57.091223	187.12	-0.850	0.820	2.310	186.85	-0.40	2.90	 	 	 	 	 	 	 	 	 	 	 	 	 	 	 	 	 	 	1581490134	7.10	13.15
12/02/2020 06:48:55	120220	12022020	064855	187.11	13.016697	-57.091230	187.39	-0.140	-0.100	1.730	187.16	-1.30	2.40	 	 	 	 	 	 	 	 	 	 	 	 	 	 	 	 	 	 	1581490135	8.26	15.30
12/02/2020 06:48:56	120220	12022020	064856	187.21	13.016655	-57.091235	187.40	0.420	-0.720	1.320	187.20	-2.00	1.90	 	 	 	 	 	 	 	 	 	 	 	 	 	 	 	 	 	 	1581490136	8.90	16.48
12/02/2020 06:48:57	120220	12022020	064857	187.02	13.016617	-57.091240	187.09	0.660	-0.810	1.190	186.93	-2.10	1.80	 	 	 	 	 	 	 	 	 	 	 	 	 	 	 	 	 	 	1581490137	8.48	15.70
12/02/2020 06:48:58	120220	12022020	064858	186.43	13.016580	-57.091245	186.43	0.760	-0.750	1.370	186.29	-2.10	1.90	 	 	 	 	 	 	 	 	 	 	 	 	 	 	 	 	 	 	1581490138	7.91	14.65
12/02/2020 06:48:59	120220	12022020	064859	185.91	13.016543	-57.091248	186.06	0.600	-0.390	1.520	185.87	-1.80	2.10	 	 	 	 	 	 	 	 	 	 	 	 	 	 	 	 	 	 	1581490139	7.93	14.69
12/02/2020 06:49:00	120220	12022020	064900	185.95	13.016507	-57.091252	186.22	0.070	0.170	1.750	185.99	-1.20	2.30	 	 	 	 	 	 	 	 	 	 	 	 	 	 	 	 	 	 	1581490140	7.77	14.39
12/02/2020 06:49:01	120220	12022020	064901	186.20	13.016473	-57.091258	186.43	-0.530	0.370	2.190	186.23	-1.00	2.70	1015.20	26.20	26.30	20.20	20.30	-1.0	69.0	69.0	416.0	25.9	273.00	10.50	77.00	11.10	17	9556.0	27.3	27.2	1581490141	7.46	13.82
12/02/2020 06:49:02	120220	12022020	064902	186.26	13.016438	-57.091270	186.45	-0.690	-0.050	2.750	186.25	-1.30	3.20	 	 	 	 	 	 	 	 	 	 	 	 	 	 	 	 	 	 	1581490142	7.87	14.58
12/02/2020 06:49:03	120220	12022020	064903	186.30	13.016400	-57.091283	186.57	-0.350	-0.490	2.920	186.34	-1.80	3.50	 	 	 	 	 	 	 	 	 	 	 	 	 	 	 	 	 	 	1581490143	8.64	16.00
12/02/2020 06:49:04	120220	12022020	064904	186.57	13.016362	-57.091293	186.87	0.110	-0.390	2.650	186.64	-1.80	3.20	 	 	 	 	 	 	 	 	 	 	 	 	 	 	 	 	 	 	1581490144	8.64	16.00
12/02/2020 06:49:05	120220	12022020	064905	186.83	13.016325	-57.091300	187.06	0.260	-0.070	2.300	186.85	-1.40	2.90	 	 	 	 	 	 	 	 	 	 	 	 	 	 	 	 	 	 	1581490145	7.88	14.59
12/02/2020 06:49:06	120220	12022020	064906	186.82	13.016290	-57.091305	186.99	0.060	0.160	2.030	186.81	-1.20	2.60	 	 	 	 	 	 	 	 	 	 	 	 	 	 	 	 	 	 	1581490146	7.50	13.89
12/02/2020 06:49:07	120220	12022020	064907	186.76	13.016257	-57.091312	186.94	-0.230	0.320	1.870	186.75	-1.00	2.40	 	 	 	 	 	 	 	 	 	 	 	 	 	 	 	 	 	 	1581490147	7.50	13.89
12/02/2020 06:49:08	120220	12022020	064908	186.72	13.016223	-57.091318	186.86	-0.050	0.030	1.720	186.69	-1.20	2.30	 	 	 	 	 	 	 	 	 	 	 	 	 	 	 	 	 	 	1581490148	7.44	13.78
12/02/2020 06:49:09	120220	12022020	064909	186.44	13.016187	-57.091327	186.51	0.680	-0.960	1.690	186.36	-2.10	2.20	 	 	 	 	 	 	 	 	 	 	 	 	 	 	 	 	 	 	1581490149	7.85	14.54
12/02/2020 06:49:10	120220	12022020	064910	186.18	13.016147	-57.091332	186.41	1.160	-1.620	1.840	186.17	-2.90	2.40	 	 	 	 	 	 	 	 	 	 	 	 	 	 	 	 	 	 	1581490150	8.84	16.37
12/02/2020 06:49:11	120220	12022020	064911	186.56	13.016105	-57.091335	186.98	0.660	-1.080	2.300	186.70	-2.50	2.80	 	 	 	 	 	 	 	 	 	 	 	 	 	 	 	 	 	 	1581490151	8.82	16.33
12/02/2020 06:49:12	120220	12022020	064912	187.34	13.016072	-57.091343	187.75	-0.560	0.020	3.140	187.47	-1.40	3.60	 	 	 	 	 	 	 	 	 	 	 	 	 	 	 	 	 	 	1581490152	7.50	13.89
12/02/2020 06:49:13	120220	12022020	064913	187.79	13.016042	-57.091357	188.02	-1.380	0.410	4.190	187.79	-0.90	4.60	 	 	 	 	 	 	 	 	 	 	 	 	 	 	 	 	 	 	1581490153	7.02	13.00
12/02/2020 06:49:14	120220	12022020	064914	187.47	13.016010	-57.091377	187.55	-1.030	-0.180	5.110	187.33	-1.40	5.60	 	 	 	 	 	 	 	 	 	 	 	 	 	 	 	 	 	 	1581490154	8.05	14.91
12/02/2020 06:49:15	120220	12022020	064915	186.82	13.015970	-57.091397	187.00	0.010	-0.400	5.450	186.74	-1.80	6.00	 	 	 	 	 	 	 	 	 	 	 	 	 	 	 	 	 	 	1581490155	9.24	17.11
12/02/2020 06:49:16	120220	12022020	064916	186.77	13.015932	-57.091408	187.19	0.650	0.440	4.680	186.87	-1.00	5.40	 	 	 	 	 	 	 	 	 	 	 	 	 	 	 	 	 	 	1581490156	8.78	16.26
12/02/2020 06:49:17	120220	12022020	064917	187.39	13.015898	-57.091410	187.82	0.460	1.100	3.320	187.53	-0.30	4.10	 	 	 	 	 	 	 	 	 	 	 	 	 	 	 	 	 	 	1581490157	7.17	13.28
12/02/2020 06:49:18	120220	12022020	064918	187.92	13.015867	-57.091410	188.21	-0.010	0.530	2.370	187.98	-0.70	3.00	 	 	 	 	 	 	 	 	 	 	 	 	 	 	 	 	 	 	1581490158	6.86	12.70
12/02/2020 06:49:19	120220	12022020	064919	188.00	13.015830	-57.091413	188.18	0.050	-0.780	1.800	187.98	-2.00	2.50	 	 	 	 	 	 	 	 	 	 	 	 	 	 	 	 	 	 	1581490159	7.84	14.52
12/02/2020 06:49:20	120220	12022020	064920	187.92	13.015790	-57.091420	188.12	0.590	-1.550	1.210	187.92	-2.80	1.90	 	 	 	 	 	 	 	 	 	 	 	 	 	 	 	 	 	 	1581490160	8.78	16.26
12/02/2020 06:49:21	120220	12022020	064921	187.93	13.015752	-57.091425	188.13	0.810	-1.270	1.100	187.93	-2.70	1.70	 	 	 	 	 	 	 	 	 	 	 	 	 	 	 	 	 	 	1581490161	8.33	15.43
12/02/2020 06:49:22	120220	12022020	064922	187.79	13.015718	-57.091430	187.86	0.360	-0.640	1.400	187.70	-2.10	1.90	 	 	 	 	 	 	 	 	 	 	 	 	 	 	 	 	 	 	1581490162	7.22	13.37
12/02/2020 06:49:23	120220	12022020	064923	187.20	13.015687	-57.091438	187.20	-0.390	-0.320	2.000	187.05	-1.70	2.50	 	 	 	 	 	 	 	 	 	 	 	 	 	 	 	 	 	 	1581490163	6.93	12.83
12/02/2020 06:49:24	120220	12022020	064924	186.51	13.015653	-57.091452	186.57	-0.870	-0.210	2.680	186.40	-1.50	3.20	 	 	 	 	 	 	 	 	 	 	 	 	 	 	 	 	 	 	1581490164	7.62	14.11
12/02/2020 06:49:25	120220	12022020	064925	186.14	13.015618	-57.091467	186.34	-0.730	0.010	2.990	186.12	-1.40	3.50	 	 	 	 	 	 	 	 	 	 	 	 	 	 	 	 	 	 	1581490165	8.29	15.35
12/02/2020 06:49:26	120220	12022020	064926	186.26	13.015583	-57.091482	186.59	-0.190	0.370	2.660	186.33	-1.00	3.30	 	 	 	 	 	 	 	 	 	 	 	 	 	 	 	 	 	 	1581490166	8.19	15.17
12/02/2020 06:49:27	120220	12022020	064927	186.78	13.015548	-57.091490	187.19	0.260	0.550	2.020	186.92	-0.80	2.70	 	 	 	 	 	 	 	 	 	 	 	 	 	 	 	 	 	 	1581490167	7.70	14.26
12/02/2020 06:49:28	120220	12022020	064928	187.40	13.015513	-57.091495	187.72	0.330	0.350	1.600	187.49	-0.90	2.20	 	 	 	 	 	 	 	 	 	 	 	 	 	 	 	 	 	 	1581490168	7.55	13.98
12/02/2020 06:49:29	120220	12022020	064929	187.66	13.015478	-57.091500	187.84	0.240	-0.180	1.640	187.64	-1.40	2.20	 	 	 	 	 	 	 	 	 	 	 	 	 	 	 	 	 	 	1581490169	7.62	14.11
12/02/2020 06:49:30	120220	12022020	064930	187.36	13.015443	-57.091508	187.43	0.310	-0.850	2.020	187.25	-2.10	2.50	 	 	 	 	 	 	 	 	 	 	 	 	 	 	 	 	 	 	1581490170	7.83	14.50
12/02/2020 06:49:31	120220	12022020	064931	186.85	13.015407	-57.091517	186.97	0.400	-1.110	2.400	186.77	-2.40	2.90	 	 	 	 	 	 	 	 	 	 	 	 	 	 	 	 	 	 	1581490171	8.07	14.95
12/02/2020 06:49:32	120220	12022020	064932	186.51	13.015372	-57.091523	186.66	0.180	-0.830	2.700	186.44	-2.20	3.20	 	 	 	 	 	 	 	 	 	 	 	 	 	 	 	 	 	 	1581490172	7.80	14.45
12/02/2020 06:49:33	120220	12022020	064933	186.20	13.015338	-57.091532	186.33	-0.260	-0.500	2.960	186.13	-1.90	3.50	 	 	 	 	 	 	 	 	 	 	 	 	 	 	 	 	 	 	1581490173	7.35	13.61
12/02/2020 06:49:34	120220	12022020	064934	185.92	13.015305	-57.091542	186.04	-0.580	-0.290	3.090	185.86	-1.60	3.60	 	 	 	 	 	 	 	 	 	 	 	 	 	 	 	 	 	 	1581490174	7.52	13.93
12/02/2020 06:49:35	120220	12022020	064935	185.70	13.015270	-57.091553	185.95	-0.540	0.080	2.900	185.70	-1.30	3.50	 	 	 	 	 	 	 	 	 	 	 	 	 	 	 	 	 	 	1581490175	7.91	14.65
12/02/2020 06:49:36	120220	12022020	064936	185.75	13.015235	-57.091563	186.06	-0.230	0.510	2.360	185.77	-0.90	3.00	 	 	 	 	 	 	 	 	 	 	 	 	 	 	 	 	 	 	1581490176	7.72	14.30
12/02/2020 06:49:37	120220	12022020	064937	186.01	13.015200	-57.091568	186.33	0.060	0.640	1.720	186.07	-0.70	2.40	 	 	 	 	 	 	 	 	 	 	 	 	 	 	 	 	 	 	1581490177	7.43	13.76
12/02/2020 06:49:38	120220	12022020	064938	186.36	13.015165	-57.091572	186.65	0.090	0.350	1.370	186.42	-0.90	2.00	 	 	 	 	 	 	 	 	 	 	 	 	 	 	 	 	 	 	1581490178	7.49	13.87
12/02/2020 06:49:39	120220	12022020	064939	186.55	13.015130	-57.091577	186.74	0.020	-0.320	1.650	186.53	-1.50	2.10	 	 	 	 	 	 	 	 	 	 	 	 	 	 	 	 	 	 	1581490179	7.66	14.19
12/02/2020 06:49:40	120220	12022020	064940	186.28	13.015095	-57.091585	186.38	0.180	-1.100	2.290	186.19	-2.30	2.80	 	 	 	 	 	 	 	 	 	 	 	 	 	 	 	 	 	 	1581490180	7.96	14.74
12/02/2020 06:49:41	120220	12022020	064941	185.81	13.015058	-57.091597	185.95	0.620	-1.300	2.670	185.73	-2.60	3.20	 	 	 	 	 	 	 	 	 	 	 	 	 	 	 	 	 	 	1581490181	8.28	15.33
12/02/2020 06:49:42	120220	12022020	064942	185.52	13.015022	-57.091605	185.73	0.890	-0.660	2.660	185.49	-2.10	3.20	 	 	 	 	 	 	 	 	 	 	 	 	 	 	 	 	 	 	1581490182	7.86	14.56
12/02/2020 06:49:43	120220	12022020	064943	185.45	13.014990	-57.091610	185.71	0.660	0.060	2.400	185.46	-1.30	3.00	 	 	 	 	 	 	 	 	 	 	 	 	 	 	 	 	 	 	1581490183	7.01	12.98
12/02/2020 06:49:44	120220	12022020	064944	185.47	13.014958	-57.091613	185.72	0.080	0.140	2.160	185.47	-1.20	2.70	 	 	 	 	 	 	 	 	 	 	 	 	 	 	 	 	 	 	1581490184	6.89	12.76
12/02/2020 06:49:45	120220	12022020	064945	185.51	13.014923	-57.091617	185.79	-0.560	-0.150	2.220	185.53	-1.40	2.80	 	 	 	 	 	 	 	 	 	 	 	 	 	 	 	 	 	 	1581490185	7.60	14.08
12/02/2020 06:49:46	120220	12022020	064946	185.67	13.014885	-57.091623	185.99	-1.050	-0.310	2.620	185.71	-1.60	3.10	 	 	 	 	 	 	 	 	 	 	 	 	 	 	 	 	 	 	1581490186	8.07	14.95
12/02/2020 06:49:47	120220	12022020	064947	185.86	13.014850	-57.091635	186.16	-1.270	-0.380	3.040	185.88	-1.70	3.50	 	 	 	 	 	 	 	 	 	 	 	 	 	 	 	 	 	 	1581490187	8.01	14.83
12/02/2020 06:49:48	120220	12022020	064948	185.91	13.014815	-57.091648	186.15	-1.050	-0.540	3.240	185.90	-1.80	3.80	 	 	 	 	 	 	 	 	 	 	 	 	 	 	 	 	 	 	1581490188	8.03	14.87
12/02/2020 06:49:49	120220	12022020	064949	185.75	13.014780	-57.091662	185.97	-0.350	-0.620	3.000	185.71	-2.00	3.60	 	 	 	 	 	 	 	 	 	 	 	 	 	 	 	 	 	 	1581490189	8.18	15.15
12/02/2020 06:49:50	120220	12022020	064950	185.59	13.014743	-57.091672	185.82	0.540	-0.310	2.240	185.58	-1.70	2.90	 	 	 	 	 	 	 	 	 	 	 	 	 	 	 	 	 	 	1581490190	8.10	15.00
12/02/2020 06:49:51	120220	12022020	064951	185.61	13.014708	-57.091675	185.86	1.150	0.400	1.260	185.63	-1.00	2.00	 	 	 	 	 	 	 	 	 	 	 	 	 	 	 	 	 	 	1581490191	7.63	14.13
12/02/2020 06:49:52	120220	12022020	064952	185.75	13.014675	-57.091672	185.97	1.200	0.870	0.510	185.78	-0.50	1.20	 	 	 	 	 	 	 	 	 	 	 	 	 	 	 	 	 	 	1581490192	7.15	13.24
12/02/2020 06:49:53	120220	12022020	064953	185.81	13.014642	-57.091668	185.96	0.820	0.560	0.350	185.79	-0.70	0.90	 	 	 	 	 	 	 	 	 	 	 	 	 	 	 	 	 	 	1581490193	7.19	13.32
12/02/2020 06:49:54	120220	12022020	064954	185.58	13.014605	-57.091668	185.66	0.330	-0.310	0.880	185.50	-1.50	1.30	 	 	 	 	 	 	 	 	 	 	 	 	 	 	 	 	 	 	1581490194	7.69	14.24
12/02/2020 06:49:55	120220	12022020	064955	185.23	13.014567	-57.091675	185.40	-0.140	-1.020	1.740	185.19	-2.30	2.20	 	 	 	 	 	 	 	 	 	 	 	 	 	 	 	 	 	 	1581490195	8.27	15.32
12/02/2020 06:49:56	120220	12022020	064956	185.25	13.014530	-57.091685	185.55	-0.580	-1.110	2.520	185.30	-2.50	3.00	 	 	 	 	 	 	 	 	 	 	 	 	 	 	 	 	 	 	1581490196	8.33	15.43
12/02/2020 06:49:57	120220	12022020	064957	185.58	13.014497	-57.091698	185.90	-0.910	-0.850	3.050	185.64	-2.20	3.50	 	 	 	 	 	 	 	 	 	 	 	 	 	 	 	 	 	 	1581490197	7.88	14.59
12/02/2020 06:49:58	120220	12022020	064958	185.77	13.014463	-57.091715	186.01	-0.880	-0.780	3.220	185.79	-2.10	3.80	 	 	 	 	 	 	 	 	 	 	 	 	 	 	 	 	 	 	1581490198	7.59	14.06
12/02/2020 06:49:59	120220	12022020	064959	185.60	13.014430	-57.091727	185.74	-0.430	-0.940	3.180	185.53	-2.30	3.70	 	 	 	 	 	 	 	 	 	 	 	 	 	 	 	 	 	 	1581490199	7.81	14.46
12/02/2020 06:50:00	120220	12022020	065000	185.24	13.014393	-57.091737	185.39	0.090	-0.760	2.920	185.17	-2.20	3.50	 	 	 	 	 	 	 	 	 	 	 	 	 	 	 	 	 	 	1581490200	8.24	15.26
12/02/2020 06:50:01	120220	12022020	065001	185.01	13.014355	-57.091742	185.23	0.380	0.070	2.350	185.00	-1.40	3.00	1015.20	26.30	26.30	20.50	20.50	-1.0	70.0	70.0	418.0	25.9	272.00	10.00	76.00	10.70	17	9238.0	27.3	27.3	1581490201	8.09	14.98
12/02/2020 06:50:02	120220	12022020	065002	185.08	13.014322	-57.091743	185.34	0.410	1.030	1.560	185.12	-0.40	2.20	 	 	 	 	 	 	 	 	 	 	 	 	 	 	 	 	 	 	1581490202	7.37	13.65
12/02/2020 06:50:03	120220	12022020	065003	185.35	13.014288	-57.091742	185.60	0.300	1.150	0.910	185.39	-0.10	1.50	 	 	 	 	 	 	 	 	 	 	 	 	 	 	 	 	 	 	1581490203	7.08	13.11
12/02/2020 06:50:04	120220	12022020	065004	185.48	13.014253	-57.091742	185.66	0.250	0.260	0.930	185.47	-0.90	1.50	 	 	 	 	 	 	 	 	 	 	 	 	 	 	 	 	 	 	1581490204	7.68	14.22
12/02/2020 06:50:05	120220	12022020	065005	185.32	13.014213	-57.091745	185.48	0.230	-0.770	1.550	185.27	-2.00	2.00	 	 	 	 	 	 	 	 	 	 	 	 	 	 	 	 	 	 	1581490205	8.54	15.82
12/02/2020 06:50:06	120220	12022020	065006	185.10	13.014173	-57.091753	185.29	0.060	-1.030	2.520	185.07	-2.40	2.90	 	 	 	 	 	 	 	 	 	 	 	 	 	 	 	 	 	 	1581490206	8.76	16.22
12/02/2020 06:50:07	120220	12022020	065007	184.94	13.014137	-57.091765	185.15	-0.320	-0.630	3.470	184.91	-2.00	3.90	 	 	 	 	 	 	 	 	 	 	 	 	 	 	 	 	 	 	1581490207	8.05	14.91
12/02/2020 06:50:08	120220	12022020	065008	184.80	13.014105	-57.091778	185.01	-0.610	-0.220	3.850	184.76	-1.60	4.40	 	 	 	 	 	 	 	 	 	 	 	 	 	 	 	 	 	 	1581490208	7.47	13.83
12/02/2020 06:50:09	120220	12022020	065009	184.65	13.014073	-57.091792	184.87	-0.430	-0.240	3.620	184.62	-1.50	4.20	 	 	 	 	 	 	 	 	 	 	 	 	 	 	 	 	 	 	1581490209	7.45	13.80
12/02/2020 06:50:10	120220	12022020	065010	184.57	13.014038	-57.091800	184.81	0.180	-0.460	2.880	184.57	-1.80	3.60	 	 	 	 	 	 	 	 	 	 	 	 	 	 	 	 	 	 	1581490210	7.81	14.46
12/02/2020 06:50:11	120220	12022020	065011	184.63	13.014000	-57.091803	184.90	0.730	-0.450	1.780	184.66	-1.80	2.50	 	 	 	 	 	 	 	 	 	 	 	 	 	 	 	 	 	 	1581490211	8.06	14.93
12/02/2020 06:50:12	120220	12022020	065012	184.89	13.013963	-57.091802	185.21	0.700	-0.190	0.840	184.97	-1.60	1.50	 	 	 	 	 	 	 	 	 	 	 	 	 	 	 	 	 	 	1581490212	7.94	14.70
12/02/2020 06:50:13	120220	12022020	065013	185.34	13.013928	-57.091800	185.65	0.120	0.140	0.740	185.42	-1.20	1.30	 	 	 	 	 	 	 	 	 	 	 	 	 	 	 	 	 	 	1581490213	7.63	14.13
12/02/2020 06:50:14	120220	12022020	065014	185.65	13.013895	-57.091802	185.88	-0.490	0.230	1.340	185.67	-1.10	1.80	 	 	 	 	 	 	 	 	 	 	 	 	 	 	 	 	 	 	1581490214	7.26	13.45
12/02/2020 06:50:15	120220	12022020	065015	185.59	13.013862	-57.091812	185.72	-0.530	-0.140	2.190	185.53	-1.40	2.60	 	 	 	 	 	 	 	 	 	 	 	 	 	 	 	 	 	 	1581490215	7.49	13.87
12/02/2020 06:50:16	120220	12022020	065016	185.15	13.013825	-57.091823	185.24	0.030	-0.810	2.990	185.04	-2.00	3.40	 	 	 	 	 	 	 	 	 	 	 	 	 	 	 	 	 	 	1581490216	8.16	15.11
12/02/2020 06:50:17	120220	12022020	065017	184.56	13.013787	-57.091833	184.68	0.630	-1.200	3.470	184.45	-2.50	4.00	 	 	 	 	 	 	 	 	 	 	 	 	 	 	 	 	 	 	1581490217	8.67	16.06
12/02/2020 06:50:18	120220	12022020	065018	184.11	13.013747	-57.091842	184.32	0.710	-0.890	3.320	184.06	-2.30	3.90	 	 	 	 	 	 	 	 	 	 	 	 	 	 	 	 	 	 	1581490218	8.55	15.83
12/02/2020 06:50:19	120220	12022020	065019	183.99	13.013710	-57.091845	184.31	0.120	0.020	2.710	184.02	-1.40	3.40	 	 	 	 	 	 	 	 	 	 	 	 	 	 	 	 	 	 	1581490219	7.88	14.59
12/02/2020 06:50:20	120220	12022020	065020	184.26	13.013677	-57.091847	184.65	-0.770	0.870	2.130	184.35	-0.50	2.80	 	 	 	 	 	 	 	 	 	 	 	 	 	 	 	 	 	 	1581490220	7.12	13.19
12/02/2020 06:50:21	120220	12022020	065021	184.73	13.013645	-57.091852	185.12	-1.310	1.030	1.790	184.83	-0.30	2.40	 	 	 	 	 	 	 	 	 	 	 	 	 	 	 	 	 	 	1581490221	6.90	12.78
12/02/2020 06:50:22	120220	12022020	065022	185.16	13.013612	-57.091860	185.50	-1.050	0.430	1.650	185.23	-0.80	2.20	 	 	 	 	 	 	 	 	 	 	 	 	 	 	 	 	 	 	1581490222	7.44	13.78
12/02/2020 06:50:23	120220	12022020	065023	185.40	13.013575	-57.091868	185.67	-0.130	-0.520	1.540	185.42	-1.70	2.10	 	 	 	 	 	 	 	 	 	 	 	 	 	 	 	 	 	 	1581490223	8.17	15.13
12/02/2020 06:50:24	120220	12022020	065024	185.43	13.013537	-57.091877	185.66	0.830	-1.080	1.410	185.43	-2.40	2.00	 	 	 	 	 	 	 	 	 	 	 	 	 	 	 	 	 	 	1581490224	8.55	15.83
12/02/2020 06:50:25	120220	12022020	065025	185.40	13.013498	-57.091882	185.63	1.250	-0.950	1.310	185.40	-2.30	1.90	 	 	 	 	 	 	 	 	 	 	 	 	 	 	 	 	 	 	1581490225	8.20	15.19
12/02/2020 06:50:26	120220	12022020	065026	185.36	13.013463	-57.091882	185.56	1.010	-0.410	1.230	185.34	-1.80	1.80	 	 	 	 	 	 	 	 	 	 	 	 	 	 	 	 	 	 	1581490226	7.51	13.91
12/02/2020 06:50:27	120220	12022020	065027	185.18	13.013430	-57.091883	185.31	0.430	-0.080	1.320	185.12	-1.40	1.90	 	 	 	 	 	 	 	 	 	 	 	 	 	 	 	 	 	 	1581490227	7.12	13.19
12/02/2020 06:50:28	120220	12022020	065028	184.80	13.013397	-57.091885	184.92	-0.190	-0.140	1.930	184.71	-1.40	2.40	 	 	 	 	 	 	 	 	 	 	 	 	 	 	 	 	 	 	1581490228	7.40	13.70
12/02/2020 06:50:29	120220	12022020	065029	184.38	13.013360	-57.091892	184.55	-0.650	-0.360	2.890	184.31	-1.70	3.30	 	 	 	 	 	 	 	 	 	 	 	 	 	 	 	 	 	 	1581490229	7.96	14.74
12/02/2020 06:50:30	120220	12022020	065030	184.14	13.013322	-57.091903	184.39	-0.830	-0.430	3.500	184.12	-1.80	4.00	 	 	 	 	 	 	 	 	 	 	 	 	 	 	 	 	 	 	1581490230	8.40	15.56
12/02/2020 06:50:31	120220	12022020	065031	184.15	13.013285	-57.091917	184.44	-0.670	-0.300	3.510	184.17	-1.60	4.10	 	 	 	 	 	 	 	 	 	 	 	 	 	 	 	 	 	 	1581490231	8.34	15.45
12/02/2020 06:50:32	120220	12022020	065032	184.23	13.013250	-57.091928	184.54	-0.300	-0.100	3.150	184.25	-1.40	3.80	 	 	 	 	 	 	 	 	 	 	 	 	 	 	 	 	 	 	1581490232	8.01	14.83
12/02/2020 06:50:33	120220	12022020	065033	184.49	13.013215	-57.091935	184.89	0.010	0.260	2.250	184.59	-1.10	3.00	 	 	 	 	 	 	 	 	 	 	 	 	 	 	 	 	 	 	1581490233	7.81	14.46
12/02/2020 06:50:34	120220	12022020	065034	185.11	13.013180	-57.091938	185.53	0.130	0.660	0.910	185.25	-0.70	1.70	 	 	 	 	 	 	 	 	 	 	 	 	 	 	 	 	 	 	1581490234	7.47	13.83
12/02/2020 06:50:35	120220	12022020	065035	185.77	13.013147	-57.091937	186.10	0.210	0.480	-0.000	185.87	-0.80	0.60	 	 	 	 	 	 	 	 	 	 	 	 	 	 	 	 	 	 	1581490235	7.18	13.30
12/02/2020 06:50:36	120220	12022020	065036	186.01	13.013112	-57.091935	186.16	0.510	-0.560	-0.020	185.98	-1.70	0.50	 	 	 	 	 	 	 	 	 	 	 	 	 	 	 	 	 	 	1581490236	7.55	13.98
12/02/2020 06:50:37	120220	12022020	065037	185.64	13.013072	-57.091938	185.70	0.840	-1.650	0.680	185.53	-2.90	1.10	 	 	 	 	 	 	 	 	 	 	 	 	 	 	 	 	 	 	1581490237	8.43	15.61
12/02/2020 06:50:38	120220	12022020	065038	185.18	13.013032	-57.091943	185.19	0.650	-1.670	1.780	185.08	-3.10	2.20	 	 	 	 	 	 	 	 	 	 	 	 	 	 	 	 	 	 	1581490238	8.83	16.35
12/02/2020 06:50:39	120220	12022020	065039	184.69	13.012995	-57.091950	184.90	-0.090	-0.720	2.750	184.64	-2.20	3.20	 	 	 	 	 	 	 	 	 	 	 	 	 	 	 	 	 	 	1581490239	8.04	14.89
12/02/2020 06:50:40	120220	12022020	065040	184.61	13.012963	-57.091962	184.92	-0.800	0.360	3.150	184.63	-1.10	3.70	 	 	 	 	 	 	 	 	 	 	 	 	 	 	 	 	 	 	1581490240	7.34	13.59
12/02/2020 06:50:41	120220	12022020	065041	184.81	13.012932	-57.091975	185.16	-0.880	0.800	2.970	184.86	-0.50	3.60	 	 	 	 	 	 	 	 	 	 	 	 	 	 	 	 	 	 	1581490241	7.24	13.41
12/02/2020 06:50:42	120220	12022020	065042	185.13	13.012897	-57.091983	185.49	-0.360	0.550	2.410	185.20	-0.70	3.00	 	 	 	 	 	 	 	 	 	 	 	 	 	 	 	 	 	 	1581490242	7.73	14.32
12/02/2020 06:50:43	120220	12022020	065043	185.49	13.012858	-57.091988	185.84	0.140	0.060	1.900	185.57	-1.20	2.50	 	 	 	 	 	 	 	 	 	 	 	 	 	 	 	 	 	 	1581490243	8.27	15.32
12/02/2020 06:50:44	120220	12022020	065044	185.86	13.012820	-57.091992	186.19	0.180	-0.240	1.500	185.93	-1.50	2.10	 	 	 	 	 	 	 	 	 	 	 	 	 	 	 	 	 	 	1581490244	8.35	15.46
12/02/2020 06:50:45	120220	12022020	065045	186.10	13.012783	-57.091997	186.35	-0.040	-0.360	1.350	186.11	-1.70	1.90	 	 	 	 	 	 	 	 	 	 	 	 	 	 	 	 	 	 	1581490245	7.95	14.72
12/02/2020 06:50:46	120220	12022020	065046	185.99	13.012748	-57.092003	186.14	-0.080	-0.530	1.570	185.93	-1.80	2.10	 	 	 	 	 	 	 	 	 	 	 	 	 	 	 	 	 	 	1581490246	7.68	14.22
12/02/2020 06:50:47	120220	12022020	065047	185.76	13.012712	-57.092012	185.98	0.120	-0.510	1.750	185.74	-1.90	2.30	 	 	 	 	 	 	 	 	 	 	 	 	 	 	 	 	 	 	1581490247	7.85	14.54
12/02/2020 06:50:48	120220	12022020	065048	185.85	13.012677	-57.092018	186.18	0.270	-0.190	1.620	185.91	-1.60	2.20	 	 	 	 	 	 	 	 	 	 	 	 	 	 	 	 	 	 	1581490248	7.76	14.37
12/02/2020 06:50:49	120220	12022020	065049	186.18	13.012643	-57.092022	186.49	0.240	-0.020	1.480	186.24	-1.30	2.00	 	 	 	 	 	 	 	 	 	 	 	 	 	 	 	 	 	 	1581490249	7.37	13.65
12/02/2020 06:50:50	120220	12022020	065050	186.27	13.012608	-57.092027	186.39	0.260	-0.440	1.740	186.24	-1.70	2.20	 	 	 	 	 	 	 	 	 	 	 	 	 	 	 	 	 	 	1581490250	7.42	13.74
12/02/2020 06:50:51	120220	12022020	065051	185.74	13.012572	-57.092035	185.79	0.420	-1.060	2.370	185.60	-2.30	2.80	 	 	 	 	 	 	 	 	 	 	 	 	 	 	 	 	 	 	1581490251	8.15	15.09
12/02/2020 06:50:52	120220	12022020	065052	185.23	13.012532	-57.092043	185.32	0.410	-0.890	2.820	185.14	-2.30	3.30	 	 	 	 	 	 	 	 	 	 	 	 	 	 	 	 	 	 	1581490252	8.75	16.21
12/02/2020 06:50:53	120220	12022020	065053	185.13	13.012495	-57.092052	185.51	0.010	0.150	2.690	185.21	-1.30	3.30	 	 	 	 	 	 	 	 	 	 	 	 	 	 	 	 	 	 	1581490253	8.15	15.09
12/02/2020 06:50:54	120220	12022020	065054	185.77	13.012463	-57.092058	186.24	-0.570	1.060	2.230	185.94	-0.40	2.90	 	 	 	 	 	 	 	 	 	 	 	 	 	 	 	 	 	 	1581490254	7.03	13.02
12/02/2020 06:50:55	120220	12022020	065055	186.52	13.012432	-57.092065	186.87	-0.800	0.860	1.820	186.61	-0.40	2.40	 	 	 	 	 	 	 	 	 	 	 	 	 	 	 	 	 	 	1581490255	6.78	12.56
12/02/2020 06:50:56	120220	12022020	065056	186.74	13.012397	-57.092072	186.91	-0.370	-0.340	1.720	186.70	-1.50	2.30	 	 	 	 	 	 	 	 	 	 	 	 	 	 	 	 	 	 	1581490256	7.74	14.33
12/02/2020 06:50:57	120220	12022020	065057	186.43	13.012355	-57.092080	186.56	0.330	-1.340	1.900	186.35	-2.60	2.40	 	 	 	 	 	 	 	 	 	 	 	 	 	 	 	 	 	 	1581490257	8.90	16.48
12/02/2020 06:50:58	120220	12022020	065058	186.12	13.012315	-57.092087	186.30	0.600	-1.230	2.000	186.08	-2.60	2.60	 	 	 	 	 	 	 	 	 	 	 	 	 	 	 	 	 	 	1581490258	8.89	16.46
12/02/2020 06:50:59	120220	12022020	065059	185.94	13.012278	-57.092090	186.12	0.250	-0.570	1.970	185.90	-2.00	2.50	 	 	 	 	 	 	 	 	 	 	 	 	 	 	 	 	 	 	1581490259	7.76	14.37
12/02/2020 06:51:00	120220	12022020	065100	185.64	13.012245	-57.092095	185.76	-0.370	-0.270	2.260	185.55	-1.60	2.80	 	 	 	 	 	 	 	 	 	 	 	 	 	 	 	 	 	 	1581490260	7.19	13.32
12/02/2020 06:51:01	120220	12022020	065101	185.20	13.012210	-57.092103	185.34	-0.680	-0.320	2.760	185.12	-1.60	3.30	1015.20	26.20	26.20	20.60	20.70	-1.0	71.0	71.0	419.0	25.9	276.00	10.30	79.00	10.60	17	9684.0	27.2	27.3	1581490261	7.80	14.45
12/02/2020 06:51:02	120220	12022020	065102	184.94	13.012173	-57.092117	185.19	-0.460	-0.100	2.930	184.93	-1.50	3.50	 	 	 	 	 	 	 	 	 	 	 	 	 	 	 	 	 	 	1581490262	8.54	15.82
12/02/2020 06:51:03	120220	12022020	065103	185.03	13.012137	-57.092128	185.37	0.050	0.500	2.600	185.09	-0.90	3.20	 	 	 	 	 	 	 	 	 	 	 	 	 	 	 	 	 	 	1581490263	8.28	15.33
12/02/2020 06:51:04	120220	12022020	065104	185.35	13.012102	-57.092135	185.69	0.510	0.950	1.950	185.42	-0.40	2.60	 	 	 	 	 	 	 	 	 	 	 	 	 	 	 	 	 	 	1581490264	7.55	13.98
12/02/2020 06:51:05	120220	12022020	065105	185.74	13.012068	-57.092138	186.09	0.730	0.860	1.160	185.82	-0.40	1.80	 	 	 	 	 	 	 	 	 	 	 	 	 	 	 	 	 	 	1581490265	7.37	13.65
12/02/2020 06:51:06	120220	12022020	065106	186.23	13.012032	-57.092137	186.58	0.620	0.270	0.660	186.32	-0.90	1.30	 	 	 	 	 	 	 	 	 	 	 	 	 	 	 	 	 	 	1581490266	7.67	14.20
12/02/2020 06:51:07	120220	12022020	065107	186.54	13.011995	-57.092137	186.76	0.330	-0.760	0.970	186.54	-1.90	1.40	 	 	 	 	 	 	 	 	 	 	 	 	 	 	 	 	 	 	1581490267	7.86	14.56
12/02/2020 06:51:08	120220	12022020	065108	186.23	13.011958	-57.092142	186.26	0.090	-1.990	2.100	186.08	-3.10	2.50	 	 	 	 	 	 	 	 	 	 	 	 	 	 	 	 	 	 	1581490268	8.16	15.11
12/02/2020 06:51:09	120220	12022020	065109	185.27	13.011918	-57.092153	185.27	-0.020	-2.680	3.490	185.07	-4.00	3.90	 	 	 	 	 	 	 	 	 	 	 	 	 	 	 	 	 	 	1581490269	8.75	16.21
12/02/2020 06:51:10	120220	12022020	065110	184.39	13.011880	-57.092167	184.54	-0.240	-2.090	4.300	184.28	-3.50	4.80	 	 	 	 	 	 	 	 	 	 	 	 	 	 	 	 	 	 	1581490270	8.97	16.61
12/02/2020 06:51:11	120220	12022020	065111	184.14	13.011843	-57.092180	184.47	-0.630	-0.530	4.180	184.16	-2.10	4.80	 	 	 	 	 	 	 	 	 	 	 	 	 	 	 	 	 	 	1581490271	8.15	15.09
12/02/2020 06:51:12	120220	12022020	065112	184.41	13.011812	-57.092190	184.79	-0.930	0.890	3.340	184.48	-0.60	4.00	 	 	 	 	 	 	 	 	 	 	 	 	 	 	 	 	 	 	1581490272	7.17	13.28
12/02/2020 06:51:13	120220	12022020	065113	184.77	13.011780	-57.092197	185.11	-0.750	1.370	2.210	184.85	0.00	2.90	 	 	 	 	 	 	 	 	 	 	 	 	 	 	 	 	 	 	1581490273	7.14	13.22
12/02/2020 06:51:14	120220	12022020	065114	185.09	13.011742	-57.092200	185.55	-0.240	1.300	1.180	185.19	-0.00	1.90	 	 	 	 	 	 	 	 	 	 	 	 	 	 	 	 	 	 	1581490274	7.98	14.78
12/02/2020 06:51:15	120220	12022020	065115	185.76	13.011703	-57.092202	186.11	0.270	1.110	0.400	185.87	-0.20	1.10	 	 	 	 	 	 	 	 	 	 	 	 	 	 	 	 	 	 	1581490275	8.31	15.39
12/02/2020 06:51:16	120220	12022020	065116	186.22	13.011667	-57.092202	186.50	0.690	0.580	-0.070	186.29	-0.70	0.60	 	 	 	 	 	 	 	 	 	 	 	 	 	 	 	 	 	 	1581490276	7.99	14.80
12/02/2020 06:51:17	120220	12022020	065117	186.54	13.011630	-57.092202	186.81	0.950	-0.370	-0.030	186.59	-1.60	0.50	 	 	 	 	 	 	 	 	 	 	 	 	 	 	 	 	 	 	1581490277	8.01	14.83
12/02/2020 06:51:18	120220	12022020	065118	186.71	13.011592	-57.092203	186.92	0.960	-1.380	0.810	186.70	-2.60	1.20	 	 	 	 	 	 	 	 	 	 	 	 	 	 	 	 	 	 	1581490278	8.25	15.28
12/02/2020 06:51:19	120220	12022020	065119	186.46	13.011553	-57.092212	186.57	0.630	-1.920	2.270	186.35	-3.20	2.60	 	 	 	 	 	 	 	 	 	 	 	 	 	 	 	 	 	 	1581490279	8.33	15.43
12/02/2020 06:51:20	120220	12022020	065120	185.79	13.011517	-57.092222	185.84	0.020	-1.780	3.860	185.62	-3.20	4.20	 	 	 	 	 	 	 	 	 	 	 	 	 	 	 	 	 	 	1581490280	8.16	15.11
12/02/2020 06:51:21	120220	12022020	065121	184.97	13.011482	-57.092237	185.08	-0.680	-1.070	4.910	184.82	-2.50	5.40	 	 	 	 	 	 	 	 	 	 	 	 	 	 	 	 	 	 	1581490281	7.98	14.78
12/02/2020 06:51:22	120220	12022020	065122	184.49	13.011448	-57.092252	184.79	-1.200	-0.100	5.040	184.48	-1.60	5.60	 	 	 	 	 	 	 	 	 	 	 	 	 	 	 	 	 	 	1581490282	7.90	14.63
12/02/2020 06:51:23	120220	12022020	065123	184.71	13.011415	-57.092265	185.19	-1.290	0.730	4.180	184.85	-0.70	4.90	 	 	 	 	 	 	 	 	 	 	 	 	 	 	 	 	 	 	1581490283	7.71	14.28
12/02/2020 06:51:24	120220	12022020	065124	185.51	13.011382	-57.092275	186.01	-0.820	0.970	2.490	185.69	-0.40	3.30	 	 	 	 	 	 	 	 	 	 	 	 	 	 	 	 	 	 	1581490284	7.55	13.98
12/02/2020 06:51:25	120220	12022020	065125	186.31	13.011345	-57.092278	186.69	0.060	0.390	0.690	186.44	-0.80	1.50	 	 	 	 	 	 	 	 	 	 	 	 	 	 	 	 	 	 	1581490285	7.81	14.46
12/02/2020 06:51:26	120220	12022020	065126	186.76	13.011305	-57.092277	187.01	0.890	-0.410	-0.430	186.81	-1.70	0.20	 	 	 	 	 	 	 	 	 	 	 	 	 	 	 	 	 	 	1581490286	8.64	16.00
12/02/2020 06:51:27	120220	12022020	065127	186.89	13.011263	-57.092273	187.07	1.150	-0.730	-0.730	186.89	-2.10	-0.10	 	 	 	 	 	 	 	 	 	 	 	 	 	 	 	 	 	 	1581490287	8.92	16.52
12/02/2020 06:51:28	120220	12022020	065128	186.82	13.011225	-57.092273	186.95	0.780	-0.410	-0.440	186.79	-1.80	0.10	 	 	 	 	 	 	 	 	 	 	 	 	 	 	 	 	 	 	1581490288	8.31	15.39
12/02/2020 06:51:29	120220	12022020	065129	186.65	13.011190	-57.092275	186.81	0.090	0.140	0.310	186.63	-1.30	0.70	 	 	 	 	 	 	 	 	 	 	 	 	 	 	 	 	 	 	1581490289	7.50	13.89
12/02/2020 06:51:30	120220	12022020	065130	186.53	13.011157	-57.092282	186.70	-0.400	0.320	1.320	186.50	-1.00	1.70	 	 	 	 	 	 	 	 	 	 	 	 	 	 	 	 	 	 	1581490290	7.23	13.39
12/02/2020 06:51:31	120220	12022020	065131	186.38	13.011123	-57.092293	186.58	-0.410	0.010	2.220	186.36	-1.30	2.70	 	 	 	 	 	 	 	 	 	 	 	 	 	 	 	 	 	 	1581490291	7.73	14.32
12/02/2020 06:51:32	120220	12022020	065132	186.33	13.011087	-57.092305	186.62	-0.200	-0.350	2.700	186.36	-1.60	3.20	 	 	 	 	 	 	 	 	 	 	 	 	 	 	 	 	 	 	1581490292	8.33	15.43
12/02/2020 06:51:33	120220	12022020	065133	186.56	13.011050	-57.092317	186.92	-0.130	-0.460	2.790	186.63	-1.80	3.30	 	 	 	 	 	 	 	 	 	 	 	 	 	 	 	 	 	 	1581490293	8.29	15.35
12/02/2020 06:51:34	120220	12022020	065134	186.92	13.011015	-57.092327	187.24	-0.260	-0.450	2.640	186.97	-1.80	3.20	 	 	 	 	 	 	 	 	 	 	 	 	 	 	 	 	 	 	1581490294	7.81	14.46
12/02/2020 06:51:35	120220	12022020	065135	186.99	13.010980	-57.092335	187.16	-0.240	-0.760	2.550	186.94	-2.00	3.10	 	 	 	 	 	 	 	 	 	 	 	 	 	 	 	 	 	 	1581490295	7.52	13.93
12/02/2020 06:51:36	120220	12022020	065136	186.45	13.010945	-57.092342	186.45	0.120	-1.430	2.640	186.27	-2.70	3.20	 	 	 	 	 	 	 	 	 	 	 	 	 	 	 	 	 	 	1581490296	7.93	14.69
12/02/2020 06:51:37	120220	12022020	065137	185.58	13.010905	-57.092350	185.65	0.480	-1.500	2.750	185.44	-2.90	3.30	 	 	 	 	 	 	 	 	 	 	 	 	 	 	 	 	 	 	1581490297	8.76	16.22
12/02/2020 06:51:38	120220	12022020	065138	185.22	13.010865	-57.092358	185.53	0.420	-0.260	2.480	185.25	-1.80	3.10	 	 	 	 	 	 	 	 	 	 	 	 	 	 	 	 	 	 	1581490298	8.60	15.93
12/02/2020 06:51:39	120220	12022020	065139	185.70	13.010832	-57.092363	186.17	-0.010	1.500	1.610	185.87	-0.00	2.30	 	 	 	 	 	 	 	 	 	 	 	 	 	 	 	 	 	 	1581490299	7.26	13.45
12/02/2020 06:51:40	120220	12022020	065140	186.42	13.010802	-57.092363	187.00	-0.390	2.130	0.740	186.58	0.80	1.40	 	 	 	 	 	 	 	 	 	 	 	 	 	 	 	 	 	 	1581490300	6.31	11.69
12/02/2020 06:51:41	120220	12022020	065141	187.12	13.010770	-57.092365	187.38	-0.300	0.900	0.750	187.16	-0.20	1.30	 	 	 	 	 	 	 	 	 	 	 	 	 	 	 	 	 	 	1581490301	7.07	13.09
12/02/2020 06:51:42	120220	12022020	065142	187.19	13.010728	-57.092370	187.38	0.200	-0.970	1.290	187.18	-2.10	1.80	 	 	 	 	 	 	 	 	 	 	 	 	 	 	 	 	 	 	1581490302	8.78	16.26
12/02/2020 06:51:43	120220	12022020	065143	187.09	13.010685	-57.092378	187.31	0.530	-1.960	1.940	187.08	-3.20	2.40	 	 	 	 	 	 	 	 	 	 	 	 	 	 	 	 	 	 	1581490303	9.52	17.63
12/02/2020 06:51:44	120220	12022020	065144	186.98	13.010645	-57.092387	187.19	0.310	-1.820	2.840	186.94	-3.20	3.20	 	 	 	 	 	 	 	 	 	 	 	 	 	 	 	 	 	 	1581490304	8.64	16.00
12/02/2020 06:51:45	120220	12022020	065145	186.68	13.010612	-57.092397	186.81	-0.200	-1.160	3.740	186.58	-2.60	4.20	 	 	 	 	 	 	 	 	 	 	 	 	 	 	 	 	 	 	1581490305	7.64	14.15
12/02/2020 06:51:46	120220	12022020	065146	186.10	13.010580	-57.092410	186.23	-0.480	-0.430	4.280	185.98	-1.90	4.80	 	 	 	 	 	 	 	 	 	 	 	 	 	 	 	 	 	 	1581490306	7.42	13.74
12/02/2020 06:51:47	120220	12022020	065147	185.62	13.010547	-57.092422	185.80	-0.370	0.260	4.250	185.55	-1.10	4.80	 	 	 	 	 	 	 	 	 	 	 	 	 	 	 	 	 	 	1581490307	7.62	14.11
12/02/2020 06:51:48	120220	12022020	065148	185.32	13.010512	-57.092428	185.54	-0.070	0.610	3.850	185.29	-0.70	4.50	 	 	 	 	 	 	 	 	 	 	 	 	 	 	 	 	 	 	1581490308	7.68	14.22
12/02/2020 06:51:49	120220	12022020	065149	185.36	13.010475	-57.092435	185.71	0.100	0.620	3.110	185.43	-0.70	3.80	 	 	 	 	 	 	 	 	 	 	 	 	 	 	 	 	 	 	1581490309	7.97	14.76
12/02/2020 06:51:50	120220	12022020	065150	185.87	13.010437	-57.092440	186.28	0.080	0.570	2.260	186.01	-0.80	2.90	 	 	 	 	 	 	 	 	 	 	 	 	 	 	 	 	 	 	1581490310	8.16	15.11
12/02/2020 06:51:51	120220	12022020	065151	186.55	13.010400	-57.092443	186.94	0.160	0.470	1.420	186.69	-0.80	2.10	 	 	 	 	 	 	 	 	 	 	 	 	 	 	 	 	 	 	1581490311	7.92	14.67
12/02/2020 06:51:52	120220	12022020	065152	187.19	13.010365	-57.092447	187.55	0.430	0.070	0.710	187.32	-1.20	1.40	 	 	 	 	 	 	 	 	 	 	 	 	 	 	 	 	 	 	1581490312	7.65	14.17
12/02/2020 06:51:53	120220	12022020	065153	187.71	13.010328	-57.092448	187.99	0.570	-0.500	0.450	187.78	-1.80	1.00	 	 	 	 	 	 	 	 	 	 	 	 	 	 	 	 	 	 	1581490313	7.79	14.43
12/02/2020 06:51:54	120220	12022020	065154	187.88	13.010292	-57.092452	188.03	0.440	-1.070	0.660	187.86	-2.30	1.20	 	 	 	 	 	 	 	 	 	 	 	 	 	 	 	 	 	 	1581490314	7.84	14.52
12/02/2020 06:51:55	120220	12022020	065155	187.63	13.010257	-57.092457	187.73	0.150	-1.480	1.360	187.57	-2.80	1.80	 	 	 	 	 	 	 	 	 	 	 	 	 	 	 	 	 	 	1581490315	7.88	14.59
12/02/2020 06:51:56	120220	12022020	065156	187.30	13.010220	-57.092467	187.42	-0.080	-1.500	2.140	187.23	-2.80	2.60	 	 	 	 	 	 	 	 	 	 	 	 	 	 	 	 	 	 	1581490316	8.06	14.93
12/02/2020 06:51:57	120220	12022020	065157	186.90	13.010185	-57.092478	186.99	-0.190	-1.170	2.750	186.80	-2.50	3.20	 	 	 	 	 	 	 	 	 	 	 	 	 	 	 	 	 	 	1581490317	8.04	14.89
12/02/2020 06:51:58	120220	12022020	065158	186.45	13.010148	-57.092488	186.58	-0.270	-0.560	3.050	186.37	-2.00	3.60	 	 	 	 	 	 	 	 	 	 	 	 	 	 	 	 	 	 	1581490318	8.00	14.82
12/02/2020 06:51:59	120220	12022020	065159	186.19	13.010113	-57.092498	186.39	-0.440	0.300	3.010	186.16	-1.10	3.60	 	 	 	 	 	 	 	 	 	 	 	 	 	 	 	 	 	 	1581490319	7.98	14.78
12/02/2020 06:52:00	120220	12022020	065200	186.18	13.010077	-57.092505	186.43	-0.660	1.090	2.700	186.20	-0.30	3.30	 	 	 	 	 	 	 	 	 	 	 	 	 	 	 	 	 	 	1581490320	7.73	14.32
12/02/2020 06:52:01	120220	12022020	065201	186.35	13.010043	-57.092512	186.63	-0.760	1.300	2.310	186.40	0.00	2.90	1015.10	26.20	26.30	20.70	20.70	-1.0	71.0	71.0	420.0	25.9	272.00	9.80	76.00	10.50	17	9041.0	27.3	27.2	1581490321	7.57	14.02
12/02/2020 06:52:02	120220	12022020	065202	186.67	13.010007	-57.092518	186.98	-0.580	0.940	1.930	186.75	-0.30	2.50	 	 	 	 	 	 	 	 	 	 	 	 	 	 	 	 	 	 	1581490322	7.88	14.59
12/02/2020 06:52:03	120220	12022020	065203	187.06	13.009970	-57.092528	187.35	-0.010	0.350	1.440	187.13	-0.90	2.10	 	 	 	 	 	 	 	 	 	 	 	 	 	 	 	 	 	 	1581490323	8.17	15.13
12/02/2020 06:52:04	120220	12022020	065204	187.29	13.009933	-57.092535	187.49	0.830	-0.390	0.840	187.31	-1.60	1.50	 	 	 	 	 	 	 	 	 	 	 	 	 	 	 	 	 	 	1581490324	8.08	14.96
12/02/2020 06:52:05	120220	12022020	065205	187.22	13.009895	-57.092537	187.31	1.480	-1.200	0.540	187.16	-2.40	1.10	 	 	 	 	 	 	 	 	 	 	 	 	 	 	 	 	 	 	1581490325	8.08	14.96
12/02/2020 06:52:06	120220	12022020	065206	186.98	13.009857	-57.092537	187.05	1.330	-1.560	0.850	186.93	-2.90	1.30	 	 	 	 	 	 	 	 	 	 	 	 	 	 	 	 	 	 	1581490326	8.30	15.37
12/02/2020 06:52:07	120220	12022020	065207	186.81	13.009820	-57.092540	187.02	0.300	-1.230	1.650	186.82	-2.60	2.10	 	 	 	 	 	 	 	 	 	 	 	 	 	 	 	 	 	 	1581490327	8.01	14.83
12/02/2020 06:52:08	120220	12022020	065208	186.83	13.009787	-57.092548	187.05	-0.910	-0.670	2.690	186.83	-2.10	3.10	 	 	 	 	 	 	 	 	 	 	 	 	 	 	 	 	 	 	1581490328	7.47	13.83
12/02/2020 06:52:09	120220	12022020	065209	186.69	13.009753	-57.092565	186.84	-1.400	-0.410	3.670	186.63	-1.70	4.10	 	 	 	 	 	 	 	 	 	 	 	 	 	 	 	 	 	 	1581490329	7.71	14.28
12/02/2020 06:52:10	120220	12022020	065210	186.40	13.009718	-57.092582	186.60	-1.040	-0.360	4.050	186.36	-1.70	4.60	 	 	 	 	 	 	 	 	 	 	 	 	 	 	 	 	 	 	1581490330	8.38	15.52
12/02/2020 06:52:11	120220	12022020	065211	186.32	13.009682	-57.092597	186.60	-0.420	-0.030	3.710	186.34	-1.40	4.30	 	 	 	 	 	 	 	 	 	 	 	 	 	 	 	 	 	 	1581490331	8.65	16.02
12/02/2020 06:52:12	120220	12022020	065212	186.45	13.009643	-57.092605	186.73	0.030	0.470	2.920	186.48	-0.90	3.60	 	 	 	 	 	 	 	 	 	 	 	 	 	 	 	 	 	 	1581490332	8.17	15.13
12/02/2020 06:52:13	120220	12022020	065213	186.57	13.009608	-57.092610	186.80	0.320	0.660	1.900	186.58	-0.70	2.60	 	 	 	 	 	 	 	 	 	 	 	 	 	 	 	 	 	 	1581490333	7.76	14.37
12/02/2020 06:52:14	120220	12022020	065214	186.63	13.009572	-57.092610	186.85	0.630	0.530	0.910	186.65	-0.80	1.60	 	 	 	 	 	 	 	 	 	 	 	 	 	 	 	 	 	 	1581490334	7.94	14.70
12/02/2020 06:52:15	120220	12022020	065215	186.84	13.009533	-57.092608	187.13	0.800	0.430	0.170	186.92	-0.90	0.80	 	 	 	 	 	 	 	 	 	 	 	 	 	 	 	 	 	 	1581490335	8.21	15.20
12/02/2020 06:52:16	120220	12022020	065216	187.29	13.009497	-57.092607	187.56	0.520	0.190	0.130	187.36	-1.10	0.60	 	 	 	 	 	 	 	 	 	 	 	 	 	 	 	 	 	 	1581490336	7.94	14.70
12/02/2020 06:52:17	120220	12022020	065217	187.44	13.009462	-57.092608	187.57	-0.090	-0.620	1.120	187.40	-1.80	1.50	 	 	 	 	 	 	 	 	 	 	 	 	 	 	 	 	 	 	1581490337	7.57	14.02
12/02/2020 06:52:18	120220	12022020	065218	187.08	13.009425	-57.092622	186.93	-0.470	-1.820	2.830	186.94	-3.00	3.10	 	 	 	 	 	 	 	 	 	 	 	 	 	 	 	 	 	 	1581490338	8.20	15.19
12/02/2020 06:52:19	120220	12022020	065219	186.07	13.009387	-57.092642	186.12	-0.290	-2.350	4.140	185.91	-3.70	4.60	 	 	 	 	 	 	 	 	 	 	 	 	 	 	 	 	 	 	1581490339	9.27	17.17
12/02/2020 06:52:20	120220	12022020	065220	185.42	13.009348	-57.092660	185.60	0.140	-1.580	4.480	185.35	-3.10	5.00	 	 	 	 	 	 	 	 	 	 	 	 	 	 	 	 	 	 	1581490340	9.01	16.69
12/02/2020 06:52:21	120220	12022020	065221	185.19	13.009315	-57.092670	185.46	0.260	-0.280	4.050	185.19	-1.80	4.70	 	 	 	 	 	 	 	 	 	 	 	 	 	 	 	 	 	 	1581490341	7.61	14.09
12/02/2020 06:52:22	120220	12022020	065222	185.31	13.009283	-57.092675	185.64	-0.100	0.590	3.090	185.37	-0.80	3.80	 	 	 	 	 	 	 	 	 	 	 	 	 	 	 	 	 	 	1581490342	7.05	13.06
12/02/2020 06:52:23	120220	12022020	065223	185.64	13.009248	-57.092677	185.95	-0.570	0.820	2.170	185.70	-0.50	2.80	 	 	 	 	 	 	 	 	 	 	 	 	 	 	 	 	 	 	1581490343	7.48	13.85
12/02/2020 06:52:24	120220	12022020	065224	185.91	13.009212	-57.092680	186.19	-0.630	0.760	1.500	185.96	-0.60	2.10	 	 	 	 	 	 	 	 	 	 	 	 	 	 	 	 	 	 	1581490344	8.04	14.89
12/02/2020 06:52:25	120220	12022020	065225	186.15	13.009173	-57.092685	186.42	-0.150	0.620	0.980	186.21	-0.70	1.60	 	 	 	 	 	 	 	 	 	 	 	 	 	 	 	 	 	 	1581490345	8.17	15.13
12/02/2020 06:52:26	120220	12022020	065226	186.40	13.009135	-57.092687	186.63	0.490	0.210	0.710	186.43	-1.10	1.30	 	 	 	 	 	 	 	 	 	 	 	 	 	 	 	 	 	 	1581490346	8.05	14.91
12/02/2020 06:52:27	120220	12022020	065227	186.47	13.009098	-57.092688	186.66	0.810	-0.500	1.000	186.46	-1.70	1.50	 	 	 	 	 	 	 	 	 	 	 	 	 	 	 	 	 	 	1581490347	8.12	15.04
12/02/2020 06:52:28	120220	12022020	065228	186.32	13.009060	-57.092692	186.46	0.630	-1.080	1.780	186.26	-2.40	2.20	 	 	 	 	 	 	 	 	 	 	 	 	 	 	 	 	 	 	1581490348	8.32	15.41
12/02/2020 06:52:29	120220	12022020	065229	185.97	13.009022	-57.092700	186.12	0.110	-1.080	2.780	185.89	-2.50	3.20	 	 	 	 	 	 	 	 	 	 	 	 	 	 	 	 	 	 	1581490349	8.25	15.28
12/02/2020 06:52:30	120220	12022020	065230	185.70	13.008987	-57.092713	185.90	-0.450	-0.480	3.520	185.66	-1.90	4.00	 	 	 	 	 	 	 	 	 	 	 	 	 	 	 	 	 	 	1581490350	7.93	14.69
12/02/2020 06:52:31	120220	12022020	065231	185.65	13.008955	-57.092727	185.97	-0.760	0.220	3.570	185.68	-1.20	4.20	 	 	 	 	 	 	 	 	 	 	 	 	 	 	 	 	 	 	1581490351	7.47	13.83
12/02/2020 06:52:32	120220	12022020	065232	185.84	13.008923	-57.092738	186.14	-0.580	0.370	2.940	185.87	-0.90	3.60	 	 	 	 	 	 	 	 	 	 	 	 	 	 	 	 	 	 	1581490352	7.22	13.37
12/02/2020 06:52:33	120220	12022020	065233	185.97	13.008888	-57.092745	186.21	0.070	-0.250	2.020	185.97	-1.50	2.70	 	 	 	 	 	 	 	 	 	 	 	 	 	 	 	 	 	 	1581490353	7.56	14.00
12/02/2020 06:52:34	120220	12022020	065234	185.94	13.008850	-57.092747	186.15	0.780	-1.120	1.220	185.93	-2.30	1.90	 	 	 	 	 	 	 	 	 	 	 	 	 	 	 	 	 	 	1581490354	8.44	15.63
12/02/2020 06:52:35	120220	12022020	065235	185.94	13.008808	-57.092747	186.22	0.930	-1.390	0.850	185.97	-2.70	1.40	 	 	 	 	 	 	 	 	 	 	 	 	 	 	 	 	 	 	1581490355	8.97	16.61
12/02/2020 06:52:36	120220	12022020	065236	186.20	13.008768	-57.092747	186.55	0.310	-0.660	1.130	186.28	-2.20	1.60	 	 	 	 	 	 	 	 	 	 	 	 	 	 	 	 	 	 	1581490356	8.51	15.76
12/02/2020 06:52:37	120220	12022020	065237	186.63	13.008735	-57.092752	187.00	-0.700	0.520	1.740	186.71	-1.00	2.20	 	 	 	 	 	 	 	 	 	 	 	 	 	 	 	 	 	 	1581490357	7.40	13.70
12/02/2020 06:52:38	120220	12022020	065238	186.98	13.008703	-57.092762	187.31	-1.370	1.120	2.390	187.03	-0.30	2.90	 	 	 	 	 	 	 	 	 	 	 	 	 	 	 	 	 	 	1581490358	6.90	12.78
12/02/2020 06:52:39	120220	12022020	065239	187.13	13.008672	-57.092777	187.39	-1.150	0.630	2.890	187.13	-0.60	3.40	 	 	 	 	 	 	 	 	 	 	 	 	 	 	 	 	 	 	1581490359	7.51	13.91
12/02/2020 06:52:40	120220	12022020	065240	187.03	13.008635	-57.092792	187.25	-0.110	-0.340	3.020	187.00	-1.60	3.60	 	 	 	 	 	 	 	 	 	 	 	 	 	 	 	 	 	 	1581490360	8.60	15.93
12/02/2020 06:52:41	120220	12022020	065241	186.90	13.008595	-57.092803	187.15	0.930	-0.800	2.520	186.89	-2.10	3.20	 	 	 	 	 	 	 	 	 	 	 	 	 	 	 	 	 	 	1581490361	9.03	16.72
12/02/2020 06:52:42	120220	12022020	065242	186.94	13.008555	-57.092805	187.34	1.090	-0.450	1.810	186.99	-1.90	2.50	 	 	 	 	 	 	 	 	 	 	 	 	 	 	 	 	 	 	1581490362	8.42	15.59
12/02/2020 06:52:43	120220	12022020	065243	187.36	13.008520	-57.092805	187.71	0.360	0.170	1.340	187.44	-1.20	1.90	 	 	 	 	 	 	 	 	 	 	 	 	 	 	 	 	 	 	1581490363	7.47	13.83
12/02/2020 06:52:44	120220	12022020	065244	187.61	13.008488	-57.092807	187.81	-0.400	0.250	1.380	187.60	-1.10	1.90	 	 	 	 	 	 	 	 	 	 	 	 	 	 	 	 	 	 	1581490364	6.81	12.61
12/02/2020 06:52:45	120220	12022020	065245	187.33	13.008457	-57.092815	187.41	-0.320	-0.410	1.940	187.24	-1.60	2.40	 	 	 	 	 	 	 	 	 	 	 	 	 	 	 	 	 	 	1581490365	7.30	13.52
12/02/2020 06:52:46	120220	12022020	065246	186.76	13.008418	-57.092828	186.90	0.360	-0.970	2.500	186.68	-2.30	3.00	 	 	 	 	 	 	 	 	 	 	 	 	 	 	 	 	 	 	1581490366	8.39	15.54
12/02/2020 06:52:47	120220	12022020	065247	186.52	13.008380	-57.092837	186.77	0.610	-0.770	2.660	186.52	-2.20	3.20	 	 	 	 	 	 	 	 	 	 	 	 	 	 	 	 	 	 	1581490367	8.51	15.76
12/02/2020 06:52:48	120220	12022020	065248	186.53	13.008345	-57.092845	186.78	0.080	-0.240	2.700	186.52	-1.60	3.20	 	 	 	 	 	 	 	 	 	 	 	 	 	 	 	 	 	 	1581490368	7.67	14.20
12/02/2020 06:52:49	120220	12022020	065249	186.41	13.008313	-57.092855	186.60	-0.610	0.040	2.980	186.37	-1.30	3.50	 	 	 	 	 	 	 	 	 	 	 	 	 	 	 	 	 	 	1581490369	7.24	13.41
12/02/2020 06:52:50	120220	12022020	065250	186.22	13.008280	-57.092867	186.46	-0.680	0.040	3.040	186.21	-1.30	3.60	 	 	 	 	 	 	 	 	 	 	 	 	 	 	 	 	 	 	1581490370	7.66	14.19
12/02/2020 06:52:51	120220	12022020	065251	186.26	13.008245	-57.092878	186.58	-0.100	-0.020	2.550	186.31	-1.30	3.20	 	 	 	 	 	 	 	 	 	 	 	 	 	 	 	 	 	 	1581490371	7.98	14.78
12/02/2020 06:52:52	120220	12022020	065252	186.60	13.008208	-57.092885	186.95	0.500	-0.100	1.750	186.69	-1.40	2.40	 	 	 	 	 	 	 	 	 	 	 	 	 	 	 	 	 	 	1581490372	7.92	14.67
12/02/2020 06:52:53	120220	12022020	065253	186.98	13.008172	-57.092888	187.26	0.640	-0.350	1.170	187.03	-1.60	1.80	 	 	 	 	 	 	 	 	 	 	 	 	 	 	 	 	 	 	1581490373	7.81	14.46
12/02/2020 06:52:54	120220	12022020	065254	187.07	13.008135	-57.092890	187.21	0.370	-0.780	1.170	187.05	-2.10	1.70	 	 	 	 	 	 	 	 	 	 	 	 	 	 	 	 	 	 	1581490374	7.88	14.59
12/02/2020 06:52:55	120220	12022020	065255	186.71	13.008098	-57.092893	186.81	-0.030	-1.040	1.740	186.61	-2.40	2.20	 	 	 	 	 	 	 	 	 	 	 	 	 	 	 	 	 	 	1581490375	8.10	15.00
12/02/2020 06:52:56	120220	12022020	065256	186.21	13.008060	-57.092900	186.34	-0.390	-0.840	2.640	186.12	-2.20	3.10	 	 	 	 	 	 	 	 	 	 	 	 	 	 	 	 	 	 	1581490376	8.16	15.11
12/02/2020 06:52:57	120220	12022020	065257	185.81	13.008025	-57.092912	186.00	-0.580	-0.240	3.470	185.75	-1.70	3.90	 	 	 	 	 	 	 	 	 	 	 	 	 	 	 	 	 	 	1581490377	7.98	14.78
12/02/2020 06:52:58	120220	12022020	065258	185.51	13.007992	-57.092925	185.69	-0.530	0.300	3.890	185.46	-1.10	4.40	 	 	 	 	 	 	 	 	 	 	 	 	 	 	 	 	 	 	1581490378	7.81	14.46
12/02/2020 06:52:59	120220	12022020	065259	185.20	13.007957	-57.092937	185.38	-0.280	0.530	3.790	185.15	-0.80	4.40	 	 	 	 	 	 	 	 	 	 	 	 	 	 	 	 	 	 	1581490379	7.81	14.46
12/02/2020 06:53:00	120220	12022020	065300	185.08	13.007922	-57.092945	185.36	-0.060	0.640	3.230	185.11	-0.70	3.90	 	 	 	 	 	 	 	 	 	 	 	 	 	 	 	 	 	 	1581490380	7.93	14.69
12/02/2020 06:53:01	120220	12022020	065301	185.43	13.007885	-57.092950	185.82	-0.040	0.700	2.300	185.55	-0.60	3.00	1015.20	26.10	26.20	20.40	20.50	-1.0	70.0	71.0	422.0	25.9	276.00	10.70	81.00	11.00	17	9542.0	27.3	27.2	1581490381	7.79	14.43
12/02/2020 06:53:02	120220	12022020	065302	186.04	13.007850	-57.092953	186.38	-0.030	0.400	1.320	186.15	-0.90	2.00	 	 	 	 	 	 	 	 	 	 	 	 	 	 	 	 	 	 	1581490382	7.44	13.78
12/02/2020 06:53:03	120220	12022020	065303	186.49	13.007817	-57.092957	186.77	0.260	-0.290	0.600	186.57	-1.50	1.30	 	 	 	 	 	 	 	 	 	 	 	 	 	 	 	 	 	 	1581490383	7.51	13.91
12/02/2020 06:53:04	120220	12022020	065304	186.82	13.007780	-57.092962	187.08	0.800	-0.960	0.190	186.88	-2.20	0.80	 	 	 	 	 	 	 	 	 	 	 	 	 	 	 	 	 	 	1581490384	7.85	14.54
12/02/2020 06:53:05	120220	12022020	065305	186.97	13.007743	-57.092963	187.15	1.200	-1.460	0.280	186.96	-2.80	0.80	 	 	 	 	 	 	 	 	 	 	 	 	 	 	 	 	 	 	1581490385	7.87	14.58
12/02/2020 06:53:06	120220	12022020	065306	186.79	13.007707	-57.092967	186.76	1.150	-1.780	0.960	186.69	-3.10	1.40	 	 	 	 	 	 	 	 	 	 	 	 	 	 	 	 	 	 	1581490386	7.82	14.48
12/02/2020 06:53:07	120220	12022020	065307	186.16	13.007670	-57.092972	186.29	0.490	-1.560	1.980	186.08	-3.00	2.40	 	 	 	 	 	 	 	 	 	 	 	 	 	 	 	 	 	 	1581490387	8.05	14.91
12/02/2020 06:53:08	120220	12022020	065308	185.89	13.007633	-57.092980	186.08	-0.640	-0.570	3.130	185.85	-2.10	3.50	 	 	 	 	 	 	 	 	 	 	 	 	 	 	 	 	 	 	1581490388	8.00	14.82
12/02/2020 06:53:09	120220	12022020	065309	185.80	13.007600	-57.092993	186.09	-1.620	0.620	3.950	185.81	-0.90	4.40	 	 	 	 	 	 	 	 	 	 	 	 	 	 	 	 	 	 	1581490389	7.65	14.17
12/02/2020 06:53:10	120220	12022020	065310	185.88	13.007568	-57.093010	186.19	-1.840	1.230	4.200	185.91	-0.10	4.80	 	 	 	 	 	 	 	 	 	 	 	 	 	 	 	 	 	 	1581490390	7.60	14.08
12/02/2020 06:53:11	120220	12022020	065311	186.01	13.007535	-57.093023	186.28	-1.220	0.970	3.950	186.02	-0.30	4.60	 	 	 	 	 	 	 	 	 	 	 	 	 	 	 	 	 	 	1581490391	7.97	14.76
12/02/2020 06:53:12	120220	12022020	065312	186.07	13.007497	-57.093035	186.31	-0.210	0.330	3.370	186.08	-0.90	4.00	 	 	 	 	 	 	 	 	 	 	 	 	 	 	 	 	 	 	1581490392	8.54	15.82
12/02/2020 06:53:13	120220	12022020	065313	186.21	13.007457	-57.093042	186.49	0.600	0.060	2.420	186.27	-1.30	3.20	 	 	 	 	 	 	 	 	 	 	 	 	 	 	 	 	 	 	1581490393	8.69	16.09
12/02/2020 06:53:14	120220	12022020	065314	186.57	13.007420	-57.093045	186.87	0.910	0.190	1.230	186.66	-1.20	2.00	 	 	 	 	 	 	 	 	 	 	 	 	 	 	 	 	 	 	1581490394	8.03	14.87
12/02/2020 06:53:15	120220	12022020	065315	187.01	13.007385	-57.093043	187.27	0.920	0.170	0.120	187.09	-1.20	0.90	 	 	 	 	 	 	 	 	 	 	 	 	 	 	 	 	 	 	1581490395	7.26	13.45
12/02/2020 06:53:16	120220	12022020	065316	187.38	13.007352	-57.093042	187.59	0.860	-0.410	-0.400	187.43	-1.70	0.20	 	 	 	 	 	 	 	 	 	 	 	 	 	 	 	 	 	 	1581490396	7.18	13.30
12/02/2020 06:53:17	120220	12022020	065317	187.43	13.007317	-57.093042	187.47	0.770	-1.470	0.070	187.37	-2.70	0.60	 	 	 	 	 	 	 	 	 	 	 	 	 	 	 	 	 	 	1581490397	7.64	14.15
12/02/2020 06:53:18	120220	12022020	065318	186.81	13.007278	-57.093047	186.70	0.520	-2.320	1.430	186.61	-3.60	1.80	 	 	 	 	 	 	 	 	 	 	 	 	 	 	 	 	 	 	1581490398	8.26	15.30
12/02/2020 06:53:19	120220	12022020	065319	185.79	13.007240	-57.093057	185.74	-0.060	-2.110	3.110	185.60	-3.60	3.50	 	 	 	 	 	 	 	 	 	 	 	 	 	 	 	 	 	 	1581490399	8.69	16.09
12/02/2020 06:53:20	120220	12022020	065320	185.19	13.007203	-57.093072	185.30	-0.850	-0.760	4.300	185.12	-2.30	4.80	 	 	 	 	 	 	 	 	 	 	 	 	 	 	 	 	 	 	1581490400	8.44	15.63
12/02/2020 06:53:21	120220	12022020	065321	185.23	13.007172	-57.093090	185.64	-1.450	1.030	4.380	185.35	-0.50	5.00	 	 	 	 	 	 	 	 	 	 	 	 	 	 	 	 	 	 	1581490401	7.72	14.30
12/02/2020 06:53:22	120220	12022020	065322	185.92	13.007142	-57.093103	186.33	-1.490	1.960	3.620	186.05	0.60	4.30	 	 	 	 	 	 	 	 	 	 	 	 	 	 	 	 	 	 	1581490402	6.95	12.87
12/02/2020 06:53:23	120220	12022020	065323	186.51	13.007110	-57.093112	186.80	-0.810	1.410	2.670	186.58	0.20	3.40	 	 	 	 	 	 	 	 	 	 	 	 	 	 	 	 	 	 	1581490403	7.22	13.37
12/02/2020 06:53:24	120220	12022020	065324	186.74	13.007072	-57.093117	186.95	0.180	0.150	1.840	186.76	-1.10	2.50	 	 	 	 	 	 	 	 	 	 	 	 	 	 	 	 	 	 	1581490404	8.44	15.63
12/02/2020 06:53:25	120220	12022020	065325	186.79	13.007028	-57.093122	186.94	0.920	-0.600	1.290	186.77	-1.90	1.90	 	 	 	 	 	 	 	 	 	 	 	 	 	 	 	 	 	 	1581490405	9.06	16.78
12/02/2020 06:53:26	120220	12022020	065326	186.68	13.006990	-57.093123	186.81	1.150	-0.630	1.040	186.65	-2.00	1.70	 	 	 	 	 	 	 	 	 	 	 	 	 	 	 	 	 	 	1581490406	8.33	15.43
12/02/2020 06:53:27	120220	12022020	065327	186.58	13.006957	-57.093125	186.77	1.000	-0.400	0.840	186.59	-1.80	1.50	 	 	 	 	 	 	 	 	 	 	 	 	 	 	 	 	 	 	1581490407	7.43	13.76
12/02/2020 06:53:28	120220	12022020	065328	186.70	13.006923	-57.093127	186.93	0.670	-0.240	0.750	186.74	-1.60	1.40	 	 	 	 	 	 	 	 	 	 	 	 	 	 	 	 	 	 	1581490408	7.11	13.17
12/02/2020 06:53:29	120220	12022020	065329	186.85	13.006890	-57.093130	187.02	0.290	-0.500	1.170	186.83	-1.80	1.70	 	 	 	 	 	 	 	 	 	 	 	 	 	 	 	 	 	 	1581490409	7.13	13.20
12/02/2020 06:53:30	120220	12022020	065330	186.58	13.006855	-57.093137	186.61	-0.070	-1.220	2.270	186.46	-2.50	2.70	 	 	 	 	 	 	 	 	 	 	 	 	 	 	 	 	 	 	1581490410	7.63	14.13
12/02/2020 06:53:31	120220	12022020	065331	185.88	13.006817	-57.093148	185.93	-0.390	-1.820	3.570	185.74	-3.10	4.00	 	 	 	 	 	 	 	 	 	 	 	 	 	 	 	 	 	 	1581490411	8.52	15.78
12/02/2020 06:53:32	120220	12022020	065332	185.29	13.006778	-57.093163	185.44	-0.710	-1.550	4.480	185.20	-3.00	5.00	 	 	 	 	 	 	 	 	 	 	 	 	 	 	 	 	 	 	1581490412	9.06	16.78
12/02/2020 06:53:33	120220	12022020	065333	184.98	13.006742	-57.093180	185.23	-0.920	-0.270	4.650	184.96	-1.80	5.20	 	 	 	 	 	 	 	 	 	 	 	 	 	 	 	 	 	 	1581490413	8.62	15.96
12/02/2020 06:53:34	120220	12022020	065334	185.02	13.006708	-57.093193	185.39	-0.850	1.250	3.930	185.09	-0.30	4.70	 	 	 	 	 	 	 	 	 	 	 	 	 	 	 	 	 	 	1581490414	7.57	14.02
12/02/2020 06:53:35	120220	12022020	065335	185.55	13.006678	-57.093202	185.97	-0.420	1.950	2.440	185.68	0.60	3.30	 	 	 	 	 	 	 	 	 	 	 	 	 	 	 	 	 	 	1581490415	6.86	12.70
12/02/2020 06:53:36	120220	12022020	065336	186.27	13.006643	-57.093202	186.65	0.220	1.400	0.920	186.40	0.20	1.70	 	 	 	 	 	 	 	 	 	 	 	 	 	 	 	 	 	 	1581490416	7.30	13.52
12/02/2020 06:53:37	120220	12022020	065337	186.81	13.006605	-57.093198	187.08	0.770	0.090	0.010	186.87	-1.10	0.70	 	 	 	 	 	 	 	 	 	 	 	 	 	 	 	 	 	 	1581490417	8.34	15.45
12/02/2020 06:53:38	120220	12022020	065338	187.00	13.006565	-57.093197	187.17	1.000	-1.040	-0.080	187.00	-2.30	0.50	 	 	 	 	 	 	 	 	 	 	 	 	 	 	 	 	 	 	1581490418	8.80	16.30
12/02/2020 06:53:39	120220	12022020	065339	186.91	13.006525	-57.093198	187.05	0.850	-1.450	0.480	186.86	-2.80	1.00	 	 	 	 	 	 	 	 	 	 	 	 	 	 	 	 	 	 	1581490419	8.37	15.50
12/02/2020 06:53:40	120220	12022020	065340	186.60	13.006490	-57.093203	186.69	0.500	-1.350	1.470	186.51	-2.80	1.90	 	 	 	 	 	 	 	 	 	 	 	 	 	 	 	 	 	 	1581490420	7.63	14.13
12/02/2020 06:53:41	120220	12022020	065341	186.09	13.006457	-57.093213	186.22	0.030	-1.090	2.700	186.00	-2.50	3.10	 	 	 	 	 	 	 	 	 	 	 	 	 	 	 	 	 	 	1581490421	7.35	13.61
12/02/2020 06:53:42	120220	12022020	065342	185.77	13.006423	-57.093225	186.02	-0.490	-0.650	3.600	185.76	-2.10	4.10	 	 	 	 	 	 	 	 	 	 	 	 	 	 	 	 	 	 	1581490422	7.70	14.26
12/02/2020 06:53:43	120220	12022020	065343	185.81	13.006390	-57.093240	186.11	-0.860	-0.130	3.900	185.83	-1.60	4.40	 	 	 	 	 	 	 	 	 	 	 	 	 	 	 	 	 	 	1581490423	7.90	14.63
12/02/2020 06:53:44	120220	12022020	065344	185.88	13.006357	-57.093253	186.14	-0.780	0.160	3.760	185.89	-1.20	4.40	 	 	 	 	 	 	 	 	 	 	 	 	 	 	 	 	 	 	1581490424	7.84	14.52
12/02/2020 06:53:45	120220	12022020	065345	185.88	13.006320	-57.093265	186.14	-0.230	0.150	3.140	185.89	-1.20	3.80	 	 	 	 	 	 	 	 	 	 	 	 	 	 	 	 	 	 	1581490425	7.97	14.76
12/02/2020 06:53:46	120220	12022020	065346	186.13	13.006283	-57.093270	186.53	0.300	0.280	1.980	186.25	-1.10	2.70	 	 	 	 	 	 	 	 	 	 	 	 	 	 	 	 	 	 	1581490426	8.25	15.28
12/02/2020 06:53:47	120220	12022020	065347	186.86	13.006245	-57.093272	187.29	0.420	0.540	0.870	187.02	-0.90	1.60	 	 	 	 	 	 	 	 	 	 	 	 	 	 	 	 	 	 	1581490427	8.00	14.82
12/02/2020 06:53:48	120220	12022020	065348	187.54	13.006210	-57.093270	187.81	0.260	0.290	0.350	187.61	-1.00	1.00	 	 	 	 	 	 	 	 	 	 	 	 	 	 	 	 	 	 	1581490428	7.53	13.95
12/02/2020 06:53:49	120220	12022020	065349	187.63	13.006175	-57.093270	187.74	0.170	-0.630	0.560	187.58	-1.90	1.10	 	 	 	 	 	 	 	 	 	 	 	 	 	 	 	 	 	 	1581490429	7.71	14.28
12/02/2020 06:53:50	120220	12022020	065350	187.34	13.006135	-57.093277	187.45	0.130	-1.260	1.350	187.28	-2.60	1.80	 	 	 	 	 	 	 	 	 	 	 	 	 	 	 	 	 	 	1581490430	8.47	15.69
12/02/2020 06:53:51	120220	12022020	065351	187.09	13.006097	-57.093287	187.26	-0.040	-0.860	2.270	187.05	-2.30	2.70	 	 	 	 	 	 	 	 	 	 	 	 	 	 	 	 	 	 	1581490431	8.43	15.61
12/02/2020 06:53:52	120220	12022020	065352	186.90	13.006065	-57.093298	187.03	-0.300	-0.020	2.890	186.84	-1.50	3.40	 	 	 	 	 	 	 	 	 	 	 	 	 	 	 	 	 	 	1581490432	7.45	13.80
12/02/2020 06:53:53	120220	12022020	065353	186.55	13.006035	-57.093310	186.65	-0.370	0.200	3.190	186.47	-1.20	3.70	 	 	 	 	 	 	 	 	 	 	 	 	 	 	 	 	 	 	1581490433	6.98	12.93
12/02/2020 06:53:54	120220	12022020	065354	186.24	13.006000	-57.093320	186.42	-0.160	-0.160	3.160	186.21	-1.50	3.70	 	 	 	 	 	 	 	 	 	 	 	 	 	 	 	 	 	 	1581490434	7.70	14.26
12/02/2020 06:53:55	120220	12022020	065355	186.29	13.005962	-57.093330	186.61	0.190	-0.300	2.650	186.36	-1.70	3.30	 	 	 	 	 	 	 	 	 	 	 	 	 	 	 	 	 	 	1581490435	8.39	15.54
12/02/2020 06:53:56	120220	12022020	065356	186.79	13.005925	-57.093335	187.15	0.420	-0.020	1.640	186.91	-1.40	2.40	 	 	 	 	 	 	 	 	 	 	 	 	 	 	 	 	 	 	1581490436	8.10	15.00
12/02/2020 06:53:57	120220	12022020	065357	187.33	13.005890	-57.093338	187.60	0.480	0.120	0.700	187.40	-1.20	1.40	 	 	 	 	 	 	 	 	 	 	 	 	 	 	 	 	 	 	1581490437	7.38	13.67
12/02/2020 06:53:58	120220	12022020	065358	187.48	13.005857	-57.093338	187.61	0.460	-0.360	0.610	187.47	-1.60	1.20	 	 	 	 	 	 	 	 	 	 	 	 	 	 	 	 	 	 	1581490438	7.40	13.70
12/02/2020 06:53:59	120220	12022020	065359	187.21	13.005818	-57.093342	187.27	0.300	-1.040	1.280	187.13	-2.30	1.70	 	 	 	 	 	 	 	 	 	 	 	 	 	 	 	 	 	 	1581490439	8.04	14.89
12/02/2020 06:54:00	120220	12022020	065400	186.75	13.005780	-57.093350	186.85	-0.120	-1.090	2.160	186.68	-2.50	2.60	 	 	 	 	 	 	 	 	 	 	 	 	 	 	 	 	 	 	1581490440	8.46	15.67
12/02/2020 06:54:01	120220	12022020	065401	186.51	13.005745	-57.093362	186.73	-0.680	-0.350	2.820	186.51	-1.90	3.30	1015.10	26.20	26.20	20.30	20.40	-1.0	70.0	70.0	423.0	25.9	274.00	10.80	80.00	11.20	17	10738.0	27.2	27.2	1581490441	8.12	15.04
12/02/2020 06:54:02	120220	12022020	065402	186.59	13.005712	-57.093375	186.85	-0.930	0.470	2.960	186.63	-1.00	3.50	 	 	 	 	 	 	 	 	 	 	 	 	 	 	 	 	 	 	1581490442	7.44	13.78
12/02/2020 06:54:03	120220	12022020	065403	186.75	13.005682	-57.093387	187.00	-0.590	0.590	2.660	186.79	-0.80	3.30	 	 	 	 	 	 	 	 	 	 	 	 	 	 	 	 	 	 	1581490443	7.20	13.33
12/02/2020 06:54:04	120220	12022020	065404	186.91	13.005645	-57.093395	187.13	0.030	0.020	2.250	186.93	-1.30	2.90	 	 	 	 	 	 	 	 	 	 	 	 	 	 	 	 	 	 	1581490444	7.82	14.48
12/02/2020 06:54:05	120220	12022020	065405	187.00	13.005607	-57.093400	187.20	0.360	-0.600	2.170	187.01	-1.90	2.70	 	 	 	 	 	 	 	 	 	 	 	 	 	 	 	 	 	 	1581490445	8.48	15.70
12/02/2020 06:54:06	120220	12022020	065406	186.97	13.005567	-57.093405	187.13	0.250	-0.640	2.240	186.94	-2.00	2.80	 	 	 	 	 	 	 	 	 	 	 	 	 	 	 	 	 	 	1581490446	8.48	15.70
12/02/2020 06:54:07	120220	12022020	065407	186.79	13.005532	-57.093413	186.90	0.020	-0.180	2.380	186.73	-1.60	2.90	 	 	 	 	 	 	 	 	 	 	 	 	 	 	 	 	 	 	1581490447	7.79	14.43
12/02/2020 06:54:08	120220	12022020	065408	186.49	13.005500	-57.093422	186.59	0.100	0.220	2.400	186.43	-1.20	3.00	 	 	 	 	 	 	 	 	 	 	 	 	 	 	 	 	 	 	1581490448	7.20	13.33
12/02/2020 06:54:09	120220	12022020	065409	186.23	13.005467	-57.093428	186.35	0.500	0.200	2.080	186.20	-1.10	2.70	 	 	 	 	 	 	 	 	 	 	 	 	 	 	 	 	 	 	1581490449	7.20	13.33
12/02/2020 06:54:10	120220	12022020	065410	186.11	13.005432	-57.093432	186.22	0.760	-0.290	1.770	186.09	-1.60	2.40	 	 	 	 	 	 	 	 	 	 	 	 	 	 	 	 	 	 	1581490450	7.64	14.15
12/02/2020 06:54:11	120220	12022020	065411	186.00	13.005393	-57.093435	186.17	0.540	-0.790	1.860	186.00	-2.10	2.40	 	 	 	 	 	 	 	 	 	 	 	 	 	 	 	 	 	 	1581490451	8.17	15.13
12/02/2020 06:54:12	120220	12022020	065412	186.08	13.005355	-57.093440	186.41	-0.160	-0.720	2.250	186.13	-2.10	2.80	 	 	 	 	 	 	 	 	 	 	 	 	 	 	 	 	 	 	1581490452	8.29	15.35
12/02/2020 06:54:13	120220	12022020	065413	186.51	13.005320	-57.093448	186.81	-0.870	-0.220	2.610	186.58	-1.70	3.10	 	 	 	 	 	 	 	 	 	 	 	 	 	 	 	 	 	 	1581490453	7.75	14.35
12/02/2020 06:54:14	120220	12022020	065414	186.86	13.005288	-57.093462	187.12	-1.080	0.010	2.840	186.91	-1.40	3.40	 	 	 	 	 	 	 	 	 	 	 	 	 	 	 	 	 	 	1581490454	7.36	13.63
12/02/2020 06:54:15	120220	12022020	065415	187.00	13.005255	-57.093475	187.21	-0.560	-0.280	2.630	187.00	-1.60	3.30	 	 	 	 	 	 	 	 	 	 	 	 	 	 	 	 	 	 	1581490455	7.65	14.17
12/02/2020 06:54:16	120220	12022020	065416	186.89	13.005218	-57.093485	187.03	0.260	-0.700	2.090	186.84	-2.00	2.70	 	 	 	 	 	 	 	 	 	 	 	 	 	 	 	 	 	 	1581490456	8.13	15.06
12/02/2020 06:54:17	120220	12022020	065417	186.60	13.005180	-57.093488	186.72	0.660	-0.660	1.740	186.54	-2.00	2.30	 	 	 	 	 	 	 	 	 	 	 	 	 	 	 	 	 	 	1581490457	8.39	15.54
12/02/2020 06:54:18	120220	12022020	065418	186.34	13.005142	-57.093490	186.49	0.360	-0.120	1.570	186.31	-1.60	2.20	 	 	 	 	 	 	 	 	 	 	 	 	 	 	 	 	 	 	1581490458	8.03	14.87
12/02/2020 06:54:19	120220	12022020	065419	186.21	13.005108	-57.093492	186.37	-0.210	0.400	1.550	186.20	-1.00	2.10	 	 	 	 	 	 	 	 	 	 	 	 	 	 	 	 	 	 	1581490459	7.41	13.72
12/02/2020 06:54:20	120220	12022020	065420	186.14	13.005075	-57.093498	186.30	-0.460	0.400	1.750	186.13	-0.90	2.30	 	 	 	 	 	 	 	 	 	 	 	 	 	 	 	 	 	 	1581490460	7.35	13.61
12/02/2020 06:54:21	120220	12022020	065421	186.08	13.005038	-57.093507	186.26	-0.230	0.060	2.060	186.07	-1.20	2.60	 	 	 	 	 	 	 	 	 	 	 	 	 	 	 	 	 	 	1581490461	7.91	14.65
12/02/2020 06:54:22	120220	12022020	065422	186.08	13.005002	-57.093517	186.31	0.180	-0.210	2.220	186.10	-1.50	2.80	 	 	 	 	 	 	 	 	 	 	 	 	 	 	 	 	 	 	1581490462	8.26	15.30
12/02/2020 06:54:23	120220	12022020	065423	186.22	13.004965	-57.093525	186.51	0.300	-0.270	2.200	186.27	-1.60	2.80	 	 	 	 	 	 	 	 	 	 	 	 	 	 	 	 	 	 	1581490463	8.08	14.96
12/02/2020 06:54:24	120220	12022020	065424	186.53	13.004930	-57.093532	186.83	0.060	-0.360	2.080	186.59	-1.70	2.60	 	 	 	 	 	 	 	 	 	 	 	 	 	 	 	 	 	 	1581490464	7.70	14.26
12/02/2020 06:54:25	120220	12022020	065425	186.80	13.004895	-57.093538	187.02	-0.170	-0.590	2.100	186.82	-1.90	2.70	 	 	 	 	 	 	 	 	 	 	 	 	 	 	 	 	 	 	1581490465	7.60	14.08
12/02/2020 06:54:26	120220	12022020	065426	186.75	13.004860	-57.093548	186.87	0.030	-0.830	2.210	186.70	-2.20	2.80	 	 	 	 	 	 	 	 	 	 	 	 	 	 	 	 	 	 	1581490466	7.80	14.45
12/02/2020 06:54:27	120220	12022020	065427	186.41	13.004823	-57.093555	186.51	0.490	-0.770	2.300	186.33	-2.20	2.80	 	 	 	 	 	 	 	 	 	 	 	 	 	 	 	 	 	 	1581490467	7.98	14.78
12/02/2020 06:54:28	120220	12022020	065428	186.07	13.004787	-57.093560	186.23	0.540	-0.340	2.440	186.03	-1.80	3.00	 	 	 	 	 	 	 	 	 	 	 	 	 	 	 	 	 	 	1581490468	7.90	14.63
12/02/2020 06:54:29	120220	12022020	065429	186.02	13.004752	-57.093563	186.27	-0.040	0.150	2.740	186.05	-1.30	3.30	 	 	 	 	 	 	 	 	 	 	 	 	 	 	 	 	 	 	1581490469	7.63	14.13
12/02/2020 06:54:30	120220	12022020	065430	186.19	13.004718	-57.093572	186.45	-0.780	0.430	3.100	186.23	-0.90	3.60	 	 	 	 	 	 	 	 	 	 	 	 	 	 	 	 	 	 	1581490470	7.47	13.83
12/02/2020 06:54:31	120220	12022020	065431	186.35	13.004683	-57.093582	186.59	-0.960	0.350	3.180	186.37	-1.00	3.80	 	 	 	 	 	 	 	 	 	 	 	 	 	 	 	 	 	 	1581490471	7.69	14.24
12/02/2020 06:54:32	120220	12022020	065432	186.44	13.004648	-57.093593	186.67	-0.410	-0.100	2.790	186.46	-1.40	3.40	 	 	 	 	 	 	 	 	 	 	 	 	 	 	 	 	 	 	1581490472	7.99	14.80
12/02/2020 06:54:33	120220	12022020	065433	186.45	13.004610	-57.093602	186.64	0.360	-0.720	2.230	186.44	-2.00	2.90	 	 	 	 	 	 	 	 	 	 	 	 	 	 	 	 	 	 	1581490473	8.24	15.26
12/02/2020 06:54:34	120220	12022020	065434	186.37	13.004572	-57.093605	186.49	0.740	-1.150	1.690	186.34	-2.50	2.30	 	 	 	 	 	 	 	 	 	 	 	 	 	 	 	 	 	 	1581490474	8.42	15.59
12/02/2020 06:54:35	120220	12022020	065435	186.20	13.004533	-57.093608	186.38	0.520	-0.930	1.400	186.18	-2.40	2.00	 	 	 	 	 	 	 	 	 	 	 	 	 	 	 	 	 	 	1581490475	8.35	15.46
12/02/2020 06:54:36	120220	12022020	065436	186.18	13.004497	-57.093612	186.40	-0.040	-0.060	1.610	186.18	-1.50	2.10	 	 	 	 	 	 	 	 	 	 	 	 	 	 	 	 	 	 	1581490476	7.73	14.32
12/02/2020 06:54:37	120220	12022020	065437	186.22	13.004465	-57.093618	186.46	-0.410	0.680	1.870	186.25	-0.80	2.40	 	 	 	 	 	 	 	 	 	 	 	 	 	 	 	 	 	 	1581490477	7.07	13.09
12/02/2020 06:54:38	120220	12022020	065438	186.42	13.004432	-57.093627	186.70	-0.370	0.850	1.780	186.48	-0.50	2.40	 	 	 	 	 	 	 	 	 	 	 	 	 	 	 	 	 	 	1581490478	7.24	13.41
12/02/2020 06:54:39	120220	12022020	065439	186.72	13.004397	-57.093635	187.00	-0.010	0.440	1.650	186.79	-0.80	2.20	 	 	 	 	 	 	 	 	 	 	 	 	 	 	 	 	 	 	1581490479	7.69	14.24
12/02/2020 06:54:40	120220	12022020	065440	186.92	13.004360	-57.093642	187.12	0.350	-0.330	1.680	186.92	-1.60	2.20	 	 	 	 	 	 	 	 	 	 	 	 	 	 	 	 	 	 	1581490480	8.10	15.00
12/02/2020 06:54:41	120220	12022020	065441	186.76	13.004322	-57.093647	186.86	0.390	-1.220	1.960	186.69	-2.50	2.50	 	 	 	 	 	 	 	 	 	 	 	 	 	 	 	 	 	 	1581490481	8.38	15.52
12/02/2020 06:54:42	120220	12022020	065442	186.30	13.004282	-57.093652	186.38	0.060	-1.620	2.750	186.19	-3.00	3.20	 	 	 	 	 	 	 	 	 	 	 	 	 	 	 	 	 	 	1581490482	8.59	15.91
12/02/2020 06:54:43	120220	12022020	065443	185.82	13.004245	-57.093663	185.97	-0.340	-1.150	3.460	185.75	-2.60	4.00	 	 	 	 	 	 	 	 	 	 	 	 	 	 	 	 	 	 	1581490483	8.42	15.59
12/02/2020 06:54:44	120220	12022020	065444	185.48	13.004210	-57.093677	185.66	-0.470	-0.130	3.650	185.43	-1.60	4.20	 	 	 	 	 	 	 	 	 	 	 	 	 	 	 	 	 	 	1581490484	7.79	14.43
12/02/2020 06:54:45	120220	12022020	065445	185.35	13.004178	-57.093687	185.61	-0.310	0.660	3.230	185.37	-0.80	3.90	 	 	 	 	 	 	 	 	 	 	 	 	 	 	 	 	 	 	1581490485	7.20	13.33
12/02/2020 06:54:46	120220	12022020	065446	185.49	13.004145	-57.093693	185.89	-0.020	0.800	2.410	185.56	-0.50	3.10	 	 	 	 	 	 	 	 	 	 	 	 	 	 	 	 	 	 	1581490486	7.34	13.59
12/02/2020 06:54:47	120220	12022020	065447	186.02	13.004108	-57.093697	186.36	0.190	0.480	1.590	186.12	-0.80	2.30	 	 	 	 	 	 	 	 	 	 	 	 	 	 	 	 	 	 	1581490487	7.84	14.52
12/02/2020 06:54:48	120220	12022020	065448	186.42	13.004072	-57.093700	186.81	0.260	-0.030	1.100	186.51	-1.30	1.70	 	 	 	 	 	 	 	 	 	 	 	 	 	 	 	 	 	 	1581490488	8.10	15.00
12/02/2020 06:54:49	120220	12022020	065449	186.76	13.004033	-57.093703	186.95	0.310	-0.570	0.960	186.76	-1.90	1.50	 	 	 	 	 	 	 	 	 	 	 	 	 	 	 	 	 	 	1581490489	8.04	14.89
12/02/2020 06:54:50	120220	12022020	065450	186.59	13.003997	-57.093707	186.68	0.480	-1.110	1.240	186.52	-2.40	1.80	 	 	 	 	 	 	 	 	 	 	 	 	 	 	 	 	 	 	1581490490	8.00	14.82
12/02/2020 06:54:51	120220	12022020	065451	186.08	13.003960	-57.093712	186.16	0.600	-1.390	1.930	185.97	-2.70	2.40	 	 	 	 	 	 	 	 	 	 	 	 	 	 	 	 	 	 	1581490491	8.17	15.13
12/02/2020 06:54:52	120220	12022020	065452	185.65	13.003922	-57.093718	185.87	0.290	-1.010	2.510	185.62	-2.40	3.00	 	 	 	 	 	 	 	 	 	 	 	 	 	 	 	 	 	 	1581490492	8.29	15.35
12/02/2020 06:54:53	120220	12022020	065453	185.64	13.003885	-57.093725	185.95	-0.480	-0.110	2.880	185.68	-1.60	3.40	 	 	 	 	 	 	 	 	 	 	 	 	 	 	 	 	 	 	1581490493	7.86	14.56
12/02/2020 06:54:54	120220	12022020	065454	185.93	13.003852	-57.093735	186.30	-1.250	0.700	2.960	186.01	-0.70	3.50	 	 	 	 	 	 	 	 	 	 	 	 	 	 	 	 	 	 	1581490494	7.41	13.72
12/02/2020 06:54:55	120220	12022020	065455	186.35	13.003820	-57.093748	186.71	-1.380	1.000	2.700	186.43	-0.40	3.30	 	 	 	 	 	 	 	 	 	 	 	 	 	 	 	 	 	 	1581490495	7.48	13.85
12/02/2020 06:54:56	120220	12022020	065456	186.75	13.003785	-57.093760	187.09	-0.700	0.720	2.100	186.83	-0.60	2.80	 	 	 	 	 	 	 	 	 	 	 	 	 	 	 	 	 	 	1581490496	7.77	14.39
12/02/2020 06:54:57	120220	12022020	065457	187.02	13.003748	-57.093767	187.25	0.430	-0.050	1.440	187.03	-1.30	2.10	 	 	 	 	 	 	 	 	 	 	 	 	 	 	 	 	 	 	1581490497	8.09	14.98
12/02/2020 06:54:58	120220	12022020	065458	186.99	13.003710	-57.093770	187.18	1.310	-0.840	0.940	186.97	-2.10	1.60	 	 	 	 	 	 	 	 	 	 	 	 	 	 	 	 	 	 	1581490498	8.48	15.70
12/02/2020 06:54:59	120220	12022020	065459	186.95	13.003670	-57.093770	187.17	1.340	-1.130	0.990	186.95	-2.50	1.50	 	 	 	 	 	 	 	 	 	 	 	 	 	 	 	 	 	 	1581490499	8.64	16.00
12/02/2020 06:55:00	120220	12022020	065500	186.96	13.003632	-57.093772	187.16	0.570	-0.910	1.600	186.96	-2.30	2.10	 	 	 	 	 	 	 	 	 	 	 	 	 	 	 	 	 	 	1581490500	8.06	14.93
12/02/2020 06:55:01	120220	12022020	065501	186.80	13.003598	-57.093778	186.95	-0.300	-0.490	2.430	186.75	-1.90	2.90	1015.10	26.20	26.30	20.40	20.40	-1.0	70.0	70.0	423.0	25.9	274.00	10.60	79.00	11.00	17	10145.0	27.3	27.2	1581490501	7.53	13.95
12/02/2020 06:55:02	120220	12022020	065502	186.57	13.003563	-57.093792	186.70	-0.680	-0.080	3.120	186.52	-1.50	3.60	 	 	 	 	 	 	 	 	 	 	 	 	 	 	 	 	 	 	1581490502	7.68	14.22
12/02/2020 06:55:03	120220	12022020	065503	186.40	13.003530	-57.093807	186.64	-0.500	0.190	3.230	186.40	-1.20	3.80	 	 	 	 	 	 	 	 	 	 	 	 	 	 	 	 	 	 	1581490503	7.92	14.67
12/02/2020 06:55:04	120220	12022020	065504	186.48	13.003495	-57.093817	186.77	-0.130	0.150	2.790	186.52	-1.20	3.40	 	 	 	 	 	 	 	 	 	 	 	 	 	 	 	 	 	 	1581490504	7.96	14.74
12/02/2020 06:55:05	120220	12022020	065505	186.72	13.003457	-57.093823	187.04	0.030	-0.070	2.070	186.79	-1.40	2.80	 	 	 	 	 	 	 	 	 	 	 	 	 	 	 	 	 	 	1581490505	8.12	15.04
12/02/2020 06:55:06	120220	12022020	065506	187.05	13.003420	-57.093827	187.34	-0.090	-0.210	1.430	187.11	-1.50	2.10	 	 	 	 	 	 	 	 	 	 	 	 	 	 	 	 	 	 	1581490506	8.20	15.19
12/02/2020 06:55:07	120220	12022020	065507	187.29	13.003383	-57.093832	187.51	-0.180	-0.260	1.060	187.32	-1.60	1.70	 	 	 	 	 	 	 	 	 	 	 	 	 	 	 	 	 	 	1581490507	7.95	14.72
12/02/2020 06:55:08	120220	12022020	065508	187.35	13.003347	-57.093835	187.53	0.010	-0.310	0.930	187.35	-1.70	1.50	 	 	 	 	 	 	 	 	 	 	 	 	 	 	 	 	 	 	1581490508	7.81	14.46
12/02/2020 06:55:09	120220	12022020	065509	187.37	13.003310	-57.093840	187.58	0.310	-0.320	1.080	187.40	-1.70	1.60	 	 	 	 	 	 	 	 	 	 	 	 	 	 	 	 	 	 	1581490509	7.86	14.56
12/02/2020 06:55:10	120220	12022020	065510	187.50	13.003273	-57.093847	187.71	0.420	-0.310	1.480	187.52	-1.70	2.00	 	 	 	 	 	 	 	 	 	 	 	 	 	 	 	 	 	 	1581490510	7.88	14.59
12/02/2020 06:55:11	120220	12022020	065511	187.47	13.003238	-57.093853	187.60	0.260	-0.360	2.090	187.42	-1.70	2.60	 	 	 	 	 	 	 	 	 	 	 	 	 	 	 	 	 	 	1581490511	7.83	14.50
12/02/2020 06:55:12	120220	12022020	065512	187.21	13.003203	-57.093863	187.20	-0.030	-0.470	2.740	187.13	-1.80	3.20	 	 	 	 	 	 	 	 	 	 	 	 	 	 	 	 	 	 	1581490512	7.94	14.70
12/02/2020 06:55:13	120220	12022020	065513	186.71	13.003167	-57.093873	186.82	-0.270	-0.390	3.100	186.64	-1.80	3.70	 	 	 	 	 	 	 	 	 	 	 	 	 	 	 	 	 	 	1581490513	8.16	15.11
12/02/2020 06:55:14	120220	12022020	065514	186.42	13.003130	-57.093885	186.59	-0.280	-0.200	3.060	186.39	-1.60	3.70	 	 	 	 	 	 	 	 	 	 	 	 	 	 	 	 	 	 	1581490514	8.05	14.91
12/02/2020 06:55:15	120220	12022020	065515	186.35	13.003095	-57.093893	186.57	-0.090	-0.120	2.650	186.36	-1.50	3.30	 	 	 	 	 	 	 	 	 	 	 	 	 	 	 	 	 	 	1581490515	7.91	14.65
12/02/2020 06:55:16	120220	12022020	065516	186.47	13.003058	-57.093900	186.72	0.070	-0.180	2.130	186.50	-1.50	2.80	 	 	 	 	 	 	 	 	 	 	 	 	 	 	 	 	 	 	1581490516	7.99	14.80
12/02/2020 06:55:17	120220	12022020	065517	186.67	13.003020	-57.093905	186.93	0.050	-0.250	1.760	186.72	-1.60	2.40	 	 	 	 	 	 	 	 	 	 	 	 	 	 	 	 	 	 	1581490517	8.11	15.02
12/02/2020 06:55:18	120220	12022020	065518	186.92	13.002983	-57.093910	187.18	-0.130	-0.170	1.600	186.97	-1.60	2.20	 	 	 	 	 	 	 	 	 	 	 	 	 	 	 	 	 	 	1581490518	8.08	14.96
12/02/2020 06:55:19	120220	12022020	065519	187.19	13.002947	-57.093917	187.43	-0.240	0.040	1.560	187.24	-1.40	2.10	 	 	 	 	 	 	 	 	 	 	 	 	 	 	 	 	 	 	1581490519	7.84	14.52
12/02/2020 06:55:20	120220	12022020	065520	187.42	13.002913	-57.093925	187.63	-0.050	0.130	1.550	187.46	-1.30	2.10	 	 	 	 	 	 	 	 	 	 	 	 	 	 	 	 	 	 	1581490520	7.64	14.15
12/02/2020 06:55:21	120220	12022020	065521	187.49	13.002878	-57.093932	187.63	0.350	-0.100	1.620	187.48	-1.40	2.20	 	 	 	 	 	 	 	 	 	 	 	 	 	 	 	 	 	 	1581490521	7.67	14.20
12/02/2020 06:55:22	120220	12022020	065522	187.32	13.002842	-57.093937	187.41	0.630	-0.540	1.790	187.26	-1.90	2.40	 	 	 	 	 	 	 	 	 	 	 	 	 	 	 	 	 	 	1581490522	8.02	14.85
12/02/2020 06:55:23	120220	12022020	065523	187.14	13.002802	-57.093942	187.28	0.500	-0.690	1.960	187.12	-2.10	2.50	 	 	 	 	 	 	 	 	 	 	 	 	 	 	 	 	 	 	1581490523	8.37	15.50
12/02/2020 06:55:24	120220	12022020	065524	187.14	13.002765	-57.093948	187.37	0.070	-0.310	2.130	187.16	-1.80	2.70	 	 	 	 	 	 	 	 	 	 	 	 	 	 	 	 	 	 	1581490524	8.12	15.04
12/02/2020 06:55:25	120220	12022020	065525	187.26	13.002732	-57.093957	187.42	-0.330	0.030	2.300	187.26	-1.40	2.90	 	 	 	 	 	 	 	 	 	 	 	 	 	 	 	 	 	 	1581490525	7.49	13.87
12/02/2020 06:55:26	120220	12022020	065526	187.12	13.002697	-57.093963	187.17	-0.420	-0.310	2.440	187.04	-1.60	3.00	 	 	 	 	 	 	 	 	 	 	 	 	 	 	 	 	 	 	1581490526	7.47	13.83
12/02/2020 06:55:27	120220	12022020	065527	186.66	13.002660	-57.093972	186.72	-0.300	-0.960	2.630	186.57	-2.30	3.20	 	 	 	 	 	 	 	 	 	 	 	 	 	 	 	 	 	 	1581490527	8.31	15.39
12/02/2020 06:55:28	120220	12022020	065528	186.32	13.002618	-57.093982	186.50	-0.230	-0.960	2.680	186.30	-2.40	3.30	 	 	 	 	 	 	 	 	 	 	 	 	 	 	 	 	 	 	1581490528	8.92	16.52
12/02/2020 06:55:29	120220	12022020	065529	186.35	13.002582	-57.093992	186.61	-0.290	-0.170	2.410	186.40	-1.70	3.00	 	 	 	 	 	 	 	 	 	 	 	 	 	 	 	 	 	 	1581490529	8.40	15.56
12/02/2020 06:55:30	120220	12022020	065530	186.60	13.002548	-57.094002	186.85	-0.280	0.690	1.920	186.65	-0.80	2.60	 	 	 	 	 	 	 	 	 	 	 	 	 	 	 	 	 	 	1581490530	7.45	13.80
12/02/2020 06:55:31	120220	12022020	065531	186.82	13.002515	-57.094008	187.04	0.150	0.800	1.280	186.86	-0.60	1.90	 	 	 	 	 	 	 	 	 	 	 	 	 	 	 	 	 	 	1581490531	7.15	13.24
12/02/2020 06:55:32	120220	12022020	065532	187.05	13.002478	-57.094012	187.28	0.740	0.210	0.700	187.11	-1.10	1.30	 	 	 	 	 	 	 	 	 	 	 	 	 	 	 	 	 	 	1581490532	7.84	14.52
12/02/2020 06:55:33	120220	12022020	065533	187.37	13.002438	-57.094012	187.60	0.860	-0.530	0.750	187.42	-1.80	1.30	 	 	 	 	 	 	 	 	 	 	 	 	 	 	 	 	 	 	1581490533	8.57	15.87
12/02/2020 06:55:34	120220	12022020	065534	187.47	13.002400	-57.094015	187.58	0.330	-1.030	1.530	187.42	-2.40	2.00	 	 	 	 	 	 	 	 	 	 	 	 	 	 	 	 	 	 	1581490534	8.55	15.83
12/02/2020 06:55:35	120220	12022020	065535	187.09	13.002362	-57.094025	187.14	-0.380	-1.130	2.770	186.98	-2.50	3.20	 	 	 	 	 	 	 	 	 	 	 	 	 	 	 	 	 	 	1581490535	8.31	15.39
12/02/2020 06:55:36	120220	12022020	065536	186.52	13.002327	-57.094040	186.61	-0.680	-0.710	3.710	186.42	-2.20	4.20	 	 	 	 	 	 	 	 	 	 	 	 	 	 	 	 	 	 	1581490536	8.31	15.39
12/02/2020 06:55:37	120220	12022020	065537	186.19	13.002292	-57.094055	186.39	-0.420	-0.040	3.740	186.17	-1.50	4.30	 	 	 	 	 	 	 	 	 	 	 	 	 	 	 	 	 	 	1581490537	8.05	14.91
12/02/2020 06:55:38	120220	12022020	065538	186.23	13.002258	-57.094065	186.57	-0.000	0.310	2.970	186.28	-1.10	3.70	 	 	 	 	 	 	 	 	 	 	 	 	 	 	 	 	 	 	1581490538	7.57	14.02
12/02/2020 06:55:39	120220	12022020	065539	186.63	13.002222	-57.094068	186.90	0.170	0.130	2.170	186.70	-1.20	2.80	 	 	 	 	 	 	 	 	 	 	 	 	 	 	 	 	 	 	1581490539	7.75	14.35
12/02/2020 06:55:40	120220	12022020	065540	186.87	13.002185	-57.094072	187.07	0.080	-0.210	1.740	186.89	-1.60	2.40	 	 	 	 	 	 	 	 	 	 	 	 	 	 	 	 	 	 	1581490540	8.18	15.15
12/02/2020 06:55:41	120220	12022020	065541	186.92	13.002147	-57.094075	187.09	-0.030	-0.310	1.610	186.92	-1.70	2.20	 	 	 	 	 	 	 	 	 	 	 	 	 	 	 	 	 	 	1581490541	8.24	15.26
12/02/2020 06:55:42	120220	12022020	065542	186.87	13.002110	-57.094082	187.02	-0.010	-0.270	1.600	186.85	-1.70	2.20	 	 	 	 	 	 	 	 	 	 	 	 	 	 	 	 	 	 	1581490542	7.95	14.72
12/02/2020 06:55:43	120220	12022020	065543	186.75	13.002073	-57.094087	186.92	0.090	-0.350	1.620	186.74	-1.70	2.20	 	 	 	 	 	 	 	 	 	 	 	 	 	 	 	 	 	 	1581490543	7.83	14.50
12/02/2020 06:55:44	120220	12022020	065544	186.79	13.002037	-57.094093	187.01	0.150	-0.430	1.640	186.81	-1.80	2.20	 	 	 	 	 	 	 	 	 	 	 	 	 	 	 	 	 	 	1581490544	8.03	14.87
12/02/2020 06:55:45	120220	12022020	065545	186.86	13.002000	-57.094102	187.02	0.230	-0.420	1.760	186.85	-1.80	2.30	 	 	 	 	 	 	 	 	 	 	 	 	 	 	 	 	 	 	1581490545	8.06	14.93
12/02/2020 06:55:46	120220	12022020	065546	186.68	13.001963	-57.094108	186.79	0.330	-0.500	2.000	186.62	-1.90	2.50	 	 	 	 	 	 	 	 	 	 	 	 	 	 	 	 	 	 	1581490546	7.99	14.80
12/02/2020 06:55:47	120220	12022020	065547	186.46	13.001927	-57.094115	186.64	0.180	-0.410	2.240	186.44	-1.80	2.80	 	 	 	 	 	 	 	 	 	 	 	 	 	 	 	 	 	 	1581490547	8.21	15.20
12/02/2020 06:55:48	120220	12022020	065548	186.52	13.001890	-57.094123	186.81	-0.300	0.070	2.280	186.59	-1.40	2.90	 	 	 	 	 	 	 	 	 	 	 	 	 	 	 	 	 	 	1581490548	8.13	15.06
12/02/2020 06:55:49	120220	12022020	065549	187.01	13.001855	-57.094132	187.37	-0.760	0.620	2.000	187.14	-0.80	2.60	 	 	 	 	 	 	 	 	 	 	 	 	 	 	 	 	 	 	1581490549	7.65	14.17
12/02/2020 06:55:50	120220	12022020	065550	187.60	13.001822	-57.094142	187.87	-0.710	0.550	1.710	187.69	-0.80	2.30	 	 	 	 	 	 	 	 	 	 	 	 	 	 	 	 	 	 	1581490550	7.33	13.58
12/02/2020 06:55:51	120220	12022020	065551	187.81	13.001787	-57.094148	187.94	-0.060	-0.370	1.730	187.80	-1.60	2.30	 	 	 	 	 	 	 	 	 	 	 	 	 	 	 	 	 	 	1581490551	7.76	14.37
12/02/2020 06:55:52	120220	12022020	065552	187.71	13.001747	-57.094155	187.84	0.600	-1.220	1.880	187.69	-2.50	2.40	 	 	 	 	 	 	 	 	 	 	 	 	 	 	 	 	 	 	1581490552	8.77	16.24
12/02/2020 06:55:53	120220	12022020	065553	187.64	13.001705	-57.094162	187.78	0.690	-1.190	2.060	187.63	-2.60	2.60	 	 	 	 	 	 	 	 	 	 	 	 	 	 	 	 	 	 	1581490553	8.90	16.48
12/02/2020 06:55:54	120220	12022020	065554	187.58	13.001668	-57.094167	187.68	0.230	-0.530	2.270	187.55	-2.00	2.80	 	 	 	 	 	 	 	 	 	 	 	 	 	 	 	 	 	 	1581490554	8.03	14.87
12/02/2020 06:55:55	120220	12022020	065555	187.52	13.001635	-57.094173	187.66	-0.360	0.170	2.400	187.52	-1.30	2.90	 	 	 	 	 	 	 	 	 	 	 	 	 	 	 	 	 	 	1581490555	7.39	13.69
12/02/2020 06:55:56	120220	12022020	065556	187.54	13.001602	-57.094182	187.66	-0.670	0.370	2.480	187.53	-1.00	3.00	 	 	 	 	 	 	 	 	 	 	 	 	 	 	 	 	 	 	1581490556	7.40	13.70
12/02/2020 06:55:57	120220	12022020	065557	187.34	13.001567	-57.094192	187.38	-0.440	-0.090	2.560	187.27	-1.40	3.10	 	 	 	 	 	 	 	 	 	 	 	 	 	 	 	 	 	 	1581490557	7.93	14.69
12/02/2020 06:55:58	120220	12022020	065558	187.00	13.001527	-57.094203	187.12	0.070	-0.510	2.450	186.96	-1.90	3.00	 	 	 	 	 	 	 	 	 	 	 	 	 	 	 	 	 	 	1581490558	8.72	16.15
12/02/2020 06:55:59	120220	12022020	065559	186.92	13.001487	-57.094212	187.13	0.370	-0.320	2.100	186.95	-1.80	2.70	 	 	 	 	 	 	 	 	 	 	 	 	 	 	 	 	 	 	1581490559	8.75	16.21
12/02/2020 06:56:00	120220	12022020	065600	187.15	13.001450	-57.094217	187.41	0.260	0.250	1.610	187.22	-1.20	2.20	 	 	 	 	 	 	 	 	 	 	 	 	 	 	 	 	 	 	1581490560	7.96	14.74
12/02/2020 06:56:01	120220	12022020	065601	187.56	13.001417	-57.094222	187.84	-0.030	0.550	1.110	187.66	-0.90	1.70	1015.20	26.20	26.20	20.50	20.60	-1.0	71.0	71.0	423.0	25.9	274.00	10.10	79.00	10.60	17	9166.0	27.3	27.2	1581490561	7.37	13.65
12/02/2020 06:56:02	120220	12022020	065602	187.96	13.001382	-57.094227	188.31	-0.140	0.180	0.850	188.05	-1.10	1.40	 	 	 	 	 	 	 	 	 	 	 	 	 	 	 	 	 	 	1581490562	7.46	13.82
12/02/2020 06:56:03	120220	12022020	065603	188.37	13.001345	-57.094232	188.54	0.040	-0.610	1.000	188.39	-1.90	1.50	 	 	 	 	 	 	 	 	 	 	 	 	 	 	 	 	 	 	1581490563	8.05	14.91
12/02/2020 06:56:04	120220	12022020	065604	188.33	13.001307	-57.094240	188.40	0.270	-1.150	1.480	188.28	-2.50	2.00	 	 	 	 	 	 	 	 	 	 	 	 	 	 	 	 	 	 	1581490564	8.53	15.80
12/02/2020 06:56:05	120220	12022020	065605	187.97	13.001268	-57.094248	188.00	0.270	-1.100	2.120	187.88	-2.50	2.60	 	 	 	 	 	 	 	 	 	 	 	 	 	 	 	 	 	 	1581490565	8.41	15.58
12/02/2020 06:56:06	120220	12022020	065606	187.51	13.001232	-57.094258	187.57	0.040	-0.620	2.600	187.43	-2.10	3.10	 	 	 	 	 	 	 	 	 	 	 	 	 	 	 	 	 	 	1581490566	8.00	14.82
12/02/2020 06:56:07	120220	12022020	065607	187.13	13.001197	-57.094267	187.21	-0.230	-0.210	2.760	187.07	-1.60	3.30	 	 	 	 	 	 	 	 	 	 	 	 	 	 	 	 	 	 	1581490567	7.72	14.30
12/02/2020 06:56:08	120220	12022020	065608	186.87	13.001162	-57.094277	187.01	-0.340	-0.110	2.650	186.85	-1.50	3.20	 	 	 	 	 	 	 	 	 	 	 	 	 	 	 	 	 	 	1581490568	7.93	14.69
12/02/2020 06:56:09	120220	12022020	065609	186.91	13.001123	-57.094285	187.13	-0.270	0.070	2.130	186.95	-1.40	2.80	 	 	 	 	 	 	 	 	 	 	 	 	 	 	 	 	 	 	1581490569	8.33	15.43
12/02/2020 06:56:10	120220	12022020	065610	187.17	13.001087	-57.094292	187.38	-0.140	0.320	1.500	187.22	-1.10	2.10	 	 	 	 	 	 	 	 	 	 	 	 	 	 	 	 	 	 	1581490570	8.17	15.13
12/02/2020 06:56:11	120220	12022020	065611	187.36	13.001050	-57.094295	187.53	-0.020	0.230	1.240	187.38	-1.20	1.80	 	 	 	 	 	 	 	 	 	 	 	 	 	 	 	 	 	 	1581490571	7.87	14.58
12/02/2020 06:56:12	120220	12022020	065612	187.41	13.001012	-57.094302	187.54	0.050	-0.210	1.390	187.41	-1.60	1.90	 	 	 	 	 	 	 	 	 	 	 	 	 	 	 	 	 	 	1581490572	8.08	14.96
12/02/2020 06:56:13	120220	12022020	065613	187.36	13.000973	-57.094308	187.46	-0.000	-0.540	1.830	187.32	-1.90	2.30	 	 	 	 	 	 	 	 	 	 	 	 	 	 	 	 	 	 	1581490573	8.40	15.56
12/02/2020 06:56:14	120220	12022020	065614	187.16	13.000937	-57.094317	187.11	-0.140	-0.610	2.440	187.08	-2.00	2.90	 	 	 	 	 	 	 	 	 	 	 	 	 	 	 	 	 	 	1581490574	8.34	15.45
12/02/2020 06:56:15	120220	12022020	065615	186.63	13.000900	-57.094328	186.70	-0.180	-0.460	2.780	186.56	-1.90	3.30	 	 	 	 	 	 	 	 	 	 	 	 	 	 	 	 	 	 	1581490575	8.20	15.19
12/02/2020 06:56:16	120220	12022020	065616	186.41	13.000863	-57.094340	186.55	-0.010	-0.140	2.620	186.40	-1.60	3.20	 	 	 	 	 	 	 	 	 	 	 	 	 	 	 	 	 	 	1581490576	8.12	15.04
12/02/2020 06:56:17	120220	12022020	065617	186.42	13.000828	-57.094348	186.60	0.390	0.030	2.110	186.44	-1.40	2.80	 	 	 	 	 	 	 	 	 	 	 	 	 	 	 	 	 	 	1581490577	7.87	14.58
12/02/2020 06:56:18	120220	12022020	065618	186.65	13.000792	-57.094353	186.89	0.670	0.030	1.420	186.72	-1.40	2.10	 	 	 	 	 	 	 	 	 	 	 	 	 	 	 	 	 	 	1581490578	7.96	14.74
12/02/2020 06:56:19	120220	12022020	065619	187.04	13.000753	-57.094353	187.26	0.460	0.050	1.120	187.11	-1.40	1.70	 	 	 	 	 	 	 	 	 	 	 	 	 	 	 	 	 	 	1581490579	8.09	14.98
12/02/2020 06:56:20	120220	12022020	065620	187.32	13.000717	-57.094357	187.53	-0.170	0.010	1.470	187.37	-1.40	2.00	 	 	 	 	 	 	 	 	 	 	 	 	 	 	 	 	 	 	1581490580	7.84	14.52
12/02/2020 06:56:21	120220	12022020	065621	187.53	13.000682	-57.094365	187.71	-0.700	-0.130	1.880	187.56	-1.50	2.40	 	 	 	 	 	 	 	 	 	 	 	 	 	 	 	 	 	 	1581490581	7.76	14.37
12/02/2020 06:56:22	120220	12022020	065622	187.66	13.000647	-57.094377	187.80	-0.630	-0.380	2.120	187.66	-1.80	2.70	 	 	 	 	 	 	 	 	 	 	 	 	 	 	 	 	 	 	1581490582	7.89	14.61
12/02/2020 06:56:23	120220	12022020	065623	187.58	13.000612	-57.094388	187.64	0.090	-0.860	2.110	187.53	-2.20	2.70	 	 	 	 	 	 	 	 	 	 	 	 	 	 	 	 	 	 	1581490583	8.00	14.82
12/02/2020 06:56:24	120220	12022020	065624	187.22	13.000573	-57.094397	187.22	0.870	-1.400	2.010	187.12	-2.80	2.60	 	 	 	 	 	 	 	 	 	 	 	 	 	 	 	 	 	 	1581490584	8.35	15.46
12/02/2020 06:56:25	120220	12022020	065625	186.64	13.000533	-57.094400	186.63	0.980	-1.540	2.220	186.52	-3.00	2.70	 	 	 	 	 	 	 	 	 	 	 	 	 	 	 	 	 	 	1581490585	8.77	16.24
12/02/2020 06:56:26	120220	12022020	065626	186.12	13.000493	-57.094403	186.19	0.240	-0.880	2.650	186.04	-2.40	3.20	 	 	 	 	 	 	 	 	 	 	 	 	 	 	 	 	 	 	1581490586	8.70	16.11
12/02/2020 06:56:27	120220	12022020	065627	185.97	13.000457	-57.094412	186.21	-0.860	0.590	2.940	186.01	-1.00	3.50	 	 	 	 	 	 	 	 	 	 	 	 	 	 	 	 	 	 	1581490587	8.08	14.96
12/02/2020 06:56:28	120220	12022020	065628	186.27	13.000423	-57.094423	186.74	-1.640	1.940	2.880	186.38	0.40	3.50	 	 	 	 	 	 	 	 	 	 	 	 	 	 	 	 	 	 	1581490588	7.26	13.45
12/02/2020 06:56:29	120220	12022020	065629	187.08	13.000393	-57.094435	187.45	-1.530	1.970	2.390	187.22	0.70	3.00	 	 	 	 	 	 	 	 	 	 	 	 	 	 	 	 	 	 	1581490589	7.02	13.00
12/02/2020 06:56:30	120220	12022020	065630	187.71	13.000358	-57.094447	187.98	-0.500	0.580	1.600	187.80	-0.60	2.30	 	 	 	 	 	 	 	 	 	 	 	 	 	 	 	 	 	 	1581490590	7.90	14.63
12/02/2020 06:56:31	120220	12022020	065631	187.99	13.000317	-57.094455	188.16	0.860	-1.070	0.950	188.00	-2.30	1.60	 	 	 	 	 	 	 	 	 	 	 	 	 	 	 	 	 	 	1581490591	9.12	16.89
12/02/2020 06:56:32	120220	12022020	065632	187.98	13.000273	-57.094458	188.13	1.660	-1.730	0.620	187.97	-3.10	1.20	 	 	 	 	 	 	 	 	 	 	 	 	 	 	 	 	 	 	1581490592	9.43	17.46
12/02/2020 06:56:33	120220	12022020	065633	187.92	13.000233	-57.094460	188.07	1.380	-1.160	0.700	187.91	-2.70	1.20	 	 	 	 	 	 	 	 	 	 	 	 	 	 	 	 	 	 	1581490593	8.51	15.76
12/02/2020 06:56:34	120220	12022020	065634	187.85	13.000200	-57.094462	187.99	0.370	-0.210	1.130	187.83	-1.70	1.60	 	 	 	 	 	 	 	 	 	 	 	 	 	 	 	 	 	 	1581490594	7.21	13.35
12/02/2020 06:56:35	120220	12022020	065635	187.80	13.000170	-57.094468	187.97	-0.570	0.380	1.740	187.80	-1.10	2.20	 	 	 	 	 	 	 	 	 	 	 	 	 	 	 	 	 	 	1581490595	6.81	12.61
12/02/2020 06:56:36	120220	12022020	065636	187.76	13.000137	-57.094480	187.89	-0.820	0.230	2.290	187.74	-1.10	2.80	 	 	 	 	 	 	 	 	 	 	 	 	 	 	 	 	 	 	1581490596	7.36	13.63
12/02/2020 06:56:37	120220	12022020	065637	187.57	13.000102	-57.094493	187.64	-0.370	-0.560	2.640	187.50	-1.80	3.20	 	 	 	 	 	 	 	 	 	 	 	 	 	 	 	 	 	 	1581490597	8.21	15.20
12/02/2020 06:56:38	120220	12022020	065638	187.21	13.000062	-57.094505	187.26	0.210	-1.250	2.750	187.13	-2.60	3.30	 	 	 	 	 	 	 	 	 	 	 	 	 	 	 	 	 	 	1581490598	8.99	16.65
12/02/2020 06:56:39	120220	12022020	065639	186.87	13.000020	-57.094513	186.98	0.400	-1.090	2.590	186.83	-2.60	3.20	 	 	 	 	 	 	 	 	 	 	 	 	 	 	 	 	 	 	1581490599	9.05	16.76
12/02/2020 06:56:40	120220	12022020	065640	186.80	12.999982	-57.094520	187.03	0.080	-0.150	2.170	186.82	-1.70	2.80	 	 	 	 	 	 	 	 	 	 	 	 	 	 	 	 	 	 	1581490600	8.28	15.33
12/02/2020 06:56:41	120220	12022020	065641	187.08	12.999948	-57.094525	187.29	-0.370	0.770	1.730	187.13	-0.70	2.30	 	 	 	 	 	 	 	 	 	 	 	 	 	 	 	 	 	 	1581490601	7.35	13.61
12/02/2020 06:56:42	120220	12022020	065642	187.27	12.999915	-57.094530	187.44	-0.500	0.790	1.580	187.30	-0.60	2.10	 	 	 	 	 	 	 	 	 	 	 	 	 	 	 	 	 	 	1581490602	7.16	13.26
12/02/2020 06:56:43	120220	12022020	065643	187.29	12.999878	-57.094537	187.39	-0.190	0.090	1.770	187.26	-1.20	2.30	 	 	 	 	 	 	 	 	 	 	 	 	 	 	 	 	 	 	1581490603	8.03	14.87
12/02/2020 06:56:44	120220	12022020	065644	187.25	12.999838	-57.094547	187.43	0.210	-0.330	1.790	187.27	-1.70	2.40	 	 	 	 	 	 	 	 	 	 	 	 	 	 	 	 	 	 	1581490604	8.86	16.41
12/02/2020 06:56:45	120220	12022020	065645	187.44	12.999800	-57.094553	187.69	0.310	0.000	1.610	187.50	-1.50	2.20	 	 	 	 	 	 	 	 	 	 	 	 	 	 	 	 	 	 	1581490605	8.51	15.76
12/02/2020 06:56:46	120220	12022020	065646	187.74	12.999765	-57.094560	187.94	0.110	0.330	1.540	187.78	-1.10	2.10	 	 	 	 	 	 	 	 	 	 	 	 	 	 	 	 	 	 	1581490606	7.43	13.76
12/02/2020 06:56:47	120220	12022020	065647	187.81	12.999733	-57.094565	187.91	-0.010	-0.170	1.670	187.79	-1.50	2.20	 	 	 	 	 	 	 	 	 	 	 	 	 	 	 	 	 	 	1581490607	7.14	13.22
12/02/2020 06:56:48	120220	12022020	065648	187.52	12.999697	-57.094573	187.54	0.220	-1.180	2.100	187.42	-2.40	2.60	 	 	 	 	 	 	 	 	 	 	 	 	 	 	 	 	 	 	1581490608	7.98	14.78
12/02/2020 06:56:49	120220	12022020	065649	186.94	12.999657	-57.094582	186.95	0.610	-1.710	2.580	186.82	-3.10	3.10	 	 	 	 	 	 	 	 	 	 	 	 	 	 	 	 	 	 	1581490609	8.80	16.30
12/02/2020 06:56:50	120220	12022020	065650	186.37	12.999617	-57.094592	186.44	0.780	-1.270	2.670	186.29	-2.80	3.20	 	 	 	 	 	 	 	 	 	 	 	 	 	 	 	 	 	 	1581490610	8.65	16.02
12/02/2020 06:56:51	120220	12022020	065651	186.13	12.999582	-57.094598	186.31	0.480	-0.280	2.290	186.13	-1.80	2.90	 	 	 	 	 	 	 	 	 	 	 	 	 	 	 	 	 	 	1581490611	7.83	14.50
12/02/2020 06:56:52	120220	12022020	065652	186.27	12.999547	-57.094600	186.51	-0.200	0.390	1.960	186.32	-1.10	2.50	 	 	 	 	 	 	 	 	 	 	 	 	 	 	 	 	 	 	1581490612	7.32	13.56
12/02/2020 06:56:53	120220	12022020	065653	186.48	12.999512	-57.094603	186.68	-0.830	0.330	2.140	186.51	-1.00	2.60	 	 	 	 	 	 	 	 	 	 	 	 	 	 	 	 	 	 	1581490613	7.61	14.09
12/02/2020 06:56:54	120220	12022020	065654	186.58	12.999473	-57.094613	186.80	-1.110	0.050	2.570	186.61	-1.30	3.10	 	 	 	 	 	 	 	 	 	 	 	 	 	 	 	 	 	 	1581490614	8.44	15.63
12/02/2020 06:56:55	120220	12022020	065655	186.85	12.999435	-57.094627	187.16	-1.030	0.250	2.790	186.94	-1.20	3.30	 	 	 	 	 	 	 	 	 	 	 	 	 	 	 	 	 	 	1581490615	8.80	16.30
12/02/2020 06:56:56	120220	12022020	065656	187.44	12.999400	-57.094638	187.78	-0.680	0.710	2.420	187.57	-0.70	3.00	 	 	 	 	 	 	 	 	 	 	 	 	 	 	 	 	 	 	1581490616	8.12	15.04
12/02/2020 06:56:57	120220	12022020	065657	187.96	12.999367	-57.094648	188.14	0.050	0.500	1.650	188.00	-0.80	2.30	 	 	 	 	 	 	 	 	 	 	 	 	 	 	 	 	 	 	1581490617	7.34	13.59
12/02/2020 06:56:58	120220	12022020	065658	187.85	12.999330	-57.094652	187.83	1.080	-0.560	1.150	187.76	-1.80	1.70	 	 	 	 	 	 	 	 	 	 	 	 	 	 	 	 	 	 	1581490618	7.75	14.35
12/02/2020 06:56:59	120220	12022020	065659	187.37	12.999290	-57.094653	187.39	1.710	-1.300	1.090	187.29	-2.60	1.60	 	 	 	 	 	 	 	 	 	 	 	 	 	 	 	 	 	 	1581490619	8.84	16.37
12/02/2020 06:57:00	120220	12022020	065700	187.17	12.999248	-57.094652	187.31	1.350	-0.990	1.330	187.18	-2.50	1.80	 	 	 	 	 	 	 	 	 	 	 	 	 	 	 	 	 	 	1581490620	8.76	16.22
12/02/2020 06:57:01	120220	12022020	065701	187.32	12.999213	-57.094655	187.51	0.250	-0.190	1.850	187.36	-1.70	2.30	1015.20	26.20	26.20	20.30	20.40	-1.0	70.0	70.0	421.0	25.9	271.00	10.30	76.00	11.00	17	10532.0	27.3	27.2	1581490621	7.58	14.04
12/02/2020 06:57:02	120220	12022020	065702	187.49	12.999182	-57.094663	187.64	-0.730	0.110	2.590	187.50	-1.30	3.00	 	 	 	 	 	 	 	 	 	 	 	 	 	 	 	 	 	 	1581490622	7.00	12.96
12/02/2020 06:57:03	120220	12022020	065703	187.46	12.999148	-57.094678	187.57	-0.970	-0.340	3.200	187.44	-1.70	3.70	 	 	 	 	 	 	 	 	 	 	 	 	 	 	 	 	 	 	1581490623	7.78	14.41
12/02/2020 06:57:04	120220	12022020	065704	187.38	12.999110	-57.094693	187.52	-0.690	-0.820	3.410	187.37	-2.20	3.90	 	 	 	 	 	 	 	 	 	 	 	 	 	 	 	 	 	 	1581490624	8.81	16.32
12/02/2020 06:57:05	120220	12022020	065705	187.42	12.999072	-57.094708	187.61	-0.370	-0.720	3.040	187.45	-2.20	3.70	 	 	 	 	 	 	 	 	 	 	 	 	 	 	 	 	 	 	1581490625	8.95	16.58
12/02/2020 06:57:06	120220	12022020	065706	187.58	12.999035	-57.094718	187.74	-0.220	-0.130	2.180	187.61	-1.60	2.90	 	 	 	 	 	 	 	 	 	 	 	 	 	 	 	 	 	 	1581490626	8.22	15.22
12/02/2020 06:57:07	120220	12022020	065707	187.75	12.999000	-57.094723	187.90	-0.100	0.370	1.150	187.79	-1.10	1.80	 	 	 	 	 	 	 	 	 	 	 	 	 	 	 	 	 	 	1581490627	7.60	14.08
12/02/2020 06:57:08	120220	12022020	065708	188.02	12.998963	-57.094725	188.17	0.050	0.440	0.320	188.08	-0.90	1.00	 	 	 	 	 	 	 	 	 	 	 	 	 	 	 	 	 	 	1581490628	7.69	14.24
12/02/2020 06:57:09	120220	12022020	065709	188.24	12.998927	-57.094725	188.31	0.250	0.040	0.140	188.25	-1.30	0.70	 	 	 	 	 	 	 	 	 	 	 	 	 	 	 	 	 	 	1581490629	8.04	14.89
12/02/2020 06:57:10	120220	12022020	065710	188.11	12.998887	-57.094728	188.10	0.430	-0.550	0.610	188.04	-1.90	1.10	 	 	 	 	 	 	 	 	 	 	 	 	 	 	 	 	 	 	1581490630	8.38	15.52
12/02/2020 06:57:11	120220	12022020	065711	187.69	12.998848	-57.094735	187.66	0.450	-0.790	1.490	187.59	-2.20	1.90	 	 	 	 	 	 	 	 	 	 	 	 	 	 	 	 	 	 	1581490631	8.60	15.93
12/02/2020 06:57:12	120220	12022020	065712	187.20	12.998810	-57.094745	187.24	0.260	-0.460	2.440	187.12	-1.90	2.90	 	 	 	 	 	 	 	 	 	 	 	 	 	 	 	 	 	 	1581490632	8.38	15.52
12/02/2020 06:57:13	120220	12022020	065713	186.94	12.998775	-57.094757	187.09	-0.070	0.080	3.010	186.93	-1.40	3.50	 	 	 	 	 	 	 	 	 	 	 	 	 	 	 	 	 	 	1581490633	7.91	14.65
12/02/2020 06:57:14	120220	12022020	065714	186.98	12.998742	-57.094767	187.19	-0.340	0.420	3.010	187.01	-1.00	3.60	 	 	 	 	 	 	 	 	 	 	 	 	 	 	 	 	 	 	1581490634	7.60	14.08
12/02/2020 06:57:15	120220	12022020	065715	187.16	12.998707	-57.094777	187.38	-0.380	0.280	2.700	187.20	-1.10	3.30	 	 	 	 	 	 	 	 	 	 	 	 	 	 	 	 	 	 	1581490635	7.60	14.08
12/02/2020 06:57:16	120220	12022020	065716	187.29	12.998672	-57.094785	187.47	-0.160	-0.290	2.350	187.30	-1.60	2.90	 	 	 	 	 	 	 	 	 	 	 	 	 	 	 	 	 	 	1581490636	7.98	14.78
12/02/2020 06:57:17	120220	12022020	065717	187.25	12.998633	-57.094793	187.38	0.160	-0.910	2.160	187.23	-2.20	2.70	 	 	 	 	 	 	 	 	 	 	 	 	 	 	 	 	 	 	1581490637	8.42	15.59
12/02/2020 06:57:18	120220	12022020	065718	187.15	12.998593	-57.094800	187.24	0.400	-1.120	2.000	187.13	-2.50	2.60	 	 	 	 	 	 	 	 	 	 	 	 	 	 	 	 	 	 	1581490638	8.55	15.83
12/02/2020 06:57:19	120220	12022020	065719	187.00	12.998557	-57.094807	187.17	0.460	-0.740	1.640	187.00	-2.20	2.30	 	 	 	 	 	 	 	 	 	 	 	 	 	 	 	 	 	 	1581490639	8.26	15.30
12/02/2020 06:57:20	120220	12022020	065720	187.11	12.998520	-57.094812	187.34	0.290	-0.040	1.080	187.16	-1.50	1.70	 	 	 	 	 	 	 	 	 	 	 	 	 	 	 	 	 	 	1581490640	7.70	14.26
12/02/2020 06:57:21	120220	12022020	065721	187.35	12.998487	-57.094813	187.53	-0.010	0.190	0.830	187.37	-1.20	1.40	 	 	 	 	 	 	 	 	 	 	 	 	 	 	 	 	 	 	1581490641	7.36	13.63
12/02/2020 06:57:22	120220	12022020	065722	187.33	12.998450	-57.094817	187.42	-0.220	-0.360	1.260	187.28	-1.60	1.70	 	 	 	 	 	 	 	 	 	 	 	 	 	 	 	 	 	 	1581490642	7.79	14.43
12/02/2020 06:57:23	120220	12022020	065723	186.96	12.998410	-57.094825	187.01	-0.300	-0.850	2.170	186.87	-2.20	2.60	 	 	 	 	 	 	 	 	 	 	 	 	 	 	 	 	 	 	1581490643	8.77	16.24
12/02/2020 06:57:24	120220	12022020	065724	186.60	12.998370	-57.094835	186.78	-0.370	-0.460	2.990	186.59	-1.90	3.50	 	 	 	 	 	 	 	 	 	 	 	 	 	 	 	 	 	 	1581490644	9.02	16.71
12/02/2020 06:57:25	120220	12022020	065725	186.80	12.998333	-57.094848	187.11	-0.490	0.530	3.040	186.90	-1.00	3.60	 	 	 	 	 	 	 	 	 	 	 	 	 	 	 	 	 	 	1581490645	8.23	15.24
12/02/2020 06:57:26	120220	12022020	065726	187.37	12.998300	-57.094857	187.70	-0.480	1.090	2.480	187.48	-0.30	3.10	 	 	 	 	 	 	 	 	 	 	 	 	 	 	 	 	 	 	1581490646	7.27	13.46
12/02/2020 06:57:27	120220	12022020	065727	187.88	12.998267	-57.094863	188.12	-0.110	0.610	1.760	187.96	-0.70	2.40	 	 	 	 	 	 	 	 	 	 	 	 	 	 	 	 	 	 	1581490647	7.34	13.59
12/02/2020 06:57:28	120220	12022020	065728	188.11	12.998230	-57.094868	188.28	0.390	-0.470	1.330	188.12	-1.70	1.90	 	 	 	 	 	 	 	 	 	 	 	 	 	 	 	 	 	 	1581490648	8.25	15.28
12/02/2020 06:57:29	120220	12022020	065729	187.96	12.998188	-57.094872	187.98	0.560	-1.320	1.440	187.87	-2.60	2.00	 	 	 	 	 	 	 	 	 	 	 	 	 	 	 	 	 	 	1581490649	8.82	16.33
12/02/2020 06:57:30	120220	12022020	065730	187.53	12.998148	-57.094878	187.34	0.400	-1.530	1.870	187.40	-2.90	2.40	 	 	 	 	 	 	 	 	 	 	 	 	 	 	 	 	 	 	1581490650	8.62	15.96
12/02/2020 06:57:31	120220	12022020	065731	186.62	12.998112	-57.094888	186.61	0.240	-1.050	2.300	186.49	-2.50	2.80	 	 	 	 	 	 	 	 	 	 	 	 	 	 	 	 	 	 	1581490651	8.20	15.19
12/02/2020 06:57:32	120220	12022020	065732	186.21	12.998077	-57.094898	186.41	0.150	-0.030	2.230	186.23	-1.60	2.80	 	 	 	 	 	 	 	 	 	 	 	 	 	 	 	 	 	 	1581490652	7.80	14.45
12/02/2020 06:57:33	120220	12022020	065733	186.54	12.998043	-57.094903	186.88	-0.080	0.800	1.820	186.66	-0.70	2.40	 	 	 	 	 	 	 	 	 	 	 	 	 	 	 	 	 	 	1581490653	7.33	13.58
12/02/2020 06:57:34	120220	12022020	065734	187.21	12.998010	-57.094910	187.53	-0.390	0.810	1.540	187.33	-0.50	2.10	 	 	 	 	 	 	 	 	 	 	 	 	 	 	 	 	 	 	1581490654	7.32	13.56
12/02/2020 06:57:35	120220	12022020	065735	187.68	12.997973	-57.094918	187.89	-0.430	0.010	1.680	187.73	-1.20	2.20	 	 	 	 	 	 	 	 	 	 	 	 	 	 	 	 	 	 	1581490655	7.97	14.76
12/02/2020 06:57:36	120220	12022020	065736	187.86	12.997933	-57.094928	188.03	-0.080	-0.900	1.920	187.88	-2.20	2.40	 	 	 	 	 	 	 	 	 	 	 	 	 	 	 	 	 	 	1581490656	8.78	16.26
12/02/2020 06:57:37	120220	12022020	065737	187.98	12.997893	-57.094937	188.16	0.280	-1.220	2.030	188.00	-2.60	2.60	 	 	 	 	 	 	 	 	 	 	 	 	 	 	 	 	 	 	1581490657	8.97	16.61
12/02/2020 06:57:38	120220	12022020	065738	188.02	12.997855	-57.094943	188.14	0.200	-0.810	2.110	188.00	-2.30	2.60	 	 	 	 	 	 	 	 	 	 	 	 	 	 	 	 	 	 	1581490658	8.40	15.56
12/02/2020 06:57:39	120220	12022020	065739	187.85	12.997820	-57.094950	187.93	-0.290	-0.180	2.250	187.80	-1.70	2.80	 	 	 	 	 	 	 	 	 	 	 	 	 	 	 	 	 	 	1581490659	7.67	14.20
12/02/2020 06:57:40	120220	12022020	065740	187.63	12.997785	-57.094958	187.73	-0.720	0.340	2.420	187.59	-1.10	2.90	 	 	 	 	 	 	 	 	 	 	 	 	 	 	 	 	 	 	1581490660	7.47	13.83
12/02/2020 06:57:41	120220	12022020	065741	187.48	12.997752	-57.094968	187.57	-0.670	0.550	2.490	187.44	-0.80	3.00	 	 	 	 	 	 	 	 	 	 	 	 	 	 	 	 	 	 	1581490661	7.67	14.20
12/02/2020 06:57:42	120220	12022020	065742	187.24	12.997717	-57.094980	187.31	-0.060	0.240	2.490	187.18	-1.10	3.00	 	 	 	 	 	 	 	 	 	 	 	 	 	 	 	 	 	 	1581490662	7.93	14.69
12/02/2020 06:57:43	120220	12022020	065743	186.91	12.997678	-57.094990	186.99	0.780	-0.360	2.300	186.86	-1.70	2.90	 	 	 	 	 	 	 	 	 	 	 	 	 	 	 	 	 	 	1581490663	8.42	15.59
12/02/2020 06:57:44	120220	12022020	065744	186.80	12.997638	-57.094997	186.99	1.260	-0.580	1.750	186.83	-2.00	2.40	 	 	 	 	 	 	 	 	 	 	 	 	 	 	 	 	 	 	1581490664	8.73	16.17
12/02/2020 06:57:45	120220	12022020	065745	187.14	12.997600	-57.095000	187.42	0.980	-0.260	1.260	187.24	-1.70	1.90	 	 	 	 	 	 	 	 	 	 	 	 	 	 	 	 	 	 	1581490665	8.33	15.43
12/02/2020 06:57:46	120220	12022020	065746	187.75	12.997565	-57.095000	188.04	0.100	0.050	1.270	187.86	-1.40	1.80	 	 	 	 	 	 	 	 	 	 	 	 	 	 	 	 	 	 	1581490666	7.53	13.95
12/02/2020 06:57:47	120220	12022020	065747	188.21	12.997532	-57.095007	188.42	-0.790	-0.200	1.850	188.25	-1.50	2.30	 	 	 	 	 	 	 	 	 	 	 	 	 	 	 	 	 	 	1581490667	7.25	13.43
12/02/2020 06:57:48	120220	12022020	065748	188.26	12.997497	-57.095018	188.39	-1.150	-0.890	2.800	188.22	-2.20	3.20	 	 	 	 	 	 	 	 	 	 	 	 	 	 	 	 	 	 	1581490668	7.95	14.72
12/02/2020 06:57:49	120220	12022020	065749	187.93	12.997460	-57.095037	188.00	-0.880	-1.390	3.700	187.83	-2.70	4.10	 	 	 	 	 	 	 	 	 	 	 	 	 	 	 	 	 	 	1581490669	8.82	16.33
12/02/2020 06:57:50	120220	12022020	065750	187.52	12.997422	-57.095053	187.66	-0.290	-1.140	3.910	187.46	-2.60	4.50	 	 	 	 	 	 	 	 	 	 	 	 	 	 	 	 	 	 	1581490670	8.99	16.65
12/02/2020 06:57:51	120220	12022020	065751	187.38	12.997385	-57.095067	187.60	0.190	-0.190	3.260	187.39	-1.70	3.90	 	 	 	 	 	 	 	 	 	 	 	 	 	 	 	 	 	 	1581490671	8.24	15.26
12/02/2020 06:57:52	120220	12022020	065752	187.47	12.997352	-57.095070	187.67	0.380	0.610	2.150	187.48	-0.80	2.80	 	 	 	 	 	 	 	 	 	 	 	 	 	 	 	 	 	 	1581490672	7.39	13.69
12/02/2020 06:57:53	120220	12022020	065753	187.52	12.997315	-57.095070	187.68	0.370	0.630	1.230	187.52	-0.70	1.90	 	 	 	 	 	 	 	 	 	 	 	 	 	 	 	 	 	 	1581490673	7.54	13.96
12/02/2020 06:57:54	120220	12022020	065754	187.51	12.997277	-57.095068	187.65	0.240	0.220	0.900	187.50	-1.10	1.50	 	 	 	 	 	 	 	 	 	 	 	 	 	 	 	 	 	 	1581490674	8.31	15.39
12/02/2020 06:57:55	120220	12022020	065755	187.52	12.997237	-57.095072	187.72	-0.030	-0.020	1.170	187.54	-1.40	1.70	 	 	 	 	 	 	 	 	 	 	 	 	 	 	 	 	 	 	1581490675	8.57	15.87
12/02/2020 06:57:56	120220	12022020	065756	187.67	12.997200	-57.095078	187.89	-0.280	0.030	1.660	187.70	-1.40	2.10	 	 	 	 	 	 	 	 	 	 	 	 	 	 	 	 	 	 	1581490676	8.23	15.24
12/02/2020 06:57:57	120220	12022020	065757	187.78	12.997165	-57.095092	187.94	-0.290	0.000	2.110	187.77	-1.40	2.60	 	 	 	 	 	 	 	 	 	 	 	 	 	 	 	 	 	 	1581490677	7.82	14.48
12/02/2020 06:57:58	120220	12022020	065758	187.69	12.997132	-57.095103	187.82	0.010	-0.310	2.380	187.66	-1.60	2.90	 	 	 	 	 	 	 	 	 	 	 	 	 	 	 	 	 	 	1581490678	7.79	14.43
12/02/2020 06:57:59	120220	12022020	065759	187.54	12.997097	-57.095115	187.71	0.320	-0.670	2.390	187.52	-2.00	2.90	 	 	 	 	 	 	 	 	 	 	 	 	 	 	 	 	 	 	1581490679	8.02	14.85
12/02/2020 06:58:00	120220	12022020	065800	187.51	12.997058	-57.095122	187.70	0.340	-0.930	2.120	187.51	-2.30	2.70	 	 	 	 	 	 	 	 	 	 	 	 	 	 	 	 	 	 	1581490680	8.09	14.98
12/02/2020 06:58:01	120220	12022020	065801	187.47	12.997022	-57.095128	187.61	0.160	-1.080	1.980	187.44	-2.40	2.50	1015.10	26.30	26.30	20.70	20.70	-1.0	71.0	71.0	421.0	25.9	273.00	9.90	77.00	10.50	17	9239.0	27.2	27.2	1581490681	8.05	14.91
12/02/2020 06:58:02	120220	12022020	065802	187.36	12.996985	-57.095137	187.53	0.040	-0.910	1.890	187.36	-2.30	2.50	 	 	 	 	 	 	 	 	 	 	 	 	 	 	 	 	 	 	1581490682	8.15	15.09
12/02/2020 06:58:03	120220	12022020	065803	187.42	12.996948	-57.095143	187.64	-0.030	-0.340	1.640	187.45	-1.80	2.20	 	 	 	 	 	 	 	 	 	 	 	 	 	 	 	 	 	 	1581490683	8.07	14.95
12/02/2020 06:58:04	120220	12022020	065804	187.66	12.996913	-57.095150	187.89	-0.230	0.220	1.420	187.71	-1.20	2.00	 	 	 	 	 	 	 	 	 	 	 	 	 	 	 	 	 	 	1581490684	7.73	14.32
12/02/2020 06:58:05	120220	12022020	065805	187.87	12.996877	-57.095155	188.03	-0.500	0.320	1.550	187.88	-1.00	2.10	 	 	 	 	 	 	 	 	 	 	 	 	 	 	 	 	 	 	1581490685	7.70	14.26
12/02/2020 06:58:06	120220	12022020	065806	187.74	12.996840	-57.095163	187.77	-0.520	-0.000	2.040	187.65	-1.30	2.50	 	 	 	 	 	 	 	 	 	 	 	 	 	 	 	 	 	 	1581490686	8.12	15.04
12/02/2020 06:58:07	120220	12022020	065807	187.25	12.996802	-57.095173	187.28	-0.230	-0.240	2.610	187.15	-1.60	3.10	 	 	 	 	 	 	 	 	 	 	 	 	 	 	 	 	 	 	1581490687	8.65	16.02
12/02/2020 06:58:08	120220	12022020	065808	186.99	12.996763	-57.095185	187.22	0.140	0.130	2.680	186.99	-1.30	3.30	 	 	 	 	 	 	 	 	 	 	 	 	 	 	 	 	 	 	1581490688	8.67	16.06
12/02/2020 06:58:09	120220	12022020	065809	187.29	12.996727	-57.095193	187.60	0.330	0.840	2.150	187.38	-0.60	2.80	 	 	 	 	 	 	 	 	 	 	 	 	 	 	 	 	 	 	1581490689	7.85	14.54
12/02/2020 06:58:10	120220	12022020	065810	187.69	12.996695	-57.095198	187.88	0.370	0.760	1.680	187.72	-0.60	2.30	 	 	 	 	 	 	 	 	 	 	 	 	 	 	 	 	 	 	1581490690	7.02	13.00
12/02/2020 06:58:11	120220	12022020	065811	187.66	12.996660	-57.095202	187.71	0.420	-0.450	1.830	187.60	-1.60	2.30	 	 	 	 	 	 	 	 	 	 	 	 	 	 	 	 	 	 	1581490691	7.51	13.91
12/02/2020 06:58:12	120220	12022020	065812	187.24	12.996620	-57.095207	187.28	0.340	-1.710	2.310	187.15	-3.00	2.80	 	 	 	 	 	 	 	 	 	 	 	 	 	 	 	 	 	 	1581490692	8.73	16.17
12/02/2020 06:58:13	120220	12022020	065813	186.82	12.996578	-57.095217	186.94	0.080	-2.040	2.830	186.76	-3.40	3.40	 	 	 	 	 	 	 	 	 	 	 	 	 	 	 	 	 	 	1581490693	9.09	16.83
12/02/2020 06:58:14	120220	12022020	065814	186.59	12.996542	-57.095230	186.74	-0.270	-1.350	3.300	186.57	-2.90	3.80	 	 	 	 	 	 	 	 	 	 	 	 	 	 	 	 	 	 	1581490694	8.47	15.69
12/02/2020 06:58:15	120220	12022020	065815	186.56	12.996508	-57.095243	186.75	-0.310	-0.320	3.090	186.58	-1.80	3.70	 	 	 	 	 	 	 	 	 	 	 	 	 	 	 	 	 	 	1581490695	7.72	14.30
12/02/2020 06:58:16	120220	12022020	065816	186.71	12.996475	-57.095252	186.92	-0.120	0.390	2.370	186.75	-1.10	3.00	 	 	 	 	 	 	 	 	 	 	 	 	 	 	 	 	 	 	1581490696	7.29	13.50
12/02/2020 06:58:17	120220	12022020	065817	186.93	12.996440	-57.095255	187.15	0.010	0.500	1.770	186.98	-0.90	2.40	 	 	 	 	 	 	 	 	 	 	 	 	 	 	 	 	 	 	1581490697	7.67	14.20
12/02/2020 06:58:18	120220	12022020	065818	187.14	12.996402	-57.095258	187.36	-0.150	0.370	1.580	187.19	-1.00	2.10	 	 	 	 	 	 	 	 	 	 	 	 	 	 	 	 	 	 	1581490698	8.26	15.30
12/02/2020 06:58:19	120220	12022020	065819	187.31	12.996363	-57.095263	187.45	-0.440	0.220	1.740	187.31	-1.10	2.20	 	 	 	 	 	 	 	 	 	 	 	 	 	 	 	 	 	 	1581490699	8.37	15.50
12/02/2020 06:58:20	120220	12022020	065820	187.27	12.996325	-57.095273	187.33	-0.470	-0.040	2.130	187.24	-1.40	2.60	 	 	 	 	 	 	 	 	 	 	 	 	 	 	 	 	 	 	1581490700	8.24	15.26
12/02/2020 06:58:21	120220	12022020	065821	187.10	12.996288	-57.095283	187.23	-0.030	-0.270	2.230	187.09	-1.60	2.80	 	 	 	 	 	 	 	 	 	 	 	 	 	 	 	 	 	 	1581490701	8.39	15.54
12/02/2020 06:58:22	120220	12022020	065822	187.10	12.996250	-57.095293	187.28	0.540	-0.220	1.970	187.12	-1.60	2.60	 	 	 	 	 	 	 	 	 	 	 	 	 	 	 	 	 	 	1581490702	8.31	15.39
12/02/2020 06:58:23	120220	12022020	065823	187.28	12.996215	-57.095298	187.46	0.800	-0.020	1.520	187.32	-1.40	2.10	 	 	 	 	 	 	 	 	 	 	 	 	 	 	 	 	 	 	1581490703	7.89	14.61
12/02/2020 06:58:24	120220	12022020	065824	187.47	12.996180	-57.095302	187.63	0.650	-0.010	1.070	187.49	-1.40	1.70	 	 	 	 	 	 	 	 	 	 	 	 	 	 	 	 	 	 	1581490704	7.57	14.02
12/02/2020 06:58:25	120220	12022020	065825	187.57	12.996143	-57.095303	187.71	0.240	-0.380	1.070	187.58	-1.70	1.60	 	 	 	 	 	 	 	 	 	 	 	 	 	 	 	 	 	 	1581490705	7.63	14.13
12/02/2020 06:58:26	120220	12022020	065826	187.60	12.996107	-57.095308	187.73	-0.150	-0.830	1.550	187.60	-2.20	2.00	 	 	 	 	 	 	 	 	 	 	 	 	 	 	 	 	 	 	1581490706	8.00	14.82
12/02/2020 06:58:27	120220	12022020	065827	187.52	12.996070	-57.095320	187.61	-0.360	-1.120	2.270	187.48	-2.50	2.70	 	 	 	 	 	 	 	 	 	 	 	 	 	 	 	 	 	 	1581490707	8.28	15.33
12/02/2020 06:58:28	120220	12022020	065828	187.20	12.996033	-57.095333	187.22	-0.420	-1.240	3.090	187.10	-2.60	3.50	 	 	 	 	 	 	 	 	 	 	 	 	 	 	 	 	 	 	1581490708	8.36	15.48
12/02/2020 06:58:29	120220	12022020	065829	186.58	12.995997	-57.095347	186.58	-0.360	-1.080	3.710	186.44	-2.50	4.20	 	 	 	 	 	 	 	 	 	 	 	 	 	 	 	 	 	 	1581490709	8.54	15.82
12/02/2020 06:58:30	120220	12022020	065830	185.94	12.995958	-57.095362	186.01	-0.240	-0.440	3.800	185.85	-1.90	4.40	 	 	 	 	 	 	 	 	 	 	 	 	 	 	 	 	 	 	1581490710	8.57	15.87
12/02/2020 06:58:31	120220	12022020	065831	185.69	12.995922	-57.095372	185.93	-0.100	0.490	3.140	185.71	-1.00	3.80	 	 	 	 	 	 	 	 	 	 	 	 	 	 	 	 	 	 	1581490711	8.14	15.08
12/02/2020 06:58:32	120220	12022020	065832	185.96	12.995887	-57.095375	186.29	-0.040	1.110	2.110	186.05	-0.30	2.80	 	 	 	 	 	 	 	 	 	 	 	 	 	 	 	 	 	 	1581490712	7.68	14.22
12/02/2020 06:58:33	120220	12022020	065833	186.52	12.995850	-57.095377	186.88	-0.070	1.040	1.190	186.64	-0.30	1.90	 	 	 	 	 	 	 	 	 	 	 	 	 	 	 	 	 	 	1581490713	7.74	14.33
12/02/2020 06:58:34	120220	12022020	065834	187.08	12.995813	-57.095378	187.34	-0.060	0.430	0.730	187.16	-0.90	1.30	 	 	 	 	 	 	 	 	 	 	 	 	 	 	 	 	 	 	1581490714	8.11	15.02
12/02/2020 06:58:35	120220	12022020	065835	187.36	12.995773	-57.095382	187.58	0.140	-0.590	0.880	187.38	-1.90	1.40	 	 	 	 	 	 	 	 	 	 	 	 	 	 	 	 	 	 	1581490715	8.51	15.76
12/02/2020 06:58:36	120220	12022020	065836	187.47	12.995733	-57.095388	187.69	0.320	-1.120	1.400	187.49	-2.50	1.90	 	 	 	 	 	 	 	 	 	 	 	 	 	 	 	 	 	 	1581490716	8.71	16.13
12/02/2020 06:58:37	120220	12022020	065837	187.55	12.995697	-57.095398	187.76	0.320	-0.920	2.070	187.55	-2.40	2.50	 	 	 	 	 	 	 	 	 	 	 	 	 	 	 	 	 	 	1581490717	8.37	15.50
12/02/2020 06:58:38	120220	12022020	065838	187.48	12.995662	-57.095408	187.63	0.160	-0.410	2.620	187.44	-1.90	3.10	 	 	 	 	 	 	 	 	 	 	 	 	 	 	 	 	 	 	1581490718	7.61	14.09
12/02/2020 06:58:39	120220	12022020	065839	187.21	12.995628	-57.095417	187.30	0.090	-0.130	2.870	187.13	-1.50	3.40	 	 	 	 	 	 	 	 	 	 	 	 	 	 	 	 	 	 	1581490719	7.31	13.54
12/02/2020 06:58:40	120220	12022020	065840	186.79	12.995595	-57.095425	186.84	0.200	-0.290	3.000	186.69	-1.60	3.50	 	 	 	 	 	 	 	 	 	 	 	 	 	 	 	 	 	 	1581490720	7.63	14.13
12/02/2020 06:58:41	120220	12022020	065841	186.26	12.995557	-57.095432	186.30	0.300	-0.710	3.120	186.15	-2.00	3.60	 	 	 	 	 	 	 	 	 	 	 	 	 	 	 	 	 	 	1581490721	8.25	15.28
12/02/2020 06:58:42	120220	12022020	065842	185.70	12.995517	-57.095438	185.78	0.150	-0.870	3.190	185.61	-2.20	3.70	 	 	 	 	 	 	 	 	 	 	 	 	 	 	 	 	 	 	1581490722	8.75	16.21
12/02/2020 06:58:43	120220	12022020	065843	185.50	12.995477	-57.095448	185.77	-0.330	-0.250	2.970	185.54	-1.70	3.60	 	 	 	 	 	 	 	 	 	 	 	 	 	 	 	 	 	 	1581490723	8.71	16.13
12/02/2020 06:58:44	120220	12022020	065844	185.88	12.995442	-57.095457	186.55	-0.850	0.900	2.280	186.07	-0.60	2.90	 	 	 	 	 	 	 	 	 	 	 	 	 	 	 	 	 	 	1581490724	7.90	14.63
12/02/2020 06:58:45	120220	12022020	065845	187.20	12.995410	-57.095465	187.71	-1.000	1.470	1.280	187.44	0.10	2.00	 	 	 	 	 	 	 	 	 	 	 	 	 	 	 	 	 	 	1581490725	6.93	12.83
12/02/2020 06:58:46	120220	12022020	065846	188.18	12.995378	-57.095472	188.51	-0.450	0.580	0.550	188.30	-0.60	1.20	 	 	 	 	 	 	 	 	 	 	 	 	 	 	 	 	 	 	1581490726	7.07	13.09
12/02/2020 06:58:47	120220	12022020	065847	188.54	12.995338	-57.095477	188.65	0.520	-1.180	0.500	188.53	-2.30	1.00	 	 	 	 	 	 	 	 	 	 	 	 	 	 	 	 	 	 	1581490727	8.43	15.61
12/02/2020 06:58:48	120220	12022020	065848	188.25	12.995295	-57.095483	188.22	1.250	-2.260	1.110	188.14	-3.60	1.50	 	 	 	 	 	 	 	 	 	 	 	 	 	 	 	 	 	 	1581490728	9.49	17.58
12/02/2020 06:58:49	120220	12022020	065849	187.59	12.995253	-57.095490	187.56	1.230	-1.810	1.980	187.46	-3.30	2.40	 	 	 	 	 	 	 	 	 	 	 	 	 	 	 	 	 	 	1581490729	9.11	16.87
12/02/2020 06:58:50	120220	12022020	065850	187.04	12.995217	-57.095497	187.13	0.520	-0.300	2.660	186.97	-1.90	3.10	 	 	 	 	 	 	 	 	 	 	 	 	 	 	 	 	 	 	1581490730	7.86	14.56
12/02/2020 06:58:51	120220	12022020	065851	186.94	12.995187	-57.095503	187.17	-0.420	1.110	2.810	186.99	-0.40	3.40	 	 	 	 	 	 	 	 	 	 	 	 	 	 	 	 	 	 	1581490731	6.92	12.82
12/02/2020 06:58:52	120220	12022020	065852	187.32	12.995155	-57.095512	187.63	-1.120	1.560	2.540	187.42	0.20	3.10	 	 	 	 	 	 	 	 	 	 	 	 	 	 	 	 	 	 	1581490732	6.93	12.83
12/02/2020 06:58:53	120220	12022020	065853	187.68	12.995120	-57.095520	187.87	-1.230	0.730	2.440	187.69	-0.50	2.90	 	 	 	 	 	 	 	 	 	 	 	 	 	 	 	 	 	 	1581490733	7.67	14.20
12/02/2020 06:58:54	120220	12022020	065854	187.55	12.995080	-57.095533	187.64	-0.750	-0.720	2.690	187.48	-1.90	3.20	 	 	 	 	 	 	 	 	 	 	 	 	 	 	 	 	 	 	1581490734	8.87	16.43
12/02/2020 06:58:55	120220	12022020	065855	187.20	12.995038	-57.095547	187.35	-0.170	-1.470	2.880	187.14	-2.80	3.40	 	 	 	 	 	 	 	 	 	 	 	 	 	 	 	 	 	 	1581490735	9.64	17.85
12/02/2020 06:58:56	120220	12022020	065856	186.96	12.994998	-57.095560	187.08	0.290	-1.080	2.760	186.91	-2.60	3.30	 	 	 	 	 	 	 	 	 	 	 	 	 	 	 	 	 	 	1581490736	8.96	16.59
12/02/2020 06:58:57	120220	12022020	065857	186.74	12.994963	-57.095568	186.83	0.530	-0.350	2.310	186.68	-1.70	2.90	 	 	 	 	 	 	 	 	 	 	 	 	 	 	 	 	 	 	1581490737	7.65	14.17
12/02/2020 06:58:58	120220	12022020	065858	186.48	12.994932	-57.095575	186.48	0.910	0.150	1.520	186.42	-1.30	2.20	 	 	 	 	 	 	 	 	 	 	 	 	 	 	 	 	 	 	1581490738	7.16	13.26
12/02/2020 06:58:59	120220	12022020	065859	186.36	12.994895	-57.095577	186.56	1.060	0.470	0.800	186.42	-0.90	1.40	 	 	 	 	 	 	 	 	 	 	 	 	 	 	 	 	 	 	1581490739	7.70	14.26
12/02/2020 06:59:00	120220	12022020	065900	186.78	12.994858	-57.095575	186.99	0.730	0.620	0.520	186.87	-0.80	1.10	 	 	 	 	 	 	 	 	 	 	 	 	 	 	 	 	 	 	1581490740	7.82	14.48
12/02/2020 06:59:01	120220	12022020	065901	187.10	12.994823	-57.095575	187.24	-0.080	-0.130	1.200	187.10	-1.30	1.60	1015.10	26.20	26.20	20.20	20.40	-1.0	69.0	70.0	419.0	25.9	272.00	11.20	79.00	11.80	17	9947.0	27.2	27.2	1581490741	7.63	14.13
12/02/2020 06:59:02	120220	12022020	065902	186.80	12.994785	-57.095585	186.79	-0.650	-1.520	2.880	186.66	-2.70	3.10	 	 	 	 	 	 	 	 	 	 	 	 	 	 	 	 	 	 	1581490742	8.39	15.54
12/02/2020 06:59:03	120220	12022020	065903	186.03	12.994745	-57.095603	186.00	-0.720	-2.270	4.680	185.85	-3.60	5.00	 	 	 	 	 	 	 	 	 	 	 	 	 	 	 	 	 	 	1581490743	9.73	18.02
12/02/2020 06:59:04	120220	12022020	065904	185.18	12.994705	-57.095625	185.29	-0.430	-1.750	5.540	185.04	-3.10	6.00	 	 	 	 	 	 	 	 	 	 	 	 	 	 	 	 	 	 	1581490744	9.73	18.02
12/02/2020 06:59:05	120220	12022020	065905	184.64	12.994670	-57.095642	184.79	-0.080	-0.170	5.170	184.58	-1.70	5.80	 	 	 	 	 	 	 	 	 	 	 	 	 	 	 	 	 	 	1581490745	8.32	15.41
12/02/2020 06:59:06	120220	12022020	065906	184.49	12.994637	-57.095648	184.70	0.000	0.920	4.020	184.49	-0.50	4.60	 	 	 	 	 	 	 	 	 	 	 	 	 	 	 	 	 	 	1581490746	7.14	13.22
12/02/2020 06:59:07	120220	12022020	065907	184.61	12.994603	-57.095648	184.84	-0.060	1.300	2.510	184.66	-0.10	3.10	 	 	 	 	 	 	 	 	 	 	 	 	 	 	 	 	 	 	1581490747	7.20	13.33
12/02/2020 06:59:08	120220	12022020	065908	184.97	12.994567	-57.095647	185.20	-0.110	1.010	1.230	185.05	-0.40	1.80	 	 	 	 	 	 	 	 	 	 	 	 	 	 	 	 	 	 	1581490748	7.91	14.65
12/02/2020 06:59:09	120220	12022020	065909	185.34	12.994528	-57.095647	185.54	0.040	0.430	0.490	185.40	-0.90	1.10	 	 	 	 	 	 	 	 	 	 	 	 	 	 	 	 	 	 	1581490749	8.19	15.17
12/02/2020 06:59:10	120220	12022020	065910	185.54	12.994490	-57.095650	185.70	0.420	-0.490	0.450	185.55	-1.70	1.00	 	 	 	 	 	 	 	 	 	 	 	 	 	 	 	 	 	 	1581490750	8.19	15.17
12/02/2020 06:59:11	120220	12022020	065911	185.47	12.994452	-57.095653	185.60	0.680	-1.300	1.000	185.42	-2.60	1.50	 	 	 	 	 	 	 	 	 	 	 	 	 	 	 	 	 	 	1581490751	8.32	15.41
12/02/2020 06:59:12	120220	12022020	065912	185.16	12.994413	-57.095662	185.30	0.660	-1.770	1.960	185.10	-3.10	2.50	 	 	 	 	 	 	 	 	 	 	 	 	 	 	 	 	 	 	1581490752	8.55	15.83
12/02/2020 06:59:13	120220	12022020	065913	184.97	12.994375	-57.095672	185.17	0.250	-1.380	2.880	184.97	-2.80	3.40	 	 	 	 	 	 	 	 	 	 	 	 	 	 	 	 	 	 	1581490753	8.42	15.59
12/02/2020 06:59:14	120220	12022020	065914	185.05	12.994340	-57.095682	185.32	-0.330	-0.370	3.400	185.09	-1.80	3.90	 	 	 	 	 	 	 	 	 	 	 	 	 	 	 	 	 	 	1581490754	7.79	14.43
12/02/2020 06:59:15	120220	12022020	065915	185.24	12.994308	-57.095693	185.49	-0.710	0.430	3.550	185.26	-1.00	4.10	 	 	 	 	 	 	 	 	 	 	 	 	 	 	 	 	 	 	1581490755	7.23	13.39
12/02/2020 06:59:16	120220	12022020	065916	185.26	12.994275	-57.095702	185.49	-0.620	0.400	3.550	185.24	-1.00	4.10	 	 	 	 	 	 	 	 	 	 	 	 	 	 	 	 	 	 	1581490756	7.49	13.87
12/02/2020 06:59:17	120220	12022020	065917	185.19	12.994237	-57.095710	185.45	-0.230	-0.060	3.310	185.21	-1.40	3.90	 	 	 	 	 	 	 	 	 	 	 	 	 	 	 	 	 	 	1581490757	8.40	15.56
12/02/2020 06:59:18	120220	12022020	065918	185.51	12.994197	-57.095717	185.94	0.040	0.060	2.520	185.64	-1.40	3.20	 	 	 	 	 	 	 	 	 	 	 	 	 	 	 	 	 	 	1581490758	8.80	16.30
12/02/2020 06:59:19	120220	12022020	065919	186.27	12.994160	-57.095722	186.65	0.020	0.620	1.650	186.44	-0.80	2.20	 	 	 	 	 	 	 	 	 	 	 	 	 	 	 	 	 	 	1581490759	7.94	14.70
12/02/2020 06:59:20	120220	12022020	065920	186.96	12.994127	-57.095723	187.23	0.040	0.750	0.890	187.03	-0.60	1.50	 	 	 	 	 	 	 	 	 	 	 	 	 	 	 	 	 	 	1581490760	7.01	12.98
12/02/2020 06:59:21	120220	12022020	065921	187.13	12.994093	-57.095723	187.28	0.400	-0.210	0.650	187.10	-1.60	1.20	 	 	 	 	 	 	 	 	 	 	 	 	 	 	 	 	 	 	1581490761	7.36	13.63
12/02/2020 06:59:22	120220	12022020	065922	186.87	12.994053	-57.095727	186.98	0.860	-1.480	1.010	186.79	-2.80	1.50	 	 	 	 	 	 	 	 	 	 	 	 	 	 	 	 	 	 	1581490762	8.54	15.82
12/02/2020 06:59:23	120220	12022020	065923	186.41	12.994012	-57.095733	186.50	0.960	-1.960	1.840	186.31	-3.30	2.40	 	 	 	 	 	 	 	 	 	 	 	 	 	 	 	 	 	 	1581490763	9.02	16.71
12/02/2020 06:59:24	120220	12022020	065924	185.96	12.993973	-57.095742	186.10	0.470	-1.280	2.610	185.90	-2.70	3.10	 	 	 	 	 	 	 	 	 	 	 	 	 	 	 	 	 	 	1581490764	8.45	15.65
12/02/2020 06:59:25	120220	12022020	065925	185.85	12.993940	-57.095752	186.09	-0.440	0.040	2.970	185.88	-1.40	3.50	 	 	 	 	 	 	 	 	 	 	 	 	 	 	 	 	 	 	1581490765	7.57	14.02
12/02/2020 06:59:26	120220	12022020	065926	186.14	12.993908	-57.095762	186.40	-1.230	0.920	3.010	186.20	-0.50	3.50	 	 	 	 	 	 	 	 	 	 	 	 	 	 	 	 	 	 	1581490766	7.02	13.00
12/02/2020 06:59:27	120220	12022020	065927	186.46	12.993875	-57.095772	186.71	-1.360	0.680	2.720	186.51	-0.70	3.30	 	 	 	 	 	 	 	 	 	 	 	 	 	 	 	 	 	 	1581490767	7.47	13.83
12/02/2020 06:59:28	120220	12022020	065928	186.71	12.993837	-57.095783	186.95	-0.850	-0.120	2.130	186.76	-1.50	2.70	 	 	 	 	 	 	 	 	 	 	 	 	 	 	 	 	 	 	1581490768	8.54	15.82
12/02/2020 06:59:29	120220	12022020	065929	186.94	12.993797	-57.095792	187.15	-0.180	-0.520	1.650	186.97	-1.90	2.20	 	 	 	 	 	 	 	 	 	 	 	 	 	 	 	 	 	 	1581490769	8.97	16.61
12/02/2020 06:59:30	120220	12022020	065930	187.01	12.993758	-57.095798	187.14	0.340	-0.380	1.330	186.98	-1.80	1.90	 	 	 	 	 	 	 	 	 	 	 	 	 	 	 	 	 	 	1581490770	8.39	15.54
12/02/2020 06:59:31	120220	12022020	065931	186.88	12.993722	-57.095803	187.01	0.630	-0.020	1.020	186.86	-1.40	1.60	 	 	 	 	 	 	 	 	 	 	 	 	 	 	 	 	 	 	1581490771	7.77	14.39
12/02/2020 06:59:32	120220	12022020	065932	186.87	12.993687	-57.095807	187.05	0.720	0.350	0.800	186.91	-1.10	1.40	 	 	 	 	 	 	 	 	 	 	 	 	 	 	 	 	 	 	1581490772	7.61	14.09
12/02/2020 06:59:33	120220	12022020	065933	187.09	12.993652	-57.095808	187.27	0.710	0.490	0.780	187.13	-0.90	1.30	 	 	 	 	 	 	 	 	 	 	 	 	 	 	 	 	 	 	1581490773	7.53	13.95
12/02/2020 06:59:34	120220	12022020	065934	187.18	12.993617	-57.095812	187.27	0.650	-0.030	1.110	187.16	-1.40	1.60	 	 	 	 	 	 	 	 	 	 	 	 	 	 	 	 	 	 	1581490774	7.58	14.04
12/02/2020 06:59:35	120220	12022020	065935	186.91	12.993578	-57.095818	187.00	0.490	-1.010	1.860	186.84	-2.40	2.40	 	 	 	 	 	 	 	 	 	 	 	 	 	 	 	 	 	 	1581490775	8.21	15.20
12/02/2020 06:59:36	120220	12022020	065936	186.55	12.993538	-57.095828	186.66	0.120	-1.580	2.860	186.47	-2.90	3.40	 	 	 	 	 	 	 	 	 	 	 	 	 	 	 	 	 	 	1581490776	8.80	16.30
12/02/2020 06:59:37	120220	12022020	065937	186.09	12.993502	-57.095840	186.20	-0.340	-1.450	3.700	186.00	-2.80	4.20	 	 	 	 	 	 	 	 	 	 	 	 	 	 	 	 	 	 	1581490777	8.57	15.87
12/02/2020 06:59:38	120220	12022020	065938	185.61	12.993465	-57.095853	185.74	-0.690	-0.930	4.160	185.53	-2.30	4.70	 	 	 	 	 	 	 	 	 	 	 	 	 	 	 	 	 	 	1581490778	8.11	15.02
12/02/2020 06:59:39	120220	12022020	065939	185.25	12.993430	-57.095865	185.44	-0.840	-0.330	4.140	185.20	-1.70	4.70	 	 	 	 	 	 	 	 	 	 	 	 	 	 	 	 	 	 	1581490779	7.99	14.80
12/02/2020 06:59:40	120220	12022020	065940	185.16	12.993393	-57.095875	185.40	-0.790	0.260	3.610	185.18	-1.10	4.20	 	 	 	 	 	 	 	 	 	 	 	 	 	 	 	 	 	 	1581490780	8.05	14.91
12/02/2020 06:59:41	120220	12022020	065941	185.38	12.993358	-57.095883	185.67	-0.560	0.800	2.620	185.47	-0.60	3.20	 	 	 	 	 	 	 	 	 	 	 	 	 	 	 	 	 	 	1581490781	8.04	14.89
12/02/2020 06:59:42	120220	12022020	065942	185.92	12.993322	-57.095888	186.23	-0.190	1.150	1.430	186.05	-0.20	2.00	 	 	 	 	 	 	 	 	 	 	 	 	 	 	 	 	 	 	1581490782	7.87	14.58
12/02/2020 06:59:43	120220	12022020	065943	186.50	12.993285	-57.095890	186.75	0.290	0.920	0.620	186.58	-0.50	1.20	 	 	 	 	 	 	 	 	 	 	 	 	 	 	 	 	 	 	1581490783	7.76	14.37
12/02/2020 06:59:44	120220	12022020	065944	186.76	12.993248	-57.095892	186.91	0.810	0.090	0.460	186.75	-1.30	1.00	 	 	 	 	 	 	 	 	 	 	 	 	 	 	 	 	 	 	1581490784	8.07	14.95
12/02/2020 06:59:45	120220	12022020	065945	186.58	12.993208	-57.095895	186.69	1.230	-0.840	0.840	186.52	-2.20	1.40	 	 	 	 	 	 	 	 	 	 	 	 	 	 	 	 	 	 	1581490785	8.47	15.69
12/02/2020 06:59:46	120220	12022020	065946	186.38	12.993168	-57.095898	186.53	1.210	-1.190	1.350	186.37	-2.60	1.90	 	 	 	 	 	 	 	 	 	 	 	 	 	 	 	 	 	 	1581490786	8.54	15.82
12/02/2020 06:59:47	120220	12022020	065947	186.42	12.993132	-57.095902	186.65	0.490	-0.880	1.970	186.46	-2.30	2.50	 	 	 	 	 	 	 	 	 	 	 	 	 	 	 	 	 	 	1581490787	7.96	14.74
12/02/2020 06:59:48	120220	12022020	065948	186.52	12.993098	-57.095910	186.71	-0.480	-0.610	2.820	186.52	-2.00	3.30	 	 	 	 	 	 	 	 	 	 	 	 	 	 	 	 	 	 	1581490788	7.30	13.52
12/02/2020 06:59:49	120220	12022020	065949	186.24	12.993065	-57.095923	186.35	-1.000	-0.870	3.760	186.13	-2.20	4.30	 	 	 	 	 	 	 	 	 	 	 	 	 	 	 	 	 	 	1581490789	7.70	14.26
12/02/2020 06:59:50	120220	12022020	065950	185.65	12.993028	-57.095940	185.79	-0.820	-1.190	4.350	185.55	-2.50	4.90	 	 	 	 	 	 	 	 	 	 	 	 	 	 	 	 	 	 	1581490790	8.74	16.19
12/02/2020 06:59:51	120220	12022020	065951	185.38	12.992988	-57.095955	185.66	-0.300	-0.770	4.110	185.41	-2.20	4.70	 	 	 	 	 	 	 	 	 	 	 	 	 	 	 	 	 	 	1581490791	9.08	16.82
12/02/2020 06:59:52	120220	12022020	065952	185.87	12.992952	-57.095965	186.26	0.010	0.250	3.050	186.04	-1.20	3.70	 	 	 	 	 	 	 	 	 	 	 	 	 	 	 	 	 	 	1581490792	8.23	15.24
12/02/2020 06:59:53	120220	12022020	065953	186.84	12.992918	-57.095968	187.22	-0.050	1.020	1.810	187.04	-0.40	2.40	 	 	 	 	 	 	 	 	 	 	 	 	 	 	 	 	 	 	1581490793	7.35	13.61
12/02/2020 06:59:54	120220	12022020	065954	187.61	12.992883	-57.095968	187.88	-0.150	0.850	1.100	187.69	-0.50	1.70	 	 	 	 	 	 	 	 	 	 	 	 	 	 	 	 	 	 	1581490794	7.38	13.67
12/02/2020 06:59:55	120220	12022020	065955	187.70	12.992845	-57.095972	187.82	0.020	0.020	1.100	187.63	-1.30	1.70	 	 	 	 	 	 	 	 	 	 	 	 	 	 	 	 	 	 	1581490795	8.12	15.04
12/02/2020 06:59:56	120220	12022020	065956	187.24	12.992805	-57.095977	187.32	0.260	-0.620	1.590	187.12	-2.00	2.10	 	 	 	 	 	 	 	 	 	 	 	 	 	 	 	 	 	 	1581490796	8.73	16.17
12/02/2020 06:59:57	120220	12022020	065957	186.73	12.992767	-57.095985	186.86	0.220	-0.610	2.190	186.66	-2.00	2.70	 	 	 	 	 	 	 	 	 	 	 	 	 	 	 	 	 	 	1581490797	8.55	15.83
12/02/2020 06:59:58	120220	12022020	065958	186.51	12.992732	-57.095997	186.71	-0.030	-0.110	2.470	186.51	-1.50	3.00	 	 	 	 	 	 	 	 	 	 	 	 	 	 	 	 	 	 	1581490798	7.92	14.67
12/02/2020 06:59:59	120220	12022020	065959	186.62	12.992698	-57.096007	186.85	-0.120	0.340	2.220	186.68	-1.00	2.80	 	 	 	 	 	 	 	 	 	 	 	 	 	 	 	 	 	 	1581490799	7.38	13.67
12/02/2020 07:00:00	120220	12022020	070000	186.87	12.992667	-57.096015	187.17	0.140	0.240	1.650	186.94	-1.10	2.20	 	 	 	 	 	 	 	 	 	 	 	 	 	 	 	 	 	 	1581490800	7.28	13.48
12/02/2020 07:00:01	120220	12022020	070001	187.28	12.992630	-57.096020	187.47	0.550	-0.440	1.140	187.33	-1.80	1.70	1015.10	26.20	26.30	20.00	20.10	-1.0	68.0	69.0	417.0	25.9	273.00	11.00	78.00	11.60	17	9270.0	27.2	27.2	1581490801	7.73	14.32
12/02/2020 07:00:02	120220	12022020	070002	187.41	12.992592	-57.096025	187.54	0.740	-1.330	1.090	187.39	-2.70	1.60	 	 	 	 	 	 	 	 	 	 	 	 	 	 	 	 	 	 	1581490802	8.35	15.46
12/02/2020 07:00:03	120220	12022020	070003	187.16	12.992552	-57.096032	187.24	0.560	-1.870	1.700	187.08	-3.20	2.20	 	 	 	 	 	 	 	 	 	 	 	 	 	 	 	 	 	 	1581490803	8.63	15.98
12/02/2020 07:00:04	120220	12022020	070004	186.72	12.992513	-57.096040	186.82	0.070	-1.530	2.550	186.64	-2.90	3.10	 	 	 	 	 	 	 	 	 	 	 	 	 	 	 	 	 	 	1581490804	8.62	15.96
12/02/2020 07:00:05	120220	12022020	070005	186.43	12.992477	-57.096052	186.59	-0.590	-0.310	3.200	186.41	-1.70	3.70	 	 	 	 	 	 	 	 	 	 	 	 	 	 	 	 	 	 	1581490805	8.07	14.95
12/02/2020 07:00:06	120220	12022020	070006	186.47	12.992445	-57.096063	186.69	-1.270	0.930	3.420	186.50	-0.50	3.90	 	 	 	 	 	 	 	 	 	 	 	 	 	 	 	 	 	 	1581490806	7.40	13.70
12/02/2020 07:00:07	120220	12022020	070007	186.65	12.992412	-57.096075	186.88	-1.600	1.380	3.430	186.68	0.00	4.00	 	 	 	 	 	 	 	 	 	 	 	 	 	 	 	 	 	 	1581490807	7.35	13.61
12/02/2020 07:00:08	120220	12022020	070008	186.69	12.992377	-57.096087	186.86	-1.190	0.860	3.300	186.67	-0.50	3.80	 	 	 	 	 	 	 	 	 	 	 	 	 	 	 	 	 	 	1581490808	8.03	14.87
12/02/2020 07:00:09	120220	12022020	070009	186.55	12.992338	-57.096100	186.70	-0.060	-0.020	2.850	186.51	-1.40	3.40	 	 	 	 	 	 	 	 	 	 	 	 	 	 	 	 	 	 	1581490809	8.81	16.32
12/02/2020 07:00:10	120220	12022020	070010	186.41	12.992297	-57.096107	186.56	1.120	-0.540	2.090	186.41	-1.90	2.70	 	 	 	 	 	 	 	 	 	 	 	 	 	 	 	 	 	 	1581490810	8.96	16.59
12/02/2020 07:00:11	120220	12022020	070011	186.47	12.992258	-57.096108	186.65	1.610	-0.500	1.330	186.49	-1.90	1.90	 	 	 	 	 	 	 	 	 	 	 	 	 	 	 	 	 	 	1581490811	8.46	15.67
12/02/2020 07:00:12	120220	12022020	070012	186.58	12.992222	-57.096107	186.77	1.220	-0.240	1.010	186.60	-1.60	1.60	 	 	 	 	 	 	 	 	 	 	 	 	 	 	 	 	 	 	1581490812	7.70	14.26
12/02/2020 07:00:13	120220	12022020	070013	186.61	12.992188	-57.096107	186.73	0.440	-0.200	1.340	186.58	-1.60	1.90	 	 	 	 	 	 	 	 	 	 	 	 	 	 	 	 	 	 	1581490813	7.22	13.37
12/02/2020 07:00:14	120220	12022020	070014	186.41	12.992155	-57.096113	186.52	-0.190	-0.440	2.200	186.35	-1.80	2.70	 	 	 	 	 	 	 	 	 	 	 	 	 	 	 	 	 	 	1581490814	7.46	13.82
12/02/2020 07:00:15	120220	12022020	070015	186.11	12.992118	-57.096125	186.25	-0.490	-0.840	3.090	186.07	-2.20	3.60	 	 	 	 	 	 	 	 	 	 	 	 	 	 	 	 	 	 	1581490815	8.00	14.82
12/02/2020 07:00:16	120220	12022020	070016	185.97	12.992082	-57.096140	186.18	-0.600	-1.090	3.560	185.96	-2.40	4.10	 	 	 	 	 	 	 	 	 	 	 	 	 	 	 	 	 	 	1581490816	8.51	15.76
12/02/2020 07:00:17	120220	12022020	070017	186.01	12.992045	-57.096153	186.25	-0.590	-0.840	3.500	186.03	-2.20	4.00	 	 	 	 	 	 	 	 	 	 	 	 	 	 	 	 	 	 	1581490817	8.50	15.74
12/02/2020 07:00:18	120220	12022020	070018	186.08	12.992008	-57.096165	186.30	-0.470	-0.290	2.990	186.09	-1.70	3.60	 	 	 	 	 	 	 	 	 	 	 	 	 	 	 	 	 	 	1581490818	7.97	14.76
12/02/2020 07:00:19	120220	12022020	070019	186.08	12.991973	-57.096170	186.25	-0.260	0.150	2.400	186.05	-1.20	3.00	 	 	 	 	 	 	 	 	 	 	 	 	 	 	 	 	 	 	1581490819	7.64	14.15
12/02/2020 07:00:20	120220	12022020	070020	185.88	12.991938	-57.096173	186.01	-0.040	0.240	1.970	185.82	-1.10	2.50	 	 	 	 	 	 	 	 	 	 	 	 	 	 	 	 	 	 	1581490820	7.79	14.43
12/02/2020 07:00:21	120220	12022020	070021	185.60	12.991900	-57.096177	185.75	0.160	0.130	1.650	185.56	-1.20	2.20	 	 	 	 	 	 	 	 	 	 	 	 	 	 	 	 	 	 	1581490821	8.15	15.09
12/02/2020 07:00:22	120220	12022020	070022	185.50	12.991862	-57.096180	185.70	0.320	0.150	1.370	185.52	-1.20	1.90	 	 	 	 	 	 	 	 	 	 	 	 	 	 	 	 	 	 	1581490822	8.29	15.35
12/02/2020 07:00:23	120220	12022020	070023	185.75	12.991825	-57.096185	186.01	0.370	0.360	1.110	185.84	-1.00	1.70	 	 	 	 	 	 	 	 	 	 	 	 	 	 	 	 	 	 	1581490823	8.02	14.85
12/02/2020 07:00:24	120220	12022020	070024	186.12	12.991790	-57.096188	186.43	0.270	0.420	1.200	186.20	-1.00	1.70	 	 	 	 	 	 	 	 	 	 	 	 	 	 	 	 	 	 	1581490824	7.57	14.02
12/02/2020 07:00:25	120220	12022020	070025	186.42	12.991755	-57.096195	186.61	0.120	-0.020	1.720	186.44	-1.40	2.20	 	 	 	 	 	 	 	 	 	 	 	 	 	 	 	 	 	 	1581490825	7.52	13.93
12/02/2020 07:00:26	120220	12022020	070026	186.43	12.991718	-57.096203	186.63	0.070	-0.760	2.290	186.42	-2.10	2.80	 	 	 	 	 	 	 	 	 	 	 	 	 	 	 	 	 	 	1581490826	8.02	14.85
12/02/2020 07:00:27	120220	12022020	070027	186.37	12.991682	-57.096215	186.57	0.080	-1.300	2.760	186.35	-2.70	3.30	 	 	 	 	 	 	 	 	 	 	 	 	 	 	 	 	 	 	1581490827	8.40	15.56
12/02/2020 07:00:28	120220	12022020	070028	186.23	12.991645	-57.096225	186.42	0.060	-1.310	3.030	186.19	-2.70	3.50	 	 	 	 	 	 	 	 	 	 	 	 	 	 	 	 	 	 	1581490828	8.30	15.37
12/02/2020 07:00:29	120220	12022020	070029	185.98	12.991608	-57.096235	186.13	-0.020	-0.910	2.950	185.92	-2.30	3.50	 	 	 	 	 	 	 	 	 	 	 	 	 	 	 	 	 	 	1581490829	7.91	14.65
12/02/2020 07:00:30	120220	12022020	070030	185.67	12.991573	-57.096242	185.83	-0.090	-0.410	2.680	185.62	-1.80	3.20	 	 	 	 	 	 	 	 	 	 	 	 	 	 	 	 	 	 	1581490830	7.68	14.22
12/02/2020 07:00:31	120220	12022020	070031	185.56	12.991538	-57.096247	185.78	-0.100	0.090	2.190	185.59	-1.30	2.80	 	 	 	 	 	 	 	 	 	 	 	 	 	 	 	 	 	 	1581490831	7.81	14.46
12/02/2020 07:00:32	120220	12022020	070032	185.84	12.991502	-57.096250	186.11	-0.160	0.470	1.640	185.93	-0.90	2.20	 	 	 	 	 	 	 	 	 	 	 	 	 	 	 	 	 	 	1581490832	7.87	14.58
12/02/2020 07:00:33	120220	12022020	070033	186.29	12.991465	-57.096252	186.55	-0.300	0.440	1.390	186.36	-0.90	1.90	 	 	 	 	 	 	 	 	 	 	 	 	 	 	 	 	 	 	1581490833	7.89	14.61
12/02/2020 07:00:34	120220	12022020	070034	186.51	12.991427	-57.096257	186.70	-0.350	-0.020	1.610	186.51	-1.40	2.10	 	 	 	 	 	 	 	 	 	 	 	 	 	 	 	 	 	 	1581490834	8.16	15.11
12/02/2020 07:00:35	120220	12022020	070035	186.37	12.991388	-57.096267	186.55	-0.210	-0.410	1.990	186.33	-1.80	2.50	 	 	 	 	 	 	 	 	 	 	 	 	 	 	 	 	 	 	1581490835	8.58	15.89
12/02/2020 07:00:36	120220	12022020	070036	186.21	12.991350	-57.096277	186.43	-0.010	-0.180	2.210	186.21	-1.60	2.70	 	 	 	 	 	 	 	 	 	 	 	 	 	 	 	 	 	 	1581490836	8.50	15.74
12/02/2020 07:00:37	120220	12022020	070037	186.29	12.991315	-57.096285	186.53	0.100	0.360	2.140	186.33	-1.00	2.70	 	 	 	 	 	 	 	 	 	 	 	 	 	 	 	 	 	 	1581490837	7.72	14.30
12/02/2020 07:00:38	120220	12022020	070038	186.49	12.991283	-57.096293	186.72	0.150	0.490	1.890	186.54	-0.90	2.40	 	 	 	 	 	 	 	 	 	 	 	 	 	 	 	 	 	 	1581490838	7.17	13.28
12/02/2020 07:00:39	120220	12022020	070039	186.65	12.991248	-57.096298	186.84	0.330	-0.090	1.640	186.65	-1.40	2.20	 	 	 	 	 	 	 	 	 	 	 	 	 	 	 	 	 	 	1581490839	7.43	13.76
12/02/2020 07:00:40	120220	12022020	070040	186.51	12.991212	-57.096305	186.62	0.580	-1.020	1.670	186.44	-2.40	2.20	 	 	 	 	 	 	 	 	 	 	 	 	 	 	 	 	 	 	1581490840	8.15	15.09
12/02/2020 07:00:41	120220	12022020	070041	186.07	12.991172	-57.096310	186.18	0.660	-1.560	1.880	185.99	-2.90	2.40	 	 	 	 	 	 	 	 	 	 	 	 	 	 	 	 	 	 	1581490841	8.62	15.96
12/02/2020 07:00:42	120220	12022020	070042	185.77	12.991132	-57.096315	185.95	0.280	-1.270	2.040	185.75	-2.70	2.60	 	 	 	 	 	 	 	 	 	 	 	 	 	 	 	 	 	 	1581490842	8.44	15.63
12/02/2020 07:00:43	120220	12022020	070043	185.76	12.991097	-57.096320	185.95	-0.340	-0.650	2.180	185.77	-2.00	2.70	 	 	 	 	 	 	 	 	 	 	 	 	 	 	 	 	 	 	1581490843	7.75	14.35
12/02/2020 07:00:44	120220	12022020	070044	185.77	12.991062	-57.096328	185.95	-0.760	-0.320	2.400	185.76	-1.70	2.90	 	 	 	 	 	 	 	 	 	 	 	 	 	 	 	 	 	 	1581490844	7.67	14.20
12/02/2020 07:00:45	120220	12022020	070045	185.71	12.991025	-57.096338	185.91	-0.760	-0.110	2.680	185.71	-1.50	3.20	 	 	 	 	 	 	 	 	 	 	 	 	 	 	 	 	 	 	1581490845	8.26	15.30
12/02/2020 07:00:46	120220	12022020	070046	185.77	12.990987	-57.096350	186.04	-0.570	0.380	2.700	185.83	-1.00	3.20	 	 	 	 	 	 	 	 	 	 	 	 	 	 	 	 	 	 	1581490846	8.51	15.76
12/02/2020 07:00:47	120220	12022020	070047	186.23	12.990950	-57.096358	186.56	-0.470	1.090	2.280	186.36	-0.30	2.80	 	 	 	 	 	 	 	 	 	 	 	 	 	 	 	 	 	 	1581490847	8.06	14.93
12/02/2020 07:00:48	120220	12022020	070048	186.91	12.990917	-57.096365	187.19	-0.360	1.370	1.600	187.02	0.00	2.20	 	 	 	 	 	 	 	 	 	 	 	 	 	 	 	 	 	 	1581490848	7.41	13.72
12/02/2020 07:00:49	120220	12022020	070049	187.19	12.990882	-57.096368	187.32	0.060	0.590	1.280	187.15	-0.70	1.80	 	 	 	 	 	 	 	 	 	 	 	 	 	 	 	 	 	 	1581490849	7.42	13.74
12/02/2020 07:00:50	120220	12022020	070050	186.87	12.990843	-57.096373	186.76	0.760	-0.860	1.630	186.74	-2.20	2.20	 	 	 	 	 	 	 	 	 	 	 	 	 	 	 	 	 	 	1581490850	8.36	15.48
12/02/2020 07:00:51	120220	12022020	070051	185.99	12.990802	-57.096380	186.08	1.220	-1.710	2.110	185.88	-3.10	2.60	 	 	 	 	 	 	 	 	 	 	 	 	 	 	 	 	 	 	1581490851	9.12	16.89
12/02/2020 07:00:52	120220	12022020	070052	185.69	12.990762	-57.096385	185.88	1.070	-1.280	2.230	185.67	-2.70	2.80	 	 	 	 	 	 	 	 	 	 	 	 	 	 	 	 	 	 	1581490852	8.63	15.98
12/02/2020 07:00:53	120220	12022020	070053	185.83	12.990728	-57.096390	186.09	0.430	-0.270	2.010	185.88	-1.70	2.50	 	 	 	 	 	 	 	 	 	 	 	 	 	 	 	 	 	 	1581490853	7.35	13.61
12/02/2020 07:00:54	120220	12022020	070054	186.12	12.990697	-57.096395	186.37	-0.250	0.160	1.810	186.18	-1.20	2.30	 	 	 	 	 	 	 	 	 	 	 	 	 	 	 	 	 	 	1581490854	6.79	12.58
12/02/2020 07:00:55	120220	12022020	070055	186.35	12.990662	-57.096400	186.59	-0.670	-0.250	1.900	186.38	-1.60	2.40	 	 	 	 	 	 	 	 	 	 	 	 	 	 	 	 	 	 	1581490855	7.53	13.95
12/02/2020 07:00:56	120220	12022020	070056	186.41	12.990623	-57.096410	186.63	-0.840	-0.910	2.230	186.39	-2.20	2.70	 	 	 	 	 	 	 	 	 	 	 	 	 	 	 	 	 	 	1581490856	8.55	15.83
12/02/2020 07:00:57	120220	12022020	070057	186.26	12.990583	-57.096422	186.48	-0.830	-1.100	2.730	186.23	-2.50	3.20	 	 	 	 	 	 	 	 	 	 	 	 	 	 	 	 	 	 	1581490857	8.98	16.63
12/02/2020 07:00:58	120220	12022020	070058	186.13	12.990545	-57.096435	186.35	-0.690	-0.630	3.050	186.10	-2.00	3.60	 	 	 	 	 	 	 	 	 	 	 	 	 	 	 	 	 	 	1581490858	8.70	16.11
12/02/2020 07:00:59	120220	12022020	070059	185.98	12.990508	-57.096447	186.19	-0.360	0.010	3.010	185.93	-1.40	3.50	 	 	 	 	 	 	 	 	 	 	 	 	 	 	 	 	 	 	1581490859	8.05	14.91
12/02/2020 07:01:00	120220	12022020	070100	185.69	12.990473	-57.096453	185.87	0.090	0.390	2.780	185.62	-1.00	3.30	 	 	 	 	 	 	 	 	 	 	 	 	 	 	 	 	 	 	1581490860	7.93	14.69
12/02/2020 07:01:01	120220	12022020	070101	185.51	12.990435	-57.096458	185.76	0.420	0.730	2.180	185.52	-0.60	2.70	1015.10	26.30	26.30	20.20	20.20	-1.0	69.0	69.0	416.0	25.9	270.00	10.60	75.00	11.30	17	9674.0	27.3	27.2	1581490861	8.24	15.26
12/02/2020 07:01:02	120220	12022020	070102	185.74	12.990398	-57.096462	186.18	0.480	1.290	1.190	185.85	-0.10	1.80	 	 	 	 	 	 	 	 	 	 	 	 	 	 	 	 	 	 	1581490862	8.08	14.96
12/02/2020 07:01:03	120220	12022020	070103	186.58	12.990363	-57.096462	186.89	0.430	1.420	0.200	186.72	0.10	0.80	 	 	 	 	 	 	 	 	 	 	 	 	 	 	 	 	 	 	1581490863	7.39	13.69
12/02/2020 07:01:04	120220	12022020	070104	187.04	12.990328	-57.096458	187.23	0.510	0.230	0.140	187.05	-1.10	0.70	 	 	 	 	 	 	 	 	 	 	 	 	 	 	 	 	 	 	1581490864	7.39	13.69
12/02/2020 07:01:05	120220	12022020	070105	186.72	12.990290	-57.096462	186.79	0.700	-1.860	1.320	186.58	-3.10	1.80	 	 	 	 	 	 	 	 	 	 	 	 	 	 	 	 	 	 	1581490865	8.44	15.63
12/02/2020 07:01:06	120220	12022020	070106	185.78	12.990247	-57.096473	185.84	0.680	-3.300	3.130	185.59	-4.60	3.60	 	 	 	 	 	 	 	 	 	 	 	 	 	 	 	 	 	 	1581490866	9.58	17.74
12/02/2020 07:01:07	120220	12022020	070107	184.85	12.990205	-57.096488	184.99	0.250	-2.970	4.550	184.70	-4.40	5.00	 	 	 	 	 	 	 	 	 	 	 	 	 	 	 	 	 	 	1581490867	9.54	17.67
12/02/2020 07:01:08	120220	12022020	070108	184.40	12.990170	-57.096505	184.67	-0.470	-1.120	5.020	184.39	-2.60	5.50	 	 	 	 	 	 	 	 	 	 	 	 	 	 	 	 	 	 	1581490868	8.33	15.43
12/02/2020 07:01:09	120220	12022020	070109	184.59	12.990140	-57.096517	184.96	-1.180	0.980	4.610	184.69	-0.40	5.10	 	 	 	 	 	 	 	 	 	 	 	 	 	 	 	 	 	 	1581490869	7.00	12.96
12/02/2020 07:01:10	120220	12022020	070110	185.19	12.990110	-57.096525	185.57	-1.470	1.930	3.570	185.33	0.60	4.10	 	 	 	 	 	 	 	 	 	 	 	 	 	 	 	 	 	 	1581490870	6.63	12.28
12/02/2020 07:01:11	120220	12022020	070111	185.74	12.990075	-57.096532	186.02	-1.080	1.320	2.330	185.81	0.00	2.90	 	 	 	 	 	 	 	 	 	 	 	 	 	 	 	 	 	 	1581490871	7.58	14.04
12/02/2020 07:01:12	120220	12022020	070112	185.88	12.990033	-57.096535	186.07	-0.150	-0.050	1.450	185.87	-1.40	2.00	 	 	 	 	 	 	 	 	 	 	 	 	 	 	 	 	 	 	1581490872	9.01	16.69
12/02/2020 07:01:13	120220	12022020	070113	185.81	12.989988	-57.096537	186.00	0.760	-0.860	0.900	185.80	-2.20	1.50	 	 	 	 	 	 	 	 	 	 	 	 	 	 	 	 	 	 	1581490873	9.66	17.89
12/02/2020 07:01:14	120220	12022020	070114	185.81	12.989947	-57.096538	186.02	1.090	-0.530	0.510	185.82	-1.90	1.10	 	 	 	 	 	 	 	 	 	 	 	 	 	 	 	 	 	 	1581490874	8.96	16.59
12/02/2020 07:01:15	120220	12022020	070115	185.99	12.989912	-57.096538	186.21	0.780	0.330	0.410	186.04	-1.10	1.00	 	 	 	 	 	 	 	 	 	 	 	 	 	 	 	 	 	 	1581490875	7.57	14.02
12/02/2020 07:01:16	120220	12022020	070116	186.21	12.989880	-57.096540	186.41	0.320	0.650	0.720	186.24	-0.70	1.20	 	 	 	 	 	 	 	 	 	 	 	 	 	 	 	 	 	 	1581490876	6.80	12.59
12/02/2020 07:01:17	120220	12022020	070117	186.30	12.989847	-57.096545	186.50	0.140	0.100	1.290	186.30	-1.20	1.80	 	 	 	 	 	 	 	 	 	 	 	 	 	 	 	 	 	 	1581490877	7.29	13.50
12/02/2020 07:01:18	120220	12022020	070118	186.20	12.989808	-57.096553	186.39	0.180	-0.830	2.110	186.16	-2.20	2.60	 	 	 	 	 	 	 	 	 	 	 	 	 	 	 	 	 	 	1581490878	8.22	15.22
12/02/2020 07:01:19	120220	12022020	070119	186.00	12.989770	-57.096563	186.21	0.110	-1.560	2.860	185.96	-2.90	3.30	 	 	 	 	 	 	 	 	 	 	 	 	 	 	 	 	 	 	1581490879	8.72	16.15
12/02/2020 07:01:20	120220	12022020	070120	185.86	12.989730	-57.096575	186.10	-0.230	-1.550	3.350	185.85	-2.90	3.80	 	 	 	 	 	 	 	 	 	 	 	 	 	 	 	 	 	 	1581490880	8.71	16.13
12/02/2020 07:01:21	120220	12022020	070121	185.85	12.989695	-57.096587	186.11	-0.650	-0.830	3.420	185.85	-2.20	3.90	 	 	 	 	 	 	 	 	 	 	 	 	 	 	 	 	 	 	1581490881	8.17	15.13
12/02/2020 07:01:22	120220	12022020	070122	185.87	12.989662	-57.096597	186.13	-0.820	-0.060	3.100	185.88	-1.40	3.60	 	 	 	 	 	 	 	 	 	 	 	 	 	 	 	 	 	 	1581490882	7.49	13.87
12/02/2020 07:01:23	120220	12022020	070123	185.85	12.989627	-57.096603	186.09	-0.650	0.140	2.630	185.83	-1.20	3.20	 	 	 	 	 	 	 	 	 	 	 	 	 	 	 	 	 	 	1581490883	7.57	14.02
12/02/2020 07:01:24	120220	12022020	070124	185.77	12.989588	-57.096610	186.01	-0.260	-0.030	2.110	185.76	-1.40	2.70	 	 	 	 	 	 	 	 	 	 	 	 	 	 	 	 	 	 	1581490884	8.32	15.41
12/02/2020 07:01:25	120220	12022020	070125	185.76	12.989548	-57.096615	186.00	0.180	0.040	1.560	185.77	-1.30	2.10	 	 	 	 	 	 	 	 	 	 	 	 	 	 	 	 	 	 	1581490885	8.73	16.17
12/02/2020 07:01:26	120220	12022020	070126	185.82	12.989510	-57.096620	186.07	0.590	0.450	1.060	185.85	-0.90	1.60	 	 	 	 	 	 	 	 	 	 	 	 	 	 	 	 	 	 	1581490886	8.37	15.50
12/02/2020 07:01:27	120220	12022020	070127	186.02	12.989473	-57.096620	186.28	0.810	0.870	0.670	186.08	-0.50	1.20	 	 	 	 	 	 	 	 	 	 	 	 	 	 	 	 	 	 	1581490887	7.82	14.48
12/02/2020 07:01:28	120220	12022020	070128	186.33	12.989438	-57.096620	186.70	0.660	0.850	0.590	186.42	-0.50	1.10	 	 	 	 	 	 	 	 	 	 	 	 	 	 	 	 	 	 	1581490888	7.60	14.08
12/02/2020 07:01:29	120220	12022020	070129	186.82	12.989402	-57.096623	187.07	0.260	0.090	1.130	186.87	-1.30	1.60	 	 	 	 	 	 	 	 	 	 	 	 	 	 	 	 	 	 	1581490889	7.69	14.24
12/02/2020 07:01:30	120220	12022020	070130	186.93	12.989365	-57.096632	187.14	-0.030	-1.160	2.110	186.92	-2.50	2.60	 	 	 	 	 	 	 	 	 	 	 	 	 	 	 	 	 	 	1581490890	8.29	15.35
12/02/2020 07:01:31	120220	12022020	070131	186.72	12.989325	-57.096645	186.90	-0.030	-2.080	3.130	186.65	-3.40	3.60	 	 	 	 	 	 	 	 	 	 	 	 	 	 	 	 	 	 	1581490891	8.93	16.54
12/02/2020 07:01:32	120220	12022020	070132	186.32	12.989287	-57.096658	186.51	-0.050	-1.840	3.820	186.24	-3.20	4.30	 	 	 	 	 	 	 	 	 	 	 	 	 	 	 	 	 	 	1581490892	8.83	16.35
12/02/2020 07:01:33	120220	12022020	070133	186.02	12.989252	-57.096670	186.26	-0.400	-0.730	3.920	185.98	-2.10	4.40	 	 	 	 	 	 	 	 	 	 	 	 	 	 	 	 	 	 	1581490893	7.88	14.59
12/02/2020 07:01:34	120220	12022020	070134	185.90	12.989218	-57.096678	186.14	-0.800	0.180	3.670	185.87	-1.20	4.20	 	 	 	 	 	 	 	 	 	 	 	 	 	 	 	 	 	 	1581490894	7.14	13.22
12/02/2020 07:01:35	120220	12022020	070135	185.74	12.989185	-57.096688	185.96	-0.670	0.280	3.190	185.70	-1.10	3.70	 	 	 	 	 	 	 	 	 	 	 	 	 	 	 	 	 	 	1581490895	7.53	13.95
12/02/2020 07:01:36	120220	12022020	070136	185.58	12.989147	-57.096697	185.82	0.080	0.020	2.360	185.58	-1.40	2.90	 	 	 	 	 	 	 	 	 	 	 	 	 	 	 	 	 	 	1581490896	8.47	15.69
12/02/2020 07:01:37	120220	12022020	070137	185.73	12.989105	-57.096698	186.03	0.830	0.040	1.390	185.81	-1.30	2.00	 	 	 	 	 	 	 	 	 	 	 	 	 	 	 	 	 	 	1581490897	8.86	16.41
12/02/2020 07:01:38	120220	12022020	070138	186.28	12.989067	-57.096698	186.61	0.950	0.410	0.520	186.42	-1.00	1.10	 	 	 	 	 	 	 	 	 	 	 	 	 	 	 	 	 	 	1581490898	8.43	15.61
12/02/2020 07:01:39	120220	12022020	070139	186.97	12.989030	-57.096698	187.26	0.450	0.590	0.180	187.08	-0.80	0.70	 	 	 	 	 	 	 	 	 	 	 	 	 	 	 	 	 	 	1581490899	7.73	14.32
12/02/2020 07:01:40	120220	12022020	070140	187.30	12.988995	-57.096700	187.53	-0.120	0.150	0.720	187.33	-1.20	1.20	 	 	 	 	 	 	 	 	 	 	 	 	 	 	 	 	 	 	1581490900	7.54	13.96
12/02/2020 07:01:41	120220	12022020	070141	187.18	12.988958	-57.096708	187.33	-0.240	-0.740	1.860	187.11	-2.10	2.40	 	 	 	 	 	 	 	 	 	 	 	 	 	 	 	 	 	 	1581490901	8.12	15.04
12/02/2020 07:01:42	120220	12022020	070142	186.92	12.988920	-57.096722	187.06	-0.070	-1.260	2.910	186.86	-2.60	3.40	 	 	 	 	 	 	 	 	 	 	 	 	 	 	 	 	 	 	1581490902	8.81	16.32
12/02/2020 07:01:43	120220	12022020	070143	186.72	12.988882	-57.096735	186.97	-0.040	-0.890	3.450	186.72	-2.30	3.90	 	 	 	 	 	 	 	 	 	 	 	 	 	 	 	 	 	 	1581490903	8.60	15.93
12/02/2020 07:01:44	120220	12022020	070144	186.71	12.988848	-57.096747	186.96	-0.270	-0.180	3.480	186.70	-1.60	4.00	 	 	 	 	 	 	 	 	 	 	 	 	 	 	 	 	 	 	1581490904	7.68	14.22
12/02/2020 07:01:45	120220	12022020	070145	186.65	12.988815	-57.096755	186.87	-0.410	0.090	3.030	186.64	-1.30	3.60	 	 	 	 	 	 	 	 	 	 	 	 	 	 	 	 	 	 	1581490905	7.32	13.56
12/02/2020 07:01:46	120220	12022020	070146	186.62	12.988780	-57.096763	186.86	-0.160	-0.020	2.200	186.64	-1.40	2.80	 	 	 	 	 	 	 	 	 	 	 	 	 	 	 	 	 	 	1581490906	7.79	14.43
12/02/2020 07:01:47	120220	12022020	070147	186.78	12.988742	-57.096768	187.02	0.340	-0.220	1.130	186.82	-1.60	1.70	 	 	 	 	 	 	 	 	 	 	 	 	 	 	 	 	 	 	1581490907	8.19	15.17
12/02/2020 07:01:48	120220	12022020	070148	186.95	12.988703	-57.096768	187.15	0.640	-0.540	0.510	186.96	-1.90	1.10	 	 	 	 	 	 	 	 	 	 	 	 	 	 	 	 	 	 	1581490908	8.29	15.35
12/02/2020 07:01:49	120220	12022020	070149	186.93	12.988665	-57.096768	187.10	0.420	-0.810	0.770	186.91	-2.20	1.30	 	 	 	 	 	 	 	 	 	 	 	 	 	 	 	 	 	 	1581490909	8.39	15.54
12/02/2020 07:01:50	120220	12022020	070150	186.76	12.988627	-57.096773	186.90	-0.210	-0.770	1.600	186.71	-2.20	2.10	 	 	 	 	 	 	 	 	 	 	 	 	 	 	 	 	 	 	1581490910	8.35	15.46
12/02/2020 07:01:51	120220	12022020	070151	186.44	12.988590	-57.096785	186.59	-0.760	-0.440	2.620	186.37	-1.80	3.10	 	 	 	 	 	 	 	 	 	 	 	 	 	 	 	 	 	 	1581490911	8.29	15.35
12/02/2020 07:01:52	120220	12022020	070152	186.13	12.988553	-57.096802	186.34	-0.750	0.080	3.270	186.10	-1.30	3.80	 	 	 	 	 	 	 	 	 	 	 	 	 	 	 	 	 	 	1581490912	8.37	15.50
12/02/2020 07:01:53	120220	12022020	070153	186.11	12.988518	-57.096817	186.38	-0.110	0.620	3.030	186.15	-0.80	3.60	 	 	 	 	 	 	 	 	 	 	 	 	 	 	 	 	 	 	1581490913	8.20	15.19
12/02/2020 07:01:54	120220	12022020	070154	186.37	12.988483	-57.096825	186.66	0.640	0.750	2.160	186.44	-0.60	2.70	 	 	 	 	 	 	 	 	 	 	 	 	 	 	 	 	 	 	1581490914	7.78	14.41
12/02/2020 07:01:55	120220	12022020	070155	186.70	12.988447	-57.096825	186.97	0.840	0.310	1.420	186.77	-1.00	2.00	 	 	 	 	 	 	 	 	 	 	 	 	 	 	 	 	 	 	1581490915	8.05	14.91
12/02/2020 07:01:56	120220	12022020	070156	187.05	12.988407	-57.096825	187.31	0.330	-0.180	1.310	187.11	-1.50	1.80	 	 	 	 	 	 	 	 	 	 	 	 	 	 	 	 	 	 	1581490916	8.38	15.52
12/02/2020 07:01:57	120220	12022020	070157	187.23	12.988370	-57.096830	187.42	-0.400	-0.490	1.880	187.21	-1.90	2.40	 	 	 	 	 	 	 	 	 	 	 	 	 	 	 	 	 	 	1581490917	8.02	14.85
12/02/2020 07:01:58	120220	12022020	070158	186.92	12.988335	-57.096842	187.04	-0.600	-0.920	2.790	186.81	-2.30	3.30	 	 	 	 	 	 	 	 	 	 	 	 	 	 	 	 	 	 	1581490918	7.80	14.45
12/02/2020 07:01:59	120220	12022020	070159	186.36	12.988300	-57.096857	186.51	-0.100	-1.430	3.330	186.26	-2.80	3.80	 	 	 	 	 	 	 	 	 	 	 	 	 	 	 	 	 	 	1581490919	8.23	15.24
12/02/2020 07:02:00	120220	12022020	070200	186.07	12.988262	-57.096867	186.31	0.460	-1.430	3.210	186.06	-2.80	3.70	 	 	 	 	 	 	 	 	 	 	 	 	 	 	 	 	 	 	1581490920	8.59	15.91
12/02/2020 07:02:01	120220	12022020	070201	186.18	12.988223	-57.096875	186.45	0.520	-0.720	2.640	186.23	-2.10	3.20	1014.90	26.20	26.30	20.50	20.50	-1.0	70.0	70.0	415.0	25.9	274.00	11.00	79.00	11.50	17	9138.0	27.3	27.2	1581490921	8.18	15.15
12/02/2020 07:02:02	120220	12022020	070202	186.43	12.988190	-57.096878	186.67	0.230	0.100	1.940	186.46	-1.30	2.50	 	 	 	 	 	 	 	 	 	 	 	 	 	 	 	 	 	 	1581490922	7.50	13.89
12/02/2020 07:02:03	120220	12022020	070203	186.52	12.988155	-57.096882	186.72	0.040	0.450	1.400	186.53	-0.90	2.00	 	 	 	 	 	 	 	 	 	 	 	 	 	 	 	 	 	 	1581490923	7.47	13.83
12/02/2020 07:02:04	120220	12022020	070204	186.60	12.988117	-57.096883	186.87	0.010	0.420	1.230	186.64	-1.00	1.80	 	 	 	 	 	 	 	 	 	 	 	 	 	 	 	 	 	 	1581490924	8.07	14.95
12/02/2020 07:02:05	120220	12022020	070205	186.92	12.988078	-57.096888	187.17	-0.180	0.280	1.420	186.99	-1.10	2.00	 	 	 	 	 	 	 	 	 	 	 	 	 	 	 	 	 	 	1581490925	8.37	15.50
12/02/2020 07:02:06	120220	12022020	070206	187.20	12.988040	-57.096895	187.45	-0.570	0.060	1.740	187.24	-1.30	2.30	 	 	 	 	 	 	 	 	 	 	 	 	 	 	 	 	 	 	1581490926	8.28	15.33
12/02/2020 07:02:07	120220	12022020	070207	187.36	12.988003	-57.096905	187.59	-0.840	-0.220	2.090	187.38	-1.60	2.60	 	 	 	 	 	 	 	 	 	 	 	 	 	 	 	 	 	 	1581490927	8.26	15.30
12/02/2020 07:02:08	120220	12022020	070208	187.43	12.987967	-57.096918	187.64	-0.730	-0.400	2.470	187.42	-1.80	3.00	 	 	 	 	 	 	 	 	 	 	 	 	 	 	 	 	 	 	1581490928	8.28	15.33
12/02/2020 07:02:09	120220	12022020	070209	187.20	12.987932	-57.096932	187.35	-0.180	-0.580	2.890	187.11	-1.90	3.40	 	 	 	 	 	 	 	 	 	 	 	 	 	 	 	 	 	 	1581490929	8.16	15.11
12/02/2020 07:02:10	120220	12022020	070210	186.63	12.987895	-57.096943	186.74	0.520	-0.730	3.120	186.50	-2.10	3.60	 	 	 	 	 	 	 	 	 	 	 	 	 	 	 	 	 	 	1581490930	8.23	15.24
12/02/2020 07:02:11	120220	12022020	070211	186.07	12.987858	-57.096953	186.25	0.960	-0.500	2.920	186.01	-1.90	3.50	 	 	 	 	 	 	 	 	 	 	 	 	 	 	 	 	 	 	1581490931	8.31	15.39
12/02/2020 07:02:12	120220	12022020	070212	186.04	12.987822	-57.096958	186.34	0.910	0.180	2.200	186.13	-1.20	2.80	 	 	 	 	 	 	 	 	 	 	 	 	 	 	 	 	 	 	1581490932	7.96	14.74
12/02/2020 07:02:13	120220	12022020	070213	186.68	12.987787	-57.096960	187.03	0.520	0.920	1.230	186.85	-0.50	1.80	 	 	 	 	 	 	 	 	 	 	 	 	 	 	 	 	 	 	1581490933	7.35	13.61
12/02/2020 07:02:14	120220	12022020	070214	187.37	12.987755	-57.096958	187.61	0.110	0.680	0.790	187.43	-0.70	1.30	 	 	 	 	 	 	 	 	 	 	 	 	 	 	 	 	 	 	1581490934	7.01	12.98
12/02/2020 07:02:15	120220	12022020	070215	187.26	12.987718	-57.096962	187.38	-0.050	-0.940	1.490	187.16	-2.20	2.00	 	 	 	 	 	 	 	 	 	 	 	 	 	 	 	 	 	 	1581490935	7.81	14.46
12/02/2020 07:02:16	120220	12022020	070216	186.71	12.987675	-57.096972	186.87	-0.210	-2.300	2.710	186.61	-3.60	3.20	 	 	 	 	 	 	 	 	 	 	 	 	 	 	 	 	 	 	1581490936	9.45	17.50
12/02/2020 07:02:17	120220	12022020	070217	186.36	12.987633	-57.096987	186.57	-0.510	-1.970	3.670	186.32	-3.40	4.20	 	 	 	 	 	 	 	 	 	 	 	 	 	 	 	 	 	 	1581490937	9.56	17.71
12/02/2020 07:02:18	120220	12022020	070218	186.27	12.987600	-57.097003	186.48	-0.740	-0.610	3.980	186.25	-2.00	4.50	 	 	 	 	 	 	 	 	 	 	 	 	 	 	 	 	 	 	1581490938	8.09	14.98
12/02/2020 07:02:19	120220	12022020	070219	186.10	12.987570	-57.097017	186.29	-0.510	0.270	3.780	186.04	-1.10	4.30	 	 	 	 	 	 	 	 	 	 	 	 	 	 	 	 	 	 	1581490939	7.09	13.13
12/02/2020 07:02:20	120220	12022020	070220	185.74	12.987535	-57.097025	185.90	0.060	0.220	3.400	185.66	-1.10	3.90	 	 	 	 	 	 	 	 	 	 	 	 	 	 	 	 	 	 	1581490940	7.65	14.17
12/02/2020 07:02:21	120220	12022020	070221	185.42	12.987495	-57.097030	185.64	0.430	0.050	2.970	185.41	-1.30	3.50	 	 	 	 	 	 	 	 	 	 	 	 	 	 	 	 	 	 	1581490941	8.74	16.19
12/02/2020 07:02:22	120220	12022020	070222	185.48	12.987453	-57.097032	185.74	0.230	0.370	2.350	185.54	-1.00	2.90	 	 	 	 	 	 	 	 	 	 	 	 	 	 	 	 	 	 	1581490942	8.79	16.28
12/02/2020 07:02:23	120220	12022020	070223	185.86	12.987417	-57.097035	186.13	-0.330	0.850	1.930	185.95	-0.50	2.50	 	 	 	 	 	 	 	 	 	 	 	 	 	 	 	 	 	 	1581490943	7.99	14.80
12/02/2020 07:02:24	120220	12022020	070224	186.31	12.987382	-57.097042	186.56	-0.670	0.940	1.940	186.39	-0.40	2.50	 	 	 	 	 	 	 	 	 	 	 	 	 	 	 	 	 	 	1581490944	7.50	13.89
12/02/2020 07:02:25	120220	12022020	070225	186.66	12.987348	-57.097050	186.88	-0.460	0.570	1.970	186.72	-0.80	2.50	 	 	 	 	 	 	 	 	 	 	 	 	 	 	 	 	 	 	1581490945	7.69	14.24
12/02/2020 07:02:26	120220	12022020	070226	186.96	12.987312	-57.097060	187.17	0.210	-0.080	1.640	187.02	-1.40	2.20	 	 	 	 	 	 	 	 	 	 	 	 	 	 	 	 	 	 	1581490946	7.93	14.69
12/02/2020 07:02:27	120220	12022020	070227	187.20	12.987275	-57.097067	187.37	0.920	-0.880	1.210	187.23	-2.20	1.80	 	 	 	 	 	 	 	 	 	 	 	 	 	 	 	 	 	 	1581490947	7.99	14.80
12/02/2020 07:02:28	120220	12022020	070228	187.27	12.987238	-57.097072	187.39	1.240	-1.670	1.080	187.25	-3.00	1.60	 	 	 	 	 	 	 	 	 	 	 	 	 	 	 	 	 	 	1581490948	8.10	15.00
12/02/2020 07:02:29	120220	12022020	070229	187.03	12.987200	-57.097075	187.11	0.930	-2.150	1.570	186.94	-3.50	2.10	 	 	 	 	 	 	 	 	 	 	 	 	 	 	 	 	 	 	1581490949	8.26	15.30
12/02/2020 07:02:30	120220	12022020	070230	186.61	12.987162	-57.097082	186.55	0.150	-1.940	2.440	186.49	-3.30	2.90	 	 	 	 	 	 	 	 	 	 	 	 	 	 	 	 	 	 	1581490950	8.28	15.33
12/02/2020 07:02:31	120220	12022020	070231	185.90	12.987125	-57.097092	186.01	-0.700	-0.910	3.280	185.81	-2.30	3.80	 	 	 	 	 	 	 	 	 	 	 	 	 	 	 	 	 	 	1581490951	8.15	15.09
12/02/2020 07:02:32	120220	12022020	070232	185.59	12.987092	-57.097107	185.71	-1.180	0.290	3.650	185.53	-1.10	4.20	 	 	 	 	 	 	 	 	 	 	 	 	 	 	 	 	 	 	1581490952	7.82	14.48
12/02/2020 07:02:33	120220	12022020	070233	185.47	12.987057	-57.097118	185.70	-1.130	0.950	3.480	185.49	-0.40	4.00	 	 	 	 	 	 	 	 	 	 	 	 	 	 	 	 	 	 	1581490953	7.88	14.59
12/02/2020 07:02:34	120220	12022020	070234	185.69	12.987020	-57.097130	185.95	-0.670	1.050	2.950	185.77	-0.30	3.50	 	 	 	 	 	 	 	 	 	 	 	 	 	 	 	 	 	 	1581490954	8.32	15.41
12/02/2020 07:02:35	120220	12022020	070235	186.18	12.986982	-57.097137	186.47	-0.140	0.980	2.180	186.30	-0.40	2.80	 	 	 	 	 	 	 	 	 	 	 	 	 	 	 	 	 	 	1581490955	8.59	15.91
12/02/2020 07:02:36	120220	12022020	070236	186.86	12.986942	-57.097140	187.14	0.150	0.920	1.350	186.98	-0.50	1.90	 	 	 	 	 	 	 	 	 	 	 	 	 	 	 	 	 	 	1581490956	8.36	15.48
12/02/2020 07:02:37	120220	12022020	070237	187.38	12.986907	-57.097143	187.62	0.290	0.530	0.920	187.45	-0.80	1.50	 	 	 	 	 	 	 	 	 	 	 	 	 	 	 	 	 	 	1581490957	7.84	14.52
12/02/2020 07:02:38	120220	12022020	070238	187.54	12.986870	-57.097147	187.71	0.430	-0.310	1.000	187.52	-1.70	1.50	 	 	 	 	 	 	 	 	 	 	 	 	 	 	 	 	 	 	1581490958	7.78	14.41
12/02/2020 07:02:39	120220	12022020	070239	187.31	12.986833	-57.097152	187.43	0.560	-1.280	1.500	187.22	-2.60	2.00	 	 	 	 	 	 	 	 	 	 	 	 	 	 	 	 	 	 	1581490959	8.08	14.96
12/02/2020 07:02:40	120220	12022020	070240	186.77	12.986795	-57.097162	186.85	0.590	-1.880	2.350	186.63	-3.20	2.90	 	 	 	 	 	 	 	 	 	 	 	 	 	 	 	 	 	 	1581490960	8.27	15.32
12/02/2020 07:02:41	120220	12022020	070241	185.96	12.986758	-57.097172	186.00	0.540	-1.940	3.250	185.77	-3.30	3.80	 	 	 	 	 	 	 	 	 	 	 	 	 	 	 	 	 	 	1581490961	8.21	15.20
12/02/2020 07:02:42	120220	12022020	070242	185.21	12.986723	-57.097183	185.15	0.400	-1.440	3.780	185.06	-2.80	4.30	 	 	 	 	 	 	 	 	 	 	 	 	 	 	 	 	 	 	1581490962	8.14	15.08
12/02/2020 07:02:43	120220	12022020	070243	184.68	12.986687	-57.097193	184.91	0.020	-0.360	3.690	184.70	-1.80	4.20	 	 	 	 	 	 	 	 	 	 	 	 	 	 	 	 	 	 	1581490963	8.03	14.87
12/02/2020 07:02:44	120220	12022020	070244	185.07	12.986652	-57.097200	185.42	-0.570	0.870	3.180	185.23	-0.50	3.70	 	 	 	 	 	 	 	 	 	 	 	 	 	 	 	 	 	 	1581490964	7.60	14.08
12/02/2020 07:02:45	120220	12022020	070245	185.93	12.986618	-57.097207	186.28	-1.060	1.530	2.420	186.09	0.20	3.00	 	 	 	 	 	 	 	 	 	 	 	 	 	 	 	 	 	 	1581490965	7.32	13.56
12/02/2020 07:02:46	120220	12022020	070246	186.70	12.986583	-57.097213	187.00	-1.010	1.180	1.640	186.82	-0.20	2.20	 	 	 	 	 	 	 	 	 	 	 	 	 	 	 	 	 	 	1581490966	7.62	14.11
12/02/2020 07:02:47	120220	12022020	070247	187.16	12.986545	-57.097218	187.38	-0.370	0.140	1.150	187.20	-1.20	1.70	 	 	 	 	 	 	 	 	 	 	 	 	 	 	 	 	 	 	1581490967	8.39	15.54
12/02/2020 07:02:48	120220	12022020	070248	187.25	12.986503	-57.097225	187.44	0.420	-0.820	1.060	187.24	-2.20	1.60	 	 	 	 	 	 	 	 	 	 	 	 	 	 	 	 	 	 	1581490968	8.93	16.54
12/02/2020 07:02:49	120220	12022020	070249	187.15	12.986463	-57.097230	187.34	0.820	-1.070	1.130	187.13	-2.40	1.70	 	 	 	 	 	 	 	 	 	 	 	 	 	 	 	 	 	 	1581490969	8.73	16.17
12/02/2020 07:02:50	120220	12022020	070250	187.05	12.986427	-57.097235	187.22	0.690	-0.690	1.430	187.02	-2.10	2.00	 	 	 	 	 	 	 	 	 	 	 	 	 	 	 	 	 	 	1581490970	7.97	14.76
12/02/2020 07:02:51	120220	12022020	070251	186.82	12.986393	-57.097240	186.96	0.300	-0.290	1.950	186.76	-1.70	2.50	 	 	 	 	 	 	 	 	 	 	 	 	 	 	 	 	 	 	1581490971	7.34	13.59
12/02/2020 07:02:52	120220	12022020	070252	186.47	12.986358	-57.097247	186.59	-0.010	-0.200	2.470	186.38	-1.60	3.00	 	 	 	 	 	 	 	 	 	 	 	 	 	 	 	 	 	 	1581490972	7.49	13.87
12/02/2020 07:02:53	120220	12022020	070253	186.07	12.986323	-57.097257	186.20	-0.150	-0.340	2.880	185.98	-1.70	3.40	 	 	 	 	 	 	 	 	 	 	 	 	 	 	 	 	 	 	1581490973	8.00	14.82
12/02/2020 07:02:54	120220	12022020	070254	185.76	12.986285	-57.097265	185.88	-0.220	-0.410	3.080	185.70	-1.80	3.60	 	 	 	 	 	 	 	 	 	 	 	 	 	 	 	 	 	 	1581490974	8.38	15.52
12/02/2020 07:02:55	120220	12022020	070255	185.59	12.986247	-57.097277	185.86	-0.290	-0.050	2.770	185.64	-1.40	3.30	 	 	 	 	 	 	 	 	 	 	 	 	 	 	 	 	 	 	1581490975	8.37	15.50
12/02/2020 07:02:56	120220	12022020	070256	185.98	12.986212	-57.097283	186.30	-0.290	0.480	1.910	186.10	-0.90	2.50	 	 	 	 	 	 	 	 	 	 	 	 	 	 	 	 	 	 	1581490976	7.77	14.39
12/02/2020 07:02:57	120220	12022020	070257	186.61	12.986178	-57.097288	186.91	-0.150	0.360	0.920	186.72	-1.00	1.50	 	 	 	 	 	 	 	 	 	 	 	 	 	 	 	 	 	 	1581490977	7.35	13.61
12/02/2020 07:02:58	120220	12022020	070258	187.11	12.986142	-57.097290	187.33	0.050	-0.520	0.600	187.15	-1.90	1.10	 	 	 	 	 	 	 	 	 	 	 	 	 	 	 	 	 	 	1581490978	7.95	14.72
12/02/2020 07:02:59	120220	12022020	070259	187.04	12.986102	-57.097297	187.14	0.260	-1.400	1.130	186.93	-2.70	1.60	 	 	 	 	 	 	 	 	 	 	 	 	 	 	 	 	 	 	1581490979	8.71	16.13
12/02/2020 07:03:00	120220	12022020	070300	186.37	12.986062	-57.097307	186.44	0.450	-1.410	2.070	186.23	-2.80	2.60	 	 	 	 	 	 	 	 	 	 	 	 	 	 	 	 	 	 	1581490980	8.89	16.46
12/02/2020 07:03:01	120220	12022020	070301	185.88	12.986023	-57.097317	186.08	0.420	-0.260	2.570	185.87	-1.70	3.10	1015.00	26.20	26.30	20.20	20.30	-1.0	69.0	69.0	414.0	25.9	266.00	11.60	73.00	12.60	17	10114.0	27.3	27.2	1581490981	8.24	15.26
12/02/2020 07:03:02	120220	12022020	070302	186.02	12.985992	-57.097323	186.29	0.030	0.920	2.520	186.09	-0.50	3.10	 	 	 	 	 	 	 	 	 	 	 	 	 	 	 	 	 	 	1581490982	7.06	13.08
12/02/2020 07:03:03	120220	12022020	070303	186.39	12.985960	-57.097328	186.64	-0.460	0.940	2.360	186.45	-0.40	2.90	 	 	 	 	 	 	 	 	 	 	 	 	 	 	 	 	 	 	1581490983	6.92	12.82
12/02/2020 07:03:04	120220	12022020	070304	186.56	12.985923	-57.097333	186.77	-0.660	-0.140	2.390	186.57	-1.50	2.90	 	 	 	 	 	 	 	 	 	 	 	 	 	 	 	 	 	 	1581490984	8.04	14.89
12/02/2020 07:03:05	120220	12022020	070305	186.54	12.985882	-57.097343	186.75	-0.450	-1.070	2.620	186.53	-2.40	3.10	 	 	 	 	 	 	 	 	 	 	 	 	 	 	 	 	 	 	1581490985	9.15	16.95
12/02/2020 07:03:06	120220	12022020	070306	186.49	12.985842	-57.097355	186.69	-0.010	-0.910	2.690	186.48	-2.30	3.20	 	 	 	 	 	 	 	 	 	 	 	 	 	 	 	 	 	 	1581490986	8.98	16.63
12/02/2020 07:03:07	120220	12022020	070307	186.38	12.985807	-57.097365	186.56	0.400	-0.200	2.450	186.34	-1.60	3.00	 	 	 	 	 	 	 	 	 	 	 	 	 	 	 	 	 	 	1581490987	7.75	14.35
12/02/2020 07:03:08	120220	12022020	070308	186.18	12.985773	-57.097368	186.35	0.590	0.110	2.070	186.13	-1.30	2.60	 	 	 	 	 	 	 	 	 	 	 	 	 	 	 	 	 	 	1581490988	7.14	13.22
12/02/2020 07:03:09	120220	12022020	070309	185.91	12.985738	-57.097372	186.07	0.520	-0.220	2.000	185.85	-1.60	2.50	 	 	 	 	 	 	 	 	 	 	 	 	 	 	 	 	 	 	1581490989	7.65	14.17
12/02/2020 07:03:10	120220	12022020	070310	185.67	12.985700	-57.097377	185.89	0.260	-0.590	2.270	185.65	-2.00	2.80	 	 	 	 	 	 	 	 	 	 	 	 	 	 	 	 	 	 	1581490990	8.40	15.56
12/02/2020 07:03:11	120220	12022020	070311	185.74	12.985660	-57.097383	186.03	-0.160	-0.290	2.460	185.80	-1.70	3.00	 	 	 	 	 	 	 	 	 	 	 	 	 	 	 	 	 	 	1581490991	8.50	15.74
12/02/2020 07:03:12	120220	12022020	070312	186.17	12.985625	-57.097393	186.52	-0.580	0.390	2.500	186.29	-1.00	3.00	 	 	 	 	 	 	 	 	 	 	 	 	 	 	 	 	 	 	1581490992	7.77	14.39
12/02/2020 07:03:13	120220	12022020	070313	186.76	12.985593	-57.097403	187.10	-0.700	0.630	2.260	186.87	-0.70	2.80	 	 	 	 	 	 	 	 	 	 	 	 	 	 	 	 	 	 	1581490993	7.25	13.43
12/02/2020 07:03:14	120220	12022020	070314	187.18	12.985560	-57.097413	187.44	-0.310	0.050	1.790	187.21	-1.30	2.30	 	 	 	 	 	 	 	 	 	 	 	 	 	 	 	 	 	 	1581490994	7.55	13.98
12/02/2020 07:03:15	120220	12022020	070315	187.21	12.985522	-57.097420	187.42	0.290	-0.880	1.500	187.18	-2.20	2.00	 	 	 	 	 	 	 	 	 	 	 	 	 	 	 	 	 	 	1581490995	8.32	15.41
12/02/2020 07:03:16	120220	12022020	070316	187.04	12.985480	-57.097425	187.24	0.640	-1.380	1.470	187.01	-2.70	2.00	 	 	 	 	 	 	 	 	 	 	 	 	 	 	 	 	 	 	1581490996	8.77	16.24
12/02/2020 07:03:17	120220	12022020	070317	186.87	12.985442	-57.097430	187.06	0.500	-1.110	1.640	186.83	-2.50	2.20	 	 	 	 	 	 	 	 	 	 	 	 	 	 	 	 	 	 	1581490997	8.39	15.54
12/02/2020 07:03:18	120220	12022020	070318	186.68	12.985407	-57.097435	186.84	0.090	-0.490	1.900	186.63	-1.90	2.40	 	 	 	 	 	 	 	 	 	 	 	 	 	 	 	 	 	 	1581490998	7.73	14.32
12/02/2020 07:03:19	120220	12022020	070319	186.47	12.985372	-57.097442	186.64	-0.200	-0.010	2.090	186.43	-1.40	2.60	 	 	 	 	 	 	 	 	 	 	 	 	 	 	 	 	 	 	1581490999	7.54	13.96
12/02/2020 07:03:20	120220	12022020	070320	186.40	12.985337	-57.097448	186.61	-0.330	0.310	2.170	186.40	-1.10	2.70	 	 	 	 	 	 	 	 	 	 	 	 	 	 	 	 	 	 	1581491000	7.86	14.56
12/02/2020 07:03:21	120220	12022020	070321	186.41	12.985300	-57.097455	186.61	-0.450	0.390	2.360	186.40	-1.00	2.90	 	 	 	 	 	 	 	 	 	 	 	 	 	 	 	 	 	 	1581491001	8.03	14.87
12/02/2020 07:03:22	120220	12022020	070322	186.30	12.985262	-57.097465	186.45	-0.540	0.150	2.740	186.26	-1.20	3.20	 	 	 	 	 	 	 	 	 	 	 	 	 	 	 	 	 	 	1581491002	8.23	15.24
12/02/2020 07:03:23	120220	12022020	070323	186.11	12.985223	-57.097477	186.33	-0.480	0.010	2.940	186.11	-1.40	3.40	 	 	 	 	 	 	 	 	 	 	 	 	 	 	 	 	 	 	1581491003	8.55	15.83
12/02/2020 07:03:24	120220	12022020	070324	186.20	12.985187	-57.097488	186.45	-0.160	0.260	2.580	186.25	-1.10	3.10	 	 	 	 	 	 	 	 	 	 	 	 	 	 	 	 	 	 	1581491004	8.30	15.37
12/02/2020 07:03:25	120220	12022020	070325	186.40	12.985153	-57.097497	186.60	0.360	0.400	1.850	186.42	-1.00	2.40	 	 	 	 	 	 	 	 	 	 	 	 	 	 	 	 	 	 	1581491005	7.54	13.96
12/02/2020 07:03:26	120220	12022020	070326	186.41	12.985118	-57.097498	186.57	0.850	-0.200	1.280	186.40	-1.50	1.80	 	 	 	 	 	 	 	 	 	 	 	 	 	 	 	 	 	 	1581491006	7.49	13.87
12/02/2020 07:03:27	120220	12022020	070327	186.33	12.985080	-57.097500	186.48	0.970	-1.090	1.070	186.32	-2.40	1.60	 	 	 	 	 	 	 	 	 	 	 	 	 	 	 	 	 	 	1581491007	8.29	15.35
12/02/2020 07:03:28	120220	12022020	070328	186.29	12.985040	-57.097503	186.45	0.600	-1.460	1.330	186.29	-2.80	1.80	 	 	 	 	 	 	 	 	 	 	 	 	 	 	 	 	 	 	1581491008	8.62	15.96
12/02/2020 07:03:29	120220	12022020	070329	186.26	12.985003	-57.097510	186.41	0.000	-1.130	1.860	186.25	-2.50	2.40	 	 	 	 	 	 	 	 	 	 	 	 	 	 	 	 	 	 	1581491009	8.17	15.13
12/02/2020 07:03:30	120220	12022020	070330	186.15	12.984968	-57.097520	186.29	-0.480	-0.510	2.400	186.12	-1.90	2.90	 	 	 	 	 	 	 	 	 	 	 	 	 	 	 	 	 	 	1581491010	7.68	14.22
12/02/2020 07:03:31	120220	12022020	070331	185.99	12.984935	-57.097532	186.14	-0.710	0.000	2.830	185.96	-1.40	3.30	 	 	 	 	 	 	 	 	 	 	 	 	 	 	 	 	 	 	1581491011	7.65	14.17
12/02/2020 07:03:32	120220	12022020	070332	185.92	12.984900	-57.097542	186.11	-0.660	0.230	2.920	185.92	-1.10	3.40	 	 	 	 	 	 	 	 	 	 	 	 	 	 	 	 	 	 	1581491012	7.91	14.65
12/02/2020 07:03:33	120220	12022020	070333	185.97	12.984862	-57.097552	186.18	-0.370	0.250	2.650	185.99	-1.10	3.20	 	 	 	 	 	 	 	 	 	 	 	 	 	 	 	 	 	 	1581491013	8.16	15.11
12/02/2020 07:03:34	120220	12022020	070334	186.08	12.984825	-57.097558	186.30	0.040	0.130	2.210	186.11	-1.20	2.70	 	 	 	 	 	 	 	 	 	 	 	 	 	 	 	 	 	 	1581491014	8.25	15.28
12/02/2020 07:03:35	120220	12022020	070335	186.24	12.984787	-57.097562	186.45	0.320	-0.120	1.790	186.26	-1.50	2.30	 	 	 	 	 	 	 	 	 	 	 	 	 	 	 	 	 	 	1581491015	8.29	15.35
12/02/2020 07:03:36	120220	12022020	070336	186.27	12.984747	-57.097563	186.44	0.380	-0.480	1.750	186.24	-1.80	2.30	 	 	 	 	 	 	 	 	 	 	 	 	 	 	 	 	 	 	1581491016	8.34	15.45
12/02/2020 07:03:37	120220	12022020	070337	185.99	12.984708	-57.097568	186.14	0.290	-0.820	2.190	185.91	-2.20	2.70	 	 	 	 	 	 	 	 	 	 	 	 	 	 	 	 	 	 	1581491017	8.42	15.59
12/02/2020 07:03:38	120220	12022020	070338	185.58	12.984670	-57.097575	185.74	0.110	-0.780	2.630	185.50	-2.20	3.10	 	 	 	 	 	 	 	 	 	 	 	 	 	 	 	 	 	 	1581491018	8.48	15.70
12/02/2020 07:03:39	120220	12022020	070339	185.30	12.984633	-57.097585	185.51	-0.190	-0.170	2.770	185.29	-1.60	3.30	 	 	 	 	 	 	 	 	 	 	 	 	 	 	 	 	 	 	1581491019	8.25	15.28
12/02/2020 07:03:40	120220	12022020	070340	185.50	12.984598	-57.097593	185.80	-0.570	0.700	2.460	185.60	-0.70	3.00	 	 	 	 	 	 	 	 	 	 	 	 	 	 	 	 	 	 	1581491020	7.69	14.24
12/02/2020 07:03:41	120220	12022020	070341	186.10	12.984565	-57.097602	186.42	-0.760	1.130	1.990	186.24	-0.30	2.50	 	 	 	 	 	 	 	 	 	 	 	 	 	 	 	 	 	 	1581491021	7.21	13.35
12/02/2020 07:03:42	120220	12022020	070342	186.67	12.984532	-57.097610	186.93	-0.380	0.660	1.490	186.75	-0.70	2.00	 	 	 	 	 	 	 	 	 	 	 	 	 	 	 	 	 	 	1581491022	7.38	13.67
12/02/2020 07:03:43	120220	12022020	070343	186.97	12.984495	-57.097617	187.18	0.440	-0.370	1.100	187.00	-1.70	1.60	 	 	 	 	 	 	 	 	 	 	 	 	 	 	 	 	 	 	1581491023	8.13	15.06
12/02/2020 07:03:44	120220	12022020	070344	187.07	12.984455	-57.097622	187.29	1.120	-1.240	0.970	187.09	-2.60	1.50	 	 	 	 	 	 	 	 	 	 	 	 	 	 	 	 	 	 	1581491024	8.67	16.06
12/02/2020 07:03:45	120220	12022020	070345	187.10	12.984415	-57.097625	187.27	1.200	-1.500	1.230	187.08	-2.90	1.70	 	 	 	 	 	 	 	 	 	 	 	 	 	 	 	 	 	 	1581491025	8.50	15.74
12/02/2020 07:03:46	120220	12022020	070346	186.86	12.984378	-57.097628	186.98	0.690	-1.330	1.780	186.77	-2.70	2.30	 	 	 	 	 	 	 	 	 	 	 	 	 	 	 	 	 	 	1581491026	7.98	14.78
12/02/2020 07:03:47	120220	12022020	070347	186.35	12.984342	-57.097635	186.48	-0.050	-1.020	2.400	186.26	-2.40	2.90	 	 	 	 	 	 	 	 	 	 	 	 	 	 	 	 	 	 	1581491027	7.85	14.54
12/02/2020 07:03:48	120220	12022020	070348	185.97	12.984305	-57.097643	186.16	-0.620	-0.580	2.790	185.94	-2.00	3.30	 	 	 	 	 	 	 	 	 	 	 	 	 	 	 	 	 	 	1581491028	8.16	15.11
12/02/2020 07:03:49	120220	12022020	070349	185.96	12.984268	-57.097655	186.21	-0.890	0.050	2.800	185.99	-1.40	3.30	 	 	 	 	 	 	 	 	 	 	 	 	 	 	 	 	 	 	1581491029	8.31	15.39
12/02/2020 07:03:50	120220	12022020	070350	186.18	12.984232	-57.097663	186.43	-1.000	0.600	2.590	186.24	-0.80	3.10	 	 	 	 	 	 	 	 	 	 	 	 	 	 	 	 	 	 	1581491030	8.13	15.06
12/02/2020 07:03:51	120220	12022020	070351	186.43	12.984195	-57.097673	186.66	-1.000	0.820	2.320	186.47	-0.60	2.80	 	 	 	 	 	 	 	 	 	 	 	 	 	 	 	 	 	 	1581491031	8.07	14.95
12/02/2020 07:03:52	120220	12022020	070352	186.59	12.984158	-57.097682	186.82	-0.730	0.630	2.040	186.63	-0.70	2.50	 	 	 	 	 	 	 	 	 	 	 	 	 	 	 	 	 	 	1581491032	8.24	15.26
12/02/2020 07:03:53	120220	12022020	070353	186.86	12.984120	-57.097692	187.13	-0.160	0.390	1.510	186.94	-1.00	2.00	 	 	 	 	 	 	 	 	 	 	 	 	 	 	 	 	 	 	1581491033	8.45	15.65
12/02/2020 07:03:54	120220	12022020	070354	187.28	12.984082	-57.097697	187.53	0.460	0.140	0.900	187.36	-1.20	1.40	 	 	 	 	 	 	 	 	 	 	 	 	 	 	 	 	 	 	1581491034	8.24	15.26
12/02/2020 07:03:55	120220	12022020	070355	187.50	12.984045	-57.097700	187.68	0.860	-0.310	0.740	187.50	-1.70	1.20	 	 	 	 	 	 	 	 	 	 	 	 	 	 	 	 	 	 	1581491035	8.02	14.85
12/02/2020 07:03:56	120220	12022020	070356	187.36	12.984007	-57.097703	187.47	0.930	-0.720	1.080	187.29	-2.10	1.60	 	 	 	 	 	 	 	 	 	 	 	 	 	 	 	 	 	 	1581491036	8.08	14.96
12/02/2020 07:03:57	120220	12022020	070357	186.91	12.983970	-57.097710	186.97	0.730	-0.850	1.660	186.79	-2.20	2.10	 	 	 	 	 	 	 	 	 	 	 	 	 	 	 	 	 	 	1581491037	8.01	14.83
12/02/2020 07:03:58	120220	12022020	070358	186.28	12.983935	-57.097718	186.37	0.510	-0.810	2.240	186.17	-2.20	2.70	 	 	 	 	 	 	 	 	 	 	 	 	 	 	 	 	 	 	1581491038	7.87	14.58
12/02/2020 07:03:59	120220	12022020	070359	185.92	12.983898	-57.097728	186.12	0.340	-0.630	2.380	185.91	-2.00	2.90	 	 	 	 	 	 	 	 	 	 	 	 	 	 	 	 	 	 	1581491039	7.97	14.76
12/02/2020 07:04:00	120220	12022020	070400	186.06	12.983863	-57.097735	186.34	0.090	-0.290	2.200	186.13	-1.70	2.70	 	 	 	 	 	 	 	 	 	 	 	 	 	 	 	 	 	 	1581491040	7.96	14.74
12/02/2020 07:04:01	120220	12022020	070401	186.46	12.983827	-57.097742	186.73	-0.270	-0.120	2.070	186.52	-1.50	2.60	1015.00	26.30	26.30	20.50	20.50	-1.0	70.0	70.0	414.0	25.9	267.00	11.20	73.00	12.20	17	9092.0	27.3	27.2	1581491041	7.79	14.43
12/02/2020 07:04:02	120220	12022020	070402	186.71	12.983790	-57.097748	186.95	-0.550	-0.380	2.130	186.73	-1.70	2.60	 	 	 	 	 	 	 	 	 	 	 	 	 	 	 	 	 	 	1581491042	7.98	14.78
12/02/2020 07:04:03	120220	12022020	070403	186.68	12.983752	-57.097758	186.88	-0.660	-0.770	2.510	186.65	-2.10	3.00	 	 	 	 	 	 	 	 	 	 	 	 	 	 	 	 	 	 	1581491043	8.52	15.78
12/02/2020 07:04:04	120220	12022020	070404	186.46	12.983713	-57.097772	186.66	-0.650	-0.700	2.830	186.42	-2.10	3.30	 	 	 	 	 	 	 	 	 	 	 	 	 	 	 	 	 	 	1581491044	8.80	16.30
12/02/2020 07:04:05	120220	12022020	070405	186.34	12.983675	-57.097782	186.57	-0.590	-0.060	2.610	186.35	-1.50	3.10	 	 	 	 	 	 	 	 	 	 	 	 	 	 	 	 	 	 	1581491045	8.39	15.54
12/02/2020 07:04:06	120220	12022020	070406	186.47	12.983642	-57.097790	186.72	-0.430	0.610	2.050	186.51	-0.80	2.60	 	 	 	 	 	 	 	 	 	 	 	 	 	 	 	 	 	 	1581491046	7.70	14.26
12/02/2020 07:04:07	120220	12022020	070407	186.65	12.983607	-57.097795	186.87	-0.030	0.600	1.490	186.66	-0.80	2.00	 	 	 	 	 	 	 	 	 	 	 	 	 	 	 	 	 	 	1581491047	7.53	13.95
12/02/2020 07:04:08	120220	12022020	070408	186.59	12.983568	-57.097798	186.75	0.530	-0.080	1.260	186.54	-1.40	1.80	 	 	 	 	 	 	 	 	 	 	 	 	 	 	 	 	 	 	1581491048	8.18	15.15
12/02/2020 07:04:09	120220	12022020	070409	186.35	12.983527	-57.097802	186.50	0.910	-0.610	1.430	186.30	-2.00	1.90	 	 	 	 	 	 	 	 	 	 	 	 	 	 	 	 	 	 	1581491049	8.86	16.41
12/02/2020 07:04:10	120220	12022020	070410	186.18	12.983487	-57.097807	186.32	0.870	-0.430	1.730	186.15	-1.90	2.20	 	 	 	 	 	 	 	 	 	 	 	 	 	 	 	 	 	 	1581491050	8.65	16.02
12/02/2020 07:04:11	120220	12022020	070411	186.08	12.983452	-57.097813	186.29	0.470	0.070	2.010	186.09	-1.40	2.50	 	 	 	 	 	 	 	 	 	 	 	 	 	 	 	 	 	 	1581491051	7.80	14.45
12/02/2020 07:04:12	120220	12022020	070412	186.22	12.983418	-57.097820	186.55	-0.030	0.280	2.210	186.29	-1.10	2.70	 	 	 	 	 	 	 	 	 	 	 	 	 	 	 	 	 	 	1581491052	7.37	13.65
12/02/2020 07:04:13	120220	12022020	070413	186.63	12.983383	-57.097828	186.88	-0.350	-0.010	2.280	186.68	-1.40	2.80	 	 	 	 	 	 	 	 	 	 	 	 	 	 	 	 	 	 	1581491053	7.57	14.02
12/02/2020 07:04:14	120220	12022020	070414	186.75	12.983347	-57.097837	186.93	-0.350	-0.760	2.360	186.72	-2.10	2.80	 	 	 	 	 	 	 	 	 	 	 	 	 	 	 	 	 	 	1581491054	8.02	14.85
12/02/2020 07:04:15	120220	12022020	070415	186.44	12.983308	-57.097847	186.58	-0.190	-1.590	2.750	186.35	-2.90	3.20	 	 	 	 	 	 	 	 	 	 	 	 	 	 	 	 	 	 	1581491055	8.61	15.95
12/02/2020 07:04:16	120220	12022020	070416	186.08	12.983268	-57.097858	186.28	-0.180	-1.630	3.150	186.04	-3.00	3.60	 	 	 	 	 	 	 	 	 	 	 	 	 	 	 	 	 	 	1581491056	9.04	16.74
12/02/2020 07:04:17	120220	12022020	070417	186.06	12.983230	-57.097870	186.35	-0.360	-0.580	3.180	186.11	-2.00	3.70	 	 	 	 	 	 	 	 	 	 	 	 	 	 	 	 	 	 	1581491057	8.49	15.72
12/02/2020 07:04:18	120220	12022020	070418	186.44	12.983197	-57.097882	186.76	-0.460	0.800	2.570	186.54	-0.60	3.10	 	 	 	 	 	 	 	 	 	 	 	 	 	 	 	 	 	 	1581491058	7.42	13.74
12/02/2020 07:04:19	120220	12022020	070419	186.92	12.983167	-57.097887	187.19	-0.120	1.340	1.580	187.00	-0.10	2.10	 	 	 	 	 	 	 	 	 	 	 	 	 	 	 	 	 	 	1581491059	6.90	12.78
12/02/2020 07:04:20	120220	12022020	070420	187.24	12.983130	-57.097888	187.46	0.580	0.700	0.640	187.28	-0.70	1.20	 	 	 	 	 	 	 	 	 	 	 	 	 	 	 	 	 	 	1581491060	7.70	14.26
12/02/2020 07:04:21	120220	12022020	070421	187.37	12.983088	-57.097887	187.57	1.080	-0.430	0.170	187.38	-1.80	0.70	 	 	 	 	 	 	 	 	 	 	 	 	 	 	 	 	 	 	1581491061	8.90	16.48
12/02/2020 07:04:22	120220	12022020	070422	187.35	12.983047	-57.097887	187.44	0.910	-1.340	0.710	187.31	-2.70	1.20	 	 	 	 	 	 	 	 	 	 	 	 	 	 	 	 	 	 	1581491062	9.24	17.11
12/02/2020 07:04:23	120220	12022020	070423	186.82	12.983005	-57.097893	186.88	0.150	-1.610	2.210	186.66	-3.00	2.60	 	 	 	 	 	 	 	 	 	 	 	 	 	 	 	 	 	 	1581491063	8.85	16.39
12/02/2020 07:04:24	120220	12022020	070424	186.15	12.982968	-57.097908	186.07	-0.680	-1.060	3.920	185.98	-2.50	4.40	 	 	 	 	 	 	 	 	 	 	 	 	 	 	 	 	 	 	1581491064	8.61	15.95
12/02/2020 07:04:25	120220	12022020	070425	185.41	12.982935	-57.097928	185.63	-1.020	0.100	4.740	185.38	-1.30	5.20	 	 	 	 	 	 	 	 	 	 	 	 	 	 	 	 	 	 	1581491065	8.45	15.65
12/02/2020 07:04:26	120220	12022020	070426	185.53	12.982902	-57.097945	185.85	-0.800	1.030	4.180	185.63	-0.40	4.70	 	 	 	 	 	 	 	 	 	 	 	 	 	 	 	 	 	 	1581491066	7.75	14.35
12/02/2020 07:04:27	120220	12022020	070427	186.20	12.982868	-57.097953	186.54	-0.410	1.010	2.830	186.36	-0.40	3.40	 	 	 	 	 	 	 	 	 	 	 	 	 	 	 	 	 	 	1581491067	7.37	13.65
12/02/2020 07:04:28	120220	12022020	070428	186.84	12.982832	-57.097957	187.08	-0.080	-0.000	1.690	186.91	-1.30	2.20	 	 	 	 	 	 	 	 	 	 	 	 	 	 	 	 	 	 	1581491068	8.04	14.89
12/02/2020 07:04:29	120220	12022020	070429	186.97	12.982790	-57.097960	187.12	0.180	-1.210	1.140	186.94	-2.60	1.70	 	 	 	 	 	 	 	 	 	 	 	 	 	 	 	 	 	 	1581491069	8.88	16.45
12/02/2020 07:04:30	120220	12022020	070430	186.74	12.982748	-57.097965	186.84	0.460	-1.590	0.930	186.68	-3.00	1.40	 	 	 	 	 	 	 	 	 	 	 	 	 	 	 	 	 	 	1581491070	9.07	16.80
12/02/2020 07:04:31	120220	12022020	070431	186.42	12.982710	-57.097972	186.54	0.720	-0.860	0.890	186.37	-2.30	1.40	 	 	 	 	 	 	 	 	 	 	 	 	 	 	 	 	 	 	1581491071	8.30	15.37
12/02/2020 07:04:32	120220	12022020	070432	186.25	12.982677	-57.097975	186.39	0.760	0.160	0.860	186.23	-1.30	1.40	 	 	 	 	 	 	 	 	 	 	 	 	 	 	 	 	 	 	1581491072	7.32	13.56
12/02/2020 07:04:33	120220	12022020	070433	186.19	12.982643	-57.097977	186.33	0.540	0.540	0.930	186.18	-0.90	1.40	 	 	 	 	 	 	 	 	 	 	 	 	 	 	 	 	 	 	1581491073	7.14	13.22
12/02/2020 07:04:34	120220	12022020	070434	186.18	12.982607	-57.097980	186.41	0.150	0.330	1.320	186.20	-1.10	1.80	 	 	 	 	 	 	 	 	 	 	 	 	 	 	 	 	 	 	1581491074	7.86	14.56
12/02/2020 07:04:35	120220	12022020	070435	186.43	12.982568	-57.097987	186.70	-0.280	0.050	2.050	186.49	-1.30	2.50	 	 	 	 	 	 	 	 	 	 	 	 	 	 	 	 	 	 	1581491075	8.43	15.61
12/02/2020 07:04:36	120220	12022020	070436	186.71	12.982532	-57.097998	186.97	-0.640	-0.130	2.950	186.74	-1.50	3.40	 	 	 	 	 	 	 	 	 	 	 	 	 	 	 	 	 	 	1581491076	8.37	15.50
12/02/2020 07:04:37	120220	12022020	070437	186.72	12.982497	-57.098013	186.93	-0.780	-0.460	3.680	186.69	-1.80	4.10	 	 	 	 	 	 	 	 	 	 	 	 	 	 	 	 	 	 	1581491077	8.24	15.26
12/02/2020 07:04:38	120220	12022020	070438	186.44	12.982460	-57.098028	186.61	-0.680	-0.900	3.930	186.37	-2.30	4.40	 	 	 	 	 	 	 	 	 	 	 	 	 	 	 	 	 	 	1581491078	8.40	15.56
12/02/2020 07:04:39	120220	12022020	070439	186.05	12.982422	-57.098042	186.24	-0.390	-1.130	3.700	185.98	-2.50	4.20	 	 	 	 	 	 	 	 	 	 	 	 	 	 	 	 	 	 	1581491079	8.58	15.89
12/02/2020 07:04:40	120220	12022020	070440	185.77	12.982383	-57.098052	185.98	0.090	-0.910	2.840	185.74	-2.30	3.40	 	 	 	 	 	 	 	 	 	 	 	 	 	 	 	 	 	 	1581491080	8.42	15.59
12/02/2020 07:04:41	120220	12022020	070441	185.70	12.982347	-57.098057	185.93	0.640	-0.350	1.470	185.73	-1.80	2.00	 	 	 	 	 	 	 	 	 	 	 	 	 	 	 	 	 	 	1581491081	8.05	14.91
12/02/2020 07:04:42	120220	12022020	070442	186.01	12.982310	-57.098053	186.26	0.950	0.250	0.060	186.12	-1.20	0.60	 	 	 	 	 	 	 	 	 	 	 	 	 	 	 	 	 	 	1581491082	7.92	14.67
12/02/2020 07:04:43	120220	12022020	070443	186.61	12.982273	-57.098048	186.86	0.670	0.570	-0.480	186.73	-0.80	0.00	 	 	 	 	 	 	 	 	 	 	 	 	 	 	 	 	 	 	1581491083	7.95	14.72
12/02/2020 07:04:44	120220	12022020	070444	187.03	12.982237	-57.098048	187.19	-0.070	0.380	0.080	187.04	-1.00	0.60	 	 	 	 	 	 	 	 	 	 	 	 	 	 	 	 	 	 	1581491084	7.82	14.48
12/02/2020 07:04:45	120220	12022020	070445	186.88	12.982200	-57.098055	186.97	-0.700	-0.220	1.410	186.78	-1.60	1.90	 	 	 	 	 	 	 	 	 	 	 	 	 	 	 	 	 	 	1581491085	8.07	14.95
12/02/2020 07:04:46	120220	12022020	070446	186.29	12.982162	-57.098072	186.37	-0.750	-0.820	2.880	186.15	-2.20	3.30	 	 	 	 	 	 	 	 	 	 	 	 	 	 	 	 	 	 	1581491086	8.76	16.22
12/02/2020 07:04:47	120220	12022020	070447	185.74	12.982123	-57.098090	185.91	-0.330	-0.870	3.740	185.68	-2.30	4.20	 	 	 	 	 	 	 	 	 	 	 	 	 	 	 	 	 	 	1581491087	9.09	16.83
12/02/2020 07:04:48	120220	12022020	070448	185.60	12.982087	-57.098103	185.85	0.130	-0.250	3.700	185.63	-1.70	4.20	 	 	 	 	 	 	 	 	 	 	 	 	 	 	 	 	 	 	1581491088	8.47	15.69
12/02/2020 07:04:49	120220	12022020	070449	185.87	12.982053	-57.098112	186.15	0.260	0.400	2.900	185.96	-1.00	3.40	 	 	 	 	 	 	 	 	 	 	 	 	 	 	 	 	 	 	1581491089	7.51	13.91
12/02/2020 07:04:50	120220	12022020	070450	186.31	12.982020	-57.098113	186.55	0.100	0.340	1.880	186.38	-1.00	2.40	 	 	 	 	 	 	 	 	 	 	 	 	 	 	 	 	 	 	1581491090	7.28	13.48
12/02/2020 07:04:51	120220	12022020	070451	186.52	12.981983	-57.098115	186.67	-0.050	-0.340	1.450	186.51	-1.70	1.90	 	 	 	 	 	 	 	 	 	 	 	 	 	 	 	 	 	 	1581491091	7.82	14.48
12/02/2020 07:04:52	120220	12022020	070452	186.30	12.981945	-57.098122	186.38	0.010	-0.980	1.530	186.21	-2.40	2.00	 	 	 	 	 	 	 	 	 	 	 	 	 	 	 	 	 	 	1581491092	8.37	15.50
12/02/2020 07:04:53	120220	12022020	070453	185.83	12.981907	-57.098130	185.90	0.220	-1.110	1.720	185.73	-2.50	2.20	 	 	 	 	 	 	 	 	 	 	 	 	 	 	 	 	 	 	1581491093	8.42	15.59
12/02/2020 07:04:54	120220	12022020	070454	185.41	12.981870	-57.098137	185.53	0.340	-0.740	1.880	185.36	-2.20	2.40	 	 	 	 	 	 	 	 	 	 	 	 	 	 	 	 	 	 	1581491094	8.07	14.95
12/02/2020 07:04:55	120220	12022020	070455	185.31	12.981833	-57.098145	185.50	0.240	-0.170	1.860	185.34	-1.60	2.40	 	 	 	 	 	 	 	 	 	 	 	 	 	 	 	 	 	 	1581491095	7.73	14.32
12/02/2020 07:04:56	120220	12022020	070456	185.58	12.981800	-57.098150	185.83	0.040	0.310	1.580	185.66	-1.10	2.10	 	 	 	 	 	 	 	 	 	 	 	 	 	 	 	 	 	 	1581491096	7.61	14.09
12/02/2020 07:04:57	120220	12022020	070457	185.99	12.981763	-57.098155	186.22	-0.040	0.430	1.350	186.07	-1.00	1.90	 	 	 	 	 	 	 	 	 	 	 	 	 	 	 	 	 	 	1581491097	7.67	14.20
12/02/2020 07:04:58	120220	12022020	070458	186.29	12.981727	-57.098158	186.51	0.010	0.120	1.380	186.33	-1.30	1.90	 	 	 	 	 	 	 	 	 	 	 	 	 	 	 	 	 	 	1581491098	7.99	14.80
12/02/2020 07:04:59	120220	12022020	070459	186.47	12.981688	-57.098163	186.69	-0.030	-0.370	1.700	186.51	-1.80	2.20	 	 	 	 	 	 	 	 	 	 	 	 	 	 	 	 	 	 	1581491099	8.37	15.50
12/02/2020 07:05:00	120220	12022020	070500	186.61	12.981650	-57.098172	186.86	-0.270	-0.800	2.190	186.64	-2.20	2.60	 	 	 	 	 	 	 	 	 	 	 	 	 	 	 	 	 	 	1581491100	8.54	15.82
12/02/2020 07:05:01	120220	12022020	070501	186.64	12.981612	-57.098182	186.83	-0.610	-1.030	2.820	186.61	-2.40	3.30	1015.10	26.20	26.30	20.30	20.40	-1.0	69.0	70.0	412.0	25.9	264.00	10.90	70.00	12.00	17	9533.0	27.3	27.2	1581491101	8.46	15.67
12/02/2020 07:05:02	120220	12022020	070502	186.41	12.981573	-57.098193	186.46	-0.870	-0.970	3.510	186.32	-2.40	4.00	 	 	 	 	 	 	 	 	 	 	 	 	 	 	 	 	 	 	1581491102	8.34	15.45
12/02/2020 07:05:03	120220	12022020	070503	185.77	12.981538	-57.098207	185.90	-0.820	-0.640	3.860	185.66	-2.10	4.30	 	 	 	 	 	 	 	 	 	 	 	 	 	 	 	 	 	 	1581491103	8.32	15.41
12/02/2020 07:05:04	120220	12022020	070504	185.18	12.981502	-57.098220	185.32	-0.320	-0.170	3.650	185.08	-1.60	4.10	 	 	 	 	 	 	 	 	 	 	 	 	 	 	 	 	 	 	1581491104	8.24	15.26
12/02/2020 07:05:05	120220	12022020	070505	184.88	12.981465	-57.098228	185.09	0.500	0.450	2.840	184.88	-1.00	3.40	 	 	 	 	 	 	 	 	 	 	 	 	 	 	 	 	 	 	1581491105	8.10	15.00
12/02/2020 07:05:06	120220	12022020	070506	185.07	12.981428	-57.098232	185.30	1.120	1.080	1.710	185.14	-0.30	2.20	 	 	 	 	 	 	 	 	 	 	 	 	 	 	 	 	 	 	1581491106	7.82	14.48
12/02/2020 07:05:07	120220	12022020	070507	185.45	12.981393	-57.098228	185.68	1.210	1.110	0.810	185.53	-0.30	1.30	 	 	 	 	 	 	 	 	 	 	 	 	 	 	 	 	 	 	1581491107	7.64	14.15
12/02/2020 07:05:08	120220	12022020	070508	185.80	12.981357	-57.098225	186.02	0.830	0.340	0.550	185.86	-1.00	1.00	 	 	 	 	 	 	 	 	 	 	 	 	 	 	 	 	 	 	1581491108	7.94	14.70
12/02/2020 07:05:09	120220	12022020	070509	186.10	12.981318	-57.098227	186.34	0.280	-0.660	1.060	186.16	-2.00	1.50	 	 	 	 	 	 	 	 	 	 	 	 	 	 	 	 	 	 	1581491109	8.34	15.45
12/02/2020 07:05:10	120220	12022020	070510	186.42	12.981280	-57.098235	186.67	-0.210	-1.280	1.920	186.48	-2.70	2.40	 	 	 	 	 	 	 	 	 	 	 	 	 	 	 	 	 	 	1581491110	8.43	15.61
12/02/2020 07:05:11	120220	12022020	070511	186.65	12.981243	-57.098248	186.87	-0.510	-1.560	2.650	186.67	-2.90	3.10	 	 	 	 	 	 	 	 	 	 	 	 	 	 	 	 	 	 	1581491111	8.13	15.06
12/02/2020 07:05:12	120220	12022020	070512	186.59	12.981210	-57.098262	186.68	-0.540	-1.770	3.250	186.53	-3.10	3.70	 	 	 	 	 	 	 	 	 	 	 	 	 	 	 	 	 	 	1581491112	8.02	14.85
12/02/2020 07:05:13	120220	12022020	070513	186.03	12.981173	-57.098275	186.13	-0.370	-1.740	3.640	185.91	-3.10	4.10	 	 	 	 	 	 	 	 	 	 	 	 	 	 	 	 	 	 	1581491113	8.27	15.32
12/02/2020 07:05:14	120220	12022020	070514	185.45	12.981135	-57.098285	185.58	-0.130	-1.220	3.580	185.35	-2.60	4.10	 	 	 	 	 	 	 	 	 	 	 	 	 	 	 	 	 	 	1581491114	8.46	15.67
12/02/2020 07:05:15	120220	12022020	070515	185.08	12.981097	-57.098293	185.26	0.030	-0.230	3.090	185.05	-1.70	3.60	 	 	 	 	 	 	 	 	 	 	 	 	 	 	 	 	 	 	1581491115	8.29	15.35
12/02/2020 07:05:16	120220	12022020	070516	185.12	12.981060	-57.098297	185.38	0.010	0.920	2.220	185.19	-0.50	2.70	 	 	 	 	 	 	 	 	 	 	 	 	 	 	 	 	 	 	1581491116	8.00	14.82
12/02/2020 07:05:17	120220	12022020	070517	185.71	12.981023	-57.098297	186.04	-0.230	1.750	1.240	185.88	0.30	1.80	 	 	 	 	 	 	 	 	 	 	 	 	 	 	 	 	 	 	1581491117	7.82	14.48
12/02/2020 07:05:18	120220	12022020	070518	186.64	12.980988	-57.098295	186.98	-0.530	1.850	0.670	186.81	0.50	1.20	 	 	 	 	 	 	 	 	 	 	 	 	 	 	 	 	 	 	1581491118	7.78	14.41
12/02/2020 07:05:19	120220	12022020	070519	187.30	12.980952	-57.098298	187.56	-0.540	0.970	0.800	187.37	-0.40	1.30	 	 	 	 	 	 	 	 	 	 	 	 	 	 	 	 	 	 	1581491119	7.91	14.65
12/02/2020 07:05:20	120220	12022020	070520	187.42	12.980912	-57.098307	187.58	-0.100	-0.530	1.410	187.37	-1.90	1.90	 	 	 	 	 	 	 	 	 	 	 	 	 	 	 	 	 	 	1581491120	8.56	15.85
12/02/2020 07:05:21	120220	12022020	070521	187.03	12.980872	-57.098317	187.15	0.530	-1.750	2.200	186.90	-3.10	2.60	 	 	 	 	 	 	 	 	 	 	 	 	 	 	 	 	 	 	1581491121	9.09	16.83
12/02/2020 07:05:22	120220	12022020	070522	186.30	12.980832	-57.098328	186.41	0.870	-2.030	2.860	186.14	-3.40	3.30	 	 	 	 	 	 	 	 	 	 	 	 	 	 	 	 	 	 	1581491122	8.87	16.43
12/02/2020 07:05:23	120220	12022020	070523	185.63	12.980795	-57.098338	185.81	0.680	-1.210	3.010	185.55	-2.60	3.50	 	 	 	 	 	 	 	 	 	 	 	 	 	 	 	 	 	 	1581491123	8.08	14.96
12/02/2020 07:05:24	120220	12022020	070524	185.44	12.980763	-57.098345	185.71	0.130	0.020	2.620	185.47	-1.40	3.10	 	 	 	 	 	 	 	 	 	 	 	 	 	 	 	 	 	 	1581491124	7.14	13.22
12/02/2020 07:05:25	120220	12022020	070525	185.64	12.980732	-57.098350	185.93	-0.310	0.670	1.920	185.71	-0.70	2.40	 	 	 	 	 	 	 	 	 	 	 	 	 	 	 	 	 	 	1581491125	6.81	12.61
12/02/2020 07:05:26	120220	12022020	070526	186.08	12.980697	-57.098357	186.39	-0.350	0.550	1.160	186.19	-0.80	1.70	 	 	 	 	 	 	 	 	 	 	 	 	 	 	 	 	 	 	1581491126	7.44	13.78
12/02/2020 07:05:27	120220	12022020	070527	186.61	12.980660	-57.098362	186.89	-0.060	-0.090	0.680	186.70	-1.40	1.20	 	 	 	 	 	 	 	 	 	 	 	 	 	 	 	 	 	 	1581491127	8.21	15.20
12/02/2020 07:05:28	120220	12022020	070528	187.10	12.980620	-57.098367	187.39	0.260	-0.670	0.510	187.20	-2.00	1.00	 	 	 	 	 	 	 	 	 	 	 	 	 	 	 	 	 	 	1581491128	8.69	16.09
12/02/2020 07:05:29	120220	12022020	070529	187.65	12.980580	-57.098372	187.92	0.300	-0.780	0.710	187.74	-2.20	1.20	 	 	 	 	 	 	 	 	 	 	 	 	 	 	 	 	 	 	1581491129	8.60	15.93
12/02/2020 07:05:30	120220	12022020	070530	187.91	12.980543	-57.098378	188.07	0.090	-0.710	1.400	187.87	-2.10	1.80	 	 	 	 	 	 	 	 	 	 	 	 	 	 	 	 	 	 	1581491130	8.03	14.87
12/02/2020 07:05:31	120220	12022020	070531	187.46	12.980507	-57.098387	187.53	-0.080	-0.890	2.410	187.30	-2.30	2.80	 	 	 	 	 	 	 	 	 	 	 	 	 	 	 	 	 	 	1581491131	7.93	14.69
12/02/2020 07:05:32	120220	12022020	070532	186.63	12.980468	-57.098397	186.73	-0.200	-0.860	3.360	186.49	-2.20	3.80	 	 	 	 	 	 	 	 	 	 	 	 	 	 	 	 	 	 	1581491132	8.52	15.78
12/02/2020 07:05:33	120220	12022020	070533	186.13	12.980430	-57.098407	186.35	-0.460	-0.110	3.790	186.10	-1.50	4.20	 	 	 	 	 	 	 	 	 	 	 	 	 	 	 	 	 	 	1581491133	8.62	15.96
12/02/2020 07:05:34	120220	12022020	070534	186.13	12.980395	-57.098418	186.42	-0.740	0.960	3.570	186.18	-0.50	4.00	 	 	 	 	 	 	 	 	 	 	 	 	 	 	 	 	 	 	1581491134	7.89	14.61
12/02/2020 07:05:35	120220	12022020	070535	186.48	12.980362	-57.098428	186.81	-0.650	1.420	2.760	186.59	0.00	3.30	 	 	 	 	 	 	 	 	 	 	 	 	 	 	 	 	 	 	1581491135	7.30	13.52
12/02/2020 07:05:36	120220	12022020	070536	187.00	12.980328	-57.098435	187.30	-0.020	0.830	1.630	187.10	-0.50	2.10	 	 	 	 	 	 	 	 	 	 	 	 	 	 	 	 	 	 	1581491136	7.58	14.04
12/02/2020 07:05:37	120220	12022020	070537	187.37	12.980288	-57.098438	187.61	0.740	-0.350	0.800	187.41	-1.70	1.30	 	 	 	 	 	 	 	 	 	 	 	 	 	 	 	 	 	 	1581491137	8.46	15.67
12/02/2020 07:05:38	120220	12022020	070538	187.46	12.980247	-57.098442	187.62	1.000	-1.190	0.730	187.44	-2.60	1.20	 	 	 	 	 	 	 	 	 	 	 	 	 	 	 	 	 	 	1581491138	8.90	16.48
12/02/2020 07:05:39	120220	12022020	070539	187.21	12.980208	-57.098447	187.35	0.670	-1.360	1.100	187.14	-2.80	1.60	 	 	 	 	 	 	 	 	 	 	 	 	 	 	 	 	 	 	1581491139	8.41	15.58
12/02/2020 07:05:40	120220	12022020	070540	186.96	12.980173	-57.098453	187.13	0.140	-1.020	1.470	186.93	-2.40	1.90	 	 	 	 	 	 	 	 	 	 	 	 	 	 	 	 	 	 	1581491140	7.89	14.61
12/02/2020 07:05:41	120220	12022020	070541	186.92	12.980138	-57.098463	187.13	-0.190	-0.540	1.820	186.93	-1.90	2.30	 	 	 	 	 	 	 	 	 	 	 	 	 	 	 	 	 	 	1581491141	7.64	14.15
12/02/2020 07:05:42	120220	12022020	070542	186.99	12.980103	-57.098473	187.22	-0.260	-0.200	1.980	187.01	-1.60	2.40	 	 	 	 	 	 	 	 	 	 	 	 	 	 	 	 	 	 	1581491142	7.71	14.28
12/02/2020 07:05:43	120220	12022020	070543	187.20	12.980068	-57.098482	187.48	-0.300	0.030	1.690	187.29	-1.40	2.20	 	 	 	 	 	 	 	 	 	 	 	 	 	 	 	 	 	 	1581491143	7.95	14.72
12/02/2020 07:05:44	120220	12022020	070544	187.66	12.980032	-57.098488	187.92	-0.460	0.190	1.240	187.74	-1.20	1.70	 	 	 	 	 	 	 	 	 	 	 	 	 	 	 	 	 	 	1581491144	8.03	14.87
12/02/2020 07:05:45	120220	12022020	070545	187.94	12.979995	-57.098495	188.13	-0.480	0.080	1.160	187.94	-1.30	1.60	 	 	 	 	 	 	 	 	 	 	 	 	 	 	 	 	 	 	1581491145	7.94	14.70
12/02/2020 07:05:46	120220	12022020	070546	187.75	12.979957	-57.098503	187.86	-0.040	-0.380	1.410	187.68	-1.80	1.90	 	 	 	 	 	 	 	 	 	 	 	 	 	 	 	 	 	 	1581491146	8.19	15.17
12/02/2020 07:05:47	120220	12022020	070547	187.32	12.979918	-57.098512	187.42	0.530	-0.740	1.770	187.24	-2.10	2.20	 	 	 	 	 	 	 	 	 	 	 	 	 	 	 	 	 	 	1581491147	8.65	16.02
12/02/2020 07:05:48	120220	12022020	070548	186.89	12.979878	-57.098518	187.00	0.720	-0.620	2.390	186.81	-2.00	2.80	 	 	 	 	 	 	 	 	 	 	 	 	 	 	 	 	 	 	1581491148	8.68	16.08
12/02/2020 07:05:49	120220	12022020	070549	186.60	12.979840	-57.098527	186.78	0.330	-0.050	3.070	186.58	-1.50	3.50	 	 	 	 	 	 	 	 	 	 	 	 	 	 	 	 	 	 	1581491149	8.26	15.30
12/02/2020 07:05:50	120220	12022020	070550	186.62	12.979805	-57.098537	186.96	-0.350	0.700	3.330	186.68	-0.70	3.80	 	 	 	 	 	 	 	 	 	 	 	 	 	 	 	 	 	 	1581491150	7.76	14.37
12/02/2020 07:05:51	120220	12022020	070551	187.17	12.979773	-57.098547	187.48	-0.840	1.060	2.990	187.29	-0.30	3.50	 	 	 	 	 	 	 	 	 	 	 	 	 	 	 	 	 	 	1581491151	7.37	13.65
12/02/2020 07:05:52	120220	12022020	070552	187.67	12.979740	-57.098558	187.91	-0.670	0.380	2.280	187.72	-1.00	2.80	 	 	 	 	 	 	 	 	 	 	 	 	 	 	 	 	 	 	1581491152	7.48	13.85
12/02/2020 07:05:53	120220	12022020	070553	187.78	12.979702	-57.098567	187.96	0.050	-0.910	1.630	187.75	-2.20	2.10	 	 	 	 	 	 	 	 	 	 	 	 	 	 	 	 	 	 	1581491153	8.35	15.46
12/02/2020 07:05:54	120220	12022020	070554	187.55	12.979662	-57.098573	187.69	0.720	-1.820	1.280	187.48	-3.20	1.80	 	 	 	 	 	 	 	 	 	 	 	 	 	 	 	 	 	 	1581491154	9.01	16.69
12/02/2020 07:05:55	120220	12022020	070555	187.23	12.979620	-57.098578	187.38	0.860	-1.790	1.040	187.18	-3.20	1.50	 	 	 	 	 	 	 	 	 	 	 	 	 	 	 	 	 	 	1581491155	8.78	16.26
12/02/2020 07:05:56	120220	12022020	070556	187.13	12.979583	-57.098582	187.33	0.440	-0.850	0.950	187.15	-2.30	1.40	 	 	 	 	 	 	 	 	 	 	 	 	 	 	 	 	 	 	1581491156	8.08	14.96
12/02/2020 07:05:57	120220	12022020	070557	187.37	12.979550	-57.098588	187.60	-0.150	0.460	0.950	187.44	-1.00	1.40	 	 	 	 	 	 	 	 	 	 	 	 	 	 	 	 	 	 	1581491157	7.34	13.59
12/02/2020 07:05:58	120220	12022020	070558	187.79	12.979517	-57.098593	188.01	-0.460	1.170	1.020	187.86	-0.20	1.50	 	 	 	 	 	 	 	 	 	 	 	 	 	 	 	 	 	 	1581491158	7.01	12.98
12/02/2020 07:05:59	120220	12022020	070559	188.05	12.979483	-57.098600	188.24	-0.350	0.740	1.450	188.07	-0.60	1.90	 	 	 	 	 	 	 	 	 	 	 	 	 	 	 	 	 	 	1581491159	7.57	14.02
12/02/2020 07:06:00	120220	12022020	070600	187.93	12.979443	-57.098608	188.05	-0.060	-0.390	2.270	187.85	-1.70	2.70	 	 	 	 	 	 	 	 	 	 	 	 	 	 	 	 	 	 	1581491160	8.72	16.15
12/02/2020 07:06:01	120220	12022020	070601	187.41	12.979400	-57.098622	187.50	-0.010	-1.090	3.240	187.27	-2.50	3.70	1015.10	26.30	26.30	20.80	20.80	-1.0	71.0	71.0	411.0	25.9	267.00	10.30	72.00	11.30	17	9781.0	27.3	27.3	1581491161	9.44	17.48
12/02/2020 07:06:02	120220	12022020	070602	186.85	12.979360	-57.098635	186.88	-0.230	-0.810	3.780	186.74	-2.20	4.20	 	 	 	 	 	 	 	 	 	 	 	 	 	 	 	 	 	 	1581491162	9.08	16.82
12/02/2020 07:06:03	120220	12022020	070603	186.37	12.979325	-57.098648	186.59	-0.380	0.120	3.380	186.36	-1.30	3.90	 	 	 	 	 	 	 	 	 	 	 	 	 	 	 	 	 	 	1581491163	8.03	14.87
12/02/2020 07:06:04	120220	12022020	070604	186.48	12.979293	-57.098657	186.73	-0.210	0.800	2.220	186.54	-0.60	2.70	 	 	 	 	 	 	 	 	 	 	 	 	 	 	 	 	 	 	1581491164	7.12	13.19
12/02/2020 07:06:05	120220	12022020	070605	186.76	12.979260	-57.098660	186.97	0.270	0.400	0.990	186.80	-0.90	1.50	 	 	 	 	 	 	 	 	 	 	 	 	 	 	 	 	 	 	1581491165	7.17	13.28
12/02/2020 07:06:06	120220	12022020	070606	186.86	12.979222	-57.098660	187.03	0.750	-0.760	0.380	186.86	-2.10	0.90	 	 	 	 	 	 	 	 	 	 	 	 	 	 	 	 	 	 	1581491166	8.25	15.28
12/02/2020 07:06:07	120220	12022020	070607	186.82	12.979180	-57.098663	187.00	0.820	-1.450	0.530	186.82	-2.80	1.00	 	 	 	 	 	 	 	 	 	 	 	 	 	 	 	 	 	 	1581491167	9.05	16.76
12/02/2020 07:06:08	120220	12022020	070608	186.95	12.979140	-57.098670	187.19	0.320	-1.000	1.120	187.00	-2.40	1.60	 	 	 	 	 	 	 	 	 	 	 	 	 	 	 	 	 	 	1581491168	8.59	15.91
12/02/2020 07:06:09	120220	12022020	070609	187.20	12.979107	-57.098678	187.43	-0.370	-0.120	1.710	187.24	-1.50	2.20	 	 	 	 	 	 	 	 	 	 	 	 	 	 	 	 	 	 	1581491169	7.45	13.80
12/02/2020 07:06:10	120220	12022020	070610	187.24	12.979075	-57.098688	187.42	-0.640	0.030	2.320	187.21	-1.30	2.80	 	 	 	 	 	 	 	 	 	 	 	 	 	 	 	 	 	 	1581491170	7.18	13.30
12/02/2020 07:06:11	120220	12022020	070611	187.00	12.979038	-57.098700	187.17	-0.340	-0.460	2.870	186.93	-1.80	3.30	 	 	 	 	 	 	 	 	 	 	 	 	 	 	 	 	 	 	1581491171	8.18	15.15
12/02/2020 07:06:12	120220	12022020	070612	186.70	12.978998	-57.098712	186.91	-0.000	-0.590	3.130	186.67	-2.00	3.60	 	 	 	 	 	 	 	 	 	 	 	 	 	 	 	 	 	 	1581491172	9.03	16.72
12/02/2020 07:06:13	120220	12022020	070613	186.71	12.978958	-57.098722	186.99	-0.040	0.030	2.840	186.76	-1.40	3.30	 	 	 	 	 	 	 	 	 	 	 	 	 	 	 	 	 	 	1581491173	8.64	16.00
12/02/2020 07:06:14	120220	12022020	070614	187.15	12.978923	-57.098728	187.35	-0.340	0.800	2.170	187.15	-0.60	2.70	 	 	 	 	 	 	 	 	 	 	 	 	 	 	 	 	 	 	1581491174	7.62	14.11
12/02/2020 07:06:15	120220	12022020	070615	187.36	12.978892	-57.098732	187.59	-0.400	0.810	1.550	187.38	-0.60	2.00	 	 	 	 	 	 	 	 	 	 	 	 	 	 	 	 	 	 	1581491175	7.21	13.35
12/02/2020 07:06:16	120220	12022020	070616	187.36	12.978855	-57.098737	187.53	-0.040	0.080	1.330	187.33	-1.30	1.80	 	 	 	 	 	 	 	 	 	 	 	 	 	 	 	 	 	 	1581491176	7.88	14.59
12/02/2020 07:06:17	120220	12022020	070617	187.15	12.978815	-57.098742	187.30	0.390	-0.710	1.520	187.10	-2.10	2.00	 	 	 	 	 	 	 	 	 	 	 	 	 	 	 	 	 	 	1581491177	8.58	15.89
12/02/2020 07:06:18	120220	12022020	070618	186.89	12.978775	-57.098748	187.06	0.550	-1.060	1.740	186.85	-2.40	2.20	 	 	 	 	 	 	 	 	 	 	 	 	 	 	 	 	 	 	1581491178	8.62	15.96
12/02/2020 07:06:19	120220	12022020	070619	186.79	12.978738	-57.098757	187.01	0.360	-0.830	1.880	186.80	-2.20	2.30	 	 	 	 	 	 	 	 	 	 	 	 	 	 	 	 	 	 	1581491179	8.20	15.19
12/02/2020 07:06:20	120220	12022020	070620	187.05	12.978703	-57.098767	187.25	0.040	-0.220	1.860	187.05	-1.60	2.30	 	 	 	 	 	 	 	 	 	 	 	 	 	 	 	 	 	 	1581491180	7.65	14.17
12/02/2020 07:06:21	120220	12022020	070621	187.35	12.978672	-57.098775	187.61	-0.080	0.170	1.600	187.41	-1.20	2.10	 	 	 	 	 	 	 	 	 	 	 	 	 	 	 	 	 	 	1581491181	7.24	13.41
12/02/2020 07:06:22	120220	12022020	070622	187.50	12.978637	-57.098780	187.71	0.090	-0.280	1.450	187.50	-1.60	1.90	 	 	 	 	 	 	 	 	 	 	 	 	 	 	 	 	 	 	1581491182	7.47	13.83
12/02/2020 07:06:23	120220	12022020	070623	187.37	12.978598	-57.098787	187.53	0.290	-1.160	1.640	187.31	-2.50	2.10	 	 	 	 	 	 	 	 	 	 	 	 	 	 	 	 	 	 	1581491183	8.51	15.76
12/02/2020 07:06:24	120220	12022020	070624	187.05	12.978555	-57.098793	187.21	0.110	-1.400	2.130	186.98	-2.80	2.60	 	 	 	 	 	 	 	 	 	 	 	 	 	 	 	 	 	 	1581491184	9.17	16.98
12/02/2020 07:06:25	120220	12022020	070625	186.63	12.978517	-57.098803	186.88	-0.370	-0.700	2.620	186.63	-2.10	3.10	 	 	 	 	 	 	 	 	 	 	 	 	 	 	 	 	 	 	1581491185	8.69	16.09
12/02/2020 07:06:26	120220	12022020	070626	186.45	12.978482	-57.098815	186.70	-0.750	0.430	2.820	186.45	-1.00	3.30	 	 	 	 	 	 	 	 	 	 	 	 	 	 	 	 	 	 	1581491186	7.92	14.67
12/02/2020 07:06:27	120220	12022020	070627	186.54	12.978448	-57.098825	186.85	-0.740	1.290	2.550	186.60	-0.10	3.00	 	 	 	 	 	 	 	 	 	 	 	 	 	 	 	 	 	 	1581491187	7.52	13.93
12/02/2020 07:06:28	120220	12022020	070628	186.91	12.978413	-57.098832	187.40	-0.410	1.400	1.870	187.03	0.00	2.40	 	 	 	 	 	 	 	 	 	 	 	 	 	 	 	 	 	 	1581491188	7.62	14.11
12/02/2020 07:06:29	120220	12022020	070629	187.78	12.978377	-57.098837	188.13	-0.040	0.780	1.180	187.92	-0.60	1.70	 	 	 	 	 	 	 	 	 	 	 	 	 	 	 	 	 	 	1581491189	8.00	14.82
12/02/2020 07:06:30	120220	12022020	070630	188.35	12.978338	-57.098842	188.60	0.310	-0.250	0.850	188.39	-1.60	1.30	 	 	 	 	 	 	 	 	 	 	 	 	 	 	 	 	 	 	1581491190	8.30	15.37
12/02/2020 07:06:31	120220	12022020	070631	188.24	12.978298	-57.098847	188.44	0.680	-1.350	1.160	188.24	-2.70	1.60	 	 	 	 	 	 	 	 	 	 	 	 	 	 	 	 	 	 	1581491191	8.46	15.67
12/02/2020 07:06:32	120220	12022020	070632	187.73	12.978260	-57.098855	187.79	0.960	-2.030	1.870	187.58	-3.40	2.30	 	 	 	 	 	 	 	 	 	 	 	 	 	 	 	 	 	 	1581491192	8.56	15.85
12/02/2020 07:06:33	120220	12022020	070633	186.89	12.978222	-57.098863	187.12	0.890	-1.760	2.470	186.89	-3.20	2.90	 	 	 	 	 	 	 	 	 	 	 	 	 	 	 	 	 	 	1581491193	8.45	15.65
12/02/2020 07:06:34	120220	12022020	070634	186.56	12.978187	-57.098872	186.73	0.410	-0.700	2.700	186.51	-2.10	3.20	 	 	 	 	 	 	 	 	 	 	 	 	 	 	 	 	 	 	1581491194	7.84	14.52
12/02/2020 07:06:35	120220	12022020	070635	186.44	12.978153	-57.098880	186.67	-0.270	0.390	2.670	186.46	-1.00	3.10	 	 	 	 	 	 	 	 	 	 	 	 	 	 	 	 	 	 	1581491195	7.27	13.46
12/02/2020 07:06:36	120220	12022020	070636	186.78	12.978120	-57.098888	186.98	-0.870	0.950	2.470	186.78	-0.50	2.90	 	 	 	 	 	 	 	 	 	 	 	 	 	 	 	 	 	 	1581491196	7.37	13.65
12/02/2020 07:06:37	120220	12022020	070637	187.28	12.978083	-57.098897	187.47	-1.130	0.850	2.210	187.28	-0.50	2.70	 	 	 	 	 	 	 	 	 	 	 	 	 	 	 	 	 	 	1581491197	7.88	14.59
12/02/2020 07:06:38	120220	12022020	070638	187.63	12.978047	-57.098907	187.82	-0.870	0.240	2.020	187.63	-1.10	2.50	 	 	 	 	 	 	 	 	 	 	 	 	 	 	 	 	 	 	1581491198	8.37	15.50
12/02/2020 07:06:39	120220	12022020	070639	187.73	12.978007	-57.098918	187.94	-0.180	-0.490	1.810	187.74	-1.90	2.30	 	 	 	 	 	 	 	 	 	 	 	 	 	 	 	 	 	 	1581491199	8.76	16.22
12/02/2020 07:06:40	120220	12022020	070640	187.77	12.977967	-57.098927	188.00	0.540	-0.810	1.380	187.79	-2.20	1.90	 	 	 	 	 	 	 	 	 	 	 	 	 	 	 	 	 	 	1581491200	8.81	16.32
12/02/2020 07:06:41	120220	12022020	070641	187.95	12.977928	-57.098930	188.16	0.860	-0.460	0.860	187.99	-1.90	1.40	 	 	 	 	 	 	 	 	 	 	 	 	 	 	 	 	 	 	1581491201	8.30	15.37
12/02/2020 07:06:42	120220	12022020	070642	188.13	12.977893	-57.098932	188.31	0.660	-0.030	0.580	188.13	-1.40	1.10	 	 	 	 	 	 	 	 	 	 	 	 	 	 	 	 	 	 	1581491202	7.53	13.95
12/02/2020 07:06:43	120220	12022020	070643	188.08	12.977860	-57.098933	188.22	0.200	-0.190	0.750	188.04	-1.60	1.20	 	 	 	 	 	 	 	 	 	 	 	 	 	 	 	 	 	 	1581491203	7.36	13.63
12/02/2020 07:06:44	120220	12022020	070644	187.71	12.977822	-57.098938	187.91	-0.210	-0.770	1.440	187.71	-2.10	1.90	 	 	 	 	 	 	 	 	 	 	 	 	 	 	 	 	 	 	1581491204	8.03	14.87
12/02/2020 07:06:45	120220	12022020	070645	187.35	12.977783	-57.098950	187.46	-0.390	-1.160	2.420	187.24	-2.50	2.80	 	 	 	 	 	 	 	 	 	 	 	 	 	 	 	 	 	 	1581491205	8.69	16.09
12/02/2020 07:06:46	120220	12022020	070646	186.83	12.977745	-57.098965	186.96	-0.390	-0.900	3.260	186.72	-2.30	3.70	 	 	 	 	 	 	 	 	 	 	 	 	 	 	 	 	 	 	1581491206	8.81	16.32
12/02/2020 07:06:47	120220	12022020	070647	186.37	12.977708	-57.098978	186.60	-0.410	-0.140	3.720	186.37	-1.60	4.20	 	 	 	 	 	 	 	 	 	 	 	 	 	 	 	 	 	 	1581491207	8.37	15.50
12/02/2020 07:06:48	120220	12022020	070648	186.29	12.977673	-57.098990	186.51	-0.470	0.580	3.730	186.29	-0.80	4.20	 	 	 	 	 	 	 	 	 	 	 	 	 	 	 	 	 	 	1581491208	7.88	14.59
12/02/2020 07:06:49	120220	12022020	070649	186.42	12.977638	-57.099000	186.68	-0.360	0.950	3.160	186.48	-0.50	3.70	 	 	 	 	 	 	 	 	 	 	 	 	 	 	 	 	 	 	1581491209	7.79	14.43
12/02/2020 07:06:50	120220	12022020	070650	186.77	12.977603	-57.099007	187.05	0.050	0.890	2.070	186.86	-0.50	2.60	 	 	 	 	 	 	 	 	 	 	 	 	 	 	 	 	 	 	1581491210	7.85	14.54
12/02/2020 07:06:51	120220	12022020	070651	187.24	12.977565	-57.099008	187.51	0.590	0.370	0.900	187.34	-1.00	1.40	 	 	 	 	 	 	 	 	 	 	 	 	 	 	 	 	 	 	1581491211	8.03	14.87
12/02/2020 07:06:52	120220	12022020	070652	187.75	12.977527	-57.099008	188.01	0.890	-0.260	0.220	187.85	-1.60	0.70	 	 	 	 	 	 	 	 	 	 	 	 	 	 	 	 	 	 	1581491212	8.30	15.37
12/02/2020 07:06:53	120220	12022020	070653	188.17	12.977490	-57.099010	188.33	0.740	-0.720	0.220	188.17	-2.10	0.70	 	 	 	 	 	 	 	 	 	 	 	 	 	 	 	 	 	 	1581491213	8.11	15.02
12/02/2020 07:06:54	120220	12022020	070654	188.04	12.977453	-57.099015	188.13	0.340	-1.320	1.020	187.94	-2.70	1.50	 	 	 	 	 	 	 	 	 	 	 	 	 	 	 	 	 	 	1581491214	7.73	14.32
12/02/2020 07:06:55	120220	12022020	070655	187.20	12.977417	-57.099025	187.41	0.050	-2.060	2.400	187.20	-3.40	2.80	 	 	 	 	 	 	 	 	 	 	 	 	 	 	 	 	 	 	1581491215	8.15	15.09
12/02/2020 07:06:56	120220	12022020	070656	186.58	12.977378	-57.099040	186.71	-0.130	-2.090	3.610	186.46	-3.50	4.00	 	 	 	 	 	 	 	 	 	 	 	 	 	 	 	 	 	 	1581491216	8.94	16.56
12/02/2020 07:06:57	120220	12022020	070657	186.16	12.977340	-57.099055	186.40	-0.400	-0.950	4.070	186.15	-2.40	4.50	 	 	 	 	 	 	 	 	 	 	 	 	 	 	 	 	 	 	1581491217	8.74	16.19
12/02/2020 07:06:58	120220	12022020	070658	186.34	12.977307	-57.099067	186.58	-0.720	0.620	3.730	186.34	-0.80	4.20	 	 	 	 	 	 	 	 	 	 	 	 	 	 	 	 	 	 	1581491218	7.65	14.17
12/02/2020 07:06:59	120220	12022020	070659	186.69	12.977275	-57.099075	187.00	-0.790	1.370	2.850	186.78	-0.00	3.40	 	 	 	 	 	 	 	 	 	 	 	 	 	 	 	 	 	 	1581491219	7.08	13.11
12/02/2020 07:07:00	120220	12022020	070700	187.11	12.977238	-57.099078	187.40	-0.440	0.980	1.890	187.19	-0.40	2.40	 	 	 	 	 	 	 	 	 	 	 	 	 	 	 	 	 	 	1581491220	7.80	14.45
12/02/2020 07:07:01	120220	12022020	070701	187.39	12.977198	-57.099080	187.64	0.050	0.140	1.380	187.43	-1.30	1.90	1015.10	26.20	26.30	20.90	20.90	-1.0	72.0	72.0	411.0	25.9	272.00	10.30	77.00	11.00	17	9571.0	27.3	27.2	1581491221	8.87	16.43
12/02/2020 07:07:02	120220	12022020	070702	187.56	12.977155	-57.099083	187.80	0.270	-0.280	1.240	187.60	-1.70	1.70	 	 	 	 	 	 	 	 	 	 	 	 	 	 	 	 	 	 	1581491222	9.10	16.85
12/02/2020 07:07:03	120220	12022020	070703	187.74	12.977117	-57.099090	187.97	0.120	-0.070	1.270	187.76	-1.50	1.70	 	 	 	 	 	 	 	 	 	 	 	 	 	 	 	 	 	 	1581491223	8.38	15.52
12/02/2020 07:07:04	120220	12022020	070704	187.82	12.977083	-57.099097	188.02	-0.050	0.190	1.500	187.82	-1.20	2.00	 	 	 	 	 	 	 	 	 	 	 	 	 	 	 	 	 	 	1581491224	7.49	13.87
12/02/2020 07:07:05	120220	12022020	070705	187.82	12.977050	-57.099107	188.02	0.120	0.020	1.700	187.81	-1.40	2.20	 	 	 	 	 	 	 	 	 	 	 	 	 	 	 	 	 	 	1581491225	7.39	13.69
12/02/2020 07:07:06	120220	12022020	070706	187.68	12.977015	-57.099115	187.83	0.580	-0.510	1.840	187.61	-1.90	2.30	 	 	 	 	 	 	 	 	 	 	 	 	 	 	 	 	 	 	1581491226	7.78	14.41
12/02/2020 07:07:07	120220	12022020	070707	187.30	12.976977	-57.099122	187.45	0.860	-1.000	2.040	187.24	-2.40	2.50	 	 	 	 	 	 	 	 	 	 	 	 	 	 	 	 	 	 	1581491227	8.19	15.17
12/02/2020 07:07:08	120220	12022020	070708	187.08	12.976938	-57.099130	187.29	0.600	-1.080	2.160	187.07	-2.50	2.60	 	 	 	 	 	 	 	 	 	 	 	 	 	 	 	 	 	 	1581491228	8.30	15.37
12/02/2020 07:07:09	120220	12022020	070709	187.08	12.976903	-57.099137	187.30	-0.020	-0.820	2.280	187.08	-2.20	2.70	 	 	 	 	 	 	 	 	 	 	 	 	 	 	 	 	 	 	1581491229	7.99	14.80
12/02/2020 07:07:10	120220	12022020	070710	187.09	12.976868	-57.099147	187.31	-0.500	-0.470	2.380	187.09	-1.90	2.80	 	 	 	 	 	 	 	 	 	 	 	 	 	 	 	 	 	 	1581491230	7.76	14.37
12/02/2020 07:07:11	120220	12022020	070711	187.08	12.976833	-57.099157	187.27	-0.630	-0.280	2.420	187.07	-1.70	2.90	 	 	 	 	 	 	 	 	 	 	 	 	 	 	 	 	 	 	1581491231	7.86	14.56
12/02/2020 07:07:12	120220	12022020	070712	187.04	12.976795	-57.099167	187.24	-0.520	-0.220	2.430	187.03	-1.60	2.90	 	 	 	 	 	 	 	 	 	 	 	 	 	 	 	 	 	 	1581491232	8.17	15.13
12/02/2020 07:07:13	120220	12022020	070713	187.05	12.976758	-57.099175	187.27	-0.310	-0.140	2.160	187.08	-1.50	2.60	 	 	 	 	 	 	 	 	 	 	 	 	 	 	 	 	 	 	1581491233	8.42	15.59
12/02/2020 07:07:14	120220	12022020	070714	187.32	12.976720	-57.099182	187.60	-0.110	0.140	1.490	187.42	-1.30	2.00	 	 	 	 	 	 	 	 	 	 	 	 	 	 	 	 	 	 	1581491234	8.40	15.56
12/02/2020 07:07:15	120220	12022020	070715	188.05	12.976682	-57.099187	188.22	0.040	0.510	0.860	188.05	-0.90	1.30	 	 	 	 	 	 	 	 	 	 	 	 	 	 	 	 	 	 	1581491235	8.07	14.95
12/02/2020 07:07:16	120220	12022020	070716	188.45	12.976647	-57.099190	188.68	0.150	0.550	0.780	188.50	-0.90	1.20	 	 	 	 	 	 	 	 	 	 	 	 	 	 	 	 	 	 	1581491236	7.71	14.28
12/02/2020 07:07:17	120220	12022020	070717	188.29	12.976610	-57.099195	188.50	0.260	-0.060	1.400	188.29	-1.40	1.80	 	 	 	 	 	 	 	 	 	 	 	 	 	 	 	 	 	 	1581491237	7.78	14.41
12/02/2020 07:07:18	120220	12022020	070718	187.90	12.976572	-57.099203	187.86	0.250	-0.920	2.390	187.77	-2.30	2.80	 	 	 	 	 	 	 	 	 	 	 	 	 	 	 	 	 	 	1581491238	8.45	15.65
12/02/2020 07:07:19	120220	12022020	070719	187.15	12.976532	-57.099217	187.30	0.010	-1.200	3.310	187.06	-2.60	3.70	 	 	 	 	 	 	 	 	 	 	 	 	 	 	 	 	 	 	1581491239	8.89	16.46
12/02/2020 07:07:20	120220	12022020	070720	186.74	12.976495	-57.099232	186.99	-0.210	-0.750	3.810	186.74	-2.20	4.30	 	 	 	 	 	 	 	 	 	 	 	 	 	 	 	 	 	 	1581491240	8.55	15.83
12/02/2020 07:07:21	120220	12022020	070721	186.55	12.976462	-57.099245	186.78	-0.080	-0.040	3.640	186.53	-1.50	4.10	 	 	 	 	 	 	 	 	 	 	 	 	 	 	 	 	 	 	1581491241	7.90	14.63
12/02/2020 07:07:22	120220	12022020	070722	186.64	12.976427	-57.099255	186.87	0.260	0.500	2.730	186.64	-0.90	3.20	 	 	 	 	 	 	 	 	 	 	 	 	 	 	 	 	 	 	1581491242	7.56	14.00
12/02/2020 07:07:23	120220	12022020	070723	187.01	12.976392	-57.099257	187.33	0.380	0.650	1.620	187.13	-0.80	2.10	 	 	 	 	 	 	 	 	 	 	 	 	 	 	 	 	 	 	1581491243	7.61	14.09
12/02/2020 07:07:24	120220	12022020	070724	187.59	12.976357	-57.099258	187.88	0.120	0.180	0.960	187.69	-1.20	1.50	 	 	 	 	 	 	 	 	 	 	 	 	 	 	 	 	 	 	1581491244	7.80	14.45
12/02/2020 07:07:25	120220	12022020	070725	187.82	12.976318	-57.099262	187.97	-0.210	-0.860	1.150	187.77	-2.20	1.60	 	 	 	 	 	 	 	 	 	 	 	 	 	 	 	 	 	 	1581491245	8.12	15.04
12/02/2020 07:07:26	120220	12022020	070726	187.15	12.976278	-57.099272	187.37	-0.270	-1.800	2.160	187.15	-3.20	2.60	 	 	 	 	 	 	 	 	 	 	 	 	 	 	 	 	 	 	1581491246	8.74	16.19
12/02/2020 07:07:27	120220	12022020	070727	186.56	12.976240	-57.099287	186.69	-0.120	-1.650	3.180	186.46	-3.10	3.60	 	 	 	 	 	 	 	 	 	 	 	 	 	 	 	 	 	 	1581491247	9.10	16.85
12/02/2020 07:07:28	120220	12022020	070728	186.29	12.976203	-57.099302	186.53	0.020	-0.340	3.450	186.29	-1.80	3.90	 	 	 	 	 	 	 	 	 	 	 	 	 	 	 	 	 	 	1581491248	8.30	15.37
12/02/2020 07:07:29	120220	12022020	070729	186.38	12.976173	-57.099312	186.63	0.100	0.750	3.130	186.41	-0.70	3.60	 	 	 	 	 	 	 	 	 	 	 	 	 	 	 	 	 	 	1581491249	6.99	12.95
12/02/2020 07:07:30	120220	12022020	070730	186.43	12.976140	-57.099317	186.69	0.190	0.640	2.660	186.44	-0.80	3.20	 	 	 	 	 	 	 	 	 	 	 	 	 	 	 	 	 	 	1581491250	7.13	13.20
12/02/2020 07:07:31	120220	12022020	070731	186.60	12.976102	-57.099320	186.84	0.180	-0.060	2.210	186.63	-1.40	2.70	 	 	 	 	 	 	 	 	 	 	 	 	 	 	 	 	 	 	1581491251	8.39	15.54
12/02/2020 07:07:32	120220	12022020	070732	186.71	12.976060	-57.099325	186.92	0.040	-0.540	2.140	186.71	-1.90	2.60	 	 	 	 	 	 	 	 	 	 	 	 	 	 	 	 	 	 	1581491252	8.86	16.41
12/02/2020 07:07:33	120220	12022020	070733	186.68	12.976022	-57.099332	186.87	-0.130	-0.560	2.370	186.67	-2.00	2.80	 	 	 	 	 	 	 	 	 	 	 	 	 	 	 	 	 	 	1581491253	8.51	15.76
12/02/2020 07:07:34	120220	12022020	070734	186.57	12.975985	-57.099340	186.75	-0.220	-0.310	2.640	186.53	-1.70	3.10	 	 	 	 	 	 	 	 	 	 	 	 	 	 	 	 	 	 	1581491254	8.02	14.85
12/02/2020 07:07:35	120220	12022020	070735	186.41	12.975950	-57.099348	186.61	-0.260	-0.090	2.800	186.38	-1.50	3.30	 	 	 	 	 	 	 	 	 	 	 	 	 	 	 	 	 	 	1581491255	7.78	14.41
12/02/2020 07:07:36	120220	12022020	070736	186.38	12.975913	-57.099357	186.61	-0.300	-0.020	2.680	186.40	-1.40	3.10	 	 	 	 	 	 	 	 	 	 	 	 	 	 	 	 	 	 	1581491256	7.89	14.61
12/02/2020 07:07:37	120220	12022020	070737	186.56	12.975878	-57.099367	186.77	-0.220	0.060	2.330	186.56	-1.40	2.80	 	 	 	 	 	 	 	 	 	 	 	 	 	 	 	 	 	 	1581491257	7.99	14.80
12/02/2020 07:07:38	120220	12022020	070738	186.73	12.975842	-57.099375	186.95	0.080	0.160	1.850	186.76	-1.30	2.30	 	 	 	 	 	 	 	 	 	 	 	 	 	 	 	 	 	 	1581491258	7.87	14.58
12/02/2020 07:07:39	120220	12022020	070739	186.81	12.975807	-57.099382	186.98	0.500	-0.050	1.460	186.81	-1.40	1.90	 	 	 	 	 	 	 	 	 	 	 	 	 	 	 	 	 	 	1581491259	7.69	14.24
12/02/2020 07:07:40	120220	12022020	070740	186.73	12.975770	-57.099385	186.87	0.760	-0.570	1.320	186.70	-2.00	1.80	 	 	 	 	 	 	 	 	 	 	 	 	 	 	 	 	 	 	1581491260	8.01	14.83
12/02/2020 07:07:41	120220	12022020	070741	186.61	12.975732	-57.099388	186.77	0.600	-0.930	1.400	186.60	-2.30	1.90	 	 	 	 	 	 	 	 	 	 	 	 	 	 	 	 	 	 	1581491261	8.40	15.56
12/02/2020 07:07:42	120220	12022020	070742	186.68	12.975693	-57.099395	186.86	0.070	-0.780	1.680	186.68	-2.20	2.10	 	 	 	 	 	 	 	 	 	 	 	 	 	 	 	 	 	 	1581491262	8.30	15.37
12/02/2020 07:07:43	120220	12022020	070743	186.87	12.975657	-57.099403	187.06	-0.440	-0.370	1.960	186.87	-1.80	2.40	 	 	 	 	 	 	 	 	 	 	 	 	 	 	 	 	 	 	1581491263	7.84	14.52
12/02/2020 07:07:44	120220	12022020	070744	186.92	12.975623	-57.099413	187.11	-0.570	-0.150	2.310	186.92	-1.60	2.70	 	 	 	 	 	 	 	 	 	 	 	 	 	 	 	 	 	 	1581491264	7.65	14.17
12/02/2020 07:07:45	120220	12022020	070745	186.81	12.975588	-57.099423	186.99	-0.390	-0.240	2.740	186.79	-1.60	3.20	 	 	 	 	 	 	 	 	 	 	 	 	 	 	 	 	 	 	1581491265	7.98	14.78
12/02/2020 07:07:46	120220	12022020	070746	186.67	12.975550	-57.099435	186.86	-0.210	-0.450	3.030	186.64	-1.80	3.50	 	 	 	 	 	 	 	 	 	 	 	 	 	 	 	 	 	 	1581491266	8.39	15.54
12/02/2020 07:07:47	120220	12022020	070747	186.42	12.975512	-57.099445	186.64	-0.110	-0.600	2.970	186.42	-2.00	3.40	 	 	 	 	 	 	 	 	 	 	 	 	 	 	 	 	 	 	1581491267	8.56	15.85
12/02/2020 07:07:48	120220	12022020	070748	186.16	12.975472	-57.099453	186.37	-0.030	-0.550	2.670	186.16	-2.00	3.10	 	 	 	 	 	 	 	 	 	 	 	 	 	 	 	 	 	 	1581491268	8.54	15.82
12/02/2020 07:07:49	120220	12022020	070749	186.05	12.975433	-57.099458	186.26	-0.010	-0.140	2.220	186.06	-1.60	2.70	 	 	 	 	 	 	 	 	 	 	 	 	 	 	 	 	 	 	1581491269	8.42	15.59
12/02/2020 07:07:50	120220	12022020	070750	186.20	12.975397	-57.099463	186.45	-0.120	0.600	1.670	186.26	-0.80	2.20	 	 	 	 	 	 	 	 	 	 	 	 	 	 	 	 	 	 	1581491270	8.02	14.85
12/02/2020 07:07:51	120220	12022020	070751	186.51	12.975362	-57.099468	186.74	-0.240	1.150	1.230	186.57	-0.30	1.70	 	 	 	 	 	 	 	 	 	 	 	 	 	 	 	 	 	 	1581491271	7.48	13.85
12/02/2020 07:07:52	120220	12022020	070752	186.72	12.975328	-57.099473	186.91	-0.120	0.970	1.080	186.74	-0.40	1.60	 	 	 	 	 	 	 	 	 	 	 	 	 	 	 	 	 	 	1581491272	7.39	13.69
12/02/2020 07:07:53	120220	12022020	070753	186.72	12.975292	-57.099480	186.91	0.330	0.070	1.210	186.72	-1.30	1.70	 	 	 	 	 	 	 	 	 	 	 	 	 	 	 	 	 	 	1581491273	7.93	14.69
12/02/2020 07:07:54	120220	12022020	070754	186.70	12.975253	-57.099487	186.89	0.710	-0.920	1.470	186.70	-2.30	1.90	 	 	 	 	 	 	 	 	 	 	 	 	 	 	 	 	 	 	1581491274	8.52	15.78
12/02/2020 07:07:55	120220	12022020	070755	186.51	12.975213	-57.099493	186.70	0.640	-1.540	2.080	186.51	-2.90	2.50	 	 	 	 	 	 	 	 	 	 	 	 	 	 	 	 	 	 	1581491275	8.55	15.83
12/02/2020 07:07:56	120220	12022020	070756	186.25	12.975177	-57.099503	186.40	0.210	-1.640	2.860	186.20	-3.00	3.30	 	 	 	 	 	 	 	 	 	 	 	 	 	 	 	 	 	 	1581491276	8.27	15.32
12/02/2020 07:07:57	120220	12022020	070757	186.00	12.975142	-57.099515	186.19	-0.200	-1.280	3.280	185.96	-2.70	3.70	 	 	 	 	 	 	 	 	 	 	 	 	 	 	 	 	 	 	1581491277	8.05	14.91
12/02/2020 07:07:58	120220	12022020	070758	185.75	12.975107	-57.099525	185.93	-0.300	-0.830	3.330	185.69	-2.20	3.80	 	 	 	 	 	 	 	 	 	 	 	 	 	 	 	 	 	 	1581491278	7.83	14.50
12/02/2020 07:07:59	120220	12022020	070759	185.35	12.975070	-57.099533	185.59	-0.180	-0.450	3.240	185.35	-1.90	3.70	 	 	 	 	 	 	 	 	 	 	 	 	 	 	 	 	 	 	1581491279	7.99	14.80
12/02/2020 07:08:00	120220	12022020	070800	185.18	12.975032	-57.099540	185.41	-0.140	0.080	2.940	185.18	-1.30	3.40	 	 	 	 	 	 	 	 	 	 	 	 	 	 	 	 	 	 	1581491280	8.34	15.45
12/02/2020 07:08:01	120220	12022020	070801	185.33	12.974993	-57.099545	185.64	-0.340	0.810	2.360	185.41	-0.60	2.90	1015.00	26.10	26.20	20.40	20.50	-1.0	70.0	70.0	410.0	25.9	268.00	11.10	75.00	12.00	17	9452.0	27.3	27.2	1581491281	8.21	15.20
12/02/2020 07:08:02	120220	12022020	070802	185.78	12.974958	-57.099548	186.10	-0.560	1.190	1.840	185.87	-0.20	2.30	 	 	 	 	 	 	 	 	 	 	 	 	 	 	 	 	 	 	1581491282	7.79	14.43
12/02/2020 07:08:03	120220	12022020	070803	186.15	12.974922	-57.099553	186.43	-0.460	0.780	1.660	186.21	-0.60	2.10	 	 	 	 	 	 	 	 	 	 	 	 	 	 	 	 	 	 	1581491283	7.86	14.56
12/02/2020 07:08:04	120220	12022020	070804	186.44	12.974882	-57.099560	186.67	-0.100	-0.020	1.760	186.44	-1.40	2.20	 	 	 	 	 	 	 	 	 	 	 	 	 	 	 	 	 	 	1581491284	8.48	15.70
12/02/2020 07:08:05	120220	12022020	070805	186.61	12.974842	-57.099567	186.84	0.170	-0.650	2.080	186.61	-2.00	2.50	 	 	 	 	 	 	 	 	 	 	 	 	 	 	 	 	 	 	1581491285	8.70	16.11
12/02/2020 07:08:06	120220	12022020	070806	186.64	12.974805	-57.099577	186.86	0.220	-0.900	2.380	186.63	-2.30	2.80	 	 	 	 	 	 	 	 	 	 	 	 	 	 	 	 	 	 	1581491286	8.36	15.48
12/02/2020 07:08:07	120220	12022020	070807	186.48	12.974768	-57.099587	186.65	0.240	-0.910	2.520	186.41	-2.30	3.00	 	 	 	 	 	 	 	 	 	 	 	 	 	 	 	 	 	 	1581491287	7.96	14.74
12/02/2020 07:08:08	120220	12022020	070808	186.16	12.974733	-57.099595	186.22	0.430	-0.830	2.450	186.08	-2.20	2.90	 	 	 	 	 	 	 	 	 	 	 	 	 	 	 	 	 	 	1581491288	7.78	14.41
12/02/2020 07:08:09	120220	12022020	070809	185.80	12.974698	-57.099600	186.01	0.610	-0.470	1.980	185.80	-1.90	2.50	 	 	 	 	 	 	 	 	 	 	 	 	 	 	 	 	 	 	1581491289	7.90	14.63
12/02/2020 07:08:10	120220	12022020	070810	185.90	12.974662	-57.099602	186.15	0.490	-0.050	1.500	185.95	-1.50	2.00	 	 	 	 	 	 	 	 	 	 	 	 	 	 	 	 	 	 	1581491290	7.77	14.39
12/02/2020 07:08:11	120220	12022020	070811	186.14	12.974625	-57.099603	186.37	0.070	-0.020	1.410	186.18	-1.40	1.90	 	 	 	 	 	 	 	 	 	 	 	 	 	 	 	 	 	 	1581491291	7.75	14.35
12/02/2020 07:08:12	120220	12022020	070812	186.24	12.974588	-57.099608	186.45	-0.360	-0.260	1.880	186.24	-1.60	2.30	 	 	 	 	 	 	 	 	 	 	 	 	 	 	 	 	 	 	1581491292	8.14	15.08
12/02/2020 07:08:13	120220	12022020	070813	186.18	12.974550	-57.099620	186.38	-0.530	-0.370	2.500	186.16	-1.80	2.90	 	 	 	 	 	 	 	 	 	 	 	 	 	 	 	 	 	 	1581491293	8.56	15.85
12/02/2020 07:08:14	120220	12022020	070814	186.12	12.974512	-57.099632	186.32	-0.430	-0.190	2.790	186.12	-1.60	3.20	 	 	 	 	 	 	 	 	 	 	 	 	 	 	 	 	 	 	1581491294	8.48	15.70
12/02/2020 07:08:15	120220	12022020	070815	186.15	12.974475	-57.099642	186.36	-0.320	0.010	2.790	186.15	-1.40	3.20	 	 	 	 	 	 	 	 	 	 	 	 	 	 	 	 	 	 	1581491295	8.15	15.09
12/02/2020 07:08:16	120220	12022020	070816	186.16	12.974440	-57.099652	186.38	-0.280	0.030	2.620	186.16	-1.40	3.10	 	 	 	 	 	 	 	 	 	 	 	 	 	 	 	 	 	 	1581491296	8.01	14.83
12/02/2020 07:08:17	120220	12022020	070817	186.18	12.974402	-57.099660	186.40	-0.180	-0.040	2.250	186.18	-1.40	2.70	 	 	 	 	 	 	 	 	 	 	 	 	 	 	 	 	 	 	1581491297	8.11	15.02
12/02/2020 07:08:18	120220	12022020	070818	186.28	12.974365	-57.099665	186.53	0.150	-0.050	1.550	186.32	-1.40	2.10	 	 	 	 	 	 	 	 	 	 	 	 	 	 	 	 	 	 	1581491298	8.05	14.91
12/02/2020 07:08:19	120220	12022020	070819	186.45	12.974328	-57.099667	186.66	0.540	-0.200	0.920	186.47	-1.60	1.40	 	 	 	 	 	 	 	 	 	 	 	 	 	 	 	 	 	 	1581491299	7.96	14.74
12/02/2020 07:08:20	120220	12022020	070820	186.43	12.974290	-57.099667	186.60	0.620	-0.560	0.900	186.40	-1.90	1.40	 	 	 	 	 	 	 	 	 	 	 	 	 	 	 	 	 	 	1581491300	8.11	15.02
12/02/2020 07:08:21	120220	12022020	070821	186.18	12.974252	-57.099670	186.31	0.350	-0.940	1.370	186.10	-2.30	1.80	 	 	 	 	 	 	 	 	 	 	 	 	 	 	 	 	 	 	1581491301	8.32	15.41
12/02/2020 07:08:22	120220	12022020	070822	185.71	12.974213	-57.099678	185.84	-0.030	-0.980	2.130	185.62	-2.40	2.60	 	 	 	 	 	 	 	 	 	 	 	 	 	 	 	 	 	 	1581491302	8.44	15.63
12/02/2020 07:08:23	120220	12022020	070823	185.21	12.974177	-57.099688	185.46	-0.300	-0.510	2.930	185.21	-1.90	3.40	 	 	 	 	 	 	 	 	 	 	 	 	 	 	 	 	 	 	1581491303	8.35	15.46
12/02/2020 07:08:24	120220	12022020	070824	185.08	12.974142	-57.099700	185.33	-0.500	0.160	3.440	185.07	-1.20	3.90	 	 	 	 	 	 	 	 	 	 	 	 	 	 	 	 	 	 	1581491304	7.98	14.78
12/02/2020 07:08:25	120220	12022020	070825	185.18	12.974107	-57.099712	185.50	-0.620	0.490	3.320	185.24	-0.90	3.80	 	 	 	 	 	 	 	 	 	 	 	 	 	 	 	 	 	 	1581491305	7.83	14.50
12/02/2020 07:08:26	120220	12022020	070826	185.74	12.974070	-57.099722	185.98	-0.500	0.390	2.570	185.74	-1.00	3.10	 	 	 	 	 	 	 	 	 	 	 	 	 	 	 	 	 	 	1581491306	8.08	14.96
12/02/2020 07:08:27	120220	12022020	070827	186.30	12.974032	-57.099730	186.53	-0.010	0.090	1.640	186.30	-1.30	2.10	 	 	 	 	 	 	 	 	 	 	 	 	 	 	 	 	 	 	1581491307	8.27	15.32
12/02/2020 07:08:28	120220	12022020	070828	186.52	12.973993	-57.099733	186.73	0.630	-0.310	1.000	186.52	-1.70	1.50	 	 	 	 	 	 	 	 	 	 	 	 	 	 	 	 	 	 	1581491308	8.27	15.32
12/02/2020 07:08:29	120220	12022020	070829	186.44	12.973955	-57.099735	186.63	0.910	-0.640	0.780	186.41	-2.00	1.30	 	 	 	 	 	 	 	 	 	 	 	 	 	 	 	 	 	 	1581491309	8.34	15.45
12/02/2020 07:08:30	120220	12022020	070830	186.20	12.973917	-57.099737	186.37	0.540	-0.670	1.050	186.14	-2.00	1.50	 	 	 	 	 	 	 	 	 	 	 	 	 	 	 	 	 	 	1581491310	8.28	15.33
12/02/2020 07:08:31	120220	12022020	070831	185.83	12.973880	-57.099742	186.08	-0.170	-0.450	1.630	185.83	-1.80	2.10	 	 	 	 	 	 	 	 	 	 	 	 	 	 	 	 	 	 	1581491311	7.94	14.70
12/02/2020 07:08:32	120220	12022020	070832	185.82	12.973845	-57.099750	186.06	-0.750	-0.060	2.080	185.82	-1.50	2.50	 	 	 	 	 	 	 	 	 	 	 	 	 	 	 	 	 	 	1581491312	7.88	14.59
12/02/2020 07:08:33	120220	12022020	070833	186.08	12.973810	-57.099762	186.42	-0.840	0.260	2.240	186.18	-1.10	2.70	 	 	 	 	 	 	 	 	 	 	 	 	 	 	 	 	 	 	1581491313	7.83	14.50
12/02/2020 07:08:34	120220	12022020	070834	186.54	12.973775	-57.099775	186.84	-0.330	0.160	2.070	186.61	-1.20	2.50	 	 	 	 	 	 	 	 	 	 	 	 	 	 	 	 	 	 	1581491314	7.86	14.56
12/02/2020 07:08:35	120220	12022020	070835	186.74	12.973738	-57.099783	186.95	0.520	-0.450	1.750	186.73	-1.80	2.20	 	 	 	 	 	 	 	 	 	 	 	 	 	 	 	 	 	 	1581491315	8.15	15.09
12/02/2020 07:08:36	120220	12022020	070836	186.66	12.973698	-57.099790	186.86	1.080	-0.960	1.470	186.65	-2.30	1.90	 	 	 	 	 	 	 	 	 	 	 	 	 	 	 	 	 	 	1581491316	8.67	16.06
12/02/2020 07:08:37	120220	12022020	070837	186.55	12.973658	-57.099792	186.76	0.840	-0.840	1.550	186.55	-2.20	2.00	 	 	 	 	 	 	 	 	 	 	 	 	 	 	 	 	 	 	1581491317	8.60	15.93
12/02/2020 07:08:38	120220	12022020	070838	186.33	12.973623	-57.099795	186.54	0.020	-0.380	2.030	186.33	-1.80	2.50	 	 	 	 	 	 	 	 	 	 	 	 	 	 	 	 	 	 	1581491318	7.88	14.59
12/02/2020 07:08:39	120220	12022020	070839	186.05	12.973588	-57.099802	186.21	-0.790	-0.100	2.680	185.98	-1.50	3.10	 	 	 	 	 	 	 	 	 	 	 	 	 	 	 	 	 	 	1581491319	7.67	14.20
12/02/2020 07:08:40	120220	12022020	070840	185.70	12.973552	-57.099815	185.89	-1.130	-0.030	3.150	185.66	-1.40	3.60	 	 	 	 	 	 	 	 	 	 	 	 	 	 	 	 	 	 	1581491320	8.19	15.17
12/02/2020 07:08:41	120220	12022020	070841	185.59	12.973515	-57.099830	185.84	-0.880	0.140	3.060	185.60	-1.20	3.50	 	 	 	 	 	 	 	 	 	 	 	 	 	 	 	 	 	 	1581491321	8.63	15.98
12/02/2020 07:08:42	120220	12022020	070842	185.73	12.973478	-57.099843	186.00	-0.220	0.380	2.390	185.78	-1.00	2.90	 	 	 	 	 	 	 	 	 	 	 	 	 	 	 	 	 	 	1581491322	8.35	15.46
12/02/2020 07:08:43	120220	12022020	070843	186.13	12.973442	-57.099850	186.33	0.410	0.330	1.390	186.13	-1.10	1.90	 	 	 	 	 	 	 	 	 	 	 	 	 	 	 	 	 	 	1581491323	7.95	14.72
12/02/2020 07:08:44	120220	12022020	070844	186.47	12.973403	-57.099852	186.73	0.670	-0.000	0.610	186.55	-1.40	1.10	 	 	 	 	 	 	 	 	 	 	 	 	 	 	 	 	 	 	1581491324	8.04	14.89
12/02/2020 07:08:45	120220	12022020	070845	186.82	12.973367	-57.099852	187.04	0.550	-0.400	0.520	186.86	-1.80	1.00	 	 	 	 	 	 	 	 	 	 	 	 	 	 	 	 	 	 	1581491325	8.13	15.06
12/02/2020 07:08:46	120220	12022020	070846	186.91	12.973330	-57.099857	187.08	0.330	-0.680	0.920	186.88	-2.10	1.40	 	 	 	 	 	 	 	 	 	 	 	 	 	 	 	 	 	 	1581491326	8.01	14.83
12/02/2020 07:08:47	120220	12022020	070847	186.70	12.973293	-57.099863	186.84	0.220	-0.760	1.520	186.63	-2.20	2.00	 	 	 	 	 	 	 	 	 	 	 	 	 	 	 	 	 	 	1581491327	7.91	14.65
12/02/2020 07:08:48	120220	12022020	070848	186.22	12.973258	-57.099872	186.44	0.190	-0.690	2.160	186.22	-2.10	2.60	 	 	 	 	 	 	 	 	 	 	 	 	 	 	 	 	 	 	1581491328	7.85	14.54
12/02/2020 07:08:49	120220	12022020	070849	185.76	12.973222	-57.099882	185.98	0.140	-0.630	2.670	185.76	-2.00	3.10	 	 	 	 	 	 	 	 	 	 	 	 	 	 	 	 	 	 	1581491329	7.89	14.61
12/02/2020 07:08:50	120220	12022020	070850	185.50	12.973185	-57.099892	185.71	-0.020	-0.460	2.880	185.47	-1.90	3.30	 	 	 	 	 	 	 	 	 	 	 	 	 	 	 	 	 	 	1581491330	8.14	15.08
12/02/2020 07:08:51	120220	12022020	070851	185.47	12.973148	-57.099900	185.72	-0.250	-0.090	2.850	185.48	-1.50	3.30	 	 	 	 	 	 	 	 	 	 	 	 	 	 	 	 	 	 	1581491331	8.10	15.00
12/02/2020 07:08:52	120220	12022020	070852	185.52	12.973113	-57.099908	185.78	-0.400	0.170	2.850	185.53	-1.20	3.30	 	 	 	 	 	 	 	 	 	 	 	 	 	 	 	 	 	 	1581491332	7.86	14.56
12/02/2020 07:08:53	120220	12022020	070853	185.53	12.973077	-57.099917	185.80	-0.350	0.060	2.880	185.53	-1.30	3.30	 	 	 	 	 	 	 	 	 	 	 	 	 	 	 	 	 	 	1581491333	7.96	14.74
12/02/2020 07:08:54	120220	12022020	070854	185.42	12.973038	-57.099925	185.69	-0.090	-0.310	2.840	185.42	-1.70	3.30	 	 	 	 	 	 	 	 	 	 	 	 	 	 	 	 	 	 	1581491334	8.36	15.48
12/02/2020 07:08:55	120220	12022020	070855	185.38	12.973000	-57.099933	185.68	0.140	-0.470	2.560	185.41	-1.90	3.00	 	 	 	 	 	 	 	 	 	 	 	 	 	 	 	 	 	 	1581491335	8.61	15.95
12/02/2020 07:08:56	120220	12022020	070856	185.70	12.972962	-57.099940	186.07	0.070	-0.130	1.990	185.82	-1.50	2.50	 	 	 	 	 	 	 	 	 	 	 	 	 	 	 	 	 	 	1581491336	8.31	15.39
12/02/2020 07:08:57	120220	12022020	070857	186.33	12.972927	-57.099943	186.70	-0.210	0.380	1.330	186.46	-1.00	1.80	 	 	 	 	 	 	 	 	 	 	 	 	 	 	 	 	 	 	1581491337	7.52	13.93
12/02/2020 07:08:58	120220	12022020	070858	186.77	12.972893	-57.099948	187.11	-0.320	0.380	0.950	186.83	-1.00	1.40	 	 	 	 	 	 	 	 	 	 	 	 	 	 	 	 	 	 	1581491338	7.15	13.24
12/02/2020 07:08:59	120220	12022020	070859	186.78	12.972858	-57.099953	187.00	0.060	-0.390	1.120	186.78	-1.80	1.60	 	 	 	 	 	 	 	 	 	 	 	 	 	 	 	 	 	 	1581491339	7.63	14.13
12/02/2020 07:09:00	120220	12022020	070900	186.48	12.972820	-57.099962	186.64	0.700	-1.170	1.640	186.41	-2.50	2.10	 	 	 	 	 	 	 	 	 	 	 	 	 	 	 	 	 	 	1581491340	8.60	15.93
12/02/2020 07:09:01	120220	12022020	070901	186.24	12.972780	-57.099968	186.45	0.990	-1.070	2.190	186.22	-2.50	2.60	1015.10	26.20	26.20	20.50	20.50	-1.0	71.0	71.0	407.0	25.9	270.00	10.60	74.00	11.40	17	9636.0	27.3	27.3	1581491341	8.77	16.24
12/02/2020 07:09:02	120220	12022020	070902	186.19	12.972743	-57.099975	186.43	0.620	-0.280	2.600	186.19	-1.70	3.00	 	 	 	 	 	 	 	 	 	 	 	 	 	 	 	 	 	 	1581491342	7.94	14.70
12/02/2020 07:09:03	120220	12022020	070903	186.21	12.972710	-57.099983	186.47	-0.090	0.460	2.810	186.23	-1.00	3.30	 	 	 	 	 	 	 	 	 	 	 	 	 	 	 	 	 	 	1581491343	7.21	13.35
12/02/2020 07:09:04	120220	12022020	070904	186.33	12.972678	-57.099992	186.61	-0.600	0.740	2.800	186.37	-0.70	3.30	 	 	 	 	 	 	 	 	 	 	 	 	 	 	 	 	 	 	1581491344	7.25	13.43
12/02/2020 07:09:05	120220	12022020	070905	186.50	12.972643	-57.100000	186.73	-0.610	0.310	2.560	186.50	-1.10	3.00	 	 	 	 	 	 	 	 	 	 	 	 	 	 	 	 	 	 	1581491345	7.65	14.17
12/02/2020 07:09:06	120220	12022020	070906	186.45	12.972607	-57.100008	186.65	-0.220	-0.670	2.350	186.41	-2.00	2.80	 	 	 	 	 	 	 	 	 	 	 	 	 	 	 	 	 	 	1581491346	8.28	15.33
12/02/2020 07:09:07	120220	12022020	070907	186.23	12.972565	-57.100018	186.41	0.190	-1.390	2.220	186.19	-2.80	2.70	 	 	 	 	 	 	 	 	 	 	 	 	 	 	 	 	 	 	1581491347	8.86	16.41
12/02/2020 07:09:08	120220	12022020	070908	186.06	12.972527	-57.100025	186.27	0.200	-1.190	2.160	186.05	-2.60	2.60	 	 	 	 	 	 	 	 	 	 	 	 	 	 	 	 	 	 	1581491348	8.67	16.06
12/02/2020 07:09:09	120220	12022020	070909	186.09	12.972490	-57.100032	186.35	-0.170	-0.290	2.080	186.13	-1.70	2.60	 	 	 	 	 	 	 	 	 	 	 	 	 	 	 	 	 	 	1581491349	7.80	14.45
12/02/2020 07:09:10	120220	12022020	070910	186.38	12.972458	-57.100038	186.59	-0.520	0.530	1.840	186.38	-0.90	2.30	 	 	 	 	 	 	 	 	 	 	 	 	 	 	 	 	 	 	1581491350	7.10	13.15
12/02/2020 07:09:11	120220	12022020	070911	186.54	12.972425	-57.100047	186.76	-0.380	0.510	1.470	186.55	-0.90	1.90	 	 	 	 	 	 	 	 	 	 	 	 	 	 	 	 	 	 	1581491351	7.20	13.33
12/02/2020 07:09:12	120220	12022020	070912	186.49	12.972388	-57.100052	186.66	0.230	-0.200	1.250	186.49	-1.60	1.70	 	 	 	 	 	 	 	 	 	 	 	 	 	 	 	 	 	 	1581491352	8.07	14.95
12/02/2020 07:09:13	120220	12022020	070913	186.24	12.972348	-57.100057	186.38	0.790	-0.720	1.300	186.19	-2.10	1.80	 	 	 	 	 	 	 	 	 	 	 	 	 	 	 	 	 	 	1581491353	8.81	16.32
12/02/2020 07:09:14	120220	12022020	070914	185.94	12.972308	-57.100060	186.08	0.750	-0.720	1.550	185.88	-2.10	2.00	 	 	 	 	 	 	 	 	 	 	 	 	 	 	 	 	 	 	1581491354	8.62	15.96
12/02/2020 07:09:15	120220	12022020	070915	185.64	12.972270	-57.100065	185.86	0.110	-0.370	2.130	185.64	-1.80	2.60	 	 	 	 	 	 	 	 	 	 	 	 	 	 	 	 	 	 	1581491355	8.09	14.98
12/02/2020 07:09:16	120220	12022020	070916	185.62	12.972235	-57.100073	185.85	-0.640	0.160	2.900	185.62	-1.30	3.30	 	 	 	 	 	 	 	 	 	 	 	 	 	 	 	 	 	 	1581491356	7.82	14.48
12/02/2020 07:09:17	120220	12022020	070917	185.77	12.972202	-57.100087	186.07	-0.960	0.600	3.270	185.82	-0.80	3.70	 	 	 	 	 	 	 	 	 	 	 	 	 	 	 	 	 	 	1581491357	7.81	14.46
12/02/2020 07:09:18	120220	12022020	070918	186.03	12.972168	-57.100100	186.34	-0.670	0.640	3.050	186.08	-0.70	3.50	 	 	 	 	 	 	 	 	 	 	 	 	 	 	 	 	 	 	1581491358	7.81	14.46
12/02/2020 07:09:19	120220	12022020	070919	186.24	12.972132	-57.100110	186.50	0.010	0.190	2.360	186.27	-1.20	2.90	 	 	 	 	 	 	 	 	 	 	 	 	 	 	 	 	 	 	1581491359	7.90	14.63
12/02/2020 07:09:20	120220	12022020	070920	186.28	12.972095	-57.100115	186.47	0.700	-0.580	1.500	186.26	-1.90	2.00	 	 	 	 	 	 	 	 	 	 	 	 	 	 	 	 	 	 	1581491360	8.18	15.15
12/02/2020 07:09:21	120220	12022020	070921	186.14	12.972055	-57.100117	186.28	0.960	-1.160	0.890	186.09	-2.50	1.40	 	 	 	 	 	 	 	 	 	 	 	 	 	 	 	 	 	 	1581491361	8.49	15.72
12/02/2020 07:09:22	120220	12022020	070922	185.91	12.972017	-57.100117	186.04	0.590	-1.260	0.960	185.86	-2.60	1.40	 	 	 	 	 	 	 	 	 	 	 	 	 	 	 	 	 	 	1581491362	8.35	15.46
12/02/2020 07:09:23	120220	12022020	070923	185.66	12.971980	-57.100122	185.80	-0.110	-0.940	1.540	185.61	-2.30	2.00	 	 	 	 	 	 	 	 	 	 	 	 	 	 	 	 	 	 	1581491363	7.90	14.63
12/02/2020 07:09:24	120220	12022020	070924	185.48	12.971945	-57.100132	185.68	-0.590	-0.440	2.100	185.47	-1.80	2.50	 	 	 	 	 	 	 	 	 	 	 	 	 	 	 	 	 	 	1581491364	7.76	14.37
12/02/2020 07:09:25	120220	12022020	070925	185.44	12.971910	-57.100143	185.68	-0.550	-0.050	2.410	185.45	-1.40	2.90	 	 	 	 	 	 	 	 	 	 	 	 	 	 	 	 	 	 	1581491365	7.90	14.63
12/02/2020 07:09:26	120220	12022020	070926	185.54	12.971873	-57.100153	185.78	-0.090	0.220	2.320	185.54	-1.20	2.80	 	 	 	 	 	 	 	 	 	 	 	 	 	 	 	 	 	 	1581491366	8.13	15.06
12/02/2020 07:09:27	120220	12022020	070927	185.82	12.971837	-57.100160	186.13	0.330	0.490	1.790	185.92	-0.90	2.30	 	 	 	 	 	 	 	 	 	 	 	 	 	 	 	 	 	 	1581491367	8.19	15.17
12/02/2020 07:09:28	120220	12022020	070928	186.32	12.971800	-57.100163	186.63	0.300	0.610	1.250	186.42	-0.80	1.70	 	 	 	 	 	 	 	 	 	 	 	 	 	 	 	 	 	 	1581491368	7.98	14.78
12/02/2020 07:09:29	120220	12022020	070929	186.68	12.971763	-57.100163	186.93	-0.140	0.240	1.250	186.71	-1.10	1.70	 	 	 	 	 	 	 	 	 	 	 	 	 	 	 	 	 	 	1581491369	7.88	14.59
12/02/2020 07:09:30	120220	12022020	070930	186.63	12.971725	-57.100168	186.80	-0.550	-0.530	1.900	186.57	-1.90	2.40	 	 	 	 	 	 	 	 	 	 	 	 	 	 	 	 	 	 	1581491370	8.09	14.98
12/02/2020 07:09:31	120220	12022020	070931	186.21	12.971687	-57.100178	186.35	-0.550	-1.260	2.740	186.10	-2.60	3.20	 	 	 	 	 	 	 	 	 	 	 	 	 	 	 	 	 	 	1581491371	8.56	15.85
12/02/2020 07:09:32	120220	12022020	070932	185.65	12.971648	-57.100192	185.78	-0.110	-1.460	3.290	185.53	-2.80	3.70	 	 	 	 	 	 	 	 	 	 	 	 	 	 	 	 	 	 	1581491372	8.78	16.26
12/02/2020 07:09:33	120220	12022020	070933	185.16	12.971610	-57.100203	185.35	0.390	-0.940	3.150	185.09	-2.30	3.60	 	 	 	 	 	 	 	 	 	 	 	 	 	 	 	 	 	 	1581491373	8.42	15.59
12/02/2020 07:09:34	120220	12022020	070934	185.01	12.971575	-57.100210	185.28	0.550	-0.040	2.390	185.02	-1.40	2.90	 	 	 	 	 	 	 	 	 	 	 	 	 	 	 	 	 	 	1581491374	7.71	14.28
12/02/2020 07:09:35	120220	12022020	070935	185.10	12.971542	-57.100212	185.37	0.320	0.490	1.590	185.12	-0.90	2.10	 	 	 	 	 	 	 	 	 	 	 	 	 	 	 	 	 	 	1581491375	7.29	13.50
12/02/2020 07:09:36	120220	12022020	070936	185.23	12.971507	-57.100212	185.51	-0.030	0.340	1.160	185.26	-1.00	1.70	 	 	 	 	 	 	 	 	 	 	 	 	 	 	 	 	 	 	1581491376	7.67	14.20
12/02/2020 07:09:37	120220	12022020	070937	185.46	12.971467	-57.100215	185.80	-0.280	-0.020	1.110	185.53	-1.40	1.60	 	 	 	 	 	 	 	 	 	 	 	 	 	 	 	 	 	 	1581491377	8.34	15.45
12/02/2020 07:09:38	120220	12022020	070938	186.02	12.971428	-57.100223	186.29	-0.360	-0.080	1.200	186.02	-1.40	1.70	 	 	 	 	 	 	 	 	 	 	 	 	 	 	 	 	 	 	1581491378	8.49	15.72
12/02/2020 07:09:39	120220	12022020	070939	186.53	12.971392	-57.100232	186.90	-0.250	0.110	1.140	186.65	-1.30	1.60	 	 	 	 	 	 	 	 	 	 	 	 	 	 	 	 	 	 	1581491379	8.10	15.00
12/02/2020 07:09:40	120220	12022020	070940	187.13	12.971357	-57.100238	187.46	0.030	0.150	0.910	187.23	-1.20	1.40	 	 	 	 	 	 	 	 	 	 	 	 	 	 	 	 	 	 	1581491380	7.66	14.19
12/02/2020 07:09:41	120220	12022020	070941	187.51	12.971322	-57.100243	187.75	0.360	-0.150	0.820	187.54	-1.50	1.30	 	 	 	 	 	 	 	 	 	 	 	 	 	 	 	 	 	 	1581491381	7.68	14.22
12/02/2020 07:09:42	120220	12022020	070942	187.52	12.971285	-57.100247	187.69	0.480	-0.580	1.180	187.47	-1.90	1.60	 	 	 	 	 	 	 	 	 	 	 	 	 	 	 	 	 	 	1581491382	7.95	14.72
12/02/2020 07:09:43	120220	12022020	070943	187.02	12.971247	-57.100253	187.25	0.360	-0.990	1.870	187.02	-2.30	2.30	 	 	 	 	 	 	 	 	 	 	 	 	 	 	 	 	 	 	1581491383	8.08	14.96
12/02/2020 07:09:44	120220	12022020	070944	186.44	12.971210	-57.100262	186.68	0.120	-1.170	2.450	186.44	-2.50	2.90	 	 	 	 	 	 	 	 	 	 	 	 	 	 	 	 	 	 	1581491384	8.25	15.28
12/02/2020 07:09:45	120220	12022020	070945	186.12	12.971173	-57.100272	186.30	-0.040	-1.040	2.710	186.07	-2.40	3.20	 	 	 	 	 	 	 	 	 	 	 	 	 	 	 	 	 	 	1581491385	8.33	15.43
12/02/2020 07:09:46	120220	12022020	070946	185.96	12.971135	-57.100282	186.19	-0.070	-0.560	2.600	185.95	-1.90	3.10	 	 	 	 	 	 	 	 	 	 	 	 	 	 	 	 	 	 	1581491386	8.22	15.22
12/02/2020 07:09:47	120220	12022020	070947	185.98	12.971098	-57.100288	186.23	-0.160	0.080	2.210	186.00	-1.30	2.70	 	 	 	 	 	 	 	 	 	 	 	 	 	 	 	 	 	 	1581491387	7.98	14.78
12/02/2020 07:09:48	120220	12022020	070948	186.16	12.971063	-57.100293	186.44	-0.430	0.590	1.790	186.22	-0.80	2.30	 	 	 	 	 	 	 	 	 	 	 	 	 	 	 	 	 	 	1581491388	7.79	14.43
12/02/2020 07:09:49	120220	12022020	070949	186.43	12.971027	-57.100300	186.70	-0.690	0.580	1.420	186.49	-0.80	1.90	 	 	 	 	 	 	 	 	 	 	 	 	 	 	 	 	 	 	1581491389	7.81	14.46
12/02/2020 07:09:50	120220	12022020	070950	186.80	12.970990	-57.100307	187.09	-0.560	0.310	0.930	186.89	-1.00	1.40	 	 	 	 	 	 	 	 	 	 	 	 	 	 	 	 	 	 	1581491390	8.25	15.28
12/02/2020 07:09:51	120220	12022020	070951	187.36	12.970952	-57.100315	187.65	-0.050	0.160	0.400	187.47	-1.20	0.90	 	 	 	 	 	 	 	 	 	 	 	 	 	 	 	 	 	 	1581491391	8.35	15.46
12/02/2020 07:09:52	120220	12022020	070952	187.77	12.970915	-57.100318	187.96	0.470	-0.220	0.400	187.79	-1.60	0.90	 	 	 	 	 	 	 	 	 	 	 	 	 	 	 	 	 	 	1581491392	7.99	14.80
12/02/2020 07:09:53	120220	12022020	070953	187.54	12.970877	-57.100323	187.72	0.640	-0.910	1.020	187.54	-2.20	1.50	 	 	 	 	 	 	 	 	 	 	 	 	 	 	 	 	 	 	1581491393	8.14	15.08
12/02/2020 07:09:54	120220	12022020	070954	187.04	12.970838	-57.100332	187.11	0.440	-1.300	2.090	186.91	-2.70	2.50	 	 	 	 	 	 	 	 	 	 	 	 	 	 	 	 	 	 	1581491394	8.54	15.82
12/02/2020 07:09:55	120220	12022020	070955	186.42	12.970800	-57.100343	186.55	0.100	-0.790	3.070	186.32	-2.20	3.50	 	 	 	 	 	 	 	 	 	 	 	 	 	 	 	 	 	 	1581491395	8.50	15.74
12/02/2020 07:09:56	120220	12022020	070956	186.01	12.970767	-57.100357	186.18	-0.090	0.220	3.470	185.96	-1.20	3.90	 	 	 	 	 	 	 	 	 	 	 	 	 	 	 	 	 	 	1581491396	7.76	14.37
12/02/2020 07:09:57	120220	12022020	070957	185.83	12.970733	-57.100365	186.04	-0.100	0.730	3.280	185.82	-0.60	3.80	 	 	 	 	 	 	 	 	 	 	 	 	 	 	 	 	 	 	1581491397	7.20	13.33
12/02/2020 07:09:58	120220	12022020	070958	185.86	12.970700	-57.100372	186.11	-0.020	0.420	2.730	185.88	-0.90	3.20	 	 	 	 	 	 	 	 	 	 	 	 	 	 	 	 	 	 	1581491398	7.63	14.13
12/02/2020 07:09:59	120220	12022020	070959	185.97	12.970662	-57.100377	186.21	0.160	-0.260	2.140	185.98	-1.60	2.60	 	 	 	 	 	 	 	 	 	 	 	 	 	 	 	 	 	 	1581491399	8.32	15.41
12/02/2020 07:10:00	120220	12022020	071000	186.01	12.970622	-57.100382	186.26	0.380	-0.800	1.610	186.02	-2.10	2.10	 	 	 	 	 	 	 	 	 	 	 	 	 	 	 	 	 	 	1581491400	8.59	15.91
12/02/2020 07:10:01	120220	12022020	071001	186.12	12.970582	-57.100385	186.36	0.420	-1.020	1.350	186.14	-2.40	1.90	1015.00	26.10	26.20	20.30	20.40	-1.0	70.0	70.0	405.0	25.9	265.00	10.70	71.00	11.90	17	9416.0	27.3	27.3	1581491401	8.42	15.59
12/02/2020 07:10:02	120220	12022020	071002	186.21	12.970545	-57.100388	186.46	0.120	-0.860	1.550	186.22	-2.20	2.00	 	 	 	 	 	 	 	 	 	 	 	 	 	 	 	 	 	 	1581491402	8.08	14.96
12/02/2020 07:10:03	120220	12022020	071003	186.22	12.970510	-57.100397	186.43	-0.370	-0.520	2.040	186.20	-1.90	2.50	 	 	 	 	 	 	 	 	 	 	 	 	 	 	 	 	 	 	1581491403	7.77	14.39
12/02/2020 07:10:04	120220	12022020	071004	185.98	12.970475	-57.100407	186.22	-0.720	-0.310	2.680	185.98	-1.70	3.10	 	 	 	 	 	 	 	 	 	 	 	 	 	 	 	 	 	 	1581491404	7.78	14.41
12/02/2020 07:10:05	120220	12022020	071005	185.70	12.970438	-57.100420	185.88	-0.650	-0.350	3.280	185.63	-1.70	3.70	 	 	 	 	 	 	 	 	 	 	 	 	 	 	 	 	 	 	1581491405	8.18	15.15
12/02/2020 07:10:06	120220	12022020	071006	185.48	12.970400	-57.100432	185.75	-0.250	-0.210	3.390	185.49	-1.60	3.90	 	 	 	 	 	 	 	 	 	 	 	 	 	 	 	 	 	 	1581491406	8.66	16.04
12/02/2020 07:10:07	120220	12022020	071007	185.75	12.970362	-57.100442	186.11	0.120	0.450	2.710	185.86	-0.90	3.20	 	 	 	 	 	 	 	 	 	 	 	 	 	 	 	 	 	 	1581491407	8.41	15.58
12/02/2020 07:10:08	120220	12022020	071008	186.37	12.970327	-57.100443	186.74	0.270	1.020	1.640	186.50	-0.40	2.20	 	 	 	 	 	 	 	 	 	 	 	 	 	 	 	 	 	 	1581491408	7.59	14.06
12/02/2020 07:10:09	120220	12022020	071009	186.85	12.970293	-57.100443	187.10	0.370	0.740	0.900	186.89	-0.60	1.40	 	 	 	 	 	 	 	 	 	 	 	 	 	 	 	 	 	 	1581491409	7.39	13.69
12/02/2020 07:10:10	120220	12022020	071010	186.85	12.970255	-57.100443	187.02	0.560	-0.260	0.890	186.81	-1.60	1.40	 	 	 	 	 	 	 	 	 	 	 	 	 	 	 	 	 	 	1581491410	8.03	14.87
12/02/2020 07:10:11	120220	12022020	071011	186.68	12.970215	-57.100447	186.87	0.560	-1.050	1.380	186.65	-2.40	1.80	 	 	 	 	 	 	 	 	 	 	 	 	 	 	 	 	 	 	1581491411	8.67	16.06
12/02/2020 07:10:12	120220	12022020	071012	186.47	12.970177	-57.100453	186.65	0.210	-1.230	2.260	186.42	-2.60	2.70	 	 	 	 	 	 	 	 	 	 	 	 	 	 	 	 	 	 	1581491412	8.41	15.58
12/02/2020 07:10:13	120220	12022020	071013	186.20	12.970142	-57.100465	186.39	-0.270	-0.960	3.060	186.14	-2.30	3.50	 	 	 	 	 	 	 	 	 	 	 	 	 	 	 	 	 	 	1581491413	7.99	14.80
12/02/2020 07:10:14	120220	12022020	071014	185.96	12.970107	-57.100478	186.20	-0.560	-0.550	3.270	185.94	-1.90	3.70	 	 	 	 	 	 	 	 	 	 	 	 	 	 	 	 	 	 	1581491414	7.82	14.48
12/02/2020 07:10:15	120220	12022020	071015	185.97	12.970073	-57.100490	186.28	-0.560	-0.200	2.870	186.02	-1.60	3.40	 	 	 	 	 	 	 	 	 	 	 	 	 	 	 	 	 	 	1581491415	7.78	14.41
12/02/2020 07:10:16	120220	12022020	071016	186.27	12.970038	-57.100498	186.57	-0.340	0.030	2.030	186.33	-1.30	2.60	 	 	 	 	 	 	 	 	 	 	 	 	 	 	 	 	 	 	1581491416	7.81	14.46
12/02/2020 07:10:17	120220	12022020	071017	186.50	12.970002	-57.100503	186.74	-0.070	-0.090	1.220	186.51	-1.40	1.70	 	 	 	 	 	 	 	 	 	 	 	 	 	 	 	 	 	 	1581491417	7.83	14.50
12/02/2020 07:10:18	120220	12022020	071018	186.46	12.969963	-57.100507	186.65	0.190	-0.440	0.890	186.44	-1.80	1.40	 	 	 	 	 	 	 	 	 	 	 	 	 	 	 	 	 	 	1581491418	8.25	15.28
12/02/2020 07:10:19	120220	12022020	071019	186.39	12.969923	-57.100510	186.59	0.290	-0.410	1.050	186.38	-1.80	1.50	 	 	 	 	 	 	 	 	 	 	 	 	 	 	 	 	 	 	1581491419	8.55	15.83
12/02/2020 07:10:20	120220	12022020	071020	186.40	12.969887	-57.100517	186.60	0.260	0.160	1.310	186.41	-1.20	1.80	 	 	 	 	 	 	 	 	 	 	 	 	 	 	 	 	 	 	1581491420	8.14	15.08
12/02/2020 07:10:21	120220	12022020	071021	186.45	12.969852	-57.100522	186.68	0.210	0.610	1.360	186.47	-0.80	1.90	 	 	 	 	 	 	 	 	 	 	 	 	 	 	 	 	 	 	1581491421	7.53	13.95
12/02/2020 07:10:22	120220	12022020	071022	186.61	12.969817	-57.100527	186.87	0.140	0.390	1.400	186.65	-1.00	1.90	 	 	 	 	 	 	 	 	 	 	 	 	 	 	 	 	 	 	1581491422	7.58	14.04
12/02/2020 07:10:23	120220	12022020	071023	186.81	12.969778	-57.100530	187.06	-0.040	-0.400	1.710	186.83	-1.70	2.20	 	 	 	 	 	 	 	 	 	 	 	 	 	 	 	 	 	 	1581491423	8.14	15.08
12/02/2020 07:10:24	120220	12022020	071024	186.76	12.969740	-57.100538	186.95	-0.310	-1.150	2.500	186.71	-2.50	2.90	 	 	 	 	 	 	 	 	 	 	 	 	 	 	 	 	 	 	1581491424	8.63	15.98
12/02/2020 07:10:25	120220	12022020	071025	186.35	12.969702	-57.100552	186.47	-0.530	-1.370	3.390	186.22	-2.70	3.80	 	 	 	 	 	 	 	 	 	 	 	 	 	 	 	 	 	 	1581491425	8.72	16.15
12/02/2020 07:10:26	120220	12022020	071026	185.70	12.969665	-57.100567	185.83	-0.490	-1.080	3.840	185.58	-2.40	4.30	 	 	 	 	 	 	 	 	 	 	 	 	 	 	 	 	 	 	1581491426	8.41	15.58
12/02/2020 07:10:27	120220	12022020	071027	185.23	12.969630	-57.100578	185.44	-0.280	-0.470	3.660	185.18	-1.90	4.20	 	 	 	 	 	 	 	 	 	 	 	 	 	 	 	 	 	 	1581491427	8.06	14.93
12/02/2020 07:10:28	120220	12022020	071028	185.13	12.969593	-57.100587	185.41	-0.050	0.250	2.950	185.16	-1.10	3.50	 	 	 	 	 	 	 	 	 	 	 	 	 	 	 	 	 	 	1581491428	7.82	14.48
12/02/2020 07:10:29	120220	12022020	071029	185.42	12.969558	-57.100590	185.76	0.100	0.800	1.860	185.51	-0.60	2.40	 	 	 	 	 	 	 	 	 	 	 	 	 	 	 	 	 	 	1581491429	7.66	14.19
12/02/2020 07:10:30	120220	12022020	071030	185.95	12.969523	-57.100592	186.29	0.270	0.890	0.810	186.06	-0.50	1.40	 	 	 	 	 	 	 	 	 	 	 	 	 	 	 	 	 	 	1581491430	7.69	14.24
12/02/2020 07:10:31	120220	12022020	071031	186.44	12.969485	-57.100590	186.74	0.550	0.420	0.170	186.53	-0.90	0.70	 	 	 	 	 	 	 	 	 	 	 	 	 	 	 	 	 	 	1581491431	7.95	14.72
12/02/2020 07:10:32	120220	12022020	071032	186.79	12.969447	-57.100590	187.05	0.760	-0.320	0.090	186.83	-1.70	0.60	 	 	 	 	 	 	 	 	 	 	 	 	 	 	 	 	 	 	1581491432	8.34	15.45
12/02/2020 07:10:33	120220	12022020	071033	186.92	12.969408	-57.100593	187.15	0.620	-0.940	0.630	186.91	-2.30	1.10	 	 	 	 	 	 	 	 	 	 	 	 	 	 	 	 	 	 	1581491433	8.42	15.59
12/02/2020 07:10:34	120220	12022020	071034	186.76	12.969370	-57.100598	186.96	0.160	-1.310	1.650	186.71	-2.70	2.10	 	 	 	 	 	 	 	 	 	 	 	 	 	 	 	 	 	 	1581491434	8.24	15.26
12/02/2020 07:10:35	120220	12022020	071035	186.46	12.969333	-57.100610	186.64	-0.400	-1.320	2.720	186.38	-2.70	3.20	 	 	 	 	 	 	 	 	 	 	 	 	 	 	 	 	 	 	1581491435	8.21	15.20
12/02/2020 07:10:36	120220	12022020	071036	186.13	12.969297	-57.100623	186.23	-0.790	-1.060	3.570	186.04	-2.40	4.00	 	 	 	 	 	 	 	 	 	 	 	 	 	 	 	 	 	 	1581491436	8.20	15.19
12/02/2020 07:10:37	120220	12022020	071037	185.66	12.969262	-57.100637	185.91	-0.920	-0.650	3.870	185.63	-2.00	4.40	 	 	 	 	 	 	 	 	 	 	 	 	 	 	 	 	 	 	1581491437	8.30	15.37
12/02/2020 07:10:38	120220	12022020	071038	185.74	12.969225	-57.100648	186.10	-0.850	0.030	3.310	185.83	-1.40	3.80	 	 	 	 	 	 	 	 	 	 	 	 	 	 	 	 	 	 	1581491438	8.38	15.52
12/02/2020 07:10:39	120220	12022020	071039	186.40	12.969188	-57.100658	186.83	-0.620	0.870	2.160	186.58	-0.50	2.70	 	 	 	 	 	 	 	 	 	 	 	 	 	 	 	 	 	 	1581491439	7.99	14.80
12/02/2020 07:10:40	120220	12022020	071040	187.28	12.969153	-57.100663	187.65	-0.140	1.320	0.870	187.42	-0.10	1.40	 	 	 	 	 	 	 	 	 	 	 	 	 	 	 	 	 	 	1581491440	7.51	13.91
12/02/2020 07:10:41	120220	12022020	071041	187.91	12.969118	-57.100663	188.18	0.620	0.920	-0.240	187.99	-0.40	0.30	 	 	 	 	 	 	 	 	 	 	 	 	 	 	 	 	 	 	1581491441	7.67	14.20
12/02/2020 07:10:42	120220	12022020	071042	188.19	12.969078	-57.100660	188.39	1.200	-0.050	-0.610	188.20	-1.40	-0.10	 	 	 	 	 	 	 	 	 	 	 	 	 	 	 	 	 	 	1581491442	8.46	15.67
12/02/2020 07:10:43	120220	12022020	071043	188.15	12.969038	-57.100660	188.33	1.130	-0.930	-0.210	188.13	-2.30	0.30	 	 	 	 	 	 	 	 	 	 	 	 	 	 	 	 	 	 	1581491443	8.77	16.24
12/02/2020 07:10:44	120220	12022020	071044	188.01	12.968998	-57.100663	188.19	0.450	-1.250	0.620	187.97	-2.60	1.10	 	 	 	 	 	 	 	 	 	 	 	 	 	 	 	 	 	 	1581491444	8.42	15.59
12/02/2020 07:10:45	120220	12022020	071045	187.75	12.968963	-57.100673	187.90	-0.310	-1.340	1.800	187.66	-2.70	2.20	 	 	 	 	 	 	 	 	 	 	 	 	 	 	 	 	 	 	1581491445	7.91	14.65
12/02/2020 07:10:46	120220	12022020	071046	187.23	12.968928	-57.100688	187.37	-0.600	-1.430	3.000	187.11	-2.80	3.40	 	 	 	 	 	 	 	 	 	 	 	 	 	 	 	 	 	 	1581491446	8.15	15.09
12/02/2020 07:10:47	120220	12022020	071047	186.66	12.968892	-57.100705	186.84	-0.490	-1.200	3.670	186.57	-2.60	4.10	 	 	 	 	 	 	 	 	 	 	 	 	 	 	 	 	 	 	1581491447	8.64	16.00
12/02/2020 07:10:48	120220	12022020	071048	186.33	12.968853	-57.100718	186.59	-0.380	-0.490	3.610	186.33	-1.90	4.10	 	 	 	 	 	 	 	 	 	 	 	 	 	 	 	 	 	 	1581491448	8.51	15.76
12/02/2020 07:10:49	120220	12022020	071049	186.48	12.968818	-57.100728	186.78	-0.490	0.430	2.800	186.56	-1.00	3.30	 	 	 	 	 	 	 	 	 	 	 	 	 	 	 	 	 	 	1581491449	8.09	14.98
12/02/2020 07:10:50	120220	12022020	071050	186.87	12.968782	-57.100733	187.31	-0.650	1.160	1.750	186.98	-0.20	2.30	 	 	 	 	 	 	 	 	 	 	 	 	 	 	 	 	 	 	1581491450	7.71	14.28
12/02/2020 07:10:51	120220	12022020	071051	187.55	12.968747	-57.100738	187.85	-0.500	1.280	0.920	187.65	-0.10	1.40	 	 	 	 	 	 	 	 	 	 	 	 	 	 	 	 	 	 	1581491451	7.66	14.19
12/02/2020 07:10:52	120220	12022020	071052	187.92	12.968710	-57.100743	188.23	0.020	0.790	0.380	188.00	-0.60	0.90	 	 	 	 	 	 	 	 	 	 	 	 	 	 	 	 	 	 	1581491452	8.01	14.83
12/02/2020 07:10:53	120220	12022020	071053	188.29	12.968672	-57.100747	188.47	0.630	0.070	0.180	188.32	-1.30	0.70	 	 	 	 	 	 	 	 	 	 	 	 	 	 	 	 	 	 	1581491453	8.38	15.52
12/02/2020 07:10:54	120220	12022020	071054	188.30	12.968633	-57.100752	188.45	0.970	-0.610	0.360	188.27	-2.00	0.90	 	 	 	 	 	 	 	 	 	 	 	 	 	 	 	 	 	 	1581491454	8.36	15.48
12/02/2020 07:10:55	120220	12022020	071055	188.13	12.968595	-57.100757	188.28	0.950	-1.040	0.680	188.09	-2.40	1.20	 	 	 	 	 	 	 	 	 	 	 	 	 	 	 	 	 	 	1581491455	8.20	15.19
12/02/2020 07:10:56	120220	12022020	071056	187.98	12.968558	-57.100762	188.14	0.680	-1.090	1.010	187.94	-2.50	1.50	 	 	 	 	 	 	 	 	 	 	 	 	 	 	 	 	 	 	1581491456	7.98	14.78
12/02/2020 07:10:57	120220	12022020	071057	187.76	12.968523	-57.100768	187.91	0.380	-1.030	1.540	187.70	-2.40	2.00	 	 	 	 	 	 	 	 	 	 	 	 	 	 	 	 	 	 	1581491457	7.72	14.30
12/02/2020 07:10:58	120220	12022020	071058	187.44	12.968487	-57.100777	187.59	0.100	-1.160	2.270	187.37	-2.50	2.70	 	 	 	 	 	 	 	 	 	 	 	 	 	 	 	 	 	 	1581491458	7.87	14.58
12/02/2020 07:10:59	120220	12022020	071059	187.10	12.968448	-57.100785	187.26	-0.290	-1.280	3.100	187.03	-2.60	3.50	 	 	 	 	 	 	 	 	 	 	 	 	 	 	 	 	 	 	1581491459	8.44	15.63
12/02/2020 07:11:00	120220	12022020	071100	186.82	12.968410	-57.100798	187.02	-0.800	-0.930	3.810	186.78	-2.30	4.30	 	 	 	 	 	 	 	 	 	 	 	 	 	 	 	 	 	 	1581491460	8.83	16.35
12/02/2020 07:11:01	120220	12022020	071101	186.71	12.968372	-57.100813	186.97	-1.230	-0.000	4.040	186.72	-1.40	4.50	1014.90	26.20	26.30	20.80	20.80	-1.0	72.0	71.0	406.0	25.9	265.00	9.80	70.00	10.90	17	9427.0	27.3	27.3	1581491461	8.66	16.04
12/02/2020 07:11:02	120220	12022020	071102	186.86	12.968337	-57.100828	187.16	-1.270	1.100	3.710	186.92	-0.30	4.20	 	 	 	 	 	 	 	 	 	 	 	 	 	 	 	 	 	 	1581491462	8.09	14.98
12/02/2020 07:11:03	120220	12022020	071103	187.16	12.968303	-57.100838	187.42	-0.750	1.610	2.940	187.22	0.20	3.40	 	 	 	 	 	 	 	 	 	 	 	 	 	 	 	 	 	 	1581491463	7.63	14.13
12/02/2020 07:11:04	120220	12022020	071104	187.42	12.968268	-57.100845	187.66	0.160	1.220	1.950	187.47	-0.10	2.50	 	 	 	 	 	 	 	 	 	 	 	 	 	 	 	 	 	 	1581491464	7.88	14.59
12/02/2020 07:11:05	120220	12022020	071105	187.69	12.968228	-57.100848	187.91	1.010	0.330	0.940	187.76	-1.00	1.50	 	 	 	 	 	 	 	 	 	 	 	 	 	 	 	 	 	 	1581491465	8.54	15.82
12/02/2020 07:11:06	120220	12022020	071106	188.06	12.968187	-57.100848	188.28	1.380	-0.490	0.220	188.14	-1.80	0.70	 	 	 	 	 	 	 	 	 	 	 	 	 	 	 	 	 	 	1581491466	8.83	16.35
12/02/2020 07:11:07	120220	12022020	071107	188.42	12.968148	-57.100847	188.63	1.140	-0.980	0.280	188.48	-2.40	0.80	 	 	 	 	 	 	 	 	 	 	 	 	 	 	 	 	 	 	1581491467	8.47	15.69
12/02/2020 07:11:08	120220	12022020	071108	188.63	12.968112	-57.100852	188.84	0.540	-1.230	1.070	188.65	-2.60	1.50	 	 	 	 	 	 	 	 	 	 	 	 	 	 	 	 	 	 	1581491468	7.88	14.59
12/02/2020 07:11:09	120220	12022020	071109	188.64	12.968077	-57.100862	188.83	0.010	-1.300	2.080	188.61	-2.70	2.50	 	 	 	 	 	 	 	 	 	 	 	 	 	 	 	 	 	 	1581491469	7.70	14.26
12/02/2020 07:11:10	120220	12022020	071110	188.36	12.968043	-57.100875	188.48	-0.160	-1.320	3.040	188.25	-2.70	3.50	 	 	 	 	 	 	 	 	 	 	 	 	 	 	 	 	 	 	1581491470	7.85	14.54
12/02/2020 07:11:11	120220	12022020	071111	187.75	12.968007	-57.100887	187.86	-0.090	-1.290	3.830	187.61	-2.70	4.30	 	 	 	 	 	 	 	 	 	 	 	 	 	 	 	 	 	 	1581491471	8.18	15.15
12/02/2020 07:11:12	120220	12022020	071112	187.15	12.967968	-57.100898	187.32	-0.130	-0.920	4.130	187.06	-2.30	4.60	 	 	 	 	 	 	 	 	 	 	 	 	 	 	 	 	 	 	1581491472	8.56	15.85
12/02/2020 07:11:13	120220	12022020	071113	186.90	12.967930	-57.100908	187.18	-0.460	-0.060	3.900	186.91	-1.50	4.40	 	 	 	 	 	 	 	 	 	 	 	 	 	 	 	 	 	 	1581491473	8.51	15.76
12/02/2020 07:11:14	120220	12022020	071114	187.05	12.967893	-57.100917	187.48	-0.890	1.010	3.170	187.14	-0.40	3.70	 	 	 	 	 	 	 	 	 	 	 	 	 	 	 	 	 	 	1581491474	8.08	14.96
12/02/2020 07:11:15	120220	12022020	071115	187.75	12.967858	-57.100925	188.11	-1.090	1.720	2.260	187.90	0.30	2.80	 	 	 	 	 	 	 	 	 	 	 	 	 	 	 	 	 	 	1581491475	7.64	14.15
12/02/2020 07:11:16	120220	12022020	071116	188.47	12.967823	-57.100932	188.79	-0.790	1.570	1.390	188.60	0.20	1.90	 	 	 	 	 	 	 	 	 	 	 	 	 	 	 	 	 	 	1581491476	7.66	14.19
12/02/2020 07:11:17	120220	12022020	071117	189.07	12.967787	-57.100940	189.33	-0.010	0.730	0.610	189.16	-0.60	1.10	 	 	 	 	 	 	 	 	 	 	 	 	 	 	 	 	 	 	1581491477	8.15	15.09
12/02/2020 07:11:18	120220	12022020	071118	189.45	12.967748	-57.100947	189.64	0.960	-0.320	0.060	189.48	-1.70	0.60	 	 	 	 	 	 	 	 	 	 	 	 	 	 	 	 	 	 	1581491478	8.48	15.70
12/02/2020 07:11:19	120220	12022020	071119	189.48	12.967708	-57.100952	189.59	1.640	-1.280	-0.120	189.44	-2.60	0.40	 	 	 	 	 	 	 	 	 	 	 	 	 	 	 	 	 	 	1581491479	8.47	15.69
12/02/2020 07:11:20	120220	12022020	071120	189.18	12.967670	-57.100953	189.26	1.600	-1.850	0.260	189.10	-3.20	0.70	 	 	 	 	 	 	 	 	 	 	 	 	 	 	 	 	 	 	1581491480	8.40	15.56
12/02/2020 07:11:21	120220	12022020	071121	188.73	12.967632	-57.100958	188.82	0.860	-1.680	1.040	188.64	-3.10	1.50	 	 	 	 	 	 	 	 	 	 	 	 	 	 	 	 	 	 	1581491481	8.16	15.11
12/02/2020 07:11:22	120220	12022020	071122	188.38	12.967597	-57.100967	188.54	-0.160	-0.820	1.930	188.35	-2.20	2.40	 	 	 	 	 	 	 	 	 	 	 	 	 	 	 	 	 	 	1581491482	7.72	14.30
12/02/2020 07:11:23	120220	12022020	071123	188.32	12.967565	-57.100978	188.53	-1.000	-0.050	2.650	188.33	-1.40	3.10	 	 	 	 	 	 	 	 	 	 	 	 	 	 	 	 	 	 	1581491483	7.39	13.69
12/02/2020 07:11:24	120220	12022020	071124	188.28	12.967532	-57.100992	188.47	-1.330	-0.020	3.250	188.26	-1.40	3.70	 	 	 	 	 	 	 	 	 	 	 	 	 	 	 	 	 	 	1581491484	7.81	14.46
12/02/2020 07:11:25	120220	12022020	071125	188.15	12.967493	-57.101008	188.37	-1.120	-0.340	3.620	188.14	-1.70	4.10	 	 	 	 	 	 	 	 	 	 	 	 	 	 	 	 	 	 	1581491485	8.89	16.46
12/02/2020 07:11:26	120220	12022020	071126	188.12	12.967453	-57.101025	188.37	-0.620	-0.200	3.410	188.13	-1.60	3.90	 	 	 	 	 	 	 	 	 	 	 	 	 	 	 	 	 	 	1581491486	9.29	17.21
12/02/2020 07:11:27	120220	12022020	071127	188.18	12.967415	-57.101037	188.42	-0.140	0.440	2.790	188.19	-1.00	3.30	 	 	 	 	 	 	 	 	 	 	 	 	 	 	 	 	 	 	1581491487	8.54	15.82
12/02/2020 07:11:28	120220	12022020	071128	188.19	12.967380	-57.101043	188.36	0.250	0.910	2.060	188.17	-0.50	2.60	 	 	 	 	 	 	 	 	 	 	 	 	 	 	 	 	 	 	1581491488	7.70	14.26
12/02/2020 07:11:29	120220	12022020	071129	188.05	12.967345	-57.101047	188.21	0.530	0.800	1.380	188.02	-0.60	1.90	 	 	 	 	 	 	 	 	 	 	 	 	 	 	 	 	 	 	1581491489	7.68	14.22
12/02/2020 07:11:30	120220	12022020	071130	187.97	12.967307	-57.101050	188.17	0.600	0.340	0.990	187.98	-1.00	1.50	 	 	 	 	 	 	 	 	 	 	 	 	 	 	 	 	 	 	1581491490	8.07	14.95
12/02/2020 07:11:31	120220	12022020	071131	188.07	12.967268	-57.101053	188.28	0.460	-0.240	1.100	188.09	-1.60	1.60	 	 	 	 	 	 	 	 	 	 	 	 	 	 	 	 	 	 	1581491491	8.16	15.11
12/02/2020 07:11:32	120220	12022020	071132	188.24	12.967232	-57.101062	188.46	0.360	-0.810	1.440	188.26	-2.20	1.90	 	 	 	 	 	 	 	 	 	 	 	 	 	 	 	 	 	 	1581491492	8.10	15.00
12/02/2020 07:11:33	120220	12022020	071133	188.35	12.967197	-57.101073	188.59	0.470	-1.270	1.710	188.38	-2.70	2.20	 	 	 	 	 	 	 	 	 	 	 	 	 	 	 	 	 	 	1581491493	8.12	15.04
12/02/2020 07:11:34	120220	12022020	071134	188.58	12.967160	-57.101083	188.84	0.560	-1.380	1.890	188.63	-2.80	2.40	 	 	 	 	 	 	 	 	 	 	 	 	 	 	 	 	 	 	1581491494	8.17	15.13
12/02/2020 07:11:35	120220	12022020	071135	188.74	12.967123	-57.101092	188.95	0.350	-1.050	2.110	188.74	-2.50	2.60	 	 	 	 	 	 	 	 	 	 	 	 	 	 	 	 	 	 	1581491495	7.90	14.63
12/02/2020 07:11:36	120220	12022020	071136	188.60	12.967090	-57.101100	188.74	-0.060	-0.600	2.510	188.53	-2.00	3.00	 	 	 	 	 	 	 	 	 	 	 	 	 	 	 	 	 	 	1581491496	7.62	14.11
12/02/2020 07:11:37	120220	12022020	071137	188.17	12.967055	-57.101110	188.29	-0.480	-0.330	3.050	188.06	-1.70	3.50	 	 	 	 	 	 	 	 	 	 	 	 	 	 	 	 	 	 	1581491497	7.76	14.37
12/02/2020 07:11:38	120220	12022020	071138	187.59	12.967018	-57.101120	187.70	-0.690	-0.210	3.680	187.47	-1.60	4.10	 	 	 	 	 	 	 	 	 	 	 	 	 	 	 	 	 	 	1581491498	8.25	15.28
12/02/2020 07:11:39	120220	12022020	071139	187.11	12.966980	-57.101135	187.30	-0.650	0.060	3.970	187.07	-1.40	4.40	 	 	 	 	 	 	 	 	 	 	 	 	 	 	 	 	 	 	1581491499	8.70	16.11
12/02/2020 07:11:40	120220	12022020	071140	187.07	12.966942	-57.101147	187.43	-0.520	0.660	3.520	187.13	-0.80	4.00	 	 	 	 	 	 	 	 	 	 	 	 	 	 	 	 	 	 	1581491500	8.57	15.87
12/02/2020 07:11:41	120220	12022020	071141	187.85	12.966905	-57.101155	188.24	-0.400	1.230	2.410	188.05	-0.20	2.90	 	 	 	 	 	 	 	 	 	 	 	 	 	 	 	 	 	 	1581491501	7.89	14.61
12/02/2020 07:11:42	120220	12022020	071142	188.71	12.966872	-57.101160	189.23	-0.200	1.160	1.200	188.91	-0.20	1.70	 	 	 	 	 	 	 	 	 	 	 	 	 	 	 	 	 	 	1581491502	7.38	13.67
12/02/2020 07:11:43	120220	12022020	071143	189.49	12.966837	-57.101163	189.65	0.230	0.030	0.540	189.51	-1.30	1.00	 	 	 	 	 	 	 	 	 	 	 	 	 	 	 	 	 	 	1581491503	7.60	14.08
12/02/2020 07:11:44	120220	12022020	071144	189.25	12.966797	-57.101168	189.30	0.800	-1.570	0.810	189.13	-2.90	1.30	 	 	 	 	 	 	 	 	 	 	 	 	 	 	 	 	 	 	1581491504	8.52	15.78
12/02/2020 07:11:45	120220	12022020	071145	188.59	12.966755	-57.101178	188.65	1.050	-2.260	1.620	188.46	-3.70	2.10	 	 	 	 	 	 	 	 	 	 	 	 	 	 	 	 	 	 	1581491505	9.11	16.87
12/02/2020 07:11:46	120220	12022020	071146	188.03	12.966718	-57.101188	188.16	0.720	-1.350	2.300	187.96	-2.80	2.80	 	 	 	 	 	 	 	 	 	 	 	 	 	 	 	 	 	 	1581491506	8.43	15.61
12/02/2020 07:11:47	120220	12022020	071147	187.86	12.966687	-57.101198	188.08	0.050	0.230	2.550	187.88	-1.20	3.00	 	 	 	 	 	 	 	 	 	 	 	 	 	 	 	 	 	 	1581491507	7.05	13.06
12/02/2020 07:11:48	120220	12022020	071148	188.03	12.966658	-57.101207	188.29	-0.480	1.040	2.490	188.08	-0.40	3.00	 	 	 	 	 	 	 	 	 	 	 	 	 	 	 	 	 	 	1581491508	6.46	11.96
12/02/2020 07:11:49	120220	12022020	071149	188.25	12.966625	-57.101217	188.48	-0.530	0.660	2.300	188.28	-0.70	2.80	 	 	 	 	 	 	 	 	 	 	 	 	 	 	 	 	 	 	1581491509	7.27	13.46
12/02/2020 07:11:50	120220	12022020	071150	188.37	12.966587	-57.101225	188.60	-0.320	-0.200	2.220	188.39	-1.60	2.70	 	 	 	 	 	 	 	 	 	 	 	 	 	 	 	 	 	 	1581491510	8.47	15.69
12/02/2020 07:11:51	120220	12022020	071151	188.46	12.966547	-57.101235	188.69	-0.190	-0.810	2.330	188.47	-2.20	2.80	 	 	 	 	 	 	 	 	 	 	 	 	 	 	 	 	 	 	1581491511	8.90	16.48
12/02/2020 07:11:52	120220	12022020	071152	188.41	12.966508	-57.101245	188.59	-0.180	-0.940	2.560	188.37	-2.40	3.00	 	 	 	 	 	 	 	 	 	 	 	 	 	 	 	 	 	 	1581491512	8.53	15.80
12/02/2020 07:11:53	120220	12022020	071153	188.06	12.966472	-57.101257	188.17	-0.110	-0.870	2.760	187.95	-2.30	3.20	 	 	 	 	 	 	 	 	 	 	 	 	 	 	 	 	 	 	1581491513	8.07	14.95
12/02/2020 07:11:54	120220	12022020	071154	187.45	12.966437	-57.101267	187.55	0.110	-0.660	2.750	187.32	-2.10	3.20	 	 	 	 	 	 	 	 	 	 	 	 	 	 	 	 	 	 	1581491514	7.99	14.80
12/02/2020 07:11:55	120220	12022020	071155	186.97	12.966400	-57.101273	187.14	0.200	-0.120	2.410	186.93	-1.60	2.90	 	 	 	 	 	 	 	 	 	 	 	 	 	 	 	 	 	 	1581491515	8.00	14.82
12/02/2020 07:11:56	120220	12022020	071156	186.98	12.966365	-57.101277	187.22	-0.060	0.570	1.780	187.03	-0.90	2.30	 	 	 	 	 	 	 	 	 	 	 	 	 	 	 	 	 	 	1581491516	7.69	14.24
12/02/2020 07:11:57	120220	12022020	071157	187.29	12.966330	-57.101282	187.53	-0.420	0.730	1.220	187.35	-0.70	1.70	 	 	 	 	 	 	 	 	 	 	 	 	 	 	 	 	 	 	1581491517	7.35	13.61
12/02/2020 07:11:58	120220	12022020	071158	187.50	12.966295	-57.101288	187.70	-0.380	0.130	1.220	187.52	-1.20	1.70	 	 	 	 	 	 	 	 	 	 	 	 	 	 	 	 	 	 	1581491518	7.77	14.39
12/02/2020 07:11:59	120220	12022020	071159	187.57	12.966257	-57.101298	187.77	0.130	-0.480	1.420	187.58	-1.90	1.90	 	 	 	 	 	 	 	 	 	 	 	 	 	 	 	 	 	 	1581491519	8.55	15.83
12/02/2020 07:12:00	120220	12022020	071200	187.71	12.966218	-57.101308	187.96	0.630	-0.430	1.510	187.76	-1.90	2.00	 	 	 	 	 	 	 	 	 	 	 	 	 	 	 	 	 	 	1581491520	8.54	15.82
12/02/2020 07:12:01	120220	12022020	071201	187.96	12.966183	-57.101315	188.20	0.660	0.000	1.550	187.99	-1.40	2.00	1015.00	26.20	26.20	20.70	20.80	-1.0	72.0	72.0	406.0	25.9	270.00	10.40	76.00	11.30	17	8998.0	27.3	27.3	1581491521	7.68	14.22
12/02/2020 07:12:02	120220	12022020	071202	188.01	12.966150	-57.101320	188.18	0.250	0.030	1.750	187.98	-1.40	2.20	 	 	 	 	 	 	 	 	 	 	 	 	 	 	 	 	 	 	1581491522	7.15	13.24
12/02/2020 07:12:03	120220	12022020	071203	187.68	12.966115	-57.101328	187.78	-0.170	-0.550	2.380	187.56	-1.90	2.80	 	 	 	 	 	 	 	 	 	 	 	 	 	 	 	 	 	 	1581491523	7.56	14.00
12/02/2020 07:12:04	120220	12022020	071204	187.22	12.966078	-57.101338	187.24	-0.330	-1.080	2.990	187.10	-2.50	3.40	 	 	 	 	 	 	 	 	 	 	 	 	 	 	 	 	 	 	1581491524	8.38	15.52
12/02/2020 07:12:05	120220	12022020	071205	186.65	12.966040	-57.101352	186.83	-0.270	-0.960	3.240	186.59	-2.40	3.70	 	 	 	 	 	 	 	 	 	 	 	 	 	 	 	 	 	 	1581491525	8.53	15.80
12/02/2020 07:12:06	120220	12022020	071206	186.38	12.966005	-57.101362	186.58	-0.140	-0.520	3.020	186.34	-1.90	3.50	 	 	 	 	 	 	 	 	 	 	 	 	 	 	 	 	 	 	1581491526	7.93	14.69
12/02/2020 07:12:07	120220	12022020	071207	186.18	12.965970	-57.101370	186.35	0.000	-0.330	2.410	186.14	-1.70	2.90	 	 	 	 	 	 	 	 	 	 	 	 	 	 	 	 	 	 	1581491527	7.64	14.15
12/02/2020 07:12:08	120220	12022020	071208	186.03	12.965933	-57.101375	186.23	0.110	-0.300	1.750	186.03	-1.70	2.30	 	 	 	 	 	 	 	 	 	 	 	 	 	 	 	 	 	 	1581491528	8.02	14.85
12/02/2020 07:12:09	120220	12022020	071209	186.15	12.965895	-57.101378	186.40	0.140	-0.010	1.150	186.21	-1.40	1.70	 	 	 	 	 	 	 	 	 	 	 	 	 	 	 	 	 	 	1581491529	8.24	15.26
12/02/2020 07:12:10	120220	12022020	071210	186.55	12.965858	-57.101382	186.82	0.020	0.400	0.800	186.64	-1.00	1.30	 	 	 	 	 	 	 	 	 	 	 	 	 	 	 	 	 	 	1581491530	7.88	14.59
12/02/2020 07:12:11	120220	12022020	071211	186.92	12.965823	-57.101385	187.16	-0.190	0.450	0.980	186.97	-0.90	1.40	 	 	 	 	 	 	 	 	 	 	 	 	 	 	 	 	 	 	1581491531	7.59	14.06
12/02/2020 07:12:12	120220	12022020	071212	187.02	12.965788	-57.101393	187.23	-0.350	0.090	1.670	187.01	-1.30	2.10	 	 	 	 	 	 	 	 	 	 	 	 	 	 	 	 	 	 	1581491532	7.87	14.58
12/02/2020 07:12:13	120220	12022020	071213	186.85	12.965752	-57.101403	187.03	-0.370	-0.270	2.630	186.80	-1.70	3.10	 	 	 	 	 	 	 	 	 	 	 	 	 	 	 	 	 	 	1581491533	8.26	15.30
12/02/2020 07:12:14	120220	12022020	071214	186.61	12.965715	-57.101417	186.82	-0.260	-0.360	3.130	186.59	-1.80	3.60	 	 	 	 	 	 	 	 	 	 	 	 	 	 	 	 	 	 	1581491534	8.29	15.35
12/02/2020 07:12:15	120220	12022020	071215	186.53	12.965680	-57.101428	186.78	-0.080	-0.340	2.970	186.53	-1.70	3.40	 	 	 	 	 	 	 	 	 	 	 	 	 	 	 	 	 	 	1581491535	7.94	14.70
12/02/2020 07:12:16	120220	12022020	071216	186.51	12.965645	-57.101437	186.70	0.260	-0.480	2.380	186.48	-1.90	2.90	 	 	 	 	 	 	 	 	 	 	 	 	 	 	 	 	 	 	1581491536	7.71	14.28
12/02/2020 07:12:17	120220	12022020	071217	186.24	12.965608	-57.101442	186.37	0.760	-0.780	1.730	186.15	-2.20	2.20	 	 	 	 	 	 	 	 	 	 	 	 	 	 	 	 	 	 	1581491537	7.86	14.56
12/02/2020 07:12:18	120220	12022020	071218	185.92	12.965570	-57.101442	186.03	0.960	-0.830	1.240	185.86	-2.20	1.70	 	 	 	 	 	 	 	 	 	 	 	 	 	 	 	 	 	 	1581491538	8.26	15.30
12/02/2020 07:12:19	120220	12022020	071219	185.73	12.965532	-57.101442	185.96	0.520	-0.470	1.190	185.74	-1.90	1.70	 	 	 	 	 	 	 	 	 	 	 	 	 	 	 	 	 	 	1581491539	8.16	15.11
12/02/2020 07:12:20	120220	12022020	071220	185.91	12.965497	-57.101445	186.20	-0.370	0.060	1.700	185.97	-1.40	2.10	 	 	 	 	 	 	 	 	 	 	 	 	 	 	 	 	 	 	1581491540	7.70	14.26
12/02/2020 07:12:21	120220	12022020	071221	186.30	12.965462	-57.101455	186.62	-1.140	0.440	2.470	186.37	-1.00	2.90	 	 	 	 	 	 	 	 	 	 	 	 	 	 	 	 	 	 	1581491541	7.57	14.02
12/02/2020 07:12:22	120220	12022020	071222	186.65	12.965428	-57.101470	186.95	-1.250	0.400	3.090	186.69	-1.00	3.50	 	 	 	 	 	 	 	 	 	 	 	 	 	 	 	 	 	 	1581491542	7.84	14.52
12/02/2020 07:12:23	120220	12022020	071223	186.80	12.965395	-57.101487	187.07	-0.610	-0.030	3.180	186.81	-1.40	3.70	 	 	 	 	 	 	 	 	 	 	 	 	 	 	 	 	 	 	1581491543	8.23	15.24
12/02/2020 07:12:24	120220	12022020	071224	186.88	12.965357	-57.101500	187.13	0.360	-0.450	2.610	186.90	-1.80	3.10	 	 	 	 	 	 	 	 	 	 	 	 	 	 	 	 	 	 	1581491544	8.41	15.58
12/02/2020 07:12:25	120220	12022020	071225	186.92	12.965318	-57.101503	187.13	1.020	-0.750	1.750	186.91	-2.10	2.30	 	 	 	 	 	 	 	 	 	 	 	 	 	 	 	 	 	 	1581491545	8.23	15.24
12/02/2020 07:12:26	120220	12022020	071226	186.74	12.965282	-57.101503	186.87	1.040	-1.010	1.340	186.67	-2.40	1.80	 	 	 	 	 	 	 	 	 	 	 	 	 	 	 	 	 	 	1581491546	8.20	15.19
12/02/2020 07:12:27	120220	12022020	071227	186.33	12.965242	-57.101503	186.45	0.440	-0.960	1.610	186.25	-2.40	2.10	 	 	 	 	 	 	 	 	 	 	 	 	 	 	 	 	 	 	1581491547	8.34	15.45
12/02/2020 07:12:28	120220	12022020	071228	186.09	12.965205	-57.101508	186.29	-0.430	-0.320	2.290	186.08	-1.70	2.70	 	 	 	 	 	 	 	 	 	 	 	 	 	 	 	 	 	 	1581491548	8.14	15.08
12/02/2020 07:12:29	120220	12022020	071229	186.22	12.965170	-57.101518	186.51	-1.150	0.640	2.860	186.29	-0.80	3.30	 	 	 	 	 	 	 	 	 	 	 	 	 	 	 	 	 	 	1581491549	7.69	14.24
12/02/2020 07:12:30	120220	12022020	071230	186.52	12.965138	-57.101533	186.87	-1.230	1.110	2.890	186.58	-0.30	3.40	 	 	 	 	 	 	 	 	 	 	 	 	 	 	 	 	 	 	1581491550	7.43	13.76
12/02/2020 07:12:31	120220	12022020	071231	186.84	12.965107	-57.101547	187.08	-0.550	0.650	2.450	186.87	-0.70	2.90	 	 	 	 	 	 	 	 	 	 	 	 	 	 	 	 	 	 	1581491551	7.68	14.22
12/02/2020 07:12:32	120220	12022020	071232	186.88	12.965068	-57.101555	187.07	0.470	-0.180	1.920	186.88	-1.50	2.40	 	 	 	 	 	 	 	 	 	 	 	 	 	 	 	 	 	 	1581491552	8.36	15.48
12/02/2020 07:12:33	120220	12022020	071233	186.83	12.965028	-57.101560	187.02	1.150	-0.660	1.370	186.83	-2.00	1.90	 	 	 	 	 	 	 	 	 	 	 	 	 	 	 	 	 	 	1581491553	8.59	15.91
12/02/2020 07:12:34	120220	12022020	071234	186.87	12.964990	-57.101562	187.06	1.100	-0.680	0.890	186.88	-2.10	1.40	 	 	 	 	 	 	 	 	 	 	 	 	 	 	 	 	 	 	1581491554	8.15	15.09
12/02/2020 07:12:35	120220	12022020	071235	186.85	12.964955	-57.101562	187.01	0.500	-0.700	1.060	186.81	-2.10	1.50	 	 	 	 	 	 	 	 	 	 	 	 	 	 	 	 	 	 	1581491555	7.63	14.13
12/02/2020 07:12:36	120220	12022020	071236	186.54	12.964920	-57.101567	186.69	-0.140	-0.910	1.910	186.45	-2.30	2.30	 	 	 	 	 	 	 	 	 	 	 	 	 	 	 	 	 	 	1581491556	7.65	14.17
12/02/2020 07:12:37	120220	12022020	071237	186.04	12.964883	-57.101578	186.18	-0.500	-0.970	2.850	185.93	-2.30	3.30	 	 	 	 	 	 	 	 	 	 	 	 	 	 	 	 	 	 	1581491557	8.20	15.19
12/02/2020 07:12:38	120220	12022020	071238	185.55	12.964847	-57.101593	185.73	-0.600	-0.660	3.420	185.48	-2.00	3.90	 	 	 	 	 	 	 	 	 	 	 	 	 	 	 	 	 	 	1581491558	8.39	15.54
12/02/2020 07:12:39	120220	12022020	071239	185.37	12.964812	-57.101605	185.61	-0.580	-0.150	3.380	185.37	-1.50	3.90	 	 	 	 	 	 	 	 	 	 	 	 	 	 	 	 	 	 	1581491559	8.17	15.13
12/02/2020 07:12:40	120220	12022020	071240	185.52	12.964775	-57.101615	185.79	-0.490	0.260	2.880	185.57	-1.10	3.40	 	 	 	 	 	 	 	 	 	 	 	 	 	 	 	 	 	 	1581491560	7.91	14.65
12/02/2020 07:12:41	120220	12022020	071241	185.73	12.964740	-57.101623	185.98	-0.220	0.310	2.280	185.75	-1.10	2.80	 	 	 	 	 	 	 	 	 	 	 	 	 	 	 	 	 	 	1581491561	7.88	14.59
12/02/2020 07:12:42	120220	12022020	071242	185.90	12.964702	-57.101627	186.16	0.170	0.250	1.600	185.95	-1.10	2.10	 	 	 	 	 	 	 	 	 	 	 	 	 	 	 	 	 	 	1581491562	8.15	15.09
12/02/2020 07:12:43	120220	12022020	071243	186.25	12.964665	-57.101628	186.55	0.340	0.390	0.980	186.34	-1.00	1.50	 	 	 	 	 	 	 	 	 	 	 	 	 	 	 	 	 	 	1581491563	8.17	15.13
12/02/2020 07:12:44	120220	12022020	071244	186.65	12.964628	-57.101630	186.91	0.180	0.360	0.800	186.70	-1.00	1.30	 	 	 	 	 	 	 	 	 	 	 	 	 	 	 	 	 	 	1581491564	7.71	14.28
12/02/2020 07:12:45	120220	12022020	071245	186.66	12.964593	-57.101633	186.83	-0.050	-0.260	1.290	186.60	-1.60	1.70	 	 	 	 	 	 	 	 	 	 	 	 	 	 	 	 	 	 	1581491565	7.60	14.08
12/02/2020 07:12:46	120220	12022020	071246	186.16	12.964557	-57.101642	186.29	-0.020	-1.120	2.270	186.03	-2.50	2.70	 	 	 	 	 	 	 	 	 	 	 	 	 	 	 	 	 	 	1581491566	8.22	15.22
12/02/2020 07:12:47	120220	12022020	071247	185.43	12.964517	-57.101655	185.58	0.270	-1.490	3.170	185.29	-2.90	3.60	 	 	 	 	 	 	 	 	 	 	 	 	 	 	 	 	 	 	1581491567	8.73	16.17
12/02/2020 07:12:48	120220	12022020	071248	184.85	12.964480	-57.101667	185.06	0.510	-1.000	3.480	184.79	-2.40	4.00	 	 	 	 	 	 	 	 	 	 	 	 	 	 	 	 	 	 	1581491568	8.50	15.74
12/02/2020 07:12:49	120220	12022020	071249	184.79	12.964445	-57.101675	185.10	0.470	0.010	3.070	184.85	-1.40	3.60	 	 	 	 	 	 	 	 	 	 	 	 	 	 	 	 	 	 	1581491569	7.71	14.28
12/02/2020 07:12:50	120220	12022020	071250	185.19	12.964412	-57.101680	185.53	0.190	0.780	2.250	185.30	-0.60	2.80	 	 	 	 	 	 	 	 	 	 	 	 	 	 	 	 	 	 	1581491570	7.03	13.02
12/02/2020 07:12:51	120220	12022020	071251	185.66	12.964378	-57.101682	185.97	-0.150	0.600	1.540	185.73	-0.70	2.00	 	 	 	 	 	 	 	 	 	 	 	 	 	 	 	 	 	 	1581491571	7.17	13.28
12/02/2020 07:12:52	120220	12022020	071252	185.84	12.964342	-57.101683	186.08	-0.420	-0.340	1.480	185.84	-1.70	2.00	 	 	 	 	 	 	 	 	 	 	 	 	 	 	 	 	 	 	1581491572	8.05	14.91
12/02/2020 07:12:53	120220	12022020	071253	185.79	12.964302	-57.101690	186.02	-0.610	-1.100	1.950	185.77	-2.50	2.40	 	 	 	 	 	 	 	 	 	 	 	 	 	 	 	 	 	 	1581491573	8.84	16.37
12/02/2020 07:12:54	120220	12022020	071254	185.76	12.964262	-57.101703	186.01	-0.640	-0.880	2.270	185.76	-2.30	2.70	 	 	 	 	 	 	 	 	 	 	 	 	 	 	 	 	 	 	1581491574	8.79	16.28
12/02/2020 07:12:55	120220	12022020	071255	185.81	12.964228	-57.101715	186.06	-0.380	-0.090	2.210	185.82	-1.50	2.70	 	 	 	 	 	 	 	 	 	 	 	 	 	 	 	 	 	 	1581491575	7.78	14.41
12/02/2020 07:12:56	120220	12022020	071256	185.79	12.964195	-57.101722	186.00	0.210	0.240	1.880	185.77	-1.10	2.40	 	 	 	 	 	 	 	 	 	 	 	 	 	 	 	 	 	 	1581491576	7.11	13.17
12/02/2020 07:12:57	120220	12022020	071257	185.70	12.964160	-57.101725	185.93	0.810	-0.070	1.400	185.70	-1.40	1.90	 	 	 	 	 	 	 	 	 	 	 	 	 	 	 	 	 	 	1581491577	7.66	14.19
12/02/2020 07:12:58	120220	12022020	071258	185.73	12.964122	-57.101727	185.97	0.970	-0.510	1.180	185.74	-1.90	1.70	 	 	 	 	 	 	 	 	 	 	 	 	 	 	 	 	 	 	1581491578	8.42	15.59
12/02/2020 07:12:59	120220	12022020	071259	185.75	12.964082	-57.101727	185.98	0.580	-0.720	1.480	185.74	-2.10	1.90	 	 	 	 	 	 	 	 	 	 	 	 	 	 	 	 	 	 	1581491579	8.46	15.67
12/02/2020 07:13:00	120220	12022020	071300	185.59	12.964043	-57.101733	185.81	-0.050	-0.610	2.050	185.55	-2.00	2.50	 	 	 	 	 	 	 	 	 	 	 	 	 	 	 	 	 	 	1581491580	8.17	15.13
12/02/2020 07:13:01	120220	12022020	071301	185.43	12.964008	-57.101742	185.70	-0.640	-0.220	2.690	185.43	-1.60	3.10	1014.80	26.10	26.20	20.60	20.70	-1.0	71.0	71.0	405.0	25.9	274.00	10.40	78.00	10.90	17	9473.0	27.3	27.3	1581491581	7.96	14.74
12/02/2020 07:13:02	120220	12022020	071302	185.48	12.963973	-57.101752	185.79	-1.020	0.190	3.170	185.52	-1.20	3.60	 	 	 	 	 	 	 	 	 	 	 	 	 	 	 	 	 	 	1581491582	7.80	14.45
12/02/2020 07:13:03	120220	12022020	071303	185.66	12.963938	-57.101763	185.97	-1.070	0.200	3.180	185.70	-1.20	3.60	 	 	 	 	 	 	 	 	 	 	 	 	 	 	 	 	 	 	1581491583	7.87	14.58
12/02/2020 07:13:04	120220	12022020	071304	185.87	12.963902	-57.101775	186.17	-0.670	-0.160	2.820	185.91	-1.50	3.30	 	 	 	 	 	 	 	 	 	 	 	 	 	 	 	 	 	 	1581491584	8.21	15.20
12/02/2020 07:13:05	120220	12022020	071305	186.04	12.963863	-57.101787	186.31	0.120	-0.440	2.220	186.06	-1.80	2.70	 	 	 	 	 	 	 	 	 	 	 	 	 	 	 	 	 	 	1581491585	8.50	15.74
12/02/2020 07:13:06	120220	12022020	071306	186.09	12.963825	-57.101792	186.33	0.830	-0.270	1.540	186.09	-1.70	2.00	 	 	 	 	 	 	 	 	 	 	 	 	 	 	 	 	 	 	1581491586	8.33	15.43
12/02/2020 07:13:07	120220	12022020	071307	186.10	12.963788	-57.101792	186.34	0.960	0.170	0.880	186.10	-1.20	1.40	 	 	 	 	 	 	 	 	 	 	 	 	 	 	 	 	 	 	1581491587	7.85	14.54
12/02/2020 07:13:08	120220	12022020	071308	186.09	12.963755	-57.101792	186.32	0.610	0.440	0.530	186.09	-0.90	1.00	 	 	 	 	 	 	 	 	 	 	 	 	 	 	 	 	 	 	1581491588	7.45	13.80
12/02/2020 07:13:09	120220	12022020	071309	186.18	12.963720	-57.101793	186.45	0.280	0.370	0.490	186.22	-1.00	1.00	 	 	 	 	 	 	 	 	 	 	 	 	 	 	 	 	 	 	1581491589	7.43	13.76
12/02/2020 07:13:10	120220	12022020	071310	186.48	12.963685	-57.101798	186.78	0.240	-0.090	0.590	186.55	-1.40	1.00	 	 	 	 	 	 	 	 	 	 	 	 	 	 	 	 	 	 	1581491590	7.68	14.22
12/02/2020 07:13:11	120220	12022020	071311	186.78	12.963648	-57.101805	187.06	0.290	-0.940	1.090	186.80	-2.30	1.50	 	 	 	 	 	 	 	 	 	 	 	 	 	 	 	 	 	 	1581491591	8.04	14.89
12/02/2020 07:13:12	120220	12022020	071312	186.75	12.963608	-57.101813	186.97	0.130	-1.750	2.210	186.69	-3.10	2.60	 	 	 	 	 	 	 	 	 	 	 	 	 	 	 	 	 	 	1581491592	8.50	15.74
12/02/2020 07:13:13	120220	12022020	071313	186.20	12.963570	-57.101827	186.34	-0.240	-1.990	3.590	186.02	-3.30	4.00	 	 	 	 	 	 	 	 	 	 	 	 	 	 	 	 	 	 	1581491593	8.73	16.17
12/02/2020 07:13:14	120220	12022020	071314	185.21	12.963533	-57.101842	185.33	-0.570	-1.550	4.690	185.02	-2.90	5.10	 	 	 	 	 	 	 	 	 	 	 	 	 	 	 	 	 	 	1581491594	8.64	16.00
12/02/2020 07:13:15	120220	12022020	071315	184.48	12.963497	-57.101857	184.72	-0.780	-0.390	4.990	184.42	-1.80	5.40	 	 	 	 	 	 	 	 	 	 	 	 	 	 	 	 	 	 	1581491595	8.44	15.63
12/02/2020 07:13:16	120220	12022020	071316	184.52	12.963463	-57.101868	184.89	-0.820	0.960	4.300	184.62	-0.40	4.80	 	 	 	 	 	 	 	 	 	 	 	 	 	 	 	 	 	 	1581491596	7.80	14.45
12/02/2020 07:13:17	120220	12022020	071317	185.16	12.963430	-57.101875	185.55	-0.600	1.680	2.810	185.32	0.30	3.30	 	 	 	 	 	 	 	 	 	 	 	 	 	 	 	 	 	 	1581491597	7.28	13.48
12/02/2020 07:13:18	120220	12022020	071318	185.85	12.963393	-57.101877	186.16	-0.060	1.280	1.340	185.95	-0.10	1.90	 	 	 	 	 	 	 	 	 	 	 	 	 	 	 	 	 	 	1581491598	7.61	14.09
12/02/2020 07:13:19	120220	12022020	071319	186.22	12.963355	-57.101875	186.46	0.550	0.240	0.570	186.25	-1.10	1.10	 	 	 	 	 	 	 	 	 	 	 	 	 	 	 	 	 	 	1581491599	8.53	15.80
12/02/2020 07:13:20	120220	12022020	071320	186.27	12.963313	-57.101875	186.44	0.920	-0.630	0.540	186.26	-2.00	1.00	 	 	 	 	 	 	 	 	 	 	 	 	 	 	 	 	 	 	1581491600	8.91	16.50
12/02/2020 07:13:21	120220	12022020	071321	186.01	12.963273	-57.101878	186.19	0.890	-0.920	0.970	185.96	-2.30	1.40	 	 	 	 	 	 	 	 	 	 	 	 	 	 	 	 	 	 	1581491601	8.51	15.76
12/02/2020 07:13:22	120220	12022020	071322	185.81	12.963238	-57.101883	186.05	0.520	-0.680	1.600	185.80	-2.10	2.00	 	 	 	 	 	 	 	 	 	 	 	 	 	 	 	 	 	 	1581491602	7.83	14.50
12/02/2020 07:13:23	120220	12022020	071323	185.83	12.963205	-57.101890	186.11	0.020	-0.330	2.250	185.85	-1.70	2.70	 	 	 	 	 	 	 	 	 	 	 	 	 	 	 	 	 	 	1581491603	7.31	13.54
12/02/2020 07:13:24	120220	12022020	071324	185.87	12.963172	-57.101900	186.14	-0.340	-0.290	2.810	185.86	-1.60	3.20	 	 	 	 	 	 	 	 	 	 	 	 	 	 	 	 	 	 	1581491604	7.31	13.54
12/02/2020 07:13:25	120220	12022020	071325	185.69	12.963138	-57.101912	185.90	-0.420	-0.640	3.340	185.61	-2.00	3.80	 	 	 	 	 	 	 	 	 	 	 	 	 	 	 	 	 	 	1581491605	7.76	14.37
12/02/2020 07:13:26	120220	12022020	071326	185.29	12.963100	-57.101925	185.49	-0.230	-1.000	3.660	185.21	-2.30	4.10	 	 	 	 	 	 	 	 	 	 	 	 	 	 	 	 	 	 	1581491606	8.40	15.56
12/02/2020 07:13:27	120220	12022020	071327	185.04	12.963062	-57.101937	185.31	0.040	-0.770	3.340	185.04	-2.10	3.80	 	 	 	 	 	 	 	 	 	 	 	 	 	 	 	 	 	 	1581491607	8.57	15.87
12/02/2020 07:13:28	120220	12022020	071328	185.18	12.963025	-57.101942	185.47	0.180	-0.110	2.390	185.23	-1.50	2.90	 	 	 	 	 	 	 	 	 	 	 	 	 	 	 	 	 	 	1581491608	7.93	14.69
12/02/2020 07:13:29	120220	12022020	071329	185.44	12.962992	-57.101943	185.70	0.140	0.230	1.440	185.48	-1.10	1.90	 	 	 	 	 	 	 	 	 	 	 	 	 	 	 	 	 	 	1581491609	7.48	13.85
12/02/2020 07:13:30	120220	12022020	071330	185.64	12.962955	-57.101943	185.88	0.040	-0.020	0.970	185.67	-1.40	1.40	 	 	 	 	 	 	 	 	 	 	 	 	 	 	 	 	 	 	1581491610	7.86	14.56
12/02/2020 07:13:31	120220	12022020	071331	185.77	12.962915	-57.101945	186.02	-0.070	-0.340	0.870	185.80	-1.70	1.30	 	 	 	 	 	 	 	 	 	 	 	 	 	 	 	 	 	 	1581491611	8.47	15.69
12/02/2020 07:13:32	120220	12022020	071332	185.87	12.962877	-57.101950	186.13	-0.220	-0.280	1.140	185.90	-1.70	1.60	 	 	 	 	 	 	 	 	 	 	 	 	 	 	 	 	 	 	1581491612	8.51	15.76
12/02/2020 07:13:33	120220	12022020	071333	186.01	12.962840	-57.101958	186.29	-0.330	0.140	1.620	186.04	-1.20	2.00	 	 	 	 	 	 	 	 	 	 	 	 	 	 	 	 	 	 	1581491613	8.04	14.89
12/02/2020 07:13:34	120220	12022020	071334	186.08	12.962805	-57.101967	186.31	-0.260	0.470	1.960	186.07	-0.90	2.40	 	 	 	 	 	 	 	 	 	 	 	 	 	 	 	 	 	 	1581491614	7.55	13.98
12/02/2020 07:13:35	120220	12022020	071335	185.93	12.962772	-57.101975	186.13	0.010	0.340	2.190	185.88	-1.00	2.60	 	 	 	 	 	 	 	 	 	 	 	 	 	 	 	 	 	 	1581491615	7.52	13.93
12/02/2020 07:13:36	120220	12022020	071336	185.71	12.962735	-57.101982	185.94	0.340	-0.140	2.280	185.68	-1.50	2.70	 	 	 	 	 	 	 	 	 	 	 	 	 	 	 	 	 	 	1581491616	7.92	14.67
12/02/2020 07:13:37	120220	12022020	071337	185.59	12.962697	-57.101987	185.82	0.520	-0.600	2.130	185.57	-1.90	2.60	 	 	 	 	 	 	 	 	 	 	 	 	 	 	 	 	 	 	1581491617	8.20	15.19
12/02/2020 07:13:38	120220	12022020	071338	185.47	12.962660	-57.101992	185.69	0.420	-0.900	2.040	185.44	-2.30	2.50	 	 	 	 	 	 	 	 	 	 	 	 	 	 	 	 	 	 	1581491618	8.15	15.09
12/02/2020 07:13:39	120220	12022020	071339	185.34	12.962622	-57.101997	185.56	0.080	-0.970	2.210	185.31	-2.30	2.60	 	 	 	 	 	 	 	 	 	 	 	 	 	 	 	 	 	 	1581491619	8.06	14.93
12/02/2020 07:13:40	120220	12022020	071340	185.17	12.962587	-57.102005	185.39	-0.260	-0.900	2.570	185.13	-2.30	3.00	 	 	 	 	 	 	 	 	 	 	 	 	 	 	 	 	 	 	1581491620	7.99	14.80
12/02/2020 07:13:41	120220	12022020	071341	184.94	12.962550	-57.102015	185.15	-0.320	-0.800	2.750	184.89	-2.20	3.20	 	 	 	 	 	 	 	 	 	 	 	 	 	 	 	 	 	 	1581491621	8.09	14.98
12/02/2020 07:13:42	120220	12022020	071342	184.75	12.962513	-57.102025	184.98	-0.100	-0.520	2.560	184.73	-1.90	3.00	 	 	 	 	 	 	 	 	 	 	 	 	 	 	 	 	 	 	1581491622	8.25	15.28
12/02/2020 07:13:43	120220	12022020	071343	184.84	12.962475	-57.102032	185.13	-0.010	0.200	2.100	184.91	-1.20	2.60	 	 	 	 	 	 	 	 	 	 	 	 	 	 	 	 	 	 	1581491623	8.13	15.06
12/02/2020 07:13:44	120220	12022020	071344	185.21	12.962440	-57.102033	185.68	-0.250	0.970	1.570	185.34	-0.40	2.00	 	 	 	 	 	 	 	 	 	 	 	 	 	 	 	 	 	 	1581491624	7.61	14.09
12/02/2020 07:13:45	120220	12022020	071345	186.08	12.962407	-57.102037	186.29	-0.530	1.180	1.230	186.08	-0.20	1.70	 	 	 	 	 	 	 	 	 	 	 	 	 	 	 	 	 	 	1581491625	7.27	13.46
12/02/2020 07:13:46	120220	12022020	071346	186.40	12.962372	-57.102042	186.66	-0.360	0.570	1.200	186.44	-0.80	1.70	 	 	 	 	 	 	 	 	 	 	 	 	 	 	 	 	 	 	1581491626	7.58	14.04
12/02/2020 07:13:47	120220	12022020	071347	186.43	12.962333	-57.102047	186.61	0.320	-0.670	1.410	186.38	-2.00	1.90	 	 	 	 	 	 	 	 	 	 	 	 	 	 	 	 	 	 	1581491627	8.25	15.28
12/02/2020 07:13:48	120220	12022020	071348	186.04	12.962292	-57.102053	186.20	0.950	-1.720	1.940	185.96	-3.10	2.40	 	 	 	 	 	 	 	 	 	 	 	 	 	 	 	 	 	 	1581491628	8.96	16.59
12/02/2020 07:13:49	120220	12022020	071349	185.70	12.962252	-57.102058	185.91	0.940	-1.660	2.450	185.68	-3.00	2.90	 	 	 	 	 	 	 	 	 	 	 	 	 	 	 	 	 	 	1581491629	8.93	16.54
12/02/2020 07:13:50	120220	12022020	071350	185.66	12.962215	-57.102065	185.91	0.240	-0.640	2.770	185.67	-2.10	3.20	 	 	 	 	 	 	 	 	 	 	 	 	 	 	 	 	 	 	1581491630	7.85	14.54
12/02/2020 07:13:51	120220	12022020	071351	185.70	12.962183	-57.102072	185.95	-0.540	0.300	2.890	185.71	-1.10	3.30	 	 	 	 	 	 	 	 	 	 	 	 	 	 	 	 	 	 	1581491631	6.94	12.85
12/02/2020 07:13:52	120220	12022020	071352	185.80	12.962152	-57.102080	186.05	-0.830	0.460	2.710	185.82	-0.90	3.20	 	 	 	 	 	 	 	 	 	 	 	 	 	 	 	 	 	 	1581491632	7.19	13.32
12/02/2020 07:13:53	120220	12022020	071353	185.88	12.962115	-57.102088	186.11	-0.620	0.030	2.490	185.88	-1.30	2.90	 	 	 	 	 	 	 	 	 	 	 	 	 	 	 	 	 	 	1581491633	8.05	14.91
12/02/2020 07:13:54	120220	12022020	071354	185.85	12.962075	-57.102097	186.07	-0.270	-0.340	2.310	185.85	-1.70	2.80	 	 	 	 	 	 	 	 	 	 	 	 	 	 	 	 	 	 	1581491634	8.67	16.06
12/02/2020 07:13:55	120220	12022020	071355	186.01	12.962037	-57.102105	186.30	-0.130	-0.100	1.840	186.09	-1.50	2.30	 	 	 	 	 	 	 	 	 	 	 	 	 	 	 	 	 	 	1581491635	8.56	15.85
12/02/2020 07:13:56	120220	12022020	071356	186.55	12.962000	-57.102110	186.88	-0.150	0.430	1.230	186.68	-0.90	1.70	 	 	 	 	 	 	 	 	 	 	 	 	 	 	 	 	 	 	1581491636	7.74	14.33
12/02/2020 07:13:57	120220	12022020	071357	187.10	12.961967	-57.102113	187.35	0.050	0.330	0.820	187.14	-1.00	1.30	 	 	 	 	 	 	 	 	 	 	 	 	 	 	 	 	 	 	1581491637	7.19	13.32
12/02/2020 07:13:58	120220	12022020	071358	187.03	12.961932	-57.102118	187.18	0.680	-0.610	0.980	186.95	-1.90	1.40	 	 	 	 	 	 	 	 	 	 	 	 	 	 	 	 	 	 	1581491638	7.83	14.50
12/02/2020 07:13:59	120220	12022020	071359	186.69	12.961890	-57.102123	186.91	1.060	-1.060	1.370	186.68	-2.40	1.80	 	 	 	 	 	 	 	 	 	 	 	 	 	 	 	 	 	 	1581491639	8.88	16.45
12/02/2020 07:14:00	120220	12022020	071400	186.88	12.961852	-57.102128	187.21	0.630	-0.280	1.610	186.98	-1.70	2.10	 	 	 	 	 	 	 	 	 	 	 	 	 	 	 	 	 	 	1581491640	8.38	15.52
12/02/2020 07:14:01	120220	12022020	071401	187.42	12.961820	-57.102135	187.73	-0.240	0.550	1.730	187.50	-0.80	2.20	1014.90	26.20	26.20	20.60	20.60	-1.0	71.0	71.0	408.0	25.9	270.00	9.90	73.00	10.70	16	9461.0	27.3	27.3	1581491641	6.90	12.78
12/02/2020 07:14:02	120220	12022020	071402	187.64	12.961790	-57.102143	187.87	-0.650	0.100	2.100	187.63	-1.20	2.50	 	 	 	 	 	 	 	 	 	 	 	 	 	 	 	 	 	 	1581491642	6.72	12.45
12/02/2020 07:14:03	120220	12022020	071403	187.49	12.961753	-57.102155	187.70	-0.330	-1.150	2.570	187.44	-2.40	3.00	 	 	 	 	 	 	 	 	 	 	 	 	 	 	 	 	 	 	1581491643	8.24	15.26
12/02/2020 07:14:04	120220	12022020	071404	187.19	12.961712	-57.102165	187.40	0.180	-1.820	2.930	187.14	-3.20	3.40	 	 	 	 	 	 	 	 	 	 	 	 	 	 	 	 	 	 	1581491644	9.33	17.28
12/02/2020 07:14:05	120220	12022020	071405	187.02	12.961670	-57.102177	187.27	0.240	-1.240	2.870	187.02	-2.60	3.30	 	 	 	 	 	 	 	 	 	 	 	 	 	 	 	 	 	 	1581491645	8.94	16.56
12/02/2020 07:14:06	120220	12022020	071406	187.10	12.961635	-57.102183	187.40	-0.260	0.080	2.450	187.15	-1.30	2.90	 	 	 	 	 	 	 	 	 	 	 	 	 	 	 	 	 	 	1581491646	7.72	14.30
12/02/2020 07:14:07	120220	12022020	071407	187.41	12.961603	-57.102188	187.65	-0.870	1.090	2.030	187.41	-0.30	2.50	 	 	 	 	 	 	 	 	 	 	 	 	 	 	 	 	 	 	1581491647	6.96	12.89
12/02/2020 07:14:08	120220	12022020	071408	187.58	12.961572	-57.102195	187.83	-0.990	1.200	1.730	187.60	-0.10	2.20	 	 	 	 	 	 	 	 	 	 	 	 	 	 	 	 	 	 	1581491648	7.18	13.30
12/02/2020 07:14:09	120220	12022020	071409	187.62	12.961535	-57.102203	187.83	-0.420	0.500	1.490	187.60	-0.80	2.00	 	 	 	 	 	 	 	 	 	 	 	 	 	 	 	 	 	 	1581491649	8.01	14.83
12/02/2020 07:14:10	120220	12022020	071410	187.53	12.961495	-57.102212	187.70	0.420	-0.350	1.300	187.50	-1.70	1.80	 	 	 	 	 	 	 	 	 	 	 	 	 	 	 	 	 	 	1581491650	8.74	16.19
12/02/2020 07:14:11	120220	12022020	071411	187.35	12.961455	-57.102218	187.55	0.960	-0.720	1.240	187.32	-2.10	1.70	 	 	 	 	 	 	 	 	 	 	 	 	 	 	 	 	 	 	1581491651	8.76	16.22
12/02/2020 07:14:12	120220	12022020	071412	187.30	12.961417	-57.102225	187.55	0.930	-0.480	1.140	187.31	-1.90	1.60	 	 	 	 	 	 	 	 	 	 	 	 	 	 	 	 	 	 	1581491652	8.11	15.02
12/02/2020 07:14:13	120220	12022020	071413	187.36	12.961383	-57.102228	187.60	0.540	-0.220	1.140	187.36	-1.60	1.60	 	 	 	 	 	 	 	 	 	 	 	 	 	 	 	 	 	 	1581491653	7.38	13.67
12/02/2020 07:14:14	120220	12022020	071414	187.27	12.961350	-57.102233	187.49	0.170	-0.420	1.550	187.24	-1.80	2.00	 	 	 	 	 	 	 	 	 	 	 	 	 	 	 	 	 	 	1581491654	7.36	13.63
12/02/2020 07:14:15	120220	12022020	071415	187.14	12.961313	-57.102243	187.38	-0.060	-0.790	2.130	187.12	-2.10	2.60	 	 	 	 	 	 	 	 	 	 	 	 	 	 	 	 	 	 	1581491655	8.04	14.89
12/02/2020 07:14:16	120220	12022020	071416	187.13	12.961275	-57.102253	187.40	-0.250	-0.780	2.540	187.14	-2.10	3.00	 	 	 	 	 	 	 	 	 	 	 	 	 	 	 	 	 	 	1581491656	8.41	15.58
12/02/2020 07:14:17	120220	12022020	071417	187.23	12.961240	-57.102265	187.51	-0.450	-0.390	2.700	187.26	-1.80	3.10	 	 	 	 	 	 	 	 	 	 	 	 	 	 	 	 	 	 	1581491657	8.11	15.02
12/02/2020 07:14:18	120220	12022020	071418	187.36	12.961205	-57.102275	187.64	-0.540	0.010	2.630	187.38	-1.40	3.10	 	 	 	 	 	 	 	 	 	 	 	 	 	 	 	 	 	 	1581491658	7.71	14.28
12/02/2020 07:14:19	120220	12022020	071419	187.44	12.961170	-57.102283	187.70	-0.350	0.130	2.290	187.43	-1.20	2.80	 	 	 	 	 	 	 	 	 	 	 	 	 	 	 	 	 	 	1581491659	7.70	14.26
12/02/2020 07:14:20	120220	12022020	071420	187.33	12.961133	-57.102290	187.53	0.120	-0.060	1.930	187.27	-1.40	2.40	 	 	 	 	 	 	 	 	 	 	 	 	 	 	 	 	 	 	1581491660	7.94	14.70
12/02/2020 07:14:21	120220	12022020	071421	187.01	12.961095	-57.102295	187.19	0.530	-0.410	1.890	186.93	-1.70	2.40	 	 	 	 	 	 	 	 	 	 	 	 	 	 	 	 	 	 	1581491661	8.32	15.41
12/02/2020 07:14:22	120220	12022020	071422	186.74	12.961057	-57.102298	186.98	0.450	-0.520	2.120	186.73	-1.90	2.60	 	 	 	 	 	 	 	 	 	 	 	 	 	 	 	 	 	 	1581491662	8.55	15.83
12/02/2020 07:14:23	120220	12022020	071423	186.89	12.961018	-57.102305	187.22	-0.130	-0.240	2.440	186.97	-1.60	2.90	 	 	 	 	 	 	 	 	 	 	 	 	 	 	 	 	 	 	1581491663	8.28	15.33
12/02/2020 07:14:24	120220	12022020	071424	187.26	12.960983	-57.102315	187.58	-0.720	0.040	2.860	187.32	-1.30	3.30	 	 	 	 	 	 	 	 	 	 	 	 	 	 	 	 	 	 	1581491664	7.81	14.46
12/02/2020 07:14:25	120220	12022020	071425	187.41	12.960950	-57.102330	187.67	-0.690	-0.050	3.110	187.40	-1.40	3.60	 	 	 	 	 	 	 	 	 	 	 	 	 	 	 	 	 	 	1581491665	7.90	14.63
12/02/2020 07:14:26	120220	12022020	071426	187.37	12.960913	-57.102343	187.64	-0.020	-0.150	2.910	187.38	-1.50	3.40	 	 	 	 	 	 	 	 	 	 	 	 	 	 	 	 	 	 	1581491666	8.28	15.33
12/02/2020 07:14:27	120220	12022020	071427	187.58	12.960877	-57.102352	187.89	0.660	0.030	2.180	187.65	-1.40	2.70	 	 	 	 	 	 	 	 	 	 	 	 	 	 	 	 	 	 	1581491667	8.13	15.06
12/02/2020 07:14:28	120220	12022020	071428	188.08	12.960840	-57.102353	188.42	0.880	0.060	1.180	188.20	-1.30	1.70	 	 	 	 	 	 	 	 	 	 	 	 	 	 	 	 	 	 	1581491668	7.73	14.32
12/02/2020 07:14:29	120220	12022020	071429	188.58	12.960803	-57.102353	188.81	0.660	-0.430	0.650	188.58	-1.80	1.10	 	 	 	 	 	 	 	 	 	 	 	 	 	 	 	 	 	 	1581491669	7.82	14.48
12/02/2020 07:14:30	120220	12022020	071430	188.41	12.960765	-57.102357	188.55	0.270	-1.100	1.130	188.30	-2.50	1.60	 	 	 	 	 	 	 	 	 	 	 	 	 	 	 	 	 	 	1581491670	8.24	15.26
12/02/2020 07:14:31	120220	12022020	071431	187.74	12.960727	-57.102365	187.87	-0.140	-1.190	2.230	187.60	-2.60	2.70	 	 	 	 	 	 	 	 	 	 	 	 	 	 	 	 	 	 	1581491671	8.58	15.89
12/02/2020 07:14:32	120220	12022020	071432	187.22	12.960690	-57.102378	187.47	-0.560	-0.450	3.080	187.19	-1.90	3.50	 	 	 	 	 	 	 	 	 	 	 	 	 	 	 	 	 	 	1581491672	8.36	15.48
12/02/2020 07:14:33	120220	12022020	071433	187.29	12.960657	-57.102393	187.62	-0.800	0.490	3.140	187.36	-0.90	3.60	 	 	 	 	 	 	 	 	 	 	 	 	 	 	 	 	 	 	1581491673	7.74	14.33
12/02/2020 07:14:34	120220	12022020	071434	187.70	12.960625	-57.102405	188.05	-0.610	0.760	2.530	187.80	-0.60	3.00	 	 	 	 	 	 	 	 	 	 	 	 	 	 	 	 	 	 	1581491674	7.39	13.69
12/02/2020 07:14:35	120220	12022020	071435	188.15	12.960590	-57.102413	188.47	0.050	0.140	1.480	188.24	-1.20	2.00	 	 	 	 	 	 	 	 	 	 	 	 	 	 	 	 	 	 	1581491675	7.85	14.54
12/02/2020 07:14:36	120220	12022020	071436	188.58	12.960550	-57.102417	188.87	0.700	-0.700	0.540	188.65	-2.00	1.00	 	 	 	 	 	 	 	 	 	 	 	 	 	 	 	 	 	 	1581491676	8.67	16.06
12/02/2020 07:14:37	120220	12022020	071437	188.82	12.960508	-57.102418	189.04	0.750	-1.190	0.380	188.81	-2.60	0.80	 	 	 	 	 	 	 	 	 	 	 	 	 	 	 	 	 	 	1581491677	8.88	16.45
12/02/2020 07:14:38	120220	12022020	071438	188.60	12.960470	-57.102423	188.75	0.140	-1.040	1.060	188.52	-2.40	1.50	 	 	 	 	 	 	 	 	 	 	 	 	 	 	 	 	 	 	1581491678	8.39	15.54
12/02/2020 07:14:39	120220	12022020	071439	188.09	12.960435	-57.102435	188.25	-0.590	-0.370	2.130	187.99	-1.80	2.50	 	 	 	 	 	 	 	 	 	 	 	 	 	 	 	 	 	 	1581491679	7.87	14.58
12/02/2020 07:14:40	120220	12022020	071440	187.75	12.960402	-57.102450	187.98	-0.860	0.440	2.750	187.73	-1.00	3.20	 	 	 	 	 	 	 	 	 	 	 	 	 	 	 	 	 	 	1581491680	7.73	14.32
12/02/2020 07:14:41	120220	12022020	071441	187.82	12.960370	-57.102465	188.13	-0.480	0.780	2.680	187.87	-0.60	3.10	 	 	 	 	 	 	 	 	 	 	 	 	 	 	 	 	 	 	1581491681	7.64	14.15
12/02/2020 07:14:42	120220	12022020	071442	188.05	12.960335	-57.102475	188.33	0.310	0.310	2.320	188.08	-1.00	2.80	 	 	 	 	 	 	 	 	 	 	 	 	 	 	 	 	 	 	1581491682	7.89	14.61
12/02/2020 07:14:43	120220	12022020	071443	188.15	12.960295	-57.102482	188.42	0.920	-0.470	1.980	188.17	-1.80	2.40	 	 	 	 	 	 	 	 	 	 	 	 	 	 	 	 	 	 	1581491683	8.57	15.87
12/02/2020 07:14:44	120220	12022020	071444	188.33	12.960255	-57.102487	188.62	0.790	-0.770	1.830	188.38	-2.10	2.30	 	 	 	 	 	 	 	 	 	 	 	 	 	 	 	 	 	 	1581491684	8.82	16.33
12/02/2020 07:14:45	120220	12022020	071445	188.55	12.960217	-57.102492	188.83	0.030	-0.490	2.100	188.58	-1.90	2.50	 	 	 	 	 	 	 	 	 	 	 	 	 	 	 	 	 	 	1581491685	8.08	14.96
12/02/2020 07:14:46	120220	12022020	071446	188.49	12.960183	-57.102502	188.69	-0.640	-0.270	2.750	188.43	-1.60	3.20	 	 	 	 	 	 	 	 	 	 	 	 	 	 	 	 	 	 	1581491686	7.40	13.70
12/02/2020 07:14:47	120220	12022020	071447	188.09	12.960152	-57.102515	188.27	-0.740	-0.370	3.320	188.00	-1.70	3.70	 	 	 	 	 	 	 	 	 	 	 	 	 	 	 	 	 	 	1581491687	7.71	14.28
12/02/2020 07:14:48	120220	12022020	071448	187.76	12.960115	-57.102530	187.90	-0.380	-0.530	3.500	187.69	-1.90	3.90	 	 	 	 	 	 	 	 	 	 	 	 	 	 	 	 	 	 	1581491688	8.23	15.24
12/02/2020 07:14:49	120220	12022020	071449	187.52	12.960078	-57.102542	187.77	0.030	-0.360	3.100	187.52	-1.70	3.60	 	 	 	 	 	 	 	 	 	 	 	 	 	 	 	 	 	 	1581491689	8.33	15.43
12/02/2020 07:14:50	120220	12022020	071450	187.63	12.960043	-57.102550	187.90	0.290	0.140	2.260	187.68	-1.30	2.80	 	 	 	 	 	 	 	 	 	 	 	 	 	 	 	 	 	 	1581491690	7.94	14.70
12/02/2020 07:14:51	120220	12022020	071451	188.06	12.960008	-57.102555	188.26	0.440	0.540	1.230	188.06	-0.80	1.70	 	 	 	 	 	 	 	 	 	 	 	 	 	 	 	 	 	 	1581491691	7.44	13.78
12/02/2020 07:14:52	120220	12022020	071452	188.32	12.959973	-57.102555	188.55	0.540	0.290	0.600	188.36	-1.10	1.10	 	 	 	 	 	 	 	 	 	 	 	 	 	 	 	 	 	 	1581491692	7.45	13.80
12/02/2020 07:14:53	120220	12022020	071453	188.29	12.959937	-57.102555	188.45	0.420	-0.680	0.850	188.22	-2.00	1.30	 	 	 	 	 	 	 	 	 	 	 	 	 	 	 	 	 	 	1581491693	8.03	14.87
12/02/2020 07:14:54	120220	12022020	071454	187.75	12.959897	-57.102560	187.85	0.040	-1.670	1.960	187.60	-3.00	2.40	 	 	 	 	 	 	 	 	 	 	 	 	 	 	 	 	 	 	1581491694	8.71	16.13
12/02/2020 07:14:55	120220	12022020	071455	187.01	12.959857	-57.102575	187.15	-0.480	-1.680	3.240	186.88	-3.10	3.70	 	 	 	 	 	 	 	 	 	 	 	 	 	 	 	 	 	 	1581491695	9.07	16.80
12/02/2020 07:14:56	120220	12022020	071456	186.53	12.959820	-57.102593	186.75	-0.830	-0.600	3.900	186.49	-2.00	4.30	 	 	 	 	 	 	 	 	 	 	 	 	 	 	 	 	 	 	1581491696	8.60	15.93
12/02/2020 07:14:57	120220	12022020	071457	186.57	12.959790	-57.102610	186.88	-0.750	0.760	3.500	186.65	-0.60	4.00	 	 	 	 	 	 	 	 	 	 	 	 	 	 	 	 	 	 	1581491697	7.64	14.15
12/02/2020 07:14:58	120220	12022020	071458	187.06	12.959758	-57.102620	187.38	-0.280	1.260	2.340	187.18	-0.10	2.80	 	 	 	 	 	 	 	 	 	 	 	 	 	 	 	 	 	 	1581491698	6.95	12.87
12/02/2020 07:14:59	120220	12022020	071459	187.55	12.959723	-57.102623	187.82	0.250	0.580	1.460	187.63	-0.80	1.90	 	 	 	 	 	 	 	 	 	 	 	 	 	 	 	 	 	 	1581491699	7.52	13.93
12/02/2020 07:15:00	120220	12022020	071500	187.74	12.959683	-57.102627	187.94	0.490	-0.550	1.110	187.75	-1.90	1.60	 	 	 	 	 	 	 	 	 	 	 	 	 	 	 	 	 	 	1581491700	8.59	15.91
12/02/2020 07:15:01	120220	12022020	071501	187.53	12.959643	-57.102632	187.65	0.410	-1.220	1.290	187.44	-2.60	1.80	1014.90	26.10	26.10	20.40	20.60	-1.0	71.0	71.0	415.0	25.9	269.00	10.50	75.00	11.40	16	9455.0	27.3	27.3	1581491701	8.88	16.45
12/02/2020 07:15:02	120220	12022020	071502	187.07	12.959605	-57.102638	187.21	0.190	-0.980	1.720	187.07	-2.40	2.20	 	 	 	 	 	 	 	 	 	 	 	 	 	 	 	 	 	 	1581491702	8.39	15.54
12/02/2020 07:15:03	120220	12022020	071503	186.87	12.959570	-57.102648	187.10	0.000	-0.100	1.800	186.88	-1.50	2.30	 	 	 	 	 	 	 	 	 	 	 	 	 	 	 	 	 	 	1581491703	7.60	14.08
12/02/2020 07:15:04	120220	12022020	071504	186.98	12.959540	-57.102655	187.22	-0.050	0.500	1.620	187.01	-0.90	2.10	 	 	 	 	 	 	 	 	 	 	 	 	 	 	 	 	 	 	1581491704	6.93	12.83
12/02/2020 07:15:05	120220	12022020	071505	187.19	12.959507	-57.102662	187.46	0.080	0.310	1.570	187.25	-1.00	2.00	 	 	 	 	 	 	 	 	 	 	 	 	 	 	 	 	 	 	1581491705	7.23	13.39
12/02/2020 07:15:06	120220	12022020	071506	187.49	12.959470	-57.102670	187.78	0.220	-0.300	1.740	187.55	-1.60	2.20	 	 	 	 	 	 	 	 	 	 	 	 	 	 	 	 	 	 	1581491706	8.03	14.87
12/02/2020 07:15:07	120220	12022020	071507	187.69	12.959432	-57.102678	187.94	0.150	-0.710	2.200	187.70	-2.10	2.60	 	 	 	 	 	 	 	 	 	 	 	 	 	 	 	 	 	 	1581491707	8.39	15.54
12/02/2020 07:15:08	120220	12022020	071508	187.54	12.959395	-57.102690	187.73	-0.070	-0.770	2.790	187.46	-2.10	3.20	 	 	 	 	 	 	 	 	 	 	 	 	 	 	 	 	 	 	1581491708	8.14	15.08
12/02/2020 07:15:09	120220	12022020	071509	187.09	12.959360	-57.102702	187.27	-0.280	-0.660	3.280	186.99	-2.00	3.70	 	 	 	 	 	 	 	 	 	 	 	 	 	 	 	 	 	 	1581491709	7.87	14.58
12/02/2020 07:15:10	120220	12022020	071510	186.67	12.959325	-57.102712	186.89	-0.370	-0.480	3.330	186.61	-1.90	3.80	 	 	 	 	 	 	 	 	 	 	 	 	 	 	 	 	 	 	1581491710	7.85	14.54
12/02/2020 07:15:11	120220	12022020	071511	186.52	12.959290	-57.102722	186.78	-0.330	-0.310	2.910	186.52	-1.70	3.40	 	 	 	 	 	 	 	 	 	 	 	 	 	 	 	 	 	 	1581491711	7.91	14.65
12/02/2020 07:15:12	120220	12022020	071512	186.54	12.959255	-57.102730	186.80	-0.160	-0.190	2.290	186.55	-1.60	2.80	 	 	 	 	 	 	 	 	 	 	 	 	 	 	 	 	 	 	1581491712	7.92	14.67
12/02/2020 07:15:13	120220	12022020	071513	186.68	12.959218	-57.102738	186.89	0.120	-0.110	1.560	186.68	-1.50	2.00	 	 	 	 	 	 	 	 	 	 	 	 	 	 	 	 	 	 	1581491713	8.00	14.82
12/02/2020 07:15:14	120220	12022020	071514	186.85	12.959180	-57.102742	187.11	0.310	0.020	0.890	186.91	-1.40	1.40	 	 	 	 	 	 	 	 	 	 	 	 	 	 	 	 	 	 	1581491714	8.02	14.85
12/02/2020 07:15:15	120220	12022020	071515	187.14	12.959143	-57.102745	187.39	0.280	0.110	0.610	187.19	-1.30	1.10	 	 	 	 	 	 	 	 	 	 	 	 	 	 	 	 	 	 	1581491715	7.88	14.59
12/02/2020 07:15:16	120220	12022020	071516	187.26	12.959108	-57.102748	187.47	0.110	0.070	0.900	187.25	-1.30	1.30	 	 	 	 	 	 	 	 	 	 	 	 	 	 	 	 	 	 	1581491716	7.77	14.39
12/02/2020 07:15:17	120220	12022020	071517	187.05	12.959072	-57.102755	187.21	-0.110	-0.130	1.650	186.97	-1.50	2.10	 	 	 	 	 	 	 	 	 	 	 	 	 	 	 	 	 	 	1581491717	7.82	14.48
12/02/2020 07:15:18	120220	12022020	071518	186.58	12.959037	-57.102765	186.74	-0.350	-0.390	2.670	186.47	-1.80	3.10	 	 	 	 	 	 	 	 	 	 	 	 	 	 	 	 	 	 	1581491718	8.06	14.93
12/02/2020 07:15:19	120220	12022020	071519	186.10	12.959000	-57.102780	186.31	-0.480	-0.460	3.440	186.04	-1.80	3.90	 	 	 	 	 	 	 	 	 	 	 	 	 	 	 	 	 	 	1581491719	8.32	15.41
12/02/2020 07:15:20	120220	12022020	071520	185.95	12.958965	-57.102795	186.22	-0.280	-0.140	3.470	185.96	-1.50	3.90	 	 	 	 	 	 	 	 	 	 	 	 	 	 	 	 	 	 	1581491720	8.23	15.24
12/02/2020 07:15:21	120220	12022020	071521	186.07	12.958932	-57.102805	186.32	0.220	0.120	2.790	186.10	-1.30	3.30	 	 	 	 	 	 	 	 	 	 	 	 	 	 	 	 	 	 	1581491721	7.55	13.98
12/02/2020 07:15:22	120220	12022020	071522	186.20	12.958897	-57.102810	186.42	0.680	-0.190	1.920	186.22	-1.50	2.40	 	 	 	 	 	 	 	 	 	 	 	 	 	 	 	 	 	 	1581491722	7.42	13.74
12/02/2020 07:15:23	120220	12022020	071523	186.26	12.958860	-57.102812	186.45	0.750	-0.750	1.410	186.24	-2.10	1.90	 	 	 	 	 	 	 	 	 	 	 	 	 	 	 	 	 	 	1581491723	8.03	14.87
12/02/2020 07:15:24	120220	12022020	071524	186.02	12.958822	-57.102813	186.24	0.380	-1.060	1.510	186.02	-2.40	2.00	 	 	 	 	 	 	 	 	 	 	 	 	 	 	 	 	 	 	1581491724	8.28	15.33
12/02/2020 07:15:25	120220	12022020	071525	185.71	12.958785	-57.102820	185.85	-0.110	-0.970	2.080	185.62	-2.30	2.50	 	 	 	 	 	 	 	 	 	 	 	 	 	 	 	 	 	 	1581491725	8.09	14.98
12/02/2020 07:15:26	120220	12022020	071526	185.32	12.958748	-57.102830	185.50	-0.420	-0.500	2.610	185.26	-1.90	3.00	 	 	 	 	 	 	 	 	 	 	 	 	 	 	 	 	 	 	1581491726	7.96	14.74
12/02/2020 07:15:27	120220	12022020	071527	185.10	12.958715	-57.102840	185.32	-0.500	0.150	2.850	185.08	-1.20	3.30	 	 	 	 	 	 	 	 	 	 	 	 	 	 	 	 	 	 	1581491727	7.79	14.43
12/02/2020 07:15:28	120220	12022020	071528	185.07	12.958680	-57.102850	185.31	-0.440	0.550	2.820	185.08	-0.80	3.30	 	 	 	 	 	 	 	 	 	 	 	 	 	 	 	 	 	 	1581491728	7.61	14.09
12/02/2020 07:15:29	120220	12022020	071529	185.19	12.958645	-57.102858	185.43	-0.270	0.460	2.390	185.23	-0.90	2.90	 	 	 	 	 	 	 	 	 	 	 	 	 	 	 	 	 	 	1581491729	7.75	14.35
12/02/2020 07:15:30	120220	12022020	071530	185.37	12.958608	-57.102865	185.61	-0.010	0.110	1.850	185.42	-1.20	2.40	 	 	 	 	 	 	 	 	 	 	 	 	 	 	 	 	 	 	1581491730	8.10	15.00
12/02/2020 07:15:31	120220	12022020	071531	185.67	12.958570	-57.102870	185.92	0.300	-0.060	1.250	185.76	-1.40	1.80	 	 	 	 	 	 	 	 	 	 	 	 	 	 	 	 	 	 	1581491731	8.22	15.22
12/02/2020 07:15:32	120220	12022020	071532	186.16	12.958533	-57.102872	186.41	0.460	-0.080	0.650	186.26	-1.50	1.10	 	 	 	 	 	 	 	 	 	 	 	 	 	 	 	 	 	 	1581491732	7.87	14.58
12/02/2020 07:15:33	120220	12022020	071533	186.58	12.958498	-57.102873	186.79	0.310	-0.400	0.650	186.62	-1.80	1.10	 	 	 	 	 	 	 	 	 	 	 	 	 	 	 	 	 	 	1581491733	7.52	13.93
12/02/2020 07:15:34	120220	12022020	071534	186.57	12.958463	-57.102877	186.68	-0.000	-1.130	1.410	186.49	-2.50	1.80	 	 	 	 	 	 	 	 	 	 	 	 	 	 	 	 	 	 	1581491734	7.70	14.26
12/02/2020 07:15:35	120220	12022020	071535	185.93	12.958425	-57.102887	185.98	-0.180	-1.810	2.580	185.75	-3.20	3.00	 	 	 	 	 	 	 	 	 	 	 	 	 	 	 	 	 	 	1581491735	8.34	15.45
12/02/2020 07:15:36	120220	12022020	071536	185.01	12.958387	-57.102900	185.09	-0.230	-1.750	3.650	184.84	-3.10	4.10	 	 	 	 	 	 	 	 	 	 	 	 	 	 	 	 	 	 	1581491736	8.79	16.28
12/02/2020 07:15:37	120220	12022020	071537	184.30	12.958350	-57.102913	184.45	-0.280	-0.750	4.160	184.20	-2.20	4.60	 	 	 	 	 	 	 	 	 	 	 	 	 	 	 	 	 	 	1581491737	8.45	15.65
12/02/2020 07:15:38	120220	12022020	071538	183.97	12.958315	-57.102923	184.20	-0.390	0.640	3.920	183.96	-0.80	4.40	 	 	 	 	 	 	 	 	 	 	 	 	 	 	 	 	 	 	1581491738	7.65	14.17
12/02/2020 07:15:39	120220	12022020	071539	184.17	12.958283	-57.102932	184.50	-0.400	1.670	3.000	184.29	0.30	3.50	 	 	 	 	 	 	 	 	 	 	 	 	 	 	 	 	 	 	1581491739	7.22	13.37
12/02/2020 07:15:40	120220	12022020	071540	184.95	12.958250	-57.102937	185.31	-0.120	1.900	1.640	185.13	0.50	2.20	 	 	 	 	 	 	 	 	 	 	 	 	 	 	 	 	 	 	1581491740	7.26	13.45
12/02/2020 07:15:41	120220	12022020	071541	185.94	12.958213	-57.102937	186.24	0.360	1.200	0.410	186.11	-0.10	0.90	 	 	 	 	 	 	 	 	 	 	 	 	 	 	 	 	 	 	1581491741	7.65	14.17
12/02/2020 07:15:42	120220	12022020	071542	186.59	12.958175	-57.102935	186.76	0.710	-0.270	0.130	186.64	-1.60	0.60	 	 	 	 	 	 	 	 	 	 	 	 	 	 	 	 	 	 	1581491742	8.18	15.15
12/02/2020 07:15:43	120220	12022020	071543	186.52	12.958135	-57.102938	186.58	0.740	-1.790	1.040	186.41	-3.10	1.40	 	 	 	 	 	 	 	 	 	 	 	 	 	 	 	 	 	 	1581491743	8.60	15.93
12/02/2020 07:15:44	120220	12022020	071544	185.80	12.958097	-57.102948	185.82	0.480	-2.490	2.620	185.62	-3.90	3.00	 	 	 	 	 	 	 	 	 	 	 	 	 	 	 	 	 	 	1581491744	8.68	16.08
12/02/2020 07:15:45	120220	12022020	071545	184.90	12.958060	-57.102962	184.98	0.120	-1.940	3.940	184.75	-3.30	4.40	 	 	 	 	 	 	 	 	 	 	 	 	 	 	 	 	 	 	1581491745	8.30	15.37
12/02/2020 07:15:46	120220	12022020	071546	184.27	12.958028	-57.102975	184.50	-0.230	-0.710	4.320	184.27	-2.10	4.80	 	 	 	 	 	 	 	 	 	 	 	 	 	 	 	 	 	 	1581491746	7.45	13.80
12/02/2020 07:15:47	120220	12022020	071547	184.20	12.957998	-57.102985	184.41	-0.480	0.160	3.830	184.21	-1.20	4.30	 	 	 	 	 	 	 	 	 	 	 	 	 	 	 	 	 	 	1581491747	6.93	12.83
12/02/2020 07:15:48	120220	12022020	071548	184.35	12.957963	-57.102990	184.60	-0.600	0.340	2.930	184.42	-1.00	3.40	 	 	 	 	 	 	 	 	 	 	 	 	 	 	 	 	 	 	1581491748	7.37	13.65
12/02/2020 07:15:49	120220	12022020	071549	184.77	12.957927	-57.102992	185.04	-0.610	0.210	1.920	184.88	-1.20	2.40	 	 	 	 	 	 	 	 	 	 	 	 	 	 	 	 	 	 	1581491749	8.12	15.04
12/02/2020 07:15:50	120220	12022020	071550	185.18	12.957887	-57.102995	185.47	-0.520	0.090	1.140	185.25	-1.30	1.60	 	 	 	 	 	 	 	 	 	 	 	 	 	 	 	 	 	 	1581491750	8.30	15.37
12/02/2020 07:15:51	120220	12022020	071551	185.51	12.957850	-57.102998	185.66	-0.250	0.020	0.890	185.53	-1.30	1.40	 	 	 	 	 	 	 	 	 	 	 	 	 	 	 	 	 	 	1581491751	8.14	15.08
12/02/2020 07:15:52	120220	12022020	071552	185.44	12.957813	-57.103005	185.55	0.200	-0.090	1.100	185.41	-1.40	1.60	 	 	 	 	 	 	 	 	 	 	 	 	 	 	 	 	 	 	1581491752	8.00	14.82
12/02/2020 07:15:53	120220	12022020	071553	185.20	12.957777	-57.103010	185.32	0.580	-0.150	1.490	185.16	-1.50	2.00	 	 	 	 	 	 	 	 	 	 	 	 	 	 	 	 	 	 	1581491753	8.04	14.89
12/02/2020 07:15:54	120220	12022020	071554	185.09	12.957738	-57.103015	185.26	0.510	0.030	1.860	185.09	-1.40	2.30	 	 	 	 	 	 	 	 	 	 	 	 	 	 	 	 	 	 	1581491754	8.01	14.83
12/02/2020 07:15:55	120220	12022020	071555	185.15	12.957703	-57.103020	185.33	0.030	0.370	2.230	185.16	-1.00	2.70	 	 	 	 	 	 	 	 	 	 	 	 	 	 	 	 	 	 	1581491755	7.63	14.13
12/02/2020 07:15:56	120220	12022020	071556	185.27	12.957670	-57.103028	185.46	-0.370	0.570	2.430	185.30	-0.80	2.90	 	 	 	 	 	 	 	 	 	 	 	 	 	 	 	 	 	 	1581491756	7.34	13.59
12/02/2020 07:15:57	120220	12022020	071557	185.43	12.957638	-57.103038	185.63	-0.300	0.310	2.320	185.47	-1.10	2.80	 	 	 	 	 	 	 	 	 	 	 	 	 	 	 	 	 	 	1581491757	7.32	13.56
12/02/2020 07:15:58	120220	12022020	071558	185.49	12.957603	-57.103047	185.63	0.190	-0.560	2.080	185.47	-1.90	2.60	 	 	 	 	 	 	 	 	 	 	 	 	 	 	 	 	 	 	1581491758	7.61	14.09
12/02/2020 07:15:59	120220	12022020	071559	185.31	12.957565	-57.103052	185.43	0.620	-1.460	1.890	185.27	-2.80	2.40	 	 	 	 	 	 	 	 	 	 	 	 	 	 	 	 	 	 	1581491759	8.21	15.20
12/02/2020 07:16:00	120220	12022020	071600	185.14	12.957527	-57.103057	185.27	0.590	-1.750	1.890	185.11	-3.10	2.40	 	 	 	 	 	 	 	 	 	 	 	 	 	 	 	 	 	 	1581491760	8.39	15.54
12/02/2020 07:16:01	120220	12022020	071601	184.97	12.957490	-57.103062	185.10	0.190	-1.370	2.190	184.93	-2.80	2.60	1014.90	26.20	26.20	20.70	20.70	-1.0	71.0	71.0	415.0	25.9	274.00	10.60	78.00	11.10	16	9633.0	27.3	27.3	1581491761	7.91	14.65
12/02/2020 07:16:02	120220	12022020	071602	184.71	12.957457	-57.103070	184.84	-0.130	-0.710	2.630	184.66	-2.10	3.10	 	 	 	 	 	 	 	 	 	 	 	 	 	 	 	 	 	 	1581491762	7.51	13.91
12/02/2020 07:16:03	120220	12022020	071603	184.47	12.957422	-57.103078	184.61	-0.130	-0.160	2.840	184.43	-1.50	3.30	 	 	 	 	 	 	 	 	 	 	 	 	 	 	 	 	 	 	1581491763	7.60	14.08
12/02/2020 07:16:04	120220	12022020	071604	184.34	12.957387	-57.103085	184.53	-0.010	0.300	2.800	184.35	-1.10	3.30	 	 	 	 	 	 	 	 	 	 	 	 	 	 	 	 	 	 	1581491764	7.91	14.65
12/02/2020 07:16:05	120220	12022020	071605	184.51	12.957348	-57.103090	184.76	-0.150	0.850	2.540	184.58	-0.50	3.00	 	 	 	 	 	 	 	 	 	 	 	 	 	 	 	 	 	 	1581491765	8.02	14.85
12/02/2020 07:16:06	120220	12022020	071606	184.90	12.957313	-57.103093	185.13	-0.600	1.060	2.290	184.97	-0.30	2.80	 	 	 	 	 	 	 	 	 	 	 	 	 	 	 	 	 	 	1581491766	7.71	14.28
12/02/2020 07:16:07	120220	12022020	071607	185.13	12.957278	-57.103098	185.30	-0.930	0.420	2.500	185.13	-0.90	3.00	 	 	 	 	 	 	 	 	 	 	 	 	 	 	 	 	 	 	1581491767	7.74	14.33
12/02/2020 07:16:08	120220	12022020	071608	185.04	12.957240	-57.103108	185.19	-0.670	-0.630	2.860	185.01	-1.90	3.30	 	 	 	 	 	 	 	 	 	 	 	 	 	 	 	 	 	 	1581491768	8.56	15.85
12/02/2020 07:16:09	120220	12022020	071609	184.90	12.957198	-57.103120	185.05	0.050	-1.130	2.680	184.89	-2.50	3.20	 	 	 	 	 	 	 	 	 	 	 	 	 	 	 	 	 	 	1581491769	8.98	16.63
12/02/2020 07:16:10	120220	12022020	071610	184.96	12.957162	-57.103127	185.14	0.640	-0.760	1.990	185.00	-2.10	2.50	 	 	 	 	 	 	 	 	 	 	 	 	 	 	 	 	 	 	1581491770	8.27	15.32
12/02/2020 07:16:11	120220	12022020	071611	185.18	12.957128	-57.103130	185.35	0.790	-0.130	1.190	185.22	-1.50	1.70	 	 	 	 	 	 	 	 	 	 	 	 	 	 	 	 	 	 	1581491771	7.24	13.41
12/02/2020 07:16:12	120220	12022020	071612	185.25	12.957095	-57.103130	185.37	0.710	0.050	0.820	185.24	-1.30	1.30	 	 	 	 	 	 	 	 	 	 	 	 	 	 	 	 	 	 	1581491772	6.92	12.82
12/02/2020 07:16:13	120220	12022020	071613	185.18	12.957060	-57.103132	185.30	0.560	-0.090	1.090	185.16	-1.40	1.60	 	 	 	 	 	 	 	 	 	 	 	 	 	 	 	 	 	 	1581491773	7.45	13.80
12/02/2020 07:16:14	120220	12022020	071614	185.16	12.957025	-57.103135	185.33	0.270	-0.200	1.720	185.18	-1.50	2.20	 	 	 	 	 	 	 	 	 	 	 	 	 	 	 	 	 	 	1581491774	7.85	14.54
12/02/2020 07:16:15	120220	12022020	071615	185.19	12.956988	-57.103143	185.34	-0.150	-0.290	2.500	185.17	-1.60	2.90	 	 	 	 	 	 	 	 	 	 	 	 	 	 	 	 	 	 	1581491775	7.86	14.56
12/02/2020 07:16:16	120220	12022020	071616	185.05	12.956953	-57.103155	185.20	-0.470	-0.480	3.220	185.02	-1.80	3.70	 	 	 	 	 	 	 	 	 	 	 	 	 	 	 	 	 	 	1581491776	8.01	14.83
12/02/2020 07:16:17	120220	12022020	071617	184.97	12.956917	-57.103168	185.17	-0.490	-0.480	3.400	184.98	-1.80	3.90	 	 	 	 	 	 	 	 	 	 	 	 	 	 	 	 	 	 	1581491777	8.30	15.37
12/02/2020 07:16:18	120220	12022020	071618	185.13	12.956882	-57.103178	185.35	-0.200	-0.250	2.760	185.18	-1.60	3.30	 	 	 	 	 	 	 	 	 	 	 	 	 	 	 	 	 	 	1581491778	8.06	14.93
12/02/2020 07:16:19	120220	12022020	071619	185.47	12.956845	-57.103183	185.69	0.110	-0.130	1.660	185.55	-1.50	2.20	 	 	 	 	 	 	 	 	 	 	 	 	 	 	 	 	 	 	1581491779	7.63	14.13
12/02/2020 07:16:20	120220	12022020	071620	185.80	12.956810	-57.103183	185.99	0.100	-0.300	0.900	185.83	-1.60	1.40	 	 	 	 	 	 	 	 	 	 	 	 	 	 	 	 	 	 	1581491780	7.74	14.33
12/02/2020 07:16:21	120220	12022020	071621	185.85	12.956773	-57.103185	186.00	-0.120	-0.610	0.890	185.82	-2.00	1.40	 	 	 	 	 	 	 	 	 	 	 	 	 	 	 	 	 	 	1581491781	7.93	14.69
12/02/2020 07:16:22	120220	12022020	071622	185.61	12.956735	-57.103192	185.74	-0.180	-0.720	1.280	185.53	-2.10	1.70	 	 	 	 	 	 	 	 	 	 	 	 	 	 	 	 	 	 	1581491782	8.10	15.00
12/02/2020 07:16:23	120220	12022020	071623	185.25	12.956698	-57.103198	185.43	0.020	-0.500	1.760	185.20	-1.90	2.20	 	 	 	 	 	 	 	 	 	 	 	 	 	 	 	 	 	 	1581491783	8.06	14.93
12/02/2020 07:16:24	120220	12022020	071624	185.10	12.956663	-57.103207	185.34	0.130	-0.040	2.140	185.10	-1.40	2.60	 	 	 	 	 	 	 	 	 	 	 	 	 	 	 	 	 	 	1581491784	7.89	14.61
12/02/2020 07:16:25	120220	12022020	071625	185.12	12.956628	-57.103213	185.36	-0.100	0.440	2.530	185.13	-0.90	3.00	 	 	 	 	 	 	 	 	 	 	 	 	 	 	 	 	 	 	1581491785	7.65	14.17
12/02/2020 07:16:26	120220	12022020	071626	185.14	12.956595	-57.103223	185.37	-0.410	0.680	2.840	185.14	-0.70	3.30	 	 	 	 	 	 	 	 	 	 	 	 	 	 	 	 	 	 	1581491786	7.53	13.95
12/02/2020 07:16:27	120220	12022020	071627	185.17	12.956560	-57.103232	185.40	-0.370	0.450	2.800	185.18	-0.90	3.30	 	 	 	 	 	 	 	 	 	 	 	 	 	 	 	 	 	 	1581491787	7.64	14.15
12/02/2020 07:16:28	120220	12022020	071628	185.17	12.956523	-57.103240	185.37	0.070	-0.260	2.550	185.15	-1.60	3.00	 	 	 	 	 	 	 	 	 	 	 	 	 	 	 	 	 	 	1581491788	7.98	14.78
12/02/2020 07:16:29	120220	12022020	071629	185.02	12.956485	-57.103247	185.18	0.610	-0.960	2.260	184.97	-2.30	2.80	 	 	 	 	 	 	 	 	 	 	 	 	 	 	 	 	 	 	1581491789	8.39	15.54
12/02/2020 07:16:30	120220	12022020	071630	184.81	12.956447	-57.103252	184.99	0.830	-0.990	1.800	184.80	-2.40	2.30	 	 	 	 	 	 	 	 	 	 	 	 	 	 	 	 	 	 	1581491790	8.39	15.54
12/02/2020 07:16:31	120220	12022020	071631	184.85	12.956410	-57.103253	185.08	0.460	-0.340	1.320	184.89	-1.70	1.80	 	 	 	 	 	 	 	 	 	 	 	 	 	 	 	 	 	 	1581491791	7.72	14.30
12/02/2020 07:16:32	120220	12022020	071632	185.15	12.956378	-57.103253	185.41	-0.260	0.300	1.210	185.23	-1.10	1.70	 	 	 	 	 	 	 	 	 	 	 	 	 	 	 	 	 	 	1581491792	6.90	12.78
12/02/2020 07:16:33	120220	12022020	071633	185.52	12.956347	-57.103260	185.76	-0.720	0.230	1.450	185.58	-1.10	1.90	 	 	 	 	 	 	 	 	 	 	 	 	 	 	 	 	 	 	1581491793	6.87	12.72
12/02/2020 07:16:34	120220	12022020	071634	185.62	12.956313	-57.103268	185.79	-0.470	-0.610	1.870	185.59	-1.90	2.30	 	 	 	 	 	 	 	 	 	 	 	 	 	 	 	 	 	 	1581491794	7.69	14.24
12/02/2020 07:16:35	120220	12022020	071635	185.38	12.956273	-57.103278	185.54	0.200	-1.410	2.320	185.32	-2.70	2.80	 	 	 	 	 	 	 	 	 	 	 	 	 	 	 	 	 	 	1581491795	8.68	16.08
12/02/2020 07:16:36	120220	12022020	071636	185.23	12.956233	-57.103287	185.45	0.550	-1.190	2.490	185.23	-2.60	3.00	 	 	 	 	 	 	 	 	 	 	 	 	 	 	 	 	 	 	1581491796	8.86	16.41
12/02/2020 07:16:37	120220	12022020	071637	185.32	12.956197	-57.103293	185.56	0.260	-0.080	2.340	185.35	-1.50	2.80	 	 	 	 	 	 	 	 	 	 	 	 	 	 	 	 	 	 	1581491797	7.86	14.56
12/02/2020 07:16:38	120220	12022020	071638	185.42	12.956165	-57.103298	185.63	-0.320	0.910	2.190	185.42	-0.50	2.70	 	 	 	 	 	 	 	 	 	 	 	 	 	 	 	 	 	 	1581491798	6.85	12.69
12/02/2020 07:16:39	120220	12022020	071639	185.40	12.956133	-57.103303	185.60	-0.560	0.980	2.060	185.40	-0.40	2.50	 	 	 	 	 	 	 	 	 	 	 	 	 	 	 	 	 	 	1581491799	6.91	12.80
12/02/2020 07:16:40	120220	12022020	071640	185.42	12.956098	-57.103310	185.61	-0.290	0.280	1.890	185.42	-1.00	2.40	 	 	 	 	 	 	 	 	 	 	 	 	 	 	 	 	 	 	1581491800	7.84	14.52
12/02/2020 07:16:41	120220	12022020	071641	185.50	12.956058	-57.103315	185.70	0.170	-0.460	1.760	185.53	-1.80	2.30	 	 	 	 	 	 	 	 	 	 	 	 	 	 	 	 	 	 	1581491801	8.54	15.82
12/02/2020 07:16:42	120220	12022020	071642	185.59	12.956020	-57.103322	185.80	0.420	-0.770	1.700	185.61	-2.10	2.20	 	 	 	 	 	 	 	 	 	 	 	 	 	 	 	 	 	 	1581491802	8.45	15.65
12/02/2020 07:16:43	120220	12022020	071643	185.65	12.955983	-57.103328	185.85	0.410	-0.710	1.640	185.66	-2.10	2.10	 	 	 	 	 	 	 	 	 	 	 	 	 	 	 	 	 	 	1581491803	7.91	14.65
12/02/2020 07:16:44	120220	12022020	071644	185.77	12.955948	-57.103333	186.01	0.220	-0.440	1.530	185.83	-1.80	2.00	 	 	 	 	 	 	 	 	 	 	 	 	 	 	 	 	 	 	1581491804	7.56	14.00
12/02/2020 07:16:45	120220	12022020	071645	186.13	12.955915	-57.103338	186.39	-0.120	-0.100	1.440	186.20	-1.50	1.90	 	 	 	 	 	 	 	 	 	 	 	 	 	 	 	 	 	 	1581491805	7.35	13.61
12/02/2020 07:16:46	120220	12022020	071646	186.38	12.955882	-57.103343	186.60	-0.390	-0.130	1.610	186.38	-1.50	2.10	 	 	 	 	 	 	 	 	 	 	 	 	 	 	 	 	 	 	1581491806	7.22	13.37
12/02/2020 07:16:47	120220	12022020	071647	186.22	12.955847	-57.103352	186.39	-0.320	-0.660	2.090	186.16	-2.00	2.50	 	 	 	 	 	 	 	 	 	 	 	 	 	 	 	 	 	 	1581491807	7.71	14.28
12/02/2020 07:16:48	120220	12022020	071648	185.94	12.955808	-57.103362	186.14	-0.050	-0.970	2.480	185.89	-2.30	2.90	 	 	 	 	 	 	 	 	 	 	 	 	 	 	 	 	 	 	1581491808	8.47	15.69
12/02/2020 07:16:49	120220	12022020	071649	185.73	12.955770	-57.103372	185.93	0.130	-0.650	2.650	185.68	-2.00	3.10	 	 	 	 	 	 	 	 	 	 	 	 	 	 	 	 	 	 	1581491809	8.43	15.61
12/02/2020 07:16:50	120220	12022020	071650	185.59	12.955735	-57.103380	185.83	0.110	0.090	2.450	185.59	-1.30	2.90	 	 	 	 	 	 	 	 	 	 	 	 	 	 	 	 	 	 	1581491810	7.84	14.52
12/02/2020 07:16:51	120220	12022020	071651	185.66	12.955702	-57.103385	185.92	0.020	0.780	1.870	185.69	-0.60	2.40	 	 	 	 	 	 	 	 	 	 	 	 	 	 	 	 	 	 	1581491811	7.38	13.67
12/02/2020 07:16:52	120220	12022020	071652	185.83	12.955667	-57.103387	186.07	0.050	0.900	1.310	185.86	-0.40	1.80	 	 	 	 	 	 	 	 	 	 	 	 	 	 	 	 	 	 	1581491812	7.29	13.50
12/02/2020 07:16:53	120220	12022020	071653	186.02	12.955632	-57.103388	186.27	0.190	0.370	1.010	186.07	-1.00	1.50	 	 	 	 	 	 	 	 	 	 	 	 	 	 	 	 	 	 	1581491813	7.71	14.28
12/02/2020 07:16:54	120220	12022020	071654	186.25	12.955593	-57.103392	186.48	0.220	-0.370	1.200	186.27	-1.70	1.70	 	 	 	 	 	 	 	 	 	 	 	 	 	 	 	 	 	 	1581491814	8.18	15.15
12/02/2020 07:16:55	120220	12022020	071655	186.18	12.955557	-57.103398	186.34	0.080	-1.080	1.950	186.11	-2.40	2.40	 	 	 	 	 	 	 	 	 	 	 	 	 	 	 	 	 	 	1581491815	8.19	15.17
12/02/2020 07:16:56	120220	12022020	071656	185.69	12.955520	-57.103410	185.84	-0.080	-1.560	2.830	185.58	-2.90	3.30	 	 	 	 	 	 	 	 	 	 	 	 	 	 	 	 	 	 	1581491816	8.26	15.30
12/02/2020 07:16:57	120220	12022020	071657	185.21	12.955482	-57.103422	185.44	-0.250	-1.270	3.300	185.16	-2.70	3.80	 	 	 	 	 	 	 	 	 	 	 	 	 	 	 	 	 	 	1581491817	8.35	15.46
12/02/2020 07:16:58	120220	12022020	071658	185.12	12.955448	-57.103433	185.41	-0.380	-0.320	3.140	185.14	-1.70	3.60	 	 	 	 	 	 	 	 	 	 	 	 	 	 	 	 	 	 	1581491818	7.79	14.43
12/02/2020 07:16:59	120220	12022020	071659	185.40	12.955417	-57.103443	185.74	-0.310	0.560	2.360	185.49	-0.80	2.90	 	 	 	 	 	 	 	 	 	 	 	 	 	 	 	 	 	 	1581491819	7.11	13.17
12/02/2020 07:17:00	120220	12022020	071700	185.90	12.955383	-57.103447	186.22	0.020	0.720	1.310	186.00	-0.60	1.80	 	 	 	 	 	 	 	 	 	 	 	 	 	 	 	 	 	 	1581491820	7.09	13.13
12/02/2020 07:17:01	120220	12022020	071701	186.34	12.955347	-57.103448	186.59	0.500	0.120	0.570	186.40	-1.20	1.10	1014.80	26.10	26.20	20.60	20.60	-1.0	71.0	71.0	415.0	25.9	274.00	10.70	78.00	11.20	16	9872.0	27.3	27.3	1581491821	7.82	14.48
12/02/2020 07:17:02	120220	12022020	071702	186.49	12.955307	-57.103448	186.68	0.810	-0.670	0.550	186.49	-2.00	1.00	 	 	 	 	 	 	 	 	 	 	 	 	 	 	 	 	 	 	1581491822	8.54	15.82
12/02/2020 07:17:03	120220	12022020	071703	186.33	12.955267	-57.103450	186.47	0.620	-1.010	1.130	186.27	-2.40	1.60	 	 	 	 	 	 	 	 	 	 	 	 	 	 	 	 	 	 	1581491823	8.68	16.08
12/02/2020 07:17:04	120220	12022020	071704	185.96	12.955230	-57.103457	186.11	-0.110	-0.670	2.060	185.90	-2.10	2.50	 	 	 	 	 	 	 	 	 	 	 	 	 	 	 	 	 	 	1581491824	8.21	15.20
12/02/2020 07:17:05	120220	12022020	071705	185.80	12.955195	-57.103467	186.05	-0.990	0.180	2.730	185.83	-1.20	3.20	 	 	 	 	 	 	 	 	 	 	 	 	 	 	 	 	 	 	1581491825	7.65	14.17
12/02/2020 07:17:06	120220	12022020	071706	186.06	12.955165	-57.103480	186.34	-1.390	0.790	2.790	186.13	-0.60	3.30	 	 	 	 	 	 	 	 	 	 	 	 	 	 	 	 	 	 	1581491826	7.19	13.32
12/02/2020 07:17:07	120220	12022020	071707	186.30	12.955133	-57.103492	186.51	-0.930	0.350	2.620	186.31	-1.00	3.10	 	 	 	 	 	 	 	 	 	 	 	 	 	 	 	 	 	 	1581491827	7.32	13.56
12/02/2020 07:17:08	120220	12022020	071708	186.31	12.955095	-57.103503	186.51	0.150	-0.640	2.290	186.31	-2.00	2.80	 	 	 	 	 	 	 	 	 	 	 	 	 	 	 	 	 	 	1581491828	8.33	15.43
12/02/2020 07:17:09	120220	12022020	071709	186.40	12.955055	-57.103510	186.63	1.020	-0.990	1.690	186.44	-2.40	2.20	 	 	 	 	 	 	 	 	 	 	 	 	 	 	 	 	 	 	1581491829	8.88	16.45
12/02/2020 07:17:10	120220	12022020	071710	186.65	12.955017	-57.103513	186.86	1.110	-0.360	1.010	186.70	-1.80	1.50	 	 	 	 	 	 	 	 	 	 	 	 	 	 	 	 	 	 	1581491830	8.12	15.04
12/02/2020 07:17:11	120220	12022020	071711	186.82	12.954985	-57.103515	187.01	0.600	0.400	0.630	186.83	-1.00	1.10	 	 	 	 	 	 	 	 	 	 	 	 	 	 	 	 	 	 	1581491831	6.98	12.93
12/02/2020 07:17:12	120220	12022020	071712	186.81	12.954953	-57.103517	186.98	0.030	0.500	0.820	186.79	-0.90	1.30	 	 	 	 	 	 	 	 	 	 	 	 	 	 	 	 	 	 	1581491832	6.74	12.48
12/02/2020 07:17:13	120220	12022020	071713	186.62	12.954920	-57.103522	186.78	-0.160	-0.140	1.410	186.57	-1.50	1.90	 	 	 	 	 	 	 	 	 	 	 	 	 	 	 	 	 	 	1581491833	7.40	13.70
12/02/2020 07:17:14	120220	12022020	071714	186.36	12.954882	-57.103530	186.57	-0.120	-0.950	2.170	186.34	-2.30	2.60	 	 	 	 	 	 	 	 	 	 	 	 	 	 	 	 	 	 	1581491834	8.27	15.32
12/02/2020 07:17:15	120220	12022020	071715	186.34	12.954843	-57.103542	186.59	-0.150	-1.290	2.890	186.35	-2.70	3.30	 	 	 	 	 	 	 	 	 	 	 	 	 	 	 	 	 	 	1581491835	8.63	15.98
12/02/2020 07:17:16	120220	12022020	071716	186.39	12.954807	-57.103553	186.62	-0.270	-1.060	3.330	186.38	-2.40	3.80	 	 	 	 	 	 	 	 	 	 	 	 	 	 	 	 	 	 	1581491836	8.28	15.33
12/02/2020 07:17:17	120220	12022020	071717	186.30	12.954773	-57.103565	186.52	-0.300	-0.610	3.340	186.28	-2.00	3.80	 	 	 	 	 	 	 	 	 	 	 	 	 	 	 	 	 	 	1581491837	7.74	14.33
12/02/2020 07:17:18	120220	12022020	071718	186.25	12.954738	-57.103573	186.50	-0.260	-0.090	2.970	186.26	-1.50	3.50	 	 	 	 	 	 	 	 	 	 	 	 	 	 	 	 	 	 	1581491838	7.61	14.09
12/02/2020 07:17:19	120220	12022020	071719	186.36	12.954703	-57.103580	186.61	-0.240	0.430	2.370	186.39	-1.00	2.90	 	 	 	 	 	 	 	 	 	 	 	 	 	 	 	 	 	 	1581491839	7.56	14.00
12/02/2020 07:17:20	120220	12022020	071720	186.48	12.954670	-57.103585	186.69	-0.210	0.640	1.760	186.49	-0.70	2.30	 	 	 	 	 	 	 	 	 	 	 	 	 	 	 	 	 	 	1581491840	7.48	13.85
12/02/2020 07:17:21	120220	12022020	071721	186.44	12.954633	-57.103588	186.61	-0.070	0.300	1.450	186.41	-1.10	1.90	 	 	 	 	 	 	 	 	 	 	 	 	 	 	 	 	 	 	1581491841	7.68	14.22
12/02/2020 07:17:22	120220	12022020	071722	186.27	12.954597	-57.103593	186.45	0.150	-0.160	1.520	186.25	-1.50	2.00	 	 	 	 	 	 	 	 	 	 	 	 	 	 	 	 	 	 	1581491842	8.18	15.15
12/02/2020 07:17:23	120220	12022020	071723	186.31	12.954558	-57.103602	186.56	0.300	-0.080	1.510	186.37	-1.50	2.00	 	 	 	 	 	 	 	 	 	 	 	 	 	 	 	 	 	 	1581491843	8.28	15.33
12/02/2020 07:17:24	120220	12022020	071724	186.74	12.954523	-57.103607	187.02	0.290	0.350	1.240	186.85	-1.00	1.80	 	 	 	 	 	 	 	 	 	 	 	 	 	 	 	 	 	 	1581491844	7.56	14.00
12/02/2020 07:17:25	120220	12022020	071725	187.22	12.954492	-57.103612	187.46	0.270	0.240	1.030	187.28	-1.10	1.50	 	 	 	 	 	 	 	 	 	 	 	 	 	 	 	 	 	 	1581491845	6.90	12.78
12/02/2020 07:17:26	120220	12022020	071726	187.35	12.954458	-57.103617	187.51	0.430	-0.730	1.240	187.32	-2.10	1.70	 	 	 	 	 	 	 	 	 	 	 	 	 	 	 	 	 	 	1581491846	7.33	13.58
12/02/2020 07:17:27	120220	12022020	071727	187.04	12.954420	-57.103623	187.16	0.580	-1.830	1.930	186.94	-3.20	2.40	 	 	 	 	 	 	 	 	 	 	 	 	 	 	 	 	 	 	1581491847	8.32	15.41
12/02/2020 07:17:28	120220	12022020	071728	186.46	12.954380	-57.103632	186.58	0.340	-2.040	2.870	186.34	-3.40	3.30	 	 	 	 	 	 	 	 	 	 	 	 	 	 	 	 	 	 	1581491848	8.74	16.19
12/02/2020 07:17:29	120220	12022020	071729	185.98	12.954343	-57.103642	186.17	-0.310	-1.120	3.520	185.93	-2.50	4.00	 	 	 	 	 	 	 	 	 	 	 	 	 	 	 	 	 	 	1581491849	8.23	15.24
12/02/2020 07:17:30	120220	12022020	071730	185.91	12.954312	-57.103655	186.18	-0.950	0.310	3.510	185.91	-1.10	4.00	 	 	 	 	 	 	 	 	 	 	 	 	 	 	 	 	 	 	1581491850	7.42	13.74
12/02/2020 07:17:31	120220	12022020	071731	186.19	12.954282	-57.103667	186.48	-1.050	1.290	2.890	186.27	-0.10	3.40	 	 	 	 	 	 	 	 	 	 	 	 	 	 	 	 	 	 	1581491851	6.93	12.83
12/02/2020 07:17:32	120220	12022020	071732	186.54	12.954248	-57.103673	186.92	-0.570	1.210	2.000	186.64	-0.10	2.50	 	 	 	 	 	 	 	 	 	 	 	 	 	 	 	 	 	 	1581491852	7.15	13.24
12/02/2020 07:17:33	120220	12022020	071733	186.93	12.954212	-57.103677	187.12	0.100	0.180	1.490	186.92	-1.10	2.00	 	 	 	 	 	 	 	 	 	 	 	 	 	 	 	 	 	 	1581491853	8.08	14.96
12/02/2020 07:17:34	120220	12022020	071734	186.69	12.954170	-57.103682	186.80	0.620	-0.970	1.650	186.59	-2.30	2.10	 	 	 	 	 	 	 	 	 	 	 	 	 	 	 	 	 	 	1581491854	8.92	16.52
12/02/2020 07:17:35	120220	12022020	071735	186.27	12.954128	-57.103688	186.44	0.770	-1.140	1.980	186.23	-2.50	2.50	 	 	 	 	 	 	 	 	 	 	 	 	 	 	 	 	 	 	1581491855	9.06	16.78
12/02/2020 07:17:36	120220	12022020	071736	186.30	12.954092	-57.103695	186.58	0.540	-0.210	1.910	186.38	-1.60	2.40	 	 	 	 	 	 	 	 	 	 	 	 	 	 	 	 	 	 	1581491856	8.03	14.87
12/02/2020 07:17:37	120220	12022020	071737	186.83	12.954060	-57.103700	187.16	0.080	0.650	1.510	186.97	-0.70	2.00	 	 	 	 	 	 	 	 	 	 	 	 	 	 	 	 	 	 	1581491857	6.74	12.48
12/02/2020 07:17:38	120220	12022020	071738	187.40	12.954030	-57.103703	187.67	-0.380	0.440	1.390	187.47	-0.90	1.90	 	 	 	 	 	 	 	 	 	 	 	 	 	 	 	 	 	 	1581491858	6.63	12.28
12/02/2020 07:17:39	120220	12022020	071739	187.50	12.953995	-57.103710	187.67	-0.570	-0.680	1.830	187.46	-2.00	2.30	 	 	 	 	 	 	 	 	 	 	 	 	 	 	 	 	 	 	1581491859	7.70	14.26
12/02/2020 07:17:40	120220	12022020	071740	187.16	12.953955	-57.103723	187.29	-0.370	-1.560	2.420	187.07	-2.90	2.90	 	 	 	 	 	 	 	 	 	 	 	 	 	 	 	 	 	 	1581491860	8.82	16.33
12/02/2020 07:17:41	120220	12022020	071741	186.59	12.953917	-57.103737	186.81	0.060	-1.420	2.700	186.59	-2.80	3.20	 	 	 	 	 	 	 	 	 	 	 	 	 	 	 	 	 	 	1581491861	8.78	16.26
12/02/2020 07:17:42	120220	12022020	071742	186.24	12.953882	-57.103745	186.37	0.370	-0.630	2.640	186.16	-2.00	3.20	 	 	 	 	 	 	 	 	 	 	 	 	 	 	 	 	 	 	1581491862	7.81	14.46
12/02/2020 07:17:43	120220	12022020	071743	186.02	12.953848	-57.103750	186.22	0.300	0.160	2.330	186.02	-1.20	2.80	 	 	 	 	 	 	 	 	 	 	 	 	 	 	 	 	 	 	1581491863	7.37	13.65
12/02/2020 07:17:44	120220	12022020	071744	186.09	12.953813	-57.103753	186.33	-0.060	0.680	2.010	186.13	-0.70	2.50	 	 	 	 	 	 	 	 	 	 	 	 	 	 	 	 	 	 	1581491864	7.46	13.82
12/02/2020 07:17:45	120220	12022020	071745	186.30	12.953778	-57.103758	186.53	-0.360	0.890	1.850	186.33	-0.50	2.40	 	 	 	 	 	 	 	 	 	 	 	 	 	 	 	 	 	 	1581491865	7.62	14.11
12/02/2020 07:17:46	120220	12022020	071746	186.48	12.953743	-57.103767	186.69	-0.320	0.750	1.850	186.50	-0.60	2.30	 	 	 	 	 	 	 	 	 	 	 	 	 	 	 	 	 	 	1581491866	7.74	14.33
12/02/2020 07:17:47	120220	12022020	071747	186.52	12.953707	-57.103775	186.70	0.070	0.140	1.840	186.51	-1.20	2.30	 	 	 	 	 	 	 	 	 	 	 	 	 	 	 	 	 	 	1581491867	7.88	14.59
12/02/2020 07:17:48	120220	12022020	071748	186.41	12.953670	-57.103783	186.56	0.590	-0.730	1.750	186.37	-2.10	2.30	 	 	 	 	 	 	 	 	 	 	 	 	 	 	 	 	 	 	1581491868	8.19	15.17
12/02/2020 07:17:49	120220	12022020	071749	186.26	12.953632	-57.103788	186.45	0.730	-1.220	1.630	186.26	-2.60	2.10	 	 	 	 	 	 	 	 	 	 	 	 	 	 	 	 	 	 	1581491869	8.41	15.58
12/02/2020 07:17:50	120220	12022020	071750	186.40	12.953593	-57.103792	186.65	0.180	-0.960	1.540	186.47	-2.40	2.00	 	 	 	 	 	 	 	 	 	 	 	 	 	 	 	 	 	 	1581491870	8.02	14.85
12/02/2020 07:17:51	120220	12022020	071751	186.80	12.953562	-57.103798	187.07	-0.650	-0.550	1.670	186.88	-1.90	2.20	 	 	 	 	 	 	 	 	 	 	 	 	 	 	 	 	 	 	1581491871	7.22	13.37
12/02/2020 07:17:52	120220	12022020	071752	187.03	12.953528	-57.103808	187.23	-0.970	-0.600	2.030	187.03	-2.00	2.50	 	 	 	 	 	 	 	 	 	 	 	 	 	 	 	 	 	 	1581491872	7.24	13.41
12/02/2020 07:17:53	120220	12022020	071753	186.90	12.953493	-57.103822	187.06	-0.440	-0.980	2.260	186.85	-2.30	2.70	 	 	 	 	 	 	 	 	 	 	 	 	 	 	 	 	 	 	1581491873	8.06	14.93
12/02/2020 07:17:54	120220	12022020	071754	186.66	12.953455	-57.103832	186.70	0.350	-1.020	2.420	186.58	-2.40	2.90	 	 	 	 	 	 	 	 	 	 	 	 	 	 	 	 	 	 	1581491874	8.61	15.95
12/02/2020 07:17:55	120220	12022020	071755	186.13	12.953417	-57.103837	186.25	0.690	-0.490	2.700	186.04	-1.90	3.20	 	 	 	 	 	 	 	 	 	 	 	 	 	 	 	 	 	 	1581491875	8.51	15.76
12/02/2020 07:17:56	120220	12022020	071756	185.81	12.953378	-57.103843	186.03	0.330	0.570	2.790	185.81	-0.90	3.30	 	 	 	 	 	 	 	 	 	 	 	 	 	 	 	 	 	 	1581491876	8.08	14.96
12/02/2020 07:17:57	120220	12022020	071757	186.04	12.953345	-57.103848	186.36	-0.410	1.780	2.470	186.15	0.40	3.00	 	 	 	 	 	 	 	 	 	 	 	 	 	 	 	 	 	 	1581491877	7.46	13.82
12/02/2020 07:17:58	120220	12022020	071758	186.70	12.953313	-57.103852	187.02	-0.930	2.110	2.040	186.83	0.70	2.60	 	 	 	 	 	 	 	 	 	 	 	 	 	 	 	 	 	 	1581491878	6.84	12.67
12/02/2020 07:17:59	120220	12022020	071759	187.22	12.953280	-57.103860	187.46	-0.770	0.880	1.890	187.27	-0.40	2.40	 	 	 	 	 	 	 	 	 	 	 	 	 	 	 	 	 	 	1581491879	7.32	13.56
12/02/2020 07:18:00	120220	12022020	071800	187.35	12.953240	-57.103870	187.53	0.020	-1.050	2.010	187.33	-2.30	2.50	 	 	 	 	 	 	 	 	 	 	 	 	 	 	 	 	 	 	1581491880	8.71	16.13
12/02/2020 07:18:01	120220	12022020	071801	187.18	12.953198	-57.103883	187.33	0.880	-2.150	2.040	187.13	-3.50	2.50	1014.90	26.20	26.20	20.70	20.70	-1.0	71.0	71.0	418.0	25.9	274.00	10.20	78.00	10.70	16	9478.0	27.3	27.3	1581491881	9.31	17.24
12/02/2020 07:18:02	120220	12022020	071802	186.89	12.953162	-57.103892	187.02	1.220	-1.840	1.880	186.82	-3.30	2.40	 	 	 	 	 	 	 	 	 	 	 	 	 	 	 	 	 	 	1581491882	8.36	15.48
12/02/2020 07:18:03	120220	12022020	071803	186.54	12.953128	-57.103895	186.73	0.840	-0.880	1.620	186.54	-2.30	2.10	 	 	 	 	 	 	 	 	 	 	 	 	 	 	 	 	 	 	1581491883	7.03	13.02
12/02/2020 07:18:04	120220	12022020	071804	186.37	12.953098	-57.103898	186.51	0.100	-0.290	1.580	186.32	-1.70	2.10	 	 	 	 	 	 	 	 	 	 	 	 	 	 	 	 	 	 	1581491884	6.63	12.28
12/02/2020 07:18:05	120220	12022020	071805	186.07	12.953065	-57.103905	186.19	-0.330	-0.350	1.890	185.99	-1.70	2.40	 	 	 	 	 	 	 	 	 	 	 	 	 	 	 	 	 	 	1581491885	7.37	13.65
12/02/2020 07:18:06	120220	12022020	071806	185.74	12.953027	-57.103917	185.90	-0.230	-0.360	2.190	185.70	-1.70	2.70	 	 	 	 	 	 	 	 	 	 	 	 	 	 	 	 	 	 	1581491886	8.43	15.61
12/02/2020 07:18:07	120220	12022020	071807	185.80	12.952988	-57.103925	186.08	0.020	0.160	2.150	185.89	-1.30	2.70	 	 	 	 	 	 	 	 	 	 	 	 	 	 	 	 	 	 	1581491887	8.52	15.78
12/02/2020 07:18:08	120220	12022020	071808	186.35	12.952952	-57.103932	186.66	-0.110	0.730	1.900	186.47	-0.70	2.40	 	 	 	 	 	 	 	 	 	 	 	 	 	 	 	 	 	 	1581491888	7.83	14.50
12/02/2020 07:18:09	120220	12022020	071809	186.82	12.952918	-57.103937	187.07	-0.550	0.630	1.900	186.87	-0.70	2.40	 	 	 	 	 	 	 	 	 	 	 	 	 	 	 	 	 	 	1581491889	7.45	13.80
12/02/2020 07:18:10	120220	12022020	071810	186.92	12.952882	-57.103945	187.11	-0.820	-0.050	2.360	186.90	-1.40	2.80	 	 	 	 	 	 	 	 	 	 	 	 	 	 	 	 	 	 	1581491890	7.91	14.65
12/02/2020 07:18:11	120220	12022020	071811	186.76	12.952843	-57.103957	186.94	-0.620	-0.580	2.770	186.71	-1.90	3.20	 	 	 	 	 	 	 	 	 	 	 	 	 	 	 	 	 	 	1581491891	8.49	15.72
12/02/2020 07:18:12	120220	12022020	071812	186.42	12.952807	-57.103968	186.54	-0.150	-0.730	3.110	186.31	-2.10	3.60	 	 	 	 	 	 	 	 	 	 	 	 	 	 	 	 	 	 	1581491892	8.24	15.26
12/02/2020 07:18:13	120220	12022020	071813	185.78	12.952772	-57.103978	185.87	0.260	-0.820	3.420	185.64	-2.20	3.90	 	 	 	 	 	 	 	 	 	 	 	 	 	 	 	 	 	 	1581491893	7.86	14.56
12/02/2020 07:18:14	120220	12022020	071814	185.09	12.952737	-57.103988	185.32	0.470	-0.760	3.320	185.09	-2.10	3.80	 	 	 	 	 	 	 	 	 	 	 	 	 	 	 	 	 	 	1581491894	8.03	14.87
12/02/2020 07:18:15	120220	12022020	071815	184.98	12.952700	-57.103997	185.21	0.660	-0.170	2.640	185.00	-1.60	3.20	 	 	 	 	 	 	 	 	 	 	 	 	 	 	 	 	 	 	1581491895	7.98	14.78
12/02/2020 07:18:16	120220	12022020	071816	185.20	12.952667	-57.104000	185.44	0.910	0.650	1.670	185.26	-0.70	2.20	 	 	 	 	 	 	 	 	 	 	 	 	 	 	 	 	 	 	1581491896	7.31	13.54
12/02/2020 07:18:17	120220	12022020	071817	185.46	12.952633	-57.103998	185.65	0.970	0.750	1.040	185.48	-0.60	1.60	 	 	 	 	 	 	 	 	 	 	 	 	 	 	 	 	 	 	1581491897	6.98	12.93
12/02/2020 07:18:18	120220	12022020	071818	185.49	12.952598	-57.103997	185.66	0.590	-0.000	1.190	185.48	-1.40	1.70	 	 	 	 	 	 	 	 	 	 	 	 	 	 	 	 	 	 	1581491898	7.63	14.13
12/02/2020 07:18:19	120220	12022020	071819	185.43	12.952560	-57.104002	185.61	-0.210	-0.750	2.050	185.42	-2.10	2.50	 	 	 	 	 	 	 	 	 	 	 	 	 	 	 	 	 	 	1581491899	8.31	15.39
12/02/2020 07:18:20	120220	12022020	071820	185.36	12.952523	-57.104015	185.51	-0.980	-0.960	3.150	185.33	-2.30	3.60	 	 	 	 	 	 	 	 	 	 	 	 	 	 	 	 	 	 	1581491900	8.38	15.52
12/02/2020 07:18:21	120220	12022020	071821	185.17	12.952488	-57.104032	185.39	-1.250	-0.860	3.830	185.15	-2.20	4.30	 	 	 	 	 	 	 	 	 	 	 	 	 	 	 	 	 	 	1581491901	8.14	15.08
12/02/2020 07:18:22	120220	12022020	071822	185.19	12.952455	-57.104048	185.44	-0.880	-0.670	3.630	185.22	-2.00	4.10	 	 	 	 	 	 	 	 	 	 	 	 	 	 	 	 	 	 	1581491902	7.97	14.76
12/02/2020 07:18:23	120220	12022020	071823	185.39	12.952422	-57.104058	185.63	-0.150	-0.480	2.710	185.43	-1.90	3.30	 	 	 	 	 	 	 	 	 	 	 	 	 	 	 	 	 	 	1581491903	7.71	14.28
12/02/2020 07:18:24	120220	12022020	071824	185.44	12.952387	-57.104063	185.59	0.600	-0.530	1.760	185.40	-1.90	2.30	 	 	 	 	 	 	 	 	 	 	 	 	 	 	 	 	 	 	1581491904	7.64	14.15
12/02/2020 07:18:25	120220	12022020	071825	185.19	12.952348	-57.104063	185.32	1.040	-0.640	1.150	185.15	-2.00	1.70	 	 	 	 	 	 	 	 	 	 	 	 	 	 	 	 	 	 	1581491905	8.07	14.95
12/02/2020 07:18:26	120220	12022020	071826	185.08	12.952310	-57.104062	185.24	0.790	-0.180	0.930	185.08	-1.60	1.50	 	 	 	 	 	 	 	 	 	 	 	 	 	 	 	 	 	 	1581491906	8.35	15.46
12/02/2020 07:18:27	120220	12022020	071827	185.18	12.952275	-57.104062	185.36	0.040	0.580	1.100	185.21	-0.80	1.60	 	 	 	 	 	 	 	 	 	 	 	 	 	 	 	 	 	 	1581491907	7.63	14.13
12/02/2020 07:18:28	120220	12022020	071828	185.25	12.952242	-57.104067	185.39	-0.610	0.800	1.550	185.24	-0.60	2.00	 	 	 	 	 	 	 	 	 	 	 	 	 	 	 	 	 	 	1581491908	7.13	13.20
12/02/2020 07:18:29	120220	12022020	071829	185.13	12.952207	-57.104075	185.27	-0.760	0.240	2.350	185.10	-1.10	2.80	 	 	 	 	 	 	 	 	 	 	 	 	 	 	 	 	 	 	1581491909	7.72	14.30
12/02/2020 07:18:30	120220	12022020	071830	185.14	12.952168	-57.104088	185.36	-0.540	-0.380	3.010	185.18	-1.70	3.50	 	 	 	 	 	 	 	 	 	 	 	 	 	 	 	 	 	 	1581491910	8.64	16.00
12/02/2020 07:18:31	120220	12022020	071831	185.46	12.952130	-57.104102	185.73	-0.290	-0.400	3.070	185.55	-1.80	3.60	 	 	 	 	 	 	 	 	 	 	 	 	 	 	 	 	 	 	1581491911	8.64	16.00
12/02/2020 07:18:32	120220	12022020	071832	185.94	12.952097	-57.104113	186.23	-0.110	0.090	2.650	186.05	-1.30	3.20	 	 	 	 	 	 	 	 	 	 	 	 	 	 	 	 	 	 	1581491912	7.73	14.32
12/02/2020 07:18:33	120220	12022020	071833	186.47	12.952065	-57.104120	186.74	0.090	0.460	1.860	186.58	-0.90	2.40	 	 	 	 	 	 	 	 	 	 	 	 	 	 	 	 	 	 	1581491913	6.86	12.70
12/02/2020 07:18:34	120220	12022020	071834	186.91	12.952033	-57.104125	187.11	0.400	0.230	0.970	186.97	-1.10	1.50	 	 	 	 	 	 	 	 	 	 	 	 	 	 	 	 	 	 	1581491914	6.79	12.58
12/02/2020 07:18:35	120220	12022020	071835	187.03	12.952000	-57.104125	187.15	0.700	-0.750	0.480	187.01	-2.10	1.00	 	 	 	 	 	 	 	 	 	 	 	 	 	 	 	 	 	 	1581491915	7.35	13.61
12/02/2020 07:18:36	120220	12022020	071836	186.71	12.951962	-57.104128	186.77	0.860	-1.960	0.740	186.60	-3.30	1.20	 	 	 	 	 	 	 	 	 	 	 	 	 	 	 	 	 	 	1581491916	8.23	15.24
12/02/2020 07:18:37	120220	12022020	071837	185.99	12.951922	-57.104133	186.03	0.730	-2.380	1.490	185.83	-3.80	2.00	 	 	 	 	 	 	 	 	 	 	 	 	 	 	 	 	 	 	1581491917	8.74	16.19
12/02/2020 07:18:38	120220	12022020	071838	185.32	12.951883	-57.104142	185.46	0.250	-1.440	2.110	185.25	-2.90	2.60	 	 	 	 	 	 	 	 	 	 	 	 	 	 	 	 	 	 	1581491918	8.41	15.58
12/02/2020 07:18:39	120220	12022020	071839	185.16	12.951850	-57.104150	185.39	-0.420	0.230	2.290	185.19	-1.20	2.80	 	 	 	 	 	 	 	 	 	 	 	 	 	 	 	 	 	 	1581491919	7.38	13.67
12/02/2020 07:18:40	120220	12022020	071840	185.38	12.951818	-57.104157	185.63	-0.940	1.330	2.280	185.44	-0.10	2.80	 	 	 	 	 	 	 	 	 	 	 	 	 	 	 	 	 	 	1581491920	6.81	12.61
12/02/2020 07:18:41	120220	12022020	071841	185.78	12.951785	-57.104165	186.05	-1.150	1.470	2.190	185.88	0.10	2.70	 	 	 	 	 	 	 	 	 	 	 	 	 	 	 	 	 	 	1581491921	7.36	13.63
12/02/2020 07:18:42	120220	12022020	071842	186.29	12.951748	-57.104173	186.56	-1.080	0.900	2.190	186.38	-0.50	2.70	 	 	 	 	 	 	 	 	 	 	 	 	 	 	 	 	 	 	1581491922	8.11	15.02
12/02/2020 07:18:43	120220	12022020	071843	186.70	12.951710	-57.104183	186.95	-0.750	0.070	2.260	186.76	-1.30	2.80	 	 	 	 	 	 	 	 	 	 	 	 	 	 	 	 	 	 	1581491923	8.51	15.76
12/02/2020 07:18:44	120220	12022020	071844	186.88	12.951673	-57.104195	187.09	-0.150	-0.580	2.240	186.90	-1.90	2.70	 	 	 	 	 	 	 	 	 	 	 	 	 	 	 	 	 	 	1581491924	8.49	15.72
12/02/2020 07:18:45	120220	12022020	071845	186.72	12.951637	-57.104205	186.83	0.550	-0.880	2.170	186.64	-2.30	2.70	 	 	 	 	 	 	 	 	 	 	 	 	 	 	 	 	 	 	1581491925	8.07	14.95
12/02/2020 07:18:46	120220	12022020	071846	186.24	12.951602	-57.104212	186.34	1.040	-0.830	2.040	186.15	-2.20	2.50	 	 	 	 	 	 	 	 	 	 	 	 	 	 	 	 	 	 	1581491926	7.66	14.19
12/02/2020 07:18:47	120220	12022020	071847	185.87	12.951567	-57.104215	186.02	1.040	-0.480	1.670	185.83	-1.90	2.20	 	 	 	 	 	 	 	 	 	 	 	 	 	 	 	 	 	 	1581491927	7.46	13.82
12/02/2020 07:18:48	120220	12022020	071848	185.75	12.951533	-57.104217	185.91	0.680	-0.150	1.300	185.74	-1.50	1.80	 	 	 	 	 	 	 	 	 	 	 	 	 	 	 	 	 	 	1581491928	7.26	13.45
12/02/2020 07:18:49	120220	12022020	071849	185.76	12.951500	-57.104220	185.95	0.340	-0.040	1.100	185.79	-1.40	1.60	 	 	 	 	 	 	 	 	 	 	 	 	 	 	 	 	 	 	1581491929	7.33	13.58
12/02/2020 07:18:50	120220	12022020	071850	185.90	12.951463	-57.104223	186.09	0.130	-0.110	1.160	185.92	-1.50	1.60	 	 	 	 	 	 	 	 	 	 	 	 	 	 	 	 	 	 	1581491930	7.65	14.17
12/02/2020 07:18:51	120220	12022020	071851	186.02	12.951428	-57.104228	186.20	-0.060	-0.300	1.540	186.04	-1.70	2.00	 	 	 	 	 	 	 	 	 	 	 	 	 	 	 	 	 	 	1581491931	7.84	14.52
12/02/2020 07:18:52	120220	12022020	071852	186.08	12.951392	-57.104237	186.26	-0.360	-0.520	2.240	186.08	-1.90	2.70	 	 	 	 	 	 	 	 	 	 	 	 	 	 	 	 	 	 	1581491932	8.01	14.83
12/02/2020 07:18:53	120220	12022020	071853	186.05	12.951355	-57.104250	186.23	-0.670	-0.600	3.000	186.04	-2.00	3.50	 	 	 	 	 	 	 	 	 	 	 	 	 	 	 	 	 	 	1581491933	8.18	15.15
12/02/2020 07:18:54	120220	12022020	071854	186.04	12.951320	-57.104263	186.26	-0.750	-0.440	3.230	186.07	-1.80	3.70	 	 	 	 	 	 	 	 	 	 	 	 	 	 	 	 	 	 	1581491934	8.21	15.20
12/02/2020 07:18:55	120220	12022020	071855	186.19	12.951285	-57.104277	186.42	-0.510	-0.090	2.830	186.23	-1.50	3.30	 	 	 	 	 	 	 	 	 	 	 	 	 	 	 	 	 	 	1581491935	7.88	14.59
12/02/2020 07:18:56	120220	12022020	071856	186.40	12.951252	-57.104285	186.62	-0.110	0.220	2.110	186.44	-1.20	2.60	 	 	 	 	 	 	 	 	 	 	 	 	 	 	 	 	 	 	1581491936	7.46	13.82
12/02/2020 07:18:57	120220	12022020	071857	186.57	12.951218	-57.104288	186.75	0.350	0.100	1.150	186.59	-1.30	1.70	 	 	 	 	 	 	 	 	 	 	 	 	 	 	 	 	 	 	1581491937	7.40	13.70
12/02/2020 07:18:58	120220	12022020	071858	186.54	12.951182	-57.104288	186.65	0.720	-0.430	0.440	186.48	-1.80	0.90	 	 	 	 	 	 	 	 	 	 	 	 	 	 	 	 	 	 	1581491938	7.87	14.58
12/02/2020 07:18:59	120220	12022020	071859	186.19	12.951142	-57.104288	186.30	0.850	-0.900	0.450	186.13	-2.30	0.90	 	 	 	 	 	 	 	 	 	 	 	 	 	 	 	 	 	 	1581491939	8.41	15.58
12/02/2020 07:19:00	120220	12022020	071900	185.98	12.951103	-57.104290	186.17	0.520	-0.690	0.930	185.98	-2.10	1.40	 	 	 	 	 	 	 	 	 	 	 	 	 	 	 	 	 	 	1581491940	8.45	15.65
12/02/2020 07:19:01	120220	12022020	071901	186.09	12.951067	-57.104295	186.32	-0.250	0.050	1.780	186.13	-1.40	2.20	1014.80	26.10	26.20	20.60	20.60	-1.0	71.0	71.0	422.0	25.9	275.00	10.30	79.00	10.70	16	10074.0	27.3	27.3	1581491941	7.74	14.33
12/02/2020 07:19:02	120220	12022020	071902	186.18	12.951035	-57.104307	186.38	-0.970	0.510	2.760	186.17	-0.90	3.20	 	 	 	 	 	 	 	 	 	 	 	 	 	 	 	 	 	 	1581491942	7.22	13.37
12/02/2020 07:19:03	120220	12022020	071903	186.04	12.951003	-57.104322	186.22	-1.100	0.220	3.450	185.99	-1.10	3.90	 	 	 	 	 	 	 	 	 	 	 	 	 	 	 	 	 	 	1581491943	7.71	14.28
12/02/2020 07:19:04	120220	12022020	071904	185.84	12.950967	-57.104337	186.05	-0.620	-0.290	3.660	185.81	-1.70	4.10	 	 	 	 	 	 	 	 	 	 	 	 	 	 	 	 	 	 	1581491944	8.50	15.74
12/02/2020 07:19:05	120220	12022020	071905	185.77	12.950928	-57.104350	186.01	0.030	-0.470	3.270	185.80	-1.80	3.80	 	 	 	 	 	 	 	 	 	 	 	 	 	 	 	 	 	 	1581491945	8.52	15.78
12/02/2020 07:19:06	120220	12022020	071906	185.92	12.950892	-57.104357	186.15	0.410	-0.460	2.380	185.95	-1.80	2.90	 	 	 	 	 	 	 	 	 	 	 	 	 	 	 	 	 	 	1581491946	7.65	14.17
12/02/2020 07:19:07	120220	12022020	071907	185.99	12.950857	-57.104360	186.15	0.480	-0.480	1.550	185.98	-1.90	2.10	 	 	 	 	 	 	 	 	 	 	 	 	 	 	 	 	 	 	1581491947	7.65	14.17
12/02/2020 07:19:08	120220	12022020	071908	185.92	12.950822	-57.104363	186.10	0.450	-0.300	0.950	185.93	-1.70	1.50	 	 	 	 	 	 	 	 	 	 	 	 	 	 	 	 	 	 	1581491948	7.72	14.30
12/02/2020 07:19:09	120220	12022020	071909	186.13	12.950787	-57.104367	186.35	0.420	0.320	0.310	186.22	-1.10	0.80	 	 	 	 	 	 	 	 	 	 	 	 	 	 	 	 	 	 	1581491949	7.57	14.02
12/02/2020 07:19:10	120220	12022020	071910	186.51	12.950753	-57.104367	186.77	0.370	0.580	-0.080	186.58	-0.80	0.40	 	 	 	 	 	 	 	 	 	 	 	 	 	 	 	 	 	 	1581491950	7.02	13.00
12/02/2020 07:19:11	120220	12022020	071911	186.65	12.950720	-57.104370	186.73	0.390	-0.220	0.430	186.58	-1.60	0.90	 	 	 	 	 	 	 	 	 	 	 	 	 	 	 	 	 	 	1581491951	7.26	13.45
12/02/2020 07:19:12	120220	12022020	071912	186.10	12.950682	-57.104377	186.15	0.440	-1.460	1.720	185.97	-2.80	2.20	 	 	 	 	 	 	 	 	 	 	 	 	 	 	 	 	 	 	1581491952	8.43	15.61
12/02/2020 07:19:13	120220	12022020	071913	185.52	12.950640	-57.104387	185.65	0.200	-1.560	2.980	185.45	-3.00	3.40	 	 	 	 	 	 	 	 	 	 	 	 	 	 	 	 	 	 	1581491953	9.18	17.00
12/02/2020 07:19:14	120220	12022020	071914	185.31	12.950603	-57.104398	185.51	-0.500	-0.390	3.780	185.31	-1.80	4.20	 	 	 	 	 	 	 	 	 	 	 	 	 	 	 	 	 	 	1581491954	8.19	15.17
12/02/2020 07:19:15	120220	12022020	071915	185.41	12.950573	-57.104410	185.66	-1.310	0.630	3.990	185.45	-0.80	4.50	 	 	 	 	 	 	 	 	 	 	 	 	 	 	 	 	 	 	1581491955	6.93	12.83
12/02/2020 07:19:16	120220	12022020	071916	185.58	12.950543	-57.104423	185.79	-1.560	0.560	3.750	185.59	-0.80	4.20	 	 	 	 	 	 	 	 	 	 	 	 	 	 	 	 	 	 	1581491956	7.11	13.17
12/02/2020 07:19:17	120220	12022020	071917	185.44	12.950507	-57.104437	185.57	-0.790	-0.460	3.150	185.36	-1.80	3.70	 	 	 	 	 	 	 	 	 	 	 	 	 	 	 	 	 	 	1581491957	8.19	15.17
12/02/2020 07:19:18	120220	12022020	071918	184.97	12.950467	-57.104447	185.06	0.590	-1.270	2.300	184.87	-2.60	2.80	 	 	 	 	 	 	 	 	 	 	 	 	 	 	 	 	 	 	1581491958	9.10	16.85
12/02/2020 07:19:19	120220	12022020	071919	184.68	12.950425	-57.104450	184.84	1.430	-0.800	1.380	184.69	-2.20	1.90	 	 	 	 	 	 	 	 	 	 	 	 	 	 	 	 	 	 	1581491959	8.95	16.58
12/02/2020 07:19:20	120220	12022020	071920	184.90	12.950390	-57.104448	185.11	1.120	0.520	0.560	184.99	-0.90	1.10	 	 	 	 	 	 	 	 	 	 	 	 	 	 	 	 	 	 	1581491960	7.66	14.19
12/02/2020 07:19:21	120220	12022020	071921	185.45	12.950358	-57.104445	185.69	0.100	1.360	0.190	185.58	-0.00	0.70	 	 	 	 	 	 	 	 	 	 	 	 	 	 	 	 	 	 	1581491961	6.55	12.13
12/02/2020 07:19:22	120220	12022020	071922	186.03	12.950328	-57.104448	186.25	-0.640	0.900	0.580	186.12	-0.50	1.10	 	 	 	 	 	 	 	 	 	 	 	 	 	 	 	 	 	 	1581491962	6.71	12.43
12/02/2020 07:19:23	120220	12022020	071923	186.27	12.950292	-57.104458	186.41	-0.460	-0.450	1.380	186.25	-1.80	1.80	 	 	 	 	 	 	 	 	 	 	 	 	 	 	 	 	 	 	1581491963	7.98	14.78
12/02/2020 07:19:24	120220	12022020	071924	185.99	12.950252	-57.104470	186.07	0.320	-1.600	2.210	185.90	-3.00	2.70	 	 	 	 	 	 	 	 	 	 	 	 	 	 	 	 	 	 	1581491964	8.99	16.65
12/02/2020 07:19:25	120220	12022020	071925	185.48	12.950212	-57.104480	185.58	0.720	-1.680	2.900	185.39	-3.10	3.40	 	 	 	 	 	 	 	 	 	 	 	 	 	 	 	 	 	 	1581491965	8.87	16.43
12/02/2020 07:19:26	120220	12022020	071926	185.10	12.950177	-57.104490	185.26	0.290	-0.760	3.260	185.07	-2.20	3.70	 	 	 	 	 	 	 	 	 	 	 	 	 	 	 	 	 	 	1581491966	7.89	14.61
12/02/2020 07:19:27	120220	12022020	071927	185.05	12.950145	-57.104497	185.25	-0.530	0.360	3.100	185.08	-1.10	3.60	 	 	 	 	 	 	 	 	 	 	 	 	 	 	 	 	 	 	1581491967	6.95	12.87
12/02/2020 07:19:28	120220	12022020	071928	185.22	12.950115	-57.104505	185.42	-0.920	0.900	2.590	185.26	-0.50	3.10	 	 	 	 	 	 	 	 	 	 	 	 	 	 	 	 	 	 	1581491968	6.72	12.45
12/02/2020 07:19:29	120220	12022020	071929	185.46	12.950082	-57.104513	185.67	-0.570	0.560	1.890	185.51	-0.80	2.40	 	 	 	 	 	 	 	 	 	 	 	 	 	 	 	 	 	 	1581491969	7.23	13.39
12/02/2020 07:19:30	120220	12022020	071930	185.68	12.950045	-57.104518	185.86	0.200	-0.360	1.240	185.70	-1.70	1.70	 	 	 	 	 	 	 	 	 	 	 	 	 	 	 	 	 	 	1581491970	8.05	14.91
12/02/2020 07:19:31	120220	12022020	071931	185.58	12.950005	-57.104522	185.66	0.830	-1.300	1.050	185.51	-2.70	1.50	 	 	 	 	 	 	 	 	 	 	 	 	 	 	 	 	 	 	1581491971	8.59	15.91
12/02/2020 07:19:32	120220	12022020	071932	185.16	12.949965	-57.104527	185.25	0.940	-1.580	1.230	185.09	-3.00	1.70	 	 	 	 	 	 	 	 	 	 	 	 	 	 	 	 	 	 	1581491972	8.74	16.19
12/02/2020 07:19:33	120220	12022020	071933	184.99	12.949927	-57.104530	185.17	0.430	-0.660	1.480	185.02	-2.10	2.00	 	 	 	 	 	 	 	 	 	 	 	 	 	 	 	 	 	 	1581491973	8.24	15.26
12/02/2020 07:19:34	120220	12022020	071934	185.29	12.949895	-57.104537	185.51	-0.420	0.670	1.630	185.38	-0.80	2.10	 	 	 	 	 	 	 	 	 	 	 	 	 	 	 	 	 	 	1581491974	7.08	13.11
12/02/2020 07:19:35	120220	12022020	071935	185.66	12.949865	-57.104543	185.85	-1.000	1.110	1.860	185.71	-0.30	2.30	 	 	 	 	 	 	 	 	 	 	 	 	 	 	 	 	 	 	1581491975	6.61	12.24
12/02/2020 07:19:36	120220	12022020	071936	185.80	12.949830	-57.104553	185.96	-0.890	0.390	2.180	185.80	-1.00	2.60	 	 	 	 	 	 	 	 	 	 	 	 	 	 	 	 	 	 	1581491976	7.58	14.04
12/02/2020 07:19:37	120220	12022020	071937	185.79	12.949792	-57.104565	185.94	-0.250	-0.510	2.360	185.77	-1.90	2.80	 	 	 	 	 	 	 	 	 	 	 	 	 	 	 	 	 	 	1581491977	8.79	16.28
12/02/2020 07:19:38	120220	12022020	071938	185.69	12.949752	-57.104573	185.83	0.320	-0.740	2.330	185.68	-2.10	2.80	 	 	 	 	 	 	 	 	 	 	 	 	 	 	 	 	 	 	1581491978	8.85	16.39
12/02/2020 07:19:39	120220	12022020	071939	185.60	12.949715	-57.104580	185.75	0.460	-0.270	2.060	185.59	-1.70	2.60	 	 	 	 	 	 	 	 	 	 	 	 	 	 	 	 	 	 	1581491979	8.00	14.82
12/02/2020 07:19:40	120220	12022020	071940	185.58	12.949682	-57.104583	185.74	0.250	0.260	1.680	185.59	-1.10	2.20	 	 	 	 	 	 	 	 	 	 	 	 	 	 	 	 	 	 	1581491980	7.14	13.22
12/02/2020 07:19:41	120220	12022020	071941	185.68	12.949648	-57.104588	185.84	0.040	0.390	1.200	185.71	-1.00	1.70	 	 	 	 	 	 	 	 	 	 	 	 	 	 	 	 	 	 	1581491981	6.96	12.89
12/02/2020 07:19:42	120220	12022020	071942	185.75	12.949615	-57.104592	185.87	0.100	-0.060	0.920	185.75	-1.40	1.40	 	 	 	 	 	 	 	 	 	 	 	 	 	 	 	 	 	 	1581491982	7.30	13.52
12/02/2020 07:19:43	120220	12022020	071943	185.64	12.949578	-57.104595	185.72	0.460	-0.930	0.980	185.59	-2.30	1.50	 	 	 	 	 	 	 	 	 	 	 	 	 	 	 	 	 	 	1581491983	7.89	14.61
12/02/2020 07:19:44	120220	12022020	071944	185.37	12.949540	-57.104602	185.43	0.750	-1.570	1.350	185.30	-2.90	1.80	 	 	 	 	 	 	 	 	 	 	 	 	 	 	 	 	 	 	1581491984	8.48	15.70
12/02/2020 07:19:45	120220	12022020	071945	185.06	12.949500	-57.104607	185.15	0.550	-1.390	1.920	185.02	-2.80	2.40	 	 	 	 	 	 	 	 	 	 	 	 	 	 	 	 	 	 	1581491985	8.47	15.69
12/02/2020 07:19:46	120220	12022020	071946	184.93	12.949465	-57.104615	185.07	-0.170	-0.500	2.460	184.94	-1.90	2.90	 	 	 	 	 	 	 	 	 	 	 	 	 	 	 	 	 	 	1581491986	7.84	14.52
12/02/2020 07:19:47	120220	12022020	071947	185.04	12.949432	-57.104623	185.24	-0.970	0.400	2.830	185.09	-1.00	3.30	 	 	 	 	 	 	 	 	 	 	 	 	 	 	 	 	 	 	1581491987	7.29	13.50
12/02/2020 07:19:48	120220	12022020	071948	185.30	12.949400	-57.104635	185.49	-1.240	0.670	2.890	185.34	-0.70	3.40	 	 	 	 	 	 	 	 	 	 	 	 	 	 	 	 	 	 	1581491988	7.41	13.72
12/02/2020 07:19:49	120220	12022020	071949	185.47	12.949365	-57.104647	185.65	-0.820	0.330	2.720	185.48	-1.00	3.20	 	 	 	 	 	 	 	 	 	 	 	 	 	 	 	 	 	 	1581491989	8.02	14.85
12/02/2020 07:19:50	120220	12022020	071950	185.50	12.949325	-57.104655	185.68	-0.080	0.010	2.430	185.51	-1.40	2.90	 	 	 	 	 	 	 	 	 	 	 	 	 	 	 	 	 	 	1581491990	8.52	15.78
12/02/2020 07:19:51	120220	12022020	071951	185.60	12.949287	-57.104662	185.78	0.450	0.130	1.840	185.63	-1.30	2.40	 	 	 	 	 	 	 	 	 	 	 	 	 	 	 	 	 	 	1581491991	8.33	15.43
12/02/2020 07:19:52	120220	12022020	071952	185.83	12.949252	-57.104663	186.01	0.580	0.390	1.090	185.89	-1.00	1.60	 	 	 	 	 	 	 	 	 	 	 	 	 	 	 	 	 	 	1581491992	7.64	14.15
12/02/2020 07:19:53	120220	12022020	071953	186.14	12.949218	-57.104663	186.30	0.470	0.250	0.610	186.19	-1.10	1.10	 	 	 	 	 	 	 	 	 	 	 	 	 	 	 	 	 	 	1581491993	7.31	13.54
12/02/2020 07:19:54	120220	12022020	071954	186.28	12.949183	-57.104665	186.40	0.440	-0.440	0.670	186.27	-1.80	1.20	 	 	 	 	 	 	 	 	 	 	 	 	 	 	 	 	 	 	1581491994	7.51	13.91
12/02/2020 07:19:55	120220	12022020	071955	186.12	12.949147	-57.104670	186.20	0.590	-1.200	1.100	186.05	-2.60	1.60	 	 	 	 	 	 	 	 	 	 	 	 	 	 	 	 	 	 	1581491995	8.05	14.91
12/02/2020 07:19:56	120220	12022020	071956	185.74	12.949108	-57.104677	185.82	0.640	-1.480	1.640	185.66	-2.90	2.10	 	 	 	 	 	 	 	 	 	 	 	 	 	 	 	 	 	 	1581491996	8.30	15.37
12/02/2020 07:19:57	120220	12022020	071957	185.36	12.949072	-57.104683	185.47	0.230	-1.220	2.230	185.30	-2.60	2.70	 	 	 	 	 	 	 	 	 	 	 	 	 	 	 	 	 	 	1581491997	8.03	14.87
12/02/2020 07:19:58	120220	12022020	071958	185.14	12.949037	-57.104692	185.30	-0.540	-0.590	2.900	185.12	-2.00	3.40	 	 	 	 	 	 	 	 	 	 	 	 	 	 	 	 	 	 	1581491998	7.76	14.37
12/02/2020 07:19:59	120220	12022020	071959	185.14	12.949002	-57.104703	185.34	-1.180	0.150	3.360	185.16	-1.20	3.80	 	 	 	 	 	 	 	 	 	 	 	 	 	 	 	 	 	 	1581491999	7.67	14.20
12/02/2020 07:20:00	120220	12022020	072000	185.22	12.948968	-57.104717	185.43	-1.190	0.450	3.360	185.23	-0.90	3.80	 	 	 	 	 	 	 	 	 	 	 	 	 	 	 	 	 	 	1581492000	7.66	14.19
12/02/2020 07:20:01	120220	12022020	072001	185.30	12.948933	-57.104727	185.50	-0.540	0.210	2.970	185.32	-1.20	3.50	1014.90	26.20	26.20	20.70	20.70	-1.0	71.0	71.0	420.0	25.9	274.00	9.70	76.00	10.30	16	9135.0	27.3	27.3	1581492001	8.11	15.02
12/02/2020 07:20:02	120220	12022020	072002	185.40	12.948893	-57.104735	185.66	0.280	0.110	2.280	185.44	-1.30	2.80	 	 	 	 	 	 	 	 	 	 	 	 	 	 	 	 	 	 	1581492002	8.54	15.82
12/02/2020 07:20:03	120220	12022020	072003	185.73	12.948855	-57.104738	185.96	0.780	0.370	1.300	185.79	-1.00	1.80	 	 	 	 	 	 	 	 	 	 	 	 	 	 	 	 	 	 	1581492003	8.20	15.19
12/02/2020 07:20:04	120220	12022020	072004	186.03	12.948820	-57.104738	186.21	0.800	0.430	0.540	186.07	-0.90	1.10	 	 	 	 	 	 	 	 	 	 	 	 	 	 	 	 	 	 	1581492004	7.65	14.17
12/02/2020 07:20:05	120220	12022020	072005	186.13	12.948785	-57.104737	186.25	0.570	-0.010	0.540	186.12	-1.40	1.00	 	 	 	 	 	 	 	 	 	 	 	 	 	 	 	 	 	 	1581492005	7.62	14.11
12/02/2020 07:20:06	120220	12022020	072006	186.03	12.948748	-57.104740	186.16	0.260	-0.580	1.080	186.00	-1.90	1.50	 	 	 	 	 	 	 	 	 	 	 	 	 	 	 	 	 	 	1581492006	7.95	14.72
12/02/2020 07:20:07	120220	12022020	072007	185.82	12.948712	-57.104747	185.94	-0.130	-0.950	1.890	185.76	-2.30	2.40	 	 	 	 	 	 	 	 	 	 	 	 	 	 	 	 	 	 	1581492007	8.05	14.91
12/02/2020 07:20:08	120220	12022020	072008	185.55	12.948675	-57.104757	185.69	-0.460	-1.080	2.560	185.51	-2.40	3.00	 	 	 	 	 	 	 	 	 	 	 	 	 	 	 	 	 	 	1581492008	7.98	14.78
12/02/2020 07:20:09	120220	12022020	072009	185.40	12.948640	-57.104768	185.55	-0.540	-1.040	2.730	185.39	-2.40	3.20	 	 	 	 	 	 	 	 	 	 	 	 	 	 	 	 	 	 	1581492009	7.99	14.80
12/02/2020 07:20:10	120220	12022020	072010	185.38	12.948605	-57.104780	185.53	-0.280	-0.780	2.540	185.38	-2.20	3.00	 	 	 	 	 	 	 	 	 	 	 	 	 	 	 	 	 	 	1581492010	7.97	14.76
12/02/2020 07:20:11	120220	12022020	072011	185.41	12.948568	-57.104788	185.55	0.160	-0.410	2.110	185.41	-1.80	2.60	 	 	 	 	 	 	 	 	 	 	 	 	 	 	 	 	 	 	1581492011	7.87	14.58
12/02/2020 07:20:12	120220	12022020	072012	185.41	12.948533	-57.104792	185.54	0.450	-0.100	1.590	185.41	-1.50	2.10	 	 	 	 	 	 	 	 	 	 	 	 	 	 	 	 	 	 	1581492012	7.85	14.54
12/02/2020 07:20:13	120220	12022020	072013	185.40	12.948495	-57.104793	185.54	0.390	0.120	1.310	185.40	-1.30	1.80	 	 	 	 	 	 	 	 	 	 	 	 	 	 	 	 	 	 	1581492013	8.02	14.85
12/02/2020 07:20:14	120220	12022020	072014	185.50	12.948458	-57.104795	185.66	-0.020	0.390	1.380	185.52	-1.00	1.90	 	 	 	 	 	 	 	 	 	 	 	 	 	 	 	 	 	 	1581492014	8.10	15.00
12/02/2020 07:20:15	120220	12022020	072015	185.57	12.948422	-57.104800	185.71	-0.490	0.580	1.850	185.57	-0.80	2.30	 	 	 	 	 	 	 	 	 	 	 	 	 	 	 	 	 	 	1581492015	7.89	14.61
12/02/2020 07:20:16	120220	12022020	072016	185.52	12.948387	-57.104810	185.66	-0.610	0.490	2.330	185.52	-0.90	2.80	 	 	 	 	 	 	 	 	 	 	 	 	 	 	 	 	 	 	1581492016	7.93	14.69
12/02/2020 07:20:17	120220	12022020	072017	185.65	12.948350	-57.104822	185.85	-0.310	0.320	2.320	185.72	-1.10	2.80	 	 	 	 	 	 	 	 	 	 	 	 	 	 	 	 	 	 	1581492017	8.15	15.09
12/02/2020 07:20:18	120220	12022020	072018	186.09	12.948313	-57.104830	186.33	0.140	0.070	1.890	186.20	-1.30	2.40	 	 	 	 	 	 	 	 	 	 	 	 	 	 	 	 	 	 	1581492018	7.94	14.70
12/02/2020 07:20:19	120220	12022020	072019	186.64	12.948278	-57.104837	186.87	0.480	-0.400	1.370	186.74	-1.80	1.90	 	 	 	 	 	 	 	 	 	 	 	 	 	 	 	 	 	 	1581492019	7.70	14.26
12/02/2020 07:20:20	120220	12022020	072020	186.96	12.948243	-57.104840	187.11	0.670	-1.070	1.060	186.97	-2.50	1.60	 	 	 	 	 	 	 	 	 	 	 	 	 	 	 	 	 	 	1581492020	7.74	14.33
12/02/2020 07:20:21	120220	12022020	072021	186.82	12.948205	-57.104843	186.90	0.680	-1.560	1.250	186.74	-2.90	1.70	 	 	 	 	 	 	 	 	 	 	 	 	 	 	 	 	 	 	1581492021	7.98	14.78
12/02/2020 07:20:22	120220	12022020	072022	186.36	12.948168	-57.104848	186.43	0.440	-1.460	1.770	186.26	-2.90	2.20	 	 	 	 	 	 	 	 	 	 	 	 	 	 	 	 	 	 	1581492022	8.02	14.85
12/02/2020 07:20:23	120220	12022020	072023	185.93	12.948133	-57.104855	186.02	0.000	-0.910	2.350	185.85	-2.30	2.80	 	 	 	 	 	 	 	 	 	 	 	 	 	 	 	 	 	 	1581492023	7.78	14.41
12/02/2020 07:20:24	120220	12022020	072024	185.61	12.948098	-57.104863	185.62	-0.370	-0.510	3.000	185.53	-1.90	3.50	 	 	 	 	 	 	 	 	 	 	 	 	 	 	 	 	 	 	1581492024	7.74	14.33
12/02/2020 07:20:25	120220	12022020	072025	185.36	12.948062	-57.104877	185.57	-0.590	-0.040	3.300	185.41	-1.50	3.80	 	 	 	 	 	 	 	 	 	 	 	 	 	 	 	 	 	 	1581492025	8.38	15.52
12/02/2020 07:20:26	120220	12022020	072026	185.84	12.948023	-57.104888	186.19	-0.700	0.870	2.980	186.01	-0.60	3.50	 	 	 	 	 	 	 	 	 	 	 	 	 	 	 	 	 	 	1581492026	8.40	15.56
12/02/2020 07:20:27	120220	12022020	072027	186.80	12.947990	-57.104898	187.14	-0.680	1.630	2.260	186.97	0.20	2.80	 	 	 	 	 	 	 	 	 	 	 	 	 	 	 	 	 	 	1581492027	7.56	14.00
12/02/2020 07:20:28	120220	12022020	072028	187.59	12.947957	-57.104903	187.83	-0.390	1.310	1.450	187.68	-0.00	2.00	 	 	 	 	 	 	 	 	 	 	 	 	 	 	 	 	 	 	1581492028	7.18	13.30
12/02/2020 07:20:29	120220	12022020	072029	187.78	12.947920	-57.104907	187.88	0.130	-0.020	1.040	187.74	-1.40	1.50	 	 	 	 	 	 	 	 	 	 	 	 	 	 	 	 	 	 	1581492029	7.98	14.78
12/02/2020 07:20:30	120220	12022020	072030	187.45	12.947880	-57.104912	187.54	0.530	-1.150	1.180	187.37	-2.50	1.70	 	 	 	 	 	 	 	 	 	 	 	 	 	 	 	 	 	 	1581492030	8.86	16.41
12/02/2020 07:20:31	120220	12022020	072031	187.17	12.947840	-57.104918	187.31	0.570	-1.220	1.220	187.16	-2.60	1.70	 	 	 	 	 	 	 	 	 	 	 	 	 	 	 	 	 	 	1581492031	8.57	15.87
12/02/2020 07:20:32	120220	12022020	072032	187.22	12.947807	-57.104925	187.39	0.400	-0.650	1.000	187.24	-2.10	1.50	 	 	 	 	 	 	 	 	 	 	 	 	 	 	 	 	 	 	1581492032	7.43	13.76
12/02/2020 07:20:33	120220	12022020	072033	187.24	12.947775	-57.104930	187.37	0.370	-0.420	1.010	187.20	-1.80	1.50	 	 	 	 	 	 	 	 	 	 	 	 	 	 	 	 	 	 	1581492033	6.78	12.56
12/02/2020 07:20:34	120220	12022020	072034	186.96	12.947742	-57.104937	187.05	0.500	-0.800	1.500	186.88	-2.20	2.00	 	 	 	 	 	 	 	 	 	 	 	 	 	 	 	 	 	 	1581492034	7.36	13.63
12/02/2020 07:20:35	120220	12022020	072035	186.53	12.947703	-57.104945	186.62	0.380	-1.130	2.290	186.43	-2.50	2.70	 	 	 	 	 	 	 	 	 	 	 	 	 	 	 	 	 	 	1581492035	8.32	15.41
12/02/2020 07:20:36	120220	12022020	072036	186.12	12.947665	-57.104955	186.13	-0.180	-0.820	3.070	186.02	-2.20	3.50	 	 	 	 	 	 	 	 	 	 	 	 	 	 	 	 	 	 	1581492036	8.60	15.93
12/02/2020 07:20:37	120220	12022020	072037	185.74	12.947628	-57.104968	185.97	-0.920	0.140	3.390	185.76	-1.30	3.90	 	 	 	 	 	 	 	 	 	 	 	 	 	 	 	 	 	 	1581492037	8.21	15.20
12/02/2020 07:20:38	120220	12022020	072038	185.96	12.947597	-57.104982	186.36	-1.300	1.110	2.980	186.05	-0.30	3.50	 	 	 	 	 	 	 	 	 	 	 	 	 	 	 	 	 	 	1581492038	7.58	14.04
12/02/2020 07:20:39	120220	12022020	072039	186.61	12.947563	-57.104992	186.87	-0.850	1.150	2.070	186.70	-0.20	2.60	 	 	 	 	 	 	 	 	 	 	 	 	 	 	 	 	 	 	1581492039	7.24	13.41
12/02/2020 07:20:40	120220	12022020	072040	186.88	12.947528	-57.104998	187.05	0.220	0.060	1.320	186.90	-1.30	1.80	 	 	 	 	 	 	 	 	 	 	 	 	 	 	 	 	 	 	1581492040	7.92	14.67
12/02/2020 07:20:41	120220	12022020	072041	187.02	12.947487	-57.105002	187.20	0.960	-0.870	1.160	187.05	-2.20	1.60	 	 	 	 	 	 	 	 	 	 	 	 	 	 	 	 	 	 	1581492041	9.04	16.74
12/02/2020 07:20:42	120220	12022020	072042	187.25	12.947445	-57.105007	187.40	0.720	-0.690	1.450	187.25	-2.10	1.90	 	 	 	 	 	 	 	 	 	 	 	 	 	 	 	 	 	 	1581492042	8.70	16.11
12/02/2020 07:20:43	120220	12022020	072043	187.35	12.947413	-57.105013	187.51	-0.050	0.100	1.820	187.35	-1.30	2.30	 	 	 	 	 	 	 	 	 	 	 	 	 	 	 	 	 	 	1581492043	7.29	13.50
12/02/2020 07:20:44	120220	12022020	072044	187.28	12.947383	-57.105023	187.40	-0.410	0.320	2.160	187.25	-1.10	2.60	 	 	 	 	 	 	 	 	 	 	 	 	 	 	 	 	 	 	1581492044	6.57	12.17
12/02/2020 07:20:45	120220	12022020	072045	187.04	12.947352	-57.105033	187.15	-0.030	-0.450	2.350	186.98	-1.80	2.80	 	 	 	 	 	 	 	 	 	 	 	 	 	 	 	 	 	 	1581492045	7.27	13.46
12/02/2020 07:20:46	120220	12022020	072046	186.74	12.947313	-57.105042	186.87	0.520	-1.290	2.460	186.68	-2.60	2.90	 	 	 	 	 	 	 	 	 	 	 	 	 	 	 	 	 	 	1581492046	8.45	15.65
12/02/2020 07:20:47	120220	12022020	072047	186.41	12.947273	-57.105050	186.54	0.550	-1.320	2.730	186.32	-2.70	3.20	 	 	 	 	 	 	 	 	 	 	 	 	 	 	 	 	 	 	1581492047	8.69	16.09
12/02/2020 07:20:48	120220	12022020	072048	186.00	12.947237	-57.105058	186.14	0.040	-0.530	3.130	185.93	-1.90	3.60	 	 	 	 	 	 	 	 	 	 	 	 	 	 	 	 	 	 	1581492048	7.99	14.80
12/02/2020 07:20:49	120220	12022020	072049	185.81	12.947205	-57.105068	186.02	-0.530	0.540	3.240	185.82	-0.90	3.70	 	 	 	 	 	 	 	 	 	 	 	 	 	 	 	 	 	 	1581492049	7.33	13.58
12/02/2020 07:20:50	120220	12022020	072050	185.96	12.947173	-57.105078	186.27	-0.650	1.130	2.900	186.02	-0.30	3.40	 	 	 	 	 	 	 	 	 	 	 	 	 	 	 	 	 	 	1581492050	7.03	13.02
12/02/2020 07:20:51	120220	12022020	072051	186.39	12.947140	-57.105087	186.62	-0.250	0.750	2.140	186.46	-0.60	2.70	 	 	 	 	 	 	 	 	 	 	 	 	 	 	 	 	 	 	1581492051	7.34	13.59
12/02/2020 07:20:52	120220	12022020	072052	186.67	12.947103	-57.105093	186.85	0.350	-0.240	1.390	186.70	-1.60	1.90	 	 	 	 	 	 	 	 	 	 	 	 	 	 	 	 	 	 	1581492052	8.11	15.02
12/02/2020 07:20:53	120220	12022020	072053	186.73	12.947063	-57.105097	186.87	0.690	-1.020	0.950	186.72	-2.40	1.40	 	 	 	 	 	 	 	 	 	 	 	 	 	 	 	 	 	 	1581492053	8.59	15.91
12/02/2020 07:20:54	120220	12022020	072054	186.69	12.947025	-57.105100	186.84	0.480	-1.030	1.000	186.69	-2.40	1.50	 	 	 	 	 	 	 	 	 	 	 	 	 	 	 	 	 	 	1581492054	8.29	15.35
12/02/2020 07:20:55	120220	12022020	072055	186.70	12.946990	-57.105105	186.87	-0.150	-0.500	1.550	186.70	-1.90	2.00	 	 	 	 	 	 	 	 	 	 	 	 	 	 	 	 	 	 	1581492055	7.45	13.80
12/02/2020 07:20:56	120220	12022020	072056	186.59	12.946958	-57.105113	186.70	-0.640	-0.230	2.280	186.53	-1.60	2.70	 	 	 	 	 	 	 	 	 	 	 	 	 	 	 	 	 	 	1581492056	6.98	12.93
12/02/2020 07:20:57	120220	12022020	072057	186.12	12.946925	-57.105127	186.16	-0.530	-0.610	2.940	185.99	-2.00	3.40	 	 	 	 	 	 	 	 	 	 	 	 	 	 	 	 	 	 	1581492057	7.60	14.08
12/02/2020 07:20:58	120220	12022020	072058	185.49	12.946888	-57.105138	185.60	-0.050	-0.880	3.400	185.40	-2.20	3.90	 	 	 	 	 	 	 	 	 	 	 	 	 	 	 	 	 	 	1581492058	8.59	15.91
12/02/2020 07:20:59	120220	12022020	072059	185.22	12.946850	-57.105150	185.43	0.240	-0.230	3.220	185.23	-1.60	3.70	 	 	 	 	 	 	 	 	 	 	 	 	 	 	 	 	 	 	1581492059	8.62	15.96
12/02/2020 07:21:00	120220	12022020	072100	185.47	12.946815	-57.105157	185.75	0.080	0.880	2.420	185.57	-0.50	2.90	 	 	 	 	 	 	 	 	 	 	 	 	 	 	 	 	 	 	1581492060	7.48	13.85
12/02/2020 07:21:01	120220	12022020	072101	185.96	12.946783	-57.105158	186.20	-0.220	1.230	1.630	186.04	-0.10	2.10	1014.90	26.10	26.20	20.70	20.70	-1.0	71.0	72.0	411.0	25.9	273.00	10.40	78.00	11.00	16	10192.0	27.3	27.2	1581492061	6.70	12.41
12/02/2020 07:21:02	120220	12022020	072102	186.26	12.946750	-57.105162	186.44	-0.170	0.380	1.230	186.29	-0.90	1.70	 	 	 	 	 	 	 	 	 	 	 	 	 	 	 	 	 	 	1581492062	7.21	13.35
12/02/2020 07:21:03	120220	12022020	072103	186.37	12.946712	-57.105167	186.53	0.140	-0.720	1.220	186.38	-2.10	1.70	 	 	 	 	 	 	 	 	 	 	 	 	 	 	 	 	 	 	1581492063	8.35	15.46
12/02/2020 07:21:04	120220	12022020	072104	186.39	12.946673	-57.105173	186.57	0.250	-1.160	1.550	186.39	-2.50	2.00	 	 	 	 	 	 	 	 	 	 	 	 	 	 	 	 	 	 	1581492064	8.52	15.78
12/02/2020 07:21:05	120220	12022020	072105	186.33	12.946638	-57.105182	186.48	0.100	-1.000	1.880	186.30	-2.40	2.30	 	 	 	 	 	 	 	 	 	 	 	 	 	 	 	 	 	 	1581492065	7.81	14.46
12/02/2020 07:21:06	120220	12022020	072106	186.14	12.946605	-57.105192	186.27	0.040	-0.770	2.070	186.10	-2.10	2.50	 	 	 	 	 	 	 	 	 	 	 	 	 	 	 	 	 	 	1581492066	7.33	13.58
12/02/2020 07:21:07	120220	12022020	072107	185.94	12.946572	-57.105200	186.08	0.250	-0.610	2.060	185.91	-2.00	2.50	 	 	 	 	 	 	 	 	 	 	 	 	 	 	 	 	 	 	1581492067	7.49	13.87
12/02/2020 07:21:08	120220	12022020	072108	185.82	12.946535	-57.105207	185.96	0.430	-0.400	1.960	185.81	-1.80	2.40	 	 	 	 	 	 	 	 	 	 	 	 	 	 	 	 	 	 	1581492068	7.77	14.39
12/02/2020 07:21:09	120220	12022020	072109	185.73	12.946500	-57.105210	185.85	0.200	-0.120	2.060	185.69	-1.50	2.50	 	 	 	 	 	 	 	 	 	 	 	 	 	 	 	 	 	 	1581492069	7.85	14.54
12/02/2020 07:21:10	120220	12022020	072110	185.55	12.946463	-57.105217	185.71	-0.340	0.230	2.460	185.53	-1.20	2.90	 	 	 	 	 	 	 	 	 	 	 	 	 	 	 	 	 	 	1581492070	7.79	14.43
12/02/2020 07:21:11	120220	12022020	072111	185.55	12.946428	-57.105227	185.74	-0.780	0.550	2.760	185.58	-0.80	3.20	 	 	 	 	 	 	 	 	 	 	 	 	 	 	 	 	 	 	1581492071	7.78	14.41
12/02/2020 07:21:12	120220	12022020	072112	185.79	12.946395	-57.105238	186.01	-0.740	0.700	2.730	185.86	-0.70	3.20	 	 	 	 	 	 	 	 	 	 	 	 	 	 	 	 	 	 	1581492072	7.71	14.28
12/02/2020 07:21:13	120220	12022020	072113	186.13	12.946360	-57.105247	186.34	-0.340	0.360	2.410	186.18	-1.00	2.90	 	 	 	 	 	 	 	 	 	 	 	 	 	 	 	 	 	 	1581492073	7.61	14.09
12/02/2020 07:21:14	120220	12022020	072114	186.27	12.946325	-57.105253	186.42	0.150	-0.420	2.050	186.27	-1.80	2.50	 	 	 	 	 	 	 	 	 	 	 	 	 	 	 	 	 	 	1581492074	7.89	14.61
12/02/2020 07:21:15	120220	12022020	072115	186.09	12.946287	-57.105260	186.26	0.520	-1.060	1.840	186.09	-2.40	2.30	 	 	 	 	 	 	 	 	 	 	 	 	 	 	 	 	 	 	1581492075	8.28	15.33
12/02/2020 07:21:16	120220	12022020	072116	185.97	12.946248	-57.105267	186.09	0.630	-0.920	1.610	185.96	-2.30	2.10	 	 	 	 	 	 	 	 	 	 	 	 	 	 	 	 	 	 	1581492076	8.13	15.06
12/02/2020 07:21:17	120220	12022020	072117	185.92	12.946215	-57.105272	186.04	0.530	-0.310	1.360	185.91	-1.70	1.90	 	 	 	 	 	 	 	 	 	 	 	 	 	 	 	 	 	 	1581492077	7.31	13.54
12/02/2020 07:21:18	120220	12022020	072118	185.84	12.946183	-57.105275	185.94	0.400	-0.080	1.300	185.82	-1.40	1.80	 	 	 	 	 	 	 	 	 	 	 	 	 	 	 	 	 	 	1581492078	6.87	12.72
12/02/2020 07:21:19	120220	12022020	072119	185.66	12.946150	-57.105278	185.75	0.340	-0.480	1.560	185.62	-1.80	2.00	 	 	 	 	 	 	 	 	 	 	 	 	 	 	 	 	 	 	1581492079	7.39	13.69
12/02/2020 07:21:20	120220	12022020	072120	185.49	12.946112	-57.105283	185.62	0.180	-0.930	1.940	185.48	-2.30	2.40	 	 	 	 	 	 	 	 	 	 	 	 	 	 	 	 	 	 	1581492080	8.26	15.30
12/02/2020 07:21:21	120220	12022020	072121	185.52	12.946073	-57.105290	185.69	-0.310	-0.870	2.570	185.53	-2.20	3.00	 	 	 	 	 	 	 	 	 	 	 	 	 	 	 	 	 	 	1581492081	8.47	15.69
12/02/2020 07:21:22	120220	12022020	072122	185.54	12.946037	-57.105300	185.71	-1.030	-0.390	3.470	185.52	-1.80	3.90	 	 	 	 	 	 	 	 	 	 	 	 	 	 	 	 	 	 	1581492082	8.07	14.95
12/02/2020 07:21:23	120220	12022020	072123	185.36	12.946003	-57.105315	185.51	-1.460	0.110	4.200	185.31	-1.30	4.70	 	 	 	 	 	 	 	 	 	 	 	 	 	 	 	 	 	 	1581492083	7.93	14.69
12/02/2020 07:21:24	120220	12022020	072124	185.09	12.945968	-57.105333	185.25	-1.150	0.340	4.300	185.04	-1.00	4.80	 	 	 	 	 	 	 	 	 	 	 	 	 	 	 	 	 	 	1581492084	8.16	15.11
12/02/2020 07:21:25	120220	12022020	072125	184.91	12.945933	-57.105347	185.10	-0.120	0.340	3.610	184.90	-1.00	4.10	 	 	 	 	 	 	 	 	 	 	 	 	 	 	 	 	 	 	1581492085	8.26	15.30
12/02/2020 07:21:26	120220	12022020	072126	185.18	12.945895	-57.105353	185.34	0.960	0.470	2.150	185.18	-0.90	2.70	 	 	 	 	 	 	 	 	 	 	 	 	 	 	 	 	 	 	1581492086	8.17	15.13
12/02/2020 07:21:27	120220	12022020	072127	185.76	12.945858	-57.105350	186.06	1.290	0.790	0.470	185.92	-0.60	1.00	 	 	 	 	 	 	 	 	 	 	 	 	 	 	 	 	 	 	1581492087	7.89	14.61
12/02/2020 07:21:28	120220	12022020	072128	186.40	12.945825	-57.105343	186.75	0.800	0.740	-0.380	186.51	-0.60	0.10	 	 	 	 	 	 	 	 	 	 	 	 	 	 	 	 	 	 	1581492088	7.38	13.67
12/02/2020 07:21:29	120220	12022020	072129	186.75	12.945793	-57.105342	186.85	0.140	-0.190	0.250	186.70	-1.50	0.70	 	 	 	 	 	 	 	 	 	 	 	 	 	 	 	 	 	 	1581492089	7.05	13.06
12/02/2020 07:21:30	120220	12022020	072130	186.24	12.945758	-57.105350	186.27	-0.040	-1.590	1.780	186.09	-2.90	2.20	 	 	 	 	 	 	 	 	 	 	 	 	 	 	 	 	 	 	1581492090	7.75	14.35
12/02/2020 07:21:31	120220	12022020	072131	185.41	12.945720	-57.105367	185.46	0.290	-2.390	3.220	185.25	-3.70	3.60	 	 	 	 	 	 	 	 	 	 	 	 	 	 	 	 	 	 	1581492091	8.78	16.26
12/02/2020 07:21:32	120220	12022020	072132	184.68	12.945683	-57.105382	184.80	0.590	-2.040	4.020	184.58	-3.40	4.50	 	 	 	 	 	 	 	 	 	 	 	 	 	 	 	 	 	 	1581492092	8.60	15.93
12/02/2020 07:21:33	120220	12022020	072133	184.35	12.945650	-57.105393	184.54	0.360	-0.860	3.880	184.34	-2.30	4.40	 	 	 	 	 	 	 	 	 	 	 	 	 	 	 	 	 	 	1581492093	7.60	14.08
12/02/2020 07:21:34	120220	12022020	072134	184.47	12.945618	-57.105398	184.71	-0.450	0.360	3.170	184.53	-1.00	3.70	 	 	 	 	 	 	 	 	 	 	 	 	 	 	 	 	 	 	1581492094	6.86	12.70
12/02/2020 07:21:35	120220	12022020	072135	184.79	12.945587	-57.105403	185.00	-1.260	0.930	2.590	184.84	-0.40	3.10	 	 	 	 	 	 	 	 	 	 	 	 	 	 	 	 	 	 	1581492095	6.82	12.63
12/02/2020 07:21:36	120220	12022020	072136	184.90	12.945553	-57.105410	185.05	-1.330	0.590	2.330	184.90	-0.70	2.80	 	 	 	 	 	 	 	 	 	 	 	 	 	 	 	 	 	 	1581492096	7.48	13.85
12/02/2020 07:21:37	120220	12022020	072137	184.86	12.945515	-57.105420	185.02	-0.550	-0.110	2.010	184.86	-1.40	2.50	 	 	 	 	 	 	 	 	 	 	 	 	 	 	 	 	 	 	1581492097	8.48	15.70
12/02/2020 07:21:38	120220	12022020	072138	184.94	12.945475	-57.105427	185.13	0.330	-0.320	1.560	184.98	-1.70	2.10	 	 	 	 	 	 	 	 	 	 	 	 	 	 	 	 	 	 	1581492098	8.77	16.24
12/02/2020 07:21:39	120220	12022020	072139	185.25	12.945437	-57.105430	185.46	0.590	0.110	1.100	185.34	-1.30	1.60	 	 	 	 	 	 	 	 	 	 	 	 	 	 	 	 	 	 	1581492099	8.07	14.95
12/02/2020 07:21:40	120220	12022020	072140	185.56	12.945403	-57.105432	185.77	0.260	0.510	0.870	185.61	-0.90	1.40	 	 	 	 	 	 	 	 	 	 	 	 	 	 	 	 	 	 	1581492100	7.11	13.17
12/02/2020 07:21:41	120220	12022020	072141	185.67	12.945372	-57.105435	185.76	-0.030	0.270	1.290	185.64	-1.10	1.80	 	 	 	 	 	 	 	 	 	 	 	 	 	 	 	 	 	 	1581492101	6.86	12.70
12/02/2020 07:21:42	120220	12022020	072142	185.32	12.945338	-57.105443	185.37	0.170	-0.440	2.170	185.21	-1.80	2.60	 	 	 	 	 	 	 	 	 	 	 	 	 	 	 	 	 	 	1581492102	7.50	13.89
12/02/2020 07:21:43	120220	12022020	072143	184.71	12.945302	-57.105453	184.78	0.590	-0.890	3.010	184.60	-2.20	3.50	 	 	 	 	 	 	 	 	 	 	 	 	 	 	 	 	 	 	1581492103	8.14	15.08
12/02/2020 07:21:44	120220	12022020	072144	184.32	12.945267	-57.105463	184.45	0.630	-0.720	3.350	184.29	-2.10	3.80	 	 	 	 	 	 	 	 	 	 	 	 	 	 	 	 	 	 	1581492104	7.98	14.78
12/02/2020 07:21:45	120220	12022020	072145	184.35	12.945233	-57.105472	184.54	0.200	-0.280	3.180	184.38	-1.70	3.70	 	 	 	 	 	 	 	 	 	 	 	 	 	 	 	 	 	 	1581492105	7.33	13.58
12/02/2020 07:21:46	120220	12022020	072146	184.50	12.945202	-57.105478	184.66	-0.200	-0.150	2.860	184.51	-1.50	3.30	 	 	 	 	 	 	 	 	 	 	 	 	 	 	 	 	 	 	1581492106	6.97	12.91
12/02/2020 07:21:47	120220	12022020	072147	184.48	12.945168	-57.105485	184.62	-0.150	-0.530	2.580	184.47	-1.90	3.10	 	 	 	 	 	 	 	 	 	 	 	 	 	 	 	 	 	 	1581492107	7.35	13.61
12/02/2020 07:21:48	120220	12022020	072148	184.51	12.945130	-57.105490	184.68	0.040	-0.810	2.320	184.53	-2.20	2.80	 	 	 	 	 	 	 	 	 	 	 	 	 	 	 	 	 	 	1581492108	8.08	14.96
12/02/2020 07:21:49	120220	12022020	072149	184.71	12.945093	-57.105495	184.92	-0.060	-0.590	2.140	184.77	-2.00	2.60	 	 	 	 	 	 	 	 	 	 	 	 	 	 	 	 	 	 	1581492109	8.06	14.93
12/02/2020 07:21:50	120220	12022020	072150	185.01	12.945058	-57.105502	185.19	-0.400	-0.100	1.910	185.05	-1.50	2.40	 	 	 	 	 	 	 	 	 	 	 	 	 	 	 	 	 	 	1581492110	7.54	13.96
12/02/2020 07:21:51	120220	12022020	072151	185.14	12.945025	-57.105508	185.28	-0.530	0.210	1.680	185.13	-1.20	2.20	 	 	 	 	 	 	 	 	 	 	 	 	 	 	 	 	 	 	1581492111	7.23	13.39
12/02/2020 07:21:52	120220	12022020	072152	185.06	12.944992	-57.105515	185.17	-0.180	0.110	1.450	185.04	-1.20	2.00	 	 	 	 	 	 	 	 	 	 	 	 	 	 	 	 	 	 	1581492112	7.40	13.70
12/02/2020 07:21:53	120220	12022020	072153	184.98	12.944955	-57.105520	185.09	0.270	-0.110	1.410	184.96	-1.50	1.90	 	 	 	 	 	 	 	 	 	 	 	 	 	 	 	 	 	 	1581492113	7.85	14.54
12/02/2020 07:21:54	120220	12022020	072154	184.87	12.944918	-57.105522	184.99	0.320	-0.190	1.660	184.84	-1.50	2.10	 	 	 	 	 	 	 	 	 	 	 	 	 	 	 	 	 	 	1581492114	7.95	14.72
12/02/2020 07:21:55	120220	12022020	072155	184.68	12.944883	-57.105527	184.78	-0.020	-0.250	2.130	184.63	-1.60	2.60	 	 	 	 	 	 	 	 	 	 	 	 	 	 	 	 	 	 	1581492115	7.74	14.33
12/02/2020 07:21:56	120220	12022020	072156	184.41	12.944848	-57.105537	184.53	-0.320	-0.390	2.650	184.36	-1.70	3.10	 	 	 	 	 	 	 	 	 	 	 	 	 	 	 	 	 	 	1581492116	7.81	14.46
12/02/2020 07:21:57	120220	12022020	072157	184.23	12.944812	-57.105548	184.39	-0.250	-0.270	2.840	184.23	-1.60	3.30	 	 	 	 	 	 	 	 	 	 	 	 	 	 	 	 	 	 	1581492117	8.07	14.95
12/02/2020 07:21:58	120220	12022020	072158	184.38	12.944778	-57.105558	184.61	0.090	0.180	2.410	184.45	-1.20	2.90	 	 	 	 	 	 	 	 	 	 	 	 	 	 	 	 	 	 	1581492118	7.76	14.37
12/02/2020 07:21:59	120220	12022020	072159	184.79	12.944745	-57.105563	185.01	0.390	0.370	1.670	184.87	-1.00	2.20	 	 	 	 	 	 	 	 	 	 	 	 	 	 	 	 	 	 	1581492119	7.11	13.17
12/02/2020 07:22:00	120220	12022020	072200	185.04	12.944712	-57.105565	185.17	0.490	-0.190	1.100	185.04	-1.50	1.60	 	 	 	 	 	 	 	 	 	 	 	 	 	 	 	 	 	 	1581492120	7.20	13.33
12/02/2020 07:22:01	120220	12022020	072201	184.91	12.944675	-57.105567	184.98	0.300	-1.030	1.270	184.84	-2.40	1.80	1014.80	26.10	26.10	20.10	20.30	-1.0	69.0	70.0	401.0	25.9	271.00	11.10	76.00	11.70	16	9641.0	27.3	27.2	1581492121	7.96	14.74
12/02/2020 07:22:02	120220	12022020	072202	184.52	12.944637	-57.105572	184.59	-0.090	-1.270	2.000	184.43	-2.60	2.50	 	 	 	 	 	 	 	 	 	 	 	 	 	 	 	 	 	 	1581492122	8.30	15.37
12/02/2020 07:22:03	120220	12022020	072203	184.18	12.944600	-57.105582	184.28	-0.450	-0.680	2.600	184.13	-2.10	3.10	 	 	 	 	 	 	 	 	 	 	 	 	 	 	 	 	 	 	1581492123	7.92	14.67
12/02/2020 07:22:04	120220	12022020	072204	183.96	12.944568	-57.105593	184.10	-0.540	0.030	2.920	183.93	-1.30	3.40	 	 	 	 	 	 	 	 	 	 	 	 	 	 	 	 	 	 	1581492124	7.34	13.59
12/02/2020 07:22:05	120220	12022020	072205	183.92	12.944537	-57.105603	184.10	-0.210	0.370	2.690	183.94	-1.00	3.20	 	 	 	 	 	 	 	 	 	 	 	 	 	 	 	 	 	 	1581492125	7.34	13.59
12/02/2020 07:22:06	120220	12022020	072206	184.10	12.944502	-57.105610	184.32	0.300	0.390	2.030	184.16	-1.00	2.50	 	 	 	 	 	 	 	 	 	 	 	 	 	 	 	 	 	 	1581492126	7.61	14.09
12/02/2020 07:22:07	120220	12022020	072207	184.41	12.944465	-57.105613	184.62	0.580	0.230	1.480	184.47	-1.10	2.00	 	 	 	 	 	 	 	 	 	 	 	 	 	 	 	 	 	 	1581492127	7.76	14.37
12/02/2020 07:22:08	120220	12022020	072208	184.63	12.944428	-57.105613	184.80	0.490	-0.130	1.440	184.65	-1.50	1.90	 	 	 	 	 	 	 	 	 	 	 	 	 	 	 	 	 	 	1581492128	7.74	14.33
12/02/2020 07:22:09	120220	12022020	072209	184.75	12.944393	-57.105617	184.91	0.150	-0.500	1.640	184.77	-1.80	2.10	 	 	 	 	 	 	 	 	 	 	 	 	 	 	 	 	 	 	1581492129	7.78	14.41
12/02/2020 07:22:10	120220	12022020	072210	184.88	12.944358	-57.105623	185.06	-0.230	-0.610	1.910	184.91	-2.00	2.40	 	 	 	 	 	 	 	 	 	 	 	 	 	 	 	 	 	 	1581492130	7.74	14.33
12/02/2020 07:22:11	120220	12022020	072211	184.99	12.944323	-57.105630	185.15	-0.520	-0.610	2.320	184.99	-2.00	2.80	 	 	 	 	 	 	 	 	 	 	 	 	 	 	 	 	 	 	1581492131	7.48	13.85
12/02/2020 07:22:12	120220	12022020	072212	184.86	12.944290	-57.105640	184.93	-0.530	-0.860	2.660	184.79	-2.20	3.10	 	 	 	 	 	 	 	 	 	 	 	 	 	 	 	 	 	 	1581492132	7.52	13.93
12/02/2020 07:22:13	120220	12022020	072213	184.38	12.944253	-57.105652	184.42	-0.120	-1.220	2.720	184.26	-2.60	3.20	 	 	 	 	 	 	 	 	 	 	 	 	 	 	 	 	 	 	1581492133	8.04	14.89
12/02/2020 07:22:14	120220	12022020	072214	183.82	12.944215	-57.105658	183.90	0.410	-1.060	2.400	183.74	-2.40	2.90	 	 	 	 	 	 	 	 	 	 	 	 	 	 	 	 	 	 	1581492134	8.40	15.56
12/02/2020 07:22:15	120220	12022020	072215	183.58	12.944178	-57.105662	183.74	0.540	-0.120	1.800	183.58	-1.50	2.30	 	 	 	 	 	 	 	 	 	 	 	 	 	 	 	 	 	 	1581492135	8.06	14.93
12/02/2020 07:22:16	120220	12022020	072216	183.78	12.944145	-57.105660	184.01	0.020	0.940	1.370	183.86	-0.40	1.90	 	 	 	 	 	 	 	 	 	 	 	 	 	 	 	 	 	 	1581492136	7.33	13.58
12/02/2020 07:22:17	120220	12022020	072217	184.19	12.944112	-57.105660	184.40	-0.790	1.310	1.520	184.26	-0.00	2.00	 	 	 	 	 	 	 	 	 	 	 	 	 	 	 	 	 	 	1581492137	6.94	12.85
12/02/2020 07:22:18	120220	12022020	072218	184.40	12.944078	-57.105668	184.61	-1.200	0.780	2.300	184.42	-0.50	2.80	 	 	 	 	 	 	 	 	 	 	 	 	 	 	 	 	 	 	1581492138	7.46	13.82
12/02/2020 07:22:19	120220	12022020	072219	184.43	12.944042	-57.105685	184.63	-0.790	-0.000	3.060	184.43	-1.30	3.50	 	 	 	 	 	 	 	 	 	 	 	 	 	 	 	 	 	 	1581492139	8.52	15.78
12/02/2020 07:22:20	120220	12022020	072220	184.45	12.944005	-57.105702	184.64	0.210	-0.330	3.100	184.46	-1.70	3.60	 	 	 	 	 	 	 	 	 	 	 	 	 	 	 	 	 	 	1581492140	8.67	16.06
12/02/2020 07:22:21	120220	12022020	072221	184.60	12.943970	-57.105710	184.80	1.150	-0.250	2.200	184.65	-1.60	2.70	 	 	 	 	 	 	 	 	 	 	 	 	 	 	 	 	 	 	1581492141	7.72	14.30
12/02/2020 07:22:22	120220	12022020	072222	184.92	12.943937	-57.105710	185.11	1.460	-0.290	1.000	184.98	-1.60	1.50	 	 	 	 	 	 	 	 	 	 	 	 	 	 	 	 	 	 	1581492142	7.06	13.08
12/02/2020 07:22:23	120220	12022020	072223	185.12	12.943903	-57.105705	185.25	1.070	-0.800	0.360	185.13	-2.10	0.90	 	 	 	 	 	 	 	 	 	 	 	 	 	 	 	 	 	 	1581492143	7.24	13.41
12/02/2020 07:22:24	120220	12022020	072224	185.00	12.943868	-57.105702	185.08	0.320	-1.560	0.710	184.93	-2.90	1.20	 	 	 	 	 	 	 	 	 	 	 	 	 	 	 	 	 	 	1581492144	7.66	14.19
12/02/2020 07:22:25	120220	12022020	072225	184.59	12.943832	-57.105708	184.66	-0.340	-1.950	1.670	184.49	-3.30	2.10	 	 	 	 	 	 	 	 	 	 	 	 	 	 	 	 	 	 	1581492145	8.11	15.02
12/02/2020 07:22:26	120220	12022020	072226	184.09	12.943795	-57.105720	184.19	-0.620	-1.590	2.600	183.99	-3.00	3.10	 	 	 	 	 	 	 	 	 	 	 	 	 	 	 	 	 	 	1581492146	8.31	15.39
12/02/2020 07:22:27	120220	12022020	072227	183.70	12.943758	-57.105732	183.84	-0.560	-0.670	3.100	183.65	-2.10	3.60	 	 	 	 	 	 	 	 	 	 	 	 	 	 	 	 	 	 	1581492147	8.03	14.87
12/02/2020 07:22:28	120220	12022020	072228	183.54	12.943725	-57.105742	183.72	-0.500	0.330	3.200	183.54	-1.10	3.70	 	 	 	 	 	 	 	 	 	 	 	 	 	 	 	 	 	 	1581492148	7.63	14.13
12/02/2020 07:22:29	120220	12022020	072229	183.59	12.943690	-57.105748	183.79	-0.690	1.040	2.990	183.62	-0.30	3.50	 	 	 	 	 	 	 	 	 	 	 	 	 	 	 	 	 	 	1581492149	7.55	13.98
12/02/2020 07:22:30	120220	12022020	072230	183.73	12.943655	-57.105753	184.04	-0.950	1.340	2.580	183.78	-0.00	3.10	 	 	 	 	 	 	 	 	 	 	 	 	 	 	 	 	 	 	1581492150	7.67	14.20
12/02/2020 07:22:31	120220	12022020	072231	184.25	12.943620	-57.105760	184.53	-0.900	1.310	1.930	184.36	-0.00	2.40	 	 	 	 	 	 	 	 	 	 	 	 	 	 	 	 	 	 	1581492151	7.80	14.45
12/02/2020 07:22:32	120220	12022020	072232	184.62	12.943583	-57.105765	184.89	-0.300	0.720	1.470	184.68	-0.60	2.00	 	 	 	 	 	 	 	 	 	 	 	 	 	 	 	 	 	 	1581492152	7.67	14.20
12/02/2020 07:22:33	120220	12022020	072233	184.79	12.943547	-57.105770	184.98	0.600	-0.390	1.280	184.81	-1.70	1.80	 	 	 	 	 	 	 	 	 	 	 	 	 	 	 	 	 	 	1581492153	7.98	14.78
12/02/2020 07:22:34	120220	12022020	072234	184.91	12.943508	-57.105775	185.09	1.170	-1.110	1.170	184.95	-2.50	1.70	 	 	 	 	 	 	 	 	 	 	 	 	 	 	 	 	 	 	1581492154	8.40	15.56
12/02/2020 07:22:35	120220	12022020	072235	185.04	12.943472	-57.105778	185.19	1.130	-1.060	1.120	185.05	-2.40	1.60	 	 	 	 	 	 	 	 	 	 	 	 	 	 	 	 	 	 	1581492155	7.84	14.52
12/02/2020 07:22:36	120220	12022020	072236	184.96	12.943440	-57.105783	185.06	0.770	-0.730	1.270	184.92	-2.10	1.80	 	 	 	 	 	 	 	 	 	 	 	 	 	 	 	 	 	 	1581492156	7.00	12.96
12/02/2020 07:22:37	120220	12022020	072237	184.68	12.943408	-57.105787	184.76	0.460	-0.580	1.690	184.61	-1.90	2.20	 	 	 	 	 	 	 	 	 	 	 	 	 	 	 	 	 	 	1581492157	6.84	12.67
12/02/2020 07:22:38	120220	12022020	072238	184.36	12.943375	-57.105793	184.46	0.240	-0.550	2.200	184.31	-1.90	2.70	 	 	 	 	 	 	 	 	 	 	 	 	 	 	 	 	 	 	1581492158	7.32	13.56
12/02/2020 07:22:39	120220	12022020	072239	184.25	12.943340	-57.105798	184.41	-0.090	-0.340	2.580	184.27	-1.70	3.10	 	 	 	 	 	 	 	 	 	 	 	 	 	 	 	 	 	 	1581492159	7.70	14.26
12/02/2020 07:22:40	120220	12022020	072240	184.50	12.943305	-57.105807	184.70	-0.530	-0.070	2.630	184.58	-1.40	3.10	 	 	 	 	 	 	 	 	 	 	 	 	 	 	 	 	 	 	1581492160	7.65	14.17
12/02/2020 07:22:41	120220	12022020	072241	184.82	12.943270	-57.105815	184.99	-0.730	-0.130	2.520	184.85	-1.50	3.00	 	 	 	 	 	 	 	 	 	 	 	 	 	 	 	 	 	 	1581492161	7.61	14.09
12/02/2020 07:22:42	120220	12022020	072242	184.84	12.943233	-57.105825	184.94	-0.460	-0.520	2.410	184.80	-1.90	2.90	 	 	 	 	 	 	 	 	 	 	 	 	 	 	 	 	 	 	1581492162	8.01	14.83
12/02/2020 07:22:43	120220	12022020	072243	184.64	12.943195	-57.105832	184.73	0.000	-0.620	2.200	184.60	-2.00	2.70	 	 	 	 	 	 	 	 	 	 	 	 	 	 	 	 	 	 	1581492163	8.42	15.59
12/02/2020 07:22:44	120220	12022020	072244	184.60	12.943158	-57.105835	184.77	0.060	-0.090	1.880	184.64	-1.50	2.40	 	 	 	 	 	 	 	 	 	 	 	 	 	 	 	 	 	 	1581492164	8.14	15.08
12/02/2020 07:22:45	120220	12022020	072245	184.92	12.943123	-57.105838	185.11	-0.390	0.500	1.590	184.98	-0.90	2.10	 	 	 	 	 	 	 	 	 	 	 	 	 	 	 	 	 	 	1581492165	7.35	13.61
12/02/2020 07:22:46	120220	12022020	072246	185.16	12.943092	-57.105845	185.28	-0.760	0.390	1.610	185.15	-0.90	2.10	 	 	 	 	 	 	 	 	 	 	 	 	 	 	 	 	 	 	1581492166	7.06	13.08
12/02/2020 07:22:47	120220	12022020	072247	184.92	12.943057	-57.105855	184.98	-0.420	-0.380	1.950	184.82	-1.70	2.40	 	 	 	 	 	 	 	 	 	 	 	 	 	 	 	 	 	 	1581492167	7.78	14.41
12/02/2020 07:22:48	120220	12022020	072248	184.38	12.943018	-57.105865	184.46	0.510	-0.800	2.250	184.29	-2.20	2.70	 	 	 	 	 	 	 	 	 	 	 	 	 	 	 	 	 	 	1581492168	8.57	15.87
12/02/2020 07:22:49	120220	12022020	072249	184.12	12.942980	-57.105872	184.30	1.180	-0.240	2.100	184.13	-1.60	2.60	 	 	 	 	 	 	 	 	 	 	 	 	 	 	 	 	 	 	1581492169	8.24	15.26
12/02/2020 07:22:50	120220	12022020	072250	184.42	12.942947	-57.105873	184.68	0.980	0.580	1.790	184.54	-0.80	2.30	 	 	 	 	 	 	 	 	 	 	 	 	 	 	 	 	 	 	1581492170	7.11	13.17
12/02/2020 07:22:51	120220	12022020	072251	184.97	12.942917	-57.105873	185.18	0.160	0.540	1.980	185.04	-0.80	2.50	 	 	 	 	 	 	 	 	 	 	 	 	 	 	 	 	 	 	1581492171	6.61	12.24
12/02/2020 07:22:52	120220	12022020	072252	185.08	12.942883	-57.105878	185.18	-0.490	-0.550	2.920	185.02	-1.90	3.40	 	 	 	 	 	 	 	 	 	 	 	 	 	 	 	 	 	 	1581492172	7.33	13.58
12/02/2020 07:22:53	120220	12022020	072253	184.63	12.942845	-57.105893	184.70	-0.480	-1.610	3.930	184.52	-2.90	4.40	 	 	 	 	 	 	 	 	 	 	 	 	 	 	 	 	 	 	1581492173	8.76	16.22
12/02/2020 07:22:54	120220	12022020	072254	184.13	12.942805	-57.105910	184.25	-0.080	-1.500	4.300	184.07	-2.90	4.80	 	 	 	 	 	 	 	 	 	 	 	 	 	 	 	 	 	 	1581492174	9.09	16.83
12/02/2020 07:22:55	120220	12022020	072255	183.93	12.942772	-57.105922	184.08	0.210	-0.390	3.730	183.93	-1.80	4.30	 	 	 	 	 	 	 	 	 	 	 	 	 	 	 	 	 	 	1581492175	7.81	14.46
12/02/2020 07:22:56	120220	12022020	072256	184.01	12.942742	-57.105927	184.16	0.230	0.580	2.470	184.04	-0.80	3.00	 	 	 	 	 	 	 	 	 	 	 	 	 	 	 	 	 	 	1581492176	6.53	12.09
12/02/2020 07:22:57	120220	12022020	072257	184.18	12.942710	-57.105925	184.29	0.140	0.540	1.250	184.19	-0.80	1.80	 	 	 	 	 	 	 	 	 	 	 	 	 	 	 	 	 	 	1581492177	6.69	12.39
12/02/2020 07:22:58	120220	12022020	072258	184.29	12.942675	-57.105922	184.40	0.080	-0.250	0.640	184.31	-1.60	1.20	 	 	 	 	 	 	 	 	 	 	 	 	 	 	 	 	 	 	1581492178	7.74	14.33
12/02/2020 07:22:59	120220	12022020	072259	184.38	12.942635	-57.105922	184.51	0.030	-0.950	0.710	184.39	-2.30	1.20	 	 	 	 	 	 	 	 	 	 	 	 	 	 	 	 	 	 	1581492179	8.45	15.65
12/02/2020 07:23:00	120220	12022020	072300	184.36	12.942597	-57.105927	184.47	-0.040	-1.020	1.170	184.33	-2.40	1.70	 	 	 	 	 	 	 	 	 	 	 	 	 	 	 	 	 	 	1581492180	8.36	15.48
12/02/2020 07:23:01	120220	12022020	072301	184.23	12.942560	-57.105935	184.35	-0.080	-0.580	1.720	184.21	-2.00	2.20	1014.80	26.20	26.20	20.40	20.40	-1.0	70.0	70.0	397.0	25.9	269.00	10.70	73.00	11.50	16	10319.0	27.3	27.3	1581492181	7.88	14.59
12/02/2020 07:23:02	120220	12022020	072302	184.21	12.942527	-57.105943	184.37	-0.130	0.030	2.110	184.22	-1.40	2.60	 	 	 	 	 	 	 	 	 	 	 	 	 	 	 	 	 	 	1581492182	7.52	13.93
12/02/2020 07:23:03	120220	12022020	072303	184.31	12.942493	-57.105952	184.48	-0.230	0.440	2.310	184.34	-0.90	2.80	 	 	 	 	 	 	 	 	 	 	 	 	 	 	 	 	 	 	1581492183	7.36	13.63
12/02/2020 07:23:04	120220	12022020	072304	184.40	12.942460	-57.105958	184.56	-0.390	0.420	2.300	184.41	-0.90	2.80	 	 	 	 	 	 	 	 	 	 	 	 	 	 	 	 	 	 	1581492184	7.45	13.80
12/02/2020 07:23:05	120220	12022020	072305	184.43	12.942423	-57.105965	184.59	-0.490	0.070	2.220	184.43	-1.30	2.70	 	 	 	 	 	 	 	 	 	 	 	 	 	 	 	 	 	 	1581492185	7.76	14.37
12/02/2020 07:23:06	120220	12022020	072306	184.45	12.942387	-57.105972	184.61	-0.390	-0.310	2.070	184.46	-1.70	2.60	 	 	 	 	 	 	 	 	 	 	 	 	 	 	 	 	 	 	1581492186	8.02	14.85
12/02/2020 07:23:07	120220	12022020	072307	184.53	12.942350	-57.105978	184.70	-0.040	-0.460	1.700	184.56	-1.80	2.20	 	 	 	 	 	 	 	 	 	 	 	 	 	 	 	 	 	 	1581492187	7.99	14.80
12/02/2020 07:23:08	120220	12022020	072308	184.66	12.942315	-57.105983	184.87	0.340	-0.330	1.330	184.70	-1.70	1.80	 	 	 	 	 	 	 	 	 	 	 	 	 	 	 	 	 	 	1581492188	7.68	14.22
12/02/2020 07:23:09	120220	12022020	072309	184.86	12.942282	-57.105987	184.99	0.580	-0.160	1.060	184.88	-1.50	1.60	 	 	 	 	 	 	 	 	 	 	 	 	 	 	 	 	 	 	1581492189	7.34	13.59
12/02/2020 07:23:10	120220	12022020	072310	184.90	12.942248	-57.105990	185.00	0.670	-0.230	0.950	184.89	-1.60	1.50	 	 	 	 	 	 	 	 	 	 	 	 	 	 	 	 	 	 	1581492190	7.28	13.48
12/02/2020 07:23:11	120220	12022020	072311	184.77	12.942212	-57.105992	184.85	0.640	-0.490	1.120	184.73	-1.80	1.60	 	 	 	 	 	 	 	 	 	 	 	 	 	 	 	 	 	 	1581492191	7.58	14.04
12/02/2020 07:23:12	120220	12022020	072312	184.56	12.942175	-57.105995	184.67	0.360	-0.770	1.630	184.53	-2.10	2.10	 	 	 	 	 	 	 	 	 	 	 	 	 	 	 	 	 	 	1581492192	7.91	14.65
12/02/2020 07:23:13	120220	12022020	072313	184.52	12.942138	-57.106000	184.70	-0.210	-0.760	2.210	184.54	-2.10	2.70	 	 	 	 	 	 	 	 	 	 	 	 	 	 	 	 	 	 	1581492193	8.09	14.98
12/02/2020 07:23:14	120220	12022020	072314	184.77	12.942103	-57.106010	185.00	-0.850	-0.310	2.640	184.85	-1.70	3.10	 	 	 	 	 	 	 	 	 	 	 	 	 	 	 	 	 	 	1581492194	7.96	14.74
12/02/2020 07:23:15	120220	12022020	072315	185.15	12.942070	-57.106022	185.36	-1.170	0.280	2.860	185.20	-1.10	3.40	 	 	 	 	 	 	 	 	 	 	 	 	 	 	 	 	 	 	1581492195	7.58	14.04
12/02/2020 07:23:16	120220	12022020	072316	185.30	12.942037	-57.106033	185.43	-0.840	0.420	2.810	185.29	-0.90	3.30	 	 	 	 	 	 	 	 	 	 	 	 	 	 	 	 	 	 	1581492196	7.36	13.63
12/02/2020 07:23:17	120220	12022020	072317	185.19	12.942002	-57.106042	185.31	-0.080	0.030	2.390	185.18	-1.30	2.90	 	 	 	 	 	 	 	 	 	 	 	 	 	 	 	 	 	 	1581492197	7.73	14.32
12/02/2020 07:23:18	120220	12022020	072318	185.15	12.941965	-57.106045	185.27	0.550	-0.420	1.740	185.16	-1.80	2.30	 	 	 	 	 	 	 	 	 	 	 	 	 	 	 	 	 	 	1581492198	8.20	15.19
12/02/2020 07:23:19	120220	12022020	072319	185.23	12.941927	-57.106047	185.34	0.690	-0.720	1.200	185.25	-2.10	1.70	 	 	 	 	 	 	 	 	 	 	 	 	 	 	 	 	 	 	1581492199	8.25	15.28
12/02/2020 07:23:20	120220	12022020	072320	185.28	12.941888	-57.106047	185.36	0.450	-0.740	1.080	185.28	-2.10	1.60	 	 	 	 	 	 	 	 	 	 	 	 	 	 	 	 	 	 	1581492200	8.06	14.93
12/02/2020 07:23:21	120220	12022020	072321	185.20	12.941852	-57.106050	185.27	0.130	-0.460	1.420	185.17	-1.90	1.90	 	 	 	 	 	 	 	 	 	 	 	 	 	 	 	 	 	 	1581492201	7.79	14.43
12/02/2020 07:23:22	120220	12022020	072322	185.12	12.941818	-57.106057	185.22	-0.100	0.100	1.760	185.12	-1.30	2.30	 	 	 	 	 	 	 	 	 	 	 	 	 	 	 	 	 	 	1581492202	7.57	14.02
12/02/2020 07:23:23	120220	12022020	072323	185.25	12.941785	-57.106063	185.41	-0.260	0.620	1.790	185.30	-0.80	2.30	 	 	 	 	 	 	 	 	 	 	 	 	 	 	 	 	 	 	1581492203	7.33	13.58
12/02/2020 07:23:24	120220	12022020	072324	185.59	12.941752	-57.106072	185.78	-0.290	0.590	1.560	185.65	-0.80	2.10	 	 	 	 	 	 	 	 	 	 	 	 	 	 	 	 	 	 	1581492204	7.27	13.46
12/02/2020 07:23:25	120220	12022020	072325	185.81	12.941717	-57.106078	185.95	-0.150	-0.060	1.450	185.82	-1.40	1.90	 	 	 	 	 	 	 	 	 	 	 	 	 	 	 	 	 	 	1581492205	7.70	14.26
12/02/2020 07:23:26	120220	12022020	072326	185.79	12.941678	-57.106083	185.92	0.040	-0.840	1.770	185.79	-2.20	2.20	 	 	 	 	 	 	 	 	 	 	 	 	 	 	 	 	 	 	1581492206	8.29	15.35
12/02/2020 07:23:27	120220	12022020	072327	185.86	12.941640	-57.106092	186.04	0.080	-1.040	2.100	185.90	-2.40	2.60	 	 	 	 	 	 	 	 	 	 	 	 	 	 	 	 	 	 	1581492207	8.47	15.69
12/02/2020 07:23:28	120220	12022020	072328	186.08	12.941603	-57.106100	186.26	-0.030	-0.500	2.130	186.12	-1.90	2.60	 	 	 	 	 	 	 	 	 	 	 	 	 	 	 	 	 	 	1581492208	7.86	14.56
12/02/2020 07:23:29	120220	12022020	072329	186.19	12.941572	-57.106108	186.32	-0.040	0.020	1.970	186.18	-1.40	2.50	 	 	 	 	 	 	 	 	 	 	 	 	 	 	 	 	 	 	1581492209	7.03	13.02
12/02/2020 07:23:30	120220	12022020	072330	186.05	12.941540	-57.106113	186.15	0.190	-0.080	1.790	186.00	-1.40	2.30	 	 	 	 	 	 	 	 	 	 	 	 	 	 	 	 	 	 	1581492210	7.05	13.06
12/02/2020 07:23:31	120220	12022020	072331	185.80	12.941503	-57.106117	185.89	0.440	-0.580	1.680	185.76	-1.90	2.20	 	 	 	 	 	 	 	 	 	 	 	 	 	 	 	 	 	 	1581492211	7.86	14.56
12/02/2020 07:23:32	120220	12022020	072332	185.69	12.941465	-57.106120	185.84	0.400	-0.870	1.650	185.70	-2.20	2.20	 	 	 	 	 	 	 	 	 	 	 	 	 	 	 	 	 	 	1581492212	8.41	15.58
12/02/2020 07:23:33	120220	12022020	072333	185.79	12.941427	-57.106125	185.95	0.030	-0.640	1.840	185.82	-2.00	2.30	 	 	 	 	 	 	 	 	 	 	 	 	 	 	 	 	 	 	1581492213	8.25	15.28
12/02/2020 07:23:34	120220	12022020	072334	185.91	12.941392	-57.106133	186.08	-0.430	-0.140	2.140	185.93	-1.50	2.60	 	 	 	 	 	 	 	 	 	 	 	 	 	 	 	 	 	 	1581492214	7.76	14.37
12/02/2020 07:23:35	120220	12022020	072335	186.07	12.941357	-57.106142	186.26	-0.710	0.290	2.330	186.11	-1.10	2.80	 	 	 	 	 	 	 	 	 	 	 	 	 	 	 	 	 	 	1581492215	7.56	14.00
12/02/2020 07:23:36	120220	12022020	072336	186.37	12.941322	-57.106152	186.58	-0.740	0.560	2.300	186.43	-0.80	2.80	 	 	 	 	 	 	 	 	 	 	 	 	 	 	 	 	 	 	1581492216	7.65	14.17
12/02/2020 07:23:37	120220	12022020	072337	186.60	12.941288	-57.106160	186.77	-0.430	0.480	2.150	186.61	-0.90	2.60	 	 	 	 	 	 	 	 	 	 	 	 	 	 	 	 	 	 	1581492217	7.71	14.28
12/02/2020 07:23:38	120220	12022020	072338	186.55	12.941252	-57.106168	186.70	0.170	0.010	1.880	186.55	-1.40	2.40	 	 	 	 	 	 	 	 	 	 	 	 	 	 	 	 	 	 	1581492218	7.90	14.63
12/02/2020 07:23:39	120220	12022020	072339	186.59	12.941213	-57.106173	186.76	0.720	-0.350	1.340	186.61	-1.70	1.90	 	 	 	 	 	 	 	 	 	 	 	 	 	 	 	 	 	 	1581492219	8.24	15.26
12/02/2020 07:23:40	120220	12022020	072340	186.74	12.941177	-57.106177	186.89	0.850	-0.290	0.940	186.76	-1.70	1.40	 	 	 	 	 	 	 	 	 	 	 	 	 	 	 	 	 	 	1581492220	7.98	14.78
12/02/2020 07:23:41	120220	12022020	072341	186.81	12.941143	-57.106178	186.93	0.520	-0.170	0.800	186.80	-1.60	1.30	 	 	 	 	 	 	 	 	 	 	 	 	 	 	 	 	 	 	1581492221	7.38	13.67
12/02/2020 07:23:42	120220	12022020	072342	186.76	12.941108	-57.106180	186.87	-0.030	-0.390	1.000	186.75	-1.80	1.50	 	 	 	 	 	 	 	 	 	 	 	 	 	 	 	 	 	 	1581492222	7.25	13.43
12/02/2020 07:23:43	120220	12022020	072343	186.71	12.941073	-57.106188	186.86	-0.430	-0.800	1.460	186.72	-2.20	1.90	 	 	 	 	 	 	 	 	 	 	 	 	 	 	 	 	 	 	1581492223	7.70	14.26
12/02/2020 07:23:44	120220	12022020	072344	186.81	12.941038	-57.106200	186.97	-0.400	-1.020	1.740	186.83	-2.40	2.20	 	 	 	 	 	 	 	 	 	 	 	 	 	 	 	 	 	 	1581492224	8.14	15.08
12/02/2020 07:23:45	120220	12022020	072345	186.85	12.941002	-57.106212	187.00	-0.030	-1.010	1.810	186.84	-2.40	2.30	 	 	 	 	 	 	 	 	 	 	 	 	 	 	 	 	 	 	1581492225	8.03	14.87
12/02/2020 07:23:46	120220	12022020	072346	186.79	12.940967	-57.106220	186.92	0.220	-0.800	1.820	186.76	-2.20	2.30	 	 	 	 	 	 	 	 	 	 	 	 	 	 	 	 	 	 	1581492226	7.95	14.72
12/02/2020 07:23:47	120220	12022020	072347	186.59	12.940930	-57.106225	186.69	0.050	-0.370	1.990	186.52	-1.80	2.50	 	 	 	 	 	 	 	 	 	 	 	 	 	 	 	 	 	 	1581492227	7.93	14.69
12/02/2020 07:23:48	120220	12022020	072348	186.16	12.940893	-57.106233	186.24	-0.290	0.020	2.270	186.08	-1.40	2.80	 	 	 	 	 	 	 	 	 	 	 	 	 	 	 	 	 	 	1581492228	7.84	14.52
12/02/2020 07:23:49	120220	12022020	072349	185.81	12.940858	-57.106243	185.93	-0.400	0.380	2.300	185.78	-1.00	2.80	 	 	 	 	 	 	 	 	 	 	 	 	 	 	 	 	 	 	1581492229	8.04	14.89
12/02/2020 07:23:50	120220	12022020	072350	185.84	12.940822	-57.106252	186.04	-0.170	0.800	1.940	185.91	-0.60	2.50	 	 	 	 	 	 	 	 	 	 	 	 	 	 	 	 	 	 	1581492230	8.01	14.83
12/02/2020 07:23:51	120220	12022020	072351	186.33	12.940785	-57.106255	186.61	0.100	0.960	1.420	186.48	-0.40	1.90	 	 	 	 	 	 	 	 	 	 	 	 	 	 	 	 	 	 	1581492231	7.74	14.33
12/02/2020 07:23:52	120220	12022020	072352	187.10	12.940750	-57.106258	187.38	0.080	0.650	1.210	187.24	-0.70	1.70	 	 	 	 	 	 	 	 	 	 	 	 	 	 	 	 	 	 	1581492232	7.64	14.15
12/02/2020 07:23:53	120220	12022020	072353	187.61	12.940715	-57.106265	187.81	-0.170	-0.090	1.580	187.64	-1.40	2.00	 	 	 	 	 	 	 	 	 	 	 	 	 	 	 	 	 	 	1581492233	7.71	14.28
12/02/2020 07:23:54	120220	12022020	072354	187.47	12.940680	-57.106275	187.55	-0.240	-1.080	2.420	187.37	-2.40	2.90	 	 	 	 	 	 	 	 	 	 	 	 	 	 	 	 	 	 	1581492234	7.93	14.69
12/02/2020 07:23:55	120220	12022020	072355	186.82	12.940643	-57.106288	186.88	0.070	-1.800	3.270	186.66	-3.20	3.70	 	 	 	 	 	 	 	 	 	 	 	 	 	 	 	 	 	 	1581492235	8.39	15.54
12/02/2020 07:23:56	120220	12022020	072356	186.15	12.940607	-57.106303	186.27	0.610	-1.710	3.440	186.06	-3.10	3.90	 	 	 	 	 	 	 	 	 	 	 	 	 	 	 	 	 	 	1581492236	8.45	15.65
12/02/2020 07:23:57	120220	12022020	072357	185.84	12.940572	-57.106312	186.01	0.950	-0.840	2.860	185.82	-2.20	3.40	 	 	 	 	 	 	 	 	 	 	 	 	 	 	 	 	 	 	1581492237	7.79	14.43
12/02/2020 07:23:58	120220	12022020	072358	185.88	12.940538	-57.106315	186.09	0.820	0.180	1.850	185.92	-1.20	2.40	 	 	 	 	 	 	 	 	 	 	 	 	 	 	 	 	 	 	1581492238	7.12	13.19
12/02/2020 07:23:59	120220	12022020	072359	186.16	12.940505	-57.106313	186.40	0.220	0.720	1.030	186.24	-0.70	1.60	 	 	 	 	 	 	 	 	 	 	 	 	 	 	 	 	 	 	1581492239	7.09	13.13
12/02/2020 07:24:00	120220	12022020	072400	186.57	12.940470	-57.106312	186.80	-0.520	0.610	0.830	186.64	-0.70	1.30	 	 	 	 	 	 	 	 	 	 	 	 	 	 	 	 	 	 	1581492240	7.47	13.83
12/02/2020 07:24:01	120220	12022020	072401	186.93	12.940433	-57.106317	187.15	-0.950	0.020	1.100	186.98	-1.30	1.60	1014.80	26.20	26.30	20.90	20.80	-1.0	72.0	72.0	398.0	25.8	272.00	9.70	75.00	10.40	16	9147.0	27.3	27.3	1581492241	7.91	14.65
12/02/2020 07:24:02	120220	12022020	072402	187.05	12.940397	-57.106327	187.21	-0.800	-0.760	1.620	187.03	-2.10	2.10	 	 	 	 	 	 	 	 	 	 	 	 	 	 	 	 	 	 	1581492242	8.41	15.58
12/02/2020 07:24:03	120220	12022020	072403	186.83	12.940357	-57.106340	186.95	-0.190	-1.230	2.090	186.76	-2.60	2.60	 	 	 	 	 	 	 	 	 	 	 	 	 	 	 	 	 	 	1581492243	8.78	16.26
12/02/2020 07:24:04	120220	12022020	072404	186.59	12.940318	-57.106352	186.77	0.300	-0.910	2.140	186.59	-2.30	2.60	 	 	 	 	 	 	 	 	 	 	 	 	 	 	 	 	 	 	1581492244	8.60	15.93
12/02/2020 07:24:05	120220	12022020	072405	186.71	12.940283	-57.106358	186.92	0.210	0.070	1.790	186.77	-1.30	2.30	 	 	 	 	 	 	 	 	 	 	 	 	 	 	 	 	 	 	1581492245	7.76	14.37
12/02/2020 07:24:06	120220	12022020	072406	187.05	12.940252	-57.106363	187.26	-0.330	0.890	1.470	187.12	-0.50	2.00	 	 	 	 	 	 	 	 	 	 	 	 	 	 	 	 	 	 	1581492246	6.86	12.70
12/02/2020 07:24:07	120220	12022020	072407	187.25	12.940220	-57.106368	187.39	-0.640	0.760	1.410	187.24	-0.60	1.90	 	 	 	 	 	 	 	 	 	 	 	 	 	 	 	 	 	 	1581492247	6.82	12.63
12/02/2020 07:24:08	120220	12022020	072408	187.05	12.940185	-57.106377	187.15	-0.330	-0.120	1.630	186.98	-1.40	2.10	 	 	 	 	 	 	 	 	 	 	 	 	 	 	 	 	 	 	1581492248	7.75	14.35
12/02/2020 07:24:09	120220	12022020	072409	186.74	12.940147	-57.106385	186.87	0.310	-0.870	1.990	186.69	-2.20	2.50	 	 	 	 	 	 	 	 	 	 	 	 	 	 	 	 	 	 	1581492249	8.59	15.91
12/02/2020 07:24:10	120220	12022020	072410	186.59	12.940108	-57.106395	186.71	0.840	-0.990	2.080	186.57	-2.40	2.60	 	 	 	 	 	 	 	 	 	 	 	 	 	 	 	 	 	 	1581492250	8.52	15.78
12/02/2020 07:24:11	120220	12022020	072411	186.44	12.940073	-57.106403	186.59	1.060	-0.580	1.850	186.43	-2.00	2.40	 	 	 	 	 	 	 	 	 	 	 	 	 	 	 	 	 	 	1581492251	7.83	14.50
12/02/2020 07:24:12	120220	12022020	072412	186.40	12.940038	-57.106407	186.57	0.950	-0.070	1.570	186.41	-1.40	2.10	 	 	 	 	 	 	 	 	 	 	 	 	 	 	 	 	 	 	1581492252	7.37	13.65
12/02/2020 07:24:13	120220	12022020	072413	186.63	12.940005	-57.106408	186.87	0.440	0.330	1.450	186.72	-1.00	1.90	 	 	 	 	 	 	 	 	 	 	 	 	 	 	 	 	 	 	1581492253	7.36	13.63
12/02/2020 07:24:14	120220	12022020	072414	187.30	12.939970	-57.106412	187.61	-0.470	0.500	1.780	187.47	-0.90	2.30	 	 	 	 	 	 	 	 	 	 	 	 	 	 	 	 	 	 	1581492254	7.37	13.65
12/02/2020 07:24:15	120220	12022020	072415	188.11	12.939937	-57.106420	188.41	-1.370	0.220	2.490	188.25	-1.10	3.00	 	 	 	 	 	 	 	 	 	 	 	 	 	 	 	 	 	 	1581492255	7.36	13.63
12/02/2020 07:24:16	120220	12022020	072416	188.54	12.939905	-57.106437	188.75	-1.510	-0.730	3.090	188.55	-2.00	3.60	 	 	 	 	 	 	 	 	 	 	 	 	 	 	 	 	 	 	1581492256	7.89	14.61
12/02/2020 07:24:17	120220	12022020	072417	188.33	12.939868	-57.106455	188.43	-0.550	-2.010	3.280	188.22	-3.30	3.80	 	 	 	 	 	 	 	 	 	 	 	 	 	 	 	 	 	 	1581492257	8.71	16.13
12/02/2020 07:24:18	120220	12022020	072418	187.63	12.939827	-57.106468	187.68	0.760	-2.430	3.200	187.46	-3.80	3.70	 	 	 	 	 	 	 	 	 	 	 	 	 	 	 	 	 	 	1581492258	9.19	17.02
12/02/2020 07:24:19	120220	12022020	072419	186.91	12.939788	-57.106475	187.03	1.340	-1.320	2.710	186.81	-2.70	3.20	 	 	 	 	 	 	 	 	 	 	 	 	 	 	 	 	 	 	1581492259	8.61	15.95
12/02/2020 07:24:20	120220	12022020	072420	186.66	12.939753	-57.106475	186.85	0.810	0.550	1.880	186.66	-0.90	2.40	 	 	 	 	 	 	 	 	 	 	 	 	 	 	 	 	 	 	1581492260	7.39	13.69
12/02/2020 07:24:21	120220	12022020	072421	186.77	12.939722	-57.106475	186.99	-0.260	1.830	1.300	186.82	0.40	1.80	 	 	 	 	 	 	 	 	 	 	 	 	 	 	 	 	 	 	1581492261	6.63	12.28
12/02/2020 07:24:22	120220	12022020	072422	187.06	12.939690	-57.106478	187.31	-1.000	2.040	1.090	187.14	0.70	1.60	 	 	 	 	 	 	 	 	 	 	 	 	 	 	 	 	 	 	1581492262	7.01	12.98
12/02/2020 07:24:23	120220	12022020	072423	187.51	12.939655	-57.106487	187.79	-1.010	1.500	0.980	187.61	0.20	1.50	 	 	 	 	 	 	 	 	 	 	 	 	 	 	 	 	 	 	1581492263	7.87	14.58
12/02/2020 07:24:24	120220	12022020	072424	187.92	12.939618	-57.106498	188.16	-0.390	0.370	1.020	187.98	-1.00	1.50	 	 	 	 	 	 	 	 	 	 	 	 	 	 	 	 	 	 	1581492264	8.24	15.26
12/02/2020 07:24:25	120220	12022020	072425	188.08	12.939580	-57.106510	188.26	0.480	-1.010	1.220	188.08	-2.30	1.70	 	 	 	 	 	 	 	 	 	 	 	 	 	 	 	 	 	 	1581492265	8.55	15.83
12/02/2020 07:24:26	120220	12022020	072426	188.05	12.939540	-57.106520	188.22	1.090	-1.940	1.390	188.04	-3.30	1.90	 	 	 	 	 	 	 	 	 	 	 	 	 	 	 	 	 	 	1581492266	8.64	16.00
12/02/2020 07:24:27	120220	12022020	072427	187.89	12.939503	-57.106527	188.05	1.070	-1.950	1.670	187.84	-3.30	2.20	 	 	 	 	 	 	 	 	 	 	 	 	 	 	 	 	 	 	1581492267	8.13	15.06
12/02/2020 07:24:28	120220	12022020	072428	187.57	12.939470	-57.106533	187.71	0.470	-1.370	2.220	187.49	-2.80	2.70	 	 	 	 	 	 	 	 	 	 	 	 	 	 	 	 	 	 	1581492268	7.38	13.67
12/02/2020 07:24:29	120220	12022020	072429	187.13	12.939438	-57.106542	187.26	-0.250	-0.660	2.940	187.02	-2.10	3.40	 	 	 	 	 	 	 	 	 	 	 	 	 	 	 	 	 	 	1581492269	7.09	13.13
12/02/2020 07:24:30	120220	12022020	072430	186.53	12.939405	-57.106555	186.67	-0.620	-0.150	3.660	186.42	-1.50	4.10	 	 	 	 	 	 	 	 	 	 	 	 	 	 	 	 	 	 	1581492270	7.46	13.82
12/02/2020 07:24:31	120220	12022020	072431	186.16	12.939370	-57.106568	186.39	-0.610	0.470	3.870	186.16	-0.90	4.40	 	 	 	 	 	 	 	 	 	 	 	 	 	 	 	 	 	 	1581492271	8.06	14.93
12/02/2020 07:24:32	120220	12022020	072432	186.44	12.939335	-57.106580	186.77	-0.420	1.140	3.420	186.58	-0.30	3.90	 	 	 	 	 	 	 	 	 	 	 	 	 	 	 	 	 	 	1581492272	7.90	14.63
12/02/2020 07:24:33	120220	12022020	072433	187.17	12.939302	-57.106588	187.48	-0.120	1.200	2.480	187.31	-0.20	3.00	 	 	 	 	 	 	 	 	 	 	 	 	 	 	 	 	 	 	1581492273	7.45	13.80
12/02/2020 07:24:34	120220	12022020	072434	187.64	12.939267	-57.106593	187.83	0.350	0.280	1.590	187.68	-1.00	2.10	 	 	 	 	 	 	 	 	 	 	 	 	 	 	 	 	 	 	1581492274	7.69	14.24
12/02/2020 07:24:35	120220	12022020	072435	187.63	12.939227	-57.106595	187.77	0.830	-1.060	1.310	187.59	-2.40	1.80	 	 	 	 	 	 	 	 	 	 	 	 	 	 	 	 	 	 	1581492275	8.59	15.91
12/02/2020 07:24:36	120220	12022020	072436	187.41	12.939185	-57.106597	187.56	0.810	-1.680	1.690	187.36	-3.00	2.20	 	 	 	 	 	 	 	 	 	 	 	 	 	 	 	 	 	 	1581492276	9.00	16.67
12/02/2020 07:24:37	120220	12022020	072437	187.23	12.939147	-57.106603	187.43	0.110	-1.220	2.340	187.21	-2.60	2.80	 	 	 	 	 	 	 	 	 	 	 	 	 	 	 	 	 	 	1581492277	8.24	15.26
12/02/2020 07:24:38	120220	12022020	072438	187.25	12.939115	-57.106615	187.50	-0.850	-0.170	3.120	187.26	-1.60	3.60	 	 	 	 	 	 	 	 	 	 	 	 	 	 	 	 	 	 	1581492278	7.27	13.46
12/02/2020 07:24:39	120220	12022020	072439	187.36	12.939087	-57.106630	187.61	-1.340	0.680	3.600	187.38	-0.70	4.10	 	 	 	 	 	 	 	 	 	 	 	 	 	 	 	 	 	 	1581492279	6.99	12.95
12/02/2020 07:24:40	120220	12022020	072440	187.46	12.939057	-57.106647	187.68	-0.880	0.610	3.340	187.47	-0.70	3.90	 	 	 	 	 	 	 	 	 	 	 	 	 	 	 	 	 	 	1581492280	7.19	13.32
12/02/2020 07:24:41	120220	12022020	072441	187.47	12.939022	-57.106658	187.66	0.250	-0.260	2.700	187.46	-1.60	3.20	 	 	 	 	 	 	 	 	 	 	 	 	 	 	 	 	 	 	1581492281	7.91	14.65
12/02/2020 07:24:42	120220	12022020	072442	187.57	12.938982	-57.106665	187.84	1.200	-0.830	1.950	187.65	-2.20	2.50	 	 	 	 	 	 	 	 	 	 	 	 	 	 	 	 	 	 	1581492282	8.72	16.15
12/02/2020 07:24:43	120220	12022020	072443	188.07	12.938943	-57.106668	188.35	1.270	-0.480	1.240	188.18	-1.90	1.80	 	 	 	 	 	 	 	 	 	 	 	 	 	 	 	 	 	 	1581492283	8.40	15.56
12/02/2020 07:24:44	120220	12022020	072444	188.50	12.938910	-57.106668	188.71	0.500	0.160	1.140	188.53	-1.20	1.60	 	 	 	 	 	 	 	 	 	 	 	 	 	 	 	 	 	 	1581492284	7.25	13.43
12/02/2020 07:24:45	120220	12022020	072445	188.41	12.938878	-57.106673	188.55	-0.400	0.220	1.830	188.34	-1.10	2.30	 	 	 	 	 	 	 	 	 	 	 	 	 	 	 	 	 	 	1581492285	6.70	12.41
12/02/2020 07:24:46	120220	12022020	072446	187.98	12.938847	-57.106687	188.11	-0.770	-0.230	2.580	187.88	-1.60	3.10	 	 	 	 	 	 	 	 	 	 	 	 	 	 	 	 	 	 	1581492286	7.49	13.87
12/02/2020 07:24:47	120220	12022020	072447	187.54	12.938810	-57.106702	187.68	-0.540	-0.540	2.990	187.46	-1.90	3.50	 	 	 	 	 	 	 	 	 	 	 	 	 	 	 	 	 	 	1581492287	8.26	15.30
12/02/2020 07:24:48	120220	12022020	072448	187.26	12.938775	-57.106715	187.39	-0.030	-0.580	2.870	187.21	-1.90	3.40	 	 	 	 	 	 	 	 	 	 	 	 	 	 	 	 	 	 	1581492288	8.10	15.00
12/02/2020 07:24:49	120220	12022020	072449	187.01	12.938740	-57.106725	187.19	0.340	-0.530	2.370	186.97	-1.90	2.90	 	 	 	 	 	 	 	 	 	 	 	 	 	 	 	 	 	 	1581492289	7.71	14.28
12/02/2020 07:24:50	120220	12022020	072450	186.87	12.938705	-57.106730	187.06	0.370	-0.450	1.850	186.86	-1.80	2.40	 	 	 	 	 	 	 	 	 	 	 	 	 	 	 	 	 	 	1581492290	7.60	14.08
12/02/2020 07:24:51	120220	12022020	072451	186.84	12.938670	-57.106733	187.05	0.060	-0.190	1.610	186.85	-1.60	2.10	 	 	 	 	 	 	 	 	 	 	 	 	 	 	 	 	 	 	1581492291	7.58	14.04
12/02/2020 07:24:52	120220	12022020	072452	186.82	12.938637	-57.106740	187.01	-0.320	0.160	1.740	186.81	-1.20	2.20	 	 	 	 	 	 	 	 	 	 	 	 	 	 	 	 	 	 	1581492292	7.36	13.63
12/02/2020 07:24:53	120220	12022020	072453	186.76	12.938605	-57.106748	186.97	-0.450	0.260	1.970	186.76	-1.10	2.50	 	 	 	 	 	 	 	 	 	 	 	 	 	 	 	 	 	 	1581492293	7.30	13.52
12/02/2020 07:24:54	120220	12022020	072454	186.86	12.938570	-57.106760	187.09	-0.270	0.060	1.970	186.89	-1.30	2.50	 	 	 	 	 	 	 	 	 	 	 	 	 	 	 	 	 	 	1581492294	7.60	14.08
12/02/2020 07:24:55	120220	12022020	072455	186.97	12.938535	-57.106770	187.17	0.080	-0.260	1.860	186.97	-1.60	2.40	 	 	 	 	 	 	 	 	 	 	 	 	 	 	 	 	 	 	1581492295	7.79	14.43
12/02/2020 07:24:56	120220	12022020	072456	186.83	12.938500	-57.106778	186.98	0.430	-0.530	1.810	186.77	-1.90	2.30	 	 	 	 	 	 	 	 	 	 	 	 	 	 	 	 	 	 	1581492296	7.79	14.43
12/02/2020 07:24:57	120220	12022020	072457	186.47	12.938465	-57.106783	186.58	0.550	-0.670	1.780	186.39	-2.00	2.30	 	 	 	 	 	 	 	 	 	 	 	 	 	 	 	 	 	 	1581492297	7.75	14.35
12/02/2020 07:24:58	120220	12022020	072458	186.11	12.938428	-57.106788	186.25	0.380	-0.640	1.890	186.05	-2.00	2.40	 	 	 	 	 	 	 	 	 	 	 	 	 	 	 	 	 	 	1581492298	7.73	14.32
12/02/2020 07:24:59	120220	12022020	072459	186.01	12.938393	-57.106793	186.23	-0.050	-0.310	2.200	186.03	-1.70	2.70	 	 	 	 	 	 	 	 	 	 	 	 	 	 	 	 	 	 	1581492299	7.66	14.19
12/02/2020 07:25:00	120220	12022020	072500	186.16	12.938360	-57.106802	186.43	-0.510	0.140	2.510	186.21	-1.20	3.00	 	 	 	 	 	 	 	 	 	 	 	 	 	 	 	 	 	 	1581492300	7.42	13.74
12/02/2020 07:25:01	120220	12022020	072501	186.29	12.938328	-57.106813	186.43	-0.590	0.250	2.770	186.25	-1.10	3.30	1014.70	26.10	26.20	20.40	20.60	-1.0	71.0	71.0	399.0	25.8	271.00	10.50	78.00	11.20	16	9424.0	27.3	27.2	1581492301	7.27	13.46
12/02/2020 07:25:02	120220	12022020	072502	186.08	12.938295	-57.106825	186.13	-0.200	-0.100	3.030	186.02	-1.40	3.50	 	 	 	 	 	 	 	 	 	 	 	 	 	 	 	 	 	 	1581492302	7.67	14.20
12/02/2020 07:25:03	120220	12022020	072503	185.85	12.938258	-57.106837	186.04	0.310	-0.340	2.800	185.88	-1.70	3.30	 	 	 	 	 	 	 	 	 	 	 	 	 	 	 	 	 	 	1581492303	8.17	15.13
12/02/2020 07:25:04	120220	12022020	072504	186.19	12.938222	-57.106843	186.44	0.490	-0.160	2.110	186.30	-1.50	2.60	 	 	 	 	 	 	 	 	 	 	 	 	 	 	 	 	 	 	1581492304	7.93	14.69
12/02/2020 07:25:05	120220	12022020	072505	186.77	12.938188	-57.106845	187.02	0.250	0.050	1.510	186.87	-1.30	2.00	 	 	 	 	 	 	 	 	 	 	 	 	 	 	 	 	 	 	1581492305	7.26	13.45
12/02/2020 07:25:06	120220	12022020	072506	187.16	12.938155	-57.106848	187.34	-0.100	-0.170	1.380	187.19	-1.50	1.90	 	 	 	 	 	 	 	 	 	 	 	 	 	 	 	 	 	 	1581492306	7.04	13.04
12/02/2020 07:25:07	120220	12022020	072507	187.15	12.938122	-57.106855	187.28	-0.290	-0.690	1.770	187.09	-2.00	2.30	 	 	 	 	 	 	 	 	 	 	 	 	 	 	 	 	 	 	1581492307	7.47	13.83
12/02/2020 07:25:08	120220	12022020	072508	186.69	12.938085	-57.106863	186.76	-0.270	-1.130	2.500	186.56	-2.50	3.00	 	 	 	 	 	 	 	 	 	 	 	 	 	 	 	 	 	 	1581492308	7.93	14.69
12/02/2020 07:25:09	120220	12022020	072509	186.02	12.938048	-57.106875	186.10	-0.200	-1.100	3.200	185.88	-2.50	3.70	 	 	 	 	 	 	 	 	 	 	 	 	 	 	 	 	 	 	1581492309	8.20	15.19
12/02/2020 07:25:10	120220	12022020	072510	185.44	12.938013	-57.106888	185.57	-0.170	-0.460	3.540	185.36	-1.80	4.00	 	 	 	 	 	 	 	 	 	 	 	 	 	 	 	 	 	 	1581492310	8.06	14.93
12/02/2020 07:25:11	120220	12022020	072511	185.24	12.937980	-57.106900	185.44	-0.070	0.440	3.170	185.26	-0.90	3.70	 	 	 	 	 	 	 	 	 	 	 	 	 	 	 	 	 	 	1581492311	7.54	13.96
12/02/2020 07:25:12	120220	12022020	072512	185.55	12.937948	-57.106907	185.81	0.170	1.030	2.100	185.66	-0.30	2.60	 	 	 	 	 	 	 	 	 	 	 	 	 	 	 	 	 	 	1581492312	7.11	13.17
12/02/2020 07:25:13	120220	12022020	072513	186.15	12.937915	-57.106910	186.41	0.470	0.970	0.950	186.28	-0.40	1.50	 	 	 	 	 	 	 	 	 	 	 	 	 	 	 	 	 	 	1581492313	7.16	13.26
12/02/2020 07:25:14	120220	12022020	072514	186.75	12.937880	-57.106910	186.97	0.630	0.350	0.310	186.85	-1.00	0.80	 	 	 	 	 	 	 	 	 	 	 	 	 	 	 	 	 	 	1581492314	7.56	14.00
12/02/2020 07:25:15	120220	12022020	072515	187.17	12.937843	-57.106910	187.34	0.500	-0.480	0.200	187.21	-1.80	0.70	 	 	 	 	 	 	 	 	 	 	 	 	 	 	 	 	 	 	1581492315	7.81	14.46
12/02/2020 07:25:16	120220	12022020	072516	187.15	12.937808	-57.106915	187.23	0.150	-1.380	0.850	187.07	-2.70	1.30	 	 	 	 	 	 	 	 	 	 	 	 	 	 	 	 	 	 	1581492316	7.79	14.43
12/02/2020 07:25:17	120220	12022020	072517	186.51	12.937772	-57.106923	186.52	-0.260	-2.040	2.330	186.32	-3.40	2.70	 	 	 	 	 	 	 	 	 	 	 	 	 	 	 	 	 	 	1581492317	8.03	14.87
12/02/2020 07:25:18	120220	12022020	072518	185.54	12.937735	-57.106940	185.58	-0.590	-1.890	3.850	185.36	-3.30	4.30	 	 	 	 	 	 	 	 	 	 	 	 	 	 	 	 	 	 	1581492318	8.45	15.65
12/02/2020 07:25:19	120220	12022020	072519	184.86	12.937700	-57.106957	185.03	-0.850	-0.730	4.590	184.80	-2.10	5.10	 	 	 	 	 	 	 	 	 	 	 	 	 	 	 	 	 	 	1581492319	8.25	15.28
12/02/2020 07:25:20	120220	12022020	072520	184.87	12.937670	-57.106972	185.14	-0.990	0.740	4.280	184.95	-0.70	4.80	 	 	 	 	 	 	 	 	 	 	 	 	 	 	 	 	 	 	1581492320	7.39	13.69
12/02/2020 07:25:21	120220	12022020	072521	185.34	12.937640	-57.106982	185.61	-0.780	1.540	3.170	185.45	0.20	3.70	 	 	 	 	 	 	 	 	 	 	 	 	 	 	 	 	 	 	1581492321	6.80	12.59
12/02/2020 07:25:22	120220	12022020	072522	185.82	12.937607	-57.106988	186.05	-0.040	1.230	1.750	185.90	-0.10	2.30	 	 	 	 	 	 	 	 	 	 	 	 	 	 	 	 	 	 	1581492322	7.12	13.19
12/02/2020 07:25:23	120220	12022020	072523	186.14	12.937570	-57.106988	186.33	0.940	0.290	0.440	186.20	-1.00	1.00	 	 	 	 	 	 	 	 	 	 	 	 	 	 	 	 	 	 	1581492323	8.05	14.91
12/02/2020 07:25:24	120220	12022020	072524	186.43	12.937530	-57.106987	186.61	1.450	-0.440	-0.300	186.48	-1.80	0.20	 	 	 	 	 	 	 	 	 	 	 	 	 	 	 	 	 	 	1581492324	8.56	15.85
12/02/2020 07:25:25	120220	12022020	072525	186.59	12.937493	-57.106983	186.75	1.080	-0.820	-0.180	186.59	-2.20	0.30	 	 	 	 	 	 	 	 	 	 	 	 	 	 	 	 	 	 	1581492325	8.05	14.91
12/02/2020 07:25:26	120220	12022020	072526	186.44	12.937458	-57.106987	186.42	0.190	-1.210	0.920	186.35	-2.50	1.40	 	 	 	 	 	 	 	 	 	 	 	 	 	 	 	 	 	 	1581492326	7.37	13.65
12/02/2020 07:25:27	120220	12022020	072527	185.59	12.937425	-57.106998	185.65	-0.540	-1.540	2.530	185.45	-2.90	3.00	 	 	 	 	 	 	 	 	 	 	 	 	 	 	 	 	 	 	1581492327	7.76	14.37
12/02/2020 07:25:28	120220	12022020	072528	184.99	12.937390	-57.107017	185.16	-0.800	-1.120	3.710	184.94	-2.50	4.20	 	 	 	 	 	 	 	 	 	 	 	 	 	 	 	 	 	 	1581492328	8.52	15.78
12/02/2020 07:25:29	120220	12022020	072529	185.02	12.937357	-57.107035	185.30	-0.680	0.090	3.770	185.10	-1.30	4.30	 	 	 	 	 	 	 	 	 	 	 	 	 	 	 	 	 	 	1581492329	8.08	14.96
12/02/2020 07:25:30	120220	12022020	072530	185.59	12.937327	-57.107047	185.90	-0.490	1.140	2.920	185.71	-0.20	3.50	 	 	 	 	 	 	 	 	 	 	 	 	 	 	 	 	 	 	1581492330	6.82	12.63
12/02/2020 07:25:31	120220	12022020	072531	186.07	12.937297	-57.107052	186.29	-0.280	0.930	1.950	186.10	-0.40	2.50	 	 	 	 	 	 	 	 	 	 	 	 	 	 	 	 	 	 	1581492331	6.56	12.15
12/02/2020 07:25:32	120220	12022020	072532	186.04	12.937260	-57.107055	186.18	-0.020	-0.280	1.430	185.99	-1.60	1.90	 	 	 	 	 	 	 	 	 	 	 	 	 	 	 	 	 	 	1581492332	7.72	14.30
12/02/2020 07:25:33	120220	12022020	072533	185.74	12.937220	-57.107060	185.88	0.240	-1.050	1.420	185.68	-2.40	1.90	 	 	 	 	 	 	 	 	 	 	 	 	 	 	 	 	 	 	1581492333	8.72	16.15
12/02/2020 07:25:34	120220	12022020	072534	185.45	12.937183	-57.107067	185.61	0.450	-0.760	1.500	185.40	-2.10	2.00	 	 	 	 	 	 	 	 	 	 	 	 	 	 	 	 	 	 	1581492334	8.22	15.22
12/02/2020 07:25:35	120220	12022020	072535	185.25	12.937150	-57.107072	185.40	0.570	-0.110	1.460	185.21	-1.50	2.00	 	 	 	 	 	 	 	 	 	 	 	 	 	 	 	 	 	 	1581492335	7.09	13.13
12/02/2020 07:25:36	120220	12022020	072536	185.10	12.937118	-57.107075	185.26	0.550	0.040	1.470	185.08	-1.30	2.00	 	 	 	 	 	 	 	 	 	 	 	 	 	 	 	 	 	 	1581492336	6.77	12.54
12/02/2020 07:25:37	120220	12022020	072537	185.01	12.937085	-57.107080	185.16	0.360	-0.260	1.670	184.98	-1.60	2.20	 	 	 	 	 	 	 	 	 	 	 	 	 	 	 	 	 	 	1581492337	7.39	13.69
12/02/2020 07:25:38	120220	12022020	072538	184.90	12.937048	-57.107087	185.02	-0.020	-0.480	2.060	184.86	-1.80	2.50	 	 	 	 	 	 	 	 	 	 	 	 	 	 	 	 	 	 	1581492338	7.87	14.58
12/02/2020 07:25:39	120220	12022020	072539	184.64	12.937013	-57.107095	184.78	-0.390	-0.500	2.530	184.59	-1.80	3.00	 	 	 	 	 	 	 	 	 	 	 	 	 	 	 	 	 	 	1581492339	7.84	14.52
12/02/2020 07:25:40	120220	12022020	072540	184.47	12.936978	-57.107105	184.65	-0.550	-0.370	2.740	184.47	-1.70	3.20	 	 	 	 	 	 	 	 	 	 	 	 	 	 	 	 	 	 	1581492340	7.77	14.39
12/02/2020 07:25:41	120220	12022020	072541	184.64	12.936945	-57.107117	184.88	-0.540	-0.060	2.510	184.71	-1.40	3.00	 	 	 	 	 	 	 	 	 	 	 	 	 	 	 	 	 	 	1581492341	7.68	14.22
12/02/2020 07:25:42	120220	12022020	072542	185.01	12.936912	-57.107125	185.22	-0.460	0.200	2.290	185.07	-1.20	2.80	 	 	 	 	 	 	 	 	 	 	 	 	 	 	 	 	 	 	1581492342	7.35	13.61
12/02/2020 07:25:43	120220	12022020	072543	185.14	12.936878	-57.107132	185.26	-0.290	0.080	2.320	185.11	-1.30	2.80	 	 	 	 	 	 	 	 	 	 	 	 	 	 	 	 	 	 	1581492343	7.24	13.41
12/02/2020 07:25:44	120220	12022020	072544	184.92	12.936843	-57.107138	185.03	0.010	-0.310	2.440	184.86	-1.60	2.90	 	 	 	 	 	 	 	 	 	 	 	 	 	 	 	 	 	 	1581492344	7.62	14.11
12/02/2020 07:25:45	120220	12022020	072545	184.69	12.936807	-57.107145	184.83	0.330	-0.540	2.490	184.67	-1.90	3.00	 	 	 	 	 	 	 	 	 	 	 	 	 	 	 	 	 	 	1581492345	7.99	14.80
12/02/2020 07:25:46	120220	12022020	072546	184.71	12.936772	-57.107152	184.89	0.530	-0.350	2.170	184.74	-1.70	2.70	 	 	 	 	 	 	 	 	 	 	 	 	 	 	 	 	 	 	1581492346	7.85	14.54
12/02/2020 07:25:47	120220	12022020	072547	184.96	12.936737	-57.107155	185.16	0.580	0.060	1.470	185.02	-1.30	2.00	 	 	 	 	 	 	 	 	 	 	 	 	 	 	 	 	 	 	1581492347	7.34	13.59
12/02/2020 07:25:48	120220	12022020	072548	185.22	12.936705	-57.107157	185.37	0.520	0.130	0.900	185.24	-1.20	1.40	 	 	 	 	 	 	 	 	 	 	 	 	 	 	 	 	 	 	1581492348	6.99	12.95
12/02/2020 07:25:49	120220	12022020	072549	185.20	12.936672	-57.107157	185.29	0.350	-0.340	1.050	185.15	-1.70	1.50	 	 	 	 	 	 	 	 	 	 	 	 	 	 	 	 	 	 	1581492349	7.30	13.52
12/02/2020 07:25:50	120220	12022020	072550	184.96	12.936635	-57.107160	184.96	-0.020	-0.830	1.830	184.90	-2.10	2.30	 	 	 	 	 	 	 	 	 	 	 	 	 	 	 	 	 	 	1581492350	7.86	14.56
12/02/2020 07:25:51	120220	12022020	072551	184.58	12.936598	-57.107170	184.70	-0.530	-0.860	2.730	184.53	-2.20	3.20	 	 	 	 	 	 	 	 	 	 	 	 	 	 	 	 	 	 	1581492351	8.10	15.00
12/02/2020 07:25:52	120220	12022020	072552	184.33	12.936563	-57.107183	184.35	-0.840	-0.690	3.570	184.25	-2.00	4.00	 	 	 	 	 	 	 	 	 	 	 	 	 	 	 	 	 	 	1581492352	7.94	14.70
12/02/2020 07:25:53	120220	12022020	072553	183.87	12.936530	-57.107200	184.01	-0.640	-0.450	3.960	183.83	-1.80	4.50	 	 	 	 	 	 	 	 	 	 	 	 	 	 	 	 	 	 	1581492353	8.09	14.98
12/02/2020 07:25:54	120220	12022020	072554	183.89	12.936495	-57.107212	184.15	-0.150	0.140	3.360	183.97	-1.20	3.90	 	 	 	 	 	 	 	 	 	 	 	 	 	 	 	 	 	 	1581492354	8.01	14.83
12/02/2020 07:25:55	120220	12022020	072555	184.52	12.936460	-57.107217	184.85	0.150	0.840	2.110	184.69	-0.50	2.70	 	 	 	 	 	 	 	 	 	 	 	 	 	 	 	 	 	 	1581492355	7.29	13.50
12/02/2020 07:25:56	120220	12022020	072556	185.35	12.936428	-57.107217	185.62	0.170	0.890	0.880	185.48	-0.40	1.40	 	 	 	 	 	 	 	 	 	 	 	 	 	 	 	 	 	 	1581492356	6.89	12.76
12/02/2020 07:25:57	120220	12022020	072557	185.74	12.936395	-57.107215	185.87	0.160	0.030	0.400	185.74	-1.30	0.90	 	 	 	 	 	 	 	 	 	 	 	 	 	 	 	 	 	 	1581492357	7.26	13.45
12/02/2020 07:25:58	120220	12022020	072558	185.48	12.936358	-57.107217	185.52	0.310	-1.150	0.940	185.38	-2.40	1.40	 	 	 	 	 	 	 	 	 	 	 	 	 	 	 	 	 	 	1581492358	8.05	14.91
12/02/2020 07:25:59	120220	12022020	072559	184.96	12.936318	-57.107223	185.03	0.440	-1.630	1.840	184.87	-3.00	2.30	 	 	 	 	 	 	 	 	 	 	 	 	 	 	 	 	 	 	1581492359	8.50	15.74
12/02/2020 07:26:00	120220	12022020	072600	184.63	12.936282	-57.107233	184.77	0.310	-1.040	2.630	184.59	-2.40	3.10	 	 	 	 	 	 	 	 	 	 	 	 	 	 	 	 	 	 	1581492360	8.07	14.95
12/02/2020 07:26:01	120220	12022020	072601	184.51	12.936250	-57.107245	184.67	-0.040	-0.070	3.060	184.49	-1.40	3.60	1014.80	26.20	26.20	20.70	20.70	-1.0	71.0	71.0	400.0	25.8	273.00	10.90	78.00	11.40	16	9275.0	27.3	27.3	1581492361	7.18	13.30
12/02/2020 07:26:02	120220	12022020	072602	184.46	12.936220	-57.107255	184.62	-0.240	0.410	2.900	184.46	-0.90	3.40	 	 	 	 	 	 	 	 	 	 	 	 	 	 	 	 	 	 	1581492362	6.88	12.74
12/02/2020 07:26:03	120220	12022020	072603	184.54	12.936187	-57.107262	184.73	-0.160	0.360	2.340	184.58	-1.00	2.90	 	 	 	 	 	 	 	 	 	 	 	 	 	 	 	 	 	 	1581492363	7.34	13.59
12/02/2020 07:26:04	120220	12022020	072604	184.80	12.936152	-57.107265	185.01	-0.050	0.140	1.840	184.86	-1.20	2.40	 	 	 	 	 	 	 	 	 	 	 	 	 	 	 	 	 	 	1581492364	7.79	14.43
12/02/2020 07:26:05	120220	12022020	072605	185.16	12.936115	-57.107268	185.40	-0.110	-0.130	1.540	185.23	-1.40	2.10	 	 	 	 	 	 	 	 	 	 	 	 	 	 	 	 	 	 	1581492365	7.83	14.50
12/02/2020 07:26:06	120220	12022020	072606	185.48	12.936080	-57.107273	185.68	-0.260	-0.390	1.470	185.52	-1.70	2.00	 	 	 	 	 	 	 	 	 	 	 	 	 	 	 	 	 	 	1581492366	7.72	14.30
12/02/2020 07:26:07	120220	12022020	072607	185.63	12.936043	-57.107280	185.79	-0.280	-0.590	1.580	185.64	-1.90	2.10	 	 	 	 	 	 	 	 	 	 	 	 	 	 	 	 	 	 	1581492367	7.68	14.22
12/02/2020 07:26:08	120220	12022020	072608	185.55	12.936010	-57.107288	185.67	-0.070	-0.710	1.830	185.50	-2.00	2.30	 	 	 	 	 	 	 	 	 	 	 	 	 	 	 	 	 	 	1581492368	7.66	14.19
12/02/2020 07:26:09	120220	12022020	072609	185.19	12.935975	-57.107295	185.26	0.240	-0.820	2.190	185.09	-2.10	2.70	 	 	 	 	 	 	 	 	 	 	 	 	 	 	 	 	 	 	1581492369	7.70	14.26
12/02/2020 07:26:10	120220	12022020	072610	184.66	12.935938	-57.107303	184.74	0.410	-0.700	2.500	184.56	-2.00	3.00	 	 	 	 	 	 	 	 	 	 	 	 	 	 	 	 	 	 	1581492370	7.90	14.63
12/02/2020 07:26:11	120220	12022020	072611	184.29	12.935902	-57.107310	184.43	0.240	-0.090	2.660	184.26	-1.40	3.20	 	 	 	 	 	 	 	 	 	 	 	 	 	 	 	 	 	 	1581492371	7.86	14.56
12/02/2020 07:26:12	120220	12022020	072612	184.31	12.935868	-57.107317	184.54	-0.190	0.770	2.540	184.37	-0.60	3.00	 	 	 	 	 	 	 	 	 	 	 	 	 	 	 	 	 	 	1581492372	7.40	13.70
12/02/2020 07:26:13	120220	12022020	072613	184.68	12.935837	-57.107322	184.93	-0.620	1.220	2.190	184.76	-0.10	2.70	 	 	 	 	 	 	 	 	 	 	 	 	 	 	 	 	 	 	1581492373	6.92	12.82
12/02/2020 07:26:14	120220	12022020	072614	184.98	12.935805	-57.107328	185.17	-0.660	0.660	1.950	185.01	-0.60	2.50	 	 	 	 	 	 	 	 	 	 	 	 	 	 	 	 	 	 	1581492374	7.07	13.09
12/02/2020 07:26:15	120220	12022020	072615	185.02	12.935768	-57.107337	185.17	-0.140	-0.500	1.810	185.01	-1.80	2.30	 	 	 	 	 	 	 	 	 	 	 	 	 	 	 	 	 	 	1581492375	8.01	14.83
12/02/2020 07:26:16	120220	12022020	072616	184.99	12.935730	-57.107345	185.16	0.640	-1.190	1.430	185.01	-2.50	2.00	 	 	 	 	 	 	 	 	 	 	 	 	 	 	 	 	 	 	1581492376	8.57	15.87
12/02/2020 07:26:17	120220	12022020	072617	185.05	12.935692	-57.107348	185.20	1.090	-1.140	1.020	185.05	-2.50	1.50	 	 	 	 	 	 	 	 	 	 	 	 	 	 	 	 	 	 	1581492377	7.99	14.80
12/02/2020 07:26:18	120220	12022020	072618	184.98	12.935658	-57.107348	185.08	0.910	-0.920	1.060	184.93	-2.30	1.60	 	 	 	 	 	 	 	 	 	 	 	 	 	 	 	 	 	 	1581492378	7.26	13.45
12/02/2020 07:26:19	120220	12022020	072619	184.65	12.935625	-57.107352	184.73	0.260	-0.890	1.550	184.57	-2.20	2.00	 	 	 	 	 	 	 	 	 	 	 	 	 	 	 	 	 	 	1581492379	7.27	13.46
12/02/2020 07:26:20	120220	12022020	072620	184.34	12.935590	-57.107358	184.47	-0.540	-0.650	2.220	184.30	-2.00	2.70	 	 	 	 	 	 	 	 	 	 	 	 	 	 	 	 	 	 	1581492380	7.79	14.43
12/02/2020 07:26:21	120220	12022020	072621	184.24	12.935555	-57.107370	184.42	-1.100	0.010	2.860	184.24	-1.40	3.30	 	 	 	 	 	 	 	 	 	 	 	 	 	 	 	 	 	 	1581492381	7.93	14.69
12/02/2020 07:26:22	120220	12022020	072622	184.22	12.935522	-57.107383	184.42	-1.150	0.540	3.260	184.21	-0.80	3.70	 	 	 	 	 	 	 	 	 	 	 	 	 	 	 	 	 	 	1581492382	7.68	14.22
12/02/2020 07:26:23	120220	12022020	072623	184.15	12.935487	-57.107397	184.35	-0.660	0.490	3.320	184.14	-0.80	3.80	 	 	 	 	 	 	 	 	 	 	 	 	 	 	 	 	 	 	1581492383	7.75	14.35
12/02/2020 07:26:24	120220	12022020	072624	184.19	12.935450	-57.107405	184.44	-0.020	0.220	2.920	184.23	-1.10	3.40	 	 	 	 	 	 	 	 	 	 	 	 	 	 	 	 	 	 	1581492384	8.18	15.15
12/02/2020 07:26:25	120220	12022020	072625	184.49	12.935413	-57.107410	184.76	0.380	0.200	2.170	184.57	-1.10	2.70	 	 	 	 	 	 	 	 	 	 	 	 	 	 	 	 	 	 	1581492385	8.14	15.08
12/02/2020 07:26:26	120220	12022020	072626	184.86	12.935378	-57.107412	185.08	0.530	0.250	1.290	184.91	-1.10	1.90	 	 	 	 	 	 	 	 	 	 	 	 	 	 	 	 	 	 	1581492386	7.56	14.00
12/02/2020 07:26:27	120220	12022020	072627	184.99	12.935343	-57.107412	185.14	0.690	-0.050	0.730	184.99	-1.40	1.30	 	 	 	 	 	 	 	 	 	 	 	 	 	 	 	 	 	 	1581492387	7.27	13.46
12/02/2020 07:26:28	120220	12022020	072628	184.96	12.935308	-57.107412	185.11	0.770	-0.470	0.760	184.97	-1.80	1.30	 	 	 	 	 	 	 	 	 	 	 	 	 	 	 	 	 	 	1581492388	7.56	14.00
12/02/2020 07:26:29	120220	12022020	072629	185.02	12.935273	-57.107415	185.18	0.530	-0.740	1.380	185.02	-2.10	1.90	 	 	 	 	 	 	 	 	 	 	 	 	 	 	 	 	 	 	1581492389	7.63	14.13
12/02/2020 07:26:30	120220	12022020	072630	184.95	12.935240	-57.107422	185.06	0.100	-0.990	2.220	184.90	-2.30	2.70	 	 	 	 	 	 	 	 	 	 	 	 	 	 	 	 	 	 	1581492390	7.50	13.89
12/02/2020 07:26:31	120220	12022020	072631	184.51	12.935205	-57.107435	184.58	-0.120	-1.320	3.080	184.40	-2.60	3.60	 	 	 	 	 	 	 	 	 	 	 	 	 	 	 	 	 	 	1581492391	7.81	14.46
12/02/2020 07:26:32	120220	12022020	072632	183.98	12.935168	-57.107448	184.13	-0.120	-1.140	3.620	183.92	-2.50	4.10	 	 	 	 	 	 	 	 	 	 	 	 	 	 	 	 	 	 	1581492392	8.29	15.35
12/02/2020 07:26:33	120220	12022020	072633	183.88	12.935133	-57.107458	184.11	-0.160	-0.160	3.470	183.92	-1.60	4.00	 	 	 	 	 	 	 	 	 	 	 	 	 	 	 	 	 	 	1581492393	7.94	14.70
12/02/2020 07:26:34	120220	12022020	072634	184.19	12.935102	-57.107465	184.45	-0.380	0.730	2.870	184.27	-0.60	3.40	 	 	 	 	 	 	 	 	 	 	 	 	 	 	 	 	 	 	1581492394	6.99	12.95
12/02/2020 07:26:35	120220	12022020	072635	184.60	12.935070	-57.107468	184.85	-0.630	0.660	2.440	184.68	-0.70	3.00	 	 	 	 	 	 	 	 	 	 	 	 	 	 	 	 	 	 	1581492395	6.94	12.85
12/02/2020 07:26:36	120220	12022020	072636	184.88	12.935033	-57.107473	185.08	-0.620	-0.140	2.390	184.91	-1.50	2.90	 	 	 	 	 	 	 	 	 	 	 	 	 	 	 	 	 	 	1581492396	7.89	14.61
12/02/2020 07:26:37	120220	12022020	072637	185.03	12.934993	-57.107482	185.22	-0.230	-0.760	2.300	185.05	-2.10	2.80	 	 	 	 	 	 	 	 	 	 	 	 	 	 	 	 	 	 	1581492397	8.65	16.02
12/02/2020 07:26:38	120220	12022020	072638	185.10	12.934955	-57.107490	185.30	0.290	-0.610	2.040	185.11	-2.00	2.60	 	 	 	 	 	 	 	 	 	 	 	 	 	 	 	 	 	 	1581492398	8.39	15.54
12/02/2020 07:26:39	120220	12022020	072639	185.09	12.934922	-57.107493	185.23	0.570	-0.010	1.670	185.06	-1.40	2.20	 	 	 	 	 	 	 	 	 	 	 	 	 	 	 	 	 	 	1581492399	7.47	13.83
12/02/2020 07:26:40	120220	12022020	072640	184.92	12.934888	-57.107497	185.04	0.490	0.360	1.400	184.87	-1.00	1.90	 	 	 	 	 	 	 	 	 	 	 	 	 	 	 	 	 	 	1581492400	6.93	12.83
12/02/2020 07:26:41	120220	12022020	072641	184.66	12.934857	-57.107498	184.76	0.220	0.150	1.450	184.61	-1.20	2.00	 	 	 	 	 	 	 	 	 	 	 	 	 	 	 	 	 	 	1581492401	7.12	13.19
12/02/2020 07:26:42	120220	12022020	072642	184.43	12.934820	-57.107505	184.49	0.040	-0.290	1.810	184.38	-1.60	2.30	 	 	 	 	 	 	 	 	 	 	 	 	 	 	 	 	 	 	1581492402	7.73	14.32
12/02/2020 07:26:43	120220	12022020	072643	184.29	12.934783	-57.107513	184.48	-0.000	-0.440	2.180	184.31	-1.80	2.70	 	 	 	 	 	 	 	 	 	 	 	 	 	 	 	 	 	 	1581492403	8.06	14.93
12/02/2020 07:26:44	120220	12022020	072644	184.57	12.934748	-57.107522	184.84	-0.070	-0.220	2.310	184.68	-1.60	2.80	 	 	 	 	 	 	 	 	 	 	 	 	 	 	 	 	 	 	1581492404	7.76	14.37
12/02/2020 07:26:45	120220	12022020	072645	185.11	12.934717	-57.107530	185.35	-0.230	0.000	2.290	185.21	-1.40	2.80	 	 	 	 	 	 	 	 	 	 	 	 	 	 	 	 	 	 	1581492405	7.25	13.43
12/02/2020 07:26:46	120220	12022020	072646	185.46	12.934683	-57.107538	185.61	-0.270	-0.290	2.300	185.47	-1.60	2.80	 	 	 	 	 	 	 	 	 	 	 	 	 	 	 	 	 	 	1581492406	7.14	13.22
12/02/2020 07:26:47	120220	12022020	072647	185.27	12.934650	-57.107547	185.35	0.050	-1.100	2.330	185.18	-2.40	2.80	 	 	 	 	 	 	 	 	 	 	 	 	 	 	 	 	 	 	1581492407	7.69	14.24
12/02/2020 07:26:48	120220	12022020	072648	184.74	12.934610	-57.107553	184.80	0.470	-1.570	2.400	184.62	-2.90	2.90	 	 	 	 	 	 	 	 	 	 	 	 	 	 	 	 	 	 	1581492408	8.46	15.67
12/02/2020 07:26:49	120220	12022020	072649	184.31	12.934572	-57.107560	184.46	0.460	-0.970	2.360	184.28	-2.40	2.90	 	 	 	 	 	 	 	 	 	 	 	 	 	 	 	 	 	 	1581492409	8.36	15.48
12/02/2020 07:26:50	120220	12022020	072650	184.37	12.934538	-57.107563	184.58	-0.110	0.420	2.080	184.43	-1.00	2.60	 	 	 	 	 	 	 	 	 	 	 	 	 	 	 	 	 	 	1581492410	7.35	13.61
12/02/2020 07:26:51	120220	12022020	072651	184.84	12.934508	-57.107568	185.09	-0.760	1.400	1.700	184.96	0.00	2.20	 	 	 	 	 	 	 	 	 	 	 	 	 	 	 	 	 	 	1581492411	6.44	11.93
12/02/2020 07:26:52	120220	12022020	072652	185.31	12.934478	-57.107573	185.51	-0.850	1.060	1.530	185.37	-0.30	2.10	 	 	 	 	 	 	 	 	 	 	 	 	 	 	 	 	 	 	1581492412	6.72	12.45
12/02/2020 07:26:53	120220	12022020	072653	185.43	12.934442	-57.107582	185.56	-0.150	-0.270	1.580	185.41	-1.60	2.10	 	 	 	 	 	 	 	 	 	 	 	 	 	 	 	 	 	 	1581492413	8.01	14.83
12/02/2020 07:26:54	120220	12022020	072654	185.27	12.934400	-57.107590	185.39	0.710	-1.210	1.730	185.24	-2.60	2.30	 	 	 	 	 	 	 	 	 	 	 	 	 	 	 	 	 	 	1581492414	9.03	16.72
12/02/2020 07:26:55	120220	12022020	072655	185.10	12.934360	-57.107595	185.24	0.910	-0.960	1.850	185.08	-2.40	2.40	 	 	 	 	 	 	 	 	 	 	 	 	 	 	 	 	 	 	1581492415	8.59	15.91
12/02/2020 07:26:56	120220	12022020	072656	184.98	12.934327	-57.107600	185.10	0.300	-0.130	2.000	184.96	-1.50	2.50	 	 	 	 	 	 	 	 	 	 	 	 	 	 	 	 	 	 	1581492416	7.25	13.43
12/02/2020 07:26:57	120220	12022020	072657	184.76	12.934297	-57.107605	184.85	-0.450	0.240	2.320	184.70	-1.10	2.80	 	 	 	 	 	 	 	 	 	 	 	 	 	 	 	 	 	 	1581492417	6.62	12.26
12/02/2020 07:26:58	120220	12022020	072658	184.44	12.934263	-57.107615	184.56	-0.590	0.020	2.660	184.40	-1.30	3.20	 	 	 	 	 	 	 	 	 	 	 	 	 	 	 	 	 	 	1581492418	7.31	13.54
12/02/2020 07:26:59	120220	12022020	072659	184.47	12.934228	-57.107625	184.70	-0.200	-0.100	2.490	184.54	-1.50	3.00	 	 	 	 	 	 	 	 	 	 	 	 	 	 	 	 	 	 	1581492419	8.10	15.00
12/02/2020 07:27:00	120220	12022020	072700	184.99	12.934192	-57.107633	185.28	0.120	0.040	1.990	185.13	-1.30	2.50	 	 	 	 	 	 	 	 	 	 	 	 	 	 	 	 	 	 	1581492420	7.82	14.48
12/02/2020 07:27:01	120220	12022020	072701	185.61	12.934158	-57.107638	185.83	0.160	0.010	1.470	185.70	-1.30	2.00	1014.70	26.10	26.20	20.40	20.50	-1.0	70.0	71.0	399.0	25.8	271.00	10.80	75.00	11.50	16	9229.0	27.3	27.3	1581492421	7.23	13.39
12/02/2020 07:27:02	120220	12022020	072702	185.85	12.934127	-57.107643	185.97	0.200	-0.560	1.280	185.82	-1.90	1.80	 	 	 	 	 	 	 	 	 	 	 	 	 	 	 	 	 	 	1581492422	7.23	13.39
12/02/2020 07:27:03	120220	12022020	072703	185.58	12.934090	-57.107648	185.65	0.440	-1.340	1.500	185.49	-2.70	2.00	 	 	 	 	 	 	 	 	 	 	 	 	 	 	 	 	 	 	1581492423	7.87	14.58
12/02/2020 07:27:04	120220	12022020	072704	185.19	12.934052	-57.107653	185.19	0.500	-1.460	2.070	185.10	-2.80	2.60	 	 	 	 	 	 	 	 	 	 	 	 	 	 	 	 	 	 	1581492424	8.35	15.46
12/02/2020 07:27:05	120220	12022020	072705	184.82	12.934015	-57.107658	184.99	0.030	-0.700	2.570	184.81	-2.10	3.10	 	 	 	 	 	 	 	 	 	 	 	 	 	 	 	 	 	 	1581492425	7.97	14.76
12/02/2020 07:27:06	120220	12022020	072706	184.88	12.933982	-57.107667	185.09	-0.760	0.370	2.780	184.91	-1.00	3.30	 	 	 	 	 	 	 	 	 	 	 	 	 	 	 	 	 	 	1581492426	7.25	13.43
12/02/2020 07:27:07	120220	12022020	072707	185.07	12.933950	-57.107677	185.27	-1.240	1.010	2.820	185.10	-0.40	3.30	 	 	 	 	 	 	 	 	 	 	 	 	 	 	 	 	 	 	1581492427	7.05	13.06
12/02/2020 07:27:08	120220	12022020	072708	185.29	12.933918	-57.107690	185.54	-0.820	0.940	2.430	185.35	-0.40	3.00	 	 	 	 	 	 	 	 	 	 	 	 	 	 	 	 	 	 	1581492428	7.52	13.93
12/02/2020 07:27:09	120220	12022020	072709	185.66	12.933882	-57.107698	185.92	0.290	0.470	1.460	185.74	-0.90	2.00	 	 	 	 	 	 	 	 	 	 	 	 	 	 	 	 	 	 	1581492429	7.99	14.80
12/02/2020 07:27:10	120220	12022020	072710	185.94	12.933843	-57.107700	186.14	1.150	-0.140	0.770	185.97	-1.50	1.30	 	 	 	 	 	 	 	 	 	 	 	 	 	 	 	 	 	 	1581492430	8.11	15.02
12/02/2020 07:27:11	120220	12022020	072711	185.97	12.933807	-57.107700	186.12	1.100	-0.700	0.960	185.94	-2.10	1.50	 	 	 	 	 	 	 	 	 	 	 	 	 	 	 	 	 	 	1581492431	8.06	14.93
12/02/2020 07:27:12	120220	12022020	072712	185.74	12.933770	-57.107703	185.85	0.310	-0.980	1.870	185.66	-2.30	2.40	 	 	 	 	 	 	 	 	 	 	 	 	 	 	 	 	 	 	1581492432	7.77	14.39
12/02/2020 07:27:13	120220	12022020	072713	185.33	12.933737	-57.107713	185.45	-0.480	-0.930	2.950	185.25	-2.30	3.40	 	 	 	 	 	 	 	 	 	 	 	 	 	 	 	 	 	 	1581492433	7.61	14.09
12/02/2020 07:27:14	120220	12022020	072714	184.97	12.933703	-57.107728	185.13	-0.710	-0.710	3.590	184.91	-2.10	4.10	 	 	 	 	 	 	 	 	 	 	 	 	 	 	 	 	 	 	1581492434	7.72	14.30
12/02/2020 07:27:15	120220	12022020	072715	184.74	12.933670	-57.107743	184.91	-0.390	-0.410	3.580	184.70	-1.80	4.10	 	 	 	 	 	 	 	 	 	 	 	 	 	 	 	 	 	 	1581492435	7.77	14.39
12/02/2020 07:27:16	120220	12022020	072716	184.66	12.933637	-57.107753	184.85	0.110	-0.110	2.870	184.68	-1.50	3.40	 	 	 	 	 	 	 	 	 	 	 	 	 	 	 	 	 	 	1581492436	7.64	14.15
12/02/2020 07:27:17	120220	12022020	072717	184.89	12.933602	-57.107757	185.10	0.350	0.200	1.680	184.96	-1.20	2.30	 	 	 	 	 	 	 	 	 	 	 	 	 	 	 	 	 	 	1581492437	7.53	13.95
12/02/2020 07:27:18	120220	12022020	072718	185.19	12.933567	-57.107755	185.42	0.230	0.250	0.850	185.25	-1.10	1.40	 	 	 	 	 	 	 	 	 	 	 	 	 	 	 	 	 	 	1581492438	7.42	13.74
12/02/2020 07:27:19	120220	12022020	072719	185.31	12.933532	-57.107755	185.39	-0.000	-0.200	0.860	185.27	-1.50	1.40	 	 	 	 	 	 	 	 	 	 	 	 	 	 	 	 	 	 	1581492439	7.54	13.96
12/02/2020 07:27:20	120220	12022020	072720	184.99	12.933495	-57.107758	185.04	-0.150	-0.780	1.510	184.91	-2.10	2.00	 	 	 	 	 	 	 	 	 	 	 	 	 	 	 	 	 	 	1581492440	8.02	14.85
12/02/2020 07:27:21	120220	12022020	072721	184.56	12.933457	-57.107768	184.64	-0.200	-0.950	2.360	184.50	-2.30	2.80	 	 	 	 	 	 	 	 	 	 	 	 	 	 	 	 	 	 	1581492441	8.37	15.50
12/02/2020 07:27:22	120220	12022020	072722	184.36	12.933420	-57.107780	184.51	-0.160	-0.530	2.850	184.36	-1.90	3.30	 	 	 	 	 	 	 	 	 	 	 	 	 	 	 	 	 	 	1581492442	8.20	15.19
12/02/2020 07:27:23	120220	12022020	072723	184.48	12.933387	-57.107790	184.69	-0.060	0.180	2.700	184.56	-1.20	3.20	 	 	 	 	 	 	 	 	 	 	 	 	 	 	 	 	 	 	1581492443	7.59	14.06
12/02/2020 07:27:24	120220	12022020	072724	184.93	12.933355	-57.107797	185.15	0.040	0.750	1.990	185.03	-0.60	2.50	 	 	 	 	 	 	 	 	 	 	 	 	 	 	 	 	 	 	1581492444	7.10	13.15
12/02/2020 07:27:25	120220	12022020	072725	185.42	12.933322	-57.107798	185.60	0.090	0.700	1.220	185.49	-0.70	1.80	 	 	 	 	 	 	 	 	 	 	 	 	 	 	 	 	 	 	1581492445	7.02	13.00
12/02/2020 07:27:26	120220	12022020	072726	185.64	12.933287	-57.107800	185.75	0.160	-0.060	1.000	185.64	-1.40	1.50	 	 	 	 	 	 	 	 	 	 	 	 	 	 	 	 	 	 	1581492446	7.49	13.87
12/02/2020 07:27:27	120220	12022020	072727	185.51	12.933250	-57.107803	185.60	0.260	-0.930	1.280	185.46	-2.30	1.80	 	 	 	 	 	 	 	 	 	 	 	 	 	 	 	 	 	 	1581492447	8.13	15.06
12/02/2020 07:27:28	120220	12022020	072728	185.26	12.933212	-57.107808	185.35	0.290	-1.240	1.730	185.21	-2.60	2.20	 	 	 	 	 	 	 	 	 	 	 	 	 	 	 	 	 	 	1581492448	8.30	15.37
12/02/2020 07:27:29	120220	12022020	072729	184.93	12.933175	-57.107815	184.99	0.160	-1.080	2.360	184.84	-2.50	2.80	 	 	 	 	 	 	 	 	 	 	 	 	 	 	 	 	 	 	1581492449	7.84	14.52
12/02/2020 07:27:30	120220	12022020	072730	184.53	12.933142	-57.107825	184.50	-0.060	-0.740	2.990	184.43	-2.10	3.50	 	 	 	 	 	 	 	 	 	 	 	 	 	 	 	 	 	 	1581492450	7.61	14.09
12/02/2020 07:27:31	120220	12022020	072731	184.19	12.933107	-57.107835	184.39	-0.360	-0.110	3.280	184.23	-1.50	3.80	 	 	 	 	 	 	 	 	 	 	 	 	 	 	 	 	 	 	1581492451	7.77	14.39
12/02/2020 07:27:32	120220	12022020	072732	184.45	12.933073	-57.107845	184.86	-0.650	0.740	3.070	184.57	-0.70	3.60	 	 	 	 	 	 	 	 	 	 	 	 	 	 	 	 	 	 	1581492452	7.57	14.02
12/02/2020 07:27:33	120220	12022020	072733	185.30	12.933042	-57.107855	185.61	-0.610	1.280	2.310	185.44	-0.10	2.90	 	 	 	 	 	 	 	 	 	 	 	 	 	 	 	 	 	 	1581492453	7.10	13.15
12/02/2020 07:27:34	120220	12022020	072734	186.00	12.933010	-57.107860	186.25	0.030	0.900	1.170	186.12	-0.40	1.70	 	 	 	 	 	 	 	 	 	 	 	 	 	 	 	 	 	 	1581492454	7.00	12.96
12/02/2020 07:27:35	120220	12022020	072735	186.43	12.932973	-57.107860	186.61	0.910	-0.320	0.250	186.48	-1.60	0.80	 	 	 	 	 	 	 	 	 	 	 	 	 	 	 	 	 	 	1581492455	7.78	14.41
12/02/2020 07:27:36	120220	12022020	072736	186.52	12.932933	-57.107858	186.65	1.320	-1.610	-0.000	186.51	-2.90	0.50	 	 	 	 	 	 	 	 	 	 	 	 	 	 	 	 	 	 	1581492456	8.67	16.06
12/02/2020 07:27:37	120220	12022020	072737	186.37	12.932892	-57.107858	186.47	0.860	-2.070	0.560	186.32	-3.40	1.00	 	 	 	 	 	 	 	 	 	 	 	 	 	 	 	 	 	 	1581492457	8.72	16.15
12/02/2020 07:27:38	120220	12022020	072738	185.99	12.932855	-57.107865	186.08	-0.150	-1.550	1.850	185.88	-2.90	2.30	 	 	 	 	 	 	 	 	 	 	 	 	 	 	 	 	 	 	1581492458	7.99	14.80
12/02/2020 07:27:39	120220	12022020	072739	185.38	12.932823	-57.107878	185.48	-1.000	-0.580	3.240	185.27	-2.00	3.70	 	 	 	 	 	 	 	 	 	 	 	 	 	 	 	 	 	 	1581492459	7.54	13.96
12/02/2020 07:27:40	120220	12022020	072740	185.01	12.932792	-57.107895	185.22	-1.270	0.440	3.920	184.99	-1.00	4.40	 	 	 	 	 	 	 	 	 	 	 	 	 	 	 	 	 	 	1581492460	7.75	14.35
12/02/2020 07:27:41	120220	12022020	072741	185.19	12.932758	-57.107910	185.52	-0.990	1.190	3.730	185.30	-0.20	4.20	 	 	 	 	 	 	 	 	 	 	 	 	 	 	 	 	 	 	1581492461	7.76	14.37
12/02/2020 07:27:42	120220	12022020	072742	185.84	12.932725	-57.107920	186.20	-0.420	1.380	2.810	185.99	0.00	3.40	 	 	 	 	 	 	 	 	 	 	 	 	 	 	 	 	 	 	1581492462	7.57	14.02
12/02/2020 07:27:43	120220	12022020	072743	186.54	12.932690	-57.107925	186.84	0.190	0.840	1.510	186.66	-0.50	2.10	 	 	 	 	 	 	 	 	 	 	 	 	 	 	 	 	 	 	1581492463	7.66	14.19
12/02/2020 07:27:44	120220	12022020	072744	187.00	12.932652	-57.107925	187.20	0.710	-0.120	0.370	187.05	-1.50	0.90	 	 	 	 	 	 	 	 	 	 	 	 	 	 	 	 	 	 	1581492464	8.09	14.98
12/02/2020 07:27:45	120220	12022020	072745	187.14	12.932613	-57.107925	187.28	0.950	-0.840	-0.110	187.14	-2.20	0.40	 	 	 	 	 	 	 	 	 	 	 	 	 	 	 	 	 	 	1581492465	8.29	15.35
12/02/2020 07:27:46	120220	12022020	072746	187.08	12.932577	-57.107925	187.17	0.770	-1.000	0.180	187.04	-2.40	0.70	 	 	 	 	 	 	 	 	 	 	 	 	 	 	 	 	 	 	1581492466	7.84	14.52
12/02/2020 07:27:47	120220	12022020	072747	186.80	12.932543	-57.107930	186.86	0.330	-0.920	1.000	186.72	-2.30	1.50	 	 	 	 	 	 	 	 	 	 	 	 	 	 	 	 	 	 	1581492467	7.16	13.26
12/02/2020 07:27:48	120220	12022020	072748	186.35	12.932512	-57.107940	186.43	-0.040	-1.000	1.920	186.26	-2.40	2.40	 	 	 	 	 	 	 	 	 	 	 	 	 	 	 	 	 	 	1581492468	7.18	13.30
12/02/2020 07:27:49	120220	12022020	072749	185.88	12.932477	-57.107952	185.98	-0.240	-1.170	2.810	185.77	-2.50	3.30	 	 	 	 	 	 	 	 	 	 	 	 	 	 	 	 	 	 	1581492469	7.75	14.35
12/02/2020 07:27:50	120220	12022020	072750	185.37	12.932442	-57.107965	185.49	-0.300	-1.160	3.530	185.28	-2.50	4.00	 	 	 	 	 	 	 	 	 	 	 	 	 	 	 	 	 	 	1581492470	8.31	15.39
12/02/2020 07:27:51	120220	12022020	072751	184.99	12.932403	-57.107978	185.17	-0.350	-0.550	3.750	184.96	-1.90	4.20	 	 	 	 	 	 	 	 	 	 	 	 	 	 	 	 	 	 	1581492471	8.48	15.70
12/02/2020 07:27:52	120220	12022020	072752	185.07	12.932368	-57.107988	185.35	-0.500	0.630	3.310	185.15	-0.80	3.80	 	 	 	 	 	 	 	 	 	 	 	 	 	 	 	 	 	 	1581492472	7.93	14.69
12/02/2020 07:27:53	120220	12022020	072753	185.70	12.932337	-57.107995	186.03	-0.650	1.680	2.240	185.87	0.30	2.80	 	 	 	 	 	 	 	 	 	 	 	 	 	 	 	 	 	 	1581492473	7.08	13.11
12/02/2020 07:27:54	120220	12022020	072754	186.59	12.932305	-57.107997	186.87	-0.550	1.670	1.010	186.75	0.30	1.60	 	 	 	 	 	 	 	 	 	 	 	 	 	 	 	 	 	 	1581492474	6.81	12.61
12/02/2020 07:27:55	120220	12022020	072755	187.14	12.932270	-57.107998	187.31	-0.070	0.370	0.410	187.19	-0.90	0.90	 	 	 	 	 	 	 	 	 	 	 	 	 	 	 	 	 	 	1581492475	7.55	13.98
12/02/2020 07:27:56	120220	12022020	072756	187.13	12.932228	-57.108002	187.22	0.570	-1.110	0.560	187.08	-2.50	1.10	 	 	 	 	 	 	 	 	 	 	 	 	 	 	 	 	 	 	1581492476	8.64	16.00
12/02/2020 07:27:57	120220	12022020	072757	186.80	12.932188	-57.108007	186.88	0.830	-1.470	1.140	186.73	-2.90	1.60	 	 	 	 	 	 	 	 	 	 	 	 	 	 	 	 	 	 	1581492477	8.72	16.15
12/02/2020 07:27:58	120220	12022020	072758	186.42	12.932155	-57.108013	186.51	0.500	-0.820	1.840	186.35	-2.20	2.30	 	 	 	 	 	 	 	 	 	 	 	 	 	 	 	 	 	 	1581492478	7.52	13.93
12/02/2020 07:27:59	120220	12022020	072759	185.96	12.932125	-57.108022	186.02	0.040	-0.340	2.520	185.84	-1.70	3.00	 	 	 	 	 	 	 	 	 	 	 	 	 	 	 	 	 	 	1581492479	6.58	12.19
12/02/2020 07:28:00	120220	12022020	072800	185.37	12.932093	-57.108032	185.45	0.060	-0.670	2.990	185.27	-2.00	3.50	 	 	 	 	 	 	 	 	 	 	 	 	 	 	 	 	 	 	1581492480	7.16	13.26
12/02/2020 07:28:01	120220	12022020	072801	185.02	12.932057	-57.108043	185.19	0.520	-0.990	2.930	185.01	-2.40	3.40	1014.70	26.10	26.20	20.20	20.40	-1.0	70.0	70.0	394.0	25.8	267.00	11.40	74.00	12.30	16	9131.0	27.3	27.3	1581492481	8.34	15.45
12/02/2020 07:28:02	120220	12022020	072802	185.15	12.932018	-57.108052	185.41	0.630	-0.540	2.570	185.23	-2.00	3.10	 	 	 	 	 	 	 	 	 	 	 	 	 	 	 	 	 	 	1581492482	8.45	15.65
12/02/2020 07:28:03	120220	12022020	072803	185.70	12.931983	-57.108055	186.00	-0.090	0.440	2.150	185.85	-1.00	2.70	 	 	 	 	 	 	 	 	 	 	 	 	 	 	 	 	 	 	1581492483	7.54	13.96
12/02/2020 07:28:04	120220	12022020	072804	186.37	12.931952	-57.108060	186.63	-1.190	1.040	1.980	186.48	-0.40	2.50	 	 	 	 	 	 	 	 	 	 	 	 	 	 	 	 	 	 	1581492484	6.71	12.43
12/02/2020 07:28:05	120220	12022020	072805	186.76	12.931922	-57.108068	186.96	-1.730	0.800	2.230	186.79	-0.60	2.70	 	 	 	 	 	 	 	 	 	 	 	 	 	 	 	 	 	 	1581492485	6.97	12.91
12/02/2020 07:28:06	120220	12022020	072806	186.83	12.931887	-57.108085	187.03	-1.070	-0.020	2.410	186.84	-1.40	2.90	 	 	 	 	 	 	 	 	 	 	 	 	 	 	 	 	 	 	1581492486	7.97	14.76
12/02/2020 07:28:07	120220	12022020	072807	186.82	12.931850	-57.108098	187.00	0.400	-0.820	2.010	186.81	-2.20	2.50	 	 	 	 	 	 	 	 	 	 	 	 	 	 	 	 	 	 	1581492487	8.47	15.69
12/02/2020 07:28:08	120220	12022020	072808	186.80	12.931812	-57.108105	186.98	1.540	-1.110	1.370	186.80	-2.50	1.90	 	 	 	 	 	 	 	 	 	 	 	 	 	 	 	 	 	 	1581492488	8.27	15.32
12/02/2020 07:28:09	120220	12022020	072809	186.87	12.931777	-57.108105	187.05	1.550	-0.720	1.050	186.90	-2.10	1.60	 	 	 	 	 	 	 	 	 	 	 	 	 	 	 	 	 	 	1581492489	7.82	14.48
12/02/2020 07:28:10	120220	12022020	072810	186.91	12.931743	-57.108105	187.03	0.660	-0.030	1.350	186.89	-1.50	1.80	 	 	 	 	 	 	 	 	 	 	 	 	 	 	 	 	 	 	1581492490	6.99	12.95
12/02/2020 07:28:11	120220	12022020	072811	186.64	12.931713	-57.108110	186.70	-0.270	0.300	2.160	186.55	-1.10	2.60	 	 	 	 	 	 	 	 	 	 	 	 	 	 	 	 	 	 	1581492491	6.58	12.19
12/02/2020 07:28:12	120220	12022020	072812	186.11	12.931682	-57.108120	186.20	-0.630	-0.040	3.060	186.01	-1.40	3.50	 	 	 	 	 	 	 	 	 	 	 	 	 	 	 	 	 	 	1581492492	7.16	13.26
12/02/2020 07:28:13	120220	12022020	072813	185.70	12.931645	-57.108133	185.87	-0.510	-0.580	3.530	185.66	-1.90	4.00	 	 	 	 	 	 	 	 	 	 	 	 	 	 	 	 	 	 	1581492493	8.14	15.08
12/02/2020 07:28:14	120220	12022020	072814	185.57	12.931608	-57.108145	185.78	-0.330	-0.820	3.530	185.56	-2.20	4.00	 	 	 	 	 	 	 	 	 	 	 	 	 	 	 	 	 	 	1581492494	8.42	15.59
12/02/2020 07:28:15	120220	12022020	072815	185.57	12.931573	-57.108157	185.78	-0.370	-0.570	3.180	185.58	-2.00	3.70	 	 	 	 	 	 	 	 	 	 	 	 	 	 	 	 	 	 	1581492495	8.05	14.91
12/02/2020 07:28:16	120220	12022020	072816	185.65	12.931538	-57.108167	185.88	-0.500	0.000	2.580	185.69	-1.40	3.10	 	 	 	 	 	 	 	 	 	 	 	 	 	 	 	 	 	 	1581492496	7.49	13.87
12/02/2020 07:28:17	120220	12022020	072817	185.85	12.931507	-57.108173	186.07	-0.420	0.480	1.880	185.89	-0.90	2.40	 	 	 	 	 	 	 	 	 	 	 	 	 	 	 	 	 	 	1581492497	7.00	12.96
12/02/2020 07:28:18	120220	12022020	072818	186.01	12.931475	-57.108180	186.20	0.010	0.420	1.230	186.02	-1.00	1.80	 	 	 	 	 	 	 	 	 	 	 	 	 	 	 	 	 	 	1581492498	6.98	12.93
12/02/2020 07:28:19	120220	12022020	072819	186.03	12.931440	-57.108183	186.17	0.570	-0.030	0.800	186.01	-1.40	1.30	 	 	 	 	 	 	 	 	 	 	 	 	 	 	 	 	 	 	1581492499	7.49	13.87
12/02/2020 07:28:20	120220	12022020	072820	185.92	12.931405	-57.108187	186.03	0.860	-0.270	0.760	185.90	-1.70	1.30	 	 	 	 	 	 	 	 	 	 	 	 	 	 	 	 	 	 	1581492500	7.83	14.50
12/02/2020 07:28:21	120220	12022020	072821	185.80	12.931370	-57.108192	185.96	0.720	-0.110	0.940	185.80	-1.50	1.50	 	 	 	 	 	 	 	 	 	 	 	 	 	 	 	 	 	 	1581492501	7.52	13.93
12/02/2020 07:28:22	120220	12022020	072822	185.77	12.931338	-57.108197	185.87	0.420	-0.030	1.290	185.75	-1.40	1.80	 	 	 	 	 	 	 	 	 	 	 	 	 	 	 	 	 	 	1581492502	6.96	12.89
12/02/2020 07:28:23	120220	12022020	072823	185.52	12.931305	-57.108203	185.64	0.260	-0.380	1.920	185.47	-1.70	2.40	 	 	 	 	 	 	 	 	 	 	 	 	 	 	 	 	 	 	1581492503	7.05	13.06
12/02/2020 07:28:24	120220	12022020	072824	185.37	12.931272	-57.108212	185.56	0.190	-0.770	2.480	185.37	-2.10	3.00	 	 	 	 	 	 	 	 	 	 	 	 	 	 	 	 	 	 	1581492504	7.67	14.20
12/02/2020 07:28:25	120220	12022020	072825	185.39	12.931237	-57.108222	185.59	-0.040	-1.000	2.910	185.38	-2.40	3.40	 	 	 	 	 	 	 	 	 	 	 	 	 	 	 	 	 	 	1581492505	7.76	14.37
12/02/2020 07:28:26	120220	12022020	072826	185.25	12.931202	-57.108232	185.40	-0.400	-1.210	3.360	185.18	-2.60	3.80	 	 	 	 	 	 	 	 	 	 	 	 	 	 	 	 	 	 	1581492506	7.69	14.24
12/02/2020 07:28:27	120220	12022020	072827	184.80	12.931167	-57.108242	184.92	-0.690	-1.250	3.830	184.69	-2.60	4.30	 	 	 	 	 	 	 	 	 	 	 	 	 	 	 	 	 	 	1581492507	7.98	14.78
12/02/2020 07:28:28	120220	12022020	072828	184.30	12.931130	-57.108255	184.46	-0.780	-0.750	4.000	184.23	-2.10	4.50	 	 	 	 	 	 	 	 	 	 	 	 	 	 	 	 	 	 	1581492508	8.17	15.13
12/02/2020 07:28:29	120220	12022020	072829	184.03	12.931097	-57.108267	184.21	-0.660	0.290	3.680	184.00	-1.10	4.20	 	 	 	 	 	 	 	 	 	 	 	 	 	 	 	 	 	 	1581492509	7.76	14.37
12/02/2020 07:28:30	120220	12022020	072830	184.04	12.931063	-57.108273	184.26	-0.380	1.180	2.890	184.09	-0.20	3.40	 	 	 	 	 	 	 	 	 	 	 	 	 	 	 	 	 	 	1581492510	7.07	13.09
12/02/2020 07:28:31	120220	12022020	072831	184.42	12.931032	-57.108277	184.65	-0.040	1.300	1.870	184.51	-0.10	2.40	 	 	 	 	 	 	 	 	 	 	 	 	 	 	 	 	 	 	1581492511	7.01	12.98
12/02/2020 07:28:32	120220	12022020	072832	184.87	12.930997	-57.108278	185.09	0.400	0.650	1.100	184.96	-0.70	1.60	 	 	 	 	 	 	 	 	 	 	 	 	 	 	 	 	 	 	1581492512	7.52	13.93
12/02/2020 07:28:33	120220	12022020	072833	185.30	12.930958	-57.108278	185.49	0.830	-0.080	0.590	185.37	-1.40	1.10	 	 	 	 	 	 	 	 	 	 	 	 	 	 	 	 	 	 	1581492513	8.03	14.87
12/02/2020 07:28:34	120220	12022020	072834	185.59	12.930922	-57.108280	185.72	0.970	-0.520	0.510	185.61	-1.90	1.00	 	 	 	 	 	 	 	 	 	 	 	 	 	 	 	 	 	 	1581492514	7.88	14.59
12/02/2020 07:28:35	120220	12022020	072835	185.54	12.930888	-57.108282	185.64	0.670	-0.720	1.140	185.51	-2.10	1.60	 	 	 	 	 	 	 	 	 	 	 	 	 	 	 	 	 	 	1581492515	7.36	13.63
12/02/2020 07:28:36	120220	12022020	072836	185.32	12.930857	-57.108290	185.41	0.080	-0.770	2.160	185.26	-2.20	2.60	 	 	 	 	 	 	 	 	 	 	 	 	 	 	 	 	 	 	1581492516	7.13	13.20
12/02/2020 07:28:37	120220	12022020	072837	184.97	12.930825	-57.108300	185.07	-0.370	-0.880	3.110	184.87	-2.30	3.60	 	 	 	 	 	 	 	 	 	 	 	 	 	 	 	 	 	 	1581492517	7.21	13.35
12/02/2020 07:28:38	120220	12022020	072838	184.43	12.930792	-57.108313	184.52	-0.370	-1.280	3.820	184.30	-2.60	4.30	 	 	 	 	 	 	 	 	 	 	 	 	 	 	 	 	 	 	1581492518	7.58	14.04
12/02/2020 07:28:39	120220	12022020	072839	183.79	12.930755	-57.108327	183.91	-0.010	-1.520	4.080	183.68	-2.90	4.60	 	 	 	 	 	 	 	 	 	 	 	 	 	 	 	 	 	 	1581492519	8.23	15.24
12/02/2020 07:28:40	120220	12022020	072840	183.42	12.930718	-57.108335	183.62	0.220	-0.960	3.680	183.41	-2.40	4.20	 	 	 	 	 	 	 	 	 	 	 	 	 	 	 	 	 	 	1581492520	8.33	15.43
12/02/2020 07:28:41	120220	12022020	072841	183.63	12.930682	-57.108340	183.91	-0.010	0.260	2.730	183.74	-1.20	3.30	 	 	 	 	 	 	 	 	 	 	 	 	 	 	 	 	 	 	1581492521	7.60	14.08
12/02/2020 07:28:42	120220	12022020	072842	184.35	12.930650	-57.108340	184.67	-0.520	1.280	1.580	184.53	-0.10	2.10	 	 	 	 	 	 	 	 	 	 	 	 	 	 	 	 	 	 	1581492522	6.79	12.58
12/02/2020 07:28:43	120220	12022020	072843	185.19	12.930620	-57.108342	185.44	-0.860	1.330	0.790	185.32	-0.00	1.30	 	 	 	 	 	 	 	 	 	 	 	 	 	 	 	 	 	 	1581492523	6.75	12.50
12/02/2020 07:28:44	120220	12022020	072844	185.61	12.930585	-57.108343	185.73	-0.730	0.400	0.870	185.62	-0.90	1.40	 	 	 	 	 	 	 	 	 	 	 	 	 	 	 	 	 	 	1581492524	7.47	13.83
12/02/2020 07:28:45	120220	12022020	072845	185.43	12.930547	-57.108352	185.49	-0.230	-0.600	1.500	185.35	-2.00	2.00	 	 	 	 	 	 	 	 	 	 	 	 	 	 	 	 	 	 	1581492525	8.35	15.46
12/02/2020 07:28:46	120220	12022020	072846	185.09	12.930508	-57.108362	185.13	0.300	-0.830	2.050	185.02	-2.20	2.50	 	 	 	 	 	 	 	 	 	 	 	 	 	 	 	 	 	 	1581492526	8.48	15.70
12/02/2020 07:28:47	120220	12022020	072847	184.78	12.930475	-57.108370	184.92	0.630	-0.310	2.030	184.76	-1.70	2.50	 	 	 	 	 	 	 	 	 	 	 	 	 	 	 	 	 	 	1581492527	7.62	14.11
12/02/2020 07:28:48	120220	12022020	072848	184.75	12.930443	-57.108375	184.90	0.700	0.050	1.660	184.75	-1.30	2.20	 	 	 	 	 	 	 	 	 	 	 	 	 	 	 	 	 	 	1581492528	6.70	12.41
12/02/2020 07:28:49	120220	12022020	072849	184.69	12.930412	-57.108375	184.80	0.570	-0.390	1.690	184.64	-1.70	2.20	 	 	 	 	 	 	 	 	 	 	 	 	 	 	 	 	 	 	1581492529	6.86	12.70
12/02/2020 07:28:50	120220	12022020	072850	184.27	12.930375	-57.108378	184.34	0.350	-1.280	2.380	184.15	-2.60	2.80	 	 	 	 	 	 	 	 	 	 	 	 	 	 	 	 	 	 	1581492530	7.78	14.41
12/02/2020 07:28:51	120220	12022020	072851	183.73	12.930337	-57.108387	183.84	0.040	-1.530	3.250	183.65	-2.90	3.70	 	 	 	 	 	 	 	 	 	 	 	 	 	 	 	 	 	 	1581492531	8.56	15.85
12/02/2020 07:28:52	120220	12022020	072852	183.56	12.930300	-57.108398	183.77	-0.400	-0.670	3.890	183.59	-2.10	4.40	 	 	 	 	 	 	 	 	 	 	 	 	 	 	 	 	 	 	1581492532	8.27	15.32
12/02/2020 07:28:53	120220	12022020	072853	183.88	12.930268	-57.108412	184.16	-0.820	0.650	3.870	183.98	-0.80	4.40	 	 	 	 	 	 	 	 	 	 	 	 	 	 	 	 	 	 	1581492533	7.27	13.46
12/02/2020 07:28:54	120220	12022020	072854	184.38	12.930240	-57.108422	184.63	-0.880	1.250	3.150	184.46	-0.10	3.70	 	 	 	 	 	 	 	 	 	 	 	 	 	 	 	 	 	 	1581492534	6.53	12.09
12/02/2020 07:28:55	120220	12022020	072855	184.58	12.930208	-57.108427	184.74	-0.380	0.510	2.310	184.58	-0.80	2.80	 	 	 	 	 	 	 	 	 	 	 	 	 	 	 	 	 	 	1581492535	6.95	12.87
12/02/2020 07:28:56	120220	12022020	072856	184.52	12.930170	-57.108430	184.67	0.340	-0.560	1.690	184.52	-1.90	2.20	 	 	 	 	 	 	 	 	 	 	 	 	 	 	 	 	 	 	1581492536	8.33	15.43
12/02/2020 07:28:57	120220	12022020	072857	184.66	12.930128	-57.108432	184.86	0.620	-0.740	1.250	184.72	-2.10	1.80	 	 	 	 	 	 	 	 	 	 	 	 	 	 	 	 	 	 	1581492537	8.67	16.06
12/02/2020 07:28:58	120220	12022020	072858	184.91	12.930093	-57.108432	185.12	0.280	-0.340	1.190	184.96	-1.70	1.70	 	 	 	 	 	 	 	 	 	 	 	 	 	 	 	 	 	 	1581492538	7.56	14.00
12/02/2020 07:28:59	120220	12022020	072859	185.05	12.930062	-57.108437	185.18	-0.150	-0.260	1.620	185.04	-1.60	2.10	 	 	 	 	 	 	 	 	 	 	 	 	 	 	 	 	 	 	1581492539	6.82	12.63
12/02/2020 07:29:00	120220	12022020	072900	184.91	12.930030	-57.108443	185.01	-0.140	-0.600	2.110	184.87	-2.00	2.60	 	 	 	 	 	 	 	 	 	 	 	 	 	 	 	 	 	 	1581492540	7.34	13.59
12/02/2020 07:29:01	120220	12022020	072901	184.65	12.929993	-57.108453	184.77	0.170	-0.810	2.450	184.62	-2.20	2.90	1014.70	26.20	26.30	19.70	19.90	-1.0	67.0	68.0	392.0	25.8	265.00	12.20	73.00	13.20	16	9887.0	27.3	27.3	1581492541	7.97	14.76
12/02/2020 07:29:02	120220	12022020	072902	184.54	12.929957	-57.108462	184.69	0.280	-0.500	2.570	184.54	-1.90	3.10	 	 	 	 	 	 	 	 	 	 	 	 	 	 	 	 	 	 	1581492542	7.96	14.74
12/02/2020 07:29:03	120220	12022020	072903	184.63	12.929923	-57.108468	184.79	0.050	0.080	2.320	184.65	-1.30	2.80	 	 	 	 	 	 	 	 	 	 	 	 	 	 	 	 	 	 	1581492543	7.38	13.67
12/02/2020 07:29:04	120220	12022020	072904	184.70	12.929892	-57.108473	184.83	-0.180	0.350	1.970	184.70	-1.00	2.50	 	 	 	 	 	 	 	 	 	 	 	 	 	 	 	 	 	 	1581492544	7.01	12.98
12/02/2020 07:29:05	120220	12022020	072905	184.57	12.929858	-57.108477	184.65	-0.180	0.070	1.980	184.52	-1.30	2.50	 	 	 	 	 	 	 	 	 	 	 	 	 	 	 	 	 	 	1581492545	7.31	13.54
12/02/2020 07:29:06	120220	12022020	072906	184.24	12.929822	-57.108483	184.31	-0.080	-0.460	2.440	184.15	-1.80	2.90	 	 	 	 	 	 	 	 	 	 	 	 	 	 	 	 	 	 	1581492546	7.93	14.69
12/02/2020 07:29:07	120220	12022020	072907	183.85	12.929783	-57.108490	183.95	-0.120	-0.690	2.980	183.79	-2.10	3.50	 	 	 	 	 	 	 	 	 	 	 	 	 	 	 	 	 	 	1581492547	8.29	15.35
12/02/2020 07:29:08	120220	12022020	072908	183.70	12.929747	-57.108500	183.89	-0.320	-0.320	3.170	183.73	-1.70	3.70	 	 	 	 	 	 	 	 	 	 	 	 	 	 	 	 	 	 	1581492548	8.11	15.02
12/02/2020 07:29:09	120220	12022020	072909	184.04	12.929713	-57.108510	184.30	-0.440	0.390	2.780	184.16	-1.00	3.30	 	 	 	 	 	 	 	 	 	 	 	 	 	 	 	 	 	 	1581492549	7.50	13.89
12/02/2020 07:29:10	120220	12022020	072910	184.74	12.929682	-57.108518	185.01	-0.210	0.780	1.840	184.90	-0.60	2.40	 	 	 	 	 	 	 	 	 	 	 	 	 	 	 	 	 	 	1581492550	6.89	12.76
12/02/2020 07:29:11	120220	12022020	072911	185.49	12.929650	-57.108522	185.72	0.300	0.380	0.830	185.62	-1.00	1.40	 	 	 	 	 	 	 	 	 	 	 	 	 	 	 	 	 	 	1581492551	6.93	12.83
12/02/2020 07:29:12	120220	12022020	072912	185.91	12.929615	-57.108522	186.03	0.720	-0.650	0.340	185.92	-2.00	0.90	 	 	 	 	 	 	 	 	 	 	 	 	 	 	 	 	 	 	1581492552	7.60	14.08
12/02/2020 07:29:13	120220	12022020	072913	185.77	12.929577	-57.108523	185.82	0.760	-1.620	0.510	185.71	-3.00	1.00	 	 	 	 	 	 	 	 	 	 	 	 	 	 	 	 	 	 	1581492553	8.21	15.20
12/02/2020 07:29:14	120220	12022020	072914	185.35	12.929538	-57.108527	185.39	0.360	-1.740	1.170	185.26	-3.10	1.60	 	 	 	 	 	 	 	 	 	 	 	 	 	 	 	 	 	 	1581492554	8.29	15.35
12/02/2020 07:29:15	120220	12022020	072915	184.90	12.929503	-57.108535	184.96	-0.150	-1.000	1.920	184.82	-2.40	2.40	 	 	 	 	 	 	 	 	 	 	 	 	 	 	 	 	 	 	1581492555	7.71	14.28
12/02/2020 07:29:16	120220	12022020	072916	184.59	12.929472	-57.108545	184.69	-0.450	-0.040	2.420	184.55	-1.50	2.90	 	 	 	 	 	 	 	 	 	 	 	 	 	 	 	 	 	 	1581492556	7.21	13.35
12/02/2020 07:29:17	120220	12022020	072917	184.46	12.929438	-57.108553	184.60	-0.460	0.550	2.640	184.45	-0.90	3.10	 	 	 	 	 	 	 	 	 	 	 	 	 	 	 	 	 	 	1581492557	7.20	13.33
12/02/2020 07:29:18	120220	12022020	072918	184.47	12.929405	-57.108562	184.63	-0.390	0.670	2.640	184.49	-0.70	3.10	 	 	 	 	 	 	 	 	 	 	 	 	 	 	 	 	 	 	1581492558	7.62	14.11
12/02/2020 07:29:19	120220	12022020	072919	184.63	12.929368	-57.108568	184.82	-0.400	0.500	2.560	184.68	-0.90	3.10	 	 	 	 	 	 	 	 	 	 	 	 	 	 	 	 	 	 	1581492559	8.00	14.82
12/02/2020 07:29:20	120220	12022020	072920	184.91	12.929332	-57.108575	185.12	-0.420	0.220	2.440	184.97	-1.20	2.90	 	 	 	 	 	 	 	 	 	 	 	 	 	 	 	 	 	 	1581492560	8.02	14.85
12/02/2020 07:29:21	120220	12022020	072921	185.20	12.929295	-57.108583	185.40	-0.250	-0.140	2.130	185.24	-1.50	2.60	 	 	 	 	 	 	 	 	 	 	 	 	 	 	 	 	 	 	1581492561	7.90	14.63
12/02/2020 07:29:22	120220	12022020	072922	185.32	12.929260	-57.108590	185.48	0.170	-0.570	1.760	185.32	-2.00	2.30	 	 	 	 	 	 	 	 	 	 	 	 	 	 	 	 	 	 	1581492562	7.81	14.46
12/02/2020 07:29:23	120220	12022020	072923	185.21	12.929223	-57.108597	185.34	0.650	-0.880	1.510	185.18	-2.30	2.00	 	 	 	 	 	 	 	 	 	 	 	 	 	 	 	 	 	 	1581492563	7.85	14.54
12/02/2020 07:29:24	120220	12022020	072924	185.07	12.929188	-57.108600	185.24	0.760	-0.600	1.330	185.07	-2.00	1.80	 	 	 	 	 	 	 	 	 	 	 	 	 	 	 	 	 	 	1581492564	7.78	14.41
12/02/2020 07:29:25	120220	12022020	072925	185.16	12.929155	-57.108603	185.35	0.330	0.140	1.210	185.20	-1.30	1.70	 	 	 	 	 	 	 	 	 	 	 	 	 	 	 	 	 	 	1581492565	7.19	13.32
12/02/2020 07:29:26	120220	12022020	072926	185.40	12.929123	-57.108607	185.60	-0.200	0.500	1.200	185.44	-0.90	1.70	 	 	 	 	 	 	 	 	 	 	 	 	 	 	 	 	 	 	1581492566	6.60	12.22
12/02/2020 07:29:27	120220	12022020	072927	185.54	12.929092	-57.108613	185.69	-0.290	-0.060	1.380	185.54	-1.40	1.90	 	 	 	 	 	 	 	 	 	 	 	 	 	 	 	 	 	 	1581492567	7.00	12.96
12/02/2020 07:29:28	120220	12022020	072928	185.43	12.929055	-57.108622	185.55	0.090	-1.080	1.820	185.38	-2.40	2.30	 	 	 	 	 	 	 	 	 	 	 	 	 	 	 	 	 	 	1581492568	8.08	14.96
12/02/2020 07:29:29	120220	12022020	072929	185.09	12.929015	-57.108630	185.20	0.460	-1.600	2.440	185.01	-3.00	2.90	 	 	 	 	 	 	 	 	 	 	 	 	 	 	 	 	 	 	1581492569	8.77	16.24
12/02/2020 07:29:30	120220	12022020	072930	184.75	12.928977	-57.108637	184.90	0.330	-1.110	2.890	184.70	-2.50	3.40	 	 	 	 	 	 	 	 	 	 	 	 	 	 	 	 	 	 	1581492570	8.45	15.65
12/02/2020 07:29:31	120220	12022020	072931	184.65	12.928942	-57.108645	184.87	-0.290	0.050	3.030	184.67	-1.40	3.50	 	 	 	 	 	 	 	 	 	 	 	 	 	 	 	 	 	 	1581492571	7.53	13.95
12/02/2020 07:29:32	120220	12022020	072932	184.83	12.928912	-57.108652	185.08	-0.880	0.950	2.920	184.88	-0.50	3.40	 	 	 	 	 	 	 	 	 	 	 	 	 	 	 	 	 	 	1581492572	6.84	12.67
12/02/2020 07:29:33	120220	12022020	072933	185.03	12.928880	-57.108662	185.25	-0.910	0.980	2.580	185.07	-0.40	3.10	 	 	 	 	 	 	 	 	 	 	 	 	 	 	 	 	 	 	1581492573	7.03	13.02
12/02/2020 07:29:34	120220	12022020	072934	185.13	12.928845	-57.108668	185.36	-0.370	0.410	2.050	185.16	-1.00	2.60	 	 	 	 	 	 	 	 	 	 	 	 	 	 	 	 	 	 	1581492574	7.77	14.39
12/02/2020 07:29:35	120220	12022020	072935	185.28	12.928807	-57.108675	185.47	0.310	-0.280	1.460	185.30	-1.60	2.00	 	 	 	 	 	 	 	 	 	 	 	 	 	 	 	 	 	 	1581492575	8.23	15.24
12/02/2020 07:29:36	120220	12022020	072936	185.26	12.928768	-57.108678	185.40	0.770	-0.770	1.090	185.24	-2.10	1.60	 	 	 	 	 	 	 	 	 	 	 	 	 	 	 	 	 	 	1581492576	8.19	15.17
12/02/2020 07:29:37	120220	12022020	072937	185.16	12.928732	-57.108680	185.32	0.840	-0.830	1.020	185.16	-2.20	1.50	 	 	 	 	 	 	 	 	 	 	 	 	 	 	 	 	 	 	1581492577	7.96	14.74
12/02/2020 07:29:38	120220	12022020	072938	185.27	12.928697	-57.108683	185.45	0.450	-0.450	1.350	185.31	-1.90	1.80	 	 	 	 	 	 	 	 	 	 	 	 	 	 	 	 	 	 	1581492578	7.58	14.04
12/02/2020 07:29:39	120220	12022020	072939	185.46	12.928665	-57.108688	185.64	-0.180	-0.050	2.040	185.49	-1.40	2.50	 	 	 	 	 	 	 	 	 	 	 	 	 	 	 	 	 	 	1581492579	7.09	13.13
12/02/2020 07:29:40	120220	12022020	072940	185.51	12.928632	-57.108698	185.66	-0.540	-0.090	2.640	185.49	-1.50	3.10	 	 	 	 	 	 	 	 	 	 	 	 	 	 	 	 	 	 	1581492580	7.18	13.30
12/02/2020 07:29:41	120220	12022020	072941	185.30	12.928598	-57.108712	185.43	-0.370	-0.510	3.040	185.23	-1.90	3.50	 	 	 	 	 	 	 	 	 	 	 	 	 	 	 	 	 	 	1581492581	7.80	14.45
12/02/2020 07:29:42	120220	12022020	072942	184.89	12.928562	-57.108722	185.04	0.070	-0.810	3.310	184.81	-2.20	3.80	 	 	 	 	 	 	 	 	 	 	 	 	 	 	 	 	 	 	1581492582	8.28	15.33
12/02/2020 07:29:43	120220	12022020	072943	184.62	12.928523	-57.108730	184.83	0.310	-0.610	3.150	184.61	-2.00	3.70	 	 	 	 	 	 	 	 	 	 	 	 	 	 	 	 	 	 	1581492583	8.27	15.32
12/02/2020 07:29:44	120220	12022020	072944	184.76	12.928488	-57.108735	185.02	0.110	0.000	2.490	184.84	-1.40	3.00	 	 	 	 	 	 	 	 	 	 	 	 	 	 	 	 	 	 	1581492584	7.74	14.33
12/02/2020 07:29:45	120220	12022020	072945	185.12	12.928455	-57.108738	185.35	-0.210	0.370	1.970	185.18	-1.00	2.50	 	 	 	 	 	 	 	 	 	 	 	 	 	 	 	 	 	 	1581492585	7.19	13.32
12/02/2020 07:29:46	120220	12022020	072946	185.29	12.928420	-57.108742	185.47	-0.240	0.080	1.810	185.29	-1.30	2.30	 	 	 	 	 	 	 	 	 	 	 	 	 	 	 	 	 	 	1581492586	7.34	13.59
12/02/2020 07:29:47	120220	12022020	072947	185.26	12.928383	-57.108748	185.42	-0.000	-0.360	1.760	185.25	-1.70	2.30	 	 	 	 	 	 	 	 	 	 	 	 	 	 	 	 	 	 	1581492587	8.06	14.93
12/02/2020 07:29:48	120220	12022020	072948	185.26	12.928347	-57.108753	185.43	0.090	-0.330	1.790	185.27	-1.70	2.30	 	 	 	 	 	 	 	 	 	 	 	 	 	 	 	 	 	 	1581492588	8.21	15.20
12/02/2020 07:29:49	120220	12022020	072949	185.34	12.928312	-57.108760	185.51	-0.100	-0.040	1.760	185.35	-1.40	2.30	 	 	 	 	 	 	 	 	 	 	 	 	 	 	 	 	 	 	1581492589	7.60	14.08
12/02/2020 07:29:50	120220	12022020	072950	185.45	12.928278	-57.108767	185.63	-0.270	0.010	1.640	185.48	-1.40	2.20	 	 	 	 	 	 	 	 	 	 	 	 	 	 	 	 	 	 	1581492590	7.29	13.50
12/02/2020 07:29:51	120220	12022020	072951	185.59	12.928243	-57.108775	185.75	-0.080	-0.270	1.480	185.60	-1.60	2.00	 	 	 	 	 	 	 	 	 	 	 	 	 	 	 	 	 	 	1581492591	7.55	13.98
12/02/2020 07:29:52	120220	12022020	072952	185.52	12.928207	-57.108782	185.62	0.440	-0.590	1.480	185.47	-2.00	2.00	 	 	 	 	 	 	 	 	 	 	 	 	 	 	 	 	 	 	1581492592	7.93	14.69
12/02/2020 07:29:53	120220	12022020	072953	185.32	12.928170	-57.108787	185.44	0.790	-0.540	1.600	185.29	-1.90	2.10	 	 	 	 	 	 	 	 	 	 	 	 	 	 	 	 	 	 	1581492593	8.08	14.96
12/02/2020 07:29:54	120220	12022020	072954	185.23	12.928135	-57.108790	185.38	0.570	-0.150	1.730	185.21	-1.50	2.20	 	 	 	 	 	 	 	 	 	 	 	 	 	 	 	 	 	 	1581492594	7.71	14.28
12/02/2020 07:29:55	120220	12022020	072955	185.14	12.928102	-57.108795	185.27	-0.060	0.020	1.930	185.11	-1.40	2.40	 	 	 	 	 	 	 	 	 	 	 	 	 	 	 	 	 	 	1581492595	7.28	13.48
12/02/2020 07:29:56	120220	12022020	072956	184.96	12.928067	-57.108802	185.10	-0.640	-0.290	2.400	184.92	-1.70	2.90	 	 	 	 	 	 	 	 	 	 	 	 	 	 	 	 	 	 	1581492596	7.51	13.91
12/02/2020 07:29:57	120220	12022020	072957	184.77	12.928030	-57.108812	184.93	-0.770	-0.630	2.860	184.74	-2.00	3.30	 	 	 	 	 	 	 	 	 	 	 	 	 	 	 	 	 	 	1581492597	8.18	15.15
12/02/2020 07:29:58	120220	12022020	072958	184.61	12.927993	-57.108825	184.78	-0.370	-0.630	2.870	184.59	-2.00	3.40	 	 	 	 	 	 	 	 	 	 	 	 	 	 	 	 	 	 	1581492598	8.34	15.45
12/02/2020 07:29:59	120220	12022020	072959	184.60	12.927957	-57.108835	184.81	0.220	-0.410	2.370	184.63	-1.80	2.90	 	 	 	 	 	 	 	 	 	 	 	 	 	 	 	 	 	 	1581492599	7.99	14.80
12/02/2020 07:30:00	120220	12022020	073000	184.77	12.927922	-57.108840	185.06	0.560	-0.110	1.680	184.82	-1.50	2.20	 	 	 	 	 	 	 	 	 	 	 	 	 	 	 	 	 	 	1581492600	7.70	14.26
12/02/2020 07:30:01	120220	12022020	073001	185.18	12.927887	-57.108840	185.38	0.400	0.130	1.240	185.24	-1.30	1.80	1014.70	26.20	26.30	19.80	19.90	-1.0	67.0	68.0	392.0	25.8	264.00	12.10	71.00	13.10	16	10220.0	27.3	27.3	1581492601	7.59	14.06
12/02/2020 07:30:02	120220	12022020	073002	185.34	12.927852	-57.108842	185.50	-0.070	0.090	1.200	185.36	-1.30	1.70	 	 	 	 	 	 	 	 	 	 	 	 	 	 	 	 	 	 	1581492602	7.53	13.95
12/02/2020 07:30:03	120220	12022020	073003	185.36	12.927817	-57.108847	185.53	-0.440	-0.150	1.440	185.37	-1.50	1.90	 	 	 	 	 	 	 	 	 	 	 	 	 	 	 	 	 	 	1581492603	7.78	14.41
12/02/2020 07:30:04	120220	12022020	073004	185.42	12.927780	-57.108855	185.60	-0.510	-0.270	1.850	185.43	-1.70	2.30	 	 	 	 	 	 	 	 	 	 	 	 	 	 	 	 	 	 	1581492604	8.02	14.85
12/02/2020 07:30:05	120220	12022020	073005	185.41	12.927743	-57.108863	185.55	-0.260	-0.360	2.300	185.37	-1.70	2.80	 	 	 	 	 	 	 	 	 	 	 	 	 	 	 	 	 	 	1581492605	7.87	14.58
12/02/2020 07:30:06	120220	12022020	073006	185.10	12.927708	-57.108873	185.20	0.180	-0.680	2.570	185.02	-2.00	3.10	 	 	 	 	 	 	 	 	 	 	 	 	 	 	 	 	 	 	1581492606	7.90	14.63
12/02/2020 07:30:07	120220	12022020	073007	184.70	12.927670	-57.108882	184.83	0.540	-0.820	2.550	184.65	-2.20	3.10	 	 	 	 	 	 	 	 	 	 	 	 	 	 	 	 	 	 	1581492607	8.29	15.35
12/02/2020 07:30:08	120220	12022020	073008	184.68	12.927633	-57.108887	184.91	0.510	-0.200	2.170	184.75	-1.60	2.70	 	 	 	 	 	 	 	 	 	 	 	 	 	 	 	 	 	 	1581492608	8.22	15.22
12/02/2020 07:30:09	120220	12022020	073009	185.14	12.927598	-57.108890	185.41	0.090	0.710	1.600	185.25	-0.70	2.10	 	 	 	 	 	 	 	 	 	 	 	 	 	 	 	 	 	 	1581492609	7.28	13.48
12/02/2020 07:30:10	120220	12022020	073010	185.59	12.927568	-57.108892	185.77	-0.340	0.750	1.350	185.63	-0.60	1.90	 	 	 	 	 	 	 	 	 	 	 	 	 	 	 	 	 	 	1581492610	6.70	12.41
12/02/2020 07:30:11	120220	12022020	073011	185.65	12.927533	-57.108897	185.80	-0.390	-0.260	1.690	185.64	-1.60	2.20	 	 	 	 	 	 	 	 	 	 	 	 	 	 	 	 	 	 	1581492611	7.53	13.95
12/02/2020 07:30:12	120220	12022020	073012	185.52	12.927493	-57.108907	185.65	-0.080	-1.250	2.260	185.48	-2.60	2.70	 	 	 	 	 	 	 	 	 	 	 	 	 	 	 	 	 	 	1581492612	8.74	16.19
12/02/2020 07:30:13	120220	12022020	073013	185.29	12.927455	-57.108918	185.40	0.310	-1.280	2.530	185.23	-2.70	3.00	 	 	 	 	 	 	 	 	 	 	 	 	 	 	 	 	 	 	1581492613	8.87	16.43
12/02/2020 07:30:14	120220	12022020	073014	185.12	12.927418	-57.108928	185.28	0.470	-0.490	2.280	185.12	-1.90	2.80	 	 	 	 	 	 	 	 	 	 	 	 	 	 	 	 	 	 	1581492614	7.90	14.63
12/02/2020 07:30:15	120220	12022020	073015	185.29	12.927387	-57.108932	185.50	0.240	0.390	1.820	185.35	-1.00	2.30	 	 	 	 	 	 	 	 	 	 	 	 	 	 	 	 	 	 	1581492615	7.06	13.08
12/02/2020 07:30:16	120220	12022020	073016	185.60	12.927355	-57.108935	185.79	-0.190	0.620	1.620	185.64	-0.80	2.10	 	 	 	 	 	 	 	 	 	 	 	 	 	 	 	 	 	 	1581492616	6.86	12.70
12/02/2020 07:30:17	120220	12022020	073017	185.63	12.927320	-57.108940	185.75	-0.380	-0.070	1.940	185.58	-1.40	2.40	 	 	 	 	 	 	 	 	 	 	 	 	 	 	 	 	 	 	1581492617	7.45	13.80
12/02/2020 07:30:18	120220	12022020	073018	185.30	12.927282	-57.108948	185.39	-0.090	-1.000	2.440	185.22	-2.30	2.90	 	 	 	 	 	 	 	 	 	 	 	 	 	 	 	 	 	 	1581492618	8.51	15.76
12/02/2020 07:30:19	120220	12022020	073019	184.99	12.927242	-57.108958	185.15	0.370	-1.210	2.620	184.96	-2.60	3.10	 	 	 	 	 	 	 	 	 	 	 	 	 	 	 	 	 	 	1581492619	8.94	16.56
12/02/2020 07:30:20	120220	12022020	073020	185.00	12.927203	-57.108965	185.22	0.410	-0.550	2.410	185.04	-2.00	2.90	 	 	 	 	 	 	 	 	 	 	 	 	 	 	 	 	 	 	1581492620	8.24	15.26
12/02/2020 07:30:21	120220	12022020	073021	185.21	12.927170	-57.108968	185.44	-0.070	0.190	2.080	185.26	-1.20	2.60	 	 	 	 	 	 	 	 	 	 	 	 	 	 	 	 	 	 	1581492621	7.27	13.46
12/02/2020 07:30:22	120220	12022020	073022	185.38	12.927137	-57.108973	185.57	-0.620	0.400	1.930	185.39	-1.00	2.40	 	 	 	 	 	 	 	 	 	 	 	 	 	 	 	 	 	 	1581492622	7.11	13.17
12/02/2020 07:30:23	120220	12022020	073023	185.36	12.927102	-57.108980	185.52	-0.800	0.100	2.090	185.35	-1.30	2.60	 	 	 	 	 	 	 	 	 	 	 	 	 	 	 	 	 	 	1581492623	7.69	14.24
12/02/2020 07:30:24	120220	12022020	073024	185.31	12.927065	-57.108990	185.51	-0.490	-0.260	2.220	185.34	-1.60	2.70	 	 	 	 	 	 	 	 	 	 	 	 	 	 	 	 	 	 	1581492624	8.31	15.39
12/02/2020 07:30:25	120220	12022020	073025	185.51	12.927027	-57.109000	185.72	0.020	-0.260	1.980	185.55	-1.70	2.50	 	 	 	 	 	 	 	 	 	 	 	 	 	 	 	 	 	 	1581492625	8.35	15.46
12/02/2020 07:30:26	120220	12022020	073026	185.71	12.926992	-57.109007	185.89	0.470	-0.100	1.670	185.73	-1.50	2.20	 	 	 	 	 	 	 	 	 	 	 	 	 	 	 	 	 	 	1581492626	7.77	14.39
12/02/2020 07:30:27	120220	12022020	073027	185.62	12.926957	-57.109010	185.73	0.710	-0.170	1.570	185.58	-1.50	2.10	 	 	 	 	 	 	 	 	 	 	 	 	 	 	 	 	 	 	1581492627	7.51	13.91
12/02/2020 07:30:28	120220	12022020	073028	185.40	12.926920	-57.109013	185.53	0.620	-0.290	1.680	185.37	-1.70	2.20	 	 	 	 	 	 	 	 	 	 	 	 	 	 	 	 	 	 	1581492628	7.79	14.43
12/02/2020 07:30:29	120220	12022020	073029	185.31	12.926885	-57.109018	185.47	0.260	-0.130	1.820	185.32	-1.50	2.30	 	 	 	 	 	 	 	 	 	 	 	 	 	 	 	 	 	 	1581492629	7.84	14.52
12/02/2020 07:30:30	120220	12022020	073030	185.48	12.926850	-57.109025	185.69	-0.110	0.150	1.820	185.54	-1.20	2.30	 	 	 	 	 	 	 	 	 	 	 	 	 	 	 	 	 	 	1581492630	7.50	13.89
12/02/2020 07:30:31	120220	12022020	073031	185.77	12.926817	-57.109033	185.96	-0.200	-0.030	1.680	185.82	-1.40	2.20	 	 	 	 	 	 	 	 	 	 	 	 	 	 	 	 	 	 	1581492631	7.27	13.46
12/02/2020 07:30:32	120220	12022020	073032	185.90	12.926782	-57.109038	186.04	-0.020	-0.840	1.750	185.90	-2.20	2.20	 	 	 	 	 	 	 	 	 	 	 	 	 	 	 	 	 	 	1581492632	7.74	14.33
12/02/2020 07:30:33	120220	12022020	073033	185.88	12.926742	-57.109047	186.04	0.070	-1.580	2.200	185.87	-2.90	2.70	 	 	 	 	 	 	 	 	 	 	 	 	 	 	 	 	 	 	1581492633	8.55	15.83
12/02/2020 07:30:34	120220	12022020	073034	185.77	12.926703	-57.109057	185.94	-0.130	-1.460	2.850	185.74	-2.90	3.30	 	 	 	 	 	 	 	 	 	 	 	 	 	 	 	 	 	 	1581492634	8.69	16.09
12/02/2020 07:30:35	120220	12022020	073035	185.55	12.926668	-57.109068	185.70	-0.420	-0.450	3.310	185.51	-1.90	3.80	 	 	 	 	 	 	 	 	 	 	 	 	 	 	 	 	 	 	1581492635	8.06	14.93
12/02/2020 07:30:36	120220	12022020	073036	185.29	12.926635	-57.109080	185.44	-0.470	0.600	3.400	185.24	-0.80	3.90	 	 	 	 	 	 	 	 	 	 	 	 	 	 	 	 	 	 	1581492636	7.25	13.43
12/02/2020 07:30:37	120220	12022020	073037	185.09	12.926603	-57.109088	185.25	-0.150	0.910	3.040	185.07	-0.50	3.60	 	 	 	 	 	 	 	 	 	 	 	 	 	 	 	 	 	 	1581492637	7.17	13.28
12/02/2020 07:30:38	120220	12022020	073038	185.01	12.926567	-57.109093	185.16	0.300	0.450	2.540	184.99	-0.90	3.10	 	 	 	 	 	 	 	 	 	 	 	 	 	 	 	 	 	 	1581492638	7.86	14.56
12/02/2020 07:30:39	120220	12022020	073039	185.11	12.926528	-57.109095	185.34	0.470	-0.060	2.080	185.18	-1.40	2.60	 	 	 	 	 	 	 	 	 	 	 	 	 	 	 	 	 	 	1581492639	8.54	15.82
12/02/2020 07:30:40	120220	12022020	073040	185.54	12.926488	-57.109098	185.80	0.150	-0.160	1.980	185.64	-1.50	2.50	 	 	 	 	 	 	 	 	 	 	 	 	 	 	 	 	 	 	1581492640	8.38	15.52
12/02/2020 07:30:41	120220	12022020	073041	186.07	12.926453	-57.109103	186.34	-0.380	-0.050	2.190	186.16	-1.40	2.70	 	 	 	 	 	 	 	 	 	 	 	 	 	 	 	 	 	 	1581492641	7.63	14.13
12/02/2020 07:30:42	120220	12022020	073042	186.51	12.926422	-57.109113	186.74	-0.550	-0.210	2.280	186.57	-1.60	2.80	 	 	 	 	 	 	 	 	 	 	 	 	 	 	 	 	 	 	1581492642	7.30	13.52
12/02/2020 07:30:43	120220	12022020	073043	186.72	12.926388	-57.109125	186.91	-0.110	-0.720	2.120	186.72	-2.10	2.60	 	 	 	 	 	 	 	 	 	 	 	 	 	 	 	 	 	 	1581492643	7.56	14.00
12/02/2020 07:30:44	120220	12022020	073044	186.61	12.926352	-57.109133	186.76	0.550	-1.230	1.950	186.57	-2.60	2.50	 	 	 	 	 	 	 	 	 	 	 	 	 	 	 	 	 	 	1581492644	7.96	14.74
12/02/2020 07:30:45	120220	12022020	073045	186.34	12.926313	-57.109138	186.49	0.770	-1.250	1.770	186.29	-2.60	2.30	 	 	 	 	 	 	 	 	 	 	 	 	 	 	 	 	 	 	1581492645	8.17	15.13
12/02/2020 07:30:46	120220	12022020	073046	186.12	12.926277	-57.109140	186.29	0.320	-0.730	1.730	186.09	-2.10	2.20	 	 	 	 	 	 	 	 	 	 	 	 	 	 	 	 	 	 	1581492646	7.93	14.69
12/02/2020 07:30:47	120220	12022020	073047	185.96	12.926243	-57.109147	186.11	-0.340	-0.060	1.970	185.92	-1.50	2.50	 	 	 	 	 	 	 	 	 	 	 	 	 	 	 	 	 	 	1581492647	7.52	13.93
12/02/2020 07:30:48	120220	12022020	073048	185.78	12.926208	-57.109155	185.94	-0.530	0.430	2.230	185.75	-1.00	2.70	 	 	 	 	 	 	 	 	 	 	 	 	 	 	 	 	 	 	1581492648	7.55	13.98
12/02/2020 07:30:49	120220	12022020	073049	185.66	12.926173	-57.109165	185.85	-0.170	0.620	2.230	185.67	-0.80	2.70	 	 	 	 	 	 	 	 	 	 	 	 	 	 	 	 	 	 	1581492649	7.82	14.48
12/02/2020 07:30:50	120220	12022020	073050	185.83	12.926137	-57.109172	186.16	0.070	0.760	2.040	185.91	-0.60	2.50	 	 	 	 	 	 	 	 	 	 	 	 	 	 	 	 	 	 	1581492650	8.05	14.91
12/02/2020 07:30:51	120220	12022020	073051	186.42	12.926102	-57.109178	186.68	-0.210	0.840	1.950	186.52	-0.50	2.40	 	 	 	 	 	 	 	 	 	 	 	 	 	 	 	 	 	 	1581492651	7.74	14.33
12/02/2020 07:30:52	120220	12022020	073052	186.75	12.926068	-57.109187	186.97	-0.640	0.410	2.020	186.79	-0.90	2.50	 	 	 	 	 	 	 	 	 	 	 	 	 	 	 	 	 	 	1581492652	7.34	13.59
12/02/2020 07:30:53	120220	12022020	073053	186.72	12.926035	-57.109198	186.85	-0.450	-0.660	2.070	186.68	-2.00	2.60	 	 	 	 	 	 	 	 	 	 	 	 	 	 	 	 	 	 	1581492653	7.67	14.20
12/02/2020 07:30:54	120220	12022020	073054	186.41	12.925997	-57.109212	186.53	0.570	-1.680	1.710	186.35	-3.00	2.20	 	 	 	 	 	 	 	 	 	 	 	 	 	 	 	 	 	 	1581492654	8.39	15.54
12/02/2020 07:30:55	120220	12022020	073055	186.18	12.925958	-57.109218	186.33	1.510	-1.910	1.060	186.16	-3.30	1.60	 	 	 	 	 	 	 	 	 	 	 	 	 	 	 	 	 	 	1581492655	8.45	15.65
12/02/2020 07:30:56	120220	12022020	073056	186.16	12.925922	-57.109218	186.32	1.420	-1.340	0.680	186.16	-2.80	1.20	 	 	 	 	 	 	 	 	 	 	 	 	 	 	 	 	 	 	1581492656	7.87	14.58
12/02/2020 07:30:57	120220	12022020	073057	186.07	12.925888	-57.109217	186.20	0.320	-0.620	0.900	186.03	-2.00	1.40	 	 	 	 	 	 	 	 	 	 	 	 	 	 	 	 	 	 	1581492657	7.25	13.43
12/02/2020 07:30:58	120220	12022020	073058	185.79	12.925855	-57.109222	185.90	-1.060	-0.090	1.760	185.73	-1.50	2.20	 	 	 	 	 	 	 	 	 	 	 	 	 	 	 	 	 	 	1581492658	7.28	13.48
12/02/2020 07:30:59	120220	12022020	073059	185.46	12.925820	-57.109235	185.58	-1.930	0.320	2.940	185.39	-1.10	3.40	 	 	 	 	 	 	 	 	 	 	 	 	 	 	 	 	 	 	1581492659	7.93	14.69
12/02/2020 07:31:00	120220	12022020	073100	185.23	12.925785	-57.109253	185.42	-1.860	0.750	3.690	185.22	-0.70	4.20	 	 	 	 	 	 	 	 	 	 	 	 	 	 	 	 	 	 	1581492660	8.56	15.85
12/02/2020 07:31:01	120220	12022020	073101	185.34	12.925750	-57.109272	185.60	-1.050	1.000	3.610	185.40	-0.40	4.10	1014.80	26.20	26.30	19.90	19.90	-1.0	68.0	68.0	394.0	25.8	262.00	11.90	69.00	13.10	16	9526.0	27.3	27.3	1581492661	8.45	15.65
12/02/2020 07:31:02	120220	12022020	073102	185.75	12.925715	-57.109285	186.02	-0.010	0.880	2.810	185.85	-0.50	3.30	 	 	 	 	 	 	 	 	 	 	 	 	 	 	 	 	 	 	1581492662	8.02	14.85
12/02/2020 07:31:03	120220	12022020	073103	186.22	12.925678	-57.109290	186.47	0.840	0.450	1.610	186.30	-0.90	2.20	 	 	 	 	 	 	 	 	 	 	 	 	 	 	 	 	 	 	1581492663	7.85	14.54
12/02/2020 07:31:04	120220	12022020	073104	186.47	12.925643	-57.109290	186.63	1.340	-0.100	0.470	186.47	-1.50	1.00	 	 	 	 	 	 	 	 	 	 	 	 	 	 	 	 	 	 	1581492664	7.77	14.39
12/02/2020 07:31:05	120220	12022020	073105	186.31	12.925607	-57.109287	186.38	1.470	-0.760	-0.000	186.24	-2.10	0.50	 	 	 	 	 	 	 	 	 	 	 	 	 	 	 	 	 	 	1581492665	7.70	14.26
12/02/2020 07:31:06	120220	12022020	073106	185.87	12.925572	-57.109285	185.93	1.160	-1.300	0.300	185.78	-2.70	0.80	 	 	 	 	 	 	 	 	 	 	 	 	 	 	 	 	 	 	1581492666	7.68	14.22
12/02/2020 07:31:07	120220	12022020	073107	185.35	12.925537	-57.109288	185.42	0.480	-1.450	1.250	185.24	-2.80	1.70	 	 	 	 	 	 	 	 	 	 	 	 	 	 	 	 	 	 	1581492667	7.59	14.06
12/02/2020 07:31:08	120220	12022020	073108	184.87	12.925502	-57.109298	184.98	-0.340	-1.250	2.470	184.80	-2.60	2.90	 	 	 	 	 	 	 	 	 	 	 	 	 	 	 	 	 	 	1581492668	7.58	14.04
12/02/2020 07:31:09	120220	12022020	073109	184.63	12.925468	-57.109315	184.81	-0.950	-0.790	3.400	184.62	-2.20	3.90	 	 	 	 	 	 	 	 	 	 	 	 	 	 	 	 	 	 	1581492669	7.90	14.63
12/02/2020 07:31:10	120220	12022020	073110	184.78	12.925435	-57.109332	185.06	-1.130	-0.090	3.560	184.86	-1.50	4.10	 	 	 	 	 	 	 	 	 	 	 	 	 	 	 	 	 	 	1581492670	8.08	14.96
12/02/2020 07:31:11	120220	12022020	073111	185.30	12.925403	-57.109347	185.62	-0.890	0.660	2.920	185.44	-0.70	3.40	 	 	 	 	 	 	 	 	 	 	 	 	 	 	 	 	 	 	1581492671	7.72	14.30
12/02/2020 07:31:12	120220	12022020	073112	185.98	12.925370	-57.109353	186.25	-0.400	0.960	1.760	186.10	-0.40	2.30	 	 	 	 	 	 	 	 	 	 	 	 	 	 	 	 	 	 	1581492672	7.27	13.46
12/02/2020 07:31:13	120220	12022020	073113	186.51	12.925335	-57.109355	186.73	0.130	0.480	0.720	186.58	-0.90	1.30	 	 	 	 	 	 	 	 	 	 	 	 	 	 	 	 	 	 	1581492673	7.48	13.85
12/02/2020 07:31:14	120220	12022020	073114	186.71	12.925297	-57.109355	186.83	0.470	-0.450	0.380	186.69	-1.80	0.90	 	 	 	 	 	 	 	 	 	 	 	 	 	 	 	 	 	 	1581492674	8.19	15.17
12/02/2020 07:31:15	120220	12022020	073115	186.46	12.925257	-57.109357	186.53	0.600	-1.110	0.810	186.37	-2.50	1.30	 	 	 	 	 	 	 	 	 	 	 	 	 	 	 	 	 	 	1581492675	8.47	15.69
12/02/2020 07:31:16	120220	12022020	073116	186.06	12.925220	-57.109362	186.06	0.590	-1.030	1.450	185.97	-2.40	1.90	 	 	 	 	 	 	 	 	 	 	 	 	 	 	 	 	 	 	1581492676	8.21	15.20
12/02/2020 07:31:17	120220	12022020	073117	185.66	12.925185	-57.109368	185.81	0.410	-0.270	1.840	185.63	-1.70	2.30	 	 	 	 	 	 	 	 	 	 	 	 	 	 	 	 	 	 	1581492677	7.59	14.06
12/02/2020 07:31:18	120220	12022020	073118	185.59	12.925153	-57.109375	185.78	0.060	0.470	2.060	185.59	-0.90	2.50	 	 	 	 	 	 	 	 	 	 	 	 	 	 	 	 	 	 	1581492678	6.94	12.85
12/02/2020 07:31:19	120220	12022020	073119	185.61	12.925122	-57.109382	185.79	-0.270	0.590	2.200	185.61	-0.80	2.70	 	 	 	 	 	 	 	 	 	 	 	 	 	 	 	 	 	 	1581492679	6.92	12.82
12/02/2020 07:31:20	120220	12022020	073120	185.62	12.925088	-57.109390	185.80	-0.430	0.140	2.250	185.61	-1.20	2.70	 	 	 	 	 	 	 	 	 	 	 	 	 	 	 	 	 	 	1581492680	7.51	13.91
12/02/2020 07:31:21	120220	12022020	073121	185.64	12.925052	-57.109400	185.86	-0.380	-0.400	2.260	185.68	-1.80	2.70	 	 	 	 	 	 	 	 	 	 	 	 	 	 	 	 	 	 	1581492681	8.10	15.00
12/02/2020 07:31:22	120220	12022020	073122	185.93	12.925015	-57.109412	186.21	-0.200	-0.510	1.930	186.03	-1.90	2.40	 	 	 	 	 	 	 	 	 	 	 	 	 	 	 	 	 	 	1581492682	8.16	15.11
12/02/2020 07:31:23	120220	12022020	073123	186.40	12.924982	-57.109420	186.66	0.020	-0.260	1.430	186.48	-1.70	1.90	 	 	 	 	 	 	 	 	 	 	 	 	 	 	 	 	 	 	1581492683	7.54	13.96
12/02/2020 07:31:24	120220	12022020	073124	186.65	12.924948	-57.109427	186.85	0.330	-0.190	1.080	186.66	-1.60	1.60	 	 	 	 	 	 	 	 	 	 	 	 	 	 	 	 	 	 	1581492684	7.04	13.04
12/02/2020 07:31:25	120220	12022020	073125	186.57	12.924915	-57.109432	186.71	0.710	-0.460	0.910	186.52	-1.80	1.40	 	 	 	 	 	 	 	 	 	 	 	 	 	 	 	 	 	 	1581492685	7.27	13.46
12/02/2020 07:31:26	120220	12022020	073126	186.32	12.924880	-57.109433	186.48	1.000	-0.860	0.880	186.28	-2.20	1.40	 	 	 	 	 	 	 	 	 	 	 	 	 	 	 	 	 	 	1581492686	7.79	14.43
12/02/2020 07:31:27	120220	12022020	073127	186.25	12.924842	-57.109435	186.47	0.880	-0.970	0.980	186.27	-2.40	1.50	 	 	 	 	 	 	 	 	 	 	 	 	 	 	 	 	 	 	1581492687	8.13	15.06
12/02/2020 07:31:28	120220	12022020	073128	186.40	12.924805	-57.109438	186.64	0.180	-0.590	1.500	186.43	-2.00	2.00	 	 	 	 	 	 	 	 	 	 	 	 	 	 	 	 	 	 	1581492688	7.94	14.70
12/02/2020 07:31:29	120220	12022020	073129	186.50	12.924772	-57.109445	186.74	-0.830	-0.100	2.550	186.49	-1.50	3.00	 	 	 	 	 	 	 	 	 	 	 	 	 	 	 	 	 	 	1581492689	7.41	13.72
12/02/2020 07:31:30	120220	12022020	073130	186.29	12.924738	-57.109458	186.47	-1.470	-0.040	3.750	186.20	-1.40	4.20	 	 	 	 	 	 	 	 	 	 	 	 	 	 	 	 	 	 	1581492690	7.55	13.98
12/02/2020 07:31:31	120220	12022020	073131	185.71	12.924703	-57.109477	185.88	-1.260	-0.350	4.570	185.59	-1.70	5.00	 	 	 	 	 	 	 	 	 	 	 	 	 	 	 	 	 	 	1581492691	8.46	15.67
12/02/2020 07:31:32	120220	12022020	073132	185.24	12.924667	-57.109497	185.47	-0.450	-0.190	4.580	185.19	-1.60	5.10	 	 	 	 	 	 	 	 	 	 	 	 	 	 	 	 	 	 	1581492692	8.98	16.63
12/02/2020 07:31:33	120220	12022020	073133	185.20	12.924630	-57.109508	185.49	0.350	0.550	3.750	185.25	-0.90	4.30	 	 	 	 	 	 	 	 	 	 	 	 	 	 	 	 	 	 	1581492693	8.11	15.02
12/02/2020 07:31:34	120220	12022020	073134	185.48	12.924598	-57.109510	185.73	0.700	0.930	2.430	185.54	-0.50	3.00	 	 	 	 	 	 	 	 	 	 	 	 	 	 	 	 	 	 	1581492694	7.07	13.09
12/02/2020 07:31:35	120220	12022020	073135	185.68	12.924563	-57.109508	185.87	0.650	0.390	1.420	185.69	-1.00	1.90	 	 	 	 	 	 	 	 	 	 	 	 	 	 	 	 	 	 	1581492695	7.26	13.45
12/02/2020 07:31:36	120220	12022020	073136	185.67	12.924527	-57.109507	185.84	0.460	-0.470	1.120	185.67	-1.80	1.60	 	 	 	 	 	 	 	 	 	 	 	 	 	 	 	 	 	 	1581492696	7.95	14.72
12/02/2020 07:31:37	120220	12022020	073137	185.79	12.924490	-57.109512	186.01	0.300	-0.750	0.960	185.85	-2.20	1.50	 	 	 	 	 	 	 	 	 	 	 	 	 	 	 	 	 	 	1581492697	8.13	15.06
12/02/2020 07:31:38	120220	12022020	073138	186.13	12.924455	-57.109517	186.34	0.190	-0.540	0.850	186.19	-1.90	1.30	 	 	 	 	 	 	 	 	 	 	 	 	 	 	 	 	 	 	1581492698	7.41	13.72
12/02/2020 07:31:39	120220	12022020	073139	186.31	12.924425	-57.109523	186.46	0.180	-0.550	1.040	186.30	-1.90	1.50	 	 	 	 	 	 	 	 	 	 	 	 	 	 	 	 	 	 	1581492699	6.84	12.67
12/02/2020 07:31:40	120220	12022020	073140	186.18	12.924392	-57.109530	186.23	0.270	-1.010	1.490	186.12	-2.40	1.90	 	 	 	 	 	 	 	 	 	 	 	 	 	 	 	 	 	 	1581492700	7.21	13.35
12/02/2020 07:31:41	120220	12022020	073141	185.66	12.924355	-57.109538	185.75	0.330	-1.400	2.120	185.55	-2.80	2.60	 	 	 	 	 	 	 	 	 	 	 	 	 	 	 	 	 	 	1581492701	7.96	14.74
12/02/2020 07:31:42	120220	12022020	073142	185.24	12.924318	-57.109547	185.26	0.180	-1.130	2.650	185.14	-2.60	3.10	 	 	 	 	 	 	 	 	 	 	 	 	 	 	 	 	 	 	1581492702	8.24	15.26
12/02/2020 07:31:43	120220	12022020	073143	184.81	12.924283	-57.109555	184.99	-0.150	-0.270	2.790	184.78	-1.70	3.30	 	 	 	 	 	 	 	 	 	 	 	 	 	 	 	 	 	 	1581492703	7.82	14.48
12/02/2020 07:31:44	120220	12022020	073144	184.77	12.924250	-57.109562	184.99	-0.520	0.480	2.650	184.79	-0.90	3.10	 	 	 	 	 	 	 	 	 	 	 	 	 	 	 	 	 	 	1581492704	7.34	13.59
12/02/2020 07:31:45	120220	12022020	073145	184.92	12.924215	-57.109568	185.15	-0.800	0.660	2.590	184.95	-0.70	3.10	 	 	 	 	 	 	 	 	 	 	 	 	 	 	 	 	 	 	1581492705	7.47	13.83
12/02/2020 07:31:46	120220	12022020	073146	185.09	12.924178	-57.109577	185.32	-0.910	0.500	2.710	185.13	-0.90	3.20	 	 	 	 	 	 	 	 	 	 	 	 	 	 	 	 	 	 	1581492706	8.02	14.85
12/02/2020 07:31:47	120220	12022020	073147	185.41	12.924142	-57.109587	185.69	-0.800	0.440	2.520	185.52	-1.00	3.00	 	 	 	 	 	 	 	 	 	 	 	 	 	 	 	 	 	 	1581492707	8.27	15.32
12/02/2020 07:31:48	120220	12022020	073148	186.04	12.924107	-57.109595	186.35	-0.450	0.590	1.810	186.19	-0.80	2.30	 	 	 	 	 	 	 	 	 	 	 	 	 	 	 	 	 	 	1581492708	7.85	14.54
12/02/2020 07:31:49	120220	12022020	073149	186.67	12.924073	-57.109602	186.90	0.170	0.380	0.920	186.75	-1.00	1.40	 	 	 	 	 	 	 	 	 	 	 	 	 	 	 	 	 	 	1581492709	7.19	13.32
12/02/2020 07:31:50	120220	12022020	073150	186.87	12.924040	-57.109603	187.00	0.920	-0.470	0.390	186.84	-1.80	0.90	 	 	 	 	 	 	 	 	 	 	 	 	 	 	 	 	 	 	1581492710	7.29	13.50
12/02/2020 07:31:51	120220	12022020	073151	186.52	12.924003	-57.109605	186.56	1.380	-1.400	0.530	186.39	-2.80	1.00	 	 	 	 	 	 	 	 	 	 	 	 	 	 	 	 	 	 	1581492711	7.93	14.69
12/02/2020 07:31:52	120220	12022020	073152	185.78	12.923965	-57.109607	185.81	1.220	-1.600	1.220	185.63	-3.00	1.70	 	 	 	 	 	 	 	 	 	 	 	 	 	 	 	 	 	 	1581492712	8.17	15.13
12/02/2020 07:31:53	120220	12022020	073153	185.14	12.923930	-57.109613	185.21	0.510	-0.880	2.090	185.05	-2.30	2.50	 	 	 	 	 	 	 	 	 	 	 	 	 	 	 	 	 	 	1581492713	7.68	14.22
12/02/2020 07:31:54	120220	12022020	073154	184.84	12.923897	-57.109622	184.98	-0.310	-0.020	2.730	184.82	-1.40	3.20	 	 	 	 	 	 	 	 	 	 	 	 	 	 	 	 	 	 	1581492714	7.08	13.11
12/02/2020 07:31:55	120220	12022020	073155	184.87	12.923865	-57.109633	185.08	-0.850	0.340	3.070	184.92	-1.10	3.50	 	 	 	 	 	 	 	 	 	 	 	 	 	 	 	 	 	 	1581492715	7.25	13.43
12/02/2020 07:31:56	120220	12022020	073156	185.25	12.923832	-57.109645	185.54	-0.950	0.280	3.040	185.36	-1.10	3.50	 	 	 	 	 	 	 	 	 	 	 	 	 	 	 	 	 	 	1581492716	7.88	14.59
12/02/2020 07:31:57	120220	12022020	073157	185.85	12.923795	-57.109657	186.12	-0.750	0.080	2.590	185.96	-1.30	3.10	 	 	 	 	 	 	 	 	 	 	 	 	 	 	 	 	 	 	1581492717	8.15	15.09
12/02/2020 07:31:58	120220	12022020	073158	186.24	12.923758	-57.109665	186.43	-0.420	-0.280	1.980	186.27	-1.70	2.50	 	 	 	 	 	 	 	 	 	 	 	 	 	 	 	 	 	 	1581492718	7.99	14.80
12/02/2020 07:31:59	120220	12022020	073159	186.27	12.923722	-57.109670	186.43	-0.110	-0.570	1.470	186.27	-2.00	2.00	 	 	 	 	 	 	 	 	 	 	 	 	 	 	 	 	 	 	1581492719	8.03	14.87
12/02/2020 07:32:00	120220	12022020	073200	186.28	12.923685	-57.109675	186.45	0.030	-0.410	1.130	186.29	-1.80	1.60	 	 	 	 	 	 	 	 	 	 	 	 	 	 	 	 	 	 	1581492720	7.94	14.70
12/02/2020 07:32:01	120220	12022020	073201	186.30	12.923652	-57.109678	186.43	0.080	-0.070	1.020	186.27	-1.50	1.50	1014.90	26.30	26.40	20.70	20.60	-1.0	71.0	70.0	395.0	25.8	271.00	10.00	75.00	10.70	16	9776.0	27.3	27.3	1581492721	7.37	13.65
12/02/2020 07:32:02	120220	12022020	073202	186.03	12.923618	-57.109683	186.11	0.240	-0.070	1.180	185.94	-1.50	1.70	 	 	 	 	 	 	 	 	 	 	 	 	 	 	 	 	 	 	1581492722	7.19	13.32
12/02/2020 07:32:03	120220	12022020	073203	185.60	12.923582	-57.109690	185.70	0.490	-0.260	1.610	185.52	-1.70	2.10	 	 	 	 	 	 	 	 	 	 	 	 	 	 	 	 	 	 	1581492723	7.69	14.24
12/02/2020 07:32:04	120220	12022020	073204	185.33	12.923547	-57.109697	185.44	0.690	-0.240	2.030	185.29	-1.70	2.50	 	 	 	 	 	 	 	 	 	 	 	 	 	 	 	 	 	 	1581492724	8.01	14.83
12/02/2020 07:32:05	120220	12022020	073205	185.39	12.923510	-57.109703	185.62	0.610	0.140	2.090	185.46	-1.30	2.60	 	 	 	 	 	 	 	 	 	 	 	 	 	 	 	 	 	 	1581492725	7.79	14.43
12/02/2020 07:32:06	120220	12022020	073206	185.73	12.923477	-57.109707	185.96	0.130	0.360	2.270	185.79	-1.00	2.70	 	 	 	 	 	 	 	 	 	 	 	 	 	 	 	 	 	 	1581492726	7.26	13.45
12/02/2020 07:32:07	120220	12022020	073207	185.93	12.923443	-57.109713	186.14	-0.510	0.060	2.780	185.94	-1.30	3.20	 	 	 	 	 	 	 	 	 	 	 	 	 	 	 	 	 	 	1581492727	7.23	13.39
12/02/2020 07:32:08	120220	12022020	073208	185.93	12.923410	-57.109725	186.10	-0.880	-0.550	3.280	185.91	-1.90	3.70	 	 	 	 	 	 	 	 	 	 	 	 	 	 	 	 	 	 	1581492728	7.79	14.43
12/02/2020 07:32:09	120220	12022020	073209	185.73	12.923373	-57.109738	185.88	-0.670	-1.110	3.400	185.68	-2.50	3.90	 	 	 	 	 	 	 	 	 	 	 	 	 	 	 	 	 	 	1581492729	8.19	15.17
12/02/2020 07:32:10	120220	12022020	073210	185.37	12.923337	-57.109752	185.51	0.000	-1.400	3.020	185.29	-2.80	3.50	 	 	 	 	 	 	 	 	 	 	 	 	 	 	 	 	 	 	1581492730	8.20	15.19
12/02/2020 07:32:11	120220	12022020	073211	184.96	12.923300	-57.109758	185.11	0.560	-1.120	2.460	184.89	-2.50	3.00	 	 	 	 	 	 	 	 	 	 	 	 	 	 	 	 	 	 	1581492731	8.02	14.85
12/02/2020 07:32:12	120220	12022020	073212	184.66	12.923265	-57.109760	184.82	0.520	-0.280	1.880	184.63	-1.70	2.40	 	 	 	 	 	 	 	 	 	 	 	 	 	 	 	 	 	 	1581492732	7.63	14.13
12/02/2020 07:32:13	120220	12022020	073213	184.65	12.923232	-57.109762	184.87	-0.020	0.650	1.240	184.70	-0.80	1.70	 	 	 	 	 	 	 	 	 	 	 	 	 	 	 	 	 	 	1581492733	7.16	13.26
12/02/2020 07:32:14	120220	12022020	073214	185.07	12.923200	-57.109763	185.31	-0.550	1.170	0.660	185.18	-0.30	1.20	 	 	 	 	 	 	 	 	 	 	 	 	 	 	 	 	 	 	1581492734	6.99	12.95
12/02/2020 07:32:15	120220	12022020	073215	185.69	12.923167	-57.109768	185.94	-0.560	0.990	0.360	185.83	-0.40	0.90	 	 	 	 	 	 	 	 	 	 	 	 	 	 	 	 	 	 	1581492735	7.22	13.37
12/02/2020 07:32:16	120220	12022020	073216	186.33	12.923132	-57.109775	186.54	-0.020	0.190	0.340	186.42	-1.20	0.80	 	 	 	 	 	 	 	 	 	 	 	 	 	 	 	 	 	 	1581492736	7.73	14.32
12/02/2020 07:32:17	120220	12022020	073217	186.57	12.923093	-57.109780	186.67	0.550	-0.920	0.870	186.54	-2.30	1.30	 	 	 	 	 	 	 	 	 	 	 	 	 	 	 	 	 	 	1581492737	8.17	15.13
12/02/2020 07:32:18	120220	12022020	073218	186.27	12.923055	-57.109787	186.18	0.720	-1.770	1.960	186.15	-3.10	2.40	 	 	 	 	 	 	 	 	 	 	 	 	 	 	 	 	 	 	1581492738	8.47	15.69
12/02/2020 07:32:19	120220	12022020	073219	185.40	12.923017	-57.109797	185.48	0.350	-1.720	3.160	185.27	-3.10	3.60	 	 	 	 	 	 	 	 	 	 	 	 	 	 	 	 	 	 	1581492739	8.44	15.63
12/02/2020 07:32:20	120220	12022020	073220	184.96	12.922982	-57.109808	185.16	-0.280	-0.640	3.830	184.93	-2.10	4.30	 	 	 	 	 	 	 	 	 	 	 	 	 	 	 	 	 	 	1581492740	7.87	14.58
12/02/2020 07:32:21	120220	12022020	073221	184.93	12.922952	-57.109820	185.17	-0.720	0.590	3.810	184.95	-0.80	4.30	 	 	 	 	 	 	 	 	 	 	 	 	 	 	 	 	 	 	1581492741	6.95	12.87
12/02/2020 07:32:22	120220	12022020	073222	185.00	12.922922	-57.109828	185.21	-0.670	1.020	3.320	185.01	-0.40	3.80	 	 	 	 	 	 	 	 	 	 	 	 	 	 	 	 	 	 	1581492742	6.72	12.45
12/02/2020 07:32:23	120220	12022020	073223	185.03	12.922887	-57.109835	185.23	-0.240	0.540	2.640	185.04	-0.80	3.20	 	 	 	 	 	 	 	 	 	 	 	 	 	 	 	 	 	 	1581492743	7.43	13.76
12/02/2020 07:32:24	120220	12022020	073224	185.15	12.922850	-57.109840	185.35	0.240	-0.200	1.960	185.19	-1.60	2.50	 	 	 	 	 	 	 	 	 	 	 	 	 	 	 	 	 	 	1581492744	8.27	15.32
12/02/2020 07:32:25	120220	12022020	073225	185.42	12.922810	-57.109843	185.66	0.510	-0.560	1.440	185.50	-2.00	1.90	 	 	 	 	 	 	 	 	 	 	 	 	 	 	 	 	 	 	1581492745	8.40	15.56
12/02/2020 07:32:26	120220	12022020	073226	185.83	12.922773	-57.109847	186.06	0.530	-0.430	0.960	185.91	-1.80	1.50	 	 	 	 	 	 	 	 	 	 	 	 	 	 	 	 	 	 	1581492746	7.87	14.58
12/02/2020 07:32:27	120220	12022020	073227	186.18	12.922740	-57.109848	186.37	0.350	-0.310	0.820	186.21	-1.70	1.30	 	 	 	 	 	 	 	 	 	 	 	 	 	 	 	 	 	 	1581492747	7.27	13.46
12/02/2020 07:32:28	120220	12022020	073228	186.21	12.922707	-57.109852	186.33	0.100	-0.570	1.200	186.17	-1.90	1.70	 	 	 	 	 	 	 	 	 	 	 	 	 	 	 	 	 	 	1581492748	7.23	13.39
12/02/2020 07:32:29	120220	12022020	073229	185.97	12.922672	-57.109860	186.10	-0.130	-0.820	1.720	185.91	-2.20	2.20	 	 	 	 	 	 	 	 	 	 	 	 	 	 	 	 	 	 	1581492749	7.78	14.41
12/02/2020 07:32:30	120220	12022020	073230	185.71	12.922635	-57.109868	185.86	-0.320	-0.600	2.230	185.67	-2.00	2.70	 	 	 	 	 	 	 	 	 	 	 	 	 	 	 	 	 	 	1581492750	7.95	14.72
12/02/2020 07:32:31	120220	12022020	073231	185.47	12.922602	-57.109878	185.61	-0.420	-0.250	2.800	185.41	-1.70	3.20	 	 	 	 	 	 	 	 	 	 	 	 	 	 	 	 	 	 	1581492751	7.57	14.02
12/02/2020 07:32:32	120220	12022020	073232	185.20	12.922567	-57.109887	185.27	-0.370	-0.190	3.180	185.14	-1.60	3.60	 	 	 	 	 	 	 	 	 	 	 	 	 	 	 	 	 	 	1581492752	7.58	14.04
12/02/2020 07:32:33	120220	12022020	073233	184.91	12.922532	-57.109898	185.10	-0.180	-0.110	3.160	184.90	-1.50	3.60	 	 	 	 	 	 	 	 	 	 	 	 	 	 	 	 	 	 	1581492753	8.05	14.91
12/02/2020 07:32:34	120220	12022020	073234	184.98	12.922495	-57.109907	185.20	0.080	0.320	2.650	185.03	-1.10	3.20	 	 	 	 	 	 	 	 	 	 	 	 	 	 	 	 	 	 	1581492754	7.98	14.78
12/02/2020 07:32:35	120220	12022020	073235	185.32	12.922462	-57.109910	185.53	0.320	0.600	1.700	185.40	-0.80	2.20	 	 	 	 	 	 	 	 	 	 	 	 	 	 	 	 	 	 	1581492755	7.41	13.72
12/02/2020 07:32:36	120220	12022020	073236	185.70	12.922427	-57.109910	185.89	0.460	0.230	0.870	185.77	-1.10	1.40	 	 	 	 	 	 	 	 	 	 	 	 	 	 	 	 	 	 	1581492756	7.36	13.63
12/02/2020 07:32:37	120220	12022020	073237	185.97	12.922390	-57.109910	186.13	0.360	-0.500	0.630	186.00	-1.90	1.10	 	 	 	 	 	 	 	 	 	 	 	 	 	 	 	 	 	 	1581492757	7.91	14.65
12/02/2020 07:32:38	120220	12022020	073238	186.02	12.922352	-57.109915	186.13	0.040	-1.010	0.990	185.99	-2.40	1.50	 	 	 	 	 	 	 	 	 	 	 	 	 	 	 	 	 	 	1581492758	8.13	15.06
12/02/2020 07:32:39	120220	12022020	073239	185.76	12.922317	-57.109923	185.82	-0.200	-1.130	1.790	185.66	-2.50	2.20	 	 	 	 	 	 	 	 	 	 	 	 	 	 	 	 	 	 	1581492759	7.94	14.70
12/02/2020 07:32:40	120220	12022020	073240	185.20	12.922282	-57.109935	185.26	-0.150	-1.020	2.660	185.08	-2.40	3.10	 	 	 	 	 	 	 	 	 	 	 	 	 	 	 	 	 	 	1581492760	7.82	14.48
12/02/2020 07:32:41	120220	12022020	073241	184.79	12.922247	-57.109945	184.96	-0.050	-0.520	3.030	184.77	-1.90	3.50	 	 	 	 	 	 	 	 	 	 	 	 	 	 	 	 	 	 	1581492761	7.92	14.67
12/02/2020 07:32:42	120220	12022020	073242	184.95	12.922212	-57.109953	185.21	-0.200	0.290	2.780	185.03	-1.10	3.30	 	 	 	 	 	 	 	 	 	 	 	 	 	 	 	 	 	 	1581492762	7.65	14.17
12/02/2020 07:32:43	120220	12022020	073243	185.50	12.922178	-57.109958	185.79	-0.480	0.850	2.170	185.63	-0.50	2.70	 	 	 	 	 	 	 	 	 	 	 	 	 	 	 	 	 	 	1581492763	7.19	13.32
12/02/2020 07:32:44	120220	12022020	073244	186.01	12.922145	-57.109963	186.23	-0.430	0.650	1.530	186.07	-0.70	2.00	 	 	 	 	 	 	 	 	 	 	 	 	 	 	 	 	 	 	1581492764	7.24	13.41
12/02/2020 07:32:45	120220	12022020	073245	186.21	12.922108	-57.109968	186.38	0.090	-0.020	1.080	186.23	-1.40	1.60	 	 	 	 	 	 	 	 	 	 	 	 	 	 	 	 	 	 	1581492765	7.90	14.63
12/02/2020 07:32:46	120220	12022020	073246	186.34	12.922070	-57.109972	186.54	0.580	-0.420	0.970	186.38	-1.80	1.50	 	 	 	 	 	 	 	 	 	 	 	 	 	 	 	 	 	 	1581492766	8.31	15.39
12/02/2020 07:32:47	120220	12022020	073247	186.57	12.922033	-57.109975	186.76	0.550	-0.460	1.070	186.60	-1.90	1.50	 	 	 	 	 	 	 	 	 	 	 	 	 	 	 	 	 	 	1581492767	7.90	14.63
12/02/2020 07:32:48	120220	12022020	073248	186.67	12.922000	-57.109980	186.82	0.130	-0.560	1.370	186.65	-1.90	1.80	 	 	 	 	 	 	 	 	 	 	 	 	 	 	 	 	 	 	1581492768	7.37	13.65
12/02/2020 07:32:49	120220	12022020	073249	186.41	12.921967	-57.109988	186.49	-0.150	-1.000	1.980	186.31	-2.40	2.40	 	 	 	 	 	 	 	 	 	 	 	 	 	 	 	 	 	 	1581492769	7.51	13.91
12/02/2020 07:32:50	120220	12022020	073250	185.87	12.921930	-57.110000	185.97	-0.100	-1.320	2.680	185.77	-2.70	3.10	 	 	 	 	 	 	 	 	 	 	 	 	 	 	 	 	 	 	1581492770	8.20	15.19
12/02/2020 07:32:51	120220	12022020	073251	185.49	12.921892	-57.110012	185.65	-0.010	-0.860	2.960	185.46	-2.30	3.40	 	 	 	 	 	 	 	 	 	 	 	 	 	 	 	 	 	 	1581492771	8.38	15.52
12/02/2020 07:32:52	120220	12022020	073252	185.39	12.921858	-57.110020	185.59	-0.140	0.080	2.850	185.39	-1.30	3.30	 	 	 	 	 	 	 	 	 	 	 	 	 	 	 	 	 	 	1581492772	7.68	14.22
12/02/2020 07:32:53	120220	12022020	073253	185.41	12.921825	-57.110027	185.62	-0.340	0.640	2.620	185.42	-0.80	3.10	 	 	 	 	 	 	 	 	 	 	 	 	 	 	 	 	 	 	1581492773	7.19	13.32
12/02/2020 07:32:54	120220	12022020	073254	185.52	12.921790	-57.110033	185.82	-0.340	0.590	2.150	185.58	-0.80	2.70	 	 	 	 	 	 	 	 	 	 	 	 	 	 	 	 	 	 	1581492774	7.60	14.08
12/02/2020 07:32:55	120220	12022020	073255	186.02	12.921753	-57.110040	186.28	-0.010	0.400	1.390	186.13	-1.00	1.90	 	 	 	 	 	 	 	 	 	 	 	 	 	 	 	 	 	 	1581492775	8.10	15.00
12/02/2020 07:32:56	120220	12022020	073256	186.60	12.921717	-57.110043	186.84	0.430	0.230	0.640	186.71	-1.20	1.20	 	 	 	 	 	 	 	 	 	 	 	 	 	 	 	 	 	 	1581492776	8.03	14.87
12/02/2020 07:32:57	120220	12022020	073257	187.09	12.921680	-57.110045	187.28	0.610	-0.070	0.430	187.15	-1.50	0.90	 	 	 	 	 	 	 	 	 	 	 	 	 	 	 	 	 	 	1581492777	7.76	14.37
12/02/2020 07:32:58	120220	12022020	073258	187.27	12.921645	-57.110047	187.41	0.300	-0.520	1.000	187.26	-1.90	1.40	 	 	 	 	 	 	 	 	 	 	 	 	 	 	 	 	 	 	1581492778	7.67	14.20
12/02/2020 07:32:59	120220	12022020	073259	187.05	12.921610	-57.110055	187.14	-0.300	-0.940	2.070	186.96	-2.30	2.50	 	 	 	 	 	 	 	 	 	 	 	 	 	 	 	 	 	 	1581492779	7.73	14.32
12/02/2020 07:33:00	120220	12022020	073300	186.46	12.921575	-57.110070	186.51	-0.630	-1.160	3.180	186.31	-2.50	3.60	 	 	 	 	 	 	 	 	 	 	 	 	 	 	 	 	 	 	1581492780	7.98	14.78
12/02/2020 07:33:01	120220	12022020	073301	185.66	12.921542	-57.110087	185.72	-0.320	-1.080	3.940	185.49	-2.50	4.40	1014.80	26.20	26.30	20.60	20.60	-1.0	71.0	71.0	394.0	25.8	273.00	10.10	77.00	10.70	16	9857.0	27.3	27.3	1581492781	8.13	15.06
12/02/2020 07:33:02	120220	12022020	073302	184.93	12.921507	-57.110100	185.04	0.400	-0.830	4.030	184.81	-2.20	4.50	 	 	 	 	 	 	 	 	 	 	 	 	 	 	 	 	 	 	1581492782	7.98	14.78
12/02/2020 07:33:03	120220	12022020	073303	184.51	12.921470	-57.110107	184.70	0.890	-0.500	3.480	184.49	-1.90	4.00	 	 	 	 	 	 	 	 	 	 	 	 	 	 	 	 	 	 	1581492783	7.92	14.67
12/02/2020 07:33:04	120220	12022020	073304	184.68	12.921433	-57.110108	184.96	0.660	0.110	2.610	184.79	-1.30	3.10	 	 	 	 	 	 	 	 	 	 	 	 	 	 	 	 	 	 	1581492784	8.02	14.85
12/02/2020 07:33:05	120220	12022020	073305	185.36	12.921398	-57.110110	185.68	-0.170	0.900	2.010	185.52	-0.50	2.50	 	 	 	 	 	 	 	 	 	 	 	 	 	 	 	 	 	 	1581492785	7.55	13.98
12/02/2020 07:33:06	120220	12022020	073306	185.99	12.921365	-57.110113	186.43	-1.020	1.230	1.920	186.14	-0.20	2.40	 	 	 	 	 	 	 	 	 	 	 	 	 	 	 	 	 	 	1581492786	6.99	12.95
12/02/2020 07:33:07	120220	12022020	073307	186.64	12.921333	-57.110123	186.88	-1.240	0.690	2.000	186.70	-0.70	2.50	 	 	 	 	 	 	 	 	 	 	 	 	 	 	 	 	 	 	1581492787	7.21	13.35
12/02/2020 07:33:08	120220	12022020	073308	186.82	12.921298	-57.110137	187.02	-0.580	-0.410	1.980	186.83	-1.80	2.50	 	 	 	 	 	 	 	 	 	 	 	 	 	 	 	 	 	 	1581492788	8.05	14.91
12/02/2020 07:33:09	120220	12022020	073309	186.74	12.921260	-57.110147	186.87	0.520	-1.310	1.840	186.68	-2.70	2.30	 	 	 	 	 	 	 	 	 	 	 	 	 	 	 	 	 	 	1581492789	8.50	15.74
12/02/2020 07:33:10	120220	12022020	073310	186.41	12.921222	-57.110153	186.54	1.270	-1.480	1.590	186.35	-2.90	2.10	 	 	 	 	 	 	 	 	 	 	 	 	 	 	 	 	 	 	1581492790	8.28	15.33
12/02/2020 07:33:11	120220	12022020	073311	186.19	12.921187	-57.110155	186.35	1.130	-0.870	1.260	186.18	-2.30	1.80	 	 	 	 	 	 	 	 	 	 	 	 	 	 	 	 	 	 	1581492791	7.78	14.41
12/02/2020 07:33:12	120220	12022020	073312	186.27	12.921153	-57.110153	186.50	0.260	0.050	1.150	186.33	-1.40	1.60	 	 	 	 	 	 	 	 	 	 	 	 	 	 	 	 	 	 	1581492792	7.11	13.17
12/02/2020 07:33:13	120220	12022020	073313	186.55	12.921122	-57.110157	186.76	-0.640	0.530	1.530	186.58	-0.90	2.00	 	 	 	 	 	 	 	 	 	 	 	 	 	 	 	 	 	 	1581492793	6.72	12.45
12/02/2020 07:33:14	120220	12022020	073314	186.43	12.921090	-57.110167	186.51	-0.900	-0.010	2.460	186.32	-1.40	2.90	 	 	 	 	 	 	 	 	 	 	 	 	 	 	 	 	 	 	1581492794	7.27	13.46
12/02/2020 07:33:15	120220	12022020	073315	185.74	12.921052	-57.110182	185.82	-0.490	-1.030	3.570	185.59	-2.40	4.00	 	 	 	 	 	 	 	 	 	 	 	 	 	 	 	 	 	 	1581492795	8.69	16.09
12/02/2020 07:33:16	120220	12022020	073316	185.19	12.921010	-57.110198	185.38	-0.060	-1.150	4.150	185.15	-2.60	4.60	 	 	 	 	 	 	 	 	 	 	 	 	 	 	 	 	 	 	1581492796	9.49	17.58
12/02/2020 07:33:17	120220	12022020	073317	185.25	12.920973	-57.110212	185.56	-0.040	-0.010	3.790	185.35	-1.50	4.30	 	 	 	 	 	 	 	 	 	 	 	 	 	 	 	 	 	 	1581492797	8.50	15.74
12/02/2020 07:33:18	120220	12022020	073318	185.85	12.920943	-57.110220	186.18	-0.220	1.320	2.650	185.99	-0.10	3.20	 	 	 	 	 	 	 	 	 	 	 	 	 	 	 	 	 	 	1581492798	6.80	12.59
12/02/2020 07:33:19	120220	12022020	073319	186.56	12.920915	-57.110223	186.86	-0.170	1.570	1.320	186.70	0.20	1.90	 	 	 	 	 	 	 	 	 	 	 	 	 	 	 	 	 	 	1581492799	6.17	11.43
12/02/2020 07:33:20	120220	12022020	073320	187.05	12.920882	-57.110223	187.34	0.220	0.510	0.450	187.13	-0.80	1.00	 	 	 	 	 	 	 	 	 	 	 	 	 	 	 	 	 	 	1581492800	7.07	13.09
12/02/2020 07:33:21	120220	12022020	073321	187.36	12.920843	-57.110225	187.51	0.670	-1.070	0.360	187.37	-2.40	0.80	 	 	 	 	 	 	 	 	 	 	 	 	 	 	 	 	 	 	1581492801	8.25	15.28
12/02/2020 07:33:22	120220	12022020	073322	187.31	12.920803	-57.110230	187.38	0.800	-2.070	0.890	187.27	-3.50	1.40	 	 	 	 	 	 	 	 	 	 	 	 	 	 	 	 	 	 	1581492802	8.74	16.19
12/02/2020 07:33:23	120220	12022020	073323	186.97	12.920765	-57.110237	187.07	0.500	-2.030	1.800	186.89	-3.50	2.20	 	 	 	 	 	 	 	 	 	 	 	 	 	 	 	 	 	 	1581492803	8.30	15.37
12/02/2020 07:33:24	120220	12022020	073324	186.49	12.920732	-57.110248	186.58	0.040	-1.210	2.650	186.38	-2.70	3.10	 	 	 	 	 	 	 	 	 	 	 	 	 	 	 	 	 	 	1581492804	7.60	14.08
12/02/2020 07:33:25	120220	12022020	073325	185.97	12.920700	-57.110258	186.09	-0.320	-0.190	3.120	185.88	-1.60	3.60	 	 	 	 	 	 	 	 	 	 	 	 	 	 	 	 	 	 	1581492805	7.20	13.33
12/02/2020 07:33:26	120220	12022020	073326	185.71	12.920667	-57.110267	185.91	-0.600	0.560	3.270	185.70	-0.90	3.70	 	 	 	 	 	 	 	 	 	 	 	 	 	 	 	 	 	 	1581492806	7.22	13.37
12/02/2020 07:33:27	120220	12022020	073327	185.69	12.920633	-57.110277	185.89	-0.790	0.770	3.220	185.69	-0.60	3.70	 	 	 	 	 	 	 	 	 	 	 	 	 	 	 	 	 	 	1581492807	7.54	13.96
12/02/2020 07:33:28	120220	12022020	073328	185.70	12.920597	-57.110287	185.91	-0.810	0.600	2.970	185.73	-0.80	3.40	 	 	 	 	 	 	 	 	 	 	 	 	 	 	 	 	 	 	1581492808	8.02	14.85
12/02/2020 07:33:29	120220	12022020	073329	185.93	12.920560	-57.110297	186.17	-0.600	0.420	2.430	186.00	-1.00	2.90	 	 	 	 	 	 	 	 	 	 	 	 	 	 	 	 	 	 	1581492809	8.22	15.22
12/02/2020 07:33:30	120220	12022020	073330	186.27	12.920525	-57.110305	186.49	-0.160	0.250	1.790	186.33	-1.20	2.30	 	 	 	 	 	 	 	 	 	 	 	 	 	 	 	 	 	 	1581492810	7.90	14.63
12/02/2020 07:33:31	120220	12022020	073331	186.48	12.920490	-57.110310	186.66	0.460	-0.090	1.140	186.51	-1.50	1.60	 	 	 	 	 	 	 	 	 	 	 	 	 	 	 	 	 	 	1581492811	7.60	14.08
12/02/2020 07:33:32	120220	12022020	073332	186.66	12.920453	-57.110315	186.84	0.960	-0.460	0.580	186.70	-1.90	1.10	 	 	 	 	 	 	 	 	 	 	 	 	 	 	 	 	 	 	1581492812	7.69	14.24
12/02/2020 07:33:33	120220	12022020	073333	186.84	12.920418	-57.110317	186.98	1.080	-0.680	0.460	186.86	-2.10	0.90	 	 	 	 	 	 	 	 	 	 	 	 	 	 	 	 	 	 	1581492813	7.68	14.22
12/02/2020 07:33:34	120220	12022020	073334	186.85	12.920383	-57.110320	186.97	0.810	-0.750	0.870	186.83	-2.20	1.30	 	 	 	 	 	 	 	 	 	 	 	 	 	 	 	 	 	 	1581492814	7.49	13.87
12/02/2020 07:33:35	120220	12022020	073335	186.72	12.920350	-57.110325	186.85	0.260	-0.700	1.620	186.69	-2.10	2.10	 	 	 	 	 	 	 	 	 	 	 	 	 	 	 	 	 	 	1581492815	7.40	13.70
12/02/2020 07:33:36	120220	12022020	073336	186.49	12.920317	-57.110333	186.59	-0.290	-0.630	2.600	186.42	-2.00	3.00	 	 	 	 	 	 	 	 	 	 	 	 	 	 	 	 	 	 	1581492816	7.45	13.80
12/02/2020 07:33:37	120220	12022020	073337	185.98	12.920282	-57.110345	186.04	-0.520	-0.700	3.590	185.84	-2.10	4.00	 	 	 	 	 	 	 	 	 	 	 	 	 	 	 	 	 	 	1581492817	7.76	14.37
12/02/2020 07:33:38	120220	12022020	073338	185.33	12.920247	-57.110360	185.43	-0.440	-0.740	4.220	185.22	-2.10	4.70	 	 	 	 	 	 	 	 	 	 	 	 	 	 	 	 	 	 	1581492818	8.27	15.32
12/02/2020 07:33:39	120220	12022020	073339	185.01	12.920210	-57.110373	185.21	-0.340	-0.310	4.150	185.01	-1.70	4.60	 	 	 	 	 	 	 	 	 	 	 	 	 	 	 	 	 	 	1581492819	8.42	15.59
12/02/2020 07:33:40	120220	12022020	073340	185.25	12.920173	-57.110383	185.51	-0.380	0.450	3.290	185.35	-1.00	3.80	 	 	 	 	 	 	 	 	 	 	 	 	 	 	 	 	 	 	1581492820	7.84	14.52
12/02/2020 07:33:41	120220	12022020	073341	185.84	12.920142	-57.110388	186.09	-0.470	0.900	2.100	185.97	-0.50	2.60	 	 	 	 	 	 	 	 	 	 	 	 	 	 	 	 	 	 	1581492821	7.18	13.30
12/02/2020 07:33:42	120220	12022020	073342	186.46	12.920108	-57.110390	186.68	-0.380	0.730	1.100	186.57	-0.70	1.60	 	 	 	 	 	 	 	 	 	 	 	 	 	 	 	 	 	 	1581492822	7.23	13.39
12/02/2020 07:33:43	120220	12022020	073343	186.93	12.920072	-57.110393	187.11	-0.010	0.200	0.470	187.00	-1.20	1.00	 	 	 	 	 	 	 	 	 	 	 	 	 	 	 	 	 	 	1581492823	7.63	14.13
12/02/2020 07:33:44	120220	12022020	073344	187.14	12.920035	-57.110397	187.24	0.540	-0.420	0.230	187.13	-1.80	0.70	 	 	 	 	 	 	 	 	 	 	 	 	 	 	 	 	 	 	1581492824	7.83	14.50
12/02/2020 07:33:45	120220	12022020	073345	186.88	12.920000	-57.110402	186.89	1.000	-1.070	0.710	186.76	-2.40	1.20	 	 	 	 	 	 	 	 	 	 	 	 	 	 	 	 	 	 	1581492825	7.84	14.52
12/02/2020 07:33:46	120220	12022020	073346	186.21	12.919963	-57.110407	186.24	1.080	-1.490	1.770	186.08	-2.90	2.20	 	 	 	 	 	 	 	 	 	 	 	 	 	 	 	 	 	 	1581492826	8.02	14.85
12/02/2020 07:33:47	120220	12022020	073347	185.73	12.919925	-57.110415	185.88	0.610	-1.220	2.620	185.70	-2.60	3.10	 	 	 	 	 	 	 	 	 	 	 	 	 	 	 	 	 	 	1581492827	8.12	15.04
12/02/2020 07:33:48	120220	12022020	073348	185.73	12.919892	-57.110425	185.97	-0.280	-0.280	3.140	185.77	-1.70	3.60	 	 	 	 	 	 	 	 	 	 	 	 	 	 	 	 	 	 	1581492828	7.65	14.17
12/02/2020 07:33:49	120220	12022020	073349	186.05	12.919860	-57.110435	186.32	-1.040	0.650	3.360	186.12	-0.80	3.80	 	 	 	 	 	 	 	 	 	 	 	 	 	 	 	 	 	 	1581492829	7.13	13.20
12/02/2020 07:33:50	120220	12022020	073350	186.36	12.919830	-57.110448	186.60	-1.130	0.790	3.280	186.41	-0.60	3.80	 	 	 	 	 	 	 	 	 	 	 	 	 	 	 	 	 	 	1581492830	7.15	13.24
12/02/2020 07:33:51	120220	12022020	073351	186.58	12.919795	-57.110460	186.81	-0.620	0.300	2.900	186.63	-1.10	3.40	 	 	 	 	 	 	 	 	 	 	 	 	 	 	 	 	 	 	1581492831	7.87	14.58
12/02/2020 07:33:52	120220	12022020	073352	186.89	12.919757	-57.110470	187.13	0.010	-0.170	2.240	186.96	-1.60	2.70	 	 	 	 	 	 	 	 	 	 	 	 	 	 	 	 	 	 	1581492832	8.37	15.50
12/02/2020 07:33:53	120220	12022020	073353	187.19	12.919720	-57.110475	187.37	0.370	-0.320	1.510	187.22	-1.70	2.00	 	 	 	 	 	 	 	 	 	 	 	 	 	 	 	 	 	 	1581492833	8.10	15.00
12/02/2020 07:33:54	120220	12022020	073354	187.22	12.919685	-57.110478	187.34	0.500	-0.300	0.990	187.20	-1.70	1.50	 	 	 	 	 	 	 	 	 	 	 	 	 	 	 	 	 	 	1581492834	7.59	14.06
12/02/2020 07:33:55	120220	12022020	073355	187.08	12.919650	-57.110480	187.19	0.460	-0.310	0.830	187.04	-1.70	1.30	 	 	 	 	 	 	 	 	 	 	 	 	 	 	 	 	 	 	1581492835	7.39	13.69
12/02/2020 07:33:56	120220	12022020	073356	186.86	12.919615	-57.110483	186.96	0.310	-0.480	1.100	186.80	-1.90	1.60	 	 	 	 	 	 	 	 	 	 	 	 	 	 	 	 	 	 	1581492836	7.43	13.76
12/02/2020 07:33:57	120220	12022020	073357	186.51	12.919580	-57.110490	186.58	0.200	-0.780	1.580	186.41	-2.20	2.00	 	 	 	 	 	 	 	 	 	 	 	 	 	 	 	 	 	 	1581492837	7.67	14.20
12/02/2020 07:33:58	120220	12022020	073358	186.15	12.919545	-57.110500	186.18	0.210	-0.890	2.050	186.07	-2.30	2.50	 	 	 	 	 	 	 	 	 	 	 	 	 	 	 	 	 	 	1581492838	8.05	14.91
12/02/2020 07:33:59	120220	12022020	073359	185.81	12.919508	-57.110512	185.96	0.200	-0.470	2.290	185.78	-1.90	2.80	 	 	 	 	 	 	 	 	 	 	 	 	 	 	 	 	 	 	1581492839	8.07	14.95
12/02/2020 07:34:00	120220	12022020	073400	185.70	12.919475	-57.110520	185.87	0.050	0.140	2.290	185.69	-1.30	2.80	 	 	 	 	 	 	 	 	 	 	 	 	 	 	 	 	 	 	1581492840	7.53	13.95
12/02/2020 07:34:01	120220	12022020	073401	185.64	12.919442	-57.110527	185.82	-0.220	0.390	2.190	185.65	-1.00	2.70	1014.80	26.10	26.20	20.40	20.50	-1.0	70.0	70.0	393.0	25.8	272.00	10.80	78.00	11.40	16	9665.0	27.3	27.3	1581492841	7.30	13.52
12/02/2020 07:34:02	120220	12022020	073402	185.87	12.919407	-57.110533	186.12	-0.580	0.360	2.080	185.96	-1.00	2.60	 	 	 	 	 	 	 	 	 	 	 	 	 	 	 	 	 	 	1581492842	7.63	14.13
12/02/2020 07:34:03	120220	12022020	073403	186.37	12.919372	-57.110540	186.63	-0.840	0.140	2.160	186.48	-1.30	2.60	 	 	 	 	 	 	 	 	 	 	 	 	 	 	 	 	 	 	1581492843	7.78	14.41
12/02/2020 07:34:04	120220	12022020	073404	186.78	12.919337	-57.110552	186.99	-0.760	-0.260	2.330	186.83	-1.60	2.80	 	 	 	 	 	 	 	 	 	 	 	 	 	 	 	 	 	 	1581492844	7.87	14.58
12/02/2020 07:34:05	120220	12022020	073405	186.89	12.919300	-57.110563	187.03	-0.260	-0.770	2.310	186.88	-2.20	2.80	 	 	 	 	 	 	 	 	 	 	 	 	 	 	 	 	 	 	1581492845	8.03	14.87
12/02/2020 07:34:06	120220	12022020	073406	186.69	12.919263	-57.110573	186.78	0.450	-1.150	2.130	186.62	-2.60	2.60	 	 	 	 	 	 	 	 	 	 	 	 	 	 	 	 	 	 	1581492846	8.10	15.00
12/02/2020 07:34:07	120220	12022020	073407	186.27	12.919227	-57.110578	186.32	0.950	-1.100	1.930	186.18	-2.50	2.40	 	 	 	 	 	 	 	 	 	 	 	 	 	 	 	 	 	 	1581492847	8.08	14.96
12/02/2020 07:34:08	120220	12022020	073408	185.77	12.919190	-57.110582	185.81	0.960	-0.420	1.690	185.68	-1.90	2.20	 	 	 	 	 	 	 	 	 	 	 	 	 	 	 	 	 	 	1581492848	7.81	14.46
12/02/2020 07:34:09	120220	12022020	073409	185.40	12.919157	-57.110583	185.50	0.550	0.540	1.390	185.37	-0.90	1.90	 	 	 	 	 	 	 	 	 	 	 	 	 	 	 	 	 	 	1581492849	7.27	13.46
12/02/2020 07:34:10	120220	12022020	073410	185.41	12.919125	-57.110585	185.64	-0.020	1.070	1.110	185.46	-0.40	1.60	 	 	 	 	 	 	 	 	 	 	 	 	 	 	 	 	 	 	1581492850	6.97	12.91
12/02/2020 07:34:11	120220	12022020	073411	185.89	12.919092	-57.110588	186.09	-0.420	0.690	1.190	185.98	-0.70	1.70	 	 	 	 	 	 	 	 	 	 	 	 	 	 	 	 	 	 	1581492851	7.27	13.46
12/02/2020 07:34:12	120220	12022020	073412	186.21	12.919055	-57.110598	186.43	-0.420	-0.260	1.780	186.27	-1.60	2.20	 	 	 	 	 	 	 	 	 	 	 	 	 	 	 	 	 	 	1581492852	8.10	15.00
12/02/2020 07:34:13	120220	12022020	073413	186.46	12.919017	-57.110612	186.63	-0.210	-1.020	2.530	186.49	-2.40	3.00	 	 	 	 	 	 	 	 	 	 	 	 	 	 	 	 	 	 	1581492853	8.71	16.13
12/02/2020 07:34:14	120220	12022020	073414	186.61	12.918978	-57.110625	186.80	-0.170	-1.090	3.180	186.63	-2.50	3.60	 	 	 	 	 	 	 	 	 	 	 	 	 	 	 	 	 	 	1581492854	8.50	15.74
12/02/2020 07:34:15	120220	12022020	073415	186.52	12.918945	-57.110637	186.62	-0.290	-0.800	3.580	186.44	-2.20	4.00	 	 	 	 	 	 	 	 	 	 	 	 	 	 	 	 	 	 	1581492855	7.73	14.32
12/02/2020 07:34:16	120220	12022020	073416	186.00	12.918912	-57.110648	186.05	-0.240	-0.660	3.580	185.88	-2.10	4.10	 	 	 	 	 	 	 	 	 	 	 	 	 	 	 	 	 	 	1581492856	7.44	13.78
12/02/2020 07:34:17	120220	12022020	073417	185.57	12.918877	-57.110657	185.71	0.000	-0.390	2.920	185.55	-1.80	3.40	 	 	 	 	 	 	 	 	 	 	 	 	 	 	 	 	 	 	1581492857	7.78	14.41
12/02/2020 07:34:18	120220	12022020	073418	185.74	12.918842	-57.110662	185.96	0.180	0.380	1.760	185.83	-1.10	2.30	 	 	 	 	 	 	 	 	 	 	 	 	 	 	 	 	 	 	1581492858	7.69	14.24
12/02/2020 07:34:19	120220	12022020	073419	186.18	12.918808	-57.110662	186.34	0.180	0.760	0.770	186.23	-0.70	1.30	 	 	 	 	 	 	 	 	 	 	 	 	 	 	 	 	 	 	1581492859	7.01	12.98
12/02/2020 07:34:20	120220	12022020	073420	186.21	12.918775	-57.110663	186.25	0.280	-0.080	0.570	186.15	-1.50	1.10	 	 	 	 	 	 	 	 	 	 	 	 	 	 	 	 	 	 	1581492860	7.21	13.35
12/02/2020 07:34:21	120220	12022020	073421	185.79	12.918737	-57.110667	185.81	0.540	-1.290	1.080	185.69	-2.70	1.60	 	 	 	 	 	 	 	 	 	 	 	 	 	 	 	 	 	 	1581492861	8.52	15.78
12/02/2020 07:34:22	120220	12022020	073422	185.42	12.918693	-57.110675	185.54	0.620	-1.360	1.880	185.40	-2.80	2.30	 	 	 	 	 	 	 	 	 	 	 	 	 	 	 	 	 	 	1581492862	9.17	16.98
12/02/2020 07:34:23	120220	12022020	073423	185.53	12.918657	-57.110683	185.77	0.130	-0.130	2.580	185.61	-1.60	3.00	 	 	 	 	 	 	 	 	 	 	 	 	 	 	 	 	 	 	1581492863	8.11	15.02
12/02/2020 07:34:24	120220	12022020	073424	185.98	12.918627	-57.110692	186.23	-0.710	1.070	2.970	186.07	-0.40	3.40	 	 	 	 	 	 	 	 	 	 	 	 	 	 	 	 	 	 	1581492864	6.72	12.45
12/02/2020 07:34:25	120220	12022020	073425	186.27	12.918598	-57.110703	186.45	-1.220	1.070	3.260	186.29	-0.30	3.70	 	 	 	 	 	 	 	 	 	 	 	 	 	 	 	 	 	 	1581492865	6.58	12.19
12/02/2020 07:34:26	120220	12022020	073426	186.26	12.918565	-57.110717	186.42	-0.940	-0.010	3.290	186.25	-1.40	3.80	 	 	 	 	 	 	 	 	 	 	 	 	 	 	 	 	 	 	1581492866	7.77	14.39
12/02/2020 07:34:27	120220	12022020	073427	186.20	12.918527	-57.110728	186.35	-0.150	-0.980	2.810	186.19	-2.40	3.30	 	 	 	 	 	 	 	 	 	 	 	 	 	 	 	 	 	 	1581492867	8.81	16.32
12/02/2020 07:34:28	120220	12022020	073428	186.12	12.918487	-57.110737	186.25	0.500	-1.140	2.080	186.09	-2.60	2.60	 	 	 	 	 	 	 	 	 	 	 	 	 	 	 	 	 	 	1581492868	8.52	15.78
12/02/2020 07:34:29	120220	12022020	073429	185.91	12.918452	-57.110740	185.99	0.720	-0.800	1.430	185.85	-2.20	1.90	 	 	 	 	 	 	 	 	 	 	 	 	 	 	 	 	 	 	1581492869	7.63	14.13
12/02/2020 07:34:30	120220	12022020	073430	185.55	12.918418	-57.110742	185.62	0.620	-0.480	1.010	185.48	-1.90	1.50	 	 	 	 	 	 	 	 	 	 	 	 	 	 	 	 	 	 	1581492870	7.26	13.45
12/02/2020 07:34:31	120220	12022020	073431	185.32	12.918383	-57.110743	185.41	0.370	-0.170	0.900	185.31	-1.60	1.40	 	 	 	 	 	 	 	 	 	 	 	 	 	 	 	 	 	 	1581492871	7.50	13.89
12/02/2020 07:34:32	120220	12022020	073432	185.40	12.918348	-57.110747	185.55	-0.010	0.310	1.150	185.45	-1.10	1.60	 	 	 	 	 	 	 	 	 	 	 	 	 	 	 	 	 	 	1581492872	7.62	14.11
12/02/2020 07:34:33	120220	12022020	073433	185.73	12.918315	-57.110753	185.90	-0.390	0.710	1.610	185.80	-0.70	2.10	 	 	 	 	 	 	 	 	 	 	 	 	 	 	 	 	 	 	1581492873	7.38	13.67
12/02/2020 07:34:34	120220	12022020	073434	186.00	12.918282	-57.110763	186.21	-0.520	0.490	1.970	186.05	-0.90	2.40	 	 	 	 	 	 	 	 	 	 	 	 	 	 	 	 	 	 	1581492874	7.33	13.58
12/02/2020 07:34:35	120220	12022020	073435	186.14	12.918247	-57.110775	186.24	-0.270	-0.400	2.270	186.12	-1.80	2.70	 	 	 	 	 	 	 	 	 	 	 	 	 	 	 	 	 	 	1581492875	7.83	14.50
12/02/2020 07:34:36	120220	12022020	073436	185.87	12.918208	-57.110785	185.93	0.150	-1.320	2.800	185.79	-2.70	3.30	 	 	 	 	 	 	 	 	 	 	 	 	 	 	 	 	 	 	1581492876	8.50	15.74
12/02/2020 07:34:37	120220	12022020	073437	185.46	12.918170	-57.110795	185.54	0.390	-1.470	3.020	185.40	-2.90	3.50	 	 	 	 	 	 	 	 	 	 	 	 	 	 	 	 	 	 	1581492877	8.66	16.04
12/02/2020 07:34:38	120220	12022020	073438	185.23	12.918133	-57.110803	185.36	0.290	-0.790	2.650	185.23	-2.30	3.20	 	 	 	 	 	 	 	 	 	 	 	 	 	 	 	 	 	 	1581492878	8.03	14.87
12/02/2020 07:34:39	120220	12022020	073439	185.39	12.918100	-57.110807	185.59	-0.100	0.190	2.050	185.46	-1.30	2.60	 	 	 	 	 	 	 	 	 	 	 	 	 	 	 	 	 	 	1581492879	7.26	13.45
12/02/2020 07:34:40	120220	12022020	073440	185.77	12.918067	-57.110808	185.94	-0.530	0.710	1.600	185.83	-0.70	2.10	 	 	 	 	 	 	 	 	 	 	 	 	 	 	 	 	 	 	1581492880	6.94	12.85
12/02/2020 07:34:41	120220	12022020	073441	185.99	12.918033	-57.110813	186.10	-0.670	0.510	1.510	186.00	-0.90	2.00	 	 	 	 	 	 	 	 	 	 	 	 	 	 	 	 	 	 	1581492881	7.29	13.50
12/02/2020 07:34:42	120220	12022020	073442	185.97	12.917997	-57.110822	186.05	-0.440	-0.040	1.670	185.94	-1.50	2.20	 	 	 	 	 	 	 	 	 	 	 	 	 	 	 	 	 	 	1581492882	8.02	14.85
12/02/2020 07:34:43	120220	12022020	073443	185.77	12.917960	-57.110830	185.83	0.030	-0.540	2.010	185.71	-2.00	2.50	 	 	 	 	 	 	 	 	 	 	 	 	 	 	 	 	 	 	1581492883	8.36	15.48
12/02/2020 07:34:44	120220	12022020	073444	185.43	12.917922	-57.110840	185.49	0.510	-0.700	2.300	185.36	-2.10	2.80	 	 	 	 	 	 	 	 	 	 	 	 	 	 	 	 	 	 	1581492884	8.29	15.35
12/02/2020 07:34:45	120220	12022020	073445	185.12	12.917885	-57.110847	185.23	0.710	-0.440	2.220	185.10	-1.90	2.70	 	 	 	 	 	 	 	 	 	 	 	 	 	 	 	 	 	 	1581492885	7.94	14.70
12/02/2020 07:34:46	120220	12022020	073446	185.14	12.917850	-57.110850	185.35	0.430	0.100	2.010	185.18	-1.40	2.50	 	 	 	 	 	 	 	 	 	 	 	 	 	 	 	 	 	 	1581492886	7.54	13.96
12/02/2020 07:34:47	120220	12022020	073447	185.47	12.917818	-57.110855	185.63	-0.060	0.430	2.070	185.53	-1.00	2.50	 	 	 	 	 	 	 	 	 	 	 	 	 	 	 	 	 	 	1581492887	7.14	13.22
12/02/2020 07:34:48	120220	12022020	073448	185.71	12.917785	-57.110863	185.93	-0.330	0.320	2.130	185.76	-1.10	2.60	 	 	 	 	 	 	 	 	 	 	 	 	 	 	 	 	 	 	1581492888	7.26	13.45
12/02/2020 07:34:49	120220	12022020	073449	185.99	12.917750	-57.110872	186.14	-0.140	-0.220	1.970	186.03	-1.60	2.50	 	 	 	 	 	 	 	 	 	 	 	 	 	 	 	 	 	 	1581492889	7.69	14.24
12/02/2020 07:34:50	120220	12022020	073450	186.15	12.917713	-57.110880	186.30	0.330	-0.950	1.610	186.17	-2.30	2.10	 	 	 	 	 	 	 	 	 	 	 	 	 	 	 	 	 	 	1581492890	8.06	14.93
12/02/2020 07:34:51	120220	12022020	073451	186.16	12.917675	-57.110885	186.26	0.630	-1.450	1.400	186.13	-2.90	1.90	 	 	 	 	 	 	 	 	 	 	 	 	 	 	 	 	 	 	1581492891	8.28	15.33
12/02/2020 07:34:52	120220	12022020	073452	185.80	12.917638	-57.110890	185.83	0.450	-1.520	1.630	185.69	-3.00	2.10	 	 	 	 	 	 	 	 	 	 	 	 	 	 	 	 	 	 	1581492892	8.19	15.17
12/02/2020 07:34:53	120220	12022020	073453	185.22	12.917600	-57.110895	185.28	-0.170	-1.020	2.140	185.12	-2.50	2.60	 	 	 	 	 	 	 	 	 	 	 	 	 	 	 	 	 	 	1581492893	8.09	14.98
12/02/2020 07:34:54	120220	12022020	073454	184.87	12.917565	-57.110903	185.00	-0.890	0.030	2.780	184.84	-1.50	3.20	 	 	 	 	 	 	 	 	 	 	 	 	 	 	 	 	 	 	1581492894	7.85	14.54
12/02/2020 07:34:55	120220	12022020	073455	184.89	12.917532	-57.110915	185.08	-1.240	1.080	3.100	184.93	-0.40	3.60	 	 	 	 	 	 	 	 	 	 	 	 	 	 	 	 	 	 	1581492895	7.55	13.98
12/02/2020 07:34:56	120220	12022020	073456	185.19	12.917500	-57.110927	185.42	-0.990	1.480	2.770	185.29	0.00	3.30	 	 	 	 	 	 	 	 	 	 	 	 	 	 	 	 	 	 	1581492896	7.41	13.72
12/02/2020 07:34:57	120220	12022020	073457	185.70	12.917465	-57.110935	185.92	-0.290	1.040	1.910	185.81	-0.40	2.40	 	 	 	 	 	 	 	 	 	 	 	 	 	 	 	 	 	 	1581492897	7.71	14.28
12/02/2020 07:34:58	120220	12022020	073458	186.19	12.917427	-57.110938	186.37	0.500	0.060	0.980	186.27	-1.30	1.50	 	 	 	 	 	 	 	 	 	 	 	 	 	 	 	 	 	 	1581492898	8.21	15.20
12/02/2020 07:34:59	120220	12022020	073459	186.46	12.917387	-57.110942	186.53	1.080	-0.890	0.400	186.46	-2.30	0.90	 	 	 	 	 	 	 	 	 	 	 	 	 	 	 	 	 	 	1581492899	8.54	15.82
12/02/2020 07:35:00	120220	12022020	073500	186.31	12.917348	-57.110942	186.20	1.270	-1.500	0.580	186.22	-2.90	1.10	 	 	 	 	 	 	 	 	 	 	 	 	 	 	 	 	 	 	1581492900	8.39	15.54
12/02/2020 07:35:01	120220	12022020	073501	185.59	12.917310	-57.110945	185.60	0.890	-1.470	1.520	185.47	-2.90	2.00	1014.70	26.20	26.30	20.60	20.60	-1.0	71.0	71.0	393.0	25.8	271.00	10.10	75.00	10.80	16	10014.0	27.3	27.3	1581492901	8.14	15.08
12/02/2020 07:35:02	120220	12022020	073502	185.20	12.917275	-57.110952	185.28	0.010	-0.690	2.570	185.15	-2.20	3.00	 	 	 	 	 	 	 	 	 	 	 	 	 	 	 	 	 	 	1581492902	7.77	14.39
12/02/2020 07:35:03	120220	12022020	073503	185.20	12.917243	-57.110963	185.42	-0.910	0.370	3.180	185.25	-1.10	3.60	 	 	 	 	 	 	 	 	 	 	 	 	 	 	 	 	 	 	1581492903	7.32	13.56
12/02/2020 07:35:04	120220	12022020	073504	185.55	12.917212	-57.110978	185.79	-1.260	0.940	3.300	185.62	-0.50	3.80	 	 	 	 	 	 	 	 	 	 	 	 	 	 	 	 	 	 	1581492904	7.18	13.30
12/02/2020 07:35:05	120220	12022020	073505	185.88	12.917180	-57.110992	186.10	-0.760	0.580	3.000	185.93	-0.80	3.50	 	 	 	 	 	 	 	 	 	 	 	 	 	 	 	 	 	 	1581492905	7.53	13.95
12/02/2020 07:35:06	120220	12022020	073506	186.15	12.917143	-57.111002	186.36	0.200	-0.290	2.250	186.22	-1.70	2.80	 	 	 	 	 	 	 	 	 	 	 	 	 	 	 	 	 	 	1581492906	8.26	15.30
12/02/2020 07:35:07	120220	12022020	073507	186.46	12.917102	-57.111005	186.63	0.860	-0.960	1.410	186.51	-2.40	1.90	 	 	 	 	 	 	 	 	 	 	 	 	 	 	 	 	 	 	1581492907	8.70	16.11
12/02/2020 07:35:08	120220	12022020	073508	186.63	12.917063	-57.111007	186.75	0.870	-1.120	1.060	186.63	-2.50	1.60	 	 	 	 	 	 	 	 	 	 	 	 	 	 	 	 	 	 	1581492908	8.43	15.61
12/02/2020 07:35:09	120220	12022020	073509	186.54	12.917027	-57.111008	186.62	0.460	-0.840	1.160	186.48	-2.30	1.70	 	 	 	 	 	 	 	 	 	 	 	 	 	 	 	 	 	 	1581492909	7.85	14.54
12/02/2020 07:35:10	120220	12022020	073510	186.18	12.916992	-57.111012	186.23	0.020	-0.450	1.530	186.08	-1.90	2.00	 	 	 	 	 	 	 	 	 	 	 	 	 	 	 	 	 	 	1581492910	7.51	13.91
12/02/2020 07:35:11	120220	12022020	073511	185.76	12.916957	-57.111018	185.86	-0.320	-0.160	2.050	185.70	-1.60	2.50	 	 	 	 	 	 	 	 	 	 	 	 	 	 	 	 	 	 	1581492911	7.65	14.17
12/02/2020 07:35:12	120220	12022020	073512	185.60	12.916920	-57.111027	185.77	-0.680	0.140	2.500	185.60	-1.30	3.00	 	 	 	 	 	 	 	 	 	 	 	 	 	 	 	 	 	 	1581492912	7.97	14.76
12/02/2020 07:35:13	120220	12022020	073513	185.71	12.916885	-57.111038	185.91	-0.940	0.500	2.730	185.76	-0.90	3.20	 	 	 	 	 	 	 	 	 	 	 	 	 	 	 	 	 	 	1581492913	8.05	14.91
12/02/2020 07:35:14	120220	12022020	073514	185.91	12.916850	-57.111050	186.17	-0.810	0.750	2.550	185.97	-0.70	3.10	 	 	 	 	 	 	 	 	 	 	 	 	 	 	 	 	 	 	1581492914	7.87	14.58
12/02/2020 07:35:15	120220	12022020	073515	186.27	12.916817	-57.111062	186.45	-0.180	0.540	1.990	186.32	-0.90	2.50	 	 	 	 	 	 	 	 	 	 	 	 	 	 	 	 	 	 	1581492915	7.71	14.28
12/02/2020 07:35:16	120220	12022020	073516	186.48	12.916780	-57.111067	186.61	0.610	-0.160	1.350	186.50	-1.60	1.90	 	 	 	 	 	 	 	 	 	 	 	 	 	 	 	 	 	 	1581492916	7.90	14.63
12/02/2020 07:35:17	120220	12022020	073517	186.47	12.916742	-57.111070	186.55	1.100	-0.980	1.080	186.43	-2.40	1.60	 	 	 	 	 	 	 	 	 	 	 	 	 	 	 	 	 	 	1581492917	8.30	15.37
12/02/2020 07:35:18	120220	12022020	073518	186.25	12.916702	-57.111073	186.32	1.030	-1.250	1.090	186.21	-2.70	1.60	 	 	 	 	 	 	 	 	 	 	 	 	 	 	 	 	 	 	1581492918	8.40	15.56
12/02/2020 07:35:19	120220	12022020	073519	186.16	12.916665	-57.111077	186.29	0.450	-0.710	1.150	186.16	-2.20	1.60	 	 	 	 	 	 	 	 	 	 	 	 	 	 	 	 	 	 	1581492919	7.92	14.67
12/02/2020 07:35:20	120220	12022020	073520	186.22	12.916633	-57.111082	186.36	-0.240	-0.020	1.430	186.24	-1.50	1.90	 	 	 	 	 	 	 	 	 	 	 	 	 	 	 	 	 	 	1581492920	7.12	13.19
12/02/2020 07:35:21	120220	12022020	073521	186.27	12.916600	-57.111090	186.38	-0.550	0.200	1.770	186.27	-1.20	2.20	 	 	 	 	 	 	 	 	 	 	 	 	 	 	 	 	 	 	1581492921	7.12	13.19
12/02/2020 07:35:22	120220	12022020	073522	186.32	12.916567	-57.111100	186.45	-0.380	0.040	1.860	186.35	-1.40	2.30	 	 	 	 	 	 	 	 	 	 	 	 	 	 	 	 	 	 	1581492922	7.74	14.33
12/02/2020 07:35:23	120220	12022020	073523	186.44	12.916528	-57.111108	186.57	-0.050	-0.280	1.900	186.46	-1.70	2.40	 	 	 	 	 	 	 	 	 	 	 	 	 	 	 	 	 	 	1581492923	8.12	15.04
12/02/2020 07:35:24	120220	12022020	073524	186.40	12.916492	-57.111115	186.48	0.170	-0.720	2.060	186.36	-2.10	2.50	 	 	 	 	 	 	 	 	 	 	 	 	 	 	 	 	 	 	1581492924	8.23	15.24
12/02/2020 07:35:25	120220	12022020	073525	186.09	12.916453	-57.111123	186.13	0.250	-1.090	2.290	186.00	-2.50	2.80	 	 	 	 	 	 	 	 	 	 	 	 	 	 	 	 	 	 	1581492925	8.41	15.58
12/02/2020 07:35:26	120220	12022020	073526	185.71	12.916413	-57.111132	185.69	0.150	-0.920	2.640	185.64	-2.40	3.10	 	 	 	 	 	 	 	 	 	 	 	 	 	 	 	 	 	 	1581492926	8.54	15.82
12/02/2020 07:35:27	120220	12022020	073527	185.42	12.916377	-57.111140	185.55	-0.180	-0.010	2.770	185.43	-1.50	3.30	 	 	 	 	 	 	 	 	 	 	 	 	 	 	 	 	 	 	1581492927	8.17	15.13
12/02/2020 07:35:28	120220	12022020	073528	185.63	12.916343	-57.111148	185.80	-0.620	0.970	2.470	185.70	-0.50	3.00	 	 	 	 	 	 	 	 	 	 	 	 	 	 	 	 	 	 	1581492928	7.39	13.69
12/02/2020 07:35:29	120220	12022020	073529	186.04	12.916312	-57.111157	186.22	-0.760	1.190	1.900	186.12	-0.20	2.40	 	 	 	 	 	 	 	 	 	 	 	 	 	 	 	 	 	 	1581492929	7.11	13.17
12/02/2020 07:35:30	120220	12022020	073530	186.52	12.916277	-57.111163	186.72	-0.390	0.650	1.130	186.64	-0.70	1.70	 	 	 	 	 	 	 	 	 	 	 	 	 	 	 	 	 	 	1581492930	7.67	14.20
12/02/2020 07:35:31	120220	12022020	073531	187.12	12.916238	-57.111168	187.30	0.250	-0.100	0.290	187.24	-1.50	0.80	 	 	 	 	 	 	 	 	 	 	 	 	 	 	 	 	 	 	1581492931	8.21	15.20
12/02/2020 07:35:32	120220	12022020	073532	187.54	12.916200	-57.111172	187.64	0.770	-0.830	-0.040	187.57	-2.20	0.50	 	 	 	 	 	 	 	 	 	 	 	 	 	 	 	 	 	 	1581492932	8.23	15.24
12/02/2020 07:35:33	120220	12022020	073533	187.43	12.916163	-57.111173	187.44	1.060	-1.470	0.340	187.34	-2.90	0.80	 	 	 	 	 	 	 	 	 	 	 	 	 	 	 	 	 	 	1581492933	8.13	15.06
12/02/2020 07:35:34	120220	12022020	073534	186.87	12.916125	-57.111178	186.86	1.040	-1.620	1.260	186.73	-3.00	1.70	 	 	 	 	 	 	 	 	 	 	 	 	 	 	 	 	 	 	1581492934	8.19	15.17
12/02/2020 07:35:35	120220	12022020	073535	186.19	12.916088	-57.111185	186.23	0.540	-1.120	2.500	186.08	-2.60	2.90	 	 	 	 	 	 	 	 	 	 	 	 	 	 	 	 	 	 	1581492935	8.05	14.91
12/02/2020 07:35:36	120220	12022020	073536	185.79	12.916053	-57.111193	185.93	-0.420	-0.210	3.550	185.75	-1.70	4.00	 	 	 	 	 	 	 	 	 	 	 	 	 	 	 	 	 	 	1581492936	7.79	14.43
12/02/2020 07:35:37	120220	12022020	073537	185.73	12.916020	-57.111208	185.92	-1.380	0.630	4.050	185.74	-0.80	4.50	 	 	 	 	 	 	 	 	 	 	 	 	 	 	 	 	 	 	1581492937	7.75	14.35
12/02/2020 07:35:38	120220	12022020	073538	185.83	12.915987	-57.111225	186.10	-1.720	0.970	3.950	185.88	-0.40	4.50	 	 	 	 	 	 	 	 	 	 	 	 	 	 	 	 	 	 	1581492938	7.98	14.78
12/02/2020 07:35:39	120220	12022020	073539	186.24	12.915952	-57.111242	186.49	-1.110	0.880	2.970	186.35	-0.50	3.50	 	 	 	 	 	 	 	 	 	 	 	 	 	 	 	 	 	 	1581492939	8.30	15.37
12/02/2020 07:35:40	120220	12022020	073540	186.86	12.915915	-57.111253	187.11	0.100	0.530	1.160	186.99	-0.90	1.70	 	 	 	 	 	 	 	 	 	 	 	 	 	 	 	 	 	 	1581492940	8.18	15.15
12/02/2020 07:35:41	120220	12022020	073541	187.55	12.915877	-57.111253	187.74	1.080	-0.170	-0.400	187.65	-1.60	0.20	 	 	 	 	 	 	 	 	 	 	 	 	 	 	 	 	 	 	1581492941	8.15	15.09
12/02/2020 07:35:42	120220	12022020	073542	187.89	12.915838	-57.111248	187.97	1.280	-1.080	-0.880	187.89	-2.50	-0.40	 	 	 	 	 	 	 	 	 	 	 	 	 	 	 	 	 	 	1581492942	8.41	15.58
12/02/2020 07:35:43	120220	12022020	073543	187.61	12.915800	-57.111248	187.60	0.860	-1.730	-0.180	187.48	-3.10	0.30	 	 	 	 	 	 	 	 	 	 	 	 	 	 	 	 	 	 	1581492943	8.39	15.54
12/02/2020 07:35:44	120220	12022020	073544	186.87	12.915762	-57.111257	186.84	0.230	-1.490	1.230	186.70	-2.90	1.70	 	 	 	 	 	 	 	 	 	 	 	 	 	 	 	 	 	 	1581492944	8.22	15.22
12/02/2020 07:35:45	120220	12022020	073545	186.15	12.915728	-57.111268	186.20	-0.280	-0.510	2.550	186.04	-2.00	3.00	 	 	 	 	 	 	 	 	 	 	 	 	 	 	 	 	 	 	1581492945	7.83	14.50
12/02/2020 07:35:46	120220	12022020	073546	185.76	12.915695	-57.111283	185.89	-0.530	0.430	3.320	185.73	-1.00	3.80	 	 	 	 	 	 	 	 	 	 	 	 	 	 	 	 	 	 	1581492946	7.54	13.96
12/02/2020 07:35:47	120220	12022020	073547	185.73	12.915663	-57.111298	185.90	-0.470	0.830	3.410	185.75	-0.60	3.90	 	 	 	 	 	 	 	 	 	 	 	 	 	 	 	 	 	 	1581492947	7.61	14.09
12/02/2020 07:35:48	120220	12022020	073548	185.96	12.915628	-57.111308	186.17	-0.250	0.710	2.890	186.03	-0.70	3.40	 	 	 	 	 	 	 	 	 	 	 	 	 	 	 	 	 	 	1581492948	7.88	14.59
12/02/2020 07:35:49	120220	12022020	073549	186.30	12.915592	-57.111315	186.50	-0.050	0.280	2.150	186.36	-1.10	2.70	 	 	 	 	 	 	 	 	 	 	 	 	 	 	 	 	 	 	1581492949	8.05	14.91
12/02/2020 07:35:50	120220	12022020	073550	186.53	12.915553	-57.111318	186.74	0.070	-0.300	1.620	186.58	-1.70	2.10	 	 	 	 	 	 	 	 	 	 	 	 	 	 	 	 	 	 	1581492950	8.09	14.98
12/02/2020 07:35:51	120220	12022020	073551	186.69	12.915517	-57.111323	186.80	0.100	-0.900	1.550	186.68	-2.30	2.00	 	 	 	 	 	 	 	 	 	 	 	 	 	 	 	 	 	 	1581492951	8.06	14.93
12/02/2020 07:35:52	120220	12022020	073552	186.54	12.915480	-57.111332	186.54	0.100	-1.320	1.940	186.47	-2.70	2.40	 	 	 	 	 	 	 	 	 	 	 	 	 	 	 	 	 	 	1581492952	8.09	14.98
12/02/2020 07:35:53	120220	12022020	073553	186.07	12.915443	-57.111342	186.17	0.110	-1.110	2.300	186.01	-2.60	2.80	 	 	 	 	 	 	 	 	 	 	 	 	 	 	 	 	 	 	1581492953	8.19	15.17
12/02/2020 07:35:54	120220	12022020	073554	185.87	12.915408	-57.111353	186.01	0.110	-0.130	2.130	185.86	-1.60	2.60	 	 	 	 	 	 	 	 	 	 	 	 	 	 	 	 	 	 	1581492954	7.76	14.37
12/02/2020 07:35:55	120220	12022020	073555	185.87	12.915378	-57.111360	186.01	0.110	0.680	1.640	185.89	-0.80	2.20	 	 	 	 	 	 	 	 	 	 	 	 	 	 	 	 	 	 	1581492955	6.87	12.72
12/02/2020 07:35:56	120220	12022020	073556	185.94	12.915345	-57.111363	186.05	0.190	0.440	1.220	185.94	-0.90	1.70	 	 	 	 	 	 	 	 	 	 	 	 	 	 	 	 	 	 	1581492956	6.96	12.89
12/02/2020 07:35:57	120220	12022020	073557	185.88	12.915308	-57.111367	185.95	0.310	-0.570	1.290	185.84	-2.00	1.80	 	 	 	 	 	 	 	 	 	 	 	 	 	 	 	 	 	 	1581492957	8.07	14.95
12/02/2020 07:35:58	120220	12022020	073558	185.62	12.915267	-57.111372	185.68	0.310	-1.270	1.860	185.57	-2.70	2.30	 	 	 	 	 	 	 	 	 	 	 	 	 	 	 	 	 	 	1581492958	8.95	16.58
12/02/2020 07:35:59	120220	12022020	073559	185.48	12.915227	-57.111378	185.62	0.070	-0.880	2.520	185.50	-2.30	3.00	 	 	 	 	 	 	 	 	 	 	 	 	 	 	 	 	 	 	1581492959	8.75	16.21
12/02/2020 07:36:00	120220	12022020	073600	185.74	12.915192	-57.111388	185.95	-0.340	0.320	2.760	185.84	-1.20	3.30	 	 	 	 	 	 	 	 	 	 	 	 	 	 	 	 	 	 	1581492960	7.70	14.26
12/02/2020 07:36:01	120220	12022020	073601	186.23	12.915163	-57.111398	186.43	-0.640	1.210	2.600	186.32	-0.30	3.10	1014.80	26.20	26.20	20.40	20.50	-1.0	70.0	70.0	392.0	25.8	270.00	10.10	75.00	10.90	16	9122.0	27.3	27.3	1581492961	6.70	12.41
12/02/2020 07:36:02	120220	12022020	073602	186.57	12.915132	-57.111405	186.71	-0.590	0.950	2.370	186.59	-0.50	2.90	 	 	 	 	 	 	 	 	 	 	 	 	 	 	 	 	 	 	1581492962	6.79	12.58
12/02/2020 07:36:03	120220	12022020	073603	186.53	12.915097	-57.111415	186.59	-0.130	-0.200	2.320	186.48	-1.60	2.80	 	 	 	 	 	 	 	 	 	 	 	 	 	 	 	 	 	 	1581492963	7.83	14.50
12/02/2020 07:36:04	120220	12022020	073604	186.15	12.915057	-57.111423	186.18	0.540	-1.200	2.300	186.06	-2.60	2.80	 	 	 	 	 	 	 	 	 	 	 	 	 	 	 	 	 	 	1581492964	8.68	16.08
12/02/2020 07:36:05	120220	12022020	073605	185.73	12.915018	-57.111430	185.78	0.950	-1.320	2.140	185.67	-2.80	2.60	 	 	 	 	 	 	 	 	 	 	 	 	 	 	 	 	 	 	1581492965	8.56	15.85
12/02/2020 07:36:06	120220	12022020	073606	185.53	12.914982	-57.111433	185.64	0.740	-0.810	1.810	185.53	-2.30	2.30	 	 	 	 	 	 	 	 	 	 	 	 	 	 	 	 	 	 	1581492966	7.76	14.37
12/02/2020 07:36:07	120220	12022020	073607	185.70	12.914948	-57.111435	185.87	0.020	-0.300	1.630	185.77	-1.80	2.10	 	 	 	 	 	 	 	 	 	 	 	 	 	 	 	 	 	 	1581492967	7.22	13.37
12/02/2020 07:36:08	120220	12022020	073608	186.08	12.914915	-57.111440	186.22	-0.710	-0.050	1.720	186.14	-1.50	2.20	 	 	 	 	 	 	 	 	 	 	 	 	 	 	 	 	 	 	1581492968	7.27	13.46
12/02/2020 07:36:09	120220	12022020	073609	186.27	12.914880	-57.111450	186.36	-0.930	-0.110	2.000	186.27	-1.50	2.50	 	 	 	 	 	 	 	 	 	 	 	 	 	 	 	 	 	 	1581492969	7.63	14.13
12/02/2020 07:36:10	120220	12022020	073610	186.18	12.914845	-57.111462	186.23	-0.650	-0.340	2.360	186.13	-1.80	2.80	 	 	 	 	 	 	 	 	 	 	 	 	 	 	 	 	 	 	1581492970	8.07	14.95
12/02/2020 07:36:11	120220	12022020	073611	185.90	12.914808	-57.111472	185.95	-0.150	-0.520	2.590	185.83	-1.90	3.10	 	 	 	 	 	 	 	 	 	 	 	 	 	 	 	 	 	 	1581492971	8.34	15.45
12/02/2020 07:36:12	120220	12022020	073612	185.63	12.914770	-57.111480	185.69	0.240	-0.430	2.540	185.58	-1.90	3.00	 	 	 	 	 	 	 	 	 	 	 	 	 	 	 	 	 	 	1581492972	8.33	15.43
12/02/2020 07:36:13	120220	12022020	073613	185.51	12.914733	-57.111487	185.62	0.400	-0.040	2.280	185.52	-1.50	2.80	 	 	 	 	 	 	 	 	 	 	 	 	 	 	 	 	 	 	1581492973	8.11	15.02
12/02/2020 07:36:14	120220	12022020	073614	185.64	12.914697	-57.111492	185.88	0.360	0.610	1.690	185.72	-0.90	2.20	 	 	 	 	 	 	 	 	 	 	 	 	 	 	 	 	 	 	1581492974	7.79	14.43
12/02/2020 07:36:15	120220	12022020	073615	186.27	12.914663	-57.111493	186.46	0.240	1.150	0.970	186.41	-0.30	1.50	 	 	 	 	 	 	 	 	 	 	 	 	 	 	 	 	 	 	1581492975	7.32	13.56
12/02/2020 07:36:16	120220	12022020	073616	186.92	12.914630	-57.111493	187.09	0.070	1.040	0.580	187.03	-0.40	1.10	 	 	 	 	 	 	 	 	 	 	 	 	 	 	 	 	 	 	1581492976	7.06	13.08
12/02/2020 07:36:17	120220	12022020	073617	187.25	12.914597	-57.111497	187.31	-0.060	-0.070	0.970	187.24	-1.40	1.50	 	 	 	 	 	 	 	 	 	 	 	 	 	 	 	 	 	 	1581492977	7.32	13.56
12/02/2020 07:36:18	120220	12022020	073618	186.94	12.914558	-57.111505	186.92	-0.060	-1.730	1.950	186.81	-3.10	2.40	 	 	 	 	 	 	 	 	 	 	 	 	 	 	 	 	 	 	1581492978	8.17	15.13
12/02/2020 07:36:19	120220	12022020	073619	186.07	12.914518	-57.111518	185.99	0.030	-2.820	3.220	185.86	-4.20	3.70	 	 	 	 	 	 	 	 	 	 	 	 	 	 	 	 	 	 	1581492979	9.02	16.71
12/02/2020 07:36:20	120220	12022020	073620	184.99	12.914480	-57.111533	184.98	0.000	-2.540	4.280	184.81	-4.00	4.70	 	 	 	 	 	 	 	 	 	 	 	 	 	 	 	 	 	 	1581492980	9.00	16.67
12/02/2020 07:36:21	120220	12022020	073621	184.32	12.914445	-57.111547	184.41	-0.270	-1.060	4.480	184.26	-2.60	5.00	 	 	 	 	 	 	 	 	 	 	 	 	 	 	 	 	 	 	1581492981	8.13	15.06
12/02/2020 07:36:22	120220	12022020	073622	184.20	12.914413	-57.111558	184.34	-0.580	0.600	3.830	184.23	-0.90	4.40	 	 	 	 	 	 	 	 	 	 	 	 	 	 	 	 	 	 	1581492982	7.12	13.19
12/02/2020 07:36:23	120220	12022020	073623	184.54	12.914382	-57.111565	184.76	-0.570	1.520	2.490	184.68	0.10	3.10	 	 	 	 	 	 	 	 	 	 	 	 	 	 	 	 	 	 	1581492983	6.91	12.80
12/02/2020 07:36:24	120220	12022020	073624	185.37	12.914347	-57.111567	185.63	-0.110	1.480	0.750	185.58	0.10	1.30	 	 	 	 	 	 	 	 	 	 	 	 	 	 	 	 	 	 	1581492984	7.53	13.95
12/02/2020 07:36:25	120220	12022020	073625	186.43	12.914308	-57.111565	186.66	0.480	0.820	-0.590	186.63	-0.60	-0.00	 	 	 	 	 	 	 	 	 	 	 	 	 	 	 	 	 	 	1581492985	8.32	15.41
12/02/2020 07:36:26	120220	12022020	073626	187.28	12.914268	-57.111562	187.44	0.730	0.070	-0.890	187.40	-1.40	-0.40	 	 	 	 	 	 	 	 	 	 	 	 	 	 	 	 	 	 	1581492986	8.61	15.95
12/02/2020 07:36:27	120220	12022020	073627	187.58	12.914230	-57.111563	187.64	0.520	-0.510	-0.260	187.57	-1.90	0.20	 	 	 	 	 	 	 	 	 	 	 	 	 	 	 	 	 	 	1581492987	8.16	15.11
12/02/2020 07:36:28	120220	12022020	073628	187.38	12.914195	-57.111570	187.30	0.040	-1.000	1.190	187.29	-2.40	1.60	 	 	 	 	 	 	 	 	 	 	 	 	 	 	 	 	 	 	1581492988	7.71	14.28
12/02/2020 07:36:29	120220	12022020	073629	186.69	12.914160	-57.111582	186.72	-0.360	-1.350	2.910	186.56	-2.80	3.30	 	 	 	 	 	 	 	 	 	 	 	 	 	 	 	 	 	 	1581492989	7.85	14.54
12/02/2020 07:36:30	120220	12022020	073630	186.09	12.914127	-57.111600	186.19	-0.550	-1.370	4.210	186.00	-2.80	4.60	 	 	 	 	 	 	 	 	 	 	 	 	 	 	 	 	 	 	1581492990	8.22	15.22
12/02/2020 07:36:31	120220	12022020	073631	185.72	12.914092	-57.111617	185.88	-0.630	-0.950	4.680	185.68	-2.40	5.20	 	 	 	 	 	 	 	 	 	 	 	 	 	 	 	 	 	 	1581492991	8.19	15.17
12/02/2020 07:36:32	120220	12022020	073632	185.65	12.914058	-57.111630	185.83	-0.570	-0.290	4.180	185.66	-1.70	4.70	 	 	 	 	 	 	 	 	 	 	 	 	 	 	 	 	 	 	1581492992	7.83	14.50
12/02/2020 07:36:33	120220	12022020	073633	185.77	12.914025	-57.111640	185.96	-0.190	0.190	2.990	185.81	-1.30	3.60	 	 	 	 	 	 	 	 	 	 	 	 	 	 	 	 	 	 	1581492993	7.49	13.87
12/02/2020 07:36:34	120220	12022020	073634	185.95	12.913990	-57.111643	186.10	0.520	0.210	1.440	186.00	-1.20	2.00	 	 	 	 	 	 	 	 	 	 	 	 	 	 	 	 	 	 	1581492994	7.66	14.19
12/02/2020 07:36:35	120220	12022020	073635	186.24	12.913952	-57.111642	186.39	1.040	0.110	0.030	186.32	-1.30	0.60	 	 	 	 	 	 	 	 	 	 	 	 	 	 	 	 	 	 	1581492995	8.28	15.33
12/02/2020 07:36:36	120220	12022020	073636	186.66	12.913912	-57.111637	186.82	0.800	0.320	-0.580	186.76	-1.10	-0.00	 	 	 	 	 	 	 	 	 	 	 	 	 	 	 	 	 	 	1581492996	8.38	15.52
12/02/2020 07:36:37	120220	12022020	073637	187.09	12.913877	-57.111637	187.22	-0.100	0.570	-0.390	187.16	-0.90	0.10	 	 	 	 	 	 	 	 	 	 	 	 	 	 	 	 	 	 	1581492997	7.58	14.04
12/02/2020 07:36:38	120220	12022020	073638	187.33	12.913845	-57.111643	187.40	-0.950	0.280	0.480	187.33	-1.10	0.90	 	 	 	 	 	 	 	 	 	 	 	 	 	 	 	 	 	 	1581492998	7.21	13.35
12/02/2020 07:36:39	120220	12022020	073639	187.13	12.913810	-57.111658	187.14	-0.990	-0.600	1.820	187.04	-2.00	2.30	 	 	 	 	 	 	 	 	 	 	 	 	 	 	 	 	 	 	1581492999	7.97	14.76
12/02/2020 07:36:40	120220	12022020	073640	186.73	12.913775	-57.111678	186.68	-0.150	-1.230	2.670	186.64	-2.60	3.10	 	 	 	 	 	 	 	 	 	 	 	 	 	 	 	 	 	 	1581493000	8.92	16.52
12/02/2020 07:36:41	120220	12022020	073641	186.41	12.913738	-57.111693	186.55	0.680	-1.000	2.660	186.42	-2.40	3.20	 	 	 	 	 	 	 	 	 	 	 	 	 	 	 	 	 	 	1581493001	8.47	15.69
12/02/2020 07:36:42	120220	12022020	073642	186.51	12.913703	-57.111700	186.70	0.790	-0.330	2.110	186.54	-1.80	2.60	 	 	 	 	 	 	 	 	 	 	 	 	 	 	 	 	 	 	1581493002	7.40	13.70
12/02/2020 07:36:43	120220	12022020	073643	186.59	12.913672	-57.111703	186.69	0.370	-0.090	1.660	186.57	-1.50	2.20	 	 	 	 	 	 	 	 	 	 	 	 	 	 	 	 	 	 	1581493003	6.87	12.72
12/02/2020 07:36:44	120220	12022020	073644	186.33	12.913638	-57.111707	186.37	0.030	-0.520	1.640	186.25	-1.90	2.10	 	 	 	 	 	 	 	 	 	 	 	 	 	 	 	 	 	 	1581493004	7.39	13.69
12/02/2020 07:36:45	120220	12022020	073645	185.92	12.913600	-57.111713	185.99	-0.010	-0.930	1.840	185.86	-2.40	2.30	 	 	 	 	 	 	 	 	 	 	 	 	 	 	 	 	 	 	1581493005	8.31	15.39
12/02/2020 07:36:46	120220	12022020	073646	185.82	12.913560	-57.111720	185.98	-0.120	-0.540	1.960	185.86	-2.00	2.50	 	 	 	 	 	 	 	 	 	 	 	 	 	 	 	 	 	 	1581493006	8.53	15.80
12/02/2020 07:36:47	120220	12022020	073647	186.11	12.913527	-57.111728	186.30	-0.550	0.370	2.050	186.18	-1.10	2.50	 	 	 	 	 	 	 	 	 	 	 	 	 	 	 	 	 	 	1581493007	7.69	14.24
12/02/2020 07:36:48	120220	12022020	073648	186.42	12.913495	-57.111738	186.58	-0.990	0.850	2.120	186.47	-0.60	2.60	 	 	 	 	 	 	 	 	 	 	 	 	 	 	 	 	 	 	1581493008	7.04	13.04
12/02/2020 07:36:49	120220	12022020	073649	186.65	12.913462	-57.111750	186.80	-0.930	0.540	1.990	186.70	-0.90	2.50	 	 	 	 	 	 	 	 	 	 	 	 	 	 	 	 	 	 	1581493009	7.41	13.72
12/02/2020 07:36:50	120220	12022020	073650	186.91	12.913427	-57.111762	187.04	-0.200	-0.120	1.590	186.94	-1.50	2.10	 	 	 	 	 	 	 	 	 	 	 	 	 	 	 	 	 	 	1581493010	8.11	15.02
12/02/2020 07:36:51	120220	12022020	073651	186.90	12.913388	-57.111770	186.93	0.840	-0.720	1.230	186.83	-2.10	1.70	 	 	 	 	 	 	 	 	 	 	 	 	 	 	 	 	 	 	1581493011	8.31	15.39
12/02/2020 07:36:52	120220	12022020	073652	186.53	12.913350	-57.111773	186.54	1.460	-0.900	1.090	186.46	-2.30	1.60	 	 	 	 	 	 	 	 	 	 	 	 	 	 	 	 	 	 	1581493012	8.24	15.26
12/02/2020 07:36:53	120220	12022020	073653	186.32	12.913313	-57.111775	186.41	1.140	-0.410	1.170	186.31	-1.90	1.70	 	 	 	 	 	 	 	 	 	 	 	 	 	 	 	 	 	 	1581493013	7.92	14.67
12/02/2020 07:36:54	120220	12022020	073654	186.38	12.913280	-57.111777	186.49	0.090	0.280	1.580	186.40	-1.20	2.00	 	 	 	 	 	 	 	 	 	 	 	 	 	 	 	 	 	 	1581493014	7.12	13.19
12/02/2020 07:36:55	120220	12022020	073655	186.40	12.913250	-57.111785	186.50	-0.860	0.410	2.290	186.40	-1.00	2.80	 	 	 	 	 	 	 	 	 	 	 	 	 	 	 	 	 	 	1581493015	6.86	12.70
12/02/2020 07:36:56	120220	12022020	073656	186.45	12.913217	-57.111800	186.57	-1.100	0.020	2.820	186.46	-1.40	3.30	 	 	 	 	 	 	 	 	 	 	 	 	 	 	 	 	 	 	1581493016	7.69	14.24
12/02/2020 07:36:57	120220	12022020	073657	186.42	12.913182	-57.111815	186.52	-0.580	-0.540	3.010	186.40	-1.90	3.50	 	 	 	 	 	 	 	 	 	 	 	 	 	 	 	 	 	 	1581493017	8.30	15.37
12/02/2020 07:36:58	120220	12022020	073658	186.21	12.913145	-57.111830	186.29	0.260	-0.930	2.790	186.16	-2.30	3.30	 	 	 	 	 	 	 	 	 	 	 	 	 	 	 	 	 	 	1581493018	8.36	15.48
12/02/2020 07:36:59	120220	12022020	073659	185.95	12.913108	-57.111837	186.03	0.840	-0.920	2.150	185.91	-2.40	2.70	 	 	 	 	 	 	 	 	 	 	 	 	 	 	 	 	 	 	1581493019	8.09	14.98
12/02/2020 07:37:00	120220	12022020	073700	185.88	12.913072	-57.111840	186.01	0.800	-0.530	1.360	185.90	-2.00	1.90	 	 	 	 	 	 	 	 	 	 	 	 	 	 	 	 	 	 	1581493020	7.76	14.37
12/02/2020 07:37:01	120220	12022020	073701	186.02	12.913038	-57.111838	186.15	0.240	-0.170	0.920	186.05	-1.60	1.40	1014.70	26.20	26.20	20.40	20.50	-1.0	70.0	70.0	393.0	25.8	271.00	10.50	76.00	11.10	16	9465.0	27.3	27.3	1581493021	7.48	13.85
12/02/2020 07:37:02	120220	12022020	073702	186.15	12.913003	-57.111840	186.27	-0.420	-0.130	1.040	186.16	-1.50	1.50	 	 	 	 	 	 	 	 	 	 	 	 	 	 	 	 	 	 	1581493022	7.45	13.80
12/02/2020 07:37:03	120220	12022020	073703	186.16	12.912967	-57.111848	186.26	-0.820	-0.200	1.580	186.15	-1.60	2.10	 	 	 	 	 	 	 	 	 	 	 	 	 	 	 	 	 	 	1581493023	7.84	14.52
12/02/2020 07:37:04	120220	12022020	073704	186.09	12.912932	-57.111860	186.17	-0.780	-0.100	2.130	186.07	-1.50	2.60	 	 	 	 	 	 	 	 	 	 	 	 	 	 	 	 	 	 	1581493024	8.16	15.11
12/02/2020 07:37:05	120220	12022020	073705	185.91	12.912897	-57.111873	185.96	-0.320	0.100	2.470	185.85	-1.30	2.90	 	 	 	 	 	 	 	 	 	 	 	 	 	 	 	 	 	 	1581493025	8.07	14.95
12/02/2020 07:37:06	120220	12022020	073706	185.64	12.912862	-57.111885	185.62	0.340	0.190	2.530	185.57	-1.20	3.00	 	 	 	 	 	 	 	 	 	 	 	 	 	 	 	 	 	 	1581493026	7.83	14.50
12/02/2020 07:37:07	120220	12022020	073707	185.31	12.912825	-57.111892	185.41	0.780	0.130	2.250	185.30	-1.30	2.80	 	 	 	 	 	 	 	 	 	 	 	 	 	 	 	 	 	 	1581493027	7.80	14.45
12/02/2020 07:37:08	120220	12022020	073708	185.43	12.912790	-57.111893	185.62	0.710	0.100	1.750	185.50	-1.30	2.30	 	 	 	 	 	 	 	 	 	 	 	 	 	 	 	 	 	 	1581493028	7.84	14.52
12/02/2020 07:37:09	120220	12022020	073709	185.87	12.912755	-57.111895	186.05	0.230	0.120	1.500	185.96	-1.30	2.00	 	 	 	 	 	 	 	 	 	 	 	 	 	 	 	 	 	 	1581493029	7.59	14.06
12/02/2020 07:37:10	120220	12022020	073710	186.19	12.912720	-57.111900	186.29	-0.180	-0.290	1.720	186.20	-1.70	2.20	 	 	 	 	 	 	 	 	 	 	 	 	 	 	 	 	 	 	1581493030	7.28	13.48
12/02/2020 07:37:11	120220	12022020	073711	186.05	12.912685	-57.111908	186.09	-0.190	-1.100	2.310	185.98	-2.50	2.80	 	 	 	 	 	 	 	 	 	 	 	 	 	 	 	 	 	 	1581493031	7.75	14.35
12/02/2020 07:37:12	120220	12022020	073712	185.68	12.912648	-57.111920	185.75	-0.060	-1.480	2.980	185.62	-2.90	3.40	 	 	 	 	 	 	 	 	 	 	 	 	 	 	 	 	 	 	1581493032	8.46	15.67
12/02/2020 07:37:13	120220	12022020	073713	185.50	12.912612	-57.111933	185.63	-0.100	-1.000	3.120	185.51	-2.40	3.60	 	 	 	 	 	 	 	 	 	 	 	 	 	 	 	 	 	 	1581493033	8.27	15.32
12/02/2020 07:37:14	120220	12022020	073714	185.61	12.912578	-57.111943	185.75	-0.210	-0.210	2.550	185.65	-1.70	3.10	 	 	 	 	 	 	 	 	 	 	 	 	 	 	 	 	 	 	1581493034	7.43	13.76
12/02/2020 07:37:15	120220	12022020	073715	185.77	12.912547	-57.111950	185.88	-0.100	0.170	1.770	185.80	-1.30	2.30	 	 	 	 	 	 	 	 	 	 	 	 	 	 	 	 	 	 	1581493035	7.08	13.11
12/02/2020 07:37:16	120220	12022020	073716	185.82	12.912512	-57.111953	185.89	0.310	0.080	1.200	185.82	-1.30	1.70	 	 	 	 	 	 	 	 	 	 	 	 	 	 	 	 	 	 	1581493036	7.61	14.09
12/02/2020 07:37:17	120220	12022020	073717	185.87	12.912473	-57.111955	185.97	0.600	0.040	0.950	185.90	-1.40	1.50	 	 	 	 	 	 	 	 	 	 	 	 	 	 	 	 	 	 	1581493037	8.21	15.20
12/02/2020 07:37:18	120220	12022020	073718	186.01	12.912435	-57.111957	186.15	0.400	0.250	0.990	186.04	-1.20	1.50	 	 	 	 	 	 	 	 	 	 	 	 	 	 	 	 	 	 	1581493038	8.12	15.04
12/02/2020 07:37:19	120220	12022020	073719	186.15	12.912400	-57.111960	186.24	-0.170	0.360	1.470	186.15	-1.00	1.90	 	 	 	 	 	 	 	 	 	 	 	 	 	 	 	 	 	 	1581493039	7.61	14.09
12/02/2020 07:37:20	120220	12022020	073720	186.11	12.912365	-57.111968	186.19	-0.600	0.150	2.250	186.09	-1.20	2.70	 	 	 	 	 	 	 	 	 	 	 	 	 	 	 	 	 	 	1581493040	7.58	14.04
12/02/2020 07:37:21	120220	12022020	073721	185.99	12.912330	-57.111982	186.08	-0.530	-0.260	2.890	185.97	-1.60	3.30	 	 	 	 	 	 	 	 	 	 	 	 	 	 	 	 	 	 	1581493041	7.96	14.74
12/02/2020 07:37:22	120220	12022020	073722	185.80	12.912295	-57.111995	185.87	-0.040	-0.780	3.130	185.75	-2.10	3.60	 	 	 	 	 	 	 	 	 	 	 	 	 	 	 	 	 	 	1581493042	8.15	15.09
12/02/2020 07:37:23	120220	12022020	073723	185.55	12.912258	-57.112005	185.63	0.480	-1.210	2.910	185.51	-2.60	3.40	 	 	 	 	 	 	 	 	 	 	 	 	 	 	 	 	 	 	1581493043	8.28	15.33
12/02/2020 07:37:24	120220	12022020	073724	185.46	12.912220	-57.112013	185.58	0.580	-0.970	2.240	185.48	-2.40	2.80	 	 	 	 	 	 	 	 	 	 	 	 	 	 	 	 	 	 	1581493044	8.24	15.26
12/02/2020 07:37:25	120220	12022020	073725	185.66	12.912185	-57.112017	185.81	0.080	-0.050	1.450	185.72	-1.50	2.00	 	 	 	 	 	 	 	 	 	 	 	 	 	 	 	 	 	 	1581493045	7.56	14.00
12/02/2020 07:37:26	120220	12022020	073726	185.94	12.912155	-57.112018	186.07	-0.630	0.610	1.050	185.99	-0.80	1.60	 	 	 	 	 	 	 	 	 	 	 	 	 	 	 	 	 	 	1581493046	6.75	12.50
12/02/2020 07:37:27	120220	12022020	073727	186.00	12.912122	-57.112023	186.06	-0.850	0.260	1.260	185.96	-1.10	1.70	 	 	 	 	 	 	 	 	 	 	 	 	 	 	 	 	 	 	1581493047	6.96	12.89
12/02/2020 07:37:28	120220	12022020	073728	185.74	12.912085	-57.112033	185.78	-0.270	-0.620	1.600	185.67	-2.00	2.10	 	 	 	 	 	 	 	 	 	 	 	 	 	 	 	 	 	 	1581493048	8.18	15.15
12/02/2020 07:37:29	120220	12022020	073729	185.44	12.912045	-57.112045	185.52	0.720	-1.040	1.640	185.41	-2.40	2.10	 	 	 	 	 	 	 	 	 	 	 	 	 	 	 	 	 	 	1581493049	8.90	16.48
12/02/2020 07:37:30	120220	12022020	073730	185.35	12.912007	-57.112050	185.48	1.310	-0.620	1.430	185.35	-2.00	1.90	 	 	 	 	 	 	 	 	 	 	 	 	 	 	 	 	 	 	1581493050	8.48	15.70
12/02/2020 07:37:31	120220	12022020	073731	185.53	12.911972	-57.112052	185.72	0.940	0.270	1.330	185.60	-1.20	1.80	 	 	 	 	 	 	 	 	 	 	 	 	 	 	 	 	 	 	1581493051	7.63	14.13
12/02/2020 07:37:32	120220	12022020	073732	185.90	12.911938	-57.112052	186.23	-0.230	1.000	1.770	186.01	-0.40	2.20	 	 	 	 	 	 	 	 	 	 	 	 	 	 	 	 	 	 	1581493052	6.96	12.89
12/02/2020 07:37:33	120220	12022020	073733	186.47	12.911908	-57.112060	186.64	-1.350	0.940	2.710	186.51	-0.40	3.20	 	 	 	 	 	 	 	 	 	 	 	 	 	 	 	 	 	 	1581493053	6.83	12.65
12/02/2020 07:37:34	120220	12022020	073734	186.43	12.911875	-57.112077	186.52	-1.470	-0.100	3.690	186.35	-1.40	4.10	 	 	 	 	 	 	 	 	 	 	 	 	 	 	 	 	 	 	1581493054	7.79	14.43
12/02/2020 07:37:35	120220	12022020	073735	185.83	12.911838	-57.112097	185.85	-0.440	-1.450	4.180	185.67	-2.80	4.60	 	 	 	 	 	 	 	 	 	 	 	 	 	 	 	 	 	 	1581493055	8.92	16.52
12/02/2020 07:37:36	120220	12022020	073736	185.06	12.911798	-57.112112	185.11	0.810	-1.900	3.930	184.95	-3.30	4.40	 	 	 	 	 	 	 	 	 	 	 	 	 	 	 	 	 	 	1581493056	9.15	16.95
12/02/2020 07:37:37	120220	12022020	073737	184.80	12.911762	-57.112117	184.96	1.210	-1.080	2.910	184.84	-2.50	3.40	 	 	 	 	 	 	 	 	 	 	 	 	 	 	 	 	 	 	1581493057	8.24	15.26
12/02/2020 07:37:38	120220	12022020	073738	185.13	12.911728	-57.112117	185.31	0.690	0.150	1.650	185.22	-1.30	2.20	 	 	 	 	 	 	 	 	 	 	 	 	 	 	 	 	 	 	1581493058	6.95	12.87
12/02/2020 07:37:39	120220	12022020	073739	185.52	12.911698	-57.112115	185.64	-0.060	0.650	0.860	185.57	-0.70	1.40	 	 	 	 	 	 	 	 	 	 	 	 	 	 	 	 	 	 	1581493059	6.46	11.96
12/02/2020 07:37:40	120220	12022020	073740	185.62	12.911665	-57.112115	185.69	-0.400	0.120	0.770	185.62	-1.20	1.30	 	 	 	 	 	 	 	 	 	 	 	 	 	 	 	 	 	 	1581493060	7.17	13.28
12/02/2020 07:37:41	120220	12022020	073741	185.57	12.911627	-57.112122	185.63	-0.290	-0.580	1.140	185.55	-2.00	1.60	 	 	 	 	 	 	 	 	 	 	 	 	 	 	 	 	 	 	1581493061	8.35	15.46
12/02/2020 07:37:42	120220	12022020	073742	185.53	12.911588	-57.112132	185.63	-0.090	-0.670	1.630	185.54	-2.10	2.10	 	 	 	 	 	 	 	 	 	 	 	 	 	 	 	 	 	 	1581493062	8.68	16.08
12/02/2020 07:37:43	120220	12022020	073743	185.61	12.911552	-57.112142	185.74	-0.110	-0.180	1.960	185.64	-1.60	2.40	 	 	 	 	 	 	 	 	 	 	 	 	 	 	 	 	 	 	1581493063	8.05	14.91
12/02/2020 07:37:44	120220	12022020	073744	185.80	12.911518	-57.112150	185.94	-0.400	0.350	2.080	185.83	-1.10	2.60	 	 	 	 	 	 	 	 	 	 	 	 	 	 	 	 	 	 	1581493064	7.35	13.61
12/02/2020 07:37:45	120220	12022020	073745	185.90	12.911487	-57.112157	186.01	-0.650	0.440	2.170	185.89	-0.90	2.60	 	 	 	 	 	 	 	 	 	 	 	 	 	 	 	 	 	 	1581493065	7.17	13.28
12/02/2020 07:37:46	120220	12022020	073746	185.79	12.911452	-57.112167	185.87	-0.470	0.090	2.130	185.74	-1.30	2.60	 	 	 	 	 	 	 	 	 	 	 	 	 	 	 	 	 	 	1581493066	7.58	14.04
12/02/2020 07:37:47	120220	12022020	073747	185.52	12.911417	-57.112175	185.58	0.170	-0.330	1.840	185.47	-1.70	2.30	 	 	 	 	 	 	 	 	 	 	 	 	 	 	 	 	 	 	1581493067	7.99	14.80
12/02/2020 07:37:48	120220	12022020	073748	185.36	12.911380	-57.112182	185.45	0.790	-0.490	1.430	185.36	-1.90	1.90	 	 	 	 	 	 	 	 	 	 	 	 	 	 	 	 	 	 	1581493068	7.98	14.78
12/02/2020 07:37:49	120220	12022020	073749	185.38	12.911343	-57.112185	185.49	0.880	-0.390	1.230	185.40	-1.80	1.70	 	 	 	 	 	 	 	 	 	 	 	 	 	 	 	 	 	 	1581493069	7.65	14.17
12/02/2020 07:37:50	120220	12022020	073750	185.43	12.911310	-57.112188	185.52	0.470	-0.280	1.290	185.43	-1.70	1.80	 	 	 	 	 	 	 	 	 	 	 	 	 	 	 	 	 	 	1581493070	7.28	13.48
12/02/2020 07:37:51	120220	12022020	073751	185.43	12.911277	-57.112195	185.52	0.010	-0.380	1.600	185.42	-1.80	2.10	 	 	 	 	 	 	 	 	 	 	 	 	 	 	 	 	 	 	1581493071	7.27	13.46
12/02/2020 07:37:52	120220	12022020	073752	185.31	12.911242	-57.112203	185.38	-0.150	-0.730	2.160	185.27	-2.10	2.60	 	 	 	 	 	 	 	 	 	 	 	 	 	 	 	 	 	 	1581493072	7.62	14.11
12/02/2020 07:37:53	120220	12022020	073753	185.08	12.911207	-57.112213	185.16	-0.070	-0.920	2.600	185.05	-2.30	3.10	 	 	 	 	 	 	 	 	 	 	 	 	 	 	 	 	 	 	1581493073	8.14	15.08
12/02/2020 07:37:54	120220	12022020	073754	185.04	12.911170	-57.112223	185.22	-0.060	-0.550	2.450	185.07	-2.00	2.90	 	 	 	 	 	 	 	 	 	 	 	 	 	 	 	 	 	 	1581493074	8.17	15.13
12/02/2020 07:37:55	120220	12022020	073755	185.35	12.911135	-57.112232	185.50	-0.200	0.090	1.930	185.41	-1.30	2.40	 	 	 	 	 	 	 	 	 	 	 	 	 	 	 	 	 	 	1581493075	7.53	13.95
12/02/2020 07:37:56	120220	12022020	073756	185.53	12.911102	-57.112235	185.63	-0.250	0.230	1.560	185.54	-1.20	2.00	 	 	 	 	 	 	 	 	 	 	 	 	 	 	 	 	 	 	1581493076	7.16	13.26
12/02/2020 07:37:57	120220	12022020	073757	185.52	12.911067	-57.112238	185.61	-0.180	-0.050	1.490	185.51	-1.40	2.00	 	 	 	 	 	 	 	 	 	 	 	 	 	 	 	 	 	 	1581493077	7.75	14.35
12/02/2020 07:37:58	120220	12022020	073758	185.42	12.911028	-57.112243	185.51	-0.160	-0.360	1.910	185.40	-1.70	2.40	 	 	 	 	 	 	 	 	 	 	 	 	 	 	 	 	 	 	1581493078	8.18	15.15
12/02/2020 07:37:59	120220	12022020	073759	185.19	12.910992	-57.112250	185.25	-0.280	-0.450	2.630	185.12	-1.80	3.10	 	 	 	 	 	 	 	 	 	 	 	 	 	 	 	 	 	 	1581493079	8.18	15.15
12/02/2020 07:38:00	120220	12022020	073800	184.76	12.910955	-57.112262	184.82	-0.400	-0.210	3.230	184.68	-1.60	3.70	 	 	 	 	 	 	 	 	 	 	 	 	 	 	 	 	 	 	1581493080	8.05	14.91
12/02/2020 07:38:01	120220	12022020	073801	184.50	12.910922	-57.112273	184.66	-0.420	0.420	3.280	184.52	-1.00	3.80	1014.80	26.10	26.20	20.30	20.40	-1.0	70.0	70.0	393.0	25.8	272.00	9.80	75.00	10.50	16	9911.0	27.3	27.3	1581493081	7.76	14.37
12/02/2020 07:38:02	120220	12022020	073802	184.82	12.910888	-57.112283	185.04	-0.250	0.970	2.630	184.93	-0.40	3.10	 	 	 	 	 	 	 	 	 	 	 	 	 	 	 	 	 	 	1581493082	7.14	13.22
12/02/2020 07:38:03	120220	12022020	073803	185.29	12.910858	-57.112288	185.44	0.250	0.460	1.720	185.34	-0.90	2.20	 	 	 	 	 	 	 	 	 	 	 	 	 	 	 	 	 	 	1581493083	6.82	12.63
12/02/2020 07:38:04	120220	12022020	073804	185.32	12.910822	-57.112292	185.36	1.030	-1.130	1.120	185.27	-2.50	1.60	 	 	 	 	 	 	 	 	 	 	 	 	 	 	 	 	 	 	1581493084	7.77	14.39
12/02/2020 07:38:05	120220	12022020	073805	184.95	12.910780	-57.112295	184.97	1.580	-2.300	1.010	184.87	-3.70	1.50	 	 	 	 	 	 	 	 	 	 	 	 	 	 	 	 	 	 	1581493085	9.08	16.82
12/02/2020 07:38:06	120220	12022020	073806	184.68	12.910738	-57.112297	184.79	1.230	-1.550	1.140	184.69	-3.00	1.60	 	 	 	 	 	 	 	 	 	 	 	 	 	 	 	 	 	 	1581493086	8.92	16.52
12/02/2020 07:38:07	120220	12022020	073807	184.98	12.910705	-57.112300	185.21	-0.050	0.580	1.350	185.10	-0.90	1.80	 	 	 	 	 	 	 	 	 	 	 	 	 	 	 	 	 	 	1581493087	7.03	13.02
12/02/2020 07:38:08	120220	12022020	073808	185.55	12.910682	-57.112305	185.92	-1.450	1.920	1.600	185.69	0.50	2.10	 	 	 	 	 	 	 	 	 	 	 	 	 	 	 	 	 	 	1581493088	5.45	10.09
12/02/2020 07:38:09	120220	12022020	073809	186.14	12.910653	-57.112315	186.28	-1.900	1.090	2.090	186.15	-0.20	2.50	 	 	 	 	 	 	 	 	 	 	 	 	 	 	 	 	 	 	1581493089	6.22	11.52
12/02/2020 07:38:10	120220	12022020	073810	185.92	12.910617	-57.112330	185.97	-1.050	-1.080	2.800	185.81	-2.40	3.20	 	 	 	 	 	 	 	 	 	 	 	 	 	 	 	 	 	 	1581493090	8.60	15.93
12/02/2020 07:38:11	120220	12022020	073811	185.35	12.910572	-57.112347	185.42	0.310	-2.340	3.200	185.25	-3.70	3.70	 	 	 	 	 	 	 	 	 	 	 	 	 	 	 	 	 	 	1581493091	10.16	18.82
12/02/2020 07:38:12	120220	12022020	073812	185.04	12.910530	-57.112357	185.18	1.000	-1.660	2.910	185.03	-3.10	3.40	 	 	 	 	 	 	 	 	 	 	 	 	 	 	 	 	 	 	1581493092	9.23	17.09
12/02/2020 07:38:13	120220	12022020	073813	185.14	12.910497	-57.112360	185.28	0.660	0.020	2.170	185.18	-1.50	2.70	 	 	 	 	 	 	 	 	 	 	 	 	 	 	 	 	 	 	1581493093	7.14	13.22
12/02/2020 07:38:14	120220	12022020	073814	185.29	12.910468	-57.112360	185.39	-0.060	1.110	1.520	185.30	-0.30	2.00	 	 	 	 	 	 	 	 	 	 	 	 	 	 	 	 	 	 	1581493094	6.03	11.17
12/02/2020 07:38:15	120220	12022020	073815	185.23	12.910438	-57.112362	185.28	-0.410	0.990	1.320	185.19	-0.40	1.80	 	 	 	 	 	 	 	 	 	 	 	 	 	 	 	 	 	 	1581493095	6.57	12.17
12/02/2020 07:38:16	120220	12022020	073816	184.98	12.910403	-57.112368	185.05	-0.260	0.290	1.520	184.93	-1.10	2.00	 	 	 	 	 	 	 	 	 	 	 	 	 	 	 	 	 	 	1581493096	7.78	14.41
12/02/2020 07:38:17	120220	12022020	073817	184.79	12.910365	-57.112377	184.91	0.030	-0.160	1.810	184.79	-1.50	2.30	 	 	 	 	 	 	 	 	 	 	 	 	 	 	 	 	 	 	1581493097	8.38	15.52
12/02/2020 07:38:18	120220	12022020	073818	184.91	12.910328	-57.112385	185.07	0.150	-0.190	1.900	184.97	-1.60	2.40	 	 	 	 	 	 	 	 	 	 	 	 	 	 	 	 	 	 	1581493098	8.02	14.85
12/02/2020 07:38:19	120220	12022020	073819	185.25	12.910295	-57.112393	185.42	0.120	-0.200	1.810	185.32	-1.60	2.30	 	 	 	 	 	 	 	 	 	 	 	 	 	 	 	 	 	 	1581493099	7.41	13.72
12/02/2020 07:38:20	120220	12022020	073820	185.46	12.910262	-57.112400	185.60	0.130	-0.560	1.830	185.49	-1.90	2.30	 	 	 	 	 	 	 	 	 	 	 	 	 	 	 	 	 	 	1581493100	7.25	13.43
12/02/2020 07:38:21	120220	12022020	073821	185.49	12.910227	-57.112407	185.57	0.190	-1.030	2.120	185.47	-2.40	2.60	 	 	 	 	 	 	 	 	 	 	 	 	 	 	 	 	 	 	1581493101	7.66	14.19
12/02/2020 07:38:22	120220	12022020	073822	185.43	12.910192	-57.112415	185.50	0.120	-1.060	2.460	185.42	-2.50	2.90	 	 	 	 	 	 	 	 	 	 	 	 	 	 	 	 	 	 	1581493102	7.90	14.63
12/02/2020 07:38:23	120220	12022020	073823	185.26	12.910157	-57.112423	185.31	-0.050	-0.560	2.770	185.20	-2.00	3.20	 	 	 	 	 	 	 	 	 	 	 	 	 	 	 	 	 	 	1581493103	7.56	14.00
12/02/2020 07:38:24	120220	12022020	073824	184.76	12.910125	-57.112432	184.76	-0.070	-0.190	3.230	184.64	-1.60	3.70	 	 	 	 	 	 	 	 	 	 	 	 	 	 	 	 	 	 	1581493104	7.09	13.13
12/02/2020 07:38:25	120220	12022020	073825	184.18	12.910092	-57.112440	184.22	0.090	-0.130	3.490	184.09	-1.50	3.90	 	 	 	 	 	 	 	 	 	 	 	 	 	 	 	 	 	 	1581493105	7.43	13.76
12/02/2020 07:38:26	120220	12022020	073826	183.91	12.910055	-57.112447	184.02	0.240	0.010	3.320	183.90	-1.40	3.80	 	 	 	 	 	 	 	 	 	 	 	 	 	 	 	 	 	 	1581493106	7.90	14.63
12/02/2020 07:38:27	120220	12022020	073827	184.09	12.910020	-57.112453	184.29	0.220	0.340	2.750	184.18	-1.10	3.30	 	 	 	 	 	 	 	 	 	 	 	 	 	 	 	 	 	 	1581493107	7.79	14.43
12/02/2020 07:38:28	120220	12022020	073828	184.69	12.909985	-57.112457	184.92	0.080	0.610	2.000	184.84	-0.80	2.50	 	 	 	 	 	 	 	 	 	 	 	 	 	 	 	 	 	 	1581493108	7.38	13.67
12/02/2020 07:38:29	120220	12022020	073829	185.36	12.909952	-57.112458	185.56	-0.110	0.440	1.480	185.47	-0.90	2.00	 	 	 	 	 	 	 	 	 	 	 	 	 	 	 	 	 	 	1581493109	7.15	13.24
12/02/2020 07:38:30	120220	12022020	073830	185.66	12.909918	-57.112462	185.75	-0.260	-0.420	1.650	185.65	-1.80	2.10	 	 	 	 	 	 	 	 	 	 	 	 	 	 	 	 	 	 	1581493110	7.34	13.59
12/02/2020 07:38:31	120220	12022020	073831	185.40	12.909882	-57.112470	185.40	-0.280	-1.540	2.440	185.29	-2.90	2.90	 	 	 	 	 	 	 	 	 	 	 	 	 	 	 	 	 	 	1581493111	8.07	14.95
12/02/2020 07:38:32	120220	12022020	073832	184.76	12.909843	-57.112483	184.77	-0.220	-1.980	3.350	184.63	-3.40	3.80	 	 	 	 	 	 	 	 	 	 	 	 	 	 	 	 	 	 	1581493112	8.71	16.13
12/02/2020 07:38:33	120220	12022020	073833	184.16	12.909807	-57.112498	184.21	-0.160	-1.140	3.870	184.07	-2.60	4.30	 	 	 	 	 	 	 	 	 	 	 	 	 	 	 	 	 	 	1581493113	8.41	15.58
12/02/2020 07:38:34	120220	12022020	073834	183.91	12.909775	-57.112508	184.05	-0.140	0.410	3.700	183.91	-1.00	4.20	 	 	 	 	 	 	 	 	 	 	 	 	 	 	 	 	 	 	1581493114	7.19	13.32
12/02/2020 07:38:35	120220	12022020	073835	184.10	12.909747	-57.112515	184.29	-0.020	1.360	2.770	184.18	-0.00	3.30	 	 	 	 	 	 	 	 	 	 	 	 	 	 	 	 	 	 	1581493115	6.30	11.67
12/02/2020 07:38:36	120220	12022020	073836	184.53	12.909715	-57.112517	184.70	0.300	0.990	1.610	184.61	-0.40	2.10	 	 	 	 	 	 	 	 	 	 	 	 	 	 	 	 	 	 	1581493116	6.75	12.50
12/02/2020 07:38:37	120220	12022020	073837	184.88	12.909678	-57.112515	185.00	0.650	-0.200	0.970	184.93	-1.50	1.50	 	 	 	 	 	 	 	 	 	 	 	 	 	 	 	 	 	 	1581493117	8.01	14.83
12/02/2020 07:38:38	120220	12022020	073838	185.00	12.909638	-57.112515	185.06	0.640	-1.090	1.170	184.98	-2.50	1.60	 	 	 	 	 	 	 	 	 	 	 	 	 	 	 	 	 	 	1581493118	8.69	16.09
12/02/2020 07:38:39	120220	12022020	073839	184.80	12.909600	-57.112518	184.84	0.110	-1.160	2.120	184.73	-2.60	2.50	 	 	 	 	 	 	 	 	 	 	 	 	 	 	 	 	 	 	1581493119	8.24	15.26
12/02/2020 07:38:40	120220	12022020	073840	184.37	12.909567	-57.112528	184.40	-0.600	-0.650	3.300	184.27	-2.10	3.70	 	 	 	 	 	 	 	 	 	 	 	 	 	 	 	 	 	 	1581493120	7.50	13.89
12/02/2020 07:38:41	120220	12022020	073841	183.88	12.909535	-57.112543	183.94	-0.920	-0.170	4.090	183.80	-1.60	4.50	 	 	 	 	 	 	 	 	 	 	 	 	 	 	 	 	 	 	1581493121	7.32	13.56
12/02/2020 07:38:42	120220	12022020	073842	183.54	12.909503	-57.112558	183.66	-0.620	-0.070	4.120	183.50	-1.40	4.60	 	 	 	 	 	 	 	 	 	 	 	 	 	 	 	 	 	 	1581493122	7.55	13.98
12/02/2020 07:38:43	120220	12022020	073843	183.49	12.909468	-57.112568	183.67	0.010	-0.180	3.400	183.53	-1.60	3.90	 	 	 	 	 	 	 	 	 	 	 	 	 	 	 	 	 	 	1581493123	7.82	14.48
12/02/2020 07:38:44	120220	12022020	073844	183.70	12.909432	-57.112573	184.00	0.450	-0.180	2.210	183.79	-1.60	2.70	 	 	 	 	 	 	 	 	 	 	 	 	 	 	 	 	 	 	1581493124	7.87	14.58
12/02/2020 07:38:45	120220	12022020	073845	184.24	12.909397	-57.112573	184.42	0.430	-0.060	1.110	184.32	-1.50	1.60	 	 	 	 	 	 	 	 	 	 	 	 	 	 	 	 	 	 	1581493125	7.65	14.17
12/02/2020 07:38:46	120220	12022020	073846	184.53	12.909362	-57.112572	184.65	0.120	-0.020	0.610	184.57	-1.40	1.10	 	 	 	 	 	 	 	 	 	 	 	 	 	 	 	 	 	 	1581493126	7.41	13.72
12/02/2020 07:38:47	120220	12022020	073847	184.68	12.909328	-57.112575	184.80	-0.120	-0.020	0.600	184.72	-1.40	1.10	 	 	 	 	 	 	 	 	 	 	 	 	 	 	 	 	 	 	1581493127	7.37	13.65
12/02/2020 07:38:48	120220	12022020	073848	184.92	12.909293	-57.112578	185.05	-0.160	0.080	0.760	184.97	-1.30	1.20	 	 	 	 	 	 	 	 	 	 	 	 	 	 	 	 	 	 	1581493128	7.40	13.70
12/02/2020 07:38:49	120220	12022020	073849	185.13	12.909260	-57.112585	185.22	-0.100	0.030	1.180	185.13	-1.40	1.60	 	 	 	 	 	 	 	 	 	 	 	 	 	 	 	 	 	 	1581493129	7.21	13.35
12/02/2020 07:38:50	120220	12022020	073850	185.01	12.909227	-57.112590	185.06	0.030	-0.500	1.860	184.94	-1.90	2.30	 	 	 	 	 	 	 	 	 	 	 	 	 	 	 	 	 	 	1581493130	7.33	13.58
12/02/2020 07:38:51	120220	12022020	073851	184.57	12.909190	-57.112598	184.59	0.170	-1.260	2.580	184.46	-2.60	3.00	 	 	 	 	 	 	 	 	 	 	 	 	 	 	 	 	 	 	1581493131	7.96	14.74
12/02/2020 07:38:52	120220	12022020	073852	184.01	12.909152	-57.112608	184.05	0.200	-1.500	3.240	183.90	-2.90	3.70	 	 	 	 	 	 	 	 	 	 	 	 	 	 	 	 	 	 	1581493132	8.47	15.69
12/02/2020 07:38:53	120220	12022020	073853	183.59	12.909115	-57.112618	183.69	-0.000	-0.750	3.510	183.56	-2.20	4.00	 	 	 	 	 	 	 	 	 	 	 	 	 	 	 	 	 	 	1581493133	8.22	15.22
12/02/2020 07:38:54	120220	12022020	073854	183.70	12.909083	-57.112627	183.91	-0.460	0.560	3.040	183.80	-0.90	3.50	 	 	 	 	 	 	 	 	 	 	 	 	 	 	 	 	 	 	1581493134	7.29	13.50
12/02/2020 07:38:55	120220	12022020	073855	184.36	12.909053	-57.112632	184.61	-0.890	1.410	2.120	184.52	0.00	2.60	 	 	 	 	 	 	 	 	 	 	 	 	 	 	 	 	 	 	1581493135	6.52	12.08
12/02/2020 07:38:56	120220	12022020	073856	185.13	12.909022	-57.112638	185.34	-0.760	1.030	1.130	185.26	-0.30	1.60	 	 	 	 	 	 	 	 	 	 	 	 	 	 	 	 	 	 	1581493136	6.68	12.37
12/02/2020 07:38:57	120220	12022020	073857	185.56	12.908987	-57.112642	185.68	0.040	-0.340	0.460	185.59	-1.60	1.00	 	 	 	 	 	 	 	 	 	 	 	 	 	 	 	 	 	 	1581493137	7.78	14.41
12/02/2020 07:38:58	120220	12022020	073858	185.58	12.908945	-57.112645	185.61	0.860	-1.450	0.440	185.55	-2.80	0.90	 	 	 	 	 	 	 	 	 	 	 	 	 	 	 	 	 	 	1581493138	8.83	16.35
12/02/2020 07:38:59	120220	12022020	073859	185.37	12.908905	-57.112647	185.42	0.950	-1.350	0.920	185.34	-2.80	1.40	 	 	 	 	 	 	 	 	 	 	 	 	 	 	 	 	 	 	1581493139	8.65	16.02
12/02/2020 07:39:00	120220	12022020	073900	185.24	12.908872	-57.112652	185.31	0.240	-0.320	1.600	185.23	-1.80	2.00	 	 	 	 	 	 	 	 	 	 	 	 	 	 	 	 	 	 	1581493140	7.46	13.82
12/02/2020 07:39:01	120220	12022020	073901	185.23	12.908842	-57.112662	185.34	-0.570	0.730	2.150	185.23	-0.70	2.60	1014.80	26.20	26.20	20.50	20.60	-1.0	71.0	71.0	393.0	25.8	278.00	10.90	82.00	11.10	16	10635.0	27.3	27.3	1581493141	6.58	12.19
12/02/2020 07:39:02	120220	12022020	073902	185.31	12.908812	-57.112672	185.46	-0.810	0.990	2.350	185.35	-0.40	2.80	 	 	 	 	 	 	 	 	 	 	 	 	 	 	 	 	 	 	1581493142	6.65	12.32
12/02/2020 07:39:03	120220	12022020	073903	185.50	12.908780	-57.112682	185.65	-0.400	0.340	2.250	185.52	-1.00	2.70	 	 	 	 	 	 	 	 	 	 	 	 	 	 	 	 	 	 	1581493143	7.34	13.59
12/02/2020 07:39:04	120220	12022020	073904	185.46	12.908743	-57.112690	185.54	0.260	-0.750	2.320	185.40	-2.10	2.80	 	 	 	 	 	 	 	 	 	 	 	 	 	 	 	 	 	 	1581493144	8.13	15.06
12/02/2020 07:39:05	120220	12022020	073905	185.10	12.908703	-57.112698	185.17	0.690	-1.420	2.500	185.03	-2.80	3.00	 	 	 	 	 	 	 	 	 	 	 	 	 	 	 	 	 	 	1581493145	8.57	15.87
12/02/2020 07:39:06	120220	12022020	073906	184.80	12.908667	-57.112705	184.89	0.640	-1.120	2.540	184.75	-2.50	3.00	 	 	 	 	 	 	 	 	 	 	 	 	 	 	 	 	 	 	1581493146	8.23	15.24
12/02/2020 07:39:07	120220	12022020	073907	184.68	12.908633	-57.112712	184.81	0.300	-0.290	2.320	184.69	-1.70	2.80	 	 	 	 	 	 	 	 	 	 	 	 	 	 	 	 	 	 	1581493147	7.27	13.46
12/02/2020 07:39:08	120220	12022020	073908	184.79	12.908602	-57.112715	184.94	0.030	0.230	1.870	184.83	-1.20	2.40	 	 	 	 	 	 	 	 	 	 	 	 	 	 	 	 	 	 	1581493148	6.75	12.50
12/02/2020 07:39:09	120220	12022020	073909	185.02	12.908568	-57.112718	185.15	-0.150	0.110	1.460	185.06	-1.30	2.00	 	 	 	 	 	 	 	 	 	 	 	 	 	 	 	 	 	 	1581493149	7.15	13.24
12/02/2020 07:39:10	120220	12022020	073910	185.16	12.908533	-57.112722	185.29	-0.340	-0.270	1.480	185.18	-1.60	2.00	 	 	 	 	 	 	 	 	 	 	 	 	 	 	 	 	 	 	1581493150	7.83	14.50
12/02/2020 07:39:11	120220	12022020	073911	185.10	12.908495	-57.112730	185.17	-0.510	-0.460	1.910	185.06	-1.80	2.40	 	 	 	 	 	 	 	 	 	 	 	 	 	 	 	 	 	 	1581493151	8.11	15.02
12/02/2020 07:39:12	120220	12022020	073912	184.92	12.908460	-57.112738	184.95	-0.510	-0.250	2.350	184.88	-1.60	2.80	 	 	 	 	 	 	 	 	 	 	 	 	 	 	 	 	 	 	1581493152	8.00	14.82
12/02/2020 07:39:13	120220	12022020	073913	184.77	12.908425	-57.112748	184.90	-0.310	0.130	2.540	184.77	-1.30	3.00	 	 	 	 	 	 	 	 	 	 	 	 	 	 	 	 	 	 	1581493153	7.60	14.08
12/02/2020 07:39:14	120220	12022020	073914	184.77	12.908392	-57.112757	184.86	0.020	0.070	2.530	184.75	-1.30	3.00	 	 	 	 	 	 	 	 	 	 	 	 	 	 	 	 	 	 	1581493154	7.37	13.65
12/02/2020 07:39:15	120220	12022020	073915	184.56	12.908357	-57.112763	184.60	0.370	-0.480	2.540	184.49	-1.80	3.00	 	 	 	 	 	 	 	 	 	 	 	 	 	 	 	 	 	 	1581493155	7.79	14.43
12/02/2020 07:39:16	120220	12022020	073916	184.31	12.908318	-57.112768	184.42	0.490	-0.690	2.420	184.30	-2.10	2.90	 	 	 	 	 	 	 	 	 	 	 	 	 	 	 	 	 	 	1581493156	8.36	15.48
12/02/2020 07:39:17	120220	12022020	073917	184.42	12.908282	-57.112773	184.60	0.220	-0.040	2.110	184.49	-1.40	2.60	 	 	 	 	 	 	 	 	 	 	 	 	 	 	 	 	 	 	1581493157	7.96	14.74
12/02/2020 07:39:18	120220	12022020	073918	184.79	12.908250	-57.112780	184.94	-0.150	0.710	1.650	184.86	-0.70	2.20	 	 	 	 	 	 	 	 	 	 	 	 	 	 	 	 	 	 	1581493158	6.79	12.58
12/02/2020 07:39:19	120220	12022020	073919	185.03	12.908220	-57.112785	185.12	-0.120	0.500	1.370	185.03	-0.80	1.90	 	 	 	 	 	 	 	 	 	 	 	 	 	 	 	 	 	 	1581493159	6.50	12.04
12/02/2020 07:39:20	120220	12022020	073920	184.98	12.908185	-57.112790	185.06	0.390	-0.530	1.380	184.98	-1.90	1.90	 	 	 	 	 	 	 	 	 	 	 	 	 	 	 	 	 	 	1581493160	7.50	13.89
12/02/2020 07:39:21	120220	12022020	073921	185.01	12.908147	-57.112795	185.14	0.790	-1.170	1.470	185.04	-2.50	2.00	 	 	 	 	 	 	 	 	 	 	 	 	 	 	 	 	 	 	1581493161	8.47	15.69
12/02/2020 07:39:22	120220	12022020	073922	185.18	12.908108	-57.112798	185.32	0.640	-0.930	1.680	185.21	-2.30	2.20	 	 	 	 	 	 	 	 	 	 	 	 	 	 	 	 	 	 	1581493162	8.15	15.09
12/02/2020 07:39:23	120220	12022020	073923	185.33	12.908075	-57.112805	185.47	0.040	-0.390	1.980	185.36	-1.80	2.50	 	 	 	 	 	 	 	 	 	 	 	 	 	 	 	 	 	 	1581493163	7.24	13.41
12/02/2020 07:39:24	120220	12022020	073924	185.44	12.908043	-57.112812	185.57	-0.530	-0.120	2.290	185.45	-1.50	2.80	 	 	 	 	 	 	 	 	 	 	 	 	 	 	 	 	 	 	1581493164	7.03	13.02
12/02/2020 07:39:25	120220	12022020	073925	185.41	12.908010	-57.112822	185.51	-0.700	-0.170	2.650	185.37	-1.50	3.10	 	 	 	 	 	 	 	 	 	 	 	 	 	 	 	 	 	 	1581493165	7.48	13.85
12/02/2020 07:39:26	120220	12022020	073926	185.18	12.907975	-57.112832	185.28	-0.500	-0.230	2.880	185.14	-1.60	3.40	 	 	 	 	 	 	 	 	 	 	 	 	 	 	 	 	 	 	1581493166	7.94	14.70
12/02/2020 07:39:27	120220	12022020	073927	185.05	12.907938	-57.112842	185.18	-0.270	-0.230	2.730	185.04	-1.60	3.20	 	 	 	 	 	 	 	 	 	 	 	 	 	 	 	 	 	 	1581493167	7.91	14.65
12/02/2020 07:39:28	120220	12022020	073928	185.01	12.907903	-57.112848	185.13	-0.160	-0.310	2.350	185.00	-1.70	2.90	 	 	 	 	 	 	 	 	 	 	 	 	 	 	 	 	 	 	1581493168	7.81	14.46
12/02/2020 07:39:29	120220	12022020	073929	184.93	12.907867	-57.112853	185.03	-0.060	-0.370	2.080	184.90	-1.70	2.60	 	 	 	 	 	 	 	 	 	 	 	 	 	 	 	 	 	 	1581493169	7.89	14.61
12/02/2020 07:39:30	120220	12022020	073930	184.79	12.907832	-57.112860	184.89	0.190	-0.290	1.820	184.77	-1.70	2.30	 	 	 	 	 	 	 	 	 	 	 	 	 	 	 	 	 	 	1581493170	7.91	14.65
12/02/2020 07:39:31	120220	12022020	073931	184.84	12.907795	-57.112863	184.97	0.440	0.040	1.350	184.88	-1.40	1.90	 	 	 	 	 	 	 	 	 	 	 	 	 	 	 	 	 	 	1581493171	7.80	14.45
12/02/2020 07:39:32	120220	12022020	073932	185.19	12.907760	-57.112867	185.36	0.430	0.460	0.830	185.28	-0.90	1.40	 	 	 	 	 	 	 	 	 	 	 	 	 	 	 	 	 	 	1581493172	7.47	13.83
12/02/2020 07:39:33	120220	12022020	073933	185.60	12.907727	-57.112867	185.75	0.170	0.420	0.650	185.66	-0.90	1.20	 	 	 	 	 	 	 	 	 	 	 	 	 	 	 	 	 	 	1581493173	7.16	13.26
12/02/2020 07:39:34	120220	12022020	073934	185.76	12.907692	-57.112872	185.85	-0.160	-0.130	1.100	185.76	-1.50	1.60	 	 	 	 	 	 	 	 	 	 	 	 	 	 	 	 	 	 	1581493174	7.47	13.83
12/02/2020 07:39:35	120220	12022020	073935	185.64	12.907657	-57.112880	185.70	-0.350	-0.690	2.040	185.59	-2.10	2.50	 	 	 	 	 	 	 	 	 	 	 	 	 	 	 	 	 	 	1581493175	7.99	14.80
12/02/2020 07:39:36	120220	12022020	073936	185.38	12.907620	-57.112892	185.47	-0.350	-0.810	2.870	185.34	-2.20	3.30	 	 	 	 	 	 	 	 	 	 	 	 	 	 	 	 	 	 	1581493176	8.21	15.20
12/02/2020 07:39:37	120220	12022020	073937	185.21	12.907585	-57.112905	185.35	-0.200	-0.460	3.130	185.19	-1.90	3.60	 	 	 	 	 	 	 	 	 	 	 	 	 	 	 	 	 	 	1581493177	7.86	14.56
12/02/2020 07:39:38	120220	12022020	073938	185.09	12.907553	-57.112915	185.19	0.090	-0.230	2.910	185.06	-1.60	3.40	 	 	 	 	 	 	 	 	 	 	 	 	 	 	 	 	 	 	1581493178	7.32	13.56
12/02/2020 07:39:39	120220	12022020	073939	184.93	12.907520	-57.112922	185.02	0.510	-0.410	2.360	184.90	-1.80	2.90	 	 	 	 	 	 	 	 	 	 	 	 	 	 	 	 	 	 	1581493179	7.39	13.69
12/02/2020 07:39:40	120220	12022020	073940	184.80	12.907483	-57.112925	184.88	0.800	-0.680	1.640	184.79	-2.10	2.20	 	 	 	 	 	 	 	 	 	 	 	 	 	 	 	 	 	 	1581493180	7.93	14.69
12/02/2020 07:39:41	120220	12022020	073941	184.74	12.907445	-57.112925	184.83	0.630	-0.660	1.260	184.74	-2.00	1.80	 	 	 	 	 	 	 	 	 	 	 	 	 	 	 	 	 	 	1581493181	8.18	15.15
12/02/2020 07:39:42	120220	12022020	073942	184.79	12.907408	-57.112925	184.90	-0.070	-0.250	1.390	184.82	-1.70	1.90	 	 	 	 	 	 	 	 	 	 	 	 	 	 	 	 	 	 	1581493182	7.90	14.63
12/02/2020 07:39:43	120220	12022020	073943	185.03	12.907373	-57.112932	185.20	-0.870	0.390	1.700	185.11	-1.00	2.20	 	 	 	 	 	 	 	 	 	 	 	 	 	 	 	 	 	 	1581493183	7.47	13.83
12/02/2020 07:39:44	120220	12022020	073944	185.47	12.907342	-57.112943	185.67	-1.150	0.860	1.780	185.57	-0.50	2.30	 	 	 	 	 	 	 	 	 	 	 	 	 	 	 	 	 	 	1581493184	7.24	13.41
12/02/2020 07:39:45	120220	12022020	073945	185.90	12.907310	-57.112955	186.05	-0.600	0.560	1.570	185.95	-0.80	2.10	 	 	 	 	 	 	 	 	 	 	 	 	 	 	 	 	 	 	1581493185	7.27	13.46
12/02/2020 07:39:46	120220	12022020	073946	186.04	12.907273	-57.112962	186.13	0.350	-0.480	1.460	186.02	-1.80	2.00	 	 	 	 	 	 	 	 	 	 	 	 	 	 	 	 	 	 	1581493186	7.86	14.56
12/02/2020 07:39:47	120220	12022020	073947	185.81	12.907233	-57.112967	185.85	0.900	-1.450	1.820	185.73	-2.80	2.30	 	 	 	 	 	 	 	 	 	 	 	 	 	 	 	 	 	 	1581493187	8.64	16.00
12/02/2020 07:39:48	120220	12022020	073948	185.44	12.907193	-57.112972	185.38	0.640	-1.530	2.490	185.34	-2.90	2.90	 	 	 	 	 	 	 	 	 	 	 	 	 	 	 	 	 	 	1581493188	8.69	16.09
12/02/2020 07:39:49	120220	12022020	073949	184.79	12.907158	-57.112980	184.85	-0.090	-0.700	3.320	184.68	-2.10	3.80	 	 	 	 	 	 	 	 	 	 	 	 	 	 	 	 	 	 	1581493189	7.96	14.74
12/02/2020 07:39:50	120220	12022020	073950	184.32	12.907127	-57.112992	184.44	-0.610	0.370	3.830	184.26	-1.00	4.30	 	 	 	 	 	 	 	 	 	 	 	 	 	 	 	 	 	 	1581493190	7.29	13.50
12/02/2020 07:39:51	120220	12022020	073951	184.22	12.907095	-57.113003	184.42	-0.580	1.010	3.510	184.26	-0.40	4.00	 	 	 	 	 	 	 	 	 	 	 	 	 	 	 	 	 	 	1581493191	7.17	13.28
12/02/2020 07:39:52	120220	12022020	073952	184.73	12.907062	-57.113012	185.00	-0.230	1.080	2.420	184.89	-0.30	3.00	 	 	 	 	 	 	 	 	 	 	 	 	 	 	 	 	 	 	1581493192	7.38	13.67
12/02/2020 07:39:53	120220	12022020	073953	185.62	12.907027	-57.113015	185.88	0.130	0.560	1.220	185.79	-0.80	1.80	 	 	 	 	 	 	 	 	 	 	 	 	 	 	 	 	 	 	1581493193	7.60	14.08
12/02/2020 07:39:54	120220	12022020	073954	186.20	12.906990	-57.113017	186.34	0.470	-0.450	0.560	186.24	-1.80	1.10	 	 	 	 	 	 	 	 	 	 	 	 	 	 	 	 	 	 	1581493194	7.84	14.52
12/02/2020 07:39:55	120220	12022020	073955	186.13	12.906952	-57.113020	186.16	0.760	-1.460	0.640	186.07	-2.80	1.10	 	 	 	 	 	 	 	 	 	 	 	 	 	 	 	 	 	 	1581493195	8.20	15.19
12/02/2020 07:39:56	120220	12022020	073956	185.70	12.906913	-57.113023	185.71	0.780	-1.770	1.350	185.59	-3.10	1.80	 	 	 	 	 	 	 	 	 	 	 	 	 	 	 	 	 	 	1581493196	8.33	15.43
12/02/2020 07:39:57	120220	12022020	073957	185.22	12.906877	-57.113030	185.26	0.430	-1.150	2.150	185.14	-2.60	2.60	 	 	 	 	 	 	 	 	 	 	 	 	 	 	 	 	 	 	1581493197	7.90	14.63
12/02/2020 07:39:58	120220	12022020	073958	184.98	12.906843	-57.113038	185.11	-0.180	-0.070	2.660	184.98	-1.50	3.10	 	 	 	 	 	 	 	 	 	 	 	 	 	 	 	 	 	 	1581493198	7.29	13.50
12/02/2020 07:39:59	120220	12022020	073959	185.19	12.906813	-57.113048	185.42	-0.790	0.820	2.630	185.30	-0.60	3.10	 	 	 	 	 	 	 	 	 	 	 	 	 	 	 	 	 	 	1581493199	6.98	12.93
12/02/2020 07:40:00	120220	12022020	074000	185.69	12.906782	-57.113057	186.08	-1.120	1.080	2.200	185.82	-0.30	2.70	 	 	 	 	 	 	 	 	 	 	 	 	 	 	 	 	 	 	1581493200	7.08	13.11
12/02/2020 07:40:01	120220	12022020	074001	186.43	12.906748	-57.113065	186.61	-0.910	0.460	1.730	186.51	-0.90	2.20	1014.80	26.10	26.20	20.20	20.30	-1.0	70.0	70.0	393.0	25.8	274.00	10.70	78.00	11.20	16	10590.0	27.3	27.3	1581493201	7.50	13.89
12/02/2020 07:40:02	120220	12022020	074002	186.58	12.906710	-57.113075	186.61	-0.130	-0.720	1.440	186.55	-2.00	1.90	 	 	 	 	 	 	 	 	 	 	 	 	 	 	 	 	 	 	1581493202	8.22	15.22
12/02/2020 07:40:03	120220	12022020	074003	186.15	12.906670	-57.113082	186.15	0.780	-1.470	1.380	186.05	-2.80	1.90	 	 	 	 	 	 	 	 	 	 	 	 	 	 	 	 	 	 	1581493203	8.79	16.28
12/02/2020 07:40:04	120220	12022020	074004	185.70	12.906632	-57.113087	185.74	1.120	-1.090	1.350	185.65	-2.50	1.90	 	 	 	 	 	 	 	 	 	 	 	 	 	 	 	 	 	 	1581493204	8.49	15.72
12/02/2020 07:40:05	120220	12022020	074005	185.60	12.906597	-57.113088	185.70	0.700	-0.060	1.280	185.62	-1.50	1.80	 	 	 	 	 	 	 	 	 	 	 	 	 	 	 	 	 	 	1581493205	7.41	13.72
12/02/2020 07:40:06	120220	12022020	074006	185.76	12.906565	-57.113090	185.89	-0.060	0.540	1.390	185.80	-0.90	1.90	 	 	 	 	 	 	 	 	 	 	 	 	 	 	 	 	 	 	1581493206	6.72	12.45
12/02/2020 07:40:07	120220	12022020	074007	185.83	12.906533	-57.113097	185.92	-0.600	0.270	1.880	185.81	-1.10	2.40	 	 	 	 	 	 	 	 	 	 	 	 	 	 	 	 	 	 	1581493207	7.13	13.20
12/02/2020 07:40:08	120220	12022020	074008	185.65	12.906497	-57.113108	185.74	-0.710	-0.330	2.550	185.62	-1.70	3.00	 	 	 	 	 	 	 	 	 	 	 	 	 	 	 	 	 	 	1581493208	8.17	15.13
12/02/2020 07:40:09	120220	12022020	074009	185.55	12.906458	-57.113122	185.69	-0.580	-0.380	2.830	185.57	-1.80	3.30	 	 	 	 	 	 	 	 	 	 	 	 	 	 	 	 	 	 	1581493209	8.64	16.00
12/02/2020 07:40:10	120220	12022020	074010	185.71	12.906423	-57.113133	185.85	-0.380	0.100	2.560	185.75	-1.30	3.10	 	 	 	 	 	 	 	 	 	 	 	 	 	 	 	 	 	 	1581493210	7.91	14.65
12/02/2020 07:40:11	120220	12022020	074011	185.91	12.906392	-57.113142	186.05	-0.100	0.300	1.960	185.95	-1.10	2.50	 	 	 	 	 	 	 	 	 	 	 	 	 	 	 	 	 	 	1581493211	7.04	13.04
12/02/2020 07:40:12	120220	12022020	074012	186.06	12.906358	-57.113147	186.17	0.330	-0.090	1.290	186.08	-1.40	1.80	 	 	 	 	 	 	 	 	 	 	 	 	 	 	 	 	 	 	1581493212	7.15	13.24
12/02/2020 07:40:13	120220	12022020	074013	186.04	12.906323	-57.113150	186.08	0.760	-0.740	0.920	185.99	-2.10	1.40	 	 	 	 	 	 	 	 	 	 	 	 	 	 	 	 	 	 	1581493213	7.74	14.33
12/02/2020 07:40:14	120220	12022020	074014	185.79	12.906285	-57.113152	185.80	0.950	-1.000	0.840	185.73	-2.40	1.40	 	 	 	 	 	 	 	 	 	 	 	 	 	 	 	 	 	 	1581493214	8.06	14.93
12/02/2020 07:40:15	120220	12022020	074015	185.49	12.906250	-57.113155	185.52	0.730	-0.750	1.060	185.44	-2.10	1.60	 	 	 	 	 	 	 	 	 	 	 	 	 	 	 	 	 	 	1581493215	7.74	14.33
12/02/2020 07:40:16	120220	12022020	074016	185.24	12.906217	-57.113160	185.30	0.260	-0.420	1.480	185.21	-1.80	2.00	 	 	 	 	 	 	 	 	 	 	 	 	 	 	 	 	 	 	1581493216	7.28	13.48
12/02/2020 07:40:17	120220	12022020	074017	185.14	12.906182	-57.113165	185.23	-0.250	-0.250	1.970	185.12	-1.60	2.40	 	 	 	 	 	 	 	 	 	 	 	 	 	 	 	 	 	 	1581493217	7.38	13.67
12/02/2020 07:40:18	120220	12022020	074018	185.03	12.906148	-57.113173	185.12	-0.700	-0.220	2.790	185.00	-1.60	3.20	 	 	 	 	 	 	 	 	 	 	 	 	 	 	 	 	 	 	1581493218	7.67	14.20
12/02/2020 07:40:19	120220	12022020	074019	184.84	12.906112	-57.113187	184.94	-0.940	-0.240	3.590	184.79	-1.60	4.00	 	 	 	 	 	 	 	 	 	 	 	 	 	 	 	 	 	 	1581493219	8.06	14.93
12/02/2020 07:40:20	120220	12022020	074020	184.67	12.906077	-57.113202	184.83	-0.880	0.000	3.780	184.67	-1.40	4.30	 	 	 	 	 	 	 	 	 	 	 	 	 	 	 	 	 	 	1581493220	8.26	15.30
12/02/2020 07:40:21	120220	12022020	074021	184.79	12.906043	-57.113215	184.98	-0.540	0.550	3.220	184.84	-0.90	3.70	 	 	 	 	 	 	 	 	 	 	 	 	 	 	 	 	 	 	1581493221	7.80	14.45
12/02/2020 07:40:22	120220	12022020	074022	185.13	12.906012	-57.113223	185.31	0.060	0.900	2.090	185.20	-0.50	2.60	 	 	 	 	 	 	 	 	 	 	 	 	 	 	 	 	 	 	1581493222	7.05	13.06
12/02/2020 07:40:23	120220	12022020	074023	185.44	12.905980	-57.113225	185.58	0.770	0.380	0.930	185.49	-1.00	1.50	 	 	 	 	 	 	 	 	 	 	 	 	 	 	 	 	 	 	1581493223	6.92	12.82
12/02/2020 07:40:24	120220	12022020	074024	185.59	12.905943	-57.113222	185.68	1.180	-0.760	0.350	185.60	-2.10	0.90	 	 	 	 	 	 	 	 	 	 	 	 	 	 	 	 	 	 	1581493224	7.78	14.41
12/02/2020 07:40:25	120220	12022020	074025	185.42	12.905905	-57.113220	185.46	0.960	-1.630	0.660	185.35	-3.00	1.10	 	 	 	 	 	 	 	 	 	 	 	 	 	 	 	 	 	 	1581493225	8.35	15.46
12/02/2020 07:40:26	120220	12022020	074026	185.18	12.905867	-57.113225	185.23	0.250	-1.550	1.290	185.14	-3.00	1.80	 	 	 	 	 	 	 	 	 	 	 	 	 	 	 	 	 	 	1581493226	8.09	14.98
12/02/2020 07:40:27	120220	12022020	074027	185.12	12.905833	-57.113233	185.25	-0.530	-0.660	1.970	185.13	-2.10	2.40	 	 	 	 	 	 	 	 	 	 	 	 	 	 	 	 	 	 	1581493227	7.37	13.65
12/02/2020 07:40:28	120220	12022020	074028	185.13	12.905805	-57.113245	185.24	-0.850	0.050	2.600	185.11	-1.40	3.10	 	 	 	 	 	 	 	 	 	 	 	 	 	 	 	 	 	 	1581493228	6.82	12.63
12/02/2020 07:40:29	120220	12022020	074029	184.95	12.905773	-57.113258	185.04	-0.540	-0.000	2.890	184.90	-1.40	3.40	 	 	 	 	 	 	 	 	 	 	 	 	 	 	 	 	 	 	1581493229	7.15	13.24
12/02/2020 07:40:30	120220	12022020	074030	184.72	12.905738	-57.113267	184.83	-0.020	-0.330	2.820	184.70	-1.70	3.30	 	 	 	 	 	 	 	 	 	 	 	 	 	 	 	 	 	 	1581493230	7.97	14.76
12/02/2020 07:40:31	120220	12022020	074031	184.77	12.905700	-57.113273	184.96	0.120	-0.170	2.680	184.84	-1.60	3.20	 	 	 	 	 	 	 	 	 	 	 	 	 	 	 	 	 	 	1581493231	8.28	15.33
12/02/2020 07:40:32	120220	12022020	074032	185.24	12.905665	-57.113280	185.46	-0.220	0.580	2.420	185.36	-0.80	2.90	 	 	 	 	 	 	 	 	 	 	 	 	 	 	 	 	 	 	1581493232	7.63	14.13
12/02/2020 07:40:33	120220	12022020	074033	185.81	12.905635	-57.113287	186.00	-0.600	1.230	2.060	185.91	-0.20	2.60	 	 	 	 	 	 	 	 	 	 	 	 	 	 	 	 	 	 	1581493233	6.70	12.41
12/02/2020 07:40:34	120220	12022020	074034	186.18	12.905605	-57.113293	186.31	-0.370	0.940	1.660	186.22	-0.40	2.20	 	 	 	 	 	 	 	 	 	 	 	 	 	 	 	 	 	 	1581493234	6.50	12.04
12/02/2020 07:40:35	120220	12022020	074035	186.31	12.905572	-57.113300	186.39	0.510	-0.180	1.140	186.31	-1.50	1.70	 	 	 	 	 	 	 	 	 	 	 	 	 	 	 	 	 	 	1581493235	7.29	13.50
12/02/2020 07:40:36	120220	12022020	074036	186.27	12.905535	-57.113303	186.29	1.350	-1.250	0.720	186.24	-2.60	1.20	 	 	 	 	 	 	 	 	 	 	 	 	 	 	 	 	 	 	1581493236	8.07	14.95
12/02/2020 07:40:37	120220	12022020	074037	186.10	12.905497	-57.113305	186.14	1.430	-1.590	0.540	186.07	-3.00	1.10	 	 	 	 	 	 	 	 	 	 	 	 	 	 	 	 	 	 	1581493237	8.06	14.93
12/02/2020 07:40:38	120220	12022020	074038	186.05	12.905463	-57.113305	186.13	0.640	-1.210	0.830	186.05	-2.60	1.30	 	 	 	 	 	 	 	 	 	 	 	 	 	 	 	 	 	 	1581493238	7.34	13.59
12/02/2020 07:40:39	120220	12022020	074039	186.06	12.905432	-57.113310	186.12	-0.480	-0.680	1.770	186.03	-2.10	2.20	 	 	 	 	 	 	 	 	 	 	 	 	 	 	 	 	 	 	1581493239	6.69	12.39
12/02/2020 07:40:40	120220	12022020	074040	185.78	12.905402	-57.113323	185.81	-1.220	-0.490	3.110	185.69	-1.90	3.50	 	 	 	 	 	 	 	 	 	 	 	 	 	 	 	 	 	 	1581493240	6.94	12.85
12/02/2020 07:40:41	120220	12022020	074041	185.26	12.905370	-57.113340	185.30	-1.240	-0.610	4.230	185.16	-2.00	4.70	 	 	 	 	 	 	 	 	 	 	 	 	 	 	 	 	 	 	1581493241	7.93	14.69
12/02/2020 07:40:42	120220	12022020	074042	184.72	12.905333	-57.113358	184.78	-0.690	-0.600	4.780	184.63	-2.00	5.30	 	 	 	 	 	 	 	 	 	 	 	 	 	 	 	 	 	 	1581493242	8.55	15.83
12/02/2020 07:40:43	120220	12022020	074043	184.50	12.905298	-57.113373	184.67	-0.010	0.020	4.470	184.54	-1.40	5.00	 	 	 	 	 	 	 	 	 	 	 	 	 	 	 	 	 	 	1581493243	8.40	15.56
12/02/2020 07:40:44	120220	12022020	074044	185.02	12.905263	-57.113382	185.30	0.340	1.060	3.110	185.20	-0.40	3.70	 	 	 	 	 	 	 	 	 	 	 	 	 	 	 	 	 	 	1581493244	7.45	13.80
12/02/2020 07:40:45	120220	12022020	074045	186.02	12.905233	-57.113380	186.29	0.290	1.650	1.470	186.22	0.20	2.00	 	 	 	 	 	 	 	 	 	 	 	 	 	 	 	 	 	 	1581493245	6.58	12.19
12/02/2020 07:40:46	120220	12022020	074046	186.80	12.905203	-57.113377	186.91	0.200	1.130	0.420	186.86	-0.20	1.00	 	 	 	 	 	 	 	 	 	 	 	 	 	 	 	 	 	 	1581493246	6.56	12.15
12/02/2020 07:40:47	120220	12022020	074047	186.80	12.905170	-57.113375	186.77	0.400	-0.350	0.340	186.71	-1.70	0.80	 	 	 	 	 	 	 	 	 	 	 	 	 	 	 	 	 	 	1581493247	7.24	13.41
12/02/2020 07:40:48	120220	12022020	074048	186.17	12.905132	-57.113378	186.09	0.660	-1.660	1.130	186.01	-3.00	1.60	 	 	 	 	 	 	 	 	 	 	 	 	 	 	 	 	 	 	1581493248	8.07	14.95
12/02/2020 07:40:49	120220	12022020	074049	185.46	12.905095	-57.113387	185.45	0.590	-1.860	2.210	185.36	-3.30	2.70	 	 	 	 	 	 	 	 	 	 	 	 	 	 	 	 	 	 	1581493249	8.02	14.85
12/02/2020 07:40:50	120220	12022020	074050	185.17	12.905063	-57.113398	185.24	0.190	-1.080	2.980	185.14	-2.50	3.40	 	 	 	 	 	 	 	 	 	 	 	 	 	 	 	 	 	 	1581493250	7.22	13.37
12/02/2020 07:40:51	120220	12022020	074051	185.11	12.905037	-57.113410	185.25	-0.180	-0.290	3.190	185.12	-1.70	3.70	 	 	 	 	 	 	 	 	 	 	 	 	 	 	 	 	 	 	1581493251	6.44	11.93
12/02/2020 07:40:52	120220	12022020	074052	185.10	12.905007	-57.113420	185.22	-0.220	-0.230	3.010	185.09	-1.60	3.50	 	 	 	 	 	 	 	 	 	 	 	 	 	 	 	 	 	 	1581493252	6.49	12.02
12/02/2020 07:40:53	120220	12022020	074053	185.04	12.904973	-57.113427	185.16	-0.140	-0.590	2.690	185.03	-2.00	3.20	 	 	 	 	 	 	 	 	 	 	 	 	 	 	 	 	 	 	1581493253	7.37	13.65
12/02/2020 07:40:54	120220	12022020	074054	185.02	12.904937	-57.113432	185.14	-0.270	-0.600	2.360	185.02	-2.00	2.90	 	 	 	 	 	 	 	 	 	 	 	 	 	 	 	 	 	 	1581493254	7.94	14.70
12/02/2020 07:40:55	120220	12022020	074055	185.08	12.904903	-57.113438	185.23	-0.520	0.010	1.990	185.12	-1.40	2.50	 	 	 	 	 	 	 	 	 	 	 	 	 	 	 	 	 	 	1581493255	7.62	14.11
12/02/2020 07:40:56	120220	12022020	074056	185.31	12.904872	-57.113445	185.48	-0.590	0.760	1.470	185.38	-0.70	2.00	 	 	 	 	 	 	 	 	 	 	 	 	 	 	 	 	 	 	1581493256	6.90	12.78
12/02/2020 07:40:57	120220	12022020	074057	185.69	12.904842	-57.113450	185.87	-0.320	1.000	0.860	185.78	-0.40	1.40	 	 	 	 	 	 	 	 	 	 	 	 	 	 	 	 	 	 	1581493257	6.57	12.17
12/02/2020 07:40:58	120220	12022020	074058	186.05	12.904808	-57.113453	186.19	0.180	0.490	0.480	186.10	-0.90	1.00	 	 	 	 	 	 	 	 	 	 	 	 	 	 	 	 	 	 	1581493258	6.94	12.85
12/02/2020 07:40:59	120220	12022020	074059	186.13	12.904773	-57.113457	186.21	0.570	-0.360	0.610	186.10	-1.70	1.10	 	 	 	 	 	 	 	 	 	 	 	 	 	 	 	 	 	 	1581493259	7.50	13.89
12/02/2020 07:41:00	120220	12022020	074100	185.88	12.904738	-57.113462	185.92	0.570	-0.890	1.220	185.80	-2.30	1.70	 	 	 	 	 	 	 	 	 	 	 	 	 	 	 	 	 	 	1581493260	7.74	14.33
12/02/2020 07:41:01	120220	12022020	074101	185.51	12.904705	-57.113468	185.54	0.210	-0.760	1.950	185.43	-2.20	2.40	1014.80	26.10	26.20	20.10	20.20	-1.0	69.0	69.0	395.0	25.8	269.00	10.60	75.00	11.30	16	10341.0	27.3	27.3	1581493261	7.38	13.67
12/02/2020 07:41:02	120220	12022020	074102	185.18	12.904675	-57.113478	185.26	-0.180	-0.390	2.530	185.13	-1.80	3.00	 	 	 	 	 	 	 	 	 	 	 	 	 	 	 	 	 	 	1581493262	6.78	12.56
12/02/2020 07:41:03	120220	12022020	074103	185.01	12.904645	-57.113488	185.12	-0.270	-0.230	2.860	184.99	-1.60	3.30	 	 	 	 	 	 	 	 	 	 	 	 	 	 	 	 	 	 	1581493263	6.71	12.43
12/02/2020 07:41:04	120220	12022020	074104	184.92	12.904613	-57.113500	185.01	0.050	-0.350	2.710	184.89	-1.70	3.20	 	 	 	 	 	 	 	 	 	 	 	 	 	 	 	 	 	 	1581493264	7.03	13.02
12/02/2020 07:41:05	120220	12022020	074105	184.75	12.904582	-57.113507	184.84	0.480	-0.440	2.200	184.73	-1.90	2.70	 	 	 	 	 	 	 	 	 	 	 	 	 	 	 	 	 	 	1581493265	7.27	13.46
12/02/2020 07:41:06	120220	12022020	074106	184.71	12.904548	-57.113510	184.83	0.580	-0.270	1.650	184.74	-1.70	2.20	 	 	 	 	 	 	 	 	 	 	 	 	 	 	 	 	 	 	1581493266	7.24	13.41
12/02/2020 07:41:07	120220	12022020	074107	184.95	12.904515	-57.113512	185.11	0.190	-0.010	1.230	185.02	-1.40	1.80	 	 	 	 	 	 	 	 	 	 	 	 	 	 	 	 	 	 	1581493267	6.91	12.80
12/02/2020 07:41:08	120220	12022020	074108	185.24	12.904485	-57.113513	185.37	-0.350	-0.060	1.140	185.26	-1.50	1.60	 	 	 	 	 	 	 	 	 	 	 	 	 	 	 	 	 	 	1581493268	6.66	12.33
12/02/2020 07:41:09	120220	12022020	074109	185.15	12.904453	-57.113520	185.21	-0.580	-0.610	1.590	185.08	-2.00	2.10	 	 	 	 	 	 	 	 	 	 	 	 	 	 	 	 	 	 	1581493269	6.98	12.93
12/02/2020 07:41:10	120220	12022020	074110	184.79	12.904418	-57.113530	184.87	-0.440	-1.060	2.190	184.73	-2.50	2.70	 	 	 	 	 	 	 	 	 	 	 	 	 	 	 	 	 	 	1581493270	7.79	14.43
12/02/2020 07:41:11	120220	12022020	074111	184.70	12.904382	-57.113540	184.87	-0.260	-0.640	2.370	184.74	-2.10	2.90	 	 	 	 	 	 	 	 	 	 	 	 	 	 	 	 	 	 	1581493271	7.96	14.74
12/02/2020 07:41:12	120220	12022020	074112	184.96	12.904352	-57.113548	185.12	-0.300	0.290	2.210	185.01	-1.20	2.70	 	 	 	 	 	 	 	 	 	 	 	 	 	 	 	 	 	 	1581493272	6.97	12.91
12/02/2020 07:41:13	120220	12022020	074113	185.10	12.904323	-57.113555	185.19	-0.350	0.800	2.040	185.09	-0.60	2.60	 	 	 	 	 	 	 	 	 	 	 	 	 	 	 	 	 	 	1581493273	6.20	11.48
12/02/2020 07:41:14	120220	12022020	074114	184.87	12.904293	-57.113562	184.90	-0.060	0.420	1.940	184.80	-1.00	2.50	 	 	 	 	 	 	 	 	 	 	 	 	 	 	 	 	 	 	1581493274	6.55	12.13
12/02/2020 07:41:15	120220	12022020	074115	184.56	12.904258	-57.113567	184.62	0.400	-0.140	1.840	184.51	-1.50	2.40	 	 	 	 	 	 	 	 	 	 	 	 	 	 	 	 	 	 	1581493275	7.44	13.78
12/02/2020 07:41:16	120220	12022020	074116	184.47	12.904223	-57.113570	184.59	0.650	-0.270	1.720	184.48	-1.70	2.20	 	 	 	 	 	 	 	 	 	 	 	 	 	 	 	 	 	 	1581493276	7.54	13.96
12/02/2020 07:41:17	120220	12022020	074117	184.60	12.904192	-57.113573	184.75	0.510	-0.170	1.630	184.64	-1.60	2.10	 	 	 	 	 	 	 	 	 	 	 	 	 	 	 	 	 	 	1581493277	6.90	12.78
12/02/2020 07:41:18	120220	12022020	074118	184.80	12.904162	-57.113577	184.96	0.220	-0.280	1.560	184.84	-1.70	2.10	 	 	 	 	 	 	 	 	 	 	 	 	 	 	 	 	 	 	1581493278	6.53	12.09
12/02/2020 07:41:19	120220	12022020	074119	185.03	12.904132	-57.113583	185.19	0.030	-0.570	1.610	185.07	-2.00	2.10	 	 	 	 	 	 	 	 	 	 	 	 	 	 	 	 	 	 	1581493279	6.73	12.46
12/02/2020 07:41:20	120220	12022020	074120	185.18	12.904100	-57.113590	185.30	-0.010	-0.790	1.860	185.19	-2.20	2.30	 	 	 	 	 	 	 	 	 	 	 	 	 	 	 	 	 	 	1581493280	7.01	12.98
12/02/2020 07:41:21	120220	12022020	074121	185.06	12.904068	-57.113598	185.12	0.000	-0.840	2.230	184.99	-2.30	2.70	 	 	 	 	 	 	 	 	 	 	 	 	 	 	 	 	 	 	1581493281	7.02	13.00
12/02/2020 07:41:22	120220	12022020	074122	184.67	12.904037	-57.113607	184.71	-0.050	-0.730	2.640	184.58	-2.10	3.10	 	 	 	 	 	 	 	 	 	 	 	 	 	 	 	 	 	 	1581493282	7.00	12.96
12/02/2020 07:41:23	120220	12022020	074123	184.26	12.904005	-57.113615	184.33	-0.270	-0.480	3.010	184.20	-1.90	3.50	 	 	 	 	 	 	 	 	 	 	 	 	 	 	 	 	 	 	1581493283	7.04	13.04
12/02/2020 07:41:24	120220	12022020	074124	183.97	12.903972	-57.113622	184.06	-0.580	-0.260	3.290	183.93	-1.70	3.80	 	 	 	 	 	 	 	 	 	 	 	 	 	 	 	 	 	 	1581493284	7.09	13.13
12/02/2020 07:41:25	120220	12022020	074125	183.83	12.903940	-57.113632	183.95	-0.710	-0.050	3.200	183.84	-1.50	3.70	 	 	 	 	 	 	 	 	 	 	 	 	 	 	 	 	 	 	1581493285	7.26	13.45
12/02/2020 07:41:26	120220	12022020	074126	184.03	12.903907	-57.113640	184.22	-0.480	0.410	2.470	184.13	-1.00	3.00	 	 	 	 	 	 	 	 	 	 	 	 	 	 	 	 	 	 	1581493286	7.30	13.52
12/02/2020 07:41:27	120220	12022020	074127	184.60	12.903877	-57.113645	184.82	0.030	1.040	1.310	184.74	-0.40	1.90	 	 	 	 	 	 	 	 	 	 	 	 	 	 	 	 	 	 	1581493287	6.75	12.50
12/02/2020 07:41:28	120220	12022020	074128	185.23	12.903847	-57.113645	185.39	0.580	0.980	0.190	185.33	-0.40	0.70	 	 	 	 	 	 	 	 	 	 	 	 	 	 	 	 	 	 	1581493288	6.21	11.50
12/02/2020 07:41:29	120220	12022020	074129	185.47	12.903817	-57.113643	185.51	0.900	-0.170	-0.210	185.43	-1.50	0.30	 	 	 	 	 	 	 	 	 	 	 	 	 	 	 	 	 	 	1581493289	6.72	12.45
12/02/2020 07:41:30	120220	12022020	074130	185.02	12.903780	-57.113642	184.98	0.750	-1.610	0.600	184.88	-2.90	1.00	 	 	 	 	 	 	 	 	 	 	 	 	 	 	 	 	 	 	1581493290	7.64	14.15
12/02/2020 07:41:31	120220	12022020	074131	184.15	12.903743	-57.113648	184.12	0.190	-2.160	2.190	183.99	-3.60	2.60	 	 	 	 	 	 	 	 	 	 	 	 	 	 	 	 	 	 	1581493291	7.99	14.80
12/02/2020 07:41:32	120220	12022020	074132	183.46	12.903710	-57.113662	183.55	-0.500	-1.350	3.560	183.38	-2.80	4.00	 	 	 	 	 	 	 	 	 	 	 	 	 	 	 	 	 	 	1581493292	7.70	14.26
12/02/2020 07:41:33	120220	12022020	074133	183.32	12.903683	-57.113678	183.50	-0.940	0.090	4.140	183.35	-1.40	4.60	 	 	 	 	 	 	 	 	 	 	 	 	 	 	 	 	 	 	1581493293	6.79	12.58
12/02/2020 07:41:34	120220	12022020	074134	183.54	12.903658	-57.113692	183.75	-0.850	0.930	3.880	183.60	-0.50	4.40	 	 	 	 	 	 	 	 	 	 	 	 	 	 	 	 	 	 	1581493294	6.13	11.35
12/02/2020 07:41:35	120220	12022020	074135	183.86	12.903630	-57.113700	184.05	-0.280	0.780	2.890	183.92	-0.60	3.40	 	 	 	 	 	 	 	 	 	 	 	 	 	 	 	 	 	 	1581493295	6.36	11.78
12/02/2020 07:41:36	120220	12022020	074136	184.07	12.903597	-57.113702	184.19	0.340	0.060	1.790	184.08	-1.30	2.30	 	 	 	 	 	 	 	 	 	 	 	 	 	 	 	 	 	 	1581493296	7.19	13.32
12/02/2020 07:41:37	120220	12022020	074137	184.02	12.903560	-57.113702	184.09	0.670	-0.660	1.170	183.98	-2.00	1.70	 	 	 	 	 	 	 	 	 	 	 	 	 	 	 	 	 	 	1581493297	7.68	14.22
12/02/2020 07:41:38	120220	12022020	074138	183.84	12.903525	-57.113702	183.92	0.560	-0.760	1.030	183.82	-2.20	1.50	 	 	 	 	 	 	 	 	 	 	 	 	 	 	 	 	 	 	1581493298	7.57	14.02
12/02/2020 07:41:39	120220	12022020	074139	183.86	12.903493	-57.113705	184.03	0.160	-0.130	1.050	183.91	-1.60	1.60	 	 	 	 	 	 	 	 	 	 	 	 	 	 	 	 	 	 	1581493299	6.82	12.63
12/02/2020 07:41:40	120220	12022020	074140	184.16	12.903467	-57.113710	184.47	-0.230	0.680	0.950	184.25	-0.80	1.50	 	 	 	 	 	 	 	 	 	 	 	 	 	 	 	 	 	 	1581493300	5.99	11.09
12/02/2020 07:41:41	120220	12022020	074141	184.74	12.903440	-57.113715	184.91	-0.320	0.670	0.870	184.81	-0.70	1.40	 	 	 	 	 	 	 	 	 	 	 	 	 	 	 	 	 	 	1581493301	5.60	10.37
12/02/2020 07:41:42	120220	12022020	074142	184.86	12.903412	-57.113720	184.88	-0.080	-0.630	1.250	184.82	-2.00	1.70	 	 	 	 	 	 	 	 	 	 	 	 	 	 	 	 	 	 	1581493302	6.31	11.69
12/02/2020 07:41:43	120220	12022020	074143	184.21	12.903377	-57.113727	184.19	0.250	-2.310	2.400	184.03	-3.60	2.80	 	 	 	 	 	 	 	 	 	 	 	 	 	 	 	 	 	 	1581493303	7.80	14.45
12/02/2020 07:41:44	120220	12022020	074144	183.25	12.903337	-57.113737	183.28	0.230	-2.750	3.890	183.09	-4.20	4.30	 	 	 	 	 	 	 	 	 	 	 	 	 	 	 	 	 	 	1581493304	8.69	16.09
12/02/2020 07:41:45	120220	12022020	074145	182.60	12.903302	-57.113750	182.73	-0.190	-1.230	4.760	182.54	-2.70	5.20	 	 	 	 	 	 	 	 	 	 	 	 	 	 	 	 	 	 	1581493305	8.04	14.89
12/02/2020 07:41:46	120220	12022020	074146	182.59	12.903275	-57.113762	182.85	-0.670	1.190	4.540	182.68	-0.30	5.00	 	 	 	 	 	 	 	 	 	 	 	 	 	 	 	 	 	 	1581493306	6.29	11.65
12/02/2020 07:41:47	120220	12022020	074147	183.16	12.903253	-57.113770	183.45	-0.760	2.570	3.440	183.30	1.10	4.00	 	 	 	 	 	 	 	 	 	 	 	 	 	 	 	 	 	 	1581493307	5.03	9.32
12/02/2020 07:41:48	120220	12022020	074148	183.80	12.903227	-57.113772	184.02	-0.260	1.930	2.090	183.90	0.60	2.60	 	 	 	 	 	 	 	 	 	 	 	 	 	 	 	 	 	 	1581493308	5.62	10.41
12/02/2020 07:41:49	120220	12022020	074149	184.19	12.903193	-57.113772	184.34	0.510	0.230	0.960	184.24	-1.10	1.50	 	 	 	 	 	 	 	 	 	 	 	 	 	 	 	 	 	 	1581493309	7.41	13.72
12/02/2020 07:41:50	120220	12022020	074150	184.34	12.903155	-57.113770	184.46	0.950	-0.990	0.320	184.35	-2.40	0.90	 	 	 	 	 	 	 	 	 	 	 	 	 	 	 	 	 	 	1581493310	8.21	15.20
12/02/2020 07:41:51	120220	12022020	074151	184.32	12.903120	-57.113770	184.40	0.770	-1.230	0.190	184.30	-2.70	0.70	 	 	 	 	 	 	 	 	 	 	 	 	 	 	 	 	 	 	1581493311	7.42	13.74
12/02/2020 07:41:52	120220	12022020	074152	184.20	12.903092	-57.113772	184.28	0.190	-1.090	0.580	184.18	-2.50	1.10	 	 	 	 	 	 	 	 	 	 	 	 	 	 	 	 	 	 	1581493312	6.25	11.58
12/02/2020 07:41:53	120220	12022020	074153	184.06	12.903063	-57.113777	184.15	-0.320	-1.050	1.350	184.02	-2.50	1.80	 	 	 	 	 	 	 	 	 	 	 	 	 	 	 	 	 	 	1581493313	6.03	11.17
12/02/2020 07:41:54	120220	12022020	074154	183.80	12.903035	-57.113788	183.88	-0.420	-1.060	2.260	183.73	-2.50	2.70	 	 	 	 	 	 	 	 	 	 	 	 	 	 	 	 	 	 	1581493314	6.64	12.30
12/02/2020 07:41:55	120220	12022020	074155	183.37	12.903003	-57.113800	183.43	-0.150	-0.870	3.070	183.28	-2.30	3.50	 	 	 	 	 	 	 	 	 	 	 	 	 	 	 	 	 	 	1581493315	7.09	13.13
12/02/2020 07:41:56	120220	12022020	074156	182.86	12.902973	-57.113812	182.94	0.140	-0.480	3.560	182.78	-1.90	4.00	 	 	 	 	 	 	 	 	 	 	 	 	 	 	 	 	 	 	1581493316	7.10	13.15
12/02/2020 07:41:57	120220	12022020	074157	182.59	12.902942	-57.113818	182.73	0.120	0.140	3.310	182.59	-1.30	3.80	 	 	 	 	 	 	 	 	 	 	 	 	 	 	 	 	 	 	1581493317	6.97	12.91
12/02/2020 07:41:58	120220	12022020	074158	182.89	12.902910	-57.113822	183.13	-0.240	0.940	2.490	183.02	-0.50	3.00	 	 	 	 	 	 	 	 	 	 	 	 	 	 	 	 	 	 	1581493318	6.64	12.30
12/02/2020 07:41:59	120220	12022020	074159	183.75	12.902882	-57.113823	184.04	-0.610	1.530	1.440	183.96	0.10	2.00	 	 	 	 	 	 	 	 	 	 	 	 	 	 	 	 	 	 	1581493319	6.16	11.41
12/02/2020 07:42:00	120220	12022020	074200	184.71	12.902853	-57.113825	184.92	-0.580	1.210	0.570	184.86	-0.20	1.10	 	 	 	 	 	 	 	 	 	 	 	 	 	 	 	 	 	 	1581493320	5.94	11.00
12/02/2020 07:42:01	120220	12022020	074201	185.16	12.902823	-57.113828	185.24	0.030	-0.180	0.280	185.16	-1.50	0.80	1014.80	26.10	26.20	20.10	20.20	-1.0	69.0	69.0	397.0	25.8	266.00	11.30	73.00	12.10	16	9624.0	27.3	27.3	1581493321	6.54	12.11
12/02/2020 07:42:02	120220	12022020	074202	184.89	12.902788	-57.113832	184.87	0.780	-1.730	0.740	184.76	-3.10	1.20	 	 	 	 	 	 	 	 	 	 	 	 	 	 	 	 	 	 	1581493322	7.55	13.98
12/02/2020 07:42:03	120220	12022020	074203	184.15	12.902753	-57.113838	184.10	1.070	-2.330	1.660	183.98	-3.70	2.10	 	 	 	 	 	 	 	 	 	 	 	 	 	 	 	 	 	 	1581493323	7.84	14.52
12/02/2020 07:42:04	120220	12022020	074204	183.54	12.902720	-57.113845	183.41	0.640	-1.590	2.550	183.41	-3.00	3.00	 	 	 	 	 	 	 	 	 	 	 	 	 	 	 	 	 	 	1581493324	7.18	13.30
12/02/2020 07:42:05	120220	12022020	074205	183.05	12.902692	-57.113852	183.16	-0.230	-0.090	3.000	183.03	-1.60	3.50	 	 	 	 	 	 	 	 	 	 	 	 	 	 	 	 	 	 	1581493325	6.18	11.45
12/02/2020 07:42:06	120220	12022020	074206	183.22	12.902667	-57.113860	183.46	-0.980	1.160	2.870	183.32	-0.30	3.40	 	 	 	 	 	 	 	 	 	 	 	 	 	 	 	 	 	 	1581493326	5.61	10.39
12/02/2020 07:42:07	120220	12022020	074207	183.91	12.902642	-57.113868	184.19	-1.160	1.550	2.240	184.07	0.10	2.80	 	 	 	 	 	 	 	 	 	 	 	 	 	 	 	 	 	 	1581493327	5.77	10.69
12/02/2020 07:42:08	120220	12022020	074208	184.61	12.902613	-57.113875	184.79	-0.610	0.860	1.510	184.68	-0.50	2.00	 	 	 	 	 	 	 	 	 	 	 	 	 	 	 	 	 	 	1581493328	6.35	11.76
12/02/2020 07:42:09	120220	12022020	074209	184.76	12.902580	-57.113880	184.86	0.370	-0.460	1.100	184.75	-1.80	1.60	 	 	 	 	 	 	 	 	 	 	 	 	 	 	 	 	 	 	1581493329	7.23	13.39
12/02/2020 07:42:10	120220	12022020	074210	184.63	12.902543	-57.113883	184.72	1.020	-1.270	1.050	184.60	-2.70	1.60	 	 	 	 	 	 	 	 	 	 	 	 	 	 	 	 	 	 	1581493330	7.86	14.56
12/02/2020 07:42:11	120220	12022020	074211	184.54	12.902510	-57.113887	184.66	0.930	-0.980	1.310	184.53	-2.40	1.80	 	 	 	 	 	 	 	 	 	 	 	 	 	 	 	 	 	 	1581493331	7.26	13.45
12/02/2020 07:42:12	120220	12022020	074212	184.53	12.902482	-57.113890	184.69	0.310	-0.140	1.570	184.55	-1.60	2.10	 	 	 	 	 	 	 	 	 	 	 	 	 	 	 	 	 	 	1581493332	6.09	11.28
12/02/2020 07:42:13	120220	12022020	074213	184.66	12.902457	-57.113895	184.83	-0.310	0.340	1.600	184.70	-1.10	2.10	 	 	 	 	 	 	 	 	 	 	 	 	 	 	 	 	 	 	1581493333	5.52	10.22
12/02/2020 07:42:14	120220	12022020	074214	184.76	12.902430	-57.113900	184.89	-0.520	-0.090	1.700	184.74	-1.50	2.20	 	 	 	 	 	 	 	 	 	 	 	 	 	 	 	 	 	 	1581493334	5.95	11.02
12/02/2020 07:42:15	120220	12022020	074215	184.53	12.902398	-57.113908	184.61	-0.260	-0.980	2.110	184.45	-2.40	2.60	 	 	 	 	 	 	 	 	 	 	 	 	 	 	 	 	 	 	1581493335	7.01	12.98
12/02/2020 07:42:16	120220	12022020	074216	184.02	12.902363	-57.113917	184.07	0.110	-1.350	2.530	183.90	-2.80	3.00	 	 	 	 	 	 	 	 	 	 	 	 	 	 	 	 	 	 	1581493336	7.69	14.24
12/02/2020 07:42:17	120220	12022020	074217	183.51	12.902330	-57.113925	183.62	0.210	-0.690	2.650	183.45	-2.10	3.10	 	 	 	 	 	 	 	 	 	 	 	 	 	 	 	 	 	 	1581493337	7.36	13.63
12/02/2020 07:42:18	120220	12022020	074218	183.48	12.902300	-57.113932	183.78	-0.080	0.560	2.340	183.54	-0.90	2.90	 	 	 	 	 	 	 	 	 	 	 	 	 	 	 	 	 	 	1581493338	6.36	11.78
12/02/2020 07:42:19	120220	12022020	074219	184.17	12.902275	-57.113935	184.48	-0.420	1.370	1.690	184.34	-0.10	2.20	 	 	 	 	 	 	 	 	 	 	 	 	 	 	 	 	 	 	1581493339	5.59	10.35
12/02/2020 07:42:20	120220	12022020	074220	184.99	12.902248	-57.113938	185.25	-0.410	1.090	1.030	185.13	-0.30	1.60	 	 	 	 	 	 	 	 	 	 	 	 	 	 	 	 	 	 	1581493340	5.77	10.69
12/02/2020 07:42:21	120220	12022020	074221	185.49	12.902218	-57.113942	185.64	-0.030	-0.080	0.790	185.52	-1.40	1.30	 	 	 	 	 	 	 	 	 	 	 	 	 	 	 	 	 	 	1581493341	6.63	12.28
12/02/2020 07:42:22	120220	12022020	074222	185.35	12.902183	-57.113947	185.37	0.410	-1.250	1.200	185.24	-2.60	1.70	 	 	 	 	 	 	 	 	 	 	 	 	 	 	 	 	 	 	1581493342	7.41	13.72
12/02/2020 07:42:23	120220	12022020	074223	184.70	12.902150	-57.113955	184.70	0.630	-1.530	1.930	184.57	-2.90	2.40	 	 	 	 	 	 	 	 	 	 	 	 	 	 	 	 	 	 	1581493343	7.47	13.83
12/02/2020 07:42:24	120220	12022020	074224	184.14	12.902120	-57.113962	184.19	0.530	-0.920	2.340	184.06	-2.40	2.80	 	 	 	 	 	 	 	 	 	 	 	 	 	 	 	 	 	 	1581493344	6.74	12.48
12/02/2020 07:42:25	120220	12022020	074225	183.90	12.902092	-57.113968	184.01	0.240	-0.210	2.320	183.88	-1.60	2.80	 	 	 	 	 	 	 	 	 	 	 	 	 	 	 	 	 	 	1581493345	5.91	10.95
12/02/2020 07:42:26	120220	12022020	074226	183.85	12.902065	-57.113972	183.96	-0.070	0.050	2.200	183.84	-1.40	2.70	 	 	 	 	 	 	 	 	 	 	 	 	 	 	 	 	 	 	1581493346	5.94	11.00
12/02/2020 07:42:27	120220	12022020	074227	183.76	12.902035	-57.113977	183.86	-0.310	0.030	2.250	183.74	-1.40	2.70	 	 	 	 	 	 	 	 	 	 	 	 	 	 	 	 	 	 	1581493347	6.52	12.08
12/02/2020 07:42:28	120220	12022020	074228	183.74	12.902005	-57.113985	183.88	-0.450	0.120	2.180	183.77	-1.30	2.70	 	 	 	 	 	 	 	 	 	 	 	 	 	 	 	 	 	 	1581493348	6.87	12.72
12/02/2020 07:42:29	120220	12022020	074229	183.98	12.901973	-57.113992	184.15	-0.390	0.320	1.830	184.05	-1.10	2.30	 	 	 	 	 	 	 	 	 	 	 	 	 	 	 	 	 	 	1581493349	6.67	12.35
12/02/2020 07:42:30	120220	12022020	074230	184.24	12.901945	-57.113998	184.44	-0.050	0.130	1.430	184.29	-1.30	1.90	 	 	 	 	 	 	 	 	 	 	 	 	 	 	 	 	 	 	1581493350	6.35	11.76
12/02/2020 07:42:31	120220	12022020	074231	184.47	12.901915	-57.114002	184.61	0.400	-0.460	1.020	184.51	-1.90	1.50	 	 	 	 	 	 	 	 	 	 	 	 	 	 	 	 	 	 	1581493351	6.66	12.33
12/02/2020 07:42:32	120220	12022020	074232	184.69	12.901882	-57.114003	184.96	0.460	-0.650	0.730	184.77	-2.10	1.20	 	 	 	 	 	 	 	 	 	 	 	 	 	 	 	 	 	 	1581493352	7.14	13.22
12/02/2020 07:42:33	120220	12022020	074233	185.16	12.901852	-57.114007	185.34	0.050	-0.240	1.030	185.21	-1.70	1.50	 	 	 	 	 	 	 	 	 	 	 	 	 	 	 	 	 	 	1581493353	6.57	12.17
12/02/2020 07:42:34	120220	12022020	074234	185.23	12.901825	-57.114013	185.30	-0.390	0.010	1.810	185.18	-1.40	2.20	 	 	 	 	 	 	 	 	 	 	 	 	 	 	 	 	 	 	1581493354	5.79	10.72
12/02/2020 07:42:35	120220	12022020	074235	184.69	12.901798	-57.114022	184.67	-0.460	-0.400	2.880	184.51	-1.80	3.30	 	 	 	 	 	 	 	 	 	 	 	 	 	 	 	 	 	 	1581493355	6.03	11.17
12/02/2020 07:42:36	120220	12022020	074236	183.72	12.901767	-57.114033	183.69	-0.170	-1.080	4.000	183.52	-2.50	4.40	 	 	 	 	 	 	 	 	 	 	 	 	 	 	 	 	 	 	1581493356	7.05	13.06
12/02/2020 07:42:37	120220	12022020	074237	182.84	12.901733	-57.114047	182.92	0.240	-1.200	4.580	182.73	-2.60	5.00	 	 	 	 	 	 	 	 	 	 	 	 	 	 	 	 	 	 	1581493357	7.75	14.35
12/02/2020 07:42:38	120220	12022020	074238	182.70	12.901702	-57.114058	182.95	0.530	-0.200	4.020	182.80	-1.70	4.50	 	 	 	 	 	 	 	 	 	 	 	 	 	 	 	 	 	 	1581493358	7.35	13.61
12/02/2020 07:42:39	120220	12022020	074239	183.54	12.901675	-57.114063	183.89	0.610	1.130	2.280	183.78	-0.30	2.80	 	 	 	 	 	 	 	 	 	 	 	 	 	 	 	 	 	 	1581493359	5.88	10.89
12/02/2020 07:42:40	120220	12022020	074240	184.70	12.901650	-57.114058	184.99	0.520	1.350	0.510	184.90	-0.10	1.10	 	 	 	 	 	 	 	 	 	 	 	 	 	 	 	 	 	 	1581493360	5.21	9.65
12/02/2020 07:42:41	120220	12022020	074241	185.43	12.901623	-57.114052	185.58	0.200	0.190	-0.020	185.49	-1.20	0.50	 	 	 	 	 	 	 	 	 	 	 	 	 	 	 	 	 	 	1581493361	6.13	11.35
12/02/2020 07:42:42	120220	12022020	074242	185.41	12.901590	-57.114052	185.40	-0.390	-1.230	0.640	185.30	-2.60	1.10	 	 	 	 	 	 	 	 	 	 	 	 	 	 	 	 	 	 	1581493362	7.04	13.04
12/02/2020 07:42:43	120220	12022020	074243	184.56	12.901557	-57.114063	184.44	-0.900	-2.000	2.150	184.31	-3.40	2.60	 	 	 	 	 	 	 	 	 	 	 	 	 	 	 	 	 	 	1581493363	7.41	13.72
12/02/2020 07:42:44	120220	12022020	074244	183.31	12.901527	-57.114082	183.23	-0.990	-1.860	3.830	183.08	-3.30	4.20	 	 	 	 	 	 	 	 	 	 	 	 	 	 	 	 	 	 	1581493364	7.58	14.04
12/02/2020 07:42:45	120220	12022020	074245	182.42	12.901498	-57.114102	182.50	-0.620	-0.790	4.620	182.34	-2.20	5.10	 	 	 	 	 	 	 	 	 	 	 	 	 	 	 	 	 	 	1581493365	7.43	13.76
12/02/2020 07:42:46	120220	12022020	074246	182.25	12.901473	-57.114117	182.45	-0.020	0.470	4.130	182.29	-1.00	4.70	 	 	 	 	 	 	 	 	 	 	 	 	 	 	 	 	 	 	1581493366	6.37	11.80
12/02/2020 07:42:47	120220	12022020	074247	182.67	12.901448	-57.114123	182.91	0.550	1.160	2.550	182.80	-0.30	3.10	 	 	 	 	 	 	 	 	 	 	 	 	 	 	 	 	 	 	1581493367	5.61	10.39
12/02/2020 07:42:48	120220	12022020	074248	183.35	12.901420	-57.114120	183.57	0.940	0.980	0.650	183.48	-0.40	1.20	 	 	 	 	 	 	 	 	 	 	 	 	 	 	 	 	 	 	1581493368	5.89	10.91
12/02/2020 07:42:49	120220	12022020	074249	183.90	12.901390	-57.114113	184.04	1.040	0.250	-0.610	183.97	-1.10	-0.10	 	 	 	 	 	 	 	 	 	 	 	 	 	 	 	 	 	 	1581493369	6.67	12.35
12/02/2020 07:42:50	120220	12022020	074250	184.14	12.901358	-57.114108	184.24	0.690	-0.430	-0.770	184.17	-1.80	-0.30	 	 	 	 	 	 	 	 	 	 	 	 	 	 	 	 	 	 	1581493370	6.87	12.72
12/02/2020 07:42:51	120220	12022020	074251	184.18	12.901328	-57.114108	184.26	-0.070	-0.810	-0.000	184.16	-2.20	0.40	 	 	 	 	 	 	 	 	 	 	 	 	 	 	 	 	 	 	1581493371	6.40	11.85
12/02/2020 07:42:52	120220	12022020	074252	183.99	12.901302	-57.114117	184.04	-0.820	-1.150	1.480	183.91	-2.50	1.90	 	 	 	 	 	 	 	 	 	 	 	 	 	 	 	 	 	 	1581493372	6.15	11.39
12/02/2020 07:42:53	120220	12022020	074253	183.48	12.901273	-57.114133	183.52	-1.030	-1.550	3.230	183.34	-2.90	3.60	 	 	 	 	 	 	 	 	 	 	 	 	 	 	 	 	 	 	1581493373	6.83	12.65
12/02/2020 07:42:54	120220	12022020	074254	182.78	12.901245	-57.114153	182.85	-0.670	-1.570	4.450	182.65	-3.00	4.90	 	 	 	 	 	 	 	 	 	 	 	 	 	 	 	 	 	 	1581493374	7.56	14.00
12/02/2020 07:42:55	120220	12022020	074255	182.30	12.901215	-57.114168	182.45	-0.190	-0.780	4.720	182.26	-2.20	5.20	 	 	 	 	 	 	 	 	 	 	 	 	 	 	 	 	 	 	1581493375	7.30	13.52
12/02/2020 07:42:56	120220	12022020	074256	182.27	12.901187	-57.114178	182.53	-0.050	0.520	4.050	182.31	-0.90	4.60	 	 	 	 	 	 	 	 	 	 	 	 	 	 	 	 	 	 	1581493376	6.25	11.58
12/02/2020 07:42:57	120220	12022020	074257	182.73	12.901162	-57.114182	182.96	-0.200	1.520	2.790	182.84	0.10	3.30	 	 	 	 	 	 	 	 	 	 	 	 	 	 	 	 	 	 	1581493377	5.38	9.96
12/02/2020 07:42:58	120220	12022020	074258	183.26	12.901137	-57.114182	183.46	-0.270	1.570	1.510	183.35	0.20	2.10	 	 	 	 	 	 	 	 	 	 	 	 	 	 	 	 	 	 	1581493378	5.36	9.93
12/02/2020 07:42:59	120220	12022020	074259	183.69	12.901108	-57.114180	183.85	0.010	0.740	0.530	183.75	-0.60	1.10	 	 	 	 	 	 	 	 	 	 	 	 	 	 	 	 	 	 	1581493379	6.04	11.19
12/02/2020 07:43:00	120220	12022020	074300	183.92	12.901078	-57.114180	184.03	0.510	-0.410	0.080	183.95	-1.80	0.60	 	 	 	 	 	 	 	 	 	 	 	 	 	 	 	 	 	 	1581493380	6.67	12.35
12/02/2020 07:43:01	120220	12022020	074301	183.99	12.901047	-57.114180	184.08	0.890	-1.270	0.130	183.98	-2.70	0.60	1014.80	26.20	26.30	20.60	20.60	-1.0	71.0	71.0	401.0	25.8	266.00	10.40	73.00	11.20	16	10029.0	27.3	27.3	1581493381	6.80	12.59
12/02/2020 07:43:02	120220	12022020	074302	183.87	12.901017	-57.114185	183.94	0.950	-1.560	0.570	183.82	-3.00	1.00	 	 	 	 	 	 	 	 	 	 	 	 	 	 	 	 	 	 	1581493382	6.48	12.00
12/02/2020 07:43:03	120220	12022020	074303	183.48	12.900988	-57.114190	183.53	0.650	-1.320	1.420	183.37	-2.70	1.90	 	 	 	 	 	 	 	 	 	 	 	 	 	 	 	 	 	 	1581493383	6.04	11.19
12/02/2020 07:43:04	120220	12022020	074304	182.87	12.900963	-57.114197	182.93	0.060	-0.780	2.550	182.75	-2.20	3.00	 	 	 	 	 	 	 	 	 	 	 	 	 	 	 	 	 	 	1581493384	5.84	10.82
12/02/2020 07:43:05	120220	12022020	074305	182.46	12.900937	-57.114207	182.62	-0.710	-0.100	3.500	182.45	-1.50	3.90	 	 	 	 	 	 	 	 	 	 	 	 	 	 	 	 	 	 	1581493385	6.01	11.13
12/02/2020 07:43:06	120220	12022020	074306	182.60	12.900910	-57.114218	182.87	-1.320	0.560	3.880	182.69	-0.90	4.30	 	 	 	 	 	 	 	 	 	 	 	 	 	 	 	 	 	 	1581493386	6.24	11.56
12/02/2020 07:43:07	120220	12022020	074307	183.14	12.900885	-57.114232	183.43	-1.350	0.880	3.510	183.25	-0.50	4.00	 	 	 	 	 	 	 	 	 	 	 	 	 	 	 	 	 	 	1581493387	6.19	11.46
12/02/2020 07:43:08	120220	12022020	074308	183.53	12.900858	-57.114242	183.81	-0.710	0.430	2.720	183.59	-0.90	3.20	 	 	 	 	 	 	 	 	 	 	 	 	 	 	 	 	 	 	1581493388	6.05	11.20
12/02/2020 07:43:09	120220	12022020	074309	183.71	12.900828	-57.114245	183.86	0.250	-0.510	1.830	183.71	-1.90	2.40	 	 	 	 	 	 	 	 	 	 	 	 	 	 	 	 	 	 	1581493389	6.59	12.20
12/02/2020 07:43:10	120220	12022020	074310	183.74	12.900795	-57.114247	183.92	0.870	-0.910	0.990	183.76	-2.30	1.50	 	 	 	 	 	 	 	 	 	 	 	 	 	 	 	 	 	 	1581493390	7.15	13.24
12/02/2020 07:43:11	120220	12022020	074311	183.90	12.900763	-57.114245	184.03	0.810	-0.370	0.590	183.91	-1.80	1.10	 	 	 	 	 	 	 	 	 	 	 	 	 	 	 	 	 	 	1581493391	6.55	12.13
12/02/2020 07:43:12	120220	12022020	074312	183.87	12.900738	-57.114245	183.95	0.370	0.410	0.650	183.84	-1.00	1.10	 	 	 	 	 	 	 	 	 	 	 	 	 	 	 	 	 	 	1581493392	5.35	9.91
12/02/2020 07:43:13	120220	12022020	074313	183.67	12.900717	-57.114248	183.72	0.040	0.590	0.860	183.61	-0.80	1.30	 	 	 	 	 	 	 	 	 	 	 	 	 	 	 	 	 	 	1581493393	4.97	9.20
12/02/2020 07:43:14	120220	12022020	074314	183.33	12.900690	-57.114253	183.37	0.060	-0.080	1.360	183.25	-1.40	1.80	 	 	 	 	 	 	 	 	 	 	 	 	 	 	 	 	 	 	1581493394	5.60	10.37
12/02/2020 07:43:15	120220	12022020	074315	182.91	12.900660	-57.114260	182.98	0.240	-1.050	2.160	182.84	-2.40	2.60	 	 	 	 	 	 	 	 	 	 	 	 	 	 	 	 	 	 	1581493395	6.58	12.19
12/02/2020 07:43:16	120220	12022020	074316	182.61	12.900628	-57.114270	182.74	0.220	-1.480	2.950	182.58	-2.90	3.40	 	 	 	 	 	 	 	 	 	 	 	 	 	 	 	 	 	 	1581493396	7.15	13.24
12/02/2020 07:43:17	120220	12022020	074317	182.61	12.900598	-57.114280	182.81	-0.100	-0.990	3.400	182.65	-2.40	3.80	 	 	 	 	 	 	 	 	 	 	 	 	 	 	 	 	 	 	1581493397	6.81	12.61
12/02/2020 07:43:18	120220	12022020	074318	182.96	12.900573	-57.114290	183.22	-0.490	0.110	3.230	183.07	-1.30	3.70	 	 	 	 	 	 	 	 	 	 	 	 	 	 	 	 	 	 	1581493398	5.97	11.06
12/02/2020 07:43:19	120220	12022020	074319	183.56	12.900550	-57.114298	183.82	-0.680	1.080	2.520	183.68	-0.30	3.00	 	 	 	 	 	 	 	 	 	 	 	 	 	 	 	 	 	 	1581493399	5.13	9.50
12/02/2020 07:43:20	120220	12022020	074320	183.96	12.900527	-57.114302	184.16	-0.570	1.020	1.820	184.00	-0.30	2.30	 	 	 	 	 	 	 	 	 	 	 	 	 	 	 	 	 	 	1581493400	4.96	9.19
12/02/2020 07:43:21	120220	12022020	074321	183.91	12.900500	-57.114303	183.97	-0.200	-0.180	1.710	183.83	-1.50	2.20	 	 	 	 	 	 	 	 	 	 	 	 	 	 	 	 	 	 	1581493401	5.86	10.85
12/02/2020 07:43:22	120220	12022020	074322	183.37	12.900468	-57.114308	183.39	0.180	-1.460	2.080	183.25	-2.80	2.50	 	 	 	 	 	 	 	 	 	 	 	 	 	 	 	 	 	 	1581493402	7.09	13.13
12/02/2020 07:43:23	120220	12022020	074323	182.76	12.900433	-57.114315	182.81	0.430	-1.690	2.410	182.67	-3.10	2.90	 	 	 	 	 	 	 	 	 	 	 	 	 	 	 	 	 	 	1581493403	7.39	13.69
12/02/2020 07:43:24	120220	12022020	074324	182.36	12.900405	-57.114322	182.46	0.590	-0.780	2.280	182.31	-2.20	2.80	 	 	 	 	 	 	 	 	 	 	 	 	 	 	 	 	 	 	1581493404	6.47	11.98
12/02/2020 07:43:25	120220	12022020	074325	182.26	12.900380	-57.114327	182.42	0.680	0.530	1.630	182.29	-0.90	2.20	 	 	 	 	 	 	 	 	 	 	 	 	 	 	 	 	 	 	1581493405	5.28	9.78
12/02/2020 07:43:26	120220	12022020	074326	182.56	12.900358	-57.114325	182.76	0.480	1.420	0.850	182.65	0.00	1.40	 	 	 	 	 	 	 	 	 	 	 	 	 	 	 	 	 	 	1581493406	4.85	8.98
12/02/2020 07:43:27	120220	12022020	074327	183.00	12.900335	-57.114322	183.16	0.000	1.190	0.480	183.06	-0.20	1.00	 	 	 	 	 	 	 	 	 	 	 	 	 	 	 	 	 	 	1581493407	5.07	9.39
12/02/2020 07:43:28	120220	12022020	074328	183.07	12.900307	-57.114323	183.13	-0.420	-0.240	1.050	183.01	-1.60	1.50	 	 	 	 	 	 	 	 	 	 	 	 	 	 	 	 	 	 	1581493408	5.85	10.83
12/02/2020 07:43:29	120220	12022020	074329	182.57	12.900275	-57.114333	182.58	-0.540	-1.800	2.410	182.42	-3.10	2.80	 	 	 	 	 	 	 	 	 	 	 	 	 	 	 	 	 	 	1581493409	7.20	13.33
12/02/2020 07:43:30	120220	12022020	074330	181.84	12.900242	-57.114350	181.88	-0.440	-2.220	3.740	181.70	-3.60	4.20	 	 	 	 	 	 	 	 	 	 	 	 	 	 	 	 	 	 	1581493410	7.89	14.61
12/02/2020 07:43:31	120220	12022020	074331	181.28	12.900213	-57.114365	181.37	-0.310	-1.350	4.300	181.20	-2.80	4.80	 	 	 	 	 	 	 	 	 	 	 	 	 	 	 	 	 	 	1581493411	7.06	13.08
12/02/2020 07:43:32	120220	12022020	074332	181.06	12.900190	-57.114377	181.20	-0.140	-0.090	3.770	181.06	-1.50	4.30	 	 	 	 	 	 	 	 	 	 	 	 	 	 	 	 	 	 	1581493412	5.69	10.54
12/02/2020 07:43:33	120220	12022020	074333	181.17	12.900167	-57.114382	181.33	0.190	0.690	2.370	181.23	-0.70	2.90	 	 	 	 	 	 	 	 	 	 	 	 	 	 	 	 	 	 	1581493413	5.02	9.30
12/02/2020 07:43:34	120220	12022020	074334	181.54	12.900142	-57.114380	181.72	0.570	0.850	0.730	181.64	-0.50	1.30	 	 	 	 	 	 	 	 	 	 	 	 	 	 	 	 	 	 	1581493414	5.50	10.19
12/02/2020 07:43:35	120220	12022020	074335	182.12	12.900113	-57.114372	182.30	0.620	0.580	-0.410	182.23	-0.80	0.10	 	 	 	 	 	 	 	 	 	 	 	 	 	 	 	 	 	 	1581493415	6.24	11.56
12/02/2020 07:43:36	120220	12022020	074336	182.60	12.900085	-57.114365	182.72	0.180	0.030	-0.550	182.64	-1.30	-0.10	 	 	 	 	 	 	 	 	 	 	 	 	 	 	 	 	 	 	1581493416	6.35	11.76
12/02/2020 07:43:37	120220	12022020	074337	182.48	12.900057	-57.114365	182.49	-0.370	-0.720	0.450	182.36	-2.10	0.90	 	 	 	 	 	 	 	 	 	 	 	 	 	 	 	 	 	 	1581493417	6.10	11.30
12/02/2020 07:43:38	120220	12022020	074338	181.63	12.900028	-57.114375	181.57	-0.460	-1.380	2.270	181.39	-2.70	2.60	 	 	 	 	 	 	 	 	 	 	 	 	 	 	 	 	 	 	1581493418	6.54	12.11
12/02/2020 07:43:39	120220	12022020	074339	180.53	12.899998	-57.114390	180.55	-0.050	-1.330	3.900	180.37	-2.70	4.30	 	 	 	 	 	 	 	 	 	 	 	 	 	 	 	 	 	 	1581493419	7.14	13.22
12/02/2020 07:43:40	120220	12022020	074340	180.08	12.899970	-57.114405	180.29	0.260	-0.340	4.390	180.11	-1.80	4.90	 	 	 	 	 	 	 	 	 	 	 	 	 	 	 	 	 	 	1581493420	6.73	12.46
12/02/2020 07:43:41	120220	12022020	074341	180.53	12.899947	-57.114413	180.86	0.060	0.770	3.860	180.70	-0.70	4.40	 	 	 	 	 	 	 	 	 	 	 	 	 	 	 	 	 	 	1581493421	5.38	9.96
12/02/2020 07:43:42	120220	12022020	074342	181.42	12.899925	-57.114417	181.72	-0.410	1.070	2.810	181.59	-0.30	3.30	 	 	 	 	 	 	 	 	 	 	 	 	 	 	 	 	 	 	1581493422	4.74	8.78
12/02/2020 07:43:43	120220	12022020	074343	182.06	12.899902	-57.114420	182.26	-0.530	0.400	1.720	182.13	-1.00	2.30	 	 	 	 	 	 	 	 	 	 	 	 	 	 	 	 	 	 	1581493423	5.21	9.65
12/02/2020 07:43:44	120220	12022020	074344	182.26	12.899873	-57.114423	182.37	-0.030	-0.610	0.870	182.25	-2.00	1.40	 	 	 	 	 	 	 	 	 	 	 	 	 	 	 	 	 	 	1581493424	6.10	11.30
12/02/2020 07:43:45	120220	12022020	074345	182.12	12.899843	-57.114425	182.20	0.760	-1.230	0.390	182.08	-2.60	0.90	 	 	 	 	 	 	 	 	 	 	 	 	 	 	 	 	 	 	1581493425	6.49	12.02
12/02/2020 07:43:46	120220	12022020	074346	182.04	12.899813	-57.114423	182.17	1.130	-1.050	0.030	182.07	-2.50	0.50	 	 	 	 	 	 	 	 	 	 	 	 	 	 	 	 	 	 	1581493426	6.27	11.61
12/02/2020 07:43:47	120220	12022020	074347	182.24	12.899787	-57.114422	182.39	0.710	-0.420	0.080	182.28	-1.90	0.60	 	 	 	 	 	 	 	 	 	 	 	 	 	 	 	 	 	 	1581493427	5.58	10.33
12/02/2020 07:43:48	120220	12022020	074348	182.39	12.899763	-57.114422	182.54	-0.190	0.020	0.840	182.40	-1.40	1.30	 	 	 	 	 	 	 	 	 	 	 	 	 	 	 	 	 	 	1581493428	5.08	9.41
12/02/2020 07:43:49	120220	12022020	074349	182.37	12.899738	-57.114428	182.53	-1.000	-0.030	2.040	182.35	-1.40	2.50	 	 	 	 	 	 	 	 	 	 	 	 	 	 	 	 	 	 	1581493429	5.47	10.13
12/02/2020 07:43:50	120220	12022020	074350	182.21	12.899712	-57.114442	182.37	-1.270	-0.380	3.240	182.17	-1.80	3.70	 	 	 	 	 	 	 	 	 	 	 	 	 	 	 	 	 	 	1581493430	6.43	11.91
12/02/2020 07:43:51	120220	12022020	074351	181.94	12.899683	-57.114457	182.07	-0.920	-0.590	4.010	181.87	-2.00	4.50	 	 	 	 	 	 	 	 	 	 	 	 	 	 	 	 	 	 	1581493431	7.08	13.11
12/02/2020 07:43:52	120220	12022020	074352	181.62	12.899655	-57.114472	181.74	-0.200	-0.360	3.990	181.56	-1.80	4.50	 	 	 	 	 	 	 	 	 	 	 	 	 	 	 	 	 	 	1581493432	6.81	12.61
12/02/2020 07:43:53	120220	12022020	074353	181.39	12.899628	-57.114478	181.53	0.430	0.140	3.200	181.37	-1.30	3.70	 	 	 	 	 	 	 	 	 	 	 	 	 	 	 	 	 	 	1581493433	5.99	11.09
12/02/2020 07:43:54	120220	12022020	074354	181.47	12.899602	-57.114478	181.65	0.660	0.570	1.920	181.54	-0.80	2.50	 	 	 	 	 	 	 	 	 	 	 	 	 	 	 	 	 	 	1581493434	5.53	10.24
12/02/2020 07:43:55	120220	12022020	074355	181.92	12.899577	-57.114475	182.13	0.530	0.660	0.730	182.03	-0.70	1.30	 	 	 	 	 	 	 	 	 	 	 	 	 	 	 	 	 	 	1581493435	5.51	10.20
12/02/2020 07:43:56	120220	12022020	074356	182.28	12.899552	-57.114470	182.39	0.360	0.240	0.290	182.29	-1.10	0.80	 	 	 	 	 	 	 	 	 	 	 	 	 	 	 	 	 	 	1581493436	5.57	10.32
12/02/2020 07:43:57	120220	12022020	074357	182.13	12.899523	-57.114472	182.20	0.320	-0.460	0.610	182.07	-1.80	1.10	 	 	 	 	 	 	 	 	 	 	 	 	 	 	 	 	 	 	1581493437	5.83	10.80
12/02/2020 07:43:58	120220	12022020	074358	181.93	12.899495	-57.114475	182.05	0.150	-0.740	1.180	181.90	-2.10	1.60	 	 	 	 	 	 	 	 	 	 	 	 	 	 	 	 	 	 	1581493438	6.17	11.43
12/02/2020 07:43:59	120220	12022020	074359	181.92	12.899470	-57.114483	182.12	-0.190	-0.510	1.780	181.95	-1.90	2.20	 	 	 	 	 	 	 	 	 	 	 	 	 	 	 	 	 	 	1581493439	5.88	10.89
12/02/2020 07:44:00	120220	12022020	074400	182.05	12.899447	-57.114493	182.23	-0.390	-0.310	2.200	182.06	-1.70	2.70	 	 	 	 	 	 	 	 	 	 	 	 	 	 	 	 	 	 	1581493440	5.51	10.20
12/02/2020 07:44:01	120220	12022020	074401	182.02	12.899422	-57.114503	182.16	-0.130	-0.690	2.340	182.00	-2.00	2.80	1014.90	26.20	26.20	20.90	20.90	-1.0	72.0	72.0	402.0	25.8	271.00	10.10	76.00	10.50	16	10149.0	27.3	27.3	1581493441	5.47	10.13
12/02/2020 07:44:02	120220	12022020	074402	181.82	12.899395	-57.114510	181.93	0.390	-1.360	2.190	181.78	-2.70	2.70	 	 	 	 	 	 	 	 	 	 	 	 	 	 	 	 	 	 	1581493442	6.09	11.28
12/02/2020 07:44:03	120220	12022020	074403	181.62	12.899363	-57.114512	181.72	0.670	-1.430	2.000	181.58	-2.80	2.50	 	 	 	 	 	 	 	 	 	 	 	 	 	 	 	 	 	 	1581493443	6.64	12.30
12/02/2020 07:44:04	120220	12022020	074404	181.47	12.899335	-57.114513	181.58	0.400	-0.600	1.960	181.45	-2.10	2.50	 	 	 	 	 	 	 	 	 	 	 	 	 	 	 	 	 	 	1581493444	6.27	11.61
12/02/2020 07:44:05	120220	12022020	074405	181.39	12.899310	-57.114517	181.49	-0.260	0.630	2.100	181.37	-0.80	2.60	 	 	 	 	 	 	 	 	 	 	 	 	 	 	 	 	 	 	1581493445	5.40	10.00
12/02/2020 07:44:06	120220	12022020	074406	181.34	12.899287	-57.114518	181.46	-0.890	1.420	2.320	181.35	-0.00	2.80	 	 	 	 	 	 	 	 	 	 	 	 	 	 	 	 	 	 	1581493446	4.98	9.22
12/02/2020 07:44:07	120220	12022020	074407	181.48	12.899262	-57.114525	181.67	-1.210	1.390	2.410	181.54	-0.00	2.90	 	 	 	 	 	 	 	 	 	 	 	 	 	 	 	 	 	 	1581493447	5.38	9.96
12/02/2020 07:44:08	120220	12022020	074408	181.81	12.899235	-57.114532	182.02	-1.110	0.740	2.440	181.87	-0.60	2.90	 	 	 	 	 	 	 	 	 	 	 	 	 	 	 	 	 	 	1581493448	6.07	11.24
12/02/2020 07:44:09	120220	12022020	074409	182.12	12.899207	-57.114543	182.30	-0.520	-0.080	2.260	182.16	-1.50	2.80	 	 	 	 	 	 	 	 	 	 	 	 	 	 	 	 	 	 	1581493449	6.48	12.00
12/02/2020 07:44:10	120220	12022020	074410	182.28	12.899178	-57.114553	182.44	0.490	-0.700	1.580	182.30	-2.10	2.10	 	 	 	 	 	 	 	 	 	 	 	 	 	 	 	 	 	 	1581493450	6.33	11.72
12/02/2020 07:44:11	120220	12022020	074411	182.34	12.899152	-57.114557	182.42	1.510	-0.990	0.620	182.32	-2.40	1.10	 	 	 	 	 	 	 	 	 	 	 	 	 	 	 	 	 	 	1581493451	5.78	10.70
12/02/2020 07:44:12	120220	12022020	074412	182.21	12.899127	-57.114552	182.20	1.870	-1.070	0.040	182.15	-2.50	0.50	 	 	 	 	 	 	 	 	 	 	 	 	 	 	 	 	 	 	1581493452	5.58	10.33
12/02/2020 07:44:13	120220	12022020	074413	181.78	12.899102	-57.114547	181.79	1.250	-1.070	0.320	181.68	-2.50	0.80	 	 	 	 	 	 	 	 	 	 	 	 	 	 	 	 	 	 	1581493453	5.60	10.37
12/02/2020 07:44:14	120220	12022020	074414	181.25	12.899075	-57.114547	181.30	0.060	-0.820	1.330	181.16	-2.30	1.80	 	 	 	 	 	 	 	 	 	 	 	 	 	 	 	 	 	 	1581493454	5.56	10.30
12/02/2020 07:44:15	120220	12022020	074415	180.87	12.899050	-57.114555	180.99	-0.980	-0.240	2.500	180.84	-1.70	2.90	 	 	 	 	 	 	 	 	 	 	 	 	 	 	 	 	 	 	1581493455	5.81	10.76
12/02/2020 07:44:16	120220	12022020	074416	180.91	12.899025	-57.114568	181.13	-1.440	0.420	3.230	180.98	-1.00	3.70	 	 	 	 	 	 	 	 	 	 	 	 	 	 	 	 	 	 	1581493456	6.03	11.17
12/02/2020 07:44:17	120220	12022020	074417	181.38	12.899000	-57.114583	181.63	-1.280	0.710	3.180	181.50	-0.70	3.70	 	 	 	 	 	 	 	 	 	 	 	 	 	 	 	 	 	 	1581493457	5.99	11.09
12/02/2020 07:44:18	120220	12022020	074418	181.89	12.898975	-57.114593	182.07	-0.650	0.370	2.540	181.96	-1.00	3.00	 	 	 	 	 	 	 	 	 	 	 	 	 	 	 	 	 	 	1581493458	5.95	11.02
12/02/2020 07:44:19	120220	12022020	074419	182.17	12.898947	-57.114598	182.30	0.170	-0.260	1.630	182.20	-1.70	2.10	 	 	 	 	 	 	 	 	 	 	 	 	 	 	 	 	 	 	1581493459	6.17	11.43
12/02/2020 07:44:20	120220	12022020	074420	182.19	12.898917	-57.114598	182.25	0.710	-0.580	0.950	182.16	-2.00	1.40	 	 	 	 	 	 	 	 	 	 	 	 	 	 	 	 	 	 	1581493460	6.30	11.67
12/02/2020 07:44:21	120220	12022020	074421	181.97	12.898890	-57.114595	182.00	0.680	-0.450	0.680	181.91	-1.90	1.20	 	 	 	 	 	 	 	 	 	 	 	 	 	 	 	 	 	 	1581493461	5.98	11.07
12/02/2020 07:44:22	120220	12022020	074422	181.63	12.898865	-57.114595	181.67	0.280	-0.130	0.860	181.57	-1.60	1.30	 	 	 	 	 	 	 	 	 	 	 	 	 	 	 	 	 	 	1581493462	5.41	10.02
12/02/2020 07:44:23	120220	12022020	074423	181.39	12.898840	-57.114598	181.49	-0.060	0.160	1.220	181.37	-1.30	1.70	 	 	 	 	 	 	 	 	 	 	 	 	 	 	 	 	 	 	1581493463	5.26	9.74
12/02/2020 07:44:24	120220	12022020	074424	181.37	12.898817	-57.114605	181.50	-0.070	0.300	1.390	181.38	-1.10	1.90	 	 	 	 	 	 	 	 	 	 	 	 	 	 	 	 	 	 	1581493464	5.41	10.02
12/02/2020 07:44:25	120220	12022020	074425	181.37	12.898792	-57.114612	181.49	0.150	-0.050	1.570	181.35	-1.40	2.00	 	 	 	 	 	 	 	 	 	 	 	 	 	 	 	 	 	 	1581493465	5.47	10.13
12/02/2020 07:44:26	120220	12022020	074426	181.24	12.898763	-57.114617	181.34	0.330	-0.730	1.950	181.20	-2.10	2.40	 	 	 	 	 	 	 	 	 	 	 	 	 	 	 	 	 	 	1581493466	5.93	10.98
12/02/2020 07:44:27	120220	12022020	074427	181.08	12.898735	-57.114622	181.20	0.240	-1.060	2.420	181.06	-2.50	2.90	 	 	 	 	 	 	 	 	 	 	 	 	 	 	 	 	 	 	1581493467	6.33	11.72
12/02/2020 07:44:28	120220	12022020	074428	181.07	12.898708	-57.114628	181.22	-0.120	-0.570	2.660	181.09	-2.00	3.10	 	 	 	 	 	 	 	 	 	 	 	 	 	 	 	 	 	 	1581493468	6.08	11.26
12/02/2020 07:44:29	120220	12022020	074429	181.20	12.898685	-57.114635	181.35	-0.490	0.120	2.530	181.23	-1.30	3.00	 	 	 	 	 	 	 	 	 	 	 	 	 	 	 	 	 	 	1581493469	5.24	9.70
12/02/2020 07:44:30	120220	12022020	074430	181.28	12.898662	-57.114642	181.40	-0.540	0.240	2.260	181.30	-1.20	2.70	 	 	 	 	 	 	 	 	 	 	 	 	 	 	 	 	 	 	1581493470	4.97	9.20
12/02/2020 07:44:31	120220	12022020	074431	181.37	12.898637	-57.114645	181.49	-0.230	-0.070	1.810	181.39	-1.50	2.30	 	 	 	 	 	 	 	 	 	 	 	 	 	 	 	 	 	 	1581493471	5.56	10.30
12/02/2020 07:44:32	120220	12022020	074432	181.44	12.898608	-57.114648	181.52	0.200	-0.340	1.380	181.43	-1.80	1.90	 	 	 	 	 	 	 	 	 	 	 	 	 	 	 	 	 	 	1581493472	5.96	11.04
12/02/2020 07:44:33	120220	12022020	074433	181.25	12.898582	-57.114648	181.28	0.530	-0.510	1.240	181.17	-1.90	1.70	 	 	 	 	 	 	 	 	 	 	 	 	 	 	 	 	 	 	1581493473	5.90	10.93
12/02/2020 07:44:34	120220	12022020	074434	180.80	12.898553	-57.114650	180.83	0.600	-0.520	1.330	180.72	-1.90	1.80	 	 	 	 	 	 	 	 	 	 	 	 	 	 	 	 	 	 	1581493474	5.89	10.91
12/02/2020 07:44:35	120220	12022020	074435	180.53	12.898527	-57.114650	180.64	0.290	-0.100	1.490	180.53	-1.50	2.00	 	 	 	 	 	 	 	 	 	 	 	 	 	 	 	 	 	 	1581493475	5.85	10.83
12/02/2020 07:44:36	120220	12022020	074436	180.69	12.898502	-57.114653	180.87	-0.210	0.560	1.640	180.76	-0.90	2.10	 	 	 	 	 	 	 	 	 	 	 	 	 	 	 	 	 	 	1581493476	5.36	9.93
12/02/2020 07:44:37	120220	12022020	074437	181.01	12.898480	-57.114658	181.17	-0.470	0.700	1.740	181.05	-0.70	2.20	 	 	 	 	 	 	 	 	 	 	 	 	 	 	 	 	 	 	1581493477	4.97	9.20
12/02/2020 07:44:38	120220	12022020	074438	181.11	12.898455	-57.114665	181.23	-0.230	-0.050	1.850	181.10	-1.40	2.30	 	 	 	 	 	 	 	 	 	 	 	 	 	 	 	 	 	 	1581493478	5.41	10.02
12/02/2020 07:44:39	120220	12022020	074439	181.12	12.898427	-57.114670	181.27	0.170	-0.770	1.910	181.14	-2.20	2.40	 	 	 	 	 	 	 	 	 	 	 	 	 	 	 	 	 	 	1581493479	6.32	11.70
12/02/2020 07:44:40	120220	12022020	074440	181.29	12.898397	-57.114675	181.46	0.230	-0.720	1.890	181.34	-2.20	2.40	 	 	 	 	 	 	 	 	 	 	 	 	 	 	 	 	 	 	1581493480	6.23	11.54
12/02/2020 07:44:41	120220	12022020	074441	181.45	12.898373	-57.114680	181.56	0.010	-0.430	1.770	181.45	-1.90	2.30	 	 	 	 	 	 	 	 	 	 	 	 	 	 	 	 	 	 	1581493481	5.33	9.87
12/02/2020 07:44:42	120220	12022020	074442	181.29	12.898350	-57.114683	181.34	-0.080	-0.550	1.780	181.23	-1.90	2.30	 	 	 	 	 	 	 	 	 	 	 	 	 	 	 	 	 	 	1581493482	5.11	9.46
12/02/2020 07:44:43	120220	12022020	074443	180.96	12.898323	-57.114688	181.04	0.080	-0.750	1.870	180.91	-2.10	2.30	 	 	 	 	 	 	 	 	 	 	 	 	 	 	 	 	 	 	1581493483	5.78	10.70
12/02/2020 07:44:44	120220	12022020	074444	180.88	12.898295	-57.114693	181.03	0.220	-0.470	1.710	180.91	-1.90	2.20	 	 	 	 	 	 	 	 	 	 	 	 	 	 	 	 	 	 	1581493484	6.08	11.26
12/02/2020 07:44:45	120220	12022020	074445	181.14	12.898268	-57.114695	181.30	0.080	0.180	1.350	181.20	-1.20	1.90	 	 	 	 	 	 	 	 	 	 	 	 	 	 	 	 	 	 	1581493485	5.60	10.37
12/02/2020 07:44:46	120220	12022020	074446	181.35	12.898245	-57.114697	181.47	-0.230	0.380	1.170	181.35	-1.00	1.70	 	 	 	 	 	 	 	 	 	 	 	 	 	 	 	 	 	 	1581493486	5.08	9.41
12/02/2020 07:44:47	120220	12022020	074447	181.29	12.898220	-57.114698	181.39	-0.410	-0.090	1.340	181.26	-1.50	1.80	 	 	 	 	 	 	 	 	 	 	 	 	 	 	 	 	 	 	1581493487	5.52	10.22
12/02/2020 07:44:48	120220	12022020	074448	181.19	12.898190	-57.114702	181.31	-0.310	-0.470	1.580	181.18	-1.90	2.00	 	 	 	 	 	 	 	 	 	 	 	 	 	 	 	 	 	 	1581493488	6.33	11.72
12/02/2020 07:44:49	120220	12022020	074449	181.26	12.898162	-57.114708	181.42	-0.060	-0.200	1.670	181.29	-1.60	2.10	 	 	 	 	 	 	 	 	 	 	 	 	 	 	 	 	 	 	1581493489	6.29	11.65
12/02/2020 07:44:50	120220	12022020	074450	181.46	12.898137	-57.114713	181.63	0.130	0.300	1.690	181.48	-1.10	2.20	 	 	 	 	 	 	 	 	 	 	 	 	 	 	 	 	 	 	1581493490	5.47	10.13
12/02/2020 07:44:51	120220	12022020	074451	181.52	12.898113	-57.114717	181.65	0.190	0.380	1.820	181.50	-1.00	2.30	 	 	 	 	 	 	 	 	 	 	 	 	 	 	 	 	 	 	1581493491	5.06	9.37
12/02/2020 07:44:52	120220	12022020	074452	181.39	12.898088	-57.114722	181.50	0.170	0.050	2.120	181.36	-1.30	2.60	 	 	 	 	 	 	 	 	 	 	 	 	 	 	 	 	 	 	1581493492	5.43	10.06
12/02/2020 07:44:53	120220	12022020	074453	181.31	12.898062	-57.114727	181.45	0.130	-0.250	2.320	181.32	-1.60	2.80	 	 	 	 	 	 	 	 	 	 	 	 	 	 	 	 	 	 	1581493493	5.85	10.83
12/02/2020 07:44:54	120220	12022020	074454	181.33	12.898037	-57.114732	181.45	0.140	-0.490	2.280	181.32	-1.90	2.80	 	 	 	 	 	 	 	 	 	 	 	 	 	 	 	 	 	 	1581493494	5.73	10.61
12/02/2020 07:44:55	120220	12022020	074455	181.26	12.898010	-57.114737	181.36	0.230	-0.890	1.980	181.25	-2.30	2.50	 	 	 	 	 	 	 	 	 	 	 	 	 	 	 	 	 	 	1581493495	5.59	10.35
12/02/2020 07:44:56	120220	12022020	074456	181.21	12.897983	-57.114738	181.30	0.270	-1.190	1.610	181.20	-2.60	2.10	 	 	 	 	 	 	 	 	 	 	 	 	 	 	 	 	 	 	1581493496	5.89	10.91
12/02/2020 07:44:57	120220	12022020	074457	181.16	12.897955	-57.114740	181.25	0.130	-1.070	1.530	181.14	-2.50	2.00	 	 	 	 	 	 	 	 	 	 	 	 	 	 	 	 	 	 	1581493497	5.97	11.06
12/02/2020 07:44:58	120220	12022020	074458	181.05	12.897928	-57.114743	181.14	-0.170	-0.480	1.780	181.02	-1.90	2.20	 	 	 	 	 	 	 	 	 	 	 	 	 	 	 	 	 	 	1581493498	5.71	10.57
12/02/2020 07:44:59	120220	12022020	074459	180.98	12.897905	-57.114748	181.11	-0.470	0.370	1.930	181.00	-1.10	2.40	 	 	 	 	 	 	 	 	 	 	 	 	 	 	 	 	 	 	1581493499	5.47	10.13
12/02/2020 07:45:00	120220	12022020	074500	181.08	12.897880	-57.114755	181.29	-0.570	1.110	1.830	181.13	-0.30	2.30	 	 	 	 	 	 	 	 	 	 	 	 	 	 	 	 	 	 	1581493500	5.26	9.74
12/02/2020 07:45:01	120220	12022020	074501	181.41	12.897857	-57.114760	181.58	-0.320	1.190	1.520	181.47	-0.20	2.00	1014.80	26.20	26.20	21.00	21.00	-1.0	73.0	73.0	397.0	25.8	275.00	9.90	80.00	10.10	16	10344.0	27.4	27.4	1581493501	5.17	9.57
12/02/2020 07:45:02	120220	12022020	074502	181.68	12.897832	-57.114762	181.89	0.170	0.270	1.170	181.74	-1.10	1.70	 	 	 	 	 	 	 	 	 	 	 	 	 	 	 	 	 	 	1581493502	5.57	10.32
12/02/2020 07:45:03	120220	12022020	074503	181.93	12.897802	-57.114762	182.05	0.500	-1.160	1.340	181.94	-2.50	1.80	 	 	 	 	 	 	 	 	 	 	 	 	 	 	 	 	 	 	1581493503	6.43	11.91
12/02/2020 07:45:04	120220	12022020	074504	181.83	12.897770	-57.114765	181.90	0.380	-2.000	2.250	181.76	-3.40	2.70	 	 	 	 	 	 	 	 	 	 	 	 	 	 	 	 	 	 	1581493504	6.93	12.83
12/02/2020 07:45:05	120220	12022020	074505	181.42	12.897740	-57.114773	181.49	-0.170	-1.580	3.430	181.32	-3.00	3.80	 	 	 	 	 	 	 	 	 	 	 	 	 	 	 	 	 	 	1581493505	6.56	12.15
12/02/2020 07:45:06	120220	12022020	074506	180.97	12.897715	-57.114785	181.08	-0.730	-0.230	4.360	180.90	-1.70	4.80	 	 	 	 	 	 	 	 	 	 	 	 	 	 	 	 	 	 	1581493506	5.77	10.69
12/02/2020 07:45:07	120220	12022020	074507	180.76	12.897695	-57.114798	180.91	-0.750	0.930	4.570	180.76	-0.50	5.00	 	 	 	 	 	 	 	 	 	 	 	 	 	 	 	 	 	 	1581493507	5.23	9.69
12/02/2020 07:45:08	120220	12022020	074508	180.83	12.897673	-57.114808	181.00	-0.080	1.150	3.960	180.86	-0.20	4.50	 	 	 	 	 	 	 	 	 	 	 	 	 	 	 	 	 	 	1581493508	5.12	9.48
12/02/2020 07:45:09	120220	12022020	074509	181.09	12.897648	-57.114812	181.30	0.730	0.610	2.830	181.18	-0.80	3.30	 	 	 	 	 	 	 	 	 	 	 	 	 	 	 	 	 	 	1581493509	5.62	10.41
12/02/2020 07:45:10	120220	12022020	074510	181.63	12.897620	-57.114808	181.84	1.050	-0.100	1.670	181.76	-1.50	2.20	 	 	 	 	 	 	 	 	 	 	 	 	 	 	 	 	 	 	1581493510	6.24	11.56
12/02/2020 07:45:11	120220	12022020	074511	182.26	12.897592	-57.114805	182.44	0.740	-0.560	0.770	182.36	-1.90	1.30	 	 	 	 	 	 	 	 	 	 	 	 	 	 	 	 	 	 	1581493511	6.15	11.39
12/02/2020 07:45:12	120220	12022020	074512	182.58	12.897565	-57.114802	182.69	0.210	-0.940	0.500	182.59	-2.30	1.00	 	 	 	 	 	 	 	 	 	 	 	 	 	 	 	 	 	 	1581493512	5.63	10.43
12/02/2020 07:45:13	120220	12022020	074513	182.45	12.897540	-57.114802	182.51	-0.240	-1.220	1.120	182.37	-2.60	1.60	 	 	 	 	 	 	 	 	 	 	 	 	 	 	 	 	 	 	1581493513	5.52	10.22
12/02/2020 07:45:14	120220	12022020	074514	182.04	12.897513	-57.114810	182.12	-0.560	-1.080	2.140	181.97	-2.50	2.60	 	 	 	 	 	 	 	 	 	 	 	 	 	 	 	 	 	 	1581493514	5.82	10.78
12/02/2020 07:45:15	120220	12022020	074515	181.86	12.897488	-57.114822	182.01	-0.720	-0.340	2.730	181.87	-1.80	3.20	 	 	 	 	 	 	 	 	 	 	 	 	 	 	 	 	 	 	1581493515	5.91	10.95
12/02/2020 07:45:16	120220	12022020	074516	182.02	12.897467	-57.114833	182.21	-0.690	0.300	2.690	182.07	-1.10	3.20	 	 	 	 	 	 	 	 	 	 	 	 	 	 	 	 	 	 	1581493516	5.32	9.85
12/02/2020 07:45:17	120220	12022020	074517	182.20	12.897443	-57.114840	182.34	-0.400	0.060	2.360	182.20	-1.30	2.80	 	 	 	 	 	 	 	 	 	 	 	 	 	 	 	 	 	 	1581493517	5.19	9.61
12/02/2020 07:45:18	120220	12022020	074518	182.08	12.897415	-57.114843	182.16	0.090	-0.760	2.110	182.02	-2.10	2.60	 	 	 	 	 	 	 	 	 	 	 	 	 	 	 	 	 	 	1581493518	6.10	11.30
12/02/2020 07:45:19	120220	12022020	074519	181.73	12.897383	-57.114847	181.79	0.460	-1.020	2.070	181.65	-2.40	2.50	 	 	 	 	 	 	 	 	 	 	 	 	 	 	 	 	 	 	1581493519	6.84	12.67
12/02/2020 07:45:20	120220	12022020	074520	181.54	12.897353	-57.114848	181.69	0.370	-0.050	1.990	181.56	-1.50	2.50	 	 	 	 	 	 	 	 	 	 	 	 	 	 	 	 	 	 	1581493520	6.40	11.85
12/02/2020 07:45:21	120220	12022020	074521	181.80	12.897330	-57.114850	182.00	-0.110	1.400	1.680	181.89	-0.00	2.20	 	 	 	 	 	 	 	 	 	 	 	 	 	 	 	 	 	 	1581493521	5.03	9.32
12/02/2020 07:45:22	120220	12022020	074522	182.31	12.897310	-57.114853	182.55	-0.490	1.960	1.310	182.43	0.60	1.80	 	 	 	 	 	 	 	 	 	 	 	 	 	 	 	 	 	 	1581493522	4.20	7.78
12/02/2020 07:45:23	120220	12022020	074523	182.92	12.897288	-57.114857	183.14	-0.360	1.180	0.940	183.04	-0.20	1.40	 	 	 	 	 	 	 	 	 	 	 	 	 	 	 	 	 	 	1581493523	4.79	8.87
12/02/2020 07:45:24	120220	12022020	074524	183.36	12.897262	-57.114862	183.63	0.160	-0.310	0.660	183.45	-1.60	1.20	 	 	 	 	 	 	 	 	 	 	 	 	 	 	 	 	 	 	1581493524	5.87	10.87
12/02/2020 07:45:25	120220	12022020	074525	183.72	12.897233	-57.114865	183.84	0.640	-1.640	0.690	183.72	-3.00	1.20	 	 	 	 	 	 	 	 	 	 	 	 	 	 	 	 	 	 	1581493525	6.37	11.80
12/02/2020 07:45:26	120220	12022020	074526	183.59	12.897203	-57.114870	183.53	0.790	-2.370	1.190	183.51	-3.70	1.60	 	 	 	 	 	 	 	 	 	 	 	 	 	 	 	 	 	 	1581493526	6.20	11.48
12/02/2020 07:45:27	120220	12022020	074527	182.74	12.897177	-57.114875	182.69	0.580	-2.390	2.220	182.54	-3.80	2.60	 	 	 	 	 	 	 	 	 	 	 	 	 	 	 	 	 	 	1581493527	5.87	10.87
12/02/2020 07:45:28	120220	12022020	074528	181.64	12.897152	-57.114883	181.64	0.090	-1.670	3.590	181.45	-3.10	4.00	 	 	 	 	 	 	 	 	 	 	 	 	 	 	 	 	 	 	1581493528	5.78	10.70
12/02/2020 07:45:29	120220	12022020	074529	180.89	12.897127	-57.114893	181.03	-0.550	-0.230	4.380	180.83	-1.70	4.80	 	 	 	 	 	 	 	 	 	 	 	 	 	 	 	 	 	 	1581493529	5.87	10.87
12/02/2020 07:45:30	120220	12022020	074530	181.00	12.897103	-57.114905	181.26	-1.100	1.450	4.030	181.13	-0.00	4.50	 	 	 	 	 	 	 	 	 	 	 	 	 	 	 	 	 	 	1581493530	5.55	10.28
12/02/2020 07:45:31	120220	12022020	074531	181.89	12.897082	-57.114913	182.22	-1.240	2.450	2.710	182.12	1.00	3.30	 	 	 	 	 	 	 	 	 	 	 	 	 	 	 	 	 	 	1581493531	4.92	9.11
12/02/2020 07:45:32	120220	12022020	074532	183.08	12.897058	-57.114915	183.36	-0.800	1.980	0.920	183.31	0.60	1.50	 	 	 	 	 	 	 	 	 	 	 	 	 	 	 	 	 	 	1581493532	4.95	9.17
12/02/2020 07:45:33	120220	12022020	074533	183.94	12.897030	-57.114913	184.09	0.110	0.280	-0.420	184.02	-1.10	0.10	 	 	 	 	 	 	 	 	 	 	 	 	 	 	 	 	 	 	1581493533	6.02	11.15
12/02/2020 07:45:34	120220	12022020	074534	183.99	12.896998	-57.114912	183.99	1.000	-1.420	-0.660	183.92	-2.80	-0.20	 	 	 	 	 	 	 	 	 	 	 	 	 	 	 	 	 	 	1581493534	7.04	13.04
12/02/2020 07:45:35	120220	12022020	074535	183.57	12.896967	-57.114912	183.55	1.230	-1.880	-0.000	183.47	-3.30	0.50	 	 	 	 	 	 	 	 	 	 	 	 	 	 	 	 	 	 	1581493535	6.89	12.76
12/02/2020 07:45:36	120220	12022020	074536	183.16	12.896940	-57.114915	183.19	0.650	-1.110	1.040	183.09	-2.60	1.50	 	 	 	 	 	 	 	 	 	 	 	 	 	 	 	 	 	 	1581493536	5.60	10.37
12/02/2020 07:45:37	120220	12022020	074537	182.81	12.896920	-57.114922	182.85	-0.150	-0.250	2.140	182.73	-1.70	2.60	 	 	 	 	 	 	 	 	 	 	 	 	 	 	 	 	 	 	1581493537	4.60	8.52
12/02/2020 07:45:38	120220	12022020	074538	182.47	12.896900	-57.114933	182.48	-0.530	0.000	3.070	182.40	-1.40	3.50	 	 	 	 	 	 	 	 	 	 	 	 	 	 	 	 	 	 	1581493538	5.01	9.28
12/02/2020 07:45:39	120220	12022020	074539	182.15	12.896875	-57.114945	182.31	-0.490	-0.040	3.550	182.14	-1.40	4.00	 	 	 	 	 	 	 	 	 	 	 	 	 	 	 	 	 	 	1581493539	5.90	10.93
12/02/2020 07:45:40	120220	12022020	074540	182.34	12.896847	-57.114955	182.58	-0.370	0.080	3.520	182.42	-1.30	4.00	 	 	 	 	 	 	 	 	 	 	 	 	 	 	 	 	 	 	1581493540	6.24	11.56
12/02/2020 07:45:41	120220	12022020	074541	182.93	12.896822	-57.114965	183.19	-0.310	0.380	3.070	183.06	-1.00	3.60	 	 	 	 	 	 	 	 	 	 	 	 	 	 	 	 	 	 	1581493541	5.86	10.85
12/02/2020 07:45:42	120220	12022020	074542	183.58	12.896798	-57.114972	183.79	-0.170	0.530	2.170	183.68	-0.90	2.70	 	 	 	 	 	 	 	 	 	 	 	 	 	 	 	 	 	 	1581493542	5.26	9.74
12/02/2020 07:45:43	120220	12022020	074543	183.89	12.896775	-57.114973	184.01	0.270	0.120	1.130	183.90	-1.30	1.60	 	 	 	 	 	 	 	 	 	 	 	 	 	 	 	 	 	 	1581493543	5.07	9.39
12/02/2020 07:45:44	120220	12022020	074544	183.80	12.896748	-57.114972	183.86	0.800	-0.720	0.370	183.76	-2.10	0.90	 	 	 	 	 	 	 	 	 	 	 	 	 	 	 	 	 	 	1581493544	5.63	10.43
12/02/2020 07:45:45	120220	12022020	074545	183.62	12.896720	-57.114970	183.69	0.930	-1.260	0.040	183.59	-2.70	0.50	 	 	 	 	 	 	 	 	 	 	 	 	 	 	 	 	 	 	1581493545	6.22	11.52
12/02/2020 07:45:46	120220	12022020	074546	183.47	12.896692	-57.114968	183.50	0.420	-1.150	0.350	183.42	-2.60	0.80	 	 	 	 	 	 	 	 	 	 	 	 	 	 	 	 	 	 	1581493546	5.96	11.04
12/02/2020 07:45:47	120220	12022020	074547	183.17	12.896667	-57.114973	183.17	-0.340	-0.570	1.360	183.09	-2.00	1.80	 	 	 	 	 	 	 	 	 	 	 	 	 	 	 	 	 	 	1581493547	5.43	10.06
12/02/2020 07:45:48	120220	12022020	074548	182.89	12.896645	-57.114987	182.92	-0.770	0.190	2.410	182.83	-1.20	2.90	 	 	 	 	 	 	 	 	 	 	 	 	 	 	 	 	 	 	1581493548	5.54	10.26
12/02/2020 07:45:49	120220	12022020	074549	182.76	12.896622	-57.115000	182.93	-0.600	0.780	2.810	182.79	-0.60	3.30	 	 	 	 	 	 	 	 	 	 	 	 	 	 	 	 	 	 	1581493549	5.64	10.45
12/02/2020 07:45:50	120220	12022020	074550	182.92	12.896598	-57.115010	183.14	-0.070	0.730	2.580	182.96	-0.70	3.10	 	 	 	 	 	 	 	 	 	 	 	 	 	 	 	 	 	 	1581493550	5.40	10.00
12/02/2020 07:45:51	120220	12022020	074551	183.17	12.896573	-57.115013	183.32	0.320	0.090	2.210	183.20	-1.30	2.70	 	 	 	 	 	 	 	 	 	 	 	 	 	 	 	 	 	 	1581493551	5.66	10.48
12/02/2020 07:45:52	120220	12022020	074552	183.22	12.896545	-57.115015	183.31	0.240	-0.560	2.120	183.21	-1.90	2.60	 	 	 	 	 	 	 	 	 	 	 	 	 	 	 	 	 	 	1581493552	6.11	11.32
12/02/2020 07:45:53	120220	12022020	074553	183.15	12.896517	-57.115020	183.24	-0.140	-0.650	2.300	183.14	-2.10	2.80	 	 	 	 	 	 	 	 	 	 	 	 	 	 	 	 	 	 	1581493553	6.01	11.13
12/02/2020 07:45:54	120220	12022020	074554	183.05	12.896492	-57.115028	183.13	-0.390	-0.290	2.460	183.01	-1.70	2.90	 	 	 	 	 	 	 	 	 	 	 	 	 	 	 	 	 	 	1581493554	5.45	10.09
12/02/2020 07:45:55	120220	12022020	074555	182.81	12.896470	-57.115037	182.88	-0.090	-0.130	2.370	182.76	-1.50	2.90	 	 	 	 	 	 	 	 	 	 	 	 	 	 	 	 	 	 	1581493555	5.07	9.39
12/02/2020 07:45:56	120220	12022020	074556	182.54	12.896447	-57.115043	182.58	0.600	-0.460	1.920	182.49	-1.80	2.40	 	 	 	 	 	 	 	 	 	 	 	 	 	 	 	 	 	 	1581493556	5.25	9.72
12/02/2020 07:45:57	120220	12022020	074557	182.39	12.896420	-57.115045	182.47	1.070	-0.850	1.340	182.38	-2.20	1.80	 	 	 	 	 	 	 	 	 	 	 	 	 	 	 	 	 	 	1581493557	5.80	10.74
12/02/2020 07:45:58	120220	12022020	074558	182.41	12.896392	-57.115043	182.53	0.830	-0.750	1.000	182.42	-2.20	1.50	 	 	 	 	 	 	 	 	 	 	 	 	 	 	 	 	 	 	1581493558	6.00	11.11
12/02/2020 07:45:59	120220	12022020	074559	182.44	12.896367	-57.115042	182.56	0.020	-0.220	1.020	182.43	-1.70	1.50	 	 	 	 	 	 	 	 	 	 	 	 	 	 	 	 	 	 	1581493559	5.51	10.20
12/02/2020 07:46:00	120220	12022020	074600	182.34	12.896343	-57.115045	182.45	-0.800	0.260	1.440	182.31	-1.20	1.90	 	 	 	 	 	 	 	 	 	 	 	 	 	 	 	 	 	 	1581493560	5.08	9.41
12/02/2020 07:46:01	120220	12022020	074601	182.37	12.896320	-57.115055	182.59	-1.180	0.570	1.890	182.43	-0.90	2.40	1014.80	26.10	26.20	20.90	21.00	-1.0	73.0	73.0	396.0	25.8	275.00	10.20	81.00	10.40	16	9916.0	27.4	27.3	1581493561	5.42	10.04
12/02/2020 07:46:02	120220	12022020	074602	182.80	12.896295	-57.115067	183.07	-0.950	0.650	1.980	182.92	-0.80	2.50	 	 	 	 	 	 	 	 	 	 	 	 	 	 	 	 	 	 	1581493562	5.73	10.61
12/02/2020 07:46:03	120220	12022020	074603	183.41	12.896272	-57.115077	183.67	-0.300	0.400	1.680	183.52	-1.00	2.20	 	 	 	 	 	 	 	 	 	 	 	 	 	 	 	 	 	 	1581493563	5.65	10.46
12/02/2020 07:46:04	120220	12022020	074604	183.76	12.896247	-57.115082	183.92	0.440	-0.220	1.370	183.75	-1.60	1.90	 	 	 	 	 	 	 	 	 	 	 	 	 	 	 	 	 	 	1581493564	5.54	10.26
12/02/2020 07:46:05	120220	12022020	074605	183.43	12.896220	-57.115085	183.45	0.970	-1.040	1.440	183.31	-2.40	1.90	 	 	 	 	 	 	 	 	 	 	 	 	 	 	 	 	 	 	1581493565	5.75	10.65
12/02/2020 07:46:06	120220	12022020	074606	182.65	12.896192	-57.115088	182.65	1.060	-1.380	1.830	182.50	-2.80	2.30	 	 	 	 	 	 	 	 	 	 	 	 	 	 	 	 	 	 	1581493566	6.04	11.19
12/02/2020 07:46:07	120220	12022020	074607	181.90	12.896165	-57.115090	181.96	0.660	-0.830	2.280	181.80	-2.30	2.80	 	 	 	 	 	 	 	 	 	 	 	 	 	 	 	 	 	 	1581493567	5.76	10.67
12/02/2020 07:46:08	120220	12022020	074608	181.67	12.896142	-57.115095	181.87	-0.080	0.150	2.420	181.72	-1.30	2.90	 	 	 	 	 	 	 	 	 	 	 	 	 	 	 	 	 	 	1581493568	5.07	9.39
12/02/2020 07:46:09	120220	12022020	074609	182.28	12.896120	-57.115100	182.61	-0.840	0.950	2.080	182.48	-0.50	2.60	 	 	 	 	 	 	 	 	 	 	 	 	 	 	 	 	 	 	1581493569	4.75	8.80
12/02/2020 07:46:10	120220	12022020	074610	183.34	12.896098	-57.115108	183.66	-1.150	1.070	1.650	183.55	-0.30	2.20	 	 	 	 	 	 	 	 	 	 	 	 	 	 	 	 	 	 	1581493570	4.82	8.93
12/02/2020 07:46:11	120220	12022020	074611	184.14	12.896077	-57.115117	184.34	-0.710	0.310	1.290	184.21	-1.10	1.80	 	 	 	 	 	 	 	 	 	 	 	 	 	 	 	 	 	 	1581493571	5.30	9.82
12/02/2020 07:46:12	120220	12022020	074612	184.21	12.896050	-57.115125	184.27	0.280	-1.000	1.220	184.17	-2.40	1.70	 	 	 	 	 	 	 	 	 	 	 	 	 	 	 	 	 	 	1581493572	5.96	11.04
12/02/2020 07:46:13	120220	12022020	074613	183.87	12.896020	-57.115132	183.88	1.030	-1.770	1.450	183.78	-3.20	1.90	 	 	 	 	 	 	 	 	 	 	 	 	 	 	 	 	 	 	1581493573	6.59	12.20
12/02/2020 07:46:14	120220	12022020	074614	183.41	12.895992	-57.115135	183.41	1.030	-1.450	1.910	183.31	-2.90	2.40	 	 	 	 	 	 	 	 	 	 	 	 	 	 	 	 	 	 	1581493574	6.19	11.46
12/02/2020 07:46:15	120220	12022020	074615	182.99	12.895967	-57.115138	183.06	0.420	-0.380	2.310	182.94	-1.80	2.80	 	 	 	 	 	 	 	 	 	 	 	 	 	 	 	 	 	 	1581493575	5.29	9.80
12/02/2020 07:46:16	120220	12022020	074616	182.93	12.895945	-57.115142	183.10	-0.420	0.760	2.430	182.98	-0.70	2.90	 	 	 	 	 	 	 	 	 	 	 	 	 	 	 	 	 	 	1581493576	4.76	8.82
12/02/2020 07:46:17	120220	12022020	074617	183.28	12.895923	-57.115147	183.49	-1.030	1.390	2.420	183.36	-0.00	2.90	 	 	 	 	 	 	 	 	 	 	 	 	 	 	 	 	 	 	1581493577	4.71	8.72
12/02/2020 07:46:18	120220	12022020	074618	183.67	12.895900	-57.115155	183.84	-1.060	1.230	2.270	183.73	-0.10	2.80	 	 	 	 	 	 	 	 	 	 	 	 	 	 	 	 	 	 	1581493578	5.14	9.52
12/02/2020 07:46:19	120220	12022020	074619	183.90	12.895877	-57.115165	184.02	-0.510	0.390	1.930	183.91	-1.00	2.40	 	 	 	 	 	 	 	 	 	 	 	 	 	 	 	 	 	 	1581493579	5.67	10.50
12/02/2020 07:46:20	120220	12022020	074620	183.84	12.895848	-57.115172	183.88	0.320	-0.790	1.630	183.77	-2.10	2.10	 	 	 	 	 	 	 	 	 	 	 	 	 	 	 	 	 	 	1581493580	6.06	11.22
12/02/2020 07:46:21	120220	12022020	074621	183.31	12.895820	-57.115177	183.29	1.020	-1.720	1.680	183.17	-3.10	2.20	 	 	 	 	 	 	 	 	 	 	 	 	 	 	 	 	 	 	1581493581	6.32	11.70
12/02/2020 07:46:22	120220	12022020	074622	182.64	12.895792	-57.115180	182.67	1.190	-1.650	1.740	182.54	-3.10	2.20	 	 	 	 	 	 	 	 	 	 	 	 	 	 	 	 	 	 	1581493582	6.20	11.48
12/02/2020 07:46:23	120220	12022020	074623	182.40	12.895767	-57.115183	182.53	0.650	-0.500	1.530	182.41	-1.90	2.00	 	 	 	 	 	 	 	 	 	 	 	 	 	 	 	 	 	 	1581493583	5.39	9.98
12/02/2020 07:46:24	120220	12022020	074624	182.58	12.895747	-57.115185	182.74	-0.240	0.750	1.320	182.63	-0.70	1.80	 	 	 	 	 	 	 	 	 	 	 	 	 	 	 	 	 	 	1581493584	4.31	7.98
12/02/2020 07:46:25	120220	12022020	074625	182.86	12.895727	-57.115190	183.05	-0.890	1.120	1.270	182.93	-0.30	1.80	 	 	 	 	 	 	 	 	 	 	 	 	 	 	 	 	 	 	1581493585	4.23	7.83
12/02/2020 07:46:26	120220	12022020	074626	183.25	12.895703	-57.115197	183.44	-0.970	0.590	1.240	183.32	-0.80	1.70	 	 	 	 	 	 	 	 	 	 	 	 	 	 	 	 	 	 	1581493586	5.19	9.61
12/02/2020 07:46:27	120220	12022020	074627	183.49	12.895677	-57.115205	183.63	-0.450	-0.310	1.350	183.51	-1.70	1.80	 	 	 	 	 	 	 	 	 	 	 	 	 	 	 	 	 	 	1581493587	6.06	11.22
12/02/2020 07:46:28	120220	12022020	074628	183.38	12.895648	-57.115213	183.44	0.370	-1.090	1.570	183.32	-2.40	2.00	 	 	 	 	 	 	 	 	 	 	 	 	 	 	 	 	 	 	1581493588	6.35	11.76
12/02/2020 07:46:29	120220	12022020	074629	182.99	12.895620	-57.115218	183.03	0.900	-1.370	1.810	182.91	-2.80	2.30	 	 	 	 	 	 	 	 	 	 	 	 	 	 	 	 	 	 	1581493589	6.23	11.54
12/02/2020 07:46:30	120220	12022020	074630	182.64	12.895593	-57.115222	182.72	0.730	-0.880	2.150	182.60	-2.30	2.60	 	 	 	 	 	 	 	 	 	 	 	 	 	 	 	 	 	 	1581493590	5.83	10.80
12/02/2020 07:46:31	120220	12022020	074631	182.47	12.895570	-57.115225	182.56	-0.020	0.070	2.580	182.43	-1.40	3.00	 	 	 	 	 	 	 	 	 	 	 	 	 	 	 	 	 	 	1581493591	5.10	9.45
12/02/2020 07:46:32	120220	12022020	074632	182.20	12.895548	-57.115230	182.27	-0.740	0.770	3.010	182.13	-0.60	3.50	 	 	 	 	 	 	 	 	 	 	 	 	 	 	 	 	 	 	1581493592	4.71	8.72
12/02/2020 07:46:33	120220	12022020	074633	181.86	12.895527	-57.115240	181.94	-0.870	0.820	3.330	181.81	-0.60	3.80	 	 	 	 	 	 	 	 	 	 	 	 	 	 	 	 	 	 	1581493593	5.17	9.57
12/02/2020 07:46:34	120220	12022020	074634	181.75	12.895502	-57.115252	181.90	-0.320	0.510	3.070	181.78	-0.90	3.60	 	 	 	 	 	 	 	 	 	 	 	 	 	 	 	 	 	 	1581493594	5.85	10.83
12/02/2020 07:46:35	120220	12022020	074635	182.03	12.895475	-57.115258	182.21	0.460	0.150	2.220	182.12	-1.20	2.70	 	 	 	 	 	 	 	 	 	 	 	 	 	 	 	 	 	 	1581493595	5.79	10.72
12/02/2020 07:46:36	120220	12022020	074636	182.45	12.895450	-57.115258	182.60	0.900	-0.340	1.350	182.51	-1.70	1.90	 	 	 	 	 	 	 	 	 	 	 	 	 	 	 	 	 	 	1581493596	5.50	10.19
12/02/2020 07:46:37	120220	12022020	074637	182.65	12.895425	-57.115257	182.76	0.770	-0.980	0.880	182.67	-2.30	1.40	 	 	 	 	 	 	 	 	 	 	 	 	 	 	 	 	 	 	1581493597	5.53	10.24
12/02/2020 07:46:38	120220	12022020	074638	182.69	12.895398	-57.115257	182.79	0.230	-1.340	1.000	182.68	-2.70	1.50	 	 	 	 	 	 	 	 	 	 	 	 	 	 	 	 	 	 	1581493598	5.66	10.48
12/02/2020 07:46:39	120220	12022020	074639	182.54	12.895373	-57.115263	182.62	-0.320	-1.180	1.680	182.48	-2.60	2.10	 	 	 	 	 	 	 	 	 	 	 	 	 	 	 	 	 	 	1581493599	5.55	10.28
12/02/2020 07:46:40	120220	12022020	074640	182.26	12.895350	-57.115273	182.24	-0.520	-0.600	2.430	182.18	-2.00	2.90	 	 	 	 	 	 	 	 	 	 	 	 	 	 	 	 	 	 	1581493600	5.49	10.17
12/02/2020 07:46:41	120220	12022020	074641	181.87	12.895327	-57.115283	181.99	-0.410	0.070	2.760	181.84	-1.30	3.20	 	 	 	 	 	 	 	 	 	 	 	 	 	 	 	 	 	 	1581493601	5.30	9.82
12/02/2020 07:46:42	120220	12022020	074642	181.85	12.895303	-57.115290	182.06	-0.220	0.400	2.600	181.88	-1.00	3.10	 	 	 	 	 	 	 	 	 	 	 	 	 	 	 	 	 	 	1581493602	5.15	9.54
12/02/2020 07:46:43	120220	12022020	074643	182.04	12.895278	-57.115293	182.20	-0.070	0.260	2.240	182.07	-1.10	2.80	 	 	 	 	 	 	 	 	 	 	 	 	 	 	 	 	 	 	1581493603	5.38	9.96
12/02/2020 07:46:44	120220	12022020	074644	182.07	12.895253	-57.115297	182.18	0.120	-0.000	1.950	182.04	-1.40	2.50	 	 	 	 	 	 	 	 	 	 	 	 	 	 	 	 	 	 	1581493604	5.77	10.69
12/02/2020 07:46:45	120220	12022020	074645	181.92	12.895225	-57.115298	182.02	0.350	0.030	1.800	181.89	-1.40	2.30	 	 	 	 	 	 	 	 	 	 	 	 	 	 	 	 	 	 	1581493605	5.83	10.80
12/02/2020 07:46:46	120220	12022020	074646	181.87	12.895200	-57.115300	182.03	0.450	0.370	1.550	181.90	-1.00	2.10	 	 	 	 	 	 	 	 	 	 	 	 	 	 	 	 	 	 	1581493606	5.42	10.04
12/02/2020 07:46:47	120220	12022020	074647	182.02	12.895178	-57.115302	182.18	0.310	0.450	1.310	182.04	-0.90	1.80	 	 	 	 	 	 	 	 	 	 	 	 	 	 	 	 	 	 	1581493607	4.91	9.09
12/02/2020 07:46:48	120220	12022020	074648	182.01	12.895155	-57.115305	182.11	0.070	-0.180	1.540	181.98	-1.50	2.00	 	 	 	 	 	 	 	 	 	 	 	 	 	 	 	 	 	 	1581493608	4.98	9.22
12/02/2020 07:46:49	120220	12022020	074649	181.80	12.895128	-57.115310	181.91	-0.160	-1.010	2.110	181.76	-2.40	2.60	 	 	 	 	 	 	 	 	 	 	 	 	 	 	 	 	 	 	1581493609	5.76	10.67
12/02/2020 07:46:50	120220	12022020	074650	181.72	12.895102	-57.115320	181.87	-0.400	-1.210	2.540	181.72	-2.60	3.00	 	 	 	 	 	 	 	 	 	 	 	 	 	 	 	 	 	 	1581493610	6.16	11.41
12/02/2020 07:46:51	120220	12022020	074651	181.75	12.895077	-57.115330	181.88	-0.550	-0.840	2.700	181.75	-2.20	3.20	 	 	 	 	 	 	 	 	 	 	 	 	 	 	 	 	 	 	1581493611	5.65	10.46
12/02/2020 07:46:52	120220	12022020	074652	181.74	12.895055	-57.115340	181.86	-0.410	-0.440	2.500	181.73	-1.80	3.00	 	 	 	 	 	 	 	 	 	 	 	 	 	 	 	 	 	 	1581493612	5.16	9.56
12/02/2020 07:46:53	120220	12022020	074653	181.70	12.895032	-57.115345	181.81	-0.010	-0.170	2.010	181.69	-1.60	2.50	 	 	 	 	 	 	 	 	 	 	 	 	 	 	 	 	 	 	1581493613	5.17	9.57
12/02/2020 07:46:54	120220	12022020	074654	181.65	12.895007	-57.115347	181.75	0.440	0.070	1.440	181.65	-1.30	2.00	 	 	 	 	 	 	 	 	 	 	 	 	 	 	 	 	 	 	1581493614	5.35	9.91
12/02/2020 07:46:55	120220	12022020	074655	181.74	12.894982	-57.115347	181.87	0.640	0.290	0.860	181.78	-1.10	1.40	 	 	 	 	 	 	 	 	 	 	 	 	 	 	 	 	 	 	1581493615	5.47	10.13
12/02/2020 07:46:56	120220	12022020	074656	181.96	12.894957	-57.115343	182.07	0.500	0.290	0.570	181.99	-1.10	1.10	 	 	 	 	 	 	 	 	 	 	 	 	 	 	 	 	 	 	1581493616	5.42	10.04
12/02/2020 07:46:57	120220	12022020	074657	181.98	12.894932	-57.115342	182.05	0.170	-0.110	0.960	181.94	-1.50	1.40	 	 	 	 	 	 	 	 	 	 	 	 	 	 	 	 	 	 	1581493617	5.44	10.07
12/02/2020 07:46:58	120220	12022020	074658	181.54	12.894905	-57.115345	181.53	-0.180	-0.680	2.100	181.39	-2.10	2.50	 	 	 	 	 	 	 	 	 	 	 	 	 	 	 	 	 	 	1581493618	5.74	10.63
12/02/2020 07:46:59	120220	12022020	074659	180.76	12.894877	-57.115353	180.77	-0.470	-0.880	3.380	180.61	-2.30	3.80	 	 	 	 	 	 	 	 	 	 	 	 	 	 	 	 	 	 	1581493619	6.24	11.56
12/02/2020 07:47:00	120220	12022020	074700	180.28	12.894850	-57.115367	180.43	-0.690	-0.320	4.100	180.28	-1.70	4.60	 	 	 	 	 	 	 	 	 	 	 	 	 	 	 	 	 	 	1581493620	6.34	11.74
12/02/2020 07:47:01	120220	12022020	074701	180.63	12.894828	-57.115380	180.95	-0.800	0.660	3.870	180.79	-0.80	4.40	1014.80	26.00	26.10	20.60	20.70	-1.0	72.0	72.0	398.0	25.8	272.00	9.80	78.00	10.10	16	9898.0	27.4	27.4	1581493621	5.62	10.41
12/02/2020 07:47:02	120220	12022020	074702	181.55	12.894808	-57.115390	181.85	-0.660	1.130	2.820	181.74	-0.30	3.40	 	 	 	 	 	 	 	 	 	 	 	 	 	 	 	 	 	 	1581493622	4.65	8.61
12/02/2020 07:47:03	120220	12022020	074703	182.29	12.894788	-57.115393	182.44	-0.080	0.460	1.420	182.37	-0.90	2.00	 	 	 	 	 	 	 	 	 	 	 	 	 	 	 	 	 	 	1581493623	4.56	8.45
12/02/2020 07:47:04	120220	12022020	074704	182.46	12.894762	-57.115393	182.47	0.770	-0.860	0.290	182.45	-2.20	0.80	 	 	 	 	 	 	 	 	 	 	 	 	 	 	 	 	 	 	1581493624	5.61	10.39
12/02/2020 07:47:05	120220	12022020	074705	182.16	12.894732	-57.115390	182.15	1.330	-1.740	-0.170	182.09	-3.10	0.40	 	 	 	 	 	 	 	 	 	 	 	 	 	 	 	 	 	 	1581493625	6.46	11.96
12/02/2020 07:47:06	120220	12022020	074706	181.91	12.894703	-57.115387	181.91	1.190	-1.560	-0.070	181.87	-3.00	0.40	 	 	 	 	 	 	 	 	 	 	 	 	 	 	 	 	 	 	1581493626	6.15	11.39
12/02/2020 07:47:07	120220	12022020	074707	181.72	12.894678	-57.115387	181.78	0.460	-0.720	0.420	181.69	-2.20	0.90	 	 	 	 	 	 	 	 	 	 	 	 	 	 	 	 	 	 	1581493627	5.16	9.56
12/02/2020 07:47:08	120220	12022020	074708	181.52	12.894657	-57.115388	181.60	-0.450	0.050	1.310	181.47	-1.40	1.80	 	 	 	 	 	 	 	 	 	 	 	 	 	 	 	 	 	 	1581493628	4.70	8.70
12/02/2020 07:47:09	120220	12022020	074709	181.29	12.894635	-57.115397	181.40	-1.160	0.480	2.450	181.26	-0.90	2.90	 	 	 	 	 	 	 	 	 	 	 	 	 	 	 	 	 	 	1581493629	5.23	9.69
12/02/2020 07:47:10	120220	12022020	074710	181.28	12.894610	-57.115410	181.46	-1.420	0.730	3.250	181.31	-0.70	3.70	 	 	 	 	 	 	 	 	 	 	 	 	 	 	 	 	 	 	1581493630	6.00	11.11
12/02/2020 07:47:11	120220	12022020	074711	181.58	12.894585	-57.115423	181.80	-1.170	0.820	3.380	181.66	-0.60	3.90	 	 	 	 	 	 	 	 	 	 	 	 	 	 	 	 	 	 	1581493631	6.11	11.32
12/02/2020 07:47:12	120220	12022020	074712	181.96	12.894560	-57.115435	182.14	-0.510	0.530	2.900	182.02	-0.90	3.40	 	 	 	 	 	 	 	 	 	 	 	 	 	 	 	 	 	 	1581493632	5.74	10.63
12/02/2020 07:47:13	120220	12022020	074713	182.13	12.894535	-57.115440	182.23	0.350	-0.140	2.060	182.13	-1.50	2.60	 	 	 	 	 	 	 	 	 	 	 	 	 	 	 	 	 	 	1581493633	5.61	10.39
12/02/2020 07:47:14	120220	12022020	074714	182.09	12.894508	-57.115442	182.19	1.030	-0.710	1.060	182.09	-2.10	1.60	 	 	 	 	 	 	 	 	 	 	 	 	 	 	 	 	 	 	1581493634	5.82	10.78
12/02/2020 07:47:15	120220	12022020	074715	182.11	12.894482	-57.115438	182.22	1.170	-0.810	0.200	182.12	-2.20	0.70	 	 	 	 	 	 	 	 	 	 	 	 	 	 	 	 	 	 	1581493635	5.78	10.70
12/02/2020 07:47:16	120220	12022020	074716	182.12	12.894457	-57.115433	182.21	0.730	-0.630	-0.090	182.11	-2.00	0.40	 	 	 	 	 	 	 	 	 	 	 	 	 	 	 	 	 	 	1581493636	5.29	9.80
12/02/2020 07:47:17	120220	12022020	074717	181.95	12.894435	-57.115433	181.98	0.040	-0.470	0.330	181.89	-1.90	0.80	 	 	 	 	 	 	 	 	 	 	 	 	 	 	 	 	 	 	1581493637	4.92	9.11
12/02/2020 07:47:18	120220	12022020	074718	181.61	12.894412	-57.115438	181.50	-0.450	-0.490	1.390	181.50	-1.90	1.80	 	 	 	 	 	 	 	 	 	 	 	 	 	 	 	 	 	 	1581493638	5.14	9.52
12/02/2020 07:47:19	120220	12022020	074719	180.87	12.894387	-57.115448	180.90	-0.540	-0.610	2.570	180.76	-2.00	3.00	 	 	 	 	 	 	 	 	 	 	 	 	 	 	 	 	 	 	1581493639	5.81	10.76
12/02/2020 07:47:20	120220	12022020	074720	180.44	12.894360	-57.115462	180.58	-0.340	-0.470	3.200	180.42	-1.90	3.70	 	 	 	 	 	 	 	 	 	 	 	 	 	 	 	 	 	 	1581493640	6.32	11.70
12/02/2020 07:47:21	120220	12022020	074721	180.60	12.894333	-57.115472	180.85	-0.110	0.120	2.920	180.71	-1.30	3.40	 	 	 	 	 	 	 	 	 	 	 	 	 	 	 	 	 	 	1581493641	6.01	11.13
12/02/2020 07:47:22	120220	12022020	074722	181.43	12.894310	-57.115477	181.75	-0.080	0.810	1.960	181.65	-0.60	2.50	 	 	 	 	 	 	 	 	 	 	 	 	 	 	 	 	 	 	1581493642	5.15	9.54
12/02/2020 07:47:23	120220	12022020	074723	182.52	12.894288	-57.115477	182.78	-0.250	0.960	1.070	182.70	-0.40	1.60	 	 	 	 	 	 	 	 	 	 	 	 	 	 	 	 	 	 	1581493643	4.65	8.61
12/02/2020 07:47:24	120220	12022020	074724	183.08	12.894265	-57.115477	183.16	-0.280	0.150	0.860	183.06	-1.20	1.40	 	 	 	 	 	 	 	 	 	 	 	 	 	 	 	 	 	 	1581493644	4.82	8.93
12/02/2020 07:47:25	120220	12022020	074725	182.57	12.894240	-57.115480	182.50	0.110	-1.200	1.580	182.36	-2.60	2.00	 	 	 	 	 	 	 	 	 	 	 	 	 	 	 	 	 	 	1581493645	5.69	10.54
12/02/2020 07:47:26	120220	12022020	074726	181.50	12.894210	-57.115488	181.46	0.700	-1.780	2.660	181.30	-3.20	3.10	 	 	 	 	 	 	 	 	 	 	 	 	 	 	 	 	 	 	1581493646	6.62	12.26
12/02/2020 07:47:27	120220	12022020	074727	180.83	12.894182	-57.115497	180.96	0.950	-0.870	3.220	180.79	-2.30	3.70	 	 	 	 	 	 	 	 	 	 	 	 	 	 	 	 	 	 	1581493647	6.19	11.46
12/02/2020 07:47:28	120220	12022020	074728	180.96	12.894162	-57.115502	181.22	0.540	0.480	3.010	181.07	-1.00	3.50	 	 	 	 	 	 	 	 	 	 	 	 	 	 	 	 	 	 	1581493648	4.65	8.61
12/02/2020 07:47:29	120220	12022020	074729	181.66	12.894143	-57.115503	181.96	-0.270	1.010	2.430	181.82	-0.40	3.00	 	 	 	 	 	 	 	 	 	 	 	 	 	 	 	 	 	 	1581493649	3.99	7.39
12/02/2020 07:47:30	120220	12022020	074730	182.27	12.894122	-57.115507	182.59	-0.840	0.420	1.970	182.38	-0.90	2.50	 	 	 	 	 	 	 	 	 	 	 	 	 	 	 	 	 	 	1581493650	4.65	8.61
12/02/2020 07:47:31	120220	12022020	074731	182.69	12.894095	-57.115513	182.81	-0.680	-0.740	1.740	182.69	-2.10	2.20	 	 	 	 	 	 	 	 	 	 	 	 	 	 	 	 	 	 	1581493651	5.79	10.72
12/02/2020 07:47:32	120220	12022020	074732	182.58	12.894067	-57.115520	182.57	-0.090	-1.510	1.850	182.51	-2.90	2.30	 	 	 	 	 	 	 	 	 	 	 	 	 	 	 	 	 	 	1581493652	6.45	11.95
12/02/2020 07:47:33	120220	12022020	074733	182.14	12.894038	-57.115527	182.22	0.220	-1.210	2.090	182.09	-2.60	2.60	 	 	 	 	 	 	 	 	 	 	 	 	 	 	 	 	 	 	1581493653	6.21	11.50
12/02/2020 07:47:34	120220	12022020	074734	181.98	12.894013	-57.115532	182.11	0.010	-0.080	2.000	181.98	-1.50	2.50	 	 	 	 	 	 	 	 	 	 	 	 	 	 	 	 	 	 	1581493654	5.26	9.74
12/02/2020 07:47:35	120220	12022020	074735	182.07	12.893993	-57.115538	182.21	-0.310	0.960	1.660	182.11	-0.50	2.20	 	 	 	 	 	 	 	 	 	 	 	 	 	 	 	 	 	 	1581493655	4.43	8.20
12/02/2020 07:47:36	120220	12022020	074736	182.24	12.893973	-57.115542	182.35	-0.150	1.110	1.240	182.26	-0.30	1.80	 	 	 	 	 	 	 	 	 	 	 	 	 	 	 	 	 	 	1581493656	4.48	8.30
12/02/2020 07:47:37	120220	12022020	074737	182.32	12.893950	-57.115545	182.43	0.460	0.380	0.990	182.33	-1.00	1.50	 	 	 	 	 	 	 	 	 	 	 	 	 	 	 	 	 	 	1581493657	5.26	9.74
12/02/2020 07:47:38	120220	12022020	074738	182.37	12.893922	-57.115547	182.49	0.910	-0.400	1.020	182.40	-1.80	1.50	 	 	 	 	 	 	 	 	 	 	 	 	 	 	 	 	 	 	1581493658	6.07	11.24
12/02/2020 07:47:39	120220	12022020	074739	182.46	12.893893	-57.115550	182.57	0.860	-0.670	1.100	182.47	-2.10	1.60	 	 	 	 	 	 	 	 	 	 	 	 	 	 	 	 	 	 	1581493659	5.97	11.06
12/02/2020 07:47:40	120220	12022020	074740	182.52	12.893870	-57.115553	182.64	0.360	-0.620	1.270	182.54	-2.00	1.80	 	 	 	 	 	 	 	 	 	 	 	 	 	 	 	 	 	 	1581493660	5.31	9.83
12/02/2020 07:47:41	120220	12022020	074741	182.63	12.893847	-57.115558	182.76	-0.260	-0.590	1.690	182.65	-2.00	2.20	 	 	 	 	 	 	 	 	 	 	 	 	 	 	 	 	 	 	1581493661	5.01	9.28
12/02/2020 07:47:42	120220	12022020	074742	182.56	12.893823	-57.115567	182.61	-0.650	-0.890	2.520	182.49	-2.30	3.00	 	 	 	 	 	 	 	 	 	 	 	 	 	 	 	 	 	 	1581493662	5.21	9.65
12/02/2020 07:47:43	120220	12022020	074743	182.04	12.893798	-57.115578	182.05	-0.690	-1.260	3.540	181.91	-2.60	4.00	 	 	 	 	 	 	 	 	 	 	 	 	 	 	 	 	 	 	1581493663	5.92	10.96
12/02/2020 07:47:44	120220	12022020	074744	181.37	12.893772	-57.115592	181.41	-0.590	-1.030	4.360	181.25	-2.40	4.80	 	 	 	 	 	 	 	 	 	 	 	 	 	 	 	 	 	 	1581493664	6.40	11.85
12/02/2020 07:47:45	120220	12022020	074745	180.96	12.893747	-57.115602	181.09	-0.470	-0.130	4.620	180.93	-1.60	5.10	 	 	 	 	 	 	 	 	 	 	 	 	 	 	 	 	 	 	1581493665	6.02	11.15
12/02/2020 07:47:46	120220	12022020	074746	180.96	12.893723	-57.115612	181.12	-0.270	0.770	4.090	180.99	-0.70	4.60	 	 	 	 	 	 	 	 	 	 	 	 	 	 	 	 	 	 	1581493666	5.30	9.82
12/02/2020 07:47:47	120220	12022020	074747	181.18	12.893700	-57.115617	181.34	0.140	1.060	2.920	181.23	-0.30	3.50	 	 	 	 	 	 	 	 	 	 	 	 	 	 	 	 	 	 	1581493667	5.02	9.30
12/02/2020 07:47:48	120220	12022020	074748	181.50	12.893675	-57.115615	181.66	0.590	0.870	1.460	181.58	-0.50	2.00	 	 	 	 	 	 	 	 	 	 	 	 	 	 	 	 	 	 	1581493668	5.43	10.06
12/02/2020 07:47:49	120220	12022020	074749	181.95	12.893648	-57.115610	182.10	0.810	0.520	0.260	182.04	-0.90	0.80	 	 	 	 	 	 	 	 	 	 	 	 	 	 	 	 	 	 	1581493669	5.74	10.63
12/02/2020 07:47:50	120220	12022020	074750	182.29	12.893623	-57.115605	182.36	0.720	-0.040	-0.150	182.31	-1.40	0.40	 	 	 	 	 	 	 	 	 	 	 	 	 	 	 	 	 	 	1581493670	5.50	10.19
12/02/2020 07:47:51	120220	12022020	074751	182.18	12.893598	-57.115605	182.18	0.440	-0.960	0.360	182.10	-2.30	0.80	 	 	 	 	 	 	 	 	 	 	 	 	 	 	 	 	 	 	1581493671	5.32	9.85
12/02/2020 07:47:52	120220	12022020	074752	181.60	12.893572	-57.115610	181.54	0.020	-1.820	1.740	181.43	-3.20	2.20	 	 	 	 	 	 	 	 	 	 	 	 	 	 	 	 	 	 	1581493672	5.73	10.61
12/02/2020 07:47:53	120220	12022020	074753	180.70	12.893545	-57.115622	180.65	-0.490	-1.980	3.490	180.51	-3.40	3.90	 	 	 	 	 	 	 	 	 	 	 	 	 	 	 	 	 	 	1581493673	6.32	11.70
12/02/2020 07:47:54	120220	12022020	074754	180.02	12.893520	-57.115640	179.95	-0.850	-1.170	4.780	179.89	-2.60	5.20	 	 	 	 	 	 	 	 	 	 	 	 	 	 	 	 	 	 	1581493674	6.63	12.28
12/02/2020 07:47:55	120220	12022020	074755	179.80	12.893497	-57.115658	180.05	-0.830	0.410	4.920	179.89	-1.10	5.40	 	 	 	 	 	 	 	 	 	 	 	 	 	 	 	 	 	 	1581493675	6.25	11.58
12/02/2020 07:47:56	120220	12022020	074756	180.44	12.893478	-57.115670	180.73	-0.390	1.550	3.880	180.61	0.10	4.40	 	 	 	 	 	 	 	 	 	 	 	 	 	 	 	 	 	 	1581493676	4.87	9.02
12/02/2020 07:47:57	120220	12022020	074757	181.22	12.893458	-57.115673	181.42	0.310	1.170	2.190	181.33	-0.20	2.80	 	 	 	 	 	 	 	 	 	 	 	 	 	 	 	 	 	 	1581493677	4.35	8.06
12/02/2020 07:47:58	120220	12022020	074758	181.59	12.893432	-57.115668	181.66	0.910	-0.310	0.720	181.60	-1.60	1.30	 	 	 	 	 	 	 	 	 	 	 	 	 	 	 	 	 	 	1581493678	5.85	10.83
12/02/2020 07:47:59	120220	12022020	074759	181.47	12.893400	-57.115660	181.48	1.010	-1.490	0.100	181.40	-2.80	0.60	 	 	 	 	 	 	 	 	 	 	 	 	 	 	 	 	 	 	1581493679	6.97	12.91
12/02/2020 07:48:00	120220	12022020	074800	181.09	12.893370	-57.115655	181.10	0.490	-1.600	0.420	181.01	-3.00	0.90	 	 	 	 	 	 	 	 	 	 	 	 	 	 	 	 	 	 	1581493680	6.53	12.09
12/02/2020 07:48:01	120220	12022020	074801	180.73	12.893345	-57.115657	180.79	-0.440	-0.750	1.450	180.67	-2.20	1.90	1014.70	26.10	26.20	20.90	20.90	-1.0	73.0	72.0	401.0	25.8	279.00	10.80	85.00	10.70	16	9319.0	27.4	27.4	1581493681	5.42	10.04
12/02/2020 07:48:02	120220	12022020	074802	180.43	12.893323	-57.115668	180.49	-1.190	0.300	2.740	180.37	-1.10	3.20	 	 	 	 	 	 	 	 	 	 	 	 	 	 	 	 	 	 	1581493682	5.03	9.32
12/02/2020 07:48:03	120220	12022020	074803	180.15	12.893303	-57.115685	180.26	-1.210	0.840	3.810	180.11	-0.60	4.30	 	 	 	 	 	 	 	 	 	 	 	 	 	 	 	 	 	 	1581493683	5.62	10.41
12/02/2020 07:48:04	120220	12022020	074804	180.08	12.893280	-57.115702	180.28	-0.490	0.800	4.090	180.12	-0.60	4.60	 	 	 	 	 	 	 	 	 	 	 	 	 	 	 	 	 	 	1581493684	6.11	11.32
12/02/2020 07:48:05	120220	12022020	074805	180.45	12.893255	-57.115712	180.68	0.400	0.380	3.380	180.55	-1.00	3.90	 	 	 	 	 	 	 	 	 	 	 	 	 	 	 	 	 	 	1581493685	5.94	11.00
12/02/2020 07:48:06	120220	12022020	074806	180.96	12.893228	-57.115713	181.17	0.870	-0.270	2.300	181.05	-1.60	2.80	 	 	 	 	 	 	 	 	 	 	 	 	 	 	 	 	 	 	1581493686	5.67	10.50
12/02/2020 07:48:07	120220	12022020	074807	181.34	12.893202	-57.115712	181.51	0.760	-0.800	1.490	181.40	-2.20	2.00	 	 	 	 	 	 	 	 	 	 	 	 	 	 	 	 	 	 	1581493687	5.69	10.54
12/02/2020 07:48:08	120220	12022020	074808	181.59	12.893177	-57.115710	181.81	0.250	-0.800	1.130	181.64	-2.20	1.70	 	 	 	 	 	 	 	 	 	 	 	 	 	 	 	 	 	 	1581493688	5.46	10.11
12/02/2020 07:48:09	120220	12022020	074809	181.80	12.893155	-57.115712	181.91	-0.170	-0.520	1.150	181.79	-1.90	1.70	 	 	 	 	 	 	 	 	 	 	 	 	 	 	 	 	 	 	1581493689	4.81	8.91
12/02/2020 07:48:10	120220	12022020	074810	181.52	12.893133	-57.115717	181.52	-0.070	-0.580	1.560	181.41	-2.00	2.00	 	 	 	 	 	 	 	 	 	 	 	 	 	 	 	 	 	 	1581493690	4.67	8.65
12/02/2020 07:48:11	120220	12022020	074811	180.87	12.893108	-57.115723	180.90	0.360	-0.910	2.220	180.75	-2.30	2.70	 	 	 	 	 	 	 	 	 	 	 	 	 	 	 	 	 	 	1581493691	5.36	9.93
12/02/2020 07:48:12	120220	12022020	074812	180.40	12.893082	-57.115728	180.53	0.400	-0.690	2.790	180.37	-2.10	3.30	 	 	 	 	 	 	 	 	 	 	 	 	 	 	 	 	 	 	1581493692	6.01	11.13
12/02/2020 07:48:13	120220	12022020	074813	180.53	12.893057	-57.115733	180.78	-0.230	0.220	3.100	180.64	-1.20	3.60	 	 	 	 	 	 	 	 	 	 	 	 	 	 	 	 	 	 	1581493693	5.62	10.41
12/02/2020 07:48:14	120220	12022020	074814	181.22	12.893035	-57.115742	181.50	-1.050	1.110	3.080	181.38	-0.30	3.60	 	 	 	 	 	 	 	 	 	 	 	 	 	 	 	 	 	 	1581493694	4.87	9.02
12/02/2020 07:48:15	120220	12022020	074815	181.95	12.893015	-57.115752	182.18	-1.210	1.120	2.710	182.07	-0.30	3.20	 	 	 	 	 	 	 	 	 	 	 	 	 	 	 	 	 	 	1581493695	4.76	8.82
12/02/2020 07:48:16	120220	12022020	074816	182.36	12.892992	-57.115760	182.50	-0.330	0.060	1.880	182.39	-1.30	2.40	 	 	 	 	 	 	 	 	 	 	 	 	 	 	 	 	 	 	1581493696	5.29	9.80
12/02/2020 07:48:17	120220	12022020	074817	182.38	12.892963	-57.115763	182.44	0.860	-1.190	1.130	182.34	-2.50	1.70	 	 	 	 	 	 	 	 	 	 	 	 	 	 	 	 	 	 	1581493697	6.12	11.33
12/02/2020 07:48:18	120220	12022020	074818	182.15	12.892933	-57.115763	182.08	1.320	-1.660	0.820	182.07	-3.00	1.30	 	 	 	 	 	 	 	 	 	 	 	 	 	 	 	 	 	 	1581493698	6.44	11.93
12/02/2020 07:48:19	120220	12022020	074819	181.71	12.892907	-57.115762	181.78	0.630	-0.930	0.900	181.67	-2.40	1.40	 	 	 	 	 	 	 	 	 	 	 	 	 	 	 	 	 	 	1581493699	5.79	10.72
12/02/2020 07:48:20	120220	12022020	074820	181.63	12.892885	-57.115765	181.78	-0.610	0.470	1.280	181.64	-1.00	1.80	 	 	 	 	 	 	 	 	 	 	 	 	 	 	 	 	 	 	1581493700	4.67	8.65
12/02/2020 07:48:21	120220	12022020	074821	181.89	12.892868	-57.115775	182.08	-1.340	1.430	1.610	181.96	0.00	2.10	 	 	 	 	 	 	 	 	 	 	 	 	 	 	 	 	 	 	1581493701	4.31	7.98
12/02/2020 07:48:22	120220	12022020	074822	182.20	12.892848	-57.115787	182.46	-0.970	1.190	1.580	182.28	-0.20	2.10	 	 	 	 	 	 	 	 	 	 	 	 	 	 	 	 	 	 	1581493702	4.88	9.04
12/02/2020 07:48:23	120220	12022020	074823	182.48	12.892823	-57.115797	182.62	0.160	-0.070	1.370	182.50	-1.40	1.90	 	 	 	 	 	 	 	 	 	 	 	 	 	 	 	 	 	 	1581493703	5.69	10.54
12/02/2020 07:48:24	120220	12022020	074824	182.48	12.892793	-57.115802	182.58	1.120	-1.300	1.190	182.46	-2.60	1.70	 	 	 	 	 	 	 	 	 	 	 	 	 	 	 	 	 	 	1581493704	6.48	12.00
12/02/2020 07:48:25	120220	12022020	074825	182.37	12.892765	-57.115805	182.45	1.160	-1.510	1.200	182.34	-2.90	1.70	 	 	 	 	 	 	 	 	 	 	 	 	 	 	 	 	 	 	1581493705	6.35	11.76
12/02/2020 07:48:26	120220	12022020	074826	182.18	12.892740	-57.115807	182.25	0.400	-0.830	1.450	182.14	-2.30	1.90	 	 	 	 	 	 	 	 	 	 	 	 	 	 	 	 	 	 	1581493706	5.29	9.80
12/02/2020 07:48:27	120220	12022020	074827	181.91	12.892720	-57.115810	181.97	-0.490	-0.150	1.990	181.84	-1.50	2.50	 	 	 	 	 	 	 	 	 	 	 	 	 	 	 	 	 	 	1581493707	4.48	8.30
12/02/2020 07:48:28	120220	12022020	074828	181.43	12.892698	-57.115818	181.46	-0.850	-0.040	2.830	181.31	-1.40	3.30	 	 	 	 	 	 	 	 	 	 	 	 	 	 	 	 	 	 	1581493708	4.83	8.95
12/02/2020 07:48:29	120220	12022020	074829	180.83	12.892673	-57.115830	180.87	-0.610	-0.230	3.580	180.73	-1.60	4.00	 	 	 	 	 	 	 	 	 	 	 	 	 	 	 	 	 	 	1581493709	5.89	10.91
12/02/2020 07:48:30	120220	12022020	074830	180.56	12.892647	-57.115842	180.71	-0.180	-0.030	3.650	180.58	-1.40	4.10	 	 	 	 	 	 	 	 	 	 	 	 	 	 	 	 	 	 	1581493710	6.34	11.74
12/02/2020 07:48:31	120220	12022020	074831	180.90	12.892622	-57.115848	181.14	0.060	0.600	3.010	181.03	-0.80	3.50	 	 	 	 	 	 	 	 	 	 	 	 	 	 	 	 	 	 	1581493711	5.66	10.48
12/02/2020 07:48:32	120220	12022020	074832	181.57	12.892600	-57.115852	181.78	0.080	1.000	1.970	181.69	-0.40	2.50	 	 	 	 	 	 	 	 	 	 	 	 	 	 	 	 	 	 	1581493712	4.71	8.72
12/02/2020 07:48:33	120220	12022020	074833	181.98	12.892578	-57.115852	182.08	0.150	0.510	1.130	182.00	-0.80	1.70	 	 	 	 	 	 	 	 	 	 	 	 	 	 	 	 	 	 	1581493713	4.55	8.43
12/02/2020 07:48:34	120220	12022020	074834	181.89	12.892553	-57.115850	181.92	0.360	-0.540	0.880	181.83	-1.90	1.40	 	 	 	 	 	 	 	 	 	 	 	 	 	 	 	 	 	 	1581493714	5.29	9.80
12/02/2020 07:48:35	120220	12022020	074835	181.52	12.892527	-57.115853	181.55	0.490	-1.240	1.020	181.44	-2.60	1.50	 	 	 	 	 	 	 	 	 	 	 	 	 	 	 	 	 	 	1581493715	5.85	10.83
12/02/2020 07:48:36	120220	12022020	074836	181.10	12.892500	-57.115857	181.14	0.400	-1.240	1.360	181.02	-2.60	1.80	 	 	 	 	 	 	 	 	 	 	 	 	 	 	 	 	 	 	1581493716	5.60	10.37
12/02/2020 07:48:37	120220	12022020	074837	180.75	12.892478	-57.115863	180.82	0.170	-0.800	1.760	180.69	-2.20	2.20	 	 	 	 	 	 	 	 	 	 	 	 	 	 	 	 	 	 	1581493717	5.09	9.43
12/02/2020 07:48:38	120220	12022020	074838	180.50	12.892457	-57.115870	180.59	0.010	-0.420	2.120	180.46	-1.80	2.60	 	 	 	 	 	 	 	 	 	 	 	 	 	 	 	 	 	 	1581493718	4.88	9.04
12/02/2020 07:48:39	120220	12022020	074839	180.33	12.892433	-57.115875	180.44	-0.040	-0.250	2.250	180.31	-1.60	2.80	 	 	 	 	 	 	 	 	 	 	 	 	 	 	 	 	 	 	1581493719	5.09	9.43
12/02/2020 07:48:40	120220	12022020	074840	180.30	12.892408	-57.115878	180.44	-0.120	-0.090	2.160	180.33	-1.50	2.70	 	 	 	 	 	 	 	 	 	 	 	 	 	 	 	 	 	 	1581493720	5.43	10.06
12/02/2020 07:48:41	120220	12022020	074841	180.48	12.892383	-57.115882	180.68	-0.370	0.150	2.060	180.54	-1.20	2.50	 	 	 	 	 	 	 	 	 	 	 	 	 	 	 	 	 	 	1581493721	5.47	10.13
12/02/2020 07:48:42	120220	12022020	074842	180.75	12.892358	-57.115888	180.94	-0.610	0.320	2.150	180.79	-1.10	2.60	 	 	 	 	 	 	 	 	 	 	 	 	 	 	 	 	 	 	1581493722	5.35	9.91
12/02/2020 07:48:43	120220	12022020	074843	180.90	12.892335	-57.115895	181.05	-0.580	0.380	2.190	180.91	-1.00	2.70	 	 	 	 	 	 	 	 	 	 	 	 	 	 	 	 	 	 	1581493723	5.34	9.89
12/02/2020 07:48:44	120220	12022020	074844	180.86	12.892312	-57.115902	180.90	-0.300	0.230	2.170	180.82	-1.10	2.70	 	 	 	 	 	 	 	 	 	 	 	 	 	 	 	 	 	 	1581493724	5.24	9.70
12/02/2020 07:48:45	120220	12022020	074845	180.50	12.892287	-57.115907	180.55	0.110	-0.130	2.250	180.41	-1.50	2.80	 	 	 	 	 	 	 	 	 	 	 	 	 	 	 	 	 	 	1581493725	5.31	9.83
12/02/2020 07:48:46	120220	12022020	074846	180.17	12.892262	-57.115910	180.18	0.540	-0.490	2.310	180.10	-1.90	2.80	 	 	 	 	 	 	 	 	 	 	 	 	 	 	 	 	 	 	1581493726	5.51	10.20
12/02/2020 07:48:47	120220	12022020	074847	179.92	12.892237	-57.115915	180.07	0.820	-0.530	1.950	179.94	-1.90	2.50	 	 	 	 	 	 	 	 	 	 	 	 	 	 	 	 	 	 	1581493727	5.54	10.26
12/02/2020 07:48:48	120220	12022020	074848	180.22	12.892212	-57.115915	180.41	0.790	-0.290	1.320	180.30	-1.70	1.90	 	 	 	 	 	 	 	 	 	 	 	 	 	 	 	 	 	 	1581493728	5.16	9.56
12/02/2020 07:48:49	120220	12022020	074849	180.62	12.892190	-57.115913	180.77	0.440	-0.150	1.100	180.67	-1.50	1.60	 	 	 	 	 	 	 	 	 	 	 	 	 	 	 	 	 	 	1581493729	4.75	8.80
12/02/2020 07:48:50	120220	12022020	074850	180.64	12.892168	-57.115915	180.72	-0.020	-0.280	1.540	180.59	-1.60	2.00	 	 	 	 	 	 	 	 	 	 	 	 	 	 	 	 	 	 	1581493730	4.74	8.78
12/02/2020 07:48:51	120220	12022020	074851	180.36	12.892145	-57.115920	180.44	-0.410	-0.430	2.180	180.30	-1.80	2.70	 	 	 	 	 	 	 	 	 	 	 	 	 	 	 	 	 	 	1581493731	5.20	9.63
12/02/2020 07:48:52	120220	12022020	074852	180.06	12.892120	-57.115928	180.15	-0.580	-0.530	2.740	179.99	-1.90	3.20	 	 	 	 	 	 	 	 	 	 	 	 	 	 	 	 	 	 	1581493732	5.49	10.17
12/02/2020 07:48:53	120220	12022020	074853	179.69	12.892095	-57.115938	179.78	-0.380	-0.690	3.220	179.62	-2.00	3.70	 	 	 	 	 	 	 	 	 	 	 	 	 	 	 	 	 	 	1581493733	5.68	10.52
12/02/2020 07:48:54	120220	12022020	074854	179.35	12.892070	-57.115947	179.45	0.090	-0.740	3.250	179.30	-2.10	3.80	 	 	 	 	 	 	 	 	 	 	 	 	 	 	 	 	 	 	1581493734	5.86	10.85
12/02/2020 07:48:55	120220	12022020	074855	179.21	12.892043	-57.115952	179.38	0.370	-0.420	2.750	179.22	-1.80	3.30	 	 	 	 	 	 	 	 	 	 	 	 	 	 	 	 	 	 	1581493735	5.70	10.56
12/02/2020 07:48:56	120220	12022020	074856	179.36	12.892018	-57.115950	179.56	0.100	0.210	2.100	179.43	-1.20	2.60	 	 	 	 	 	 	 	 	 	 	 	 	 	 	 	 	 	 	1581493736	5.30	9.82
12/02/2020 07:48:57	120220	12022020	074857	179.75	12.891997	-57.115950	179.96	-0.550	0.790	1.660	179.84	-0.60	2.20	 	 	 	 	 	 	 	 	 	 	 	 	 	 	 	 	 	 	1581493737	4.81	8.91
12/02/2020 07:48:58	120220	12022020	074858	180.09	12.891975	-57.115953	180.36	-1.010	1.040	1.510	180.17	-0.30	2.00	 	 	 	 	 	 	 	 	 	 	 	 	 	 	 	 	 	 	1581493738	4.64	8.59
12/02/2020 07:48:59	120220	12022020	074859	180.50	12.891953	-57.115958	180.67	-0.840	0.780	1.440	180.56	-0.60	2.00	 	 	 	 	 	 	 	 	 	 	 	 	 	 	 	 	 	 	1581493739	4.90	9.07
12/02/2020 07:49:00	120220	12022020	074900	180.68	12.891930	-57.115967	180.78	-0.030	0.030	1.340	180.67	-1.30	1.90	 	 	 	 	 	 	 	 	 	 	 	 	 	 	 	 	 	 	1581493740	5.28	9.78
12/02/2020 07:49:01	120220	12022020	074901	180.53	12.891905	-57.115972	180.60	1.020	-0.920	1.280	180.47	-2.20	1.80	1014.70	26.10	26.20	20.90	20.90	-1.0	73.0	73.0	402.0	25.8	275.00	10.40	81.00	10.50	16	10135.0	27.4	27.3	1581493741	5.60	10.37
12/02/2020 07:49:02	120220	12022020	074902	180.22	12.891878	-57.115975	180.30	1.720	-1.510	1.130	180.16	-2.90	1.60	 	 	 	 	 	 	 	 	 	 	 	 	 	 	 	 	 	 	1581493742	5.76	10.67
12/02/2020 07:49:03	120220	12022020	074903	179.93	12.891852	-57.115972	180.02	1.580	-1.460	1.040	179.88	-2.80	1.50	 	 	 	 	 	 	 	 	 	 	 	 	 	 	 	 	 	 	1581493743	5.58	10.33
12/02/2020 07:49:04	120220	12022020	074904	179.78	12.891828	-57.115968	179.91	0.520	-0.800	1.310	179.78	-2.20	1.80	 	 	 	 	 	 	 	 	 	 	 	 	 	 	 	 	 	 	1581493744	5.14	9.52
12/02/2020 07:49:05	120220	12022020	074905	179.83	12.891807	-57.115968	180.00	-0.960	0.100	2.060	179.85	-1.30	2.50	 	 	 	 	 	 	 	 	 	 	 	 	 	 	 	 	 	 	1581493745	4.60	8.52
12/02/2020 07:49:06	120220	12022020	074906	179.94	12.891787	-57.115978	180.11	-2.010	0.680	3.040	179.95	-0.70	3.50	 	 	 	 	 	 	 	 	 	 	 	 	 	 	 	 	 	 	1581493746	4.92	9.11
12/02/2020 07:49:07	120220	12022020	074907	179.95	12.891765	-57.115997	180.11	-2.050	0.670	3.790	179.94	-0.70	4.30	 	 	 	 	 	 	 	 	 	 	 	 	 	 	 	 	 	 	1581493747	5.96	11.04
12/02/2020 07:49:08	120220	12022020	074908	179.84	12.891740	-57.116013	180.00	-1.070	0.260	3.910	179.81	-1.10	4.40	 	 	 	 	 	 	 	 	 	 	 	 	 	 	 	 	 	 	1581493748	6.50	12.04
12/02/2020 07:49:09	120220	12022020	074909	179.70	12.891712	-57.116025	179.86	0.270	-0.140	3.240	179.69	-1.50	3.80	 	 	 	 	 	 	 	 	 	 	 	 	 	 	 	 	 	 	1581493749	6.23	11.54
12/02/2020 07:49:10	120220	12022020	074910	179.74	12.891687	-57.116027	179.95	1.180	-0.250	1.860	179.78	-1.60	2.40	 	 	 	 	 	 	 	 	 	 	 	 	 	 	 	 	 	 	1581493750	5.70	10.56
12/02/2020 07:49:11	120220	12022020	074911	180.13	12.891662	-57.116022	180.29	1.360	-0.230	0.310	180.22	-1.60	0.90	 	 	 	 	 	 	 	 	 	 	 	 	 	 	 	 	 	 	1581493751	5.29	9.80
12/02/2020 07:49:12	120220	12022020	074912	180.42	12.891640	-57.116013	180.55	1.070	-0.410	-0.710	180.46	-1.80	-0.20	 	 	 	 	 	 	 	 	 	 	 	 	 	 	 	 	 	 	1581493752	5.17	9.57
12/02/2020 07:49:13	120220	12022020	074913	180.41	12.891617	-57.116005	180.45	0.550	-0.760	-0.680	180.37	-2.10	-0.20	 	 	 	 	 	 	 	 	 	 	 	 	 	 	 	 	 	 	1581493753	5.27	9.76
12/02/2020 07:49:14	120220	12022020	074914	180.15	12.891592	-57.116003	180.21	-0.160	-0.900	0.270	180.09	-2.30	0.70	 	 	 	 	 	 	 	 	 	 	 	 	 	 	 	 	 	 	1581493754	5.34	9.89
12/02/2020 07:49:15	120220	12022020	074915	179.87	12.891567	-57.116012	179.97	-0.920	-0.590	1.670	179.82	-2.00	2.10	 	 	 	 	 	 	 	 	 	 	 	 	 	 	 	 	 	 	1581493755	5.46	10.11
12/02/2020 07:49:16	120220	12022020	074916	179.69	12.891543	-57.116025	179.82	-1.360	0.010	3.060	179.67	-1.40	3.50	 	 	 	 	 	 	 	 	 	 	 	 	 	 	 	 	 	 	1581493756	5.82	10.78
12/02/2020 07:49:17	120220	12022020	074917	179.65	12.891522	-57.116043	179.84	-1.110	0.490	3.900	179.67	-0.90	4.40	 	 	 	 	 	 	 	 	 	 	 	 	 	 	 	 	 	 	1581493757	6.03	11.17
12/02/2020 07:49:18	120220	12022020	074918	179.80	12.891500	-57.116058	180.01	-0.220	0.530	3.670	179.84	-0.80	4.20	 	 	 	 	 	 	 	 	 	 	 	 	 	 	 	 	 	 	1581493758	5.73	10.61
12/02/2020 07:49:19	120220	12022020	074919	180.01	12.891475	-57.116063	180.18	0.760	0.120	2.750	180.04	-1.20	3.30	 	 	 	 	 	 	 	 	 	 	 	 	 	 	 	 	 	 	1581493759	5.34	9.89
12/02/2020 07:49:20	120220	12022020	074920	180.02	12.891450	-57.116060	180.12	1.240	-0.530	1.770	179.98	-1.90	2.30	 	 	 	 	 	 	 	 	 	 	 	 	 	 	 	 	 	 	1581493760	5.56	10.30
12/02/2020 07:49:21	120220	12022020	074921	179.75	12.891423	-57.116055	179.82	1.060	-0.930	1.150	179.68	-2.30	1.70	 	 	 	 	 	 	 	 	 	 	 	 	 	 	 	 	 	 	1581493761	5.82	10.78
12/02/2020 07:49:22	120220	12022020	074922	179.50	12.891397	-57.116053	179.62	0.380	-0.590	0.930	179.48	-2.00	1.40	 	 	 	 	 	 	 	 	 	 	 	 	 	 	 	 	 	 	1581493762	5.54	10.26
12/02/2020 07:49:23	120220	12022020	074923	179.67	12.891375	-57.116053	179.90	-0.420	0.330	0.730	179.76	-1.10	1.30	 	 	 	 	 	 	 	 	 	 	 	 	 	 	 	 	 	 	1581493763	4.76	8.82
12/02/2020 07:49:24	120220	12022020	074924	180.26	12.891357	-57.116058	180.53	-0.890	0.870	0.610	180.40	-0.50	1.10	 	 	 	 	 	 	 	 	 	 	 	 	 	 	 	 	 	 	1581493764	4.16	7.70
12/02/2020 07:49:25	120220	12022020	074925	180.84	12.891337	-57.116065	181.05	-0.700	0.310	0.720	180.91	-1.00	1.20	 	 	 	 	 	 	 	 	 	 	 	 	 	 	 	 	 	 	1581493765	4.53	8.39
12/02/2020 07:49:26	120220	12022020	074926	181.02	12.891310	-57.116073	181.14	0.020	-0.990	1.020	181.00	-2.30	1.50	 	 	 	 	 	 	 	 	 	 	 	 	 	 	 	 	 	 	1581493766	5.63	10.43
12/02/2020 07:49:27	120220	12022020	074927	180.74	12.891282	-57.116078	180.81	0.720	-1.920	1.590	180.64	-3.30	2.10	 	 	 	 	 	 	 	 	 	 	 	 	 	 	 	 	 	 	1581493767	6.44	11.93
12/02/2020 07:49:28	120220	12022020	074928	180.19	12.891253	-57.116082	180.26	0.800	-1.650	2.370	180.08	-3.10	2.80	 	 	 	 	 	 	 	 	 	 	 	 	 	 	 	 	 	 	1581493768	6.27	11.61
12/02/2020 07:49:29	120220	12022020	074929	179.75	12.891228	-57.116087	179.88	0.150	-0.390	3.090	179.70	-1.80	3.60	 	 	 	 	 	 	 	 	 	 	 	 	 	 	 	 	 	 	1581493769	5.32	9.85
12/02/2020 07:49:30	120220	12022020	074930	179.64	12.891208	-57.116092	179.83	-0.720	0.950	3.420	179.66	-0.50	3.90	 	 	 	 	 	 	 	 	 	 	 	 	 	 	 	 	 	 	1581493770	4.56	8.45
12/02/2020 07:49:31	120220	12022020	074931	179.79	12.891188	-57.116100	179.98	-1.080	1.570	3.270	179.84	0.20	3.80	 	 	 	 	 	 	 	 	 	 	 	 	 	 	 	 	 	 	1581493771	4.61	8.54
12/02/2020 07:49:32	120220	12022020	074932	180.06	12.891165	-57.116108	180.22	-0.570	1.290	2.740	180.11	-0.10	3.30	 	 	 	 	 	 	 	 	 	 	 	 	 	 	 	 	 	 	1581493772	5.16	9.56
12/02/2020 07:49:33	120220	12022020	074933	180.29	12.891140	-57.116113	180.44	0.440	0.480	1.910	180.34	-0.90	2.50	 	 	 	 	 	 	 	 	 	 	 	 	 	 	 	 	 	 	1581493773	5.65	10.46
12/02/2020 07:49:34	120220	12022020	074934	180.50	12.891112	-57.116115	180.71	1.160	-0.270	0.950	180.56	-1.60	1.50	 	 	 	 	 	 	 	 	 	 	 	 	 	 	 	 	 	 	1581493774	5.85	10.83
12/02/2020 07:49:35	120220	12022020	074935	180.86	12.891087	-57.116110	181.00	1.080	-0.880	0.410	180.90	-2.20	0.90	 	 	 	 	 	 	 	 	 	 	 	 	 	 	 	 	 	 	1581493775	5.61	10.39
12/02/2020 07:49:36	120220	12022020	074936	180.96	12.891063	-57.116107	181.01	0.360	-1.570	0.910	180.94	-2.90	1.40	 	 	 	 	 	 	 	 	 	 	 	 	 	 	 	 	 	 	1581493776	5.24	9.70
12/02/2020 07:49:37	120220	12022020	074937	180.53	12.891038	-57.116112	180.54	-0.410	-2.140	2.320	180.39	-3.50	2.80	 	 	 	 	 	 	 	 	 	 	 	 	 	 	 	 	 	 	1581493777	5.46	10.11
12/02/2020 07:49:38	120220	12022020	074938	179.62	12.891012	-57.116125	179.59	-0.720	-1.980	3.990	179.42	-3.40	4.40	 	 	 	 	 	 	 	 	 	 	 	 	 	 	 	 	 	 	1581493778	6.33	11.72
12/02/2020 07:49:39	120220	12022020	074939	178.68	12.890987	-57.116143	178.78	-0.540	-0.670	5.270	178.56	-2.10	5.70	 	 	 	 	 	 	 	 	 	 	 	 	 	 	 	 	 	 	1581493779	6.62	12.26
12/02/2020 07:49:40	120220	12022020	074940	178.50	12.890965	-57.116158	178.78	-0.100	1.170	5.380	178.57	-0.30	5.90	 	 	 	 	 	 	 	 	 	 	 	 	 	 	 	 	 	 	1581493780	5.67	10.50
12/02/2020 07:49:41	120220	12022020	074941	179.04	12.890945	-57.116165	179.34	0.310	2.010	4.360	179.17	0.60	4.90	 	 	 	 	 	 	 	 	 	 	 	 	 	 	 	 	 	 	1581493781	4.24	7.85
12/02/2020 07:49:42	120220	12022020	074942	179.58	12.890925	-57.116163	179.79	0.610	1.190	2.890	179.66	-0.20	3.40	 	 	 	 	 	 	 	 	 	 	 	 	 	 	 	 	 	 	1581493782	4.63	8.57
12/02/2020 07:49:43	120220	12022020	074943	179.84	12.890897	-57.116155	179.98	0.690	-0.380	1.690	179.87	-1.70	2.20	 	 	 	 	 	 	 	 	 	 	 	 	 	 	 	 	 	 	1581493783	6.20	11.48
12/02/2020 07:49:44	120220	12022020	074944	179.87	12.890867	-57.116150	179.96	0.390	-1.390	1.210	179.86	-2.80	1.70	 	 	 	 	 	 	 	 	 	 	 	 	 	 	 	 	 	 	1581493784	6.70	12.41
12/02/2020 07:49:45	120220	12022020	074945	179.67	12.890838	-57.116150	179.71	-0.140	-1.430	1.350	179.60	-2.80	1.90	 	 	 	 	 	 	 	 	 	 	 	 	 	 	 	 	 	 	1581493785	5.84	10.82
12/02/2020 07:49:46	120220	12022020	074946	179.31	12.890817	-57.116155	179.36	-0.540	-0.890	1.770	179.26	-2.30	2.30	 	 	 	 	 	 	 	 	 	 	 	 	 	 	 	 	 	 	1581493786	5.05	9.35
12/02/2020 07:49:47	120220	12022020	074947	179.10	12.890795	-57.116165	179.20	-0.520	-0.370	2.070	179.08	-1.80	2.60	 	 	 	 	 	 	 	 	 	 	 	 	 	 	 	 	 	 	1581493787	4.91	9.09
12/02/2020 07:49:48	120220	12022020	074948	179.03	12.890773	-57.116173	179.16	-0.130	-0.140	2.130	179.03	-1.50	2.60	 	 	 	 	 	 	 	 	 	 	 	 	 	 	 	 	 	 	1581493788	5.06	9.37
12/02/2020 07:49:49	120220	12022020	074949	179.27	12.890748	-57.116178	179.49	0.160	0.110	1.770	179.37	-1.30	2.30	 	 	 	 	 	 	 	 	 	 	 	 	 	 	 	 	 	 	1581493789	5.38	9.96
12/02/2020 07:49:50	120220	12022020	074950	179.92	12.890723	-57.116180	180.16	0.070	0.520	1.250	180.06	-0.90	1.80	 	 	 	 	 	 	 	 	 	 	 	 	 	 	 	 	 	 	1581493790	5.26	9.74
12/02/2020 07:49:51	120220	12022020	074951	180.56	12.890702	-57.116182	180.74	-0.220	0.710	1.040	180.63	-0.70	1.60	 	 	 	 	 	 	 	 	 	 	 	 	 	 	 	 	 	 	1581493791	4.80	8.89
12/02/2020 07:49:52	120220	12022020	074952	180.73	12.890680	-57.116183	180.83	-0.270	0.230	1.420	180.70	-1.10	1.90	 	 	 	 	 	 	 	 	 	 	 	 	 	 	 	 	 	 	1581493792	4.78	8.85
12/02/2020 07:49:53	120220	12022020	074953	180.47	12.890655	-57.116188	180.54	0.030	-0.640	2.100	180.40	-2.00	2.60	 	 	 	 	 	 	 	 	 	 	 	 	 	 	 	 	 	 	1581493793	5.48	10.15
12/02/2020 07:49:54	120220	12022020	074954	180.12	12.890627	-57.116197	180.23	0.460	-1.210	2.720	180.06	-2.60	3.20	 	 	 	 	 	 	 	 	 	 	 	 	 	 	 	 	 	 	1581493794	6.06	11.22
12/02/2020 07:49:55	120220	12022020	074955	179.92	12.890602	-57.116203	180.10	0.680	-1.130	2.890	179.92	-2.50	3.40	 	 	 	 	 	 	 	 	 	 	 	 	 	 	 	 	 	 	1581493795	5.87	10.87
12/02/2020 07:49:56	120220	12022020	074956	180.03	12.890577	-57.116207	180.23	0.470	-0.610	2.540	180.08	-2.00	3.10	 	 	 	 	 	 	 	 	 	 	 	 	 	 	 	 	 	 	1581493796	5.18	9.59
12/02/2020 07:49:57	120220	12022020	074957	180.26	12.890555	-57.116207	180.44	-0.100	-0.080	2.150	180.30	-1.50	2.70	 	 	 	 	 	 	 	 	 	 	 	 	 	 	 	 	 	 	1581493797	4.76	8.82
12/02/2020 07:49:58	120220	12022020	074958	180.42	12.890533	-57.116210	180.59	-0.680	0.320	2.000	180.45	-1.10	2.50	 	 	 	 	 	 	 	 	 	 	 	 	 	 	 	 	 	 	1581493798	4.79	8.87
12/02/2020 07:49:59	120220	12022020	074959	180.59	12.890510	-57.116215	180.77	-0.950	0.650	1.950	180.64	-0.70	2.50	 	 	 	 	 	 	 	 	 	 	 	 	 	 	 	 	 	 	1581493799	5.03	9.32
12/02/2020 07:50:00	120220	12022020	075000	180.78	12.890487	-57.116222	180.93	-0.730	0.660	1.870	180.79	-0.70	2.40	 	 	 	 	 	 	 	 	 	 	 	 	 	 	 	 	 	 	1581493800	5.06	9.37
12/02/2020 07:50:01	120220	12022020	075001	180.76	12.890463	-57.116227	180.88	-0.150	0.070	1.840	180.74	-1.30	2.30	1014.80	26.10	26.10	20.60	20.70	-1.0	71.0	72.0	402.0	25.8	279.00	11.90	85.00	11.80	16	9679.0	27.3	27.3	1581493801	5.25	9.72
12/02/2020 07:50:02	120220	12022020	075002	180.68	12.890437	-57.116232	180.79	0.440	-0.640	1.760	180.67	-2.00	2.30	 	 	 	 	 	 	 	 	 	 	 	 	 	 	 	 	 	 	1581493802	5.80	10.74
12/02/2020 07:50:03	120220	12022020	075003	180.65	12.890410	-57.116235	180.78	0.710	-0.880	1.670	180.64	-2.30	2.20	 	 	 	 	 	 	 	 	 	 	 	 	 	 	 	 	 	 	1581493803	5.83	10.80
12/02/2020 07:50:04	120220	12022020	075004	180.56	12.890387	-57.116238	180.66	0.630	-0.660	1.660	180.52	-2.10	2.20	 	 	 	 	 	 	 	 	 	 	 	 	 	 	 	 	 	 	1581493804	5.25	9.72
12/02/2020 07:50:05	120220	12022020	075005	180.31	12.890363	-57.116240	180.41	0.360	-0.330	1.740	180.27	-1.70	2.30	 	 	 	 	 	 	 	 	 	 	 	 	 	 	 	 	 	 	1581493805	4.78	8.85
12/02/2020 07:50:06	120220	12022020	075006	180.16	12.890342	-57.116242	180.28	0.050	-0.070	1.830	180.15	-1.50	2.30	 	 	 	 	 	 	 	 	 	 	 	 	 	 	 	 	 	 	1581493806	4.81	8.91
12/02/2020 07:50:07	120220	12022020	075007	180.11	12.890318	-57.116247	180.23	-0.220	0.010	2.020	180.09	-1.40	2.50	 	 	 	 	 	 	 	 	 	 	 	 	 	 	 	 	 	 	1581493807	4.99	9.24
12/02/2020 07:50:08	120220	12022020	075008	180.00	12.890295	-57.116252	180.12	-0.410	-0.110	2.350	179.97	-1.50	2.80	 	 	 	 	 	 	 	 	 	 	 	 	 	 	 	 	 	 	1581493808	5.28	9.78
12/02/2020 07:50:09	120220	12022020	075009	179.97	12.890270	-57.116258	180.14	-0.550	-0.240	2.620	179.98	-1.60	3.10	 	 	 	 	 	 	 	 	 	 	 	 	 	 	 	 	 	 	1581493809	5.56	10.30
12/02/2020 07:50:10	120220	12022020	075010	180.13	12.890245	-57.116267	180.31	-0.560	-0.210	2.660	180.18	-1.60	3.20	 	 	 	 	 	 	 	 	 	 	 	 	 	 	 	 	 	 	1581493810	5.59	10.35
12/02/2020 07:50:11	120220	12022020	075011	180.31	12.890222	-57.116273	180.45	-0.300	-0.190	2.540	180.33	-1.60	3.00	 	 	 	 	 	 	 	 	 	 	 	 	 	 	 	 	 	 	1581493811	5.34	9.89
12/02/2020 07:50:12	120220	12022020	075012	180.31	12.890197	-57.116278	180.42	0.190	-0.370	2.220	180.29	-1.70	2.70	 	 	 	 	 	 	 	 	 	 	 	 	 	 	 	 	 	 	1581493812	5.28	9.78
12/02/2020 07:50:13	120220	12022020	075013	180.15	12.890172	-57.116280	180.24	0.630	-0.460	1.780	180.11	-1.80	2.30	 	 	 	 	 	 	 	 	 	 	 	 	 	 	 	 	 	 	1581493813	5.49	10.17
12/02/2020 07:50:14	120220	12022020	075014	179.92	12.890147	-57.116280	180.03	0.680	-0.140	1.420	179.89	-1.50	1.90	 	 	 	 	 	 	 	 	 	 	 	 	 	 	 	 	 	 	1581493814	5.44	10.07
12/02/2020 07:50:15	120220	12022020	075015	179.80	12.890123	-57.116280	179.92	0.320	0.350	1.210	179.79	-1.00	1.70	 	 	 	 	 	 	 	 	 	 	 	 	 	 	 	 	 	 	1581493815	4.97	9.20
12/02/2020 07:50:16	120220	12022020	075016	179.79	12.890102	-57.116280	179.93	-0.210	0.470	1.330	179.80	-0.90	1.80	 	 	 	 	 	 	 	 	 	 	 	 	 	 	 	 	 	 	1581493816	4.65	8.61
12/02/2020 07:50:17	120220	12022020	075017	179.87	12.890078	-57.116283	180.05	-0.580	0.140	1.820	179.91	-1.20	2.30	 	 	 	 	 	 	 	 	 	 	 	 	 	 	 	 	 	 	1581493817	5.02	9.30
12/02/2020 07:50:18	120220	12022020	075018	180.06	12.890053	-57.116292	180.26	-0.570	-0.330	2.400	180.10	-1.70	2.90	 	 	 	 	 	 	 	 	 	 	 	 	 	 	 	 	 	 	1581493818	5.68	10.52
12/02/2020 07:50:19	120220	12022020	075019	180.28	12.890028	-57.116303	180.47	-0.180	-0.640	2.600	180.31	-2.00	3.10	 	 	 	 	 	 	 	 	 	 	 	 	 	 	 	 	 	 	1581493819	5.93	10.98
12/02/2020 07:50:20	120220	12022020	075020	180.31	12.890003	-57.116312	180.44	0.370	-0.860	2.410	180.28	-2.20	2.90	 	 	 	 	 	 	 	 	 	 	 	 	 	 	 	 	 	 	1581493820	5.52	10.22
12/02/2020 07:50:21	120220	12022020	075021	180.05	12.889980	-57.116315	180.12	0.650	-0.960	2.200	179.97	-2.30	2.70	 	 	 	 	 	 	 	 	 	 	 	 	 	 	 	 	 	 	1581493821	5.27	9.76
12/02/2020 07:50:22	120220	12022020	075022	179.71	12.889955	-57.116315	179.81	0.440	-0.730	2.050	179.67	-2.10	2.60	 	 	 	 	 	 	 	 	 	 	 	 	 	 	 	 	 	 	1581493822	5.31	9.83
12/02/2020 07:50:23	120220	12022020	075023	179.69	12.889932	-57.116315	179.87	-0.110	-0.140	1.890	179.74	-1.50	2.40	 	 	 	 	 	 	 	 	 	 	 	 	 	 	 	 	 	 	1581493823	5.18	9.59
12/02/2020 07:50:24	120220	12022020	075024	179.91	12.889908	-57.116318	180.20	-0.540	0.440	1.920	179.98	-1.00	2.40	 	 	 	 	 	 	 	 	 	 	 	 	 	 	 	 	 	 	1581493824	4.92	9.11
12/02/2020 07:50:25	120220	12022020	075025	180.34	12.889885	-57.116325	180.56	-0.560	0.650	2.000	180.41	-0.70	2.50	 	 	 	 	 	 	 	 	 	 	 	 	 	 	 	 	 	 	1581493825	5.02	9.30
12/02/2020 07:50:26	120220	12022020	075026	180.64	12.889862	-57.116330	180.92	-0.300	0.500	1.790	180.70	-0.90	2.30	 	 	 	 	 	 	 	 	 	 	 	 	 	 	 	 	 	 	1581493826	5.31	9.83
12/02/2020 07:50:27	120220	12022020	075027	180.97	12.889837	-57.116335	181.13	-0.020	-0.050	1.500	180.98	-1.40	2.00	 	 	 	 	 	 	 	 	 	 	 	 	 	 	 	 	 	 	1581493827	5.42	10.04
12/02/2020 07:50:28	120220	12022020	075028	180.84	12.889810	-57.116338	180.91	0.180	-0.850	1.640	180.76	-2.20	2.10	 	 	 	 	 	 	 	 	 	 	 	 	 	 	 	 	 	 	1581493828	5.65	10.46
12/02/2020 07:50:29	120220	12022020	075029	180.29	12.889783	-57.116342	180.32	0.300	-1.250	2.230	180.15	-2.60	2.70	 	 	 	 	 	 	 	 	 	 	 	 	 	 	 	 	 	 	1581493829	5.95	11.02
12/02/2020 07:50:30	120220	12022020	075030	179.57	12.889757	-57.116347	179.65	0.250	-0.820	2.940	179.46	-2.20	3.40	 	 	 	 	 	 	 	 	 	 	 	 	 	 	 	 	 	 	1581493830	5.76	10.67
12/02/2020 07:50:31	120220	12022020	075031	179.27	12.889733	-57.116353	179.44	-0.020	0.210	3.220	179.28	-1.20	3.70	 	 	 	 	 	 	 	 	 	 	 	 	 	 	 	 	 	 	1581493831	5.16	9.56
12/02/2020 07:50:32	120220	12022020	075032	179.56	12.889713	-57.116358	179.80	-0.300	1.020	2.790	179.67	-0.40	3.30	 	 	 	 	 	 	 	 	 	 	 	 	 	 	 	 	 	 	1581493832	4.56	8.45
12/02/2020 07:50:33	120220	12022020	075033	180.20	12.889693	-57.116363	180.45	-0.310	0.990	1.880	180.35	-0.40	2.40	 	 	 	 	 	 	 	 	 	 	 	 	 	 	 	 	 	 	1581493833	4.52	8.37
12/02/2020 07:50:34	120220	12022020	075034	180.89	12.889670	-57.116365	181.09	0.000	0.210	1.030	181.00	-1.10	1.60	 	 	 	 	 	 	 	 	 	 	 	 	 	 	 	 	 	 	1581493834	5.09	9.43
12/02/2020 07:50:35	120220	12022020	075035	181.24	12.889643	-57.116367	181.34	0.400	-0.760	0.700	181.23	-2.10	1.20	 	 	 	 	 	 	 	 	 	 	 	 	 	 	 	 	 	 	1581493835	5.68	10.52
12/02/2020 07:50:36	120220	12022020	075036	180.98	12.889615	-57.116368	180.99	0.570	-1.460	0.990	180.87	-2.80	1.50	 	 	 	 	 	 	 	 	 	 	 	 	 	 	 	 	 	 	1581493836	5.88	10.89
12/02/2020 07:50:37	120220	12022020	075037	180.41	12.889588	-57.116372	180.42	0.340	-1.570	1.730	180.30	-3.00	2.20	 	 	 	 	 	 	 	 	 	 	 	 	 	 	 	 	 	 	1581493837	5.76	10.67
12/02/2020 07:50:38	120220	12022020	075038	180.05	12.889563	-57.116377	180.09	-0.130	-1.020	2.450	180.00	-2.40	2.90	 	 	 	 	 	 	 	 	 	 	 	 	 	 	 	 	 	 	1581493838	5.52	10.22
12/02/2020 07:50:39	120220	12022020	075039	179.83	12.889542	-57.116385	179.96	-0.450	-0.210	2.840	179.80	-1.60	3.30	 	 	 	 	 	 	 	 	 	 	 	 	 	 	 	 	 	 	1581493839	5.17	9.57
12/02/2020 07:50:40	120220	12022020	075040	179.69	12.889518	-57.116392	179.83	-0.440	0.270	2.910	179.67	-1.10	3.40	 	 	 	 	 	 	 	 	 	 	 	 	 	 	 	 	 	 	1581493840	5.03	9.32
12/02/2020 07:50:41	120220	12022020	075041	179.66	12.889493	-57.116395	179.83	-0.340	0.380	2.740	179.68	-1.00	3.30	 	 	 	 	 	 	 	 	 	 	 	 	 	 	 	 	 	 	1581493841	5.36	9.93
12/02/2020 07:50:42	120220	12022020	075042	179.83	12.889468	-57.116398	180.02	-0.430	0.420	2.680	179.87	-1.00	3.20	 	 	 	 	 	 	 	 	 	 	 	 	 	 	 	 	 	 	1581493842	5.69	10.54
12/02/2020 07:50:43	120220	12022020	075043	180.00	12.889442	-57.116403	180.15	-0.570	0.530	2.870	180.02	-0.90	3.40	 	 	 	 	 	 	 	 	 	 	 	 	 	 	 	 	 	 	1581493843	5.61	10.39
12/02/2020 07:50:44	120220	12022020	075044	180.05	12.889418	-57.116412	180.20	-0.410	0.620	2.930	180.07	-0.80	3.40	 	 	 	 	 	 	 	 	 	 	 	 	 	 	 	 	 	 	1581493844	5.49	10.17
12/02/2020 07:50:45	120220	12022020	075045	180.26	12.889395	-57.116418	180.45	0.130	0.650	2.450	180.33	-0.70	3.00	 	 	 	 	 	 	 	 	 	 	 	 	 	 	 	 	 	 	1581493845	5.31	9.83
12/02/2020 07:50:46	120220	12022020	075046	180.61	12.889372	-57.116422	180.74	0.820	0.250	1.520	180.65	-1.10	2.10	 	 	 	 	 	 	 	 	 	 	 	 	 	 	 	 	 	 	1581493846	4.95	9.17
12/02/2020 07:50:47	120220	12022020	075047	180.72	12.889348	-57.116420	180.79	1.310	-0.730	0.710	180.69	-2.10	1.20	 	 	 	 	 	 	 	 	 	 	 	 	 	 	 	 	 	 	1581493847	5.14	9.52
12/02/2020 07:50:48	120220	12022020	075048	180.49	12.889322	-57.116417	180.51	1.280	-1.630	0.570	180.41	-3.00	1.10	 	 	 	 	 	 	 	 	 	 	 	 	 	 	 	 	 	 	1581493848	5.78	10.70
12/02/2020 07:50:49	120220	12022020	075049	180.07	12.889295	-57.116415	180.09	0.630	-1.720	1.140	179.98	-3.10	1.60	 	 	 	 	 	 	 	 	 	 	 	 	 	 	 	 	 	 	1581493849	5.78	10.70
12/02/2020 07:50:50	120220	12022020	075050	179.78	12.889270	-57.116418	179.82	-0.350	-1.090	1.980	179.74	-2.50	2.40	 	 	 	 	 	 	 	 	 	 	 	 	 	 	 	 	 	 	1581493850	5.24	9.70
12/02/2020 07:50:51	120220	12022020	075051	179.60	12.889248	-57.116428	179.73	-1.090	-0.360	2.750	179.59	-1.80	3.20	 	 	 	 	 	 	 	 	 	 	 	 	 	 	 	 	 	 	1581493851	5.15	9.54
12/02/2020 07:50:52	120220	12022020	075052	179.62	12.889227	-57.116442	179.84	-1.210	0.100	3.060	179.66	-1.30	3.60	 	 	 	 	 	 	 	 	 	 	 	 	 	 	 	 	 	 	1581493852	5.56	10.30
12/02/2020 07:50:53	120220	12022020	075053	179.91	12.889202	-57.116452	180.10	-0.730	0.280	2.800	179.96	-1.10	3.30	 	 	 	 	 	 	 	 	 	 	 	 	 	 	 	 	 	 	1581493853	5.75	10.65
12/02/2020 07:50:54	120220	12022020	075054	180.12	12.889175	-57.116457	180.29	-0.140	0.280	2.350	180.16	-1.10	2.90	 	 	 	 	 	 	 	 	 	 	 	 	 	 	 	 	 	 	1581493854	5.72	10.59
12/02/2020 07:50:55	120220	12022020	075055	180.34	12.889148	-57.116457	180.52	0.090	0.370	1.930	180.40	-1.00	2.40	 	 	 	 	 	 	 	 	 	 	 	 	 	 	 	 	 	 	1581493855	5.79	10.72
12/02/2020 07:50:56	120220	12022020	075056	180.64	12.889123	-57.116457	180.84	-0.010	0.600	1.750	180.70	-0.80	2.30	 	 	 	 	 	 	 	 	 	 	 	 	 	 	 	 	 	 	1581493856	5.49	10.17
12/02/2020 07:50:57	120220	12022020	075057	180.98	12.889100	-57.116460	181.17	-0.060	0.680	1.660	181.04	-0.70	2.20	 	 	 	 	 	 	 	 	 	 	 	 	 	 	 	 	 	 	1581493857	5.05	9.35
12/02/2020 07:50:58	120220	12022020	075058	181.16	12.889077	-57.116463	181.27	0.260	0.230	1.560	181.15	-1.10	2.10	 	 	 	 	 	 	 	 	 	 	 	 	 	 	 	 	 	 	1581493858	4.92	9.11
12/02/2020 07:50:59	120220	12022020	075059	180.89	12.889052	-57.116467	180.92	0.740	-0.790	1.780	180.77	-2.10	2.30	 	 	 	 	 	 	 	 	 	 	 	 	 	 	 	 	 	 	1581493859	5.30	9.82
12/02/2020 07:51:00	120220	12022020	075100	180.18	12.889025	-57.116470	180.18	0.910	-1.650	2.340	180.02	-3.00	2.80	 	 	 	 	 	 	 	 	 	 	 	 	 	 	 	 	 	 	1581493860	5.94	11.00
12/02/2020 07:51:01	120220	12022020	075101	179.47	12.888997	-57.116475	179.55	0.530	-1.520	2.950	179.39	-2.90	3.40	1014.70	26.10	26.20	20.50	20.60	-1.0	71.0	71.0	400.0	25.8	275.00	11.80	82.00	11.90	16	11005.0	27.3	27.3	1581493861	6.11	11.32
12/02/2020 07:51:02	120220	12022020	075102	179.39	12.888973	-57.116483	179.62	-0.150	-0.380	3.150	179.47	-1.80	3.70	 	 	 	 	 	 	 	 	 	 	 	 	 	 	 	 	 	 	1581493862	5.47	10.13
12/02/2020 07:51:03	120220	12022020	075103	180.05	12.888953	-57.116492	180.36	-0.580	0.810	2.630	180.22	-0.60	3.20	 	 	 	 	 	 	 	 	 	 	 	 	 	 	 	 	 	 	1581493863	4.61	8.54
12/02/2020 07:51:04	120220	12022020	075104	180.88	12.888933	-57.116497	181.12	-0.400	0.850	1.630	181.02	-0.50	2.20	 	 	 	 	 	 	 	 	 	 	 	 	 	 	 	 	 	 	1581493864	4.26	7.89
12/02/2020 07:51:05	120220	12022020	075105	181.40	12.888908	-57.116497	181.57	0.090	-0.170	0.900	181.46	-1.50	1.40	 	 	 	 	 	 	 	 	 	 	 	 	 	 	 	 	 	 	1581493865	5.33	9.87
12/02/2020 07:51:06	120220	12022020	075106	181.65	12.888878	-57.116495	181.78	0.250	-0.980	0.790	181.68	-2.30	1.30	 	 	 	 	 	 	 	 	 	 	 	 	 	 	 	 	 	 	1581493866	6.48	12.00
12/02/2020 07:51:07	120220	12022020	075107	181.74	12.888850	-57.116497	181.83	-0.160	-0.830	1.230	181.73	-2.20	1.70	 	 	 	 	 	 	 	 	 	 	 	 	 	 	 	 	 	 	1581493867	6.18	11.45
12/02/2020 07:51:08	120220	12022020	075108	181.59	12.888827	-57.116503	181.66	-0.710	-0.210	2.050	181.53	-1.60	2.50	 	 	 	 	 	 	 	 	 	 	 	 	 	 	 	 	 	 	1581493868	5.19	9.61
12/02/2020 07:51:09	120220	12022020	075109	181.24	12.888805	-57.116513	181.27	-0.760	0.050	2.800	181.14	-1.30	3.30	 	 	 	 	 	 	 	 	 	 	 	 	 	 	 	 	 	 	1581493869	4.99	9.24
12/02/2020 07:51:10	120220	12022020	075110	180.71	12.888782	-57.116523	180.74	-0.150	-0.240	3.200	180.60	-1.60	3.70	 	 	 	 	 	 	 	 	 	 	 	 	 	 	 	 	 	 	1581493870	5.51	10.20
12/02/2020 07:51:11	120220	12022020	075111	180.25	12.888755	-57.116530	180.33	0.620	-0.420	3.120	180.20	-1.80	3.60	 	 	 	 	 	 	 	 	 	 	 	 	 	 	 	 	 	 	1581493871	6.08	11.26
12/02/2020 07:51:12	120220	12022020	075112	180.19	12.888727	-57.116533	180.36	0.900	-0.020	2.650	180.23	-1.40	3.20	 	 	 	 	 	 	 	 	 	 	 	 	 	 	 	 	 	 	1581493872	5.88	10.89
12/02/2020 07:51:13	120220	12022020	075113	180.50	12.888703	-57.116533	180.68	0.560	0.540	2.090	180.57	-0.90	2.60	 	 	 	 	 	 	 	 	 	 	 	 	 	 	 	 	 	 	1581493873	5.13	9.50
12/02/2020 07:51:14	120220	12022020	075114	180.80	12.888682	-57.116533	181.05	-0.000	0.680	1.600	180.87	-0.70	2.10	 	 	 	 	 	 	 	 	 	 	 	 	 	 	 	 	 	 	1581493874	4.71	8.72
12/02/2020 07:51:15	120220	12022020	075115	181.30	12.888658	-57.116537	181.49	-0.290	0.340	1.190	181.40	-1.00	1.70	 	 	 	 	 	 	 	 	 	 	 	 	 	 	 	 	 	 	1581493875	4.98	9.22
12/02/2020 07:51:16	120220	12022020	075116	181.78	12.888633	-57.116542	181.96	-0.160	-0.310	0.840	181.86	-1.60	1.40	 	 	 	 	 	 	 	 	 	 	 	 	 	 	 	 	 	 	1581493876	5.38	9.96
12/02/2020 07:51:17	120220	12022020	075117	182.08	12.888608	-57.116545	182.19	0.110	-1.040	0.780	182.09	-2.40	1.30	 	 	 	 	 	 	 	 	 	 	 	 	 	 	 	 	 	 	1581493877	5.57	10.32
12/02/2020 07:51:18	120220	12022020	075118	181.99	12.888582	-57.116548	182.03	0.140	-1.510	1.110	181.93	-2.90	1.60	 	 	 	 	 	 	 	 	 	 	 	 	 	 	 	 	 	 	1581493878	5.70	10.56
12/02/2020 07:51:19	120220	12022020	075119	181.49	12.888557	-57.116555	181.46	-0.080	-1.520	1.890	181.35	-2.90	2.30	 	 	 	 	 	 	 	 	 	 	 	 	 	 	 	 	 	 	1581493879	5.70	10.56
12/02/2020 07:51:20	120220	12022020	075120	180.65	12.888532	-57.116563	180.59	-0.210	-0.990	2.830	180.47	-2.40	3.30	 	 	 	 	 	 	 	 	 	 	 	 	 	 	 	 	 	 	1581493880	5.71	10.57
12/02/2020 07:51:21	120220	12022020	075121	179.95	12.888507	-57.116573	180.02	-0.140	0.100	3.330	179.89	-1.30	3.80	 	 	 	 	 	 	 	 	 	 	 	 	 	 	 	 	 	 	1581493881	5.60	10.37
12/02/2020 07:51:22	120220	12022020	075122	179.98	12.888485	-57.116578	180.19	-0.120	1.190	3.170	180.09	-0.20	3.70	 	 	 	 	 	 	 	 	 	 	 	 	 	 	 	 	 	 	1581493882	5.06	9.37
12/02/2020 07:51:23	120220	12022020	075123	180.59	12.888462	-57.116582	180.83	-0.270	1.520	2.700	180.73	0.20	3.20	 	 	 	 	 	 	 	 	 	 	 	 	 	 	 	 	 	 	1581493883	4.71	8.72
12/02/2020 07:51:24	120220	12022020	075124	181.11	12.888438	-57.116585	181.26	-0.360	0.830	2.250	181.15	-0.50	2.80	 	 	 	 	 	 	 	 	 	 	 	 	 	 	 	 	 	 	1581493884	5.08	9.41
12/02/2020 07:51:25	120220	12022020	075125	181.14	12.888412	-57.116588	181.22	-0.080	-0.470	2.050	181.10	-1.80	2.60	 	 	 	 	 	 	 	 	 	 	 	 	 	 	 	 	 	 	1581493885	5.86	10.85
12/02/2020 07:51:26	120220	12022020	075126	180.87	12.888382	-57.116595	180.92	0.500	-1.460	1.970	180.81	-2.80	2.50	 	 	 	 	 	 	 	 	 	 	 	 	 	 	 	 	 	 	1581493886	6.48	12.00
12/02/2020 07:51:27	120220	12022020	075127	180.56	12.888353	-57.116600	180.60	0.940	-1.460	1.770	180.49	-2.80	2.30	 	 	 	 	 	 	 	 	 	 	 	 	 	 	 	 	 	 	1581493887	6.19	11.46
12/02/2020 07:51:28	120220	12022020	075128	180.30	12.888330	-57.116602	180.30	0.820	-0.750	1.550	180.24	-2.10	2.10	 	 	 	 	 	 	 	 	 	 	 	 	 	 	 	 	 	 	1581493888	5.20	9.63
12/02/2020 07:51:29	120220	12022020	075129	180.06	12.888308	-57.116602	180.16	0.110	0.110	1.440	180.06	-1.30	2.00	 	 	 	 	 	 	 	 	 	 	 	 	 	 	 	 	 	 	1581493889	4.58	8.48
12/02/2020 07:51:30	120220	12022020	075130	180.24	12.888288	-57.116603	180.42	-0.750	0.710	1.340	180.31	-0.70	1.90	 	 	 	 	 	 	 	 	 	 	 	 	 	 	 	 	 	 	1581493890	4.53	8.39
12/02/2020 07:51:31	120220	12022020	075131	180.69	12.888265	-57.116608	180.88	-1.190	0.880	1.360	180.78	-0.50	1.90	 	 	 	 	 	 	 	 	 	 	 	 	 	 	 	 	 	 	1581493891	4.86	9.00
12/02/2020 07:51:32	120220	12022020	075132	181.11	12.888242	-57.116618	181.28	-0.870	0.450	1.550	181.17	-0.90	2.00	 	 	 	 	 	 	 	 	 	 	 	 	 	 	 	 	 	 	1581493892	5.37	9.95
12/02/2020 07:51:33	120220	12022020	075133	181.24	12.888217	-57.116627	181.34	0.020	-0.520	1.800	181.20	-1.80	2.30	 	 	 	 	 	 	 	 	 	 	 	 	 	 	 	 	 	 	1581493893	5.89	10.91
12/02/2020 07:51:34	120220	12022020	075134	180.80	12.888188	-57.116635	180.80	0.900	-1.470	2.170	180.65	-2.80	2.60	 	 	 	 	 	 	 	 	 	 	 	 	 	 	 	 	 	 	1581493894	6.26	11.59
12/02/2020 07:51:35	120220	12022020	075135	179.99	12.888160	-57.116638	180.00	1.200	-1.530	2.460	179.85	-2.90	3.00	 	 	 	 	 	 	 	 	 	 	 	 	 	 	 	 	 	 	1581493895	6.32	11.70
12/02/2020 07:51:36	120220	12022020	075136	179.53	12.888133	-57.116640	179.67	0.800	-0.490	2.340	179.52	-1.90	2.90	 	 	 	 	 	 	 	 	 	 	 	 	 	 	 	 	 	 	1581493896	5.59	10.35
12/02/2020 07:51:37	120220	12022020	075137	179.70	12.888113	-57.116642	179.90	0.020	0.730	1.890	179.78	-0.70	2.40	 	 	 	 	 	 	 	 	 	 	 	 	 	 	 	 	 	 	1581493897	4.46	8.26
12/02/2020 07:51:38	120220	12022020	075138	180.11	12.888093	-57.116642	180.31	-0.700	0.980	1.690	180.18	-0.40	2.20	 	 	 	 	 	 	 	 	 	 	 	 	 	 	 	 	 	 	1581493898	4.16	7.70
12/02/2020 07:51:39	120220	12022020	075139	180.34	12.888070	-57.116645	180.48	-1.070	0.190	2.140	180.35	-1.10	2.60	 	 	 	 	 	 	 	 	 	 	 	 	 	 	 	 	 	 	1581493899	5.15	9.54
12/02/2020 07:51:40	120220	12022020	075140	180.25	12.888042	-57.116655	180.28	-0.990	-0.810	2.990	180.20	-2.10	3.40	 	 	 	 	 	 	 	 	 	 	 	 	 	 	 	 	 	 	1581493900	6.45	11.95
12/02/2020 07:51:41	120220	12022020	075141	179.80	12.888012	-57.116668	179.88	-0.470	-1.070	3.610	179.71	-2.40	4.10	 	 	 	 	 	 	 	 	 	 	 	 	 	 	 	 	 	 	1581493901	6.97	12.91
12/02/2020 07:51:42	120220	12022020	075142	179.49	12.887985	-57.116680	179.56	0.280	-0.460	3.530	179.44	-1.90	4.00	 	 	 	 	 	 	 	 	 	 	 	 	 	 	 	 	 	 	1581493902	6.21	11.50
12/02/2020 07:51:43	120220	12022020	075143	179.33	12.887962	-57.116685	179.47	0.830	0.300	2.770	179.33	-1.10	3.30	 	 	 	 	 	 	 	 	 	 	 	 	 	 	 	 	 	 	1581493903	4.95	9.17
12/02/2020 07:51:44	120220	12022020	075144	179.45	12.887942	-57.116682	179.61	0.840	0.600	1.820	179.50	-0.80	2.40	 	 	 	 	 	 	 	 	 	 	 	 	 	 	 	 	 	 	1581493904	4.66	8.63
12/02/2020 07:51:45	120220	12022020	075145	179.72	12.887918	-57.116677	179.86	0.410	0.430	1.200	179.77	-0.90	1.70	 	 	 	 	 	 	 	 	 	 	 	 	 	 	 	 	 	 	1581493905	5.01	9.28
12/02/2020 07:51:46	120220	12022020	075146	179.83	12.887893	-57.116675	179.92	-0.000	-0.110	1.190	179.81	-1.40	1.70	 	 	 	 	 	 	 	 	 	 	 	 	 	 	 	 	 	 	1581493906	5.16	9.56
12/02/2020 07:51:47	120220	12022020	075147	179.58	12.887868	-57.116678	179.64	-0.060	-0.820	1.680	179.50	-2.20	2.20	 	 	 	 	 	 	 	 	 	 	 	 	 	 	 	 	 	 	1581493907	5.47	10.13
12/02/2020 07:51:48	120220	12022020	075148	179.13	12.887842	-57.116685	179.19	0.150	-1.300	2.230	179.03	-2.60	2.70	 	 	 	 	 	 	 	 	 	 	 	 	 	 	 	 	 	 	1581493908	5.88	10.89
12/02/2020 07:51:49	120220	12022020	075149	178.69	12.887815	-57.116693	178.77	0.330	-1.260	2.570	178.63	-2.60	3.00	 	 	 	 	 	 	 	 	 	 	 	 	 	 	 	 	 	 	1581493909	5.93	10.98
12/02/2020 07:51:50	120220	12022020	075150	178.51	12.887790	-57.116698	178.63	0.190	-0.700	2.640	178.52	-2.10	3.10	 	 	 	 	 	 	 	 	 	 	 	 	 	 	 	 	 	 	1581493910	5.57	10.32
12/02/2020 07:51:51	120220	12022020	075151	178.65	12.887767	-57.116702	178.79	-0.290	0.030	2.600	178.69	-1.40	3.10	 	 	 	 	 	 	 	 	 	 	 	 	 	 	 	 	 	 	1581493911	5.08	9.41
12/02/2020 07:51:52	120220	12022020	075152	178.84	12.887745	-57.116705	178.97	-0.840	0.510	2.560	178.87	-0.90	3.10	 	 	 	 	 	 	 	 	 	 	 	 	 	 	 	 	 	 	1581493912	4.92	9.11
12/02/2020 07:51:53	120220	12022020	075153	178.95	12.887720	-57.116710	179.06	-1.020	0.570	2.520	178.96	-0.80	3.00	 	 	 	 	 	 	 	 	 	 	 	 	 	 	 	 	 	 	1581493913	5.23	9.69
12/02/2020 07:51:54	120220	12022020	075154	179.02	12.887695	-57.116718	179.13	-0.640	0.360	2.330	179.06	-1.00	2.80	 	 	 	 	 	 	 	 	 	 	 	 	 	 	 	 	 	 	1581493914	5.66	10.48
12/02/2020 07:51:55	120220	12022020	075155	179.23	12.887668	-57.116723	179.36	0.070	0.100	1.750	179.28	-1.30	2.30	 	 	 	 	 	 	 	 	 	 	 	 	 	 	 	 	 	 	1581493915	5.74	10.63
12/02/2020 07:51:56	120220	12022020	075156	179.49	12.887643	-57.116725	179.60	0.640	-0.190	1.120	179.53	-1.50	1.60	 	 	 	 	 	 	 	 	 	 	 	 	 	 	 	 	 	 	1581493916	5.53	10.24
12/02/2020 07:51:57	120220	12022020	075157	179.67	12.887618	-57.116722	179.75	0.780	-0.390	0.740	179.69	-1.80	1.30	 	 	 	 	 	 	 	 	 	 	 	 	 	 	 	 	 	 	1581493917	5.42	10.04
12/02/2020 07:51:58	120220	12022020	075158	179.72	12.887593	-57.116722	179.79	0.580	-0.380	0.630	179.72	-1.80	1.10	 	 	 	 	 	 	 	 	 	 	 	 	 	 	 	 	 	 	1581493918	5.27	9.76
12/02/2020 07:51:59	120220	12022020	075159	179.64	12.887570	-57.116722	179.69	0.320	-0.290	0.960	179.61	-1.70	1.40	 	 	 	 	 	 	 	 	 	 	 	 	 	 	 	 	 	 	1581493919	5.00	9.26
12/02/2020 07:52:00	120220	12022020	075200	179.39	12.887547	-57.116725	179.41	0.190	-0.510	1.750	179.30	-1.90	2.20	 	 	 	 	 	 	 	 	 	 	 	 	 	 	 	 	 	 	1581493920	5.00	9.26
12/02/2020 07:52:01	120220	12022020	075201	178.93	12.887522	-57.116732	178.94	0.120	-0.940	2.700	178.83	-2.30	3.20	1014.80	26.10	26.20	20.30	20.40	-1.0	70.0	70.0	396.0	25.8	273.00	10.80	79.00	11.00	16	10106.0	27.3	27.3	1581493921	5.60	10.37
12/02/2020 07:52:02	120220	12022020	075202	178.45	12.887495	-57.116740	178.49	-0.060	-0.990	3.430	178.37	-2.40	3.90	 	 	 	 	 	 	 	 	 	 	 	 	 	 	 	 	 	 	1581493922	6.13	11.35
12/02/2020 07:52:03	120220	12022020	075203	178.21	12.887468	-57.116748	178.35	-0.400	-0.350	3.720	178.21	-1.80	4.20	 	 	 	 	 	 	 	 	 	 	 	 	 	 	 	 	 	 	1581493923	5.99	11.09
12/02/2020 07:52:04	120220	12022020	075204	178.38	12.887445	-57.116755	178.58	-0.690	0.580	3.410	178.46	-0.80	3.90	 	 	 	 	 	 	 	 	 	 	 	 	 	 	 	 	 	 	1581493924	5.25	9.72
12/02/2020 07:52:05	120220	12022020	075205	178.84	12.887423	-57.116760	179.03	-0.640	1.000	2.500	178.94	-0.40	3.00	 	 	 	 	 	 	 	 	 	 	 	 	 	 	 	 	 	 	1581493925	4.67	8.65
12/02/2020 07:52:06	120220	12022020	075206	179.29	12.887402	-57.116762	179.44	-0.180	0.490	1.400	179.36	-0.80	1.90	 	 	 	 	 	 	 	 	 	 	 	 	 	 	 	 	 	 	1581493926	4.91	9.09
12/02/2020 07:52:07	120220	12022020	075207	179.58	12.887375	-57.116760	179.67	0.360	-0.440	0.600	179.60	-1.80	1.10	 	 	 	 	 	 	 	 	 	 	 	 	 	 	 	 	 	 	1581493927	5.78	10.70
12/02/2020 07:52:08	120220	12022020	075208	179.54	12.887345	-57.116757	179.57	0.570	-1.100	0.510	179.50	-2.40	1.00	 	 	 	 	 	 	 	 	 	 	 	 	 	 	 	 	 	 	1581493928	6.17	11.43
12/02/2020 07:52:09	120220	12022020	075209	179.26	12.887318	-57.116757	179.29	0.330	-1.110	0.890	179.22	-2.50	1.40	 	 	 	 	 	 	 	 	 	 	 	 	 	 	 	 	 	 	1581493929	5.87	10.87
12/02/2020 07:52:10	120220	12022020	075210	179.17	12.887293	-57.116760	179.28	-0.190	-0.440	1.300	179.19	-1.90	1.80	 	 	 	 	 	 	 	 	 	 	 	 	 	 	 	 	 	 	1581493930	5.38	9.96
12/02/2020 07:52:11	120220	12022020	075211	179.37	12.887272	-57.116765	179.54	-0.660	0.420	1.700	179.43	-1.00	2.20	 	 	 	 	 	 	 	 	 	 	 	 	 	 	 	 	 	 	1581493931	4.84	8.96
12/02/2020 07:52:12	120220	12022020	075212	179.65	12.887252	-57.116773	179.80	-0.630	0.620	2.050	179.69	-0.70	2.50	 	 	 	 	 	 	 	 	 	 	 	 	 	 	 	 	 	 	1581493932	4.73	8.76
12/02/2020 07:52:13	120220	12022020	075213	179.72	12.887227	-57.116780	179.78	0.010	-0.050	2.270	179.68	-1.40	2.70	 	 	 	 	 	 	 	 	 	 	 	 	 	 	 	 	 	 	1581493933	5.37	9.95
12/02/2020 07:52:14	120220	12022020	075214	179.36	12.887198	-57.116787	179.37	0.840	-0.820	2.530	179.26	-2.20	3.00	 	 	 	 	 	 	 	 	 	 	 	 	 	 	 	 	 	 	1581493934	6.17	11.43
12/02/2020 07:52:15	120220	12022020	075215	178.87	12.887170	-57.116788	178.93	1.120	-0.830	2.770	178.80	-2.20	3.30	 	 	 	 	 	 	 	 	 	 	 	 	 	 	 	 	 	 	1581493935	6.34	11.74
12/02/2020 07:52:16	120220	12022020	075216	178.77	12.887143	-57.116788	178.93	0.590	-0.110	2.680	178.83	-1.50	3.20	 	 	 	 	 	 	 	 	 	 	 	 	 	 	 	 	 	 	1581493936	5.57	10.32
12/02/2020 07:52:17	120220	12022020	075217	179.28	12.887122	-57.116788	179.51	-0.370	0.640	2.190	179.44	-0.80	2.70	 	 	 	 	 	 	 	 	 	 	 	 	 	 	 	 	 	 	1581493937	4.70	8.70
12/02/2020 07:52:18	120220	12022020	075218	179.94	12.887102	-57.116792	180.31	-1.070	0.850	1.710	180.10	-0.50	2.20	 	 	 	 	 	 	 	 	 	 	 	 	 	 	 	 	 	 	1581493938	4.45	8.24
12/02/2020 07:52:19	120220	12022020	075219	180.73	12.887078	-57.116797	180.87	-1.130	0.280	1.700	180.81	-1.10	2.20	 	 	 	 	 	 	 	 	 	 	 	 	 	 	 	 	 	 	1581493939	4.93	9.13
12/02/2020 07:52:20	120220	12022020	075220	180.86	12.887053	-57.116805	180.90	-0.550	-0.830	1.980	180.82	-2.10	2.40	 	 	 	 	 	 	 	 	 	 	 	 	 	 	 	 	 	 	1581493940	5.77	10.69
12/02/2020 07:52:21	120220	12022020	075221	180.44	12.887025	-57.116813	180.43	0.300	-1.740	2.250	180.32	-3.10	2.70	 	 	 	 	 	 	 	 	 	 	 	 	 	 	 	 	 	 	1581493941	6.43	11.91
12/02/2020 07:52:22	120220	12022020	075222	179.78	12.886995	-57.116820	179.79	0.910	-1.690	2.450	179.66	-3.10	2.90	 	 	 	 	 	 	 	 	 	 	 	 	 	 	 	 	 	 	1581493942	6.39	11.83
12/02/2020 07:52:23	120220	12022020	075223	179.31	12.886970	-57.116822	179.38	0.910	-0.670	2.300	179.27	-2.10	2.80	 	 	 	 	 	 	 	 	 	 	 	 	 	 	 	 	 	 	1581493943	5.63	10.43
12/02/2020 07:52:24	120220	12022020	075224	179.26	12.886947	-57.116820	179.41	0.350	0.640	1.740	179.30	-0.80	2.30	 	 	 	 	 	 	 	 	 	 	 	 	 	 	 	 	 	 	1581493944	4.79	8.87
12/02/2020 07:52:25	120220	12022020	075225	179.62	12.886927	-57.116818	179.80	-0.330	1.480	1.010	179.72	0.10	1.50	 	 	 	 	 	 	 	 	 	 	 	 	 	 	 	 	 	 	1581493945	4.43	8.20
12/02/2020 07:52:26	120220	12022020	075226	180.22	12.886905	-57.116818	180.40	-0.600	1.380	0.380	180.35	0.00	0.90	 	 	 	 	 	 	 	 	 	 	 	 	 	 	 	 	 	 	1581493946	4.70	8.70
12/02/2020 07:52:27	120220	12022020	075227	180.78	12.886880	-57.116820	180.91	-0.300	0.370	0.100	180.85	-0.90	0.60	 	 	 	 	 	 	 	 	 	 	 	 	 	 	 	 	 	 	1581493947	5.42	10.04
12/02/2020 07:52:28	120220	12022020	075228	180.90	12.886852	-57.116822	180.93	0.190	-0.970	0.680	180.85	-2.30	1.10	 	 	 	 	 	 	 	 	 	 	 	 	 	 	 	 	 	 	1581493948	6.15	11.39
12/02/2020 07:52:29	120220	12022020	075229	180.42	12.886822	-57.116827	180.40	0.320	-1.820	2.130	180.27	-3.20	2.50	 	 	 	 	 	 	 	 	 	 	 	 	 	 	 	 	 	 	1581493949	6.55	12.13
12/02/2020 07:52:30	120220	12022020	075230	179.79	12.886793	-57.116837	179.66	-0.040	-1.670	3.670	179.64	-3.10	4.10	 	 	 	 	 	 	 	 	 	 	 	 	 	 	 	 	 	 	1581493950	6.44	11.93
12/02/2020 07:52:31	120220	12022020	075231	178.89	12.886768	-57.116850	178.96	-0.470	-0.800	4.710	178.77	-2.20	5.10	 	 	 	 	 	 	 	 	 	 	 	 	 	 	 	 	 	 	1581493951	5.98	11.07
12/02/2020 07:52:32	120220	12022020	075232	178.53	12.886745	-57.116863	178.68	-0.600	0.270	4.820	178.50	-1.10	5.30	 	 	 	 	 	 	 	 	 	 	 	 	 	 	 	 	 	 	1581493952	5.57	10.32
12/02/2020 07:52:33	120220	12022020	075233	178.65	12.886723	-57.116872	178.89	-0.310	1.090	3.850	178.72	-0.30	4.40	 	 	 	 	 	 	 	 	 	 	 	 	 	 	 	 	 	 	1581493953	5.12	9.48
12/02/2020 07:52:34	120220	12022020	075234	179.09	12.886702	-57.116875	179.30	0.250	1.160	2.190	179.18	-0.20	2.80	 	 	 	 	 	 	 	 	 	 	 	 	 	 	 	 	 	 	1581493954	4.81	8.91
12/02/2020 07:52:35	120220	12022020	075235	179.51	12.886677	-57.116870	179.65	0.800	0.390	0.570	179.58	-0.90	1.10	 	 	 	 	 	 	 	 	 	 	 	 	 	 	 	 	 	 	1581493955	5.41	10.02
12/02/2020 07:52:36	120220	12022020	075236	179.80	12.886648	-57.116860	179.89	1.010	-0.570	-0.390	179.84	-1.90	0.10	 	 	 	 	 	 	 	 	 	 	 	 	 	 	 	 	 	 	1581493956	6.25	11.58
12/02/2020 07:52:37	120220	12022020	075237	179.89	12.886620	-57.116853	179.95	0.750	-1.140	-0.370	179.87	-2.50	0.10	 	 	 	 	 	 	 	 	 	 	 	 	 	 	 	 	 	 	1581493957	6.21	11.50
12/02/2020 07:52:38	120220	12022020	075238	179.75	12.886593	-57.116853	179.81	0.260	-1.250	0.450	179.70	-2.60	0.90	 	 	 	 	 	 	 	 	 	 	 	 	 	 	 	 	 	 	1581493958	5.64	10.45
12/02/2020 07:52:39	120220	12022020	075239	179.51	12.886570	-57.116860	179.59	-0.200	-0.930	1.620	179.46	-2.30	2.10	 	 	 	 	 	 	 	 	 	 	 	 	 	 	 	 	 	 	1581493959	5.49	10.17
12/02/2020 07:52:40	120220	12022020	075240	179.29	12.886545	-57.116868	179.40	-0.560	-0.270	2.740	179.25	-1.60	3.20	 	 	 	 	 	 	 	 	 	 	 	 	 	 	 	 	 	 	1581493960	5.48	10.15
12/02/2020 07:52:41	120220	12022020	075241	179.14	12.886523	-57.116880	179.28	-0.820	0.190	3.610	179.12	-1.20	4.00	 	 	 	 	 	 	 	 	 	 	 	 	 	 	 	 	 	 	1581493961	5.38	9.96
12/02/2020 07:52:42	120220	12022020	075242	179.06	12.886498	-57.116890	179.18	-0.860	0.080	4.020	179.03	-1.30	4.50	 	 	 	 	 	 	 	 	 	 	 	 	 	 	 	 	 	 	1581493962	5.60	10.37
12/02/2020 07:52:43	120220	12022020	075243	178.88	12.886472	-57.116898	178.97	-0.580	-0.440	3.950	178.83	-1.80	4.40	 	 	 	 	 	 	 	 	 	 	 	 	 	 	 	 	 	 	1581493963	6.02	11.15
12/02/2020 07:52:44	120220	12022020	075244	178.63	12.886443	-57.116903	178.74	-0.200	-0.740	3.670	178.59	-2.10	4.20	 	 	 	 	 	 	 	 	 	 	 	 	 	 	 	 	 	 	1581493964	6.33	11.72
12/02/2020 07:52:45	120220	12022020	075245	178.51	12.886415	-57.116907	178.63	0.010	-0.430	3.230	178.50	-1.80	3.70	 	 	 	 	 	 	 	 	 	 	 	 	 	 	 	 	 	 	1581493965	6.13	11.35
12/02/2020 07:52:46	120220	12022020	075246	178.63	12.886390	-57.116910	178.81	0.130	0.400	2.380	178.70	-1.00	2.90	 	 	 	 	 	 	 	 	 	 	 	 	 	 	 	 	 	 	1581493966	5.51	10.20
12/02/2020 07:52:47	120220	12022020	075247	179.20	12.886367	-57.116910	179.41	0.330	1.320	1.030	179.36	-0.10	1.60	 	 	 	 	 	 	 	 	 	 	 	 	 	 	 	 	 	 	1581493967	4.82	8.93
12/02/2020 07:52:48	120220	12022020	075248	180.03	12.886347	-57.116907	180.21	0.680	1.500	-0.290	180.19	0.10	0.30	 	 	 	 	 	 	 	 	 	 	 	 	 	 	 	 	 	 	1581493968	4.49	8.32
12/02/2020 07:52:49	120220	12022020	075249	180.69	12.886323	-57.116902	180.79	1.050	0.570	-0.890	180.78	-0.70	-0.40	 	 	 	 	 	 	 	 	 	 	 	 	 	 	 	 	 	 	1581493969	4.97	9.20
12/02/2020 07:52:50	120220	12022020	075250	180.90	12.886298	-57.116897	180.92	1.150	-1.010	-0.390	180.87	-2.30	0.10	 	 	 	 	 	 	 	 	 	 	 	 	 	 	 	 	 	 	1581493970	5.74	10.63
12/02/2020 07:52:51	120220	12022020	075251	180.51	12.886268	-57.116897	180.44	0.780	-2.440	1.170	180.36	-3.80	1.60	 	 	 	 	 	 	 	 	 	 	 	 	 	 	 	 	 	 	1581493971	6.26	11.59
12/02/2020 07:52:52	120220	12022020	075252	179.60	12.886238	-57.116905	179.55	-0.030	-2.970	3.390	179.39	-4.30	3.80	 	 	 	 	 	 	 	 	 	 	 	 	 	 	 	 	 	 	1581493972	6.53	12.09
12/02/2020 07:52:53	120220	12022020	075253	178.69	12.886212	-57.116920	178.75	-0.990	-2.160	5.410	178.56	-3.60	5.80	 	 	 	 	 	 	 	 	 	 	 	 	 	 	 	 	 	 	1581493973	6.75	12.50
12/02/2020 07:52:54	120220	12022020	075254	178.31	12.886187	-57.116938	178.46	-1.590	-0.360	6.390	178.28	-1.80	6.80	 	 	 	 	 	 	 	 	 	 	 	 	 	 	 	 	 	 	1581493974	6.52	12.08
12/02/2020 07:52:55	120220	12022020	075255	178.35	12.886167	-57.116955	178.60	-1.450	1.210	6.010	178.40	-0.20	6.50	 	 	 	 	 	 	 	 	 	 	 	 	 	 	 	 	 	 	1581493975	5.62	10.41
12/02/2020 07:52:56	120220	12022020	075256	178.59	12.886145	-57.116963	178.89	-0.620	1.640	4.550	178.66	0.30	5.10	 	 	 	 	 	 	 	 	 	 	 	 	 	 	 	 	 	 	1581493976	5.04	9.33
12/02/2020 07:52:57	120220	12022020	075257	179.11	12.886118	-57.116963	179.35	0.370	1.230	2.460	179.23	-0.10	3.10	 	 	 	 	 	 	 	 	 	 	 	 	 	 	 	 	 	 	1581493977	5.68	10.52
12/02/2020 07:52:58	120220	12022020	075258	179.86	12.886090	-57.116957	180.13	0.870	0.740	0.410	180.04	-0.60	1.00	 	 	 	 	 	 	 	 	 	 	 	 	 	 	 	 	 	 	1581493978	6.40	11.85
12/02/2020 07:52:59	120220	12022020	075259	180.76	12.886063	-57.116945	180.96	0.670	0.340	-1.130	180.90	-1.00	-0.60	 	 	 	 	 	 	 	 	 	 	 	 	 	 	 	 	 	 	1581493979	6.12	11.33
12/02/2020 07:53:00	120220	12022020	075300	181.23	12.886040	-57.116938	181.27	0.290	-0.490	-1.590	181.23	-1.80	-1.10	 	 	 	 	 	 	 	 	 	 	 	 	 	 	 	 	 	 	1581493980	5.32	9.85
12/02/2020 07:53:01	120220	12022020	075301	180.91	12.886015	-57.116938	180.84	0.260	-1.640	-0.730	180.78	-2.90	-0.30	1014.90	26.20	26.20	20.10	20.20	-1.0	69.0	69.0	394.0	25.8	274.00	11.40	79.00	11.60	16	10882.0	27.4	27.3	1581493981	5.37	9.95
12/02/2020 07:53:02	120220	12022020	075302	180.19	12.885987	-57.116945	180.15	0.510	-2.070	0.790	180.07	-3.40	1.20	 	 	 	 	 	 	 	 	 	 	 	 	 	 	 	 	 	 	1581493982	6.13	11.35
12/02/2020 07:53:03	120220	12022020	075303	179.75	12.885962	-57.116955	179.82	0.530	-1.340	2.100	179.72	-2.70	2.50	 	 	 	 	 	 	 	 	 	 	 	 	 	 	 	 	 	 	1581493983	5.94	11.00
12/02/2020 07:53:04	120220	12022020	075304	179.73	12.885940	-57.116963	179.87	0.060	-0.150	2.960	179.75	-1.60	3.40	 	 	 	 	 	 	 	 	 	 	 	 	 	 	 	 	 	 	1581493984	5.02	9.30
12/02/2020 07:53:05	120220	12022020	075305	179.90	12.885920	-57.116972	180.08	-0.650	0.610	3.460	179.94	-0.80	3.90	 	 	 	 	 	 	 	 	 	 	 	 	 	 	 	 	 	 	1581493985	4.66	8.63
12/02/2020 07:53:06	120220	12022020	075306	180.02	12.885897	-57.116980	180.17	-1.080	0.650	3.880	180.02	-0.70	4.30	 	 	 	 	 	 	 	 	 	 	 	 	 	 	 	 	 	 	1581493986	5.14	9.52
12/02/2020 07:53:07	120220	12022020	075307	179.97	12.885872	-57.116990	180.10	-0.970	0.240	4.070	179.96	-1.10	4.50	 	 	 	 	 	 	 	 	 	 	 	 	 	 	 	 	 	 	1581493987	5.92	10.96
12/02/2020 07:53:08	120220	12022020	075308	180.01	12.885843	-57.116998	180.21	-0.440	-0.080	3.480	180.03	-1.40	4.00	 	 	 	 	 	 	 	 	 	 	 	 	 	 	 	 	 	 	1581493988	6.31	11.69
12/02/2020 07:53:09	120220	12022020	075309	180.35	12.885817	-57.117003	180.52	0.240	-0.100	2.200	180.42	-1.50	2.70	 	 	 	 	 	 	 	 	 	 	 	 	 	 	 	 	 	 	1581493989	5.86	10.85
12/02/2020 07:53:10	120220	12022020	075310	180.70	12.885792	-57.117003	180.81	0.820	-0.100	0.760	180.76	-1.50	1.30	 	 	 	 	 	 	 	 	 	 	 	 	 	 	 	 	 	 	1581493990	5.27	9.76
12/02/2020 07:53:11	120220	12022020	075311	180.90	12.885768	-57.116997	180.96	1.030	-0.320	-0.210	180.91	-1.70	0.30	 	 	 	 	 	 	 	 	 	 	 	 	 	 	 	 	 	 	1581493991	5.35	9.91
12/02/2020 07:53:12	120220	12022020	075312	180.83	12.885742	-57.116992	180.83	0.730	-0.550	-0.250	180.78	-1.90	0.20	 	 	 	 	 	 	 	 	 	 	 	 	 	 	 	 	 	 	1581493992	5.57	10.32
12/02/2020 07:53:13	120220	12022020	075313	180.57	12.885717	-57.116992	180.59	0.070	-0.410	0.430	180.51	-1.80	0.90	 	 	 	 	 	 	 	 	 	 	 	 	 	 	 	 	 	 	1581493993	5.45	10.09
12/02/2020 07:53:14	120220	12022020	075314	180.37	12.885693	-57.116997	180.44	-0.530	0.040	1.420	180.35	-1.30	1.80	 	 	 	 	 	 	 	 	 	 	 	 	 	 	 	 	 	 	1581493994	5.19	9.61
12/02/2020 07:53:15	120220	12022020	075315	180.35	12.885672	-57.117007	180.48	-0.680	0.230	2.170	180.37	-1.10	2.60	 	 	 	 	 	 	 	 	 	 	 	 	 	 	 	 	 	 	1581493995	5.19	9.61
12/02/2020 07:53:16	120220	12022020	075316	180.48	12.885648	-57.117017	180.63	-0.410	-0.210	2.490	180.51	-1.50	2.90	 	 	 	 	 	 	 	 	 	 	 	 	 	 	 	 	 	 	1581493996	5.43	10.06
12/02/2020 07:53:17	120220	12022020	075317	180.49	12.885622	-57.117025	180.58	0.040	-1.090	2.770	180.45	-2.40	3.20	 	 	 	 	 	 	 	 	 	 	 	 	 	 	 	 	 	 	1581493997	5.95	11.02
12/02/2020 07:53:18	120220	12022020	075318	180.13	12.885593	-57.117032	180.17	0.340	-1.610	3.140	180.02	-3.00	3.60	 	 	 	 	 	 	 	 	 	 	 	 	 	 	 	 	 	 	1581493998	6.45	11.95
12/02/2020 07:53:19	120220	12022020	075319	179.63	12.885563	-57.117037	179.71	0.220	-1.110	3.330	179.56	-2.50	3.80	 	 	 	 	 	 	 	 	 	 	 	 	 	 	 	 	 	 	1581493999	6.29	11.65
12/02/2020 07:53:20	120220	12022020	075320	179.44	12.885538	-57.117040	179.58	-0.300	0.290	3.240	179.44	-1.10	3.70	 	 	 	 	 	 	 	 	 	 	 	 	 	 	 	 	 	 	1581494000	5.41	10.02
12/02/2020 07:53:21	120220	12022020	075321	179.69	12.885518	-57.117045	179.91	-0.820	1.690	2.790	179.80	0.30	3.30	 	 	 	 	 	 	 	 	 	 	 	 	 	 	 	 	 	 	1581494001	4.48	8.30
12/02/2020 07:53:22	120220	12022020	075322	180.18	12.885500	-57.117050	180.51	-0.770	2.160	1.940	180.31	0.80	2.50	 	 	 	 	 	 	 	 	 	 	 	 	 	 	 	 	 	 	1581494002	4.21	7.80
12/02/2020 07:53:23	120220	12022020	075323	180.81	12.885478	-57.117052	180.94	0.040	1.100	1.080	180.86	-0.20	1.60	 	 	 	 	 	 	 	 	 	 	 	 	 	 	 	 	 	 	1581494003	4.71	8.72
12/02/2020 07:53:24	120220	12022020	075324	180.91	12.885450	-57.117052	180.96	1.080	-0.870	0.560	180.91	-2.10	1.10	 	 	 	 	 	 	 	 	 	 	 	 	 	 	 	 	 	 	1581494004	6.03	11.17
12/02/2020 07:53:25	120220	12022020	075325	180.86	12.885417	-57.117050	180.92	1.490	-2.090	0.610	180.85	-3.40	1.10	 	 	 	 	 	 	 	 	 	 	 	 	 	 	 	 	 	 	1581494005	6.95	12.87
12/02/2020 07:53:26	120220	12022020	075326	180.84	12.885388	-57.117050	180.92	0.960	-1.860	1.280	180.83	-3.30	1.70	 	 	 	 	 	 	 	 	 	 	 	 	 	 	 	 	 	 	1581494006	6.11	11.32
12/02/2020 07:53:27	120220	12022020	075327	180.69	12.885367	-57.117055	180.74	-0.080	-1.140	2.380	180.62	-2.50	2.80	 	 	 	 	 	 	 	 	 	 	 	 	 	 	 	 	 	 	1581494007	4.74	8.78
12/02/2020 07:53:28	120220	12022020	075328	180.18	12.885347	-57.117063	180.18	-0.880	-0.760	3.640	180.03	-2.10	4.10	 	 	 	 	 	 	 	 	 	 	 	 	 	 	 	 	 	 	1581494008	4.87	9.02
12/02/2020 07:53:29	120220	12022020	075329	179.41	12.885322	-57.117078	179.43	-1.110	-0.500	4.770	179.27	-1.90	5.20	 	 	 	 	 	 	 	 	 	 	 	 	 	 	 	 	 	 	1581494009	6.05	11.20
12/02/2020 07:53:30	120220	12022020	075330	178.98	12.885295	-57.117093	179.16	-0.860	0.400	5.050	179.00	-1.00	5.50	 	 	 	 	 	 	 	 	 	 	 	 	 	 	 	 	 	 	1581494010	6.66	12.33
12/02/2020 07:53:31	120220	12022020	075331	179.46	12.885272	-57.117103	179.80	-0.440	1.690	4.060	179.66	0.30	4.60	 	 	 	 	 	 	 	 	 	 	 	 	 	 	 	 	 	 	1581494011	5.61	10.39
12/02/2020 07:53:32	120220	12022020	075332	180.52	12.885252	-57.117105	180.81	-0.020	1.940	2.370	180.72	0.60	2.90	 	 	 	 	 	 	 	 	 	 	 	 	 	 	 	 	 	 	1581494012	4.25	7.87
12/02/2020 07:53:33	120220	12022020	075333	181.22	12.885228	-57.117100	181.34	0.430	0.450	1.040	181.25	-0.80	1.60	 	 	 	 	 	 	 	 	 	 	 	 	 	 	 	 	 	 	1581494013	4.90	9.07
12/02/2020 07:53:34	120220	12022020	075334	181.09	12.885200	-57.117095	181.05	0.800	-1.660	0.710	180.98	-2.90	1.20	 	 	 	 	 	 	 	 	 	 	 	 	 	 	 	 	 	 	1581494014	6.45	11.95
12/02/2020 07:53:35	120220	12022020	075335	180.41	12.885167	-57.117095	180.34	0.830	-2.580	1.180	180.26	-3.90	1.60	 	 	 	 	 	 	 	 	 	 	 	 	 	 	 	 	 	 	1581494015	7.02	13.00
12/02/2020 07:53:36	120220	12022020	075336	179.73	12.885138	-57.117100	179.75	0.460	-1.690	1.870	179.65	-3.10	2.30	 	 	 	 	 	 	 	 	 	 	 	 	 	 	 	 	 	 	1581494016	6.10	11.30
12/02/2020 07:53:37	120220	12022020	075337	179.48	12.885118	-57.117108	179.59	-0.070	0.130	2.230	179.49	-1.30	2.70	 	 	 	 	 	 	 	 	 	 	 	 	 	 	 	 	 	 	1581494017	4.63	8.57
12/02/2020 07:53:38	120220	12022020	075338	179.67	12.885102	-57.117115	179.83	-0.460	1.360	2.010	179.75	-0.00	2.50	 	 	 	 	 	 	 	 	 	 	 	 	 	 	 	 	 	 	1581494018	3.81	7.06
12/02/2020 07:53:39	120220	12022020	075339	180.15	12.885083	-57.117118	180.31	-0.550	1.250	1.500	180.26	-0.10	2.00	 	 	 	 	 	 	 	 	 	 	 	 	 	 	 	 	 	 	1581494019	4.17	7.72
12/02/2020 07:53:40	120220	12022020	075340	180.57	12.885058	-57.117120	180.66	-0.390	0.070	1.260	180.61	-1.20	1.70	 	 	 	 	 	 	 	 	 	 	 	 	 	 	 	 	 	 	1581494020	5.38	9.96
12/02/2020 07:53:41	120220	12022020	075341	180.59	12.885028	-57.117123	180.61	-0.120	-1.190	1.610	180.55	-2.50	2.10	 	 	 	 	 	 	 	 	 	 	 	 	 	 	 	 	 	 	1581494021	6.39	11.83
12/02/2020 07:53:42	120220	12022020	075342	180.27	12.884998	-57.117132	180.28	0.130	-1.680	2.330	180.19	-3.00	2.80	 	 	 	 	 	 	 	 	 	 	 	 	 	 	 	 	 	 	1581494022	6.65	12.32
12/02/2020 07:53:43	120220	12022020	075343	179.94	12.884972	-57.117140	180.02	0.260	-1.040	2.840	179.91	-2.40	3.30	 	 	 	 	 	 	 	 	 	 	 	 	 	 	 	 	 	 	1581494023	6.11	11.32
12/02/2020 07:53:44	120220	12022020	075344	179.91	12.884950	-57.117147	180.08	0.200	0.260	2.710	179.94	-1.20	3.20	 	 	 	 	 	 	 	 	 	 	 	 	 	 	 	 	 	 	1581494024	5.01	9.28
12/02/2020 07:53:45	120220	12022020	075345	180.18	12.884930	-57.117150	180.32	0.040	1.140	2.020	180.23	-0.20	2.50	 	 	 	 	 	 	 	 	 	 	 	 	 	 	 	 	 	 	1581494025	4.11	7.61
12/02/2020 07:53:46	120220	12022020	075346	180.46	12.884910	-57.117148	180.58	-0.040	0.950	1.110	180.51	-0.40	1.60	 	 	 	 	 	 	 	 	 	 	 	 	 	 	 	 	 	 	1581494026	4.35	8.06
12/02/2020 07:53:47	120220	12022020	075347	180.67	12.884885	-57.117147	180.72	0.020	0.010	0.490	180.68	-1.30	1.00	 	 	 	 	 	 	 	 	 	 	 	 	 	 	 	 	 	 	1581494027	5.34	9.89
12/02/2020 07:53:48	120220	12022020	075348	180.59	12.884858	-57.117147	180.60	0.090	-0.960	0.540	180.55	-2.30	1.00	 	 	 	 	 	 	 	 	 	 	 	 	 	 	 	 	 	 	1581494028	6.02	11.15
12/02/2020 07:53:49	120220	12022020	075349	180.25	12.884830	-57.117150	180.25	0.070	-1.440	1.260	180.18	-2.80	1.70	 	 	 	 	 	 	 	 	 	 	 	 	 	 	 	 	 	 	1581494029	6.06	11.22
12/02/2020 07:53:50	120220	12022020	075350	179.95	12.884803	-57.117157	180.01	-0.050	-1.220	2.140	179.93	-2.60	2.60	 	 	 	 	 	 	 	 	 	 	 	 	 	 	 	 	 	 	1581494030	5.88	10.89
12/02/2020 07:53:51	120220	12022020	075351	179.98	12.884780	-57.117167	180.11	-0.220	-0.490	2.640	180.02	-1.90	3.10	 	 	 	 	 	 	 	 	 	 	 	 	 	 	 	 	 	 	1581494031	5.51	10.20
12/02/2020 07:53:52	120220	12022020	075352	180.12	12.884757	-57.117175	180.22	-0.340	0.260	2.700	180.12	-1.10	3.20	 	 	 	 	 	 	 	 	 	 	 	 	 	 	 	 	 	 	1581494032	5.02	9.30
12/02/2020 07:53:53	120220	12022020	075353	180.10	12.884735	-57.117180	180.18	-0.340	0.620	2.550	180.09	-0.70	3.00	 	 	 	 	 	 	 	 	 	 	 	 	 	 	 	 	 	 	1581494033	4.93	9.13
12/02/2020 07:53:54	120220	12022020	075354	180.14	12.884712	-57.117183	180.25	-0.230	0.600	2.120	180.17	-0.80	2.60	 	 	 	 	 	 	 	 	 	 	 	 	 	 	 	 	 	 	1581494034	5.21	9.65
12/02/2020 07:53:55	120220	12022020	075355	180.29	12.884687	-57.117187	180.39	0.010	0.300	1.540	180.33	-1.00	2.10	 	 	 	 	 	 	 	 	 	 	 	 	 	 	 	 	 	 	1581494035	5.42	10.04
12/02/2020 07:53:56	120220	12022020	075356	180.45	12.884660	-57.117187	180.53	0.270	-0.110	1.090	180.48	-1.50	1.60	 	 	 	 	 	 	 	 	 	 	 	 	 	 	 	 	 	 	1581494036	5.53	10.24
12/02/2020 07:53:57	120220	12022020	075357	180.67	12.884635	-57.117187	180.76	0.430	-0.420	0.810	180.72	-1.80	1.30	 	 	 	 	 	 	 	 	 	 	 	 	 	 	 	 	 	 	1581494037	5.53	10.24
12/02/2020 07:53:58	120220	12022020	075358	180.86	12.884610	-57.117188	180.96	0.410	-0.560	0.790	180.90	-1.90	1.30	 	 	 	 	 	 	 	 	 	 	 	 	 	 	 	 	 	 	1581494038	5.33	9.87
12/02/2020 07:53:59	120220	12022020	075359	180.86	12.884587	-57.117192	180.84	0.320	-0.740	1.210	180.79	-2.10	1.70	 	 	 	 	 	 	 	 	 	 	 	 	 	 	 	 	 	 	1581494039	5.15	9.54
12/02/2020 07:54:00	120220	12022020	075400	180.37	12.884562	-57.117197	180.33	0.290	-0.900	1.950	180.26	-2.30	2.40	 	 	 	 	 	 	 	 	 	 	 	 	 	 	 	 	 	 	1581494040	5.34	9.89
12/02/2020 07:54:01	120220	12022020	075401	179.78	12.884537	-57.117203	179.80	0.170	-0.680	2.620	179.70	-2.10	3.10	1014.70	26.20	26.20	20.10	20.20	-1.0	69.0	69.0	394.0	25.8	268.00	11.40	74.00	11.80	16	10252.0	27.4	27.3	1581494041	5.63	10.43
12/02/2020 07:54:02	120220	12022020	075402	179.53	12.884512	-57.117208	179.65	-0.160	-0.040	2.820	179.55	-1.40	3.30	 	 	 	 	 	 	 	 	 	 	 	 	 	 	 	 	 	 	1581494042	5.44	10.07
12/02/2020 07:54:03	120220	12022020	075403	179.76	12.884488	-57.117213	179.94	-0.630	0.510	2.530	179.85	-0.90	3.00	 	 	 	 	 	 	 	 	 	 	 	 	 	 	 	 	 	 	1581494043	5.02	9.30
12/02/2020 07:54:04	120220	12022020	075404	180.25	12.884467	-57.117218	180.43	-0.910	0.500	2.140	180.35	-0.90	2.60	 	 	 	 	 	 	 	 	 	 	 	 	 	 	 	 	 	 	1581494044	4.96	9.19
12/02/2020 07:54:05	120220	12022020	075405	180.68	12.884442	-57.117223	180.79	-0.740	-0.020	1.850	180.73	-1.40	2.30	 	 	 	 	 	 	 	 	 	 	 	 	 	 	 	 	 	 	1581494045	5.43	10.06
12/02/2020 07:54:06	120220	12022020	075406	180.80	12.884415	-57.117230	180.83	-0.130	-0.630	1.600	180.78	-2.00	2.10	 	 	 	 	 	 	 	 	 	 	 	 	 	 	 	 	 	 	1581494046	5.88	10.89
12/02/2020 07:54:07	120220	12022020	075407	180.57	12.884387	-57.117233	180.54	0.540	-0.920	1.390	180.49	-2.30	1.90	 	 	 	 	 	 	 	 	 	 	 	 	 	 	 	 	 	 	1581494047	5.91	10.95
12/02/2020 07:54:08	120220	12022020	075408	180.18	12.884360	-57.117235	180.18	0.810	-0.710	1.300	180.12	-2.10	1.80	 	 	 	 	 	 	 	 	 	 	 	 	 	 	 	 	 	 	1581494048	5.72	10.59
12/02/2020 07:54:09	120220	12022020	075409	180.08	12.884337	-57.117235	180.15	0.480	-0.010	1.180	180.12	-1.40	1.70	 	 	 	 	 	 	 	 	 	 	 	 	 	 	 	 	 	 	1581494049	5.32	9.85
12/02/2020 07:54:10	120220	12022020	075410	180.31	12.884313	-57.117233	180.52	-0.210	0.680	1.130	180.39	-0.70	1.60	 	 	 	 	 	 	 	 	 	 	 	 	 	 	 	 	 	 	1581494050	4.79	8.87
12/02/2020 07:54:11	120220	12022020	075411	180.74	12.884292	-57.117237	180.80	-0.670	0.700	1.340	180.76	-0.60	1.80	 	 	 	 	 	 	 	 	 	 	 	 	 	 	 	 	 	 	1581494051	4.63	8.57
12/02/2020 07:54:12	120220	12022020	075412	180.70	12.884268	-57.117243	180.59	-0.460	-0.140	1.960	180.64	-1.40	2.40	 	 	 	 	 	 	 	 	 	 	 	 	 	 	 	 	 	 	1581494052	5.36	9.93
12/02/2020 07:54:13	120220	12022020	075413	180.12	12.884240	-57.117252	180.08	0.200	-1.010	2.650	180.02	-2.30	3.10	 	 	 	 	 	 	 	 	 	 	 	 	 	 	 	 	 	 	1581494053	6.43	11.91
12/02/2020 07:54:14	120220	12022020	075414	179.76	12.884210	-57.117260	179.82	0.560	-0.880	2.900	179.75	-2.30	3.40	 	 	 	 	 	 	 	 	 	 	 	 	 	 	 	 	 	 	1581494054	6.49	12.02
12/02/2020 07:54:15	120220	12022020	075415	179.89	12.884187	-57.117265	180.02	0.260	-0.040	2.620	179.96	-1.40	3.10	 	 	 	 	 	 	 	 	 	 	 	 	 	 	 	 	 	 	1581494055	5.28	9.78
12/02/2020 07:54:16	120220	12022020	075416	180.29	12.884167	-57.117267	180.39	-0.270	0.400	2.050	180.35	-1.00	2.60	 	 	 	 	 	 	 	 	 	 	 	 	 	 	 	 	 	 	1581494056	4.31	7.98
12/02/2020 07:54:17	120220	12022020	075417	180.47	12.884145	-57.117270	180.51	-0.370	-0.090	1.580	180.47	-1.40	2.10	 	 	 	 	 	 	 	 	 	 	 	 	 	 	 	 	 	 	1581494057	4.70	8.70
12/02/2020 07:54:18	120220	12022020	075418	180.43	12.884118	-57.117272	180.45	-0.040	-0.800	1.340	180.42	-2.10	1.80	 	 	 	 	 	 	 	 	 	 	 	 	 	 	 	 	 	 	1581494058	5.81	10.76
12/02/2020 07:54:19	120220	12022020	075419	180.37	12.884088	-57.117273	180.38	0.200	-0.910	1.240	180.35	-2.30	1.70	 	 	 	 	 	 	 	 	 	 	 	 	 	 	 	 	 	 	1581494059	6.22	11.52
12/02/2020 07:54:20	120220	12022020	075420	180.26	12.884063	-57.117277	180.26	0.100	-0.380	1.260	180.23	-1.80	1.70	 	 	 	 	 	 	 	 	 	 	 	 	 	 	 	 	 	 	1581494060	5.65	10.46
12/02/2020 07:54:21	120220	12022020	075421	180.12	12.884040	-57.117280	180.15	-0.110	0.240	1.370	180.11	-1.10	1.90	 	 	 	 	 	 	 	 	 	 	 	 	 	 	 	 	 	 	1581494061	5.00	9.26
12/02/2020 07:54:22	120220	12022020	075422	180.15	12.884017	-57.117285	180.24	-0.130	0.510	1.350	180.18	-0.90	1.80	 	 	 	 	 	 	 	 	 	 	 	 	 	 	 	 	 	 	1581494062	4.89	9.06
12/02/2020 07:54:23	120220	12022020	075423	180.32	12.883993	-57.117287	180.40	0.010	0.300	1.270	180.36	-1.10	1.80	 	 	 	 	 	 	 	 	 	 	 	 	 	 	 	 	 	 	1581494063	5.17	9.57
12/02/2020 07:54:24	120220	12022020	075424	180.48	12.883968	-57.117290	180.54	0.100	-0.210	1.310	180.50	-1.50	1.80	 	 	 	 	 	 	 	 	 	 	 	 	 	 	 	 	 	 	1581494064	5.57	10.32
12/02/2020 07:54:25	120220	12022020	075425	180.46	12.883942	-57.117293	180.48	0.040	-0.690	1.680	180.43	-2.00	2.10	 	 	 	 	 	 	 	 	 	 	 	 	 	 	 	 	 	 	1581494065	5.81	10.76
12/02/2020 07:54:26	120220	12022020	075426	180.16	12.883915	-57.117300	180.15	0.030	-0.880	2.220	180.08	-2.20	2.70	 	 	 	 	 	 	 	 	 	 	 	 	 	 	 	 	 	 	1581494066	5.89	10.91
12/02/2020 07:54:27	120220	12022020	075427	179.80	12.883888	-57.117307	179.86	0.100	-0.590	2.590	179.77	-2.00	3.10	 	 	 	 	 	 	 	 	 	 	 	 	 	 	 	 	 	 	1581494067	5.76	10.67
12/02/2020 07:54:28	120220	12022020	075428	179.85	12.883863	-57.117312	180.02	0.010	0.010	2.580	179.92	-1.40	3.10	 	 	 	 	 	 	 	 	 	 	 	 	 	 	 	 	 	 	1581494068	5.38	9.96
12/02/2020 07:54:29	120220	12022020	075429	180.36	12.883842	-57.117315	180.57	-0.320	0.470	2.420	180.49	-0.90	2.90	 	 	 	 	 	 	 	 	 	 	 	 	 	 	 	 	 	 	1581494069	4.97	9.20
12/02/2020 07:54:30	120220	12022020	075430	180.96	12.883818	-57.117320	181.11	-0.590	0.500	2.260	181.06	-0.90	2.70	 	 	 	 	 	 	 	 	 	 	 	 	 	 	 	 	 	 	1581494070	4.91	9.09
12/02/2020 07:54:31	120220	12022020	075431	181.23	12.883795	-57.117325	181.25	-0.420	-0.050	2.170	181.21	-1.40	2.70	 	 	 	 	 	 	 	 	 	 	 	 	 	 	 	 	 	 	1581494071	5.20	9.63
12/02/2020 07:54:32	120220	12022020	075432	180.96	12.883768	-57.117332	180.90	0.160	-0.860	2.200	180.86	-2.20	2.70	 	 	 	 	 	 	 	 	 	 	 	 	 	 	 	 	 	 	1581494072	5.74	10.63
12/02/2020 07:54:33	120220	12022020	075433	180.45	12.883740	-57.117335	180.40	0.700	-1.260	2.310	180.36	-2.60	2.80	 	 	 	 	 	 	 	 	 	 	 	 	 	 	 	 	 	 	1581494073	6.15	11.39
12/02/2020 07:54:34	120220	12022020	075434	180.16	12.883713	-57.117338	180.15	0.810	-0.800	2.300	180.12	-2.20	2.80	 	 	 	 	 	 	 	 	 	 	 	 	 	 	 	 	 	 	1581494074	5.95	11.02
12/02/2020 07:54:35	120220	12022020	075435	180.22	12.883690	-57.117340	180.35	0.440	0.210	1.980	180.30	-1.20	2.50	 	 	 	 	 	 	 	 	 	 	 	 	 	 	 	 	 	 	1581494075	5.17	9.57
12/02/2020 07:54:36	120220	12022020	075436	180.64	12.883668	-57.117340	180.95	-0.120	1.010	1.470	180.78	-0.40	2.00	 	 	 	 	 	 	 	 	 	 	 	 	 	 	 	 	 	 	1581494076	4.49	8.32
12/02/2020 07:54:37	120220	12022020	075437	181.48	12.883647	-57.117342	181.59	-0.460	0.880	1.060	181.59	-0.50	1.60	 	 	 	 	 	 	 	 	 	 	 	 	 	 	 	 	 	 	1581494077	4.52	8.37
12/02/2020 07:54:38	120220	12022020	075438	181.86	12.883623	-57.117343	181.88	-0.360	-0.180	1.060	181.87	-1.50	1.50	 	 	 	 	 	 	 	 	 	 	 	 	 	 	 	 	 	 	1581494078	5.34	9.89
12/02/2020 07:54:39	120220	12022020	075439	181.70	12.883593	-57.117350	181.66	-0.050	-1.250	1.660	181.62	-2.60	2.10	 	 	 	 	 	 	 	 	 	 	 	 	 	 	 	 	 	 	1581494079	6.31	11.69
12/02/2020 07:54:40	120220	12022020	075440	181.17	12.883565	-57.117357	181.11	0.050	-1.490	2.620	181.04	-2.90	3.00	 	 	 	 	 	 	 	 	 	 	 	 	 	 	 	 	 	 	1581494080	6.48	12.00
12/02/2020 07:54:41	120220	12022020	075441	180.69	12.883538	-57.117367	180.73	-0.170	-0.860	3.150	180.65	-2.30	3.60	 	 	 	 	 	 	 	 	 	 	 	 	 	 	 	 	 	 	1581494081	5.92	10.96
12/02/2020 07:54:42	120220	12022020	075442	180.67	12.883517	-57.117375	180.77	-0.460	0.100	2.910	180.70	-1.30	3.40	 	 	 	 	 	 	 	 	 	 	 	 	 	 	 	 	 	 	1581494082	5.20	9.63
12/02/2020 07:54:43	120220	12022020	075443	180.86	12.883495	-57.117382	180.96	-0.410	0.580	2.310	180.89	-0.80	2.80	 	 	 	 	 	 	 	 	 	 	 	 	 	 	 	 	 	 	1581494083	4.78	8.85
12/02/2020 07:54:44	120220	12022020	075444	180.99	12.883472	-57.117385	181.03	0.110	0.330	1.650	181.01	-1.00	2.20	 	 	 	 	 	 	 	 	 	 	 	 	 	 	 	 	 	 	1581494084	5.13	9.50
12/02/2020 07:54:45	120220	12022020	075445	181.08	12.883443	-57.117387	181.12	0.630	-0.190	1.110	181.11	-1.50	1.60	 	 	 	 	 	 	 	 	 	 	 	 	 	 	 	 	 	 	1581494085	5.87	10.87
12/02/2020 07:54:46	120220	12022020	075446	181.23	12.883415	-57.117385	181.27	0.680	-0.380	0.870	181.26	-1.80	1.40	 	 	 	 	 	 	 	 	 	 	 	 	 	 	 	 	 	 	1581494086	6.13	11.35
12/02/2020 07:54:47	120220	12022020	075447	181.38	12.883390	-57.117385	181.41	0.240	-0.230	1.130	181.40	-1.60	1.60	 	 	 	 	 	 	 	 	 	 	 	 	 	 	 	 	 	 	1581494087	5.65	10.46
12/02/2020 07:54:48	120220	12022020	075448	181.44	12.883365	-57.117390	181.44	-0.220	-0.000	1.680	181.43	-1.40	2.10	 	 	 	 	 	 	 	 	 	 	 	 	 	 	 	 	 	 	1581494088	5.21	9.65
12/02/2020 07:54:49	120220	12022020	075449	181.27	12.883342	-57.117398	181.23	-0.280	0.030	2.330	181.20	-1.30	2.80	 	 	 	 	 	 	 	 	 	 	 	 	 	 	 	 	 	 	1581494089	5.28	9.78
12/02/2020 07:54:50	120220	12022020	075450	180.90	12.883318	-57.117407	180.88	-0.040	-0.190	2.980	180.85	-1.50	3.40	 	 	 	 	 	 	 	 	 	 	 	 	 	 	 	 	 	 	1581494090	5.50	10.19
12/02/2020 07:54:51	120220	12022020	075451	180.75	12.883292	-57.117415	180.80	0.070	-0.400	3.350	180.75	-1.80	3.80	 	 	 	 	 	 	 	 	 	 	 	 	 	 	 	 	 	 	1581494091	5.83	10.80
12/02/2020 07:54:52	120220	12022020	075452	180.79	12.883267	-57.117422	180.86	-0.040	-0.450	3.520	180.80	-1.80	4.00	 	 	 	 	 	 	 	 	 	 	 	 	 	 	 	 	 	 	1581494092	5.77	10.69
12/02/2020 07:54:53	120220	12022020	075453	180.79	12.883242	-57.117430	180.85	-0.120	-0.360	3.440	180.77	-1.70	3.90	 	 	 	 	 	 	 	 	 	 	 	 	 	 	 	 	 	 	1581494093	5.52	10.22
12/02/2020 07:54:54	120220	12022020	075454	180.72	12.883218	-57.117435	180.80	-0.000	-0.230	2.940	180.72	-1.60	3.40	 	 	 	 	 	 	 	 	 	 	 	 	 	 	 	 	 	 	1581494094	5.29	9.80
12/02/2020 07:54:55	120220	12022020	075455	180.78	12.883193	-57.117437	180.87	0.150	-0.250	2.080	180.80	-1.60	2.60	 	 	 	 	 	 	 	 	 	 	 	 	 	 	 	 	 	 	1581494095	5.22	9.67
12/02/2020 07:54:56	120220	12022020	075456	180.84	12.883168	-57.117437	180.85	0.240	-0.600	1.410	180.81	-1.90	1.90	 	 	 	 	 	 	 	 	 	 	 	 	 	 	 	 	 	 	1581494096	5.39	9.98
12/02/2020 07:54:57	120220	12022020	075457	180.63	12.883142	-57.117438	180.62	0.300	-0.870	1.200	180.58	-2.20	1.70	 	 	 	 	 	 	 	 	 	 	 	 	 	 	 	 	 	 	1581494097	5.82	10.78
12/02/2020 07:54:58	120220	12022020	075458	180.46	12.883113	-57.117442	180.50	0.260	-0.410	1.140	180.46	-1.80	1.60	 	 	 	 	 	 	 	 	 	 	 	 	 	 	 	 	 	 	1581494098	5.96	11.04
12/02/2020 07:54:59	120220	12022020	075459	180.59	12.883090	-57.117443	180.67	-0.000	0.520	1.160	180.64	-0.90	1.60	 	 	 	 	 	 	 	 	 	 	 	 	 	 	 	 	 	 	1581494099	5.22	9.67
12/02/2020 07:55:00	120220	12022020	075500	180.76	12.883068	-57.117447	180.83	-0.380	0.910	1.400	180.79	-0.50	1.90	 	 	 	 	 	 	 	 	 	 	 	 	 	 	 	 	 	 	1581494100	4.61	8.54
12/02/2020 07:55:01	120220	12022020	075501	180.72	12.883045	-57.117452	180.70	-0.590	0.280	2.030	180.66	-1.00	2.50	1014.80	26.20	26.30	20.50	20.60	-1.0	70.0	70.0	395.0	25.8	272.00	11.10	78.00	11.30	16	10488.0	27.4	27.4	1581494101	5.09	9.43
12/02/2020 07:55:02	120220	12022020	075502	180.42	12.883017	-57.117460	180.30	-0.560	-0.780	3.020	180.33	-2.10	3.40	 	 	 	 	 	 	 	 	 	 	 	 	 	 	 	 	 	 	1581494102	6.25	11.58
12/02/2020 07:55:03	120220	12022020	075503	179.97	12.882987	-57.117472	180.03	-0.380	-1.140	3.800	179.93	-2.50	4.20	 	 	 	 	 	 	 	 	 	 	 	 	 	 	 	 	 	 	1581494103	6.96	12.89
12/02/2020 07:55:04	120220	12022020	075504	179.92	12.882960	-57.117483	180.04	-0.120	-0.460	3.820	179.95	-1.90	4.30	 	 	 	 	 	 	 	 	 	 	 	 	 	 	 	 	 	 	1581494104	6.37	11.80
12/02/2020 07:55:05	120220	12022020	075505	180.14	12.882938	-57.117492	180.28	0.300	0.440	3.020	180.20	-1.00	3.50	 	 	 	 	 	 	 	 	 	 	 	 	 	 	 	 	 	 	1581494105	4.97	9.20
12/02/2020 07:55:06	120220	12022020	075506	180.46	12.882918	-57.117493	180.58	0.810	0.610	1.710	180.53	-0.80	2.30	 	 	 	 	 	 	 	 	 	 	 	 	 	 	 	 	 	 	1581494106	4.34	8.04
12/02/2020 07:55:07	120220	12022020	075507	180.69	12.882895	-57.117490	180.72	1.110	-0.010	0.630	180.69	-1.40	1.10	 	 	 	 	 	 	 	 	 	 	 	 	 	 	 	 	 	 	1581494107	5.12	9.48
12/02/2020 07:55:08	120220	12022020	075508	180.59	12.882868	-57.117483	180.54	0.910	-0.890	0.290	180.53	-2.30	0.80	 	 	 	 	 	 	 	 	 	 	 	 	 	 	 	 	 	 	1581494108	5.95	11.02
12/02/2020 07:55:09	120220	12022020	075509	180.21	12.882840	-57.117480	180.13	0.220	-1.480	0.840	180.11	-2.90	1.30	 	 	 	 	 	 	 	 	 	 	 	 	 	 	 	 	 	 	1581494109	6.13	11.35
12/02/2020 07:55:10	120220	12022020	075510	179.61	12.882812	-57.117483	179.52	-0.570	-1.400	2.010	179.48	-2.80	2.40	 	 	 	 	 	 	 	 	 	 	 	 	 	 	 	 	 	 	1581494110	6.01	11.13
12/02/2020 07:55:11	120220	12022020	075511	179.07	12.882787	-57.117495	179.09	-1.040	-0.640	3.090	179.02	-2.10	3.50	 	 	 	 	 	 	 	 	 	 	 	 	 	 	 	 	 	 	1581494111	6.08	11.26
12/02/2020 07:55:12	120220	12022020	075512	179.09	12.882763	-57.117510	179.27	-1.080	0.510	3.360	179.18	-0.90	3.80	 	 	 	 	 	 	 	 	 	 	 	 	 	 	 	 	 	 	1581494112	5.92	10.96
12/02/2020 07:55:13	120220	12022020	075513	179.73	12.882742	-57.117520	179.98	-0.810	1.290	2.830	179.91	-0.10	3.30	 	 	 	 	 	 	 	 	 	 	 	 	 	 	 	 	 	 	1581494113	5.21	9.65
12/02/2020 07:55:14	120220	12022020	075514	180.44	12.882718	-57.117527	180.77	-0.390	1.100	1.950	180.58	-0.30	2.50	 	 	 	 	 	 	 	 	 	 	 	 	 	 	 	 	 	 	1581494114	4.93	9.13
12/02/2020 07:55:15	120220	12022020	075515	181.10	12.882693	-57.117528	181.14	0.130	0.120	1.200	181.14	-1.20	1.70	 	 	 	 	 	 	 	 	 	 	 	 	 	 	 	 	 	 	1581494115	5.46	10.11
12/02/2020 07:55:16	120220	12022020	075516	181.11	12.882665	-57.117528	181.04	0.660	-0.870	0.780	181.06	-2.20	1.30	 	 	 	 	 	 	 	 	 	 	 	 	 	 	 	 	 	 	1581494116	6.08	11.26
12/02/2020 07:55:17	120220	12022020	075517	180.75	12.882637	-57.117528	180.64	1.090	-1.230	0.680	180.66	-2.60	1.20	 	 	 	 	 	 	 	 	 	 	 	 	 	 	 	 	 	 	1581494117	6.08	11.26
12/02/2020 07:55:18	120220	12022020	075518	180.31	12.882612	-57.117528	180.23	1.140	-0.890	0.860	180.26	-2.30	1.30	 	 	 	 	 	 	 	 	 	 	 	 	 	 	 	 	 	 	1581494118	5.56	10.30
12/02/2020 07:55:19	120220	12022020	075519	180.26	12.882588	-57.117528	180.29	0.560	-0.200	1.160	180.31	-1.60	1.60	 	 	 	 	 	 	 	 	 	 	 	 	 	 	 	 	 	 	1581494119	5.01	9.28
12/02/2020 07:55:20	120220	12022020	075520	180.62	12.882567	-57.117530	180.71	-0.380	0.240	1.580	180.71	-1.20	2.00	 	 	 	 	 	 	 	 	 	 	 	 	 	 	 	 	 	 	1581494120	4.71	8.72
12/02/2020 07:55:21	120220	12022020	075521	181.02	12.882543	-57.117537	181.08	-1.040	0.090	2.160	181.07	-1.30	2.60	 	 	 	 	 	 	 	 	 	 	 	 	 	 	 	 	 	 	1581494121	5.13	9.50
12/02/2020 07:55:22	120220	12022020	075522	181.19	12.882517	-57.117548	181.22	-1.010	-0.450	2.850	181.19	-1.80	3.30	 	 	 	 	 	 	 	 	 	 	 	 	 	 	 	 	 	 	1581494122	5.97	11.06
12/02/2020 07:55:23	120220	12022020	075523	181.04	12.882490	-57.117560	181.03	-0.480	-0.790	3.500	180.97	-2.20	3.90	 	 	 	 	 	 	 	 	 	 	 	 	 	 	 	 	 	 	1581494123	6.48	12.00
12/02/2020 07:55:24	120220	12022020	075524	180.57	12.882462	-57.117570	180.55	0.090	-0.640	3.840	180.47	-2.00	4.30	 	 	 	 	 	 	 	 	 	 	 	 	 	 	 	 	 	 	1581494124	6.30	11.67
12/02/2020 07:55:25	120220	12022020	075525	180.22	12.882437	-57.117578	180.30	0.280	0.030	3.530	180.22	-1.40	4.00	 	 	 	 	 	 	 	 	 	 	 	 	 	 	 	 	 	 	1581494125	5.71	10.57
12/02/2020 07:55:26	120220	12022020	075526	180.34	12.882413	-57.117580	180.58	0.120	0.780	2.640	180.42	-0.70	3.20	 	 	 	 	 	 	 	 	 	 	 	 	 	 	 	 	 	 	1581494126	5.02	9.30
12/02/2020 07:55:27	120220	12022020	075527	180.95	12.882392	-57.117582	181.10	0.040	0.970	1.510	181.04	-0.40	2.10	 	 	 	 	 	 	 	 	 	 	 	 	 	 	 	 	 	 	1581494127	4.69	8.69
12/02/2020 07:55:28	120220	12022020	075528	181.34	12.882368	-57.117580	181.40	0.320	0.240	0.560	181.37	-1.10	1.10	 	 	 	 	 	 	 	 	 	 	 	 	 	 	 	 	 	 	1581494128	5.05	9.35
12/02/2020 07:55:29	120220	12022020	075529	181.31	12.882342	-57.117577	181.26	0.730	-0.930	0.270	181.25	-2.30	0.80	 	 	 	 	 	 	 	 	 	 	 	 	 	 	 	 	 	 	1581494129	5.89	10.91
12/02/2020 07:55:30	120220	12022020	075530	180.94	12.882312	-57.117577	180.86	0.750	-1.630	0.600	180.85	-3.00	1.10	 	 	 	 	 	 	 	 	 	 	 	 	 	 	 	 	 	 	1581494130	6.37	11.80
12/02/2020 07:55:31	120220	12022020	075531	180.53	12.882283	-57.117580	180.49	0.210	-1.430	1.260	180.46	-2.90	1.70	 	 	 	 	 	 	 	 	 	 	 	 	 	 	 	 	 	 	1581494131	6.05	11.20
12/02/2020 07:55:32	120220	12022020	075532	180.26	12.882260	-57.117588	180.29	-0.510	-0.560	2.100	180.24	-2.00	2.50	 	 	 	 	 	 	 	 	 	 	 	 	 	 	 	 	 	 	1581494132	5.43	10.06
12/02/2020 07:55:33	120220	12022020	075533	180.29	12.882237	-57.117598	180.40	-0.940	0.420	2.680	180.34	-1.00	3.10	 	 	 	 	 	 	 	 	 	 	 	 	 	 	 	 	 	 	1581494133	5.18	9.59
12/02/2020 07:55:34	120220	12022020	075534	180.55	12.882215	-57.117608	180.63	-0.840	0.830	2.830	180.58	-0.60	3.30	 	 	 	 	 	 	 	 	 	 	 	 	 	 	 	 	 	 	1581494134	5.14	9.52
12/02/2020 07:55:35	120220	12022020	075535	180.63	12.882190	-57.117615	180.68	-0.340	0.430	2.830	180.63	-0.90	3.30	 	 	 	 	 	 	 	 	 	 	 	 	 	 	 	 	 	 	1581494135	5.51	10.20
12/02/2020 07:55:36	120220	12022020	075536	180.58	12.882163	-57.117620	180.60	0.170	-0.160	2.740	180.57	-1.50	3.20	 	 	 	 	 	 	 	 	 	 	 	 	 	 	 	 	 	 	1581494136	6.17	11.43
12/02/2020 07:55:37	120220	12022020	075537	180.56	12.882133	-57.117623	180.61	0.400	-0.260	2.410	180.56	-1.70	2.90	 	 	 	 	 	 	 	 	 	 	 	 	 	 	 	 	 	 	1581494137	6.21	11.50
12/02/2020 07:55:38	120220	12022020	075538	180.55	12.882108	-57.117625	180.56	0.410	-0.090	1.960	180.55	-1.50	2.50	 	 	 	 	 	 	 	 	 	 	 	 	 	 	 	 	 	 	1581494138	5.48	10.15
12/02/2020 07:55:39	120220	12022020	075539	180.36	12.882085	-57.117625	180.34	0.420	-0.220	1.630	180.31	-1.60	2.10	 	 	 	 	 	 	 	 	 	 	 	 	 	 	 	 	 	 	1581494139	5.06	9.37
12/02/2020 07:55:40	120220	12022020	075540	180.12	12.882060	-57.117625	180.10	0.420	-0.590	1.470	180.07	-2.00	2.00	 	 	 	 	 	 	 	 	 	 	 	 	 	 	 	 	 	 	1581494140	5.42	10.04
12/02/2020 07:55:41	120220	12022020	075541	179.92	12.882033	-57.117627	179.91	0.260	-0.770	1.560	179.89	-2.20	2.10	 	 	 	 	 	 	 	 	 	 	 	 	 	 	 	 	 	 	1581494141	5.73	10.61
12/02/2020 07:55:42	120220	12022020	075542	179.81	12.882007	-57.117630	179.84	-0.070	-0.600	1.720	179.80	-2.00	2.20	 	 	 	 	 	 	 	 	 	 	 	 	 	 	 	 	 	 	1581494142	5.61	10.39
12/02/2020 07:55:43	120220	12022020	075543	179.76	12.881982	-57.117637	179.81	-0.440	-0.270	1.890	179.76	-1.70	2.40	 	 	 	 	 	 	 	 	 	 	 	 	 	 	 	 	 	 	1581494143	5.42	10.04
12/02/2020 07:55:44	120220	12022020	075544	179.81	12.881958	-57.117642	179.87	-0.670	0.050	2.110	179.84	-1.40	2.60	 	 	 	 	 	 	 	 	 	 	 	 	 	 	 	 	 	 	1581494144	5.44	10.07
12/02/2020 07:55:45	120220	12022020	075545	179.99	12.881933	-57.117650	180.09	-0.590	0.280	2.310	180.05	-1.10	2.80	 	 	 	 	 	 	 	 	 	 	 	 	 	 	 	 	 	 	1581494145	5.59	10.35
12/02/2020 07:55:46	120220	12022020	075546	180.26	12.881908	-57.117658	180.34	-0.130	0.310	2.070	180.31	-1.10	2.60	 	 	 	 	 	 	 	 	 	 	 	 	 	 	 	 	 	 	1581494146	5.59	10.35
12/02/2020 07:55:47	120220	12022020	075547	180.52	12.881883	-57.117662	180.57	0.530	0.150	1.310	180.57	-1.30	1.80	 	 	 	 	 	 	 	 	 	 	 	 	 	 	 	 	 	 	1581494147	5.50	10.19
12/02/2020 07:55:48	120220	12022020	075548	180.65	12.881857	-57.117660	180.65	0.950	-0.190	0.670	180.64	-1.60	1.20	 	 	 	 	 	 	 	 	 	 	 	 	 	 	 	 	 	 	1581494148	5.55	10.28
12/02/2020 07:55:49	120220	12022020	075549	180.47	12.881832	-57.117655	180.40	0.780	-0.620	0.750	180.40	-2.00	1.20	 	 	 	 	 	 	 	 	 	 	 	 	 	 	 	 	 	 	1581494149	5.73	10.61
12/02/2020 07:55:50	120220	12022020	075550	180.12	12.881805	-57.117653	179.93	0.080	-0.930	1.630	180.03	-2.30	2.10	 	 	 	 	 	 	 	 	 	 	 	 	 	 	 	 	 	 	1581494150	5.74	10.63
12/02/2020 07:55:51	120220	12022020	075551	179.56	12.881778	-57.117662	179.52	-0.660	-0.810	2.800	179.48	-2.20	3.20	 	 	 	 	 	 	 	 	 	 	 	 	 	 	 	 	 	 	1581494151	5.86	10.85
12/02/2020 07:55:52	120220	12022020	075552	179.32	12.881753	-57.117673	179.35	-0.930	-0.350	3.570	179.29	-1.80	4.00	 	 	 	 	 	 	 	 	 	 	 	 	 	 	 	 	 	 	1581494152	6.02	11.15
12/02/2020 07:55:53	120220	12022020	075553	179.27	12.881728	-57.117687	179.40	-0.610	0.040	3.530	179.29	-1.40	4.00	 	 	 	 	 	 	 	 	 	 	 	 	 	 	 	 	 	 	1581494153	5.83	10.80
12/02/2020 07:55:54	120220	12022020	075554	179.52	12.881705	-57.117695	179.69	-0.050	0.150	2.750	179.60	-1.20	3.30	 	 	 	 	 	 	 	 	 	 	 	 	 	 	 	 	 	 	1581494154	5.52	10.22
12/02/2020 07:55:55	120220	12022020	075555	180.01	12.881678	-57.117695	180.18	0.340	0.060	1.670	180.11	-1.30	2.20	 	 	 	 	 	 	 	 	 	 	 	 	 	 	 	 	 	 	1581494155	5.54	10.26
12/02/2020 07:55:56	120220	12022020	075556	180.43	12.881653	-57.117693	180.51	0.430	-0.060	0.680	180.47	-1.40	1.20	 	 	 	 	 	 	 	 	 	 	 	 	 	 	 	 	 	 	1581494156	5.61	10.39
12/02/2020 07:55:57	120220	12022020	075557	180.49	12.881627	-57.117690	180.47	0.380	-0.270	0.180	180.45	-1.70	0.70	 	 	 	 	 	 	 	 	 	 	 	 	 	 	 	 	 	 	1581494157	5.58	10.33
12/02/2020 07:55:58	120220	12022020	075558	180.18	12.881602	-57.117687	180.12	0.230	-0.510	0.450	180.11	-1.90	0.90	 	 	 	 	 	 	 	 	 	 	 	 	 	 	 	 	 	 	1581494158	5.65	10.46
12/02/2020 07:55:59	120220	12022020	075559	179.85	12.881575	-57.117688	179.84	-0.010	-0.420	1.140	179.81	-1.80	1.60	 	 	 	 	 	 	 	 	 	 	 	 	 	 	 	 	 	 	1581494159	5.75	10.65
12/02/2020 07:56:00	120220	12022020	075600	179.80	12.881548	-57.117695	179.87	-0.280	0.070	1.780	179.82	-1.40	2.20	 	 	 	 	 	 	 	 	 	 	 	 	 	 	 	 	 	 	1581494160	5.57	10.32
12/02/2020 07:56:01	120220	12022020	075601	179.97	12.881527	-57.117702	180.06	-0.400	0.440	2.280	180.02	-1.00	2.70	1014.80	26.10	26.20	20.40	20.40	-1.0	70.0	70.0	397.0	25.8	269.00	10.80	75.00	11.20	16	10153.0	27.4	27.3	1581494161	5.22	9.67
12/02/2020 07:56:02	120220	12022020	075602	180.23	12.881503	-57.117710	180.32	-0.210	0.330	2.510	180.28	-1.10	3.00	 	 	 	 	 	 	 	 	 	 	 	 	 	 	 	 	 	 	1581494162	5.27	9.76
12/02/2020 07:56:03	120220	12022020	075603	180.42	12.881478	-57.117717	180.47	0.200	-0.130	2.530	180.42	-1.50	3.00	 	 	 	 	 	 	 	 	 	 	 	 	 	 	 	 	 	 	1581494163	5.56	10.30
12/02/2020 07:56:04	120220	12022020	075604	180.34	12.881452	-57.117722	180.27	0.560	-0.660	2.560	180.28	-2.00	3.00	 	 	 	 	 	 	 	 	 	 	 	 	 	 	 	 	 	 	1581494164	5.74	10.63
12/02/2020 07:56:05	120220	12022020	075605	179.98	12.881425	-57.117723	180.02	0.570	-0.990	2.490	179.96	-2.40	3.00	 	 	 	 	 	 	 	 	 	 	 	 	 	 	 	 	 	 	1581494165	5.83	10.80
12/02/2020 07:56:06	120220	12022020	075606	179.97	12.881398	-57.117725	180.03	0.190	-0.940	2.260	180.01	-2.40	2.80	 	 	 	 	 	 	 	 	 	 	 	 	 	 	 	 	 	 	1581494166	5.72	10.59
12/02/2020 07:56:07	120220	12022020	075607	180.15	12.881373	-57.117728	180.19	-0.220	-0.630	1.980	180.18	-2.10	2.50	 	 	 	 	 	 	 	 	 	 	 	 	 	 	 	 	 	 	1581494167	5.39	9.98
12/02/2020 07:56:08	120220	12022020	075608	180.23	12.881348	-57.117732	180.23	-0.330	-0.390	1.710	180.24	-1.80	2.20	 	 	 	 	 	 	 	 	 	 	 	 	 	 	 	 	 	 	1581494168	5.26	9.74
12/02/2020 07:56:09	120220	12022020	075609	180.26	12.881323	-57.117735	180.25	-0.210	-0.180	1.420	180.27	-1.60	1.90	 	 	 	 	 	 	 	 	 	 	 	 	 	 	 	 	 	 	1581494169	5.51	10.20
12/02/2020 07:56:10	120220	12022020	075610	180.32	12.881297	-57.117735	180.32	-0.200	0.110	1.320	180.33	-1.30	1.80	 	 	 	 	 	 	 	 	 	 	 	 	 	 	 	 	 	 	1581494170	5.63	10.43
12/02/2020 07:56:11	120220	12022020	075611	180.38	12.881272	-57.117737	180.38	-0.330	0.310	1.330	180.39	-1.10	1.80	 	 	 	 	 	 	 	 	 	 	 	 	 	 	 	 	 	 	1581494171	5.54	10.26
12/02/2020 07:56:12	120220	12022020	075612	180.45	12.881245	-57.117740	180.45	-0.420	0.340	1.360	180.46	-1.10	1.80	 	 	 	 	 	 	 	 	 	 	 	 	 	 	 	 	 	 	1581494172	5.58	10.33
12/02/2020 07:56:13	120220	12022020	075613	180.51	12.881220	-57.117745	180.51	-0.330	0.350	1.610	180.52	-1.10	2.10	 	 	 	 	 	 	 	 	 	 	 	 	 	 	 	 	 	 	1581494173	5.72	10.59
12/02/2020 07:56:14	120220	12022020	075614	180.54	12.881193	-57.117750	180.53	-0.070	0.270	2.100	180.54	-1.10	2.60	 	 	 	 	 	 	 	 	 	 	 	 	 	 	 	 	 	 	1581494174	5.63	10.43
12/02/2020 07:56:15	120220	12022020	075615	180.48	12.881168	-57.117757	180.47	0.280	0.030	2.450	180.46	-1.40	2.90	 	 	 	 	 	 	 	 	 	 	 	 	 	 	 	 	 	 	1581494175	5.62	10.41
12/02/2020 07:56:16	120220	12022020	075616	180.35	12.881143	-57.117763	180.25	0.670	-0.340	2.430	180.30	-1.70	2.90	 	 	 	 	 	 	 	 	 	 	 	 	 	 	 	 	 	 	1581494176	5.61	10.39
12/02/2020 07:56:17	120220	12022020	075617	180.03	12.881117	-57.117767	180.01	0.900	-0.690	2.200	179.99	-2.10	2.70	 	 	 	 	 	 	 	 	 	 	 	 	 	 	 	 	 	 	1581494177	5.61	10.39
12/02/2020 07:56:18	120220	12022020	075618	179.96	12.881092	-57.117767	179.99	0.740	-0.660	1.840	179.97	-2.10	2.40	 	 	 	 	 	 	 	 	 	 	 	 	 	 	 	 	 	 	1581494178	5.54	10.26
12/02/2020 07:56:19	120220	12022020	075619	180.11	12.881067	-57.117767	180.15	0.240	-0.390	1.490	180.13	-1.80	2.00	 	 	 	 	 	 	 	 	 	 	 	 	 	 	 	 	 	 	1581494179	5.14	9.52
12/02/2020 07:56:20	120220	12022020	075620	180.23	12.881045	-57.117768	180.26	-0.270	-0.430	1.340	180.24	-1.80	1.80	 	 	 	 	 	 	 	 	 	 	 	 	 	 	 	 	 	 	1581494180	4.93	9.13
12/02/2020 07:56:21	120220	12022020	075621	180.28	12.881020	-57.117772	180.31	-0.500	-0.810	1.460	180.29	-2.20	1.90	 	 	 	 	 	 	 	 	 	 	 	 	 	 	 	 	 	 	1581494181	5.44	10.07
12/02/2020 07:56:22	120220	12022020	075622	180.38	12.880992	-57.117778	180.44	-0.480	-1.030	1.630	180.41	-2.40	2.10	 	 	 	 	 	 	 	 	 	 	 	 	 	 	 	 	 	 	1581494182	6.14	11.37
12/02/2020 07:56:23	120220	12022020	075623	180.50	12.880963	-57.117783	180.55	-0.410	-0.690	1.790	180.52	-2.10	2.30	 	 	 	 	 	 	 	 	 	 	 	 	 	 	 	 	 	 	1581494183	6.15	11.39
12/02/2020 07:56:24	120220	12022020	075624	180.53	12.880937	-57.117788	180.55	-0.410	-0.060	1.930	180.52	-1.50	2.40	 	 	 	 	 	 	 	 	 	 	 	 	 	 	 	 	 	 	1581494184	5.64	10.45
12/02/2020 07:56:25	120220	12022020	075625	180.47	12.880913	-57.117792	180.46	-0.450	0.450	2.030	180.44	-1.00	2.50	 	 	 	 	 	 	 	 	 	 	 	 	 	 	 	 	 	 	1581494185	5.34	9.89
12/02/2020 07:56:26	120220	12022020	075626	180.27	12.880888	-57.117793	180.24	-0.420	0.620	2.140	180.22	-0.80	2.60	 	 	 	 	 	 	 	 	 	 	 	 	 	 	 	 	 	 	1581494186	5.41	10.02
12/02/2020 07:56:27	120220	12022020	075627	180.03	12.880862	-57.117798	180.04	-0.220	0.560	2.140	180.00	-0.80	2.60	 	 	 	 	 	 	 	 	 	 	 	 	 	 	 	 	 	 	1581494187	5.69	10.54
12/02/2020 07:56:28	120220	12022020	075628	179.94	12.880835	-57.117802	179.95	0.160	0.410	2.030	179.92	-1.00	2.50	 	 	 	 	 	 	 	 	 	 	 	 	 	 	 	 	 	 	1581494188	5.78	10.70
12/02/2020 07:56:29	120220	12022020	075629	179.95	12.880808	-57.117805	180.00	0.580	0.170	1.730	179.97	-1.20	2.20	 	 	 	 	 	 	 	 	 	 	 	 	 	 	 	 	 	 	1581494189	5.64	10.45
12/02/2020 07:56:30	120220	12022020	075630	180.11	12.880783	-57.117807	180.16	0.790	-0.050	1.280	180.14	-1.40	1.80	 	 	 	 	 	 	 	 	 	 	 	 	 	 	 	 	 	 	1581494190	5.49	10.17
12/02/2020 07:56:31	120220	12022020	075631	180.29	12.880758	-57.117807	180.33	0.700	-0.280	0.990	180.31	-1.60	1.50	 	 	 	 	 	 	 	 	 	 	 	 	 	 	 	 	 	 	1581494191	5.26	9.74
12/02/2020 07:56:32	120220	12022020	075632	180.38	12.880735	-57.117807	180.39	0.410	-0.710	1.020	180.39	-2.10	1.50	 	 	 	 	 	 	 	 	 	 	 	 	 	 	 	 	 	 	1581494192	5.12	9.48
12/02/2020 07:56:33	120220	12022020	075633	180.33	12.880710	-57.117808	180.30	-0.010	-1.230	1.420	180.30	-2.60	1.90	 	 	 	 	 	 	 	 	 	 	 	 	 	 	 	 	 	 	1581494193	5.37	9.95
12/02/2020 07:56:34	120220	12022020	075634	180.07	12.880685	-57.117813	180.04	-0.460	-1.410	2.180	179.98	-2.80	2.60	 	 	 	 	 	 	 	 	 	 	 	 	 	 	 	 	 	 	1581494194	5.69	10.54
12/02/2020 07:56:35	120220	12022020	075635	179.70	12.880658	-57.117823	179.72	-0.780	-0.990	2.910	179.64	-2.40	3.40	 	 	 	 	 	 	 	 	 	 	 	 	 	 	 	 	 	 	1581494195	5.84	10.82
12/02/2020 07:56:36	120220	12022020	075636	179.47	12.880635	-57.117833	179.53	-0.770	-0.210	3.180	179.46	-1.60	3.70	 	 	 	 	 	 	 	 	 	 	 	 	 	 	 	 	 	 	1581494196	5.60	10.37
12/02/2020 07:56:37	120220	12022020	075637	179.48	12.880613	-57.117842	179.58	-0.360	0.290	2.770	179.52	-1.10	3.30	 	 	 	 	 	 	 	 	 	 	 	 	 	 	 	 	 	 	1581494197	5.21	9.65
12/02/2020 07:56:38	120220	12022020	075638	179.69	12.880588	-57.117845	179.79	0.250	0.230	1.810	179.74	-1.10	2.30	 	 	 	 	 	 	 	 	 	 	 	 	 	 	 	 	 	 	1581494198	5.31	9.83
12/02/2020 07:56:39	120220	12022020	075639	179.89	12.880562	-57.117842	179.95	0.610	0.010	1.010	179.91	-1.40	1.50	 	 	 	 	 	 	 	 	 	 	 	 	 	 	 	 	 	 	1581494199	5.82	10.78
12/02/2020 07:56:40	120220	12022020	075640	179.91	12.880533	-57.117837	179.91	0.420	0.020	0.770	179.90	-1.40	1.30	 	 	 	 	 	 	 	 	 	 	 	 	 	 	 	 	 	 	1581494200	5.93	10.98
12/02/2020 07:56:41	120220	12022020	075641	179.84	12.880508	-57.117835	179.85	-0.160	0.350	0.900	179.83	-1.00	1.40	 	 	 	 	 	 	 	 	 	 	 	 	 	 	 	 	 	 	1581494201	5.42	10.04
12/02/2020 07:56:42	120220	12022020	075642	179.76	12.880487	-57.117838	179.73	-0.600	0.570	1.330	179.73	-0.80	1.80	 	 	 	 	 	 	 	 	 	 	 	 	 	 	 	 	 	 	1581494202	4.86	9.00
12/02/2020 07:56:43	120220	12022020	075643	179.60	12.880465	-57.117845	179.63	-0.480	0.260	1.810	179.57	-1.10	2.30	 	 	 	 	 	 	 	 	 	 	 	 	 	 	 	 	 	 	1581494203	4.99	9.24
12/02/2020 07:56:44	120220	12022020	075644	179.47	12.880440	-57.117853	179.51	0.060	-0.420	2.090	179.44	-1.80	2.60	 	 	 	 	 	 	 	 	 	 	 	 	 	 	 	 	 	 	1581494204	5.50	10.19
12/02/2020 07:56:45	120220	12022020	075645	179.35	12.880413	-57.117858	179.39	0.480	-0.940	2.250	179.33	-2.30	2.70	 	 	 	 	 	 	 	 	 	 	 	 	 	 	 	 	 	 	1581494205	5.75	10.65
12/02/2020 07:56:46	120220	12022020	075646	179.27	12.880388	-57.117863	179.32	0.440	-1.010	2.410	179.25	-2.40	2.90	 	 	 	 	 	 	 	 	 	 	 	 	 	 	 	 	 	 	1581494206	5.53	10.24
12/02/2020 07:56:47	120220	12022020	075647	179.20	12.880365	-57.117868	179.27	0.070	-0.710	2.520	179.19	-2.10	3.00	 	 	 	 	 	 	 	 	 	 	 	 	 	 	 	 	 	 	1581494207	5.10	9.45
12/02/2020 07:56:48	120220	12022020	075648	179.13	12.880343	-57.117873	179.21	-0.220	-0.260	2.460	179.12	-1.70	2.90	 	 	 	 	 	 	 	 	 	 	 	 	 	 	 	 	 	 	1581494208	4.83	8.95
12/02/2020 07:56:49	120220	12022020	075649	179.11	12.880322	-57.117877	179.18	-0.200	-0.020	2.150	179.11	-1.40	2.70	 	 	 	 	 	 	 	 	 	 	 	 	 	 	 	 	 	 	1581494209	4.76	8.82
12/02/2020 07:56:50	120220	12022020	075650	179.14	12.880298	-57.117878	179.21	0.030	-0.220	1.620	179.15	-1.60	2.10	 	 	 	 	 	 	 	 	 	 	 	 	 	 	 	 	 	 	1581494210	4.99	9.24
12/02/2020 07:56:51	120220	12022020	075651	179.18	12.880272	-57.117878	179.24	0.220	-0.490	1.120	179.18	-1.90	1.60	 	 	 	 	 	 	 	 	 	 	 	 	 	 	 	 	 	 	1581494211	5.52	10.22
12/02/2020 07:56:52	120220	12022020	075652	179.13	12.880247	-57.117878	179.16	0.120	-0.230	0.950	179.10	-1.60	1.50	 	 	 	 	 	 	 	 	 	 	 	 	 	 	 	 	 	 	1581494212	5.57	10.32
12/02/2020 07:56:53	120220	12022020	075653	179.00	12.880223	-57.117878	179.02	-0.200	0.380	1.200	178.97	-1.00	1.70	 	 	 	 	 	 	 	 	 	 	 	 	 	 	 	 	 	 	1581494213	4.94	9.15
12/02/2020 07:56:54	120220	12022020	075654	178.91	12.880203	-57.117882	178.95	-0.390	0.650	1.590	178.90	-0.70	2.10	 	 	 	 	 	 	 	 	 	 	 	 	 	 	 	 	 	 	1581494214	4.48	8.30
12/02/2020 07:56:55	120220	12022020	075655	178.84	12.880182	-57.117888	178.88	-0.130	0.220	1.890	178.82	-1.10	2.40	 	 	 	 	 	 	 	 	 	 	 	 	 	 	 	 	 	 	1581494215	4.89	9.06
12/02/2020 07:56:56	120220	12022020	075656	178.80	12.880157	-57.117895	178.88	0.390	-0.440	1.970	178.80	-1.80	2.50	 	 	 	 	 	 	 	 	 	 	 	 	 	 	 	 	 	 	1581494216	5.54	10.26
12/02/2020 07:56:57	120220	12022020	075657	178.92	12.880130	-57.117898	179.05	0.560	-0.650	1.900	178.96	-2.00	2.40	 	 	 	 	 	 	 	 	 	 	 	 	 	 	 	 	 	 	1581494217	5.62	10.41
12/02/2020 07:56:58	120220	12022020	075658	179.07	12.880107	-57.117900	179.13	0.170	-0.510	1.880	179.05	-1.90	2.40	 	 	 	 	 	 	 	 	 	 	 	 	 	 	 	 	 	 	1581494218	4.97	9.20
12/02/2020 07:56:59	120220	12022020	075659	178.78	12.880087	-57.117903	178.74	-0.350	-0.560	2.170	178.67	-1.90	2.60	 	 	 	 	 	 	 	 	 	 	 	 	 	 	 	 	 	 	1581494219	4.53	8.39
12/02/2020 07:57:00	120220	12022020	075700	178.19	12.880063	-57.117908	178.21	-0.580	-0.680	2.640	178.10	-2.00	3.10	 	 	 	 	 	 	 	 	 	 	 	 	 	 	 	 	 	 	1581494220	5.02	9.30
12/02/2020 07:57:01	120220	12022020	075701	177.88	12.880040	-57.117918	177.98	-0.390	-0.430	2.790	177.88	-1.80	3.30	1014.80	26.10	26.20	20.50	20.60	-1.0	71.0	71.0	398.0	25.8	267.00	11.20	73.00	11.70	16	10056.0	27.4	27.3	1581494221	5.46	10.11
12/02/2020 07:57:02	120220	12022020	075702	178.00	12.880018	-57.117925	178.15	0.070	0.150	2.280	178.06	-1.20	2.80	 	 	 	 	 	 	 	 	 	 	 	 	 	 	 	 	 	 	1581494222	5.05	9.35
12/02/2020 07:57:03	120220	12022020	075703	178.30	12.879997	-57.117927	178.43	0.450	0.390	1.310	178.35	-1.00	1.80	 	 	 	 	 	 	 	 	 	 	 	 	 	 	 	 	 	 	1581494223	4.36	8.07
12/02/2020 07:57:04	120220	12022020	075704	178.40	12.879977	-57.117922	178.45	0.550	-0.050	0.700	178.39	-1.40	1.20	 	 	 	 	 	 	 	 	 	 	 	 	 	 	 	 	 	 	1581494224	4.64	8.59
12/02/2020 07:57:05	120220	12022020	075705	178.17	12.879952	-57.117918	178.19	0.330	-0.650	0.880	178.10	-2.00	1.40	 	 	 	 	 	 	 	 	 	 	 	 	 	 	 	 	 	 	1581494225	5.28	9.78
12/02/2020 07:57:06	120220	12022020	075706	177.85	12.879927	-57.117920	177.81	-0.050	-0.740	1.560	177.77	-2.10	2.00	 	 	 	 	 	 	 	 	 	 	 	 	 	 	 	 	 	 	1581494226	5.45	10.09
12/02/2020 07:57:07	120220	12022020	075707	177.34	12.879903	-57.117927	177.40	-0.320	-0.130	2.310	177.27	-1.50	2.80	 	 	 	 	 	 	 	 	 	 	 	 	 	 	 	 	 	 	1581494227	5.18	9.59
12/02/2020 07:57:08	120220	12022020	075708	177.03	12.879883	-57.117937	177.15	-0.300	0.560	2.740	177.00	-0.80	3.20	 	 	 	 	 	 	 	 	 	 	 	 	 	 	 	 	 	 	1581494228	4.68	8.67
12/02/2020 07:57:09	120220	12022020	075709	177.00	12.879865	-57.117943	177.15	-0.040	0.540	2.620	177.02	-0.80	3.10	 	 	 	 	 	 	 	 	 	 	 	 	 	 	 	 	 	 	1581494229	4.33	8.02
12/02/2020 07:57:10	120220	12022020	075710	177.16	12.879843	-57.117945	177.31	0.140	-0.240	2.240	177.19	-1.60	2.80	 	 	 	 	 	 	 	 	 	 	 	 	 	 	 	 	 	 	1581494230	4.69	8.69
12/02/2020 07:57:11	120220	12022020	075711	177.24	12.879818	-57.117947	177.33	0.080	-1.030	2.090	177.22	-2.40	2.60	 	 	 	 	 	 	 	 	 	 	 	 	 	 	 	 	 	 	1581494231	5.32	9.85
12/02/2020 07:57:12	120220	12022020	075712	176.99	12.879793	-57.117948	177.02	-0.130	-1.230	2.270	176.90	-2.60	2.80	 	 	 	 	 	 	 	 	 	 	 	 	 	 	 	 	 	 	1581494232	5.34	9.89
12/02/2020 07:57:13	120220	12022020	075713	176.53	12.879772	-57.117953	176.58	-0.300	-0.740	2.460	176.44	-2.10	2.90	 	 	 	 	 	 	 	 	 	 	 	 	 	 	 	 	 	 	1581494233	4.92	9.11
12/02/2020 07:57:14	120220	12022020	075714	176.17	12.879752	-57.117958	176.26	-0.330	0.030	2.440	176.12	-1.40	2.90	 	 	 	 	 	 	 	 	 	 	 	 	 	 	 	 	 	 	1581494234	4.40	8.15
12/02/2020 07:57:15	120220	12022020	075715	175.99	12.879733	-57.117963	176.10	-0.110	0.480	2.130	175.98	-0.90	2.60	 	 	 	 	 	 	 	 	 	 	 	 	 	 	 	 	 	 	1581494235	4.11	7.61
12/02/2020 07:57:16	120220	12022020	075716	175.98	12.879712	-57.117965	176.12	0.340	0.410	1.600	175.99	-0.90	2.10	 	 	 	 	 	 	 	 	 	 	 	 	 	 	 	 	 	 	1581494236	4.40	8.15
12/02/2020 07:57:17	120220	12022020	075717	176.12	12.879690	-57.117965	176.24	0.760	0.060	0.990	176.15	-1.30	1.50	 	 	 	 	 	 	 	 	 	 	 	 	 	 	 	 	 	 	1581494237	4.80	8.89
12/02/2020 07:57:18	120220	12022020	075718	176.21	12.879667	-57.117962	176.31	0.780	-0.310	0.720	176.21	-1.70	1.20	 	 	 	 	 	 	 	 	 	 	 	 	 	 	 	 	 	 	1581494238	4.96	9.19
12/02/2020 07:57:19	120220	12022020	075719	176.15	12.879645	-57.117960	176.24	0.320	-0.550	1.060	176.12	-1.90	1.50	 	 	 	 	 	 	 	 	 	 	 	 	 	 	 	 	 	 	1581494239	4.80	8.89
12/02/2020 07:57:20	120220	12022020	075720	175.94	12.879623	-57.117963	176.04	-0.330	-0.570	1.820	175.89	-1.90	2.30	 	 	 	 	 	 	 	 	 	 	 	 	 	 	 	 	 	 	1581494240	4.62	8.56
12/02/2020 07:57:21	120220	12022020	075721	175.59	12.879603	-57.117970	175.69	-0.740	-0.440	2.720	175.51	-1.80	3.20	 	 	 	 	 	 	 	 	 	 	 	 	 	 	 	 	 	 	1581494241	4.67	8.65
12/02/2020 07:57:22	120220	12022020	075722	175.16	12.879583	-57.117980	175.26	-0.720	-0.280	3.470	175.08	-1.60	3.90	 	 	 	 	 	 	 	 	 	 	 	 	 	 	 	 	 	 	1581494242	4.81	8.91
12/02/2020 07:57:23	120220	12022020	075723	174.85	12.879562	-57.117988	175.01	-0.440	-0.150	3.900	174.82	-1.50	4.40	 	 	 	 	 	 	 	 	 	 	 	 	 	 	 	 	 	 	1581494243	4.85	8.98
12/02/2020 07:57:24	120220	12022020	075724	174.82	12.879542	-57.117995	175.02	-0.130	-0.110	3.770	174.83	-1.50	4.30	 	 	 	 	 	 	 	 	 	 	 	 	 	 	 	 	 	 	1581494244	4.79	8.87
12/02/2020 07:57:25	120220	12022020	075725	174.85	12.879520	-57.118000	175.01	0.200	-0.180	3.190	174.84	-1.50	3.70	 	 	 	 	 	 	 	 	 	 	 	 	 	 	 	 	 	 	1581494245	4.65	8.61
12/02/2020 07:57:26	120220	12022020	075726	174.73	12.879498	-57.118000	174.85	0.570	-0.270	2.310	174.70	-1.60	2.90	 	 	 	 	 	 	 	 	 	 	 	 	 	 	 	 	 	 	1581494246	4.59	8.50
12/02/2020 07:57:27	120220	12022020	075727	174.60	12.879477	-57.117997	174.71	0.800	-0.170	1.260	174.58	-1.50	1.80	 	 	 	 	 	 	 	 	 	 	 	 	 	 	 	 	 	 	1581494247	4.58	8.48
12/02/2020 07:57:28	120220	12022020	075728	174.57	12.879458	-57.117990	174.69	0.600	-0.010	0.430	174.58	-1.40	1.00	 	 	 	 	 	 	 	 	 	 	 	 	 	 	 	 	 	 	1581494248	4.44	8.22
12/02/2020 07:57:29	120220	12022020	075729	174.53	12.879438	-57.117985	174.62	0.040	-0.100	0.210	174.49	-1.50	0.70	 	 	 	 	 	 	 	 	 	 	 	 	 	 	 	 	 	 	1581494249	4.20	7.78
12/02/2020 07:57:30	120220	12022020	075730	174.33	12.879418	-57.117985	174.33	-0.530	-0.330	0.720	174.26	-1.70	1.20	 	 	 	 	 	 	 	 	 	 	 	 	 	 	 	 	 	 	1581494250	4.32	8.00
12/02/2020 07:57:31	120220	12022020	075731	173.94	12.879397	-57.117990	174.07	-0.750	-0.300	1.660	173.90	-1.70	2.10	 	 	 	 	 	 	 	 	 	 	 	 	 	 	 	 	 	 	1581494251	4.83	8.95
12/02/2020 07:57:32	120220	12022020	075732	173.87	12.879377	-57.118000	174.09	-0.570	0.100	2.340	173.89	-1.30	2.80	 	 	 	 	 	 	 	 	 	 	 	 	 	 	 	 	 	 	1581494252	4.96	9.19
12/02/2020 07:57:33	120220	12022020	075733	174.09	12.879358	-57.118010	174.31	-0.160	0.390	2.510	174.13	-1.00	3.00	 	 	 	 	 	 	 	 	 	 	 	 	 	 	 	 	 	 	1581494253	4.43	8.20
12/02/2020 07:57:34	120220	12022020	075734	174.25	12.879340	-57.118015	174.45	0.280	0.060	2.380	174.26	-1.30	2.90	 	 	 	 	 	 	 	 	 	 	 	 	 	 	 	 	 	 	1581494254	4.07	7.54
12/02/2020 07:57:35	120220	12022020	075735	174.18	12.879320	-57.118017	174.34	0.660	-0.840	2.200	174.15	-2.10	2.70	 	 	 	 	 	 	 	 	 	 	 	 	 	 	 	 	 	 	1581494255	4.45	8.24
12/02/2020 07:57:36	120220	12022020	075736	173.93	12.879295	-57.118017	174.06	0.790	-1.580	2.080	173.86	-2.90	2.60	 	 	 	 	 	 	 	 	 	 	 	 	 	 	 	 	 	 	1581494256	5.06	9.37
12/02/2020 07:57:37	120220	12022020	075737	173.56	12.879272	-57.118013	173.67	0.500	-1.440	2.300	173.48	-2.80	2.80	 	 	 	 	 	 	 	 	 	 	 	 	 	 	 	 	 	 	1581494257	5.08	9.41
12/02/2020 07:57:38	120220	12022020	075738	173.18	12.879252	-57.118015	173.33	-0.160	-0.390	2.710	173.12	-1.80	3.20	 	 	 	 	 	 	 	 	 	 	 	 	 	 	 	 	 	 	1581494258	4.33	8.02
12/02/2020 07:57:39	120220	12022020	075739	173.05	12.879235	-57.118018	173.29	-0.810	0.880	2.830	173.07	-0.50	3.30	 	 	 	 	 	 	 	 	 	 	 	 	 	 	 	 	 	 	1581494259	3.66	6.78
12/02/2020 07:57:40	120220	12022020	075740	173.39	12.879220	-57.118022	173.72	-1.060	1.540	2.400	173.51	0.20	2.90	 	 	 	 	 	 	 	 	 	 	 	 	 	 	 	 	 	 	1581494260	3.52	6.52
12/02/2020 07:57:41	120220	12022020	075741	173.96	12.879202	-57.118027	174.25	-0.760	1.070	1.870	174.05	-0.20	2.40	 	 	 	 	 	 	 	 	 	 	 	 	 	 	 	 	 	 	1581494261	3.89	7.20
12/02/2020 07:57:42	120220	12022020	075742	174.27	12.879180	-57.118030	174.46	0.010	-0.150	1.520	174.29	-1.40	2.00	 	 	 	 	 	 	 	 	 	 	 	 	 	 	 	 	 	 	1581494262	4.77	8.83
12/02/2020 07:57:43	120220	12022020	075743	174.28	12.879155	-57.118032	174.41	0.770	-1.040	1.250	174.26	-2.40	1.80	 	 	 	 	 	 	 	 	 	 	 	 	 	 	 	 	 	 	1581494263	5.33	9.87
12/02/2020 07:57:44	120220	12022020	075744	174.16	12.879133	-57.118030	174.29	0.990	-0.990	1.030	174.13	-2.40	1.60	 	 	 	 	 	 	 	 	 	 	 	 	 	 	 	 	 	 	1581494264	4.81	8.91
12/02/2020 07:57:45	120220	12022020	075745	174.02	12.879115	-57.118028	174.14	0.550	-0.550	0.840	173.99	-1.90	1.40	 	 	 	 	 	 	 	 	 	 	 	 	 	 	 	 	 	 	1581494265	3.82	7.07
12/02/2020 07:57:46	120220	12022020	075746	173.85	12.879100	-57.118027	173.97	-0.200	-0.330	1.020	173.82	-1.70	1.50	 	 	 	 	 	 	 	 	 	 	 	 	 	 	 	 	 	 	1581494266	3.48	6.44
12/02/2020 07:57:47	120220	12022020	075747	173.72	12.879082	-57.118030	173.88	-0.690	-0.300	1.630	173.71	-1.70	2.10	 	 	 	 	 	 	 	 	 	 	 	 	 	 	 	 	 	 	1581494267	4.04	7.48
12/02/2020 07:57:48	120220	12022020	075748	173.70	12.879062	-57.118038	173.87	-0.510	-0.200	2.090	173.70	-1.60	2.60	 	 	 	 	 	 	 	 	 	 	 	 	 	 	 	 	 	 	1581494268	4.68	8.67
12/02/2020 07:57:49	120220	12022020	075749	173.67	12.879042	-57.118045	173.83	0.120	-0.230	2.340	173.65	-1.60	2.80	 	 	 	 	 	 	 	 	 	 	 	 	 	 	 	 	 	 	1581494269	4.52	8.37
12/02/2020 07:57:50	120220	12022020	075750	173.44	12.879020	-57.118048	173.55	0.640	-0.460	2.630	173.35	-1.80	3.10	 	 	 	 	 	 	 	 	 	 	 	 	 	 	 	 	 	 	1581494270	4.46	8.26
12/02/2020 07:57:51	120220	12022020	075751	173.04	12.878998	-57.118048	173.16	0.540	-0.550	2.990	172.97	-1.90	3.50	 	 	 	 	 	 	 	 	 	 	 	 	 	 	 	 	 	 	1581494271	4.73	8.76
12/02/2020 07:57:52	120220	12022020	075752	172.84	12.878977	-57.118050	173.05	-0.150	-0.130	3.320	172.85	-1.50	3.80	 	 	 	 	 	 	 	 	 	 	 	 	 	 	 	 	 	 	1581494272	4.72	8.74
12/02/2020 07:57:53	120220	12022020	075753	173.11	12.878957	-57.118055	173.43	-0.840	0.780	3.290	173.22	-0.60	3.80	 	 	 	 	 	 	 	 	 	 	 	 	 	 	 	 	 	 	1581494273	4.31	7.98
12/02/2020 07:57:54	120220	12022020	075754	173.63	12.878942	-57.118062	174.14	-0.940	1.530	2.670	173.79	0.20	3.20	 	 	 	 	 	 	 	 	 	 	 	 	 	 	 	 	 	 	1581494274	3.70	6.85
12/02/2020 07:57:55	120220	12022020	075755	174.56	12.878927	-57.118065	174.85	-0.400	1.250	1.620	174.68	-0.10	2.20	 	 	 	 	 	 	 	 	 	 	 	 	 	 	 	 	 	 	1581494275	3.25	6.02
12/02/2020 07:57:56	120220	12022020	075756	174.90	12.878908	-57.118065	175.06	0.440	-0.260	0.810	174.92	-1.50	1.40	 	 	 	 	 	 	 	 	 	 	 	 	 	 	 	 	 	 	1581494276	3.81	7.06
12/02/2020 07:57:57	120220	12022020	075757	174.69	12.878885	-57.118062	174.77	1.110	-2.080	0.680	174.61	-3.40	1.20	 	 	 	 	 	 	 	 	 	 	 	 	 	 	 	 	 	 	1581494277	5.07	9.39
12/02/2020 07:57:58	120220	12022020	075758	174.21	12.878860	-57.118058	174.28	1.250	-2.740	1.090	174.11	-4.10	1.60	 	 	 	 	 	 	 	 	 	 	 	 	 	 	 	 	 	 	1581494278	5.57	10.32
12/02/2020 07:57:59	120220	12022020	075759	173.68	12.878838	-57.118058	173.76	0.750	-1.820	1.800	173.59	-3.20	2.30	 	 	 	 	 	 	 	 	 	 	 	 	 	 	 	 	 	 	1581494279	4.74	8.78
12/02/2020 07:58:00	120220	12022020	075800	173.26	12.878822	-57.118062	173.41	-0.110	-0.120	2.520	173.22	-1.60	3.00	 	 	 	 	 	 	 	 	 	 	 	 	 	 	 	 	 	 	1581494280	3.61	6.69
12/02/2020 07:58:01	120220	12022020	075801	173.29	12.878807	-57.118068	173.56	-0.870	1.300	2.840	173.38	-0.10	3.30	1014.70	26.20	26.20	20.60	20.60	-1.0	71.0	71.0	396.0	25.8	270.00	10.70	73.00	11.00	16	10505.0	27.3	27.3	1581494281	3.42	6.33
12/02/2020 07:58:02	120220	12022020	075802	173.95	12.878790	-57.118075	174.28	-1.120	1.900	2.530	174.12	0.50	3.00	 	 	 	 	 	 	 	 	 	 	 	 	 	 	 	 	 	 	1581494282	3.83	7.09
12/02/2020 07:58:03	120220	12022020	075803	174.78	12.878772	-57.118080	175.07	-0.800	1.440	1.880	174.93	0.10	2.40	 	 	 	 	 	 	 	 	 	 	 	 	 	 	 	 	 	 	1581494283	4.13	7.65
12/02/2020 07:58:04	120220	12022020	075804	175.38	12.878750	-57.118080	175.59	-0.210	0.120	1.330	175.45	-1.20	1.90	 	 	 	 	 	 	 	 	 	 	 	 	 	 	 	 	 	 	1581494284	4.68	8.67
12/02/2020 07:58:05	120220	12022020	075805	175.54	12.878725	-57.118080	175.65	0.210	-1.290	1.340	175.50	-2.60	1.80	 	 	 	 	 	 	 	 	 	 	 	 	 	 	 	 	 	 	1581494285	5.27	9.76
12/02/2020 07:58:06	120220	12022020	075806	175.13	12.878700	-57.118082	175.15	0.260	-1.910	1.890	174.99	-3.20	2.40	 	 	 	 	 	 	 	 	 	 	 	 	 	 	 	 	 	 	1581494286	5.31	9.83
12/02/2020 07:58:07	120220	12022020	075807	174.45	12.878678	-57.118087	174.50	0.110	-1.330	2.530	174.34	-2.70	3.00	 	 	 	 	 	 	 	 	 	 	 	 	 	 	 	 	 	 	1581494287	4.79	8.87
12/02/2020 07:58:08	120220	12022020	075808	174.07	12.878662	-57.118093	174.15	0.030	-0.130	2.870	174.02	-1.50	3.40	 	 	 	 	 	 	 	 	 	 	 	 	 	 	 	 	 	 	1581494288	3.98	7.37
12/02/2020 07:58:09	120220	12022020	075809	173.89	12.878647	-57.118098	174.07	0.250	0.630	2.780	173.89	-0.70	3.30	 	 	 	 	 	 	 	 	 	 	 	 	 	 	 	 	 	 	1581494289	3.48	6.44
12/02/2020 07:58:10	120220	12022020	075810	174.04	12.878628	-57.118100	174.27	0.590	0.660	2.140	174.11	-0.70	2.70	 	 	 	 	 	 	 	 	 	 	 	 	 	 	 	 	 	 	1581494290	3.82	7.07
12/02/2020 07:58:11	120220	12022020	075811	174.62	12.878608	-57.118097	174.92	0.690	0.420	1.130	174.77	-0.90	1.70	 	 	 	 	 	 	 	 	 	 	 	 	 	 	 	 	 	 	1581494291	4.48	8.30
12/02/2020 07:58:12	120220	12022020	075812	175.34	12.878588	-57.118092	175.58	0.390	0.120	0.480	175.45	-1.20	1.00	 	 	 	 	 	 	 	 	 	 	 	 	 	 	 	 	 	 	1581494292	4.52	8.37
12/02/2020 07:58:13	120220	12022020	075813	175.63	12.878568	-57.118088	175.77	-0.030	-0.350	0.710	175.62	-1.70	1.20	 	 	 	 	 	 	 	 	 	 	 	 	 	 	 	 	 	 	1581494293	4.23	7.83
12/02/2020 07:58:14	120220	12022020	075814	175.37	12.878548	-57.118092	175.42	-0.270	-0.980	1.660	175.27	-2.30	2.10	 	 	 	 	 	 	 	 	 	 	 	 	 	 	 	 	 	 	1581494294	4.36	8.07
12/02/2020 07:58:15	120220	12022020	075815	174.76	12.878527	-57.118097	174.80	-0.250	-1.430	2.780	174.63	-2.80	3.20	 	 	 	 	 	 	 	 	 	 	 	 	 	 	 	 	 	 	1581494295	4.90	9.07
12/02/2020 07:58:16	120220	12022020	075816	174.22	12.878503	-57.118105	174.35	-0.260	-1.200	3.620	174.16	-2.60	4.10	 	 	 	 	 	 	 	 	 	 	 	 	 	 	 	 	 	 	1581494296	5.25	9.72
12/02/2020 07:58:17	120220	12022020	075817	174.07	12.878482	-57.118115	174.29	-0.420	-0.250	3.910	174.09	-1.60	4.40	 	 	 	 	 	 	 	 	 	 	 	 	 	 	 	 	 	 	1581494297	4.88	9.04
12/02/2020 07:58:18	120220	12022020	075818	174.28	12.878465	-57.118122	174.54	-0.550	0.710	3.530	174.35	-0.70	4.10	 	 	 	 	 	 	 	 	 	 	 	 	 	 	 	 	 	 	1581494298	4.06	7.52
12/02/2020 07:58:19	120220	12022020	075819	174.67	12.878447	-57.118123	174.93	-0.390	0.940	2.500	174.77	-0.40	3.10	 	 	 	 	 	 	 	 	 	 	 	 	 	 	 	 	 	 	1581494299	3.67	6.80
12/02/2020 07:58:20	120220	12022020	075820	175.06	12.878428	-57.118122	175.39	0.010	0.490	1.200	175.15	-0.80	1.80	 	 	 	 	 	 	 	 	 	 	 	 	 	 	 	 	 	 	1581494300	4.22	7.82
12/02/2020 07:58:21	120220	12022020	075821	175.57	12.878407	-57.118117	175.78	0.370	-0.120	0.280	175.65	-1.40	0.80	 	 	 	 	 	 	 	 	 	 	 	 	 	 	 	 	 	 	1581494301	4.84	8.96
12/02/2020 07:58:22	120220	12022020	075822	175.83	12.878383	-57.118113	176.00	0.540	-0.530	-0.140	175.86	-1.90	0.40	 	 	 	 	 	 	 	 	 	 	 	 	 	 	 	 	 	 	1581494302	4.82	8.93
12/02/2020 07:58:23	120220	12022020	075823	175.78	12.878363	-57.118112	175.82	0.660	-0.820	-0.110	175.71	-2.20	0.40	 	 	 	 	 	 	 	 	 	 	 	 	 	 	 	 	 	 	1581494303	4.49	8.32
12/02/2020 07:58:24	120220	12022020	075824	175.28	12.878342	-57.118112	175.30	0.770	-1.020	0.460	175.17	-2.40	0.90	 	 	 	 	 	 	 	 	 	 	 	 	 	 	 	 	 	 	1581494304	4.48	8.30
12/02/2020 07:58:25	120220	12022020	075825	174.88	12.878320	-57.118112	175.01	0.560	-0.620	1.290	174.87	-2.00	1.80	 	 	 	 	 	 	 	 	 	 	 	 	 	 	 	 	 	 	1581494305	4.70	8.70
12/02/2020 07:58:26	120220	12022020	075826	175.07	12.878300	-57.118115	175.34	-0.180	0.390	2.080	175.18	-1.00	2.50	 	 	 	 	 	 	 	 	 	 	 	 	 	 	 	 	 	 	1581494306	4.35	8.06
12/02/2020 07:58:27	120220	12022020	075827	175.73	12.878283	-57.118122	176.06	-1.120	1.200	2.730	175.89	-0.20	3.20	 	 	 	 	 	 	 	 	 	 	 	 	 	 	 	 	 	 	1581494307	3.87	7.17
12/02/2020 07:58:28	120220	12022020	075828	176.48	12.878267	-57.118133	176.77	-1.540	1.080	3.090	176.62	-0.30	3.60	 	 	 	 	 	 	 	 	 	 	 	 	 	 	 	 	 	 	1581494308	4.23	7.83
12/02/2020 07:58:29	120220	12022020	075829	177.00	12.878247	-57.118145	177.20	-0.950	-0.080	3.060	177.05	-1.40	3.60	 	 	 	 	 	 	 	 	 	 	 	 	 	 	 	 	 	 	1581494309	4.90	9.07
12/02/2020 07:58:30	120220	12022020	075830	176.94	12.878223	-57.118152	177.00	0.330	-1.790	2.880	176.85	-3.10	3.40	 	 	 	 	 	 	 	 	 	 	 	 	 	 	 	 	 	 	1581494310	5.51	10.20
12/02/2020 07:58:31	120220	12022020	075831	176.34	12.878193	-57.118153	176.38	1.260	-2.550	2.720	176.21	-3.90	3.20	 	 	 	 	 	 	 	 	 	 	 	 	 	 	 	 	 	 	1581494311	6.15	11.39
12/02/2020 07:58:32	120220	12022020	075832	175.89	12.878168	-57.118153	176.03	1.180	-1.440	2.360	175.88	-2.90	2.90	 	 	 	 	 	 	 	 	 	 	 	 	 	 	 	 	 	 	1581494312	5.55	10.28
12/02/2020 07:58:33	120220	12022020	075833	176.10	12.878152	-57.118152	176.34	0.330	0.790	1.630	176.22	-0.70	2.20	 	 	 	 	 	 	 	 	 	 	 	 	 	 	 	 	 	 	1581494313	3.77	6.98
12/02/2020 07:58:34	120220	12022020	075834	176.75	12.878140	-57.118150	176.98	-0.420	2.350	0.680	176.89	1.00	1.20	 	 	 	 	 	 	 	 	 	 	 	 	 	 	 	 	 	 	1581494314	2.52	4.67
12/02/2020 07:58:35	120220	12022020	075835	177.25	12.878125	-57.118147	177.37	-0.360	1.850	-0.040	177.28	0.60	0.50	 	 	 	 	 	 	 	 	 	 	 	 	 	 	 	 	 	 	1581494315	2.95	5.46
12/02/2020 07:58:36	120220	12022020	075836	177.18	12.878103	-57.118143	177.23	0.220	-0.210	0.130	177.11	-1.50	0.60	 	 	 	 	 	 	 	 	 	 	 	 	 	 	 	 	 	 	1581494316	4.95	9.17
12/02/2020 07:58:37	120220	12022020	075837	176.84	12.878072	-57.118143	176.95	0.370	-1.900	1.390	176.78	-3.20	1.80	 	 	 	 	 	 	 	 	 	 	 	 	 	 	 	 	 	 	1581494317	6.54	12.11
12/02/2020 07:58:38	120220	12022020	075838	176.69	12.878043	-57.118152	176.91	-0.320	-2.000	3.290	176.71	-3.40	3.70	 	 	 	 	 	 	 	 	 	 	 	 	 	 	 	 	 	 	1581494318	6.42	11.89
12/02/2020 07:58:39	120220	12022020	075839	176.86	12.878022	-57.118168	177.13	-1.280	-0.750	5.020	176.91	-2.20	5.40	 	 	 	 	 	 	 	 	 	 	 	 	 	 	 	 	 	 	1581494319	5.93	10.98
12/02/2020 07:58:40	120220	12022020	075840	177.07	12.878007	-57.118192	177.31	-1.440	0.460	5.810	177.10	-0.90	6.30	 	 	 	 	 	 	 	 	 	 	 	 	 	 	 	 	 	 	1581494320	5.78	10.70
12/02/2020 07:58:41	120220	12022020	075841	177.11	12.877992	-57.118210	177.26	-0.330	0.530	5.370	177.08	-0.80	5.90	 	 	 	 	 	 	 	 	 	 	 	 	 	 	 	 	 	 	1581494321	5.06	9.37
12/02/2020 07:58:42	120220	12022020	075842	176.97	12.877970	-57.118215	177.08	1.220	-0.110	4.130	176.95	-1.40	4.70	 	 	 	 	 	 	 	 	 	 	 	 	 	 	 	 	 	 	1581494322	4.83	8.95
12/02/2020 07:58:43	120220	12022020	075843	177.02	12.877943	-57.118210	177.19	1.930	-0.370	2.480	177.10	-1.70	3.10	 	 	 	 	 	 	 	 	 	 	 	 	 	 	 	 	 	 	1581494323	5.55	10.28
12/02/2020 07:58:44	120220	12022020	075844	177.42	12.877922	-57.118198	177.77	1.300	0.020	0.960	177.56	-1.40	1.50	 	 	 	 	 	 	 	 	 	 	 	 	 	 	 	 	 	 	1581494324	5.43	10.06
12/02/2020 07:58:45	120220	12022020	075845	178.24	12.877903	-57.118188	178.41	0.020	0.370	0.250	178.34	-1.00	0.80	 	 	 	 	 	 	 	 	 	 	 	 	 	 	 	 	 	 	1581494325	4.38	8.11
12/02/2020 07:58:46	120220	12022020	075846	178.55	12.877887	-57.118187	178.67	-0.870	0.110	0.540	178.58	-1.20	1.00	 	 	 	 	 	 	 	 	 	 	 	 	 	 	 	 	 	 	1581494326	3.79	7.02
12/02/2020 07:58:47	120220	12022020	075847	178.45	12.877865	-57.118193	178.49	-0.910	-0.590	1.500	178.39	-1.90	2.00	 	 	 	 	 	 	 	 	 	 	 	 	 	 	 	 	 	 	1581494327	4.68	8.67
12/02/2020 07:58:48	120220	12022020	075848	177.96	12.877842	-57.118205	177.97	-0.320	-1.160	2.600	177.84	-2.50	3.10	 	 	 	 	 	 	 	 	 	 	 	 	 	 	 	 	 	 	1581494328	5.70	10.56
12/02/2020 07:58:49	120220	12022020	075849	177.37	12.877817	-57.118218	177.41	0.320	-1.220	3.240	177.28	-2.60	3.70	 	 	 	 	 	 	 	 	 	 	 	 	 	 	 	 	 	 	1581494329	5.83	10.80
12/02/2020 07:58:50	120220	12022020	075850	177.03	12.877795	-57.118227	177.14	0.520	-0.780	3.200	177.01	-2.20	3.70	 	 	 	 	 	 	 	 	 	 	 	 	 	 	 	 	 	 	1581494330	5.23	9.69
12/02/2020 07:58:51	120220	12022020	075851	177.05	12.877773	-57.118230	177.20	0.180	-0.060	2.700	177.08	-1.40	3.30	 	 	 	 	 	 	 	 	 	 	 	 	 	 	 	 	 	 	1581494331	4.57	8.46
12/02/2020 07:58:52	120220	12022020	075852	177.31	12.877753	-57.118230	177.48	-0.410	0.660	2.110	177.38	-0.70	2.60	 	 	 	 	 	 	 	 	 	 	 	 	 	 	 	 	 	 	1581494332	4.21	7.80
12/02/2020 07:58:53	120220	12022020	075853	177.64	12.877735	-57.118232	177.80	-0.810	1.020	1.500	177.72	-0.30	2.00	 	 	 	 	 	 	 	 	 	 	 	 	 	 	 	 	 	 	1581494333	4.11	7.61
12/02/2020 07:58:54	120220	12022020	075854	177.98	12.877715	-57.118233	178.12	-0.710	0.710	0.940	178.03	-0.60	1.50	 	 	 	 	 	 	 	 	 	 	 	 	 	 	 	 	 	 	1581494334	4.35	8.06
12/02/2020 07:58:55	120220	12022020	075855	178.18	12.877692	-57.118237	178.28	-0.140	-0.180	0.720	178.19	-1.50	1.20	 	 	 	 	 	 	 	 	 	 	 	 	 	 	 	 	 	 	1581494335	4.91	9.09
12/02/2020 07:58:56	120220	12022020	075856	178.12	12.877667	-57.118240	178.19	0.550	-1.060	0.880	178.08	-2.40	1.40	 	 	 	 	 	 	 	 	 	 	 	 	 	 	 	 	 	 	1581494336	5.49	10.17
12/02/2020 07:58:57	120220	12022020	075857	177.90	12.877642	-57.118243	177.99	0.870	-1.170	1.200	177.87	-2.50	1.70	 	 	 	 	 	 	 	 	 	 	 	 	 	 	 	 	 	 	1581494337	5.57	10.32
12/02/2020 07:58:58	120220	12022020	075858	177.82	12.877618	-57.118247	177.95	0.590	-0.460	1.360	177.82	-1.90	1.90	 	 	 	 	 	 	 	 	 	 	 	 	 	 	 	 	 	 	1581494338	4.83	8.95
12/02/2020 07:58:59	120220	12022020	075859	177.89	12.877600	-57.118248	178.04	-0.020	0.250	1.430	177.90	-1.10	1.90	 	 	 	 	 	 	 	 	 	 	 	 	 	 	 	 	 	 	1581494339	3.96	7.33
12/02/2020 07:59:00	120220	12022020	075900	177.94	12.877582	-57.118252	178.07	-0.420	0.310	1.700	177.92	-1.00	2.20	 	 	 	 	 	 	 	 	 	 	 	 	 	 	 	 	 	 	1581494340	3.96	7.33
12/02/2020 07:59:01	120220	12022020	075901	177.74	12.877560	-57.118255	177.80	-0.340	-0.290	2.320	177.66	-1.60	2.80	1014.80	26.20	26.20	20.90	20.80	-1.0	72.0	72.0	397.0	25.8	268.00	10.40	71.00	10.80	16	9797.0	27.3	27.3	1581494341	4.75	8.80
12/02/2020 07:59:02	120220	12022020	075902	177.20	12.877535	-57.118262	177.25	-0.050	-0.890	3.220	177.08	-2.20	3.70	 	 	 	 	 	 	 	 	 	 	 	 	 	 	 	 	 	 	1581494342	5.68	10.52
12/02/2020 07:59:03	120220	12022020	075903	176.71	12.877508	-57.118268	176.82	0.080	-0.690	4.050	176.65	-2.10	4.50	 	 	 	 	 	 	 	 	 	 	 	 	 	 	 	 	 	 	1581494343	6.02	11.15
12/02/2020 07:59:04	120220	12022020	075904	176.64	12.877485	-57.118278	176.84	-0.000	0.310	4.090	176.69	-1.10	4.60	 	 	 	 	 	 	 	 	 	 	 	 	 	 	 	 	 	 	1581494344	5.43	10.06
12/02/2020 07:59:05	120220	12022020	075905	176.99	12.877467	-57.118285	177.19	0.040	1.100	3.000	177.07	-0.30	3.60	 	 	 	 	 	 	 	 	 	 	 	 	 	 	 	 	 	 	1581494345	4.22	7.82
12/02/2020 07:59:06	120220	12022020	075906	177.42	12.877448	-57.118285	177.59	0.190	0.740	1.530	177.50	-0.60	2.10	 	 	 	 	 	 	 	 	 	 	 	 	 	 	 	 	 	 	1581494346	3.84	7.11
12/02/2020 07:59:07	120220	12022020	075907	177.75	12.877425	-57.118280	177.89	0.240	-0.430	0.710	177.79	-1.70	1.20	 	 	 	 	 	 	 	 	 	 	 	 	 	 	 	 	 	 	1581494347	4.92	9.11
12/02/2020 07:59:08	120220	12022020	075908	177.81	12.877400	-57.118277	177.88	0.040	-1.510	0.670	177.78	-2.80	1.20	 	 	 	 	 	 	 	 	 	 	 	 	 	 	 	 	 	 	1581494348	5.59	10.35
12/02/2020 07:59:09	120220	12022020	075909	177.50	12.877373	-57.118280	177.50	-0.210	-1.910	1.120	177.39	-3.30	1.60	 	 	 	 	 	 	 	 	 	 	 	 	 	 	 	 	 	 	1581494349	5.61	10.39
12/02/2020 07:59:10	120220	12022020	075910	177.02	12.877350	-57.118285	176.92	-0.320	-1.570	1.850	176.90	-2.90	2.30	 	 	 	 	 	 	 	 	 	 	 	 	 	 	 	 	 	 	1581494350	5.41	10.02
12/02/2020 07:59:11	120220	12022020	075911	176.32	12.877327	-57.118293	176.38	-0.240	-0.670	2.540	176.23	-2.10	3.00	 	 	 	 	 	 	 	 	 	 	 	 	 	 	 	 	 	 	1581494351	5.26	9.74
12/02/2020 07:59:12	120220	12022020	075912	176.00	12.877303	-57.118302	176.08	0.030	0.420	2.750	175.95	-1.00	3.30	 	 	 	 	 	 	 	 	 	 	 	 	 	 	 	 	 	 	1581494352	5.03	9.32
12/02/2020 07:59:13	120220	12022020	075913	175.99	12.877283	-57.118305	176.20	0.200	1.370	2.270	176.06	-0.00	2.80	 	 	 	 	 	 	 	 	 	 	 	 	 	 	 	 	 	 	1581494353	4.69	8.69
12/02/2020 07:59:14	120220	12022020	075914	176.56	12.877262	-57.118302	176.83	0.010	1.880	1.510	176.71	0.50	2.00	 	 	 	 	 	 	 	 	 	 	 	 	 	 	 	 	 	 	1581494354	4.52	8.37
12/02/2020 07:59:15	120220	12022020	075915	177.28	12.877242	-57.118298	177.51	-0.390	1.420	1.280	177.38	0.10	1.80	 	 	 	 	 	 	 	 	 	 	 	 	 	 	 	 	 	 	1581494355	4.40	8.15
12/02/2020 07:59:16	120220	12022020	075916	177.47	12.877218	-57.118300	177.57	-0.550	-0.160	1.940	177.41	-1.40	2.40	 	 	 	 	 	 	 	 	 	 	 	 	 	 	 	 	 	 	1581494356	4.85	8.98
12/02/2020 07:59:17	120220	12022020	075917	176.88	12.877192	-57.118308	176.87	-0.170	-1.970	3.230	176.68	-3.30	3.70	 	 	 	 	 	 	 	 	 	 	 	 	 	 	 	 	 	 	1581494357	6.19	11.46
12/02/2020 07:59:18	120220	12022020	075918	175.85	12.877162	-57.118323	175.87	0.550	-2.680	4.370	175.65	-4.00	4.80	 	 	 	 	 	 	 	 	 	 	 	 	 	 	 	 	 	 	1581494358	6.99	12.95
12/02/2020 07:59:19	120220	12022020	075919	175.13	12.877135	-57.118333	175.31	1.030	-1.760	4.430	175.08	-3.20	4.90	 	 	 	 	 	 	 	 	 	 	 	 	 	 	 	 	 	 	1581494359	6.18	11.45
12/02/2020 07:59:20	120220	12022020	075920	175.30	12.877115	-57.118337	175.65	0.780	0.060	3.250	175.45	-1.40	3.80	 	 	 	 	 	 	 	 	 	 	 	 	 	 	 	 	 	 	1581494360	4.30	7.96
12/02/2020 07:59:21	120220	12022020	075921	176.28	12.877102	-57.118333	176.65	-0.050	1.340	1.490	176.51	-0.00	2.10	 	 	 	 	 	 	 	 	 	 	 	 	 	 	 	 	 	 	1581494361	3.26	6.04
12/02/2020 07:59:22	120220	12022020	075922	177.29	12.877085	-57.118327	177.55	-0.710	1.180	0.200	177.42	-0.10	0.80	 	 	 	 	 	 	 	 	 	 	 	 	 	 	 	 	 	 	1581494362	3.75	6.95
12/02/2020 07:59:23	120220	12022020	075923	177.67	12.877062	-57.118322	177.77	-0.630	-0.300	-0.140	177.64	-1.60	0.40	 	 	 	 	 	 	 	 	 	 	 	 	 	 	 	 	 	 	1581494363	5.00	9.26
12/02/2020 07:59:24	120220	12022020	075924	177.28	12.877032	-57.118320	177.30	-0.020	-1.740	0.540	177.14	-3.00	1.00	 	 	 	 	 	 	 	 	 	 	 	 	 	 	 	 	 	 	1581494364	6.42	11.89
12/02/2020 07:59:25	120220	12022020	075925	176.58	12.877002	-57.118323	176.67	0.390	-1.800	1.810	176.47	-3.20	2.30	 	 	 	 	 	 	 	 	 	 	 	 	 	 	 	 	 	 	1581494365	6.70	12.41
12/02/2020 07:59:26	120220	12022020	075926	176.21	12.876975	-57.118330	176.41	0.160	-0.480	2.960	176.19	-1.90	3.40	 	 	 	 	 	 	 	 	 	 	 	 	 	 	 	 	 	 	1581494366	5.66	10.48
12/02/2020 07:59:27	120220	12022020	075927	176.28	12.876957	-57.118338	176.53	-0.470	1.060	3.540	176.33	-0.30	4.00	 	 	 	 	 	 	 	 	 	 	 	 	 	 	 	 	 	 	1581494367	4.53	8.39
12/02/2020 07:59:28	120220	12022020	075928	176.57	12.876938	-57.118347	176.84	-0.850	1.660	3.620	176.64	0.30	4.10	 	 	 	 	 	 	 	 	 	 	 	 	 	 	 	 	 	 	1581494368	4.20	7.78
12/02/2020 07:59:29	120220	12022020	075929	176.89	12.876917	-57.118353	177.13	-0.640	1.050	3.310	176.95	-0.20	3.80	 	 	 	 	 	 	 	 	 	 	 	 	 	 	 	 	 	 	1581494369	4.80	8.89
12/02/2020 07:59:30	120220	12022020	075930	177.23	12.876892	-57.118358	177.48	-0.040	-0.040	2.580	177.32	-1.30	3.10	 	 	 	 	 	 	 	 	 	 	 	 	 	 	 	 	 	 	1581494370	5.70	10.56
12/02/2020 07:59:31	120220	12022020	075931	177.77	12.876863	-57.118362	178.04	0.540	-0.660	1.450	177.90	-2.00	2.00	 	 	 	 	 	 	 	 	 	 	 	 	 	 	 	 	 	 	1581494371	5.89	10.91
12/02/2020 07:59:32	120220	12022020	075932	178.43	12.876840	-57.118360	178.66	0.870	-0.680	0.270	178.54	-2.00	0.80	 	 	 	 	 	 	 	 	 	 	 	 	 	 	 	 	 	 	1581494372	5.17	9.57
12/02/2020 07:59:33	120220	12022020	075933	178.78	12.876820	-57.118355	178.89	0.940	-0.840	-0.320	178.79	-2.20	0.20	 	 	 	 	 	 	 	 	 	 	 	 	 	 	 	 	 	 	1581494373	4.55	8.43
12/02/2020 07:59:34	120220	12022020	075934	178.70	12.876797	-57.118350	178.68	0.720	-1.270	-0.090	178.64	-2.60	0.40	 	 	 	 	 	 	 	 	 	 	 	 	 	 	 	 	 	 	1581494374	4.89	9.06
12/02/2020 07:59:35	120220	12022020	075935	178.18	12.876772	-57.118348	178.20	0.120	-1.450	0.950	178.07	-2.80	1.40	 	 	 	 	 	 	 	 	 	 	 	 	 	 	 	 	 	 	1581494375	5.44	10.07
12/02/2020 07:59:36	120220	12022020	075936	177.68	12.876747	-57.118353	177.75	-0.680	-0.910	2.420	177.59	-2.30	2.90	 	 	 	 	 	 	 	 	 	 	 	 	 	 	 	 	 	 	1581494376	5.67	10.50
12/02/2020 07:59:37	120220	12022020	075937	177.32	12.876722	-57.118365	177.46	-1.280	0.110	3.710	177.28	-1.30	4.10	 	 	 	 	 	 	 	 	 	 	 	 	 	 	 	 	 	 	1581494377	5.75	10.65
12/02/2020 07:59:38	120220	12022020	075938	177.14	12.876700	-57.118382	177.30	-1.240	0.870	4.320	177.11	-0.50	4.80	 	 	 	 	 	 	 	 	 	 	 	 	 	 	 	 	 	 	1581494378	5.76	10.67
12/02/2020 07:59:39	120220	12022020	075939	177.07	12.876677	-57.118393	177.24	-0.440	0.890	4.050	177.08	-0.40	4.60	 	 	 	 	 	 	 	 	 	 	 	 	 	 	 	 	 	 	1581494379	5.64	10.45
12/02/2020 07:59:40	120220	12022020	075940	177.20	12.876650	-57.118398	177.39	0.620	0.450	2.930	177.26	-0.90	3.50	 	 	 	 	 	 	 	 	 	 	 	 	 	 	 	 	 	 	1581494380	5.73	10.61
12/02/2020 07:59:41	120220	12022020	075941	177.65	12.876623	-57.118393	177.87	1.130	0.230	1.460	177.78	-1.10	2.00	 	 	 	 	 	 	 	 	 	 	 	 	 	 	 	 	 	 	1581494381	5.88	10.89
12/02/2020 07:59:42	120220	12022020	075942	178.31	12.876600	-57.118385	178.52	0.780	0.230	0.380	178.44	-1.10	0.90	 	 	 	 	 	 	 	 	 	 	 	 	 	 	 	 	 	 	1581494382	5.44	10.07
12/02/2020 07:59:43	120220	12022020	075943	178.75	12.876578	-57.118380	178.87	0.050	-0.190	0.150	178.79	-1.50	0.70	 	 	 	 	 	 	 	 	 	 	 	 	 	 	 	 	 	 	1581494383	4.72	8.74
12/02/2020 07:59:44	120220	12022020	075944	178.67	12.876555	-57.118380	178.67	-0.360	-1.180	0.790	178.58	-2.50	1.30	 	 	 	 	 	 	 	 	 	 	 	 	 	 	 	 	 	 	1581494384	4.94	9.15
12/02/2020 07:59:45	120220	12022020	075945	178.05	12.876528	-57.118388	178.02	-0.320	-1.910	2.140	177.88	-3.20	2.60	 	 	 	 	 	 	 	 	 	 	 	 	 	 	 	 	 	 	1581494385	6.03	11.17
12/02/2020 07:59:46	120220	12022020	075946	177.33	12.876500	-57.118400	177.42	-0.220	-1.550	3.430	177.23	-2.90	3.90	 	 	 	 	 	 	 	 	 	 	 	 	 	 	 	 	 	 	1581494386	6.50	12.04
12/02/2020 07:59:47	120220	12022020	075947	177.08	12.876477	-57.118412	177.28	-0.280	-0.210	3.830	177.10	-1.60	4.30	 	 	 	 	 	 	 	 	 	 	 	 	 	 	 	 	 	 	1581494387	5.83	10.80
12/02/2020 07:59:48	120220	12022020	075948	177.25	12.876457	-57.118420	177.57	-0.300	0.990	3.100	177.33	-0.40	3.60	 	 	 	 	 	 	 	 	 	 	 	 	 	 	 	 	 	 	1581494388	4.61	8.54
12/02/2020 07:59:49	120220	12022020	075949	177.75	12.876437	-57.118422	177.96	0.060	0.960	1.740	177.83	-0.30	2.30	 	 	 	 	 	 	 	 	 	 	 	 	 	 	 	 	 	 	1581494389	4.29	7.95
12/02/2020 07:59:50	120220	12022020	075950	178.11	12.876412	-57.118417	178.28	0.640	-0.040	0.650	178.17	-1.30	1.20	 	 	 	 	 	 	 	 	 	 	 	 	 	 	 	 	 	 	1581494390	5.54	10.26
12/02/2020 07:59:51	120220	12022020	075951	178.41	12.876382	-57.118410	178.59	0.810	-0.750	0.340	178.47	-2.10	0.80	 	 	 	 	 	 	 	 	 	 	 	 	 	 	 	 	 	 	1581494391	6.58	12.19
12/02/2020 07:59:52	120220	12022020	075952	178.66	12.876353	-57.118408	178.82	0.290	-0.470	0.680	178.70	-1.80	1.10	 	 	 	 	 	 	 	 	 	 	 	 	 	 	 	 	 	 	1581494392	6.04	11.19
12/02/2020 07:59:53	120220	12022020	075953	178.79	12.876332	-57.118412	178.93	-0.490	0.230	1.340	178.80	-1.10	1.80	 	 	 	 	 	 	 	 	 	 	 	 	 	 	 	 	 	 	1581494393	4.90	9.07
12/02/2020 07:59:54	120220	12022020	075954	178.89	12.876312	-57.118422	179.04	-0.860	0.510	1.900	178.91	-0.80	2.40	 	 	 	 	 	 	 	 	 	 	 	 	 	 	 	 	 	 	1581494394	4.78	8.85
12/02/2020 07:59:55	120220	12022020	075955	178.96	12.876288	-57.118433	179.07	-0.440	0.050	2.140	178.95	-1.20	2.60	 	 	 	 	 	 	 	 	 	 	 	 	 	 	 	 	 	 	1581494395	5.34	9.89
12/02/2020 07:59:56	120220	12022020	075956	178.79	12.876262	-57.118442	178.86	0.460	-0.790	2.230	178.73	-2.10	2.70	 	 	 	 	 	 	 	 	 	 	 	 	 	 	 	 	 	 	1581494396	5.88	10.89
12/02/2020 07:59:57	120220	12022020	075957	178.50	12.876233	-57.118443	178.59	1.020	-1.220	2.280	178.46	-2.50	2.80	 	 	 	 	 	 	 	 	 	 	 	 	 	 	 	 	 	 	1581494397	6.21	11.50
12/02/2020 07:59:58	120220	12022020	075958	178.43	12.876207	-57.118443	178.57	0.690	-0.810	2.220	178.45	-2.20	2.70	 	 	 	 	 	 	 	 	 	 	 	 	 	 	 	 	 	 	1581494398	5.86	10.85
12/02/2020 07:59:59	120220	12022020	075959	178.51	12.876183	-57.118443	178.65	-0.220	-0.120	2.200	178.51	-1.50	2.70	 	 	 	 	 	 	 	 	 	 	 	 	 	 	 	 	 	 	1581494399	4.99	9.24
12/02/2020 08:00:00	120220	12022020	080000	178.53	12.876162	-57.118447	178.69	-1.000	0.290	2.350	178.55	-1.00	2.80	 	 	 	 	 	 	 	 	 	 	 	 	 	 	 	 	 	 	1581494400	4.75	8.80
12/02/2020 08:00:01	120220	12022020	080001	178.71	12.876138	-57.118455	178.89	-1.110	0.340	2.320	178.77	-1.00	2.80	1014.80	26.10	26.20	20.60	20.70	-1.0	71.0	71.0	396.0	25.8	276.00	11.40	80.00	11.40	16	9586.0	27.3	27.3	1581494401	5.34	9.89
12/02/2020 08:00:02	120220	12022020	080002	178.91	12.876113	-57.118465	179.08	-0.470	0.150	2.000	178.95	-1.10	2.50	 	 	 	 	 	 	 	 	 	 	 	 	 	 	 	 	 	 	1581494402	5.76	10.67
12/02/2020 08:00:03	120220	12022020	080003	178.97	12.876087	-57.118470	179.04	0.520	-0.220	1.680	178.95	-1.50	2.20	 	 	 	 	 	 	 	 	 	 	 	 	 	 	 	 	 	 	1581494403	5.79	10.72
12/02/2020 08:00:04	120220	12022020	080004	178.83	12.876058	-57.118472	178.92	1.180	-0.530	1.450	178.81	-1.80	1.90	 	 	 	 	 	 	 	 	 	 	 	 	 	 	 	 	 	 	1581494404	5.87	10.87
12/02/2020 08:00:05	120220	12022020	080005	178.80	12.876032	-57.118470	178.92	1.000	-0.500	1.440	178.81	-1.80	1.90	 	 	 	 	 	 	 	 	 	 	 	 	 	 	 	 	 	 	1581494405	5.83	10.80
12/02/2020 08:00:06	120220	12022020	080006	178.87	12.876007	-57.118468	179.00	0.120	-0.100	1.730	178.89	-1.40	2.20	 	 	 	 	 	 	 	 	 	 	 	 	 	 	 	 	 	 	1581494406	5.41	10.02
12/02/2020 08:00:07	120220	12022020	080007	178.95	12.875983	-57.118472	179.08	-0.760	0.310	2.160	178.96	-1.00	2.60	 	 	 	 	 	 	 	 	 	 	 	 	 	 	 	 	 	 	1581494407	5.02	9.30
12/02/2020 08:00:08	120220	12022020	080008	178.97	12.875962	-57.118480	179.10	-1.020	0.240	2.600	178.96	-1.10	3.10	 	 	 	 	 	 	 	 	 	 	 	 	 	 	 	 	 	 	1581494408	5.21	9.65
12/02/2020 08:00:09	120220	12022020	080009	178.88	12.875935	-57.118490	178.97	-0.570	-0.320	2.930	178.84	-1.60	3.40	 	 	 	 	 	 	 	 	 	 	 	 	 	 	 	 	 	 	1581494409	5.83	10.80
12/02/2020 08:00:10	120220	12022020	080010	178.60	12.875907	-57.118498	178.68	0.160	-0.920	3.060	178.53	-2.20	3.60	 	 	 	 	 	 	 	 	 	 	 	 	 	 	 	 	 	 	1581494410	6.31	11.69
12/02/2020 08:00:11	120220	12022020	080011	178.34	12.875878	-57.118503	178.47	0.620	-0.890	2.740	178.33	-2.20	3.30	 	 	 	 	 	 	 	 	 	 	 	 	 	 	 	 	 	 	1581494411	6.31	11.69
12/02/2020 08:00:12	120220	12022020	080012	178.39	12.875853	-57.118505	178.56	0.650	-0.200	2.010	178.44	-1.60	2.60	 	 	 	 	 	 	 	 	 	 	 	 	 	 	 	 	 	 	1581494412	5.59	10.35
12/02/2020 08:00:13	120220	12022020	080013	178.62	12.875830	-57.118503	178.79	0.490	0.420	1.290	178.67	-0.90	1.80	 	 	 	 	 	 	 	 	 	 	 	 	 	 	 	 	 	 	1581494413	4.83	8.95
12/02/2020 08:00:14	120220	12022020	080014	178.76	12.875808	-57.118498	178.93	0.320	0.280	1.010	178.79	-1.00	1.50	 	 	 	 	 	 	 	 	 	 	 	 	 	 	 	 	 	 	1581494414	4.92	9.11
12/02/2020 08:00:15	120220	12022020	080015	178.85	12.875782	-57.118497	178.98	0.060	-0.370	1.300	178.84	-1.70	1.80	 	 	 	 	 	 	 	 	 	 	 	 	 	 	 	 	 	 	1581494415	5.69	10.54
12/02/2020 08:00:16	120220	12022020	080016	178.75	12.875752	-57.118500	178.87	-0.300	-0.850	2.060	178.72	-2.20	2.50	 	 	 	 	 	 	 	 	 	 	 	 	 	 	 	 	 	 	1581494416	6.30	11.67
12/02/2020 08:00:17	120220	12022020	080017	178.53	12.875723	-57.118510	178.64	-0.560	-0.750	3.000	178.48	-2.10	3.50	 	 	 	 	 	 	 	 	 	 	 	 	 	 	 	 	 	 	1581494417	6.42	11.89
12/02/2020 08:00:18	120220	12022020	080018	178.34	12.875698	-57.118522	178.49	-0.540	-0.220	3.490	178.33	-1.60	4.00	 	 	 	 	 	 	 	 	 	 	 	 	 	 	 	 	 	 	1581494418	6.09	11.28
12/02/2020 08:00:19	120220	12022020	080019	178.46	12.875673	-57.118528	178.66	-0.330	0.410	3.320	178.52	-0.90	3.80	 	 	 	 	 	 	 	 	 	 	 	 	 	 	 	 	 	 	1581494419	5.47	10.13
12/02/2020 08:00:20	120220	12022020	080020	178.88	12.875650	-57.118532	179.11	-0.090	0.620	2.700	178.97	-0.70	3.20	 	 	 	 	 	 	 	 	 	 	 	 	 	 	 	 	 	 	1581494420	5.10	9.45
12/02/2020 08:00:21	120220	12022020	080021	179.29	12.875625	-57.118532	179.45	0.140	0.050	2.030	179.34	-1.20	2.60	 	 	 	 	 	 	 	 	 	 	 	 	 	 	 	 	 	 	1581494421	5.35	9.91
12/02/2020 08:00:22	120220	12022020	080022	179.42	12.875597	-57.118532	179.52	0.300	-0.830	1.680	179.41	-2.10	2.20	 	 	 	 	 	 	 	 	 	 	 	 	 	 	 	 	 	 	1581494422	6.10	11.30
12/02/2020 08:00:23	120220	12022020	080023	179.34	12.875567	-57.118532	179.41	0.400	-1.130	1.640	179.31	-2.50	2.20	 	 	 	 	 	 	 	 	 	 	 	 	 	 	 	 	 	 	1581494423	6.45	11.95
12/02/2020 08:00:24	120220	12022020	080024	179.22	12.875540	-57.118535	179.23	0.440	-0.650	1.630	179.18	-2.00	2.20	 	 	 	 	 	 	 	 	 	 	 	 	 	 	 	 	 	 	1581494424	5.93	10.98
12/02/2020 08:00:25	120220	12022020	080025	179.00	12.875515	-57.118535	179.05	0.370	-0.080	1.580	178.97	-1.40	2.10	 	 	 	 	 	 	 	 	 	 	 	 	 	 	 	 	 	 	1581494425	5.20	9.63
12/02/2020 08:00:26	120220	12022020	080026	178.87	12.875492	-57.118537	178.92	0.160	0.100	1.630	178.85	-1.20	2.10	 	 	 	 	 	 	 	 	 	 	 	 	 	 	 	 	 	 	1581494426	5.23	9.69
12/02/2020 08:00:27	120220	12022020	080027	178.83	12.875465	-57.118538	178.95	-0.180	0.060	1.870	178.85	-1.30	2.40	 	 	 	 	 	 	 	 	 	 	 	 	 	 	 	 	 	 	1581494427	5.75	10.65
12/02/2020 08:00:28	120220	12022020	080028	179.05	12.875437	-57.118542	179.23	-0.520	0.160	2.080	179.12	-1.20	2.60	 	 	 	 	 	 	 	 	 	 	 	 	 	 	 	 	 	 	1581494428	6.05	11.20
12/02/2020 08:00:29	120220	12022020	080029	179.54	12.875410	-57.118548	179.77	-0.710	0.380	2.080	179.66	-1.00	2.60	 	 	 	 	 	 	 	 	 	 	 	 	 	 	 	 	 	 	1581494429	5.84	10.82
12/02/2020 08:00:30	120220	12022020	080030	180.23	12.875385	-57.118553	180.45	-0.730	0.430	1.940	180.36	-0.90	2.50	 	 	 	 	 	 	 	 	 	 	 	 	 	 	 	 	 	 	1581494430	5.57	10.32
12/02/2020 08:00:31	120220	12022020	080031	180.79	12.875360	-57.118560	180.94	-0.420	0.040	1.720	180.85	-1.30	2.20	 	 	 	 	 	 	 	 	 	 	 	 	 	 	 	 	 	 	1581494431	5.53	10.24
12/02/2020 08:00:32	120220	12022020	080032	180.87	12.875333	-57.118565	180.92	0.290	-0.850	1.600	180.81	-2.20	2.10	 	 	 	 	 	 	 	 	 	 	 	 	 	 	 	 	 	 	1581494432	5.83	10.80
12/02/2020 08:00:33	120220	12022020	080033	180.44	12.875303	-57.118568	180.42	0.980	-1.650	1.720	180.31	-3.00	2.20	 	 	 	 	 	 	 	 	 	 	 	 	 	 	 	 	 	 	1581494433	6.40	11.85
12/02/2020 08:00:34	120220	12022020	080034	179.80	12.875273	-57.118568	179.82	1.010	-1.530	2.090	179.70	-2.90	2.60	 	 	 	 	 	 	 	 	 	 	 	 	 	 	 	 	 	 	1581494434	6.63	12.28
12/02/2020 08:00:35	120220	12022020	080035	179.43	12.875245	-57.118568	179.52	0.270	-0.490	2.380	179.40	-1.90	2.90	 	 	 	 	 	 	 	 	 	 	 	 	 	 	 	 	 	 	1581494435	5.97	11.06
12/02/2020 08:00:36	120220	12022020	080036	179.43	12.875222	-57.118573	179.59	-0.610	0.630	2.460	179.47	-0.80	3.00	 	 	 	 	 	 	 	 	 	 	 	 	 	 	 	 	 	 	1581494436	5.22	9.67
12/02/2020 08:00:37	120220	12022020	080037	179.75	12.875197	-57.118580	179.93	-0.850	1.120	2.150	179.84	-0.20	2.70	 	 	 	 	 	 	 	 	 	 	 	 	 	 	 	 	 	 	1581494437	5.26	9.74
12/02/2020 08:00:38	120220	12022020	080038	180.13	12.875172	-57.118585	180.40	-0.410	0.890	1.630	180.22	-0.40	2.20	 	 	 	 	 	 	 	 	 	 	 	 	 	 	 	 	 	 	1581494438	5.75	10.65
12/02/2020 08:00:39	120220	12022020	080039	180.58	12.875142	-57.118587	180.74	0.100	0.220	1.440	180.64	-1.10	1.90	 	 	 	 	 	 	 	 	 	 	 	 	 	 	 	 	 	 	1581494439	6.28	11.63
12/02/2020 08:00:40	120220	12022020	080040	180.86	12.875112	-57.118588	181.03	0.130	-0.380	1.710	180.91	-1.70	2.20	 	 	 	 	 	 	 	 	 	 	 	 	 	 	 	 	 	 	1581494440	6.55	12.13
12/02/2020 08:00:41	120220	12022020	080041	181.18	12.875083	-57.118595	181.37	-0.260	-0.500	2.110	181.24	-1.90	2.60	 	 	 	 	 	 	 	 	 	 	 	 	 	 	 	 	 	 	1581494441	6.31	11.69
12/02/2020 08:00:42	120220	12022020	080042	181.39	12.875057	-57.118602	181.51	-0.480	-0.420	2.540	181.39	-1.80	3.00	 	 	 	 	 	 	 	 	 	 	 	 	 	 	 	 	 	 	1581494442	5.75	10.65
12/02/2020 08:00:43	120220	12022020	080043	181.21	12.875032	-57.118610	181.23	-0.140	-0.690	2.950	181.11	-2.00	3.40	 	 	 	 	 	 	 	 	 	 	 	 	 	 	 	 	 	 	1581494443	5.55	10.28
12/02/2020 08:00:44	120220	12022020	080044	180.50	12.875005	-57.118617	180.42	0.530	-1.320	3.420	180.30	-2.60	3.90	 	 	 	 	 	 	 	 	 	 	 	 	 	 	 	 	 	 	1581494444	6.06	11.22
12/02/2020 08:00:45	120220	12022020	080045	179.53	12.874973	-57.118622	179.49	0.960	-1.500	3.790	179.37	-2.90	4.30	 	 	 	 	 	 	 	 	 	 	 	 	 	 	 	 	 	 	1581494445	6.77	12.54
12/02/2020 08:00:46	120220	12022020	080046	179.13	12.874943	-57.118625	179.28	0.750	-0.520	3.500	179.17	-1.90	4.00	 	 	 	 	 	 	 	 	 	 	 	 	 	 	 	 	 	 	1581494446	6.72	12.45
12/02/2020 08:00:47	120220	12022020	080047	179.67	12.874917	-57.118627	179.95	0.050	1.170	2.570	179.87	-0.30	3.10	 	 	 	 	 	 	 	 	 	 	 	 	 	 	 	 	 	 	1581494447	5.55	10.28
12/02/2020 08:00:48	120220	12022020	080048	180.74	12.874897	-57.118627	181.03	-0.590	2.110	1.550	180.96	0.70	2.10	 	 	 	 	 	 	 	 	 	 	 	 	 	 	 	 	 	 	1581494448	4.48	8.30
12/02/2020 08:00:49	120220	12022020	080049	181.69	12.874873	-57.118627	181.89	-0.690	1.410	0.960	181.83	0.10	1.50	 	 	 	 	 	 	 	 	 	 	 	 	 	 	 	 	 	 	1581494449	4.85	8.98
12/02/2020 08:00:50	120220	12022020	080050	182.08	12.874845	-57.118628	182.20	-0.290	-0.440	1.020	182.11	-1.70	1.50	 	 	 	 	 	 	 	 	 	 	 	 	 	 	 	 	 	 	1581494450	6.28	11.63
12/02/2020 08:00:51	120220	12022020	080051	181.95	12.874810	-57.118633	181.94	0.120	-2.090	1.820	181.85	-3.40	2.30	 	 	 	 	 	 	 	 	 	 	 	 	 	 	 	 	 	 	1581494451	7.43	13.76
12/02/2020 08:00:52	120220	12022020	080052	181.47	12.874777	-57.118642	181.28	0.190	-2.550	2.970	181.33	-3.90	3.40	 	 	 	 	 	 	 	 	 	 	 	 	 	 	 	 	 	 	1581494452	7.45	13.80
12/02/2020 08:00:53	120220	12022020	080053	180.54	12.874747	-57.118653	180.51	0.020	-1.830	3.910	180.40	-3.20	4.40	 	 	 	 	 	 	 	 	 	 	 	 	 	 	 	 	 	 	1581494453	6.71	12.43
12/02/2020 08:00:54	120220	12022020	080054	180.05	12.874722	-57.118662	180.16	-0.180	-0.370	3.990	180.05	-1.80	4.50	 	 	 	 	 	 	 	 	 	 	 	 	 	 	 	 	 	 	1581494454	5.92	10.96
12/02/2020 08:00:55	120220	12022020	080055	180.36	12.874698	-57.118667	180.58	-0.430	1.170	3.270	180.50	-0.30	3.80	 	 	 	 	 	 	 	 	 	 	 	 	 	 	 	 	 	 	1581494455	5.24	9.70
12/02/2020 08:00:56	120220	12022020	080056	181.09	12.874675	-57.118668	181.27	-0.590	1.760	2.270	181.22	0.40	2.80	 	 	 	 	 	 	 	 	 	 	 	 	 	 	 	 	 	 	1581494456	4.93	9.13
12/02/2020 08:00:57	120220	12022020	080057	181.58	12.874648	-57.118670	181.67	-0.310	0.930	1.370	181.63	-0.40	1.90	 	 	 	 	 	 	 	 	 	 	 	 	 	 	 	 	 	 	1581494457	5.61	10.39
12/02/2020 08:00:58	120220	12022020	080058	181.77	12.874617	-57.118670	181.84	0.370	-0.350	0.720	181.80	-1.70	1.30	 	 	 	 	 	 	 	 	 	 	 	 	 	 	 	 	 	 	1581494458	6.96	12.89
12/02/2020 08:00:59	120220	12022020	080059	181.92	12.874582	-57.118670	182.01	0.870	-0.810	0.510	181.96	-2.20	1.00	 	 	 	 	 	 	 	 	 	 	 	 	 	 	 	 	 	 	1581494459	7.41	13.72
12/02/2020 08:01:00	120220	12022020	080100	182.13	12.874552	-57.118672	182.22	0.750	-0.350	0.750	182.17	-1.70	1.30	 	 	 	 	 	 	 	 	 	 	 	 	 	 	 	 	 	 	1581494460	6.40	11.85
12/02/2020 08:01:01	120220	12022020	080101	182.34	12.874528	-57.118675	182.44	0.130	0.220	1.320	182.37	-1.20	1.80	1014.90	26.10	26.20	20.30	20.40	-1.0	70.0	70.0	396.0	25.8	279.00	12.30	85.00	12.20	16	10294.0	27.3	27.3	1581494461	5.25	9.72
12/02/2020 08:01:02	120220	12022020	080102	182.41	12.874505	-57.118680	182.46	-0.440	0.130	2.090	182.39	-1.20	2.60	 	 	 	 	 	 	 	 	 	 	 	 	 	 	 	 	 	 	1581494462	5.10	9.45
12/02/2020 08:01:03	120220	12022020	080103	182.14	12.874478	-57.118690	182.14	-0.590	-0.810	3.000	182.04	-2.10	3.50	 	 	 	 	 	 	 	 	 	 	 	 	 	 	 	 	 	 	1581494463	5.93	10.98
12/02/2020 08:01:04	120220	12022020	080104	181.62	12.874447	-57.118702	181.62	-0.370	-1.780	3.830	181.52	-3.10	4.30	 	 	 	 	 	 	 	 	 	 	 	 	 	 	 	 	 	 	1581494464	7.19	13.32
12/02/2020 08:01:05	120220	12022020	080105	181.23	12.874415	-57.118715	181.31	0.020	-1.640	3.990	181.20	-3.00	4.50	 	 	 	 	 	 	 	 	 	 	 	 	 	 	 	 	 	 	1581494465	7.60	14.08
12/02/2020 08:01:06	120220	12022020	080106	181.23	12.874387	-57.118725	181.36	0.390	-0.400	3.190	181.26	-1.80	3.70	 	 	 	 	 	 	 	 	 	 	 	 	 	 	 	 	 	 	1581494466	6.47	11.98
12/02/2020 08:01:07	120220	12022020	080107	181.48	12.874362	-57.118725	181.61	0.590	0.700	1.900	181.55	-0.70	2.50	 	 	 	 	 	 	 	 	 	 	 	 	 	 	 	 	 	 	1581494467	5.12	9.48
12/02/2020 08:01:08	120220	12022020	080108	181.77	12.874337	-57.118720	181.85	0.490	0.720	0.930	181.81	-0.60	1.50	 	 	 	 	 	 	 	 	 	 	 	 	 	 	 	 	 	 	1581494468	5.45	10.09
12/02/2020 08:01:09	120220	12022020	080109	181.91	12.874308	-57.118713	181.96	0.100	-0.040	0.760	181.90	-1.40	1.30	 	 	 	 	 	 	 	 	 	 	 	 	 	 	 	 	 	 	1581494469	6.51	12.06
12/02/2020 08:01:10	120220	12022020	080110	181.79	12.874275	-57.118713	181.82	-0.450	-0.560	1.320	181.75	-1.90	1.80	 	 	 	 	 	 	 	 	 	 	 	 	 	 	 	 	 	 	1581494470	7.11	13.17
12/02/2020 08:01:11	120220	12022020	080111	181.61	12.874243	-57.118722	181.69	-0.910	-0.170	2.200	181.61	-1.60	2.70	 	 	 	 	 	 	 	 	 	 	 	 	 	 	 	 	 	 	1581494471	6.93	12.83
12/02/2020 08:01:12	120220	12022020	080112	181.75	12.874217	-57.118733	181.90	-1.040	0.700	2.790	181.81	-0.70	3.30	 	 	 	 	 	 	 	 	 	 	 	 	 	 	 	 	 	 	1581494472	6.23	11.54
12/02/2020 08:01:13	120220	12022020	080113	182.04	12.874193	-57.118747	182.16	-0.640	0.880	2.840	182.08	-0.50	3.30	 	 	 	 	 	 	 	 	 	 	 	 	 	 	 	 	 	 	1581494473	5.62	10.41
12/02/2020 08:01:14	120220	12022020	080114	182.07	12.874168	-57.118757	182.11	0.240	-0.160	2.550	182.03	-1.40	3.10	 	 	 	 	 	 	 	 	 	 	 	 	 	 	 	 	 	 	1581494474	5.85	10.83
12/02/2020 08:01:15	120220	12022020	080115	181.83	12.874137	-57.118762	181.87	1.130	-1.420	2.080	181.78	-2.70	2.60	 	 	 	 	 	 	 	 	 	 	 	 	 	 	 	 	 	 	1581494475	6.94	12.85
12/02/2020 08:01:16	120220	12022020	080116	181.67	12.874103	-57.118762	181.74	1.490	-1.630	1.450	181.67	-3.00	2.00	 	 	 	 	 	 	 	 	 	 	 	 	 	 	 	 	 	 	1581494476	7.28	13.48
12/02/2020 08:01:17	120220	12022020	080117	181.71	12.874073	-57.118758	181.78	1.070	-0.820	0.870	181.73	-2.20	1.40	 	 	 	 	 	 	 	 	 	 	 	 	 	 	 	 	 	 	1581494477	6.34	11.74
12/02/2020 08:01:18	120220	12022020	080118	181.86	12.874048	-57.118755	181.94	0.130	0.030	0.640	181.90	-1.40	1.20	 	 	 	 	 	 	 	 	 	 	 	 	 	 	 	 	 	 	1581494478	5.41	10.02
12/02/2020 08:01:19	120220	12022020	080119	182.04	12.874023	-57.118755	182.13	-0.770	0.260	1.020	182.09	-1.10	1.50	 	 	 	 	 	 	 	 	 	 	 	 	 	 	 	 	 	 	1581494479	5.37	9.95
12/02/2020 08:01:20	120220	12022020	080120	182.37	12.873995	-57.118762	182.51	-1.230	0.130	1.690	182.46	-1.20	2.20	 	 	 	 	 	 	 	 	 	 	 	 	 	 	 	 	 	 	1581494480	6.29	11.65
12/02/2020 08:01:21	120220	12022020	080121	182.73	12.873965	-57.118773	182.83	-1.110	0.050	2.400	182.77	-1.30	2.90	 	 	 	 	 	 	 	 	 	 	 	 	 	 	 	 	 	 	1581494481	6.91	12.80
12/02/2020 08:01:22	120220	12022020	080122	182.78	12.873937	-57.118787	182.84	-0.550	-0.040	2.870	182.75	-1.40	3.40	 	 	 	 	 	 	 	 	 	 	 	 	 	 	 	 	 	 	1581494482	6.91	12.80
12/02/2020 08:01:23	120220	12022020	080123	182.62	12.873907	-57.118798	182.68	0.110	-0.110	2.940	182.57	-1.50	3.40	 	 	 	 	 	 	 	 	 	 	 	 	 	 	 	 	 	 	1581494483	6.73	12.46
12/02/2020 08:01:24	120220	12022020	080124	182.38	12.873877	-57.118803	182.44	0.520	-0.090	2.720	182.34	-1.50	3.20	 	 	 	 	 	 	 	 	 	 	 	 	 	 	 	 	 	 	1581494484	6.45	11.95
12/02/2020 08:01:25	120220	12022020	080125	182.23	12.873848	-57.118805	182.32	0.590	-0.130	2.100	182.23	-1.50	2.60	 	 	 	 	 	 	 	 	 	 	 	 	 	 	 	 	 	 	1581494485	6.25	11.58
12/02/2020 08:01:26	120220	12022020	080126	182.28	12.873818	-57.118803	182.37	0.500	-0.270	1.370	182.30	-1.60	1.90	 	 	 	 	 	 	 	 	 	 	 	 	 	 	 	 	 	 	1581494486	6.28	11.63
12/02/2020 08:01:27	120220	12022020	080127	182.38	12.873790	-57.118803	182.45	0.410	-0.370	0.980	182.40	-1.70	1.50	 	 	 	 	 	 	 	 	 	 	 	 	 	 	 	 	 	 	1581494487	6.35	11.76
12/02/2020 08:01:28	120220	12022020	080128	182.46	12.873760	-57.118805	182.53	0.340	-0.250	0.980	182.47	-1.60	1.50	 	 	 	 	 	 	 	 	 	 	 	 	 	 	 	 	 	 	1581494488	6.30	11.67
12/02/2020 08:01:29	120220	12022020	080129	182.46	12.873732	-57.118807	182.50	0.190	-0.110	1.270	182.45	-1.50	1.80	 	 	 	 	 	 	 	 	 	 	 	 	 	 	 	 	 	 	1581494489	6.03	11.17
12/02/2020 08:01:30	120220	12022020	080130	182.46	12.873705	-57.118812	182.55	-0.060	-0.180	1.650	182.48	-1.50	2.10	 	 	 	 	 	 	 	 	 	 	 	 	 	 	 	 	 	 	1581494490	6.08	11.26
12/02/2020 08:01:31	120220	12022020	080131	182.63	12.873675	-57.118818	182.75	-0.320	-0.380	2.150	182.67	-1.70	2.60	 	 	 	 	 	 	 	 	 	 	 	 	 	 	 	 	 	 	1581494491	6.43	11.91
12/02/2020 08:01:32	120220	12022020	080132	182.74	12.873645	-57.118828	182.83	-0.470	-0.550	2.780	182.74	-1.90	3.20	 	 	 	 	 	 	 	 	 	 	 	 	 	 	 	 	 	 	1581494492	6.68	12.37
12/02/2020 08:01:33	120220	12022020	080133	182.63	12.873615	-57.118838	182.69	-0.420	-0.640	3.190	182.58	-2.00	3.70	 	 	 	 	 	 	 	 	 	 	 	 	 	 	 	 	 	 	1581494493	6.78	12.56
12/02/2020 08:01:34	120220	12022020	080134	182.45	12.873585	-57.118848	182.55	-0.290	-0.520	3.110	182.45	-1.90	3.60	 	 	 	 	 	 	 	 	 	 	 	 	 	 	 	 	 	 	1581494494	6.77	12.54
12/02/2020 08:01:35	120220	12022020	080135	182.56	12.873555	-57.118853	182.70	-0.210	-0.170	2.600	182.60	-1.50	3.10	 	 	 	 	 	 	 	 	 	 	 	 	 	 	 	 	 	 	1581494495	6.53	12.09
12/02/2020 08:01:36	120220	12022020	080136	182.85	12.873527	-57.118857	182.98	-0.150	0.100	2.070	182.89	-1.30	2.60	 	 	 	 	 	 	 	 	 	 	 	 	 	 	 	 	 	 	1581494496	6.21	11.50
12/02/2020 08:01:37	120220	12022020	080137	182.94	12.873498	-57.118858	183.00	0.090	0.030	1.680	182.92	-1.30	2.20	 	 	 	 	 	 	 	 	 	 	 	 	 	 	 	 	 	 	1581494497	6.22	11.52
12/02/2020 08:01:38	120220	12022020	080138	182.76	12.873467	-57.118860	182.81	0.530	-0.180	1.420	182.73	-1.50	1.90	 	 	 	 	 	 	 	 	 	 	 	 	 	 	 	 	 	 	1581494498	6.64	12.30
12/02/2020 08:01:39	120220	12022020	080139	182.69	12.873435	-57.118862	182.79	0.840	-0.050	1.230	182.71	-1.40	1.80	 	 	 	 	 	 	 	 	 	 	 	 	 	 	 	 	 	 	1581494499	6.87	12.72
12/02/2020 08:01:40	120220	12022020	080140	182.86	12.873405	-57.118862	183.06	0.710	0.310	1.110	182.92	-1.10	1.60	 	 	 	 	 	 	 	 	 	 	 	 	 	 	 	 	 	 	1581494500	6.48	12.00
12/02/2020 08:01:41	120220	12022020	080141	183.24	12.873377	-57.118862	183.36	0.190	0.400	1.330	183.29	-1.00	1.80	 	 	 	 	 	 	 	 	 	 	 	 	 	 	 	 	 	 	1581494501	6.02	11.15
12/02/2020 08:01:42	120220	12022020	080142	183.36	12.873350	-57.118867	183.41	-0.370	-0.080	2.190	183.35	-1.40	2.70	 	 	 	 	 	 	 	 	 	 	 	 	 	 	 	 	 	 	1581494502	6.11	11.32
12/02/2020 08:01:43	120220	12022020	080143	183.10	12.873318	-57.118877	183.15	-0.630	-0.830	3.460	183.03	-2.10	3.90	 	 	 	 	 	 	 	 	 	 	 	 	 	 	 	 	 	 	1581494503	6.85	12.69
12/02/2020 08:01:44	120220	12022020	080144	182.71	12.873287	-57.118892	182.77	-0.540	-1.260	4.410	182.63	-2.60	4.90	 	 	 	 	 	 	 	 	 	 	 	 	 	 	 	 	 	 	1581494504	7.50	13.89
12/02/2020 08:01:45	120220	12022020	080145	182.31	12.873257	-57.118907	182.39	-0.220	-1.190	4.580	182.25	-2.50	5.10	 	 	 	 	 	 	 	 	 	 	 	 	 	 	 	 	 	 	1581494505	7.36	13.63
12/02/2020 08:01:46	120220	12022020	080146	182.09	12.873227	-57.118915	182.22	0.130	-0.690	3.840	182.09	-2.10	4.40	 	 	 	 	 	 	 	 	 	 	 	 	 	 	 	 	 	 	1581494506	6.78	12.56
12/02/2020 08:01:47	120220	12022020	080147	182.23	12.873197	-57.118918	182.39	0.290	0.050	2.410	182.30	-1.30	3.00	 	 	 	 	 	 	 	 	 	 	 	 	 	 	 	 	 	 	1581494507	6.28	11.63
12/02/2020 08:01:48	120220	12022020	080148	182.70	12.873168	-57.118915	182.88	0.220	0.640	0.890	182.83	-0.70	1.50	 	 	 	 	 	 	 	 	 	 	 	 	 	 	 	 	 	 	1581494508	6.10	11.30
12/02/2020 08:01:49	120220	12022020	080149	183.31	12.873140	-57.118910	183.44	0.060	0.630	-0.180	183.42	-0.70	0.40	 	 	 	 	 	 	 	 	 	 	 	 	 	 	 	 	 	 	1581494509	6.21	11.50
12/02/2020 08:01:50	120220	12022020	080150	183.63	12.873110	-57.118907	183.66	0.020	-0.120	-0.310	183.63	-1.40	0.20	 	 	 	 	 	 	 	 	 	 	 	 	 	 	 	 	 	 	1581494510	6.62	12.26
12/02/2020 08:01:51	120220	12022020	080151	183.48	12.873077	-57.118908	183.47	0.070	-0.980	0.480	183.42	-2.30	1.00	 	 	 	 	 	 	 	 	 	 	 	 	 	 	 	 	 	 	1581494511	7.29	13.50
12/02/2020 08:01:52	120220	12022020	080152	183.12	12.873042	-57.118915	183.12	-0.020	-1.070	1.740	183.04	-2.40	2.20	 	 	 	 	 	 	 	 	 	 	 	 	 	 	 	 	 	 	1581494512	7.59	14.06
12/02/2020 08:01:53	120220	12022020	080153	182.79	12.873010	-57.118925	182.85	-0.230	-0.290	2.800	182.75	-1.70	3.30	 	 	 	 	 	 	 	 	 	 	 	 	 	 	 	 	 	 	1581494513	7.02	13.00
12/02/2020 08:01:54	120220	12022020	080154	182.74	12.872983	-57.118935	182.85	-0.320	0.530	3.170	182.76	-0.80	3.70	 	 	 	 	 	 	 	 	 	 	 	 	 	 	 	 	 	 	1581494514	6.25	11.58
12/02/2020 08:01:55	120220	12022020	080155	182.94	12.872957	-57.118943	183.06	-0.150	0.650	2.930	182.97	-0.70	3.40	 	 	 	 	 	 	 	 	 	 	 	 	 	 	 	 	 	 	1581494515	5.98	11.07
12/02/2020 08:01:56	120220	12022020	080156	183.04	12.872927	-57.118948	183.11	0.150	-0.020	2.610	183.03	-1.30	3.10	 	 	 	 	 	 	 	 	 	 	 	 	 	 	 	 	 	 	1581494516	6.47	11.98
12/02/2020 08:01:57	120220	12022020	080157	182.95	12.872893	-57.118952	183.02	0.280	-0.820	2.500	182.92	-2.10	3.00	 	 	 	 	 	 	 	 	 	 	 	 	 	 	 	 	 	 	1581494517	7.24	13.41
12/02/2020 08:01:58	120220	12022020	080158	182.91	12.872858	-57.118955	183.03	0.090	-0.900	2.520	182.93	-2.30	3.00	 	 	 	 	 	 	 	 	 	 	 	 	 	 	 	 	 	 	1581494518	7.41	13.72
12/02/2020 08:01:59	120220	12022020	080159	183.07	12.872828	-57.118962	183.20	-0.230	-0.190	2.520	183.11	-1.60	3.00	 	 	 	 	 	 	 	 	 	 	 	 	 	 	 	 	 	 	1581494519	6.70	12.41
12/02/2020 08:02:00	120220	12022020	080200	183.26	12.872802	-57.118970	183.37	-0.290	0.350	2.330	183.30	-1.00	2.90	 	 	 	 	 	 	 	 	 	 	 	 	 	 	 	 	 	 	1581494520	5.87	10.87
12/02/2020 08:02:01	120220	12022020	080201	183.51	12.872775	-57.118975	183.65	-0.010	0.240	1.830	183.59	-1.10	2.40	1015.00	26.20	26.20	20.40	20.40	-1.0	70.0	70.0	396.0	25.8	276.00	11.40	82.00	11.60	16	10183.0	27.3	27.3	1581494521	6.02	11.15
12/02/2020 08:02:02	120220	12022020	080202	183.92	12.872743	-57.118978	184.07	0.370	-0.170	1.230	184.01	-1.50	1.80	 	 	 	 	 	 	 	 	 	 	 	 	 	 	 	 	 	 	1581494522	6.68	12.37
12/02/2020 08:02:03	120220	12022020	080203	184.15	12.872712	-57.118980	184.20	0.590	-0.730	0.890	184.13	-2.10	1.40	 	 	 	 	 	 	 	 	 	 	 	 	 	 	 	 	 	 	1581494523	6.93	12.83
12/02/2020 08:02:04	120220	12022020	080204	183.95	12.872678	-57.118980	183.81	0.580	-1.300	1.150	183.85	-2.60	1.70	 	 	 	 	 	 	 	 	 	 	 	 	 	 	 	 	 	 	1581494524	7.14	13.22
12/02/2020 08:02:05	120220	12022020	080205	183.35	12.872643	-57.118982	183.36	0.250	-1.290	1.930	183.28	-2.70	2.40	 	 	 	 	 	 	 	 	 	 	 	 	 	 	 	 	 	 	1581494525	7.40	13.70
12/02/2020 08:02:06	120220	12022020	080206	183.14	12.872612	-57.118988	183.25	-0.440	-0.360	2.920	183.14	-1.80	3.40	 	 	 	 	 	 	 	 	 	 	 	 	 	 	 	 	 	 	1581494526	7.05	13.06
12/02/2020 08:02:07	120220	12022020	080207	183.34	12.872585	-57.118998	183.51	-1.150	0.930	3.550	183.40	-0.50	4.00	 	 	 	 	 	 	 	 	 	 	 	 	 	 	 	 	 	 	1581494527	6.33	11.72
12/02/2020 08:02:08	120220	12022020	080208	183.60	12.872560	-57.119012	183.75	-1.250	1.320	3.620	183.63	-0.00	4.10	 	 	 	 	 	 	 	 	 	 	 	 	 	 	 	 	 	 	1581494528	6.00	11.11
12/02/2020 08:02:09	120220	12022020	080209	183.63	12.872530	-57.119022	183.73	-0.510	0.350	3.390	183.61	-0.90	3.90	 	 	 	 	 	 	 	 	 	 	 	 	 	 	 	 	 	 	1581494529	6.64	12.30
12/02/2020 08:02:10	120220	12022020	080210	183.52	12.872495	-57.119032	183.64	0.510	-0.690	2.910	183.52	-2.00	3.50	 	 	 	 	 	 	 	 	 	 	 	 	 	 	 	 	 	 	1581494530	7.87	14.58
12/02/2020 08:02:11	120220	12022020	080211	183.62	12.872458	-57.119035	183.76	0.930	-0.810	2.100	183.65	-2.20	2.70	 	 	 	 	 	 	 	 	 	 	 	 	 	 	 	 	 	 	1581494531	7.84	14.52
12/02/2020 08:02:12	120220	12022020	080212	183.80	12.872427	-57.119033	183.92	0.520	-0.420	1.520	183.82	-1.80	2.10	 	 	 	 	 	 	 	 	 	 	 	 	 	 	 	 	 	 	1581494532	6.72	12.45
12/02/2020 08:02:13	120220	12022020	080213	183.85	12.872400	-57.119035	183.94	-0.140	-0.220	1.570	183.84	-1.60	2.10	 	 	 	 	 	 	 	 	 	 	 	 	 	 	 	 	 	 	1581494533	6.06	11.22
12/02/2020 08:02:14	120220	12022020	080214	183.80	12.872370	-57.119040	183.90	-0.420	-0.220	1.840	183.79	-1.60	2.40	 	 	 	 	 	 	 	 	 	 	 	 	 	 	 	 	 	 	1581494534	6.40	11.85
12/02/2020 08:02:15	120220	12022020	080215	183.70	12.872340	-57.119048	183.78	-0.130	-0.250	1.960	183.67	-1.60	2.50	 	 	 	 	 	 	 	 	 	 	 	 	 	 	 	 	 	 	1581494535	6.79	12.58
12/02/2020 08:02:16	120220	12022020	080216	183.55	12.872308	-57.119057	183.62	0.450	-0.330	1.750	183.52	-1.70	2.30	 	 	 	 	 	 	 	 	 	 	 	 	 	 	 	 	 	 	1581494536	6.85	12.69
12/02/2020 08:02:17	120220	12022020	080217	183.36	12.872277	-57.119060	183.42	0.810	-0.370	1.560	183.32	-1.70	2.10	 	 	 	 	 	 	 	 	 	 	 	 	 	 	 	 	 	 	1581494537	6.90	12.78
12/02/2020 08:02:18	120220	12022020	080218	183.21	12.872245	-57.119060	183.27	0.580	-0.260	1.740	183.19	-1.60	2.20	 	 	 	 	 	 	 	 	 	 	 	 	 	 	 	 	 	 	1581494538	6.90	12.78
12/02/2020 08:02:19	120220	12022020	080219	183.31	12.872213	-57.119063	183.47	-0.200	0.060	2.220	183.38	-1.30	2.70	 	 	 	 	 	 	 	 	 	 	 	 	 	 	 	 	 	 	1581494539	6.75	12.50
12/02/2020 08:02:20	120220	12022020	080220	183.84	12.872183	-57.119072	184.08	-1.060	0.380	2.830	183.97	-1.00	3.30	 	 	 	 	 	 	 	 	 	 	 	 	 	 	 	 	 	 	1581494540	6.55	12.13
12/02/2020 08:02:21	120220	12022020	080221	184.43	12.872155	-57.119085	184.64	-1.360	0.300	3.350	184.51	-1.00	3.80	 	 	 	 	 	 	 	 	 	 	 	 	 	 	 	 	 	 	1581494541	6.76	12.52
12/02/2020 08:02:22	120220	12022020	080222	184.63	12.872127	-57.119102	184.74	-0.720	-0.350	3.420	184.60	-1.70	3.90	 	 	 	 	 	 	 	 	 	 	 	 	 	 	 	 	 	 	1581494542	7.15	13.24
12/02/2020 08:02:23	120220	12022020	080223	184.32	12.872093	-57.119113	184.34	0.540	-1.160	2.970	184.21	-2.50	3.50	 	 	 	 	 	 	 	 	 	 	 	 	 	 	 	 	 	 	1581494543	7.43	13.76
12/02/2020 08:02:24	120220	12022020	080224	183.75	12.872058	-57.119117	183.78	1.490	-1.450	2.300	183.66	-2.80	2.90	 	 	 	 	 	 	 	 	 	 	 	 	 	 	 	 	 	 	1581494544	7.62	14.11
12/02/2020 08:02:25	120220	12022020	080225	183.46	12.872023	-57.119113	183.55	1.410	-0.940	1.620	183.46	-2.30	2.20	 	 	 	 	 	 	 	 	 	 	 	 	 	 	 	 	 	 	1581494545	7.45	13.80
12/02/2020 08:02:26	120220	12022020	080226	183.64	12.871993	-57.119108	183.80	0.420	-0.010	1.180	183.72	-1.40	1.70	 	 	 	 	 	 	 	 	 	 	 	 	 	 	 	 	 	 	1581494546	6.78	12.56
12/02/2020 08:02:27	120220	12022020	080227	184.04	12.871963	-57.119108	184.20	-0.770	0.660	1.270	184.13	-0.70	1.80	 	 	 	 	 	 	 	 	 	 	 	 	 	 	 	 	 	 	1581494547	6.21	11.50
12/02/2020 08:02:28	120220	12022020	080228	184.40	12.871935	-57.119115	184.54	-1.460	0.680	1.880	184.45	-0.70	2.40	 	 	 	 	 	 	 	 	 	 	 	 	 	 	 	 	 	 	1581494548	6.51	12.06
12/02/2020 08:02:29	120220	12022020	080229	184.56	12.871902	-57.119128	184.68	-1.390	0.340	2.600	184.57	-1.00	3.10	 	 	 	 	 	 	 	 	 	 	 	 	 	 	 	 	 	 	1581494549	7.42	13.74
12/02/2020 08:02:30	120220	12022020	080230	184.53	12.871870	-57.119145	184.60	-0.790	0.090	3.060	184.51	-1.30	3.50	 	 	 	 	 	 	 	 	 	 	 	 	 	 	 	 	 	 	1581494550	7.82	14.48
12/02/2020 08:02:31	120220	12022020	080231	184.33	12.871837	-57.119158	184.45	0.010	0.050	3.040	184.30	-1.30	3.60	 	 	 	 	 	 	 	 	 	 	 	 	 	 	 	 	 	 	1581494551	7.47	13.83
12/02/2020 08:02:32	120220	12022020	080232	184.26	12.871807	-57.119167	184.41	0.730	0.070	2.380	184.26	-1.30	2.90	 	 	 	 	 	 	 	 	 	 	 	 	 	 	 	 	 	 	1581494552	6.90	12.78
12/02/2020 08:02:33	120220	12022020	080233	184.27	12.871775	-57.119167	184.38	1.130	-0.240	1.500	184.26	-1.60	2.00	 	 	 	 	 	 	 	 	 	 	 	 	 	 	 	 	 	 	1581494553	6.60	12.22
12/02/2020 08:02:34	120220	12022020	080234	184.18	12.871743	-57.119165	184.26	1.060	-0.860	1.190	184.15	-2.20	1.70	 	 	 	 	 	 	 	 	 	 	 	 	 	 	 	 	 	 	1581494554	6.95	12.87
12/02/2020 08:02:35	120220	12022020	080235	184.11	12.871710	-57.119165	184.24	0.590	-1.180	1.410	184.12	-2.50	1.90	 	 	 	 	 	 	 	 	 	 	 	 	 	 	 	 	 	 	1581494555	7.24	13.41
12/02/2020 08:02:36	120220	12022020	080236	184.23	12.871678	-57.119172	184.38	0.100	-0.960	1.640	184.26	-2.30	2.10	 	 	 	 	 	 	 	 	 	 	 	 	 	 	 	 	 	 	1581494556	7.01	12.98
12/02/2020 08:02:37	120220	12022020	080237	184.29	12.871648	-57.119178	184.39	-0.050	-0.640	1.980	184.26	-2.00	2.50	 	 	 	 	 	 	 	 	 	 	 	 	 	 	 	 	 	 	1581494557	6.60	12.22
12/02/2020 08:02:38	120220	12022020	080238	184.01	12.871617	-57.119185	184.07	0.030	-0.620	2.590	183.92	-2.00	3.10	 	 	 	 	 	 	 	 	 	 	 	 	 	 	 	 	 	 	1581494558	6.71	12.43
12/02/2020 08:02:39	120220	12022020	080239	183.65	12.871583	-57.119192	183.76	-0.080	-0.550	3.040	183.62	-1.90	3.50	 	 	 	 	 	 	 	 	 	 	 	 	 	 	 	 	 	 	1581494559	7.37	13.65
12/02/2020 08:02:40	120220	12022020	080240	183.60	12.871550	-57.119200	183.79	-0.570	0.010	3.240	183.64	-1.40	3.70	 	 	 	 	 	 	 	 	 	 	 	 	 	 	 	 	 	 	1581494560	7.58	14.04
12/02/2020 08:02:41	120220	12022020	080241	183.97	12.871518	-57.119210	184.23	-1.090	0.920	3.200	184.09	-0.50	3.70	 	 	 	 	 	 	 	 	 	 	 	 	 	 	 	 	 	 	1581494561	7.07	13.09
12/02/2020 08:02:42	120220	12022020	080242	184.54	12.871490	-57.119220	184.76	-1.200	1.310	2.930	184.63	-0.10	3.40	 	 	 	 	 	 	 	 	 	 	 	 	 	 	 	 	 	 	1581494562	6.49	12.02
12/02/2020 08:02:43	120220	12022020	080243	184.75	12.871460	-57.119228	184.83	-0.580	0.560	2.680	184.71	-0.80	3.20	 	 	 	 	 	 	 	 	 	 	 	 	 	 	 	 	 	 	1581494563	6.67	12.35
12/02/2020 08:02:44	120220	12022020	080244	184.48	12.871425	-57.119237	184.56	0.480	-0.610	2.350	184.44	-1.90	2.90	 	 	 	 	 	 	 	 	 	 	 	 	 	 	 	 	 	 	1581494564	7.66	14.19
12/02/2020 08:02:45	120220	12022020	080245	184.38	12.871388	-57.119240	184.52	1.190	-1.030	1.820	184.40	-2.40	2.40	 	 	 	 	 	 	 	 	 	 	 	 	 	 	 	 	 	 	1581494565	8.10	15.00
12/02/2020 08:02:46	120220	12022020	080246	184.63	12.871353	-57.119242	184.80	1.140	-0.580	1.100	184.69	-2.00	1.70	 	 	 	 	 	 	 	 	 	 	 	 	 	 	 	 	 	 	1581494566	7.20	13.33
12/02/2020 08:02:47	120220	12022020	080247	184.96	12.871325	-57.119242	185.10	0.650	-0.100	0.500	185.01	-1.50	1.00	 	 	 	 	 	 	 	 	 	 	 	 	 	 	 	 	 	 	1581494567	6.15	11.39
12/02/2020 08:02:48	120220	12022020	080248	185.09	12.871297	-57.119242	185.18	0.200	-0.200	0.580	185.08	-1.60	1.10	 	 	 	 	 	 	 	 	 	 	 	 	 	 	 	 	 	 	1581494568	6.13	11.35
12/02/2020 08:02:49	120220	12022020	080249	184.93	12.871265	-57.119247	184.99	0.010	-0.810	1.360	184.86	-2.10	1.80	 	 	 	 	 	 	 	 	 	 	 	 	 	 	 	 	 	 	1581494569	6.86	12.70
12/02/2020 08:02:50	120220	12022020	080250	184.54	12.871230	-57.119257	184.60	-0.060	-1.290	2.420	184.46	-2.60	2.90	 	 	 	 	 	 	 	 	 	 	 	 	 	 	 	 	 	 	1581494570	7.76	14.37
12/02/2020 08:02:51	120220	12022020	080251	184.18	12.871195	-57.119270	184.31	-0.230	-0.950	3.270	184.14	-2.40	3.70	 	 	 	 	 	 	 	 	 	 	 	 	 	 	 	 	 	 	1581494571	8.03	14.87
12/02/2020 08:02:52	120220	12022020	080252	184.09	12.871163	-57.119282	184.28	-0.570	0.140	3.600	184.10	-1.30	4.10	 	 	 	 	 	 	 	 	 	 	 	 	 	 	 	 	 	 	1581494572	7.36	13.63
12/02/2020 08:02:53	120220	12022020	080253	184.15	12.871135	-57.119292	184.34	-0.780	1.070	3.390	184.17	-0.30	3.90	 	 	 	 	 	 	 	 	 	 	 	 	 	 	 	 	 	 	1581494573	6.48	12.00
12/02/2020 08:02:54	120220	12022020	080254	184.32	12.871107	-57.119300	184.51	-0.580	1.160	2.610	184.37	-0.20	3.20	 	 	 	 	 	 	 	 	 	 	 	 	 	 	 	 	 	 	1581494574	6.40	11.85
12/02/2020 08:02:55	120220	12022020	080255	184.63	12.871075	-57.119303	184.82	-0.030	0.520	1.550	184.70	-0.80	2.10	 	 	 	 	 	 	 	 	 	 	 	 	 	 	 	 	 	 	1581494575	6.99	12.95
12/02/2020 08:02:56	120220	12022020	080256	184.88	12.871040	-57.119303	185.06	0.490	-0.410	0.730	184.92	-1.70	1.30	 	 	 	 	 	 	 	 	 	 	 	 	 	 	 	 	 	 	1581494576	7.54	13.96
12/02/2020 08:02:57	120220	12022020	080257	184.93	12.871003	-57.119303	184.99	0.720	-1.240	0.470	184.90	-2.60	1.00	 	 	 	 	 	 	 	 	 	 	 	 	 	 	 	 	 	 	1581494577	7.64	14.15
12/02/2020 08:02:58	120220	12022020	080258	184.60	12.870968	-57.119307	184.60	0.670	-1.690	0.810	184.51	-3.00	1.30	 	 	 	 	 	 	 	 	 	 	 	 	 	 	 	 	 	 	1581494578	7.54	13.96
12/02/2020 08:02:59	120220	12022020	080259	183.99	12.870935	-57.119312	183.97	0.470	-1.480	1.730	183.86	-2.90	2.20	 	 	 	 	 	 	 	 	 	 	 	 	 	 	 	 	 	 	1581494579	7.37	13.65
12/02/2020 08:03:00	120220	12022020	080300	183.27	12.870903	-57.119320	183.29	0.150	-0.650	2.750	183.15	-2.10	3.20	 	 	 	 	 	 	 	 	 	 	 	 	 	 	 	 	 	 	1581494580	7.10	13.15
12/02/2020 08:03:01	120220	12022020	080301	182.96	12.870872	-57.119330	183.12	-0.320	0.490	3.130	183.00	-0.90	3.60	1014.90	26.10	26.10	20.10	20.20	-1.0	69.0	69.0	397.0	25.8	272.00	10.70	78.00	11.10	16	9827.0	27.3	27.3	1581494581	6.84	12.67
12/02/2020 08:03:02	120220	12022020	080302	183.40	12.870843	-57.119338	183.66	-0.840	1.340	3.020	183.54	-0.10	3.50	 	 	 	 	 	 	 	 	 	 	 	 	 	 	 	 	 	 	1581494582	6.54	12.11
12/02/2020 08:03:03	120220	12022020	080303	184.17	12.870813	-57.119347	184.42	-1.100	1.400	2.720	184.31	0.00	3.20	 	 	 	 	 	 	 	 	 	 	 	 	 	 	 	 	 	 	1581494583	6.57	12.17
12/02/2020 08:03:04	120220	12022020	080304	184.71	12.870783	-57.119357	184.88	-0.770	0.610	2.410	184.76	-0.70	2.90	 	 	 	 	 	 	 	 	 	 	 	 	 	 	 	 	 	 	1581494584	7.01	12.98
12/02/2020 08:03:05	120220	12022020	080305	184.77	12.870748	-57.119363	184.85	0.090	-0.650	2.240	184.73	-2.00	2.70	 	 	 	 	 	 	 	 	 	 	 	 	 	 	 	 	 	 	1581494585	7.62	14.11
12/02/2020 08:03:06	120220	12022020	080306	184.61	12.870710	-57.119370	184.73	0.930	-1.500	1.970	184.61	-2.90	2.50	 	 	 	 	 	 	 	 	 	 	 	 	 	 	 	 	 	 	1581494586	8.07	14.95
12/02/2020 08:03:07	120220	12022020	080307	184.77	12.870675	-57.119372	184.97	1.160	-1.230	1.520	184.86	-2.60	2.10	 	 	 	 	 	 	 	 	 	 	 	 	 	 	 	 	 	 	1581494587	7.74	14.33
12/02/2020 08:03:08	120220	12022020	080308	185.14	12.870645	-57.119373	185.39	0.760	-0.330	1.010	185.23	-1.70	1.50	 	 	 	 	 	 	 	 	 	 	 	 	 	 	 	 	 	 	1581494588	6.54	12.11
12/02/2020 08:03:09	120220	12022020	080309	185.39	12.870617	-57.119373	185.44	0.260	-0.020	0.910	185.35	-1.40	1.40	 	 	 	 	 	 	 	 	 	 	 	 	 	 	 	 	 	 	1581494589	5.84	10.82
12/02/2020 08:03:10	120220	12022020	080310	185.03	12.870587	-57.119375	185.05	-0.070	-0.480	1.520	184.94	-1.80	2.00	 	 	 	 	 	 	 	 	 	 	 	 	 	 	 	 	 	 	1581494590	6.61	12.24
12/02/2020 08:03:11	120220	12022020	080311	184.58	12.870552	-57.119382	184.65	-0.370	-0.760	2.480	184.51	-2.10	2.90	 	 	 	 	 	 	 	 	 	 	 	 	 	 	 	 	 	 	1581494591	7.71	14.28
12/02/2020 08:03:12	120220	12022020	080312	184.37	12.870517	-57.119393	184.51	-0.730	-0.290	3.180	184.36	-1.70	3.70	 	 	 	 	 	 	 	 	 	 	 	 	 	 	 	 	 	 	1581494592	7.87	14.58
12/02/2020 08:03:13	120220	12022020	080313	184.42	12.870485	-57.119407	184.63	-0.970	0.460	3.360	184.45	-1.00	3.90	 	 	 	 	 	 	 	 	 	 	 	 	 	 	 	 	 	 	1581494593	7.23	13.39
12/02/2020 08:03:14	120220	12022020	080314	184.60	12.870455	-57.119418	184.80	-0.780	0.740	3.000	184.65	-0.60	3.50	 	 	 	 	 	 	 	 	 	 	 	 	 	 	 	 	 	 	1581494594	6.81	12.61
12/02/2020 08:03:15	120220	12022020	080315	184.88	12.870423	-57.119425	185.10	-0.110	0.410	2.110	184.97	-1.00	2.70	 	 	 	 	 	 	 	 	 	 	 	 	 	 	 	 	 	 	1581494595	7.04	13.04
12/02/2020 08:03:16	120220	12022020	080316	185.35	12.870390	-57.119428	185.57	0.620	-0.100	0.970	185.45	-1.50	1.50	 	 	 	 	 	 	 	 	 	 	 	 	 	 	 	 	 	 	1581494596	7.49	13.87
12/02/2020 08:03:17	120220	12022020	080317	185.79	12.870355	-57.119428	185.96	0.900	-0.410	0.290	185.84	-1.80	0.80	 	 	 	 	 	 	 	 	 	 	 	 	 	 	 	 	 	 	1581494597	7.49	13.87
12/02/2020 08:03:18	120220	12022020	080318	185.86	12.870322	-57.119428	185.91	0.670	-0.580	0.450	185.80	-1.90	0.90	 	 	 	 	 	 	 	 	 	 	 	 	 	 	 	 	 	 	1581494598	7.02	13.00
12/02/2020 08:03:19	120220	12022020	080319	185.35	12.870292	-57.119433	185.31	0.280	-0.840	1.250	185.20	-2.20	1.70	 	 	 	 	 	 	 	 	 	 	 	 	 	 	 	 	 	 	1581494599	6.73	12.46
12/02/2020 08:03:20	120220	12022020	080320	184.74	12.870258	-57.119442	184.62	0.060	-0.910	2.090	184.61	-2.30	2.60	 	 	 	 	 	 	 	 	 	 	 	 	 	 	 	 	 	 	1581494600	7.09	13.13
12/02/2020 08:03:21	120220	12022020	080321	184.25	12.870227	-57.119452	184.40	-0.100	-0.530	2.610	184.24	-1.90	3.10	 	 	 	 	 	 	 	 	 	 	 	 	 	 	 	 	 	 	1581494601	7.31	13.54
12/02/2020 08:03:22	120220	12022020	080322	184.36	12.870195	-57.119463	184.69	-0.280	0.030	2.820	184.44	-1.40	3.30	 	 	 	 	 	 	 	 	 	 	 	 	 	 	 	 	 	 	1581494602	7.05	13.06
12/02/2020 08:03:23	120220	12022020	080323	184.95	12.870165	-57.119472	185.22	-0.400	0.380	2.720	185.05	-1.00	3.20	 	 	 	 	 	 	 	 	 	 	 	 	 	 	 	 	 	 	1581494603	6.83	12.65
12/02/2020 08:03:24	120220	12022020	080324	185.44	12.870135	-57.119480	185.66	-0.330	0.280	2.390	185.52	-1.10	2.90	 	 	 	 	 	 	 	 	 	 	 	 	 	 	 	 	 	 	1581494604	6.86	12.70
12/02/2020 08:03:25	120220	12022020	080325	185.68	12.870102	-57.119487	185.83	-0.090	-0.170	2.020	185.69	-1.50	2.50	 	 	 	 	 	 	 	 	 	 	 	 	 	 	 	 	 	 	1581494605	7.14	13.22
12/02/2020 08:03:26	120220	12022020	080326	185.59	12.870067	-57.119492	185.66	0.170	-0.560	1.930	185.53	-1.90	2.40	 	 	 	 	 	 	 	 	 	 	 	 	 	 	 	 	 	 	1581494606	7.40	13.70
12/02/2020 08:03:27	120220	12022020	080327	185.24	12.870033	-57.119495	185.26	0.250	-0.660	2.040	185.14	-2.00	2.60	 	 	 	 	 	 	 	 	 	 	 	 	 	 	 	 	 	 	1581494607	7.33	13.58
12/02/2020 08:03:28	120220	12022020	080328	184.71	12.870002	-57.119500	184.73	0.120	-0.560	2.230	184.60	-2.00	2.70	 	 	 	 	 	 	 	 	 	 	 	 	 	 	 	 	 	 	1581494608	7.10	13.15
12/02/2020 08:03:29	120220	12022020	080329	184.26	12.869968	-57.119507	184.34	-0.120	-0.280	2.450	184.21	-1.70	3.00	 	 	 	 	 	 	 	 	 	 	 	 	 	 	 	 	 	 	1581494609	7.06	13.08
12/02/2020 08:03:30	120220	12022020	080330	184.20	12.869937	-57.119515	184.38	-0.290	0.290	2.410	184.26	-1.10	2.90	 	 	 	 	 	 	 	 	 	 	 	 	 	 	 	 	 	 	1581494610	7.04	13.04
12/02/2020 08:03:31	120220	12022020	080331	184.68	12.869907	-57.119523	184.93	-0.240	0.830	1.830	184.82	-0.60	2.40	 	 	 	 	 	 	 	 	 	 	 	 	 	 	 	 	 	 	1581494611	6.71	12.43
12/02/2020 08:03:32	120220	12022020	080332	185.31	12.869878	-57.119530	185.51	0.090	0.630	1.200	185.40	-0.70	1.70	 	 	 	 	 	 	 	 	 	 	 	 	 	 	 	 	 	 	1581494612	6.42	11.89
12/02/2020 08:03:33	120220	12022020	080333	185.47	12.869845	-57.119533	185.56	0.530	-0.440	1.220	185.43	-1.80	1.70	 	 	 	 	 	 	 	 	 	 	 	 	 	 	 	 	 	 	1581494613	6.92	12.82
12/02/2020 08:03:34	120220	12022020	080334	185.20	12.869810	-57.119538	185.29	0.650	-1.460	1.710	185.14	-2.80	2.20	 	 	 	 	 	 	 	 	 	 	 	 	 	 	 	 	 	 	1581494614	7.85	14.54
12/02/2020 08:03:35	120220	12022020	080335	185.01	12.869773	-57.119545	185.14	0.240	-1.430	2.150	185.01	-2.80	2.60	 	 	 	 	 	 	 	 	 	 	 	 	 	 	 	 	 	 	1581494615	7.98	14.78
12/02/2020 08:03:36	120220	12022020	080336	185.09	12.869742	-57.119553	185.28	-0.400	-0.460	2.410	185.13	-1.90	2.90	 	 	 	 	 	 	 	 	 	 	 	 	 	 	 	 	 	 	1581494616	7.06	13.08
12/02/2020 08:03:37	120220	12022020	080337	185.32	12.869713	-57.119562	185.50	-0.760	0.400	2.440	185.37	-1.00	2.90	 	 	 	 	 	 	 	 	 	 	 	 	 	 	 	 	 	 	1581494617	6.16	11.41
12/02/2020 08:03:38	120220	12022020	080338	185.46	12.869687	-57.119570	185.58	-0.510	0.350	2.270	185.45	-1.00	2.80	 	 	 	 	 	 	 	 	 	 	 	 	 	 	 	 	 	 	1581494618	6.27	11.61
12/02/2020 08:03:39	120220	12022020	080339	185.32	12.869653	-57.119577	185.42	0.130	-0.280	2.120	185.29	-1.60	2.60	 	 	 	 	 	 	 	 	 	 	 	 	 	 	 	 	 	 	1581494619	7.26	13.45
12/02/2020 08:03:40	120220	12022020	080340	185.22	12.869617	-57.119582	185.35	0.570	-0.600	1.950	185.22	-2.00	2.50	 	 	 	 	 	 	 	 	 	 	 	 	 	 	 	 	 	 	1581494620	7.97	14.76
12/02/2020 08:03:41	120220	12022020	080341	185.25	12.869580	-57.119585	185.38	0.490	-0.370	1.910	185.26	-1.70	2.40	 	 	 	 	 	 	 	 	 	 	 	 	 	 	 	 	 	 	1581494621	7.63	14.13
12/02/2020 08:03:42	120220	12022020	080342	185.23	12.869548	-57.119590	185.32	0.050	-0.010	2.150	185.18	-1.40	2.60	 	 	 	 	 	 	 	 	 	 	 	 	 	 	 	 	 	 	1581494622	6.94	12.85
12/02/2020 08:03:43	120220	12022020	080343	184.91	12.869518	-57.119597	184.99	-0.390	0.140	2.640	184.85	-1.20	3.10	 	 	 	 	 	 	 	 	 	 	 	 	 	 	 	 	 	 	1581494623	6.78	12.56
12/02/2020 08:03:44	120220	12022020	080344	184.76	12.869487	-57.119605	184.96	-0.710	0.340	2.930	184.77	-1.00	3.40	 	 	 	 	 	 	 	 	 	 	 	 	 	 	 	 	 	 	1581494624	7.14	13.22
12/02/2020 08:03:45	120220	12022020	080345	185.12	12.869455	-57.119617	185.35	-0.760	0.470	2.720	185.22	-0.90	3.20	 	 	 	 	 	 	 	 	 	 	 	 	 	 	 	 	 	 	1581494625	7.05	13.06
12/02/2020 08:03:46	120220	12022020	080346	185.60	12.869425	-57.119627	185.80	-0.420	0.180	2.160	185.69	-1.20	2.70	 	 	 	 	 	 	 	 	 	 	 	 	 	 	 	 	 	 	1581494626	6.88	12.74
12/02/2020 08:03:47	120220	12022020	080347	185.93	12.869393	-57.119635	186.07	0.280	-0.420	1.470	185.97	-1.70	2.00	 	 	 	 	 	 	 	 	 	 	 	 	 	 	 	 	 	 	1581494627	7.10	13.15
12/02/2020 08:03:48	120220	12022020	080348	186.09	12.869358	-57.119638	186.20	1.030	-0.930	0.650	186.10	-2.30	1.20	 	 	 	 	 	 	 	 	 	 	 	 	 	 	 	 	 	 	1581494628	7.34	13.59
12/02/2020 08:03:49	120220	12022020	080349	186.01	12.869325	-57.119638	186.04	1.400	-1.260	0.260	185.94	-2.60	0.80	 	 	 	 	 	 	 	 	 	 	 	 	 	 	 	 	 	 	1581494629	7.36	13.63
12/02/2020 08:03:50	120220	12022020	080350	185.53	12.869290	-57.119638	185.51	1.100	-1.250	0.740	185.41	-2.60	1.20	 	 	 	 	 	 	 	 	 	 	 	 	 	 	 	 	 	 	1581494630	7.36	13.63
12/02/2020 08:03:51	120220	12022020	080351	185.00	12.869257	-57.119640	185.05	0.170	-0.660	1.610	184.92	-2.10	2.10	 	 	 	 	 	 	 	 	 	 	 	 	 	 	 	 	 	 	1581494631	7.23	13.39
12/02/2020 08:03:52	120220	12022020	080352	184.70	12.869225	-57.119648	184.82	-0.960	0.260	2.570	184.67	-1.10	3.00	 	 	 	 	 	 	 	 	 	 	 	 	 	 	 	 	 	 	1581494632	6.91	12.80
12/02/2020 08:03:53	120220	12022020	080353	184.69	12.869197	-57.119662	184.89	-1.620	0.880	3.340	184.73	-0.50	3.80	 	 	 	 	 	 	 	 	 	 	 	 	 	 	 	 	 	 	1581494633	6.94	12.85
12/02/2020 08:03:54	120220	12022020	080354	184.97	12.869167	-57.119678	185.22	-1.450	0.850	3.500	185.05	-0.50	4.00	 	 	 	 	 	 	 	 	 	 	 	 	 	 	 	 	 	 	1581494634	7.42	13.74
12/02/2020 08:03:55	120220	12022020	080355	185.40	12.869133	-57.119693	185.65	-0.610	0.370	2.980	185.49	-1.00	3.50	 	 	 	 	 	 	 	 	 	 	 	 	 	 	 	 	 	 	1581494635	7.72	14.30
12/02/2020 08:03:56	120220	12022020	080356	185.80	12.869098	-57.119702	186.01	0.270	-0.170	2.120	185.87	-1.50	2.70	 	 	 	 	 	 	 	 	 	 	 	 	 	 	 	 	 	 	1581494636	7.71	14.28
12/02/2020 08:03:57	120220	12022020	080357	186.09	12.869063	-57.119705	186.24	0.710	-0.520	1.240	186.13	-1.90	1.80	 	 	 	 	 	 	 	 	 	 	 	 	 	 	 	 	 	 	1581494637	7.49	13.87
12/02/2020 08:03:58	120220	12022020	080358	186.25	12.869030	-57.119707	186.38	0.710	-0.580	0.590	186.27	-1.90	1.10	 	 	 	 	 	 	 	 	 	 	 	 	 	 	 	 	 	 	1581494638	7.17	13.28
12/02/2020 08:03:59	120220	12022020	080359	186.29	12.868998	-57.119707	186.33	0.580	-0.580	0.380	186.24	-2.00	0.90	 	 	 	 	 	 	 	 	 	 	 	 	 	 	 	 	 	 	1581494639	6.83	12.65
12/02/2020 08:04:00	120220	12022020	080400	185.93	12.868967	-57.119708	185.93	0.490	-0.680	0.780	185.84	-2.00	1.30	 	 	 	 	 	 	 	 	 	 	 	 	 	 	 	 	 	 	1581494640	6.80	12.59
12/02/2020 08:04:01	120220	12022020	080401	185.43	12.868933	-57.119713	185.44	0.250	-0.670	1.560	185.34	-2.00	2.00	1014.80	26.20	26.20	20.50	20.60	-1.0	71.0	71.0	398.0	25.8	276.00	10.70	82.00	10.90	16	10000.0	27.3	27.3	1581494641	7.11	13.17
12/02/2020 08:04:02	120220	12022020	080402	185.02	12.868902	-57.119722	185.08	-0.170	-0.480	2.310	184.96	-1.90	2.80	 	 	 	 	 	 	 	 	 	 	 	 	 	 	 	 	 	 	1581494642	7.26	13.45
12/02/2020 08:04:03	120220	12022020	080403	184.73	12.868868	-57.119732	184.81	-0.530	-0.320	2.960	184.68	-1.70	3.40	 	 	 	 	 	 	 	 	 	 	 	 	 	 	 	 	 	 	1581494643	7.34	13.59
12/02/2020 08:04:04	120220	12022020	080404	184.49	12.868835	-57.119745	184.61	-0.550	-0.270	3.460	184.46	-1.60	3.90	 	 	 	 	 	 	 	 	 	 	 	 	 	 	 	 	 	 	1581494644	7.60	14.08
12/02/2020 08:04:05	120220	12022020	080405	184.45	12.868802	-57.119758	184.63	-0.290	0.050	3.360	184.49	-1.30	3.90	 	 	 	 	 	 	 	 	 	 	 	 	 	 	 	 	 	 	1581494645	7.85	14.54
12/02/2020 08:04:06	120220	12022020	080406	184.89	12.868768	-57.119768	185.19	-0.040	0.840	2.500	185.05	-0.60	3.00	 	 	 	 	 	 	 	 	 	 	 	 	 	 	 	 	 	 	1581494646	7.34	13.59
12/02/2020 08:04:07	120220	12022020	080407	185.76	12.868738	-57.119772	186.08	-0.030	1.420	1.340	185.95	0.10	1.90	 	 	 	 	 	 	 	 	 	 	 	 	 	 	 	 	 	 	1581494647	6.40	11.85
12/02/2020 08:04:08	120220	12022020	080408	186.61	12.868710	-57.119772	186.85	-0.100	0.940	0.480	186.74	-0.40	1.00	 	 	 	 	 	 	 	 	 	 	 	 	 	 	 	 	 	 	1581494648	6.14	11.37
12/02/2020 08:04:09	120220	12022020	080409	186.96	12.868678	-57.119772	187.05	0.030	-0.620	0.410	186.94	-1.90	0.90	 	 	 	 	 	 	 	 	 	 	 	 	 	 	 	 	 	 	1581494649	6.86	12.70
12/02/2020 08:04:10	120220	12022020	080410	186.64	12.868642	-57.119778	186.44	0.390	-2.440	1.350	186.48	-3.70	1.80	 	 	 	 	 	 	 	 	 	 	 	 	 	 	 	 	 	 	1581494650	7.89	14.61
12/02/2020 08:04:11	120220	12022020	080411	185.36	12.868603	-57.119788	185.29	0.740	-3.250	2.730	185.12	-4.60	3.20	 	 	 	 	 	 	 	 	 	 	 	 	 	 	 	 	 	 	1581494651	8.59	15.91
12/02/2020 08:04:12	120220	12022020	080412	184.42	12.868567	-57.119800	184.24	0.750	-2.290	3.780	184.22	-3.70	4.30	 	 	 	 	 	 	 	 	 	 	 	 	 	 	 	 	 	 	1581494652	8.27	15.32
12/02/2020 08:04:13	120220	12022020	080413	183.54	12.868537	-57.119812	183.67	0.350	-0.170	3.970	183.49	-1.60	4.50	 	 	 	 	 	 	 	 	 	 	 	 	 	 	 	 	 	 	1581494653	7.01	12.98
12/02/2020 08:04:14	120220	12022020	080414	183.63	12.868510	-57.119817	183.89	-0.280	1.790	3.130	183.73	0.40	3.70	 	 	 	 	 	 	 	 	 	 	 	 	 	 	 	 	 	 	1581494654	5.93	10.98
12/02/2020 08:04:15	120220	12022020	080415	184.36	12.868482	-57.119818	184.65	-0.820	2.500	1.840	184.54	1.10	2.40	 	 	 	 	 	 	 	 	 	 	 	 	 	 	 	 	 	 	1581494655	5.89	10.91
12/02/2020 08:04:16	120220	12022020	080416	185.09	12.868450	-57.119818	185.26	-0.940	1.630	0.970	185.18	0.40	1.50	 	 	 	 	 	 	 	 	 	 	 	 	 	 	 	 	 	 	1581494656	6.74	12.48
12/02/2020 08:04:17	120220	12022020	080417	185.26	12.868413	-57.119822	185.33	-0.580	-0.110	0.960	185.23	-1.40	1.50	 	 	 	 	 	 	 	 	 	 	 	 	 	 	 	 	 	 	1581494657	7.95	14.72
12/02/2020 08:04:18	120220	12022020	080418	184.96	12.868375	-57.119832	185.02	-0.050	-1.320	1.430	184.90	-2.60	1.90	 	 	 	 	 	 	 	 	 	 	 	 	 	 	 	 	 	 	1581494658	8.72	16.15
12/02/2020 08:04:19	120220	12022020	080419	184.76	12.868338	-57.119842	184.90	0.280	-1.230	1.780	184.77	-2.60	2.30	 	 	 	 	 	 	 	 	 	 	 	 	 	 	 	 	 	 	1581494659	8.21	15.20
12/02/2020 08:04:20	120220	12022020	080420	184.95	12.868308	-57.119852	185.11	0.340	-0.500	1.770	185.00	-1.80	2.30	 	 	 	 	 	 	 	 	 	 	 	 	 	 	 	 	 	 	1581494660	6.77	12.54
12/02/2020 08:04:21	120220	12022020	080421	185.15	12.868282	-57.119858	185.29	0.420	-0.070	1.600	185.15	-1.40	2.10	 	 	 	 	 	 	 	 	 	 	 	 	 	 	 	 	 	 	1581494661	5.88	10.89
12/02/2020 08:04:22	120220	12022020	080422	185.07	12.868252	-57.119862	185.19	0.650	-0.480	1.520	185.04	-1.80	2.00	 	 	 	 	 	 	 	 	 	 	 	 	 	 	 	 	 	 	1581494662	6.37	11.80
12/02/2020 08:04:23	120220	12022020	080423	184.88	12.868217	-57.119865	184.98	0.810	-0.920	1.440	184.84	-2.30	2.00	 	 	 	 	 	 	 	 	 	 	 	 	 	 	 	 	 	 	1581494663	7.39	13.69
12/02/2020 08:04:24	120220	12022020	080424	184.64	12.868182	-57.119867	184.74	0.620	-0.870	1.530	184.59	-2.20	2.00	 	 	 	 	 	 	 	 	 	 	 	 	 	 	 	 	 	 	1581494664	7.62	14.11
12/02/2020 08:04:25	120220	12022020	080425	184.40	12.868148	-57.119870	184.54	0.080	-0.550	1.890	184.37	-1.90	2.40	 	 	 	 	 	 	 	 	 	 	 	 	 	 	 	 	 	 	1581494665	7.23	13.39
12/02/2020 08:04:26	120220	12022020	080426	184.29	12.868115	-57.119875	184.46	-0.590	-0.250	2.400	184.27	-1.60	2.90	 	 	 	 	 	 	 	 	 	 	 	 	 	 	 	 	 	 	1581494666	7.12	13.19
12/02/2020 08:04:27	120220	12022020	080427	184.29	12.868083	-57.119885	184.49	-1.050	0.070	2.940	184.31	-1.30	3.40	 	 	 	 	 	 	 	 	 	 	 	 	 	 	 	 	 	 	1581494667	7.40	13.70
12/02/2020 08:04:28	120220	12022020	080428	184.52	12.868050	-57.119898	184.80	-1.050	0.510	3.130	184.61	-0.90	3.70	 	 	 	 	 	 	 	 	 	 	 	 	 	 	 	 	 	 	1581494668	7.61	14.09
12/02/2020 08:04:29	120220	12022020	080429	185.01	12.868018	-57.119910	185.28	-0.550	0.760	2.720	185.10	-0.60	3.30	 	 	 	 	 	 	 	 	 	 	 	 	 	 	 	 	 	 	1581494669	7.30	13.52
12/02/2020 08:04:30	120220	12022020	080430	185.28	12.867987	-57.119917	185.43	0.200	0.260	2.110	185.26	-1.10	2.60	 	 	 	 	 	 	 	 	 	 	 	 	 	 	 	 	 	 	1581494670	7.01	12.98
12/02/2020 08:04:31	120220	12022020	080431	184.98	12.867950	-57.119920	185.03	0.760	-0.670	1.870	184.87	-2.00	2.40	 	 	 	 	 	 	 	 	 	 	 	 	 	 	 	 	 	 	1581494671	7.66	14.19
12/02/2020 08:04:32	120220	12022020	080432	184.56	12.867912	-57.119922	184.69	0.680	-0.870	1.830	184.54	-2.20	2.40	 	 	 	 	 	 	 	 	 	 	 	 	 	 	 	 	 	 	1581494672	8.21	15.20
12/02/2020 08:04:33	120220	12022020	080433	184.75	12.867878	-57.119925	185.03	-0.050	0.090	1.700	184.88	-1.30	2.20	 	 	 	 	 	 	 	 	 	 	 	 	 	 	 	 	 	 	1581494673	7.44	13.78
12/02/2020 08:04:34	120220	12022020	080434	185.54	12.867852	-57.119932	185.86	-0.750	1.090	1.490	185.71	-0.30	2.00	 	 	 	 	 	 	 	 	 	 	 	 	 	 	 	 	 	 	1581494674	5.97	11.06
12/02/2020 08:04:35	120220	12022020	080435	186.21	12.867827	-57.119942	186.43	-0.620	0.660	1.290	186.29	-0.60	1.80	 	 	 	 	 	 	 	 	 	 	 	 	 	 	 	 	 	 	1581494675	5.75	10.65
12/02/2020 08:04:36	120220	12022020	080436	186.35	12.867793	-57.119952	186.42	0.470	-1.050	1.190	186.32	-2.30	1.70	 	 	 	 	 	 	 	 	 	 	 	 	 	 	 	 	 	 	1581494676	7.16	13.26
12/02/2020 08:04:37	120220	12022020	080437	185.99	12.867755	-57.119958	186.08	1.560	-2.230	1.300	185.92	-3.50	1.80	 	 	 	 	 	 	 	 	 	 	 	 	 	 	 	 	 	 	1581494677	8.65	16.02
12/02/2020 08:04:38	120220	12022020	080438	185.72	12.867715	-57.119962	185.85	1.590	-1.780	1.420	185.70	-3.20	1.90	 	 	 	 	 	 	 	 	 	 	 	 	 	 	 	 	 	 	1581494678	8.43	15.61
12/02/2020 08:04:39	120220	12022020	080439	185.74	12.867683	-57.119962	185.92	0.440	-0.430	1.570	185.76	-1.90	2.10	 	 	 	 	 	 	 	 	 	 	 	 	 	 	 	 	 	 	1581494679	6.97	12.91
12/02/2020 08:04:40	120220	12022020	080440	185.80	12.867655	-57.119965	185.94	-0.960	0.490	2.240	185.77	-0.90	2.70	 	 	 	 	 	 	 	 	 	 	 	 	 	 	 	 	 	 	1581494680	6.13	11.35
12/02/2020 08:04:41	120220	12022020	080441	185.55	12.867625	-57.119977	185.70	-1.610	0.600	3.110	185.48	-0.80	3.70	 	 	 	 	 	 	 	 	 	 	 	 	 	 	 	 	 	 	1581494681	6.88	12.74
12/02/2020 08:04:42	120220	12022020	080442	185.27	12.867590	-57.119992	185.43	-1.460	0.460	3.820	185.25	-0.90	4.30	 	 	 	 	 	 	 	 	 	 	 	 	 	 	 	 	 	 	1581494682	8.11	15.02
12/02/2020 08:04:43	120220	12022020	080443	185.23	12.867555	-57.120008	185.43	-0.870	0.420	3.740	185.25	-0.90	4.30	 	 	 	 	 	 	 	 	 	 	 	 	 	 	 	 	 	 	1581494683	8.26	15.30
12/02/2020 08:04:44	120220	12022020	080444	185.31	12.867522	-57.120020	185.48	-0.200	0.260	2.990	185.32	-1.10	3.50	 	 	 	 	 	 	 	 	 	 	 	 	 	 	 	 	 	 	1581494684	7.75	14.35
12/02/2020 08:04:45	120220	12022020	080445	185.33	12.867487	-57.120028	185.45	0.430	-0.070	1.890	185.32	-1.40	2.50	 	 	 	 	 	 	 	 	 	 	 	 	 	 	 	 	 	 	1581494685	7.48	13.85
12/02/2020 08:04:46	120220	12022020	080446	185.32	12.867452	-57.120030	185.41	0.940	-0.320	0.660	185.32	-1.70	1.20	 	 	 	 	 	 	 	 	 	 	 	 	 	 	 	 	 	 	1581494686	7.46	13.82
12/02/2020 08:04:47	120220	12022020	080447	185.39	12.867418	-57.120028	185.50	1.060	-0.420	-0.210	185.41	-1.80	0.40	 	 	 	 	 	 	 	 	 	 	 	 	 	 	 	 	 	 	1581494687	7.38	13.67
12/02/2020 08:04:48	120220	12022020	080448	185.43	12.867385	-57.120025	185.50	0.700	-0.550	-0.140	185.43	-1.90	0.40	 	 	 	 	 	 	 	 	 	 	 	 	 	 	 	 	 	 	1581494688	7.13	13.20
12/02/2020 08:04:49	120220	12022020	080449	185.24	12.867352	-57.120028	185.27	0.140	-0.810	0.790	185.17	-2.10	1.30	 	 	 	 	 	 	 	 	 	 	 	 	 	 	 	 	 	 	1581494689	7.03	13.02
12/02/2020 08:04:50	120220	12022020	080450	184.90	12.867320	-57.120037	184.85	-0.240	-0.980	2.110	184.80	-2.30	2.60	 	 	 	 	 	 	 	 	 	 	 	 	 	 	 	 	 	 	1581494690	7.41	13.72
12/02/2020 08:04:51	120220	12022020	080451	184.35	12.867285	-57.120052	184.45	-0.300	-0.750	3.190	184.29	-2.10	3.70	 	 	 	 	 	 	 	 	 	 	 	 	 	 	 	 	 	 	1581494691	7.79	14.43
12/02/2020 08:04:52	120220	12022020	080452	184.17	12.867253	-57.120067	184.36	-0.140	-0.090	3.630	184.18	-1.50	4.10	 	 	 	 	 	 	 	 	 	 	 	 	 	 	 	 	 	 	1581494692	7.69	14.24
12/02/2020 08:04:53	120220	12022020	080453	184.31	12.867222	-57.120077	184.53	0.060	0.470	3.510	184.36	-0.90	4.00	 	 	 	 	 	 	 	 	 	 	 	 	 	 	 	 	 	 	1581494693	7.14	13.22
12/02/2020 08:04:54	120220	12022020	080454	184.54	12.867190	-57.120083	184.75	0.150	0.520	3.130	184.58	-0.80	3.70	 	 	 	 	 	 	 	 	 	 	 	 	 	 	 	 	 	 	1581494694	6.94	12.85
12/02/2020 08:04:55	120220	12022020	080455	184.70	12.867157	-57.120088	184.89	0.060	0.210	2.650	184.73	-1.10	3.20	 	 	 	 	 	 	 	 	 	 	 	 	 	 	 	 	 	 	1581494695	7.29	13.50
12/02/2020 08:04:56	120220	12022020	080456	184.80	12.867122	-57.120090	184.96	-0.160	-0.180	2.160	184.80	-1.50	2.70	 	 	 	 	 	 	 	 	 	 	 	 	 	 	 	 	 	 	1581494696	7.48	13.85
12/02/2020 08:04:57	120220	12022020	080457	184.75	12.867087	-57.120095	184.88	-0.320	-0.600	1.830	184.72	-1.90	2.40	 	 	 	 	 	 	 	 	 	 	 	 	 	 	 	 	 	 	1581494697	7.44	13.78
12/02/2020 08:04:58	120220	12022020	080458	184.62	12.867053	-57.120100	184.75	-0.270	-0.890	1.620	184.60	-2.20	2.20	 	 	 	 	 	 	 	 	 	 	 	 	 	 	 	 	 	 	1581494698	7.50	13.89
12/02/2020 08:04:59	120220	12022020	080459	184.59	12.867018	-57.120107	184.76	-0.090	-0.830	1.460	184.60	-2.20	2.00	 	 	 	 	 	 	 	 	 	 	 	 	 	 	 	 	 	 	1581494699	7.44	13.78
12/02/2020 08:05:00	120220	12022020	080500	184.65	12.866987	-57.120112	184.84	0.110	-0.590	1.370	184.66	-1.90	1.90	 	 	 	 	 	 	 	 	 	 	 	 	 	 	 	 	 	 	1581494700	7.14	13.22
12/02/2020 08:05:01	120220	12022020	080501	184.72	12.866953	-57.120117	184.86	0.350	-0.570	1.220	184.71	-1.90	1.80	1015.00	26.20	26.20	20.50	20.50	-1.0	71.0	70.0	399.0	25.8	273.00	10.60	78.00	11.00	16	9808.0	27.4	27.3	1581494701	7.07	13.09
12/02/2020 08:05:02	120220	12022020	080502	184.65	12.866918	-57.120122	184.75	0.600	-0.660	1.110	184.63	-2.00	1.60	 	 	 	 	 	 	 	 	 	 	 	 	 	 	 	 	 	 	1581494702	7.52	13.93
12/02/2020 08:05:03	120220	12022020	080503	184.63	12.866883	-57.120127	184.80	0.550	-0.080	1.110	184.66	-1.50	1.60	 	 	 	 	 	 	 	 	 	 	 	 	 	 	 	 	 	 	1581494703	7.86	14.56
12/02/2020 08:05:04	120220	12022020	080504	184.90	12.866850	-57.120128	185.09	-0.040	1.010	1.360	184.98	-0.30	1.90	 	 	 	 	 	 	 	 	 	 	 	 	 	 	 	 	 	 	1581494704	7.16	13.26
12/02/2020 08:05:05	120220	12022020	080505	185.31	12.866822	-57.120133	185.54	-1.050	1.860	1.920	185.38	0.50	2.40	 	 	 	 	 	 	 	 	 	 	 	 	 	 	 	 	 	 	1581494705	6.15	11.39
12/02/2020 08:05:06	120220	12022020	080506	185.54	12.866793	-57.120143	185.71	-1.380	1.230	2.430	185.53	-0.20	3.00	 	 	 	 	 	 	 	 	 	 	 	 	 	 	 	 	 	 	1581494706	6.38	11.82
12/02/2020 08:05:07	120220	12022020	080507	185.31	12.866760	-57.120158	185.44	-0.710	-0.740	2.980	185.21	-2.20	3.50	 	 	 	 	 	 	 	 	 	 	 	 	 	 	 	 	 	 	1581494707	7.91	14.65
12/02/2020 08:05:08	120220	12022020	080508	184.83	12.866718	-57.120173	184.93	0.660	-2.450	3.080	184.76	-3.70	3.60	 	 	 	 	 	 	 	 	 	 	 	 	 	 	 	 	 	 	1581494708	9.26	17.15
12/02/2020 08:05:09	120220	12022020	080509	184.68	12.866678	-57.120182	184.86	1.310	-2.080	2.480	184.71	-3.40	3.10	 	 	 	 	 	 	 	 	 	 	 	 	 	 	 	 	 	 	1581494709	8.75	16.21
12/02/2020 08:05:10	120220	12022020	080510	184.97	12.866648	-57.120185	185.18	0.940	-0.460	1.490	185.05	-1.90	2.10	 	 	 	 	 	 	 	 	 	 	 	 	 	 	 	 	 	 	1581494710	6.76	12.52
12/02/2020 08:05:11	120220	12022020	080511	185.37	12.866622	-57.120185	185.55	0.160	0.800	0.600	185.44	-0.60	1.20	 	 	 	 	 	 	 	 	 	 	 	 	 	 	 	 	 	 	1581494711	5.43	10.06
12/02/2020 08:05:12	120220	12022020	080512	185.57	12.866595	-57.120183	185.67	-0.290	0.840	0.300	185.58	-0.50	0.90	 	 	 	 	 	 	 	 	 	 	 	 	 	 	 	 	 	 	1581494712	5.81	10.76
12/02/2020 08:05:13	120220	12022020	080513	185.46	12.866562	-57.120187	185.51	-0.240	-0.050	0.640	185.40	-1.30	1.20	 	 	 	 	 	 	 	 	 	 	 	 	 	 	 	 	 	 	1581494713	7.11	13.17
12/02/2020 08:05:14	120220	12022020	080514	185.07	12.866525	-57.120193	185.11	-0.080	-0.910	1.540	184.97	-2.20	2.00	 	 	 	 	 	 	 	 	 	 	 	 	 	 	 	 	 	 	1581494714	8.20	15.19
12/02/2020 08:05:15	120220	12022020	080515	184.63	12.866487	-57.120202	184.73	-0.220	-1.050	2.670	184.57	-2.40	3.10	 	 	 	 	 	 	 	 	 	 	 	 	 	 	 	 	 	 	1581494715	8.38	15.52
12/02/2020 08:05:16	120220	12022020	080516	184.41	12.866452	-57.120215	184.60	-0.580	-0.550	3.560	184.40	-1.80	4.10	 	 	 	 	 	 	 	 	 	 	 	 	 	 	 	 	 	 	1581494716	7.93	14.69
12/02/2020 08:05:17	120220	12022020	080517	184.50	12.866422	-57.120230	184.75	-0.800	0.390	3.880	184.56	-1.00	4.40	 	 	 	 	 	 	 	 	 	 	 	 	 	 	 	 	 	 	1581494717	7.41	13.72
12/02/2020 08:05:18	120220	12022020	080518	184.93	12.866392	-57.120243	185.21	-0.460	0.960	3.050	185.06	-0.40	3.60	 	 	 	 	 	 	 	 	 	 	 	 	 	 	 	 	 	 	1581494718	6.87	12.72
12/02/2020 08:05:19	120220	12022020	080519	185.61	12.866362	-57.120248	185.86	0.110	0.830	1.640	185.75	-0.50	2.30	 	 	 	 	 	 	 	 	 	 	 	 	 	 	 	 	 	 	1581494719	6.64	12.30
12/02/2020 08:05:20	120220	12022020	080520	186.17	12.866328	-57.120248	186.30	0.440	0.180	0.630	186.23	-1.20	1.10	 	 	 	 	 	 	 	 	 	 	 	 	 	 	 	 	 	 	1581494720	7.08	13.11
12/02/2020 08:05:21	120220	12022020	080521	186.26	12.866293	-57.120248	186.32	0.490	-0.760	0.260	186.21	-2.10	0.80	 	 	 	 	 	 	 	 	 	 	 	 	 	 	 	 	 	 	1581494721	7.45	13.80
12/02/2020 08:05:22	120220	12022020	080522	185.86	12.866258	-57.120252	185.83	0.430	-1.470	0.560	185.74	-2.80	1.10	 	 	 	 	 	 	 	 	 	 	 	 	 	 	 	 	 	 	1581494722	7.58	14.04
12/02/2020 08:05:23	120220	12022020	080523	185.22	12.866225	-57.120258	185.25	0.440	-1.500	1.150	185.09	-2.80	1.70	 	 	 	 	 	 	 	 	 	 	 	 	 	 	 	 	 	 	1581494723	7.46	13.82
12/02/2020 08:05:24	120220	12022020	080524	184.75	12.866192	-57.120265	184.75	0.390	-0.930	1.870	184.66	-2.20	2.40	 	 	 	 	 	 	 	 	 	 	 	 	 	 	 	 	 	 	1581494724	7.23	13.39
12/02/2020 08:05:25	120220	12022020	080525	184.48	12.866160	-57.120273	184.63	0.030	0.080	2.360	184.50	-1.30	2.90	 	 	 	 	 	 	 	 	 	 	 	 	 	 	 	 	 	 	1581494725	6.91	12.80
12/02/2020 08:05:26	120220	12022020	080526	184.70	12.866132	-57.120282	184.89	-0.430	0.800	2.410	184.77	-0.50	2.90	 	 	 	 	 	 	 	 	 	 	 	 	 	 	 	 	 	 	1581494726	6.68	12.37
12/02/2020 08:05:27	120220	12022020	080527	185.15	12.866102	-57.120292	185.34	-0.790	1.070	2.230	185.24	-0.30	2.70	 	 	 	 	 	 	 	 	 	 	 	 	 	 	 	 	 	 	1581494727	6.70	12.41
12/02/2020 08:05:28	120220	12022020	080528	185.58	12.866070	-57.120302	185.74	-0.630	0.550	1.910	185.63	-0.80	2.40	 	 	 	 	 	 	 	 	 	 	 	 	 	 	 	 	 	 	1581494728	7.07	13.09
12/02/2020 08:05:29	120220	12022020	080529	185.65	12.866035	-57.120310	185.75	0.140	-0.660	1.600	185.61	-1.90	2.10	 	 	 	 	 	 	 	 	 	 	 	 	 	 	 	 	 	 	1581494729	7.65	14.17
12/02/2020 08:05:30	120220	12022020	080530	185.35	12.865997	-57.120315	185.47	0.680	-1.360	1.590	185.29	-2.70	2.10	 	 	 	 	 	 	 	 	 	 	 	 	 	 	 	 	 	 	1581494730	8.17	15.13
12/02/2020 08:05:31	120220	12022020	080531	185.05	12.865962	-57.120318	185.20	0.600	-1.140	1.830	185.01	-2.40	2.40	 	 	 	 	 	 	 	 	 	 	 	 	 	 	 	 	 	 	1581494731	7.87	14.58
12/02/2020 08:05:32	120220	12022020	080532	184.93	12.865930	-57.120325	185.10	-0.100	-0.050	2.030	184.94	-1.40	2.50	 	 	 	 	 	 	 	 	 	 	 	 	 	 	 	 	 	 	1581494732	6.80	12.59
12/02/2020 08:05:33	120220	12022020	080533	185.05	12.865902	-57.120332	185.23	-0.600	0.680	1.880	185.09	-0.70	2.40	 	 	 	 	 	 	 	 	 	 	 	 	 	 	 	 	 	 	1581494733	6.12	11.33
12/02/2020 08:05:34	120220	12022020	080534	185.21	12.865873	-57.120338	185.37	-0.480	0.400	1.660	185.24	-0.90	2.20	 	 	 	 	 	 	 	 	 	 	 	 	 	 	 	 	 	 	1581494734	6.41	11.87
12/02/2020 08:05:35	120220	12022020	080535	185.25	12.865838	-57.120343	185.39	-0.040	-0.380	1.650	185.25	-1.80	2.20	 	 	 	 	 	 	 	 	 	 	 	 	 	 	 	 	 	 	1581494735	7.47	13.83
12/02/2020 08:05:36	120220	12022020	080536	185.21	12.865802	-57.120350	185.33	0.260	-0.940	1.840	185.20	-2.30	2.40	 	 	 	 	 	 	 	 	 	 	 	 	 	 	 	 	 	 	1581494736	8.15	15.09
12/02/2020 08:05:37	120220	12022020	080537	185.07	12.865767	-57.120358	185.20	0.100	-0.790	2.190	185.03	-2.10	2.70	 	 	 	 	 	 	 	 	 	 	 	 	 	 	 	 	 	 	1581494737	7.74	14.33
12/02/2020 08:05:38	120220	12022020	080538	184.84	12.865735	-57.120367	184.85	-0.170	-0.420	2.580	184.76	-1.70	3.10	 	 	 	 	 	 	 	 	 	 	 	 	 	 	 	 	 	 	1581494738	7.07	13.09
12/02/2020 08:05:39	120220	12022020	080539	184.23	12.865703	-57.120377	184.31	-0.060	-0.260	2.800	184.12	-1.60	3.30	 	 	 	 	 	 	 	 	 	 	 	 	 	 	 	 	 	 	1581494739	7.01	12.98
12/02/2020 08:05:40	120220	12022020	080540	183.82	12.865670	-57.120385	183.95	0.270	-0.060	2.750	183.80	-1.40	3.20	 	 	 	 	 	 	 	 	 	 	 	 	 	 	 	 	 	 	1581494740	7.35	13.61
12/02/2020 08:05:41	120220	12022020	080541	183.92	12.865637	-57.120388	184.11	0.340	0.310	2.300	184.00	-1.00	2.80	 	 	 	 	 	 	 	 	 	 	 	 	 	 	 	 	 	 	1581494741	7.30	13.52
12/02/2020 08:05:42	120220	12022020	080542	184.46	12.865605	-57.120392	184.66	0.040	0.640	1.690	184.60	-0.70	2.20	 	 	 	 	 	 	 	 	 	 	 	 	 	 	 	 	 	 	1581494742	6.97	12.91
12/02/2020 08:05:43	120220	12022020	080543	185.25	12.865573	-57.120395	185.46	-0.330	0.720	1.250	185.42	-0.60	1.80	 	 	 	 	 	 	 	 	 	 	 	 	 	 	 	 	 	 	1581494743	6.78	12.56
12/02/2020 08:05:44	120220	12022020	080544	186.09	12.865542	-57.120400	186.29	-0.350	0.350	1.000	186.23	-1.00	1.50	 	 	 	 	 	 	 	 	 	 	 	 	 	 	 	 	 	 	1581494744	6.74	12.48
12/02/2020 08:05:45	120220	12022020	080545	186.51	12.865510	-57.120407	186.64	0.070	-0.710	1.140	186.50	-2.10	1.70	 	 	 	 	 	 	 	 	 	 	 	 	 	 	 	 	 	 	1581494745	7.01	12.98
12/02/2020 08:05:46	120220	12022020	080546	186.14	12.865475	-57.120413	186.21	0.550	-1.930	1.860	185.97	-3.30	2.40	 	 	 	 	 	 	 	 	 	 	 	 	 	 	 	 	 	 	1581494746	7.74	14.33
12/02/2020 08:05:47	120220	12022020	080547	185.19	12.865438	-57.120423	185.26	0.600	-2.300	2.890	184.98	-3.60	3.50	 	 	 	 	 	 	 	 	 	 	 	 	 	 	 	 	 	 	1581494747	8.18	15.15
12/02/2020 08:05:48	120220	12022020	080548	184.27	12.865403	-57.120433	184.40	0.190	-1.430	3.520	184.13	-2.70	4.00	 	 	 	 	 	 	 	 	 	 	 	 	 	 	 	 	 	 	1581494748	7.72	14.30
12/02/2020 08:05:49	120220	12022020	080549	183.78	12.865373	-57.120443	183.95	-0.350	0.020	3.560	183.75	-1.20	4.10	 	 	 	 	 	 	 	 	 	 	 	 	 	 	 	 	 	 	1581494749	6.90	12.78
12/02/2020 08:05:50	120220	12022020	080550	183.82	12.865343	-57.120453	184.11	-0.630	1.220	3.030	183.89	-0.10	3.50	 	 	 	 	 	 	 	 	 	 	 	 	 	 	 	 	 	 	1581494750	6.51	12.06
12/02/2020 08:05:51	120220	12022020	080551	184.55	12.865313	-57.120460	184.79	-0.430	1.710	1.930	184.72	0.40	2.40	 	 	 	 	 	 	 	 	 	 	 	 	 	 	 	 	 	 	1581494751	6.67	12.35
12/02/2020 08:05:52	120220	12022020	080552	185.21	12.865282	-57.120462	185.54	0.110	1.300	0.780	185.36	-0.10	1.30	 	 	 	 	 	 	 	 	 	 	 	 	 	 	 	 	 	 	1581494752	7.05	13.06
12/02/2020 08:05:53	120220	12022020	080553	185.81	12.865245	-57.120462	185.95	0.570	0.100	0.340	185.86	-1.30	0.90	 	 	 	 	 	 	 	 	 	 	 	 	 	 	 	 	 	 	1581494753	7.66	14.19
12/02/2020 08:05:54	120220	12022020	080554	186.01	12.865207	-57.120463	186.14	0.540	-1.070	0.780	186.03	-2.40	1.30	 	 	 	 	 	 	 	 	 	 	 	 	 	 	 	 	 	 	1581494754	8.14	15.08
12/02/2020 08:05:55	120220	12022020	080555	186.14	12.865172	-57.120472	186.31	-0.020	-1.420	1.760	186.16	-2.70	2.30	 	 	 	 	 	 	 	 	 	 	 	 	 	 	 	 	 	 	1581494755	7.88	14.59
12/02/2020 08:05:56	120220	12022020	080556	186.07	12.865142	-57.120483	186.23	-0.630	-1.200	2.820	185.99	-2.50	3.40	 	 	 	 	 	 	 	 	 	 	 	 	 	 	 	 	 	 	1581494756	7.10	13.15
12/02/2020 08:05:57	120220	12022020	080557	185.43	12.865112	-57.120498	185.55	-0.690	-1.260	3.810	185.24	-2.60	4.40	 	 	 	 	 	 	 	 	 	 	 	 	 	 	 	 	 	 	1581494757	6.91	12.80
12/02/2020 08:05:58	120220	12022020	080558	184.49	12.865080	-57.120513	184.61	-0.180	-1.380	4.390	184.33	-2.70	4.90	 	 	 	 	 	 	 	 	 	 	 	 	 	 	 	 	 	 	1581494758	7.68	14.22
12/02/2020 08:05:59	120220	12022020	080559	184.00	12.865043	-57.120523	184.20	0.300	-0.670	4.120	184.00	-1.90	4.60	 	 	 	 	 	 	 	 	 	 	 	 	 	 	 	 	 	 	1581494759	7.98	14.78
12/02/2020 08:06:00	120220	12022020	080600	184.35	12.865012	-57.120528	184.60	0.320	0.750	3.090	184.50	-0.50	3.50	 	 	 	 	 	 	 	 	 	 	 	 	 	 	 	 	 	 	1581494760	7.08	13.11
12/02/2020 08:06:01	120220	12022020	080601	185.17	12.864983	-57.120530	185.39	0.020	1.630	1.840	185.32	0.30	2.30	1014.90	26.20	26.20	20.60	20.60	-1.0	71.0	71.0	401.0	25.8	275.00	10.10	79.00	10.50	16	9608.0	27.3	27.3	1581494761	6.17	11.43
12/02/2020 08:06:02	120220	12022020	080602	185.68	12.864952	-57.120528	185.80	-0.060	1.110	1.230	185.69	-0.30	1.80	 	 	 	 	 	 	 	 	 	 	 	 	 	 	 	 	 	 	1581494762	6.54	12.11
12/02/2020 08:06:03	120220	12022020	080603	185.50	12.864917	-57.120532	185.60	0.310	-0.200	1.480	185.42	-1.60	2.00	 	 	 	 	 	 	 	 	 	 	 	 	 	 	 	 	 	 	1581494763	7.79	14.43
12/02/2020 08:06:04	120220	12022020	080604	185.12	12.864877	-57.120538	185.23	0.630	-0.880	2.070	185.06	-2.20	2.60	 	 	 	 	 	 	 	 	 	 	 	 	 	 	 	 	 	 	1581494764	8.45	15.65
12/02/2020 08:06:05	120220	12022020	080605	184.99	12.864843	-57.120547	185.16	0.380	-0.500	2.270	185.02	-1.80	2.80	 	 	 	 	 	 	 	 	 	 	 	 	 	 	 	 	 	 	1581494765	7.65	14.17
12/02/2020 08:06:06	120220	12022020	080606	185.33	12.864813	-57.120555	185.53	-0.280	0.200	1.880	185.44	-1.10	2.40	 	 	 	 	 	 	 	 	 	 	 	 	 	 	 	 	 	 	1581494766	6.42	11.89
12/02/2020 08:06:07	120220	12022020	080607	185.94	12.864787	-57.120562	186.12	-0.700	0.280	1.340	186.05	-1.10	1.80	 	 	 	 	 	 	 	 	 	 	 	 	 	 	 	 	 	 	1581494767	5.97	11.06
12/02/2020 08:06:08	120220	12022020	080608	186.27	12.864757	-57.120570	186.40	-0.390	-0.600	1.110	186.26	-2.00	1.60	 	 	 	 	 	 	 	 	 	 	 	 	 	 	 	 	 	 	1581494768	6.59	12.20
12/02/2020 08:06:09	120220	12022020	080609	186.00	12.864722	-57.120577	186.09	0.320	-1.870	1.560	185.88	-3.30	2.10	 	 	 	 	 	 	 	 	 	 	 	 	 	 	 	 	 	 	1581494769	7.73	14.32
12/02/2020 08:06:10	120220	12022020	080610	185.35	12.864683	-57.120585	185.45	0.760	-2.360	2.430	185.21	-3.70	3.00	 	 	 	 	 	 	 	 	 	 	 	 	 	 	 	 	 	 	1581494770	8.46	15.67
12/02/2020 08:06:11	120220	12022020	080611	184.80	12.864648	-57.120595	184.96	0.520	-1.440	3.170	184.74	-2.70	3.70	 	 	 	 	 	 	 	 	 	 	 	 	 	 	 	 	 	 	1581494771	8.06	14.93
12/02/2020 08:06:12	120220	12022020	080612	184.68	12.864617	-57.120605	184.89	-0.160	0.380	3.330	184.71	-0.90	3.80	 	 	 	 	 	 	 	 	 	 	 	 	 	 	 	 	 	 	1581494772	6.89	12.76
12/02/2020 08:06:13	120220	12022020	080613	184.96	12.864590	-57.120612	185.17	-0.720	1.830	2.870	185.04	0.50	3.30	 	 	 	 	 	 	 	 	 	 	 	 	 	 	 	 	 	 	1581494773	6.02	11.15
12/02/2020 08:06:14	120220	12022020	080614	185.28	12.864560	-57.120615	185.53	-0.810	1.850	2.190	185.35	0.50	2.70	 	 	 	 	 	 	 	 	 	 	 	 	 	 	 	 	 	 	1581494774	6.30	11.67
12/02/2020 08:06:15	120220	12022020	080615	185.43	12.864525	-57.120618	185.55	-0.520	0.560	1.970	185.40	-0.90	2.50	 	 	 	 	 	 	 	 	 	 	 	 	 	 	 	 	 	 	1581494775	7.58	14.04
12/02/2020 08:06:16	120220	12022020	080616	185.22	12.864485	-57.120627	185.28	-0.190	-0.740	2.270	185.15	-2.10	2.80	 	 	 	 	 	 	 	 	 	 	 	 	 	 	 	 	 	 	1581494776	8.70	16.11
12/02/2020 08:06:17	120220	12022020	080617	184.88	12.864448	-57.120638	185.03	0.040	-0.870	2.400	184.87	-2.20	2.90	 	 	 	 	 	 	 	 	 	 	 	 	 	 	 	 	 	 	1581494777	8.50	15.74
12/02/2020 08:06:18	120220	12022020	080618	184.95	12.864417	-57.120648	185.11	0.200	-0.040	1.970	184.99	-1.30	2.50	 	 	 	 	 	 	 	 	 	 	 	 	 	 	 	 	 	 	1581494778	7.03	13.02
12/02/2020 08:06:19	120220	12022020	080619	185.09	12.864390	-57.120653	185.21	0.490	0.390	1.320	185.09	-1.00	1.80	 	 	 	 	 	 	 	 	 	 	 	 	 	 	 	 	 	 	1581494779	5.82	10.78
12/02/2020 08:06:20	120220	12022020	080620	184.96	12.864360	-57.120655	185.04	0.880	-0.380	0.950	184.92	-1.80	1.50	 	 	 	 	 	 	 	 	 	 	 	 	 	 	 	 	 	 	1581494780	6.28	11.63
12/02/2020 08:06:21	120220	12022020	080621	184.75	12.864325	-57.120655	184.85	0.980	-1.500	1.030	184.70	-2.90	1.60	 	 	 	 	 	 	 	 	 	 	 	 	 	 	 	 	 	 	1581494781	7.69	14.24
12/02/2020 08:06:22	120220	12022020	080622	184.43	12.864287	-57.120658	184.53	0.520	-1.890	1.660	184.35	-3.20	2.20	 	 	 	 	 	 	 	 	 	 	 	 	 	 	 	 	 	 	1581494782	8.11	15.02
12/02/2020 08:06:23	120220	12022020	080623	184.01	12.864253	-57.120668	184.14	-0.300	-1.230	2.630	183.94	-2.50	3.20	 	 	 	 	 	 	 	 	 	 	 	 	 	 	 	 	 	 	1581494783	7.61	14.09
12/02/2020 08:06:24	120220	12022020	080624	183.80	12.864223	-57.120680	183.99	-1.020	0.060	3.390	183.81	-1.20	3.90	 	 	 	 	 	 	 	 	 	 	 	 	 	 	 	 	 	 	1581494784	7.09	13.13
12/02/2020 08:06:25	120220	12022020	080625	183.93	12.864195	-57.120695	184.15	-1.170	1.160	3.560	183.99	-0.10	4.10	 	 	 	 	 	 	 	 	 	 	 	 	 	 	 	 	 	 	1581494785	6.77	12.54
12/02/2020 08:06:26	120220	12022020	080626	184.21	12.864165	-57.120707	184.41	-0.660	1.230	3.170	184.27	-0.10	3.60	 	 	 	 	 	 	 	 	 	 	 	 	 	 	 	 	 	 	1581494786	6.75	12.50
12/02/2020 08:06:27	120220	12022020	080627	184.60	12.864132	-57.120713	184.82	0.070	0.470	2.520	184.72	-0.90	3.00	 	 	 	 	 	 	 	 	 	 	 	 	 	 	 	 	 	 	1581494787	7.48	13.85
12/02/2020 08:06:28	120220	12022020	080628	185.14	12.864093	-57.120717	185.49	0.450	-0.290	1.860	185.27	-1.70	2.30	 	 	 	 	 	 	 	 	 	 	 	 	 	 	 	 	 	 	1581494788	8.01	14.83
12/02/2020 08:06:29	120220	12022020	080629	185.80	12.864058	-57.120718	185.96	0.440	-0.700	1.460	185.83	-2.10	2.00	 	 	 	 	 	 	 	 	 	 	 	 	 	 	 	 	 	 	1581494789	7.59	14.06
12/02/2020 08:06:30	120220	12022020	080630	185.68	12.864027	-57.120723	185.79	0.430	-1.000	1.560	185.59	-2.40	2.10	 	 	 	 	 	 	 	 	 	 	 	 	 	 	 	 	 	 	1581494790	7.03	13.02
12/02/2020 08:06:31	120220	12022020	080631	185.17	12.863993	-57.120728	185.30	0.500	-1.020	1.820	185.08	-2.30	2.40	 	 	 	 	 	 	 	 	 	 	 	 	 	 	 	 	 	 	1581494791	7.08	13.11
12/02/2020 08:06:32	120220	12022020	080632	184.76	12.863962	-57.120732	184.90	0.380	-0.640	1.990	184.69	-2.00	2.50	 	 	 	 	 	 	 	 	 	 	 	 	 	 	 	 	 	 	1581494792	7.01	12.98
12/02/2020 08:06:33	120220	12022020	080633	184.49	12.863930	-57.120738	184.65	-0.010	-0.250	2.130	184.45	-1.60	2.70	 	 	 	 	 	 	 	 	 	 	 	 	 	 	 	 	 	 	1581494793	6.81	12.61
12/02/2020 08:06:34	120220	12022020	080634	184.35	12.863898	-57.120747	184.54	-0.490	0.000	2.360	184.35	-1.30	2.90	 	 	 	 	 	 	 	 	 	 	 	 	 	 	 	 	 	 	1581494794	7.05	13.06
12/02/2020 08:06:35	120220	12022020	080635	184.53	12.863867	-57.120757	184.77	-0.790	0.300	2.480	184.63	-1.00	3.00	 	 	 	 	 	 	 	 	 	 	 	 	 	 	 	 	 	 	1581494795	7.38	13.67
12/02/2020 08:06:36	120220	12022020	080636	185.09	12.863835	-57.120768	185.31	-0.770	0.700	2.220	185.20	-0.60	2.70	 	 	 	 	 	 	 	 	 	 	 	 	 	 	 	 	 	 	1581494796	7.25	13.43
12/02/2020 08:06:37	120220	12022020	080637	185.56	12.863803	-57.120778	185.74	-0.370	0.650	1.800	185.61	-0.70	2.30	 	 	 	 	 	 	 	 	 	 	 	 	 	 	 	 	 	 	1581494797	6.81	12.61
12/02/2020 08:06:38	120220	12022020	080638	185.62	12.863772	-57.120783	185.75	0.290	-0.220	1.490	185.57	-1.60	2.00	 	 	 	 	 	 	 	 	 	 	 	 	 	 	 	 	 	 	1581494798	7.06	13.08
12/02/2020 08:06:39	120220	12022020	080639	185.26	12.863735	-57.120788	185.38	0.830	-1.300	1.520	185.18	-2.70	2.00	 	 	 	 	 	 	 	 	 	 	 	 	 	 	 	 	 	 	1581494799	7.90	14.63
12/02/2020 08:06:40	120220	12022020	080640	185.03	12.863697	-57.120792	185.18	0.800	-1.390	1.610	185.02	-2.70	2.10	 	 	 	 	 	 	 	 	 	 	 	 	 	 	 	 	 	 	1581494800	8.18	15.15
12/02/2020 08:06:41	120220	12022020	080641	185.18	12.863665	-57.120797	185.35	0.180	-0.310	1.720	185.24	-1.60	2.20	 	 	 	 	 	 	 	 	 	 	 	 	 	 	 	 	 	 	1581494801	7.09	13.13
12/02/2020 08:06:42	120220	12022020	080642	185.37	12.863638	-57.120802	185.55	-0.490	0.700	1.990	185.40	-0.60	2.50	 	 	 	 	 	 	 	 	 	 	 	 	 	 	 	 	 	 	1581494802	5.87	10.87
12/02/2020 08:06:43	120220	12022020	080643	185.37	12.863610	-57.120812	185.51	-0.620	0.640	2.300	185.35	-0.70	2.80	 	 	 	 	 	 	 	 	 	 	 	 	 	 	 	 	 	 	1581494803	6.14	11.37
12/02/2020 08:06:44	120220	12022020	080644	185.16	12.863578	-57.120822	185.28	-0.140	-0.250	2.520	185.09	-1.60	3.00	 	 	 	 	 	 	 	 	 	 	 	 	 	 	 	 	 	 	1581494804	7.35	13.61
12/02/2020 08:06:45	120220	12022020	080645	184.74	12.863542	-57.120832	184.85	0.540	-1.140	2.690	184.64	-2.50	3.20	 	 	 	 	 	 	 	 	 	 	 	 	 	 	 	 	 	 	1581494805	8.17	15.13
12/02/2020 08:06:46	120220	12022020	080646	184.29	12.863503	-57.120838	184.44	0.830	-1.300	2.740	184.23	-2.60	3.20	 	 	 	 	 	 	 	 	 	 	 	 	 	 	 	 	 	 	1581494806	8.20	15.19
12/02/2020 08:06:47	120220	12022020	080647	184.06	12.863468	-57.120842	184.23	0.470	-0.540	2.640	184.06	-1.80	3.10	 	 	 	 	 	 	 	 	 	 	 	 	 	 	 	 	 	 	1581494807	7.53	13.95
12/02/2020 08:06:48	120220	12022020	080648	184.27	12.863438	-57.120847	184.48	-0.280	0.620	2.360	184.37	-0.70	2.80	 	 	 	 	 	 	 	 	 	 	 	 	 	 	 	 	 	 	1581494808	6.66	12.33
12/02/2020 08:06:49	120220	12022020	080649	184.95	12.863410	-57.120852	185.16	-0.930	1.290	1.890	185.10	-0.00	2.40	 	 	 	 	 	 	 	 	 	 	 	 	 	 	 	 	 	 	1581494809	6.17	11.43
12/02/2020 08:06:50	120220	12022020	080650	185.64	12.863380	-57.120858	185.82	-1.050	0.850	1.520	185.74	-0.50	2.00	 	 	 	 	 	 	 	 	 	 	 	 	 	 	 	 	 	 	1581494810	6.44	11.93
12/02/2020 08:06:51	120220	12022020	080651	185.80	12.863347	-57.120867	185.91	-0.550	-0.560	1.600	185.74	-2.00	2.10	 	 	 	 	 	 	 	 	 	 	 	 	 	 	 	 	 	 	1581494811	7.41	13.72
12/02/2020 08:06:52	120220	12022020	080652	185.21	12.863310	-57.120877	185.26	0.240	-1.930	2.170	185.02	-3.30	2.70	 	 	 	 	 	 	 	 	 	 	 	 	 	 	 	 	 	 	1581494812	8.44	15.63
12/02/2020 08:06:53	120220	12022020	080653	184.20	12.863270	-57.120887	184.27	0.840	-2.120	2.930	184.01	-3.40	3.50	 	 	 	 	 	 	 	 	 	 	 	 	 	 	 	 	 	 	1581494813	8.57	15.87
12/02/2020 08:06:54	120220	12022020	080654	183.55	12.863237	-57.120895	183.71	0.900	-0.860	3.230	183.54	-2.10	3.70	 	 	 	 	 	 	 	 	 	 	 	 	 	 	 	 	 	 	1581494814	7.65	14.17
12/02/2020 08:06:55	120220	12022020	080655	183.93	12.863207	-57.120900	184.15	0.410	1.030	2.770	184.08	-0.20	3.20	 	 	 	 	 	 	 	 	 	 	 	 	 	 	 	 	 	 	1581494815	6.30	11.67
12/02/2020 08:06:56	120220	12022020	080656	184.85	12.863182	-57.120902	185.07	-0.280	2.010	2.170	185.03	0.70	2.60	 	 	 	 	 	 	 	 	 	 	 	 	 	 	 	 	 	 	1581494816	5.53	10.24
12/02/2020 08:06:57	120220	12022020	080657	185.60	12.863153	-57.120907	185.77	-0.570	1.330	1.830	185.69	-0.10	2.30	 	 	 	 	 	 	 	 	 	 	 	 	 	 	 	 	 	 	1581494817	6.23	11.54
12/02/2020 08:06:58	120220	12022020	080658	185.79	12.863117	-57.120913	185.90	-0.220	-0.350	1.910	185.75	-1.80	2.40	 	 	 	 	 	 	 	 	 	 	 	 	 	 	 	 	 	 	1581494818	7.74	14.33
12/02/2020 08:06:59	120220	12022020	080659	185.37	12.863078	-57.120922	185.44	0.420	-1.760	2.390	185.23	-3.10	2.90	 	 	 	 	 	 	 	 	 	 	 	 	 	 	 	 	 	 	1581494819	8.61	15.95
12/02/2020 08:07:00	120220	12022020	080700	184.60	12.863040	-57.120930	184.68	0.740	-2.110	2.940	184.45	-3.40	3.50	 	 	 	 	 	 	 	 	 	 	 	 	 	 	 	 	 	 	1581494820	8.39	15.54
12/02/2020 08:07:01	120220	12022020	080701	183.98	12.863007	-57.120937	184.12	0.450	-1.320	3.140	183.91	-2.60	3.60	1014.90	26.20	26.20	20.60	20.70	-1.0	71.0	71.0	400.0	25.8	271.00	10.70	76.00	11.30	16	8974.0	27.3	27.3	1581494821	7.47	13.83
12/02/2020 08:07:02	120220	12022020	080702	183.85	12.862977	-57.120943	184.03	-0.250	-0.100	2.830	183.89	-1.40	3.30	 	 	 	 	 	 	 	 	 	 	 	 	 	 	 	 	 	 	1581494822	6.57	12.17
12/02/2020 08:07:03	120220	12022020	080703	184.17	12.862947	-57.120948	184.38	-0.890	0.760	2.290	184.26	-0.50	2.80	 	 	 	 	 	 	 	 	 	 	 	 	 	 	 	 	 	 	1581494823	6.32	11.70
12/02/2020 08:07:04	120220	12022020	080704	184.51	12.862917	-57.120955	184.75	-1.020	0.880	1.760	184.58	-0.50	2.20	 	 	 	 	 	 	 	 	 	 	 	 	 	 	 	 	 	 	1581494824	6.73	12.46
12/02/2020 08:07:05	120220	12022020	080705	184.76	12.862883	-57.120963	184.90	-0.500	0.360	1.350	184.77	-1.00	1.80	 	 	 	 	 	 	 	 	 	 	 	 	 	 	 	 	 	 	1581494825	7.44	13.78
12/02/2020 08:07:06	120220	12022020	080706	184.74	12.862847	-57.120970	184.86	0.330	-0.220	1.130	184.73	-1.60	1.60	 	 	 	 	 	 	 	 	 	 	 	 	 	 	 	 	 	 	1581494826	7.96	14.74
12/02/2020 08:07:07	120220	12022020	080707	184.66	12.862810	-57.120973	184.80	0.850	-0.460	1.190	184.66	-1.80	1.70	 	 	 	 	 	 	 	 	 	 	 	 	 	 	 	 	 	 	1581494827	7.83	14.50
12/02/2020 08:07:08	120220	12022020	080708	184.66	12.862777	-57.120977	184.80	0.730	-0.450	1.380	184.67	-1.80	1.90	 	 	 	 	 	 	 	 	 	 	 	 	 	 	 	 	 	 	1581494828	7.36	13.63
12/02/2020 08:07:09	120220	12022020	080709	184.66	12.862743	-57.120980	184.81	0.150	-0.410	1.740	184.64	-1.80	2.30	 	 	 	 	 	 	 	 	 	 	 	 	 	 	 	 	 	 	1581494829	7.09	13.13
12/02/2020 08:07:10	120220	12022020	080710	184.46	12.862712	-57.120988	184.61	-0.330	-0.450	2.330	184.40	-1.80	2.90	 	 	 	 	 	 	 	 	 	 	 	 	 	 	 	 	 	 	1581494830	7.16	13.26
12/02/2020 08:07:11	120220	12022020	080711	184.14	12.862678	-57.121000	184.30	-0.330	-0.430	2.700	184.09	-1.80	3.20	 	 	 	 	 	 	 	 	 	 	 	 	 	 	 	 	 	 	1581494831	7.48	13.85
12/02/2020 08:07:12	120220	12022020	080712	183.97	12.862645	-57.121008	184.14	-0.040	-0.210	2.630	183.96	-1.50	3.10	 	 	 	 	 	 	 	 	 	 	 	 	 	 	 	 	 	 	1581494832	7.44	13.78
12/02/2020 08:07:13	120220	12022020	080713	183.89	12.862612	-57.121015	184.03	0.200	-0.110	2.430	183.86	-1.40	2.90	 	 	 	 	 	 	 	 	 	 	 	 	 	 	 	 	 	 	1581494833	7.17	13.28
12/02/2020 08:07:14	120220	12022020	080714	183.72	12.862578	-57.121018	183.86	0.230	-0.340	2.290	183.69	-1.70	2.80	 	 	 	 	 	 	 	 	 	 	 	 	 	 	 	 	 	 	1581494834	7.32	13.56
12/02/2020 08:07:15	120220	12022020	080715	183.71	12.862543	-57.121023	183.89	0.010	-0.410	2.160	183.76	-1.70	2.70	 	 	 	 	 	 	 	 	 	 	 	 	 	 	 	 	 	 	1581494835	7.70	14.26
12/02/2020 08:07:16	120220	12022020	080716	184.05	12.862508	-57.121028	184.24	-0.340	0.010	2.040	184.12	-1.30	2.50	 	 	 	 	 	 	 	 	 	 	 	 	 	 	 	 	 	 	1581494836	7.43	13.76
12/02/2020 08:07:17	120220	12022020	080717	184.30	12.862478	-57.121035	184.45	-0.520	0.360	2.140	184.30	-1.00	2.70	 	 	 	 	 	 	 	 	 	 	 	 	 	 	 	 	 	 	1581494837	6.76	12.52
12/02/2020 08:07:18	120220	12022020	080718	184.25	12.862447	-57.121043	184.35	-0.280	0.090	2.400	184.23	-1.30	2.90	 	 	 	 	 	 	 	 	 	 	 	 	 	 	 	 	 	 	1581494838	6.90	12.78
12/02/2020 08:07:19	120220	12022020	080719	184.04	12.862412	-57.121053	184.17	0.270	-0.510	2.340	184.00	-1.90	2.80	 	 	 	 	 	 	 	 	 	 	 	 	 	 	 	 	 	 	1581494839	7.65	14.17
12/02/2020 08:07:20	120220	12022020	080720	183.82	12.862377	-57.121060	183.94	0.770	-0.800	2.020	183.79	-2.10	2.50	 	 	 	 	 	 	 	 	 	 	 	 	 	 	 	 	 	 	1581494840	7.93	14.69
12/02/2020 08:07:21	120220	12022020	080721	183.69	12.862342	-57.121062	183.81	0.880	-0.490	1.580	183.68	-1.80	2.10	 	 	 	 	 	 	 	 	 	 	 	 	 	 	 	 	 	 	1581494841	7.54	13.96
12/02/2020 08:07:22	120220	12022020	080722	183.69	12.862308	-57.121060	183.83	0.490	-0.000	1.240	183.70	-1.30	1.70	 	 	 	 	 	 	 	 	 	 	 	 	 	 	 	 	 	 	1581494842	6.96	12.89
12/02/2020 08:07:23	120220	12022020	080723	183.74	12.862277	-57.121060	183.88	-0.180	0.030	1.370	183.75	-1.30	1.90	 	 	 	 	 	 	 	 	 	 	 	 	 	 	 	 	 	 	1581494843	6.78	12.56
12/02/2020 08:07:24	120220	12022020	080724	183.84	12.862243	-57.121065	184.00	-0.740	-0.420	2.120	183.87	-1.80	2.70	 	 	 	 	 	 	 	 	 	 	 	 	 	 	 	 	 	 	1581494844	7.34	13.59
12/02/2020 08:07:25	120220	12022020	080725	183.91	12.862208	-57.121078	184.06	-0.890	-0.870	3.020	183.90	-2.20	3.60	 	 	 	 	 	 	 	 	 	 	 	 	 	 	 	 	 	 	1581494845	8.14	15.08
12/02/2020 08:07:26	120220	12022020	080726	183.80	12.862172	-57.121095	183.94	-0.560	-0.780	3.560	183.76	-2.10	4.10	 	 	 	 	 	 	 	 	 	 	 	 	 	 	 	 	 	 	1581494846	8.37	15.50
12/02/2020 08:07:27	120220	12022020	080727	183.69	12.862138	-57.121108	183.84	-0.050	-0.070	3.330	183.70	-1.40	3.80	 	 	 	 	 	 	 	 	 	 	 	 	 	 	 	 	 	 	1581494847	7.71	14.28
12/02/2020 08:07:28	120220	12022020	080728	183.95	12.862108	-57.121113	184.11	0.220	0.750	2.340	184.04	-0.60	2.80	 	 	 	 	 	 	 	 	 	 	 	 	 	 	 	 	 	 	1581494848	6.74	12.48
12/02/2020 08:07:29	120220	12022020	080729	184.36	12.862078	-57.121112	184.47	0.170	0.750	1.240	184.40	-0.60	1.70	 	 	 	 	 	 	 	 	 	 	 	 	 	 	 	 	 	 	1581494849	6.49	12.02
12/02/2020 08:07:30	120220	12022020	080730	184.44	12.862043	-57.121110	184.48	0.060	-0.320	0.810	184.41	-1.70	1.30	 	 	 	 	 	 	 	 	 	 	 	 	 	 	 	 	 	 	1581494850	7.26	13.45
12/02/2020 08:07:31	120220	12022020	080731	184.04	12.862005	-57.121112	184.09	0.110	-1.520	1.120	183.93	-2.90	1.70	 	 	 	 	 	 	 	 	 	 	 	 	 	 	 	 	 	 	1581494851	8.28	15.33
12/02/2020 08:07:32	120220	12022020	080732	183.59	12.861967	-57.121120	183.57	0.360	-1.680	1.620	183.48	-3.00	2.10	 	 	 	 	 	 	 	 	 	 	 	 	 	 	 	 	 	 	1581494852	8.57	15.87
12/02/2020 08:07:33	120220	12022020	080733	183.14	12.861932	-57.121127	183.27	0.590	-0.620	1.830	183.13	-1.90	2.30	 	 	 	 	 	 	 	 	 	 	 	 	 	 	 	 	 	 	1581494853	7.70	14.26
12/02/2020 08:07:34	120220	12022020	080734	183.29	12.861902	-57.121132	183.46	0.440	0.770	1.740	183.38	-0.50	2.20	 	 	 	 	 	 	 	 	 	 	 	 	 	 	 	 	 	 	1581494854	6.51	12.06
12/02/2020 08:07:35	120220	12022020	080735	183.90	12.861873	-57.121133	184.08	-0.160	1.420	1.560	184.03	0.10	2.10	 	 	 	 	 	 	 	 	 	 	 	 	 	 	 	 	 	 	1581494855	6.15	11.39
12/02/2020 08:07:36	120220	12022020	080736	184.38	12.861842	-57.121137	184.53	-0.800	0.870	1.800	184.41	-0.50	2.30	 	 	 	 	 	 	 	 	 	 	 	 	 	 	 	 	 	 	1581494856	6.67	12.35
12/02/2020 08:07:37	120220	12022020	080737	184.26	12.861807	-57.121147	184.37	-0.910	-0.440	2.570	184.16	-1.90	3.10	 	 	 	 	 	 	 	 	 	 	 	 	 	 	 	 	 	 	1581494857	7.74	14.33
12/02/2020 08:07:38	120220	12022020	080738	183.61	12.861770	-57.121162	183.69	-0.290	-1.600	3.320	183.45	-3.00	3.80	 	 	 	 	 	 	 	 	 	 	 	 	 	 	 	 	 	 	1581494858	8.65	16.02
12/02/2020 08:07:39	120220	12022020	080739	182.89	12.861732	-57.121173	183.00	0.460	-1.770	3.550	182.79	-3.10	4.00	 	 	 	 	 	 	 	 	 	 	 	 	 	 	 	 	 	 	1581494859	8.53	15.80
12/02/2020 08:07:40	120220	12022020	080740	182.70	12.861697	-57.121180	182.89	0.690	-0.890	3.020	182.78	-2.20	3.50	 	 	 	 	 	 	 	 	 	 	 	 	 	 	 	 	 	 	1581494860	7.51	13.91
12/02/2020 08:07:41	120220	12022020	080741	183.33	12.861667	-57.121182	183.56	0.290	0.290	1.870	183.51	-1.00	2.30	 	 	 	 	 	 	 	 	 	 	 	 	 	 	 	 	 	 	1581494861	6.44	11.93
12/02/2020 08:07:42	120220	12022020	080742	184.17	12.861638	-57.121182	184.34	-0.200	0.750	0.720	184.29	-0.60	1.20	 	 	 	 	 	 	 	 	 	 	 	 	 	 	 	 	 	 	1581494862	6.10	11.30
12/02/2020 08:07:43	120220	12022020	080743	184.52	12.861607	-57.121182	184.63	-0.200	0.050	0.360	184.52	-1.40	0.90	 	 	 	 	 	 	 	 	 	 	 	 	 	 	 	 	 	 	1581494863	6.87	12.72
12/02/2020 08:07:44	120220	12022020	080744	184.38	12.861570	-57.121185	184.50	0.180	-0.920	0.650	184.33	-2.30	1.20	 	 	 	 	 	 	 	 	 	 	 	 	 	 	 	 	 	 	1581494864	8.14	15.08
12/02/2020 08:07:45	120220	12022020	080745	184.09	12.861530	-57.121190	184.21	0.370	-1.030	1.300	184.03	-2.40	1.80	 	 	 	 	 	 	 	 	 	 	 	 	 	 	 	 	 	 	1581494865	8.47	15.69
12/02/2020 08:07:46	120220	12022020	080746	183.91	12.861495	-57.121195	184.08	0.040	-0.280	2.100	183.91	-1.60	2.60	 	 	 	 	 	 	 	 	 	 	 	 	 	 	 	 	 	 	1581494866	7.62	14.11
12/02/2020 08:07:47	120220	12022020	080747	183.93	12.861465	-57.121203	184.09	-0.570	0.540	2.880	183.93	-0.80	3.40	 	 	 	 	 	 	 	 	 	 	 	 	 	 	 	 	 	 	1581494867	6.82	12.63
12/02/2020 08:07:48	120220	12022020	080748	183.84	12.861435	-57.121213	183.99	-0.880	0.720	3.590	183.80	-0.60	4.10	 	 	 	 	 	 	 	 	 	 	 	 	 	 	 	 	 	 	1581494868	6.87	12.72
12/02/2020 08:07:49	120220	12022020	080749	183.68	12.861402	-57.121227	183.86	-0.590	0.310	3.870	183.67	-1.10	4.40	 	 	 	 	 	 	 	 	 	 	 	 	 	 	 	 	 	 	1581494869	7.60	14.08
12/02/2020 08:07:50	120220	12022020	080750	183.74	12.861365	-57.121237	183.93	0.040	-0.190	3.360	183.78	-1.60	3.80	 	 	 	 	 	 	 	 	 	 	 	 	 	 	 	 	 	 	1581494870	8.02	14.85
12/02/2020 08:07:51	120220	12022020	080751	183.97	12.861330	-57.121243	184.15	0.530	-0.470	2.380	184.04	-1.80	2.80	 	 	 	 	 	 	 	 	 	 	 	 	 	 	 	 	 	 	1581494871	7.75	14.35
12/02/2020 08:07:52	120220	12022020	080752	184.39	12.861297	-57.121245	184.57	0.570	-0.460	1.300	184.49	-1.80	1.80	 	 	 	 	 	 	 	 	 	 	 	 	 	 	 	 	 	 	1581494872	7.32	13.56
12/02/2020 08:07:53	120220	12022020	080753	184.86	12.861263	-57.121245	184.98	0.300	-0.370	0.500	184.91	-1.70	1.00	 	 	 	 	 	 	 	 	 	 	 	 	 	 	 	 	 	 	1581494873	6.85	12.69
12/02/2020 08:07:54	120220	12022020	080754	184.93	12.861233	-57.121247	184.98	0.160	-0.580	0.410	184.90	-2.00	1.00	 	 	 	 	 	 	 	 	 	 	 	 	 	 	 	 	 	 	1581494874	6.74	12.48
12/02/2020 08:07:55	120220	12022020	080755	184.57	12.861200	-57.121250	184.67	0.270	-0.950	0.890	184.51	-2.30	1.40	 	 	 	 	 	 	 	 	 	 	 	 	 	 	 	 	 	 	1581494875	7.26	13.45
12/02/2020 08:07:56	120220	12022020	080756	184.32	12.861163	-57.121255	184.39	0.270	-0.900	1.430	184.27	-2.20	2.00	 	 	 	 	 	 	 	 	 	 	 	 	 	 	 	 	 	 	1581494876	7.70	14.26
12/02/2020 08:07:57	120220	12022020	080757	184.12	12.861130	-57.121262	184.27	0.030	-0.420	1.850	184.12	-1.70	2.40	 	 	 	 	 	 	 	 	 	 	 	 	 	 	 	 	 	 	1581494877	7.49	13.87
12/02/2020 08:07:58	120220	12022020	080758	184.13	12.861097	-57.121270	184.28	-0.270	0.120	2.040	184.13	-1.20	2.50	 	 	 	 	 	 	 	 	 	 	 	 	 	 	 	 	 	 	1581494878	7.22	13.37
12/02/2020 08:07:59	120220	12022020	080759	184.08	12.861063	-57.121277	184.22	-0.430	0.310	2.260	184.06	-1.00	2.80	 	 	 	 	 	 	 	 	 	 	 	 	 	 	 	 	 	 	1581494879	7.21	13.35
12/02/2020 08:08:00	120220	12022020	080800	183.91	12.861030	-57.121283	184.06	-0.480	0.100	2.710	183.87	-1.30	3.20	 	 	 	 	 	 	 	 	 	 	 	 	 	 	 	 	 	 	1581494880	7.59	14.06
12/02/2020 08:08:01	120220	12022020	080801	183.71	12.860993	-57.121293	183.88	-0.510	-0.130	3.190	183.67	-1.50	3.70	1014.90	26.10	26.20	20.30	20.40	-1.0	70.0	70.0	399.0	25.8	270.00	10.80	75.00	11.50	16	10258.0	27.3	27.3	1581494881	7.96	14.74
12/02/2020 08:08:02	120220	12022020	080802	183.58	12.860958	-57.121303	183.76	-0.460	-0.050	3.310	183.59	-1.40	3.80	 	 	 	 	 	 	 	 	 	 	 	 	 	 	 	 	 	 	1581494882	7.90	14.63
12/02/2020 08:08:03	120220	12022020	080803	183.75	12.860925	-57.121313	183.95	-0.290	0.290	2.910	183.82	-1.00	3.40	 	 	 	 	 	 	 	 	 	 	 	 	 	 	 	 	 	 	1581494883	7.33	13.58
12/02/2020 08:08:04	120220	12022020	080804	184.12	12.860895	-57.121318	184.29	-0.010	0.340	2.210	184.17	-1.00	2.70	 	 	 	 	 	 	 	 	 	 	 	 	 	 	 	 	 	 	1581494884	6.76	12.52
12/02/2020 08:08:05	120220	12022020	080805	184.19	12.860863	-57.121322	184.31	0.450	-0.340	1.660	184.14	-1.70	2.10	 	 	 	 	 	 	 	 	 	 	 	 	 	 	 	 	 	 	1581494885	6.93	12.83
12/02/2020 08:08:06	120220	12022020	080806	183.93	12.860827	-57.121325	183.94	0.930	-1.210	1.450	183.85	-2.60	2.00	 	 	 	 	 	 	 	 	 	 	 	 	 	 	 	 	 	 	1581494886	7.78	14.41
12/02/2020 08:08:07	120220	12022020	080807	183.58	12.860788	-57.121328	183.72	1.060	-1.230	1.350	183.58	-2.50	1.90	 	 	 	 	 	 	 	 	 	 	 	 	 	 	 	 	 	 	1581494887	8.11	15.02
12/02/2020 08:08:08	120220	12022020	080808	183.67	12.860755	-57.121330	183.89	0.750	-0.410	1.180	183.73	-1.70	1.70	 	 	 	 	 	 	 	 	 	 	 	 	 	 	 	 	 	 	1581494888	7.30	13.52
12/02/2020 08:08:09	120220	12022020	080809	184.13	12.860725	-57.121330	184.29	0.130	0.200	1.170	184.20	-1.10	1.70	 	 	 	 	 	 	 	 	 	 	 	 	 	 	 	 	 	 	1581494889	6.50	12.04
12/02/2020 08:08:10	120220	12022020	080810	184.37	12.860693	-57.121333	184.51	-0.450	0.050	1.630	184.37	-1.30	2.20	 	 	 	 	 	 	 	 	 	 	 	 	 	 	 	 	 	 	1581494890	6.82	12.63
12/02/2020 08:08:11	120220	12022020	080811	184.34	12.860658	-57.121342	184.49	-0.840	-0.290	2.510	184.31	-1.60	3.10	 	 	 	 	 	 	 	 	 	 	 	 	 	 	 	 	 	 	1581494891	7.74	14.33
12/02/2020 08:08:12	120220	12022020	080812	184.19	12.860623	-57.121353	184.35	-0.990	-0.290	3.400	184.14	-1.60	3.90	 	 	 	 	 	 	 	 	 	 	 	 	 	 	 	 	 	 	1581494892	8.06	14.93
12/02/2020 08:08:13	120220	12022020	080813	183.96	12.860590	-57.121368	184.12	-0.770	-0.100	3.810	183.91	-1.40	4.30	 	 	 	 	 	 	 	 	 	 	 	 	 	 	 	 	 	 	1581494893	7.74	14.33
12/02/2020 08:08:14	120220	12022020	080814	183.71	12.860557	-57.121380	183.87	-0.230	-0.160	3.630	183.66	-1.50	4.10	 	 	 	 	 	 	 	 	 	 	 	 	 	 	 	 	 	 	1581494894	7.43	13.76
12/02/2020 08:08:15	120220	12022020	080815	183.49	12.860522	-57.121387	183.64	0.360	-0.470	3.140	183.47	-1.80	3.60	 	 	 	 	 	 	 	 	 	 	 	 	 	 	 	 	 	 	1581494895	7.62	14.11
12/02/2020 08:08:16	120220	12022020	080816	183.48	12.860487	-57.121390	183.65	0.710	-0.520	2.290	183.52	-1.80	2.80	 	 	 	 	 	 	 	 	 	 	 	 	 	 	 	 	 	 	1581494896	7.86	14.56
12/02/2020 08:08:17	120220	12022020	080817	183.82	12.860452	-57.121390	183.99	0.660	0.020	1.210	183.92	-1.30	1.70	 	 	 	 	 	 	 	 	 	 	 	 	 	 	 	 	 	 	1581494897	7.50	13.89
12/02/2020 08:08:18	120220	12022020	080818	184.21	12.860420	-57.121388	184.46	0.370	0.530	0.410	184.30	-0.80	0.90	 	 	 	 	 	 	 	 	 	 	 	 	 	 	 	 	 	 	1581494898	6.77	12.54
12/02/2020 08:08:19	120220	12022020	080819	184.68	12.860388	-57.121387	184.83	0.090	0.260	0.200	184.74	-1.10	0.70	 	 	 	 	 	 	 	 	 	 	 	 	 	 	 	 	 	 	1581494899	6.71	12.43
12/02/2020 08:08:20	120220	12022020	080820	184.84	12.860353	-57.121390	184.97	-0.100	-0.620	0.710	184.85	-2.00	1.30	 	 	 	 	 	 	 	 	 	 	 	 	 	 	 	 	 	 	1581494900	7.45	13.80
12/02/2020 08:08:21	120220	12022020	080821	184.64	12.860317	-57.121398	184.76	-0.190	-1.370	1.820	184.56	-2.70	2.40	 	 	 	 	 	 	 	 	 	 	 	 	 	 	 	 	 	 	1581494901	8.16	15.11
12/02/2020 08:08:22	120220	12022020	080822	184.29	12.860280	-57.121412	184.37	-0.210	-1.230	2.860	184.21	-2.50	3.40	 	 	 	 	 	 	 	 	 	 	 	 	 	 	 	 	 	 	1581494902	8.28	15.33
12/02/2020 08:08:23	120220	12022020	080823	183.92	12.860248	-57.121423	184.12	-0.230	-0.300	3.380	183.88	-1.60	3.90	 	 	 	 	 	 	 	 	 	 	 	 	 	 	 	 	 	 	1581494903	7.50	13.89
12/02/2020 08:08:24	120220	12022020	080824	183.74	12.860218	-57.121432	183.91	-0.190	0.400	3.460	183.72	-0.90	4.00	 	 	 	 	 	 	 	 	 	 	 	 	 	 	 	 	 	 	1581494904	6.69	12.39
12/02/2020 08:08:25	120220	12022020	080825	183.74	12.860185	-57.121437	183.92	-0.100	0.410	3.170	183.78	-1.00	3.70	 	 	 	 	 	 	 	 	 	 	 	 	 	 	 	 	 	 	1581494905	7.02	13.00
12/02/2020 08:08:26	120220	12022020	080826	184.04	12.860150	-57.121442	184.23	-0.110	0.180	2.760	184.13	-1.20	3.30	 	 	 	 	 	 	 	 	 	 	 	 	 	 	 	 	 	 	1581494906	7.67	14.20
12/02/2020 08:08:27	120220	12022020	080827	184.50	12.860115	-57.121447	184.66	-0.130	0.070	2.250	184.58	-1.30	2.70	 	 	 	 	 	 	 	 	 	 	 	 	 	 	 	 	 	 	1581494907	7.64	14.15
12/02/2020 08:08:28	120220	12022020	080828	184.79	12.860082	-57.121452	184.92	0.130	-0.180	1.580	184.82	-1.50	2.10	 	 	 	 	 	 	 	 	 	 	 	 	 	 	 	 	 	 	1581494908	7.31	13.54
12/02/2020 08:08:29	120220	12022020	080829	184.97	12.860047	-57.121455	185.10	0.530	-0.530	0.950	185.02	-1.90	1.50	 	 	 	 	 	 	 	 	 	 	 	 	 	 	 	 	 	 	1581494909	7.48	13.85
12/02/2020 08:08:30	120220	12022020	080830	185.21	12.860012	-57.121455	185.35	0.580	-0.640	0.900	185.25	-2.00	1.40	 	 	 	 	 	 	 	 	 	 	 	 	 	 	 	 	 	 	1581494910	7.60	14.08
12/02/2020 08:08:31	120220	12022020	080831	185.31	12.859978	-57.121458	185.44	0.130	-0.550	1.330	185.29	-1.90	1.90	 	 	 	 	 	 	 	 	 	 	 	 	 	 	 	 	 	 	1581494911	7.25	13.43
12/02/2020 08:08:32	120220	12022020	080832	185.02	12.859945	-57.121467	185.13	-0.370	-0.540	2.070	184.91	-1.90	2.60	 	 	 	 	 	 	 	 	 	 	 	 	 	 	 	 	 	 	1581494912	7.14	13.22
12/02/2020 08:08:33	120220	12022020	080833	184.47	12.859912	-57.121477	184.60	-0.530	-0.650	2.960	184.37	-2.00	3.50	 	 	 	 	 	 	 	 	 	 	 	 	 	 	 	 	 	 	1581494913	7.56	14.00
12/02/2020 08:08:34	120220	12022020	080834	184.08	12.859877	-57.121490	184.24	-0.320	-0.560	3.440	184.04	-1.90	4.00	 	 	 	 	 	 	 	 	 	 	 	 	 	 	 	 	 	 	1581494914	8.02	14.85
12/02/2020 08:08:35	120220	12022020	080835	184.08	12.859842	-57.121500	184.29	0.000	-0.070	3.170	184.13	-1.40	3.70	 	 	 	 	 	 	 	 	 	 	 	 	 	 	 	 	 	 	1581494915	7.83	14.50
12/02/2020 08:08:36	120220	12022020	080836	184.41	12.859808	-57.121507	184.60	0.170	0.500	2.470	184.48	-0.80	3.00	 	 	 	 	 	 	 	 	 	 	 	 	 	 	 	 	 	 	1581494916	7.22	13.37
12/02/2020 08:08:37	120220	12022020	080837	184.86	12.859777	-57.121510	185.03	0.140	0.710	1.700	184.95	-0.70	2.20	 	 	 	 	 	 	 	 	 	 	 	 	 	 	 	 	 	 	1581494917	6.99	12.95
12/02/2020 08:08:38	120220	12022020	080838	185.29	12.859743	-57.121512	185.42	0.040	0.460	1.100	185.36	-0.90	1.60	 	 	 	 	 	 	 	 	 	 	 	 	 	 	 	 	 	 	1581494918	7.17	13.28
12/02/2020 08:08:39	120220	12022020	080839	185.57	12.859708	-57.121513	185.69	-0.010	-0.030	0.980	185.60	-1.40	1.50	 	 	 	 	 	 	 	 	 	 	 	 	 	 	 	 	 	 	1581494919	7.41	13.72
12/02/2020 08:08:40	120220	12022020	080840	185.70	12.859673	-57.121517	185.84	0.010	-0.640	1.160	185.71	-2.00	1.70	 	 	 	 	 	 	 	 	 	 	 	 	 	 	 	 	 	 	1581494920	7.52	13.93
12/02/2020 08:08:41	120220	12022020	080841	185.64	12.859638	-57.121523	185.75	0.100	-1.240	1.520	185.59	-2.60	2.10	 	 	 	 	 	 	 	 	 	 	 	 	 	 	 	 	 	 	1581494921	7.65	14.17
12/02/2020 08:08:42	120220	12022020	080842	185.27	12.859603	-57.121533	185.38	0.240	-1.570	2.040	185.16	-2.90	2.60	 	 	 	 	 	 	 	 	 	 	 	 	 	 	 	 	 	 	1581494922	7.79	14.43
12/02/2020 08:08:43	120220	12022020	080843	184.65	12.859568	-57.121542	184.76	0.330	-1.300	2.570	184.51	-2.60	3.10	 	 	 	 	 	 	 	 	 	 	 	 	 	 	 	 	 	 	1581494923	7.79	14.43
12/02/2020 08:08:44	120220	12022020	080844	184.05	12.859535	-57.121548	184.19	0.120	-0.520	2.950	183.96	-1.80	3.50	 	 	 	 	 	 	 	 	 	 	 	 	 	 	 	 	 	 	1581494924	7.43	13.76
12/02/2020 08:08:45	120220	12022020	080845	183.81	12.859502	-57.121555	183.98	-0.460	0.320	3.130	183.82	-1.00	3.60	 	 	 	 	 	 	 	 	 	 	 	 	 	 	 	 	 	 	1581494925	7.17	13.28
12/02/2020 08:08:46	120220	12022020	080846	184.04	12.859470	-57.121563	184.25	-0.980	0.900	3.080	184.14	-0.40	3.60	 	 	 	 	 	 	 	 	 	 	 	 	 	 	 	 	 	 	1581494926	7.26	13.45
12/02/2020 08:08:47	120220	12022020	080847	184.67	12.859437	-57.121575	184.86	-0.890	1.190	2.560	184.81	-0.20	3.00	 	 	 	 	 	 	 	 	 	 	 	 	 	 	 	 	 	 	1581494927	7.45	13.80
12/02/2020 08:08:48	120220	12022020	080848	185.35	12.859403	-57.121583	185.50	-0.110	0.930	1.710	185.44	-0.50	2.20	 	 	 	 	 	 	 	 	 	 	 	 	 	 	 	 	 	 	1581494928	7.34	13.59
12/02/2020 08:08:49	120220	12022020	080849	185.70	12.859368	-57.121585	185.80	0.760	0.050	1.140	185.72	-1.40	1.60	 	 	 	 	 	 	 	 	 	 	 	 	 	 	 	 	 	 	1581494929	7.57	14.02
12/02/2020 08:08:50	120220	12022020	080850	185.63	12.859332	-57.121587	185.73	1.110	-0.960	1.030	185.58	-2.40	1.60	 	 	 	 	 	 	 	 	 	 	 	 	 	 	 	 	 	 	1581494930	8.02	14.85
12/02/2020 08:08:51	120220	12022020	080851	185.34	12.859293	-57.121588	185.43	0.790	-1.510	1.320	185.29	-2.90	1.90	 	 	 	 	 	 	 	 	 	 	 	 	 	 	 	 	 	 	1581494931	8.03	14.87
12/02/2020 08:08:52	120220	12022020	080852	185.18	12.859258	-57.121593	185.31	0.050	-1.330	1.840	185.16	-2.70	2.40	 	 	 	 	 	 	 	 	 	 	 	 	 	 	 	 	 	 	1581494932	7.63	14.13
12/02/2020 08:08:53	120220	12022020	080853	185.12	12.859227	-57.121603	185.27	-0.660	-0.740	2.480	185.10	-2.10	3.00	 	 	 	 	 	 	 	 	 	 	 	 	 	 	 	 	 	 	1581494933	7.17	13.28
12/02/2020 08:08:54	120220	12022020	080854	185.00	12.859195	-57.121615	185.12	-0.940	-0.310	3.060	184.96	-1.70	3.60	 	 	 	 	 	 	 	 	 	 	 	 	 	 	 	 	 	 	1581494934	7.15	13.24
12/02/2020 08:08:55	120220	12022020	080855	184.75	12.859163	-57.121628	184.88	-0.640	-0.180	3.260	184.70	-1.50	3.80	 	 	 	 	 	 	 	 	 	 	 	 	 	 	 	 	 	 	1581494935	7.61	14.09
12/02/2020 08:08:56	120220	12022020	080856	184.62	12.859127	-57.121638	184.76	-0.050	0.060	2.950	184.63	-1.30	3.40	 	 	 	 	 	 	 	 	 	 	 	 	 	 	 	 	 	 	1581494936	7.93	14.69
12/02/2020 08:08:57	120220	12022020	080857	184.86	12.859092	-57.121645	185.02	0.390	0.550	2.140	184.95	-0.80	2.60	 	 	 	 	 	 	 	 	 	 	 	 	 	 	 	 	 	 	1581494937	7.65	14.17
12/02/2020 08:08:58	120220	12022020	080858	185.21	12.859058	-57.121645	185.41	0.520	0.750	1.280	185.29	-0.60	1.80	 	 	 	 	 	 	 	 	 	 	 	 	 	 	 	 	 	 	1581494938	7.16	13.26
12/02/2020 08:08:59	120220	12022020	080859	185.52	12.859025	-57.121645	185.61	0.500	0.330	0.980	185.52	-1.10	1.50	 	 	 	 	 	 	 	 	 	 	 	 	 	 	 	 	 	 	1581494939	7.26	13.45
12/02/2020 08:09:00	120220	12022020	080900	185.42	12.858988	-57.121645	185.50	0.470	-0.520	1.140	185.36	-1.90	1.70	 	 	 	 	 	 	 	 	 	 	 	 	 	 	 	 	 	 	1581494940	7.72	14.30
12/02/2020 08:09:01	120220	12022020	080901	184.95	12.858952	-57.121648	185.03	0.230	-1.340	1.930	184.84	-2.70	2.50	1014.90	26.20	26.20	20.30	20.40	-1.0	70.0	70.0	397.0	25.8	273.00	11.00	78.00	11.50	16	10332.0	27.3	27.3	1581494941	8.13	15.06
12/02/2020 08:09:02	120220	12022020	080902	184.35	12.858913	-57.121657	184.50	-0.330	-1.530	3.400	184.26	-2.90	4.00	 	 	 	 	 	 	 	 	 	 	 	 	 	 	 	 	 	 	1581494942	8.30	15.37
12/02/2020 08:09:03	120220	12022020	080903	184.12	12.858880	-57.121673	184.31	-0.920	-0.770	4.390	184.13	-2.10	4.90	 	 	 	 	 	 	 	 	 	 	 	 	 	 	 	 	 	 	1581494943	8.20	15.19
12/02/2020 08:09:04	120220	12022020	080904	184.27	12.858850	-57.121692	184.48	-1.110	0.260	4.360	184.33	-1.10	4.80	 	 	 	 	 	 	 	 	 	 	 	 	 	 	 	 	 	 	1581494944	7.41	13.72
12/02/2020 08:09:05	120220	12022020	080905	184.62	12.858820	-57.121703	184.83	-0.660	0.600	3.470	184.72	-0.80	3.90	 	 	 	 	 	 	 	 	 	 	 	 	 	 	 	 	 	 	1581494945	6.89	12.76
12/02/2020 08:09:06	120220	12022020	080906	185.13	12.858787	-57.121710	185.31	0.210	0.240	2.130	185.24	-1.20	2.60	 	 	 	 	 	 	 	 	 	 	 	 	 	 	 	 	 	 	1581494946	7.40	13.70
12/02/2020 08:09:07	120220	12022020	080907	185.59	12.858748	-57.121712	185.71	1.020	-0.220	0.750	185.66	-1.60	1.20	 	 	 	 	 	 	 	 	 	 	 	 	 	 	 	 	 	 	1581494947	7.96	14.74
12/02/2020 08:09:08	120220	12022020	080908	185.80	12.858712	-57.121707	185.87	1.360	-0.380	-0.260	185.80	-1.80	0.30	 	 	 	 	 	 	 	 	 	 	 	 	 	 	 	 	 	 	1581494948	8.03	14.87
12/02/2020 08:09:09	120220	12022020	080909	185.73	12.858677	-57.121702	185.80	1.020	-0.310	-0.420	185.69	-1.70	0.10	 	 	 	 	 	 	 	 	 	 	 	 	 	 	 	 	 	 	1581494949	7.72	14.30
12/02/2020 08:09:10	120220	12022020	080910	185.58	12.858642	-57.121700	185.62	0.110	-0.310	0.410	185.54	-1.70	1.00	 	 	 	 	 	 	 	 	 	 	 	 	 	 	 	 	 	 	1581494950	7.33	13.58
12/02/2020 08:09:11	120220	12022020	080911	185.27	12.858608	-57.121707	185.38	-0.840	-0.600	1.910	185.20	-2.00	2.50	 	 	 	 	 	 	 	 	 	 	 	 	 	 	 	 	 	 	1581494951	7.40	13.70
12/02/2020 08:09:12	120220	12022020	080912	184.99	12.858573	-57.121722	185.09	-1.320	-0.890	3.480	184.93	-2.30	4.10	 	 	 	 	 	 	 	 	 	 	 	 	 	 	 	 	 	 	1581494952	8.29	15.35
12/02/2020 08:09:13	120220	12022020	080913	184.78	12.858538	-57.121743	184.97	-1.070	-0.720	4.370	184.79	-2.10	4.90	 	 	 	 	 	 	 	 	 	 	 	 	 	 	 	 	 	 	1581494953	8.83	16.35
12/02/2020 08:09:14	120220	12022020	080914	184.88	12.858505	-57.121762	185.07	-0.330	-0.230	4.130	184.92	-1.60	4.60	 	 	 	 	 	 	 	 	 	 	 	 	 	 	 	 	 	 	1581494954	8.21	15.20
12/02/2020 08:09:15	120220	12022020	080915	185.03	12.858472	-57.121772	185.19	0.390	0.180	3.080	185.04	-1.20	3.50	 	 	 	 	 	 	 	 	 	 	 	 	 	 	 	 	 	 	1581494955	7.36	13.63
12/02/2020 08:09:16	120220	12022020	080916	185.01	12.858438	-57.121773	185.16	0.730	0.340	1.970	185.00	-1.00	2.40	 	 	 	 	 	 	 	 	 	 	 	 	 	 	 	 	 	 	1581494956	7.23	13.39
12/02/2020 08:09:17	120220	12022020	080917	185.05	12.858403	-57.121773	185.21	0.580	0.460	1.020	185.11	-0.90	1.50	 	 	 	 	 	 	 	 	 	 	 	 	 	 	 	 	 	 	1581494957	7.42	13.74
12/02/2020 08:09:18	120220	12022020	080918	185.47	12.858370	-57.121772	185.62	0.170	0.520	0.290	185.58	-0.90	0.80	 	 	 	 	 	 	 	 	 	 	 	 	 	 	 	 	 	 	1581494958	7.29	13.50
12/02/2020 08:09:19	120220	12022020	080919	186.03	12.858337	-57.121772	186.16	-0.090	0.200	0.080	186.13	-1.20	0.60	 	 	 	 	 	 	 	 	 	 	 	 	 	 	 	 	 	 	1581494959	7.07	13.09
12/02/2020 08:09:20	120220	12022020	080920	186.40	12.858303	-57.121777	186.51	0.060	-0.640	0.420	186.45	-2.10	1.00	 	 	 	 	 	 	 	 	 	 	 	 	 	 	 	 	 	 	1581494960	7.38	13.67
12/02/2020 08:09:21	120220	12022020	080921	186.62	12.858267	-57.121785	186.73	0.410	-1.520	1.090	186.65	-2.90	1.70	 	 	 	 	 	 	 	 	 	 	 	 	 	 	 	 	 	 	1581494961	8.00	14.82
12/02/2020 08:09:22	120220	12022020	080922	186.64	12.858230	-57.121795	186.73	0.500	-1.760	1.960	186.60	-3.10	2.50	 	 	 	 	 	 	 	 	 	 	 	 	 	 	 	 	 	 	1581494962	8.17	15.13
12/02/2020 08:09:23	120220	12022020	080923	186.26	12.858195	-57.121805	186.33	0.210	-1.310	2.950	186.12	-2.60	3.50	 	 	 	 	 	 	 	 	 	 	 	 	 	 	 	 	 	 	1581494963	7.67	14.20
12/02/2020 08:09:24	120220	12022020	080924	185.46	12.858163	-57.121817	185.55	-0.270	-0.540	3.970	185.31	-1.90	4.50	 	 	 	 	 	 	 	 	 	 	 	 	 	 	 	 	 	 	1581494964	7.31	13.54
12/02/2020 08:09:25	120220	12022020	080925	184.92	12.858130	-57.121827	185.07	-0.810	0.400	4.460	184.89	-0.90	5.00	 	 	 	 	 	 	 	 	 	 	 	 	 	 	 	 	 	 	1581494965	7.37	13.65
12/02/2020 08:09:26	120220	12022020	080926	184.95	12.858098	-57.121838	185.14	-1.150	1.060	4.340	184.99	-0.30	4.80	 	 	 	 	 	 	 	 	 	 	 	 	 	 	 	 	 	 	1581494966	7.28	13.48
12/02/2020 08:09:27	120220	12022020	080927	185.24	12.858065	-57.121848	185.43	-0.990	1.050	3.720	185.30	-0.30	4.20	 	 	 	 	 	 	 	 	 	 	 	 	 	 	 	 	 	 	1581494967	7.42	13.74
12/02/2020 08:09:28	120220	12022020	080928	185.63	12.858030	-57.121858	185.81	-0.240	0.530	2.520	185.74	-0.90	3.00	 	 	 	 	 	 	 	 	 	 	 	 	 	 	 	 	 	 	1581494968	7.85	14.54
12/02/2020 08:09:29	120220	12022020	080929	186.26	12.857993	-57.121862	186.44	0.650	0.120	0.960	186.40	-1.30	1.40	 	 	 	 	 	 	 	 	 	 	 	 	 	 	 	 	 	 	1581494969	8.04	14.89
12/02/2020 08:09:30	120220	12022020	080930	186.92	12.857958	-57.121860	187.06	1.140	-0.140	-0.230	187.02	-1.50	0.30	 	 	 	 	 	 	 	 	 	 	 	 	 	 	 	 	 	 	1581494970	7.61	14.09
12/02/2020 08:09:31	120220	12022020	080931	187.13	12.857925	-57.121858	187.20	1.130	-0.610	-0.480	187.09	-2.00	0.10	 	 	 	 	 	 	 	 	 	 	 	 	 	 	 	 	 	 	1581494971	7.20	13.33
12/02/2020 08:09:32	120220	12022020	080932	186.72	12.857890	-57.121860	186.76	0.730	-1.200	0.320	186.60	-2.60	0.90	 	 	 	 	 	 	 	 	 	 	 	 	 	 	 	 	 	 	1581494972	7.31	13.54
12/02/2020 08:09:33	120220	12022020	080933	186.06	12.857855	-57.121867	186.10	0.060	-1.340	1.810	185.92	-2.70	2.40	 	 	 	 	 	 	 	 	 	 	 	 	 	 	 	 	 	 	1581494973	7.57	14.02
12/02/2020 08:09:34	120220	12022020	080934	185.42	12.857823	-57.121880	185.51	-0.560	-0.860	3.290	185.31	-2.20	3.90	 	 	 	 	 	 	 	 	 	 	 	 	 	 	 	 	 	 	1581494974	7.66	14.19
12/02/2020 08:09:35	120220	12022020	080935	185.02	12.857792	-57.121898	185.13	-0.790	-0.060	4.090	184.98	-1.40	4.60	 	 	 	 	 	 	 	 	 	 	 	 	 	 	 	 	 	 	1581494975	7.60	14.08
12/02/2020 08:09:36	120220	12022020	080936	185.03	12.857762	-57.121913	185.20	-0.570	0.520	3.870	185.09	-0.80	4.30	 	 	 	 	 	 	 	 	 	 	 	 	 	 	 	 	 	 	1581494976	7.30	13.52
12/02/2020 08:09:37	120220	12022020	080937	185.47	12.857730	-57.121923	185.65	-0.100	0.610	2.800	185.56	-0.80	3.20	 	 	 	 	 	 	 	 	 	 	 	 	 	 	 	 	 	 	1581494977	7.15	13.24
12/02/2020 08:09:38	120220	12022020	080938	185.96	12.857695	-57.121925	186.10	0.280	0.220	1.440	186.02	-1.20	1.90	 	 	 	 	 	 	 	 	 	 	 	 	 	 	 	 	 	 	1581494978	7.36	13.63
12/02/2020 08:09:39	120220	12022020	080939	186.12	12.857660	-57.121925	186.20	0.460	-0.540	0.600	186.09	-1.90	1.10	 	 	 	 	 	 	 	 	 	 	 	 	 	 	 	 	 	 	1581494979	7.68	14.22
12/02/2020 08:09:40	120220	12022020	080940	185.78	12.857623	-57.121925	185.84	0.510	-1.440	0.710	185.68	-2.80	1.30	 	 	 	 	 	 	 	 	 	 	 	 	 	 	 	 	 	 	1581494980	7.98	14.78
12/02/2020 08:09:41	120220	12022020	080941	185.25	12.857585	-57.121930	185.32	0.380	-1.680	1.410	185.15	-3.00	2.00	 	 	 	 	 	 	 	 	 	 	 	 	 	 	 	 	 	 	1581494981	8.25	15.28
12/02/2020 08:09:42	120220	12022020	080942	184.90	12.857550	-57.121937	185.03	-0.100	-0.740	2.220	184.87	-2.00	2.80	 	 	 	 	 	 	 	 	 	 	 	 	 	 	 	 	 	 	1581494982	7.82	14.48
12/02/2020 08:09:43	120220	12022020	080943	184.94	12.857520	-57.121948	185.10	-0.750	0.760	2.700	185.00	-0.50	3.20	 	 	 	 	 	 	 	 	 	 	 	 	 	 	 	 	 	 	1581494983	6.85	12.69
12/02/2020 08:09:44	120220	12022020	080944	185.31	12.857492	-57.121960	185.48	-1.110	1.610	2.710	185.38	0.30	3.20	 	 	 	 	 	 	 	 	 	 	 	 	 	 	 	 	 	 	1581494984	6.35	11.76
12/02/2020 08:09:45	120220	12022020	080945	185.58	12.857462	-57.121970	185.73	-0.810	1.170	2.630	185.61	-0.30	3.10	 	 	 	 	 	 	 	 	 	 	 	 	 	 	 	 	 	 	1581494985	6.84	12.67
12/02/2020 08:09:46	120220	12022020	080946	185.65	12.857427	-57.121980	185.80	-0.040	0.110	2.450	185.66	-1.30	2.90	 	 	 	 	 	 	 	 	 	 	 	 	 	 	 	 	 	 	1581494986	7.94	14.70
12/02/2020 08:09:47	120220	12022020	080947	185.76	12.857388	-57.121987	185.89	0.680	-0.610	1.950	185.79	-2.00	2.40	 	 	 	 	 	 	 	 	 	 	 	 	 	 	 	 	 	 	1581494987	8.26	15.30
12/02/2020 08:09:48	120220	12022020	080948	185.86	12.857353	-57.121988	186.00	1.050	-0.890	1.300	185.88	-2.30	1.80	 	 	 	 	 	 	 	 	 	 	 	 	 	 	 	 	 	 	1581494988	7.67	14.20
12/02/2020 08:09:49	120220	12022020	080949	186.02	12.857318	-57.121990	186.12	1.130	-0.990	0.740	186.03	-2.40	1.30	 	 	 	 	 	 	 	 	 	 	 	 	 	 	 	 	 	 	1581494989	7.22	13.37
12/02/2020 08:09:50	120220	12022020	080950	186.02	12.857285	-57.121990	186.11	0.990	-0.990	0.700	185.98	-2.30	1.30	 	 	 	 	 	 	 	 	 	 	 	 	 	 	 	 	 	 	1581494990	7.14	13.22
12/02/2020 08:09:51	120220	12022020	080951	185.75	12.857253	-57.121992	185.85	0.530	-0.730	1.350	185.69	-2.10	1.90	 	 	 	 	 	 	 	 	 	 	 	 	 	 	 	 	 	 	1581494991	7.17	13.28
12/02/2020 08:09:52	120220	12022020	080952	185.47	12.857220	-57.121998	185.60	-0.270	-0.150	2.150	185.43	-1.50	2.70	 	 	 	 	 	 	 	 	 	 	 	 	 	 	 	 	 	 	1581494992	7.08	13.11
12/02/2020 08:09:53	120220	12022020	080953	185.34	12.857190	-57.122008	185.48	-1.110	0.270	2.810	185.32	-1.10	3.30	 	 	 	 	 	 	 	 	 	 	 	 	 	 	 	 	 	 	1581494993	6.98	12.93
12/02/2020 08:09:54	120220	12022020	080954	185.26	12.857158	-57.122023	185.40	-1.500	0.110	3.330	185.24	-1.30	3.90	 	 	 	 	 	 	 	 	 	 	 	 	 	 	 	 	 	 	1581494994	7.43	13.76
12/02/2020 08:09:55	120220	12022020	080955	185.12	12.857123	-57.122040	185.25	-1.100	-0.320	3.550	185.10	-1.70	4.10	 	 	 	 	 	 	 	 	 	 	 	 	 	 	 	 	 	 	1581494995	8.20	15.19
12/02/2020 08:09:56	120220	12022020	080956	185.14	12.857087	-57.122053	185.29	-0.100	-0.390	2.970	185.19	-1.70	3.40	 	 	 	 	 	 	 	 	 	 	 	 	 	 	 	 	 	 	1581494996	8.36	15.48
12/02/2020 08:09:57	120220	12022020	080957	185.46	12.857052	-57.122060	185.61	0.800	-0.040	1.850	185.53	-1.40	2.30	 	 	 	 	 	 	 	 	 	 	 	 	 	 	 	 	 	 	1581494997	7.65	14.17
12/02/2020 08:09:58	120220	12022020	080958	185.76	12.857018	-57.122058	185.88	1.050	0.080	0.910	185.80	-1.30	1.40	 	 	 	 	 	 	 	 	 	 	 	 	 	 	 	 	 	 	1581494998	7.13	13.20
12/02/2020 08:09:59	120220	12022020	080959	185.84	12.856985	-57.122055	185.93	0.640	-0.280	0.520	185.82	-1.70	1.00	 	 	 	 	 	 	 	 	 	 	 	 	 	 	 	 	 	 	1581494999	7.36	13.63
12/02/2020 08:10:00	120220	12022020	081000	185.72	12.856948	-57.122055	185.82	-0.050	-0.570	0.820	185.70	-1.90	1.40	 	 	 	 	 	 	 	 	 	 	 	 	 	 	 	 	 	 	1581495000	7.70	14.26
12/02/2020 08:10:01	120220	12022020	081001	185.59	12.856915	-57.122063	185.71	-0.540	-0.400	1.620	185.56	-1.70	2.20	1014.80	26.20	26.20	20.20	20.30	-1.0	69.0	69.0	397.0	25.8	273.00	10.90	78.00	11.40	16	10006.0	27.3	27.3	1581495001	7.58	14.04
12/02/2020 08:10:02	120220	12022020	081002	185.48	12.856882	-57.122075	185.60	-0.510	-0.010	2.330	185.47	-1.40	2.90	 	 	 	 	 	 	 	 	 	 	 	 	 	 	 	 	 	 	1581495002	7.31	13.54
12/02/2020 08:10:03	120220	12022020	081003	185.54	12.856852	-57.122087	185.70	-0.090	0.230	2.460	185.57	-1.10	3.00	 	 	 	 	 	 	 	 	 	 	 	 	 	 	 	 	 	 	1581495003	7.13	13.20
12/02/2020 08:10:04	120220	12022020	081004	185.68	12.856818	-57.122093	185.82	0.310	0.070	2.360	185.68	-1.30	2.90	 	 	 	 	 	 	 	 	 	 	 	 	 	 	 	 	 	 	1581495004	7.13	13.20
12/02/2020 08:10:05	120220	12022020	081005	185.56	12.856785	-57.122098	185.70	0.430	-0.410	2.420	185.51	-1.80	2.90	 	 	 	 	 	 	 	 	 	 	 	 	 	 	 	 	 	 	1581495005	7.43	13.76
12/02/2020 08:10:06	120220	12022020	081006	185.22	12.856748	-57.122105	185.33	0.300	-0.850	2.670	185.13	-2.20	3.20	 	 	 	 	 	 	 	 	 	 	 	 	 	 	 	 	 	 	1581495006	7.75	14.35
12/02/2020 08:10:07	120220	12022020	081007	184.79	12.856713	-57.122112	184.89	0.120	-0.950	3.070	184.71	-2.30	3.60	 	 	 	 	 	 	 	 	 	 	 	 	 	 	 	 	 	 	1581495007	7.82	14.48
12/02/2020 08:10:08	120220	12022020	081008	184.59	12.856678	-57.122120	184.72	-0.060	-0.550	3.200	184.60	-1.90	3.70	 	 	 	 	 	 	 	 	 	 	 	 	 	 	 	 	 	 	1581495008	7.72	14.30
12/02/2020 08:10:09	120220	12022020	081009	184.84	12.856647	-57.122130	185.00	-0.240	0.220	2.730	184.93	-1.10	3.20	 	 	 	 	 	 	 	 	 	 	 	 	 	 	 	 	 	 	1581495009	7.24	13.41
12/02/2020 08:10:10	120220	12022020	081010	185.35	12.856615	-57.122135	185.50	-0.300	0.770	1.910	185.45	-0.60	2.40	 	 	 	 	 	 	 	 	 	 	 	 	 	 	 	 	 	 	1581495010	6.67	12.35
12/02/2020 08:10:11	120220	12022020	081011	185.81	12.856585	-57.122138	185.95	-0.120	0.550	1.090	185.89	-0.80	1.60	 	 	 	 	 	 	 	 	 	 	 	 	 	 	 	 	 	 	1581495011	6.77	12.54
12/02/2020 08:10:12	120220	12022020	081012	186.11	12.856550	-57.122140	186.22	0.140	-0.220	0.540	186.14	-1.60	1.10	 	 	 	 	 	 	 	 	 	 	 	 	 	 	 	 	 	 	1581495012	7.48	13.85
12/02/2020 08:10:13	120220	12022020	081013	186.20	12.856513	-57.122143	186.32	0.270	-0.970	0.580	186.21	-2.40	1.10	 	 	 	 	 	 	 	 	 	 	 	 	 	 	 	 	 	 	1581495013	7.95	14.72
12/02/2020 08:10:14	120220	12022020	081014	186.23	12.856477	-57.122148	186.35	0.240	-1.180	0.980	186.23	-2.50	1.50	 	 	 	 	 	 	 	 	 	 	 	 	 	 	 	 	 	 	1581495014	7.92	14.67
12/02/2020 08:10:15	120220	12022020	081015	186.12	12.856442	-57.122155	186.22	0.170	-0.930	1.540	186.06	-2.30	2.10	 	 	 	 	 	 	 	 	 	 	 	 	 	 	 	 	 	 	1581495015	7.44	13.78
12/02/2020 08:10:16	120220	12022020	081016	185.71	12.856410	-57.122162	185.81	0.110	-0.680	2.280	185.62	-2.00	2.80	 	 	 	 	 	 	 	 	 	 	 	 	 	 	 	 	 	 	1581495016	7.20	13.33
12/02/2020 08:10:17	120220	12022020	081017	185.19	12.856375	-57.122170	185.29	-0.100	-0.450	2.970	185.10	-1.80	3.50	 	 	 	 	 	 	 	 	 	 	 	 	 	 	 	 	 	 	1581495017	7.53	13.95
12/02/2020 08:10:18	120220	12022020	081018	184.86	12.856340	-57.122180	185.00	-0.480	-0.040	3.240	184.85	-1.40	3.70	 	 	 	 	 	 	 	 	 	 	 	 	 	 	 	 	 	 	1581495018	7.78	14.41
12/02/2020 08:10:19	120220	12022020	081019	184.97	12.856307	-57.122188	185.14	-0.890	0.550	3.080	185.04	-0.80	3.50	 	 	 	 	 	 	 	 	 	 	 	 	 	 	 	 	 	 	1581495019	7.60	14.08
12/02/2020 08:10:20	120220	12022020	081020	185.39	12.856273	-57.122197	185.55	-0.990	0.930	2.650	185.48	-0.40	3.10	 	 	 	 	 	 	 	 	 	 	 	 	 	 	 	 	 	 	1581495020	7.24	13.41
12/02/2020 08:10:21	120220	12022020	081021	185.74	12.856242	-57.122205	185.87	-0.570	0.730	2.120	185.78	-0.70	2.60	 	 	 	 	 	 	 	 	 	 	 	 	 	 	 	 	 	 	1581495021	7.22	13.37
12/02/2020 08:10:22	120220	12022020	081022	185.84	12.856207	-57.122212	185.95	0.250	0.090	1.580	185.84	-1.30	2.00	 	 	 	 	 	 	 	 	 	 	 	 	 	 	 	 	 	 	1581495022	7.60	14.08
12/02/2020 08:10:23	120220	12022020	081023	185.82	12.856170	-57.122217	185.91	1.010	-0.440	1.070	185.82	-1.80	1.50	 	 	 	 	 	 	 	 	 	 	 	 	 	 	 	 	 	 	1581495023	7.86	14.56
12/02/2020 08:10:24	120220	12022020	081024	185.86	12.856135	-57.122218	185.96	1.260	-0.560	0.700	185.87	-1.90	1.20	 	 	 	 	 	 	 	 	 	 	 	 	 	 	 	 	 	 	1581495024	7.66	14.19
12/02/2020 08:10:25	120220	12022020	081025	185.97	12.856102	-57.122218	186.09	0.940	-0.450	0.680	185.99	-1.80	1.20	 	 	 	 	 	 	 	 	 	 	 	 	 	 	 	 	 	 	1581495025	7.17	13.28
12/02/2020 08:10:26	120220	12022020	081026	186.08	12.856068	-57.122222	186.21	0.320	-0.480	1.060	186.09	-1.80	1.60	 	 	 	 	 	 	 	 	 	 	 	 	 	 	 	 	 	 	1581495026	6.87	12.72
12/02/2020 08:10:27	120220	12022020	081027	185.96	12.856037	-57.122228	186.07	-0.150	-0.920	1.850	185.90	-2.30	2.40	 	 	 	 	 	 	 	 	 	 	 	 	 	 	 	 	 	 	1581495027	7.18	13.30
12/02/2020 08:10:28	120220	12022020	081028	185.52	12.856002	-57.122240	185.63	-0.280	-1.410	2.840	185.42	-2.80	3.40	 	 	 	 	 	 	 	 	 	 	 	 	 	 	 	 	 	 	1581495028	7.95	14.72
12/02/2020 08:10:29	120220	12022020	081029	185.00	12.855965	-57.122252	185.12	-0.340	-1.290	3.550	184.92	-2.60	4.10	 	 	 	 	 	 	 	 	 	 	 	 	 	 	 	 	 	 	1581495029	8.30	15.37
12/02/2020 08:10:30	120220	12022020	081030	184.71	12.855930	-57.122263	184.85	-0.570	-0.510	3.640	184.69	-1.80	4.10	 	 	 	 	 	 	 	 	 	 	 	 	 	 	 	 	 	 	1581495030	7.87	14.58
12/02/2020 08:10:31	120220	12022020	081031	184.77	12.855897	-57.122272	184.92	-0.820	0.360	3.240	184.82	-0.90	3.70	 	 	 	 	 	 	 	 	 	 	 	 	 	 	 	 	 	 	1581495031	7.26	13.45
12/02/2020 08:10:32	120220	12022020	081032	185.15	12.855863	-57.122278	185.31	-0.760	0.830	2.460	185.25	-0.50	2.90	 	 	 	 	 	 	 	 	 	 	 	 	 	 	 	 	 	 	1581495032	7.18	13.30
12/02/2020 08:10:33	120220	12022020	081033	185.70	12.855830	-57.122282	185.84	-0.360	0.780	1.520	185.81	-0.60	2.00	 	 	 	 	 	 	 	 	 	 	 	 	 	 	 	 	 	 	1581495033	7.47	13.83
12/02/2020 08:10:34	120220	12022020	081034	186.12	12.855793	-57.122283	186.22	0.100	0.270	0.940	186.16	-1.10	1.40	 	 	 	 	 	 	 	 	 	 	 	 	 	 	 	 	 	 	1581495034	7.81	14.46
12/02/2020 08:10:35	120220	12022020	081035	186.19	12.855757	-57.122287	186.25	0.390	-0.400	0.950	186.16	-1.80	1.50	 	 	 	 	 	 	 	 	 	 	 	 	 	 	 	 	 	 	1581495035	8.04	14.89
12/02/2020 08:10:36	120220	12022020	081036	186.01	12.855718	-57.122292	186.07	0.510	-0.630	1.290	185.96	-2.00	1.80	 	 	 	 	 	 	 	 	 	 	 	 	 	 	 	 	 	 	1581495036	8.06	14.93
12/02/2020 08:10:37	120220	12022020	081037	185.77	12.855685	-57.122298	185.85	0.550	-0.270	1.640	185.73	-1.60	2.20	 	 	 	 	 	 	 	 	 	 	 	 	 	 	 	 	 	 	1581495037	7.52	13.93
12/02/2020 08:10:38	120220	12022020	081038	185.58	12.855653	-57.122305	185.61	0.640	-0.060	1.940	185.53	-1.40	2.50	 	 	 	 	 	 	 	 	 	 	 	 	 	 	 	 	 	 	1581495038	6.93	12.83
12/02/2020 08:10:39	120220	12022020	081039	185.23	12.855620	-57.122310	185.33	0.650	-0.290	2.260	185.19	-1.70	2.80	 	 	 	 	 	 	 	 	 	 	 	 	 	 	 	 	 	 	1581495039	7.25	13.43
12/02/2020 08:10:40	120220	12022020	081040	185.23	12.855583	-57.122315	185.38	0.240	-0.350	2.450	185.29	-1.70	2.90	 	 	 	 	 	 	 	 	 	 	 	 	 	 	 	 	 	 	1581495040	7.82	14.48
12/02/2020 08:10:41	120220	12022020	081041	185.73	12.855550	-57.122322	185.92	-0.600	0.090	2.480	185.86	-1.20	3.00	 	 	 	 	 	 	 	 	 	 	 	 	 	 	 	 	 	 	1581495041	7.50	13.89
12/02/2020 08:10:42	120220	12022020	081042	186.41	12.855520	-57.122332	186.59	-1.370	0.340	2.500	186.51	-1.00	3.00	 	 	 	 	 	 	 	 	 	 	 	 	 	 	 	 	 	 	1581495042	6.79	12.58
12/02/2020 08:10:43	120220	12022020	081043	186.71	12.855488	-57.122345	186.85	-1.310	-0.380	2.580	186.70	-1.80	3.10	 	 	 	 	 	 	 	 	 	 	 	 	 	 	 	 	 	 	1581495043	7.07	13.09
12/02/2020 08:10:44	120220	12022020	081044	186.43	12.855453	-57.122358	186.51	-0.190	-1.780	2.570	186.31	-3.20	3.10	 	 	 	 	 	 	 	 	 	 	 	 	 	 	 	 	 	 	1581495044	8.25	15.28
12/02/2020 08:10:45	120220	12022020	081045	185.83	12.855412	-57.122368	185.88	1.200	-2.370	2.310	185.73	-3.70	2.80	 	 	 	 	 	 	 	 	 	 	 	 	 	 	 	 	 	 	1581495045	9.15	16.95
12/02/2020 08:10:46	120220	12022020	081046	185.57	12.855372	-57.122372	185.65	1.730	-1.040	1.570	185.59	-2.30	2.00	 	 	 	 	 	 	 	 	 	 	 	 	 	 	 	 	 	 	1581495046	8.50	15.74
12/02/2020 08:10:47	120220	12022020	081047	185.85	12.855340	-57.122368	185.95	1.010	1.040	0.630	185.94	-0.20	1.10	 	 	 	 	 	 	 	 	 	 	 	 	 	 	 	 	 	 	1581495047	6.80	12.59
12/02/2020 08:10:48	120220	12022020	081048	186.25	12.855313	-57.122363	186.31	-0.320	1.940	0.430	186.29	0.60	1.00	 	 	 	 	 	 	 	 	 	 	 	 	 	 	 	 	 	 	1581495048	6.05	11.20
12/02/2020 08:10:49	120220	12022020	081049	186.24	12.855282	-57.122365	186.28	-1.270	1.170	1.420	186.18	-0.30	2.00	 	 	 	 	 	 	 	 	 	 	 	 	 	 	 	 	 	 	1581495049	6.84	12.67
12/02/2020 08:10:50	120220	12022020	081050	185.86	12.855243	-57.122378	185.79	-1.400	-0.440	2.980	185.74	-1.90	3.50	 	 	 	 	 	 	 	 	 	 	 	 	 	 	 	 	 	 	1581495050	8.64	16.00
12/02/2020 08:10:51	120220	12022020	081051	185.01	12.855202	-57.122398	185.08	-0.920	-1.490	4.380	184.87	-2.90	4.90	 	 	 	 	 	 	 	 	 	 	 	 	 	 	 	 	 	 	1581495051	9.73	18.02
12/02/2020 08:10:52	120220	12022020	081052	184.57	12.855165	-57.122418	184.65	-0.310	-1.150	4.870	184.52	-2.40	5.30	 	 	 	 	 	 	 	 	 	 	 	 	 	 	 	 	 	 	1581495052	9.26	17.15
12/02/2020 08:10:53	120220	12022020	081053	184.65	12.855133	-57.122433	184.82	0.130	0.090	3.980	184.74	-1.20	4.40	 	 	 	 	 	 	 	 	 	 	 	 	 	 	 	 	 	 	1581495053	7.41	13.72
12/02/2020 08:10:54	120220	12022020	081054	185.19	12.855107	-57.122438	185.34	0.420	0.870	2.090	185.29	-0.50	2.50	 	 	 	 	 	 	 	 	 	 	 	 	 	 	 	 	 	 	1581495054	5.91	10.95
12/02/2020 08:10:55	120220	12022020	081055	185.59	12.855077	-57.122435	185.68	0.800	0.370	0.160	185.63	-1.00	0.60	 	 	 	 	 	 	 	 	 	 	 	 	 	 	 	 	 	 	1581495055	6.46	11.96
12/02/2020 08:10:56	120220	12022020	081056	185.70	12.855040	-57.122428	185.75	1.200	-0.720	-0.940	185.71	-2.10	-0.40	 	 	 	 	 	 	 	 	 	 	 	 	 	 	 	 	 	 	1581495056	7.89	14.61
12/02/2020 08:10:57	120220	12022020	081057	185.73	12.855002	-57.122423	185.77	1.220	-1.380	-1.070	185.72	-2.70	-0.50	 	 	 	 	 	 	 	 	 	 	 	 	 	 	 	 	 	 	1581495057	8.42	15.59
12/02/2020 08:10:58	120220	12022020	081058	185.62	12.854965	-57.122423	185.68	0.640	-1.310	-0.360	185.58	-2.60	0.20	 	 	 	 	 	 	 	 	 	 	 	 	 	 	 	 	 	 	1581495058	7.80	14.45
12/02/2020 08:10:59	120220	12022020	081059	185.38	12.854932	-57.122428	185.46	-0.260	-0.900	1.010	185.31	-2.20	1.60	 	 	 	 	 	 	 	 	 	 	 	 	 	 	 	 	 	 	1581495059	7.25	13.43
12/02/2020 08:11:00	120220	12022020	081100	185.04	12.854900	-57.122442	185.16	-1.080	-0.450	2.740	184.97	-1.80	3.30	 	 	 	 	 	 	 	 	 	 	 	 	 	 	 	 	 	 	1581495060	7.47	13.83
12/02/2020 08:11:01	120220	12022020	081101	184.70	12.854867	-57.122460	184.84	-1.460	-0.020	4.260	184.63	-1.30	4.80	1014.90	26.20	26.30	20.50	20.50	-1.0	70.0	70.0	397.0	25.8	275.00	11.10	80.00	11.50	16	9513.0	27.3	27.3	1581495061	8.04	14.89
12/02/2020 08:11:02	120220	12022020	081102	184.45	12.854833	-57.122480	184.61	-1.280	0.330	4.970	184.42	-1.00	5.40	 	 	 	 	 	 	 	 	 	 	 	 	 	 	 	 	 	 	1581495062	8.27	15.32
12/02/2020 08:11:03	120220	12022020	081103	184.45	12.854798	-57.122495	184.66	-0.730	0.560	4.650	184.49	-0.80	5.10	 	 	 	 	 	 	 	 	 	 	 	 	 	 	 	 	 	 	1581495063	8.05	14.91
12/02/2020 08:11:04	120220	12022020	081104	184.84	12.854765	-57.122503	185.07	-0.100	0.670	3.500	184.96	-0.70	3.90	 	 	 	 	 	 	 	 	 	 	 	 	 	 	 	 	 	 	1581495064	7.65	14.17
12/02/2020 08:11:05	120220	12022020	081105	185.55	12.854730	-57.122507	185.77	0.440	0.570	1.870	185.70	-0.80	2.30	 	 	 	 	 	 	 	 	 	 	 	 	 	 	 	 	 	 	1581495065	7.37	13.65
12/02/2020 08:11:06	120220	12022020	081106	186.33	12.854697	-57.122503	186.49	0.930	0.180	0.150	186.46	-1.20	0.60	 	 	 	 	 	 	 	 	 	 	 	 	 	 	 	 	 	 	1581495066	7.35	13.61
12/02/2020 08:11:07	120220	12022020	081107	186.84	12.854662	-57.122498	186.95	1.250	-0.410	-0.880	186.88	-1.80	-0.40	 	 	 	 	 	 	 	 	 	 	 	 	 	 	 	 	 	 	1581495067	7.57	14.02
12/02/2020 08:11:08	120220	12022020	081108	186.84	12.854627	-57.122495	186.88	1.150	-1.050	-0.710	186.77	-2.40	-0.20	 	 	 	 	 	 	 	 	 	 	 	 	 	 	 	 	 	 	1581495068	7.59	14.06
12/02/2020 08:11:09	120220	12022020	081109	186.41	12.854592	-57.122498	186.45	0.630	-1.440	0.530	186.31	-2.80	1.10	 	 	 	 	 	 	 	 	 	 	 	 	 	 	 	 	 	 	1581495069	7.50	13.89
12/02/2020 08:11:10	120220	12022020	081110	186.01	12.854557	-57.122510	186.10	-0.060	-1.270	2.040	185.95	-2.60	2.60	 	 	 	 	 	 	 	 	 	 	 	 	 	 	 	 	 	 	1581495070	7.64	14.15
12/02/2020 08:11:11	120220	12022020	081111	185.88	12.854525	-57.122525	186.03	-0.590	-0.640	3.230	185.90	-1.90	3.70	 	 	 	 	 	 	 	 	 	 	 	 	 	 	 	 	 	 	1581495071	7.59	14.06
12/02/2020 08:11:12	120220	12022020	081112	186.04	12.854495	-57.122540	186.19	-0.810	-0.000	3.660	186.09	-1.30	4.10	 	 	 	 	 	 	 	 	 	 	 	 	 	 	 	 	 	 	1581495072	7.43	13.76
12/02/2020 08:11:13	120220	12022020	081113	186.27	12.854462	-57.122552	186.43	-0.730	0.330	3.390	186.32	-1.00	3.80	 	 	 	 	 	 	 	 	 	 	 	 	 	 	 	 	 	 	1581495073	7.33	13.58
12/02/2020 08:11:14	120220	12022020	081114	186.43	12.854428	-57.122560	186.61	-0.500	0.250	2.800	186.47	-1.10	3.20	 	 	 	 	 	 	 	 	 	 	 	 	 	 	 	 	 	 	1581495074	7.48	13.85
12/02/2020 08:11:15	120220	12022020	081115	186.55	12.854393	-57.122565	186.67	-0.260	-0.120	2.260	186.54	-1.50	2.70	 	 	 	 	 	 	 	 	 	 	 	 	 	 	 	 	 	 	1581495075	7.81	14.46
12/02/2020 08:11:16	120220	12022020	081116	186.46	12.854357	-57.122572	186.57	-0.080	-0.340	1.980	186.43	-1.70	2.50	 	 	 	 	 	 	 	 	 	 	 	 	 	 	 	 	 	 	1581495076	8.00	14.82
12/02/2020 08:11:17	120220	12022020	081117	186.30	12.854320	-57.122578	186.40	0.080	-0.100	1.800	186.27	-1.50	2.30	 	 	 	 	 	 	 	 	 	 	 	 	 	 	 	 	 	 	1581495077	7.75	14.35
12/02/2020 08:11:18	120220	12022020	081118	186.18	12.854288	-57.122585	186.26	0.310	0.330	1.500	186.16	-1.00	2.00	 	 	 	 	 	 	 	 	 	 	 	 	 	 	 	 	 	 	1581495078	7.14	13.22
12/02/2020 08:11:19	120220	12022020	081119	186.08	12.854257	-57.122590	186.15	0.590	0.430	1.200	186.07	-1.00	1.70	 	 	 	 	 	 	 	 	 	 	 	 	 	 	 	 	 	 	1581495079	6.81	12.61
12/02/2020 08:11:20	120220	12022020	081120	186.08	12.854223	-57.122593	186.17	0.750	-0.030	1.090	186.10	-1.40	1.60	 	 	 	 	 	 	 	 	 	 	 	 	 	 	 	 	 	 	1581495080	7.17	13.28
12/02/2020 08:11:21	120220	12022020	081121	186.26	12.854188	-57.122597	186.38	0.620	-0.650	1.400	186.31	-2.00	1.90	 	 	 	 	 	 	 	 	 	 	 	 	 	 	 	 	 	 	1581495081	7.69	14.24
12/02/2020 08:11:22	120220	12022020	081122	186.47	12.854152	-57.122603	186.60	0.230	-1.010	2.220	186.49	-2.40	2.80	 	 	 	 	 	 	 	 	 	 	 	 	 	 	 	 	 	 	1581495082	7.83	14.50
12/02/2020 08:11:23	120220	12022020	081123	186.47	12.854118	-57.122615	186.59	-0.210	-1.000	3.230	186.44	-2.40	3.80	 	 	 	 	 	 	 	 	 	 	 	 	 	 	 	 	 	 	1581495083	7.71	14.28
12/02/2020 08:11:24	120220	12022020	081124	186.22	12.854087	-57.122630	186.33	-0.480	-0.730	3.980	186.15	-2.10	4.50	 	 	 	 	 	 	 	 	 	 	 	 	 	 	 	 	 	 	1581495084	7.55	13.98
12/02/2020 08:11:25	120220	12022020	081125	185.81	12.854055	-57.122643	185.90	-0.490	-0.350	4.230	185.73	-1.70	4.70	 	 	 	 	 	 	 	 	 	 	 	 	 	 	 	 	 	 	1581495085	7.42	13.74
12/02/2020 08:11:26	120220	12022020	081126	185.53	12.854022	-57.122653	185.57	-0.320	0.010	3.920	185.48	-1.30	4.40	 	 	 	 	 	 	 	 	 	 	 	 	 	 	 	 	 	 	1581495086	7.34	13.59
12/02/2020 08:11:27	120220	12022020	081127	185.30	12.853988	-57.122660	185.40	-0.090	0.180	3.260	185.27	-1.20	3.70	 	 	 	 	 	 	 	 	 	 	 	 	 	 	 	 	 	 	1581495087	7.29	13.50
12/02/2020 08:11:28	120220	12022020	081128	185.18	12.853953	-57.122663	185.25	0.110	0.000	2.650	185.15	-1.40	3.10	 	 	 	 	 	 	 	 	 	 	 	 	 	 	 	 	 	 	1581495088	7.46	13.82
12/02/2020 08:11:29	120220	12022020	081129	185.07	12.853917	-57.122665	185.17	0.180	-0.300	2.210	185.07	-1.70	2.70	 	 	 	 	 	 	 	 	 	 	 	 	 	 	 	 	 	 	1581495089	7.83	14.50
12/02/2020 08:11:30	120220	12022020	081130	185.23	12.853880	-57.122670	185.36	0.040	-0.310	2.040	185.29	-1.70	2.60	 	 	 	 	 	 	 	 	 	 	 	 	 	 	 	 	 	 	1581495090	7.91	14.65
12/02/2020 08:11:31	120220	12022020	081131	185.68	12.853847	-57.122677	185.82	-0.210	0.080	2.030	185.79	-1.30	2.50	 	 	 	 	 	 	 	 	 	 	 	 	 	 	 	 	 	 	1581495091	7.50	13.89
12/02/2020 08:11:32	120220	12022020	081132	186.27	12.853817	-57.122687	186.41	-0.180	0.490	1.770	186.37	-0.90	2.30	 	 	 	 	 	 	 	 	 	 	 	 	 	 	 	 	 	 	1581495092	6.93	12.83
12/02/2020 08:11:33	120220	12022020	081133	186.59	12.853785	-57.122693	186.69	0.350	0.200	1.420	186.60	-1.20	1.90	 	 	 	 	 	 	 	 	 	 	 	 	 	 	 	 	 	 	1581495093	6.71	12.43
12/02/2020 08:11:34	120220	12022020	081134	186.54	12.853752	-57.122698	186.64	0.950	-0.640	1.290	186.52	-2.00	1.80	 	 	 	 	 	 	 	 	 	 	 	 	 	 	 	 	 	 	1581495094	7.47	13.83
12/02/2020 08:11:35	120220	12022020	081135	186.36	12.853713	-57.122700	186.44	0.860	-1.130	1.720	186.31	-2.50	2.30	 	 	 	 	 	 	 	 	 	 	 	 	 	 	 	 	 	 	1581495095	8.11	15.02
12/02/2020 08:11:36	120220	12022020	081136	186.10	12.853678	-57.122705	186.20	-0.030	-0.940	2.480	186.04	-2.30	3.00	 	 	 	 	 	 	 	 	 	 	 	 	 	 	 	 	 	 	1581495096	7.72	14.30
12/02/2020 08:11:37	120220	12022020	081137	185.78	12.853645	-57.122717	185.89	-1.070	-0.490	3.350	185.71	-1.80	3.90	 	 	 	 	 	 	 	 	 	 	 	 	 	 	 	 	 	 	1581495097	7.29	13.50
12/02/2020 08:11:38	120220	12022020	081138	185.58	12.853615	-57.122732	185.72	-1.490	-0.120	3.820	185.58	-1.50	4.30	 	 	 	 	 	 	 	 	 	 	 	 	 	 	 	 	 	 	1581495098	7.55	13.98
12/02/2020 08:11:39	120220	12022020	081139	185.69	12.853582	-57.122748	185.85	-1.010	0.110	3.350	185.74	-1.20	3.80	 	 	 	 	 	 	 	 	 	 	 	 	 	 	 	 	 	 	1581495099	7.79	14.43
12/02/2020 08:11:40	120220	12022020	081140	185.96	12.853548	-57.122758	186.09	-0.070	0.110	2.240	186.01	-1.30	2.70	 	 	 	 	 	 	 	 	 	 	 	 	 	 	 	 	 	 	1581495100	7.56	14.00
12/02/2020 08:11:41	120220	12022020	081141	186.14	12.853513	-57.122762	186.22	0.640	-0.110	1.140	186.16	-1.50	1.60	 	 	 	 	 	 	 	 	 	 	 	 	 	 	 	 	 	 	1581495101	7.63	14.13
12/02/2020 08:11:42	120220	12022020	081142	186.23	12.853477	-57.122762	186.32	0.730	-0.190	0.510	186.25	-1.60	1.00	 	 	 	 	 	 	 	 	 	 	 	 	 	 	 	 	 	 	1581495102	7.77	14.39
12/02/2020 08:11:43	120220	12022020	081143	186.30	12.853442	-57.122763	186.36	0.330	-0.020	0.600	186.29	-1.40	1.10	 	 	 	 	 	 	 	 	 	 	 	 	 	 	 	 	 	 	1581495103	7.39	13.69
12/02/2020 08:11:44	120220	12022020	081144	186.13	12.853410	-57.122768	186.17	0.010	0.030	1.170	186.07	-1.30	1.70	 	 	 	 	 	 	 	 	 	 	 	 	 	 	 	 	 	 	1581495104	7.03	13.02
12/02/2020 08:11:45	120220	12022020	081145	185.72	12.853378	-57.122778	185.77	0.130	-0.210	1.830	185.63	-1.60	2.40	 	 	 	 	 	 	 	 	 	 	 	 	 	 	 	 	 	 	1581495105	7.32	13.56
12/02/2020 08:11:46	120220	12022020	081146	185.34	12.853343	-57.122788	185.43	0.430	-0.370	2.290	185.30	-1.70	2.80	 	 	 	 	 	 	 	 	 	 	 	 	 	 	 	 	 	 	1581495106	7.76	14.37
12/02/2020 08:11:47	120220	12022020	081147	185.28	12.853308	-57.122797	185.40	0.400	-0.180	2.430	185.30	-1.50	2.90	 	 	 	 	 	 	 	 	 	 	 	 	 	 	 	 	 	 	1581495107	7.59	14.06
12/02/2020 08:11:48	120220	12022020	081148	185.44	12.853277	-57.122803	185.56	-0.030	-0.050	2.360	185.47	-1.40	2.90	 	 	 	 	 	 	 	 	 	 	 	 	 	 	 	 	 	 	1581495108	7.06	13.08
12/02/2020 08:11:49	120220	12022020	081149	185.53	12.853243	-57.122810	185.65	-0.550	-0.380	2.430	185.54	-1.80	2.90	 	 	 	 	 	 	 	 	 	 	 	 	 	 	 	 	 	 	1581495109	7.08	13.11
12/02/2020 08:11:50	120220	12022020	081150	185.56	12.853210	-57.122818	185.69	-0.770	-0.870	2.730	185.58	-2.20	3.20	 	 	 	 	 	 	 	 	 	 	 	 	 	 	 	 	 	 	1581495110	7.68	14.22
12/02/2020 08:11:51	120220	12022020	081151	185.67	12.853175	-57.122830	185.79	-0.640	-1.010	2.970	185.68	-2.40	3.50	 	 	 	 	 	 	 	 	 	 	 	 	 	 	 	 	 	 	1581495111	7.96	14.74
12/02/2020 08:11:52	120220	12022020	081152	185.58	12.853140	-57.122842	185.66	-0.270	-0.890	3.050	185.51	-2.20	3.50	 	 	 	 	 	 	 	 	 	 	 	 	 	 	 	 	 	 	1581495112	7.64	14.15
12/02/2020 08:11:53	120220	12022020	081153	185.10	12.853107	-57.122852	185.16	0.200	-0.770	3.050	184.99	-2.10	3.50	 	 	 	 	 	 	 	 	 	 	 	 	 	 	 	 	 	 	1581495113	7.51	13.91
12/02/2020 08:11:54	120220	12022020	081154	184.59	12.853072	-57.122858	184.65	0.510	-0.430	2.900	184.51	-1.80	3.40	 	 	 	 	 	 	 	 	 	 	 	 	 	 	 	 	 	 	1581495114	7.76	14.37
12/02/2020 08:11:55	120220	12022020	081155	184.35	12.853037	-57.122862	184.42	0.530	0.290	2.480	184.35	-1.00	3.00	 	 	 	 	 	 	 	 	 	 	 	 	 	 	 	 	 	 	1581495115	7.66	14.19
12/02/2020 08:11:56	120220	12022020	081156	184.50	12.853003	-57.122863	184.60	0.270	1.140	1.960	184.57	-0.20	2.40	 	 	 	 	 	 	 	 	 	 	 	 	 	 	 	 	 	 	1581495116	7.19	13.32
12/02/2020 08:11:57	120220	12022020	081157	184.90	12.852972	-57.122863	185.02	-0.120	1.520	1.640	184.99	0.10	2.20	 	 	 	 	 	 	 	 	 	 	 	 	 	 	 	 	 	 	1581495117	6.82	12.63
12/02/2020 08:11:58	120220	12022020	081158	185.26	12.852938	-57.122867	185.36	-0.410	0.970	1.750	185.29	-0.40	2.30	 	 	 	 	 	 	 	 	 	 	 	 	 	 	 	 	 	 	1581495118	6.93	12.83
12/02/2020 08:11:59	120220	12022020	081159	185.19	12.852905	-57.122873	185.27	-0.410	-0.380	2.480	185.12	-1.80	3.00	 	 	 	 	 	 	 	 	 	 	 	 	 	 	 	 	 	 	1581495119	7.61	14.09
12/02/2020 08:12:00	120220	12022020	081200	184.71	12.852867	-57.122887	184.79	-0.080	-1.730	3.490	184.60	-3.10	4.00	 	 	 	 	 	 	 	 	 	 	 	 	 	 	 	 	 	 	1581495120	8.53	15.80
12/02/2020 08:12:01	120220	12022020	081201	184.24	12.852828	-57.122902	184.33	0.330	-2.090	3.980	184.18	-3.40	4.50	1014.80	26.20	26.20	20.40	20.50	-1.0	70.0	70.0	396.0	25.8	273.00	11.30	80.00	11.80	16	9857.0	27.3	27.3	1581495121	8.72	16.15
12/02/2020 08:12:02	120220	12022020	081202	184.14	12.852795	-57.122913	184.26	0.520	-1.290	3.520	184.18	-2.60	4.00	 	 	 	 	 	 	 	 	 	 	 	 	 	 	 	 	 	 	1581495122	7.72	14.30
12/02/2020 08:12:03	120220	12022020	081203	184.49	12.852765	-57.122918	184.62	0.380	-0.050	2.390	184.58	-1.40	2.80	 	 	 	 	 	 	 	 	 	 	 	 	 	 	 	 	 	 	1581495123	6.44	11.93
12/02/2020 08:12:04	120220	12022020	081204	184.89	12.852737	-57.122918	184.99	0.140	0.590	1.280	184.95	-0.80	1.70	 	 	 	 	 	 	 	 	 	 	 	 	 	 	 	 	 	 	1581495124	6.05	11.20
12/02/2020 08:12:05	120220	12022020	081205	185.03	12.852705	-57.122917	185.09	0.060	0.110	0.580	185.02	-1.30	1.10	 	 	 	 	 	 	 	 	 	 	 	 	 	 	 	 	 	 	1581495125	6.83	12.65
12/02/2020 08:12:06	120220	12022020	081206	184.92	12.852668	-57.122917	184.91	0.100	-0.880	0.490	184.86	-2.30	1.00	 	 	 	 	 	 	 	 	 	 	 	 	 	 	 	 	 	 	1581495126	8.09	14.98
12/02/2020 08:12:07	120220	12022020	081207	184.50	12.852628	-57.122922	184.58	0.080	-1.250	1.020	184.45	-2.60	1.60	 	 	 	 	 	 	 	 	 	 	 	 	 	 	 	 	 	 	1581495127	8.71	16.13
12/02/2020 08:12:08	120220	12022020	081208	184.39	12.852590	-57.122928	184.52	-0.170	-0.410	1.690	184.42	-1.70	2.20	 	 	 	 	 	 	 	 	 	 	 	 	 	 	 	 	 	 	1581495128	8.20	15.19
12/02/2020 08:12:09	120220	12022020	081209	184.68	12.852558	-57.122938	184.84	-0.620	0.920	2.280	184.75	-0.40	2.80	 	 	 	 	 	 	 	 	 	 	 	 	 	 	 	 	 	 	1581495129	6.96	12.89
12/02/2020 08:12:10	120220	12022020	081210	184.97	12.852532	-57.122947	185.12	-0.910	1.430	2.770	185.00	0.10	3.30	 	 	 	 	 	 	 	 	 	 	 	 	 	 	 	 	 	 	1581495130	6.40	11.85
12/02/2020 08:12:11	120220	12022020	081211	185.10	12.852500	-57.122958	185.27	-0.700	0.670	2.970	185.13	-0.80	3.40	 	 	 	 	 	 	 	 	 	 	 	 	 	 	 	 	 	 	1581495131	7.13	13.20
12/02/2020 08:12:12	120220	12022020	081212	185.21	12.852462	-57.122967	185.38	-0.050	-0.600	2.880	185.23	-2.00	3.40	 	 	 	 	 	 	 	 	 	 	 	 	 	 	 	 	 	 	1581495132	8.23	15.24
12/02/2020 08:12:13	120220	12022020	081213	185.19	12.852423	-57.122975	185.31	0.590	-1.370	2.570	185.15	-2.80	3.00	 	 	 	 	 	 	 	 	 	 	 	 	 	 	 	 	 	 	1581495133	8.49	15.72
12/02/2020 08:12:14	120220	12022020	081214	184.95	12.852387	-57.122982	185.02	0.850	-1.240	2.130	184.89	-2.60	2.60	 	 	 	 	 	 	 	 	 	 	 	 	 	 	 	 	 	 	1581495134	7.88	14.59
12/02/2020 08:12:15	120220	12022020	081215	184.77	12.852355	-57.122985	184.85	0.640	-0.420	1.660	184.77	-1.70	2.10	 	 	 	 	 	 	 	 	 	 	 	 	 	 	 	 	 	 	1581495135	7.01	12.98
12/02/2020 08:12:16	120220	12022020	081216	184.90	12.852325	-57.122987	184.99	0.180	0.410	1.270	184.96	-0.90	1.80	 	 	 	 	 	 	 	 	 	 	 	 	 	 	 	 	 	 	1581495136	6.42	11.89
12/02/2020 08:12:17	120220	12022020	081217	185.23	12.852295	-57.122990	185.33	-0.220	0.650	1.150	185.29	-0.70	1.70	 	 	 	 	 	 	 	 	 	 	 	 	 	 	 	 	 	 	1581495137	6.45	11.95
12/02/2020 08:12:18	120220	12022020	081218	185.42	12.852263	-57.122997	185.52	-0.260	0.170	1.430	185.43	-1.20	1.90	 	 	 	 	 	 	 	 	 	 	 	 	 	 	 	 	 	 	1581495138	7.06	13.08
12/02/2020 08:12:19	120220	12022020	081219	185.37	12.852228	-57.123007	185.45	0.110	-0.610	1.760	185.36	-2.00	2.30	 	 	 	 	 	 	 	 	 	 	 	 	 	 	 	 	 	 	1581495139	7.89	14.61
12/02/2020 08:12:20	120220	12022020	081220	185.36	12.852190	-57.123015	185.45	0.540	-1.010	1.820	185.37	-2.40	2.30	 	 	 	 	 	 	 	 	 	 	 	 	 	 	 	 	 	 	1581495140	8.20	15.19
12/02/2020 08:12:21	120220	12022020	081221	185.42	12.852155	-57.123020	185.49	0.600	-0.910	1.790	185.41	-2.30	2.30	 	 	 	 	 	 	 	 	 	 	 	 	 	 	 	 	 	 	1581495141	7.77	14.39
12/02/2020 08:12:22	120220	12022020	081222	185.27	12.852122	-57.123023	185.32	0.130	-0.690	2.020	185.20	-2.10	2.50	 	 	 	 	 	 	 	 	 	 	 	 	 	 	 	 	 	 	1581495142	7.29	13.50
12/02/2020 08:12:23	120220	12022020	081223	184.87	12.852087	-57.123028	184.92	-0.570	-0.600	2.600	184.77	-2.00	3.10	 	 	 	 	 	 	 	 	 	 	 	 	 	 	 	 	 	 	1581495143	7.34	13.59
12/02/2020 08:12:24	120220	12022020	081224	184.36	12.852053	-57.123038	184.41	-1.120	-0.430	3.340	184.26	-1.80	3.90	 	 	 	 	 	 	 	 	 	 	 	 	 	 	 	 	 	 	1581495144	7.75	14.35
12/02/2020 08:12:25	120220	12022020	081225	183.88	12.852018	-57.123052	183.95	-1.230	-0.060	3.900	183.81	-1.40	4.40	 	 	 	 	 	 	 	 	 	 	 	 	 	 	 	 	 	 	1581495145	7.98	14.78
12/02/2020 08:12:26	120220	12022020	081226	183.61	12.851983	-57.123067	183.69	-0.850	0.410	3.850	183.59	-0.90	4.30	 	 	 	 	 	 	 	 	 	 	 	 	 	 	 	 	 	 	1581495146	7.83	14.50
12/02/2020 08:12:27	120220	12022020	081227	183.67	12.851950	-57.123075	183.79	-0.170	0.740	3.150	183.74	-0.60	3.60	 	 	 	 	 	 	 	 	 	 	 	 	 	 	 	 	 	 	1581495147	7.51	13.91
12/02/2020 08:12:28	120220	12022020	081228	184.14	12.851917	-57.123080	184.26	0.530	0.800	1.970	184.26	-0.60	2.40	 	 	 	 	 	 	 	 	 	 	 	 	 	 	 	 	 	 	1581495148	7.31	13.54
12/02/2020 08:12:29	120220	12022020	081229	184.75	12.851883	-57.123080	184.86	1.060	0.460	0.790	184.85	-1.00	1.30	 	 	 	 	 	 	 	 	 	 	 	 	 	 	 	 	 	 	1581495149	7.28	13.48
12/02/2020 08:12:30	120220	12022020	081230	185.03	12.851848	-57.123077	185.11	1.330	-0.270	0.220	185.05	-1.70	0.70	 	 	 	 	 	 	 	 	 	 	 	 	 	 	 	 	 	 	1581495150	7.48	13.85
12/02/2020 08:12:31	120220	12022020	081231	184.93	12.851812	-57.123075	184.96	1.200	-0.990	0.440	184.86	-2.40	1.00	 	 	 	 	 	 	 	 	 	 	 	 	 	 	 	 	 	 	1581495151	7.70	14.26
12/02/2020 08:12:32	120220	12022020	081232	184.60	12.851777	-57.123077	184.54	0.630	-1.400	1.430	184.48	-2.80	2.00	 	 	 	 	 	 	 	 	 	 	 	 	 	 	 	 	 	 	1581495152	7.62	14.11
12/02/2020 08:12:33	120220	12022020	081233	183.91	12.851743	-57.123085	183.99	-0.140	-1.470	2.760	183.82	-2.80	3.30	 	 	 	 	 	 	 	 	 	 	 	 	 	 	 	 	 	 	1581495153	7.58	14.04
12/02/2020 08:12:34	120220	12022020	081234	183.51	12.851708	-57.123098	183.61	-0.820	-1.160	3.850	183.46	-2.50	4.40	 	 	 	 	 	 	 	 	 	 	 	 	 	 	 	 	 	 	1581495154	7.83	14.50
12/02/2020 08:12:35	120220	12022020	081235	183.42	12.851675	-57.123113	183.57	-1.180	-0.430	4.310	183.44	-1.80	4.80	 	 	 	 	 	 	 	 	 	 	 	 	 	 	 	 	 	 	1581495155	7.86	14.56
12/02/2020 08:12:36	120220	12022020	081236	183.62	12.851643	-57.123127	183.76	-1.160	0.320	3.960	183.68	-1.00	4.40	 	 	 	 	 	 	 	 	 	 	 	 	 	 	 	 	 	 	1581495156	7.42	13.74
12/02/2020 08:12:37	120220	12022020	081237	183.91	12.851612	-57.123135	184.05	-0.760	0.570	2.970	183.98	-0.80	3.40	 	 	 	 	 	 	 	 	 	 	 	 	 	 	 	 	 	 	1581495157	7.17	13.28
12/02/2020 08:12:38	120220	12022020	081238	184.25	12.851577	-57.123138	184.37	-0.120	0.370	1.780	184.32	-1.00	2.20	 	 	 	 	 	 	 	 	 	 	 	 	 	 	 	 	 	 	1581495158	7.53	13.95
12/02/2020 08:12:39	120220	12022020	081239	184.53	12.851540	-57.123140	184.60	0.580	-0.020	0.820	184.55	-1.40	1.30	 	 	 	 	 	 	 	 	 	 	 	 	 	 	 	 	 	 	1581495159	7.89	14.61
12/02/2020 08:12:40	120220	12022020	081240	184.54	12.851503	-57.123138	184.61	1.080	-0.380	0.330	184.54	-1.80	0.80	 	 	 	 	 	 	 	 	 	 	 	 	 	 	 	 	 	 	1581495160	8.03	14.87
12/02/2020 08:12:41	120220	12022020	081241	184.63	12.851465	-57.123137	184.74	1.070	-0.190	0.240	184.69	-1.50	0.80	 	 	 	 	 	 	 	 	 	 	 	 	 	 	 	 	 	 	1581495161	7.95	14.72
12/02/2020 08:12:42	120220	12022020	081242	185.04	12.851432	-57.123137	185.19	0.520	0.470	0.410	185.14	-0.90	1.00	 	 	 	 	 	 	 	 	 	 	 	 	 	 	 	 	 	 	1581495162	7.17	13.28
12/02/2020 08:12:43	120220	12022020	081243	185.38	12.851402	-57.123140	185.49	-0.150	0.610	1.000	185.40	-0.80	1.60	 	 	 	 	 	 	 	 	 	 	 	 	 	 	 	 	 	 	1581495163	6.44	11.93
12/02/2020 08:12:44	120220	12022020	081244	185.24	12.851372	-57.123148	185.33	-0.470	-0.370	2.120	185.16	-1.80	2.70	 	 	 	 	 	 	 	 	 	 	 	 	 	 	 	 	 	 	1581495164	6.98	12.93
12/02/2020 08:12:45	120220	12022020	081245	184.75	12.851333	-57.123160	184.86	-0.450	-1.650	3.370	184.64	-3.10	3.90	 	 	 	 	 	 	 	 	 	 	 	 	 	 	 	 	 	 	1581495165	8.37	15.50
12/02/2020 08:12:46	120220	12022020	081246	184.20	12.851295	-57.123175	184.32	-0.410	-2.070	4.350	184.10	-3.40	4.90	 	 	 	 	 	 	 	 	 	 	 	 	 	 	 	 	 	 	1581495166	8.91	16.50
12/02/2020 08:12:47	120220	12022020	081247	183.75	12.851258	-57.123188	183.87	-0.410	-1.410	4.630	183.68	-2.70	5.10	 	 	 	 	 	 	 	 	 	 	 	 	 	 	 	 	 	 	1581495167	8.26	15.30
12/02/2020 08:12:48	120220	12022020	081248	183.49	12.851227	-57.123200	183.61	-0.260	-0.290	4.040	183.48	-1.60	4.50	 	 	 	 	 	 	 	 	 	 	 	 	 	 	 	 	 	 	1581495168	7.27	13.46
12/02/2020 08:12:49	120220	12022020	081249	183.55	12.851195	-57.123205	183.69	0.150	0.640	2.740	183.60	-0.70	3.20	 	 	 	 	 	 	 	 	 	 	 	 	 	 	 	 	 	 	1581495169	6.84	12.67
12/02/2020 08:12:50	120220	12022020	081250	183.93	12.851163	-57.123203	184.07	0.510	0.950	1.350	184.04	-0.40	1.80	 	 	 	 	 	 	 	 	 	 	 	 	 	 	 	 	 	 	1581495170	7.14	13.22
12/02/2020 08:12:51	120220	12022020	081251	184.49	12.851127	-57.123200	184.62	0.460	0.740	0.520	184.60	-0.70	1.00	 	 	 	 	 	 	 	 	 	 	 	 	 	 	 	 	 	 	1581495171	7.70	14.26
12/02/2020 08:12:52	120220	12022020	081252	185.00	12.851092	-57.123198	185.13	0.100	0.480	0.320	185.08	-0.90	0.80	 	 	 	 	 	 	 	 	 	 	 	 	 	 	 	 	 	 	1581495172	7.74	14.33
12/02/2020 08:12:53	120220	12022020	081253	185.26	12.851057	-57.123203	185.37	-0.070	0.180	0.570	185.26	-1.20	1.10	 	 	 	 	 	 	 	 	 	 	 	 	 	 	 	 	 	 	1581495173	7.42	13.74
12/02/2020 08:12:54	120220	12022020	081254	185.18	12.851023	-57.123210	185.20	0.190	-0.480	1.230	185.12	-1.90	1.80	 	 	 	 	 	 	 	 	 	 	 	 	 	 	 	 	 	 	1581495174	7.33	13.58
12/02/2020 08:12:55	120220	12022020	081255	184.83	12.850987	-57.123217	184.95	0.550	-1.250	2.060	184.79	-2.70	2.60	 	 	 	 	 	 	 	 	 	 	 	 	 	 	 	 	 	 	1581495175	7.84	14.52
12/02/2020 08:12:56	120220	12022020	081256	184.64	12.850950	-57.123225	184.79	0.520	-1.500	2.810	184.61	-2.90	3.30	 	 	 	 	 	 	 	 	 	 	 	 	 	 	 	 	 	 	1581495176	8.08	14.96
12/02/2020 08:12:57	120220	12022020	081257	184.49	12.850917	-57.123233	184.63	0.010	-1.080	3.300	184.46	-2.40	3.80	 	 	 	 	 	 	 	 	 	 	 	 	 	 	 	 	 	 	1581495177	7.62	14.11
12/02/2020 08:12:58	120220	12022020	081258	184.31	12.850885	-57.123243	184.45	-0.600	-0.420	3.450	184.30	-1.80	3.90	 	 	 	 	 	 	 	 	 	 	 	 	 	 	 	 	 	 	1581495178	7.11	13.17
12/02/2020 08:12:59	120220	12022020	081259	184.38	12.850853	-57.123252	184.54	-0.900	0.140	3.110	184.43	-1.20	3.60	 	 	 	 	 	 	 	 	 	 	 	 	 	 	 	 	 	 	1581495179	7.08	13.11
12/02/2020 08:13:00	120220	12022020	081300	184.68	12.850820	-57.123260	184.83	-0.690	0.310	2.500	184.75	-1.10	2.90	 	 	 	 	 	 	 	 	 	 	 	 	 	 	 	 	 	 	1581495180	7.23	13.39
12/02/2020 08:13:01	120220	12022020	081301	184.98	12.850785	-57.123265	185.12	-0.080	0.090	1.830	185.03	-1.30	2.30	1014.90	26.10	26.20	20.20	20.30	-1.0	69.0	70.0	395.0	25.8	271.00	11.20	77.00	11.70	16	10065.0	27.3	27.3	1581495181	7.61	14.09
12/02/2020 08:13:02	120220	12022020	081302	185.10	12.850748	-57.123268	185.20	0.510	-0.240	1.300	185.09	-1.60	1.80	 	 	 	 	 	 	 	 	 	 	 	 	 	 	 	 	 	 	1581495182	7.98	14.78
12/02/2020 08:13:03	120220	12022020	081303	184.95	12.850710	-57.123270	185.03	0.710	-0.330	1.140	184.90	-1.70	1.60	 	 	 	 	 	 	 	 	 	 	 	 	 	 	 	 	 	 	1581495183	8.06	14.93
12/02/2020 08:13:04	120220	12022020	081304	184.76	12.850675	-57.123270	184.86	0.440	-0.060	1.300	184.74	-1.40	1.80	 	 	 	 	 	 	 	 	 	 	 	 	 	 	 	 	 	 	1581495184	7.78	14.41
12/02/2020 08:13:05	120220	12022020	081305	184.77	12.850640	-57.123275	184.88	0.000	0.420	1.470	184.80	-0.90	2.00	 	 	 	 	 	 	 	 	 	 	 	 	 	 	 	 	 	 	1581495185	7.30	13.52
12/02/2020 08:13:06	120220	12022020	081306	184.99	12.850608	-57.123280	185.13	-0.290	0.590	1.710	185.05	-0.80	2.20	 	 	 	 	 	 	 	 	 	 	 	 	 	 	 	 	 	 	1581495186	7.02	13.00
12/02/2020 08:13:07	120220	12022020	081307	185.36	12.850575	-57.123288	185.51	-0.290	0.200	2.020	185.43	-1.20	2.50	 	 	 	 	 	 	 	 	 	 	 	 	 	 	 	 	 	 	1581495187	7.30	13.52
12/02/2020 08:13:08	120220	12022020	081308	185.63	12.850540	-57.123298	185.81	-0.070	-0.520	2.330	185.67	-1.90	2.80	 	 	 	 	 	 	 	 	 	 	 	 	 	 	 	 	 	 	1581495188	7.75	14.35
12/02/2020 08:13:09	120220	12022020	081309	185.74	12.850505	-57.123308	185.84	0.180	-1.090	2.520	185.73	-2.50	3.00	 	 	 	 	 	 	 	 	 	 	 	 	 	 	 	 	 	 	1581495189	7.95	14.72
12/02/2020 08:13:10	120220	12022020	081310	185.58	12.850470	-57.123317	185.65	0.250	-1.220	2.630	185.52	-2.60	3.10	 	 	 	 	 	 	 	 	 	 	 	 	 	 	 	 	 	 	1581495190	7.75	14.35
12/02/2020 08:13:11	120220	12022020	081311	185.23	12.850437	-57.123323	185.30	0.180	-1.060	2.570	185.16	-2.40	3.00	 	 	 	 	 	 	 	 	 	 	 	 	 	 	 	 	 	 	1581495191	7.41	13.72
12/02/2020 08:13:12	120220	12022020	081312	184.90	12.850402	-57.123328	184.96	0.100	-0.800	2.290	184.84	-2.10	2.80	 	 	 	 	 	 	 	 	 	 	 	 	 	 	 	 	 	 	1581495192	7.42	13.74
12/02/2020 08:13:13	120220	12022020	081313	184.69	12.850367	-57.123332	184.76	0.070	-0.480	2.070	184.67	-1.80	2.50	 	 	 	 	 	 	 	 	 	 	 	 	 	 	 	 	 	 	1581495193	7.63	14.13
12/02/2020 08:13:14	120220	12022020	081314	184.67	12.850332	-57.123337	184.76	0.030	-0.030	1.850	184.69	-1.40	2.30	 	 	 	 	 	 	 	 	 	 	 	 	 	 	 	 	 	 	1581495194	7.75	14.35
12/02/2020 08:13:15	120220	12022020	081315	184.76	12.850295	-57.123340	184.85	-0.110	0.520	1.670	184.77	-0.80	2.20	 	 	 	 	 	 	 	 	 	 	 	 	 	 	 	 	 	 	1581495195	7.63	14.13
12/02/2020 08:13:16	120220	12022020	081316	184.88	12.850262	-57.123345	184.99	-0.320	0.930	1.670	184.94	-0.40	2.20	 	 	 	 	 	 	 	 	 	 	 	 	 	 	 	 	 	 	1581495196	7.42	13.74
12/02/2020 08:13:17	120220	12022020	081317	185.23	12.850227	-57.123350	185.37	-0.530	0.950	1.850	185.31	-0.40	2.30	 	 	 	 	 	 	 	 	 	 	 	 	 	 	 	 	 	 	1581495197	7.42	13.74
12/02/2020 08:13:18	120220	12022020	081318	185.65	12.850193	-57.123357	185.79	-0.560	0.410	2.170	185.71	-1.00	2.70	 	 	 	 	 	 	 	 	 	 	 	 	 	 	 	 	 	 	1581495198	7.56	14.00
12/02/2020 08:13:19	120220	12022020	081319	185.77	12.850157	-57.123367	185.88	-0.260	-0.560	2.610	185.75	-2.00	3.10	 	 	 	 	 	 	 	 	 	 	 	 	 	 	 	 	 	 	1581495199	7.93	14.69
12/02/2020 08:13:20	120220	12022020	081320	185.60	12.850120	-57.123377	185.64	0.320	-1.410	2.870	185.55	-2.80	3.30	 	 	 	 	 	 	 	 	 	 	 	 	 	 	 	 	 	 	1581495200	8.35	15.46
12/02/2020 08:13:21	120220	12022020	081321	185.33	12.850082	-57.123387	185.41	0.780	-1.450	2.560	185.31	-2.80	3.00	 	 	 	 	 	 	 	 	 	 	 	 	 	 	 	 	 	 	1581495201	8.26	15.30
12/02/2020 08:13:22	120220	12022020	081322	185.31	12.850048	-57.123390	185.41	0.820	-0.650	1.890	185.33	-2.00	2.30	 	 	 	 	 	 	 	 	 	 	 	 	 	 	 	 	 	 	1581495202	7.39	13.69
12/02/2020 08:13:23	120220	12022020	081323	185.43	12.850017	-57.123392	185.50	0.450	0.180	1.260	185.43	-1.20	1.70	 	 	 	 	 	 	 	 	 	 	 	 	 	 	 	 	 	 	1581495203	6.58	12.19
12/02/2020 08:13:24	120220	12022020	081324	185.36	12.849987	-57.123392	185.40	0.000	0.210	0.990	185.32	-1.20	1.50	 	 	 	 	 	 	 	 	 	 	 	 	 	 	 	 	 	 	1581495204	6.65	12.32
12/02/2020 08:13:25	120220	12022020	081325	185.12	12.849952	-57.123393	185.19	-0.300	-0.450	1.300	185.07	-1.90	1.80	 	 	 	 	 	 	 	 	 	 	 	 	 	 	 	 	 	 	1581495205	7.65	14.17
12/02/2020 08:13:26	120220	12022020	081326	184.89	12.849912	-57.123400	184.99	-0.430	-0.900	2.000	184.86	-2.30	2.50	 	 	 	 	 	 	 	 	 	 	 	 	 	 	 	 	 	 	1581495206	8.50	15.74
12/02/2020 08:13:27	120220	12022020	081327	184.78	12.849875	-57.123412	184.88	-0.480	-0.610	2.660	184.77	-1.90	3.20	 	 	 	 	 	 	 	 	 	 	 	 	 	 	 	 	 	 	1581495207	8.46	15.67
12/02/2020 08:13:28	120220	12022020	081328	184.88	12.849840	-57.123422	185.00	-0.460	0.130	2.800	184.94	-1.20	3.30	 	 	 	 	 	 	 	 	 	 	 	 	 	 	 	 	 	 	1581495208	7.82	14.48
12/02/2020 08:13:29	120220	12022020	081329	185.30	12.849807	-57.123432	185.45	-0.390	0.640	2.410	185.42	-0.70	2.90	 	 	 	 	 	 	 	 	 	 	 	 	 	 	 	 	 	 	1581495209	7.28	13.48
12/02/2020 08:13:30	120220	12022020	081330	185.91	12.849773	-57.123437	186.04	-0.220	0.600	1.840	186.02	-0.80	2.30	 	 	 	 	 	 	 	 	 	 	 	 	 	 	 	 	 	 	1581495210	7.27	13.46
12/02/2020 08:13:31	120220	12022020	081331	186.32	12.849738	-57.123442	186.42	0.050	0.180	1.410	186.35	-1.20	1.90	 	 	 	 	 	 	 	 	 	 	 	 	 	 	 	 	 	 	1581495211	7.52	13.93
12/02/2020 08:13:32	120220	12022020	081332	186.25	12.849703	-57.123447	186.30	0.320	-0.300	1.460	186.18	-1.70	2.00	 	 	 	 	 	 	 	 	 	 	 	 	 	 	 	 	 	 	1581495212	7.67	14.20
12/02/2020 08:13:33	120220	12022020	081333	185.85	12.849668	-57.123452	185.90	0.480	-0.570	1.810	185.76	-1.90	2.30	 	 	 	 	 	 	 	 	 	 	 	 	 	 	 	 	 	 	1581495213	7.66	14.19
12/02/2020 08:13:34	120220	12022020	081334	185.50	12.849633	-57.123458	185.57	0.490	-0.550	2.140	185.47	-1.90	2.60	 	 	 	 	 	 	 	 	 	 	 	 	 	 	 	 	 	 	1581495214	7.49	13.87
12/02/2020 08:13:35	120220	12022020	081335	185.52	12.849600	-57.123463	185.64	0.360	-0.460	2.100	185.58	-1.80	2.60	 	 	 	 	 	 	 	 	 	 	 	 	 	 	 	 	 	 	1581495215	7.33	13.58
12/02/2020 08:13:36	120220	12022020	081336	185.97	12.849567	-57.123468	186.10	0.080	-0.590	1.930	186.07	-2.00	2.40	 	 	 	 	 	 	 	 	 	 	 	 	 	 	 	 	 	 	1581495216	7.36	13.63
12/02/2020 08:13:37	120220	12022020	081337	186.40	12.849532	-57.123473	186.51	-0.200	-0.940	2.100	186.43	-2.30	2.60	 	 	 	 	 	 	 	 	 	 	 	 	 	 	 	 	 	 	1581495217	7.62	14.11
12/02/2020 08:13:38	120220	12022020	081338	186.30	12.849495	-57.123482	186.36	-0.300	-1.270	2.750	186.20	-2.60	3.30	 	 	 	 	 	 	 	 	 	 	 	 	 	 	 	 	 	 	1581495218	7.97	14.76
12/02/2020 08:13:39	120220	12022020	081339	185.64	12.849458	-57.123493	185.68	-0.250	-1.190	3.520	185.49	-2.50	4.00	 	 	 	 	 	 	 	 	 	 	 	 	 	 	 	 	 	 	1581495219	8.25	15.28
12/02/2020 08:13:40	120220	12022020	081340	185.01	12.849422	-57.123503	185.10	-0.360	-0.340	3.980	184.93	-1.60	4.50	 	 	 	 	 	 	 	 	 	 	 	 	 	 	 	 	 	 	1581495220	8.14	15.08
12/02/2020 08:13:41	120220	12022020	081341	184.88	12.849388	-57.123513	185.03	-0.640	0.900	3.860	184.93	-0.40	4.30	 	 	 	 	 	 	 	 	 	 	 	 	 	 	 	 	 	 	1581495221	7.52	13.93
12/02/2020 08:13:42	120220	12022020	081342	185.41	12.849357	-57.123523	185.60	-0.790	1.840	3.020	185.58	0.50	3.40	 	 	 	 	 	 	 	 	 	 	 	 	 	 	 	 	 	 	1581495222	6.98	12.93
12/02/2020 08:13:43	120220	12022020	081343	186.34	12.849327	-57.123528	186.53	-0.490	1.940	1.660	186.54	0.50	2.10	 	 	 	 	 	 	 	 	 	 	 	 	 	 	 	 	 	 	1581495223	6.84	12.67
12/02/2020 08:13:44	120220	12022020	081344	187.20	12.849292	-57.123528	187.33	0.210	1.000	0.560	187.33	-0.50	1.00	 	 	 	 	 	 	 	 	 	 	 	 	 	 	 	 	 	 	1581495224	7.26	13.45
12/02/2020 08:13:45	120220	12022020	081345	187.63	12.849255	-57.123530	187.67	0.930	-0.540	0.220	187.65	-2.00	0.70	 	 	 	 	 	 	 	 	 	 	 	 	 	 	 	 	 	 	1581495225	7.92	14.67
12/02/2020 08:13:46	120220	12022020	081346	187.44	12.849217	-57.123532	187.43	1.310	-1.920	0.550	187.32	-3.40	1.10	 	 	 	 	 	 	 	 	 	 	 	 	 	 	 	 	 	 	1581495226	8.23	15.24
12/02/2020 08:13:47	120220	12022020	081347	186.75	12.849180	-57.123538	186.74	1.120	-2.570	1.540	186.61	-4.00	2.10	 	 	 	 	 	 	 	 	 	 	 	 	 	 	 	 	 	 	1581495227	8.11	15.02
12/02/2020 08:13:48	120220	12022020	081348	186.14	12.849145	-57.123547	186.16	0.480	-2.160	2.550	186.06	-3.50	3.10	 	 	 	 	 	 	 	 	 	 	 	 	 	 	 	 	 	 	1581495228	7.81	14.46
12/02/2020 08:13:49	120220	12022020	081349	185.83	12.849113	-57.123558	185.89	-0.280	-0.980	3.050	185.81	-2.30	3.50	 	 	 	 	 	 	 	 	 	 	 	 	 	 	 	 	 	 	1581495229	7.25	13.43
12/02/2020 08:13:50	120220	12022020	081350	185.75	12.849083	-57.123568	185.83	-0.840	0.080	3.160	185.76	-1.30	3.60	 	 	 	 	 	 	 	 	 	 	 	 	 	 	 	 	 	 	1581495230	6.84	12.67
12/02/2020 08:13:51	120220	12022020	081351	185.92	12.849050	-57.123578	186.02	-1.090	0.540	2.970	185.98	-0.80	3.40	 	 	 	 	 	 	 	 	 	 	 	 	 	 	 	 	 	 	1581495231	7.26	13.45
12/02/2020 08:13:52	120220	12022020	081352	186.28	12.849013	-57.123587	186.40	-1.090	0.590	2.620	186.35	-0.80	3.10	 	 	 	 	 	 	 	 	 	 	 	 	 	 	 	 	 	 	1581495232	7.94	14.70
12/02/2020 08:13:53	120220	12022020	081353	186.56	12.848977	-57.123595	186.65	-0.840	0.570	2.270	186.58	-0.80	2.70	 	 	 	 	 	 	 	 	 	 	 	 	 	 	 	 	 	 	1581495233	8.14	15.08
12/02/2020 08:13:54	120220	12022020	081354	186.61	12.848942	-57.123603	186.68	-0.340	0.510	1.940	186.62	-0.90	2.40	 	 	 	 	 	 	 	 	 	 	 	 	 	 	 	 	 	 	1581495234	7.96	14.74
12/02/2020 08:13:55	120220	12022020	081355	186.75	12.848905	-57.123608	186.84	0.200	0.380	1.520	186.79	-1.00	2.00	 	 	 	 	 	 	 	 	 	 	 	 	 	 	 	 	 	 	1581495235	7.83	14.50
12/02/2020 08:13:56	120220	12022020	081356	186.91	12.848870	-57.123612	187.02	0.590	0.110	1.160	186.94	-1.30	1.60	 	 	 	 	 	 	 	 	 	 	 	 	 	 	 	 	 	 	1581495236	7.67	14.20
12/02/2020 08:13:57	120220	12022020	081357	186.94	12.848835	-57.123615	187.00	0.820	-0.190	1.130	186.93	-1.60	1.60	 	 	 	 	 	 	 	 	 	 	 	 	 	 	 	 	 	 	1581495237	7.60	14.08
12/02/2020 08:13:58	120220	12022020	081358	186.88	12.848800	-57.123620	186.96	0.840	-0.290	1.290	186.88	-1.70	1.80	 	 	 	 	 	 	 	 	 	 	 	 	 	 	 	 	 	 	1581495238	7.50	13.89
12/02/2020 08:13:59	120220	12022020	081359	186.90	12.848767	-57.123625	186.98	0.560	-0.240	1.620	186.88	-1.60	2.20	 	 	 	 	 	 	 	 	 	 	 	 	 	 	 	 	 	 	1581495239	7.16	13.26
12/02/2020 08:14:00	120220	12022020	081400	186.73	12.848735	-57.123632	186.77	0.110	-0.580	2.370	186.66	-2.00	2.90	 	 	 	 	 	 	 	 	 	 	 	 	 	 	 	 	 	 	1581495240	6.98	12.93
12/02/2020 08:14:01	120220	12022020	081401	186.21	12.848702	-57.123643	186.25	-0.240	-1.290	3.340	186.09	-2.70	3.90	1015.00	26.10	26.20	20.10	20.30	-1.0	69.0	70.0	394.0	25.8	275.00	11.50	81.00	11.80	16	10488.0	27.3	27.3	1581495241	7.62	14.11
12/02/2020 08:14:02	120220	12022020	081402	185.55	12.848665	-57.123658	185.61	-0.280	-1.730	4.050	185.44	-3.10	4.50	 	 	 	 	 	 	 	 	 	 	 	 	 	 	 	 	 	 	1581495242	8.41	15.58
12/02/2020 08:14:03	120220	12022020	081403	185.24	12.848628	-57.123672	185.34	-0.050	-1.260	3.920	185.24	-2.60	4.40	 	 	 	 	 	 	 	 	 	 	 	 	 	 	 	 	 	 	1581495243	8.40	15.56
12/02/2020 08:14:04	120220	12022020	081404	185.32	12.848595	-57.123680	185.44	0.150	-0.250	3.200	185.36	-1.60	3.60	 	 	 	 	 	 	 	 	 	 	 	 	 	 	 	 	 	 	1581495244	7.48	13.85
12/02/2020 08:14:05	120220	12022020	081405	185.52	12.848562	-57.123683	185.63	0.130	0.380	2.380	185.58	-1.00	2.80	 	 	 	 	 	 	 	 	 	 	 	 	 	 	 	 	 	 	1581495245	7.03	13.02
12/02/2020 08:14:06	120220	12022020	081406	185.90	12.848527	-57.123685	186.02	-0.100	0.570	1.620	186.01	-0.80	2.10	 	 	 	 	 	 	 	 	 	 	 	 	 	 	 	 	 	 	1581495246	7.50	13.89
12/02/2020 08:14:07	120220	12022020	081407	186.46	12.848492	-57.123687	186.57	-0.370	0.780	1.060	186.58	-0.60	1.60	 	 	 	 	 	 	 	 	 	 	 	 	 	 	 	 	 	 	1581495247	7.76	14.37
12/02/2020 08:14:08	120220	12022020	081408	186.99	12.848457	-57.123690	187.09	-0.510	0.860	0.960	187.06	-0.50	1.50	 	 	 	 	 	 	 	 	 	 	 	 	 	 	 	 	 	 	1581495248	7.39	13.69
12/02/2020 08:14:09	120220	12022020	081409	187.16	12.848423	-57.123693	187.22	-0.390	0.170	1.260	187.13	-1.30	1.80	 	 	 	 	 	 	 	 	 	 	 	 	 	 	 	 	 	 	1581495249	7.27	13.46
12/02/2020 08:14:10	120220	12022020	081410	186.92	12.848387	-57.123702	186.86	-0.030	-1.070	1.910	186.82	-2.50	2.40	 	 	 	 	 	 	 	 	 	 	 	 	 	 	 	 	 	 	1581495250	8.06	14.93
12/02/2020 08:14:11	120220	12022020	081411	186.14	12.848348	-57.123713	186.17	0.290	-1.750	2.780	185.98	-3.10	3.30	 	 	 	 	 	 	 	 	 	 	 	 	 	 	 	 	 	 	1581495251	8.76	16.22
12/02/2020 08:14:12	120220	12022020	081412	185.54	12.848310	-57.123725	185.47	0.400	-1.260	3.390	185.41	-2.60	3.90	 	 	 	 	 	 	 	 	 	 	 	 	 	 	 	 	 	 	1581495252	8.29	15.35
12/02/2020 08:14:13	120220	12022020	081413	184.97	12.848278	-57.123735	185.05	0.350	-0.090	3.300	184.92	-1.40	3.80	 	 	 	 	 	 	 	 	 	 	 	 	 	 	 	 	 	 	1581495253	7.17	13.28
12/02/2020 08:14:14	120220	12022020	081414	184.85	12.848248	-57.123740	184.92	0.270	0.720	2.660	184.86	-0.60	3.10	 	 	 	 	 	 	 	 	 	 	 	 	 	 	 	 	 	 	1581495254	6.53	12.09
12/02/2020 08:14:15	120220	12022020	081415	184.96	12.848217	-57.123742	185.06	0.170	0.580	1.980	185.00	-0.80	2.40	 	 	 	 	 	 	 	 	 	 	 	 	 	 	 	 	 	 	1581495255	6.95	12.87
12/02/2020 08:14:16	120220	12022020	081416	185.18	12.848180	-57.123745	185.27	0.030	-0.070	1.460	185.24	-1.50	1.90	 	 	 	 	 	 	 	 	 	 	 	 	 	 	 	 	 	 	1581495256	7.85	14.54
12/02/2020 08:14:17	120220	12022020	081417	185.54	12.848143	-57.123752	185.66	-0.120	-0.410	1.100	185.63	-1.80	1.60	 	 	 	 	 	 	 	 	 	 	 	 	 	 	 	 	 	 	1581495257	8.21	15.20
12/02/2020 08:14:18	120220	12022020	081418	186.01	12.848107	-57.123757	186.13	-0.180	-0.330	1.020	186.11	-1.70	1.50	 	 	 	 	 	 	 	 	 	 	 	 	 	 	 	 	 	 	1581495258	7.69	14.24
12/02/2020 08:14:19	120220	12022020	081419	186.46	12.848075	-57.123763	186.57	-0.110	-0.340	1.120	186.51	-1.70	1.60	 	 	 	 	 	 	 	 	 	 	 	 	 	 	 	 	 	 	1581495259	7.20	13.33
12/02/2020 08:14:20	120220	12022020	081420	186.52	12.848042	-57.123772	186.59	0.130	-0.710	1.500	186.46	-2.10	2.00	 	 	 	 	 	 	 	 	 	 	 	 	 	 	 	 	 	 	1581495260	7.35	13.61
12/02/2020 08:14:21	120220	12022020	081421	186.12	12.848005	-57.123778	186.18	0.370	-1.000	2.170	186.04	-2.40	2.70	 	 	 	 	 	 	 	 	 	 	 	 	 	 	 	 	 	 	1581495261	7.88	14.59
12/02/2020 08:14:22	120220	12022020	081422	185.90	12.847968	-57.123785	186.01	0.210	-0.550	2.630	185.91	-1.90	3.10	 	 	 	 	 	 	 	 	 	 	 	 	 	 	 	 	 	 	1581495262	8.00	14.82
12/02/2020 08:14:23	120220	12022020	081423	186.05	12.847935	-57.123792	186.18	-0.300	0.250	2.790	186.09	-1.10	3.30	 	 	 	 	 	 	 	 	 	 	 	 	 	 	 	 	 	 	1581495263	7.24	13.41
12/02/2020 08:14:24	120220	12022020	081424	186.10	12.847905	-57.123798	186.15	-0.670	0.340	3.020	186.08	-1.10	3.50	 	 	 	 	 	 	 	 	 	 	 	 	 	 	 	 	 	 	1581495264	6.87	12.72
12/02/2020 08:14:25	120220	12022020	081425	185.65	12.847870	-57.123810	185.71	-0.450	-0.420	3.350	185.54	-1.80	3.80	 	 	 	 	 	 	 	 	 	 	 	 	 	 	 	 	 	 	1581495265	7.78	14.41
12/02/2020 08:14:26	120220	12022020	081426	185.07	12.847830	-57.123820	185.15	0.140	-0.860	3.480	184.98	-2.20	4.00	 	 	 	 	 	 	 	 	 	 	 	 	 	 	 	 	 	 	1581495266	8.75	16.21
12/02/2020 08:14:27	120220	12022020	081427	184.81	12.847792	-57.123828	184.93	0.480	-0.300	3.150	184.82	-1.60	3.60	 	 	 	 	 	 	 	 	 	 	 	 	 	 	 	 	 	 	1581495267	8.36	15.48
12/02/2020 08:14:28	120220	12022020	081428	184.98	12.847760	-57.123832	185.10	0.310	0.500	2.450	185.04	-0.90	2.90	 	 	 	 	 	 	 	 	 	 	 	 	 	 	 	 	 	 	1581495268	7.14	13.22
12/02/2020 08:14:29	120220	12022020	081429	185.31	12.847728	-57.123833	185.43	-0.110	0.580	1.820	185.39	-0.80	2.30	 	 	 	 	 	 	 	 	 	 	 	 	 	 	 	 	 	 	1581495269	6.80	12.59
12/02/2020 08:14:30	120220	12022020	081430	185.73	12.847693	-57.123838	185.84	-0.370	0.120	1.440	185.82	-1.30	1.90	 	 	 	 	 	 	 	 	 	 	 	 	 	 	 	 	 	 	1581495270	7.44	13.78
12/02/2020 08:14:31	120220	12022020	081431	186.19	12.847658	-57.123845	186.31	-0.260	-0.220	1.130	186.28	-1.60	1.60	 	 	 	 	 	 	 	 	 	 	 	 	 	 	 	 	 	 	1581495271	7.80	14.45
12/02/2020 08:14:32	120220	12022020	081432	186.52	12.847623	-57.123852	186.60	0.130	-0.500	0.950	186.54	-1.90	1.40	 	 	 	 	 	 	 	 	 	 	 	 	 	 	 	 	 	 	1581495272	7.53	13.95
12/02/2020 08:14:33	120220	12022020	081433	186.49	12.847588	-57.123857	186.54	0.520	-0.930	1.110	186.44	-2.30	1.60	 	 	 	 	 	 	 	 	 	 	 	 	 	 	 	 	 	 	1581495273	7.47	13.83
12/02/2020 08:14:34	120220	12022020	081434	186.16	12.847553	-57.123862	186.21	0.630	-1.290	1.670	186.08	-2.70	2.20	 	 	 	 	 	 	 	 	 	 	 	 	 	 	 	 	 	 	1581495274	7.83	14.50
12/02/2020 08:14:35	120220	12022020	081435	185.75	12.847517	-57.123867	185.80	0.350	-1.140	2.320	185.66	-2.50	2.90	 	 	 	 	 	 	 	 	 	 	 	 	 	 	 	 	 	 	1581495275	7.98	14.78
12/02/2020 08:14:36	120220	12022020	081436	185.30	12.847482	-57.123875	185.35	-0.190	-0.530	2.910	185.21	-1.90	3.40	 	 	 	 	 	 	 	 	 	 	 	 	 	 	 	 	 	 	1581495276	7.68	14.22
12/02/2020 08:14:37	120220	12022020	081437	184.97	12.847448	-57.123883	185.07	-0.670	0.120	3.230	184.95	-1.20	3.70	 	 	 	 	 	 	 	 	 	 	 	 	 	 	 	 	 	 	1581495277	7.48	13.85
12/02/2020 08:14:38	120220	12022020	081438	184.92	12.847413	-57.123893	185.04	-0.870	0.600	3.080	184.93	-0.80	3.50	 	 	 	 	 	 	 	 	 	 	 	 	 	 	 	 	 	 	1581495278	7.58	14.04
12/02/2020 08:14:39	120220	12022020	081439	185.10	12.847380	-57.123902	185.22	-0.740	0.800	2.570	185.16	-0.60	3.00	 	 	 	 	 	 	 	 	 	 	 	 	 	 	 	 	 	 	1581495279	7.64	14.15
12/02/2020 08:14:40	120220	12022020	081440	185.55	12.847345	-57.123908	185.68	-0.420	0.770	1.860	185.66	-0.60	2.30	 	 	 	 	 	 	 	 	 	 	 	 	 	 	 	 	 	 	1581495280	7.66	14.19
12/02/2020 08:14:41	120220	12022020	081441	186.09	12.847310	-57.123913	186.20	-0.010	0.440	1.150	186.18	-1.00	1.60	 	 	 	 	 	 	 	 	 	 	 	 	 	 	 	 	 	 	1581495281	7.52	13.93
12/02/2020 08:14:42	120220	12022020	081442	186.38	12.847275	-57.123917	186.45	0.510	-0.260	0.680	186.38	-1.70	1.20	 	 	 	 	 	 	 	 	 	 	 	 	 	 	 	 	 	 	1581495282	7.55	13.98
12/02/2020 08:14:43	120220	12022020	081443	186.25	12.847238	-57.123920	186.31	1.050	-1.100	0.650	186.20	-2.50	1.20	 	 	 	 	 	 	 	 	 	 	 	 	 	 	 	 	 	 	1581495283	7.86	14.56
12/02/2020 08:14:44	120220	12022020	081444	186.02	12.847200	-57.123922	186.09	1.150	-1.480	1.030	185.98	-2.90	1.60	 	 	 	 	 	 	 	 	 	 	 	 	 	 	 	 	 	 	1581495284	8.12	15.04
12/02/2020 08:14:45	120220	12022020	081445	185.81	12.847165	-57.123925	185.88	0.520	-1.160	1.840	185.75	-2.50	2.40	 	 	 	 	 	 	 	 	 	 	 	 	 	 	 	 	 	 	1581495285	7.73	14.32
12/02/2020 08:14:46	120220	12022020	081446	185.49	12.847132	-57.123935	185.56	-0.460	-0.620	2.780	185.41	-2.00	3.30	 	 	 	 	 	 	 	 	 	 	 	 	 	 	 	 	 	 	1581495286	7.24	13.41
12/02/2020 08:14:47	120220	12022020	081447	185.16	12.847100	-57.123947	185.26	-1.120	-0.270	3.470	185.13	-1.60	4.00	 	 	 	 	 	 	 	 	 	 	 	 	 	 	 	 	 	 	1581495287	7.46	13.82
12/02/2020 08:14:48	120220	12022020	081448	185.08	12.847065	-57.123962	185.21	-1.190	-0.010	3.750	185.08	-1.40	4.20	 	 	 	 	 	 	 	 	 	 	 	 	 	 	 	 	 	 	1581495288	7.99	14.80
12/02/2020 08:14:49	120220	12022020	081449	185.19	12.847030	-57.123973	185.36	-0.750	0.270	3.530	185.25	-1.10	4.00	 	 	 	 	 	 	 	 	 	 	 	 	 	 	 	 	 	 	1581495289	8.05	14.91
12/02/2020 08:14:50	120220	12022020	081450	185.57	12.846995	-57.123983	185.74	-0.110	0.530	2.610	185.68	-0.80	3.00	 	 	 	 	 	 	 	 	 	 	 	 	 	 	 	 	 	 	1581495290	7.82	14.48
12/02/2020 08:14:51	120220	12022020	081451	186.23	12.846960	-57.123985	186.40	0.390	0.600	1.320	186.37	-0.80	1.80	 	 	 	 	 	 	 	 	 	 	 	 	 	 	 	 	 	 	1581495291	7.58	14.04
12/02/2020 08:14:52	120220	12022020	081452	186.90	12.846925	-57.123983	187.03	0.570	0.290	0.440	186.99	-1.10	0.90	 	 	 	 	 	 	 	 	 	 	 	 	 	 	 	 	 	 	1581495292	7.58	14.04
12/02/2020 08:14:53	120220	12022020	081453	187.10	12.846888	-57.123983	187.15	0.560	-0.420	0.340	187.07	-1.80	0.90	 	 	 	 	 	 	 	 	 	 	 	 	 	 	 	 	 	 	1581495293	7.68	14.22
12/02/2020 08:14:54	120220	12022020	081454	186.72	12.846852	-57.123987	186.75	0.530	-1.040	0.930	186.61	-2.40	1.50	 	 	 	 	 	 	 	 	 	 	 	 	 	 	 	 	 	 	1581495294	7.94	14.70
12/02/2020 08:14:55	120220	12022020	081455	186.13	12.846815	-57.123993	186.16	0.510	-1.100	1.850	186.01	-2.50	2.40	 	 	 	 	 	 	 	 	 	 	 	 	 	 	 	 	 	 	1581495295	7.95	14.72
12/02/2020 08:14:56	120220	12022020	081456	185.66	12.846782	-57.124003	185.72	0.330	-0.750	2.570	185.62	-2.10	3.10	 	 	 	 	 	 	 	 	 	 	 	 	 	 	 	 	 	 	1581495296	7.62	14.11
12/02/2020 08:14:57	120220	12022020	081457	185.59	12.846748	-57.124012	185.70	-0.130	-0.240	3.070	185.63	-1.60	3.60	 	 	 	 	 	 	 	 	 	 	 	 	 	 	 	 	 	 	1581495297	7.42	13.74
12/02/2020 08:14:58	120220	12022020	081458	185.85	12.846715	-57.124022	185.97	-0.700	0.200	3.350	185.91	-1.20	3.80	 	 	 	 	 	 	 	 	 	 	 	 	 	 	 	 	 	 	1581495298	7.31	13.54
12/02/2020 08:14:59	120220	12022020	081459	186.05	12.846683	-57.124033	186.15	-0.970	0.210	3.350	186.06	-1.20	3.80	 	 	 	 	 	 	 	 	 	 	 	 	 	 	 	 	 	 	1581495299	7.42	13.74
12/02/2020 08:15:00	120220	12022020	081500	186.03	12.846648	-57.124047	186.10	-0.630	-0.200	3.090	186.02	-1.60	3.50	 	 	 	 	 	 	 	 	 	 	 	 	 	 	 	 	 	 	1581495300	7.88	14.59
12/02/2020 08:15:01	120220	12022020	081501	186.02	12.846612	-57.124057	186.11	0.090	-0.380	2.430	186.05	-1.70	2.90	1015.00	26.10	26.20	20.20	20.30	-1.0	70.0	70.0	395.0	25.8	271.00	11.00	77.00	11.60	16	9716.0	27.3	27.3	1581495301	8.27	15.32
12/02/2020 08:15:02	120220	12022020	081502	186.25	12.846575	-57.124062	186.48	0.660	0.060	1.320	186.36	-1.30	1.70	 	 	 	 	 	 	 	 	 	 	 	 	 	 	 	 	 	 	1581495302	7.86	14.56
12/02/2020 08:15:03	120220	12022020	081503	187.05	12.846542	-57.124060	187.15	0.730	0.500	0.100	187.18	-0.90	0.60	 	 	 	 	 	 	 	 	 	 	 	 	 	 	 	 	 	 	1581495303	7.10	13.15
12/02/2020 08:15:04	120220	12022020	081504	187.50	12.846510	-57.124057	187.54	0.520	0.010	-0.270	187.51	-1.40	0.30	 	 	 	 	 	 	 	 	 	 	 	 	 	 	 	 	 	 	1581495304	7.02	13.00
12/02/2020 08:15:05	120220	12022020	081505	187.29	12.846473	-57.124058	187.29	0.330	-1.220	0.560	187.17	-2.60	1.10	 	 	 	 	 	 	 	 	 	 	 	 	 	 	 	 	 	 	1581495305	7.82	14.48
12/02/2020 08:15:06	120220	12022020	081506	186.54	12.846433	-57.124067	186.55	0.200	-2.110	2.100	186.36	-3.50	2.70	 	 	 	 	 	 	 	 	 	 	 	 	 	 	 	 	 	 	1581495306	8.68	16.08
12/02/2020 08:15:07	120220	12022020	081507	185.70	12.846395	-57.124080	185.74	-0.000	-1.790	3.520	185.54	-3.10	4.10	 	 	 	 	 	 	 	 	 	 	 	 	 	 	 	 	 	 	1581495307	8.78	16.26
12/02/2020 08:15:08	120220	12022020	081508	185.03	12.846360	-57.124095	185.10	-0.350	-0.460	4.510	184.92	-1.70	5.00	 	 	 	 	 	 	 	 	 	 	 	 	 	 	 	 	 	 	1581495308	7.96	14.74
12/02/2020 08:15:09	120220	12022020	081509	184.71	12.846330	-57.124108	184.85	-0.740	0.950	4.730	184.71	-0.40	5.20	 	 	 	 	 	 	 	 	 	 	 	 	 	 	 	 	 	 	1581495309	7.17	13.28
12/02/2020 08:15:10	120220	12022020	081510	184.93	12.846298	-57.124117	185.10	-1.030	1.740	4.060	185.02	0.40	4.50	 	 	 	 	 	 	 	 	 	 	 	 	 	 	 	 	 	 	1581495310	6.95	12.87
12/02/2020 08:15:11	120220	12022020	081511	185.57	12.846267	-57.124125	185.76	-1.010	1.650	2.880	185.75	0.30	3.30	 	 	 	 	 	 	 	 	 	 	 	 	 	 	 	 	 	 	1581495311	7.20	13.33
12/02/2020 08:15:12	120220	12022020	081512	186.52	12.846232	-57.124130	186.70	-0.510	0.860	1.570	186.71	-0.60	2.00	 	 	 	 	 	 	 	 	 	 	 	 	 	 	 	 	 	 	1581495312	7.63	14.13
12/02/2020 08:15:13	120220	12022020	081513	187.36	12.846195	-57.124135	187.47	0.520	-0.440	0.260	187.48	-1.90	0.70	 	 	 	 	 	 	 	 	 	 	 	 	 	 	 	 	 	 	1581495313	7.92	14.67
12/02/2020 08:15:14	120220	12022020	081514	187.74	12.846157	-57.124137	187.77	1.630	-1.680	-0.610	187.75	-3.10	-0.10	 	 	 	 	 	 	 	 	 	 	 	 	 	 	 	 	 	 	1581495314	8.26	15.30
12/02/2020 08:15:15	120220	12022020	081515	187.69	12.846118	-57.124137	187.70	1.940	-1.930	-0.580	187.66	-3.30	-0.10	 	 	 	 	 	 	 	 	 	 	 	 	 	 	 	 	 	 	1581495315	8.32	15.41
12/02/2020 08:15:16	120220	12022020	081516	187.49	12.846083	-57.124137	187.51	1.100	-1.120	0.140	187.45	-2.40	0.70	 	 	 	 	 	 	 	 	 	 	 	 	 	 	 	 	 	 	1581495316	7.31	13.54
12/02/2020 08:15:17	120220	12022020	081517	187.23	12.846055	-57.124142	187.26	-0.270	-0.240	1.380	187.18	-1.60	1.90	 	 	 	 	 	 	 	 	 	 	 	 	 	 	 	 	 	 	1581495317	6.42	11.89
12/02/2020 08:15:18	120220	12022020	081518	187.01	12.846025	-57.124155	187.08	-1.250	0.050	2.730	186.98	-1.30	3.30	 	 	 	 	 	 	 	 	 	 	 	 	 	 	 	 	 	 	1581495318	7.00	12.96
12/02/2020 08:15:19	120220	12022020	081519	186.98	12.845992	-57.124175	187.09	-1.360	-0.050	3.570	186.99	-1.40	4.10	 	 	 	 	 	 	 	 	 	 	 	 	 	 	 	 	 	 	1581495319	8.18	15.15
12/02/2020 08:15:20	120220	12022020	081520	187.10	12.845957	-57.124192	187.23	-0.870	-0.160	3.670	187.14	-1.50	4.10	 	 	 	 	 	 	 	 	 	 	 	 	 	 	 	 	 	 	1581495320	8.50	15.74
12/02/2020 08:15:21	120220	12022020	081521	187.27	12.845920	-57.124205	187.40	-0.300	-0.130	3.200	187.31	-1.50	3.60	 	 	 	 	 	 	 	 	 	 	 	 	 	 	 	 	 	 	1581495321	8.17	15.13
12/02/2020 08:15:22	120220	12022020	081522	187.41	12.845885	-57.124213	187.53	0.010	0.010	2.450	187.43	-1.40	2.90	 	 	 	 	 	 	 	 	 	 	 	 	 	 	 	 	 	 	1581495322	7.78	14.41
12/02/2020 08:15:23	120220	12022020	081523	187.44	12.845850	-57.124218	187.53	0.140	0.130	1.730	187.43	-1.20	2.20	 	 	 	 	 	 	 	 	 	 	 	 	 	 	 	 	 	 	1581495323	7.50	13.89
12/02/2020 08:15:24	120220	12022020	081524	187.31	12.845817	-57.124222	187.36	0.260	0.140	1.290	187.27	-1.20	1.80	 	 	 	 	 	 	 	 	 	 	 	 	 	 	 	 	 	 	1581495324	7.43	13.76
12/02/2020 08:15:25	120220	12022020	081525	187.13	12.845782	-57.124227	187.20	0.380	0.170	1.180	187.11	-1.20	1.70	 	 	 	 	 	 	 	 	 	 	 	 	 	 	 	 	 	 	1581495325	7.46	13.82
12/02/2020 08:15:26	120220	12022020	081526	187.11	12.845748	-57.124233	187.21	0.420	0.330	1.150	187.12	-1.00	1.70	 	 	 	 	 	 	 	 	 	 	 	 	 	 	 	 	 	 	1581495326	7.29	13.50
12/02/2020 08:15:27	120220	12022020	081527	187.18	12.845717	-57.124240	187.25	0.400	0.220	1.110	187.18	-1.20	1.60	 	 	 	 	 	 	 	 	 	 	 	 	 	 	 	 	 	 	1581495327	7.00	12.96
12/02/2020 08:15:28	120220	12022020	081528	187.11	12.845683	-57.124245	187.18	0.390	-0.380	1.250	187.09	-1.80	1.80	 	 	 	 	 	 	 	 	 	 	 	 	 	 	 	 	 	 	1581495328	7.21	13.35
12/02/2020 08:15:29	120220	12022020	081529	186.95	12.845648	-57.124252	187.03	0.340	-1.050	1.750	186.91	-2.40	2.30	 	 	 	 	 	 	 	 	 	 	 	 	 	 	 	 	 	 	1581495329	7.73	14.32
12/02/2020 08:15:30	120220	12022020	081530	186.70	12.845612	-57.124262	186.77	0.210	-1.260	2.340	186.64	-2.60	2.90	 	 	 	 	 	 	 	 	 	 	 	 	 	 	 	 	 	 	1581495330	7.87	14.58
12/02/2020 08:15:31	120220	12022020	081531	186.35	12.845578	-57.124272	186.42	-0.000	-0.990	2.910	186.27	-2.30	3.40	 	 	 	 	 	 	 	 	 	 	 	 	 	 	 	 	 	 	1581495331	7.55	13.98
12/02/2020 08:15:32	120220	12022020	081532	185.93	12.845547	-57.124282	185.99	-0.210	-0.650	3.430	185.84	-2.00	3.90	 	 	 	 	 	 	 	 	 	 	 	 	 	 	 	 	 	 	1581495332	7.27	13.46
12/02/2020 08:15:33	120220	12022020	081533	185.54	12.845513	-57.124292	185.62	-0.300	-0.520	3.550	185.47	-1.90	4.00	 	 	 	 	 	 	 	 	 	 	 	 	 	 	 	 	 	 	1581495333	7.51	13.91
12/02/2020 08:15:34	120220	12022020	081534	185.34	12.845477	-57.124300	185.47	-0.350	-0.280	3.270	185.35	-1.60	3.70	 	 	 	 	 	 	 	 	 	 	 	 	 	 	 	 	 	 	1581495334	7.90	14.63
12/02/2020 08:15:35	120220	12022020	081535	185.51	12.845442	-57.124308	185.66	-0.490	0.360	2.810	185.58	-1.00	3.30	 	 	 	 	 	 	 	 	 	 	 	 	 	 	 	 	 	 	1581495335	7.77	14.39
12/02/2020 08:15:36	120220	12022020	081536	185.95	12.845410	-57.124315	186.08	-0.620	1.040	2.110	186.04	-0.30	2.60	 	 	 	 	 	 	 	 	 	 	 	 	 	 	 	 	 	 	1581495336	7.14	13.22
12/02/2020 08:15:37	120220	12022020	081537	186.34	12.845378	-57.124320	186.44	-0.480	1.010	1.420	186.39	-0.40	1.90	 	 	 	 	 	 	 	 	 	 	 	 	 	 	 	 	 	 	1581495337	6.84	12.67
12/02/2020 08:15:38	120220	12022020	081538	186.46	12.845343	-57.124325	186.54	0.070	0.170	1.130	186.46	-1.20	1.60	 	 	 	 	 	 	 	 	 	 	 	 	 	 	 	 	 	 	1581495338	7.41	13.72
12/02/2020 08:15:39	120220	12022020	081539	186.43	12.845307	-57.124330	186.49	0.830	-0.720	0.990	186.42	-2.10	1.50	 	 	 	 	 	 	 	 	 	 	 	 	 	 	 	 	 	 	1581495339	8.14	15.08
12/02/2020 08:15:40	120220	12022020	081540	186.36	12.845268	-57.124333	186.42	1.330	-1.000	0.840	186.35	-2.40	1.40	 	 	 	 	 	 	 	 	 	 	 	 	 	 	 	 	 	 	1581495340	8.07	14.95
12/02/2020 08:15:41	120220	12022020	081541	186.28	12.845235	-57.124335	186.33	1.180	-0.750	0.850	186.26	-2.10	1.40	 	 	 	 	 	 	 	 	 	 	 	 	 	 	 	 	 	 	1581495341	7.44	13.78
12/02/2020 08:15:42	120220	12022020	081542	186.18	12.845202	-57.124335	186.23	0.430	-0.420	1.280	186.16	-1.80	1.80	 	 	 	 	 	 	 	 	 	 	 	 	 	 	 	 	 	 	1581495342	6.97	12.91
12/02/2020 08:15:43	120220	12022020	081543	186.06	12.845170	-57.124342	186.12	-0.540	-0.330	2.240	186.02	-1.70	2.80	 	 	 	 	 	 	 	 	 	 	 	 	 	 	 	 	 	 	1581495343	7.00	12.96
12/02/2020 08:15:44	120220	12022020	081544	185.79	12.845137	-57.124355	185.86	-1.210	-0.550	3.510	185.71	-1.90	4.10	 	 	 	 	 	 	 	 	 	 	 	 	 	 	 	 	 	 	1581495344	7.61	14.09
12/02/2020 08:15:45	120220	12022020	081545	185.31	12.845102	-57.124373	185.38	-1.290	-0.790	4.560	185.20	-2.20	5.10	 	 	 	 	 	 	 	 	 	 	 	 	 	 	 	 	 	 	1581495345	8.38	15.52
12/02/2020 08:15:46	120220	12022020	081546	184.93	12.845067	-57.124392	185.05	-0.880	-0.590	4.830	184.91	-1.90	5.30	 	 	 	 	 	 	 	 	 	 	 	 	 	 	 	 	 	 	1581495346	8.62	15.96
12/02/2020 08:15:47	120220	12022020	081547	185.10	12.845032	-57.124405	185.26	-0.310	0.130	4.050	185.19	-1.20	4.50	 	 	 	 	 	 	 	 	 	 	 	 	 	 	 	 	 	 	1581495347	7.95	14.72
12/02/2020 08:15:48	120220	12022020	081548	185.62	12.845000	-57.124412	185.78	0.240	0.730	2.420	185.73	-0.60	2.80	 	 	 	 	 	 	 	 	 	 	 	 	 	 	 	 	 	 	1581495348	7.01	12.98
12/02/2020 08:15:49	120220	12022020	081549	186.10	12.844968	-57.124410	186.20	0.740	0.640	0.620	186.18	-0.80	1.10	 	 	 	 	 	 	 	 	 	 	 	 	 	 	 	 	 	 	1581495349	7.04	13.04
12/02/2020 08:15:50	120220	12022020	081550	186.40	12.844932	-57.124403	186.44	1.060	0.120	-0.650	186.43	-1.30	-0.20	 	 	 	 	 	 	 	 	 	 	 	 	 	 	 	 	 	 	1581495350	7.81	14.46
12/02/2020 08:15:51	120220	12022020	081551	186.51	12.844895	-57.124397	186.54	0.950	-0.410	-0.970	186.51	-1.80	-0.40	 	 	 	 	 	 	 	 	 	 	 	 	 	 	 	 	 	 	1581495351	8.06	14.93
12/02/2020 08:15:52	120220	12022020	081552	186.48	12.844858	-57.124395	186.47	0.400	-0.990	-0.320	186.44	-2.40	0.30	 	 	 	 	 	 	 	 	 	 	 	 	 	 	 	 	 	 	1581495352	7.72	14.30
12/02/2020 08:15:53	120220	12022020	081553	186.05	12.844823	-57.124402	186.07	-0.250	-1.570	1.120	185.94	-3.00	1.70	 	 	 	 	 	 	 	 	 	 	 	 	 	 	 	 	 	 	1581495353	7.77	14.39
12/02/2020 08:15:54	120220	12022020	081554	185.47	12.844788	-57.124417	185.52	-0.640	-1.660	2.770	185.38	-3.00	3.30	 	 	 	 	 	 	 	 	 	 	 	 	 	 	 	 	 	 	1581495354	8.38	15.52
12/02/2020 08:15:55	120220	12022020	081555	185.12	12.844753	-57.124435	185.22	-0.770	-0.930	3.880	185.09	-2.20	4.40	 	 	 	 	 	 	 	 	 	 	 	 	 	 	 	 	 	 	1581495355	8.37	15.50
12/02/2020 08:15:56	120220	12022020	081556	184.99	12.844720	-57.124450	185.12	-0.780	0.140	4.230	184.97	-1.20	4.70	 	 	 	 	 	 	 	 	 	 	 	 	 	 	 	 	 	 	1581495356	7.60	14.08
12/02/2020 08:15:57	120220	12022020	081557	184.90	12.844690	-57.124462	185.05	-0.680	0.900	3.950	184.91	-0.40	4.40	 	 	 	 	 	 	 	 	 	 	 	 	 	 	 	 	 	 	1581495357	7.12	13.19
12/02/2020 08:15:58	120220	12022020	081558	185.09	12.844657	-57.124470	185.26	-0.470	1.180	3.130	185.16	-0.20	3.60	 	 	 	 	 	 	 	 	 	 	 	 	 	 	 	 	 	 	1581495358	7.30	13.52
12/02/2020 08:15:59	120220	12022020	081559	185.52	12.844622	-57.124475	185.68	-0.090	1.130	2.040	185.62	-0.30	2.50	 	 	 	 	 	 	 	 	 	 	 	 	 	 	 	 	 	 	1581495359	7.44	13.78
12/02/2020 08:16:00	120220	12022020	081600	185.99	12.844588	-57.124477	186.12	0.500	0.740	0.900	186.09	-0.70	1.40	 	 	 	 	 	 	 	 	 	 	 	 	 	 	 	 	 	 	1581495360	7.41	13.72
12/02/2020 08:16:01	120220	12022020	081601	186.44	12.844553	-57.124477	186.55	1.030	-0.050	-0.030	186.53	-1.50	0.50	1015.00	26.10	26.10	20.10	20.20	-1.0	69.0	69.0	395.0	25.8	269.00	10.40	75.00	11.20	16	9790.0	27.3	27.3	1581495361	7.50	13.89
12/02/2020 08:16:02	120220	12022020	081602	186.75	12.844517	-57.124473	186.82	1.230	-1.160	-0.190	186.77	-2.60	0.40	 	 	 	 	 	 	 	 	 	 	 	 	 	 	 	 	 	 	1581495362	7.73	14.32
12/02/2020 08:16:03	120220	12022020	081603	186.63	12.844480	-57.124475	186.67	1.080	-2.230	0.590	186.55	-3.60	1.20	 	 	 	 	 	 	 	 	 	 	 	 	 	 	 	 	 	 	1581495363	7.91	14.65
12/02/2020 08:16:04	120220	12022020	081604	186.21	12.844443	-57.124483	186.13	0.660	-2.560	2.030	186.09	-3.90	2.60	 	 	 	 	 	 	 	 	 	 	 	 	 	 	 	 	 	 	1581495364	8.11	15.02
12/02/2020 08:16:05	120220	12022020	081605	185.36	12.844408	-57.124495	185.43	-0.020	-1.780	3.610	185.23	-3.10	4.20	 	 	 	 	 	 	 	 	 	 	 	 	 	 	 	 	 	 	1581495365	7.91	14.65
12/02/2020 08:16:06	120220	12022020	081606	184.70	12.844377	-57.124508	184.81	-0.820	-0.290	4.800	184.61	-1.60	5.30	 	 	 	 	 	 	 	 	 	 	 	 	 	 	 	 	 	 	1581495366	7.45	13.80
12/02/2020 08:16:07	120220	12022020	081607	184.46	12.844347	-57.124523	184.63	-1.450	1.090	5.120	184.49	-0.20	5.60	 	 	 	 	 	 	 	 	 	 	 	 	 	 	 	 	 	 	1581495367	7.10	13.15
12/02/2020 08:16:08	120220	12022020	081608	184.81	12.844315	-57.124535	185.02	-1.670	1.660	4.530	184.93	0.30	5.00	 	 	 	 	 	 	 	 	 	 	 	 	 	 	 	 	 	 	1581495368	7.12	13.19
12/02/2020 08:16:09	120220	12022020	081609	185.43	12.844282	-57.124543	185.62	-1.330	1.150	3.490	185.55	-0.20	3.90	 	 	 	 	 	 	 	 	 	 	 	 	 	 	 	 	 	 	1581495369	7.57	14.02
12/02/2020 08:16:10	120220	12022020	081610	185.94	12.844243	-57.124552	186.09	-0.410	0.120	2.290	186.01	-1.30	2.70	 	 	 	 	 	 	 	 	 	 	 	 	 	 	 	 	 	 	1581495370	8.33	15.43
12/02/2020 08:16:11	120220	12022020	081611	186.17	12.844203	-57.124555	186.26	0.740	-0.650	1.030	186.19	-2.00	1.50	 	 	 	 	 	 	 	 	 	 	 	 	 	 	 	 	 	 	1581495371	8.59	15.91
12/02/2020 08:16:12	120220	12022020	081612	186.35	12.844165	-57.124555	186.44	1.500	-0.540	-0.120	186.41	-1.90	0.40	 	 	 	 	 	 	 	 	 	 	 	 	 	 	 	 	 	 	1581495372	8.21	15.20
12/02/2020 08:16:13	120220	12022020	081613	186.76	12.844133	-57.124550	186.86	1.410	0.300	-0.750	186.86	-1.00	-0.20	 	 	 	 	 	 	 	 	 	 	 	 	 	 	 	 	 	 	1581495373	7.17	13.28
12/02/2020 08:16:14	120220	12022020	081614	187.08	12.844105	-57.124547	187.17	0.700	0.680	-0.590	187.11	-0.70	-0.00	 	 	 	 	 	 	 	 	 	 	 	 	 	 	 	 	 	 	1581495374	6.09	11.28
12/02/2020 08:16:15	120220	12022020	081615	186.88	12.844075	-57.124550	186.90	0.040	-0.180	0.510	186.78	-1.60	1.10	 	 	 	 	 	 	 	 	 	 	 	 	 	 	 	 	 	 	1581495375	6.30	11.67
12/02/2020 08:16:16	120220	12022020	081616	186.39	12.844040	-57.124562	186.27	-0.240	-1.570	2.070	186.26	-3.00	2.70	 	 	 	 	 	 	 	 	 	 	 	 	 	 	 	 	 	 	1581495376	7.85	14.54
12/02/2020 08:16:17	120220	12022020	081617	185.44	12.844003	-57.124578	185.50	-0.210	-2.260	3.520	185.29	-3.60	4.10	 	 	 	 	 	 	 	 	 	 	 	 	 	 	 	 	 	 	1581495377	8.82	16.33
12/02/2020 08:16:18	120220	12022020	081618	184.74	12.843967	-57.124595	184.83	-0.120	-1.890	4.280	184.65	-3.20	4.80	 	 	 	 	 	 	 	 	 	 	 	 	 	 	 	 	 	 	1581495378	8.50	15.74
12/02/2020 08:16:19	120220	12022020	081619	184.50	12.843933	-57.124608	184.63	-0.180	-0.670	4.010	184.51	-1.90	4.50	 	 	 	 	 	 	 	 	 	 	 	 	 	 	 	 	 	 	1581495379	7.62	14.11
12/02/2020 08:16:20	120220	12022020	081620	184.70	12.843903	-57.124615	184.83	-0.450	0.720	3.130	184.76	-0.60	3.60	 	 	 	 	 	 	 	 	 	 	 	 	 	 	 	 	 	 	1581495380	6.74	12.48
12/02/2020 08:16:21	120220	12022020	081621	184.98	12.843873	-57.124618	185.09	-0.670	1.470	2.130	185.03	0.10	2.60	 	 	 	 	 	 	 	 	 	 	 	 	 	 	 	 	 	 	1581495381	6.48	12.00
12/02/2020 08:16:22	120220	12022020	081622	185.28	12.843840	-57.124620	185.38	-0.620	1.370	1.180	185.35	-0.00	1.70	 	 	 	 	 	 	 	 	 	 	 	 	 	 	 	 	 	 	1581495382	7.00	12.96
12/02/2020 08:16:23	120220	12022020	081623	185.66	12.843805	-57.124622	185.75	-0.250	0.790	0.500	185.74	-0.60	1.00	 	 	 	 	 	 	 	 	 	 	 	 	 	 	 	 	 	 	1581495383	7.55	13.98
12/02/2020 08:16:24	120220	12022020	081624	186.03	12.843770	-57.124625	186.11	0.340	-0.070	0.120	186.08	-1.50	0.60	 	 	 	 	 	 	 	 	 	 	 	 	 	 	 	 	 	 	1581495384	7.63	14.13
12/02/2020 08:16:25	120220	12022020	081625	186.13	12.843735	-57.124628	186.18	0.910	-1.120	0.210	186.10	-2.50	0.80	 	 	 	 	 	 	 	 	 	 	 	 	 	 	 	 	 	 	1581495385	7.68	14.22
12/02/2020 08:16:26	120220	12022020	081626	185.80	12.843698	-57.124632	185.83	1.090	-1.810	0.970	185.68	-3.20	1.60	 	 	 	 	 	 	 	 	 	 	 	 	 	 	 	 	 	 	1581495386	7.86	14.56
12/02/2020 08:16:27	120220	12022020	081627	185.12	12.843663	-57.124638	185.16	0.740	-1.760	2.180	184.97	-3.10	2.80	 	 	 	 	 	 	 	 	 	 	 	 	 	 	 	 	 	 	1581495387	7.67	14.20
12/02/2020 08:16:28	120220	12022020	081628	184.57	12.843630	-57.124648	184.56	0.030	-0.970	3.370	184.47	-2.30	3.90	 	 	 	 	 	 	 	 	 	 	 	 	 	 	 	 	 	 	1581495388	7.41	13.72
12/02/2020 08:16:29	120220	12022020	081629	184.34	12.843598	-57.124660	184.50	-0.670	0.220	4.010	184.40	-1.10	4.50	 	 	 	 	 	 	 	 	 	 	 	 	 	 	 	 	 	 	1581495389	7.23	13.39
12/02/2020 08:16:30	120220	12022020	081630	184.79	12.843570	-57.124673	184.98	-1.000	1.200	3.860	184.90	-0.10	4.30	 	 	 	 	 	 	 	 	 	 	 	 	 	 	 	 	 	 	1581495390	6.95	12.87
12/02/2020 08:16:31	120220	12022020	081631	185.37	12.843540	-57.124683	185.54	-0.820	1.290	3.010	185.47	-0.10	3.50	 	 	 	 	 	 	 	 	 	 	 	 	 	 	 	 	 	 	1581495391	6.80	12.59
12/02/2020 08:16:32	120220	12022020	081632	185.82	12.843505	-57.124688	185.96	-0.260	0.510	1.890	185.90	-0.90	2.40	 	 	 	 	 	 	 	 	 	 	 	 	 	 	 	 	 	 	1581495392	7.38	13.67
12/02/2020 08:16:33	120220	12022020	081633	186.19	12.843468	-57.124690	186.29	0.300	-0.350	0.970	186.24	-1.70	1.50	 	 	 	 	 	 	 	 	 	 	 	 	 	 	 	 	 	 	1581495393	8.06	14.93
12/02/2020 08:16:34	120220	12022020	081634	186.31	12.843432	-57.124690	186.34	0.610	-0.870	0.490	186.26	-2.30	1.00	 	 	 	 	 	 	 	 	 	 	 	 	 	 	 	 	 	 	1581495394	7.91	14.65
12/02/2020 08:16:35	120220	12022020	081635	185.87	12.843397	-57.124692	185.85	0.690	-1.270	0.740	185.75	-2.70	1.30	 	 	 	 	 	 	 	 	 	 	 	 	 	 	 	 	 	 	1581495395	7.44	13.78
12/02/2020 08:16:36	120220	12022020	081636	185.42	12.843362	-57.124697	185.45	0.550	-1.250	1.270	185.40	-2.60	1.80	 	 	 	 	 	 	 	 	 	 	 	 	 	 	 	 	 	 	1581495396	7.58	14.04
12/02/2020 08:16:37	120220	12022020	081637	185.44	12.843328	-57.124705	185.52	0.190	-0.450	1.790	185.48	-1.80	2.30	 	 	 	 	 	 	 	 	 	 	 	 	 	 	 	 	 	 	1581495397	7.40	13.70
12/02/2020 08:16:38	120220	12022020	081638	185.65	12.843298	-57.124715	185.75	-0.210	0.520	2.200	185.70	-0.80	2.70	 	 	 	 	 	 	 	 	 	 	 	 	 	 	 	 	 	 	1581495398	6.72	12.45
12/02/2020 08:16:39	120220	12022020	081639	185.88	12.843270	-57.124725	185.98	-0.350	0.820	2.210	185.93	-0.60	2.70	 	 	 	 	 	 	 	 	 	 	 	 	 	 	 	 	 	 	1581495399	6.58	12.19
12/02/2020 08:16:40	120220	12022020	081640	186.08	12.843237	-57.124732	186.22	-0.210	0.420	1.900	186.13	-1.00	2.40	 	 	 	 	 	 	 	 	 	 	 	 	 	 	 	 	 	 	1581495400	7.15	13.24
12/02/2020 08:16:41	120220	12022020	081641	186.16	12.843202	-57.124737	186.21	0.040	-0.460	1.790	186.12	-1.90	2.30	 	 	 	 	 	 	 	 	 	 	 	 	 	 	 	 	 	 	1581495401	7.72	14.30
12/02/2020 08:16:42	120220	12022020	081642	185.94	12.843163	-57.124742	185.91	0.220	-1.350	2.090	185.86	-2.70	2.60	 	 	 	 	 	 	 	 	 	 	 	 	 	 	 	 	 	 	1581495402	8.24	15.26
12/02/2020 08:16:43	120220	12022020	081643	185.47	12.843125	-57.124750	185.54	0.170	-1.420	2.440	185.42	-2.70	3.00	 	 	 	 	 	 	 	 	 	 	 	 	 	 	 	 	 	 	1581495403	8.31	15.39
12/02/2020 08:16:44	120220	12022020	081644	185.35	12.843092	-57.124757	185.46	-0.100	-0.480	2.450	185.37	-1.80	3.00	 	 	 	 	 	 	 	 	 	 	 	 	 	 	 	 	 	 	1581495404	7.54	13.96
12/02/2020 08:16:45	120220	12022020	081645	185.60	12.843062	-57.124763	185.72	-0.450	0.650	2.210	185.66	-0.70	2.70	 	 	 	 	 	 	 	 	 	 	 	 	 	 	 	 	 	 	1581495405	6.54	12.11
12/02/2020 08:16:46	120220	12022020	081646	185.84	12.843032	-57.124768	185.94	-0.540	0.910	1.950	185.85	-0.50	2.50	 	 	 	 	 	 	 	 	 	 	 	 	 	 	 	 	 	 	1581495406	6.35	11.76
12/02/2020 08:16:47	120220	12022020	081647	185.79	12.842998	-57.124775	185.85	-0.160	0.190	1.770	185.75	-1.20	2.30	 	 	 	 	 	 	 	 	 	 	 	 	 	 	 	 	 	 	1581495407	7.26	13.45
12/02/2020 08:16:48	120220	12022020	081648	185.56	12.842962	-57.124782	185.62	0.420	-0.610	1.730	185.52	-2.00	2.30	 	 	 	 	 	 	 	 	 	 	 	 	 	 	 	 	 	 	1581495408	8.23	15.24
12/02/2020 08:16:49	120220	12022020	081649	185.46	12.842923	-57.124788	185.53	0.700	-0.660	1.570	185.46	-2.00	2.10	 	 	 	 	 	 	 	 	 	 	 	 	 	 	 	 	 	 	1581495409	8.25	15.28
12/02/2020 08:16:50	120220	12022020	081650	185.49	12.842890	-57.124792	185.56	0.470	-0.030	1.400	185.50	-1.40	1.90	 	 	 	 	 	 	 	 	 	 	 	 	 	 	 	 	 	 	1581495410	7.30	13.52
12/02/2020 08:16:51	120220	12022020	081651	185.55	12.842860	-57.124797	185.62	0.030	0.500	1.490	185.57	-0.90	2.00	 	 	 	 	 	 	 	 	 	 	 	 	 	 	 	 	 	 	1581495411	6.46	11.96
12/02/2020 08:16:52	120220	12022020	081652	185.60	12.842830	-57.124802	185.67	-0.190	0.310	1.690	185.61	-1.10	2.20	 	 	 	 	 	 	 	 	 	 	 	 	 	 	 	 	 	 	1581495412	6.54	12.11
12/02/2020 08:16:53	120220	12022020	081653	185.65	12.842797	-57.124810	185.73	0.040	-0.480	1.800	185.66	-1.90	2.30	 	 	 	 	 	 	 	 	 	 	 	 	 	 	 	 	 	 	1581495413	7.35	13.61
12/02/2020 08:16:54	120220	12022020	081654	185.76	12.842760	-57.124817	185.85	0.450	-1.260	1.730	185.80	-2.60	2.20	 	 	 	 	 	 	 	 	 	 	 	 	 	 	 	 	 	 	1581495414	8.00	14.82
12/02/2020 08:16:55	120220	12022020	081655	185.92	12.842723	-57.124822	186.00	0.540	-1.540	1.750	185.93	-2.90	2.30	 	 	 	 	 	 	 	 	 	 	 	 	 	 	 	 	 	 	1581495415	8.04	14.89
12/02/2020 08:16:56	120220	12022020	081656	185.97	12.842688	-57.124827	186.05	0.030	-1.210	2.080	185.96	-2.50	2.60	 	 	 	 	 	 	 	 	 	 	 	 	 	 	 	 	 	 	1581495416	7.65	14.17
12/02/2020 08:16:57	120220	12022020	081657	185.87	12.842655	-57.124833	185.95	-0.750	-0.460	2.660	185.82	-1.80	3.20	 	 	 	 	 	 	 	 	 	 	 	 	 	 	 	 	 	 	1581495417	7.21	13.35
12/02/2020 08:16:58	120220	12022020	081658	185.57	12.842623	-57.124845	185.64	-1.230	0.280	3.350	185.48	-1.10	3.90	 	 	 	 	 	 	 	 	 	 	 	 	 	 	 	 	 	 	1581495418	7.08	13.11
12/02/2020 08:16:59	120220	12022020	081659	185.09	12.842592	-57.124857	185.17	-1.000	0.580	3.790	184.99	-0.80	4.30	 	 	 	 	 	 	 	 	 	 	 	 	 	 	 	 	 	 	1581495419	7.34	13.59
12/02/2020 08:17:00	120220	12022020	081700	184.70	12.842557	-57.124868	184.81	-0.210	0.540	3.570	184.66	-0.80	4.00	 	 	 	 	 	 	 	 	 	 	 	 	 	 	 	 	 	 	1581495420	7.80	14.45
12/02/2020 08:17:01	120220	12022020	081701	184.75	12.842522	-57.124873	184.90	0.560	0.580	2.620	184.82	-0.80	3.10	1015.00	26.20	26.20	20.60	20.60	-1.0	71.0	71.0	393.0	25.8	274.00	10.20	78.00	10.70	16	10446.0	27.3	27.3	1581495421	7.91	14.65
12/02/2020 08:17:02	120220	12022020	081702	185.27	12.842487	-57.124873	185.43	0.840	0.680	1.400	185.41	-0.70	1.90	 	 	 	 	 	 	 	 	 	 	 	 	 	 	 	 	 	 	1581495422	7.48	13.85
12/02/2020 08:17:03	120220	12022020	081703	185.91	12.842453	-57.124872	186.04	0.680	0.320	0.690	186.01	-1.10	1.20	 	 	 	 	 	 	 	 	 	 	 	 	 	 	 	 	 	 	1581495423	7.08	13.11
12/02/2020 08:17:04	120220	12022020	081704	186.13	12.842420	-57.124872	186.19	0.430	-0.740	0.920	186.09	-2.20	1.50	 	 	 	 	 	 	 	 	 	 	 	 	 	 	 	 	 	 	1581495424	7.22	13.37
12/02/2020 08:17:05	120220	12022020	081705	185.82	12.842383	-57.124877	185.88	0.200	-1.840	1.800	185.74	-3.20	2.40	 	 	 	 	 	 	 	 	 	 	 	 	 	 	 	 	 	 	1581495425	7.92	14.67
12/02/2020 08:17:06	120220	12022020	081706	185.53	12.842347	-57.124888	185.63	-0.150	-1.950	2.720	185.51	-3.30	3.30	 	 	 	 	 	 	 	 	 	 	 	 	 	 	 	 	 	 	1581495426	8.31	15.39
12/02/2020 08:17:07	120220	12022020	081707	185.55	12.842315	-57.124903	185.68	-0.540	-0.850	3.050	185.58	-2.10	3.60	 	 	 	 	 	 	 	 	 	 	 	 	 	 	 	 	 	 	1581495427	7.61	14.09
12/02/2020 08:17:08	120220	12022020	081708	185.68	12.842287	-57.124915	185.79	-0.610	0.320	2.820	185.69	-1.00	3.30	 	 	 	 	 	 	 	 	 	 	 	 	 	 	 	 	 	 	1581495428	6.45	11.95
12/02/2020 08:17:09	120220	12022020	081709	185.63	12.842257	-57.124922	185.70	-0.170	0.450	2.420	185.58	-0.90	2.90	 	 	 	 	 	 	 	 	 	 	 	 	 	 	 	 	 	 	1581495429	6.42	11.89
12/02/2020 08:17:10	120220	12022020	081710	185.30	12.842222	-57.124925	185.37	0.460	-0.240	2.240	185.23	-1.60	2.80	 	 	 	 	 	 	 	 	 	 	 	 	 	 	 	 	 	 	1581495430	7.65	14.17
12/02/2020 08:17:11	120220	12022020	081711	185.08	12.842182	-57.124928	185.18	0.670	-0.550	2.250	185.08	-1.90	2.80	 	 	 	 	 	 	 	 	 	 	 	 	 	 	 	 	 	 	1581495431	8.58	15.89
12/02/2020 08:17:12	120220	12022020	081712	185.30	12.842145	-57.124932	185.46	0.200	0.110	2.370	185.41	-1.20	2.90	 	 	 	 	 	 	 	 	 	 	 	 	 	 	 	 	 	 	1581495432	8.02	14.85
12/02/2020 08:17:13	120220	12022020	081713	185.96	12.842115	-57.124937	186.14	-0.580	1.080	2.440	186.11	-0.30	3.00	 	 	 	 	 	 	 	 	 	 	 	 	 	 	 	 	 	 	1581495433	6.71	12.43
12/02/2020 08:17:14	120220	12022020	081714	186.60	12.842087	-57.124943	186.75	-1.010	0.990	2.390	186.68	-0.40	2.90	 	 	 	 	 	 	 	 	 	 	 	 	 	 	 	 	 	 	1581495434	6.18	11.45
12/02/2020 08:17:15	120220	12022020	081715	186.80	12.842053	-57.124953	186.90	-0.700	-0.360	2.490	186.79	-1.80	3.00	 	 	 	 	 	 	 	 	 	 	 	 	 	 	 	 	 	 	1581495435	7.25	13.43
12/02/2020 08:17:16	120220	12022020	081716	186.64	12.842015	-57.124965	186.74	0.060	-1.650	2.640	186.60	-3.00	3.20	 	 	 	 	 	 	 	 	 	 	 	 	 	 	 	 	 	 	1581495436	8.58	15.89
12/02/2020 08:17:17	120220	12022020	081717	186.45	12.841978	-57.124975	186.55	0.670	-1.780	2.380	186.42	-3.10	2.90	 	 	 	 	 	 	 	 	 	 	 	 	 	 	 	 	 	 	1581495437	8.52	15.78
12/02/2020 08:17:18	120220	12022020	081718	186.35	12.841943	-57.124982	186.40	0.780	-1.000	1.710	186.32	-2.30	2.20	 	 	 	 	 	 	 	 	 	 	 	 	 	 	 	 	 	 	1581495438	7.33	13.58
12/02/2020 08:17:19	120220	12022020	081719	186.10	12.841913	-57.124983	186.15	0.530	-0.160	1.170	186.04	-1.50	1.70	 	 	 	 	 	 	 	 	 	 	 	 	 	 	 	 	 	 	1581495439	6.63	12.28
12/02/2020 08:17:20	120220	12022020	081720	185.82	12.841882	-57.124983	185.88	0.190	0.280	1.010	185.80	-1.10	1.50	 	 	 	 	 	 	 	 	 	 	 	 	 	 	 	 	 	 	1581495440	6.86	12.70
12/02/2020 08:17:21	120220	12022020	081721	185.77	12.841847	-57.124985	185.86	-0.220	0.490	1.100	185.79	-0.90	1.60	 	 	 	 	 	 	 	 	 	 	 	 	 	 	 	 	 	 	1581495441	7.41	13.72
12/02/2020 08:17:22	120220	12022020	081722	185.93	12.841812	-57.124990	186.02	-0.650	0.510	1.530	185.97	-0.90	2.10	 	 	 	 	 	 	 	 	 	 	 	 	 	 	 	 	 	 	1581495442	7.56	14.00
12/02/2020 08:17:23	120220	12022020	081723	186.14	12.841777	-57.125000	186.24	-0.860	0.250	2.220	186.17	-1.10	2.80	 	 	 	 	 	 	 	 	 	 	 	 	 	 	 	 	 	 	1581495443	7.72	14.30
12/02/2020 08:17:24	120220	12022020	081724	186.30	12.841743	-57.125013	186.41	-0.650	-0.130	2.780	186.33	-1.50	3.30	 	 	 	 	 	 	 	 	 	 	 	 	 	 	 	 	 	 	1581495444	7.98	14.78
12/02/2020 08:17:25	120220	12022020	081725	186.48	12.841708	-57.125027	186.61	-0.210	-0.290	2.880	186.52	-1.70	3.40	 	 	 	 	 	 	 	 	 	 	 	 	 	 	 	 	 	 	1581495445	7.94	14.70
12/02/2020 08:17:26	120220	12022020	081726	186.66	12.841675	-57.125037	186.77	0.100	-0.100	2.600	186.68	-1.50	3.10	 	 	 	 	 	 	 	 	 	 	 	 	 	 	 	 	 	 	1581495446	7.42	13.74
12/02/2020 08:17:27	120220	12022020	081727	186.73	12.841645	-57.125043	186.82	0.280	0.010	2.080	186.73	-1.40	2.60	 	 	 	 	 	 	 	 	 	 	 	 	 	 	 	 	 	 	1581495447	6.81	12.61
12/02/2020 08:17:28	120220	12022020	081728	186.69	12.841613	-57.125048	186.72	0.550	-0.370	1.450	186.66	-1.80	2.00	 	 	 	 	 	 	 	 	 	 	 	 	 	 	 	 	 	 	1581495448	6.83	12.65
12/02/2020 08:17:29	120220	12022020	081729	186.30	12.841578	-57.125050	186.32	0.950	-1.090	1.150	186.20	-2.50	1.70	 	 	 	 	 	 	 	 	 	 	 	 	 	 	 	 	 	 	1581495449	7.49	13.87
12/02/2020 08:17:30	120220	12022020	081730	185.95	12.841540	-57.125052	185.94	1.080	-1.440	1.230	185.89	-2.80	1.80	 	 	 	 	 	 	 	 	 	 	 	 	 	 	 	 	 	 	1581495450	8.08	14.96
12/02/2020 08:17:31	120220	12022020	081731	185.83	12.841503	-57.125055	185.93	0.550	-0.940	1.580	185.87	-2.30	2.10	 	 	 	 	 	 	 	 	 	 	 	 	 	 	 	 	 	 	1581495451	7.91	14.65
12/02/2020 08:17:32	120220	12022020	081732	186.07	12.841472	-57.125060	186.26	-0.470	0.100	2.080	186.14	-1.20	2.60	 	 	 	 	 	 	 	 	 	 	 	 	 	 	 	 	 	 	1581495452	7.12	13.19
12/02/2020 08:17:33	120220	12022020	081733	186.47	12.841442	-57.125072	186.57	-1.260	0.770	2.580	186.51	-0.60	3.10	 	 	 	 	 	 	 	 	 	 	 	 	 	 	 	 	 	 	1581495453	6.69	12.39
12/02/2020 08:17:34	120220	12022020	081734	186.61	12.841412	-57.125083	186.72	-1.280	0.550	2.870	186.62	-0.80	3.40	 	 	 	 	 	 	 	 	 	 	 	 	 	 	 	 	 	 	1581495454	7.23	13.39
12/02/2020 08:17:35	120220	12022020	081735	186.64	12.841375	-57.125097	186.76	-0.730	-0.070	2.860	186.64	-1.40	3.40	 	 	 	 	 	 	 	 	 	 	 	 	 	 	 	 	 	 	1581495455	8.05	14.91
12/02/2020 08:17:36	120220	12022020	081736	186.64	12.841338	-57.125107	186.75	-0.110	-0.470	2.590	186.63	-1.80	3.10	 	 	 	 	 	 	 	 	 	 	 	 	 	 	 	 	 	 	1581495456	8.25	15.28
12/02/2020 08:17:37	120220	12022020	081737	186.52	12.841303	-57.125113	186.59	0.320	-0.440	2.160	186.46	-1.80	2.70	 	 	 	 	 	 	 	 	 	 	 	 	 	 	 	 	 	 	1581495457	7.84	14.52
12/02/2020 08:17:38	120220	12022020	081738	186.15	12.841268	-57.125117	186.19	0.570	-0.190	1.790	186.07	-1.50	2.30	 	 	 	 	 	 	 	 	 	 	 	 	 	 	 	 	 	 	1581495458	7.34	13.59
12/02/2020 08:17:39	120220	12022020	081739	185.84	12.841235	-57.125120	185.91	0.610	0.130	1.540	185.82	-1.20	2.10	 	 	 	 	 	 	 	 	 	 	 	 	 	 	 	 	 	 	1581495459	7.18	13.30
12/02/2020 08:17:40	120220	12022020	081740	185.89	12.841203	-57.125122	185.98	0.410	0.350	1.340	185.93	-1.00	1.90	 	 	 	 	 	 	 	 	 	 	 	 	 	 	 	 	 	 	1581495460	7.08	13.11
12/02/2020 08:17:41	120220	12022020	081741	186.21	12.841170	-57.125127	186.30	0.110	0.270	1.130	186.29	-1.10	1.70	 	 	 	 	 	 	 	 	 	 	 	 	 	 	 	 	 	 	1581495461	7.03	13.02
12/02/2020 08:17:42	120220	12022020	081742	186.63	12.841137	-57.125132	186.73	-0.110	-0.220	1.110	186.70	-1.60	1.70	 	 	 	 	 	 	 	 	 	 	 	 	 	 	 	 	 	 	1581495462	7.20	13.33
12/02/2020 08:17:43	120220	12022020	081743	186.87	12.841103	-57.125140	186.95	-0.100	-0.920	1.520	186.87	-2.30	2.10	 	 	 	 	 	 	 	 	 	 	 	 	 	 	 	 	 	 	1581495463	7.57	14.02
12/02/2020 08:17:44	120220	12022020	081744	186.63	12.841068	-57.125152	186.66	0.120	-1.570	2.270	186.51	-3.00	2.80	 	 	 	 	 	 	 	 	 	 	 	 	 	 	 	 	 	 	1581495464	7.84	14.52
12/02/2020 08:17:45	120220	12022020	081745	185.86	12.841032	-57.125162	185.89	0.370	-1.870	3.100	185.70	-3.20	3.70	 	 	 	 	 	 	 	 	 	 	 	 	 	 	 	 	 	 	1581495465	8.06	14.93
12/02/2020 08:17:46	120220	12022020	081746	185.12	12.840995	-57.125172	185.20	0.300	-1.280	3.590	185.04	-2.60	4.10	 	 	 	 	 	 	 	 	 	 	 	 	 	 	 	 	 	 	1581495466	8.14	15.08
12/02/2020 08:17:47	120220	12022020	081747	184.99	12.840962	-57.125180	185.14	-0.180	0.240	3.530	185.06	-1.00	4.00	 	 	 	 	 	 	 	 	 	 	 	 	 	 	 	 	 	 	1581495467	7.53	13.95
12/02/2020 08:17:48	120220	12022020	081748	185.49	12.840932	-57.125187	185.66	-0.720	1.720	3.030	185.63	0.40	3.50	 	 	 	 	 	 	 	 	 	 	 	 	 	 	 	 	 	 	1581495468	6.53	12.09
12/02/2020 08:17:49	120220	12022020	081749	186.08	12.840903	-57.125192	186.22	-0.840	2.010	2.370	186.18	0.60	2.90	 	 	 	 	 	 	 	 	 	 	 	 	 	 	 	 	 	 	1581495469	6.36	11.78
12/02/2020 08:17:50	120220	12022020	081750	186.59	12.840868	-57.125197	186.73	-0.400	1.120	1.640	186.69	-0.30	2.10	 	 	 	 	 	 	 	 	 	 	 	 	 	 	 	 	 	 	1581495470	7.36	13.63
12/02/2020 08:17:51	120220	12022020	081751	187.11	12.840832	-57.125202	187.25	0.230	-0.040	1.030	187.21	-1.50	1.50	 	 	 	 	 	 	 	 	 	 	 	 	 	 	 	 	 	 	1581495471	8.23	15.24
12/02/2020 08:17:52	120220	12022020	081752	187.47	12.840793	-57.125207	187.56	0.610	-0.910	0.770	187.49	-2.30	1.30	 	 	 	 	 	 	 	 	 	 	 	 	 	 	 	 	 	 	1581495472	8.03	14.87
12/02/2020 08:17:53	120220	12022020	081753	187.33	12.840760	-57.125210	187.36	0.660	-1.700	1.110	187.24	-3.10	1.70	 	 	 	 	 	 	 	 	 	 	 	 	 	 	 	 	 	 	1581495473	7.48	13.85
12/02/2020 08:17:54	120220	12022020	081754	186.67	12.840725	-57.125218	186.68	0.570	-2.350	1.940	186.48	-3.70	2.50	 	 	 	 	 	 	 	 	 	 	 	 	 	 	 	 	 	 	1581495474	7.60	14.08
12/02/2020 08:17:55	120220	12022020	081755	185.66	12.840690	-57.125228	185.68	0.490	-2.300	2.950	185.44	-3.60	3.50	 	 	 	 	 	 	 	 	 	 	 	 	 	 	 	 	 	 	1581495475	7.95	14.72
12/02/2020 08:17:56	120220	12022020	081756	184.83	12.840655	-57.125240	184.75	0.280	-1.260	3.780	184.68	-2.50	4.30	 	 	 	 	 	 	 	 	 	 	 	 	 	 	 	 	 	 	1581495476	7.80	14.45
12/02/2020 08:17:57	120220	12022020	081757	184.40	12.840622	-57.125248	184.56	-0.290	0.470	4.030	184.45	-0.80	4.50	 	 	 	 	 	 	 	 	 	 	 	 	 	 	 	 	 	 	1581495477	7.27	13.46
12/02/2020 08:17:58	120220	12022020	081758	184.99	12.840592	-57.125257	185.22	-0.980	1.870	3.640	185.18	0.60	4.10	 	 	 	 	 	 	 	 	 	 	 	 	 	 	 	 	 	 	1581495478	6.68	12.37
12/02/2020 08:17:59	120220	12022020	081759	186.02	12.840562	-57.125265	186.23	-1.260	2.110	2.880	186.20	0.70	3.40	 	 	 	 	 	 	 	 	 	 	 	 	 	 	 	 	 	 	1581495479	6.80	12.59
12/02/2020 08:18:00	120220	12022020	081800	186.93	12.840527	-57.125272	187.13	-0.860	1.290	2.120	187.13	-0.10	2.60	 	 	 	 	 	 	 	 	 	 	 	 	 	 	 	 	 	 	1581495480	7.64	14.15
12/02/2020 08:18:01	120220	12022020	081801	187.89	12.840488	-57.125278	188.08	-0.120	0.320	1.400	188.07	-1.10	1.90	1015.00	26.10	26.20	20.70	20.70	-1.0	71.0	71.0	392.0	25.8	278.00	11.60	85.00	11.70	16	9544.0	27.3	27.3	1581495481	8.29	15.35
12/02/2020 08:18:02	120220	12022020	081802	188.57	12.840452	-57.125283	188.69	0.500	-0.490	1.010	188.61	-1.90	1.50	 	 	 	 	 	 	 	 	 	 	 	 	 	 	 	 	 	 	1581495482	7.88	14.59
12/02/2020 08:18:03	120220	12022020	081803	188.33	12.840418	-57.125288	188.35	0.990	-1.470	1.220	188.16	-2.90	1.80	 	 	 	 	 	 	 	 	 	 	 	 	 	 	 	 	 	 	1581495483	7.38	13.67
12/02/2020 08:18:04	120220	12022020	081804	187.37	12.840383	-57.125295	187.38	1.250	-2.210	1.910	187.18	-3.60	2.50	 	 	 	 	 	 	 	 	 	 	 	 	 	 	 	 	 	 	1581495484	7.74	14.33
12/02/2020 08:18:05	120220	12022020	081805	186.63	12.840347	-57.125302	186.70	0.880	-1.680	2.600	186.54	-3.00	3.20	 	 	 	 	 	 	 	 	 	 	 	 	 	 	 	 	 	 	1581495485	7.89	14.61
12/02/2020 08:18:06	120220	12022020	081806	186.42	12.840317	-57.125310	186.53	0.070	-0.210	2.800	186.43	-1.50	3.30	 	 	 	 	 	 	 	 	 	 	 	 	 	 	 	 	 	 	1581495486	6.84	12.67
12/02/2020 08:18:07	120220	12022020	081807	186.64	12.840288	-57.125318	186.76	-0.600	0.880	2.520	186.71	-0.40	3.00	 	 	 	 	 	 	 	 	 	 	 	 	 	 	 	 	 	 	1581495487	6.12	11.33
12/02/2020 08:18:08	120220	12022020	081808	186.98	12.840258	-57.125327	187.18	-0.690	0.800	2.050	187.07	-0.60	2.60	 	 	 	 	 	 	 	 	 	 	 	 	 	 	 	 	 	 	1581495488	6.67	12.35
12/02/2020 08:18:09	120220	12022020	081809	187.49	12.840223	-57.125333	187.61	-0.330	0.030	1.660	187.58	-1.40	2.20	 	 	 	 	 	 	 	 	 	 	 	 	 	 	 	 	 	 	1581495489	7.88	14.59
12/02/2020 08:18:10	120220	12022020	081810	187.87	12.840185	-57.125342	187.98	-0.000	-0.470	1.490	187.93	-1.80	2.00	 	 	 	 	 	 	 	 	 	 	 	 	 	 	 	 	 	 	1581495490	8.43	15.61
12/02/2020 08:18:11	120220	12022020	081811	188.12	12.840148	-57.125350	188.22	-0.020	-0.440	1.540	188.14	-1.80	2.10	 	 	 	 	 	 	 	 	 	 	 	 	 	 	 	 	 	 	1581495491	7.99	14.80
12/02/2020 08:18:12	120220	12022020	081812	188.16	12.840115	-57.125358	188.24	-0.220	-0.260	1.790	188.15	-1.60	2.30	 	 	 	 	 	 	 	 	 	 	 	 	 	 	 	 	 	 	1581495492	7.36	13.63
12/02/2020 08:18:13	120220	12022020	081813	188.08	12.840083	-57.125368	188.16	-0.320	-0.080	2.100	188.05	-1.40	2.60	 	 	 	 	 	 	 	 	 	 	 	 	 	 	 	 	 	 	1581495493	7.26	13.45
12/02/2020 08:18:14	120220	12022020	081814	187.86	12.840050	-57.125378	187.92	-0.140	0.060	2.360	187.77	-1.30	2.90	 	 	 	 	 	 	 	 	 	 	 	 	 	 	 	 	 	 	1581495494	7.25	13.43
12/02/2020 08:18:15	120220	12022020	081815	187.38	12.840018	-57.125387	187.44	0.210	-0.020	2.440	187.27	-1.40	2.90	 	 	 	 	 	 	 	 	 	 	 	 	 	 	 	 	 	 	1581495495	7.21	13.35
12/02/2020 08:18:16	120220	12022020	081816	186.88	12.839985	-57.125393	186.94	0.440	-0.310	2.270	186.80	-1.70	2.80	 	 	 	 	 	 	 	 	 	 	 	 	 	 	 	 	 	 	1581495496	7.44	13.78
12/02/2020 08:18:17	120220	12022020	081817	186.57	12.839948	-57.125400	186.66	0.420	-0.680	2.120	186.55	-2.00	2.60	 	 	 	 	 	 	 	 	 	 	 	 	 	 	 	 	 	 	1581495497	7.67	14.20
12/02/2020 08:18:18	120220	12022020	081818	186.63	12.839913	-57.125407	186.75	0.300	-0.730	1.860	186.69	-2.10	2.40	 	 	 	 	 	 	 	 	 	 	 	 	 	 	 	 	 	 	1581495498	7.78	14.41
12/02/2020 08:18:19	120220	12022020	081819	186.96	12.839880	-57.125412	187.08	0.140	-0.450	1.630	187.02	-1.80	2.20	 	 	 	 	 	 	 	 	 	 	 	 	 	 	 	 	 	 	1581495499	7.44	13.78
12/02/2020 08:18:20	120220	12022020	081820	187.11	12.839847	-57.125417	187.20	-0.040	-0.270	1.820	187.10	-1.60	2.40	 	 	 	 	 	 	 	 	 	 	 	 	 	 	 	 	 	 	1581495500	7.14	13.22
12/02/2020 08:18:21	120220	12022020	081821	187.01	12.839813	-57.125427	187.09	-0.190	-0.220	2.260	186.98	-1.60	2.80	 	 	 	 	 	 	 	 	 	 	 	 	 	 	 	 	 	 	1581495501	7.41	13.72
12/02/2020 08:18:22	120220	12022020	081822	186.88	12.839780	-57.125437	186.94	-0.320	0.060	2.660	186.85	-1.30	3.20	 	 	 	 	 	 	 	 	 	 	 	 	 	 	 	 	 	 	1581495502	7.67	14.20
12/02/2020 08:18:23	120220	12022020	081823	186.73	12.839747	-57.125448	186.84	-0.380	0.530	2.870	186.72	-0.80	3.40	 	 	 	 	 	 	 	 	 	 	 	 	 	 	 	 	 	 	1581495503	7.34	13.59
12/02/2020 08:18:24	120220	12022020	081824	186.60	12.839715	-57.125457	186.70	-0.300	0.520	2.880	186.55	-0.90	3.40	 	 	 	 	 	 	 	 	 	 	 	 	 	 	 	 	 	 	1581495504	7.02	13.00
12/02/2020 08:18:25	120220	12022020	081825	186.33	12.839682	-57.125465	186.42	-0.060	-0.150	2.800	186.27	-1.50	3.30	 	 	 	 	 	 	 	 	 	 	 	 	 	 	 	 	 	 	1581495505	7.40	13.70
12/02/2020 08:18:26	120220	12022020	081826	186.16	12.839645	-57.125473	186.27	0.210	-0.820	2.690	186.16	-2.20	3.20	 	 	 	 	 	 	 	 	 	 	 	 	 	 	 	 	 	 	1581495506	8.07	14.95
12/02/2020 08:18:27	120220	12022020	081827	186.33	12.839608	-57.125480	186.46	0.370	-0.840	2.260	186.41	-2.20	2.70	 	 	 	 	 	 	 	 	 	 	 	 	 	 	 	 	 	 	1581495507	7.97	14.76
12/02/2020 08:18:28	120220	12022020	081828	186.75	12.839577	-57.125487	186.87	0.410	-0.380	1.540	186.83	-1.70	2.00	 	 	 	 	 	 	 	 	 	 	 	 	 	 	 	 	 	 	1581495508	7.16	13.26
12/02/2020 08:18:29	120220	12022020	081829	187.05	12.839545	-57.125490	187.12	0.400	-0.170	0.990	187.05	-1.50	1.50	 	 	 	 	 	 	 	 	 	 	 	 	 	 	 	 	 	 	1581495509	6.62	12.26
12/02/2020 08:18:30	120220	12022020	081830	186.88	12.839513	-57.125493	186.90	0.420	-0.530	1.120	186.79	-1.90	1.70	 	 	 	 	 	 	 	 	 	 	 	 	 	 	 	 	 	 	1581495510	6.98	12.93
12/02/2020 08:18:31	120220	12022020	081831	186.41	12.839477	-57.125498	186.44	0.330	-0.970	1.750	186.32	-2.40	2.30	 	 	 	 	 	 	 	 	 	 	 	 	 	 	 	 	 	 	1581495511	7.76	14.37
12/02/2020 08:18:32	120220	12022020	081832	186.05	12.839440	-57.125507	186.14	-0.060	-0.820	2.470	186.02	-2.20	3.00	 	 	 	 	 	 	 	 	 	 	 	 	 	 	 	 	 	 	1581495512	8.09	14.98
12/02/2020 08:18:33	120220	12022020	081833	186.06	12.839407	-57.125515	186.19	-0.730	-0.030	2.970	186.11	-1.30	3.50	 	 	 	 	 	 	 	 	 	 	 	 	 	 	 	 	 	 	1581495513	7.69	14.24
12/02/2020 08:18:34	120220	12022020	081834	186.39	12.839375	-57.125528	186.55	-1.280	0.810	3.120	186.48	-0.50	3.60	 	 	 	 	 	 	 	 	 	 	 	 	 	 	 	 	 	 	1581495514	7.13	13.20
12/02/2020 08:18:35	120220	12022020	081835	186.86	12.839345	-57.125540	187.00	-1.240	1.030	2.850	186.93	-0.40	3.30	 	 	 	 	 	 	 	 	 	 	 	 	 	 	 	 	 	 	1581495515	6.99	12.95
12/02/2020 08:18:36	120220	12022020	081836	187.18	12.839312	-57.125550	187.29	-0.540	0.390	2.320	187.21	-1.00	2.80	 	 	 	 	 	 	 	 	 	 	 	 	 	 	 	 	 	 	1581495516	7.36	13.63
12/02/2020 08:18:37	120220	12022020	081837	187.11	12.839275	-57.125557	187.18	0.340	-0.660	1.960	187.04	-2.10	2.50	 	 	 	 	 	 	 	 	 	 	 	 	 	 	 	 	 	 	1581495517	8.03	14.87
12/02/2020 08:18:38	120220	12022020	081838	186.69	12.839237	-57.125563	186.74	0.900	-1.330	1.880	186.60	-2.70	2.40	 	 	 	 	 	 	 	 	 	 	 	 	 	 	 	 	 	 	1581495518	8.36	15.48
12/02/2020 08:18:39	120220	12022020	081839	186.34	12.839200	-57.125570	186.41	0.950	-0.970	1.710	186.31	-2.30	2.20	 	 	 	 	 	 	 	 	 	 	 	 	 	 	 	 	 	 	1581495519	7.99	14.80
12/02/2020 08:18:40	120220	12022020	081840	186.26	12.839168	-57.125573	186.33	0.600	0.060	1.330	186.26	-1.30	1.90	 	 	 	 	 	 	 	 	 	 	 	 	 	 	 	 	 	 	1581495520	6.91	12.80
12/02/2020 08:18:41	120220	12022020	081841	186.33	12.839140	-57.125575	186.40	0.120	0.750	1.110	186.35	-0.60	1.60	 	 	 	 	 	 	 	 	 	 	 	 	 	 	 	 	 	 	1581495521	6.27	11.61
12/02/2020 08:18:42	120220	12022020	081842	186.40	12.839108	-57.125580	186.48	-0.270	0.630	1.270	186.41	-0.80	1.80	 	 	 	 	 	 	 	 	 	 	 	 	 	 	 	 	 	 	1581495522	6.65	12.32
12/02/2020 08:18:43	120220	12022020	081843	186.47	12.839075	-57.125588	186.56	-0.460	0.030	1.630	186.48	-1.40	2.20	 	 	 	 	 	 	 	 	 	 	 	 	 	 	 	 	 	 	1581495523	7.47	13.83
12/02/2020 08:18:44	120220	12022020	081844	186.43	12.839040	-57.125598	186.51	-0.370	-0.670	2.110	186.40	-2.10	2.70	 	 	 	 	 	 	 	 	 	 	 	 	 	 	 	 	 	 	1581495524	7.94	14.70
12/02/2020 08:18:45	120220	12022020	081845	186.17	12.839003	-57.125610	186.23	0.020	-1.250	2.500	186.09	-2.60	3.00	 	 	 	 	 	 	 	 	 	 	 	 	 	 	 	 	 	 	1581495525	8.04	14.89
12/02/2020 08:18:46	120220	12022020	081846	185.83	12.838968	-57.125620	185.80	0.380	-1.530	2.710	185.75	-2.90	3.20	 	 	 	 	 	 	 	 	 	 	 	 	 	 	 	 	 	 	1581495526	7.97	14.76
12/02/2020 08:18:47	120220	12022020	081847	185.33	12.838932	-57.125627	185.41	0.300	-1.200	2.900	185.26	-2.50	3.40	 	 	 	 	 	 	 	 	 	 	 	 	 	 	 	 	 	 	1581495527	7.84	14.52
12/02/2020 08:18:48	120220	12022020	081848	185.01	12.838898	-57.125633	185.09	-0.160	-0.340	2.900	184.97	-1.60	3.40	 	 	 	 	 	 	 	 	 	 	 	 	 	 	 	 	 	 	1581495528	7.41	13.72
12/02/2020 08:18:49	120220	12022020	081849	184.96	12.838867	-57.125640	185.06	-0.630	0.740	2.620	185.00	-0.60	3.10	 	 	 	 	 	 	 	 	 	 	 	 	 	 	 	 	 	 	1581495529	6.98	12.93
12/02/2020 08:18:50	120220	12022020	081850	185.37	12.838837	-57.125647	185.50	-0.760	1.420	2.080	185.49	0.10	2.60	 	 	 	 	 	 	 	 	 	 	 	 	 	 	 	 	 	 	1581495530	6.72	12.45
12/02/2020 08:18:51	120220	12022020	081851	185.91	12.838805	-57.125653	186.01	-0.430	1.140	1.520	185.99	-0.30	2.00	 	 	 	 	 	 	 	 	 	 	 	 	 	 	 	 	 	 	1581495531	6.90	12.78
12/02/2020 08:18:52	120220	12022020	081852	186.10	12.838768	-57.125658	186.16	0.230	-0.050	1.270	186.08	-1.50	1.80	 	 	 	 	 	 	 	 	 	 	 	 	 	 	 	 	 	 	1581495532	7.68	14.22
12/02/2020 08:18:53	120220	12022020	081853	185.83	12.838730	-57.125662	185.86	0.830	-1.310	1.500	185.73	-2.70	2.10	 	 	 	 	 	 	 	 	 	 	 	 	 	 	 	 	 	 	1581495533	8.48	15.70
12/02/2020 08:18:54	120220	12022020	081854	185.26	12.838690	-57.125667	185.30	0.880	-1.690	2.180	185.14	-3.00	2.80	 	 	 	 	 	 	 	 	 	 	 	 	 	 	 	 	 	 	1581495534	8.59	15.91
12/02/2020 08:18:55	120220	12022020	081855	184.85	12.838655	-57.125675	184.95	0.220	-0.840	2.890	184.83	-2.10	3.40	 	 	 	 	 	 	 	 	 	 	 	 	 	 	 	 	 	 	1581495535	7.75	14.35
12/02/2020 08:18:56	120220	12022020	081856	184.97	12.838625	-57.125683	185.12	-0.700	0.490	3.070	185.05	-0.80	3.60	 	 	 	 	 	 	 	 	 	 	 	 	 	 	 	 	 	 	1581495536	6.66	12.33
12/02/2020 08:18:57	120220	12022020	081857	185.45	12.838598	-57.125695	185.61	-1.170	1.140	2.840	185.54	-0.20	3.30	 	 	 	 	 	 	 	 	 	 	 	 	 	 	 	 	 	 	1581495537	6.18	11.45
12/02/2020 08:18:58	120220	12022020	081858	185.77	12.838568	-57.125705	185.94	-0.660	0.420	2.340	185.83	-1.00	2.80	 	 	 	 	 	 	 	 	 	 	 	 	 	 	 	 	 	 	1581495538	6.83	12.65
12/02/2020 08:18:59	120220	12022020	081859	185.98	12.838532	-57.125713	186.08	0.490	-0.840	1.570	186.02	-2.30	2.10	 	 	 	 	 	 	 	 	 	 	 	 	 	 	 	 	 	 	1581495539	8.18	15.15
12/02/2020 08:19:00	120220	12022020	081900	186.27	12.838492	-57.125717	186.38	1.280	-1.130	0.810	186.35	-2.50	1.30	 	 	 	 	 	 	 	 	 	 	 	 	 	 	 	 	 	 	1581495540	8.69	16.09
12/02/2020 08:19:01	120220	12022020	081901	186.76	12.838455	-57.125717	186.87	1.120	-0.390	0.150	186.85	-1.70	0.70	1014.90	26.10	26.20	20.60	20.60	-1.0	71.0	71.0	391.0	25.8	272.00	10.50	78.00	11.00	16	9455.0	27.4	27.4	1581495541	7.58	14.04
12/02/2020 08:19:02	120220	12022020	081902	187.09	12.838427	-57.125715	187.13	0.340	0.120	0.020	187.08	-1.30	0.60	 	 	 	 	 	 	 	 	 	 	 	 	 	 	 	 	 	 	1581495542	6.46	11.96
12/02/2020 08:19:03	120220	12022020	081903	186.80	12.838395	-57.125717	186.81	-0.250	-0.460	0.910	186.67	-1.90	1.50	 	 	 	 	 	 	 	 	 	 	 	 	 	 	 	 	 	 	1581495543	6.74	12.48
12/02/2020 08:19:04	120220	12022020	081904	186.12	12.838358	-57.125727	186.15	-0.480	-1.260	2.300	185.98	-2.60	2.90	 	 	 	 	 	 	 	 	 	 	 	 	 	 	 	 	 	 	1581495544	8.18	15.15
12/02/2020 08:19:05	120220	12022020	081905	185.49	12.838320	-57.125740	185.56	-0.730	-1.150	3.580	185.38	-2.50	4.10	 	 	 	 	 	 	 	 	 	 	 	 	 	 	 	 	 	 	1581495545	8.77	16.24
12/02/2020 08:19:06	120220	12022020	081906	185.04	12.838285	-57.125757	185.15	-1.090	-0.220	4.330	184.97	-1.50	4.90	 	 	 	 	 	 	 	 	 	 	 	 	 	 	 	 	 	 	1581495546	8.14	15.08
12/02/2020 08:19:07	120220	12022020	081907	184.79	12.838255	-57.125775	184.91	-1.150	0.710	4.290	184.76	-0.60	4.80	 	 	 	 	 	 	 	 	 	 	 	 	 	 	 	 	 	 	1581495547	7.48	13.85
12/02/2020 08:19:08	120220	12022020	081908	184.81	12.838223	-57.125788	184.94	-0.550	1.090	3.420	184.85	-0.30	3.90	 	 	 	 	 	 	 	 	 	 	 	 	 	 	 	 	 	 	1581495548	7.21	13.35
12/02/2020 08:19:09	120220	12022020	081909	185.19	12.838190	-57.125793	185.33	0.470	0.910	1.870	185.31	-0.50	2.30	 	 	 	 	 	 	 	 	 	 	 	 	 	 	 	 	 	 	1581495549	7.35	13.61
12/02/2020 08:19:10	120220	12022020	081910	185.74	12.838155	-57.125793	185.99	1.310	0.410	0.160	185.87	-1.00	0.60	 	 	 	 	 	 	 	 	 	 	 	 	 	 	 	 	 	 	1581495550	7.63	14.13
12/02/2020 08:19:11	120220	12022020	081911	186.51	12.838118	-57.125788	186.58	1.580	-0.350	-0.880	186.60	-1.80	-0.40	 	 	 	 	 	 	 	 	 	 	 	 	 	 	 	 	 	 	1581495551	7.77	14.39
12/02/2020 08:19:12	120220	12022020	081912	186.79	12.838083	-57.125783	186.86	1.270	-1.140	-0.790	186.83	-2.50	-0.20	 	 	 	 	 	 	 	 	 	 	 	 	 	 	 	 	 	 	1581495552	7.70	14.26
12/02/2020 08:19:13	120220	12022020	081913	186.77	12.838048	-57.125787	186.78	0.620	-1.570	0.200	186.70	-2.90	0.80	 	 	 	 	 	 	 	 	 	 	 	 	 	 	 	 	 	 	1581495553	7.49	13.87
12/02/2020 08:19:14	120220	12022020	081914	186.19	12.838015	-57.125793	186.19	-0.100	-1.700	1.920	186.05	-3.10	2.50	 	 	 	 	 	 	 	 	 	 	 	 	 	 	 	 	 	 	1581495554	7.34	13.59
12/02/2020 08:19:15	120220	12022020	081915	185.47	12.837982	-57.125808	185.52	-0.770	-1.380	3.650	185.35	-2.70	4.20	 	 	 	 	 	 	 	 	 	 	 	 	 	 	 	 	 	 	1581495555	7.78	14.41
12/02/2020 08:19:16	120220	12022020	081916	185.01	12.837948	-57.125827	185.12	-1.340	-0.470	4.800	184.96	-1.80	5.30	 	 	 	 	 	 	 	 	 	 	 	 	 	 	 	 	 	 	1581495556	8.02	14.85
12/02/2020 08:19:17	120220	12022020	081917	184.86	12.837918	-57.125843	185.00	-1.590	0.500	5.130	184.86	-0.80	5.60	 	 	 	 	 	 	 	 	 	 	 	 	 	 	 	 	 	 	1581495557	7.71	14.28
12/02/2020 08:19:18	120220	12022020	081918	184.96	12.837887	-57.125860	185.10	-1.220	0.880	4.600	184.99	-0.50	5.00	 	 	 	 	 	 	 	 	 	 	 	 	 	 	 	 	 	 	1581495558	7.51	13.91
12/02/2020 08:19:19	120220	12022020	081919	185.13	12.837852	-57.125870	185.23	-0.250	0.610	3.300	185.16	-0.80	3.70	 	 	 	 	 	 	 	 	 	 	 	 	 	 	 	 	 	 	1581495559	7.73	14.32
12/02/2020 08:19:20	120220	12022020	081920	185.30	12.837813	-57.125872	185.39	0.840	0.210	1.590	185.36	-1.20	2.00	 	 	 	 	 	 	 	 	 	 	 	 	 	 	 	 	 	 	1581495560	8.12	15.04
12/02/2020 08:19:21	120220	12022020	081921	185.73	12.837777	-57.125868	185.82	1.410	0.160	-0.010	185.86	-1.20	0.40	 	 	 	 	 	 	 	 	 	 	 	 	 	 	 	 	 	 	1581495561	8.11	15.02
12/02/2020 08:19:22	120220	12022020	081922	186.42	12.837742	-57.125862	186.49	1.190	0.390	-1.120	186.56	-1.00	-0.60	 	 	 	 	 	 	 	 	 	 	 	 	 	 	 	 	 	 	1581495562	7.50	13.89
12/02/2020 08:19:23	120220	12022020	081923	186.99	12.837712	-57.125858	187.02	0.550	0.260	-1.260	187.05	-1.10	-0.70	 	 	 	 	 	 	 	 	 	 	 	 	 	 	 	 	 	 	1581495563	6.72	12.45
12/02/2020 08:19:24	120220	12022020	081924	187.02	12.837680	-57.125862	187.01	0.100	-0.590	-0.210	186.95	-2.00	0.40	 	 	 	 	 	 	 	 	 	 	 	 	 	 	 	 	 	 	1581495564	6.73	12.46
12/02/2020 08:19:25	120220	12022020	081925	186.49	12.837645	-57.125873	186.49	0.070	-1.640	1.490	186.35	-3.10	2.10	 	 	 	 	 	 	 	 	 	 	 	 	 	 	 	 	 	 	1581495565	7.74	14.33
12/02/2020 08:19:26	120220	12022020	081926	185.71	12.837610	-57.125888	185.74	0.180	-2.050	3.210	185.57	-3.40	3.80	 	 	 	 	 	 	 	 	 	 	 	 	 	 	 	 	 	 	1581495566	8.41	15.58
12/02/2020 08:19:27	120220	12022020	081927	185.01	12.837575	-57.125905	185.08	0.040	-1.440	4.450	184.90	-2.80	5.00	 	 	 	 	 	 	 	 	 	 	 	 	 	 	 	 	 	 	1581495567	8.25	15.28
12/02/2020 08:19:28	120220	12022020	081928	184.70	12.837543	-57.125920	184.84	-0.390	-0.050	4.750	184.73	-1.40	5.20	 	 	 	 	 	 	 	 	 	 	 	 	 	 	 	 	 	 	1581495568	7.48	13.85
12/02/2020 08:19:29	120220	12022020	081929	185.07	12.837515	-57.125930	185.24	-0.910	1.350	3.990	185.21	0.00	4.40	 	 	 	 	 	 	 	 	 	 	 	 	 	 	 	 	 	 	1581495569	6.55	12.13
12/02/2020 08:19:30	120220	12022020	081930	185.89	12.837487	-57.125935	186.05	-1.170	1.690	2.560	186.06	0.30	3.00	 	 	 	 	 	 	 	 	 	 	 	 	 	 	 	 	 	 	1581495570	6.18	11.45
12/02/2020 08:19:31	120220	12022020	081931	186.61	12.837453	-57.125938	186.71	-0.780	0.580	1.230	186.71	-0.90	1.70	 	 	 	 	 	 	 	 	 	 	 	 	 	 	 	 	 	 	1581495571	7.01	12.98
12/02/2020 08:19:32	120220	12022020	081932	186.95	12.837415	-57.125942	187.00	0.220	-1.070	0.230	186.99	-2.50	0.70	 	 	 	 	 	 	 	 	 	 	 	 	 	 	 	 	 	 	1581495572	8.31	15.39
12/02/2020 08:19:33	120220	12022020	081933	187.10	12.837375	-57.125945	187.14	1.140	-1.850	-0.430	187.12	-3.20	0.10	 	 	 	 	 	 	 	 	 	 	 	 	 	 	 	 	 	 	1581495573	8.80	16.30
12/02/2020 08:19:34	120220	12022020	081934	187.05	12.837338	-57.125947	187.05	1.320	-1.360	-0.420	187.00	-2.70	0.10	 	 	 	 	 	 	 	 	 	 	 	 	 	 	 	 	 	 	1581495574	7.87	14.58
12/02/2020 08:19:35	120220	12022020	081935	186.64	12.837307	-57.125948	186.62	0.800	-0.380	0.200	186.52	-1.70	0.80	 	 	 	 	 	 	 	 	 	 	 	 	 	 	 	 	 	 	1581495575	6.71	12.43
12/02/2020 08:19:36	120220	12022020	081936	186.14	12.837277	-57.125953	186.04	0.010	0.420	1.220	186.04	-0.90	1.80	 	 	 	 	 	 	 	 	 	 	 	 	 	 	 	 	 	 	1581495576	6.50	12.04
12/02/2020 08:19:37	120220	12022020	081937	185.78	12.837245	-57.125963	185.86	-0.630	0.960	2.200	185.80	-0.40	2.80	 	 	 	 	 	 	 	 	 	 	 	 	 	 	 	 	 	 	1581495577	7.06	13.08
12/02/2020 08:19:38	120220	12022020	081938	186.16	12.837213	-57.125978	186.31	-0.860	1.330	2.710	186.29	-0.00	3.20	 	 	 	 	 	 	 	 	 	 	 	 	 	 	 	 	 	 	1581495578	7.45	13.80
12/02/2020 08:19:39	120220	12022020	081939	186.92	12.837183	-57.125992	187.08	-0.670	1.110	2.710	187.06	-0.30	3.20	 	 	 	 	 	 	 	 	 	 	 	 	 	 	 	 	 	 	1581495579	7.30	13.52
12/02/2020 08:19:40	120220	12022020	081940	187.53	12.837150	-57.126003	187.66	-0.160	-0.020	2.420	187.60	-1.50	2.90	 	 	 	 	 	 	 	 	 	 	 	 	 	 	 	 	 	 	1581495580	7.36	13.63
12/02/2020 08:19:41	120220	12022020	081941	187.70	12.837115	-57.126013	187.79	0.390	-1.480	2.180	187.68	-2.90	2.70	 	 	 	 	 	 	 	 	 	 	 	 	 	 	 	 	 	 	1581495581	7.93	14.69
12/02/2020 08:19:42	120220	12022020	081942	187.54	12.837078	-57.126022	187.61	0.610	-2.160	2.140	187.48	-3.50	2.70	 	 	 	 	 	 	 	 	 	 	 	 	 	 	 	 	 	 	1581495582	8.16	15.11
12/02/2020 08:19:43	120220	12022020	081943	187.11	12.837045	-57.126030	187.15	0.480	-1.720	2.350	186.97	-3.00	2.90	 	 	 	 	 	 	 	 	 	 	 	 	 	 	 	 	 	 	1581495583	7.38	13.67
12/02/2020 08:19:44	120220	12022020	081944	186.27	12.837015	-57.126038	186.30	0.340	-0.980	2.820	186.08	-2.30	3.40	 	 	 	 	 	 	 	 	 	 	 	 	 	 	 	 	 	 	1581495584	6.56	12.15
12/02/2020 08:19:45	120220	12022020	081945	185.46	12.836985	-57.126045	185.54	0.340	-0.490	3.080	185.36	-1.80	3.60	 	 	 	 	 	 	 	 	 	 	 	 	 	 	 	 	 	 	1581495585	6.81	12.61
12/02/2020 08:19:46	120220	12022020	081946	185.39	12.836950	-57.126052	185.57	0.150	0.180	2.920	185.49	-1.10	3.40	 	 	 	 	 	 	 	 	 	 	 	 	 	 	 	 	 	 	1581495586	7.51	13.91
12/02/2020 08:19:47	120220	12022020	081947	186.16	12.836917	-57.126058	186.40	-0.370	1.050	2.700	186.38	-0.30	3.20	 	 	 	 	 	 	 	 	 	 	 	 	 	 	 	 	 	 	1581495587	7.33	13.58
12/02/2020 08:19:48	120220	12022020	081948	187.06	12.836885	-57.126067	187.49	-0.890	1.660	2.550	187.26	0.30	3.10	 	 	 	 	 	 	 	 	 	 	 	 	 	 	 	 	 	 	1581495588	6.82	12.63
12/02/2020 08:19:49	120220	12022020	081949	188.09	12.836857	-57.126077	188.27	-0.840	1.450	2.380	188.20	0.00	2.90	 	 	 	 	 	 	 	 	 	 	 	 	 	 	 	 	 	 	1581495589	6.73	12.46
12/02/2020 08:19:50	120220	12022020	081950	188.39	12.836823	-57.126087	188.52	-0.120	0.450	2.160	188.39	-1.00	2.70	 	 	 	 	 	 	 	 	 	 	 	 	 	 	 	 	 	 	1581495590	7.22	13.37
12/02/2020 08:19:51	120220	12022020	081951	188.22	12.836788	-57.126093	188.32	0.650	-0.740	2.270	188.16	-2.20	2.80	 	 	 	 	 	 	 	 	 	 	 	 	 	 	 	 	 	 	1581495591	7.72	14.30
12/02/2020 08:19:52	120220	12022020	081952	187.94	12.836753	-57.126102	188.05	0.870	-1.460	2.380	187.88	-2.90	2.90	 	 	 	 	 	 	 	 	 	 	 	 	 	 	 	 	 	 	1581495592	7.75	14.35
12/02/2020 08:19:53	120220	12022020	081953	187.48	12.836720	-57.126108	187.54	0.500	-1.680	2.570	187.33	-3.10	3.10	 	 	 	 	 	 	 	 	 	 	 	 	 	 	 	 	 	 	1581495593	7.22	13.37
12/02/2020 08:19:54	120220	12022020	081954	186.66	12.836690	-57.126118	186.71	0.020	-1.580	2.980	186.49	-2.90	3.50	 	 	 	 	 	 	 	 	 	 	 	 	 	 	 	 	 	 	1581495594	6.98	12.93
12/02/2020 08:19:55	120220	12022020	081955	185.92	12.836658	-57.126130	185.99	-0.090	-1.010	2.990	185.82	-2.30	3.50	 	 	 	 	 	 	 	 	 	 	 	 	 	 	 	 	 	 	1581495595	7.19	13.32
12/02/2020 08:19:56	120220	12022020	081956	185.63	12.836628	-57.126140	185.74	0.130	0.020	2.400	185.63	-1.30	2.90	 	 	 	 	 	 	 	 	 	 	 	 	 	 	 	 	 	 	1581495596	6.94	12.85
12/02/2020 08:19:57	120220	12022020	081957	185.79	12.836598	-57.126143	185.91	0.280	0.660	1.720	185.83	-0.70	2.20	 	 	 	 	 	 	 	 	 	 	 	 	 	 	 	 	 	 	1581495597	6.51	12.06
12/02/2020 08:19:58	120220	12022020	081958	185.90	12.836565	-57.126145	185.98	0.130	0.360	1.620	185.88	-1.10	2.20	 	 	 	 	 	 	 	 	 	 	 	 	 	 	 	 	 	 	1581495598	6.93	12.83
12/02/2020 08:19:59	120220	12022020	081959	185.70	12.836530	-57.126152	185.78	-0.280	-0.240	2.020	185.68	-1.60	2.60	 	 	 	 	 	 	 	 	 	 	 	 	 	 	 	 	 	 	1581495599	7.87	14.58
12/02/2020 08:20:00	120220	12022020	082000	185.68	12.836493	-57.126162	185.84	-0.770	-0.060	2.580	185.71	-1.40	3.10	 	 	 	 	 	 	 	 	 	 	 	 	 	 	 	 	 	 	1581495600	8.17	15.13
12/02/2020 08:20:01	120220	12022020	082001	186.14	12.836462	-57.126175	186.30	-1.020	0.820	2.890	186.25	-0.50	3.40	1014.90	26.10	26.20	20.60	20.70	-1.0	71.0	71.0	391.0	25.8	273.00	10.20	78.00	10.70	16	9777.0	27.4	27.4	1581495601	7.27	13.46
12/02/2020 08:20:02	120220	12022020	082002	186.60	12.836435	-57.126188	186.85	-0.730	1.170	2.520	186.71	-0.20	3.00	 	 	 	 	 	 	 	 	 	 	 	 	 	 	 	 	 	 	1581495602	6.24	11.56
12/02/2020 08:20:03	120220	12022020	082003	187.02	12.836407	-57.126195	187.12	0.120	0.150	1.700	187.02	-1.30	2.20	 	 	 	 	 	 	 	 	 	 	 	 	 	 	 	 	 	 	1581495603	6.36	11.78
12/02/2020 08:20:04	120220	12022020	082004	186.82	12.836372	-57.126198	186.86	1.070	-1.520	1.160	186.74	-3.00	1.70	 	 	 	 	 	 	 	 	 	 	 	 	 	 	 	 	 	 	1581495604	7.70	14.26
12/02/2020 08:20:05	120220	12022020	082005	186.26	12.836332	-57.126200	186.27	1.410	-2.350	1.250	186.13	-3.70	1.80	 	 	 	 	 	 	 	 	 	 	 	 	 	 	 	 	 	 	1581495605	8.48	15.70
12/02/2020 08:20:06	120220	12022020	082006	185.59	12.836297	-57.126203	185.62	0.840	-1.750	1.900	185.45	-3.10	2.50	 	 	 	 	 	 	 	 	 	 	 	 	 	 	 	 	 	 	1581495606	7.70	14.26
12/02/2020 08:20:07	120220	12022020	082007	184.92	12.836267	-57.126210	184.96	-0.200	-0.430	2.800	184.80	-1.70	3.40	 	 	 	 	 	 	 	 	 	 	 	 	 	 	 	 	 	 	1581495607	6.57	12.17
12/02/2020 08:20:08	120220	12022020	082008	184.48	12.836238	-57.126223	184.57	-0.980	0.720	3.500	184.46	-0.60	4.10	 	 	 	 	 	 	 	 	 	 	 	 	 	 	 	 	 	 	1581495608	6.51	12.06
12/02/2020 08:20:09	120220	12022020	082009	184.60	12.836210	-57.126238	184.75	-1.090	1.370	3.480	184.70	0.00	4.00	 	 	 	 	 	 	 	 	 	 	 	 	 	 	 	 	 	 	1581495609	7.06	13.08
12/02/2020 08:20:10	120220	12022020	082010	185.27	12.836178	-57.126252	185.44	-0.580	1.410	2.600	185.44	0.00	3.10	 	 	 	 	 	 	 	 	 	 	 	 	 	 	 	 	 	 	1581495610	7.20	13.33
12/02/2020 08:20:11	120220	12022020	082011	186.14	12.836145	-57.126257	186.28	0.140	0.790	1.300	186.30	-0.70	1.80	 	 	 	 	 	 	 	 	 	 	 	 	 	 	 	 	 	 	1581495611	7.21	13.35
12/02/2020 08:20:12	120220	12022020	082012	186.83	12.836110	-57.126258	186.92	0.650	-0.190	0.240	186.93	-1.60	0.70	 	 	 	 	 	 	 	 	 	 	 	 	 	 	 	 	 	 	1581495612	7.51	13.91
12/02/2020 08:20:13	120220	12022020	082013	187.19	12.836075	-57.126257	187.24	0.640	-1.020	-0.030	187.22	-2.40	0.50	 	 	 	 	 	 	 	 	 	 	 	 	 	 	 	 	 	 	1581495613	7.59	14.06
12/02/2020 08:20:14	120220	12022020	082014	187.18	12.836042	-57.126260	187.19	0.210	-1.550	0.610	187.12	-3.00	1.20	 	 	 	 	 	 	 	 	 	 	 	 	 	 	 	 	 	 	1581495614	7.20	13.33
12/02/2020 08:20:15	120220	12022020	082015	186.69	12.836010	-57.126268	186.69	-0.210	-1.870	1.860	186.54	-3.30	2.40	 	 	 	 	 	 	 	 	 	 	 	 	 	 	 	 	 	 	1581495615	7.07	13.09
12/02/2020 08:20:16	120220	12022020	082016	185.77	12.835978	-57.126283	185.77	-0.280	-1.920	3.230	185.58	-3.30	3.80	 	 	 	 	 	 	 	 	 	 	 	 	 	 	 	 	 	 	1581495616	7.52	13.93
12/02/2020 08:20:17	120220	12022020	082017	184.85	12.835943	-57.126298	184.90	-0.150	-1.270	4.130	184.73	-2.60	4.70	 	 	 	 	 	 	 	 	 	 	 	 	 	 	 	 	 	 	1581495617	7.90	14.63
12/02/2020 08:20:18	120220	12022020	082018	184.52	12.835912	-57.126308	184.63	-0.180	0.200	4.120	184.54	-1.10	4.60	 	 	 	 	 	 	 	 	 	 	 	 	 	 	 	 	 	 	1581495618	7.46	13.82
12/02/2020 08:20:19	120220	12022020	082019	184.93	12.835882	-57.126315	185.08	-0.490	1.790	3.240	185.08	0.40	3.70	 	 	 	 	 	 	 	 	 	 	 	 	 	 	 	 	 	 	1581495619	6.55	12.13
12/02/2020 08:20:20	120220	12022020	082020	185.71	12.835853	-57.126318	185.84	-0.760	2.440	2.040	185.86	1.00	2.50	 	 	 	 	 	 	 	 	 	 	 	 	 	 	 	 	 	 	1581495620	6.04	11.19
12/02/2020 08:20:21	120220	12022020	082021	186.29	12.835823	-57.126322	186.36	-0.530	1.560	1.170	186.36	0.10	1.70	 	 	 	 	 	 	 	 	 	 	 	 	 	 	 	 	 	 	1581495621	6.61	12.24
12/02/2020 08:20:22	120220	12022020	082022	186.57	12.835787	-57.126325	186.62	0.250	-0.110	0.650	186.60	-1.60	1.20	 	 	 	 	 	 	 	 	 	 	 	 	 	 	 	 	 	 	1581495622	7.83	14.50
12/02/2020 08:20:23	120220	12022020	082023	186.68	12.835748	-57.126330	186.72	0.990	-1.190	0.470	186.68	-2.60	1.00	 	 	 	 	 	 	 	 	 	 	 	 	 	 	 	 	 	 	1581495623	8.28	15.33
12/02/2020 08:20:24	120220	12022020	082024	186.61	12.835715	-57.126335	186.64	1.140	-1.360	0.760	186.57	-2.80	1.30	 	 	 	 	 	 	 	 	 	 	 	 	 	 	 	 	 	 	1581495624	7.40	13.70
12/02/2020 08:20:25	120220	12022020	082025	186.32	12.835685	-57.126342	186.32	0.780	-1.170	1.320	186.23	-2.60	1.90	 	 	 	 	 	 	 	 	 	 	 	 	 	 	 	 	 	 	1581495625	6.44	11.93
12/02/2020 08:20:26	120220	12022020	082026	185.80	12.835657	-57.126348	185.78	0.320	-1.200	2.040	185.65	-2.60	2.60	 	 	 	 	 	 	 	 	 	 	 	 	 	 	 	 	 	 	1581495626	6.38	11.82
12/02/2020 08:20:27	120220	12022020	082027	185.07	12.835625	-57.126357	185.09	-0.030	-1.330	2.940	184.96	-2.70	3.50	 	 	 	 	 	 	 	 	 	 	 	 	 	 	 	 	 	 	1581495627	7.16	13.26
12/02/2020 08:20:28	120220	12022020	082028	184.77	12.835590	-57.126368	184.87	-0.410	-0.880	3.400	184.80	-2.20	3.90	 	 	 	 	 	 	 	 	 	 	 	 	 	 	 	 	 	 	1581495628	7.80	14.45
12/02/2020 08:20:29	120220	12022020	082029	185.16	12.835557	-57.126380	185.30	-0.820	0.330	3.090	185.27	-1.00	3.60	 	 	 	 	 	 	 	 	 	 	 	 	 	 	 	 	 	 	1581495629	7.36	13.63
12/02/2020 08:20:30	120220	12022020	082030	185.79	12.835528	-57.126387	185.92	-1.030	1.260	2.310	185.91	-0.10	2.80	 	 	 	 	 	 	 	 	 	 	 	 	 	 	 	 	 	 	1581495630	6.37	11.80
12/02/2020 08:20:31	120220	12022020	082031	186.29	12.835498	-57.126392	186.38	-0.850	1.040	1.690	186.36	-0.40	2.20	 	 	 	 	 	 	 	 	 	 	 	 	 	 	 	 	 	 	1581495631	6.49	12.02
12/02/2020 08:20:32	120220	12022020	082032	186.44	12.835463	-57.126397	186.49	-0.370	0.080	1.590	186.42	-1.40	2.10	 	 	 	 	 	 	 	 	 	 	 	 	 	 	 	 	 	 	1581495632	7.54	13.96
12/02/2020 08:20:33	120220	12022020	082033	186.23	12.835427	-57.126405	186.26	0.220	-0.670	1.780	186.15	-2.10	2.30	 	 	 	 	 	 	 	 	 	 	 	 	 	 	 	 	 	 	1581495633	8.16	15.11
12/02/2020 08:20:34	120220	12022020	082034	185.80	12.835392	-57.126413	185.82	0.790	-0.610	1.950	185.70	-2.00	2.50	 	 	 	 	 	 	 	 	 	 	 	 	 	 	 	 	 	 	1581495634	7.80	14.45
12/02/2020 08:20:35	120220	12022020	082035	185.35	12.835360	-57.126420	185.38	1.100	-0.120	1.850	185.27	-1.50	2.40	 	 	 	 	 	 	 	 	 	 	 	 	 	 	 	 	 	 	1581495635	6.91	12.80
12/02/2020 08:20:36	120220	12022020	082036	185.14	12.835330	-57.126422	185.17	0.890	0.180	1.640	185.11	-1.20	2.20	 	 	 	 	 	 	 	 	 	 	 	 	 	 	 	 	 	 	1581495636	6.48	12.00
12/02/2020 08:20:37	120220	12022020	082037	185.15	12.835298	-57.126422	185.23	0.280	-0.060	1.510	185.18	-1.50	2.00	 	 	 	 	 	 	 	 	 	 	 	 	 	 	 	 	 	 	1581495637	6.68	12.37
12/02/2020 08:20:38	120220	12022020	082038	185.24	12.835267	-57.126427	185.31	-0.340	-0.650	1.720	185.24	-2.10	2.30	 	 	 	 	 	 	 	 	 	 	 	 	 	 	 	 	 	 	1581495638	7.16	13.26
12/02/2020 08:20:39	120220	12022020	082039	185.14	12.835232	-57.126437	185.20	-0.610	-1.160	2.400	185.10	-2.60	3.00	 	 	 	 	 	 	 	 	 	 	 	 	 	 	 	 	 	 	1581495639	7.66	14.19
12/02/2020 08:20:40	120220	12022020	082040	184.90	12.835197	-57.126448	184.97	-0.570	-1.180	3.120	184.85	-2.50	3.70	 	 	 	 	 	 	 	 	 	 	 	 	 	 	 	 	 	 	1581495640	7.84	14.52
12/02/2020 08:20:41	120220	12022020	082041	184.60	12.835165	-57.126463	184.68	-0.390	-0.600	3.500	184.56	-1.90	4.00	 	 	 	 	 	 	 	 	 	 	 	 	 	 	 	 	 	 	1581495641	7.58	14.04
12/02/2020 08:20:42	120220	12022020	082042	184.42	12.835133	-57.126473	184.51	-0.220	0.280	3.310	184.43	-1.10	3.80	 	 	 	 	 	 	 	 	 	 	 	 	 	 	 	 	 	 	1581495642	7.03	13.02
12/02/2020 08:20:43	120220	12022020	082043	184.65	12.835103	-57.126482	184.76	-0.080	0.910	2.560	184.74	-0.50	3.00	 	 	 	 	 	 	 	 	 	 	 	 	 	 	 	 	 	 	1581495643	6.60	12.22
12/02/2020 08:20:44	120220	12022020	082044	185.09	12.835073	-57.126483	185.17	0.160	0.790	1.540	185.17	-0.60	2.00	 	 	 	 	 	 	 	 	 	 	 	 	 	 	 	 	 	 	1581495644	6.65	12.32
12/02/2020 08:20:45	120220	12022020	082045	185.37	12.835038	-57.126485	185.40	0.530	0.050	0.730	185.39	-1.40	1.20	 	 	 	 	 	 	 	 	 	 	 	 	 	 	 	 	 	 	1581495645	7.28	13.48
12/02/2020 08:20:46	120220	12022020	082046	185.36	12.835003	-57.126483	185.36	0.730	-0.760	0.540	185.32	-2.20	1.10	 	 	 	 	 	 	 	 	 	 	 	 	 	 	 	 	 	 	1581495646	7.79	14.43
12/02/2020 08:20:47	120220	12022020	082047	185.13	12.834967	-57.126485	185.12	0.560	-1.210	0.880	185.07	-2.60	1.40	 	 	 	 	 	 	 	 	 	 	 	 	 	 	 	 	 	 	1581495647	7.74	14.33
12/02/2020 08:20:48	120220	12022020	082048	184.80	12.834933	-57.126490	184.81	0.130	-1.170	1.440	184.74	-2.50	2.00	 	 	 	 	 	 	 	 	 	 	 	 	 	 	 	 	 	 	1581495648	7.45	13.80
12/02/2020 08:20:49	120220	12022020	082049	184.53	12.834900	-57.126498	184.57	-0.240	-0.730	1.990	184.49	-2.10	2.50	 	 	 	 	 	 	 	 	 	 	 	 	 	 	 	 	 	 	1581495649	7.17	13.28
12/02/2020 08:20:50	120220	12022020	082050	184.38	12.834868	-57.126507	184.41	-0.420	-0.240	2.510	184.35	-1.60	3.00	 	 	 	 	 	 	 	 	 	 	 	 	 	 	 	 	 	 	1581495650	7.02	13.00
12/02/2020 08:20:51	120220	12022020	082051	184.30	12.834837	-57.126515	184.38	-0.560	0.060	2.900	184.31	-1.30	3.40	 	 	 	 	 	 	 	 	 	 	 	 	 	 	 	 	 	 	1581495651	7.16	13.26
12/02/2020 08:20:52	120220	12022020	082052	184.35	12.834803	-57.126525	184.45	-0.750	0.320	3.050	184.36	-1.10	3.60	 	 	 	 	 	 	 	 	 	 	 	 	 	 	 	 	 	 	1581495652	7.45	13.80
12/02/2020 08:20:53	120220	12022020	082053	184.46	12.834770	-57.126537	184.54	-0.780	0.580	2.930	184.49	-0.80	3.40	 	 	 	 	 	 	 	 	 	 	 	 	 	 	 	 	 	 	1581495653	7.44	13.78
12/02/2020 08:20:54	120220	12022020	082054	184.77	12.834738	-57.126547	184.87	-0.420	0.700	2.180	184.86	-0.70	2.60	 	 	 	 	 	 	 	 	 	 	 	 	 	 	 	 	 	 	1581495654	7.23	13.39
12/02/2020 08:20:55	120220	12022020	082055	185.24	12.834707	-57.126552	185.31	0.240	0.440	1.060	185.32	-1.00	1.50	 	 	 	 	 	 	 	 	 	 	 	 	 	 	 	 	 	 	1581495655	7.02	13.00
12/02/2020 08:20:56	120220	12022020	082056	185.49	12.834672	-57.126552	185.52	0.830	-0.270	0.330	185.50	-1.70	0.80	 	 	 	 	 	 	 	 	 	 	 	 	 	 	 	 	 	 	1581495656	7.23	13.39
12/02/2020 08:20:57	120220	12022020	082057	185.34	12.834637	-57.126550	185.32	1.080	-1.180	0.300	185.25	-2.60	0.80	 	 	 	 	 	 	 	 	 	 	 	 	 	 	 	 	 	 	1581495657	7.61	14.09
12/02/2020 08:20:58	120220	12022020	082058	184.75	12.834600	-57.126552	184.72	0.950	-1.790	0.850	184.60	-3.20	1.40	 	 	 	 	 	 	 	 	 	 	 	 	 	 	 	 	 	 	1581495658	7.82	14.48
12/02/2020 08:20:59	120220	12022020	082059	184.11	12.834565	-57.126557	184.13	0.450	-1.490	1.680	184.03	-2.80	2.20	 	 	 	 	 	 	 	 	 	 	 	 	 	 	 	 	 	 	1581495659	7.77	14.39
12/02/2020 08:21:00	120220	12022020	082100	184.04	12.834533	-57.126565	184.13	-0.370	-0.260	2.340	184.12	-1.60	2.90	 	 	 	 	 	 	 	 	 	 	 	 	 	 	 	 	 	 	1581495660	7.21	13.35
12/02/2020 08:21:01	120220	12022020	082101	184.58	12.834505	-57.126577	184.72	-1.150	0.980	2.600	184.71	-0.40	3.10	1015.00	26.10	26.20	20.60	20.60	-1.0	71.0	71.0	391.0	25.8	269.00	10.10	74.00	10.80	16	8806.0	27.4	27.4	1581495661	6.49	12.02
12/02/2020 08:21:02	120220	12022020	082102	185.10	12.834477	-57.126588	185.20	-1.330	1.140	2.630	185.16	-0.30	3.10	 	 	 	 	 	 	 	 	 	 	 	 	 	 	 	 	 	 	1581495662	6.51	12.06
12/02/2020 08:21:03	120220	12022020	082103	185.23	12.834443	-57.126600	185.28	-0.630	0.240	2.530	185.21	-1.20	3.00	 	 	 	 	 	 	 	 	 	 	 	 	 	 	 	 	 	 	1581495663	7.49	13.87
12/02/2020 08:21:04	120220	12022020	082104	185.16	12.834405	-57.126608	185.22	0.380	-0.590	2.270	185.15	-2.00	2.80	 	 	 	 	 	 	 	 	 	 	 	 	 	 	 	 	 	 	1581495664	8.43	15.61
12/02/2020 08:21:05	120220	12022020	082105	185.18	12.834367	-57.126612	185.26	0.850	-0.670	1.770	185.21	-2.10	2.30	 	 	 	 	 	 	 	 	 	 	 	 	 	 	 	 	 	 	1581495665	8.18	15.15
12/02/2020 08:21:06	120220	12022020	082106	185.36	12.834333	-57.126612	185.43	0.500	-0.340	1.390	185.39	-1.70	1.90	 	 	 	 	 	 	 	 	 	 	 	 	 	 	 	 	 	 	1581495666	7.29	13.50
12/02/2020 08:21:07	120220	12022020	082107	185.44	12.834302	-57.126615	185.49	-0.170	-0.170	1.640	185.41	-1.60	2.20	 	 	 	 	 	 	 	 	 	 	 	 	 	 	 	 	 	 	1581495667	6.75	12.50
12/02/2020 08:21:08	120220	12022020	082108	185.14	12.834270	-57.126623	185.16	-0.450	-0.340	2.280	185.04	-1.70	2.80	 	 	 	 	 	 	 	 	 	 	 	 	 	 	 	 	 	 	1581495668	7.03	13.02
12/02/2020 08:21:09	120220	12022020	082109	184.69	12.834237	-57.126635	184.72	-0.090	-0.620	2.670	184.61	-2.00	3.20	 	 	 	 	 	 	 	 	 	 	 	 	 	 	 	 	 	 	1581495669	7.66	14.19
12/02/2020 08:21:10	120220	12022020	082110	184.41	12.834202	-57.126643	184.47	0.430	-0.670	2.560	184.38	-2.00	3.10	 	 	 	 	 	 	 	 	 	 	 	 	 	 	 	 	 	 	1581495670	7.84	14.52
12/02/2020 08:21:11	120220	12022020	082111	184.41	12.834167	-57.126648	184.49	0.540	-0.340	2.160	184.46	-1.70	2.70	 	 	 	 	 	 	 	 	 	 	 	 	 	 	 	 	 	 	1581495671	7.58	14.04
12/02/2020 08:21:12	120220	12022020	082112	184.76	12.834133	-57.126652	184.86	0.080	0.230	1.650	184.87	-1.10	2.20	 	 	 	 	 	 	 	 	 	 	 	 	 	 	 	 	 	 	1581495672	7.15	13.24
12/02/2020 08:21:13	120220	12022020	082113	185.32	12.834102	-57.126655	185.42	-0.570	0.710	1.330	185.43	-0.70	1.90	 	 	 	 	 	 	 	 	 	 	 	 	 	 	 	 	 	 	1581495673	6.72	12.45
12/02/2020 08:21:14	120220	12022020	082114	185.65	12.834072	-57.126662	185.69	-0.720	0.480	1.420	185.65	-0.90	2.00	 	 	 	 	 	 	 	 	 	 	 	 	 	 	 	 	 	 	1581495674	6.67	12.35
12/02/2020 08:21:15	120220	12022020	082115	185.50	12.834038	-57.126672	185.52	-0.140	-0.450	1.800	185.45	-1.90	2.30	 	 	 	 	 	 	 	 	 	 	 	 	 	 	 	 	 	 	1581495675	7.49	13.87
12/02/2020 08:21:16	120220	12022020	082116	185.38	12.834000	-57.126680	185.45	0.590	-1.060	1.980	185.38	-2.40	2.50	 	 	 	 	 	 	 	 	 	 	 	 	 	 	 	 	 	 	1581495676	8.31	15.39
12/02/2020 08:21:17	120220	12022020	082117	185.58	12.833965	-57.126687	185.67	0.770	-0.740	1.970	185.64	-2.10	2.50	 	 	 	 	 	 	 	 	 	 	 	 	 	 	 	 	 	 	1581495677	7.88	14.59
12/02/2020 08:21:18	120220	12022020	082118	185.86	12.833933	-57.126692	185.93	0.340	-0.050	1.840	185.90	-1.40	2.40	 	 	 	 	 	 	 	 	 	 	 	 	 	 	 	 	 	 	1581495678	6.76	12.52
12/02/2020 08:21:19	120220	12022020	082119	185.87	12.833905	-57.126695	185.90	-0.140	0.110	1.860	185.83	-1.30	2.40	 	 	 	 	 	 	 	 	 	 	 	 	 	 	 	 	 	 	1581495679	6.37	11.80
12/02/2020 08:21:20	120220	12022020	082120	185.60	12.833872	-57.126702	185.63	-0.270	-0.360	2.120	185.55	-1.80	2.60	 	 	 	 	 	 	 	 	 	 	 	 	 	 	 	 	 	 	1581495680	7.10	13.15
12/02/2020 08:21:21	120220	12022020	082121	185.41	12.833835	-57.126710	185.46	-0.180	-0.760	2.310	185.38	-2.20	2.80	 	 	 	 	 	 	 	 	 	 	 	 	 	 	 	 	 	 	1581495681	7.93	14.69
12/02/2020 08:21:22	120220	12022020	082122	185.31	12.833800	-57.126720	185.37	-0.140	-0.580	2.360	185.29	-1.90	2.90	 	 	 	 	 	 	 	 	 	 	 	 	 	 	 	 	 	 	1581495682	7.89	14.61
12/02/2020 08:21:23	120220	12022020	082123	185.28	12.833768	-57.126728	185.35	-0.210	-0.050	2.120	185.29	-1.40	2.60	 	 	 	 	 	 	 	 	 	 	 	 	 	 	 	 	 	 	1581495683	7.26	13.45
12/02/2020 08:21:24	120220	12022020	082124	185.30	12.833737	-57.126735	185.35	-0.270	0.180	1.780	185.28	-1.20	2.30	 	 	 	 	 	 	 	 	 	 	 	 	 	 	 	 	 	 	1581495684	6.82	12.63
12/02/2020 08:21:25	120220	12022020	082125	185.14	12.833703	-57.126740	185.17	-0.140	-0.230	1.660	185.08	-1.70	2.20	 	 	 	 	 	 	 	 	 	 	 	 	 	 	 	 	 	 	1581495685	7.18	13.30
12/02/2020 08:21:26	120220	12022020	082126	184.85	12.833667	-57.126745	184.89	0.160	-0.710	1.720	184.81	-2.10	2.20	 	 	 	 	 	 	 	 	 	 	 	 	 	 	 	 	 	 	1581495686	7.98	14.78
12/02/2020 08:21:27	120220	12022020	082127	184.84	12.833630	-57.126752	184.94	0.370	-0.480	1.690	184.90	-1.80	2.20	 	 	 	 	 	 	 	 	 	 	 	 	 	 	 	 	 	 	1581495687	8.13	15.06
12/02/2020 08:21:28	120220	12022020	082128	185.18	12.833597	-57.126757	185.41	0.260	0.370	1.430	185.29	-1.00	1.90	 	 	 	 	 	 	 	 	 	 	 	 	 	 	 	 	 	 	1581495688	7.28	13.48
12/02/2020 08:21:29	120220	12022020	082129	185.80	12.833567	-57.126760	185.90	-0.070	0.760	1.240	185.87	-0.60	1.80	 	 	 	 	 	 	 	 	 	 	 	 	 	 	 	 	 	 	1581495689	6.46	11.96
12/02/2020 08:21:30	120220	12022020	082130	186.04	12.833535	-57.126765	186.11	-0.410	0.280	1.590	186.04	-1.20	2.20	 	 	 	 	 	 	 	 	 	 	 	 	 	 	 	 	 	 	1581495690	6.80	12.59
12/02/2020 08:21:31	120220	12022020	082131	185.75	12.833502	-57.126775	185.79	-0.520	-0.580	2.630	185.63	-2.00	3.20	 	 	 	 	 	 	 	 	 	 	 	 	 	 	 	 	 	 	1581495691	7.67	14.20
12/02/2020 08:21:32	120220	12022020	082132	184.95	12.833465	-57.126790	184.99	-0.240	-1.130	3.730	184.79	-2.50	4.30	 	 	 	 	 	 	 	 	 	 	 	 	 	 	 	 	 	 	1581495692	8.25	15.28
12/02/2020 08:21:33	120220	12022020	082133	184.37	12.833430	-57.126805	184.47	0.210	-0.900	4.030	184.34	-2.30	4.50	 	 	 	 	 	 	 	 	 	 	 	 	 	 	 	 	 	 	1581495693	8.10	15.00
12/02/2020 08:21:34	120220	12022020	082134	184.43	12.833398	-57.126813	184.55	0.540	-0.280	3.420	184.49	-1.60	3.90	 	 	 	 	 	 	 	 	 	 	 	 	 	 	 	 	 	 	1581495694	7.20	13.33
12/02/2020 08:21:35	120220	12022020	082135	184.79	12.833367	-57.126817	184.88	0.660	0.110	2.330	184.85	-1.30	2.80	 	 	 	 	 	 	 	 	 	 	 	 	 	 	 	 	 	 	1581495695	6.66	12.33
12/02/2020 08:21:36	120220	12022020	082136	184.98	12.833335	-57.126817	185.03	0.670	-0.120	1.250	184.99	-1.50	1.70	 	 	 	 	 	 	 	 	 	 	 	 	 	 	 	 	 	 	1581495696	6.92	12.82
12/02/2020 08:21:37	120220	12022020	082137	184.99	12.833300	-57.126813	185.02	0.490	-0.580	0.720	184.98	-2.00	1.20	 	 	 	 	 	 	 	 	 	 	 	 	 	 	 	 	 	 	1581495697	7.66	14.19
12/02/2020 08:21:38	120220	12022020	082138	184.99	12.833263	-57.126813	185.03	-0.030	-0.800	0.790	184.99	-2.20	1.40	 	 	 	 	 	 	 	 	 	 	 	 	 	 	 	 	 	 	1581495698	7.87	14.58
12/02/2020 08:21:39	120220	12022020	082139	184.96	12.833228	-57.126820	185.01	-0.710	-0.590	1.400	184.94	-2.00	2.00	 	 	 	 	 	 	 	 	 	 	 	 	 	 	 	 	 	 	1581495699	7.59	14.06
12/02/2020 08:21:40	120220	12022020	082140	184.85	12.833197	-57.126833	184.87	-1.070	-0.230	2.190	184.81	-1.60	2.70	 	 	 	 	 	 	 	 	 	 	 	 	 	 	 	 	 	 	1581495700	7.48	13.85
12/02/2020 08:21:41	120220	12022020	082141	184.75	12.833163	-57.126847	184.83	-0.870	0.110	2.530	184.77	-1.30	3.00	 	 	 	 	 	 	 	 	 	 	 	 	 	 	 	 	 	 	1581495701	7.62	14.11
12/02/2020 08:21:42	120220	12022020	082142	184.88	12.833130	-57.126858	185.05	-0.430	0.530	2.390	184.95	-0.80	2.90	 	 	 	 	 	 	 	 	 	 	 	 	 	 	 	 	 	 	1581495702	7.52	13.93
12/02/2020 08:21:43	120220	12022020	082143	185.32	12.833098	-57.126867	185.41	-0.090	0.750	2.000	185.38	-0.60	2.50	 	 	 	 	 	 	 	 	 	 	 	 	 	 	 	 	 	 	1581495703	7.16	13.26
12/02/2020 08:21:44	120220	12022020	082144	185.57	12.833065	-57.126872	185.63	0.150	0.440	1.560	185.58	-1.00	2.10	 	 	 	 	 	 	 	 	 	 	 	 	 	 	 	 	 	 	1581495704	7.01	12.98
12/02/2020 08:21:45	120220	12022020	082145	185.53	12.833032	-57.126875	185.57	0.470	-0.330	1.200	185.50	-1.80	1.70	 	 	 	 	 	 	 	 	 	 	 	 	 	 	 	 	 	 	1581495705	7.37	13.65
12/02/2020 08:21:46	120220	12022020	082146	185.39	12.832995	-57.126878	185.42	0.830	-1.110	0.980	185.37	-2.50	1.50	 	 	 	 	 	 	 	 	 	 	 	 	 	 	 	 	 	 	1581495706	7.79	14.43
12/02/2020 08:21:47	120220	12022020	082147	185.28	12.832960	-57.126880	185.31	0.910	-1.470	1.060	185.25	-2.90	1.60	 	 	 	 	 	 	 	 	 	 	 	 	 	 	 	 	 	 	1581495707	7.84	14.52
12/02/2020 08:21:48	120220	12022020	082148	185.07	12.832925	-57.126883	185.09	0.610	-1.220	1.430	185.01	-2.60	2.00	 	 	 	 	 	 	 	 	 	 	 	 	 	 	 	 	 	 	1581495708	7.50	13.89
12/02/2020 08:21:49	120220	12022020	082149	184.69	12.832892	-57.126890	184.72	0.090	-0.570	2.030	184.62	-1.90	2.60	 	 	 	 	 	 	 	 	 	 	 	 	 	 	 	 	 	 	1581495709	7.08	13.11
12/02/2020 08:21:50	120220	12022020	082150	184.51	12.832860	-57.126898	184.60	-0.520	0.220	2.690	184.54	-1.10	3.20	 	 	 	 	 	 	 	 	 	 	 	 	 	 	 	 	 	 	1581495710	7.00	12.96
12/02/2020 08:21:51	120220	12022020	082151	184.87	12.832830	-57.126908	185.01	-1.080	0.810	3.090	184.98	-0.60	3.60	 	 	 	 	 	 	 	 	 	 	 	 	 	 	 	 	 	 	1581495711	7.07	13.09
12/02/2020 08:21:52	120220	12022020	082152	185.37	12.832798	-57.126920	185.50	-1.270	0.770	3.230	185.43	-0.60	3.70	 	 	 	 	 	 	 	 	 	 	 	 	 	 	 	 	 	 	1581495712	7.31	13.54
12/02/2020 08:21:53	120220	12022020	082153	185.52	12.832763	-57.126935	185.62	-0.790	0.080	3.120	185.52	-1.30	3.60	 	 	 	 	 	 	 	 	 	 	 	 	 	 	 	 	 	 	1581495713	7.86	14.56
12/02/2020 08:21:54	120220	12022020	082154	185.53	12.832727	-57.126945	185.63	0.130	-0.470	2.470	185.54	-1.90	2.90	 	 	 	 	 	 	 	 	 	 	 	 	 	 	 	 	 	 	1581495714	8.29	15.35
12/02/2020 08:21:55	120220	12022020	082155	185.63	12.832690	-57.126950	185.71	0.800	-0.400	1.460	185.65	-1.80	1.90	 	 	 	 	 	 	 	 	 	 	 	 	 	 	 	 	 	 	1581495715	7.84	14.52
12/02/2020 08:21:56	120220	12022020	082156	185.71	12.832658	-57.126948	185.76	0.930	-0.170	0.410	185.71	-1.50	0.90	 	 	 	 	 	 	 	 	 	 	 	 	 	 	 	 	 	 	1581495716	7.10	13.15
12/02/2020 08:21:57	120220	12022020	082157	185.64	12.832625	-57.126945	185.65	0.710	-0.320	-0.260	185.60	-1.70	0.30	 	 	 	 	 	 	 	 	 	 	 	 	 	 	 	 	 	 	1581495717	6.98	12.93
12/02/2020 08:21:58	120220	12022020	082158	185.52	12.832592	-57.126943	185.55	0.380	-0.660	-0.190	185.50	-2.00	0.40	 	 	 	 	 	 	 	 	 	 	 	 	 	 	 	 	 	 	1581495718	7.41	13.72
12/02/2020 08:21:59	120220	12022020	082159	185.43	12.832557	-57.126947	185.49	0.020	-0.780	0.800	185.41	-2.10	1.40	 	 	 	 	 	 	 	 	 	 	 	 	 	 	 	 	 	 	1581495719	7.59	14.06
12/02/2020 08:22:00	120220	12022020	082200	185.30	12.832522	-57.126958	185.39	-0.370	-0.610	2.130	185.29	-2.00	2.70	 	 	 	 	 	 	 	 	 	 	 	 	 	 	 	 	 	 	1581495720	7.60	14.08
12/02/2020 08:22:01	120220	12022020	082201	185.30	12.832490	-57.126973	185.41	-0.660	-0.260	2.890	185.31	-1.60	3.40	1015.00	26.10	26.20	20.50	20.60	-1.0	71.0	71.0	391.0	25.8	269.00	10.00	74.00	10.80	16	10092.0	27.4	27.4	1581495721	7.66	14.19
12/02/2020 08:22:02	120220	12022020	082202	185.39	12.832458	-57.126988	185.51	-0.710	0.040	3.210	185.41	-1.30	3.70	 	 	 	 	 	 	 	 	 	 	 	 	 	 	 	 	 	 	1581495722	7.52	13.93
12/02/2020 08:22:03	120220	12022020	082203	185.37	12.832425	-57.127000	185.47	-0.360	0.010	3.220	185.35	-1.40	3.70	 	 	 	 	 	 	 	 	 	 	 	 	 	 	 	 	 	 	1581495723	7.48	13.85
12/02/2020 08:22:04	120220	12022020	082204	185.15	12.832390	-57.127008	185.21	0.300	-0.320	2.760	185.09	-1.70	3.20	 	 	 	 	 	 	 	 	 	 	 	 	 	 	 	 	 	 	1581495724	7.69	14.24
12/02/2020 08:22:05	120220	12022020	082205	184.94	12.832353	-57.127012	185.01	0.710	-0.420	2.080	184.92	-1.80	2.60	 	 	 	 	 	 	 	 	 	 	 	 	 	 	 	 	 	 	1581495725	8.00	14.82
12/02/2020 08:22:06	120220	12022020	082206	184.91	12.832317	-57.127012	185.01	0.440	0.010	1.660	184.92	-1.30	2.20	 	 	 	 	 	 	 	 	 	 	 	 	 	 	 	 	 	 	1581495726	7.74	14.33
12/02/2020 08:22:07	120220	12022020	082207	185.11	12.832285	-57.127013	185.20	-0.290	0.590	1.390	185.16	-0.80	1.90	 	 	 	 	 	 	 	 	 	 	 	 	 	 	 	 	 	 	1581495727	6.95	12.87
12/02/2020 08:22:08	120220	12022020	082208	185.36	12.832255	-57.127018	185.45	-0.820	0.720	1.300	185.40	-0.70	1.80	 	 	 	 	 	 	 	 	 	 	 	 	 	 	 	 	 	 	1581495728	6.63	12.28
12/02/2020 08:22:09	120220	12022020	082209	185.48	12.832223	-57.127027	185.56	-0.560	0.090	1.470	185.48	-1.30	2.00	 	 	 	 	 	 	 	 	 	 	 	 	 	 	 	 	 	 	1581495729	7.06	13.08
12/02/2020 08:22:10	120220	12022020	082210	185.45	12.832188	-57.127037	185.52	0.300	-0.980	1.660	185.42	-2.40	2.20	 	 	 	 	 	 	 	 	 	 	 	 	 	 	 	 	 	 	1581495730	7.85	14.54
12/02/2020 08:22:11	120220	12022020	082211	185.25	12.832150	-57.127043	185.32	0.950	-1.740	1.890	185.20	-3.10	2.40	 	 	 	 	 	 	 	 	 	 	 	 	 	 	 	 	 	 	1581495731	8.31	15.39
12/02/2020 08:22:12	120220	12022020	082212	185.00	12.832113	-57.127050	185.08	0.790	-1.510	2.200	184.97	-2.80	2.70	 	 	 	 	 	 	 	 	 	 	 	 	 	 	 	 	 	 	1581495732	8.09	14.98
12/02/2020 08:22:13	120220	12022020	082213	184.93	12.832080	-57.127057	185.04	0.010	-0.440	2.420	184.95	-1.70	2.90	 	 	 	 	 	 	 	 	 	 	 	 	 	 	 	 	 	 	1581495733	7.19	13.32
12/02/2020 08:22:14	120220	12022020	082214	185.09	12.832050	-57.127065	185.21	-0.670	0.650	2.380	185.14	-0.70	2.90	 	 	 	 	 	 	 	 	 	 	 	 	 	 	 	 	 	 	1581495734	6.53	12.09
12/02/2020 08:22:15	120220	12022020	082215	185.33	12.832022	-57.127073	185.44	-0.650	1.040	2.110	185.37	-0.30	2.60	 	 	 	 	 	 	 	 	 	 	 	 	 	 	 	 	 	 	1581495735	6.59	12.20
12/02/2020 08:22:16	120220	12022020	082216	185.47	12.831988	-57.127080	185.56	-0.050	0.540	1.830	185.47	-0.90	2.30	 	 	 	 	 	 	 	 	 	 	 	 	 	 	 	 	 	 	1581495736	7.26	13.45
12/02/2020 08:22:17	120220	12022020	082217	185.35	12.831950	-57.127085	185.41	0.500	-0.410	1.900	185.28	-1.80	2.40	 	 	 	 	 	 	 	 	 	 	 	 	 	 	 	 	 	 	1581495737	8.06	14.93
12/02/2020 08:22:18	120220	12022020	082218	185.07	12.831912	-57.127088	185.06	0.490	-1.010	2.220	184.99	-2.40	2.80	 	 	 	 	 	 	 	 	 	 	 	 	 	 	 	 	 	 	1581495738	8.45	15.65
12/02/2020 08:22:19	120220	12022020	082219	184.73	12.831875	-57.127095	184.83	-0.020	-0.740	2.590	184.71	-2.10	3.10	 	 	 	 	 	 	 	 	 	 	 	 	 	 	 	 	 	 	1581495739	8.05	14.91
12/02/2020 08:22:20	120220	12022020	082220	184.79	12.831843	-57.127103	184.92	-0.490	0.140	2.700	184.84	-1.20	3.20	 	 	 	 	 	 	 	 	 	 	 	 	 	 	 	 	 	 	1581495740	7.17	13.28
12/02/2020 08:22:21	120220	12022020	082221	185.13	12.831813	-57.127113	185.25	-0.400	0.690	2.180	185.20	-0.70	2.70	 	 	 	 	 	 	 	 	 	 	 	 	 	 	 	 	 	 	1581495741	6.50	12.04
12/02/2020 08:22:22	120220	12022020	082222	185.44	12.831783	-57.127118	185.53	0.180	0.220	1.350	185.49	-1.20	1.80	 	 	 	 	 	 	 	 	 	 	 	 	 	 	 	 	 	 	1581495742	6.70	12.41
12/02/2020 08:22:23	120220	12022020	082223	185.61	12.831747	-57.127120	185.69	0.640	-0.800	0.890	185.63	-2.20	1.40	 	 	 	 	 	 	 	 	 	 	 	 	 	 	 	 	 	 	1581495743	7.77	14.39
12/02/2020 08:22:24	120220	12022020	082224	185.70	12.831708	-57.127123	185.78	0.470	-1.370	1.010	185.70	-2.70	1.50	 	 	 	 	 	 	 	 	 	 	 	 	 	 	 	 	 	 	1581495744	8.28	15.33
12/02/2020 08:22:25	120220	12022020	082225	185.64	12.831673	-57.127130	185.70	-0.240	-1.090	1.440	185.60	-2.40	2.00	 	 	 	 	 	 	 	 	 	 	 	 	 	 	 	 	 	 	1581495745	7.79	14.43
12/02/2020 08:22:26	120220	12022020	082226	185.34	12.831642	-57.127140	185.39	-0.850	-0.400	2.050	185.26	-1.70	2.60	 	 	 	 	 	 	 	 	 	 	 	 	 	 	 	 	 	 	1581495746	7.11	13.17
12/02/2020 08:22:27	120220	12022020	082227	184.95	12.831610	-57.127152	185.00	-0.810	-0.010	2.550	184.87	-1.40	3.10	 	 	 	 	 	 	 	 	 	 	 	 	 	 	 	 	 	 	1581495747	7.13	13.20
12/02/2020 08:22:28	120220	12022020	082228	184.64	12.831577	-57.127163	184.71	-0.130	-0.010	2.600	184.61	-1.40	3.10	 	 	 	 	 	 	 	 	 	 	 	 	 	 	 	 	 	 	1581495748	7.66	14.19
12/02/2020 08:22:29	120220	12022020	082229	184.66	12.831540	-57.127170	184.76	0.540	0.080	2.200	184.71	-1.30	2.70	 	 	 	 	 	 	 	 	 	 	 	 	 	 	 	 	 	 	1581495749	8.00	14.82
12/02/2020 08:22:30	120220	12022020	082230	184.94	12.831503	-57.127172	185.14	0.630	0.410	1.630	185.02	-0.90	2.10	 	 	 	 	 	 	 	 	 	 	 	 	 	 	 	 	 	 	1581495750	7.75	14.35
12/02/2020 08:22:31	120220	12022020	082231	185.46	12.831470	-57.127173	185.55	0.220	0.640	1.250	185.53	-0.70	1.80	 	 	 	 	 	 	 	 	 	 	 	 	 	 	 	 	 	 	1581495751	7.17	13.28
12/02/2020 08:22:32	120220	12022020	082232	185.70	12.831438	-57.127177	185.82	-0.160	0.480	1.320	185.74	-0.90	1.80	 	 	 	 	 	 	 	 	 	 	 	 	 	 	 	 	 	 	1581495752	6.96	12.89
12/02/2020 08:22:33	120220	12022020	082233	185.89	12.831405	-57.127183	185.96	-0.180	-0.100	1.580	185.90	-1.50	2.10	 	 	 	 	 	 	 	 	 	 	 	 	 	 	 	 	 	 	1581495753	7.20	13.33
12/02/2020 08:22:34	120220	12022020	082234	185.85	12.831372	-57.127192	185.92	0.070	-0.860	1.910	185.83	-2.30	2.40	 	 	 	 	 	 	 	 	 	 	 	 	 	 	 	 	 	 	1581495754	7.60	14.08
12/02/2020 08:22:35	120220	12022020	082235	185.74	12.831337	-57.127202	185.83	0.270	-1.330	2.230	185.73	-2.70	2.70	 	 	 	 	 	 	 	 	 	 	 	 	 	 	 	 	 	 	1581495755	7.84	14.52
12/02/2020 08:22:36	120220	12022020	082236	185.69	12.831302	-57.127210	185.78	0.220	-1.270	2.280	185.68	-2.60	2.80	 	 	 	 	 	 	 	 	 	 	 	 	 	 	 	 	 	 	1581495756	7.63	14.13
12/02/2020 08:22:37	120220	12022020	082237	185.53	12.831268	-57.127217	185.60	0.030	-0.990	2.190	185.47	-2.30	2.70	 	 	 	 	 	 	 	 	 	 	 	 	 	 	 	 	 	 	1581495757	7.23	13.39
12/02/2020 08:22:38	120220	12022020	082238	185.11	12.831235	-57.127223	185.16	-0.100	-0.730	2.270	185.01	-2.10	2.80	 	 	 	 	 	 	 	 	 	 	 	 	 	 	 	 	 	 	1581495758	7.29	13.50
12/02/2020 08:22:39	120220	12022020	082239	184.60	12.831200	-57.127230	184.66	-0.140	-0.240	2.370	184.53	-1.60	2.90	 	 	 	 	 	 	 	 	 	 	 	 	 	 	 	 	 	 	1581495759	7.62	14.11
12/02/2020 08:22:40	120220	12022020	082240	184.53	12.831165	-57.127235	184.66	-0.300	0.640	2.180	184.62	-0.70	2.70	 	 	 	 	 	 	 	 	 	 	 	 	 	 	 	 	 	 	1581495760	7.56	14.00
12/02/2020 08:22:41	120220	12022020	082241	185.21	12.831133	-57.127240	185.38	-0.570	1.450	1.740	185.41	0.10	2.20	 	 	 	 	 	 	 	 	 	 	 	 	 	 	 	 	 	 	1581495761	7.05	13.06
12/02/2020 08:22:42	120220	12022020	082242	186.11	12.831103	-57.127247	186.25	-0.610	1.510	1.300	186.26	0.10	1.80	 	 	 	 	 	 	 	 	 	 	 	 	 	 	 	 	 	 	1581495762	6.76	12.52
12/02/2020 08:22:43	120220	12022020	082243	186.69	12.831070	-57.127253	186.78	-0.070	0.570	0.970	186.75	-0.90	1.50	 	 	 	 	 	 	 	 	 	 	 	 	 	 	 	 	 	 	1581495763	7.19	13.32
12/02/2020 08:22:44	120220	12022020	082244	186.79	12.831033	-57.127260	186.83	0.880	-0.920	0.820	186.75	-2.40	1.30	 	 	 	 	 	 	 	 	 	 	 	 	 	 	 	 	 	 	1581495764	7.97	14.76
12/02/2020 08:22:45	120220	12022020	082245	186.37	12.830995	-57.127263	186.38	1.520	-2.030	1.130	186.25	-3.40	1.70	 	 	 	 	 	 	 	 	 	 	 	 	 	 	 	 	 	 	1581495765	8.43	15.61
12/02/2020 08:22:46	120220	12022020	082246	185.69	12.830957	-57.127267	185.70	1.260	-2.050	1.770	185.57	-3.40	2.30	 	 	 	 	 	 	 	 	 	 	 	 	 	 	 	 	 	 	1581495766	8.11	15.02
12/02/2020 08:22:47	120220	12022020	082247	185.21	12.830923	-57.127273	185.29	0.160	-1.020	2.360	185.19	-2.30	2.90	 	 	 	 	 	 	 	 	 	 	 	 	 	 	 	 	 	 	1581495767	7.28	13.48
12/02/2020 08:22:48	120220	12022020	082248	185.30	12.830893	-57.127283	185.42	-1.200	0.350	2.790	185.36	-1.00	3.30	 	 	 	 	 	 	 	 	 	 	 	 	 	 	 	 	 	 	1581495768	6.64	12.30
12/02/2020 08:22:49	120220	12022020	082249	185.73	12.830867	-57.127297	185.87	-1.940	1.150	2.890	185.85	-0.20	3.40	 	 	 	 	 	 	 	 	 	 	 	 	 	 	 	 	 	 	1581495769	6.70	12.41
12/02/2020 08:22:50	120220	12022020	082250	186.31	12.830835	-57.127312	186.44	-1.550	0.970	2.320	186.42	-0.40	2.80	 	 	 	 	 	 	 	 	 	 	 	 	 	 	 	 	 	 	1581495770	7.38	13.67
12/02/2020 08:22:51	120220	12022020	082251	186.71	12.830800	-57.127323	186.80	-0.270	0.070	1.420	186.75	-1.40	1.90	 	 	 	 	 	 	 	 	 	 	 	 	 	 	 	 	 	 	1581495771	8.01	14.83
12/02/2020 08:22:52	120220	12022020	082252	186.81	12.830760	-57.127328	186.87	1.020	-0.850	0.690	186.81	-2.20	1.20	 	 	 	 	 	 	 	 	 	 	 	 	 	 	 	 	 	 	1581495772	8.56	15.85
12/02/2020 08:22:53	120220	12022020	082253	186.80	12.830720	-57.127330	186.86	1.500	-0.960	0.330	186.79	-2.30	0.80	 	 	 	 	 	 	 	 	 	 	 	 	 	 	 	 	 	 	1581495773	8.50	15.74
12/02/2020 08:22:54	120220	12022020	082254	186.68	12.830685	-57.127328	186.73	0.980	-0.270	0.390	186.64	-1.60	0.90	 	 	 	 	 	 	 	 	 	 	 	 	 	 	 	 	 	 	1581495774	7.54	13.96
12/02/2020 08:22:55	120220	12022020	082255	186.44	12.830655	-57.127330	186.48	-0.080	0.470	0.940	186.39	-0.90	1.50	 	 	 	 	 	 	 	 	 	 	 	 	 	 	 	 	 	 	1581495775	6.59	12.20
12/02/2020 08:22:56	120220	12022020	082256	186.29	12.830625	-57.127338	186.34	-0.930	0.690	1.750	186.26	-0.70	2.30	 	 	 	 	 	 	 	 	 	 	 	 	 	 	 	 	 	 	1581495776	6.60	12.22
12/02/2020 08:22:57	120220	12022020	082257	186.24	12.830595	-57.127353	186.33	-0.970	0.380	2.380	186.24	-1.00	2.90	 	 	 	 	 	 	 	 	 	 	 	 	 	 	 	 	 	 	1581495777	7.39	13.69
12/02/2020 08:22:58	120220	12022020	082258	186.18	12.830562	-57.127370	186.26	-0.160	-0.370	2.560	186.14	-1.80	3.10	 	 	 	 	 	 	 	 	 	 	 	 	 	 	 	 	 	 	1581495778	7.89	14.61
12/02/2020 08:22:59	120220	12022020	082259	185.96	12.830525	-57.127380	186.03	0.860	-1.210	2.350	185.92	-2.60	2.80	 	 	 	 	 	 	 	 	 	 	 	 	 	 	 	 	 	 	1581495779	8.10	15.00
12/02/2020 08:23:00	120220	12022020	082300	185.86	12.830488	-57.127387	185.96	1.200	-1.470	2.060	185.88	-2.80	2.60	 	 	 	 	 	 	 	 	 	 	 	 	 	 	 	 	 	 	1581495780	8.14	15.08
12/02/2020 08:23:01	120220	12022020	082301	185.99	12.830453	-57.127388	186.10	0.540	-0.920	2.090	186.03	-2.20	2.60	1015.00	26.20	26.20	20.80	20.80	-1.0	72.0	72.0	392.0	25.8	271.00	9.40	74.00	10.10	16	9618.0	27.4	27.4	1581495781	7.57	14.02
12/02/2020 08:23:02	120220	12022020	082302	186.10	12.830422	-57.127395	186.19	-0.530	0.010	2.400	186.09	-1.30	2.90	 	 	 	 	 	 	 	 	 	 	 	 	 	 	 	 	 	 	1581495782	6.73	12.46
12/02/2020 08:23:03	120220	12022020	082303	185.96	12.830393	-57.127405	186.04	-1.050	0.500	2.860	185.92	-0.90	3.40	 	 	 	 	 	 	 	 	 	 	 	 	 	 	 	 	 	 	1581495783	6.60	12.22
12/02/2020 08:23:04	120220	12022020	082304	185.79	12.830362	-57.127417	185.88	-0.720	0.380	2.970	185.77	-1.00	3.50	 	 	 	 	 	 	 	 	 	 	 	 	 	 	 	 	 	 	1581495784	7.32	13.56
12/02/2020 08:23:05	120220	12022020	082305	185.79	12.830325	-57.127428	185.92	0.030	0.150	2.690	185.82	-1.20	3.20	 	 	 	 	 	 	 	 	 	 	 	 	 	 	 	 	 	 	1581495785	7.88	14.59
12/02/2020 08:23:06	120220	12022020	082306	185.99	12.830290	-57.127433	186.22	0.600	0.100	1.940	186.07	-1.30	2.40	 	 	 	 	 	 	 	 	 	 	 	 	 	 	 	 	 	 	1581495786	7.75	14.35
12/02/2020 08:23:07	120220	12022020	082307	186.55	12.830257	-57.127435	186.66	0.680	0.040	1.090	186.62	-1.30	1.60	 	 	 	 	 	 	 	 	 	 	 	 	 	 	 	 	 	 	1581495787	7.33	13.58
12/02/2020 08:23:08	120220	12022020	082308	186.72	12.830223	-57.127435	186.76	0.480	-0.370	1.080	186.71	-1.80	1.60	 	 	 	 	 	 	 	 	 	 	 	 	 	 	 	 	 	 	1581495788	7.12	13.19
12/02/2020 08:23:09	120220	12022020	082309	186.32	12.830188	-57.127440	186.35	0.290	-0.960	1.930	186.20	-2.30	2.50	 	 	 	 	 	 	 	 	 	 	 	 	 	 	 	 	 	 	1581495789	7.39	13.69
12/02/2020 08:23:10	120220	12022020	082310	185.69	12.830153	-57.127450	185.75	0.160	-1.140	2.830	185.57	-2.50	3.40	 	 	 	 	 	 	 	 	 	 	 	 	 	 	 	 	 	 	1581495790	7.81	14.46
12/02/2020 08:23:11	120220	12022020	082311	185.12	12.830120	-57.127462	185.21	-0.020	-0.640	3.430	185.04	-1.90	3.90	 	 	 	 	 	 	 	 	 	 	 	 	 	 	 	 	 	 	1581495791	7.65	14.17
12/02/2020 08:23:12	120220	12022020	082312	184.93	12.830088	-57.127473	185.07	-0.310	0.160	3.400	184.97	-1.20	3.90	 	 	 	 	 	 	 	 	 	 	 	 	 	 	 	 	 	 	1581495792	7.14	13.22
12/02/2020 08:23:13	120220	12022020	082313	185.34	12.830058	-57.127482	185.50	-0.550	0.820	2.600	185.47	-0.50	3.00	 	 	 	 	 	 	 	 	 	 	 	 	 	 	 	 	 	 	1581495793	6.78	12.56
12/02/2020 08:23:14	120220	12022020	082314	185.99	12.830028	-57.127488	186.14	-0.510	0.770	1.520	186.12	-0.60	2.00	 	 	 	 	 	 	 	 	 	 	 	 	 	 	 	 	 	 	1581495794	6.60	12.22
12/02/2020 08:23:15	120220	12022020	082315	186.44	12.829995	-57.127492	186.54	-0.080	-0.210	0.870	186.47	-1.60	1.40	 	 	 	 	 	 	 	 	 	 	 	 	 	 	 	 	 	 	1581495795	7.16	13.26
12/02/2020 08:23:16	120220	12022020	082316	186.33	12.829958	-57.127497	186.37	0.530	-1.480	0.960	186.24	-2.90	1.50	 	 	 	 	 	 	 	 	 	 	 	 	 	 	 	 	 	 	1581495796	8.08	14.96
12/02/2020 08:23:17	120220	12022020	082317	185.78	12.829920	-57.127503	185.81	0.890	-1.940	1.580	185.66	-3.30	2.10	 	 	 	 	 	 	 	 	 	 	 	 	 	 	 	 	 	 	1581495797	8.47	15.69
12/02/2020 08:23:18	120220	12022020	082318	185.30	12.829883	-57.127512	185.37	0.640	-0.990	2.270	185.24	-2.30	2.80	 	 	 	 	 	 	 	 	 	 	 	 	 	 	 	 	 	 	1581495798	7.87	14.58
12/02/2020 08:23:19	120220	12022020	082319	185.16	12.829853	-57.127520	185.27	-0.020	0.640	2.530	185.18	-0.60	3.00	 	 	 	 	 	 	 	 	 	 	 	 	 	 	 	 	 	 	1581495799	6.62	12.26
12/02/2020 08:23:20	120220	12022020	082320	185.32	12.829827	-57.127527	185.49	-0.600	1.570	2.350	185.37	0.20	2.80	 	 	 	 	 	 	 	 	 	 	 	 	 	 	 	 	 	 	1581495800	5.97	11.06
12/02/2020 08:23:21	120220	12022020	082321	185.63	12.829797	-57.127533	185.73	-0.690	1.130	2.290	185.65	-0.30	2.80	 	 	 	 	 	 	 	 	 	 	 	 	 	 	 	 	 	 	1581495801	6.60	12.22
12/02/2020 08:23:22	120220	12022020	082322	185.65	12.829762	-57.127542	185.71	-0.340	-0.230	2.650	185.63	-1.60	3.20	 	 	 	 	 	 	 	 	 	 	 	 	 	 	 	 	 	 	1581495802	7.84	14.52
12/02/2020 08:23:23	120220	12022020	082323	185.30	12.829722	-57.127553	185.37	0.140	-1.510	3.270	185.20	-2.90	3.80	 	 	 	 	 	 	 	 	 	 	 	 	 	 	 	 	 	 	1581495803	8.68	16.08
12/02/2020 08:23:24	120220	12022020	082324	184.70	12.829683	-57.127565	184.77	0.450	-1.890	3.790	184.58	-3.20	4.30	 	 	 	 	 	 	 	 	 	 	 	 	 	 	 	 	 	 	1581495804	8.62	15.96
12/02/2020 08:23:25	120220	12022020	082325	184.14	12.829650	-57.127577	184.24	0.500	-1.200	3.760	184.07	-2.50	4.20	 	 	 	 	 	 	 	 	 	 	 	 	 	 	 	 	 	 	1581495805	7.79	14.43
12/02/2020 08:23:26	120220	12022020	082326	184.00	12.829618	-57.127583	184.11	0.310	0.100	3.070	184.02	-1.20	3.50	 	 	 	 	 	 	 	 	 	 	 	 	 	 	 	 	 	 	1581495806	6.74	12.48
12/02/2020 08:23:27	120220	12022020	082327	184.25	12.829590	-57.127585	184.36	0.030	1.070	2.060	184.32	-0.30	2.50	 	 	 	 	 	 	 	 	 	 	 	 	 	 	 	 	 	 	1581495807	6.10	11.30
12/02/2020 08:23:28	120220	12022020	082328	184.70	12.829560	-57.127585	184.81	-0.170	1.130	1.100	184.80	-0.30	1.60	 	 	 	 	 	 	 	 	 	 	 	 	 	 	 	 	 	 	1581495808	6.43	11.91
12/02/2020 08:23:29	120220	12022020	082329	185.18	12.829527	-57.127587	185.26	-0.240	0.420	0.570	185.25	-1.00	1.10	 	 	 	 	 	 	 	 	 	 	 	 	 	 	 	 	 	 	1581495809	7.23	13.39
12/02/2020 08:23:30	120220	12022020	082330	185.36	12.829492	-57.127590	185.40	-0.190	-0.630	0.850	185.33	-2.00	1.40	 	 	 	 	 	 	 	 	 	 	 	 	 	 	 	 	 	 	1581495810	7.79	14.43
12/02/2020 08:23:31	120220	12022020	082331	184.97	12.829455	-57.127598	184.97	-0.030	-1.570	1.900	184.81	-2.90	2.50	 	 	 	 	 	 	 	 	 	 	 	 	 	 	 	 	 	 	1581495811	8.09	14.98
12/02/2020 08:23:32	120220	12022020	082332	184.08	12.829418	-57.127610	184.08	0.240	-1.860	3.080	183.89	-3.20	3.60	 	 	 	 	 	 	 	 	 	 	 	 	 	 	 	 	 	 	1581495812	8.23	15.24
12/02/2020 08:23:33	120220	12022020	082333	183.30	12.829383	-57.127622	183.37	0.390	-1.230	3.620	183.21	-2.50	4.10	 	 	 	 	 	 	 	 	 	 	 	 	 	 	 	 	 	 	1581495813	7.93	14.69
12/02/2020 08:23:34	120220	12022020	082334	183.08	12.829352	-57.127630	183.20	0.160	-0.050	3.310	183.08	-1.30	3.80	 	 	 	 	 	 	 	 	 	 	 	 	 	 	 	 	 	 	1581495814	7.09	13.13
12/02/2020 08:23:35	120220	12022020	082335	183.45	12.829320	-57.127633	183.61	-0.400	0.920	2.560	183.58	-0.40	3.00	 	 	 	 	 	 	 	 	 	 	 	 	 	 	 	 	 	 	1581495815	6.52	12.08
12/02/2020 08:23:36	120220	12022020	082336	184.20	12.829290	-57.127635	184.36	-0.960	1.200	1.740	184.35	-0.20	2.20	 	 	 	 	 	 	 	 	 	 	 	 	 	 	 	 	 	 	1581495816	6.59	12.20
12/02/2020 08:23:37	120220	12022020	082337	184.88	12.829258	-57.127640	185.00	-1.140	0.730	1.160	184.98	-0.70	1.60	 	 	 	 	 	 	 	 	 	 	 	 	 	 	 	 	 	 	1581495817	7.09	13.13
12/02/2020 08:23:38	120220	12022020	082338	185.26	12.829223	-57.127647	185.33	-0.700	-0.140	0.940	185.29	-1.50	1.40	 	 	 	 	 	 	 	 	 	 	 	 	 	 	 	 	 	 	1581495818	7.67	14.20
12/02/2020 08:23:39	120220	12022020	082339	185.29	12.829187	-57.127657	185.32	0.320	-0.960	0.790	185.25	-2.30	1.30	 	 	 	 	 	 	 	 	 	 	 	 	 	 	 	 	 	 	1581495819	7.99	14.80
12/02/2020 08:23:40	120220	12022020	082340	185.02	12.829150	-57.127662	185.04	1.350	-1.180	0.580	184.96	-2.50	1.10	 	 	 	 	 	 	 	 	 	 	 	 	 	 	 	 	 	 	1581495820	7.93	14.69
12/02/2020 08:23:41	120220	12022020	082341	184.86	12.829115	-57.127662	184.93	1.550	-0.640	0.560	184.88	-2.00	1.10	 	 	 	 	 	 	 	 	 	 	 	 	 	 	 	 	 	 	1581495821	7.52	13.93
12/02/2020 08:23:42	120220	12022020	082342	185.04	12.829083	-57.127660	185.14	0.660	0.160	1.180	185.09	-1.20	1.70	 	 	 	 	 	 	 	 	 	 	 	 	 	 	 	 	 	 	1581495822	6.79	12.58
12/02/2020 08:23:43	120220	12022020	082343	185.21	12.829055	-57.127665	185.31	-0.660	0.520	2.310	185.20	-0.80	2.90	 	 	 	 	 	 	 	 	 	 	 	 	 	 	 	 	 	 	1581495823	6.39	11.83
12/02/2020 08:23:44	120220	12022020	082344	185.08	12.829023	-57.127678	185.10	-1.460	0.190	3.600	185.01	-1.20	4.10	 	 	 	 	 	 	 	 	 	 	 	 	 	 	 	 	 	 	1581495824	7.11	13.17
12/02/2020 08:23:45	120220	12022020	082345	184.52	12.828990	-57.127697	184.61	-1.210	-0.570	4.470	184.41	-1.90	5.00	 	 	 	 	 	 	 	 	 	 	 	 	 	 	 	 	 	 	1581495825	8.21	15.20
12/02/2020 08:23:46	120220	12022020	082346	184.13	12.828955	-57.127715	184.19	-0.250	-1.080	4.450	184.07	-2.40	4.90	 	 	 	 	 	 	 	 	 	 	 	 	 	 	 	 	 	 	1581495826	8.62	15.96
12/02/2020 08:23:47	120220	12022020	082347	183.96	12.828918	-57.127725	184.09	0.570	-0.960	3.480	183.97	-2.30	3.90	 	 	 	 	 	 	 	 	 	 	 	 	 	 	 	 	 	 	1581495827	8.02	14.85
12/02/2020 08:23:48	120220	12022020	082348	184.13	12.828885	-57.127727	184.24	0.710	-0.450	2.040	184.17	-1.80	2.50	 	 	 	 	 	 	 	 	 	 	 	 	 	 	 	 	 	 	1581495828	7.24	13.41
12/02/2020 08:23:49	120220	12022020	082349	184.32	12.828853	-57.127725	184.40	0.360	-0.010	0.820	184.35	-1.40	1.30	 	 	 	 	 	 	 	 	 	 	 	 	 	 	 	 	 	 	1581495829	6.90	12.78
12/02/2020 08:23:50	120220	12022020	082350	184.43	12.828820	-57.127723	184.49	-0.010	0.220	0.200	184.45	-1.10	0.70	 	 	 	 	 	 	 	 	 	 	 	 	 	 	 	 	 	 	1581495830	7.01	12.98
12/02/2020 08:23:51	120220	12022020	082351	184.51	12.828787	-57.127723	184.55	-0.160	0.260	0.150	184.52	-1.10	0.70	 	 	 	 	 	 	 	 	 	 	 	 	 	 	 	 	 	 	1581495831	7.17	13.28
12/02/2020 08:23:52	120220	12022020	082352	184.60	12.828753	-57.127727	184.65	-0.160	0.100	0.370	184.62	-1.30	0.90	 	 	 	 	 	 	 	 	 	 	 	 	 	 	 	 	 	 	1581495832	7.32	13.56
12/02/2020 08:23:53	120220	12022020	082353	184.63	12.828718	-57.127733	184.69	-0.160	-0.100	0.890	184.63	-1.50	1.40	 	 	 	 	 	 	 	 	 	 	 	 	 	 	 	 	 	 	1581495833	7.51	13.91
12/02/2020 08:23:54	120220	12022020	082354	184.62	12.828685	-57.127742	184.68	-0.210	-0.180	1.570	184.61	-1.50	2.10	 	 	 	 	 	 	 	 	 	 	 	 	 	 	 	 	 	 	1581495834	7.53	13.95
12/02/2020 08:23:55	120220	12022020	082355	184.59	12.828652	-57.127752	184.67	-0.180	-0.230	2.080	184.58	-1.60	2.60	 	 	 	 	 	 	 	 	 	 	 	 	 	 	 	 	 	 	1581495835	7.36	13.63
12/02/2020 08:23:56	120220	12022020	082356	184.47	12.828618	-57.127760	184.55	0.010	-0.460	2.410	184.42	-1.80	2.90	 	 	 	 	 	 	 	 	 	 	 	 	 	 	 	 	 	 	1581495836	7.30	13.52
12/02/2020 08:23:57	120220	12022020	082357	184.18	12.828585	-57.127768	184.24	0.260	-0.750	2.670	184.09	-2.10	3.20	 	 	 	 	 	 	 	 	 	 	 	 	 	 	 	 	 	 	1581495837	7.49	13.87
12/02/2020 08:23:58	120220	12022020	082358	183.86	12.828550	-57.127775	183.85	0.300	-0.820	2.810	183.79	-2.20	3.30	 	 	 	 	 	 	 	 	 	 	 	 	 	 	 	 	 	 	1581495838	7.59	14.06
12/02/2020 08:23:59	120220	12022020	082359	183.45	12.828517	-57.127780	183.52	0.040	-0.550	2.740	183.40	-1.90	3.20	 	 	 	 	 	 	 	 	 	 	 	 	 	 	 	 	 	 	1581495839	7.45	13.80
12/02/2020 08:24:00	120220	12022020	082400	183.30	12.828483	-57.127787	183.38	-0.290	-0.080	2.480	183.30	-1.40	2.90	 	 	 	 	 	 	 	 	 	 	 	 	 	 	 	 	 	 	1581495840	7.23	13.39
12/02/2020 08:24:01	120220	12022020	082401	183.46	12.828452	-57.127793	183.55	-0.370	0.420	2.010	183.52	-0.90	2.50	1015.10	26.20	26.20	21.00	21.00	-1.0	73.0	73.0	392.0	25.8	276.00	10.00	80.00	10.30	16	8918.0	27.4	27.4	1581495841	7.11	13.17
12/02/2020 08:24:02	120220	12022020	082402	183.88	12.828418	-57.127800	183.97	0.010	0.680	1.230	183.98	-0.70	1.70	 	 	 	 	 	 	 	 	 	 	 	 	 	 	 	 	 	 	1581495842	6.98	12.93
12/02/2020 08:24:03	120220	12022020	082403	184.40	12.828387	-57.127802	184.49	0.580	0.430	0.490	184.51	-1.00	0.90	 	 	 	 	 	 	 	 	 	 	 	 	 	 	 	 	 	 	1581495843	7.08	13.11
12/02/2020 08:24:04	120220	12022020	082404	184.97	12.828352	-57.127802	185.06	0.820	-0.270	0.120	185.08	-1.70	0.60	 	 	 	 	 	 	 	 	 	 	 	 	 	 	 	 	 	 	1581495844	7.52	13.93
12/02/2020 08:24:05	120220	12022020	082405	185.38	12.828315	-57.127802	185.46	0.430	-0.980	0.510	185.41	-2.40	1.00	 	 	 	 	 	 	 	 	 	 	 	 	 	 	 	 	 	 	1581495845	7.78	14.41
12/02/2020 08:24:06	120220	12022020	082406	185.30	12.828280	-57.127807	185.35	-0.270	-1.420	1.700	185.21	-2.80	2.30	 	 	 	 	 	 	 	 	 	 	 	 	 	 	 	 	 	 	1581495846	7.65	14.17
12/02/2020 08:24:07	120220	12022020	082407	184.69	12.828247	-57.127820	184.74	-0.710	-1.460	3.190	184.54	-2.80	3.70	 	 	 	 	 	 	 	 	 	 	 	 	 	 	 	 	 	 	1581495847	7.70	14.26
12/02/2020 08:24:08	120220	12022020	082408	183.95	12.828213	-57.127835	184.02	-0.670	-1.040	4.310	183.81	-2.40	4.80	 	 	 	 	 	 	 	 	 	 	 	 	 	 	 	 	 	 	1581495848	7.85	14.54
12/02/2020 08:24:09	120220	12022020	082409	183.36	12.828180	-57.127848	183.46	-0.340	-0.370	4.690	183.28	-1.70	5.20	 	 	 	 	 	 	 	 	 	 	 	 	 	 	 	 	 	 	1581495849	7.71	14.28
12/02/2020 08:24:10	120220	12022020	082410	183.13	12.828147	-57.127858	183.26	0.010	0.300	4.180	183.13	-1.00	4.60	 	 	 	 	 	 	 	 	 	 	 	 	 	 	 	 	 	 	1581495850	7.50	13.89
12/02/2020 08:24:11	120220	12022020	082411	183.41	12.828112	-57.127862	183.57	0.160	0.840	2.890	183.52	-0.50	3.30	 	 	 	 	 	 	 	 	 	 	 	 	 	 	 	 	 	 	1581495851	7.38	13.67
12/02/2020 08:24:12	120220	12022020	082412	183.88	12.828078	-57.127862	184.11	0.130	1.170	1.450	183.99	-0.20	1.90	 	 	 	 	 	 	 	 	 	 	 	 	 	 	 	 	 	 	1581495852	7.23	13.39
12/02/2020 08:24:13	120220	12022020	082413	184.51	12.828045	-57.127858	184.60	0.050	1.030	0.400	184.60	-0.40	0.90	 	 	 	 	 	 	 	 	 	 	 	 	 	 	 	 	 	 	1581495853	7.09	13.13
12/02/2020 08:24:14	120220	12022020	082414	185.01	12.828012	-57.127858	185.08	-0.020	0.410	-0.180	185.08	-1.00	0.30	 	 	 	 	 	 	 	 	 	 	 	 	 	 	 	 	 	 	1581495854	7.19	13.32
12/02/2020 08:24:15	120220	12022020	082415	185.27	12.827978	-57.127862	185.30	0.040	-0.510	-0.150	185.27	-1.90	0.40	 	 	 	 	 	 	 	 	 	 	 	 	 	 	 	 	 	 	1581495855	7.32	13.56
12/02/2020 08:24:16	120220	12022020	082416	185.11	12.827943	-57.127868	185.11	0.290	-1.390	0.530	185.02	-2.80	1.10	 	 	 	 	 	 	 	 	 	 	 	 	 	 	 	 	 	 	1581495856	7.55	13.98
12/02/2020 08:24:17	120220	12022020	082417	184.53	12.827910	-57.127878	184.54	0.600	-1.840	1.630	184.38	-3.20	2.20	 	 	 	 	 	 	 	 	 	 	 	 	 	 	 	 	 	 	1581495857	7.69	14.24
12/02/2020 08:24:18	120220	12022020	082418	183.93	12.827875	-57.127888	184.00	0.680	-1.520	2.450	183.86	-2.80	2.90	 	 	 	 	 	 	 	 	 	 	 	 	 	 	 	 	 	 	1581495858	7.59	14.06
12/02/2020 08:24:19	120220	12022020	082419	183.85	12.827843	-57.127897	183.97	0.400	-0.560	2.520	183.90	-1.90	3.00	 	 	 	 	 	 	 	 	 	 	 	 	 	 	 	 	 	 	1581495859	7.11	13.17
12/02/2020 08:24:20	120220	12022020	082420	184.18	12.827813	-57.127900	184.29	-0.070	0.190	2.210	184.24	-1.10	2.70	 	 	 	 	 	 	 	 	 	 	 	 	 	 	 	 	 	 	1581495860	6.56	12.15
12/02/2020 08:24:21	120220	12022020	082421	184.29	12.827782	-57.127903	184.35	-0.380	0.100	2.110	184.27	-1.30	2.60	 	 	 	 	 	 	 	 	 	 	 	 	 	 	 	 	 	 	1581495861	6.90	12.78
12/02/2020 08:24:22	120220	12022020	082422	184.12	12.827745	-57.127908	184.18	-0.500	-0.430	2.340	184.09	-1.80	2.80	 	 	 	 	 	 	 	 	 	 	 	 	 	 	 	 	 	 	1581495862	7.95	14.72
12/02/2020 08:24:23	120220	12022020	082423	184.04	12.827705	-57.127913	184.13	-0.750	-0.420	2.730	184.04	-1.80	3.20	 	 	 	 	 	 	 	 	 	 	 	 	 	 	 	 	 	 	1581495863	8.46	15.67
12/02/2020 08:24:24	120220	12022020	082424	184.06	12.827670	-57.127923	184.16	-1.150	0.160	3.060	184.06	-1.20	3.50	 	 	 	 	 	 	 	 	 	 	 	 	 	 	 	 	 	 	1581495864	7.85	14.54
12/02/2020 08:24:25	120220	12022020	082425	184.00	12.827638	-57.127937	184.08	-1.280	0.620	3.160	183.98	-0.70	3.60	 	 	 	 	 	 	 	 	 	 	 	 	 	 	 	 	 	 	1581495865	7.28	13.48
12/02/2020 08:24:26	120220	12022020	082426	183.92	12.827607	-57.127950	183.99	-0.690	0.670	2.670	183.91	-0.70	3.10	 	 	 	 	 	 	 	 	 	 	 	 	 	 	 	 	 	 	1581495866	7.42	13.74
12/02/2020 08:24:27	120220	12022020	082427	183.93	12.827573	-57.127958	184.00	0.520	0.520	1.630	183.96	-0.90	2.00	 	 	 	 	 	 	 	 	 	 	 	 	 	 	 	 	 	 	1581495867	7.48	13.85
12/02/2020 08:24:28	120220	12022020	082428	184.13	12.827538	-57.127960	184.18	1.650	0.250	0.430	184.19	-1.10	0.90	 	 	 	 	 	 	 	 	 	 	 	 	 	 	 	 	 	 	1581495868	7.38	13.67
12/02/2020 08:24:29	120220	12022020	082429	184.52	12.827505	-57.127953	184.58	1.940	-0.160	-0.290	184.62	-1.50	0.20	 	 	 	 	 	 	 	 	 	 	 	 	 	 	 	 	 	 	1581495869	7.48	13.85
12/02/2020 08:24:30	120220	12022020	082430	184.96	12.827470	-57.127948	185.03	1.250	-0.660	-0.160	185.02	-2.10	0.40	 	 	 	 	 	 	 	 	 	 	 	 	 	 	 	 	 	 	1581495870	7.41	13.72
12/02/2020 08:24:31	120220	12022020	082431	185.07	12.827437	-57.127950	185.13	0.160	-1.340	0.950	185.03	-2.70	1.50	 	 	 	 	 	 	 	 	 	 	 	 	 	 	 	 	 	 	1581495871	7.17	13.28
12/02/2020 08:24:32	120220	12022020	082432	184.70	12.827403	-57.127960	184.75	-0.580	-1.960	2.650	184.58	-3.30	3.20	 	 	 	 	 	 	 	 	 	 	 	 	 	 	 	 	 	 	1581495872	7.65	14.17
12/02/2020 08:24:33	120220	12022020	082433	183.98	12.827368	-57.127977	184.04	-0.790	-2.090	4.290	183.81	-3.40	4.80	 	 	 	 	 	 	 	 	 	 	 	 	 	 	 	 	 	 	1581495873	8.26	15.30
12/02/2020 08:24:34	120220	12022020	082434	183.27	12.827333	-57.127993	183.14	-0.800	-1.560	5.480	183.09	-2.90	6.00	 	 	 	 	 	 	 	 	 	 	 	 	 	 	 	 	 	 	1581495874	8.32	15.41
12/02/2020 08:24:35	120220	12022020	082435	182.31	12.827300	-57.128010	182.40	-0.930	-0.350	5.880	182.21	-1.60	6.30	 	 	 	 	 	 	 	 	 	 	 	 	 	 	 	 	 	 	1581495875	8.03	14.87
12/02/2020 08:24:36	120220	12022020	082436	182.11	12.827268	-57.128022	182.23	-1.060	1.090	5.320	182.15	-0.20	5.70	 	 	 	 	 	 	 	 	 	 	 	 	 	 	 	 	 	 	1581495876	7.39	13.69
12/02/2020 08:24:37	120220	12022020	082437	182.56	12.827237	-57.128032	182.70	-0.780	2.000	3.920	182.69	0.60	4.30	 	 	 	 	 	 	 	 	 	 	 	 	 	 	 	 	 	 	1581495877	6.82	12.63
12/02/2020 08:24:38	120220	12022020	082438	183.35	12.827205	-57.128033	183.46	0.090	1.780	1.960	183.51	0.40	2.40	 	 	 	 	 	 	 	 	 	 	 	 	 	 	 	 	 	 	1581495878	6.88	12.74
12/02/2020 08:24:39	120220	12022020	082439	184.14	12.827168	-57.128028	184.21	1.160	0.550	0.100	184.28	-0.90	0.50	 	 	 	 	 	 	 	 	 	 	 	 	 	 	 	 	 	 	1581495879	7.84	14.52
12/02/2020 08:24:40	120220	12022020	082440	184.80	12.827130	-57.128020	184.84	1.700	-0.890	-0.820	184.90	-2.30	-0.30	 	 	 	 	 	 	 	 	 	 	 	 	 	 	 	 	 	 	1581495880	8.69	16.09
12/02/2020 08:24:41	120220	12022020	082441	185.12	12.827090	-57.128015	185.13	1.340	-1.750	-0.300	185.11	-3.10	0.30	 	 	 	 	 	 	 	 	 	 	 	 	 	 	 	 	 	 	1581495881	8.40	15.56
12/02/2020 08:24:42	120220	12022020	082442	184.85	12.827057	-57.128018	184.85	0.380	-1.820	1.440	184.71	-3.20	2.00	 	 	 	 	 	 	 	 	 	 	 	 	 	 	 	 	 	 	1581495882	7.43	13.76
12/02/2020 08:24:43	120220	12022020	082443	184.10	12.827025	-57.128030	184.13	-0.590	-1.350	3.690	183.94	-2.70	4.30	 	 	 	 	 	 	 	 	 	 	 	 	 	 	 	 	 	 	1581495883	7.16	13.26
12/02/2020 08:24:44	120220	12022020	082444	183.45	12.826995	-57.128048	183.54	-1.200	-0.600	5.440	183.35	-1.90	6.00	 	 	 	 	 	 	 	 	 	 	 	 	 	 	 	 	 	 	1581495884	7.60	14.08
12/02/2020 08:24:45	120220	12022020	082445	183.14	12.826965	-57.128068	183.28	-1.280	0.090	6.190	183.12	-1.30	6.70	 	 	 	 	 	 	 	 	 	 	 	 	 	 	 	 	 	 	1581495885	7.78	14.41
12/02/2020 08:24:46	120220	12022020	082446	183.16	12.826933	-57.128085	183.37	-0.820	0.410	5.740	183.21	-1.00	6.10	 	 	 	 	 	 	 	 	 	 	 	 	 	 	 	 	 	 	1581495886	7.74	14.33
12/02/2020 08:24:47	120220	12022020	082447	183.71	12.826898	-57.128095	183.87	-0.040	0.540	4.060	183.86	-0.80	4.40	 	 	 	 	 	 	 	 	 	 	 	 	 	 	 	 	 	 	1581495887	7.63	14.13
12/02/2020 08:24:48	120220	12022020	082448	184.35	12.826863	-57.128095	184.61	0.670	0.580	1.720	184.50	-0.80	2.10	 	 	 	 	 	 	 	 	 	 	 	 	 	 	 	 	 	 	1581495888	7.47	13.83
12/02/2020 08:24:49	120220	12022020	082449	185.24	12.826830	-57.128087	185.30	0.910	0.320	-0.190	185.35	-1.10	0.20	 	 	 	 	 	 	 	 	 	 	 	 	 	 	 	 	 	 	1581495889	7.56	14.00
12/02/2020 08:24:50	120220	12022020	082450	185.57	12.826795	-57.128078	185.61	0.670	-0.250	-1.070	185.60	-1.70	-0.60	 	 	 	 	 	 	 	 	 	 	 	 	 	 	 	 	 	 	1581495890	7.57	14.02
12/02/2020 08:24:51	120220	12022020	082451	185.50	12.826760	-57.128077	185.49	0.230	-0.790	-0.940	185.44	-2.20	-0.40	 	 	 	 	 	 	 	 	 	 	 	 	 	 	 	 	 	 	1581495891	7.46	13.82
12/02/2020 08:24:52	120220	12022020	082452	185.14	12.826727	-57.128082	185.13	-0.040	-0.990	-0.150	185.05	-2.40	0.40	 	 	 	 	 	 	 	 	 	 	 	 	 	 	 	 	 	 	1581495892	7.32	13.56
12/02/2020 08:24:53	120220	12022020	082453	184.66	12.826695	-57.128090	184.67	-0.030	-0.970	0.960	184.56	-2.30	1.50	 	 	 	 	 	 	 	 	 	 	 	 	 	 	 	 	 	 	1581495893	7.22	13.37
12/02/2020 08:24:54	120220	12022020	082454	184.15	12.826662	-57.128102	184.19	0.050	-0.820	2.070	184.07	-2.20	2.60	 	 	 	 	 	 	 	 	 	 	 	 	 	 	 	 	 	 	1581495894	7.34	13.59
12/02/2020 08:24:55	120220	12022020	082455	183.85	12.826628	-57.128112	183.93	-0.100	-0.530	2.800	183.82	-1.90	3.30	 	 	 	 	 	 	 	 	 	 	 	 	 	 	 	 	 	 	1581495895	7.51	13.91
12/02/2020 08:24:56	120220	12022020	082456	183.88	12.826595	-57.128123	184.00	-0.420	-0.130	3.050	183.93	-1.40	3.50	 	 	 	 	 	 	 	 	 	 	 	 	 	 	 	 	 	 	1581495896	7.48	13.85
12/02/2020 08:24:57	120220	12022020	082457	184.19	12.826563	-57.128133	184.32	-0.670	0.220	2.890	184.26	-1.10	3.30	 	 	 	 	 	 	 	 	 	 	 	 	 	 	 	 	 	 	1581495897	7.36	13.63
12/02/2020 08:24:58	120220	12022020	082458	184.51	12.826530	-57.128142	184.62	-0.650	0.330	2.620	184.56	-1.00	3.00	 	 	 	 	 	 	 	 	 	 	 	 	 	 	 	 	 	 	1581495898	7.27	13.46
12/02/2020 08:24:59	120220	12022020	082459	184.62	12.826497	-57.128150	184.70	-0.320	0.260	2.310	184.62	-1.10	2.70	 	 	 	 	 	 	 	 	 	 	 	 	 	 	 	 	 	 	1581495899	7.41	13.72
12/02/2020 08:25:00	120220	12022020	082500	184.60	12.826462	-57.128155	184.68	0.150	0.310	1.980	184.60	-1.00	2.40	 	 	 	 	 	 	 	 	 	 	 	 	 	 	 	 	 	 	1581495900	7.42	13.74
12/02/2020 08:25:01	120220	12022020	082501	184.63	12.826430	-57.128158	184.70	0.590	0.270	1.610	184.63	-1.10	2.10	1015.10	26.20	26.20	21.00	21.00	-1.0	73.0	73.0	392.0	25.8	277.00	10.00	79.00	10.30	16	9508.0	27.4	27.4	1581495901	7.11	13.17
12/02/2020 08:25:02	120220	12022020	082502	184.64	12.826397	-57.128160	184.71	0.860	-0.180	1.260	184.65	-1.60	1.70	 	 	 	 	 	 	 	 	 	 	 	 	 	 	 	 	 	 	1581495902	7.13	13.20
12/02/2020 08:25:03	120220	12022020	082503	184.77	12.826362	-57.128160	184.85	0.820	-0.750	1.180	184.81	-2.10	1.70	 	 	 	 	 	 	 	 	 	 	 	 	 	 	 	 	 	 	1581495903	7.55	13.98
12/02/2020 08:25:04	120220	12022020	082504	185.00	12.826327	-57.128162	185.10	0.390	-0.860	1.690	185.04	-2.20	2.20	 	 	 	 	 	 	 	 	 	 	 	 	 	 	 	 	 	 	1581495904	7.56	14.00
12/02/2020 08:25:05	120220	12022020	082505	185.10	12.826295	-57.128170	185.20	-0.140	-0.590	2.450	185.09	-1.90	2.90	 	 	 	 	 	 	 	 	 	 	 	 	 	 	 	 	 	 	1581495905	7.05	13.06
12/02/2020 08:25:06	120220	12022020	082506	184.93	12.826265	-57.128182	185.00	-0.370	-0.460	3.130	184.86	-1.80	3.60	 	 	 	 	 	 	 	 	 	 	 	 	 	 	 	 	 	 	1581495906	6.87	12.72
12/02/2020 08:25:07	120220	12022020	082507	184.51	12.826233	-57.128193	184.59	-0.210	-0.710	3.740	184.41	-2.10	4.20	 	 	 	 	 	 	 	 	 	 	 	 	 	 	 	 	 	 	1581495907	7.25	13.43
12/02/2020 08:25:08	120220	12022020	082508	184.10	12.826197	-57.128203	184.22	-0.060	-0.910	4.100	184.08	-2.30	4.60	 	 	 	 	 	 	 	 	 	 	 	 	 	 	 	 	 	 	1581495908	7.89	14.61
12/02/2020 08:25:09	120220	12022020	082509	184.27	12.826162	-57.128213	184.45	-0.220	-0.440	3.810	184.38	-1.80	4.20	 	 	 	 	 	 	 	 	 	 	 	 	 	 	 	 	 	 	1581495909	7.99	14.80
12/02/2020 08:25:10	120220	12022020	082510	184.91	12.826128	-57.128220	185.09	-0.510	0.520	2.970	185.04	-0.80	3.40	 	 	 	 	 	 	 	 	 	 	 	 	 	 	 	 	 	 	1581495910	7.10	13.15
12/02/2020 08:25:11	120220	12022020	082511	185.35	12.826100	-57.128225	185.45	-0.410	0.870	2.100	185.37	-0.50	2.50	 	 	 	 	 	 	 	 	 	 	 	 	 	 	 	 	 	 	1581495911	6.35	11.76
12/02/2020 08:25:12	120220	12022020	082512	185.31	12.826067	-57.128227	185.38	0.160	0.180	1.490	185.29	-1.20	1.90	 	 	 	 	 	 	 	 	 	 	 	 	 	 	 	 	 	 	1581495912	7.01	12.98
12/02/2020 08:25:13	120220	12022020	082513	185.27	12.826030	-57.128228	185.36	0.630	-0.520	1.040	185.29	-1.90	1.50	 	 	 	 	 	 	 	 	 	 	 	 	 	 	 	 	 	 	1581495913	8.12	15.04
12/02/2020 08:25:14	120220	12022020	082514	185.41	12.825993	-57.128230	185.50	0.600	-0.460	0.780	185.45	-1.80	1.30	 	 	 	 	 	 	 	 	 	 	 	 	 	 	 	 	 	 	1581495914	7.95	14.72
12/02/2020 08:25:15	120220	12022020	082515	185.62	12.825960	-57.128233	185.71	0.180	-0.020	0.810	185.66	-1.40	1.30	 	 	 	 	 	 	 	 	 	 	 	 	 	 	 	 	 	 	1581495915	7.00	12.96
12/02/2020 08:25:16	120220	12022020	082516	185.88	12.825930	-57.128240	185.99	-0.260	0.140	1.080	185.94	-1.20	1.60	 	 	 	 	 	 	 	 	 	 	 	 	 	 	 	 	 	 	1581495916	6.59	12.20
12/02/2020 08:25:17	120220	12022020	082517	186.17	12.825898	-57.128248	186.27	-0.510	-0.180	1.720	186.20	-1.60	2.20	 	 	 	 	 	 	 	 	 	 	 	 	 	 	 	 	 	 	1581495917	6.95	12.87
12/02/2020 08:25:18	120220	12022020	082518	186.13	12.825867	-57.128262	186.20	-0.500	-0.750	2.590	186.05	-2.10	3.10	 	 	 	 	 	 	 	 	 	 	 	 	 	 	 	 	 	 	1581495918	7.55	13.98
12/02/2020 08:25:19	120220	12022020	082519	185.48	12.825832	-57.128275	185.52	-0.100	-1.310	3.420	185.30	-2.70	3.90	 	 	 	 	 	 	 	 	 	 	 	 	 	 	 	 	 	 	1581495919	7.97	14.76
12/02/2020 08:25:20	120220	12022020	082520	184.58	12.825797	-57.128288	184.63	0.470	-1.290	3.810	184.41	-2.60	4.30	 	 	 	 	 	 	 	 	 	 	 	 	 	 	 	 	 	 	1581495920	8.16	15.11
12/02/2020 08:25:21	120220	12022020	082521	183.99	12.825762	-57.128297	184.09	0.790	-0.400	3.570	183.95	-1.70	4.00	 	 	 	 	 	 	 	 	 	 	 	 	 	 	 	 	 	 	1581495921	7.66	14.19
12/02/2020 08:25:22	120220	12022020	082522	184.07	12.825730	-57.128300	184.21	0.590	0.710	2.680	184.14	-0.60	3.10	 	 	 	 	 	 	 	 	 	 	 	 	 	 	 	 	 	 	1581495922	6.78	12.56
12/02/2020 08:25:23	120220	12022020	082523	184.52	12.825700	-57.128300	184.67	0.030	1.100	1.800	184.62	-0.30	2.20	 	 	 	 	 	 	 	 	 	 	 	 	 	 	 	 	 	 	1581495923	6.47	11.98
12/02/2020 08:25:24	120220	12022020	082524	184.90	12.825668	-57.128300	185.11	-0.450	0.590	1.350	184.99	-0.80	1.80	 	 	 	 	 	 	 	 	 	 	 	 	 	 	 	 	 	 	1581495924	6.99	12.95
12/02/2020 08:25:25	120220	12022020	082525	185.40	12.825632	-57.128307	185.50	-0.580	-0.240	1.230	185.46	-1.60	1.70	 	 	 	 	 	 	 	 	 	 	 	 	 	 	 	 	 	 	1581495925	7.72	14.30
12/02/2020 08:25:26	120220	12022020	082526	185.63	12.825597	-57.128315	185.74	-0.410	-0.810	1.460	185.65	-2.20	1.90	 	 	 	 	 	 	 	 	 	 	 	 	 	 	 	 	 	 	1581495926	7.85	14.54
12/02/2020 08:25:27	120220	12022020	082527	185.44	12.825563	-57.128325	185.48	-0.130	-1.170	2.010	185.33	-2.50	2.50	 	 	 	 	 	 	 	 	 	 	 	 	 	 	 	 	 	 	1581495927	7.48	13.85
12/02/2020 08:25:28	120220	12022020	082528	184.63	12.825530	-57.128333	184.64	0.120	-1.450	2.770	184.45	-2.80	3.30	 	 	 	 	 	 	 	 	 	 	 	 	 	 	 	 	 	 	1581495928	7.46	13.82
12/02/2020 08:25:29	120220	12022020	082529	183.76	12.825495	-57.128343	183.80	0.170	-1.290	3.490	183.64	-2.60	4.00	 	 	 	 	 	 	 	 	 	 	 	 	 	 	 	 	 	 	1581495929	7.84	14.52
12/02/2020 08:25:30	120220	12022020	082530	183.40	12.825460	-57.128353	183.50	0.130	-0.330	3.670	183.40	-1.60	4.10	 	 	 	 	 	 	 	 	 	 	 	 	 	 	 	 	 	 	1581495930	7.73	14.32
12/02/2020 08:25:31	120220	12022020	082531	183.57	12.825428	-57.128362	183.69	0.090	0.960	3.160	183.65	-0.40	3.60	 	 	 	 	 	 	 	 	 	 	 	 	 	 	 	 	 	 	1581495931	6.91	12.80
12/02/2020 08:25:32	120220	12022020	082532	184.06	12.825400	-57.128365	184.20	0.070	1.540	2.170	184.19	0.20	2.60	 	 	 	 	 	 	 	 	 	 	 	 	 	 	 	 	 	 	1581495932	6.42	11.89
12/02/2020 08:25:33	120220	12022020	082533	184.76	12.825367	-57.128365	184.90	0.050	1.100	1.230	184.90	-0.30	1.70	 	 	 	 	 	 	 	 	 	 	 	 	 	 	 	 	 	 	1581495933	6.92	12.82
12/02/2020 08:25:34	120220	12022020	082534	185.35	12.825332	-57.128367	185.45	0.060	0.130	0.780	185.42	-1.30	1.20	 	 	 	 	 	 	 	 	 	 	 	 	 	 	 	 	 	 	1581495934	7.57	14.02
12/02/2020 08:25:35	120220	12022020	082535	185.52	12.825297	-57.128372	185.58	0.150	-0.830	0.800	185.50	-2.20	1.30	 	 	 	 	 	 	 	 	 	 	 	 	 	 	 	 	 	 	1581495935	7.73	14.32
12/02/2020 08:25:36	120220	12022020	082536	185.25	12.825262	-57.128377	185.28	0.190	-1.540	1.330	185.15	-2.90	1.80	 	 	 	 	 	 	 	 	 	 	 	 	 	 	 	 	 	 	1581495936	7.64	14.15
12/02/2020 08:25:37	120220	12022020	082537	184.70	12.825227	-57.128383	184.74	-0.020	-1.780	2.340	184.57	-3.10	2.80	 	 	 	 	 	 	 	 	 	 	 	 	 	 	 	 	 	 	1581495937	7.58	14.04
12/02/2020 08:25:38	120220	12022020	082538	184.18	12.825193	-57.128395	184.11	-0.360	-1.390	3.310	184.06	-2.70	3.80	 	 	 	 	 	 	 	 	 	 	 	 	 	 	 	 	 	 	1581495938	7.57	14.02
12/02/2020 08:25:39	120220	12022020	082539	183.53	12.825162	-57.128408	183.62	-0.550	-0.560	3.650	183.47	-1.90	4.10	 	 	 	 	 	 	 	 	 	 	 	 	 	 	 	 	 	 	1581495939	7.42	13.74
12/02/2020 08:25:40	120220	12022020	082540	183.42	12.825130	-57.128418	183.57	-0.510	0.310	3.260	183.44	-1.00	3.70	 	 	 	 	 	 	 	 	 	 	 	 	 	 	 	 	 	 	1581495940	7.16	13.26
12/02/2020 08:25:41	120220	12022020	082541	183.82	12.825098	-57.128427	183.96	-0.280	0.920	2.370	183.93	-0.40	2.80	 	 	 	 	 	 	 	 	 	 	 	 	 	 	 	 	 	 	1581495941	7.04	13.04
12/02/2020 08:25:42	120220	12022020	082542	184.51	12.825065	-57.128430	184.65	0.020	1.120	1.190	184.66	-0.30	1.60	 	 	 	 	 	 	 	 	 	 	 	 	 	 	 	 	 	 	1581495942	7.05	13.06
12/02/2020 08:25:43	120220	12022020	082543	185.15	12.825032	-57.128430	185.24	0.340	0.720	0.200	185.24	-0.70	0.60	 	 	 	 	 	 	 	 	 	 	 	 	 	 	 	 	 	 	1581495943	7.19	13.32
12/02/2020 08:25:44	120220	12022020	082544	185.47	12.824997	-57.128428	185.52	0.640	-0.170	-0.150	185.49	-1.60	0.30	 	 	 	 	 	 	 	 	 	 	 	 	 	 	 	 	 	 	1581495944	7.59	14.06
12/02/2020 08:25:45	120220	12022020	082545	185.53	12.824960	-57.128428	185.58	0.680	-0.900	0.130	185.52	-2.30	0.60	 	 	 	 	 	 	 	 	 	 	 	 	 	 	 	 	 	 	1581495945	7.88	14.59
12/02/2020 08:25:46	120220	12022020	082546	185.38	12.824925	-57.128433	185.41	0.400	-1.140	0.870	185.31	-2.50	1.40	 	 	 	 	 	 	 	 	 	 	 	 	 	 	 	 	 	 	1581495946	7.55	13.98
12/02/2020 08:25:47	120220	12022020	082547	184.93	12.824892	-57.128440	184.95	-0.030	-1.130	1.970	184.80	-2.50	2.50	 	 	 	 	 	 	 	 	 	 	 	 	 	 	 	 	 	 	1581495947	7.19	13.32
12/02/2020 08:25:48	120220	12022020	082548	184.27	12.824860	-57.128452	184.31	-0.390	-1.080	3.230	184.14	-2.40	3.70	 	 	 	 	 	 	 	 	 	 	 	 	 	 	 	 	 	 	1581495948	7.38	13.67
12/02/2020 08:25:49	120220	12022020	082549	183.73	12.824827	-57.128465	183.83	-0.660	-0.760	4.120	183.67	-2.10	4.60	 	 	 	 	 	 	 	 	 	 	 	 	 	 	 	 	 	 	1581495949	7.85	14.54
12/02/2020 08:25:50	120220	12022020	082550	183.57	12.824792	-57.128480	183.72	-0.840	0.000	4.170	183.57	-1.30	4.60	 	 	 	 	 	 	 	 	 	 	 	 	 	 	 	 	 	 	1581495950	7.80	14.45
12/02/2020 08:25:51	120220	12022020	082551	183.87	12.824762	-57.128490	184.04	-0.860	0.930	3.410	183.98	-0.40	3.80	 	 	 	 	 	 	 	 	 	 	 	 	 	 	 	 	 	 	1581495951	7.16	13.26
12/02/2020 08:25:52	120220	12022020	082552	184.36	12.824730	-57.128498	184.62	-0.520	1.270	2.090	184.49	-0.10	2.50	 	 	 	 	 	 	 	 	 	 	 	 	 	 	 	 	 	 	1581495952	6.64	12.30
12/02/2020 08:25:53	120220	12022020	082553	185.07	12.824698	-57.128498	185.16	0.260	0.610	0.590	185.16	-0.80	1.00	 	 	 	 	 	 	 	 	 	 	 	 	 	 	 	 	 	 	1581495953	6.97	12.91
12/02/2020 08:25:54	120220	12022020	082554	185.49	12.824662	-57.128497	185.53	1.120	-0.530	-0.480	185.53	-2.00	-0.00	 	 	 	 	 	 	 	 	 	 	 	 	 	 	 	 	 	 	1581495954	7.94	14.70
12/02/2020 08:25:55	120220	12022020	082555	185.56	12.824623	-57.128493	185.57	1.480	-1.360	-0.620	185.53	-2.80	-0.10	 	 	 	 	 	 	 	 	 	 	 	 	 	 	 	 	 	 	1581495955	8.34	15.45
12/02/2020 08:25:56	120220	12022020	082556	185.35	12.824587	-57.128493	185.37	1.060	-1.330	0.120	185.30	-2.70	0.60	 	 	 	 	 	 	 	 	 	 	 	 	 	 	 	 	 	 	1581495956	7.85	14.54
12/02/2020 08:25:57	120220	12022020	082557	185.14	12.824553	-57.128498	185.18	0.070	-0.560	1.240	185.11	-1.90	1.80	 	 	 	 	 	 	 	 	 	 	 	 	 	 	 	 	 	 	1581495957	7.03	13.02
12/02/2020 08:25:58	120220	12022020	082558	185.07	12.824525	-57.128508	185.15	-0.930	0.220	2.410	185.06	-1.10	2.90	 	 	 	 	 	 	 	 	 	 	 	 	 	 	 	 	 	 	1581495958	6.61	12.24
12/02/2020 08:25:59	120220	12022020	082559	185.03	12.824497	-57.128523	185.12	-1.320	0.310	3.270	185.01	-1.10	3.70	 	 	 	 	 	 	 	 	 	 	 	 	 	 	 	 	 	 	1581495959	7.03	13.02
12/02/2020 08:26:00	120220	12022020	082600	184.95	12.824463	-57.128540	185.04	-0.870	-0.180	3.430	184.95	-1.60	3.90	 	 	 	 	 	 	 	 	 	 	 	 	 	 	 	 	 	 	1581495960	7.89	14.61
12/02/2020 08:26:01	120220	12022020	082601	185.01	12.824427	-57.128552	185.11	-0.020	-0.520	2.870	185.06	-1.90	3.30	1015.10	26.20	26.20	20.90	20.90	-1.0	72.0	72.0	392.0	25.7	276.00	9.40	78.00	9.70	16	9769.0	27.5	27.4	1581495961	8.26	15.30
12/02/2020 08:26:02	120220	12022020	082602	185.30	12.824390	-57.128555	185.39	0.550	-0.400	2.020	185.36	-1.80	2.40	 	 	 	 	 	 	 	 	 	 	 	 	 	 	 	 	 	 	1581495962	7.83	14.50
12/02/2020 08:26:03	120220	12022020	082603	185.55	12.824357	-57.128555	185.61	0.520	-0.190	1.280	185.57	-1.60	1.70	 	 	 	 	 	 	 	 	 	 	 	 	 	 	 	 	 	 	1581495963	7.23	13.39
12/02/2020 08:26:04	120220	12022020	082604	185.53	12.824323	-57.128557	185.56	0.170	-0.230	1.010	185.49	-1.60	1.50	 	 	 	 	 	 	 	 	 	 	 	 	 	 	 	 	 	 	1581495964	7.08	13.11
12/02/2020 08:26:05	120220	12022020	082605	185.26	12.824290	-57.128560	185.29	-0.090	-0.330	1.160	185.22	-1.70	1.60	 	 	 	 	 	 	 	 	 	 	 	 	 	 	 	 	 	 	1581495965	7.36	13.63
12/02/2020 08:26:06	120220	12022020	082606	185.15	12.824255	-57.128567	185.22	-0.130	-0.060	1.360	185.18	-1.40	1.80	 	 	 	 	 	 	 	 	 	 	 	 	 	 	 	 	 	 	1581495966	7.49	13.87
12/02/2020 08:26:07	120220	12022020	082607	185.44	12.824223	-57.128575	185.54	-0.120	0.360	1.330	185.53	-1.00	1.80	 	 	 	 	 	 	 	 	 	 	 	 	 	 	 	 	 	 	1581495967	7.11	13.17
12/02/2020 08:26:08	120220	12022020	082608	185.85	12.824192	-57.128582	185.93	-0.120	0.400	1.230	185.90	-1.00	1.70	 	 	 	 	 	 	 	 	 	 	 	 	 	 	 	 	 	 	1581495968	6.84	12.67
12/02/2020 08:26:09	120220	12022020	082609	186.00	12.824160	-57.128588	186.06	-0.030	-0.040	1.330	185.99	-1.40	1.80	 	 	 	 	 	 	 	 	 	 	 	 	 	 	 	 	 	 	1581495969	7.12	13.19
12/02/2020 08:26:10	120220	12022020	082610	185.87	12.824125	-57.128595	185.91	0.230	-0.600	1.640	185.81	-2.00	2.10	 	 	 	 	 	 	 	 	 	 	 	 	 	 	 	 	 	 	1581495970	7.60	14.08
12/02/2020 08:26:11	120220	12022020	082611	185.48	12.824090	-57.128602	185.52	0.520	-0.960	1.980	185.41	-2.30	2.40	 	 	 	 	 	 	 	 	 	 	 	 	 	 	 	 	 	 	1581495971	7.75	14.35
12/02/2020 08:26:12	120220	12022020	082612	185.24	12.824055	-57.128608	185.32	0.550	-0.840	2.100	185.24	-2.20	2.60	 	 	 	 	 	 	 	 	 	 	 	 	 	 	 	 	 	 	1581495972	7.64	14.15
12/02/2020 08:26:13	120220	12022020	082613	185.26	12.824022	-57.128613	185.35	0.230	-0.360	2.040	185.26	-1.70	2.50	 	 	 	 	 	 	 	 	 	 	 	 	 	 	 	 	 	 	1581495973	7.18	13.30
12/02/2020 08:26:14	120220	12022020	082614	185.19	12.823990	-57.128618	185.20	-0.150	-0.180	2.050	185.14	-1.60	2.50	 	 	 	 	 	 	 	 	 	 	 	 	 	 	 	 	 	 	1581495974	6.79	12.58
12/02/2020 08:26:15	120220	12022020	082615	184.84	12.823957	-57.128623	184.91	-0.400	-0.470	2.200	184.80	-1.90	2.60	 	 	 	 	 	 	 	 	 	 	 	 	 	 	 	 	 	 	1581495975	7.32	13.56
12/02/2020 08:26:16	120220	12022020	082616	184.79	12.823920	-57.128632	184.92	-0.550	-0.560	2.370	184.80	-1.90	2.80	 	 	 	 	 	 	 	 	 	 	 	 	 	 	 	 	 	 	1581495976	8.02	14.85
12/02/2020 08:26:17	120220	12022020	082617	185.07	12.823885	-57.128642	185.20	-0.630	0.020	2.320	185.13	-1.30	2.70	 	 	 	 	 	 	 	 	 	 	 	 	 	 	 	 	 	 	1581495977	7.83	14.50
12/02/2020 08:26:18	120220	12022020	082618	185.37	12.823853	-57.128652	185.49	-0.520	0.720	2.030	185.43	-0.60	2.50	 	 	 	 	 	 	 	 	 	 	 	 	 	 	 	 	 	 	1581495978	6.97	12.91
12/02/2020 08:26:19	120220	12022020	082619	185.65	12.823823	-57.128658	185.75	-0.090	0.770	1.650	185.69	-0.60	2.10	 	 	 	 	 	 	 	 	 	 	 	 	 	 	 	 	 	 	1581495979	6.68	12.37
12/02/2020 08:26:20	120220	12022020	082620	185.76	12.823790	-57.128662	185.83	0.520	-0.010	1.480	185.75	-1.40	1.90	 	 	 	 	 	 	 	 	 	 	 	 	 	 	 	 	 	 	1581495980	7.27	13.46
12/02/2020 08:26:21	120220	12022020	082621	185.62	12.823753	-57.128665	185.68	0.940	-0.950	1.560	185.57	-2.30	2.00	 	 	 	 	 	 	 	 	 	 	 	 	 	 	 	 	 	 	1581495981	8.07	14.95
12/02/2020 08:26:22	120220	12022020	082622	185.37	12.823715	-57.128670	185.44	0.850	-1.270	1.730	185.35	-2.60	2.20	 	 	 	 	 	 	 	 	 	 	 	 	 	 	 	 	 	 	1581495982	8.21	15.20
12/02/2020 08:26:23	120220	12022020	082623	185.43	12.823680	-57.128673	185.55	0.250	-0.570	1.740	185.50	-1.90	2.20	 	 	 	 	 	 	 	 	 	 	 	 	 	 	 	 	 	 	1581495983	7.62	14.11
12/02/2020 08:26:24	120220	12022020	082624	185.86	12.823650	-57.128680	185.99	-0.450	0.470	1.590	185.95	-0.90	2.00	 	 	 	 	 	 	 	 	 	 	 	 	 	 	 	 	 	 	1581495984	6.55	12.13
12/02/2020 08:26:25	120220	12022020	082625	186.12	12.823622	-57.128685	186.20	-0.720	0.580	1.730	186.11	-0.80	2.20	 	 	 	 	 	 	 	 	 	 	 	 	 	 	 	 	 	 	1581495985	6.15	11.39
12/02/2020 08:26:26	120220	12022020	082626	185.91	12.823588	-57.128693	185.97	-0.400	-0.430	2.170	185.84	-1.90	2.60	 	 	 	 	 	 	 	 	 	 	 	 	 	 	 	 	 	 	1581495986	7.29	13.50
12/02/2020 08:26:27	120220	12022020	082627	185.53	12.823550	-57.128703	185.60	0.040	-1.270	2.550	185.46	-2.60	3.00	 	 	 	 	 	 	 	 	 	 	 	 	 	 	 	 	 	 	1581495987	8.60	15.93
12/02/2020 08:26:28	120220	12022020	082628	185.28	12.823512	-57.128713	185.32	0.190	-0.990	2.620	185.24	-2.30	3.00	 	 	 	 	 	 	 	 	 	 	 	 	 	 	 	 	 	 	1581495988	8.43	15.61
12/02/2020 08:26:29	120220	12022020	082629	185.14	12.823480	-57.128722	185.25	0.070	-0.010	2.300	185.15	-1.30	2.70	 	 	 	 	 	 	 	 	 	 	 	 	 	 	 	 	 	 	1581495989	7.23	13.39
12/02/2020 08:26:30	120220	12022020	082630	185.27	12.823450	-57.128727	185.43	-0.040	0.750	1.670	185.32	-0.60	2.10	 	 	 	 	 	 	 	 	 	 	 	 	 	 	 	 	 	 	1581495990	6.51	12.06
12/02/2020 08:26:31	120220	12022020	082631	185.67	12.823418	-57.128730	185.76	0.080	0.740	0.910	185.74	-0.60	1.30	 	 	 	 	 	 	 	 	 	 	 	 	 	 	 	 	 	 	1581495991	6.70	12.41
12/02/2020 08:26:32	120220	12022020	082632	185.98	12.823383	-57.128732	186.06	0.340	0.090	0.470	186.03	-1.30	0.90	 	 	 	 	 	 	 	 	 	 	 	 	 	 	 	 	 	 	1581495992	7.44	13.78
12/02/2020 08:26:33	120220	12022020	082633	186.12	12.823347	-57.128733	186.19	0.470	-0.680	0.640	186.12	-2.10	1.10	 	 	 	 	 	 	 	 	 	 	 	 	 	 	 	 	 	 	1581495993	7.99	14.80
12/02/2020 08:26:34	120220	12022020	082634	186.10	12.823310	-57.128738	186.17	0.260	-1.140	1.280	186.08	-2.50	1.80	 	 	 	 	 	 	 	 	 	 	 	 	 	 	 	 	 	 	1581495994	8.01	14.83
12/02/2020 08:26:35	120220	12022020	082635	185.99	12.823275	-57.128747	186.08	-0.170	-1.160	2.120	185.97	-2.50	2.60	 	 	 	 	 	 	 	 	 	 	 	 	 	 	 	 	 	 	1581495995	7.72	14.30
12/02/2020 08:26:36	120220	12022020	082636	185.82	12.823242	-57.128758	185.91	-0.540	-0.810	2.800	185.77	-2.10	3.30	 	 	 	 	 	 	 	 	 	 	 	 	 	 	 	 	 	 	1581495996	7.48	13.85
12/02/2020 08:26:37	120220	12022020	082637	185.59	12.823210	-57.128768	185.68	-0.680	-0.290	3.260	185.53	-1.60	3.70	 	 	 	 	 	 	 	 	 	 	 	 	 	 	 	 	 	 	1581495997	7.33	13.58
12/02/2020 08:26:38	120220	12022020	082638	185.26	12.823177	-57.128780	185.35	-0.500	0.080	3.490	185.19	-1.30	3.90	 	 	 	 	 	 	 	 	 	 	 	 	 	 	 	 	 	 	1581495998	7.31	13.54
12/02/2020 08:26:39	120220	12022020	082639	184.95	12.823143	-57.128790	185.04	-0.120	0.300	3.370	184.91	-1.10	3.80	 	 	 	 	 	 	 	 	 	 	 	 	 	 	 	 	 	 	1581495999	7.54	13.96
12/02/2020 08:26:40	120220	12022020	082640	184.82	12.823108	-57.128797	184.93	0.280	0.450	2.990	184.82	-0.90	3.40	 	 	 	 	 	 	 	 	 	 	 	 	 	 	 	 	 	 	1581496000	7.63	14.13
12/02/2020 08:26:41	120220	12022020	082641	185.03	12.823073	-57.128800	185.18	0.540	0.530	2.200	185.14	-0.80	2.60	 	 	 	 	 	 	 	 	 	 	 	 	 	 	 	 	 	 	1581496001	7.54	13.96
12/02/2020 08:26:42	120220	12022020	082642	185.60	12.823040	-57.128802	185.94	0.600	0.520	0.970	185.79	-0.90	1.40	 	 	 	 	 	 	 	 	 	 	 	 	 	 	 	 	 	 	1581496002	7.39	13.69
12/02/2020 08:26:43	120220	12022020	082643	186.76	12.823007	-57.128800	186.89	0.480	0.130	0.030	186.93	-1.30	0.50	 	 	 	 	 	 	 	 	 	 	 	 	 	 	 	 	 	 	1581496003	7.23	13.39
12/02/2020 08:26:44	120220	12022020	082644	187.44	12.822972	-57.128800	187.53	0.260	-0.760	0.080	187.50	-2.20	0.60	 	 	 	 	 	 	 	 	 	 	 	 	 	 	 	 	 	 	1581496004	7.31	13.54
12/02/2020 08:26:45	120220	12022020	082645	187.45	12.822937	-57.128805	187.50	-0.040	-1.730	1.080	187.36	-3.10	1.60	 	 	 	 	 	 	 	 	 	 	 	 	 	 	 	 	 	 	1581496005	7.68	14.22
12/02/2020 08:26:46	120220	12022020	082646	186.74	12.822900	-57.128817	186.76	-0.310	-2.230	2.580	186.53	-3.60	3.10	 	 	 	 	 	 	 	 	 	 	 	 	 	 	 	 	 	 	1581496006	8.05	14.91
12/02/2020 08:26:47	120220	12022020	082647	185.58	12.822867	-57.128833	185.62	-0.370	-1.990	4.050	185.32	-3.30	4.50	 	 	 	 	 	 	 	 	 	 	 	 	 	 	 	 	 	 	1581496007	8.18	15.15
12/02/2020 08:26:48	120220	12022020	082648	184.52	12.822832	-57.128850	184.62	-0.230	-0.960	4.790	184.38	-2.20	5.20	 	 	 	 	 	 	 	 	 	 	 	 	 	 	 	 	 	 	1581496008	8.12	15.04
12/02/2020 08:26:49	120220	12022020	082649	184.29	12.822800	-57.128862	184.48	-0.110	0.670	4.370	184.37	-0.60	4.70	 	 	 	 	 	 	 	 	 	 	 	 	 	 	 	 	 	 	1581496009	7.51	13.91
12/02/2020 08:26:50	120220	12022020	082650	185.02	12.822768	-57.128867	185.26	-0.210	1.970	3.010	185.25	0.70	3.40	 	 	 	 	 	 	 	 	 	 	 	 	 	 	 	 	 	 	1581496010	6.68	12.37
12/02/2020 08:26:51	120220	12022020	082651	186.19	12.822738	-57.128867	186.38	-0.410	2.030	1.540	186.40	0.60	1.90	 	 	 	 	 	 	 	 	 	 	 	 	 	 	 	 	 	 	1581496011	6.68	12.37
12/02/2020 08:26:52	120220	12022020	082652	187.01	12.822703	-57.128867	187.12	-0.330	0.780	0.780	187.10	-0.70	1.20	 	 	 	 	 	 	 	 	 	 	 	 	 	 	 	 	 	 	1581496012	7.48	13.85
12/02/2020 08:26:53	120220	12022020	082653	187.24	12.822663	-57.128870	187.31	0.140	-0.860	0.680	187.22	-2.30	1.20	 	 	 	 	 	 	 	 	 	 	 	 	 	 	 	 	 	 	1581496013	8.40	15.56
12/02/2020 08:26:54	120220	12022020	082654	187.05	12.822625	-57.128877	187.13	0.580	-1.670	1.040	186.99	-3.00	1.50	 	 	 	 	 	 	 	 	 	 	 	 	 	 	 	 	 	 	1581496014	8.55	15.83
12/02/2020 08:26:55	120220	12022020	082655	186.67	12.822590	-57.128883	186.75	0.590	-1.500	1.650	186.59	-2.80	2.10	 	 	 	 	 	 	 	 	 	 	 	 	 	 	 	 	 	 	1581496015	7.67	14.20
12/02/2020 08:26:56	120220	12022020	082656	186.27	12.822558	-57.128890	186.37	0.180	-0.870	2.260	186.22	-2.20	2.70	 	 	 	 	 	 	 	 	 	 	 	 	 	 	 	 	 	 	1581496016	6.89	12.76
12/02/2020 08:26:57	120220	12022020	082657	186.19	12.822528	-57.128900	186.35	-0.340	-0.210	2.620	186.22	-1.50	3.10	 	 	 	 	 	 	 	 	 	 	 	 	 	 	 	 	 	 	1581496017	6.83	12.65
12/02/2020 08:26:58	120220	12022020	082658	186.42	12.822498	-57.128912	186.58	-0.500	0.250	2.500	186.46	-1.10	2.90	 	 	 	 	 	 	 	 	 	 	 	 	 	 	 	 	 	 	1581496018	7.01	12.98
12/02/2020 08:26:59	120220	12022020	082659	186.57	12.822465	-57.128922	186.69	-0.130	0.220	2.040	186.58	-1.10	2.40	 	 	 	 	 	 	 	 	 	 	 	 	 	 	 	 	 	 	1581496019	7.16	13.26
12/02/2020 08:27:00	120220	12022020	082700	186.53	12.822430	-57.128928	186.63	0.400	-0.270	1.710	186.51	-1.60	2.10	 	 	 	 	 	 	 	 	 	 	 	 	 	 	 	 	 	 	1581496020	7.65	14.17
12/02/2020 08:27:01	120220	12022020	082701	186.40	12.822393	-57.128932	186.48	0.600	-0.670	1.640	186.37	-2.00	2.10	1015.00	26.20	26.20	21.10	21.10	-1.0	73.0	73.0	392.0	25.7	279.00	9.80	82.00	10.00	16	9855.0	27.4	27.4	1581496021	8.15	15.09
12/02/2020 08:27:02	120220	12022020	082702	186.36	12.822355	-57.128937	186.47	0.270	-0.470	1.600	186.38	-1.80	2.00	 	 	 	 	 	 	 	 	 	 	 	 	 	 	 	 	 	 	1581496022	8.05	14.91
12/02/2020 08:27:03	120220	12022020	082703	186.57	12.822322	-57.128942	186.70	-0.310	0.190	1.610	186.64	-1.10	2.00	 	 	 	 	 	 	 	 	 	 	 	 	 	 	 	 	 	 	1581496023	7.39	13.69
12/02/2020 08:27:04	120220	12022020	082704	186.88	12.822290	-57.128948	187.12	-0.660	0.700	1.550	186.98	-0.60	2.00	 	 	 	 	 	 	 	 	 	 	 	 	 	 	 	 	 	 	1581496024	6.86	12.70
12/02/2020 08:27:05	120220	12022020	082705	187.45	12.822258	-57.128957	187.59	-0.630	0.600	1.510	187.53	-0.80	1.90	 	 	 	 	 	 	 	 	 	 	 	 	 	 	 	 	 	 	1581496025	6.92	12.82
12/02/2020 08:27:06	120220	12022020	082706	187.69	12.822225	-57.128963	187.80	-0.330	-0.130	1.730	187.70	-1.50	2.20	 	 	 	 	 	 	 	 	 	 	 	 	 	 	 	 	 	 	1581496026	7.40	13.70
12/02/2020 08:27:07	120220	12022020	082707	187.43	12.822190	-57.128973	187.49	0.110	-1.130	2.230	187.31	-2.50	2.70	 	 	 	 	 	 	 	 	 	 	 	 	 	 	 	 	 	 	1581496027	8.00	14.82
12/02/2020 08:27:08	120220	12022020	082708	186.75	12.822152	-57.128985	186.81	0.540	-1.680	2.580	186.60	-3.00	3.00	 	 	 	 	 	 	 	 	 	 	 	 	 	 	 	 	 	 	1581496028	8.36	15.48
12/02/2020 08:27:09	120220	12022020	082709	186.05	12.822115	-57.128992	186.14	0.660	-1.300	2.640	185.94	-2.60	3.10	 	 	 	 	 	 	 	 	 	 	 	 	 	 	 	 	 	 	1581496029	8.04	14.89
12/02/2020 08:27:10	120220	12022020	082710	185.62	12.822082	-57.128997	185.73	0.340	-0.310	2.540	185.57	-1.60	3.00	 	 	 	 	 	 	 	 	 	 	 	 	 	 	 	 	 	 	1581496030	7.25	13.43
12/02/2020 08:27:11	120220	12022020	082711	185.44	12.822052	-57.129003	185.56	-0.130	0.540	2.290	185.44	-0.80	2.70	 	 	 	 	 	 	 	 	 	 	 	 	 	 	 	 	 	 	1581496031	6.79	12.58
12/02/2020 08:27:12	120220	12022020	082712	185.62	12.822018	-57.129008	185.77	-0.400	0.970	1.850	185.70	-0.40	2.30	 	 	 	 	 	 	 	 	 	 	 	 	 	 	 	 	 	 	1581496032	7.03	13.02
12/02/2020 08:27:13	120220	12022020	082713	186.14	12.821985	-57.129015	186.29	-0.350	0.860	1.440	186.26	-0.50	1.90	 	 	 	 	 	 	 	 	 	 	 	 	 	 	 	 	 	 	1581496033	7.36	13.63
12/02/2020 08:27:14	120220	12022020	082714	186.67	12.821950	-57.129022	186.80	-0.090	0.220	1.240	186.75	-1.20	1.70	 	 	 	 	 	 	 	 	 	 	 	 	 	 	 	 	 	 	1581496034	7.66	14.19
12/02/2020 08:27:15	120220	12022020	082715	186.98	12.821913	-57.129028	187.10	0.150	-0.610	1.240	187.02	-2.00	1.70	 	 	 	 	 	 	 	 	 	 	 	 	 	 	 	 	 	 	1581496035	8.00	14.82
12/02/2020 08:27:16	120220	12022020	082716	187.11	12.821877	-57.129037	187.22	0.180	-1.060	1.400	187.11	-2.40	1.90	 	 	 	 	 	 	 	 	 	 	 	 	 	 	 	 	 	 	1581496036	8.10	15.00
12/02/2020 08:27:17	120220	12022020	082717	187.05	12.821842	-57.129043	187.15	0.040	-0.890	1.760	187.03	-2.20	2.20	 	 	 	 	 	 	 	 	 	 	 	 	 	 	 	 	 	 	1581496037	7.66	14.19
12/02/2020 08:27:18	120220	12022020	082718	186.93	12.821810	-57.129052	187.00	-0.120	-0.410	2.140	186.90	-1.70	2.60	 	 	 	 	 	 	 	 	 	 	 	 	 	 	 	 	 	 	1581496038	7.11	13.17
12/02/2020 08:27:19	120220	12022020	082719	186.65	12.821778	-57.129058	186.74	-0.170	-0.190	2.450	186.59	-1.50	2.90	 	 	 	 	 	 	 	 	 	 	 	 	 	 	 	 	 	 	1581496039	6.90	12.78
12/02/2020 08:27:20	120220	12022020	082720	186.41	12.821745	-57.129067	186.43	-0.020	-0.380	2.520	186.35	-1.70	2.90	 	 	 	 	 	 	 	 	 	 	 	 	 	 	 	 	 	 	1581496040	7.37	13.65
12/02/2020 08:27:21	120220	12022020	082721	186.10	12.821708	-57.129073	186.19	0.250	-0.560	2.300	186.07	-1.90	2.70	 	 	 	 	 	 	 	 	 	 	 	 	 	 	 	 	 	 	1581496041	7.96	14.74
12/02/2020 08:27:22	120220	12022020	082722	186.11	12.821672	-57.129080	186.23	0.400	-0.280	1.790	186.16	-1.60	2.20	 	 	 	 	 	 	 	 	 	 	 	 	 	 	 	 	 	 	1581496042	7.99	14.80
12/02/2020 08:27:23	120220	12022020	082723	186.49	12.821638	-57.129082	186.63	0.210	0.280	1.180	186.59	-1.00	1.60	 	 	 	 	 	 	 	 	 	 	 	 	 	 	 	 	 	 	1581496043	7.46	13.82
12/02/2020 08:27:24	120220	12022020	082724	186.91	12.821605	-57.129085	187.01	-0.250	0.520	1.000	186.96	-0.80	1.50	 	 	 	 	 	 	 	 	 	 	 	 	 	 	 	 	 	 	1581496044	6.98	12.93
12/02/2020 08:27:25	120220	12022020	082725	186.96	12.821572	-57.129092	187.01	-0.590	0.090	1.510	186.91	-1.30	2.00	 	 	 	 	 	 	 	 	 	 	 	 	 	 	 	 	 	 	1581496045	7.17	13.28
12/02/2020 08:27:26	120220	12022020	082726	186.58	12.821537	-57.129103	186.63	-0.490	-0.730	2.400	186.48	-2.10	2.90	 	 	 	 	 	 	 	 	 	 	 	 	 	 	 	 	 	 	1581496046	7.98	14.78
12/02/2020 08:27:27	120220	12022020	082727	186.22	12.821500	-57.129117	186.33	-0.120	-1.160	3.000	186.20	-2.50	3.40	 	 	 	 	 	 	 	 	 	 	 	 	 	 	 	 	 	 	1581496047	8.59	15.91
12/02/2020 08:27:28	120220	12022020	082728	186.22	12.821463	-57.129128	186.37	0.080	-0.700	2.980	186.26	-2.00	3.40	 	 	 	 	 	 	 	 	 	 	 	 	 	 	 	 	 	 	1581496048	8.19	15.17
12/02/2020 08:27:29	120220	12022020	082729	186.46	12.821432	-57.129137	186.61	0.040	0.200	2.430	186.51	-1.10	2.80	 	 	 	 	 	 	 	 	 	 	 	 	 	 	 	 	 	 	1581496049	7.16	13.26
12/02/2020 08:27:30	120220	12022020	082730	186.72	12.821400	-57.129140	186.95	0.020	0.750	1.490	186.80	-0.60	1.90	 	 	 	 	 	 	 	 	 	 	 	 	 	 	 	 	 	 	1581496050	6.66	12.33
12/02/2020 08:27:31	120220	12022020	082731	187.29	12.821368	-57.129142	187.42	0.160	0.680	0.470	187.38	-0.70	0.90	 	 	 	 	 	 	 	 	 	 	 	 	 	 	 	 	 	 	1581496051	6.99	12.95
12/02/2020 08:27:32	120220	12022020	082732	187.69	12.821333	-57.129143	187.78	0.370	0.140	0.040	187.73	-1.20	0.50	 	 	 	 	 	 	 	 	 	 	 	 	 	 	 	 	 	 	1581496052	7.46	13.82
12/02/2020 08:27:33	120220	12022020	082733	187.73	12.821297	-57.129145	187.79	0.480	-0.570	0.360	187.70	-1.90	0.90	 	 	 	 	 	 	 	 	 	 	 	 	 	 	 	 	 	 	1581496053	7.72	14.30
12/02/2020 08:27:34	120220	12022020	082734	187.40	12.821262	-57.129152	187.45	0.380	-1.170	1.240	187.30	-2.50	1.70	 	 	 	 	 	 	 	 	 	 	 	 	 	 	 	 	 	 	1581496054	7.83	14.50
12/02/2020 08:27:35	120220	12022020	082735	186.77	12.821227	-57.129162	186.83	0.140	-1.440	2.430	186.63	-2.80	2.90	 	 	 	 	 	 	 	 	 	 	 	 	 	 	 	 	 	 	1581496055	7.85	14.54
12/02/2020 08:27:36	120220	12022020	082736	186.07	12.821192	-57.129175	186.16	-0.100	-1.310	3.390	185.94	-2.60	3.90	 	 	 	 	 	 	 	 	 	 	 	 	 	 	 	 	 	 	1581496056	7.91	14.65
12/02/2020 08:27:37	120220	12022020	082737	185.64	12.821157	-57.129188	185.78	-0.270	-0.800	3.640	185.62	-2.10	4.10	 	 	 	 	 	 	 	 	 	 	 	 	 	 	 	 	 	 	1581496057	7.88	14.59
12/02/2020 08:27:38	120220	12022020	082738	185.71	12.821123	-57.129198	185.87	-0.420	0.030	3.170	185.78	-1.20	3.60	 	 	 	 	 	 	 	 	 	 	 	 	 	 	 	 	 	 	1581496058	7.66	14.19
12/02/2020 08:27:39	120220	12022020	082739	186.16	12.821090	-57.129207	186.35	-0.530	0.900	2.290	186.28	-0.40	2.70	 	 	 	 	 	 	 	 	 	 	 	 	 	 	 	 	 	 	1581496059	7.26	13.45
12/02/2020 08:27:40	120220	12022020	082740	186.74	12.821058	-57.129210	186.90	-0.520	1.280	1.400	186.85	-0.10	1.80	 	 	 	 	 	 	 	 	 	 	 	 	 	 	 	 	 	 	1581496060	6.98	12.93
12/02/2020 08:27:41	120220	12022020	082741	187.19	12.821025	-57.129213	187.30	-0.350	0.800	0.810	187.25	-0.60	1.30	 	 	 	 	 	 	 	 	 	 	 	 	 	 	 	 	 	 	1581496061	7.27	13.46
12/02/2020 08:27:42	120220	12022020	082742	187.37	12.820988	-57.129218	187.44	-0.060	-0.190	0.870	187.37	-1.60	1.40	 	 	 	 	 	 	 	 	 	 	 	 	 	 	 	 	 	 	1581496062	7.92	14.67
12/02/2020 08:27:43	120220	12022020	082743	187.26	12.820950	-57.129227	187.32	0.270	-1.000	1.410	187.20	-2.40	1.90	 	 	 	 	 	 	 	 	 	 	 	 	 	 	 	 	 	 	1581496063	8.27	15.32
12/02/2020 08:27:44	120220	12022020	082744	186.93	12.820915	-57.129237	187.00	0.590	-1.170	1.850	186.86	-2.50	2.30	 	 	 	 	 	 	 	 	 	 	 	 	 	 	 	 	 	 	1581496064	8.06	14.93
12/02/2020 08:27:45	120220	12022020	082745	186.59	12.820880	-57.129243	186.68	0.810	-0.750	1.870	186.54	-2.10	2.30	 	 	 	 	 	 	 	 	 	 	 	 	 	 	 	 	 	 	1581496065	7.45	13.80
12/02/2020 08:27:46	120220	12022020	082746	186.42	12.820848	-57.129248	186.52	0.750	-0.210	1.590	186.42	-1.50	2.00	 	 	 	 	 	 	 	 	 	 	 	 	 	 	 	 	 	 	1581496066	6.95	12.87
12/02/2020 08:27:47	120220	12022020	082747	186.47	12.820817	-57.129248	186.58	0.310	-0.030	1.480	186.49	-1.40	1.90	 	 	 	 	 	 	 	 	 	 	 	 	 	 	 	 	 	 	1581496067	6.97	12.91
12/02/2020 08:27:48	120220	12022020	082748	186.51	12.820782	-57.129253	186.60	-0.370	-0.270	1.980	186.47	-1.60	2.50	 	 	 	 	 	 	 	 	 	 	 	 	 	 	 	 	 	 	1581496068	7.36	13.63
12/02/2020 08:27:49	120220	12022020	082749	186.18	12.820747	-57.129265	186.26	-0.940	-0.700	3.030	186.07	-2.10	3.50	 	 	 	 	 	 	 	 	 	 	 	 	 	 	 	 	 	 	1581496069	7.93	14.69
12/02/2020 08:27:50	120220	12022020	082750	185.59	12.820710	-57.129282	185.70	-1.040	-0.910	4.050	185.48	-2.20	4.50	 	 	 	 	 	 	 	 	 	 	 	 	 	 	 	 	 	 	1581496070	8.55	15.83
12/02/2020 08:27:51	120220	12022020	082751	185.24	12.820675	-57.129300	185.40	-0.670	-0.430	4.290	185.23	-1.70	4.70	 	 	 	 	 	 	 	 	 	 	 	 	 	 	 	 	 	 	1581496071	8.64	16.00
12/02/2020 08:27:52	120220	12022020	082752	185.38	12.820642	-57.129313	185.58	-0.010	0.520	3.340	185.48	-0.80	3.70	 	 	 	 	 	 	 	 	 	 	 	 	 	 	 	 	 	 	1581496072	7.71	14.28
12/02/2020 08:27:53	120220	12022020	082753	186.03	12.820610	-57.129318	186.21	0.590	1.160	1.470	186.20	-0.20	1.80	 	 	 	 	 	 	 	 	 	 	 	 	 	 	 	 	 	 	1581496073	6.80	12.59
12/02/2020 08:27:54	120220	12022020	082754	186.92	12.820578	-57.129313	187.06	0.830	0.930	-0.230	187.09	-0.50	0.20	 	 	 	 	 	 	 	 	 	 	 	 	 	 	 	 	 	 	1581496074	7.08	13.11
12/02/2020 08:27:55	120220	12022020	082755	187.56	12.820542	-57.129307	187.62	0.690	-0.240	-0.860	187.60	-1.70	-0.40	 	 	 	 	 	 	 	 	 	 	 	 	 	 	 	 	 	 	1581496075	7.71	14.28
12/02/2020 08:27:56	120220	12022020	082756	187.44	12.820505	-57.129307	187.29	0.390	-1.900	-0.010	187.31	-3.30	0.50	 	 	 	 	 	 	 	 	 	 	 	 	 	 	 	 	 	 	1581496076	8.19	15.17
12/02/2020 08:27:57	120220	12022020	082757	186.12	12.820465	-57.129315	186.08	0.080	-2.940	2.080	185.82	-4.30	2.60	 	 	 	 	 	 	 	 	 	 	 	 	 	 	 	 	 	 	1581496077	8.78	16.26
12/02/2020 08:27:58	120220	12022020	082758	184.73	12.820427	-57.129333	184.79	-0.250	-2.320	4.210	184.52	-3.60	4.70	 	 	 	 	 	 	 	 	 	 	 	 	 	 	 	 	 	 	1581496078	8.97	16.61
12/02/2020 08:27:59	120220	12022020	082759	184.02	12.820393	-57.129353	184.19	-0.610	-0.310	5.180	184.00	-1.50	5.60	 	 	 	 	 	 	 	 	 	 	 	 	 	 	 	 	 	 	1581496079	8.13	15.06
12/02/2020 08:28:00	120220	12022020	082800	184.35	12.820367	-57.129368	184.61	-0.900	1.750	4.580	184.53	0.50	4.90	 	 	 	 	 	 	 	 	 	 	 	 	 	 	 	 	 	 	1581496080	6.80	12.59
12/02/2020 08:28:01	120220	12022020	082801	185.41	12.820340	-57.129378	185.64	-0.800	2.470	2.890	185.65	1.10	3.20	1015.10	26.10	26.10	20.60	20.80	-1.0	72.0	72.0	392.0	25.7	275.00	10.00	79.00	10.50	16	9270.0	27.4	27.4	1581496081	6.11	11.32
12/02/2020 08:28:02	120220	12022020	082802	186.47	12.820307	-57.129380	186.63	-0.210	1.480	1.050	186.64	0.00	1.40	 	 	 	 	 	 	 	 	 	 	 	 	 	 	 	 	 	 	1581496082	6.98	12.93
12/02/2020 08:28:03	120220	12022020	082803	187.10	12.820268	-57.129378	187.19	0.590	-0.360	-0.130	187.15	-1.80	0.30	 	 	 	 	 	 	 	 	 	 	 	 	 	 	 	 	 	 	1581496083	8.46	15.67
12/02/2020 08:28:04	120220	12022020	082804	187.14	12.820227	-57.129377	187.20	1.050	-1.830	-0.170	187.09	-3.20	0.30	 	 	 	 	 	 	 	 	 	 	 	 	 	 	 	 	 	 	1581496084	9.02	16.71
12/02/2020 08:28:05	120220	12022020	082805	186.76	12.820187	-57.129382	186.82	0.870	-2.160	0.650	186.67	-3.50	1.20	 	 	 	 	 	 	 	 	 	 	 	 	 	 	 	 	 	 	1581496085	8.45	15.65
12/02/2020 08:28:06	120220	12022020	082806	186.37	12.820153	-57.129390	186.47	0.160	-1.240	1.720	186.31	-2.50	2.20	 	 	 	 	 	 	 	 	 	 	 	 	 	 	 	 	 	 	1581496086	7.46	13.82
12/02/2020 08:28:07	120220	12022020	082807	186.16	12.820125	-57.129402	186.28	-0.590	0.070	2.620	186.15	-1.20	3.10	 	 	 	 	 	 	 	 	 	 	 	 	 	 	 	 	 	 	1581496087	6.60	12.22
12/02/2020 08:28:08	120220	12022020	082808	186.13	12.820097	-57.129415	186.26	-0.800	0.700	3.030	186.13	-0.60	3.50	 	 	 	 	 	 	 	 	 	 	 	 	 	 	 	 	 	 	1581496088	6.66	12.33
12/02/2020 08:28:09	120220	12022020	082809	186.26	12.820065	-57.129428	186.41	-0.350	0.570	2.820	186.32	-0.80	3.20	 	 	 	 	 	 	 	 	 	 	 	 	 	 	 	 	 	 	1581496089	7.41	13.72
12/02/2020 08:28:10	120220	12022020	082810	186.57	12.820028	-57.129438	186.84	0.270	0.270	2.170	186.68	-1.10	2.60	 	 	 	 	 	 	 	 	 	 	 	 	 	 	 	 	 	 	1581496090	7.93	14.69
12/02/2020 08:28:11	120220	12022020	082811	187.31	12.819993	-57.129442	187.45	0.550	0.020	1.380	187.43	-1.40	1.80	 	 	 	 	 	 	 	 	 	 	 	 	 	 	 	 	 	 	1581496091	7.79	14.43
12/02/2020 08:28:12	120220	12022020	082812	187.81	12.819958	-57.129443	187.89	0.460	-0.430	0.710	187.85	-1.80	1.10	 	 	 	 	 	 	 	 	 	 	 	 	 	 	 	 	 	 	1581496092	7.49	13.87
12/02/2020 08:28:13	120220	12022020	082813	187.72	12.819923	-57.129447	187.76	0.260	-1.180	0.780	187.62	-2.60	1.30	 	 	 	 	 	 	 	 	 	 	 	 	 	 	 	 	 	 	1581496093	7.60	14.08
12/02/2020 08:28:14	120220	12022020	082814	187.10	12.819887	-57.129452	187.14	0.010	-1.740	1.690	186.97	-3.10	2.20	 	 	 	 	 	 	 	 	 	 	 	 	 	 	 	 	 	 	1581496094	8.04	14.89
12/02/2020 08:28:15	120220	12022020	082815	186.52	12.819850	-57.129462	186.61	-0.400	-1.440	2.700	186.44	-2.70	3.20	 	 	 	 	 	 	 	 	 	 	 	 	 	 	 	 	 	 	1581496095	8.22	15.22
12/02/2020 08:28:16	120220	12022020	082816	186.22	12.819815	-57.129475	186.35	-0.850	-0.340	3.360	186.19	-1.60	3.80	 	 	 	 	 	 	 	 	 	 	 	 	 	 	 	 	 	 	1581496096	7.74	14.33
12/02/2020 08:28:17	120220	12022020	082817	186.13	12.819785	-57.129490	186.26	-1.030	0.750	3.600	186.13	-0.60	4.00	 	 	 	 	 	 	 	 	 	 	 	 	 	 	 	 	 	 	1581496097	7.26	13.45
12/02/2020 08:28:18	120220	12022020	082818	186.16	12.819755	-57.129503	186.26	-0.640	1.200	3.210	186.17	-0.10	3.60	 	 	 	 	 	 	 	 	 	 	 	 	 	 	 	 	 	 	1581496098	7.29	13.50
12/02/2020 08:28:19	120220	12022020	082819	186.26	12.819720	-57.129513	186.35	0.210	1.110	2.310	186.29	-0.30	2.70	 	 	 	 	 	 	 	 	 	 	 	 	 	 	 	 	 	 	1581496099	7.60	14.08
12/02/2020 08:28:20	120220	12022020	082820	186.40	12.819683	-57.129517	186.53	0.990	0.850	1.260	186.44	-0.50	1.70	 	 	 	 	 	 	 	 	 	 	 	 	 	 	 	 	 	 	1581496100	7.78	14.41
12/02/2020 08:28:21	120220	12022020	082821	186.79	12.819648	-57.129515	186.88	1.190	0.380	0.470	186.88	-1.00	0.90	 	 	 	 	 	 	 	 	 	 	 	 	 	 	 	 	 	 	1581496101	7.67	14.20
12/02/2020 08:28:22	120220	12022020	082822	187.16	12.819613	-57.129513	187.24	0.830	-0.380	0.560	187.20	-1.80	1.00	 	 	 	 	 	 	 	 	 	 	 	 	 	 	 	 	 	 	1581496102	7.42	13.74
12/02/2020 08:28:23	120220	12022020	082823	187.14	12.819580	-57.129518	187.19	0.340	-1.330	1.410	187.08	-2.70	1.90	 	 	 	 	 	 	 	 	 	 	 	 	 	 	 	 	 	 	1581496103	7.36	13.63
12/02/2020 08:28:24	120220	12022020	082824	186.66	12.819545	-57.129530	186.72	0.070	-2.110	2.560	186.55	-3.50	3.10	 	 	 	 	 	 	 	 	 	 	 	 	 	 	 	 	 	 	1581496104	7.77	14.39
12/02/2020 08:28:25	120220	12022020	082825	186.08	12.819510	-57.129543	186.16	-0.030	-2.290	3.550	185.97	-3.60	4.00	 	 	 	 	 	 	 	 	 	 	 	 	 	 	 	 	 	 	1581496105	8.10	15.00
12/02/2020 08:28:26	120220	12022020	082826	185.52	12.819477	-57.129558	185.62	-0.170	-1.740	4.100	185.43	-3.00	4.50	 	 	 	 	 	 	 	 	 	 	 	 	 	 	 	 	 	 	1581496106	7.98	14.78
12/02/2020 08:28:27	120220	12022020	082827	185.14	12.819443	-57.129570	185.27	-0.440	-0.640	3.880	185.10	-1.90	4.30	 	 	 	 	 	 	 	 	 	 	 	 	 	 	 	 	 	 	1581496107	7.58	14.04
12/02/2020 08:28:28	120220	12022020	082828	185.04	12.819410	-57.129578	185.18	-0.640	0.510	3.000	185.05	-0.80	3.40	 	 	 	 	 	 	 	 	 	 	 	 	 	 	 	 	 	 	1581496108	7.16	13.26
12/02/2020 08:28:29	120220	12022020	082829	185.14	12.819378	-57.129582	185.26	-0.500	1.130	1.920	185.18	-0.20	2.30	 	 	 	 	 	 	 	 	 	 	 	 	 	 	 	 	 	 	1581496109	7.14	13.22
12/02/2020 08:28:30	120220	12022020	082830	185.37	12.819342	-57.129582	185.48	-0.120	1.070	1.090	185.43	-0.30	1.50	 	 	 	 	 	 	 	 	 	 	 	 	 	 	 	 	 	 	1581496110	7.70	14.26
12/02/2020 08:28:31	120220	12022020	082831	185.73	12.819303	-57.129580	185.84	0.020	0.720	0.890	185.80	-0.60	1.40	 	 	 	 	 	 	 	 	 	 	 	 	 	 	 	 	 	 	1581496111	8.20	15.19
12/02/2020 08:28:32	120220	12022020	082832	185.99	12.819267	-57.129585	186.09	-0.190	0.370	1.410	186.01	-1.00	1.90	 	 	 	 	 	 	 	 	 	 	 	 	 	 	 	 	 	 	1581496112	8.06	14.93
12/02/2020 08:28:33	120220	12022020	082833	186.02	12.819232	-57.129597	186.12	-0.310	0.140	2.210	186.01	-1.20	2.70	 	 	 	 	 	 	 	 	 	 	 	 	 	 	 	 	 	 	1581496113	7.79	14.43
12/02/2020 08:28:34	120220	12022020	082834	186.08	12.819198	-57.129610	186.21	0.050	0.000	2.540	186.12	-1.40	3.00	 	 	 	 	 	 	 	 	 	 	 	 	 	 	 	 	 	 	1581496114	7.59	14.06
12/02/2020 08:28:35	120220	12022020	082835	186.30	12.819167	-57.129620	186.42	0.690	-0.280	2.170	186.33	-1.60	2.60	 	 	 	 	 	 	 	 	 	 	 	 	 	 	 	 	 	 	1581496115	7.18	13.30
12/02/2020 08:28:36	120220	12022020	082836	186.40	12.819135	-57.129625	186.48	1.100	-0.750	1.500	186.38	-2.10	1.90	 	 	 	 	 	 	 	 	 	 	 	 	 	 	 	 	 	 	1581496116	7.13	13.20
12/02/2020 08:28:37	120220	12022020	082837	186.24	12.819100	-57.129627	186.31	0.980	-1.220	1.060	186.20	-2.60	1.50	 	 	 	 	 	 	 	 	 	 	 	 	 	 	 	 	 	 	1581496117	7.39	13.69
12/02/2020 08:28:38	120220	12022020	082838	186.14	12.819065	-57.129628	186.22	0.360	-1.300	0.950	186.13	-2.60	1.40	 	 	 	 	 	 	 	 	 	 	 	 	 	 	 	 	 	 	1581496118	7.50	13.89
12/02/2020 08:28:39	120220	12022020	082839	185.98	12.819032	-57.129633	186.04	-0.320	-1.200	1.420	185.91	-2.50	1.90	 	 	 	 	 	 	 	 	 	 	 	 	 	 	 	 	 	 	1581496119	7.23	13.39
12/02/2020 08:28:40	120220	12022020	082840	185.52	12.818998	-57.129643	185.57	-0.560	-1.280	2.200	185.40	-2.60	2.70	 	 	 	 	 	 	 	 	 	 	 	 	 	 	 	 	 	 	1581496120	7.49	13.87
12/02/2020 08:28:41	120220	12022020	082841	185.02	12.818962	-57.129655	185.11	-0.390	-1.180	2.740	184.97	-2.50	3.20	 	 	 	 	 	 	 	 	 	 	 	 	 	 	 	 	 	 	1581496121	8.24	15.26
12/02/2020 08:28:42	120220	12022020	082842	185.01	12.818925	-57.129665	185.16	-0.260	-0.300	2.840	185.08	-1.60	3.30	 	 	 	 	 	 	 	 	 	 	 	 	 	 	 	 	 	 	1581496122	8.37	15.50
12/02/2020 08:28:43	120220	12022020	082843	185.53	12.818890	-57.129672	185.72	-0.490	1.050	2.580	185.66	-0.20	3.00	 	 	 	 	 	 	 	 	 	 	 	 	 	 	 	 	 	 	1581496123	7.54	13.96
12/02/2020 08:28:44	120220	12022020	082844	186.14	12.818858	-57.129678	186.30	-0.790	1.850	2.160	186.24	0.50	2.60	 	 	 	 	 	 	 	 	 	 	 	 	 	 	 	 	 	 	1581496124	6.79	12.58
12/02/2020 08:28:45	120220	12022020	082845	186.47	12.818827	-57.129683	186.56	-0.720	1.480	1.780	186.50	0.10	2.20	 	 	 	 	 	 	 	 	 	 	 	 	 	 	 	 	 	 	1581496125	7.04	13.04
12/02/2020 08:28:46	120220	12022020	082846	186.49	12.818790	-57.129690	186.54	-0.270	0.430	1.720	186.47	-1.00	2.20	 	 	 	 	 	 	 	 	 	 	 	 	 	 	 	 	 	 	1581496126	7.95	14.72
12/02/2020 08:28:47	120220	12022020	082847	186.33	12.818752	-57.129697	186.40	0.270	-0.350	1.780	186.31	-1.70	2.20	 	 	 	 	 	 	 	 	 	 	 	 	 	 	 	 	 	 	1581496127	8.33	15.43
12/02/2020 08:28:48	120220	12022020	082848	186.22	12.818717	-57.129705	186.30	0.660	-0.610	1.560	186.20	-2.00	2.00	 	 	 	 	 	 	 	 	 	 	 	 	 	 	 	 	 	 	1581496128	7.76	14.37
12/02/2020 08:28:49	120220	12022020	082849	186.06	12.818685	-57.129710	186.11	0.890	-0.830	1.130	186.02	-2.20	1.60	 	 	 	 	 	 	 	 	 	 	 	 	 	 	 	 	 	 	1581496129	7.07	13.09
12/02/2020 08:28:50	120220	12022020	082850	185.83	12.818652	-57.129713	185.89	1.010	-1.190	0.800	185.80	-2.50	1.30	 	 	 	 	 	 	 	 	 	 	 	 	 	 	 	 	 	 	1581496130	7.13	13.20
12/02/2020 08:28:51	120220	12022020	082851	185.68	12.818617	-57.129715	185.74	0.850	-1.340	0.890	185.64	-2.70	1.40	 	 	 	 	 	 	 	 	 	 	 	 	 	 	 	 	 	 	1581496131	7.49	13.87
12/02/2020 08:28:52	120220	12022020	082852	185.44	12.818582	-57.129720	185.51	0.340	-1.150	1.470	185.37	-2.50	2.00	 	 	 	 	 	 	 	 	 	 	 	 	 	 	 	 	 	 	1581496132	7.42	13.74
12/02/2020 08:28:53	120220	12022020	082853	185.06	12.818548	-57.129727	185.14	-0.280	-0.810	2.190	184.98	-2.10	2.70	 	 	 	 	 	 	 	 	 	 	 	 	 	 	 	 	 	 	1581496133	7.42	13.74
12/02/2020 08:28:54	120220	12022020	082854	184.81	12.818515	-57.129738	184.95	-0.840	-0.290	2.880	184.81	-1.60	3.40	 	 	 	 	 	 	 	 	 	 	 	 	 	 	 	 	 	 	1581496134	7.74	14.33
12/02/2020 08:28:55	120220	12022020	082855	185.08	12.818480	-57.129752	185.28	-1.190	0.550	3.100	185.20	-0.70	3.50	 	 	 	 	 	 	 	 	 	 	 	 	 	 	 	 	 	 	1581496135	7.85	14.54
12/02/2020 08:28:56	120220	12022020	082856	185.69	12.818448	-57.129763	185.86	-1.120	1.190	2.660	185.80	-0.10	3.10	 	 	 	 	 	 	 	 	 	 	 	 	 	 	 	 	 	 	1581496136	7.35	13.61
12/02/2020 08:28:57	120220	12022020	082857	186.08	12.818417	-57.129772	186.20	-0.520	0.850	1.900	186.12	-0.50	2.30	 	 	 	 	 	 	 	 	 	 	 	 	 	 	 	 	 	 	1581496137	7.18	13.30
12/02/2020 08:28:58	120220	12022020	082858	186.11	12.818378	-57.129777	186.15	0.380	-0.190	1.240	186.08	-1.60	1.70	 	 	 	 	 	 	 	 	 	 	 	 	 	 	 	 	 	 	1581496138	8.02	14.85
12/02/2020 08:28:59	120220	12022020	082859	185.82	12.818338	-57.129777	185.86	1.000	-0.900	1.030	185.74	-2.30	1.50	 	 	 	 	 	 	 	 	 	 	 	 	 	 	 	 	 	 	1581496139	8.60	15.93
12/02/2020 08:29:00	120220	12022020	082900	185.40	12.818302	-57.129778	185.45	0.900	-0.830	1.290	185.31	-2.20	1.80	 	 	 	 	 	 	 	 	 	 	 	 	 	 	 	 	 	 	1581496140	8.15	15.09
12/02/2020 08:29:01	120220	12022020	082901	184.91	12.818267	-57.129780	184.98	0.260	-0.290	1.910	184.82	-1.60	2.40	1015.00	26.20	26.20	20.60	20.70	-1.0	71.0	71.0	392.0	25.7	273.00	10.10	77.00	10.60	16	10014.0	27.4	27.4	1581496141	7.24	13.41
12/02/2020 08:29:02	120220	12022020	082902	184.57	12.818237	-57.129788	184.67	-0.380	0.120	2.550	184.54	-1.20	3.00	 	 	 	 	 	 	 	 	 	 	 	 	 	 	 	 	 	 	1581496142	6.91	12.80
12/02/2020 08:29:03	120220	12022020	082903	184.62	12.818205	-57.129800	184.76	-0.550	0.230	2.670	184.67	-1.10	3.10	 	 	 	 	 	 	 	 	 	 	 	 	 	 	 	 	 	 	1581496143	7.31	13.54
12/02/2020 08:29:04	120220	12022020	082904	184.93	12.818172	-57.129812	185.08	-0.270	0.090	2.310	185.00	-1.30	2.80	 	 	 	 	 	 	 	 	 	 	 	 	 	 	 	 	 	 	1581496144	7.51	13.91
12/02/2020 08:29:05	120220	12022020	082905	185.17	12.818137	-57.129820	185.28	0.150	-0.330	1.890	185.20	-1.70	2.30	 	 	 	 	 	 	 	 	 	 	 	 	 	 	 	 	 	 	1581496145	7.54	13.96
12/02/2020 08:29:06	120220	12022020	082906	185.32	12.818102	-57.129825	185.43	0.340	-0.730	1.590	185.36	-2.10	2.10	 	 	 	 	 	 	 	 	 	 	 	 	 	 	 	 	 	 	1581496146	7.77	14.39
12/02/2020 08:29:07	120220	12022020	082907	185.53	12.818065	-57.129830	185.66	0.200	-0.770	1.490	185.58	-2.10	2.00	 	 	 	 	 	 	 	 	 	 	 	 	 	 	 	 	 	 	1581496147	7.76	14.37
12/02/2020 08:29:08	120220	12022020	082908	185.79	12.818032	-57.129835	185.91	-0.010	-0.460	1.510	185.82	-1.80	2.00	 	 	 	 	 	 	 	 	 	 	 	 	 	 	 	 	 	 	1581496148	7.39	13.69
12/02/2020 08:29:09	120220	12022020	082909	185.85	12.817998	-57.129840	185.95	-0.020	-0.200	1.690	185.82	-1.60	2.20	 	 	 	 	 	 	 	 	 	 	 	 	 	 	 	 	 	 	1581496149	7.08	13.11
12/02/2020 08:29:10	120220	12022020	082910	185.66	12.817965	-57.129845	185.68	0.180	-0.310	2.010	185.59	-1.70	2.50	 	 	 	 	 	 	 	 	 	 	 	 	 	 	 	 	 	 	1581496150	7.28	13.48
12/02/2020 08:29:11	120220	12022020	082911	185.12	12.817930	-57.129852	185.20	0.410	-0.540	2.270	185.01	-1.90	2.80	 	 	 	 	 	 	 	 	 	 	 	 	 	 	 	 	 	 	1581496151	7.80	14.45
12/02/2020 08:29:12	120220	12022020	082912	184.67	12.817892	-57.129855	184.67	0.380	-0.510	2.430	184.57	-1.80	2.90	 	 	 	 	 	 	 	 	 	 	 	 	 	 	 	 	 	 	1581496152	8.07	14.95
12/02/2020 08:29:13	120220	12022020	082913	184.29	12.817857	-57.129860	184.41	-0.080	-0.090	2.600	184.27	-1.40	3.10	 	 	 	 	 	 	 	 	 	 	 	 	 	 	 	 	 	 	1581496153	7.85	14.54
12/02/2020 08:29:14	120220	12022020	082914	184.32	12.817822	-57.129867	184.47	-0.700	0.470	2.760	184.35	-0.90	3.20	 	 	 	 	 	 	 	 	 	 	 	 	 	 	 	 	 	 	1581496154	7.42	13.74
12/02/2020 08:29:15	120220	12022020	082915	184.63	12.817790	-57.129877	184.77	-1.040	0.870	2.690	184.73	-0.50	3.20	 	 	 	 	 	 	 	 	 	 	 	 	 	 	 	 	 	 	1581496155	7.28	13.48
12/02/2020 08:29:16	120220	12022020	082916	185.22	12.817758	-57.129888	185.36	-0.790	0.860	2.200	185.36	-0.50	2.60	 	 	 	 	 	 	 	 	 	 	 	 	 	 	 	 	 	 	1581496156	7.28	13.48
12/02/2020 08:29:17	120220	12022020	082917	185.88	12.817725	-57.129897	186.00	-0.090	0.250	1.430	186.00	-1.20	1.90	 	 	 	 	 	 	 	 	 	 	 	 	 	 	 	 	 	 	1581496157	7.34	13.59
12/02/2020 08:29:18	120220	12022020	082918	186.40	12.817690	-57.129902	186.49	0.650	-0.690	0.640	186.47	-2.10	1.10	 	 	 	 	 	 	 	 	 	 	 	 	 	 	 	 	 	 	1581496158	7.70	14.26
12/02/2020 08:29:19	120220	12022020	082919	186.62	12.817652	-57.129903	186.67	1.090	-1.390	0.160	186.61	-2.80	0.60	 	 	 	 	 	 	 	 	 	 	 	 	 	 	 	 	 	 	1581496159	7.92	14.67
12/02/2020 08:29:20	120220	12022020	082920	186.35	12.817617	-57.129903	186.35	1.130	-1.710	0.320	186.24	-3.10	0.80	 	 	 	 	 	 	 	 	 	 	 	 	 	 	 	 	 	 	1581496160	7.74	14.33
12/02/2020 08:29:21	120220	12022020	082921	185.73	12.817580	-57.129905	185.74	0.770	-1.600	1.000	185.59	-3.00	1.50	 	 	 	 	 	 	 	 	 	 	 	 	 	 	 	 	 	 	1581496161	7.65	14.17
12/02/2020 08:29:22	120220	12022020	082922	185.10	12.817545	-57.129910	185.17	0.130	-0.980	1.930	185.00	-2.30	2.50	 	 	 	 	 	 	 	 	 	 	 	 	 	 	 	 	 	 	1581496162	7.65	14.17
12/02/2020 08:29:23	120220	12022020	082923	184.70	12.817512	-57.129918	184.81	-0.580	0.080	2.710	184.67	-1.20	3.20	 	 	 	 	 	 	 	 	 	 	 	 	 	 	 	 	 	 	1581496163	7.57	14.02
12/02/2020 08:29:24	120220	12022020	082924	184.75	12.817478	-57.129930	184.90	-1.120	1.150	2.980	184.81	-0.20	3.40	 	 	 	 	 	 	 	 	 	 	 	 	 	 	 	 	 	 	1581496164	7.35	13.61
12/02/2020 08:29:25	120220	12022020	082925	185.14	12.817447	-57.129938	185.27	-1.350	1.470	2.770	185.22	0.10	3.20	 	 	 	 	 	 	 	 	 	 	 	 	 	 	 	 	 	 	1581496165	7.22	13.37
12/02/2020 08:29:26	120220	12022020	082926	185.55	12.817412	-57.129948	185.67	-1.150	0.900	2.470	185.62	-0.50	2.90	 	 	 	 	 	 	 	 	 	 	 	 	 	 	 	 	 	 	1581496166	7.71	14.28
12/02/2020 08:29:27	120220	12022020	082927	185.85	12.817375	-57.129958	185.94	-0.590	0.070	2.230	185.88	-1.30	2.70	 	 	 	 	 	 	 	 	 	 	 	 	 	 	 	 	 	 	1581496167	8.32	15.41
12/02/2020 08:29:28	120220	12022020	082928	185.94	12.817337	-57.129968	186.01	0.200	-0.400	1.840	185.93	-1.80	2.30	 	 	 	 	 	 	 	 	 	 	 	 	 	 	 	 	 	 	1581496168	8.22	15.22
12/02/2020 08:29:29	120220	12022020	082929	185.87	12.817303	-57.129975	185.93	0.990	-0.560	1.130	185.86	-2.00	1.60	 	 	 	 	 	 	 	 	 	 	 	 	 	 	 	 	 	 	1581496169	7.59	14.06
12/02/2020 08:29:30	120220	12022020	082930	185.92	12.817268	-57.129975	185.97	1.430	-0.580	0.210	185.94	-2.00	0.60	 	 	 	 	 	 	 	 	 	 	 	 	 	 	 	 	 	 	1581496170	7.27	13.46
12/02/2020 08:29:31	120220	12022020	082931	186.04	12.817235	-57.129972	186.08	1.300	-0.700	-0.180	186.04	-2.10	0.30	 	 	 	 	 	 	 	 	 	 	 	 	 	 	 	 	 	 	1581496171	7.27	13.46
12/02/2020 08:29:32	120220	12022020	082932	185.90	12.817202	-57.129970	185.92	0.710	-0.990	0.380	185.82	-2.40	0.90	 	 	 	 	 	 	 	 	 	 	 	 	 	 	 	 	 	 	1581496172	7.36	13.63
12/02/2020 08:29:33	120220	12022020	082933	185.46	12.817165	-57.129975	185.50	-0.030	-1.160	1.520	185.35	-2.50	2.10	 	 	 	 	 	 	 	 	 	 	 	 	 	 	 	 	 	 	1581496173	7.66	14.19
12/02/2020 08:29:34	120220	12022020	082934	185.02	12.817130	-57.129987	184.96	-0.590	-0.910	2.820	184.91	-2.20	3.40	 	 	 	 	 	 	 	 	 	 	 	 	 	 	 	 	 	 	1581496174	7.94	14.70
12/02/2020 08:29:35	120220	12022020	082935	184.48	12.817097	-57.130000	184.60	-0.850	-0.230	3.780	184.44	-1.60	4.30	 	 	 	 	 	 	 	 	 	 	 	 	 	 	 	 	 	 	1581496175	7.97	14.76
12/02/2020 08:29:36	120220	12022020	082936	184.49	12.817063	-57.130013	184.66	-0.830	0.450	3.870	184.56	-0.90	4.30	 	 	 	 	 	 	 	 	 	 	 	 	 	 	 	 	 	 	1581496176	7.70	14.26
12/02/2020 08:29:37	120220	12022020	082937	184.98	12.817028	-57.130023	185.17	-0.680	0.700	3.140	185.12	-0.70	3.60	 	 	 	 	 	 	 	 	 	 	 	 	 	 	 	 	 	 	1581496177	7.52	13.93
12/02/2020 08:29:38	120220	12022020	082938	185.64	12.816993	-57.130028	185.80	-0.500	0.440	2.270	185.74	-1.00	2.70	 	 	 	 	 	 	 	 	 	 	 	 	 	 	 	 	 	 	1581496178	7.64	14.15
12/02/2020 08:29:39	120220	12022020	082939	185.97	12.816957	-57.130033	186.09	-0.280	-0.110	1.780	185.98	-1.50	2.20	 	 	 	 	 	 	 	 	 	 	 	 	 	 	 	 	 	 	1581496179	7.88	14.59
12/02/2020 08:29:40	120220	12022020	082940	185.91	12.816920	-57.130038	185.99	0.040	-0.550	1.570	185.87	-1.90	2.00	 	 	 	 	 	 	 	 	 	 	 	 	 	 	 	 	 	 	1581496180	8.00	14.82
12/02/2020 08:29:41	120220	12022020	082941	185.71	12.816885	-57.130045	185.79	0.370	-0.430	1.390	185.68	-1.80	1.90	 	 	 	 	 	 	 	 	 	 	 	 	 	 	 	 	 	 	1581496181	7.85	14.54
12/02/2020 08:29:42	120220	12022020	082942	185.60	12.816852	-57.130050	185.68	0.710	0.090	1.080	185.60	-1.30	1.50	 	 	 	 	 	 	 	 	 	 	 	 	 	 	 	 	 	 	1581496182	7.17	13.28
12/02/2020 08:29:43	120220	12022020	082943	185.64	12.816820	-57.130052	185.71	1.050	0.310	0.560	185.65	-1.10	1.00	 	 	 	 	 	 	 	 	 	 	 	 	 	 	 	 	 	 	1581496183	6.78	12.56
12/02/2020 08:29:44	120220	12022020	082944	185.69	12.816787	-57.130050	185.75	1.190	-0.100	0.340	185.69	-1.50	0.90	 	 	 	 	 	 	 	 	 	 	 	 	 	 	 	 	 	 	1581496184	7.17	13.28
12/02/2020 08:29:45	120220	12022020	082945	185.63	12.816750	-57.130048	185.71	0.850	-0.800	0.970	185.62	-2.20	1.50	 	 	 	 	 	 	 	 	 	 	 	 	 	 	 	 	 	 	1581496185	7.85	14.54
12/02/2020 08:29:46	120220	12022020	082946	185.56	12.816713	-57.130055	185.69	0.010	-1.140	2.190	185.55	-2.50	2.80	 	 	 	 	 	 	 	 	 	 	 	 	 	 	 	 	 	 	1581496186	8.12	15.04
12/02/2020 08:29:47	120220	12022020	082947	185.56	12.816678	-57.130068	185.74	-0.940	-0.840	3.470	185.57	-2.20	4.00	 	 	 	 	 	 	 	 	 	 	 	 	 	 	 	 	 	 	1581496187	8.01	14.83
12/02/2020 08:29:48	120220	12022020	082948	185.62	12.816647	-57.130085	185.82	-1.430	-0.340	4.240	185.63	-1.70	4.70	 	 	 	 	 	 	 	 	 	 	 	 	 	 	 	 	 	 	1581496188	7.75	14.35
12/02/2020 08:29:49	120220	12022020	082949	185.80	12.816615	-57.130103	185.97	-1.190	-0.210	4.060	185.83	-1.60	4.50	 	 	 	 	 	 	 	 	 	 	 	 	 	 	 	 	 	 	1581496189	7.64	14.15
12/02/2020 08:29:50	120220	12022020	082950	185.91	12.816582	-57.130115	186.04	-0.440	-0.440	3.160	185.90	-1.80	3.60	 	 	 	 	 	 	 	 	 	 	 	 	 	 	 	 	 	 	1581496190	7.81	14.46
12/02/2020 08:29:51	120220	12022020	082951	185.77	12.816543	-57.130120	185.86	0.380	-0.640	2.050	185.73	-2.00	2.50	 	 	 	 	 	 	 	 	 	 	 	 	 	 	 	 	 	 	1581496191	8.11	15.02
12/02/2020 08:29:52	120220	12022020	082952	185.60	12.816505	-57.130120	185.68	0.790	-0.420	1.010	185.58	-1.80	1.50	 	 	 	 	 	 	 	 	 	 	 	 	 	 	 	 	 	 	1581496192	8.21	15.20
12/02/2020 08:29:53	120220	12022020	082953	185.51	12.816468	-57.130117	185.58	0.690	0.140	0.250	185.50	-1.20	0.70	 	 	 	 	 	 	 	 	 	 	 	 	 	 	 	 	 	 	1581496193	7.89	14.61
12/02/2020 08:29:54	120220	12022020	082954	185.52	12.816435	-57.130113	185.60	0.310	0.730	-0.060	185.56	-0.60	0.40	 	 	 	 	 	 	 	 	 	 	 	 	 	 	 	 	 	 	1581496194	7.45	13.80
12/02/2020 08:29:55	120220	12022020	082955	185.90	12.816400	-57.130115	186.01	-0.060	1.160	-0.040	186.03	-0.20	0.50	 	 	 	 	 	 	 	 	 	 	 	 	 	 	 	 	 	 	1581496195	7.23	13.39
12/02/2020 08:29:56	120220	12022020	082956	186.66	12.816368	-57.130120	186.79	-0.320	1.060	0.260	186.82	-0.40	0.80	 	 	 	 	 	 	 	 	 	 	 	 	 	 	 	 	 	 	1581496196	7.13	13.20
12/02/2020 08:29:57	120220	12022020	082957	187.27	12.816335	-57.130128	187.38	-0.430	0.160	1.270	187.33	-1.30	1.80	 	 	 	 	 	 	 	 	 	 	 	 	 	 	 	 	 	 	1581496197	7.35	13.61
12/02/2020 08:29:58	120220	12022020	082958	187.30	12.816300	-57.130143	187.38	-0.320	-1.220	2.820	187.22	-2.70	3.40	 	 	 	 	 	 	 	 	 	 	 	 	 	 	 	 	 	 	1581496198	8.13	15.06
12/02/2020 08:29:59	120220	12022020	082959	186.63	12.816263	-57.130162	186.67	0.130	-2.380	4.270	186.40	-3.80	4.80	 	 	 	 	 	 	 	 	 	 	 	 	 	 	 	 	 	 	1581496199	8.85	16.39
12/02/2020 08:30:00	120220	12022020	083000	185.59	12.816227	-57.130180	185.38	0.730	-2.590	5.260	185.33	-3.90	5.70	 	 	 	 	 	 	 	 	 	 	 	 	 	 	 	 	 	 	1581496200	8.83	16.35
12/02/2020 08:30:01	120220	12022020	083001	184.29	12.816190	-57.130192	184.42	0.900	-1.420	5.270	184.20	-2.70	5.70	1015.10	26.20	26.30	21.10	21.10	-1.0	73.0	73.0	393.0	25.7	276.00	9.90	79.00	10.30	16	10536.0	27.4	27.4	1581496201	8.14	15.08
12/02/2020 08:30:02	120220	12022020	083002	184.36	12.816158	-57.130195	184.57	0.400	0.500	3.990	184.51	-0.80	4.40	 	 	 	 	 	 	 	 	 	 	 	 	 	 	 	 	 	 	1581496202	6.94	12.85
12/02/2020 08:30:03	120220	12022020	083003	185.34	12.816130	-57.130193	185.52	-0.400	1.800	2.030	185.55	0.40	2.40	 	 	 	 	 	 	 	 	 	 	 	 	 	 	 	 	 	 	1581496203	6.17	11.43
12/02/2020 08:30:04	120220	12022020	083004	186.39	12.816098	-57.130190	186.50	-0.810	1.550	0.460	186.55	0.10	0.90	 	 	 	 	 	 	 	 	 	 	 	 	 	 	 	 	 	 	1581496204	6.64	12.30
12/02/2020 08:30:05	120220	12022020	083005	187.05	12.816062	-57.130190	187.11	-0.550	0.170	-0.230	187.13	-1.30	0.30	 	 	 	 	 	 	 	 	 	 	 	 	 	 	 	 	 	 	1581496205	8.00	14.82
12/02/2020 08:30:06	120220	12022020	083006	187.27	12.816020	-57.130193	187.31	-0.010	-1.040	-0.070	187.27	-2.40	0.50	 	 	 	 	 	 	 	 	 	 	 	 	 	 	 	 	 	 	1581496206	8.92	16.52
12/02/2020 08:30:07	120220	12022020	083007	187.16	12.815982	-57.130202	187.19	0.270	-1.330	0.670	187.10	-2.70	1.20	 	 	 	 	 	 	 	 	 	 	 	 	 	 	 	 	 	 	1581496207	8.58	15.89
12/02/2020 08:30:08	120220	12022020	083008	186.80	12.815947	-57.130212	186.84	0.170	-0.890	1.630	186.71	-2.20	2.20	 	 	 	 	 	 	 	 	 	 	 	 	 	 	 	 	 	 	1581496208	7.68	14.22
12/02/2020 08:30:09	120220	12022020	083009	186.35	12.815915	-57.130222	186.40	-0.050	-0.270	2.450	186.26	-1.60	2.90	 	 	 	 	 	 	 	 	 	 	 	 	 	 	 	 	 	 	1581496209	7.15	13.24
12/02/2020 08:30:10	120220	12022020	083010	186.04	12.815883	-57.130232	186.13	-0.160	0.210	2.710	186.02	-1.10	3.20	 	 	 	 	 	 	 	 	 	 	 	 	 	 	 	 	 	 	1581496210	7.18	13.30
12/02/2020 08:30:11	120220	12022020	083011	186.08	12.815850	-57.130240	186.21	-0.160	0.460	2.430	186.13	-0.90	2.90	 	 	 	 	 	 	 	 	 	 	 	 	 	 	 	 	 	 	1581496211	7.32	13.56
12/02/2020 08:30:12	120220	12022020	083012	186.33	12.815817	-57.130245	186.45	-0.130	0.320	1.940	186.37	-1.10	2.40	 	 	 	 	 	 	 	 	 	 	 	 	 	 	 	 	 	 	1581496212	7.39	13.69
12/02/2020 08:30:13	120220	12022020	083013	186.39	12.815782	-57.130250	186.46	-0.000	-0.370	1.540	186.35	-1.80	2.00	 	 	 	 	 	 	 	 	 	 	 	 	 	 	 	 	 	 	1581496213	7.62	14.11
12/02/2020 08:30:14	120220	12022020	083014	186.15	12.815743	-57.130257	186.21	0.200	-1.130	1.490	186.12	-2.50	2.00	 	 	 	 	 	 	 	 	 	 	 	 	 	 	 	 	 	 	1581496214	8.21	15.20
12/02/2020 08:30:15	120220	12022020	083015	186.14	12.815705	-57.130263	186.25	0.260	-1.040	1.580	186.18	-2.40	2.10	 	 	 	 	 	 	 	 	 	 	 	 	 	 	 	 	 	 	1581496215	8.39	15.54
12/02/2020 08:30:16	120220	12022020	083016	186.51	12.815672	-57.130272	186.64	0.130	-0.080	1.480	186.60	-1.40	1.90	 	 	 	 	 	 	 	 	 	 	 	 	 	 	 	 	 	 	1581496216	7.48	13.85
12/02/2020 08:30:17	120220	12022020	083017	186.90	12.815642	-57.130278	187.00	-0.030	0.700	1.200	186.94	-0.70	1.70	 	 	 	 	 	 	 	 	 	 	 	 	 	 	 	 	 	 	1581496217	6.50	12.04
12/02/2020 08:30:18	120220	12022020	083018	187.07	12.815610	-57.130283	187.15	-0.100	0.590	1.110	187.09	-0.80	1.60	 	 	 	 	 	 	 	 	 	 	 	 	 	 	 	 	 	 	1581496218	6.69	12.39
12/02/2020 08:30:19	120220	12022020	083019	187.15	12.815575	-57.130288	187.24	-0.120	-0.120	1.370	187.16	-1.50	1.90	 	 	 	 	 	 	 	 	 	 	 	 	 	 	 	 	 	 	1581496219	7.62	14.11
12/02/2020 08:30:20	120220	12022020	083020	187.02	12.815538	-57.130297	187.09	-0.080	-0.790	1.930	186.94	-2.20	2.40	 	 	 	 	 	 	 	 	 	 	 	 	 	 	 	 	 	 	1581496220	8.14	15.08
12/02/2020 08:30:21	120220	12022020	083021	186.53	12.815502	-57.130307	186.58	0.070	-1.160	2.630	186.41	-2.50	3.10	 	 	 	 	 	 	 	 	 	 	 	 	 	 	 	 	 	 	1581496221	8.16	15.11
12/02/2020 08:30:22	120220	12022020	083022	186.05	12.815465	-57.130317	186.15	0.290	-1.100	2.820	186.00	-2.40	3.30	 	 	 	 	 	 	 	 	 	 	 	 	 	 	 	 	 	 	1581496222	8.06	14.93
12/02/2020 08:30:23	120220	12022020	083023	185.91	12.815430	-57.130323	186.03	0.330	-0.550	2.500	185.92	-1.90	2.90	 	 	 	 	 	 	 	 	 	 	 	 	 	 	 	 	 	 	1581496223	7.77	14.39
12/02/2020 08:30:24	120220	12022020	083024	185.99	12.815397	-57.130328	186.10	0.090	0.220	2.030	186.01	-1.10	2.50	 	 	 	 	 	 	 	 	 	 	 	 	 	 	 	 	 	 	1581496224	7.25	13.43
12/02/2020 08:30:25	120220	12022020	083025	186.13	12.815365	-57.130332	186.22	-0.340	0.700	1.670	186.16	-0.70	2.10	 	 	 	 	 	 	 	 	 	 	 	 	 	 	 	 	 	 	1581496225	6.98	12.93
12/02/2020 08:30:26	120220	12022020	083026	186.31	12.815332	-57.130337	186.40	-0.730	0.680	1.540	186.35	-0.70	2.00	 	 	 	 	 	 	 	 	 	 	 	 	 	 	 	 	 	 	1581496226	7.17	13.28
12/02/2020 08:30:27	120220	12022020	083027	186.45	12.815297	-57.130345	186.53	-0.740	0.180	1.680	186.46	-1.20	2.20	 	 	 	 	 	 	 	 	 	 	 	 	 	 	 	 	 	 	1581496227	7.56	14.00
12/02/2020 08:30:28	120220	12022020	083028	186.46	12.815262	-57.130355	186.53	-0.220	-0.520	1.850	186.46	-1.90	2.30	 	 	 	 	 	 	 	 	 	 	 	 	 	 	 	 	 	 	1581496228	8.05	14.91
12/02/2020 08:30:29	120220	12022020	083029	186.51	12.815225	-57.130365	186.60	0.540	-0.930	1.660	186.54	-2.30	2.10	 	 	 	 	 	 	 	 	 	 	 	 	 	 	 	 	 	 	1581496229	8.19	15.17
12/02/2020 08:30:30	120220	12022020	083030	186.79	12.815188	-57.130372	186.90	1.000	-0.830	1.160	186.86	-2.20	1.60	 	 	 	 	 	 	 	 	 	 	 	 	 	 	 	 	 	 	1581496230	7.86	14.56
12/02/2020 08:30:31	120220	12022020	083031	187.14	12.815155	-57.130372	187.23	0.800	-0.450	0.780	187.18	-1.80	1.30	 	 	 	 	 	 	 	 	 	 	 	 	 	 	 	 	 	 	1581496231	7.35	13.61
12/02/2020 08:30:32	120220	12022020	083032	187.17	12.815122	-57.130373	187.22	0.130	-0.240	1.070	187.11	-1.60	1.60	 	 	 	 	 	 	 	 	 	 	 	 	 	 	 	 	 	 	1581496232	7.06	13.08
12/02/2020 08:30:33	120220	12022020	083033	186.68	12.815088	-57.130380	186.71	-0.490	-0.360	2.110	186.54	-1.70	2.70	 	 	 	 	 	 	 	 	 	 	 	 	 	 	 	 	 	 	1581496233	7.29	13.50
12/02/2020 08:30:34	120220	12022020	083034	186.03	12.815053	-57.130392	186.10	-0.790	-0.450	3.310	185.93	-1.80	3.80	 	 	 	 	 	 	 	 	 	 	 	 	 	 	 	 	 	 	1581496234	7.99	14.80
12/02/2020 08:30:35	120220	12022020	083035	185.80	12.815018	-57.130408	185.95	-0.830	-0.180	3.920	185.82	-1.50	4.40	 	 	 	 	 	 	 	 	 	 	 	 	 	 	 	 	 	 	1581496235	8.31	15.39
12/02/2020 08:30:36	120220	12022020	083036	186.08	12.814983	-57.130422	186.27	-0.610	0.260	3.720	186.18	-1.10	4.10	 	 	 	 	 	 	 	 	 	 	 	 	 	 	 	 	 	 	1581496236	7.88	14.59
12/02/2020 08:30:37	120220	12022020	083037	186.61	12.814952	-57.130433	186.79	-0.100	0.460	2.650	186.71	-0.90	3.00	 	 	 	 	 	 	 	 	 	 	 	 	 	 	 	 	 	 	1581496237	7.35	13.61
12/02/2020 08:30:38	120220	12022020	083038	187.02	12.814917	-57.130435	187.28	0.590	0.130	1.190	187.12	-1.30	1.60	 	 	 	 	 	 	 	 	 	 	 	 	 	 	 	 	 	 	1581496238	7.36	13.63
12/02/2020 08:30:39	120220	12022020	083039	187.69	12.814880	-57.130433	187.83	0.910	-0.320	0.220	187.79	-1.70	0.70	 	 	 	 	 	 	 	 	 	 	 	 	 	 	 	 	 	 	1581496239	7.96	14.74
12/02/2020 08:30:40	120220	12022020	083040	188.03	12.814845	-57.130432	188.16	0.540	-0.520	0.170	188.08	-1.90	0.70	 	 	 	 	 	 	 	 	 	 	 	 	 	 	 	 	 	 	1581496240	7.82	14.48
12/02/2020 08:30:41	120220	12022020	083041	187.88	12.814810	-57.130435	187.90	-0.130	-0.670	0.870	187.77	-2.10	1.40	 	 	 	 	 	 	 	 	 	 	 	 	 	 	 	 	 	 	1581496241	7.23	13.39
12/02/2020 08:30:42	120220	12022020	083042	187.12	12.814778	-57.130447	187.13	-0.430	-0.960	2.060	186.93	-2.30	2.60	 	 	 	 	 	 	 	 	 	 	 	 	 	 	 	 	 	 	1581496242	7.45	13.80
12/02/2020 08:30:43	120220	12022020	083043	186.25	12.814743	-57.130463	186.31	-0.200	-0.980	3.080	186.12	-2.30	3.60	 	 	 	 	 	 	 	 	 	 	 	 	 	 	 	 	 	 	1581496243	8.10	15.00
12/02/2020 08:30:44	120220	12022020	083044	185.86	12.814708	-57.130477	186.00	0.100	-0.320	3.240	185.87	-1.70	3.70	 	 	 	 	 	 	 	 	 	 	 	 	 	 	 	 	 	 	1581496244	8.04	14.89
12/02/2020 08:30:45	120220	12022020	083045	186.15	12.814677	-57.130485	186.32	0.030	0.600	2.570	186.27	-0.70	3.00	 	 	 	 	 	 	 	 	 	 	 	 	 	 	 	 	 	 	1581496245	7.19	13.32
12/02/2020 08:30:46	120220	12022020	083046	186.79	12.814645	-57.130490	186.93	-0.260	0.950	1.670	186.90	-0.40	2.10	 	 	 	 	 	 	 	 	 	 	 	 	 	 	 	 	 	 	1581496246	6.67	12.35
12/02/2020 08:30:47	120220	12022020	083047	187.18	12.814613	-57.130495	187.28	-0.270	0.340	1.180	187.22	-1.10	1.60	 	 	 	 	 	 	 	 	 	 	 	 	 	 	 	 	 	 	1581496247	7.04	13.04
12/02/2020 08:30:48	120220	12022020	083048	187.37	12.814577	-57.130500	187.48	0.070	-0.570	1.090	187.37	-2.00	1.60	 	 	 	 	 	 	 	 	 	 	 	 	 	 	 	 	 	 	1581496248	7.96	14.74
12/02/2020 08:30:49	120220	12022020	083049	187.56	12.814540	-57.130507	187.65	0.400	-0.970	1.290	187.56	-2.40	1.80	 	 	 	 	 	 	 	 	 	 	 	 	 	 	 	 	 	 	1581496249	8.15	15.09
12/02/2020 08:30:50	120220	12022020	083050	187.57	12.814505	-57.130515	187.61	0.490	-0.940	1.480	187.54	-2.30	2.00	 	 	 	 	 	 	 	 	 	 	 	 	 	 	 	 	 	 	1581496250	7.55	13.98
12/02/2020 08:30:51	120220	12022020	083051	187.22	12.814472	-57.130522	187.27	0.360	-0.830	1.670	187.22	-2.20	2.20	 	 	 	 	 	 	 	 	 	 	 	 	 	 	 	 	 	 	1581496251	7.23	13.39
12/02/2020 08:30:52	120220	12022020	083052	186.92	12.814438	-57.130528	187.01	-0.060	-0.430	1.910	186.92	-1.80	2.40	 	 	 	 	 	 	 	 	 	 	 	 	 	 	 	 	 	 	1581496252	7.37	13.65
12/02/2020 08:30:53	120220	12022020	083053	186.87	12.814407	-57.130537	186.97	-0.580	0.090	2.150	186.87	-1.30	2.60	 	 	 	 	 	 	 	 	 	 	 	 	 	 	 	 	 	 	1581496253	7.21	13.35
12/02/2020 08:30:54	120220	12022020	083054	186.85	12.814373	-57.130547	186.95	-0.800	0.240	2.500	186.83	-1.10	3.00	 	 	 	 	 	 	 	 	 	 	 	 	 	 	 	 	 	 	1581496254	7.21	13.35
12/02/2020 08:30:55	120220	12022020	083055	186.77	12.814340	-57.130558	186.90	-0.560	0.020	2.880	186.78	-1.40	3.40	 	 	 	 	 	 	 	 	 	 	 	 	 	 	 	 	 	 	1581496255	7.72	14.30
12/02/2020 08:30:56	120220	12022020	083056	186.91	12.814305	-57.130570	187.08	-0.140	-0.160	3.070	186.97	-1.50	3.50	 	 	 	 	 	 	 	 	 	 	 	 	 	 	 	 	 	 	1581496256	8.09	14.98
12/02/2020 08:30:57	120220	12022020	083057	187.27	12.814270	-57.130580	187.45	0.180	-0.070	2.740	187.27	-1.40	3.20	 	 	 	 	 	 	 	 	 	 	 	 	 	 	 	 	 	 	1581496257	7.85	14.54
12/02/2020 08:30:58	120220	12022020	083058	187.65	12.814237	-57.130588	187.79	0.440	0.090	1.870	187.70	-1.30	2.30	 	 	 	 	 	 	 	 	 	 	 	 	 	 	 	 	 	 	1581496258	7.33	13.58
12/02/2020 08:30:59	120220	12022020	083059	187.84	12.814203	-57.130592	187.93	0.690	0.020	1.000	187.85	-1.40	1.40	 	 	 	 	 	 	 	 	 	 	 	 	 	 	 	 	 	 	1581496259	7.07	13.09
12/02/2020 08:31:00	120220	12022020	083100	187.80	12.814170	-57.130592	187.85	0.790	-0.340	0.660	187.80	-1.70	1.10	 	 	 	 	 	 	 	 	 	 	 	 	 	 	 	 	 	 	1581496260	7.31	13.54
12/02/2020 08:31:01	120220	12022020	083101	187.45	12.814135	-57.130593	187.49	0.520	-0.800	1.000	187.45	-2.20	1.50	1015.10	26.10	26.10	20.70	20.80	-1.0	72.0	72.0	393.0	25.7	271.00	10.10	76.00	10.80	16	10063.0	27.4	27.4	1581496261	7.59	14.06
12/02/2020 08:31:02	120220	12022020	083102	186.94	12.814098	-57.130602	186.99	-0.150	-0.980	1.970	186.94	-2.30	2.50	 	 	 	 	 	 	 	 	 	 	 	 	 	 	 	 	 	 	1581496262	7.77	14.39
12/02/2020 08:31:03	120220	12022020	083103	186.34	12.814065	-57.130615	186.43	-0.810	-0.700	3.320	186.34	-2.00	3.90	 	 	 	 	 	 	 	 	 	 	 	 	 	 	 	 	 	 	1581496263	7.84	14.52
12/02/2020 08:31:04	120220	12022020	083104	185.89	12.814033	-57.130635	186.02	-0.950	-0.100	4.170	185.89	-1.40	4.60	 	 	 	 	 	 	 	 	 	 	 	 	 	 	 	 	 	 	1581496264	7.98	14.78
12/02/2020 08:31:05	120220	12022020	083105	185.95	12.814002	-57.130653	186.14	-0.470	0.510	3.780	185.95	-0.80	4.20	 	 	 	 	 	 	 	 	 	 	 	 	 	 	 	 	 	 	1581496265	7.72	14.30
12/02/2020 08:31:06	120220	12022020	083106	186.63	12.813970	-57.130662	186.84	0.190	0.700	2.340	186.81	-0.70	2.70	 	 	 	 	 	 	 	 	 	 	 	 	 	 	 	 	 	 	1581496266	7.17	13.28
12/02/2020 08:31:07	120220	12022020	083107	187.55	12.813937	-57.130663	187.73	0.530	0.310	0.820	187.71	-1.10	1.20	 	 	 	 	 	 	 	 	 	 	 	 	 	 	 	 	 	 	1581496267	7.20	13.33
12/02/2020 08:31:08	120220	12022020	083108	188.11	12.813902	-57.130662	188.22	0.440	-0.530	0.010	188.16	-1.90	0.50	 	 	 	 	 	 	 	 	 	 	 	 	 	 	 	 	 	 	1581496268	7.57	14.02
12/02/2020 08:31:09	120220	12022020	083109	188.05	12.813865	-57.130662	188.09	0.120	-1.310	0.300	188.05	-2.70	0.80	 	 	 	 	 	 	 	 	 	 	 	 	 	 	 	 	 	 	1581496269	7.74	14.33
12/02/2020 08:31:10	120220	12022020	083110	187.32	12.813830	-57.130670	187.32	-0.130	-1.760	1.550	187.10	-3.10	2.10	 	 	 	 	 	 	 	 	 	 	 	 	 	 	 	 	 	 	1581496270	7.68	14.22
12/02/2020 08:31:11	120220	12022020	083111	186.15	12.813797	-57.130685	186.16	-0.080	-1.750	3.020	186.15	-3.10	3.60	 	 	 	 	 	 	 	 	 	 	 	 	 	 	 	 	 	 	1581496271	7.96	14.74
12/02/2020 08:31:12	120220	12022020	083112	185.12	12.813762	-57.130700	185.21	0.100	-0.960	3.960	185.12	-2.20	4.40	 	 	 	 	 	 	 	 	 	 	 	 	 	 	 	 	 	 	1581496272	8.18	15.15
12/02/2020 08:31:13	120220	12022020	083113	184.90	12.813728	-57.130713	185.08	0.090	0.590	3.840	184.90	-0.70	4.30	 	 	 	 	 	 	 	 	 	 	 	 	 	 	 	 	 	 	1581496273	7.59	14.06
12/02/2020 08:31:14	120220	12022020	083114	185.56	12.813700	-57.130720	185.77	-0.300	2.070	2.920	185.56	0.80	3.30	 	 	 	 	 	 	 	 	 	 	 	 	 	 	 	 	 	 	1581496274	6.52	12.08
12/02/2020 08:31:15	120220	12022020	083115	186.51	12.813672	-57.130723	186.69	-0.810	2.320	1.920	186.51	0.90	2.40	 	 	 	 	 	 	 	 	 	 	 	 	 	 	 	 	 	 	1581496275	6.08	11.26
12/02/2020 08:31:16	120220	12022020	083116	186.98	12.813640	-57.130728	187.14	-0.860	0.970	1.420	187.04	-0.50	1.90	 	 	 	 	 	 	 	 	 	 	 	 	 	 	 	 	 	 	1581496276	6.87	12.72
12/02/2020 08:31:17	120220	12022020	083117	187.08	12.813602	-57.130737	187.17	-0.220	-0.850	1.370	187.08	-2.30	1.90	 	 	 	 	 	 	 	 	 	 	 	 	 	 	 	 	 	 	1581496277	8.24	15.26
12/02/2020 08:31:18	120220	12022020	083118	187.02	12.813563	-57.130747	187.13	0.650	-1.830	1.380	187.02	-3.20	1.90	 	 	 	 	 	 	 	 	 	 	 	 	 	 	 	 	 	 	1581496278	8.56	15.85
12/02/2020 08:31:19	120220	12022020	083119	186.98	12.813528	-57.130753	187.10	1.060	-1.710	1.430	186.98	-3.00	1.90	 	 	 	 	 	 	 	 	 	 	 	 	 	 	 	 	 	 	1581496279	7.55	13.98
12/02/2020 08:31:20	120220	12022020	083120	186.88	12.813500	-57.130760	186.97	0.780	-1.040	1.540	186.88	-2.40	2.00	 	 	 	 	 	 	 	 	 	 	 	 	 	 	 	 	 	 	1581496280	6.48	12.00
12/02/2020 08:31:21	120220	12022020	083121	186.55	12.813472	-57.130765	186.62	0.220	-0.530	1.740	186.55	-1.90	2.20	 	 	 	 	 	 	 	 	 	 	 	 	 	 	 	 	 	 	1581496281	6.15	11.39
12/02/2020 08:31:22	120220	12022020	083122	185.93	12.813442	-57.130772	185.99	-0.050	-0.580	2.280	185.93	-2.00	2.80	 	 	 	 	 	 	 	 	 	 	 	 	 	 	 	 	 	 	1581496282	6.64	12.30
12/02/2020 08:31:23	120220	12022020	083123	185.29	12.813407	-57.130782	185.37	0.010	-0.830	2.970	185.29	-2.20	3.50	 	 	 	 	 	 	 	 	 	 	 	 	 	 	 	 	 	 	1581496283	7.69	14.24
12/02/2020 08:31:24	120220	12022020	083124	185.08	12.813370	-57.130792	185.24	-0.030	-0.420	3.360	185.08	-1.70	3.80	 	 	 	 	 	 	 	 	 	 	 	 	 	 	 	 	 	 	1581496284	8.22	15.22
12/02/2020 08:31:25	120220	12022020	083125	185.58	12.813337	-57.130802	185.81	-0.440	0.730	3.340	185.58	-0.60	3.80	 	 	 	 	 	 	 	 	 	 	 	 	 	 	 	 	 	 	1581496285	7.58	14.04
12/02/2020 08:31:26	120220	12022020	083126	186.52	12.813307	-57.130810	186.75	-0.910	1.700	2.910	186.52	0.30	3.40	 	 	 	 	 	 	 	 	 	 	 	 	 	 	 	 	 	 	1581496286	6.52	12.08
12/02/2020 08:31:27	120220	12022020	083127	187.26	12.813278	-57.130818	187.43	-0.930	1.430	2.320	187.26	0.00	2.80	 	 	 	 	 	 	 	 	 	 	 	 	 	 	 	 	 	 	1581496287	6.29	11.65
12/02/2020 08:31:28	120220	12022020	083128	187.52	12.813245	-57.130825	187.64	-0.340	0.060	1.910	187.52	-1.40	2.40	 	 	 	 	 	 	 	 	 	 	 	 	 	 	 	 	 	 	1581496288	7.31	13.54
12/02/2020 08:31:29	120220	12022020	083129	187.41	12.813208	-57.130832	187.51	0.400	-1.220	1.770	187.41	-2.60	2.30	 	 	 	 	 	 	 	 	 	 	 	 	 	 	 	 	 	 	1581496289	8.28	15.33
12/02/2020 08:31:30	120220	12022020	083130	187.13	12.813172	-57.130840	187.22	0.770	-1.450	1.780	187.13	-2.80	2.30	 	 	 	 	 	 	 	 	 	 	 	 	 	 	 	 	 	 	1581496290	7.99	14.80
12/02/2020 08:31:31	120220	12022020	083131	186.77	12.813140	-57.130845	186.85	0.680	-0.880	1.760	186.77	-2.20	2.30	 	 	 	 	 	 	 	 	 	 	 	 	 	 	 	 	 	 	1581496291	6.83	12.65
12/02/2020 08:31:32	120220	12022020	083132	186.22	12.813112	-57.130850	186.28	0.440	-0.410	1.750	186.22	-1.80	2.30	 	 	 	 	 	 	 	 	 	 	 	 	 	 	 	 	 	 	1581496292	6.14	11.37
12/02/2020 08:31:33	120220	12022020	083133	185.63	12.813082	-57.130857	185.68	0.360	-0.420	1.830	185.63	-1.80	2.30	 	 	 	 	 	 	 	 	 	 	 	 	 	 	 	 	 	 	1581496293	6.58	12.19
12/02/2020 08:31:34	120220	12022020	083134	185.46	12.813048	-57.130863	185.56	0.330	-0.300	1.760	185.46	-1.60	2.30	 	 	 	 	 	 	 	 	 	 	 	 	 	 	 	 	 	 	1581496294	7.41	13.72
12/02/2020 08:31:35	120220	12022020	083135	186.01	12.813015	-57.130868	186.16	0.070	0.260	1.570	186.01	-1.10	2.10	 	 	 	 	 	 	 	 	 	 	 	 	 	 	 	 	 	 	1581496295	7.31	13.54
12/02/2020 08:31:36	120220	12022020	083136	186.93	12.812983	-57.130875	187.09	-0.440	0.660	1.590	186.93	-0.70	2.10	 	 	 	 	 	 	 	 	 	 	 	 	 	 	 	 	 	 	1581496296	6.66	12.33
12/02/2020 08:31:37	120220	12022020	083137	187.40	12.812955	-57.130883	187.49	-0.780	0.170	2.120	187.40	-1.30	2.70	 	 	 	 	 	 	 	 	 	 	 	 	 	 	 	 	 	 	1581496297	6.63	12.28
12/02/2020 08:31:38	120220	12022020	083138	187.02	12.812922	-57.130895	187.08	-0.670	-1.020	3.190	187.02	-2.40	3.70	 	 	 	 	 	 	 	 	 	 	 	 	 	 	 	 	 	 	1581496298	7.63	14.13
12/02/2020 08:31:39	120220	12022020	083139	186.24	12.812883	-57.130910	186.31	-0.360	-1.660	4.180	186.24	-3.00	4.70	 	 	 	 	 	 	 	 	 	 	 	 	 	 	 	 	 	 	1581496299	8.62	15.96
12/02/2020 08:31:40	120220	12022020	083140	185.56	12.812848	-57.130927	185.67	-0.110	-1.050	4.550	185.56	-2.30	5.00	 	 	 	 	 	 	 	 	 	 	 	 	 	 	 	 	 	 	1581496300	8.24	15.26
12/02/2020 08:31:41	120220	12022020	083141	185.21	12.812820	-57.130940	185.33	0.130	0.230	4.130	185.21	-1.10	4.60	 	 	 	 	 	 	 	 	 	 	 	 	 	 	 	 	 	 	1581496301	6.95	12.87
12/02/2020 08:31:42	120220	12022020	083142	185.19	12.812792	-57.130947	185.32	0.560	1.030	2.940	185.21	-0.30	3.30	 	 	 	 	 	 	 	 	 	 	 	 	 	 	 	 	 	 	1581496302	6.05	11.20
12/02/2020 08:31:43	120220	12022020	083143	185.34	12.812762	-57.130945	185.42	1.040	0.730	1.480	185.34	-0.70	1.90	 	 	 	 	 	 	 	 	 	 	 	 	 	 	 	 	 	 	1581496303	6.51	12.06
12/02/2020 08:31:44	120220	12022020	083144	185.54	12.812727	-57.130940	185.62	1.070	-0.120	0.610	185.54	-1.50	1.10	 	 	 	 	 	 	 	 	 	 	 	 	 	 	 	 	 	 	1581496304	7.77	14.39
12/02/2020 08:31:45	120220	12022020	083145	185.90	12.812688	-57.130937	186.00	0.410	-0.690	0.750	185.90	-2.10	1.30	 	 	 	 	 	 	 	 	 	 	 	 	 	 	 	 	 	 	1581496305	7.98	14.78
12/02/2020 08:31:46	120220	12022020	083146	186.11	12.812655	-57.130943	186.19	-0.530	-0.750	1.700	186.11	-2.10	2.30	 	 	 	 	 	 	 	 	 	 	 	 	 	 	 	 	 	 	1581496306	7.32	13.56
12/02/2020 08:31:47	120220	12022020	083147	185.99	12.812625	-57.130957	186.08	-1.060	-0.620	3.020	185.99	-2.00	3.60	 	 	 	 	 	 	 	 	 	 	 	 	 	 	 	 	 	 	1581496307	7.09	13.13
12/02/2020 08:31:48	120220	12022020	083148	185.73	12.812595	-57.130973	185.83	-0.950	-0.560	3.950	185.73	-1.90	4.50	 	 	 	 	 	 	 	 	 	 	 	 	 	 	 	 	 	 	1581496308	7.31	13.54
12/02/2020 08:31:49	120220	12022020	083149	185.42	12.812565	-57.130990	185.53	-0.470	-0.580	4.190	185.42	-1.90	4.60	 	 	 	 	 	 	 	 	 	 	 	 	 	 	 	 	 	 	1581496309	7.45	13.80
12/02/2020 08:31:50	120220	12022020	083150	185.03	12.812532	-57.131002	185.11	0.050	-0.620	3.790	185.03	-2.00	4.20	 	 	 	 	 	 	 	 	 	 	 	 	 	 	 	 	 	 	1581496310	7.43	13.76
12/02/2020 08:31:51	120220	12022020	083151	184.63	12.812498	-57.131008	184.71	0.430	-0.520	2.890	184.63	-1.90	3.30	 	 	 	 	 	 	 	 	 	 	 	 	 	 	 	 	 	 	1581496311	7.41	13.72
12/02/2020 08:31:52	120220	12022020	083152	184.52	12.812465	-57.131010	184.61	0.580	-0.050	1.710	184.52	-1.40	2.10	 	 	 	 	 	 	 	 	 	 	 	 	 	 	 	 	 	 	1581496312	7.28	13.48
12/02/2020 08:31:53	120220	12022020	083153	184.76	12.812433	-57.131010	184.84	0.510	0.590	0.580	184.76	-0.80	1.00	 	 	 	 	 	 	 	 	 	 	 	 	 	 	 	 	 	 	1581496313	6.88	12.74
12/02/2020 08:31:54	120220	12022020	083154	185.10	12.812402	-57.131007	185.16	0.360	0.720	-0.070	185.10	-0.70	0.40	 	 	 	 	 	 	 	 	 	 	 	 	 	 	 	 	 	 	1581496314	6.62	12.26
12/02/2020 08:31:55	120220	12022020	083155	185.49	12.812370	-57.131007	185.54	0.210	0.230	-0.060	185.49	-1.20	0.50	 	 	 	 	 	 	 	 	 	 	 	 	 	 	 	 	 	 	1581496315	6.98	12.93
12/02/2020 08:31:56	120220	12022020	083156	185.93	12.812335	-57.131012	185.99	0.030	-0.520	0.510	185.93	-1.90	1.10	 	 	 	 	 	 	 	 	 	 	 	 	 	 	 	 	 	 	1581496316	7.48	13.85
12/02/2020 08:31:57	120220	12022020	083157	186.02	12.812300	-57.131020	186.06	-0.140	-1.300	1.720	186.02	-2.70	2.30	 	 	 	 	 	 	 	 	 	 	 	 	 	 	 	 	 	 	1581496317	7.67	14.20
12/02/2020 08:31:58	120220	12022020	083158	185.43	12.812265	-57.131033	185.48	-0.280	-1.810	3.330	185.43	-3.20	3.90	 	 	 	 	 	 	 	 	 	 	 	 	 	 	 	 	 	 	1581496318	7.99	14.80
12/02/2020 08:31:59	120220	12022020	083159	184.50	12.812230	-57.131050	184.59	-0.450	-1.340	4.690	184.50	-2.70	5.20	 	 	 	 	 	 	 	 	 	 	 	 	 	 	 	 	 	 	1581496319	8.19	15.17
12/02/2020 08:32:00	120220	12022020	083200	183.92	12.812200	-57.131065	184.07	-0.640	0.100	5.080	183.92	-1.20	5.50	 	 	 	 	 	 	 	 	 	 	 	 	 	 	 	 	 	 	1581496320	7.49	13.87
12/02/2020 08:32:01	120220	12022020	083201	183.92	12.812172	-57.131077	184.07	-0.620	1.390	4.350	183.92	0.00	4.70	1015.10	26.10	26.10	20.50	20.60	-1.0	71.0	71.0	393.0	25.7	268.00	10.20	74.00	11.00	16	10336.0	27.4	27.4	1581496321	6.35	11.76
12/02/2020 08:32:02	120220	12022020	083202	184.24	12.812145	-57.131082	184.36	-0.200	1.470	2.900	184.24	0.00	3.30	 	 	 	 	 	 	 	 	 	 	 	 	 	 	 	 	 	 	1581496322	6.11	11.32
12/02/2020 08:32:03	120220	12022020	083203	184.53	12.812112	-57.131082	184.60	0.420	0.440	1.530	184.53	-1.00	2.00	 	 	 	 	 	 	 	 	 	 	 	 	 	 	 	 	 	 	1581496323	7.18	13.30
12/02/2020 08:32:04	120220	12022020	083204	184.71	12.812073	-57.131080	184.76	0.850	-0.680	0.600	184.71	-2.10	1.10	 	 	 	 	 	 	 	 	 	 	 	 	 	 	 	 	 	 	1581496324	8.14	15.08
12/02/2020 08:32:05	120220	12022020	083205	184.84	12.812037	-57.131078	184.86	0.800	-1.190	0.230	184.84	-2.60	0.70	 	 	 	 	 	 	 	 	 	 	 	 	 	 	 	 	 	 	1581496325	7.97	14.76
12/02/2020 08:32:06	120220	12022020	083206	184.82	12.812003	-57.131080	184.84	0.380	-1.220	0.570	184.81	-2.60	1.10	 	 	 	 	 	 	 	 	 	 	 	 	 	 	 	 	 	 	1581496326	7.20	13.33
12/02/2020 08:32:07	120220	12022020	083207	184.56	12.811972	-57.131085	184.60	-0.060	-1.070	1.490	184.56	-2.40	2.00	 	 	 	 	 	 	 	 	 	 	 	 	 	 	 	 	 	 	1581496327	6.84	12.67
12/02/2020 08:32:08	120220	12022020	083208	184.19	12.811940	-57.131095	184.24	-0.270	-0.780	2.470	184.19	-2.10	3.00	 	 	 	 	 	 	 	 	 	 	 	 	 	 	 	 	 	 	1581496328	7.06	13.08
12/02/2020 08:32:09	120220	12022020	083209	183.98	12.811908	-57.131107	184.06	-0.290	-0.280	2.890	183.98	-1.60	3.40	 	 	 	 	 	 	 	 	 	 	 	 	 	 	 	 	 	 	1581496329	7.29	13.50
12/02/2020 08:32:10	120220	12022020	083210	183.95	12.811877	-57.131117	184.03	-0.290	0.220	2.880	183.95	-1.10	3.30	 	 	 	 	 	 	 	 	 	 	 	 	 	 	 	 	 	 	1581496330	7.09	13.13
12/02/2020 08:32:11	120220	12022020	083211	183.88	12.811845	-57.131122	183.94	-0.340	0.310	2.830	183.88	-1.10	3.30	 	 	 	 	 	 	 	 	 	 	 	 	 	 	 	 	 	 	1581496331	7.05	13.06
12/02/2020 08:32:12	120220	12022020	083212	183.79	12.811810	-57.131128	183.86	-0.460	0.110	2.840	183.79	-1.30	3.30	 	 	 	 	 	 	 	 	 	 	 	 	 	 	 	 	 	 	1581496332	7.48	13.85
12/02/2020 08:32:13	120220	12022020	083213	183.88	12.811775	-57.131135	183.96	-0.560	0.040	2.760	183.88	-1.30	3.20	 	 	 	 	 	 	 	 	 	 	 	 	 	 	 	 	 	 	1581496333	7.70	14.26
12/02/2020 08:32:14	120220	12022020	083214	184.03	12.811742	-57.131143	184.10	-0.430	0.160	2.410	184.03	-1.20	2.90	 	 	 	 	 	 	 	 	 	 	 	 	 	 	 	 	 	 	1581496334	7.45	13.80
12/02/2020 08:32:15	120220	12022020	083215	184.19	12.811708	-57.131148	184.24	0.050	0.190	1.600	184.19	-1.20	2.00	 	 	 	 	 	 	 	 	 	 	 	 	 	 	 	 	 	 	1581496335	7.07	13.09
12/02/2020 08:32:16	120220	12022020	083216	184.53	12.811675	-57.131150	184.58	0.620	0.040	0.570	184.53	-1.40	1.00	 	 	 	 	 	 	 	 	 	 	 	 	 	 	 	 	 	 	1581496336	7.07	13.09
12/02/2020 08:32:17	120220	12022020	083217	184.93	12.811643	-57.131148	184.97	0.870	-0.160	-0.020	184.93	-1.60	0.50	 	 	 	 	 	 	 	 	 	 	 	 	 	 	 	 	 	 	1581496337	7.16	13.26
12/02/2020 08:32:18	120220	12022020	083218	185.08	12.811610	-57.131147	185.08	0.670	-0.400	-0.010	185.08	-1.80	0.50	 	 	 	 	 	 	 	 	 	 	 	 	 	 	 	 	 	 	1581496338	7.01	12.98
12/02/2020 08:32:19	120220	12022020	083219	184.90	12.811578	-57.131148	184.89	0.220	-0.750	0.580	184.90	-2.10	1.10	 	 	 	 	 	 	 	 	 	 	 	 	 	 	 	 	 	 	1581496339	6.96	12.89
12/02/2020 08:32:20	120220	12022020	083220	184.47	12.811545	-57.131157	184.49	-0.150	-1.210	1.640	184.47	-2.60	2.20	 	 	 	 	 	 	 	 	 	 	 	 	 	 	 	 	 	 	1581496340	7.28	13.48
12/02/2020 08:32:21	120220	12022020	083221	183.95	12.811510	-57.131168	183.98	-0.250	-1.380	2.680	183.95	-2.70	3.20	 	 	 	 	 	 	 	 	 	 	 	 	 	 	 	 	 	 	1581496341	7.84	14.52
12/02/2020 08:32:22	120220	12022020	083222	183.60	12.811475	-57.131180	183.69	-0.270	-0.890	3.250	183.60	-2.20	3.70	 	 	 	 	 	 	 	 	 	 	 	 	 	 	 	 	 	 	1581496342	7.85	14.54
12/02/2020 08:32:23	120220	12022020	083223	183.57	12.811443	-57.131190	183.66	-0.420	-0.040	3.160	183.57	-1.40	3.60	 	 	 	 	 	 	 	 	 	 	 	 	 	 	 	 	 	 	1581496343	7.25	13.43
12/02/2020 08:32:24	120220	12022020	083224	183.78	12.811412	-57.131197	183.87	-0.710	0.560	2.590	183.78	-0.80	3.00	 	 	 	 	 	 	 	 	 	 	 	 	 	 	 	 	 	 	1581496344	6.84	12.67
12/02/2020 08:32:25	120220	12022020	083225	184.14	12.811380	-57.131200	184.23	-0.890	0.650	2.000	184.14	-0.70	2.40	 	 	 	 	 	 	 	 	 	 	 	 	 	 	 	 	 	 	1581496345	7.02	13.00
12/02/2020 08:32:26	120220	12022020	083226	184.56	12.811345	-57.131207	184.62	-0.670	0.470	1.380	184.56	-0.90	1.80	 	 	 	 	 	 	 	 	 	 	 	 	 	 	 	 	 	 	1581496346	7.41	13.72
12/02/2020 08:32:27	120220	12022020	083227	184.86	12.811312	-57.131212	184.89	-0.010	0.090	0.820	184.86	-1.30	1.30	 	 	 	 	 	 	 	 	 	 	 	 	 	 	 	 	 	 	1581496347	7.51	13.91
12/02/2020 08:32:28	120220	12022020	083228	184.98	12.811277	-57.131215	185.00	0.760	-0.320	0.520	184.98	-1.70	1.00	 	 	 	 	 	 	 	 	 	 	 	 	 	 	 	 	 	 	1581496348	7.59	14.06
12/02/2020 08:32:29	120220	12022020	083229	184.95	12.811240	-57.131217	184.97	1.120	-0.450	0.500	184.95	-1.80	1.00	 	 	 	 	 	 	 	 	 	 	 	 	 	 	 	 	 	 	1581496349	7.58	14.04
12/02/2020 08:32:30	120220	12022020	083230	184.87	12.811207	-57.131217	184.92	0.860	-0.170	0.630	184.87	-1.50	1.10	 	 	 	 	 	 	 	 	 	 	 	 	 	 	 	 	 	 	1581496350	7.19	13.32
12/02/2020 08:32:31	120220	12022020	083231	184.90	12.811177	-57.131218	184.96	0.220	0.140	0.960	184.90	-1.20	1.50	 	 	 	 	 	 	 	 	 	 	 	 	 	 	 	 	 	 	1581496351	6.67	12.35
12/02/2020 08:32:32	120220	12022020	083232	184.86	12.811147	-57.131225	184.87	-0.290	-0.120	1.630	184.82	-1.50	2.20	 	 	 	 	 	 	 	 	 	 	 	 	 	 	 	 	 	 	1581496352	6.59	12.20
12/02/2020 08:32:33	120220	12022020	083233	184.53	12.811113	-57.131233	184.58	-0.390	-0.830	2.500	184.53	-2.20	3.00	 	 	 	 	 	 	 	 	 	 	 	 	 	 	 	 	 	 	1581496353	7.41	13.72
12/02/2020 08:32:34	120220	12022020	083234	184.24	12.811077	-57.131247	184.30	-0.190	-1.210	3.180	184.24	-2.60	3.70	 	 	 	 	 	 	 	 	 	 	 	 	 	 	 	 	 	 	1581496354	8.10	15.00
12/02/2020 08:32:35	120220	12022020	083235	184.10	12.811043	-57.131258	184.20	-0.000	-0.920	3.300	184.10	-2.20	3.80	 	 	 	 	 	 	 	 	 	 	 	 	 	 	 	 	 	 	1581496355	7.84	14.52
12/02/2020 08:32:36	120220	12022020	083236	184.11	12.811010	-57.131265	184.19	0.000	-0.410	2.940	184.11	-1.70	3.40	 	 	 	 	 	 	 	 	 	 	 	 	 	 	 	 	 	 	1581496356	7.11	13.17
12/02/2020 08:32:37	120220	12022020	083237	184.07	12.810978	-57.131270	184.13	-0.110	-0.110	2.480	184.07	-1.40	2.90	 	 	 	 	 	 	 	 	 	 	 	 	 	 	 	 	 	 	1581496357	6.97	12.91
12/02/2020 08:32:38	120220	12022020	083238	184.01	12.810945	-57.131273	184.09	-0.190	0.070	2.030	184.01	-1.30	2.50	 	 	 	 	 	 	 	 	 	 	 	 	 	 	 	 	 	 	1581496358	7.31	13.54
12/02/2020 08:32:39	120220	12022020	083239	184.15	12.810910	-57.131277	184.25	-0.150	0.330	1.480	184.15	-1.00	1.90	 	 	 	 	 	 	 	 	 	 	 	 	 	 	 	 	 	 	1581496359	7.46	13.82
12/02/2020 08:32:40	120220	12022020	083240	184.48	12.810877	-57.131280	184.57	0.040	0.550	0.840	184.48	-0.80	1.30	 	 	 	 	 	 	 	 	 	 	 	 	 	 	 	 	 	 	1581496360	7.26	13.45
12/02/2020 08:32:41	120220	12022020	083241	184.91	12.810843	-57.131282	184.99	0.260	0.500	0.330	184.91	-0.90	0.80	 	 	 	 	 	 	 	 	 	 	 	 	 	 	 	 	 	 	1581496361	7.12	13.19
12/02/2020 08:32:42	120220	12022020	083242	185.16	12.810810	-57.131282	185.24	0.360	-0.030	0.270	185.19	-1.40	0.80	 	 	 	 	 	 	 	 	 	 	 	 	 	 	 	 	 	 	1581496362	7.20	13.33
12/02/2020 08:32:43	120220	12022020	083243	185.10	12.810775	-57.131285	185.13	0.300	-0.970	0.820	185.10	-2.30	1.40	 	 	 	 	 	 	 	 	 	 	 	 	 	 	 	 	 	 	1581496363	7.55	13.98
12/02/2020 08:32:44	120220	12022020	083244	184.77	12.810738	-57.131290	184.70	0.100	-1.700	1.930	184.67	-3.00	2.50	 	 	 	 	 	 	 	 	 	 	 	 	 	 	 	 	 	 	1581496364	8.02	14.85
12/02/2020 08:32:45	120220	12022020	083245	184.08	12.810702	-57.131300	184.14	-0.140	-1.560	3.110	184.08	-2.90	3.60	 	 	 	 	 	 	 	 	 	 	 	 	 	 	 	 	 	 	1581496365	8.13	15.06
12/02/2020 08:32:46	120220	12022020	083246	183.59	12.810668	-57.131313	183.69	-0.300	-0.660	3.790	183.59	-1.90	4.30	 	 	 	 	 	 	 	 	 	 	 	 	 	 	 	 	 	 	1581496366	7.64	14.15
12/02/2020 08:32:47	120220	12022020	083247	183.48	12.810637	-57.131323	183.60	-0.310	0.420	3.660	183.48	-0.90	4.10	 	 	 	 	 	 	 	 	 	 	 	 	 	 	 	 	 	 	1581496367	7.13	13.20
12/02/2020 08:32:48	120220	12022020	083248	183.85	12.810605	-57.131330	183.99	-0.210	1.170	2.740	183.85	-0.10	3.20	 	 	 	 	 	 	 	 	 	 	 	 	 	 	 	 	 	 	1581496368	6.87	12.72
12/02/2020 08:32:49	120220	12022020	083249	184.61	12.810573	-57.131332	184.73	-0.140	1.340	1.500	184.61	0.00	2.00	 	 	 	 	 	 	 	 	 	 	 	 	 	 	 	 	 	 	1581496369	6.90	12.78
12/02/2020 08:32:50	120220	12022020	083250	185.25	12.810540	-57.131332	185.30	-0.040	0.750	0.540	185.25	-0.60	1.00	 	 	 	 	 	 	 	 	 	 	 	 	 	 	 	 	 	 	1581496370	7.11	13.17
12/02/2020 08:32:51	120220	12022020	083251	185.46	12.810505	-57.131333	185.50	0.170	-0.350	0.160	185.46	-1.70	0.70	 	 	 	 	 	 	 	 	 	 	 	 	 	 	 	 	 	 	1581496371	7.57	14.02
12/02/2020 08:32:52	120220	12022020	083252	185.37	12.810468	-57.131335	185.40	0.490	-1.310	0.350	185.37	-2.70	0.90	 	 	 	 	 	 	 	 	 	 	 	 	 	 	 	 	 	 	1581496372	7.95	14.72
12/02/2020 08:32:53	120220	12022020	083253	185.07	12.810432	-57.131340	185.10	0.760	-1.750	0.950	185.07	-3.10	1.50	 	 	 	 	 	 	 	 	 	 	 	 	 	 	 	 	 	 	1581496373	7.83	14.50
12/02/2020 08:32:54	120220	12022020	083254	184.76	12.810397	-57.131347	184.78	0.760	-1.600	1.580	184.70	-2.90	2.10	 	 	 	 	 	 	 	 	 	 	 	 	 	 	 	 	 	 	1581496374	7.60	14.08
12/02/2020 08:32:55	120220	12022020	083255	184.71	12.810363	-57.131353	184.85	0.360	-0.780	1.860	184.71	-2.10	2.40	 	 	 	 	 	 	 	 	 	 	 	 	 	 	 	 	 	 	1581496375	7.35	13.61
12/02/2020 08:32:56	120220	12022020	083256	185.03	12.810332	-57.131358	185.26	-0.290	0.250	1.910	185.12	-1.00	2.40	 	 	 	 	 	 	 	 	 	 	 	 	 	 	 	 	 	 	1581496376	6.84	12.67
12/02/2020 08:32:57	120220	12022020	083257	185.56	12.810302	-57.131365	185.69	-0.810	0.690	2.030	185.56	-0.70	2.50	 	 	 	 	 	 	 	 	 	 	 	 	 	 	 	 	 	 	1581496377	6.68	12.37
12/02/2020 08:32:58	120220	12022020	083258	185.70	12.810268	-57.131373	185.78	-0.970	0.240	2.390	185.70	-1.10	2.90	 	 	 	 	 	 	 	 	 	 	 	 	 	 	 	 	 	 	1581496378	7.33	13.58
12/02/2020 08:32:59	120220	12022020	083259	185.36	12.810232	-57.131383	185.43	-0.730	-0.490	2.930	185.36	-1.80	3.40	 	 	 	 	 	 	 	 	 	 	 	 	 	 	 	 	 	 	1581496379	8.30	15.37
12/02/2020 08:33:00	120220	12022020	083300	185.02	12.810193	-57.131395	185.13	-0.390	-0.540	3.150	185.02	-1.90	3.60	 	 	 	 	 	 	 	 	 	 	 	 	 	 	 	 	 	 	1581496380	8.66	16.04
12/02/2020 08:33:01	120220	12022020	083301	185.07	12.810158	-57.131405	185.21	-0.060	0.210	2.750	185.07	-1.10	3.20	1015.00	26.20	26.20	20.70	20.80	-1.0	72.0	72.0	393.0	25.7	279.00	10.10	82.00	10.30	16	9555.0	27.5	27.4	1581496381	7.84	14.52
12/02/2020 08:33:02	120220	12022020	083302	185.47	12.810127	-57.131410	185.61	0.330	0.980	1.750	185.47	-0.40	2.20	 	 	 	 	 	 	 	 	 	 	 	 	 	 	 	 	 	 	1581496382	6.75	12.50
12/02/2020 08:33:03	120220	12022020	083303	186.04	12.810097	-57.131410	186.16	0.780	0.940	0.520	186.04	-0.40	1.00	 	 	 	 	 	 	 	 	 	 	 	 	 	 	 	 	 	 	1581496383	6.60	12.22
12/02/2020 08:33:04	120220	12022020	083304	186.51	12.810062	-57.131405	186.57	1.030	0.060	-0.170	186.51	-1.40	0.30	 	 	 	 	 	 	 	 	 	 	 	 	 	 	 	 	 	 	1581496384	7.38	13.67
12/02/2020 08:33:05	120220	12022020	083305	186.68	12.810025	-57.131405	186.73	0.830	-1.010	0.150	186.68	-2.40	0.70	 	 	 	 	 	 	 	 	 	 	 	 	 	 	 	 	 	 	1581496385	7.94	14.70
12/02/2020 08:33:06	120220	12022020	083306	186.56	12.809988	-57.131410	186.52	0.230	-1.690	1.370	186.48	-3.00	1.90	 	 	 	 	 	 	 	 	 	 	 	 	 	 	 	 	 	 	1581496386	7.88	14.59
12/02/2020 08:33:07	120220	12022020	083307	185.77	12.809955	-57.131422	185.82	-0.340	-1.960	3.050	185.77	-3.30	3.60	 	 	 	 	 	 	 	 	 	 	 	 	 	 	 	 	 	 	1581496387	7.74	14.33
12/02/2020 08:33:08	120220	12022020	083308	185.02	12.809922	-57.131438	184.98	-0.580	-1.790	4.450	184.87	-3.10	5.00	 	 	 	 	 	 	 	 	 	 	 	 	 	 	 	 	 	 	1581496388	8.10	15.00
12/02/2020 08:33:09	120220	12022020	083309	184.27	12.809887	-57.131457	184.45	-0.530	-1.030	4.920	184.27	-2.30	5.40	 	 	 	 	 	 	 	 	 	 	 	 	 	 	 	 	 	 	1581496389	8.23	15.24
12/02/2020 08:33:10	120220	12022020	083310	184.17	12.809853	-57.131468	184.40	-0.380	0.170	4.290	184.19	-1.10	4.70	 	 	 	 	 	 	 	 	 	 	 	 	 	 	 	 	 	 	1581496390	7.67	14.20
12/02/2020 08:33:11	120220	12022020	083311	184.60	12.809822	-57.131473	184.80	-0.320	1.210	2.910	184.60	-0.10	3.30	 	 	 	 	 	 	 	 	 	 	 	 	 	 	 	 	 	 	1581496391	7.04	13.04
12/02/2020 08:33:12	120220	12022020	083312	185.41	12.809788	-57.131472	185.60	-0.440	1.620	1.410	185.41	0.30	1.90	 	 	 	 	 	 	 	 	 	 	 	 	 	 	 	 	 	 	1581496392	7.08	13.11
12/02/2020 08:33:13	120220	12022020	083313	186.49	12.809753	-57.131470	186.66	-0.570	1.410	0.340	186.49	0.00	0.80	 	 	 	 	 	 	 	 	 	 	 	 	 	 	 	 	 	 	1581496393	7.36	13.63
12/02/2020 08:33:14	120220	12022020	083314	187.36	12.809720	-57.131473	187.47	-0.290	0.720	-0.110	187.36	-0.70	0.40	 	 	 	 	 	 	 	 	 	 	 	 	 	 	 	 	 	 	1581496394	7.39	13.69
12/02/2020 08:33:15	120220	12022020	083315	187.51	12.809685	-57.131480	187.55	0.660	-0.420	0.050	187.51	-1.80	0.60	 	 	 	 	 	 	 	 	 	 	 	 	 	 	 	 	 	 	1581496395	7.53	13.95
12/02/2020 08:33:16	120220	12022020	083316	187.16	12.809648	-57.131485	187.20	1.610	-1.400	0.500	187.16	-2.80	1.00	 	 	 	 	 	 	 	 	 	 	 	 	 	 	 	 	 	 	1581496396	7.93	14.69
12/02/2020 08:33:17	120220	12022020	083317	186.79	12.809612	-57.131488	186.85	1.610	-1.730	1.270	186.79	-3.10	1.80	 	 	 	 	 	 	 	 	 	 	 	 	 	 	 	 	 	 	1581496397	7.86	14.56
12/02/2020 08:33:18	120220	12022020	083318	186.45	12.809578	-57.131492	186.41	0.630	-1.610	2.510	186.35	-2.90	3.10	 	 	 	 	 	 	 	 	 	 	 	 	 	 	 	 	 	 	1581496398	7.30	13.52
12/02/2020 08:33:19	120220	12022020	083319	185.73	12.809547	-57.131503	185.83	-0.600	-1.310	3.990	185.73	-2.60	4.50	 	 	 	 	 	 	 	 	 	 	 	 	 	 	 	 	 	 	1581496399	7.33	13.58
12/02/2020 08:33:20	120220	12022020	083320	185.26	12.809513	-57.131522	185.43	-1.360	-0.760	5.000	185.26	-2.00	5.50	 	 	 	 	 	 	 	 	 	 	 	 	 	 	 	 	 	 	1581496400	7.96	14.74
12/02/2020 08:33:21	120220	12022020	083321	185.18	12.809480	-57.131540	185.39	-1.440	-0.010	5.120	185.18	-1.30	5.60	 	 	 	 	 	 	 	 	 	 	 	 	 	 	 	 	 	 	1581496401	8.16	15.11
12/02/2020 08:33:22	120220	12022020	083322	185.38	12.809447	-57.131557	185.70	-1.050	0.740	4.260	185.47	-0.60	4.70	 	 	 	 	 	 	 	 	 	 	 	 	 	 	 	 	 	 	1581496402	7.84	14.52
12/02/2020 08:33:23	120220	12022020	083323	186.18	12.809415	-57.131565	186.39	-0.530	1.270	2.600	186.18	-0.10	3.00	 	 	 	 	 	 	 	 	 	 	 	 	 	 	 	 	 	 	1581496403	7.38	13.67
12/02/2020 08:33:24	120220	12022020	083324	186.92	12.809382	-57.131567	187.07	0.070	1.230	0.850	186.92	-0.10	1.30	 	 	 	 	 	 	 	 	 	 	 	 	 	 	 	 	 	 	1581496404	7.16	13.26
12/02/2020 08:33:25	120220	12022020	083325	187.28	12.809347	-57.131565	187.36	0.810	0.510	-0.420	187.28	-0.90	0.10	 	 	 	 	 	 	 	 	 	 	 	 	 	 	 	 	 	 	1581496405	7.52	13.93
12/02/2020 08:33:26	120220	12022020	083326	187.52	12.809308	-57.131560	187.60	1.360	-0.300	-1.070	187.52	-1.70	-0.60	 	 	 	 	 	 	 	 	 	 	 	 	 	 	 	 	 	 	1581496406	8.15	15.09
12/02/2020 08:33:27	120220	12022020	083327	187.80	12.809272	-57.131557	187.85	1.290	-0.850	-0.700	187.80	-2.20	-0.10	 	 	 	 	 	 	 	 	 	 	 	 	 	 	 	 	 	 	1581496407	7.95	14.72
12/02/2020 08:33:28	120220	12022020	083328	187.70	12.809237	-57.131560	187.73	0.640	-1.370	0.790	187.70	-2.70	1.40	 	 	 	 	 	 	 	 	 	 	 	 	 	 	 	 	 	 	1581496408	7.35	13.61
12/02/2020 08:33:29	120220	12022020	083329	187.01	12.809205	-57.131572	187.04	-0.120	-1.820	2.940	187.01	-3.20	3.60	 	 	 	 	 	 	 	 	 	 	 	 	 	 	 	 	 	 	1581496409	7.57	14.02
12/02/2020 08:33:30	120220	12022020	083330	186.11	12.809170	-57.131592	186.20	-0.660	-1.730	4.910	186.11	-3.00	5.50	 	 	 	 	 	 	 	 	 	 	 	 	 	 	 	 	 	 	1581496410	8.35	15.46
12/02/2020 08:33:31	120220	12022020	083331	185.43	12.809137	-57.131613	185.58	-0.810	-0.920	5.930	185.43	-2.20	6.40	 	 	 	 	 	 	 	 	 	 	 	 	 	 	 	 	 	 	1581496411	8.48	15.70
12/02/2020 08:33:32	120220	12022020	083332	185.04	12.809107	-57.131632	185.21	-0.570	0.060	5.720	185.04	-1.20	6.20	 	 	 	 	 	 	 	 	 	 	 	 	 	 	 	 	 	 	1581496412	7.73	14.32
12/02/2020 08:33:33	120220	12022020	083333	184.96	12.809073	-57.131640	185.14	-0.180	0.700	4.460	184.96	-0.60	4.90	 	 	 	 	 	 	 	 	 	 	 	 	 	 	 	 	 	 	1581496413	7.26	13.45
12/02/2020 08:33:34	120220	12022020	083334	185.28	12.809038	-57.131642	185.60	-0.000	0.990	2.670	185.40	-0.30	3.10	 	 	 	 	 	 	 	 	 	 	 	 	 	 	 	 	 	 	1581496414	7.46	13.82
12/02/2020 08:33:35	120220	12022020	083335	186.26	12.809003	-57.131640	186.43	-0.130	1.020	0.970	186.26	-0.30	1.40	 	 	 	 	 	 	 	 	 	 	 	 	 	 	 	 	 	 	1581496415	7.56	14.00
12/02/2020 08:33:36	120220	12022020	083336	187.13	12.808970	-57.131637	187.25	-0.290	0.660	-0.170	187.13	-0.70	0.30	 	 	 	 	 	 	 	 	 	 	 	 	 	 	 	 	 	 	1581496416	7.37	13.65
12/02/2020 08:33:37	120220	12022020	083337	187.48	12.808935	-57.131638	187.54	-0.080	-0.260	-0.430	187.48	-1.70	0.10	 	 	 	 	 	 	 	 	 	 	 	 	 	 	 	 	 	 	1581496417	7.34	13.59
12/02/2020 08:33:38	120220	12022020	083338	187.25	12.808900	-57.131643	187.27	0.520	-1.370	0.000	187.25	-2.70	0.50	 	 	 	 	 	 	 	 	 	 	 	 	 	 	 	 	 	 	1581496418	7.86	14.56
12/02/2020 08:33:39	120220	12022020	083339	186.90	12.808862	-57.131652	186.95	1.080	-1.710	0.610	186.90	-3.00	1.20	 	 	 	 	 	 	 	 	 	 	 	 	 	 	 	 	 	 	1581496419	8.17	15.13
12/02/2020 08:33:40	120220	12022020	083340	186.72	12.808828	-57.131658	186.81	1.110	-1.010	1.110	186.72	-2.30	1.60	 	 	 	 	 	 	 	 	 	 	 	 	 	 	 	 	 	 	1581496420	7.50	13.89
12/02/2020 08:33:41	120220	12022020	083341	186.70	12.808798	-57.131663	186.83	0.530	-0.080	1.460	186.70	-1.40	2.00	 	 	 	 	 	 	 	 	 	 	 	 	 	 	 	 	 	 	1581496421	6.56	12.15
12/02/2020 08:33:42	120220	12022020	083342	186.72	12.808768	-57.131668	186.84	-0.300	0.220	1.920	186.72	-1.10	2.50	 	 	 	 	 	 	 	 	 	 	 	 	 	 	 	 	 	 	1581496422	6.50	12.04
12/02/2020 08:33:43	120220	12022020	083343	186.47	12.808735	-57.131677	186.59	-0.920	-0.170	2.830	186.47	-1.50	3.40	 	 	 	 	 	 	 	 	 	 	 	 	 	 	 	 	 	 	1581496423	7.35	13.61
12/02/2020 08:33:44	120220	12022020	083344	186.13	12.808698	-57.131692	186.20	-1.070	-0.500	3.670	186.05	-1.80	4.20	 	 	 	 	 	 	 	 	 	 	 	 	 	 	 	 	 	 	1581496424	8.35	15.46
12/02/2020 08:33:45	120220	12022020	083345	185.82	12.808663	-57.131707	186.00	-0.830	-0.350	3.920	185.82	-1.70	4.40	 	 	 	 	 	 	 	 	 	 	 	 	 	 	 	 	 	 	1581496425	8.40	15.56
12/02/2020 08:33:46	120220	12022020	083346	185.76	12.808628	-57.131720	185.93	-0.400	-0.010	3.560	185.75	-1.30	4.00	 	 	 	 	 	 	 	 	 	 	 	 	 	 	 	 	 	 	1581496426	7.76	14.37
12/02/2020 08:33:47	120220	12022020	083347	185.94	12.808595	-57.131728	186.13	0.070	0.250	2.580	185.94	-1.10	3.00	 	 	 	 	 	 	 	 	 	 	 	 	 	 	 	 	 	 	1581496427	7.42	13.74
12/02/2020 08:33:48	120220	12022020	083348	186.51	12.808562	-57.131732	186.69	0.450	0.540	1.140	186.51	-0.80	1.60	 	 	 	 	 	 	 	 	 	 	 	 	 	 	 	 	 	 	1581496428	7.32	13.56
12/02/2020 08:33:49	120220	12022020	083349	187.11	12.808528	-57.131730	187.23	0.740	0.620	-0.160	187.11	-0.80	0.30	 	 	 	 	 	 	 	 	 	 	 	 	 	 	 	 	 	 	1581496429	7.11	13.17
12/02/2020 08:33:50	120220	12022020	083350	187.42	12.808495	-57.131725	187.49	0.910	0.040	-0.700	187.42	-1.40	-0.20	 	 	 	 	 	 	 	 	 	 	 	 	 	 	 	 	 	 	1581496430	7.22	13.37
12/02/2020 08:33:51	120220	12022020	083351	187.44	12.808460	-57.131723	187.50	0.810	-0.970	-0.230	187.44	-2.40	0.30	 	 	 	 	 	 	 	 	 	 	 	 	 	 	 	 	 	 	1581496431	7.74	14.33
12/02/2020 08:33:52	120220	12022020	083352	187.14	12.808422	-57.131728	187.19	0.380	-1.710	1.050	187.14	-3.10	1.70	 	 	 	 	 	 	 	 	 	 	 	 	 	 	 	 	 	 	1581496432	8.03	14.87
12/02/2020 08:33:53	120220	12022020	083353	186.52	12.808387	-57.131740	186.57	-0.230	-1.750	2.680	186.52	-3.10	3.30	 	 	 	 	 	 	 	 	 	 	 	 	 	 	 	 	 	 	1581496433	8.02	14.85
12/02/2020 08:33:54	120220	12022020	083354	185.85	12.808353	-57.131757	185.95	-0.780	-1.040	4.050	185.85	-2.30	4.60	 	 	 	 	 	 	 	 	 	 	 	 	 	 	 	 	 	 	1581496434	7.91	14.65
12/02/2020 08:33:55	120220	12022020	083355	185.50	12.808322	-57.131773	185.67	-1.070	0.070	4.660	185.50	-1.20	5.10	 	 	 	 	 	 	 	 	 	 	 	 	 	 	 	 	 	 	1581496435	7.64	14.15
12/02/2020 08:33:56	120220	12022020	083356	185.53	12.808292	-57.131788	185.76	-0.910	0.900	4.320	185.57	-0.40	4.80	 	 	 	 	 	 	 	 	 	 	 	 	 	 	 	 	 	 	1581496436	7.21	13.35
12/02/2020 08:33:57	120220	12022020	083357	185.93	12.808260	-57.131798	186.11	-0.340	0.990	3.180	185.93	-0.40	3.60	 	 	 	 	 	 	 	 	 	 	 	 	 	 	 	 	 	 	1581496437	7.16	13.26
12/02/2020 08:33:58	120220	12022020	083358	186.33	12.808225	-57.131803	186.57	0.430	0.390	1.600	186.42	-1.00	2.00	 	 	 	 	 	 	 	 	 	 	 	 	 	 	 	 	 	 	1581496438	7.62	14.11
12/02/2020 08:33:59	120220	12022020	083359	186.90	12.808187	-57.131800	187.03	1.010	-0.360	0.190	186.90	-1.70	0.70	 	 	 	 	 	 	 	 	 	 	 	 	 	 	 	 	 	 	1581496439	8.25	15.28
12/02/2020 08:34:00	120220	12022020	083400	187.30	12.808148	-57.131797	187.50	1.000	-0.630	-0.580	187.40	-2.00	-0.10	 	 	 	 	 	 	 	 	 	 	 	 	 	 	 	 	 	 	1581496440	8.31	15.39
12/02/2020 08:34:01	120220	12022020	083401	187.80	12.808113	-57.131795	187.88	0.390	-0.430	-0.500	187.80	-1.80	0.00	1015.00	26.20	26.20	20.70	20.80	-1.0	72.0	72.0	393.0	25.7	273.00	10.00	78.00	10.50	16	9540.0	27.4	27.4	1581496441	7.52	13.93
12/02/2020 08:34:02	120220	12022020	083402	187.79	12.808082	-57.131798	187.83	-0.300	-0.360	0.500	187.79	-1.70	1.10	 	 	 	 	 	 	 	 	 	 	 	 	 	 	 	 	 	 	1581496442	6.76	12.52
12/02/2020 08:34:03	120220	12022020	083403	187.34	12.808050	-57.131810	187.38	-0.550	-0.690	1.930	187.34	-2.10	2.50	 	 	 	 	 	 	 	 	 	 	 	 	 	 	 	 	 	 	1581496443	7.19	13.32
12/02/2020 08:34:04	120220	12022020	083404	186.79	12.808017	-57.131825	186.87	-0.290	-0.920	3.140	186.79	-2.30	3.70	 	 	 	 	 	 	 	 	 	 	 	 	 	 	 	 	 	 	1581496444	8.08	14.96
12/02/2020 08:34:05	120220	12022020	083405	186.44	12.807982	-57.131840	186.58	0.070	-0.610	3.650	186.44	-1.90	4.10	 	 	 	 	 	 	 	 	 	 	 	 	 	 	 	 	 	 	1581496445	8.12	15.04
12/02/2020 08:34:06	120220	12022020	083406	186.44	12.807948	-57.131850	186.61	0.120	-0.050	3.380	186.44	-1.40	3.80	 	 	 	 	 	 	 	 	 	 	 	 	 	 	 	 	 	 	1581496446	7.50	13.89
12/02/2020 08:34:07	120220	12022020	083407	186.69	12.807917	-57.131857	186.85	-0.160	0.390	2.640	186.69	-1.00	3.10	 	 	 	 	 	 	 	 	 	 	 	 	 	 	 	 	 	 	1581496447	7.08	13.11
12/02/2020 08:34:08	120220	12022020	083408	187.12	12.807883	-57.131862	187.28	-0.440	0.490	1.850	187.12	-0.90	2.30	 	 	 	 	 	 	 	 	 	 	 	 	 	 	 	 	 	 	1581496448	7.09	13.13
12/02/2020 08:34:09	120220	12022020	083409	187.49	12.807850	-57.131865	187.62	-0.400	0.210	1.210	187.49	-1.20	1.70	 	 	 	 	 	 	 	 	 	 	 	 	 	 	 	 	 	 	1581496449	7.22	13.37
12/02/2020 08:34:10	120220	12022020	083410	187.60	12.807815	-57.131872	187.71	0.030	-0.380	0.850	187.60	-1.80	1.40	 	 	 	 	 	 	 	 	 	 	 	 	 	 	 	 	 	 	1581496450	7.53	13.95
12/02/2020 08:34:11	120220	12022020	083411	187.44	12.807780	-57.131877	187.54	0.550	-0.860	0.790	187.44	-2.20	1.30	 	 	 	 	 	 	 	 	 	 	 	 	 	 	 	 	 	 	1581496451	7.86	14.56
12/02/2020 08:34:12	120220	12022020	083412	187.24	12.807743	-57.131883	187.30	0.820	-0.830	0.790	187.20	-2.20	1.30	 	 	 	 	 	 	 	 	 	 	 	 	 	 	 	 	 	 	1581496452	7.82	14.48
12/02/2020 08:34:13	120220	12022020	083413	187.19	12.807710	-57.131887	187.31	0.700	-0.290	0.690	187.19	-1.60	1.20	 	 	 	 	 	 	 	 	 	 	 	 	 	 	 	 	 	 	1581496453	7.40	13.70
12/02/2020 08:34:14	120220	12022020	083414	187.44	12.807677	-57.131888	187.57	0.200	0.230	0.730	187.44	-1.10	1.30	 	 	 	 	 	 	 	 	 	 	 	 	 	 	 	 	 	 	1581496454	6.90	12.78
12/02/2020 08:34:15	120220	12022020	083415	187.60	12.807645	-57.131893	187.71	-0.410	0.090	1.370	187.60	-1.30	1.90	 	 	 	 	 	 	 	 	 	 	 	 	 	 	 	 	 	 	1581496455	6.89	12.76
12/02/2020 08:34:16	120220	12022020	083416	187.32	12.807612	-57.131903	187.41	-0.790	-0.650	2.650	187.32	-2.00	3.20	 	 	 	 	 	 	 	 	 	 	 	 	 	 	 	 	 	 	1581496456	7.66	14.19
12/02/2020 08:34:17	120220	12022020	083417	186.64	12.807575	-57.131920	186.74	-0.780	-1.270	3.860	186.64	-2.60	4.40	 	 	 	 	 	 	 	 	 	 	 	 	 	 	 	 	 	 	1581496457	8.66	16.04
12/02/2020 08:34:18	120220	12022020	083418	186.05	12.807537	-57.131937	186.21	-0.540	-1.010	4.300	186.05	-2.30	4.80	 	 	 	 	 	 	 	 	 	 	 	 	 	 	 	 	 	 	1581496458	8.79	16.28
12/02/2020 08:34:19	120220	12022020	083419	185.99	12.807503	-57.131950	186.18	-0.260	0.040	3.710	185.99	-1.20	4.20	 	 	 	 	 	 	 	 	 	 	 	 	 	 	 	 	 	 	1581496459	7.81	14.46
12/02/2020 08:34:20	120220	12022020	083420	186.30	12.807473	-57.131957	186.47	0.020	0.960	2.360	186.30	-0.40	2.80	 	 	 	 	 	 	 	 	 	 	 	 	 	 	 	 	 	 	1581496460	6.62	12.26
12/02/2020 08:34:21	120220	12022020	083421	186.55	12.807443	-57.131957	186.66	0.380	0.940	1.000	186.55	-0.40	1.50	 	 	 	 	 	 	 	 	 	 	 	 	 	 	 	 	 	 	1581496461	6.63	12.28
12/02/2020 08:34:22	120220	12022020	083422	186.60	12.807407	-57.131953	186.66	0.670	0.120	0.350	186.60	-1.30	0.90	 	 	 	 	 	 	 	 	 	 	 	 	 	 	 	 	 	 	1581496462	7.59	14.06
12/02/2020 08:34:23	120220	12022020	083423	186.52	12.807370	-57.131953	186.58	0.640	-0.690	0.430	186.52	-2.10	1.00	 	 	 	 	 	 	 	 	 	 	 	 	 	 	 	 	 	 	1581496463	8.18	15.15
12/02/2020 08:34:24	120220	12022020	083424	186.40	12.807333	-57.131960	186.43	0.250	-0.890	1.110	186.37	-2.20	1.70	 	 	 	 	 	 	 	 	 	 	 	 	 	 	 	 	 	 	1581496464	7.99	14.80
12/02/2020 08:34:25	120220	12022020	083425	186.25	12.807300	-57.131970	186.33	-0.150	-0.510	1.920	186.25	-1.80	2.50	 	 	 	 	 	 	 	 	 	 	 	 	 	 	 	 	 	 	1581496465	7.47	13.83
12/02/2020 08:34:26	120220	12022020	083426	186.36	12.807270	-57.131983	186.48	-0.220	-0.040	2.100	186.36	-1.40	2.60	 	 	 	 	 	 	 	 	 	 	 	 	 	 	 	 	 	 	1581496466	7.05	13.06
12/02/2020 08:34:27	120220	12022020	083427	186.61	12.807238	-57.131992	186.72	0.040	-0.150	1.900	186.61	-1.50	2.40	 	 	 	 	 	 	 	 	 	 	 	 	 	 	 	 	 	 	1581496467	6.85	12.69
12/02/2020 08:34:28	120220	12022020	083428	186.65	12.807205	-57.131998	186.73	0.320	-0.900	1.790	186.65	-2.30	2.30	 	 	 	 	 	 	 	 	 	 	 	 	 	 	 	 	 	 	1581496468	7.44	13.78
12/02/2020 08:34:29	120220	12022020	083429	186.44	12.807167	-57.132003	186.51	0.320	-1.630	1.880	186.44	-3.00	2.40	 	 	 	 	 	 	 	 	 	 	 	 	 	 	 	 	 	 	1581496469	8.23	15.24
12/02/2020 08:34:30	120220	12022020	083430	186.05	12.807128	-57.132008	186.13	-0.030	-1.460	2.440	186.05	-2.80	3.00	 	 	 	 	 	 	 	 	 	 	 	 	 	 	 	 	 	 	1581496470	8.39	15.54
12/02/2020 08:34:31	120220	12022020	083431	185.62	12.807093	-57.132018	185.73	-0.530	-0.310	3.150	185.62	-1.60	3.70	 	 	 	 	 	 	 	 	 	 	 	 	 	 	 	 	 	 	1581496471	7.74	14.33
12/02/2020 08:34:32	120220	12022020	083432	185.63	12.807062	-57.132028	185.81	-1.010	1.210	3.410	185.63	-0.10	3.90	 	 	 	 	 	 	 	 	 	 	 	 	 	 	 	 	 	 	1581496472	6.99	12.95
12/02/2020 08:34:33	120220	12022020	083433	186.27	12.807033	-57.132038	186.49	-1.180	1.940	3.070	186.27	0.60	3.60	 	 	 	 	 	 	 	 	 	 	 	 	 	 	 	 	 	 	1581496473	6.56	12.15
12/02/2020 08:34:34	120220	12022020	083434	186.95	12.807002	-57.132048	187.31	-0.730	1.420	2.260	187.11	0.00	2.70	 	 	 	 	 	 	 	 	 	 	 	 	 	 	 	 	 	 	1581496474	7.05	13.06
12/02/2020 08:34:35	120220	12022020	083435	187.72	12.806967	-57.132055	187.87	0.320	0.040	1.230	187.72	-1.40	1.70	 	 	 	 	 	 	 	 	 	 	 	 	 	 	 	 	 	 	1581496475	7.89	14.61
12/02/2020 08:34:36	120220	12022020	083436	187.98	12.806927	-57.132058	188.11	1.290	-1.140	0.470	188.00	-2.50	1.00	 	 	 	 	 	 	 	 	 	 	 	 	 	 	 	 	 	 	1581496476	8.50	15.74
12/02/2020 08:34:37	120220	12022020	083437	187.79	12.806888	-57.132058	187.84	1.550	-1.630	0.300	187.79	-3.00	0.90	 	 	 	 	 	 	 	 	 	 	 	 	 	 	 	 	 	 	1581496477	8.17	15.13
12/02/2020 08:34:38	120220	12022020	083438	187.08	12.806853	-57.132060	187.12	1.060	-1.530	0.880	187.08	-2.90	1.50	 	 	 	 	 	 	 	 	 	 	 	 	 	 	 	 	 	 	1581496478	7.46	13.82
12/02/2020 08:34:39	120220	12022020	083439	186.38	12.806822	-57.132067	186.48	0.150	-1.070	1.900	186.38	-2.40	2.50	 	 	 	 	 	 	 	 	 	 	 	 	 	 	 	 	 	 	1581496479	7.21	13.35
12/02/2020 08:34:40	120220	12022020	083440	186.21	12.806788	-57.132078	186.38	-0.810	-0.200	2.820	186.21	-1.50	3.40	 	 	 	 	 	 	 	 	 	 	 	 	 	 	 	 	 	 	1581496480	7.36	13.63
12/02/2020 08:34:41	120220	12022020	083441	186.64	12.806758	-57.132093	186.87	-1.500	0.800	3.230	186.64	-0.50	3.70	 	 	 	 	 	 	 	 	 	 	 	 	 	 	 	 	 	 	1581496481	7.34	13.59
12/02/2020 08:34:42	120220	12022020	083442	187.41	12.806728	-57.132110	187.62	-1.590	1.290	2.990	187.41	-0.10	3.50	 	 	 	 	 	 	 	 	 	 	 	 	 	 	 	 	 	 	1581496482	7.17	13.28
12/02/2020 08:34:43	120220	12022020	083443	187.96	12.806698	-57.132123	188.11	-0.780	0.710	2.290	187.96	-0.70	2.80	 	 	 	 	 	 	 	 	 	 	 	 	 	 	 	 	 	 	1581496483	7.31	13.54
12/02/2020 08:34:44	120220	12022020	083444	188.07	12.806662	-57.132132	188.17	0.610	-0.500	1.420	188.07	-1.90	1.90	 	 	 	 	 	 	 	 	 	 	 	 	 	 	 	 	 	 	1581496484	8.10	15.00
12/02/2020 08:34:45	120220	12022020	083445	188.06	12.806620	-57.132135	188.16	1.570	-1.090	0.650	188.06	-2.40	1.10	 	 	 	 	 	 	 	 	 	 	 	 	 	 	 	 	 	 	1581496485	8.72	16.15
12/02/2020 08:34:46	120220	12022020	083446	188.14	12.806583	-57.132132	188.27	1.410	-0.730	0.340	188.17	-2.00	0.90	 	 	 	 	 	 	 	 	 	 	 	 	 	 	 	 	 	 	1581496486	8.06	14.93
12/02/2020 08:34:47	120220	12022020	083447	188.11	12.806552	-57.132132	188.19	0.420	-0.200	0.820	188.11	-1.50	1.40	 	 	 	 	 	 	 	 	 	 	 	 	 	 	 	 	 	 	1581496487	6.88	12.74
12/02/2020 08:34:48	120220	12022020	083448	187.79	12.806520	-57.132138	187.74	-0.500	-0.210	1.970	187.68	-1.60	2.60	 	 	 	 	 	 	 	 	 	 	 	 	 	 	 	 	 	 	1581496488	6.73	12.46
12/02/2020 08:34:49	120220	12022020	083449	186.98	12.806488	-57.132155	187.05	-0.770	-0.620	3.220	186.98	-2.00	3.80	 	 	 	 	 	 	 	 	 	 	 	 	 	 	 	 	 	 	1581496489	7.76	14.37
12/02/2020 08:34:50	120220	12022020	083450	186.38	12.806452	-57.132172	186.52	-0.570	-0.670	3.870	186.38	-2.00	4.40	 	 	 	 	 	 	 	 	 	 	 	 	 	 	 	 	 	 	1581496490	8.53	15.80
12/02/2020 08:34:51	120220	12022020	083451	186.28	12.806417	-57.132187	186.46	-0.400	-0.100	3.640	186.28	-1.40	4.10	 	 	 	 	 	 	 	 	 	 	 	 	 	 	 	 	 	 	1581496491	8.08	14.96
12/02/2020 08:34:52	120220	12022020	083452	186.71	12.806385	-57.132197	186.91	-0.430	0.600	2.670	186.71	-0.70	3.10	 	 	 	 	 	 	 	 	 	 	 	 	 	 	 	 	 	 	1581496492	7.16	13.26
12/02/2020 08:34:53	120220	12022020	083453	187.23	12.806355	-57.132200	187.38	-0.360	0.680	1.630	187.23	-0.70	2.10	 	 	 	 	 	 	 	 	 	 	 	 	 	 	 	 	 	 	1581496493	6.72	12.45
12/02/2020 08:34:54	120220	12022020	083454	187.37	12.806322	-57.132203	187.46	0.100	-0.120	1.090	187.37	-1.50	1.60	 	 	 	 	 	 	 	 	 	 	 	 	 	 	 	 	 	 	1581496494	7.23	13.39
12/02/2020 08:34:55	120220	12022020	083455	187.15	12.806283	-57.132208	187.22	0.760	-1.030	0.980	187.15	-2.40	1.50	 	 	 	 	 	 	 	 	 	 	 	 	 	 	 	 	 	 	1581496495	8.12	15.04
12/02/2020 08:34:56	120220	12022020	083456	186.82	12.806245	-57.132213	186.89	1.100	-1.110	1.090	186.82	-2.40	1.70	 	 	 	 	 	 	 	 	 	 	 	 	 	 	 	 	 	 	1581496496	8.23	15.24
12/02/2020 08:34:57	120220	12022020	083457	186.58	12.806212	-57.132218	186.67	0.820	-0.450	1.240	186.58	-1.70	1.80	 	 	 	 	 	 	 	 	 	 	 	 	 	 	 	 	 	 	1581496497	7.40	13.70
12/02/2020 08:34:58	120220	12022020	083458	186.49	12.806180	-57.132223	186.58	0.120	0.220	1.450	186.48	-1.10	2.00	 	 	 	 	 	 	 	 	 	 	 	 	 	 	 	 	 	 	1581496498	6.68	12.37
12/02/2020 08:34:59	120220	12022020	083459	186.57	12.806150	-57.132230	186.71	-0.550	0.410	1.770	186.57	-0.90	2.30	 	 	 	 	 	 	 	 	 	 	 	 	 	 	 	 	 	 	1581496499	6.82	12.63
12/02/2020 08:35:00	120220	12022020	083500	186.87	12.806117	-57.132240	187.12	-0.780	0.210	1.990	186.96	-1.10	2.50	 	 	 	 	 	 	 	 	 	 	 	 	 	 	 	 	 	 	1581496500	7.41	13.72
12/02/2020 08:35:01	120220	12022020	083501	187.29	12.806083	-57.132252	187.43	-0.540	-0.240	2.130	187.29	-1.60	2.70	1014.90	26.20	26.20	20.50	20.60	-1.0	70.0	71.0	393.0	25.7	271.00	10.70	78.00	11.30	16	9768.0	27.4	27.4	1581496501	7.75	14.35
12/02/2020 08:35:02	120220	12022020	083502	187.25	12.806047	-57.132262	187.29	-0.120	-0.770	2.420	187.19	-2.10	3.00	 	 	 	 	 	 	 	 	 	 	 	 	 	 	 	 	 	 	1581496502	7.91	14.65
12/02/2020 08:35:03	120220	12022020	083503	186.77	12.806012	-57.132272	186.87	0.200	-0.960	2.710	186.77	-2.30	3.30	 	 	 	 	 	 	 	 	 	 	 	 	 	 	 	 	 	 	1581496503	8.01	14.83
12/02/2020 08:35:04	120220	12022020	083504	186.42	12.805977	-57.132280	186.54	0.330	-0.530	2.670	186.42	-1.80	3.20	 	 	 	 	 	 	 	 	 	 	 	 	 	 	 	 	 	 	1581496504	7.71	14.28
12/02/2020 08:35:05	120220	12022020	083505	186.30	12.805945	-57.132287	186.42	0.370	0.160	2.220	186.30	-1.20	2.70	 	 	 	 	 	 	 	 	 	 	 	 	 	 	 	 	 	 	1581496505	7.07	13.09
12/02/2020 08:35:06	120220	12022020	083506	186.32	12.805913	-57.132290	186.43	0.400	0.460	1.610	186.32	-0.90	2.10	 	 	 	 	 	 	 	 	 	 	 	 	 	 	 	 	 	 	1581496506	6.80	12.59
12/02/2020 08:35:07	120220	12022020	083507	186.35	12.805880	-57.132292	186.44	0.340	0.140	1.280	186.35	-1.20	1.80	 	 	 	 	 	 	 	 	 	 	 	 	 	 	 	 	 	 	1581496507	7.19	13.32
12/02/2020 08:35:08	120220	12022020	083508	186.17	12.805843	-57.132295	186.25	0.170	-0.570	1.460	186.17	-1.90	2.00	 	 	 	 	 	 	 	 	 	 	 	 	 	 	 	 	 	 	1581496508	7.77	14.39
12/02/2020 08:35:09	120220	12022020	083509	185.91	12.805807	-57.132303	186.00	-0.140	-0.970	1.960	185.91	-2.30	2.50	 	 	 	 	 	 	 	 	 	 	 	 	 	 	 	 	 	 	1581496509	8.24	15.26
12/02/2020 08:35:10	120220	12022020	083510	185.88	12.805770	-57.132313	186.02	-0.510	-0.610	2.390	185.88	-1.90	2.90	 	 	 	 	 	 	 	 	 	 	 	 	 	 	 	 	 	 	1581496510	8.02	14.85
12/02/2020 08:35:11	120220	12022020	083511	186.14	12.805738	-57.132325	186.30	-0.780	0.040	2.530	186.14	-1.30	3.10	 	 	 	 	 	 	 	 	 	 	 	 	 	 	 	 	 	 	1581496511	7.24	13.41
12/02/2020 08:35:12	120220	12022020	083512	186.46	12.805708	-57.132335	186.61	-0.750	0.240	2.340	186.46	-1.10	2.90	 	 	 	 	 	 	 	 	 	 	 	 	 	 	 	 	 	 	1581496512	6.92	12.82
12/02/2020 08:35:13	120220	12022020	083513	186.72	12.805675	-57.132343	186.85	-0.380	-0.050	1.910	186.72	-1.40	2.40	 	 	 	 	 	 	 	 	 	 	 	 	 	 	 	 	 	 	1581496513	7.38	13.67
12/02/2020 08:35:14	120220	12022020	083514	186.82	12.805638	-57.132350	186.92	0.260	-0.380	1.460	186.82	-1.70	2.00	 	 	 	 	 	 	 	 	 	 	 	 	 	 	 	 	 	 	1581496514	7.84	14.52
12/02/2020 08:35:15	120220	12022020	083515	186.76	12.805602	-57.132355	186.86	0.920	-0.410	1.030	186.76	-1.70	1.60	 	 	 	 	 	 	 	 	 	 	 	 	 	 	 	 	 	 	1581496515	7.87	14.58
12/02/2020 08:35:16	120220	12022020	083516	186.66	12.805567	-57.132355	186.76	1.200	-0.180	0.790	186.66	-1.50	1.30	 	 	 	 	 	 	 	 	 	 	 	 	 	 	 	 	 	 	1581496516	7.60	14.08
12/02/2020 08:35:17	120220	12022020	083517	186.46	12.805533	-57.132353	186.52	0.810	0.030	1.060	186.46	-1.30	1.60	 	 	 	 	 	 	 	 	 	 	 	 	 	 	 	 	 	 	1581496517	7.32	13.56
12/02/2020 08:35:18	120220	12022020	083518	186.12	12.805500	-57.132357	186.18	-0.050	0.030	1.780	186.12	-1.30	2.40	 	 	 	 	 	 	 	 	 	 	 	 	 	 	 	 	 	 	1581496518	7.20	13.33
12/02/2020 08:35:19	120220	12022020	083519	185.82	12.805467	-57.132368	185.91	-0.850	-0.140	2.560	185.82	-1.50	3.10	 	 	 	 	 	 	 	 	 	 	 	 	 	 	 	 	 	 	1581496519	7.52	13.93
12/02/2020 08:35:20	120220	12022020	083520	185.74	12.805432	-57.132383	185.86	-1.100	-0.330	3.060	185.74	-1.70	3.60	 	 	 	 	 	 	 	 	 	 	 	 	 	 	 	 	 	 	1581496520	7.93	14.69
12/02/2020 08:35:21	120220	12022020	083521	185.76	12.805398	-57.132398	185.89	-0.700	-0.560	3.060	185.76	-1.90	3.60	 	 	 	 	 	 	 	 	 	 	 	 	 	 	 	 	 	 	1581496521	8.00	14.82
12/02/2020 08:35:22	120220	12022020	083522	185.93	12.805363	-57.132410	186.07	-0.040	-0.720	2.520	185.93	-2.10	3.00	 	 	 	 	 	 	 	 	 	 	 	 	 	 	 	 	 	 	1581496522	7.90	14.63
12/02/2020 08:35:23	120220	12022020	083523	186.24	12.805328	-57.132417	186.37	0.380	-0.630	1.700	186.24	-2.00	2.20	 	 	 	 	 	 	 	 	 	 	 	 	 	 	 	 	 	 	1581496523	7.69	14.24
12/02/2020 08:35:24	120220	12022020	083524	186.47	12.805293	-57.132420	186.62	0.430	-0.330	0.940	186.52	-1.70	1.50	 	 	 	 	 	 	 	 	 	 	 	 	 	 	 	 	 	 	1581496524	7.40	13.70
12/02/2020 08:35:25	120220	12022020	083525	186.69	12.805260	-57.132420	186.77	0.300	-0.070	0.380	186.69	-1.40	0.90	 	 	 	 	 	 	 	 	 	 	 	 	 	 	 	 	 	 	1581496525	7.23	13.39
12/02/2020 08:35:26	120220	12022020	083526	186.66	12.805227	-57.132422	186.68	0.240	-0.040	0.280	186.63	-1.40	0.90	 	 	 	 	 	 	 	 	 	 	 	 	 	 	 	 	 	 	1581496526	7.31	13.54
12/02/2020 08:35:27	120220	12022020	083527	186.49	12.805192	-57.132425	186.56	0.150	0.030	0.680	186.49	-1.30	1.30	 	 	 	 	 	 	 	 	 	 	 	 	 	 	 	 	 	 	1581496527	7.63	14.13
12/02/2020 08:35:28	120220	12022020	083528	186.56	12.805157	-57.132432	186.66	-0.160	0.230	1.340	186.56	-1.10	1.90	 	 	 	 	 	 	 	 	 	 	 	 	 	 	 	 	 	 	1581496528	7.57	14.02
12/02/2020 08:35:29	120220	12022020	083529	186.78	12.805123	-57.132440	186.89	-0.540	0.140	2.070	186.78	-1.20	2.70	 	 	 	 	 	 	 	 	 	 	 	 	 	 	 	 	 	 	1581496529	7.37	13.65
12/02/2020 08:35:30	120220	12022020	083530	186.77	12.805090	-57.132452	186.87	-0.590	-0.540	2.990	186.77	-1.90	3.60	 	 	 	 	 	 	 	 	 	 	 	 	 	 	 	 	 	 	1581496530	7.70	14.26
12/02/2020 08:35:31	120220	12022020	083531	186.26	12.805053	-57.132467	186.34	-0.170	-1.350	3.890	186.26	-2.70	4.50	 	 	 	 	 	 	 	 	 	 	 	 	 	 	 	 	 	 	1581496531	8.43	15.61
12/02/2020 08:35:32	120220	12022020	083532	185.43	12.805015	-57.132482	185.54	0.310	-1.400	4.430	185.43	-2.70	5.00	 	 	 	 	 	 	 	 	 	 	 	 	 	 	 	 	 	 	1581496532	8.69	16.09
12/02/2020 08:35:33	120220	12022020	083533	184.93	12.804980	-57.132492	185.12	0.380	-0.290	4.230	184.93	-1.50	4.70	 	 	 	 	 	 	 	 	 	 	 	 	 	 	 	 	 	 	1581496533	7.97	14.76
12/02/2020 08:35:34	120220	12022020	083534	185.24	12.804950	-57.132498	185.47	0.060	1.130	3.310	185.24	-0.20	3.80	 	 	 	 	 	 	 	 	 	 	 	 	 	 	 	 	 	 	1581496534	6.67	12.35
12/02/2020 08:35:35	120220	12022020	083535	185.91	12.804922	-57.132502	186.12	-0.200	1.490	2.190	185.91	0.10	2.70	 	 	 	 	 	 	 	 	 	 	 	 	 	 	 	 	 	 	1581496535	6.09	11.28
12/02/2020 08:35:36	120220	12022020	083536	186.43	12.804888	-57.132503	186.59	0.030	0.480	1.210	186.43	-0.90	1.70	 	 	 	 	 	 	 	 	 	 	 	 	 	 	 	 	 	 	1581496536	7.02	13.00
12/02/2020 08:35:37	120220	12022020	083537	186.74	12.804850	-57.132507	186.87	0.500	-0.710	0.500	186.74	-2.10	1.10	 	 	 	 	 	 	 	 	 	 	 	 	 	 	 	 	 	 	1581496537	8.35	15.46
12/02/2020 08:35:38	120220	12022020	083538	186.93	12.804812	-57.132508	187.07	0.630	-1.160	0.270	186.96	-2.50	0.90	 	 	 	 	 	 	 	 	 	 	 	 	 	 	 	 	 	 	1581496538	8.36	15.48
12/02/2020 08:35:39	120220	12022020	083539	186.92	12.804777	-57.132512	186.98	0.290	-1.200	0.720	186.92	-2.50	1.30	 	 	 	 	 	 	 	 	 	 	 	 	 	 	 	 	 	 	1581496539	7.47	13.83
12/02/2020 08:35:40	120220	12022020	083540	186.53	12.804743	-57.132518	186.43	-0.150	-1.310	1.730	186.39	-2.70	2.40	 	 	 	 	 	 	 	 	 	 	 	 	 	 	 	 	 	 	1581496540	7.21	13.35
12/02/2020 08:35:41	120220	12022020	083541	185.60	12.804710	-57.132530	185.65	-0.350	-1.360	2.920	185.60	-2.70	3.50	 	 	 	 	 	 	 	 	 	 	 	 	 	 	 	 	 	 	1581496541	7.79	14.43
12/02/2020 08:35:42	120220	12022020	083542	184.92	12.804673	-57.132543	185.02	-0.350	-0.900	3.800	184.92	-2.20	4.40	 	 	 	 	 	 	 	 	 	 	 	 	 	 	 	 	 	 	1581496542	8.22	15.22
12/02/2020 08:35:43	120220	12022020	083543	184.56	12.804638	-57.132557	184.69	-0.400	0.040	4.070	184.56	-1.30	4.60	 	 	 	 	 	 	 	 	 	 	 	 	 	 	 	 	 	 	1581496543	7.93	14.69
12/02/2020 08:35:44	120220	12022020	083544	184.48	12.804605	-57.132565	184.65	-0.570	0.950	3.810	184.48	-0.40	4.30	 	 	 	 	 	 	 	 	 	 	 	 	 	 	 	 	 	 	1581496544	7.40	13.70
12/02/2020 08:35:45	120220	12022020	083545	184.86	12.804573	-57.132573	185.06	-0.660	1.530	2.910	184.86	0.20	3.40	 	 	 	 	 	 	 	 	 	 	 	 	 	 	 	 	 	 	1581496545	7.26	13.45
12/02/2020 08:35:46	120220	12022020	083546	185.71	12.804540	-57.132577	185.92	-0.450	1.630	1.520	185.71	0.30	2.00	 	 	 	 	 	 	 	 	 	 	 	 	 	 	 	 	 	 	1581496546	7.20	13.33
12/02/2020 08:35:47	120220	12022020	083547	186.56	12.804507	-57.132578	186.72	0.120	0.810	0.350	186.56	-0.60	0.90	 	 	 	 	 	 	 	 	 	 	 	 	 	 	 	 	 	 	1581496547	7.20	13.33
12/02/2020 08:35:48	120220	12022020	083548	186.81	12.804470	-57.132578	186.89	0.770	-0.860	0.150	186.81	-2.30	0.70	 	 	 	 	 	 	 	 	 	 	 	 	 	 	 	 	 	 	1581496548	7.85	14.54
12/02/2020 08:35:49	120220	12022020	083549	186.20	12.804430	-57.132582	186.21	1.110	-2.370	0.980	186.20	-3.80	1.60	 	 	 	 	 	 	 	 	 	 	 	 	 	 	 	 	 	 	1581496549	8.59	15.91
12/02/2020 08:35:50	120220	12022020	083550	185.24	12.804390	-57.132590	185.02	0.930	-2.720	2.340	185.01	-4.00	3.00	 	 	 	 	 	 	 	 	 	 	 	 	 	 	 	 	 	 	1581496550	8.63	15.98
12/02/2020 08:35:51	120220	12022020	083551	184.17	12.804355	-57.132602	184.28	0.320	-1.410	3.280	184.17	-2.60	3.90	 	 	 	 	 	 	 	 	 	 	 	 	 	 	 	 	 	 	1581496551	8.03	14.87
12/02/2020 08:35:52	120220	12022020	083552	184.14	12.804327	-57.132613	184.43	-0.430	0.720	3.410	184.23	-0.50	3.90	 	 	 	 	 	 	 	 	 	 	 	 	 	 	 	 	 	 	1581496552	6.73	12.46
12/02/2020 08:35:53	120220	12022020	083553	184.95	12.804300	-57.132622	185.17	-0.950	1.990	2.850	184.95	0.70	3.40	 	 	 	 	 	 	 	 	 	 	 	 	 	 	 	 	 	 	1581496553	5.81	10.76
12/02/2020 08:35:54	120220	12022020	083554	185.87	12.804272	-57.132628	186.07	-0.940	1.530	1.940	185.87	0.10	2.40	 	 	 	 	 	 	 	 	 	 	 	 	 	 	 	 	 	 	1581496554	6.45	11.95
12/02/2020 08:35:55	120220	12022020	083555	186.58	12.804233	-57.132633	186.74	-0.420	-0.020	1.250	186.58	-1.40	1.80	 	 	 	 	 	 	 	 	 	 	 	 	 	 	 	 	 	 	1581496555	8.00	14.82
12/02/2020 08:35:56	120220	12022020	083556	186.83	12.804193	-57.132638	186.96	0.270	-1.380	1.150	186.83	-2.80	1.70	 	 	 	 	 	 	 	 	 	 	 	 	 	 	 	 	 	 	1581496556	8.85	16.39
12/02/2020 08:35:57	120220	12022020	083557	186.52	12.804155	-57.132645	186.60	0.730	-1.890	1.500	186.52	-3.20	2.10	 	 	 	 	 	 	 	 	 	 	 	 	 	 	 	 	 	 	1581496557	8.48	15.70
12/02/2020 08:35:58	120220	12022020	083558	185.66	12.804118	-57.132652	185.71	0.830	-1.730	2.150	185.66	-3.00	2.80	 	 	 	 	 	 	 	 	 	 	 	 	 	 	 	 	 	 	1581496558	7.78	14.41
12/02/2020 08:35:59	120220	12022020	083559	184.80	12.804083	-57.132658	184.90	0.480	-0.930	2.760	184.80	-2.20	3.30	 	 	 	 	 	 	 	 	 	 	 	 	 	 	 	 	 	 	1581496559	7.60	14.08
12/02/2020 08:36:00	120220	12022020	083600	184.74	12.804050	-57.132667	184.95	-0.240	0.570	2.850	184.74	-0.70	3.40	 	 	 	 	 	 	 	 	 	 	 	 	 	 	 	 	 	 	1581496560	7.36	13.63
12/02/2020 08:36:01	120220	12022020	083601	185.62	12.804022	-57.132675	185.86	-0.920	2.010	2.320	185.62	0.70	2.80	1015.00	26.20	26.30	20.20	20.30	-1.0	69.0	69.0	393.0	25.8	269.00	10.40	75.00	11.20	16	10276.0	27.4	27.4	1581496561	6.62	12.26
12/02/2020 08:36:02	120220	12022020	083602	186.59	12.803993	-57.132682	186.79	-1.040	2.050	1.720	186.59	0.70	2.30	 	 	 	 	 	 	 	 	 	 	 	 	 	 	 	 	 	 	1581496562	6.24	11.56
12/02/2020 08:36:03	120220	12022020	083603	187.01	12.803958	-57.132688	187.16	-0.450	0.460	1.560	187.01	-1.00	2.10	 	 	 	 	 	 	 	 	 	 	 	 	 	 	 	 	 	 	1581496563	7.38	13.67
12/02/2020 08:36:04	120220	12022020	083604	186.99	12.803918	-57.132697	187.08	0.350	-1.330	1.770	186.97	-2.70	2.30	 	 	 	 	 	 	 	 	 	 	 	 	 	 	 	 	 	 	1581496564	8.90	16.48
12/02/2020 08:36:05	120220	12022020	083605	186.82	12.803878	-57.132705	186.94	0.730	-1.920	1.990	186.82	-3.30	2.60	 	 	 	 	 	 	 	 	 	 	 	 	 	 	 	 	 	 	1581496565	8.92	16.52
12/02/2020 08:36:06	120220	12022020	083606	186.71	12.803843	-57.132713	186.83	0.630	-1.370	2.100	186.71	-2.70	2.70	 	 	 	 	 	 	 	 	 	 	 	 	 	 	 	 	 	 	1581496566	7.60	14.08
12/02/2020 08:36:07	120220	12022020	083607	186.33	12.803813	-57.132720	186.41	0.390	-0.780	2.280	186.33	-2.10	2.90	 	 	 	 	 	 	 	 	 	 	 	 	 	 	 	 	 	 	1581496567	6.61	12.24
12/02/2020 08:36:08	120220	12022020	083608	185.66	12.803782	-57.132725	185.74	0.180	-0.590	2.580	185.66	-1.90	3.20	 	 	 	 	 	 	 	 	 	 	 	 	 	 	 	 	 	 	1581496568	7.01	12.98
12/02/2020 08:36:09	120220	12022020	083609	185.18	12.803745	-57.132732	185.31	-0.130	-0.280	2.900	185.18	-1.60	3.50	 	 	 	 	 	 	 	 	 	 	 	 	 	 	 	 	 	 	1581496569	7.82	14.48
12/02/2020 08:36:10	120220	12022020	083610	185.08	12.803710	-57.132742	185.26	-0.490	0.470	2.970	185.08	-0.80	3.50	 	 	 	 	 	 	 	 	 	 	 	 	 	 	 	 	 	 	1581496570	7.84	14.52
12/02/2020 08:36:11	120220	12022020	083611	185.40	12.803678	-57.132752	185.60	-0.660	1.320	2.530	185.40	0.00	3.10	 	 	 	 	 	 	 	 	 	 	 	 	 	 	 	 	 	 	1581496571	7.27	13.46
12/02/2020 08:36:12	120220	12022020	083612	185.98	12.803647	-57.132758	186.18	-0.430	1.500	1.790	185.98	0.10	2.30	 	 	 	 	 	 	 	 	 	 	 	 	 	 	 	 	 	 	1581496572	6.84	12.67
12/02/2020 08:36:13	120220	12022020	083613	186.48	12.803613	-57.132763	186.64	0.140	0.670	1.200	186.48	-0.70	1.80	 	 	 	 	 	 	 	 	 	 	 	 	 	 	 	 	 	 	1581496573	7.17	13.28
12/02/2020 08:36:14	120220	12022020	083614	186.66	12.803577	-57.132767	186.77	0.770	-0.670	0.970	186.66	-2.10	1.50	 	 	 	 	 	 	 	 	 	 	 	 	 	 	 	 	 	 	1581496574	7.93	14.69
12/02/2020 08:36:15	120220	12022020	083615	186.49	12.803538	-57.132772	186.57	1.030	-1.820	1.230	186.49	-3.20	1.80	 	 	 	 	 	 	 	 	 	 	 	 	 	 	 	 	 	 	1581496575	8.31	15.39
12/02/2020 08:36:16	120220	12022020	083616	186.11	12.803502	-57.132777	186.05	0.720	-2.320	2.100	185.99	-3.60	2.70	 	 	 	 	 	 	 	 	 	 	 	 	 	 	 	 	 	 	1581496576	8.16	15.11
12/02/2020 08:36:17	120220	12022020	083617	185.18	12.803465	-57.132787	185.27	0.060	-2.010	3.200	185.18	-3.30	3.80	 	 	 	 	 	 	 	 	 	 	 	 	 	 	 	 	 	 	1581496577	7.84	14.52
12/02/2020 08:36:18	120220	12022020	083618	184.41	12.803432	-57.132798	184.54	-0.590	-0.950	4.100	184.41	-2.20	4.70	 	 	 	 	 	 	 	 	 	 	 	 	 	 	 	 	 	 	1581496578	7.66	14.19
12/02/2020 08:36:19	120220	12022020	083619	184.10	12.803400	-57.132812	184.30	-0.920	0.520	4.290	184.10	-0.70	4.80	 	 	 	 	 	 	 	 	 	 	 	 	 	 	 	 	 	 	1581496579	7.39	13.69
12/02/2020 08:36:20	120220	12022020	083620	184.47	12.803370	-57.132822	184.70	-0.870	1.640	3.620	184.47	0.40	4.10	 	 	 	 	 	 	 	 	 	 	 	 	 	 	 	 	 	 	1581496580	6.97	12.91
12/02/2020 08:36:21	120220	12022020	083621	185.04	12.803338	-57.132828	185.25	-0.490	1.650	2.640	185.04	0.30	3.20	 	 	 	 	 	 	 	 	 	 	 	 	 	 	 	 	 	 	1581496581	6.93	12.83
12/02/2020 08:36:22	120220	12022020	083622	185.34	12.803302	-57.132830	185.51	0.100	0.550	1.880	185.34	-0.90	2.40	 	 	 	 	 	 	 	 	 	 	 	 	 	 	 	 	 	 	1581496582	7.76	14.37
12/02/2020 08:36:23	120220	12022020	083623	185.36	12.803262	-57.132832	185.51	0.630	-0.650	1.520	185.36	-2.00	2.10	 	 	 	 	 	 	 	 	 	 	 	 	 	 	 	 	 	 	1581496583	8.64	16.00
12/02/2020 08:36:24	120220	12022020	083624	185.32	12.803222	-57.132833	185.48	0.770	-1.080	1.500	185.32	-2.40	2.10	 	 	 	 	 	 	 	 	 	 	 	 	 	 	 	 	 	 	1581496584	8.50	15.74
12/02/2020 08:36:25	120220	12022020	083625	185.32	12.803188	-57.132837	185.47	0.490	-0.840	1.660	185.32	-2.10	2.20	 	 	 	 	 	 	 	 	 	 	 	 	 	 	 	 	 	 	1581496585	7.55	13.98
12/02/2020 08:36:26	120220	12022020	083626	185.36	12.803157	-57.132843	185.52	0.050	-0.490	1.890	185.36	-1.80	2.50	 	 	 	 	 	 	 	 	 	 	 	 	 	 	 	 	 	 	1581496586	6.90	12.78
12/02/2020 08:36:27	120220	12022020	083627	185.43	12.803125	-57.132850	185.60	-0.280	-0.240	2.160	185.43	-1.50	2.70	 	 	 	 	 	 	 	 	 	 	 	 	 	 	 	 	 	 	1581496587	6.93	12.83
12/02/2020 08:36:28	120220	12022020	083628	185.42	12.803093	-57.132860	185.55	-0.290	-0.230	2.340	185.40	-1.60	2.90	 	 	 	 	 	 	 	 	 	 	 	 	 	 	 	 	 	 	1581496588	7.17	13.28
12/02/2020 08:36:29	120220	12022020	083629	185.08	12.803058	-57.132870	185.19	0.110	-0.580	2.500	185.08	-1.90	3.10	 	 	 	 	 	 	 	 	 	 	 	 	 	 	 	 	 	 	1581496589	7.55	13.98
12/02/2020 08:36:30	120220	12022020	083630	184.73	12.803022	-57.132877	184.89	0.590	-0.800	2.430	184.73	-2.10	3.00	 	 	 	 	 	 	 	 	 	 	 	 	 	 	 	 	 	 	1581496590	8.11	15.02
12/02/2020 08:36:31	120220	12022020	083631	184.91	12.802985	-57.132882	185.12	0.590	-0.240	2.060	184.91	-1.50	2.60	 	 	 	 	 	 	 	 	 	 	 	 	 	 	 	 	 	 	1581496591	8.05	14.91
12/02/2020 08:36:32	120220	12022020	083632	185.53	12.802952	-57.132883	185.75	-0.030	0.640	1.670	185.53	-0.60	2.20	 	 	 	 	 	 	 	 	 	 	 	 	 	 	 	 	 	 	1581496592	7.08	13.11
12/02/2020 08:36:33	120220	12022020	083633	186.05	12.802922	-57.132887	186.23	-0.740	0.850	1.600	186.05	-0.50	2.20	 	 	 	 	 	 	 	 	 	 	 	 	 	 	 	 	 	 	1581496593	6.51	12.06
12/02/2020 08:36:34	120220	12022020	083634	186.08	12.802890	-57.132895	186.22	-0.830	0.070	2.020	186.08	-1.30	2.60	 	 	 	 	 	 	 	 	 	 	 	 	 	 	 	 	 	 	1581496594	7.17	13.28
12/02/2020 08:36:35	120220	12022020	083635	185.86	12.802852	-57.132907	186.00	-0.270	-0.880	2.370	185.86	-2.20	2.90	 	 	 	 	 	 	 	 	 	 	 	 	 	 	 	 	 	 	1581496595	8.29	15.35
12/02/2020 08:36:36	120220	12022020	083636	185.74	12.802813	-57.132917	185.90	0.360	-1.220	2.230	185.74	-2.50	2.80	 	 	 	 	 	 	 	 	 	 	 	 	 	 	 	 	 	 	1581496596	8.47	15.69
12/02/2020 08:36:37	120220	12022020	083637	185.71	12.802778	-57.132922	185.87	0.650	-0.930	1.750	185.71	-2.20	2.30	 	 	 	 	 	 	 	 	 	 	 	 	 	 	 	 	 	 	1581496597	7.74	14.33
12/02/2020 08:36:38	120220	12022020	083638	185.64	12.802745	-57.132925	185.74	0.580	-0.520	1.230	185.61	-1.80	1.80	 	 	 	 	 	 	 	 	 	 	 	 	 	 	 	 	 	 	1581496598	7.20	13.33
12/02/2020 08:36:39	120220	12022020	083639	185.40	12.802712	-57.132925	185.52	0.240	-0.240	1.030	185.40	-1.50	1.60	 	 	 	 	 	 	 	 	 	 	 	 	 	 	 	 	 	 	1581496599	7.27	13.46
12/02/2020 08:36:40	120220	12022020	083640	185.30	12.802677	-57.132927	185.43	-0.390	0.050	1.430	185.29	-1.20	2.00	 	 	 	 	 	 	 	 	 	 	 	 	 	 	 	 	 	 	1581496600	7.52	13.93
12/02/2020 08:36:41	120220	12022020	083641	185.34	12.802643	-57.132935	185.50	-0.980	0.360	2.140	185.34	-0.90	2.70	 	 	 	 	 	 	 	 	 	 	 	 	 	 	 	 	 	 	1581496601	7.52	13.93
12/02/2020 08:36:42	120220	12022020	083642	185.41	12.802610	-57.132948	185.58	-1.110	0.500	2.680	185.42	-0.80	3.20	 	 	 	 	 	 	 	 	 	 	 	 	 	 	 	 	 	 	1581496602	7.62	14.11
12/02/2020 08:36:43	120220	12022020	083643	185.38	12.802577	-57.132962	185.54	-0.550	0.250	2.980	185.38	-1.10	3.50	 	 	 	 	 	 	 	 	 	 	 	 	 	 	 	 	 	 	1581496603	7.75	14.35
12/02/2020 08:36:44	120220	12022020	083644	185.27	12.802540	-57.132973	185.45	0.400	-0.240	2.850	185.27	-1.60	3.40	 	 	 	 	 	 	 	 	 	 	 	 	 	 	 	 	 	 	1581496604	8.02	14.85
12/02/2020 08:36:45	120220	12022020	083645	185.38	12.802503	-57.132980	185.58	1.090	-0.500	2.150	185.38	-1.80	2.70	 	 	 	 	 	 	 	 	 	 	 	 	 	 	 	 	 	 	1581496605	8.08	14.96
12/02/2020 08:36:46	120220	12022020	083646	185.60	12.802468	-57.132980	185.79	1.100	-0.390	1.350	185.60	-1.70	1.90	 	 	 	 	 	 	 	 	 	 	 	 	 	 	 	 	 	 	1581496606	7.68	14.22
12/02/2020 08:36:47	120220	12022020	083647	185.77	12.802435	-57.132980	185.94	0.540	-0.120	0.780	185.77	-1.40	1.30	 	 	 	 	 	 	 	 	 	 	 	 	 	 	 	 	 	 	1581496607	7.18	13.30
12/02/2020 08:36:48	120220	12022020	083648	185.99	12.802402	-57.132980	186.15	-0.160	0.090	0.580	185.99	-1.20	1.20	 	 	 	 	 	 	 	 	 	 	 	 	 	 	 	 	 	 	1581496608	6.90	12.78
12/02/2020 08:36:49	120220	12022020	083649	186.13	12.802370	-57.132985	186.27	-0.560	-0.160	0.910	186.13	-1.50	1.50	 	 	 	 	 	 	 	 	 	 	 	 	 	 	 	 	 	 	1581496609	6.86	12.70
12/02/2020 08:36:50	120220	12022020	083650	186.02	12.802337	-57.132993	186.14	-0.480	-1.010	1.580	186.02	-2.30	2.20	 	 	 	 	 	 	 	 	 	 	 	 	 	 	 	 	 	 	1581496610	7.52	13.93
12/02/2020 08:36:51	120220	12022020	083651	185.60	12.802300	-57.133005	185.71	-0.060	-1.760	2.310	185.60	-3.10	2.90	 	 	 	 	 	 	 	 	 	 	 	 	 	 	 	 	 	 	1581496611	8.42	15.59
12/02/2020 08:36:52	120220	12022020	083652	185.14	12.802260	-57.133017	185.28	0.260	-1.620	2.780	185.14	-2.90	3.30	 	 	 	 	 	 	 	 	 	 	 	 	 	 	 	 	 	 	1581496612	8.61	15.95
12/02/2020 08:36:53	120220	12022020	083653	185.03	12.802225	-57.133025	185.24	0.110	-0.400	2.800	185.03	-1.60	3.30	 	 	 	 	 	 	 	 	 	 	 	 	 	 	 	 	 	 	1581496613	7.85	14.54
12/02/2020 08:36:54	120220	12022020	083654	185.16	12.802193	-57.133028	185.38	-0.390	0.930	2.520	185.19	-0.30	3.00	 	 	 	 	 	 	 	 	 	 	 	 	 	 	 	 	 	 	1581496614	6.75	12.50
12/02/2020 08:36:55	120220	12022020	083655	185.20	12.802163	-57.133033	185.35	-0.740	1.290	2.290	185.20	-0.00	2.80	 	 	 	 	 	 	 	 	 	 	 	 	 	 	 	 	 	 	1581496615	6.61	12.24
12/02/2020 08:36:56	120220	12022020	083656	185.08	12.802128	-57.133040	185.23	-0.610	0.620	2.230	185.08	-0.70	2.80	 	 	 	 	 	 	 	 	 	 	 	 	 	 	 	 	 	 	1581496616	7.62	14.11
12/02/2020 08:36:57	120220	12022020	083657	185.13	12.802090	-57.133048	185.30	-0.150	0.080	1.940	185.13	-1.20	2.50	 	 	 	 	 	 	 	 	 	 	 	 	 	 	 	 	 	 	1581496617	8.57	15.87
12/02/2020 08:36:58	120220	12022020	083658	185.48	12.802053	-57.133055	185.66	0.280	0.260	1.250	185.48	-1.00	1.80	 	 	 	 	 	 	 	 	 	 	 	 	 	 	 	 	 	 	1581496618	8.07	14.95
12/02/2020 08:36:59	120220	12022020	083659	185.97	12.802020	-57.133058	186.12	0.560	0.510	0.420	185.97	-0.80	1.00	 	 	 	 	 	 	 	 	 	 	 	 	 	 	 	 	 	 	1581496619	6.94	12.85
12/02/2020 08:37:00	120220	12022020	083700	186.31	12.801990	-57.133058	186.43	0.760	-0.040	0.000	186.31	-1.40	0.60	 	 	 	 	 	 	 	 	 	 	 	 	 	 	 	 	 	 	1581496620	6.70	12.41
12/02/2020 08:37:01	120220	12022020	083701	186.31	12.801955	-57.133060	186.40	0.810	-1.260	0.420	186.31	-2.60	1.00	1015.00	26.20	26.20	20.10	20.20	-1.0	69.0	69.0	393.0	25.8	266.00	11.30	73.00	12.20	16	10506.0	27.4	27.4	1581496621	7.47	13.83
12/02/2020 08:37:02	120220	12022020	083702	185.93	12.801917	-57.133065	186.01	0.520	-2.250	1.640	185.93	-3.60	2.30	 	 	 	 	 	 	 	 	 	 	 	 	 	 	 	 	 	 	1581496622	8.21	15.20
12/02/2020 08:37:03	120220	12022020	083703	185.23	12.801880	-57.133075	185.32	-0.100	-2.310	3.180	185.23	-3.60	3.80	 	 	 	 	 	 	 	 	 	 	 	 	 	 	 	 	 	 	1581496623	8.26	15.30
12/02/2020 08:37:04	120220	12022020	083704	184.57	12.801845	-57.133090	184.53	-0.690	-1.520	4.450	184.41	-2.70	5.00	 	 	 	 	 	 	 	 	 	 	 	 	 	 	 	 	 	 	1581496624	7.99	14.80
12/02/2020 08:37:05	120220	12022020	083705	183.77	12.801813	-57.133107	183.95	-0.870	-0.370	4.940	183.77	-1.60	5.50	 	 	 	 	 	 	 	 	 	 	 	 	 	 	 	 	 	 	1581496625	7.79	14.43
12/02/2020 08:37:06	120220	12022020	083706	183.65	12.801780	-57.133118	183.95	-0.680	0.840	4.390	183.70	-0.40	4.90	 	 	 	 	 	 	 	 	 	 	 	 	 	 	 	 	 	 	1581496626	7.58	14.04
12/02/2020 08:37:07	120220	12022020	083707	184.29	12.801747	-57.133125	184.54	-0.400	1.690	2.970	184.29	0.40	3.40	 	 	 	 	 	 	 	 	 	 	 	 	 	 	 	 	 	 	1581496627	7.25	13.43
12/02/2020 08:37:08	120220	12022020	083708	185.16	12.801713	-57.133125	185.38	-0.180	1.780	1.310	185.16	0.50	1.80	 	 	 	 	 	 	 	 	 	 	 	 	 	 	 	 	 	 	1581496628	7.25	13.43
12/02/2020 08:37:09	120220	12022020	083709	185.92	12.801677	-57.133123	186.10	0.030	1.020	0.160	185.92	-0.30	0.70	 	 	 	 	 	 	 	 	 	 	 	 	 	 	 	 	 	 	1581496629	7.63	14.13
12/02/2020 08:37:10	120220	12022020	083710	186.31	12.801640	-57.133122	186.43	0.330	-0.310	0.070	186.31	-1.70	0.70	 	 	 	 	 	 	 	 	 	 	 	 	 	 	 	 	 	 	1581496630	8.01	14.83
12/02/2020 08:37:11	120220	12022020	083711	186.22	12.801602	-57.133125	186.32	0.650	-1.560	0.830	186.22	-2.90	1.40	 	 	 	 	 	 	 	 	 	 	 	 	 	 	 	 	 	 	1581496631	8.28	15.33
12/02/2020 08:37:12	120220	12022020	083712	185.83	12.801565	-57.133133	185.93	0.790	-2.060	1.800	185.83	-3.30	2.40	 	 	 	 	 	 	 	 	 	 	 	 	 	 	 	 	 	 	1581496632	8.20	15.19
12/02/2020 08:37:13	120220	12022020	083713	185.41	12.801530	-57.133142	185.53	0.600	-1.570	2.580	185.41	-2.80	3.20	 	 	 	 	 	 	 	 	 	 	 	 	 	 	 	 	 	 	1581496633	7.66	14.19
12/02/2020 08:37:14	120220	12022020	083714	185.16	12.801498	-57.133152	185.33	0.210	-0.540	2.920	185.16	-1.80	3.50	 	 	 	 	 	 	 	 	 	 	 	 	 	 	 	 	 	 	1581496634	6.98	12.93
12/02/2020 08:37:15	120220	12022020	083715	185.25	12.801468	-57.133160	185.44	-0.160	0.370	2.670	185.25	-0.90	3.20	 	 	 	 	 	 	 	 	 	 	 	 	 	 	 	 	 	 	1581496635	6.67	12.35
12/02/2020 08:37:16	120220	12022020	083716	185.50	12.801437	-57.133165	185.79	-0.400	0.650	2.080	185.58	-0.60	2.60	 	 	 	 	 	 	 	 	 	 	 	 	 	 	 	 	 	 	1581496636	6.86	12.70
12/02/2020 08:37:17	120220	12022020	083717	185.98	12.801403	-57.133168	186.16	-0.510	0.220	1.630	185.98	-1.10	2.20	 	 	 	 	 	 	 	 	 	 	 	 	 	 	 	 	 	 	1581496637	7.49	13.87
12/02/2020 08:37:18	120220	12022020	083718	186.10	12.801365	-57.133173	186.24	-0.510	-0.420	1.700	186.09	-1.70	2.30	 	 	 	 	 	 	 	 	 	 	 	 	 	 	 	 	 	 	1581496638	8.16	15.11
12/02/2020 08:37:19	120220	12022020	083719	185.90	12.801327	-57.133183	186.04	-0.420	-0.630	2.050	185.90	-1.90	2.60	 	 	 	 	 	 	 	 	 	 	 	 	 	 	 	 	 	 	1581496639	8.41	15.58
12/02/2020 08:37:20	120220	12022020	083720	185.81	12.801292	-57.133193	185.99	-0.300	-0.210	2.060	185.82	-1.50	2.60	 	 	 	 	 	 	 	 	 	 	 	 	 	 	 	 	 	 	1581496640	7.99	14.80
12/02/2020 08:37:21	120220	12022020	083721	185.95	12.801258	-57.133200	186.12	-0.120	0.230	1.640	185.95	-1.10	2.20	 	 	 	 	 	 	 	 	 	 	 	 	 	 	 	 	 	 	1581496641	7.23	13.39
12/02/2020 08:37:22	120220	12022020	083722	186.14	12.801225	-57.133205	186.29	0.250	0.130	1.050	186.14	-1.20	1.60	 	 	 	 	 	 	 	 	 	 	 	 	 	 	 	 	 	 	1581496642	7.11	13.17
12/02/2020 08:37:23	120220	12022020	083723	186.35	12.801190	-57.133207	186.51	0.630	-0.350	0.480	186.35	-1.70	1.00	 	 	 	 	 	 	 	 	 	 	 	 	 	 	 	 	 	 	1581496643	7.66	14.19
12/02/2020 08:37:24	120220	12022020	083724	186.53	12.801153	-57.133208	186.66	0.720	-0.640	0.200	186.53	-1.90	0.80	 	 	 	 	 	 	 	 	 	 	 	 	 	 	 	 	 	 	1581496644	8.02	14.85
12/02/2020 08:37:25	120220	12022020	083725	186.57	12.801117	-57.133210	186.68	0.460	-0.520	0.370	186.57	-1.80	0.90	 	 	 	 	 	 	 	 	 	 	 	 	 	 	 	 	 	 	1581496645	7.72	14.30
12/02/2020 08:37:26	120220	12022020	083726	186.40	12.801083	-57.133217	186.49	0.060	-0.290	1.010	186.40	-1.60	1.60	 	 	 	 	 	 	 	 	 	 	 	 	 	 	 	 	 	 	1581496646	7.30	13.52
12/02/2020 08:37:27	120220	12022020	083727	186.10	12.801050	-57.133225	186.20	-0.250	-0.210	1.900	186.10	-1.50	2.50	 	 	 	 	 	 	 	 	 	 	 	 	 	 	 	 	 	 	1581496647	7.36	13.63
12/02/2020 08:37:28	120220	12022020	083728	185.86	12.801017	-57.133235	185.91	-0.400	-0.250	2.800	185.80	-1.60	3.40	 	 	 	 	 	 	 	 	 	 	 	 	 	 	 	 	 	 	1581496648	7.73	14.32
12/02/2020 08:37:29	120220	12022020	083729	185.47	12.800982	-57.133248	185.61	-0.460	-0.260	3.500	185.47	-1.60	4.00	 	 	 	 	 	 	 	 	 	 	 	 	 	 	 	 	 	 	1581496649	7.99	14.80
12/02/2020 08:37:30	120220	12022020	083730	185.28	12.800945	-57.133260	185.42	-0.430	-0.140	3.700	185.25	-1.40	4.20	 	 	 	 	 	 	 	 	 	 	 	 	 	 	 	 	 	 	1581496650	8.01	14.83
12/02/2020 08:37:31	120220	12022020	083731	185.27	12.800912	-57.133270	185.45	-0.260	0.150	3.150	185.27	-1.10	3.60	 	 	 	 	 	 	 	 	 	 	 	 	 	 	 	 	 	 	1581496651	7.74	14.33
12/02/2020 08:37:32	120220	12022020	083732	185.47	12.800877	-57.133275	185.72	0.040	0.260	2.050	185.54	-1.00	2.50	 	 	 	 	 	 	 	 	 	 	 	 	 	 	 	 	 	 	1581496652	7.34	13.59
12/02/2020 08:37:33	120220	12022020	083733	185.94	12.800843	-57.133277	186.11	0.350	-0.060	0.930	185.94	-1.40	1.40	 	 	 	 	 	 	 	 	 	 	 	 	 	 	 	 	 	 	1581496653	7.43	13.76
12/02/2020 08:37:34	120220	12022020	083734	186.38	12.800807	-57.133275	186.52	0.530	-0.580	0.150	186.38	-1.90	0.70	 	 	 	 	 	 	 	 	 	 	 	 	 	 	 	 	 	 	1581496654	7.79	14.43
12/02/2020 08:37:35	120220	12022020	083735	186.55	12.800770	-57.133277	186.65	0.600	-0.950	-0.020	186.55	-2.30	0.50	 	 	 	 	 	 	 	 	 	 	 	 	 	 	 	 	 	 	1581496655	7.87	14.58
12/02/2020 08:37:36	120220	12022020	083736	186.28	12.800733	-57.133280	186.35	0.530	-1.050	0.460	186.28	-2.30	1.00	 	 	 	 	 	 	 	 	 	 	 	 	 	 	 	 	 	 	1581496656	7.74	14.33
12/02/2020 08:37:37	120220	12022020	083737	185.87	12.800698	-57.133285	185.97	0.180	-0.740	1.140	185.87	-2.00	1.70	 	 	 	 	 	 	 	 	 	 	 	 	 	 	 	 	 	 	1581496657	7.65	14.17
12/02/2020 08:37:38	120220	12022020	083738	185.64	12.800665	-57.133292	185.78	-0.430	-0.120	1.810	185.64	-1.40	2.40	 	 	 	 	 	 	 	 	 	 	 	 	 	 	 	 	 	 	1581496658	7.45	13.80
12/02/2020 08:37:39	120220	12022020	083739	185.63	12.800632	-57.133302	185.78	-0.950	0.340	2.320	185.63	-1.00	2.90	 	 	 	 	 	 	 	 	 	 	 	 	 	 	 	 	 	 	1581496659	7.30	13.52
12/02/2020 08:37:40	120220	12022020	083740	185.62	12.800598	-57.133312	185.77	-1.040	0.180	2.720	185.62	-1.10	3.30	 	 	 	 	 	 	 	 	 	 	 	 	 	 	 	 	 	 	1581496660	7.61	14.09
12/02/2020 08:37:41	120220	12022020	083741	185.49	12.800562	-57.133323	185.63	-0.610	-0.320	3.080	185.49	-1.60	3.60	 	 	 	 	 	 	 	 	 	 	 	 	 	 	 	 	 	 	1581496661	8.37	15.50
12/02/2020 08:37:42	120220	12022020	083742	185.53	12.800522	-57.133335	185.73	-0.010	-0.310	2.960	185.53	-1.60	3.40	 	 	 	 	 	 	 	 	 	 	 	 	 	 	 	 	 	 	1581496662	8.73	16.17
12/02/2020 08:37:43	120220	12022020	083743	186.11	12.800487	-57.133343	186.33	0.310	0.480	2.130	186.11	-0.80	2.60	 	 	 	 	 	 	 	 	 	 	 	 	 	 	 	 	 	 	1581496663	7.91	14.65
12/02/2020 08:37:44	120220	12022020	083744	186.72	12.800455	-57.133347	187.02	0.310	1.080	1.070	186.85	-0.20	1.60	 	 	 	 	 	 	 	 	 	 	 	 	 	 	 	 	 	 	1581496664	6.64	12.30
12/02/2020 08:37:45	120220	12022020	083745	187.15	12.800425	-57.133347	187.26	0.340	0.600	0.450	187.15	-0.80	1.00	 	 	 	 	 	 	 	 	 	 	 	 	 	 	 	 	 	 	1581496665	6.55	12.13
12/02/2020 08:37:46	120220	12022020	083746	187.05	12.800390	-57.133348	187.13	0.600	-0.610	0.180	187.05	-2.00	0.70	 	 	 	 	 	 	 	 	 	 	 	 	 	 	 	 	 	 	1581496666	7.51	13.91
12/02/2020 08:37:47	120220	12022020	083747	186.88	12.800352	-57.133352	186.97	0.870	-1.520	0.280	186.88	-2.80	0.80	 	 	 	 	 	 	 	 	 	 	 	 	 	 	 	 	 	 	1581496667	8.24	15.26
12/02/2020 08:37:48	120220	12022020	083748	186.72	12.800315	-57.133355	186.81	0.770	-1.670	0.820	186.72	-2.90	1.40	 	 	 	 	 	 	 	 	 	 	 	 	 	 	 	 	 	 	1581496668	7.99	14.80
12/02/2020 08:37:49	120220	12022020	083749	186.55	12.800282	-57.133360	186.67	0.210	-1.230	1.620	186.55	-2.50	2.20	 	 	 	 	 	 	 	 	 	 	 	 	 	 	 	 	 	 	1581496669	7.47	13.83
12/02/2020 08:37:50	120220	12022020	083750	186.46	12.800248	-57.133370	186.60	-0.550	-0.560	2.420	186.46	-1.80	3.00	 	 	 	 	 	 	 	 	 	 	 	 	 	 	 	 	 	 	1581496670	7.31	13.54
12/02/2020 08:37:51	120220	12022020	083751	186.43	12.800215	-57.133383	186.59	-1.050	0.010	3.120	186.43	-1.30	3.70	 	 	 	 	 	 	 	 	 	 	 	 	 	 	 	 	 	 	1581496671	7.48	13.85
12/02/2020 08:37:52	120220	12022020	083752	186.43	12.800182	-57.133397	186.62	-1.080	0.330	3.330	186.43	-1.00	3.80	 	 	 	 	 	 	 	 	 	 	 	 	 	 	 	 	 	 	1581496672	7.80	14.45
12/02/2020 08:37:53	120220	12022020	083753	186.69	12.800147	-57.133407	186.90	-0.760	0.480	2.720	186.69	-0.80	3.20	 	 	 	 	 	 	 	 	 	 	 	 	 	 	 	 	 	 	1581496673	7.96	14.74
12/02/2020 08:37:54	120220	12022020	083754	187.01	12.800110	-57.133413	187.18	-0.340	0.410	1.800	187.01	-0.90	2.30	 	 	 	 	 	 	 	 	 	 	 	 	 	 	 	 	 	 	1581496674	7.81	14.46
12/02/2020 08:37:55	120220	12022020	083755	187.04	12.800075	-57.133418	187.15	0.130	0.050	1.100	187.04	-1.30	1.60	 	 	 	 	 	 	 	 	 	 	 	 	 	 	 	 	 	 	1581496675	7.81	14.46
12/02/2020 08:37:56	120220	12022020	083756	186.86	12.800038	-57.133420	186.92	0.550	-0.240	0.730	186.82	-1.60	1.30	 	 	 	 	 	 	 	 	 	 	 	 	 	 	 	 	 	 	1581496676	8.00	14.82
12/02/2020 08:37:57	120220	12022020	083757	186.81	12.800002	-57.133423	186.94	0.670	-0.020	0.550	186.81	-1.30	1.10	 	 	 	 	 	 	 	 	 	 	 	 	 	 	 	 	 	 	1581496677	7.85	14.54
12/02/2020 08:37:58	120220	12022020	083758	187.15	12.799968	-57.133425	187.30	0.410	0.350	0.590	187.15	-0.90	1.10	 	 	 	 	 	 	 	 	 	 	 	 	 	 	 	 	 	 	1581496678	7.11	13.17
12/02/2020 08:37:59	120220	12022020	083759	187.53	12.799937	-57.133430	187.66	0.070	0.200	0.850	187.53	-1.10	1.40	 	 	 	 	 	 	 	 	 	 	 	 	 	 	 	 	 	 	1581496679	6.80	12.59
12/02/2020 08:38:00	120220	12022020	083800	187.59	12.799903	-57.133438	187.70	0.050	-0.600	1.410	187.59	-1.90	2.00	 	 	 	 	 	 	 	 	 	 	 	 	 	 	 	 	 	 	1581496680	7.31	13.54
12/02/2020 08:38:01	120220	12022020	083801	187.40	12.799868	-57.133450	187.49	0.360	-1.410	2.020	187.40	-2.70	2.60	1015.10	26.20	26.30	20.40	20.40	-1.0	70.0	70.0	393.0	25.8	266.00	10.30	72.00	11.20	16	9887.0	27.5	27.4	1581496681	8.13	15.06
12/02/2020 08:38:02	120220	12022020	083802	186.86	12.799830	-57.133460	186.95	0.640	-1.640	2.620	186.86	-2.90	3.20	 	 	 	 	 	 	 	 	 	 	 	 	 	 	 	 	 	 	1581496682	8.28	15.33
12/02/2020 08:38:03	120220	12022020	083803	186.20	12.799795	-57.133468	186.31	0.510	-1.150	3.080	186.20	-2.40	3.60	 	 	 	 	 	 	 	 	 	 	 	 	 	 	 	 	 	 	1581496683	7.93	14.69
12/02/2020 08:38:04	120220	12022020	083804	185.95	12.799760	-57.133475	186.13	-0.140	-0.130	3.020	185.95	-1.40	3.50	 	 	 	 	 	 	 	 	 	 	 	 	 	 	 	 	 	 	1581496684	7.48	13.85
12/02/2020 08:38:05	120220	12022020	083805	186.50	12.799728	-57.133480	186.74	-1.030	0.990	2.470	186.50	-0.30	3.00	 	 	 	 	 	 	 	 	 	 	 	 	 	 	 	 	 	 	1581496685	7.03	13.02
12/02/2020 08:38:06	120220	12022020	083806	187.47	12.799698	-57.133488	187.69	-1.580	1.530	1.900	187.47	0.20	2.40	 	 	 	 	 	 	 	 	 	 	 	 	 	 	 	 	 	 	1581496686	6.74	12.48
12/02/2020 08:38:07	120220	12022020	083807	188.28	12.799667	-57.133498	188.44	-1.210	1.010	1.320	188.28	-0.30	1.80	 	 	 	 	 	 	 	 	 	 	 	 	 	 	 	 	 	 	1581496687	7.12	13.19
12/02/2020 08:38:08	120220	12022020	083808	188.60	12.799630	-57.133507	188.72	0.040	-0.330	0.680	188.62	-1.70	1.20	 	 	 	 	 	 	 	 	 	 	 	 	 	 	 	 	 	 	1581496688	7.99	14.80
12/02/2020 08:38:09	120220	12022020	083809	188.46	12.799590	-57.133513	188.53	1.320	-1.520	0.460	188.46	-2.80	1.00	 	 	 	 	 	 	 	 	 	 	 	 	 	 	 	 	 	 	1581496689	8.74	16.19
12/02/2020 08:38:10	120220	12022020	083810	188.09	12.799550	-57.133515	188.07	1.730	-1.640	0.680	187.99	-2.90	1.20	 	 	 	 	 	 	 	 	 	 	 	 	 	 	 	 	 	 	1581496690	8.61	15.95
12/02/2020 08:38:11	120220	12022020	083811	187.54	12.799515	-57.133517	187.63	1.070	-0.810	1.050	187.54	-2.10	1.60	 	 	 	 	 	 	 	 	 	 	 	 	 	 	 	 	 	 	1581496691	7.62	14.11
12/02/2020 08:38:12	120220	12022020	083812	187.21	12.799483	-57.133520	187.33	-0.050	0.030	1.590	187.21	-1.20	2.10	 	 	 	 	 	 	 	 	 	 	 	 	 	 	 	 	 	 	1581496692	6.83	12.65
12/02/2020 08:38:13	120220	12022020	083813	187.17	12.799452	-57.133528	187.33	-0.890	0.400	2.080	187.17	-0.90	2.60	 	 	 	 	 	 	 	 	 	 	 	 	 	 	 	 	 	 	1581496693	7.10	13.15
12/02/2020 08:38:14	120220	12022020	083814	187.44	12.799417	-57.133542	187.63	-1.090	0.500	2.260	187.44	-0.80	2.80	 	 	 	 	 	 	 	 	 	 	 	 	 	 	 	 	 	 	1581496694	7.81	14.46
12/02/2020 08:38:15	120220	12022020	083815	187.86	12.799382	-57.133555	188.04	-0.870	0.370	2.190	187.86	-0.90	2.70	 	 	 	 	 	 	 	 	 	 	 	 	 	 	 	 	 	 	1581496695	7.98	14.78
12/02/2020 08:38:16	120220	12022020	083816	188.21	12.799347	-57.133567	188.36	-0.530	0.070	1.920	188.21	-1.20	2.40	 	 	 	 	 	 	 	 	 	 	 	 	 	 	 	 	 	 	1581496696	7.94	14.70
12/02/2020 08:38:17	120220	12022020	083817	188.25	12.799312	-57.133577	188.36	-0.220	-0.260	1.660	188.25	-1.60	2.20	 	 	 	 	 	 	 	 	 	 	 	 	 	 	 	 	 	 	1581496697	7.84	14.52
12/02/2020 08:38:18	120220	12022020	083818	188.00	12.799277	-57.133585	188.09	0.130	-0.480	1.490	188.00	-1.80	2.00	 	 	 	 	 	 	 	 	 	 	 	 	 	 	 	 	 	 	1581496698	7.75	14.35
12/02/2020 08:38:19	120220	12022020	083819	187.67	12.799242	-57.133590	187.74	0.560	-0.530	1.320	187.67	-1.80	1.90	 	 	 	 	 	 	 	 	 	 	 	 	 	 	 	 	 	 	1581496699	7.62	14.11
12/02/2020 08:38:20	120220	12022020	083820	187.37	12.799207	-57.133595	187.39	0.960	-0.570	1.160	187.31	-1.90	1.70	 	 	 	 	 	 	 	 	 	 	 	 	 	 	 	 	 	 	1581496700	7.56	14.00
12/02/2020 08:38:21	120220	12022020	083821	187.14	12.799172	-57.133598	187.24	1.050	-0.500	0.940	187.14	-1.80	1.50	 	 	 	 	 	 	 	 	 	 	 	 	 	 	 	 	 	 	1581496701	7.70	14.26
12/02/2020 08:38:22	120220	12022020	083822	187.20	12.799135	-57.133600	187.36	0.620	-0.180	0.940	187.23	-1.50	1.50	 	 	 	 	 	 	 	 	 	 	 	 	 	 	 	 	 	 	1581496702	7.65	14.17
12/02/2020 08:38:23	120220	12022020	083823	187.44	12.799102	-57.133605	187.58	-0.110	0.170	1.380	187.44	-1.10	1.90	 	 	 	 	 	 	 	 	 	 	 	 	 	 	 	 	 	 	1581496703	7.27	13.46
12/02/2020 08:38:24	120220	12022020	083824	187.70	12.799070	-57.133613	187.84	-0.640	0.240	1.830	187.70	-1.10	2.40	 	 	 	 	 	 	 	 	 	 	 	 	 	 	 	 	 	 	1581496704	7.21	13.35
12/02/2020 08:38:25	120220	12022020	083825	187.80	12.799037	-57.133625	187.91	-0.620	-0.220	2.200	187.80	-1.50	2.70	 	 	 	 	 	 	 	 	 	 	 	 	 	 	 	 	 	 	1581496705	7.47	13.83
12/02/2020 08:38:26	120220	12022020	083826	187.56	12.799000	-57.133635	187.65	-0.140	-1.050	2.620	187.56	-2.40	3.20	 	 	 	 	 	 	 	 	 	 	 	 	 	 	 	 	 	 	1581496706	8.09	14.98
12/02/2020 08:38:27	120220	12022020	083827	187.19	12.798962	-57.133645	187.30	0.310	-1.450	2.860	187.19	-2.70	3.40	 	 	 	 	 	 	 	 	 	 	 	 	 	 	 	 	 	 	1581496707	8.63	15.98
12/02/2020 08:38:28	120220	12022020	083828	186.84	12.798923	-57.133653	186.94	0.310	-0.930	2.870	186.84	-2.20	3.40	 	 	 	 	 	 	 	 	 	 	 	 	 	 	 	 	 	 	1581496708	8.31	15.39
12/02/2020 08:38:29	120220	12022020	083829	186.38	12.798890	-57.133658	186.47	-0.100	-0.070	2.880	186.38	-1.30	3.40	 	 	 	 	 	 	 	 	 	 	 	 	 	 	 	 	 	 	1581496709	7.47	13.83
12/02/2020 08:38:30	120220	12022020	083830	186.02	12.798857	-57.133665	186.15	-0.590	0.630	2.860	186.02	-0.60	3.40	 	 	 	 	 	 	 	 	 	 	 	 	 	 	 	 	 	 	1581496710	7.33	13.58
12/02/2020 08:38:31	120220	12022020	083831	186.23	12.798822	-57.133675	186.42	-0.800	1.280	2.390	186.23	0.00	2.90	 	 	 	 	 	 	 	 	 	 	 	 	 	 	 	 	 	 	1581496711	7.53	13.95
12/02/2020 08:38:32	120220	12022020	083832	187.07	12.798790	-57.133683	187.27	-0.540	1.660	1.300	187.07	0.40	1.80	 	 	 	 	 	 	 	 	 	 	 	 	 	 	 	 	 	 	1581496712	7.20	13.33
12/02/2020 08:38:33	120220	12022020	083833	187.90	12.798758	-57.133687	188.04	0.160	0.820	0.320	187.90	-0.50	0.80	 	 	 	 	 	 	 	 	 	 	 	 	 	 	 	 	 	 	1581496713	6.97	12.91
12/02/2020 08:38:34	120220	12022020	083834	188.14	12.798720	-57.133690	188.21	0.990	-1.020	0.130	188.13	-2.40	0.70	 	 	 	 	 	 	 	 	 	 	 	 	 	 	 	 	 	 	1581496714	8.00	14.82
12/02/2020 08:38:35	120220	12022020	083835	187.93	12.798678	-57.133693	188.02	1.380	-2.350	0.520	187.93	-3.60	1.10	 	 	 	 	 	 	 	 	 	 	 	 	 	 	 	 	 	 	1581496715	8.95	16.58
12/02/2020 08:38:36	120220	12022020	083836	187.85	12.798640	-57.133700	187.98	0.970	-2.110	1.280	187.85	-3.30	1.90	 	 	 	 	 	 	 	 	 	 	 	 	 	 	 	 	 	 	1581496716	8.45	15.65
12/02/2020 08:38:37	120220	12022020	083837	187.77	12.798608	-57.133707	187.90	0.110	-0.980	2.220	187.77	-2.20	2.80	 	 	 	 	 	 	 	 	 	 	 	 	 	 	 	 	 	 	1581496717	7.02	13.00
12/02/2020 08:38:38	120220	12022020	083838	187.54	12.798580	-57.133717	187.68	-0.550	-0.110	2.970	187.54	-1.40	3.50	 	 	 	 	 	 	 	 	 	 	 	 	 	 	 	 	 	 	1581496718	6.60	12.22
12/02/2020 08:38:39	120220	12022020	083839	187.33	12.798547	-57.133727	187.48	-0.720	0.180	3.270	187.33	-1.10	3.80	 	 	 	 	 	 	 	 	 	 	 	 	 	 	 	 	 	 	1581496719	7.31	13.54
12/02/2020 08:38:40	120220	12022020	083840	187.19	12.798510	-57.133738	187.34	-0.520	0.170	3.350	187.19	-1.10	3.90	 	 	 	 	 	 	 	 	 	 	 	 	 	 	 	 	 	 	1581496720	8.09	14.98
12/02/2020 08:38:41	120220	12022020	083841	187.11	12.798473	-57.133747	187.26	-0.290	0.220	3.130	187.11	-1.00	3.60	 	 	 	 	 	 	 	 	 	 	 	 	 	 	 	 	 	 	1581496721	8.37	15.50
12/02/2020 08:38:42	120220	12022020	083842	187.27	12.798437	-57.133755	187.43	-0.260	0.490	2.440	187.27	-0.80	2.90	 	 	 	 	 	 	 	 	 	 	 	 	 	 	 	 	 	 	1581496722	8.11	15.02
12/02/2020 08:38:43	120220	12022020	083843	187.70	12.798402	-57.133760	187.84	-0.350	0.700	1.590	187.70	-0.60	2.10	 	 	 	 	 	 	 	 	 	 	 	 	 	 	 	 	 	 	1581496723	7.56	14.00
12/02/2020 08:38:44	120220	12022020	083844	188.05	12.798368	-57.133763	188.24	-0.280	0.520	0.840	188.13	-0.80	1.30	 	 	 	 	 	 	 	 	 	 	 	 	 	 	 	 	 	 	1581496724	7.28	13.48
12/02/2020 08:38:45	120220	12022020	083845	188.40	12.798333	-57.133768	188.49	0.010	-0.050	0.330	188.40	-1.40	0.90	 	 	 	 	 	 	 	 	 	 	 	 	 	 	 	 	 	 	1581496725	7.43	13.76
12/02/2020 08:38:46	120220	12022020	083846	188.42	12.798298	-57.133773	188.45	0.410	-0.810	0.280	188.39	-2.10	0.80	 	 	 	 	 	 	 	 	 	 	 	 	 	 	 	 	 	 	1581496726	7.69	14.24
12/02/2020 08:38:47	120220	12022020	083847	188.10	12.798262	-57.133780	188.17	0.700	-1.350	0.660	188.10	-2.60	1.20	 	 	 	 	 	 	 	 	 	 	 	 	 	 	 	 	 	 	1581496727	7.93	14.69
12/02/2020 08:38:48	120220	12022020	083848	187.80	12.798225	-57.133788	187.90	0.700	-1.230	1.220	187.80	-2.50	1.80	 	 	 	 	 	 	 	 	 	 	 	 	 	 	 	 	 	 	1581496728	7.89	14.61
12/02/2020 08:38:49	120220	12022020	083849	187.68	12.798192	-57.133795	187.79	0.380	-0.570	1.730	187.68	-1.80	2.30	 	 	 	 	 	 	 	 	 	 	 	 	 	 	 	 	 	 	1581496729	7.40	13.70
12/02/2020 08:38:50	120220	12022020	083850	187.59	12.798160	-57.133803	187.70	0.020	-0.080	2.070	187.59	-1.30	2.60	 	 	 	 	 	 	 	 	 	 	 	 	 	 	 	 	 	 	1581496730	7.07	13.09
12/02/2020 08:38:51	120220	12022020	083851	187.44	12.798127	-57.133812	187.55	-0.140	-0.040	2.240	187.44	-1.30	2.80	 	 	 	 	 	 	 	 	 	 	 	 	 	 	 	 	 	 	1581496731	7.45	13.80
12/02/2020 08:38:52	120220	12022020	083852	187.45	12.798090	-57.133822	187.59	-0.210	0.030	2.120	187.45	-1.20	2.60	 	 	 	 	 	 	 	 	 	 	 	 	 	 	 	 	 	 	1581496732	8.00	14.82
12/02/2020 08:38:53	120220	12022020	083853	187.83	12.798055	-57.133828	187.98	-0.360	0.410	1.630	187.83	-0.80	2.10	 	 	 	 	 	 	 	 	 	 	 	 	 	 	 	 	 	 	1581496733	7.85	14.54
12/02/2020 08:38:54	120220	12022020	083854	188.36	12.798022	-57.133833	188.49	-0.590	0.510	1.120	188.36	-0.80	1.60	 	 	 	 	 	 	 	 	 	 	 	 	 	 	 	 	 	 	1581496734	7.27	13.46
12/02/2020 08:38:55	120220	12022020	083855	188.47	12.797987	-57.133838	188.54	-0.550	-0.200	1.280	188.47	-1.50	1.80	 	 	 	 	 	 	 	 	 	 	 	 	 	 	 	 	 	 	1581496735	7.39	13.69
12/02/2020 08:38:56	120220	12022020	083856	188.13	12.797950	-57.133850	188.07	-0.080	-1.190	1.950	188.02	-2.50	2.50	 	 	 	 	 	 	 	 	 	 	 	 	 	 	 	 	 	 	1581496736	8.29	15.35
12/02/2020 08:38:57	120220	12022020	083857	187.55	12.797912	-57.133862	187.64	0.410	-1.230	2.400	187.55	-2.50	2.90	 	 	 	 	 	 	 	 	 	 	 	 	 	 	 	 	 	 	1581496737	8.72	16.15
12/02/2020 08:38:58	120220	12022020	083858	187.36	12.797877	-57.133870	187.44	0.500	-0.270	2.420	187.33	-1.50	2.90	 	 	 	 	 	 	 	 	 	 	 	 	 	 	 	 	 	 	1581496738	7.71	14.28
12/02/2020 08:38:59	120220	12022020	083859	187.24	12.797845	-57.133875	187.34	0.270	0.490	2.040	187.24	-0.80	2.50	 	 	 	 	 	 	 	 	 	 	 	 	 	 	 	 	 	 	1581496739	6.67	12.35
12/02/2020 08:39:00	120220	12022020	083900	187.18	12.797813	-57.133878	187.24	0.080	0.330	1.700	187.15	-1.00	2.20	 	 	 	 	 	 	 	 	 	 	 	 	 	 	 	 	 	 	1581496740	6.97	12.91
12/02/2020 08:39:01	120220	12022020	083901	187.01	12.797777	-57.133883	187.10	0.130	-0.300	1.600	187.01	-1.60	2.10	1015.00	26.20	26.20	20.20	20.30	-1.0	69.0	69.0	393.0	25.8	263.00	10.40	71.00	11.50	16	9501.0	27.5	27.5	1581496741	7.97	14.76
12/02/2020 08:39:02	120220	12022020	083902	187.11	12.797738	-57.133890	187.26	0.140	-0.530	1.620	187.11	-1.80	2.10	 	 	 	 	 	 	 	 	 	 	 	 	 	 	 	 	 	 	1581496742	8.47	15.69
12/02/2020 08:39:03	120220	12022020	083903	187.68	12.797702	-57.133897	187.86	-0.170	-0.150	1.790	187.68	-1.40	2.30	 	 	 	 	 	 	 	 	 	 	 	 	 	 	 	 	 	 	1581496743	7.89	14.61
12/02/2020 08:39:04	120220	12022020	083904	188.31	12.797670	-57.133907	188.46	-0.590	0.220	1.950	188.31	-1.10	2.50	 	 	 	 	 	 	 	 	 	 	 	 	 	 	 	 	 	 	1581496744	7.10	13.15
12/02/2020 08:39:05	120220	12022020	083905	188.42	12.797640	-57.133920	188.52	-0.520	-0.120	2.240	188.42	-1.40	2.80	 	 	 	 	 	 	 	 	 	 	 	 	 	 	 	 	 	 	1581496745	7.04	13.04
12/02/2020 08:39:06	120220	12022020	083906	188.07	12.797605	-57.133930	188.15	0.090	-0.800	2.590	188.07	-2.10	3.10	 	 	 	 	 	 	 	 	 	 	 	 	 	 	 	 	 	 	1581496746	7.86	14.56
12/02/2020 08:39:07	120220	12022020	083907	187.69	12.797567	-57.133940	187.79	0.620	-0.990	2.640	187.69	-2.30	3.10	 	 	 	 	 	 	 	 	 	 	 	 	 	 	 	 	 	 	1581496747	8.31	15.39
12/02/2020 08:39:08	120220	12022020	083908	187.60	12.797532	-57.133945	187.73	0.600	-0.590	2.280	187.61	-1.80	2.80	 	 	 	 	 	 	 	 	 	 	 	 	 	 	 	 	 	 	1581496748	7.91	14.65
12/02/2020 08:39:09	120220	12022020	083909	187.84	12.797497	-57.133950	187.98	0.130	-0.010	1.760	187.84	-1.30	2.30	 	 	 	 	 	 	 	 	 	 	 	 	 	 	 	 	 	 	1581496749	7.35	13.61
12/02/2020 08:39:10	120220	12022020	083910	188.14	12.797465	-57.133955	188.32	-0.270	0.420	1.230	188.20	-0.90	1.70	 	 	 	 	 	 	 	 	 	 	 	 	 	 	 	 	 	 	1581496750	7.16	13.26
12/02/2020 08:39:11	120220	12022020	083911	188.46	12.797432	-57.133958	188.57	-0.310	0.410	0.980	188.46	-0.90	1.50	 	 	 	 	 	 	 	 	 	 	 	 	 	 	 	 	 	 	1581496751	7.25	13.43
12/02/2020 08:39:12	120220	12022020	083912	188.48	12.797395	-57.133965	188.52	-0.160	-0.150	1.280	188.44	-1.50	1.80	 	 	 	 	 	 	 	 	 	 	 	 	 	 	 	 	 	 	1581496752	7.65	14.17
12/02/2020 08:39:13	120220	12022020	083913	187.97	12.797358	-57.133973	188.04	-0.050	-0.940	2.060	187.97	-2.30	2.60	 	 	 	 	 	 	 	 	 	 	 	 	 	 	 	 	 	 	1581496753	8.19	15.17
12/02/2020 08:39:14	120220	12022020	083914	187.30	12.797320	-57.133985	187.39	-0.100	-1.250	2.920	187.30	-2.50	3.50	 	 	 	 	 	 	 	 	 	 	 	 	 	 	 	 	 	 	1581496754	8.61	15.95
12/02/2020 08:39:15	120220	12022020	083915	186.83	12.797285	-57.134000	186.96	-0.250	-0.620	3.450	186.83	-1.80	4.00	 	 	 	 	 	 	 	 	 	 	 	 	 	 	 	 	 	 	1581496755	8.33	15.43
12/02/2020 08:39:16	120220	12022020	083916	186.77	12.797253	-57.134013	186.95	-0.330	0.560	3.270	186.77	-0.70	3.70	 	 	 	 	 	 	 	 	 	 	 	 	 	 	 	 	 	 	1581496756	7.40	13.70
12/02/2020 08:39:17	120220	12022020	083917	187.19	12.797223	-57.134023	187.36	-0.180	1.330	2.190	187.19	0.10	2.60	 	 	 	 	 	 	 	 	 	 	 	 	 	 	 	 	 	 	1581496757	6.60	12.22
12/02/2020 08:39:18	120220	12022020	083918	187.80	12.797192	-57.134025	187.93	0.140	0.950	0.870	187.80	-0.40	1.30	 	 	 	 	 	 	 	 	 	 	 	 	 	 	 	 	 	 	1581496758	6.71	12.43
12/02/2020 08:39:19	120220	12022020	083919	188.23	12.797157	-57.134027	188.31	0.560	-0.330	0.040	188.23	-1.70	0.50	 	 	 	 	 	 	 	 	 	 	 	 	 	 	 	 	 	 	1581496759	7.72	14.30
12/02/2020 08:39:20	120220	12022020	083920	188.20	12.797117	-57.134028	188.23	0.880	-1.660	-0.030	188.20	-3.00	0.50	 	 	 	 	 	 	 	 	 	 	 	 	 	 	 	 	 	 	1581496760	8.52	15.78
12/02/2020 08:39:21	120220	12022020	083921	187.75	12.797077	-57.134032	187.78	0.840	-2.290	0.690	187.75	-3.60	1.30	 	 	 	 	 	 	 	 	 	 	 	 	 	 	 	 	 	 	1581496761	8.61	15.95
12/02/2020 08:39:22	120220	12022020	083922	187.19	12.797040	-57.134038	187.24	0.270	-1.830	1.870	187.19	-3.10	2.40	 	 	 	 	 	 	 	 	 	 	 	 	 	 	 	 	 	 	1581496762	8.20	15.19
12/02/2020 08:39:23	120220	12022020	083923	186.79	12.797007	-57.134050	186.89	-0.660	-0.500	2.970	186.79	-1.70	3.50	 	 	 	 	 	 	 	 	 	 	 	 	 	 	 	 	 	 	1581496763	7.54	13.96
12/02/2020 08:39:24	120220	12022020	083924	186.65	12.796977	-57.134063	186.77	-1.430	0.710	3.550	186.64	-0.50	4.10	 	 	 	 	 	 	 	 	 	 	 	 	 	 	 	 	 	 	1581496764	7.04	13.04
12/02/2020 08:39:25	120220	12022020	083925	186.57	12.796945	-57.134077	186.71	-1.520	1.020	3.610	186.57	-0.30	4.10	 	 	 	 	 	 	 	 	 	 	 	 	 	 	 	 	 	 	1581496765	7.31	13.54
12/02/2020 08:39:26	120220	12022020	083926	186.68	12.796908	-57.134090	186.85	-0.980	0.740	3.200	186.68	-0.60	3.70	 	 	 	 	 	 	 	 	 	 	 	 	 	 	 	 	 	 	1581496766	8.17	15.13
12/02/2020 08:39:27	120220	12022020	083927	187.15	12.796872	-57.134098	187.32	-0.280	0.650	2.270	187.15	-0.60	2.70	 	 	 	 	 	 	 	 	 	 	 	 	 	 	 	 	 	 	1581496767	8.42	15.59
12/02/2020 08:39:28	120220	12022020	083928	187.77	12.796835	-57.134105	187.91	0.310	0.800	1.050	187.77	-0.50	1.50	 	 	 	 	 	 	 	 	 	 	 	 	 	 	 	 	 	 	1581496768	7.69	14.24
12/02/2020 08:39:29	120220	12022020	083929	188.20	12.796803	-57.134108	188.28	0.830	0.560	0.010	188.20	-0.80	0.50	 	 	 	 	 	 	 	 	 	 	 	 	 	 	 	 	 	 	1581496769	7.04	13.04
12/02/2020 08:39:30	120220	12022020	083930	188.37	12.796768	-57.134107	188.45	1.250	-0.360	-0.420	188.37	-1.70	0.10	 	 	 	 	 	 	 	 	 	 	 	 	 	 	 	 	 	 	1581496770	7.28	13.48
12/02/2020 08:39:31	120220	12022020	083931	188.38	12.796732	-57.134108	188.46	1.390	-1.500	-0.000	188.38	-2.80	0.60	 	 	 	 	 	 	 	 	 	 	 	 	 	 	 	 	 	 	1581496771	7.92	14.67
12/02/2020 08:39:32	120220	12022020	083932	188.20	12.796695	-57.134113	188.28	1.120	-2.070	0.940	188.20	-3.40	1.50	 	 	 	 	 	 	 	 	 	 	 	 	 	 	 	 	 	 	1581496772	8.20	15.19
12/02/2020 08:39:33	120220	12022020	083933	187.89	12.796660	-57.134123	188.00	0.470	-1.700	1.960	187.89	-2.90	2.50	 	 	 	 	 	 	 	 	 	 	 	 	 	 	 	 	 	 	1581496773	7.87	14.58
12/02/2020 08:39:34	120220	12022020	083934	187.60	12.796627	-57.134133	187.74	-0.450	-0.840	2.940	187.60	-2.10	3.50	 	 	 	 	 	 	 	 	 	 	 	 	 	 	 	 	 	 	1581496774	7.29	13.50
12/02/2020 08:39:35	120220	12022020	083935	187.57	12.796595	-57.134145	187.75	-1.410	-0.020	3.520	187.57	-1.30	4.00	 	 	 	 	 	 	 	 	 	 	 	 	 	 	 	 	 	 	1581496775	7.24	13.41
12/02/2020 08:39:36	120220	12022020	083936	187.79	12.796563	-57.134160	188.04	-1.970	0.500	3.540	187.85	-0.80	4.00	 	 	 	 	 	 	 	 	 	 	 	 	 	 	 	 	 	 	1581496776	7.56	14.00
12/02/2020 08:39:37	120220	12022020	083937	188.07	12.796530	-57.134175	188.22	-1.690	0.480	3.180	188.07	-0.80	3.70	 	 	 	 	 	 	 	 	 	 	 	 	 	 	 	 	 	 	1581496777	7.89	14.61
12/02/2020 08:39:38	120220	12022020	083938	188.03	12.796493	-57.134188	188.16	-0.590	0.150	2.390	188.03	-1.20	2.90	 	 	 	 	 	 	 	 	 	 	 	 	 	 	 	 	 	 	1581496778	8.43	15.61
12/02/2020 08:39:39	120220	12022020	083939	187.98	12.796455	-57.134195	188.09	0.630	0.120	1.320	187.98	-1.20	1.80	 	 	 	 	 	 	 	 	 	 	 	 	 	 	 	 	 	 	1581496779	8.43	15.61
12/02/2020 08:39:40	120220	12022020	083940	188.21	12.796418	-57.134197	188.32	1.220	0.410	0.260	188.21	-0.90	0.80	 	 	 	 	 	 	 	 	 	 	 	 	 	 	 	 	 	 	1581496780	7.98	14.78
12/02/2020 08:39:41	120220	12022020	083941	188.52	12.796383	-57.134195	188.62	1.070	0.590	-0.250	188.52	-0.70	0.30	 	 	 	 	 	 	 	 	 	 	 	 	 	 	 	 	 	 	1581496781	7.43	13.76
12/02/2020 08:39:42	120220	12022020	083942	188.58	12.796350	-57.134195	188.65	0.620	0.280	0.100	188.58	-1.10	0.70	 	 	 	 	 	 	 	 	 	 	 	 	 	 	 	 	 	 	1581496782	7.16	13.26
12/02/2020 08:39:43	120220	12022020	083943	188.33	12.796315	-57.134202	188.42	0.280	-0.530	1.030	188.33	-1.90	1.60	 	 	 	 	 	 	 	 	 	 	 	 	 	 	 	 	 	 	1581496783	7.47	13.83
12/02/2020 08:39:44	120220	12022020	083944	187.93	12.796280	-57.134213	188.02	0.150	-1.350	2.060	187.93	-2.70	2.60	 	 	 	 	 	 	 	 	 	 	 	 	 	 	 	 	 	 	1581496784	8.10	15.00
12/02/2020 08:39:45	120220	12022020	083945	187.49	12.796243	-57.134228	187.61	0.110	-1.600	2.830	187.49	-2.90	3.40	 	 	 	 	 	 	 	 	 	 	 	 	 	 	 	 	 	 	1581496785	8.34	15.45
12/02/2020 08:39:46	120220	12022020	083946	187.15	12.796210	-57.134242	187.28	0.020	-1.110	3.100	187.15	-2.40	3.60	 	 	 	 	 	 	 	 	 	 	 	 	 	 	 	 	 	 	1581496786	7.94	14.70
12/02/2020 08:39:47	120220	12022020	083947	186.92	12.796177	-57.134252	187.05	-0.160	-0.340	2.930	186.92	-1.60	3.40	 	 	 	 	 	 	 	 	 	 	 	 	 	 	 	 	 	 	1581496787	7.24	13.41
12/02/2020 08:39:48	120220	12022020	083948	186.84	12.796145	-57.134260	186.96	-0.360	0.170	2.430	186.84	-1.10	2.90	 	 	 	 	 	 	 	 	 	 	 	 	 	 	 	 	 	 	1581496788	7.05	13.06
12/02/2020 08:39:49	120220	12022020	083949	186.86	12.796112	-57.134265	186.98	-0.460	0.260	1.890	186.86	-1.00	2.40	 	 	 	 	 	 	 	 	 	 	 	 	 	 	 	 	 	 	1581496789	7.42	13.74
12/02/2020 08:39:50	120220	12022020	083950	186.91	12.796075	-57.134270	187.05	-0.350	0.090	1.570	186.93	-1.20	2.10	 	 	 	 	 	 	 	 	 	 	 	 	 	 	 	 	 	 	1581496790	7.86	14.56
12/02/2020 08:39:51	120220	12022020	083951	187.09	12.796038	-57.134277	187.21	-0.080	-0.050	1.430	187.09	-1.30	2.00	 	 	 	 	 	 	 	 	 	 	 	 	 	 	 	 	 	 	1581496791	8.07	14.95
12/02/2020 08:39:52	120220	12022020	083952	187.31	12.796002	-57.134283	187.42	0.200	0.050	1.330	187.31	-1.20	1.90	 	 	 	 	 	 	 	 	 	 	 	 	 	 	 	 	 	 	1581496792	7.89	14.61
12/02/2020 08:39:53	120220	12022020	083953	187.52	12.795968	-57.134288	187.64	0.340	0.200	1.200	187.52	-1.10	1.70	 	 	 	 	 	 	 	 	 	 	 	 	 	 	 	 	 	 	1581496793	7.48	13.85
12/02/2020 08:39:54	120220	12022020	083954	187.64	12.795935	-57.134293	187.74	0.350	0.080	1.130	187.64	-1.20	1.70	 	 	 	 	 	 	 	 	 	 	 	 	 	 	 	 	 	 	1581496794	7.29	13.50
12/02/2020 08:39:55	120220	12022020	083955	187.53	12.795900	-57.134300	187.60	0.350	-0.390	1.270	187.53	-1.70	1.80	 	 	 	 	 	 	 	 	 	 	 	 	 	 	 	 	 	 	1581496795	7.47	13.83
12/02/2020 08:39:56	120220	12022020	083956	187.17	12.795865	-57.134307	187.23	0.380	-1.000	1.650	187.17	-2.30	2.20	 	 	 	 	 	 	 	 	 	 	 	 	 	 	 	 	 	 	1581496796	7.84	14.52
12/02/2020 08:39:57	120220	12022020	083957	186.69	12.795827	-57.134315	186.77	0.290	-1.350	2.180	186.69	-2.60	2.70	 	 	 	 	 	 	 	 	 	 	 	 	 	 	 	 	 	 	1581496797	8.12	15.04
12/02/2020 08:39:58	120220	12022020	083958	186.42	12.795790	-57.134323	186.50	-0.150	-1.060	2.740	186.38	-2.30	3.30	 	 	 	 	 	 	 	 	 	 	 	 	 	 	 	 	 	 	1581496798	8.09	14.98
12/02/2020 08:39:59	120220	12022020	083959	186.38	12.795757	-57.134333	186.54	-0.840	-0.230	3.110	186.38	-1.50	3.60	 	 	 	 	 	 	 	 	 	 	 	 	 	 	 	 	 	 	1581496799	7.65	14.17
12/02/2020 08:40:00	120220	12022020	084000	186.58	12.795725	-57.134347	186.79	-1.230	0.550	2.990	186.63	-0.70	3.50	 	 	 	 	 	 	 	 	 	 	 	 	 	 	 	 	 	 	1581496800	7.27	13.46
12/02/2020 08:40:01	120220	12022020	084001	186.89	12.795693	-57.134358	187.03	-0.760	0.720	2.430	186.89	-0.60	2.90	1015.00	26.20	26.20	20.50	20.60	-1.0	71.0	71.0	394.0	25.8	266.00	10.00	72.00	11.10	16	9873.0	27.5	27.5	1581496801	7.30	13.52
12/02/2020 08:40:02	120220	12022020	084002	187.03	12.795658	-57.134367	187.17	0.450	0.270	1.610	187.05	-1.10	2.10	 	 	 	 	 	 	 	 	 	 	 	 	 	 	 	 	 	 	1581496802	7.80	14.45
12/02/2020 08:40:03	120220	12022020	084003	187.29	12.795618	-57.134368	187.40	1.440	-0.180	0.820	187.29	-1.50	1.30	 	 	 	 	 	 	 	 	 	 	 	 	 	 	 	 	 	 	1581496803	8.37	15.50
12/02/2020 08:40:04	120220	12022020	084004	187.64	12.795580	-57.134367	187.76	1.320	-0.200	0.550	187.64	-1.50	1.10	 	 	 	 	 	 	 	 	 	 	 	 	 	 	 	 	 	 	1581496804	8.27	15.32
12/02/2020 08:40:05	120220	12022020	084005	187.89	12.795547	-57.134368	187.99	0.280	0.030	1.090	187.89	-1.30	1.70	 	 	 	 	 	 	 	 	 	 	 	 	 	 	 	 	 	 	1581496805	7.42	13.74
12/02/2020 08:40:06	120220	12022020	084006	187.81	12.795515	-57.134377	187.90	-0.750	0.030	2.150	187.81	-1.30	2.70	 	 	 	 	 	 	 	 	 	 	 	 	 	 	 	 	 	 	1581496806	6.92	12.82
12/02/2020 08:40:07	120220	12022020	084007	187.50	12.795483	-57.134392	187.61	-1.040	-0.310	3.190	187.50	-1.60	3.70	 	 	 	 	 	 	 	 	 	 	 	 	 	 	 	 	 	 	1581496807	7.47	13.83
12/02/2020 08:40:08	120220	12022020	084008	187.16	12.795450	-57.134408	187.27	-0.560	-0.860	3.670	187.16	-2.20	4.20	 	 	 	 	 	 	 	 	 	 	 	 	 	 	 	 	 	 	1581496808	8.05	14.91
12/02/2020 08:40:09	120220	12022020	084009	186.72	12.795415	-57.134423	186.79	0.250	-1.380	3.510	186.72	-2.70	4.00	 	 	 	 	 	 	 	 	 	 	 	 	 	 	 	 	 	 	1581496809	8.21	15.20
12/02/2020 08:40:10	120220	12022020	084010	186.15	12.795378	-57.134432	186.21	0.910	-1.530	2.920	186.15	-2.80	3.40	 	 	 	 	 	 	 	 	 	 	 	 	 	 	 	 	 	 	1581496810	8.21	15.20
12/02/2020 08:40:11	120220	12022020	084011	185.89	12.795340	-57.134435	186.00	0.980	-0.870	1.970	185.89	-2.10	2.40	 	 	 	 	 	 	 	 	 	 	 	 	 	 	 	 	 	 	1581496811	8.09	14.98
12/02/2020 08:40:12	120220	12022020	084012	186.31	12.795305	-57.134433	186.46	0.430	0.420	0.910	186.31	-0.80	1.40	 	 	 	 	 	 	 	 	 	 	 	 	 	 	 	 	 	 	1581496812	7.44	13.78
12/02/2020 08:40:13	120220	12022020	084013	187.10	12.795275	-57.134432	187.25	-0.340	1.280	0.110	187.10	-0.00	0.60	 	 	 	 	 	 	 	 	 	 	 	 	 	 	 	 	 	 	1581496813	6.71	12.43
12/02/2020 08:40:14	120220	12022020	084014	187.74	12.795242	-57.134433	188.01	-0.890	1.000	-0.040	187.87	-0.30	0.50	 	 	 	 	 	 	 	 	 	 	 	 	 	 	 	 	 	 	1581496814	6.93	12.83
12/02/2020 08:40:15	120220	12022020	084015	188.33	12.795207	-57.134442	188.42	-0.990	-0.080	0.590	188.33	-1.40	1.20	 	 	 	 	 	 	 	 	 	 	 	 	 	 	 	 	 	 	1581496815	7.90	14.63
12/02/2020 08:40:16	120220	12022020	084016	188.06	12.795168	-57.134455	188.10	-0.660	-1.210	1.820	188.06	-2.50	2.40	 	 	 	 	 	 	 	 	 	 	 	 	 	 	 	 	 	 	1581496816	8.70	16.11
12/02/2020 08:40:17	120220	12022020	084017	187.21	12.795130	-57.134470	187.26	-0.240	-1.540	3.170	187.21	-2.80	3.70	 	 	 	 	 	 	 	 	 	 	 	 	 	 	 	 	 	 	1581496817	8.89	16.46
12/02/2020 08:40:18	120220	12022020	084018	186.37	12.795093	-57.134485	186.44	-0.000	-0.910	3.990	186.37	-2.20	4.50	 	 	 	 	 	 	 	 	 	 	 	 	 	 	 	 	 	 	1581496818	8.29	15.35
12/02/2020 08:40:19	120220	12022020	084019	185.92	12.795062	-57.134497	186.04	0.090	0.090	3.730	185.92	-1.20	4.20	 	 	 	 	 	 	 	 	 	 	 	 	 	 	 	 	 	 	1581496819	7.41	13.72
12/02/2020 08:40:20	120220	12022020	084020	186.09	12.795030	-57.134503	186.24	0.200	0.870	2.540	186.09	-0.40	3.00	 	 	 	 	 	 	 	 	 	 	 	 	 	 	 	 	 	 	1581496820	6.97	12.91
12/02/2020 08:40:21	120220	12022020	084021	186.64	12.794997	-57.134505	186.77	0.400	1.080	1.110	186.64	-0.20	1.60	 	 	 	 	 	 	 	 	 	 	 	 	 	 	 	 	 	 	1581496821	7.01	12.98
12/02/2020 08:40:22	120220	12022020	084022	187.12	12.794963	-57.134503	187.21	0.670	0.490	0.000	187.12	-0.90	0.50	 	 	 	 	 	 	 	 	 	 	 	 	 	 	 	 	 	 	1581496822	7.39	13.69
12/02/2020 08:40:23	120220	12022020	084023	187.46	12.794925	-57.134503	187.54	0.800	-0.470	-0.390	187.46	-1.80	0.20	 	 	 	 	 	 	 	 	 	 	 	 	 	 	 	 	 	 	1581496823	8.00	14.82
12/02/2020 08:40:24	120220	12022020	084024	187.63	12.794888	-57.134507	187.73	0.600	-1.120	0.080	187.66	-2.50	0.70	 	 	 	 	 	 	 	 	 	 	 	 	 	 	 	 	 	 	1581496824	8.16	15.11
12/02/2020 08:40:25	120220	12022020	084025	187.63	12.794852	-57.134513	187.70	0.070	-1.370	1.100	187.63	-2.70	1.70	 	 	 	 	 	 	 	 	 	 	 	 	 	 	 	 	 	 	1581496825	7.76	14.37
12/02/2020 08:40:26	120220	12022020	084026	187.30	12.794818	-57.134525	187.24	-0.460	-1.430	2.440	187.19	-2.70	3.00	 	 	 	 	 	 	 	 	 	 	 	 	 	 	 	 	 	 	1581496826	7.63	14.13
12/02/2020 08:40:27	120220	12022020	084027	186.42	12.794785	-57.134542	186.49	-0.680	-1.330	3.690	186.42	-2.60	4.20	 	 	 	 	 	 	 	 	 	 	 	 	 	 	 	 	 	 	1581496827	8.02	14.85
12/02/2020 08:40:28	120220	12022020	084028	185.72	12.794750	-57.134558	185.83	-0.560	-0.690	4.260	185.72	-1.90	4.80	 	 	 	 	 	 	 	 	 	 	 	 	 	 	 	 	 	 	1581496828	8.36	15.48
12/02/2020 08:40:29	120220	12022020	084029	185.63	12.794715	-57.134572	185.80	-0.410	0.620	3.830	185.63	-0.60	4.30	 	 	 	 	 	 	 	 	 	 	 	 	 	 	 	 	 	 	1581496829	7.88	14.59
12/02/2020 08:40:30	120220	12022020	084030	186.26	12.794683	-57.134577	186.45	-0.380	1.640	2.600	186.26	0.30	3.00	 	 	 	 	 	 	 	 	 	 	 	 	 	 	 	 	 	 	1581496830	6.88	12.74
12/02/2020 08:40:31	120220	12022020	084031	187.08	12.794652	-57.134578	187.23	-0.290	1.400	1.340	187.08	0.00	1.80	 	 	 	 	 	 	 	 	 	 	 	 	 	 	 	 	 	 	1581496831	6.89	12.76
12/02/2020 08:40:32	120220	12022020	084032	187.54	12.794615	-57.134578	187.65	0.120	0.050	0.720	187.54	-1.40	1.20	 	 	 	 	 	 	 	 	 	 	 	 	 	 	 	 	 	 	1581496832	7.88	14.59
12/02/2020 08:40:33	120220	12022020	084033	187.61	12.794575	-57.134582	187.69	0.650	-1.300	0.680	187.61	-2.70	1.20	 	 	 	 	 	 	 	 	 	 	 	 	 	 	 	 	 	 	1581496833	8.75	16.21
12/02/2020 08:40:34	120220	12022020	084034	187.35	12.794535	-57.134587	187.40	0.900	-1.800	1.060	187.35	-3.10	1.60	 	 	 	 	 	 	 	 	 	 	 	 	 	 	 	 	 	 	1581496834	8.58	15.89
12/02/2020 08:40:35	120220	12022020	084035	186.75	12.794500	-57.134593	186.77	0.670	-1.480	1.800	186.75	-2.80	2.40	 	 	 	 	 	 	 	 	 	 	 	 	 	 	 	 	 	 	1581496835	7.76	14.37
12/02/2020 08:40:36	120220	12022020	084036	186.03	12.794467	-57.134602	186.08	0.090	-0.690	2.600	186.03	-2.00	3.20	 	 	 	 	 	 	 	 	 	 	 	 	 	 	 	 	 	 	1581496836	7.24	13.41
12/02/2020 08:40:37	120220	12022020	084037	185.66	12.794435	-57.134612	185.78	-0.630	0.320	3.020	185.66	-0.90	3.50	 	 	 	 	 	 	 	 	 	 	 	 	 	 	 	 	 	 	1581496837	7.19	13.32
12/02/2020 08:40:38	120220	12022020	084038	185.77	12.794403	-57.134623	186.01	-1.140	1.150	2.950	185.84	-0.10	3.40	 	 	 	 	 	 	 	 	 	 	 	 	 	 	 	 	 	 	1581496838	7.15	13.24
12/02/2020 08:40:39	120220	12022020	084039	186.40	12.794372	-57.134635	186.57	-1.060	1.330	2.450	186.40	0.00	2.90	 	 	 	 	 	 	 	 	 	 	 	 	 	 	 	 	 	 	1581496839	7.25	13.43
12/02/2020 08:40:40	120220	12022020	084040	186.92	12.794338	-57.134645	187.20	-0.340	0.800	1.590	187.05	-0.60	2.10	 	 	 	 	 	 	 	 	 	 	 	 	 	 	 	 	 	 	1581496840	7.59	14.06
12/02/2020 08:40:41	120220	12022020	084041	187.66	12.794302	-57.134650	187.79	0.620	-0.170	0.700	187.66	-1.50	1.20	 	 	 	 	 	 	 	 	 	 	 	 	 	 	 	 	 	 	1581496841	7.97	14.76
12/02/2020 08:40:42	120220	12022020	084042	188.07	12.794263	-57.134653	188.16	1.290	-1.100	0.350	188.07	-2.40	0.90	 	 	 	 	 	 	 	 	 	 	 	 	 	 	 	 	 	 	1581496842	7.98	14.78
12/02/2020 08:40:43	120220	12022020	084043	188.07	12.794227	-57.134657	188.14	1.330	-1.560	0.630	188.07	-2.90	1.20	 	 	 	 	 	 	 	 	 	 	 	 	 	 	 	 	 	 	1581496843	7.98	14.78
12/02/2020 08:40:44	120220	12022020	084044	187.77	12.794192	-57.134660	187.86	0.700	-1.270	1.340	187.77	-2.60	1.90	 	 	 	 	 	 	 	 	 	 	 	 	 	 	 	 	 	 	1581496844	7.50	13.89
12/02/2020 08:40:45	120220	12022020	084045	187.49	12.794160	-57.134668	187.58	-0.240	-0.580	2.070	187.49	-1.90	2.60	 	 	 	 	 	 	 	 	 	 	 	 	 	 	 	 	 	 	1581496845	6.92	12.82
12/02/2020 08:40:46	120220	12022020	084046	187.16	12.794130	-57.134680	187.25	-0.860	-0.150	2.680	187.16	-1.40	3.20	 	 	 	 	 	 	 	 	 	 	 	 	 	 	 	 	 	 	1581496846	6.89	12.76
12/02/2020 08:40:47	120220	12022020	084047	186.69	12.794098	-57.134695	186.79	-0.840	-0.180	3.300	186.69	-1.50	3.80	 	 	 	 	 	 	 	 	 	 	 	 	 	 	 	 	 	 	1581496847	7.52	13.93
12/02/2020 08:40:48	120220	12022020	084048	186.44	12.794063	-57.134708	186.58	-0.460	-0.210	3.500	186.44	-1.50	4.00	 	 	 	 	 	 	 	 	 	 	 	 	 	 	 	 	 	 	1581496848	8.19	15.17
12/02/2020 08:40:49	120220	12022020	084049	186.59	12.794027	-57.134718	186.74	-0.200	0.030	3.100	186.59	-1.30	3.60	 	 	 	 	 	 	 	 	 	 	 	 	 	 	 	 	 	 	1581496849	8.12	15.04
12/02/2020 08:40:50	120220	12022020	084050	186.79	12.793992	-57.134727	186.97	-0.110	0.320	2.490	186.83	-1.00	3.00	 	 	 	 	 	 	 	 	 	 	 	 	 	 	 	 	 	 	1581496850	7.65	14.17
12/02/2020 08:40:51	120220	12022020	084051	187.09	12.793958	-57.134732	187.21	0.050	0.460	1.770	187.09	-0.80	2.30	 	 	 	 	 	 	 	 	 	 	 	 	 	 	 	 	 	 	1581496851	7.42	13.74
12/02/2020 08:40:52	120220	12022020	084052	187.35	12.793923	-57.134735	187.55	0.200	0.450	1.110	187.43	-0.90	1.60	 	 	 	 	 	 	 	 	 	 	 	 	 	 	 	 	 	 	1581496852	7.38	13.67
12/02/2020 08:40:53	120220	12022020	084053	187.76	12.793890	-57.134738	187.86	0.160	0.200	0.910	187.76	-1.10	1.50	 	 	 	 	 	 	 	 	 	 	 	 	 	 	 	 	 	 	1581496853	7.27	13.46
12/02/2020 08:40:54	120220	12022020	084054	187.83	12.793857	-57.134743	187.90	0.060	-0.270	1.140	187.83	-1.60	1.70	 	 	 	 	 	 	 	 	 	 	 	 	 	 	 	 	 	 	1581496854	7.25	13.43
12/02/2020 08:40:55	120220	12022020	084055	187.54	12.793823	-57.134755	187.60	0.160	-0.720	1.640	187.54	-2.00	2.20	 	 	 	 	 	 	 	 	 	 	 	 	 	 	 	 	 	 	1581496855	7.44	13.78
12/02/2020 08:40:56	120220	12022020	084056	186.97	12.793790	-57.134765	187.02	0.480	-0.890	2.220	186.97	-2.20	2.80	 	 	 	 	 	 	 	 	 	 	 	 	 	 	 	 	 	 	1581496856	7.48	13.85
12/02/2020 08:40:57	120220	12022020	084057	186.35	12.793758	-57.134775	186.40	0.710	-0.900	2.510	186.35	-2.20	3.00	 	 	 	 	 	 	 	 	 	 	 	 	 	 	 	 	 	 	1581496857	7.34	13.59
12/02/2020 08:40:58	120220	12022020	084058	185.82	12.793723	-57.134782	185.89	0.590	-0.880	2.770	185.82	-2.20	3.30	 	 	 	 	 	 	 	 	 	 	 	 	 	 	 	 	 	 	1581496858	7.39	13.69
12/02/2020 08:40:59	120220	12022020	084059	185.53	12.793690	-57.134790	185.65	0.180	-0.600	3.040	185.53	-1.90	3.60	 	 	 	 	 	 	 	 	 	 	 	 	 	 	 	 	 	 	1581496859	7.60	14.08
12/02/2020 08:41:00	120220	12022020	084100	185.77	12.793655	-57.134798	185.95	-0.340	0.020	2.900	185.77	-1.20	3.40	 	 	 	 	 	 	 	 	 	 	 	 	 	 	 	 	 	 	1581496860	7.47	13.83
12/02/2020 08:41:01	120220	12022020	084101	186.40	12.793623	-57.134805	186.58	-0.790	0.500	2.560	186.40	-0.80	3.10	1015.00	26.30	26.30	21.00	21.00	-1.0	72.0	72.0	394.0	25.8	276.00	9.40	79.00	9.80	16	9259.0	27.5	27.5	1581496861	7.01	12.98
12/02/2020 08:41:02	120220	12022020	084102	186.95	12.793592	-57.134813	187.09	-0.930	0.300	2.270	186.95	-1.00	2.80	 	 	 	 	 	 	 	 	 	 	 	 	 	 	 	 	 	 	1581496862	7.09	13.13
12/02/2020 08:41:03	120220	12022020	084103	187.16	12.793557	-57.134823	187.27	-0.620	-0.420	2.120	187.16	-1.70	2.60	 	 	 	 	 	 	 	 	 	 	 	 	 	 	 	 	 	 	1581496863	7.74	14.33
12/02/2020 08:41:04	120220	12022020	084104	186.98	12.793520	-57.134832	187.05	-0.020	-0.900	2.120	186.98	-2.20	2.60	 	 	 	 	 	 	 	 	 	 	 	 	 	 	 	 	 	 	1581496864	8.21	15.20
12/02/2020 08:41:05	120220	12022020	084105	186.47	12.793483	-57.134840	186.52	0.480	-0.700	2.250	186.47	-2.00	2.80	 	 	 	 	 	 	 	 	 	 	 	 	 	 	 	 	 	 	1581496865	7.94	14.70
12/02/2020 08:41:06	120220	12022020	084106	186.04	12.793450	-57.134845	186.13	0.560	0.050	2.210	186.04	-1.20	2.70	 	 	 	 	 	 	 	 	 	 	 	 	 	 	 	 	 	 	1581496866	7.32	13.56
12/02/2020 08:41:07	120220	12022020	084107	186.12	12.793418	-57.134850	186.24	0.250	0.850	1.920	186.12	-0.40	2.40	 	 	 	 	 	 	 	 	 	 	 	 	 	 	 	 	 	 	1581496867	6.78	12.56
12/02/2020 08:41:08	120220	12022020	084108	186.50	12.793388	-57.134855	186.62	-0.040	0.980	1.700	186.50	-0.40	2.20	 	 	 	 	 	 	 	 	 	 	 	 	 	 	 	 	 	 	1581496868	6.58	12.19
12/02/2020 08:41:09	120220	12022020	084109	186.78	12.793357	-57.134862	186.89	0.020	0.180	1.680	186.78	-1.20	2.20	 	 	 	 	 	 	 	 	 	 	 	 	 	 	 	 	 	 	1581496869	7.09	13.13
12/02/2020 08:41:10	120220	12022020	084110	186.74	12.793320	-57.134868	186.83	0.340	-1.030	1.970	186.74	-2.40	2.50	 	 	 	 	 	 	 	 	 	 	 	 	 	 	 	 	 	 	1581496870	7.95	14.72
12/02/2020 08:41:11	120220	12022020	084111	186.33	12.793282	-57.134877	186.41	0.480	-1.790	2.620	186.33	-3.10	3.20	 	 	 	 	 	 	 	 	 	 	 	 	 	 	 	 	 	 	1581496871	8.41	15.58
12/02/2020 08:41:12	120220	12022020	084112	185.81	12.793245	-57.134887	185.92	0.150	-1.480	3.210	185.81	-2.70	3.70	 	 	 	 	 	 	 	 	 	 	 	 	 	 	 	 	 	 	1581496872	8.11	15.02
12/02/2020 08:41:13	120220	12022020	084113	185.54	12.793213	-57.134898	185.69	-0.520	-0.380	3.280	185.54	-1.60	3.80	 	 	 	 	 	 	 	 	 	 	 	 	 	 	 	 	 	 	1581496873	7.25	13.43
12/02/2020 08:41:14	120220	12022020	084114	185.66	12.793185	-57.134908	185.84	-1.010	0.670	2.810	185.66	-0.60	3.30	 	 	 	 	 	 	 	 	 	 	 	 	 	 	 	 	 	 	1581496874	6.54	12.11
12/02/2020 08:41:15	120220	12022020	084115	186.14	12.793155	-57.134918	186.32	-0.870	0.970	1.860	186.14	-0.30	2.30	 	 	 	 	 	 	 	 	 	 	 	 	 	 	 	 	 	 	1581496875	6.57	12.17
12/02/2020 08:41:16	120220	12022020	084116	186.63	12.793123	-57.134923	186.85	-0.120	0.390	0.900	186.72	-1.00	1.40	 	 	 	 	 	 	 	 	 	 	 	 	 	 	 	 	 	 	1581496876	7.19	13.32
12/02/2020 08:41:17	120220	12022020	084117	186.91	12.793085	-57.134927	186.98	0.730	-0.680	0.620	186.91	-2.00	1.10	 	 	 	 	 	 	 	 	 	 	 	 	 	 	 	 	 	 	1581496877	8.02	14.85
12/02/2020 08:41:18	120220	12022020	084118	186.82	12.793047	-57.134930	186.91	1.050	-1.350	1.020	186.82	-2.70	1.60	 	 	 	 	 	 	 	 	 	 	 	 	 	 	 	 	 	 	1581496878	8.52	15.78
12/02/2020 08:41:19	120220	12022020	084119	186.86	12.793008	-57.134935	186.98	0.560	-0.940	1.980	186.86	-2.20	2.50	 	 	 	 	 	 	 	 	 	 	 	 	 	 	 	 	 	 	1581496879	8.07	14.95
12/02/2020 08:41:20	120220	12022020	084120	186.91	12.792978	-57.134943	187.04	-0.310	0.090	3.030	186.91	-1.20	3.60	 	 	 	 	 	 	 	 	 	 	 	 	 	 	 	 	 	 	1581496880	6.94	12.85
12/02/2020 08:41:21	120220	12022020	084121	186.63	12.792950	-57.134957	186.74	-0.810	0.590	3.970	186.63	-0.70	4.50	 	 	 	 	 	 	 	 	 	 	 	 	 	 	 	 	 	 	1581496881	6.50	12.04
12/02/2020 08:41:22	120220	12022020	084122	186.10	12.792920	-57.134972	186.21	-0.580	0.220	4.580	186.10	-1.10	5.10	 	 	 	 	 	 	 	 	 	 	 	 	 	 	 	 	 	 	1581496882	7.30	13.52
12/02/2020 08:41:23	120220	12022020	084123	185.80	12.792883	-57.134985	185.96	-0.010	-0.190	4.540	185.80	-1.50	5.00	 	 	 	 	 	 	 	 	 	 	 	 	 	 	 	 	 	 	1581496883	8.22	15.22
12/02/2020 08:41:24	120220	12022020	084124	186.03	12.792848	-57.134995	186.22	0.340	-0.110	3.820	186.03	-1.40	4.30	 	 	 	 	 	 	 	 	 	 	 	 	 	 	 	 	 	 	1581496884	7.96	14.74
12/02/2020 08:41:25	120220	12022020	084125	186.60	12.792817	-57.135000	186.79	0.240	0.140	2.720	186.60	-1.20	3.20	 	 	 	 	 	 	 	 	 	 	 	 	 	 	 	 	 	 	1581496885	7.05	13.06
12/02/2020 08:41:26	120220	12022020	084126	187.11	12.792785	-57.135003	187.25	-0.000	-0.080	1.610	187.11	-1.40	2.10	 	 	 	 	 	 	 	 	 	 	 	 	 	 	 	 	 	 	1581496886	6.65	12.32
12/02/2020 08:41:27	120220	12022020	084127	187.32	12.792752	-57.135007	187.41	0.050	-0.850	0.800	187.32	-2.20	1.30	 	 	 	 	 	 	 	 	 	 	 	 	 	 	 	 	 	 	1581496887	7.11	13.17
12/02/2020 08:41:28	120220	12022020	084128	187.27	12.792717	-57.135010	187.32	0.290	-1.370	0.510	187.25	-2.70	1.00	 	 	 	 	 	 	 	 	 	 	 	 	 	 	 	 	 	 	1581496888	7.77	14.39
12/02/2020 08:41:29	120220	12022020	084129	187.13	12.792682	-57.135017	187.20	0.290	-0.990	0.520	187.13	-2.30	1.10	 	 	 	 	 	 	 	 	 	 	 	 	 	 	 	 	 	 	1581496889	7.63	14.13
12/02/2020 08:41:30	120220	12022020	084130	186.94	12.792650	-57.135022	187.01	-0.000	-0.240	0.690	186.94	-1.50	1.20	 	 	 	 	 	 	 	 	 	 	 	 	 	 	 	 	 	 	1581496890	6.80	12.59
12/02/2020 08:41:31	120220	12022020	084131	186.53	12.792620	-57.135030	186.59	-0.230	-0.000	1.170	186.53	-1.30	1.70	 	 	 	 	 	 	 	 	 	 	 	 	 	 	 	 	 	 	1581496891	6.63	12.28
12/02/2020 08:41:32	120220	12022020	084132	186.06	12.792587	-57.135040	186.14	-0.200	-0.130	2.010	186.06	-1.40	2.60	 	 	 	 	 	 	 	 	 	 	 	 	 	 	 	 	 	 	1581496892	7.51	13.91
12/02/2020 08:41:33	120220	12022020	084133	185.92	12.792552	-57.135052	186.07	-0.050	0.100	2.730	185.92	-1.20	3.20	 	 	 	 	 	 	 	 	 	 	 	 	 	 	 	 	 	 	1581496893	8.09	14.98
12/02/2020 08:41:34	120220	12022020	084134	186.37	12.792517	-57.135062	186.57	-0.150	0.690	2.920	186.37	-0.60	3.40	 	 	 	 	 	 	 	 	 	 	 	 	 	 	 	 	 	 	1581496894	7.56	14.00
12/02/2020 08:41:35	120220	12022020	084135	187.06	12.792487	-57.135072	187.26	-0.420	0.880	2.760	187.06	-0.50	3.30	 	 	 	 	 	 	 	 	 	 	 	 	 	 	 	 	 	 	1581496895	6.80	12.59
12/02/2020 08:41:36	120220	12022020	084136	187.45	12.792457	-57.135082	187.60	-0.470	0.180	2.650	187.45	-1.20	3.10	 	 	 	 	 	 	 	 	 	 	 	 	 	 	 	 	 	 	1581496896	6.89	12.76
12/02/2020 08:41:37	120220	12022020	084137	187.30	12.792423	-57.135092	187.39	-0.070	-0.900	2.680	187.30	-2.30	3.20	 	 	 	 	 	 	 	 	 	 	 	 	 	 	 	 	 	 	1581496897	7.64	14.15
12/02/2020 08:41:38	120220	12022020	084138	186.69	12.792387	-57.135102	186.76	0.490	-1.580	2.870	186.69	-2.90	3.40	 	 	 	 	 	 	 	 	 	 	 	 	 	 	 	 	 	 	1581496898	8.02	14.85
12/02/2020 08:41:39	120220	12022020	084139	185.85	12.792352	-57.135110	185.93	0.830	-1.450	3.020	185.85	-2.70	3.50	 	 	 	 	 	 	 	 	 	 	 	 	 	 	 	 	 	 	1581496899	7.75	14.35
12/02/2020 08:41:40	120220	12022020	084140	185.33	12.792318	-57.135117	185.38	0.670	-0.590	2.790	185.26	-1.80	3.30	 	 	 	 	 	 	 	 	 	 	 	 	 	 	 	 	 	 	1581496900	7.19	13.32
12/02/2020 08:41:41	120220	12022020	084141	185.27	12.792288	-57.135122	185.43	0.110	0.520	2.210	185.27	-0.70	2.70	 	 	 	 	 	 	 	 	 	 	 	 	 	 	 	 	 	 	1581496901	6.60	12.22
12/02/2020 08:41:42	120220	12022020	084142	185.63	12.792258	-57.135123	185.91	-0.460	1.100	1.490	185.74	-0.20	2.00	 	 	 	 	 	 	 	 	 	 	 	 	 	 	 	 	 	 	1581496902	6.31	11.69
12/02/2020 08:41:43	120220	12022020	084143	186.29	12.792228	-57.135127	186.43	-0.670	0.690	0.990	186.29	-0.70	1.50	 	 	 	 	 	 	 	 	 	 	 	 	 	 	 	 	 	 	1581496903	6.75	12.50
12/02/2020 08:41:44	120220	12022020	084144	186.60	12.792193	-57.135133	186.72	-0.430	-0.380	1.000	186.60	-1.70	1.50	 	 	 	 	 	 	 	 	 	 	 	 	 	 	 	 	 	 	1581496904	7.67	14.20
12/02/2020 08:41:45	120220	12022020	084145	186.54	12.792155	-57.135143	186.62	0.050	-1.250	1.430	186.54	-2.60	2.00	 	 	 	 	 	 	 	 	 	 	 	 	 	 	 	 	 	 	1581496905	8.31	15.39
12/02/2020 08:41:46	120220	12022020	084146	186.20	12.792118	-57.135153	186.27	0.370	-1.340	1.830	186.20	-2.60	2.40	 	 	 	 	 	 	 	 	 	 	 	 	 	 	 	 	 	 	1581496906	8.10	15.00
12/02/2020 08:41:47	120220	12022020	084147	185.85	12.792085	-57.135162	185.93	0.270	-0.760	2.070	185.85	-2.00	2.60	 	 	 	 	 	 	 	 	 	 	 	 	 	 	 	 	 	 	1581496907	7.33	13.58
12/02/2020 08:41:48	120220	12022020	084148	185.45	12.792055	-57.135168	185.52	-0.110	-0.070	2.390	185.45	-1.40	2.90	 	 	 	 	 	 	 	 	 	 	 	 	 	 	 	 	 	 	1581496908	6.73	12.46
12/02/2020 08:41:49	120220	12022020	084149	184.97	12.792025	-57.135175	185.04	-0.450	0.300	2.780	184.97	-1.00	3.30	 	 	 	 	 	 	 	 	 	 	 	 	 	 	 	 	 	 	1581496909	6.82	12.63
12/02/2020 08:41:50	120220	12022020	084150	184.64	12.791992	-57.135185	184.74	-0.530	0.470	2.820	184.64	-0.80	3.30	 	 	 	 	 	 	 	 	 	 	 	 	 	 	 	 	 	 	1581496910	7.31	13.54
12/02/2020 08:41:51	120220	12022020	084151	184.63	12.791958	-57.135195	184.75	-0.250	0.560	2.450	184.63	-0.70	2.90	 	 	 	 	 	 	 	 	 	 	 	 	 	 	 	 	 	 	1581496911	7.44	13.78
12/02/2020 08:41:52	120220	12022020	084152	184.89	12.791925	-57.135202	185.03	0.330	0.400	1.760	184.89	-0.90	2.20	 	 	 	 	 	 	 	 	 	 	 	 	 	 	 	 	 	 	1581496912	7.30	13.52
12/02/2020 08:41:53	120220	12022020	084153	185.41	12.791892	-57.135205	185.55	0.790	-0.050	0.960	185.41	-1.40	1.40	 	 	 	 	 	 	 	 	 	 	 	 	 	 	 	 	 	 	1581496913	7.34	13.59
12/02/2020 08:41:54	120220	12022020	084154	185.78	12.791857	-57.135205	185.88	0.750	-0.690	0.860	185.78	-2.00	1.40	 	 	 	 	 	 	 	 	 	 	 	 	 	 	 	 	 	 	1581496914	7.44	13.78
12/02/2020 08:41:55	120220	12022020	084155	185.57	12.791822	-57.135208	185.64	0.310	-1.300	1.610	185.57	-2.60	2.20	 	 	 	 	 	 	 	 	 	 	 	 	 	 	 	 	 	 	1581496915	7.49	13.87
12/02/2020 08:41:56	120220	12022020	084156	185.13	12.791788	-57.135218	185.23	-0.240	-1.230	2.550	185.13	-2.50	3.10	 	 	 	 	 	 	 	 	 	 	 	 	 	 	 	 	 	 	1581496916	7.67	14.20
12/02/2020 08:41:57	120220	12022020	084157	184.87	12.791757	-57.135230	185.00	-0.620	-0.460	3.150	184.87	-1.70	3.70	 	 	 	 	 	 	 	 	 	 	 	 	 	 	 	 	 	 	1581496917	7.23	13.39
12/02/2020 08:41:58	120220	12022020	084158	184.73	12.791727	-57.135242	184.86	-0.590	0.150	3.260	184.73	-1.10	3.80	 	 	 	 	 	 	 	 	 	 	 	 	 	 	 	 	 	 	1581496918	6.65	12.32
12/02/2020 08:41:59	120220	12022020	084159	184.69	12.791697	-57.135250	184.82	-0.130	0.050	2.920	184.69	-1.30	3.40	 	 	 	 	 	 	 	 	 	 	 	 	 	 	 	 	 	 	1581496919	6.86	12.70
12/02/2020 08:42:00	120220	12022020	084200	184.81	12.791662	-57.135255	184.93	0.360	-0.430	2.250	184.81	-1.80	2.70	 	 	 	 	 	 	 	 	 	 	 	 	 	 	 	 	 	 	1581496920	7.64	14.15
12/02/2020 08:42:01	120220	12022020	084201	184.87	12.791623	-57.135258	184.97	0.490	-0.690	1.850	184.87	-2.00	2.40	1015.10	26.10	26.20	20.70	20.80	-1.0	72.0	72.0	394.0	25.8	273.00	9.30	76.00	9.90	16	9756.0	27.5	27.4	1581496921	8.05	14.91
12/02/2020 08:42:02	120220	12022020	084202	184.73	12.791588	-57.135260	184.82	0.220	-0.370	1.950	184.73	-1.60	2.50	 	 	 	 	 	 	 	 	 	 	 	 	 	 	 	 	 	 	1581496922	7.76	14.37
12/02/2020 08:42:03	120220	12022020	084203	184.71	12.791555	-57.135265	184.83	-0.290	0.560	2.030	184.71	-0.70	2.50	 	 	 	 	 	 	 	 	 	 	 	 	 	 	 	 	 	 	1581496923	7.11	13.17
12/02/2020 08:42:04	120220	12022020	084204	184.88	12.791527	-57.135270	185.05	-0.720	1.270	1.920	184.93	-0.00	2.40	 	 	 	 	 	 	 	 	 	 	 	 	 	 	 	 	 	 	1581496924	6.32	11.70
12/02/2020 08:42:05	120220	12022020	084205	185.10	12.791497	-57.135277	185.21	-0.650	0.790	1.680	185.10	-0.60	2.20	 	 	 	 	 	 	 	 	 	 	 	 	 	 	 	 	 	 	1581496925	6.39	11.83
12/02/2020 08:42:06	120220	12022020	084206	185.07	12.791463	-57.135285	185.15	0.040	-0.710	1.450	185.07	-2.10	1.90	 	 	 	 	 	 	 	 	 	 	 	 	 	 	 	 	 	 	1581496926	7.53	13.95
12/02/2020 08:42:07	120220	12022020	084207	184.79	12.791423	-57.135290	184.85	0.830	-1.940	1.380	184.79	-3.30	1.90	 	 	 	 	 	 	 	 	 	 	 	 	 	 	 	 	 	 	1581496927	8.56	15.85
12/02/2020 08:42:08	120220	12022020	084208	184.36	12.791385	-57.135295	184.44	1.030	-1.910	1.490	184.36	-3.20	2.00	 	 	 	 	 	 	 	 	 	 	 	 	 	 	 	 	 	 	1581496928	8.38	15.52
12/02/2020 08:42:09	120220	12022020	084209	184.17	12.791352	-57.135300	184.29	0.410	-0.650	1.610	184.17	-1.90	2.10	 	 	 	 	 	 	 	 	 	 	 	 	 	 	 	 	 	 	1581496929	7.25	13.43
12/02/2020 08:42:10	120220	12022020	084210	184.38	12.791323	-57.135305	184.53	-0.530	0.810	1.680	184.38	-0.50	2.20	 	 	 	 	 	 	 	 	 	 	 	 	 	 	 	 	 	 	1581496930	6.14	11.37
12/02/2020 08:42:11	120220	12022020	084211	184.77	12.791297	-57.135312	184.93	-1.070	1.420	1.730	184.77	0.10	2.20	 	 	 	 	 	 	 	 	 	 	 	 	 	 	 	 	 	 	1581496931	6.01	11.13
12/02/2020 08:42:12	120220	12022020	084212	185.23	12.791265	-57.135320	185.41	-0.940	0.970	1.650	185.23	-0.40	2.10	 	 	 	 	 	 	 	 	 	 	 	 	 	 	 	 	 	 	1581496932	6.88	12.74
12/02/2020 08:42:13	120220	12022020	084213	185.69	12.791230	-57.135328	185.85	-0.320	-0.060	1.390	185.69	-1.40	1.90	 	 	 	 	 	 	 	 	 	 	 	 	 	 	 	 	 	 	1581496933	7.77	14.39
12/02/2020 08:42:14	120220	12022020	084214	185.92	12.791193	-57.135335	186.04	0.450	-1.050	1.210	185.92	-2.40	1.70	 	 	 	 	 	 	 	 	 	 	 	 	 	 	 	 	 	 	1581496934	8.13	15.06
12/02/2020 08:42:15	120220	12022020	084215	185.68	12.791157	-57.135340	185.74	1.040	-1.390	1.260	185.68	-2.70	1.80	 	 	 	 	 	 	 	 	 	 	 	 	 	 	 	 	 	 	1581496935	7.97	14.76
12/02/2020 08:42:16	120220	12022020	084216	185.08	12.791122	-57.135343	185.13	1.160	-0.970	1.490	185.08	-2.30	2.00	 	 	 	 	 	 	 	 	 	 	 	 	 	 	 	 	 	 	1581496936	7.41	13.72
12/02/2020 08:42:17	120220	12022020	084217	184.54	12.791090	-57.135343	184.61	0.650	-0.220	1.800	184.54	-1.50	2.30	 	 	 	 	 	 	 	 	 	 	 	 	 	 	 	 	 	 	1581496937	6.86	12.70
12/02/2020 08:42:18	120220	12022020	084218	184.31	12.791058	-57.135347	184.40	-0.240	0.250	2.270	184.29	-1.10	2.80	 	 	 	 	 	 	 	 	 	 	 	 	 	 	 	 	 	 	1581496938	6.68	12.37
12/02/2020 08:42:19	120220	12022020	084219	184.32	12.791027	-57.135357	184.47	-0.920	0.280	2.660	184.32	-1.10	3.20	 	 	 	 	 	 	 	 	 	 	 	 	 	 	 	 	 	 	1581496939	7.16	13.26
12/02/2020 08:42:20	120220	12022020	084220	184.58	12.790993	-57.135368	184.74	-0.990	0.030	2.620	184.58	-1.30	3.10	 	 	 	 	 	 	 	 	 	 	 	 	 	 	 	 	 	 	1581496940	7.73	14.32
12/02/2020 08:42:21	120220	12022020	084221	184.92	12.790958	-57.135380	185.09	-0.600	-0.320	2.340	184.92	-1.70	2.80	 	 	 	 	 	 	 	 	 	 	 	 	 	 	 	 	 	 	1581496941	7.83	14.50
12/02/2020 08:42:22	120220	12022020	084222	185.25	12.790923	-57.135388	185.40	-0.240	-0.460	1.930	185.25	-1.80	2.40	 	 	 	 	 	 	 	 	 	 	 	 	 	 	 	 	 	 	1581496942	7.76	14.37
12/02/2020 08:42:23	120220	12022020	084223	185.38	12.790890	-57.135393	185.50	-0.040	-0.390	1.420	185.38	-1.70	1.90	 	 	 	 	 	 	 	 	 	 	 	 	 	 	 	 	 	 	1581496943	7.40	13.70
12/02/2020 08:42:24	120220	12022020	084224	185.40	12.790857	-57.135398	185.49	0.150	-0.250	0.910	185.40	-1.60	1.40	 	 	 	 	 	 	 	 	 	 	 	 	 	 	 	 	 	 	1581496944	7.19	13.32
12/02/2020 08:42:25	120220	12022020	084225	185.43	12.790823	-57.135402	185.51	0.440	-0.030	0.510	185.43	-1.40	1.00	 	 	 	 	 	 	 	 	 	 	 	 	 	 	 	 	 	 	1581496945	7.17	13.28
12/02/2020 08:42:26	120220	12022020	084226	185.31	12.790790	-57.135402	185.37	0.700	0.090	0.540	185.31	-1.20	1.10	 	 	 	 	 	 	 	 	 	 	 	 	 	 	 	 	 	 	1581496946	7.13	13.20
12/02/2020 08:42:27	120220	12022020	084227	185.00	12.790757	-57.135403	185.05	0.760	0.020	0.940	185.00	-1.30	1.50	 	 	 	 	 	 	 	 	 	 	 	 	 	 	 	 	 	 	1581496947	7.25	13.43
12/02/2020 08:42:28	120220	12022020	084228	184.62	12.790722	-57.135407	184.68	0.490	-0.120	1.570	184.62	-1.50	2.10	 	 	 	 	 	 	 	 	 	 	 	 	 	 	 	 	 	 	1581496948	7.45	13.80
12/02/2020 08:42:29	120220	12022020	084229	184.35	12.790687	-57.135413	184.44	0.020	-0.250	2.300	184.35	-1.60	2.90	 	 	 	 	 	 	 	 	 	 	 	 	 	 	 	 	 	 	1581496949	7.52	13.93
12/02/2020 08:42:30	120220	12022020	084230	184.34	12.790653	-57.135423	184.47	-0.410	-0.240	2.840	184.35	-1.60	3.40	 	 	 	 	 	 	 	 	 	 	 	 	 	 	 	 	 	 	1581496950	7.52	13.93
12/02/2020 08:42:31	120220	12022020	084231	184.43	12.790622	-57.135433	184.56	-0.600	-0.240	3.150	184.43	-1.60	3.70	 	 	 	 	 	 	 	 	 	 	 	 	 	 	 	 	 	 	1581496951	7.38	13.67
12/02/2020 08:42:32	120220	12022020	084232	184.45	12.790588	-57.135445	184.56	-0.510	-0.430	3.120	184.44	-1.80	3.60	 	 	 	 	 	 	 	 	 	 	 	 	 	 	 	 	 	 	1581496952	7.34	13.59
12/02/2020 08:42:33	120220	12022020	084233	184.40	12.790555	-57.135453	184.50	-0.200	-0.740	2.740	184.40	-2.10	3.20	 	 	 	 	 	 	 	 	 	 	 	 	 	 	 	 	 	 	1581496953	7.47	13.83
12/02/2020 08:42:34	120220	12022020	084234	184.25	12.790520	-57.135460	184.33	0.230	-1.010	2.210	184.25	-2.30	2.70	 	 	 	 	 	 	 	 	 	 	 	 	 	 	 	 	 	 	1581496954	7.63	14.13
12/02/2020 08:42:35	120220	12022020	084235	184.09	12.790483	-57.135463	184.18	0.490	-0.880	1.560	184.09	-2.20	2.10	 	 	 	 	 	 	 	 	 	 	 	 	 	 	 	 	 	 	1581496955	7.74	14.33
12/02/2020 08:42:36	120220	12022020	084236	184.11	12.790448	-57.135463	184.22	0.310	-0.140	1.030	184.11	-1.40	1.50	 	 	 	 	 	 	 	 	 	 	 	 	 	 	 	 	 	 	1581496956	7.51	13.91
12/02/2020 08:42:37	120220	12022020	084237	184.40	12.790417	-57.135463	184.52	-0.130	0.700	0.670	184.40	-0.60	1.20	 	 	 	 	 	 	 	 	 	 	 	 	 	 	 	 	 	 	1581496957	6.90	12.78
12/02/2020 08:42:38	120220	12022020	084238	184.84	12.790387	-57.135467	184.96	-0.340	0.910	0.580	184.84	-0.40	1.10	 	 	 	 	 	 	 	 	 	 	 	 	 	 	 	 	 	 	1581496958	6.73	12.46
12/02/2020 08:42:39	120220	12022020	084239	185.08	12.790352	-57.135470	185.19	-0.060	0.280	0.980	185.08	-1.10	1.50	 	 	 	 	 	 	 	 	 	 	 	 	 	 	 	 	 	 	1581496959	7.29	13.50
12/02/2020 08:42:40	120220	12022020	084240	185.09	12.790315	-57.135477	185.20	0.390	-0.580	1.660	185.09	-1.90	2.20	 	 	 	 	 	 	 	 	 	 	 	 	 	 	 	 	 	 	1581496960	8.13	15.06
12/02/2020 08:42:41	120220	12022020	084241	185.04	12.790277	-57.135483	185.16	0.470	-0.900	2.470	185.04	-2.20	3.00	 	 	 	 	 	 	 	 	 	 	 	 	 	 	 	 	 	 	1581496961	8.31	15.39
12/02/2020 08:42:42	120220	12022020	084242	184.90	12.790242	-57.135492	185.03	0.030	-0.640	3.340	184.90	-1.90	3.90	 	 	 	 	 	 	 	 	 	 	 	 	 	 	 	 	 	 	1581496962	7.67	14.20
12/02/2020 08:42:43	120220	12022020	084243	184.73	12.790210	-57.135502	184.88	-0.610	-0.090	3.860	184.73	-1.40	4.40	 	 	 	 	 	 	 	 	 	 	 	 	 	 	 	 	 	 	1581496963	7.15	13.24
12/02/2020 08:42:44	120220	12022020	084244	184.79	12.790180	-57.135512	184.96	-0.990	0.330	3.780	184.79	-1.00	4.30	 	 	 	 	 	 	 	 	 	 	 	 	 	 	 	 	 	 	1581496964	6.93	12.83
12/02/2020 08:42:45	120220	12022020	084245	184.92	12.790148	-57.135523	185.07	-0.680	0.170	3.170	184.92	-1.20	3.60	 	 	 	 	 	 	 	 	 	 	 	 	 	 	 	 	 	 	1581496965	7.04	13.04
12/02/2020 08:42:46	120220	12022020	084246	185.07	12.790115	-57.135532	185.18	0.240	-0.420	1.970	185.07	-1.80	2.40	 	 	 	 	 	 	 	 	 	 	 	 	 	 	 	 	 	 	1581496966	7.56	14.00
12/02/2020 08:42:47	120220	12022020	084247	185.32	12.790078	-57.135533	185.42	1.150	-0.750	0.570	185.32	-2.10	1.00	 	 	 	 	 	 	 	 	 	 	 	 	 	 	 	 	 	 	1581496967	7.96	14.74
12/02/2020 08:42:48	120220	12022020	084248	185.74	12.790042	-57.135530	185.82	1.400	-0.540	-0.550	185.74	-1.80	-0.10	 	 	 	 	 	 	 	 	 	 	 	 	 	 	 	 	 	 	1581496968	7.81	14.46
12/02/2020 08:42:49	120220	12022020	084249	186.12	12.790008	-57.135523	186.16	0.870	-0.220	-0.940	186.12	-1.50	-0.40	 	 	 	 	 	 	 	 	 	 	 	 	 	 	 	 	 	 	1581496969	7.29	13.50
12/02/2020 08:42:50	120220	12022020	084250	186.05	12.789975	-57.135522	186.05	-0.030	-0.310	-0.080	186.05	-1.60	0.50	 	 	 	 	 	 	 	 	 	 	 	 	 	 	 	 	 	 	1581496970	7.02	13.00
12/02/2020 08:42:51	120220	12022020	084251	185.50	12.789942	-57.135530	185.52	-0.780	-0.730	1.670	185.50	-2.10	2.30	 	 	 	 	 	 	 	 	 	 	 	 	 	 	 	 	 	 	1581496971	7.54	13.96
12/02/2020 08:42:52	120220	12022020	084252	184.91	12.789905	-57.135547	184.97	-1.120	-0.850	3.320	184.91	-2.10	3.90	 	 	 	 	 	 	 	 	 	 	 	 	 	 	 	 	 	 	1581496972	8.48	15.70
12/02/2020 08:42:53	120220	12022020	084253	184.68	12.789870	-57.135567	184.81	-1.060	-0.290	4.140	184.68	-1.60	4.60	 	 	 	 	 	 	 	 	 	 	 	 	 	 	 	 	 	 	1581496973	8.61	15.95
12/02/2020 08:42:54	120220	12022020	084254	184.91	12.789838	-57.135583	185.21	-0.740	0.660	3.680	185.02	-0.60	4.10	 	 	 	 	 	 	 	 	 	 	 	 	 	 	 	 	 	 	1581496974	7.71	14.28
12/02/2020 08:42:55	120220	12022020	084255	185.69	12.789808	-57.135592	185.87	-0.280	1.090	2.200	185.69	-0.20	2.60	 	 	 	 	 	 	 	 	 	 	 	 	 	 	 	 	 	 	1581496975	6.68	12.37
12/02/2020 08:42:56	120220	12022020	084256	186.16	12.789777	-57.135592	186.35	0.260	0.530	0.660	186.24	-0.80	1.10	 	 	 	 	 	 	 	 	 	 	 	 	 	 	 	 	 	 	1581496976	6.87	12.72
12/02/2020 08:42:57	120220	12022020	084257	186.31	12.789740	-57.135588	186.36	0.740	-0.600	-0.040	186.31	-2.00	0.50	 	 	 	 	 	 	 	 	 	 	 	 	 	 	 	 	 	 	1581496977	7.79	14.43
12/02/2020 08:42:58	120220	12022020	084258	186.02	12.789702	-57.135588	186.05	0.980	-1.400	0.210	186.02	-2.70	0.80	 	 	 	 	 	 	 	 	 	 	 	 	 	 	 	 	 	 	1581496978	8.22	15.22
12/02/2020 08:42:59	120220	12022020	084259	185.62	12.789665	-57.135592	185.66	0.870	-1.370	1.040	185.62	-2.70	1.60	 	 	 	 	 	 	 	 	 	 	 	 	 	 	 	 	 	 	1581496979	7.86	14.56
12/02/2020 08:43:00	120220	12022020	084300	185.26	12.789633	-57.135598	185.32	0.510	-0.770	1.890	185.26	-2.00	2.40	 	 	 	 	 	 	 	 	 	 	 	 	 	 	 	 	 	 	1581496980	7.25	13.43
12/02/2020 08:43:01	120220	12022020	084301	185.05	12.789602	-57.135607	185.15	0.050	-0.050	2.450	185.05	-1.30	3.00	1014.90	26.10	26.20	20.80	20.80	-1.0	72.0	72.0	394.0	25.8	275.00	10.40	80.00	10.70	16	9714.0	27.5	27.5	1581496981	6.99	12.95
12/02/2020 08:43:02	120220	12022020	084302	185.14	12.789568	-57.135615	185.29	-0.480	0.550	2.680	185.14	-0.70	3.20	 	 	 	 	 	 	 	 	 	 	 	 	 	 	 	 	 	 	1581496982	7.11	13.17
12/02/2020 08:43:03	120220	12022020	084303	185.54	12.789537	-57.135625	185.71	-1.000	0.850	2.670	185.54	-0.50	3.20	 	 	 	 	 	 	 	 	 	 	 	 	 	 	 	 	 	 	1581496983	7.18	13.30
12/02/2020 08:43:04	120220	12022020	084304	185.91	12.789505	-57.135635	186.07	-1.180	0.550	2.630	185.91	-0.80	3.10	 	 	 	 	 	 	 	 	 	 	 	 	 	 	 	 	 	 	1581496984	7.27	13.46
12/02/2020 08:43:05	120220	12022020	084305	186.02	12.789470	-57.135647	186.16	-0.820	-0.280	2.500	186.02	-1.60	3.00	 	 	 	 	 	 	 	 	 	 	 	 	 	 	 	 	 	 	1581496985	7.73	14.32
12/02/2020 08:43:06	120220	12022020	084306	185.94	12.789433	-57.135657	186.07	-0.070	-1.020	2.120	185.94	-2.40	2.60	 	 	 	 	 	 	 	 	 	 	 	 	 	 	 	 	 	 	1581496986	8.18	15.15
12/02/2020 08:43:07	120220	12022020	084307	186.11	12.789397	-57.135663	186.25	0.650	-1.070	1.280	186.11	-2.40	1.70	 	 	 	 	 	 	 	 	 	 	 	 	 	 	 	 	 	 	1581496987	8.04	14.89
12/02/2020 08:43:08	120220	12022020	084308	186.39	12.789363	-57.135665	186.55	1.010	-0.510	0.350	186.45	-1.80	0.80	 	 	 	 	 	 	 	 	 	 	 	 	 	 	 	 	 	 	1581496988	7.28	13.48
12/02/2020 08:43:09	120220	12022020	084309	186.61	12.789332	-57.135663	186.69	1.010	-0.010	-0.100	186.61	-1.30	0.40	 	 	 	 	 	 	 	 	 	 	 	 	 	 	 	 	 	 	1581496989	6.75	12.50
12/02/2020 08:43:10	120220	12022020	084310	186.58	12.789300	-57.135662	186.64	0.680	0.080	0.060	186.58	-1.20	0.60	 	 	 	 	 	 	 	 	 	 	 	 	 	 	 	 	 	 	1581496990	6.89	12.76
12/02/2020 08:43:11	120220	12022020	084311	186.35	12.789267	-57.135663	186.40	0.130	-0.190	0.800	186.35	-1.50	1.40	 	 	 	 	 	 	 	 	 	 	 	 	 	 	 	 	 	 	1581496991	7.29	13.50
12/02/2020 08:43:12	120220	12022020	084312	185.80	12.789232	-57.135672	185.86	-0.420	-0.600	2.100	185.80	-1.90	2.70	 	 	 	 	 	 	 	 	 	 	 	 	 	 	 	 	 	 	1581496992	7.73	14.32
12/02/2020 08:43:13	120220	12022020	084313	185.09	12.789195	-57.135685	185.19	-0.750	-0.760	3.420	185.09	-2.10	4.00	 	 	 	 	 	 	 	 	 	 	 	 	 	 	 	 	 	 	1581496993	8.26	15.30
12/02/2020 08:43:14	120220	12022020	084314	184.76	12.789160	-57.135702	184.93	-0.860	-0.280	4.020	184.76	-1.50	4.50	 	 	 	 	 	 	 	 	 	 	 	 	 	 	 	 	 	 	1581496994	8.32	15.41
12/02/2020 08:43:15	120220	12022020	084315	185.03	12.789128	-57.135715	185.22	-0.810	0.470	3.780	185.03	-0.80	4.20	 	 	 	 	 	 	 	 	 	 	 	 	 	 	 	 	 	 	1581496995	7.55	13.98
12/02/2020 08:43:16	120220	12022020	084316	185.57	12.789097	-57.135725	185.75	-0.550	0.740	2.880	185.57	-0.60	3.30	 	 	 	 	 	 	 	 	 	 	 	 	 	 	 	 	 	 	1581496996	6.91	12.80
12/02/2020 08:43:17	120220	12022020	084317	186.11	12.789065	-57.135732	186.27	-0.020	0.340	1.610	186.11	-1.00	2.00	 	 	 	 	 	 	 	 	 	 	 	 	 	 	 	 	 	 	1581496997	7.04	13.04
12/02/2020 08:43:18	120220	12022020	084318	186.52	12.789030	-57.135733	186.63	0.600	-0.300	0.460	186.52	-1.60	0.90	 	 	 	 	 	 	 	 	 	 	 	 	 	 	 	 	 	 	1581496998	7.58	14.04
12/02/2020 08:43:19	120220	12022020	084319	186.60	12.788993	-57.135732	186.66	1.010	-0.760	-0.050	186.60	-2.10	0.50	 	 	 	 	 	 	 	 	 	 	 	 	 	 	 	 	 	 	1581496999	7.67	14.20
12/02/2020 08:43:20	120220	12022020	084320	186.46	12.788960	-57.135733	186.52	1.010	-0.760	-0.090	186.46	-2.10	0.40	 	 	 	 	 	 	 	 	 	 	 	 	 	 	 	 	 	 	1581497000	7.41	13.72
12/02/2020 08:43:21	120220	12022020	084321	186.33	12.788927	-57.135735	186.40	0.650	-0.430	0.210	186.33	-1.70	0.80	 	 	 	 	 	 	 	 	 	 	 	 	 	 	 	 	 	 	1581497001	6.99	12.95
12/02/2020 08:43:22	120220	12022020	084322	186.15	12.788897	-57.135740	186.15	0.180	-0.410	0.950	186.09	-1.70	1.50	 	 	 	 	 	 	 	 	 	 	 	 	 	 	 	 	 	 	1581497002	6.78	12.56
12/02/2020 08:43:23	120220	12022020	084323	185.79	12.788862	-57.135750	185.89	-0.130	-0.740	1.930	185.79	-2.10	2.50	 	 	 	 	 	 	 	 	 	 	 	 	 	 	 	 	 	 	1581497003	7.44	13.78
12/02/2020 08:43:24	120220	12022020	084324	185.71	12.788827	-57.135762	185.85	-0.320	-0.720	2.720	185.71	-2.00	3.20	 	 	 	 	 	 	 	 	 	 	 	 	 	 	 	 	 	 	1581497004	8.10	15.00
12/02/2020 08:43:25	120220	12022020	084325	185.97	12.788792	-57.135773	186.14	-0.530	-0.150	3.090	185.97	-1.40	3.60	 	 	 	 	 	 	 	 	 	 	 	 	 	 	 	 	 	 	1581497005	7.84	14.52
12/02/2020 08:43:26	120220	12022020	084326	186.37	12.788760	-57.135783	186.54	-0.790	0.410	3.000	186.37	-0.90	3.50	 	 	 	 	 	 	 	 	 	 	 	 	 	 	 	 	 	 	1581497006	7.14	13.22
12/02/2020 08:43:27	120220	12022020	084327	186.62	12.788728	-57.135792	186.77	-0.910	0.430	2.730	186.62	-0.90	3.20	 	 	 	 	 	 	 	 	 	 	 	 	 	 	 	 	 	 	1581497007	6.96	12.89
12/02/2020 08:43:28	120220	12022020	084328	186.59	12.788695	-57.135798	186.71	-0.620	-0.110	2.430	186.59	-1.50	2.90	 	 	 	 	 	 	 	 	 	 	 	 	 	 	 	 	 	 	1581497008	7.45	13.80
12/02/2020 08:43:29	120220	12022020	084329	186.49	12.788658	-57.135807	186.61	-0.010	-0.520	1.910	186.49	-1.90	2.40	 	 	 	 	 	 	 	 	 	 	 	 	 	 	 	 	 	 	1581497009	8.01	14.83
12/02/2020 08:43:30	120220	12022020	084330	186.54	12.788623	-57.135812	186.68	0.530	-0.390	1.350	186.54	-1.70	1.80	 	 	 	 	 	 	 	 	 	 	 	 	 	 	 	 	 	 	1581497010	7.82	14.48
12/02/2020 08:43:31	120220	12022020	084331	186.73	12.788590	-57.135815	186.86	0.760	0.050	0.810	186.73	-1.20	1.30	 	 	 	 	 	 	 	 	 	 	 	 	 	 	 	 	 	 	1581497011	7.15	13.24
12/02/2020 08:43:32	120220	12022020	084332	186.81	12.788558	-57.135817	186.91	0.810	0.310	0.340	186.81	-1.00	0.90	 	 	 	 	 	 	 	 	 	 	 	 	 	 	 	 	 	 	1581497012	6.76	12.52
12/02/2020 08:43:33	120220	12022020	084333	186.62	12.788527	-57.135818	186.69	0.830	0.000	0.390	186.62	-1.30	0.90	 	 	 	 	 	 	 	 	 	 	 	 	 	 	 	 	 	 	1581497013	6.94	12.85
12/02/2020 08:43:34	120220	12022020	084334	186.37	12.788490	-57.135820	186.48	0.620	-0.570	1.080	186.37	-1.90	1.70	 	 	 	 	 	 	 	 	 	 	 	 	 	 	 	 	 	 	1581497014	7.60	14.08
12/02/2020 08:43:35	120220	12022020	084335	186.34	12.788455	-57.135827	186.50	-0.030	-0.810	2.250	186.34	-2.10	2.80	 	 	 	 	 	 	 	 	 	 	 	 	 	 	 	 	 	 	1581497015	7.90	14.63
12/02/2020 08:43:36	120220	12022020	084336	186.46	12.788422	-57.135842	186.64	-0.840	-0.550	3.340	186.46	-1.80	3.90	 	 	 	 	 	 	 	 	 	 	 	 	 	 	 	 	 	 	1581497016	7.80	14.45
12/02/2020 08:43:37	120220	12022020	084337	186.65	12.788390	-57.135858	186.85	-1.230	-0.130	3.700	186.65	-1.40	4.20	 	 	 	 	 	 	 	 	 	 	 	 	 	 	 	 	 	 	1581497017	7.59	14.06
12/02/2020 08:43:38	120220	12022020	084338	186.92	12.788360	-57.135875	187.10	-0.860	0.010	3.230	186.92	-1.30	3.70	 	 	 	 	 	 	 	 	 	 	 	 	 	 	 	 	 	 	1581497018	7.28	13.48
12/02/2020 08:43:39	120220	12022020	084339	187.14	12.788327	-57.135883	187.29	-0.050	-0.300	2.310	187.14	-1.60	2.80	 	 	 	 	 	 	 	 	 	 	 	 	 	 	 	 	 	 	1581497019	7.28	13.48
12/02/2020 08:43:40	120220	12022020	084340	187.16	12.788292	-57.135887	187.28	0.590	-0.860	1.500	187.16	-2.20	2.00	 	 	 	 	 	 	 	 	 	 	 	 	 	 	 	 	 	 	1581497020	7.73	14.32
12/02/2020 08:43:41	120220	12022020	084341	186.99	12.788253	-57.135887	187.08	0.700	-1.110	1.040	186.99	-2.40	1.60	 	 	 	 	 	 	 	 	 	 	 	 	 	 	 	 	 	 	1581497021	8.14	15.08
12/02/2020 08:43:42	120220	12022020	084342	186.85	12.788217	-57.135890	186.94	0.360	-0.520	0.900	186.85	-1.80	1.40	 	 	 	 	 	 	 	 	 	 	 	 	 	 	 	 	 	 	1581497022	7.89	14.61
12/02/2020 08:43:43	120220	12022020	084343	186.91	12.788185	-57.135895	187.02	-0.060	0.680	0.930	186.91	-0.60	1.50	 	 	 	 	 	 	 	 	 	 	 	 	 	 	 	 	 	 	1581497023	7.02	13.00
12/02/2020 08:43:44	120220	12022020	084344	186.96	12.788155	-57.135898	187.06	-0.220	1.260	1.130	186.96	-0.10	1.70	 	 	 	 	 	 	 	 	 	 	 	 	 	 	 	 	 	 	1581497024	6.33	11.72
12/02/2020 08:43:45	120220	12022020	084345	186.75	12.788123	-57.135905	186.84	-0.060	0.530	1.760	186.75	-0.90	2.30	 	 	 	 	 	 	 	 	 	 	 	 	 	 	 	 	 	 	1581497025	6.93	12.83
12/02/2020 08:43:46	120220	12022020	084346	186.36	12.788087	-57.135915	186.48	0.140	-0.740	2.740	186.36	-2.10	3.30	 	 	 	 	 	 	 	 	 	 	 	 	 	 	 	 	 	 	1581497026	8.31	15.39
12/02/2020 08:43:47	120220	12022020	084347	186.03	12.788047	-57.135928	186.19	0.130	-1.270	3.640	186.03	-2.60	4.20	 	 	 	 	 	 	 	 	 	 	 	 	 	 	 	 	 	 	1581497027	8.92	16.52
12/02/2020 08:43:48	120220	12022020	084348	186.01	12.788012	-57.135942	186.20	-0.150	-0.680	3.930	186.01	-2.00	4.40	 	 	 	 	 	 	 	 	 	 	 	 	 	 	 	 	 	 	1581497028	8.12	15.04
12/02/2020 08:43:49	120220	12022020	084349	186.28	12.787982	-57.135953	186.48	-0.450	0.240	3.400	186.28	-1.10	3.90	 	 	 	 	 	 	 	 	 	 	 	 	 	 	 	 	 	 	1581497029	6.76	12.52
12/02/2020 08:43:50	120220	12022020	084350	186.68	12.787955	-57.135962	186.84	-0.430	0.530	2.420	186.68	-0.80	2.90	 	 	 	 	 	 	 	 	 	 	 	 	 	 	 	 	 	 	1581497030	6.23	11.54
12/02/2020 08:43:51	120220	12022020	084351	186.93	12.787923	-57.135965	187.05	0.000	-0.010	1.430	186.93	-1.40	1.90	 	 	 	 	 	 	 	 	 	 	 	 	 	 	 	 	 	 	1581497031	6.81	12.61
12/02/2020 08:43:52	120220	12022020	084352	187.04	12.787887	-57.135968	187.15	0.560	-0.880	0.590	187.04	-2.30	1.10	 	 	 	 	 	 	 	 	 	 	 	 	 	 	 	 	 	 	1581497032	7.72	14.30
12/02/2020 08:43:53	120220	12022020	084353	187.14	12.787848	-57.135968	187.24	0.770	-1.300	0.210	187.14	-2.60	0.70	 	 	 	 	 	 	 	 	 	 	 	 	 	 	 	 	 	 	1581497033	8.20	15.19
12/02/2020 08:43:54	120220	12022020	084354	187.21	12.787813	-57.135972	187.30	0.460	-0.940	0.390	187.21	-2.20	0.90	 	 	 	 	 	 	 	 	 	 	 	 	 	 	 	 	 	 	1581497034	7.75	14.35
12/02/2020 08:43:55	120220	12022020	084355	187.10	12.787780	-57.135977	187.17	-0.030	-0.230	0.940	187.10	-1.50	1.50	 	 	 	 	 	 	 	 	 	 	 	 	 	 	 	 	 	 	1581497035	7.05	13.06
12/02/2020 08:43:56	120220	12022020	084356	186.79	12.787750	-57.135985	186.84	-0.320	0.240	1.640	186.79	-1.10	2.20	 	 	 	 	 	 	 	 	 	 	 	 	 	 	 	 	 	 	1581497036	6.87	12.72
12/02/2020 08:43:57	120220	12022020	084357	186.43	12.787717	-57.135992	186.50	-0.380	0.310	2.290	186.43	-1.00	2.80	 	 	 	 	 	 	 	 	 	 	 	 	 	 	 	 	 	 	1581497037	7.28	13.48
12/02/2020 08:43:58	120220	12022020	084358	186.25	12.787682	-57.136002	186.31	-0.380	0.100	2.760	186.22	-1.20	3.30	 	 	 	 	 	 	 	 	 	 	 	 	 	 	 	 	 	 	1581497038	7.76	14.37
12/02/2020 08:43:59	120220	12022020	084359	186.18	12.787647	-57.136012	186.30	-0.420	-0.190	3.060	186.18	-1.50	3.60	 	 	 	 	 	 	 	 	 	 	 	 	 	 	 	 	 	 	1581497039	8.01	14.83
12/02/2020 08:44:00	120220	12022020	084400	186.29	12.787610	-57.136023	186.41	-0.430	-0.310	3.220	186.29	-1.60	3.70	 	 	 	 	 	 	 	 	 	 	 	 	 	 	 	 	 	 	1581497040	8.00	14.82
12/02/2020 08:44:01	120220	12022020	084401	186.35	12.787577	-57.136035	186.46	-0.260	-0.180	3.150	186.35	-1.50	3.60	1015.00	26.20	26.20	20.60	20.70	-1.0	71.0	71.0	394.0	25.8	270.00	10.40	76.00	11.10	16	9682.0	27.5	27.5	1581497041	7.72	14.30
12/02/2020 08:44:02	120220	12022020	084402	186.30	12.787545	-57.136047	186.40	0.120	0.120	2.710	186.30	-1.20	3.20	 	 	 	 	 	 	 	 	 	 	 	 	 	 	 	 	 	 	1581497042	7.31	13.54
12/02/2020 08:44:03	120220	12022020	084403	186.39	12.787512	-57.136052	186.50	0.470	0.420	1.880	186.39	-0.90	2.30	 	 	 	 	 	 	 	 	 	 	 	 	 	 	 	 	 	 	1581497043	6.96	12.89
12/02/2020 08:44:04	120220	12022020	084404	186.83	12.787480	-57.136053	186.97	0.510	0.340	0.910	186.83	-1.00	1.40	 	 	 	 	 	 	 	 	 	 	 	 	 	 	 	 	 	 	1581497044	6.88	12.74
12/02/2020 08:44:05	120220	12022020	084405	187.48	12.787447	-57.136053	187.61	0.280	-0.230	0.390	187.48	-1.60	0.90	 	 	 	 	 	 	 	 	 	 	 	 	 	 	 	 	 	 	1581497045	7.11	13.17
12/02/2020 08:44:06	120220	12022020	084406	187.79	12.787413	-57.136058	187.85	0.140	-1.070	0.610	187.79	-2.40	1.20	 	 	 	 	 	 	 	 	 	 	 	 	 	 	 	 	 	 	1581497046	7.44	13.78
12/02/2020 08:44:07	120220	12022020	084407	187.38	12.787378	-57.136065	187.40	0.370	-1.860	1.370	187.38	-3.20	1.90	 	 	 	 	 	 	 	 	 	 	 	 	 	 	 	 	 	 	1581497047	7.82	14.48
12/02/2020 08:44:08	120220	12022020	084408	186.69	12.787340	-57.136073	186.73	0.600	-1.940	2.190	186.69	-3.20	2.70	 	 	 	 	 	 	 	 	 	 	 	 	 	 	 	 	 	 	1581497048	8.17	15.13
12/02/2020 08:44:09	120220	12022020	084409	186.23	12.787305	-57.136082	186.33	0.270	-0.970	2.890	186.23	-2.20	3.40	 	 	 	 	 	 	 	 	 	 	 	 	 	 	 	 	 	 	1581497049	7.83	14.50
12/02/2020 08:44:10	120220	12022020	084410	186.12	12.787273	-57.136090	186.25	-0.560	0.300	3.260	186.11	-1.00	3.80	 	 	 	 	 	 	 	 	 	 	 	 	 	 	 	 	 	 	1581497050	7.03	13.02
12/02/2020 08:44:11	120220	12022020	084411	186.12	12.787243	-57.136100	186.25	-1.310	1.040	3.400	186.12	-0.30	3.90	 	 	 	 	 	 	 	 	 	 	 	 	 	 	 	 	 	 	1581497051	6.88	12.74
12/02/2020 08:44:12	120220	12022020	084412	186.10	12.787210	-57.136112	186.24	-1.410	1.090	3.420	186.10	-0.20	3.90	 	 	 	 	 	 	 	 	 	 	 	 	 	 	 	 	 	 	1581497052	7.52	13.93
12/02/2020 08:44:13	120220	12022020	084413	186.21	12.787175	-57.136125	186.37	-0.800	1.010	2.970	186.21	-0.30	3.40	 	 	 	 	 	 	 	 	 	 	 	 	 	 	 	 	 	 	1581497053	8.09	14.98
12/02/2020 08:44:14	120220	12022020	084414	186.64	12.787140	-57.136135	186.81	0.040	0.970	1.960	186.64	-0.40	2.40	 	 	 	 	 	 	 	 	 	 	 	 	 	 	 	 	 	 	1581497054	7.72	14.30
12/02/2020 08:44:15	120220	12022020	084415	187.12	12.787107	-57.136138	187.27	0.720	0.510	0.870	187.12	-0.90	1.30	 	 	 	 	 	 	 	 	 	 	 	 	 	 	 	 	 	 	1581497055	7.16	13.26
12/02/2020 08:44:16	120220	12022020	084416	187.40	12.787073	-57.136138	187.52	1.100	-0.510	0.120	187.40	-1.90	0.60	 	 	 	 	 	 	 	 	 	 	 	 	 	 	 	 	 	 	1581497056	7.35	13.61
12/02/2020 08:44:17	120220	12022020	084417	187.40	12.787037	-57.136138	187.49	1.150	-1.630	0.090	187.40	-3.00	0.60	 	 	 	 	 	 	 	 	 	 	 	 	 	 	 	 	 	 	1581497057	7.79	14.43
12/02/2020 08:44:18	120220	12022020	084418	187.01	12.787000	-57.136142	187.07	0.880	-2.290	0.820	187.01	-3.60	1.40	 	 	 	 	 	 	 	 	 	 	 	 	 	 	 	 	 	 	1581497058	7.89	14.61
12/02/2020 08:44:19	120220	12022020	084419	186.45	12.786965	-57.136150	186.53	0.370	-2.060	1.890	186.45	-3.30	2.40	 	 	 	 	 	 	 	 	 	 	 	 	 	 	 	 	 	 	1581497059	7.73	14.32
12/02/2020 08:44:20	120220	12022020	084420	185.93	12.786932	-57.136162	186.02	-0.290	-1.090	2.870	185.93	-2.40	3.40	 	 	 	 	 	 	 	 	 	 	 	 	 	 	 	 	 	 	1581497060	7.35	13.61
12/02/2020 08:44:21	120220	12022020	084421	185.54	12.786902	-57.136173	185.67	-0.860	-0.010	3.460	185.54	-1.30	4.00	 	 	 	 	 	 	 	 	 	 	 	 	 	 	 	 	 	 	1581497061	7.14	13.22
12/02/2020 08:44:22	120220	12022020	084422	185.52	12.786870	-57.136185	185.67	-1.150	0.800	3.450	185.52	-0.50	3.90	 	 	 	 	 	 	 	 	 	 	 	 	 	 	 	 	 	 	1581497062	7.32	13.56
12/02/2020 08:44:23	120220	12022020	084423	185.82	12.786837	-57.136195	185.98	-1.040	1.120	3.010	185.82	-0.20	3.50	 	 	 	 	 	 	 	 	 	 	 	 	 	 	 	 	 	 	1581497063	7.54	13.96
12/02/2020 08:44:24	120220	12022020	084424	186.27	12.786802	-57.136203	186.43	-0.570	1.030	2.270	186.27	-0.30	2.70	 	 	 	 	 	 	 	 	 	 	 	 	 	 	 	 	 	 	1581497064	7.76	14.37
12/02/2020 08:44:25	120220	12022020	084425	186.75	12.786765	-57.136208	186.86	0.040	0.740	1.410	186.75	-0.60	1.90	 	 	 	 	 	 	 	 	 	 	 	 	 	 	 	 	 	 	1581497065	7.83	14.50
12/02/2020 08:44:26	120220	12022020	084426	186.97	12.786730	-57.136212	187.04	0.550	0.250	0.860	186.97	-1.10	1.30	 	 	 	 	 	 	 	 	 	 	 	 	 	 	 	 	 	 	1581497066	7.67	14.20
12/02/2020 08:44:27	120220	12022020	084427	186.83	12.786693	-57.136213	186.90	0.840	-0.520	0.810	186.83	-1.90	1.30	 	 	 	 	 	 	 	 	 	 	 	 	 	 	 	 	 	 	1581497067	7.63	14.13
12/02/2020 08:44:28	120220	12022020	084428	186.58	12.786658	-57.136217	186.65	0.780	-1.090	1.110	186.58	-2.40	1.60	 	 	 	 	 	 	 	 	 	 	 	 	 	 	 	 	 	 	1581497068	7.80	14.45
12/02/2020 08:44:29	120220	12022020	084429	186.42	12.786623	-57.136223	186.52	0.470	-0.990	1.490	186.42	-2.30	2.00	 	 	 	 	 	 	 	 	 	 	 	 	 	 	 	 	 	 	1581497069	7.59	14.06
12/02/2020 08:44:30	120220	12022020	084430	186.42	12.786592	-57.136232	186.53	0.160	-0.530	1.640	186.42	-1.90	2.10	 	 	 	 	 	 	 	 	 	 	 	 	 	 	 	 	 	 	1581497070	6.96	12.89
12/02/2020 08:44:31	120220	12022020	084431	186.39	12.786562	-57.136238	186.49	0.010	-0.480	1.720	186.39	-1.80	2.20	 	 	 	 	 	 	 	 	 	 	 	 	 	 	 	 	 	 	1581497071	6.70	12.41
12/02/2020 08:44:32	120220	12022020	084432	186.29	12.786527	-57.136243	186.39	-0.060	-0.860	2.020	186.29	-2.20	2.50	 	 	 	 	 	 	 	 	 	 	 	 	 	 	 	 	 	 	1581497072	7.37	13.65
12/02/2020 08:44:33	120220	12022020	084433	186.05	12.786490	-57.136252	186.16	-0.220	-1.050	2.510	186.05	-2.40	3.00	 	 	 	 	 	 	 	 	 	 	 	 	 	 	 	 	 	 	1581497073	8.07	14.95
12/02/2020 08:44:34	120220	12022020	084434	185.80	12.786455	-57.136262	185.84	-0.460	-0.640	2.920	185.74	-1.90	3.40	 	 	 	 	 	 	 	 	 	 	 	 	 	 	 	 	 	 	1581497074	8.11	15.02
12/02/2020 08:44:35	120220	12022020	084435	185.48	12.786420	-57.136273	185.58	-0.500	0.190	2.920	185.48	-1.10	3.40	 	 	 	 	 	 	 	 	 	 	 	 	 	 	 	 	 	 	1581497075	7.71	14.28
12/02/2020 08:44:36	120220	12022020	084436	185.46	12.786388	-57.136283	185.60	-0.180	0.950	2.350	185.48	-0.40	2.80	 	 	 	 	 	 	 	 	 	 	 	 	 	 	 	 	 	 	1581497076	7.29	13.50
12/02/2020 08:44:37	120220	12022020	084437	185.88	12.786355	-57.136287	186.01	0.210	1.180	1.440	185.88	-0.20	1.90	 	 	 	 	 	 	 	 	 	 	 	 	 	 	 	 	 	 	1581497077	7.15	13.24
12/02/2020 08:44:38	120220	12022020	084438	186.51	12.786320	-57.136287	186.63	0.260	0.710	0.730	186.51	-0.70	1.20	 	 	 	 	 	 	 	 	 	 	 	 	 	 	 	 	 	 	1581497078	7.47	13.83
12/02/2020 08:44:39	120220	12022020	084439	187.11	12.786283	-57.136288	187.21	-0.020	-0.110	0.710	187.11	-1.50	1.20	 	 	 	 	 	 	 	 	 	 	 	 	 	 	 	 	 	 	1581497079	7.78	14.41
12/02/2020 08:44:40	120220	12022020	084440	187.30	12.786248	-57.136295	187.35	-0.230	-1.000	1.500	187.30	-2.40	2.00	 	 	 	 	 	 	 	 	 	 	 	 	 	 	 	 	 	 	1581497080	7.76	14.37
12/02/2020 08:44:41	120220	12022020	084441	186.82	12.786213	-57.136308	186.84	0.080	-1.800	2.520	186.82	-3.20	3.00	 	 	 	 	 	 	 	 	 	 	 	 	 	 	 	 	 	 	1581497081	7.93	14.69
12/02/2020 08:44:42	120220	12022020	084442	185.98	12.786178	-57.136320	186.02	0.660	-1.860	3.280	185.98	-3.20	3.80	 	 	 	 	 	 	 	 	 	 	 	 	 	 	 	 	 	 	1581497082	8.14	15.08
12/02/2020 08:44:43	120220	12022020	084443	185.46	12.786143	-57.136328	185.57	0.720	-0.850	3.510	185.46	-2.10	4.00	 	 	 	 	 	 	 	 	 	 	 	 	 	 	 	 	 	 	1581497083	7.69	14.24
12/02/2020 08:44:44	120220	12022020	084444	185.80	12.786112	-57.136335	185.97	0.060	0.590	3.030	185.80	-0.70	3.50	 	 	 	 	 	 	 	 	 	 	 	 	 	 	 	 	 	 	1581497084	6.74	12.48
12/02/2020 08:44:45	120220	12022020	084445	186.59	12.786085	-57.136340	186.75	-0.730	1.340	2.270	186.59	0.00	2.70	 	 	 	 	 	 	 	 	 	 	 	 	 	 	 	 	 	 	1581497085	6.13	11.35
12/02/2020 08:44:46	120220	12022020	084446	186.93	12.786053	-57.136345	187.03	-0.810	0.680	2.020	186.94	-0.70	2.50	 	 	 	 	 	 	 	 	 	 	 	 	 	 	 	 	 	 	1581497086	6.72	12.45
12/02/2020 08:44:47	120220	12022020	084447	186.69	12.786017	-57.136355	186.75	-0.050	-0.670	2.160	186.69	-2.10	2.70	 	 	 	 	 	 	 	 	 	 	 	 	 	 	 	 	 	 	1581497087	8.26	15.30
12/02/2020 08:44:48	120220	12022020	084448	186.46	12.785975	-57.136363	186.54	0.700	-1.220	2.250	186.44	-2.60	2.70	 	 	 	 	 	 	 	 	 	 	 	 	 	 	 	 	 	 	1581497088	9.04	16.74
12/02/2020 08:44:49	120220	12022020	084449	186.60	12.785938	-57.136370	186.76	0.740	-0.600	2.070	186.60	-1.90	2.50	 	 	 	 	 	 	 	 	 	 	 	 	 	 	 	 	 	 	1581497089	8.10	15.00
12/02/2020 08:44:50	120220	12022020	084450	187.19	12.785907	-57.136375	187.36	0.170	0.410	1.600	187.19	-0.90	2.10	 	 	 	 	 	 	 	 	 	 	 	 	 	 	 	 	 	 	1581497090	6.73	12.46
12/02/2020 08:44:51	120220	12022020	084451	187.89	12.785878	-57.136380	188.05	-0.390	0.830	1.080	187.89	-0.50	1.60	 	 	 	 	 	 	 	 	 	 	 	 	 	 	 	 	 	 	1581497091	6.19	11.46
12/02/2020 08:44:52	120220	12022020	084452	188.27	12.785848	-57.136385	188.38	-0.480	0.250	0.890	188.27	-1.10	1.40	 	 	 	 	 	 	 	 	 	 	 	 	 	 	 	 	 	 	1581497092	6.70	12.41
12/02/2020 08:44:53	120220	12022020	084453	188.15	12.785813	-57.136392	188.23	-0.120	-0.880	1.160	188.15	-2.30	1.70	 	 	 	 	 	 	 	 	 	 	 	 	 	 	 	 	 	 	1581497093	7.73	14.32
12/02/2020 08:44:54	120220	12022020	084454	187.72	12.785775	-57.136402	187.79	0.260	-1.610	1.650	187.72	-3.00	2.20	 	 	 	 	 	 	 	 	 	 	 	 	 	 	 	 	 	 	1581497094	8.40	15.56
12/02/2020 08:44:55	120220	12022020	084455	187.05	12.785738	-57.136410	187.11	0.320	-1.530	2.350	187.05	-2.90	2.90	 	 	 	 	 	 	 	 	 	 	 	 	 	 	 	 	 	 	1581497095	8.12	15.04
12/02/2020 08:44:56	120220	12022020	084456	186.19	12.785705	-57.136422	186.26	0.070	-0.910	3.120	186.19	-2.20	3.60	 	 	 	 	 	 	 	 	 	 	 	 	 	 	 	 	 	 	1581497096	7.62	14.11
12/02/2020 08:44:57	120220	12022020	084457	185.44	12.785672	-57.136432	185.55	-0.290	0.010	3.650	185.44	-1.30	4.10	 	 	 	 	 	 	 	 	 	 	 	 	 	 	 	 	 	 	1581497097	7.47	13.83
12/02/2020 08:44:58	120220	12022020	084458	185.31	12.785638	-57.136443	185.50	-0.520	1.110	3.480	185.31	-0.20	3.90	 	 	 	 	 	 	 	 	 	 	 	 	 	 	 	 	 	 	1581497098	7.39	13.69
12/02/2020 08:44:59	120220	12022020	084459	185.92	12.785608	-57.136452	186.15	-0.490	1.860	2.540	185.92	0.50	3.00	 	 	 	 	 	 	 	 	 	 	 	 	 	 	 	 	 	 	1581497099	6.94	12.85
12/02/2020 08:45:00	120220	12022020	084500	186.63	12.785577	-57.136457	186.99	-0.090	1.430	1.340	186.79	0.00	1.80	 	 	 	 	 	 	 	 	 	 	 	 	 	 	 	 	 	 	1581497100	6.79	12.58
12/02/2020 08:45:01	120220	12022020	084501	187.43	12.785542	-57.136460	187.59	0.520	-0.070	0.480	187.43	-1.50	0.90	1015.00	26.10	26.20	20.50	20.60	-1.0	71.0	71.0	393.0	25.8	273.00	10.10	78.00	10.60	16	10064.0	27.5	27.5	1581497101	7.64	14.15
12/02/2020 08:45:02	120220	12022020	084502	187.62	12.785502	-57.136463	187.74	0.900	-1.500	0.370	187.63	-2.90	0.90	 	 	 	 	 	 	 	 	 	 	 	 	 	 	 	 	 	 	1581497102	8.44	15.63
12/02/2020 08:45:03	120220	12022020	084503	187.37	12.785465	-57.136468	187.46	0.840	-1.950	0.880	187.37	-3.30	1.40	 	 	 	 	 	 	 	 	 	 	 	 	 	 	 	 	 	 	1581497103	8.17	15.13
12/02/2020 08:45:04	120220	12022020	084504	186.81	12.785432	-57.136475	186.88	0.500	-1.560	1.670	186.81	-2.90	2.20	 	 	 	 	 	 	 	 	 	 	 	 	 	 	 	 	 	 	1581497104	7.28	13.48
12/02/2020 08:45:05	120220	12022020	084505	186.18	12.785400	-57.136483	186.29	-0.020	-0.920	2.580	186.18	-2.20	3.10	 	 	 	 	 	 	 	 	 	 	 	 	 	 	 	 	 	 	1581497105	6.81	12.61
12/02/2020 08:45:06	120220	12022020	084506	185.64	12.785368	-57.136492	185.77	-0.580	-0.480	3.480	185.64	-1.80	4.00	 	 	 	 	 	 	 	 	 	 	 	 	 	 	 	 	 	 	1581497106	7.08	13.11
12/02/2020 08:45:07	120220	12022020	084507	185.26	12.785335	-57.136505	185.41	-0.970	-0.130	4.030	185.26	-1.40	4.50	 	 	 	 	 	 	 	 	 	 	 	 	 	 	 	 	 	 	1581497107	7.77	14.39
12/02/2020 08:45:08	120220	12022020	084508	185.24	12.785300	-57.136518	185.43	-1.060	0.420	3.980	185.24	-0.90	4.40	 	 	 	 	 	 	 	 	 	 	 	 	 	 	 	 	 	 	1581497108	8.07	14.95
12/02/2020 08:45:09	120220	12022020	084509	185.59	12.785265	-57.136528	185.80	-0.810	1.010	3.280	185.59	-0.30	3.70	 	 	 	 	 	 	 	 	 	 	 	 	 	 	 	 	 	 	1581497109	7.68	14.22
12/02/2020 08:45:10	120220	12022020	084510	186.21	12.785233	-57.136537	186.40	-0.270	1.180	1.910	186.21	-0.20	2.30	 	 	 	 	 	 	 	 	 	 	 	 	 	 	 	 	 	 	1581497110	7.22	13.37
12/02/2020 08:45:11	120220	12022020	084511	186.83	12.785198	-57.136538	186.98	0.370	0.720	0.540	186.83	-0.70	1.00	 	 	 	 	 	 	 	 	 	 	 	 	 	 	 	 	 	 	1581497111	7.26	13.45
12/02/2020 08:45:12	120220	12022020	084512	187.14	12.785163	-57.136537	187.23	0.850	-0.190	-0.230	187.14	-1.60	0.30	 	 	 	 	 	 	 	 	 	 	 	 	 	 	 	 	 	 	1581497112	7.65	14.17
12/02/2020 08:45:13	120220	12022020	084513	186.96	12.785127	-57.136537	187.00	0.990	-1.170	-0.180	186.96	-2.50	0.30	 	 	 	 	 	 	 	 	 	 	 	 	 	 	 	 	 	 	1581497113	7.88	14.59
12/02/2020 08:45:14	120220	12022020	084514	186.43	12.785090	-57.136540	186.47	0.790	-1.670	0.650	186.43	-3.00	1.20	 	 	 	 	 	 	 	 	 	 	 	 	 	 	 	 	 	 	1581497114	7.90	14.63
12/02/2020 08:45:15	120220	12022020	084515	185.96	12.785055	-57.136548	186.06	0.290	-1.260	1.730	185.96	-2.50	2.30	 	 	 	 	 	 	 	 	 	 	 	 	 	 	 	 	 	 	1581497115	7.66	14.19
12/02/2020 08:45:16	120220	12022020	084516	185.99	12.785023	-57.136558	186.16	-0.430	-0.240	2.460	185.99	-1.50	3.00	 	 	 	 	 	 	 	 	 	 	 	 	 	 	 	 	 	 	1581497116	7.09	13.13
12/02/2020 08:45:17	120220	12022020	084517	186.46	12.784995	-57.136570	186.64	-1.080	0.570	2.780	186.46	-0.80	3.30	 	 	 	 	 	 	 	 	 	 	 	 	 	 	 	 	 	 	1581497117	6.68	12.37
12/02/2020 08:45:18	120220	12022020	084518	186.80	12.784965	-57.136583	186.95	-1.190	0.570	2.900	186.80	-0.80	3.40	 	 	 	 	 	 	 	 	 	 	 	 	 	 	 	 	 	 	1581497118	6.93	12.83
12/02/2020 08:45:19	120220	12022020	084519	186.80	12.784932	-57.136597	186.92	-0.530	-0.070	2.720	186.80	-1.40	3.20	 	 	 	 	 	 	 	 	 	 	 	 	 	 	 	 	 	 	1581497119	7.70	14.26
12/02/2020 08:45:20	120220	12022020	084520	186.69	12.784895	-57.136607	186.78	0.500	-0.600	2.090	186.69	-1.90	2.50	 	 	 	 	 	 	 	 	 	 	 	 	 	 	 	 	 	 	1581497120	8.23	15.24
12/02/2020 08:45:21	120220	12022020	084521	186.68	12.784858	-57.136608	186.77	1.090	-0.590	1.320	186.68	-1.90	1.80	 	 	 	 	 	 	 	 	 	 	 	 	 	 	 	 	 	 	1581497121	8.07	14.95
12/02/2020 08:45:22	120220	12022020	084522	186.74	12.784823	-57.136607	186.83	0.850	-0.260	0.910	186.74	-1.60	1.40	 	 	 	 	 	 	 	 	 	 	 	 	 	 	 	 	 	 	1581497122	7.55	13.98
12/02/2020 08:45:23	120220	12022020	084523	186.82	12.784790	-57.136607	186.93	0.120	0.020	1.030	186.82	-1.30	1.50	 	 	 	 	 	 	 	 	 	 	 	 	 	 	 	 	 	 	1581497123	7.10	13.15
12/02/2020 08:45:24	120220	12022020	084524	186.90	12.784757	-57.136613	187.05	-0.520	0.150	1.560	186.93	-1.20	2.10	 	 	 	 	 	 	 	 	 	 	 	 	 	 	 	 	 	 	1581497124	7.08	13.11
12/02/2020 08:45:25	120220	12022020	084525	187.04	12.784725	-57.136623	187.18	-0.690	0.120	2.130	187.04	-1.20	2.60	 	 	 	 	 	 	 	 	 	 	 	 	 	 	 	 	 	 	1581497125	7.34	13.59
12/02/2020 08:45:26	120220	12022020	084526	187.03	12.784693	-57.136637	187.11	-0.330	-0.250	2.420	187.00	-1.60	2.90	 	 	 	 	 	 	 	 	 	 	 	 	 	 	 	 	 	 	1581497126	7.48	13.85
12/02/2020 08:45:27	120220	12022020	084527	186.62	12.784658	-57.136648	186.71	0.270	-0.940	2.460	186.62	-2.30	2.90	 	 	 	 	 	 	 	 	 	 	 	 	 	 	 	 	 	 	1581497127	7.77	14.39
12/02/2020 08:45:28	120220	12022020	084528	186.08	12.784622	-57.136655	186.17	0.600	-1.240	2.450	186.08	-2.60	2.90	 	 	 	 	 	 	 	 	 	 	 	 	 	 	 	 	 	 	1581497128	8.16	15.11
12/02/2020 08:45:29	120220	12022020	084529	185.65	12.784585	-57.136660	185.78	0.360	-0.660	2.410	185.65	-1.90	2.90	 	 	 	 	 	 	 	 	 	 	 	 	 	 	 	 	 	 	1581497129	7.91	14.65
12/02/2020 08:45:30	120220	12022020	084530	185.79	12.784552	-57.136665	185.97	-0.290	0.520	1.940	185.79	-0.80	2.40	 	 	 	 	 	 	 	 	 	 	 	 	 	 	 	 	 	 	1581497130	7.09	13.13
12/02/2020 08:45:31	120220	12022020	084531	186.53	12.784523	-57.136670	186.73	-0.800	1.380	1.280	186.53	0.10	1.70	 	 	 	 	 	 	 	 	 	 	 	 	 	 	 	 	 	 	1581497131	6.40	11.85
12/02/2020 08:45:32	120220	12022020	084532	187.37	12.784493	-57.136677	187.54	-0.640	1.060	0.730	187.37	-0.30	1.20	 	 	 	 	 	 	 	 	 	 	 	 	 	 	 	 	 	 	1581497132	6.52	12.08
12/02/2020 08:45:33	120220	12022020	084533	187.93	12.784458	-57.136683	188.06	0.130	-0.350	0.510	187.93	-1.80	1.00	 	 	 	 	 	 	 	 	 	 	 	 	 	 	 	 	 	 	1581497133	7.57	14.02
12/02/2020 08:45:34	120220	12022020	084534	187.98	12.784418	-57.136690	188.05	0.860	-1.690	0.760	187.98	-3.10	1.30	 	 	 	 	 	 	 	 	 	 	 	 	 	 	 	 	 	 	1581497134	8.58	15.89
12/02/2020 08:45:35	120220	12022020	084535	187.48	12.784380	-57.136697	187.52	1.040	-1.980	1.330	187.48	-3.30	1.90	 	 	 	 	 	 	 	 	 	 	 	 	 	 	 	 	 	 	1581497135	8.50	15.74
12/02/2020 08:45:36	120220	12022020	084536	186.75	12.784345	-57.136703	186.80	0.590	-1.200	2.110	186.75	-2.50	2.60	 	 	 	 	 	 	 	 	 	 	 	 	 	 	 	 	 	 	1581497136	7.63	14.13
12/02/2020 08:45:37	120220	12022020	084537	186.21	12.784313	-57.136712	186.32	-0.140	-0.050	2.760	186.21	-1.30	3.20	 	 	 	 	 	 	 	 	 	 	 	 	 	 	 	 	 	 	1581497137	6.93	12.83
12/02/2020 08:45:38	120220	12022020	084538	186.20	12.784283	-57.136722	186.44	-0.760	0.880	2.830	186.26	-0.40	3.30	 	 	 	 	 	 	 	 	 	 	 	 	 	 	 	 	 	 	1581497138	6.86	12.70
12/02/2020 08:45:39	120220	12022020	084539	186.72	12.784252	-57.136730	186.92	-1.040	1.180	2.570	186.72	-0.20	3.00	 	 	 	 	 	 	 	 	 	 	 	 	 	 	 	 	 	 	1581497139	7.04	13.04
12/02/2020 08:45:40	120220	12022020	084540	187.13	12.784218	-57.136740	187.38	-0.850	0.680	2.220	187.22	-0.70	2.70	 	 	 	 	 	 	 	 	 	 	 	 	 	 	 	 	 	 	1581497140	7.50	13.89
12/02/2020 08:45:41	120220	12022020	084541	187.53	12.784182	-57.136750	187.66	-0.210	-0.170	1.740	187.53	-1.50	2.20	 	 	 	 	 	 	 	 	 	 	 	 	 	 	 	 	 	 	1581497141	8.09	14.98
12/02/2020 08:45:42	120220	12022020	084542	187.64	12.784145	-57.136758	187.74	0.560	-0.710	1.200	187.64	-2.00	1.70	 	 	 	 	 	 	 	 	 	 	 	 	 	 	 	 	 	 	1581497142	8.22	15.22
12/02/2020 08:45:43	120220	12022020	084543	187.50	12.784108	-57.136763	187.57	1.040	-0.740	0.840	187.50	-2.10	1.30	 	 	 	 	 	 	 	 	 	 	 	 	 	 	 	 	 	 	1581497143	7.75	14.35
12/02/2020 08:45:44	120220	12022020	084544	187.29	12.784075	-57.136765	187.36	0.980	-0.430	0.760	187.29	-1.80	1.30	 	 	 	 	 	 	 	 	 	 	 	 	 	 	 	 	 	 	1581497144	7.28	13.48
12/02/2020 08:45:45	120220	12022020	084545	187.11	12.784043	-57.136767	187.19	0.480	-0.130	1.110	187.11	-1.50	1.60	 	 	 	 	 	 	 	 	 	 	 	 	 	 	 	 	 	 	1581497145	6.98	12.93
12/02/2020 08:45:46	120220	12022020	084546	186.91	12.784010	-57.136773	187.00	-0.080	-0.110	1.740	186.91	-1.40	2.20	 	 	 	 	 	 	 	 	 	 	 	 	 	 	 	 	 	 	1581497146	7.04	13.04
12/02/2020 08:45:47	120220	12022020	084547	186.71	12.783977	-57.136783	186.77	-0.420	-0.300	2.400	186.66	-1.60	2.90	 	 	 	 	 	 	 	 	 	 	 	 	 	 	 	 	 	 	1581497147	7.52	13.93
12/02/2020 08:45:48	120220	12022020	084548	186.53	12.783943	-57.136797	186.66	-0.490	-0.430	2.760	186.53	-1.80	3.20	 	 	 	 	 	 	 	 	 	 	 	 	 	 	 	 	 	 	1581497148	7.86	14.56
12/02/2020 08:45:49	120220	12022020	084549	186.63	12.783908	-57.136808	186.79	-0.390	-0.420	2.590	186.63	-1.80	3.00	 	 	 	 	 	 	 	 	 	 	 	 	 	 	 	 	 	 	1581497149	7.78	14.41
12/02/2020 08:45:50	120220	12022020	084550	186.82	12.783875	-57.136817	187.01	-0.210	-0.450	2.090	186.87	-1.80	2.50	 	 	 	 	 	 	 	 	 	 	 	 	 	 	 	 	 	 	1581497150	7.54	13.96
12/02/2020 08:45:51	120220	12022020	084551	187.02	12.783840	-57.136823	187.15	0.040	-0.610	1.520	187.02	-1.90	2.00	 	 	 	 	 	 	 	 	 	 	 	 	 	 	 	 	 	 	1581497151	7.54	13.96
12/02/2020 08:45:52	120220	12022020	084552	186.98	12.783803	-57.136827	187.03	0.260	-0.730	1.180	186.94	-2.10	1.60	 	 	 	 	 	 	 	 	 	 	 	 	 	 	 	 	 	 	1581497152	7.76	14.37
12/02/2020 08:45:53	120220	12022020	084553	186.52	12.783767	-57.136828	186.59	0.300	-0.610	1.370	186.52	-1.90	1.90	 	 	 	 	 	 	 	 	 	 	 	 	 	 	 	 	 	 	1581497153	7.85	14.54
12/02/2020 08:45:54	120220	12022020	084554	186.01	12.783732	-57.136833	186.11	0.070	-0.080	1.900	186.01	-1.40	2.40	 	 	 	 	 	 	 	 	 	 	 	 	 	 	 	 	 	 	1581497154	7.74	14.33
12/02/2020 08:45:55	120220	12022020	084555	185.82	12.783698	-57.136840	185.96	-0.390	0.700	2.360	185.82	-0.60	2.80	 	 	 	 	 	 	 	 	 	 	 	 	 	 	 	 	 	 	1581497155	7.43	13.76
12/02/2020 08:45:56	120220	12022020	084556	186.08	12.783667	-57.136850	186.26	-0.750	1.210	2.530	186.08	-0.10	3.00	 	 	 	 	 	 	 	 	 	 	 	 	 	 	 	 	 	 	1581497156	7.14	13.22
12/02/2020 08:45:57	120220	12022020	084557	186.66	12.783633	-57.136860	186.85	-0.630	0.970	2.270	186.66	-0.40	2.70	 	 	 	 	 	 	 	 	 	 	 	 	 	 	 	 	 	 	1581497157	7.25	13.43
12/02/2020 08:45:58	120220	12022020	084558	187.22	12.783600	-57.136870	187.38	0.040	0.040	1.700	187.22	-1.40	2.10	 	 	 	 	 	 	 	 	 	 	 	 	 	 	 	 	 	 	1581497158	7.70	14.26
12/02/2020 08:45:59	120220	12022020	084559	187.65	12.783562	-57.136877	187.78	0.770	-0.890	1.190	187.65	-2.30	1.60	 	 	 	 	 	 	 	 	 	 	 	 	 	 	 	 	 	 	1581497159	8.15	15.09
12/02/2020 08:46:00	120220	12022020	084600	187.81	12.783525	-57.136882	187.89	1.040	-1.260	0.930	187.81	-2.60	1.40	 	 	 	 	 	 	 	 	 	 	 	 	 	 	 	 	 	 	1581497160	7.94	14.70
12/02/2020 08:46:01	120220	12022020	084601	187.48	12.783492	-57.136885	187.52	0.850	-1.150	1.080	187.48	-2.50	1.60	1015.00	26.20	26.20	20.50	20.60	-1.0	70.0	71.0	393.0	25.8	273.00	10.20	79.00	10.70	16	10081.0	27.5	27.5	1581497161	7.30	13.52
12/02/2020 08:46:02	120220	12022020	084602	186.88	12.783460	-57.136890	186.94	0.400	-0.850	1.500	186.88	-2.20	2.00	 	 	 	 	 	 	 	 	 	 	 	 	 	 	 	 	 	 	1581497162	7.03	13.02
12/02/2020 08:46:03	120220	12022020	084603	186.57	12.783427	-57.136895	186.67	-0.190	-0.420	1.960	186.57	-1.70	2.40	 	 	 	 	 	 	 	 	 	 	 	 	 	 	 	 	 	 	1581497163	7.22	13.37
12/02/2020 08:46:04	120220	12022020	084604	186.59	12.783393	-57.136905	186.76	-0.660	0.030	2.200	186.62	-1.30	2.70	 	 	 	 	 	 	 	 	 	 	 	 	 	 	 	 	 	 	1581497164	7.32	13.56
12/02/2020 08:46:05	120220	12022020	084605	186.85	12.783360	-57.136915	186.98	-0.750	0.250	2.180	186.85	-1.10	2.60	 	 	 	 	 	 	 	 	 	 	 	 	 	 	 	 	 	 	1581497165	7.47	13.83
12/02/2020 08:46:06	120220	12022020	084606	187.04	12.783325	-57.136925	187.17	-0.450	0.170	2.050	187.04	-1.20	2.50	 	 	 	 	 	 	 	 	 	 	 	 	 	 	 	 	 	 	1581497166	7.70	14.26
12/02/2020 08:46:07	120220	12022020	084607	187.31	12.783290	-57.136932	187.45	-0.100	0.100	1.750	187.31	-1.30	2.20	 	 	 	 	 	 	 	 	 	 	 	 	 	 	 	 	 	 	1581497167	7.91	14.65
12/02/2020 08:46:08	120220	12022020	084608	187.69	12.783255	-57.136938	187.82	-0.020	0.110	1.470	187.69	-1.20	1.90	 	 	 	 	 	 	 	 	 	 	 	 	 	 	 	 	 	 	1581497168	7.65	14.17
12/02/2020 08:46:09	120220	12022020	084609	187.74	12.783222	-57.136945	187.82	-0.050	-0.210	1.510	187.74	-1.60	2.00	 	 	 	 	 	 	 	 	 	 	 	 	 	 	 	 	 	 	1581497169	7.31	13.54
12/02/2020 08:46:10	120220	12022020	084610	187.28	12.783187	-57.136952	187.33	0.090	-0.850	1.900	187.28	-2.20	2.40	 	 	 	 	 	 	 	 	 	 	 	 	 	 	 	 	 	 	1581497170	7.66	14.19
12/02/2020 08:46:11	120220	12022020	084611	186.78	12.783150	-57.136962	186.86	0.270	-1.040	2.260	186.78	-2.40	2.80	 	 	 	 	 	 	 	 	 	 	 	 	 	 	 	 	 	 	1581497171	8.17	15.13
12/02/2020 08:46:12	120220	12022020	084612	186.46	12.783115	-57.136970	186.56	0.290	-0.520	2.370	186.46	-1.80	2.80	 	 	 	 	 	 	 	 	 	 	 	 	 	 	 	 	 	 	1581497172	7.80	14.45
12/02/2020 08:46:13	120220	12022020	084613	186.44	12.783082	-57.136977	186.58	0.070	0.200	2.090	186.44	-1.10	2.50	 	 	 	 	 	 	 	 	 	 	 	 	 	 	 	 	 	 	1581497173	7.13	13.20
12/02/2020 08:46:14	120220	12022020	084614	186.64	12.783050	-57.136980	186.84	-0.260	0.600	1.760	186.70	-0.70	2.20	 	 	 	 	 	 	 	 	 	 	 	 	 	 	 	 	 	 	1581497174	6.89	12.76
12/02/2020 08:46:15	120220	12022020	084615	186.88	12.783017	-57.136987	187.00	-0.350	0.310	1.760	186.88	-1.10	2.20	 	 	 	 	 	 	 	 	 	 	 	 	 	 	 	 	 	 	1581497175	7.17	13.28
12/02/2020 08:46:16	120220	12022020	084616	186.92	12.782982	-57.136995	187.06	-0.180	-0.330	1.930	186.94	-1.70	2.40	 	 	 	 	 	 	 	 	 	 	 	 	 	 	 	 	 	 	1581497176	7.90	14.63
12/02/2020 08:46:17	120220	12022020	084617	187.15	12.782943	-57.137003	187.31	-0.010	-0.480	2.150	187.15	-1.80	2.60	 	 	 	 	 	 	 	 	 	 	 	 	 	 	 	 	 	 	1581497177	8.23	15.24
12/02/2020 08:46:18	120220	12022020	084618	187.49	12.782910	-57.137013	187.64	0.010	-0.010	2.220	187.49	-1.30	2.70	 	 	 	 	 	 	 	 	 	 	 	 	 	 	 	 	 	 	1581497178	7.54	13.96
12/02/2020 08:46:19	120220	12022020	084619	187.67	12.782880	-57.137022	187.77	0.100	0.290	1.960	187.67	-1.10	2.40	 	 	 	 	 	 	 	 	 	 	 	 	 	 	 	 	 	 	1581497179	6.68	12.37
12/02/2020 08:46:20	120220	12022020	084620	187.57	12.782848	-57.137027	187.64	0.420	-0.100	1.570	187.57	-1.50	2.00	 	 	 	 	 	 	 	 	 	 	 	 	 	 	 	 	 	 	1581497180	6.83	12.65
12/02/2020 08:46:21	120220	12022020	084621	187.30	12.782813	-57.137032	187.37	0.770	-0.860	1.390	187.30	-2.20	1.90	 	 	 	 	 	 	 	 	 	 	 	 	 	 	 	 	 	 	1581497181	7.63	14.13
12/02/2020 08:46:22	120220	12022020	084622	186.90	12.782777	-57.137033	186.96	0.740	-1.500	1.650	186.90	-2.90	2.20	 	 	 	 	 	 	 	 	 	 	 	 	 	 	 	 	 	 	1581497182	8.13	15.06
12/02/2020 08:46:23	120220	12022020	084623	186.35	12.782738	-57.137038	186.42	0.150	-1.600	2.410	186.35	-2.90	2.90	 	 	 	 	 	 	 	 	 	 	 	 	 	 	 	 	 	 	1581497183	8.17	15.13
12/02/2020 08:46:24	120220	12022020	084624	185.90	12.782703	-57.137050	186.02	-0.650	-0.920	3.240	185.90	-2.20	3.70	 	 	 	 	 	 	 	 	 	 	 	 	 	 	 	 	 	 	1581497184	8.00	14.82
12/02/2020 08:46:25	120220	12022020	084625	185.79	12.782670	-57.137067	185.96	-1.120	0.280	3.550	185.79	-1.00	4.00	 	 	 	 	 	 	 	 	 	 	 	 	 	 	 	 	 	 	1581497185	7.67	14.20
12/02/2020 08:46:26	120220	12022020	084626	186.16	12.782640	-57.137080	186.35	-1.070	1.300	3.110	186.16	-0.00	3.50	 	 	 	 	 	 	 	 	 	 	 	 	 	 	 	 	 	 	1581497186	7.15	13.24
12/02/2020 08:46:27	120220	12022020	084627	186.68	12.782608	-57.137088	187.01	-0.640	1.460	2.270	186.82	0.10	2.70	 	 	 	 	 	 	 	 	 	 	 	 	 	 	 	 	 	 	1581497187	6.95	12.87
12/02/2020 08:46:28	120220	12022020	084628	187.30	12.782575	-57.137093	187.53	-0.020	0.610	1.390	187.38	-0.80	1.80	 	 	 	 	 	 	 	 	 	 	 	 	 	 	 	 	 	 	1581497188	7.48	13.85
12/02/2020 08:46:29	120220	12022020	084629	187.63	12.782537	-57.137095	187.71	0.570	-0.620	0.770	187.63	-2.00	1.20	 	 	 	 	 	 	 	 	 	 	 	 	 	 	 	 	 	 	1581497189	8.30	15.37
12/02/2020 08:46:30	120220	12022020	084630	187.57	12.782497	-57.137098	187.62	0.830	-1.320	0.600	187.54	-2.70	1.10	 	 	 	 	 	 	 	 	 	 	 	 	 	 	 	 	 	 	1581497190	8.55	15.83
12/02/2020 08:46:31	120220	12022020	084631	187.37	12.782460	-57.137100	187.45	0.630	-1.070	0.940	187.37	-2.40	1.50	 	 	 	 	 	 	 	 	 	 	 	 	 	 	 	 	 	 	1581497191	7.91	14.65
12/02/2020 08:46:32	120220	12022020	084632	187.09	12.782428	-57.137107	187.15	0.190	-0.480	1.560	187.09	-1.80	2.10	 	 	 	 	 	 	 	 	 	 	 	 	 	 	 	 	 	 	1581497192	6.94	12.85
12/02/2020 08:46:33	120220	12022020	084633	186.63	12.782397	-57.137115	186.70	-0.130	-0.320	2.170	186.63	-1.70	2.70	 	 	 	 	 	 	 	 	 	 	 	 	 	 	 	 	 	 	1581497193	6.83	12.65
12/02/2020 08:46:34	120220	12022020	084634	186.31	12.782363	-57.137125	186.41	-0.230	-0.460	2.570	186.31	-1.80	3.00	 	 	 	 	 	 	 	 	 	 	 	 	 	 	 	 	 	 	1581497194	7.62	14.11
12/02/2020 08:46:35	120220	12022020	084635	186.26	12.782327	-57.137137	186.38	-0.190	-0.360	2.670	186.26	-1.70	3.10	 	 	 	 	 	 	 	 	 	 	 	 	 	 	 	 	 	 	1581497195	8.09	14.98
12/02/2020 08:46:36	120220	12022020	084636	186.38	12.782292	-57.137145	186.50	-0.140	0.090	2.430	186.38	-1.30	2.90	 	 	 	 	 	 	 	 	 	 	 	 	 	 	 	 	 	 	1581497196	7.77	14.39
12/02/2020 08:46:37	120220	12022020	084637	186.54	12.782258	-57.137153	186.65	-0.130	0.520	2.060	186.54	-0.80	2.50	 	 	 	 	 	 	 	 	 	 	 	 	 	 	 	 	 	 	1581497197	7.29	13.50
12/02/2020 08:46:38	120220	12022020	084638	186.65	12.782227	-57.137158	186.77	-0.150	0.570	1.880	186.66	-0.80	2.40	 	 	 	 	 	 	 	 	 	 	 	 	 	 	 	 	 	 	1581497198	7.18	13.30
12/02/2020 08:46:39	120220	12022020	084639	186.69	12.782192	-57.137165	186.77	-0.110	0.200	1.880	186.68	-1.20	2.40	 	 	 	 	 	 	 	 	 	 	 	 	 	 	 	 	 	 	1581497199	7.44	13.78
12/02/2020 08:46:40	120220	12022020	084640	186.72	12.782157	-57.137172	186.88	0.050	-0.260	1.540	186.76	-1.60	2.00	 	 	 	 	 	 	 	 	 	 	 	 	 	 	 	 	 	 	1581497200	7.77	14.39
12/02/2020 08:46:41	120220	12022020	084641	187.02	12.782122	-57.137177	187.22	0.210	-0.540	1.050	187.09	-1.90	1.50	 	 	 	 	 	 	 	 	 	 	 	 	 	 	 	 	 	 	1581497201	7.74	14.33
12/02/2020 08:46:42	120220	12022020	084642	187.33	12.782087	-57.137183	187.46	0.370	-0.730	0.770	187.37	-2.10	1.30	 	 	 	 	 	 	 	 	 	 	 	 	 	 	 	 	 	 	1581497202	7.42	13.74
12/02/2020 08:46:43	120220	12022020	084643	187.27	12.782053	-57.137188	187.33	0.520	-1.090	0.890	187.27	-2.50	1.40	 	 	 	 	 	 	 	 	 	 	 	 	 	 	 	 	 	 	1581497203	7.38	13.67
12/02/2020 08:46:44	120220	12022020	084644	186.91	12.782017	-57.137193	186.97	0.460	-1.310	1.380	186.91	-2.70	1.90	 	 	 	 	 	 	 	 	 	 	 	 	 	 	 	 	 	 	1581497204	7.78	14.41
12/02/2020 08:46:45	120220	12022020	084645	186.54	12.781982	-57.137200	186.63	0.070	-1.040	2.030	186.54	-2.40	2.50	 	 	 	 	 	 	 	 	 	 	 	 	 	 	 	 	 	 	1581497205	7.91	14.65
12/02/2020 08:46:46	120220	12022020	084646	186.32	12.781947	-57.137208	186.44	-0.570	-0.240	2.670	186.32	-1.60	3.20	 	 	 	 	 	 	 	 	 	 	 	 	 	 	 	 	 	 	1581497206	7.65	14.17
12/02/2020 08:46:47	120220	12022020	084647	186.25	12.781913	-57.137218	186.38	-1.090	0.520	3.130	186.25	-0.80	3.60	 	 	 	 	 	 	 	 	 	 	 	 	 	 	 	 	 	 	1581497207	7.30	13.52
12/02/2020 08:46:48	120220	12022020	084648	186.20	12.781882	-57.137230	186.32	-1.110	0.690	3.220	186.20	-0.70	3.70	 	 	 	 	 	 	 	 	 	 	 	 	 	 	 	 	 	 	1581497208	7.44	13.78
12/02/2020 08:46:49	120220	12022020	084649	186.08	12.781845	-57.137242	186.18	-0.560	0.350	2.950	186.08	-1.00	3.40	 	 	 	 	 	 	 	 	 	 	 	 	 	 	 	 	 	 	1581497209	8.03	14.87
12/02/2020 08:46:50	120220	12022020	084650	186.00	12.781808	-57.137250	186.11	0.230	0.130	2.330	186.00	-1.20	2.80	 	 	 	 	 	 	 	 	 	 	 	 	 	 	 	 	 	 	1581497210	8.37	15.50
12/02/2020 08:46:51	120220	12022020	084651	186.08	12.781772	-57.137253	186.24	0.740	0.330	1.490	186.13	-1.00	1.90	 	 	 	 	 	 	 	 	 	 	 	 	 	 	 	 	 	 	1581497211	7.96	14.74
12/02/2020 08:46:52	120220	12022020	084652	186.38	12.781737	-57.137255	186.47	0.750	0.570	0.680	186.38	-0.80	1.20	 	 	 	 	 	 	 	 	 	 	 	 	 	 	 	 	 	 	1581497212	7.25	13.43
12/02/2020 08:46:53	120220	12022020	084653	186.57	12.781705	-57.137253	186.68	0.440	0.360	0.340	186.59	-1.00	0.80	 	 	 	 	 	 	 	 	 	 	 	 	 	 	 	 	 	 	1581497213	6.94	12.85
12/02/2020 08:46:54	120220	12022020	084654	186.65	12.781672	-57.137258	186.73	0.150	-0.440	0.820	186.64	-1.90	1.30	 	 	 	 	 	 	 	 	 	 	 	 	 	 	 	 	 	 	1581497214	7.15	13.24
12/02/2020 08:46:55	120220	12022020	084655	186.60	12.781637	-57.137267	186.70	0.070	-1.310	1.680	186.58	-2.70	2.20	 	 	 	 	 	 	 	 	 	 	 	 	 	 	 	 	 	 	1581497215	7.78	14.41
12/02/2020 08:46:56	120220	12022020	084656	186.53	12.781602	-57.137280	186.63	0.180	-1.650	2.210	186.51	-3.00	2.70	 	 	 	 	 	 	 	 	 	 	 	 	 	 	 	 	 	 	1581497216	8.06	14.93
12/02/2020 08:46:57	120220	12022020	084657	186.47	12.781568	-57.137292	186.60	0.360	-1.380	2.280	186.47	-2.70	2.80	 	 	 	 	 	 	 	 	 	 	 	 	 	 	 	 	 	 	1581497217	7.67	14.20
12/02/2020 08:46:58	120220	12022020	084658	186.52	12.781535	-57.137300	186.64	0.370	-0.790	2.120	186.52	-2.10	2.60	 	 	 	 	 	 	 	 	 	 	 	 	 	 	 	 	 	 	1581497218	7.20	13.33
12/02/2020 08:46:59	120220	12022020	084659	186.48	12.781502	-57.137303	186.58	0.110	-0.310	1.890	186.48	-1.70	2.40	 	 	 	 	 	 	 	 	 	 	 	 	 	 	 	 	 	 	1581497219	7.09	13.13
12/02/2020 08:47:00	120220	12022020	084700	186.29	12.781468	-57.137305	186.37	-0.380	-0.180	1.760	186.29	-1.50	2.30	 	 	 	 	 	 	 	 	 	 	 	 	 	 	 	 	 	 	1581497220	7.46	13.82
12/02/2020 08:47:01	120220	12022020	084701	185.94	12.781432	-57.137308	186.01	-0.840	-0.370	2.090	185.94	-1.70	2.60	1014.90	26.20	26.30	20.50	20.60	-1.0	70.0	70.0	393.0	25.8	273.00	10.20	79.00	10.70	16	9686.0	27.5	27.5	1581497221	7.97	14.76
12/02/2020 08:47:02	120220	12022020	084702	185.54	12.781393	-57.137318	185.63	-0.940	-0.490	2.710	185.54	-1.90	3.20	 	 	 	 	 	 	 	 	 	 	 	 	 	 	 	 	 	 	1581497222	8.51	15.76
12/02/2020 08:47:03	120220	12022020	084703	185.30	12.781353	-57.137330	185.37	-0.680	-0.050	3.070	185.27	-1.40	3.60	 	 	 	 	 	 	 	 	 	 	 	 	 	 	 	 	 	 	1581497223	8.66	16.04
12/02/2020 08:47:04	120220	12022020	084704	185.33	12.781318	-57.137342	185.47	-0.350	0.900	2.850	185.33	-0.40	3.30	 	 	 	 	 	 	 	 	 	 	 	 	 	 	 	 	 	 	1581497224	7.98	14.78
12/02/2020 08:47:05	120220	12022020	084705	185.66	12.781287	-57.137348	185.93	-0.200	1.670	2.250	185.77	0.30	2.70	 	 	 	 	 	 	 	 	 	 	 	 	 	 	 	 	 	 	1581497225	7.06	13.08
12/02/2020 08:47:06	120220	12022020	084706	186.29	12.781255	-57.137352	186.56	-0.120	1.620	1.510	186.41	0.20	2.00	 	 	 	 	 	 	 	 	 	 	 	 	 	 	 	 	 	 	1581497226	6.73	12.46
12/02/2020 08:47:07	120220	12022020	084707	186.81	12.781223	-57.137357	186.98	0.150	0.480	0.990	186.87	-1.00	1.50	 	 	 	 	 	 	 	 	 	 	 	 	 	 	 	 	 	 	1581497227	7.10	13.15
12/02/2020 08:47:08	120220	12022020	084708	186.96	12.781187	-57.137362	187.04	0.700	-1.110	0.860	186.96	-2.50	1.40	 	 	 	 	 	 	 	 	 	 	 	 	 	 	 	 	 	 	1581497228	7.96	14.74
12/02/2020 08:47:09	120220	12022020	084709	186.81	12.781148	-57.137368	186.90	1.220	-1.900	0.940	186.81	-3.30	1.40	 	 	 	 	 	 	 	 	 	 	 	 	 	 	 	 	 	 	1581497229	8.37	15.50
12/02/2020 08:47:10	120220	12022020	084710	186.65	12.781113	-57.137373	186.73	1.310	-1.530	1.000	186.65	-2.90	1.50	 	 	 	 	 	 	 	 	 	 	 	 	 	 	 	 	 	 	1581497230	7.57	14.02
12/02/2020 08:47:11	120220	12022020	084711	186.48	12.781082	-57.137377	186.56	0.890	-0.870	1.040	186.48	-2.20	1.50	 	 	 	 	 	 	 	 	 	 	 	 	 	 	 	 	 	 	1581497231	6.57	12.17
12/02/2020 08:47:12	120220	12022020	084712	186.29	12.781052	-57.137378	186.36	0.190	-0.670	1.260	186.29	-2.00	1.80	 	 	 	 	 	 	 	 	 	 	 	 	 	 	 	 	 	 	1581497232	6.60	12.22
12/02/2020 08:47:13	120220	12022020	084713	186.11	12.781017	-57.137383	186.19	-0.420	-0.940	1.820	186.11	-2.30	2.40	 	 	 	 	 	 	 	 	 	 	 	 	 	 	 	 	 	 	1581497233	7.45	13.80
12/02/2020 08:47:14	120220	12022020	084714	185.96	12.780980	-57.137393	186.06	-0.750	-1.120	2.510	185.96	-2.50	3.00	 	 	 	 	 	 	 	 	 	 	 	 	 	 	 	 	 	 	1581497234	8.34	15.45
12/02/2020 08:47:15	120220	12022020	084715	185.92	12.780942	-57.137407	186.05	-0.860	-0.740	3.010	185.92	-2.10	3.50	 	 	 	 	 	 	 	 	 	 	 	 	 	 	 	 	 	 	1581497235	8.58	15.89
12/02/2020 08:47:16	120220	12022020	084716	186.02	12.780905	-57.137417	186.19	-0.940	0.180	3.170	186.05	-1.10	3.60	 	 	 	 	 	 	 	 	 	 	 	 	 	 	 	 	 	 	1581497236	8.14	15.08
12/02/2020 08:47:17	120220	12022020	084717	186.22	12.780872	-57.137427	186.40	-1.020	1.150	2.970	186.27	-0.20	3.40	 	 	 	 	 	 	 	 	 	 	 	 	 	 	 	 	 	 	1581497237	7.50	13.89
12/02/2020 08:47:18	120220	12022020	084718	186.42	12.780840	-57.137435	186.57	-0.880	1.540	2.460	186.45	0.20	2.90	 	 	 	 	 	 	 	 	 	 	 	 	 	 	 	 	 	 	1581497238	7.18	13.30
12/02/2020 08:47:19	120220	12022020	084719	186.46	12.780805	-57.137440	186.55	-0.350	1.050	1.820	186.46	-0.40	2.30	 	 	 	 	 	 	 	 	 	 	 	 	 	 	 	 	 	 	1581497239	7.47	13.83
12/02/2020 08:47:20	120220	12022020	084720	186.41	12.780768	-57.137445	186.52	0.360	0.210	1.140	186.42	-1.20	1.60	 	 	 	 	 	 	 	 	 	 	 	 	 	 	 	 	 	 	1581497240	8.12	15.04
12/02/2020 08:47:21	120220	12022020	084721	186.61	12.780730	-57.137447	186.73	0.820	-0.210	0.570	186.61	-1.60	1.10	 	 	 	 	 	 	 	 	 	 	 	 	 	 	 	 	 	 	1581497241	8.19	15.17
12/02/2020 08:47:22	120220	12022020	084722	186.86	12.780695	-57.137450	187.02	0.900	-0.320	0.350	186.92	-1.70	0.90	 	 	 	 	 	 	 	 	 	 	 	 	 	 	 	 	 	 	1581497242	7.40	13.70
12/02/2020 08:47:23	120220	12022020	084723	187.13	12.780663	-57.137453	187.21	0.830	-0.710	0.530	187.13	-2.10	1.10	 	 	 	 	 	 	 	 	 	 	 	 	 	 	 	 	 	 	1581497243	6.90	12.78
12/02/2020 08:47:24	120220	12022020	084724	187.09	12.780630	-57.137460	187.15	0.840	-1.430	1.130	187.09	-2.80	1.70	 	 	 	 	 	 	 	 	 	 	 	 	 	 	 	 	 	 	1581497244	7.26	13.45
12/02/2020 08:47:25	120220	12022020	084725	186.79	12.780595	-57.137467	186.74	0.800	-1.840	2.060	186.68	-3.20	2.60	 	 	 	 	 	 	 	 	 	 	 	 	 	 	 	 	 	 	1581497245	7.88	14.59
12/02/2020 08:47:26	120220	12022020	084726	186.25	12.780558	-57.137477	186.36	0.400	-1.410	2.820	186.25	-2.70	3.30	 	 	 	 	 	 	 	 	 	 	 	 	 	 	 	 	 	 	1581497246	7.91	14.65
12/02/2020 08:47:27	120220	12022020	084727	186.13	12.780525	-57.137485	186.25	-0.330	-0.430	3.220	186.12	-1.80	3.70	 	 	 	 	 	 	 	 	 	 	 	 	 	 	 	 	 	 	1581497247	7.40	13.70
12/02/2020 08:47:28	120220	12022020	084728	186.12	12.780493	-57.137495	186.25	-1.000	0.280	3.380	186.12	-1.10	3.90	 	 	 	 	 	 	 	 	 	 	 	 	 	 	 	 	 	 	1581497248	7.11	13.17
12/02/2020 08:47:29	120220	12022020	084729	186.18	12.780460	-57.137507	186.34	-1.240	0.510	3.280	186.20	-0.90	3.70	 	 	 	 	 	 	 	 	 	 	 	 	 	 	 	 	 	 	1581497249	7.60	14.08
12/02/2020 08:47:30	120220	12022020	084730	186.42	12.780425	-57.137517	186.66	-0.960	0.610	2.720	186.49	-0.80	3.20	 	 	 	 	 	 	 	 	 	 	 	 	 	 	 	 	 	 	1581497250	8.09	14.98
12/02/2020 08:47:31	120220	12022020	084731	186.83	12.780388	-57.137525	187.04	-0.380	0.700	1.880	186.90	-0.70	2.30	 	 	 	 	 	 	 	 	 	 	 	 	 	 	 	 	 	 	1581497251	7.90	14.63
12/02/2020 08:47:32	120220	12022020	084732	187.12	12.780353	-57.137530	187.21	0.230	0.450	1.140	187.12	-0.90	1.60	 	 	 	 	 	 	 	 	 	 	 	 	 	 	 	 	 	 	1581497252	7.60	14.08
12/02/2020 08:47:33	120220	12022020	084733	187.05	12.780317	-57.137532	187.12	0.640	-0.170	0.740	187.05	-1.60	1.20	 	 	 	 	 	 	 	 	 	 	 	 	 	 	 	 	 	 	1581497253	7.79	14.43
12/02/2020 08:47:34	120220	12022020	084734	186.98	12.780280	-57.137533	187.07	0.700	-0.570	0.760	186.98	-1.90	1.30	 	 	 	 	 	 	 	 	 	 	 	 	 	 	 	 	 	 	1581497254	8.03	14.87
12/02/2020 08:47:35	120220	12022020	084735	187.05	12.780245	-57.137540	187.15	0.500	-0.470	0.970	187.05	-1.80	1.50	 	 	 	 	 	 	 	 	 	 	 	 	 	 	 	 	 	 	1581497255	7.62	14.11
12/02/2020 08:47:36	120220	12022020	084736	187.08	12.780213	-57.137545	187.17	0.300	-0.440	1.230	187.08	-1.80	1.70	 	 	 	 	 	 	 	 	 	 	 	 	 	 	 	 	 	 	1581497256	7.03	13.02
12/02/2020 08:47:37	120220	12022020	084737	186.86	12.780180	-57.137552	186.93	0.220	-0.850	1.660	186.86	-2.20	2.20	 	 	 	 	 	 	 	 	 	 	 	 	 	 	 	 	 	 	1581497257	7.24	13.41
12/02/2020 08:47:38	120220	12022020	084738	186.53	12.780143	-57.137562	186.61	0.140	-1.140	2.220	186.53	-2.50	2.70	 	 	 	 	 	 	 	 	 	 	 	 	 	 	 	 	 	 	1581497258	7.96	14.74
12/02/2020 08:47:39	120220	12022020	084739	186.42	12.780108	-57.137570	186.53	-0.110	-0.800	2.550	186.42	-2.10	3.00	 	 	 	 	 	 	 	 	 	 	 	 	 	 	 	 	 	 	1581497259	8.07	14.95
12/02/2020 08:47:40	120220	12022020	084740	186.43	12.780073	-57.137580	186.53	-0.460	-0.260	2.770	186.43	-1.60	3.20	 	 	 	 	 	 	 	 	 	 	 	 	 	 	 	 	 	 	1581497260	7.48	13.85
12/02/2020 08:47:41	120220	12022020	084741	186.23	12.780042	-57.137590	186.31	-0.590	-0.040	3.010	186.23	-1.40	3.50	 	 	 	 	 	 	 	 	 	 	 	 	 	 	 	 	 	 	1581497261	7.39	13.69
12/02/2020 08:47:42	120220	12022020	084742	185.88	12.780005	-57.137600	185.97	-0.370	-0.040	3.140	185.88	-1.40	3.60	 	 	 	 	 	 	 	 	 	 	 	 	 	 	 	 	 	 	1581497262	7.90	14.63
12/02/2020 08:47:43	120220	12022020	084743	185.80	12.779968	-57.137610	185.96	-0.070	0.310	2.830	185.82	-1.00	3.30	 	 	 	 	 	 	 	 	 	 	 	 	 	 	 	 	 	 	1581497263	8.19	15.17
12/02/2020 08:47:44	120220	12022020	084744	186.26	12.779935	-57.137617	186.41	0.110	0.960	2.010	186.26	-0.40	2.40	 	 	 	 	 	 	 	 	 	 	 	 	 	 	 	 	 	 	1581497264	7.58	14.04
12/02/2020 08:47:45	120220	12022020	084745	186.74	12.779902	-57.137618	186.97	0.200	1.000	1.150	186.85	-0.40	1.60	 	 	 	 	 	 	 	 	 	 	 	 	 	 	 	 	 	 	1581497265	6.93	12.83
12/02/2020 08:47:46	120220	12022020	084746	187.19	12.779868	-57.137620	187.28	0.320	0.170	0.780	187.19	-1.20	1.30	 	 	 	 	 	 	 	 	 	 	 	 	 	 	 	 	 	 	1581497266	7.29	13.50
12/02/2020 08:47:47	120220	12022020	084747	187.21	12.779832	-57.137623	187.25	0.410	-0.910	0.990	187.18	-2.30	1.50	 	 	 	 	 	 	 	 	 	 	 	 	 	 	 	 	 	 	1581497267	7.98	14.78
12/02/2020 08:47:48	120220	12022020	084748	186.87	12.779793	-57.137630	186.93	0.450	-1.570	1.530	186.87	-2.90	2.00	 	 	 	 	 	 	 	 	 	 	 	 	 	 	 	 	 	 	1581497268	8.15	15.09
12/02/2020 08:47:49	120220	12022020	084749	186.51	12.779758	-57.137640	186.47	0.400	-1.620	2.130	186.41	-3.00	2.60	 	 	 	 	 	 	 	 	 	 	 	 	 	 	 	 	 	 	1581497269	7.89	14.61
12/02/2020 08:47:50	120220	12022020	084750	185.99	12.779725	-57.137648	186.08	0.240	-1.190	2.540	185.99	-2.50	3.00	 	 	 	 	 	 	 	 	 	 	 	 	 	 	 	 	 	 	1581497270	7.55	13.98
12/02/2020 08:47:51	120220	12022020	084751	185.93	12.779692	-57.137657	186.06	-0.140	-0.500	2.590	185.93	-1.80	3.10	 	 	 	 	 	 	 	 	 	 	 	 	 	 	 	 	 	 	1581497271	7.36	13.63
12/02/2020 08:47:52	120220	12022020	084752	186.04	12.779658	-57.137663	186.16	-0.560	0.050	2.610	186.04	-1.30	3.10	 	 	 	 	 	 	 	 	 	 	 	 	 	 	 	 	 	 	1581497272	7.26	13.45
12/02/2020 08:47:53	120220	12022020	084753	185.99	12.779623	-57.137672	186.03	-0.690	0.120	2.640	185.95	-1.20	3.10	 	 	 	 	 	 	 	 	 	 	 	 	 	 	 	 	 	 	1581497273	7.54	13.96
12/02/2020 08:47:54	120220	12022020	084754	185.80	12.779587	-57.137680	185.90	-0.470	0.050	2.560	185.80	-1.30	3.00	 	 	 	 	 	 	 	 	 	 	 	 	 	 	 	 	 	 	1581497274	8.18	15.15
12/02/2020 08:47:55	120220	12022020	084755	185.90	12.779548	-57.137688	186.11	-0.190	0.460	2.210	185.96	-0.90	2.60	 	 	 	 	 	 	 	 	 	 	 	 	 	 	 	 	 	 	1581497275	8.31	15.39
12/02/2020 08:47:56	120220	12022020	084756	186.40	12.779515	-57.137693	186.70	-0.030	1.090	1.350	186.53	-0.30	1.80	 	 	 	 	 	 	 	 	 	 	 	 	 	 	 	 	 	 	1581497276	7.55	13.98
12/02/2020 08:47:57	120220	12022020	084757	187.15	12.779482	-57.137697	187.44	0.050	1.110	0.520	187.30	-0.30	1.00	 	 	 	 	 	 	 	 	 	 	 	 	 	 	 	 	 	 	1581497277	6.97	12.91
12/02/2020 08:47:58	120220	12022020	084758	187.76	12.779448	-57.137698	187.85	0.280	0.180	0.330	187.76	-1.20	0.80	 	 	 	 	 	 	 	 	 	 	 	 	 	 	 	 	 	 	1581497278	7.23	13.39
12/02/2020 08:47:59	120220	12022020	084759	187.60	12.779412	-57.137702	187.65	0.540	-1.200	0.990	187.60	-2.60	1.50	 	 	 	 	 	 	 	 	 	 	 	 	 	 	 	 	 	 	1581497279	7.97	14.76
12/02/2020 08:48:00	120220	12022020	084800	187.00	12.779373	-57.137710	187.05	0.520	-2.060	2.050	187.00	-3.40	2.60	 	 	 	 	 	 	 	 	 	 	 	 	 	 	 	 	 	 	1581497280	8.42	15.59
12/02/2020 08:48:01	120220	12022020	084801	186.36	12.779337	-57.137722	186.23	0.180	-2.020	3.170	186.19	-3.30	3.70	1015.00	26.10	26.20	20.40	20.50	-1.0	70.0	70.0	393.0	25.8	271.00	10.30	77.00	10.90	16	10256.0	27.5	27.5	1581497281	8.19	15.17
12/02/2020 08:48:02	120220	12022020	084802	185.60	12.779303	-57.137737	185.59	-0.250	-1.220	3.830	185.49	-2.50	4.30	 	 	 	 	 	 	 	 	 	 	 	 	 	 	 	 	 	 	1581497282	7.87	14.58
12/02/2020 08:48:03	120220	12022020	084803	185.35	12.779272	-57.137750	185.50	-0.430	-0.000	3.580	185.35	-1.30	4.00	 	 	 	 	 	 	 	 	 	 	 	 	 	 	 	 	 	 	1581497283	7.48	13.85
12/02/2020 08:48:04	120220	12022020	084804	185.64	12.779240	-57.137760	185.80	-0.230	0.890	2.600	185.64	-0.40	3.00	 	 	 	 	 	 	 	 	 	 	 	 	 	 	 	 	 	 	1581497284	6.98	12.93
12/02/2020 08:48:05	120220	12022020	084805	185.94	12.779207	-57.137763	186.15	0.160	0.960	1.480	186.02	-0.40	1.90	 	 	 	 	 	 	 	 	 	 	 	 	 	 	 	 	 	 	1581497285	7.20	13.33
12/02/2020 08:48:06	120220	12022020	084806	186.37	12.779170	-57.137762	186.63	0.320	0.510	0.570	186.48	-0.90	1.00	 	 	 	 	 	 	 	 	 	 	 	 	 	 	 	 	 	 	1581497286	8.02	14.85
12/02/2020 08:48:07	120220	12022020	084807	186.98	12.779132	-57.137762	187.25	0.060	0.100	0.250	187.10	-1.30	0.70	 	 	 	 	 	 	 	 	 	 	 	 	 	 	 	 	 	 	1581497287	8.24	15.26
12/02/2020 08:48:08	120220	12022020	084808	187.50	12.779095	-57.137765	187.68	-0.350	-0.200	0.630	187.57	-1.60	1.10	 	 	 	 	 	 	 	 	 	 	 	 	 	 	 	 	 	 	1581497288	7.76	14.37
12/02/2020 08:48:09	120220	12022020	084809	187.60	12.779062	-57.137773	187.62	-0.480	-0.610	1.550	187.55	-2.00	2.10	 	 	 	 	 	 	 	 	 	 	 	 	 	 	 	 	 	 	1581497289	7.47	13.83
12/02/2020 08:48:10	120220	12022020	084810	187.13	12.779027	-57.137785	187.03	-0.230	-1.160	2.760	186.98	-2.50	3.30	 	 	 	 	 	 	 	 	 	 	 	 	 	 	 	 	 	 	1581497290	7.76	14.37
12/02/2020 08:48:11	120220	12022020	084811	186.36	12.778992	-57.137800	186.30	0.100	-1.410	3.740	186.22	-2.80	4.20	 	 	 	 	 	 	 	 	 	 	 	 	 	 	 	 	 	 	1581497291	8.22	15.22
12/02/2020 08:48:12	120220	12022020	084812	185.66	12.778955	-57.137812	185.76	0.200	-0.970	3.920	185.66	-2.30	4.40	 	 	 	 	 	 	 	 	 	 	 	 	 	 	 	 	 	 	1581497292	8.15	15.09
12/02/2020 08:48:13	120220	12022020	084813	185.41	12.778922	-57.137820	185.50	0.070	-0.170	3.360	185.37	-1.50	3.80	 	 	 	 	 	 	 	 	 	 	 	 	 	 	 	 	 	 	1581497293	7.47	13.83
12/02/2020 08:48:14	120220	12022020	084814	185.46	12.778890	-57.137825	185.60	-0.040	0.510	2.230	185.46	-0.80	2.60	 	 	 	 	 	 	 	 	 	 	 	 	 	 	 	 	 	 	1581497294	7.15	13.24
12/02/2020 08:48:15	120220	12022020	084815	185.93	12.778855	-57.137827	186.07	-0.030	0.810	0.850	185.93	-0.60	1.30	 	 	 	 	 	 	 	 	 	 	 	 	 	 	 	 	 	 	1581497295	7.26	13.45
12/02/2020 08:48:16	120220	12022020	084816	186.56	12.778820	-57.137827	186.68	0.050	0.550	-0.070	186.56	-0.80	0.40	 	 	 	 	 	 	 	 	 	 	 	 	 	 	 	 	 	 	1581497296	7.55	13.98
12/02/2020 08:48:17	120220	12022020	084817	186.93	12.778783	-57.137828	187.11	0.070	-0.070	-0.170	187.01	-1.50	0.30	 	 	 	 	 	 	 	 	 	 	 	 	 	 	 	 	 	 	1581497297	7.87	14.58
12/02/2020 08:48:18	120220	12022020	084818	187.35	12.778747	-57.137833	187.45	-0.040	-0.500	0.340	187.35	-1.90	0.90	 	 	 	 	 	 	 	 	 	 	 	 	 	 	 	 	 	 	1581497298	8.04	14.89
12/02/2020 08:48:19	120220	12022020	084819	187.59	12.778712	-57.137842	187.73	-0.200	-0.510	1.110	187.63	-1.90	1.60	 	 	 	 	 	 	 	 	 	 	 	 	 	 	 	 	 	 	1581497299	7.72	14.30
12/02/2020 08:48:20	120220	12022020	084820	187.57	12.778680	-57.137853	187.55	-0.160	-0.660	1.990	187.49	-2.00	2.50	 	 	 	 	 	 	 	 	 	 	 	 	 	 	 	 	 	 	1581497300	7.29	13.50
12/02/2020 08:48:21	120220	12022020	084821	186.91	12.778647	-57.137865	186.75	0.200	-1.110	2.910	186.73	-2.50	3.40	 	 	 	 	 	 	 	 	 	 	 	 	 	 	 	 	 	 	1581497301	7.66	14.19
12/02/2020 08:48:22	120220	12022020	084822	185.91	12.778608	-57.137875	185.97	0.540	-1.060	3.400	185.91	-2.40	3.90	 	 	 	 	 	 	 	 	 	 	 	 	 	 	 	 	 	 	1581497302	8.27	15.32
12/02/2020 08:48:23	120220	12022020	084823	185.73	12.778573	-57.137883	185.90	0.380	-0.210	3.210	185.76	-1.50	3.60	 	 	 	 	 	 	 	 	 	 	 	 	 	 	 	 	 	 	1581497303	7.92	14.67
12/02/2020 08:48:24	120220	12022020	084824	186.22	12.778542	-57.137888	186.38	-0.270	0.710	2.850	186.22	-0.60	3.30	 	 	 	 	 	 	 	 	 	 	 	 	 	 	 	 	 	 	1581497304	6.97	12.91
12/02/2020 08:48:25	120220	12022020	084825	186.78	12.778510	-57.137895	186.91	-0.820	0.850	2.420	186.78	-0.50	2.90	 	 	 	 	 	 	 	 	 	 	 	 	 	 	 	 	 	 	1581497305	6.79	12.58
12/02/2020 08:48:26	120220	12022020	084826	187.02	12.778477	-57.137905	187.11	-0.660	0.100	1.990	187.02	-1.30	2.40	 	 	 	 	 	 	 	 	 	 	 	 	 	 	 	 	 	 	1581497306	7.48	13.85
12/02/2020 08:48:27	120220	12022020	084827	187.00	12.778438	-57.137915	187.07	0.100	-0.650	1.670	186.99	-2.00	2.10	 	 	 	 	 	 	 	 	 	 	 	 	 	 	 	 	 	 	1581497307	8.32	15.41
12/02/2020 08:48:28	120220	12022020	084828	187.05	12.778402	-57.137922	187.14	0.760	-0.650	1.120	187.05	-2.00	1.60	 	 	 	 	 	 	 	 	 	 	 	 	 	 	 	 	 	 	1581497308	8.25	15.28
12/02/2020 08:48:29	120220	12022020	084829	187.22	12.778367	-57.137923	187.31	0.790	-0.360	0.610	187.22	-1.70	1.10	 	 	 	 	 	 	 	 	 	 	 	 	 	 	 	 	 	 	1581497309	7.42	13.74
12/02/2020 08:48:30	120220	12022020	084830	187.31	12.778333	-57.137925	187.39	0.270	-0.430	0.860	187.31	-1.80	1.40	 	 	 	 	 	 	 	 	 	 	 	 	 	 	 	 	 	 	1581497310	7.15	13.24
12/02/2020 08:48:31	120220	12022020	084831	187.16	12.778298	-57.137932	187.12	-0.280	-0.790	1.870	187.08	-2.20	2.40	 	 	 	 	 	 	 	 	 	 	 	 	 	 	 	 	 	 	1581497311	7.58	14.04
12/02/2020 08:48:32	120220	12022020	084832	186.53	12.778263	-57.137943	186.58	-0.540	-0.850	3.010	186.53	-2.20	3.50	 	 	 	 	 	 	 	 	 	 	 	 	 	 	 	 	 	 	1581497312	8.17	15.13
12/02/2020 08:48:33	120220	12022020	084833	186.12	12.778228	-57.137958	186.14	-0.550	-0.340	3.720	186.04	-1.70	4.20	 	 	 	 	 	 	 	 	 	 	 	 	 	 	 	 	 	 	1581497313	8.13	15.06
12/02/2020 08:48:34	120220	12022020	084834	185.77	12.778195	-57.137970	185.89	-0.380	0.200	3.740	185.77	-1.10	4.20	 	 	 	 	 	 	 	 	 	 	 	 	 	 	 	 	 	 	1581497314	7.62	14.11
12/02/2020 08:48:35	120220	12022020	084835	185.66	12.778162	-57.137980	185.77	-0.040	0.250	3.160	185.64	-1.10	3.60	 	 	 	 	 	 	 	 	 	 	 	 	 	 	 	 	 	 	1581497315	7.47	13.83
12/02/2020 08:48:36	120220	12022020	084836	185.51	12.778125	-57.137985	185.62	0.360	-0.040	2.420	185.51	-1.40	2.90	 	 	 	 	 	 	 	 	 	 	 	 	 	 	 	 	 	 	1581497316	7.84	14.52
12/02/2020 08:48:37	120220	12022020	084837	185.43	12.778087	-57.137987	185.55	0.510	-0.160	1.810	185.43	-1.50	2.30	 	 	 	 	 	 	 	 	 	 	 	 	 	 	 	 	 	 	1581497317	8.13	15.06
12/02/2020 08:48:38	120220	12022020	084838	185.68	12.778052	-57.137988	185.82	0.260	0.160	1.250	185.68	-1.20	1.70	 	 	 	 	 	 	 	 	 	 	 	 	 	 	 	 	 	 	1581497318	7.81	14.46
12/02/2020 08:48:39	120220	12022020	084839	186.02	12.778018	-57.137992	186.25	-0.150	0.490	0.970	186.11	-0.90	1.40	 	 	 	 	 	 	 	 	 	 	 	 	 	 	 	 	 	 	1581497319	7.06	13.08
12/02/2020 08:48:40	120220	12022020	084840	186.42	12.777987	-57.137998	186.52	-0.230	0.220	0.930	186.42	-1.20	1.40	 	 	 	 	 	 	 	 	 	 	 	 	 	 	 	 	 	 	1581497320	6.87	12.72
12/02/2020 08:48:41	120220	12022020	084841	186.47	12.777953	-57.138005	186.53	0.110	-0.650	1.120	186.44	-2.00	1.60	 	 	 	 	 	 	 	 	 	 	 	 	 	 	 	 	 	 	1581497321	7.47	13.83
12/02/2020 08:48:42	120220	12022020	084842	186.25	12.777915	-57.138012	186.23	0.470	-1.510	1.780	186.17	-2.90	2.30	 	 	 	 	 	 	 	 	 	 	 	 	 	 	 	 	 	 	1581497322	8.17	15.13
12/02/2020 08:48:43	120220	12022020	084843	185.80	12.777877	-57.138020	185.79	0.430	-1.660	2.660	185.71	-3.00	3.20	 	 	 	 	 	 	 	 	 	 	 	 	 	 	 	 	 	 	1581497323	8.40	15.56
12/02/2020 08:48:44	120220	12022020	084844	185.40	12.777842	-57.138030	185.51	-0.040	-0.840	3.310	185.40	-2.10	3.80	 	 	 	 	 	 	 	 	 	 	 	 	 	 	 	 	 	 	1581497324	7.93	14.69
12/02/2020 08:48:45	120220	12022020	084845	185.36	12.777810	-57.138042	185.53	-0.540	0.430	3.420	185.38	-0.90	3.90	 	 	 	 	 	 	 	 	 	 	 	 	 	 	 	 	 	 	1581497325	7.12	13.19
12/02/2020 08:48:46	120220	12022020	084846	185.52	12.777782	-57.138050	185.71	-0.610	1.100	2.890	185.56	-0.30	3.30	 	 	 	 	 	 	 	 	 	 	 	 	 	 	 	 	 	 	1581497326	6.63	12.28
12/02/2020 08:48:47	120220	12022020	084847	185.71	12.777748	-57.138055	185.83	-0.100	0.550	2.020	185.71	-0.80	2.50	 	 	 	 	 	 	 	 	 	 	 	 	 	 	 	 	 	 	1581497327	7.13	13.20
12/02/2020 08:48:48	120220	12022020	084848	185.71	12.777710	-57.138058	185.79	0.610	-0.590	1.350	185.70	-2.00	1.80	 	 	 	 	 	 	 	 	 	 	 	 	 	 	 	 	 	 	1581497328	8.34	15.45
12/02/2020 08:48:49	120220	12022020	084849	185.71	12.777668	-57.138058	185.85	0.850	-1.060	0.920	185.74	-2.40	1.40	 	 	 	 	 	 	 	 	 	 	 	 	 	 	 	 	 	 	1581497329	8.97	16.61
12/02/2020 08:48:50	120220	12022020	084850	185.95	12.777630	-57.138058	186.14	0.230	-0.600	0.990	186.01	-1.90	1.50	 	 	 	 	 	 	 	 	 	 	 	 	 	 	 	 	 	 	1581497330	8.14	15.08
12/02/2020 08:48:51	120220	12022020	084851	186.15	12.777598	-57.138063	186.25	-0.820	-0.110	1.870	186.15	-1.40	2.40	 	 	 	 	 	 	 	 	 	 	 	 	 	 	 	 	 	 	1581497331	7.00	12.96
12/02/2020 08:48:52	120220	12022020	084852	185.90	12.777567	-57.138077	186.00	-1.500	-0.120	3.130	185.90	-1.50	3.70	 	 	 	 	 	 	 	 	 	 	 	 	 	 	 	 	 	 	1581497332	7.30	13.52
12/02/2020 08:48:53	120220	12022020	084853	185.62	12.777532	-57.138095	185.67	-1.380	-0.180	4.040	185.55	-1.50	4.50	 	 	 	 	 	 	 	 	 	 	 	 	 	 	 	 	 	 	1581497333	8.34	15.45
12/02/2020 08:48:54	120220	12022020	084854	185.36	12.777498	-57.138115	185.47	-0.430	0.040	4.170	185.33	-1.30	4.60	 	 	 	 	 	 	 	 	 	 	 	 	 	 	 	 	 	 	1581497334	8.42	15.59
12/02/2020 08:48:55	120220	12022020	084855	185.27	12.777463	-57.138127	185.44	0.930	0.280	3.320	185.29	-1.10	3.70	 	 	 	 	 	 	 	 	 	 	 	 	 	 	 	 	 	 	1581497335	7.70	14.26
12/02/2020 08:48:56	120220	12022020	084856	185.50	12.777430	-57.138127	185.73	1.870	0.270	1.760	185.58	-1.10	2.20	 	 	 	 	 	 	 	 	 	 	 	 	 	 	 	 	 	 	1581497336	7.43	13.76
12/02/2020 08:48:57	120220	12022020	084857	185.94	12.777393	-57.138120	186.14	1.780	-0.040	0.590	186.02	-1.40	1.00	 	 	 	 	 	 	 	 	 	 	 	 	 	 	 	 	 	 	1581497337	7.82	14.48
12/02/2020 08:48:58	120220	12022020	084858	186.17	12.777358	-57.138113	186.22	0.850	-0.660	0.500	186.15	-2.00	1.00	 	 	 	 	 	 	 	 	 	 	 	 	 	 	 	 	 	 	1581497338	7.78	14.41
12/02/2020 08:48:59	120220	12022020	084859	185.87	12.777323	-57.138113	185.82	-0.280	-1.260	1.430	185.77	-2.60	2.00	 	 	 	 	 	 	 	 	 	 	 	 	 	 	 	 	 	 	1581497339	7.68	14.22
12/02/2020 08:49:00	120220	12022020	084900	185.37	12.777288	-57.138125	185.36	-1.120	-1.370	2.680	185.27	-2.70	3.20	 	 	 	 	 	 	 	 	 	 	 	 	 	 	 	 	 	 	1581497340	7.93	14.69
12/02/2020 08:49:01	120220	12022020	084901	184.99	12.777253	-57.138143	185.05	-1.310	-1.100	3.520	184.93	-2.40	4.00	1015.00	26.20	26.20	20.40	20.50	-1.0	70.0	70.0	394.0	25.8	269.00	9.70	73.00	10.50	16	9770.0	27.4	27.4	1581497341	8.12	15.04
12/02/2020 08:49:02	120220	12022020	084902	184.78	12.777220	-57.138160	184.93	-0.870	-0.740	3.590	184.78	-2.10	4.00	 	 	 	 	 	 	 	 	 	 	 	 	 	 	 	 	 	 	1581497342	8.05	14.91
12/02/2020 08:49:03	120220	12022020	084903	184.92	12.777185	-57.138172	185.18	-0.270	-0.250	2.930	184.99	-1.60	3.40	 	 	 	 	 	 	 	 	 	 	 	 	 	 	 	 	 	 	1581497343	7.90	14.63
12/02/2020 08:49:04	120220	12022020	084904	185.58	12.777150	-57.138177	185.77	0.040	0.460	1.940	185.58	-0.90	2.40	 	 	 	 	 	 	 	 	 	 	 	 	 	 	 	 	 	 	1581497344	7.63	14.13
12/02/2020 08:49:05	120220	12022020	084905	186.14	12.777117	-57.138178	186.43	0.090	1.070	0.820	186.27	-0.30	1.20	 	 	 	 	 	 	 	 	 	 	 	 	 	 	 	 	 	 	1581497345	7.20	13.33
12/02/2020 08:49:06	120220	12022020	084906	186.70	12.777085	-57.138178	186.90	0.210	0.990	-0.040	186.79	-0.40	0.40	 	 	 	 	 	 	 	 	 	 	 	 	 	 	 	 	 	 	1581497346	7.08	13.11
12/02/2020 08:49:07	120220	12022020	084907	186.94	12.777050	-57.138177	187.01	0.450	0.190	-0.070	186.93	-1.20	0.40	 	 	 	 	 	 	 	 	 	 	 	 	 	 	 	 	 	 	1581497347	7.57	14.02
12/02/2020 08:49:08	120220	12022020	084908	186.67	12.777012	-57.138180	186.72	0.630	-0.720	0.600	186.67	-2.10	1.10	 	 	 	 	 	 	 	 	 	 	 	 	 	 	 	 	 	 	1581497348	8.08	14.96
12/02/2020 08:49:09	120220	12022020	084909	186.35	12.776975	-57.138187	186.37	0.440	-1.090	1.510	186.29	-2.40	2.00	 	 	 	 	 	 	 	 	 	 	 	 	 	 	 	 	 	 	1581497349	8.16	15.11
12/02/2020 08:49:10	120220	12022020	084910	186.19	12.776940	-57.138195	186.34	-0.080	-0.760	2.400	186.20	-2.10	2.90	 	 	 	 	 	 	 	 	 	 	 	 	 	 	 	 	 	 	1581497350	7.72	14.30
12/02/2020 08:49:11	120220	12022020	084911	186.41	12.776908	-57.138208	186.64	-0.510	-0.230	2.910	186.47	-1.60	3.40	 	 	 	 	 	 	 	 	 	 	 	 	 	 	 	 	 	 	1581497351	7.21	13.35
12/02/2020 08:49:12	120220	12022020	084912	186.80	12.776878	-57.138222	186.93	-0.400	-0.170	2.790	186.80	-1.50	3.20	 	 	 	 	 	 	 	 	 	 	 	 	 	 	 	 	 	 	1581497352	7.09	13.13
12/02/2020 08:49:13	120220	12022020	084913	186.82	12.776845	-57.138232	186.88	0.240	-0.690	2.260	186.80	-2.00	2.70	 	 	 	 	 	 	 	 	 	 	 	 	 	 	 	 	 	 	1581497353	7.52	13.93
12/02/2020 08:49:14	120220	12022020	084914	186.68	12.776807	-57.138237	186.77	0.660	-0.940	1.740	186.68	-2.30	2.20	 	 	 	 	 	 	 	 	 	 	 	 	 	 	 	 	 	 	1581497354	8.25	15.28
12/02/2020 08:49:15	120220	12022020	084915	186.75	12.776770	-57.138238	186.89	0.250	-0.400	1.500	186.79	-1.70	2.00	 	 	 	 	 	 	 	 	 	 	 	 	 	 	 	 	 	 	1581497355	8.03	14.87
12/02/2020 08:49:16	120220	12022020	084916	186.91	12.776737	-57.138242	186.99	-0.630	0.310	1.490	186.91	-1.00	2.00	 	 	 	 	 	 	 	 	 	 	 	 	 	 	 	 	 	 	1581497356	7.10	13.15
12/02/2020 08:49:17	120220	12022020	084917	186.91	12.776705	-57.138252	186.98	-1.130	0.500	1.670	186.91	-0.80	2.20	 	 	 	 	 	 	 	 	 	 	 	 	 	 	 	 	 	 	1581497357	7.02	13.00
12/02/2020 08:49:18	120220	12022020	084918	186.91	12.776672	-57.138263	186.98	-0.750	0.320	1.720	186.91	-1.00	2.20	 	 	 	 	 	 	 	 	 	 	 	 	 	 	 	 	 	 	1581497358	7.74	14.33
12/02/2020 08:49:19	120220	12022020	084919	186.93	12.776637	-57.138275	187.01	0.250	0.120	1.340	186.94	-1.20	1.80	 	 	 	 	 	 	 	 	 	 	 	 	 	 	 	 	 	 	1581497359	8.01	14.83
12/02/2020 08:49:20	120220	12022020	084920	187.02	12.776600	-57.138282	187.09	1.130	-0.060	0.640	187.02	-1.40	1.10	 	 	 	 	 	 	 	 	 	 	 	 	 	 	 	 	 	 	1581497360	7.78	14.41
12/02/2020 08:49:21	120220	12022020	084921	187.10	12.776565	-57.138282	187.14	1.300	-0.310	0.180	187.10	-1.70	0.70	 	 	 	 	 	 	 	 	 	 	 	 	 	 	 	 	 	 	1581497361	7.66	14.19
12/02/2020 08:49:22	120220	12022020	084922	186.92	12.776530	-57.138282	186.94	0.780	-0.710	0.710	186.92	-2.10	1.20	 	 	 	 	 	 	 	 	 	 	 	 	 	 	 	 	 	 	1581497362	7.62	14.11
12/02/2020 08:49:23	120220	12022020	084923	186.57	12.776493	-57.138285	186.50	-0.040	-1.030	1.900	186.47	-2.40	2.40	 	 	 	 	 	 	 	 	 	 	 	 	 	 	 	 	 	 	1581497363	7.69	14.24
12/02/2020 08:49:24	120220	12022020	084924	185.97	12.776458	-57.138297	186.03	-0.760	-1.050	3.090	185.97	-2.40	3.60	 	 	 	 	 	 	 	 	 	 	 	 	 	 	 	 	 	 	1581497364	7.91	14.65
12/02/2020 08:49:25	120220	12022020	084925	185.63	12.776425	-57.138313	185.66	-1.080	-0.760	3.960	185.55	-2.10	4.50	 	 	 	 	 	 	 	 	 	 	 	 	 	 	 	 	 	 	1581497365	8.08	14.96
12/02/2020 08:49:26	120220	12022020	084926	185.34	12.776392	-57.138330	185.48	-0.950	-0.230	4.060	185.34	-1.50	4.50	 	 	 	 	 	 	 	 	 	 	 	 	 	 	 	 	 	 	1581497366	8.07	14.95
12/02/2020 08:49:27	120220	12022020	084927	185.35	12.776358	-57.138343	185.52	-0.560	0.370	3.440	185.37	-0.90	3.90	 	 	 	 	 	 	 	 	 	 	 	 	 	 	 	 	 	 	1581497367	7.61	14.09
12/02/2020 08:49:28	120220	12022020	084928	185.44	12.776325	-57.138352	185.57	-0.030	0.610	2.510	185.44	-0.70	3.00	 	 	 	 	 	 	 	 	 	 	 	 	 	 	 	 	 	 	1581497368	7.26	13.45
12/02/2020 08:49:29	120220	12022020	084929	185.52	12.776290	-57.138355	185.67	0.590	0.380	1.370	185.55	-1.00	1.80	 	 	 	 	 	 	 	 	 	 	 	 	 	 	 	 	 	 	1581497369	7.50	13.89
12/02/2020 08:49:30	120220	12022020	084930	185.80	12.776253	-57.138355	185.99	1.080	0.120	0.190	185.88	-1.20	0.60	 	 	 	 	 	 	 	 	 	 	 	 	 	 	 	 	 	 	1581497370	7.90	14.63
12/02/2020 08:49:31	120220	12022020	084931	186.20	12.776218	-57.138352	186.38	1.170	-0.040	-0.440	186.29	-1.40	0.10	 	 	 	 	 	 	 	 	 	 	 	 	 	 	 	 	 	 	1581497371	7.78	14.41
12/02/2020 08:49:32	120220	12022020	084932	186.48	12.776183	-57.138348	186.54	0.790	-0.390	-0.210	186.48	-1.80	0.30	 	 	 	 	 	 	 	 	 	 	 	 	 	 	 	 	 	 	1581497372	7.42	13.74
12/02/2020 08:49:33	120220	12022020	084933	186.32	12.776148	-57.138350	186.29	0.110	-1.000	0.840	186.25	-2.40	1.40	 	 	 	 	 	 	 	 	 	 	 	 	 	 	 	 	 	 	1581497373	7.45	13.80
12/02/2020 08:49:34	120220	12022020	084934	185.86	12.776113	-57.138360	185.84	-0.610	-1.340	2.460	185.76	-2.70	3.00	 	 	 	 	 	 	 	 	 	 	 	 	 	 	 	 	 	 	1581497374	7.97	14.76
12/02/2020 08:49:35	120220	12022020	084935	185.45	12.776078	-57.138377	185.55	-1.050	-1.050	3.890	185.41	-2.40	4.40	 	 	 	 	 	 	 	 	 	 	 	 	 	 	 	 	 	 	1581497375	8.28	15.33
12/02/2020 08:49:36	120220	12022020	084936	185.33	12.776045	-57.138397	185.49	-0.980	-0.450	4.370	185.32	-1.80	4.80	 	 	 	 	 	 	 	 	 	 	 	 	 	 	 	 	 	 	1581497376	8.10	15.00
12/02/2020 08:49:37	120220	12022020	084937	185.28	12.776013	-57.138412	185.43	-0.420	-0.020	3.920	185.26	-1.40	4.40	 	 	 	 	 	 	 	 	 	 	 	 	 	 	 	 	 	 	1581497377	7.59	14.06
12/02/2020 08:49:38	120220	12022020	084938	185.16	12.775980	-57.138418	185.33	0.290	0.130	2.900	185.16	-1.20	3.30	 	 	 	 	 	 	 	 	 	 	 	 	 	 	 	 	 	 	1581497378	7.51	13.91
12/02/2020 08:49:39	120220	12022020	084939	185.21	12.775943	-57.138420	185.41	0.720	0.240	1.480	185.25	-1.10	1.90	 	 	 	 	 	 	 	 	 	 	 	 	 	 	 	 	 	 	1581497379	7.79	14.43
12/02/2020 08:49:40	120220	12022020	084940	185.63	12.775907	-57.138415	185.77	0.640	0.400	0.050	185.63	-1.00	0.50	 	 	 	 	 	 	 	 	 	 	 	 	 	 	 	 	 	 	1581497380	7.81	14.46
12/02/2020 08:49:41	120220	12022020	084941	185.96	12.775872	-57.138412	186.12	0.220	0.230	-0.450	186.02	-1.20	0.10	 	 	 	 	 	 	 	 	 	 	 	 	 	 	 	 	 	 	1581497381	7.54	13.96
12/02/2020 08:49:42	120220	12022020	084942	186.14	12.775837	-57.138413	186.25	-0.130	-0.260	0.130	186.16	-1.60	0.70	 	 	 	 	 	 	 	 	 	 	 	 	 	 	 	 	 	 	1581497382	7.52	13.93
12/02/2020 08:49:43	120220	12022020	084943	186.20	12.775802	-57.138423	186.31	-0.270	-0.540	1.060	186.21	-1.90	1.60	 	 	 	 	 	 	 	 	 	 	 	 	 	 	 	 	 	 	1581497383	7.84	14.52
12/02/2020 08:49:44	120220	12022020	084944	186.22	12.775768	-57.138435	186.32	-0.240	-0.420	1.960	186.22	-1.80	2.50	 	 	 	 	 	 	 	 	 	 	 	 	 	 	 	 	 	 	1581497384	7.72	14.30
12/02/2020 08:49:45	120220	12022020	084945	186.16	12.775735	-57.138447	186.25	-0.130	-0.350	2.660	186.14	-1.70	3.20	 	 	 	 	 	 	 	 	 	 	 	 	 	 	 	 	 	 	1581497385	7.37	13.65
12/02/2020 08:49:46	120220	12022020	084946	186.07	12.775703	-57.138457	186.15	0.060	-0.580	2.860	186.04	-1.90	3.30	 	 	 	 	 	 	 	 	 	 	 	 	 	 	 	 	 	 	1581497386	7.48	13.85
12/02/2020 08:49:47	120220	12022020	084947	185.93	12.775667	-57.138465	185.99	0.270	-0.780	2.590	185.90	-2.10	3.10	 	 	 	 	 	 	 	 	 	 	 	 	 	 	 	 	 	 	1581497387	7.81	14.46
12/02/2020 08:49:48	120220	12022020	084948	185.79	12.775632	-57.138468	185.86	0.360	-0.670	2.090	185.77	-2.00	2.60	 	 	 	 	 	 	 	 	 	 	 	 	 	 	 	 	 	 	1581497388	7.82	14.48
12/02/2020 08:49:49	120220	12022020	084949	185.68	12.775595	-57.138470	185.74	0.250	-0.390	1.620	185.66	-1.70	2.10	 	 	 	 	 	 	 	 	 	 	 	 	 	 	 	 	 	 	1581497389	7.59	14.06
12/02/2020 08:49:50	120220	12022020	084950	185.55	12.775562	-57.138473	185.60	-0.010	-0.100	1.440	185.53	-1.40	1.90	 	 	 	 	 	 	 	 	 	 	 	 	 	 	 	 	 	 	1581497390	7.47	13.83
12/02/2020 08:49:51	120220	12022020	084951	185.38	12.775527	-57.138478	185.40	-0.270	0.170	1.660	185.34	-1.20	2.20	 	 	 	 	 	 	 	 	 	 	 	 	 	 	 	 	 	 	1581497391	7.46	13.82
12/02/2020 08:49:52	120220	12022020	084952	185.13	12.775493	-57.138485	185.21	-0.380	0.270	1.910	185.13	-1.10	2.40	 	 	 	 	 	 	 	 	 	 	 	 	 	 	 	 	 	 	1581497392	7.51	13.91
12/02/2020 08:49:53	120220	12022020	084953	185.09	12.775458	-57.138493	185.25	-0.290	0.290	1.920	185.13	-1.10	2.40	 	 	 	 	 	 	 	 	 	 	 	 	 	 	 	 	 	 	1581497393	7.70	14.26
12/02/2020 08:49:54	120220	12022020	084954	185.60	12.775423	-57.138502	185.77	-0.130	0.290	1.670	185.60	-1.10	2.10	 	 	 	 	 	 	 	 	 	 	 	 	 	 	 	 	 	 	1581497394	7.66	14.19
12/02/2020 08:49:55	120220	12022020	084955	186.21	12.775388	-57.138507	186.51	0.000	-0.000	1.370	186.36	-1.40	1.80	 	 	 	 	 	 	 	 	 	 	 	 	 	 	 	 	 	 	1581497395	7.45	13.80
12/02/2020 08:49:56	120220	12022020	084956	186.77	12.775353	-57.138512	186.87	0.200	-0.650	1.330	186.77	-2.10	1.80	 	 	 	 	 	 	 	 	 	 	 	 	 	 	 	 	 	 	1581497396	7.56	14.00
12/02/2020 08:49:57	120220	12022020	084957	186.69	12.775317	-57.138518	186.67	0.460	-1.170	1.660	186.62	-2.50	2.20	 	 	 	 	 	 	 	 	 	 	 	 	 	 	 	 	 	 	1581497397	7.93	14.69
12/02/2020 08:49:58	120220	12022020	084958	186.11	12.775282	-57.138525	186.15	0.610	-1.000	2.060	186.11	-2.30	2.60	 	 	 	 	 	 	 	 	 	 	 	 	 	 	 	 	 	 	1581497398	7.91	14.65
12/02/2020 08:49:59	120220	12022020	084959	185.82	12.775247	-57.138530	185.87	0.430	-0.300	2.020	185.80	-1.60	2.50	 	 	 	 	 	 	 	 	 	 	 	 	 	 	 	 	 	 	1581497399	7.37	13.65
12/02/2020 08:50:00	120220	12022020	085000	185.81	12.775215	-57.138533	185.91	-0.020	0.260	1.730	185.83	-1.10	2.20	 	 	 	 	 	 	 	 	 	 	 	 	 	 	 	 	 	 	1581497400	6.90	12.78
12/02/2020 08:50:01	120220	12022020	085001	185.87	12.775183	-57.138537	185.91	-0.430	0.080	1.730	185.85	-1.30	2.20	1015.00	26.10	26.20	20.60	20.70	-1.0	71.0	71.0	394.0	25.8	268.00	9.80	72.00	10.70	16	9587.0	27.4	27.4	1581497401	7.08	13.11
12/02/2020 08:50:02	120220	12022020	085002	185.58	12.775147	-57.138542	185.62	-0.590	-0.640	2.320	185.58	-2.00	2.80	 	 	 	 	 	 	 	 	 	 	 	 	 	 	 	 	 	 	1581497402	7.94	14.70
12/02/2020 08:50:03	120220	12022020	085003	185.34	12.775107	-57.138553	185.39	-0.640	-1.010	2.970	185.31	-2.40	3.50	 	 	 	 	 	 	 	 	 	 	 	 	 	 	 	 	 	 	1581497403	8.70	16.11
12/02/2020 08:50:04	120220	12022020	085004	185.30	12.775070	-57.138567	185.44	-0.650	-0.580	3.210	185.32	-1.90	3.70	 	 	 	 	 	 	 	 	 	 	 	 	 	 	 	 	 	 	1581497404	8.53	15.80
12/02/2020 08:50:05	120220	12022020	085005	185.50	12.775037	-57.138578	185.67	-0.460	0.330	2.870	185.55	-1.00	3.30	 	 	 	 	 	 	 	 	 	 	 	 	 	 	 	 	 	 	1581497405	7.67	14.20
12/02/2020 08:50:06	120220	12022020	085006	185.93	12.775005	-57.138588	186.05	0.100	1.020	1.840	185.93	-0.30	2.30	 	 	 	 	 	 	 	 	 	 	 	 	 	 	 	 	 	 	1581497406	6.91	12.80
12/02/2020 08:50:07	120220	12022020	085007	186.38	12.774973	-57.138588	186.62	0.720	1.000	0.430	186.51	-0.40	0.80	 	 	 	 	 	 	 	 	 	 	 	 	 	 	 	 	 	 	1581497407	6.96	12.89
12/02/2020 08:50:08	120220	12022020	085008	186.96	12.774938	-57.138583	187.01	0.970	0.130	-0.290	186.96	-1.30	0.20	 	 	 	 	 	 	 	 	 	 	 	 	 	 	 	 	 	 	1581497408	7.65	14.17
12/02/2020 08:50:09	120220	12022020	085009	186.85	12.774900	-57.138582	186.85	0.780	-1.140	0.060	186.85	-2.60	0.60	 	 	 	 	 	 	 	 	 	 	 	 	 	 	 	 	 	 	1581497409	8.20	15.19
12/02/2020 08:50:10	120220	12022020	085010	186.33	12.774860	-57.138587	186.34	0.300	-1.840	1.110	186.33	-3.20	1.70	 	 	 	 	 	 	 	 	 	 	 	 	 	 	 	 	 	 	1581497410	8.48	15.70
12/02/2020 08:50:11	120220	12022020	085011	185.89	12.774823	-57.138595	185.84	-0.220	-1.470	2.400	185.80	-2.80	2.90	 	 	 	 	 	 	 	 	 	 	 	 	 	 	 	 	 	 	1581497411	8.15	15.09
12/02/2020 08:50:12	120220	12022020	085012	185.47	12.774792	-57.138608	185.57	-0.610	-0.480	3.340	185.47	-1.80	3.80	 	 	 	 	 	 	 	 	 	 	 	 	 	 	 	 	 	 	1581497412	7.48	13.85
12/02/2020 08:50:13	120220	12022020	085013	185.42	12.774760	-57.138622	185.57	-0.730	0.340	3.550	185.43	-1.00	4.00	 	 	 	 	 	 	 	 	 	 	 	 	 	 	 	 	 	 	1581497413	7.14	13.22
12/02/2020 08:50:14	120220	12022020	085014	185.62	12.774728	-57.138633	185.78	-0.590	0.600	3.080	185.62	-0.80	3.50	 	 	 	 	 	 	 	 	 	 	 	 	 	 	 	 	 	 	1581497414	7.25	13.43
12/02/2020 08:50:15	120220	12022020	085015	185.92	12.774695	-57.138640	186.18	-0.300	0.520	2.080	186.02	-0.90	2.50	 	 	 	 	 	 	 	 	 	 	 	 	 	 	 	 	 	 	1581497415	7.58	14.04
12/02/2020 08:50:16	120220	12022020	085016	186.47	12.774658	-57.138643	186.58	0.020	0.190	0.940	186.47	-1.20	1.40	 	 	 	 	 	 	 	 	 	 	 	 	 	 	 	 	 	 	1581497416	7.69	14.24
12/02/2020 08:50:17	120220	12022020	085017	186.57	12.774622	-57.138643	186.61	0.330	-0.530	0.350	186.54	-1.90	0.80	 	 	 	 	 	 	 	 	 	 	 	 	 	 	 	 	 	 	1581497417	7.79	14.43
12/02/2020 08:50:18	120220	12022020	085018	186.37	12.774585	-57.138645	186.44	0.530	-1.130	0.320	186.37	-2.50	0.80	 	 	 	 	 	 	 	 	 	 	 	 	 	 	 	 	 	 	1581497418	8.22	15.22
12/02/2020 08:50:19	120220	12022020	085019	186.35	12.774547	-57.138648	186.46	0.470	-1.090	0.560	186.37	-2.40	1.10	 	 	 	 	 	 	 	 	 	 	 	 	 	 	 	 	 	 	1581497419	8.18	15.15
12/02/2020 08:50:20	120220	12022020	085020	186.51	12.774512	-57.138653	186.61	0.170	-0.530	0.920	186.51	-1.90	1.40	 	 	 	 	 	 	 	 	 	 	 	 	 	 	 	 	 	 	1581497420	7.61	14.09
12/02/2020 08:50:21	120220	12022020	085021	186.57	12.774478	-57.138660	186.68	-0.210	-0.000	1.450	186.58	-1.40	2.00	 	 	 	 	 	 	 	 	 	 	 	 	 	 	 	 	 	 	1581497421	7.19	13.32
12/02/2020 08:50:22	120220	12022020	085022	186.55	12.774445	-57.138668	186.65	-0.480	0.190	2.110	186.55	-1.20	2.60	 	 	 	 	 	 	 	 	 	 	 	 	 	 	 	 	 	 	1581497422	7.36	13.63
12/02/2020 08:50:23	120220	12022020	085023	186.52	12.774410	-57.138678	186.62	-0.600	0.190	2.610	186.51	-1.20	3.10	 	 	 	 	 	 	 	 	 	 	 	 	 	 	 	 	 	 	1581497423	7.80	14.45
12/02/2020 08:50:24	120220	12022020	085024	186.48	12.774375	-57.138688	186.60	-0.520	0.280	2.720	186.48	-1.10	3.20	 	 	 	 	 	 	 	 	 	 	 	 	 	 	 	 	 	 	1581497424	7.90	14.63
12/02/2020 08:50:25	120220	12022020	085025	186.52	12.774340	-57.138698	186.66	-0.250	0.330	2.460	186.53	-1.10	2.90	 	 	 	 	 	 	 	 	 	 	 	 	 	 	 	 	 	 	1581497425	7.63	14.13
12/02/2020 08:50:26	120220	12022020	085026	186.71	12.774307	-57.138705	186.83	0.140	0.130	1.830	186.71	-1.30	2.30	 	 	 	 	 	 	 	 	 	 	 	 	 	 	 	 	 	 	1581497426	7.53	13.95
12/02/2020 08:50:27	120220	12022020	085027	186.85	12.774272	-57.138708	186.93	0.510	-0.340	1.210	186.86	-1.80	1.70	 	 	 	 	 	 	 	 	 	 	 	 	 	 	 	 	 	 	1581497427	7.62	14.11
12/02/2020 08:50:28	120220	12022020	085028	186.72	12.774235	-57.138710	186.76	0.720	-0.890	1.030	186.72	-2.30	1.50	 	 	 	 	 	 	 	 	 	 	 	 	 	 	 	 	 	 	1581497428	7.84	14.52
12/02/2020 08:50:29	120220	12022020	085029	186.41	12.774198	-57.138713	186.36	0.650	-1.130	1.280	186.32	-2.50	1.80	 	 	 	 	 	 	 	 	 	 	 	 	 	 	 	 	 	 	1581497429	7.94	14.70
12/02/2020 08:50:30	120220	12022020	085030	186.04	12.774162	-57.138720	186.12	0.300	-0.790	1.540	186.04	-2.10	2.00	 	 	 	 	 	 	 	 	 	 	 	 	 	 	 	 	 	 	1581497430	7.76	14.37
12/02/2020 08:50:31	120220	12022020	085031	186.00	12.774128	-57.138725	186.08	-0.060	-0.230	1.680	186.00	-1.60	2.20	 	 	 	 	 	 	 	 	 	 	 	 	 	 	 	 	 	 	1581497431	7.30	13.52
12/02/2020 08:50:32	120220	12022020	085032	186.07	12.774097	-57.138733	186.17	-0.160	0.020	1.750	186.07	-1.40	2.20	 	 	 	 	 	 	 	 	 	 	 	 	 	 	 	 	 	 	1581497432	7.23	13.39
12/02/2020 08:50:33	120220	12022020	085033	186.25	12.774060	-57.138738	186.42	-0.120	-0.010	1.720	186.31	-1.40	2.20	 	 	 	 	 	 	 	 	 	 	 	 	 	 	 	 	 	 	1581497433	7.67	14.20
12/02/2020 08:50:34	120220	12022020	085034	186.55	12.774025	-57.138745	186.72	-0.240	-0.050	1.730	186.61	-1.40	2.20	 	 	 	 	 	 	 	 	 	 	 	 	 	 	 	 	 	 	1581497434	7.92	14.67
12/02/2020 08:50:35	120220	12022020	085035	186.77	12.773988	-57.138752	186.89	-0.540	-0.090	1.870	186.80	-1.50	2.30	 	 	 	 	 	 	 	 	 	 	 	 	 	 	 	 	 	 	1581497435	7.83	14.50
12/02/2020 08:50:36	120220	12022020	085036	186.87	12.773953	-57.138760	187.00	-0.830	-0.140	2.070	186.89	-1.50	2.50	 	 	 	 	 	 	 	 	 	 	 	 	 	 	 	 	 	 	1581497436	7.78	14.41
12/02/2020 08:50:37	120220	12022020	085037	186.94	12.773918	-57.138770	187.04	-0.740	-0.240	2.120	186.94	-1.60	2.60	 	 	 	 	 	 	 	 	 	 	 	 	 	 	 	 	 	 	1581497437	7.78	14.41
12/02/2020 08:50:38	120220	12022020	085038	186.91	12.773883	-57.138780	186.95	-0.130	-0.410	1.870	186.88	-1.80	2.30	 	 	 	 	 	 	 	 	 	 	 	 	 	 	 	 	 	 	1581497438	7.83	14.50
12/02/2020 08:50:39	120220	12022020	085039	186.69	12.773847	-57.138787	186.68	0.740	-0.550	1.370	186.64	-1.90	1.80	 	 	 	 	 	 	 	 	 	 	 	 	 	 	 	 	 	 	1581497439	7.93	14.69
12/02/2020 08:50:40	120220	12022020	085040	186.54	12.773810	-57.138788	186.62	1.220	-0.390	0.910	186.55	-1.80	1.40	 	 	 	 	 	 	 	 	 	 	 	 	 	 	 	 	 	 	1581497440	8.03	14.87
12/02/2020 08:50:41	120220	12022020	085041	186.68	12.773773	-57.138787	186.81	0.890	-0.010	0.890	186.72	-1.40	1.40	 	 	 	 	 	 	 	 	 	 	 	 	 	 	 	 	 	 	1581497441	7.79	14.43
12/02/2020 08:50:42	120220	12022020	085042	186.84	12.773740	-57.138788	186.91	0.020	0.180	1.330	186.85	-1.20	1.80	 	 	 	 	 	 	 	 	 	 	 	 	 	 	 	 	 	 	1581497442	7.35	13.61
12/02/2020 08:50:43	120220	12022020	085043	186.77	12.773705	-57.138797	186.82	-0.700	0.040	2.020	186.75	-1.40	2.50	 	 	 	 	 	 	 	 	 	 	 	 	 	 	 	 	 	 	1581497443	7.49	13.87
12/02/2020 08:50:44	120220	12022020	085044	186.66	12.773670	-57.138808	186.76	-0.810	-0.120	2.510	186.66	-1.50	3.00	 	 	 	 	 	 	 	 	 	 	 	 	 	 	 	 	 	 	1581497444	8.00	14.82
12/02/2020 08:50:45	120220	12022020	085045	186.71	12.773635	-57.138822	186.85	-0.430	-0.120	2.500	186.74	-1.50	2.90	 	 	 	 	 	 	 	 	 	 	 	 	 	 	 	 	 	 	1581497445	7.98	14.78
12/02/2020 08:50:46	120220	12022020	085046	186.98	12.773602	-57.138830	187.11	-0.030	-0.200	2.220	186.98	-1.60	2.70	 	 	 	 	 	 	 	 	 	 	 	 	 	 	 	 	 	 	1581497446	7.62	14.11
12/02/2020 08:50:47	120220	12022020	085047	187.15	12.773567	-57.138837	187.26	0.140	-0.550	1.900	187.17	-2.00	2.40	 	 	 	 	 	 	 	 	 	 	 	 	 	 	 	 	 	 	1581497447	7.62	14.11
12/02/2020 08:50:48	120220	12022020	085048	187.15	12.773530	-57.138843	187.18	0.200	-1.000	1.630	187.12	-2.40	2.10	 	 	 	 	 	 	 	 	 	 	 	 	 	 	 	 	 	 	1581497448	7.92	14.67
12/02/2020 08:50:49	120220	12022020	085049	186.97	12.773493	-57.138850	186.98	0.290	-1.020	1.480	186.93	-2.40	1.90	 	 	 	 	 	 	 	 	 	 	 	 	 	 	 	 	 	 	1581497449	8.16	15.11
12/02/2020 08:50:50	120220	12022020	085050	186.88	12.773457	-57.138855	186.97	0.280	-0.400	1.180	186.90	-1.80	1.60	 	 	 	 	 	 	 	 	 	 	 	 	 	 	 	 	 	 	1581497450	7.85	14.54
12/02/2020 08:50:51	120220	12022020	085051	187.10	12.773423	-57.138858	187.22	0.150	0.290	0.700	187.16	-1.10	1.20	 	 	 	 	 	 	 	 	 	 	 	 	 	 	 	 	 	 	1581497451	7.25	13.43
12/02/2020 08:50:52	120220	12022020	085052	187.47	12.773390	-57.138860	187.52	0.090	0.390	0.380	187.47	-1.00	0.90	 	 	 	 	 	 	 	 	 	 	 	 	 	 	 	 	 	 	1581497452	7.20	13.33
12/02/2020 08:50:53	120220	12022020	085053	187.55	12.773353	-57.138863	187.58	0.120	0.010	0.720	187.55	-1.40	1.20	 	 	 	 	 	 	 	 	 	 	 	 	 	 	 	 	 	 	1581497453	7.78	14.41
12/02/2020 08:50:54	120220	12022020	085054	187.33	12.773315	-57.138870	187.26	0.100	-0.360	1.660	187.24	-1.80	2.20	 	 	 	 	 	 	 	 	 	 	 	 	 	 	 	 	 	 	1581497454	8.22	15.22
12/02/2020 08:50:55	120220	12022020	085055	186.91	12.773278	-57.138880	186.90	-0.130	-0.410	2.670	186.85	-1.80	3.20	 	 	 	 	 	 	 	 	 	 	 	 	 	 	 	 	 	 	1581497455	8.27	15.32
12/02/2020 08:50:56	120220	12022020	085056	186.68	12.773243	-57.138893	186.78	-0.500	-0.130	3.350	186.68	-1.50	3.80	 	 	 	 	 	 	 	 	 	 	 	 	 	 	 	 	 	 	1581497456	8.01	14.83
12/02/2020 08:50:57	120220	12022020	085057	186.70	12.773210	-57.138907	186.83	-0.710	0.160	3.460	186.72	-1.20	3.90	 	 	 	 	 	 	 	 	 	 	 	 	 	 	 	 	 	 	1581497457	7.68	14.22
12/02/2020 08:50:58	120220	12022020	085058	186.93	12.773177	-57.138918	187.05	-0.470	0.070	2.840	186.93	-1.40	3.30	 	 	 	 	 	 	 	 	 	 	 	 	 	 	 	 	 	 	1581497458	7.53	13.95
12/02/2020 08:50:59	120220	12022020	085059	187.20	12.773142	-57.138925	187.41	0.130	-0.390	1.700	187.29	-1.80	2.10	 	 	 	 	 	 	 	 	 	 	 	 	 	 	 	 	 	 	1581497459	7.79	14.43
12/02/2020 08:51:00	120220	12022020	085100	187.67	12.773103	-57.138928	187.76	0.650	-0.770	0.690	187.67	-2.20	1.10	 	 	 	 	 	 	 	 	 	 	 	 	 	 	 	 	 	 	1581497460	8.14	15.08
12/02/2020 08:51:01	120220	12022020	085101	187.82	12.773067	-57.138928	187.88	0.750	-0.750	0.210	187.83	-2.10	0.70	1015.00	26.20	26.20	20.80	20.80	-1.0	72.0	72.0	393.0	25.8	274.00	9.60	77.00	10.20	16	9438.0	27.4	27.4	1581497461	8.02	14.85
12/02/2020 08:51:02	120220	12022020	085102	187.86	12.773032	-57.138932	187.93	0.470	-0.390	0.120	187.88	-1.80	0.60	 	 	 	 	 	 	 	 	 	 	 	 	 	 	 	 	 	 	1581497462	7.59	14.06
12/02/2020 08:51:03	120220	12022020	085103	187.96	12.772998	-57.138935	187.99	0.030	-0.040	0.370	187.96	-1.40	0.90	 	 	 	 	 	 	 	 	 	 	 	 	 	 	 	 	 	 	1581497463	7.26	13.45
12/02/2020 08:51:04	120220	12022020	085104	187.79	12.772965	-57.138942	187.72	-0.280	-0.120	1.200	187.72	-1.50	1.70	 	 	 	 	 	 	 	 	 	 	 	 	 	 	 	 	 	 	1581497464	7.32	13.56
12/02/2020 08:51:05	120220	12022020	085105	187.30	12.772928	-57.138953	187.23	-0.330	-0.420	2.190	187.20	-1.80	2.70	 	 	 	 	 	 	 	 	 	 	 	 	 	 	 	 	 	 	1581497465	8.01	14.83
12/02/2020 08:51:06	120220	12022020	085106	186.91	12.772892	-57.138967	187.00	-0.320	-0.300	2.830	186.91	-1.70	3.30	 	 	 	 	 	 	 	 	 	 	 	 	 	 	 	 	 	 	1581497466	8.04	14.89
12/02/2020 08:51:07	120220	12022020	085107	187.10	12.772857	-57.138978	187.35	-0.340	0.290	2.860	187.21	-1.10	3.30	 	 	 	 	 	 	 	 	 	 	 	 	 	 	 	 	 	 	1581497467	7.25	13.43
12/02/2020 08:51:08	120220	12022020	085108	187.94	12.772823	-57.138988	188.09	-0.310	0.690	2.330	187.94	-0.70	2.80	 	 	 	 	 	 	 	 	 	 	 	 	 	 	 	 	 	 	1581497468	7.25	13.43
12/02/2020 08:51:09	120220	12022020	085109	188.46	12.772792	-57.138995	188.66	-0.060	0.340	1.580	188.55	-1.10	2.00	 	 	 	 	 	 	 	 	 	 	 	 	 	 	 	 	 	 	1581497469	7.13	13.20
12/02/2020 08:51:10	120220	12022020	085110	188.73	12.772755	-57.138998	188.79	0.370	-0.700	1.120	188.73	-2.20	1.60	 	 	 	 	 	 	 	 	 	 	 	 	 	 	 	 	 	 	1581497470	7.79	14.43
12/02/2020 08:51:11	120220	12022020	085111	188.59	12.772717	-57.139003	188.56	0.700	-1.540	1.070	188.53	-3.00	1.50	 	 	 	 	 	 	 	 	 	 	 	 	 	 	 	 	 	 	1581497471	8.47	15.69
12/02/2020 08:51:12	120220	12022020	085112	188.08	12.772678	-57.139010	188.10	0.630	-1.470	1.350	188.08	-2.80	1.80	 	 	 	 	 	 	 	 	 	 	 	 	 	 	 	 	 	 	1581497472	8.33	15.43
12/02/2020 08:51:13	120220	12022020	085113	187.69	12.772643	-57.139017	187.63	0.160	-0.700	1.850	187.60	-2.10	2.30	 	 	 	 	 	 	 	 	 	 	 	 	 	 	 	 	 	 	1581497473	7.56	14.00
12/02/2020 08:51:14	120220	12022020	085114	187.28	12.772612	-57.139025	187.34	-0.460	0.100	2.300	187.28	-1.30	2.80	 	 	 	 	 	 	 	 	 	 	 	 	 	 	 	 	 	 	1581497474	7.13	13.20
12/02/2020 08:51:15	120220	12022020	085115	187.24	12.772578	-57.139033	187.38	-0.950	0.660	2.550	187.27	-0.70	3.00	 	 	 	 	 	 	 	 	 	 	 	 	 	 	 	 	 	 	1581497475	7.38	13.67
12/02/2020 08:51:16	120220	12022020	085116	187.50	12.772545	-57.139047	187.72	-1.070	1.020	2.580	187.58	-0.40	3.00	 	 	 	 	 	 	 	 	 	 	 	 	 	 	 	 	 	 	1581497476	7.67	14.20
12/02/2020 08:51:17	120220	12022020	085117	187.96	12.772512	-57.139058	188.18	-0.640	0.970	2.150	188.04	-0.50	2.60	 	 	 	 	 	 	 	 	 	 	 	 	 	 	 	 	 	 	1581497477	7.68	14.22
12/02/2020 08:51:18	120220	12022020	085118	188.42	12.772477	-57.139068	188.52	0.270	0.380	1.260	188.42	-1.10	1.70	 	 	 	 	 	 	 	 	 	 	 	 	 	 	 	 	 	 	1581497478	7.73	14.32
12/02/2020 08:51:19	120220	12022020	085119	188.69	12.772438	-57.139072	188.85	1.150	-0.400	0.190	188.76	-1.80	0.60	 	 	 	 	 	 	 	 	 	 	 	 	 	 	 	 	 	 	1581497479	8.06	14.93
12/02/2020 08:51:20	120220	12022020	085120	189.14	12.772402	-57.139072	189.20	1.390	-0.980	-0.390	189.14	-2.40	0.10	 	 	 	 	 	 	 	 	 	 	 	 	 	 	 	 	 	 	1581497480	8.17	15.13
12/02/2020 08:51:21	120220	12022020	085121	189.19	12.772365	-57.139070	189.14	0.910	-1.460	0.040	189.13	-2.90	0.60	 	 	 	 	 	 	 	 	 	 	 	 	 	 	 	 	 	 	1581497481	7.81	14.46
12/02/2020 08:51:22	120220	12022020	085122	188.42	12.772330	-57.139077	188.40	0.100	-1.820	1.540	188.42	-3.20	2.10	 	 	 	 	 	 	 	 	 	 	 	 	 	 	 	 	 	 	1581497482	7.70	14.26
12/02/2020 08:51:23	120220	12022020	085123	187.66	12.772293	-57.139090	187.52	-0.690	-1.560	3.290	187.49	-2.90	3.80	 	 	 	 	 	 	 	 	 	 	 	 	 	 	 	 	 	 	1581497483	8.15	15.09
12/02/2020 08:51:24	120220	12022020	085124	186.94	12.772260	-57.139108	187.05	-1.200	-0.580	4.330	186.94	-1.90	4.80	 	 	 	 	 	 	 	 	 	 	 	 	 	 	 	 	 	 	1581497484	8.29	15.35
12/02/2020 08:51:25	120220	12022020	085125	186.88	12.772228	-57.139127	187.06	-1.280	0.600	4.340	186.91	-0.80	4.80	 	 	 	 	 	 	 	 	 	 	 	 	 	 	 	 	 	 	1581497485	7.83	14.50
12/02/2020 08:51:26	120220	12022020	085126	187.11	12.772197	-57.139140	187.27	-0.870	1.200	3.610	187.11	-0.20	4.00	 	 	 	 	 	 	 	 	 	 	 	 	 	 	 	 	 	 	1581497486	7.41	13.72
12/02/2020 08:51:27	120220	12022020	085127	187.31	12.772162	-57.139148	187.51	-0.110	1.110	2.440	187.36	-0.30	2.80	 	 	 	 	 	 	 	 	 	 	 	 	 	 	 	 	 	 	1581497487	7.65	14.17
12/02/2020 08:51:28	120220	12022020	085128	187.66	12.772125	-57.139152	187.89	0.590	0.820	1.150	187.74	-0.60	1.60	 	 	 	 	 	 	 	 	 	 	 	 	 	 	 	 	 	 	1581497488	8.10	15.00
12/02/2020 08:51:29	120220	12022020	085129	188.18	12.772087	-57.139152	188.43	0.920	0.600	0.110	188.29	-0.80	0.60	 	 	 	 	 	 	 	 	 	 	 	 	 	 	 	 	 	 	1581497489	7.98	14.78
12/02/2020 08:51:30	120220	12022020	085130	188.76	12.772052	-57.139150	188.97	0.860	0.140	-0.320	188.86	-1.30	0.20	 	 	 	 	 	 	 	 	 	 	 	 	 	 	 	 	 	 	1581497490	7.50	13.89
12/02/2020 08:51:31	120220	12022020	085131	189.12	12.772018	-57.139152	189.21	0.720	-0.820	-0.020	189.14	-2.30	0.50	 	 	 	 	 	 	 	 	 	 	 	 	 	 	 	 	 	 	1581497491	7.35	13.61
12/02/2020 08:51:32	120220	12022020	085132	188.92	12.771983	-57.139158	188.95	0.700	-1.960	0.880	188.92	-3.40	1.40	 	 	 	 	 	 	 	 	 	 	 	 	 	 	 	 	 	 	1581497492	7.78	14.41
12/02/2020 08:51:33	120220	12022020	085133	188.39	12.771945	-57.139168	188.25	0.610	-2.510	2.120	188.22	-3.90	2.60	 	 	 	 	 	 	 	 	 	 	 	 	 	 	 	 	 	 	1581497493	8.27	15.32
12/02/2020 08:51:34	120220	12022020	085134	187.46	12.771910	-57.139182	187.52	0.190	-1.920	3.200	187.46	-3.30	3.70	 	 	 	 	 	 	 	 	 	 	 	 	 	 	 	 	 	 	1581497494	8.14	15.08
12/02/2020 08:51:35	120220	12022020	085135	187.19	12.771877	-57.139193	187.30	-0.590	-0.510	3.620	187.18	-1.80	4.10	 	 	 	 	 	 	 	 	 	 	 	 	 	 	 	 	 	 	1581497495	7.48	13.85
12/02/2020 08:51:36	120220	12022020	085136	187.36	12.771847	-57.139205	187.51	-1.350	0.720	3.560	187.36	-0.60	4.00	 	 	 	 	 	 	 	 	 	 	 	 	 	 	 	 	 	 	1581497496	6.89	12.76
12/02/2020 08:51:37	120220	12022020	085137	187.63	12.771815	-57.139215	187.78	-1.620	1.030	3.310	187.63	-0.40	3.70	 	 	 	 	 	 	 	 	 	 	 	 	 	 	 	 	 	 	1581497497	7.18	13.30
12/02/2020 08:51:38	120220	12022020	085138	187.80	12.771780	-57.139228	187.95	-1.160	0.660	2.770	187.82	-0.80	3.20	 	 	 	 	 	 	 	 	 	 	 	 	 	 	 	 	 	 	1581497498	8.11	15.02
12/02/2020 08:51:39	120220	12022020	085139	187.89	12.771740	-57.139237	188.03	-0.180	0.300	2.000	187.92	-1.10	2.40	 	 	 	 	 	 	 	 	 	 	 	 	 	 	 	 	 	 	1581497499	8.64	16.00
12/02/2020 08:51:40	120220	12022020	085140	188.10	12.771702	-57.139243	188.29	0.790	0.390	0.920	188.18	-1.00	1.30	 	 	 	 	 	 	 	 	 	 	 	 	 	 	 	 	 	 	1581497500	8.38	15.52
12/02/2020 08:51:41	120220	12022020	085141	188.60	12.771667	-57.139243	188.83	1.290	0.670	-0.270	188.72	-0.70	0.10	 	 	 	 	 	 	 	 	 	 	 	 	 	 	 	 	 	 	1581497501	7.65	14.17
12/02/2020 08:51:42	120220	12022020	085142	189.25	12.771633	-57.139240	189.32	1.260	0.540	-0.900	189.25	-0.90	-0.40	 	 	 	 	 	 	 	 	 	 	 	 	 	 	 	 	 	 	1581497502	7.22	13.37
12/02/2020 08:51:43	120220	12022020	085143	189.37	12.771600	-57.139238	189.36	0.870	-0.370	-0.340	189.33	-1.80	0.20	 	 	 	 	 	 	 	 	 	 	 	 	 	 	 	 	 	 	1581497503	7.21	13.35
12/02/2020 08:51:44	120220	12022020	085144	188.73	12.771563	-57.139245	188.71	0.420	-1.760	1.280	188.73	-3.20	1.80	 	 	 	 	 	 	 	 	 	 	 	 	 	 	 	 	 	 	1581497504	7.76	14.37
12/02/2020 08:51:45	120220	12022020	085145	187.85	12.771527	-57.139262	187.63	0.010	-2.570	3.170	187.62	-4.00	3.70	 	 	 	 	 	 	 	 	 	 	 	 	 	 	 	 	 	 	1581497505	8.67	16.06
12/02/2020 08:51:46	120220	12022020	085146	186.86	12.771490	-57.139280	186.96	-0.390	-1.910	4.500	186.86	-3.20	5.00	 	 	 	 	 	 	 	 	 	 	 	 	 	 	 	 	 	 	1581497506	8.78	16.26
12/02/2020 08:51:47	120220	12022020	085147	186.71	12.771460	-57.139298	186.86	-0.700	-0.300	4.900	186.71	-1.60	5.30	 	 	 	 	 	 	 	 	 	 	 	 	 	 	 	 	 	 	1581497507	7.63	14.13
12/02/2020 08:51:48	120220	12022020	085148	186.71	12.771432	-57.139312	186.84	-0.690	0.680	4.510	186.71	-0.70	4.90	 	 	 	 	 	 	 	 	 	 	 	 	 	 	 	 	 	 	1581497508	6.61	12.24
12/02/2020 08:51:49	120220	12022020	085149	186.72	12.771398	-57.139318	186.89	-0.370	0.530	3.510	186.75	-0.90	3.90	 	 	 	 	 	 	 	 	 	 	 	 	 	 	 	 	 	 	1581497509	7.23	13.39
12/02/2020 08:51:50	120220	12022020	085150	186.99	12.771360	-57.139323	187.26	-0.080	0.170	2.270	187.10	-1.20	2.70	 	 	 	 	 	 	 	 	 	 	 	 	 	 	 	 	 	 	1581497510	8.39	15.54
12/02/2020 08:51:51	120220	12022020	085151	187.60	12.771322	-57.139325	187.88	0.030	0.300	0.990	187.74	-1.10	1.40	 	 	 	 	 	 	 	 	 	 	 	 	 	 	 	 	 	 	1581497511	8.35	15.46
12/02/2020 08:51:52	120220	12022020	085152	188.33	12.771287	-57.139327	188.43	0.070	0.600	0.010	188.33	-0.80	0.50	 	 	 	 	 	 	 	 	 	 	 	 	 	 	 	 	 	 	1581497512	7.46	13.82
12/02/2020 08:51:53	120220	12022020	085153	188.66	12.771255	-57.139328	188.78	0.250	0.440	-0.490	188.72	-1.00	-0.00	 	 	 	 	 	 	 	 	 	 	 	 	 	 	 	 	 	 	1581497513	7.02	13.00
12/02/2020 08:51:54	120220	12022020	085154	188.82	12.771220	-57.139330	188.85	0.530	-0.310	-0.360	188.82	-1.80	0.20	 	 	 	 	 	 	 	 	 	 	 	 	 	 	 	 	 	 	1581497514	7.36	13.63
12/02/2020 08:51:55	120220	12022020	085155	188.61	12.771183	-57.139335	188.52	0.680	-1.230	0.540	188.52	-2.70	1.10	 	 	 	 	 	 	 	 	 	 	 	 	 	 	 	 	 	 	1581497515	7.89	14.61
12/02/2020 08:51:56	120220	12022020	085156	187.88	12.771147	-57.139345	187.88	0.530	-1.660	1.830	187.88	-3.10	2.40	 	 	 	 	 	 	 	 	 	 	 	 	 	 	 	 	 	 	1581497516	8.19	15.17
12/02/2020 08:51:57	120220	12022020	085157	187.33	12.771112	-57.139358	187.25	0.130	-1.180	2.950	187.21	-2.60	3.40	 	 	 	 	 	 	 	 	 	 	 	 	 	 	 	 	 	 	1581497517	8.02	14.85
12/02/2020 08:51:58	120220	12022020	085158	186.76	12.771080	-57.139370	186.82	-0.320	-0.220	3.530	186.76	-1.60	4.00	 	 	 	 	 	 	 	 	 	 	 	 	 	 	 	 	 	 	1581497518	7.39	13.69
12/02/2020 08:51:59	120220	12022020	085159	186.57	12.771048	-57.139382	186.64	-0.620	0.480	3.570	186.55	-0.90	4.00	 	 	 	 	 	 	 	 	 	 	 	 	 	 	 	 	 	 	1581497519	7.08	13.11
12/02/2020 08:52:00	120220	12022020	085200	186.74	12.771015	-57.139392	186.86	-0.710	0.740	3.030	186.74	-0.70	3.40	 	 	 	 	 	 	 	 	 	 	 	 	 	 	 	 	 	 	1581497520	7.36	13.63
12/02/2020 08:52:01	120220	12022020	085201	187.13	12.770982	-57.139400	187.38	-0.580	0.660	2.110	187.25	-0.80	2.50	1014.90	26.10	26.20	20.50	20.60	-1.0	71.0	71.0	393.0	25.8	267.00	10.00	74.00	10.90	16	9775.0	27.5	27.4	1581497521	7.58	14.04
12/02/2020 08:52:02	120220	12022020	085202	187.87	12.770947	-57.139405	187.98	-0.210	0.210	1.090	187.87	-1.30	1.50	 	 	 	 	 	 	 	 	 	 	 	 	 	 	 	 	 	 	1581497522	7.66	14.19
12/02/2020 08:52:03	120220	12022020	085203	188.25	12.770910	-57.139410	188.37	0.350	-0.450	0.370	188.31	-1.90	0.80	 	 	 	 	 	 	 	 	 	 	 	 	 	 	 	 	 	 	1581497523	7.82	14.48
12/02/2020 08:52:04	120220	12022020	085204	188.43	12.770873	-57.139413	188.47	0.750	-0.790	0.110	188.44	-2.20	0.60	 	 	 	 	 	 	 	 	 	 	 	 	 	 	 	 	 	 	1581497524	7.94	14.70
12/02/2020 08:52:05	120220	12022020	085205	188.47	12.770838	-57.139417	188.51	0.660	-0.540	0.210	188.47	-1.90	0.70	 	 	 	 	 	 	 	 	 	 	 	 	 	 	 	 	 	 	1581497525	7.50	13.89
12/02/2020 08:52:06	120220	12022020	085206	188.46	12.770807	-57.139422	188.44	0.270	-0.180	0.570	188.43	-1.60	1.10	 	 	 	 	 	 	 	 	 	 	 	 	 	 	 	 	 	 	1581497526	6.81	12.61
12/02/2020 08:52:07	120220	12022020	085207	188.17	12.770777	-57.139428	188.06	0.050	-0.350	1.240	188.08	-1.80	1.70	 	 	 	 	 	 	 	 	 	 	 	 	 	 	 	 	 	 	1581497527	6.79	12.58
12/02/2020 08:52:08	120220	12022020	085208	187.42	12.770742	-57.139437	187.42	0.190	-1.020	2.170	187.42	-2.50	2.70	 	 	 	 	 	 	 	 	 	 	 	 	 	 	 	 	 	 	1581497528	7.62	14.11
12/02/2020 08:52:09	120220	12022020	085209	186.90	12.770705	-57.139448	186.83	0.340	-1.370	2.990	186.79	-2.80	3.50	 	 	 	 	 	 	 	 	 	 	 	 	 	 	 	 	 	 	1581497529	8.50	15.74
12/02/2020 08:52:10	120220	12022020	085210	186.52	12.770667	-57.139458	186.62	0.100	-0.800	3.290	186.52	-2.20	3.70	 	 	 	 	 	 	 	 	 	 	 	 	 	 	 	 	 	 	1581497530	8.42	15.59
12/02/2020 08:52:11	120220	12022020	085211	186.73	12.770633	-57.139467	187.01	-0.560	0.430	3.130	186.85	-1.00	3.60	 	 	 	 	 	 	 	 	 	 	 	 	 	 	 	 	 	 	1581497531	7.48	13.85
12/02/2020 08:52:12	120220	12022020	085212	187.65	12.770603	-57.139475	187.83	-1.210	1.400	2.570	187.65	-0.00	3.00	 	 	 	 	 	 	 	 	 	 	 	 	 	 	 	 	 	 	1581497532	6.67	12.35
12/02/2020 08:52:13	120220	12022020	085213	188.36	12.770573	-57.139485	188.67	-1.310	1.400	1.740	188.52	-0.10	2.20	 	 	 	 	 	 	 	 	 	 	 	 	 	 	 	 	 	 	1581497533	6.66	12.33
12/02/2020 08:52:14	120220	12022020	085214	189.08	12.770540	-57.139492	189.19	-0.780	0.390	1.120	189.08	-1.10	1.60	 	 	 	 	 	 	 	 	 	 	 	 	 	 	 	 	 	 	1581497534	7.38	13.67
12/02/2020 08:52:15	120220	12022020	085215	189.17	12.770502	-57.139500	189.20	0.080	-0.940	0.930	189.15	-2.40	1.40	 	 	 	 	 	 	 	 	 	 	 	 	 	 	 	 	 	 	1581497535	8.22	15.22
12/02/2020 08:52:16	120220	12022020	085216	188.83	12.770463	-57.139508	188.73	0.840	-1.670	0.980	188.72	-3.10	1.40	 	 	 	 	 	 	 	 	 	 	 	 	 	 	 	 	 	 	1581497536	8.47	15.69
12/02/2020 08:52:17	120220	12022020	085217	188.20	12.770427	-57.139515	188.08	1.210	-1.250	1.080	188.07	-2.60	1.60	 	 	 	 	 	 	 	 	 	 	 	 	 	 	 	 	 	 	1581497537	7.92	14.67
12/02/2020 08:52:18	120220	12022020	085218	187.61	12.770395	-57.139518	187.57	1.110	-0.210	1.120	187.54	-1.60	1.60	 	 	 	 	 	 	 	 	 	 	 	 	 	 	 	 	 	 	1581497538	6.93	12.83
12/02/2020 08:52:19	120220	12022020	085219	187.36	12.770365	-57.139520	187.42	0.630	0.490	1.120	187.36	-0.90	1.60	 	 	 	 	 	 	 	 	 	 	 	 	 	 	 	 	 	 	1581497539	6.53	12.09
12/02/2020 08:52:20	120220	12022020	085220	187.44	12.770333	-57.139523	187.59	0.010	0.510	1.310	187.49	-0.90	1.80	 	 	 	 	 	 	 	 	 	 	 	 	 	 	 	 	 	 	1581497540	6.96	12.89
12/02/2020 08:52:21	120220	12022020	085221	187.75	12.770298	-57.139532	187.93	-0.450	0.160	1.740	187.82	-1.30	2.20	 	 	 	 	 	 	 	 	 	 	 	 	 	 	 	 	 	 	1581497541	7.64	14.15
12/02/2020 08:52:22	120220	12022020	085222	188.22	12.770263	-57.139543	188.33	-0.550	-0.230	2.140	188.22	-1.70	2.60	 	 	 	 	 	 	 	 	 	 	 	 	 	 	 	 	 	 	1581497542	7.99	14.80
12/02/2020 08:52:23	120220	12022020	085223	188.42	12.770228	-57.139557	188.54	-0.420	-0.600	2.440	188.44	-2.00	2.90	 	 	 	 	 	 	 	 	 	 	 	 	 	 	 	 	 	 	1581497543	7.89	14.61
12/02/2020 08:52:24	120220	12022020	085224	188.28	12.770195	-57.139568	188.36	-0.410	-0.850	2.910	188.28	-2.30	3.40	 	 	 	 	 	 	 	 	 	 	 	 	 	 	 	 	 	 	1581497544	7.75	14.35
12/02/2020 08:52:25	120220	12022020	085225	187.91	12.770160	-57.139580	187.85	-0.580	-0.910	3.420	187.80	-2.30	3.90	 	 	 	 	 	 	 	 	 	 	 	 	 	 	 	 	 	 	1581497545	7.72	14.30
12/02/2020 08:52:26	120220	12022020	085226	187.34	12.770127	-57.139593	187.30	-0.610	-0.790	3.600	187.24	-2.20	4.00	 	 	 	 	 	 	 	 	 	 	 	 	 	 	 	 	 	 	1581497546	7.78	14.41
12/02/2020 08:52:27	120220	12022020	085227	186.91	12.770093	-57.139607	186.96	-0.210	-0.420	3.170	186.86	-1.80	3.60	 	 	 	 	 	 	 	 	 	 	 	 	 	 	 	 	 	 	1581497547	7.83	14.50
12/02/2020 08:52:28	120220	12022020	085228	186.90	12.770058	-57.139615	187.09	0.520	0.340	1.870	186.96	-1.00	2.20	 	 	 	 	 	 	 	 	 	 	 	 	 	 	 	 	 	 	1581497548	7.55	13.98
12/02/2020 08:52:29	120220	12022020	085229	187.33	12.770025	-57.139613	187.53	1.040	0.940	0.340	187.43	-0.50	0.70	 	 	 	 	 	 	 	 	 	 	 	 	 	 	 	 	 	 	1581497549	7.04	13.04
12/02/2020 08:52:30	120220	12022020	085230	187.74	12.769993	-57.139607	187.83	1.020	0.550	-0.480	187.77	-0.90	-0.00	 	 	 	 	 	 	 	 	 	 	 	 	 	 	 	 	 	 	1581497550	7.26	13.45
12/02/2020 08:52:31	120220	12022020	085231	187.76	12.769955	-57.139603	187.75	0.560	-0.600	-0.040	187.72	-2.10	0.50	 	 	 	 	 	 	 	 	 	 	 	 	 	 	 	 	 	 	1581497551	7.94	14.70
12/02/2020 08:52:32	120220	12022020	085232	187.46	12.769917	-57.139610	187.53	-0.130	-1.370	1.360	187.46	-2.80	1.90	 	 	 	 	 	 	 	 	 	 	 	 	 	 	 	 	 	 	1581497552	8.47	15.69
12/02/2020 08:52:33	120220	12022020	085233	187.25	12.769882	-57.139625	187.28	-0.800	-1.090	3.070	187.19	-2.50	3.60	 	 	 	 	 	 	 	 	 	 	 	 	 	 	 	 	 	 	1581497553	8.33	15.43
12/02/2020 08:52:34	120220	12022020	085234	186.79	12.769850	-57.139645	186.88	-1.090	-0.330	4.440	186.79	-1.70	4.90	 	 	 	 	 	 	 	 	 	 	 	 	 	 	 	 	 	 	1581497554	7.79	14.43
12/02/2020 08:52:35	120220	12022020	085235	186.44	12.769822	-57.139665	186.51	-0.820	0.210	4.850	186.38	-1.20	5.30	 	 	 	 	 	 	 	 	 	 	 	 	 	 	 	 	 	 	1581497555	7.58	14.04
12/02/2020 08:52:36	120220	12022020	085236	186.30	12.769790	-57.139680	186.49	-0.190	0.450	4.050	186.32	-1.00	4.40	 	 	 	 	 	 	 	 	 	 	 	 	 	 	 	 	 	 	1581497556	7.48	13.85
12/02/2020 08:52:37	120220	12022020	085237	186.53	12.769757	-57.139687	186.77	0.480	0.410	2.360	186.60	-1.00	2.70	 	 	 	 	 	 	 	 	 	 	 	 	 	 	 	 	 	 	1581497557	7.30	13.52
12/02/2020 08:52:38	120220	12022020	085238	186.94	12.769722	-57.139685	187.17	0.860	0.040	0.550	187.04	-1.40	0.90	 	 	 	 	 	 	 	 	 	 	 	 	 	 	 	 	 	 	1581497558	7.46	13.82
12/02/2020 08:52:39	120220	12022020	085239	187.39	12.769687	-57.139678	187.54	0.770	-0.590	-0.520	187.46	-2.10	-0.10	 	 	 	 	 	 	 	 	 	 	 	 	 	 	 	 	 	 	1581497559	7.79	14.43
12/02/2020 08:52:40	120220	12022020	085240	187.49	12.769650	-57.139677	187.51	0.450	-1.250	-0.380	187.49	-2.70	0.10	 	 	 	 	 	 	 	 	 	 	 	 	 	 	 	 	 	 	1581497560	7.74	14.33
12/02/2020 08:52:41	120220	12022020	085241	187.18	12.769615	-57.139683	187.11	0.190	-1.540	0.550	187.08	-3.00	1.10	 	 	 	 	 	 	 	 	 	 	 	 	 	 	 	 	 	 	1581497561	7.76	14.37
12/02/2020 08:52:42	120220	12022020	085242	186.86	12.769580	-57.139693	186.93	-0.050	-0.930	1.460	186.84	-2.30	1.90	 	 	 	 	 	 	 	 	 	 	 	 	 	 	 	 	 	 	1581497562	7.79	14.43
12/02/2020 08:52:43	120220	12022020	085243	186.91	12.769548	-57.139705	187.04	-0.400	0.140	2.150	186.94	-1.20	2.60	 	 	 	 	 	 	 	 	 	 	 	 	 	 	 	 	 	 	1581497563	7.12	13.19
12/02/2020 08:52:44	120220	12022020	085244	187.03	12.769520	-57.139717	187.16	-0.690	0.610	2.560	187.05	-0.80	3.00	 	 	 	 	 	 	 	 	 	 	 	 	 	 	 	 	 	 	1581497564	6.75	12.50
12/02/2020 08:52:45	120220	12022020	085245	187.10	12.769487	-57.139727	187.23	-0.690	0.320	2.690	187.11	-1.10	3.10	 	 	 	 	 	 	 	 	 	 	 	 	 	 	 	 	 	 	1581497565	7.42	13.74
12/02/2020 08:52:46	120220	12022020	085246	187.21	12.769450	-57.139737	187.38	-0.360	-0.050	2.530	187.25	-1.50	2.90	 	 	 	 	 	 	 	 	 	 	 	 	 	 	 	 	 	 	1581497566	8.12	15.04
12/02/2020 08:52:47	120220	12022020	085247	187.42	12.769413	-57.139745	187.57	0.060	-0.090	2.020	187.46	-1.50	2.40	 	 	 	 	 	 	 	 	 	 	 	 	 	 	 	 	 	 	1581497567	7.97	14.76
12/02/2020 08:52:48	120220	12022020	085248	187.48	12.769380	-57.139748	187.52	0.260	-0.060	1.590	187.45	-1.50	2.00	 	 	 	 	 	 	 	 	 	 	 	 	 	 	 	 	 	 	1581497568	7.43	13.76
12/02/2020 08:52:49	120220	12022020	085249	187.22	12.769347	-57.139752	187.24	0.200	-0.130	1.580	187.17	-1.60	2.00	 	 	 	 	 	 	 	 	 	 	 	 	 	 	 	 	 	 	1581497569	7.27	13.46
12/02/2020 08:52:50	120220	12022020	085250	187.11	12.769312	-57.139758	187.23	-0.050	-0.010	1.600	187.14	-1.40	2.00	 	 	 	 	 	 	 	 	 	 	 	 	 	 	 	 	 	 	1581497570	7.35	13.61
12/02/2020 08:52:51	120220	12022020	085251	187.32	12.769280	-57.139767	187.46	-0.160	0.230	1.450	187.37	-1.20	1.90	 	 	 	 	 	 	 	 	 	 	 	 	 	 	 	 	 	 	1581497571	7.05	13.06
12/02/2020 08:52:52	120220	12022020	085252	187.48	12.769250	-57.139775	187.54	0.200	-0.030	1.190	187.48	-1.50	1.60	 	 	 	 	 	 	 	 	 	 	 	 	 	 	 	 	 	 	1581497572	6.82	12.63
12/02/2020 08:52:53	120220	12022020	085253	187.40	12.769217	-57.139782	187.41	0.890	-0.790	0.980	187.37	-2.30	1.40	 	 	 	 	 	 	 	 	 	 	 	 	 	 	 	 	 	 	1581497573	7.36	13.63
12/02/2020 08:52:54	120220	12022020	085254	187.24	12.769180	-57.139785	187.26	1.220	-1.270	0.980	187.21	-2.70	1.40	 	 	 	 	 	 	 	 	 	 	 	 	 	 	 	 	 	 	1581497574	8.01	14.83
12/02/2020 08:52:55	120220	12022020	085255	187.13	12.769143	-57.139788	187.18	0.700	-1.050	1.430	187.11	-2.50	1.90	 	 	 	 	 	 	 	 	 	 	 	 	 	 	 	 	 	 	1581497575	7.83	14.50
12/02/2020 08:52:56	120220	12022020	085256	187.10	12.769110	-57.139795	187.22	-0.370	-0.460	2.240	187.12	-1.90	2.70	 	 	 	 	 	 	 	 	 	 	 	 	 	 	 	 	 	 	1581497576	7.16	13.26
12/02/2020 08:52:57	120220	12022020	085257	187.19	12.769080	-57.139807	187.31	-1.260	0.010	2.940	187.20	-1.40	3.40	 	 	 	 	 	 	 	 	 	 	 	 	 	 	 	 	 	 	1581497577	7.05	13.06
12/02/2020 08:52:58	120220	12022020	085258	187.17	12.769048	-57.139822	187.22	-1.370	0.030	3.360	187.14	-1.40	3.80	 	 	 	 	 	 	 	 	 	 	 	 	 	 	 	 	 	 	1581497578	7.45	13.80
12/02/2020 08:52:59	120220	12022020	085259	187.00	12.769013	-57.139835	187.08	-0.760	-0.220	3.260	186.98	-1.70	3.70	 	 	 	 	 	 	 	 	 	 	 	 	 	 	 	 	 	 	1581497579	8.00	14.82
12/02/2020 08:53:00	120220	12022020	085300	186.98	12.768977	-57.139847	187.12	-0.020	-0.190	2.590	187.01	-1.60	3.00	 	 	 	 	 	 	 	 	 	 	 	 	 	 	 	 	 	 	1581497580	8.19	15.17
12/02/2020 08:53:01	120220	12022020	085301	187.16	12.768942	-57.139852	187.29	0.370	0.260	1.640	187.20	-1.20	2.10	1014.90	26.20	26.20	20.50	20.60	-1.0	71.0	71.0	394.0	25.8	272.00	9.90	78.00	10.50	16	9384.0	27.5	27.4	1581497581	7.67	14.20
12/02/2020 08:53:02	120220	12022020	085302	187.22	12.768908	-57.139852	187.26	0.400	0.470	0.960	187.22	-1.00	1.40	 	 	 	 	 	 	 	 	 	 	 	 	 	 	 	 	 	 	1581497582	7.06	13.08
12/02/2020 08:53:03	120220	12022020	085303	187.01	12.768875	-57.139852	186.94	0.360	0.090	0.900	186.93	-1.40	1.40	 	 	 	 	 	 	 	 	 	 	 	 	 	 	 	 	 	 	1581497583	7.21	13.35
12/02/2020 08:53:04	120220	12022020	085304	186.66	12.768838	-57.139857	186.66	0.350	-0.410	1.160	186.62	-1.90	1.60	 	 	 	 	 	 	 	 	 	 	 	 	 	 	 	 	 	 	1581497584	7.78	14.41
12/02/2020 08:53:05	120220	12022020	085305	186.64	12.768803	-57.139863	186.77	0.260	-0.500	1.530	186.69	-1.90	2.00	 	 	 	 	 	 	 	 	 	 	 	 	 	 	 	 	 	 	1581497585	7.88	14.59
12/02/2020 08:53:06	120220	12022020	085306	187.05	12.768770	-57.139872	187.15	0.040	-0.180	1.850	187.05	-1.60	2.30	 	 	 	 	 	 	 	 	 	 	 	 	 	 	 	 	 	 	1581497586	7.37	13.65
12/02/2020 08:53:07	120220	12022020	085307	187.30	12.768740	-57.139882	187.40	-0.160	-0.010	2.080	187.33	-1.50	2.50	 	 	 	 	 	 	 	 	 	 	 	 	 	 	 	 	 	 	1581497587	6.85	12.69
12/02/2020 08:53:08	120220	12022020	085308	187.33	12.768708	-57.139892	187.34	-0.140	-0.290	2.450	187.30	-1.80	2.90	 	 	 	 	 	 	 	 	 	 	 	 	 	 	 	 	 	 	1581497588	7.01	12.98
12/02/2020 08:53:09	120220	12022020	085309	187.10	12.768675	-57.139902	187.11	0.110	-0.730	2.790	187.06	-2.20	3.20	 	 	 	 	 	 	 	 	 	 	 	 	 	 	 	 	 	 	1581497589	7.61	14.09
12/02/2020 08:53:10	120220	12022020	085310	186.99	12.768638	-57.139912	187.07	0.340	-0.770	2.640	186.99	-2.20	3.10	 	 	 	 	 	 	 	 	 	 	 	 	 	 	 	 	 	 	1581497590	7.88	14.59
12/02/2020 08:53:11	120220	12022020	085311	187.03	12.768605	-57.139918	187.10	0.350	-0.480	2.250	187.04	-1.90	2.70	 	 	 	 	 	 	 	 	 	 	 	 	 	 	 	 	 	 	1581497591	7.44	13.78
12/02/2020 08:53:12	120220	12022020	085312	186.98	12.768572	-57.139922	187.02	0.130	-0.390	1.930	186.98	-1.80	2.40	 	 	 	 	 	 	 	 	 	 	 	 	 	 	 	 	 	 	1581497592	7.18	13.30
12/02/2020 08:53:13	120220	12022020	085313	186.83	12.768537	-57.139925	186.80	-0.200	-0.550	1.870	186.77	-2.00	2.30	 	 	 	 	 	 	 	 	 	 	 	 	 	 	 	 	 	 	1581497593	7.51	13.91
12/02/2020 08:53:14	120220	12022020	085314	186.39	12.768502	-57.139930	186.40	-0.470	-0.610	2.170	186.39	-2.00	2.60	 	 	 	 	 	 	 	 	 	 	 	 	 	 	 	 	 	 	1581497594	7.89	14.61
12/02/2020 08:53:15	120220	12022020	085315	186.13	12.768465	-57.139940	186.14	-0.610	-0.240	2.450	186.09	-1.60	2.90	 	 	 	 	 	 	 	 	 	 	 	 	 	 	 	 	 	 	1581497595	7.94	14.70
12/02/2020 08:53:16	120220	12022020	085316	186.18	12.768432	-57.139950	186.26	-0.650	0.470	2.340	186.18	-0.90	2.80	 	 	 	 	 	 	 	 	 	 	 	 	 	 	 	 	 	 	1581497596	7.56	14.00
12/02/2020 08:53:17	120220	12022020	085317	186.44	12.768400	-57.139958	186.57	-0.550	0.950	2.050	186.50	-0.50	2.50	 	 	 	 	 	 	 	 	 	 	 	 	 	 	 	 	 	 	1581497597	7.05	13.06
12/02/2020 08:53:18	120220	12022020	085318	186.64	12.768368	-57.139965	186.70	-0.170	0.650	1.900	186.65	-0.80	2.30	 	 	 	 	 	 	 	 	 	 	 	 	 	 	 	 	 	 	1581497598	7.06	13.08
12/02/2020 08:53:19	120220	12022020	085319	186.65	12.768332	-57.139973	186.69	0.470	-0.040	1.710	186.65	-1.50	2.10	 	 	 	 	 	 	 	 	 	 	 	 	 	 	 	 	 	 	1581497599	7.75	14.35
12/02/2020 08:53:20	120220	12022020	085320	186.73	12.768295	-57.139978	186.83	1.000	-0.360	1.240	186.77	-1.80	1.70	 	 	 	 	 	 	 	 	 	 	 	 	 	 	 	 	 	 	1581497600	8.01	14.83
12/02/2020 08:53:21	120220	12022020	085321	186.98	12.768262	-57.139980	187.06	1.080	-0.430	0.920	187.02	-1.90	1.40	 	 	 	 	 	 	 	 	 	 	 	 	 	 	 	 	 	 	1581497601	7.45	13.80
12/02/2020 08:53:22	120220	12022020	085322	187.04	12.768228	-57.139982	187.05	0.760	-0.650	1.170	187.04	-2.10	1.70	 	 	 	 	 	 	 	 	 	 	 	 	 	 	 	 	 	 	1581497602	7.06	13.08
12/02/2020 08:53:23	120220	12022020	085323	186.80	12.768195	-57.139987	186.71	0.260	-1.060	1.930	186.70	-2.50	2.40	 	 	 	 	 	 	 	 	 	 	 	 	 	 	 	 	 	 	1581497603	7.23	13.39
12/02/2020 08:53:24	120220	12022020	085324	186.25	12.768160	-57.139995	186.14	-0.270	-1.390	2.920	186.13	-2.80	3.40	 	 	 	 	 	 	 	 	 	 	 	 	 	 	 	 	 	 	1581497604	7.69	14.24
12/02/2020 08:53:25	120220	12022020	085325	185.66	12.768125	-57.140007	185.60	-0.760	-1.280	3.790	185.57	-2.70	4.30	 	 	 	 	 	 	 	 	 	 	 	 	 	 	 	 	 	 	1581497605	8.09	14.98
12/02/2020 08:53:26	120220	12022020	085326	185.35	12.768090	-57.140022	185.45	-1.110	-0.580	4.120	185.35	-2.00	4.50	 	 	 	 	 	 	 	 	 	 	 	 	 	 	 	 	 	 	1581497606	8.09	14.98
12/02/2020 08:53:27	120220	12022020	085327	185.57	12.768057	-57.140035	185.81	-1.210	0.450	3.610	185.67	-0.90	4.00	 	 	 	 	 	 	 	 	 	 	 	 	 	 	 	 	 	 	1581497607	7.55	13.98
12/02/2020 08:53:28	120220	12022020	085328	186.14	12.768025	-57.140043	186.37	-0.960	1.080	2.580	186.25	-0.40	3.00	 	 	 	 	 	 	 	 	 	 	 	 	 	 	 	 	 	 	1581497608	6.99	12.95
12/02/2020 08:53:29	120220	12022020	085329	186.54	12.767993	-57.140050	186.64	-0.260	0.840	1.500	186.58	-0.60	1.90	 	 	 	 	 	 	 	 	 	 	 	 	 	 	 	 	 	 	1581497609	7.17	13.28
12/02/2020 08:53:30	120220	12022020	085330	186.73	12.767957	-57.140053	186.78	0.690	0.210	0.400	186.73	-1.30	0.80	 	 	 	 	 	 	 	 	 	 	 	 	 	 	 	 	 	 	1581497610	7.94	14.70
12/02/2020 08:53:31	120220	12022020	085331	186.94	12.767918	-57.140052	187.04	1.340	-0.090	-0.470	187.00	-1.50	-0.00	 	 	 	 	 	 	 	 	 	 	 	 	 	 	 	 	 	 	1581497611	8.25	15.28
12/02/2020 08:53:32	120220	12022020	085332	187.15	12.767882	-57.140047	187.16	1.250	-0.220	-0.460	187.15	-1.70	0.00	 	 	 	 	 	 	 	 	 	 	 	 	 	 	 	 	 	 	1581497612	7.73	14.32
12/02/2020 08:53:33	120220	12022020	085333	187.00	12.767848	-57.140047	186.87	0.540	-0.630	0.560	186.91	-2.10	1.10	 	 	 	 	 	 	 	 	 	 	 	 	 	 	 	 	 	 	1581497613	7.22	13.37
12/02/2020 08:53:34	120220	12022020	085334	186.31	12.767815	-57.140057	186.08	-0.210	-1.270	2.340	186.13	-2.70	2.90	 	 	 	 	 	 	 	 	 	 	 	 	 	 	 	 	 	 	1581497614	7.58	14.04
12/02/2020 08:53:35	120220	12022020	085335	185.46	12.767778	-57.140073	185.42	-0.650	-1.280	3.880	185.36	-2.70	4.40	 	 	 	 	 	 	 	 	 	 	 	 	 	 	 	 	 	 	1581497615	8.46	15.67
12/02/2020 08:53:36	120220	12022020	085336	185.29	12.767745	-57.140090	185.46	-0.880	-0.480	4.520	185.34	-1.90	5.00	 	 	 	 	 	 	 	 	 	 	 	 	 	 	 	 	 	 	1581497616	8.16	15.11
12/02/2020 08:53:37	120220	12022020	085337	185.66	12.767715	-57.140107	185.90	-0.900	0.300	4.270	185.76	-1.10	4.70	 	 	 	 	 	 	 	 	 	 	 	 	 	 	 	 	 	 	1581497617	7.27	13.46
12/02/2020 08:53:38	120220	12022020	085338	186.10	12.767685	-57.140118	186.28	-0.520	0.400	3.280	186.17	-1.00	3.70	 	 	 	 	 	 	 	 	 	 	 	 	 	 	 	 	 	 	1581497618	7.03	13.02
12/02/2020 08:53:39	120220	12022020	085339	186.37	12.767650	-57.140125	186.48	0.210	0.050	2.090	186.40	-1.40	2.50	 	 	 	 	 	 	 	 	 	 	 	 	 	 	 	 	 	 	1581497619	7.45	13.80
12/02/2020 08:53:40	120220	12022020	085340	186.51	12.767613	-57.140127	186.58	0.830	-0.190	0.940	186.53	-1.60	1.40	 	 	 	 	 	 	 	 	 	 	 	 	 	 	 	 	 	 	1581497620	7.89	14.61
12/02/2020 08:53:41	120220	12022020	085341	186.59	12.767578	-57.140125	186.61	0.920	-0.190	0.150	186.59	-1.60	0.60	 	 	 	 	 	 	 	 	 	 	 	 	 	 	 	 	 	 	1581497621	7.75	14.35
12/02/2020 08:53:42	120220	12022020	085342	186.59	12.767543	-57.140123	186.62	0.530	-0.210	0.080	186.59	-1.70	0.60	 	 	 	 	 	 	 	 	 	 	 	 	 	 	 	 	 	 	1581497622	7.39	13.69
12/02/2020 08:53:43	120220	12022020	085343	186.74	12.767510	-57.140127	186.83	-0.010	-0.270	0.440	186.79	-1.70	0.90	 	 	 	 	 	 	 	 	 	 	 	 	 	 	 	 	 	 	1581497623	7.31	13.54
12/02/2020 08:53:44	120220	12022020	085344	186.94	12.767477	-57.140133	186.99	-0.310	-0.460	1.220	186.96	-1.90	1.70	 	 	 	 	 	 	 	 	 	 	 	 	 	 	 	 	 	 	1581497624	7.35	13.61
12/02/2020 08:53:45	120220	12022020	085345	186.89	12.767442	-57.140143	186.88	-0.290	-0.890	2.160	186.85	-2.30	2.60	 	 	 	 	 	 	 	 	 	 	 	 	 	 	 	 	 	 	1581497625	7.67	14.20
12/02/2020 08:53:46	120220	12022020	085346	186.61	12.767407	-57.140155	186.59	-0.200	-1.170	2.940	186.55	-2.60	3.40	 	 	 	 	 	 	 	 	 	 	 	 	 	 	 	 	 	 	1581497626	8.11	15.02
12/02/2020 08:53:47	120220	12022020	085347	186.21	12.767370	-57.140167	186.16	-0.340	-0.940	3.550	186.13	-2.30	4.00	 	 	 	 	 	 	 	 	 	 	 	 	 	 	 	 	 	 	1581497627	8.11	15.02
12/02/2020 08:53:48	120220	12022020	085348	185.56	12.767337	-57.140178	185.61	-0.610	-0.320	3.900	185.56	-1.70	4.30	 	 	 	 	 	 	 	 	 	 	 	 	 	 	 	 	 	 	1581497628	7.77	14.39
12/02/2020 08:53:49	120220	12022020	085349	185.20	12.767303	-57.140190	185.21	-0.730	0.440	3.800	185.14	-1.00	4.20	 	 	 	 	 	 	 	 	 	 	 	 	 	 	 	 	 	 	1581497629	7.49	13.87
12/02/2020 08:53:50	120220	12022020	085350	185.10	12.767270	-57.140200	185.20	-0.490	1.030	3.220	185.10	-0.40	3.60	 	 	 	 	 	 	 	 	 	 	 	 	 	 	 	 	 	 	1581497630	7.29	13.50
12/02/2020 08:53:51	120220	12022020	085351	185.33	12.767238	-57.140207	185.54	0.080	1.090	2.190	185.42	-0.40	2.60	 	 	 	 	 	 	 	 	 	 	 	 	 	 	 	 	 	 	1581497631	7.19	13.32
12/02/2020 08:53:52	120220	12022020	085352	185.88	12.767203	-57.140210	186.12	0.720	0.620	0.850	186.01	-0.90	1.20	 	 	 	 	 	 	 	 	 	 	 	 	 	 	 	 	 	 	1581497632	7.47	13.83
12/02/2020 08:53:53	120220	12022020	085353	186.48	12.767167	-57.140208	186.66	1.150	-0.070	-0.100	186.58	-1.60	0.30	 	 	 	 	 	 	 	 	 	 	 	 	 	 	 	 	 	 	1581497633	7.79	14.43
12/02/2020 08:53:54	120220	12022020	085354	186.85	12.767132	-57.140207	186.94	1.190	-0.680	-0.250	186.89	-2.10	0.20	 	 	 	 	 	 	 	 	 	 	 	 	 	 	 	 	 	 	1581497634	7.74	14.33
12/02/2020 08:53:55	120220	12022020	085355	187.02	12.767097	-57.140208	187.08	0.770	-1.020	0.330	187.04	-2.50	0.80	 	 	 	 	 	 	 	 	 	 	 	 	 	 	 	 	 	 	1581497635	7.41	13.72
12/02/2020 08:53:56	120220	12022020	085356	186.97	12.767065	-57.140213	186.92	0.100	-1.210	1.610	186.91	-2.70	2.10	 	 	 	 	 	 	 	 	 	 	 	 	 	 	 	 	 	 	1581497636	7.06	13.08
12/02/2020 08:53:57	120220	12022020	085357	186.40	12.767033	-57.140227	186.21	-0.420	-1.470	3.250	186.22	-2.90	3.80	 	 	 	 	 	 	 	 	 	 	 	 	 	 	 	 	 	 	1581497637	7.24	13.41
12/02/2020 08:53:58	120220	12022020	085358	185.46	12.766998	-57.140242	185.33	-0.600	-1.640	4.550	185.30	-3.10	5.00	 	 	 	 	 	 	 	 	 	 	 	 	 	 	 	 	 	 	1581497638	7.98	14.78
12/02/2020 08:53:59	120220	12022020	085359	184.75	12.766963	-57.140258	184.80	-0.560	-1.260	4.990	184.68	-2.60	5.40	 	 	 	 	 	 	 	 	 	 	 	 	 	 	 	 	 	 	1581497639	8.40	15.56
12/02/2020 08:54:00	120220	12022020	085400	184.65	12.766928	-57.140270	184.87	-0.500	-0.250	4.410	184.70	-1.60	4.80	 	 	 	 	 	 	 	 	 	 	 	 	 	 	 	 	 	 	1581497640	8.02	14.85
12/02/2020 08:54:01	120220	12022020	085401	185.05	12.766895	-57.140277	185.32	-0.490	0.850	3.270	185.15	-0.60	3.70	1014.90	26.20	26.20	20.50	20.60	-1.0	71.0	71.0	393.0	25.8	267.00	11.00	74.00	11.90	16	9607.0	27.5	27.4	1581497641	7.25	13.43
12/02/2020 08:54:02	120220	12022020	085402	185.58	12.766863	-57.140280	185.81	-0.430	1.420	2.070	185.67	-0.00	2.50	 	 	 	 	 	 	 	 	 	 	 	 	 	 	 	 	 	 	1581497642	7.00	12.96
12/02/2020 08:54:03	120220	12022020	085403	185.98	12.766828	-57.140280	186.16	-0.170	1.300	1.060	186.05	-0.20	1.50	 	 	 	 	 	 	 	 	 	 	 	 	 	 	 	 	 	 	1581497643	7.29	13.50
12/02/2020 08:54:04	120220	12022020	085404	186.43	12.766793	-57.140282	186.54	0.170	0.890	0.330	186.43	-0.60	0.80	 	 	 	 	 	 	 	 	 	 	 	 	 	 	 	 	 	 	1581497644	7.70	14.26
12/02/2020 08:54:05	120220	12022020	085405	186.74	12.766758	-57.140282	186.89	0.380	0.370	0.050	186.80	-1.10	0.50	 	 	 	 	 	 	 	 	 	 	 	 	 	 	 	 	 	 	1581497645	7.57	14.02
12/02/2020 08:54:06	120220	12022020	085406	186.90	12.766723	-57.140285	186.93	0.430	-0.440	0.310	186.88	-1.90	0.80	 	 	 	 	 	 	 	 	 	 	 	 	 	 	 	 	 	 	1581497646	7.27	13.46
12/02/2020 08:54:07	120220	12022020	085407	186.66	12.766690	-57.140292	186.61	0.450	-1.370	1.090	186.58	-2.90	1.60	 	 	 	 	 	 	 	 	 	 	 	 	 	 	 	 	 	 	1581497647	7.42	13.74
12/02/2020 08:54:08	120220	12022020	085408	186.18	12.766655	-57.140300	186.07	0.510	-2.000	2.090	186.05	-3.50	2.60	 	 	 	 	 	 	 	 	 	 	 	 	 	 	 	 	 	 	1581497648	7.69	14.24
12/02/2020 08:54:09	120220	12022020	085409	185.38	12.766622	-57.140312	185.15	0.590	-2.200	3.240	185.16	-3.60	3.70	 	 	 	 	 	 	 	 	 	 	 	 	 	 	 	 	 	 	1581497649	7.71	14.28
12/02/2020 08:54:10	120220	12022020	085410	184.17	12.766587	-57.140323	183.98	0.550	-1.780	4.360	183.96	-3.20	4.80	 	 	 	 	 	 	 	 	 	 	 	 	 	 	 	 	 	 	1581497650	7.84	14.52
12/02/2020 08:54:11	120220	12022020	085411	183.53	12.766552	-57.140333	183.72	-0.020	-0.220	4.730	183.56	-1.60	5.20	 	 	 	 	 	 	 	 	 	 	 	 	 	 	 	 	 	 	1581497651	7.86	14.56
12/02/2020 08:54:12	120220	12022020	085412	184.13	12.766522	-57.140343	184.63	-0.950	1.820	4.390	184.35	0.40	4.80	 	 	 	 	 	 	 	 	 	 	 	 	 	 	 	 	 	 	1581497652	6.74	12.48
12/02/2020 08:54:13	120220	12022020	085413	185.53	12.766495	-57.140352	186.08	-1.590	2.820	3.400	185.83	1.40	3.80	 	 	 	 	 	 	 	 	 	 	 	 	 	 	 	 	 	 	1581497653	5.88	10.89
12/02/2020 08:54:14	120220	12022020	085414	186.86	12.766467	-57.140358	187.25	-1.230	1.830	1.970	187.07	0.30	2.40	 	 	 	 	 	 	 	 	 	 	 	 	 	 	 	 	 	 	1581497654	6.36	11.78
12/02/2020 08:54:15	120220	12022020	085415	187.59	12.766430	-57.140362	187.77	0.030	-0.420	0.860	187.65	-2.00	1.30	 	 	 	 	 	 	 	 	 	 	 	 	 	 	 	 	 	 	1581497655	8.07	14.95
12/02/2020 08:54:16	120220	12022020	085416	187.66	12.766387	-57.140365	187.65	1.290	-2.320	0.460	187.60	-3.80	0.90	 	 	 	 	 	 	 	 	 	 	 	 	 	 	 	 	 	 	1581497656	9.26	17.15
12/02/2020 08:54:17	120220	12022020	085417	187.18	12.766345	-57.140365	187.04	1.650	-2.710	0.690	187.03	-4.10	1.20	 	 	 	 	 	 	 	 	 	 	 	 	 	 	 	 	 	 	1581497657	8.87	16.43
12/02/2020 08:54:18	120220	12022020	085418	186.25	12.766310	-57.140367	186.28	1.010	-1.580	1.380	186.25	-2.90	1.90	 	 	 	 	 	 	 	 	 	 	 	 	 	 	 	 	 	 	1581497658	7.50	13.89
12/02/2020 08:54:19	120220	12022020	085419	185.84	12.766282	-57.140372	185.85	-0.090	0.090	2.170	185.79	-1.30	2.70	 	 	 	 	 	 	 	 	 	 	 	 	 	 	 	 	 	 	1581497659	6.31	11.69
12/02/2020 08:54:20	120220	12022020	085420	185.76	12.766253	-57.140380	185.91	-0.980	1.250	2.630	185.80	-0.20	3.10	 	 	 	 	 	 	 	 	 	 	 	 	 	 	 	 	 	 	1581497660	6.14	11.37
12/02/2020 08:54:21	120220	12022020	085421	186.01	12.766225	-57.140390	186.19	-1.270	1.250	2.750	186.07	-0.20	3.20	 	 	 	 	 	 	 	 	 	 	 	 	 	 	 	 	 	 	1581497661	6.82	12.63
12/02/2020 08:54:22	120220	12022020	085422	186.23	12.766190	-57.140403	186.38	-0.970	0.340	2.750	186.26	-1.20	3.20	 	 	 	 	 	 	 	 	 	 	 	 	 	 	 	 	 	 	1581497662	7.90	14.63
12/02/2020 08:54:23	120220	12022020	085423	186.33	12.766152	-57.140415	186.44	-0.390	-0.520	2.540	186.33	-2.00	3.00	 	 	 	 	 	 	 	 	 	 	 	 	 	 	 	 	 	 	1581497663	8.68	16.08
12/02/2020 08:54:24	120220	12022020	085424	186.37	12.766113	-57.140425	186.48	0.100	-0.560	2.010	186.38	-2.00	2.40	 	 	 	 	 	 	 	 	 	 	 	 	 	 	 	 	 	 	1581497664	8.37	15.50
12/02/2020 08:54:25	120220	12022020	085425	186.50	12.766080	-57.140432	186.62	0.370	0.140	1.240	186.54	-1.30	1.70	 	 	 	 	 	 	 	 	 	 	 	 	 	 	 	 	 	 	1581497665	7.24	13.41
12/02/2020 08:54:26	120220	12022020	085426	186.64	12.766052	-57.140435	186.67	0.540	0.590	0.590	186.64	-0.90	1.00	 	 	 	 	 	 	 	 	 	 	 	 	 	 	 	 	 	 	1581497666	6.30	11.67
12/02/2020 08:54:27	120220	12022020	085427	186.55	12.766020	-57.140435	186.51	0.740	0.040	0.380	186.51	-1.40	0.80	 	 	 	 	 	 	 	 	 	 	 	 	 	 	 	 	 	 	1581497667	6.56	12.15
12/02/2020 08:54:28	120220	12022020	085428	186.30	12.765985	-57.140437	186.26	0.840	-0.890	0.680	186.25	-2.40	1.20	 	 	 	 	 	 	 	 	 	 	 	 	 	 	 	 	 	 	1581497668	7.62	14.11
12/02/2020 08:54:29	120220	12022020	085429	186.09	12.765948	-57.140442	186.09	0.690	-1.200	1.220	186.05	-2.60	1.70	 	 	 	 	 	 	 	 	 	 	 	 	 	 	 	 	 	 	1581497669	8.04	14.89
12/02/2020 08:54:30	120220	12022020	085430	185.93	12.765915	-57.140448	185.93	0.330	-0.870	1.810	185.90	-2.30	2.30	 	 	 	 	 	 	 	 	 	 	 	 	 	 	 	 	 	 	1581497670	7.43	13.76
12/02/2020 08:54:31	120220	12022020	085431	185.76	12.765883	-57.140457	185.80	-0.070	-0.520	2.350	185.74	-1.90	2.80	 	 	 	 	 	 	 	 	 	 	 	 	 	 	 	 	 	 	1581497671	6.91	12.80
12/02/2020 08:54:32	120220	12022020	085432	185.68	12.765852	-57.140463	185.76	-0.410	-0.440	2.800	185.68	-1.90	3.20	 	 	 	 	 	 	 	 	 	 	 	 	 	 	 	 	 	 	1581497672	7.08	13.11
12/02/2020 08:54:33	120220	12022020	085433	185.54	12.765817	-57.140472	185.51	-0.680	-0.610	3.380	185.47	-2.10	3.80	 	 	 	 	 	 	 	 	 	 	 	 	 	 	 	 	 	 	1581497673	7.52	13.93
12/02/2020 08:54:34	120220	12022020	085434	185.10	12.765782	-57.140483	185.03	-0.840	-0.750	4.040	184.99	-2.20	4.50	 	 	 	 	 	 	 	 	 	 	 	 	 	 	 	 	 	 	1581497674	8.01	14.83
12/02/2020 08:54:35	120220	12022020	085435	184.54	12.765745	-57.140495	184.50	-0.860	-0.460	4.460	184.45	-1.90	4.90	 	 	 	 	 	 	 	 	 	 	 	 	 	 	 	 	 	 	1581497675	8.24	15.26
12/02/2020 08:54:36	120220	12022020	085436	184.12	12.765710	-57.140508	184.16	-0.650	0.290	4.410	184.08	-1.10	4.80	 	 	 	 	 	 	 	 	 	 	 	 	 	 	 	 	 	 	1581497676	7.94	14.70
12/02/2020 08:54:37	120220	12022020	085437	184.03	12.765678	-57.140517	184.18	-0.120	1.050	3.590	184.07	-0.40	3.90	 	 	 	 	 	 	 	 	 	 	 	 	 	 	 	 	 	 	1581497677	7.31	13.54
12/02/2020 08:54:38	120220	12022020	085438	184.54	12.765645	-57.140520	184.67	0.600	1.370	2.010	184.54	-0.10	2.40	 	 	 	 	 	 	 	 	 	 	 	 	 	 	 	 	 	 	1581497678	7.00	12.96
12/02/2020 08:54:39	120220	12022020	085439	185.18	12.765612	-57.140517	185.48	1.110	1.050	0.310	185.36	-0.40	0.70	 	 	 	 	 	 	 	 	 	 	 	 	 	 	 	 	 	 	1581497679	7.21	13.35
12/02/2020 08:54:40	120220	12022020	085440	186.25	12.765577	-57.140510	186.34	1.100	0.180	-0.540	186.25	-1.30	-0.10	 	 	 	 	 	 	 	 	 	 	 	 	 	 	 	 	 	 	1581497680	7.56	14.00
12/02/2020 08:54:41	120220	12022020	085441	186.68	12.765543	-57.140508	186.77	0.660	-0.940	-0.110	186.72	-2.40	0.40	 	 	 	 	 	 	 	 	 	 	 	 	 	 	 	 	 	 	1581497681	7.46	13.82
12/02/2020 08:54:42	120220	12022020	085442	186.58	12.765508	-57.140513	186.49	0.210	-2.020	1.180	186.48	-3.50	1.70	 	 	 	 	 	 	 	 	 	 	 	 	 	 	 	 	 	 	1581497682	7.44	13.78
12/02/2020 08:54:43	120220	12022020	085443	185.97	12.765475	-57.140525	185.84	-0.070	-2.540	2.630	185.82	-4.00	3.10	 	 	 	 	 	 	 	 	 	 	 	 	 	 	 	 	 	 	1581497683	7.82	14.48
12/02/2020 08:54:44	120220	12022020	085444	185.18	12.765440	-57.140540	185.21	-0.220	-2.170	3.830	185.18	-3.60	4.30	 	 	 	 	 	 	 	 	 	 	 	 	 	 	 	 	 	 	1581497684	7.91	14.65
12/02/2020 08:54:45	120220	12022020	085445	184.76	12.765408	-57.140555	184.73	-0.270	-1.200	4.330	184.66	-2.60	4.70	 	 	 	 	 	 	 	 	 	 	 	 	 	 	 	 	 	 	1581497685	7.59	14.06
12/02/2020 08:54:46	120220	12022020	085446	184.45	12.765375	-57.140565	184.55	-0.320	0.020	3.840	184.45	-1.40	4.20	 	 	 	 	 	 	 	 	 	 	 	 	 	 	 	 	 	 	1581497686	7.27	13.46
12/02/2020 08:54:47	120220	12022020	085447	184.69	12.765343	-57.140570	184.96	-0.470	1.240	2.700	184.80	-0.20	3.10	 	 	 	 	 	 	 	 	 	 	 	 	 	 	 	 	 	 	1581497687	7.12	13.19
12/02/2020 08:54:48	120220	12022020	085448	185.40	12.765312	-57.140570	185.69	-0.670	1.960	1.500	185.54	0.50	1.90	 	 	 	 	 	 	 	 	 	 	 	 	 	 	 	 	 	 	1581497688	6.89	12.76
12/02/2020 08:54:49	120220	12022020	085449	186.09	12.765278	-57.140570	186.28	-0.630	1.660	0.660	186.18	0.20	1.10	 	 	 	 	 	 	 	 	 	 	 	 	 	 	 	 	 	 	1581497689	7.02	13.00
12/02/2020 08:54:50	120220	12022020	085450	186.44	12.765243	-57.140572	186.53	-0.220	0.460	0.420	186.47	-1.10	0.90	 	 	 	 	 	 	 	 	 	 	 	 	 	 	 	 	 	 	1581497690	7.68	14.22
12/02/2020 08:54:51	120220	12022020	085451	186.48	12.765205	-57.140577	186.54	0.370	-0.750	0.770	186.47	-2.20	1.20	 	 	 	 	 	 	 	 	 	 	 	 	 	 	 	 	 	 	1581497691	8.34	15.45
12/02/2020 08:54:52	120220	12022020	085452	186.53	12.765167	-57.140585	186.66	0.800	-1.060	1.190	186.57	-2.50	1.60	 	 	 	 	 	 	 	 	 	 	 	 	 	 	 	 	 	 	1581497692	8.19	15.17
12/02/2020 08:54:53	120220	12022020	085453	186.80	12.765135	-57.140593	186.94	0.790	-0.570	1.360	186.85	-2.00	1.80	 	 	 	 	 	 	 	 	 	 	 	 	 	 	 	 	 	 	1581497693	7.04	13.04
12/02/2020 08:54:54	120220	12022020	085454	186.96	12.765107	-57.140598	187.00	0.420	-0.420	1.450	186.94	-1.90	1.90	 	 	 	 	 	 	 	 	 	 	 	 	 	 	 	 	 	 	1581497694	6.09	11.28
12/02/2020 08:54:55	120220	12022020	085455	186.69	12.765077	-57.140603	186.57	0.060	-1.150	1.850	186.57	-2.70	2.30	 	 	 	 	 	 	 	 	 	 	 	 	 	 	 	 	 	 	1581497695	6.62	12.26
12/02/2020 08:54:56	120220	12022020	085456	186.03	12.765042	-57.140613	185.92	-0.030	-1.900	2.510	185.90	-3.40	2.90	 	 	 	 	 	 	 	 	 	 	 	 	 	 	 	 	 	 	1581497696	7.98	14.78
12/02/2020 08:54:57	120220	12022020	085457	185.52	12.765003	-57.140625	185.54	-0.050	-1.530	2.820	185.48	-2.90	3.20	 	 	 	 	 	 	 	 	 	 	 	 	 	 	 	 	 	 	1581497697	8.49	15.72
12/02/2020 08:54:58	120220	12022020	085458	185.48	12.764970	-57.140633	185.61	-0.260	-0.230	2.710	185.52	-1.60	3.10	 	 	 	 	 	 	 	 	 	 	 	 	 	 	 	 	 	 	1581497698	7.54	13.96
12/02/2020 08:54:59	120220	12022020	085459	185.71	12.764940	-57.140642	185.86	-0.560	1.030	2.460	185.77	-0.40	2.90	 	 	 	 	 	 	 	 	 	 	 	 	 	 	 	 	 	 	1581497699	6.64	12.30
12/02/2020 08:55:00	120220	12022020	085500	185.99	12.764908	-57.140647	186.14	-0.630	1.470	2.090	186.04	0.00	2.50	 	 	 	 	 	 	 	 	 	 	 	 	 	 	 	 	 	 	1581497700	6.65	12.32
12/02/2020 08:55:01	120220	12022020	085501	186.33	12.764875	-57.140652	186.52	-0.350	1.140	1.450	186.42	-0.40	1.80	1015.00	26.20	26.20	20.40	20.50	-1.0	70.0	71.0	392.0	25.8	272.00	10.80	78.00	11.30	16	9513.0	27.4	27.4	1581497701	7.34	13.59
12/02/2020 08:55:02	120220	12022020	085502	186.89	12.764838	-57.140655	187.00	0.040	0.550	0.860	186.89	-0.90	1.30	 	 	 	 	 	 	 	 	 	 	 	 	 	 	 	 	 	 	1581497702	7.84	14.52
12/02/2020 08:55:03	120220	12022020	085503	187.18	12.764803	-57.140658	187.29	0.250	0.000	0.750	187.22	-1.50	1.20	 	 	 	 	 	 	 	 	 	 	 	 	 	 	 	 	 	 	1581497703	7.70	14.26
12/02/2020 08:55:04	120220	12022020	085504	187.17	12.764770	-57.140663	187.11	0.270	-0.620	1.340	187.09	-2.10	1.80	 	 	 	 	 	 	 	 	 	 	 	 	 	 	 	 	 	 	1581497704	7.29	13.50
12/02/2020 08:55:05	120220	12022020	085505	186.57	12.764737	-57.140673	186.37	0.300	-1.400	2.430	186.38	-2.90	2.90	 	 	 	 	 	 	 	 	 	 	 	 	 	 	 	 	 	 	1581497705	7.33	13.58
12/02/2020 08:55:06	120220	12022020	085506	185.59	12.764702	-57.140685	185.42	0.470	-1.850	3.350	185.40	-3.30	3.80	 	 	 	 	 	 	 	 	 	 	 	 	 	 	 	 	 	 	1581497706	7.85	14.54
12/02/2020 08:55:07	120220	12022020	085507	184.82	12.764668	-57.140697	184.80	0.610	-1.480	3.560	184.74	-2.90	4.00	 	 	 	 	 	 	 	 	 	 	 	 	 	 	 	 	 	 	1581497707	7.86	14.56
12/02/2020 08:55:08	120220	12022020	085508	184.63	12.764635	-57.140705	184.77	0.490	-0.550	3.010	184.66	-1.90	3.40	 	 	 	 	 	 	 	 	 	 	 	 	 	 	 	 	 	 	1581497708	7.18	13.30
12/02/2020 08:55:09	120220	12022020	085509	184.92	12.764603	-57.140707	185.13	0.060	0.290	2.000	185.01	-1.10	2.40	 	 	 	 	 	 	 	 	 	 	 	 	 	 	 	 	 	 	1581497709	6.72	12.45
12/02/2020 08:55:10	120220	12022020	085510	185.59	12.764572	-57.140707	185.70	-0.510	0.700	1.120	185.59	-0.70	1.50	 	 	 	 	 	 	 	 	 	 	 	 	 	 	 	 	 	 	1581497710	6.89	12.76
12/02/2020 08:55:11	120220	12022020	085511	186.02	12.764538	-57.140708	186.18	-0.950	0.620	0.940	186.10	-0.90	1.40	 	 	 	 	 	 	 	 	 	 	 	 	 	 	 	 	 	 	1581497711	7.21	13.35
12/02/2020 08:55:12	120220	12022020	085512	186.26	12.764503	-57.140715	186.29	-0.980	0.070	1.350	186.25	-1.40	1.80	 	 	 	 	 	 	 	 	 	 	 	 	 	 	 	 	 	 	1581497712	7.57	14.02
12/02/2020 08:55:13	120220	12022020	085513	185.97	12.764468	-57.140725	185.85	-0.520	-0.630	2.100	185.85	-2.10	2.60	 	 	 	 	 	 	 	 	 	 	 	 	 	 	 	 	 	 	1581497713	8.06	14.93
12/02/2020 08:55:14	120220	12022020	085514	185.30	12.764430	-57.140737	185.22	0.150	-0.870	2.790	185.18	-2.30	3.20	 	 	 	 	 	 	 	 	 	 	 	 	 	 	 	 	 	 	1581497714	8.39	15.54
12/02/2020 08:55:15	120220	12022020	085515	184.95	12.764395	-57.140748	185.09	0.570	-0.110	2.690	184.97	-1.50	3.10	 	 	 	 	 	 	 	 	 	 	 	 	 	 	 	 	 	 	1581497715	7.98	14.78
12/02/2020 08:55:16	120220	12022020	085516	185.36	12.764363	-57.140752	185.67	0.490	1.070	1.820	185.52	-0.30	2.20	 	 	 	 	 	 	 	 	 	 	 	 	 	 	 	 	 	 	1581497716	6.64	12.30
12/02/2020 08:55:17	120220	12022020	085517	186.15	12.764337	-57.140752	186.42	0.120	1.370	1.060	186.30	-0.10	1.50	 	 	 	 	 	 	 	 	 	 	 	 	 	 	 	 	 	 	1581497717	5.82	10.78
12/02/2020 08:55:18	120220	12022020	085518	186.64	12.764307	-57.140753	186.69	-0.040	0.160	1.020	186.65	-1.40	1.50	 	 	 	 	 	 	 	 	 	 	 	 	 	 	 	 	 	 	1581497718	6.36	11.78
12/02/2020 08:55:19	120220	12022020	085519	186.33	12.764272	-57.140758	186.17	0.350	-1.900	1.590	186.19	-3.40	2.10	 	 	 	 	 	 	 	 	 	 	 	 	 	 	 	 	 	 	1581497719	7.87	14.58
12/02/2020 08:55:20	120220	12022020	085520	185.38	12.764230	-57.140768	185.40	0.800	-2.990	2.430	185.38	-4.40	2.90	 	 	 	 	 	 	 	 	 	 	 	 	 	 	 	 	 	 	1581497720	9.03	16.72
12/02/2020 08:55:21	120220	12022020	085521	185.04	12.764193	-57.140778	185.10	0.660	-2.000	2.800	185.02	-3.30	3.20	 	 	 	 	 	 	 	 	 	 	 	 	 	 	 	 	 	 	1581497721	8.38	15.52
12/02/2020 08:55:22	120220	12022020	085522	185.16	12.764163	-57.140785	185.25	-0.140	-0.060	2.550	185.16	-1.40	3.00	 	 	 	 	 	 	 	 	 	 	 	 	 	 	 	 	 	 	1581497722	6.50	12.04
12/02/2020 08:55:23	120220	12022020	085523	185.43	12.764137	-57.140792	185.63	-1.080	1.210	2.260	185.52	-0.20	2.70	 	 	 	 	 	 	 	 	 	 	 	 	 	 	 	 	 	 	1581497723	5.77	10.69
12/02/2020 08:55:24	120220	12022020	085524	186.05	12.764107	-57.140800	186.17	-1.450	1.380	2.120	186.05	-0.10	2.50	 	 	 	 	 	 	 	 	 	 	 	 	 	 	 	 	 	 	1581497724	6.63	12.28
12/02/2020 08:55:25	120220	12022020	085525	186.50	12.764073	-57.140810	186.70	-0.940	0.980	1.830	186.59	-0.50	2.20	 	 	 	 	 	 	 	 	 	 	 	 	 	 	 	 	 	 	1581497725	7.67	14.20
12/02/2020 08:55:26	120220	12022020	085526	186.87	12.764037	-57.140818	186.97	0.080	0.280	1.440	186.90	-1.20	1.80	 	 	 	 	 	 	 	 	 	 	 	 	 	 	 	 	 	 	1581497726	7.90	14.63
12/02/2020 08:55:27	120220	12022020	085527	186.87	12.764000	-57.140823	186.87	0.830	-0.500	1.310	186.83	-2.00	1.70	 	 	 	 	 	 	 	 	 	 	 	 	 	 	 	 	 	 	1581497727	7.94	14.70
12/02/2020 08:55:28	120220	12022020	085528	186.54	12.763963	-57.140825	186.51	0.900	-0.980	1.550	186.47	-2.40	2.00	 	 	 	 	 	 	 	 	 	 	 	 	 	 	 	 	 	 	1581497728	7.88	14.59
12/02/2020 08:55:29	120220	12022020	085529	186.28	12.763930	-57.140828	186.31	0.380	-0.840	1.810	186.26	-2.30	2.20	 	 	 	 	 	 	 	 	 	 	 	 	 	 	 	 	 	 	1581497729	7.51	13.91
12/02/2020 08:55:30	120220	12022020	085530	186.18	12.763898	-57.140835	186.19	-0.210	-0.450	2.110	186.14	-1.90	2.60	 	 	 	 	 	 	 	 	 	 	 	 	 	 	 	 	 	 	1581497730	6.86	12.70
12/02/2020 08:55:31	120220	12022020	085531	185.92	12.763868	-57.140845	185.87	-0.330	-0.430	2.570	185.84	-1.90	3.00	 	 	 	 	 	 	 	 	 	 	 	 	 	 	 	 	 	 	1581497731	6.82	12.63
12/02/2020 08:55:32	120220	12022020	085532	185.43	12.763835	-57.140855	185.35	-0.020	-0.690	3.020	185.32	-2.10	3.40	 	 	 	 	 	 	 	 	 	 	 	 	 	 	 	 	 	 	1581497732	7.48	13.85
12/02/2020 08:55:33	120220	12022020	085533	184.98	12.763798	-57.140865	185.02	0.230	-0.610	3.170	184.95	-2.00	3.60	 	 	 	 	 	 	 	 	 	 	 	 	 	 	 	 	 	 	1581497733	7.96	14.74
12/02/2020 08:55:34	120220	12022020	085534	185.06	12.763765	-57.140873	185.18	0.040	0.000	2.980	185.06	-1.40	3.40	 	 	 	 	 	 	 	 	 	 	 	 	 	 	 	 	 	 	1581497734	7.63	14.13
12/02/2020 08:55:35	120220	12022020	085535	185.44	12.763733	-57.140880	185.69	-0.410	0.690	2.500	185.55	-0.70	2.90	 	 	 	 	 	 	 	 	 	 	 	 	 	 	 	 	 	 	1581497735	6.93	12.83
12/02/2020 08:55:36	120220	12022020	085536	186.02	12.763702	-57.140885	186.25	-0.630	0.860	1.860	186.13	-0.60	2.30	 	 	 	 	 	 	 	 	 	 	 	 	 	 	 	 	 	 	1581497736	6.66	12.33
12/02/2020 08:55:37	120220	12022020	085537	186.47	12.763670	-57.140890	186.62	-0.380	0.350	1.300	186.53	-1.10	1.70	 	 	 	 	 	 	 	 	 	 	 	 	 	 	 	 	 	 	1581497737	7.04	13.04
12/02/2020 08:55:38	120220	12022020	085538	186.66	12.763635	-57.140893	186.70	0.250	-0.490	1.010	186.66	-2.00	1.40	 	 	 	 	 	 	 	 	 	 	 	 	 	 	 	 	 	 	1581497738	7.62	14.11
12/02/2020 08:55:39	120220	12022020	085539	186.50	12.763598	-57.140898	186.44	0.860	-1.220	1.060	186.43	-2.70	1.50	 	 	 	 	 	 	 	 	 	 	 	 	 	 	 	 	 	 	1581497739	7.91	14.65
12/02/2020 08:55:40	120220	12022020	085540	186.13	12.763562	-57.140903	186.09	0.970	-1.340	1.300	186.07	-2.80	1.80	 	 	 	 	 	 	 	 	 	 	 	 	 	 	 	 	 	 	1581497740	7.88	14.59
12/02/2020 08:55:41	120220	12022020	085541	185.92	12.763528	-57.140907	185.95	0.440	-0.780	1.800	185.90	-2.20	2.30	 	 	 	 	 	 	 	 	 	 	 	 	 	 	 	 	 	 	1581497741	7.37	13.65
12/02/2020 08:55:42	120220	12022020	085542	185.75	12.763497	-57.140913	185.74	-0.320	-0.190	2.550	185.69	-1.60	3.00	 	 	 	 	 	 	 	 	 	 	 	 	 	 	 	 	 	 	1581497742	6.82	12.63
12/02/2020 08:55:43	120220	12022020	085543	185.42	12.763465	-57.140923	185.46	-0.770	0.050	3.100	185.38	-1.40	3.50	 	 	 	 	 	 	 	 	 	 	 	 	 	 	 	 	 	 	1581497743	7.15	13.24
12/02/2020 08:55:44	120220	12022020	085544	185.42	12.763430	-57.140935	185.62	-0.830	0.400	3.090	185.48	-1.00	3.50	 	 	 	 	 	 	 	 	 	 	 	 	 	 	 	 	 	 	1581497744	7.72	14.30
12/02/2020 08:55:45	120220	12022020	085545	185.85	12.763398	-57.140945	186.09	-0.650	0.900	2.680	185.95	-0.50	3.10	 	 	 	 	 	 	 	 	 	 	 	 	 	 	 	 	 	 	1581497745	7.34	13.59
12/02/2020 08:55:46	120220	12022020	085546	186.21	12.763367	-57.140952	186.33	-0.260	0.650	2.130	186.24	-0.80	2.50	 	 	 	 	 	 	 	 	 	 	 	 	 	 	 	 	 	 	1581497746	6.82	12.63
12/02/2020 08:55:47	120220	12022020	085547	186.22	12.763333	-57.140957	186.26	0.280	-0.460	1.600	186.20	-2.00	2.00	 	 	 	 	 	 	 	 	 	 	 	 	 	 	 	 	 	 	1581497747	7.46	13.82
12/02/2020 08:55:48	120220	12022020	085548	186.16	12.763293	-57.140960	186.24	0.720	-1.360	1.310	186.16	-2.80	1.80	 	 	 	 	 	 	 	 	 	 	 	 	 	 	 	 	 	 	1581497748	8.38	15.52
12/02/2020 08:55:49	120220	12022020	085549	186.25	12.763257	-57.140965	186.35	0.790	-1.210	1.100	186.27	-2.60	1.50	 	 	 	 	 	 	 	 	 	 	 	 	 	 	 	 	 	 	1581497749	8.11	15.02
12/02/2020 08:55:50	120220	12022020	085550	186.35	12.763223	-57.140968	186.39	0.540	-0.500	0.960	186.35	-1.90	1.40	 	 	 	 	 	 	 	 	 	 	 	 	 	 	 	 	 	 	1581497750	7.00	12.96
12/02/2020 08:55:51	120220	12022020	085551	186.32	12.763193	-57.140972	186.37	0.180	0.040	1.120	186.32	-1.40	1.60	 	 	 	 	 	 	 	 	 	 	 	 	 	 	 	 	 	 	1581497751	6.56	12.15
12/02/2020 08:55:52	120220	12022020	085552	186.44	12.763162	-57.140977	186.56	-0.240	0.340	1.500	186.48	-1.10	2.00	 	 	 	 	 	 	 	 	 	 	 	 	 	 	 	 	 	 	1581497752	6.89	12.76
12/02/2020 08:55:53	120220	12022020	085553	186.66	12.763130	-57.140985	186.76	-0.600	0.340	1.920	186.69	-1.10	2.40	 	 	 	 	 	 	 	 	 	 	 	 	 	 	 	 	 	 	1581497753	7.17	13.28
12/02/2020 08:55:54	120220	12022020	085554	186.64	12.763097	-57.140995	186.63	-0.630	-0.160	2.230	186.59	-1.60	2.70	 	 	 	 	 	 	 	 	 	 	 	 	 	 	 	 	 	 	1581497754	7.45	13.80
12/02/2020 08:55:55	120220	12022020	085555	186.24	12.763062	-57.141007	186.15	-0.230	-0.830	2.460	186.13	-2.30	2.90	 	 	 	 	 	 	 	 	 	 	 	 	 	 	 	 	 	 	1581497755	8.03	14.87
12/02/2020 08:55:56	120220	12022020	085556	185.67	12.763023	-57.141015	185.73	0.240	-0.790	2.400	185.67	-2.20	2.80	 	 	 	 	 	 	 	 	 	 	 	 	 	 	 	 	 	 	1581497756	8.27	15.32
12/02/2020 08:55:57	120220	12022020	085557	185.63	12.762988	-57.141022	185.76	0.290	0.010	1.990	185.67	-1.40	2.40	 	 	 	 	 	 	 	 	 	 	 	 	 	 	 	 	 	 	1581497757	7.51	13.91
12/02/2020 08:55:58	120220	12022020	085558	185.92	12.762958	-57.141023	186.07	-0.060	0.590	1.630	185.98	-0.80	2.10	 	 	 	 	 	 	 	 	 	 	 	 	 	 	 	 	 	 	1581497758	6.57	12.17
12/02/2020 08:55:59	120220	12022020	085559	186.13	12.762928	-57.141030	186.16	-0.240	0.260	1.540	186.13	-1.20	2.00	 	 	 	 	 	 	 	 	 	 	 	 	 	 	 	 	 	 	1581497759	6.66	12.33
12/02/2020 08:56:00	120220	12022020	085600	185.97	12.762893	-57.141038	185.94	0.120	-0.580	1.650	185.91	-2.00	2.10	 	 	 	 	 	 	 	 	 	 	 	 	 	 	 	 	 	 	1581497760	7.66	14.19
12/02/2020 08:56:01	120220	12022020	085601	185.77	12.762857	-57.141045	185.82	0.650	-0.830	1.600	185.76	-2.20	2.00	1014.90	26.10	26.20	20.20	20.30	-1.0	69.0	70.0	392.0	25.8	270.00	10.00	76.00	10.70	16	9166.0	27.4	27.4	1581497761	8.19	15.17
12/02/2020 08:56:02	120220	12022020	085602	185.87	12.762822	-57.141050	185.97	0.750	-0.330	1.330	185.91	-1.70	1.80	 	 	 	 	 	 	 	 	 	 	 	 	 	 	 	 	 	 	1581497762	7.49	13.87
12/02/2020 08:56:03	120220	12022020	085603	186.04	12.762790	-57.141052	186.10	0.270	0.010	1.080	186.05	-1.40	1.50	 	 	 	 	 	 	 	 	 	 	 	 	 	 	 	 	 	 	1581497763	6.65	12.32
12/02/2020 08:56:04	120220	12022020	085604	185.97	12.762758	-57.141055	185.98	-0.450	-0.360	1.440	185.97	-1.80	1.90	 	 	 	 	 	 	 	 	 	 	 	 	 	 	 	 	 	 	1581497764	6.86	12.70
12/02/2020 08:56:05	120220	12022020	085605	185.66	12.762723	-57.141065	185.57	-0.820	-1.050	2.450	185.56	-2.50	3.00	 	 	 	 	 	 	 	 	 	 	 	 	 	 	 	 	 	 	1581497765	7.82	14.48
12/02/2020 08:56:06	120220	12022020	085606	185.16	12.762687	-57.141082	185.14	-0.570	-1.180	3.180	185.08	-2.60	3.60	 	 	 	 	 	 	 	 	 	 	 	 	 	 	 	 	 	 	1581497766	8.62	15.96
12/02/2020 08:56:07	120220	12022020	085607	184.95	12.762652	-57.141095	185.05	-0.060	-0.420	3.150	184.95	-1.80	3.60	 	 	 	 	 	 	 	 	 	 	 	 	 	 	 	 	 	 	1581497767	8.15	15.09
12/02/2020 08:56:08	120220	12022020	085608	185.13	12.762620	-57.141102	185.30	0.240	0.500	2.570	185.20	-0.90	3.00	 	 	 	 	 	 	 	 	 	 	 	 	 	 	 	 	 	 	1581497768	7.02	13.00
12/02/2020 08:56:09	120220	12022020	085609	185.44	12.762588	-57.141105	185.58	0.190	0.730	1.900	185.48	-0.70	2.30	 	 	 	 	 	 	 	 	 	 	 	 	 	 	 	 	 	 	1581497769	6.70	12.41
12/02/2020 08:56:10	120220	12022020	085610	185.58	12.762555	-57.141105	185.63	-0.010	0.340	1.510	185.58	-1.10	2.00	 	 	 	 	 	 	 	 	 	 	 	 	 	 	 	 	 	 	1581497770	7.24	13.41
12/02/2020 08:56:11	120220	12022020	085611	185.39	12.762520	-57.141108	185.34	-0.050	-0.260	1.560	185.31	-1.70	2.00	 	 	 	 	 	 	 	 	 	 	 	 	 	 	 	 	 	 	1581497771	7.68	14.22
12/02/2020 08:56:12	120220	12022020	085612	184.98	12.762483	-57.141113	184.92	0.120	-0.640	1.760	184.90	-2.10	2.20	 	 	 	 	 	 	 	 	 	 	 	 	 	 	 	 	 	 	1581497772	7.87	14.58
12/02/2020 08:56:13	120220	12022020	085613	184.59	12.762448	-57.141122	184.56	0.320	-0.480	2.020	184.53	-1.90	2.50	 	 	 	 	 	 	 	 	 	 	 	 	 	 	 	 	 	 	1581497773	7.70	14.26
12/02/2020 08:56:14	120220	12022020	085614	184.46	12.762417	-57.141128	184.59	0.370	0.070	2.010	184.49	-1.30	2.50	 	 	 	 	 	 	 	 	 	 	 	 	 	 	 	 	 	 	1581497774	7.18	13.30
12/02/2020 08:56:15	120220	12022020	085615	184.87	12.762385	-57.141133	185.12	0.200	0.470	1.540	184.99	-1.00	2.00	 	 	 	 	 	 	 	 	 	 	 	 	 	 	 	 	 	 	1581497775	6.70	12.41
12/02/2020 08:56:16	120220	12022020	085616	185.55	12.762355	-57.141137	185.79	-0.050	0.170	1.160	185.67	-1.30	1.60	 	 	 	 	 	 	 	 	 	 	 	 	 	 	 	 	 	 	1581497776	6.65	12.32
12/02/2020 08:56:17	120220	12022020	085617	185.97	12.762320	-57.141142	186.07	-0.210	-0.900	1.520	185.99	-2.40	2.00	 	 	 	 	 	 	 	 	 	 	 	 	 	 	 	 	 	 	1581497777	7.26	13.45
12/02/2020 08:56:18	120220	12022020	085618	185.85	12.762283	-57.141152	185.79	-0.180	-1.900	2.280	185.75	-3.40	2.80	 	 	 	 	 	 	 	 	 	 	 	 	 	 	 	 	 	 	1581497778	8.17	15.13
12/02/2020 08:56:19	120220	12022020	085619	185.23	12.762247	-57.141163	185.11	0.020	-1.970	2.910	185.08	-3.40	3.40	 	 	 	 	 	 	 	 	 	 	 	 	 	 	 	 	 	 	1581497779	8.41	15.58
12/02/2020 08:56:20	120220	12022020	085620	184.57	12.762212	-57.141173	184.53	0.150	-1.030	3.050	184.47	-2.40	3.50	 	 	 	 	 	 	 	 	 	 	 	 	 	 	 	 	 	 	1581497780	7.74	14.33
12/02/2020 08:56:21	120220	12022020	085621	184.28	12.762180	-57.141178	184.36	0.080	0.260	2.640	184.27	-1.10	3.10	 	 	 	 	 	 	 	 	 	 	 	 	 	 	 	 	 	 	1581497781	6.92	12.82
12/02/2020 08:56:22	120220	12022020	085622	184.32	12.762150	-57.141180	184.44	-0.150	0.990	2.000	184.35	-0.40	2.40	 	 	 	 	 	 	 	 	 	 	 	 	 	 	 	 	 	 	1581497782	6.70	12.41
12/02/2020 08:56:23	120220	12022020	085623	184.53	12.762115	-57.141180	184.72	-0.380	0.990	1.470	184.60	-0.50	1.90	 	 	 	 	 	 	 	 	 	 	 	 	 	 	 	 	 	 	1581497783	7.29	13.50
12/02/2020 08:56:24	120220	12022020	085624	184.93	12.762078	-57.141182	185.15	-0.490	0.670	1.310	185.02	-0.80	1.80	 	 	 	 	 	 	 	 	 	 	 	 	 	 	 	 	 	 	1581497784	7.85	14.54
12/02/2020 08:56:25	120220	12022020	085625	185.43	12.762043	-57.141188	185.68	-0.430	0.410	1.420	185.54	-1.10	1.90	 	 	 	 	 	 	 	 	 	 	 	 	 	 	 	 	 	 	1581497785	7.88	14.59
12/02/2020 08:56:26	120220	12022020	085626	185.93	12.762008	-57.141197	186.16	-0.230	0.160	1.520	186.03	-1.30	2.00	 	 	 	 	 	 	 	 	 	 	 	 	 	 	 	 	 	 	1581497786	7.50	13.89
12/02/2020 08:56:27	120220	12022020	085627	186.31	12.761977	-57.141203	186.46	0.050	-0.310	1.630	186.36	-1.80	2.10	 	 	 	 	 	 	 	 	 	 	 	 	 	 	 	 	 	 	1581497787	7.20	13.33
12/02/2020 08:56:28	120220	12022020	085628	186.34	12.761943	-57.141212	186.34	0.370	-1.000	1.910	186.29	-2.50	2.40	 	 	 	 	 	 	 	 	 	 	 	 	 	 	 	 	 	 	1581497788	7.26	13.45
12/02/2020 08:56:29	120220	12022020	085629	185.80	12.761908	-57.141218	185.63	0.690	-1.640	2.420	185.64	-3.10	2.90	 	 	 	 	 	 	 	 	 	 	 	 	 	 	 	 	 	 	1581497789	7.56	14.00
12/02/2020 08:56:30	120220	12022020	085630	184.91	12.761873	-57.141227	184.80	0.820	-1.580	2.890	184.76	-3.00	3.40	 	 	 	 	 	 	 	 	 	 	 	 	 	 	 	 	 	 	1581497790	7.85	14.54
12/02/2020 08:56:31	120220	12022020	085631	184.46	12.761838	-57.141232	184.56	0.500	-0.550	2.740	184.46	-1.90	3.20	 	 	 	 	 	 	 	 	 	 	 	 	 	 	 	 	 	 	1581497791	7.50	13.89
12/02/2020 08:56:32	120220	12022020	085632	184.68	12.761808	-57.141235	184.92	-0.150	0.670	2.110	184.79	-0.70	2.50	 	 	 	 	 	 	 	 	 	 	 	 	 	 	 	 	 	 	1581497792	6.62	12.26
12/02/2020 08:56:33	120220	12022020	085633	185.27	12.761778	-57.141238	185.55	-0.680	1.110	1.400	185.41	-0.40	1.80	 	 	 	 	 	 	 	 	 	 	 	 	 	 	 	 	 	 	1581497793	6.37	11.80
12/02/2020 08:56:34	120220	12022020	085634	185.90	12.761745	-57.141242	186.09	-0.780	0.480	0.970	185.98	-1.00	1.40	 	 	 	 	 	 	 	 	 	 	 	 	 	 	 	 	 	 	1581497794	7.07	13.09
12/02/2020 08:56:35	120220	12022020	085635	186.13	12.761708	-57.141247	186.18	-0.420	-0.770	1.190	186.11	-2.30	1.70	 	 	 	 	 	 	 	 	 	 	 	 	 	 	 	 	 	 	1581497795	8.07	14.95
12/02/2020 08:56:36	120220	12022020	085636	185.77	12.761668	-57.141255	185.82	0.080	-1.580	1.810	185.77	-3.00	2.30	 	 	 	 	 	 	 	 	 	 	 	 	 	 	 	 	 	 	1581497796	8.77	16.24
12/02/2020 08:56:37	120220	12022020	085637	185.56	12.761630	-57.141263	185.62	0.200	-1.140	2.280	185.54	-2.50	2.80	 	 	 	 	 	 	 	 	 	 	 	 	 	 	 	 	 	 	1581497797	8.44	15.63
12/02/2020 08:56:38	120220	12022020	085638	185.55	12.761598	-57.141270	185.66	-0.150	0.080	2.530	185.57	-1.30	3.00	 	 	 	 	 	 	 	 	 	 	 	 	 	 	 	 	 	 	1581497798	7.16	13.26
12/02/2020 08:56:39	120220	12022020	085639	185.55	12.761568	-57.141278	185.58	-0.460	0.860	2.560	185.52	-0.60	3.00	 	 	 	 	 	 	 	 	 	 	 	 	 	 	 	 	 	 	1581497799	6.36	11.78
12/02/2020 08:56:40	120220	12022020	085640	185.30	12.761538	-57.141285	185.30	-0.320	0.690	2.410	185.25	-0.80	2.90	 	 	 	 	 	 	 	 	 	 	 	 	 	 	 	 	 	 	1581497800	6.81	12.61
12/02/2020 08:56:41	120220	12022020	085641	185.14	12.761502	-57.141290	185.24	0.120	0.230	2.000	185.15	-1.20	2.40	 	 	 	 	 	 	 	 	 	 	 	 	 	 	 	 	 	 	1581497801	7.76	14.37
12/02/2020 08:56:42	120220	12022020	085642	185.41	12.761465	-57.141293	185.60	0.500	0.020	1.310	185.50	-1.40	1.70	 	 	 	 	 	 	 	 	 	 	 	 	 	 	 	 	 	 	1581497802	7.90	14.63
12/02/2020 08:56:43	120220	12022020	085643	185.84	12.761432	-57.141297	185.95	0.640	-0.170	0.730	185.90	-1.60	1.20	 	 	 	 	 	 	 	 	 	 	 	 	 	 	 	 	 	 	1581497803	7.36	13.63
12/02/2020 08:56:44	120220	12022020	085644	185.97	12.761398	-57.141298	185.97	0.630	-0.630	0.740	185.95	-2.10	1.20	 	 	 	 	 	 	 	 	 	 	 	 	 	 	 	 	 	 	1581497804	7.19	13.32
12/02/2020 08:56:45	120220	12022020	085645	185.86	12.761363	-57.141302	185.88	0.380	-1.040	1.250	185.85	-2.50	1.70	 	 	 	 	 	 	 	 	 	 	 	 	 	 	 	 	 	 	1581497805	7.56	14.00
12/02/2020 08:56:46	120220	12022020	085646	185.86	12.761328	-57.141307	185.93	-0.170	-1.020	2.040	185.87	-2.50	2.50	 	 	 	 	 	 	 	 	 	 	 	 	 	 	 	 	 	 	1581497806	7.62	14.11
12/02/2020 08:56:47	120220	12022020	085647	185.89	12.761295	-57.141318	185.94	-0.750	-0.710	2.970	185.88	-2.10	3.50	 	 	 	 	 	 	 	 	 	 	 	 	 	 	 	 	 	 	1581497807	7.41	13.72
12/02/2020 08:56:48	120220	12022020	085648	185.76	12.761263	-57.141333	185.75	-0.890	-0.460	3.640	185.70	-1.90	4.10	 	 	 	 	 	 	 	 	 	 	 	 	 	 	 	 	 	 	1581497808	7.45	13.80
12/02/2020 08:56:49	120220	12022020	085649	185.42	12.761230	-57.141347	185.39	-0.390	-0.400	3.780	185.34	-1.90	4.20	 	 	 	 	 	 	 	 	 	 	 	 	 	 	 	 	 	 	1581497809	7.66	14.19
12/02/2020 08:56:50	120220	12022020	085650	185.07	12.761195	-57.141355	185.10	0.370	-0.260	3.260	185.03	-1.70	3.70	 	 	 	 	 	 	 	 	 	 	 	 	 	 	 	 	 	 	1581497810	7.89	14.61
12/02/2020 08:56:51	120220	12022020	085651	185.03	12.761158	-57.141358	185.18	0.820	0.180	2.090	185.08	-1.30	2.50	 	 	 	 	 	 	 	 	 	 	 	 	 	 	 	 	 	 	1581497811	7.80	14.45
12/02/2020 08:56:52	120220	12022020	085652	185.44	12.761125	-57.141355	185.68	0.660	0.670	0.720	185.56	-0.80	1.10	 	 	 	 	 	 	 	 	 	 	 	 	 	 	 	 	 	 	1581497812	7.46	13.82
12/02/2020 08:56:53	120220	12022020	085653	186.05	12.761092	-57.141350	186.22	0.030	0.630	0.130	186.14	-0.90	0.60	 	 	 	 	 	 	 	 	 	 	 	 	 	 	 	 	 	 	1581497813	7.26	13.45
12/02/2020 08:56:54	120220	12022020	085654	186.32	12.761057	-57.141350	186.35	-0.520	-0.230	0.800	186.31	-1.70	1.30	 	 	 	 	 	 	 	 	 	 	 	 	 	 	 	 	 	 	1581497814	7.36	13.63
12/02/2020 08:56:55	120220	12022020	085655	186.12	12.761020	-57.141360	186.09	-0.640	-1.280	2.080	186.04	-2.80	2.60	 	 	 	 	 	 	 	 	 	 	 	 	 	 	 	 	 	 	1581497815	8.21	15.20
12/02/2020 08:56:56	120220	12022020	085656	185.57	12.760982	-57.141375	185.63	-0.400	-1.580	3.260	185.57	-3.00	3.80	 	 	 	 	 	 	 	 	 	 	 	 	 	 	 	 	 	 	1581497816	8.72	16.15
12/02/2020 08:56:57	120220	12022020	085657	185.23	12.760947	-57.141390	185.27	-0.180	-0.880	3.890	185.18	-2.30	4.30	 	 	 	 	 	 	 	 	 	 	 	 	 	 	 	 	 	 	1581497817	8.14	15.08
12/02/2020 08:56:58	120220	12022020	085658	185.09	12.760917	-57.141402	185.23	-0.120	0.280	3.590	185.10	-1.10	4.00	 	 	 	 	 	 	 	 	 	 	 	 	 	 	 	 	 	 	1581497818	7.16	13.26
12/02/2020 08:56:59	120220	12022020	085659	185.25	12.760887	-57.141408	185.43	-0.010	1.100	2.540	185.31	-0.40	3.00	 	 	 	 	 	 	 	 	 	 	 	 	 	 	 	 	 	 	1581497819	6.48	12.00
12/02/2020 08:57:00	120220	12022020	085700	185.58	12.760855	-57.141410	185.77	0.340	1.020	1.220	185.66	-0.50	1.60	 	 	 	 	 	 	 	 	 	 	 	 	 	 	 	 	 	 	1581497820	6.68	12.37
12/02/2020 08:57:01	120220	12022020	085701	185.95	12.760820	-57.141407	186.11	0.790	0.080	0.220	186.02	-1.40	0.70	1014.90	26.20	26.30	20.50	20.60	-1.0	70.0	70.0	392.0	25.8	272.00	9.30	74.00	10.00	16	9160.0	27.4	27.4	1581497821	7.54	13.96
12/02/2020 08:57:02	120220	12022020	085702	186.19	12.760782	-57.141405	186.25	1.000	-1.100	0.030	186.19	-2.60	0.50	 	 	 	 	 	 	 	 	 	 	 	 	 	 	 	 	 	 	1581497822	8.27	15.32
12/02/2020 08:57:03	120220	12022020	085703	186.04	12.760743	-57.141407	185.98	0.750	-1.820	0.760	185.96	-3.30	1.30	 	 	 	 	 	 	 	 	 	 	 	 	 	 	 	 	 	 	1581497823	8.36	15.48
12/02/2020 08:57:04	120220	12022020	085704	185.57	12.760707	-57.141413	185.51	0.140	-1.710	2.000	185.47	-3.10	2.50	 	 	 	 	 	 	 	 	 	 	 	 	 	 	 	 	 	 	1581497824	8.03	14.87
12/02/2020 08:57:05	120220	12022020	085705	185.16	12.760673	-57.141423	185.20	-0.520	-0.870	3.040	185.12	-2.30	3.50	 	 	 	 	 	 	 	 	 	 	 	 	 	 	 	 	 	 	1581497825	7.64	14.15
12/02/2020 08:57:06	120220	12022020	085706	185.07	12.760642	-57.141437	185.21	-1.030	0.160	3.580	185.08	-1.30	4.00	 	 	 	 	 	 	 	 	 	 	 	 	 	 	 	 	 	 	1581497826	7.25	13.43
12/02/2020 08:57:07	120220	12022020	085707	185.24	12.760610	-57.141448	185.43	-1.210	0.860	3.570	185.29	-0.60	4.00	 	 	 	 	 	 	 	 	 	 	 	 	 	 	 	 	 	 	1581497827	7.17	13.28
12/02/2020 08:57:08	120220	12022020	085708	185.64	12.760578	-57.141460	185.77	-0.940	1.000	2.980	185.64	-0.50	3.40	 	 	 	 	 	 	 	 	 	 	 	 	 	 	 	 	 	 	1581497828	7.36	13.63
12/02/2020 08:57:09	120220	12022020	085709	185.93	12.760543	-57.141467	186.11	-0.250	0.620	1.980	185.99	-0.90	2.40	 	 	 	 	 	 	 	 	 	 	 	 	 	 	 	 	 	 	1581497829	7.65	14.17
12/02/2020 08:57:10	120220	12022020	085710	186.17	12.760507	-57.141468	186.28	0.520	-0.070	0.980	186.20	-1.60	1.40	 	 	 	 	 	 	 	 	 	 	 	 	 	 	 	 	 	 	1581497830	7.97	14.76
12/02/2020 08:57:11	120220	12022020	085711	186.25	12.760468	-57.141467	186.33	0.940	-0.670	0.390	186.27	-2.10	0.90	 	 	 	 	 	 	 	 	 	 	 	 	 	 	 	 	 	 	1581497831	8.22	15.22
12/02/2020 08:57:12	120220	12022020	085712	186.35	12.760430	-57.141467	186.43	0.850	-0.800	0.360	186.37	-2.30	0.90	 	 	 	 	 	 	 	 	 	 	 	 	 	 	 	 	 	 	1581497832	7.97	14.76
12/02/2020 08:57:13	120220	12022020	085713	186.40	12.760397	-57.141468	186.42	0.470	-0.670	0.890	186.37	-2.10	1.40	 	 	 	 	 	 	 	 	 	 	 	 	 	 	 	 	 	 	1581497833	7.35	13.61
12/02/2020 08:57:14	120220	12022020	085714	186.13	12.760363	-57.141475	186.17	0.130	-0.600	1.800	186.13	-2.10	2.30	 	 	 	 	 	 	 	 	 	 	 	 	 	 	 	 	 	 	1581497834	7.13	13.20
12/02/2020 08:57:15	120220	12022020	085715	185.89	12.760330	-57.141483	185.88	-0.080	-0.540	2.660	185.83	-2.00	3.10	 	 	 	 	 	 	 	 	 	 	 	 	 	 	 	 	 	 	1581497835	7.46	13.82
12/02/2020 08:57:16	120220	12022020	085716	185.65	12.760297	-57.141493	185.72	-0.280	-0.440	3.180	185.65	-1.90	3.60	 	 	 	 	 	 	 	 	 	 	 	 	 	 	 	 	 	 	1581497836	7.68	14.22
12/02/2020 08:57:17	120220	12022020	085717	185.53	12.760262	-57.141503	185.56	-0.440	-0.370	3.340	185.50	-1.80	3.80	 	 	 	 	 	 	 	 	 	 	 	 	 	 	 	 	 	 	1581497837	7.73	14.32
12/02/2020 08:57:18	120220	12022020	085718	185.32	12.760227	-57.141513	185.38	-0.470	-0.230	3.170	185.29	-1.70	3.60	 	 	 	 	 	 	 	 	 	 	 	 	 	 	 	 	 	 	1581497838	7.84	14.52
12/02/2020 08:57:19	120220	12022020	085719	185.32	12.760190	-57.141520	185.50	-0.420	0.250	2.600	185.37	-1.20	3.00	 	 	 	 	 	 	 	 	 	 	 	 	 	 	 	 	 	 	1581497839	7.81	14.46
12/02/2020 08:57:20	120220	12022020	085720	185.76	12.760157	-57.141525	186.02	-0.300	0.810	1.680	185.90	-0.60	2.10	 	 	 	 	 	 	 	 	 	 	 	 	 	 	 	 	 	 	1581497840	7.32	13.56
12/02/2020 08:57:21	120220	12022020	085721	186.48	12.760125	-57.141528	186.75	-0.020	0.820	0.680	186.64	-0.70	1.10	 	 	 	 	 	 	 	 	 	 	 	 	 	 	 	 	 	 	1581497841	7.00	12.96
12/02/2020 08:57:22	120220	12022020	085722	187.14	12.760090	-57.141530	187.28	0.440	0.040	0.010	187.22	-1.50	0.50	 	 	 	 	 	 	 	 	 	 	 	 	 	 	 	 	 	 	1581497842	7.36	13.63
12/02/2020 08:57:23	120220	12022020	085723	187.29	12.760053	-57.141532	187.26	0.870	-1.200	0.160	187.25	-2.70	0.60	 	 	 	 	 	 	 	 	 	 	 	 	 	 	 	 	 	 	1581497843	8.07	14.95
12/02/2020 08:57:24	120220	12022020	085724	186.97	12.760013	-57.141535	186.89	0.860	-1.890	1.100	186.88	-3.30	1.60	 	 	 	 	 	 	 	 	 	 	 	 	 	 	 	 	 	 	1581497844	8.54	15.82
12/02/2020 08:57:25	120220	12022020	085725	186.57	12.759977	-57.141543	186.54	0.250	-1.300	2.180	186.51	-2.70	2.70	 	 	 	 	 	 	 	 	 	 	 	 	 	 	 	 	 	 	1581497845	8.09	14.98
12/02/2020 08:57:26	120220	12022020	085726	186.24	12.759945	-57.141553	186.29	-0.530	-0.070	3.000	186.24	-1.50	3.50	 	 	 	 	 	 	 	 	 	 	 	 	 	 	 	 	 	 	1581497846	6.97	12.91
12/02/2020 08:57:27	120220	12022020	085727	185.98	12.759917	-57.141565	185.98	-0.850	0.350	3.550	185.92	-1.10	4.00	 	 	 	 	 	 	 	 	 	 	 	 	 	 	 	 	 	 	1581497847	6.64	12.30
12/02/2020 08:57:28	120220	12022020	085728	185.62	12.759883	-57.141577	185.70	-0.530	-0.110	3.740	185.62	-1.60	4.20	 	 	 	 	 	 	 	 	 	 	 	 	 	 	 	 	 	 	1581497848	7.76	14.37
12/02/2020 08:57:29	120220	12022020	085729	185.52	12.759843	-57.141587	185.65	-0.000	-0.240	3.440	185.53	-1.70	3.80	 	 	 	 	 	 	 	 	 	 	 	 	 	 	 	 	 	 	1581497849	8.69	16.09
12/02/2020 08:57:30	120220	12022020	085730	185.75	12.759807	-57.141593	186.00	0.210	0.400	2.550	185.84	-1.00	2.90	 	 	 	 	 	 	 	 	 	 	 	 	 	 	 	 	 	 	1581497850	8.11	15.02
12/02/2020 08:57:31	120220	12022020	085731	186.41	12.759775	-57.141595	186.73	0.060	1.040	1.350	186.55	-0.40	1.80	 	 	 	 	 	 	 	 	 	 	 	 	 	 	 	 	 	 	1581497851	7.00	12.96
12/02/2020 08:57:32	120220	12022020	085732	187.30	12.759743	-57.141595	187.43	-0.070	0.800	0.480	187.30	-0.70	0.90	 	 	 	 	 	 	 	 	 	 	 	 	 	 	 	 	 	 	1581497852	6.71	12.43
12/02/2020 08:57:33	120220	12022020	085733	187.60	12.759708	-57.141597	187.69	0.180	-0.420	0.320	187.63	-1.90	0.80	 	 	 	 	 	 	 	 	 	 	 	 	 	 	 	 	 	 	1581497853	7.37	13.65
12/02/2020 08:57:34	120220	12022020	085734	187.44	12.759670	-57.141602	187.48	0.620	-1.740	0.630	187.44	-3.20	1.10	 	 	 	 	 	 	 	 	 	 	 	 	 	 	 	 	 	 	1581497854	8.31	15.39
12/02/2020 08:57:35	120220	12022020	085735	187.11	12.759632	-57.141608	187.07	0.700	-2.090	1.420	187.02	-3.50	1.90	 	 	 	 	 	 	 	 	 	 	 	 	 	 	 	 	 	 	1581497855	8.53	15.80
12/02/2020 08:57:36	120220	12022020	085736	186.46	12.759597	-57.141617	186.52	0.200	-1.360	2.490	186.46	-2.80	3.00	 	 	 	 	 	 	 	 	 	 	 	 	 	 	 	 	 	 	1581497856	7.77	14.39
12/02/2020 08:57:37	120220	12022020	085737	185.94	12.759565	-57.141627	185.90	-0.520	-0.250	3.210	185.82	-1.60	3.70	 	 	 	 	 	 	 	 	 	 	 	 	 	 	 	 	 	 	1581497857	7.13	13.20
12/02/2020 08:57:38	120220	12022020	085738	185.63	12.759533	-57.141640	185.77	-1.050	0.850	3.240	185.63	-0.50	3.70	 	 	 	 	 	 	 	 	 	 	 	 	 	 	 	 	 	 	1581497858	7.13	13.20
12/02/2020 08:57:39	120220	12022020	085739	185.94	12.759503	-57.141652	186.24	-1.010	1.510	2.590	186.07	0.10	3.00	 	 	 	 	 	 	 	 	 	 	 	 	 	 	 	 	 	 	1581497859	7.10	13.15
12/02/2020 08:57:40	120220	12022020	085740	186.71	12.759470	-57.141658	186.86	-0.320	1.150	1.550	186.71	-0.30	2.00	 	 	 	 	 	 	 	 	 	 	 	 	 	 	 	 	 	 	1581497860	7.14	13.22
12/02/2020 08:57:41	120220	12022020	085741	187.09	12.759433	-57.141662	187.25	0.600	-0.110	0.770	187.15	-1.60	1.20	 	 	 	 	 	 	 	 	 	 	 	 	 	 	 	 	 	 	1581497861	7.91	14.65
12/02/2020 08:57:42	120220	12022020	085742	187.29	12.759393	-57.141663	187.38	1.170	-1.290	0.680	187.30	-2.80	1.20	 	 	 	 	 	 	 	 	 	 	 	 	 	 	 	 	 	 	1581497862	8.71	16.13
12/02/2020 08:57:43	120220	12022020	085743	187.29	12.759353	-57.141667	187.37	1.050	-1.490	1.190	187.29	-2.90	1.70	 	 	 	 	 	 	 	 	 	 	 	 	 	 	 	 	 	 	1581497863	8.49	15.72
12/02/2020 08:57:44	120220	12022020	085744	187.27	12.759320	-57.141673	187.36	0.380	-0.730	1.840	187.27	-2.10	2.30	 	 	 	 	 	 	 	 	 	 	 	 	 	 	 	 	 	 	1581497864	7.44	13.78
12/02/2020 08:57:45	120220	12022020	085745	187.18	12.759290	-57.141680	187.22	-0.390	0.020	2.460	187.13	-1.40	2.90	 	 	 	 	 	 	 	 	 	 	 	 	 	 	 	 	 	 	1581497865	6.52	12.08
12/02/2020 08:57:46	120220	12022020	085746	186.86	12.759260	-57.141690	186.95	-0.820	0.110	2.930	186.86	-1.30	3.40	 	 	 	 	 	 	 	 	 	 	 	 	 	 	 	 	 	 	1581497866	6.77	12.54
12/02/2020 08:57:47	120220	12022020	085747	186.60	12.759227	-57.141702	186.62	-0.770	-0.310	3.180	186.52	-1.70	3.60	 	 	 	 	 	 	 	 	 	 	 	 	 	 	 	 	 	 	1581497867	7.67	14.20
12/02/2020 08:57:48	120220	12022020	085748	186.13	12.759190	-57.141713	186.23	-0.360	-0.680	3.220	186.13	-2.10	3.60	 	 	 	 	 	 	 	 	 	 	 	 	 	 	 	 	 	 	1581497868	8.31	15.39
12/02/2020 08:57:49	120220	12022020	085749	185.88	12.759152	-57.141723	185.99	0.110	-0.410	2.880	185.85	-1.80	3.30	 	 	 	 	 	 	 	 	 	 	 	 	 	 	 	 	 	 	1581497869	8.30	15.37
12/02/2020 08:57:50	120220	12022020	085750	185.99	12.759118	-57.141730	186.27	0.350	0.540	1.930	186.09	-0.80	2.30	 	 	 	 	 	 	 	 	 	 	 	 	 	 	 	 	 	 	1581497870	7.56	14.00
12/02/2020 08:57:51	120220	12022020	085751	186.68	12.759087	-57.141730	187.01	0.230	1.260	0.900	186.84	-0.10	1.30	 	 	 	 	 	 	 	 	 	 	 	 	 	 	 	 	 	 	1581497871	6.60	12.22
12/02/2020 08:57:52	120220	12022020	085752	187.40	12.759057	-57.141730	187.60	0.060	0.760	0.370	187.49	-0.70	0.80	 	 	 	 	 	 	 	 	 	 	 	 	 	 	 	 	 	 	1581497872	6.50	12.04
12/02/2020 08:57:53	120220	12022020	085753	187.59	12.759022	-57.141732	187.62	0.140	-0.840	0.640	187.56	-2.30	1.10	 	 	 	 	 	 	 	 	 	 	 	 	 	 	 	 	 	 	1581497873	7.51	13.91
12/02/2020 08:57:54	120220	12022020	085754	187.27	12.758983	-57.141740	187.22	0.330	-2.180	1.510	187.18	-3.60	2.00	 	 	 	 	 	 	 	 	 	 	 	 	 	 	 	 	 	 	1581497874	8.67	16.06
12/02/2020 08:57:55	120220	12022020	085755	186.72	12.758943	-57.141752	186.68	0.410	-2.180	2.380	186.61	-3.50	2.90	 	 	 	 	 	 	 	 	 	 	 	 	 	 	 	 	 	 	1581497875	8.64	16.00
12/02/2020 08:57:56	120220	12022020	085756	186.21	12.758910	-57.141763	186.22	0.350	-1.120	2.720	186.13	-2.50	3.20	 	 	 	 	 	 	 	 	 	 	 	 	 	 	 	 	 	 	1581497876	7.56	14.00
12/02/2020 08:57:57	120220	12022020	085757	185.93	12.758880	-57.141770	186.04	0.100	0.070	2.600	185.92	-1.30	3.00	 	 	 	 	 	 	 	 	 	 	 	 	 	 	 	 	 	 	1581497877	6.74	12.48
12/02/2020 08:57:58	120220	12022020	085758	186.03	12.758848	-57.141772	186.25	-0.370	0.870	2.380	186.10	-0.50	2.80	 	 	 	 	 	 	 	 	 	 	 	 	 	 	 	 	 	 	1581497878	6.81	12.61
12/02/2020 08:57:59	120220	12022020	085759	186.44	12.758815	-57.141777	186.69	-0.850	1.120	2.190	186.54	-0.30	2.60	 	 	 	 	 	 	 	 	 	 	 	 	 	 	 	 	 	 	1581497879	7.19	13.32
12/02/2020 08:58:00	120220	12022020	085800	186.99	12.758782	-57.141785	187.14	-1.000	0.840	2.000	186.99	-0.60	2.40	 	 	 	 	 	 	 	 	 	 	 	 	 	 	 	 	 	 	1581497880	7.54	13.96
12/02/2020 08:58:01	120220	12022020	085801	187.27	12.758745	-57.141795	187.46	-0.610	0.140	1.810	187.33	-1.30	2.30	1014.90	26.10	26.20	20.40	20.50	-1.0	70.0	70.0	392.0	25.8	269.00	10.00	74.00	10.80	16	9825.0	27.4	27.4	1581497881	7.89	14.61
12/02/2020 08:58:02	120220	12022020	085802	187.50	12.758708	-57.141803	187.62	0.090	-0.590	1.740	187.50	-2.00	2.20	 	 	 	 	 	 	 	 	 	 	 	 	 	 	 	 	 	 	1581497882	8.11	15.02
12/02/2020 08:58:03	120220	12022020	085803	187.44	12.758672	-57.141810	187.47	0.650	-0.940	1.670	187.39	-2.30	2.10	 	 	 	 	 	 	 	 	 	 	 	 	 	 	 	 	 	 	1581497883	7.98	14.78
12/02/2020 08:58:04	120220	12022020	085804	187.12	12.758637	-57.141815	187.13	0.820	-0.780	1.490	187.06	-2.20	1.90	 	 	 	 	 	 	 	 	 	 	 	 	 	 	 	 	 	 	1581497884	7.58	14.04
12/02/2020 08:58:05	120220	12022020	085805	186.94	12.758605	-57.141820	187.06	0.670	-0.310	1.270	186.95	-1.70	1.70	 	 	 	 	 	 	 	 	 	 	 	 	 	 	 	 	 	 	1581497885	7.16	13.26
12/02/2020 08:58:06	120220	12022020	085806	187.13	12.758572	-57.141823	187.32	0.440	0.100	0.960	187.19	-1.30	1.40	 	 	 	 	 	 	 	 	 	 	 	 	 	 	 	 	 	 	1581497886	6.91	12.80
12/02/2020 08:58:07	120220	12022020	085807	187.43	12.758540	-57.141825	187.57	0.230	0.030	0.850	187.47	-1.40	1.30	 	 	 	 	 	 	 	 	 	 	 	 	 	 	 	 	 	 	1581497887	6.99	12.95
12/02/2020 08:58:08	120220	12022020	085808	187.50	12.758505	-57.141830	187.55	0.010	-0.460	1.260	187.48	-1.90	1.70	 	 	 	 	 	 	 	 	 	 	 	 	 	 	 	 	 	 	1581497888	7.51	13.91
12/02/2020 08:58:09	120220	12022020	085809	187.34	12.758468	-57.141838	187.40	-0.290	-0.780	1.920	187.31	-2.20	2.40	 	 	 	 	 	 	 	 	 	 	 	 	 	 	 	 	 	 	1581497889	8.04	14.89
12/02/2020 08:58:10	120220	12022020	085810	187.22	12.758433	-57.141850	187.34	-0.580	-0.590	2.450	187.22	-2.00	2.90	 	 	 	 	 	 	 	 	 	 	 	 	 	 	 	 	 	 	1581497890	8.00	14.82
12/02/2020 08:58:11	120220	12022020	085811	187.20	12.758400	-57.141863	187.30	-0.620	-0.220	2.560	187.19	-1.60	3.00	 	 	 	 	 	 	 	 	 	 	 	 	 	 	 	 	 	 	1581497891	7.56	14.00
12/02/2020 08:58:12	120220	12022020	085812	187.07	12.758368	-57.141873	187.17	-0.290	-0.190	2.300	187.07	-1.60	2.70	 	 	 	 	 	 	 	 	 	 	 	 	 	 	 	 	 	 	1581497892	7.36	13.63
12/02/2020 08:58:13	120220	12022020	085813	186.95	12.758332	-57.141878	187.04	0.130	-0.440	1.920	186.93	-1.90	2.30	 	 	 	 	 	 	 	 	 	 	 	 	 	 	 	 	 	 	1581497893	7.77	14.39
12/02/2020 08:58:14	120220	12022020	085814	186.96	12.758293	-57.141882	187.09	0.200	-0.500	1.660	186.98	-1.90	2.10	 	 	 	 	 	 	 	 	 	 	 	 	 	 	 	 	 	 	1581497894	8.20	15.19
12/02/2020 08:58:15	120220	12022020	085815	187.10	12.758257	-57.141887	187.26	-0.120	-0.060	1.680	187.14	-1.40	2.10	 	 	 	 	 	 	 	 	 	 	 	 	 	 	 	 	 	 	1581497895	7.92	14.67
12/02/2020 08:58:16	120220	12022020	085816	187.30	12.758225	-57.141895	187.46	-0.430	0.600	1.750	187.35	-0.80	2.20	 	 	 	 	 	 	 	 	 	 	 	 	 	 	 	 	 	 	1581497896	7.27	13.46
12/02/2020 08:58:17	120220	12022020	085817	187.51	12.758193	-57.141902	187.64	-0.270	0.820	1.610	187.54	-0.60	2.00	 	 	 	 	 	 	 	 	 	 	 	 	 	 	 	 	 	 	1581497897	6.90	12.78
12/02/2020 08:58:18	120220	12022020	085818	187.53	12.758160	-57.141908	187.55	0.390	0.190	1.520	187.49	-1.30	2.00	 	 	 	 	 	 	 	 	 	 	 	 	 	 	 	 	 	 	1581497898	7.20	13.33
12/02/2020 08:58:19	120220	12022020	085819	187.21	12.758123	-57.141913	187.18	1.010	-0.700	1.710	187.13	-2.10	2.20	 	 	 	 	 	 	 	 	 	 	 	 	 	 	 	 	 	 	1581497899	8.07	14.95
12/02/2020 08:58:20	120220	12022020	085820	186.83	12.758085	-57.141918	186.85	0.970	-0.990	2.040	186.79	-2.40	2.50	 	 	 	 	 	 	 	 	 	 	 	 	 	 	 	 	 	 	1581497900	8.36	15.48
12/02/2020 08:58:21	120220	12022020	085821	186.66	12.758050	-57.141925	186.77	0.230	-0.620	2.370	186.66	-2.00	2.80	 	 	 	 	 	 	 	 	 	 	 	 	 	 	 	 	 	 	1581497901	7.72	14.30
12/02/2020 08:58:22	120220	12022020	085822	186.87	12.758017	-57.141933	187.02	-0.640	-0.010	2.490	186.87	-1.40	2.90	 	 	 	 	 	 	 	 	 	 	 	 	 	 	 	 	 	 	1581497902	7.15	13.24
12/02/2020 08:58:23	120220	12022020	085823	187.26	12.757987	-57.141945	187.54	-0.970	0.390	2.070	187.38	-1.00	2.50	 	 	 	 	 	 	 	 	 	 	 	 	 	 	 	 	 	 	1581497903	6.98	12.93
12/02/2020 08:58:24	120220	12022020	085824	187.99	12.757955	-57.141955	188.12	-0.580	0.130	1.290	187.99	-1.30	1.70	 	 	 	 	 	 	 	 	 	 	 	 	 	 	 	 	 	 	1581497904	7.02	13.00
12/02/2020 08:58:25	120220	12022020	085825	188.27	12.757920	-57.141960	188.34	0.110	-0.890	0.670	188.28	-2.40	1.10	 	 	 	 	 	 	 	 	 	 	 	 	 	 	 	 	 	 	1581497905	7.63	14.13
12/02/2020 08:58:26	120220	12022020	085826	187.94	12.757882	-57.141963	187.95	0.640	-1.930	0.710	187.94	-3.40	1.20	 	 	 	 	 	 	 	 	 	 	 	 	 	 	 	 	 	 	1581497906	8.54	15.82
12/02/2020 08:58:27	120220	12022020	085827	187.42	12.757840	-57.141968	187.34	0.650	-1.930	1.190	187.30	-3.30	1.70	 	 	 	 	 	 	 	 	 	 	 	 	 	 	 	 	 	 	1581497907	8.83	16.35
12/02/2020 08:58:28	120220	12022020	085828	187.00	12.757803	-57.141975	187.06	0.080	-0.560	1.570	186.97	-1.90	2.00	 	 	 	 	 	 	 	 	 	 	 	 	 	 	 	 	 	 	1581497908	8.06	14.93
12/02/2020 08:58:29	120220	12022020	085829	186.97	12.757772	-57.141982	187.10	-0.710	1.130	1.760	186.99	-0.20	2.20	 	 	 	 	 	 	 	 	 	 	 	 	 	 	 	 	 	 	1581497909	6.82	12.63
12/02/2020 08:58:30	120220	12022020	085830	187.17	12.757743	-57.141992	187.28	-1.170	1.920	1.980	187.17	0.50	2.40	 	 	 	 	 	 	 	 	 	 	 	 	 	 	 	 	 	 	1581497910	6.56	12.15
12/02/2020 08:58:31	120220	12022020	085831	187.37	12.757710	-57.142003	187.56	-0.920	1.610	2.040	187.43	0.20	2.50	 	 	 	 	 	 	 	 	 	 	 	 	 	 	 	 	 	 	1581497911	7.42	13.74
12/02/2020 08:58:32	120220	12022020	085832	187.61	12.757675	-57.142013	187.77	-0.060	0.570	1.910	187.64	-0.90	2.30	 	 	 	 	 	 	 	 	 	 	 	 	 	 	 	 	 	 	1581497912	8.15	15.09
12/02/2020 08:58:33	120220	12022020	085833	187.70	12.757635	-57.142022	187.81	0.860	-0.640	1.750	187.70	-2.10	2.20	 	 	 	 	 	 	 	 	 	 	 	 	 	 	 	 	 	 	1581497913	8.52	15.78
12/02/2020 08:58:34	120220	12022020	085834	187.63	12.757597	-57.142027	187.74	1.210	-1.310	1.530	187.63	-2.70	2.00	 	 	 	 	 	 	 	 	 	 	 	 	 	 	 	 	 	 	1581497914	8.49	15.72
12/02/2020 08:58:35	120220	12022020	085835	187.61	12.757560	-57.142030	187.76	0.800	-1.080	1.400	187.63	-2.50	1.90	 	 	 	 	 	 	 	 	 	 	 	 	 	 	 	 	 	 	1581497915	7.80	14.45
12/02/2020 08:58:36	120220	12022020	085836	187.81	12.757528	-57.142035	187.96	0.060	-0.520	1.440	187.81	-1.90	1.90	 	 	 	 	 	 	 	 	 	 	 	 	 	 	 	 	 	 	1581497916	6.82	12.63
12/02/2020 08:58:37	120220	12022020	085837	187.94	12.757498	-57.142042	188.07	-0.400	-0.390	1.650	187.94	-1.80	2.10	 	 	 	 	 	 	 	 	 	 	 	 	 	 	 	 	 	 	1581497917	6.55	12.13
12/02/2020 08:58:38	120220	12022020	085838	187.77	12.757467	-57.142050	187.76	-0.380	-0.920	2.110	187.68	-2.40	2.60	 	 	 	 	 	 	 	 	 	 	 	 	 	 	 	 	 	 	1581497918	7.29	13.50
12/02/2020 08:58:39	120220	12022020	085839	187.20	12.757430	-57.142062	187.15	-0.140	-1.410	2.720	187.07	-2.80	3.20	 	 	 	 	 	 	 	 	 	 	 	 	 	 	 	 	 	 	1581497919	8.33	15.43
12/02/2020 08:58:40	120220	12022020	085840	186.57	12.757392	-57.142073	186.68	-0.020	-1.030	3.030	186.57	-2.40	3.50	 	 	 	 	 	 	 	 	 	 	 	 	 	 	 	 	 	 	1581497920	8.62	15.96
12/02/2020 08:58:41	120220	12022020	085841	186.40	12.757355	-57.142083	186.53	-0.130	0.090	2.880	186.38	-1.30	3.30	 	 	 	 	 	 	 	 	 	 	 	 	 	 	 	 	 	 	1581497921	7.84	14.52
12/02/2020 08:58:42	120220	12022020	085842	186.43	12.757323	-57.142088	186.62	-0.260	1.000	2.390	186.47	-0.40	2.80	 	 	 	 	 	 	 	 	 	 	 	 	 	 	 	 	 	 	1581497922	7.06	13.08
12/02/2020 08:58:43	120220	12022020	085843	186.68	12.757290	-57.142092	186.91	-0.220	1.160	1.790	186.75	-0.30	2.20	 	 	 	 	 	 	 	 	 	 	 	 	 	 	 	 	 	 	1581497923	7.25	13.43
12/02/2020 08:58:44	120220	12022020	085844	187.11	12.757253	-57.142095	187.26	-0.080	0.800	1.380	187.11	-0.60	1.80	 	 	 	 	 	 	 	 	 	 	 	 	 	 	 	 	 	 	1581497924	7.85	14.54
12/02/2020 08:58:45	120220	12022020	085845	187.33	12.757217	-57.142098	187.53	-0.010	0.250	1.230	187.37	-1.20	1.70	 	 	 	 	 	 	 	 	 	 	 	 	 	 	 	 	 	 	1581497925	8.05	14.91
12/02/2020 08:58:46	120220	12022020	085846	187.58	12.757180	-57.142105	187.80	-0.040	-0.250	1.390	187.64	-1.70	1.90	 	 	 	 	 	 	 	 	 	 	 	 	 	 	 	 	 	 	1581497926	7.96	14.74
12/02/2020 08:58:47	120220	12022020	085847	187.88	12.757145	-57.142113	188.08	0.020	-0.610	1.560	187.93	-2.00	2.00	 	 	 	 	 	 	 	 	 	 	 	 	 	 	 	 	 	 	1581497927	7.63	14.13
12/02/2020 08:58:48	120220	12022020	085848	187.96	12.757112	-57.142123	188.05	0.340	-1.010	1.680	187.96	-2.40	2.10	 	 	 	 	 	 	 	 	 	 	 	 	 	 	 	 	 	 	1581497928	7.36	13.63
12/02/2020 08:58:49	120220	12022020	085849	187.64	12.757078	-57.142130	187.60	0.750	-1.420	2.000	187.53	-2.80	2.50	 	 	 	 	 	 	 	 	 	 	 	 	 	 	 	 	 	 	1581497929	7.47	13.83
12/02/2020 08:58:50	120220	12022020	085850	186.91	12.757043	-57.142137	187.00	0.830	-1.490	2.340	186.91	-2.90	2.80	 	 	 	 	 	 	 	 	 	 	 	 	 	 	 	 	 	 	1581497930	7.82	14.48
12/02/2020 08:58:51	120220	12022020	085851	186.53	12.757007	-57.142143	186.61	0.380	-1.010	2.510	186.48	-2.40	3.00	 	 	 	 	 	 	 	 	 	 	 	 	 	 	 	 	 	 	1581497931	7.85	14.54
12/02/2020 08:58:52	120220	12022020	085852	186.55	12.756972	-57.142148	186.73	-0.400	0.020	2.400	186.55	-1.30	2.80	 	 	 	 	 	 	 	 	 	 	 	 	 	 	 	 	 	 	1581497932	7.57	14.02
12/02/2020 08:58:53	120220	12022020	085853	186.95	12.756940	-57.142157	187.27	-1.080	1.090	2.030	187.08	-0.30	2.50	 	 	 	 	 	 	 	 	 	 	 	 	 	 	 	 	 	 	1581497933	7.09	13.13
12/02/2020 08:58:54	120220	12022020	085854	187.60	12.756908	-57.142165	187.74	-1.120	1.300	1.700	187.60	-0.10	2.10	 	 	 	 	 	 	 	 	 	 	 	 	 	 	 	 	 	 	1581497934	6.96	12.89
12/02/2020 08:58:55	120220	12022020	085855	187.81	12.756873	-57.142173	187.98	-0.390	0.510	1.430	187.84	-0.90	1.90	 	 	 	 	 	 	 	 	 	 	 	 	 	 	 	 	 	 	1581497935	7.77	14.39
12/02/2020 08:58:56	120220	12022020	085856	187.96	12.756833	-57.142180	188.14	0.440	-0.350	1.290	187.99	-1.80	1.70	 	 	 	 	 	 	 	 	 	 	 	 	 	 	 	 	 	 	1581497936	8.64	16.00
12/02/2020 08:58:57	120220	12022020	085857	188.05	12.756795	-57.142185	188.19	0.650	-0.740	1.510	188.05	-2.20	2.00	 	 	 	 	 	 	 	 	 	 	 	 	 	 	 	 	 	 	1581497937	8.48	15.70
12/02/2020 08:58:58	120220	12022020	085858	187.99	12.756758	-57.142192	188.06	0.300	-0.820	1.910	187.96	-2.20	2.40	 	 	 	 	 	 	 	 	 	 	 	 	 	 	 	 	 	 	1581497938	7.79	14.43
12/02/2020 08:58:59	120220	12022020	085859	187.75	12.756725	-57.142200	187.79	0.000	-0.750	2.310	187.69	-2.10	2.80	 	 	 	 	 	 	 	 	 	 	 	 	 	 	 	 	 	 	1581497939	7.49	13.87
12/02/2020 08:59:00	120220	12022020	085900	187.52	12.756692	-57.142212	187.61	0.090	-0.330	2.430	187.49	-1.70	2.90	 	 	 	 	 	 	 	 	 	 	 	 	 	 	 	 	 	 	1581497940	7.48	13.85
12/02/2020 08:59:01	120220	12022020	085901	187.44	12.756660	-57.142220	187.54	0.330	0.190	2.240	187.43	-1.20	2.70	1015.00	26.20	26.20	20.60	20.60	-1.0	71.0	71.0	392.0	25.8	270.00	9.80	75.00	10.60	16	9160.0	27.4	27.4	1581497941	7.11	13.17
12/02/2020 08:59:02	120220	12022020	085902	187.44	12.756628	-57.142223	187.55	0.370	0.200	1.870	187.44	-1.20	2.30	 	 	 	 	 	 	 	 	 	 	 	 	 	 	 	 	 	 	1581497942	7.00	12.96
12/02/2020 08:59:03	120220	12022020	085903	187.45	12.756593	-57.142228	187.55	0.130	-0.380	1.860	187.44	-1.80	2.30	 	 	 	 	 	 	 	 	 	 	 	 	 	 	 	 	 	 	1581497943	7.57	14.02
12/02/2020 08:59:04	120220	12022020	085904	187.33	12.756555	-57.142235	187.36	-0.160	-0.990	2.290	187.28	-2.40	2.80	 	 	 	 	 	 	 	 	 	 	 	 	 	 	 	 	 	 	1581497944	8.21	15.20
12/02/2020 08:59:05	120220	12022020	085905	187.03	12.756518	-57.142245	187.06	-0.290	-1.070	2.690	186.96	-2.40	3.20	 	 	 	 	 	 	 	 	 	 	 	 	 	 	 	 	 	 	1581497945	8.39	15.54
12/02/2020 08:59:06	120220	12022020	085906	186.80	12.756482	-57.142255	186.90	-0.310	-0.560	2.700	186.79	-1.90	3.10	 	 	 	 	 	 	 	 	 	 	 	 	 	 	 	 	 	 	1581497946	8.02	14.85
12/02/2020 08:59:07	120220	12022020	085907	186.84	12.756448	-57.142262	187.02	-0.300	0.130	2.210	186.89	-1.20	2.60	 	 	 	 	 	 	 	 	 	 	 	 	 	 	 	 	 	 	1581497947	7.47	13.83
12/02/2020 08:59:08	120220	12022020	085908	187.15	12.756415	-57.142268	187.38	-0.310	0.550	1.510	187.24	-0.80	1.90	 	 	 	 	 	 	 	 	 	 	 	 	 	 	 	 	 	 	1581497948	7.26	13.45
12/02/2020 08:59:09	120220	12022020	085909	187.49	12.756380	-57.142273	187.65	-0.220	0.530	1.010	187.54	-0.90	1.50	 	 	 	 	 	 	 	 	 	 	 	 	 	 	 	 	 	 	1581497949	7.39	13.69
12/02/2020 08:59:10	120220	12022020	085910	187.63	12.756345	-57.142278	187.72	0.030	0.220	0.820	187.63	-1.20	1.30	 	 	 	 	 	 	 	 	 	 	 	 	 	 	 	 	 	 	1581497950	7.67	14.20
12/02/2020 08:59:11	120220	12022020	085911	187.53	12.756308	-57.142282	187.57	0.270	-0.160	1.000	187.49	-1.60	1.50	 	 	 	 	 	 	 	 	 	 	 	 	 	 	 	 	 	 	1581497951	7.79	14.43
12/02/2020 08:59:12	120220	12022020	085912	187.26	12.756273	-57.142288	187.29	0.360	-0.540	1.390	187.21	-1.90	1.90	 	 	 	 	 	 	 	 	 	 	 	 	 	 	 	 	 	 	1581497952	7.77	14.39
12/02/2020 08:59:13	120220	12022020	085913	187.04	12.756238	-57.142295	187.11	0.260	-0.800	1.760	187.01	-2.20	2.20	 	 	 	 	 	 	 	 	 	 	 	 	 	 	 	 	 	 	1581497953	7.80	14.45
12/02/2020 08:59:14	120220	12022020	085914	186.92	12.756202	-57.142303	186.99	0.130	-0.960	2.250	186.88	-2.40	2.70	 	 	 	 	 	 	 	 	 	 	 	 	 	 	 	 	 	 	1581497954	7.78	14.41
12/02/2020 08:59:15	120220	12022020	085915	186.70	12.756167	-57.142313	186.78	0.070	-0.950	2.780	186.66	-2.30	3.20	 	 	 	 	 	 	 	 	 	 	 	 	 	 	 	 	 	 	1581497955	7.89	14.61
12/02/2020 08:59:16	120220	12022020	085916	186.57	12.756132	-57.142323	186.73	-0.040	-0.430	2.990	186.57	-1.80	3.40	 	 	 	 	 	 	 	 	 	 	 	 	 	 	 	 	 	 	1581497956	7.95	14.72
12/02/2020 08:59:17	120220	12022020	085917	186.71	12.756098	-57.142332	186.93	-0.260	0.370	2.780	186.76	-1.00	3.20	 	 	 	 	 	 	 	 	 	 	 	 	 	 	 	 	 	 	1581497957	7.47	13.83
12/02/2020 08:59:18	120220	12022020	085918	186.98	12.756065	-57.142338	187.19	-0.410	0.680	2.240	187.03	-0.70	2.70	 	 	 	 	 	 	 	 	 	 	 	 	 	 	 	 	 	 	1581497958	7.07	13.09
12/02/2020 08:59:19	120220	12022020	085919	187.20	12.756032	-57.142343	187.36	-0.340	0.380	1.630	187.23	-1.00	2.10	 	 	 	 	 	 	 	 	 	 	 	 	 	 	 	 	 	 	1581497959	7.45	13.80
12/02/2020 08:59:20	120220	12022020	085920	187.34	12.755995	-57.142347	187.46	-0.090	-0.110	1.160	187.35	-1.50	1.60	 	 	 	 	 	 	 	 	 	 	 	 	 	 	 	 	 	 	1581497960	7.96	14.74
12/02/2020 08:59:21	120220	12022020	085921	187.30	12.755957	-57.142350	187.33	0.180	-0.640	1.090	187.26	-2.10	1.60	 	 	 	 	 	 	 	 	 	 	 	 	 	 	 	 	 	 	1581497961	8.06	14.93
12/02/2020 08:59:22	120220	12022020	085922	187.06	12.755920	-57.142355	187.09	0.310	-0.970	1.380	187.01	-2.40	1.90	 	 	 	 	 	 	 	 	 	 	 	 	 	 	 	 	 	 	1581497962	8.11	15.02
12/02/2020 08:59:23	120220	12022020	085923	186.90	12.755883	-57.142363	186.99	0.240	-0.780	1.720	186.88	-2.20	2.20	 	 	 	 	 	 	 	 	 	 	 	 	 	 	 	 	 	 	1581497963	7.98	14.78
12/02/2020 08:59:24	120220	12022020	085924	186.89	12.755850	-57.142372	187.01	0.120	-0.270	1.930	186.90	-1.70	2.40	 	 	 	 	 	 	 	 	 	 	 	 	 	 	 	 	 	 	1581497964	7.53	13.95
12/02/2020 08:59:25	120220	12022020	085925	186.94	12.755817	-57.142378	187.11	0.060	0.070	1.910	186.96	-1.30	2.40	 	 	 	 	 	 	 	 	 	 	 	 	 	 	 	 	 	 	1581497965	7.25	13.43
12/02/2020 08:59:26	120220	12022020	085926	187.20	12.755782	-57.142383	187.35	-0.130	0.180	1.710	187.20	-1.20	2.20	 	 	 	 	 	 	 	 	 	 	 	 	 	 	 	 	 	 	1581497966	7.46	13.82
12/02/2020 08:59:27	120220	12022020	085927	187.43	12.755747	-57.142388	187.62	-0.490	0.090	1.780	187.48	-1.30	2.30	 	 	 	 	 	 	 	 	 	 	 	 	 	 	 	 	 	 	1581497967	7.63	14.13
12/02/2020 08:59:28	120220	12022020	085928	187.50	12.755712	-57.142397	187.56	-0.650	-0.300	2.070	187.46	-1.70	2.50	 	 	 	 	 	 	 	 	 	 	 	 	 	 	 	 	 	 	1581497968	7.75	14.35
12/02/2020 08:59:29	120220	12022020	085929	187.26	12.755675	-57.142408	187.31	-0.250	-0.700	2.160	187.21	-2.10	2.60	 	 	 	 	 	 	 	 	 	 	 	 	 	 	 	 	 	 	1581497969	8.17	15.13
12/02/2020 08:59:30	120220	12022020	085930	187.03	12.755638	-57.142418	187.13	0.490	-0.720	1.910	187.01	-2.10	2.40	 	 	 	 	 	 	 	 	 	 	 	 	 	 	 	 	 	 	1581497970	8.23	15.24
12/02/2020 08:59:31	120220	12022020	085931	186.98	12.755602	-57.142422	187.14	0.910	-0.280	1.530	187.00	-1.70	2.00	 	 	 	 	 	 	 	 	 	 	 	 	 	 	 	 	 	 	1581497971	7.88	14.59
12/02/2020 08:59:32	120220	12022020	085932	187.15	12.755567	-57.142422	187.29	0.590	0.230	1.180	187.15	-1.20	1.60	 	 	 	 	 	 	 	 	 	 	 	 	 	 	 	 	 	 	1581497972	7.43	13.76
12/02/2020 08:59:33	120220	12022020	085933	187.21	12.755533	-57.142423	187.31	-0.200	0.300	1.230	187.21	-1.10	1.70	 	 	 	 	 	 	 	 	 	 	 	 	 	 	 	 	 	 	1581497973	7.22	13.37
12/02/2020 08:59:34	120220	12022020	085934	187.08	12.755500	-57.142432	187.20	-0.830	-0.070	1.900	187.08	-1.50	2.40	 	 	 	 	 	 	 	 	 	 	 	 	 	 	 	 	 	 	1581497974	7.61	14.09
12/02/2020 08:59:35	120220	12022020	085935	187.05	12.755463	-57.142445	187.22	-0.830	-0.380	2.350	187.07	-1.80	2.80	 	 	 	 	 	 	 	 	 	 	 	 	 	 	 	 	 	 	1581497975	8.25	15.28
12/02/2020 08:59:36	120220	12022020	085936	187.22	12.755428	-57.142460	187.45	-0.320	-0.260	2.120	187.27	-1.70	2.60	 	 	 	 	 	 	 	 	 	 	 	 	 	 	 	 	 	 	1581497976	8.10	15.00
12/02/2020 08:59:37	120220	12022020	085937	187.50	12.755395	-57.142468	187.69	0.250	-0.110	1.500	187.54	-1.50	1.90	 	 	 	 	 	 	 	 	 	 	 	 	 	 	 	 	 	 	1581497977	7.36	13.63
12/02/2020 08:59:38	120220	12022020	085938	187.60	12.755362	-57.142472	187.71	0.580	-0.460	1.050	187.60	-1.90	1.50	 	 	 	 	 	 	 	 	 	 	 	 	 	 	 	 	 	 	1581497978	7.28	13.48
12/02/2020 08:59:39	120220	12022020	085939	187.49	12.755325	-57.142473	187.54	0.590	-1.070	1.090	187.45	-2.50	1.60	 	 	 	 	 	 	 	 	 	 	 	 	 	 	 	 	 	 	1581497979	7.93	14.69
12/02/2020 08:59:40	120220	12022020	085940	187.22	12.755287	-57.142478	187.23	0.370	-1.290	1.550	187.14	-2.70	2.00	 	 	 	 	 	 	 	 	 	 	 	 	 	 	 	 	 	 	1581497980	8.33	15.43
12/02/2020 08:59:41	120220	12022020	085941	186.85	12.755250	-57.142485	186.88	0.070	-0.800	2.140	186.79	-2.20	2.60	 	 	 	 	 	 	 	 	 	 	 	 	 	 	 	 	 	 	1581497981	8.12	15.04
12/02/2020 08:59:42	120220	12022020	085942	186.58	12.755215	-57.142493	186.71	-0.230	0.150	2.560	186.58	-1.20	3.00	 	 	 	 	 	 	 	 	 	 	 	 	 	 	 	 	 	 	1581497982	7.62	14.11
12/02/2020 08:59:43	120220	12022020	085943	186.59	12.755182	-57.142502	186.76	-0.430	0.930	2.530	186.61	-0.50	3.00	 	 	 	 	 	 	 	 	 	 	 	 	 	 	 	 	 	 	1581497983	7.24	13.41
12/02/2020 08:59:44	120220	12022020	085944	186.94	12.755148	-57.142508	187.10	-0.530	1.100	2.090	186.94	-0.30	2.50	 	 	 	 	 	 	 	 	 	 	 	 	 	 	 	 	 	 	1581497984	7.30	13.52
12/02/2020 08:59:45	120220	12022020	085945	187.31	12.755113	-57.142513	187.56	-0.520	0.600	1.690	187.40	-0.90	2.10	 	 	 	 	 	 	 	 	 	 	 	 	 	 	 	 	 	 	1581497985	7.66	14.19
12/02/2020 08:59:46	120220	12022020	085946	187.65	12.755077	-57.142520	187.77	-0.360	-0.350	1.580	187.65	-1.80	2.00	 	 	 	 	 	 	 	 	 	 	 	 	 	 	 	 	 	 	1581497986	8.05	14.91
12/02/2020 08:59:47	120220	12022020	085947	187.60	12.755038	-57.142528	187.69	-0.060	-1.090	1.690	187.58	-2.50	2.10	 	 	 	 	 	 	 	 	 	 	 	 	 	 	 	 	 	 	1581497987	8.40	15.56
12/02/2020 08:59:48	120220	12022020	085948	187.52	12.755002	-57.142538	187.67	0.210	-0.990	1.640	187.53	-2.40	2.10	 	 	 	 	 	 	 	 	 	 	 	 	 	 	 	 	 	 	1581497988	8.20	15.19
12/02/2020 08:59:49	120220	12022020	085949	187.66	12.754968	-57.142545	187.83	0.370	-0.390	1.270	187.70	-1.80	1.70	 	 	 	 	 	 	 	 	 	 	 	 	 	 	 	 	 	 	1581497989	7.30	13.52
12/02/2020 08:59:50	120220	12022020	085950	187.82	12.754937	-57.142550	187.91	0.500	-0.180	0.830	187.83	-1.60	1.30	 	 	 	 	 	 	 	 	 	 	 	 	 	 	 	 	 	 	1581497990	6.77	12.54
12/02/2020 08:59:51	120220	12022020	085951	187.72	12.754903	-57.142552	187.72	0.700	-0.680	0.640	187.67	-2.10	1.10	 	 	 	 	 	 	 	 	 	 	 	 	 	 	 	 	 	 	1581497991	7.39	13.69
12/02/2020 08:59:52	120220	12022020	085952	187.37	12.754863	-57.142553	187.36	0.710	-1.100	0.920	187.30	-2.50	1.40	 	 	 	 	 	 	 	 	 	 	 	 	 	 	 	 	 	 	1581497992	8.37	15.50
12/02/2020 08:59:53	120220	12022020	085953	187.04	12.754825	-57.142558	187.09	0.240	-0.770	1.520	187.00	-2.10	2.00	 	 	 	 	 	 	 	 	 	 	 	 	 	 	 	 	 	 	1581497993	8.46	15.67
12/02/2020 08:59:54	120220	12022020	085954	186.96	12.754790	-57.142565	187.10	-0.550	0.080	2.120	186.97	-1.30	2.60	 	 	 	 	 	 	 	 	 	 	 	 	 	 	 	 	 	 	1581497994	7.82	14.48
12/02/2020 08:59:55	120220	12022020	085955	187.15	12.754757	-57.142577	187.36	-1.160	0.830	2.480	187.21	-0.60	2.90	 	 	 	 	 	 	 	 	 	 	 	 	 	 	 	 	 	 	1581497995	7.44	13.78
12/02/2020 08:59:56	120220	12022020	085956	187.49	12.754723	-57.142590	187.75	-1.150	1.020	2.500	187.58	-0.40	2.90	 	 	 	 	 	 	 	 	 	 	 	 	 	 	 	 	 	 	1581497996	7.56	14.00
12/02/2020 08:59:57	120220	12022020	085957	187.95	12.754688	-57.142602	188.24	-0.640	0.690	2.130	188.06	-0.70	2.60	 	 	 	 	 	 	 	 	 	 	 	 	 	 	 	 	 	 	1581497997	7.88	14.59
12/02/2020 08:59:58	120220	12022020	085958	188.50	12.754653	-57.142610	188.78	-0.050	0.120	1.520	188.60	-1.30	1.90	 	 	 	 	 	 	 	 	 	 	 	 	 	 	 	 	 	 	1581497998	8.03	14.87
12/02/2020 08:59:59	120220	12022020	085959	188.88	12.754617	-57.142615	189.06	0.380	-0.540	0.970	188.92	-2.00	1.40	 	 	 	 	 	 	 	 	 	 	 	 	 	 	 	 	 	 	1581497999	7.94	14.70
12/02/2020 09:00:00	120220	12022020	090000	188.87	12.754580	-57.142622	188.90	0.750	-1.140	0.750	188.81	-2.60	1.20	 	 	 	 	 	 	 	 	 	 	 	 	 	 	 	 	 	 	1581498000	7.86	14.56
12/02/2020 09:00:01	120220	12022020	090001	188.41	12.754543	-57.142627	188.38	1.090	-1.380	0.830	188.31	-2.80	1.30	1015.00	26.20	26.20	20.80	20.80	-1.0	72.0	72.0	392.0	25.8	274.00	9.40	78.00	10.00	16	10056.0	27.4	27.4	1581498001	7.85	14.54
12/02/2020 09:00:02	120220	12022020	090002	187.90	12.754508	-57.142630	188.01	1.030	-0.980	0.920	187.90	-2.30	1.40	 	 	 	 	 	 	 	 	 	 	 	 	 	 	 	 	 	 	1581498002	7.79	14.43
12/02/2020 09:00:03	120220	12022020	090003	187.90	12.754473	-57.142632	188.07	0.400	-0.260	1.010	187.94	-1.60	1.50	 	 	 	 	 	 	 	 	 	 	 	 	 	 	 	 	 	 	1581498003	7.37	13.65
12/02/2020 09:00:04	120220	12022020	090004	188.20	12.754440	-57.142637	188.34	-0.410	0.160	1.320	188.20	-1.20	1.80	 	 	 	 	 	 	 	 	 	 	 	 	 	 	 	 	 	 	1581498004	7.16	13.26
12/02/2020 09:00:05	120220	12022020	090005	188.31	12.754407	-57.142647	188.45	-0.800	-0.020	1.970	188.31	-1.40	2.50	 	 	 	 	 	 	 	 	 	 	 	 	 	 	 	 	 	 	1581498005	7.64	14.15
12/02/2020 09:00:06	120220	12022020	090006	188.30	12.754370	-57.142660	188.42	-0.610	-0.440	2.620	188.28	-1.90	3.10	 	 	 	 	 	 	 	 	 	 	 	 	 	 	 	 	 	 	1581498006	8.47	15.69
12/02/2020 09:00:07	120220	12022020	090007	188.20	12.754332	-57.142673	188.35	-0.290	-0.450	3.030	188.19	-1.80	3.50	 	 	 	 	 	 	 	 	 	 	 	 	 	 	 	 	 	 	1581498007	8.75	16.21
12/02/2020 09:00:08	120220	12022020	090008	188.26	12.754295	-57.142685	188.43	-0.290	0.110	2.930	188.26	-1.30	3.40	 	 	 	 	 	 	 	 	 	 	 	 	 	 	 	 	 	 	1581498008	8.22	15.22
12/02/2020 09:00:09	120220	12022020	090009	188.44	12.754262	-57.142695	188.63	-0.510	0.720	2.480	188.48	-0.70	2.90	 	 	 	 	 	 	 	 	 	 	 	 	 	 	 	 	 	 	1581498009	7.36	13.63
12/02/2020 09:00:10	120220	12022020	090010	188.56	12.754230	-57.142702	188.67	-0.440	0.690	1.980	188.55	-0.80	2.40	 	 	 	 	 	 	 	 	 	 	 	 	 	 	 	 	 	 	1581498010	7.06	13.08
12/02/2020 09:00:11	120220	12022020	090011	188.54	12.754195	-57.142708	188.64	0.060	0.120	1.390	188.54	-1.30	1.80	 	 	 	 	 	 	 	 	 	 	 	 	 	 	 	 	 	 	1581498011	7.61	14.09
12/02/2020 09:00:12	120220	12022020	090012	188.60	12.754157	-57.142713	188.73	0.590	-0.430	0.850	188.62	-1.90	1.30	 	 	 	 	 	 	 	 	 	 	 	 	 	 	 	 	 	 	1581498012	8.08	14.96
12/02/2020 09:00:13	120220	12022020	090013	188.70	12.754120	-57.142717	188.81	0.890	-0.710	0.510	188.71	-2.10	1.00	 	 	 	 	 	 	 	 	 	 	 	 	 	 	 	 	 	 	1581498013	7.95	14.72
12/02/2020 09:00:14	120220	12022020	090014	188.70	12.754085	-57.142722	188.77	0.990	-0.760	0.450	188.70	-2.20	1.00	 	 	 	 	 	 	 	 	 	 	 	 	 	 	 	 	 	 	1581498014	7.62	14.11
12/02/2020 09:00:15	120220	12022020	090015	188.50	12.754050	-57.142725	188.50	0.960	-0.860	0.860	188.43	-2.30	1.40	 	 	 	 	 	 	 	 	 	 	 	 	 	 	 	 	 	 	1581498015	7.50	13.89
12/02/2020 09:00:16	120220	12022020	090016	188.19	12.754015	-57.142732	188.31	0.680	-0.890	1.480	188.19	-2.30	2.00	 	 	 	 	 	 	 	 	 	 	 	 	 	 	 	 	 	 	1581498016	7.82	14.48
12/02/2020 09:00:17	120220	12022020	090017	188.22	12.753978	-57.142738	188.45	-0.020	-0.490	2.060	188.27	-1.90	2.60	 	 	 	 	 	 	 	 	 	 	 	 	 	 	 	 	 	 	1581498017	7.92	14.67
12/02/2020 09:00:18	120220	12022020	090018	188.54	12.753945	-57.142748	188.80	-0.990	0.110	2.550	188.60	-1.30	3.00	 	 	 	 	 	 	 	 	 	 	 	 	 	 	 	 	 	 	1581498018	7.51	13.91
12/02/2020 09:00:19	120220	12022020	090019	188.75	12.753913	-57.142760	188.91	-1.720	0.180	3.150	188.74	-1.20	3.60	 	 	 	 	 	 	 	 	 	 	 	 	 	 	 	 	 	 	1581498019	7.34	13.59
12/02/2020 09:00:20	120220	12022020	090020	188.54	12.753880	-57.142777	188.57	-1.710	-0.410	3.880	188.43	-1.90	4.40	 	 	 	 	 	 	 	 	 	 	 	 	 	 	 	 	 	 	1581498020	8.13	15.06
12/02/2020 09:00:21	120220	12022020	090021	187.89	12.753842	-57.142797	187.87	-0.810	-0.950	4.290	187.74	-2.40	4.80	 	 	 	 	 	 	 	 	 	 	 	 	 	 	 	 	 	 	1581498021	9.05	16.76
12/02/2020 09:00:22	120220	12022020	090022	187.26	12.753803	-57.142813	187.34	0.480	-0.660	3.820	187.18	-2.00	4.20	 	 	 	 	 	 	 	 	 	 	 	 	 	 	 	 	 	 	1581498022	8.98	16.63
12/02/2020 09:00:23	120220	12022020	090023	187.14	12.753767	-57.142820	187.38	1.430	0.310	2.430	187.18	-1.10	2.80	 	 	 	 	 	 	 	 	 	 	 	 	 	 	 	 	 	 	1581498023	7.93	14.69
12/02/2020 09:00:24	120220	12022020	090024	187.47	12.753733	-57.142817	187.75	1.570	1.010	0.840	187.56	-0.40	1.30	 	 	 	 	 	 	 	 	 	 	 	 	 	 	 	 	 	 	1581498024	7.26	13.45
12/02/2020 09:00:25	120220	12022020	090025	187.93	12.753698	-57.142808	188.18	0.940	0.950	-0.040	188.02	-0.50	0.40	 	 	 	 	 	 	 	 	 	 	 	 	 	 	 	 	 	 	1581498025	7.49	13.87
12/02/2020 09:00:26	120220	12022020	090026	188.28	12.753663	-57.142807	188.48	0.040	0.330	0.000	188.32	-1.10	0.50	 	 	 	 	 	 	 	 	 	 	 	 	 	 	 	 	 	 	1581498026	7.61	14.09
12/02/2020 09:00:27	120220	12022020	090027	188.40	12.753628	-57.142813	188.54	-0.510	-0.510	0.690	188.40	-2.00	1.20	 	 	 	 	 	 	 	 	 	 	 	 	 	 	 	 	 	 	1581498027	7.74	14.33
12/02/2020 09:00:28	120220	12022020	090028	188.27	12.753593	-57.142827	188.41	-0.460	-1.430	1.740	188.27	-2.90	2.30	 	 	 	 	 	 	 	 	 	 	 	 	 	 	 	 	 	 	1581498028	8.05	14.91
12/02/2020 09:00:29	120220	12022020	090029	188.04	12.753557	-57.142842	188.10	-0.140	-2.030	2.790	187.97	-3.40	3.30	 	 	 	 	 	 	 	 	 	 	 	 	 	 	 	 	 	 	1581498029	8.41	15.58
12/02/2020 09:00:30	120220	12022020	090030	187.55	12.753522	-57.142857	187.70	-0.050	-1.670	3.420	187.55	-3.00	3.90	 	 	 	 	 	 	 	 	 	 	 	 	 	 	 	 	 	 	1581498030	8.38	15.52
12/02/2020 09:00:31	120220	12022020	090031	187.30	12.753488	-57.142870	187.46	-0.250	-0.490	3.450	187.27	-1.80	3.90	 	 	 	 	 	 	 	 	 	 	 	 	 	 	 	 	 	 	1581498031	7.60	14.08
12/02/2020 09:00:32	120220	12022020	090032	187.23	12.753458	-57.142878	187.41	-0.360	0.580	2.870	187.23	-0.80	3.30	 	 	 	 	 	 	 	 	 	 	 	 	 	 	 	 	 	 	1581498032	6.82	12.63
12/02/2020 09:00:33	120220	12022020	090033	187.25	12.753425	-57.142883	187.37	-0.050	0.700	2.040	187.24	-0.70	2.50	 	 	 	 	 	 	 	 	 	 	 	 	 	 	 	 	 	 	1581498033	6.97	12.91
12/02/2020 09:00:34	120220	12022020	090034	187.16	12.753388	-57.142887	187.28	0.530	0.060	1.470	187.16	-1.40	1.90	 	 	 	 	 	 	 	 	 	 	 	 	 	 	 	 	 	 	1581498034	8.02	14.85
12/02/2020 09:00:35	120220	12022020	090035	187.19	12.753347	-57.142888	187.37	0.820	-0.350	1.120	187.22	-1.80	1.60	 	 	 	 	 	 	 	 	 	 	 	 	 	 	 	 	 	 	1581498035	8.78	16.26
12/02/2020 09:00:36	120220	12022020	090036	187.51	12.753308	-57.142892	187.67	0.470	-0.080	0.940	187.51	-1.50	1.40	 	 	 	 	 	 	 	 	 	 	 	 	 	 	 	 	 	 	1581498036	8.36	15.48
12/02/2020 09:00:37	120220	12022020	090037	187.84	12.753275	-57.142895	188.11	-0.330	0.350	1.200	187.93	-1.10	1.70	 	 	 	 	 	 	 	 	 	 	 	 	 	 	 	 	 	 	1581498037	7.38	13.67
12/02/2020 09:00:38	120220	12022020	090038	188.29	12.753243	-57.142903	188.55	-1.000	0.290	1.770	188.36	-1.10	2.30	 	 	 	 	 	 	 	 	 	 	 	 	 	 	 	 	 	 	1581498038	7.09	13.13
12/02/2020 09:00:39	120220	12022020	090039	188.51	12.753210	-57.142917	188.64	-0.980	-0.340	2.440	188.49	-1.80	2.90	 	 	 	 	 	 	 	 	 	 	 	 	 	 	 	 	 	 	1581498039	7.69	14.24
12/02/2020 09:00:40	120220	12022020	090040	188.19	12.753173	-57.142933	188.31	-0.230	-1.000	2.920	188.19	-2.40	3.40	 	 	 	 	 	 	 	 	 	 	 	 	 	 	 	 	 	 	1581498040	8.39	15.54
12/02/2020 09:00:41	120220	12022020	090041	187.86	12.753137	-57.142945	187.91	0.650	-1.030	2.930	187.79	-2.40	3.40	 	 	 	 	 	 	 	 	 	 	 	 	 	 	 	 	 	 	1581498041	8.42	15.59
12/02/2020 09:00:42	120220	12022020	090042	187.59	12.753102	-57.142952	187.73	0.990	-0.410	2.380	187.59	-1.80	2.80	 	 	 	 	 	 	 	 	 	 	 	 	 	 	 	 	 	 	1581498042	7.77	14.39
12/02/2020 09:00:43	120220	12022020	090043	187.55	12.753068	-57.142953	187.67	0.660	0.170	1.620	187.55	-1.20	2.10	 	 	 	 	 	 	 	 	 	 	 	 	 	 	 	 	 	 	1581498043	7.17	13.28
12/02/2020 09:00:44	120220	12022020	090044	187.63	12.753033	-57.142953	187.76	0.060	0.230	1.030	187.63	-1.20	1.50	 	 	 	 	 	 	 	 	 	 	 	 	 	 	 	 	 	 	1581498044	7.21	13.35
12/02/2020 09:00:45	120220	12022020	090045	187.86	12.752998	-57.142957	188.06	-0.340	0.040	0.690	187.93	-1.40	1.20	 	 	 	 	 	 	 	 	 	 	 	 	 	 	 	 	 	 	1581498045	7.64	14.15
12/02/2020 09:00:46	120220	12022020	090046	188.07	12.752963	-57.142963	188.15	-0.360	-0.380	0.830	188.07	-1.80	1.30	 	 	 	 	 	 	 	 	 	 	 	 	 	 	 	 	 	 	1581498046	7.78	14.41
12/02/2020 09:00:47	120220	12022020	090047	187.83	12.752927	-57.142972	187.79	-0.140	-0.950	1.580	187.74	-2.40	2.10	 	 	 	 	 	 	 	 	 	 	 	 	 	 	 	 	 	 	1581498047	8.09	14.98
12/02/2020 09:00:48	120220	12022020	090048	187.31	12.752888	-57.142983	187.42	0.030	-1.030	2.460	187.31	-2.40	3.00	 	 	 	 	 	 	 	 	 	 	 	 	 	 	 	 	 	 	1581498048	8.50	15.74
12/02/2020 09:00:49	120220	12022020	090049	187.25	12.752853	-57.142997	187.45	0.010	-0.260	2.830	187.29	-1.60	3.30	 	 	 	 	 	 	 	 	 	 	 	 	 	 	 	 	 	 	1581498049	8.19	15.17
12/02/2020 09:00:50	120220	12022020	090050	187.60	12.752822	-57.143007	187.85	-0.120	0.790	2.640	187.69	-0.60	3.10	 	 	 	 	 	 	 	 	 	 	 	 	 	 	 	 	 	 	1581498050	7.14	13.22
12/02/2020 09:00:51	120220	12022020	090051	187.93	12.752792	-57.143013	188.05	-0.100	0.860	2.300	187.94	-0.60	2.80	 	 	 	 	 	 	 	 	 	 	 	 	 	 	 	 	 	 	1581498051	6.61	12.24
12/02/2020 09:00:52	120220	12022020	090052	187.75	12.752757	-57.143018	187.82	0.180	-0.210	2.120	187.75	-1.70	2.60	 	 	 	 	 	 	 	 	 	 	 	 	 	 	 	 	 	 	1581498052	7.56	14.00
12/02/2020 09:00:53	120220	12022020	090053	187.38	12.752717	-57.143025	187.35	0.480	-1.220	2.140	187.29	-2.70	2.60	 	 	 	 	 	 	 	 	 	 	 	 	 	 	 	 	 	 	1581498053	8.77	16.24
12/02/2020 09:00:54	120220	12022020	090054	186.87	12.752677	-57.143032	186.95	0.470	-1.330	2.130	186.87	-2.70	2.60	 	 	 	 	 	 	 	 	 	 	 	 	 	 	 	 	 	 	1581498054	8.75	16.21
12/02/2020 09:00:55	120220	12022020	090055	186.71	12.752640	-57.143037	186.81	0.080	-0.690	2.060	186.70	-2.10	2.50	 	 	 	 	 	 	 	 	 	 	 	 	 	 	 	 	 	 	1581498055	7.88	14.59
12/02/2020 09:00:56	120220	12022020	090056	186.87	12.752607	-57.143042	187.01	-0.490	0.160	1.990	186.87	-1.20	2.50	 	 	 	 	 	 	 	 	 	 	 	 	 	 	 	 	 	 	1581498056	7.20	13.33
12/02/2020 09:00:57	120220	12022020	090057	187.18	12.752575	-57.143050	187.42	-0.880	0.640	2.020	187.27	-0.80	2.50	 	 	 	 	 	 	 	 	 	 	 	 	 	 	 	 	 	 	1581498057	7.08	13.11
12/02/2020 09:00:58	120220	12022020	090058	187.65	12.752542	-57.143060	187.78	-0.780	0.470	2.000	187.65	-1.00	2.50	 	 	 	 	 	 	 	 	 	 	 	 	 	 	 	 	 	 	1581498058	7.46	13.82
12/02/2020 09:00:59	120220	12022020	090059	187.82	12.752505	-57.143072	187.97	-0.190	-0.090	1.700	187.86	-1.50	2.20	 	 	 	 	 	 	 	 	 	 	 	 	 	 	 	 	 	 	1581498059	8.02	14.85
12/02/2020 09:01:00	120220	12022020	090100	187.90	12.752468	-57.143078	188.01	0.520	-0.500	1.240	187.90	-1.90	1.70	 	 	 	 	 	 	 	 	 	 	 	 	 	 	 	 	 	 	1581498060	8.27	15.32
12/02/2020 09:01:01	120220	12022020	090101	187.80	12.752430	-57.143082	187.82	0.860	-0.590	0.880	187.75	-2.00	1.40	1014.90	26.20	26.20	20.70	20.80	-1.0	72.0	72.0	393.0	25.8	273.00	9.50	77.00	10.10	16	9652.0	27.4	27.4	1581498061	8.04	14.89
12/02/2020 09:01:02	120220	12022020	090102	187.55	12.752395	-57.143083	187.58	0.630	-0.460	0.900	187.51	-1.90	1.40	 	 	 	 	 	 	 	 	 	 	 	 	 	 	 	 	 	 	1581498062	7.74	14.33
12/02/2020 09:01:03	120220	12022020	090103	187.33	12.752360	-57.143088	187.35	0.150	-0.250	1.360	187.29	-1.70	1.90	 	 	 	 	 	 	 	 	 	 	 	 	 	 	 	 	 	 	1581498063	7.49	13.87
12/02/2020 09:01:04	120220	12022020	090104	187.05	12.752327	-57.143095	187.08	-0.170	-0.190	1.970	187.01	-1.60	2.50	 	 	 	 	 	 	 	 	 	 	 	 	 	 	 	 	 	 	1581498064	7.51	13.91
12/02/2020 09:01:05	120220	12022020	090105	186.85	12.752292	-57.143105	186.96	-0.240	-0.220	2.400	186.83	-1.60	2.90	 	 	 	 	 	 	 	 	 	 	 	 	 	 	 	 	 	 	1581498065	7.84	14.52
12/02/2020 09:01:06	120220	12022020	090106	186.86	12.752255	-57.143115	186.98	-0.260	-0.190	2.620	186.86	-1.60	3.10	 	 	 	 	 	 	 	 	 	 	 	 	 	 	 	 	 	 	1581498066	7.96	14.74
12/02/2020 09:01:07	120220	12022020	090107	186.83	12.752220	-57.143125	186.90	-0.270	-0.350	2.720	186.80	-1.80	3.20	 	 	 	 	 	 	 	 	 	 	 	 	 	 	 	 	 	 	1581498067	7.83	14.50
12/02/2020 09:01:08	120220	12022020	090108	186.48	12.752183	-57.143135	186.56	-0.140	-0.770	2.710	186.48	-2.20	3.20	 	 	 	 	 	 	 	 	 	 	 	 	 	 	 	 	 	 	1581498068	8.07	14.95
12/02/2020 09:01:09	120220	12022020	090109	186.31	12.752145	-57.143145	186.43	0.070	-0.760	2.320	186.31	-2.20	2.80	 	 	 	 	 	 	 	 	 	 	 	 	 	 	 	 	 	 	1581498069	8.47	15.69
12/02/2020 09:01:10	120220	12022020	090110	186.52	12.752108	-57.143150	186.79	0.070	0.110	1.590	186.63	-1.30	2.00	 	 	 	 	 	 	 	 	 	 	 	 	 	 	 	 	 	 	1581498070	7.98	14.78
12/02/2020 09:01:11	120220	12022020	090111	187.19	12.752077	-57.143153	187.51	-0.200	1.020	0.740	187.35	-0.40	1.20	 	 	 	 	 	 	 	 	 	 	 	 	 	 	 	 	 	 	1581498071	6.86	12.70
12/02/2020 09:01:12	120220	12022020	090112	187.87	12.752047	-57.143155	188.05	-0.350	0.790	0.250	187.95	-0.70	0.70	 	 	 	 	 	 	 	 	 	 	 	 	 	 	 	 	 	 	1581498072	6.60	12.22
12/02/2020 09:01:13	120220	12022020	090113	188.02	12.752012	-57.143158	188.02	-0.010	-0.630	0.620	187.97	-2.10	1.10	 	 	 	 	 	 	 	 	 	 	 	 	 	 	 	 	 	 	1581498073	7.62	14.11
12/02/2020 09:01:14	120220	12022020	090114	187.55	12.751970	-57.143167	187.46	0.560	-1.910	1.560	187.41	-3.40	2.10	 	 	 	 	 	 	 	 	 	 	 	 	 	 	 	 	 	 	1581498074	9.00	16.67
12/02/2020 09:01:15	120220	12022020	090115	186.87	12.751928	-57.143175	186.85	0.690	-1.860	2.590	186.77	-3.20	3.10	 	 	 	 	 	 	 	 	 	 	 	 	 	 	 	 	 	 	1581498075	9.09	16.83
12/02/2020 09:01:16	120220	12022020	090116	186.49	12.751893	-57.143187	186.59	0.220	-0.580	3.240	186.47	-1.90	3.70	 	 	 	 	 	 	 	 	 	 	 	 	 	 	 	 	 	 	1581498076	7.99	14.80
12/02/2020 09:01:17	120220	12022020	090117	186.47	12.751863	-57.143195	186.62	-0.440	0.790	3.270	186.49	-0.60	3.70	 	 	 	 	 	 	 	 	 	 	 	 	 	 	 	 	 	 	1581498077	6.83	12.65
12/02/2020 09:01:18	120220	12022020	090118	186.66	12.751832	-57.143202	186.80	-0.790	1.210	2.860	186.66	-0.20	3.30	 	 	 	 	 	 	 	 	 	 	 	 	 	 	 	 	 	 	1581498078	6.72	12.45
12/02/2020 09:01:19	120220	12022020	090119	186.92	12.751797	-57.143208	187.17	-0.640	0.690	2.090	187.01	-0.80	2.50	 	 	 	 	 	 	 	 	 	 	 	 	 	 	 	 	 	 	1581498079	7.63	14.13
12/02/2020 09:01:20	120220	12022020	090120	187.54	12.751758	-57.143215	187.69	-0.250	0.050	1.260	187.54	-1.40	1.70	 	 	 	 	 	 	 	 	 	 	 	 	 	 	 	 	 	 	1581498080	8.43	15.61
12/02/2020 09:01:21	120220	12022020	090121	188.00	12.751722	-57.143222	188.24	0.100	-0.110	0.580	188.10	-1.50	1.00	 	 	 	 	 	 	 	 	 	 	 	 	 	 	 	 	 	 	1581498081	8.22	15.22
12/02/2020 09:01:22	120220	12022020	090122	188.38	12.751687	-57.143227	188.47	0.350	-0.220	0.260	188.38	-1.70	0.70	 	 	 	 	 	 	 	 	 	 	 	 	 	 	 	 	 	 	1581498082	7.39	13.69
12/02/2020 09:01:23	120220	12022020	090123	188.24	12.751653	-57.143232	188.19	0.650	-0.850	0.440	188.15	-2.30	0.90	 	 	 	 	 	 	 	 	 	 	 	 	 	 	 	 	 	 	1581498083	7.24	13.41
12/02/2020 09:01:24	120220	12022020	090124	187.45	12.751617	-57.143237	187.47	0.970	-1.570	1.120	187.45	-3.00	1.60	 	 	 	 	 	 	 	 	 	 	 	 	 	 	 	 	 	 	1581498084	7.98	14.78
12/02/2020 09:01:25	120220	12022020	090125	186.87	12.751578	-57.143243	186.84	0.880	-1.450	1.900	186.77	-2.80	2.40	 	 	 	 	 	 	 	 	 	 	 	 	 	 	 	 	 	 	1581498085	8.42	15.59
12/02/2020 09:01:26	120220	12022020	090126	186.65	12.751542	-57.143250	186.81	0.120	-0.420	2.450	186.65	-1.80	2.90	 	 	 	 	 	 	 	 	 	 	 	 	 	 	 	 	 	 	1581498086	7.83	14.50
12/02/2020 09:01:27	120220	12022020	090127	186.91	12.751510	-57.143258	187.19	-0.930	0.690	2.890	187.00	-0.70	3.40	 	 	 	 	 	 	 	 	 	 	 	 	 	 	 	 	 	 	1581498087	7.04	13.04
12/02/2020 09:01:28	120220	12022020	090128	187.35	12.751480	-57.143272	187.63	-1.510	1.100	3.050	187.43	-0.30	3.50	 	 	 	 	 	 	 	 	 	 	 	 	 	 	 	 	 	 	1581498088	7.06	13.08
12/02/2020 09:01:29	120220	12022020	090129	187.74	12.751447	-57.143285	187.96	-1.180	0.640	2.740	187.80	-0.80	3.20	 	 	 	 	 	 	 	 	 	 	 	 	 	 	 	 	 	 	1581498089	7.69	14.24
12/02/2020 09:01:30	120220	12022020	090130	188.04	12.751410	-57.143295	188.17	-0.220	-0.310	2.020	188.04	-1.80	2.40	 	 	 	 	 	 	 	 	 	 	 	 	 	 	 	 	 	 	1581498090	8.32	15.41
12/02/2020 09:01:31	120220	12022020	090131	188.14	12.751370	-57.143300	188.25	0.570	-1.010	1.290	188.15	-2.50	1.70	 	 	 	 	 	 	 	 	 	 	 	 	 	 	 	 	 	 	1581498091	8.68	16.08
12/02/2020 09:01:32	120220	12022020	090132	188.09	12.751332	-57.143303	188.15	0.730	-1.080	0.950	188.09	-2.50	1.40	 	 	 	 	 	 	 	 	 	 	 	 	 	 	 	 	 	 	1581498092	8.36	15.48
12/02/2020 09:01:33	120220	12022020	090133	187.85	12.751297	-57.143307	187.79	0.490	-0.710	1.080	187.75	-2.10	1.60	 	 	 	 	 	 	 	 	 	 	 	 	 	 	 	 	 	 	1581498093	7.63	14.13
12/02/2020 09:01:34	120220	12022020	090134	187.14	12.751262	-57.143312	187.17	0.250	-0.240	1.520	187.14	-1.60	2.00	 	 	 	 	 	 	 	 	 	 	 	 	 	 	 	 	 	 	1581498094	7.28	13.48
12/02/2020 09:01:35	120220	12022020	090135	186.69	12.751228	-57.143318	186.70	0.110	0.220	2.050	186.61	-1.20	2.50	 	 	 	 	 	 	 	 	 	 	 	 	 	 	 	 	 	 	1581498095	7.43	13.76
12/02/2020 09:01:36	120220	12022020	090136	186.52	12.751193	-57.143325	186.66	-0.080	0.620	2.510	186.52	-0.80	3.00	 	 	 	 	 	 	 	 	 	 	 	 	 	 	 	 	 	 	1581498096	7.61	14.09
12/02/2020 09:01:37	120220	12022020	090137	186.70	12.751160	-57.143337	186.96	-0.310	0.760	2.810	186.78	-0.70	3.30	 	 	 	 	 	 	 	 	 	 	 	 	 	 	 	 	 	 	1581498097	7.62	14.11
12/02/2020 09:01:38	120220	12022020	090138	187.32	12.751127	-57.143348	187.53	-0.340	0.630	2.620	187.32	-0.80	3.10	 	 	 	 	 	 	 	 	 	 	 	 	 	 	 	 	 	 	1581498098	7.67	14.20
12/02/2020 09:01:39	120220	12022020	090139	187.88	12.751092	-57.143357	188.21	-0.080	0.340	1.920	188.02	-1.10	2.30	 	 	 	 	 	 	 	 	 	 	 	 	 	 	 	 	 	 	1581498099	7.56	14.00
12/02/2020 09:01:40	120220	12022020	090140	188.47	12.751058	-57.143363	188.66	0.310	-0.290	1.160	188.53	-1.80	1.60	 	 	 	 	 	 	 	 	 	 	 	 	 	 	 	 	 	 	1581498100	7.32	13.56
12/02/2020 09:01:41	120220	12022020	090141	188.59	12.751023	-57.143365	188.64	0.670	-1.380	0.870	188.56	-2.90	1.30	 	 	 	 	 	 	 	 	 	 	 	 	 	 	 	 	 	 	1581498101	7.57	14.02
12/02/2020 09:01:42	120220	12022020	090142	188.24	12.750985	-57.143370	188.19	0.790	-2.200	1.100	188.13	-3.60	1.60	 	 	 	 	 	 	 	 	 	 	 	 	 	 	 	 	 	 	1581498102	8.17	15.13
12/02/2020 09:01:43	120220	12022020	090143	187.65	12.750948	-57.143377	187.65	0.490	-1.930	1.630	187.55	-3.30	2.10	 	 	 	 	 	 	 	 	 	 	 	 	 	 	 	 	 	 	1581498103	8.20	15.19
12/02/2020 09:01:44	120220	12022020	090144	187.25	12.750913	-57.143383	187.38	-0.160	-0.760	2.150	187.25	-2.10	2.60	 	 	 	 	 	 	 	 	 	 	 	 	 	 	 	 	 	 	1581498104	7.47	13.83
12/02/2020 09:01:45	120220	12022020	090145	187.20	12.750883	-57.143392	187.33	-0.800	0.300	2.430	187.19	-1.10	2.90	 	 	 	 	 	 	 	 	 	 	 	 	 	 	 	 	 	 	1581498105	6.92	12.82
12/02/2020 09:01:46	120220	12022020	090146	187.07	12.750850	-57.143402	187.14	-1.040	0.520	2.610	187.02	-0.90	3.10	 	 	 	 	 	 	 	 	 	 	 	 	 	 	 	 	 	 	1581498106	7.27	13.46
12/02/2020 09:01:47	120220	12022020	090147	186.78	12.750813	-57.143413	186.88	-0.820	0.260	2.730	186.73	-1.10	3.20	 	 	 	 	 	 	 	 	 	 	 	 	 	 	 	 	 	 	1581498107	8.32	15.41
12/02/2020 09:01:48	120220	12022020	090148	186.80	12.750773	-57.143423	186.99	-0.410	0.360	2.320	186.80	-1.00	2.70	 	 	 	 	 	 	 	 	 	 	 	 	 	 	 	 	 	 	1581498108	8.77	16.24
12/02/2020 09:01:49	120220	12022020	090149	187.21	12.750737	-57.143430	187.54	-0.090	0.890	1.360	187.35	-0.50	1.80	 	 	 	 	 	 	 	 	 	 	 	 	 	 	 	 	 	 	1581498109	8.04	14.89
12/02/2020 09:01:50	120220	12022020	090150	188.03	12.750703	-57.143433	188.21	0.110	1.160	0.570	188.03	-0.30	1.00	 	 	 	 	 	 	 	 	 	 	 	 	 	 	 	 	 	 	1581498110	7.16	13.26
12/02/2020 09:01:51	120220	12022020	090151	188.46	12.750672	-57.143435	188.67	0.310	0.650	0.310	188.53	-0.80	0.80	 	 	 	 	 	 	 	 	 	 	 	 	 	 	 	 	 	 	1581498111	7.08	13.11
12/02/2020 09:01:52	120220	12022020	090152	188.64	12.750637	-57.143438	188.72	0.600	-0.430	0.510	188.62	-1.90	1.00	 	 	 	 	 	 	 	 	 	 	 	 	 	 	 	 	 	 	1581498112	7.58	14.04
12/02/2020 09:01:53	120220	12022020	090153	188.38	12.750600	-57.143445	188.36	0.840	-1.390	1.180	188.28	-2.80	1.70	 	 	 	 	 	 	 	 	 	 	 	 	 	 	 	 	 	 	1581498113	8.06	14.93
12/02/2020 09:01:54	120220	12022020	090154	187.63	12.750563	-57.143453	187.69	0.850	-1.710	2.180	187.63	-3.10	2.70	 	 	 	 	 	 	 	 	 	 	 	 	 	 	 	 	 	 	1581498114	8.00	14.82
12/02/2020 09:01:55	120220	12022020	090155	187.05	12.750528	-57.143463	187.07	0.560	-1.260	2.870	186.94	-2.60	3.30	 	 	 	 	 	 	 	 	 	 	 	 	 	 	 	 	 	 	1581498115	7.63	14.13
12/02/2020 09:01:56	120220	12022020	090156	186.78	12.750497	-57.143473	186.94	-0.010	-0.370	2.960	186.78	-1.70	3.40	 	 	 	 	 	 	 	 	 	 	 	 	 	 	 	 	 	 	1581498116	7.13	13.20
12/02/2020 09:01:57	120220	12022020	090157	186.97	12.750467	-57.143482	187.21	-0.550	0.220	2.660	187.04	-1.20	3.10	 	 	 	 	 	 	 	 	 	 	 	 	 	 	 	 	 	 	1581498117	6.78	12.56
12/02/2020 09:01:58	120220	12022020	090158	187.29	12.750433	-57.143488	187.44	-0.690	0.050	2.160	187.29	-1.40	2.60	 	 	 	 	 	 	 	 	 	 	 	 	 	 	 	 	 	 	1581498118	7.16	13.26
12/02/2020 09:01:59	120220	12022020	090159	187.33	12.750397	-57.143497	187.49	-0.420	-0.510	1.680	187.35	-1.90	2.10	 	 	 	 	 	 	 	 	 	 	 	 	 	 	 	 	 	 	1581498119	8.05	14.91
12/02/2020 09:02:00	120220	12022020	090200	187.49	12.750358	-57.143502	187.66	-0.150	-0.600	1.290	187.49	-2.00	1.70	 	 	 	 	 	 	 	 	 	 	 	 	 	 	 	 	 	 	1581498120	8.53	15.80
12/02/2020 09:02:01	120220	12022020	090201	187.71	12.750322	-57.143508	187.91	-0.110	-0.180	0.980	187.76	-1.60	1.40	1014.90	26.20	26.20	20.80	20.90	-1.0	72.0	72.0	394.0	25.8	270.00	9.60	75.00	10.30	16	9501.0	27.4	27.4	1581498121	7.97	14.76
12/02/2020 09:02:02	120220	12022020	090202	187.82	12.750288	-57.143513	187.94	-0.120	0.150	0.900	187.82	-1.20	1.40	 	 	 	 	 	 	 	 	 	 	 	 	 	 	 	 	 	 	1581498122	7.38	13.67
12/02/2020 09:02:03	120220	12022020	090203	187.76	12.750253	-57.143520	187.88	0.060	0.200	1.010	187.75	-1.20	1.50	 	 	 	 	 	 	 	 	 	 	 	 	 	 	 	 	 	 	1581498123	7.50	13.89
12/02/2020 09:02:04	120220	12022020	090204	187.73	12.750217	-57.143525	187.88	0.290	0.130	1.210	187.73	-1.30	1.70	 	 	 	 	 	 	 	 	 	 	 	 	 	 	 	 	 	 	1581498124	7.80	14.45
12/02/2020 09:02:05	120220	12022020	090205	187.69	12.750182	-57.143530	187.81	0.270	-0.040	1.690	187.66	-1.40	2.20	 	 	 	 	 	 	 	 	 	 	 	 	 	 	 	 	 	 	1581498125	7.79	14.43
12/02/2020 09:02:06	120220	12022020	090206	187.42	12.750145	-57.143537	187.48	0.020	-0.380	2.350	187.35	-1.80	2.90	 	 	 	 	 	 	 	 	 	 	 	 	 	 	 	 	 	 	1581498126	7.80	14.45
12/02/2020 09:02:07	120220	12022020	090207	187.10	12.750110	-57.143547	187.29	-0.290	-0.510	2.710	187.10	-1.90	3.20	 	 	 	 	 	 	 	 	 	 	 	 	 	 	 	 	 	 	1581498127	8.09	14.98
12/02/2020 09:02:08	120220	12022020	090208	187.36	12.750075	-57.143557	187.73	-0.580	0.010	2.620	187.49	-1.40	3.10	 	 	 	 	 	 	 	 	 	 	 	 	 	 	 	 	 	 	1581498128	7.92	14.67
12/02/2020 09:02:09	120220	12022020	090209	188.11	12.750043	-57.143568	188.50	-0.620	0.630	2.180	188.27	-0.80	2.60	 	 	 	 	 	 	 	 	 	 	 	 	 	 	 	 	 	 	1581498129	7.02	13.00
12/02/2020 09:02:10	120220	12022020	090210	188.74	12.750013	-57.143577	188.89	-0.160	0.330	1.630	188.74	-1.10	2.10	 	 	 	 	 	 	 	 	 	 	 	 	 	 	 	 	 	 	1581498130	6.65	12.32
12/02/2020 09:02:11	120220	12022020	090211	188.58	12.749978	-57.143583	188.57	0.730	-0.880	1.400	188.48	-2.30	1.90	 	 	 	 	 	 	 	 	 	 	 	 	 	 	 	 	 	 	1581498131	7.57	14.02
12/02/2020 09:02:12	120220	12022020	090212	187.98	12.749938	-57.143588	188.08	1.330	-1.580	1.540	187.98	-3.00	2.00	 	 	 	 	 	 	 	 	 	 	 	 	 	 	 	 	 	 	1581498132	8.72	16.15
12/02/2020 09:02:13	120220	12022020	090213	187.79	12.749900	-57.143593	187.93	1.060	-0.910	1.730	187.79	-2.20	2.20	 	 	 	 	 	 	 	 	 	 	 	 	 	 	 	 	 	 	1581498133	8.33	15.43
12/02/2020 09:02:14	120220	12022020	090214	187.93	12.749868	-57.143598	188.09	0.200	0.340	1.630	187.93	-1.00	2.10	 	 	 	 	 	 	 	 	 	 	 	 	 	 	 	 	 	 	1581498134	6.87	12.72
12/02/2020 09:02:15	120220	12022020	090215	188.10	12.749840	-57.143603	188.28	-0.490	0.770	1.510	188.13	-0.70	2.00	 	 	 	 	 	 	 	 	 	 	 	 	 	 	 	 	 	 	1581498135	6.26	11.59
12/02/2020 09:02:16	120220	12022020	090216	188.15	12.749807	-57.143612	188.29	-0.530	-0.030	1.660	188.15	-1.50	2.10	 	 	 	 	 	 	 	 	 	 	 	 	 	 	 	 	 	 	1581498136	7.24	13.41
12/02/2020 09:02:17	120220	12022020	090217	188.17	12.749768	-57.143622	188.36	-0.220	-1.010	1.780	188.19	-2.40	2.20	 	 	 	 	 	 	 	 	 	 	 	 	 	 	 	 	 	 	1581498137	8.62	15.96
12/02/2020 09:02:18	120220	12022020	090218	188.31	12.749728	-57.143632	188.53	-0.110	-1.230	1.910	188.35	-2.60	2.40	 	 	 	 	 	 	 	 	 	 	 	 	 	 	 	 	 	 	1581498138	8.83	16.35
12/02/2020 09:02:19	120220	12022020	090219	188.46	12.749693	-57.143642	188.64	-0.340	-0.690	2.110	188.47	-2.10	2.60	 	 	 	 	 	 	 	 	 	 	 	 	 	 	 	 	 	 	1581498139	7.99	14.80
12/02/2020 09:02:20	120220	12022020	090220	188.41	12.749660	-57.143652	188.51	-0.580	0.020	2.250	188.38	-1.40	2.70	 	 	 	 	 	 	 	 	 	 	 	 	 	 	 	 	 	 	1581498140	7.28	13.48
12/02/2020 09:02:21	120220	12022020	090221	188.21	12.749628	-57.143660	188.28	-0.520	0.450	2.210	188.16	-0.90	2.70	 	 	 	 	 	 	 	 	 	 	 	 	 	 	 	 	 	 	1581498141	7.18	13.30
12/02/2020 09:02:22	120220	12022020	090222	187.91	12.749593	-57.143668	188.02	-0.240	0.490	1.990	187.91	-0.90	2.40	 	 	 	 	 	 	 	 	 	 	 	 	 	 	 	 	 	 	1581498142	7.50	13.89
12/02/2020 09:02:23	120220	12022020	090223	187.82	12.749558	-57.143673	187.94	0.040	0.340	1.590	187.82	-1.10	2.10	 	 	 	 	 	 	 	 	 	 	 	 	 	 	 	 	 	 	1581498143	7.85	14.54
12/02/2020 09:02:24	120220	12022020	090224	187.76	12.749522	-57.143677	187.87	0.220	0.110	1.330	187.76	-1.30	1.80	 	 	 	 	 	 	 	 	 	 	 	 	 	 	 	 	 	 	1581498144	7.82	14.48
12/02/2020 09:02:25	120220	12022020	090225	187.68	12.749487	-57.143683	187.78	0.400	-0.230	1.310	187.66	-1.60	1.80	 	 	 	 	 	 	 	 	 	 	 	 	 	 	 	 	 	 	1581498145	7.75	14.35
12/02/2020 09:02:26	120220	12022020	090226	187.62	12.749450	-57.143690	187.75	0.610	-0.460	1.460	187.62	-1.90	1.90	 	 	 	 	 	 	 	 	 	 	 	 	 	 	 	 	 	 	1581498146	7.80	14.45
12/02/2020 09:02:27	120220	12022020	090227	187.62	12.749417	-57.143698	187.77	0.730	-0.460	1.700	187.63	-1.90	2.20	 	 	 	 	 	 	 	 	 	 	 	 	 	 	 	 	 	 	1581498147	7.67	14.20
12/02/2020 09:02:28	120220	12022020	090228	187.70	12.749382	-57.143705	187.85	0.580	-0.390	1.910	187.70	-1.80	2.40	 	 	 	 	 	 	 	 	 	 	 	 	 	 	 	 	 	 	1581498148	7.42	13.74
12/02/2020 09:02:29	120220	12022020	090229	187.74	12.749348	-57.143713	187.88	0.150	-0.400	2.190	187.74	-1.80	2.70	 	 	 	 	 	 	 	 	 	 	 	 	 	 	 	 	 	 	1581498149	7.32	13.56
12/02/2020 09:02:30	120220	12022020	090230	187.63	12.749315	-57.143722	187.69	-0.280	-0.560	2.520	187.58	-2.00	3.00	 	 	 	 	 	 	 	 	 	 	 	 	 	 	 	 	 	 	1581498150	7.44	13.78
12/02/2020 09:02:31	120220	12022020	090231	187.30	12.749280	-57.143732	187.37	-0.450	-0.720	2.770	187.24	-2.10	3.20	 	 	 	 	 	 	 	 	 	 	 	 	 	 	 	 	 	 	1581498151	7.76	14.37
12/02/2020 09:02:32	120220	12022020	090232	187.13	12.749245	-57.143742	187.32	-0.450	-0.580	2.700	187.15	-2.00	3.10	 	 	 	 	 	 	 	 	 	 	 	 	 	 	 	 	 	 	1581498152	7.95	14.72
12/02/2020 09:02:33	120220	12022020	090233	187.37	12.749210	-57.143750	187.63	-0.410	-0.150	2.210	187.44	-1.50	2.60	 	 	 	 	 	 	 	 	 	 	 	 	 	 	 	 	 	 	1581498153	7.68	14.22
12/02/2020 09:02:34	120220	12022020	090234	187.76	12.749177	-57.143755	187.91	-0.300	0.110	1.580	187.76	-1.30	2.00	 	 	 	 	 	 	 	 	 	 	 	 	 	 	 	 	 	 	1581498154	7.34	13.59
12/02/2020 09:02:35	120220	12022020	090235	187.86	12.749142	-57.143760	187.99	-0.020	-0.130	1.120	187.87	-1.50	1.60	 	 	 	 	 	 	 	 	 	 	 	 	 	 	 	 	 	 	1581498155	7.52	13.93
12/02/2020 09:02:36	120220	12022020	090236	187.94	12.749103	-57.143762	188.10	0.230	-0.540	1.070	187.94	-1.90	1.60	 	 	 	 	 	 	 	 	 	 	 	 	 	 	 	 	 	 	1581498156	8.12	15.04
12/02/2020 09:02:37	120220	12022020	090237	188.07	12.749065	-57.143768	188.24	0.150	-0.610	1.380	188.09	-2.00	1.90	 	 	 	 	 	 	 	 	 	 	 	 	 	 	 	 	 	 	1581498157	8.30	15.37
12/02/2020 09:02:38	120220	12022020	090238	188.04	12.749030	-57.143777	188.18	-0.140	-0.240	1.980	188.04	-1.60	2.50	 	 	 	 	 	 	 	 	 	 	 	 	 	 	 	 	 	 	1581498158	7.86	14.56
12/02/2020 09:02:39	120220	12022020	090239	187.77	12.748998	-57.143788	187.81	-0.220	0.210	2.670	187.69	-1.20	3.20	 	 	 	 	 	 	 	 	 	 	 	 	 	 	 	 	 	 	1581498159	7.46	13.82
12/02/2020 09:02:40	120220	12022020	090240	187.26	12.748965	-57.143800	187.40	0.030	0.510	3.030	187.26	-0.90	3.50	 	 	 	 	 	 	 	 	 	 	 	 	 	 	 	 	 	 	1581498160	7.44	13.78
12/02/2020 09:02:41	120220	12022020	090241	187.07	12.748932	-57.143808	187.21	0.320	0.480	2.930	187.05	-0.90	3.40	 	 	 	 	 	 	 	 	 	 	 	 	 	 	 	 	 	 	1581498161	7.51	13.91
12/02/2020 09:02:42	120220	12022020	090242	187.08	12.748895	-57.143815	187.31	0.430	0.090	2.600	187.11	-1.30	3.00	 	 	 	 	 	 	 	 	 	 	 	 	 	 	 	 	 	 	1581498162	7.69	14.24
12/02/2020 09:02:43	120220	12022020	090243	187.43	12.748860	-57.143820	187.73	0.300	-0.340	2.150	187.52	-1.80	2.60	 	 	 	 	 	 	 	 	 	 	 	 	 	 	 	 	 	 	1581498163	7.90	14.63
12/02/2020 09:02:44	120220	12022020	090244	187.98	12.748823	-57.143825	188.29	0.030	-0.520	1.830	188.09	-1.90	2.30	 	 	 	 	 	 	 	 	 	 	 	 	 	 	 	 	 	 	1581498164	7.76	14.37
12/02/2020 09:02:45	120220	12022020	090245	188.45	12.748790	-57.143832	188.69	-0.220	-0.570	1.770	188.52	-2.00	2.20	 	 	 	 	 	 	 	 	 	 	 	 	 	 	 	 	 	 	1581498165	7.37	13.65
12/02/2020 09:02:46	120220	12022020	090246	188.77	12.748758	-57.143842	188.95	-0.330	-0.580	1.810	188.77	-2.00	2.30	 	 	 	 	 	 	 	 	 	 	 	 	 	 	 	 	 	 	1581498166	7.23	13.39
12/02/2020 09:02:47	120220	12022020	090247	188.94	12.748725	-57.143850	189.11	-0.290	-0.570	1.640	188.96	-2.00	2.10	 	 	 	 	 	 	 	 	 	 	 	 	 	 	 	 	 	 	1581498167	7.24	13.41
12/02/2020 09:02:48	120220	12022020	090248	188.86	12.748692	-57.143858	188.96	-0.070	-0.900	1.490	188.86	-2.30	2.00	 	 	 	 	 	 	 	 	 	 	 	 	 	 	 	 	 	 	1581498168	7.30	13.52
12/02/2020 09:02:49	120220	12022020	090249	188.45	12.748655	-57.143865	188.38	0.320	-1.490	1.690	188.31	-2.90	2.20	 	 	 	 	 	 	 	 	 	 	 	 	 	 	 	 	 	 	1581498169	7.95	14.72
12/02/2020 09:02:50	120220	12022020	090250	187.61	12.748617	-57.143872	187.69	0.570	-1.470	2.100	187.61	-2.80	2.60	 	 	 	 	 	 	 	 	 	 	 	 	 	 	 	 	 	 	1581498170	8.62	15.96
12/02/2020 09:02:51	120220	12022020	090251	187.25	12.748578	-57.143878	187.37	0.280	-0.300	2.380	187.22	-1.60	2.90	 	 	 	 	 	 	 	 	 	 	 	 	 	 	 	 	 	 	1581498171	8.33	15.43
12/02/2020 09:02:52	120220	12022020	090252	187.38	12.748545	-57.143887	187.55	-0.450	1.370	2.280	187.38	0.10	2.70	 	 	 	 	 	 	 	 	 	 	 	 	 	 	 	 	 	 	1581498172	7.20	13.33
12/02/2020 09:02:53	120220	12022020	090253	187.67	12.748517	-57.143893	187.92	-1.060	2.200	2.060	187.75	0.80	2.50	 	 	 	 	 	 	 	 	 	 	 	 	 	 	 	 	 	 	1581498173	6.46	11.96
12/02/2020 09:02:54	120220	12022020	090254	188.07	12.748485	-57.143902	188.34	-1.010	1.640	1.820	188.17	0.20	2.30	 	 	 	 	 	 	 	 	 	 	 	 	 	 	 	 	 	 	1581498174	7.08	13.11
12/02/2020 09:02:55	120220	12022020	090255	188.54	12.748448	-57.143912	188.76	-0.380	0.250	1.550	188.61	-1.20	2.00	 	 	 	 	 	 	 	 	 	 	 	 	 	 	 	 	 	 	1581498175	8.14	15.08
12/02/2020 09:02:56	120220	12022020	090256	188.74	12.748408	-57.143920	188.83	0.370	-1.130	1.590	188.72	-2.60	2.10	 	 	 	 	 	 	 	 	 	 	 	 	 	 	 	 	 	 	1581498176	8.63	15.98
12/02/2020 09:02:57	120220	12022020	090257	188.51	12.748370	-57.143930	188.53	0.830	-1.800	1.840	188.43	-3.20	2.30	 	 	 	 	 	 	 	 	 	 	 	 	 	 	 	 	 	 	1581498177	8.44	15.63
12/02/2020 09:02:58	120220	12022020	090258	187.92	12.748335	-57.143938	188.01	0.910	-1.540	2.000	187.92	-2.90	2.50	 	 	 	 	 	 	 	 	 	 	 	 	 	 	 	 	 	 	1581498178	7.75	14.35
12/02/2020 09:02:59	120220	12022020	090259	187.54	12.748303	-57.143943	187.60	0.700	-0.710	1.930	187.48	-2.10	2.40	 	 	 	 	 	 	 	 	 	 	 	 	 	 	 	 	 	 	1581498179	7.04	13.04
12/02/2020 09:03:00	120220	12022020	090300	187.50	12.748272	-57.143948	187.65	0.290	0.120	1.600	187.50	-1.30	2.10	 	 	 	 	 	 	 	 	 	 	 	 	 	 	 	 	 	 	1581498180	6.75	12.50
12/02/2020 09:03:01	120220	12022020	090301	187.75	12.748240	-57.143952	187.95	-0.170	0.450	1.370	187.81	-0.90	1.90	1014.90	26.20	26.20	21.00	21.00	-1.0	73.0	73.0	393.0	25.8	273.00	9.50	78.00	10.10	16	9329.0	27.4	27.4	1581498181	6.81	12.61
12/02/2020 09:03:02	120220	12022020	090302	187.93	12.748207	-57.143957	188.05	-0.510	0.100	1.560	187.93	-1.30	2.10	 	 	 	 	 	 	 	 	 	 	 	 	 	 	 	 	 	 	1581498182	7.31	13.54
12/02/2020 09:03:03	120220	12022020	090303	187.80	12.748170	-57.143967	187.84	-0.580	-0.610	2.060	187.74	-2.00	2.60	 	 	 	 	 	 	 	 	 	 	 	 	 	 	 	 	 	 	1581498183	8.07	14.95
12/02/2020 09:03:04	120220	12022020	090304	187.29	12.748133	-57.143978	187.38	-0.430	-1.130	2.720	187.29	-2.50	3.20	 	 	 	 	 	 	 	 	 	 	 	 	 	 	 	 	 	 	1581498184	8.59	15.91
12/02/2020 09:03:05	120220	12022020	090305	186.87	12.748095	-57.143992	186.90	-0.170	-1.050	3.120	186.78	-2.40	3.60	 	 	 	 	 	 	 	 	 	 	 	 	 	 	 	 	 	 	1581498185	8.56	15.85
12/02/2020 09:03:06	120220	12022020	090306	186.55	12.748058	-57.144003	186.69	0.000	-0.340	2.810	186.53	-1.70	3.20	 	 	 	 	 	 	 	 	 	 	 	 	 	 	 	 	 	 	1581498186	8.03	14.87
12/02/2020 09:03:07	120220	12022020	090307	186.64	12.748025	-57.144008	186.90	0.010	0.590	2.020	186.71	-0.80	2.40	 	 	 	 	 	 	 	 	 	 	 	 	 	 	 	 	 	 	1581498187	7.35	13.61
12/02/2020 09:03:08	120220	12022020	090308	187.08	12.747993	-57.144010	187.37	-0.060	1.080	1.120	187.17	-0.30	1.60	 	 	 	 	 	 	 	 	 	 	 	 	 	 	 	 	 	 	1581498188	7.00	12.96
12/02/2020 09:03:09	120220	12022020	090309	187.56	12.747958	-57.144012	187.81	-0.100	0.770	0.480	187.64	-0.70	0.90	 	 	 	 	 	 	 	 	 	 	 	 	 	 	 	 	 	 	1581498189	7.28	13.48
12/02/2020 09:03:10	120220	12022020	090310	187.84	12.747923	-57.144013	187.96	-0.030	-0.130	0.440	187.85	-1.60	0.90	 	 	 	 	 	 	 	 	 	 	 	 	 	 	 	 	 	 	1581498190	7.84	14.52
12/02/2020 09:03:11	120220	12022020	090311	187.65	12.747885	-57.144020	187.66	0.140	-1.000	0.990	187.57	-2.40	1.50	 	 	 	 	 	 	 	 	 	 	 	 	 	 	 	 	 	 	1581498191	8.28	15.33
12/02/2020 09:03:12	120220	12022020	090312	187.07	12.747847	-57.144028	187.17	0.240	-1.200	1.780	187.07	-2.60	2.30	 	 	 	 	 	 	 	 	 	 	 	 	 	 	 	 	 	 	1581498192	8.31	15.39
12/02/2020 09:03:13	120220	12022020	090313	186.74	12.747812	-57.144040	186.81	0.190	-0.640	2.340	186.69	-2.00	2.80	 	 	 	 	 	 	 	 	 	 	 	 	 	 	 	 	 	 	1581498193	7.77	14.39
12/02/2020 09:03:14	120220	12022020	090314	186.66	12.747782	-57.144050	186.82	0.090	0.220	2.320	186.66	-1.20	2.80	 	 	 	 	 	 	 	 	 	 	 	 	 	 	 	 	 	 	1581498194	7.09	13.13
12/02/2020 09:03:15	120220	12022020	090315	186.94	12.747750	-57.144057	187.19	0.040	0.650	1.870	187.03	-0.80	2.30	 	 	 	 	 	 	 	 	 	 	 	 	 	 	 	 	 	 	1581498195	6.73	12.46
12/02/2020 09:03:16	120220	12022020	090316	187.36	12.747718	-57.144062	187.57	0.080	0.170	1.480	187.42	-1.30	1.90	 	 	 	 	 	 	 	 	 	 	 	 	 	 	 	 	 	 	1581498196	7.04	13.04
12/02/2020 09:03:17	120220	12022020	090317	187.54	12.747682	-57.144067	187.64	0.170	-0.940	1.320	187.53	-2.40	1.80	 	 	 	 	 	 	 	 	 	 	 	 	 	 	 	 	 	 	1581498197	7.94	14.70
12/02/2020 09:03:18	120220	12022020	090318	187.31	12.747642	-57.144073	187.39	0.190	-1.780	1.500	187.31	-3.20	2.00	 	 	 	 	 	 	 	 	 	 	 	 	 	 	 	 	 	 	1581498198	8.62	15.96
12/02/2020 09:03:19	120220	12022020	090319	186.97	12.747603	-57.144082	186.97	0.040	-1.680	1.940	186.88	-3.00	2.40	 	 	 	 	 	 	 	 	 	 	 	 	 	 	 	 	 	 	1581498199	8.51	15.76
12/02/2020 09:03:20	120220	12022020	090320	186.55	12.747568	-57.144090	186.62	-0.250	-0.700	2.180	186.51	-2.00	2.60	 	 	 	 	 	 	 	 	 	 	 	 	 	 	 	 	 	 	1581498200	7.82	14.48
12/02/2020 09:03:21	120220	12022020	090321	186.38	12.747535	-57.144097	186.49	-0.530	0.410	2.100	186.36	-0.90	2.60	 	 	 	 	 	 	 	 	 	 	 	 	 	 	 	 	 	 	1581498201	7.14	13.22
12/02/2020 09:03:22	120220	12022020	090322	186.35	12.747503	-57.144103	186.50	-0.550	0.960	2.020	186.35	-0.40	2.50	 	 	 	 	 	 	 	 	 	 	 	 	 	 	 	 	 	 	1581498202	7.15	13.24
12/02/2020 09:03:23	120220	12022020	090323	186.59	12.747468	-57.144112	186.89	-0.260	1.060	1.660	186.70	-0.40	2.10	 	 	 	 	 	 	 	 	 	 	 	 	 	 	 	 	 	 	1581498203	7.74	14.33
12/02/2020 09:03:24	120220	12022020	090324	187.44	12.747432	-57.144117	187.64	0.050	1.010	1.160	187.44	-0.40	1.60	 	 	 	 	 	 	 	 	 	 	 	 	 	 	 	 	 	 	1581498204	7.92	14.67
12/02/2020 09:03:25	120220	12022020	090325	188.02	12.747397	-57.144120	188.28	0.180	0.600	1.040	188.12	-0.80	1.50	 	 	 	 	 	 	 	 	 	 	 	 	 	 	 	 	 	 	1581498205	7.61	14.09
12/02/2020 09:03:26	120220	12022020	090326	188.27	12.747362	-57.144125	188.39	0.230	-0.470	1.470	188.27	-1.90	2.00	 	 	 	 	 	 	 	 	 	 	 	 	 	 	 	 	 	 	1581498206	7.62	14.11
12/02/2020 09:03:27	120220	12022020	090327	187.99	12.747323	-57.144135	187.96	0.330	-1.600	2.210	187.87	-3.00	2.70	 	 	 	 	 	 	 	 	 	 	 	 	 	 	 	 	 	 	1581498207	8.16	15.11
12/02/2020 09:03:28	120220	12022020	090328	187.12	12.747287	-57.144145	187.20	0.450	-2.020	2.960	187.12	-3.40	3.40	 	 	 	 	 	 	 	 	 	 	 	 	 	 	 	 	 	 	1581498208	8.35	15.46
12/02/2020 09:03:29	120220	12022020	090329	186.47	12.747252	-57.144155	186.43	0.420	-1.480	3.290	186.33	-2.80	3.70	 	 	 	 	 	 	 	 	 	 	 	 	 	 	 	 	 	 	1581498209	7.93	14.69
12/02/2020 09:03:30	120220	12022020	090330	186.01	12.747218	-57.144163	186.13	0.100	-0.460	3.080	185.99	-1.80	3.50	 	 	 	 	 	 	 	 	 	 	 	 	 	 	 	 	 	 	1581498210	7.24	13.41
12/02/2020 09:03:31	120220	12022020	090331	186.13	12.747187	-57.144168	186.40	-0.350	0.290	2.620	186.22	-1.10	3.10	 	 	 	 	 	 	 	 	 	 	 	 	 	 	 	 	 	 	1581498211	6.99	12.95
12/02/2020 09:03:32	120220	12022020	090332	186.65	12.747153	-57.144175	186.96	-0.610	0.580	2.080	186.77	-0.80	2.50	 	 	 	 	 	 	 	 	 	 	 	 	 	 	 	 	 	 	1581498212	7.31	13.54
12/02/2020 09:03:33	120220	12022020	090333	187.29	12.747118	-57.144183	187.57	-0.490	0.580	1.460	187.40	-0.80	1.90	 	 	 	 	 	 	 	 	 	 	 	 	 	 	 	 	 	 	1581498213	7.71	14.28
12/02/2020 09:03:34	120220	12022020	090334	187.94	12.747082	-57.144188	188.08	-0.070	0.370	0.910	187.94	-1.10	1.40	 	 	 	 	 	 	 	 	 	 	 	 	 	 	 	 	 	 	1581498214	7.83	14.50
12/02/2020 09:03:35	120220	12022020	090335	188.20	12.747045	-57.144192	188.35	0.380	-0.170	0.670	188.24	-1.60	1.10	 	 	 	 	 	 	 	 	 	 	 	 	 	 	 	 	 	 	1581498215	7.92	14.67
12/02/2020 09:03:36	120220	12022020	090336	188.24	12.747007	-57.144195	188.33	0.540	-0.780	0.920	188.24	-2.20	1.40	 	 	 	 	 	 	 	 	 	 	 	 	 	 	 	 	 	 	1581498216	8.18	15.15
12/02/2020 09:03:37	120220	12022020	090337	188.04	12.746970	-57.144200	188.05	0.280	-0.990	1.650	187.98	-2.40	2.20	 	 	 	 	 	 	 	 	 	 	 	 	 	 	 	 	 	 	1581498217	8.22	15.22
12/02/2020 09:03:38	120220	12022020	090338	187.64	12.746933	-57.144210	187.76	-0.230	-0.600	2.500	187.64	-2.00	3.00	 	 	 	 	 	 	 	 	 	 	 	 	 	 	 	 	 	 	1581498218	7.89	14.61
12/02/2020 09:03:39	120220	12022020	090339	187.50	12.746902	-57.144222	187.62	-0.660	0.040	2.940	187.49	-1.40	3.40	 	 	 	 	 	 	 	 	 	 	 	 	 	 	 	 	 	 	1581498219	7.44	13.78
12/02/2020 09:03:40	120220	12022020	090340	187.49	12.746870	-57.144233	187.64	-0.710	0.400	2.870	187.49	-1.00	3.30	 	 	 	 	 	 	 	 	 	 	 	 	 	 	 	 	 	 	1581498220	7.24	13.41
12/02/2020 09:03:41	120220	12022020	090341	187.48	12.746837	-57.144243	187.57	-0.200	0.190	2.430	187.46	-1.20	2.90	 	 	 	 	 	 	 	 	 	 	 	 	 	 	 	 	 	 	1581498221	7.49	13.87
12/02/2020 09:03:42	120220	12022020	090342	187.33	12.746800	-57.144250	187.43	0.600	-0.320	1.680	187.33	-1.80	2.10	 	 	 	 	 	 	 	 	 	 	 	 	 	 	 	 	 	 	1581498222	7.99	14.80
12/02/2020 09:03:43	120220	12022020	090343	187.34	12.746760	-57.144252	187.50	1.040	-0.600	0.930	187.37	-2.00	1.40	 	 	 	 	 	 	 	 	 	 	 	 	 	 	 	 	 	 	1581498223	8.35	15.46
12/02/2020 09:03:44	120220	12022020	090344	187.69	12.746723	-57.144252	187.83	0.710	-0.380	0.660	187.69	-1.80	1.10	 	 	 	 	 	 	 	 	 	 	 	 	 	 	 	 	 	 	1581498224	8.05	14.91
12/02/2020 09:03:45	120220	12022020	090345	188.03	12.746690	-57.144255	188.25	-0.150	0.090	0.920	188.10	-1.30	1.40	 	 	 	 	 	 	 	 	 	 	 	 	 	 	 	 	 	 	1581498225	7.31	13.54
12/02/2020 09:03:46	120220	12022020	090346	188.42	12.746658	-57.144265	188.61	-0.840	0.300	1.490	188.47	-1.10	2.00	 	 	 	 	 	 	 	 	 	 	 	 	 	 	 	 	 	 	1581498226	6.99	12.95
12/02/2020 09:03:47	120220	12022020	090347	188.50	12.746627	-57.144278	188.55	-0.710	-0.210	2.130	188.46	-1.70	2.60	 	 	 	 	 	 	 	 	 	 	 	 	 	 	 	 	 	 	1581498227	7.40	13.70
12/02/2020 09:03:48	120220	12022020	090348	187.91	12.746592	-57.144293	187.98	0.120	-1.040	2.670	187.91	-2.50	3.10	 	 	 	 	 	 	 	 	 	 	 	 	 	 	 	 	 	 	1581498228	8.22	15.22
12/02/2020 09:03:49	120220	12022020	090349	187.50	12.746552	-57.144305	187.57	0.850	-1.190	2.620	187.44	-2.60	3.10	 	 	 	 	 	 	 	 	 	 	 	 	 	 	 	 	 	 	1581498229	8.69	16.09
12/02/2020 09:03:50	120220	12022020	090350	187.56	12.746515	-57.144310	187.72	0.880	-0.490	1.880	187.56	-1.90	2.30	 	 	 	 	 	 	 	 	 	 	 	 	 	 	 	 	 	 	1581498230	8.02	14.85
12/02/2020 09:03:51	120220	12022020	090351	187.93	12.746482	-57.144310	188.18	0.280	0.200	1.160	188.03	-1.20	1.60	 	 	 	 	 	 	 	 	 	 	 	 	 	 	 	 	 	 	1581498231	7.17	13.28
12/02/2020 09:03:52	120220	12022020	090352	188.28	12.746448	-57.144310	188.39	-0.440	0.100	1.380	188.28	-1.40	1.90	 	 	 	 	 	 	 	 	 	 	 	 	 	 	 	 	 	 	1581498232	7.13	13.20
12/02/2020 09:03:53	120220	12022020	090353	188.08	12.746413	-57.144318	188.07	-0.880	-0.540	2.380	187.99	-2.00	2.90	 	 	 	 	 	 	 	 	 	 	 	 	 	 	 	 	 	 	1581498233	7.92	14.67
12/02/2020 09:03:54	120220	12022020	090354	187.46	12.746375	-57.144333	187.56	-0.920	-0.810	3.250	187.46	-2.20	3.70	 	 	 	 	 	 	 	 	 	 	 	 	 	 	 	 	 	 	1581498234	8.82	16.33
12/02/2020 09:03:55	120220	12022020	090355	187.18	12.746338	-57.144352	187.27	-0.700	-0.220	3.570	187.14	-1.60	4.00	 	 	 	 	 	 	 	 	 	 	 	 	 	 	 	 	 	 	1581498235	8.61	15.95
12/02/2020 09:03:56	120220	12022020	090356	187.07	12.746307	-57.144365	187.19	-0.290	0.630	3.200	187.07	-0.80	3.60	 	 	 	 	 	 	 	 	 	 	 	 	 	 	 	 	 	 	1581498236	7.52	13.93
12/02/2020 09:03:57	120220	12022020	090357	187.07	12.746275	-57.144373	187.18	0.260	0.740	2.310	187.07	-0.70	2.70	 	 	 	 	 	 	 	 	 	 	 	 	 	 	 	 	 	 	1581498237	6.90	12.78
12/02/2020 09:03:58	120220	12022020	090358	187.02	12.746240	-57.144375	187.09	0.770	0.030	1.530	186.99	-1.40	2.00	 	 	 	 	 	 	 	 	 	 	 	 	 	 	 	 	 	 	1581498238	7.55	13.98
12/02/2020 09:03:59	120220	12022020	090359	186.87	12.746202	-57.144377	186.96	0.960	-0.650	1.220	186.86	-2.10	1.70	 	 	 	 	 	 	 	 	 	 	 	 	 	 	 	 	 	 	1581498239	8.36	15.48
12/02/2020 09:04:00	120220	12022020	090400	186.95	12.746163	-57.144380	187.15	0.710	-0.550	1.150	187.01	-2.00	1.60	 	 	 	 	 	 	 	 	 	 	 	 	 	 	 	 	 	 	1581498240	8.21	15.20
12/02/2020 09:04:01	120220	12022020	090401	187.33	12.746130	-57.144385	187.54	0.180	0.010	1.170	187.41	-1.40	1.60	1014.90	26.10	26.20	20.70	20.80	-1.0	72.0	72.0	391.0	25.7	275.00	9.30	79.00	9.80	16	10243.0	27.4	27.4	1581498241	7.21	13.35
12/02/2020 09:04:02	120220	12022020	090402	187.63	12.746100	-57.144390	187.74	-0.250	0.090	1.530	187.63	-1.40	2.00	 	 	 	 	 	 	 	 	 	 	 	 	 	 	 	 	 	 	1581498242	6.62	12.26
12/02/2020 09:04:03	120220	12022020	090403	187.56	12.746067	-57.144400	187.59	-0.350	-0.610	2.270	187.50	-2.10	2.80	 	 	 	 	 	 	 	 	 	 	 	 	 	 	 	 	 	 	1581498243	7.24	13.41
12/02/2020 09:04:04	120220	12022020	090404	187.04	12.746032	-57.144413	187.11	-0.110	-1.530	3.050	187.04	-3.00	3.50	 	 	 	 	 	 	 	 	 	 	 	 	 	 	 	 	 	 	1581498244	8.30	15.37
12/02/2020 09:04:05	120220	12022020	090405	186.53	12.745992	-57.144427	186.50	0.220	-1.860	3.530	186.41	-3.30	4.00	 	 	 	 	 	 	 	 	 	 	 	 	 	 	 	 	 	 	1581498245	8.82	16.33
12/02/2020 09:04:06	120220	12022020	090406	186.15	12.745955	-57.144437	186.31	0.220	-0.990	3.280	186.15	-2.30	3.70	 	 	 	 	 	 	 	 	 	 	 	 	 	 	 	 	 	 	1581498246	8.46	15.67
12/02/2020 09:04:07	120220	12022020	090407	186.44	12.745922	-57.144442	186.75	-0.280	0.670	2.440	186.56	-0.70	2.90	 	 	 	 	 	 	 	 	 	 	 	 	 	 	 	 	 	 	1581498247	7.24	13.41
12/02/2020 09:04:08	120220	12022020	090408	187.14	12.745892	-57.144445	187.28	-0.910	1.730	1.700	187.14	0.30	2.10	 	 	 	 	 	 	 	 	 	 	 	 	 	 	 	 	 	 	1581498248	6.21	11.50
12/02/2020 09:04:09	120220	12022020	090409	187.30	12.745862	-57.144448	187.40	-0.980	1.260	1.500	187.30	-0.20	2.00	 	 	 	 	 	 	 	 	 	 	 	 	 	 	 	 	 	 	1581498249	6.63	12.28
12/02/2020 09:04:10	120220	12022020	090410	187.07	12.745825	-57.144457	187.13	-0.260	-0.130	1.630	187.07	-1.60	2.10	 	 	 	 	 	 	 	 	 	 	 	 	 	 	 	 	 	 	1581498250	8.16	15.11
12/02/2020 09:04:11	120220	12022020	090411	186.82	12.745783	-57.144467	186.91	0.700	-0.980	1.730	186.80	-2.40	2.20	 	 	 	 	 	 	 	 	 	 	 	 	 	 	 	 	 	 	1581498251	9.06	16.78
12/02/2020 09:04:12	120220	12022020	090412	186.97	12.745745	-57.144473	187.13	1.140	-0.760	1.440	186.97	-2.20	1.90	 	 	 	 	 	 	 	 	 	 	 	 	 	 	 	 	 	 	1581498252	8.37	15.50
12/02/2020 09:04:13	120220	12022020	090413	187.35	12.745712	-57.144477	187.59	0.830	-0.260	1.240	187.43	-1.70	1.70	 	 	 	 	 	 	 	 	 	 	 	 	 	 	 	 	 	 	1581498253	7.07	13.09
12/02/2020 09:04:14	120220	12022020	090414	187.60	12.745682	-57.144480	187.72	0.190	-0.270	1.780	187.60	-1.70	2.30	 	 	 	 	 	 	 	 	 	 	 	 	 	 	 	 	 	 	1581498254	6.67	12.35
12/02/2020 09:04:15	120220	12022020	090415	187.34	12.745648	-57.144490	187.34	-0.240	-0.740	2.830	187.24	-2.20	3.30	 	 	 	 	 	 	 	 	 	 	 	 	 	 	 	 	 	 	1581498255	7.35	13.61
12/02/2020 09:04:16	120220	12022020	090416	186.69	12.745613	-57.144503	186.80	-0.280	-0.920	3.670	186.69	-2.30	4.10	 	 	 	 	 	 	 	 	 	 	 	 	 	 	 	 	 	 	1581498256	8.18	15.15
12/02/2020 09:04:17	120220	12022020	090417	186.36	12.745578	-57.144517	186.48	-0.170	-0.420	3.940	186.31	-1.80	4.40	 	 	 	 	 	 	 	 	 	 	 	 	 	 	 	 	 	 	1581498257	8.08	14.96
12/02/2020 09:04:18	120220	12022020	090418	186.40	12.745545	-57.144527	186.60	-0.190	0.300	3.560	186.40	-1.10	4.00	 	 	 	 	 	 	 	 	 	 	 	 	 	 	 	 	 	 	1581498258	7.32	13.56
12/02/2020 09:04:19	120220	12022020	090419	186.64	12.745513	-57.144532	186.85	-0.340	0.450	2.830	186.69	-1.00	3.30	 	 	 	 	 	 	 	 	 	 	 	 	 	 	 	 	 	 	1581498259	6.94	12.85
12/02/2020 09:04:20	120220	12022020	090420	186.59	12.745478	-57.144537	186.69	-0.310	-0.190	2.330	186.59	-1.70	2.80	 	 	 	 	 	 	 	 	 	 	 	 	 	 	 	 	 	 	1581498260	7.44	13.78
12/02/2020 09:04:21	120220	12022020	090421	186.27	12.745442	-57.144543	186.31	0.050	-0.770	2.030	186.21	-2.20	2.50	 	 	 	 	 	 	 	 	 	 	 	 	 	 	 	 	 	 	1581498261	8.28	15.33
12/02/2020 09:04:22	120220	12022020	090422	186.13	12.745403	-57.144548	186.31	0.400	-0.380	1.420	186.16	-1.80	1.90	 	 	 	 	 	 	 	 	 	 	 	 	 	 	 	 	 	 	1581498262	8.26	15.30
12/02/2020 09:04:23	120220	12022020	090423	186.41	12.745370	-57.144552	186.62	0.430	0.380	0.760	186.48	-1.00	1.20	 	 	 	 	 	 	 	 	 	 	 	 	 	 	 	 	 	 	1581498263	7.10	13.15
12/02/2020 09:04:24	120220	12022020	090424	186.71	12.745340	-57.144553	186.81	0.260	0.360	0.530	186.71	-1.10	1.00	 	 	 	 	 	 	 	 	 	 	 	 	 	 	 	 	 	 	1581498264	6.55	12.13
12/02/2020 09:04:25	120220	12022020	090425	186.66	12.745307	-57.144558	186.73	0.170	-0.510	0.800	186.64	-2.00	1.30	 	 	 	 	 	 	 	 	 	 	 	 	 	 	 	 	 	 	1581498265	7.35	13.61
12/02/2020 09:04:26	120220	12022020	090426	186.60	12.745268	-57.144565	186.73	0.020	-1.040	1.310	186.60	-2.50	1.80	 	 	 	 	 	 	 	 	 	 	 	 	 	 	 	 	 	 	1581498266	8.33	15.43
12/02/2020 09:04:27	120220	12022020	090427	186.65	12.745232	-57.144575	186.79	-0.270	-0.720	1.840	186.66	-2.10	2.30	 	 	 	 	 	 	 	 	 	 	 	 	 	 	 	 	 	 	1581498267	8.00	14.82
12/02/2020 09:04:28	120220	12022020	090428	186.52	12.745200	-57.144585	186.62	-0.480	-0.310	2.380	186.52	-1.70	2.90	 	 	 	 	 	 	 	 	 	 	 	 	 	 	 	 	 	 	1581498268	7.18	13.30
12/02/2020 09:04:29	120220	12022020	090429	186.14	12.745168	-57.144597	186.12	-0.270	-0.460	2.930	186.02	-1.90	3.40	 	 	 	 	 	 	 	 	 	 	 	 	 	 	 	 	 	 	1581498269	7.30	13.52
12/02/2020 09:04:30	120220	12022020	090430	185.58	12.745132	-57.144607	185.71	0.170	-0.600	3.040	185.58	-2.00	3.50	 	 	 	 	 	 	 	 	 	 	 	 	 	 	 	 	 	 	1581498270	8.13	15.06
12/02/2020 09:04:31	120220	12022020	090431	185.57	12.745095	-57.144613	185.78	0.320	-0.080	2.730	185.61	-1.50	3.20	 	 	 	 	 	 	 	 	 	 	 	 	 	 	 	 	 	 	1581498271	8.15	15.09
12/02/2020 09:04:32	120220	12022020	090432	186.02	12.745060	-57.144617	186.20	-0.000	0.680	2.280	186.02	-0.70	2.70	 	 	 	 	 	 	 	 	 	 	 	 	 	 	 	 	 	 	1581498272	7.30	13.52
12/02/2020 09:04:33	120220	12022020	090433	186.36	12.745030	-57.144620	186.59	-0.380	0.940	1.980	186.43	-0.50	2.40	 	 	 	 	 	 	 	 	 	 	 	 	 	 	 	 	 	 	1581498273	6.77	12.54
12/02/2020 09:04:34	120220	12022020	090434	186.61	12.744997	-57.144628	186.78	-0.330	0.550	1.880	186.64	-0.90	2.30	 	 	 	 	 	 	 	 	 	 	 	 	 	 	 	 	 	 	1581498274	7.09	13.13
12/02/2020 09:04:35	120220	12022020	090435	186.67	12.744963	-57.144635	186.81	0.110	-0.170	1.790	186.67	-1.60	2.20	 	 	 	 	 	 	 	 	 	 	 	 	 	 	 	 	 	 	1581498275	7.60	14.08
12/02/2020 09:04:36	120220	12022020	090436	186.64	12.744927	-57.144643	186.75	0.540	-0.830	1.640	186.63	-2.30	2.10	 	 	 	 	 	 	 	 	 	 	 	 	 	 	 	 	 	 	1581498276	7.84	14.52
12/02/2020 09:04:37	120220	12022020	090437	186.58	12.744892	-57.144648	186.68	0.630	-1.140	1.480	186.57	-2.50	1.90	 	 	 	 	 	 	 	 	 	 	 	 	 	 	 	 	 	 	1581498277	7.76	14.37
12/02/2020 09:04:38	120220	12022020	090438	186.62	12.744857	-57.144655	186.76	0.410	-0.990	1.280	186.64	-2.40	1.70	 	 	 	 	 	 	 	 	 	 	 	 	 	 	 	 	 	 	1581498278	7.45	13.80
12/02/2020 09:04:39	120220	12022020	090439	186.68	12.744825	-57.144660	186.77	0.140	-0.780	1.230	186.66	-2.20	1.70	 	 	 	 	 	 	 	 	 	 	 	 	 	 	 	 	 	 	1581498279	7.13	13.20
12/02/2020 09:04:40	120220	12022020	090440	186.46	12.744790	-57.144665	186.55	0.030	-0.760	1.440	186.46	-2.20	1.90	 	 	 	 	 	 	 	 	 	 	 	 	 	 	 	 	 	 	1581498280	7.30	13.52
12/02/2020 09:04:41	120220	12022020	090441	186.32	12.744755	-57.144672	186.43	-0.110	-0.640	1.650	186.31	-2.00	2.10	 	 	 	 	 	 	 	 	 	 	 	 	 	 	 	 	 	 	1581498281	7.83	14.50
12/02/2020 09:04:42	120220	12022020	090442	186.40	12.744718	-57.144677	186.55	-0.450	-0.220	1.880	186.40	-1.60	2.40	 	 	 	 	 	 	 	 	 	 	 	 	 	 	 	 	 	 	1581498282	7.90	14.63
12/02/2020 09:04:43	120220	12022020	090443	186.55	12.744683	-57.144685	186.75	-0.840	0.280	2.070	186.59	-1.10	2.50	 	 	 	 	 	 	 	 	 	 	 	 	 	 	 	 	 	 	1581498283	7.62	14.11
12/02/2020 09:04:44	120220	12022020	090444	186.83	12.744650	-57.144695	186.98	-0.940	0.630	2.100	186.83	-0.80	2.60	 	 	 	 	 	 	 	 	 	 	 	 	 	 	 	 	 	 	1581498284	7.51	13.91
12/02/2020 09:04:45	120220	12022020	090445	186.91	12.744617	-57.144703	187.04	-0.610	0.690	2.160	186.90	-0.70	2.60	 	 	 	 	 	 	 	 	 	 	 	 	 	 	 	 	 	 	1581498285	7.54	13.96
12/02/2020 09:04:46	120220	12022020	090446	186.72	12.744582	-57.144712	186.83	-0.050	0.440	2.310	186.72	-1.00	2.80	 	 	 	 	 	 	 	 	 	 	 	 	 	 	 	 	 	 	1581498286	7.63	14.13
12/02/2020 09:04:47	120220	12022020	090447	186.47	12.744547	-57.144720	186.52	0.400	0.050	2.320	186.41	-1.40	2.80	 	 	 	 	 	 	 	 	 	 	 	 	 	 	 	 	 	 	1581498287	7.80	14.45
12/02/2020 09:04:48	120220	12022020	090448	186.23	12.744512	-57.144727	186.32	0.600	-0.270	2.120	186.20	-1.70	2.60	 	 	 	 	 	 	 	 	 	 	 	 	 	 	 	 	 	 	1581498288	7.78	14.41
12/02/2020 09:04:49	120220	12022020	090449	186.18	12.744477	-57.144733	186.33	0.630	-0.470	1.730	186.20	-1.90	2.20	 	 	 	 	 	 	 	 	 	 	 	 	 	 	 	 	 	 	1581498289	7.60	14.08
12/02/2020 09:04:50	120220	12022020	090450	186.33	12.744442	-57.144737	186.52	0.570	-0.550	1.210	186.38	-2.00	1.70	 	 	 	 	 	 	 	 	 	 	 	 	 	 	 	 	 	 	1581498290	7.39	13.69
12/02/2020 09:04:51	120220	12022020	090451	186.57	12.744408	-57.144740	186.73	0.450	-0.630	0.870	186.60	-2.00	1.40	 	 	 	 	 	 	 	 	 	 	 	 	 	 	 	 	 	 	1581498291	7.26	13.45
12/02/2020 09:04:52	120220	12022020	090452	186.72	12.744375	-57.144745	186.86	0.320	-0.750	0.900	186.72	-2.20	1.40	 	 	 	 	 	 	 	 	 	 	 	 	 	 	 	 	 	 	1581498292	7.29	13.50
12/02/2020 09:04:53	120220	12022020	090453	186.81	12.744340	-57.144750	186.97	0.180	-0.840	1.110	186.83	-2.20	1.60	 	 	 	 	 	 	 	 	 	 	 	 	 	 	 	 	 	 	1581498293	7.49	13.87
12/02/2020 09:04:54	120220	12022020	090454	186.83	12.744305	-57.144757	186.96	-0.120	-0.900	1.520	186.83	-2.30	2.00	 	 	 	 	 	 	 	 	 	 	 	 	 	 	 	 	 	 	1581498294	7.62	14.11
12/02/2020 09:04:55	120220	12022020	090455	186.60	12.744270	-57.144763	186.62	-0.540	-0.900	2.310	186.51	-2.30	2.80	 	 	 	 	 	 	 	 	 	 	 	 	 	 	 	 	 	 	1581498295	7.83	14.50
12/02/2020 09:04:56	120220	12022020	090456	185.98	12.744233	-57.144777	186.09	-0.870	-0.530	3.110	185.98	-1.90	3.60	 	 	 	 	 	 	 	 	 	 	 	 	 	 	 	 	 	 	1581498296	8.13	15.06
12/02/2020 09:04:57	120220	12022020	090457	185.62	12.744198	-57.144790	185.67	-0.850	0.180	3.480	185.54	-1.20	4.00	 	 	 	 	 	 	 	 	 	 	 	 	 	 	 	 	 	 	1581498297	8.01	14.83
12/02/2020 09:04:58	120220	12022020	090458	185.31	12.744165	-57.144802	185.47	-0.420	0.770	3.180	185.31	-0.60	3.60	 	 	 	 	 	 	 	 	 	 	 	 	 	 	 	 	 	 	1581498298	7.62	14.11
12/02/2020 09:04:59	120220	12022020	090459	185.46	12.744130	-57.144807	185.77	0.060	1.030	2.210	185.55	-0.40	2.60	 	 	 	 	 	 	 	 	 	 	 	 	 	 	 	 	 	 	1581498299	7.56	14.00
12/02/2020 09:05:00	120220	12022020	090500	186.06	12.744095	-57.144808	186.40	0.290	0.830	1.300	186.19	-0.60	1.80	 	 	 	 	 	 	 	 	 	 	 	 	 	 	 	 	 	 	1581498300	7.59	14.06
12/02/2020 09:05:01	120220	12022020	090501	186.63	12.744060	-57.144808	186.84	0.320	0.120	0.990	186.69	-1.30	1.50	1014.90	26.10	26.20	20.70	20.80	-1.0	71.0	72.0	391.0	25.7	271.00	9.60	75.00	10.20	16	8966.0	27.4	27.4	1581498301	7.63	14.13
12/02/2020 09:05:02	120220	12022020	090502	186.68	12.744023	-57.144813	186.79	0.420	-0.810	1.130	186.68	-2.20	1.60	 	 	 	 	 	 	 	 	 	 	 	 	 	 	 	 	 	 	1581498302	7.83	14.50
12/02/2020 09:05:03	120220	12022020	090503	186.38	12.743987	-57.144820	186.40	0.590	-1.380	1.690	186.29	-2.80	2.20	 	 	 	 	 	 	 	 	 	 	 	 	 	 	 	 	 	 	1581498303	8.02	14.85
12/02/2020 09:05:04	120220	12022020	090504	185.90	12.743952	-57.144828	185.92	0.570	-1.220	2.430	185.80	-2.60	2.90	 	 	 	 	 	 	 	 	 	 	 	 	 	 	 	 	 	 	1581498304	7.80	14.45
12/02/2020 09:05:05	120220	12022020	090505	185.47	12.743920	-57.144837	185.59	0.230	-0.570	2.760	185.42	-1.90	3.20	 	 	 	 	 	 	 	 	 	 	 	 	 	 	 	 	 	 	1581498305	7.28	13.48
12/02/2020 09:05:06	120220	12022020	090506	185.55	12.743888	-57.144845	185.76	-0.310	0.160	2.470	185.55	-1.20	2.90	 	 	 	 	 	 	 	 	 	 	 	 	 	 	 	 	 	 	1581498306	6.96	12.89
12/02/2020 09:05:07	120220	12022020	090507	185.98	12.743857	-57.144853	186.38	-0.630	0.480	1.890	186.13	-0.90	2.30	 	 	 	 	 	 	 	 	 	 	 	 	 	 	 	 	 	 	1581498307	6.87	12.72
12/02/2020 09:05:08	120220	12022020	090508	186.87	12.743823	-57.144858	187.09	-0.360	0.120	1.070	186.87	-1.30	1.50	 	 	 	 	 	 	 	 	 	 	 	 	 	 	 	 	 	 	1581498308	7.27	13.46
12/02/2020 09:05:09	120220	12022020	090509	187.26	12.743787	-57.144862	187.48	0.250	-0.810	0.570	187.31	-2.20	1.10	 	 	 	 	 	 	 	 	 	 	 	 	 	 	 	 	 	 	1581498309	7.96	14.74
12/02/2020 09:05:10	120220	12022020	090510	187.30	12.743747	-57.144865	187.36	0.530	-1.480	0.930	187.24	-2.80	1.40	 	 	 	 	 	 	 	 	 	 	 	 	 	 	 	 	 	 	1581498310	8.67	16.06
12/02/2020 09:05:11	120220	12022020	090511	186.86	12.743708	-57.144872	186.86	0.130	-1.060	1.840	186.75	-2.40	2.40	 	 	 	 	 	 	 	 	 	 	 	 	 	 	 	 	 	 	1581498311	8.44	15.63
12/02/2020 09:05:12	120220	12022020	090512	186.32	12.743675	-57.144883	186.38	-0.530	0.250	2.650	186.24	-1.00	3.10	 	 	 	 	 	 	 	 	 	 	 	 	 	 	 	 	 	 	1581498312	7.46	13.82
12/02/2020 09:05:13	120220	12022020	090513	186.10	12.743645	-57.144893	186.31	-0.820	1.330	2.740	186.12	-0.00	3.20	 	 	 	 	 	 	 	 	 	 	 	 	 	 	 	 	 	 	1581498313	6.61	12.24
12/02/2020 09:05:14	120220	12022020	090514	186.28	12.743615	-57.144902	186.53	-0.580	1.160	2.390	186.32	-0.20	2.90	 	 	 	 	 	 	 	 	 	 	 	 	 	 	 	 	 	 	1581498314	6.73	12.46
12/02/2020 09:05:15	120220	12022020	090515	186.53	12.743580	-57.144908	186.75	-0.090	-0.040	2.270	186.56	-1.50	2.70	 	 	 	 	 	 	 	 	 	 	 	 	 	 	 	 	 	 	1581498315	7.83	14.50
12/02/2020 09:05:16	120220	12022020	090516	186.65	12.743540	-57.144917	186.81	0.260	-1.120	2.270	186.65	-2.50	2.70	 	 	 	 	 	 	 	 	 	 	 	 	 	 	 	 	 	 	1581498316	8.73	16.17
12/02/2020 09:05:17	120220	12022020	090517	186.57	12.743502	-57.144927	186.66	0.410	-1.150	2.210	186.53	-2.50	2.70	 	 	 	 	 	 	 	 	 	 	 	 	 	 	 	 	 	 	1581498317	8.46	15.67
12/02/2020 09:05:18	120220	12022020	090518	186.21	12.743468	-57.144935	186.33	0.520	-0.480	2.120	186.21	-1.80	2.60	 	 	 	 	 	 	 	 	 	 	 	 	 	 	 	 	 	 	1581498318	7.32	13.56
12/02/2020 09:05:19	120220	12022020	090519	186.03	12.743438	-57.144940	186.15	0.560	0.200	1.790	186.02	-1.20	2.30	 	 	 	 	 	 	 	 	 	 	 	 	 	 	 	 	 	 	1581498319	6.69	12.39
12/02/2020 09:05:20	120220	12022020	090520	186.10	12.743407	-57.144942	186.29	0.400	0.470	1.320	186.15	-0.90	1.80	 	 	 	 	 	 	 	 	 	 	 	 	 	 	 	 	 	 	1581498320	6.76	12.52
12/02/2020 09:05:21	120220	12022020	090521	186.27	12.743373	-57.144943	186.39	0.060	0.170	1.130	186.27	-1.20	1.60	 	 	 	 	 	 	 	 	 	 	 	 	 	 	 	 	 	 	1581498321	7.08	13.11
12/02/2020 09:05:22	120220	12022020	090522	186.12	12.743338	-57.144948	186.24	-0.230	-0.560	1.470	186.12	-1.90	2.00	 	 	 	 	 	 	 	 	 	 	 	 	 	 	 	 	 	 	1581498322	7.57	14.02
12/02/2020 09:05:23	120220	12022020	090523	185.93	12.743302	-57.144957	186.00	-0.310	-1.150	2.080	185.87	-2.50	2.60	 	 	 	 	 	 	 	 	 	 	 	 	 	 	 	 	 	 	1581498323	8.11	15.02
12/02/2020 09:05:24	120220	12022020	090524	185.65	12.743267	-57.144968	185.76	-0.220	-1.210	2.580	185.60	-2.60	3.10	 	 	 	 	 	 	 	 	 	 	 	 	 	 	 	 	 	 	1581498324	8.15	15.09
12/02/2020 09:05:25	120220	12022020	090525	185.50	12.743232	-57.144978	185.67	-0.090	-0.720	2.610	185.49	-2.00	3.10	 	 	 	 	 	 	 	 	 	 	 	 	 	 	 	 	 	 	1581498325	7.77	14.39
12/02/2020 09:05:26	120220	12022020	090526	185.51	12.743198	-57.144985	185.70	-0.030	-0.070	2.330	185.52	-1.40	2.80	 	 	 	 	 	 	 	 	 	 	 	 	 	 	 	 	 	 	1581498326	7.23	13.39
12/02/2020 09:05:27	120220	12022020	090527	185.55	12.743165	-57.144990	185.71	-0.070	0.270	1.960	185.55	-1.10	2.40	 	 	 	 	 	 	 	 	 	 	 	 	 	 	 	 	 	 	1581498327	7.09	13.13
12/02/2020 09:05:28	120220	12022020	090528	185.51	12.743132	-57.144993	185.62	-0.220	0.230	1.780	185.48	-1.10	2.30	 	 	 	 	 	 	 	 	 	 	 	 	 	 	 	 	 	 	1581498328	7.42	13.74
12/02/2020 09:05:29	120220	12022020	090529	185.34	12.743095	-57.144998	185.44	-0.300	-0.020	1.920	185.30	-1.40	2.40	 	 	 	 	 	 	 	 	 	 	 	 	 	 	 	 	 	 	1581498329	7.80	14.45
12/02/2020 09:05:30	120220	12022020	090530	185.21	12.743058	-57.145007	185.38	-0.170	-0.030	1.960	185.21	-1.40	2.40	 	 	 	 	 	 	 	 	 	 	 	 	 	 	 	 	 	 	1581498330	8.00	14.82
12/02/2020 09:05:31	120220	12022020	090531	185.40	12.743025	-57.145015	185.68	0.120	0.390	1.560	185.48	-1.00	2.00	 	 	 	 	 	 	 	 	 	 	 	 	 	 	 	 	 	 	1581498331	7.64	14.15
12/02/2020 09:05:32	120220	12022020	090532	185.94	12.742992	-57.145018	186.13	0.400	0.610	1.070	185.94	-0.80	1.50	 	 	 	 	 	 	 	 	 	 	 	 	 	 	 	 	 	 	1581498332	6.92	12.82
12/02/2020 09:05:33	120220	12022020	090533	186.07	12.742960	-57.145020	186.16	0.560	-0.130	1.130	186.04	-1.50	1.60	 	 	 	 	 	 	 	 	 	 	 	 	 	 	 	 	 	 	1581498333	6.93	12.83
12/02/2020 09:05:34	120220	12022020	090534	185.78	12.742923	-57.145023	185.91	0.470	-1.270	1.850	185.78	-2.70	2.40	 	 	 	 	 	 	 	 	 	 	 	 	 	 	 	 	 	 	1581498334	7.94	14.70
12/02/2020 09:05:35	120220	12022020	090535	185.57	12.742885	-57.145032	185.67	0.110	-1.670	2.950	185.52	-3.00	3.50	 	 	 	 	 	 	 	 	 	 	 	 	 	 	 	 	 	 	1581498335	8.48	15.70
12/02/2020 09:05:36	120220	12022020	090536	185.35	12.742850	-57.145045	185.53	-0.290	-1.040	3.670	185.35	-2.40	4.20	 	 	 	 	 	 	 	 	 	 	 	 	 	 	 	 	 	 	1581498336	7.98	14.78
12/02/2020 09:05:37	120220	12022020	090537	185.40	12.742820	-57.145057	185.64	-0.450	-0.110	3.490	185.44	-1.40	3.90	 	 	 	 	 	 	 	 	 	 	 	 	 	 	 	 	 	 	1581498337	7.07	13.09
12/02/2020 09:05:38	120220	12022020	090538	185.69	12.742788	-57.145063	185.94	-0.320	0.380	2.640	185.75	-1.00	3.10	 	 	 	 	 	 	 	 	 	 	 	 	 	 	 	 	 	 	1581498338	6.72	12.45
12/02/2020 09:05:39	120220	12022020	090539	185.98	12.742755	-57.145067	186.20	-0.010	0.250	1.770	186.03	-1.10	2.20	 	 	 	 	 	 	 	 	 	 	 	 	 	 	 	 	 	 	1581498339	7.19	13.32
12/02/2020 09:05:40	120220	12022020	090540	186.24	12.742720	-57.145068	186.44	0.290	-0.110	1.110	186.29	-1.50	1.60	 	 	 	 	 	 	 	 	 	 	 	 	 	 	 	 	 	 	1581498340	7.86	14.56
12/02/2020 09:05:41	120220	12022020	090541	186.47	12.742682	-57.145070	186.64	0.380	-0.400	0.950	186.49	-1.80	1.40	 	 	 	 	 	 	 	 	 	 	 	 	 	 	 	 	 	 	1581498341	8.03	14.87
12/02/2020 09:05:42	120220	12022020	090542	186.43	12.742645	-57.145073	186.55	0.220	-0.490	1.380	186.43	-1.90	1.90	 	 	 	 	 	 	 	 	 	 	 	 	 	 	 	 	 	 	1581498342	7.84	14.52
12/02/2020 09:05:43	120220	12022020	090543	186.24	12.742610	-57.145080	186.33	-0.100	-0.350	1.960	186.19	-1.70	2.50	 	 	 	 	 	 	 	 	 	 	 	 	 	 	 	 	 	 	1581498343	7.67	14.20
12/02/2020 09:05:44	120220	12022020	090544	186.07	12.742577	-57.145088	186.22	-0.410	0.030	2.270	186.07	-1.40	2.80	 	 	 	 	 	 	 	 	 	 	 	 	 	 	 	 	 	 	1581498344	7.50	13.89
12/02/2020 09:05:45	120220	12022020	090545	185.99	12.742545	-57.145098	186.11	-0.550	0.310	2.240	185.97	-1.10	2.70	 	 	 	 	 	 	 	 	 	 	 	 	 	 	 	 	 	 	1581498345	7.24	13.41
12/02/2020 09:05:46	120220	12022020	090546	185.91	12.742512	-57.145107	186.08	-0.410	0.190	1.990	185.91	-1.20	2.40	 	 	 	 	 	 	 	 	 	 	 	 	 	 	 	 	 	 	1581498346	7.28	13.48
12/02/2020 09:05:47	120220	12022020	090547	186.07	12.742477	-57.145113	186.30	-0.100	-0.200	1.550	186.12	-1.60	2.00	 	 	 	 	 	 	 	 	 	 	 	 	 	 	 	 	 	 	1581498347	7.65	14.17
12/02/2020 09:05:48	120220	12022020	090548	186.30	12.742440	-57.145118	186.46	0.240	-0.550	1.240	186.30	-1.90	1.70	 	 	 	 	 	 	 	 	 	 	 	 	 	 	 	 	 	 	1581498348	7.81	14.46
12/02/2020 09:05:49	120220	12022020	090549	186.43	12.742405	-57.145125	186.65	0.480	-0.540	1.090	186.47	-1.90	1.60	 	 	 	 	 	 	 	 	 	 	 	 	 	 	 	 	 	 	1581498349	7.75	14.35
12/02/2020 09:05:50	120220	12022020	090550	186.71	12.742372	-57.145128	186.95	0.490	-0.210	0.980	186.77	-1.60	1.50	 	 	 	 	 	 	 	 	 	 	 	 	 	 	 	 	 	 	1581498350	7.32	13.56
12/02/2020 09:05:51	120220	12022020	090551	186.93	12.742340	-57.145133	187.09	0.310	-0.170	1.030	186.94	-1.60	1.50	 	 	 	 	 	 	 	 	 	 	 	 	 	 	 	 	 	 	1581498351	6.91	12.80
12/02/2020 09:05:52	120220	12022020	090552	186.72	12.742307	-57.145137	186.82	0.090	-0.830	1.480	186.72	-2.20	2.00	 	 	 	 	 	 	 	 	 	 	 	 	 	 	 	 	 	 	1581498352	7.27	13.46
12/02/2020 09:05:53	120220	12022020	090553	186.26	12.742268	-57.145145	186.25	-0.130	-1.550	2.230	186.14	-2.90	2.70	 	 	 	 	 	 	 	 	 	 	 	 	 	 	 	 	 	 	1581498353	8.26	15.30
12/02/2020 09:05:54	120220	12022020	090554	185.62	12.742230	-57.145157	185.76	-0.370	-1.260	2.810	185.62	-2.60	3.30	 	 	 	 	 	 	 	 	 	 	 	 	 	 	 	 	 	 	1581498354	8.68	16.08
12/02/2020 09:05:55	120220	12022020	090555	185.41	12.742195	-57.145167	185.55	-0.570	0.020	2.920	185.39	-1.30	3.40	 	 	 	 	 	 	 	 	 	 	 	 	 	 	 	 	 	 	1581498355	7.81	14.46
12/02/2020 09:05:56	120220	12022020	090556	185.46	12.742163	-57.145175	185.64	-0.610	1.170	2.570	185.46	-0.20	3.00	 	 	 	 	 	 	 	 	 	 	 	 	 	 	 	 	 	 	1581498356	6.79	12.58
12/02/2020 09:05:57	120220	12022020	090557	185.70	12.742133	-57.145180	185.94	-0.480	1.360	2.140	185.76	-0.00	2.60	 	 	 	 	 	 	 	 	 	 	 	 	 	 	 	 	 	 	1581498357	6.81	12.61
12/02/2020 09:05:58	120220	12022020	090558	185.98	12.742098	-57.145183	186.14	-0.200	0.650	1.980	185.98	-0.80	2.50	 	 	 	 	 	 	 	 	 	 	 	 	 	 	 	 	 	 	1581498358	7.57	14.02
12/02/2020 09:05:59	120220	12022020	090559	185.98	12.742060	-57.145190	186.13	0.180	-0.250	1.930	185.98	-1.60	2.40	 	 	 	 	 	 	 	 	 	 	 	 	 	 	 	 	 	 	1581498359	8.26	15.30
12/02/2020 09:06:00	120220	12022020	090600	186.00	12.742022	-57.145197	186.18	0.540	-0.610	1.770	186.00	-2.00	2.30	 	 	 	 	 	 	 	 	 	 	 	 	 	 	 	 	 	 	1581498360	8.24	15.26
12/02/2020 09:06:01	120220	12022020	090601	186.16	12.741988	-57.145203	186.39	0.680	-0.500	1.510	186.20	-1.90	2.00	1015.00	26.20	26.20	20.70	20.80	-1.0	71.0	72.0	391.0	25.7	265.00	10.40	71.00	11.40	16	9588.0	27.4	27.4	1581498361	7.47	13.83
12/02/2020 09:06:02	120220	12022020	090602	186.32	12.741957	-57.145207	186.45	0.580	-0.650	1.310	186.31	-2.00	1.80	 	 	 	 	 	 	 	 	 	 	 	 	 	 	 	 	 	 	1581498362	6.87	12.72
12/02/2020 09:06:03	120220	12022020	090603	186.10	12.741923	-57.145210	186.13	0.410	-1.230	1.400	186.03	-2.60	1.90	 	 	 	 	 	 	 	 	 	 	 	 	 	 	 	 	 	 	1581498363	7.26	13.45
12/02/2020 09:06:04	120220	12022020	090604	185.65	12.741887	-57.145217	185.77	0.140	-1.370	1.680	185.65	-2.70	2.20	 	 	 	 	 	 	 	 	 	 	 	 	 	 	 	 	 	 	1581498364	8.01	14.83
12/02/2020 09:06:05	120220	12022020	090605	185.52	12.741850	-57.145223	185.66	-0.240	-0.600	1.830	185.51	-1.90	2.30	 	 	 	 	 	 	 	 	 	 	 	 	 	 	 	 	 	 	1581498365	7.76	14.37
12/02/2020 09:06:06	120220	12022020	090606	185.57	12.741818	-57.145230	185.72	-0.530	0.200	1.730	185.57	-1.10	2.20	 	 	 	 	 	 	 	 	 	 	 	 	 	 	 	 	 	 	1581498366	6.91	12.80
12/02/2020 09:06:07	120220	12022020	090607	185.65	12.741787	-57.145237	185.79	-0.510	0.170	1.670	185.66	-1.20	2.20	 	 	 	 	 	 	 	 	 	 	 	 	 	 	 	 	 	 	1581498367	7.01	12.98
12/02/2020 09:06:08	120220	12022020	090608	185.57	12.741750	-57.145242	185.71	-0.200	-0.420	1.940	185.57	-1.80	2.40	 	 	 	 	 	 	 	 	 	 	 	 	 	 	 	 	 	 	1581498368	8.06	14.93
12/02/2020 09:06:09	120220	12022020	090609	185.49	12.741710	-57.145250	185.64	0.030	-0.520	2.290	185.48	-1.90	2.80	 	 	 	 	 	 	 	 	 	 	 	 	 	 	 	 	 	 	1581498369	8.75	16.21
12/02/2020 09:06:10	120220	12022020	090610	185.57	12.741673	-57.145257	185.75	-0.060	0.160	2.470	185.57	-1.20	3.00	 	 	 	 	 	 	 	 	 	 	 	 	 	 	 	 	 	 	1581498370	8.19	15.17
12/02/2020 09:06:11	120220	12022020	090611	185.75	12.741640	-57.145263	186.00	-0.330	0.990	2.300	185.80	-0.40	2.80	 	 	 	 	 	 	 	 	 	 	 	 	 	 	 	 	 	 	1581498371	7.17	13.28
12/02/2020 09:06:12	120220	12022020	090612	186.15	12.741608	-57.145268	186.34	-0.510	1.220	1.840	186.15	-0.20	2.30	 	 	 	 	 	 	 	 	 	 	 	 	 	 	 	 	 	 	1581498372	6.74	12.48
12/02/2020 09:06:13	120220	12022020	090613	186.44	12.741577	-57.145273	186.68	-0.420	0.520	1.380	186.51	-0.90	1.90	 	 	 	 	 	 	 	 	 	 	 	 	 	 	 	 	 	 	1581498373	7.06	13.08
12/02/2020 09:06:14	120220	12022020	090614	186.69	12.741540	-57.145280	186.84	0.030	-0.700	1.010	186.69	-2.10	1.50	 	 	 	 	 	 	 	 	 	 	 	 	 	 	 	 	 	 	1581498374	7.82	14.48
12/02/2020 09:06:15	120220	12022020	090615	186.55	12.741503	-57.145287	186.58	0.620	-1.620	0.860	186.48	-3.00	1.40	 	 	 	 	 	 	 	 	 	 	 	 	 	 	 	 	 	 	1581498375	8.24	15.26
12/02/2020 09:06:16	120220	12022020	090616	186.04	12.741465	-57.145290	186.00	1.020	-1.760	1.110	185.93	-3.10	1.60	 	 	 	 	 	 	 	 	 	 	 	 	 	 	 	 	 	 	1581498376	8.03	14.87
12/02/2020 09:06:17	120220	12022020	090617	185.51	12.741432	-57.145295	185.54	0.940	-1.130	1.450	185.44	-2.50	2.00	 	 	 	 	 	 	 	 	 	 	 	 	 	 	 	 	 	 	1581498377	7.50	13.89
12/02/2020 09:06:18	120220	12022020	090618	185.33	12.741398	-57.145298	185.48	0.400	-0.180	1.610	185.33	-1.50	2.10	 	 	 	 	 	 	 	 	 	 	 	 	 	 	 	 	 	 	1581498378	7.04	13.04
12/02/2020 09:06:19	120220	12022020	090619	185.48	12.741367	-57.145303	185.71	-0.250	0.440	1.730	185.54	-0.90	2.20	 	 	 	 	 	 	 	 	 	 	 	 	 	 	 	 	 	 	1581498379	6.91	12.80
12/02/2020 09:06:20	120220	12022020	090620	185.85	12.741333	-57.145310	186.15	-0.700	0.490	1.860	185.94	-0.90	2.40	 	 	 	 	 	 	 	 	 	 	 	 	 	 	 	 	 	 	1581498380	7.35	13.61
12/02/2020 09:06:21	120220	12022020	090621	186.38	12.741298	-57.145318	186.68	-0.810	0.300	1.810	186.48	-1.10	2.30	 	 	 	 	 	 	 	 	 	 	 	 	 	 	 	 	 	 	1581498381	7.87	14.58
12/02/2020 09:06:22	120220	12022020	090622	186.77	12.741262	-57.145327	186.92	-0.580	-0.100	1.740	186.77	-1.50	2.20	 	 	 	 	 	 	 	 	 	 	 	 	 	 	 	 	 	 	1581498382	7.90	14.63
12/02/2020 09:06:23	120220	12022020	090623	186.65	12.741225	-57.145333	186.68	-0.180	-0.690	1.980	186.57	-2.10	2.50	 	 	 	 	 	 	 	 	 	 	 	 	 	 	 	 	 	 	1581498383	8.04	14.89
12/02/2020 09:06:24	120220	12022020	090624	186.19	12.741187	-57.145342	186.20	0.130	-0.940	2.290	186.09	-2.30	2.80	 	 	 	 	 	 	 	 	 	 	 	 	 	 	 	 	 	 	1581498384	8.31	15.39
12/02/2020 09:06:25	120220	12022020	090625	185.80	12.741150	-57.145348	185.89	0.150	-0.510	2.360	185.75	-1.80	2.80	 	 	 	 	 	 	 	 	 	 	 	 	 	 	 	 	 	 	1581498385	8.06	14.93
12/02/2020 09:06:26	120220	12022020	090626	185.77	12.741117	-57.145353	185.96	-0.090	0.230	2.130	185.77	-1.10	2.60	 	 	 	 	 	 	 	 	 	 	 	 	 	 	 	 	 	 	1581498386	7.40	13.70
12/02/2020 09:06:27	120220	12022020	090627	186.09	12.741085	-57.145358	186.39	-0.280	0.770	1.700	186.19	-0.60	2.20	 	 	 	 	 	 	 	 	 	 	 	 	 	 	 	 	 	 	1581498387	7.04	13.04
12/02/2020 09:06:28	120220	12022020	090628	186.62	12.741052	-57.145365	186.90	-0.070	0.850	1.140	186.71	-0.50	1.60	 	 	 	 	 	 	 	 	 	 	 	 	 	 	 	 	 	 	1581498388	7.02	13.00
12/02/2020 09:06:29	120220	12022020	090629	187.01	12.741018	-57.145368	187.20	0.490	0.290	0.660	187.05	-1.10	1.10	 	 	 	 	 	 	 	 	 	 	 	 	 	 	 	 	 	 	1581498389	7.30	13.52
12/02/2020 09:06:30	120220	12022020	090630	187.16	12.740982	-57.145370	187.29	0.950	-0.670	0.500	187.16	-2.10	1.00	 	 	 	 	 	 	 	 	 	 	 	 	 	 	 	 	 	 	1581498390	7.87	14.58
12/02/2020 09:06:31	120220	12022020	090631	187.13	12.740943	-57.145372	187.22	0.860	-1.420	0.780	187.11	-2.80	1.30	 	 	 	 	 	 	 	 	 	 	 	 	 	 	 	 	 	 	1581498391	8.24	15.26
12/02/2020 09:06:32	120220	12022020	090632	186.86	12.740907	-57.145377	186.95	0.260	-1.610	1.580	186.86	-3.00	2.10	 	 	 	 	 	 	 	 	 	 	 	 	 	 	 	 	 	 	1581498392	8.04	14.89
12/02/2020 09:06:33	120220	12022020	090633	186.50	12.740872	-57.145387	186.50	-0.390	-1.330	2.550	186.40	-2.70	3.10	 	 	 	 	 	 	 	 	 	 	 	 	 	 	 	 	 	 	1581498393	7.78	14.41
12/02/2020 09:06:34	120220	12022020	090634	186.00	12.740838	-57.145400	186.14	-0.660	-0.670	3.100	186.00	-2.00	3.60	 	 	 	 	 	 	 	 	 	 	 	 	 	 	 	 	 	 	1581498394	7.84	14.52
12/02/2020 09:06:35	120220	12022020	090635	185.93	12.740803	-57.145413	186.15	-0.580	0.270	2.850	185.97	-1.10	3.30	 	 	 	 	 	 	 	 	 	 	 	 	 	 	 	 	 	 	1581498395	7.72	14.30
12/02/2020 09:06:36	120220	12022020	090636	186.38	12.740770	-57.145420	186.60	-0.420	1.080	2.120	186.38	-0.30	2.60	 	 	 	 	 	 	 	 	 	 	 	 	 	 	 	 	 	 	1581498396	7.32	13.56
12/02/2020 09:06:37	120220	12022020	090637	186.85	12.740737	-57.145423	187.15	-0.360	1.170	1.330	186.95	-0.20	1.80	 	 	 	 	 	 	 	 	 	 	 	 	 	 	 	 	 	 	1581498397	7.18	13.30
12/02/2020 09:06:38	120220	12022020	090638	187.26	12.740702	-57.145427	187.41	-0.220	0.350	0.730	187.26	-1.10	1.20	 	 	 	 	 	 	 	 	 	 	 	 	 	 	 	 	 	 	1581498398	7.65	14.17
12/02/2020 09:06:39	120220	12022020	090639	187.25	12.740663	-57.145430	187.35	0.140	-0.770	0.540	187.23	-2.20	1.00	 	 	 	 	 	 	 	 	 	 	 	 	 	 	 	 	 	 	1581498399	8.40	15.56
12/02/2020 09:06:40	120220	12022020	090640	187.17	12.740623	-57.145435	187.29	0.600	-1.160	0.470	187.17	-2.50	1.00	 	 	 	 	 	 	 	 	 	 	 	 	 	 	 	 	 	 	1581498400	8.64	16.00
12/02/2020 09:06:41	120220	12022020	090641	187.21	12.740587	-57.145440	187.36	0.770	-0.700	0.440	187.24	-2.00	0.90	 	 	 	 	 	 	 	 	 	 	 	 	 	 	 	 	 	 	1581498401	7.88	14.59
12/02/2020 09:06:42	120220	12022020	090642	187.38	12.740555	-57.145443	187.51	0.430	-0.080	0.660	187.38	-1.40	1.20	 	 	 	 	 	 	 	 	 	 	 	 	 	 	 	 	 	 	1581498402	7.02	13.00
12/02/2020 09:06:43	120220	12022020	090643	187.43	12.740523	-57.145448	187.53	-0.170	0.070	1.200	187.42	-1.30	1.70	 	 	 	 	 	 	 	 	 	 	 	 	 	 	 	 	 	 	1581498403	6.89	12.76
12/02/2020 09:06:44	120220	12022020	090644	187.27	12.740488	-57.145457	187.40	-0.570	-0.280	1.820	187.27	-1.70	2.30	 	 	 	 	 	 	 	 	 	 	 	 	 	 	 	 	 	 	1581498404	7.49	13.87
12/02/2020 09:06:45	120220	12022020	090645	187.02	12.740452	-57.145468	187.06	-0.550	-0.730	2.530	186.93	-2.10	3.00	 	 	 	 	 	 	 	 	 	 	 	 	 	 	 	 	 	 	1581498405	8.17	15.13
12/02/2020 09:06:46	120220	12022020	090646	186.53	12.740415	-57.145480	186.56	-0.210	-0.850	3.070	186.42	-2.20	3.60	 	 	 	 	 	 	 	 	 	 	 	 	 	 	 	 	 	 	1581498406	8.43	15.61
12/02/2020 09:06:47	120220	12022020	090647	186.12	12.740378	-57.145492	186.23	0.160	-0.400	3.040	186.07	-1.70	3.50	 	 	 	 	 	 	 	 	 	 	 	 	 	 	 	 	 	 	1581498407	8.19	15.17
12/02/2020 09:06:48	120220	12022020	090648	186.09	12.740343	-57.145498	186.29	0.360	0.350	2.420	186.09	-1.00	2.90	 	 	 	 	 	 	 	 	 	 	 	 	 	 	 	 	 	 	1581498408	7.54	13.96
12/02/2020 09:06:49	120220	12022020	090649	186.53	12.740312	-57.145500	186.91	0.300	0.780	1.400	186.68	-0.60	1.80	 	 	 	 	 	 	 	 	 	 	 	 	 	 	 	 	 	 	1581498409	7.12	13.19
12/02/2020 09:06:50	120220	12022020	090650	187.35	12.740277	-57.145502	187.53	0.110	0.500	0.760	187.35	-0.90	1.30	 	 	 	 	 	 	 	 	 	 	 	 	 	 	 	 	 	 	1581498410	7.24	13.41
12/02/2020 09:06:51	120220	12022020	090651	187.58	12.740242	-57.145505	187.72	0.060	-0.270	0.810	187.58	-1.70	1.30	 	 	 	 	 	 	 	 	 	 	 	 	 	 	 	 	 	 	1581498411	7.71	14.28
12/02/2020 09:06:52	120220	12022020	090652	187.42	12.740205	-57.145512	187.55	0.210	-0.920	1.130	187.42	-2.30	1.60	 	 	 	 	 	 	 	 	 	 	 	 	 	 	 	 	 	 	1581498412	8.18	15.15
12/02/2020 09:06:53	120220	12022020	090653	187.36	12.740167	-57.145520	187.53	0.320	-0.960	1.320	187.37	-2.30	1.80	 	 	 	 	 	 	 	 	 	 	 	 	 	 	 	 	 	 	1581498413	8.13	15.06
12/02/2020 09:06:54	120220	12022020	090654	187.49	12.740133	-57.145527	187.68	0.230	-0.620	1.330	187.52	-2.00	1.80	 	 	 	 	 	 	 	 	 	 	 	 	 	 	 	 	 	 	1581498414	7.51	13.91
12/02/2020 09:06:55	120220	12022020	090655	187.60	12.740100	-57.145532	187.72	0.060	-0.550	1.330	187.59	-1.90	1.80	 	 	 	 	 	 	 	 	 	 	 	 	 	 	 	 	 	 	1581498415	7.22	13.37
12/02/2020 09:06:56	120220	12022020	090656	187.37	12.740065	-57.145537	187.51	-0.070	-0.760	1.590	187.37	-2.10	2.10	 	 	 	 	 	 	 	 	 	 	 	 	 	 	 	 	 	 	1581498416	7.75	14.35
12/02/2020 09:06:57	120220	12022020	090657	187.35	12.740027	-57.145543	187.55	-0.330	-0.480	1.950	187.38	-1.80	2.50	 	 	 	 	 	 	 	 	 	 	 	 	 	 	 	 	 	 	1581498417	8.27	15.32
12/02/2020 09:06:58	120220	12022020	090658	187.64	12.739992	-57.145553	187.90	-0.700	0.260	2.290	187.71	-1.10	2.80	 	 	 	 	 	 	 	 	 	 	 	 	 	 	 	 	 	 	1581498418	7.81	14.46
12/02/2020 09:06:59	120220	12022020	090659	187.90	12.739958	-57.145563	188.05	-0.800	0.590	2.510	187.90	-0.80	3.00	 	 	 	 	 	 	 	 	 	 	 	 	 	 	 	 	 	 	1581498419	7.22	13.37
12/02/2020 09:07:00	120220	12022020	090700	187.66	12.739925	-57.145573	187.79	-0.350	0.090	2.620	187.66	-1.30	3.10	 	 	 	 	 	 	 	 	 	 	 	 	 	 	 	 	 	 	1581498420	7.63	14.13
12/02/2020 09:07:01	120220	12022020	090701	187.44	12.739887	-57.145583	187.57	0.340	-0.380	2.400	187.42	-1.70	2.90	1015.00	26.20	26.20	20.70	20.70	-1.0	71.0	71.0	392.0	25.7	265.00	10.00	71.00	11.00	16	9365.0	27.4	27.4	1581498421	8.52	15.78
12/02/2020 09:07:02	120220	12022020	090702	187.60	12.739848	-57.145590	187.79	0.750	-0.110	1.640	187.60	-1.40	2.10	 	 	 	 	 	 	 	 	 	 	 	 	 	 	 	 	 	 	1581498422	8.41	15.58
12/02/2020 09:07:03	120220	12022020	090703	187.99	12.739813	-57.145592	188.29	0.650	0.470	0.760	188.10	-0.90	1.20	 	 	 	 	 	 	 	 	 	 	 	 	 	 	 	 	 	 	1581498423	7.43	13.76
12/02/2020 09:07:04	120220	12022020	090704	188.59	12.739782	-57.145593	188.73	0.320	0.520	0.380	188.59	-0.90	0.90	 	 	 	 	 	 	 	 	 	 	 	 	 	 	 	 	 	 	1581498424	6.89	12.76
12/02/2020 09:07:05	120220	12022020	090705	188.76	12.739748	-57.145597	188.87	0.110	-0.120	0.570	188.76	-1.50	1.10	 	 	 	 	 	 	 	 	 	 	 	 	 	 	 	 	 	 	1581498425	7.28	13.48
12/02/2020 09:07:06	120220	12022020	090706	188.75	12.739712	-57.145603	188.84	0.080	-0.910	1.030	188.74	-2.30	1.50	 	 	 	 	 	 	 	 	 	 	 	 	 	 	 	 	 	 	1581498426	7.98	14.78
12/02/2020 09:07:07	120220	12022020	090707	188.63	12.739675	-57.145613	188.69	0.140	-1.380	1.650	188.58	-2.80	2.20	 	 	 	 	 	 	 	 	 	 	 	 	 	 	 	 	 	 	1581498427	8.19	15.17
12/02/2020 09:07:08	120220	12022020	090708	188.27	12.739638	-57.145625	188.37	0.180	-1.420	2.090	188.27	-2.80	2.60	 	 	 	 	 	 	 	 	 	 	 	 	 	 	 	 	 	 	1581498428	8.03	14.87
12/02/2020 09:07:09	120220	12022020	090709	188.07	12.739603	-57.145633	188.14	0.030	-1.100	2.190	188.03	-2.40	2.70	 	 	 	 	 	 	 	 	 	 	 	 	 	 	 	 	 	 	1581498429	7.81	14.46
12/02/2020 09:07:10	120220	12022020	090710	187.86	12.739568	-57.145640	187.96	-0.280	-0.630	2.280	187.86	-2.00	2.80	 	 	 	 	 	 	 	 	 	 	 	 	 	 	 	 	 	 	1581498430	7.68	14.22
12/02/2020 09:07:11	120220	12022020	090711	187.66	12.739533	-57.145650	187.71	-0.540	-0.090	2.400	187.61	-1.40	2.90	 	 	 	 	 	 	 	 	 	 	 	 	 	 	 	 	 	 	1581498431	7.77	14.39
12/02/2020 09:07:12	120220	12022020	090712	187.53	12.739498	-57.145658	187.65	-0.680	0.650	2.320	187.53	-0.70	2.80	 	 	 	 	 	 	 	 	 	 	 	 	 	 	 	 	 	 	1581498432	7.85	14.54
12/02/2020 09:07:13	120220	12022020	090713	187.75	12.739463	-57.145667	188.02	-0.640	1.160	1.930	187.86	-0.20	2.40	 	 	 	 	 	 	 	 	 	 	 	 	 	 	 	 	 	 	1581498433	7.59	14.06
12/02/2020 09:07:14	120220	12022020	090714	188.48	12.739430	-57.145675	188.63	-0.310	1.060	1.290	188.48	-0.30	1.70	 	 	 	 	 	 	 	 	 	 	 	 	 	 	 	 	 	 	1581498434	7.56	14.00
12/02/2020 09:07:15	120220	12022020	090715	188.96	12.739393	-57.145680	189.16	0.260	0.410	0.600	189.06	-1.00	1.10	 	 	 	 	 	 	 	 	 	 	 	 	 	 	 	 	 	 	1581498435	7.86	14.56
12/02/2020 09:07:16	120220	12022020	090716	189.30	12.739355	-57.145682	189.36	0.770	-0.550	0.420	189.32	-2.00	0.90	 	 	 	 	 	 	 	 	 	 	 	 	 	 	 	 	 	 	1581498436	8.20	15.19
12/02/2020 09:07:17	120220	12022020	090717	189.14	12.739317	-57.145685	189.02	0.890	-1.380	1.030	189.04	-2.80	1.60	 	 	 	 	 	 	 	 	 	 	 	 	 	 	 	 	 	 	1581498437	8.36	15.48
12/02/2020 09:07:18	120220	12022020	090718	188.44	12.739278	-57.145693	188.31	0.590	-1.580	2.060	188.30	-2.90	2.60	 	 	 	 	 	 	 	 	 	 	 	 	 	 	 	 	 	 	1581498438	8.26	15.30
12/02/2020 09:07:19	120220	12022020	090719	187.85	12.739243	-57.145705	187.89	-0.020	-0.910	2.880	187.80	-2.20	3.40	 	 	 	 	 	 	 	 	 	 	 	 	 	 	 	 	 	 	1581498439	7.94	14.70
12/02/2020 09:07:20	120220	12022020	090720	187.79	12.739212	-57.145718	187.96	-0.630	0.060	3.160	187.82	-1.30	3.60	 	 	 	 	 	 	 	 	 	 	 	 	 	 	 	 	 	 	1581498440	7.30	13.52
12/02/2020 09:07:21	120220	12022020	090721	188.08	12.739182	-57.145730	188.30	-0.850	0.530	2.800	188.16	-0.80	3.20	 	 	 	 	 	 	 	 	 	 	 	 	 	 	 	 	 	 	1581498441	7.06	13.08
12/02/2020 09:07:22	120220	12022020	090722	188.63	12.739148	-57.145740	188.77	-0.580	0.290	2.000	188.63	-1.10	2.40	 	 	 	 	 	 	 	 	 	 	 	 	 	 	 	 	 	 	1581498442	7.51	13.91
12/02/2020 09:07:23	120220	12022020	090723	188.95	12.739112	-57.145747	189.10	-0.020	-0.250	1.230	189.00	-1.60	1.70	 	 	 	 	 	 	 	 	 	 	 	 	 	 	 	 	 	 	1581498443	8.14	15.08
12/02/2020 09:07:24	120220	12022020	090724	189.13	12.739072	-57.145752	189.19	0.480	-0.520	0.680	189.13	-1.90	1.20	 	 	 	 	 	 	 	 	 	 	 	 	 	 	 	 	 	 	1581498444	8.37	15.50
12/02/2020 09:07:25	120220	12022020	090725	189.15	12.739035	-57.145753	189.20	0.640	-0.410	0.360	189.15	-1.80	0.90	 	 	 	 	 	 	 	 	 	 	 	 	 	 	 	 	 	 	1581498445	8.10	15.00
12/02/2020 09:07:26	120220	12022020	090726	189.06	12.738998	-57.145755	189.08	0.410	-0.350	0.490	189.06	-1.70	1.00	 	 	 	 	 	 	 	 	 	 	 	 	 	 	 	 	 	 	1581498446	7.69	14.24
12/02/2020 09:07:27	120220	12022020	090727	188.77	12.738963	-57.145760	188.73	0.020	-0.490	1.220	188.69	-1.90	1.70	 	 	 	 	 	 	 	 	 	 	 	 	 	 	 	 	 	 	1581498447	7.77	14.39
12/02/2020 09:07:28	120220	12022020	090728	188.45	12.738927	-57.145772	188.53	-0.330	-0.330	1.990	188.42	-1.70	2.50	 	 	 	 	 	 	 	 	 	 	 	 	 	 	 	 	 	 	1581498448	8.20	15.19
12/02/2020 09:07:29	120220	12022020	090729	188.49	12.738892	-57.145785	188.69	-0.530	0.250	2.350	188.54	-1.10	2.80	 	 	 	 	 	 	 	 	 	 	 	 	 	 	 	 	 	 	1581498449	7.99	14.80
12/02/2020 09:07:30	120220	12022020	090730	188.83	12.738860	-57.145797	189.03	-0.510	0.570	2.280	188.89	-0.80	2.70	 	 	 	 	 	 	 	 	 	 	 	 	 	 	 	 	 	 	1581498450	7.34	13.59
12/02/2020 09:07:31	120220	12022020	090731	189.10	12.738827	-57.145807	189.22	-0.240	0.090	2.120	189.11	-1.30	2.60	 	 	 	 	 	 	 	 	 	 	 	 	 	 	 	 	 	 	1581498451	7.42	13.74
12/02/2020 09:07:32	120220	12022020	090732	188.97	12.738790	-57.145815	189.01	0.200	-0.810	1.990	188.97	-2.20	2.50	 	 	 	 	 	 	 	 	 	 	 	 	 	 	 	 	 	 	1581498452	8.16	15.11
12/02/2020 09:07:33	120220	12022020	090733	188.67	12.738750	-57.145823	188.68	0.570	-1.160	1.800	188.61	-2.50	2.30	 	 	 	 	 	 	 	 	 	 	 	 	 	 	 	 	 	 	1581498453	8.66	16.04
12/02/2020 09:07:34	120220	12022020	090734	188.46	12.738712	-57.145828	188.57	0.620	-0.530	1.430	188.46	-1.90	1.90	 	 	 	 	 	 	 	 	 	 	 	 	 	 	 	 	 	 	1581498454	8.16	15.11
12/02/2020 09:07:35	120220	12022020	090735	188.54	12.738678	-57.145832	188.69	0.330	0.220	0.960	188.58	-1.10	1.40	 	 	 	 	 	 	 	 	 	 	 	 	 	 	 	 	 	 	1581498455	7.19	13.32
12/02/2020 09:07:36	120220	12022020	090736	188.78	12.738647	-57.145833	188.87	-0.100	0.250	0.840	188.78	-1.10	1.30	 	 	 	 	 	 	 	 	 	 	 	 	 	 	 	 	 	 	1581498456	7.12	13.19
12/02/2020 09:07:37	120220	12022020	090737	188.81	12.738610	-57.145840	188.89	-0.430	-0.270	1.420	188.80	-1.60	1.90	 	 	 	 	 	 	 	 	 	 	 	 	 	 	 	 	 	 	1581498457	7.85	14.54
12/02/2020 09:07:38	120220	12022020	090738	188.72	12.738573	-57.145853	188.81	-0.520	-0.660	2.280	188.71	-2.00	2.80	 	 	 	 	 	 	 	 	 	 	 	 	 	 	 	 	 	 	1581498458	8.49	15.72
12/02/2020 09:07:39	120220	12022020	090739	188.63	12.738537	-57.145868	188.71	-0.360	-0.590	2.850	188.60	-1.90	3.30	 	 	 	 	 	 	 	 	 	 	 	 	 	 	 	 	 	 	1581498459	8.43	15.61
12/02/2020 09:07:40	120220	12022020	090740	188.28	12.738502	-57.145880	188.36	-0.010	-0.490	3.020	188.28	-1.80	3.50	 	 	 	 	 	 	 	 	 	 	 	 	 	 	 	 	 	 	1581498460	7.89	14.61
12/02/2020 09:07:41	120220	12022020	090741	187.89	12.738467	-57.145890	187.90	0.350	-0.500	2.880	187.81	-1.80	3.30	 	 	 	 	 	 	 	 	 	 	 	 	 	 	 	 	 	 	1581498461	7.91	14.65
12/02/2020 09:07:42	120220	12022020	090742	187.68	12.738428	-57.145897	187.85	0.420	-0.100	2.230	187.70	-1.40	2.70	 	 	 	 	 	 	 	 	 	 	 	 	 	 	 	 	 	 	1581498462	8.14	15.08
12/02/2020 09:07:43	120220	12022020	090743	187.94	12.738393	-57.145900	188.17	0.200	0.480	1.370	188.01	-0.90	1.80	 	 	 	 	 	 	 	 	 	 	 	 	 	 	 	 	 	 	1581498463	7.61	14.09
12/02/2020 09:07:44	120220	12022020	090744	188.34	12.738360	-57.145902	188.46	-0.020	0.380	0.900	188.34	-1.00	1.40	 	 	 	 	 	 	 	 	 	 	 	 	 	 	 	 	 	 	1581498464	7.32	13.56
12/02/2020 09:07:45	120220	12022020	090745	188.49	12.738323	-57.145907	188.62	-0.040	-0.310	0.980	188.52	-1.70	1.50	 	 	 	 	 	 	 	 	 	 	 	 	 	 	 	 	 	 	1581498465	7.94	14.70
12/02/2020 09:07:46	120220	12022020	090746	188.71	12.738283	-57.145915	188.94	-0.020	-0.600	1.350	188.79	-2.00	1.90	 	 	 	 	 	 	 	 	 	 	 	 	 	 	 	 	 	 	1581498466	8.58	15.89
12/02/2020 09:07:47	120220	12022020	090747	189.17	12.738248	-57.145925	189.41	-0.170	-0.180	1.780	189.26	-1.50	2.30	 	 	 	 	 	 	 	 	 	 	 	 	 	 	 	 	 	 	1581498467	8.06	14.93
12/02/2020 09:07:48	120220	12022020	090748	189.50	12.738217	-57.145937	189.58	-0.260	0.110	2.110	189.50	-1.30	2.60	 	 	 	 	 	 	 	 	 	 	 	 	 	 	 	 	 	 	1581498468	7.16	13.26
12/02/2020 09:07:49	120220	12022020	090749	189.26	12.738185	-57.145947	189.18	0.020	-0.450	2.530	189.15	-1.90	3.00	 	 	 	 	 	 	 	 	 	 	 	 	 	 	 	 	 	 	1581498469	7.23	13.39
12/02/2020 09:07:50	120220	12022020	090750	188.47	12.738147	-57.145957	188.49	0.520	-1.260	2.920	188.47	-2.70	3.40	 	 	 	 	 	 	 	 	 	 	 	 	 	 	 	 	 	 	1581498470	8.33	15.43
12/02/2020 09:07:51	120220	12022020	090751	187.95	12.738107	-57.145965	187.91	0.690	-1.260	3.060	187.84	-2.60	3.50	 	 	 	 	 	 	 	 	 	 	 	 	 	 	 	 	 	 	1581498471	8.82	16.33
12/02/2020 09:07:52	120220	12022020	090752	187.49	12.738070	-57.145972	187.60	0.240	-0.390	2.990	187.49	-1.70	3.50	 	 	 	 	 	 	 	 	 	 	 	 	 	 	 	 	 	 	1581498472	8.11	15.02
12/02/2020 09:07:53	120220	12022020	090753	187.46	12.738037	-57.145980	187.61	-0.480	0.560	2.710	187.48	-0.80	3.20	 	 	 	 	 	 	 	 	 	 	 	 	 	 	 	 	 	 	1581498473	7.26	13.45
12/02/2020 09:07:54	120220	12022020	090754	187.68	12.738005	-57.145988	187.91	-0.860	0.970	2.080	187.76	-0.40	2.50	 	 	 	 	 	 	 	 	 	 	 	 	 	 	 	 	 	 	1581498474	7.19	13.32
12/02/2020 09:07:55	120220	12022020	090755	188.22	12.737970	-57.145997	188.51	-0.670	0.780	1.230	188.36	-0.60	1.70	 	 	 	 	 	 	 	 	 	 	 	 	 	 	 	 	 	 	1581498475	7.63	14.13
12/02/2020 09:07:56	120220	12022020	090756	188.97	12.737933	-57.146003	189.23	-0.160	0.180	0.510	189.10	-1.20	1.00	 	 	 	 	 	 	 	 	 	 	 	 	 	 	 	 	 	 	1581498476	8.02	14.85
12/02/2020 09:07:57	120220	12022020	090757	189.56	12.737897	-57.146010	189.72	0.360	-0.530	0.190	189.64	-1.90	0.70	 	 	 	 	 	 	 	 	 	 	 	 	 	 	 	 	 	 	1581498477	8.17	15.13
12/02/2020 09:07:58	120220	12022020	090758	189.83	12.737858	-57.146017	189.89	0.710	-1.050	0.250	189.83	-2.40	0.80	 	 	 	 	 	 	 	 	 	 	 	 	 	 	 	 	 	 	1581498478	8.16	15.11
12/02/2020 09:07:59	120220	12022020	090759	189.80	12.737822	-57.146023	189.81	0.770	-1.100	0.600	189.77	-2.50	1.10	 	 	 	 	 	 	 	 	 	 	 	 	 	 	 	 	 	 	1581498479	7.98	14.78
12/02/2020 09:08:00	120220	12022020	090800	189.49	12.737787	-57.146028	189.54	0.430	-0.750	1.300	189.49	-2.10	1.80	 	 	 	 	 	 	 	 	 	 	 	 	 	 	 	 	 	 	1581498480	7.58	14.04
12/02/2020 09:08:01	120220	12022020	090801	189.08	12.737753	-57.146037	188.99	-0.190	-0.470	2.290	188.95	-1.80	2.80	1015.00	26.20	26.20	20.80	20.80	-1.0	72.0	72.0	392.0	25.7	277.00	10.30	83.00	10.60	16	9376.0	27.5	27.5	1581498481	7.34	13.59
12/02/2020 09:08:02	120220	12022020	090802	188.30	12.737720	-57.146048	188.34	-0.720	-0.460	3.170	188.30	-1.80	3.70	 	 	 	 	 	 	 	 	 	 	 	 	 	 	 	 	 	 	1581498482	7.75	14.35
12/02/2020 09:08:03	120220	12022020	090803	187.78	12.737683	-57.146063	187.72	-0.860	-0.470	3.790	187.65	-1.80	4.30	 	 	 	 	 	 	 	 	 	 	 	 	 	 	 	 	 	 	1581498483	8.43	15.61
12/02/2020 09:08:04	120220	12022020	090804	187.18	12.737647	-57.146080	187.29	-0.580	-0.110	3.810	187.18	-1.50	4.30	 	 	 	 	 	 	 	 	 	 	 	 	 	 	 	 	 	 	1581498484	8.66	16.04
12/02/2020 09:08:05	120220	12022020	090805	187.10	12.737610	-57.146092	187.27	-0.140	0.540	2.980	187.13	-0.80	3.40	 	 	 	 	 	 	 	 	 	 	 	 	 	 	 	 	 	 	1581498485	8.13	15.06
12/02/2020 09:08:06	120220	12022020	090806	187.48	12.737577	-57.146098	187.63	0.200	0.970	1.510	187.48	-0.40	1.90	 	 	 	 	 	 	 	 	 	 	 	 	 	 	 	 	 	 	1581498486	7.45	13.80
12/02/2020 09:08:07	120220	12022020	090807	187.85	12.737542	-57.146098	188.04	0.400	0.690	0.120	187.93	-0.70	0.60	 	 	 	 	 	 	 	 	 	 	 	 	 	 	 	 	 	 	1581498487	7.39	13.69
12/02/2020 09:08:08	120220	12022020	090808	188.13	12.737505	-57.146098	188.21	0.480	-0.170	-0.470	188.14	-1.60	0.00	 	 	 	 	 	 	 	 	 	 	 	 	 	 	 	 	 	 	1581498488	7.84	14.52
12/02/2020 09:08:09	120220	12022020	090809	188.04	12.737468	-57.146102	188.03	0.400	-1.060	-0.100	187.98	-2.50	0.40	 	 	 	 	 	 	 	 	 	 	 	 	 	 	 	 	 	 	1581498489	8.19	15.17
12/02/2020 09:08:10	120220	12022020	090810	187.66	12.737430	-57.146110	187.62	0.170	-1.440	0.880	187.57	-2.80	1.40	 	 	 	 	 	 	 	 	 	 	 	 	 	 	 	 	 	 	1581498490	8.20	15.19
12/02/2020 09:08:11	120220	12022020	090811	187.18	12.737395	-57.146122	187.17	-0.150	-1.110	2.170	187.08	-2.40	2.70	 	 	 	 	 	 	 	 	 	 	 	 	 	 	 	 	 	 	1581498491	7.95	14.72
12/02/2020 09:08:12	120220	12022020	090812	186.75	12.737363	-57.146137	186.86	-0.370	-0.380	3.160	186.75	-1.70	3.70	 	 	 	 	 	 	 	 	 	 	 	 	 	 	 	 	 	 	1581498492	7.64	14.15
12/02/2020 09:08:13	120220	12022020	090813	186.71	12.737332	-57.146152	186.87	-0.370	0.230	3.390	186.73	-1.10	3.90	 	 	 	 	 	 	 	 	 	 	 	 	 	 	 	 	 	 	1581498493	7.39	13.69
12/02/2020 09:08:14	120220	12022020	090814	186.94	12.737298	-57.146162	187.09	-0.140	0.310	2.950	186.94	-1.10	3.40	 	 	 	 	 	 	 	 	 	 	 	 	 	 	 	 	 	 	1581498494	7.41	13.72
12/02/2020 09:08:15	120220	12022020	090815	187.13	12.737263	-57.146167	187.29	0.220	-0.100	2.260	187.16	-1.50	2.70	 	 	 	 	 	 	 	 	 	 	 	 	 	 	 	 	 	 	1581498495	7.84	14.52
12/02/2020 09:08:16	120220	12022020	090816	187.15	12.737225	-57.146170	187.22	0.510	-0.590	1.740	187.15	-2.00	2.20	 	 	 	 	 	 	 	 	 	 	 	 	 	 	 	 	 	 	1581498496	8.28	15.33
12/02/2020 09:08:17	120220	12022020	090817	186.92	12.737185	-57.146172	186.90	0.500	-0.730	1.740	186.84	-2.10	2.30	 	 	 	 	 	 	 	 	 	 	 	 	 	 	 	 	 	 	1581498497	8.35	15.46
12/02/2020 09:08:18	120220	12022020	090818	186.60	12.737148	-57.146177	186.68	0.090	-0.260	2.010	186.58	-1.60	2.50	 	 	 	 	 	 	 	 	 	 	 	 	 	 	 	 	 	 	1581498498	7.98	14.78
12/02/2020 09:08:19	120220	12022020	090819	186.64	12.737115	-57.146183	186.84	-0.490	0.550	2.180	186.69	-0.80	2.70	 	 	 	 	 	 	 	 	 	 	 	 	 	 	 	 	 	 	1581498499	7.33	13.58
12/02/2020 09:08:20	120220	12022020	090820	186.97	12.737085	-57.146193	187.21	-0.770	0.920	2.210	187.04	-0.50	2.70	 	 	 	 	 	 	 	 	 	 	 	 	 	 	 	 	 	 	1581498500	6.86	12.70
12/02/2020 09:08:21	120220	12022020	090821	187.29	12.737053	-57.146203	187.48	-0.430	0.350	2.090	187.33	-1.10	2.60	 	 	 	 	 	 	 	 	 	 	 	 	 	 	 	 	 	 	1581498501	7.21	13.35
12/02/2020 09:08:22	120220	12022020	090822	187.43	12.737017	-57.146212	187.54	0.260	-0.700	1.830	187.43	-2.10	2.30	 	 	 	 	 	 	 	 	 	 	 	 	 	 	 	 	 	 	1581498502	8.08	14.96
12/02/2020 09:08:23	120220	12022020	090823	187.37	12.736977	-57.146218	187.46	0.720	-1.370	1.640	187.35	-2.80	2.10	 	 	 	 	 	 	 	 	 	 	 	 	 	 	 	 	 	 	1581498503	8.57	15.87
12/02/2020 09:08:24	120220	12022020	090824	187.27	12.736938	-57.146223	187.38	0.610	-1.300	1.460	187.27	-2.70	2.00	 	 	 	 	 	 	 	 	 	 	 	 	 	 	 	 	 	 	1581498504	8.27	15.32
12/02/2020 09:08:25	120220	12022020	090825	187.29	12.736903	-57.146228	187.43	0.060	-0.690	1.450	187.31	-2.00	2.00	 	 	 	 	 	 	 	 	 	 	 	 	 	 	 	 	 	 	1581498505	7.62	14.11
12/02/2020 09:08:26	120220	12022020	090826	187.53	12.736872	-57.146235	187.69	-0.460	0.110	1.460	187.53	-1.20	2.00	 	 	 	 	 	 	 	 	 	 	 	 	 	 	 	 	 	 	1581498506	7.20	13.33
12/02/2020 09:08:27	120220	12022020	090827	187.82	12.736838	-57.146242	188.06	-0.660	0.710	1.410	187.89	-0.70	1.90	 	 	 	 	 	 	 	 	 	 	 	 	 	 	 	 	 	 	1581498507	7.04	13.04
12/02/2020 09:08:28	120220	12022020	090828	188.12	12.736807	-57.146250	188.24	-0.450	0.630	1.450	188.12	-0.80	1.90	 	 	 	 	 	 	 	 	 	 	 	 	 	 	 	 	 	 	1581498508	7.17	13.28
12/02/2020 09:08:29	120220	12022020	090829	188.08	12.736770	-57.146258	188.11	0.010	-0.180	1.640	188.03	-1.60	2.20	 	 	 	 	 	 	 	 	 	 	 	 	 	 	 	 	 	 	1581498509	7.86	14.56
12/02/2020 09:08:30	120220	12022020	090830	187.79	12.736732	-57.146267	187.79	0.410	-0.990	1.940	187.72	-2.40	2.50	 	 	 	 	 	 	 	 	 	 	 	 	 	 	 	 	 	 	1581498510	8.62	15.96
12/02/2020 09:08:31	120220	12022020	090831	187.44	12.736692	-57.146275	187.45	0.500	-1.020	2.250	187.37	-2.40	2.80	 	 	 	 	 	 	 	 	 	 	 	 	 	 	 	 	 	 	1581498511	8.65	16.02
12/02/2020 09:08:32	120220	12022020	090832	187.14	12.736657	-57.146282	187.18	0.310	-0.250	2.330	187.09	-1.60	2.80	 	 	 	 	 	 	 	 	 	 	 	 	 	 	 	 	 	 	1581498512	7.85	14.54
12/02/2020 09:08:33	120220	12022020	090833	187.01	12.736625	-57.146288	187.11	0.080	0.620	2.040	187.01	-0.70	2.50	 	 	 	 	 	 	 	 	 	 	 	 	 	 	 	 	 	 	1581498513	7.01	12.98
12/02/2020 09:08:34	120220	12022020	090834	187.02	12.736593	-57.146292	187.13	-0.050	0.760	1.750	187.02	-0.60	2.30	 	 	 	 	 	 	 	 	 	 	 	 	 	 	 	 	 	 	1581498514	6.86	12.70
12/02/2020 09:08:35	120220	12022020	090835	187.09	12.736558	-57.146295	187.24	-0.160	0.110	1.800	187.12	-1.30	2.30	 	 	 	 	 	 	 	 	 	 	 	 	 	 	 	 	 	 	1581498515	7.54	13.96
12/02/2020 09:08:36	120220	12022020	090836	187.24	12.736520	-57.146303	187.41	-0.300	-0.670	2.190	187.26	-2.10	2.70	 	 	 	 	 	 	 	 	 	 	 	 	 	 	 	 	 	 	1581498516	8.23	15.24
12/02/2020 09:08:37	120220	12022020	090837	187.32	12.736483	-57.146315	187.45	-0.310	-1.050	2.530	187.32	-2.40	3.00	 	 	 	 	 	 	 	 	 	 	 	 	 	 	 	 	 	 	1581498517	8.37	15.50
12/02/2020 09:08:38	120220	12022020	090838	187.25	12.736448	-57.146328	187.34	-0.010	-1.080	2.510	187.22	-2.40	3.00	 	 	 	 	 	 	 	 	 	 	 	 	 	 	 	 	 	 	1581498518	8.06	14.93
12/02/2020 09:08:39	120220	12022020	090839	187.09	12.736413	-57.146338	187.19	0.410	-0.870	2.160	187.07	-2.20	2.60	 	 	 	 	 	 	 	 	 	 	 	 	 	 	 	 	 	 	1581498519	7.76	14.37
12/02/2020 09:08:40	120220	12022020	090840	187.02	12.736378	-57.146342	187.14	0.440	-0.430	1.740	187.02	-1.80	2.20	 	 	 	 	 	 	 	 	 	 	 	 	 	 	 	 	 	 	1581498520	7.66	14.19
12/02/2020 09:08:41	120220	12022020	090841	187.04	12.736343	-57.146345	187.15	-0.050	0.070	1.380	187.04	-1.30	1.90	 	 	 	 	 	 	 	 	 	 	 	 	 	 	 	 	 	 	1581498521	7.51	13.91
12/02/2020 09:08:42	120220	12022020	090842	186.98	12.736308	-57.146350	187.05	-0.590	0.280	1.200	186.96	-1.10	1.70	 	 	 	 	 	 	 	 	 	 	 	 	 	 	 	 	 	 	1581498522	7.40	13.70
12/02/2020 09:08:43	120220	12022020	090843	186.83	12.736273	-57.146357	186.88	-0.590	0.170	1.190	186.80	-1.20	1.70	 	 	 	 	 	 	 	 	 	 	 	 	 	 	 	 	 	 	1581498523	7.75	14.35
12/02/2020 09:08:44	120220	12022020	090844	186.69	12.736237	-57.146365	186.79	-0.010	0.070	1.180	186.68	-1.30	1.70	 	 	 	 	 	 	 	 	 	 	 	 	 	 	 	 	 	 	1581498524	8.11	15.02
12/02/2020 09:08:45	120220	12022020	090845	186.79	12.736200	-57.146372	187.01	0.570	0.090	1.060	186.85	-1.30	1.60	 	 	 	 	 	 	 	 	 	 	 	 	 	 	 	 	 	 	1581498525	8.06	14.93
12/02/2020 09:08:46	120220	12022020	090846	187.21	12.736163	-57.146375	187.46	0.610	0.120	1.210	187.29	-1.30	1.70	 	 	 	 	 	 	 	 	 	 	 	 	 	 	 	 	 	 	1581498526	7.77	14.39
12/02/2020 09:08:47	120220	12022020	090847	187.53	12.736130	-57.146380	187.65	0.130	-0.150	1.970	187.54	-1.60	2.50	 	 	 	 	 	 	 	 	 	 	 	 	 	 	 	 	 	 	1581498527	7.48	13.85
12/02/2020 09:08:48	120220	12022020	090848	187.18	12.736095	-57.146392	187.28	-0.340	-0.790	3.260	187.18	-2.20	3.80	 	 	 	 	 	 	 	 	 	 	 	 	 	 	 	 	 	 	1581498528	7.73	14.32
12/02/2020 09:08:49	120220	12022020	090849	186.60	12.736058	-57.146408	186.56	-0.430	-1.290	4.420	186.44	-2.70	4.90	 	 	 	 	 	 	 	 	 	 	 	 	 	 	 	 	 	 	1581498529	8.50	15.74
12/02/2020 09:08:50	120220	12022020	090850	185.94	12.736023	-57.146425	185.99	-0.200	-0.970	4.740	185.85	-2.30	5.20	 	 	 	 	 	 	 	 	 	 	 	 	 	 	 	 	 	 	1581498530	8.67	16.06
12/02/2020 09:08:51	120220	12022020	090851	185.74	12.735988	-57.146438	185.96	0.060	0.050	3.930	185.77	-1.30	4.40	 	 	 	 	 	 	 	 	 	 	 	 	 	 	 	 	 	 	1581498531	7.69	14.24
12/02/2020 09:08:52	120220	12022020	090852	186.05	12.735958	-57.146443	186.31	0.210	0.830	2.370	186.14	-0.50	2.80	 	 	 	 	 	 	 	 	 	 	 	 	 	 	 	 	 	 	1581498532	6.69	12.39
12/02/2020 09:08:53	120220	12022020	090853	186.44	12.735927	-57.146442	186.59	0.300	0.620	0.910	186.48	-0.80	1.40	 	 	 	 	 	 	 	 	 	 	 	 	 	 	 	 	 	 	1581498533	6.83	12.65
12/02/2020 09:08:54	120220	12022020	090854	186.52	12.735890	-57.146438	186.58	0.430	-0.420	0.170	186.51	-1.80	0.70	 	 	 	 	 	 	 	 	 	 	 	 	 	 	 	 	 	 	1581498534	7.84	14.52
12/02/2020 09:08:55	120220	12022020	090855	186.42	12.735850	-57.146438	186.46	0.530	-1.350	0.090	186.40	-2.70	0.60	 	 	 	 	 	 	 	 	 	 	 	 	 	 	 	 	 	 	1581498535	8.61	15.95
12/02/2020 09:08:56	120220	12022020	090856	186.31	12.735810	-57.146442	186.40	0.430	-1.510	0.450	186.31	-2.90	1.00	 	 	 	 	 	 	 	 	 	 	 	 	 	 	 	 	 	 	1581498536	8.53	15.80
12/02/2020 09:08:57	120220	12022020	090857	186.21	12.735775	-57.146448	186.29	0.020	-1.040	1.310	186.18	-2.40	1.90	 	 	 	 	 	 	 	 	 	 	 	 	 	 	 	 	 	 	1581498537	7.91	14.65
12/02/2020 09:08:58	120220	12022020	090858	186.13	12.735742	-57.146458	186.30	-0.650	-0.180	2.400	186.14	-1.50	2.90	 	 	 	 	 	 	 	 	 	 	 	 	 	 	 	 	 	 	1581498538	7.56	14.00
12/02/2020 09:08:59	120220	12022020	090859	186.38	12.735708	-57.146472	186.69	-1.290	0.780	3.010	186.49	-0.60	3.50	 	 	 	 	 	 	 	 	 	 	 	 	 	 	 	 	 	 	1581498539	7.46	13.82
12/02/2020 09:09:00	120220	12022020	090900	186.98	12.735678	-57.146487	187.27	-1.460	1.150	3.040	187.09	-0.20	3.50	 	 	 	 	 	 	 	 	 	 	 	 	 	 	 	 	 	 	1581498540	7.25	13.43
12/02/2020 09:09:01	120220	12022020	090901	187.37	12.735645	-57.146498	187.50	-0.860	0.430	2.790	187.37	-1.00	3.30	1015.00	26.10	26.20	20.40	20.50	-1.0	70.0	71.0	391.0	25.7	276.00	10.20	81.00	10.60	16	9707.0	27.4	27.4	1581498541	7.51	13.91
12/02/2020 09:09:02	120220	12022020	090902	186.99	12.735607	-57.146508	187.07	0.270	-0.820	2.590	186.99	-2.20	3.10	 	 	 	 	 	 	 	 	 	 	 	 	 	 	 	 	 	 	1581498542	8.46	15.67
12/02/2020 09:09:03	120220	12022020	090903	186.47	12.735565	-57.146515	186.42	1.200	-1.250	2.420	186.35	-2.60	2.90	 	 	 	 	 	 	 	 	 	 	 	 	 	 	 	 	 	 	1581498543	9.05	16.76
12/02/2020 09:09:04	120220	12022020	090904	186.12	12.735528	-57.146518	186.24	1.390	-0.340	1.900	186.12	-1.70	2.40	 	 	 	 	 	 	 	 	 	 	 	 	 	 	 	 	 	 	1581498544	8.22	15.22
12/02/2020 09:09:05	120220	12022020	090905	186.42	12.735497	-57.146518	186.68	0.870	0.980	1.100	186.53	-0.40	1.60	 	 	 	 	 	 	 	 	 	 	 	 	 	 	 	 	 	 	1581498545	6.78	12.56
12/02/2020 09:09:06	120220	12022020	090906	187.19	12.735467	-57.146517	187.34	0.170	1.320	0.660	187.19	-0.10	1.20	 	 	 	 	 	 	 	 	 	 	 	 	 	 	 	 	 	 	1581498546	6.15	11.39
12/02/2020 09:09:07	120220	12022020	090907	187.65	12.735435	-57.146520	187.86	-0.210	0.380	0.860	187.75	-1.10	1.40	 	 	 	 	 	 	 	 	 	 	 	 	 	 	 	 	 	 	1581498547	6.90	12.78
12/02/2020 09:09:08	120220	12022020	090908	187.93	12.735398	-57.146528	188.01	-0.230	-1.200	1.650	187.93	-2.60	2.20	 	 	 	 	 	 	 	 	 	 	 	 	 	 	 	 	 	 	1581498548	8.07	14.95
12/02/2020 09:09:09	120220	12022020	090909	187.71	12.735360	-57.146540	187.66	-0.110	-2.530	2.930	187.59	-3.90	3.50	 	 	 	 	 	 	 	 	 	 	 	 	 	 	 	 	 	 	1581498549	8.85	16.39
12/02/2020 09:09:10	120220	12022020	090910	186.74	12.735320	-57.146557	186.80	-0.140	-2.880	4.200	186.74	-4.20	4.70	 	 	 	 	 	 	 	 	 	 	 	 	 	 	 	 	 	 	1581498550	9.01	16.69
12/02/2020 09:09:11	120220	12022020	090911	185.99	12.735285	-57.146573	185.95	-0.300	-1.900	4.760	185.85	-3.20	5.20	 	 	 	 	 	 	 	 	 	 	 	 	 	 	 	 	 	 	1581498551	8.58	15.89
12/02/2020 09:09:12	120220	12022020	090912	185.41	12.735252	-57.146587	185.47	-0.340	-0.150	4.510	185.35	-1.40	5.00	 	 	 	 	 	 	 	 	 	 	 	 	 	 	 	 	 	 	1581498552	7.57	14.02
12/02/2020 09:09:13	120220	12022020	090913	185.20	12.735220	-57.146595	185.33	-0.130	1.290	3.610	185.20	-0.00	4.00	 	 	 	 	 	 	 	 	 	 	 	 	 	 	 	 	 	 	1581498553	6.84	12.67
12/02/2020 09:09:14	120220	12022020	090914	185.41	12.735187	-57.146595	185.56	-0.010	1.810	2.480	185.41	0.40	2.90	 	 	 	 	 	 	 	 	 	 	 	 	 	 	 	 	 	 	1581498554	7.19	13.32
12/02/2020 09:09:15	120220	12022020	090915	185.85	12.735150	-57.146593	186.16	-0.230	1.520	1.700	185.98	0.10	2.20	 	 	 	 	 	 	 	 	 	 	 	 	 	 	 	 	 	 	1581498555	7.90	14.63
12/02/2020 09:09:16	120220	12022020	090916	186.57	12.735113	-57.146595	186.73	-0.530	0.780	1.630	186.57	-0.60	2.10	 	 	 	 	 	 	 	 	 	 	 	 	 	 	 	 	 	 	1581498556	8.09	14.98
12/02/2020 09:09:17	120220	12022020	090917	186.89	12.735077	-57.146605	187.09	-0.420	-0.010	1.820	186.95	-1.40	2.30	 	 	 	 	 	 	 	 	 	 	 	 	 	 	 	 	 	 	1581498557	8.09	14.98
12/02/2020 09:09:18	120220	12022020	090918	187.09	12.735042	-57.146615	187.20	0.260	-0.770	1.810	187.09	-2.20	2.30	 	 	 	 	 	 	 	 	 	 	 	 	 	 	 	 	 	 	1581498558	7.90	14.63
12/02/2020 09:09:19	120220	12022020	090919	186.97	12.735007	-57.146623	186.97	1.050	-1.550	1.810	186.90	-2.90	2.30	 	 	 	 	 	 	 	 	 	 	 	 	 	 	 	 	 	 	1581498559	7.74	14.33
12/02/2020 09:09:20	120220	12022020	090920	186.53	12.734970	-57.146627	186.61	1.240	-1.870	1.950	186.53	-3.20	2.50	 	 	 	 	 	 	 	 	 	 	 	 	 	 	 	 	 	 	1581498560	7.94	14.70
12/02/2020 09:09:21	120220	12022020	090921	186.36	12.734933	-57.146632	186.45	0.580	-1.310	2.090	186.34	-2.60	2.60	 	 	 	 	 	 	 	 	 	 	 	 	 	 	 	 	 	 	1581498561	7.76	14.37
12/02/2020 09:09:22	120220	12022020	090922	186.41	12.734902	-57.146638	186.58	-0.360	-0.190	2.080	186.44	-1.50	2.60	 	 	 	 	 	 	 	 	 	 	 	 	 	 	 	 	 	 	1581498562	7.08	13.11
12/02/2020 09:09:23	120220	12022020	090923	186.60	12.734872	-57.146647	186.76	-0.850	0.590	1.980	186.63	-0.80	2.50	 	 	 	 	 	 	 	 	 	 	 	 	 	 	 	 	 	 	1581498563	6.70	12.41
12/02/2020 09:09:24	120220	12022020	090924	186.64	12.734838	-57.146655	186.73	-0.630	0.450	2.030	186.64	-0.90	2.50	 	 	 	 	 	 	 	 	 	 	 	 	 	 	 	 	 	 	1581498564	7.19	13.32
12/02/2020 09:09:25	120220	12022020	090925	186.44	12.734802	-57.146663	186.47	-0.120	-0.230	2.450	186.38	-1.60	3.00	 	 	 	 	 	 	 	 	 	 	 	 	 	 	 	 	 	 	1581498565	8.20	15.19
12/02/2020 09:09:26	120220	12022020	090926	186.04	12.734762	-57.146673	186.16	0.120	-0.650	2.960	186.04	-2.00	3.50	 	 	 	 	 	 	 	 	 	 	 	 	 	 	 	 	 	 	1581498566	8.81	16.32
12/02/2020 09:09:27	120220	12022020	090927	185.96	12.734723	-57.146683	186.13	-0.090	-0.310	3.170	185.98	-1.60	3.70	 	 	 	 	 	 	 	 	 	 	 	 	 	 	 	 	 	 	1581498567	8.51	15.76
12/02/2020 09:09:28	120220	12022020	090928	186.16	12.734690	-57.146693	186.38	-0.450	0.460	3.050	186.23	-0.90	3.50	 	 	 	 	 	 	 	 	 	 	 	 	 	 	 	 	 	 	1581498568	7.53	13.95
12/02/2020 09:09:29	120220	12022020	090929	186.46	12.734660	-57.146703	186.63	-0.440	0.750	2.640	186.49	-0.60	3.10	 	 	 	 	 	 	 	 	 	 	 	 	 	 	 	 	 	 	1581498569	6.89	12.76
12/02/2020 09:09:30	120220	12022020	090930	186.60	12.734627	-57.146710	186.73	0.160	0.190	2.000	186.61	-1.20	2.50	 	 	 	 	 	 	 	 	 	 	 	 	 	 	 	 	 	 	1581498570	7.24	13.41
12/02/2020 09:09:31	120220	12022020	090931	186.77	12.734588	-57.146713	187.00	0.840	-0.450	1.140	186.86	-1.80	1.60	 	 	 	 	 	 	 	 	 	 	 	 	 	 	 	 	 	 	1581498571	8.11	15.02
12/02/2020 09:09:32	120220	12022020	090932	187.51	12.734552	-57.146713	187.66	0.900	-0.500	0.540	187.51	-1.90	1.00	 	 	 	 	 	 	 	 	 	 	 	 	 	 	 	 	 	 	1581498572	8.14	15.08
12/02/2020 09:09:33	120220	12022020	090933	187.97	12.734518	-57.146715	188.15	0.340	-0.440	0.680	188.03	-1.80	1.20	 	 	 	 	 	 	 	 	 	 	 	 	 	 	 	 	 	 	1581498573	7.22	13.37
12/02/2020 09:09:34	120220	12022020	090934	187.92	12.734485	-57.146722	187.85	-0.170	-0.900	1.620	187.81	-2.30	2.20	 	 	 	 	 	 	 	 	 	 	 	 	 	 	 	 	 	 	1581498574	6.98	12.93
12/02/2020 09:09:35	120220	12022020	090935	187.16	12.734450	-57.146733	187.03	-0.300	-1.440	2.950	186.99	-2.80	3.50	 	 	 	 	 	 	 	 	 	 	 	 	 	 	 	 	 	 	1581498575	7.93	14.69
12/02/2020 09:09:36	120220	12022020	090936	186.30	12.734413	-57.146748	186.25	-0.230	-1.350	4.040	186.17	-2.70	4.50	 	 	 	 	 	 	 	 	 	 	 	 	 	 	 	 	 	 	1581498576	8.54	15.82
12/02/2020 09:09:37	120220	12022020	090937	185.79	12.734378	-57.146762	185.88	-0.300	-0.560	4.410	185.75	-1.90	4.90	 	 	 	 	 	 	 	 	 	 	 	 	 	 	 	 	 	 	1581498577	8.22	15.22
12/02/2020 09:09:38	120220	12022020	090938	185.74	12.734345	-57.146773	185.91	-0.530	0.460	4.120	185.76	-0.90	4.60	 	 	 	 	 	 	 	 	 	 	 	 	 	 	 	 	 	 	1581498578	7.54	13.96
12/02/2020 09:09:39	120220	12022020	090939	185.91	12.734313	-57.146782	186.10	-0.650	1.170	3.440	185.95	-0.20	3.90	 	 	 	 	 	 	 	 	 	 	 	 	 	 	 	 	 	 	1581498579	7.14	13.22
12/02/2020 09:09:40	120220	12022020	090940	186.17	12.734280	-57.146788	186.41	-0.440	1.280	2.420	186.25	-0.10	2.90	 	 	 	 	 	 	 	 	 	 	 	 	 	 	 	 	 	 	1581498580	7.24	13.41
12/02/2020 09:09:41	120220	12022020	090941	186.68	12.734245	-57.146792	186.96	0.020	0.890	1.070	186.82	-0.50	1.50	 	 	 	 	 	 	 	 	 	 	 	 	 	 	 	 	 	 	1581498581	7.55	13.98
12/02/2020 09:09:42	120220	12022020	090942	187.39	12.734208	-57.146793	187.64	0.520	0.170	-0.250	187.52	-1.30	0.20	 	 	 	 	 	 	 	 	 	 	 	 	 	 	 	 	 	 	1581498582	7.67	14.20
12/02/2020 09:09:43	120220	12022020	090943	187.87	12.734173	-57.146792	187.93	0.860	-0.960	-0.710	187.88	-2.40	-0.20	 	 	 	 	 	 	 	 	 	 	 	 	 	 	 	 	 	 	1581498583	7.71	14.28
12/02/2020 09:09:44	120220	12022020	090944	187.58	12.734137	-57.146795	187.41	0.950	-2.230	0.210	187.42	-3.70	0.80	 	 	 	 	 	 	 	 	 	 	 	 	 	 	 	 	 	 	1581498584	8.04	14.89
12/02/2020 09:09:45	120220	12022020	090945	186.63	12.734097	-57.146803	186.45	0.610	-2.620	1.850	186.42	-4.00	2.40	 	 	 	 	 	 	 	 	 	 	 	 	 	 	 	 	 	 	1581498585	8.51	15.76
12/02/2020 09:09:46	120220	12022020	090946	185.60	12.734062	-57.146817	185.69	-0.150	-1.500	3.430	185.60	-2.80	4.00	 	 	 	 	 	 	 	 	 	 	 	 	 	 	 	 	 	 	1581498586	8.29	15.35
12/02/2020 09:09:47	120220	12022020	090947	185.28	12.734030	-57.146832	185.41	-0.940	0.390	4.280	185.26	-0.90	4.80	 	 	 	 	 	 	 	 	 	 	 	 	 	 	 	 	 	 	1581498587	7.39	13.69
12/02/2020 09:09:48	120220	12022020	090948	185.38	12.734003	-57.146847	185.66	-1.290	1.770	4.080	185.46	0.40	4.50	 	 	 	 	 	 	 	 	 	 	 	 	 	 	 	 	 	 	1581498588	6.74	12.48
12/02/2020 09:09:49	120220	12022020	090949	185.90	12.733973	-57.146858	186.23	-0.990	1.950	3.140	186.02	0.50	3.60	 	 	 	 	 	 	 	 	 	 	 	 	 	 	 	 	 	 	1581498589	6.86	12.70
12/02/2020 09:09:50	120220	12022020	090950	186.52	12.733938	-57.146863	186.79	-0.240	1.040	2.030	186.63	-0.40	2.50	 	 	 	 	 	 	 	 	 	 	 	 	 	 	 	 	 	 	1581498590	7.63	14.13
12/02/2020 09:09:51	120220	12022020	090951	186.93	12.733898	-57.146867	187.07	0.580	-0.270	1.120	186.96	-1.70	1.60	 	 	 	 	 	 	 	 	 	 	 	 	 	 	 	 	 	 	1581498591	8.38	15.52
12/02/2020 09:09:52	120220	12022020	090952	186.96	12.733860	-57.146868	186.99	1.090	-1.280	0.710	186.92	-2.70	1.20	 	 	 	 	 	 	 	 	 	 	 	 	 	 	 	 	 	 	1581498592	8.49	15.72
12/02/2020 09:09:53	120220	12022020	090953	186.65	12.733822	-57.146870	186.62	1.140	-1.630	0.870	186.56	-3.00	1.40	 	 	 	 	 	 	 	 	 	 	 	 	 	 	 	 	 	 	1581498593	8.07	14.95
12/02/2020 09:09:54	120220	12022020	090954	186.15	12.733787	-57.146873	186.11	0.760	-1.340	1.480	186.04	-2.70	2.00	 	 	 	 	 	 	 	 	 	 	 	 	 	 	 	 	 	 	1581498594	7.47	13.83
12/02/2020 09:09:55	120220	12022020	090955	185.68	12.733755	-57.146880	185.73	0.060	-0.640	2.130	185.62	-2.00	2.70	 	 	 	 	 	 	 	 	 	 	 	 	 	 	 	 	 	 	1581498595	7.12	13.19
12/02/2020 09:09:56	120220	12022020	090956	185.58	12.733723	-57.146890	185.74	-0.660	0.080	2.480	185.58	-1.30	3.00	 	 	 	 	 	 	 	 	 	 	 	 	 	 	 	 	 	 	1581498596	7.06	13.08
12/02/2020 09:09:57	120220	12022020	090957	185.80	12.733692	-57.146902	186.06	-0.980	0.450	2.520	185.87	-0.90	3.00	 	 	 	 	 	 	 	 	 	 	 	 	 	 	 	 	 	 	1581498597	7.23	13.39
12/02/2020 09:09:58	120220	12022020	090958	186.19	12.733658	-57.146912	186.34	-0.740	0.260	2.320	186.19	-1.10	2.80	 	 	 	 	 	 	 	 	 	 	 	 	 	 	 	 	 	 	1581498598	7.57	14.02
12/02/2020 09:09:59	120220	12022020	090959	186.31	12.733622	-57.146918	186.48	-0.290	-0.230	2.220	186.33	-1.60	2.70	 	 	 	 	 	 	 	 	 	 	 	 	 	 	 	 	 	 	1581498599	8.03	14.87
12/02/2020 09:10:00	120220	12022020	091000	186.38	12.733583	-57.146927	186.51	-0.070	-0.430	2.270	186.39	-1.80	2.80	 	 	 	 	 	 	 	 	 	 	 	 	 	 	 	 	 	 	1581498600	8.31	15.39
12/02/2020 09:10:01	120220	12022020	091001	186.36	12.733547	-57.146935	186.46	-0.060	-0.100	2.210	186.35	-1.50	2.70	1015.00	26.10	26.20	20.40	20.50	-1.0	71.0	71.0	391.0	25.7	273.00	10.10	78.00	10.60	16	10114.0	27.4	27.4	1581498601	7.91	14.65
12/02/2020 09:10:02	120220	12022020	091002	186.30	12.733515	-57.146943	186.40	0.110	0.420	1.900	186.30	-1.00	2.40	 	 	 	 	 	 	 	 	 	 	 	 	 	 	 	 	 	 	1581498602	7.26	13.45
12/02/2020 09:10:03	120220	12022020	091003	186.38	12.733483	-57.146948	186.52	0.550	0.610	1.250	186.41	-0.80	1.70	 	 	 	 	 	 	 	 	 	 	 	 	 	 	 	 	 	 	1581498603	6.92	12.82
12/02/2020 09:10:04	120220	12022020	091004	186.54	12.733450	-57.146948	186.62	0.910	0.100	0.850	186.54	-1.30	1.40	 	 	 	 	 	 	 	 	 	 	 	 	 	 	 	 	 	 	1581498604	7.20	13.33
12/02/2020 09:10:05	120220	12022020	091005	186.46	12.733413	-57.146948	186.42	0.930	-0.880	1.100	186.40	-2.30	1.60	 	 	 	 	 	 	 	 	 	 	 	 	 	 	 	 	 	 	1581498605	7.81	14.46
12/02/2020 09:10:06	120220	12022020	091006	186.02	12.733375	-57.146953	185.95	0.650	-1.560	1.900	185.91	-3.00	2.40	 	 	 	 	 	 	 	 	 	 	 	 	 	 	 	 	 	 	1581498606	8.26	15.30
12/02/2020 09:10:07	120220	12022020	091007	185.52	12.733338	-57.146963	185.54	0.170	-1.250	2.720	185.45	-2.60	3.20	 	 	 	 	 	 	 	 	 	 	 	 	 	 	 	 	 	 	1581498607	8.14	15.08
12/02/2020 09:10:08	120220	12022020	091008	185.32	12.733305	-57.146973	185.45	-0.420	-0.190	3.060	185.32	-1.50	3.60	 	 	 	 	 	 	 	 	 	 	 	 	 	 	 	 	 	 	1581498608	7.35	13.61
12/02/2020 09:10:09	120220	12022020	091009	185.38	12.733277	-57.146985	185.53	-0.840	0.590	2.960	185.40	-0.80	3.40	 	 	 	 	 	 	 	 	 	 	 	 	 	 	 	 	 	 	1581498609	6.64	12.30
12/02/2020 09:10:10	120220	12022020	091010	185.44	12.733245	-57.146993	185.56	-0.810	0.370	2.720	185.44	-1.10	3.20	 	 	 	 	 	 	 	 	 	 	 	 	 	 	 	 	 	 	1581498610	6.92	12.82
12/02/2020 09:10:11	120220	12022020	091011	185.48	12.733208	-57.147000	185.60	-0.410	-0.500	2.410	185.49	-1.90	2.90	 	 	 	 	 	 	 	 	 	 	 	 	 	 	 	 	 	 	1581498611	7.97	14.76
12/02/2020 09:10:12	120220	12022020	091012	185.43	12.733170	-57.147007	185.47	0.020	-1.190	2.310	185.39	-2.60	2.80	 	 	 	 	 	 	 	 	 	 	 	 	 	 	 	 	 	 	1581498612	8.64	16.00
12/02/2020 09:10:13	120220	12022020	091013	185.15	12.733130	-57.147013	185.17	0.250	-1.130	2.250	185.10	-2.50	2.80	 	 	 	 	 	 	 	 	 	 	 	 	 	 	 	 	 	 	1581498613	8.55	15.83
12/02/2020 09:10:14	120220	12022020	091014	185.01	12.733093	-57.147020	185.12	0.210	-0.150	1.970	185.01	-1.50	2.50	 	 	 	 	 	 	 	 	 	 	 	 	 	 	 	 	 	 	1581498614	7.86	14.56
12/02/2020 09:10:15	120220	12022020	091015	185.26	12.733062	-57.147023	185.49	0.010	1.160	1.380	185.36	-0.20	1.90	 	 	 	 	 	 	 	 	 	 	 	 	 	 	 	 	 	 	1581498615	6.86	12.70
12/02/2020 09:10:16	120220	12022020	091016	185.84	12.733033	-57.147025	186.10	-0.100	1.660	0.690	185.97	0.30	1.20	 	 	 	 	 	 	 	 	 	 	 	 	 	 	 	 	 	 	1581498616	6.29	11.65
12/02/2020 09:10:17	120220	12022020	091017	186.36	12.733002	-57.147027	186.51	0.060	0.910	0.440	186.41	-0.50	1.00	 	 	 	 	 	 	 	 	 	 	 	 	 	 	 	 	 	 	1581498617	6.84	12.67
12/02/2020 09:10:18	120220	12022020	091018	186.44	12.732965	-57.147030	186.47	0.490	-0.540	0.890	186.41	-2.00	1.40	 	 	 	 	 	 	 	 	 	 	 	 	 	 	 	 	 	 	1581498618	7.86	14.56
12/02/2020 09:10:19	120220	12022020	091019	186.13	12.732927	-57.147037	186.08	0.800	-1.760	1.860	186.03	-3.20	2.40	 	 	 	 	 	 	 	 	 	 	 	 	 	 	 	 	 	 	1581498619	8.51	15.76
12/02/2020 09:10:20	120220	12022020	091020	185.38	12.732888	-57.147045	185.43	0.680	-2.110	3.050	185.38	-3.50	3.60	 	 	 	 	 	 	 	 	 	 	 	 	 	 	 	 	 	 	1581498620	8.42	15.59
12/02/2020 09:10:21	120220	12022020	091021	184.83	12.732853	-57.147057	184.79	0.150	-1.440	4.010	184.71	-2.80	4.60	 	 	 	 	 	 	 	 	 	 	 	 	 	 	 	 	 	 	1581498621	7.96	14.74
12/02/2020 09:10:22	120220	12022020	091022	184.45	12.732820	-57.147070	184.60	-0.450	-0.160	4.240	184.45	-1.50	4.70	 	 	 	 	 	 	 	 	 	 	 	 	 	 	 	 	 	 	1581498622	7.35	13.61
12/02/2020 09:10:23	120220	12022020	091023	184.71	12.732790	-57.147078	185.03	-0.790	0.900	3.400	184.84	-0.50	3.80	 	 	 	 	 	 	 	 	 	 	 	 	 	 	 	 	 	 	1581498623	6.77	12.54
12/02/2020 09:10:24	120220	12022020	091024	185.35	12.732760	-57.147083	185.64	-0.750	0.960	2.040	185.47	-0.50	2.50	 	 	 	 	 	 	 	 	 	 	 	 	 	 	 	 	 	 	1581498624	6.73	12.46
12/02/2020 09:10:25	120220	12022020	091025	185.81	12.732725	-57.147085	185.96	-0.350	0.090	0.990	185.86	-1.30	1.50	 	 	 	 	 	 	 	 	 	 	 	 	 	 	 	 	 	 	1581498625	7.63	14.13
12/02/2020 09:10:26	120220	12022020	091026	185.92	12.732685	-57.147087	185.97	0.120	-0.850	0.490	185.91	-2.30	1.00	 	 	 	 	 	 	 	 	 	 	 	 	 	 	 	 	 	 	1581498626	8.51	15.76
12/02/2020 09:10:27	120220	12022020	091027	185.81	12.732645	-57.147088	185.86	0.350	-1.110	0.530	185.78	-2.50	1.10	 	 	 	 	 	 	 	 	 	 	 	 	 	 	 	 	 	 	1581498627	8.58	15.89
12/02/2020 09:10:28	120220	12022020	091028	185.73	12.732608	-57.147093	185.84	0.220	-0.600	0.850	185.73	-2.00	1.40	 	 	 	 	 	 	 	 	 	 	 	 	 	 	 	 	 	 	1581498628	7.90	14.63
12/02/2020 09:10:29	120220	12022020	091029	185.80	12.732575	-57.147100	185.95	-0.050	0.170	1.300	185.83	-1.20	1.80	 	 	 	 	 	 	 	 	 	 	 	 	 	 	 	 	 	 	1581498629	7.19	13.32
12/02/2020 09:10:30	120220	12022020	091030	185.94	12.732543	-57.147108	186.09	-0.180	0.670	1.730	185.97	-0.70	2.30	 	 	 	 	 	 	 	 	 	 	 	 	 	 	 	 	 	 	1581498630	6.98	12.93
12/02/2020 09:10:31	120220	12022020	091031	186.00	12.732512	-57.147117	186.09	0.030	0.680	1.930	185.99	-0.70	2.40	 	 	 	 	 	 	 	 	 	 	 	 	 	 	 	 	 	 	1581498631	7.21	13.35
12/02/2020 09:10:32	120220	12022020	091032	185.87	12.732477	-57.147123	185.96	0.370	0.250	1.980	185.87	-1.20	2.50	 	 	 	 	 	 	 	 	 	 	 	 	 	 	 	 	 	 	1581498632	7.55	13.98
12/02/2020 09:10:33	120220	12022020	091033	185.83	12.732440	-57.147127	185.96	0.490	-0.390	1.950	185.85	-1.80	2.50	 	 	 	 	 	 	 	 	 	 	 	 	 	 	 	 	 	 	1581498633	7.89	14.61
12/02/2020 09:10:34	120220	12022020	091034	185.92	12.732403	-57.147132	186.03	0.290	-0.940	2.080	185.92	-2.30	2.60	 	 	 	 	 	 	 	 	 	 	 	 	 	 	 	 	 	 	1581498634	7.98	14.78
12/02/2020 09:10:35	120220	12022020	091035	185.87	12.732368	-57.147138	185.93	-0.020	-1.280	2.460	185.83	-2.70	3.00	 	 	 	 	 	 	 	 	 	 	 	 	 	 	 	 	 	 	1581498635	7.83	14.50
12/02/2020 09:10:36	120220	12022020	091036	185.45	12.732333	-57.147147	185.54	-0.260	-1.430	3.080	185.45	-2.80	3.60	 	 	 	 	 	 	 	 	 	 	 	 	 	 	 	 	 	 	1581498636	7.82	14.48
12/02/2020 09:10:37	120220	12022020	091037	185.03	12.732297	-57.147158	185.03	-0.430	-1.110	3.630	184.93	-2.40	4.10	 	 	 	 	 	 	 	 	 	 	 	 	 	 	 	 	 	 	1581498637	8.02	14.85
12/02/2020 09:10:38	120220	12022020	091038	184.62	12.732263	-57.147170	184.73	-0.540	-0.220	3.660	184.59	-1.50	4.10	 	 	 	 	 	 	 	 	 	 	 	 	 	 	 	 	 	 	1581498638	7.88	14.59
12/02/2020 09:10:39	120220	12022020	091039	184.64	12.732230	-57.147180	184.89	-0.470	0.700	2.900	184.71	-0.60	3.40	 	 	 	 	 	 	 	 	 	 	 	 	 	 	 	 	 	 	1581498639	7.31	13.54
12/02/2020 09:10:40	120220	12022020	091040	185.15	12.732197	-57.147183	185.48	-0.240	0.990	1.750	185.30	-0.40	2.20	 	 	 	 	 	 	 	 	 	 	 	 	 	 	 	 	 	 	1581498640	7.14	13.22
12/02/2020 09:10:41	120220	12022020	091041	185.91	12.732162	-57.147185	186.22	0.080	0.740	0.790	186.07	-0.70	1.30	 	 	 	 	 	 	 	 	 	 	 	 	 	 	 	 	 	 	1581498641	7.63	14.13
12/02/2020 09:10:42	120220	12022020	091042	186.63	12.732125	-57.147185	186.87	0.380	0.300	0.270	186.75	-1.10	0.80	 	 	 	 	 	 	 	 	 	 	 	 	 	 	 	 	 	 	1581498642	7.91	14.65
12/02/2020 09:10:43	120220	12022020	091043	187.03	12.732088	-57.147187	187.09	0.610	-0.220	0.300	187.03	-1.60	0.80	 	 	 	 	 	 	 	 	 	 	 	 	 	 	 	 	 	 	1581498643	7.77	14.39
12/02/2020 09:10:44	120220	12022020	091044	186.64	12.732053	-57.147190	186.67	0.700	-0.910	1.050	186.64	-2.30	1.60	 	 	 	 	 	 	 	 	 	 	 	 	 	 	 	 	 	 	1581498644	7.69	14.24
12/02/2020 09:10:45	120220	12022020	091045	186.03	12.732017	-57.147195	185.90	0.510	-1.360	2.230	185.86	-2.70	2.80	 	 	 	 	 	 	 	 	 	 	 	 	 	 	 	 	 	 	1581498645	7.96	14.74
12/02/2020 09:10:46	120220	12022020	091046	185.27	12.731980	-57.147207	185.26	0.120	-1.130	3.170	185.16	-2.50	3.70	 	 	 	 	 	 	 	 	 	 	 	 	 	 	 	 	 	 	1581498646	8.04	14.89
12/02/2020 09:10:47	120220	12022020	091047	185.04	12.731947	-57.147217	185.22	-0.350	-0.320	3.410	185.07	-1.70	3.90	 	 	 	 	 	 	 	 	 	 	 	 	 	 	 	 	 	 	1581498647	7.61	14.09
12/02/2020 09:10:48	120220	12022020	091048	185.30	12.731915	-57.147227	185.51	-0.710	0.210	3.340	185.36	-1.10	3.80	 	 	 	 	 	 	 	 	 	 	 	 	 	 	 	 	 	 	1581498648	7.03	13.02
12/02/2020 09:10:49	120220	12022020	091049	185.55	12.731883	-57.147237	185.71	-0.870	0.070	3.190	185.57	-1.30	3.70	 	 	 	 	 	 	 	 	 	 	 	 	 	 	 	 	 	 	1581498649	7.28	13.48
12/02/2020 09:10:50	120220	12022020	091050	185.55	12.731847	-57.147247	185.63	-0.690	-0.430	2.950	185.52	-1.80	3.40	 	 	 	 	 	 	 	 	 	 	 	 	 	 	 	 	 	 	1581498650	8.04	14.89
12/02/2020 09:10:51	120220	12022020	091051	185.37	12.731808	-57.147257	185.41	-0.260	-0.600	2.590	185.34	-2.00	3.10	 	 	 	 	 	 	 	 	 	 	 	 	 	 	 	 	 	 	1581498651	8.38	15.52
12/02/2020 09:10:52	120220	12022020	091052	185.24	12.731773	-57.147263	185.33	0.280	-0.300	1.950	185.25	-1.70	2.40	 	 	 	 	 	 	 	 	 	 	 	 	 	 	 	 	 	 	1581498652	8.00	14.82
12/02/2020 09:10:53	120220	12022020	091053	185.44	12.731738	-57.147267	185.61	0.710	0.210	1.020	185.52	-1.10	1.50	 	 	 	 	 	 	 	 	 	 	 	 	 	 	 	 	 	 	1581498653	7.50	13.89
12/02/2020 09:10:54	120220	12022020	091054	185.87	12.731703	-57.147265	186.04	0.750	0.530	0.330	185.96	-0.90	0.90	 	 	 	 	 	 	 	 	 	 	 	 	 	 	 	 	 	 	1581498654	7.27	13.46
12/02/2020 09:10:55	120220	12022020	091055	186.19	12.731670	-57.147263	186.26	0.450	0.300	0.310	186.21	-1.10	0.90	 	 	 	 	 	 	 	 	 	 	 	 	 	 	 	 	 	 	1581498655	7.35	13.61
12/02/2020 09:10:56	120220	12022020	091056	186.08	12.731635	-57.147267	186.13	0.080	-0.250	0.920	186.08	-1.60	1.50	 	 	 	 	 	 	 	 	 	 	 	 	 	 	 	 	 	 	1581498656	7.69	14.24
12/02/2020 09:10:57	120220	12022020	091057	185.90	12.731598	-57.147273	185.96	-0.210	-0.530	1.940	185.87	-1.90	2.50	 	 	 	 	 	 	 	 	 	 	 	 	 	 	 	 	 	 	1581498657	8.03	14.87
12/02/2020 09:10:58	120220	12022020	091058	185.92	12.731563	-57.147285	186.04	-0.410	-0.470	2.910	185.92	-1.80	3.40	 	 	 	 	 	 	 	 	 	 	 	 	 	 	 	 	 	 	1581498658	7.84	14.52
12/02/2020 09:10:59	120220	12022020	091059	185.96	12.731530	-57.147298	186.02	-0.480	-0.570	3.490	185.93	-2.00	4.00	 	 	 	 	 	 	 	 	 	 	 	 	 	 	 	 	 	 	1581498659	7.51	13.91
12/02/2020 09:11:00	120220	12022020	091100	185.54	12.731497	-57.147310	185.59	-0.220	-1.130	3.670	185.54	-2.50	4.20	 	 	 	 	 	 	 	 	 	 	 	 	 	 	 	 	 	 	1581498660	7.75	14.35
12/02/2020 09:11:01	120220	12022020	091101	185.13	12.731458	-57.147320	185.13	0.220	-1.460	3.420	185.05	-2.80	3.90	1015.00	26.20	26.20	20.50	20.50	-1.0	71.0	71.0	392.0	25.7	274.00	10.00	78.00	10.40	16	10058.0	27.4	27.4	1581498661	8.37	15.50
12/02/2020 09:11:02	120220	12022020	091102	184.90	12.731422	-57.147327	185.03	0.370	-0.760	2.820	184.90	-2.10	3.30	 	 	 	 	 	 	 	 	 	 	 	 	 	 	 	 	 	 	1581498662	8.25	15.28
12/02/2020 09:11:03	120220	12022020	091103	184.95	12.731388	-57.147328	185.10	0.050	0.390	2.140	184.98	-1.00	2.60	 	 	 	 	 	 	 	 	 	 	 	 	 	 	 	 	 	 	1581498663	7.19	13.32
12/02/2020 09:11:04	120220	12022020	091104	185.14	12.731357	-57.147330	185.25	-0.380	0.860	1.610	185.14	-0.50	2.10	 	 	 	 	 	 	 	 	 	 	 	 	 	 	 	 	 	 	1581498664	6.73	12.46
12/02/2020 09:11:05	120220	12022020	091105	185.27	12.731322	-57.147335	185.41	-0.440	0.420	1.400	185.31	-1.00	1.90	 	 	 	 	 	 	 	 	 	 	 	 	 	 	 	 	 	 	1581498665	7.45	13.80
12/02/2020 09:11:06	120220	12022020	091106	185.47	12.731283	-57.147340	185.65	-0.120	-0.020	1.330	185.53	-1.40	1.80	 	 	 	 	 	 	 	 	 	 	 	 	 	 	 	 	 	 	1581498666	8.38	15.52
12/02/2020 09:11:07	120220	12022020	091107	185.81	12.731245	-57.147347	186.03	0.190	0.050	1.140	185.90	-1.30	1.60	 	 	 	 	 	 	 	 	 	 	 	 	 	 	 	 	 	 	1581498667	8.26	15.30
12/02/2020 09:11:08	120220	12022020	091108	186.26	12.731212	-57.147352	186.37	0.220	0.170	1.020	186.26	-1.20	1.50	 	 	 	 	 	 	 	 	 	 	 	 	 	 	 	 	 	 	1581498668	7.46	13.82
12/02/2020 09:11:09	120220	12022020	091109	186.36	12.731178	-57.147355	186.42	0.100	-0.170	1.340	186.35	-1.70	1.90	 	 	 	 	 	 	 	 	 	 	 	 	 	 	 	 	 	 	1581498669	7.20	13.33
12/02/2020 09:11:10	120220	12022020	091110	186.02	12.731143	-57.147362	186.06	0.020	-1.030	2.250	186.02	-2.50	2.80	 	 	 	 	 	 	 	 	 	 	 	 	 	 	 	 	 	 	1581498670	7.71	14.28
12/02/2020 09:11:11	120220	12022020	091111	185.54	12.731105	-57.147372	185.47	0.050	-1.450	3.100	185.41	-2.80	3.60	 	 	 	 	 	 	 	 	 	 	 	 	 	 	 	 	 	 	1581498671	8.32	15.41
12/02/2020 09:11:12	120220	12022020	091112	184.93	12.731068	-57.147382	185.04	-0.010	-0.910	3.610	184.93	-2.20	4.10	 	 	 	 	 	 	 	 	 	 	 	 	 	 	 	 	 	 	1581498672	8.20	15.19
12/02/2020 09:11:13	120220	12022020	091113	184.91	12.731037	-57.147392	185.16	-0.240	0.260	3.430	184.96	-1.10	3.90	 	 	 	 	 	 	 	 	 	 	 	 	 	 	 	 	 	 	1581498673	7.31	13.54
12/02/2020 09:11:14	120220	12022020	091114	185.29	12.731007	-57.147400	185.57	-0.330	0.990	2.660	185.38	-0.40	3.10	 	 	 	 	 	 	 	 	 	 	 	 	 	 	 	 	 	 	1581498674	6.55	12.13
12/02/2020 09:11:15	120220	12022020	091115	185.65	12.730975	-57.147403	185.81	0.040	0.540	1.710	185.69	-0.90	2.20	 	 	 	 	 	 	 	 	 	 	 	 	 	 	 	 	 	 	1581498675	6.85	12.69
12/02/2020 09:11:16	120220	12022020	091116	185.75	12.730937	-57.147403	185.86	0.630	-0.500	1.030	185.76	-1.90	1.50	 	 	 	 	 	 	 	 	 	 	 	 	 	 	 	 	 	 	1581498676	8.11	15.02
12/02/2020 09:11:17	120220	12022020	091117	185.84	12.730897	-57.147403	185.96	0.760	-1.150	0.990	185.86	-2.50	1.50	 	 	 	 	 	 	 	 	 	 	 	 	 	 	 	 	 	 	1581498677	8.73	16.17
12/02/2020 09:11:18	120220	12022020	091118	185.86	12.730858	-57.147407	185.91	0.250	-1.230	1.470	185.83	-2.60	2.00	 	 	 	 	 	 	 	 	 	 	 	 	 	 	 	 	 	 	1581498678	8.16	15.11
12/02/2020 09:11:19	120220	12022020	091119	185.59	12.730823	-57.147413	185.62	-0.450	-0.950	2.320	185.52	-2.30	2.90	 	 	 	 	 	 	 	 	 	 	 	 	 	 	 	 	 	 	1581498679	7.67	14.20
12/02/2020 09:11:20	120220	12022020	091120	185.22	12.730790	-57.147427	185.35	-0.820	-0.340	3.220	185.22	-1.70	3.80	 	 	 	 	 	 	 	 	 	 	 	 	 	 	 	 	 	 	1581498680	7.71	14.28
12/02/2020 09:11:21	120220	12022020	091121	185.11	12.730757	-57.147440	185.28	-0.690	0.270	3.610	185.13	-1.10	4.10	 	 	 	 	 	 	 	 	 	 	 	 	 	 	 	 	 	 	1581498681	7.65	14.17
12/02/2020 09:11:22	120220	12022020	091122	185.30	12.730723	-57.147450	185.55	-0.280	0.520	3.210	185.37	-0.90	3.70	 	 	 	 	 	 	 	 	 	 	 	 	 	 	 	 	 	 	1581498682	7.60	14.08
12/02/2020 09:11:23	120220	12022020	091123	185.65	12.730688	-57.147455	185.90	0.070	0.430	2.480	185.73	-1.00	2.90	 	 	 	 	 	 	 	 	 	 	 	 	 	 	 	 	 	 	1581498683	7.76	14.37
12/02/2020 09:11:24	120220	12022020	091124	186.03	12.730652	-57.147458	186.29	0.180	0.390	1.570	186.13	-1.00	2.00	 	 	 	 	 	 	 	 	 	 	 	 	 	 	 	 	 	 	1581498684	7.88	14.59
12/02/2020 09:11:25	120220	12022020	091125	186.55	12.730617	-57.147458	186.79	0.060	0.490	0.740	186.65	-0.90	1.20	 	 	 	 	 	 	 	 	 	 	 	 	 	 	 	 	 	 	1581498685	7.56	14.00
12/02/2020 09:11:26	120220	12022020	091126	186.91	12.730583	-57.147460	187.00	-0.010	0.100	0.540	186.91	-1.30	1.10	 	 	 	 	 	 	 	 	 	 	 	 	 	 	 	 	 	 	1581498686	7.07	13.09
12/02/2020 09:11:27	120220	12022020	091127	186.80	12.730548	-57.147465	186.80	0.260	-0.880	0.910	186.74	-2.30	1.40	 	 	 	 	 	 	 	 	 	 	 	 	 	 	 	 	 	 	1581498687	7.49	13.87
12/02/2020 09:11:28	120220	12022020	091128	186.52	12.730510	-57.147472	186.56	0.710	-1.670	1.410	186.47	-3.10	1.90	 	 	 	 	 	 	 	 	 	 	 	 	 	 	 	 	 	 	1581498688	8.26	15.30
12/02/2020 09:11:29	120220	12022020	091129	186.37	12.730473	-57.147480	186.48	0.850	-1.580	1.790	186.36	-2.90	2.30	 	 	 	 	 	 	 	 	 	 	 	 	 	 	 	 	 	 	1581498689	8.27	15.32
12/02/2020 09:11:30	120220	12022020	091130	186.38	12.730438	-57.147487	186.51	0.490	-0.750	1.960	186.39	-2.00	2.50	 	 	 	 	 	 	 	 	 	 	 	 	 	 	 	 	 	 	1581498690	7.50	13.89
12/02/2020 09:11:31	120220	12022020	091131	186.41	12.730408	-57.147492	186.51	-0.320	0.300	2.150	186.40	-1.10	2.70	 	 	 	 	 	 	 	 	 	 	 	 	 	 	 	 	 	 	1581498691	6.72	12.45
12/02/2020 09:11:32	120220	12022020	091132	186.30	12.730377	-57.147500	186.36	-0.870	0.520	2.390	186.27	-0.90	2.90	 	 	 	 	 	 	 	 	 	 	 	 	 	 	 	 	 	 	1581498692	6.86	12.70
12/02/2020 09:11:33	120220	12022020	091133	186.10	12.730342	-57.147510	186.15	-0.880	0.110	2.550	186.07	-1.30	3.00	 	 	 	 	 	 	 	 	 	 	 	 	 	 	 	 	 	 	1581498693	7.78	14.41
12/02/2020 09:11:34	120220	12022020	091134	186.07	12.730305	-57.147522	186.16	-0.480	-0.210	2.420	186.07	-1.60	2.90	 	 	 	 	 	 	 	 	 	 	 	 	 	 	 	 	 	 	1581498694	8.51	15.76
12/02/2020 09:11:35	120220	12022020	091135	186.32	12.730267	-57.147530	186.55	-0.030	-0.050	1.870	186.41	-1.40	2.30	 	 	 	 	 	 	 	 	 	 	 	 	 	 	 	 	 	 	1581498695	8.25	15.28
12/02/2020 09:11:36	120220	12022020	091136	186.84	12.730233	-57.147535	187.06	0.210	0.160	1.190	186.94	-1.20	1.70	 	 	 	 	 	 	 	 	 	 	 	 	 	 	 	 	 	 	1581498696	7.49	13.87
12/02/2020 09:11:37	120220	12022020	091137	187.18	12.730198	-57.147538	187.28	0.310	-0.050	0.770	187.20	-1.40	1.30	 	 	 	 	 	 	 	 	 	 	 	 	 	 	 	 	 	 	1581498697	7.24	13.41
12/02/2020 09:11:38	120220	12022020	091138	187.19	12.730163	-57.147542	187.25	0.390	-0.470	0.760	187.18	-1.90	1.30	 	 	 	 	 	 	 	 	 	 	 	 	 	 	 	 	 	 	1581498698	7.64	14.15
12/02/2020 09:11:39	120220	12022020	091139	187.15	12.730127	-57.147545	187.24	0.330	-0.630	0.970	187.15	-2.00	1.50	 	 	 	 	 	 	 	 	 	 	 	 	 	 	 	 	 	 	1581498699	7.86	14.56
12/02/2020 09:11:40	120220	12022020	091140	187.15	12.730092	-57.147550	187.22	0.040	-0.400	1.480	187.14	-1.70	2.00	 	 	 	 	 	 	 	 	 	 	 	 	 	 	 	 	 	 	1581498700	7.58	14.04
12/02/2020 09:11:41	120220	12022020	091141	187.03	12.730060	-57.147558	187.04	-0.310	-0.120	2.220	186.97	-1.50	2.70	 	 	 	 	 	 	 	 	 	 	 	 	 	 	 	 	 	 	1581498701	7.19	13.32
12/02/2020 09:11:42	120220	12022020	091142	186.57	12.730028	-57.147570	186.62	-0.340	-0.190	2.870	186.57	-1.60	3.40	 	 	 	 	 	 	 	 	 	 	 	 	 	 	 	 	 	 	1581498702	7.33	13.58
12/02/2020 09:11:43	120220	12022020	091143	186.19	12.729993	-57.147583	186.18	-0.020	-0.390	3.220	186.10	-1.80	3.70	 	 	 	 	 	 	 	 	 	 	 	 	 	 	 	 	 	 	1581498703	7.83	14.50
12/02/2020 09:11:44	120220	12022020	091144	185.91	12.729958	-57.147593	186.04	0.370	-0.300	3.040	185.91	-1.70	3.50	 	 	 	 	 	 	 	 	 	 	 	 	 	 	 	 	 	 	1581498704	8.04	14.89
12/02/2020 09:11:45	120220	12022020	091145	186.09	12.729923	-57.147598	186.33	0.480	0.020	2.270	186.18	-1.30	2.70	 	 	 	 	 	 	 	 	 	 	 	 	 	 	 	 	 	 	1581498705	7.62	14.11
12/02/2020 09:11:46	120220	12022020	091146	186.57	12.729888	-57.147602	186.75	0.270	0.090	1.530	186.66	-1.30	1.90	 	 	 	 	 	 	 	 	 	 	 	 	 	 	 	 	 	 	1581498706	7.21	13.35
12/02/2020 09:11:47	120220	12022020	091147	186.96	12.729855	-57.147603	187.09	-0.050	-0.370	1.070	187.00	-1.80	1.60	 	 	 	 	 	 	 	 	 	 	 	 	 	 	 	 	 	 	1581498707	7.35	13.61
12/02/2020 09:11:48	120220	12022020	091148	187.02	12.729818	-57.147608	187.05	-0.120	-0.950	1.180	186.98	-2.40	1.80	 	 	 	 	 	 	 	 	 	 	 	 	 	 	 	 	 	 	1581498708	7.86	14.56
12/02/2020 09:11:49	120220	12022020	091149	186.71	12.729782	-57.147615	186.67	-0.040	-1.290	1.770	186.63	-2.70	2.30	 	 	 	 	 	 	 	 	 	 	 	 	 	 	 	 	 	 	1581498709	8.20	15.19
12/02/2020 09:11:50	120220	12022020	091150	186.32	12.729745	-57.147623	186.33	-0.050	-0.820	2.270	186.26	-2.10	2.80	 	 	 	 	 	 	 	 	 	 	 	 	 	 	 	 	 	 	1581498710	8.07	14.95
12/02/2020 09:11:51	120220	12022020	091151	186.05	12.729712	-57.147632	186.13	-0.200	0.050	2.380	186.03	-1.20	2.90	 	 	 	 	 	 	 	 	 	 	 	 	 	 	 	 	 	 	1581498711	7.48	13.85
12/02/2020 09:11:52	120220	12022020	091152	186.01	12.729680	-57.147640	186.13	-0.470	0.950	2.270	186.02	-0.40	2.80	 	 	 	 	 	 	 	 	 	 	 	 	 	 	 	 	 	 	1581498712	6.97	12.91
12/02/2020 09:11:53	120220	12022020	091153	186.15	12.729647	-57.147647	186.30	-0.530	1.100	2.140	186.21	-0.30	2.60	 	 	 	 	 	 	 	 	 	 	 	 	 	 	 	 	 	 	1581498713	7.04	13.04
12/02/2020 09:11:54	120220	12022020	091154	186.60	12.729613	-57.147653	186.68	-0.280	0.680	1.750	186.60	-0.80	2.20	 	 	 	 	 	 	 	 	 	 	 	 	 	 	 	 	 	 	1581498714	7.52	13.93
12/02/2020 09:11:55	120220	12022020	091155	186.87	12.729577	-57.147660	186.96	0.230	-0.190	1.440	186.90	-1.70	1.90	 	 	 	 	 	 	 	 	 	 	 	 	 	 	 	 	 	 	1581498715	7.90	14.63
12/02/2020 09:11:56	120220	12022020	091156	186.88	12.729540	-57.147667	186.94	0.780	-1.120	1.460	186.88	-2.60	2.00	 	 	 	 	 	 	 	 	 	 	 	 	 	 	 	 	 	 	1581498716	8.21	15.20
12/02/2020 09:11:57	120220	12022020	091157	186.83	12.729502	-57.147672	186.89	0.900	-1.370	1.700	186.82	-2.70	2.20	 	 	 	 	 	 	 	 	 	 	 	 	 	 	 	 	 	 	1581498717	8.22	15.22
12/02/2020 09:11:58	120220	12022020	091158	186.83	12.729467	-57.147678	186.91	0.500	-0.780	1.850	186.83	-2.00	2.40	 	 	 	 	 	 	 	 	 	 	 	 	 	 	 	 	 	 	1581498718	7.48	13.85
12/02/2020 09:11:59	120220	12022020	091159	186.80	12.729437	-57.147683	186.86	-0.100	-0.050	1.940	186.78	-1.40	2.40	 	 	 	 	 	 	 	 	 	 	 	 	 	 	 	 	 	 	1581498719	6.64	12.30
12/02/2020 09:12:00	120220	12022020	091200	186.64	12.729407	-57.147692	186.66	-0.370	-0.060	2.070	186.59	-1.50	2.60	 	 	 	 	 	 	 	 	 	 	 	 	 	 	 	 	 	 	1581498720	6.83	12.65
12/02/2020 09:12:01	120220	12022020	091201	186.40	12.729370	-57.147700	186.42	-0.220	-0.530	2.110	186.35	-2.00	2.60	1014.90	26.10	26.20	20.50	20.50	-1.0	71.0	71.0	391.0	25.7	268.00	10.10	73.00	10.90	16	9912.0	27.4	27.4	1581498721	7.85	14.54
12/02/2020 09:12:02	120220	12022020	091202	186.30	12.729332	-57.147707	186.37	-0.010	-0.630	1.980	186.30	-2.00	2.40	 	 	 	 	 	 	 	 	 	 	 	 	 	 	 	 	 	 	1581498722	8.35	15.46
12/02/2020 09:12:03	120220	12022020	091203	186.47	12.729295	-57.147712	186.60	-0.110	-0.190	1.840	186.53	-1.50	2.30	 	 	 	 	 	 	 	 	 	 	 	 	 	 	 	 	 	 	1581498723	7.91	14.65
12/02/2020 09:12:04	120220	12022020	091204	186.77	12.729262	-57.147717	186.89	-0.540	0.270	1.950	186.82	-1.10	2.50	 	 	 	 	 	 	 	 	 	 	 	 	 	 	 	 	 	 	1581498724	7.30	13.52
12/02/2020 09:12:05	120220	12022020	091205	186.86	12.729230	-57.147727	186.91	-0.880	0.280	2.440	186.82	-1.10	3.00	 	 	 	 	 	 	 	 	 	 	 	 	 	 	 	 	 	 	1581498725	7.31	13.54
12/02/2020 09:12:06	120220	12022020	091206	186.51	12.729195	-57.147738	186.49	-0.700	-0.110	3.010	186.40	-1.50	3.60	 	 	 	 	 	 	 	 	 	 	 	 	 	 	 	 	 	 	1581498726	7.91	14.65
12/02/2020 09:12:07	120220	12022020	091207	186.02	12.729158	-57.147752	186.06	0.060	-0.340	3.090	185.97	-1.70	3.50	 	 	 	 	 	 	 	 	 	 	 	 	 	 	 	 	 	 	1581498727	8.35	15.46
12/02/2020 09:12:08	120220	12022020	091208	185.97	12.729122	-57.147760	186.12	0.870	-0.070	2.320	186.03	-1.40	2.60	 	 	 	 	 	 	 	 	 	 	 	 	 	 	 	 	 	 	1581498728	7.96	14.74
12/02/2020 09:12:09	120220	12022020	091209	186.38	12.729088	-57.147762	186.55	1.170	0.310	1.190	186.48	-1.00	1.50	 	 	 	 	 	 	 	 	 	 	 	 	 	 	 	 	 	 	1581498729	7.24	13.41
12/02/2020 09:12:10	120220	12022020	091210	186.96	12.729055	-57.147758	187.02	0.840	0.310	0.440	186.96	-1.10	0.90	 	 	 	 	 	 	 	 	 	 	 	 	 	 	 	 	 	 	1581498730	7.04	13.04
12/02/2020 09:12:11	120220	12022020	091211	187.15	12.729022	-57.147758	187.21	0.220	-0.200	0.470	187.15	-1.70	1.00	 	 	 	 	 	 	 	 	 	 	 	 	 	 	 	 	 	 	1581498731	7.16	13.26
12/02/2020 09:12:12	120220	12022020	091212	186.97	12.728987	-57.147763	186.95	-0.250	-1.040	1.310	186.88	-2.50	2.00	 	 	 	 	 	 	 	 	 	 	 	 	 	 	 	 	 	 	1581498732	7.55	13.98
12/02/2020 09:12:13	120220	12022020	091213	186.37	12.728952	-57.147775	186.31	-0.380	-1.850	2.590	186.21	-3.30	3.30	 	 	 	 	 	 	 	 	 	 	 	 	 	 	 	 	 	 	1581498733	8.19	15.17
12/02/2020 09:12:14	120220	12022020	091214	185.47	12.728913	-57.147790	185.61	-0.290	-2.090	3.760	185.47	-3.40	4.40	 	 	 	 	 	 	 	 	 	 	 	 	 	 	 	 	 	 	1581498734	8.70	16.11
12/02/2020 09:12:15	120220	12022020	091215	185.23	12.728877	-57.147805	185.37	-0.280	-1.250	4.110	185.24	-2.40	4.50	 	 	 	 	 	 	 	 	 	 	 	 	 	 	 	 	 	 	1581498735	8.49	15.72
12/02/2020 09:12:16	120220	12022020	091216	185.55	12.728845	-57.147815	185.85	-0.550	0.460	3.520	185.69	-0.60	3.90	 	 	 	 	 	 	 	 	 	 	 	 	 	 	 	 	 	 	1581498736	7.33	13.58
12/02/2020 09:12:17	120220	12022020	091217	186.35	12.728815	-57.147820	186.63	-0.850	1.860	2.450	186.52	0.60	2.80	 	 	 	 	 	 	 	 	 	 	 	 	 	 	 	 	 	 	1581498737	6.30	11.67
12/02/2020 09:12:18	120220	12022020	091218	187.12	12.728785	-57.147822	187.33	-0.720	1.830	1.390	187.24	0.30	1.80	 	 	 	 	 	 	 	 	 	 	 	 	 	 	 	 	 	 	1581498738	6.48	12.00
12/02/2020 09:12:19	120220	12022020	091219	187.60	12.728748	-57.147825	187.70	-0.010	0.450	0.730	187.64	-1.20	1.20	 	 	 	 	 	 	 	 	 	 	 	 	 	 	 	 	 	 	1581498739	7.80	14.45
12/02/2020 09:12:20	120220	12022020	091220	187.55	12.728708	-57.147828	187.53	0.890	-1.120	0.730	187.47	-2.60	1.30	 	 	 	 	 	 	 	 	 	 	 	 	 	 	 	 	 	 	1581498740	8.91	16.50
12/02/2020 09:12:21	120220	12022020	091221	187.10	12.728667	-57.147833	187.10	1.270	-1.510	1.140	187.02	-2.80	1.70	 	 	 	 	 	 	 	 	 	 	 	 	 	 	 	 	 	 	1581498741	8.90	16.48
12/02/2020 09:12:22	120220	12022020	091222	186.91	12.728632	-57.147838	187.00	0.740	-0.490	1.550	186.91	-1.70	2.10	 	 	 	 	 	 	 	 	 	 	 	 	 	 	 	 	 	 	1581498742	7.53	13.95
12/02/2020 09:12:23	120220	12022020	091223	187.10	12.728605	-57.147843	187.25	-0.220	0.690	1.800	187.16	-0.60	2.30	 	 	 	 	 	 	 	 	 	 	 	 	 	 	 	 	 	 	1581498743	6.05	11.20
12/02/2020 09:12:24	120220	12022020	091224	187.33	12.728578	-57.147852	187.42	-0.830	0.710	2.160	187.33	-0.80	2.70	 	 	 	 	 	 	 	 	 	 	 	 	 	 	 	 	 	 	1581498744	6.04	11.19
12/02/2020 09:12:25	120220	12022020	091225	187.22	12.728545	-57.147863	187.28	-0.690	-0.490	2.670	187.18	-2.10	3.20	 	 	 	 	 	 	 	 	 	 	 	 	 	 	 	 	 	 	1581498745	7.50	13.89
12/02/2020 09:12:26	120220	12022020	091226	187.01	12.728505	-57.147878	187.12	-0.060	-1.660	2.790	187.01	-3.10	3.20	 	 	 	 	 	 	 	 	 	 	 	 	 	 	 	 	 	 	1581498746	8.90	16.48
12/02/2020 09:12:27	120220	12022020	091227	187.15	12.728467	-57.147890	187.34	0.490	-1.470	2.230	187.22	-2.70	2.60	 	 	 	 	 	 	 	 	 	 	 	 	 	 	 	 	 	 	1581498747	8.72	16.15
12/02/2020 09:12:28	120220	12022020	091228	187.58	12.728433	-57.147895	187.75	0.570	-0.290	1.320	187.67	-1.50	1.70	 	 	 	 	 	 	 	 	 	 	 	 	 	 	 	 	 	 	1581498748	7.13	13.20
12/02/2020 09:12:29	120220	12022020	091229	187.90	12.728405	-57.147895	187.99	0.280	0.470	0.640	187.92	-0.90	1.10	 	 	 	 	 	 	 	 	 	 	 	 	 	 	 	 	 	 	1581498749	6.32	11.70
12/02/2020 09:12:30	120220	12022020	091230	187.80	12.728372	-57.147895	187.81	-0.060	0.190	0.680	187.74	-1.30	1.20	 	 	 	 	 	 	 	 	 	 	 	 	 	 	 	 	 	 	1581498750	6.98	12.93
12/02/2020 09:12:31	120220	12022020	091231	187.43	12.728335	-57.147900	187.46	-0.290	-0.440	1.280	187.37	-1.80	1.90	 	 	 	 	 	 	 	 	 	 	 	 	 	 	 	 	 	 	1581498751	8.10	15.00
12/02/2020 09:12:32	120220	12022020	091232	187.24	12.728297	-57.147910	187.34	-0.470	-0.400	1.940	187.24	-1.70	2.50	 	 	 	 	 	 	 	 	 	 	 	 	 	 	 	 	 	 	1581498752	8.42	15.59
12/02/2020 09:12:33	120220	12022020	091233	187.27	12.728263	-57.147920	187.38	-0.650	0.190	2.400	187.28	-1.10	2.90	 	 	 	 	 	 	 	 	 	 	 	 	 	 	 	 	 	 	1581498753	7.62	14.11
12/02/2020 09:12:34	120220	12022020	091234	187.22	12.728233	-57.147932	187.32	-0.640	0.450	2.650	187.22	-0.90	3.20	 	 	 	 	 	 	 	 	 	 	 	 	 	 	 	 	 	 	1581498754	6.99	12.95
12/02/2020 09:12:35	120220	12022020	091235	187.02	12.728200	-57.147942	187.05	-0.210	0.030	2.740	186.95	-1.40	3.20	 	 	 	 	 	 	 	 	 	 	 	 	 	 	 	 	 	 	1581498755	7.37	13.65
12/02/2020 09:12:36	120220	12022020	091236	186.55	12.728163	-57.147952	186.65	0.470	-0.590	2.640	186.55	-2.00	3.10	 	 	 	 	 	 	 	 	 	 	 	 	 	 	 	 	 	 	1581498756	8.01	14.83
12/02/2020 09:12:37	120220	12022020	091237	186.24	12.728127	-57.147957	186.28	0.920	-0.820	2.410	186.18	-2.20	2.90	 	 	 	 	 	 	 	 	 	 	 	 	 	 	 	 	 	 	1581498757	8.15	15.09
12/02/2020 09:12:38	120220	12022020	091238	186.16	12.728090	-57.147962	186.26	0.800	-0.420	2.100	186.16	-1.70	2.50	 	 	 	 	 	 	 	 	 	 	 	 	 	 	 	 	 	 	1581498758	7.72	14.30
12/02/2020 09:12:39	120220	12022020	091239	186.50	12.728058	-57.147965	186.69	0.210	0.430	1.760	186.61	-0.80	2.20	 	 	 	 	 	 	 	 	 	 	 	 	 	 	 	 	 	 	1581498759	6.91	12.80
12/02/2020 09:12:40	120220	12022020	091240	187.11	12.728030	-57.147970	187.18	-0.410	0.930	1.620	187.11	-0.50	2.10	 	 	 	 	 	 	 	 	 	 	 	 	 	 	 	 	 	 	1581498760	6.24	11.56
12/02/2020 09:12:41	120220	12022020	091241	187.20	12.728000	-57.147977	187.27	-0.540	0.250	1.840	187.19	-1.30	2.40	 	 	 	 	 	 	 	 	 	 	 	 	 	 	 	 	 	 	1581498761	6.61	12.24
12/02/2020 09:12:42	120220	12022020	091242	187.11	12.727965	-57.147987	187.19	-0.180	-1.100	2.050	187.10	-2.60	2.60	 	 	 	 	 	 	 	 	 	 	 	 	 	 	 	 	 	 	1581498762	7.99	14.80
12/02/2020 09:12:43	120220	12022020	091243	187.02	12.727925	-57.147997	187.08	0.330	-1.930	2.250	186.99	-3.30	2.80	 	 	 	 	 	 	 	 	 	 	 	 	 	 	 	 	 	 	1581498763	8.67	16.06
12/02/2020 09:12:44	120220	12022020	091244	186.76	12.727888	-57.148007	186.78	0.640	-1.720	2.400	186.69	-3.00	2.90	 	 	 	 	 	 	 	 	 	 	 	 	 	 	 	 	 	 	1581498764	8.14	15.08
12/02/2020 09:12:45	120220	12022020	091245	186.38	12.727855	-57.148013	186.41	0.600	-0.800	2.270	186.32	-2.00	2.70	 	 	 	 	 	 	 	 	 	 	 	 	 	 	 	 	 	 	1581498765	7.30	13.52
12/02/2020 09:12:46	120220	12022020	091246	186.28	12.727823	-57.148015	186.39	0.150	0.400	1.870	186.31	-0.80	2.30	 	 	 	 	 	 	 	 	 	 	 	 	 	 	 	 	 	 	1581498766	6.91	12.80
12/02/2020 09:12:47	120220	12022020	091247	186.55	12.727792	-57.148017	186.69	-0.510	1.300	1.630	186.63	-0.00	2.10	 	 	 	 	 	 	 	 	 	 	 	 	 	 	 	 	 	 	1581498767	6.70	12.41
12/02/2020 09:12:48	120220	12022020	091248	186.95	12.727760	-57.148022	187.02	-0.910	1.290	1.750	186.95	-0.20	2.30	 	 	 	 	 	 	 	 	 	 	 	 	 	 	 	 	 	 	1581498768	6.90	12.78
12/02/2020 09:12:49	120220	12022020	091249	187.07	12.727725	-57.148032	187.17	-0.800	0.420	2.050	187.09	-1.10	2.50	 	 	 	 	 	 	 	 	 	 	 	 	 	 	 	 	 	 	1581498769	7.73	14.32
12/02/2020 09:12:50	120220	12022020	091250	187.19	12.727688	-57.148042	187.27	-0.320	-0.580	2.240	187.19	-2.10	2.70	 	 	 	 	 	 	 	 	 	 	 	 	 	 	 	 	 	 	1581498770	8.43	15.61
12/02/2020 09:12:51	120220	12022020	091251	187.24	12.727652	-57.148053	187.34	0.110	-0.990	2.390	187.24	-2.40	2.90	 	 	 	 	 	 	 	 	 	 	 	 	 	 	 	 	 	 	1581498771	8.30	15.37
12/02/2020 09:12:52	120220	12022020	091252	187.10	12.727617	-57.148062	187.20	0.350	-0.790	2.350	187.10	-2.10	2.80	 	 	 	 	 	 	 	 	 	 	 	 	 	 	 	 	 	 	1581498772	7.50	13.89
12/02/2020 09:12:53	120220	12022020	091253	186.80	12.727587	-57.148070	186.81	0.550	-0.550	2.030	186.71	-1.90	2.50	 	 	 	 	 	 	 	 	 	 	 	 	 	 	 	 	 	 	1581498773	6.92	12.82
12/02/2020 09:12:54	120220	12022020	091254	186.37	12.727553	-57.148073	186.47	0.700	-0.400	1.680	186.37	-1.70	2.10	 	 	 	 	 	 	 	 	 	 	 	 	 	 	 	 	 	 	1581498774	7.11	13.17
12/02/2020 09:12:55	120220	12022020	091255	186.27	12.727518	-57.148077	186.36	0.630	-0.240	1.450	186.28	-1.60	1.90	 	 	 	 	 	 	 	 	 	 	 	 	 	 	 	 	 	 	1581498775	7.37	13.65
12/02/2020 09:12:56	120220	12022020	091256	186.42	12.727485	-57.148080	186.55	0.320	-0.030	1.190	186.48	-1.40	1.60	 	 	 	 	 	 	 	 	 	 	 	 	 	 	 	 	 	 	1581498776	7.39	13.69
12/02/2020 09:12:57	120220	12022020	091257	186.74	12.727452	-57.148083	186.87	-0.080	0.080	1.180	186.81	-1.30	1.70	 	 	 	 	 	 	 	 	 	 	 	 	 	 	 	 	 	 	1581498777	7.32	13.56
12/02/2020 09:12:58	120220	12022020	091258	187.09	12.727417	-57.148090	187.23	-0.360	-0.020	1.560	187.16	-1.40	2.10	 	 	 	 	 	 	 	 	 	 	 	 	 	 	 	 	 	 	1581498778	7.43	13.76
12/02/2020 09:12:59	120220	12022020	091259	187.43	12.727383	-57.148100	187.58	-0.510	-0.200	2.090	187.50	-1.60	2.60	 	 	 	 	 	 	 	 	 	 	 	 	 	 	 	 	 	 	1581498779	7.65	14.17
12/02/2020 09:13:00	120220	12022020	091300	187.69	12.727348	-57.148112	187.79	-0.570	-0.390	2.510	187.69	-1.80	3.00	 	 	 	 	 	 	 	 	 	 	 	 	 	 	 	 	 	 	1581498780	7.67	14.20
12/02/2020 09:13:01	120220	12022020	091301	187.55	12.727315	-57.148123	187.58	-0.420	-0.680	2.810	187.46	-2.10	3.30	1015.00	26.20	26.20	20.60	20.70	-1.0	71.0	71.0	391.0	25.7	267.00	10.70	75.00	11.50	16	9318.0	27.5	27.5	1581498781	7.64	14.15
12/02/2020 09:13:02	120220	12022020	091302	186.96	12.727280	-57.148133	186.95	-0.080	-0.980	3.100	186.82	-2.40	3.60	 	 	 	 	 	 	 	 	 	 	 	 	 	 	 	 	 	 	1581498782	7.86	14.56
12/02/2020 09:13:03	120220	12022020	091303	186.35	12.727243	-57.148142	186.40	0.250	-0.850	3.100	186.27	-2.10	3.50	 	 	 	 	 	 	 	 	 	 	 	 	 	 	 	 	 	 	1581498783	8.06	14.93
12/02/2020 09:13:04	120220	12022020	091304	186.18	12.727208	-57.148148	186.34	0.350	-0.060	2.560	186.22	-1.30	2.90	 	 	 	 	 	 	 	 	 	 	 	 	 	 	 	 	 	 	1581498784	7.69	14.24
12/02/2020 09:13:05	120220	12022020	091305	186.51	12.727175	-57.148150	186.69	0.130	0.830	1.770	186.60	-0.50	2.10	 	 	 	 	 	 	 	 	 	 	 	 	 	 	 	 	 	 	1581498785	6.96	12.89
12/02/2020 09:13:06	120220	12022020	091306	186.97	12.727145	-57.148152	187.04	-0.160	0.950	1.240	186.97	-0.50	1.70	 	 	 	 	 	 	 	 	 	 	 	 	 	 	 	 	 	 	1581498786	6.76	12.52
12/02/2020 09:13:07	120220	12022020	091307	187.13	12.727110	-57.148157	187.23	-0.190	0.260	1.140	187.16	-1.20	1.60	 	 	 	 	 	 	 	 	 	 	 	 	 	 	 	 	 	 	1581498787	7.46	13.82
12/02/2020 09:13:08	120220	12022020	091308	187.34	12.727073	-57.148163	187.45	0.070	-0.460	1.100	187.38	-1.90	1.60	 	 	 	 	 	 	 	 	 	 	 	 	 	 	 	 	 	 	1581498788	8.13	15.06
12/02/2020 09:13:09	120220	12022020	091309	187.49	12.727037	-57.148170	187.53	0.360	-0.870	1.250	187.47	-2.30	1.80	 	 	 	 	 	 	 	 	 	 	 	 	 	 	 	 	 	 	1581498789	7.92	14.67
12/02/2020 09:13:10	120220	12022020	091310	187.15	12.727002	-57.148177	187.10	0.410	-1.230	1.910	187.01	-2.70	2.50	 	 	 	 	 	 	 	 	 	 	 	 	 	 	 	 	 	 	1581498790	7.58	14.04
12/02/2020 09:13:11	120220	12022020	091311	186.34	12.726967	-57.148187	186.29	0.180	-1.410	2.850	186.17	-2.80	3.40	 	 	 	 	 	 	 	 	 	 	 	 	 	 	 	 	 	 	1581498791	7.84	14.52
12/02/2020 09:13:12	120220	12022020	091312	185.59	12.726932	-57.148198	185.60	-0.200	-0.950	3.640	185.47	-2.20	4.20	 	 	 	 	 	 	 	 	 	 	 	 	 	 	 	 	 	 	1581498792	8.08	14.96
12/02/2020 09:13:13	120220	12022020	091313	185.24	12.726898	-57.148212	185.40	-0.460	0.190	3.880	185.25	-1.00	4.30	 	 	 	 	 	 	 	 	 	 	 	 	 	 	 	 	 	 	1581498793	7.77	14.39
12/02/2020 09:13:14	120220	12022020	091314	185.78	12.726867	-57.148223	185.91	-0.530	1.400	3.170	185.78	0.10	3.50	 	 	 	 	 	 	 	 	 	 	 	 	 	 	 	 	 	 	1581498794	6.95	12.87
12/02/2020 09:13:15	120220	12022020	091315	186.54	12.726837	-57.148227	186.84	-0.480	1.720	1.960	186.74	0.20	2.30	 	 	 	 	 	 	 	 	 	 	 	 	 	 	 	 	 	 	1581498795	6.48	12.00
12/02/2020 09:13:16	120220	12022020	091316	187.45	12.726803	-57.148228	187.53	-0.180	0.610	1.010	187.45	-1.10	1.40	 	 	 	 	 	 	 	 	 	 	 	 	 	 	 	 	 	 	1581498796	7.12	13.19
12/02/2020 09:13:17	120220	12022020	091317	187.55	12.726765	-57.148232	187.58	0.460	-1.290	0.680	187.50	-2.90	1.20	 	 	 	 	 	 	 	 	 	 	 	 	 	 	 	 	 	 	1581498797	8.37	15.50
12/02/2020 09:13:18	120220	12022020	091318	186.97	12.726723	-57.148237	187.05	1.120	-2.430	0.950	186.97	-3.80	1.50	 	 	 	 	 	 	 	 	 	 	 	 	 	 	 	 	 	 	1581498798	9.09	16.83
12/02/2020 09:13:19	120220	12022020	091319	186.44	12.726685	-57.148240	186.44	1.160	-1.910	1.440	186.35	-3.10	2.00	 	 	 	 	 	 	 	 	 	 	 	 	 	 	 	 	 	 	1581498799	8.37	15.50
12/02/2020 09:13:20	120220	12022020	091320	186.24	12.726653	-57.148245	186.38	0.330	-0.300	1.760	186.28	-1.50	2.30	 	 	 	 	 	 	 	 	 	 	 	 	 	 	 	 	 	 	1581498800	6.92	12.82
12/02/2020 09:13:21	120220	12022020	091321	186.59	12.726625	-57.148250	186.75	-0.840	1.010	2.030	186.66	-0.30	2.60	 	 	 	 	 	 	 	 	 	 	 	 	 	 	 	 	 	 	1581498801	6.03	11.17
12/02/2020 09:13:22	120220	12022020	091322	186.84	12.726597	-57.148262	186.92	-1.440	1.020	2.600	186.84	-0.50	3.20	 	 	 	 	 	 	 	 	 	 	 	 	 	 	 	 	 	 	1581498802	6.61	12.24
12/02/2020 09:13:23	120220	12022020	091323	186.67	12.726562	-57.148277	186.70	-1.000	-0.090	3.210	186.60	-1.70	3.70	 	 	 	 	 	 	 	 	 	 	 	 	 	 	 	 	 	 	1581498803	8.20	15.19
12/02/2020 09:13:24	120220	12022020	091324	186.25	12.726520	-57.148292	186.37	-0.050	-0.910	3.400	186.25	-2.30	3.90	 	 	 	 	 	 	 	 	 	 	 	 	 	 	 	 	 	 	1581498804	9.22	17.08
12/02/2020 09:13:25	120220	12022020	091325	186.17	12.726482	-57.148300	186.30	0.510	-0.670	3.100	186.18	-2.00	3.50	 	 	 	 	 	 	 	 	 	 	 	 	 	 	 	 	 	 	1581498805	8.61	15.95
12/02/2020 09:13:26	120220	12022020	091326	186.45	12.726448	-57.148303	186.55	0.290	0.080	2.490	186.45	-1.20	2.90	 	 	 	 	 	 	 	 	 	 	 	 	 	 	 	 	 	 	1581498806	7.34	13.59
12/02/2020 09:13:27	120220	12022020	091327	186.82	12.726417	-57.148307	186.98	-0.260	0.570	1.860	186.91	-0.80	2.30	 	 	 	 	 	 	 	 	 	 	 	 	 	 	 	 	 	 	1581498807	6.73	12.46
12/02/2020 09:13:28	120220	12022020	091328	187.20	12.726385	-57.148313	187.27	-0.390	0.410	1.470	187.20	-1.10	1.90	 	 	 	 	 	 	 	 	 	 	 	 	 	 	 	 	 	 	1581498808	6.90	12.78
12/02/2020 09:13:29	120220	12022020	091329	187.26	12.726350	-57.148320	187.32	0.170	-0.290	1.180	187.26	-1.80	1.60	 	 	 	 	 	 	 	 	 	 	 	 	 	 	 	 	 	 	1581498809	7.57	14.02
12/02/2020 09:13:30	120220	12022020	091330	187.18	12.726313	-57.148325	187.21	0.880	-0.930	0.990	187.15	-2.40	1.50	 	 	 	 	 	 	 	 	 	 	 	 	 	 	 	 	 	 	1581498810	8.06	14.93
12/02/2020 09:13:31	120220	12022020	091331	186.98	12.726277	-57.148328	186.99	1.060	-1.070	1.110	186.92	-2.40	1.70	 	 	 	 	 	 	 	 	 	 	 	 	 	 	 	 	 	 	1581498811	8.00	14.82
12/02/2020 09:13:32	120220	12022020	091332	186.66	12.726242	-57.148332	186.67	0.550	-0.770	1.490	186.60	-2.10	2.00	 	 	 	 	 	 	 	 	 	 	 	 	 	 	 	 	 	 	1581498812	7.53	13.95
12/02/2020 09:13:33	120220	12022020	091333	186.43	12.726208	-57.148337	186.49	-0.260	-0.210	1.860	186.42	-1.50	2.40	 	 	 	 	 	 	 	 	 	 	 	 	 	 	 	 	 	 	1581498813	7.29	13.50
12/02/2020 09:13:34	120220	12022020	091334	186.42	12.726177	-57.148347	186.51	-0.860	0.270	2.190	186.44	-1.10	2.70	 	 	 	 	 	 	 	 	 	 	 	 	 	 	 	 	 	 	1581498814	7.23	13.39
12/02/2020 09:13:35	120220	12022020	091335	186.55	12.726143	-57.148358	186.66	-0.930	0.360	2.480	186.58	-1.10	3.00	 	 	 	 	 	 	 	 	 	 	 	 	 	 	 	 	 	 	1581498815	7.51	13.91
12/02/2020 09:13:36	120220	12022020	091336	186.65	12.726108	-57.148372	186.74	-0.590	0.090	2.710	186.65	-1.40	3.20	 	 	 	 	 	 	 	 	 	 	 	 	 	 	 	 	 	 	1581498816	7.87	14.58
12/02/2020 09:13:37	120220	12022020	091337	186.54	12.726073	-57.148382	186.58	-0.130	-0.280	2.820	186.48	-1.70	3.30	 	 	 	 	 	 	 	 	 	 	 	 	 	 	 	 	 	 	1581498817	8.05	14.91
12/02/2020 09:13:38	120220	12022020	091338	186.13	12.726037	-57.148392	186.22	0.300	-0.530	2.670	186.13	-1.90	3.10	 	 	 	 	 	 	 	 	 	 	 	 	 	 	 	 	 	 	1581498818	8.02	14.85
12/02/2020 09:13:39	120220	12022020	091339	185.97	12.726000	-57.148397	186.05	0.640	-0.490	2.140	185.96	-1.90	2.50	 	 	 	 	 	 	 	 	 	 	 	 	 	 	 	 	 	 	1581498819	7.84	14.52
12/02/2020 09:13:40	120220	12022020	091340	186.06	12.725965	-57.148398	186.17	0.760	-0.240	1.420	186.10	-1.60	1.80	 	 	 	 	 	 	 	 	 	 	 	 	 	 	 	 	 	 	1581498820	7.52	13.93
12/02/2020 09:13:41	120220	12022020	091341	186.25	12.725932	-57.148398	186.31	0.600	-0.100	0.870	186.27	-1.50	1.30	 	 	 	 	 	 	 	 	 	 	 	 	 	 	 	 	 	 	1581498821	7.28	13.48
12/02/2020 09:13:42	120220	12022020	091342	186.30	12.725897	-57.148400	186.33	0.190	-0.220	0.760	186.29	-1.60	1.30	 	 	 	 	 	 	 	 	 	 	 	 	 	 	 	 	 	 	1581498822	7.38	13.67
12/02/2020 09:13:43	120220	12022020	091343	186.21	12.725862	-57.148403	186.23	-0.380	-0.450	1.220	186.19	-1.90	1.80	 	 	 	 	 	 	 	 	 	 	 	 	 	 	 	 	 	 	1581498823	7.62	14.11
12/02/2020 09:13:44	120220	12022020	091344	186.09	12.725827	-57.148413	186.14	-0.800	-0.640	1.990	186.08	-2.00	2.60	 	 	 	 	 	 	 	 	 	 	 	 	 	 	 	 	 	 	1581498824	7.85	14.54
12/02/2020 09:13:45	120220	12022020	091345	186.01	12.725792	-57.148428	186.04	-0.790	-0.670	2.620	185.98	-2.00	3.20	 	 	 	 	 	 	 	 	 	 	 	 	 	 	 	 	 	 	1581498825	8.08	14.96
12/02/2020 09:13:46	120220	12022020	091346	185.79	12.725757	-57.148442	185.81	-0.280	-0.540	2.920	185.74	-1.90	3.40	 	 	 	 	 	 	 	 	 	 	 	 	 	 	 	 	 	 	1581498826	8.06	14.93
12/02/2020 09:13:47	120220	12022020	091347	185.68	12.725722	-57.148450	185.78	0.240	-0.140	2.690	185.71	-1.50	3.10	 	 	 	 	 	 	 	 	 	 	 	 	 	 	 	 	 	 	1581498827	7.91	14.65
12/02/2020 09:13:48	120220	12022020	091348	186.08	12.725687	-57.148455	186.13	0.290	0.380	2.290	186.08	-1.00	2.70	 	 	 	 	 	 	 	 	 	 	 	 	 	 	 	 	 	 	1581498828	7.52	13.93
12/02/2020 09:13:49	120220	12022020	091349	186.33	12.725653	-57.148458	186.40	0.040	0.570	1.830	186.35	-0.80	2.30	 	 	 	 	 	 	 	 	 	 	 	 	 	 	 	 	 	 	1581498829	7.19	13.32
12/02/2020 09:13:50	120220	12022020	091350	186.34	12.725618	-57.148462	186.38	0.020	0.220	1.490	186.33	-1.20	2.00	 	 	 	 	 	 	 	 	 	 	 	 	 	 	 	 	 	 	1581498830	7.42	13.74
12/02/2020 09:13:51	120220	12022020	091351	186.46	12.725583	-57.148465	186.57	0.220	-0.110	1.170	186.53	-1.50	1.60	 	 	 	 	 	 	 	 	 	 	 	 	 	 	 	 	 	 	1581498831	7.92	14.67
12/02/2020 09:13:52	120220	12022020	091352	186.90	12.725547	-57.148470	187.01	0.360	-0.110	0.870	186.99	-1.50	1.40	 	 	 	 	 	 	 	 	 	 	 	 	 	 	 	 	 	 	1581498832	7.64	14.15
12/02/2020 09:13:53	120220	12022020	091353	187.19	12.725515	-57.148475	187.20	0.320	-0.320	0.960	187.18	-1.80	1.50	 	 	 	 	 	 	 	 	 	 	 	 	 	 	 	 	 	 	1581498833	7.09	13.13
12/02/2020 09:13:54	120220	12022020	091354	186.93	12.725482	-57.148482	186.86	0.210	-1.040	1.710	186.82	-2.50	2.40	 	 	 	 	 	 	 	 	 	 	 	 	 	 	 	 	 	 	1581498834	7.39	13.69
12/02/2020 09:13:55	120220	12022020	091355	186.26	12.725443	-57.148490	186.18	0.080	-1.690	2.890	186.10	-3.10	3.60	 	 	 	 	 	 	 	 	 	 	 	 	 	 	 	 	 	 	1581498835	8.21	15.20
12/02/2020 09:13:56	120220	12022020	091356	185.39	12.725407	-57.148503	185.49	-0.120	-1.560	3.970	185.39	-2.80	4.60	 	 	 	 	 	 	 	 	 	 	 	 	 	 	 	 	 	 	1581498836	8.50	15.74
12/02/2020 09:13:57	120220	12022020	091357	185.09	12.725372	-57.148517	185.19	-0.360	-0.620	4.370	185.07	-1.80	4.80	 	 	 	 	 	 	 	 	 	 	 	 	 	 	 	 	 	 	1581498837	8.07	14.95
12/02/2020 09:13:58	120220	12022020	091358	185.16	12.725338	-57.148528	185.32	-0.500	0.520	3.940	185.23	-0.70	4.30	 	 	 	 	 	 	 	 	 	 	 	 	 	 	 	 	 	 	1581498838	7.37	13.65
12/02/2020 09:13:59	120220	12022020	091359	185.58	12.725307	-57.148535	185.77	-0.390	1.190	2.810	185.69	-0.10	3.10	 	 	 	 	 	 	 	 	 	 	 	 	 	 	 	 	 	 	1581498839	7.07	13.09
12/02/2020 09:14:00	120220	12022020	091400	186.29	12.725272	-57.148538	186.51	-0.110	1.220	1.330	186.46	-0.20	1.60	 	 	 	 	 	 	 	 	 	 	 	 	 	 	 	 	 	 	1581498840	7.38	13.67
12/02/2020 09:14:01	120220	12022020	091401	187.22	12.725237	-57.148537	187.42	0.090	0.810	-0.030	187.40	-0.70	0.40	1015.00	26.10	26.20	20.50	20.50	-1.0	71.0	71.0	391.0	25.7	270.00	10.10	75.00	10.90	16	9986.0	27.5	27.4	1581498841	7.74	14.33
12/02/2020 09:14:02	120220	12022020	091402	188.03	12.725200	-57.148535	188.04	0.130	-0.020	-0.550	188.03	-1.60	-0.00	 	 	 	 	 	 	 	 	 	 	 	 	 	 	 	 	 	 	1581498842	7.74	14.33
12/02/2020 09:14:03	120220	12022020	091403	187.98	12.725165	-57.148538	187.93	0.180	-1.250	0.030	187.89	-2.80	0.70	 	 	 	 	 	 	 	 	 	 	 	 	 	 	 	 	 	 	1581498843	7.83	14.50
12/02/2020 09:14:04	120220	12022020	091404	187.20	12.725127	-57.148545	187.27	0.300	-2.150	1.340	187.20	-3.60	2.00	 	 	 	 	 	 	 	 	 	 	 	 	 	 	 	 	 	 	1581498844	8.30	15.37
12/02/2020 09:14:05	120220	12022020	091405	186.57	12.725090	-57.148557	186.52	0.350	-1.940	2.750	186.43	-3.20	3.40	 	 	 	 	 	 	 	 	 	 	 	 	 	 	 	 	 	 	1581498845	8.33	15.43
12/02/2020 09:14:06	120220	12022020	091406	185.93	12.725055	-57.148570	186.03	0.190	-0.840	3.590	185.93	-2.00	4.10	 	 	 	 	 	 	 	 	 	 	 	 	 	 	 	 	 	 	1581498846	7.65	14.17
12/02/2020 09:14:07	120220	12022020	091407	185.80	12.725025	-57.148580	185.91	-0.100	0.310	3.570	185.82	-0.90	4.00	 	 	 	 	 	 	 	 	 	 	 	 	 	 	 	 	 	 	1581498847	7.08	13.11
12/02/2020 09:14:08	120220	12022020	091408	186.21	12.724992	-57.148587	186.29	-0.370	1.060	2.790	186.21	-0.20	3.10	 	 	 	 	 	 	 	 	 	 	 	 	 	 	 	 	 	 	1581498848	7.09	13.13
12/02/2020 09:14:09	120220	12022020	091409	186.71	12.724958	-57.148590	186.90	-0.480	1.270	1.770	186.83	-0.10	2.10	 	 	 	 	 	 	 	 	 	 	 	 	 	 	 	 	 	 	1581498849	7.25	13.43
12/02/2020 09:14:10	120220	12022020	091410	187.21	12.724923	-57.148593	187.28	-0.380	0.730	1.160	187.21	-0.80	1.60	 	 	 	 	 	 	 	 	 	 	 	 	 	 	 	 	 	 	1581498850	7.46	13.82
12/02/2020 09:14:11	120220	12022020	091411	187.19	12.724887	-57.148598	187.22	-0.120	-0.370	1.070	187.16	-1.90	1.60	 	 	 	 	 	 	 	 	 	 	 	 	 	 	 	 	 	 	1581498851	8.04	14.89
12/02/2020 09:14:12	120220	12022020	091412	187.02	12.724848	-57.148605	187.07	0.140	-1.100	1.270	187.02	-2.50	1.80	 	 	 	 	 	 	 	 	 	 	 	 	 	 	 	 	 	 	1581498852	8.49	15.72
12/02/2020 09:14:13	120220	12022020	091413	187.04	12.724812	-57.148615	187.14	0.300	-0.930	1.470	187.08	-2.20	2.00	 	 	 	 	 	 	 	 	 	 	 	 	 	 	 	 	 	 	1581498853	8.01	14.83
12/02/2020 09:14:14	120220	12022020	091414	187.30	12.724780	-57.148623	187.36	0.330	-0.340	1.400	187.30	-1.70	1.90	 	 	 	 	 	 	 	 	 	 	 	 	 	 	 	 	 	 	1581498854	7.08	13.11
12/02/2020 09:14:15	120220	12022020	091415	187.35	12.724750	-57.148628	187.38	0.340	-0.160	1.330	187.32	-1.60	1.80	 	 	 	 	 	 	 	 	 	 	 	 	 	 	 	 	 	 	1581498855	6.75	12.50
12/02/2020 09:14:16	120220	12022020	091416	187.09	12.724715	-57.148633	187.16	0.340	-0.570	1.480	187.09	-2.00	2.00	 	 	 	 	 	 	 	 	 	 	 	 	 	 	 	 	 	 	1581498856	7.44	13.78
12/02/2020 09:14:17	120220	12022020	091417	187.04	12.724677	-57.148638	187.12	0.160	-0.800	1.800	187.05	-2.20	2.30	 	 	 	 	 	 	 	 	 	 	 	 	 	 	 	 	 	 	1581498857	8.21	15.20
12/02/2020 09:14:18	120220	12022020	091418	187.19	12.724642	-57.148647	187.24	-0.240	-0.450	2.140	187.19	-1.80	2.70	 	 	 	 	 	 	 	 	 	 	 	 	 	 	 	 	 	 	1581498858	7.94	14.70
12/02/2020 09:14:19	120220	12022020	091419	187.20	12.724608	-57.148655	187.24	-0.590	-0.050	2.440	187.18	-1.40	3.00	 	 	 	 	 	 	 	 	 	 	 	 	 	 	 	 	 	 	1581498859	7.37	13.65
12/02/2020 09:14:20	120220	12022020	091420	187.14	12.724573	-57.148663	187.21	-0.680	0.080	2.640	187.14	-1.30	3.10	 	 	 	 	 	 	 	 	 	 	 	 	 	 	 	 	 	 	1581498860	7.50	13.89
12/02/2020 09:14:21	120220	12022020	091421	187.20	12.724538	-57.148673	187.30	-0.550	0.170	2.660	187.22	-1.20	3.10	 	 	 	 	 	 	 	 	 	 	 	 	 	 	 	 	 	 	1581498861	7.80	14.45
12/02/2020 09:14:22	120220	12022020	091422	187.27	12.724505	-57.148682	187.35	-0.240	0.210	2.390	187.27	-1.20	2.80	 	 	 	 	 	 	 	 	 	 	 	 	 	 	 	 	 	 	1581498862	7.68	14.22
12/02/2020 09:14:23	120220	12022020	091423	187.21	12.724470	-57.148688	187.25	0.240	0.020	1.960	187.18	-1.40	2.40	 	 	 	 	 	 	 	 	 	 	 	 	 	 	 	 	 	 	1581498863	7.62	14.11
12/02/2020 09:14:24	120220	12022020	091424	187.09	12.724433	-57.148693	187.16	0.680	-0.200	1.450	187.08	-1.60	1.90	 	 	 	 	 	 	 	 	 	 	 	 	 	 	 	 	 	 	1581498864	7.80	14.45
12/02/2020 09:14:25	120220	12022020	091425	187.08	12.724397	-57.148695	187.15	0.760	-0.340	1.190	187.08	-1.80	1.70	 	 	 	 	 	 	 	 	 	 	 	 	 	 	 	 	 	 	1581498865	7.78	14.41
12/02/2020 09:14:26	120220	12022020	091426	186.98	12.724362	-57.148698	187.06	0.400	-0.470	1.490	186.98	-1.90	2.10	 	 	 	 	 	 	 	 	 	 	 	 	 	 	 	 	 	 	1581498866	7.62	14.11
12/02/2020 09:14:27	120220	12022020	091427	186.77	12.724327	-57.148707	186.81	-0.080	-0.570	2.160	186.71	-2.00	2.70	 	 	 	 	 	 	 	 	 	 	 	 	 	 	 	 	 	 	1581498867	7.67	14.20
12/02/2020 09:14:28	120220	12022020	091428	186.52	12.724293	-57.148718	186.62	-0.310	-0.480	2.630	186.52	-1.80	3.10	 	 	 	 	 	 	 	 	 	 	 	 	 	 	 	 	 	 	1581498868	7.84	14.52
12/02/2020 09:14:29	120220	12022020	091429	186.58	12.724258	-57.148728	186.72	-0.300	-0.200	2.620	186.62	-1.60	3.10	 	 	 	 	 	 	 	 	 	 	 	 	 	 	 	 	 	 	1581498869	7.67	14.20
12/02/2020 09:14:30	120220	12022020	091430	186.75	12.724225	-57.148737	186.83	-0.170	-0.130	2.340	186.75	-1.50	2.80	 	 	 	 	 	 	 	 	 	 	 	 	 	 	 	 	 	 	1581498870	7.43	13.76
12/02/2020 09:14:31	120220	12022020	091431	186.74	12.724190	-57.148743	186.80	-0.040	-0.330	2.040	186.74	-1.70	2.50	 	 	 	 	 	 	 	 	 	 	 	 	 	 	 	 	 	 	1581498871	7.66	14.19
12/02/2020 09:14:32	120220	12022020	091432	186.93	12.724153	-57.148748	186.99	-0.020	-0.270	1.550	186.93	-1.60	2.00	 	 	 	 	 	 	 	 	 	 	 	 	 	 	 	 	 	 	1581498872	7.94	14.70
12/02/2020 09:14:33	120220	12022020	091433	187.31	12.724118	-57.148752	187.45	-0.110	0.050	1.030	187.41	-1.30	1.50	 	 	 	 	 	 	 	 	 	 	 	 	 	 	 	 	 	 	1581498873	7.51	13.91
12/02/2020 09:14:34	120220	12022020	091434	187.68	12.724085	-57.148757	187.72	-0.110	-0.070	0.890	187.68	-1.50	1.40	 	 	 	 	 	 	 	 	 	 	 	 	 	 	 	 	 	 	1581498874	7.18	13.30
12/02/2020 09:14:35	120220	12022020	091435	187.50	12.724050	-57.148762	187.45	0.120	-0.750	1.410	187.40	-2.20	2.00	 	 	 	 	 	 	 	 	 	 	 	 	 	 	 	 	 	 	1581498875	7.77	14.39
12/02/2020 09:14:36	120220	12022020	091436	186.80	12.724012	-57.148770	186.71	0.390	-1.220	2.420	186.64	-2.60	3.00	 	 	 	 	 	 	 	 	 	 	 	 	 	 	 	 	 	 	1581498876	8.51	15.76
12/02/2020 09:14:37	120220	12022020	091437	186.06	12.723973	-57.148780	186.04	0.410	-0.740	3.250	185.96	-2.00	3.80	 	 	 	 	 	 	 	 	 	 	 	 	 	 	 	 	 	 	1581498877	8.48	15.70
12/02/2020 09:14:38	120220	12022020	091438	185.82	12.723938	-57.148790	185.92	0.110	0.450	3.420	185.82	-0.80	3.90	 	 	 	 	 	 	 	 	 	 	 	 	 	 	 	 	 	 	1581498878	7.59	14.06
12/02/2020 09:14:39	120220	12022020	091439	186.16	12.723908	-57.148797	186.38	-0.340	1.330	2.940	186.29	-0.00	3.30	 	 	 	 	 	 	 	 	 	 	 	 	 	 	 	 	 	 	1581498879	6.78	12.56
12/02/2020 09:14:40	120220	12022020	091440	186.90	12.723877	-57.148802	186.98	-0.590	1.060	2.250	186.90	-0.40	2.60	 	 	 	 	 	 	 	 	 	 	 	 	 	 	 	 	 	 	1581498880	6.92	12.82
12/02/2020 09:14:41	120220	12022020	091441	187.27	12.723840	-57.148808	187.41	-0.430	-0.120	1.690	187.34	-1.70	2.10	 	 	 	 	 	 	 	 	 	 	 	 	 	 	 	 	 	 	1581498881	7.87	14.58
12/02/2020 09:14:42	120220	12022020	091442	187.43	12.723802	-57.148815	187.47	0.020	-1.310	1.480	187.41	-2.80	2.00	 	 	 	 	 	 	 	 	 	 	 	 	 	 	 	 	 	 	1581498882	8.54	15.82
12/02/2020 09:14:43	120220	12022020	091443	187.13	12.723762	-57.148822	187.07	0.470	-1.840	1.630	187.02	-3.20	2.20	 	 	 	 	 	 	 	 	 	 	 	 	 	 	 	 	 	 	1581498883	8.45	15.65
12/02/2020 09:14:44	120220	12022020	091444	186.65	12.723725	-57.148828	186.63	0.540	-1.450	1.820	186.58	-2.70	2.30	 	 	 	 	 	 	 	 	 	 	 	 	 	 	 	 	 	 	1581498884	7.99	14.80
12/02/2020 09:14:45	120220	12022020	091445	186.43	12.723692	-57.148835	186.49	0.230	-0.530	1.930	186.43	-1.80	2.40	 	 	 	 	 	 	 	 	 	 	 	 	 	 	 	 	 	 	1581498885	7.35	13.61
12/02/2020 09:14:46	120220	12022020	091446	186.63	12.723660	-57.148842	186.68	-0.130	0.340	1.820	186.63	-0.90	2.30	 	 	 	 	 	 	 	 	 	 	 	 	 	 	 	 	 	 	1581498886	7.07	13.09
12/02/2020 09:14:47	120220	12022020	091447	186.94	12.723627	-57.148847	187.09	-0.350	0.790	1.610	187.03	-0.60	2.10	 	 	 	 	 	 	 	 	 	 	 	 	 	 	 	 	 	 	1581498887	7.26	13.45
12/02/2020 09:14:48	120220	12022020	091448	187.40	12.723592	-57.148852	187.52	-0.460	0.730	1.620	187.47	-0.70	2.10	 	 	 	 	 	 	 	 	 	 	 	 	 	 	 	 	 	 	1581498888	7.60	14.08
12/02/2020 09:14:49	120220	12022020	091449	187.57	12.723555	-57.148860	187.61	-0.400	0.170	1.980	187.55	-1.30	2.50	 	 	 	 	 	 	 	 	 	 	 	 	 	 	 	 	 	 	1581498889	7.96	14.74
12/02/2020 09:14:50	120220	12022020	091450	187.27	12.723518	-57.148870	187.27	-0.060	-0.530	2.520	187.18	-2.00	3.10	 	 	 	 	 	 	 	 	 	 	 	 	 	 	 	 	 	 	1581498890	8.40	15.56
12/02/2020 09:14:51	120220	12022020	091451	186.84	12.723480	-57.148880	186.87	0.370	-0.790	2.740	186.78	-2.10	3.20	 	 	 	 	 	 	 	 	 	 	 	 	 	 	 	 	 	 	1581498891	8.51	15.76
12/02/2020 09:14:52	120220	12022020	091452	186.70	12.723443	-57.148887	186.80	0.540	-0.430	2.400	186.71	-1.70	2.80	 	 	 	 	 	 	 	 	 	 	 	 	 	 	 	 	 	 	1581498892	7.94	14.70
12/02/2020 09:14:53	120220	12022020	091453	186.85	12.723410	-57.148890	186.99	0.310	0.000	1.820	186.91	-1.30	2.20	 	 	 	 	 	 	 	 	 	 	 	 	 	 	 	 	 	 	1581498893	7.24	13.41
12/02/2020 09:14:54	120220	12022020	091454	187.10	12.723377	-57.148893	187.22	-0.050	0.020	1.390	187.14	-1.40	1.90	 	 	 	 	 	 	 	 	 	 	 	 	 	 	 	 	 	 	1581498894	7.14	13.22
12/02/2020 09:14:55	120220	12022020	091455	187.22	12.723342	-57.148900	187.30	-0.230	-0.310	1.360	187.23	-1.70	1.90	 	 	 	 	 	 	 	 	 	 	 	 	 	 	 	 	 	 	1581498895	7.57	14.02
12/02/2020 09:14:56	120220	12022020	091456	187.16	12.723305	-57.148907	187.22	-0.160	-0.610	1.670	187.16	-2.00	2.20	 	 	 	 	 	 	 	 	 	 	 	 	 	 	 	 	 	 	1581498896	7.92	14.67
12/02/2020 09:14:57	120220	12022020	091457	187.01	12.723270	-57.148917	187.00	0.040	-0.830	2.040	186.95	-2.20	2.60	 	 	 	 	 	 	 	 	 	 	 	 	 	 	 	 	 	 	1581498897	7.98	14.78
12/02/2020 09:14:58	120220	12022020	091458	186.66	12.723233	-57.148925	186.64	0.240	-0.930	2.300	186.59	-2.30	2.80	 	 	 	 	 	 	 	 	 	 	 	 	 	 	 	 	 	 	1581498898	8.07	14.95
12/02/2020 09:14:59	120220	12022020	091459	186.46	12.723197	-57.148932	186.53	0.210	-0.590	2.290	186.47	-1.90	2.70	 	 	 	 	 	 	 	 	 	 	 	 	 	 	 	 	 	 	1581498899	8.13	15.06
12/02/2020 09:15:00	120220	12022020	091500	186.72	12.723160	-57.148938	186.86	-0.130	0.210	1.970	186.80	-1.00	2.40	 	 	 	 	 	 	 	 	 	 	 	 	 	 	 	 	 	 	1581498900	7.72	14.30
12/02/2020 09:15:01	120220	12022020	091501	187.19	12.723128	-57.148943	187.34	-0.530	0.840	1.670	187.27	-0.50	2.10	1014.90	26.20	26.20	20.80	20.80	-1.0	72.0	72.0	391.0	25.7	278.00	10.70	84.00	10.90	16	9685.0	27.5	27.5	1581498901	7.15	13.24
12/02/2020 09:15:02	120220	12022020	091502	187.60	12.723095	-57.148948	187.67	-0.590	0.670	1.620	187.60	-0.80	2.10	 	 	 	 	 	 	 	 	 	 	 	 	 	 	 	 	 	 	1581498902	7.30	13.52
12/02/2020 09:15:03	120220	12022020	091503	187.61	12.723058	-57.148957	187.65	-0.170	-0.240	1.790	187.57	-1.80	2.30	 	 	 	 	 	 	 	 	 	 	 	 	 	 	 	 	 	 	1581498903	8.09	14.98
12/02/2020 09:15:04	120220	12022020	091504	187.20	12.723018	-57.148965	187.17	0.470	-1.090	2.170	187.08	-2.50	2.70	 	 	 	 	 	 	 	 	 	 	 	 	 	 	 	 	 	 	1581498904	8.77	16.24
12/02/2020 09:15:05	120220	12022020	091505	186.66	12.722978	-57.148973	186.68	0.760	-1.060	2.480	186.59	-2.40	3.00	 	 	 	 	 	 	 	 	 	 	 	 	 	 	 	 	 	 	1581498905	8.69	16.09
12/02/2020 09:15:06	120220	12022020	091506	186.53	12.722942	-57.148978	186.66	0.400	-0.190	2.450	186.56	-1.50	2.90	 	 	 	 	 	 	 	 	 	 	 	 	 	 	 	 	 	 	1581498906	7.74	14.33
12/02/2020 09:15:07	120220	12022020	091507	186.75	12.722912	-57.148985	186.92	-0.260	0.660	2.360	186.82	-0.70	2.80	 	 	 	 	 	 	 	 	 	 	 	 	 	 	 	 	 	 	1581498907	6.85	12.69
12/02/2020 09:15:08	120220	12022020	091508	187.16	12.722880	-57.148993	187.27	-0.550	0.810	2.170	187.16	-0.60	2.60	 	 	 	 	 	 	 	 	 	 	 	 	 	 	 	 	 	 	1581498908	6.89	12.76
12/02/2020 09:15:09	120220	12022020	091509	187.43	12.722847	-57.149002	187.59	-0.280	0.240	1.800	187.48	-1.30	2.20	 	 	 	 	 	 	 	 	 	 	 	 	 	 	 	 	 	 	1581498909	7.54	13.96
12/02/2020 09:15:10	120220	12022020	091510	187.62	12.722808	-57.149008	187.74	0.240	-0.640	1.530	187.65	-2.10	2.00	 	 	 	 	 	 	 	 	 	 	 	 	 	 	 	 	 	 	1581498910	8.17	15.13
12/02/2020 09:15:11	120220	12022020	091511	187.80	12.722770	-57.149015	187.91	0.570	-1.170	1.480	187.83	-2.60	2.00	 	 	 	 	 	 	 	 	 	 	 	 	 	 	 	 	 	 	1581498911	8.41	15.58
12/02/2020 09:15:12	120220	12022020	091512	187.92	12.722733	-57.149022	187.98	0.560	-1.180	1.600	187.92	-2.60	2.10	 	 	 	 	 	 	 	 	 	 	 	 	 	 	 	 	 	 	1581498912	7.98	14.78
12/02/2020 09:15:13	120220	12022020	091513	187.74	12.722698	-57.149028	187.72	0.440	-1.110	1.790	187.66	-2.50	2.30	 	 	 	 	 	 	 	 	 	 	 	 	 	 	 	 	 	 	1581498913	7.63	14.13
12/02/2020 09:15:14	120220	12022020	091514	187.15	12.722662	-57.149033	187.21	0.230	-0.960	2.210	187.15	-2.30	2.80	 	 	 	 	 	 	 	 	 	 	 	 	 	 	 	 	 	 	1581498914	7.92	14.67
12/02/2020 09:15:15	120220	12022020	091515	186.83	12.722625	-57.149038	186.87	-0.270	-0.400	2.680	186.79	-1.70	3.20	 	 	 	 	 	 	 	 	 	 	 	 	 	 	 	 	 	 	1581498915	8.12	15.04
12/02/2020 09:15:16	120220	12022020	091516	186.76	12.722588	-57.149048	186.87	-0.900	0.360	2.940	186.78	-0.90	3.40	 	 	 	 	 	 	 	 	 	 	 	 	 	 	 	 	 	 	1581498916	7.84	14.52
12/02/2020 09:15:17	120220	12022020	091517	186.94	12.722555	-57.149058	187.10	-1.260	0.890	3.010	187.00	-0.50	3.50	 	 	 	 	 	 	 	 	 	 	 	 	 	 	 	 	 	 	1581498917	7.76	14.37
12/02/2020 09:15:18	120220	12022020	091518	187.49	12.722520	-57.149072	187.59	-1.060	1.160	2.690	187.49	-0.20	3.10	 	 	 	 	 	 	 	 	 	 	 	 	 	 	 	 	 	 	1581498918	7.95	14.72
12/02/2020 09:15:19	120220	12022020	091519	188.14	12.722485	-57.149082	188.38	-0.470	1.180	1.840	188.30	-0.30	2.20	 	 	 	 	 	 	 	 	 	 	 	 	 	 	 	 	 	 	1581498919	7.76	14.37
12/02/2020 09:15:20	120220	12022020	091520	188.74	12.722452	-57.149088	188.82	0.320	0.430	1.140	188.74	-1.20	1.60	 	 	 	 	 	 	 	 	 	 	 	 	 	 	 	 	 	 	1581498920	7.49	13.87
12/02/2020 09:15:21	120220	12022020	091521	188.58	12.722413	-57.149093	188.55	1.170	-1.030	0.970	188.49	-2.60	1.50	 	 	 	 	 	 	 	 	 	 	 	 	 	 	 	 	 	 	1581498921	8.14	15.08
12/02/2020 09:15:22	120220	12022020	091522	188.09	12.722372	-57.149097	188.15	1.610	-1.890	1.080	188.09	-3.30	1.60	 	 	 	 	 	 	 	 	 	 	 	 	 	 	 	 	 	 	1581498922	8.85	16.39
12/02/2020 09:15:23	120220	12022020	091523	187.91	12.722335	-57.149100	187.92	1.280	-1.470	1.410	187.87	-2.70	2.00	 	 	 	 	 	 	 	 	 	 	 	 	 	 	 	 	 	 	1581498923	8.21	15.20
12/02/2020 09:15:24	120220	12022020	091524	187.75	12.722302	-57.149105	187.77	0.360	-0.580	1.780	187.71	-1.90	2.30	 	 	 	 	 	 	 	 	 	 	 	 	 	 	 	 	 	 	1581498924	7.03	13.02
12/02/2020 09:15:25	120220	12022020	091525	187.57	12.722270	-57.149112	187.63	-0.600	-0.130	2.260	187.55	-1.50	2.80	 	 	 	 	 	 	 	 	 	 	 	 	 	 	 	 	 	 	1581498925	6.98	12.93
12/02/2020 09:15:26	120220	12022020	091526	187.59	12.722237	-57.149123	187.72	-1.170	-0.040	2.740	187.62	-1.40	3.30	 	 	 	 	 	 	 	 	 	 	 	 	 	 	 	 	 	 	1581498926	7.88	14.59
12/02/2020 09:15:27	120220	12022020	091527	187.77	12.722200	-57.149140	187.93	-1.160	0.070	3.130	187.81	-1.30	3.60	 	 	 	 	 	 	 	 	 	 	 	 	 	 	 	 	 	 	1581498927	8.39	15.54
12/02/2020 09:15:28	120220	12022020	091528	187.80	12.722165	-57.149155	187.91	-0.740	0.080	3.320	187.80	-1.30	3.80	 	 	 	 	 	 	 	 	 	 	 	 	 	 	 	 	 	 	1581498928	8.26	15.30
12/02/2020 09:15:29	120220	12022020	091529	187.66	12.722128	-57.149167	187.75	-0.230	0.000	3.120	187.63	-1.40	3.50	 	 	 	 	 	 	 	 	 	 	 	 	 	 	 	 	 	 	1581498929	8.24	15.26
12/02/2020 09:15:30	120220	12022020	091530	187.62	12.722090	-57.149175	187.73	0.150	0.070	2.470	187.62	-1.30	2.80	 	 	 	 	 	 	 	 	 	 	 	 	 	 	 	 	 	 	1581498930	8.20	15.19
12/02/2020 09:15:31	120220	12022020	091531	187.93	12.722055	-57.149180	188.16	0.420	0.470	1.270	188.07	-0.90	1.60	 	 	 	 	 	 	 	 	 	 	 	 	 	 	 	 	 	 	1581498931	7.83	14.50
12/02/2020 09:15:32	120220	12022020	091532	188.78	12.722020	-57.149180	188.85	0.610	0.730	0.020	188.78	-0.70	0.40	 	 	 	 	 	 	 	 	 	 	 	 	 	 	 	 	 	 	1581498932	7.25	13.43
12/02/2020 09:15:33	120220	12022020	091533	189.16	12.721987	-57.149178	189.25	0.720	0.130	-0.340	189.20	-1.40	0.20	 	 	 	 	 	 	 	 	 	 	 	 	 	 	 	 	 	 	1581498933	7.26	13.45
12/02/2020 09:15:34	120220	12022020	091534	188.87	12.721950	-57.149180	188.93	0.760	-1.190	0.540	188.87	-2.80	1.30	 	 	 	 	 	 	 	 	 	 	 	 	 	 	 	 	 	 	1581498934	7.91	14.65
12/02/2020 09:15:35	120220	12022020	091535	188.05	12.721912	-57.149190	187.89	0.660	-2.280	2.300	187.79	-3.70	3.10	 	 	 	 	 	 	 	 	 	 	 	 	 	 	 	 	 	 	1581498935	8.70	16.11
12/02/2020 09:15:36	120220	12022020	091536	186.53	12.721872	-57.149205	186.65	0.290	-2.250	4.110	186.53	-3.50	4.80	 	 	 	 	 	 	 	 	 	 	 	 	 	 	 	 	 	 	1581498936	8.93	16.54
12/02/2020 09:15:37	120220	12022020	091537	185.96	12.721837	-57.149222	186.04	-0.380	-1.040	5.090	185.90	-2.20	5.60	 	 	 	 	 	 	 	 	 	 	 	 	 	 	 	 	 	 	1581498937	8.40	15.56
12/02/2020 09:15:38	120220	12022020	091538	185.99	12.721805	-57.149237	186.24	-1.090	0.600	4.980	186.07	-0.60	5.30	 	 	 	 	 	 	 	 	 	 	 	 	 	 	 	 	 	 	1581498938	7.53	13.95
12/02/2020 09:15:39	120220	12022020	091539	186.63	12.721775	-57.149248	186.95	-1.430	1.620	3.970	186.78	0.30	4.30	 	 	 	 	 	 	 	 	 	 	 	 	 	 	 	 	 	 	1581498939	7.02	13.00
12/02/2020 09:15:40	120220	12022020	091540	187.40	12.721742	-57.149257	187.65	-1.100	1.520	2.610	187.52	0.00	2.90	 	 	 	 	 	 	 	 	 	 	 	 	 	 	 	 	 	 	1581498940	7.32	13.56
12/02/2020 09:15:41	120220	12022020	091541	187.82	12.721703	-57.149263	188.00	-0.150	0.510	1.400	187.87	-1.00	1.80	 	 	 	 	 	 	 	 	 	 	 	 	 	 	 	 	 	 	1581498941	8.18	15.15
12/02/2020 09:15:42	120220	12022020	091542	188.06	12.721663	-57.149267	188.21	0.790	-0.380	0.530	188.11	-1.80	0.90	 	 	 	 	 	 	 	 	 	 	 	 	 	 	 	 	 	 	1581498942	8.85	16.39
12/02/2020 09:15:43	120220	12022020	091543	188.37	12.721625	-57.149268	188.51	1.110	-0.470	0.080	188.43	-1.80	0.60	 	 	 	 	 	 	 	 	 	 	 	 	 	 	 	 	 	 	1581498943	8.33	15.43
12/02/2020 09:15:44	120220	12022020	091544	188.57	12.721590	-57.149270	188.63	0.840	-0.310	0.140	188.56	-1.70	0.70	 	 	 	 	 	 	 	 	 	 	 	 	 	 	 	 	 	 	1581498944	7.23	13.39
12/02/2020 09:15:45	120220	12022020	091545	188.36	12.721558	-57.149275	188.33	0.480	-0.590	0.820	188.27	-2.00	1.50	 	 	 	 	 	 	 	 	 	 	 	 	 	 	 	 	 	 	1581498945	6.99	12.95
12/02/2020 09:15:46	120220	12022020	091546	187.75	12.721523	-57.149285	187.85	0.350	-0.950	1.860	187.75	-2.30	2.50	 	 	 	 	 	 	 	 	 	 	 	 	 	 	 	 	 	 	1581498946	7.69	14.24
12/02/2020 09:15:47	120220	12022020	091547	187.39	12.721488	-57.149297	187.42	0.320	-0.860	2.780	187.31	-2.20	3.40	 	 	 	 	 	 	 	 	 	 	 	 	 	 	 	 	 	 	1581498947	7.95	14.72
12/02/2020 09:15:48	120220	12022020	091548	187.05	12.721455	-57.149307	187.12	0.150	-0.640	3.310	186.99	-2.00	3.80	 	 	 	 	 	 	 	 	 	 	 	 	 	 	 	 	 	 	1581498948	7.63	14.13
12/02/2020 09:15:49	120220	12022020	091549	186.75	12.721420	-57.149317	186.85	-0.150	-0.680	3.600	186.69	-2.10	4.10	 	 	 	 	 	 	 	 	 	 	 	 	 	 	 	 	 	 	1581498949	7.73	14.32
12/02/2020 09:15:50	120220	12022020	091550	186.57	12.721383	-57.149327	186.73	-0.450	-0.740	3.590	186.58	-2.10	4.00	 	 	 	 	 	 	 	 	 	 	 	 	 	 	 	 	 	 	1581498950	8.26	15.30
12/02/2020 09:15:51	120220	12022020	091551	186.77	12.721345	-57.149338	187.01	-0.630	-0.310	3.160	186.85	-1.60	3.50	 	 	 	 	 	 	 	 	 	 	 	 	 	 	 	 	 	 	1581498951	8.33	15.43
12/02/2020 09:15:52	120220	12022020	091552	187.21	12.721312	-57.149347	187.44	-0.620	0.460	2.540	187.29	-0.80	2.90	 	 	 	 	 	 	 	 	 	 	 	 	 	 	 	 	 	 	1581498952	7.64	14.15
12/02/2020 09:15:53	120220	12022020	091553	187.51	12.721278	-57.149353	187.66	-0.410	0.880	2.000	187.53	-0.50	2.40	 	 	 	 	 	 	 	 	 	 	 	 	 	 	 	 	 	 	1581498953	7.14	13.22
12/02/2020 09:15:54	120220	12022020	091554	187.52	12.721245	-57.149358	187.64	-0.090	0.590	1.590	187.50	-0.90	2.00	 	 	 	 	 	 	 	 	 	 	 	 	 	 	 	 	 	 	1581498954	7.48	13.85
12/02/2020 09:15:55	120220	12022020	091555	187.46	12.721207	-57.149363	187.59	0.160	-0.000	1.360	187.47	-1.50	1.80	 	 	 	 	 	 	 	 	 	 	 	 	 	 	 	 	 	 	1581498955	8.10	15.00
12/02/2020 09:15:56	120220	12022020	091556	187.55	12.721168	-57.149370	187.70	0.300	-0.370	1.300	187.59	-1.80	1.80	 	 	 	 	 	 	 	 	 	 	 	 	 	 	 	 	 	 	1581498956	8.23	15.24
12/02/2020 09:15:57	120220	12022020	091557	187.75	12.721133	-57.149377	187.88	0.420	-0.380	1.240	187.78	-1.80	1.70	 	 	 	 	 	 	 	 	 	 	 	 	 	 	 	 	 	 	1581498957	7.78	14.41
12/02/2020 09:15:58	120220	12022020	091558	187.89	12.721100	-57.149382	188.01	0.530	-0.380	1.300	187.91	-1.80	1.80	 	 	 	 	 	 	 	 	 	 	 	 	 	 	 	 	 	 	1581498958	7.36	13.63
12/02/2020 09:15:59	120220	12022020	091559	187.94	12.721067	-57.149387	188.03	0.450	-0.570	1.720	187.93	-2.00	2.30	 	 	 	 	 	 	 	 	 	 	 	 	 	 	 	 	 	 	1581498959	7.39	13.69
12/02/2020 09:16:00	120220	12022020	091600	187.62	12.721032	-57.149395	187.74	0.130	-0.920	2.320	187.62	-2.40	2.90	 	 	 	 	 	 	 	 	 	 	 	 	 	 	 	 	 	 	1581498960	7.66	14.19
12/02/2020 09:16:01	120220	12022020	091601	187.09	12.720995	-57.149407	187.06	-0.190	-1.210	3.060	186.94	-2.60	3.60	1015.00	26.10	26.10	20.40	20.60	-1.0	71.0	71.0	391.0	25.7	275.00	11.00	82.00	11.40	16	11527.0	27.5	27.4	1581498961	8.04	14.89
12/02/2020 09:16:02	120220	12022020	091602	186.41	12.720958	-57.149418	186.44	-0.340	-1.080	3.590	186.31	-2.40	4.10	 	 	 	 	 	 	 	 	 	 	 	 	 	 	 	 	 	 	1581498962	8.30	15.37
12/02/2020 09:16:03	120220	12022020	091603	186.14	12.720923	-57.149432	186.30	-0.300	-0.250	3.440	186.15	-1.50	3.80	 	 	 	 	 	 	 	 	 	 	 	 	 	 	 	 	 	 	1581498963	8.05	14.91
12/02/2020 09:16:04	120220	12022020	091604	186.40	12.720890	-57.149440	186.53	-0.190	0.790	2.830	186.40	-0.50	3.20	 	 	 	 	 	 	 	 	 	 	 	 	 	 	 	 	 	 	1581498964	7.24	13.41
12/02/2020 09:16:05	120220	12022020	091605	186.58	12.720858	-57.149445	186.72	-0.020	1.050	2.210	186.61	-0.40	2.60	 	 	 	 	 	 	 	 	 	 	 	 	 	 	 	 	 	 	1581498965	6.95	12.87
12/02/2020 09:16:06	120220	12022020	091606	186.67	12.720823	-57.149448	186.77	0.190	0.410	1.690	186.67	-1.10	2.10	 	 	 	 	 	 	 	 	 	 	 	 	 	 	 	 	 	 	1581498966	7.75	14.35
12/02/2020 09:16:07	120220	12022020	091607	186.82	12.720783	-57.149452	186.99	0.260	-0.170	1.350	186.89	-1.60	1.80	 	 	 	 	 	 	 	 	 	 	 	 	 	 	 	 	 	 	1581498967	8.47	15.69
12/02/2020 09:16:08	120220	12022020	091608	187.27	12.720747	-57.149457	187.45	0.090	-0.270	1.240	187.38	-1.70	1.80	 	 	 	 	 	 	 	 	 	 	 	 	 	 	 	 	 	 	1581498968	8.04	14.89
12/02/2020 09:16:09	120220	12022020	091609	187.72	12.720713	-57.149463	187.84	-0.150	-0.370	1.400	187.77	-1.80	1.90	 	 	 	 	 	 	 	 	 	 	 	 	 	 	 	 	 	 	1581498969	7.28	13.48
12/02/2020 09:16:10	120220	12022020	091610	187.71	12.720680	-57.149472	187.78	-0.130	-1.000	1.840	187.71	-2.50	2.40	 	 	 	 	 	 	 	 	 	 	 	 	 	 	 	 	 	 	1581498970	7.35	13.61
12/02/2020 09:16:11	120220	12022020	091611	187.27	12.720643	-57.149482	187.19	0.240	-1.800	2.500	187.11	-3.30	3.10	 	 	 	 	 	 	 	 	 	 	 	 	 	 	 	 	 	 	1581498971	8.15	15.09
12/02/2020 09:16:12	120220	12022020	091612	186.42	12.720605	-57.149492	186.51	0.410	-1.710	3.070	186.42	-3.00	3.60	 	 	 	 	 	 	 	 	 	 	 	 	 	 	 	 	 	 	1581498972	8.63	15.98
12/02/2020 09:16:13	120220	12022020	091613	186.15	12.720568	-57.149498	186.25	-0.050	-0.470	3.270	186.14	-1.60	3.80	 	 	 	 	 	 	 	 	 	 	 	 	 	 	 	 	 	 	1581498973	7.90	14.63
12/02/2020 09:16:14	120220	12022020	091614	186.33	12.720538	-57.149507	186.45	-0.840	0.950	3.170	186.33	-0.30	3.60	 	 	 	 	 	 	 	 	 	 	 	 	 	 	 	 	 	 	1581498974	6.85	12.69
12/02/2020 09:16:15	120220	12022020	091615	186.61	12.720508	-57.149517	186.78	-1.130	1.450	2.830	186.66	0.00	3.20	 	 	 	 	 	 	 	 	 	 	 	 	 	 	 	 	 	 	1581498975	6.78	12.56
12/02/2020 09:16:16	120220	12022020	091616	186.88	12.720473	-57.149527	187.02	-0.490	0.810	2.300	186.92	-0.70	2.70	 	 	 	 	 	 	 	 	 	 	 	 	 	 	 	 	 	 	1581498976	7.71	14.28
12/02/2020 09:16:17	120220	12022020	091617	187.08	12.720433	-57.149533	187.22	0.550	-0.120	1.770	187.11	-1.60	2.20	 	 	 	 	 	 	 	 	 	 	 	 	 	 	 	 	 	 	1581498977	8.69	16.09
12/02/2020 09:16:18	120220	12022020	091618	187.37	12.720393	-57.149537	187.45	1.100	-0.510	1.290	187.37	-1.90	1.70	 	 	 	 	 	 	 	 	 	 	 	 	 	 	 	 	 	 	1581498978	8.69	16.09
12/02/2020 09:16:19	120220	12022020	091619	187.69	12.720357	-57.149538	187.84	0.800	-0.280	0.880	187.78	-1.60	1.40	 	 	 	 	 	 	 	 	 	 	 	 	 	 	 	 	 	 	1581498979	7.79	14.43
12/02/2020 09:16:20	120220	12022020	091620	188.07	12.720325	-57.149542	188.16	0.030	-0.090	1.020	188.11	-1.50	1.60	 	 	 	 	 	 	 	 	 	 	 	 	 	 	 	 	 	 	1581498980	6.90	12.78
12/02/2020 09:16:21	120220	12022020	091621	188.09	12.720293	-57.149550	188.11	-0.510	-0.500	1.830	188.04	-2.00	2.50	 	 	 	 	 	 	 	 	 	 	 	 	 	 	 	 	 	 	1581498981	7.00	12.96
12/02/2020 09:16:22	120220	12022020	091622	187.58	12.720258	-57.149562	187.68	-0.580	-1.180	2.870	187.58	-2.60	3.50	 	 	 	 	 	 	 	 	 	 	 	 	 	 	 	 	 	 	1581498982	7.94	14.70
12/02/2020 09:16:23	120220	12022020	091623	187.11	12.720222	-57.149577	187.11	-0.360	-1.410	3.710	187.00	-2.80	4.30	 	 	 	 	 	 	 	 	 	 	 	 	 	 	 	 	 	 	1581498983	8.48	15.70
12/02/2020 09:16:24	120220	12022020	091624	186.64	12.720187	-57.149592	186.68	-0.080	-0.980	3.910	186.56	-2.30	4.30	 	 	 	 	 	 	 	 	 	 	 	 	 	 	 	 	 	 	1581498984	8.24	15.26
12/02/2020 09:16:25	120220	12022020	091625	186.36	12.720153	-57.149602	186.45	0.240	-0.240	3.370	186.33	-1.50	3.70	 	 	 	 	 	 	 	 	 	 	 	 	 	 	 	 	 	 	1581498985	7.60	14.08
12/02/2020 09:16:26	120220	12022020	091626	186.31	12.720118	-57.149605	186.42	0.510	0.330	2.360	186.31	-1.00	2.70	 	 	 	 	 	 	 	 	 	 	 	 	 	 	 	 	 	 	1581498986	7.37	13.65
12/02/2020 09:16:27	120220	12022020	091627	186.46	12.720083	-57.149603	186.60	0.460	0.510	1.420	186.51	-0.90	1.80	 	 	 	 	 	 	 	 	 	 	 	 	 	 	 	 	 	 	1581498987	7.68	14.22
12/02/2020 09:16:28	120220	12022020	091628	186.74	12.720047	-57.149603	186.87	0.020	0.270	1.130	186.78	-1.20	1.70	 	 	 	 	 	 	 	 	 	 	 	 	 	 	 	 	 	 	1581498988	7.95	14.72
12/02/2020 09:16:29	120220	12022020	091629	186.82	12.720008	-57.149608	186.89	-0.520	-0.160	1.730	186.80	-1.60	2.40	 	 	 	 	 	 	 	 	 	 	 	 	 	 	 	 	 	 	1581498989	8.07	14.95
12/02/2020 09:16:30	120220	12022020	091630	186.70	12.719972	-57.149620	186.80	-0.790	-0.360	2.630	186.69	-1.70	3.20	 	 	 	 	 	 	 	 	 	 	 	 	 	 	 	 	 	 	1581498990	8.28	15.33
12/02/2020 09:16:31	120220	12022020	091631	186.67	12.719938	-57.149635	186.79	-0.650	-0.180	3.120	186.66	-1.50	3.60	 	 	 	 	 	 	 	 	 	 	 	 	 	 	 	 	 	 	1581498991	8.09	14.98
12/02/2020 09:16:32	120220	12022020	091632	186.54	12.719905	-57.149648	186.66	-0.240	-0.060	3.200	186.54	-1.50	3.70	 	 	 	 	 	 	 	 	 	 	 	 	 	 	 	 	 	 	1581498992	7.54	13.96
12/02/2020 09:16:33	120220	12022020	091633	186.33	12.719872	-57.149658	186.41	0.260	-0.280	2.880	186.29	-1.70	3.30	 	 	 	 	 	 	 	 	 	 	 	 	 	 	 	 	 	 	1581498993	7.51	13.91
12/02/2020 09:16:34	120220	12022020	091634	186.15	12.719835	-57.149663	186.26	0.630	-0.500	2.160	186.15	-1.90	2.50	 	 	 	 	 	 	 	 	 	 	 	 	 	 	 	 	 	 	1581498994	7.81	14.46
12/02/2020 09:16:35	120220	12022020	091635	186.07	12.719800	-57.149665	186.15	0.780	-0.570	1.470	186.04	-2.00	1.90	 	 	 	 	 	 	 	 	 	 	 	 	 	 	 	 	 	 	1581498995	7.81	14.46
12/02/2020 09:16:36	120220	12022020	091636	185.93	12.719763	-57.149665	186.05	0.700	-0.590	1.210	185.93	-2.00	1.70	 	 	 	 	 	 	 	 	 	 	 	 	 	 	 	 	 	 	1581498996	7.75	14.35
12/02/2020 09:16:37	120220	12022020	091637	185.97	12.719727	-57.149668	186.11	0.460	-0.480	1.300	186.00	-1.80	1.80	 	 	 	 	 	 	 	 	 	 	 	 	 	 	 	 	 	 	1581498997	7.74	14.33
12/02/2020 09:16:38	120220	12022020	091638	186.21	12.719692	-57.149673	186.32	0.050	-0.230	1.530	186.21	-1.60	2.10	 	 	 	 	 	 	 	 	 	 	 	 	 	 	 	 	 	 	1581498998	7.64	14.15
12/02/2020 09:16:39	120220	12022020	091639	186.49	12.719658	-57.149680	186.68	-0.470	0.070	1.910	186.56	-1.30	2.50	 	 	 	 	 	 	 	 	 	 	 	 	 	 	 	 	 	 	1581498999	7.54	13.96
12/02/2020 09:16:40	120220	12022020	091640	186.82	12.719625	-57.149690	186.97	-0.950	0.230	2.590	186.82	-1.20	3.20	 	 	 	 	 	 	 	 	 	 	 	 	 	 	 	 	 	 	1581499000	7.49	13.87
12/02/2020 09:16:41	120220	12022020	091641	186.81	12.719590	-57.149703	186.92	-1.120	-0.020	3.340	186.76	-1.50	3.90	 	 	 	 	 	 	 	 	 	 	 	 	 	 	 	 	 	 	1581499001	7.73	14.32
12/02/2020 09:16:42	120220	12022020	091642	186.33	12.719555	-57.149718	186.50	-0.750	-0.670	3.750	186.33	-2.10	4.20	 	 	 	 	 	 	 	 	 	 	 	 	 	 	 	 	 	 	1581499002	8.26	15.30
12/02/2020 09:16:43	120220	12022020	091643	185.86	12.719517	-57.149732	185.91	0.100	-1.140	3.570	185.74	-2.50	4.00	 	 	 	 	 	 	 	 	 	 	 	 	 	 	 	 	 	 	1581499003	8.67	16.06
12/02/2020 09:16:44	120220	12022020	091644	185.19	12.719478	-57.149740	185.33	1.050	-0.970	2.890	185.19	-2.30	3.20	 	 	 	 	 	 	 	 	 	 	 	 	 	 	 	 	 	 	1581499004	8.39	15.54
12/02/2020 09:16:45	120220	12022020	091645	184.84	12.719443	-57.149740	184.90	1.510	-0.310	1.950	184.80	-1.60	2.30	 	 	 	 	 	 	 	 	 	 	 	 	 	 	 	 	 	 	1581499005	7.87	14.58
12/02/2020 09:16:46	120220	12022020	091646	185.01	12.719407	-57.149735	185.08	0.950	0.540	1.250	185.01	-0.70	1.70	 	 	 	 	 	 	 	 	 	 	 	 	 	 	 	 	 	 	1581499006	7.64	14.15
12/02/2020 09:16:47	120220	12022020	091647	185.61	12.719375	-57.149733	185.87	-0.340	1.180	1.330	185.80	-0.20	1.90	 	 	 	 	 	 	 	 	 	 	 	 	 	 	 	 	 	 	1581499007	7.08	13.11
12/02/2020 09:16:48	120220	12022020	091648	186.48	12.719343	-57.149742	186.73	-1.490	1.200	2.060	186.63	-0.30	2.70	 	 	 	 	 	 	 	 	 	 	 	 	 	 	 	 	 	 	1581499008	6.95	12.87
12/02/2020 09:16:49	120220	12022020	091649	186.98	12.719312	-57.149758	187.15	-1.610	0.310	2.880	187.02	-1.30	3.40	 	 	 	 	 	 	 	 	 	 	 	 	 	 	 	 	 	 	1581499009	7.73	14.32
12/02/2020 09:16:50	120220	12022020	091650	186.94	12.719275	-57.149777	187.09	-0.620	-1.070	3.330	186.94	-2.60	3.80	 	 	 	 	 	 	 	 	 	 	 	 	 	 	 	 	 	 	1581499010	8.61	15.95
12/02/2020 09:16:51	120220	12022020	091651	186.62	12.719237	-57.149790	186.66	0.700	-1.960	3.210	186.52	-3.40	3.60	 	 	 	 	 	 	 	 	 	 	 	 	 	 	 	 	 	 	1581499011	8.86	16.41
12/02/2020 09:16:52	120220	12022020	091652	186.09	12.719198	-57.149797	186.22	1.410	-1.760	2.570	186.09	-3.00	2.90	 	 	 	 	 	 	 	 	 	 	 	 	 	 	 	 	 	 	1581499012	8.29	15.35
12/02/2020 09:16:53	120220	12022020	091653	185.86	12.719163	-57.149795	185.93	1.190	-0.830	1.780	185.81	-2.10	2.20	 	 	 	 	 	 	 	 	 	 	 	 	 	 	 	 	 	 	1581499013	7.40	13.70
12/02/2020 09:16:54	120220	12022020	091654	185.58	12.719132	-57.149793	185.62	0.450	-0.040	1.330	185.52	-1.40	1.80	 	 	 	 	 	 	 	 	 	 	 	 	 	 	 	 	 	 	1581499014	6.99	12.95
12/02/2020 09:16:55	120220	12022020	091655	185.23	12.719097	-57.149793	185.29	-0.370	0.280	1.490	185.17	-1.10	2.00	 	 	 	 	 	 	 	 	 	 	 	 	 	 	 	 	 	 	1581499015	7.36	13.63
12/02/2020 09:16:56	120220	12022020	091656	185.19	12.719062	-57.149800	185.32	-1.040	0.510	1.960	185.19	-0.80	2.50	 	 	 	 	 	 	 	 	 	 	 	 	 	 	 	 	 	 	1581499016	7.94	14.70
12/02/2020 09:16:57	120220	12022020	091657	185.55	12.719025	-57.149813	185.81	-1.350	0.830	2.260	185.68	-0.50	2.70	 	 	 	 	 	 	 	 	 	 	 	 	 	 	 	 	 	 	1581499017	8.07	14.95
12/02/2020 09:16:58	120220	12022020	091658	186.20	12.718992	-57.149827	186.42	-1.080	0.870	2.140	186.31	-0.60	2.60	 	 	 	 	 	 	 	 	 	 	 	 	 	 	 	 	 	 	1581499018	7.80	14.45
12/02/2020 09:16:59	120220	12022020	091659	186.61	12.718958	-57.149838	186.76	-0.170	0.180	1.820	186.65	-1.30	2.20	 	 	 	 	 	 	 	 	 	 	 	 	 	 	 	 	 	 	1581499019	7.73	14.32
12/02/2020 09:17:00	120220	12022020	091700	186.71	12.718920	-57.149845	186.82	0.860	-0.660	1.470	186.71	-2.10	1.90	 	 	 	 	 	 	 	 	 	 	 	 	 	 	 	 	 	 	1581499020	8.23	15.24
12/02/2020 09:17:01	120220	12022020	091701	186.70	12.718882	-57.149848	186.79	1.360	-0.910	1.160	186.70	-2.30	1.60	1014.90	26.10	26.20	20.40	20.50	-1.0	70.0	71.0	390.0	25.7	276.00	10.40	80.00	10.80	16	9619.0	27.5	27.4	1581499021	8.19	15.17
12/02/2020 09:17:02	120220	12022020	091702	186.52	12.718848	-57.149850	186.61	1.120	-0.810	1.150	186.52	-2.20	1.70	 	 	 	 	 	 	 	 	 	 	 	 	 	 	 	 	 	 	1581499022	7.49	13.87
12/02/2020 09:17:03	120220	12022020	091703	186.24	12.718813	-57.149852	186.27	0.420	-0.770	1.560	186.16	-2.10	2.10	 	 	 	 	 	 	 	 	 	 	 	 	 	 	 	 	 	 	1581499023	7.27	13.46
12/02/2020 09:17:04	120220	12022020	091704	185.91	12.718780	-57.149858	185.99	-0.430	-0.640	2.320	185.86	-2.00	2.90	 	 	 	 	 	 	 	 	 	 	 	 	 	 	 	 	 	 	1581499024	7.57	14.02
12/02/2020 09:17:05	120220	12022020	091705	185.70	12.718745	-57.149870	185.81	-1.090	-0.330	3.130	185.66	-1.70	3.70	 	 	 	 	 	 	 	 	 	 	 	 	 	 	 	 	 	 	1581499025	7.76	14.37
12/02/2020 09:17:06	120220	12022020	091706	185.48	12.718712	-57.149885	185.57	-1.210	-0.180	3.670	185.43	-1.60	4.20	 	 	 	 	 	 	 	 	 	 	 	 	 	 	 	 	 	 	1581499026	7.86	14.56
12/02/2020 09:17:07	120220	12022020	091707	185.16	12.718677	-57.149900	185.24	-0.640	-0.390	3.690	185.11	-1.80	4.10	 	 	 	 	 	 	 	 	 	 	 	 	 	 	 	 	 	 	1581499027	8.20	15.19
12/02/2020 09:17:08	120220	12022020	091708	185.21	12.718638	-57.149910	185.32	0.240	-0.340	2.890	185.21	-1.70	3.20	 	 	 	 	 	 	 	 	 	 	 	 	 	 	 	 	 	 	1581499028	8.50	15.74
12/02/2020 09:17:09	120220	12022020	091709	185.81	12.718602	-57.149913	186.07	0.720	0.400	1.630	186.00	-0.90	1.90	 	 	 	 	 	 	 	 	 	 	 	 	 	 	 	 	 	 	1581499029	7.92	14.67
12/02/2020 09:17:10	120220	12022020	091710	186.74	12.718570	-57.149912	186.93	0.640	1.010	0.480	186.88	-0.40	0.90	 	 	 	 	 	 	 	 	 	 	 	 	 	 	 	 	 	 	1581499030	6.89	12.76
12/02/2020 09:17:11	120220	12022020	091711	187.09	12.718538	-57.149910	187.11	0.460	0.390	0.250	187.06	-1.20	0.80	 	 	 	 	 	 	 	 	 	 	 	 	 	 	 	 	 	 	1581499031	6.86	12.70
12/02/2020 09:17:12	120220	12022020	091712	186.64	12.718500	-57.149912	186.57	0.420	-0.920	1.170	186.49	-2.40	1.80	 	 	 	 	 	 	 	 	 	 	 	 	 	 	 	 	 	 	1581499032	8.03	14.87
12/02/2020 09:17:13	120220	12022020	091713	185.92	12.718462	-57.149922	185.92	0.240	-1.450	2.600	185.81	-2.80	3.30	 	 	 	 	 	 	 	 	 	 	 	 	 	 	 	 	 	 	1581499033	8.76	16.22
12/02/2020 09:17:14	120220	12022020	091714	185.65	12.718425	-57.149935	185.79	-0.240	-0.780	3.570	185.65	-2.00	4.10	 	 	 	 	 	 	 	 	 	 	 	 	 	 	 	 	 	 	1581499034	8.12	15.04
12/02/2020 09:17:15	120220	12022020	091715	185.87	12.718395	-57.149948	186.08	-0.780	0.180	3.820	185.95	-1.10	4.30	 	 	 	 	 	 	 	 	 	 	 	 	 	 	 	 	 	 	1581499035	7.09	13.13
12/02/2020 09:17:16	120220	12022020	091716	186.28	12.718367	-57.149962	186.51	-0.840	0.480	3.440	186.37	-0.90	3.80	 	 	 	 	 	 	 	 	 	 	 	 	 	 	 	 	 	 	1581499036	6.89	12.76
12/02/2020 09:17:17	120220	12022020	091717	186.81	12.718333	-57.149972	187.08	-0.250	0.090	2.280	186.94	-1.40	2.50	 	 	 	 	 	 	 	 	 	 	 	 	 	 	 	 	 	 	1581499037	7.47	13.83
12/02/2020 09:17:18	120220	12022020	091718	187.50	12.718297	-57.149975	187.73	0.470	-0.350	0.910	187.62	-1.80	1.20	 	 	 	 	 	 	 	 	 	 	 	 	 	 	 	 	 	 	1581499038	7.94	14.70
12/02/2020 09:17:19	120220	12022020	091719	187.94	12.718260	-57.149977	188.03	0.820	-0.620	0.040	187.96	-2.10	0.50	 	 	 	 	 	 	 	 	 	 	 	 	 	 	 	 	 	 	1581499039	7.79	14.43
12/02/2020 09:17:20	120220	12022020	091720	187.70	12.718225	-57.149977	187.64	0.800	-0.970	0.050	187.57	-2.40	0.60	 	 	 	 	 	 	 	 	 	 	 	 	 	 	 	 	 	 	1581499040	7.60	14.08
12/02/2020 09:17:21	120220	12022020	091721	187.02	12.718188	-57.149980	186.97	0.510	-1.100	0.530	186.90	-2.40	1.10	 	 	 	 	 	 	 	 	 	 	 	 	 	 	 	 	 	 	1581499041	7.88	14.59
12/02/2020 09:17:22	120220	12022020	091722	186.65	12.718152	-57.149987	186.73	-0.060	-0.490	1.200	186.65	-1.80	1.80	 	 	 	 	 	 	 	 	 	 	 	 	 	 	 	 	 	 	1581499042	7.86	14.56
12/02/2020 09:17:23	120220	12022020	091723	186.79	12.718120	-57.149997	186.95	-0.660	0.480	1.900	186.85	-0.80	2.40	 	 	 	 	 	 	 	 	 	 	 	 	 	 	 	 	 	 	1581499043	7.32	13.56
12/02/2020 09:17:24	120220	12022020	091724	187.14	12.718090	-57.150010	187.25	-0.950	1.060	2.350	187.14	-0.30	2.90	 	 	 	 	 	 	 	 	 	 	 	 	 	 	 	 	 	 	1581499044	7.11	13.17
12/02/2020 09:17:25	120220	12022020	091725	187.26	12.718057	-57.150023	187.41	-0.690	0.850	2.530	187.28	-0.60	3.00	 	 	 	 	 	 	 	 	 	 	 	 	 	 	 	 	 	 	1581499045	7.45	13.80
12/02/2020 09:17:26	120220	12022020	091726	187.39	12.718022	-57.150035	187.54	-0.090	0.130	2.410	187.39	-1.40	2.80	 	 	 	 	 	 	 	 	 	 	 	 	 	 	 	 	 	 	1581499046	7.99	14.80
12/02/2020 09:17:27	120220	12022020	091727	187.57	12.717985	-57.150043	187.77	0.390	-0.510	2.080	187.61	-2.00	2.50	 	 	 	 	 	 	 	 	 	 	 	 	 	 	 	 	 	 	1581499047	8.14	15.08
12/02/2020 09:17:28	120220	12022020	091728	187.66	12.717950	-57.150050	187.77	0.610	-0.890	1.760	187.63	-2.30	2.20	 	 	 	 	 	 	 	 	 	 	 	 	 	 	 	 	 	 	1581499048	7.74	14.33
12/02/2020 09:17:29	120220	12022020	091729	187.26	12.717915	-57.150055	187.26	0.700	-1.170	1.750	187.13	-2.60	2.30	 	 	 	 	 	 	 	 	 	 	 	 	 	 	 	 	 	 	1581499049	7.47	13.83
12/02/2020 09:17:30	120220	12022020	091730	186.53	12.717880	-57.150060	186.67	0.530	-1.110	1.980	186.53	-2.40	2.50	 	 	 	 	 	 	 	 	 	 	 	 	 	 	 	 	 	 	1581499050	7.63	14.13
12/02/2020 09:17:31	120220	12022020	091731	186.30	12.717845	-57.150067	186.43	0.090	-0.510	2.170	186.29	-1.80	2.70	 	 	 	 	 	 	 	 	 	 	 	 	 	 	 	 	 	 	1581499051	7.50	13.89
12/02/2020 09:17:32	120220	12022020	091732	186.49	12.717813	-57.150077	186.64	-0.370	0.290	2.190	186.49	-1.00	2.70	 	 	 	 	 	 	 	 	 	 	 	 	 	 	 	 	 	 	1581499052	7.07	13.09
12/02/2020 09:17:33	120220	12022020	091733	186.75	12.717783	-57.150085	186.93	-0.510	0.610	2.160	186.79	-0.80	2.60	 	 	 	 	 	 	 	 	 	 	 	 	 	 	 	 	 	 	1581499053	6.92	12.82
12/02/2020 09:17:34	120220	12022020	091734	186.79	12.717750	-57.150093	186.87	-0.200	0.120	2.210	186.74	-1.40	2.70	 	 	 	 	 	 	 	 	 	 	 	 	 	 	 	 	 	 	1581499054	7.46	13.82
12/02/2020 09:17:35	120220	12022020	091735	186.42	12.717712	-57.150102	186.45	0.250	-0.610	2.490	186.32	-2.10	3.00	 	 	 	 	 	 	 	 	 	 	 	 	 	 	 	 	 	 	1581499055	8.33	15.43
12/02/2020 09:17:36	120220	12022020	091736	185.91	12.717672	-57.150108	186.03	0.390	-0.710	2.780	185.91	-2.00	3.30	 	 	 	 	 	 	 	 	 	 	 	 	 	 	 	 	 	 	1581499056	8.52	15.78
12/02/2020 09:17:37	120220	12022020	091737	185.82	12.717637	-57.150115	185.97	0.050	-0.060	2.800	185.85	-1.30	3.30	 	 	 	 	 	 	 	 	 	 	 	 	 	 	 	 	 	 	1581499057	7.75	14.35
12/02/2020 09:17:38	120220	12022020	091738	186.20	12.717607	-57.150122	186.34	-0.460	0.650	2.520	186.20	-0.70	2.90	 	 	 	 	 	 	 	 	 	 	 	 	 	 	 	 	 	 	1581499058	6.83	12.65
12/02/2020 09:17:39	120220	12022020	091739	186.64	12.717577	-57.150130	186.88	-0.690	0.750	2.090	186.76	-0.70	2.50	 	 	 	 	 	 	 	 	 	 	 	 	 	 	 	 	 	 	1581499059	6.66	12.33
12/02/2020 09:17:40	120220	12022020	091740	187.17	12.717543	-57.150138	187.30	-0.350	0.060	1.690	187.17	-1.50	2.10	 	 	 	 	 	 	 	 	 	 	 	 	 	 	 	 	 	 	1581499060	7.18	13.30
12/02/2020 09:17:41	120220	12022020	091741	187.25	12.717508	-57.150147	187.32	0.450	-0.920	1.400	187.22	-2.40	1.90	 	 	 	 	 	 	 	 	 	 	 	 	 	 	 	 	 	 	1581499061	7.89	14.61
12/02/2020 09:17:42	120220	12022020	091742	186.94	12.717470	-57.150153	186.92	1.190	-1.520	1.380	186.83	-2.90	1.90	 	 	 	 	 	 	 	 	 	 	 	 	 	 	 	 	 	 	1581499062	8.16	15.11
12/02/2020 09:17:43	120220	12022020	091743	186.31	12.717433	-57.150157	186.29	1.340	-1.470	1.700	186.20	-2.80	2.30	 	 	 	 	 	 	 	 	 	 	 	 	 	 	 	 	 	 	1581499063	7.96	14.74
12/02/2020 09:17:44	120220	12022020	091744	185.80	12.717398	-57.150158	185.88	0.680	-0.850	2.240	185.80	-2.10	2.80	 	 	 	 	 	 	 	 	 	 	 	 	 	 	 	 	 	 	1581499064	7.62	14.11
12/02/2020 09:17:45	120220	12022020	091745	185.81	12.717365	-57.150165	185.96	-0.480	0.120	2.740	185.87	-1.10	3.30	 	 	 	 	 	 	 	 	 	 	 	 	 	 	 	 	 	 	1581499065	7.28	13.48
12/02/2020 09:17:46	120220	12022020	091746	186.33	12.717333	-57.150173	186.59	-1.540	1.060	2.900	186.49	-0.20	3.40	 	 	 	 	 	 	 	 	 	 	 	 	 	 	 	 	 	 	1581499066	7.07	13.09
12/02/2020 09:17:47	120220	12022020	091747	187.11	12.717302	-57.150187	187.33	-1.910	1.260	2.770	187.24	-0.20	3.20	 	 	 	 	 	 	 	 	 	 	 	 	 	 	 	 	 	 	1581499067	7.09	13.13
12/02/2020 09:17:48	120220	12022020	091748	187.49	12.717268	-57.150200	187.61	-1.230	0.350	2.590	187.50	-1.20	3.00	 	 	 	 	 	 	 	 	 	 	 	 	 	 	 	 	 	 	1581499068	7.77	14.39
12/02/2020 09:17:49	120220	12022020	091749	187.41	12.717230	-57.150213	187.47	0.100	-0.780	2.180	187.36	-2.30	2.60	 	 	 	 	 	 	 	 	 	 	 	 	 	 	 	 	 	 	1581499069	8.70	16.11
12/02/2020 09:17:50	120220	12022020	091750	187.21	12.717192	-57.150220	187.25	1.190	-1.070	1.630	187.18	-2.40	2.00	 	 	 	 	 	 	 	 	 	 	 	 	 	 	 	 	 	 	1581499070	8.64	16.00
12/02/2020 09:17:51	120220	12022020	091751	187.03	12.717155	-57.150222	187.06	1.460	-0.530	1.070	186.98	-1.80	1.50	 	 	 	 	 	 	 	 	 	 	 	 	 	 	 	 	 	 	1581499071	7.66	14.19
12/02/2020 09:17:52	120220	12022020	091752	186.86	12.717123	-57.150222	186.91	0.950	0.200	0.660	186.85	-1.10	1.10	 	 	 	 	 	 	 	 	 	 	 	 	 	 	 	 	 	 	1581499072	6.93	12.83
12/02/2020 09:17:53	120220	12022020	091753	186.90	12.717092	-57.150222	187.02	0.130	0.610	0.590	186.94	-0.80	1.10	 	 	 	 	 	 	 	 	 	 	 	 	 	 	 	 	 	 	1581499073	6.74	12.48
12/02/2020 09:17:54	120220	12022020	091754	187.12	12.717060	-57.150227	187.25	-0.460	0.350	0.910	187.15	-1.10	1.50	 	 	 	 	 	 	 	 	 	 	 	 	 	 	 	 	 	 	1581499074	7.00	12.96
12/02/2020 09:17:55	120220	12022020	091755	187.06	12.717025	-57.150237	187.11	-0.550	-0.650	1.770	186.99	-2.20	2.40	 	 	 	 	 	 	 	 	 	 	 	 	 	 	 	 	 	 	1581499075	7.70	14.26
12/02/2020 09:17:56	120220	12022020	091756	186.49	12.716987	-57.150252	186.49	-0.210	-1.770	2.930	186.35	-3.20	3.60	 	 	 	 	 	 	 	 	 	 	 	 	 	 	 	 	 	 	1581499076	8.70	16.11
12/02/2020 09:17:57	120220	12022020	091757	185.69	12.716948	-57.150267	185.69	0.150	-1.950	3.820	185.55	-3.20	4.40	 	 	 	 	 	 	 	 	 	 	 	 	 	 	 	 	 	 	1581499077	9.06	16.78
12/02/2020 09:17:58	120220	12022020	091758	185.12	12.716912	-57.150278	185.25	0.200	-0.870	3.910	185.12	-2.00	4.30	 	 	 	 	 	 	 	 	 	 	 	 	 	 	 	 	 	 	1581499078	8.19	15.17
12/02/2020 09:17:59	120220	12022020	091759	185.29	12.716880	-57.150285	185.52	-0.060	0.670	3.150	185.40	-0.50	3.50	 	 	 	 	 	 	 	 	 	 	 	 	 	 	 	 	 	 	1581499079	6.88	12.74
12/02/2020 09:18:00	120220	12022020	091800	186.04	12.716852	-57.150288	186.14	-0.380	1.510	2.100	186.04	0.20	2.50	 	 	 	 	 	 	 	 	 	 	 	 	 	 	 	 	 	 	1581499080	6.37	11.80
12/02/2020 09:18:01	120220	12022020	091801	186.43	12.716818	-57.150288	186.59	-0.470	1.090	1.420	186.48	-0.40	1.90	1015.00	26.10	26.20	20.40	20.50	-1.0	70.0	71.0	390.0	25.7	271.00	9.70	75.00	10.40	16	9841.0	27.5	27.4	1581499081	6.98	12.93
12/02/2020 09:18:02	120220	12022020	091802	186.50	12.716782	-57.150293	186.58	-0.260	-0.020	1.430	186.47	-1.60	2.00	 	 	 	 	 	 	 	 	 	 	 	 	 	 	 	 	 	 	1581499082	8.07	14.95
12/02/2020 09:18:03	120220	12022020	091803	186.19	12.716742	-57.150300	186.22	0.090	-0.890	1.860	186.09	-2.30	2.40	 	 	 	 	 	 	 	 	 	 	 	 	 	 	 	 	 	 	1581499083	8.55	15.83
12/02/2020 09:18:04	120220	12022020	091804	185.63	12.716705	-57.150310	185.63	0.420	-1.130	2.380	185.51	-2.50	2.90	 	 	 	 	 	 	 	 	 	 	 	 	 	 	 	 	 	 	1581499084	8.24	15.26
12/02/2020 09:18:05	120220	12022020	091805	185.15	12.716670	-57.150318	185.24	0.640	-0.710	2.430	185.12	-2.00	2.80	 	 	 	 	 	 	 	 	 	 	 	 	 	 	 	 	 	 	1581499085	7.69	14.24
12/02/2020 09:18:06	120220	12022020	091806	185.21	12.716638	-57.150323	185.38	0.650	-0.040	1.700	185.29	-1.30	2.10	 	 	 	 	 	 	 	 	 	 	 	 	 	 	 	 	 	 	1581499086	7.05	13.06
12/02/2020 09:18:07	120220	12022020	091807	185.67	12.716607	-57.150323	185.84	0.450	0.130	1.030	185.76	-1.30	1.50	 	 	 	 	 	 	 	 	 	 	 	 	 	 	 	 	 	 	1581499087	6.83	12.65
12/02/2020 09:18:08	120220	12022020	091808	185.92	12.716572	-57.150323	185.96	0.130	-0.570	1.260	185.90	-2.10	1.90	 	 	 	 	 	 	 	 	 	 	 	 	 	 	 	 	 	 	1581499088	7.38	13.67
12/02/2020 09:18:09	120220	12022020	091809	185.55	12.716533	-57.150330	185.54	-0.240	-1.470	2.260	185.44	-2.90	2.90	 	 	 	 	 	 	 	 	 	 	 	 	 	 	 	 	 	 	1581499089	8.41	15.58
12/02/2020 09:18:10	120220	12022020	091810	184.86	12.716493	-57.150342	184.99	-0.680	-1.440	3.460	184.86	-2.70	4.10	 	 	 	 	 	 	 	 	 	 	 	 	 	 	 	 	 	 	1581499090	8.90	16.48
12/02/2020 09:18:11	120220	12022020	091811	184.63	12.716458	-57.150360	184.77	-0.960	-0.250	4.050	184.63	-1.40	4.50	 	 	 	 	 	 	 	 	 	 	 	 	 	 	 	 	 	 	1581499091	8.38	15.52
12/02/2020 09:18:12	120220	12022020	091812	184.84	12.716428	-57.150375	185.05	-0.780	1.210	3.520	184.93	-0.00	3.80	 	 	 	 	 	 	 	 	 	 	 	 	 	 	 	 	 	 	1581499092	7.11	13.17
12/02/2020 09:18:13	120220	12022020	091813	185.37	12.716400	-57.150380	185.59	-0.190	1.660	2.270	185.48	0.20	2.60	 	 	 	 	 	 	 	 	 	 	 	 	 	 	 	 	 	 	1581499093	6.43	11.91
12/02/2020 09:18:14	120220	12022020	091814	185.94	12.716365	-57.150378	186.04	0.520	0.710	1.060	185.94	-0.90	1.40	 	 	 	 	 	 	 	 	 	 	 	 	 	 	 	 	 	 	1581499094	7.38	13.67
12/02/2020 09:18:15	120220	12022020	091815	186.10	12.716325	-57.150377	186.21	0.950	-0.760	0.470	186.12	-2.30	0.90	 	 	 	 	 	 	 	 	 	 	 	 	 	 	 	 	 	 	1581499095	8.62	15.96
12/02/2020 09:18:16	120220	12022020	091816	186.01	12.716285	-57.150377	186.11	0.890	-1.510	0.640	186.01	-2.90	1.20	 	 	 	 	 	 	 	 	 	 	 	 	 	 	 	 	 	 	1581499096	8.77	16.24
12/02/2020 09:18:17	120220	12022020	091817	185.87	12.716248	-57.150382	185.94	0.460	-1.170	1.140	185.85	-2.40	1.70	 	 	 	 	 	 	 	 	 	 	 	 	 	 	 	 	 	 	1581499097	7.84	14.52
12/02/2020 09:18:18	120220	12022020	091818	185.83	12.716217	-57.150388	185.94	-0.090	-0.410	1.620	185.85	-1.70	2.20	 	 	 	 	 	 	 	 	 	 	 	 	 	 	 	 	 	 	1581499098	6.89	12.76
12/02/2020 09:18:19	120220	12022020	091819	185.85	12.716187	-57.150397	185.93	-0.460	-0.070	2.200	185.83	-1.40	2.80	 	 	 	 	 	 	 	 	 	 	 	 	 	 	 	 	 	 	1581499099	6.71	12.43
12/02/2020 09:18:20	120220	12022020	091820	185.53	12.716153	-57.150407	185.63	-0.440	-0.470	2.820	185.53	-1.90	3.30	 	 	 	 	 	 	 	 	 	 	 	 	 	 	 	 	 	 	1581499100	7.47	13.83
12/02/2020 09:18:21	120220	12022020	091821	185.16	12.716115	-57.150418	185.21	-0.170	-0.950	3.080	185.10	-2.30	3.50	 	 	 	 	 	 	 	 	 	 	 	 	 	 	 	 	 	 	1581499101	8.43	15.61
12/02/2020 09:18:22	120220	12022020	091822	185.02	12.716077	-57.150427	185.14	-0.090	-0.630	3.020	185.04	-1.90	3.50	 	 	 	 	 	 	 	 	 	 	 	 	 	 	 	 	 	 	1581499102	8.54	15.82
12/02/2020 09:18:23	120220	12022020	091823	185.32	12.716042	-57.150433	185.50	-0.360	0.340	2.670	185.41	-0.90	3.10	 	 	 	 	 	 	 	 	 	 	 	 	 	 	 	 	 	 	1581499103	7.56	14.00
12/02/2020 09:18:24	120220	12022020	091824	185.76	12.716012	-57.150440	185.90	-0.620	1.050	2.060	185.83	-0.30	2.40	 	 	 	 	 	 	 	 	 	 	 	 	 	 	 	 	 	 	1581499104	6.75	12.50
12/02/2020 09:18:25	120220	12022020	091825	186.03	12.715980	-57.150445	186.14	-0.390	0.720	1.380	186.07	-0.80	1.80	 	 	 	 	 	 	 	 	 	 	 	 	 	 	 	 	 	 	1581499105	7.01	12.98
12/02/2020 09:18:26	120220	12022020	091826	186.16	12.715942	-57.150448	186.24	0.330	-0.330	0.860	186.18	-1.90	1.30	 	 	 	 	 	 	 	 	 	 	 	 	 	 	 	 	 	 	1581499106	8.05	14.91
12/02/2020 09:18:27	120220	12022020	091827	186.17	12.715902	-57.150452	186.23	0.990	-1.040	0.650	186.16	-2.40	1.10	 	 	 	 	 	 	 	 	 	 	 	 	 	 	 	 	 	 	1581499107	8.69	16.09
12/02/2020 09:18:28	120220	12022020	091828	186.19	12.715863	-57.150453	186.30	0.940	-0.750	0.660	186.22	-2.00	1.20	 	 	 	 	 	 	 	 	 	 	 	 	 	 	 	 	 	 	1581499108	8.18	15.15
12/02/2020 09:18:29	120220	12022020	091829	186.43	12.715832	-57.150455	186.60	0.120	0.190	0.910	186.51	-1.10	1.50	 	 	 	 	 	 	 	 	 	 	 	 	 	 	 	 	 	 	1581499109	7.00	12.96
12/02/2020 09:18:30	120220	12022020	091830	186.91	12.715802	-57.150462	187.01	-0.840	0.650	1.420	186.91	-0.80	2.00	 	 	 	 	 	 	 	 	 	 	 	 	 	 	 	 	 	 	1581499110	6.30	11.67
12/02/2020 09:18:31	120220	12022020	091831	186.98	12.715772	-57.150473	187.06	-1.070	-0.130	2.140	186.94	-1.70	2.70	 	 	 	 	 	 	 	 	 	 	 	 	 	 	 	 	 	 	1581499111	7.05	13.06
12/02/2020 09:18:32	120220	12022020	091832	186.41	12.715735	-57.150488	186.54	-0.300	-1.530	2.890	186.41	-3.10	3.40	 	 	 	 	 	 	 	 	 	 	 	 	 	 	 	 	 	 	1581499112	8.56	15.85
12/02/2020 09:18:33	120220	12022020	091833	185.89	12.715693	-57.150502	185.94	0.710	-2.050	3.080	185.79	-3.40	3.50	 	 	 	 	 	 	 	 	 	 	 	 	 	 	 	 	 	 	1581499113	9.27	17.17
12/02/2020 09:18:34	120220	12022020	091834	185.56	12.715655	-57.150507	185.67	0.930	-1.060	2.610	185.55	-2.20	3.00	 	 	 	 	 	 	 	 	 	 	 	 	 	 	 	 	 	 	1581499114	8.32	15.41
12/02/2020 09:18:35	120220	12022020	091835	185.67	12.715623	-57.150508	185.83	0.270	0.570	2.030	185.74	-0.60	2.50	 	 	 	 	 	 	 	 	 	 	 	 	 	 	 	 	 	 	1581499115	6.82	12.63
12/02/2020 09:18:36	120220	12022020	091836	186.07	12.715595	-57.150512	186.16	-0.520	1.450	1.700	186.07	0.10	2.20	 	 	 	 	 	 	 	 	 	 	 	 	 	 	 	 	 	 	1581499116	6.20	11.48
12/02/2020 09:18:37	120220	12022020	091837	186.26	12.715563	-57.150517	186.39	-0.720	1.100	1.550	186.30	-0.40	2.00	 	 	 	 	 	 	 	 	 	 	 	 	 	 	 	 	 	 	1581499117	7.01	12.98
12/02/2020 09:18:38	120220	12022020	091838	186.41	12.715525	-57.150523	186.50	-0.390	0.120	1.690	186.41	-1.40	2.20	 	 	 	 	 	 	 	 	 	 	 	 	 	 	 	 	 	 	1581499118	8.15	15.09
12/02/2020 09:18:39	120220	12022020	091839	186.40	12.715487	-57.150533	186.48	0.040	-0.660	1.900	186.38	-2.10	2.40	 	 	 	 	 	 	 	 	 	 	 	 	 	 	 	 	 	 	1581499119	8.59	15.91
12/02/2020 09:18:40	120220	12022020	091840	186.34	12.715450	-57.150542	186.42	0.250	-0.850	1.820	186.33	-2.20	2.30	 	 	 	 	 	 	 	 	 	 	 	 	 	 	 	 	 	 	1581499120	8.18	15.15
12/02/2020 09:18:41	120220	12022020	091841	186.31	12.715415	-57.150548	186.36	0.250	-0.670	1.540	186.31	-2.00	2.00	 	 	 	 	 	 	 	 	 	 	 	 	 	 	 	 	 	 	1581499121	7.46	13.82
12/02/2020 09:18:42	120220	12022020	091842	186.27	12.715383	-57.150553	186.29	0.240	-0.590	1.370	186.24	-2.00	1.90	 	 	 	 	 	 	 	 	 	 	 	 	 	 	 	 	 	 	1581499122	7.15	13.24
12/02/2020 09:18:43	120220	12022020	091843	186.10	12.715348	-57.150558	186.12	0.260	-0.650	1.450	186.06	-2.00	2.00	 	 	 	 	 	 	 	 	 	 	 	 	 	 	 	 	 	 	1581499123	7.45	13.80
12/02/2020 09:18:44	120220	12022020	091844	185.91	12.715313	-57.150563	185.98	0.120	-0.510	1.730	185.91	-1.80	2.30	 	 	 	 	 	 	 	 	 	 	 	 	 	 	 	 	 	 	1581499124	7.75	14.35
12/02/2020 09:18:45	120220	12022020	091845	185.88	12.715278	-57.150572	185.97	-0.210	-0.140	2.010	185.90	-1.40	2.50	 	 	 	 	 	 	 	 	 	 	 	 	 	 	 	 	 	 	1581499125	7.61	14.09
12/02/2020 09:18:46	120220	12022020	091846	186.05	12.715245	-57.150580	186.22	-0.480	0.260	2.020	186.12	-1.10	2.50	 	 	 	 	 	 	 	 	 	 	 	 	 	 	 	 	 	 	1581499126	7.46	13.82
12/02/2020 09:18:47	120220	12022020	091847	186.49	12.715212	-57.150587	186.68	-0.500	0.520	1.830	186.58	-0.90	2.30	 	 	 	 	 	 	 	 	 	 	 	 	 	 	 	 	 	 	1581499127	7.35	13.61
12/02/2020 09:18:48	120220	12022020	091848	186.83	12.715178	-57.150595	186.93	-0.180	0.270	1.770	186.84	-1.20	2.30	 	 	 	 	 	 	 	 	 	 	 	 	 	 	 	 	 	 	1581499128	7.36	13.63
12/02/2020 09:18:49	120220	12022020	091849	186.67	12.715142	-57.150602	186.70	0.440	-0.540	1.890	186.60	-2.00	2.40	 	 	 	 	 	 	 	 	 	 	 	 	 	 	 	 	 	 	1581499129	7.87	14.58
12/02/2020 09:18:50	120220	12022020	091850	186.26	12.715103	-57.150608	186.38	0.940	-1.080	2.020	186.26	-2.50	2.50	 	 	 	 	 	 	 	 	 	 	 	 	 	 	 	 	 	 	1581499130	8.49	15.72
12/02/2020 09:18:51	120220	12022020	091851	186.12	12.715065	-57.150612	186.21	0.840	-0.780	2.190	186.08	-2.10	2.70	 	 	 	 	 	 	 	 	 	 	 	 	 	 	 	 	 	 	1581499131	8.15	15.09
12/02/2020 09:18:52	120220	12022020	091852	185.99	12.715032	-57.150617	186.12	0.070	-0.080	2.270	185.99	-1.40	2.80	 	 	 	 	 	 	 	 	 	 	 	 	 	 	 	 	 	 	1581499132	7.25	13.43
12/02/2020 09:18:53	120220	12022020	091853	185.94	12.715000	-57.150623	186.06	-0.870	0.310	2.440	185.94	-1.10	3.00	 	 	 	 	 	 	 	 	 	 	 	 	 	 	 	 	 	 	1581499133	6.94	12.85
12/02/2020 09:18:54	120220	12022020	091854	185.94	12.714967	-57.150635	186.08	-1.310	0.130	2.710	185.96	-1.30	3.20	 	 	 	 	 	 	 	 	 	 	 	 	 	 	 	 	 	 	1581499134	7.52	13.93
12/02/2020 09:18:55	120220	12022020	091855	186.04	12.714932	-57.150650	186.17	-0.920	-0.330	2.660	186.05	-1.80	3.10	 	 	 	 	 	 	 	 	 	 	 	 	 	 	 	 	 	 	1581499135	8.25	15.28
12/02/2020 09:18:56	120220	12022020	091856	186.21	12.714895	-57.150662	186.31	0.000	-0.600	2.140	186.21	-2.00	2.50	 	 	 	 	 	 	 	 	 	 	 	 	 	 	 	 	 	 	1581499136	8.36	15.48
12/02/2020 09:18:57	120220	12022020	091857	186.54	12.714858	-57.150668	186.73	0.770	-0.350	1.230	186.65	-1.60	1.60	 	 	 	 	 	 	 	 	 	 	 	 	 	 	 	 	 	 	1581499137	8.01	14.83
12/02/2020 09:18:58	120220	12022020	091858	187.16	12.714823	-57.150668	187.36	0.900	0.260	0.280	187.29	-1.00	0.70	 	 	 	 	 	 	 	 	 	 	 	 	 	 	 	 	 	 	1581499138	7.33	13.58
12/02/2020 09:18:59	120220	12022020	091859	187.74	12.714792	-57.150667	187.87	0.510	0.470	-0.230	187.80	-0.90	0.30	 	 	 	 	 	 	 	 	 	 	 	 	 	 	 	 	 	 	1581499139	6.88	12.74
12/02/2020 09:19:00	120220	12022020	091900	187.87	12.714758	-57.150668	187.90	0.100	-0.170	0.130	187.83	-1.70	0.70	 	 	 	 	 	 	 	 	 	 	 	 	 	 	 	 	 	 	1581499140	7.18	13.30
12/02/2020 09:19:01	120220	12022020	091901	187.46	12.714722	-57.150675	187.41	-0.020	-1.130	1.230	187.31	-2.60	1.90	1015.00	26.20	26.20	20.80	20.80	-1.0	72.0	72.0	391.0	25.7	271.00	9.30	73.00	10.10	16	10056.0	27.5	27.5	1581499141	8.05	14.91
12/02/2020 09:19:02	120220	12022020	091902	186.47	12.714683	-57.150685	186.60	-0.050	-1.630	2.670	186.47	-3.00	3.30	 	 	 	 	 	 	 	 	 	 	 	 	 	 	 	 	 	 	1581499142	8.58	15.89
12/02/2020 09:19:03	120220	12022020	091903	185.89	12.714647	-57.150700	185.93	-0.240	-1.260	3.870	185.79	-2.50	4.40	 	 	 	 	 	 	 	 	 	 	 	 	 	 	 	 	 	 	1581499143	8.48	15.70
12/02/2020 09:19:04	120220	12022020	091904	185.54	12.714613	-57.150715	185.66	-0.520	-0.290	4.310	185.52	-1.50	4.80	 	 	 	 	 	 	 	 	 	 	 	 	 	 	 	 	 	 	1581499144	7.92	14.67
12/02/2020 09:19:05	120220	12022020	091905	185.55	12.714582	-57.150728	185.72	-0.600	0.590	3.920	185.58	-0.70	4.30	 	 	 	 	 	 	 	 	 	 	 	 	 	 	 	 	 	 	1581499145	7.30	13.52
12/02/2020 09:19:06	120220	12022020	091906	185.77	12.714548	-57.150735	185.96	-0.380	0.770	2.920	185.84	-0.60	3.20	 	 	 	 	 	 	 	 	 	 	 	 	 	 	 	 	 	 	1581499146	7.28	13.48
12/02/2020 09:19:07	120220	12022020	091907	186.20	12.714512	-57.150738	186.43	-0.130	0.470	1.810	186.32	-0.90	2.10	 	 	 	 	 	 	 	 	 	 	 	 	 	 	 	 	 	 	1581499147	7.84	14.52
12/02/2020 09:19:08	120220	12022020	091908	186.88	12.714475	-57.150742	186.97	-0.030	0.220	0.890	186.88	-1.20	1.30	 	 	 	 	 	 	 	 	 	 	 	 	 	 	 	 	 	 	1581499148	7.95	14.72
12/02/2020 09:19:09	120220	12022020	091909	187.14	12.714440	-57.150747	187.24	0.100	-0.000	0.450	187.18	-1.40	0.90	 	 	 	 	 	 	 	 	 	 	 	 	 	 	 	 	 	 	1581499149	7.57	14.02
12/02/2020 09:19:10	120220	12022020	091910	187.16	12.714407	-57.150753	187.21	0.480	-0.290	0.410	187.14	-1.70	0.90	 	 	 	 	 	 	 	 	 	 	 	 	 	 	 	 	 	 	1581499150	7.41	13.72
12/02/2020 09:19:11	120220	12022020	091911	186.98	12.714372	-57.150758	187.04	0.990	-0.540	0.610	186.96	-1.90	1.10	 	 	 	 	 	 	 	 	 	 	 	 	 	 	 	 	 	 	1581499151	7.52	13.93
12/02/2020 09:19:12	120220	12022020	091912	187.04	12.714337	-57.150762	187.15	1.120	-0.660	0.780	187.04	-2.10	1.30	 	 	 	 	 	 	 	 	 	 	 	 	 	 	 	 	 	 	1581499152	7.60	14.08
12/02/2020 09:19:13	120220	12022020	091913	187.16	12.714302	-57.150763	187.29	0.600	-0.880	1.470	187.16	-2.30	2.10	 	 	 	 	 	 	 	 	 	 	 	 	 	 	 	 	 	 	1581499153	7.55	13.98
12/02/2020 09:19:14	120220	12022020	091914	186.94	12.714267	-57.150772	187.11	-0.280	-1.120	2.890	186.94	-2.50	3.60	 	 	 	 	 	 	 	 	 	 	 	 	 	 	 	 	 	 	1581499154	7.75	14.35
12/02/2020 09:19:15	120220	12022020	091915	186.58	12.714232	-57.150788	186.69	-0.930	-1.060	4.260	186.49	-2.40	4.90	 	 	 	 	 	 	 	 	 	 	 	 	 	 	 	 	 	 	1581499155	8.19	15.17
12/02/2020 09:19:16	120220	12022020	091916	186.04	12.714197	-57.150805	186.24	-1.140	-0.670	5.050	186.04	-2.00	5.60	 	 	 	 	 	 	 	 	 	 	 	 	 	 	 	 	 	 	1581499156	8.22	15.22
12/02/2020 09:19:17	120220	12022020	091917	185.79	12.714163	-57.150820	185.96	-1.050	-0.180	5.170	185.76	-1.50	5.60	 	 	 	 	 	 	 	 	 	 	 	 	 	 	 	 	 	 	1581499157	8.01	14.83
12/02/2020 09:19:18	120220	12022020	091918	185.71	12.714128	-57.150833	185.91	-0.710	0.200	4.530	185.72	-1.10	4.90	 	 	 	 	 	 	 	 	 	 	 	 	 	 	 	 	 	 	1581499158	7.88	14.59
12/02/2020 09:19:19	120220	12022020	091919	185.79	12.714093	-57.150842	185.98	-0.120	0.400	3.320	185.81	-0.90	3.60	 	 	 	 	 	 	 	 	 	 	 	 	 	 	 	 	 	 	1581499159	7.79	14.43
12/02/2020 09:19:20	120220	12022020	091920	185.92	12.714057	-57.150845	186.05	0.620	0.410	1.890	185.92	-1.00	2.20	 	 	 	 	 	 	 	 	 	 	 	 	 	 	 	 	 	 	1581499160	7.82	14.48
12/02/2020 09:19:21	120220	12022020	091921	186.01	12.714020	-57.150843	186.16	1.170	0.360	0.730	186.05	-1.00	1.10	 	 	 	 	 	 	 	 	 	 	 	 	 	 	 	 	 	 	1581499161	7.97	14.76
12/02/2020 09:19:22	120220	12022020	091922	186.31	12.713983	-57.150840	186.50	1.180	0.420	-0.090	186.40	-0.90	0.40	 	 	 	 	 	 	 	 	 	 	 	 	 	 	 	 	 	 	1581499162	7.92	14.67
12/02/2020 09:19:23	120220	12022020	091923	186.80	12.713948	-57.150837	186.96	0.640	0.370	-0.160	186.87	-1.10	0.40	 	 	 	 	 	 	 	 	 	 	 	 	 	 	 	 	 	 	1581499163	7.47	13.83
12/02/2020 09:19:24	120220	12022020	091924	187.13	12.713915	-57.150840	187.22	-0.070	-0.190	0.850	187.13	-1.70	1.60	 	 	 	 	 	 	 	 	 	 	 	 	 	 	 	 	 	 	1581499164	7.20	13.33
12/02/2020 09:19:25	120220	12022020	091925	187.15	12.713882	-57.150852	187.27	-0.550	-1.030	2.370	187.13	-2.50	3.10	 	 	 	 	 	 	 	 	 	 	 	 	 	 	 	 	 	 	1581499165	7.82	14.48
12/02/2020 09:19:26	120220	12022020	091926	186.85	12.713847	-57.150870	187.03	-0.660	-1.670	3.860	186.85	-3.10	4.50	 	 	 	 	 	 	 	 	 	 	 	 	 	 	 	 	 	 	1581499166	8.39	15.54
12/02/2020 09:19:27	120220	12022020	091927	186.34	12.713812	-57.150888	186.38	-0.390	-1.980	4.870	186.18	-3.30	5.40	 	 	 	 	 	 	 	 	 	 	 	 	 	 	 	 	 	 	1581499167	8.48	15.70
12/02/2020 09:19:28	120220	12022020	091928	185.47	12.713777	-57.150905	185.50	0.120	-1.790	4.990	185.30	-3.00	5.40	 	 	 	 	 	 	 	 	 	 	 	 	 	 	 	 	 	 	1581499168	8.38	15.52
12/02/2020 09:19:29	120220	12022020	091929	184.81	12.713740	-57.150913	184.95	0.520	-0.790	4.170	184.77	-1.90	4.50	 	 	 	 	 	 	 	 	 	 	 	 	 	 	 	 	 	 	1581499169	7.99	14.80
12/02/2020 09:19:30	120220	12022020	091930	185.05	12.713707	-57.150915	185.20	0.400	0.750	2.650	185.05	-0.40	2.90	 	 	 	 	 	 	 	 	 	 	 	 	 	 	 	 	 	 	1581499170	7.30	13.52
12/02/2020 09:19:31	120220	12022020	091931	185.65	12.713675	-57.150910	185.89	-0.170	1.670	1.140	185.80	0.30	1.50	 	 	 	 	 	 	 	 	 	 	 	 	 	 	 	 	 	 	1581499171	6.82	12.63
12/02/2020 09:19:32	120220	12022020	091932	186.30	12.713642	-57.150908	186.38	-0.620	1.250	0.500	186.30	-0.30	1.00	 	 	 	 	 	 	 	 	 	 	 	 	 	 	 	 	 	 	1581499172	7.21	13.35
12/02/2020 09:19:33	120220	12022020	091933	186.44	12.713603	-57.150912	186.54	-0.520	0.050	0.720	186.46	-1.50	1.30	 	 	 	 	 	 	 	 	 	 	 	 	 	 	 	 	 	 	1581499173	8.28	15.33
12/02/2020 09:19:34	120220	12022020	091934	186.42	12.713563	-57.150922	186.51	0.020	-0.790	1.290	186.42	-2.20	1.90	 	 	 	 	 	 	 	 	 	 	 	 	 	 	 	 	 	 	1581499174	8.83	16.35
12/02/2020 09:19:35	120220	12022020	091935	186.19	12.713525	-57.150930	186.23	0.550	-0.980	1.890	186.12	-2.30	2.50	 	 	 	 	 	 	 	 	 	 	 	 	 	 	 	 	 	 	1581499175	8.28	15.33
12/02/2020 09:19:36	120220	12022020	091936	185.80	12.713490	-57.150938	185.85	0.630	-0.830	2.410	185.74	-2.10	3.00	 	 	 	 	 	 	 	 	 	 	 	 	 	 	 	 	 	 	1581499176	7.64	14.15
12/02/2020 09:19:37	120220	12022020	091937	185.59	12.713457	-57.150945	185.72	0.230	-0.480	2.700	185.59	-1.80	3.20	 	 	 	 	 	 	 	 	 	 	 	 	 	 	 	 	 	 	1581499177	7.46	13.82
12/02/2020 09:19:38	120220	12022020	091938	185.78	12.713423	-57.150953	185.91	-0.360	0.030	2.730	185.78	-1.30	3.20	 	 	 	 	 	 	 	 	 	 	 	 	 	 	 	 	 	 	1581499178	7.27	13.46
12/02/2020 09:19:39	120220	12022020	091939	186.05	12.713392	-57.150963	186.24	-0.730	0.320	2.550	186.12	-1.00	3.00	 	 	 	 	 	 	 	 	 	 	 	 	 	 	 	 	 	 	1581499179	7.08	13.11
12/02/2020 09:19:40	120220	12022020	091940	186.36	12.713360	-57.150972	186.48	-0.570	0.090	2.190	186.36	-1.30	2.60	 	 	 	 	 	 	 	 	 	 	 	 	 	 	 	 	 	 	1581499180	7.28	13.48
12/02/2020 09:19:41	120220	12022020	091941	186.33	12.713323	-57.150980	186.41	0.040	-0.580	1.930	186.29	-2.00	2.40	 	 	 	 	 	 	 	 	 	 	 	 	 	 	 	 	 	 	1581499181	7.84	14.52
12/02/2020 09:19:42	120220	12022020	091942	186.02	12.713285	-57.150985	186.14	0.690	-1.050	1.830	186.02	-2.40	2.30	 	 	 	 	 	 	 	 	 	 	 	 	 	 	 	 	 	 	1581499182	8.37	15.50
12/02/2020 09:19:43	120220	12022020	091943	186.01	12.713247	-57.150990	186.17	0.910	-0.720	1.550	186.06	-2.00	2.00	 	 	 	 	 	 	 	 	 	 	 	 	 	 	 	 	 	 	1581499183	8.25	15.28
12/02/2020 09:19:44	120220	12022020	091944	186.53	12.713213	-57.150992	186.63	0.560	0.130	1.160	186.53	-1.10	1.60	 	 	 	 	 	 	 	 	 	 	 	 	 	 	 	 	 	 	1581499184	7.39	13.69
12/02/2020 09:19:45	120220	12022020	091945	186.87	12.713182	-57.150993	187.02	0.010	0.440	1.230	186.92	-1.00	1.80	 	 	 	 	 	 	 	 	 	 	 	 	 	 	 	 	 	 	1581499185	6.80	12.59
12/02/2020 09:19:46	120220	12022020	091946	186.88	12.713147	-57.150998	186.93	-0.310	-0.180	1.870	186.82	-1.70	2.50	 	 	 	 	 	 	 	 	 	 	 	 	 	 	 	 	 	 	1581499186	7.41	13.72
12/02/2020 09:19:47	120220	12022020	091947	186.48	12.713108	-57.151008	186.52	-0.430	-0.870	2.780	186.38	-2.30	3.40	 	 	 	 	 	 	 	 	 	 	 	 	 	 	 	 	 	 	1581499187	8.48	15.70
12/02/2020 09:19:48	120220	12022020	091948	186.07	12.713072	-57.151020	186.16	-0.560	-0.870	3.570	186.01	-2.20	4.10	 	 	 	 	 	 	 	 	 	 	 	 	 	 	 	 	 	 	1581499188	8.59	15.91
12/02/2020 09:19:49	120220	12022020	091949	185.83	12.713037	-57.151033	185.95	-0.650	-0.350	3.770	185.81	-1.60	4.20	 	 	 	 	 	 	 	 	 	 	 	 	 	 	 	 	 	 	1581499189	8.01	14.83
12/02/2020 09:19:50	120220	12022020	091950	185.81	12.713003	-57.151045	185.96	-0.510	0.190	3.300	185.82	-1.10	3.70	 	 	 	 	 	 	 	 	 	 	 	 	 	 	 	 	 	 	1581499190	7.53	13.95
12/02/2020 09:19:51	120220	12022020	091951	185.95	12.712970	-57.151053	186.11	-0.150	0.440	2.470	185.99	-0.90	2.80	 	 	 	 	 	 	 	 	 	 	 	 	 	 	 	 	 	 	1581499191	7.40	13.70
12/02/2020 09:19:52	120220	12022020	091952	186.14	12.712935	-57.151057	186.28	0.250	0.340	1.570	186.17	-1.00	1.90	 	 	 	 	 	 	 	 	 	 	 	 	 	 	 	 	 	 	1581499192	7.58	14.04
12/02/2020 09:19:53	120220	12022020	091953	186.20	12.712898	-57.151058	186.30	0.510	0.060	0.850	186.20	-1.30	1.30	 	 	 	 	 	 	 	 	 	 	 	 	 	 	 	 	 	 	1581499193	7.79	14.43
12/02/2020 09:19:54	120220	12022020	091954	186.22	12.712862	-57.151060	186.34	0.560	-0.280	0.550	186.24	-1.70	1.10	 	 	 	 	 	 	 	 	 	 	 	 	 	 	 	 	 	 	1581499194	7.84	14.52
12/02/2020 09:19:55	120220	12022020	091955	186.33	12.712827	-57.151063	186.47	0.470	-0.560	0.580	186.36	-1.90	1.10	 	 	 	 	 	 	 	 	 	 	 	 	 	 	 	 	 	 	1581499195	7.78	14.41
12/02/2020 09:19:56	120220	12022020	091956	186.43	12.712790	-57.151068	186.54	0.360	-0.730	0.750	186.44	-2.10	1.30	 	 	 	 	 	 	 	 	 	 	 	 	 	 	 	 	 	 	1581499196	7.69	14.24
12/02/2020 09:19:57	120220	12022020	091957	186.47	12.712755	-57.151075	186.60	0.210	-0.770	1.170	186.48	-2.10	1.70	 	 	 	 	 	 	 	 	 	 	 	 	 	 	 	 	 	 	1581499197	7.65	14.17
12/02/2020 09:19:58	120220	12022020	091958	186.52	12.712720	-57.151082	186.66	-0.010	-0.740	1.660	186.53	-2.10	2.20	 	 	 	 	 	 	 	 	 	 	 	 	 	 	 	 	 	 	1581499198	7.64	14.15
12/02/2020 09:19:59	120220	12022020	091959	186.48	12.712685	-57.151090	186.58	-0.290	-0.680	2.290	186.44	-2.00	2.90	 	 	 	 	 	 	 	 	 	 	 	 	 	 	 	 	 	 	1581499199	7.73	14.32
12/02/2020 09:20:00	120220	12022020	092000	186.10	12.712650	-57.151100	186.25	-0.590	-0.510	3.210	186.10	-1.80	3.80	 	 	 	 	 	 	 	 	 	 	 	 	 	 	 	 	 	 	1581499200	7.88	14.59
12/02/2020 09:20:01	120220	12022020	092001	185.75	12.712615	-57.151112	185.83	-0.830	-0.280	3.950	185.68	-1.60	4.50	1014.90	26.20	26.20	20.80	20.90	-1.0	72.0	72.0	391.0	25.7	271.00	9.50	75.00	10.20	16	9073.0	27.5	27.4	1581499201	8.02	14.85
12/02/2020 09:20:02	120220	12022020	092002	185.37	12.712578	-57.151125	185.46	-0.870	-0.050	4.240	185.31	-1.40	4.70	 	 	 	 	 	 	 	 	 	 	 	 	 	 	 	 	 	 	1581499202	8.19	15.17
12/02/2020 09:20:03	120220	12022020	092003	185.15	12.712543	-57.151138	185.27	-0.530	0.210	4.000	185.14	-1.10	4.40	 	 	 	 	 	 	 	 	 	 	 	 	 	 	 	 	 	 	1581499203	8.27	15.32
12/02/2020 09:20:04	120220	12022020	092004	185.23	12.712507	-57.151148	185.38	0.090	0.630	2.990	185.27	-0.70	3.30	 	 	 	 	 	 	 	 	 	 	 	 	 	 	 	 	 	 	1581499204	7.95	14.72
12/02/2020 09:20:05	120220	12022020	092005	185.55	12.712472	-57.151150	185.71	0.700	0.880	1.520	185.64	-0.50	1.80	 	 	 	 	 	 	 	 	 	 	 	 	 	 	 	 	 	 	1581499205	7.45	13.80
12/02/2020 09:20:06	120220	12022020	092006	185.99	12.712438	-57.151147	186.14	1.030	0.550	0.190	186.08	-0.90	0.50	 	 	 	 	 	 	 	 	 	 	 	 	 	 	 	 	 	 	1581499206	7.48	13.85
12/02/2020 09:20:07	120220	12022020	092007	186.42	12.712402	-57.151143	186.56	0.990	-0.240	-0.490	186.50	-1.70	-0.00	 	 	 	 	 	 	 	 	 	 	 	 	 	 	 	 	 	 	1581499207	7.89	14.61
12/02/2020 09:20:08	120220	12022020	092008	186.70	12.712363	-57.151143	186.79	0.530	-1.030	-0.210	186.71	-2.50	0.40	 	 	 	 	 	 	 	 	 	 	 	 	 	 	 	 	 	 	1581499208	8.02	14.85
12/02/2020 09:20:09	120220	12022020	092009	186.63	12.712328	-57.151148	186.68	-0.160	-1.540	1.000	186.58	-3.00	1.70	 	 	 	 	 	 	 	 	 	 	 	 	 	 	 	 	 	 	1581499209	7.86	14.56
12/02/2020 09:20:10	120220	12022020	092010	186.18	12.712293	-57.151162	186.31	-0.690	-1.720	2.650	186.18	-3.10	3.30	 	 	 	 	 	 	 	 	 	 	 	 	 	 	 	 	 	 	1581499210	8.00	14.82
12/02/2020 09:20:11	120220	12022020	092011	185.64	12.712258	-57.151182	185.63	-0.710	-1.630	4.100	185.48	-2.90	4.70	 	 	 	 	 	 	 	 	 	 	 	 	 	 	 	 	 	 	1581499211	8.40	15.56
12/02/2020 09:20:12	120220	12022020	092012	184.81	12.712223	-57.151200	184.81	-0.240	-1.230	4.850	184.66	-2.50	5.30	 	 	 	 	 	 	 	 	 	 	 	 	 	 	 	 	 	 	1581499212	8.54	15.82
12/02/2020 09:20:13	120220	12022020	092013	184.30	12.712187	-57.151212	184.41	0.170	-0.230	4.680	184.28	-1.40	5.00	 	 	 	 	 	 	 	 	 	 	 	 	 	 	 	 	 	 	1581499213	8.28	15.33
12/02/2020 09:20:14	120220	12022020	092014	184.56	12.712152	-57.151215	184.82	0.020	1.140	3.740	184.69	-0.10	4.00	 	 	 	 	 	 	 	 	 	 	 	 	 	 	 	 	 	 	1581499214	7.54	13.96
12/02/2020 09:20:15	120220	12022020	092015	185.44	12.712120	-57.151215	185.75	-0.560	1.960	2.390	185.65	0.60	2.70	 	 	 	 	 	 	 	 	 	 	 	 	 	 	 	 	 	 	1581499215	6.95	12.87
12/02/2020 09:20:16	120220	12022020	092016	186.53	12.712087	-57.151215	186.60	-0.960	1.600	1.350	186.53	0.10	1.70	 	 	 	 	 	 	 	 	 	 	 	 	 	 	 	 	 	 	1581499216	7.08	13.11
12/02/2020 09:20:17	120220	12022020	092017	186.86	12.712050	-57.151218	186.95	-0.610	0.140	1.000	186.87	-1.50	1.50	 	 	 	 	 	 	 	 	 	 	 	 	 	 	 	 	 	 	1581499217	7.87	14.58
12/02/2020 09:20:18	120220	12022020	092018	186.54	12.712010	-57.151227	186.63	0.470	-1.580	1.150	186.54	-3.10	1.70	 	 	 	 	 	 	 	 	 	 	 	 	 	 	 	 	 	 	1581499218	8.81	16.32
12/02/2020 09:20:19	120220	12022020	092019	186.05	12.711968	-57.151233	186.03	1.440	-2.290	1.390	185.94	-3.60	1.90	 	 	 	 	 	 	 	 	 	 	 	 	 	 	 	 	 	 	1581499219	9.06	16.78
12/02/2020 09:20:20	120220	12022020	092020	185.62	12.711930	-57.151237	185.71	1.480	-1.490	1.560	185.62	-2.60	2.10	 	 	 	 	 	 	 	 	 	 	 	 	 	 	 	 	 	 	1581499220	8.11	15.02
12/02/2020 09:20:21	120220	12022020	092021	185.64	12.711900	-57.151240	185.75	0.590	-0.010	1.600	185.68	-1.20	2.10	 	 	 	 	 	 	 	 	 	 	 	 	 	 	 	 	 	 	1581499221	6.75	12.50
12/02/2020 09:20:22	120220	12022020	092022	185.95	12.711870	-57.151245	186.14	-0.540	0.980	1.580	186.05	-0.30	2.10	 	 	 	 	 	 	 	 	 	 	 	 	 	 	 	 	 	 	1581499222	6.30	11.67
12/02/2020 09:20:23	120220	12022020	092023	186.45	12.711838	-57.151252	186.64	-1.210	1.000	1.720	186.54	-0.50	2.20	 	 	 	 	 	 	 	 	 	 	 	 	 	 	 	 	 	 	1581499223	6.92	12.82
12/02/2020 09:20:24	120220	12022020	092024	186.74	12.711803	-57.151263	186.84	-1.110	0.220	2.190	186.74	-1.30	2.70	 	 	 	 	 	 	 	 	 	 	 	 	 	 	 	 	 	 	1581499224	7.89	14.61
12/02/2020 09:20:25	120220	12022020	092025	186.52	12.711767	-57.151277	186.53	-0.430	-0.880	2.800	186.43	-2.40	3.30	 	 	 	 	 	 	 	 	 	 	 	 	 	 	 	 	 	 	1581499225	8.71	16.13
12/02/2020 09:20:26	120220	12022020	092026	186.09	12.711725	-57.151288	186.15	0.270	-1.350	2.970	186.05	-2.70	3.40	 	 	 	 	 	 	 	 	 	 	 	 	 	 	 	 	 	 	1581499226	9.04	16.74
12/02/2020 09:20:27	120220	12022020	092027	186.08	12.711688	-57.151297	186.21	0.520	-0.750	2.500	186.13	-2.00	2.90	 	 	 	 	 	 	 	 	 	 	 	 	 	 	 	 	 	 	1581499227	8.27	15.32
12/02/2020 09:20:28	120220	12022020	092028	186.49	12.711655	-57.151300	186.56	0.370	0.110	1.670	186.49	-1.20	2.00	 	 	 	 	 	 	 	 	 	 	 	 	 	 	 	 	 	 	1581499228	7.05	13.06
12/02/2020 09:20:29	120220	12022020	092029	186.70	12.711623	-57.151302	186.80	0.210	0.240	0.930	186.74	-1.20	1.30	 	 	 	 	 	 	 	 	 	 	 	 	 	 	 	 	 	 	1581499229	6.92	12.82
12/02/2020 09:20:30	120220	12022020	092030	186.83	12.711587	-57.151302	186.92	0.190	-0.230	0.580	186.85	-1.70	1.00	 	 	 	 	 	 	 	 	 	 	 	 	 	 	 	 	 	 	1581499230	7.77	14.39
12/02/2020 09:20:31	120220	12022020	092031	186.88	12.711548	-57.151305	186.94	0.160	-0.570	0.740	186.87	-2.00	1.30	 	 	 	 	 	 	 	 	 	 	 	 	 	 	 	 	 	 	1581499231	8.28	15.33
12/02/2020 09:20:32	120220	12022020	092032	186.67	12.711512	-57.151312	186.76	0.030	-0.630	1.340	186.67	-2.00	1.90	 	 	 	 	 	 	 	 	 	 	 	 	 	 	 	 	 	 	1581499232	8.09	14.98
12/02/2020 09:20:33	120220	12022020	092033	186.32	12.711477	-57.151322	186.32	-0.140	-0.530	2.240	186.21	-1.90	2.80	 	 	 	 	 	 	 	 	 	 	 	 	 	 	 	 	 	 	1581499233	7.97	14.76
12/02/2020 09:20:34	120220	12022020	092034	185.85	12.711440	-57.151333	185.93	-0.320	-0.140	3.010	185.80	-1.40	3.50	 	 	 	 	 	 	 	 	 	 	 	 	 	 	 	 	 	 	1581499234	8.08	14.96
12/02/2020 09:20:35	120220	12022020	092035	185.88	12.711405	-57.151343	186.11	-0.550	0.590	3.200	185.97	-0.70	3.60	 	 	 	 	 	 	 	 	 	 	 	 	 	 	 	 	 	 	1581499235	7.85	14.54
12/02/2020 09:20:36	120220	12022020	092036	186.47	12.711373	-57.151355	186.73	-0.690	1.070	2.830	186.61	-0.30	3.20	 	 	 	 	 	 	 	 	 	 	 	 	 	 	 	 	 	 	1581499236	7.28	13.48
12/02/2020 09:20:37	120220	12022020	092037	187.07	12.711340	-57.151363	187.25	-0.440	0.780	2.170	187.15	-0.70	2.50	 	 	 	 	 	 	 	 	 	 	 	 	 	 	 	 	 	 	1581499237	7.22	13.37
12/02/2020 09:20:38	120220	12022020	092038	187.33	12.711305	-57.151370	187.43	0.320	-0.230	1.430	187.35	-1.80	1.80	 	 	 	 	 	 	 	 	 	 	 	 	 	 	 	 	 	 	1581499238	7.77	14.39
12/02/2020 09:20:39	120220	12022020	092039	187.31	12.711267	-57.151373	187.38	1.160	-1.310	0.720	187.29	-2.80	1.10	 	 	 	 	 	 	 	 	 	 	 	 	 	 	 	 	 	 	1581499239	8.42	15.59
12/02/2020 09:20:40	120220	12022020	092040	187.14	12.711227	-57.151373	187.19	1.430	-1.750	0.510	187.09	-3.10	1.00	 	 	 	 	 	 	 	 	 	 	 	 	 	 	 	 	 	 	1581499240	8.51	15.76
12/02/2020 09:20:41	120220	12022020	092041	186.86	12.711190	-57.151375	186.91	0.910	-1.430	0.910	186.80	-2.70	1.50	 	 	 	 	 	 	 	 	 	 	 	 	 	 	 	 	 	 	1581499241	7.88	14.59
12/02/2020 09:20:42	120220	12022020	092042	186.52	12.711157	-57.151380	186.57	-0.020	-0.720	1.590	186.44	-2.00	2.20	 	 	 	 	 	 	 	 	 	 	 	 	 	 	 	 	 	 	1581499242	7.34	13.59
12/02/2020 09:20:43	120220	12022020	092043	186.26	12.711123	-57.151390	186.38	-0.800	-0.030	2.330	186.24	-1.30	2.90	 	 	 	 	 	 	 	 	 	 	 	 	 	 	 	 	 	 	1581499243	7.38	13.67
12/02/2020 09:20:44	120220	12022020	092044	186.32	12.711090	-57.151403	186.47	-1.050	0.410	2.780	186.32	-0.90	3.20	 	 	 	 	 	 	 	 	 	 	 	 	 	 	 	 	 	 	1581499244	7.77	14.39
12/02/2020 09:20:45	120220	12022020	092045	186.56	12.711053	-57.151415	186.78	-0.870	0.550	2.750	186.64	-0.80	3.20	 	 	 	 	 	 	 	 	 	 	 	 	 	 	 	 	 	 	1581499245	8.09	14.98
12/02/2020 09:20:46	120220	12022020	092046	186.94	12.711017	-57.151425	187.15	-0.580	0.490	2.550	187.01	-0.90	3.00	 	 	 	 	 	 	 	 	 	 	 	 	 	 	 	 	 	 	1581499246	8.17	15.13
12/02/2020 09:20:47	120220	12022020	092047	187.18	12.710980	-57.151435	187.33	-0.380	0.250	2.300	187.20	-1.20	2.70	 	 	 	 	 	 	 	 	 	 	 	 	 	 	 	 	 	 	1581499247	8.13	15.06
12/02/2020 09:20:48	120220	12022020	092048	187.18	12.710943	-57.151443	187.30	-0.120	-0.060	1.950	187.18	-1.50	2.40	 	 	 	 	 	 	 	 	 	 	 	 	 	 	 	 	 	 	1581499248	8.09	14.98
12/02/2020 09:20:49	120220	12022020	092049	187.07	12.710907	-57.151450	187.14	0.400	-0.230	1.420	187.04	-1.60	1.80	 	 	 	 	 	 	 	 	 	 	 	 	 	 	 	 	 	 	1581499249	7.99	14.80
12/02/2020 09:20:50	120220	12022020	092050	187.03	12.710872	-57.151452	187.12	0.950	-0.140	0.640	187.03	-1.50	1.00	 	 	 	 	 	 	 	 	 	 	 	 	 	 	 	 	 	 	1581499250	7.74	14.33
12/02/2020 09:20:51	120220	12022020	092051	187.09	12.710837	-57.151450	187.18	1.100	-0.150	0.180	187.09	-1.60	0.70	 	 	 	 	 	 	 	 	 	 	 	 	 	 	 	 	 	 	1581499251	7.47	13.83
12/02/2020 09:20:52	120220	12022020	092052	186.96	12.710802	-57.151450	187.01	0.780	-0.610	0.450	186.91	-2.10	1.00	 	 	 	 	 	 	 	 	 	 	 	 	 	 	 	 	 	 	1581499252	7.51	13.91
12/02/2020 09:20:53	120220	12022020	092053	186.66	12.710765	-57.151457	186.72	0.220	-1.070	1.320	186.59	-2.50	1.90	 	 	 	 	 	 	 	 	 	 	 	 	 	 	 	 	 	 	1581499253	7.98	14.78
12/02/2020 09:20:54	120220	12022020	092054	186.38	12.710728	-57.151468	186.48	-0.260	-1.020	2.340	186.35	-2.30	2.90	 	 	 	 	 	 	 	 	 	 	 	 	 	 	 	 	 	 	1581499254	8.17	15.13
12/02/2020 09:20:55	120220	12022020	092055	186.28	12.710695	-57.151482	186.42	-0.460	-0.590	3.010	186.28	-1.90	3.50	 	 	 	 	 	 	 	 	 	 	 	 	 	 	 	 	 	 	1581499255	7.92	14.67
12/02/2020 09:20:56	120220	12022020	092056	186.27	12.710662	-57.151493	186.41	-0.400	-0.220	3.200	186.27	-1.50	3.60	 	 	 	 	 	 	 	 	 	 	 	 	 	 	 	 	 	 	1581499256	7.69	14.24
12/02/2020 09:20:57	120220	12022020	092057	186.25	12.710625	-57.151503	186.39	-0.260	-0.070	3.030	186.25	-1.40	3.40	 	 	 	 	 	 	 	 	 	 	 	 	 	 	 	 	 	 	1581499257	7.81	14.46
12/02/2020 09:20:58	120220	12022020	092058	186.38	12.710590	-57.151510	186.50	-0.220	0.010	2.560	186.38	-1.30	2.90	 	 	 	 	 	 	 	 	 	 	 	 	 	 	 	 	 	 	1581499258	8.00	14.82
12/02/2020 09:20:59	120220	12022020	092059	186.50	12.710552	-57.151515	186.60	-0.280	0.030	2.020	186.50	-1.30	2.50	 	 	 	 	 	 	 	 	 	 	 	 	 	 	 	 	 	 	1581499259	7.95	14.72
12/02/2020 09:21:00	120220	12022020	092100	186.33	12.710515	-57.151518	186.36	-0.310	-0.230	1.950	186.26	-1.60	2.50	 	 	 	 	 	 	 	 	 	 	 	 	 	 	 	 	 	 	1581499260	7.98	14.78
12/02/2020 09:21:01	120220	12022020	092101	186.00	12.710478	-57.151527	186.05	-0.220	-0.420	2.200	185.96	-1.80	2.70	1014.90	26.20	26.20	20.80	20.80	-1.0	72.0	72.0	392.0	25.7	270.00	9.60	74.00	10.40	16	9318.0	27.5	27.5	1581499261	8.32	15.41
12/02/2020 09:21:02	120220	12022020	092102	185.96	12.710440	-57.151535	186.07	-0.050	-0.050	2.200	185.96	-1.30	2.60	 	 	 	 	 	 	 	 	 	 	 	 	 	 	 	 	 	 	1581499262	8.26	15.30
12/02/2020 09:21:03	120220	12022020	092103	186.31	12.710407	-57.151543	186.51	0.180	0.640	1.680	186.42	-0.70	2.00	 	 	 	 	 	 	 	 	 	 	 	 	 	 	 	 	 	 	1581499263	7.46	13.82
12/02/2020 09:21:04	120220	12022020	092104	187.06	12.710375	-57.151547	187.13	0.480	0.720	0.880	187.06	-0.70	1.30	 	 	 	 	 	 	 	 	 	 	 	 	 	 	 	 	 	 	1581499264	6.94	12.85
12/02/2020 09:21:05	120220	12022020	092105	187.38	12.710340	-57.151547	187.50	0.740	-0.100	0.520	187.41	-1.60	1.00	 	 	 	 	 	 	 	 	 	 	 	 	 	 	 	 	 	 	1581499265	7.51	13.91
12/02/2020 09:21:06	120220	12022020	092106	187.24	12.710300	-57.151550	187.25	0.780	-1.180	1.000	187.14	-2.60	1.60	 	 	 	 	 	 	 	 	 	 	 	 	 	 	 	 	 	 	1581499266	8.31	15.39
12/02/2020 09:21:07	120220	12022020	092107	186.69	12.710262	-57.151557	186.72	0.440	-1.620	1.900	186.59	-2.90	2.50	 	 	 	 	 	 	 	 	 	 	 	 	 	 	 	 	 	 	1581499267	8.56	15.85
12/02/2020 09:21:08	120220	12022020	092108	186.29	12.710225	-57.151565	186.39	-0.160	-1.220	2.800	186.24	-2.50	3.40	 	 	 	 	 	 	 	 	 	 	 	 	 	 	 	 	 	 	1581499268	8.07	14.95
12/02/2020 09:21:09	120220	12022020	092109	186.04	12.710192	-57.151577	186.13	-0.650	-0.660	3.520	185.98	-2.00	4.00	 	 	 	 	 	 	 	 	 	 	 	 	 	 	 	 	 	 	1581499269	7.62	14.11
12/02/2020 09:21:10	120220	12022020	092110	185.79	12.710158	-57.151592	185.92	-0.730	-0.280	3.710	185.78	-1.60	4.10	 	 	 	 	 	 	 	 	 	 	 	 	 	 	 	 	 	 	1581499270	7.88	14.59
12/02/2020 09:21:11	120220	12022020	092111	185.94	12.710122	-57.151602	186.16	-0.620	0.350	3.250	186.04	-0.90	3.60	 	 	 	 	 	 	 	 	 	 	 	 	 	 	 	 	 	 	1581499271	8.14	15.08
12/02/2020 09:21:12	120220	12022020	092112	186.53	12.710087	-57.151610	186.78	-0.530	1.090	2.280	186.67	-0.20	2.60	 	 	 	 	 	 	 	 	 	 	 	 	 	 	 	 	 	 	1581499272	7.58	14.04
12/02/2020 09:21:13	120220	12022020	092113	187.15	12.710053	-57.151613	187.35	-0.310	1.120	1.230	187.24	-0.30	1.60	 	 	 	 	 	 	 	 	 	 	 	 	 	 	 	 	 	 	1581499273	7.15	13.24
12/02/2020 09:21:14	120220	12022020	092114	187.60	12.710018	-57.151617	187.70	0.210	0.260	0.400	187.60	-1.30	0.80	 	 	 	 	 	 	 	 	 	 	 	 	 	 	 	 	 	 	1581499274	7.76	14.37
12/02/2020 09:21:15	120220	12022020	092115	187.80	12.709978	-57.151618	187.94	0.920	-0.710	-0.130	187.83	-2.20	0.30	 	 	 	 	 	 	 	 	 	 	 	 	 	 	 	 	 	 	1581499275	8.50	15.74
12/02/2020 09:21:16	120220	12022020	092116	187.93	12.709938	-57.151618	188.02	1.310	-1.240	-0.100	187.93	-2.60	0.50	 	 	 	 	 	 	 	 	 	 	 	 	 	 	 	 	 	 	1581499276	8.44	15.63
12/02/2020 09:21:17	120220	12022020	092117	187.66	12.709902	-57.151620	187.65	0.980	-1.490	0.850	187.53	-2.90	1.50	 	 	 	 	 	 	 	 	 	 	 	 	 	 	 	 	 	 	1581499277	7.94	14.70
12/02/2020 09:21:18	120220	12022020	092118	186.43	12.709867	-57.151628	186.62	0.120	-1.580	2.620	186.43	-2.90	3.40	 	 	 	 	 	 	 	 	 	 	 	 	 	 	 	 	 	 	1581499278	7.91	14.65
12/02/2020 09:21:19	120220	12022020	092119	185.54	12.709830	-57.151645	185.60	-0.810	-1.070	4.290	185.39	-2.30	4.90	 	 	 	 	 	 	 	 	 	 	 	 	 	 	 	 	 	 	1581499279	8.52	15.78
12/02/2020 09:21:20	120220	12022020	092120	185.21	12.709795	-57.151665	185.40	-1.360	0.270	4.910	185.21	-0.90	5.40	 	 	 	 	 	 	 	 	 	 	 	 	 	 	 	 	 	 	1581499280	8.46	15.67
12/02/2020 09:21:21	120220	12022020	092121	185.58	12.709765	-57.151682	185.88	-1.330	1.420	4.440	185.71	0.10	4.80	 	 	 	 	 	 	 	 	 	 	 	 	 	 	 	 	 	 	1581499281	7.50	13.89
12/02/2020 09:21:22	120220	12022020	092122	186.42	12.709733	-57.151692	186.56	-0.740	1.450	3.250	186.42	-0.00	3.50	 	 	 	 	 	 	 	 	 	 	 	 	 	 	 	 	 	 	1581499282	7.31	13.54
12/02/2020 09:21:23	120220	12022020	092123	187.10	12.709695	-57.151697	187.41	0.070	0.700	1.690	187.30	-0.80	2.00	 	 	 	 	 	 	 	 	 	 	 	 	 	 	 	 	 	 	1581499283	8.09	14.98
12/02/2020 09:21:24	120220	12022020	092124	188.11	12.709657	-57.151697	188.21	0.690	0.010	0.370	188.11	-1.40	0.70	 	 	 	 	 	 	 	 	 	 	 	 	 	 	 	 	 	 	1581499284	8.41	15.58
12/02/2020 09:21:25	120220	12022020	092125	188.36	12.709620	-57.151697	188.45	0.980	-0.590	-0.130	188.35	-2.10	0.40	 	 	 	 	 	 	 	 	 	 	 	 	 	 	 	 	 	 	1581499285	7.93	14.69
12/02/2020 09:21:26	120220	12022020	092126	187.99	12.709583	-57.151697	188.11	0.970	-1.220	0.220	187.99	-2.70	0.80	 	 	 	 	 	 	 	 	 	 	 	 	 	 	 	 	 	 	1581499286	7.66	14.19
12/02/2020 09:21:27	120220	12022020	092127	187.50	12.709548	-57.151702	187.52	0.680	-1.550	1.090	187.37	-2.90	1.70	 	 	 	 	 	 	 	 	 	 	 	 	 	 	 	 	 	 	1581499287	7.77	14.39
12/02/2020 09:21:28	120220	12022020	092128	186.85	12.709513	-57.151710	186.89	0.250	-1.400	2.180	186.74	-2.70	2.80	 	 	 	 	 	 	 	 	 	 	 	 	 	 	 	 	 	 	1581499288	7.78	14.41
12/02/2020 09:21:29	120220	12022020	092129	186.35	12.709478	-57.151723	186.47	-0.170	-0.870	2.960	186.30	-2.10	3.50	 	 	 	 	 	 	 	 	 	 	 	 	 	 	 	 	 	 	1581499289	7.78	14.41
12/02/2020 09:21:30	120220	12022020	092130	186.32	12.709445	-57.151735	186.48	-0.560	-0.100	3.060	186.32	-1.30	3.50	 	 	 	 	 	 	 	 	 	 	 	 	 	 	 	 	 	 	1581499290	7.72	14.30
12/02/2020 09:21:31	120220	12022020	092131	186.60	12.709412	-57.151743	186.85	-0.830	0.600	2.690	186.70	-0.70	3.10	 	 	 	 	 	 	 	 	 	 	 	 	 	 	 	 	 	 	1581499291	7.52	13.93
12/02/2020 09:21:32	120220	12022020	092132	187.20	12.709377	-57.151753	187.33	-0.840	0.830	2.130	187.20	-0.50	2.50	 	 	 	 	 	 	 	 	 	 	 	 	 	 	 	 	 	 	1581499292	7.48	13.85
12/02/2020 09:21:33	120220	12022020	092133	187.53	12.709342	-57.151760	187.71	-0.490	0.480	1.590	187.59	-1.00	2.00	 	 	 	 	 	 	 	 	 	 	 	 	 	 	 	 	 	 	1581499293	7.79	14.43
12/02/2020 09:21:34	120220	12022020	092134	187.67	12.709303	-57.151767	187.80	0.060	-0.150	1.310	187.67	-1.60	1.80	 	 	 	 	 	 	 	 	 	 	 	 	 	 	 	 	 	 	1581499294	8.22	15.22
12/02/2020 09:21:35	120220	12022020	092135	187.54	12.709265	-57.151772	187.65	0.440	-0.570	1.350	187.50	-1.90	1.90	 	 	 	 	 	 	 	 	 	 	 	 	 	 	 	 	 	 	1581499295	8.40	15.56
12/02/2020 09:21:36	120220	12022020	092136	187.42	12.709228	-57.151778	187.56	0.470	-0.370	1.470	187.42	-1.70	2.00	 	 	 	 	 	 	 	 	 	 	 	 	 	 	 	 	 	 	1581499296	8.06	14.93
12/02/2020 09:21:37	120220	12022020	092137	187.47	12.709195	-57.151785	187.63	0.280	0.190	1.390	187.49	-1.10	1.90	 	 	 	 	 	 	 	 	 	 	 	 	 	 	 	 	 	 	1581499297	7.28	13.48
12/02/2020 09:21:38	120220	12022020	092138	187.60	12.709163	-57.151790	187.74	0.120	0.340	1.160	187.60	-1.10	1.60	 	 	 	 	 	 	 	 	 	 	 	 	 	 	 	 	 	 	1581499298	6.88	12.74
12/02/2020 09:21:39	120220	12022020	092139	187.65	12.709130	-57.151793	187.81	0.070	-0.130	1.150	187.66	-1.60	1.70	 	 	 	 	 	 	 	 	 	 	 	 	 	 	 	 	 	 	1581499299	7.34	13.59
12/02/2020 09:21:40	120220	12022020	092140	187.67	12.709093	-57.151800	187.81	0.020	-0.740	1.430	187.66	-2.20	2.00	 	 	 	 	 	 	 	 	 	 	 	 	 	 	 	 	 	 	1581499300	7.94	14.70
12/02/2020 09:21:41	120220	12022020	092141	187.57	12.709057	-57.151810	187.65	-0.090	-1.120	1.910	187.51	-2.50	2.50	 	 	 	 	 	 	 	 	 	 	 	 	 	 	 	 	 	 	1581499301	8.05	14.91
12/02/2020 09:21:42	120220	12022020	092142	187.05	12.709022	-57.151820	187.19	-0.050	-1.310	2.640	187.05	-2.70	3.20	 	 	 	 	 	 	 	 	 	 	 	 	 	 	 	 	 	 	1581499302	7.98	14.78
12/02/2020 09:21:43	120220	12022020	092143	186.58	12.708985	-57.151833	186.61	0.220	-1.150	3.180	186.47	-2.40	3.70	 	 	 	 	 	 	 	 	 	 	 	 	 	 	 	 	 	 	1581499303	8.16	15.11
12/02/2020 09:21:44	120220	12022020	092144	186.22	12.708950	-57.151843	186.35	0.500	-0.420	3.040	186.22	-1.70	3.50	 	 	 	 	 	 	 	 	 	 	 	 	 	 	 	 	 	 	1581499304	8.03	14.87
12/02/2020 09:21:45	120220	12022020	092145	186.45	12.708915	-57.151848	186.66	0.440	0.560	2.380	186.56	-0.70	2.80	 	 	 	 	 	 	 	 	 	 	 	 	 	 	 	 	 	 	1581499305	7.48	13.85
12/02/2020 09:21:46	120220	12022020	092146	187.10	12.708882	-57.151850	187.36	-0.020	1.120	1.580	187.25	-0.20	2.00	 	 	 	 	 	 	 	 	 	 	 	 	 	 	 	 	 	 	1581499306	7.15	13.24
12/02/2020 09:21:47	120220	12022020	092147	187.74	12.708848	-57.151852	187.93	-0.540	0.850	1.090	187.82	-0.60	1.60	 	 	 	 	 	 	 	 	 	 	 	 	 	 	 	 	 	 	1581499307	7.37	13.65
12/02/2020 09:21:48	120220	12022020	092148	187.85	12.708812	-57.151857	187.98	-0.760	-0.080	1.410	187.85	-1.60	2.00	 	 	 	 	 	 	 	 	 	 	 	 	 	 	 	 	 	 	1581499308	7.99	14.80
12/02/2020 09:21:49	120220	12022020	092149	187.61	12.708772	-57.151868	187.72	-0.640	-0.920	2.200	187.56	-2.40	2.80	 	 	 	 	 	 	 	 	 	 	 	 	 	 	 	 	 	 	1581499309	8.63	15.98
12/02/2020 09:21:50	120220	12022020	092150	187.38	12.708735	-57.151882	187.52	-0.360	-1.010	2.820	187.34	-2.30	3.30	 	 	 	 	 	 	 	 	 	 	 	 	 	 	 	 	 	 	1581499310	8.55	15.83
12/02/2020 09:21:51	120220	12022020	092151	187.24	12.708702	-57.151893	187.38	0.000	-0.600	2.800	187.21	-1.90	3.20	 	 	 	 	 	 	 	 	 	 	 	 	 	 	 	 	 	 	1581499311	7.72	14.30
12/02/2020 09:21:52	120220	12022020	092152	187.10	12.708668	-57.151902	187.21	0.480	-0.380	2.230	187.07	-1.70	2.60	 	 	 	 	 	 	 	 	 	 	 	 	 	 	 	 	 	 	1581499312	7.23	13.39
12/02/2020 09:21:53	120220	12022020	092153	187.00	12.708633	-57.151903	187.13	0.910	-0.410	1.530	187.01	-1.80	1.90	 	 	 	 	 	 	 	 	 	 	 	 	 	 	 	 	 	 	1581499313	7.61	14.09
12/02/2020 09:21:54	120220	12022020	092154	187.11	12.708597	-57.151905	187.26	1.020	-0.320	0.950	187.14	-1.60	1.40	 	 	 	 	 	 	 	 	 	 	 	 	 	 	 	 	 	 	1581499314	7.96	14.74
12/02/2020 09:21:55	120220	12022020	092155	187.26	12.708560	-57.151907	187.39	0.660	0.010	0.750	187.29	-1.30	1.30	 	 	 	 	 	 	 	 	 	 	 	 	 	 	 	 	 	 	1581499315	7.76	14.37
12/02/2020 09:21:56	120220	12022020	092156	187.42	12.708525	-57.151910	187.60	-0.140	0.260	1.090	187.48	-1.10	1.70	 	 	 	 	 	 	 	 	 	 	 	 	 	 	 	 	 	 	1581499316	7.47	13.83
12/02/2020 09:21:57	120220	12022020	092157	187.79	12.708492	-57.151918	188.00	-1.080	0.240	1.790	187.86	-1.20	2.40	 	 	 	 	 	 	 	 	 	 	 	 	 	 	 	 	 	 	1581499317	7.54	13.96
12/02/2020 09:21:58	120220	12022020	092158	188.01	12.708458	-57.151935	188.17	-1.500	-0.180	2.570	188.00	-1.60	3.20	 	 	 	 	 	 	 	 	 	 	 	 	 	 	 	 	 	 	1581499318	8.05	14.91
12/02/2020 09:21:59	120220	12022020	092159	187.83	12.708422	-57.151955	187.93	-0.880	-0.750	3.000	187.76	-2.20	3.50	 	 	 	 	 	 	 	 	 	 	 	 	 	 	 	 	 	 	1581499319	8.67	16.06
12/02/2020 09:22:00	120220	12022020	092200	187.54	12.708385	-57.151970	187.67	0.420	-0.840	2.550	187.53	-2.10	2.90	 	 	 	 	 	 	 	 	 	 	 	 	 	 	 	 	 	 	1581499320	8.61	15.95
12/02/2020 09:22:01	120220	12022020	092201	187.70	12.708348	-57.151973	187.91	1.220	-0.310	1.610	187.79	-1.60	2.00	1014.90	26.20	26.20	21.00	21.00	-1.0	73.0	73.0	393.0	25.7	271.00	9.50	75.00	10.30	16	9845.0	27.5	27.5	1581499321	7.93	14.69
12/02/2020 09:22:02	120220	12022020	092202	188.14	12.708315	-57.151973	188.33	0.990	0.200	0.940	188.22	-1.10	1.40	 	 	 	 	 	 	 	 	 	 	 	 	 	 	 	 	 	 	1581499322	7.28	13.48
12/02/2020 09:22:03	120220	12022020	092203	188.35	12.708282	-57.151973	188.46	0.240	0.070	0.930	188.33	-1.40	1.50	 	 	 	 	 	 	 	 	 	 	 	 	 	 	 	 	 	 	1581499323	7.10	13.15
12/02/2020 09:22:04	120220	12022020	092204	188.17	12.708247	-57.151980	188.25	-0.320	-0.420	1.580	188.10	-1.90	2.20	 	 	 	 	 	 	 	 	 	 	 	 	 	 	 	 	 	 	1581499324	7.71	14.28
12/02/2020 09:22:05	120220	12022020	092205	187.71	12.708210	-57.151992	187.79	-0.430	-0.830	2.620	187.61	-2.20	3.30	 	 	 	 	 	 	 	 	 	 	 	 	 	 	 	 	 	 	1581499325	8.18	15.15
12/02/2020 09:22:06	120220	12022020	092206	187.12	12.708173	-57.152007	187.20	-0.240	-1.020	3.540	187.01	-2.40	4.10	 	 	 	 	 	 	 	 	 	 	 	 	 	 	 	 	 	 	1581499326	8.39	15.54
12/02/2020 09:22:07	120220	12022020	092207	186.56	12.708138	-57.152022	186.66	-0.030	-0.850	3.980	186.47	-2.10	4.50	 	 	 	 	 	 	 	 	 	 	 	 	 	 	 	 	 	 	1581499327	8.37	15.50
12/02/2020 09:22:08	120220	12022020	092208	186.20	12.708102	-57.152033	186.36	-0.020	-0.180	3.930	186.18	-1.40	4.30	 	 	 	 	 	 	 	 	 	 	 	 	 	 	 	 	 	 	1581499328	8.07	14.95
12/02/2020 09:22:09	120220	12022020	092209	186.34	12.708068	-57.152042	186.59	-0.240	0.830	3.200	186.44	-0.40	3.50	 	 	 	 	 	 	 	 	 	 	 	 	 	 	 	 	 	 	1581499329	7.49	13.87
12/02/2020 09:22:10	120220	12022020	092210	187.14	12.708037	-57.152048	187.25	-0.480	1.580	2.100	187.14	0.20	2.40	 	 	 	 	 	 	 	 	 	 	 	 	 	 	 	 	 	 	1581499330	6.85	12.69
12/02/2020 09:22:11	120220	12022020	092211	187.74	12.708007	-57.152050	187.97	-0.380	1.280	1.060	187.87	-0.20	1.50	 	 	 	 	 	 	 	 	 	 	 	 	 	 	 	 	 	 	1581499331	6.78	12.56
12/02/2020 09:22:12	120220	12022020	092212	188.23	12.707970	-57.152053	188.37	0.150	-0.220	0.530	188.26	-1.90	1.00	 	 	 	 	 	 	 	 	 	 	 	 	 	 	 	 	 	 	1581499332	7.65	14.17
12/02/2020 09:22:13	120220	12022020	092213	188.11	12.707930	-57.152058	188.14	0.830	-2.030	0.800	188.01	-3.60	1.40	 	 	 	 	 	 	 	 	 	 	 	 	 	 	 	 	 	 	1581499333	8.71	16.13
12/02/2020 09:22:14	120220	12022020	092214	187.41	12.707888	-57.152065	187.39	1.190	-2.900	1.710	187.24	-4.20	2.40	 	 	 	 	 	 	 	 	 	 	 	 	 	 	 	 	 	 	1581499334	9.05	16.76
12/02/2020 09:22:15	120220	12022020	092215	186.60	12.707852	-57.152075	186.65	0.900	-2.170	2.710	186.48	-3.30	3.30	 	 	 	 	 	 	 	 	 	 	 	 	 	 	 	 	 	 	1581499335	8.36	15.48
12/02/2020 09:22:16	120220	12022020	092216	186.11	12.707818	-57.152085	186.28	0.060	-0.340	3.360	186.11	-1.40	3.90	 	 	 	 	 	 	 	 	 	 	 	 	 	 	 	 	 	 	1581499336	7.17	13.28
12/02/2020 09:22:17	120220	12022020	092217	186.18	12.707790	-57.152095	186.41	-0.890	1.380	3.480	186.25	0.20	3.90	 	 	 	 	 	 	 	 	 	 	 	 	 	 	 	 	 	 	1581499337	6.47	11.98
12/02/2020 09:22:18	120220	12022020	092218	186.61	12.707762	-57.152105	186.85	-1.460	1.960	3.300	186.70	0.60	3.80	 	 	 	 	 	 	 	 	 	 	 	 	 	 	 	 	 	 	1581499338	6.67	12.35
12/02/2020 09:22:19	120220	12022020	092219	187.03	12.707727	-57.152115	187.21	-1.290	1.210	3.100	187.08	-0.30	3.50	 	 	 	 	 	 	 	 	 	 	 	 	 	 	 	 	 	 	1581499339	7.69	14.24
12/02/2020 09:22:20	120220	12022020	092220	187.24	12.707688	-57.152127	187.36	-0.490	-0.040	2.650	187.26	-1.60	3.10	 	 	 	 	 	 	 	 	 	 	 	 	 	 	 	 	 	 	1581499340	8.74	16.19
12/02/2020 09:22:21	120220	12022020	092221	187.30	12.707647	-57.152135	187.41	0.490	-0.890	2.010	187.30	-2.30	2.40	 	 	 	 	 	 	 	 	 	 	 	 	 	 	 	 	 	 	1581499341	8.88	16.45
12/02/2020 09:22:22	120220	12022020	092222	187.33	12.707610	-57.152138	187.43	1.110	-1.000	1.390	187.34	-2.30	1.80	 	 	 	 	 	 	 	 	 	 	 	 	 	 	 	 	 	 	1581499342	8.22	15.22
12/02/2020 09:22:23	120220	12022020	092223	187.33	12.707575	-57.152138	187.40	1.080	-0.710	0.910	187.31	-2.00	1.40	 	 	 	 	 	 	 	 	 	 	 	 	 	 	 	 	 	 	1581499343	7.45	13.80
12/02/2020 09:22:24	120220	12022020	092224	187.09	12.707542	-57.152140	187.18	0.610	-0.520	0.880	187.09	-1.90	1.40	 	 	 	 	 	 	 	 	 	 	 	 	 	 	 	 	 	 	1581499344	7.08	13.11
12/02/2020 09:22:25	120220	12022020	092225	186.85	12.707508	-57.152145	186.90	0.020	-0.510	1.410	186.81	-1.80	2.00	 	 	 	 	 	 	 	 	 	 	 	 	 	 	 	 	 	 	1581499345	7.33	13.58
12/02/2020 09:22:26	120220	12022020	092226	186.82	12.707473	-57.152155	186.91	-0.480	-0.240	1.830	186.82	-1.50	2.40	 	 	 	 	 	 	 	 	 	 	 	 	 	 	 	 	 	 	1581499346	7.70	14.26
12/02/2020 09:22:27	120220	12022020	092227	187.01	12.707442	-57.152167	187.16	-0.760	0.050	2.020	187.06	-1.30	2.50	 	 	 	 	 	 	 	 	 	 	 	 	 	 	 	 	 	 	1581499347	7.48	13.85
12/02/2020 09:22:28	120220	12022020	092228	187.13	12.707408	-57.152180	187.22	-0.610	-0.170	2.270	187.13	-1.60	2.80	 	 	 	 	 	 	 	 	 	 	 	 	 	 	 	 	 	 	1581499348	7.53	13.95
12/02/2020 09:22:29	120220	12022020	092229	186.91	12.707372	-57.152190	186.92	-0.040	-0.710	2.630	186.83	-2.10	3.20	 	 	 	 	 	 	 	 	 	 	 	 	 	 	 	 	 	 	1581499349	8.18	15.15
12/02/2020 09:22:30	120220	12022020	092230	186.51	12.707333	-57.152200	186.61	0.400	-0.670	2.910	186.51	-2.00	3.40	 	 	 	 	 	 	 	 	 	 	 	 	 	 	 	 	 	 	1581499350	8.56	15.85
12/02/2020 09:22:31	120220	12022020	092231	186.44	12.707297	-57.152205	186.57	0.340	0.050	2.900	186.46	-1.20	3.40	 	 	 	 	 	 	 	 	 	 	 	 	 	 	 	 	 	 	1581499351	7.92	14.67
12/02/2020 09:22:32	120220	12022020	092232	186.55	12.707263	-57.152210	186.68	-0.040	0.740	2.640	186.57	-0.60	3.10	 	 	 	 	 	 	 	 	 	 	 	 	 	 	 	 	 	 	1581499352	7.11	13.17
12/02/2020 09:22:33	120220	12022020	092233	186.65	12.707232	-57.152215	186.79	-0.290	0.670	2.340	186.67	-0.80	2.80	 	 	 	 	 	 	 	 	 	 	 	 	 	 	 	 	 	 	1581499353	7.07	13.09
12/02/2020 09:22:34	120220	12022020	092234	186.71	12.707195	-57.152220	186.83	-0.180	-0.090	2.080	186.71	-1.60	2.50	 	 	 	 	 	 	 	 	 	 	 	 	 	 	 	 	 	 	1581499354	7.73	14.32
12/02/2020 09:22:35	120220	12022020	092235	186.66	12.707158	-57.152228	186.76	0.120	-0.850	1.920	186.64	-2.30	2.40	 	 	 	 	 	 	 	 	 	 	 	 	 	 	 	 	 	 	1581499355	8.31	15.39
12/02/2020 09:22:36	120220	12022020	092236	186.52	12.707120	-57.152235	186.59	0.340	-1.060	1.840	186.48	-2.40	2.30	 	 	 	 	 	 	 	 	 	 	 	 	 	 	 	 	 	 	1581499356	8.16	15.11
12/02/2020 09:22:37	120220	12022020	092237	186.28	12.707085	-57.152243	186.33	0.380	-0.890	1.890	186.22	-2.20	2.40	 	 	 	 	 	 	 	 	 	 	 	 	 	 	 	 	 	 	1581499357	7.63	14.13
12/02/2020 09:22:38	120220	12022020	092238	186.08	12.707052	-57.152248	186.20	0.180	-0.510	1.990	186.08	-1.80	2.50	 	 	 	 	 	 	 	 	 	 	 	 	 	 	 	 	 	 	1581499358	7.45	13.80
12/02/2020 09:22:39	120220	12022020	092239	186.18	12.707018	-57.152255	186.37	-0.230	0.060	2.130	186.24	-1.20	2.60	 	 	 	 	 	 	 	 	 	 	 	 	 	 	 	 	 	 	1581499359	7.42	13.74
12/02/2020 09:22:40	120220	12022020	092240	186.54	12.706985	-57.152265	186.75	-0.510	0.500	2.170	186.62	-0.90	2.60	 	 	 	 	 	 	 	 	 	 	 	 	 	 	 	 	 	 	1581499360	7.24	13.41
12/02/2020 09:22:41	120220	12022020	092241	186.87	12.706952	-57.152273	187.02	-0.350	0.320	2.010	186.90	-1.10	2.50	 	 	 	 	 	 	 	 	 	 	 	 	 	 	 	 	 	 	1581499361	7.39	13.69
12/02/2020 09:22:42	120220	12022020	092242	186.90	12.706915	-57.152280	187.00	0.220	-0.450	1.810	186.90	-1.90	2.30	 	 	 	 	 	 	 	 	 	 	 	 	 	 	 	 	 	 	1581499362	8.03	14.87
12/02/2020 09:22:43	120220	12022020	092243	186.80	12.706875	-57.152283	186.88	0.690	-1.060	1.610	186.78	-2.40	2.10	 	 	 	 	 	 	 	 	 	 	 	 	 	 	 	 	 	 	1581499363	8.65	16.02
12/02/2020 09:22:44	120220	12022020	092244	186.72	12.706835	-57.152287	186.81	0.550	-0.870	1.480	186.71	-2.20	2.00	 	 	 	 	 	 	 	 	 	 	 	 	 	 	 	 	 	 	1581499364	8.44	15.63
12/02/2020 09:22:45	120220	12022020	092245	186.68	12.706800	-57.152290	186.75	-0.150	-0.230	1.620	186.66	-1.50	2.20	 	 	 	 	 	 	 	 	 	 	 	 	 	 	 	 	 	 	1581499365	7.55	13.98
12/02/2020 09:22:46	120220	12022020	092246	186.58	12.706768	-57.152297	186.66	-0.860	0.260	2.160	186.56	-1.10	2.70	 	 	 	 	 	 	 	 	 	 	 	 	 	 	 	 	 	 	1581499366	7.18	13.30
12/02/2020 09:22:47	120220	12022020	092247	186.51	12.706735	-57.152310	186.59	-1.050	0.390	2.730	186.49	-1.00	3.30	 	 	 	 	 	 	 	 	 	 	 	 	 	 	 	 	 	 	1581499367	7.61	14.09
12/02/2020 09:22:48	120220	12022020	092248	186.37	12.706700	-57.152323	186.44	-0.600	0.210	2.950	186.33	-1.20	3.40	 	 	 	 	 	 	 	 	 	 	 	 	 	 	 	 	 	 	1581499368	8.06	14.93
12/02/2020 09:22:49	120220	12022020	092249	186.25	12.706665	-57.152335	186.37	0.090	0.050	2.720	186.26	-1.30	3.10	 	 	 	 	 	 	 	 	 	 	 	 	 	 	 	 	 	 	1581499369	8.17	15.13
12/02/2020 09:22:50	120220	12022020	092250	186.58	12.706628	-57.152342	186.67	0.570	0.060	1.970	186.58	-1.30	2.30	 	 	 	 	 	 	 	 	 	 	 	 	 	 	 	 	 	 	1581499370	7.87	14.58
12/02/2020 09:22:51	120220	12022020	092251	186.95	12.706593	-57.152345	187.11	0.760	-0.030	1.060	187.04	-1.40	1.40	 	 	 	 	 	 	 	 	 	 	 	 	 	 	 	 	 	 	1581499371	7.44	13.78
12/02/2020 09:22:52	120220	12022020	092252	187.22	12.706558	-57.152345	187.31	0.850	-0.590	0.500	187.24	-2.00	1.00	 	 	 	 	 	 	 	 	 	 	 	 	 	 	 	 	 	 	1581499372	7.49	13.87
12/02/2020 09:22:53	120220	12022020	092253	187.15	12.706522	-57.152347	187.22	0.780	-1.260	0.640	187.11	-2.70	1.20	 	 	 	 	 	 	 	 	 	 	 	 	 	 	 	 	 	 	1581499373	8.04	14.89
12/02/2020 09:22:54	120220	12022020	092254	186.89	12.706483	-57.152350	186.96	0.340	-1.360	1.400	186.82	-2.70	2.00	 	 	 	 	 	 	 	 	 	 	 	 	 	 	 	 	 	 	1581499374	8.17	15.13
12/02/2020 09:22:55	120220	12022020	092255	186.54	12.706448	-57.152360	186.64	-0.340	-0.930	2.400	186.48	-2.20	3.00	 	 	 	 	 	 	 	 	 	 	 	 	 	 	 	 	 	 	1581499375	7.81	14.46
12/02/2020 09:22:56	120220	12022020	092256	186.24	12.706415	-57.152372	186.35	-0.890	-0.370	3.240	186.19	-1.60	3.80	 	 	 	 	 	 	 	 	 	 	 	 	 	 	 	 	 	 	1581499376	7.72	14.30
12/02/2020 09:22:57	120220	12022020	092257	186.04	12.706380	-57.152387	186.20	-1.040	0.090	3.730	186.03	-1.20	4.20	 	 	 	 	 	 	 	 	 	 	 	 	 	 	 	 	 	 	1581499377	7.98	14.78
12/02/2020 09:22:58	120220	12022020	092258	186.05	12.706345	-57.152400	186.21	-0.750	0.540	3.520	186.05	-0.70	3.90	 	 	 	 	 	 	 	 	 	 	 	 	 	 	 	 	 	 	1581499378	8.12	15.04
12/02/2020 09:22:59	120220	12022020	092259	186.29	12.706310	-57.152410	186.51	-0.290	0.920	2.600	186.38	-0.40	2.90	 	 	 	 	 	 	 	 	 	 	 	 	 	 	 	 	 	 	1581499379	7.77	14.39
12/02/2020 09:23:00	120220	12022020	092300	186.74	12.706275	-57.152412	186.92	0.080	0.780	1.590	186.81	-0.70	2.00	 	 	 	 	 	 	 	 	 	 	 	 	 	 	 	 	 	 	1581499380	7.48	13.85
12/02/2020 09:23:01	120220	12022020	092301	186.91	12.706240	-57.152413	186.99	0.380	-0.230	1.090	186.88	-1.70	1.60	1014.90	26.20	26.20	21.00	21.00	-1.0	73.0	73.0	392.0	25.7	275.00	10.10	79.00	10.50	16	9917.0	27.5	27.5	1581499381	7.84	14.52
12/02/2020 09:23:02	120220	12022020	092302	186.55	12.706200	-57.152417	186.66	0.670	-1.340	1.210	186.55	-2.80	1.80	 	 	 	 	 	 	 	 	 	 	 	 	 	 	 	 	 	 	1581499382	8.62	15.96
12/02/2020 09:23:03	120220	12022020	092303	186.31	12.706160	-57.152423	186.40	0.790	-1.300	1.460	186.30	-2.50	2.00	 	 	 	 	 	 	 	 	 	 	 	 	 	 	 	 	 	 	1581499383	8.66	16.04
12/02/2020 09:23:04	120220	12022020	092304	186.52	12.706125	-57.152428	186.62	0.510	-0.130	1.320	186.52	-1.30	1.80	 	 	 	 	 	 	 	 	 	 	 	 	 	 	 	 	 	 	1581499384	7.42	13.74
12/02/2020 09:23:05	120220	12022020	092305	186.87	12.706097	-57.152432	187.06	-0.060	0.770	1.130	186.95	-0.60	1.70	 	 	 	 	 	 	 	 	 	 	 	 	 	 	 	 	 	 	1581499385	6.25	11.58
12/02/2020 09:23:06	120220	12022020	092306	187.07	12.706067	-57.152437	187.17	-0.470	0.260	1.590	187.04	-1.30	2.20	 	 	 	 	 	 	 	 	 	 	 	 	 	 	 	 	 	 	1581499386	6.64	12.30
12/02/2020 09:23:07	120220	12022020	092307	186.66	12.706028	-57.152447	186.65	-0.440	-1.300	2.810	186.49	-2.90	3.50	 	 	 	 	 	 	 	 	 	 	 	 	 	 	 	 	 	 	1581499387	8.30	15.37
12/02/2020 09:23:08	120220	12022020	092308	185.68	12.705987	-57.152462	185.64	-0.110	-2.330	4.240	185.47	-3.70	4.90	 	 	 	 	 	 	 	 	 	 	 	 	 	 	 	 	 	 	1581499388	9.69	17.95
12/02/2020 09:23:09	120220	12022020	092309	184.76	12.705945	-57.152478	184.85	0.110	-1.580	5.090	184.67	-2.70	5.60	 	 	 	 	 	 	 	 	 	 	 	 	 	 	 	 	 	 	1581499389	9.44	17.48
12/02/2020 09:23:10	120220	12022020	092310	184.72	12.705912	-57.152492	185.00	-0.040	0.530	4.650	184.82	-0.50	5.00	 	 	 	 	 	 	 	 	 	 	 	 	 	 	 	 	 	 	1581499390	7.63	14.13
12/02/2020 09:23:11	120220	12022020	092311	185.44	12.705885	-57.152497	185.75	-0.360	2.100	3.250	185.61	0.80	3.50	 	 	 	 	 	 	 	 	 	 	 	 	 	 	 	 	 	 	1581499391	5.95	11.02
12/02/2020 09:23:12	120220	12022020	092312	186.34	12.705855	-57.152498	186.44	-0.340	1.850	1.700	186.34	0.30	2.00	 	 	 	 	 	 	 	 	 	 	 	 	 	 	 	 	 	 	1581499392	6.37	11.80
12/02/2020 09:23:13	120220	12022020	092313	186.75	12.705818	-57.152497	186.91	0.120	0.350	0.480	186.83	-1.20	0.90	 	 	 	 	 	 	 	 	 	 	 	 	 	 	 	 	 	 	1581499393	8.05	14.91
12/02/2020 09:23:14	120220	12022020	092314	187.11	12.705777	-57.152497	187.18	0.590	-1.050	-0.050	187.11	-2.50	0.50	 	 	 	 	 	 	 	 	 	 	 	 	 	 	 	 	 	 	1581499394	8.97	16.61
12/02/2020 09:23:15	120220	12022020	092315	187.09	12.705737	-57.152498	187.13	0.670	-1.700	0.370	187.05	-3.10	1.00	 	 	 	 	 	 	 	 	 	 	 	 	 	 	 	 	 	 	1581499395	8.47	15.69
12/02/2020 09:23:16	120220	12022020	092316	186.59	12.705702	-57.152505	186.70	0.440	-1.740	1.450	186.59	-3.10	2.10	 	 	 	 	 	 	 	 	 	 	 	 	 	 	 	 	 	 	1581499396	7.71	14.28
12/02/2020 09:23:17	120220	12022020	092317	185.91	12.705668	-57.152517	185.84	0.230	-1.600	2.800	185.70	-2.90	3.50	 	 	 	 	 	 	 	 	 	 	 	 	 	 	 	 	 	 	1581499397	7.57	14.02
12/02/2020 09:23:18	120220	12022020	092318	184.85	12.705633	-57.152528	185.01	0.040	-1.070	3.890	184.85	-2.30	4.50	 	 	 	 	 	 	 	 	 	 	 	 	 	 	 	 	 	 	1581499398	8.05	14.91
12/02/2020 09:23:19	120220	12022020	092319	184.75	12.705597	-57.152540	185.00	-0.390	0.260	4.030	184.84	-0.90	4.40	 	 	 	 	 	 	 	 	 	 	 	 	 	 	 	 	 	 	1581499399	7.97	14.76
12/02/2020 09:23:20	120220	12022020	092320	185.50	12.705567	-57.152548	185.85	-1.020	1.650	3.380	185.69	0.40	3.70	 	 	 	 	 	 	 	 	 	 	 	 	 	 	 	 	 	 	1581499400	6.95	12.87
12/02/2020 09:23:21	120220	12022020	092321	186.47	12.705537	-57.152555	186.74	-1.300	1.750	2.590	186.61	0.30	3.00	 	 	 	 	 	 	 	 	 	 	 	 	 	 	 	 	 	 	1581499401	6.58	12.19
12/02/2020 09:23:22	120220	12022020	092322	186.95	12.705502	-57.152563	187.07	-0.660	0.240	1.950	186.97	-1.40	2.40	 	 	 	 	 	 	 	 	 	 	 	 	 	 	 	 	 	 	1581499402	7.75	14.35
12/02/2020 09:23:23	120220	12022020	092323	186.93	12.705458	-57.152570	186.97	0.480	-1.390	1.590	186.88	-2.90	2.10	 	 	 	 	 	 	 	 	 	 	 	 	 	 	 	 	 	 	1581499403	9.27	17.17
12/02/2020 09:23:24	120220	12022020	092324	186.68	12.705417	-57.152575	186.77	1.180	-1.650	1.570	186.68	-2.90	2.10	 	 	 	 	 	 	 	 	 	 	 	 	 	 	 	 	 	 	1581499404	9.19	17.02
12/02/2020 09:23:25	120220	12022020	092325	186.61	12.705380	-57.152580	186.72	0.970	-0.550	1.460	186.63	-1.70	1.90	 	 	 	 	 	 	 	 	 	 	 	 	 	 	 	 	 	 	1581499405	7.70	14.26
12/02/2020 09:23:26	120220	12022020	092326	186.90	12.705352	-57.152583	186.99	0.130	0.830	1.290	186.90	-0.40	1.80	 	 	 	 	 	 	 	 	 	 	 	 	 	 	 	 	 	 	1581499406	6.34	11.74
12/02/2020 09:23:27	120220	12022020	092327	187.19	12.705323	-57.152588	187.33	-0.570	1.240	1.370	187.25	-0.20	1.90	 	 	 	 	 	 	 	 	 	 	 	 	 	 	 	 	 	 	1581499407	6.11	11.32
12/02/2020 09:23:28	120220	12022020	092328	187.33	12.705292	-57.152598	187.43	-0.510	0.280	1.650	187.33	-1.30	2.20	 	 	 	 	 	 	 	 	 	 	 	 	 	 	 	 	 	 	1581499408	7.19	13.32
12/02/2020 09:23:29	120220	12022020	092329	187.17	12.705253	-57.152608	187.22	0.190	-1.240	2.040	187.11	-2.80	2.60	 	 	 	 	 	 	 	 	 	 	 	 	 	 	 	 	 	 	1581499409	8.62	15.96
12/02/2020 09:23:30	120220	12022020	092330	186.92	12.705212	-57.152618	187.02	0.770	-1.970	2.410	186.89	-3.30	2.90	 	 	 	 	 	 	 	 	 	 	 	 	 	 	 	 	 	 	1581499410	9.17	16.98
12/02/2020 09:23:31	120220	12022020	092331	186.84	12.705173	-57.152627	186.97	0.630	-1.350	2.560	186.85	-2.50	3.10	 	 	 	 	 	 	 	 	 	 	 	 	 	 	 	 	 	 	1581499411	8.31	15.39
12/02/2020 09:23:32	120220	12022020	092332	186.95	12.705142	-57.152633	187.11	-0.120	0.010	2.560	186.99	-1.20	3.10	 	 	 	 	 	 	 	 	 	 	 	 	 	 	 	 	 	 	1581499412	6.99	12.95
12/02/2020 09:23:33	120220	12022020	092333	187.09	12.705113	-57.152640	187.23	-0.810	0.950	2.620	187.10	-0.40	3.10	 	 	 	 	 	 	 	 	 	 	 	 	 	 	 	 	 	 	1581499413	6.39	11.83
12/02/2020 09:23:34	120220	12022020	092334	187.01	12.705082	-57.152650	187.14	-0.860	0.820	2.670	187.01	-0.60	3.20	 	 	 	 	 	 	 	 	 	 	 	 	 	 	 	 	 	 	1581499414	7.00	12.96
12/02/2020 09:23:35	120220	12022020	092335	186.82	12.705045	-57.152660	186.92	-0.320	0.020	2.670	186.78	-1.40	3.10	 	 	 	 	 	 	 	 	 	 	 	 	 	 	 	 	 	 	1581499415	8.10	15.00
12/02/2020 09:23:36	120220	12022020	092336	186.67	12.705007	-57.152668	186.81	0.300	-0.650	2.510	186.67	-2.10	3.00	 	 	 	 	 	 	 	 	 	 	 	 	 	 	 	 	 	 	1581499416	8.66	16.04
12/02/2020 09:23:37	120220	12022020	092337	186.60	12.704968	-57.152675	186.70	0.570	-0.910	2.380	186.57	-2.30	2.90	 	 	 	 	 	 	 	 	 	 	 	 	 	 	 	 	 	 	1581499417	8.35	15.46
12/02/2020 09:23:38	120220	12022020	092338	186.45	12.704932	-57.152682	186.58	0.390	-0.840	2.380	186.45	-2.10	2.90	 	 	 	 	 	 	 	 	 	 	 	 	 	 	 	 	 	 	1581499418	7.90	14.63
12/02/2020 09:23:39	120220	12022020	092339	186.49	12.704897	-57.152688	186.66	-0.040	-0.420	2.400	186.53	-1.70	2.90	 	 	 	 	 	 	 	 	 	 	 	 	 	 	 	 	 	 	1581499419	7.63	14.13
12/02/2020 09:23:40	120220	12022020	092340	186.71	12.704863	-57.152695	186.88	-0.350	0.160	2.370	186.76	-1.10	2.90	 	 	 	 	 	 	 	 	 	 	 	 	 	 	 	 	 	 	1581499420	7.31	13.54
12/02/2020 09:23:41	120220	12022020	092341	186.83	12.704832	-57.152703	186.94	-0.250	0.400	2.310	186.82	-1.00	2.80	 	 	 	 	 	 	 	 	 	 	 	 	 	 	 	 	 	 	1581499421	7.14	13.22
12/02/2020 09:23:42	120220	12022020	092342	186.81	12.704797	-57.152710	186.93	0.070	0.190	2.170	186.81	-1.20	2.70	 	 	 	 	 	 	 	 	 	 	 	 	 	 	 	 	 	 	1581499422	7.53	13.95
12/02/2020 09:23:43	120220	12022020	092343	186.77	12.704760	-57.152715	186.88	0.170	-0.150	2.290	186.75	-1.50	2.80	 	 	 	 	 	 	 	 	 	 	 	 	 	 	 	 	 	 	1581499423	7.92	14.67
12/02/2020 09:23:44	120220	12022020	092344	186.64	12.704723	-57.152723	186.75	0.020	-0.380	2.590	186.61	-1.70	3.10	 	 	 	 	 	 	 	 	 	 	 	 	 	 	 	 	 	 	1581499424	7.96	14.74
12/02/2020 09:23:45	120220	12022020	092345	186.54	12.704688	-57.152733	186.68	-0.100	-0.260	2.780	186.54	-1.60	3.30	 	 	 	 	 	 	 	 	 	 	 	 	 	 	 	 	 	 	1581499425	7.84	14.52
12/02/2020 09:23:46	120220	12022020	092346	186.60	12.704655	-57.152743	186.75	0.120	0.030	2.650	186.61	-1.30	3.10	 	 	 	 	 	 	 	 	 	 	 	 	 	 	 	 	 	 	1581499426	7.44	13.78
12/02/2020 09:23:47	120220	12022020	092347	186.67	12.704623	-57.152750	186.79	0.640	-0.100	2.240	186.67	-1.50	2.70	 	 	 	 	 	 	 	 	 	 	 	 	 	 	 	 	 	 	1581499427	7.20	13.33
12/02/2020 09:23:48	120220	12022020	092348	186.63	12.704587	-57.152755	186.72	0.950	-0.690	1.950	186.61	-2.10	2.50	 	 	 	 	 	 	 	 	 	 	 	 	 	 	 	 	 	 	1581499428	7.71	14.28
12/02/2020 09:23:49	120220	12022020	092349	186.52	12.704550	-57.152757	186.60	0.570	-1.110	2.090	186.48	-2.50	2.60	 	 	 	 	 	 	 	 	 	 	 	 	 	 	 	 	 	 	1581499429	8.19	15.17
12/02/2020 09:23:50	120220	12022020	092350	186.30	12.704513	-57.152763	186.39	-0.340	-0.970	2.490	186.25	-2.20	3.10	 	 	 	 	 	 	 	 	 	 	 	 	 	 	 	 	 	 	1581499430	7.96	14.74
12/02/2020 09:23:51	120220	12022020	092351	186.13	12.704480	-57.152777	186.25	-1.080	-0.410	2.890	186.11	-1.70	3.40	 	 	 	 	 	 	 	 	 	 	 	 	 	 	 	 	 	 	1581499431	7.61	14.09
12/02/2020 09:23:52	120220	12022020	092352	186.16	12.704447	-57.152790	186.29	-1.010	0.020	2.900	186.16	-1.30	3.30	 	 	 	 	 	 	 	 	 	 	 	 	 	 	 	 	 	 	1581499432	7.55	13.98
12/02/2020 09:23:53	120220	12022020	092353	186.41	12.704413	-57.152802	186.61	-0.310	0.160	2.300	186.49	-1.20	2.70	 	 	 	 	 	 	 	 	 	 	 	 	 	 	 	 	 	 	1581499433	7.71	14.28
12/02/2020 09:23:54	120220	12022020	092354	186.87	12.704377	-57.152807	187.10	0.280	0.240	1.730	186.97	-1.10	2.20	 	 	 	 	 	 	 	 	 	 	 	 	 	 	 	 	 	 	1581499434	7.85	14.54
12/02/2020 09:23:55	120220	12022020	092355	187.28	12.704342	-57.152810	187.43	0.380	0.300	1.320	187.32	-1.10	1.80	 	 	 	 	 	 	 	 	 	 	 	 	 	 	 	 	 	 	1581499435	7.65	14.17
12/02/2020 09:23:56	120220	12022020	092356	187.27	12.704307	-57.152813	187.31	0.250	-0.050	1.240	187.20	-1.50	1.80	 	 	 	 	 	 	 	 	 	 	 	 	 	 	 	 	 	 	1581499436	7.49	13.87
12/02/2020 09:23:57	120220	12022020	092357	186.76	12.704270	-57.152818	186.74	0.290	-0.920	1.840	186.61	-2.40	2.50	 	 	 	 	 	 	 	 	 	 	 	 	 	 	 	 	 	 	1581499437	7.97	14.76
12/02/2020 09:23:58	120220	12022020	092358	186.00	12.704230	-57.152827	186.01	0.440	-1.540	2.810	185.86	-2.90	3.40	 	 	 	 	 	 	 	 	 	 	 	 	 	 	 	 	 	 	1581499438	8.72	16.15
12/02/2020 09:23:59	120220	12022020	092359	185.47	12.704192	-57.152838	185.60	0.220	-1.010	3.580	185.42	-2.20	4.10	 	 	 	 	 	 	 	 	 	 	 	 	 	 	 	 	 	 	1581499439	8.63	15.98
12/02/2020 09:24:00	120220	12022020	092400	185.46	12.704158	-57.152848	185.71	-0.530	0.490	3.820	185.52	-0.60	4.30	 	 	 	 	 	 	 	 	 	 	 	 	 	 	 	 	 	 	1581499440	7.47	13.83
12/02/2020 09:24:01	120220	12022020	092401	185.88	12.704132	-57.152862	186.17	-1.280	1.720	3.710	185.99	0.40	4.20	1014.90	26.10	26.20	20.70	20.80	-1.0	72.0	72.0	392.0	25.7	274.00	11.00	80.00	11.40	16	10150.0	27.5	27.5	1581499441	6.44	11.93
12/02/2020 09:24:02	120220	12022020	092402	186.56	12.704103	-57.152875	186.72	-1.310	1.650	3.260	186.56	0.20	3.70	 	 	 	 	 	 	 	 	 	 	 	 	 	 	 	 	 	 	1581499442	6.71	12.43
12/02/2020 09:24:03	120220	12022020	092403	186.94	12.704070	-57.152887	187.18	-0.300	0.540	2.330	187.03	-1.00	2.70	 	 	 	 	 	 	 	 	 	 	 	 	 	 	 	 	 	 	1581499443	7.73	14.32
12/02/2020 09:24:04	120220	12022020	092404	187.34	12.704032	-57.152895	187.52	1.170	-0.670	1.090	187.41	-2.10	1.40	 	 	 	 	 	 	 	 	 	 	 	 	 	 	 	 	 	 	1581499444	8.32	15.41
12/02/2020 09:24:05	120220	12022020	092405	187.56	12.703993	-57.152893	187.68	2.110	-1.480	0.120	187.57	-2.90	0.50	 	 	 	 	 	 	 	 	 	 	 	 	 	 	 	 	 	 	1581499445	8.25	15.28
12/02/2020 09:24:06	120220	12022020	092406	187.41	12.703957	-57.152890	187.45	1.860	-1.870	-0.040	187.33	-3.20	0.50	 	 	 	 	 	 	 	 	 	 	 	 	 	 	 	 	 	 	1581499446	8.02	14.85
12/02/2020 09:24:07	120220	12022020	092407	186.97	12.703920	-57.152888	187.00	0.580	-1.780	0.950	186.87	-3.10	1.70	 	 	 	 	 	 	 	 	 	 	 	 	 	 	 	 	 	 	1581499447	7.65	14.17
12/02/2020 09:24:08	120220	12022020	092408	186.42	12.703887	-57.152898	186.48	-0.850	-1.390	2.760	186.31	-2.60	3.50	 	 	 	 	 	 	 	 	 	 	 	 	 	 	 	 	 	 	1581499448	7.54	13.96
12/02/2020 09:24:09	120220	12022020	092409	185.85	12.703853	-57.152918	185.94	-1.640	-0.810	4.480	185.74	-2.00	5.20	 	 	 	 	 	 	 	 	 	 	 	 	 	 	 	 	 	 	1581499449	8.28	15.33
12/02/2020 09:24:10	120220	12022020	092410	185.28	12.703820	-57.152942	185.38	-1.690	-0.110	5.610	185.18	-1.30	6.20	 	 	 	 	 	 	 	 	 	 	 	 	 	 	 	 	 	 	1581499450	8.69	16.09
12/02/2020 09:24:11	120220	12022020	092411	184.82	12.703785	-57.152962	184.99	-1.300	0.580	5.910	184.78	-0.70	6.30	 	 	 	 	 	 	 	 	 	 	 	 	 	 	 	 	 	 	1581499451	8.62	15.96
12/02/2020 09:24:12	120220	12022020	092412	184.80	12.703750	-57.152977	185.05	-0.770	1.190	5.130	184.86	-0.10	5.40	 	 	 	 	 	 	 	 	 	 	 	 	 	 	 	 	 	 	1581499452	8.26	15.30
12/02/2020 09:24:13	120220	12022020	092413	185.24	12.703715	-57.152983	185.51	-0.120	1.540	3.460	185.36	0.20	3.70	 	 	 	 	 	 	 	 	 	 	 	 	 	 	 	 	 	 	1581499453	7.62	14.11
12/02/2020 09:24:14	120220	12022020	092414	185.74	12.703680	-57.152983	185.92	0.670	1.250	1.660	185.80	-0.20	2.00	 	 	 	 	 	 	 	 	 	 	 	 	 	 	 	 	 	 	1581499454	7.41	13.72
12/02/2020 09:24:15	120220	12022020	092415	185.99	12.703643	-57.152978	186.15	1.290	0.320	0.370	186.05	-1.20	0.80	 	 	 	 	 	 	 	 	 	 	 	 	 	 	 	 	 	 	1581499455	7.94	14.70
12/02/2020 09:24:16	120220	12022020	092416	186.32	12.703607	-57.152973	186.50	1.270	-0.540	-0.060	186.40	-2.00	0.50	 	 	 	 	 	 	 	 	 	 	 	 	 	 	 	 	 	 	1581499456	8.20	15.19
12/02/2020 09:24:17	120220	12022020	092417	186.69	12.703572	-57.152975	186.85	0.700	-0.940	0.530	186.74	-2.30	1.20	 	 	 	 	 	 	 	 	 	 	 	 	 	 	 	 	 	 	1581499457	7.50	13.89
12/02/2020 09:24:18	120220	12022020	092418	186.80	12.703540	-57.152985	186.89	0.150	-1.240	1.680	186.75	-2.60	2.40	 	 	 	 	 	 	 	 	 	 	 	 	 	 	 	 	 	 	1581499458	6.95	12.87
12/02/2020 09:24:19	120220	12022020	092419	186.30	12.703510	-57.153000	186.28	0.130	-1.900	3.090	186.13	-3.30	3.80	 	 	 	 	 	 	 	 	 	 	 	 	 	 	 	 	 	 	1581499459	7.34	13.59
12/02/2020 09:24:20	120220	12022020	092420	185.40	12.703473	-57.153015	185.38	0.480	-2.360	4.270	185.23	-3.60	4.90	 	 	 	 	 	 	 	 	 	 	 	 	 	 	 	 	 	 	1581499460	8.28	15.33
12/02/2020 09:24:21	120220	12022020	092421	184.77	12.703437	-57.153027	184.90	0.460	-1.630	4.700	184.73	-2.70	5.20	 	 	 	 	 	 	 	 	 	 	 	 	 	 	 	 	 	 	1581499461	8.42	15.59
12/02/2020 09:24:22	120220	12022020	092422	184.81	12.703403	-57.153035	185.04	-0.280	0.010	4.380	184.88	-1.10	4.80	 	 	 	 	 	 	 	 	 	 	 	 	 	 	 	 	 	 	1581499462	7.35	13.61
12/02/2020 09:24:23	120220	12022020	092423	185.25	12.703373	-57.153040	185.47	-1.240	1.260	3.780	185.33	0.00	4.20	 	 	 	 	 	 	 	 	 	 	 	 	 	 	 	 	 	 	1581499463	6.56	12.15
12/02/2020 09:24:24	120220	12022020	092424	185.58	12.703342	-57.153048	185.73	-1.600	1.280	3.240	185.58	-0.10	3.70	 	 	 	 	 	 	 	 	 	 	 	 	 	 	 	 	 	 	1581499464	7.08	13.11
12/02/2020 09:24:25	120220	12022020	092425	185.60	12.703303	-57.153057	185.74	-1.050	0.580	2.710	185.60	-0.80	3.10	 	 	 	 	 	 	 	 	 	 	 	 	 	 	 	 	 	 	1581499465	8.31	15.39
12/02/2020 09:24:26	120220	12022020	092426	185.68	12.703263	-57.153065	185.79	-0.120	0.190	2.070	185.68	-1.10	2.50	 	 	 	 	 	 	 	 	 	 	 	 	 	 	 	 	 	 	1581499466	8.72	16.15
12/02/2020 09:24:27	120220	12022020	092427	185.83	12.703227	-57.153070	185.98	0.530	0.320	1.390	185.88	-1.00	1.80	 	 	 	 	 	 	 	 	 	 	 	 	 	 	 	 	 	 	1581499467	7.93	14.69
12/02/2020 09:24:28	120220	12022020	092428	185.97	12.703195	-57.153072	186.08	0.810	0.310	0.860	185.97	-1.10	1.30	 	 	 	 	 	 	 	 	 	 	 	 	 	 	 	 	 	 	1581499468	7.09	13.13
12/02/2020 09:24:29	120220	12022020	092429	185.97	12.703162	-57.153073	186.08	0.940	-0.140	0.620	185.97	-1.50	1.10	 	 	 	 	 	 	 	 	 	 	 	 	 	 	 	 	 	 	1581499469	7.12	13.19
12/02/2020 09:24:30	120220	12022020	092430	186.07	12.703127	-57.153077	186.18	0.930	-0.550	0.770	186.07	-1.90	1.40	 	 	 	 	 	 	 	 	 	 	 	 	 	 	 	 	 	 	1581499470	7.47	13.83
12/02/2020 09:24:31	120220	12022020	092431	186.03	12.703093	-57.153080	186.09	0.650	-0.880	1.390	185.97	-2.30	2.00	 	 	 	 	 	 	 	 	 	 	 	 	 	 	 	 	 	 	1581499471	7.28	13.48
12/02/2020 09:24:32	120220	12022020	092432	185.43	12.703060	-57.153088	185.57	0.160	-1.320	2.470	185.43	-2.70	3.20	 	 	 	 	 	 	 	 	 	 	 	 	 	 	 	 	 	 	1581499472	7.38	13.67
12/02/2020 09:24:33	120220	12022020	092433	184.93	12.703025	-57.153100	184.99	-0.370	-1.520	3.690	184.82	-2.80	4.30	 	 	 	 	 	 	 	 	 	 	 	 	 	 	 	 	 	 	1581499473	7.99	14.80
12/02/2020 09:24:34	120220	12022020	092434	184.43	12.702990	-57.153117	184.53	-0.670	-1.140	4.580	184.35	-2.40	5.20	 	 	 	 	 	 	 	 	 	 	 	 	 	 	 	 	 	 	1581499474	8.23	15.24
12/02/2020 09:24:35	120220	12022020	092435	184.04	12.702957	-57.153132	184.18	-0.580	-0.410	4.770	183.99	-1.60	5.20	 	 	 	 	 	 	 	 	 	 	 	 	 	 	 	 	 	 	1581499475	7.86	14.56
12/02/2020 09:24:36	120220	12022020	092436	183.87	12.702923	-57.153142	184.06	-0.190	0.200	4.120	183.87	-1.10	4.50	 	 	 	 	 	 	 	 	 	 	 	 	 	 	 	 	 	 	1581499476	7.47	13.83
12/02/2020 09:24:37	120220	12022020	092437	183.92	12.702888	-57.153145	184.12	0.140	0.440	3.040	183.95	-0.90	3.40	 	 	 	 	 	 	 	 	 	 	 	 	 	 	 	 	 	 	1581499477	7.54	13.96
12/02/2020 09:24:38	120220	12022020	092438	184.28	12.702852	-57.153145	184.43	0.090	0.500	2.000	184.28	-0.80	2.40	 	 	 	 	 	 	 	 	 	 	 	 	 	 	 	 	 	 	1581499478	7.82	14.48
12/02/2020 09:24:39	120220	12022020	092439	184.64	12.702817	-57.153145	184.84	-0.280	0.550	1.290	184.71	-0.80	1.80	 	 	 	 	 	 	 	 	 	 	 	 	 	 	 	 	 	 	1581499479	7.70	14.26
12/02/2020 09:24:40	120220	12022020	092440	184.92	12.702782	-57.153148	185.04	-0.520	0.480	1.130	184.92	-0.90	1.70	 	 	 	 	 	 	 	 	 	 	 	 	 	 	 	 	 	 	1581499480	7.34	13.59
12/02/2020 09:24:41	120220	12022020	092441	184.93	12.702748	-57.153155	185.06	-0.240	0.190	1.260	184.94	-1.20	1.80	 	 	 	 	 	 	 	 	 	 	 	 	 	 	 	 	 	 	1581499481	7.36	13.63
12/02/2020 09:24:42	120220	12022020	092442	184.96	12.702715	-57.153162	185.09	0.440	-0.290	1.260	184.96	-1.70	1.80	 	 	 	 	 	 	 	 	 	 	 	 	 	 	 	 	 	 	1581499482	7.49	13.87
12/02/2020 09:24:43	120220	12022020	092443	184.85	12.702680	-57.153165	184.95	1.030	-0.980	1.380	184.81	-2.40	1.90	 	 	 	 	 	 	 	 	 	 	 	 	 	 	 	 	 	 	1581499483	7.65	14.17
12/02/2020 09:24:44	120220	12022020	092444	184.70	12.702642	-57.153168	184.84	1.050	-1.440	1.830	184.70	-2.80	2.40	 	 	 	 	 	 	 	 	 	 	 	 	 	 	 	 	 	 	1581499484	7.93	14.69
12/02/2020 09:24:45	120220	12022020	092445	184.64	12.702607	-57.153173	184.77	0.460	-1.280	2.620	184.61	-2.50	3.30	 	 	 	 	 	 	 	 	 	 	 	 	 	 	 	 	 	 	1581499485	7.75	14.35
12/02/2020 09:24:46	120220	12022020	092446	184.32	12.702573	-57.153182	184.49	-0.370	-0.580	3.570	184.32	-1.80	4.20	 	 	 	 	 	 	 	 	 	 	 	 	 	 	 	 	 	 	1581499486	7.31	13.54
12/02/2020 09:24:47	120220	12022020	092447	184.02	12.702543	-57.153195	184.13	-0.940	0.110	4.380	183.96	-1.10	4.90	 	 	 	 	 	 	 	 	 	 	 	 	 	 	 	 	 	 	1581499487	7.17	13.28
12/02/2020 09:24:48	120220	12022020	092448	183.82	12.702510	-57.153208	183.98	-1.010	0.350	4.620	183.81	-1.00	5.10	 	 	 	 	 	 	 	 	 	 	 	 	 	 	 	 	 	 	1581499488	7.50	13.89
12/02/2020 09:24:49	120220	12022020	092449	183.85	12.702477	-57.153220	184.05	-0.610	0.140	4.180	183.88	-1.20	4.60	 	 	 	 	 	 	 	 	 	 	 	 	 	 	 	 	 	 	1581499489	7.92	14.67
12/02/2020 09:24:50	120220	12022020	092450	184.08	12.702438	-57.153228	184.30	-0.040	-0.040	3.170	184.15	-1.40	3.50	 	 	 	 	 	 	 	 	 	 	 	 	 	 	 	 	 	 	1581499490	8.09	14.98
12/02/2020 09:24:51	120220	12022020	092451	184.46	12.702403	-57.153230	184.68	0.340	0.070	1.920	184.55	-1.20	2.30	 	 	 	 	 	 	 	 	 	 	 	 	 	 	 	 	 	 	1581499491	7.82	14.48
12/02/2020 09:24:52	120220	12022020	092452	185.03	12.702368	-57.153228	185.13	0.360	0.340	0.810	185.03	-1.00	1.20	 	 	 	 	 	 	 	 	 	 	 	 	 	 	 	 	 	 	1581499492	7.38	13.67
12/02/2020 09:24:53	120220	12022020	092453	185.42	12.702337	-57.153225	185.60	0.210	0.280	0.210	185.51	-1.10	0.70	 	 	 	 	 	 	 	 	 	 	 	 	 	 	 	 	 	 	1581499493	7.03	13.02
12/02/2020 09:24:54	120220	12022020	092454	185.59	12.702302	-57.153227	185.69	0.270	-0.490	0.380	185.59	-2.00	1.00	 	 	 	 	 	 	 	 	 	 	 	 	 	 	 	 	 	 	1581499494	7.21	13.35
12/02/2020 09:24:55	120220	12022020	092455	185.30	12.702265	-57.153232	185.32	0.590	-1.410	1.080	185.20	-2.80	1.70	 	 	 	 	 	 	 	 	 	 	 	 	 	 	 	 	 	 	1581499495	8.04	14.89
12/02/2020 09:24:56	120220	12022020	092456	184.77	12.702227	-57.153238	184.92	0.720	-1.400	1.870	184.77	-2.60	2.50	 	 	 	 	 	 	 	 	 	 	 	 	 	 	 	 	 	 	1581499496	8.29	15.35
12/02/2020 09:24:57	120220	12022020	092457	184.60	12.702193	-57.153245	184.73	0.250	-0.470	2.490	184.57	-1.60	3.10	 	 	 	 	 	 	 	 	 	 	 	 	 	 	 	 	 	 	1581499497	7.41	13.72
12/02/2020 09:24:58	120220	12022020	092458	184.51	12.702163	-57.153253	184.65	-0.580	0.370	2.870	184.51	-0.90	3.40	 	 	 	 	 	 	 	 	 	 	 	 	 	 	 	 	 	 	1581499498	6.67	12.35
12/02/2020 09:24:59	120220	12022020	092459	184.50	12.702132	-57.153263	184.65	-1.170	0.450	3.070	184.51	-0.90	3.60	 	 	 	 	 	 	 	 	 	 	 	 	 	 	 	 	 	 	1581499499	7.03	13.02
12/02/2020 09:25:00	120220	12022020	092500	184.60	12.702098	-57.153275	184.76	-1.100	0.090	2.960	184.60	-1.30	3.40	 	 	 	 	 	 	 	 	 	 	 	 	 	 	 	 	 	 	1581499500	7.88	14.59
12/02/2020 09:25:01	120220	12022020	092501	184.73	12.702062	-57.153285	184.93	-0.480	-0.190	2.430	184.76	-1.60	2.80	1014.90	26.20	26.20	20.70	20.70	-1.0	71.0	71.0	392.0	25.7	273.00	10.20	76.00	10.70	16	9590.0	27.4	27.4	1581499501	8.14	15.08
12/02/2020 09:25:02	120220	12022020	092502	184.90	12.702025	-57.153290	185.05	0.260	-0.360	1.670	184.90	-1.70	2.10	 	 	 	 	 	 	 	 	 	 	 	 	 	 	 	 	 	 	1581499502	7.80	14.45
12/02/2020 09:25:03	120220	12022020	092503	184.87	12.701990	-57.153292	184.97	0.760	-0.600	1.160	184.82	-2.00	1.60	 	 	 	 	 	 	 	 	 	 	 	 	 	 	 	 	 	 	1581499503	7.65	14.17
12/02/2020 09:25:04	120220	12022020	092504	184.31	12.701953	-57.153293	184.47	0.890	-0.880	1.270	184.31	-2.20	1.80	 	 	 	 	 	 	 	 	 	 	 	 	 	 	 	 	 	 	1581499504	7.81	14.46
12/02/2020 09:25:05	120220	12022020	092505	183.79	12.701917	-57.153298	183.87	0.670	-0.660	1.710	183.70	-1.90	2.30	 	 	 	 	 	 	 	 	 	 	 	 	 	 	 	 	 	 	1581499505	7.98	14.78
12/02/2020 09:25:06	120220	12022020	092506	183.69	12.701882	-57.153303	183.93	0.130	0.470	1.930	183.77	-0.70	2.40	 	 	 	 	 	 	 	 	 	 	 	 	 	 	 	 	 	 	1581499506	7.49	13.87
12/02/2020 09:25:07	120220	12022020	092507	184.29	12.701853	-57.153308	184.59	-0.550	1.470	1.980	184.44	0.20	2.50	 	 	 	 	 	 	 	 	 	 	 	 	 	 	 	 	 	 	1581499507	6.39	11.83
12/02/2020 09:25:08	120220	12022020	092508	184.96	12.701823	-57.153315	185.19	-0.940	0.990	2.210	185.04	-0.60	2.80	 	 	 	 	 	 	 	 	 	 	 	 	 	 	 	 	 	 	1581499508	6.42	11.89
12/02/2020 09:25:09	120220	12022020	092509	185.14	12.701788	-57.153325	185.26	-0.700	-0.760	2.800	185.10	-2.40	3.40	 	 	 	 	 	 	 	 	 	 	 	 	 	 	 	 	 	 	1581499509	7.96	14.74
12/02/2020 09:25:10	120220	12022020	092510	184.76	12.701747	-57.153338	184.93	0.030	-2.240	3.360	184.76	-3.70	3.90	 	 	 	 	 	 	 	 	 	 	 	 	 	 	 	 	 	 	1581499510	9.29	17.21
12/02/2020 09:25:11	120220	12022020	092511	184.47	12.701707	-57.153348	184.58	0.600	-2.160	3.460	184.41	-3.30	3.90	 	 	 	 	 	 	 	 	 	 	 	 	 	 	 	 	 	 	1581499511	8.90	16.48
12/02/2020 09:25:12	120220	12022020	092512	184.18	12.701673	-57.153355	184.30	0.610	-0.820	3.130	184.13	-1.90	3.60	 	 	 	 	 	 	 	 	 	 	 	 	 	 	 	 	 	 	1581499512	7.26	13.45
12/02/2020 09:25:13	120220	12022020	092513	183.95	12.701645	-57.153357	184.06	0.270	0.460	2.610	183.91	-0.80	3.00	 	 	 	 	 	 	 	 	 	 	 	 	 	 	 	 	 	 	1581499513	6.26	11.59
12/02/2020 09:25:14	120220	12022020	092514	183.74	12.701613	-57.153357	183.89	-0.010	0.860	2.210	183.74	-0.50	2.70	 	 	 	 	 	 	 	 	 	 	 	 	 	 	 	 	 	 	1581499514	6.63	12.28
12/02/2020 09:25:15	120220	12022020	092515	183.81	12.701578	-57.153360	184.00	-0.150	0.680	1.950	183.86	-0.70	2.40	 	 	 	 	 	 	 	 	 	 	 	 	 	 	 	 	 	 	1581499515	7.62	14.11
12/02/2020 09:25:16	120220	12022020	092516	184.19	12.701542	-57.153363	184.42	-0.250	0.450	1.780	184.28	-0.90	2.30	 	 	 	 	 	 	 	 	 	 	 	 	 	 	 	 	 	 	1581499516	7.97	14.76
12/02/2020 09:25:17	120220	12022020	092517	184.49	12.701507	-57.153368	184.65	-0.290	0.100	2.000	184.50	-1.30	2.60	 	 	 	 	 	 	 	 	 	 	 	 	 	 	 	 	 	 	1581499517	7.67	14.20
12/02/2020 09:25:18	120220	12022020	092518	184.35	12.701470	-57.153377	184.46	-0.180	-0.560	2.620	184.29	-2.00	3.20	 	 	 	 	 	 	 	 	 	 	 	 	 	 	 	 	 	 	1581499518	7.71	14.28
12/02/2020 09:25:19	120220	12022020	092519	184.07	12.701435	-57.153385	184.22	0.010	-1.090	3.190	184.03	-2.50	3.70	 	 	 	 	 	 	 	 	 	 	 	 	 	 	 	 	 	 	1581499519	8.10	15.00
12/02/2020 09:25:20	120220	12022020	092520	183.87	12.701398	-57.153395	184.06	0.200	-1.090	3.410	183.87	-2.40	3.90	 	 	 	 	 	 	 	 	 	 	 	 	 	 	 	 	 	 	1581499520	7.98	14.78
12/02/2020 09:25:21	120220	12022020	092521	183.77	12.701365	-57.153403	183.95	0.380	-0.620	3.180	183.76	-1.90	3.60	 	 	 	 	 	 	 	 	 	 	 	 	 	 	 	 	 	 	1581499521	7.48	13.85
12/02/2020 09:25:22	120220	12022020	092522	183.91	12.701332	-57.153408	184.18	0.390	0.150	2.390	184.01	-1.10	2.70	 	 	 	 	 	 	 	 	 	 	 	 	 	 	 	 	 	 	1581499522	7.05	13.06
12/02/2020 09:25:23	120220	12022020	092523	184.53	12.701302	-57.153408	184.83	0.080	0.760	1.340	184.68	-0.60	1.70	 	 	 	 	 	 	 	 	 	 	 	 	 	 	 	 	 	 	1581499523	6.70	12.41
12/02/2020 09:25:24	120220	12022020	092524	185.16	12.701270	-57.153407	185.36	-0.340	0.450	0.840	185.23	-1.00	1.40	 	 	 	 	 	 	 	 	 	 	 	 	 	 	 	 	 	 	1581499524	6.76	12.52
12/02/2020 09:25:25	120220	12022020	092525	185.16	12.701235	-57.153410	185.18	-0.440	-0.890	1.340	185.06	-2.50	2.00	 	 	 	 	 	 	 	 	 	 	 	 	 	 	 	 	 	 	1581499525	7.63	14.13
12/02/2020 09:25:26	120220	12022020	092526	184.41	12.701193	-57.153420	184.39	-0.110	-2.150	2.370	184.24	-3.60	3.00	 	 	 	 	 	 	 	 	 	 	 	 	 	 	 	 	 	 	1581499526	8.91	16.50
12/02/2020 09:25:27	120220	12022020	092527	183.56	12.701153	-57.153430	183.58	0.300	-1.930	3.190	183.43	-3.10	3.70	 	 	 	 	 	 	 	 	 	 	 	 	 	 	 	 	 	 	1581499527	9.11	16.87
12/02/2020 09:25:28	120220	12022020	092528	183.15	12.701118	-57.153438	183.30	0.310	-0.240	3.320	183.15	-1.30	3.80	 	 	 	 	 	 	 	 	 	 	 	 	 	 	 	 	 	 	1581499528	7.71	14.28
12/02/2020 09:25:29	120220	12022020	092529	183.47	12.701090	-57.153442	183.77	-0.180	1.590	2.720	183.63	0.40	3.10	 	 	 	 	 	 	 	 	 	 	 	 	 	 	 	 	 	 	1581499529	6.24	11.56
12/02/2020 09:25:30	120220	12022020	092530	184.35	12.701062	-57.153445	184.64	-0.730	2.200	2.030	184.52	0.80	2.50	 	 	 	 	 	 	 	 	 	 	 	 	 	 	 	 	 	 	1581499530	5.92	10.96
12/02/2020 09:25:31	120220	12022020	092531	184.97	12.701030	-57.153448	185.14	-0.630	1.060	1.800	185.02	-0.60	2.30	 	 	 	 	 	 	 	 	 	 	 	 	 	 	 	 	 	 	1581499531	6.87	12.72
12/02/2020 09:25:32	120220	12022020	092532	185.07	12.700992	-57.153455	185.18	0.250	-0.930	1.620	185.06	-2.50	2.10	 	 	 	 	 	 	 	 	 	 	 	 	 	 	 	 	 	 	1581499532	8.50	15.74
12/02/2020 09:25:33	120220	12022020	092533	184.92	12.700948	-57.153460	185.01	1.020	-2.070	1.710	184.86	-3.50	2.30	 	 	 	 	 	 	 	 	 	 	 	 	 	 	 	 	 	 	1581499533	9.19	17.02
12/02/2020 09:25:34	120220	12022020	092534	184.58	12.700912	-57.153465	184.73	0.850	-1.710	2.190	184.58	-2.90	2.70	 	 	 	 	 	 	 	 	 	 	 	 	 	 	 	 	 	 	1581499534	8.17	15.13
12/02/2020 09:25:35	120220	12022020	092535	184.50	12.700880	-57.153470	184.67	-0.120	-0.480	2.380	184.53	-1.60	2.80	 	 	 	 	 	 	 	 	 	 	 	 	 	 	 	 	 	 	1581499535	6.81	12.61
12/02/2020 09:25:36	120220	12022020	092536	184.79	12.700852	-57.153478	185.02	-1.050	0.540	2.090	184.88	-0.70	2.50	 	 	 	 	 	 	 	 	 	 	 	 	 	 	 	 	 	 	1581499536	6.21	11.50
12/02/2020 09:25:37	120220	12022020	092537	185.29	12.700822	-57.153487	185.50	-1.120	0.540	1.740	185.38	-0.90	2.20	 	 	 	 	 	 	 	 	 	 	 	 	 	 	 	 	 	 	1581499537	6.67	12.35
12/02/2020 09:25:38	120220	12022020	092538	185.70	12.700787	-57.153497	185.88	-0.270	-0.260	1.290	185.76	-1.70	1.70	 	 	 	 	 	 	 	 	 	 	 	 	 	 	 	 	 	 	1581499538	7.82	14.48
12/02/2020 09:25:39	120220	12022020	092539	186.02	12.700748	-57.153502	186.19	0.710	-0.840	0.910	186.07	-2.20	1.40	 	 	 	 	 	 	 	 	 	 	 	 	 	 	 	 	 	 	1581499539	8.56	15.85
12/02/2020 09:25:40	120220	12022020	092540	186.24	12.700710	-57.153503	186.38	1.000	-0.630	0.910	186.25	-1.90	1.40	 	 	 	 	 	 	 	 	 	 	 	 	 	 	 	 	 	 	1581499540	8.20	15.19
12/02/2020 09:25:41	120220	12022020	092541	186.20	12.700675	-57.153505	186.30	0.440	0.020	1.340	186.16	-1.30	1.90	 	 	 	 	 	 	 	 	 	 	 	 	 	 	 	 	 	 	1581499541	7.29	13.50
12/02/2020 09:25:42	120220	12022020	092542	185.99	12.700643	-57.153510	186.09	-0.470	0.450	2.000	185.95	-0.90	2.60	 	 	 	 	 	 	 	 	 	 	 	 	 	 	 	 	 	 	1581499542	6.87	12.72
12/02/2020 09:25:43	120220	12022020	092543	185.79	12.700612	-57.153520	185.90	-1.010	0.360	2.620	185.75	-1.00	3.20	 	 	 	 	 	 	 	 	 	 	 	 	 	 	 	 	 	 	1581499543	7.26	13.45
12/02/2020 09:25:44	120220	12022020	092544	185.59	12.700578	-57.153533	185.74	-0.780	-0.030	2.980	185.59	-1.40	3.50	 	 	 	 	 	 	 	 	 	 	 	 	 	 	 	 	 	 	1581499544	7.95	14.72
12/02/2020 09:25:45	120220	12022020	092545	185.44	12.700542	-57.153547	185.53	-0.020	-0.470	2.950	185.40	-1.90	3.40	 	 	 	 	 	 	 	 	 	 	 	 	 	 	 	 	 	 	1581499545	8.13	15.06
12/02/2020 09:25:46	120220	12022020	092546	185.18	12.700505	-57.153555	185.32	0.640	-0.770	2.580	185.18	-2.10	3.00	 	 	 	 	 	 	 	 	 	 	 	 	 	 	 	 	 	 	1581499546	8.00	14.82
12/02/2020 09:25:47	120220	12022020	092547	185.08	12.700470	-57.153560	185.21	0.750	-0.690	2.090	185.08	-2.00	2.50	 	 	 	 	 	 	 	 	 	 	 	 	 	 	 	 	 	 	1581499547	7.73	14.32
12/02/2020 09:25:48	120220	12022020	092548	185.09	12.700437	-57.153562	185.23	0.330	-0.290	1.700	185.09	-1.60	2.20	 	 	 	 	 	 	 	 	 	 	 	 	 	 	 	 	 	 	1581499548	7.24	13.41
12/02/2020 09:25:49	120220	12022020	092549	185.12	12.700405	-57.153565	185.26	-0.140	0.070	1.520	185.12	-1.30	2.00	 	 	 	 	 	 	 	 	 	 	 	 	 	 	 	 	 	 	1581499549	6.87	12.72
12/02/2020 09:25:50	120220	12022020	092550	185.16	12.700372	-57.153570	185.30	-0.260	0.110	1.510	185.16	-1.30	2.00	 	 	 	 	 	 	 	 	 	 	 	 	 	 	 	 	 	 	1581499550	7.04	13.04
12/02/2020 09:25:51	120220	12022020	092551	185.31	12.700338	-57.153578	185.50	-0.090	-0.070	1.530	185.36	-1.40	2.00	 	 	 	 	 	 	 	 	 	 	 	 	 	 	 	 	 	 	1581499551	7.44	13.78
12/02/2020 09:25:52	120220	12022020	092552	185.58	12.700303	-57.153585	185.72	0.120	-0.340	1.770	185.58	-1.70	2.30	 	 	 	 	 	 	 	 	 	 	 	 	 	 	 	 	 	 	1581499552	7.63	14.13
12/02/2020 09:25:53	120220	12022020	092553	185.55	12.700268	-57.153592	185.68	0.180	-0.650	2.310	185.52	-2.00	2.90	 	 	 	 	 	 	 	 	 	 	 	 	 	 	 	 	 	 	1581499553	7.72	14.30
12/02/2020 09:25:54	120220	12022020	092554	185.26	12.700233	-57.153600	185.37	0.070	-0.830	3.030	185.18	-2.20	3.60	 	 	 	 	 	 	 	 	 	 	 	 	 	 	 	 	 	 	1581499554	7.83	14.50
12/02/2020 09:25:55	120220	12022020	092555	184.76	12.700198	-57.153610	184.86	-0.050	-0.710	3.720	184.65	-2.00	4.30	 	 	 	 	 	 	 	 	 	 	 	 	 	 	 	 	 	 	1581499555	7.86	14.56
12/02/2020 09:25:56	120220	12022020	092556	184.31	12.700163	-57.153618	184.47	-0.080	-0.200	3.880	184.27	-1.50	4.30	 	 	 	 	 	 	 	 	 	 	 	 	 	 	 	 	 	 	1581499556	7.69	14.24
12/02/2020 09:25:57	120220	12022020	092557	184.29	12.700130	-57.153625	184.53	-0.020	0.470	3.240	184.34	-0.80	3.60	 	 	 	 	 	 	 	 	 	 	 	 	 	 	 	 	 	 	1581499557	7.23	13.39
12/02/2020 09:25:58	120220	12022020	092558	184.60	12.700098	-57.153628	184.78	0.090	0.710	2.310	184.60	-0.70	2.70	 	 	 	 	 	 	 	 	 	 	 	 	 	 	 	 	 	 	1581499558	6.90	12.78
12/02/2020 09:25:59	120220	12022020	092559	184.65	12.700065	-57.153628	184.79	0.170	0.160	1.820	184.64	-1.30	2.30	 	 	 	 	 	 	 	 	 	 	 	 	 	 	 	 	 	 	1581499559	7.27	13.46
12/02/2020 09:26:00	120220	12022020	092600	184.56	12.700027	-57.153630	184.73	0.080	-0.680	1.860	184.56	-2.10	2.40	 	 	 	 	 	 	 	 	 	 	 	 	 	 	 	 	 	 	1581499560	7.97	14.76
12/02/2020 09:26:01	120220	12022020	092601	184.55	12.699990	-57.153635	184.73	-0.160	-1.080	2.140	184.56	-2.40	2.70	1015.00	26.20	26.20	20.80	20.90	-1.0	72.0	72.0	392.0	25.7	275.00	10.60	79.00	11.00	16	9914.0	27.5	27.4	1581499561	8.20	15.19
12/02/2020 09:26:02	120220	12022020	092602	184.62	12.699955	-57.153645	184.83	-0.380	-0.830	2.380	184.64	-2.10	2.90	 	 	 	 	 	 	 	 	 	 	 	 	 	 	 	 	 	 	1581499562	7.77	14.39
12/02/2020 09:26:03	120220	12022020	092603	184.80	12.699922	-57.153655	185.00	-0.380	-0.280	2.430	184.84	-1.60	2.90	 	 	 	 	 	 	 	 	 	 	 	 	 	 	 	 	 	 	1581499563	7.23	13.39
12/02/2020 09:26:04	120220	12022020	092604	184.97	12.699890	-57.153663	185.15	-0.100	0.020	2.210	185.00	-1.30	2.70	 	 	 	 	 	 	 	 	 	 	 	 	 	 	 	 	 	 	1581499564	7.01	12.98
12/02/2020 09:26:05	120220	12022020	092605	185.11	12.699857	-57.153668	185.29	0.320	-0.030	1.790	185.14	-1.40	2.20	 	 	 	 	 	 	 	 	 	 	 	 	 	 	 	 	 	 	1581499565	7.32	13.56
12/02/2020 09:26:06	120220	12022020	092606	185.18	12.699822	-57.153670	185.32	0.600	-0.190	1.500	185.18	-1.60	2.00	 	 	 	 	 	 	 	 	 	 	 	 	 	 	 	 	 	 	1581499566	7.70	14.26
12/02/2020 09:26:07	120220	12022020	092607	185.11	12.699785	-57.153672	185.23	0.600	-0.230	1.490	185.08	-1.60	2.00	 	 	 	 	 	 	 	 	 	 	 	 	 	 	 	 	 	 	1581499567	7.77	14.39
12/02/2020 09:26:08	120220	12022020	092608	185.05	12.699750	-57.153673	185.22	0.320	-0.060	1.610	185.08	-1.40	2.10	 	 	 	 	 	 	 	 	 	 	 	 	 	 	 	 	 	 	1581499568	7.59	14.06
12/02/2020 09:26:09	120220	12022020	092609	185.33	12.699717	-57.153677	185.56	-0.170	0.130	1.760	185.41	-1.20	2.30	 	 	 	 	 	 	 	 	 	 	 	 	 	 	 	 	 	 	1581499569	7.32	13.56
12/02/2020 09:26:10	120220	12022020	092610	185.63	12.699683	-57.153682	185.79	-0.590	-0.140	2.170	185.63	-1.60	2.80	 	 	 	 	 	 	 	 	 	 	 	 	 	 	 	 	 	 	1581499570	7.23	13.39
12/02/2020 09:26:11	120220	12022020	092611	185.44	12.699648	-57.153693	185.53	-0.600	-0.830	2.780	185.36	-2.30	3.40	 	 	 	 	 	 	 	 	 	 	 	 	 	 	 	 	 	 	1581499571	7.85	14.54
12/02/2020 09:26:12	120220	12022020	092612	185.08	12.699610	-57.153705	185.21	-0.310	-1.010	3.090	185.05	-2.30	3.60	 	 	 	 	 	 	 	 	 	 	 	 	 	 	 	 	 	 	1581499572	8.45	15.65
12/02/2020 09:26:13	120220	12022020	092613	185.10	12.699575	-57.153715	185.31	-0.060	-0.340	2.760	185.15	-1.60	3.20	 	 	 	 	 	 	 	 	 	 	 	 	 	 	 	 	 	 	1581499573	7.83	14.50
12/02/2020 09:26:14	120220	12022020	092614	185.40	12.699543	-57.153720	185.61	0.020	0.410	2.070	185.47	-0.90	2.50	 	 	 	 	 	 	 	 	 	 	 	 	 	 	 	 	 	 	1581499574	6.82	12.63
12/02/2020 09:26:15	120220	12022020	092615	185.68	12.699513	-57.153722	185.84	0.110	0.410	1.490	185.71	-1.00	2.00	 	 	 	 	 	 	 	 	 	 	 	 	 	 	 	 	 	 	1581499575	6.76	12.52
12/02/2020 09:26:16	120220	12022020	092616	185.70	12.699478	-57.153723	185.80	0.320	-0.310	1.370	185.67	-1.80	1.90	 	 	 	 	 	 	 	 	 	 	 	 	 	 	 	 	 	 	1581499576	7.56	14.00
12/02/2020 09:26:17	120220	12022020	092617	185.44	12.699440	-57.153728	185.53	0.480	-1.060	1.670	185.37	-2.50	2.20	 	 	 	 	 	 	 	 	 	 	 	 	 	 	 	 	 	 	1581499577	8.31	15.39
12/02/2020 09:26:18	120220	12022020	092618	185.12	12.699400	-57.153733	185.25	0.390	-1.040	1.970	185.09	-2.30	2.50	 	 	 	 	 	 	 	 	 	 	 	 	 	 	 	 	 	 	1581499578	8.41	15.58
12/02/2020 09:26:19	120220	12022020	092619	185.15	12.699365	-57.153740	185.37	0.020	-0.130	1.970	185.22	-1.30	2.40	 	 	 	 	 	 	 	 	 	 	 	 	 	 	 	 	 	 	1581499579	7.65	14.17
12/02/2020 09:26:20	120220	12022020	092620	185.62	12.699335	-57.153747	185.87	-0.340	0.850	1.660	185.74	-0.40	2.10	 	 	 	 	 	 	 	 	 	 	 	 	 	 	 	 	 	 	1581499580	6.69	12.39
12/02/2020 09:26:21	120220	12022020	092621	186.12	12.699305	-57.153750	186.31	-0.380	0.820	1.430	186.18	-0.60	2.00	 	 	 	 	 	 	 	 	 	 	 	 	 	 	 	 	 	 	1581499581	6.56	12.15
12/02/2020 09:26:22	120220	12022020	092622	186.18	12.699270	-57.153755	186.32	-0.190	-0.260	1.830	186.18	-1.80	2.50	 	 	 	 	 	 	 	 	 	 	 	 	 	 	 	 	 	 	1581499582	7.60	14.08
12/02/2020 09:26:23	120220	12022020	092623	185.96	12.699230	-57.153763	186.05	-0.050	-1.350	2.730	185.89	-2.80	3.40	 	 	 	 	 	 	 	 	 	 	 	 	 	 	 	 	 	 	1581499583	8.67	16.06
12/02/2020 09:26:24	120220	12022020	092624	185.64	12.699192	-57.153777	185.73	-0.110	-1.540	3.500	185.58	-2.80	4.10	 	 	 	 	 	 	 	 	 	 	 	 	 	 	 	 	 	 	1581499584	8.75	16.21
12/02/2020 09:26:25	120220	12022020	092625	185.33	12.699157	-57.153788	185.42	-0.170	-0.870	3.820	185.26	-2.10	4.30	 	 	 	 	 	 	 	 	 	 	 	 	 	 	 	 	 	 	1581499585	7.91	14.65
12/02/2020 09:26:26	120220	12022020	092626	184.94	12.699125	-57.153798	185.10	-0.010	-0.090	3.620	184.94	-1.30	4.10	 	 	 	 	 	 	 	 	 	 	 	 	 	 	 	 	 	 	1581499586	7.14	13.22
12/02/2020 09:26:27	120220	12022020	092627	184.83	12.699092	-57.153803	184.98	0.200	0.460	2.970	184.84	-0.80	3.40	 	 	 	 	 	 	 	 	 	 	 	 	 	 	 	 	 	 	1581499587	7.14	13.22
12/02/2020 09:26:28	120220	12022020	092628	184.99	12.699058	-57.153805	185.20	0.240	0.730	1.970	185.06	-0.60	2.30	 	 	 	 	 	 	 	 	 	 	 	 	 	 	 	 	 	 	1581499588	7.37	13.65
12/02/2020 09:26:29	120220	12022020	092629	185.37	12.699023	-57.153803	185.56	0.090	0.560	1.070	185.43	-0.90	1.50	 	 	 	 	 	 	 	 	 	 	 	 	 	 	 	 	 	 	1581499589	7.48	13.85
12/02/2020 09:26:30	120220	12022020	092630	185.65	12.698987	-57.153805	185.79	-0.060	-0.070	0.870	185.66	-1.50	1.40	 	 	 	 	 	 	 	 	 	 	 	 	 	 	 	 	 	 	1581499590	7.74	14.33
12/02/2020 09:26:31	120220	12022020	092631	185.60	12.698950	-57.153810	185.71	0.050	-0.860	1.440	185.56	-2.30	2.00	 	 	 	 	 	 	 	 	 	 	 	 	 	 	 	 	 	 	1581499591	8.09	14.98
12/02/2020 09:26:32	120220	12022020	092632	185.35	12.698913	-57.153820	185.52	0.340	-1.110	2.060	185.35	-2.40	2.60	 	 	 	 	 	 	 	 	 	 	 	 	 	 	 	 	 	 	1581499592	8.32	15.41
12/02/2020 09:26:33	120220	12022020	092633	185.50	12.698877	-57.153828	185.77	0.370	-0.360	2.200	185.60	-1.60	2.70	 	 	 	 	 	 	 	 	 	 	 	 	 	 	 	 	 	 	1581499593	7.75	14.35
12/02/2020 09:26:34	120220	12022020	092634	186.22	12.698847	-57.153832	186.39	-0.080	0.460	2.090	186.22	-0.90	2.60	 	 	 	 	 	 	 	 	 	 	 	 	 	 	 	 	 	 	1581499594	6.55	12.13
12/02/2020 09:26:35	120220	12022020	092635	186.50	12.698818	-57.153838	186.66	-0.560	0.080	2.290	186.50	-1.40	2.90	 	 	 	 	 	 	 	 	 	 	 	 	 	 	 	 	 	 	1581499595	6.48	12.00
12/02/2020 09:26:36	120220	12022020	092636	186.06	12.698782	-57.153848	186.22	-0.480	-1.300	2.940	186.06	-2.80	3.60	 	 	 	 	 	 	 	 	 	 	 	 	 	 	 	 	 	 	1581499596	7.96	14.74
12/02/2020 09:26:37	120220	12022020	092637	185.35	12.698742	-57.153862	185.35	0.070	-2.130	3.630	185.17	-3.40	4.20	 	 	 	 	 	 	 	 	 	 	 	 	 	 	 	 	 	 	1581499597	9.26	17.15
12/02/2020 09:26:38	120220	12022020	092638	184.57	12.698702	-57.153872	184.74	0.410	-1.370	3.910	184.57	-2.50	4.40	 	 	 	 	 	 	 	 	 	 	 	 	 	 	 	 	 	 	1581499598	8.81	16.32
12/02/2020 09:26:39	120220	12022020	092639	184.59	12.698668	-57.153878	184.83	0.140	0.350	3.480	184.66	-0.80	3.90	 	 	 	 	 	 	 	 	 	 	 	 	 	 	 	 	 	 	1581499599	7.23	13.39
12/02/2020 09:26:40	120220	12022020	092640	185.07	12.698638	-57.153882	185.32	-0.410	1.510	2.490	185.16	0.20	2.90	 	 	 	 	 	 	 	 	 	 	 	 	 	 	 	 	 	 	1581499600	6.27	11.61
12/02/2020 09:26:41	120220	12022020	092641	185.49	12.698607	-57.153882	185.68	-0.600	1.270	1.690	185.56	-0.20	2.10	 	 	 	 	 	 	 	 	 	 	 	 	 	 	 	 	 	 	1581499601	6.85	12.69
12/02/2020 09:26:42	120220	12022020	092642	185.82	12.698570	-57.153885	185.92	-0.280	0.290	1.360	185.82	-1.20	1.90	 	 	 	 	 	 	 	 	 	 	 	 	 	 	 	 	 	 	1581499602	8.16	15.11
12/02/2020 09:26:43	120220	12022020	092643	185.99	12.698530	-57.153890	186.15	0.190	-0.420	1.360	186.03	-1.80	1.90	 	 	 	 	 	 	 	 	 	 	 	 	 	 	 	 	 	 	1581499603	8.59	15.91
12/02/2020 09:26:44	120220	12022020	092644	186.19	12.698493	-57.153895	186.30	0.410	-0.570	1.610	186.19	-1.90	2.20	 	 	 	 	 	 	 	 	 	 	 	 	 	 	 	 	 	 	1581499604	8.03	14.87
12/02/2020 09:26:45	120220	12022020	092645	186.12	12.698460	-57.153902	186.20	0.330	-0.570	2.150	186.07	-1.90	2.70	 	 	 	 	 	 	 	 	 	 	 	 	 	 	 	 	 	 	1581499605	7.32	13.56
12/02/2020 09:26:46	120220	12022020	092646	185.83	12.698427	-57.153910	185.93	0.150	-0.710	2.780	185.79	-2.10	3.30	 	 	 	 	 	 	 	 	 	 	 	 	 	 	 	 	 	 	1581499606	7.31	13.54
12/02/2020 09:26:47	120220	12022020	092647	185.69	12.698392	-57.153920	185.83	0.020	-0.720	3.010	185.68	-2.00	3.50	 	 	 	 	 	 	 	 	 	 	 	 	 	 	 	 	 	 	1581499607	7.64	14.15
12/02/2020 09:26:48	120220	12022020	092648	185.63	12.698358	-57.153928	185.74	0.050	-0.560	2.950	185.59	-1.90	3.40	 	 	 	 	 	 	 	 	 	 	 	 	 	 	 	 	 	 	1581499608	7.50	13.89
12/02/2020 09:26:49	120220	12022020	092649	185.38	12.698325	-57.153937	185.44	0.240	-0.560	2.780	185.31	-1.90	3.20	 	 	 	 	 	 	 	 	 	 	 	 	 	 	 	 	 	 	1581499609	7.45	13.80
12/02/2020 09:26:50	120220	12022020	092650	185.08	12.698288	-57.153940	185.18	0.260	-0.520	2.560	185.04	-1.80	3.00	 	 	 	 	 	 	 	 	 	 	 	 	 	 	 	 	 	 	1581499610	7.80	14.45
12/02/2020 09:26:51	120220	12022020	092651	184.98	12.698252	-57.153945	185.15	-0.040	-0.250	2.420	184.99	-1.50	2.90	 	 	 	 	 	 	 	 	 	 	 	 	 	 	 	 	 	 	1581499611	7.82	14.48
12/02/2020 09:26:52	120220	12022020	092652	185.12	12.698218	-57.153950	185.33	-0.500	0.190	2.320	185.18	-1.10	2.80	 	 	 	 	 	 	 	 	 	 	 	 	 	 	 	 	 	 	1581499612	7.59	14.06
12/02/2020 09:26:53	120220	12022020	092653	185.51	12.698183	-57.153957	185.75	-0.720	0.590	2.160	185.60	-0.70	2.60	 	 	 	 	 	 	 	 	 	 	 	 	 	 	 	 	 	 	1581499613	7.37	13.65
12/02/2020 09:26:54	120220	12022020	092654	186.08	12.698152	-57.153965	186.22	-0.480	0.510	2.020	186.08	-0.90	2.50	 	 	 	 	 	 	 	 	 	 	 	 	 	 	 	 	 	 	1581499614	7.28	13.48
12/02/2020 09:26:55	120220	12022020	092655	186.21	12.698115	-57.153972	186.35	0.130	-0.320	2.050	186.20	-1.80	2.60	 	 	 	 	 	 	 	 	 	 	 	 	 	 	 	 	 	 	1581499615	7.70	14.26
12/02/2020 09:26:56	120220	12022020	092656	186.07	12.698077	-57.153977	186.23	0.690	-1.210	2.200	186.07	-2.60	2.70	 	 	 	 	 	 	 	 	 	 	 	 	 	 	 	 	 	 	1581499616	8.52	15.78
12/02/2020 09:26:57	120220	12022020	092657	185.98	12.698037	-57.153982	186.12	0.770	-1.230	2.360	185.97	-2.50	2.90	 	 	 	 	 	 	 	 	 	 	 	 	 	 	 	 	 	 	1581499617	8.50	15.74
12/02/2020 09:26:58	120220	12022020	092658	185.96	12.698003	-57.153987	186.11	0.380	-0.490	2.470	185.96	-1.70	3.00	 	 	 	 	 	 	 	 	 	 	 	 	 	 	 	 	 	 	1581499618	7.55	13.98
12/02/2020 09:26:59	120220	12022020	092659	185.93	12.697972	-57.153992	186.05	-0.140	0.200	2.610	185.90	-1.10	3.20	 	 	 	 	 	 	 	 	 	 	 	 	 	 	 	 	 	 	1581499619	6.86	12.70
12/02/2020 09:27:00	120220	12022020	092700	185.63	12.697938	-57.153997	185.78	-0.500	0.310	3.030	185.63	-1.10	3.60	 	 	 	 	 	 	 	 	 	 	 	 	 	 	 	 	 	 	1581499620	7.05	13.06
12/02/2020 09:27:01	120220	12022020	092701	185.24	12.697903	-57.154007	185.32	-0.620	-0.120	3.590	185.14	-1.50	4.20	1014.90	26.20	26.20	20.70	20.80	-1.0	71.0	72.0	392.0	25.7	276.00	11.10	81.00	11.40	16	10071.0	27.5	27.4	1581499621	7.82	14.48
12/02/2020 09:27:02	120220	12022020	092702	184.80	12.697865	-57.154018	184.99	-0.580	-0.420	3.860	184.80	-1.70	4.30	 	 	 	 	 	 	 	 	 	 	 	 	 	 	 	 	 	 	1581499622	8.51	15.76
12/02/2020 09:27:03	120220	12022020	092703	184.94	12.697828	-57.154030	185.22	-0.480	-0.120	3.550	185.03	-1.40	3.90	 	 	 	 	 	 	 	 	 	 	 	 	 	 	 	 	 	 	1581499623	8.32	15.41
12/02/2020 09:27:04	120220	12022020	092704	185.75	12.697795	-57.154038	185.92	-0.240	0.470	2.720	185.75	-0.80	3.10	 	 	 	 	 	 	 	 	 	 	 	 	 	 	 	 	 	 	1581499624	7.44	13.78
12/02/2020 09:27:05	120220	12022020	092705	186.45	12.697763	-57.154043	186.76	0.220	0.680	1.550	186.60	-0.70	1.90	 	 	 	 	 	 	 	 	 	 	 	 	 	 	 	 	 	 	1581499625	6.88	12.74
12/02/2020 09:27:06	120220	12022020	092706	187.18	12.697730	-57.154045	187.40	0.770	0.240	0.530	187.28	-1.20	0.90	 	 	 	 	 	 	 	 	 	 	 	 	 	 	 	 	 	 	1581499626	7.13	13.20
12/02/2020 09:27:07	120220	12022020	092707	187.54	12.697695	-57.154043	187.64	1.160	-0.610	0.050	187.55	-2.10	0.60	 	 	 	 	 	 	 	 	 	 	 	 	 	 	 	 	 	 	1581499627	7.68	14.22
12/02/2020 09:27:08	120220	12022020	092708	187.37	12.697658	-57.154043	187.46	1.140	-1.370	0.310	187.37	-2.80	0.90	 	 	 	 	 	 	 	 	 	 	 	 	 	 	 	 	 	 	1581499628	7.98	14.78
12/02/2020 09:27:09	120220	12022020	092709	186.99	12.697622	-57.154047	186.98	0.610	-1.670	1.200	186.87	-3.00	1.90	 	 	 	 	 	 	 	 	 	 	 	 	 	 	 	 	 	 	1581499629	7.91	14.65
12/02/2020 09:27:10	120220	12022020	092710	186.20	12.697585	-57.154055	186.35	-0.200	-1.580	2.520	186.20	-2.90	3.20	 	 	 	 	 	 	 	 	 	 	 	 	 	 	 	 	 	 	1581499630	7.75	14.35
12/02/2020 09:27:11	120220	12022020	092711	185.68	12.697552	-57.154068	185.72	-0.880	-1.110	3.850	185.56	-2.30	4.50	 	 	 	 	 	 	 	 	 	 	 	 	 	 	 	 	 	 	1581499631	8.01	14.83
12/02/2020 09:27:12	120220	12022020	092712	185.11	12.697517	-57.154085	185.29	-1.160	-0.370	4.690	185.11	-1.60	5.20	 	 	 	 	 	 	 	 	 	 	 	 	 	 	 	 	 	 	1581499632	8.19	15.17
12/02/2020 09:27:13	120220	12022020	092713	185.00	12.697482	-57.154100	185.17	-1.070	0.380	4.730	185.00	-0.90	5.20	 	 	 	 	 	 	 	 	 	 	 	 	 	 	 	 	 	 	1581499633	8.10	15.00
12/02/2020 09:27:14	120220	12022020	092714	185.12	12.697447	-57.154112	185.32	-0.810	0.930	4.190	185.16	-0.40	4.60	 	 	 	 	 	 	 	 	 	 	 	 	 	 	 	 	 	 	1581499634	7.92	14.67
12/02/2020 09:27:15	120220	12022020	092715	185.40	12.697412	-57.154120	185.64	-0.510	1.170	3.240	185.50	-0.20	3.60	 	 	 	 	 	 	 	 	 	 	 	 	 	 	 	 	 	 	1581499635	7.78	14.41
12/02/2020 09:27:16	120220	12022020	092716	186.29	12.697377	-57.154123	186.40	-0.210	1.260	1.830	186.29	-0.10	2.10	 	 	 	 	 	 	 	 	 	 	 	 	 	 	 	 	 	 	1581499636	7.72	14.30
12/02/2020 09:27:17	120220	12022020	092717	187.04	12.697342	-57.154125	187.30	0.150	1.110	0.540	187.21	-0.30	0.90	 	 	 	 	 	 	 	 	 	 	 	 	 	 	 	 	 	 	1581499637	7.32	13.56
12/02/2020 09:27:18	120220	12022020	092718	187.65	12.697308	-57.154125	187.76	0.740	0.230	-0.170	187.70	-1.30	0.30	 	 	 	 	 	 	 	 	 	 	 	 	 	 	 	 	 	 	1581499638	7.14	13.22
12/02/2020 09:27:19	120220	12022020	092719	187.72	12.697273	-57.154125	187.75	1.370	-1.260	-0.170	187.70	-2.80	0.40	 	 	 	 	 	 	 	 	 	 	 	 	 	 	 	 	 	 	1581499639	7.76	14.37
12/02/2020 09:27:20	120220	12022020	092720	187.34	12.697233	-57.154128	187.42	1.550	-2.410	0.710	187.34	-3.80	1.40	 	 	 	 	 	 	 	 	 	 	 	 	 	 	 	 	 	 	1581499640	8.32	15.41
12/02/2020 09:27:21	120220	12022020	092721	186.77	12.697197	-57.154135	186.71	1.090	-2.490	2.270	186.59	-3.80	3.00	 	 	 	 	 	 	 	 	 	 	 	 	 	 	 	 	 	 	1581499641	8.10	15.00
12/02/2020 09:27:22	120220	12022020	092722	185.71	12.697163	-57.154147	185.86	0.220	-1.580	3.870	185.71	-2.80	4.50	 	 	 	 	 	 	 	 	 	 	 	 	 	 	 	 	 	 	1581499642	7.59	14.06
12/02/2020 09:27:23	120220	12022020	092723	185.20	12.697132	-57.154160	185.29	-0.690	-0.360	4.900	185.12	-1.50	5.50	 	 	 	 	 	 	 	 	 	 	 	 	 	 	 	 	 	 	1581499643	7.31	13.54
12/02/2020 09:27:24	120220	12022020	092724	185.02	12.697100	-57.154175	185.26	-1.280	0.560	5.100	185.07	-0.70	5.50	 	 	 	 	 	 	 	 	 	 	 	 	 	 	 	 	 	 	1581499644	7.50	13.89
12/02/2020 09:27:25	120220	12022020	092725	185.50	12.697067	-57.154187	185.87	-1.450	1.180	4.350	185.69	-0.10	4.60	 	 	 	 	 	 	 	 	 	 	 	 	 	 	 	 	 	 	1581499645	7.82	14.48
12/02/2020 09:27:26	120220	12022020	092726	186.91	12.697032	-57.154197	187.07	-1.280	1.590	2.860	186.91	0.30	3.10	 	 	 	 	 	 	 	 	 	 	 	 	 	 	 	 	 	 	1581499646	7.66	14.19
12/02/2020 09:27:27	120220	12022020	092727	187.91	12.696998	-57.154202	188.23	-0.780	1.290	1.350	188.10	-0.20	1.70	 	 	 	 	 	 	 	 	 	 	 	 	 	 	 	 	 	 	1581499647	7.24	13.41
12/02/2020 09:27:28	120220	12022020	092728	188.46	12.696963	-57.154205	188.54	0.200	-0.170	0.600	188.43	-1.80	1.10	 	 	 	 	 	 	 	 	 	 	 	 	 	 	 	 	 	 	1581499648	7.64	14.15
12/02/2020 09:27:29	120220	12022020	092729	188.02	12.696922	-57.154208	187.96	1.340	-1.790	0.670	187.86	-3.30	1.30	 	 	 	 	 	 	 	 	 	 	 	 	 	 	 	 	 	 	1581499649	8.77	16.24
12/02/2020 09:27:30	120220	12022020	092730	187.19	12.696882	-57.154213	187.32	1.810	-1.950	1.290	187.19	-3.10	1.90	 	 	 	 	 	 	 	 	 	 	 	 	 	 	 	 	 	 	1581499650	8.93	16.54
12/02/2020 09:27:31	120220	12022020	092731	187.01	12.696847	-57.154217	187.17	1.230	-0.470	1.850	187.02	-1.50	2.40	 	 	 	 	 	 	 	 	 	 	 	 	 	 	 	 	 	 	1581499651	7.42	13.74
12/02/2020 09:27:32	120220	12022020	092732	187.31	12.696820	-57.154220	187.45	0.000	1.090	2.160	187.31	-0.10	2.70	 	 	 	 	 	 	 	 	 	 	 	 	 	 	 	 	 	 	1581499652	5.82	10.78
12/02/2020 09:27:33	120220	12022020	092733	187.54	12.696793	-57.154227	187.71	-1.020	1.140	2.560	187.57	-0.30	3.10	 	 	 	 	 	 	 	 	 	 	 	 	 	 	 	 	 	 	1581499653	5.93	10.98
12/02/2020 09:27:34	120220	12022020	092734	187.60	12.696760	-57.154240	187.77	-1.230	-0.110	3.140	187.60	-1.60	3.70	 	 	 	 	 	 	 	 	 	 	 	 	 	 	 	 	 	 	1581499654	7.74	14.33
12/02/2020 09:27:35	120220	12022020	092735	187.58	12.696720	-57.154257	187.75	-0.720	-1.200	3.410	187.57	-2.60	3.90	 	 	 	 	 	 	 	 	 	 	 	 	 	 	 	 	 	 	1581499655	9.06	16.78
12/02/2020 09:27:36	120220	12022020	092736	187.48	12.696683	-57.154272	187.65	-0.020	-1.480	3.200	187.48	-2.80	3.60	 	 	 	 	 	 	 	 	 	 	 	 	 	 	 	 	 	 	1581499656	8.66	16.04
12/02/2020 09:27:37	120220	12022020	092737	187.29	12.696648	-57.154280	187.38	0.390	-1.130	2.700	187.22	-2.40	3.10	 	 	 	 	 	 	 	 	 	 	 	 	 	 	 	 	 	 	1581499657	7.75	14.35
12/02/2020 09:27:38	120220	12022020	092738	186.83	12.696615	-57.154287	186.98	0.470	-0.480	2.160	186.83	-1.70	2.60	 	 	 	 	 	 	 	 	 	 	 	 	 	 	 	 	 	 	1581499658	7.26	13.45
12/02/2020 09:27:39	120220	12022020	092739	186.55	12.696582	-57.154288	186.63	0.440	0.270	1.700	186.49	-1.00	2.20	 	 	 	 	 	 	 	 	 	 	 	 	 	 	 	 	 	 	1581499659	7.15	13.24
12/02/2020 09:27:40	120220	12022020	092740	186.35	12.696548	-57.154292	186.49	0.380	0.890	1.390	186.35	-0.40	1.90	 	 	 	 	 	 	 	 	 	 	 	 	 	 	 	 	 	 	1581499660	7.13	13.20
12/02/2020 09:27:41	120220	12022020	092741	186.43	12.696515	-57.154292	186.61	0.170	1.060	1.350	186.47	-0.30	1.90	 	 	 	 	 	 	 	 	 	 	 	 	 	 	 	 	 	 	1581499661	7.16	13.26
12/02/2020 09:27:42	120220	12022020	092742	186.55	12.696482	-57.154297	186.70	-0.140	0.520	1.780	186.55	-0.90	2.40	 	 	 	 	 	 	 	 	 	 	 	 	 	 	 	 	 	 	1581499662	7.35	13.61
12/02/2020 09:27:43	120220	12022020	092743	186.41	12.696447	-57.154307	186.50	-0.220	-0.470	2.540	186.34	-1.90	3.20	 	 	 	 	 	 	 	 	 	 	 	 	 	 	 	 	 	 	1581499663	7.92	14.67
12/02/2020 09:27:44	120220	12022020	092744	185.92	12.696408	-57.154320	186.09	0.070	-1.320	3.260	185.92	-2.70	3.80	 	 	 	 	 	 	 	 	 	 	 	 	 	 	 	 	 	 	1581499664	8.43	15.61
12/02/2020 09:27:45	120220	12022020	092745	185.76	12.696372	-57.154332	185.96	0.430	-1.310	3.480	185.76	-2.50	4.00	 	 	 	 	 	 	 	 	 	 	 	 	 	 	 	 	 	 	1581499665	8.32	15.41
12/02/2020 09:27:46	120220	12022020	092746	185.98	12.696338	-57.154340	186.16	0.470	-0.490	3.030	185.98	-1.70	3.40	 	 	 	 	 	 	 	 	 	 	 	 	 	 	 	 	 	 	1581499666	7.32	13.56
12/02/2020 09:27:47	120220	12022020	092747	186.20	12.696308	-57.154343	186.41	0.180	0.190	2.260	186.25	-1.10	2.70	 	 	 	 	 	 	 	 	 	 	 	 	 	 	 	 	 	 	1581499667	6.40	11.85
12/02/2020 09:27:48	120220	12022020	092748	186.36	12.696278	-57.154345	186.50	-0.200	0.030	1.810	186.36	-1.40	2.30	 	 	 	 	 	 	 	 	 	 	 	 	 	 	 	 	 	 	1581499668	6.64	12.30
12/02/2020 09:27:49	120220	12022020	092749	186.15	12.696243	-57.154350	186.21	-0.360	-0.850	2.060	186.05	-2.30	2.60	 	 	 	 	 	 	 	 	 	 	 	 	 	 	 	 	 	 	1581499669	7.59	14.06
12/02/2020 09:27:50	120220	12022020	092750	185.48	12.696205	-57.154358	185.66	-0.240	-1.510	2.590	185.48	-2.80	3.20	 	 	 	 	 	 	 	 	 	 	 	 	 	 	 	 	 	 	1581499670	8.57	15.87
12/02/2020 09:27:51	120220	12022020	092751	185.03	12.696167	-57.154370	185.14	-0.080	-1.070	3.150	184.95	-2.20	3.70	 	 	 	 	 	 	 	 	 	 	 	 	 	 	 	 	 	 	1581499671	8.53	15.80
12/02/2020 09:27:52	120220	12022020	092752	184.76	12.696132	-57.154380	184.97	-0.020	0.310	3.260	184.76	-0.80	3.70	 	 	 	 	 	 	 	 	 	 	 	 	 	 	 	 	 	 	1581499672	7.54	13.96
12/02/2020 09:27:53	120220	12022020	092753	184.99	12.696103	-57.154385	185.28	-0.080	1.560	2.690	185.09	0.40	3.10	 	 	 	 	 	 	 	 	 	 	 	 	 	 	 	 	 	 	1581499673	6.53	12.09
12/02/2020 09:27:54	120220	12022020	092754	185.81	12.696072	-57.154387	185.97	-0.140	1.720	1.820	185.81	0.30	2.20	 	 	 	 	 	 	 	 	 	 	 	 	 	 	 	 	 	 	1581499674	6.50	12.04
12/02/2020 09:27:55	120220	12022020	092755	186.42	12.696038	-57.154388	186.69	-0.010	0.710	1.250	186.54	-0.80	1.70	 	 	 	 	 	 	 	 	 	 	 	 	 	 	 	 	 	 	1581499675	7.30	13.52
12/02/2020 09:27:56	120220	12022020	092756	186.86	12.696002	-57.154392	187.05	0.320	-0.730	1.250	186.90	-2.20	1.80	 	 	 	 	 	 	 	 	 	 	 	 	 	 	 	 	 	 	1581499676	8.08	14.96
12/02/2020 09:27:57	120220	12022020	092757	186.83	12.695963	-57.154398	186.96	0.600	-1.780	1.760	186.78	-3.10	2.40	 	 	 	 	 	 	 	 	 	 	 	 	 	 	 	 	 	 	1581499677	8.25	15.28
12/02/2020 09:27:58	120220	12022020	092758	186.30	12.695927	-57.154407	186.50	0.550	-1.990	2.580	186.30	-3.20	3.20	 	 	 	 	 	 	 	 	 	 	 	 	 	 	 	 	 	 	1581499678	7.88	14.59
12/02/2020 09:27:59	120220	12022020	092759	185.82	12.695895	-57.154417	185.93	0.200	-1.430	3.280	185.72	-2.60	3.90	 	 	 	 	 	 	 	 	 	 	 	 	 	 	 	 	 	 	1581499679	7.34	13.59
12/02/2020 09:28:00	120220	12022020	092800	185.38	12.695863	-57.154427	185.61	-0.190	-0.490	3.530	185.38	-1.60	4.00	 	 	 	 	 	 	 	 	 	 	 	 	 	 	 	 	 	 	1581499680	6.97	12.91
12/02/2020 09:28:01	120220	12022020	092801	185.38	12.695833	-57.154435	185.61	-0.370	0.300	3.230	185.41	-0.90	3.70	1014.90	26.20	26.20	20.60	20.70	-1.0	71.0	71.0	391.0	25.7	273.00	10.70	79.00	11.20	16	9788.0	27.4	27.4	1581499681	6.87	12.72
12/02/2020 09:28:02	120220	12022020	092802	185.59	12.695800	-57.154440	185.78	-0.340	0.570	2.650	185.59	-0.70	3.10	 	 	 	 	 	 	 	 	 	 	 	 	 	 	 	 	 	 	1581499682	7.12	13.19
12/02/2020 09:28:03	120220	12022020	092803	185.73	12.695765	-57.154445	185.93	-0.240	0.400	2.220	185.76	-0.90	2.70	 	 	 	 	 	 	 	 	 	 	 	 	 	 	 	 	 	 	1581499683	7.64	14.15
12/02/2020 09:28:04	120220	12022020	092804	185.97	12.695728	-57.154450	186.13	-0.180	0.220	1.870	185.97	-1.10	2.40	 	 	 	 	 	 	 	 	 	 	 	 	 	 	 	 	 	 	1581499684	7.93	14.69
12/02/2020 09:28:05	120220	12022020	092805	186.14	12.695693	-57.154453	186.34	-0.110	0.190	1.660	186.18	-1.10	2.20	 	 	 	 	 	 	 	 	 	 	 	 	 	 	 	 	 	 	1581499685	7.68	14.22
12/02/2020 09:28:06	120220	12022020	092806	186.32	12.695658	-57.154458	186.48	0.060	0.010	1.620	186.32	-1.30	2.10	 	 	 	 	 	 	 	 	 	 	 	 	 	 	 	 	 	 	1581499686	7.35	13.61
12/02/2020 09:28:07	120220	12022020	092807	186.51	12.695625	-57.154463	186.72	0.230	-0.400	1.610	186.55	-1.70	2.20	 	 	 	 	 	 	 	 	 	 	 	 	 	 	 	 	 	 	1581499687	7.48	13.85
12/02/2020 09:28:08	120220	12022020	092808	186.68	12.695590	-57.154468	186.83	0.320	-0.770	1.850	186.67	-2.10	2.40	 	 	 	 	 	 	 	 	 	 	 	 	 	 	 	 	 	 	1581499688	7.61	14.09
12/02/2020 09:28:09	120220	12022020	092809	186.51	12.695555	-57.154477	186.61	0.370	-0.860	2.170	186.45	-2.10	2.70	 	 	 	 	 	 	 	 	 	 	 	 	 	 	 	 	 	 	1581499689	7.55	13.98
12/02/2020 09:28:10	120220	12022020	092810	186.34	12.695522	-57.154483	186.52	0.320	-0.500	2.100	186.35	-1.70	2.60	 	 	 	 	 	 	 	 	 	 	 	 	 	 	 	 	 	 	1581499690	7.35	13.61
12/02/2020 09:28:11	120220	12022020	092811	186.43	12.695490	-57.154487	186.63	-0.050	-0.210	2.090	186.45	-1.50	2.70	 	 	 	 	 	 	 	 	 	 	 	 	 	 	 	 	 	 	1581499691	6.94	12.85
12/02/2020 09:28:12	120220	12022020	092812	186.35	12.695457	-57.154492	186.45	-0.580	-0.490	2.650	186.26	-1.80	3.30	 	 	 	 	 	 	 	 	 	 	 	 	 	 	 	 	 	 	1581499692	7.14	13.22
12/02/2020 09:28:13	120220	12022020	092813	185.71	12.695422	-57.154503	185.75	-0.920	-1.000	3.710	185.53	-2.30	4.40	 	 	 	 	 	 	 	 	 	 	 	 	 	 	 	 	 	 	1581499693	8.06	14.93
12/02/2020 09:28:14	120220	12022020	092814	184.90	12.695385	-57.154520	185.01	-0.820	-0.850	4.440	184.79	-2.00	5.00	 	 	 	 	 	 	 	 	 	 	 	 	 	 	 	 	 	 	1581499694	8.76	16.22
12/02/2020 09:28:15	120220	12022020	092815	184.62	12.695350	-57.154535	184.84	-0.300	0.140	4.190	184.64	-1.00	4.60	 	 	 	 	 	 	 	 	 	 	 	 	 	 	 	 	 	 	1581499695	8.10	15.00
12/02/2020 09:28:16	120220	12022020	092816	184.96	12.695318	-57.154543	185.24	0.350	1.050	3.070	185.07	-0.20	3.40	 	 	 	 	 	 	 	 	 	 	 	 	 	 	 	 	 	 	1581499696	6.85	12.69
12/02/2020 09:28:17	120220	12022020	092817	185.51	12.695287	-57.154543	185.75	0.900	0.910	1.660	185.60	-0.50	2.00	 	 	 	 	 	 	 	 	 	 	 	 	 	 	 	 	 	 	1581499697	6.77	12.54
12/02/2020 09:28:18	120220	12022020	092818	185.84	12.695252	-57.154540	186.00	1.160	-0.070	0.660	185.88	-1.50	1.10	 	 	 	 	 	 	 	 	 	 	 	 	 	 	 	 	 	 	1581499698	7.83	14.50
12/02/2020 09:28:19	120220	12022020	092819	185.94	12.695212	-57.154535	186.07	0.900	-0.840	0.430	185.94	-2.20	1.00	 	 	 	 	 	 	 	 	 	 	 	 	 	 	 	 	 	 	1581499699	8.43	15.61
12/02/2020 09:28:20	120220	12022020	092820	185.87	12.695177	-57.154535	186.00	0.130	-1.030	0.890	185.87	-2.30	1.50	 	 	 	 	 	 	 	 	 	 	 	 	 	 	 	 	 	 	1581499700	7.79	14.43
12/02/2020 09:28:21	120220	12022020	092821	185.74	12.695143	-57.154543	185.86	-0.770	-0.960	1.920	185.70	-2.20	2.60	 	 	 	 	 	 	 	 	 	 	 	 	 	 	 	 	 	 	1581499701	7.24	13.41
12/02/2020 09:28:22	120220	12022020	092822	185.54	12.695112	-57.154558	185.72	-1.300	-0.740	3.010	185.54	-2.00	3.60	 	 	 	 	 	 	 	 	 	 	 	 	 	 	 	 	 	 	1581499702	7.56	14.00
12/02/2020 09:28:23	120220	12022020	092823	185.53	12.695080	-57.154577	185.72	-1.180	-0.340	3.470	185.54	-1.60	4.00	 	 	 	 	 	 	 	 	 	 	 	 	 	 	 	 	 	 	1581499703	7.79	14.43
12/02/2020 09:28:24	120220	12022020	092824	185.63	12.695048	-57.154590	185.83	-0.530	-0.030	3.250	185.65	-1.30	3.70	 	 	 	 	 	 	 	 	 	 	 	 	 	 	 	 	 	 	1581499704	7.45	13.80
12/02/2020 09:28:25	120220	12022020	092825	185.70	12.695013	-57.154597	185.87	0.260	-0.120	2.820	185.69	-1.40	3.30	 	 	 	 	 	 	 	 	 	 	 	 	 	 	 	 	 	 	1581499705	7.39	13.69
12/02/2020 09:28:26	120220	12022020	092826	185.55	12.694978	-57.154600	185.74	0.750	-0.480	2.420	185.55	-1.80	2.90	 	 	 	 	 	 	 	 	 	 	 	 	 	 	 	 	 	 	1581499706	7.84	14.52
12/02/2020 09:28:27	120220	12022020	092827	185.46	12.694940	-57.154602	185.63	0.730	-0.480	1.960	185.46	-1.70	2.40	 	 	 	 	 	 	 	 	 	 	 	 	 	 	 	 	 	 	1581499707	8.13	15.06
12/02/2020 09:28:28	120220	12022020	092828	185.61	12.694905	-57.154603	185.76	0.330	0.120	1.460	185.61	-1.10	1.90	 	 	 	 	 	 	 	 	 	 	 	 	 	 	 	 	 	 	1581499708	7.65	14.17
12/02/2020 09:28:29	120220	12022020	092829	185.80	12.694873	-57.154605	185.97	-0.090	0.630	1.140	185.84	-0.70	1.70	 	 	 	 	 	 	 	 	 	 	 	 	 	 	 	 	 	 	1581499709	6.87	12.72
12/02/2020 09:28:30	120220	12022020	092830	185.94	12.694840	-57.154608	186.08	-0.270	0.330	1.330	185.94	-1.10	1.90	 	 	 	 	 	 	 	 	 	 	 	 	 	 	 	 	 	 	1581499710	6.96	12.89
12/02/2020 09:28:31	120220	12022020	092831	185.92	12.694805	-57.154615	186.05	-0.220	-0.490	1.930	185.91	-1.90	2.50	 	 	 	 	 	 	 	 	 	 	 	 	 	 	 	 	 	 	1581499711	7.84	14.52
12/02/2020 09:28:32	120220	12022020	092832	185.90	12.694767	-57.154627	186.06	-0.150	-0.950	2.520	185.90	-2.20	3.10	 	 	 	 	 	 	 	 	 	 	 	 	 	 	 	 	 	 	1581499712	8.40	15.56
12/02/2020 09:28:33	120220	12022020	092833	186.00	12.694732	-57.154637	186.22	-0.210	-0.640	2.860	186.04	-1.90	3.40	 	 	 	 	 	 	 	 	 	 	 	 	 	 	 	 	 	 	1581499713	7.95	14.72
12/02/2020 09:28:34	120220	12022020	092834	186.29	12.694700	-57.154647	186.54	-0.340	0.050	2.860	186.36	-1.20	3.30	 	 	 	 	 	 	 	 	 	 	 	 	 	 	 	 	 	 	1581499714	7.05	13.06
12/02/2020 09:28:35	120220	12022020	092835	186.57	12.694670	-57.154653	186.77	-0.310	0.330	2.580	186.59	-1.00	3.00	 	 	 	 	 	 	 	 	 	 	 	 	 	 	 	 	 	 	1581499715	6.58	12.19
12/02/2020 09:28:36	120220	12022020	092836	186.49	12.694638	-57.154660	186.59	0.070	-0.230	2.280	186.42	-1.70	2.80	 	 	 	 	 	 	 	 	 	 	 	 	 	 	 	 	 	 	1581499716	7.08	13.11
12/02/2020 09:28:37	120220	12022020	092837	186.04	12.694600	-57.154665	186.11	0.550	-0.950	2.260	185.93	-2.30	2.80	 	 	 	 	 	 	 	 	 	 	 	 	 	 	 	 	 	 	1581499717	8.08	14.96
12/02/2020 09:28:38	120220	12022020	092838	185.66	12.694562	-57.154668	185.80	0.690	-0.840	2.230	185.64	-2.10	2.70	 	 	 	 	 	 	 	 	 	 	 	 	 	 	 	 	 	 	1581499718	8.32	15.41
12/02/2020 09:28:39	120220	12022020	092839	185.72	12.694528	-57.154673	185.93	0.350	0.020	1.990	185.77	-1.20	2.50	 	 	 	 	 	 	 	 	 	 	 	 	 	 	 	 	 	 	1581499719	7.38	13.67
12/02/2020 09:28:40	120220	12022020	092840	185.94	12.694498	-57.154677	186.10	-0.090	0.480	1.840	185.96	-0.90	2.40	 	 	 	 	 	 	 	 	 	 	 	 	 	 	 	 	 	 	1581499720	6.52	12.08
12/02/2020 09:28:41	120220	12022020	092841	185.90	12.694465	-57.154682	186.00	-0.200	-0.090	2.120	185.86	-1.50	2.70	 	 	 	 	 	 	 	 	 	 	 	 	 	 	 	 	 	 	1581499721	7.07	13.09
12/02/2020 09:28:42	120220	12022020	092842	185.70	12.694428	-57.154690	185.87	-0.120	-0.870	2.510	185.70	-2.20	3.10	 	 	 	 	 	 	 	 	 	 	 	 	 	 	 	 	 	 	1581499722	8.26	15.30
12/02/2020 09:28:43	120220	12022020	092843	185.68	12.694390	-57.154698	185.85	-0.210	-0.910	2.760	185.68	-2.20	3.30	 	 	 	 	 	 	 	 	 	 	 	 	 	 	 	 	 	 	1581499723	8.40	15.56
12/02/2020 09:28:44	120220	12022020	092844	185.65	12.694357	-57.154708	185.83	-0.490	-0.450	2.920	185.65	-1.70	3.40	 	 	 	 	 	 	 	 	 	 	 	 	 	 	 	 	 	 	1581499724	7.58	14.04
12/02/2020 09:28:45	120220	12022020	092845	185.63	12.694323	-57.154717	185.81	-0.620	-0.020	2.950	185.63	-1.30	3.40	 	 	 	 	 	 	 	 	 	 	 	 	 	 	 	 	 	 	1581499725	7.23	13.39
12/02/2020 09:28:46	120220	12022020	092846	185.66	12.694290	-57.154725	185.86	-0.400	0.270	2.710	185.69	-1.00	3.20	 	 	 	 	 	 	 	 	 	 	 	 	 	 	 	 	 	 	1581499726	7.33	13.58
12/02/2020 09:28:47	120220	12022020	092847	185.85	12.694257	-57.154732	186.06	0.010	0.350	2.260	185.90	-1.00	2.70	 	 	 	 	 	 	 	 	 	 	 	 	 	 	 	 	 	 	1581499727	7.43	13.76
12/02/2020 09:28:48	120220	12022020	092848	186.15	12.694222	-57.154735	186.29	0.420	0.120	1.780	186.15	-1.20	2.20	 	 	 	 	 	 	 	 	 	 	 	 	 	 	 	 	 	 	1581499728	7.55	13.98
12/02/2020 09:28:49	120220	12022020	092849	186.30	12.694185	-57.154737	186.46	0.670	-0.260	1.270	186.32	-1.60	1.80	 	 	 	 	 	 	 	 	 	 	 	 	 	 	 	 	 	 	1581499729	7.76	14.37
12/02/2020 09:28:50	120220	12022020	092850	186.25	12.694150	-57.154738	186.38	0.630	-0.510	1.280	186.25	-1.80	1.90	 	 	 	 	 	 	 	 	 	 	 	 	 	 	 	 	 	 	1581499730	7.80	14.45
12/02/2020 09:28:51	120220	12022020	092851	186.01	12.694115	-57.154742	186.08	0.270	-0.480	1.900	185.93	-1.80	2.50	 	 	 	 	 	 	 	 	 	 	 	 	 	 	 	 	 	 	1581499731	7.53	13.95
12/02/2020 09:28:52	120220	12022020	092852	185.47	12.694082	-57.154750	185.64	-0.200	-0.310	2.690	185.47	-1.60	3.30	 	 	 	 	 	 	 	 	 	 	 	 	 	 	 	 	 	 	1581499732	7.26	13.45
12/02/2020 09:28:53	120220	12022020	092853	185.27	12.694048	-57.154760	185.42	-0.520	-0.240	3.200	185.25	-1.50	3.80	 	 	 	 	 	 	 	 	 	 	 	 	 	 	 	 	 	 	1581499733	7.36	13.63
12/02/2020 09:28:54	120220	12022020	092854	185.27	12.694015	-57.154772	185.44	-0.490	-0.350	3.410	185.27	-1.70	3.90	 	 	 	 	 	 	 	 	 	 	 	 	 	 	 	 	 	 	1581499734	7.64	14.15
12/02/2020 09:28:55	120220	12022020	092855	185.44	12.693980	-57.154783	185.66	-0.110	-0.470	3.090	185.50	-1.80	3.50	 	 	 	 	 	 	 	 	 	 	 	 	 	 	 	 	 	 	1581499735	7.85	14.54
12/02/2020 09:28:56	120220	12022020	092856	185.80	12.693945	-57.154790	185.96	0.340	-0.510	2.270	185.80	-1.80	2.70	 	 	 	 	 	 	 	 	 	 	 	 	 	 	 	 	 	 	1581499736	7.69	14.24
12/02/2020 09:28:57	120220	12022020	092857	185.96	12.693910	-57.154792	186.12	0.530	-0.500	1.530	185.99	-1.80	2.00	 	 	 	 	 	 	 	 	 	 	 	 	 	 	 	 	 	 	1581499737	7.60	14.08
12/02/2020 09:28:58	120220	12022020	092858	186.02	12.693875	-57.154792	186.14	0.370	-0.450	1.180	186.01	-1.80	1.70	 	 	 	 	 	 	 	 	 	 	 	 	 	 	 	 	 	 	1581499738	7.59	14.06
12/02/2020 09:28:59	120220	12022020	092859	185.85	12.693840	-57.154793	185.92	-0.040	-0.430	1.330	185.80	-1.70	1.90	 	 	 	 	 	 	 	 	 	 	 	 	 	 	 	 	 	 	1581499739	7.62	14.11
12/02/2020 09:29:00	120220	12022020	092900	185.68	12.693803	-57.154798	185.84	-0.550	-0.240	1.830	185.69	-1.50	2.40	 	 	 	 	 	 	 	 	 	 	 	 	 	 	 	 	 	 	1581499740	7.78	14.41
12/02/2020 09:29:01	120220	12022020	092901	185.95	12.693768	-57.154810	186.21	-0.910	0.360	2.220	186.06	-0.90	2.80	1014.90	26.20	26.20	20.60	20.60	-1.0	71.0	71.0	392.0	25.7	272.00	10.50	77.00	11.00	16	9815.0	27.4	27.4	1581499741	7.72	14.30
12/02/2020 09:29:02	120220	12022020	092902	186.50	12.693738	-57.154822	186.64	-0.850	0.920	2.370	186.50	-0.40	2.90	 	 	 	 	 	 	 	 	 	 	 	 	 	 	 	 	 	 	1581499742	7.18	13.30
12/02/2020 09:29:03	120220	12022020	092903	186.49	12.693707	-57.154832	186.59	-0.250	0.550	2.590	186.43	-0.90	3.20	 	 	 	 	 	 	 	 	 	 	 	 	 	 	 	 	 	 	1581499743	7.07	13.09
12/02/2020 09:29:04	120220	12022020	092904	185.99	12.693670	-57.154840	186.16	0.580	-0.390	2.770	185.99	-1.80	3.30	 	 	 	 	 	 	 	 	 	 	 	 	 	 	 	 	 	 	1581499744	7.97	14.76
12/02/2020 09:29:05	120220	12022020	092905	185.79	12.693632	-57.154845	185.94	1.060	-0.820	2.500	185.78	-2.20	3.00	 	 	 	 	 	 	 	 	 	 	 	 	 	 	 	 	 	 	1581499745	8.39	15.54
12/02/2020 09:29:06	120220	12022020	092906	185.86	12.693595	-57.154847	186.04	0.930	-0.660	1.980	185.90	-2.00	2.50	 	 	 	 	 	 	 	 	 	 	 	 	 	 	 	 	 	 	1581499746	7.72	14.30
12/02/2020 09:29:07	120220	12022020	092907	186.03	12.693563	-57.154848	186.19	0.430	-0.570	1.760	186.04	-1.90	2.30	 	 	 	 	 	 	 	 	 	 	 	 	 	 	 	 	 	 	1581499747	7.10	13.15
12/02/2020 09:29:08	120220	12022020	092908	185.97	12.693528	-57.154852	186.11	-0.070	-0.790	2.150	185.97	-2.20	2.80	 	 	 	 	 	 	 	 	 	 	 	 	 	 	 	 	 	 	1581499748	7.26	13.45
12/02/2020 09:29:09	120220	12022020	092909	185.71	12.693493	-57.154860	185.79	-0.390	-1.010	2.890	185.63	-2.30	3.50	 	 	 	 	 	 	 	 	 	 	 	 	 	 	 	 	 	 	1581499749	7.84	14.52
12/02/2020 09:29:10	120220	12022020	092910	185.18	12.693458	-57.154873	185.34	-0.560	-0.790	3.580	185.18	-2.00	4.20	 	 	 	 	 	 	 	 	 	 	 	 	 	 	 	 	 	 	1581499750	8.11	15.02
12/02/2020 09:29:11	120220	12022020	092911	184.88	12.693423	-57.154887	185.02	-0.600	-0.110	3.950	184.85	-1.30	4.50	 	 	 	 	 	 	 	 	 	 	 	 	 	 	 	 	 	 	1581499751	7.86	14.56
12/02/2020 09:29:12	120220	12022020	092912	185.08	12.693392	-57.154897	185.25	-0.590	0.720	3.660	185.08	-0.50	4.10	 	 	 	 	 	 	 	 	 	 	 	 	 	 	 	 	 	 	1581499752	7.43	13.76
12/02/2020 09:29:13	120220	12022020	092913	185.64	12.693358	-57.154903	185.94	-0.400	1.040	2.840	185.80	-0.30	3.20	 	 	 	 	 	 	 	 	 	 	 	 	 	 	 	 	 	 	1581499753	7.04	13.04
12/02/2020 09:29:14	120220	12022020	092914	186.35	12.693325	-57.154908	186.48	0.150	0.460	1.890	186.35	-1.00	2.30	 	 	 	 	 	 	 	 	 	 	 	 	 	 	 	 	 	 	1581499754	7.34	13.59
12/02/2020 09:29:15	120220	12022020	092915	186.47	12.693287	-57.154908	186.60	0.930	-0.670	1.210	186.48	-2.10	1.70	 	 	 	 	 	 	 	 	 	 	 	 	 	 	 	 	 	 	1581499755	8.19	15.17
12/02/2020 09:29:16	120220	12022020	092916	186.58	12.693247	-57.154908	186.73	1.170	-1.170	1.060	186.60	-2.50	1.60	 	 	 	 	 	 	 	 	 	 	 	 	 	 	 	 	 	 	1581499756	8.72	16.15
12/02/2020 09:29:17	120220	12022020	092917	186.62	12.693210	-57.154910	186.74	0.540	-0.830	1.550	186.59	-2.10	2.20	 	 	 	 	 	 	 	 	 	 	 	 	 	 	 	 	 	 	1581499757	7.78	14.41
12/02/2020 09:29:18	120220	12022020	092918	186.17	12.693178	-57.154915	186.32	-0.400	-0.450	2.550	186.17	-1.80	3.20	 	 	 	 	 	 	 	 	 	 	 	 	 	 	 	 	 	 	1581499758	6.88	12.74
12/02/2020 09:29:19	120220	12022020	092919	185.70	12.693147	-57.154928	185.77	-0.860	-0.340	3.440	185.60	-1.70	4.00	 	 	 	 	 	 	 	 	 	 	 	 	 	 	 	 	 	 	1581499759	7.36	13.63
12/02/2020 09:29:20	120220	12022020	092920	185.33	12.693113	-57.154943	185.46	-0.660	-0.180	3.830	185.27	-1.50	4.40	 	 	 	 	 	 	 	 	 	 	 	 	 	 	 	 	 	 	1581499760	7.90	14.63
12/02/2020 09:29:21	120220	12022020	092921	185.07	12.693078	-57.154955	185.22	-0.140	-0.040	4.020	185.02	-1.40	4.50	 	 	 	 	 	 	 	 	 	 	 	 	 	 	 	 	 	 	1581499761	7.83	14.50
12/02/2020 09:29:22	120220	12022020	092922	184.96	12.693043	-57.154965	185.21	0.220	0.130	3.700	185.01	-1.20	4.10	 	 	 	 	 	 	 	 	 	 	 	 	 	 	 	 	 	 	1581499762	7.81	14.46
12/02/2020 09:29:23	120220	12022020	092923	185.60	12.693008	-57.154970	186.00	0.190	0.550	2.640	185.81	-0.70	3.00	 	 	 	 	 	 	 	 	 	 	 	 	 	 	 	 	 	 	1581499763	7.55	13.98
12/02/2020 09:29:24	120220	12022020	092924	186.87	12.692977	-57.154973	187.29	-0.000	0.850	1.360	187.12	-0.50	1.70	 	 	 	 	 	 	 	 	 	 	 	 	 	 	 	 	 	 	1581499764	6.84	12.67
12/02/2020 09:29:25	120220	12022020	092925	187.96	12.692947	-57.154975	188.20	0.070	0.180	0.560	188.08	-1.40	1.10	 	 	 	 	 	 	 	 	 	 	 	 	 	 	 	 	 	 	1581499765	6.65	12.32
12/02/2020 09:29:26	120220	12022020	092926	188.07	12.692912	-57.154978	188.19	0.550	-1.400	0.560	188.07	-3.00	1.20	 	 	 	 	 	 	 	 	 	 	 	 	 	 	 	 	 	 	1581499766	7.64	14.15
12/02/2020 09:29:27	120220	12022020	092927	187.43	12.692870	-57.154983	187.35	0.980	-2.650	1.490	187.21	-4.00	2.20	 	 	 	 	 	 	 	 	 	 	 	 	 	 	 	 	 	 	1581499767	8.70	16.11
12/02/2020 09:29:28	120220	12022020	092928	186.31	12.692832	-57.154992	186.28	0.780	-2.390	2.900	186.10	-3.60	3.60	 	 	 	 	 	 	 	 	 	 	 	 	 	 	 	 	 	 	1581499768	8.67	16.06
12/02/2020 09:29:29	120220	12022020	092929	185.60	12.692797	-57.155002	185.76	-0.190	-0.660	3.930	185.57	-1.70	4.50	 	 	 	 	 	 	 	 	 	 	 	 	 	 	 	 	 	 	1581499769	7.65	14.17
12/02/2020 09:29:30	120220	12022020	092930	185.79	12.692768	-57.155013	186.12	-1.370	1.340	4.200	185.92	0.20	4.70	 	 	 	 	 	 	 	 	 	 	 	 	 	 	 	 	 	 	1581499770	6.60	12.22
12/02/2020 09:29:31	120220	12022020	092931	186.54	12.692742	-57.155025	186.90	-1.880	2.220	3.710	186.71	0.90	4.10	 	 	 	 	 	 	 	 	 	 	 	 	 	 	 	 	 	 	1581499771	6.50	12.04
12/02/2020 09:29:32	120220	12022020	092932	187.34	12.692708	-57.155037	187.67	-1.320	1.770	2.610	187.49	0.30	3.00	 	 	 	 	 	 	 	 	 	 	 	 	 	 	 	 	 	 	1581499772	7.34	13.59
12/02/2020 09:29:33	120220	12022020	092933	187.94	12.692672	-57.155045	188.18	-0.120	0.670	1.440	188.02	-0.90	1.80	 	 	 	 	 	 	 	 	 	 	 	 	 	 	 	 	 	 	1581499773	8.16	15.11
12/02/2020 09:29:34	120220	12022020	092934	188.08	12.692633	-57.155048	188.22	0.970	-0.580	0.700	188.08	-2.10	1.20	 	 	 	 	 	 	 	 	 	 	 	 	 	 	 	 	 	 	1581499774	8.38	15.52
12/02/2020 09:29:35	120220	12022020	092935	187.76	12.692595	-57.155052	187.77	1.430	-1.590	0.660	187.65	-3.00	1.30	 	 	 	 	 	 	 	 	 	 	 	 	 	 	 	 	 	 	1581499775	8.30	15.37
12/02/2020 09:29:36	120220	12022020	092936	187.10	12.692557	-57.155055	187.10	1.200	-1.870	1.310	186.97	-3.20	2.00	 	 	 	 	 	 	 	 	 	 	 	 	 	 	 	 	 	 	1581499776	8.01	14.83
12/02/2020 09:29:37	120220	12022020	092937	186.43	12.692523	-57.155062	186.49	0.530	-1.210	2.250	186.34	-2.40	2.90	 	 	 	 	 	 	 	 	 	 	 	 	 	 	 	 	 	 	1581499777	7.50	13.89
12/02/2020 09:29:38	120220	12022020	092938	186.13	12.692492	-57.155072	186.29	-0.260	-0.040	2.910	186.13	-1.20	3.50	 	 	 	 	 	 	 	 	 	 	 	 	 	 	 	 	 	 	1581499778	6.92	12.82
12/02/2020 09:29:39	120220	12022020	092939	186.24	12.692463	-57.155083	186.45	-0.810	0.770	3.070	186.28	-0.50	3.60	 	 	 	 	 	 	 	 	 	 	 	 	 	 	 	 	 	 	1581499779	6.71	12.43
12/02/2020 09:29:40	120220	12022020	092940	186.51	12.692432	-57.155095	186.68	-0.830	0.710	2.890	186.51	-0.70	3.40	 	 	 	 	 	 	 	 	 	 	 	 	 	 	 	 	 	 	1581499780	7.16	13.26
12/02/2020 09:29:41	120220	12022020	092941	186.63	12.692397	-57.155105	186.81	-0.290	0.040	2.420	186.64	-1.40	2.90	 	 	 	 	 	 	 	 	 	 	 	 	 	 	 	 	 	 	1581499781	7.90	14.63
12/02/2020 09:29:42	120220	12022020	092942	186.53	12.692358	-57.155112	186.70	0.390	-0.650	1.960	186.53	-2.00	2.50	 	 	 	 	 	 	 	 	 	 	 	 	 	 	 	 	 	 	1581499782	8.28	15.33
12/02/2020 09:29:43	120220	12022020	092943	186.34	12.692320	-57.155113	186.48	0.650	-0.890	1.800	186.31	-2.20	2.40	 	 	 	 	 	 	 	 	 	 	 	 	 	 	 	 	 	 	1581499783	8.26	15.30
12/02/2020 09:29:44	120220	12022020	092944	186.25	12.692283	-57.155117	186.42	0.250	-0.560	2.040	186.25	-1.80	2.60	 	 	 	 	 	 	 	 	 	 	 	 	 	 	 	 	 	 	1581499784	7.74	14.33
12/02/2020 09:29:45	120220	12022020	092945	186.32	12.692252	-57.155123	186.51	-0.420	-0.000	2.520	186.34	-1.30	3.10	 	 	 	 	 	 	 	 	 	 	 	 	 	 	 	 	 	 	1581499785	7.13	13.20
12/02/2020 09:29:46	120220	12022020	092946	186.30	12.692220	-57.155133	186.48	-0.710	0.210	3.020	186.30	-1.20	3.60	 	 	 	 	 	 	 	 	 	 	 	 	 	 	 	 	 	 	1581499786	7.01	12.98
12/02/2020 09:29:47	120220	12022020	092947	186.01	12.692187	-57.155145	186.09	-0.300	-0.300	3.480	185.91	-1.70	4.10	 	 	 	 	 	 	 	 	 	 	 	 	 	 	 	 	 	 	1581499787	7.56	14.00
12/02/2020 09:29:48	120220	12022020	092948	185.54	12.692150	-57.155157	185.68	0.360	-0.770	3.710	185.47	-2.10	4.20	 	 	 	 	 	 	 	 	 	 	 	 	 	 	 	 	 	 	1581499788	8.42	15.59
12/02/2020 09:29:49	120220	12022020	092949	185.35	12.692112	-57.155165	185.57	0.690	-0.500	3.510	185.36	-1.70	4.00	 	 	 	 	 	 	 	 	 	 	 	 	 	 	 	 	 	 	1581499789	8.28	15.33
12/02/2020 09:29:50	120220	12022020	092950	185.59	12.692078	-57.155170	185.85	0.560	0.370	2.770	185.66	-0.80	3.20	 	 	 	 	 	 	 	 	 	 	 	 	 	 	 	 	 	 	1581499790	7.29	13.50
12/02/2020 09:29:51	120220	12022020	092951	185.99	12.692048	-57.155172	186.21	0.370	0.920	1.750	186.05	-0.40	2.20	 	 	 	 	 	 	 	 	 	 	 	 	 	 	 	 	 	 	1581499791	6.51	12.06
12/02/2020 09:29:52	120220	12022020	092952	186.21	12.692017	-57.155172	186.36	0.320	0.470	1.200	186.21	-1.00	1.70	 	 	 	 	 	 	 	 	 	 	 	 	 	 	 	 	 	 	1581499792	6.85	12.69
12/02/2020 09:29:53	120220	12022020	092953	186.23	12.691980	-57.155172	186.36	0.260	-0.630	1.330	186.21	-2.10	1.90	 	 	 	 	 	 	 	 	 	 	 	 	 	 	 	 	 	 	1581499793	7.82	14.48
12/02/2020 09:29:54	120220	12022020	092954	185.99	12.691942	-57.155178	186.15	-0.020	-1.550	2.080	185.99	-2.90	2.80	 	 	 	 	 	 	 	 	 	 	 	 	 	 	 	 	 	 	1581499794	8.31	15.39
12/02/2020 09:29:55	120220	12022020	092955	185.59	12.691905	-57.155190	185.65	-0.430	-1.790	3.240	185.47	-3.10	3.90	 	 	 	 	 	 	 	 	 	 	 	 	 	 	 	 	 	 	1581499795	8.33	15.43
12/02/2020 09:29:56	120220	12022020	092956	185.04	12.691872	-57.155207	185.17	-0.670	-1.220	4.040	184.97	-2.40	4.60	 	 	 	 	 	 	 	 	 	 	 	 	 	 	 	 	 	 	1581499796	8.15	15.09
12/02/2020 09:29:57	120220	12022020	092957	184.96	12.691838	-57.155220	185.21	-0.560	-0.120	3.850	185.01	-1.30	4.30	 	 	 	 	 	 	 	 	 	 	 	 	 	 	 	 	 	 	1581499797	7.55	13.98
12/02/2020 09:29:58	120220	12022020	092958	185.41	12.691808	-57.155228	185.59	-0.140	0.780	3.040	185.41	-0.50	3.40	 	 	 	 	 	 	 	 	 	 	 	 	 	 	 	 	 	 	1581499798	6.81	12.61
12/02/2020 09:29:59	120220	12022020	092959	185.69	12.691777	-57.155232	185.88	0.350	0.740	2.130	185.74	-0.70	2.60	 	 	 	 	 	 	 	 	 	 	 	 	 	 	 	 	 	 	1581499799	6.98	12.93
12/02/2020 09:30:00	120220	12022020	093000	185.79	12.691738	-57.155230	185.91	0.650	0.000	1.420	185.79	-1.40	1.90	 	 	 	 	 	 	 	 	 	 	 	 	 	 	 	 	 	 	1581499800	7.96	14.74
12/02/2020 09:30:01	120220	12022020	093001	185.72	12.691700	-57.155230	185.82	0.610	-0.470	1.100	185.71	-1.80	1.60	1014.90	26.20	26.20	20.60	20.70	-1.0	71.0	71.0	392.0	25.7	270.00	10.50	76.00	11.20	16	9934.0	27.5	27.4	1581499801	8.51	15.76
12/02/2020 09:30:02	120220	12022020	093002	185.77	12.691662	-57.155233	185.88	0.300	-0.200	1.100	185.77	-1.40	1.70	 	 	 	 	 	 	 	 	 	 	 	 	 	 	 	 	 	 	1581499802	7.95	14.72
12/02/2020 09:30:03	120220	12022020	093003	185.91	12.691630	-57.155237	186.06	-0.040	0.200	1.260	185.94	-1.10	1.80	 	 	 	 	 	 	 	 	 	 	 	 	 	 	 	 	 	 	1581499803	7.03	13.02
12/02/2020 09:30:04	120220	12022020	093004	185.99	12.691598	-57.155243	186.13	-0.220	-0.000	1.760	185.99	-1.40	2.40	 	 	 	 	 	 	 	 	 	 	 	 	 	 	 	 	 	 	1581499804	6.94	12.85
12/02/2020 09:30:05	120220	12022020	093005	185.97	12.691563	-57.155253	186.10	-0.230	-0.650	2.580	185.95	-2.00	3.20	 	 	 	 	 	 	 	 	 	 	 	 	 	 	 	 	 	 	1581499805	7.69	14.24
12/02/2020 09:30:06	120220	12022020	093006	185.76	12.691527	-57.155265	185.93	-0.190	-1.120	3.330	185.76	-2.40	3.90	 	 	 	 	 	 	 	 	 	 	 	 	 	 	 	 	 	 	1581499806	8.23	15.24
12/02/2020 09:30:07	120220	12022020	093007	185.53	12.691492	-57.155278	185.68	-0.160	-1.040	3.760	185.48	-2.30	4.30	 	 	 	 	 	 	 	 	 	 	 	 	 	 	 	 	 	 	1581499807	8.10	15.00
12/02/2020 09:30:08	120220	12022020	093008	185.32	12.691458	-57.155287	185.51	-0.170	-0.560	3.660	185.32	-1.80	4.10	 	 	 	 	 	 	 	 	 	 	 	 	 	 	 	 	 	 	1581499808	7.61	14.09
12/02/2020 09:30:09	120220	12022020	093009	185.23	12.691425	-57.155293	185.38	-0.180	-0.100	3.220	185.20	-1.40	3.70	 	 	 	 	 	 	 	 	 	 	 	 	 	 	 	 	 	 	1581499809	7.26	13.45
12/02/2020 09:30:10	120220	12022020	093010	184.98	12.691390	-57.155298	185.16	-0.040	0.010	2.650	184.98	-1.30	3.10	 	 	 	 	 	 	 	 	 	 	 	 	 	 	 	 	 	 	1581499810	7.39	13.69
12/02/2020 09:30:11	120220	12022020	093011	184.84	12.691353	-57.155302	184.97	0.230	-0.040	1.960	184.81	-1.30	2.40	 	 	 	 	 	 	 	 	 	 	 	 	 	 	 	 	 	 	1581499811	7.84	14.52
12/02/2020 09:30:12	120220	12022020	093012	184.79	12.691317	-57.155303	184.95	0.450	0.140	1.330	184.80	-1.10	1.80	 	 	 	 	 	 	 	 	 	 	 	 	 	 	 	 	 	 	1581499812	7.99	14.80
12/02/2020 09:30:13	120220	12022020	093013	185.09	12.691282	-57.155303	185.34	0.390	0.590	0.890	185.21	-0.70	1.40	 	 	 	 	 	 	 	 	 	 	 	 	 	 	 	 	 	 	1581499813	7.62	14.11
12/02/2020 09:30:14	120220	12022020	093014	186.04	12.691248	-57.155305	186.18	0.010	0.910	0.690	186.04	-0.40	1.30	 	 	 	 	 	 	 	 	 	 	 	 	 	 	 	 	 	 	1581499814	7.03	13.02
12/02/2020 09:30:15	120220	12022020	093015	186.65	12.691217	-57.155310	186.86	-0.360	0.410	0.960	186.75	-1.10	1.60	 	 	 	 	 	 	 	 	 	 	 	 	 	 	 	 	 	 	1581499815	6.85	12.69
12/02/2020 09:30:16	120220	12022020	093016	186.80	12.691183	-57.155320	186.93	-0.210	-1.010	1.780	186.80	-2.50	2.50	 	 	 	 	 	 	 	 	 	 	 	 	 	 	 	 	 	 	1581499816	7.67	14.20
12/02/2020 09:30:17	120220	12022020	093017	186.39	12.691145	-57.155332	186.41	0.370	-2.290	2.740	186.25	-3.70	3.40	 	 	 	 	 	 	 	 	 	 	 	 	 	 	 	 	 	 	1581499817	8.74	16.19
12/02/2020 09:30:18	120220	12022020	093018	185.68	12.691105	-57.155342	185.72	0.580	-2.250	3.610	185.54	-3.40	4.20	 	 	 	 	 	 	 	 	 	 	 	 	 	 	 	 	 	 	1581499818	8.64	16.00
12/02/2020 09:30:19	120220	12022020	093019	185.04	12.691070	-57.155348	185.11	0.040	-1.220	4.060	184.93	-2.40	4.60	 	 	 	 	 	 	 	 	 	 	 	 	 	 	 	 	 	 	1581499819	7.61	14.09
12/02/2020 09:30:20	120220	12022020	093020	184.58	12.691038	-57.155357	184.68	-0.760	-0.140	4.110	184.50	-1.30	4.60	 	 	 	 	 	 	 	 	 	 	 	 	 	 	 	 	 	 	1581499820	7.08	13.11
12/02/2020 09:30:21	120220	12022020	093021	184.29	12.691005	-57.155367	184.44	-1.060	0.520	3.790	184.25	-0.70	4.20	 	 	 	 	 	 	 	 	 	 	 	 	 	 	 	 	 	 	1581499821	7.50	13.89
12/02/2020 09:30:22	120220	12022020	093022	184.25	12.690970	-57.155377	184.44	-0.620	1.000	3.020	184.28	-0.20	3.40	 	 	 	 	 	 	 	 	 	 	 	 	 	 	 	 	 	 	1581499822	7.95	14.72
12/02/2020 09:30:23	120220	12022020	093023	184.57	12.690933	-57.155382	184.84	0.000	1.380	1.980	184.70	0.10	2.40	 	 	 	 	 	 	 	 	 	 	 	 	 	 	 	 	 	 	1581499823	7.83	14.50
12/02/2020 09:30:24	120220	12022020	093024	185.53	12.690898	-57.155382	185.67	0.270	1.360	1.050	185.53	-0.00	1.50	 	 	 	 	 	 	 	 	 	 	 	 	 	 	 	 	 	 	1581499824	7.50	13.89
12/02/2020 09:30:25	120220	12022020	093025	186.22	12.690865	-57.155383	186.47	0.240	0.600	0.780	186.34	-0.90	1.40	 	 	 	 	 	 	 	 	 	 	 	 	 	 	 	 	 	 	1581499825	7.36	13.63
12/02/2020 09:30:26	120220	12022020	093026	186.54	12.690828	-57.155388	186.62	0.320	-0.780	1.350	186.49	-2.30	2.10	 	 	 	 	 	 	 	 	 	 	 	 	 	 	 	 	 	 	1581499826	7.68	14.22
12/02/2020 09:30:27	120220	12022020	093027	185.97	12.690792	-57.155397	185.96	0.600	-2.170	2.690	185.80	-3.60	3.50	 	 	 	 	 	 	 	 	 	 	 	 	 	 	 	 	 	 	1581499827	8.26	15.30
12/02/2020 09:30:28	120220	12022020	093028	184.82	12.690753	-57.155407	185.02	0.670	-2.590	4.160	184.82	-3.80	4.90	 	 	 	 	 	 	 	 	 	 	 	 	 	 	 	 	 	 	1581499828	8.62	15.96
12/02/2020 09:30:29	120220	12022020	093029	184.29	12.690717	-57.155420	184.42	0.280	-1.590	4.940	184.22	-2.60	5.50	 	 	 	 	 	 	 	 	 	 	 	 	 	 	 	 	 	 	1581499829	8.10	15.00
12/02/2020 09:30:30	120220	12022020	093030	184.26	12.690687	-57.155432	184.55	-0.400	0.230	4.600	184.35	-0.80	5.00	 	 	 	 	 	 	 	 	 	 	 	 	 	 	 	 	 	 	1581499830	6.90	12.78
12/02/2020 09:30:31	120220	12022020	093031	184.87	12.690660	-57.155438	185.18	-0.870	1.420	3.380	185.02	0.20	3.70	 	 	 	 	 	 	 	 	 	 	 	 	 	 	 	 	 	 	1581499831	6.07	11.24
12/02/2020 09:30:32	120220	12022020	093032	185.57	12.690628	-57.155440	185.70	-0.650	1.030	2.040	185.57	-0.40	2.40	 	 	 	 	 	 	 	 	 	 	 	 	 	 	 	 	 	 	1581499832	6.70	12.41
12/02/2020 09:30:33	120220	12022020	093033	185.67	12.690590	-57.155442	185.78	0.120	-0.390	1.220	185.66	-1.90	1.70	 	 	 	 	 	 	 	 	 	 	 	 	 	 	 	 	 	 	1581499833	8.35	15.46
12/02/2020 09:30:34	120220	12022020	093034	185.58	12.690547	-57.155442	185.67	0.670	-1.310	1.170	185.55	-2.60	1.80	 	 	 	 	 	 	 	 	 	 	 	 	 	 	 	 	 	 	1581499834	9.28	17.19
12/02/2020 09:30:35	120220	12022020	093035	185.43	12.690507	-57.155443	185.53	0.410	-0.970	1.650	185.39	-2.10	2.30	 	 	 	 	 	 	 	 	 	 	 	 	 	 	 	 	 	 	1581499835	8.50	15.74
12/02/2020 09:30:36	120220	12022020	093036	185.24	12.690475	-57.155450	185.40	-0.340	-0.050	2.270	185.24	-1.20	2.90	 	 	 	 	 	 	 	 	 	 	 	 	 	 	 	 	 	 	1581499836	7.17	13.28
12/02/2020 09:30:37	120220	12022020	093037	185.15	12.690443	-57.155460	185.30	-0.880	0.500	2.900	185.12	-0.80	3.50	 	 	 	 	 	 	 	 	 	 	 	 	 	 	 	 	 	 	1581499837	6.86	12.70
12/02/2020 09:30:38	120220	12022020	093038	185.05	12.690412	-57.155473	185.25	-0.790	0.370	3.240	185.06	-1.00	3.80	 	 	 	 	 	 	 	 	 	 	 	 	 	 	 	 	 	 	1581499838	7.50	13.89
12/02/2020 09:30:39	120220	12022020	093039	185.21	12.690375	-57.155485	185.43	-0.210	0.070	2.880	185.27	-1.30	3.30	 	 	 	 	 	 	 	 	 	 	 	 	 	 	 	 	 	 	1581499839	8.14	15.08
12/02/2020 09:30:40	120220	12022020	093040	185.52	12.690340	-57.155492	185.72	0.400	0.080	2.060	185.58	-1.20	2.50	 	 	 	 	 	 	 	 	 	 	 	 	 	 	 	 	 	 	1581499840	7.93	14.69
12/02/2020 09:30:41	120220	12022020	093041	185.75	12.690305	-57.155495	185.91	0.670	0.260	1.200	185.79	-1.00	1.60	 	 	 	 	 	 	 	 	 	 	 	 	 	 	 	 	 	 	1581499841	7.30	13.52
12/02/2020 09:30:42	120220	12022020	093042	185.88	12.690273	-57.155493	186.00	0.570	0.120	0.540	185.90	-1.20	1.00	 	 	 	 	 	 	 	 	 	 	 	 	 	 	 	 	 	 	1581499842	7.03	13.02
12/02/2020 09:30:43	120220	12022020	093043	185.80	12.690238	-57.155493	185.84	0.390	-0.610	0.520	185.74	-2.00	1.10	 	 	 	 	 	 	 	 	 	 	 	 	 	 	 	 	 	 	1581499843	7.27	13.46
12/02/2020 09:30:44	120220	12022020	093044	185.30	12.690202	-57.155497	185.43	0.310	-1.550	1.290	185.30	-2.90	2.00	 	 	 	 	 	 	 	 	 	 	 	 	 	 	 	 	 	 	1581499844	7.91	14.65
12/02/2020 09:30:45	120220	12022020	093045	184.98	12.690165	-57.155505	185.08	0.170	-1.900	2.400	184.92	-3.20	3.10	 	 	 	 	 	 	 	 	 	 	 	 	 	 	 	 	 	 	1581499845	8.36	15.48
12/02/2020 09:30:46	120220	12022020	093046	184.78	12.690128	-57.155517	184.94	-0.200	-1.490	3.370	184.76	-2.70	4.00	 	 	 	 	 	 	 	 	 	 	 	 	 	 	 	 	 	 	1581499846	8.09	14.98
12/02/2020 09:30:47	120220	12022020	093047	184.70	12.690095	-57.155528	184.88	-0.620	-0.660	3.950	184.68	-1.80	4.50	 	 	 	 	 	 	 	 	 	 	 	 	 	 	 	 	 	 	1581499847	7.67	14.20
12/02/2020 09:30:48	120220	12022020	093048	184.59	12.690062	-57.155540	184.80	-0.840	0.190	4.060	184.59	-1.00	4.50	 	 	 	 	 	 	 	 	 	 	 	 	 	 	 	 	 	 	1581499848	7.51	13.91
12/02/2020 09:30:49	120220	12022020	093049	184.74	12.690028	-57.155550	185.02	-0.790	0.960	3.480	184.82	-0.20	3.90	 	 	 	 	 	 	 	 	 	 	 	 	 	 	 	 	 	 	1581499849	7.50	13.89
12/02/2020 09:30:50	120220	12022020	093050	185.42	12.689993	-57.155553	185.58	-0.510	1.400	2.310	185.42	0.10	2.70	 	 	 	 	 	 	 	 	 	 	 	 	 	 	 	 	 	 	1581499850	7.37	13.65
12/02/2020 09:30:51	120220	12022020	093051	185.86	12.689960	-57.155553	186.08	-0.100	1.120	1.330	185.94	-0.30	1.80	 	 	 	 	 	 	 	 	 	 	 	 	 	 	 	 	 	 	1581499851	7.47	13.83
12/02/2020 09:30:52	120220	12022020	093052	186.11	12.689922	-57.155552	186.24	0.320	0.160	1.070	186.11	-1.30	1.70	 	 	 	 	 	 	 	 	 	 	 	 	 	 	 	 	 	 	1581499852	7.96	14.74
12/02/2020 09:30:53	120220	12022020	093053	185.91	12.689883	-57.155555	185.94	0.570	-0.860	1.660	185.80	-2.20	2.30	 	 	 	 	 	 	 	 	 	 	 	 	 	 	 	 	 	 	1581499853	8.34	15.45
12/02/2020 09:30:54	120220	12022020	093054	185.13	12.689847	-57.155563	185.29	0.570	-1.200	2.650	185.13	-2.50	3.30	 	 	 	 	 	 	 	 	 	 	 	 	 	 	 	 	 	 	1581499854	8.21	15.20
12/02/2020 09:30:55	120220	12022020	093055	184.59	12.689812	-57.155573	184.65	0.470	-0.810	3.360	184.48	-2.00	3.90	 	 	 	 	 	 	 	 	 	 	 	 	 	 	 	 	 	 	1581499855	7.60	14.08
12/02/2020 09:30:56	120220	12022020	093056	184.13	12.689782	-57.155583	184.31	0.450	-0.200	3.340	184.13	-1.40	3.80	 	 	 	 	 	 	 	 	 	 	 	 	 	 	 	 	 	 	1581499856	6.99	12.95
12/02/2020 09:30:57	120220	12022020	093057	184.26	12.689750	-57.155587	184.51	0.420	0.130	2.640	184.34	-1.20	3.10	 	 	 	 	 	 	 	 	 	 	 	 	 	 	 	 	 	 	1581499857	6.78	12.56
12/02/2020 09:30:58	120220	12022020	093058	184.83	12.689717	-57.155588	184.97	0.170	-0.220	1.830	184.83	-1.60	2.30	 	 	 	 	 	 	 	 	 	 	 	 	 	 	 	 	 	 	1581499858	7.08	13.11
12/02/2020 09:30:59	120220	12022020	093059	185.11	12.689682	-57.155590	185.29	-0.220	-1.130	1.460	185.15	-2.50	2.00	 	 	 	 	 	 	 	 	 	 	 	 	 	 	 	 	 	 	1581499859	7.83	14.50
12/02/2020 09:31:00	120220	12022020	093100	185.23	12.689642	-57.155597	185.38	-0.520	-1.670	1.710	185.23	-2.90	2.30	 	 	 	 	 	 	 	 	 	 	 	 	 	 	 	 	 	 	1581499860	8.51	15.76
12/02/2020 09:31:01	120220	12022020	093101	185.12	12.689605	-57.155607	185.24	-0.550	-1.250	2.150	185.08	-2.40	2.70	1014.90	26.20	26.20	20.60	20.60	-1.0	71.0	71.0	392.0	25.7	268.00	11.00	73.00	11.80	16	9469.0	27.5	27.4	1581499861	8.32	15.41
12/02/2020 09:31:02	120220	12022020	093102	184.90	12.689570	-57.155617	185.05	-0.350	-0.200	2.420	184.87	-1.30	3.00	 	 	 	 	 	 	 	 	 	 	 	 	 	 	 	 	 	 	1581499862	7.50	13.89
12/02/2020 09:31:03	120220	12022020	093103	184.87	12.689538	-57.155622	185.07	-0.180	0.820	2.440	184.88	-0.40	3.00	 	 	 	 	 	 	 	 	 	 	 	 	 	 	 	 	 	 	1581499863	7.00	12.96
12/02/2020 09:31:04	120220	12022020	093104	184.96	12.689505	-57.155623	185.13	-0.120	1.060	2.380	184.97	-0.30	2.90	 	 	 	 	 	 	 	 	 	 	 	 	 	 	 	 	 	 	1581499864	7.09	13.13
12/02/2020 09:31:05	120220	12022020	093105	184.99	12.689470	-57.155627	185.14	-0.060	0.470	2.360	184.98	-0.90	2.90	 	 	 	 	 	 	 	 	 	 	 	 	 	 	 	 	 	 	1581499865	7.83	14.50
12/02/2020 09:31:06	120220	12022020	093106	184.96	12.689430	-57.155632	185.12	0.110	-0.200	2.490	184.96	-1.50	3.00	 	 	 	 	 	 	 	 	 	 	 	 	 	 	 	 	 	 	1581499866	8.47	15.69
12/02/2020 09:31:07	120220	12022020	093107	184.95	12.689392	-57.155638	185.11	0.300	-0.300	2.570	184.93	-1.60	3.10	 	 	 	 	 	 	 	 	 	 	 	 	 	 	 	 	 	 	1581499867	8.26	15.30
12/02/2020 09:31:08	120220	12022020	093108	184.87	12.689358	-57.155643	185.05	0.320	-0.100	2.590	184.87	-1.40	3.10	 	 	 	 	 	 	 	 	 	 	 	 	 	 	 	 	 	 	1581499868	7.42	13.74
12/02/2020 09:31:09	120220	12022020	093109	184.82	12.689327	-57.155648	184.98	0.150	-0.130	2.560	184.80	-1.40	3.10	 	 	 	 	 	 	 	 	 	 	 	 	 	 	 	 	 	 	1581499869	7.06	13.08
12/02/2020 09:31:10	120220	12022020	093110	184.74	12.689292	-57.155655	184.93	-0.030	-0.460	2.450	184.74	-1.80	2.90	 	 	 	 	 	 	 	 	 	 	 	 	 	 	 	 	 	 	1581499870	7.34	13.59
12/02/2020 09:31:11	120220	12022020	093111	184.77	12.689258	-57.155662	184.99	-0.050	-0.710	2.270	184.79	-2.00	2.80	 	 	 	 	 	 	 	 	 	 	 	 	 	 	 	 	 	 	1581499871	7.66	14.19
12/02/2020 09:31:12	120220	12022020	093112	184.92	12.689223	-57.155668	185.15	0.060	-0.800	1.990	184.96	-2.10	2.50	 	 	 	 	 	 	 	 	 	 	 	 	 	 	 	 	 	 	1581499872	7.61	14.09
12/02/2020 09:31:13	120220	12022020	093113	185.14	12.689188	-57.155673	185.35	0.160	-0.760	1.670	185.17	-2.00	2.20	 	 	 	 	 	 	 	 	 	 	 	 	 	 	 	 	 	 	1581499873	7.51	13.91
12/02/2020 09:31:14	120220	12022020	093114	185.29	12.689153	-57.155677	185.49	0.170	-0.580	1.490	185.32	-1.80	2.00	 	 	 	 	 	 	 	 	 	 	 	 	 	 	 	 	 	 	1581499874	7.51	13.91
12/02/2020 09:31:15	120220	12022020	093115	185.46	12.689118	-57.155680	185.65	0.060	-0.310	1.480	185.48	-1.60	2.00	 	 	 	 	 	 	 	 	 	 	 	 	 	 	 	 	 	 	1581499875	7.53	13.95
12/02/2020 09:31:16	120220	12022020	093116	185.52	12.689083	-57.155683	185.67	-0.060	-0.190	1.680	185.52	-1.50	2.30	 	 	 	 	 	 	 	 	 	 	 	 	 	 	 	 	 	 	1581499876	7.54	13.96
12/02/2020 09:31:17	120220	12022020	093117	185.35	12.689048	-57.155688	185.46	-0.100	-0.220	2.110	185.30	-1.50	2.70	 	 	 	 	 	 	 	 	 	 	 	 	 	 	 	 	 	 	1581499877	7.82	14.48
12/02/2020 09:31:18	120220	12022020	093118	185.07	12.689012	-57.155695	185.19	-0.050	-0.070	2.490	185.01	-1.30	3.10	 	 	 	 	 	 	 	 	 	 	 	 	 	 	 	 	 	 	1581499878	8.03	14.87
12/02/2020 09:31:19	120220	12022020	093119	184.81	12.688975	-57.155702	184.96	-0.030	0.210	2.700	184.77	-1.00	3.20	 	 	 	 	 	 	 	 	 	 	 	 	 	 	 	 	 	 	1581499879	7.81	14.46
12/02/2020 09:31:20	120220	12022020	093120	184.80	12.688940	-57.155707	184.97	-0.130	0.400	2.720	184.80	-0.90	3.20	 	 	 	 	 	 	 	 	 	 	 	 	 	 	 	 	 	 	1581499880	7.64	14.15
12/02/2020 09:31:21	120220	12022020	093121	185.01	12.688905	-57.155712	185.24	-0.310	0.430	2.650	185.08	-0.90	3.20	 	 	 	 	 	 	 	 	 	 	 	 	 	 	 	 	 	 	1581499881	7.56	14.00
12/02/2020 09:31:22	120220	12022020	093122	185.39	12.688872	-57.155718	185.56	-0.420	0.180	2.530	185.39	-1.20	3.00	 	 	 	 	 	 	 	 	 	 	 	 	 	 	 	 	 	 	1581499882	7.46	13.82
12/02/2020 09:31:23	120220	12022020	093123	185.41	12.688837	-57.155725	185.57	-0.270	-0.570	2.450	185.38	-2.00	3.00	 	 	 	 	 	 	 	 	 	 	 	 	 	 	 	 	 	 	1581499883	7.62	14.11
12/02/2020 09:31:24	120220	12022020	093124	185.18	12.688798	-57.155733	185.30	0.080	-1.300	2.450	185.12	-2.60	3.00	 	 	 	 	 	 	 	 	 	 	 	 	 	 	 	 	 	 	1581499884	8.17	15.13
12/02/2020 09:31:25	120220	12022020	093125	184.91	12.688762	-57.155740	185.07	0.360	-1.320	2.300	184.88	-2.50	2.80	 	 	 	 	 	 	 	 	 	 	 	 	 	 	 	 	 	 	1581499885	8.19	15.17
12/02/2020 09:31:26	120220	12022020	093126	184.89	12.688727	-57.155745	185.09	0.370	-0.650	1.690	184.93	-1.80	2.10	 	 	 	 	 	 	 	 	 	 	 	 	 	 	 	 	 	 	1581499886	7.55	13.98
12/02/2020 09:31:27	120220	12022020	093127	185.15	12.688695	-57.155747	185.38	0.170	0.080	1.060	185.23	-1.10	1.50	 	 	 	 	 	 	 	 	 	 	 	 	 	 	 	 	 	 	1581499887	6.99	12.95
12/02/2020 09:31:28	120220	12022020	093128	185.47	12.688662	-57.155748	185.64	0.040	0.300	0.810	185.50	-1.00	1.40	 	 	 	 	 	 	 	 	 	 	 	 	 	 	 	 	 	 	1581499888	7.08	13.11
12/02/2020 09:31:29	120220	12022020	093129	185.54	12.688625	-57.155750	185.67	0.210	-0.100	1.110	185.53	-1.50	1.70	 	 	 	 	 	 	 	 	 	 	 	 	 	 	 	 	 	 	1581499889	7.69	14.24
12/02/2020 09:31:30	120220	12022020	093130	185.43	12.688587	-57.155755	185.57	0.500	-0.450	1.610	185.41	-1.70	2.20	 	 	 	 	 	 	 	 	 	 	 	 	 	 	 	 	 	 	1581499890	8.39	15.54
12/02/2020 09:31:31	120220	12022020	093131	185.41	12.688548	-57.155760	185.62	0.400	-0.210	2.100	185.42	-1.40	2.70	 	 	 	 	 	 	 	 	 	 	 	 	 	 	 	 	 	 	1581499891	8.28	15.33
12/02/2020 09:31:32	120220	12022020	093132	185.47	12.688513	-57.155763	185.69	-0.300	0.160	2.830	185.47	-1.10	3.50	 	 	 	 	 	 	 	 	 	 	 	 	 	 	 	 	 	 	1581499892	7.52	13.93
12/02/2020 09:31:33	120220	12022020	093133	185.32	12.688480	-57.155773	185.48	-1.090	0.070	3.700	185.25	-1.30	4.30	 	 	 	 	 	 	 	 	 	 	 	 	 	 	 	 	 	 	1581499893	7.40	13.70
12/02/2020 09:31:34	120220	12022020	093134	184.90	12.688445	-57.155787	185.05	-1.330	-0.380	4.380	184.81	-1.70	4.90	 	 	 	 	 	 	 	 	 	 	 	 	 	 	 	 	 	 	1581499894	8.12	15.04
12/02/2020 09:31:35	120220	12022020	093135	184.67	12.688408	-57.155803	184.92	-0.830	-0.560	4.160	184.68	-1.80	4.60	 	 	 	 	 	 	 	 	 	 	 	 	 	 	 	 	 	 	1581499895	8.59	15.91
12/02/2020 09:31:36	120220	12022020	093136	184.84	12.688373	-57.155813	185.11	0.050	-0.370	3.030	184.90	-1.60	3.40	 	 	 	 	 	 	 	 	 	 	 	 	 	 	 	 	 	 	1581499896	7.91	14.65
12/02/2020 09:31:37	120220	12022020	093137	185.03	12.688338	-57.155815	185.22	0.880	-0.370	1.680	185.04	-1.70	2.00	 	 	 	 	 	 	 	 	 	 	 	 	 	 	 	 	 	 	1581499897	7.37	13.65
12/02/2020 09:31:38	120220	12022020	093138	185.03	12.688303	-57.155812	185.18	1.300	-0.590	0.640	185.03	-1.90	1.10	 	 	 	 	 	 	 	 	 	 	 	 	 	 	 	 	 	 	1581499898	7.80	14.45
12/02/2020 09:31:39	120220	12022020	093139	185.10	12.688265	-57.155807	185.30	1.100	-0.470	0.140	185.15	-1.70	0.70	 	 	 	 	 	 	 	 	 	 	 	 	 	 	 	 	 	 	1581499899	8.16	15.11
12/02/2020 09:31:40	120220	12022020	093140	185.55	12.688230	-57.155805	185.70	0.370	0.100	0.010	185.55	-1.10	0.60	 	 	 	 	 	 	 	 	 	 	 	 	 	 	 	 	 	 	1581499900	7.60	14.08
12/02/2020 09:31:41	120220	12022020	093141	185.91	12.688198	-57.155807	186.11	-0.400	0.460	0.360	185.97	-0.80	1.00	 	 	 	 	 	 	 	 	 	 	 	 	 	 	 	 	 	 	1581499901	7.00	12.96
12/02/2020 09:31:42	120220	12022020	093142	186.10	12.688165	-57.155815	186.23	-0.710	0.060	1.290	186.09	-1.30	2.00	 	 	 	 	 	 	 	 	 	 	 	 	 	 	 	 	 	 	1581499902	7.31	13.54
12/02/2020 09:31:43	120220	12022020	093143	185.95	12.688128	-57.155827	186.06	-0.560	-0.720	2.540	185.89	-2.10	3.20	 	 	 	 	 	 	 	 	 	 	 	 	 	 	 	 	 	 	1581499903	8.32	15.41
12/02/2020 09:31:44	120220	12022020	093144	185.69	12.688088	-57.155842	185.87	-0.320	-1.070	3.650	185.66	-2.30	4.30	 	 	 	 	 	 	 	 	 	 	 	 	 	 	 	 	 	 	1581499904	8.82	16.33
12/02/2020 09:31:45	120220	12022020	093145	185.60	12.688053	-57.155855	185.84	-0.250	-0.700	4.100	185.62	-1.90	4.60	 	 	 	 	 	 	 	 	 	 	 	 	 	 	 	 	 	 	1581499905	8.34	15.45
12/02/2020 09:31:46	120220	12022020	093146	185.75	12.688020	-57.155865	186.02	-0.230	-0.070	3.610	185.80	-1.30	4.00	 	 	 	 	 	 	 	 	 	 	 	 	 	 	 	 	 	 	1581499906	7.43	13.76
12/02/2020 09:31:47	120220	12022020	093147	186.02	12.687987	-57.155868	186.25	-0.010	0.120	2.410	186.06	-1.20	2.80	 	 	 	 	 	 	 	 	 	 	 	 	 	 	 	 	 	 	1581499907	7.11	13.17
12/02/2020 09:31:48	120220	12022020	093148	186.19	12.687952	-57.155867	186.36	0.300	-0.200	1.330	186.19	-1.60	1.80	 	 	 	 	 	 	 	 	 	 	 	 	 	 	 	 	 	 	1581499908	7.71	14.28
12/02/2020 09:31:49	120220	12022020	093149	186.18	12.687913	-57.155865	186.33	0.380	-0.510	1.010	186.17	-1.80	1.60	 	 	 	 	 	 	 	 	 	 	 	 	 	 	 	 	 	 	1581499909	8.24	15.26
12/02/2020 09:31:50	120220	12022020	093150	186.13	12.687875	-57.155867	186.29	0.080	-0.370	1.140	186.13	-1.60	1.70	 	 	 	 	 	 	 	 	 	 	 	 	 	 	 	 	 	 	1581499910	8.05	14.91
12/02/2020 09:31:51	120220	12022020	093151	186.15	12.687840	-57.155873	186.32	-0.350	0.070	1.500	186.16	-1.20	2.10	 	 	 	 	 	 	 	 	 	 	 	 	 	 	 	 	 	 	1581499911	7.57	14.02
12/02/2020 09:31:52	120220	12022020	093152	186.24	12.687808	-57.155883	186.42	-0.420	0.360	1.880	186.26	-0.90	2.40	 	 	 	 	 	 	 	 	 	 	 	 	 	 	 	 	 	 	1581499912	7.39	13.69
12/02/2020 09:31:53	120220	12022020	093153	186.37	12.687773	-57.155893	186.55	0.040	0.230	2.040	186.38	-1.10	2.60	 	 	 	 	 	 	 	 	 	 	 	 	 	 	 	 	 	 	1581499913	7.60	14.08
12/02/2020 09:31:54	120220	12022020	093154	186.40	12.687737	-57.155900	186.58	0.580	-0.200	2.170	186.40	-1.50	2.70	 	 	 	 	 	 	 	 	 	 	 	 	 	 	 	 	 	 	1581499914	7.94	14.70
12/02/2020 09:31:55	120220	12022020	093155	186.42	12.687700	-57.155905	186.63	0.570	-0.480	2.340	186.43	-1.80	2.90	 	 	 	 	 	 	 	 	 	 	 	 	 	 	 	 	 	 	1581499915	8.14	15.08
12/02/2020 09:31:56	120220	12022020	093156	186.55	12.687663	-57.155910	186.74	-0.010	-0.450	2.390	186.55	-1.70	2.90	 	 	 	 	 	 	 	 	 	 	 	 	 	 	 	 	 	 	1581499916	7.84	14.52
12/02/2020 09:31:57	120220	12022020	093157	186.73	12.687630	-57.155918	186.98	-0.580	-0.220	2.200	186.79	-1.50	2.70	 	 	 	 	 	 	 	 	 	 	 	 	 	 	 	 	 	 	1581499917	7.44	13.78
12/02/2020 09:31:58	120220	12022020	093158	187.20	12.687598	-57.155928	187.38	-0.590	-0.090	1.650	187.20	-1.40	2.10	 	 	 	 	 	 	 	 	 	 	 	 	 	 	 	 	 	 	1581499918	7.20	13.33
12/02/2020 09:31:59	120220	12022020	093159	187.43	12.687565	-57.155933	187.59	0.040	-0.490	1.090	187.43	-1.90	1.60	 	 	 	 	 	 	 	 	 	 	 	 	 	 	 	 	 	 	1581499919	7.26	13.45
12/02/2020 09:32:00	120220	12022020	093200	186.98	12.687528	-57.155937	187.13	0.800	-1.420	1.250	186.98	-2.80	1.90	 	 	 	 	 	 	 	 	 	 	 	 	 	 	 	 	 	 	1581499920	7.96	14.74
12/02/2020 09:32:01	120220	12022020	093201	186.22	12.687487	-57.155942	186.21	0.990	-1.860	2.130	186.04	-3.10	2.80	1015.00	26.20	26.20	20.80	20.80	-1.0	72.0	72.0	392.0	25.7	271.00	10.90	76.00	11.50	16	9650.0	27.4	27.4	1581499921	8.81	16.32
12/02/2020 09:32:02	120220	12022020	093202	185.57	12.687448	-57.155948	185.78	0.260	-0.890	3.130	185.57	-1.90	3.80	 	 	 	 	 	 	 	 	 	 	 	 	 	 	 	 	 	 	1581499922	8.57	15.87
12/02/2020 09:32:03	120220	12022020	093203	185.82	12.687415	-57.155960	186.19	-0.790	0.980	3.650	185.96	-0.10	4.20	 	 	 	 	 	 	 	 	 	 	 	 	 	 	 	 	 	 	1581499923	7.36	13.63
12/02/2020 09:32:04	120220	12022020	093204	186.71	12.687388	-57.155973	186.94	-1.240	2.000	3.600	186.71	0.70	4.10	 	 	 	 	 	 	 	 	 	 	 	 	 	 	 	 	 	 	1581499924	6.50	12.04
12/02/2020 09:32:05	120220	12022020	093205	187.17	12.687355	-57.155983	187.47	-0.750	1.230	3.280	187.25	-0.30	3.80	 	 	 	 	 	 	 	 	 	 	 	 	 	 	 	 	 	 	1581499925	7.24	13.41
12/02/2020 09:32:06	120220	12022020	093206	187.47	12.687315	-57.155992	187.71	0.010	-0.240	3.060	187.49	-1.70	3.60	 	 	 	 	 	 	 	 	 	 	 	 	 	 	 	 	 	 	1581499926	8.80	16.30
12/02/2020 09:32:07	120220	12022020	093207	187.48	12.687273	-57.156000	187.66	0.350	-1.020	3.010	187.45	-2.30	3.50	 	 	 	 	 	 	 	 	 	 	 	 	 	 	 	 	 	 	1581499927	9.08	16.82
12/02/2020 09:32:08	120220	12022020	093208	187.21	12.687238	-57.156008	187.34	0.330	-0.830	2.950	187.13	-2.10	3.50	 	 	 	 	 	 	 	 	 	 	 	 	 	 	 	 	 	 	1581499928	8.03	14.87
12/02/2020 09:32:09	120220	12022020	093209	186.77	12.687205	-57.156015	186.90	0.420	-0.310	2.730	186.69	-1.50	3.20	 	 	 	 	 	 	 	 	 	 	 	 	 	 	 	 	 	 	1581499929	7.04	13.04
12/02/2020 09:32:10	120220	12022020	093210	186.54	12.687173	-57.156020	186.73	0.710	-0.030	2.120	186.55	-1.30	2.60	 	 	 	 	 	 	 	 	 	 	 	 	 	 	 	 	 	 	1581499930	6.89	12.76
12/02/2020 09:32:11	120220	12022020	093211	186.73	12.687140	-57.156022	186.96	0.860	-0.130	1.400	186.80	-1.50	1.90	 	 	 	 	 	 	 	 	 	 	 	 	 	 	 	 	 	 	1581499931	7.28	13.48
12/02/2020 09:32:12	120220	12022020	093212	187.02	12.687105	-57.156022	187.19	0.590	-0.560	1.120	187.04	-1.90	1.70	 	 	 	 	 	 	 	 	 	 	 	 	 	 	 	 	 	 	1581499932	7.61	14.09
12/02/2020 09:32:13	120220	12022020	093213	186.97	12.687068	-57.156025	187.09	0.020	-1.120	1.530	186.92	-2.50	2.20	 	 	 	 	 	 	 	 	 	 	 	 	 	 	 	 	 	 	1581499933	7.87	14.58
12/02/2020 09:32:14	120220	12022020	093214	186.62	12.687032	-57.156035	186.71	-0.590	-1.400	2.550	186.52	-2.70	3.30	 	 	 	 	 	 	 	 	 	 	 	 	 	 	 	 	 	 	1581499934	8.18	15.15
12/02/2020 09:32:15	120220	12022020	093215	186.08	12.686995	-57.156050	186.19	-0.930	-1.120	3.720	185.97	-2.30	4.40	 	 	 	 	 	 	 	 	 	 	 	 	 	 	 	 	 	 	1581499935	8.36	15.48
12/02/2020 09:32:16	120220	12022020	093216	185.63	12.686962	-57.156067	185.87	-0.810	-0.320	4.250	185.63	-1.50	4.80	 	 	 	 	 	 	 	 	 	 	 	 	 	 	 	 	 	 	1581499936	8.20	15.19
12/02/2020 09:32:17	120220	12022020	093217	185.71	12.686928	-57.156078	186.01	-0.360	0.560	3.820	185.77	-0.60	4.20	 	 	 	 	 	 	 	 	 	 	 	 	 	 	 	 	 	 	1581499937	7.66	14.19
12/02/2020 09:32:18	120220	12022020	093218	186.13	12.686895	-57.156085	186.45	0.120	0.980	2.800	186.22	-0.30	3.20	 	 	 	 	 	 	 	 	 	 	 	 	 	 	 	 	 	 	1581499938	7.35	13.61
12/02/2020 09:32:19	120220	12022020	093219	186.64	12.686858	-57.156085	186.94	0.380	0.740	1.770	186.73	-0.60	2.20	 	 	 	 	 	 	 	 	 	 	 	 	 	 	 	 	 	 	1581499939	7.70	14.26
12/02/2020 09:32:20	120220	12022020	093220	187.07	12.686820	-57.156083	187.32	0.390	0.150	1.150	187.13	-1.20	1.70	 	 	 	 	 	 	 	 	 	 	 	 	 	 	 	 	 	 	1581499940	8.10	15.00
12/02/2020 09:32:21	120220	12022020	093221	187.17	12.686783	-57.156085	187.31	0.280	-0.430	1.340	187.13	-1.80	2.00	 	 	 	 	 	 	 	 	 	 	 	 	 	 	 	 	 	 	1581499941	8.05	14.91
12/02/2020 09:32:22	120220	12022020	093222	186.70	12.686747	-57.156092	186.75	0.130	-0.860	2.320	186.55	-2.20	3.00	 	 	 	 	 	 	 	 	 	 	 	 	 	 	 	 	 	 	1581499942	7.86	14.56
12/02/2020 09:32:23	120220	12022020	093223	186.03	12.686712	-57.156102	186.15	-0.130	-0.850	3.380	185.92	-2.10	4.00	 	 	 	 	 	 	 	 	 	 	 	 	 	 	 	 	 	 	1581499943	7.89	14.61
12/02/2020 09:32:24	120220	12022020	093224	185.75	12.686680	-57.156115	186.00	-0.390	-0.390	3.820	185.76	-1.60	4.30	 	 	 	 	 	 	 	 	 	 	 	 	 	 	 	 	 	 	1581499944	7.66	14.19
12/02/2020 09:32:25	120220	12022020	093225	185.94	12.686648	-57.156128	186.21	-0.280	-0.010	3.370	185.99	-1.30	3.80	 	 	 	 	 	 	 	 	 	 	 	 	 	 	 	 	 	 	1581499945	7.21	13.35
12/02/2020 09:32:26	120220	12022020	093226	186.16	12.686615	-57.156137	186.41	0.280	-0.230	2.470	186.20	-1.60	2.90	 	 	 	 	 	 	 	 	 	 	 	 	 	 	 	 	 	 	1581499946	7.24	13.41
12/02/2020 09:32:27	120220	12022020	093227	186.42	12.686578	-57.156138	186.69	0.830	-0.520	1.530	186.50	-1.80	1.90	 	 	 	 	 	 	 	 	 	 	 	 	 	 	 	 	 	 	1581499947	7.94	14.70
12/02/2020 09:32:28	120220	12022020	093228	186.91	12.686542	-57.156138	187.19	0.790	-0.390	0.770	187.02	-1.70	1.30	 	 	 	 	 	 	 	 	 	 	 	 	 	 	 	 	 	 	1581499948	8.00	14.82
12/02/2020 09:32:29	120220	12022020	093229	187.42	12.686507	-57.156137	187.64	0.170	-0.110	0.610	187.49	-1.40	1.20	 	 	 	 	 	 	 	 	 	 	 	 	 	 	 	 	 	 	1581499949	7.41	13.72
12/02/2020 09:32:30	120220	12022020	093230	187.58	12.686473	-57.156142	187.70	-0.460	-0.260	1.350	187.55	-1.60	2.10	 	 	 	 	 	 	 	 	 	 	 	 	 	 	 	 	 	 	1581499950	7.20	13.33
12/02/2020 09:32:31	120220	12022020	093231	187.21	12.686438	-57.156153	187.26	-0.670	-0.770	2.640	187.09	-2.10	3.40	 	 	 	 	 	 	 	 	 	 	 	 	 	 	 	 	 	 	1581499951	7.86	14.56
12/02/2020 09:32:32	120220	12022020	093232	186.27	12.686402	-57.156168	186.48	-0.460	-0.980	3.870	186.27	-2.20	4.50	 	 	 	 	 	 	 	 	 	 	 	 	 	 	 	 	 	 	1581499952	8.56	15.85
12/02/2020 09:32:33	120220	12022020	093233	185.64	12.686365	-57.156183	185.73	-0.110	-0.610	4.520	185.50	-1.80	5.10	 	 	 	 	 	 	 	 	 	 	 	 	 	 	 	 	 	 	1581499953	8.41	15.58
12/02/2020 09:32:34	120220	12022020	093234	185.11	12.686332	-57.156195	185.31	0.180	-0.030	4.330	185.07	-1.20	4.70	 	 	 	 	 	 	 	 	 	 	 	 	 	 	 	 	 	 	1581499954	7.83	14.50
12/02/2020 09:32:35	120220	12022020	093235	185.19	12.686297	-57.156200	185.53	0.320	0.530	3.140	185.30	-0.70	3.40	 	 	 	 	 	 	 	 	 	 	 	 	 	 	 	 	 	 	1581499955	7.53	13.95
12/02/2020 09:32:36	120220	12022020	093236	185.96	12.686262	-57.156198	186.34	0.190	0.890	1.580	186.16	-0.40	2.00	 	 	 	 	 	 	 	 	 	 	 	 	 	 	 	 	 	 	1581499956	7.40	13.70
12/02/2020 09:32:37	120220	12022020	093237	186.85	12.686228	-57.156195	187.10	-0.140	0.650	0.810	186.97	-0.80	1.40	 	 	 	 	 	 	 	 	 	 	 	 	 	 	 	 	 	 	1581499957	7.27	13.46
12/02/2020 09:32:38	120220	12022020	093238	187.10	12.686193	-57.156198	187.21	-0.380	-0.330	1.220	187.06	-1.80	1.90	 	 	 	 	 	 	 	 	 	 	 	 	 	 	 	 	 	 	1581499958	7.47	13.83
12/02/2020 09:32:39	120220	12022020	093239	186.70	12.686157	-57.156208	186.75	-0.350	-1.350	2.170	186.58	-2.70	2.90	 	 	 	 	 	 	 	 	 	 	 	 	 	 	 	 	 	 	1581499959	8.24	15.26
12/02/2020 09:32:40	120220	12022020	093240	185.94	12.686120	-57.156223	186.14	-0.090	-1.570	3.090	185.94	-2.80	3.70	 	 	 	 	 	 	 	 	 	 	 	 	 	 	 	 	 	 	1581499960	8.46	15.67
12/02/2020 09:32:41	120220	12022020	093241	185.49	12.686087	-57.156237	185.60	0.280	-0.950	3.600	185.39	-2.10	4.10	 	 	 	 	 	 	 	 	 	 	 	 	 	 	 	 	 	 	1581499961	7.84	14.52
12/02/2020 09:32:42	120220	12022020	093242	185.13	12.686055	-57.156245	185.32	0.570	-0.070	3.340	185.11	-1.20	3.80	 	 	 	 	 	 	 	 	 	 	 	 	 	 	 	 	 	 	1581499962	7.09	13.13
12/02/2020 09:32:43	120220	12022020	093243	185.25	12.686022	-57.156248	185.49	0.580	0.560	2.370	185.31	-0.70	2.80	 	 	 	 	 	 	 	 	 	 	 	 	 	 	 	 	 	 	1581499963	6.93	12.83
12/02/2020 09:32:44	120220	12022020	093244	185.71	12.685988	-57.156245	185.86	0.320	0.550	1.490	185.71	-0.80	2.00	 	 	 	 	 	 	 	 	 	 	 	 	 	 	 	 	 	 	1581499964	7.20	13.33
12/02/2020 09:32:45	120220	12022020	093245	185.90	12.685953	-57.156245	186.07	-0.030	-0.170	1.370	185.92	-1.60	2.00	 	 	 	 	 	 	 	 	 	 	 	 	 	 	 	 	 	 	1581499965	7.73	14.32
12/02/2020 09:32:46	120220	12022020	093246	185.88	12.685915	-57.156248	186.07	-0.350	-1.030	2.120	185.88	-2.40	2.80	 	 	 	 	 	 	 	 	 	 	 	 	 	 	 	 	 	 	1581499966	8.26	15.30
12/02/2020 09:32:47	120220	12022020	093247	185.63	12.685877	-57.156260	185.74	-0.520	-1.370	3.250	185.53	-2.70	3.90	 	 	 	 	 	 	 	 	 	 	 	 	 	 	 	 	 	 	1581499967	8.45	15.65
12/02/2020 09:32:48	120220	12022020	093248	185.01	12.685842	-57.156275	185.09	-0.450	-1.170	4.220	184.86	-2.40	4.80	 	 	 	 	 	 	 	 	 	 	 	 	 	 	 	 	 	 	1581499968	8.18	15.15
12/02/2020 09:32:49	120220	12022020	093249	184.32	12.685808	-57.156288	184.47	-0.250	-0.500	4.620	184.23	-1.70	5.10	 	 	 	 	 	 	 	 	 	 	 	 	 	 	 	 	 	 	1581499969	7.88	14.59
12/02/2020 09:32:50	120220	12022020	093250	184.15	12.685775	-57.156298	184.38	-0.150	0.540	4.290	184.15	-0.60	4.70	 	 	 	 	 	 	 	 	 	 	 	 	 	 	 	 	 	 	1581499970	7.42	13.74
12/02/2020 09:32:51	120220	12022020	093251	184.60	12.685743	-57.156305	184.95	-0.130	1.380	3.250	184.76	0.10	3.60	 	 	 	 	 	 	 	 	 	 	 	 	 	 	 	 	 	 	1581499971	6.84	12.67
12/02/2020 09:32:52	120220	12022020	093252	185.55	12.685712	-57.156305	185.71	0.060	1.290	2.070	185.55	-0.10	2.50	 	 	 	 	 	 	 	 	 	 	 	 	 	 	 	 	 	 	1581499972	6.77	12.54
12/02/2020 09:32:53	120220	12022020	093253	185.92	12.685677	-57.156305	186.12	0.520	0.140	1.290	185.98	-1.40	1.80	 	 	 	 	 	 	 	 	 	 	 	 	 	 	 	 	 	 	1581499973	7.56	14.00
12/02/2020 09:32:54	120220	12022020	093254	186.18	12.685637	-57.156303	186.38	0.910	-1.070	0.980	186.22	-2.50	1.50	 	 	 	 	 	 	 	 	 	 	 	 	 	 	 	 	 	 	1581499974	8.48	15.70
12/02/2020 09:32:55	120220	12022020	093255	186.42	12.685598	-57.156305	186.60	0.790	-1.440	1.130	186.46	-2.70	1.70	 	 	 	 	 	 	 	 	 	 	 	 	 	 	 	 	 	 	1581499975	8.27	15.32
12/02/2020 09:32:56	120220	12022020	093256	186.43	12.685565	-57.156310	186.52	0.230	-1.310	1.790	186.37	-2.60	2.50	 	 	 	 	 	 	 	 	 	 	 	 	 	 	 	 	 	 	1581499976	7.28	13.48
12/02/2020 09:32:57	120220	12022020	093257	185.95	12.685533	-57.156318	186.00	-0.360	-1.360	2.930	185.82	-2.70	3.60	 	 	 	 	 	 	 	 	 	 	 	 	 	 	 	 	 	 	1581499977	7.14	13.22
12/02/2020 09:32:58	120220	12022020	093258	185.04	12.685498	-57.156330	185.26	-0.750	-1.410	4.190	185.04	-2.70	4.90	 	 	 	 	 	 	 	 	 	 	 	 	 	 	 	 	 	 	1581499978	7.94	14.70
12/02/2020 09:32:59	120220	12022020	093259	184.44	12.685462	-57.156345	184.57	-0.900	-0.990	4.980	184.32	-2.20	5.50	 	 	 	 	 	 	 	 	 	 	 	 	 	 	 	 	 	 	1581499979	8.49	15.72
12/02/2020 09:33:00	120220	12022020	093300	184.04	12.685427	-57.156360	184.28	-0.790	0.090	4.860	184.03	-1.00	5.30	 	 	 	 	 	 	 	 	 	 	 	 	 	 	 	 	 	 	1581499980	8.25	15.28
12/02/2020 09:33:01	120220	12022020	093301	184.25	12.685393	-57.156370	184.58	-0.460	1.360	3.870	184.36	0.20	4.20	1014.90	26.10	26.20	20.70	20.80	-1.0	72.0	72.0	392.0	25.7	268.00	10.20	74.00	11.10	16	9575.0	27.5	27.4	1581499981	7.37	13.65
12/02/2020 09:33:02	120220	12022020	093302	185.18	12.685362	-57.156372	185.35	-0.020	1.990	2.240	185.18	0.70	2.50	 	 	 	 	 	 	 	 	 	 	 	 	 	 	 	 	 	 	1581499982	6.82	12.63
12/02/2020 09:33:03	120220	12022020	093303	185.85	12.685328	-57.156368	186.11	0.420	1.440	0.770	185.98	-0.00	1.20	 	 	 	 	 	 	 	 	 	 	 	 	 	 	 	 	 	 	1581499983	7.27	13.46
12/02/2020 09:33:04	120220	12022020	093304	186.22	12.685290	-57.156363	186.34	0.750	-0.040	0.320	186.22	-1.60	0.90	 	 	 	 	 	 	 	 	 	 	 	 	 	 	 	 	 	 	1581499984	8.08	14.96
12/02/2020 09:33:05	120220	12022020	093305	186.06	12.685250	-57.156365	186.15	0.840	-1.510	0.910	186.01	-3.00	1.60	 	 	 	 	 	 	 	 	 	 	 	 	 	 	 	 	 	 	1581499985	8.58	15.89
12/02/2020 09:33:06	120220	12022020	093306	185.83	12.685212	-57.156372	185.96	0.630	-2.030	1.960	185.80	-3.30	2.60	 	 	 	 	 	 	 	 	 	 	 	 	 	 	 	 	 	 	1581499986	8.41	15.58
12/02/2020 09:33:07	120220	12022020	093307	185.63	12.685178	-57.156383	185.76	0.240	-1.510	2.910	185.58	-2.70	3.50	 	 	 	 	 	 	 	 	 	 	 	 	 	 	 	 	 	 	1581499987	7.57	14.02
12/02/2020 09:33:08	120220	12022020	093308	185.33	12.685148	-57.156393	185.47	-0.110	-0.790	3.380	185.28	-2.00	3.90	 	 	 	 	 	 	 	 	 	 	 	 	 	 	 	 	 	 	1581499988	6.83	12.65
12/02/2020 09:33:09	120220	12022020	093309	185.12	12.685117	-57.156402	185.27	-0.330	-0.380	3.370	185.09	-1.60	3.90	 	 	 	 	 	 	 	 	 	 	 	 	 	 	 	 	 	 	1581499989	6.97	12.91
12/02/2020 09:33:10	120220	12022020	093310	184.92	12.685083	-57.156407	185.06	-0.490	-0.290	3.250	184.87	-1.60	3.70	 	 	 	 	 	 	 	 	 	 	 	 	 	 	 	 	 	 	1581499990	7.51	13.91
12/02/2020 09:33:11	120220	12022020	093311	184.70	12.685047	-57.156413	184.85	-0.600	-0.240	3.060	184.68	-1.50	3.50	 	 	 	 	 	 	 	 	 	 	 	 	 	 	 	 	 	 	1581499991	7.98	14.78
12/02/2020 09:33:12	120220	12022020	093312	184.71	12.685010	-57.156420	184.91	-0.610	0.140	2.680	184.76	-1.10	3.10	 	 	 	 	 	 	 	 	 	 	 	 	 	 	 	 	 	 	1581499992	8.07	14.95
12/02/2020 09:33:13	120220	12022020	093313	185.12	12.684975	-57.156427	185.37	-0.460	0.760	2.000	185.24	-0.50	2.40	 	 	 	 	 	 	 	 	 	 	 	 	 	 	 	 	 	 	1581499993	7.59	14.06
12/02/2020 09:33:14	120220	12022020	093314	185.88	12.684942	-57.156428	186.00	-0.120	0.910	1.310	185.88	-0.40	1.80	 	 	 	 	 	 	 	 	 	 	 	 	 	 	 	 	 	 	1581499994	7.16	13.26
12/02/2020 09:33:15	120220	12022020	093315	186.25	12.684907	-57.156430	186.44	0.340	0.260	1.000	186.31	-1.20	1.50	 	 	 	 	 	 	 	 	 	 	 	 	 	 	 	 	 	 	1581499995	7.50	13.89
12/02/2020 09:33:16	120220	12022020	093316	186.43	12.684868	-57.156433	186.58	0.750	-0.650	1.130	186.43	-2.00	1.70	 	 	 	 	 	 	 	 	 	 	 	 	 	 	 	 	 	 	1581499996	8.16	15.11
12/02/2020 09:33:17	120220	12022020	093317	186.31	12.684830	-57.156438	186.43	0.910	-1.010	1.570	186.26	-2.30	2.20	 	 	 	 	 	 	 	 	 	 	 	 	 	 	 	 	 	 	1581499997	8.23	15.24
12/02/2020 09:33:18	120220	12022020	093318	186.00	12.684795	-57.156443	186.10	0.640	-0.650	2.120	185.93	-1.90	2.70	 	 	 	 	 	 	 	 	 	 	 	 	 	 	 	 	 	 	1581499998	7.59	14.06
12/02/2020 09:33:19	120220	12022020	093319	185.75	12.684763	-57.156450	185.90	0.030	-0.060	2.520	185.73	-1.30	3.10	 	 	 	 	 	 	 	 	 	 	 	 	 	 	 	 	 	 	1581499999	6.91	12.80
12/02/2020 09:33:20	120220	12022020	093320	185.73	12.684733	-57.156457	185.91	-0.560	0.070	2.620	185.74	-1.30	3.10	 	 	 	 	 	 	 	 	 	 	 	 	 	 	 	 	 	 	1581500000	6.83	12.65
12/02/2020 09:33:21	120220	12022020	093321	185.75	12.684700	-57.156465	185.91	-0.720	-0.440	2.600	185.74	-1.80	3.10	 	 	 	 	 	 	 	 	 	 	 	 	 	 	 	 	 	 	1581500001	7.45	13.80
12/02/2020 09:33:22	120220	12022020	093322	185.58	12.684662	-57.156473	185.77	-0.400	-1.130	2.660	185.58	-2.50	3.20	 	 	 	 	 	 	 	 	 	 	 	 	 	 	 	 	 	 	1581500002	8.20	15.19
12/02/2020 09:33:23	120220	12022020	093323	185.38	12.684623	-57.156482	185.52	0.070	-1.400	2.660	185.34	-2.70	3.20	 	 	 	 	 	 	 	 	 	 	 	 	 	 	 	 	 	 	1581500003	8.50	15.74
12/02/2020 09:33:24	120220	12022020	093324	185.19	12.684587	-57.156488	185.37	0.250	-0.880	2.370	185.19	-2.10	2.80	 	 	 	 	 	 	 	 	 	 	 	 	 	 	 	 	 	 	1581500004	8.17	15.13
12/02/2020 09:33:25	120220	12022020	093325	185.24	12.684552	-57.156492	185.44	0.010	0.190	1.910	185.29	-1.00	2.40	 	 	 	 	 	 	 	 	 	 	 	 	 	 	 	 	 	 	1581500005	7.44	13.78
12/02/2020 09:33:26	120220	12022020	093326	185.58	12.684520	-57.156495	185.71	-0.350	1.110	1.630	185.58	-0.10	2.10	 	 	 	 	 	 	 	 	 	 	 	 	 	 	 	 	 	 	1581500006	6.86	12.70
12/02/2020 09:33:27	120220	12022020	093327	185.82	12.684488	-57.156498	186.01	-0.350	1.300	1.500	185.88	-0.00	2.00	 	 	 	 	 	 	 	 	 	 	 	 	 	 	 	 	 	 	1581500007	6.92	12.82
12/02/2020 09:33:28	120220	12022020	093328	186.02	12.684453	-57.156503	186.16	0.070	0.650	1.530	186.02	-0.80	2.10	 	 	 	 	 	 	 	 	 	 	 	 	 	 	 	 	 	 	1581500008	7.54	13.96
12/02/2020 09:33:29	120220	12022020	093329	186.10	12.684415	-57.156507	186.30	0.500	-0.270	1.730	186.13	-1.70	2.30	 	 	 	 	 	 	 	 	 	 	 	 	 	 	 	 	 	 	1581500009	8.22	15.22
12/02/2020 09:33:30	120220	12022020	093330	186.25	12.684377	-57.156512	186.46	0.590	-0.820	2.020	186.27	-2.20	2.60	 	 	 	 	 	 	 	 	 	 	 	 	 	 	 	 	 	 	1581500010	8.24	15.26
12/02/2020 09:33:31	120220	12022020	093331	186.31	12.684342	-57.156518	186.48	0.390	-0.920	2.290	186.29	-2.20	2.90	 	 	 	 	 	 	 	 	 	 	 	 	 	 	 	 	 	 	1581500011	7.64	14.15
12/02/2020 09:33:32	120220	12022020	093332	186.07	12.684308	-57.156525	186.18	0.220	-1.080	2.590	185.99	-2.40	3.20	 	 	 	 	 	 	 	 	 	 	 	 	 	 	 	 	 	 	1581500012	7.25	13.43
12/02/2020 09:33:33	120220	12022020	093333	185.67	12.684273	-57.156530	185.81	0.010	-1.260	2.960	185.60	-2.60	3.50	 	 	 	 	 	 	 	 	 	 	 	 	 	 	 	 	 	 	1581500013	7.65	14.17
12/02/2020 09:33:34	120220	12022020	093334	185.29	12.684238	-57.156538	185.49	-0.320	-1.120	3.380	185.29	-2.40	3.90	 	 	 	 	 	 	 	 	 	 	 	 	 	 	 	 	 	 	1581500014	7.90	14.63
12/02/2020 09:33:35	120220	12022020	093335	185.13	12.684203	-57.156548	185.30	-0.600	-0.620	3.400	185.10	-1.80	3.90	 	 	 	 	 	 	 	 	 	 	 	 	 	 	 	 	 	 	1581500015	7.85	14.54
12/02/2020 09:33:36	120220	12022020	093336	185.12	12.684168	-57.156558	185.33	-0.630	0.090	2.920	185.16	-1.10	3.30	 	 	 	 	 	 	 	 	 	 	 	 	 	 	 	 	 	 	1581500016	7.65	14.17
12/02/2020 09:33:37	120220	12022020	093337	185.42	12.684135	-57.156563	185.68	-0.390	0.730	2.240	185.52	-0.50	2.70	 	 	 	 	 	 	 	 	 	 	 	 	 	 	 	 	 	 	1581500017	7.44	13.78
12/02/2020 09:33:38	120220	12022020	093338	185.99	12.684100	-57.156567	186.13	-0.040	0.930	1.610	185.99	-0.40	2.10	 	 	 	 	 	 	 	 	 	 	 	 	 	 	 	 	 	 	1581500018	7.41	13.72
12/02/2020 09:33:39	120220	12022020	093339	186.21	12.684063	-57.156567	186.38	0.330	0.510	1.090	186.24	-0.90	1.60	 	 	 	 	 	 	 	 	 	 	 	 	 	 	 	 	 	 	1581500019	7.73	14.32
12/02/2020 09:33:40	120220	12022020	093340	186.29	12.684025	-57.156567	186.43	0.550	-0.160	1.010	186.29	-1.50	1.60	 	 	 	 	 	 	 	 	 	 	 	 	 	 	 	 	 	 	1581500020	8.25	15.28
12/02/2020 09:33:41	120220	12022020	093341	186.29	12.683988	-57.156570	186.45	0.480	-0.430	1.440	186.29	-1.70	2.00	 	 	 	 	 	 	 	 	 	 	 	 	 	 	 	 	 	 	1581500021	8.23	15.24
12/02/2020 09:33:42	120220	12022020	093342	186.38	12.683953	-57.156575	186.55	0.250	-0.270	1.810	186.38	-1.50	2.40	 	 	 	 	 	 	 	 	 	 	 	 	 	 	 	 	 	 	1581500022	7.59	14.06
12/02/2020 09:33:43	120220	12022020	093343	186.49	12.683920	-57.156582	186.69	0.070	-0.310	2.050	186.50	-1.70	2.60	 	 	 	 	 	 	 	 	 	 	 	 	 	 	 	 	 	 	1581500023	7.12	13.19
12/02/2020 09:33:44	120220	12022020	093344	186.37	12.683887	-57.156590	186.57	0.030	-0.850	2.530	186.37	-2.20	3.10	 	 	 	 	 	 	 	 	 	 	 	 	 	 	 	 	 	 	1581500024	7.41	13.72
12/02/2020 09:33:45	120220	12022020	093345	186.09	12.683850	-57.156598	186.24	-0.020	-1.370	3.120	186.02	-2.70	3.70	 	 	 	 	 	 	 	 	 	 	 	 	 	 	 	 	 	 	1581500025	8.13	15.06
12/02/2020 09:33:46	120220	12022020	093346	185.75	12.683813	-57.156608	185.93	-0.200	-1.230	3.410	185.70	-2.40	3.90	 	 	 	 	 	 	 	 	 	 	 	 	 	 	 	 	 	 	1581500026	8.30	15.37
12/02/2020 09:33:47	120220	12022020	093347	185.54	12.683778	-57.156618	185.73	-0.320	-0.530	3.220	185.53	-1.70	3.60	 	 	 	 	 	 	 	 	 	 	 	 	 	 	 	 	 	 	1581500027	7.74	14.33
12/02/2020 09:33:48	120220	12022020	093348	185.58	12.683745	-57.156625	185.77	-0.250	0.180	2.520	185.58	-1.00	2.90	 	 	 	 	 	 	 	 	 	 	 	 	 	 	 	 	 	 	1581500028	7.30	13.52
12/02/2020 09:33:49	120220	12022020	093349	185.84	12.683710	-57.156628	186.09	-0.140	0.570	1.740	185.91	-0.70	2.20	 	 	 	 	 	 	 	 	 	 	 	 	 	 	 	 	 	 	1581500029	7.38	13.67
12/02/2020 09:33:50	120220	12022020	093350	186.20	12.683675	-57.156628	186.34	-0.040	0.410	1.280	186.20	-0.90	1.80	 	 	 	 	 	 	 	 	 	 	 	 	 	 	 	 	 	 	1581500030	7.66	14.19
12/02/2020 09:33:51	120220	12022020	093351	186.24	12.683637	-57.156632	186.39	0.130	-0.120	1.150	186.23	-1.50	1.70	 	 	 	 	 	 	 	 	 	 	 	 	 	 	 	 	 	 	1581500031	8.12	15.04
12/02/2020 09:33:52	120220	12022020	093352	186.26	12.683598	-57.156635	186.46	0.330	-0.410	1.190	186.30	-1.70	1.70	 	 	 	 	 	 	 	 	 	 	 	 	 	 	 	 	 	 	1581500032	8.46	15.67
12/02/2020 09:33:53	120220	12022020	093353	186.60	12.683560	-57.156638	186.86	0.320	-0.110	1.210	186.70	-1.30	1.70	 	 	 	 	 	 	 	 	 	 	 	 	 	 	 	 	 	 	1581500033	8.10	15.00
12/02/2020 09:33:54	120220	12022020	093354	187.20	12.683527	-57.156643	187.38	-0.010	0.290	1.440	187.20	-1.00	2.00	 	 	 	 	 	 	 	 	 	 	 	 	 	 	 	 	 	 	1581500034	7.26	13.45
12/02/2020 09:33:55	120220	12022020	093355	187.44	12.683495	-57.156648	187.67	-0.470	0.120	2.110	187.47	-1.30	2.80	 	 	 	 	 	 	 	 	 	 	 	 	 	 	 	 	 	 	1581500035	7.03	13.02
12/02/2020 09:33:56	120220	12022020	093356	187.23	12.683462	-57.156660	187.45	-0.600	-0.690	3.150	187.23	-2.10	3.80	 	 	 	 	 	 	 	 	 	 	 	 	 	 	 	 	 	 	1581500036	7.66	14.19
12/02/2020 09:33:57	120220	12022020	093357	186.55	12.683423	-57.156675	186.56	-0.130	-1.760	4.280	186.32	-3.10	4.90	 	 	 	 	 	 	 	 	 	 	 	 	 	 	 	 	 	 	1581500037	8.54	15.82
12/02/2020 09:33:58	120220	12022020	093358	185.31	12.683385	-57.156690	185.34	0.570	-2.060	5.050	185.10	-3.20	5.60	 	 	 	 	 	 	 	 	 	 	 	 	 	 	 	 	 	 	1581500038	9.09	16.83
12/02/2020 09:33:59	120220	12022020	093359	184.56	12.683347	-57.156700	184.77	0.810	-0.820	4.910	184.54	-1.80	5.30	 	 	 	 	 	 	 	 	 	 	 	 	 	 	 	 	 	 	1581500039	8.50	15.74
12/02/2020 09:34:00	120220	12022020	093400	184.90	12.683315	-57.156703	185.29	0.400	1.150	3.690	185.09	0.10	4.00	 	 	 	 	 	 	 	 	 	 	 	 	 	 	 	 	 	 	1581500040	6.85	12.69
12/02/2020 09:34:01	120220	12022020	093401	185.95	12.683287	-57.156702	186.33	-0.270	2.070	2.080	186.17	0.70	2.40	1015.00	26.20	26.20	20.90	20.90	-1.0	72.0	72.0	393.0	25.7	269.00	10.00	73.00	10.90	16	9940.0	27.5	27.5	1581500041	6.00	11.11
12/02/2020 09:34:02	120220	12022020	093402	186.98	12.683255	-57.156698	187.13	-0.620	1.130	1.150	186.98	-0.40	1.60	 	 	 	 	 	 	 	 	 	 	 	 	 	 	 	 	 	 	1581500042	6.96	12.89
12/02/2020 09:34:03	120220	12022020	093403	187.25	12.683215	-57.156702	187.43	-0.420	-0.740	1.050	187.26	-2.30	1.60	 	 	 	 	 	 	 	 	 	 	 	 	 	 	 	 	 	 	1581500043	8.51	15.76
12/02/2020 09:34:04	120220	12022020	093404	187.04	12.683172	-57.156710	187.22	0.100	-2.050	1.460	187.04	-3.40	2.00	 	 	 	 	 	 	 	 	 	 	 	 	 	 	 	 	 	 	1581500044	9.28	17.19
12/02/2020 09:34:05	120220	12022020	093405	186.79	12.683133	-57.156718	186.95	0.440	-1.890	1.890	186.76	-3.00	2.40	 	 	 	 	 	 	 	 	 	 	 	 	 	 	 	 	 	 	1581500045	8.71	16.13
12/02/2020 09:34:06	120220	12022020	093406	186.81	12.683100	-57.156725	187.04	0.280	-0.660	2.040	186.85	-1.80	2.60	 	 	 	 	 	 	 	 	 	 	 	 	 	 	 	 	 	 	1581500046	7.29	13.50
12/02/2020 09:34:07	120220	12022020	093407	186.97	12.683070	-57.156730	187.17	-0.160	0.290	2.020	186.97	-0.90	2.50	 	 	 	 	 	 	 	 	 	 	 	 	 	 	 	 	 	 	1581500047	6.38	11.82
12/02/2020 09:34:08	120220	12022020	093408	186.81	12.683038	-57.156733	186.94	-0.410	0.190	2.150	186.74	-1.20	2.70	 	 	 	 	 	 	 	 	 	 	 	 	 	 	 	 	 	 	1581500048	6.93	12.83
12/02/2020 09:34:09	120220	12022020	093409	186.43	12.683000	-57.156740	186.59	-0.330	-0.400	2.360	186.37	-1.70	2.90	 	 	 	 	 	 	 	 	 	 	 	 	 	 	 	 	 	 	1581500049	8.24	15.26
12/02/2020 09:34:10	120220	12022020	093410	186.26	12.682962	-57.156748	186.47	-0.150	-0.420	2.500	186.26	-1.60	3.00	 	 	 	 	 	 	 	 	 	 	 	 	 	 	 	 	 	 	1581500050	8.74	16.19
12/02/2020 09:34:11	120220	12022020	093411	186.43	12.682925	-57.156757	186.71	-0.050	0.250	2.410	186.51	-0.90	2.90	 	 	 	 	 	 	 	 	 	 	 	 	 	 	 	 	 	 	1581500051	8.01	14.83
12/02/2020 09:34:12	120220	12022020	093412	186.93	12.682892	-57.156765	187.13	0.020	0.850	1.980	186.93	-0.40	2.40	 	 	 	 	 	 	 	 	 	 	 	 	 	 	 	 	 	 	1581500052	7.14	13.22
12/02/2020 09:34:13	120220	12022020	093413	187.21	12.682860	-57.156768	187.48	0.190	0.770	1.570	187.29	-0.60	2.00	 	 	 	 	 	 	 	 	 	 	 	 	 	 	 	 	 	 	1581500053	7.08	13.11
12/02/2020 09:34:14	120220	12022020	093414	187.62	12.682823	-57.156772	187.91	0.310	0.190	1.340	187.71	-1.20	1.80	 	 	 	 	 	 	 	 	 	 	 	 	 	 	 	 	 	 	1581500054	7.66	14.19
12/02/2020 09:34:15	120220	12022020	093415	188.05	12.682787	-57.156777	188.33	0.230	-0.530	1.310	188.11	-1.90	1.80	 	 	 	 	 	 	 	 	 	 	 	 	 	 	 	 	 	 	1581500055	7.90	14.63
12/02/2020 09:34:16	120220	12022020	093416	188.08	12.682752	-57.156783	188.30	0.130	-1.280	1.640	188.08	-2.70	2.20	 	 	 	 	 	 	 	 	 	 	 	 	 	 	 	 	 	 	1581500056	7.87	14.58
12/02/2020 09:34:17	120220	12022020	093417	187.75	12.682715	-57.156793	187.87	0.180	-1.740	2.240	187.65	-3.00	2.80	 	 	 	 	 	 	 	 	 	 	 	 	 	 	 	 	 	 	1581500057	8.05	14.91
12/02/2020 09:34:18	120220	12022020	093418	187.30	12.682680	-57.156802	187.47	0.180	-1.470	2.640	187.24	-2.70	3.20	 	 	 	 	 	 	 	 	 	 	 	 	 	 	 	 	 	 	1581500058	8.01	14.83
12/02/2020 09:34:19	120220	12022020	093419	187.03	12.682645	-57.156810	187.20	-0.050	-0.690	2.750	186.99	-1.90	3.30	 	 	 	 	 	 	 	 	 	 	 	 	 	 	 	 	 	 	1581500059	7.53	13.95
12/02/2020 09:34:20	120220	12022020	093420	186.81	12.682612	-57.156817	187.00	-0.360	0.040	2.840	186.78	-1.20	3.30	 	 	 	 	 	 	 	 	 	 	 	 	 	 	 	 	 	 	1581500060	7.30	13.52
12/02/2020 09:34:21	120220	12022020	093421	186.84	12.682577	-57.156825	187.11	-0.520	0.540	2.610	186.91	-0.70	3.00	 	 	 	 	 	 	 	 	 	 	 	 	 	 	 	 	 	 	1581500061	7.60	14.08
12/02/2020 09:34:22	120220	12022020	093422	187.32	12.682542	-57.156832	187.63	-0.390	0.870	1.970	187.45	-0.40	2.40	 	 	 	 	 	 	 	 	 	 	 	 	 	 	 	 	 	 	1581500062	7.77	14.39
12/02/2020 09:34:23	120220	12022020	093423	187.94	12.682507	-57.156835	188.23	-0.090	0.850	1.340	188.04	-0.50	1.80	 	 	 	 	 	 	 	 	 	 	 	 	 	 	 	 	 	 	1581500063	7.70	14.26
12/02/2020 09:34:24	120220	12022020	093424	188.33	12.682470	-57.156838	188.56	0.220	0.280	1.100	188.36	-1.10	1.60	 	 	 	 	 	 	 	 	 	 	 	 	 	 	 	 	 	 	1581500064	7.82	14.48
12/02/2020 09:34:25	120220	12022020	093425	188.30	12.682432	-57.156842	188.45	0.410	-0.580	1.420	188.25	-2.00	2.00	 	 	 	 	 	 	 	 	 	 	 	 	 	 	 	 	 	 	1581500065	8.16	15.11
12/02/2020 09:34:26	120220	12022020	093426	187.98	12.682393	-57.156848	188.14	0.320	-1.110	2.130	187.91	-2.40	2.70	 	 	 	 	 	 	 	 	 	 	 	 	 	 	 	 	 	 	1581500066	8.36	15.48
12/02/2020 09:34:27	120220	12022020	093427	187.63	12.682358	-57.156858	187.78	-0.020	-1.040	2.990	187.54	-2.30	3.60	 	 	 	 	 	 	 	 	 	 	 	 	 	 	 	 	 	 	1581500067	7.99	14.80
12/02/2020 09:34:28	120220	12022020	093428	187.15	12.682325	-57.156870	187.27	-0.360	-0.830	3.790	187.03	-2.10	4.40	 	 	 	 	 	 	 	 	 	 	 	 	 	 	 	 	 	 	1581500068	7.59	14.06
12/02/2020 09:34:29	120220	12022020	093429	186.60	12.682290	-57.156883	186.73	-0.390	-0.700	4.180	186.52	-2.00	4.70	 	 	 	 	 	 	 	 	 	 	 	 	 	 	 	 	 	 	1581500069	7.81	14.46
12/02/2020 09:34:30	120220	12022020	093430	186.36	12.682255	-57.156895	186.58	-0.140	-0.330	3.890	186.36	-1.50	4.30	 	 	 	 	 	 	 	 	 	 	 	 	 	 	 	 	 	 	1581500070	8.12	15.04
12/02/2020 09:34:31	120220	12022020	093431	186.54	12.682218	-57.156903	186.85	0.150	0.380	2.990	186.64	-0.80	3.30	 	 	 	 	 	 	 	 	 	 	 	 	 	 	 	 	 	 	1581500071	7.81	14.46
12/02/2020 09:34:32	120220	12022020	093432	187.24	12.682185	-57.156905	187.60	0.340	1.100	1.600	187.43	-0.20	1.90	 	 	 	 	 	 	 	 	 	 	 	 	 	 	 	 	 	 	1581500072	7.30	13.52
12/02/2020 09:34:33	120220	12022020	093433	188.21	12.682152	-57.156903	188.54	0.390	1.200	0.340	188.38	-0.20	0.70	 	 	 	 	 	 	 	 	 	 	 	 	 	 	 	 	 	 	1581500073	7.11	13.17
12/02/2020 09:34:34	120220	12022020	093434	188.87	12.682118	-57.156900	189.08	0.380	0.190	-0.060	188.93	-1.40	0.50	 	 	 	 	 	 	 	 	 	 	 	 	 	 	 	 	 	 	1581500074	7.49	13.87
12/02/2020 09:34:35	120220	12022020	093435	188.93	12.682078	-57.156903	189.02	0.290	-1.410	0.520	188.87	-2.90	1.20	 	 	 	 	 	 	 	 	 	 	 	 	 	 	 	 	 	 	1581500075	8.32	15.41
12/02/2020 09:34:36	120220	12022020	093436	188.51	12.682038	-57.156913	188.57	0.080	-2.380	1.820	188.40	-3.70	2.50	 	 	 	 	 	 	 	 	 	 	 	 	 	 	 	 	 	 	1581500076	8.86	16.41
12/02/2020 09:34:37	120220	12022020	093437	187.84	12.682002	-57.156927	187.90	-0.170	-2.180	3.180	187.70	-3.40	3.80	 	 	 	 	 	 	 	 	 	 	 	 	 	 	 	 	 	 	1581500077	8.48	15.70
12/02/2020 09:34:38	120220	12022020	093438	186.98	12.681968	-57.156940	187.20	-0.370	-1.270	4.050	186.98	-2.40	4.60	 	 	 	 	 	 	 	 	 	 	 	 	 	 	 	 	 	 	1581500078	7.77	14.39
12/02/2020 09:34:39	120220	12022020	093439	186.66	12.681935	-57.156952	186.86	-0.510	-0.190	4.140	186.65	-1.40	4.60	 	 	 	 	 	 	 	 	 	 	 	 	 	 	 	 	 	 	1581500079	7.53	13.95
12/02/2020 09:34:40	120220	12022020	093440	186.93	12.681902	-57.156960	187.13	-0.670	0.810	3.560	186.93	-0.40	3.90	 	 	 	 	 	 	 	 	 	 	 	 	 	 	 	 	 	 	1581500080	7.57	14.02
12/02/2020 09:34:41	120220	12022020	093441	187.41	12.681867	-57.156967	187.69	-0.760	1.450	2.670	187.53	0.20	3.00	 	 	 	 	 	 	 	 	 	 	 	 	 	 	 	 	 	 	1581500081	7.48	13.85
12/02/2020 09:34:42	120220	12022020	093442	188.04	12.681832	-57.156970	188.19	-0.570	1.380	1.760	188.04	-0.00	2.20	 	 	 	 	 	 	 	 	 	 	 	 	 	 	 	 	 	 	1581500082	7.56	14.00
12/02/2020 09:34:43	120220	12022020	093443	188.31	12.681795	-57.156975	188.52	0.020	0.640	1.070	188.36	-0.80	1.50	 	 	 	 	 	 	 	 	 	 	 	 	 	 	 	 	 	 	1581500083	7.99	14.80
12/02/2020 09:34:44	120220	12022020	093444	188.50	12.681757	-57.156980	188.71	0.820	-0.200	0.640	188.54	-1.60	1.10	 	 	 	 	 	 	 	 	 	 	 	 	 	 	 	 	 	 	1581500084	8.38	15.52
12/02/2020 09:34:45	120220	12022020	093445	188.69	12.681718	-57.156982	188.91	1.260	-0.570	0.480	188.72	-1.90	1.00	 	 	 	 	 	 	 	 	 	 	 	 	 	 	 	 	 	 	1581500085	8.21	15.20
12/02/2020 09:34:46	120220	12022020	093446	188.80	12.681683	-57.156983	188.98	0.950	-0.610	0.720	188.79	-1.90	1.30	 	 	 	 	 	 	 	 	 	 	 	 	 	 	 	 	 	 	1581500086	7.53	13.95
12/02/2020 09:34:47	120220	12022020	093447	188.57	12.681650	-57.156990	188.67	0.220	-0.890	1.610	188.47	-2.30	2.30	 	 	 	 	 	 	 	 	 	 	 	 	 	 	 	 	 	 	1581500087	7.16	13.26
12/02/2020 09:34:48	120220	12022020	093448	188.16	12.681617	-57.157002	188.35	-0.400	-1.080	2.660	188.13	-2.40	3.30	 	 	 	 	 	 	 	 	 	 	 	 	 	 	 	 	 	 	1581500088	7.80	14.45
12/02/2020 09:34:49	120220	12022020	093449	188.11	12.681583	-57.157017	188.35	-0.610	-0.750	3.220	188.13	-2.00	3.80	 	 	 	 	 	 	 	 	 	 	 	 	 	 	 	 	 	 	1581500089	7.94	14.70
12/02/2020 09:34:50	120220	12022020	093450	188.17	12.681550	-57.157030	188.37	-0.390	-0.530	3.340	188.17	-1.80	3.80	 	 	 	 	 	 	 	 	 	 	 	 	 	 	 	 	 	 	1581500090	7.45	13.80
12/02/2020 09:34:51	120220	12022020	093451	188.10	12.681517	-57.157040	188.25	0.090	-0.780	3.010	188.07	-2.10	3.40	 	 	 	 	 	 	 	 	 	 	 	 	 	 	 	 	 	 	1581500091	7.73	14.32
12/02/2020 09:34:52	120220	12022020	093452	187.99	12.681477	-57.157047	188.16	0.450	-0.920	2.460	187.99	-2.20	2.90	 	 	 	 	 	 	 	 	 	 	 	 	 	 	 	 	 	 	1581500092	8.41	15.58
12/02/2020 09:34:53	120220	12022020	093453	188.03	12.681438	-57.157050	188.23	0.340	-0.410	1.950	188.04	-1.60	2.40	 	 	 	 	 	 	 	 	 	 	 	 	 	 	 	 	 	 	1581500093	8.34	15.45
12/02/2020 09:34:54	120220	12022020	093454	188.08	12.681403	-57.157053	188.25	-0.160	0.400	1.650	188.08	-0.80	2.20	 	 	 	 	 	 	 	 	 	 	 	 	 	 	 	 	 	 	1581500094	7.60	14.08
12/02/2020 09:34:55	120220	12022020	093455	187.99	12.681370	-57.157057	188.17	-0.710	0.850	1.820	187.98	-0.40	2.40	 	 	 	 	 	 	 	 	 	 	 	 	 	 	 	 	 	 	1581500095	7.27	13.46
12/02/2020 09:34:56	120220	12022020	093456	188.09	12.681335	-57.157067	188.30	-0.980	0.800	2.240	188.09	-0.50	2.80	 	 	 	 	 	 	 	 	 	 	 	 	 	 	 	 	 	 	1581500096	7.67	14.20
12/02/2020 09:34:57	120220	12022020	093457	188.38	12.681300	-57.157080	188.68	-0.720	0.520	2.500	188.48	-0.90	3.00	 	 	 	 	 	 	 	 	 	 	 	 	 	 	 	 	 	 	1581500097	8.14	15.08
12/02/2020 09:34:58	120220	12022020	093458	188.93	12.681265	-57.157093	189.13	0.010	0.140	2.310	188.93	-1.30	2.80	 	 	 	 	 	 	 	 	 	 	 	 	 	 	 	 	 	 	1581500098	8.08	14.96
12/02/2020 09:34:59	120220	12022020	093459	189.21	12.681230	-57.157102	189.43	0.810	-0.360	1.930	189.26	-1.80	2.40	 	 	 	 	 	 	 	 	 	 	 	 	 	 	 	 	 	 	1581500099	7.83	14.50
12/02/2020 09:35:00	120220	12022020	093500	189.30	12.681193	-57.157107	189.46	1.180	-0.860	1.640	189.30	-2.20	2.10	 	 	 	 	 	 	 	 	 	 	 	 	 	 	 	 	 	 	1581500100	7.81	14.46
12/02/2020 09:35:01	120220	12022020	093501	189.11	12.681157	-57.157108	189.23	0.990	-1.130	1.600	189.06	-2.50	2.10	1015.00	26.20	26.20	20.90	20.90	-1.0	72.0	72.0	393.0	25.8	272.00	10.40	79.00	11.00	16	9205.0	27.5	27.5	1581500101	7.79	14.43
12/02/2020 09:35:02	120220	12022020	093502	188.75	12.681122	-57.157113	188.92	0.460	-1.040	1.890	188.75	-2.30	2.50	 	 	 	 	 	 	 	 	 	 	 	 	 	 	 	 	 	 	1581500102	7.63	14.13
12/02/2020 09:35:03	120220	12022020	093503	188.56	12.681088	-57.157120	188.71	-0.170	-0.610	2.420	188.52	-1.90	3.00	 	 	 	 	 	 	 	 	 	 	 	 	 	 	 	 	 	 	1581500103	7.45	13.80
12/02/2020 09:35:04	120220	12022020	093504	188.31	12.681055	-57.157132	188.51	-0.620	-0.160	3.120	188.31	-1.40	3.70	 	 	 	 	 	 	 	 	 	 	 	 	 	 	 	 	 	 	1581500104	7.36	13.63
12/02/2020 09:35:05	120220	12022020	093505	188.18	12.681023	-57.157147	188.34	-0.700	-0.070	3.720	188.15	-1.40	4.30	 	 	 	 	 	 	 	 	 	 	 	 	 	 	 	 	 	 	1581500105	7.67	14.20
12/02/2020 09:35:06	120220	12022020	093506	188.08	12.680988	-57.157160	188.26	-0.470	-0.230	3.760	188.08	-1.60	4.20	 	 	 	 	 	 	 	 	 	 	 	 	 	 	 	 	 	 	1581500106	8.19	15.17
12/02/2020 09:35:07	120220	12022020	093507	188.22	12.680950	-57.157172	188.47	-0.200	-0.140	3.260	188.31	-1.40	3.70	 	 	 	 	 	 	 	 	 	 	 	 	 	 	 	 	 	 	1581500107	8.34	15.45
12/02/2020 09:35:08	120220	12022020	093508	188.75	12.680915	-57.157180	189.03	-0.060	0.290	2.400	188.88	-1.00	2.80	 	 	 	 	 	 	 	 	 	 	 	 	 	 	 	 	 	 	1581500108	7.80	14.45
12/02/2020 09:35:09	120220	12022020	093509	189.31	12.680882	-57.157183	189.51	0.130	0.370	1.450	189.37	-1.00	1.90	 	 	 	 	 	 	 	 	 	 	 	 	 	 	 	 	 	 	1581500109	7.23	13.39
12/02/2020 09:35:10	120220	12022020	093510	189.44	12.680847	-57.157185	189.54	0.430	-0.190	0.950	189.41	-1.60	1.50	 	 	 	 	 	 	 	 	 	 	 	 	 	 	 	 	 	 	1581500110	7.61	14.09
12/02/2020 09:35:11	120220	12022020	093511	189.19	12.680808	-57.157188	189.28	0.550	-0.870	1.190	189.13	-2.30	1.80	 	 	 	 	 	 	 	 	 	 	 	 	 	 	 	 	 	 	1581500111	8.29	15.35
12/02/2020 09:35:12	120220	12022020	093512	188.96	12.680770	-57.157193	189.08	0.260	-1.040	1.840	188.93	-2.30	2.50	 	 	 	 	 	 	 	 	 	 	 	 	 	 	 	 	 	 	1581500112	8.34	15.45
12/02/2020 09:35:13	120220	12022020	093513	188.81	12.680735	-57.157203	188.95	-0.220	-0.600	2.570	188.77	-1.80	3.20	 	 	 	 	 	 	 	 	 	 	 	 	 	 	 	 	 	 	1581500113	7.85	14.54
12/02/2020 09:35:14	120220	12022020	093514	188.57	12.680702	-57.157217	188.69	-0.490	0.030	3.260	188.52	-1.20	3.80	 	 	 	 	 	 	 	 	 	 	 	 	 	 	 	 	 	 	1581500114	7.41	13.72
12/02/2020 09:35:15	120220	12022020	093515	188.31	12.680670	-57.157228	188.45	-0.410	0.470	3.600	188.27	-0.80	4.10	 	 	 	 	 	 	 	 	 	 	 	 	 	 	 	 	 	 	1581500115	7.39	13.69
12/02/2020 09:35:16	120220	12022020	093516	188.28	12.680637	-57.157240	188.44	-0.220	0.610	3.370	188.28	-0.70	3.80	 	 	 	 	 	 	 	 	 	 	 	 	 	 	 	 	 	 	1581500116	7.54	13.96
12/02/2020 09:35:17	120220	12022020	093517	188.39	12.680602	-57.157247	188.58	-0.080	0.320	2.900	188.43	-1.10	3.30	 	 	 	 	 	 	 	 	 	 	 	 	 	 	 	 	 	 	1581500117	7.61	14.09
12/02/2020 09:35:18	120220	12022020	093518	188.56	12.680567	-57.157255	188.73	0.060	-0.310	2.410	188.59	-1.70	2.90	 	 	 	 	 	 	 	 	 	 	 	 	 	 	 	 	 	 	1581500118	7.84	14.52
12/02/2020 09:35:19	120220	12022020	093519	188.65	12.680530	-57.157262	188.80	0.380	-1.000	1.920	188.65	-2.40	2.40	 	 	 	 	 	 	 	 	 	 	 	 	 	 	 	 	 	 	1581500119	8.06	14.93
12/02/2020 09:35:20	120220	12022020	093520	188.66	12.680492	-57.157267	188.81	0.740	-1.380	1.520	188.66	-2.70	2.00	 	 	 	 	 	 	 	 	 	 	 	 	 	 	 	 	 	 	1581500120	8.16	15.11
12/02/2020 09:35:21	120220	12022020	093521	188.63	12.680455	-57.157272	188.77	0.780	-1.210	1.360	188.61	-2.50	1.90	 	 	 	 	 	 	 	 	 	 	 	 	 	 	 	 	 	 	1581500121	7.96	14.74
12/02/2020 09:35:22	120220	12022020	093522	188.41	12.680420	-57.157275	188.59	0.380	-0.620	1.550	188.41	-1.80	2.10	 	 	 	 	 	 	 	 	 	 	 	 	 	 	 	 	 	 	1581500122	7.53	13.95
12/02/2020 09:35:23	120220	12022020	093523	188.31	12.680387	-57.157282	188.52	-0.310	0.190	1.920	188.31	-1.00	2.50	 	 	 	 	 	 	 	 	 	 	 	 	 	 	 	 	 	 	1581500123	7.29	13.50
12/02/2020 09:35:24	120220	12022020	093524	188.35	12.680355	-57.157290	188.57	-0.920	0.760	2.380	188.36	-0.50	3.00	 	 	 	 	 	 	 	 	 	 	 	 	 	 	 	 	 	 	1581500124	7.18	13.30
12/02/2020 09:35:25	120220	12022020	093525	188.32	12.680322	-57.157303	188.50	-0.950	0.570	2.960	188.30	-0.80	3.50	 	 	 	 	 	 	 	 	 	 	 	 	 	 	 	 	 	 	1581500125	7.56	14.00
12/02/2020 09:35:26	120220	12022020	093526	188.15	12.680285	-57.157317	188.36	-0.400	-0.040	3.330	188.15	-1.40	3.90	 	 	 	 	 	 	 	 	 	 	 	 	 	 	 	 	 	 	1581500126	8.42	15.59
12/02/2020 09:35:27	120220	12022020	093527	188.21	12.680247	-57.157330	188.47	0.240	-0.290	3.170	188.26	-1.60	3.60	 	 	 	 	 	 	 	 	 	 	 	 	 	 	 	 	 	 	1581500127	8.62	15.96
12/02/2020 09:35:28	120220	12022020	093528	188.60	12.680210	-57.157337	188.90	0.430	-0.010	2.510	188.71	-1.30	2.90	 	 	 	 	 	 	 	 	 	 	 	 	 	 	 	 	 	 	1581500128	7.88	14.59
12/02/2020 09:35:29	120220	12022020	093529	189.20	12.680178	-57.157340	189.48	0.180	0.250	1.640	189.32	-1.10	2.10	 	 	 	 	 	 	 	 	 	 	 	 	 	 	 	 	 	 	1581500129	7.00	12.96
12/02/2020 09:35:30	120220	12022020	093530	189.58	12.680147	-57.157342	189.73	-0.000	-0.250	1.210	189.58	-1.70	1.80	 	 	 	 	 	 	 	 	 	 	 	 	 	 	 	 	 	 	1581500130	6.87	12.72
12/02/2020 09:35:31	120220	12022020	093531	189.22	12.680112	-57.157348	189.20	0.310	-1.470	1.680	189.06	-2.90	2.30	 	 	 	 	 	 	 	 	 	 	 	 	 	 	 	 	 	 	1581500131	7.74	14.33
12/02/2020 09:35:32	120220	12022020	093532	188.21	12.680072	-57.157358	188.38	0.780	-2.120	2.510	188.21	-3.40	3.10	 	 	 	 	 	 	 	 	 	 	 	 	 	 	 	 	 	 	1581500132	8.78	16.26
12/02/2020 09:35:33	120220	12022020	093533	187.77	12.680033	-57.157367	187.91	0.710	-1.300	3.040	187.71	-2.40	3.60	 	 	 	 	 	 	 	 	 	 	 	 	 	 	 	 	 	 	1581500133	8.48	15.70
12/02/2020 09:35:34	120220	12022020	093534	187.87	12.680000	-57.157375	188.04	-0.090	0.430	2.930	187.87	-0.70	3.40	 	 	 	 	 	 	 	 	 	 	 	 	 	 	 	 	 	 	1581500134	7.15	13.24
12/02/2020 09:35:35	120220	12022020	093535	188.28	12.679972	-57.157383	188.58	-1.060	1.640	2.630	188.40	0.40	3.10	 	 	 	 	 	 	 	 	 	 	 	 	 	 	 	 	 	 	1581500135	6.29	11.65
12/02/2020 09:35:36	120220	12022020	093536	188.83	12.679942	-57.157393	189.09	-1.370	1.500	2.370	188.92	0.10	2.90	 	 	 	 	 	 	 	 	 	 	 	 	 	 	 	 	 	 	1581500136	6.82	12.63
12/02/2020 09:35:37	120220	12022020	093537	189.11	12.679907	-57.157405	189.27	-0.750	0.320	2.150	189.11	-1.20	2.70	 	 	 	 	 	 	 	 	 	 	 	 	 	 	 	 	 	 	1581500137	8.06	14.93
12/02/2020 09:35:38	120220	12022020	093538	188.99	12.679867	-57.157415	189.10	0.350	-0.890	2.130	188.93	-2.30	2.70	 	 	 	 	 	 	 	 	 	 	 	 	 	 	 	 	 	 	1581500138	8.88	16.45
12/02/2020 09:35:39	120220	12022020	093539	188.72	12.679827	-57.157423	188.88	1.030	-1.230	2.050	188.71	-2.50	2.60	 	 	 	 	 	 	 	 	 	 	 	 	 	 	 	 	 	 	1581500139	8.75	16.21
12/02/2020 09:35:40	120220	12022020	093540	188.80	12.679792	-57.157428	189.03	0.830	-0.550	1.840	188.86	-1.80	2.40	 	 	 	 	 	 	 	 	 	 	 	 	 	 	 	 	 	 	1581500140	7.68	14.22
12/02/2020 09:35:41	120220	12022020	093541	189.04	12.679762	-57.157432	189.20	0.140	0.050	1.840	189.03	-1.30	2.40	 	 	 	 	 	 	 	 	 	 	 	 	 	 	 	 	 	 	1581500141	6.54	12.11
12/02/2020 09:35:42	120220	12022020	093542	188.63	12.679730	-57.157437	188.83	-0.230	-0.360	2.420	188.63	-1.80	3.10	 	 	 	 	 	 	 	 	 	 	 	 	 	 	 	 	 	 	1581500142	6.78	12.56
12/02/2020 09:35:43	120220	12022020	093543	188.05	12.679693	-57.157448	188.11	-0.090	-1.150	3.260	187.89	-2.50	3.90	 	 	 	 	 	 	 	 	 	 	 	 	 	 	 	 	 	 	1581500143	8.19	15.17
12/02/2020 09:35:44	120220	12022020	093544	187.38	12.679655	-57.157462	187.50	0.180	-1.140	3.780	187.28	-2.40	4.30	 	 	 	 	 	 	 	 	 	 	 	 	 	 	 	 	 	 	1581500144	8.81	16.32
12/02/2020 09:35:45	120220	12022020	093545	187.09	12.679620	-57.157473	187.30	0.130	-0.110	3.710	187.09	-1.20	4.20	 	 	 	 	 	 	 	 	 	 	 	 	 	 	 	 	 	 	1581500145	7.99	14.80
12/02/2020 09:35:46	120220	12022020	093546	187.29	12.679588	-57.157480	187.55	-0.280	1.000	3.090	187.37	-0.20	3.50	 	 	 	 	 	 	 	 	 	 	 	 	 	 	 	 	 	 	1581500146	6.83	12.65
12/02/2020 09:35:47	120220	12022020	093547	187.79	12.679558	-57.157485	188.06	-0.670	1.250	2.350	187.90	-0.10	2.80	 	 	 	 	 	 	 	 	 	 	 	 	 	 	 	 	 	 	1581500147	6.63	12.28
12/02/2020 09:35:48	120220	12022020	093548	188.35	12.679525	-57.157490	188.48	-0.570	0.510	1.830	188.35	-1.00	2.30	 	 	 	 	 	 	 	 	 	 	 	 	 	 	 	 	 	 	1581500148	7.32	13.56
12/02/2020 09:35:49	120220	12022020	093549	188.41	12.679487	-57.157498	188.52	0.130	-0.770	1.610	188.37	-2.30	2.10	 	 	 	 	 	 	 	 	 	 	 	 	 	 	 	 	 	 	1581500149	8.18	15.15
12/02/2020 09:35:50	120220	12022020	093550	188.10	12.679447	-57.157505	188.16	0.920	-1.710	1.660	188.02	-3.10	2.20	 	 	 	 	 	 	 	 	 	 	 	 	 	 	 	 	 	 	1581500150	8.67	16.06
12/02/2020 09:35:51	120220	12022020	093551	187.75	12.679408	-57.157510	187.85	1.010	-1.640	1.920	187.70	-2.90	2.50	 	 	 	 	 	 	 	 	 	 	 	 	 	 	 	 	 	 	1581500151	8.42	15.59
12/02/2020 09:35:52	120220	12022020	093552	187.48	12.679373	-57.157513	187.65	0.250	-0.740	2.420	187.48	-1.90	3.00	 	 	 	 	 	 	 	 	 	 	 	 	 	 	 	 	 	 	1581500152	7.48	13.85
12/02/2020 09:35:53	120220	12022020	093553	187.27	12.679343	-57.157523	187.42	-0.720	0.230	3.080	187.22	-1.00	3.70	 	 	 	 	 	 	 	 	 	 	 	 	 	 	 	 	 	 	1581500153	6.87	12.72
12/02/2020 09:35:54	120220	12022020	093554	187.15	12.679312	-57.157535	187.33	-1.160	0.780	3.410	187.15	-0.50	3.90	 	 	 	 	 	 	 	 	 	 	 	 	 	 	 	 	 	 	1581500154	7.19	13.32
12/02/2020 09:35:55	120220	12022020	093555	187.29	12.679278	-57.157548	187.53	-0.860	0.790	3.160	187.35	-0.60	3.60	 	 	 	 	 	 	 	 	 	 	 	 	 	 	 	 	 	 	1581500155	7.67	14.20
12/02/2020 09:35:56	120220	12022020	093556	187.72	12.679243	-57.157558	188.01	-0.120	0.500	2.420	187.84	-0.90	2.80	 	 	 	 	 	 	 	 	 	 	 	 	 	 	 	 	 	 	1581500156	7.94	14.70
12/02/2020 09:35:57	120220	12022020	093557	188.29	12.679207	-57.157563	188.53	0.580	0.110	1.520	188.38	-1.30	2.00	 	 	 	 	 	 	 	 	 	 	 	 	 	 	 	 	 	 	1581500157	7.88	14.59
12/02/2020 09:35:58	120220	12022020	093558	188.55	12.679172	-57.157567	188.70	0.970	-0.420	0.920	188.55	-1.80	1.40	 	 	 	 	 	 	 	 	 	 	 	 	 	 	 	 	 	 	1581500158	7.71	14.28
12/02/2020 09:35:59	120220	12022020	093559	188.39	12.679135	-57.157567	188.48	0.920	-0.910	0.950	188.32	-2.30	1.60	 	 	 	 	 	 	 	 	 	 	 	 	 	 	 	 	 	 	1581500159	7.78	14.41
12/02/2020 09:36:00	120220	12022020	093600	187.94	12.679100	-57.157570	188.12	0.450	-1.030	1.480	187.94	-2.30	2.10	 	 	 	 	 	 	 	 	 	 	 	 	 	 	 	 	 	 	1581500160	7.68	14.22
12/02/2020 09:36:01	120220	12022020	093601	187.63	12.679065	-57.157578	187.72	-0.130	-0.900	2.190	187.54	-2.20	2.90	1014.90	26.10	26.20	20.60	20.70	-1.0	71.0	71.0	393.0	25.8	270.00	10.60	78.00	11.40	16	9204.0	27.5	27.5	1581500161	7.43	13.76
12/02/2020 09:36:02	120220	12022020	093602	187.13	12.679032	-57.157590	187.24	-0.480	-0.870	3.020	187.04	-2.20	3.70	 	 	 	 	 	 	 	 	 	 	 	 	 	 	 	 	 	 	1581500162	7.58	14.04
12/02/2020 09:36:03	120220	12022020	093603	186.75	12.678997	-57.157603	186.92	-0.510	-0.790	3.510	186.71	-2.10	4.10	 	 	 	 	 	 	 	 	 	 	 	 	 	 	 	 	 	 	1581500163	8.12	15.04
12/02/2020 09:36:04	120220	12022020	093604	186.68	12.678960	-57.157615	186.90	-0.440	-0.350	3.500	186.71	-1.60	4.00	 	 	 	 	 	 	 	 	 	 	 	 	 	 	 	 	 	 	1581500164	8.21	15.20
12/02/2020 09:36:05	120220	12022020	093605	186.99	12.678927	-57.157625	187.26	-0.480	0.520	3.150	187.10	-0.70	3.60	 	 	 	 	 	 	 	 	 	 	 	 	 	 	 	 	 	 	1581500165	7.71	14.28
12/02/2020 09:36:06	120220	12022020	093606	187.59	12.678895	-57.157633	187.84	-0.560	1.270	2.470	187.71	-0.00	2.90	 	 	 	 	 	 	 	 	 	 	 	 	 	 	 	 	 	 	1581500166	7.00	12.96
12/02/2020 09:36:07	120220	12022020	093607	188.03	12.678863	-57.157638	188.18	-0.330	1.090	1.750	188.07	-0.40	2.20	 	 	 	 	 	 	 	 	 	 	 	 	 	 	 	 	 	 	1581500167	6.84	12.67
12/02/2020 09:36:08	120220	12022020	093608	187.97	12.678827	-57.157642	188.11	0.310	-0.090	1.470	187.97	-1.60	2.00	 	 	 	 	 	 	 	 	 	 	 	 	 	 	 	 	 	 	1581500168	7.70	14.26
12/02/2020 09:36:09	120220	12022020	093609	187.75	12.678788	-57.157648	187.84	0.920	-1.130	1.390	187.68	-2.50	1.90	 	 	 	 	 	 	 	 	 	 	 	 	 	 	 	 	 	 	1581500169	8.58	15.89
12/02/2020 09:36:10	120220	12022020	093610	187.32	12.678750	-57.157652	187.50	1.010	-1.280	1.530	187.32	-2.50	2.10	 	 	 	 	 	 	 	 	 	 	 	 	 	 	 	 	 	 	1581500170	8.30	15.37
12/02/2020 09:36:11	120220	12022020	093611	187.04	12.678715	-57.157655	187.16	0.500	-0.720	2.010	186.98	-1.90	2.70	 	 	 	 	 	 	 	 	 	 	 	 	 	 	 	 	 	 	1581500171	7.40	13.70
12/02/2020 09:36:12	120220	12022020	093612	186.81	12.678683	-57.157662	186.98	-0.230	-0.080	2.660	186.79	-1.30	3.30	 	 	 	 	 	 	 	 	 	 	 	 	 	 	 	 	 	 	1581500172	6.87	12.72
12/02/2020 09:36:13	120220	12022020	093613	186.70	12.678653	-57.157673	186.88	-0.600	0.080	3.170	186.69	-1.30	3.80	 	 	 	 	 	 	 	 	 	 	 	 	 	 	 	 	 	 	1581500173	7.08	13.11
12/02/2020 09:36:14	120220	12022020	093614	186.60	12.678618	-57.157685	186.78	-0.390	-0.230	3.330	186.60	-1.60	3.80	 	 	 	 	 	 	 	 	 	 	 	 	 	 	 	 	 	 	1581500174	7.76	14.37
12/02/2020 09:36:15	120220	12022020	093615	186.58	12.678582	-57.157695	186.76	0.050	-0.530	3.010	186.59	-1.90	3.50	 	 	 	 	 	 	 	 	 	 	 	 	 	 	 	 	 	 	1581500175	8.21	15.20
12/02/2020 09:36:16	120220	12022020	093616	186.71	12.678545	-57.157702	186.92	0.200	-0.420	2.390	186.76	-1.70	2.80	 	 	 	 	 	 	 	 	 	 	 	 	 	 	 	 	 	 	1581500176	8.05	14.91
12/02/2020 09:36:17	120220	12022020	093617	187.03	12.678510	-57.157705	187.23	-0.080	-0.050	1.850	187.08	-1.30	2.40	 	 	 	 	 	 	 	 	 	 	 	 	 	 	 	 	 	 	1581500177	7.47	13.83
12/02/2020 09:36:18	120220	12022020	093618	187.19	12.678478	-57.157710	187.33	-0.390	0.080	1.790	187.18	-1.30	2.40	 	 	 	 	 	 	 	 	 	 	 	 	 	 	 	 	 	 	1581500178	7.09	13.13
12/02/2020 09:36:19	120220	12022020	093619	186.96	12.678443	-57.157717	187.04	-0.320	-0.250	2.240	186.88	-1.60	2.90	 	 	 	 	 	 	 	 	 	 	 	 	 	 	 	 	 	 	1581500179	7.42	13.74
12/02/2020 09:36:20	120220	12022020	093620	186.59	12.678407	-57.157727	186.73	0.040	-0.620	2.700	186.55	-1.90	3.30	 	 	 	 	 	 	 	 	 	 	 	 	 	 	 	 	 	 	1581500180	8.12	15.04
12/02/2020 09:36:21	120220	12022020	093621	186.61	12.678370	-57.157735	186.86	0.290	-0.400	2.670	186.68	-1.60	3.20	 	 	 	 	 	 	 	 	 	 	 	 	 	 	 	 	 	 	1581500181	8.19	15.17
12/02/2020 09:36:22	120220	12022020	093622	187.11	12.678337	-57.157742	187.40	0.200	0.250	2.290	187.24	-1.00	2.80	 	 	 	 	 	 	 	 	 	 	 	 	 	 	 	 	 	 	1581500182	7.41	13.72
12/02/2020 09:36:23	120220	12022020	093623	187.65	12.678305	-57.157745	187.89	0.020	0.470	1.970	187.71	-0.90	2.50	 	 	 	 	 	 	 	 	 	 	 	 	 	 	 	 	 	 	1581500183	6.78	12.56
12/02/2020 09:36:24	120220	12022020	093624	187.73	12.678272	-57.157750	187.85	0.160	-0.140	1.930	187.68	-1.60	2.50	 	 	 	 	 	 	 	 	 	 	 	 	 	 	 	 	 	 	1581500184	7.19	13.32
12/02/2020 09:36:25	120220	12022020	093625	187.33	12.678235	-57.157755	187.43	0.450	-0.910	2.320	187.22	-2.30	2.90	 	 	 	 	 	 	 	 	 	 	 	 	 	 	 	 	 	 	1581500185	8.12	15.04
12/02/2020 09:36:26	120220	12022020	093626	186.87	12.678197	-57.157760	187.01	0.370	-0.990	2.840	186.81	-2.20	3.40	 	 	 	 	 	 	 	 	 	 	 	 	 	 	 	 	 	 	1581500186	8.33	15.43
12/02/2020 09:36:27	120220	12022020	093627	186.85	12.678162	-57.157768	187.12	-0.260	-0.250	3.080	186.92	-1.40	3.60	 	 	 	 	 	 	 	 	 	 	 	 	 	 	 	 	 	 	1581500187	7.64	14.15
12/02/2020 09:36:28	120220	12022020	093628	187.31	12.678132	-57.157780	187.60	-0.980	0.520	3.080	187.41	-0.70	3.60	 	 	 	 	 	 	 	 	 	 	 	 	 	 	 	 	 	 	1581500188	6.82	12.63
12/02/2020 09:36:29	120220	12022020	093629	187.75	12.678102	-57.157792	187.99	-1.060	0.550	2.870	187.80	-0.80	3.40	 	 	 	 	 	 	 	 	 	 	 	 	 	 	 	 	 	 	1581500189	6.86	12.70
12/02/2020 09:36:30	120220	12022020	093630	187.92	12.678068	-57.157803	188.08	-0.260	-0.210	2.290	187.92	-1.70	2.70	 	 	 	 	 	 	 	 	 	 	 	 	 	 	 	 	 	 	1581500190	7.62	14.11
12/02/2020 09:36:31	120220	12022020	093631	187.77	12.678030	-57.157810	187.87	0.880	-1.010	1.590	187.72	-2.40	2.00	 	 	 	 	 	 	 	 	 	 	 	 	 	 	 	 	 	 	1581500191	8.34	15.45
12/02/2020 09:36:32	120220	12022020	093632	187.53	12.677992	-57.157812	187.63	1.430	-1.140	0.950	187.49	-2.40	1.40	 	 	 	 	 	 	 	 	 	 	 	 	 	 	 	 	 	 	1581500192	8.44	15.63
12/02/2020 09:36:33	120220	12022020	093633	187.40	12.677955	-57.157810	187.53	0.990	-0.590	0.510	187.39	-1.80	1.10	 	 	 	 	 	 	 	 	 	 	 	 	 	 	 	 	 	 	1581500193	7.82	14.48
12/02/2020 09:36:34	120220	12022020	093634	187.35	12.677922	-57.157810	187.50	-0.070	0.030	0.710	187.33	-1.20	1.40	 	 	 	 	 	 	 	 	 	 	 	 	 	 	 	 	 	 	1581500194	7.12	13.19
12/02/2020 09:36:35	120220	12022020	093635	187.27	12.677888	-57.157815	187.45	-1.000	0.280	1.500	187.26	-1.00	2.20	 	 	 	 	 	 	 	 	 	 	 	 	 	 	 	 	 	 	1581500195	7.11	13.17
12/02/2020 09:36:36	120220	12022020	093636	187.23	12.677855	-57.157828	187.44	-1.250	0.210	2.370	187.24	-1.10	3.00	 	 	 	 	 	 	 	 	 	 	 	 	 	 	 	 	 	 	1581500196	7.79	14.43
12/02/2020 09:36:37	120220	12022020	093637	187.32	12.677820	-57.157845	187.55	-0.850	0.060	2.840	187.35	-1.30	3.40	 	 	 	 	 	 	 	 	 	 	 	 	 	 	 	 	 	 	1581500197	8.25	15.28
12/02/2020 09:36:38	120220	12022020	093638	187.47	12.677785	-57.157860	187.66	-0.190	-0.050	2.800	187.49	-1.40	3.30	 	 	 	 	 	 	 	 	 	 	 	 	 	 	 	 	 	 	1581500198	8.07	14.95
12/02/2020 09:36:39	120220	12022020	093639	187.49	12.677750	-57.157868	187.63	0.340	-0.140	2.450	187.47	-1.50	2.90	 	 	 	 	 	 	 	 	 	 	 	 	 	 	 	 	 	 	1581500199	7.71	14.28
12/02/2020 09:36:40	120220	12022020	093640	187.33	12.677717	-57.157873	187.45	0.560	-0.170	2.050	187.30	-1.50	2.50	 	 	 	 	 	 	 	 	 	 	 	 	 	 	 	 	 	 	1581500200	7.51	13.91
12/02/2020 09:36:41	120220	12022020	093641	187.16	12.677682	-57.157875	187.28	0.540	-0.090	1.700	187.13	-1.40	2.20	 	 	 	 	 	 	 	 	 	 	 	 	 	 	 	 	 	 	1581500201	7.35	13.61
12/02/2020 09:36:42	120220	12022020	093642	187.02	12.677648	-57.157878	187.13	0.460	-0.200	1.480	186.98	-1.60	2.00	 	 	 	 	 	 	 	 	 	 	 	 	 	 	 	 	 	 	1581500202	7.19	13.32
12/02/2020 09:36:43	120220	12022020	093643	186.79	12.677615	-57.157882	186.89	0.510	-0.700	1.480	186.74	-2.10	2.10	 	 	 	 	 	 	 	 	 	 	 	 	 	 	 	 	 	 	1581500203	7.47	13.83
12/02/2020 09:36:44	120220	12022020	093644	186.59	12.677577	-57.157887	186.74	0.540	-1.060	1.630	186.57	-2.40	2.20	 	 	 	 	 	 	 	 	 	 	 	 	 	 	 	 	 	 	1581500204	8.00	14.82
12/02/2020 09:36:45	120220	12022020	093645	186.56	12.677542	-57.157893	186.74	0.290	-0.830	1.910	186.57	-2.10	2.50	 	 	 	 	 	 	 	 	 	 	 	 	 	 	 	 	 	 	1581500205	7.90	14.63
12/02/2020 09:36:46	120220	12022020	093646	186.61	12.677507	-57.157900	186.77	-0.260	-0.320	2.490	186.60	-1.60	3.10	 	 	 	 	 	 	 	 	 	 	 	 	 	 	 	 	 	 	1581500206	7.37	13.65
12/02/2020 09:36:47	120220	12022020	093647	186.49	12.677475	-57.157908	186.62	-0.840	-0.130	3.290	186.44	-1.50	3.90	 	 	 	 	 	 	 	 	 	 	 	 	 	 	 	 	 	 	1581500207	7.27	13.46
12/02/2020 09:36:48	120220	12022020	093648	186.29	12.677440	-57.157922	186.44	-1.130	-0.280	3.890	186.25	-1.60	4.50	 	 	 	 	 	 	 	 	 	 	 	 	 	 	 	 	 	 	1581500208	7.92	14.67
12/02/2020 09:36:49	120220	12022020	093649	186.23	12.677403	-57.157935	186.45	-1.020	-0.280	4.020	186.26	-1.60	4.50	 	 	 	 	 	 	 	 	 	 	 	 	 	 	 	 	 	 	1581500209	8.38	15.52
12/02/2020 09:36:50	120220	12022020	093650	186.54	12.677368	-57.157947	186.80	-0.570	0.210	3.420	186.64	-1.00	3.80	 	 	 	 	 	 	 	 	 	 	 	 	 	 	 	 	 	 	1581500210	8.03	14.87
12/02/2020 09:36:51	120220	12022020	093651	187.10	12.677335	-57.157953	187.34	0.100	0.680	2.170	187.20	-0.60	2.50	 	 	 	 	 	 	 	 	 	 	 	 	 	 	 	 	 	 	1581500211	7.19	13.32
12/02/2020 09:36:52	120220	12022020	093652	187.50	12.677302	-57.157952	187.64	0.810	0.480	0.930	187.53	-0.90	1.40	 	 	 	 	 	 	 	 	 	 	 	 	 	 	 	 	 	 	1581500212	7.16	13.26
12/02/2020 09:36:53	120220	12022020	093653	187.46	12.677265	-57.157948	187.52	1.250	-0.240	0.440	187.41	-1.70	1.00	 	 	 	 	 	 	 	 	 	 	 	 	 	 	 	 	 	 	1581500213	7.88	14.59
12/02/2020 09:36:54	120220	12022020	093654	187.07	12.677227	-57.157947	187.10	1.140	-0.790	0.770	186.97	-2.10	1.40	 	 	 	 	 	 	 	 	 	 	 	 	 	 	 	 	 	 	1581500214	8.22	15.22
12/02/2020 09:36:55	120220	12022020	093655	186.58	12.677192	-57.157950	186.65	0.540	-0.670	1.580	186.49	-1.90	2.20	 	 	 	 	 	 	 	 	 	 	 	 	 	 	 	 	 	 	1581500215	7.83	14.50
12/02/2020 09:36:56	120220	12022020	093656	186.19	12.677158	-57.157958	186.37	-0.210	-0.310	2.550	186.19	-1.60	3.20	 	 	 	 	 	 	 	 	 	 	 	 	 	 	 	 	 	 	1581500216	7.23	13.39
12/02/2020 09:36:57	120220	12022020	093657	186.18	12.677127	-57.157972	186.40	-0.720	-0.160	3.450	186.21	-1.50	4.10	 	 	 	 	 	 	 	 	 	 	 	 	 	 	 	 	 	 	1581500217	7.37	13.65
12/02/2020 09:36:58	120220	12022020	093658	186.58	12.677093	-57.157987	186.75	-0.780	-0.180	3.660	186.58	-1.50	4.10	 	 	 	 	 	 	 	 	 	 	 	 	 	 	 	 	 	 	1581500218	7.83	14.50
12/02/2020 09:36:59	120220	12022020	093659	187.00	12.677060	-57.158000	187.25	-0.430	-0.290	3.090	187.10	-1.60	3.50	 	 	 	 	 	 	 	 	 	 	 	 	 	 	 	 	 	 	1581500219	7.74	14.33
12/02/2020 09:37:00	120220	12022020	093700	187.44	12.677025	-57.158008	187.62	0.080	-0.580	2.210	187.50	-2.00	2.60	 	 	 	 	 	 	 	 	 	 	 	 	 	 	 	 	 	 	1581500220	7.57	14.02
12/02/2020 09:37:01	120220	12022020	093701	187.62	12.676990	-57.158010	187.72	0.450	-0.920	1.430	187.61	-2.30	1.90	1014.80	26.10	26.20	20.50	20.60	-1.0	71.0	71.0	393.0	25.8	271.00	10.80	78.00	11.40	16	9044.0	27.5	27.4	1581500221	7.82	14.48
12/02/2020 09:37:02	120220	12022020	093702	187.42	12.676952	-57.158012	187.52	0.510	-0.900	1.160	187.42	-2.20	1.70	 	 	 	 	 	 	 	 	 	 	 	 	 	 	 	 	 	 	1581500222	7.99	14.80
12/02/2020 09:37:03	120220	12022020	093703	187.18	12.676917	-57.158013	187.26	0.270	-0.400	1.260	187.14	-1.60	1.80	 	 	 	 	 	 	 	 	 	 	 	 	 	 	 	 	 	 	1581500223	7.74	14.33
12/02/2020 09:37:04	120220	12022020	093704	187.12	12.676882	-57.158017	187.25	-0.150	0.240	1.470	187.12	-1.00	2.10	 	 	 	 	 	 	 	 	 	 	 	 	 	 	 	 	 	 	1581500224	7.36	13.63
12/02/2020 09:37:05	120220	12022020	093705	187.18	12.676848	-57.158023	187.34	-0.510	0.460	1.960	187.19	-0.90	2.60	 	 	 	 	 	 	 	 	 	 	 	 	 	 	 	 	 	 	1581500225	7.32	13.56
12/02/2020 09:37:06	120220	12022020	093706	187.24	12.676813	-57.158032	187.41	-0.640	0.260	2.620	187.24	-1.10	3.20	 	 	 	 	 	 	 	 	 	 	 	 	 	 	 	 	 	 	1581500226	7.79	14.43
12/02/2020 09:37:07	120220	12022020	093707	187.24	12.676777	-57.158045	187.39	-0.510	-0.020	3.080	187.24	-1.40	3.60	 	 	 	 	 	 	 	 	 	 	 	 	 	 	 	 	 	 	1581500227	8.19	15.17
12/02/2020 09:37:08	120220	12022020	093708	187.29	12.676742	-57.158057	187.43	-0.130	-0.130	3.050	187.29	-1.50	3.50	 	 	 	 	 	 	 	 	 	 	 	 	 	 	 	 	 	 	1581500228	8.09	14.98
12/02/2020 09:37:09	120220	12022020	093709	187.38	12.676707	-57.158063	187.54	0.360	-0.130	2.620	187.41	-1.50	3.10	 	 	 	 	 	 	 	 	 	 	 	 	 	 	 	 	 	 	1581500229	7.70	14.26
12/02/2020 09:37:10	120220	12022020	093710	187.42	12.676672	-57.158068	187.55	0.720	-0.200	2.100	187.42	-1.50	2.60	 	 	 	 	 	 	 	 	 	 	 	 	 	 	 	 	 	 	1581500230	7.51	13.91
12/02/2020 09:37:11	120220	12022020	093711	187.41	12.676637	-57.158070	187.54	0.610	-0.190	1.680	187.42	-1.50	2.20	 	 	 	 	 	 	 	 	 	 	 	 	 	 	 	 	 	 	1581500231	7.58	14.04
12/02/2020 09:37:12	120220	12022020	093712	187.43	12.676603	-57.158072	187.56	0.100	-0.070	1.660	187.43	-1.40	2.20	 	 	 	 	 	 	 	 	 	 	 	 	 	 	 	 	 	 	1581500232	7.33	13.58
12/02/2020 09:37:13	120220	12022020	093713	187.32	12.676570	-57.158078	187.43	-0.350	-0.200	2.050	187.27	-1.60	2.70	 	 	 	 	 	 	 	 	 	 	 	 	 	 	 	 	 	 	1581500233	7.11	13.17
12/02/2020 09:37:14	120220	12022020	093714	186.91	12.676537	-57.158088	187.07	-0.350	-0.720	2.500	186.91	-2.10	3.10	 	 	 	 	 	 	 	 	 	 	 	 	 	 	 	 	 	 	1581500234	7.53	13.95
12/02/2020 09:37:15	120220	12022020	093715	186.53	12.676500	-57.158100	186.59	0.060	-1.280	2.890	186.43	-2.70	3.50	 	 	 	 	 	 	 	 	 	 	 	 	 	 	 	 	 	 	1581500235	8.17	15.13
12/02/2020 09:37:16	120220	12022020	093716	186.17	12.676463	-57.158110	186.33	0.540	-1.260	2.840	186.17	-2.50	3.30	 	 	 	 	 	 	 	 	 	 	 	 	 	 	 	 	 	 	1581500236	8.38	15.52
12/02/2020 09:37:17	120220	12022020	093717	186.41	12.676427	-57.158117	186.69	0.580	-0.390	2.160	186.53	-1.60	2.60	 	 	 	 	 	 	 	 	 	 	 	 	 	 	 	 	 	 	1581500237	7.83	14.50
12/02/2020 09:37:18	120220	12022020	093718	187.18	12.676395	-57.158117	187.49	0.080	0.580	1.460	187.33	-0.70	1.90	 	 	 	 	 	 	 	 	 	 	 	 	 	 	 	 	 	 	1581500238	6.97	12.91
12/02/2020 09:37:19	120220	12022020	093719	187.82	12.676363	-57.158117	188.03	-0.510	0.610	1.380	187.89	-0.80	2.00	 	 	 	 	 	 	 	 	 	 	 	 	 	 	 	 	 	 	1581500239	6.81	12.61
12/02/2020 09:37:20	120220	12022020	093720	187.97	12.676327	-57.158122	188.10	-0.670	-0.280	1.870	187.94	-1.70	2.50	 	 	 	 	 	 	 	 	 	 	 	 	 	 	 	 	 	 	1581500240	7.77	14.39
12/02/2020 09:37:21	120220	12022020	093721	187.68	12.676288	-57.158133	187.76	-0.440	-0.980	2.670	187.59	-2.30	3.30	 	 	 	 	 	 	 	 	 	 	 	 	 	 	 	 	 	 	1581500241	8.75	16.21
12/02/2020 09:37:22	120220	12022020	093722	187.12	12.676250	-57.158143	187.29	-0.250	-0.740	3.350	187.12	-2.00	3.90	 	 	 	 	 	 	 	 	 	 	 	 	 	 	 	 	 	 	1581500242	8.51	15.76
12/02/2020 09:37:23	120220	12022020	093723	186.75	12.676217	-57.158155	186.80	-0.260	-0.090	3.690	186.65	-1.30	4.20	 	 	 	 	 	 	 	 	 	 	 	 	 	 	 	 	 	 	1581500243	7.54	13.96
12/02/2020 09:37:24	120220	12022020	093724	186.12	12.676183	-57.158165	186.25	-0.170	0.150	3.810	186.12	-1.20	4.30	 	 	 	 	 	 	 	 	 	 	 	 	 	 	 	 	 	 	1581500244	7.28	13.48
12/02/2020 09:37:25	120220	12022020	093725	185.88	12.676148	-57.158173	186.01	0.190	0.200	3.400	185.88	-1.10	3.80	 	 	 	 	 	 	 	 	 	 	 	 	 	 	 	 	 	 	1581500245	7.82	14.48
12/02/2020 09:37:26	120220	12022020	093726	186.30	12.676112	-57.158177	186.42	0.510	0.630	2.420	186.30	-0.60	2.80	 	 	 	 	 	 	 	 	 	 	 	 	 	 	 	 	 	 	1581500246	7.80	14.45
12/02/2020 09:37:27	120220	12022020	093727	186.91	12.676080	-57.158177	187.17	0.510	0.720	1.320	187.05	-0.70	1.70	 	 	 	 	 	 	 	 	 	 	 	 	 	 	 	 	 	 	1581500247	7.11	13.17
12/02/2020 09:37:28	120220	12022020	093728	187.50	12.676045	-57.158178	187.72	0.330	-0.100	0.890	187.59	-1.60	1.40	 	 	 	 	 	 	 	 	 	 	 	 	 	 	 	 	 	 	1581500248	7.24	13.41
12/02/2020 09:37:29	120220	12022020	093729	187.81	12.676008	-57.158182	187.99	0.200	-1.250	1.180	187.83	-2.70	1.80	 	 	 	 	 	 	 	 	 	 	 	 	 	 	 	 	 	 	1581500249	7.99	14.80
12/02/2020 09:37:30	120220	12022020	093730	187.81	12.675972	-57.158190	187.95	0.040	-1.790	1.940	187.77	-3.10	2.60	 	 	 	 	 	 	 	 	 	 	 	 	 	 	 	 	 	 	1581500250	8.25	15.28
12/02/2020 09:37:31	120220	12022020	093731	187.42	12.675937	-57.158202	187.50	-0.140	-1.630	2.910	187.31	-2.90	3.60	 	 	 	 	 	 	 	 	 	 	 	 	 	 	 	 	 	 	1581500251	7.78	14.41
12/02/2020 09:37:32	120220	12022020	093732	186.79	12.675903	-57.158215	186.88	-0.240	-1.100	3.760	186.68	-2.30	4.40	 	 	 	 	 	 	 	 	 	 	 	 	 	 	 	 	 	 	1581500252	7.58	14.04
12/02/2020 09:37:33	120220	12022020	093733	186.29	12.675870	-57.158228	186.42	-0.180	-0.360	4.080	186.22	-1.60	4.60	 	 	 	 	 	 	 	 	 	 	 	 	 	 	 	 	 	 	1581500253	7.64	14.15
12/02/2020 09:37:34	120220	12022020	093734	186.09	12.675837	-57.158237	186.25	0.010	0.380	3.760	186.08	-0.90	4.20	 	 	 	 	 	 	 	 	 	 	 	 	 	 	 	 	 	 	1581500254	7.57	14.02
12/02/2020 09:37:35	120220	12022020	093735	186.18	12.675802	-57.158242	186.39	0.180	0.850	2.980	186.24	-0.40	3.40	 	 	 	 	 	 	 	 	 	 	 	 	 	 	 	 	 	 	1581500255	7.57	14.02
12/02/2020 09:37:36	120220	12022020	093736	186.62	12.675765	-57.158242	186.88	0.120	0.960	2.020	186.74	-0.40	2.50	 	 	 	 	 	 	 	 	 	 	 	 	 	 	 	 	 	 	1581500256	7.74	14.33
12/02/2020 09:37:37	120220	12022020	093737	187.18	12.675730	-57.158242	187.39	-0.200	0.480	1.660	187.26	-0.90	2.20	 	 	 	 	 	 	 	 	 	 	 	 	 	 	 	 	 	 	1581500257	7.82	14.48
12/02/2020 09:37:38	120220	12022020	093738	187.36	12.675692	-57.158247	187.46	-0.540	-0.480	2.210	187.32	-1.90	2.90	 	 	 	 	 	 	 	 	 	 	 	 	 	 	 	 	 	 	1581500258	8.03	14.87
12/02/2020 09:37:39	120220	12022020	093739	186.99	12.675655	-57.158258	187.03	-0.620	-1.270	3.160	186.87	-2.60	3.80	 	 	 	 	 	 	 	 	 	 	 	 	 	 	 	 	 	 	1581500259	8.50	15.74
12/02/2020 09:37:40	120220	12022020	093740	186.45	12.675618	-57.158275	186.54	-0.430	-1.090	3.730	186.37	-2.30	4.30	 	 	 	 	 	 	 	 	 	 	 	 	 	 	 	 	 	 	1581500260	8.43	15.61
12/02/2020 09:37:41	120220	12022020	093741	186.16	12.675587	-57.158287	186.29	-0.040	-0.290	3.470	186.13	-1.50	3.90	 	 	 	 	 	 	 	 	 	 	 	 	 	 	 	 	 	 	1581500261	7.34	13.59
12/02/2020 09:37:42	120220	12022020	093742	186.01	12.675557	-57.158293	186.15	0.410	0.030	2.790	186.01	-1.30	3.20	 	 	 	 	 	 	 	 	 	 	 	 	 	 	 	 	 	 	1581500262	6.65	12.32
12/02/2020 09:37:43	120220	12022020	093743	185.83	12.675522	-57.158295	185.95	0.820	-0.390	2.380	185.79	-1.80	2.90	 	 	 	 	 	 	 	 	 	 	 	 	 	 	 	 	 	 	1581500263	7.37	13.65
12/02/2020 09:37:44	120220	12022020	093744	185.65	12.675483	-57.158297	185.79	0.870	-0.770	2.350	185.64	-2.10	2.90	 	 	 	 	 	 	 	 	 	 	 	 	 	 	 	 	 	 	1581500264	8.29	15.35
12/02/2020 09:37:45	120220	12022020	093745	185.73	12.675445	-57.158300	185.96	0.350	-0.380	2.530	185.80	-1.50	3.10	 	 	 	 	 	 	 	 	 	 	 	 	 	 	 	 	 	 	1581500265	8.21	15.20
12/02/2020 09:37:46	120220	12022020	093746	186.32	12.675412	-57.158307	186.65	-0.570	0.630	2.740	186.49	-0.50	3.30	 	 	 	 	 	 	 	 	 	 	 	 	 	 	 	 	 	 	1581500266	7.29	13.50
12/02/2020 09:37:47	120220	12022020	093747	187.18	12.675383	-57.158318	187.50	-1.190	1.180	2.770	187.33	-0.10	3.30	 	 	 	 	 	 	 	 	 	 	 	 	 	 	 	 	 	 	1581500267	6.59	12.20
12/02/2020 09:37:48	120220	12022020	093748	187.69	12.675353	-57.158330	187.90	-0.880	0.460	2.520	187.73	-1.00	3.00	 	 	 	 	 	 	 	 	 	 	 	 	 	 	 	 	 	 	1581500268	6.99	12.95
12/02/2020 09:37:49	120220	12022020	093749	187.70	12.675317	-57.158340	187.82	0.180	-0.910	2.100	187.66	-2.40	2.60	 	 	 	 	 	 	 	 	 	 	 	 	 	 	 	 	 	 	1581500269	8.20	15.19
12/02/2020 09:37:50	120220	12022020	093750	187.47	12.675275	-57.158345	187.58	1.080	-1.630	1.650	187.43	-2.90	2.10	 	 	 	 	 	 	 	 	 	 	 	 	 	 	 	 	 	 	1581500270	8.78	16.26
12/02/2020 09:37:51	120220	12022020	093751	187.27	12.675238	-57.158345	187.38	1.070	-1.300	1.430	187.22	-2.50	2.00	 	 	 	 	 	 	 	 	 	 	 	 	 	 	 	 	 	 	1581500271	8.12	15.04
12/02/2020 09:37:52	120220	12022020	093752	186.83	12.675205	-57.158345	186.98	0.220	-0.610	1.670	186.83	-1.80	2.30	 	 	 	 	 	 	 	 	 	 	 	 	 	 	 	 	 	 	1581500272	7.14	13.22
12/02/2020 09:37:53	120220	12022020	093753	186.38	12.675173	-57.158352	186.44	-0.720	-0.200	2.350	186.27	-1.50	3.00	 	 	 	 	 	 	 	 	 	 	 	 	 	 	 	 	 	 	1581500273	7.05	13.06
12/02/2020 09:37:54	120220	12022020	093754	185.95	12.675138	-57.158363	186.15	-1.110	0.070	3.070	185.95	-1.20	3.70	 	 	 	 	 	 	 	 	 	 	 	 	 	 	 	 	 	 	1581500274	7.79	14.43
12/02/2020 09:37:55	120220	12022020	093755	186.01	12.675103	-57.158378	186.24	-0.870	0.420	3.290	186.06	-0.80	3.80	 	 	 	 	 	 	 	 	 	 	 	 	 	 	 	 	 	 	1581500275	8.09	14.98
12/02/2020 09:37:56	120220	12022020	093756	186.36	12.675070	-57.158390	186.63	-0.430	0.570	2.900	186.44	-0.70	3.30	 	 	 	 	 	 	 	 	 	 	 	 	 	 	 	 	 	 	1581500276	7.80	14.45
12/02/2020 09:37:57	120220	12022020	093757	186.81	12.675035	-57.158398	187.07	-0.150	0.470	2.230	186.90	-0.80	2.70	 	 	 	 	 	 	 	 	 	 	 	 	 	 	 	 	 	 	1581500277	7.67	14.20
12/02/2020 09:37:58	120220	12022020	093758	187.23	12.675000	-57.158405	187.44	0.020	0.310	1.620	187.30	-1.00	2.10	 	 	 	 	 	 	 	 	 	 	 	 	 	 	 	 	 	 	1581500278	7.58	14.04
12/02/2020 09:37:59	120220	12022020	093759	187.44	12.674965	-57.158408	187.56	0.380	-0.020	1.170	187.44	-1.40	1.70	 	 	 	 	 	 	 	 	 	 	 	 	 	 	 	 	 	 	1581500279	7.37	13.65
12/02/2020 09:38:00	120220	12022020	093800	187.14	12.674930	-57.158412	187.28	0.910	-0.730	1.110	187.14	-2.10	1.70	 	 	 	 	 	 	 	 	 	 	 	 	 	 	 	 	 	 	1581500280	7.53	13.95
12/02/2020 09:38:01	120220	12022020	093801	186.77	12.674893	-57.158413	186.85	1.120	-1.210	1.520	186.69	-2.50	2.10	1014.80	26.10	26.20	20.60	20.70	-1.0	71.0	71.0	394.0	25.8	268.00	11.00	76.00	11.80	16	9396.0	27.4	27.4	1581500281	8.02	14.85
12/02/2020 09:38:02	120220	12022020	093802	186.40	12.674858	-57.158418	186.58	0.670	-0.920	2.070	186.40	-2.10	2.70	 	 	 	 	 	 	 	 	 	 	 	 	 	 	 	 	 	 	1581500282	7.79	14.43
12/02/2020 09:38:03	120220	12022020	093803	186.35	12.674825	-57.158427	186.53	-0.100	-0.170	2.400	186.35	-1.40	3.00	 	 	 	 	 	 	 	 	 	 	 	 	 	 	 	 	 	 	1581500283	7.04	13.04
12/02/2020 09:38:04	120220	12022020	093804	186.27	12.674795	-57.158435	186.46	-0.570	0.070	2.680	186.27	-1.30	3.30	 	 	 	 	 	 	 	 	 	 	 	 	 	 	 	 	 	 	1581500284	6.71	12.43
12/02/2020 09:38:05	120220	12022020	093805	186.05	12.674762	-57.158447	186.17	-0.440	-0.540	3.090	185.97	-1.90	3.70	 	 	 	 	 	 	 	 	 	 	 	 	 	 	 	 	 	 	1581500285	7.54	13.96
12/02/2020 09:38:06	120220	12022020	093806	185.81	12.674723	-57.158457	186.03	-0.120	-0.980	3.300	185.83	-2.20	3.80	 	 	 	 	 	 	 	 	 	 	 	 	 	 	 	 	 	 	1581500286	8.62	15.96
12/02/2020 09:38:07	120220	12022020	093807	186.14	12.674687	-57.158465	186.47	-0.160	-0.400	3.260	186.27	-1.50	3.80	 	 	 	 	 	 	 	 	 	 	 	 	 	 	 	 	 	 	1581500287	8.33	15.43
12/02/2020 09:38:08	120220	12022020	093808	186.87	12.674655	-57.158473	187.18	-0.570	0.630	3.070	186.99	-0.60	3.60	 	 	 	 	 	 	 	 	 	 	 	 	 	 	 	 	 	 	1581500288	7.00	12.96
12/02/2020 09:38:09	120220	12022020	093809	187.32	12.674625	-57.158482	187.50	-0.710	0.810	2.840	187.34	-0.60	3.30	 	 	 	 	 	 	 	 	 	 	 	 	 	 	 	 	 	 	1581500289	6.38	11.82
12/02/2020 09:38:10	120220	12022020	093810	187.20	12.674593	-57.158490	187.28	-0.180	-0.160	2.760	187.13	-1.60	3.30	 	 	 	 	 	 	 	 	 	 	 	 	 	 	 	 	 	 	1581500290	7.32	13.56
12/02/2020 09:38:11	120220	12022020	093811	186.78	12.674553	-57.158498	186.85	0.600	-1.090	2.760	186.70	-2.40	3.30	 	 	 	 	 	 	 	 	 	 	 	 	 	 	 	 	 	 	1581500291	8.58	15.89
12/02/2020 09:38:12	120220	12022020	093812	186.49	12.674515	-57.158505	186.63	0.950	-0.840	2.550	186.49	-2.00	3.00	 	 	 	 	 	 	 	 	 	 	 	 	 	 	 	 	 	 	1581500292	8.46	15.67
12/02/2020 09:38:13	120220	12022020	093813	186.61	12.674482	-57.158508	186.81	0.580	0.200	2.140	186.68	-1.00	2.60	 	 	 	 	 	 	 	 	 	 	 	 	 	 	 	 	 	 	1581500293	7.13	13.20
12/02/2020 09:38:14	120220	12022020	093814	187.10	12.674453	-57.158510	187.24	-0.140	0.840	1.940	187.10	-0.40	2.50	 	 	 	 	 	 	 	 	 	 	 	 	 	 	 	 	 	 	1581500294	6.28	11.63
12/02/2020 09:38:15	120220	12022020	093815	187.32	12.674422	-57.158515	187.49	-0.550	0.460	2.230	187.33	-1.00	2.80	 	 	 	 	 	 	 	 	 	 	 	 	 	 	 	 	 	 	1581500295	6.68	12.37
12/02/2020 09:38:16	120220	12022020	093816	187.22	12.674387	-57.158527	187.31	-0.280	-0.540	2.760	187.15	-2.00	3.40	 	 	 	 	 	 	 	 	 	 	 	 	 	 	 	 	 	 	1581500296	7.80	14.45
12/02/2020 09:38:17	120220	12022020	093817	186.84	12.674350	-57.158538	186.93	0.330	-1.200	3.150	186.77	-2.50	3.70	 	 	 	 	 	 	 	 	 	 	 	 	 	 	 	 	 	 	1581500297	8.47	15.69
12/02/2020 09:38:18	120220	12022020	093818	186.59	12.674315	-57.158550	186.73	0.650	-0.970	3.000	186.59	-2.20	3.50	 	 	 	 	 	 	 	 	 	 	 	 	 	 	 	 	 	 	1581500298	8.02	14.85
12/02/2020 09:38:19	120220	12022020	093819	186.65	12.674282	-57.158555	186.82	0.450	-0.270	2.410	186.68	-1.50	2.90	 	 	 	 	 	 	 	 	 	 	 	 	 	 	 	 	 	 	1581500299	7.02	13.00
12/02/2020 09:38:20	120220	12022020	093820	186.83	12.674252	-57.158558	186.96	0.020	0.060	1.910	186.83	-1.20	2.40	 	 	 	 	 	 	 	 	 	 	 	 	 	 	 	 	 	 	1581500300	6.59	12.20
12/02/2020 09:38:21	120220	12022020	093821	186.80	12.674218	-57.158562	186.88	-0.280	-0.270	1.970	186.76	-1.60	2.60	 	 	 	 	 	 	 	 	 	 	 	 	 	 	 	 	 	 	1581500301	7.08	13.11
12/02/2020 09:38:22	120220	12022020	093822	186.31	12.674183	-57.158570	186.45	-0.240	-0.930	2.530	186.31	-2.30	3.20	 	 	 	 	 	 	 	 	 	 	 	 	 	 	 	 	 	 	1581500302	7.91	14.65
12/02/2020 09:38:23	120220	12022020	093823	185.76	12.674145	-57.158580	185.78	0.010	-1.210	3.230	185.62	-2.50	3.80	 	 	 	 	 	 	 	 	 	 	 	 	 	 	 	 	 	 	1581500303	8.54	15.82
12/02/2020 09:38:24	120220	12022020	093824	185.21	12.674107	-57.158592	185.37	0.090	-0.490	3.550	185.19	-1.60	4.10	 	 	 	 	 	 	 	 	 	 	 	 	 	 	 	 	 	 	1581500304	8.33	15.43
12/02/2020 09:38:25	120220	12022020	093825	185.43	12.674075	-57.158598	185.74	-0.270	0.990	3.210	185.56	-0.10	3.70	 	 	 	 	 	 	 	 	 	 	 	 	 	 	 	 	 	 	1581500305	7.18	13.30
12/02/2020 09:38:26	120220	12022020	093826	186.18	12.674047	-57.158603	186.49	-0.790	1.950	2.610	186.31	0.70	3.10	 	 	 	 	 	 	 	 	 	 	 	 	 	 	 	 	 	 	1581500306	6.01	11.13
12/02/2020 09:38:27	120220	12022020	093827	186.64	12.674018	-57.158610	186.82	-0.730	1.160	2.280	186.65	-0.40	2.80	 	 	 	 	 	 	 	 	 	 	 	 	 	 	 	 	 	 	1581500307	6.28	11.63
12/02/2020 09:38:28	120220	12022020	093828	186.50	12.673982	-57.158617	186.61	0.120	-0.900	2.330	186.43	-2.50	2.90	 	 	 	 	 	 	 	 	 	 	 	 	 	 	 	 	 	 	1581500308	8.04	14.89
12/02/2020 09:38:29	120220	12022020	093829	186.12	12.673940	-57.158625	186.23	1.100	-2.310	2.420	186.04	-3.60	2.90	 	 	 	 	 	 	 	 	 	 	 	 	 	 	 	 	 	 	1581500309	9.30	17.22
12/02/2020 09:38:30	120220	12022020	093830	185.90	12.673900	-57.158632	186.10	1.420	-1.920	2.190	185.90	-3.00	2.70	 	 	 	 	 	 	 	 	 	 	 	 	 	 	 	 	 	 	1581500310	8.55	15.83
12/02/2020 09:38:31	120220	12022020	093831	186.12	12.673868	-57.158635	186.40	0.830	-0.290	1.740	186.22	-1.30	2.20	 	 	 	 	 	 	 	 	 	 	 	 	 	 	 	 	 	 	1581500311	6.77	12.54
12/02/2020 09:38:32	120220	12022020	093832	186.69	12.673843	-57.158635	187.00	-0.220	1.090	1.570	186.81	-0.10	2.20	 	 	 	 	 	 	 	 	 	 	 	 	 	 	 	 	 	 	1581500312	5.63	10.43
12/02/2020 09:38:33	120220	12022020	093833	187.10	12.673815	-57.158638	187.30	-0.980	1.070	1.990	187.11	-0.40	2.60	 	 	 	 	 	 	 	 	 	 	 	 	 	 	 	 	 	 	1581500313	5.93	10.98
12/02/2020 09:38:34	120220	12022020	093834	186.88	12.673782	-57.158648	186.97	-0.950	-0.320	2.740	186.77	-1.80	3.40	 	 	 	 	 	 	 	 	 	 	 	 	 	 	 	 	 	 	1581500314	7.52	13.93
12/02/2020 09:38:35	120220	12022020	093835	186.18	12.673742	-57.158662	186.22	-0.440	-1.620	3.630	186.02	-3.00	4.30	 	 	 	 	 	 	 	 	 	 	 	 	 	 	 	 	 	 	1581500315	9.10	16.85
12/02/2020 09:38:36	120220	12022020	093836	185.47	12.673702	-57.158677	185.56	0.010	-1.640	4.250	185.37	-2.80	4.80	 	 	 	 	 	 	 	 	 	 	 	 	 	 	 	 	 	 	1581500316	9.09	16.83
12/02/2020 09:38:37	120220	12022020	093837	185.12	12.673668	-57.158688	185.28	0.110	-0.580	4.110	185.09	-1.70	4.60	 	 	 	 	 	 	 	 	 	 	 	 	 	 	 	 	 	 	1581500317	7.73	14.32
12/02/2020 09:38:38	120220	12022020	093838	185.15	12.673638	-57.158695	185.37	-0.040	0.520	3.200	185.20	-0.70	3.60	 	 	 	 	 	 	 	 	 	 	 	 	 	 	 	 	 	 	1581500318	6.59	12.20
12/02/2020 09:38:39	120220	12022020	093839	185.42	12.673607	-57.158697	185.64	-0.220	0.970	2.110	185.48	-0.30	2.50	 	 	 	 	 	 	 	 	 	 	 	 	 	 	 	 	 	 	1581500319	6.55	12.13
12/02/2020 09:38:40	120220	12022020	093840	185.69	12.673575	-57.158698	185.89	-0.170	0.770	1.290	185.74	-0.60	1.80	 	 	 	 	 	 	 	 	 	 	 	 	 	 	 	 	 	 	1581500320	7.08	13.11
12/02/2020 09:38:41	120220	12022020	093841	185.90	12.673540	-57.158702	186.08	0.170	0.180	0.840	185.93	-1.20	1.40	 	 	 	 	 	 	 	 	 	 	 	 	 	 	 	 	 	 	1581500321	7.59	14.06
12/02/2020 09:38:42	120220	12022020	093842	186.01	12.673503	-57.158705	186.17	0.550	-0.370	0.850	186.02	-1.70	1.50	 	 	 	 	 	 	 	 	 	 	 	 	 	 	 	 	 	 	1581500322	7.82	14.48
12/02/2020 09:38:43	120220	12022020	093843	186.11	12.673468	-57.158710	186.32	0.700	-0.480	1.150	186.15	-1.70	1.80	 	 	 	 	 	 	 	 	 	 	 	 	 	 	 	 	 	 	1581500323	7.62	14.11
12/02/2020 09:38:44	120220	12022020	093844	186.40	12.673435	-57.158715	186.64	0.570	-0.210	1.410	186.46	-1.50	2.00	 	 	 	 	 	 	 	 	 	 	 	 	 	 	 	 	 	 	1581500324	7.05	13.06
12/02/2020 09:38:45	120220	12022020	093845	186.60	12.673405	-57.158720	186.78	0.310	-0.270	1.750	186.59	-1.60	2.40	 	 	 	 	 	 	 	 	 	 	 	 	 	 	 	 	 	 	1581500325	6.60	12.22
12/02/2020 09:38:46	120220	12022020	093846	186.35	12.673373	-57.158725	186.46	0.040	-0.960	2.590	186.26	-2.40	3.30	 	 	 	 	 	 	 	 	 	 	 	 	 	 	 	 	 	 	1581500326	7.05	13.06
12/02/2020 09:38:47	120220	12022020	093847	185.81	12.673337	-57.158735	185.91	-0.270	-1.640	3.730	185.70	-2.90	4.40	 	 	 	 	 	 	 	 	 	 	 	 	 	 	 	 	 	 	1581500327	7.99	14.80
12/02/2020 09:38:48	120220	12022020	093848	185.24	12.673302	-57.158750	185.34	-0.580	-1.560	4.640	185.12	-2.70	5.30	 	 	 	 	 	 	 	 	 	 	 	 	 	 	 	 	 	 	1581500328	8.33	15.43
12/02/2020 09:38:49	120220	12022020	093849	184.65	12.673268	-57.158763	184.76	-0.720	-0.770	5.100	184.54	-1.90	5.60	 	 	 	 	 	 	 	 	 	 	 	 	 	 	 	 	 	 	1581500329	7.83	14.50
12/02/2020 09:38:50	120220	12022020	093850	184.14	12.673235	-57.158777	184.34	-0.510	0.130	4.930	184.14	-1.10	5.40	 	 	 	 	 	 	 	 	 	 	 	 	 	 	 	 	 	 	1581500330	7.32	13.56
12/02/2020 09:38:51	120220	12022020	093851	184.05	12.673203	-57.158783	184.23	0.030	0.530	4.030	184.06	-0.80	4.40	 	 	 	 	 	 	 	 	 	 	 	 	 	 	 	 	 	 	1581500331	7.21	13.35
12/02/2020 09:38:52	120220	12022020	093852	184.08	12.673167	-57.158785	184.25	0.650	0.320	2.780	184.10	-1.00	3.20	 	 	 	 	 	 	 	 	 	 	 	 	 	 	 	 	 	 	1581500332	7.71	14.28
12/02/2020 09:38:53	120220	12022020	093853	184.31	12.673128	-57.158782	184.59	0.830	0.160	1.620	184.42	-1.10	2.00	 	 	 	 	 	 	 	 	 	 	 	 	 	 	 	 	 	 	1581500333	8.36	15.48
12/02/2020 09:38:54	120220	12022020	093854	185.08	12.673092	-57.158778	185.46	0.290	0.670	0.790	185.29	-0.50	1.30	 	 	 	 	 	 	 	 	 	 	 	 	 	 	 	 	 	 	1581500334	7.95	14.72
12/02/2020 09:38:55	120220	12022020	093855	186.14	12.673060	-57.158777	186.50	-0.620	1.140	0.660	186.32	-0.20	1.30	 	 	 	 	 	 	 	 	 	 	 	 	 	 	 	 	 	 	1581500335	6.63	12.28
12/02/2020 09:38:56	120220	12022020	093856	186.85	12.673032	-57.158783	187.05	-1.140	0.590	1.460	186.85	-0.90	2.20	 	 	 	 	 	 	 	 	 	 	 	 	 	 	 	 	 	 	1581500336	6.32	11.70
12/02/2020 09:38:57	120220	12022020	093857	186.80	12.673000	-57.158797	186.94	-0.800	-0.820	2.810	186.72	-2.30	3.60	 	 	 	 	 	 	 	 	 	 	 	 	 	 	 	 	 	 	1581500337	7.57	14.02
12/02/2020 09:38:58	120220	12022020	093858	186.20	12.672963	-57.158815	186.27	0.120	-1.960	4.100	186.04	-3.30	4.80	 	 	 	 	 	 	 	 	 	 	 	 	 	 	 	 	 	 	1581500338	8.65	16.02
12/02/2020 09:38:59	120220	12022020	093859	185.33	12.672927	-57.158830	185.41	1.020	-1.990	4.660	185.19	-3.20	5.20	 	 	 	 	 	 	 	 	 	 	 	 	 	 	 	 	 	 	1581500339	8.39	15.54
12/02/2020 09:39:00	120220	12022020	093900	184.79	12.672895	-57.158837	184.96	1.420	-0.990	4.030	184.75	-2.10	4.40	 	 	 	 	 	 	 	 	 	 	 	 	 	 	 	 	 	 	1581500340	7.24	13.41
12/02/2020 09:39:01	120220	12022020	093901	184.80	12.672865	-57.158835	185.02	1.240	0.050	2.560	184.85	-1.10	2.90	1014.90	26.10	26.20	20.50	20.60	-1.0	71.0	71.0	394.0	25.8	267.00	11.10	74.00	12.00	16	10137.0	27.4	27.4	1581500341	6.51	12.06
12/02/2020 09:39:02	120220	12022020	093902	185.13	12.672833	-57.158827	185.27	0.600	0.300	1.290	185.13	-1.00	1.80	 	 	 	 	 	 	 	 	 	 	 	 	 	 	 	 	 	 	1581500342	6.91	12.80
12/02/2020 09:39:03	120220	12022020	093903	185.26	12.672798	-57.158822	185.42	-0.290	-0.130	0.920	185.27	-1.50	1.50	 	 	 	 	 	 	 	 	 	 	 	 	 	 	 	 	 	 	1581500343	7.66	14.19
12/02/2020 09:39:04	120220	12022020	093904	185.26	12.672760	-57.158825	185.42	-1.180	-0.490	1.320	185.26	-1.80	2.00	 	 	 	 	 	 	 	 	 	 	 	 	 	 	 	 	 	 	1581500344	8.07	14.95
12/02/2020 09:39:05	120220	12022020	093905	185.24	12.672725	-57.158838	185.43	-1.720	-0.380	2.060	185.24	-1.60	2.70	 	 	 	 	 	 	 	 	 	 	 	 	 	 	 	 	 	 	1581500345	8.12	15.04
12/02/2020 09:39:06	120220	12022020	093906	185.19	12.672692	-57.158855	185.40	-1.570	-0.020	2.790	185.19	-1.30	3.40	 	 	 	 	 	 	 	 	 	 	 	 	 	 	 	 	 	 	1581500346	7.95	14.72
12/02/2020 09:39:07	120220	12022020	093907	185.02	12.672660	-57.158872	185.18	-0.670	0.130	3.150	184.96	-1.20	3.70	 	 	 	 	 	 	 	 	 	 	 	 	 	 	 	 	 	 	1581500347	7.69	14.24
12/02/2020 09:39:08	120220	12022020	093908	184.70	12.672625	-57.158880	184.91	0.410	0.030	2.930	184.70	-1.30	3.40	 	 	 	 	 	 	 	 	 	 	 	 	 	 	 	 	 	 	1581500348	7.66	14.19
12/02/2020 09:39:09	120220	12022020	093909	184.80	12.672588	-57.158883	185.08	0.930	0.140	2.220	184.87	-1.10	2.70	 	 	 	 	 	 	 	 	 	 	 	 	 	 	 	 	 	 	1581500349	7.79	14.43
12/02/2020 09:39:10	120220	12022020	093910	185.38	12.672555	-57.158883	185.73	0.750	0.520	1.460	185.53	-0.70	1.90	 	 	 	 	 	 	 	 	 	 	 	 	 	 	 	 	 	 	1581500350	7.31	13.54
12/02/2020 09:39:11	120220	12022020	093911	186.15	12.672525	-57.158882	186.45	0.410	0.630	0.920	186.27	-0.70	1.50	 	 	 	 	 	 	 	 	 	 	 	 	 	 	 	 	 	 	1581500351	6.62	12.26
12/02/2020 09:39:12	120220	12022020	093912	186.48	12.672493	-57.158883	186.66	0.430	-0.210	1.000	186.48	-1.70	1.60	 	 	 	 	 	 	 	 	 	 	 	 	 	 	 	 	 	 	1581500352	6.68	12.37
12/02/2020 09:39:13	120220	12022020	093913	186.14	12.672458	-57.158888	186.21	0.700	-1.600	1.790	186.01	-3.00	2.50	 	 	 	 	 	 	 	 	 	 	 	 	 	 	 	 	 	 	1581500353	7.70	14.26
12/02/2020 09:39:14	120220	12022020	093914	185.35	12.672418	-57.158895	185.56	0.660	-2.260	2.880	185.35	-3.50	3.60	 	 	 	 	 	 	 	 	 	 	 	 	 	 	 	 	 	 	1581500354	8.49	15.72
12/02/2020 09:39:15	120220	12022020	093915	184.96	12.672383	-57.158905	185.10	0.000	-1.530	3.850	184.89	-2.60	4.50	 	 	 	 	 	 	 	 	 	 	 	 	 	 	 	 	 	 	1581500355	7.95	14.72
12/02/2020 09:39:16	120220	12022020	093916	184.67	12.672353	-57.158917	184.84	-0.960	-0.200	4.460	184.64	-1.30	5.00	 	 	 	 	 	 	 	 	 	 	 	 	 	 	 	 	 	 	1581500356	6.95	12.87
12/02/2020 09:39:17	120220	12022020	093917	184.63	12.672323	-57.158930	184.86	-1.540	0.710	4.490	184.67	-0.50	5.00	 	 	 	 	 	 	 	 	 	 	 	 	 	 	 	 	 	 	1581500357	6.88	12.74
12/02/2020 09:39:18	120220	12022020	093918	184.94	12.672292	-57.158943	185.20	-1.250	1.040	3.790	185.04	-0.20	4.20	 	 	 	 	 	 	 	 	 	 	 	 	 	 	 	 	 	 	1581500358	7.43	13.76
12/02/2020 09:39:19	120220	12022020	093919	185.55	12.672257	-57.158952	185.85	-0.170	0.940	2.270	185.71	-0.40	2.50	 	 	 	 	 	 	 	 	 	 	 	 	 	 	 	 	 	 	1581500359	7.68	14.22
12/02/2020 09:39:20	120220	12022020	093920	186.53	12.672222	-57.158953	186.64	0.980	0.460	0.380	186.53	-0.90	0.70	 	 	 	 	 	 	 	 	 	 	 	 	 	 	 	 	 	 	1581500360	7.75	14.35
12/02/2020 09:39:21	120220	12022020	093921	187.09	12.672185	-57.158947	187.27	1.410	-0.180	-0.890	187.18	-1.60	-0.40	 	 	 	 	 	 	 	 	 	 	 	 	 	 	 	 	 	 	1581500361	8.05	14.91
12/02/2020 09:39:22	120220	12022020	093922	187.30	12.672148	-57.158942	187.37	0.910	-0.810	-0.920	187.26	-2.20	-0.30	 	 	 	 	 	 	 	 	 	 	 	 	 	 	 	 	 	 	1581500362	7.83	14.50
12/02/2020 09:39:23	120220	12022020	093923	186.83	12.672113	-57.158943	186.82	0.010	-1.280	0.250	186.69	-2.60	1.00	 	 	 	 	 	 	 	 	 	 	 	 	 	 	 	 	 	 	1581500363	7.36	13.63
12/02/2020 09:39:24	120220	12022020	093924	186.03	12.672082	-57.158955	186.07	-0.630	-1.310	1.910	185.89	-2.50	2.70	 	 	 	 	 	 	 	 	 	 	 	 	 	 	 	 	 	 	1581500364	7.54	13.96
12/02/2020 09:39:25	120220	12022020	093925	185.43	12.672048	-57.158972	185.56	-0.700	-0.860	3.160	185.35	-2.00	3.80	 	 	 	 	 	 	 	 	 	 	 	 	 	 	 	 	 	 	1581500365	7.73	14.32
12/02/2020 09:39:26	120220	12022020	093926	185.23	12.672018	-57.158987	185.44	-0.420	-0.190	3.650	185.23	-1.40	4.20	 	 	 	 	 	 	 	 	 	 	 	 	 	 	 	 	 	 	1581500366	7.48	13.85
12/02/2020 09:39:27	120220	12022020	093927	185.39	12.671987	-57.158998	185.66	-0.140	0.310	3.390	185.46	-0.90	3.80	 	 	 	 	 	 	 	 	 	 	 	 	 	 	 	 	 	 	1581500367	7.15	13.24
12/02/2020 09:39:28	120220	12022020	093928	185.80	12.671953	-57.159003	185.99	-0.030	0.370	2.740	185.80	-0.90	3.20	 	 	 	 	 	 	 	 	 	 	 	 	 	 	 	 	 	 	1581500368	7.13	13.20
12/02/2020 09:39:29	120220	12022020	093929	185.91	12.671920	-57.159008	186.10	0.010	-0.010	2.260	185.91	-1.40	2.80	 	 	 	 	 	 	 	 	 	 	 	 	 	 	 	 	 	 	1581500369	7.47	13.83
12/02/2020 09:39:30	120220	12022020	093930	185.99	12.671883	-57.159012	186.19	0.040	-0.290	1.900	185.99	-1.60	2.40	 	 	 	 	 	 	 	 	 	 	 	 	 	 	 	 	 	 	1581500370	7.84	14.52
12/02/2020 09:39:31	120220	12022020	093931	186.24	12.671848	-57.159017	186.48	0.010	-0.010	1.500	186.31	-1.20	2.00	 	 	 	 	 	 	 	 	 	 	 	 	 	 	 	 	 	 	1581500371	7.52	13.93
12/02/2020 09:39:32	120220	12022020	093932	186.46	12.671817	-57.159022	186.62	0.080	0.270	1.230	186.45	-1.00	1.80	 	 	 	 	 	 	 	 	 	 	 	 	 	 	 	 	 	 	1581500372	6.73	12.46
12/02/2020 09:39:33	120220	12022020	093933	186.29	12.671787	-57.159025	186.38	0.410	-0.020	1.300	186.22	-1.40	1.90	 	 	 	 	 	 	 	 	 	 	 	 	 	 	 	 	 	 	1581500373	6.75	12.50
12/02/2020 09:39:34	120220	12022020	093934	185.96	12.671752	-57.159030	186.06	0.750	-0.440	1.570	185.91	-1.80	2.20	 	 	 	 	 	 	 	 	 	 	 	 	 	 	 	 	 	 	1581500374	7.44	13.78
12/02/2020 09:39:35	120220	12022020	093935	185.81	12.671717	-57.159033	186.01	0.740	-0.450	2.000	185.82	-1.70	2.60	 	 	 	 	 	 	 	 	 	 	 	 	 	 	 	 	 	 	1581500375	7.54	13.96
12/02/2020 09:39:36	120220	12022020	093936	185.96	12.671685	-57.159038	186.19	0.260	-0.300	2.530	185.99	-1.60	3.20	 	 	 	 	 	 	 	 	 	 	 	 	 	 	 	 	 	 	1581500376	7.07	13.09
12/02/2020 09:39:37	120220	12022020	093937	186.02	12.671653	-57.159048	186.20	-0.270	-0.580	3.270	185.99	-1.90	3.90	 	 	 	 	 	 	 	 	 	 	 	 	 	 	 	 	 	 	1581500377	7.01	12.98
12/02/2020 09:39:38	120220	12022020	093938	185.64	12.671620	-57.159060	185.86	-0.380	-1.140	3.940	185.64	-2.40	4.50	 	 	 	 	 	 	 	 	 	 	 	 	 	 	 	 	 	 	1581500378	7.79	14.43
12/02/2020 09:39:39	120220	12022020	093939	185.44	12.671583	-57.159073	185.65	-0.270	-0.960	4.010	185.44	-2.10	4.50	 	 	 	 	 	 	 	 	 	 	 	 	 	 	 	 	 	 	1581500379	8.18	15.15
12/02/2020 09:39:40	120220	12022020	093940	185.58	12.671550	-57.159082	185.84	-0.300	-0.080	3.250	185.66	-1.20	3.70	 	 	 	 	 	 	 	 	 	 	 	 	 	 	 	 	 	 	1581500380	7.24	13.41
12/02/2020 09:39:41	120220	12022020	093941	186.02	12.671520	-57.159085	186.26	-0.450	0.410	2.110	186.10	-0.90	2.50	 	 	 	 	 	 	 	 	 	 	 	 	 	 	 	 	 	 	1581500381	6.49	12.02
12/02/2020 09:39:42	120220	12022020	093942	186.32	12.671488	-57.159087	186.48	-0.380	0.030	1.300	186.33	-1.30	1.80	 	 	 	 	 	 	 	 	 	 	 	 	 	 	 	 	 	 	1581500382	6.97	12.91
12/02/2020 09:39:43	120220	12022020	093943	186.20	12.671452	-57.159090	186.30	0.060	-0.600	1.190	186.14	-1.90	1.80	 	 	 	 	 	 	 	 	 	 	 	 	 	 	 	 	 	 	1581500383	7.94	14.70
12/02/2020 09:39:44	120220	12022020	093944	185.93	12.671413	-57.159093	186.05	0.540	-0.590	1.370	185.90	-1.80	2.00	 	 	 	 	 	 	 	 	 	 	 	 	 	 	 	 	 	 	1581500384	8.21	15.20
12/02/2020 09:39:45	120220	12022020	093945	185.90	12.671378	-57.159097	186.07	0.600	0.050	1.650	185.91	-1.10	2.30	 	 	 	 	 	 	 	 	 	 	 	 	 	 	 	 	 	 	1581500385	7.52	13.93
12/02/2020 09:39:46	120220	12022020	093946	185.93	12.671347	-57.159100	186.09	0.210	0.480	2.180	185.92	-0.80	2.90	 	 	 	 	 	 	 	 	 	 	 	 	 	 	 	 	 	 	1581500386	6.84	12.67
12/02/2020 09:39:47	120220	12022020	093947	185.81	12.671315	-57.159107	185.98	-0.300	0.320	2.830	185.79	-1.00	3.50	 	 	 	 	 	 	 	 	 	 	 	 	 	 	 	 	 	 	1581500387	7.09	13.13
12/02/2020 09:39:48	120220	12022020	093948	185.76	12.671282	-57.159118	185.99	-0.580	0.080	3.300	185.79	-1.20	3.90	 	 	 	 	 	 	 	 	 	 	 	 	 	 	 	 	 	 	1581500388	7.71	14.28
12/02/2020 09:39:49	120220	12022020	093949	185.92	12.671248	-57.159132	186.16	-0.420	0.120	3.260	185.95	-1.10	3.80	 	 	 	 	 	 	 	 	 	 	 	 	 	 	 	 	 	 	1581500389	7.61	14.09
12/02/2020 09:39:50	120220	12022020	093950	185.98	12.671217	-57.159142	186.14	0.120	-0.080	2.890	185.96	-1.40	3.40	 	 	 	 	 	 	 	 	 	 	 	 	 	 	 	 	 	 	1581500390	7.00	12.96
12/02/2020 09:39:51	120220	12022020	093951	185.90	12.671183	-57.159147	186.07	0.680	-0.710	2.290	185.91	-2.10	2.80	 	 	 	 	 	 	 	 	 	 	 	 	 	 	 	 	 	 	1581500391	7.21	13.35
12/02/2020 09:39:52	120220	12022020	093952	186.25	12.671148	-57.159148	186.42	0.690	-1.150	1.840	186.25	-2.40	2.40	 	 	 	 	 	 	 	 	 	 	 	 	 	 	 	 	 	 	1581500392	7.73	14.32
12/02/2020 09:39:53	120220	12022020	093953	186.60	12.671113	-57.159152	186.84	0.090	-1.120	1.950	186.66	-2.40	2.60	 	 	 	 	 	 	 	 	 	 	 	 	 	 	 	 	 	 	1581500393	7.42	13.74
12/02/2020 09:39:54	120220	12022020	093954	186.63	12.671082	-57.159160	186.82	-0.460	-0.990	2.440	186.63	-2.30	3.10	 	 	 	 	 	 	 	 	 	 	 	 	 	 	 	 	 	 	1581500394	7.05	13.06
12/02/2020 09:39:55	120220	12022020	093955	186.16	12.671048	-57.159172	186.21	-0.350	-0.980	3.170	186.01	-2.20	3.80	 	 	 	 	 	 	 	 	 	 	 	 	 	 	 	 	 	 	1581500395	7.44	13.78
12/02/2020 09:39:56	120220	12022020	093956	185.31	12.671013	-57.159183	185.52	0.240	-0.670	3.640	185.31	-1.80	4.20	 	 	 	 	 	 	 	 	 	 	 	 	 	 	 	 	 	 	1581500396	7.98	14.78
12/02/2020 09:39:57	120220	12022020	093957	185.18	12.670978	-57.159190	185.42	0.590	0.260	3.350	185.23	-0.80	3.80	 	 	 	 	 	 	 	 	 	 	 	 	 	 	 	 	 	 	1581500397	7.77	14.39
12/02/2020 09:39:58	120220	12022020	093958	185.79	12.670947	-57.159192	186.19	0.230	1.440	2.460	186.01	0.30	2.90	 	 	 	 	 	 	 	 	 	 	 	 	 	 	 	 	 	 	1581500398	6.99	12.95
12/02/2020 09:39:59	120220	12022020	093959	186.98	12.670917	-57.159192	187.38	-0.600	1.850	1.590	187.22	0.50	2.10	 	 	 	 	 	 	 	 	 	 	 	 	 	 	 	 	 	 	1581500399	6.36	11.78
12/02/2020 09:40:00	120220	12022020	094000	187.96	12.670885	-57.159193	188.14	-1.130	0.750	1.610	187.96	-0.80	2.30	 	 	 	 	 	 	 	 	 	 	 	 	 	 	 	 	 	 	1581500400	6.67	12.35
12/02/2020 09:40:01	120220	12022020	094001	187.77	12.670850	-57.159205	187.78	-0.780	-1.340	2.710	187.61	-2.90	3.50	1015.00	26.10	26.20	20.50	20.60	-1.0	71.0	71.0	394.0	25.8	266.00	10.40	72.00	11.30	16	10201.0	27.5	27.5	1581500401	8.08	14.96
12/02/2020 09:40:02	120220	12022020	094002	186.37	12.670810	-57.159222	186.54	0.210	-2.820	4.120	186.37	-4.10	4.80	 	 	 	 	 	 	 	 	 	 	 	 	 	 	 	 	 	 	1581500402	9.35	17.32
12/02/2020 09:40:03	120220	12022020	094003	185.41	12.670772	-57.159238	185.46	0.860	-2.320	4.830	185.25	-3.40	5.40	 	 	 	 	 	 	 	 	 	 	 	 	 	 	 	 	 	 	1581500403	8.89	16.46
12/02/2020 09:40:04	120220	12022020	094004	185.03	12.670740	-57.159247	185.20	0.630	-0.320	4.400	185.03	-1.30	4.80	 	 	 	 	 	 	 	 	 	 	 	 	 	 	 	 	 	 	1581500404	6.89	12.76
12/02/2020 09:40:05	120220	12022020	094005	185.36	12.670715	-57.159250	185.57	-0.040	1.340	3.070	185.46	0.20	3.40	 	 	 	 	 	 	 	 	 	 	 	 	 	 	 	 	 	 	1581500405	5.39	9.98
12/02/2020 09:40:06	120220	12022020	094006	185.90	12.670688	-57.159250	186.00	-0.380	1.350	1.680	185.90	-0.00	2.10	 	 	 	 	 	 	 	 	 	 	 	 	 	 	 	 	 	 	1581500406	5.86	10.85
12/02/2020 09:40:07	120220	12022020	094007	186.15	12.670653	-57.159252	186.29	-0.140	0.220	0.700	186.20	-1.20	1.20	 	 	 	 	 	 	 	 	 	 	 	 	 	 	 	 	 	 	1581500407	7.55	13.98
12/02/2020 09:40:08	120220	12022020	094008	186.38	12.670613	-57.159253	186.47	0.290	-0.800	0.230	186.38	-2.20	0.80	 	 	 	 	 	 	 	 	 	 	 	 	 	 	 	 	 	 	1581500408	8.54	15.82
12/02/2020 09:40:09	120220	12022020	094009	186.52	12.670575	-57.159257	186.66	0.400	-0.970	0.310	186.56	-2.20	1.00	 	 	 	 	 	 	 	 	 	 	 	 	 	 	 	 	 	 	1581500409	8.23	15.24
12/02/2020 09:40:10	120220	12022020	094010	186.76	12.670542	-57.159263	186.87	0.080	-0.430	0.870	186.76	-1.60	1.60	 	 	 	 	 	 	 	 	 	 	 	 	 	 	 	 	 	 	1581500410	7.27	13.46
12/02/2020 09:40:11	120220	12022020	094011	186.92	12.670512	-57.159270	187.05	-0.390	0.130	1.720	186.94	-1.10	2.40	 	 	 	 	 	 	 	 	 	 	 	 	 	 	 	 	 	 	1581500411	6.60	12.22
12/02/2020 09:40:12	120220	12022020	094012	186.96	12.670483	-57.159280	187.04	-0.610	0.160	2.560	186.93	-1.20	3.20	 	 	 	 	 	 	 	 	 	 	 	 	 	 	 	 	 	 	1581500412	6.71	12.43
12/02/2020 09:40:13	120220	12022020	094013	186.72	12.670450	-57.159292	186.78	-0.380	-0.450	3.170	186.65	-1.80	3.80	 	 	 	 	 	 	 	 	 	 	 	 	 	 	 	 	 	 	1581500413	7.39	13.69
12/02/2020 09:40:14	120220	12022020	094014	186.18	12.670413	-57.159303	186.31	0.070	-1.130	3.610	186.18	-2.50	4.20	 	 	 	 	 	 	 	 	 	 	 	 	 	 	 	 	 	 	1581500414	8.06	14.93
12/02/2020 09:40:15	120220	12022020	094015	185.62	12.670377	-57.159312	185.62	0.420	-1.330	3.870	185.46	-2.60	4.40	 	 	 	 	 	 	 	 	 	 	 	 	 	 	 	 	 	 	1581500415	8.20	15.19
12/02/2020 09:40:16	120220	12022020	094016	184.93	12.670342	-57.159318	184.99	0.420	-0.720	3.700	184.85	-1.80	4.20	 	 	 	 	 	 	 	 	 	 	 	 	 	 	 	 	 	 	1581500416	7.84	14.52
12/02/2020 09:40:17	120220	12022020	094017	184.81	12.670308	-57.159323	184.98	-0.000	0.550	3.050	184.87	-0.60	3.50	 	 	 	 	 	 	 	 	 	 	 	 	 	 	 	 	 	 	1581500417	7.08	13.11
12/02/2020 09:40:18	120220	12022020	094018	185.41	12.670280	-57.159327	185.53	-0.530	1.450	2.320	185.41	0.20	2.80	 	 	 	 	 	 	 	 	 	 	 	 	 	 	 	 	 	 	1581500418	6.27	11.61
12/02/2020 09:40:19	120220	12022020	094019	185.88	12.670250	-57.159330	186.09	-0.620	1.140	1.720	185.97	-0.30	2.20	 	 	 	 	 	 	 	 	 	 	 	 	 	 	 	 	 	 	1581500419	6.49	12.02
12/02/2020 09:40:20	120220	12022020	094020	186.31	12.670215	-57.159335	186.45	-0.170	-0.110	1.320	186.31	-1.60	1.90	 	 	 	 	 	 	 	 	 	 	 	 	 	 	 	 	 	 	1581500420	7.62	14.11
12/02/2020 09:40:21	120220	12022020	094021	186.44	12.670175	-57.159338	186.60	0.340	-1.180	1.270	186.45	-2.50	1.90	 	 	 	 	 	 	 	 	 	 	 	 	 	 	 	 	 	 	1581500421	8.44	15.63
12/02/2020 09:40:22	120220	12022020	094022	186.49	12.670138	-57.159345	186.65	0.530	-1.330	1.420	186.49	-2.60	2.00	 	 	 	 	 	 	 	 	 	 	 	 	 	 	 	 	 	 	1581500422	8.12	15.04
12/02/2020 09:40:23	120220	12022020	094023	186.51	12.670105	-57.159352	186.64	0.430	-0.700	1.570	186.50	-1.90	2.20	 	 	 	 	 	 	 	 	 	 	 	 	 	 	 	 	 	 	1581500423	7.15	13.24
12/02/2020 09:40:24	120220	12022020	094024	186.43	12.670077	-57.159357	186.58	0.260	-0.160	1.800	186.43	-1.40	2.40	 	 	 	 	 	 	 	 	 	 	 	 	 	 	 	 	 	 	1581500424	6.45	11.95
12/02/2020 09:40:25	120220	12022020	094025	186.29	12.670045	-57.159362	186.38	0.110	-0.230	2.190	186.24	-1.60	2.80	 	 	 	 	 	 	 	 	 	 	 	 	 	 	 	 	 	 	1581500425	6.80	12.59
12/02/2020 09:40:26	120220	12022020	094026	185.86	12.670010	-57.159368	185.99	-0.020	-0.630	2.660	185.86	-1.90	3.30	 	 	 	 	 	 	 	 	 	 	 	 	 	 	 	 	 	 	1581500426	7.64	14.15
12/02/2020 09:40:27	120220	12022020	094027	185.52	12.669973	-57.159377	185.61	-0.180	-0.640	2.980	185.46	-1.90	3.60	 	 	 	 	 	 	 	 	 	 	 	 	 	 	 	 	 	 	1581500427	8.12	15.04
12/02/2020 09:40:28	120220	12022020	094028	185.40	12.669938	-57.159387	185.57	-0.330	0.100	2.930	185.40	-1.10	3.50	 	 	 	 	 	 	 	 	 	 	 	 	 	 	 	 	 	 	1581500428	7.73	14.32
12/02/2020 09:40:29	120220	12022020	094029	185.54	12.669907	-57.159393	185.77	-0.380	0.790	2.660	185.59	-0.50	3.20	 	 	 	 	 	 	 	 	 	 	 	 	 	 	 	 	 	 	1581500429	6.78	12.56
12/02/2020 09:40:30	120220	12022020	094030	185.91	12.669877	-57.159397	186.08	-0.340	0.620	2.250	185.91	-0.80	2.80	 	 	 	 	 	 	 	 	 	 	 	 	 	 	 	 	 	 	1581500430	6.83	12.65
12/02/2020 09:40:31	120220	12022020	094031	186.13	12.669840	-57.159402	186.34	-0.210	-0.250	2.040	186.16	-1.70	2.60	 	 	 	 	 	 	 	 	 	 	 	 	 	 	 	 	 	 	1581500431	7.63	14.13
12/02/2020 09:40:32	120220	12022020	094032	186.23	12.669803	-57.159410	186.40	0.070	-0.970	2.050	186.23	-2.30	2.60	 	 	 	 	 	 	 	 	 	 	 	 	 	 	 	 	 	 	1581500432	8.19	15.17
12/02/2020 09:40:33	120220	12022020	094033	186.15	12.669767	-57.159417	186.28	0.400	-1.060	2.070	186.12	-2.30	2.70	 	 	 	 	 	 	 	 	 	 	 	 	 	 	 	 	 	 	1581500433	7.92	14.67
12/02/2020 09:40:34	120220	12022020	094034	185.78	12.669733	-57.159422	185.94	0.530	-0.720	2.300	185.78	-2.00	2.90	 	 	 	 	 	 	 	 	 	 	 	 	 	 	 	 	 	 	1581500434	7.31	13.54
12/02/2020 09:40:35	120220	12022020	094035	185.39	12.669700	-57.159427	185.47	0.370	-0.370	2.690	185.30	-1.60	3.30	 	 	 	 	 	 	 	 	 	 	 	 	 	 	 	 	 	 	1581500435	7.10	13.15
12/02/2020 09:40:36	120220	12022020	094036	185.11	12.669667	-57.159433	185.29	-0.000	0.060	2.830	185.12	-1.10	3.40	 	 	 	 	 	 	 	 	 	 	 	 	 	 	 	 	 	 	1581500436	7.34	13.59
12/02/2020 09:40:37	120220	12022020	094037	185.37	12.669635	-57.159440	185.67	-0.440	0.660	2.630	185.49	-0.60	3.10	 	 	 	 	 	 	 	 	 	 	 	 	 	 	 	 	 	 	1581500437	7.26	13.45
12/02/2020 09:40:38	120220	12022020	094038	186.10	12.669603	-57.159447	186.41	-0.700	1.000	2.180	186.25	-0.30	2.70	 	 	 	 	 	 	 	 	 	 	 	 	 	 	 	 	 	 	1581500438	6.89	12.76
12/02/2020 09:40:39	120220	12022020	094039	186.79	12.669572	-57.159453	187.02	-0.450	0.590	1.730	186.87	-0.80	2.30	 	 	 	 	 	 	 	 	 	 	 	 	 	 	 	 	 	 	1581500439	6.92	12.82
12/02/2020 09:40:40	120220	12022020	094040	186.97	12.669537	-57.159460	187.08	0.300	-0.500	1.500	186.94	-2.00	2.10	 	 	 	 	 	 	 	 	 	 	 	 	 	 	 	 	 	 	1581500440	7.52	13.93
12/02/2020 09:40:41	120220	12022020	094041	186.74	12.669500	-57.159465	186.81	0.980	-1.500	1.630	186.68	-2.90	2.30	 	 	 	 	 	 	 	 	 	 	 	 	 	 	 	 	 	 	1581500441	8.23	15.24
12/02/2020 09:40:42	120220	12022020	094042	186.31	12.669462	-57.159468	186.46	0.990	-1.680	2.160	186.31	-2.90	2.80	 	 	 	 	 	 	 	 	 	 	 	 	 	 	 	 	 	 	1581500442	8.12	15.04
12/02/2020 09:40:43	120220	12022020	094043	185.95	12.669428	-57.159473	186.02	0.370	-1.220	2.880	185.85	-2.40	3.50	 	 	 	 	 	 	 	 	 	 	 	 	 	 	 	 	 	 	1581500443	7.43	13.76
12/02/2020 09:40:44	120220	12022020	094044	185.49	12.669395	-57.159483	185.62	-0.390	-0.570	3.480	185.43	-1.70	4.10	 	 	 	 	 	 	 	 	 	 	 	 	 	 	 	 	 	 	1581500444	7.19	13.32
12/02/2020 09:40:45	120220	12022020	094045	185.39	12.669362	-57.159493	185.63	-0.910	0.200	3.640	185.43	-1.00	4.20	 	 	 	 	 	 	 	 	 	 	 	 	 	 	 	 	 	 	1581500445	7.40	13.70
12/02/2020 09:40:46	120220	12022020	094046	185.85	12.669330	-57.159503	186.02	-1.040	0.880	3.270	185.85	-0.30	3.70	 	 	 	 	 	 	 	 	 	 	 	 	 	 	 	 	 	 	1581500446	7.33	13.58
12/02/2020 09:40:47	120220	12022020	094047	186.31	12.669297	-57.159512	186.57	-0.760	1.010	2.530	186.42	-0.30	3.00	 	 	 	 	 	 	 	 	 	 	 	 	 	 	 	 	 	 	1581500447	7.24	13.41
12/02/2020 09:40:48	120220	12022020	094048	186.75	12.669262	-57.159518	186.91	-0.140	0.510	1.740	186.79	-0.90	2.20	 	 	 	 	 	 	 	 	 	 	 	 	 	 	 	 	 	 	1581500448	7.56	14.00
12/02/2020 09:40:49	120220	12022020	094049	186.80	12.669225	-57.159522	186.88	0.540	-0.190	1.300	186.79	-1.50	1.80	 	 	 	 	 	 	 	 	 	 	 	 	 	 	 	 	 	 	1581500449	8.00	14.82
12/02/2020 09:40:50	120220	12022020	094050	186.79	12.669188	-57.159523	186.90	0.860	-0.500	1.200	186.80	-1.80	1.80	 	 	 	 	 	 	 	 	 	 	 	 	 	 	 	 	 	 	1581500450	8.03	14.87
12/02/2020 09:40:51	120220	12022020	094051	186.87	12.669153	-57.159527	186.96	0.660	-0.400	1.380	186.87	-1.70	2.00	 	 	 	 	 	 	 	 	 	 	 	 	 	 	 	 	 	 	1581500451	7.37	13.65
12/02/2020 09:40:52	120220	12022020	094052	186.61	12.669123	-57.159530	186.71	0.270	-0.470	1.890	186.61	-1.80	2.60	 	 	 	 	 	 	 	 	 	 	 	 	 	 	 	 	 	 	1581500452	6.84	12.67
12/02/2020 09:40:53	120220	12022020	094053	186.14	12.669090	-57.159538	186.14	0.010	-0.870	2.730	186.01	-2.20	3.40	 	 	 	 	 	 	 	 	 	 	 	 	 	 	 	 	 	 	1581500453	7.24	13.41
12/02/2020 09:40:54	120220	12022020	094054	185.54	12.669055	-57.159548	185.59	-0.130	-1.070	3.580	185.44	-2.30	4.20	 	 	 	 	 	 	 	 	 	 	 	 	 	 	 	 	 	 	1581500454	7.93	14.69
12/02/2020 09:40:55	120220	12022020	094055	185.23	12.669020	-57.159562	185.39	-0.210	-0.630	3.940	185.23	-1.80	4.50	 	 	 	 	 	 	 	 	 	 	 	 	 	 	 	 	 	 	1581500455	8.01	14.83
12/02/2020 09:40:56	120220	12022020	094056	185.55	12.668987	-57.159573	185.70	-0.250	0.150	3.540	185.55	-1.00	4.00	 	 	 	 	 	 	 	 	 	 	 	 	 	 	 	 	 	 	1581500456	7.34	13.59
12/02/2020 09:40:57	120220	12022020	094057	185.97	12.668957	-57.159580	186.19	-0.230	0.370	2.760	186.07	-1.00	3.20	 	 	 	 	 	 	 	 	 	 	 	 	 	 	 	 	 	 	1581500457	6.83	12.65
12/02/2020 09:40:58	120220	12022020	094058	186.33	12.668922	-57.159583	186.49	-0.140	-0.200	2.120	186.37	-1.60	2.60	 	 	 	 	 	 	 	 	 	 	 	 	 	 	 	 	 	 	1581500458	7.42	13.74
12/02/2020 09:40:59	120220	12022020	094059	186.49	12.668883	-57.159587	186.66	-0.070	-0.770	1.680	186.53	-2.10	2.20	 	 	 	 	 	 	 	 	 	 	 	 	 	 	 	 	 	 	1581500459	8.23	15.24
12/02/2020 09:41:00	120220	12022020	094100	186.66	12.668847	-57.159592	186.82	-0.130	-0.590	1.500	186.69	-1.80	2.10	 	 	 	 	 	 	 	 	 	 	 	 	 	 	 	 	 	 	1581500460	8.12	15.04
12/02/2020 09:41:01	120220	12022020	094101	186.76	12.668813	-57.159597	186.88	-0.190	0.120	1.570	186.76	-1.10	2.20	1015.00	26.20	26.20	20.80	20.80	-1.0	72.0	72.0	395.0	25.8	273.00	10.50	79.00	10.90	16	9584.0	27.5	27.5	1581500461	7.22	13.37
12/02/2020 09:41:02	120220	12022020	094102	186.68	12.668782	-57.159602	186.78	-0.050	0.550	1.710	186.65	-0.70	2.30	 	 	 	 	 	 	 	 	 	 	 	 	 	 	 	 	 	 	1581500462	6.69	12.39
12/02/2020 09:41:03	120220	12022020	094103	186.50	12.668750	-57.159607	186.56	0.240	0.220	1.920	186.45	-1.10	2.60	 	 	 	 	 	 	 	 	 	 	 	 	 	 	 	 	 	 	1581500463	7.08	13.11
12/02/2020 09:41:04	120220	12022020	094104	186.12	12.668713	-57.159612	186.15	0.490	-0.580	2.500	186.02	-2.00	3.20	 	 	 	 	 	 	 	 	 	 	 	 	 	 	 	 	 	 	1581500464	7.88	14.59
12/02/2020 09:41:05	120220	12022020	094105	185.55	12.668675	-57.159620	185.63	0.530	-1.050	3.150	185.44	-2.30	3.80	 	 	 	 	 	 	 	 	 	 	 	 	 	 	 	 	 	 	1581500465	8.42	15.59
12/02/2020 09:41:06	120220	12022020	094106	185.16	12.668638	-57.159628	185.33	0.320	-0.480	3.460	185.15	-1.60	4.00	 	 	 	 	 	 	 	 	 	 	 	 	 	 	 	 	 	 	1581500466	8.14	15.08
12/02/2020 09:41:07	120220	12022020	094107	185.32	12.668607	-57.159637	185.61	-0.060	0.670	3.190	185.43	-0.50	3.70	 	 	 	 	 	 	 	 	 	 	 	 	 	 	 	 	 	 	1581500467	6.96	12.89
12/02/2020 09:41:08	120220	12022020	094108	186.13	12.668578	-57.159643	186.29	-0.450	1.060	2.600	186.13	-0.30	3.10	 	 	 	 	 	 	 	 	 	 	 	 	 	 	 	 	 	 	1581500468	6.23	11.54
12/02/2020 09:41:09	120220	12022020	094109	186.71	12.668547	-57.159648	186.98	-0.610	0.220	2.040	186.83	-1.20	2.60	 	 	 	 	 	 	 	 	 	 	 	 	 	 	 	 	 	 	1581500469	6.88	12.74
12/02/2020 09:41:10	120220	12022020	094110	187.19	12.668510	-57.159657	187.32	-0.440	-1.060	1.730	187.19	-2.50	2.30	 	 	 	 	 	 	 	 	 	 	 	 	 	 	 	 	 	 	1581500470	7.97	14.76
12/02/2020 09:41:11	120220	12022020	094111	187.09	12.668473	-57.159665	187.15	-0.010	-1.890	1.790	187.01	-3.20	2.40	 	 	 	 	 	 	 	 	 	 	 	 	 	 	 	 	 	 	1581500471	8.32	15.41
12/02/2020 09:41:12	120220	12022020	094112	186.30	12.668437	-57.159673	186.44	0.500	-1.970	2.110	186.30	-3.20	2.70	 	 	 	 	 	 	 	 	 	 	 	 	 	 	 	 	 	 	1581500472	7.99	14.80
12/02/2020 09:41:13	120220	12022020	094113	185.65	12.668402	-57.159678	185.69	0.780	-1.320	2.420	185.53	-2.40	3.00	 	 	 	 	 	 	 	 	 	 	 	 	 	 	 	 	 	 	1581500473	7.63	14.13
12/02/2020 09:41:14	120220	12022020	094114	185.33	12.668368	-57.159682	185.52	0.550	-0.110	2.410	185.35	-1.20	3.00	 	 	 	 	 	 	 	 	 	 	 	 	 	 	 	 	 	 	1581500474	7.35	13.61
12/02/2020 09:41:15	120220	12022020	094115	185.69	12.668335	-57.159685	185.98	-0.060	1.030	2.180	185.80	-0.10	2.70	 	 	 	 	 	 	 	 	 	 	 	 	 	 	 	 	 	 	1581500475	6.98	12.93
12/02/2020 09:41:16	120220	12022020	094116	186.35	12.668303	-57.159688	186.65	-0.640	1.460	2.060	186.48	0.20	2.60	 	 	 	 	 	 	 	 	 	 	 	 	 	 	 	 	 	 	1581500476	7.01	12.98
12/02/2020 09:41:17	120220	12022020	094117	186.97	12.668268	-57.159695	187.23	-0.940	1.140	2.360	187.05	-0.20	3.00	 	 	 	 	 	 	 	 	 	 	 	 	 	 	 	 	 	 	1581500477	7.52	13.93
12/02/2020 09:41:18	120220	12022020	094118	187.22	12.668233	-57.159705	187.40	-0.910	0.400	3.070	187.22	-1.00	3.70	 	 	 	 	 	 	 	 	 	 	 	 	 	 	 	 	 	 	1581500478	7.97	14.76
12/02/2020 09:41:19	120220	12022020	094119	187.01	12.668197	-57.159718	187.09	-0.530	-0.440	3.720	186.91	-1.80	4.30	 	 	 	 	 	 	 	 	 	 	 	 	 	 	 	 	 	 	1581500479	8.22	15.22
12/02/2020 09:41:20	120220	12022020	094120	186.26	12.668162	-57.159733	186.43	0.150	-1.030	3.990	186.26	-2.30	4.50	 	 	 	 	 	 	 	 	 	 	 	 	 	 	 	 	 	 	1581500480	8.20	15.19
12/02/2020 09:41:21	120220	12022020	094121	185.81	12.668127	-57.159743	185.93	0.850	-1.060	3.640	185.75	-2.30	4.10	 	 	 	 	 	 	 	 	 	 	 	 	 	 	 	 	 	 	1581500481	7.87	14.58
12/02/2020 09:41:22	120220	12022020	094122	185.82	12.668093	-57.159747	185.97	1.130	-0.590	2.570	185.82	-1.80	3.00	 	 	 	 	 	 	 	 	 	 	 	 	 	 	 	 	 	 	1581500482	7.29	13.50
12/02/2020 09:41:23	120220	12022020	094123	186.14	12.668060	-57.159745	186.35	0.870	-0.160	1.390	186.22	-1.40	1.80	 	 	 	 	 	 	 	 	 	 	 	 	 	 	 	 	 	 	1581500483	6.85	12.69
12/02/2020 09:41:24	120220	12022020	094124	186.64	12.668028	-57.159745	186.74	0.390	-0.110	0.640	186.64	-1.40	1.20	 	 	 	 	 	 	 	 	 	 	 	 	 	 	 	 	 	 	1581500484	6.92	12.82
12/02/2020 09:41:25	120220	12022020	094125	186.82	12.667995	-57.159745	186.95	0.050	-0.380	0.430	186.83	-1.70	1.00	 	 	 	 	 	 	 	 	 	 	 	 	 	 	 	 	 	 	1581500485	7.27	13.46
12/02/2020 09:41:26	120220	12022020	094126	186.66	12.667960	-57.159750	186.79	-0.080	-0.830	0.790	186.66	-2.20	1.50	 	 	 	 	 	 	 	 	 	 	 	 	 	 	 	 	 	 	1581500486	7.64	14.15
12/02/2020 09:41:27	120220	12022020	094127	186.42	12.667923	-57.159757	186.51	-0.220	-1.090	1.590	186.37	-2.40	2.30	 	 	 	 	 	 	 	 	 	 	 	 	 	 	 	 	 	 	1581500487	8.02	14.85
12/02/2020 09:41:28	120220	12022020	094128	186.19	12.667887	-57.159765	186.30	-0.560	-0.880	2.580	186.15	-2.10	3.30	 	 	 	 	 	 	 	 	 	 	 	 	 	 	 	 	 	 	1581500488	8.06	14.93
12/02/2020 09:41:29	120220	12022020	094129	185.92	12.667852	-57.159778	186.02	-0.970	-0.420	3.550	185.84	-1.60	4.20	 	 	 	 	 	 	 	 	 	 	 	 	 	 	 	 	 	 	1581500489	7.86	14.56
12/02/2020 09:41:30	120220	12022020	094130	185.46	12.667818	-57.159793	185.57	-1.080	-0.040	4.400	185.36	-1.30	5.00	 	 	 	 	 	 	 	 	 	 	 	 	 	 	 	 	 	 	1581500490	7.99	14.80
12/02/2020 09:41:31	120220	12022020	094131	185.10	12.667782	-57.159808	185.28	-0.750	0.460	4.590	185.09	-0.70	5.10	 	 	 	 	 	 	 	 	 	 	 	 	 	 	 	 	 	 	1581500491	8.27	15.32
12/02/2020 09:41:32	120220	12022020	094132	185.37	12.667748	-57.159820	185.54	-0.170	1.170	3.710	185.37	-0.00	4.10	 	 	 	 	 	 	 	 	 	 	 	 	 	 	 	 	 	 	1581500492	7.77	14.39
12/02/2020 09:41:33	120220	12022020	094133	185.91	12.667715	-57.159823	186.19	0.360	1.460	2.130	186.05	0.10	2.50	 	 	 	 	 	 	 	 	 	 	 	 	 	 	 	 	 	 	1581500493	7.01	12.98
12/02/2020 09:41:34	120220	12022020	094134	186.63	12.667682	-57.159820	186.74	0.770	0.720	0.590	186.63	-0.70	1.00	 	 	 	 	 	 	 	 	 	 	 	 	 	 	 	 	 	 	1581500494	7.15	13.24
12/02/2020 09:41:35	120220	12022020	094135	186.88	12.667645	-57.159817	187.01	1.040	-0.590	-0.310	186.91	-2.10	0.20	 	 	 	 	 	 	 	 	 	 	 	 	 	 	 	 	 	 	1581500495	7.93	14.69
12/02/2020 09:41:36	120220	12022020	094136	186.87	12.667608	-57.159815	186.92	1.090	-1.660	-0.360	186.81	-3.10	0.30	 	 	 	 	 	 	 	 	 	 	 	 	 	 	 	 	 	 	1581500496	8.20	15.19
12/02/2020 09:41:37	120220	12022020	094137	186.42	12.667572	-57.159817	186.41	0.820	-2.150	0.590	186.29	-3.40	1.40	 	 	 	 	 	 	 	 	 	 	 	 	 	 	 	 	 	 	1581500497	7.89	14.61
12/02/2020 09:41:38	120220	12022020	094138	185.79	12.667537	-57.159825	185.83	0.240	-1.830	2.060	185.68	-3.00	2.80	 	 	 	 	 	 	 	 	 	 	 	 	 	 	 	 	 	 	1581500498	7.69	14.24
12/02/2020 09:41:39	120220	12022020	094139	185.41	12.667503	-57.159838	185.56	-0.470	-0.730	3.290	185.39	-1.80	4.00	 	 	 	 	 	 	 	 	 	 	 	 	 	 	 	 	 	 	1581500499	7.54	13.96
12/02/2020 09:41:40	120220	12022020	094140	185.43	12.667473	-57.159853	185.64	-0.980	0.500	3.850	185.47	-0.60	4.40	 	 	 	 	 	 	 	 	 	 	 	 	 	 	 	 	 	 	1581500500	7.19	13.32
12/02/2020 09:41:41	120220	12022020	094141	185.68	12.667443	-57.159867	185.89	-1.010	1.050	3.650	185.73	-0.20	4.10	 	 	 	 	 	 	 	 	 	 	 	 	 	 	 	 	 	 	1581500501	7.08	13.11
12/02/2020 09:41:42	120220	12022020	094142	185.96	12.667410	-57.159875	186.14	-0.620	0.690	3.020	186.01	-0.70	3.50	 	 	 	 	 	 	 	 	 	 	 	 	 	 	 	 	 	 	1581500502	7.55	13.98
12/02/2020 09:41:43	120220	12022020	094143	186.13	12.667372	-57.159880	186.26	-0.070	-0.130	2.300	186.14	-1.50	2.80	 	 	 	 	 	 	 	 	 	 	 	 	 	 	 	 	 	 	1581500503	8.28	15.33
12/02/2020 09:41:44	120220	12022020	094144	186.07	12.667332	-57.159883	186.17	0.310	-0.790	1.790	186.04	-2.10	2.30	 	 	 	 	 	 	 	 	 	 	 	 	 	 	 	 	 	 	1581500504	8.58	15.89
12/02/2020 09:41:45	120220	12022020	094145	185.99	12.667293	-57.159885	186.15	0.290	-0.780	1.610	186.01	-2.00	2.20	 	 	 	 	 	 	 	 	 	 	 	 	 	 	 	 	 	 	1581500505	8.29	15.35
12/02/2020 09:41:46	120220	12022020	094146	186.22	12.667258	-57.159888	186.36	-0.080	-0.110	1.690	186.22	-1.30	2.30	 	 	 	 	 	 	 	 	 	 	 	 	 	 	 	 	 	 	1581500506	7.47	13.83
12/02/2020 09:41:47	120220	12022020	094147	186.46	12.667228	-57.159897	186.64	-0.320	0.570	1.700	186.52	-0.70	2.20	 	 	 	 	 	 	 	 	 	 	 	 	 	 	 	 	 	 	1581500507	6.73	12.46
12/02/2020 09:41:48	120220	12022020	094148	186.70	12.667198	-57.159905	186.84	0.060	0.470	1.500	186.72	-0.90	2.00	 	 	 	 	 	 	 	 	 	 	 	 	 	 	 	 	 	 	1581500508	6.72	12.45
12/02/2020 09:41:49	120220	12022020	094149	186.72	12.667163	-57.159910	186.83	0.860	-0.430	1.410	186.71	-1.80	2.00	 	 	 	 	 	 	 	 	 	 	 	 	 	 	 	 	 	 	1581500509	7.57	14.02
12/02/2020 09:41:50	120220	12022020	094150	186.57	12.667123	-57.159913	186.66	1.190	-1.160	1.790	186.52	-2.50	2.40	 	 	 	 	 	 	 	 	 	 	 	 	 	 	 	 	 	 	1581500510	8.44	15.63
12/02/2020 09:41:51	120220	12022020	094151	186.33	12.667087	-57.159917	186.45	0.640	-0.990	2.450	186.30	-2.20	3.10	 	 	 	 	 	 	 	 	 	 	 	 	 	 	 	 	 	 	1581500511	8.21	15.20
12/02/2020 09:41:52	120220	12022020	094152	186.27	12.667053	-57.159925	186.48	-0.380	-0.180	2.930	186.31	-1.30	3.50	 	 	 	 	 	 	 	 	 	 	 	 	 	 	 	 	 	 	1581500512	7.38	13.67
12/02/2020 09:41:53	120220	12022020	094153	186.56	12.667022	-57.159937	186.80	-1.060	0.460	3.010	186.63	-0.80	3.50	 	 	 	 	 	 	 	 	 	 	 	 	 	 	 	 	 	 	1581500513	6.93	12.83
12/02/2020 09:41:54	120220	12022020	094154	186.87	12.666990	-57.159947	187.05	-0.970	0.350	2.890	186.90	-1.00	3.40	 	 	 	 	 	 	 	 	 	 	 	 	 	 	 	 	 	 	1581500514	7.13	13.20
12/02/2020 09:41:55	120220	12022020	094155	186.88	12.666955	-57.159957	186.99	-0.340	-0.400	2.700	186.85	-1.80	3.20	 	 	 	 	 	 	 	 	 	 	 	 	 	 	 	 	 	 	1581500515	7.88	14.59
12/02/2020 09:41:56	120220	12022020	094156	186.54	12.666917	-57.159965	186.66	0.270	-1.020	2.470	186.54	-2.30	3.00	 	 	 	 	 	 	 	 	 	 	 	 	 	 	 	 	 	 	1581500516	8.48	15.70
12/02/2020 09:41:57	120220	12022020	094157	186.31	12.666878	-57.159972	186.39	0.520	-0.870	2.190	186.28	-2.10	2.70	 	 	 	 	 	 	 	 	 	 	 	 	 	 	 	 	 	 	1581500517	8.28	15.33
12/02/2020 09:41:58	120220	12022020	094158	186.24	12.666845	-57.159977	186.35	0.470	-0.120	1.720	186.24	-1.30	2.20	 	 	 	 	 	 	 	 	 	 	 	 	 	 	 	 	 	 	1581500518	7.46	13.82
12/02/2020 09:41:59	120220	12022020	094159	186.26	12.666812	-57.159978	186.37	0.340	0.410	1.240	186.27	-0.90	1.80	 	 	 	 	 	 	 	 	 	 	 	 	 	 	 	 	 	 	1581500519	6.91	12.80
12/02/2020 09:42:00	120220	12022020	094200	186.38	12.666778	-57.159980	186.54	0.200	0.340	1.040	186.43	-1.00	1.60	 	 	 	 	 	 	 	 	 	 	 	 	 	 	 	 	 	 	1581500520	7.28	13.48
12/02/2020 09:42:01	120220	12022020	094201	186.64	12.666742	-57.159983	186.81	0.010	-0.050	1.360	186.68	-1.40	2.00	1014.90	26.10	26.20	20.40	20.50	-1.0	71.0	71.0	395.0	25.8	264.00	11.50	72.00	12.50	16	9172.0	27.5	27.5	1581500521	7.81	14.46
12/02/2020 09:42:02	120220	12022020	094202	186.70	12.666707	-57.159990	186.78	-0.190	-0.550	2.180	186.66	-1.90	2.90	 	 	 	 	 	 	 	 	 	 	 	 	 	 	 	 	 	 	1581500522	7.98	14.78
12/02/2020 09:42:03	120220	12022020	094203	186.37	12.666670	-57.160002	186.42	-0.250	-1.030	3.170	186.27	-2.40	3.90	 	 	 	 	 	 	 	 	 	 	 	 	 	 	 	 	 	 	1581500523	8.18	15.15
12/02/2020 09:42:04	120220	12022020	094204	185.88	12.666633	-57.160015	185.96	-0.220	-1.030	3.920	185.79	-2.30	4.50	 	 	 	 	 	 	 	 	 	 	 	 	 	 	 	 	 	 	1581500524	8.34	15.45
12/02/2020 09:42:05	120220	12022020	094205	185.53	12.666598	-57.160027	185.65	-0.140	-0.410	3.980	185.49	-1.60	4.50	 	 	 	 	 	 	 	 	 	 	 	 	 	 	 	 	 	 	1581500525	7.95	14.72
12/02/2020 09:42:06	120220	12022020	094206	185.49	12.666565	-57.160033	185.64	-0.050	0.350	3.230	185.52	-0.90	3.70	 	 	 	 	 	 	 	 	 	 	 	 	 	 	 	 	 	 	1581500526	7.28	13.48
12/02/2020 09:42:07	120220	12022020	094207	185.73	12.666532	-57.160037	185.92	-0.040	0.660	2.270	185.79	-0.70	2.70	 	 	 	 	 	 	 	 	 	 	 	 	 	 	 	 	 	 	1581500527	7.06	13.08
12/02/2020 09:42:08	120220	12022020	094208	186.13	12.666497	-57.160037	186.25	-0.140	0.330	1.700	186.13	-1.00	2.20	 	 	 	 	 	 	 	 	 	 	 	 	 	 	 	 	 	 	1581500528	7.44	13.78
12/02/2020 09:42:09	120220	12022020	094209	186.29	12.666462	-57.160040	186.41	-0.230	-0.270	1.560	186.30	-1.60	2.10	 	 	 	 	 	 	 	 	 	 	 	 	 	 	 	 	 	 	1581500529	7.86	14.56
12/02/2020 09:42:10	120220	12022020	094210	186.22	12.666425	-57.160047	186.33	-0.080	-0.680	1.680	186.22	-2.00	2.30	 	 	 	 	 	 	 	 	 	 	 	 	 	 	 	 	 	 	1581500530	8.02	14.85
12/02/2020 09:42:11	120220	12022020	094211	185.99	12.666388	-57.160055	186.04	0.420	-0.880	1.880	185.92	-2.20	2.50	 	 	 	 	 	 	 	 	 	 	 	 	 	 	 	 	 	 	1581500531	7.88	14.59
12/02/2020 09:42:12	120220	12022020	094212	185.62	12.666353	-57.160062	185.70	1.000	-0.900	1.880	185.56	-2.20	2.40	 	 	 	 	 	 	 	 	 	 	 	 	 	 	 	 	 	 	1581500532	7.82	14.48
12/02/2020 09:42:13	120220	12022020	094213	185.53	12.666317	-57.160063	185.73	1.010	-0.470	1.650	185.58	-1.70	2.20	 	 	 	 	 	 	 	 	 	 	 	 	 	 	 	 	 	 	1581500533	7.85	14.54
12/02/2020 09:42:14	120220	12022020	094214	186.13	12.666282	-57.160065	186.28	0.200	0.310	1.480	186.13	-0.90	2.00	 	 	 	 	 	 	 	 	 	 	 	 	 	 	 	 	 	 	1581500534	7.38	13.67
12/02/2020 09:42:15	120220	12022020	094215	186.71	12.666250	-57.160070	187.01	-0.850	0.790	1.620	186.85	-0.50	2.20	 	 	 	 	 	 	 	 	 	 	 	 	 	 	 	 	 	 	1581500535	6.80	12.59
12/02/2020 09:42:16	120220	12022020	094216	187.31	12.666220	-57.160078	187.46	-1.300	0.470	2.170	187.31	-0.90	2.80	 	 	 	 	 	 	 	 	 	 	 	 	 	 	 	 	 	 	1581500536	7.07	13.09
12/02/2020 09:42:17	120220	12022020	094217	187.26	12.666185	-57.160092	187.34	-0.770	-0.560	2.890	187.19	-2.00	3.50	 	 	 	 	 	 	 	 	 	 	 	 	 	 	 	 	 	 	1581500537	7.96	14.74
12/02/2020 09:42:18	120220	12022020	094218	186.74	12.666147	-57.160105	186.74	0.220	-1.620	3.500	186.60	-3.00	4.10	 	 	 	 	 	 	 	 	 	 	 	 	 	 	 	 	 	 	1581500538	8.76	16.22
12/02/2020 09:42:19	120220	12022020	094219	185.99	12.666105	-57.160113	185.99	0.770	-1.860	3.830	185.86	-3.10	4.40	 	 	 	 	 	 	 	 	 	 	 	 	 	 	 	 	 	 	1581500539	8.89	16.46
12/02/2020 09:42:20	120220	12022020	094220	185.52	12.666068	-57.160120	185.61	0.480	-0.910	3.680	185.49	-2.00	4.20	 	 	 	 	 	 	 	 	 	 	 	 	 	 	 	 	 	 	1581500540	8.20	15.19
12/02/2020 09:42:21	120220	12022020	094221	185.62	12.666035	-57.160123	185.82	-0.300	0.660	3.050	185.71	-0.40	3.50	 	 	 	 	 	 	 	 	 	 	 	 	 	 	 	 	 	 	1581500541	7.07	13.09
12/02/2020 09:42:22	120220	12022020	094222	186.38	12.666005	-57.160128	186.47	-0.840	1.720	1.960	186.38	0.40	2.40	 	 	 	 	 	 	 	 	 	 	 	 	 	 	 	 	 	 	1581500542	6.37	11.80
12/02/2020 09:42:23	120220	12022020	094223	186.99	12.665975	-57.160132	187.20	-0.670	1.440	0.840	187.13	-0.00	1.30	 	 	 	 	 	 	 	 	 	 	 	 	 	 	 	 	 	 	1581500543	6.81	12.61
12/02/2020 09:42:24	120220	12022020	094224	187.60	12.665937	-57.160133	187.76	0.010	0.230	0.190	187.70	-1.30	0.70	 	 	 	 	 	 	 	 	 	 	 	 	 	 	 	 	 	 	1581500544	8.02	14.85
12/02/2020 09:42:25	120220	12022020	094225	187.96	12.665897	-57.160138	188.05	0.610	-0.930	0.130	187.99	-2.40	0.70	 	 	 	 	 	 	 	 	 	 	 	 	 	 	 	 	 	 	1581500545	8.69	16.09
12/02/2020 09:42:26	120220	12022020	094226	187.93	12.665858	-57.160143	188.01	0.800	-1.450	0.640	187.93	-2.80	1.30	 	 	 	 	 	 	 	 	 	 	 	 	 	 	 	 	 	 	1581500546	8.38	15.52
12/02/2020 09:42:27	120220	12022020	094227	187.61	12.665823	-57.160152	187.60	0.680	-1.400	1.580	187.50	-2.70	2.30	 	 	 	 	 	 	 	 	 	 	 	 	 	 	 	 	 	 	1581500547	7.80	14.45
12/02/2020 09:42:28	120220	12022020	094228	187.02	12.665788	-57.160160	187.13	0.370	-0.880	2.520	187.02	-2.10	3.20	 	 	 	 	 	 	 	 	 	 	 	 	 	 	 	 	 	 	1581500548	7.52	13.93
12/02/2020 09:42:29	120220	12022020	094229	186.76	12.665755	-57.160167	186.85	-0.220	-0.030	3.190	186.71	-1.20	3.80	 	 	 	 	 	 	 	 	 	 	 	 	 	 	 	 	 	 	1581500549	7.28	13.48
12/02/2020 09:42:30	120220	12022020	094230	186.54	12.665723	-57.160177	186.67	-0.830	0.500	3.480	186.54	-0.80	4.00	 	 	 	 	 	 	 	 	 	 	 	 	 	 	 	 	 	 	1581500550	7.08	13.11
12/02/2020 09:42:31	120220	12022020	094231	186.41	12.665690	-57.160188	186.50	-1.070	0.290	3.510	186.37	-1.10	4.00	 	 	 	 	 	 	 	 	 	 	 	 	 	 	 	 	 	 	1581500551	7.57	14.02
12/02/2020 09:42:32	120220	12022020	094232	186.23	12.665653	-57.160200	186.33	-0.690	-0.260	3.250	186.20	-1.60	3.70	 	 	 	 	 	 	 	 	 	 	 	 	 	 	 	 	 	 	1581500552	8.40	15.56
12/02/2020 09:42:33	120220	12022020	094233	186.17	12.665615	-57.160212	186.31	0.110	-0.390	2.480	186.20	-1.70	2.90	 	 	 	 	 	 	 	 	 	 	 	 	 	 	 	 	 	 	1581500553	8.55	15.83
12/02/2020 09:42:34	120220	12022020	094234	186.50	12.665578	-57.160215	186.70	0.710	-0.050	1.240	186.61	-1.30	1.60	 	 	 	 	 	 	 	 	 	 	 	 	 	 	 	 	 	 	1581500554	7.86	14.56
12/02/2020 09:42:35	120220	12022020	094235	187.14	12.665545	-57.160213	187.33	0.790	0.160	0.170	187.27	-1.20	0.70	 	 	 	 	 	 	 	 	 	 	 	 	 	 	 	 	 	 	1581500555	7.33	13.58
12/02/2020 09:42:36	120220	12022020	094236	187.72	12.665510	-57.160210	187.81	0.500	-0.150	0.020	187.72	-1.50	0.60	 	 	 	 	 	 	 	 	 	 	 	 	 	 	 	 	 	 	1581500556	7.39	13.69
12/02/2020 09:42:37	120220	12022020	094237	187.84	12.665475	-57.160213	187.94	0.090	-0.630	0.780	187.83	-2.00	1.50	 	 	 	 	 	 	 	 	 	 	 	 	 	 	 	 	 	 	1581500557	7.79	14.43
12/02/2020 09:42:38	120220	12022020	094238	187.61	12.665438	-57.160222	187.64	-0.300	-0.970	2.250	187.52	-2.30	3.00	 	 	 	 	 	 	 	 	 	 	 	 	 	 	 	 	 	 	1581500558	7.96	14.74
12/02/2020 09:42:39	120220	12022020	094239	186.98	12.665403	-57.160237	186.97	-0.470	-1.080	3.830	186.83	-2.40	4.60	 	 	 	 	 	 	 	 	 	 	 	 	 	 	 	 	 	 	1581500559	8.22	15.22
12/02/2020 09:42:40	120220	12022020	094240	186.26	12.665368	-57.160255	186.31	-0.360	-0.740	4.690	186.15	-1.90	5.30	 	 	 	 	 	 	 	 	 	 	 	 	 	 	 	 	 	 	1581500560	8.38	15.52
12/02/2020 09:42:41	120220	12022020	094241	185.87	12.665333	-57.160267	186.00	-0.180	-0.010	4.520	185.85	-1.20	5.00	 	 	 	 	 	 	 	 	 	 	 	 	 	 	 	 	 	 	1581500561	7.86	14.56
12/02/2020 09:42:42	120220	12022020	094242	185.90	12.665300	-57.160273	186.08	-0.110	0.540	3.570	185.94	-0.70	4.00	 	 	 	 	 	 	 	 	 	 	 	 	 	 	 	 	 	 	1581500562	7.31	13.54
12/02/2020 09:42:43	120220	12022020	094243	186.16	12.665265	-57.160275	186.32	-0.160	0.520	2.450	186.20	-0.80	2.90	 	 	 	 	 	 	 	 	 	 	 	 	 	 	 	 	 	 	1581500563	7.40	13.70
12/02/2020 09:42:44	120220	12022020	094244	186.27	12.665230	-57.160277	186.35	-0.110	0.030	1.830	186.26	-1.40	2.40	 	 	 	 	 	 	 	 	 	 	 	 	 	 	 	 	 	 	1581500564	7.79	14.43
12/02/2020 09:42:45	120220	12022020	094245	186.20	12.665192	-57.160282	186.31	0.150	-0.420	1.570	186.22	-1.80	2.10	 	 	 	 	 	 	 	 	 	 	 	 	 	 	 	 	 	 	1581500565	8.16	15.11
12/02/2020 09:42:46	120220	12022020	094246	186.46	12.665155	-57.160288	186.66	0.380	-0.280	1.280	186.57	-1.50	1.80	 	 	 	 	 	 	 	 	 	 	 	 	 	 	 	 	 	 	1581500566	8.03	14.87
12/02/2020 09:42:47	120220	12022020	094247	187.09	12.665122	-57.160293	187.31	0.360	0.280	0.930	187.23	-1.00	1.40	 	 	 	 	 	 	 	 	 	 	 	 	 	 	 	 	 	 	1581500567	7.25	13.43
12/02/2020 09:42:48	120220	12022020	094248	187.68	12.665092	-57.160297	187.82	0.260	0.410	0.670	187.75	-1.00	1.20	 	 	 	 	 	 	 	 	 	 	 	 	 	 	 	 	 	 	1581500568	6.64	12.30
12/02/2020 09:42:49	120220	12022020	094249	187.79	12.665058	-57.160302	187.82	0.380	-0.360	0.890	187.75	-1.80	1.50	 	 	 	 	 	 	 	 	 	 	 	 	 	 	 	 	 	 	1581500569	7.10	13.15
12/02/2020 09:42:50	120220	12022020	094250	187.52	12.665020	-57.160307	187.62	0.650	-1.330	1.390	187.52	-2.80	2.10	 	 	 	 	 	 	 	 	 	 	 	 	 	 	 	 	 	 	1581500570	8.13	15.06
12/02/2020 09:42:51	120220	12022020	094251	187.26	12.664982	-57.160313	187.29	0.560	-1.760	2.330	187.18	-3.10	3.10	 	 	 	 	 	 	 	 	 	 	 	 	 	 	 	 	 	 	1581500571	8.43	15.61
12/02/2020 09:42:52	120220	12022020	094252	186.70	12.664945	-57.160322	186.68	-0.060	-1.620	3.530	186.55	-2.90	4.20	 	 	 	 	 	 	 	 	 	 	 	 	 	 	 	 	 	 	1581500572	8.09	14.98
12/02/2020 09:42:53	120220	12022020	094253	186.03	12.664910	-57.160335	186.07	-0.860	-1.020	4.480	185.92	-2.20	5.10	 	 	 	 	 	 	 	 	 	 	 	 	 	 	 	 	 	 	1581500573	8.09	14.98
12/02/2020 09:42:54	120220	12022020	094254	185.69	12.664875	-57.160350	185.83	-1.320	-0.010	4.860	185.68	-1.20	5.40	 	 	 	 	 	 	 	 	 	 	 	 	 	 	 	 	 	 	1581500574	8.12	15.04
12/02/2020 09:42:55	120220	12022020	094255	185.79	12.664843	-57.160365	185.97	-1.160	0.990	4.400	185.85	-0.20	4.80	 	 	 	 	 	 	 	 	 	 	 	 	 	 	 	 	 	 	1581500575	7.73	14.32
12/02/2020 09:42:56	120220	12022020	094256	186.13	12.664810	-57.160375	186.29	-0.560	1.370	3.250	186.19	0.00	3.60	 	 	 	 	 	 	 	 	 	 	 	 	 	 	 	 	 	 	1581500576	7.38	13.67
12/02/2020 09:42:57	120220	12022020	094257	186.44	12.664773	-57.160378	186.59	0.100	0.970	2.020	186.50	-0.50	2.40	 	 	 	 	 	 	 	 	 	 	 	 	 	 	 	 	 	 	1581500577	7.74	14.33
12/02/2020 09:42:58	120220	12022020	094258	186.81	12.664735	-57.160378	186.98	0.530	0.340	1.010	186.91	-1.10	1.50	 	 	 	 	 	 	 	 	 	 	 	 	 	 	 	 	 	 	1581500578	8.25	15.28
12/02/2020 09:42:59	120220	12022020	094259	187.28	12.664698	-57.160378	187.42	0.700	0.060	0.300	187.37	-1.30	0.80	 	 	 	 	 	 	 	 	 	 	 	 	 	 	 	 	 	 	1581500579	8.06	14.93
12/02/2020 09:43:00	120220	12022020	094300	187.63	12.664663	-57.160378	187.72	0.770	-0.160	0.150	187.66	-1.60	0.80	 	 	 	 	 	 	 	 	 	 	 	 	 	 	 	 	 	 	1581500580	7.37	13.65
12/02/2020 09:43:01	120220	12022020	094301	187.72	12.664630	-57.160382	187.78	0.830	-0.790	0.730	187.70	-2.20	1.40	1014.90	26.20	26.30	20.80	20.80	-1.0	72.0	72.0	396.0	25.8	271.00	10.20	76.00	10.90	17	9200.0	27.5	27.5	1581500581	7.23	13.39
12/02/2020 09:43:02	120220	12022020	094302	187.48	12.664595	-57.160388	187.51	0.800	-1.560	1.830	187.39	-2.90	2.60	 	 	 	 	 	 	 	 	 	 	 	 	 	 	 	 	 	 	1581500582	7.77	14.39
12/02/2020 09:43:03	120220	12022020	094303	186.97	12.664558	-57.160400	187.00	0.520	-1.840	3.150	186.86	-3.10	3.90	 	 	 	 	 	 	 	 	 	 	 	 	 	 	 	 	 	 	1581500583	8.18	15.15
12/02/2020 09:43:04	120220	12022020	094304	186.34	12.664523	-57.160413	186.49	-0.010	-1.330	4.180	186.34	-2.50	4.80	 	 	 	 	 	 	 	 	 	 	 	 	 	 	 	 	 	 	1581500584	7.98	14.78
12/02/2020 09:43:05	120220	12022020	094305	185.99	12.664492	-57.160425	186.08	-0.560	-0.500	4.580	185.93	-1.70	5.10	 	 	 	 	 	 	 	 	 	 	 	 	 	 	 	 	 	 	1581500585	7.46	13.82
12/02/2020 09:43:06	120220	12022020	094306	185.77	12.664458	-57.160435	185.92	-0.880	0.130	4.470	185.77	-1.10	5.00	 	 	 	 	 	 	 	 	 	 	 	 	 	 	 	 	 	 	1581500586	7.40	13.70
12/02/2020 09:43:07	120220	12022020	094307	185.86	12.664423	-57.160443	186.04	-0.890	0.420	3.950	185.91	-0.90	4.40	 	 	 	 	 	 	 	 	 	 	 	 	 	 	 	 	 	 	1581500587	7.71	14.28
12/02/2020 09:43:08	120220	12022020	094308	186.21	12.664387	-57.160450	186.39	-0.650	0.420	3.170	186.29	-0.90	3.60	 	 	 	 	 	 	 	 	 	 	 	 	 	 	 	 	 	 	1581500588	7.97	14.76
12/02/2020 09:43:09	120220	12022020	094309	186.65	12.664350	-57.160455	186.82	-0.350	0.260	2.260	186.75	-1.10	2.70	 	 	 	 	 	 	 	 	 	 	 	 	 	 	 	 	 	 	1581500589	8.11	15.02
12/02/2020 09:43:10	120220	12022020	094310	187.14	12.664312	-57.160460	187.29	-0.110	0.120	1.560	187.24	-1.20	2.10	 	 	 	 	 	 	 	 	 	 	 	 	 	 	 	 	 	 	1581500590	8.12	15.04
12/02/2020 09:43:11	120220	12022020	094311	187.53	12.664275	-57.160465	187.65	0.140	0.130	1.180	187.59	-1.20	1.70	 	 	 	 	 	 	 	 	 	 	 	 	 	 	 	 	 	 	1581500591	7.85	14.54
12/02/2020 09:43:12	120220	12022020	094312	187.86	12.664242	-57.160470	187.92	0.480	0.300	0.730	187.86	-1.00	1.30	 	 	 	 	 	 	 	 	 	 	 	 	 	 	 	 	 	 	1581500592	7.45	13.80
12/02/2020 09:43:13	120220	12022020	094313	187.98	12.664208	-57.160472	188.04	0.810	0.200	0.500	187.98	-1.20	1.10	 	 	 	 	 	 	 	 	 	 	 	 	 	 	 	 	 	 	1581500593	7.13	13.20
12/02/2020 09:43:14	120220	12022020	094314	187.69	12.664173	-57.160473	187.76	0.960	-0.480	0.890	187.69	-1.90	1.60	 	 	 	 	 	 	 	 	 	 	 	 	 	 	 	 	 	 	1581500594	7.38	13.67
12/02/2020 09:43:15	120220	12022020	094315	187.16	12.664137	-57.160478	187.11	0.760	-1.370	1.950	187.00	-2.80	2.70	 	 	 	 	 	 	 	 	 	 	 	 	 	 	 	 	 	 	1581500595	8.01	14.83
12/02/2020 09:43:16	120220	12022020	094316	186.31	12.664098	-57.160487	186.45	0.200	-1.710	3.260	186.31	-3.00	4.00	 	 	 	 	 	 	 	 	 	 	 	 	 	 	 	 	 	 	1581500596	8.46	15.67
12/02/2020 09:43:17	120220	12022020	094317	186.09	12.664062	-57.160502	186.27	-0.550	-1.080	4.180	186.11	-2.20	4.80	 	 	 	 	 	 	 	 	 	 	 	 	 	 	 	 	 	 	1581500597	8.34	15.45
12/02/2020 09:43:18	120220	12022020	094318	186.61	12.664030	-57.160517	186.76	-1.160	0.190	4.240	186.61	-0.90	4.70	 	 	 	 	 	 	 	 	 	 	 	 	 	 	 	 	 	 	1581500598	7.61	14.09
12/02/2020 09:43:19	120220	12022020	094319	187.36	12.664002	-57.160530	187.70	-1.300	1.120	3.450	187.57	-0.10	3.80	 	 	 	 	 	 	 	 	 	 	 	 	 	 	 	 	 	 	1581500599	6.86	12.70
12/02/2020 09:43:20	120220	12022020	094320	188.32	12.663970	-57.160538	188.56	-0.800	0.930	2.220	188.46	-0.50	2.60	 	 	 	 	 	 	 	 	 	 	 	 	 	 	 	 	 	 	1581500600	6.88	12.74
12/02/2020 09:43:21	120220	12022020	094321	188.75	12.663933	-57.160543	188.81	0.170	-0.270	1.280	188.74	-1.80	1.80	 	 	 	 	 	 	 	 	 	 	 	 	 	 	 	 	 	 	1581500601	7.88	14.59
12/02/2020 09:43:22	120220	12022020	094322	188.29	12.663893	-57.160547	188.35	1.110	-1.430	0.990	188.29	-2.80	1.60	 	 	 	 	 	 	 	 	 	 	 	 	 	 	 	 	 	 	1581500602	8.88	16.45
12/02/2020 09:43:23	120220	12022020	094323	187.70	12.663852	-57.160550	187.65	1.420	-1.330	1.140	187.57	-2.50	1.80	 	 	 	 	 	 	 	 	 	 	 	 	 	 	 	 	 	 	1581500603	8.83	16.35
12/02/2020 09:43:24	120220	12022020	094324	187.25	12.663817	-57.160552	187.32	0.880	-0.090	1.390	187.24	-1.20	2.00	 	 	 	 	 	 	 	 	 	 	 	 	 	 	 	 	 	 	1581500604	7.61	14.09
12/02/2020 09:43:25	120220	12022020	094325	187.40	12.663787	-57.160555	187.57	-0.090	1.010	1.600	187.48	-0.20	2.20	 	 	 	 	 	 	 	 	 	 	 	 	 	 	 	 	 	 	1581500605	6.54	12.11
12/02/2020 09:43:26	120220	12022020	094326	188.09	12.663757	-57.160563	188.20	-0.860	1.080	1.820	188.09	-0.30	2.40	 	 	 	 	 	 	 	 	 	 	 	 	 	 	 	 	 	 	1581500606	6.78	12.56
12/02/2020 09:43:27	120220	12022020	094327	188.59	12.663722	-57.160575	188.81	-1.050	0.250	2.300	188.70	-1.20	2.90	 	 	 	 	 	 	 	 	 	 	 	 	 	 	 	 	 	 	1581500607	7.82	14.48
12/02/2020 09:43:28	120220	12022020	094328	188.99	12.663685	-57.160592	189.14	-0.690	-0.780	2.840	189.02	-2.20	3.50	 	 	 	 	 	 	 	 	 	 	 	 	 	 	 	 	 	 	1581500608	8.62	15.96
12/02/2020 09:43:29	120220	12022020	094329	189.01	12.663648	-57.160607	189.10	-0.070	-1.390	2.910	188.98	-2.70	3.40	 	 	 	 	 	 	 	 	 	 	 	 	 	 	 	 	 	 	1581500609	8.63	15.98
12/02/2020 09:43:30	120220	12022020	094330	188.74	12.663612	-57.160618	188.86	0.380	-1.360	2.530	188.74	-2.60	3.00	 	 	 	 	 	 	 	 	 	 	 	 	 	 	 	 	 	 	1581500610	8.03	14.87
12/02/2020 09:43:31	120220	12022020	094331	188.53	12.663577	-57.160623	188.60	0.430	-0.880	2.160	188.48	-2.10	2.70	 	 	 	 	 	 	 	 	 	 	 	 	 	 	 	 	 	 	1581500611	7.47	13.83
12/02/2020 09:43:32	120220	12022020	094332	188.14	12.663545	-57.160627	188.23	0.250	-0.320	1.890	188.14	-1.60	2.50	 	 	 	 	 	 	 	 	 	 	 	 	 	 	 	 	 	 	1581500612	7.20	13.33
12/02/2020 09:43:33	120220	12022020	094333	187.71	12.663510	-57.160632	187.70	0.090	0.000	1.970	187.61	-1.30	2.60	 	 	 	 	 	 	 	 	 	 	 	 	 	 	 	 	 	 	1581500613	7.39	13.69
12/02/2020 09:43:34	120220	12022020	094334	187.17	12.663475	-57.160638	187.19	0.060	0.090	2.440	187.09	-1.20	3.10	 	 	 	 	 	 	 	 	 	 	 	 	 	 	 	 	 	 	1581500614	7.85	14.54
12/02/2020 09:43:35	120220	12022020	094335	186.91	12.663437	-57.160648	187.05	0.070	0.370	2.810	186.93	-0.90	3.40	 	 	 	 	 	 	 	 	 	 	 	 	 	 	 	 	 	 	1581500615	8.22	15.22
12/02/2020 09:43:36	120220	12022020	094336	187.28	12.663402	-57.160657	187.54	-0.070	0.960	2.770	187.42	-0.30	3.30	 	 	 	 	 	 	 	 	 	 	 	 	 	 	 	 	 	 	1581500616	7.83	14.50
12/02/2020 09:43:37	120220	12022020	094337	188.05	12.663370	-57.160665	188.31	-0.310	1.260	2.530	188.20	-0.10	3.10	 	 	 	 	 	 	 	 	 	 	 	 	 	 	 	 	 	 	1581500617	7.05	13.06
12/02/2020 09:43:38	120220	12022020	094338	188.73	12.663338	-57.160673	188.83	-0.330	0.580	2.310	188.73	-0.90	2.90	 	 	 	 	 	 	 	 	 	 	 	 	 	 	 	 	 	 	1581500618	6.98	12.93
12/02/2020 09:43:39	120220	12022020	094339	188.79	12.663303	-57.160682	188.86	0.050	-0.870	2.260	188.76	-2.40	2.80	 	 	 	 	 	 	 	 	 	 	 	 	 	 	 	 	 	 	1581500619	7.76	14.37
12/02/2020 09:43:40	120220	12022020	094340	188.41	12.663265	-57.160692	188.51	0.520	-2.110	2.400	188.41	-3.50	3.00	 	 	 	 	 	 	 	 	 	 	 	 	 	 	 	 	 	 	1581500620	8.48	15.70
12/02/2020 09:43:41	120220	12022020	094341	187.91	12.663227	-57.160700	187.86	0.690	-2.440	2.630	187.75	-3.70	3.30	 	 	 	 	 	 	 	 	 	 	 	 	 	 	 	 	 	 	1581500621	8.40	15.56
12/02/2020 09:43:42	120220	12022020	094342	187.16	12.663192	-57.160708	187.14	0.440	-1.760	2.960	187.04	-2.90	3.60	 	 	 	 	 	 	 	 	 	 	 	 	 	 	 	 	 	 	1581500622	7.81	14.46
12/02/2020 09:43:43	120220	12022020	094343	186.70	12.663158	-57.160717	186.77	-0.010	-0.450	3.050	186.65	-1.50	3.60	 	 	 	 	 	 	 	 	 	 	 	 	 	 	 	 	 	 	1581500623	7.26	13.45
12/02/2020 09:43:44	120220	12022020	094344	186.66	12.663128	-57.160723	186.76	-0.430	0.840	2.750	186.66	-0.30	3.20	 	 	 	 	 	 	 	 	 	 	 	 	 	 	 	 	 	 	1581500624	6.91	12.80
12/02/2020 09:43:45	120220	12022020	094345	186.84	12.663095	-57.160728	186.98	-0.670	1.380	2.250	186.90	0.10	2.80	 	 	 	 	 	 	 	 	 	 	 	 	 	 	 	 	 	 	1581500625	7.03	13.02
12/02/2020 09:43:46	120220	12022020	094346	187.14	12.663060	-57.160733	187.28	-0.650	1.050	1.980	187.20	-0.30	2.50	 	 	 	 	 	 	 	 	 	 	 	 	 	 	 	 	 	 	1581500626	7.73	14.32
12/02/2020 09:43:47	120220	12022020	094347	187.53	12.663022	-57.160742	187.69	-0.360	0.490	1.910	187.61	-0.90	2.50	 	 	 	 	 	 	 	 	 	 	 	 	 	 	 	 	 	 	1581500627	8.35	15.46
12/02/2020 09:43:48	120220	12022020	094348	187.91	12.662985	-57.160750	188.03	0.050	0.060	1.880	187.95	-1.30	2.50	 	 	 	 	 	 	 	 	 	 	 	 	 	 	 	 	 	 	1581500628	8.16	15.11
12/02/2020 09:43:49	120220	12022020	094349	187.92	12.662950	-57.160758	187.98	0.440	-0.370	2.060	187.88	-1.70	2.70	 	 	 	 	 	 	 	 	 	 	 	 	 	 	 	 	 	 	1581500629	7.72	14.30
12/02/2020 09:43:50	120220	12022020	094350	187.65	12.662915	-57.160765	187.75	0.570	-0.680	2.340	187.65	-2.00	2.90	 	 	 	 	 	 	 	 	 	 	 	 	 	 	 	 	 	 	1581500630	7.65	14.17
12/02/2020 09:43:51	120220	12022020	094351	187.50	12.662880	-57.160772	187.58	0.420	-0.780	2.510	187.47	-2.10	3.10	 	 	 	 	 	 	 	 	 	 	 	 	 	 	 	 	 	 	1581500631	7.49	13.87
12/02/2020 09:43:52	120220	12022020	094352	187.33	12.662848	-57.160780	187.39	0.260	-0.880	2.430	187.29	-2.20	3.00	 	 	 	 	 	 	 	 	 	 	 	 	 	 	 	 	 	 	1581500632	7.32	13.56
12/02/2020 09:43:53	120220	12022020	094353	187.11	12.662813	-57.160788	187.14	0.260	-1.210	2.210	187.05	-2.60	2.80	 	 	 	 	 	 	 	 	 	 	 	 	 	 	 	 	 	 	1581500633	7.49	13.87
12/02/2020 09:43:54	120220	12022020	094354	186.55	12.662777	-57.160793	186.64	0.290	-1.570	2.400	186.55	-2.90	3.00	 	 	 	 	 	 	 	 	 	 	 	 	 	 	 	 	 	 	1581500634	8.01	14.83
12/02/2020 09:43:55	120220	12022020	094355	186.04	12.662738	-57.160802	186.04	-0.010	-1.280	2.830	185.94	-2.40	3.40	 	 	 	 	 	 	 	 	 	 	 	 	 	 	 	 	 	 	1581500635	8.40	15.56
12/02/2020 09:43:56	120220	12022020	094356	185.85	12.662702	-57.160810	185.96	-0.730	-0.000	3.180	185.85	-1.10	3.80	 	 	 	 	 	 	 	 	 	 	 	 	 	 	 	 	 	 	1581500636	8.03	14.87
12/02/2020 09:43:57	120220	12022020	094357	186.26	12.662670	-57.160822	186.55	-1.400	1.620	3.210	186.42	0.50	3.70	 	 	 	 	 	 	 	 	 	 	 	 	 	 	 	 	 	 	1581500637	7.14	13.22
12/02/2020 09:43:58	120220	12022020	094358	187.16	12.662642	-57.160833	187.44	-1.340	2.370	2.660	187.33	1.00	3.10	 	 	 	 	 	 	 	 	 	 	 	 	 	 	 	 	 	 	1581500638	6.67	12.35
12/02/2020 09:43:59	120220	12022020	094359	187.93	12.662610	-57.160842	188.13	-0.290	1.450	1.800	188.02	-0.10	2.30	 	 	 	 	 	 	 	 	 	 	 	 	 	 	 	 	 	 	1581500639	7.15	13.24
12/02/2020 09:44:00	120220	12022020	094400	188.16	12.662570	-57.160845	188.24	1.160	-0.450	1.260	188.14	-2.00	1.80	 	 	 	 	 	 	 	 	 	 	 	 	 	 	 	 	 	 	1581500640	8.60	15.93
12/02/2020 09:44:01	120220	12022020	094401	188.01	12.662527	-57.160848	188.09	1.950	-1.670	1.140	187.98	-3.00	1.70	1015.00	26.10	26.20	20.70	20.80	-1.0	72.0	72.0	396.0	25.8	265.00	11.50	74.00	12.60	17	9737.0	27.5	27.4	1581500641	9.38	17.37
12/02/2020 09:44:02	120220	12022020	094402	187.93	12.662488	-57.160848	188.05	1.470	-1.410	1.420	187.93	-2.60	2.10	 	 	 	 	 	 	 	 	 	 	 	 	 	 	 	 	 	 	1581500642	8.33	15.43
12/02/2020 09:44:03	120220	12022020	094403	187.93	12.662457	-57.160853	188.06	0.180	-0.560	2.190	187.92	-1.80	2.90	 	 	 	 	 	 	 	 	 	 	 	 	 	 	 	 	 	 	1581500643	6.66	12.33
12/02/2020 09:44:04	120220	12022020	094404	187.80	12.662430	-57.160863	187.94	-0.920	-0.210	3.100	187.80	-1.50	3.80	 	 	 	 	 	 	 	 	 	 	 	 	 	 	 	 	 	 	1581500644	6.41	11.87
12/02/2020 09:44:05	120220	12022020	094405	187.55	12.662398	-57.160880	187.60	-1.100	-0.720	3.740	187.46	-2.10	4.40	 	 	 	 	 	 	 	 	 	 	 	 	 	 	 	 	 	 	1581500645	7.50	13.89
12/02/2020 09:44:06	120220	12022020	094406	186.90	12.662362	-57.160895	187.05	-0.500	-1.500	4.110	186.90	-2.90	4.70	 	 	 	 	 	 	 	 	 	 	 	 	 	 	 	 	 	 	1581500646	8.69	16.09
12/02/2020 09:44:07	120220	12022020	094407	186.55	12.662320	-57.160908	186.66	0.090	-1.460	4.010	186.52	-2.60	4.50	 	 	 	 	 	 	 	 	 	 	 	 	 	 	 	 	 	 	1581500647	9.11	16.87
12/02/2020 09:44:08	120220	12022020	094408	186.70	12.662283	-57.160917	186.83	0.040	-0.230	3.250	186.70	-1.30	3.70	 	 	 	 	 	 	 	 	 	 	 	 	 	 	 	 	 	 	1581500648	8.25	15.28
12/02/2020 09:44:09	120220	12022020	094409	187.26	12.662252	-57.160922	187.53	-0.510	1.320	2.180	187.26	0.20	2.60	 	 	 	 	 	 	 	 	 	 	 	 	 	 	 	 	 	 	1581500649	6.95	12.87
12/02/2020 09:44:10	120220	12022020	094410	188.27	12.662222	-57.160925	188.35	-0.850	2.030	1.330	188.27	0.70	1.80	 	 	 	 	 	 	 	 	 	 	 	 	 	 	 	 	 	 	1581500650	6.44	11.93
12/02/2020 09:44:11	120220	12022020	094411	188.84	12.662188	-57.160930	189.03	-0.520	1.620	0.650	188.96	0.20	1.20	 	 	 	 	 	 	 	 	 	 	 	 	 	 	 	 	 	 	1581500651	7.09	13.13
12/02/2020 09:44:12	120220	12022020	094412	189.37	12.662152	-57.160933	189.44	0.280	0.580	0.280	189.37	-0.90	0.90	 	 	 	 	 	 	 	 	 	 	 	 	 	 	 	 	 	 	1581500652	7.86	14.56
12/02/2020 09:44:13	120220	12022020	094413	189.36	12.662115	-57.160940	189.39	1.120	-0.610	0.430	189.31	-2.10	1.10	 	 	 	 	 	 	 	 	 	 	 	 	 	 	 	 	 	 	1581500653	8.10	15.00
12/02/2020 09:44:14	120220	12022020	094414	188.94	12.662078	-57.160943	189.03	1.580	-1.530	0.860	188.94	-2.90	1.50	 	 	 	 	 	 	 	 	 	 	 	 	 	 	 	 	 	 	1581500654	8.04	14.89
12/02/2020 09:44:15	120220	12022020	094415	188.39	12.662042	-57.160948	188.33	1.400	-2.100	1.810	188.22	-3.40	2.60	 	 	 	 	 	 	 	 	 	 	 	 	 	 	 	 	 	 	1581500655	7.84	14.52
12/02/2020 09:44:16	120220	12022020	094416	187.26	12.662007	-57.160955	187.40	0.570	-2.140	3.400	187.26	-3.40	4.20	 	 	 	 	 	 	 	 	 	 	 	 	 	 	 	 	 	 	1581500656	7.81	14.46
12/02/2020 09:44:17	120220	12022020	094417	186.56	12.661972	-57.160970	186.58	-0.560	-1.480	4.860	186.41	-2.60	5.60	 	 	 	 	 	 	 	 	 	 	 	 	 	 	 	 	 	 	1581500657	8.00	14.82
12/02/2020 09:44:18	120220	12022020	094418	185.94	12.661940	-57.160988	186.11	-1.450	-0.230	5.470	185.94	-1.30	6.00	 	 	 	 	 	 	 	 	 	 	 	 	 	 	 	 	 	 	1581500658	8.05	14.91
12/02/2020 09:44:19	120220	12022020	094419	186.11	12.661908	-57.161007	186.39	-1.760	1.060	4.950	186.24	-0.10	5.30	 	 	 	 	 	 	 	 	 	 	 	 	 	 	 	 	 	 	1581500659	7.72	14.30
12/02/2020 09:44:20	120220	12022020	094420	187.03	12.661877	-57.161020	187.16	-1.390	1.670	3.560	187.03	0.40	3.90	 	 	 	 	 	 	 	 	 	 	 	 	 	 	 	 	 	 	1581500660	7.25	13.43
12/02/2020 09:44:21	120220	12022020	094421	187.59	12.661843	-57.161028	187.78	-0.470	1.170	1.850	187.59	-0.30	2.20	 	 	 	 	 	 	 	 	 	 	 	 	 	 	 	 	 	 	1581500661	7.43	13.76
12/02/2020 09:44:22	120220	12022020	094422	187.92	12.661805	-57.161028	188.02	0.610	0.040	0.440	187.94	-1.40	0.90	 	 	 	 	 	 	 	 	 	 	 	 	 	 	 	 	 	 	1581500662	8.34	15.45
12/02/2020 09:44:23	120220	12022020	094423	187.98	12.661763	-57.161027	188.04	1.280	-0.770	-0.290	187.97	-2.10	0.30	 	 	 	 	 	 	 	 	 	 	 	 	 	 	 	 	 	 	1581500663	8.81	16.32
12/02/2020 09:44:24	120220	12022020	094424	187.89	12.661725	-57.161025	187.93	1.280	-0.940	-0.250	187.86	-2.20	0.40	 	 	 	 	 	 	 	 	 	 	 	 	 	 	 	 	 	 	1581500664	8.21	15.20
12/02/2020 09:44:25	120220	12022020	094425	187.69	12.661692	-57.161027	187.72	0.800	-0.680	0.540	187.64	-1.90	1.30	 	 	 	 	 	 	 	 	 	 	 	 	 	 	 	 	 	 	1581500665	7.38	13.67
12/02/2020 09:44:26	120220	12022020	094426	187.44	12.661660	-57.161033	187.50	0.130	-0.400	1.760	187.39	-1.70	2.50	 	 	 	 	 	 	 	 	 	 	 	 	 	 	 	 	 	 	1581500666	7.04	13.04
12/02/2020 09:44:27	120220	12022020	094427	187.17	12.661627	-57.161045	187.24	-0.420	-0.400	3.020	187.10	-1.70	3.70	 	 	 	 	 	 	 	 	 	 	 	 	 	 	 	 	 	 	1581500667	7.34	13.59
12/02/2020 09:44:28	120220	12022020	094428	186.72	12.661593	-57.161060	186.86	-0.660	-0.570	4.070	186.72	-1.90	4.70	 	 	 	 	 	 	 	 	 	 	 	 	 	 	 	 	 	 	1581500668	7.98	14.78
12/02/2020 09:44:29	120220	12022020	094429	186.46	12.661558	-57.161077	186.55	-0.560	-0.490	4.660	186.41	-1.80	5.20	 	 	 	 	 	 	 	 	 	 	 	 	 	 	 	 	 	 	1581500669	8.31	15.39
12/02/2020 09:44:30	120220	12022020	094430	186.34	12.661523	-57.161092	186.48	-0.230	-0.090	4.560	186.35	-1.30	5.00	 	 	 	 	 	 	 	 	 	 	 	 	 	 	 	 	 	 	1581500670	7.96	14.74
12/02/2020 09:44:31	120220	12022020	094431	186.42	12.661490	-57.161102	186.55	0.210	0.240	3.820	186.44	-1.10	4.20	 	 	 	 	 	 	 	 	 	 	 	 	 	 	 	 	 	 	1581500671	7.43	13.76
12/02/2020 09:44:32	120220	12022020	094432	186.65	12.661457	-57.161105	186.73	0.570	0.190	2.600	186.65	-1.20	3.00	 	 	 	 	 	 	 	 	 	 	 	 	 	 	 	 	 	 	1581500672	7.44	13.78
12/02/2020 09:44:33	120220	12022020	094433	187.01	12.661420	-57.161103	187.18	0.590	0.040	1.370	187.01	-1.30	1.80	 	 	 	 	 	 	 	 	 	 	 	 	 	 	 	 	 	 	1581500673	7.83	14.50
12/02/2020 09:44:34	120220	12022020	094434	187.61	12.661383	-57.161102	187.77	0.190	-0.000	0.560	187.71	-1.30	1.10	 	 	 	 	 	 	 	 	 	 	 	 	 	 	 	 	 	 	1581500674	7.67	14.20
12/02/2020 09:44:35	120220	12022020	094435	187.94	12.661350	-57.161103	188.00	-0.270	-0.350	0.470	187.94	-1.80	1.10	 	 	 	 	 	 	 	 	 	 	 	 	 	 	 	 	 	 	1581500675	7.24	13.41
12/02/2020 09:44:36	120220	12022020	094436	187.66	12.661315	-57.161110	187.62	-0.360	-1.090	1.190	187.54	-2.50	1.90	 	 	 	 	 	 	 	 	 	 	 	 	 	 	 	 	 	 	1581500676	7.58	14.04
12/02/2020 09:44:37	120220	12022020	094437	186.98	12.661278	-57.161122	186.96	-0.060	-1.570	2.310	186.85	-2.90	3.00	 	 	 	 	 	 	 	 	 	 	 	 	 	 	 	 	 	 	1581500677	8.33	15.43
12/02/2020 09:44:38	120220	12022020	094438	186.33	12.661242	-57.161135	186.35	0.310	-1.290	3.150	186.22	-2.50	3.80	 	 	 	 	 	 	 	 	 	 	 	 	 	 	 	 	 	 	1581500678	8.39	15.54
12/02/2020 09:44:39	120220	12022020	094439	185.93	12.661207	-57.161145	186.04	0.360	-0.360	3.380	185.92	-1.50	3.90	 	 	 	 	 	 	 	 	 	 	 	 	 	 	 	 	 	 	1581500679	7.81	14.46
12/02/2020 09:44:40	120220	12022020	094440	186.15	12.661175	-57.161153	186.25	-0.010	0.730	3.090	186.15	-0.50	3.60	 	 	 	 	 	 	 	 	 	 	 	 	 	 	 	 	 	 	1581500680	7.21	13.35
12/02/2020 09:44:41	120220	12022020	094441	186.55	12.661143	-57.161158	186.73	-0.480	1.380	2.620	186.65	0.10	3.10	 	 	 	 	 	 	 	 	 	 	 	 	 	 	 	 	 	 	1581500681	6.89	12.76
12/02/2020 09:44:42	120220	12022020	094442	186.96	12.661110	-57.161165	187.08	-0.550	1.150	2.180	187.02	-0.30	2.70	 	 	 	 	 	 	 	 	 	 	 	 	 	 	 	 	 	 	1581500682	7.09	13.13
12/02/2020 09:44:43	120220	12022020	094443	187.24	12.661075	-57.161170	187.38	-0.190	0.270	1.650	187.31	-1.20	2.10	 	 	 	 	 	 	 	 	 	 	 	 	 	 	 	 	 	 	1581500683	7.81	14.46
12/02/2020 09:44:44	120220	12022020	094444	187.65	12.661037	-57.161175	187.81	0.170	-0.590	1.260	187.73	-2.00	1.80	 	 	 	 	 	 	 	 	 	 	 	 	 	 	 	 	 	 	1581500684	8.21	15.20
12/02/2020 09:44:45	120220	12022020	094445	187.90	12.661000	-57.161182	187.97	0.300	-1.150	1.490	187.88	-2.50	2.10	 	 	 	 	 	 	 	 	 	 	 	 	 	 	 	 	 	 	1581500685	7.95	14.72
12/02/2020 09:44:46	120220	12022020	094446	187.53	12.660967	-57.161192	187.46	0.380	-1.440	2.190	187.37	-2.80	2.90	 	 	 	 	 	 	 	 	 	 	 	 	 	 	 	 	 	 	1581500686	7.62	14.11
12/02/2020 09:44:47	120220	12022020	094447	186.72	12.660932	-57.161200	186.69	0.480	-1.260	2.890	186.59	-2.50	3.50	 	 	 	 	 	 	 	 	 	 	 	 	 	 	 	 	 	 	1581500687	7.66	14.19
12/02/2020 09:44:48	120220	12022020	094448	186.20	12.660898	-57.161208	186.25	0.420	-0.540	3.280	186.15	-1.70	3.90	 	 	 	 	 	 	 	 	 	 	 	 	 	 	 	 	 	 	1581500688	7.48	13.85
12/02/2020 09:44:49	120220	12022020	094449	186.09	12.660865	-57.161215	186.20	0.170	0.160	3.290	186.10	-1.10	3.80	 	 	 	 	 	 	 	 	 	 	 	 	 	 	 	 	 	 	1581500689	7.12	13.19
12/02/2020 09:44:50	120220	12022020	094450	186.16	12.660832	-57.161222	186.27	-0.100	0.340	3.030	186.18	-1.00	3.50	 	 	 	 	 	 	 	 	 	 	 	 	 	 	 	 	 	 	1581500690	7.23	13.39
12/02/2020 09:44:51	120220	12022020	094451	186.32	12.660797	-57.161227	186.46	-0.280	0.180	2.600	186.38	-1.20	3.10	 	 	 	 	 	 	 	 	 	 	 	 	 	 	 	 	 	 	1581500691	7.80	14.45
12/02/2020 09:44:52	120220	12022020	094452	186.66	12.660760	-57.161233	186.80	-0.380	0.110	2.160	186.74	-1.20	2.70	 	 	 	 	 	 	 	 	 	 	 	 	 	 	 	 	 	 	1581500692	7.98	14.78
12/02/2020 09:44:53	120220	12022020	094453	186.94	12.660725	-57.161240	187.01	-0.370	0.060	1.920	186.96	-1.30	2.50	 	 	 	 	 	 	 	 	 	 	 	 	 	 	 	 	 	 	1581500693	7.64	14.15
12/02/2020 09:44:54	120220	12022020	094454	186.91	12.660690	-57.161247	186.92	-0.220	-0.290	2.000	186.87	-1.70	2.60	 	 	 	 	 	 	 	 	 	 	 	 	 	 	 	 	 	 	1581500694	7.55	13.98
12/02/2020 09:44:55	120220	12022020	094455	186.63	12.660655	-57.161255	186.61	-0.030	-0.710	2.260	186.55	-2.10	2.90	 	 	 	 	 	 	 	 	 	 	 	 	 	 	 	 	 	 	1581500695	7.90	14.63
12/02/2020 09:44:56	120220	12022020	094456	186.26	12.660618	-57.161263	186.27	0.060	-0.780	2.600	186.20	-2.10	3.20	 	 	 	 	 	 	 	 	 	 	 	 	 	 	 	 	 	 	1581500696	8.05	14.91
12/02/2020 09:44:57	120220	12022020	094457	186.06	12.660583	-57.161272	186.13	0.010	-0.340	2.810	186.05	-1.60	3.40	 	 	 	 	 	 	 	 	 	 	 	 	 	 	 	 	 	 	1581500697	7.77	14.39
12/02/2020 09:44:58	120220	12022020	094458	186.09	12.660550	-57.161280	186.18	-0.070	0.230	2.710	186.10	-1.00	3.20	 	 	 	 	 	 	 	 	 	 	 	 	 	 	 	 	 	 	1581500698	7.27	13.46
12/02/2020 09:44:59	120220	12022020	094459	186.18	12.660517	-57.161285	186.27	-0.040	0.370	2.370	186.20	-1.00	2.90	 	 	 	 	 	 	 	 	 	 	 	 	 	 	 	 	 	 	1581500699	7.11	13.17
12/02/2020 09:45:00	120220	12022020	094500	186.42	12.660483	-57.161290	186.49	0.070	0.060	1.890	186.42	-1.30	2.40	 	 	 	 	 	 	 	 	 	 	 	 	 	 	 	 	 	 	1581500700	7.55	13.98
12/02/2020 09:45:01	120220	12022020	094501	186.76	12.660447	-57.161293	186.89	0.180	-0.330	1.320	186.83	-1.70	1.80	1015.00	26.20	26.20	20.70	20.80	-1.0	71.0	72.0	397.0	25.8	262.00	11.70	72.00	12.80	17	8977.0	27.5	27.4	1581500701	7.88	14.59
12/02/2020 09:45:02	120220	12022020	094502	186.98	12.660410	-57.161297	187.04	0.280	-0.730	1.120	186.98	-2.10	1.70	 	 	 	 	 	 	 	 	 	 	 	 	 	 	 	 	 	 	1581500702	7.78	14.41
12/02/2020 09:45:03	120220	12022020	094503	186.70	12.660373	-57.161302	186.66	0.390	-1.030	1.600	186.58	-2.40	2.30	 	 	 	 	 	 	 	 	 	 	 	 	 	 	 	 	 	 	1581500703	7.82	14.48
12/02/2020 09:45:04	120220	12022020	094504	186.07	12.660338	-57.161308	186.05	0.330	-0.810	2.450	185.94	-2.10	3.10	 	 	 	 	 	 	 	 	 	 	 	 	 	 	 	 	 	 	1581500704	7.91	14.65
12/02/2020 09:45:05	120220	12022020	094505	185.60	12.660303	-57.161317	185.67	-0.030	-0.140	3.130	185.55	-1.40	3.70	 	 	 	 	 	 	 	 	 	 	 	 	 	 	 	 	 	 	1581500705	7.60	14.08
12/02/2020 09:45:06	120220	12022020	094506	185.57	12.660270	-57.161325	185.73	-0.520	0.390	3.510	185.61	-0.90	4.10	 	 	 	 	 	 	 	 	 	 	 	 	 	 	 	 	 	 	1581500706	7.28	13.48
12/02/2020 09:45:07	120220	12022020	094507	185.79	12.660237	-57.161337	185.95	-0.830	0.320	3.660	185.83	-1.00	4.20	 	 	 	 	 	 	 	 	 	 	 	 	 	 	 	 	 	 	1581500707	7.50	13.89
12/02/2020 09:45:08	120220	12022020	094508	186.08	12.660202	-57.161347	186.18	-0.720	-0.150	3.380	186.08	-1.50	3.90	 	 	 	 	 	 	 	 	 	 	 	 	 	 	 	 	 	 	1581500708	8.11	15.02
12/02/2020 09:45:09	120220	12022020	094509	186.37	12.660163	-57.161357	186.54	-0.340	-0.410	2.640	186.46	-1.70	3.10	 	 	 	 	 	 	 	 	 	 	 	 	 	 	 	 	 	 	1581500709	8.34	15.45
12/02/2020 09:45:10	120220	12022020	094510	186.83	12.660128	-57.161363	186.97	0.080	-0.200	1.630	186.92	-1.50	2.10	 	 	 	 	 	 	 	 	 	 	 	 	 	 	 	 	 	 	1581500710	7.81	14.46
12/02/2020 09:45:11	120220	12022020	094511	187.10	12.660095	-57.161365	187.13	0.410	-0.090	0.780	187.10	-1.40	1.30	 	 	 	 	 	 	 	 	 	 	 	 	 	 	 	 	 	 	1581500711	7.21	13.35
12/02/2020 09:45:12	120220	12022020	094512	186.85	12.660060	-57.161365	186.88	0.620	-0.430	0.570	186.85	-1.80	1.20	 	 	 	 	 	 	 	 	 	 	 	 	 	 	 	 	 	 	1581500712	7.43	13.76
12/02/2020 09:45:13	120220	12022020	094513	186.44	12.660023	-57.161367	186.43	0.610	-0.810	0.930	186.36	-2.10	1.60	 	 	 	 	 	 	 	 	 	 	 	 	 	 	 	 	 	 	1581500713	8.02	14.85
12/02/2020 09:45:14	120220	12022020	094514	186.16	12.659985	-57.161372	186.26	0.280	-0.490	1.410	186.16	-1.70	2.00	 	 	 	 	 	 	 	 	 	 	 	 	 	 	 	 	 	 	1581500714	8.14	15.08
12/02/2020 09:45:15	120220	12022020	094515	186.33	12.659952	-57.161378	186.51	-0.300	0.340	1.860	186.41	-0.90	2.50	 	 	 	 	 	 	 	 	 	 	 	 	 	 	 	 	 	 	1581500715	7.41	13.72
12/02/2020 09:45:16	120220	12022020	094516	186.64	12.659920	-57.161387	186.75	-0.760	0.650	2.480	186.64	-0.70	3.10	 	 	 	 	 	 	 	 	 	 	 	 	 	 	 	 	 	 	1581500716	6.88	12.74
12/02/2020 09:45:17	120220	12022020	094517	186.60	12.659888	-57.161400	186.67	-0.710	0.030	3.250	186.55	-1.40	3.90	 	 	 	 	 	 	 	 	 	 	 	 	 	 	 	 	 	 	1581500717	7.54	13.96
12/02/2020 09:45:18	120220	12022020	094518	186.24	12.659850	-57.161413	186.34	-0.180	-0.880	3.800	186.24	-2.30	4.40	 	 	 	 	 	 	 	 	 	 	 	 	 	 	 	 	 	 	1581500718	8.56	15.85
12/02/2020 09:45:19	120220	12022020	094519	185.97	12.659812	-57.161425	186.00	0.400	-1.220	3.760	185.91	-2.50	4.30	 	 	 	 	 	 	 	 	 	 	 	 	 	 	 	 	 	 	1581500719	8.72	16.15
12/02/2020 09:45:20	120220	12022020	094520	185.75	12.659775	-57.161432	185.83	0.560	-0.760	3.160	185.75	-2.00	3.60	 	 	 	 	 	 	 	 	 	 	 	 	 	 	 	 	 	 	1581500720	8.04	14.89
12/02/2020 09:45:21	120220	12022020	094521	185.89	12.659742	-57.161435	186.02	0.200	0.090	2.330	185.96	-1.10	2.80	 	 	 	 	 	 	 	 	 	 	 	 	 	 	 	 	 	 	1581500721	7.21	13.35
12/02/2020 09:45:22	120220	12022020	094522	186.37	12.659710	-57.161435	186.42	-0.300	0.560	1.470	186.37	-0.80	1.90	 	 	 	 	 	 	 	 	 	 	 	 	 	 	 	 	 	 	1581500722	6.81	12.61
12/02/2020 09:45:23	120220	12022020	094523	186.65	12.659677	-57.161438	186.75	-0.520	0.250	0.900	186.70	-1.20	1.40	 	 	 	 	 	 	 	 	 	 	 	 	 	 	 	 	 	 	1581500723	7.22	13.37
12/02/2020 09:45:24	120220	12022020	094524	186.76	12.659638	-57.161443	186.80	-0.320	-0.440	1.000	186.74	-1.90	1.60	 	 	 	 	 	 	 	 	 	 	 	 	 	 	 	 	 	 	1581500724	8.02	14.85
12/02/2020 09:45:25	120220	12022020	094525	186.57	12.659602	-57.161452	186.60	0.140	-0.820	1.510	186.57	-2.20	2.10	 	 	 	 	 	 	 	 	 	 	 	 	 	 	 	 	 	 	1581500725	8.39	15.54
12/02/2020 09:45:26	120220	12022020	094526	186.26	12.659565	-57.161460	186.29	0.430	-0.670	2.050	186.19	-1.90	2.70	 	 	 	 	 	 	 	 	 	 	 	 	 	 	 	 	 	 	1581500726	8.06	14.93
12/02/2020 09:45:27	120220	12022020	094527	185.86	12.659530	-57.161467	185.86	0.410	-0.340	2.530	185.76	-1.60	3.20	 	 	 	 	 	 	 	 	 	 	 	 	 	 	 	 	 	 	1581500727	7.59	14.06
12/02/2020 09:45:28	120220	12022020	094528	185.37	12.659495	-57.161472	185.40	0.180	-0.230	3.040	185.28	-1.60	3.70	 	 	 	 	 	 	 	 	 	 	 	 	 	 	 	 	 	 	1581500728	7.59	14.06
12/02/2020 09:45:29	120220	12022020	094529	185.10	12.659458	-57.161480	185.22	-0.150	-0.130	3.280	185.10	-1.40	3.80	 	 	 	 	 	 	 	 	 	 	 	 	 	 	 	 	 	 	1581500729	7.99	14.80
12/02/2020 09:45:30	120220	12022020	094530	185.32	12.659423	-57.161488	185.55	-0.510	0.290	3.040	185.43	-1.00	3.50	 	 	 	 	 	 	 	 	 	 	 	 	 	 	 	 	 	 	1581500730	7.92	14.67
12/02/2020 09:45:31	120220	12022020	094531	185.91	12.659390	-57.161497	186.12	-0.710	0.690	2.490	186.03	-0.60	3.00	 	 	 	 	 	 	 	 	 	 	 	 	 	 	 	 	 	 	1581500731	7.33	13.58
12/02/2020 09:45:32	120220	12022020	094532	186.42	12.659357	-57.161503	186.49	-0.510	0.360	1.970	186.42	-1.10	2.50	 	 	 	 	 	 	 	 	 	 	 	 	 	 	 	 	 	 	1581500732	7.13	13.20
12/02/2020 09:45:33	120220	12022020	094533	186.51	12.659322	-57.161510	186.56	-0.050	-0.540	1.730	186.51	-2.00	2.30	 	 	 	 	 	 	 	 	 	 	 	 	 	 	 	 	 	 	1581500733	7.82	14.48
12/02/2020 09:45:34	120220	12022020	094534	186.44	12.659283	-57.161515	186.48	0.300	-1.210	1.860	186.42	-2.60	2.40	 	 	 	 	 	 	 	 	 	 	 	 	 	 	 	 	 	 	1581500734	8.36	15.48
12/02/2020 09:45:35	120220	12022020	094535	186.27	12.659245	-57.161522	186.31	0.420	-1.160	2.000	186.23	-2.40	2.60	 	 	 	 	 	 	 	 	 	 	 	 	 	 	 	 	 	 	1581500735	8.12	15.04
12/02/2020 09:45:36	120220	12022020	094536	186.08	12.659212	-57.161528	186.16	0.410	-0.680	2.000	186.08	-1.90	2.50	 	 	 	 	 	 	 	 	 	 	 	 	 	 	 	 	 	 	1581500736	7.55	13.98
12/02/2020 09:45:37	120220	12022020	094537	186.02	12.659177	-57.161535	186.09	0.470	-0.210	1.850	186.01	-1.50	2.40	 	 	 	 	 	 	 	 	 	 	 	 	 	 	 	 	 	 	1581500737	7.32	13.56
12/02/2020 09:45:38	120220	12022020	094538	185.98	12.659143	-57.161538	186.05	0.610	0.040	1.580	185.98	-1.30	2.10	 	 	 	 	 	 	 	 	 	 	 	 	 	 	 	 	 	 	1581500738	7.50	13.89
12/02/2020 09:45:39	120220	12022020	094539	186.08	12.659107	-57.161540	186.19	0.480	0.160	1.340	186.10	-1.20	1.90	 	 	 	 	 	 	 	 	 	 	 	 	 	 	 	 	 	 	1581500739	7.84	14.52
12/02/2020 09:45:40	120220	12022020	094540	186.18	12.659070	-57.161542	186.27	-0.120	0.060	1.760	186.16	-1.30	2.40	 	 	 	 	 	 	 	 	 	 	 	 	 	 	 	 	 	 	1581500740	7.88	14.59
12/02/2020 09:45:41	120220	12022020	094541	186.03	12.659033	-57.161548	186.11	-0.890	-0.320	2.710	185.97	-1.70	3.40	 	 	 	 	 	 	 	 	 	 	 	 	 	 	 	 	 	 	1581500741	8.01	14.83
12/02/2020 09:45:42	120220	12022020	094542	185.69	12.658997	-57.161563	185.83	-1.400	-0.590	3.580	185.69	-1.90	4.20	 	 	 	 	 	 	 	 	 	 	 	 	 	 	 	 	 	 	1581500742	8.50	15.74
12/02/2020 09:45:43	120220	12022020	094543	185.49	12.658960	-57.161580	185.61	-1.320	-0.470	4.110	185.45	-1.70	4.70	 	 	 	 	 	 	 	 	 	 	 	 	 	 	 	 	 	 	1581500743	8.56	15.85
12/02/2020 09:45:44	120220	12022020	094544	185.41	12.658925	-57.161597	185.54	-0.650	-0.120	3.870	185.41	-1.40	4.30	 	 	 	 	 	 	 	 	 	 	 	 	 	 	 	 	 	 	1581500744	8.14	15.08
12/02/2020 09:45:45	120220	12022020	094545	185.46	12.658892	-57.161605	185.59	0.330	0.140	2.810	185.47	-1.20	3.20	 	 	 	 	 	 	 	 	 	 	 	 	 	 	 	 	 	 	1581500745	7.59	14.06
12/02/2020 09:45:46	120220	12022020	094546	185.61	12.658857	-57.161607	185.70	1.130	0.160	1.450	185.61	-1.20	1.80	 	 	 	 	 	 	 	 	 	 	 	 	 	 	 	 	 	 	1581500746	7.56	14.00
12/02/2020 09:45:47	120220	12022020	094547	185.84	12.658820	-57.161603	186.00	1.380	0.020	0.350	185.92	-1.30	0.80	 	 	 	 	 	 	 	 	 	 	 	 	 	 	 	 	 	 	1581500747	7.88	14.59
12/02/2020 09:45:48	120220	12022020	094548	186.22	12.658783	-57.161598	186.39	1.060	-0.170	-0.130	186.29	-1.50	0.40	 	 	 	 	 	 	 	 	 	 	 	 	 	 	 	 	 	 	1581500748	7.87	14.58
12/02/2020 09:45:49	120220	12022020	094549	186.49	12.658748	-57.161598	186.63	0.470	-0.500	0.230	186.51	-1.90	0.90	 	 	 	 	 	 	 	 	 	 	 	 	 	 	 	 	 	 	1581500749	7.66	14.19
12/02/2020 09:45:50	120220	12022020	094550	186.42	12.658713	-57.161603	186.57	-0.020	-0.980	1.250	186.42	-2.40	2.00	 	 	 	 	 	 	 	 	 	 	 	 	 	 	 	 	 	 	1581500750	7.78	14.41
12/02/2020 09:45:51	120220	12022020	094551	186.17	12.658677	-57.161615	186.28	-0.320	-1.300	2.510	186.11	-2.60	3.20	 	 	 	 	 	 	 	 	 	 	 	 	 	 	 	 	 	 	1581500751	8.21	15.20
12/02/2020 09:45:52	120220	12022020	094552	185.80	12.658640	-57.161628	185.96	-0.470	-1.160	3.530	185.80	-2.40	4.20	 	 	 	 	 	 	 	 	 	 	 	 	 	 	 	 	 	 	1581500752	8.41	15.58
12/02/2020 09:45:53	120220	12022020	094553	185.59	12.658603	-57.161642	185.72	-0.560	-0.550	3.910	185.55	-1.70	4.50	 	 	 	 	 	 	 	 	 	 	 	 	 	 	 	 	 	 	1581500753	8.14	15.08
12/02/2020 09:45:54	120220	12022020	094554	185.48	12.658570	-57.161652	185.63	-0.600	0.230	3.730	185.48	-1.00	4.20	 	 	 	 	 	 	 	 	 	 	 	 	 	 	 	 	 	 	1581500754	7.69	14.24
12/02/2020 09:45:55	120220	12022020	094555	185.55	12.658535	-57.161658	185.73	-0.570	0.660	3.170	185.60	-0.60	3.60	 	 	 	 	 	 	 	 	 	 	 	 	 	 	 	 	 	 	1581500755	7.50	13.89
12/02/2020 09:45:56	120220	12022020	094556	185.94	12.658500	-57.161663	186.05	-0.410	0.580	2.300	185.94	-0.80	2.70	 	 	 	 	 	 	 	 	 	 	 	 	 	 	 	 	 	 	1581500756	7.78	14.41
12/02/2020 09:45:57	120220	12022020	094557	186.25	12.658462	-57.161667	186.41	-0.050	0.250	1.370	186.32	-1.10	1.80	 	 	 	 	 	 	 	 	 	 	 	 	 	 	 	 	 	 	1581500757	8.09	14.98
12/02/2020 09:45:58	120220	12022020	094558	186.58	12.658423	-57.161668	186.67	0.440	-0.070	0.620	186.58	-1.40	1.10	 	 	 	 	 	 	 	 	 	 	 	 	 	 	 	 	 	 	1581500758	8.16	15.11
12/02/2020 09:45:59	120220	12022020	094559	186.81	12.658387	-57.161670	186.97	0.780	-0.220	0.190	186.88	-1.60	0.80	 	 	 	 	 	 	 	 	 	 	 	 	 	 	 	 	 	 	1581500759	8.04	14.89
12/02/2020 09:46:00	120220	12022020	094600	187.26	12.658350	-57.161670	187.36	0.690	-0.240	0.240	187.26	-1.60	0.90	 	 	 	 	 	 	 	 	 	 	 	 	 	 	 	 	 	 	1581500760	7.73	14.32
12/02/2020 09:46:01	120220	12022020	094601	187.43	12.658317	-57.161673	187.53	0.280	-0.370	0.910	187.42	-1.70	1.60	1015.00	26.10	26.20	20.50	20.60	-1.0	71.0	71.0	397.0	25.8	263.00	11.30	71.00	12.40	17	8712.0	27.5	27.4	1581500761	7.41	13.72
12/02/2020 09:46:02	120220	12022020	094602	187.21	12.658283	-57.161683	187.33	-0.050	-0.670	1.940	187.21	-2.00	2.60	 	 	 	 	 	 	 	 	 	 	 	 	 	 	 	 	 	 	1581500762	7.61	14.09
12/02/2020 09:46:03	120220	12022020	094603	186.96	12.658247	-57.161697	187.02	-0.080	-0.940	2.740	186.91	-2.30	3.40	 	 	 	 	 	 	 	 	 	 	 	 	 	 	 	 	 	 	1581500763	8.05	14.91
12/02/2020 09:46:04	120220	12022020	094604	186.59	12.658212	-57.161708	186.68	0.120	-1.050	3.100	186.59	-2.40	3.70	 	 	 	 	 	 	 	 	 	 	 	 	 	 	 	 	 	 	1581500764	8.15	15.09
12/02/2020 09:46:05	120220	12022020	094605	186.35	12.658173	-57.161717	186.40	0.270	-0.900	3.160	186.30	-2.20	3.70	 	 	 	 	 	 	 	 	 	 	 	 	 	 	 	 	 	 	1581500765	8.13	15.06
12/02/2020 09:46:06	120220	12022020	094606	186.21	12.658137	-57.161722	186.30	0.050	-0.360	2.870	186.21	-1.60	3.40	 	 	 	 	 	 	 	 	 	 	 	 	 	 	 	 	 	 	1581500766	8.02	14.85
12/02/2020 09:46:07	120220	12022020	094607	186.33	12.658102	-57.161727	186.46	-0.490	0.330	2.410	186.38	-0.90	2.90	 	 	 	 	 	 	 	 	 	 	 	 	 	 	 	 	 	 	1581500767	7.66	14.19
12/02/2020 09:46:08	120220	12022020	094608	186.63	12.658068	-57.161732	186.71	-0.900	0.660	2.010	186.63	-0.70	2.50	 	 	 	 	 	 	 	 	 	 	 	 	 	 	 	 	 	 	1581500768	7.47	13.83
12/02/2020 09:46:09	120220	12022020	094609	186.75	12.658032	-57.161740	186.86	-0.730	0.460	1.590	186.79	-0.90	2.10	 	 	 	 	 	 	 	 	 	 	 	 	 	 	 	 	 	 	1581500769	7.81	14.46
12/02/2020 09:46:10	120220	12022020	094610	186.98	12.657995	-57.161747	187.13	-0.070	0.200	0.930	187.07	-1.20	1.40	 	 	 	 	 	 	 	 	 	 	 	 	 	 	 	 	 	 	1581500770	8.25	15.28
12/02/2020 09:46:11	120220	12022020	094611	187.53	12.657957	-57.161750	187.73	0.520	0.120	0.310	187.66	-1.20	0.80	 	 	 	 	 	 	 	 	 	 	 	 	 	 	 	 	 	 	1581500771	8.09	14.98
12/02/2020 09:46:12	120220	12022020	094612	188.12	12.657922	-57.161752	188.19	0.690	-0.180	0.220	188.12	-1.60	0.90	 	 	 	 	 	 	 	 	 	 	 	 	 	 	 	 	 	 	1581500772	7.66	14.19
12/02/2020 09:46:13	120220	12022020	094613	187.92	12.657885	-57.161755	187.87	0.590	-1.010	1.080	187.78	-2.50	1.80	 	 	 	 	 	 	 	 	 	 	 	 	 	 	 	 	 	 	1581500773	7.76	14.37
12/02/2020 09:46:14	120220	12022020	094614	187.05	12.657847	-57.161765	186.98	0.360	-1.630	2.500	186.86	-3.00	3.30	 	 	 	 	 	 	 	 	 	 	 	 	 	 	 	 	 	 	1581500774	8.48	15.70
12/02/2020 09:46:15	120220	12022020	094615	186.29	12.657810	-57.161778	186.32	0.020	-1.070	3.550	186.21	-2.20	4.20	 	 	 	 	 	 	 	 	 	 	 	 	 	 	 	 	 	 	1581500775	8.60	15.93
12/02/2020 09:46:16	120220	12022020	094616	186.13	12.657777	-57.161790	186.28	-0.340	0.130	3.790	186.16	-1.00	4.30	 	 	 	 	 	 	 	 	 	 	 	 	 	 	 	 	 	 	1581500776	7.56	14.00
12/02/2020 09:46:17	120220	12022020	094617	186.41	12.657745	-57.161800	186.60	-0.500	0.840	3.300	186.49	-0.50	3.70	 	 	 	 	 	 	 	 	 	 	 	 	 	 	 	 	 	 	1581500777	6.90	12.78
12/02/2020 09:46:18	120220	12022020	094618	186.82	12.657712	-57.161807	186.98	-0.310	0.560	2.430	186.90	-0.90	2.90	 	 	 	 	 	 	 	 	 	 	 	 	 	 	 	 	 	 	1581500778	7.34	13.59
12/02/2020 09:46:19	120220	12022020	094619	187.03	12.657675	-57.161812	187.09	0.140	-0.220	1.780	187.03	-1.70	2.30	 	 	 	 	 	 	 	 	 	 	 	 	 	 	 	 	 	 	1581500779	8.24	15.26
12/02/2020 09:46:20	120220	12022020	094620	186.94	12.657635	-57.161817	186.97	0.510	-0.780	1.550	186.91	-2.10	2.10	 	 	 	 	 	 	 	 	 	 	 	 	 	 	 	 	 	 	1581500780	8.66	16.04
12/02/2020 09:46:21	120220	12022020	094621	186.88	12.657595	-57.161820	186.97	0.460	-0.690	1.570	186.91	-2.00	2.20	 	 	 	 	 	 	 	 	 	 	 	 	 	 	 	 	 	 	1581500781	8.35	15.46
12/02/2020 09:46:22	120220	12022020	094622	187.14	12.657560	-57.161825	187.29	0.020	-0.140	1.640	187.23	-1.40	2.20	 	 	 	 	 	 	 	 	 	 	 	 	 	 	 	 	 	 	1581500782	7.61	14.09
12/02/2020 09:46:23	120220	12022020	094623	187.61	12.657528	-57.161832	187.78	-0.430	0.260	1.690	187.71	-1.10	2.30	 	 	 	 	 	 	 	 	 	 	 	 	 	 	 	 	 	 	1581500783	7.11	13.17
12/02/2020 09:46:24	120220	12022020	094624	188.02	12.657495	-57.161840	188.12	-0.450	0.000	1.650	188.04	-1.40	2.20	 	 	 	 	 	 	 	 	 	 	 	 	 	 	 	 	 	 	1581500784	7.27	13.46
12/02/2020 09:46:25	120220	12022020	094625	187.89	12.657458	-57.161848	187.84	-0.000	-0.980	1.950	187.77	-2.50	2.60	 	 	 	 	 	 	 	 	 	 	 	 	 	 	 	 	 	 	1581500785	8.03	14.87
12/02/2020 09:46:26	120220	12022020	094626	186.79	12.657418	-57.161857	186.88	0.470	-1.850	2.840	186.79	-3.20	3.50	 	 	 	 	 	 	 	 	 	 	 	 	 	 	 	 	 	 	1581500786	8.97	16.61
12/02/2020 09:46:27	120220	12022020	094627	185.97	12.657377	-57.161867	185.93	0.500	-1.450	3.490	185.97	-2.60	4.10	 	 	 	 	 	 	 	 	 	 	 	 	 	 	 	 	 	 	1581500787	9.17	16.98
12/02/2020 09:46:28	120220	12022020	094628	185.71	12.657340	-57.161877	185.87	-0.010	0.380	3.400	185.77	-0.70	3.90	 	 	 	 	 	 	 	 	 	 	 	 	 	 	 	 	 	 	1581500788	7.97	14.76
12/02/2020 09:46:29	120220	12022020	094629	186.32	12.657312	-57.161882	186.57	-0.620	2.010	2.810	186.48	0.80	3.30	 	 	 	 	 	 	 	 	 	 	 	 	 	 	 	 	 	 	1581500789	6.38	11.82
12/02/2020 09:46:30	120220	12022020	094630	187.18	12.657282	-57.161887	187.39	-0.800	1.920	2.120	187.33	0.40	2.60	 	 	 	 	 	 	 	 	 	 	 	 	 	 	 	 	 	 	1581500790	6.47	11.98
12/02/2020 09:46:31	120220	12022020	094631	187.72	12.657245	-57.161893	187.85	-0.380	0.250	1.960	187.77	-1.40	2.60	 	 	 	 	 	 	 	 	 	 	 	 	 	 	 	 	 	 	1581500791	8.01	14.83
12/02/2020 09:46:32	120220	12022020	094632	187.79	12.657202	-57.161902	187.83	0.320	-1.560	2.290	187.75	-3.10	2.90	 	 	 	 	 	 	 	 	 	 	 	 	 	 	 	 	 	 	1581500792	9.39	17.39
12/02/2020 09:46:33	120220	12022020	094633	187.48	12.657160	-57.161913	187.47	0.830	-2.040	2.650	187.39	-3.30	3.30	 	 	 	 	 	 	 	 	 	 	 	 	 	 	 	 	 	 	1581500793	9.33	17.28
12/02/2020 09:46:34	120220	12022020	094634	186.88	12.657125	-57.161922	186.96	0.870	-1.180	2.850	186.88	-2.40	3.40	 	 	 	 	 	 	 	 	 	 	 	 	 	 	 	 	 	 	1581500794	7.90	14.63
12/02/2020 09:46:35	120220	12022020	094635	186.53	12.657093	-57.161927	186.54	0.500	-0.130	2.650	186.48	-1.40	3.20	 	 	 	 	 	 	 	 	 	 	 	 	 	 	 	 	 	 	1581500795	6.74	12.48
12/02/2020 09:46:36	120220	12022020	094636	186.48	12.657062	-57.161930	186.56	-0.060	0.370	2.150	186.51	-1.00	2.70	 	 	 	 	 	 	 	 	 	 	 	 	 	 	 	 	 	 	1581500796	6.88	12.74
12/02/2020 09:46:37	120220	12022020	094637	186.69	12.657027	-57.161933	186.79	-0.460	0.270	1.900	186.74	-1.10	2.50	 	 	 	 	 	 	 	 	 	 	 	 	 	 	 	 	 	 	1581500797	7.50	13.89
12/02/2020 09:46:38	120220	12022020	094638	186.86	12.656990	-57.161942	186.93	-0.450	-0.150	1.950	186.87	-1.60	2.50	 	 	 	 	 	 	 	 	 	 	 	 	 	 	 	 	 	 	1581500798	8.12	15.04
12/02/2020 09:46:39	120220	12022020	094639	186.94	12.656952	-57.161952	187.04	-0.140	-0.460	2.050	186.94	-1.80	2.60	 	 	 	 	 	 	 	 	 	 	 	 	 	 	 	 	 	 	1581500799	8.49	15.72
12/02/2020 09:46:40	120220	12022020	094640	187.21	12.656915	-57.161960	187.29	0.130	-0.420	2.100	187.21	-1.70	2.70	 	 	 	 	 	 	 	 	 	 	 	 	 	 	 	 	 	 	1581500800	8.33	15.43
12/02/2020 09:46:41	120220	12022020	094641	187.54	12.656878	-57.161967	187.70	0.100	-0.140	1.990	187.61	-1.40	2.50	 	 	 	 	 	 	 	 	 	 	 	 	 	 	 	 	 	 	1581500801	7.86	14.56
12/02/2020 09:46:42	120220	12022020	094642	187.87	12.656843	-57.161973	187.97	-0.120	0.030	1.850	187.89	-1.30	2.40	 	 	 	 	 	 	 	 	 	 	 	 	 	 	 	 	 	 	1581500802	7.45	13.80
12/02/2020 09:46:43	120220	12022020	094643	187.75	12.656810	-57.161978	187.72	-0.210	-0.320	2.080	187.65	-1.80	2.70	 	 	 	 	 	 	 	 	 	 	 	 	 	 	 	 	 	 	1581500803	7.55	13.98
12/02/2020 09:46:44	120220	12022020	094644	187.01	12.656772	-57.161987	187.09	-0.050	-0.930	2.530	187.01	-2.30	3.20	 	 	 	 	 	 	 	 	 	 	 	 	 	 	 	 	 	 	1581500804	8.26	15.30
12/02/2020 09:46:45	120220	12022020	094645	186.53	12.656733	-57.161995	186.54	0.080	-0.980	2.830	186.44	-2.30	3.40	 	 	 	 	 	 	 	 	 	 	 	 	 	 	 	 	 	 	1581500805	8.70	16.11
12/02/2020 09:46:46	120220	12022020	094646	186.33	12.656695	-57.162005	186.42	-0.080	-0.250	2.800	186.33	-1.50	3.30	 	 	 	 	 	 	 	 	 	 	 	 	 	 	 	 	 	 	1581500806	8.17	15.13
12/02/2020 09:46:47	120220	12022020	094647	186.61	12.656662	-57.162012	186.80	-0.440	0.710	2.320	186.73	-0.50	2.80	 	 	 	 	 	 	 	 	 	 	 	 	 	 	 	 	 	 	1581500807	7.34	13.59
12/02/2020 09:46:48	120220	12022020	094648	187.22	12.656630	-57.162020	187.40	-0.600	1.130	1.620	187.35	-0.20	2.10	 	 	 	 	 	 	 	 	 	 	 	 	 	 	 	 	 	 	1581500808	6.99	12.95
12/02/2020 09:46:49	120220	12022020	094649	187.75	12.656597	-57.162027	187.88	-0.180	0.690	0.940	187.83	-0.80	1.40	 	 	 	 	 	 	 	 	 	 	 	 	 	 	 	 	 	 	1581500809	7.41	13.72
12/02/2020 09:46:50	120220	12022020	094650	188.14	12.656558	-57.162032	188.25	0.600	-0.210	0.440	188.21	-1.70	1.00	 	 	 	 	 	 	 	 	 	 	 	 	 	 	 	 	 	 	1581500810	8.14	15.08
12/02/2020 09:46:51	120220	12022020	094651	188.36	12.656520	-57.162033	188.40	1.070	-1.020	0.540	188.36	-2.40	1.20	 	 	 	 	 	 	 	 	 	 	 	 	 	 	 	 	 	 	1581500811	8.44	15.63
12/02/2020 09:46:52	120220	12022020	094652	188.08	12.656482	-57.162038	188.14	0.880	-1.420	1.340	188.08	-2.80	2.10	 	 	 	 	 	 	 	 	 	 	 	 	 	 	 	 	 	 	1581500812	8.24	15.26
12/02/2020 09:46:53	120220	12022020	094653	187.63	12.656447	-57.162047	187.61	0.210	-1.280	2.510	187.52	-2.60	3.20	 	 	 	 	 	 	 	 	 	 	 	 	 	 	 	 	 	 	1581500813	7.94	14.70
12/02/2020 09:46:54	120220	12022020	094654	187.10	12.656412	-57.162058	187.13	-0.500	-0.630	3.500	187.02	-1.90	4.10	 	 	 	 	 	 	 	 	 	 	 	 	 	 	 	 	 	 	1581500814	7.79	14.43
12/02/2020 09:46:55	120220	12022020	094655	186.77	12.656380	-57.162073	186.83	-0.740	0.000	3.800	186.73	-1.30	4.30	 	 	 	 	 	 	 	 	 	 	 	 	 	 	 	 	 	 	1581500815	7.64	14.15
12/02/2020 09:46:56	120220	12022020	094656	186.63	12.656345	-57.162087	186.71	-0.430	0.170	3.430	186.62	-1.20	3.90	 	 	 	 	 	 	 	 	 	 	 	 	 	 	 	 	 	 	1581500816	7.78	14.41
12/02/2020 09:46:57	120220	12022020	094657	186.69	12.656308	-57.162095	186.83	0.030	0.120	2.630	186.75	-1.20	3.10	 	 	 	 	 	 	 	 	 	 	 	 	 	 	 	 	 	 	1581500817	8.16	15.11
12/02/2020 09:46:58	120220	12022020	094658	187.27	12.656270	-57.162098	187.34	0.060	0.260	1.780	187.27	-1.10	2.30	 	 	 	 	 	 	 	 	 	 	 	 	 	 	 	 	 	 	1581500818	8.22	15.22
12/02/2020 09:46:59	120220	12022020	094659	187.82	12.656235	-57.162102	187.99	-0.350	0.450	1.290	187.94	-0.90	1.80	 	 	 	 	 	 	 	 	 	 	 	 	 	 	 	 	 	 	1581500819	7.64	14.15
12/02/2020 09:47:00	120220	12022020	094700	188.21	12.656202	-57.162107	188.27	-0.550	0.170	1.350	188.21	-1.30	2.00	 	 	 	 	 	 	 	 	 	 	 	 	 	 	 	 	 	 	1581500820	7.29	13.50
12/02/2020 09:47:01	120220	12022020	094701	187.99	12.656167	-57.162117	187.97	0.000	-0.760	1.650	187.89	-2.20	2.30	1015.00	26.20	26.30	21.00	21.00	-1.0	72.0	72.0	398.0	25.8	267.00	9.50	71.00	10.60	17	9639.0	27.5	27.5	1581500821	7.82	14.48
12/02/2020 09:47:02	120220	12022020	094702	187.55	12.656127	-57.162125	187.57	0.810	-1.390	1.860	187.49	-2.70	2.50	 	 	 	 	 	 	 	 	 	 	 	 	 	 	 	 	 	 	1581500822	8.63	15.98
12/02/2020 09:47:03	120220	12022020	094703	187.35	12.656088	-57.162130	187.42	0.940	-1.030	2.040	187.35	-2.30	2.60	 	 	 	 	 	 	 	 	 	 	 	 	 	 	 	 	 	 	1581500823	8.39	15.54
12/02/2020 09:47:04	120220	12022020	094704	187.29	12.656055	-57.162135	187.36	0.240	-0.170	2.260	187.27	-1.40	2.90	 	 	 	 	 	 	 	 	 	 	 	 	 	 	 	 	 	 	1581500824	7.40	13.70
12/02/2020 09:47:05	120220	12022020	094705	187.19	12.656023	-57.162143	187.24	-0.600	0.370	2.580	187.16	-0.90	3.20	 	 	 	 	 	 	 	 	 	 	 	 	 	 	 	 	 	 	1581500825	7.04	13.04
12/02/2020 09:47:06	120220	12022020	094706	187.13	12.655988	-57.162155	187.22	-0.850	0.470	2.750	187.14	-0.90	3.30	 	 	 	 	 	 	 	 	 	 	 	 	 	 	 	 	 	 	1581500826	7.63	14.13
12/02/2020 09:47:07	120220	12022020	094707	187.33	12.655953	-57.162168	187.48	-0.500	0.450	2.490	187.40	-0.90	3.00	 	 	 	 	 	 	 	 	 	 	 	 	 	 	 	 	 	 	1581500827	8.04	14.89
12/02/2020 09:47:08	120220	12022020	094708	187.73	12.655918	-57.162177	187.89	0.020	0.380	2.020	187.81	-1.00	2.50	 	 	 	 	 	 	 	 	 	 	 	 	 	 	 	 	 	 	1581500828	7.85	14.54
12/02/2020 09:47:09	120220	12022020	094709	188.05	12.655883	-57.162183	188.17	0.340	0.020	1.500	188.10	-1.40	2.00	 	 	 	 	 	 	 	 	 	 	 	 	 	 	 	 	 	 	1581500829	7.62	14.11
12/02/2020 09:47:10	120220	12022020	094710	188.19	12.655848	-57.162188	188.26	0.460	-0.640	1.160	188.19	-2.10	1.70	 	 	 	 	 	 	 	 	 	 	 	 	 	 	 	 	 	 	1581500830	7.76	14.37
12/02/2020 09:47:11	120220	12022020	094711	188.06	12.655810	-57.162192	188.07	0.560	-1.400	1.270	188.00	-2.80	1.90	 	 	 	 	 	 	 	 	 	 	 	 	 	 	 	 	 	 	1581500831	8.06	14.93
12/02/2020 09:47:12	120220	12022020	094712	187.75	12.655772	-57.162198	187.75	0.550	-1.740	1.780	187.68	-3.10	2.40	 	 	 	 	 	 	 	 	 	 	 	 	 	 	 	 	 	 	1581500832	8.32	15.41
12/02/2020 09:47:13	120220	12022020	094713	187.44	12.655735	-57.162207	187.47	0.140	-1.220	2.530	187.38	-2.40	3.20	 	 	 	 	 	 	 	 	 	 	 	 	 	 	 	 	 	 	1581500833	8.10	15.00
12/02/2020 09:47:14	120220	12022020	094714	187.12	12.655702	-57.162217	187.13	-0.560	-0.210	3.230	187.04	-1.40	3.90	 	 	 	 	 	 	 	 	 	 	 	 	 	 	 	 	 	 	1581500834	7.52	13.93
12/02/2020 09:47:15	120220	12022020	094715	186.66	12.655670	-57.162232	186.67	-0.930	0.500	3.740	186.57	-0.80	4.30	 	 	 	 	 	 	 	 	 	 	 	 	 	 	 	 	 	 	1581500835	7.40	13.70
12/02/2020 09:47:16	120220	12022020	094716	186.35	12.655637	-57.162245	186.46	-0.590	0.710	3.680	186.35	-0.60	4.20	 	 	 	 	 	 	 	 	 	 	 	 	 	 	 	 	 	 	1581500836	7.92	14.67
12/02/2020 09:47:17	120220	12022020	094717	186.66	12.655600	-57.162255	186.94	0.070	0.830	2.910	186.82	-0.50	3.30	 	 	 	 	 	 	 	 	 	 	 	 	 	 	 	 	 	 	1581500837	8.19	15.17
12/02/2020 09:47:18	120220	12022020	094718	187.69	12.655563	-57.162258	188.02	0.400	0.840	2.040	187.92	-0.50	2.50	 	 	 	 	 	 	 	 	 	 	 	 	 	 	 	 	 	 	1581500838	7.85	14.54
12/02/2020 09:47:19	120220	12022020	094719	188.86	12.655528	-57.162262	189.13	0.240	0.470	1.690	189.03	-1.00	2.30	 	 	 	 	 	 	 	 	 	 	 	 	 	 	 	 	 	 	1581500839	7.43	13.76
12/02/2020 09:47:20	120220	12022020	094720	189.46	12.655495	-57.162268	189.59	0.070	-0.510	1.950	189.48	-2.00	2.60	 	 	 	 	 	 	 	 	 	 	 	 	 	 	 	 	 	 	1581500840	7.37	13.65
12/02/2020 09:47:21	120220	12022020	094721	189.25	12.655460	-57.162278	189.23	0.150	-1.650	2.810	189.11	-3.10	3.50	 	 	 	 	 	 	 	 	 	 	 	 	 	 	 	 	 	 	1581500841	7.94	14.70
12/02/2020 09:47:22	120220	12022020	094722	188.38	12.655423	-57.162292	188.29	0.340	-2.260	4.010	188.16	-3.60	4.70	 	 	 	 	 	 	 	 	 	 	 	 	 	 	 	 	 	 	1581500842	8.37	15.50
12/02/2020 09:47:23	120220	12022020	094723	187.29	12.655387	-57.162307	187.25	0.390	-1.910	4.760	187.11	-3.10	5.30	 	 	 	 	 	 	 	 	 	 	 	 	 	 	 	 	 	 	1581500843	8.34	15.45
12/02/2020 09:47:24	120220	12022020	094724	186.72	12.655353	-57.162318	186.82	0.150	-0.650	4.560	186.68	-1.80	5.00	 	 	 	 	 	 	 	 	 	 	 	 	 	 	 	 	 	 	1581500844	7.73	14.32
12/02/2020 09:47:25	120220	12022020	094725	186.75	12.655322	-57.162327	186.90	-0.220	0.740	3.700	186.80	-0.40	4.10	 	 	 	 	 	 	 	 	 	 	 	 	 	 	 	 	 	 	1581500845	6.94	12.85
12/02/2020 09:47:26	120220	12022020	094726	187.08	12.655290	-57.162332	187.15	-0.380	1.450	2.460	187.08	0.10	2.90	 	 	 	 	 	 	 	 	 	 	 	 	 	 	 	 	 	 	1581500846	6.79	12.58
12/02/2020 09:47:27	120220	12022020	094727	187.36	12.655257	-57.162333	187.50	-0.220	1.280	1.300	187.36	-0.20	1.80	 	 	 	 	 	 	 	 	 	 	 	 	 	 	 	 	 	 	1581500847	7.40	13.70
12/02/2020 09:47:28	120220	12022020	094728	187.74	12.655218	-57.162335	187.81	-0.000	0.430	0.820	187.74	-1.10	1.40	 	 	 	 	 	 	 	 	 	 	 	 	 	 	 	 	 	 	1581500848	8.05	14.91
12/02/2020 09:47:29	120220	12022020	094729	187.95	12.655180	-57.162340	188.09	-0.020	-0.610	1.080	188.01	-2.10	1.70	 	 	 	 	 	 	 	 	 	 	 	 	 	 	 	 	 	 	1581500849	8.45	15.65
12/02/2020 09:47:30	120220	12022020	094730	188.30	12.655142	-57.162350	188.48	-0.300	-0.980	1.810	188.38	-2.30	2.50	 	 	 	 	 	 	 	 	 	 	 	 	 	 	 	 	 	 	1581500850	8.40	15.56
12/02/2020 09:47:31	120220	12022020	094731	188.61	12.655110	-57.162365	188.74	-0.480	-0.720	2.610	188.64	-2.00	3.30	 	 	 	 	 	 	 	 	 	 	 	 	 	 	 	 	 	 	1581500851	7.66	14.19
12/02/2020 09:47:32	120220	12022020	094732	188.43	12.655080	-57.162380	188.54	-0.210	-0.690	3.120	188.43	-2.10	3.70	 	 	 	 	 	 	 	 	 	 	 	 	 	 	 	 	 	 	1581500852	7.11	13.17
12/02/2020 09:47:33	120220	12022020	094733	187.91	12.655047	-57.162392	187.87	0.390	-1.090	3.280	187.76	-2.50	3.90	 	 	 	 	 	 	 	 	 	 	 	 	 	 	 	 	 	 	1581500853	7.49	13.87
12/02/2020 09:47:34	120220	12022020	094734	187.19	12.655010	-57.162400	187.17	0.740	-1.220	3.170	187.06	-2.50	3.70	 	 	 	 	 	 	 	 	 	 	 	 	 	 	 	 	 	 	1581500854	8.18	15.15
12/02/2020 09:47:35	120220	12022020	094735	186.64	12.654973	-57.162405	186.64	0.550	-0.640	2.980	186.54	-1.90	3.50	 	 	 	 	 	 	 	 	 	 	 	 	 	 	 	 	 	 	1581500855	8.03	14.87
12/02/2020 09:47:36	120220	12022020	094736	186.03	12.654938	-57.162410	186.13	0.080	0.150	2.950	186.03	-1.10	3.50	 	 	 	 	 	 	 	 	 	 	 	 	 	 	 	 	 	 	1581500856	7.41	13.72
12/02/2020 09:47:37	120220	12022020	094737	185.73	12.654905	-57.162417	185.80	-0.210	0.690	2.960	185.70	-0.60	3.50	 	 	 	 	 	 	 	 	 	 	 	 	 	 	 	 	 	 	1581500857	7.38	13.67
12/02/2020 09:47:38	120220	12022020	094738	185.94	12.654870	-57.162423	186.04	-0.280	1.000	2.710	185.94	-0.30	3.20	 	 	 	 	 	 	 	 	 	 	 	 	 	 	 	 	 	 	1581500858	7.72	14.30
12/02/2020 09:47:39	120220	12022020	094739	186.60	12.654835	-57.162432	186.92	-0.380	1.090	2.340	186.60	-0.30	2.90	 	 	 	 	 	 	 	 	 	 	 	 	 	 	 	 	 	 	1581500859	7.65	14.17
12/02/2020 09:47:40	120220	12022020	094740	187.97	12.654802	-57.162440	188.08	-0.590	0.760	2.160	187.97	-0.70	2.70	 	 	 	 	 	 	 	 	 	 	 	 	 	 	 	 	 	 	1581500860	7.40	13.70
12/02/2020 09:47:41	120220	12022020	094741	188.65	12.654768	-57.162450	188.86	-0.580	-0.160	2.210	188.65	-1.70	2.80	 	 	 	 	 	 	 	 	 	 	 	 	 	 	 	 	 	 	1581500861	7.38	13.67
12/02/2020 09:47:42	120220	12022020	094742	188.67	12.654735	-57.162463	188.65	0.000	-1.600	2.590	188.55	-3.10	3.20	 	 	 	 	 	 	 	 	 	 	 	 	 	 	 	 	 	 	1581500862	7.82	14.48
12/02/2020 09:47:43	120220	12022020	094743	187.89	12.654697	-57.162475	187.83	0.770	-2.470	3.200	187.74	-3.80	3.80	 	 	 	 	 	 	 	 	 	 	 	 	 	 	 	 	 	 	1581500863	8.47	15.69
12/02/2020 09:47:44	120220	12022020	094744	187.15	12.654660	-57.162483	187.15	1.030	-1.880	3.540	187.05	-3.00	4.10	 	 	 	 	 	 	 	 	 	 	 	 	 	 	 	 	 	 	1581500864	8.18	15.15
12/02/2020 09:47:45	120220	12022020	094745	186.77	12.654628	-57.162490	186.84	0.610	-0.330	3.530	186.74	-1.50	4.10	 	 	 	 	 	 	 	 	 	 	 	 	 	 	 	 	 	 	1581500865	6.92	12.82
12/02/2020 09:47:46	120220	12022020	094746	186.69	12.654600	-57.162495	186.79	-0.060	0.790	3.220	186.69	-0.50	3.70	 	 	 	 	 	 	 	 	 	 	 	 	 	 	 	 	 	 	1581500866	6.30	11.67
12/02/2020 09:47:47	120220	12022020	094747	186.73	12.654568	-57.162500	186.85	-0.420	0.850	2.680	186.75	-0.50	3.20	 	 	 	 	 	 	 	 	 	 	 	 	 	 	 	 	 	 	1581500867	7.00	12.96
12/02/2020 09:47:48	120220	12022020	094748	186.98	12.654530	-57.162507	187.07	-0.370	0.440	2.110	186.98	-0.90	2.60	 	 	 	 	 	 	 	 	 	 	 	 	 	 	 	 	 	 	1581500868	8.07	14.95
12/02/2020 09:47:49	120220	12022020	094749	187.24	12.654493	-57.162513	187.39	-0.220	0.140	1.580	187.31	-1.20	2.10	 	 	 	 	 	 	 	 	 	 	 	 	 	 	 	 	 	 	1581500869	8.28	15.33
12/02/2020 09:47:50	120220	12022020	094750	187.54	12.654457	-57.162520	187.63	-0.240	-0.110	1.380	187.54	-1.50	2.00	 	 	 	 	 	 	 	 	 	 	 	 	 	 	 	 	 	 	1581500870	7.85	14.54
12/02/2020 09:47:51	120220	12022020	094751	187.48	12.654422	-57.162527	187.51	-0.340	-0.450	1.820	187.43	-1.80	2.50	 	 	 	 	 	 	 	 	 	 	 	 	 	 	 	 	 	 	1581500871	7.65	14.17
12/02/2020 09:47:52	120220	12022020	094752	187.12	12.654388	-57.162538	187.11	-0.320	-0.670	2.570	187.03	-2.00	3.20	 	 	 	 	 	 	 	 	 	 	 	 	 	 	 	 	 	 	1581500872	7.80	14.45
12/02/2020 09:47:53	120220	12022020	094753	186.67	12.654353	-57.162552	186.66	-0.130	-0.550	3.150	186.58	-1.90	3.70	 	 	 	 	 	 	 	 	 	 	 	 	 	 	 	 	 	 	1581500873	7.77	14.39
12/02/2020 09:47:54	120220	12022020	094754	186.21	12.654320	-57.162563	186.29	0.170	-0.270	3.220	186.21	-1.60	3.70	 	 	 	 	 	 	 	 	 	 	 	 	 	 	 	 	 	 	1581500874	7.45	13.80
12/02/2020 09:47:55	120220	12022020	094755	186.01	12.654288	-57.162570	186.04	0.410	-0.140	2.810	185.96	-1.50	3.30	 	 	 	 	 	 	 	 	 	 	 	 	 	 	 	 	 	 	1581500875	7.30	13.52
12/02/2020 09:47:56	120220	12022020	094756	185.78	12.654253	-57.162575	185.81	0.470	-0.200	2.390	185.74	-1.60	2.90	 	 	 	 	 	 	 	 	 	 	 	 	 	 	 	 	 	 	1581500876	7.46	13.82
12/02/2020 09:47:57	120220	12022020	094757	185.55	12.654218	-57.162578	185.58	0.330	-0.320	2.210	185.51	-1.70	2.80	 	 	 	 	 	 	 	 	 	 	 	 	 	 	 	 	 	 	1581500877	7.65	14.17
12/02/2020 09:47:58	120220	12022020	094758	185.42	12.654182	-57.162583	185.50	0.040	-0.290	2.210	185.42	-1.60	2.80	 	 	 	 	 	 	 	 	 	 	 	 	 	 	 	 	 	 	1581500878	7.68	14.22
12/02/2020 09:47:59	120220	12022020	094759	185.52	12.654148	-57.162590	185.65	-0.300	-0.090	2.330	185.57	-1.40	2.90	 	 	 	 	 	 	 	 	 	 	 	 	 	 	 	 	 	 	1581500879	7.53	13.95
12/02/2020 09:48:00	120220	12022020	094800	185.86	12.654115	-57.162598	186.02	-0.480	0.080	2.460	185.94	-1.30	3.00	 	 	 	 	 	 	 	 	 	 	 	 	 	 	 	 	 	 	1581500880	7.33	13.58
12/02/2020 09:48:01	120220	12022020	094801	186.19	12.654082	-57.162608	186.30	-0.320	-0.050	2.470	186.22	-1.40	3.00	1015.10	26.20	26.30	21.00	21.10	-1.0	73.0	73.0	398.0	25.8	268.00	10.50	75.00	11.40	18	9237.0	27.5	27.5	1581500881	7.35	13.61
12/02/2020 09:48:02	120220	12022020	094802	186.18	12.654048	-57.162617	186.20	0.240	-0.580	2.310	186.13	-2.00	2.80	 	 	 	 	 	 	 	 	 	 	 	 	 	 	 	 	 	 	1581500882	7.60	14.08
12/02/2020 09:48:03	120220	12022020	094803	185.81	12.654010	-57.162622	185.79	0.790	-1.100	2.210	185.71	-2.50	2.80	 	 	 	 	 	 	 	 	 	 	 	 	 	 	 	 	 	 	1581500883	8.12	15.04
12/02/2020 09:48:04	120220	12022020	094804	185.36	12.653972	-57.162625	185.38	0.740	-0.980	2.410	185.30	-2.20	3.00	 	 	 	 	 	 	 	 	 	 	 	 	 	 	 	 	 	 	1581500884	8.24	15.26
12/02/2020 09:48:05	120220	12022020	094805	185.18	12.653937	-57.162628	185.26	-0.010	-0.180	2.600	185.18	-1.40	3.20	 	 	 	 	 	 	 	 	 	 	 	 	 	 	 	 	 	 	1581500885	7.60	14.08
12/02/2020 09:48:06	120220	12022020	094806	185.31	12.653905	-57.162635	185.38	-0.990	0.690	2.690	185.31	-0.60	3.30	 	 	 	 	 	 	 	 	 	 	 	 	 	 	 	 	 	 	1581500886	6.95	12.87
12/02/2020 09:48:07	120220	12022020	094807	185.43	12.653875	-57.162647	185.53	-1.410	0.980	2.830	185.46	-0.40	3.40	 	 	 	 	 	 	 	 	 	 	 	 	 	 	 	 	 	 	1581500887	7.04	13.04
12/02/2020 09:48:08	120220	12022020	094808	185.57	12.653842	-57.162662	185.68	-0.820	0.570	2.660	185.60	-0.90	3.10	 	 	 	 	 	 	 	 	 	 	 	 	 	 	 	 	 	 	1581500888	7.70	14.26
12/02/2020 09:48:09	120220	12022020	094809	185.65	12.653805	-57.162672	185.71	0.390	-0.210	2.130	185.64	-1.70	2.60	 	 	 	 	 	 	 	 	 	 	 	 	 	 	 	 	 	 	1581500889	8.04	14.89
12/02/2020 09:48:10	120220	12022020	094810	185.52	12.653768	-57.162675	185.56	1.340	-0.960	1.630	185.49	-2.40	2.10	 	 	 	 	 	 	 	 	 	 	 	 	 	 	 	 	 	 	1581500890	8.19	15.17
12/02/2020 09:48:11	120220	12022020	094811	185.43	12.653730	-57.162677	185.53	1.380	-1.220	1.330	185.44	-2.50	1.90	 	 	 	 	 	 	 	 	 	 	 	 	 	 	 	 	 	 	1581500891	8.19	15.17
12/02/2020 09:48:12	120220	12022020	094812	185.57	12.653695	-57.162678	185.70	0.610	-0.870	1.370	185.62	-2.10	2.00	 	 	 	 	 	 	 	 	 	 	 	 	 	 	 	 	 	 	1581500892	7.65	14.17
12/02/2020 09:48:13	120220	12022020	094813	185.74	12.653662	-57.162682	185.86	-0.320	-0.270	1.820	185.76	-1.50	2.50	 	 	 	 	 	 	 	 	 	 	 	 	 	 	 	 	 	 	1581500893	7.06	13.08
12/02/2020 09:48:14	120220	12022020	094814	185.77	12.653630	-57.162690	185.88	-0.820	0.060	2.450	185.77	-1.30	3.10	 	 	 	 	 	 	 	 	 	 	 	 	 	 	 	 	 	 	1581500894	7.06	13.08
12/02/2020 09:48:15	120220	12022020	094815	185.71	12.653597	-57.162702	185.81	-0.780	-0.030	2.950	185.69	-1.40	3.50	 	 	 	 	 	 	 	 	 	 	 	 	 	 	 	 	 	 	1581500895	7.59	14.06
12/02/2020 09:48:16	120220	12022020	094816	185.53	12.653560	-57.162713	185.61	-0.450	-0.310	3.300	185.48	-1.70	3.90	 	 	 	 	 	 	 	 	 	 	 	 	 	 	 	 	 	 	1581500896	8.09	14.98
12/02/2020 09:48:17	120220	12022020	094817	185.31	12.653523	-57.162722	185.41	-0.190	-0.420	3.370	185.28	-1.70	3.90	 	 	 	 	 	 	 	 	 	 	 	 	 	 	 	 	 	 	1581500897	8.27	15.32
12/02/2020 09:48:18	120220	12022020	094818	185.20	12.653487	-57.162730	185.31	-0.100	-0.130	3.170	185.18	-1.40	3.70	 	 	 	 	 	 	 	 	 	 	 	 	 	 	 	 	 	 	1581500898	7.97	14.76
12/02/2020 09:48:19	120220	12022020	094819	185.07	12.653453	-57.162737	185.14	-0.000	0.220	2.860	185.03	-1.10	3.40	 	 	 	 	 	 	 	 	 	 	 	 	 	 	 	 	 	 	1581500899	7.44	13.78
12/02/2020 09:48:20	120220	12022020	094820	184.82	12.653418	-57.162742	184.92	0.250	0.220	2.450	184.82	-1.10	2.90	 	 	 	 	 	 	 	 	 	 	 	 	 	 	 	 	 	 	1581500900	7.39	13.69
12/02/2020 09:48:21	120220	12022020	094821	184.75	12.653383	-57.162745	184.85	0.520	0.100	1.890	184.75	-1.30	2.40	 	 	 	 	 	 	 	 	 	 	 	 	 	 	 	 	 	 	1581500901	7.71	14.28
12/02/2020 09:48:22	120220	12022020	094822	184.91	12.653348	-57.162747	185.01	0.560	0.080	1.400	184.91	-1.30	1.90	 	 	 	 	 	 	 	 	 	 	 	 	 	 	 	 	 	 	1581500902	7.66	14.19
12/02/2020 09:48:23	120220	12022020	094823	185.15	12.653313	-57.162748	185.29	0.360	-0.070	1.130	185.21	-1.50	1.70	 	 	 	 	 	 	 	 	 	 	 	 	 	 	 	 	 	 	1581500903	7.37	13.65
12/02/2020 09:48:24	120220	12022020	094824	185.47	12.653278	-57.162752	185.61	0.030	-0.540	1.140	185.53	-2.00	1.80	 	 	 	 	 	 	 	 	 	 	 	 	 	 	 	 	 	 	1581500904	7.42	13.74
12/02/2020 09:48:25	120220	12022020	094825	185.63	12.653243	-57.162760	185.71	-0.220	-1.140	1.700	185.62	-2.60	2.40	 	 	 	 	 	 	 	 	 	 	 	 	 	 	 	 	 	 	1581500905	7.77	14.39
12/02/2020 09:48:26	120220	12022020	094826	185.29	12.653207	-57.162770	185.39	-0.180	-1.540	2.640	185.29	-2.90	3.30	 	 	 	 	 	 	 	 	 	 	 	 	 	 	 	 	 	 	1581500906	8.12	15.04
12/02/2020 09:48:27	120220	12022020	094827	184.82	12.653172	-57.162783	184.83	0.070	-1.400	3.410	184.71	-2.70	4.00	 	 	 	 	 	 	 	 	 	 	 	 	 	 	 	 	 	 	1581500907	8.26	15.30
12/02/2020 09:48:28	120220	12022020	094828	184.42	12.653135	-57.162792	184.55	0.100	-0.550	3.760	184.41	-1.70	4.30	 	 	 	 	 	 	 	 	 	 	 	 	 	 	 	 	 	 	1581500908	7.93	14.69
12/02/2020 09:48:29	120220	12022020	094829	184.55	12.653102	-57.162798	184.77	-0.310	0.530	3.750	184.62	-0.70	4.30	 	 	 	 	 	 	 	 	 	 	 	 	 	 	 	 	 	 	1581500909	7.31	13.54
12/02/2020 09:48:30	120220	12022020	094830	185.01	12.653070	-57.162805	185.15	-0.790	1.130	3.500	185.01	-0.20	4.00	 	 	 	 	 	 	 	 	 	 	 	 	 	 	 	 	 	 	1581500910	7.03	13.02
12/02/2020 09:48:31	120220	12022020	094831	185.17	12.653037	-57.162813	185.31	-0.680	0.890	3.100	185.17	-0.60	3.60	 	 	 	 	 	 	 	 	 	 	 	 	 	 	 	 	 	 	1581500911	7.40	13.70
12/02/2020 09:48:32	120220	12022020	094832	185.14	12.652998	-57.162818	185.26	0.090	0.100	2.620	185.14	-1.40	3.10	 	 	 	 	 	 	 	 	 	 	 	 	 	 	 	 	 	 	1581500912	8.17	15.13
12/02/2020 09:48:33	120220	12022020	094833	185.13	12.652958	-57.162822	185.27	0.760	-0.380	2.170	185.15	-1.70	2.70	 	 	 	 	 	 	 	 	 	 	 	 	 	 	 	 	 	 	1581500913	8.58	15.89
12/02/2020 09:48:34	120220	12022020	094834	185.40	12.652922	-57.162823	185.60	0.720	-0.170	1.730	185.49	-1.50	2.30	 	 	 	 	 	 	 	 	 	 	 	 	 	 	 	 	 	 	1581500914	7.99	14.80
12/02/2020 09:48:35	120220	12022020	094835	185.90	12.652890	-57.162827	186.09	0.130	0.200	1.490	185.99	-1.10	2.10	 	 	 	 	 	 	 	 	 	 	 	 	 	 	 	 	 	 	1581500915	6.91	12.80
12/02/2020 09:48:36	120220	12022020	094836	186.18	12.652860	-57.162833	186.26	-0.290	-0.080	1.690	186.17	-1.50	2.30	 	 	 	 	 	 	 	 	 	 	 	 	 	 	 	 	 	 	1581500916	6.59	12.20
12/02/2020 09:48:37	120220	12022020	094837	185.88	12.652827	-57.162842	185.86	-0.020	-1.120	2.330	185.75	-2.60	3.00	 	 	 	 	 	 	 	 	 	 	 	 	 	 	 	 	 	 	1581500917	7.48	13.85
12/02/2020 09:48:38	120220	12022020	094838	185.00	12.652788	-57.162853	185.11	0.580	-1.910	3.020	185.00	-3.30	3.60	 	 	 	 	 	 	 	 	 	 	 	 	 	 	 	 	 	 	1581500918	8.54	15.82
12/02/2020 09:48:39	120220	12022020	094839	184.60	12.652750	-57.162862	184.67	0.760	-1.520	3.260	184.56	-2.70	3.80	 	 	 	 	 	 	 	 	 	 	 	 	 	 	 	 	 	 	1581500919	8.47	15.69
12/02/2020 09:48:40	120220	12022020	094840	184.61	12.652715	-57.162868	184.78	0.180	-0.370	3.060	184.66	-1.60	3.60	 	 	 	 	 	 	 	 	 	 	 	 	 	 	 	 	 	 	1581500920	7.42	13.74
12/02/2020 09:48:41	120220	12022020	094841	184.92	12.652685	-57.162873	185.09	-0.760	0.500	2.780	184.97	-0.80	3.30	 	 	 	 	 	 	 	 	 	 	 	 	 	 	 	 	 	 	1581500921	6.80	12.59
12/02/2020 09:48:42	120220	12022020	094842	185.09	12.652652	-57.162880	185.20	-1.310	0.600	2.720	185.10	-0.80	3.30	 	 	 	 	 	 	 	 	 	 	 	 	 	 	 	 	 	 	1581500922	7.25	13.43
12/02/2020 09:48:43	120220	12022020	094843	185.19	12.652615	-57.162890	185.33	-1.110	0.350	2.660	185.19	-1.00	3.20	 	 	 	 	 	 	 	 	 	 	 	 	 	 	 	 	 	 	1581500923	8.14	15.08
12/02/2020 09:48:44	120220	12022020	094844	185.42	12.652577	-57.162898	185.57	-0.430	0.200	2.360	185.47	-1.20	2.80	 	 	 	 	 	 	 	 	 	 	 	 	 	 	 	 	 	 	1581500924	8.36	15.48
12/02/2020 09:48:45	120220	12022020	094845	185.70	12.652540	-57.162907	185.84	0.290	0.210	1.770	185.75	-1.10	2.20	 	 	 	 	 	 	 	 	 	 	 	 	 	 	 	 	 	 	1581500925	7.98	14.78
12/02/2020 09:48:46	120220	12022020	094846	185.88	12.652505	-57.162910	185.96	0.820	0.160	1.170	185.89	-1.20	1.70	 	 	 	 	 	 	 	 	 	 	 	 	 	 	 	 	 	 	1581500926	7.53	13.95
12/02/2020 09:48:47	120220	12022020	094847	185.75	12.652472	-57.162910	185.75	1.000	-0.110	1.050	185.68	-1.50	1.60	 	 	 	 	 	 	 	 	 	 	 	 	 	 	 	 	 	 	1581500927	7.45	13.80
12/02/2020 09:48:48	120220	12022020	094848	185.25	12.652435	-57.162910	185.22	0.770	-0.520	1.500	185.13	-1.90	2.20	 	 	 	 	 	 	 	 	 	 	 	 	 	 	 	 	 	 	1581500928	7.58	14.04
12/02/2020 09:48:49	120220	12022020	094849	184.69	12.652400	-57.162915	184.70	0.240	-0.880	2.240	184.59	-2.30	2.90	 	 	 	 	 	 	 	 	 	 	 	 	 	 	 	 	 	 	1581500929	7.75	14.35
12/02/2020 09:48:50	120220	12022020	094850	184.19	12.652365	-57.162925	184.33	-0.280	-0.970	3.060	184.19	-2.30	3.70	 	 	 	 	 	 	 	 	 	 	 	 	 	 	 	 	 	 	1581500930	7.92	14.67
12/02/2020 09:48:51	120220	12022020	094851	184.04	12.652330	-57.162940	184.19	-0.530	-0.600	3.470	184.04	-1.90	4.00	 	 	 	 	 	 	 	 	 	 	 	 	 	 	 	 	 	 	1581500931	8.00	14.82
12/02/2020 09:48:52	120220	12022020	094852	184.34	12.652297	-57.162952	184.63	-0.550	0.120	3.070	184.47	-1.10	3.50	 	 	 	 	 	 	 	 	 	 	 	 	 	 	 	 	 	 	1581500932	7.57	14.02
12/02/2020 09:48:53	120220	12022020	094853	185.07	12.652265	-57.162960	185.35	-0.410	0.550	2.270	185.21	-0.80	2.70	 	 	 	 	 	 	 	 	 	 	 	 	 	 	 	 	 	 	1581500933	6.96	12.89
12/02/2020 09:48:54	120220	12022020	094854	185.58	12.652233	-57.162965	185.72	-0.040	0.120	1.680	185.61	-1.40	2.20	 	 	 	 	 	 	 	 	 	 	 	 	 	 	 	 	 	 	1581500934	7.08	13.11
12/02/2020 09:48:55	120220	12022020	094855	185.48	12.652197	-57.162970	185.50	0.510	-0.920	1.560	185.40	-2.40	2.10	 	 	 	 	 	 	 	 	 	 	 	 	 	 	 	 	 	 	1581500935	8.00	14.82
12/02/2020 09:48:56	120220	12022020	094856	185.07	12.652155	-57.162973	185.11	0.810	-1.430	1.710	185.00	-2.80	2.30	 	 	 	 	 	 	 	 	 	 	 	 	 	 	 	 	 	 	1581500936	8.74	16.19
12/02/2020 09:48:57	120220	12022020	094857	184.90	12.652117	-57.162975	185.02	0.480	-0.840	1.870	184.90	-2.00	2.50	 	 	 	 	 	 	 	 	 	 	 	 	 	 	 	 	 	 	1581500937	8.24	15.26
12/02/2020 09:48:58	120220	12022020	094858	185.05	12.652085	-57.162980	185.19	-0.260	0.230	1.890	185.09	-1.00	2.50	 	 	 	 	 	 	 	 	 	 	 	 	 	 	 	 	 	 	1581500938	7.12	13.19
12/02/2020 09:48:59	120220	12022020	094859	185.19	12.652053	-57.162985	185.30	-0.820	0.770	2.010	185.20	-0.60	2.60	 	 	 	 	 	 	 	 	 	 	 	 	 	 	 	 	 	 	1581500939	6.69	12.39
12/02/2020 09:49:00	120220	12022020	094900	185.16	12.652020	-57.162993	185.22	-0.860	0.510	2.460	185.13	-0.90	3.10	 	 	 	 	 	 	 	 	 	 	 	 	 	 	 	 	 	 	1581500940	7.39	13.69
12/02/2020 09:49:01	120220	12022020	094901	184.97	12.651983	-57.163005	185.01	-0.490	-0.090	3.140	184.92	-1.50	3.80	1015.10	26.20	26.20	20.80	20.90	-1.0	72.0	72.0	398.0	25.8	273.00	10.20	77.00	10.70	18	9973.0	27.5	27.4	1581500941	8.22	15.22
12/02/2020 09:49:02	120220	12022020	094902	184.69	12.651947	-57.163017	184.75	-0.030	-0.470	3.580	184.64	-1.80	4.10	 	 	 	 	 	 	 	 	 	 	 	 	 	 	 	 	 	 	1581500942	8.51	15.76
12/02/2020 09:49:03	120220	12022020	094903	184.52	12.651910	-57.163028	184.64	0.280	-0.370	3.490	184.51	-1.70	4.00	 	 	 	 	 	 	 	 	 	 	 	 	 	 	 	 	 	 	1581500943	8.10	15.00
12/02/2020 09:49:04	120220	12022020	094904	184.56	12.651877	-57.163035	184.71	0.450	-0.080	2.910	184.58	-1.40	3.40	 	 	 	 	 	 	 	 	 	 	 	 	 	 	 	 	 	 	1581500944	7.41	13.72
12/02/2020 09:49:05	120220	12022020	094905	184.74	12.651843	-57.163038	184.89	0.590	0.060	2.080	184.78	-1.30	2.50	 	 	 	 	 	 	 	 	 	 	 	 	 	 	 	 	 	 	1581500945	7.10	13.15
12/02/2020 09:49:06	120220	12022020	094906	184.94	12.651810	-57.163038	185.06	0.680	-0.100	1.280	184.98	-1.50	1.80	 	 	 	 	 	 	 	 	 	 	 	 	 	 	 	 	 	 	1581500946	7.26	13.45
12/02/2020 09:49:07	120220	12022020	094907	185.12	12.651775	-57.163037	185.22	0.610	-0.480	0.880	185.14	-1.90	1.40	 	 	 	 	 	 	 	 	 	 	 	 	 	 	 	 	 	 	1581500947	7.58	14.04
12/02/2020 09:49:08	120220	12022020	094908	185.16	12.651738	-57.163038	185.22	0.320	-0.880	1.130	185.14	-2.30	1.80	 	 	 	 	 	 	 	 	 	 	 	 	 	 	 	 	 	 	1581500948	7.75	14.35
12/02/2020 09:49:09	120220	12022020	094909	184.98	12.651702	-57.163045	185.00	-0.090	-1.120	1.840	184.98	-2.50	2.50	 	 	 	 	 	 	 	 	 	 	 	 	 	 	 	 	 	 	1581500949	7.86	14.56
12/02/2020 09:49:10	120220	12022020	094910	184.63	12.651667	-57.163053	184.66	-0.480	-0.980	2.830	184.54	-2.30	3.50	 	 	 	 	 	 	 	 	 	 	 	 	 	 	 	 	 	 	1581500950	7.94	14.70
12/02/2020 09:49:11	120220	12022020	094911	184.25	12.651632	-57.163065	184.33	-0.740	-0.480	3.730	184.20	-1.70	4.40	 	 	 	 	 	 	 	 	 	 	 	 	 	 	 	 	 	 	1581500951	7.93	14.69
12/02/2020 09:49:12	120220	12022020	094912	184.09	12.651598	-57.163078	184.24	-0.760	0.160	4.090	184.09	-1.10	4.60	 	 	 	 	 	 	 	 	 	 	 	 	 	 	 	 	 	 	1581500952	7.77	14.39
12/02/2020 09:49:13	120220	12022020	094913	184.19	12.651563	-57.163090	184.37	-0.510	0.560	3.730	184.25	-0.80	4.20	 	 	 	 	 	 	 	 	 	 	 	 	 	 	 	 	 	 	1581500953	7.63	14.13
12/02/2020 09:49:14	120220	12022020	094914	184.52	12.651528	-57.163097	184.71	-0.070	0.620	2.790	184.60	-0.80	3.20	 	 	 	 	 	 	 	 	 	 	 	 	 	 	 	 	 	 	1581500954	7.62	14.11
12/02/2020 09:49:15	120220	12022020	094915	184.86	12.651493	-57.163098	185.01	0.420	0.320	1.790	184.92	-1.10	2.20	 	 	 	 	 	 	 	 	 	 	 	 	 	 	 	 	 	 	1581500955	7.71	14.28
12/02/2020 09:49:16	120220	12022020	094916	185.14	12.651457	-57.163097	185.27	0.700	-0.180	0.920	185.20	-1.60	1.40	 	 	 	 	 	 	 	 	 	 	 	 	 	 	 	 	 	 	1581500956	7.94	14.70
12/02/2020 09:49:17	120220	12022020	094917	185.36	12.651418	-57.163095	185.43	0.670	-0.650	0.410	185.37	-2.10	1.00	 	 	 	 	 	 	 	 	 	 	 	 	 	 	 	 	 	 	1581500957	8.02	14.85
12/02/2020 09:49:18	120220	12022020	094918	185.24	12.651382	-57.163095	185.25	0.360	-1.000	0.760	185.18	-2.40	1.40	 	 	 	 	 	 	 	 	 	 	 	 	 	 	 	 	 	 	1581500958	7.87	14.58
12/02/2020 09:49:19	120220	12022020	094919	185.02	12.651347	-57.163100	185.11	-0.150	-0.910	1.630	185.02	-2.20	2.30	 	 	 	 	 	 	 	 	 	 	 	 	 	 	 	 	 	 	1581500959	7.86	14.56
12/02/2020 09:49:20	120220	12022020	094920	185.15	12.651312	-57.163110	185.30	-0.740	-0.400	2.540	185.20	-1.70	3.20	 	 	 	 	 	 	 	 	 	 	 	 	 	 	 	 	 	 	1581500960	7.65	14.17
12/02/2020 09:49:21	120220	12022020	094921	185.30	12.651280	-57.163125	185.40	-0.950	-0.060	3.360	185.30	-1.40	4.00	 	 	 	 	 	 	 	 	 	 	 	 	 	 	 	 	 	 	1581500961	7.54	13.96
12/02/2020 09:49:22	120220	12022020	094922	185.02	12.651247	-57.163140	185.14	-0.490	-0.160	3.820	185.02	-1.50	4.40	 	 	 	 	 	 	 	 	 	 	 	 	 	 	 	 	 	 	1581500962	7.92	14.67
12/02/2020 09:49:23	120220	12022020	094923	184.87	12.651210	-57.163152	185.04	0.270	-0.110	3.550	184.87	-1.40	4.00	 	 	 	 	 	 	 	 	 	 	 	 	 	 	 	 	 	 	1581500963	8.25	15.28
12/02/2020 09:49:24	120220	12022020	094924	185.19	12.651173	-57.163157	185.46	0.700	0.400	2.650	185.31	-0.90	3.00	 	 	 	 	 	 	 	 	 	 	 	 	 	 	 	 	 	 	1581500964	7.86	14.56
12/02/2020 09:49:25	120220	12022020	094925	185.93	12.651140	-57.163157	186.17	0.630	0.730	1.490	186.08	-0.70	1.90	 	 	 	 	 	 	 	 	 	 	 	 	 	 	 	 	 	 	1581500965	7.14	13.22
12/02/2020 09:49:26	120220	12022020	094926	186.43	12.651107	-57.163155	186.52	0.410	0.080	0.910	186.46	-1.40	1.50	 	 	 	 	 	 	 	 	 	 	 	 	 	 	 	 	 	 	1581500966	7.15	13.24
12/02/2020 09:49:27	120220	12022020	094927	186.32	12.651070	-57.163155	186.33	0.370	-1.180	1.090	186.26	-2.70	1.70	 	 	 	 	 	 	 	 	 	 	 	 	 	 	 	 	 	 	1581500967	8.08	14.96
12/02/2020 09:49:28	120220	12022020	094928	185.99	12.651030	-57.163160	186.03	0.190	-1.780	1.770	185.93	-3.10	2.40	 	 	 	 	 	 	 	 	 	 	 	 	 	 	 	 	 	 	1581500968	8.73	16.17
12/02/2020 09:49:29	120220	12022020	094929	185.74	12.650992	-57.163168	185.81	-0.320	-1.440	2.680	185.69	-2.70	3.30	 	 	 	 	 	 	 	 	 	 	 	 	 	 	 	 	 	 	1581500969	8.19	15.17
12/02/2020 09:49:30	120220	12022020	094930	185.44	12.650958	-57.163182	185.48	-0.870	-0.760	3.480	185.36	-2.00	4.10	 	 	 	 	 	 	 	 	 	 	 	 	 	 	 	 	 	 	1581500970	7.64	14.15
12/02/2020 09:49:31	120220	12022020	094931	184.99	12.650927	-57.163197	185.06	-0.940	-0.190	3.950	184.91	-1.50	4.50	 	 	 	 	 	 	 	 	 	 	 	 	 	 	 	 	 	 	1581500971	7.79	14.43
12/02/2020 09:49:32	120220	12022020	094932	184.74	12.650890	-57.163208	184.89	-0.540	0.400	3.770	184.74	-0.90	4.20	 	 	 	 	 	 	 	 	 	 	 	 	 	 	 	 	 	 	1581500972	8.02	14.85
12/02/2020 09:49:33	120220	12022020	094933	184.95	12.650855	-57.163215	185.18	-0.110	0.900	3.010	185.03	-0.40	3.40	 	 	 	 	 	 	 	 	 	 	 	 	 	 	 	 	 	 	1581500973	7.74	14.33
12/02/2020 09:49:34	120220	12022020	094934	185.37	12.650820	-57.163218	185.57	0.100	0.830	2.000	185.44	-0.60	2.40	 	 	 	 	 	 	 	 	 	 	 	 	 	 	 	 	 	 	1581500974	7.57	14.02
12/02/2020 09:49:35	120220	12022020	094935	185.66	12.650783	-57.163220	185.82	0.260	0.230	1.200	185.71	-1.20	1.70	 	 	 	 	 	 	 	 	 	 	 	 	 	 	 	 	 	 	1581500975	7.93	14.69
12/02/2020 09:49:36	120220	12022020	094936	185.93	12.650745	-57.163223	186.07	0.500	-0.200	0.700	185.98	-1.60	1.20	 	 	 	 	 	 	 	 	 	 	 	 	 	 	 	 	 	 	1581500976	8.23	15.24
12/02/2020 09:49:37	120220	12022020	094937	186.18	12.650708	-57.163225	186.28	0.740	-0.250	0.480	186.22	-1.60	1.00	 	 	 	 	 	 	 	 	 	 	 	 	 	 	 	 	 	 	1581500977	7.82	14.48
12/02/2020 09:49:38	120220	12022020	094938	186.40	12.650675	-57.163228	186.46	0.740	-0.290	0.530	186.40	-1.70	1.20	 	 	 	 	 	 	 	 	 	 	 	 	 	 	 	 	 	 	1581500978	7.33	13.58
12/02/2020 09:49:39	120220	12022020	094939	186.50	12.650642	-57.163232	186.58	0.350	-0.590	1.170	186.50	-2.00	1.90	 	 	 	 	 	 	 	 	 	 	 	 	 	 	 	 	 	 	1581500979	7.32	13.56
12/02/2020 09:49:40	120220	12022020	094940	186.25	12.650607	-57.163240	186.35	-0.220	-1.190	2.460	186.25	-2.60	3.20	 	 	 	 	 	 	 	 	 	 	 	 	 	 	 	 	 	 	1581500980	7.67	14.20
12/02/2020 09:49:41	120220	12022020	094941	185.69	12.650570	-57.163255	185.61	-0.590	-1.710	4.010	185.49	-3.10	4.80	 	 	 	 	 	 	 	 	 	 	 	 	 	 	 	 	 	 	1581500981	8.35	15.46
12/02/2020 09:49:42	120220	12022020	094942	184.64	12.650533	-57.163272	184.57	-0.550	-1.700	5.250	184.42	-3.00	5.90	 	 	 	 	 	 	 	 	 	 	 	 	 	 	 	 	 	 	1581500982	8.78	16.26
12/02/2020 09:49:43	120220	12022020	094943	183.69	12.650497	-57.163287	183.72	-0.250	-0.990	5.600	183.57	-2.20	6.10	 	 	 	 	 	 	 	 	 	 	 	 	 	 	 	 	 	 	1581500983	8.63	15.98
12/02/2020 09:49:44	120220	12022020	094944	183.53	12.650460	-57.163298	183.66	0.040	0.310	4.770	183.53	-0.80	5.10	 	 	 	 	 	 	 	 	 	 	 	 	 	 	 	 	 	 	1581500984	7.98	14.78
12/02/2020 09:49:45	120220	12022020	094945	184.20	12.650428	-57.163302	184.55	0.100	1.700	2.880	184.43	0.50	3.10	 	 	 	 	 	 	 	 	 	 	 	 	 	 	 	 	 	 	1581500985	7.06	13.08
12/02/2020 09:49:46	120220	12022020	094946	185.37	12.650397	-57.163297	185.66	-0.070	1.980	0.960	185.57	0.50	1.30	 	 	 	 	 	 	 	 	 	 	 	 	 	 	 	 	 	 	1581500986	6.72	12.45
12/02/2020 09:49:47	120220	12022020	094947	186.03	12.650362	-57.163292	186.12	-0.140	0.500	0.150	186.05	-1.20	0.70	 	 	 	 	 	 	 	 	 	 	 	 	 	 	 	 	 	 	1581500987	7.56	14.00
12/02/2020 09:49:48	120220	12022020	094948	185.74	12.650320	-57.163293	185.67	0.030	-1.630	0.740	185.61	-3.20	1.50	 	 	 	 	 	 	 	 	 	 	 	 	 	 	 	 	 	 	1581500988	8.96	16.59
12/02/2020 09:49:49	120220	12022020	094949	184.98	12.650277	-57.163303	184.96	0.160	-2.490	2.100	184.86	-3.80	2.90	 	 	 	 	 	 	 	 	 	 	 	 	 	 	 	 	 	 	1581500989	9.60	17.78
12/02/2020 09:49:50	120220	12022020	094950	184.58	12.650240	-57.163317	184.70	0.010	-1.480	3.220	184.57	-2.60	3.90	 	 	 	 	 	 	 	 	 	 	 	 	 	 	 	 	 	 	1581500990	8.54	15.82
12/02/2020 09:49:51	120220	12022020	094951	184.67	12.650210	-57.163330	184.85	-0.230	0.270	3.460	184.72	-0.90	4.00	 	 	 	 	 	 	 	 	 	 	 	 	 	 	 	 	 	 	1581500991	6.87	12.72
12/02/2020 09:49:52	120220	12022020	094952	184.90	12.650183	-57.163340	185.05	-0.130	1.110	2.940	184.94	-0.20	3.40	 	 	 	 	 	 	 	 	 	 	 	 	 	 	 	 	 	 	1581500992	6.11	11.32
12/02/2020 09:49:53	120220	12022020	094953	185.13	12.650150	-57.163343	185.29	0.370	0.740	1.980	185.19	-0.70	2.40	 	 	 	 	 	 	 	 	 	 	 	 	 	 	 	 	 	 	1581500993	7.04	13.04
12/02/2020 09:49:54	120220	12022020	094954	185.52	12.650113	-57.163343	185.71	0.740	-0.030	1.140	185.62	-1.50	1.60	 	 	 	 	 	 	 	 	 	 	 	 	 	 	 	 	 	 	1581500994	8.22	15.22
12/02/2020 09:49:55	120220	12022020	094955	186.01	12.650073	-57.163342	186.16	0.580	-0.590	0.850	186.09	-2.00	1.40	 	 	 	 	 	 	 	 	 	 	 	 	 	 	 	 	 	 	1581500995	8.31	15.39
12/02/2020 09:49:56	120220	12022020	094956	186.24	12.650038	-57.163345	186.30	0.020	-0.970	1.270	186.24	-2.40	2.00	 	 	 	 	 	 	 	 	 	 	 	 	 	 	 	 	 	 	1581500996	7.82	14.48
12/02/2020 09:49:57	120220	12022020	094957	185.98	12.650003	-57.163353	185.94	-0.390	-1.350	2.360	185.86	-2.70	3.10	 	 	 	 	 	 	 	 	 	 	 	 	 	 	 	 	 	 	1581500997	7.78	14.41
12/02/2020 09:49:58	120220	12022020	094958	185.30	12.649967	-57.163367	185.38	-0.480	-1.350	3.480	185.30	-2.60	4.10	 	 	 	 	 	 	 	 	 	 	 	 	 	 	 	 	 	 	1581500998	8.28	15.33
12/02/2020 09:49:59	120220	12022020	094959	185.13	12.649930	-57.163382	185.25	-0.490	-0.510	3.810	185.13	-1.70	4.30	 	 	 	 	 	 	 	 	 	 	 	 	 	 	 	 	 	 	1581500999	8.22	15.22
12/02/2020 09:50:00	120220	12022020	095000	185.30	12.649898	-57.163392	185.47	-0.590	0.570	3.290	185.35	-0.70	3.70	 	 	 	 	 	 	 	 	 	 	 	 	 	 	 	 	 	 	1581501000	7.29	13.50
12/02/2020 09:50:01	120220	12022020	095001	185.49	12.649867	-57.163398	185.61	-0.590	0.830	2.530	185.52	-0.60	3.00	1015.20	26.10	26.10	20.60	20.70	-1.0	71.0	71.0	398.0	25.8	272.00	10.10	75.00	10.70	19	9837.0	27.4	27.4	1581501001	6.94	12.85
12/02/2020 09:50:02	120220	12022020	095002	185.58	12.649832	-57.163403	185.67	-0.250	0.270	1.890	185.59	-1.20	2.40	 	 	 	 	 	 	 	 	 	 	 	 	 	 	 	 	 	 	1581501002	7.79	14.43
12/02/2020 09:50:03	120220	12022020	095003	185.75	12.649792	-57.163407	185.88	0.340	-0.240	1.210	185.81	-1.60	1.70	 	 	 	 	 	 	 	 	 	 	 	 	 	 	 	 	 	 	1581501003	8.51	15.76
12/02/2020 09:50:04	120220	12022020	095004	186.09	12.649753	-57.163408	186.20	0.790	-0.240	0.580	186.16	-1.60	1.10	 	 	 	 	 	 	 	 	 	 	 	 	 	 	 	 	 	 	1581501004	8.22	15.22
12/02/2020 09:50:05	120220	12022020	095005	186.43	12.649718	-57.163410	186.51	0.740	-0.110	0.450	186.48	-1.40	1.10	 	 	 	 	 	 	 	 	 	 	 	 	 	 	 	 	 	 	1581501005	7.53	13.95
12/02/2020 09:50:06	120220	12022020	095006	186.55	12.649685	-57.163412	186.57	0.270	-0.220	1.020	186.52	-1.60	1.70	 	 	 	 	 	 	 	 	 	 	 	 	 	 	 	 	 	 	1581501006	7.25	13.43
12/02/2020 09:50:07	120220	12022020	095007	186.27	12.649650	-57.163422	186.23	-0.150	-0.580	1.950	186.18	-2.00	2.70	 	 	 	 	 	 	 	 	 	 	 	 	 	 	 	 	 	 	1581501007	7.53	13.95
12/02/2020 09:50:08	120220	12022020	095008	185.64	12.649615	-57.163433	185.72	-0.190	-0.820	2.880	185.64	-2.20	3.60	 	 	 	 	 	 	 	 	 	 	 	 	 	 	 	 	 	 	1581501008	8.04	14.89
12/02/2020 09:50:09	120220	12022020	095009	185.26	12.649580	-57.163445	185.31	0.020	-0.640	3.520	185.20	-1.90	4.10	 	 	 	 	 	 	 	 	 	 	 	 	 	 	 	 	 	 	1581501009	8.10	15.00
12/02/2020 09:50:10	120220	12022020	095010	185.16	12.649545	-57.163455	185.28	0.040	-0.100	3.520	185.16	-1.40	4.00	 	 	 	 	 	 	 	 	 	 	 	 	 	 	 	 	 	 	1581501010	7.72	14.30
12/02/2020 09:50:11	120220	12022020	095011	185.41	12.649512	-57.163462	185.60	-0.280	0.360	3.000	185.41	-1.00	3.50	 	 	 	 	 	 	 	 	 	 	 	 	 	 	 	 	 	 	1581501011	7.23	13.39
12/02/2020 09:50:12	120220	12022020	095012	185.71	12.649478	-57.163467	185.83	-0.570	0.240	2.520	185.74	-1.20	3.00	 	 	 	 	 	 	 	 	 	 	 	 	 	 	 	 	 	 	1581501012	7.18	13.30
12/02/2020 09:50:13	120220	12022020	095013	185.79	12.649443	-57.163475	185.87	-0.370	-0.380	2.140	185.78	-1.80	2.70	 	 	 	 	 	 	 	 	 	 	 	 	 	 	 	 	 	 	1581501013	7.76	14.37
12/02/2020 09:50:14	120220	12022020	095014	185.67	12.649407	-57.163482	185.68	0.240	-0.880	1.800	185.62	-2.20	2.30	 	 	 	 	 	 	 	 	 	 	 	 	 	 	 	 	 	 	1581501014	8.19	15.17
12/02/2020 09:50:15	120220	12022020	095015	185.36	12.649368	-57.163487	185.34	0.790	-0.970	1.670	185.27	-2.30	2.30	 	 	 	 	 	 	 	 	 	 	 	 	 	 	 	 	 	 	1581501015	8.07	14.95
12/02/2020 09:50:16	120220	12022020	095016	184.85	12.649333	-57.163490	184.93	0.860	-0.690	1.760	184.85	-2.00	2.40	 	 	 	 	 	 	 	 	 	 	 	 	 	 	 	 	 	 	1581501016	7.78	14.41
12/02/2020 09:50:17	120220	12022020	095017	184.69	12.649298	-57.163493	184.78	0.400	-0.130	1.820	184.70	-1.40	2.40	 	 	 	 	 	 	 	 	 	 	 	 	 	 	 	 	 	 	1581501017	7.60	14.08
12/02/2020 09:50:18	120220	12022020	095018	184.99	12.649263	-57.163497	185.20	-0.330	0.530	1.750	185.11	-0.70	2.30	 	 	 	 	 	 	 	 	 	 	 	 	 	 	 	 	 	 	1581501018	7.36	13.63
12/02/2020 09:50:19	120220	12022020	095019	185.65	12.649232	-57.163503	185.88	-0.820	0.750	1.710	185.79	-0.60	2.30	 	 	 	 	 	 	 	 	 	 	 	 	 	 	 	 	 	 	1581501019	7.18	13.30
12/02/2020 09:50:20	120220	12022020	095020	186.24	12.649197	-57.163512	186.41	-0.720	0.220	1.800	186.32	-1.20	2.40	 	 	 	 	 	 	 	 	 	 	 	 	 	 	 	 	 	 	1581501020	7.54	13.96
12/02/2020 09:50:21	120220	12022020	095021	186.42	12.649160	-57.163522	186.50	-0.230	-0.680	2.170	186.39	-2.10	2.80	 	 	 	 	 	 	 	 	 	 	 	 	 	 	 	 	 	 	1581501021	8.23	15.24
12/02/2020 09:50:22	120220	12022020	095022	186.12	12.649122	-57.163530	186.12	0.120	-1.250	2.830	186.01	-2.60	3.50	 	 	 	 	 	 	 	 	 	 	 	 	 	 	 	 	 	 	1581501022	8.57	15.87
12/02/2020 09:50:23	120220	12022020	095023	185.54	12.649083	-57.163540	185.56	0.070	-1.060	3.440	185.43	-2.30	4.10	 	 	 	 	 	 	 	 	 	 	 	 	 	 	 	 	 	 	1581501023	8.32	15.41
12/02/2020 09:50:24	120220	12022020	095024	184.97	12.649050	-57.163550	185.11	-0.180	-0.270	3.620	184.97	-1.50	4.20	 	 	 	 	 	 	 	 	 	 	 	 	 	 	 	 	 	 	1581501024	7.68	14.22
12/02/2020 09:50:25	120220	12022020	095025	184.77	12.649017	-57.163560	184.87	-0.160	0.450	3.220	184.74	-0.80	3.70	 	 	 	 	 	 	 	 	 	 	 	 	 	 	 	 	 	 	1581501025	7.13	13.20
12/02/2020 09:50:26	120220	12022020	095026	184.80	12.648983	-57.163563	185.00	0.220	0.630	2.290	184.86	-0.70	2.70	 	 	 	 	 	 	 	 	 	 	 	 	 	 	 	 	 	 	1581501026	7.20	13.33
12/02/2020 09:50:27	120220	12022020	095027	185.31	12.648948	-57.163563	185.56	0.550	0.360	1.220	185.43	-1.00	1.70	 	 	 	 	 	 	 	 	 	 	 	 	 	 	 	 	 	 	1581501027	7.73	14.32
12/02/2020 09:50:28	120220	12022020	095028	186.09	12.648912	-57.163565	186.18	0.580	-0.080	0.520	186.09	-1.50	1.10	 	 	 	 	 	 	 	 	 	 	 	 	 	 	 	 	 	 	1581501028	7.95	14.72
12/02/2020 09:50:29	120220	12022020	095029	186.40	12.648875	-57.163567	186.51	0.410	-0.520	0.420	186.44	-1.90	1.00	 	 	 	 	 	 	 	 	 	 	 	 	 	 	 	 	 	 	1581501029	7.84	14.52
12/02/2020 09:50:30	120220	12022020	095030	186.54	12.648840	-57.163573	186.61	0.260	-0.730	0.840	186.54	-2.10	1.50	 	 	 	 	 	 	 	 	 	 	 	 	 	 	 	 	 	 	1581501030	7.76	14.37
12/02/2020 09:50:31	120220	12022020	095031	186.43	12.648805	-57.163580	186.45	0.150	-0.750	1.720	186.37	-2.10	2.40	 	 	 	 	 	 	 	 	 	 	 	 	 	 	 	 	 	 	1581501031	7.55	13.98
12/02/2020 09:50:32	120220	12022020	095032	186.08	12.648770	-57.163588	186.17	-0.100	-0.790	2.660	186.08	-2.10	3.30	 	 	 	 	 	 	 	 	 	 	 	 	 	 	 	 	 	 	1581501032	7.58	14.04
12/02/2020 09:50:33	120220	12022020	095033	185.87	12.648735	-57.163598	185.94	-0.590	-0.810	3.490	185.82	-2.10	4.20	 	 	 	 	 	 	 	 	 	 	 	 	 	 	 	 	 	 	1581501033	7.88	14.59
12/02/2020 09:50:34	120220	12022020	095034	185.55	12.648700	-57.163612	185.61	-0.960	-0.770	4.190	185.47	-2.10	4.80	 	 	 	 	 	 	 	 	 	 	 	 	 	 	 	 	 	 	1581501034	8.18	15.15
12/02/2020 09:50:35	120220	12022020	095035	185.18	12.648663	-57.163628	185.28	-0.790	-0.560	4.200	185.14	-1.80	4.70	 	 	 	 	 	 	 	 	 	 	 	 	 	 	 	 	 	 	1581501035	8.37	15.50
12/02/2020 09:50:36	120220	12022020	095036	185.20	12.648627	-57.163638	185.35	-0.250	-0.070	3.290	185.20	-1.30	3.70	 	 	 	 	 	 	 	 	 	 	 	 	 	 	 	 	 	 	1581501036	8.17	15.13
12/02/2020 09:50:37	120220	12022020	095037	185.57	12.648592	-57.163642	185.80	0.220	0.620	2.020	185.68	-0.60	2.40	 	 	 	 	 	 	 	 	 	 	 	 	 	 	 	 	 	 	1581501037	7.67	14.20
12/02/2020 09:50:38	120220	12022020	095038	186.14	12.648558	-57.163643	186.30	0.430	0.970	0.770	186.22	-0.40	1.20	 	 	 	 	 	 	 	 	 	 	 	 	 	 	 	 	 	 	1581501038	7.25	13.43
12/02/2020 09:50:39	120220	12022020	095039	186.51	12.648523	-57.163640	186.60	0.540	0.590	-0.090	186.54	-0.90	0.40	 	 	 	 	 	 	 	 	 	 	 	 	 	 	 	 	 	 	1581501039	7.48	13.85
12/02/2020 09:50:40	120220	12022020	095040	186.60	12.648487	-57.163640	186.64	0.570	-0.270	-0.110	186.59	-1.70	0.50	 	 	 	 	 	 	 	 	 	 	 	 	 	 	 	 	 	 	1581501040	8.05	14.91
12/02/2020 09:50:41	120220	12022020	095041	186.46	12.648448	-57.163643	186.47	0.420	-0.900	0.690	186.42	-2.30	1.40	 	 	 	 	 	 	 	 	 	 	 	 	 	 	 	 	 	 	1581501041	8.31	15.39
12/02/2020 09:50:42	120220	12022020	095042	186.17	12.648412	-57.163652	186.24	0.040	-0.850	1.890	186.17	-2.10	2.60	 	 	 	 	 	 	 	 	 	 	 	 	 	 	 	 	 	 	1581501042	8.01	14.83
12/02/2020 09:50:43	120220	12022020	095043	186.04	12.648378	-57.163665	186.11	-0.450	-0.440	2.930	186.02	-1.70	3.60	 	 	 	 	 	 	 	 	 	 	 	 	 	 	 	 	 	 	1581501043	7.54	13.96
12/02/2020 09:50:44	120220	12022020	095044	186.01	12.648347	-57.163678	186.13	-0.790	-0.210	3.710	186.01	-1.50	4.30	 	 	 	 	 	 	 	 	 	 	 	 	 	 	 	 	 	 	1581501044	7.44	13.78
12/02/2020 09:50:45	120220	12022020	095045	186.05	12.648313	-57.163693	186.20	-0.750	-0.340	4.050	186.07	-1.70	4.60	 	 	 	 	 	 	 	 	 	 	 	 	 	 	 	 	 	 	1581501045	7.80	14.45
12/02/2020 09:50:46	120220	12022020	095046	186.11	12.648278	-57.163707	186.23	-0.250	-0.620	3.550	186.10	-2.00	4.00	 	 	 	 	 	 	 	 	 	 	 	 	 	 	 	 	 	 	1581501046	8.07	14.95
12/02/2020 09:50:47	120220	12022020	095047	185.98	12.648242	-57.163715	186.03	0.460	-0.870	2.720	185.91	-2.20	3.20	 	 	 	 	 	 	 	 	 	 	 	 	 	 	 	 	 	 	1581501047	8.03	14.87
12/02/2020 09:50:48	120220	12022020	095048	185.62	12.648205	-57.163718	185.64	0.980	-0.790	2.000	185.55	-2.10	2.50	 	 	 	 	 	 	 	 	 	 	 	 	 	 	 	 	 	 	1581501048	8.10	15.00
12/02/2020 09:50:49	120220	12022020	095049	185.46	12.648168	-57.163720	185.56	0.910	-0.100	1.350	185.49	-1.30	1.90	 	 	 	 	 	 	 	 	 	 	 	 	 	 	 	 	 	 	1581501049	7.92	14.67
12/02/2020 09:50:50	120220	12022020	095050	185.76	12.648133	-57.163718	185.90	0.340	0.730	1.020	185.85	-0.60	1.60	 	 	 	 	 	 	 	 	 	 	 	 	 	 	 	 	 	 	1581501050	7.21	13.35
12/02/2020 09:50:51	120220	12022020	095051	186.18	12.648102	-57.163720	186.27	-0.200	0.780	1.190	186.24	-0.60	1.80	 	 	 	 	 	 	 	 	 	 	 	 	 	 	 	 	 	 	1581501051	6.95	12.87
12/02/2020 09:50:52	120220	12022020	095052	186.35	12.648067	-57.163727	186.40	-0.390	-0.040	1.740	186.35	-1.50	2.40	 	 	 	 	 	 	 	 	 	 	 	 	 	 	 	 	 	 	1581501052	7.73	14.32
12/02/2020 09:50:53	120220	12022020	095053	186.30	12.648027	-57.163735	186.38	-0.400	-0.890	2.670	186.30	-2.30	3.40	 	 	 	 	 	 	 	 	 	 	 	 	 	 	 	 	 	 	1581501053	8.66	16.04
12/02/2020 09:50:54	120220	12022020	095054	186.37	12.647988	-57.163748	186.47	-0.460	-0.980	3.370	186.37	-2.30	4.00	 	 	 	 	 	 	 	 	 	 	 	 	 	 	 	 	 	 	1581501054	8.75	16.21
12/02/2020 09:50:55	120220	12022020	095055	186.49	12.647955	-57.163762	186.64	-0.560	-0.380	3.550	186.52	-1.60	4.10	 	 	 	 	 	 	 	 	 	 	 	 	 	 	 	 	 	 	1581501055	7.85	14.54
12/02/2020 09:50:56	120220	12022020	095056	186.43	12.647923	-57.163773	186.56	-0.410	0.000	3.360	186.43	-1.30	3.90	 	 	 	 	 	 	 	 	 	 	 	 	 	 	 	 	 	 	1581501056	7.03	13.02
12/02/2020 09:50:57	120220	12022020	095057	186.14	12.647890	-57.163780	186.17	0.030	-0.200	2.860	186.05	-1.60	3.30	 	 	 	 	 	 	 	 	 	 	 	 	 	 	 	 	 	 	1581501057	7.32	13.56
12/02/2020 09:50:58	120220	12022020	095058	185.76	12.647853	-57.163783	185.83	0.380	-0.530	2.240	185.72	-1.90	2.70	 	 	 	 	 	 	 	 	 	 	 	 	 	 	 	 	 	 	1581501058	8.04	14.89
12/02/2020 09:50:59	120220	12022020	095059	185.66	12.647815	-57.163785	185.75	0.430	-0.530	1.760	185.67	-1.80	2.30	 	 	 	 	 	 	 	 	 	 	 	 	 	 	 	 	 	 	1581501059	8.15	15.09
12/02/2020 09:51:00	120220	12022020	095100	185.74	12.647780	-57.163790	185.81	0.300	-0.220	1.450	185.75	-1.50	2.00	 	 	 	 	 	 	 	 	 	 	 	 	 	 	 	 	 	 	1581501060	7.74	14.33
12/02/2020 09:51:01	120220	12022020	095101	185.83	12.647745	-57.163795	185.91	0.250	0.120	1.340	185.86	-1.20	1.90	1015.00	26.20	26.20	20.80	20.90	-1.0	72.0	72.0	398.0	25.8	269.00	10.30	74.00	11.10	20	9941.0	27.5	27.5	1581501061	7.43	13.76
12/02/2020 09:51:02	120220	12022020	095102	185.98	12.647710	-57.163800	186.08	0.270	0.290	1.500	186.02	-1.00	2.10	 	 	 	 	 	 	 	 	 	 	 	 	 	 	 	 	 	 	1581501062	7.44	13.78
12/02/2020 09:51:03	120220	12022020	095103	186.19	12.647677	-57.163805	186.30	0.180	0.210	1.820	186.23	-1.20	2.40	 	 	 	 	 	 	 	 	 	 	 	 	 	 	 	 	 	 	1581501063	7.57	14.02
12/02/2020 09:51:04	120220	12022020	095104	186.41	12.647640	-57.163813	186.53	-0.030	-0.080	2.040	186.44	-1.50	2.60	 	 	 	 	 	 	 	 	 	 	 	 	 	 	 	 	 	 	1581501064	7.75	14.35
12/02/2020 09:51:05	120220	12022020	095105	186.54	12.647605	-57.163822	186.63	-0.230	-0.450	2.240	186.55	-1.90	2.80	 	 	 	 	 	 	 	 	 	 	 	 	 	 	 	 	 	 	1581501065	7.89	14.61
12/02/2020 09:51:06	120220	12022020	095106	186.55	12.647570	-57.163832	186.63	-0.290	-0.720	2.440	186.55	-2.10	3.00	 	 	 	 	 	 	 	 	 	 	 	 	 	 	 	 	 	 	1581501066	7.96	14.74
12/02/2020 09:51:07	120220	12022020	095107	186.55	12.647533	-57.163842	186.63	-0.230	-0.760	2.430	186.54	-2.10	3.00	 	 	 	 	 	 	 	 	 	 	 	 	 	 	 	 	 	 	1581501067	7.83	14.50
12/02/2020 09:51:08	120220	12022020	095108	186.36	12.647500	-57.163848	186.44	-0.110	-0.770	2.310	186.36	-2.10	2.80	 	 	 	 	 	 	 	 	 	 	 	 	 	 	 	 	 	 	1581501068	7.64	14.15
12/02/2020 09:51:09	120220	12022020	095109	186.15	12.647463	-57.163855	186.18	0.010	-0.810	2.030	186.10	-2.10	2.50	 	 	 	 	 	 	 	 	 	 	 	 	 	 	 	 	 	 	1581501069	7.80	14.45
12/02/2020 09:51:10	120220	12022020	095110	185.92	12.647427	-57.163858	185.96	0.070	-0.620	1.760	185.89	-1.90	2.30	 	 	 	 	 	 	 	 	 	 	 	 	 	 	 	 	 	 	1581501070	7.98	14.78
12/02/2020 09:51:11	120220	12022020	095111	185.76	12.647390	-57.163863	185.79	0.030	-0.160	1.570	185.73	-1.40	2.10	 	 	 	 	 	 	 	 	 	 	 	 	 	 	 	 	 	 	1581501071	7.83	14.50
12/02/2020 09:51:12	120220	12022020	095112	185.61	12.647355	-57.163868	185.65	-0.020	0.320	1.540	185.59	-1.00	2.10	 	 	 	 	 	 	 	 	 	 	 	 	 	 	 	 	 	 	1581501072	7.62	14.11
12/02/2020 09:51:13	120220	12022020	095113	185.60	12.647320	-57.163873	185.71	-0.030	0.680	1.640	185.63	-0.60	2.20	 	 	 	 	 	 	 	 	 	 	 	 	 	 	 	 	 	 	1581501073	7.61	14.09
12/02/2020 09:51:14	120220	12022020	095114	185.84	12.647285	-57.163880	185.93	0.010	0.630	1.910	185.84	-0.80	2.50	 	 	 	 	 	 	 	 	 	 	 	 	 	 	 	 	 	 	1581501074	7.64	14.15
12/02/2020 09:51:15	120220	12022020	095115	185.96	12.647250	-57.163887	186.09	0.120	0.090	2.260	185.98	-1.40	2.80	 	 	 	 	 	 	 	 	 	 	 	 	 	 	 	 	 	 	1581501075	7.92	14.67
12/02/2020 09:51:16	120220	12022020	095116	186.09	12.647212	-57.163895	186.24	0.090	-0.560	2.550	186.12	-2.00	3.10	 	 	 	 	 	 	 	 	 	 	 	 	 	 	 	 	 	 	1581501076	8.30	15.37
12/02/2020 09:51:17	120220	12022020	095117	186.26	12.647173	-57.163903	186.41	-0.250	-0.820	2.980	186.29	-2.20	3.60	 	 	 	 	 	 	 	 	 	 	 	 	 	 	 	 	 	 	1581501077	8.23	15.24
12/02/2020 09:51:18	120220	12022020	095118	186.27	12.647140	-57.163915	186.40	-0.610	-0.810	3.310	186.27	-2.10	3.90	 	 	 	 	 	 	 	 	 	 	 	 	 	 	 	 	 	 	1581501078	7.83	14.50
12/02/2020 09:51:19	120220	12022020	095119	186.13	12.647107	-57.163928	186.21	-0.560	-0.670	3.260	186.10	-2.00	3.70	 	 	 	 	 	 	 	 	 	 	 	 	 	 	 	 	 	 	1581501079	7.69	14.24
12/02/2020 09:51:20	120220	12022020	095120	185.97	12.647072	-57.163938	186.06	0.030	-0.450	2.690	185.94	-1.80	3.10	 	 	 	 	 	 	 	 	 	 	 	 	 	 	 	 	 	 	1581501080	7.62	14.11
12/02/2020 09:51:21	120220	12022020	095121	185.84	12.647037	-57.163942	185.92	0.780	-0.310	1.940	185.82	-1.70	2.40	 	 	 	 	 	 	 	 	 	 	 	 	 	 	 	 	 	 	1581501081	7.57	14.02
12/02/2020 09:51:22	120220	12022020	095122	185.90	12.647000	-57.163942	185.98	1.080	-0.220	1.150	185.90	-1.50	1.60	 	 	 	 	 	 	 	 	 	 	 	 	 	 	 	 	 	 	1581501082	7.90	14.63
12/02/2020 09:51:23	120220	12022020	095123	186.19	12.646963	-57.163938	186.36	0.660	0.020	0.740	186.29	-1.30	1.30	 	 	 	 	 	 	 	 	 	 	 	 	 	 	 	 	 	 	1581501083	7.99	14.80
12/02/2020 09:51:24	120220	12022020	095124	186.77	12.646928	-57.163940	186.83	-0.120	0.190	0.950	186.77	-1.20	1.60	 	 	 	 	 	 	 	 	 	 	 	 	 	 	 	 	 	 	1581501084	7.61	14.09
12/02/2020 09:51:25	120220	12022020	095125	186.93	12.646893	-57.163947	186.99	-0.660	-0.090	1.710	186.91	-1.50	2.40	 	 	 	 	 	 	 	 	 	 	 	 	 	 	 	 	 	 	1581501085	7.57	14.02
12/02/2020 09:51:26	120220	12022020	095126	186.61	12.646857	-57.163958	186.61	-0.660	-0.620	2.930	186.50	-2.00	3.60	 	 	 	 	 	 	 	 	 	 	 	 	 	 	 	 	 	 	1581501086	8.20	15.19
12/02/2020 09:51:27	120220	12022020	095127	186.07	12.646820	-57.163973	186.13	-0.410	-0.770	3.910	185.99	-2.10	4.50	 	 	 	 	 	 	 	 	 	 	 	 	 	 	 	 	 	 	1581501087	8.71	16.13
12/02/2020 09:51:28	120220	12022020	095128	185.87	12.646783	-57.163988	186.02	-0.250	-0.320	4.000	185.87	-1.60	4.50	 	 	 	 	 	 	 	 	 	 	 	 	 	 	 	 	 	 	1581501088	8.29	15.35
12/02/2020 09:51:29	120220	12022020	095129	185.99	12.646750	-57.163998	186.15	-0.150	0.180	3.330	186.02	-1.10	3.70	 	 	 	 	 	 	 	 	 	 	 	 	 	 	 	 	 	 	1581501089	7.46	13.82
12/02/2020 09:51:30	120220	12022020	095130	186.12	12.646717	-57.164003	186.25	0.120	0.130	2.270	186.13	-1.30	2.70	 	 	 	 	 	 	 	 	 	 	 	 	 	 	 	 	 	 	1581501090	7.27	13.46
12/02/2020 09:51:31	120220	12022020	095131	186.16	12.646680	-57.164003	186.27	0.460	-0.400	1.320	186.17	-1.80	1.80	 	 	 	 	 	 	 	 	 	 	 	 	 	 	 	 	 	 	1581501091	7.92	14.67
12/02/2020 09:51:32	120220	12022020	095132	186.38	12.646640	-57.164003	186.47	0.430	-0.740	0.710	186.38	-2.10	1.20	 	 	 	 	 	 	 	 	 	 	 	 	 	 	 	 	 	 	1581501092	8.46	15.67
12/02/2020 09:51:33	120220	12022020	095133	186.74	12.646603	-57.164005	186.92	-0.120	-0.500	0.740	186.83	-1.80	1.40	 	 	 	 	 	 	 	 	 	 	 	 	 	 	 	 	 	 	1581501093	8.09	14.98
12/02/2020 09:51:34	120220	12022020	095134	187.17	12.646570	-57.164013	187.25	-0.710	-0.110	1.290	187.17	-1.50	1.90	 	 	 	 	 	 	 	 	 	 	 	 	 	 	 	 	 	 	1581501094	7.39	13.69
12/02/2020 09:51:35	120220	12022020	095135	187.09	12.646537	-57.164025	187.12	-0.650	-0.270	1.960	187.03	-1.70	2.60	 	 	 	 	 	 	 	 	 	 	 	 	 	 	 	 	 	 	1581501095	7.45	13.80
12/02/2020 09:51:36	120220	12022020	095136	186.72	12.646500	-57.164037	186.78	0.100	-0.750	2.370	186.67	-2.10	2.90	 	 	 	 	 	 	 	 	 	 	 	 	 	 	 	 	 	 	1581501096	8.27	15.32
12/02/2020 09:51:37	120220	12022020	095137	186.69	12.646460	-57.164045	186.88	0.710	-0.500	2.360	186.75	-1.70	2.90	 	 	 	 	 	 	 	 	 	 	 	 	 	 	 	 	 	 	1581501097	8.72	16.15
12/02/2020 09:51:38	120220	12022020	095138	187.29	12.646425	-57.164050	187.41	0.550	0.560	2.110	187.29	-0.70	2.60	 	 	 	 	 	 	 	 	 	 	 	 	 	 	 	 	 	 	1581501098	7.73	14.32
12/02/2020 09:51:39	120220	12022020	095139	187.68	12.646395	-57.164055	187.86	-0.130	1.240	2.020	187.74	-0.10	2.60	 	 	 	 	 	 	 	 	 	 	 	 	 	 	 	 	 	 	1581501099	6.60	12.22
12/02/2020 09:51:40	120220	12022020	095140	187.61	12.646363	-57.164062	187.72	-0.570	0.690	2.430	187.61	-0.80	3.00	 	 	 	 	 	 	 	 	 	 	 	 	 	 	 	 	 	 	1581501100	6.82	12.63
12/02/2020 09:51:41	120220	12022020	095141	187.20	12.646327	-57.164073	187.22	-0.330	-0.590	2.930	187.10	-2.10	3.50	 	 	 	 	 	 	 	 	 	 	 	 	 	 	 	 	 	 	1581501101	8.18	15.15
12/02/2020 09:51:42	120220	12022020	095142	186.86	12.646288	-57.164085	186.98	0.290	-1.340	2.830	186.86	-2.70	3.30	 	 	 	 	 	 	 	 	 	 	 	 	 	 	 	 	 	 	1581501102	8.93	16.54
12/02/2020 09:51:43	120220	12022020	095143	187.02	12.646252	-57.164093	187.21	0.670	-1.060	2.100	187.10	-2.40	2.50	 	 	 	 	 	 	 	 	 	 	 	 	 	 	 	 	 	 	1581501103	8.11	15.02
12/02/2020 09:51:44	120220	12022020	095144	187.45	12.646218	-57.164097	187.54	0.520	-0.570	1.210	187.45	-1.90	1.70	 	 	 	 	 	 	 	 	 	 	 	 	 	 	 	 	 	 	1581501104	6.99	12.95
12/02/2020 09:51:45	120220	12022020	095145	187.45	12.646187	-57.164098	187.47	0.130	-0.720	0.900	187.40	-2.20	1.50	 	 	 	 	 	 	 	 	 	 	 	 	 	 	 	 	 	 	1581501105	6.95	12.87
12/02/2020 09:51:46	120220	12022020	095146	186.88	12.646150	-57.164103	186.97	-0.160	-1.280	1.450	186.88	-2.70	2.10	 	 	 	 	 	 	 	 	 	 	 	 	 	 	 	 	 	 	1581501106	7.94	14.70
12/02/2020 09:51:47	120220	12022020	095147	186.49	12.646110	-57.164113	186.51	-0.350	-1.150	2.180	186.41	-2.40	2.80	 	 	 	 	 	 	 	 	 	 	 	 	 	 	 	 	 	 	1581501107	8.71	16.13
12/02/2020 09:51:48	120220	12022020	095148	186.30	12.646073	-57.164125	186.41	-0.540	-0.020	2.630	186.30	-1.20	3.20	 	 	 	 	 	 	 	 	 	 	 	 	 	 	 	 	 	 	1581501108	8.24	15.26
12/02/2020 09:51:49	120220	12022020	095149	186.44	12.646042	-57.164137	186.61	-0.700	1.340	2.750	186.50	0.10	3.30	 	 	 	 	 	 	 	 	 	 	 	 	 	 	 	 	 	 	1581501109	7.23	13.39
12/02/2020 09:51:50	120220	12022020	095150	186.75	12.646012	-57.164145	186.86	-0.590	1.770	2.410	186.75	0.30	2.90	 	 	 	 	 	 	 	 	 	 	 	 	 	 	 	 	 	 	1581501110	6.85	12.69
12/02/2020 09:51:51	120220	12022020	095151	186.89	12.645977	-57.164152	187.00	-0.210	1.000	1.920	186.89	-0.60	2.40	 	 	 	 	 	 	 	 	 	 	 	 	 	 	 	 	 	 	1581501111	7.53	13.95
12/02/2020 09:51:52	120220	12022020	095152	186.88	12.645938	-57.164157	186.94	0.240	-0.400	1.820	186.85	-2.00	2.40	 	 	 	 	 	 	 	 	 	 	 	 	 	 	 	 	 	 	1581501112	8.41	15.58
12/02/2020 09:51:53	120220	12022020	095153	186.57	12.645898	-57.164163	186.58	0.540	-1.500	2.120	186.57	-2.90	2.70	 	 	 	 	 	 	 	 	 	 	 	 	 	 	 	 	 	 	1581501113	8.78	16.26
12/02/2020 09:51:54	120220	12022020	095154	186.04	12.645860	-57.164172	186.04	0.560	-1.640	2.530	185.94	-2.90	3.10	 	 	 	 	 	 	 	 	 	 	 	 	 	 	 	 	 	 	1581501114	8.36	15.48
12/02/2020 09:51:55	120220	12022020	095155	185.56	12.645827	-57.164178	185.60	0.380	-0.980	2.750	185.49	-2.20	3.30	 	 	 	 	 	 	 	 	 	 	 	 	 	 	 	 	 	 	1581501115	7.48	13.85
12/02/2020 09:51:56	120220	12022020	095156	185.25	12.645795	-57.164187	185.35	0.170	-0.230	2.770	185.25	-1.50	3.30	 	 	 	 	 	 	 	 	 	 	 	 	 	 	 	 	 	 	1581501116	6.90	12.78
12/02/2020 09:51:57	120220	12022020	095157	185.18	12.645762	-57.164192	185.30	0.020	0.140	2.600	185.20	-1.20	3.10	 	 	 	 	 	 	 	 	 	 	 	 	 	 	 	 	 	 	1581501117	7.06	13.08
12/02/2020 09:51:58	120220	12022020	095158	185.46	12.645728	-57.164198	185.56	-0.130	0.260	2.290	185.46	-1.10	2.80	 	 	 	 	 	 	 	 	 	 	 	 	 	 	 	 	 	 	1581501118	7.55	13.98
12/02/2020 09:51:59	120220	12022020	095159	185.74	12.645692	-57.164205	185.91	-0.210	0.250	1.960	185.80	-1.10	2.40	 	 	 	 	 	 	 	 	 	 	 	 	 	 	 	 	 	 	1581501119	7.72	14.30
12/02/2020 09:52:00	120220	12022020	095200	186.08	12.645657	-57.164212	186.18	-0.020	0.080	1.540	186.08	-1.30	2.00	 	 	 	 	 	 	 	 	 	 	 	 	 	 	 	 	 	 	1581501120	7.74	14.33
12/02/2020 09:52:01	120220	12022020	095201	186.31	12.645622	-57.164215	186.44	0.320	-0.180	1.170	186.36	-1.60	1.70	1015.10	26.10	26.20	20.90	20.90	-1.0	72.0	72.0	398.0	25.8	262.00	10.90	69.00	12.10	21	9408.0	27.5	27.5	1581501121	7.81	14.46
12/02/2020 09:52:02	120220	12022020	095202	186.50	12.645585	-57.164217	186.58	0.410	-0.580	1.280	186.51	-2.00	1.90	 	 	 	 	 	 	 	 	 	 	 	 	 	 	 	 	 	 	1581501122	7.87	14.58
12/02/2020 09:52:03	120220	12022020	095203	186.40	12.645548	-57.164222	186.41	0.080	-1.020	1.970	186.33	-2.40	2.70	 	 	 	 	 	 	 	 	 	 	 	 	 	 	 	 	 	 	1581501123	7.96	14.74
12/02/2020 09:52:04	120220	12022020	095204	185.75	12.645512	-57.164232	185.86	-0.400	-1.270	3.040	185.75	-2.60	3.70	 	 	 	 	 	 	 	 	 	 	 	 	 	 	 	 	 	 	1581501124	8.16	15.11
12/02/2020 09:52:05	120220	12022020	095205	185.23	12.645475	-57.164245	185.27	-0.670	-0.960	3.810	185.13	-2.20	4.40	 	 	 	 	 	 	 	 	 	 	 	 	 	 	 	 	 	 	1581501125	8.31	15.39
12/02/2020 09:52:06	120220	12022020	095206	184.87	12.645440	-57.164258	184.99	-0.630	-0.080	3.900	184.85	-1.30	4.40	 	 	 	 	 	 	 	 	 	 	 	 	 	 	 	 	 	 	1581501126	7.92	14.67
12/02/2020 09:52:07	120220	12022020	095207	184.88	12.645407	-57.164267	185.04	-0.370	0.720	3.350	184.91	-0.60	3.80	 	 	 	 	 	 	 	 	 	 	 	 	 	 	 	 	 	 	1581501127	7.28	13.48
12/02/2020 09:52:08	120220	12022020	095208	185.10	12.645375	-57.164272	185.27	0.000	0.870	2.450	185.15	-0.50	2.90	 	 	 	 	 	 	 	 	 	 	 	 	 	 	 	 	 	 	1581501128	7.24	13.41
12/02/2020 09:52:09	120220	12022020	095209	185.34	12.645338	-57.164273	185.51	0.410	0.400	1.550	185.40	-1.00	2.00	 	 	 	 	 	 	 	 	 	 	 	 	 	 	 	 	 	 	1581501129	7.79	14.43
12/02/2020 09:52:10	120220	12022020	095210	185.68	12.645300	-57.164273	185.87	0.650	-0.120	0.780	185.76	-1.50	1.30	 	 	 	 	 	 	 	 	 	 	 	 	 	 	 	 	 	 	1581501130	8.24	15.26
12/02/2020 09:52:11	120220	12022020	095211	186.09	12.645262	-57.164273	186.25	0.560	-0.370	0.430	186.16	-1.80	1.00	 	 	 	 	 	 	 	 	 	 	 	 	 	 	 	 	 	 	1581501131	8.05	14.91
12/02/2020 09:52:12	120220	12022020	095212	186.47	12.645227	-57.164277	186.62	0.240	-0.400	0.580	186.54	-1.80	1.20	 	 	 	 	 	 	 	 	 	 	 	 	 	 	 	 	 	 	1581501132	7.53	13.95
12/02/2020 09:52:13	120220	12022020	095213	186.71	12.645193	-57.164282	186.80	-0.030	-0.630	1.230	186.71	-2.10	1.90	 	 	 	 	 	 	 	 	 	 	 	 	 	 	 	 	 	 	1581501133	7.25	13.43
12/02/2020 09:52:14	120220	12022020	095214	186.44	12.645160	-57.164292	186.53	-0.040	-1.190	2.170	186.44	-2.60	2.80	 	 	 	 	 	 	 	 	 	 	 	 	 	 	 	 	 	 	1581501134	7.67	14.20
12/02/2020 09:52:15	120220	12022020	095215	186.02	12.645122	-57.164303	186.03	0.110	-1.470	2.980	185.91	-2.80	3.60	 	 	 	 	 	 	 	 	 	 	 	 	 	 	 	 	 	 	1581501135	8.34	15.45
12/02/2020 09:52:16	120220	12022020	095216	185.47	12.645085	-57.164313	185.59	0.060	-0.940	3.400	185.47	-2.20	3.90	 	 	 	 	 	 	 	 	 	 	 	 	 	 	 	 	 	 	1581501136	8.25	15.28
12/02/2020 09:52:17	120220	12022020	095217	185.29	12.645052	-57.164320	185.40	-0.290	0.070	3.290	185.27	-1.20	3.80	 	 	 	 	 	 	 	 	 	 	 	 	 	 	 	 	 	 	1581501137	7.51	13.91
12/02/2020 09:52:18	120220	12022020	095218	185.31	12.645018	-57.164327	185.48	-0.690	0.750	2.800	185.34	-0.60	3.20	 	 	 	 	 	 	 	 	 	 	 	 	 	 	 	 	 	 	1581501138	7.11	13.17
12/02/2020 09:52:19	120220	12022020	095219	185.55	12.644985	-57.164332	185.75	-0.760	0.700	2.170	185.62	-0.70	2.60	 	 	 	 	 	 	 	 	 	 	 	 	 	 	 	 	 	 	1581501139	7.48	13.85
12/02/2020 09:52:20	120220	12022020	095220	185.97	12.644947	-57.164338	186.17	-0.400	0.280	1.490	186.06	-1.20	1.90	 	 	 	 	 	 	 	 	 	 	 	 	 	 	 	 	 	 	1581501140	8.14	15.08
12/02/2020 09:52:21	120220	12022020	095221	186.44	12.644908	-57.164343	186.62	0.150	0.010	0.840	186.52	-1.40	1.30	 	 	 	 	 	 	 	 	 	 	 	 	 	 	 	 	 	 	1581501141	8.24	15.26
12/02/2020 09:52:22	120220	12022020	095222	186.77	12.644873	-57.164347	186.88	0.620	-0.130	0.360	186.82	-1.50	0.90	 	 	 	 	 	 	 	 	 	 	 	 	 	 	 	 	 	 	1581501142	7.84	14.52
12/02/2020 09:52:23	120220	12022020	095223	186.94	12.644837	-57.164348	187.02	0.820	-0.310	0.170	186.98	-1.70	0.70	 	 	 	 	 	 	 	 	 	 	 	 	 	 	 	 	 	 	1581501143	7.62	14.11
12/02/2020 09:52:24	120220	12022020	095224	187.14	12.644802	-57.164350	187.22	0.710	-0.500	0.420	187.18	-1.90	1.00	 	 	 	 	 	 	 	 	 	 	 	 	 	 	 	 	 	 	1581501144	7.62	14.11
12/02/2020 09:52:25	120220	12022020	095225	187.25	12.644767	-57.164355	187.28	0.360	-0.710	1.120	187.24	-2.10	1.80	 	 	 	 	 	 	 	 	 	 	 	 	 	 	 	 	 	 	1581501145	7.59	14.06
12/02/2020 09:52:26	120220	12022020	095226	186.84	12.644732	-57.164363	186.90	-0.020	-0.960	2.200	186.84	-2.40	2.90	 	 	 	 	 	 	 	 	 	 	 	 	 	 	 	 	 	 	1581501146	7.72	14.30
12/02/2020 09:52:27	120220	12022020	095227	186.31	12.644695	-57.164373	186.28	-0.390	-1.110	3.420	186.31	-2.50	4.10	 	 	 	 	 	 	 	 	 	 	 	 	 	 	 	 	 	 	1581501147	8.10	15.00
12/02/2020 09:52:28	120220	12022020	095228	185.67	12.644658	-57.164388	185.69	-0.620	-0.930	4.190	185.56	-2.20	4.70	 	 	 	 	 	 	 	 	 	 	 	 	 	 	 	 	 	 	1581501148	8.41	15.58
12/02/2020 09:52:29	120220	12022020	095229	185.29	12.644623	-57.164402	185.43	-0.630	-0.300	4.180	185.29	-1.50	4.60	 	 	 	 	 	 	 	 	 	 	 	 	 	 	 	 	 	 	1581501149	8.35	15.46
12/02/2020 09:52:30	120220	12022020	095230	185.70	12.644588	-57.164412	185.83	-0.470	0.660	3.210	185.70	-0.60	3.50	 	 	 	 	 	 	 	 	 	 	 	 	 	 	 	 	 	 	1581501150	7.81	14.46
12/02/2020 09:52:31	120220	12022020	095231	186.35	12.644555	-57.164417	186.61	-0.260	1.310	1.820	186.50	-0.10	2.20	 	 	 	 	 	 	 	 	 	 	 	 	 	 	 	 	 	 	1581501151	7.12	13.19
12/02/2020 09:52:32	120220	12022020	095232	187.11	12.644522	-57.164417	187.18	0.020	1.040	0.750	187.11	-0.50	1.20	 	 	 	 	 	 	 	 	 	 	 	 	 	 	 	 	 	 	1581501152	7.17	13.28
12/02/2020 09:52:33	120220	12022020	095233	187.35	12.644485	-57.164417	187.44	0.380	0.060	0.230	187.35	-1.50	0.70	 	 	 	 	 	 	 	 	 	 	 	 	 	 	 	 	 	 	1581501153	7.91	14.65
12/02/2020 09:52:34	120220	12022020	095234	187.64	12.644447	-57.164420	187.69	0.670	-0.860	0.160	187.64	-2.30	0.70	 	 	 	 	 	 	 	 	 	 	 	 	 	 	 	 	 	 	1581501154	8.39	15.54
12/02/2020 09:52:35	120220	12022020	095235	187.83	12.644408	-57.164425	187.90	0.770	-1.330	0.530	187.85	-2.80	1.20	 	 	 	 	 	 	 	 	 	 	 	 	 	 	 	 	 	 	1581501155	8.13	15.06
12/02/2020 09:52:36	120220	12022020	095236	187.54	12.644373	-57.164433	187.60	0.730	-1.500	1.380	187.54	-2.90	2.10	 	 	 	 	 	 	 	 	 	 	 	 	 	 	 	 	 	 	1581501156	7.71	14.28
12/02/2020 09:52:37	120220	12022020	095237	186.87	12.644338	-57.164442	186.77	0.520	-1.440	2.550	186.69	-2.80	3.20	 	 	 	 	 	 	 	 	 	 	 	 	 	 	 	 	 	 	1581501157	7.76	14.37
12/02/2020 09:52:38	120220	12022020	095238	186.10	12.644302	-57.164452	186.21	-0.000	-0.770	3.400	186.10	-2.00	4.00	 	 	 	 	 	 	 	 	 	 	 	 	 	 	 	 	 	 	1581501158	8.06	14.93
12/02/2020 09:52:39	120220	12022020	095239	186.24	12.644267	-57.164462	186.48	-0.770	0.380	3.670	186.35	-0.80	4.20	 	 	 	 	 	 	 	 	 	 	 	 	 	 	 	 	 	 	1581501159	7.76	14.37
12/02/2020 09:52:40	120220	12022020	095240	187.14	12.644235	-57.164475	187.27	-1.380	1.310	3.500	187.14	0.00	3.90	 	 	 	 	 	 	 	 	 	 	 	 	 	 	 	 	 	 	1581501160	7.27	13.46
12/02/2020 09:52:41	120220	12022020	095241	187.79	12.644203	-57.164487	188.04	-1.340	1.330	2.850	187.79	-0.10	3.20	 	 	 	 	 	 	 	 	 	 	 	 	 	 	 	 	 	 	1581501161	7.30	13.52
12/02/2020 09:52:42	120220	12022020	095242	188.49	12.644168	-57.164495	188.59	-0.560	0.420	1.990	188.49	-1.10	2.40	 	 	 	 	 	 	 	 	 	 	 	 	 	 	 	 	 	 	1581501162	7.92	14.67
12/02/2020 09:52:43	120220	12022020	095243	188.71	12.644128	-57.164502	188.84	0.450	-0.630	1.180	188.75	-2.10	1.60	 	 	 	 	 	 	 	 	 	 	 	 	 	 	 	 	 	 	1581501163	8.62	15.96
12/02/2020 09:52:44	120220	12022020	095244	188.85	12.644088	-57.164505	188.94	1.040	-1.000	0.440	188.85	-2.40	0.90	 	 	 	 	 	 	 	 	 	 	 	 	 	 	 	 	 	 	1581501164	8.57	15.87
12/02/2020 09:52:45	120220	12022020	095245	188.82	12.644053	-57.164507	188.87	1.020	-0.700	0.010	188.82	-2.00	0.50	 	 	 	 	 	 	 	 	 	 	 	 	 	 	 	 	 	 	1581501165	7.72	14.30
12/02/2020 09:52:46	120220	12022020	095246	188.65	12.644020	-57.164510	188.71	0.720	-0.380	0.060	188.65	-1.80	0.70	 	 	 	 	 	 	 	 	 	 	 	 	 	 	 	 	 	 	1581501166	7.08	13.11
12/02/2020 09:52:47	120220	12022020	095247	188.41	12.643987	-57.164513	188.41	0.460	-0.430	0.630	188.34	-1.80	1.30	 	 	 	 	 	 	 	 	 	 	 	 	 	 	 	 	 	 	1581501167	7.25	13.43
12/02/2020 09:52:48	120220	12022020	095248	187.97	12.643952	-57.164522	188.05	0.180	-0.600	1.600	187.97	-2.00	2.30	 	 	 	 	 	 	 	 	 	 	 	 	 	 	 	 	 	 	1581501168	7.87	14.58
12/02/2020 09:52:49	120220	12022020	095249	187.66	12.643915	-57.164533	187.71	-0.210	-0.580	2.720	187.58	-1.90	3.40	 	 	 	 	 	 	 	 	 	 	 	 	 	 	 	 	 	 	1581501169	8.25	15.28
12/02/2020 09:52:50	120220	12022020	095250	187.22	12.643878	-57.164548	187.36	-0.620	-0.320	3.610	187.22	-1.70	4.20	 	 	 	 	 	 	 	 	 	 	 	 	 	 	 	 	 	 	1581501170	8.29	15.35
12/02/2020 09:52:51	120220	12022020	095251	186.99	12.643845	-57.164565	187.10	-0.820	0.020	3.860	186.96	-1.30	4.30	 	 	 	 	 	 	 	 	 	 	 	 	 	 	 	 	 	 	1581501171	8.16	15.11
12/02/2020 09:52:52	120220	12022020	095252	187.04	12.643810	-57.164577	187.18	-0.690	0.350	3.270	187.04	-1.00	3.60	 	 	 	 	 	 	 	 	 	 	 	 	 	 	 	 	 	 	1581501172	7.92	14.67
12/02/2020 09:52:53	120220	12022020	095253	187.41	12.643775	-57.164585	187.64	-0.370	0.490	2.070	187.41	-0.90	2.40	 	 	 	 	 	 	 	 	 	 	 	 	 	 	 	 	 	 	1581501173	7.63	14.13
12/02/2020 09:52:54	120220	12022020	095254	188.02	12.643740	-57.164587	188.09	-0.010	0.120	0.920	188.02	-1.40	1.40	 	 	 	 	 	 	 	 	 	 	 	 	 	 	 	 	 	 	1581501174	7.61	14.09
12/02/2020 09:52:55	120220	12022020	095255	188.09	12.643702	-57.164590	188.12	0.380	-0.700	0.540	188.05	-2.20	1.10	 	 	 	 	 	 	 	 	 	 	 	 	 	 	 	 	 	 	1581501175	8.03	14.87
12/02/2020 09:52:56	120220	12022020	095256	187.77	12.643663	-57.164595	187.75	0.730	-1.260	0.800	187.69	-2.70	1.40	 	 	 	 	 	 	 	 	 	 	 	 	 	 	 	 	 	 	1581501176	8.47	15.69
12/02/2020 09:52:57	120220	12022020	095257	187.41	12.643625	-57.164600	187.44	0.790	-0.870	1.180	187.41	-2.10	1.80	 	 	 	 	 	 	 	 	 	 	 	 	 	 	 	 	 	 	1581501177	8.28	15.33
12/02/2020 09:52:58	120220	12022020	095258	187.31	12.643592	-57.164607	187.39	0.400	0.180	1.560	187.31	-1.10	2.10	 	 	 	 	 	 	 	 	 	 	 	 	 	 	 	 	 	 	1581501178	7.33	13.58
12/02/2020 09:52:59	120220	12022020	095259	187.36	12.643562	-57.164613	187.44	-0.140	0.750	1.970	187.36	-0.60	2.50	 	 	 	 	 	 	 	 	 	 	 	 	 	 	 	 	 	 	1581501179	6.71	12.43
12/02/2020 09:53:00	120220	12022020	095300	187.28	12.643528	-57.164622	187.37	-0.350	0.320	2.370	187.28	-1.20	2.90	 	 	 	 	 	 	 	 	 	 	 	 	 	 	 	 	 	 	1581501180	7.31	13.54
12/02/2020 09:53:01	120220	12022020	095301	187.13	12.643490	-57.164632	187.18	-0.140	-0.530	2.780	187.08	-2.00	3.40	1015.00	26.10	26.20	21.00	21.10	-1.0	73.0	73.0	399.0	25.8	264.00	10.20	70.00	11.40	23	8532.0	27.5	27.5	1581501181	8.36	15.48
12/02/2020 09:53:02	120220	12022020	095302	186.80	12.643452	-57.164642	186.92	0.150	-1.040	3.200	186.80	-2.40	3.70	 	 	 	 	 	 	 	 	 	 	 	 	 	 	 	 	 	 	1581501182	8.74	16.19
12/02/2020 09:53:03	120220	12022020	095303	186.55	12.643413	-57.164652	186.63	0.210	-0.980	3.400	186.51	-2.30	3.90	 	 	 	 	 	 	 	 	 	 	 	 	 	 	 	 	 	 	1581501183	8.39	15.54
12/02/2020 09:53:04	120220	12022020	095304	186.37	12.643378	-57.164662	186.50	0.010	-0.490	3.310	186.37	-1.80	3.80	 	 	 	 	 	 	 	 	 	 	 	 	 	 	 	 	 	 	1581501184	7.87	14.58
12/02/2020 09:53:05	120220	12022020	095305	186.52	12.643343	-57.164668	186.73	-0.270	0.150	2.770	186.52	-1.10	3.20	 	 	 	 	 	 	 	 	 	 	 	 	 	 	 	 	 	 	1581501185	7.47	13.83
12/02/2020 09:53:06	120220	12022020	095306	187.08	12.643312	-57.164675	187.19	-0.430	0.580	1.930	187.08	-0.80	2.30	 	 	 	 	 	 	 	 	 	 	 	 	 	 	 	 	 	 	1581501186	7.26	13.45
12/02/2020 09:53:07	120220	12022020	095307	187.57	12.643277	-57.164680	187.79	-0.380	0.520	1.020	187.70	-0.90	1.40	 	 	 	 	 	 	 	 	 	 	 	 	 	 	 	 	 	 	1581501187	7.36	13.63
12/02/2020 09:53:08	120220	12022020	095308	188.17	12.643242	-57.164683	188.32	-0.100	-0.030	0.210	188.25	-1.50	0.70	 	 	 	 	 	 	 	 	 	 	 	 	 	 	 	 	 	 	1581501188	7.71	14.28
12/02/2020 09:53:09	120220	12022020	095309	188.47	12.643203	-57.164687	188.53	0.340	-0.780	-0.050	188.47	-2.30	0.50	 	 	 	 	 	 	 	 	 	 	 	 	 	 	 	 	 	 	1581501189	8.12	15.04
12/02/2020 09:53:10	120220	12022020	095310	188.41	12.643165	-57.164692	188.43	0.790	-1.320	0.310	188.37	-2.70	0.90	 	 	 	 	 	 	 	 	 	 	 	 	 	 	 	 	 	 	1581501190	8.34	15.45
12/02/2020 09:53:11	120220	12022020	095311	188.22	12.643127	-57.164697	188.27	0.900	-1.260	0.890	188.19	-2.60	1.50	 	 	 	 	 	 	 	 	 	 	 	 	 	 	 	 	 	 	1581501191	8.32	15.41
12/02/2020 09:53:12	120220	12022020	095312	188.10	12.643090	-57.164702	188.20	0.440	-0.560	1.700	188.09	-1.80	2.30	 	 	 	 	 	 	 	 	 	 	 	 	 	 	 	 	 	 	1581501192	7.92	14.67
12/02/2020 09:53:13	120220	12022020	095313	188.13	12.643057	-57.164710	188.28	-0.420	0.360	2.640	188.16	-0.90	3.30	 	 	 	 	 	 	 	 	 	 	 	 	 	 	 	 	 	 	1581501193	7.42	13.74
12/02/2020 09:53:14	120220	12022020	095314	188.46	12.643025	-57.164722	188.59	-1.150	0.930	3.290	188.46	-0.40	3.80	 	 	 	 	 	 	 	 	 	 	 	 	 	 	 	 	 	 	1581501194	7.33	13.58
12/02/2020 09:53:15	120220	12022020	095315	188.69	12.642992	-57.164735	188.86	-1.250	0.730	3.460	188.72	-0.80	4.00	 	 	 	 	 	 	 	 	 	 	 	 	 	 	 	 	 	 	1581501195	7.67	14.20
12/02/2020 09:53:16	120220	12022020	095316	188.68	12.642955	-57.164748	188.81	-0.610	-0.130	3.320	188.65	-1.70	3.80	 	 	 	 	 	 	 	 	 	 	 	 	 	 	 	 	 	 	1581501196	8.33	15.43
12/02/2020 09:53:17	120220	12022020	095317	188.49	12.642917	-57.164760	188.62	0.280	-0.790	2.760	188.49	-2.20	3.20	 	 	 	 	 	 	 	 	 	 	 	 	 	 	 	 	 	 	1581501197	8.87	16.43
12/02/2020 09:53:18	120220	12022020	095318	188.48	12.642877	-57.164767	188.64	0.800	-0.630	1.660	188.52	-1.90	2.00	 	 	 	 	 	 	 	 	 	 	 	 	 	 	 	 	 	 	1581501198	8.41	15.58
12/02/2020 09:53:19	120220	12022020	095319	188.72	12.642842	-57.164768	188.89	0.780	-0.170	0.410	188.72	-1.50	0.80	 	 	 	 	 	 	 	 	 	 	 	 	 	 	 	 	 	 	1581501199	7.50	13.89
12/02/2020 09:53:20	120220	12022020	095320	189.08	12.642808	-57.164767	189.16	0.510	-0.210	-0.200	189.08	-1.60	0.30	 	 	 	 	 	 	 	 	 	 	 	 	 	 	 	 	 	 	1581501200	7.30	13.52
12/02/2020 09:53:21	120220	12022020	095321	189.22	12.642772	-57.164770	189.38	0.300	-0.630	-0.050	189.22	-2.00	0.50	 	 	 	 	 	 	 	 	 	 	 	 	 	 	 	 	 	 	1581501201	7.85	14.54
12/02/2020 09:53:22	120220	12022020	095322	189.67	12.642735	-57.164778	189.81	0.070	-0.530	0.350	189.67	-1.90	0.90	 	 	 	 	 	 	 	 	 	 	 	 	 	 	 	 	 	 	1581501202	8.30	15.37
12/02/2020 09:53:23	120220	12022020	095323	190.09	12.642700	-57.164787	190.29	-0.270	0.100	0.880	190.16	-1.20	1.50	 	 	 	 	 	 	 	 	 	 	 	 	 	 	 	 	 	 	1581501203	7.69	14.24
12/02/2020 09:53:24	120220	12022020	095324	190.31	12.642668	-57.164797	190.45	-0.450	0.280	1.620	190.30	-1.20	2.20	 	 	 	 	 	 	 	 	 	 	 	 	 	 	 	 	 	 	1581501204	7.15	13.24
12/02/2020 09:53:25	120220	12022020	095325	190.20	12.642633	-57.164810	190.34	-0.280	-0.250	2.230	190.17	-1.70	2.80	 	 	 	 	 	 	 	 	 	 	 	 	 	 	 	 	 	 	1581501205	7.78	14.41
12/02/2020 09:53:26	120220	12022020	095326	190.09	12.642595	-57.164820	190.23	0.070	-0.740	2.460	190.06	-2.20	3.00	 	 	 	 	 	 	 	 	 	 	 	 	 	 	 	 	 	 	1581501206	8.53	15.80
12/02/2020 09:53:27	120220	12022020	095327	189.88	12.642557	-57.164828	189.96	0.240	-0.910	2.550	189.81	-2.30	3.10	 	 	 	 	 	 	 	 	 	 	 	 	 	 	 	 	 	 	1581501207	8.42	15.59
12/02/2020 09:53:28	120220	12022020	095328	189.33	12.642520	-57.164837	189.48	0.130	-0.910	2.670	189.33	-2.30	3.20	 	 	 	 	 	 	 	 	 	 	 	 	 	 	 	 	 	 	1581501208	8.16	15.11
12/02/2020 09:53:29	120220	12022020	095329	188.99	12.642483	-57.164845	189.07	-0.140	-0.610	2.740	188.94	-1.90	3.20	 	 	 	 	 	 	 	 	 	 	 	 	 	 	 	 	 	 	1581501209	8.17	15.13
12/02/2020 09:53:30	120220	12022020	095330	188.91	12.642447	-57.164855	189.06	-0.410	0.070	2.580	188.91	-1.20	3.00	 	 	 	 	 	 	 	 	 	 	 	 	 	 	 	 	 	 	1581501210	7.98	14.78
12/02/2020 09:53:31	120220	12022020	095331	189.24	12.642413	-57.164863	189.52	-0.550	0.670	2.050	189.24	-0.70	2.50	 	 	 	 	 	 	 	 	 	 	 	 	 	 	 	 	 	 	1581501211	7.58	14.04
12/02/2020 09:53:32	120220	12022020	095332	190.02	12.642378	-57.164872	190.35	-0.490	0.690	1.280	190.20	-0.70	1.70	 	 	 	 	 	 	 	 	 	 	 	 	 	 	 	 	 	 	1581501212	7.58	14.04
12/02/2020 09:53:33	120220	12022020	095333	190.91	12.642342	-57.164878	191.20	-0.190	0.240	0.510	190.91	-1.20	0.90	 	 	 	 	 	 	 	 	 	 	 	 	 	 	 	 	 	 	1581501213	8.02	14.85
12/02/2020 09:53:34	120220	12022020	095334	191.56	12.642303	-57.164885	191.69	0.340	-0.270	0.100	191.56	-1.70	0.60	 	 	 	 	 	 	 	 	 	 	 	 	 	 	 	 	 	 	1581501214	8.27	15.32
12/02/2020 09:53:35	120220	12022020	095335	191.76	12.642267	-57.164890	191.91	0.780	-0.480	0.190	191.78	-1.90	0.80	 	 	 	 	 	 	 	 	 	 	 	 	 	 	 	 	 	 	1581501215	8.23	15.24
12/02/2020 09:53:36	120220	12022020	095336	191.73	12.642230	-57.164895	191.88	0.710	-0.460	0.830	191.73	-1.90	1.50	 	 	 	 	 	 	 	 	 	 	 	 	 	 	 	 	 	 	1581501216	7.84	14.52
12/02/2020 09:53:37	120220	12022020	095337	191.46	12.642195	-57.164903	191.52	0.190	-0.570	1.900	191.36	-2.00	2.60	 	 	 	 	 	 	 	 	 	 	 	 	 	 	 	 	 	 	1581501217	7.65	14.17
12/02/2020 09:53:38	120220	12022020	095338	190.87	12.642160	-57.164917	191.05	-0.350	-0.650	2.850	190.87	-2.00	3.40	 	 	 	 	 	 	 	 	 	 	 	 	 	 	 	 	 	 	1581501218	8.04	14.89
12/02/2020 09:53:39	120220	12022020	095339	190.71	12.642127	-57.164933	190.89	-0.470	-0.250	3.090	190.71	-1.50	3.60	 	 	 	 	 	 	 	 	 	 	 	 	 	 	 	 	 	 	1581501219	8.21	15.20
12/02/2020 09:53:40	120220	12022020	095340	190.98	12.642093	-57.164947	191.13	-0.070	0.230	2.470	190.98	-1.10	2.80	 	 	 	 	 	 	 	 	 	 	 	 	 	 	 	 	 	 	1581501220	7.58	14.04
12/02/2020 09:53:41	120220	12022020	095341	191.34	12.642060	-57.164953	191.57	0.450	-0.020	1.500	191.43	-1.50	1.90	 	 	 	 	 	 	 	 	 	 	 	 	 	 	 	 	 	 	1581501221	7.41	13.72
12/02/2020 09:53:42	120220	12022020	095342	191.79	12.642022	-57.164958	191.91	0.660	-0.930	0.850	191.79	-2.40	1.40	 	 	 	 	 	 	 	 	 	 	 	 	 	 	 	 	 	 	1581501222	8.27	15.32
12/02/2020 09:53:43	120220	12022020	095343	191.92	12.641980	-57.164963	192.07	0.350	-1.520	0.950	191.94	-2.90	1.50	 	 	 	 	 	 	 	 	 	 	 	 	 	 	 	 	 	 	1581501223	8.92	16.52
12/02/2020 09:53:44	120220	12022020	095344	192.11	12.641942	-57.164973	192.27	-0.340	-1.080	1.380	192.11	-2.30	2.00	 	 	 	 	 	 	 	 	 	 	 	 	 	 	 	 	 	 	1581501224	8.54	15.82
12/02/2020 09:53:45	120220	12022020	095345	192.37	12.641908	-57.164983	192.58	-0.960	-0.020	1.860	192.37	-1.30	2.40	 	 	 	 	 	 	 	 	 	 	 	 	 	 	 	 	 	 	1581501225	7.58	14.04
12/02/2020 09:53:46	120220	12022020	095346	192.47	12.641877	-57.164997	192.59	-1.010	0.520	2.320	192.43	-0.90	2.90	 	 	 	 	 	 	 	 	 	 	 	 	 	 	 	 	 	 	1581501226	7.16	13.26
12/02/2020 09:53:47	120220	12022020	095347	192.07	12.641843	-57.165012	192.11	-0.450	0.170	2.710	191.97	-1.30	3.20	 	 	 	 	 	 	 	 	 	 	 	 	 	 	 	 	 	 	1581501227	7.98	14.78
12/02/2020 09:53:48	120220	12022020	095348	191.65	12.641803	-57.165025	191.79	0.120	-0.030	2.700	191.65	-1.40	3.20	 	 	 	 	 	 	 	 	 	 	 	 	 	 	 	 	 	 	1581501228	8.97	16.61
12/02/2020 09:53:49	120220	12022020	095349	191.84	12.641765	-57.165035	192.07	0.280	0.490	2.090	191.95	-0.80	2.50	 	 	 	 	 	 	 	 	 	 	 	 	 	 	 	 	 	 	1581501229	8.57	15.87
12/02/2020 09:53:50	120220	12022020	095350	192.47	12.641732	-57.165042	192.70	0.120	1.140	1.280	192.61	-0.20	1.70	 	 	 	 	 	 	 	 	 	 	 	 	 	 	 	 	 	 	1581501230	7.38	13.67
12/02/2020 09:53:51	120220	12022020	095351	193.09	12.641700	-57.165048	193.29	0.160	0.900	0.670	193.20	-0.60	1.10	 	 	 	 	 	 	 	 	 	 	 	 	 	 	 	 	 	 	1581501231	6.93	12.83
12/02/2020 09:53:52	120220	12022020	095352	193.60	12.641663	-57.165053	193.71	0.510	-0.310	0.440	193.60	-1.90	1.00	 	 	 	 	 	 	 	 	 	 	 	 	 	 	 	 	 	 	1581501232	7.70	14.26
12/02/2020 09:53:53	120220	12022020	095353	193.81	12.641625	-57.165062	193.93	0.770	-1.590	0.640	193.83	-3.10	1.20	 	 	 	 	 	 	 	 	 	 	 	 	 	 	 	 	 	 	1581501233	8.53	15.80
12/02/2020 09:53:54	120220	12022020	095354	193.80	12.641587	-57.165073	193.88	0.660	-2.250	1.290	193.76	-3.70	1.90	 	 	 	 	 	 	 	 	 	 	 	 	 	 	 	 	 	 	1581501234	8.53	15.80
12/02/2020 09:53:55	120220	12022020	095355	193.49	12.641552	-57.165087	193.54	0.250	-2.100	2.160	193.49	-3.40	2.80	 	 	 	 	 	 	 	 	 	 	 	 	 	 	 	 	 	 	1581501235	8.14	15.08
12/02/2020 09:53:56	120220	12022020	095356	192.86	12.641518	-57.165102	193.02	-0.250	-1.340	3.070	192.86	-2.60	3.70	 	 	 	 	 	 	 	 	 	 	 	 	 	 	 	 	 	 	1581501236	7.82	14.48
12/02/2020 09:53:57	120220	12022020	095357	192.40	12.641485	-57.165117	192.47	-0.610	-0.360	3.770	192.40	-1.60	4.30	 	 	 	 	 	 	 	 	 	 	 	 	 	 	 	 	 	 	1581501237	7.78	14.41
12/02/2020 09:53:58	120220	12022020	095358	192.10	12.641452	-57.165133	192.26	-0.730	0.590	3.830	192.10	-0.70	4.30	 	 	 	 	 	 	 	 	 	 	 	 	 	 	 	 	 	 	1581501238	7.97	14.76
12/02/2020 09:53:59	120220	12022020	095359	192.29	12.641418	-57.165147	192.54	-0.640	1.250	3.260	192.38	-0.10	3.60	 	 	 	 	 	 	 	 	 	 	 	 	 	 	 	 	 	 	1581501239	7.98	14.78
12/02/2020 09:54:00	120220	12022020	095400	192.91	12.641382	-57.165157	193.22	-0.480	1.380	2.290	193.08	-0.00	2.70	 	 	 	 	 	 	 	 	 	 	 	 	 	 	 	 	 	 	1581501240	8.02	14.85
12/02/2020 09:54:01	120220	12022020	095401	193.91	12.641345	-57.165163	194.26	-0.300	1.090	1.220	194.14	-0.40	1.60	1015.10	26.20	26.20	21.30	21.30	-1.0	74.0	74.0	405.0	25.8	267.00	9.30	74.00	10.40	24	9091.0	27.5	27.5	1581501241	8.16	15.11
12/02/2020 09:54:02	120220	12022020	095402	195.11	12.641308	-57.165170	195.22	-0.050	0.500	0.480	195.11	-1.00	1.00	 	 	 	 	 	 	 	 	 	 	 	 	 	 	 	 	 	 	1581501242	8.04	14.89
12/02/2020 09:54:03	120220	12022020	095403	195.40	12.641272	-57.165178	195.49	0.440	-0.500	0.450	195.38	-2.10	1.00	 	 	 	 	 	 	 	 	 	 	 	 	 	 	 	 	 	 	1581501243	7.88	14.59
12/02/2020 09:54:04	120220	12022020	095404	194.93	12.641235	-57.165188	194.87	1.080	-1.760	1.100	194.76	-3.30	1.70	 	 	 	 	 	 	 	 	 	 	 	 	 	 	 	 	 	 	1581501244	8.22	15.22
12/02/2020 09:54:05	120220	12022020	095405	194.04	12.641197	-57.165200	194.02	1.300	-2.280	1.980	193.89	-3.60	2.60	 	 	 	 	 	 	 	 	 	 	 	 	 	 	 	 	 	 	1581501245	8.72	16.15
12/02/2020 09:54:06	120220	12022020	095406	193.57	12.641160	-57.165212	193.74	0.600	-1.390	2.640	193.57	-2.60	3.20	 	 	 	 	 	 	 	 	 	 	 	 	 	 	 	 	 	 	1581501246	8.24	15.26
12/02/2020 09:54:07	120220	12022020	095407	193.86	12.641128	-57.165223	194.16	-0.700	0.190	2.960	193.86	-1.00	3.50	 	 	 	 	 	 	 	 	 	 	 	 	 	 	 	 	 	 	1581501247	7.04	13.04
12/02/2020 09:54:08	120220	12022020	095408	194.52	12.641103	-57.165242	194.68	-1.630	1.140	3.020	194.52	-0.20	3.50	 	 	 	 	 	 	 	 	 	 	 	 	 	 	 	 	 	 	1581501248	6.72	12.45
12/02/2020 09:54:09	120220	12022020	095409	194.74	12.641073	-57.165262	194.93	-1.310	0.800	2.810	194.74	-0.70	3.30	 	 	 	 	 	 	 	 	 	 	 	 	 	 	 	 	 	 	1581501249	7.60	14.08
12/02/2020 09:54:10	120220	12022020	095410	194.76	12.641037	-57.165280	194.89	-0.020	-0.050	2.270	194.76	-1.50	2.70	 	 	 	 	 	 	 	 	 	 	 	 	 	 	 	 	 	 	1581501250	8.76	16.22
12/02/2020 09:54:11	120220	12022020	095411	194.81	12.640997	-57.165292	194.98	1.110	-0.420	1.610	194.85	-1.80	2.00	 	 	 	 	 	 	 	 	 	 	 	 	 	 	 	 	 	 	1581501251	9.00	16.67
12/02/2020 09:54:12	120220	12022020	095412	195.17	12.640958	-57.165298	195.29	1.230	-0.250	0.990	195.17	-1.60	1.50	 	 	 	 	 	 	 	 	 	 	 	 	 	 	 	 	 	 	1581501252	8.32	15.41
12/02/2020 09:54:13	120220	12022020	095413	195.36	12.640923	-57.165302	195.48	0.520	-0.200	0.870	195.38	-1.60	1.40	 	 	 	 	 	 	 	 	 	 	 	 	 	 	 	 	 	 	1581501253	7.60	14.08
12/02/2020 09:54:14	120220	12022020	095414	195.34	12.640890	-57.165310	195.46	-0.270	-0.420	1.470	195.34	-1.90	2.10	 	 	 	 	 	 	 	 	 	 	 	 	 	 	 	 	 	 	1581501254	7.58	14.04
12/02/2020 09:54:15	120220	12022020	095415	195.24	12.640855	-57.165325	195.33	-0.640	-0.640	2.250	195.21	-2.10	2.90	 	 	 	 	 	 	 	 	 	 	 	 	 	 	 	 	 	 	1581501255	7.94	14.70
12/02/2020 09:54:16	120220	12022020	095416	194.82	12.640822	-57.165343	194.97	-0.540	-0.800	3.000	194.82	-2.20	3.60	 	 	 	 	 	 	 	 	 	 	 	 	 	 	 	 	 	 	1581501256	8.13	15.06
12/02/2020 09:54:17	120220	12022020	095417	194.26	12.640788	-57.165363	194.26	-0.210	-0.900	3.570	194.10	-2.30	4.10	 	 	 	 	 	 	 	 	 	 	 	 	 	 	 	 	 	 	1581501257	8.30	15.37
12/02/2020 09:54:18	120220	12022020	095418	193.55	12.640753	-57.165380	193.60	0.030	-0.620	3.600	193.44	-1.90	4.10	 	 	 	 	 	 	 	 	 	 	 	 	 	 	 	 	 	 	1581501258	8.38	15.52
12/02/2020 09:54:19	120220	12022020	095419	193.23	12.640718	-57.165395	193.38	0.070	0.130	2.990	193.24	-1.10	3.40	 	 	 	 	 	 	 	 	 	 	 	 	 	 	 	 	 	 	1581501259	7.98	14.78
12/02/2020 09:54:20	120220	12022020	095420	193.45	12.640687	-57.165403	193.66	0.010	0.880	1.940	193.55	-0.50	2.30	 	 	 	 	 	 	 	 	 	 	 	 	 	 	 	 	 	 	1581501260	7.34	13.59
12/02/2020 09:54:21	120220	12022020	095421	193.96	12.640653	-57.165410	194.17	0.040	0.880	1.000	193.96	-0.60	1.40	 	 	 	 	 	 	 	 	 	 	 	 	 	 	 	 	 	 	1581501261	7.22	13.37
12/02/2020 09:54:22	120220	12022020	095422	194.35	12.640617	-57.165415	194.49	0.290	-0.020	0.650	194.38	-1.60	1.20	 	 	 	 	 	 	 	 	 	 	 	 	 	 	 	 	 	 	1581501262	7.87	14.58
12/02/2020 09:54:23	120220	12022020	095423	194.27	12.640577	-57.165425	194.33	0.600	-1.190	1.050	194.21	-2.70	1.70	 	 	 	 	 	 	 	 	 	 	 	 	 	 	 	 	 	 	1581501263	8.69	16.09
12/02/2020 09:54:24	120220	12022020	095424	193.89	12.640538	-57.165437	193.96	0.620	-1.580	1.790	193.83	-2.90	2.40	 	 	 	 	 	 	 	 	 	 	 	 	 	 	 	 	 	 	1581501264	8.96	16.59
12/02/2020 09:54:25	120220	12022020	095425	193.65	12.640502	-57.165452	193.79	0.160	-0.750	2.470	193.64	-2.00	3.10	 	 	 	 	 	 	 	 	 	 	 	 	 	 	 	 	 	 	1581501265	8.20	15.19
12/02/2020 09:54:26	120220	12022020	095426	193.65	12.640472	-57.165465	193.82	-0.490	0.400	2.850	193.66	-0.90	3.40	 	 	 	 	 	 	 	 	 	 	 	 	 	 	 	 	 	 	1581501266	7.03	13.02
12/02/2020 09:54:27	120220	12022020	095427	193.68	12.640443	-57.165478	193.83	-0.780	0.750	2.880	193.68	-0.70	3.40	 	 	 	 	 	 	 	 	 	 	 	 	 	 	 	 	 	 	1581501267	6.83	12.65
12/02/2020 09:54:28	120220	12022020	095428	193.64	12.640410	-57.165492	193.77	-0.550	0.210	2.870	193.61	-1.30	3.40	 	 	 	 	 	 	 	 	 	 	 	 	 	 	 	 	 	 	1581501268	7.64	14.15
12/02/2020 09:54:29	120220	12022020	095429	193.50	12.640373	-57.165505	193.64	-0.060	-0.700	2.900	193.48	-2.20	3.40	 	 	 	 	 	 	 	 	 	 	 	 	 	 	 	 	 	 	1581501269	8.52	15.78
12/02/2020 09:54:30	120220	12022020	095430	193.48	12.640335	-57.165520	193.67	0.260	-1.160	2.720	193.49	-2.50	3.20	 	 	 	 	 	 	 	 	 	 	 	 	 	 	 	 	 	 	1581501270	8.86	16.41
12/02/2020 09:54:31	120220	12022020	095431	193.62	12.640298	-57.165533	193.86	0.350	-0.780	2.260	193.68	-2.10	2.70	 	 	 	 	 	 	 	 	 	 	 	 	 	 	 	 	 	 	1581501271	8.32	15.41
12/02/2020 09:54:32	120220	12022020	095432	194.04	12.640265	-57.165542	194.21	0.370	-0.040	1.500	194.04	-1.40	1.90	 	 	 	 	 	 	 	 	 	 	 	 	 	 	 	 	 	 	1581501272	7.40	13.70
12/02/2020 09:54:33	120220	12022020	095433	194.33	12.640232	-57.165548	194.52	0.330	0.250	0.960	194.33	-1.20	1.50	 	 	 	 	 	 	 	 	 	 	 	 	 	 	 	 	 	 	1581501273	7.14	13.22
12/02/2020 09:54:34	120220	12022020	095434	194.42	12.640197	-57.165555	194.53	0.210	-0.070	0.940	194.39	-1.50	1.50	 	 	 	 	 	 	 	 	 	 	 	 	 	 	 	 	 	 	1581501274	7.69	14.24
12/02/2020 09:54:35	120220	12022020	095435	194.14	12.640160	-57.165565	194.19	0.060	-0.480	1.250	194.06	-1.90	1.80	 	 	 	 	 	 	 	 	 	 	 	 	 	 	 	 	 	 	1581501275	8.36	15.48
12/02/2020 09:54:36	120220	12022020	095436	193.78	12.640122	-57.165578	193.89	-0.120	-0.350	1.610	193.75	-1.70	2.20	 	 	 	 	 	 	 	 	 	 	 	 	 	 	 	 	 	 	1581501276	8.48	15.70
12/02/2020 09:54:37	120220	12022020	095437	193.78	12.640088	-57.165592	193.95	-0.300	0.280	1.770	193.82	-1.00	2.30	 	 	 	 	 	 	 	 	 	 	 	 	 	 	 	 	 	 	1581501277	7.89	14.61
12/02/2020 09:54:38	120220	12022020	095438	194.05	12.640057	-57.165603	194.18	-0.380	0.540	1.810	194.05	-0.90	2.30	 	 	 	 	 	 	 	 	 	 	 	 	 	 	 	 	 	 	1581501278	7.24	13.41
12/02/2020 09:54:39	120220	12022020	095439	194.16	12.640023	-57.165615	194.30	-0.280	-0.070	1.860	194.16	-1.60	2.40	 	 	 	 	 	 	 	 	 	 	 	 	 	 	 	 	 	 	1581501279	7.56	14.00
12/02/2020 09:54:40	120220	12022020	095440	194.03	12.639987	-57.165628	194.16	-0.080	-0.960	2.080	194.03	-2.40	2.60	 	 	 	 	 	 	 	 	 	 	 	 	 	 	 	 	 	 	1581501280	8.41	15.58
12/02/2020 09:54:41	120220	12022020	095441	193.71	12.639948	-57.165643	193.76	0.070	-1.320	2.440	193.62	-2.70	3.00	 	 	 	 	 	 	 	 	 	 	 	 	 	 	 	 	 	 	1581501281	8.66	16.04
12/02/2020 09:54:42	120220	12022020	095442	193.22	12.639913	-57.165658	193.35	0.140	-0.930	2.490	193.22	-2.20	3.00	 	 	 	 	 	 	 	 	 	 	 	 	 	 	 	 	 	 	1581501282	8.20	15.19
12/02/2020 09:54:43	120220	12022020	095443	193.04	12.639880	-57.165670	193.16	0.210	-0.230	2.190	193.01	-1.50	2.60	 	 	 	 	 	 	 	 	 	 	 	 	 	 	 	 	 	 	1581501283	7.55	13.98
12/02/2020 09:54:44	120220	12022020	095444	192.92	12.639847	-57.165678	193.06	0.300	0.200	1.820	192.92	-1.20	2.30	 	 	 	 	 	 	 	 	 	 	 	 	 	 	 	 	 	 	1581501284	7.37	13.65
12/02/2020 09:54:45	120220	12022020	095445	192.92	12.639812	-57.165687	193.08	0.240	0.230	1.570	192.92	-1.20	2.00	 	 	 	 	 	 	 	 	 	 	 	 	 	 	 	 	 	 	1581501285	7.78	14.41
12/02/2020 09:54:46	120220	12022020	095446	193.28	12.639775	-57.165695	193.42	-0.050	0.170	1.450	193.28	-1.20	2.00	 	 	 	 	 	 	 	 	 	 	 	 	 	 	 	 	 	 	1581501286	8.13	15.06
12/02/2020 09:54:47	120220	12022020	095447	193.64	12.639738	-57.165707	193.86	-0.390	0.120	1.640	193.64	-1.30	2.20	 	 	 	 	 	 	 	 	 	 	 	 	 	 	 	 	 	 	1581501287	8.03	14.87
12/02/2020 09:54:48	120220	12022020	095448	193.90	12.639705	-57.165722	194.04	-0.410	-0.160	2.080	193.90	-1.60	2.60	 	 	 	 	 	 	 	 	 	 	 	 	 	 	 	 	 	 	1581501288	7.90	14.63
12/02/2020 09:54:49	120220	12022020	095449	193.78	12.639670	-57.165737	193.86	-0.020	-0.660	2.450	193.72	-2.10	3.00	 	 	 	 	 	 	 	 	 	 	 	 	 	 	 	 	 	 	1581501289	8.15	15.09
12/02/2020 09:54:50	120220	12022020	095450	193.47	12.639633	-57.165750	193.57	0.380	-0.870	2.590	193.41	-2.20	3.10	 	 	 	 	 	 	 	 	 	 	 	 	 	 	 	 	 	 	1581501290	8.42	15.59
12/02/2020 09:54:51	120220	12022020	095451	193.26	12.639597	-57.165760	193.41	0.410	-0.510	2.420	193.24	-1.80	2.90	 	 	 	 	 	 	 	 	 	 	 	 	 	 	 	 	 	 	1581501291	8.16	15.11
12/02/2020 09:54:52	120220	12022020	095452	193.18	12.639563	-57.165768	193.34	0.090	0.060	2.100	193.18	-1.30	2.60	 	 	 	 	 	 	 	 	 	 	 	 	 	 	 	 	 	 	1581501292	7.54	13.96
12/02/2020 09:54:53	120220	12022020	095453	193.15	12.639530	-57.165777	193.29	-0.230	0.320	1.830	193.14	-1.10	2.30	 	 	 	 	 	 	 	 	 	 	 	 	 	 	 	 	 	 	1581501293	7.33	13.58
12/02/2020 09:54:54	120220	12022020	095454	193.03	12.639495	-57.165785	193.16	-0.310	0.020	1.710	193.03	-1.40	2.20	 	 	 	 	 	 	 	 	 	 	 	 	 	 	 	 	 	 	1581501294	7.65	14.17
12/02/2020 09:54:55	120220	12022020	095455	192.82	12.639458	-57.165797	192.89	-0.230	-0.620	1.880	192.76	-2.10	2.40	 	 	 	 	 	 	 	 	 	 	 	 	 	 	 	 	 	 	1581501295	8.24	15.26
12/02/2020 09:54:56	120220	12022020	095456	192.57	12.639420	-57.165810	192.71	-0.200	-1.020	2.150	192.57	-2.40	2.70	 	 	 	 	 	 	 	 	 	 	 	 	 	 	 	 	 	 	1581501296	8.65	16.02
12/02/2020 09:54:57	120220	12022020	095457	192.60	12.639383	-57.165825	192.78	-0.240	-0.820	2.240	192.60	-2.10	2.70	 	 	 	 	 	 	 	 	 	 	 	 	 	 	 	 	 	 	1581501297	8.47	15.69
12/02/2020 09:54:58	120220	12022020	095458	192.76	12.639350	-57.165840	192.89	-0.130	-0.280	2.070	192.76	-1.60	2.50	 	 	 	 	 	 	 	 	 	 	 	 	 	 	 	 	 	 	1581501298	7.91	14.65
12/02/2020 09:54:59	120220	12022020	095459	192.86	12.639317	-57.165850	193.02	0.260	0.120	1.630	192.86	-1.20	2.10	 	 	 	 	 	 	 	 	 	 	 	 	 	 	 	 	 	 	1581501299	7.64	14.15
12/02/2020 09:55:00	120220	12022020	095500	193.10	12.639280	-57.165858	193.27	0.600	0.280	1.160	193.16	-1.10	1.60	 	 	 	 	 	 	 	 	 	 	 	 	 	 	 	 	 	 	1581501300	7.89	14.61
12/02/2020 09:55:01	120220	12022020	095501	193.39	12.639243	-57.165863	193.54	0.470	0.280	0.970	193.43	-1.10	1.50	1015.10	26.10	26.20	21.20	21.20	-1.0	74.0	74.0	414.0	25.8	261.00	9.80	74.00	11.20	27	8803.0	27.5	27.5	1581501301	8.06	14.93
12/02/2020 09:55:02	120220	12022020	095502	193.48	12.639207	-57.165870	193.59	-0.120	0.040	1.290	193.48	-1.40	1.90	 	 	 	 	 	 	 	 	 	 	 	 	 	 	 	 	 	 	1581501302	8.00	14.82
12/02/2020 09:55:03	120220	12022020	095503	193.36	12.639170	-57.165882	193.45	-0.750	-0.290	2.070	193.31	-1.70	2.70	 	 	 	 	 	 	 	 	 	 	 	 	 	 	 	 	 	 	1581501303	8.06	14.93
12/02/2020 09:55:04	120220	12022020	095504	192.86	12.639137	-57.165898	193.01	-0.880	-0.610	2.980	192.86	-2.00	3.60	 	 	 	 	 	 	 	 	 	 	 	 	 	 	 	 	 	 	1581501304	8.25	15.28
12/02/2020 09:55:05	120220	12022020	095505	192.29	12.639102	-57.165918	192.30	-0.330	-0.960	3.640	192.14	-2.40	4.20	 	 	 	 	 	 	 	 	 	 	 	 	 	 	 	 	 	 	1581501305	8.47	15.69
12/02/2020 09:55:06	120220	12022020	095506	191.67	12.639067	-57.165937	191.76	0.470	-0.990	3.560	191.60	-2.30	4.00	 	 	 	 	 	 	 	 	 	 	 	 	 	 	 	 	 	 	1581501306	8.61	15.95
12/02/2020 09:55:07	120220	12022020	095507	191.58	12.639030	-57.165947	191.78	0.880	-0.420	2.760	191.64	-1.70	3.10	 	 	 	 	 	 	 	 	 	 	 	 	 	 	 	 	 	 	1581501307	8.21	15.20
12/02/2020 09:55:08	120220	12022020	095508	192.03	12.638995	-57.165952	192.26	0.650	0.370	1.730	192.16	-0.90	2.10	 	 	 	 	 	 	 	 	 	 	 	 	 	 	 	 	 	 	1581501308	7.57	14.02
12/02/2020 09:55:09	120220	12022020	095509	192.73	12.638960	-57.165955	192.98	0.060	0.760	0.900	192.89	-0.60	1.30	 	 	 	 	 	 	 	 	 	 	 	 	 	 	 	 	 	 	1581501309	7.25	13.43
12/02/2020 09:55:10	120220	12022020	095510	193.40	12.638927	-57.165960	193.61	-0.410	0.450	0.640	193.50	-1.00	1.20	 	 	 	 	 	 	 	 	 	 	 	 	 	 	 	 	 	 	1581501310	7.41	13.72
12/02/2020 09:55:11	120220	12022020	095511	193.66	12.638892	-57.165970	193.75	-0.450	-0.550	1.030	193.66	-2.10	1.60	 	 	 	 	 	 	 	 	 	 	 	 	 	 	 	 	 	 	1581501311	7.98	14.78
12/02/2020 09:55:12	120220	12022020	095512	193.31	12.638853	-57.165983	193.32	-0.180	-1.600	1.990	193.17	-3.10	2.60	 	 	 	 	 	 	 	 	 	 	 	 	 	 	 	 	 	 	1581501312	8.78	16.26
12/02/2020 09:55:13	120220	12022020	095513	192.53	12.638813	-57.166002	192.53	0.070	-1.870	3.090	192.53	-3.20	3.70	 	 	 	 	 	 	 	 	 	 	 	 	 	 	 	 	 	 	1581501313	9.13	16.91
12/02/2020 09:55:14	120220	12022020	095514	191.79	12.638778	-57.166020	191.87	0.090	-1.050	3.550	191.70	-2.20	4.00	 	 	 	 	 	 	 	 	 	 	 	 	 	 	 	 	 	 	1581501314	8.62	15.96
12/02/2020 09:55:15	120220	12022020	095515	191.56	12.638745	-57.166032	191.75	-0.110	0.310	3.080	191.59	-0.90	3.50	 	 	 	 	 	 	 	 	 	 	 	 	 	 	 	 	 	 	1581501315	7.65	14.17
12/02/2020 09:55:16	120220	12022020	095516	191.92	12.638713	-57.166040	192.04	-0.300	1.260	2.170	191.92	-0.10	2.50	 	 	 	 	 	 	 	 	 	 	 	 	 	 	 	 	 	 	1581501316	7.04	13.04
12/02/2020 09:55:17	120220	12022020	095517	192.23	12.638678	-57.166045	192.42	-0.280	1.190	1.320	192.30	-0.30	1.70	 	 	 	 	 	 	 	 	 	 	 	 	 	 	 	 	 	 	1581501317	7.37	13.65
12/02/2020 09:55:18	120220	12022020	095518	192.59	12.638642	-57.166052	192.70	-0.080	0.340	0.830	192.59	-1.20	1.30	 	 	 	 	 	 	 	 	 	 	 	 	 	 	 	 	 	 	1581501318	8.22	15.22
12/02/2020 09:55:19	120220	12022020	095519	192.67	12.638602	-57.166058	192.78	0.120	-0.630	1.030	192.66	-2.10	1.60	 	 	 	 	 	 	 	 	 	 	 	 	 	 	 	 	 	 	1581501319	8.73	16.17
12/02/2020 09:55:20	120220	12022020	095520	192.53	12.638563	-57.166072	192.63	0.210	-1.170	1.640	192.49	-2.60	2.20	 	 	 	 	 	 	 	 	 	 	 	 	 	 	 	 	 	 	1581501320	8.66	16.04
12/02/2020 09:55:21	120220	12022020	095521	192.27	12.638527	-57.166085	192.39	0.210	-1.100	2.090	192.22	-2.40	2.60	 	 	 	 	 	 	 	 	 	 	 	 	 	 	 	 	 	 	1581501321	8.28	15.33
12/02/2020 09:55:22	120220	12022020	095522	192.02	12.638493	-57.166098	192.14	0.120	-0.610	2.360	191.98	-1.90	2.90	 	 	 	 	 	 	 	 	 	 	 	 	 	 	 	 	 	 	1581501322	7.74	14.33
12/02/2020 09:55:23	120220	12022020	095523	191.84	12.638460	-57.166110	191.97	0.060	-0.190	2.400	191.83	-1.50	2.90	 	 	 	 	 	 	 	 	 	 	 	 	 	 	 	 	 	 	1581501323	7.50	13.89
12/02/2020 09:55:24	120220	12022020	095524	191.82	12.638427	-57.166122	191.98	0.060	0.020	2.190	191.84	-1.30	2.60	 	 	 	 	 	 	 	 	 	 	 	 	 	 	 	 	 	 	1581501324	7.74	14.33
12/02/2020 09:55:25	120220	12022020	095525	192.06	12.638390	-57.166132	192.27	0.030	0.150	1.840	192.14	-1.20	2.30	 	 	 	 	 	 	 	 	 	 	 	 	 	 	 	 	 	 	1581501325	7.98	14.78
12/02/2020 09:55:26	120220	12022020	095526	192.43	12.638355	-57.166142	192.60	-0.020	0.200	1.630	192.47	-1.20	2.10	 	 	 	 	 	 	 	 	 	 	 	 	 	 	 	 	 	 	1581501326	7.89	14.61
12/02/2020 09:55:27	120220	12022020	095527	192.43	12.638320	-57.166150	192.49	0.090	-0.140	1.750	192.36	-1.60	2.30	 	 	 	 	 	 	 	 	 	 	 	 	 	 	 	 	 	 	1581501327	7.85	14.54
12/02/2020 09:55:28	120220	12022020	095528	191.95	12.638282	-57.166160	191.99	0.350	-0.820	2.040	191.84	-2.30	2.60	 	 	 	 	 	 	 	 	 	 	 	 	 	 	 	 	 	 	1581501328	8.33	15.43
12/02/2020 09:55:29	120220	12022020	095529	191.61	12.638242	-57.166170	191.77	0.270	-1.030	2.280	191.61	-2.30	2.80	 	 	 	 	 	 	 	 	 	 	 	 	 	 	 	 	 	 	1581501329	8.83	16.35
12/02/2020 09:55:30	120220	12022020	095530	191.85	12.638205	-57.166182	192.13	-0.280	-0.390	2.400	191.96	-1.60	2.90	 	 	 	 	 	 	 	 	 	 	 	 	 	 	 	 	 	 	1581501330	8.32	15.41
12/02/2020 09:55:31	120220	12022020	095531	192.48	12.638173	-57.166195	192.76	-0.890	0.480	2.270	192.61	-0.80	2.70	 	 	 	 	 	 	 	 	 	 	 	 	 	 	 	 	 	 	1581501331	7.35	13.61
12/02/2020 09:55:32	120220	12022020	095532	193.02	12.638143	-57.166208	193.17	-0.950	0.600	2.150	193.02	-0.80	2.70	 	 	 	 	 	 	 	 	 	 	 	 	 	 	 	 	 	 	1581501332	7.06	13.08
12/02/2020 09:55:33	120220	12022020	095533	192.98	12.638108	-57.166222	193.08	-0.260	-0.250	2.250	192.94	-1.80	2.80	 	 	 	 	 	 	 	 	 	 	 	 	 	 	 	 	 	 	1581501333	7.92	14.67
12/02/2020 09:55:34	120220	12022020	095534	192.81	12.638070	-57.166235	192.94	0.570	-0.980	2.210	192.79	-2.40	2.70	 	 	 	 	 	 	 	 	 	 	 	 	 	 	 	 	 	 	1581501334	9.00	16.67
12/02/2020 09:55:35	120220	12022020	095535	192.85	12.638030	-57.166247	193.03	0.910	-0.760	1.910	192.85	-2.00	2.40	 	 	 	 	 	 	 	 	 	 	 	 	 	 	 	 	 	 	1581501335	8.77	16.24
12/02/2020 09:55:36	120220	12022020	095536	193.01	12.637995	-57.166253	193.17	0.690	-0.000	1.560	193.04	-1.30	2.00	 	 	 	 	 	 	 	 	 	 	 	 	 	 	 	 	 	 	1581501336	7.67	14.20
12/02/2020 09:55:37	120220	12022020	095537	193.05	12.637962	-57.166258	193.15	0.360	0.360	1.290	193.02	-1.00	1.80	 	 	 	 	 	 	 	 	 	 	 	 	 	 	 	 	 	 	1581501337	7.14	13.22
12/02/2020 09:55:38	120220	12022020	095538	192.80	12.637927	-57.166265	192.86	0.120	-0.040	1.520	192.72	-1.50	2.10	 	 	 	 	 	 	 	 	 	 	 	 	 	 	 	 	 	 	1581501338	7.68	14.22
12/02/2020 09:55:39	120220	12022020	095539	192.34	12.637888	-57.166275	192.39	-0.150	-0.670	2.300	192.24	-2.10	2.90	 	 	 	 	 	 	 	 	 	 	 	 	 	 	 	 	 	 	1581501339	8.50	15.74
12/02/2020 09:55:40	120220	12022020	095540	191.83	12.637850	-57.166290	191.89	-0.570	-0.880	3.090	191.73	-2.20	3.70	 	 	 	 	 	 	 	 	 	 	 	 	 	 	 	 	 	 	1581501340	8.84	16.37
12/02/2020 09:55:41	120220	12022020	095541	191.45	12.637815	-57.166310	191.60	-1.000	-0.530	3.590	191.43	-1.80	4.10	 	 	 	 	 	 	 	 	 	 	 	 	 	 	 	 	 	 	1581501341	8.59	15.91
12/02/2020 09:55:42	120220	12022020	095542	191.72	12.637783	-57.166328	191.88	-1.120	0.240	3.390	191.72	-1.00	3.80	 	 	 	 	 	 	 	 	 	 	 	 	 	 	 	 	 	 	1581501342	8.17	15.13
12/02/2020 09:55:43	120220	12022020	095543	192.38	12.637752	-57.166345	192.72	-0.700	0.940	2.210	192.58	-0.40	2.50	 	 	 	 	 	 	 	 	 	 	 	 	 	 	 	 	 	 	1581501343	7.49	13.87
12/02/2020 09:55:44	120220	12022020	095544	193.50	12.637720	-57.166355	193.61	0.250	0.850	0.590	193.50	-0.60	0.90	 	 	 	 	 	 	 	 	 	 	 	 	 	 	 	 	 	 	1581501344	7.10	13.15
12/02/2020 09:55:45	120220	12022020	095545	193.86	12.637683	-57.166360	193.96	1.370	-0.350	-0.450	193.88	-1.90	0.00	 	 	 	 	 	 	 	 	 	 	 	 	 	 	 	 	 	 	1581501345	7.87	14.58
12/02/2020 09:55:46	120220	12022020	095546	193.71	12.637642	-57.166362	193.79	1.890	-1.710	-0.520	193.71	-3.20	0.10	 	 	 	 	 	 	 	 	 	 	 	 	 	 	 	 	 	 	1581501346	9.08	16.82
12/02/2020 09:55:47	120220	12022020	095547	193.32	12.637600	-57.166365	193.28	1.360	-2.100	0.330	193.20	-3.40	1.00	 	 	 	 	 	 	 	 	 	 	 	 	 	 	 	 	 	 	1581501347	9.16	16.96
12/02/2020 09:55:48	120220	12022020	095548	192.71	12.637562	-57.166375	192.71	0.080	-1.310	1.560	192.60	-2.50	2.30	 	 	 	 	 	 	 	 	 	 	 	 	 	 	 	 	 	 	1581501348	8.22	15.22
12/02/2020 09:55:49	120220	12022020	095549	192.20	12.637530	-57.166390	192.24	-1.130	-0.150	2.810	192.10	-1.40	3.50	 	 	 	 	 	 	 	 	 	 	 	 	 	 	 	 	 	 	1581501349	7.55	13.98
12/02/2020 09:55:50	120220	12022020	095550	191.76	12.637500	-57.166410	191.91	-1.630	0.580	3.780	191.76	-0.70	4.40	 	 	 	 	 	 	 	 	 	 	 	 	 	 	 	 	 	 	1581501350	7.89	14.61
12/02/2020 09:55:51	120220	12022020	095551	191.76	12.637467	-57.166432	191.98	-1.380	0.890	3.970	191.81	-0.40	4.40	 	 	 	 	 	 	 	 	 	 	 	 	 	 	 	 	 	 	1581501351	8.58	15.89
12/02/2020 09:55:52	120220	12022020	095552	192.18	12.637430	-57.166452	192.47	-0.850	1.060	3.390	192.30	-0.30	3.80	 	 	 	 	 	 	 	 	 	 	 	 	 	 	 	 	 	 	1581501352	8.56	15.85
12/02/2020 09:55:53	120220	12022020	095553	192.88	12.637395	-57.166465	193.17	-0.320	0.920	2.310	193.04	-0.50	2.70	 	 	 	 	 	 	 	 	 	 	 	 	 	 	 	 	 	 	1581501353	8.05	14.91
12/02/2020 09:55:54	120220	12022020	095554	193.60	12.637360	-57.166473	193.72	0.260	0.220	1.110	193.60	-1.30	1.50	 	 	 	 	 	 	 	 	 	 	 	 	 	 	 	 	 	 	1581501354	7.84	14.52
12/02/2020 09:55:55	120220	12022020	095555	193.68	12.637323	-57.166480	193.74	0.940	-0.850	0.380	193.64	-2.30	0.90	 	 	 	 	 	 	 	 	 	 	 	 	 	 	 	 	 	 	1581501355	8.14	15.08
12/02/2020 09:55:56	120220	12022020	095556	193.29	12.637283	-57.166487	193.38	1.410	-1.550	0.210	193.29	-2.90	0.70	 	 	 	 	 	 	 	 	 	 	 	 	 	 	 	 	 	 	1581501356	8.48	15.70
12/02/2020 09:55:57	120220	12022020	095557	193.11	12.637247	-57.166492	193.19	1.310	-1.360	0.210	193.10	-2.60	0.80	 	 	 	 	 	 	 	 	 	 	 	 	 	 	 	 	 	 	1581501357	8.16	15.11
12/02/2020 09:55:58	120220	12022020	095558	193.07	12.637213	-57.166500	193.16	0.680	-0.680	0.470	193.06	-1.90	1.10	 	 	 	 	 	 	 	 	 	 	 	 	 	 	 	 	 	 	1581501358	7.38	13.67
12/02/2020 09:55:59	120220	12022020	095559	192.96	12.637182	-57.166508	193.03	-0.040	-0.230	1.230	192.92	-1.60	1.90	 	 	 	 	 	 	 	 	 	 	 	 	 	 	 	 	 	 	1581501359	7.17	13.28
12/02/2020 09:56:00	120220	12022020	095600	192.66	12.637147	-57.166523	192.82	-0.490	-0.150	2.220	192.66	-1.50	2.90	 	 	 	 	 	 	 	 	 	 	 	 	 	 	 	 	 	 	1581501360	7.82	14.48
12/02/2020 09:56:01	120220	12022020	095601	192.59	12.637112	-57.166540	192.76	-0.710	-0.000	2.920	192.59	-1.30	3.50	1015.00	26.10	26.20	21.20	21.30	-1.0	74.0	74.0	416.0	25.8	258.00	10.20	71.00	11.70	30	9374.0	27.5	27.5	1581501361	8.45	15.65
12/02/2020 09:56:02	120220	12022020	095602	192.71	12.637077	-57.166557	192.88	-0.810	0.280	3.130	192.71	-1.00	3.60	 	 	 	 	 	 	 	 	 	 	 	 	 	 	 	 	 	 	1581501362	8.36	15.48
12/02/2020 09:56:03	120220	12022020	095603	192.84	12.637042	-57.166572	193.04	-0.770	0.380	2.950	192.87	-1.00	3.40	 	 	 	 	 	 	 	 	 	 	 	 	 	 	 	 	 	 	1581501363	8.05	14.91
12/02/2020 09:56:04	120220	12022020	095604	193.03	12.637007	-57.166585	193.19	-0.470	0.140	2.480	193.03	-1.30	2.90	 	 	 	 	 	 	 	 	 	 	 	 	 	 	 	 	 	 	1581501364	8.02	14.85
12/02/2020 09:56:05	120220	12022020	095605	193.06	12.636972	-57.166597	193.20	0.080	-0.330	1.860	193.05	-1.80	2.30	 	 	 	 	 	 	 	 	 	 	 	 	 	 	 	 	 	 	1581501365	8.12	15.04
12/02/2020 09:56:06	120220	12022020	095606	192.84	12.636933	-57.166605	192.87	0.670	-0.840	1.310	192.75	-2.30	1.80	 	 	 	 	 	 	 	 	 	 	 	 	 	 	 	 	 	 	1581501366	8.25	15.28
12/02/2020 09:56:07	120220	12022020	095607	192.34	12.636895	-57.166612	192.37	1.020	-1.070	1.070	192.24	-2.40	1.60	 	 	 	 	 	 	 	 	 	 	 	 	 	 	 	 	 	 	1581501367	8.37	15.50
12/02/2020 09:56:08	120220	12022020	095608	191.94	12.636858	-57.166618	192.06	0.810	-0.670	1.100	191.94	-1.90	1.60	 	 	 	 	 	 	 	 	 	 	 	 	 	 	 	 	 	 	1581501368	8.19	15.17
12/02/2020 09:56:09	120220	12022020	095609	191.97	12.636823	-57.166627	192.13	0.100	0.160	1.260	192.01	-1.10	1.80	 	 	 	 	 	 	 	 	 	 	 	 	 	 	 	 	 	 	1581501369	7.59	14.06
12/02/2020 09:56:10	120220	12022020	095610	192.23	12.636792	-57.166637	192.43	-0.650	0.750	1.550	192.29	-0.60	2.10	 	 	 	 	 	 	 	 	 	 	 	 	 	 	 	 	 	 	1581501370	7.21	13.35
12/02/2020 09:56:11	120220	12022020	095611	192.50	12.636760	-57.166650	192.68	-0.870	0.690	1.910	192.55	-0.70	2.50	 	 	 	 	 	 	 	 	 	 	 	 	 	 	 	 	 	 	1581501371	7.55	13.98
12/02/2020 09:56:12	120220	12022020	095612	192.75	12.636725	-57.166667	192.90	-0.390	0.150	2.080	192.75	-1.30	2.60	 	 	 	 	 	 	 	 	 	 	 	 	 	 	 	 	 	 	1581501372	8.18	15.15
12/02/2020 09:56:13	120220	12022020	095613	192.82	12.636687	-57.166680	192.97	0.430	-0.540	1.990	192.82	-2.00	2.50	 	 	 	 	 	 	 	 	 	 	 	 	 	 	 	 	 	 	1581501373	8.48	15.70
12/02/2020 09:56:14	120220	12022020	095614	192.80	12.636650	-57.166690	192.95	1.000	-0.990	1.710	192.80	-2.40	2.20	 	 	 	 	 	 	 	 	 	 	 	 	 	 	 	 	 	 	1581501374	8.50	15.74
12/02/2020 09:56:15	120220	12022020	095615	192.78	12.636612	-57.166697	192.91	0.900	-0.940	1.530	192.77	-2.30	2.00	 	 	 	 	 	 	 	 	 	 	 	 	 	 	 	 	 	 	1581501375	8.20	15.19
12/02/2020 09:56:16	120220	12022020	095616	192.56	12.636577	-57.166703	192.63	0.310	-0.690	1.650	192.49	-2.00	2.20	 	 	 	 	 	 	 	 	 	 	 	 	 	 	 	 	 	 	1581501376	7.67	14.20
12/02/2020 09:56:17	120220	12022020	095617	192.12	12.636542	-57.166713	192.19	-0.330	-0.520	2.020	192.04	-1.80	2.60	 	 	 	 	 	 	 	 	 	 	 	 	 	 	 	 	 	 	1581501377	7.66	14.19
12/02/2020 09:56:18	120220	12022020	095618	191.83	12.636507	-57.166725	191.97	-0.760	-0.210	2.410	191.81	-1.50	3.00	 	 	 	 	 	 	 	 	 	 	 	 	 	 	 	 	 	 	1581501378	8.00	14.82
12/02/2020 09:56:19	120220	12022020	095619	191.86	12.636473	-57.166742	192.06	-0.910	0.180	2.630	191.90	-1.10	3.10	 	 	 	 	 	 	 	 	 	 	 	 	 	 	 	 	 	 	1581501379	8.01	14.83
12/02/2020 09:56:20	120220	12022020	095620	192.11	12.636440	-57.166757	192.27	-0.660	0.340	2.470	192.11	-1.00	2.90	 	 	 	 	 	 	 	 	 	 	 	 	 	 	 	 	 	 	1581501380	7.96	14.74
12/02/2020 09:56:21	120220	12022020	095621	192.25	12.636405	-57.166770	192.43	0.000	0.140	1.950	192.27	-1.20	2.40	 	 	 	 	 	 	 	 	 	 	 	 	 	 	 	 	 	 	1581501381	8.07	14.95
12/02/2020 09:56:22	120220	12022020	095622	192.40	12.636367	-57.166780	192.55	0.750	-0.130	1.290	192.40	-1.50	1.70	 	 	 	 	 	 	 	 	 	 	 	 	 	 	 	 	 	 	1581501382	8.32	15.41
12/02/2020 09:56:23	120220	12022020	095623	192.59	12.636328	-57.166783	192.77	1.030	-0.250	0.830	192.63	-1.60	1.30	 	 	 	 	 	 	 	 	 	 	 	 	 	 	 	 	 	 	1581501383	8.35	15.46
12/02/2020 09:56:24	120220	12022020	095624	192.73	12.636292	-57.166788	192.86	0.690	-0.260	0.900	192.73	-1.60	1.50	 	 	 	 	 	 	 	 	 	 	 	 	 	 	 	 	 	 	1581501384	7.99	14.80
12/02/2020 09:56:25	120220	12022020	095625	192.74	12.636257	-57.166797	192.89	0.060	-0.230	1.350	192.75	-1.60	1.90	 	 	 	 	 	 	 	 	 	 	 	 	 	 	 	 	 	 	1581501385	7.75	14.35
12/02/2020 09:56:26	120220	12022020	095626	192.86	12.636222	-57.166808	193.02	-0.440	-0.210	1.950	192.86	-1.60	2.60	 	 	 	 	 	 	 	 	 	 	 	 	 	 	 	 	 	 	1581501386	7.70	14.26
12/02/2020 09:56:27	120220	12022020	095627	192.80	12.636190	-57.166823	192.92	-0.520	-0.470	2.610	192.75	-1.90	3.20	 	 	 	 	 	 	 	 	 	 	 	 	 	 	 	 	 	 	1581501387	7.80	14.45
12/02/2020 09:56:28	120220	12022020	095628	192.40	12.636155	-57.166840	192.47	-0.150	-1.000	3.100	192.29	-2.40	3.60	 	 	 	 	 	 	 	 	 	 	 	 	 	 	 	 	 	 	1581501388	8.28	15.33
12/02/2020 09:56:29	120220	12022020	095629	191.92	12.636117	-57.166855	192.04	0.280	-1.190	3.110	191.86	-2.50	3.60	 	 	 	 	 	 	 	 	 	 	 	 	 	 	 	 	 	 	1581501389	8.72	16.15
12/02/2020 09:56:30	120220	12022020	095630	191.81	12.636078	-57.166865	192.04	0.290	-0.640	2.680	191.84	-1.90	3.10	 	 	 	 	 	 	 	 	 	 	 	 	 	 	 	 	 	 	1581501390	8.44	15.63
12/02/2020 09:56:31	120220	12022020	095631	192.05	12.636043	-57.166872	192.28	-0.140	0.150	2.040	192.10	-1.10	2.50	 	 	 	 	 	 	 	 	 	 	 	 	 	 	 	 	 	 	1581501391	7.67	14.20
12/02/2020 09:56:32	120220	12022020	095632	192.25	12.636010	-57.166878	192.45	-0.540	0.420	1.560	192.28	-0.90	2.00	 	 	 	 	 	 	 	 	 	 	 	 	 	 	 	 	 	 	1581501392	7.48	13.85
12/02/2020 09:56:33	120220	12022020	095633	192.39	12.635973	-57.166888	192.60	-0.580	0.250	1.380	192.43	-1.10	1.90	 	 	 	 	 	 	 	 	 	 	 	 	 	 	 	 	 	 	1581501393	8.07	14.95
12/02/2020 09:56:34	120220	12022020	095634	192.75	12.635935	-57.166900	192.91	-0.420	0.260	1.350	192.75	-1.10	1.90	 	 	 	 	 	 	 	 	 	 	 	 	 	 	 	 	 	 	1581501394	8.41	15.58
12/02/2020 09:56:35	120220	12022020	095635	192.95	12.635900	-57.166912	193.11	-0.170	0.410	1.430	192.97	-0.90	2.00	 	 	 	 	 	 	 	 	 	 	 	 	 	 	 	 	 	 	1581501395	7.96	14.74
12/02/2020 09:56:36	120220	12022020	095636	192.79	12.635867	-57.166925	192.94	0.270	0.190	1.630	192.79	-1.20	2.20	 	 	 	 	 	 	 	 	 	 	 	 	 	 	 	 	 	 	1581501396	7.68	14.22
12/02/2020 09:56:37	120220	12022020	095637	192.60	12.635832	-57.166937	192.74	0.820	-0.200	1.710	192.59	-1.60	2.20	 	 	 	 	 	 	 	 	 	 	 	 	 	 	 	 	 	 	1581501397	8.07	14.95
12/02/2020 09:56:38	120220	12022020	095638	192.84	12.635795	-57.166945	192.99	1.100	-0.300	1.370	192.84	-1.70	1.80	 	 	 	 	 	 	 	 	 	 	 	 	 	 	 	 	 	 	1581501398	8.10	15.00
12/02/2020 09:56:39	120220	12022020	095639	193.09	12.635760	-57.166950	193.25	0.890	-0.590	1.260	193.10	-2.00	1.80	 	 	 	 	 	 	 	 	 	 	 	 	 	 	 	 	 	 	1581501399	7.62	14.11
12/02/2020 09:56:40	120220	12022020	095640	192.76	12.635723	-57.166958	192.91	0.400	-1.460	1.920	192.76	-2.90	2.60	 	 	 	 	 	 	 	 	 	 	 	 	 	 	 	 	 	 	1581501400	7.84	14.52
12/02/2020 09:56:41	120220	12022020	095641	192.04	12.635685	-57.166973	192.02	-0.060	-2.210	3.050	191.85	-3.60	3.70	 	 	 	 	 	 	 	 	 	 	 	 	 	 	 	 	 	 	1581501401	8.78	16.26
12/02/2020 09:56:42	120220	12022020	095642	191.05	12.635647	-57.166990	191.27	-0.500	-1.650	3.990	191.05	-2.80	4.60	 	 	 	 	 	 	 	 	 	 	 	 	 	 	 	 	 	 	1581501402	9.13	16.91
12/02/2020 09:56:43	120220	12022020	095643	190.92	12.635613	-57.167007	191.17	-1.010	-0.060	4.190	190.95	-1.20	4.60	 	 	 	 	 	 	 	 	 	 	 	 	 	 	 	 	 	 	1581501403	8.07	14.95
12/02/2020 09:56:44	120220	12022020	095644	191.30	12.635583	-57.167022	191.50	-1.360	1.060	3.710	191.30	-0.20	4.10	 	 	 	 	 	 	 	 	 	 	 	 	 	 	 	 	 	 	1581501404	7.09	13.13
12/02/2020 09:56:45	120220	12022020	095645	191.57	12.635550	-57.167033	191.82	-1.200	0.970	2.970	191.64	-0.40	3.40	 	 	 	 	 	 	 	 	 	 	 	 	 	 	 	 	 	 	1581501405	7.59	14.06
12/02/2020 09:56:46	120220	12022020	095646	192.12	12.635512	-57.167045	192.28	-0.530	0.500	2.050	192.12	-0.90	2.40	 	 	 	 	 	 	 	 	 	 	 	 	 	 	 	 	 	 	1581501406	8.73	16.17
12/02/2020 09:56:47	120220	12022020	095647	192.59	12.635472	-57.167053	192.85	0.260	0.440	1.080	192.71	-0.90	1.50	 	 	 	 	 	 	 	 	 	 	 	 	 	 	 	 	 	 	1581501407	8.76	16.22
12/02/2020 09:56:48	120220	12022020	095648	193.04	12.635435	-57.167060	193.21	0.860	0.610	0.300	193.09	-0.80	0.80	 	 	 	 	 	 	 	 	 	 	 	 	 	 	 	 	 	 	1581501408	7.89	14.61
12/02/2020 09:56:49	120220	12022020	095649	193.10	12.635400	-57.167063	193.19	1.190	0.340	0.100	193.05	-1.10	0.70	 	 	 	 	 	 	 	 	 	 	 	 	 	 	 	 	 	 	1581501409	7.43	13.76
12/02/2020 09:56:50	120220	12022020	095650	192.64	12.635365	-57.167067	192.79	1.160	-0.560	0.620	192.64	-2.10	1.30	 	 	 	 	 	 	 	 	 	 	 	 	 	 	 	 	 	 	1581501410	7.75	14.35
12/02/2020 09:56:51	120220	12022020	095651	192.23	12.635327	-57.167077	192.29	0.780	-1.470	1.530	192.23	-2.90	2.20	 	 	 	 	 	 	 	 	 	 	 	 	 	 	 	 	 	 	1581501411	8.36	15.48
12/02/2020 09:56:52	120220	12022020	095652	191.86	12.635290	-57.167090	191.99	0.130	-1.670	2.440	191.81	-3.00	3.10	 	 	 	 	 	 	 	 	 	 	 	 	 	 	 	 	 	 	1581501412	8.48	15.70
12/02/2020 09:56:53	120220	12022020	095653	191.65	12.635257	-57.167107	191.80	-0.510	-1.300	3.170	191.65	-2.60	3.70	 	 	 	 	 	 	 	 	 	 	 	 	 	 	 	 	 	 	1581501413	8.06	14.93
12/02/2020 09:56:54	120220	12022020	095654	191.47	12.635223	-57.167123	191.62	-0.840	-0.850	3.470	191.44	-2.20	4.00	 	 	 	 	 	 	 	 	 	 	 	 	 	 	 	 	 	 	1581501414	7.87	14.58
12/02/2020 09:56:55	120220	12022020	095655	191.40	12.635190	-57.167140	191.60	-0.830	-0.500	3.240	191.42	-1.80	3.70	 	 	 	 	 	 	 	 	 	 	 	 	 	 	 	 	 	 	1581501415	8.07	14.95
12/02/2020 09:56:56	120220	12022020	095656	191.54	12.635153	-57.167153	191.77	-0.660	-0.040	2.800	191.59	-1.30	3.20	 	 	 	 	 	 	 	 	 	 	 	 	 	 	 	 	 	 	1581501416	8.23	15.24
12/02/2020 09:56:57	120220	12022020	095657	191.82	12.635118	-57.167163	192.05	-0.530	0.490	2.140	191.88	-0.80	2.50	 	 	 	 	 	 	 	 	 	 	 	 	 	 	 	 	 	 	1581501417	8.10	15.00
12/02/2020 09:56:58	120220	12022020	095658	192.17	12.635082	-57.167173	192.39	-0.390	0.850	1.270	192.25	-0.50	1.70	 	 	 	 	 	 	 	 	 	 	 	 	 	 	 	 	 	 	1581501418	7.92	14.67
12/02/2020 09:56:59	120220	12022020	095659	192.55	12.635047	-57.167180	192.72	-0.060	0.930	0.600	192.61	-0.50	1.10	 	 	 	 	 	 	 	 	 	 	 	 	 	 	 	 	 	 	1581501419	7.88	14.59
12/02/2020 09:57:00	120220	12022020	095700	192.79	12.635010	-57.167187	192.95	0.500	0.650	0.320	192.83	-0.80	0.80	 	 	 	 	 	 	 	 	 	 	 	 	 	 	 	 	 	 	1581501420	7.93	14.69
12/02/2020 09:57:01	120220	12022020	095701	192.93	12.634972	-57.167192	193.04	0.970	0.100	0.390	192.93	-1.40	1.00	1015.00	26.20	26.20	21.20	21.30	-1.0	74.0	74.0	412.0	25.8	263.00	9.60	73.00	11.00	34	9214.0	27.5	27.5	1581501421	8.08	14.96
12/02/2020 09:57:02	120220	12022020	095702	192.76	12.634935	-57.167200	192.89	1.060	-0.610	0.950	192.76	-2.10	1.60	 	 	 	 	 	 	 	 	 	 	 	 	 	 	 	 	 	 	1581501422	8.12	15.04
12/02/2020 09:57:03	120220	12022020	095703	192.40	12.634898	-57.167210	192.44	0.800	-1.300	1.920	192.29	-2.70	2.60	 	 	 	 	 	 	 	 	 	 	 	 	 	 	 	 	 	 	1581501423	8.19	15.17
12/02/2020 09:57:04	120220	12022020	095704	191.82	12.634862	-57.167223	191.86	0.310	-1.660	2.930	191.70	-3.00	3.60	 	 	 	 	 	 	 	 	 	 	 	 	 	 	 	 	 	 	1581501424	8.34	15.45
12/02/2020 09:57:05	120220	12022020	095705	191.31	12.634827	-57.167238	191.44	-0.350	-1.510	3.670	191.25	-2.80	4.20	 	 	 	 	 	 	 	 	 	 	 	 	 	 	 	 	 	 	1581501425	8.29	15.35
12/02/2020 09:57:06	120220	12022020	095706	191.14	12.634792	-57.167255	191.33	-0.990	-0.950	3.990	191.14	-2.20	4.50	 	 	 	 	 	 	 	 	 	 	 	 	 	 	 	 	 	 	1581501426	8.18	15.15
12/02/2020 09:57:07	120220	12022020	095707	191.19	12.634758	-57.167272	191.40	-1.290	-0.260	3.760	191.22	-1.50	4.20	 	 	 	 	 	 	 	 	 	 	 	 	 	 	 	 	 	 	1581501427	8.10	15.00
12/02/2020 09:57:08	120220	12022020	095708	191.37	12.634725	-57.167288	191.54	-1.020	0.290	3.000	191.37	-1.00	3.40	 	 	 	 	 	 	 	 	 	 	 	 	 	 	 	 	 	 	1581501428	8.04	14.89
12/02/2020 09:57:09	120220	12022020	095709	191.49	12.634688	-57.167298	191.67	-0.340	0.570	2.080	191.53	-0.80	2.50	 	 	 	 	 	 	 	 	 	 	 	 	 	 	 	 	 	 	1581501429	8.06	14.93
12/02/2020 09:57:10	120220	12022020	095710	191.76	12.634650	-57.167305	191.88	0.310	0.560	1.240	191.76	-0.80	1.70	 	 	 	 	 	 	 	 	 	 	 	 	 	 	 	 	 	 	1581501430	8.29	15.35
12/02/2020 09:57:11	120220	12022020	095711	192.04	12.634612	-57.167308	192.26	0.610	0.480	0.600	192.12	-0.90	1.10	 	 	 	 	 	 	 	 	 	 	 	 	 	 	 	 	 	 	1581501431	8.43	15.61
12/02/2020 09:57:12	120220	12022020	095712	192.46	12.634573	-57.167315	192.66	0.610	0.430	0.400	192.53	-1.00	0.90	 	 	 	 	 	 	 	 	 	 	 	 	 	 	 	 	 	 	1581501432	8.18	15.15
12/02/2020 09:57:13	120220	12022020	095713	192.71	12.634538	-57.167322	192.84	0.610	0.260	0.600	192.72	-1.20	1.20	 	 	 	 	 	 	 	 	 	 	 	 	 	 	 	 	 	 	1581501433	7.80	14.45
12/02/2020 09:57:14	120220	12022020	095714	192.68	12.634503	-57.167332	192.76	0.770	-0.230	1.060	192.64	-1.70	1.70	 	 	 	 	 	 	 	 	 	 	 	 	 	 	 	 	 	 	1581501434	7.79	14.43
12/02/2020 09:57:15	120220	12022020	095715	192.34	12.634467	-57.167340	192.38	0.860	-0.930	1.800	192.34	-2.40	2.40	 	 	 	 	 	 	 	 	 	 	 	 	 	 	 	 	 	 	1581501435	8.10	15.00
12/02/2020 09:57:16	120220	12022020	095716	191.90	12.634428	-57.167352	191.99	0.470	-1.300	2.650	191.83	-2.70	3.30	 	 	 	 	 	 	 	 	 	 	 	 	 	 	 	 	 	 	1581501436	8.43	15.61
12/02/2020 09:57:17	120220	12022020	095717	191.68	12.634393	-57.167365	191.82	-0.380	-1.090	3.370	191.68	-2.40	4.00	 	 	 	 	 	 	 	 	 	 	 	 	 	 	 	 	 	 	1581501437	8.21	15.20
12/02/2020 09:57:18	120220	12022020	095718	191.61	12.634360	-57.167382	191.78	-1.160	-0.740	3.770	191.60	-2.10	4.30	 	 	 	 	 	 	 	 	 	 	 	 	 	 	 	 	 	 	1581501438	7.87	14.58
12/02/2020 09:57:19	120220	12022020	095719	191.56	12.634327	-57.167400	191.73	-1.230	-0.700	3.650	191.56	-2.10	4.10	 	 	 	 	 	 	 	 	 	 	 	 	 	 	 	 	 	 	1581501439	8.09	14.98
12/02/2020 09:57:20	120220	12022020	095720	191.55	12.634290	-57.167417	191.71	-0.540	-0.820	2.890	191.55	-2.20	3.30	 	 	 	 	 	 	 	 	 	 	 	 	 	 	 	 	 	 	1581501440	8.57	15.87
12/02/2020 09:57:21	120220	12022020	095721	191.62	12.634252	-57.167427	191.78	0.280	-0.610	1.850	191.65	-1.90	2.20	 	 	 	 	 	 	 	 	 	 	 	 	 	 	 	 	 	 	1581501441	8.72	16.15
12/02/2020 09:57:22	120220	12022020	095722	191.77	12.634212	-57.167432	191.93	0.610	-0.030	0.870	191.81	-1.30	1.30	 	 	 	 	 	 	 	 	 	 	 	 	 	 	 	 	 	 	1581501442	8.46	15.67
12/02/2020 09:57:23	120220	12022020	095723	192.02	12.634175	-57.167435	192.19	0.340	0.720	0.200	192.09	-0.60	0.70	 	 	 	 	 	 	 	 	 	 	 	 	 	 	 	 	 	 	1581501443	8.08	14.96
12/02/2020 09:57:24	120220	12022020	095724	192.48	12.634140	-57.167440	192.70	-0.140	1.260	0.020	192.59	-0.10	0.60	 	 	 	 	 	 	 	 	 	 	 	 	 	 	 	 	 	 	1581501444	7.73	14.32
12/02/2020 09:57:25	120220	12022020	095725	193.02	12.634105	-57.167447	193.22	-0.350	1.210	0.360	193.10	-0.20	1.00	 	 	 	 	 	 	 	 	 	 	 	 	 	 	 	 	 	 	1581501445	7.65	14.17
12/02/2020 09:57:26	120220	12022020	095726	193.22	12.634070	-57.167458	193.32	-0.050	0.340	1.230	193.18	-1.20	1.90	 	 	 	 	 	 	 	 	 	 	 	 	 	 	 	 	 	 	1581501446	7.99	14.80
12/02/2020 09:57:27	120220	12022020	095727	192.97	12.634032	-57.167473	193.06	0.390	-0.860	2.270	192.90	-2.40	2.90	 	 	 	 	 	 	 	 	 	 	 	 	 	 	 	 	 	 	1581501447	8.76	16.22
12/02/2020 09:57:28	120220	12022020	095728	192.68	12.633992	-57.167488	192.82	0.450	-1.460	3.190	192.64	-2.80	3.80	 	 	 	 	 	 	 	 	 	 	 	 	 	 	 	 	 	 	1581501448	9.06	16.78
12/02/2020 09:57:29	120220	12022020	095729	192.47	12.633957	-57.167505	192.58	0.190	-1.250	3.570	192.47	-2.60	4.10	 	 	 	 	 	 	 	 	 	 	 	 	 	 	 	 	 	 	1581501449	8.40	15.56
12/02/2020 09:57:30	120220	12022020	095730	192.10	12.633923	-57.167520	192.16	0.080	-0.930	3.330	192.00	-2.30	3.70	 	 	 	 	 	 	 	 	 	 	 	 	 	 	 	 	 	 	1581501450	7.64	14.15
12/02/2020 09:57:31	120220	12022020	095731	191.64	12.633890	-57.167530	191.72	0.250	-0.860	2.650	191.57	-2.20	3.10	 	 	 	 	 	 	 	 	 	 	 	 	 	 	 	 	 	 	1581501451	7.79	14.43
12/02/2020 09:57:32	120220	12022020	095732	191.43	12.633852	-57.167537	191.59	0.230	-0.650	2.000	191.43	-2.00	2.40	 	 	 	 	 	 	 	 	 	 	 	 	 	 	 	 	 	 	1581501452	8.30	15.37
12/02/2020 09:57:33	120220	12022020	095733	191.59	12.633813	-57.167543	191.79	-0.210	-0.180	1.460	191.66	-1.50	1.90	 	 	 	 	 	 	 	 	 	 	 	 	 	 	 	 	 	 	1581501453	8.23	15.24
12/02/2020 09:57:34	120220	12022020	095734	191.95	12.633778	-57.167552	192.14	-0.810	0.300	1.300	192.03	-1.00	1.80	 	 	 	 	 	 	 	 	 	 	 	 	 	 	 	 	 	 	1581501454	7.90	14.63
12/02/2020 09:57:35	120220	12022020	095735	192.30	12.633743	-57.167565	192.51	-1.040	0.440	1.510	192.37	-0.90	2.00	 	 	 	 	 	 	 	 	 	 	 	 	 	 	 	 	 	 	1581501455	8.00	14.82
12/02/2020 09:57:36	120220	12022020	095736	192.65	12.633707	-57.167582	192.85	-0.600	0.380	1.590	192.72	-1.00	2.10	 	 	 	 	 	 	 	 	 	 	 	 	 	 	 	 	 	 	1581501456	8.38	15.52
12/02/2020 09:57:37	120220	12022020	095737	192.93	12.633670	-57.167595	193.09	0.280	0.190	1.430	192.95	-1.20	1.90	 	 	 	 	 	 	 	 	 	 	 	 	 	 	 	 	 	 	1581501457	8.39	15.54
12/02/2020 09:57:38	120220	12022020	095738	192.95	12.633633	-57.167605	193.07	0.990	-0.130	1.200	192.93	-1.60	1.70	 	 	 	 	 	 	 	 	 	 	 	 	 	 	 	 	 	 	1581501458	8.39	15.54
12/02/2020 09:57:39	120220	12022020	095739	192.83	12.633593	-57.167612	192.94	1.000	-0.310	1.200	192.82	-1.70	1.80	 	 	 	 	 	 	 	 	 	 	 	 	 	 	 	 	 	 	1581501459	8.49	15.72
12/02/2020 09:57:40	120220	12022020	095740	192.75	12.633557	-57.167618	192.89	0.420	-0.220	1.670	192.75	-1.60	2.30	 	 	 	 	 	 	 	 	 	 	 	 	 	 	 	 	 	 	1581501460	8.14	15.08
12/02/2020 09:57:41	120220	12022020	095741	192.60	12.633522	-57.167630	192.70	-0.170	-0.250	2.340	192.60	-1.70	2.90	 	 	 	 	 	 	 	 	 	 	 	 	 	 	 	 	 	 	1581501461	7.74	14.33
12/02/2020 09:57:42	120220	12022020	095742	192.16	12.633488	-57.167643	192.32	-0.290	-0.670	2.840	192.16	-2.10	3.40	 	 	 	 	 	 	 	 	 	 	 	 	 	 	 	 	 	 	1581501462	7.99	14.80
12/02/2020 09:57:43	120220	12022020	095743	191.86	12.633450	-57.167658	191.96	-0.140	-1.140	3.210	191.80	-2.50	3.70	 	 	 	 	 	 	 	 	 	 	 	 	 	 	 	 	 	 	1581501463	8.58	15.89
12/02/2020 09:57:44	120220	12022020	095744	191.54	12.633413	-57.167673	191.64	-0.100	-1.200	3.370	191.48	-2.50	3.80	 	 	 	 	 	 	 	 	 	 	 	 	 	 	 	 	 	 	1581501464	8.68	16.08
12/02/2020 09:57:45	120220	12022020	095745	191.22	12.633377	-57.167687	191.33	-0.170	-0.860	3.080	191.17	-2.10	3.50	 	 	 	 	 	 	 	 	 	 	 	 	 	 	 	 	 	 	1581501465	8.40	15.56
12/02/2020 09:57:46	120220	12022020	095746	191.14	12.633340	-57.167698	191.33	-0.290	-0.130	2.520	191.17	-1.40	2.90	 	 	 	 	 	 	 	 	 	 	 	 	 	 	 	 	 	 	1581501466	8.14	15.08
12/02/2020 09:57:47	120220	12022020	095747	191.42	12.633305	-57.167708	191.64	-0.340	0.670	1.910	191.49	-0.60	2.30	 	 	 	 	 	 	 	 	 	 	 	 	 	 	 	 	 	 	1581501467	7.76	14.37
12/02/2020 09:57:48	120220	12022020	095748	191.80	12.633272	-57.167718	192.01	-0.190	0.860	1.260	191.88	-0.60	1.70	 	 	 	 	 	 	 	 	 	 	 	 	 	 	 	 	 	 	1581501468	7.62	14.11
12/02/2020 09:57:49	120220	12022020	095749	192.18	12.633233	-57.167725	192.39	0.100	0.410	0.810	192.26	-1.00	1.30	 	 	 	 	 	 	 	 	 	 	 	 	 	 	 	 	 	 	1581501469	8.17	15.13
12/02/2020 09:57:50	120220	12022020	095750	192.65	12.633195	-57.167735	192.77	0.320	-0.090	0.940	192.65	-1.50	1.50	 	 	 	 	 	 	 	 	 	 	 	 	 	 	 	 	 	 	1581501470	8.65	16.02
12/02/2020 09:57:51	120220	12022020	095751	192.84	12.633157	-57.167745	193.01	0.390	-0.340	1.450	192.87	-1.80	2.00	 	 	 	 	 	 	 	 	 	 	 	 	 	 	 	 	 	 	1581501471	8.41	15.58
12/02/2020 09:57:52	120220	12022020	095752	192.84	12.633122	-57.167757	192.99	0.440	-0.600	1.850	192.84	-2.00	2.40	 	 	 	 	 	 	 	 	 	 	 	 	 	 	 	 	 	 	1581501472	8.02	14.85
12/02/2020 09:57:53	120220	12022020	095753	192.64	12.633085	-57.167767	192.73	0.580	-1.080	2.110	192.64	-2.50	2.70	 	 	 	 	 	 	 	 	 	 	 	 	 	 	 	 	 	 	1581501473	8.13	15.06
12/02/2020 09:57:54	120220	12022020	095754	192.27	12.633047	-57.167777	192.36	0.480	-1.200	2.470	192.19	-2.50	3.00	 	 	 	 	 	 	 	 	 	 	 	 	 	 	 	 	 	 	1581501474	8.54	15.82
12/02/2020 09:57:55	120220	12022020	095755	191.90	12.633010	-57.167788	192.02	-0.060	-0.710	2.720	191.85	-2.00	3.20	 	 	 	 	 	 	 	 	 	 	 	 	 	 	 	 	 	 	1581501475	8.28	15.33
12/02/2020 09:57:56	120220	12022020	095756	191.75	12.632975	-57.167800	191.93	-0.830	-0.030	2.720	191.75	-1.30	3.20	 	 	 	 	 	 	 	 	 	 	 	 	 	 	 	 	 	 	1581501476	7.82	14.48
12/02/2020 09:57:57	120220	12022020	095757	191.77	12.632942	-57.167813	191.96	-1.280	0.290	2.680	191.78	-1.10	3.20	 	 	 	 	 	 	 	 	 	 	 	 	 	 	 	 	 	 	1581501477	7.79	14.43
12/02/2020 09:57:58	120220	12022020	095758	191.78	12.632907	-57.167832	191.96	-0.990	0.090	2.500	191.78	-1.30	3.00	 	 	 	 	 	 	 	 	 	 	 	 	 	 	 	 	 	 	1581501478	8.31	15.39
12/02/2020 09:57:59	120220	12022020	095759	191.80	12.632870	-57.167847	192.00	-0.170	-0.220	2.030	191.82	-1.60	2.50	 	 	 	 	 	 	 	 	 	 	 	 	 	 	 	 	 	 	1581501479	8.78	16.26
12/02/2020 09:58:00	120220	12022020	095800	192.01	12.632830	-57.167858	192.24	0.500	-0.170	1.430	192.08	-1.50	1.90	 	 	 	 	 	 	 	 	 	 	 	 	 	 	 	 	 	 	1581501480	8.73	16.17
12/02/2020 09:58:01	120220	12022020	095801	192.36	12.632793	-57.167865	192.58	0.660	0.070	0.930	192.43	-1.30	1.40	1015.10	26.20	26.20	21.10	21.20	-1.0	73.0	73.0	408.0	25.8	265.00	10.00	75.00	11.20	38	9042.0	27.5	27.5	1581501481	8.18	15.15
12/02/2020 09:58:02	120220	12022020	095802	192.72	12.632757	-57.167872	192.86	0.490	0.100	0.780	192.72	-1.30	1.30	 	 	 	 	 	 	 	 	 	 	 	 	 	 	 	 	 	 	1581501482	7.80	14.45
12/02/2020 09:58:03	120220	12022020	095803	192.78	12.632722	-57.167880	192.93	0.360	-0.140	1.050	192.77	-1.60	1.60	 	 	 	 	 	 	 	 	 	 	 	 	 	 	 	 	 	 	1581501483	7.92	14.67
12/02/2020 09:58:04	120220	12022020	095804	192.58	12.632685	-57.167888	192.66	0.330	-0.490	1.640	192.49	-1.90	2.30	 	 	 	 	 	 	 	 	 	 	 	 	 	 	 	 	 	 	1581501484	8.16	15.11
12/02/2020 09:58:05	120220	12022020	095805	192.11	12.632647	-57.167900	192.20	0.190	-0.870	2.460	192.11	-2.30	3.10	 	 	 	 	 	 	 	 	 	 	 	 	 	 	 	 	 	 	1581501485	8.40	15.56
12/02/2020 09:58:06	120220	12022020	095806	191.70	12.632610	-57.167915	191.90	-0.180	-0.910	3.150	191.70	-2.20	3.70	 	 	 	 	 	 	 	 	 	 	 	 	 	 	 	 	 	 	1581501486	8.66	16.04
12/02/2020 09:58:07	120220	12022020	095807	191.74	12.632573	-57.167932	191.98	-0.530	-0.400	3.330	191.78	-1.70	3.80	 	 	 	 	 	 	 	 	 	 	 	 	 	 	 	 	 	 	1581501487	8.48	15.70
12/02/2020 09:58:08	120220	12022020	095808	191.97	12.632540	-57.167947	192.20	-0.550	0.180	2.970	192.00	-1.20	3.40	 	 	 	 	 	 	 	 	 	 	 	 	 	 	 	 	 	 	1581501488	7.83	14.50
12/02/2020 09:58:09	120220	12022020	095809	192.02	12.632507	-57.167958	192.19	-0.170	0.170	2.490	192.00	-1.20	3.00	 	 	 	 	 	 	 	 	 	 	 	 	 	 	 	 	 	 	1581501489	7.70	14.26
12/02/2020 09:58:10	120220	12022020	095810	191.87	12.632468	-57.167968	192.01	0.220	-0.210	2.230	191.82	-1.60	2.70	 	 	 	 	 	 	 	 	 	 	 	 	 	 	 	 	 	 	1581501490	8.33	15.43
12/02/2020 09:58:11	120220	12022020	095811	191.66	12.632430	-57.167977	191.80	0.270	-0.350	2.040	191.62	-1.70	2.50	 	 	 	 	 	 	 	 	 	 	 	 	 	 	 	 	 	 	1581501491	8.63	15.98
12/02/2020 09:58:12	120220	12022020	095812	191.48	12.632393	-57.167987	191.66	0.060	-0.200	1.920	191.48	-1.60	2.40	 	 	 	 	 	 	 	 	 	 	 	 	 	 	 	 	 	 	1581501492	8.25	15.28
12/02/2020 09:58:13	120220	12022020	095813	191.41	12.632357	-57.167997	191.59	-0.070	-0.230	1.850	191.41	-1.60	2.40	 	 	 	 	 	 	 	 	 	 	 	 	 	 	 	 	 	 	1581501493	7.95	14.72
12/02/2020 09:58:14	120220	12022020	095814	191.43	12.632320	-57.168008	191.60	0.010	-0.450	1.770	191.43	-1.80	2.30	 	 	 	 	 	 	 	 	 	 	 	 	 	 	 	 	 	 	1581501494	8.22	15.22
12/02/2020 09:58:15	120220	12022020	095815	191.53	12.632283	-57.168018	191.74	0.130	-0.490	1.750	191.57	-1.80	2.30	 	 	 	 	 	 	 	 	 	 	 	 	 	 	 	 	 	 	1581501495	8.45	15.65
12/02/2020 09:58:16	120220	12022020	095816	191.75	12.632247	-57.168030	191.96	0.120	-0.230	1.670	191.80	-1.60	2.20	 	 	 	 	 	 	 	 	 	 	 	 	 	 	 	 	 	 	1581501496	8.21	15.20
12/02/2020 09:58:17	120220	12022020	095817	191.97	12.632212	-57.168038	192.16	0.070	0.000	1.510	191.97	-1.40	2.00	 	 	 	 	 	 	 	 	 	 	 	 	 	 	 	 	 	 	1581501497	7.81	14.46
12/02/2020 09:58:18	120220	12022020	095818	191.98	12.632175	-57.168047	192.09	0.040	-0.340	1.700	191.94	-1.80	2.30	 	 	 	 	 	 	 	 	 	 	 	 	 	 	 	 	 	 	1581501498	7.87	14.58
12/02/2020 09:58:19	120220	12022020	095819	191.62	12.632137	-57.168057	191.69	-0.080	-0.970	2.450	191.62	-2.40	3.10	 	 	 	 	 	 	 	 	 	 	 	 	 	 	 	 	 	 	1581501499	8.62	15.96
12/02/2020 09:58:20	120220	12022020	095820	191.08	12.632097	-57.168072	191.15	-0.340	-1.050	3.270	190.97	-2.40	3.90	 	 	 	 	 	 	 	 	 	 	 	 	 	 	 	 	 	 	1581501500	9.11	16.87
12/02/2020 09:58:21	120220	12022020	095821	190.67	12.632060	-57.168088	190.83	-0.530	-0.200	3.700	190.63	-1.40	4.20	 	 	 	 	 	 	 	 	 	 	 	 	 	 	 	 	 	 	1581501501	8.70	16.11
12/02/2020 09:58:22	120220	12022020	095822	190.61	12.632027	-57.168105	190.81	-0.400	0.900	3.500	190.61	-0.40	3.90	 	 	 	 	 	 	 	 	 	 	 	 	 	 	 	 	 	 	1581501502	7.75	14.35
12/02/2020 09:58:23	120220	12022020	095823	190.74	12.631995	-57.168115	190.95	0.020	1.190	2.800	190.78	-0.20	3.20	 	 	 	 	 	 	 	 	 	 	 	 	 	 	 	 	 	 	1581501503	7.33	13.58
12/02/2020 09:58:24	120220	12022020	095824	190.90	12.631958	-57.168122	191.10	0.440	0.520	2.040	190.94	-1.00	2.50	 	 	 	 	 	 	 	 	 	 	 	 	 	 	 	 	 	 	1581501504	7.99	14.80
12/02/2020 09:58:25	120220	12022020	095825	191.20	12.631918	-57.168128	191.44	0.570	-0.340	1.300	191.28	-1.80	1.80	 	 	 	 	 	 	 	 	 	 	 	 	 	 	 	 	 	 	1581501505	8.71	16.13
12/02/2020 09:58:26	120220	12022020	095826	191.68	12.631878	-57.168135	191.83	0.390	-0.910	0.940	191.68	-2.30	1.50	 	 	 	 	 	 	 	 	 	 	 	 	 	 	 	 	 	 	1581501506	8.54	15.82
12/02/2020 09:58:27	120220	12022020	095827	191.78	12.631842	-57.168143	191.92	0.170	-1.350	1.120	191.77	-2.80	1.70	 	 	 	 	 	 	 	 	 	 	 	 	 	 	 	 	 	 	1581501507	8.08	14.96
12/02/2020 09:58:28	120220	12022020	095828	191.53	12.631807	-57.168155	191.60	0.150	-1.680	1.680	191.44	-3.10	2.30	 	 	 	 	 	 	 	 	 	 	 	 	 	 	 	 	 	 	1581501508	8.14	15.08
12/02/2020 09:58:29	120220	12022020	095829	191.03	12.631768	-57.168167	191.09	0.200	-1.530	2.400	190.93	-2.80	3.00	 	 	 	 	 	 	 	 	 	 	 	 	 	 	 	 	 	 	1581501509	8.41	15.58
12/02/2020 09:58:30	120220	12022020	095830	190.64	12.631732	-57.168178	190.81	0.050	-0.710	2.800	190.64	-1.90	3.30	 	 	 	 	 	 	 	 	 	 	 	 	 	 	 	 	 	 	1581501510	8.30	15.37
12/02/2020 09:58:31	120220	12022020	095831	190.68	12.631697	-57.168190	190.91	-0.390	0.290	2.830	190.68	-1.00	3.30	 	 	 	 	 	 	 	 	 	 	 	 	 	 	 	 	 	 	1581501511	7.89	14.61
12/02/2020 09:58:32	120220	12022020	095832	191.19	12.631662	-57.168200	191.36	-0.860	0.940	2.620	191.19	-0.40	3.10	 	 	 	 	 	 	 	 	 	 	 	 	 	 	 	 	 	 	1581501512	7.85	14.54
12/02/2020 09:58:33	120220	12022020	095833	191.74	12.631627	-57.168212	192.05	-1.030	1.200	2.280	191.86	-0.20	2.70	 	 	 	 	 	 	 	 	 	 	 	 	 	 	 	 	 	 	1581501513	8.08	14.96
12/02/2020 09:58:34	120220	12022020	095834	192.20	12.631590	-57.168222	192.40	-0.710	0.770	2.090	192.22	-0.70	2.60	 	 	 	 	 	 	 	 	 	 	 	 	 	 	 	 	 	 	1581501514	8.17	15.13
12/02/2020 09:58:35	120220	12022020	095835	192.12	12.631552	-57.168235	192.23	-0.030	-0.200	2.190	192.06	-1.70	2.70	 	 	 	 	 	 	 	 	 	 	 	 	 	 	 	 	 	 	1581501515	8.68	16.08
12/02/2020 09:58:36	120220	12022020	095836	191.68	12.631510	-57.168247	191.75	0.620	-0.910	2.390	191.57	-2.30	2.90	 	 	 	 	 	 	 	 	 	 	 	 	 	 	 	 	 	 	1581501516	9.09	16.83
12/02/2020 09:58:37	120220	12022020	095837	191.12	12.631472	-57.168258	191.20	0.900	-0.910	2.410	191.02	-2.20	2.90	 	 	 	 	 	 	 	 	 	 	 	 	 	 	 	 	 	 	1581501517	8.68	16.08
12/02/2020 09:58:38	120220	12022020	095838	190.66	12.631437	-57.168267	190.77	0.760	-0.490	2.160	190.60	-1.80	2.60	 	 	 	 	 	 	 	 	 	 	 	 	 	 	 	 	 	 	1581501518	7.92	14.67
12/02/2020 09:58:39	120220	12022020	095839	190.51	12.631402	-57.168273	190.70	0.370	-0.140	1.700	190.54	-1.50	2.20	 	 	 	 	 	 	 	 	 	 	 	 	 	 	 	 	 	 	1581501519	7.63	14.13
12/02/2020 09:58:40	120220	12022020	095840	190.84	12.631365	-57.168280	191.12	-0.060	0.090	1.120	190.97	-1.30	1.60	 	 	 	 	 	 	 	 	 	 	 	 	 	 	 	 	 	 	1581501520	7.78	14.41
12/02/2020 09:58:41	120220	12022020	095841	191.60	12.631330	-57.168288	191.89	-0.410	0.200	0.640	191.76	-1.20	1.10	 	 	 	 	 	 	 	 	 	 	 	 	 	 	 	 	 	 	1581501521	7.83	14.50
12/02/2020 09:58:42	120220	12022020	095842	192.40	12.631295	-57.168297	192.54	-0.580	-0.070	0.700	192.40	-1.50	1.30	 	 	 	 	 	 	 	 	 	 	 	 	 	 	 	 	 	 	1581501522	7.82	14.48
12/02/2020 09:58:43	120220	12022020	095843	192.52	12.631258	-57.168310	192.63	-0.450	-0.880	1.440	192.52	-2.40	2.10	 	 	 	 	 	 	 	 	 	 	 	 	 	 	 	 	 	 	1581501523	8.24	15.26
12/02/2020 09:58:44	120220	12022020	095844	192.14	12.631220	-57.168327	192.16	-0.070	-1.660	2.480	192.01	-3.10	3.10	 	 	 	 	 	 	 	 	 	 	 	 	 	 	 	 	 	 	1581501524	8.99	16.65
12/02/2020 09:58:45	120220	12022020	095845	191.42	12.631180	-57.168343	191.42	0.320	-1.610	3.260	191.26	-2.90	3.80	 	 	 	 	 	 	 	 	 	 	 	 	 	 	 	 	 	 	1581501525	9.21	17.06
12/02/2020 09:58:46	120220	12022020	095846	190.70	12.631143	-57.168355	190.76	0.450	-0.660	3.560	190.59	-1.90	4.10	 	 	 	 	 	 	 	 	 	 	 	 	 	 	 	 	 	 	1581501526	8.53	15.80
12/02/2020 09:58:47	120220	12022020	095847	190.21	12.631107	-57.168365	190.32	0.250	0.470	3.370	190.14	-0.80	3.80	 	 	 	 	 	 	 	 	 	 	 	 	 	 	 	 	 	 	1581501527	7.79	14.43
12/02/2020 09:58:48	120220	12022020	095848	190.01	12.631072	-57.168372	190.17	-0.140	1.100	2.820	190.01	-0.20	3.20	 	 	 	 	 	 	 	 	 	 	 	 	 	 	 	 	 	 	1581501528	7.73	14.32
12/02/2020 09:58:49	120220	12022020	095849	190.25	12.631035	-57.168378	190.50	-0.510	1.170	2.100	190.34	-0.20	2.50	 	 	 	 	 	 	 	 	 	 	 	 	 	 	 	 	 	 	1581501529	8.10	15.00
12/02/2020 09:58:50	120220	12022020	095850	190.94	12.630997	-57.168385	191.08	-0.660	0.790	1.540	190.94	-0.70	2.00	 	 	 	 	 	 	 	 	 	 	 	 	 	 	 	 	 	 	1581501530	8.31	15.39
12/02/2020 09:58:51	120220	12022020	095851	191.32	12.630960	-57.168397	191.52	-0.500	0.060	1.360	191.39	-1.40	1.90	 	 	 	 	 	 	 	 	 	 	 	 	 	 	 	 	 	 	1581501531	8.37	15.50
12/02/2020 09:58:52	120220	12022020	095852	191.60	12.630922	-57.168408	191.73	-0.050	-0.770	1.420	191.60	-2.30	1.90	 	 	 	 	 	 	 	 	 	 	 	 	 	 	 	 	 	 	1581501532	8.53	15.80
12/02/2020 09:58:53	120220	12022020	095853	191.65	12.630885	-57.168422	191.76	0.530	-1.290	1.420	191.64	-2.70	1.90	 	 	 	 	 	 	 	 	 	 	 	 	 	 	 	 	 	 	1581501533	8.56	15.85
12/02/2020 09:58:54	120220	12022020	095854	191.60	12.630847	-57.168432	191.69	0.910	-1.220	1.420	191.58	-2.60	1.90	 	 	 	 	 	 	 	 	 	 	 	 	 	 	 	 	 	 	1581501534	8.25	15.28
12/02/2020 09:58:55	120220	12022020	095855	191.42	12.630812	-57.168438	191.48	0.810	-0.840	1.560	191.42	-2.20	2.10	 	 	 	 	 	 	 	 	 	 	 	 	 	 	 	 	 	 	1581501535	7.80	14.45
12/02/2020 09:58:56	120220	12022020	095856	191.01	12.630777	-57.168445	191.14	0.280	-0.530	1.910	191.01	-1.90	2.50	 	 	 	 	 	 	 	 	 	 	 	 	 	 	 	 	 	 	1581501536	7.72	14.30
12/02/2020 09:58:57	120220	12022020	095857	190.71	12.630740	-57.168455	190.79	-0.360	-0.370	2.370	190.65	-1.70	2.90	 	 	 	 	 	 	 	 	 	 	 	 	 	 	 	 	 	 	1581501537	8.06	14.93
12/02/2020 09:58:58	120220	12022020	095858	190.43	12.630703	-57.168468	190.56	-0.800	-0.270	2.720	190.41	-1.60	3.30	 	 	 	 	 	 	 	 	 	 	 	 	 	 	 	 	 	 	1581501538	8.46	15.67
12/02/2020 09:58:59	120220	12022020	095859	190.37	12.630665	-57.168483	190.55	-0.810	-0.120	2.840	190.38	-1.50	3.30	 	 	 	 	 	 	 	 	 	 	 	 	 	 	 	 	 	 	1581501539	8.68	16.08
12/02/2020 09:59:00	120220	12022020	095900	190.59	12.630628	-57.168497	190.85	-0.430	0.130	2.460	190.68	-1.20	2.90	 	 	 	 	 	 	 	 	 	 	 	 	 	 	 	 	 	 	1581501540	8.61	15.95
12/02/2020 09:59:01	120220	12022020	095901	191.10	12.630590	-57.168508	191.36	0.100	0.410	1.790	191.21	-0.90	2.20	1015.10	26.10	26.20	21.00	21.10	0.0	73.0	73.0	411.0	25.8	265.00	10.30	75.00	11.40	44	9276.0	27.5	27.5	1581501541	8.33	15.43
12/02/2020 09:59:02	120220	12022020	095902	191.72	12.630553	-57.168515	191.85	0.550	0.510	1.130	191.72	-0.90	1.60	 	 	 	 	 	 	 	 	 	 	 	 	 	 	 	 	 	 	1581501542	8.07	14.95
12/02/2020 09:59:03	120220	12022020	095903	191.94	12.630517	-57.168520	192.10	0.760	0.240	0.830	191.94	-1.20	1.40	 	 	 	 	 	 	 	 	 	 	 	 	 	 	 	 	 	 	1581501543	8.08	14.96
12/02/2020 09:59:04	120220	12022020	095904	191.94	12.630478	-57.168525	192.07	0.570	-0.190	1.120	191.93	-1.60	1.70	 	 	 	 	 	 	 	 	 	 	 	 	 	 	 	 	 	 	1581501544	8.30	15.37
12/02/2020 09:59:05	120220	12022020	095905	191.91	12.630440	-57.168533	192.07	-0.030	-0.470	1.760	191.90	-1.90	2.40	 	 	 	 	 	 	 	 	 	 	 	 	 	 	 	 	 	 	1581501545	8.28	15.33
12/02/2020 09:59:06	120220	12022020	095906	191.79	12.630405	-57.168548	191.90	-0.630	-0.760	2.540	191.72	-2.20	3.20	 	 	 	 	 	 	 	 	 	 	 	 	 	 	 	 	 	 	1581501546	8.11	15.02
12/02/2020 09:59:07	120220	12022020	095907	191.39	12.630370	-57.168567	191.50	-0.700	-1.160	3.130	191.31	-2.60	3.70	 	 	 	 	 	 	 	 	 	 	 	 	 	 	 	 	 	 	1581501547	8.50	15.74
12/02/2020 09:59:08	120220	12022020	095908	191.08	12.630333	-57.168585	191.27	-0.140	-1.200	2.890	191.08	-2.50	3.30	 	 	 	 	 	 	 	 	 	 	 	 	 	 	 	 	 	 	1581501548	8.86	16.41
12/02/2020 09:59:09	120220	12022020	095909	191.16	12.630297	-57.168598	191.37	0.600	-0.620	1.990	191.16	-1.90	2.40	 	 	 	 	 	 	 	 	 	 	 	 	 	 	 	 	 	 	1581501549	8.36	15.48
12/02/2020 09:59:10	120220	12022020	095910	191.34	12.630262	-57.168603	191.50	0.990	0.010	0.970	191.36	-1.30	1.40	 	 	 	 	 	 	 	 	 	 	 	 	 	 	 	 	 	 	1581501550	7.73	14.32
12/02/2020 09:59:11	120220	12022020	095911	191.38	12.630225	-57.168605	191.52	0.810	0.130	0.360	191.39	-1.30	0.90	 	 	 	 	 	 	 	 	 	 	 	 	 	 	 	 	 	 	1581501551	7.91	14.65
12/02/2020 09:59:12	120220	12022020	095912	191.39	12.630185	-57.168607	191.54	0.100	-0.120	0.590	191.39	-1.50	1.20	 	 	 	 	 	 	 	 	 	 	 	 	 	 	 	 	 	 	1581501552	8.43	15.61
12/02/2020 09:59:13	120220	12022020	095913	191.46	12.630147	-57.168617	191.63	-0.730	-0.200	1.190	191.49	-1.60	1.80	 	 	 	 	 	 	 	 	 	 	 	 	 	 	 	 	 	 	1581501553	8.66	16.04
12/02/2020 09:59:14	120220	12022020	095914	191.80	12.630110	-57.168632	191.95	-1.310	0.090	1.710	191.80	-1.30	2.30	 	 	 	 	 	 	 	 	 	 	 	 	 	 	 	 	 	 	1581501554	8.48	15.70
12/02/2020 09:59:15	120220	12022020	095915	192.15	12.630077	-57.168650	192.42	-1.320	0.340	2.190	192.24	-1.00	2.70	 	 	 	 	 	 	 	 	 	 	 	 	 	 	 	 	 	 	1581501555	8.21	15.20
12/02/2020 09:59:16	120220	12022020	095916	192.48	12.630043	-57.168670	192.67	-0.580	0.120	2.310	192.50	-1.40	2.80	 	 	 	 	 	 	 	 	 	 	 	 	 	 	 	 	 	 	1581501556	8.19	15.17
12/02/2020 09:59:17	120220	12022020	095917	192.40	12.630007	-57.168685	192.50	0.630	-0.600	2.020	192.35	-2.10	2.50	 	 	 	 	 	 	 	 	 	 	 	 	 	 	 	 	 	 	1581501557	8.44	15.63
12/02/2020 09:59:18	120220	12022020	095918	192.05	12.629967	-57.168693	192.11	1.490	-1.090	1.760	191.97	-2.50	2.30	 	 	 	 	 	 	 	 	 	 	 	 	 	 	 	 	 	 	1581501558	8.92	16.52
12/02/2020 09:59:19	120220	12022020	095919	191.72	12.629925	-57.168697	191.84	1.330	-0.790	1.680	191.69	-2.10	2.20	 	 	 	 	 	 	 	 	 	 	 	 	 	 	 	 	 	 	1581501559	8.75	16.21
12/02/2020 09:59:20	120220	12022020	095920	191.69	12.629890	-57.168703	191.86	0.340	0.050	1.780	191.70	-1.20	2.30	 	 	 	 	 	 	 	 	 	 	 	 	 	 	 	 	 	 	1581501560	7.86	14.56
12/02/2020 09:59:21	120220	12022020	095921	191.78	12.629857	-57.168713	191.96	-0.640	0.630	2.130	191.78	-0.70	2.70	 	 	 	 	 	 	 	 	 	 	 	 	 	 	 	 	 	 	1581501561	7.29	13.50
12/02/2020 09:59:22	120220	12022020	095922	191.84	12.629825	-57.168728	192.01	-0.850	0.460	2.440	191.84	-1.00	3.00	 	 	 	 	 	 	 	 	 	 	 	 	 	 	 	 	 	 	1581501562	7.79	14.43
12/02/2020 09:59:23	120220	12022020	095923	192.00	12.629788	-57.168745	192.26	-0.380	-0.090	2.320	192.00	-1.50	2.80	 	 	 	 	 	 	 	 	 	 	 	 	 	 	 	 	 	 	1581501563	8.58	15.89
12/02/2020 09:59:24	120220	12022020	095924	192.40	12.629750	-57.168758	192.66	0.170	-0.500	1.830	192.48	-1.90	2.30	 	 	 	 	 	 	 	 	 	 	 	 	 	 	 	 	 	 	1581501564	8.73	16.17
12/02/2020 09:59:25	120220	12022020	095925	192.64	12.629712	-57.168768	192.78	0.390	-0.820	1.450	192.63	-2.30	2.00	 	 	 	 	 	 	 	 	 	 	 	 	 	 	 	 	 	 	1581501565	8.37	15.50
12/02/2020 09:59:26	120220	12022020	095926	192.47	12.629673	-57.168778	192.58	0.320	-1.070	1.470	192.42	-2.50	2.00	 	 	 	 	 	 	 	 	 	 	 	 	 	 	 	 	 	 	1581501566	8.30	15.37
12/02/2020 09:59:27	120220	12022020	095927	192.27	12.629637	-57.168788	192.39	0.140	-0.870	1.700	192.23	-2.20	2.30	 	 	 	 	 	 	 	 	 	 	 	 	 	 	 	 	 	 	1581501567	8.37	15.50
12/02/2020 09:59:28	120220	12022020	095928	192.04	12.629600	-57.168798	192.14	0.000	-0.370	2.130	191.98	-1.70	2.70	 	 	 	 	 	 	 	 	 	 	 	 	 	 	 	 	 	 	1581501568	8.01	14.83
12/02/2020 09:59:29	120220	12022020	095929	191.80	12.629567	-57.168810	191.93	0.020	0.060	2.360	191.77	-1.30	2.90	 	 	 	 	 	 	 	 	 	 	 	 	 	 	 	 	 	 	1581501569	7.91	14.65
12/02/2020 09:59:30	120220	12022020	095930	191.73	12.629530	-57.168822	191.92	0.120	0.350	2.260	191.74	-1.00	2.70	 	 	 	 	 	 	 	 	 	 	 	 	 	 	 	 	 	 	1581501570	8.10	15.00
12/02/2020 09:59:31	120220	12022020	095931	191.87	12.629493	-57.168832	192.08	0.110	0.520	2.020	191.91	-0.90	2.50	 	 	 	 	 	 	 	 	 	 	 	 	 	 	 	 	 	 	1581501571	8.14	15.08
12/02/2020 09:59:32	120220	12022020	095932	192.07	12.629457	-57.168840	192.26	-0.080	0.330	1.850	192.10	-1.10	2.40	 	 	 	 	 	 	 	 	 	 	 	 	 	 	 	 	 	 	1581501572	8.08	14.96
12/02/2020 09:59:33	120220	12022020	095933	192.10	12.629420	-57.168850	192.24	-0.360	-0.350	2.020	192.08	-1.90	2.60	 	 	 	 	 	 	 	 	 	 	 	 	 	 	 	 	 	 	1581501573	8.30	15.37
12/02/2020 09:59:34	120220	12022020	095934	191.84	12.629380	-57.168863	191.93	-0.490	-1.190	2.600	191.76	-2.70	3.20	 	 	 	 	 	 	 	 	 	 	 	 	 	 	 	 	 	 	1581501574	8.81	16.32
12/02/2020 09:59:35	120220	12022020	095935	191.42	12.629342	-57.168882	191.52	-0.310	-1.480	3.000	191.34	-2.80	3.50	 	 	 	 	 	 	 	 	 	 	 	 	 	 	 	 	 	 	1581501575	9.16	16.96
12/02/2020 09:59:36	120220	12022020	095936	191.08	12.629305	-57.168898	191.21	0.110	-0.960	2.830	191.03	-2.20	3.30	 	 	 	 	 	 	 	 	 	 	 	 	 	 	 	 	 	 	1581501576	8.67	16.06
12/02/2020 09:59:37	120220	12022020	095937	190.91	12.629270	-57.168908	191.07	0.510	-0.090	2.190	190.89	-1.40	2.60	 	 	 	 	 	 	 	 	 	 	 	 	 	 	 	 	 	 	1581501577	7.82	14.48
12/02/2020 09:59:38	120220	12022020	095938	190.92	12.629235	-57.168913	191.11	0.640	0.480	1.550	190.94	-0.90	2.00	 	 	 	 	 	 	 	 	 	 	 	 	 	 	 	 	 	 	1581501578	7.63	14.13
12/02/2020 09:59:39	120220	12022020	095939	191.11	12.629198	-57.168917	191.32	0.420	0.620	1.200	191.11	-0.80	1.70	 	 	 	 	 	 	 	 	 	 	 	 	 	 	 	 	 	 	1581501579	7.97	14.76
12/02/2020 09:59:40	120220	12022020	095940	191.54	12.629160	-57.168922	191.80	0.020	0.590	1.180	191.65	-0.80	1.70	 	 	 	 	 	 	 	 	 	 	 	 	 	 	 	 	 	 	1581501580	8.24	15.26
12/02/2020 09:59:41	120220	12022020	095941	192.08	12.629123	-57.168930	192.32	-0.310	0.440	1.480	192.16	-1.00	2.10	 	 	 	 	 	 	 	 	 	 	 	 	 	 	 	 	 	 	1581501581	8.09	14.98
12/02/2020 09:59:42	120220	12022020	095942	192.33	12.629088	-57.168943	192.50	-0.280	-0.160	2.040	192.33	-1.70	2.60	 	 	 	 	 	 	 	 	 	 	 	 	 	 	 	 	 	 	1581501582	8.03	14.87
12/02/2020 09:59:43	120220	12022020	095943	192.10	12.629052	-57.168958	192.18	0.070	-1.050	2.690	192.00	-2.50	3.30	 	 	 	 	 	 	 	 	 	 	 	 	 	 	 	 	 	 	1581501583	8.52	15.78
12/02/2020 09:59:44	120220	12022020	095944	191.48	12.629013	-57.168972	191.66	0.370	-1.480	3.180	191.48	-2.80	3.70	 	 	 	 	 	 	 	 	 	 	 	 	 	 	 	 	 	 	1581501584	8.89	16.46
12/02/2020 09:59:45	120220	12022020	095945	191.48	12.628975	-57.168985	191.72	0.160	-1.000	3.180	191.48	-2.30	3.60	 	 	 	 	 	 	 	 	 	 	 	 	 	 	 	 	 	 	1581501585	8.48	15.70
12/02/2020 09:59:46	120220	12022020	095946	191.88	12.628942	-57.168997	192.14	-0.360	-0.260	2.830	191.97	-1.60	3.30	 	 	 	 	 	 	 	 	 	 	 	 	 	 	 	 	 	 	1581501586	7.52	13.93
12/02/2020 09:59:47	120220	12022020	095947	192.17	12.628910	-57.169008	192.33	-0.520	-0.210	2.340	192.18	-1.70	2.80	 	 	 	 	 	 	 	 	 	 	 	 	 	 	 	 	 	 	1581501587	7.39	13.69
12/02/2020 09:59:48	120220	12022020	095948	192.07	12.628872	-57.169020	192.16	0.030	-0.800	1.830	192.03	-2.30	2.30	 	 	 	 	 	 	 	 	 	 	 	 	 	 	 	 	 	 	1581501588	8.37	15.50
12/02/2020 09:59:49	120220	12022020	095949	191.81	12.628830	-57.169028	191.90	0.710	-0.980	1.550	191.77	-2.30	2.00	 	 	 	 	 	 	 	 	 	 	 	 	 	 	 	 	 	 	1581501589	9.22	17.08
12/02/2020 09:59:50	120220	12022020	095950	191.69	12.628790	-57.169035	191.83	0.750	-0.360	1.380	191.70	-1.60	1.90	 	 	 	 	 	 	 	 	 	 	 	 	 	 	 	 	 	 	1581501590	8.93	16.54
12/02/2020 09:59:51	120220	12022020	095951	191.85	12.628752	-57.169040	192.05	-0.040	0.510	1.380	191.92	-0.80	1.90	 	 	 	 	 	 	 	 	 	 	 	 	 	 	 	 	 	 	1581501591	8.15	15.09
12/02/2020 09:59:52	120220	12022020	095952	192.37	12.628717	-57.169050	192.52	-1.090	1.130	1.830	192.37	-0.20	2.40	 	 	 	 	 	 	 	 	 	 	 	 	 	 	 	 	 	 	1581501592	7.79	14.43
12/02/2020 09:59:53	120220	12022020	095953	192.73	12.628683	-57.169065	192.97	-1.510	1.340	2.280	192.81	-0.10	2.80	 	 	 	 	 	 	 	 	 	 	 	 	 	 	 	 	 	 	1581501593	8.00	14.82
12/02/2020 09:59:54	120220	12022020	095954	193.17	12.628648	-57.169083	193.32	-0.970	1.110	2.330	193.17	-0.30	2.80	 	 	 	 	 	 	 	 	 	 	 	 	 	 	 	 	 	 	1581501594	8.22	15.22
12/02/2020 09:59:55	120220	12022020	095955	193.51	12.628613	-57.169098	193.74	0.060	0.510	1.920	193.59	-1.00	2.30	 	 	 	 	 	 	 	 	 	 	 	 	 	 	 	 	 	 	1581501595	8.24	15.26
12/02/2020 09:59:56	120220	12022020	095956	193.77	12.628577	-57.169110	193.90	0.970	-0.570	1.390	193.77	-2.20	1.90	 	 	 	 	 	 	 	 	 	 	 	 	 	 	 	 	 	 	1581501596	8.18	15.15
12/02/2020 09:59:57	120220	12022020	095957	193.53	12.628538	-57.169118	193.52	1.460	-1.950	1.240	193.53	-3.50	1.80	 	 	 	 	 	 	 	 	 	 	 	 	 	 	 	 	 	 	1581501597	8.49	15.72
12/02/2020 09:59:58	120220	12022020	095958	192.58	12.628498	-57.169127	192.70	1.380	-2.730	1.750	192.58	-4.10	2.40	 	 	 	 	 	 	 	 	 	 	 	 	 	 	 	 	 	 	1581501598	8.94	16.56
12/02/2020 09:59:59	120220	12022020	095959	192.01	12.628458	-57.169137	192.07	0.650	-2.130	2.390	192.01	-3.30	3.00	 	 	 	 	 	 	 	 	 	 	 	 	 	 	 	 	 	 	1581501599	8.69	16.09
12/02/2020 10:00:00	120220	12022020	100000	191.81	12.628425	-57.169148	191.96	-0.440	-0.560	2.760	191.82	-1.70	3.30	 	 	 	 	 	 	 	 	 	 	 	 	 	 	 	 	 	 	1581501600	7.71	14.28
12/02/2020 10:00:01	120220	12022020	100001	191.92	12.628395	-57.169163	192.10	-1.220	0.630	2.840	191.95	-0.70	3.30	1015.10	26.10	26.20	21.00	21.10	0.0	73.0	73.0	408.0	25.8	266.00	10.50	77.00	11.60	50	9536.0	27.5	27.5	1581501601	7.23	13.39
12/02/2020 10:00:02	120220	12022020	100002	192.03	12.628362	-57.169180	192.19	-1.180	0.740	2.660	192.04	-0.70	3.10	 	 	 	 	 	 	 	 	 	 	 	 	 	 	 	 	 	 	1581501602	7.94	14.70
12/02/2020 10:00:03	120220	12022020	100003	192.12	12.628322	-57.169195	192.30	-0.580	0.340	2.320	192.16	-1.10	2.80	 	 	 	 	 	 	 	 	 	 	 	 	 	 	 	 	 	 	1581501603	9.07	16.80
12/02/2020 10:00:04	120220	12022020	100004	192.59	12.628280	-57.169207	192.73	-0.110	0.300	1.860	192.59	-1.10	2.30	 	 	 	 	 	 	 	 	 	 	 	 	 	 	 	 	 	 	1581501604	9.39	17.39
12/02/2020 10:00:05	120220	12022020	100005	193.09	12.628242	-57.169217	193.32	-0.090	0.700	1.530	193.20	-0.70	2.00	 	 	 	 	 	 	 	 	 	 	 	 	 	 	 	 	 	 	1581501605	8.57	15.87
12/02/2020 10:00:06	120220	12022020	100006	193.45	12.628207	-57.169225	193.58	-0.230	0.770	1.560	193.47	-0.70	2.10	 	 	 	 	 	 	 	 	 	 	 	 	 	 	 	 	 	 	1581501606	7.69	14.24
12/02/2020 10:00:07	120220	12022020	100007	193.47	12.628172	-57.169235	193.58	-0.150	0.200	1.830	193.46	-1.30	2.40	 	 	 	 	 	 	 	 	 	 	 	 	 	 	 	 	 	 	1581501607	7.88	14.59
12/02/2020 10:00:08	120220	12022020	100008	193.44	12.628133	-57.169248	193.53	0.170	-0.480	2.060	193.42	-2.00	2.60	 	 	 	 	 	 	 	 	 	 	 	 	 	 	 	 	 	 	1581501608	8.40	15.56
12/02/2020 10:00:09	120220	12022020	100009	193.25	12.628097	-57.169260	193.27	0.590	-0.960	2.200	193.17	-2.40	2.70	 	 	 	 	 	 	 	 	 	 	 	 	 	 	 	 	 	 	1581501609	8.36	15.48
12/02/2020 10:00:10	120220	12022020	100010	192.60	12.628062	-57.169272	192.70	0.850	-1.280	2.330	192.60	-2.70	2.90	 	 	 	 	 	 	 	 	 	 	 	 	 	 	 	 	 	 	1581501610	8.19	15.17
12/02/2020 10:00:11	120220	12022020	100011	192.28	12.628023	-57.169282	192.35	0.740	-1.170	2.220	192.28	-2.50	2.70	 	 	 	 	 	 	 	 	 	 	 	 	 	 	 	 	 	 	1581501611	8.24	15.26
12/02/2020 10:00:12	120220	12022020	100012	192.17	12.627988	-57.169292	192.27	0.350	-0.650	2.030	192.17	-2.00	2.50	 	 	 	 	 	 	 	 	 	 	 	 	 	 	 	 	 	 	1581501612	7.90	14.63
12/02/2020 10:00:13	120220	12022020	100013	192.08	12.627953	-57.169302	192.15	-0.040	-0.320	2.070	192.04	-1.70	2.60	 	 	 	 	 	 	 	 	 	 	 	 	 	 	 	 	 	 	1581501613	7.67	14.20
12/02/2020 10:00:14	120220	12022020	100014	191.86	12.627918	-57.169313	191.99	-0.330	-0.330	2.270	191.86	-1.70	2.80	 	 	 	 	 	 	 	 	 	 	 	 	 	 	 	 	 	 	1581501614	8.15	15.09
12/02/2020 10:00:15	120220	12022020	100015	191.85	12.627880	-57.169328	192.01	-0.590	-0.260	2.460	191.87	-1.60	3.00	 	 	 	 	 	 	 	 	 	 	 	 	 	 	 	 	 	 	1581501615	8.72	16.15
12/02/2020 10:00:16	120220	12022020	100016	192.09	12.627843	-57.169343	192.30	-0.730	0.230	2.420	192.17	-1.10	2.90	 	 	 	 	 	 	 	 	 	 	 	 	 	 	 	 	 	 	1581501616	8.68	16.08
12/02/2020 10:00:17	120220	12022020	100017	192.52	12.627808	-57.169358	192.74	-0.600	0.860	2.120	192.61	-0.50	2.60	 	 	 	 	 	 	 	 	 	 	 	 	 	 	 	 	 	 	1581501617	8.07	14.95
12/02/2020 10:00:18	120220	12022020	100018	192.90	12.627775	-57.169370	193.06	-0.100	0.970	1.640	192.96	-0.50	2.10	 	 	 	 	 	 	 	 	 	 	 	 	 	 	 	 	 	 	1581501618	7.66	14.19
12/02/2020 10:00:19	120220	12022020	100019	193.10	12.627738	-57.169378	193.21	0.590	0.290	1.220	193.12	-1.20	1.70	 	 	 	 	 	 	 	 	 	 	 	 	 	 	 	 	 	 	1581501619	8.06	14.93
12/02/2020 10:00:20	120220	12022020	100020	193.10	12.627698	-57.169383	193.20	1.000	-0.710	1.080	193.10	-2.20	1.60	 	 	 	 	 	 	 	 	 	 	 	 	 	 	 	 	 	 	1581501620	8.74	16.19
12/02/2020 10:00:21	120220	12022020	100021	193.01	12.627657	-57.169390	193.10	0.820	-1.280	1.400	192.99	-2.70	2.00	 	 	 	 	 	 	 	 	 	 	 	 	 	 	 	 	 	 	1581501621	8.90	16.48
12/02/2020 10:00:22	120220	12022020	100022	192.87	12.627620	-57.169400	192.95	0.130	-1.210	2.050	192.82	-2.60	2.70	 	 	 	 	 	 	 	 	 	 	 	 	 	 	 	 	 	 	1581501622	8.33	15.43
12/02/2020 10:00:23	120220	12022020	100023	192.56	12.627585	-57.169415	192.60	-0.550	-0.910	2.750	192.56	-2.30	3.30	 	 	 	 	 	 	 	 	 	 	 	 	 	 	 	 	 	 	1581501623	7.83	14.50
12/02/2020 10:00:24	120220	12022020	100024	192.09	12.627552	-57.169432	192.15	-0.730	-0.800	3.190	192.00	-2.20	3.70	 	 	 	 	 	 	 	 	 	 	 	 	 	 	 	 	 	 	1581501624	8.04	14.89
12/02/2020 10:00:25	120220	12022020	100025	191.78	12.627517	-57.169450	191.92	-0.470	-0.640	3.210	191.76	-2.00	3.70	 	 	 	 	 	 	 	 	 	 	 	 	 	 	 	 	 	 	1581501625	8.54	15.82
12/02/2020 10:00:26	120220	12022020	100026	191.77	12.627480	-57.169463	191.96	-0.130	-0.200	2.930	191.80	-1.50	3.40	 	 	 	 	 	 	 	 	 	 	 	 	 	 	 	 	 	 	1581501626	8.57	15.87
12/02/2020 10:00:27	120220	12022020	100027	191.95	12.627443	-57.169475	192.14	0.020	0.400	2.400	191.99	-0.90	2.80	 	 	 	 	 	 	 	 	 	 	 	 	 	 	 	 	 	 	1581501627	8.26	15.30
12/02/2020 10:00:28	120220	12022020	100028	192.36	12.627407	-57.169485	192.50	0.060	0.910	1.760	192.36	-0.50	2.20	 	 	 	 	 	 	 	 	 	 	 	 	 	 	 	 	 	 	1581501628	8.02	14.85
12/02/2020 10:00:29	120220	12022020	100029	192.80	12.627370	-57.169492	193.03	0.150	1.050	1.120	192.91	-0.40	1.60	 	 	 	 	 	 	 	 	 	 	 	 	 	 	 	 	 	 	1581501629	7.93	14.69
12/02/2020 10:00:30	120220	12022020	100030	193.25	12.627333	-57.169497	193.39	0.310	0.480	0.800	193.28	-1.10	1.30	 	 	 	 	 	 	 	 	 	 	 	 	 	 	 	 	 	 	1581501630	8.04	14.89
12/02/2020 10:00:31	120220	12022020	100031	193.15	12.627293	-57.169503	193.16	0.370	-0.760	1.310	193.05	-2.30	2.00	 	 	 	 	 	 	 	 	 	 	 	 	 	 	 	 	 	 	1581501631	8.55	15.83
12/02/2020 10:00:32	120220	12022020	100032	192.29	12.627253	-57.169518	192.43	0.180	-1.800	2.500	192.29	-3.20	3.20	 	 	 	 	 	 	 	 	 	 	 	 	 	 	 	 	 	 	1581501632	9.19	17.02
12/02/2020 10:00:33	120220	12022020	100033	191.70	12.627215	-57.169537	191.74	-0.110	-1.670	3.440	191.59	-2.90	4.00	 	 	 	 	 	 	 	 	 	 	 	 	 	 	 	 	 	 	1581501633	9.17	16.98
12/02/2020 10:00:34	120220	12022020	100034	191.33	12.627182	-57.169557	191.48	-0.250	-0.640	3.550	191.33	-1.90	4.00	 	 	 	 	 	 	 	 	 	 	 	 	 	 	 	 	 	 	1581501634	8.16	15.11
12/02/2020 10:00:35	120220	12022020	100035	191.30	12.627152	-57.169570	191.46	-0.070	0.200	3.100	191.30	-1.10	3.50	 	 	 	 	 	 	 	 	 	 	 	 	 	 	 	 	 	 	1581501635	7.24	13.41
12/02/2020 10:00:36	120220	12022020	100036	191.43	12.627117	-57.169578	191.64	0.250	0.380	2.370	191.49	-1.00	2.80	 	 	 	 	 	 	 	 	 	 	 	 	 	 	 	 	 	 	1581501636	7.57	14.02
12/02/2020 10:00:37	120220	12022020	100037	191.82	12.627080	-57.169585	192.07	0.360	0.250	1.560	191.93	-1.20	2.00	 	 	 	 	 	 	 	 	 	 	 	 	 	 	 	 	 	 	1581501637	8.27	15.32
12/02/2020 10:00:38	120220	12022020	100038	192.27	12.627040	-57.169590	192.47	0.130	0.030	1.190	192.33	-1.40	1.70	 	 	 	 	 	 	 	 	 	 	 	 	 	 	 	 	 	 	1581501638	8.41	15.58
12/02/2020 10:00:39	120220	12022020	100039	192.39	12.627003	-57.169598	192.50	-0.180	-0.350	1.440	192.37	-1.80	2.00	 	 	 	 	 	 	 	 	 	 	 	 	 	 	 	 	 	 	1581501639	8.29	15.35
12/02/2020 10:00:40	120220	12022020	100040	192.12	12.626965	-57.169612	192.19	-0.210	-0.800	2.000	192.04	-2.30	2.60	 	 	 	 	 	 	 	 	 	 	 	 	 	 	 	 	 	 	1581501640	8.48	15.70
12/02/2020 10:00:41	120220	12022020	100041	191.71	12.626927	-57.169625	191.78	0.060	-1.090	2.500	191.63	-2.50	3.10	 	 	 	 	 	 	 	 	 	 	 	 	 	 	 	 	 	 	1581501641	8.72	16.15
12/02/2020 10:00:42	120220	12022020	100042	191.38	12.626888	-57.169638	191.51	0.260	-0.960	2.670	191.34	-2.30	3.20	 	 	 	 	 	 	 	 	 	 	 	 	 	 	 	 	 	 	1581501642	8.72	16.15
12/02/2020 10:00:43	120220	12022020	100043	191.28	12.626852	-57.169650	191.47	0.040	-0.330	2.600	191.29	-1.60	3.10	 	 	 	 	 	 	 	 	 	 	 	 	 	 	 	 	 	 	1581501643	8.36	15.48
12/02/2020 10:00:44	120220	12022020	100044	191.33	12.626817	-57.169658	191.51	-0.510	0.410	2.530	191.33	-0.90	3.00	 	 	 	 	 	 	 	 	 	 	 	 	 	 	 	 	 	 	1581501644	7.78	14.41
12/02/2020 10:00:45	120220	12022020	100045	191.36	12.626782	-57.169670	191.54	-0.960	0.720	2.430	191.36	-0.70	2.90	 	 	 	 	 	 	 	 	 	 	 	 	 	 	 	 	 	 	1581501645	7.65	14.17
12/02/2020 10:00:46	120220	12022020	100046	191.34	12.626747	-57.169683	191.51	-0.880	0.460	2.270	191.34	-1.00	2.70	 	 	 	 	 	 	 	 	 	 	 	 	 	 	 	 	 	 	1581501646	8.09	14.98
12/02/2020 10:00:47	120220	12022020	100047	191.43	12.626710	-57.169697	191.66	-0.280	0.000	1.820	191.48	-1.40	2.20	 	 	 	 	 	 	 	 	 	 	 	 	 	 	 	 	 	 	1581501647	8.61	15.95
12/02/2020 10:00:48	120220	12022020	100048	191.77	12.626672	-57.169708	192.02	0.480	-0.240	1.120	191.86	-1.70	1.50	 	 	 	 	 	 	 	 	 	 	 	 	 	 	 	 	 	 	1581501648	8.59	15.91
12/02/2020 10:00:49	120220	12022020	100049	192.15	12.626633	-57.169715	192.36	0.960	-0.350	0.550	192.15	-1.80	1.00	 	 	 	 	 	 	 	 	 	 	 	 	 	 	 	 	 	 	1581501649	8.19	15.17
12/02/2020 10:00:50	120220	12022020	100050	192.36	12.626597	-57.169720	192.52	1.000	-0.500	0.530	192.38	-1.90	1.10	 	 	 	 	 	 	 	 	 	 	 	 	 	 	 	 	 	 	1581501650	8.02	14.85
12/02/2020 10:00:51	120220	12022020	100051	192.36	12.626560	-57.169727	192.49	0.700	-0.660	1.140	192.34	-2.10	1.80	 	 	 	 	 	 	 	 	 	 	 	 	 	 	 	 	 	 	1581501651	8.04	14.89
12/02/2020 10:00:52	120220	12022020	100052	192.21	12.626523	-57.169738	192.37	0.170	-0.730	1.990	192.21	-2.10	2.60	 	 	 	 	 	 	 	 	 	 	 	 	 	 	 	 	 	 	1581501652	8.11	15.02
12/02/2020 10:00:53	120220	12022020	100053	191.97	12.626488	-57.169752	192.06	-0.400	-0.780	2.830	191.88	-2.20	3.40	 	 	 	 	 	 	 	 	 	 	 	 	 	 	 	 	 	 	1581501653	8.20	15.19
12/02/2020 10:00:54	120220	12022020	100054	191.40	12.626452	-57.169768	191.58	-0.750	-0.710	3.480	191.40	-2.10	4.00	 	 	 	 	 	 	 	 	 	 	 	 	 	 	 	 	 	 	1581501654	8.47	15.69
12/02/2020 10:00:55	120220	12022020	100055	191.09	12.626417	-57.169785	191.22	-0.710	-0.380	3.570	191.03	-1.70	4.00	 	 	 	 	 	 	 	 	 	 	 	 	 	 	 	 	 	 	1581501655	8.53	15.80
12/02/2020 10:00:56	120220	12022020	100056	190.88	12.626380	-57.169798	191.07	-0.410	0.050	3.140	190.88	-1.30	3.60	 	 	 	 	 	 	 	 	 	 	 	 	 	 	 	 	 	 	1581501656	8.25	15.28
12/02/2020 10:00:57	120220	12022020	100057	191.01	12.626343	-57.169808	191.27	-0.180	0.400	2.470	191.08	-1.00	2.90	 	 	 	 	 	 	 	 	 	 	 	 	 	 	 	 	 	 	1581501657	8.09	14.98
12/02/2020 10:00:58	120220	12022020	100058	191.48	12.626307	-57.169815	191.65	-0.120	0.440	1.850	191.48	-1.00	2.30	 	 	 	 	 	 	 	 	 	 	 	 	 	 	 	 	 	 	1581501658	7.99	14.80
12/02/2020 10:00:59	120220	12022020	100059	191.69	12.626270	-57.169825	191.87	-0.060	0.010	1.540	191.71	-1.50	2.10	 	 	 	 	 	 	 	 	 	 	 	 	 	 	 	 	 	 	1581501659	8.11	15.02
12/02/2020 10:01:00	120220	12022020	100100	191.64	12.626232	-57.169835	191.76	0.180	-0.570	1.650	191.60	-2.00	2.20	 	 	 	 	 	 	 	 	 	 	 	 	 	 	 	 	 	 	1581501660	8.52	15.78
12/02/2020 10:01:01	120220	12022020	100101	191.43	12.626193	-57.169847	191.57	0.480	-0.750	1.830	191.43	-2.10	2.40	1015.20	26.20	26.20	21.10	21.10	0.0	73.0	73.0	407.0	25.8	264.00	11.10	76.00	12.30	57	9076.0	27.5	27.5	1581501661	8.67	16.06
12/02/2020 10:01:02	120220	12022020	100102	191.38	12.626157	-57.169857	191.55	0.570	-0.400	1.830	191.39	-1.70	2.30	 	 	 	 	 	 	 	 	 	 	 	 	 	 	 	 	 	 	1581501662	8.26	15.30
12/02/2020 10:01:03	120220	12022020	100103	191.49	12.626122	-57.169865	191.67	0.370	0.020	1.670	191.51	-1.30	2.20	 	 	 	 	 	 	 	 	 	 	 	 	 	 	 	 	 	 	1581501663	7.68	14.22
12/02/2020 10:01:04	120220	12022020	100104	191.61	12.626087	-57.169873	191.77	-0.000	-0.010	1.580	191.62	-1.40	2.10	 	 	 	 	 	 	 	 	 	 	 	 	 	 	 	 	 	 	1581501664	7.64	14.15
12/02/2020 10:01:05	120220	12022020	100105	191.56	12.626050	-57.169883	191.67	-0.290	-0.470	1.860	191.51	-1.90	2.40	 	 	 	 	 	 	 	 	 	 	 	 	 	 	 	 	 	 	1581501665	8.15	15.09
12/02/2020 10:01:06	120220	12022020	100106	191.33	12.626012	-57.169897	191.45	-0.280	-0.770	2.290	191.30	-2.10	2.80	 	 	 	 	 	 	 	 	 	 	 	 	 	 	 	 	 	 	1581501666	8.69	16.09
12/02/2020 10:01:07	120220	12022020	100107	191.32	12.625975	-57.169910	191.51	-0.120	-0.420	2.310	191.35	-1.70	2.80	 	 	 	 	 	 	 	 	 	 	 	 	 	 	 	 	 	 	1581501667	8.56	15.85
12/02/2020 10:01:08	120220	12022020	100108	191.44	12.625940	-57.169922	191.60	-0.000	0.010	2.220	191.44	-1.40	2.80	 	 	 	 	 	 	 	 	 	 	 	 	 	 	 	 	 	 	1581501668	7.78	14.41
12/02/2020 10:01:09	120220	12022020	100109	191.23	12.625905	-57.169930	191.32	0.090	-0.190	2.380	191.15	-1.60	2.90	 	 	 	 	 	 	 	 	 	 	 	 	 	 	 	 	 	 	1581501669	7.78	14.41
12/02/2020 10:01:10	120220	12022020	100110	190.89	12.625867	-57.169940	191.07	0.070	-0.540	2.520	190.88	-1.90	3.00	 	 	 	 	 	 	 	 	 	 	 	 	 	 	 	 	 	 	1581501670	8.64	16.00
12/02/2020 10:01:11	120220	12022020	100111	191.11	12.625827	-57.169952	191.43	-0.210	-0.150	2.530	191.22	-1.40	3.00	 	 	 	 	 	 	 	 	 	 	 	 	 	 	 	 	 	 	1581501671	8.76	16.22
12/02/2020 10:01:12	120220	12022020	100112	191.82	12.625793	-57.169963	192.16	-0.600	0.650	2.380	191.97	-0.70	2.90	 	 	 	 	 	 	 	 	 	 	 	 	 	 	 	 	 	 	1581501672	7.73	14.32
12/02/2020 10:01:13	120220	12022020	100113	192.34	12.625762	-57.169977	192.54	-0.620	0.640	2.290	192.36	-0.90	2.80	 	 	 	 	 	 	 	 	 	 	 	 	 	 	 	 	 	 	1581501673	7.09	13.13
12/02/2020 10:01:14	120220	12022020	100114	192.17	12.625728	-57.169990	192.25	0.080	-0.550	2.400	192.07	-2.10	2.90	 	 	 	 	 	 	 	 	 	 	 	 	 	 	 	 	 	 	1581501674	7.98	14.78
12/02/2020 10:01:15	120220	12022020	100115	191.65	12.625687	-57.170002	191.73	1.000	-1.620	2.390	191.56	-3.10	2.90	 	 	 	 	 	 	 	 	 	 	 	 	 	 	 	 	 	 	1581501675	9.33	17.28
12/02/2020 10:01:16	120220	12022020	100116	191.36	12.625645	-57.170012	191.52	1.290	-1.410	2.150	191.34	-2.70	2.60	 	 	 	 	 	 	 	 	 	 	 	 	 	 	 	 	 	 	1581501676	9.23	17.09
12/02/2020 10:01:17	120220	12022020	100117	191.44	12.625608	-57.170017	191.65	0.680	-0.240	1.750	191.48	-1.50	2.20	 	 	 	 	 	 	 	 	 	 	 	 	 	 	 	 	 	 	1581501677	7.91	14.65
12/02/2020 10:01:18	120220	12022020	100118	191.79	12.625575	-57.170023	191.95	-0.340	0.740	1.450	191.79	-0.60	2.00	 	 	 	 	 	 	 	 	 	 	 	 	 	 	 	 	 	 	1581501678	6.98	12.93
12/02/2020 10:01:19	120220	12022020	100119	192.05	12.625543	-57.170030	192.26	-1.060	0.770	1.510	192.12	-0.70	2.10	 	 	 	 	 	 	 	 	 	 	 	 	 	 	 	 	 	 	1581501679	7.22	13.37
12/02/2020 10:01:20	120220	12022020	100120	192.29	12.625507	-57.170045	192.46	-1.090	0.010	1.860	192.32	-1.50	2.40	 	 	 	 	 	 	 	 	 	 	 	 	 	 	 	 	 	 	1581501680	8.28	15.33
12/02/2020 10:01:21	120220	12022020	100121	192.31	12.625468	-57.170062	192.41	-0.570	-0.800	2.240	192.27	-2.30	2.80	 	 	 	 	 	 	 	 	 	 	 	 	 	 	 	 	 	 	1581501681	9.11	16.87
12/02/2020 10:01:22	120220	12022020	100122	192.00	12.625428	-57.170077	192.13	0.050	-1.040	2.410	192.00	-2.40	2.90	 	 	 	 	 	 	 	 	 	 	 	 	 	 	 	 	 	 	1581501682	9.09	16.83
12/02/2020 10:01:23	120220	12022020	100123	191.77	12.625392	-57.170088	191.85	0.340	-0.570	2.330	191.73	-1.90	2.80	 	 	 	 	 	 	 	 	 	 	 	 	 	 	 	 	 	 	1581501683	8.44	15.63
12/02/2020 10:01:24	120220	12022020	100124	191.62	12.625357	-57.170098	191.76	0.210	0.170	2.090	191.62	-1.10	2.60	 	 	 	 	 	 	 	 	 	 	 	 	 	 	 	 	 	 	1581501684	7.70	14.26
12/02/2020 10:01:25	120220	12022020	100125	191.68	12.625323	-57.170107	191.83	-0.030	0.630	1.630	191.70	-0.80	2.10	 	 	 	 	 	 	 	 	 	 	 	 	 	 	 	 	 	 	1581501685	7.42	13.74
12/02/2020 10:01:26	120220	12022020	100126	191.73	12.625288	-57.170115	191.85	0.020	0.420	1.250	191.73	-1.10	1.80	 	 	 	 	 	 	 	 	 	 	 	 	 	 	 	 	 	 	1581501686	7.63	14.13
12/02/2020 10:01:27	120220	12022020	100127	191.66	12.625252	-57.170125	191.74	0.390	-0.320	1.080	191.66	-1.80	1.60	 	 	 	 	 	 	 	 	 	 	 	 	 	 	 	 	 	 	1581501687	8.27	15.32
12/02/2020 10:01:28	120220	12022020	100128	191.44	12.625212	-57.170133	191.50	0.720	-0.950	1.220	191.38	-2.40	1.80	 	 	 	 	 	 	 	 	 	 	 	 	 	 	 	 	 	 	1581501688	8.77	16.24
12/02/2020 10:01:29	120220	12022020	100129	191.09	12.625173	-57.170143	191.17	0.650	-0.940	1.670	191.04	-2.30	2.30	 	 	 	 	 	 	 	 	 	 	 	 	 	 	 	 	 	 	1581501689	8.60	15.93
12/02/2020 10:01:30	120220	12022020	100130	190.96	12.625137	-57.170153	191.15	0.110	-0.370	1.970	190.99	-1.70	2.50	 	 	 	 	 	 	 	 	 	 	 	 	 	 	 	 	 	 	1581501690	8.02	14.85
12/02/2020 10:01:31	120220	12022020	100131	191.25	12.625103	-57.170163	191.51	-0.590	0.170	2.220	191.34	-1.20	2.80	 	 	 	 	 	 	 	 	 	 	 	 	 	 	 	 	 	 	1581501691	7.51	13.91
12/02/2020 10:01:32	120220	12022020	100132	191.64	12.625070	-57.170177	191.85	-0.900	0.090	2.550	191.69	-1.40	3.10	 	 	 	 	 	 	 	 	 	 	 	 	 	 	 	 	 	 	1581501692	7.64	14.15
12/02/2020 10:01:33	120220	12022020	100133	191.73	12.625035	-57.170193	191.87	-0.500	-0.520	2.750	191.71	-2.00	3.30	 	 	 	 	 	 	 	 	 	 	 	 	 	 	 	 	 	 	1581501693	8.37	15.50
12/02/2020 10:01:34	120220	12022020	100134	191.50	12.624995	-57.170207	191.68	0.190	-1.020	2.710	191.50	-2.40	3.20	 	 	 	 	 	 	 	 	 	 	 	 	 	 	 	 	 	 	1581501694	8.96	16.59
12/02/2020 10:01:35	120220	12022020	100135	191.37	12.624955	-57.170217	191.52	0.480	-0.880	2.550	191.35	-2.20	3.10	 	 	 	 	 	 	 	 	 	 	 	 	 	 	 	 	 	 	1581501695	8.86	16.41
12/02/2020 10:01:36	120220	12022020	100136	191.32	12.624918	-57.170225	191.50	0.130	-0.220	2.340	191.33	-1.50	2.80	 	 	 	 	 	 	 	 	 	 	 	 	 	 	 	 	 	 	1581501696	8.19	15.17
12/02/2020 10:01:37	120220	12022020	100137	191.36	12.624883	-57.170233	191.52	-0.410	0.340	2.060	191.36	-1.00	2.60	 	 	 	 	 	 	 	 	 	 	 	 	 	 	 	 	 	 	1581501697	7.63	14.13
12/02/2020 10:01:38	120220	12022020	100138	191.37	12.624848	-57.170242	191.52	-0.610	0.410	1.780	191.37	-1.00	2.30	 	 	 	 	 	 	 	 	 	 	 	 	 	 	 	 	 	 	1581501698	7.79	14.43
12/02/2020 10:01:39	120220	12022020	100139	191.38	12.624812	-57.170253	191.54	-0.320	0.220	1.610	191.38	-1.20	2.10	 	 	 	 	 	 	 	 	 	 	 	 	 	 	 	 	 	 	1581501699	8.30	15.37
12/02/2020 10:01:40	120220	12022020	100140	191.50	12.624773	-57.170265	191.70	0.200	0.160	1.270	191.55	-1.20	1.70	 	 	 	 	 	 	 	 	 	 	 	 	 	 	 	 	 	 	1581501700	8.48	15.70
12/02/2020 10:01:41	120220	12022020	100141	191.78	12.624737	-57.170273	191.96	0.570	0.160	0.840	191.82	-1.30	1.40	 	 	 	 	 	 	 	 	 	 	 	 	 	 	 	 	 	 	1581501701	8.10	15.00
12/02/2020 10:01:42	120220	12022020	100142	191.84	12.624700	-57.170278	191.95	0.630	-0.210	0.970	191.81	-1.70	1.60	 	 	 	 	 	 	 	 	 	 	 	 	 	 	 	 	 	 	1581501702	7.88	14.59
12/02/2020 10:01:43	120220	12022020	100143	191.59	12.624663	-57.170287	191.69	0.470	-0.870	1.600	191.53	-2.30	2.20	 	 	 	 	 	 	 	 	 	 	 	 	 	 	 	 	 	 	1581501703	8.25	15.28
12/02/2020 10:01:44	120220	12022020	100144	191.38	12.624625	-57.170300	191.55	0.170	-1.110	2.380	191.36	-2.50	3.00	 	 	 	 	 	 	 	 	 	 	 	 	 	 	 	 	 	 	1581501704	8.63	15.98
12/02/2020 10:01:45	120220	12022020	100145	191.33	12.624588	-57.170313	191.53	-0.150	-0.780	3.120	191.33	-2.10	3.70	 	 	 	 	 	 	 	 	 	 	 	 	 	 	 	 	 	 	1581501705	8.35	15.46
12/02/2020 10:01:46	120220	12022020	100146	191.34	12.624555	-57.170330	191.57	-0.330	-0.190	3.310	191.36	-1.50	3.80	 	 	 	 	 	 	 	 	 	 	 	 	 	 	 	 	 	 	1581501706	7.95	14.72
12/02/2020 10:01:47	120220	12022020	100147	191.53	12.624522	-57.170345	191.77	-0.300	0.270	2.850	191.58	-1.10	3.30	 	 	 	 	 	 	 	 	 	 	 	 	 	 	 	 	 	 	1581501707	7.67	14.20
12/02/2020 10:01:48	120220	12022020	100148	191.73	12.624488	-57.170353	191.92	-0.040	0.170	2.080	191.75	-1.30	2.50	 	 	 	 	 	 	 	 	 	 	 	 	 	 	 	 	 	 	1581501708	7.70	14.26
12/02/2020 10:01:49	120220	12022020	100149	191.73	12.624450	-57.170360	191.86	0.310	-0.500	1.460	191.71	-2.00	1.90	 	 	 	 	 	 	 	 	 	 	 	 	 	 	 	 	 	 	1581501709	8.32	15.41
12/02/2020 10:01:50	120220	12022020	100150	191.60	12.624408	-57.170367	191.71	0.460	-1.010	1.300	191.56	-2.40	1.90	 	 	 	 	 	 	 	 	 	 	 	 	 	 	 	 	 	 	1581501710	8.93	16.54
12/02/2020 10:01:51	120220	12022020	100151	191.48	12.624368	-57.170373	191.64	0.210	-0.810	1.460	191.48	-2.10	2.00	 	 	 	 	 	 	 	 	 	 	 	 	 	 	 	 	 	 	1581501711	8.76	16.22
12/02/2020 10:01:52	120220	12022020	100152	191.57	12.624332	-57.170383	191.76	-0.280	-0.210	1.650	191.60	-1.50	2.20	 	 	 	 	 	 	 	 	 	 	 	 	 	 	 	 	 	 	1581501712	8.04	14.89
12/02/2020 10:01:53	120220	12022020	100153	191.66	12.624298	-57.170395	191.81	-0.590	0.050	2.030	191.65	-1.40	2.60	 	 	 	 	 	 	 	 	 	 	 	 	 	 	 	 	 	 	1581501713	7.75	14.35
12/02/2020 10:01:54	120220	12022020	100154	191.41	12.624262	-57.170408	191.58	-0.420	-0.180	2.540	191.41	-1.60	3.10	 	 	 	 	 	 	 	 	 	 	 	 	 	 	 	 	 	 	1581501714	8.30	15.37
12/02/2020 10:01:55	120220	12022020	100155	191.22	12.624223	-57.170423	191.40	-0.080	-0.300	2.720	191.21	-1.70	3.20	 	 	 	 	 	 	 	 	 	 	 	 	 	 	 	 	 	 	1581501715	8.89	16.46
12/02/2020 10:01:56	120220	12022020	100156	191.43	12.624185	-57.170433	191.61	-0.060	0.130	2.530	191.43	-1.20	3.00	 	 	 	 	 	 	 	 	 	 	 	 	 	 	 	 	 	 	1581501716	8.69	16.09
12/02/2020 10:01:57	120220	12022020	100157	191.80	12.624148	-57.170445	192.07	-0.320	0.760	2.160	191.89	-0.60	2.60	 	 	 	 	 	 	 	 	 	 	 	 	 	 	 	 	 	 	1581501717	7.88	14.59
12/02/2020 10:01:58	120220	12022020	100158	192.19	12.624117	-57.170455	192.40	-0.390	0.870	1.860	192.24	-0.60	2.40	 	 	 	 	 	 	 	 	 	 	 	 	 	 	 	 	 	 	1581501718	7.42	13.74
12/02/2020 10:01:59	120220	12022020	100159	192.37	12.624082	-57.170465	192.53	0.010	0.210	1.670	192.38	-1.30	2.20	 	 	 	 	 	 	 	 	 	 	 	 	 	 	 	 	 	 	1581501719	7.80	14.45
12/02/2020 10:02:00	120220	12022020	100200	192.29	12.624043	-57.170475	192.37	0.680	-0.870	1.660	192.24	-2.40	2.20	 	 	 	 	 	 	 	 	 	 	 	 	 	 	 	 	 	 	1581501720	8.48	15.70
12/02/2020 10:02:01	120220	12022020	100201	191.89	12.624003	-57.170485	191.92	1.160	-1.710	1.780	191.78	-3.20	2.30	1015.20	26.20	26.20	21.10	21.20	0.0	73.0	73.0	413.0	25.8	260.00	11.00	73.00	12.40	64	9083.0	27.6	27.5	1581501721	8.87	16.43
12/02/2020 10:02:02	120220	12022020	100202	191.29	12.623963	-57.170493	191.42	1.080	-1.740	1.960	191.29	-3.10	2.50	 	 	 	 	 	 	 	 	 	 	 	 	 	 	 	 	 	 	1581501722	8.79	16.28
12/02/2020 10:02:03	120220	12022020	100203	191.06	12.623927	-57.170502	191.18	0.440	-0.900	2.160	191.03	-2.10	2.70	 	 	 	 	 	 	 	 	 	 	 	 	 	 	 	 	 	 	1581501723	8.15	15.09
12/02/2020 10:02:04	120220	12022020	100204	191.09	12.623892	-57.170512	191.24	-0.390	0.170	2.240	191.09	-1.10	2.80	 	 	 	 	 	 	 	 	 	 	 	 	 	 	 	 	 	 	1581501724	7.49	13.87
12/02/2020 10:02:05	120220	12022020	100205	191.37	12.623860	-57.170523	191.62	-1.000	0.810	2.210	191.45	-0.60	2.70	 	 	 	 	 	 	 	 	 	 	 	 	 	 	 	 	 	 	1581501725	7.47	13.83
12/02/2020 10:02:06	120220	12022020	100206	191.83	12.623825	-57.170537	192.07	-1.110	0.750	2.210	191.91	-0.70	2.70	 	 	 	 	 	 	 	 	 	 	 	 	 	 	 	 	 	 	1581501726	8.01	14.83
12/02/2020 10:02:07	120220	12022020	100207	192.20	12.623788	-57.170552	192.38	-0.680	0.290	2.050	192.23	-1.20	2.50	 	 	 	 	 	 	 	 	 	 	 	 	 	 	 	 	 	 	1581501727	8.63	15.98
12/02/2020 10:02:08	120220	12022020	100208	192.27	12.623748	-57.170567	192.39	0.090	-0.260	1.640	192.27	-1.70	2.10	 	 	 	 	 	 	 	 	 	 	 	 	 	 	 	 	 	 	1581501728	8.80	16.30
12/02/2020 10:02:09	120220	12022020	100209	192.21	12.623710	-57.170575	192.31	0.740	-0.620	1.180	192.19	-2.10	1.70	 	 	 	 	 	 	 	 	 	 	 	 	 	 	 	 	 	 	1581501729	8.72	16.15
12/02/2020 10:02:10	120220	12022020	100210	192.11	12.623670	-57.170580	192.19	0.860	-0.740	0.980	192.08	-2.10	1.50	 	 	 	 	 	 	 	 	 	 	 	 	 	 	 	 	 	 	1581501730	8.50	15.74
12/02/2020 10:02:11	120220	12022020	100211	191.95	12.623632	-57.170583	192.05	0.400	-0.710	1.140	191.92	-2.10	1.70	 	 	 	 	 	 	 	 	 	 	 	 	 	 	 	 	 	 	1581501731	8.26	15.30
12/02/2020 10:02:12	120220	12022020	100212	191.77	12.623595	-57.170593	191.86	-0.270	-0.610	1.800	191.72	-2.00	2.40	 	 	 	 	 	 	 	 	 	 	 	 	 	 	 	 	 	 	1581501732	8.09	14.98
12/02/2020 10:02:13	120220	12022020	100213	191.50	12.623560	-57.170607	191.57	-0.670	-0.470	2.610	191.43	-1.80	3.20	 	 	 	 	 	 	 	 	 	 	 	 	 	 	 	 	 	 	1581501733	8.25	15.28
12/02/2020 10:02:14	120220	12022020	100214	191.10	12.623525	-57.170625	191.16	-0.580	-0.370	3.290	191.00	-1.80	3.90	 	 	 	 	 	 	 	 	 	 	 	 	 	 	 	 	 	 	1581501734	8.44	15.63
12/02/2020 10:02:15	120220	12022020	100215	190.64	12.623488	-57.170642	190.71	-0.160	-0.370	3.680	190.55	-1.80	4.20	 	 	 	 	 	 	 	 	 	 	 	 	 	 	 	 	 	 	1581501735	8.66	16.04
12/02/2020 10:02:16	120220	12022020	100216	190.36	12.623450	-57.170657	190.51	0.260	-0.190	3.550	190.34	-1.50	4.00	 	 	 	 	 	 	 	 	 	 	 	 	 	 	 	 	 	 	1581501736	8.80	16.30
12/02/2020 10:02:17	120220	12022020	100217	190.51	12.623412	-57.170667	190.76	0.330	0.480	2.910	190.61	-0.80	3.30	 	 	 	 	 	 	 	 	 	 	 	 	 	 	 	 	 	 	1581501737	8.47	15.69
12/02/2020 10:02:18	120220	12022020	100218	191.27	12.623377	-57.170673	191.60	-0.010	1.240	1.910	191.45	-0.10	2.30	 	 	 	 	 	 	 	 	 	 	 	 	 	 	 	 	 	 	1581501738	7.65	14.17
12/02/2020 10:02:19	120220	12022020	100219	192.27	12.623343	-57.170678	192.55	-0.370	1.110	0.990	192.43	-0.40	1.40	 	 	 	 	 	 	 	 	 	 	 	 	 	 	 	 	 	 	1581501739	7.20	13.33
12/02/2020 10:02:20	120220	12022020	100220	192.86	12.623308	-57.170685	192.99	-0.170	-0.230	0.600	192.89	-1.90	1.20	 	 	 	 	 	 	 	 	 	 	 	 	 	 	 	 	 	 	1581501740	7.84	14.52
12/02/2020 10:02:21	120220	12022020	100221	192.72	12.623267	-57.170695	192.72	0.570	-1.850	0.790	192.62	-3.40	1.40	 	 	 	 	 	 	 	 	 	 	 	 	 	 	 	 	 	 	1581501741	9.02	16.71
12/02/2020 10:02:22	120220	12022020	100222	192.23	12.623225	-57.170707	192.26	1.130	-2.350	1.280	192.15	-3.70	1.90	 	 	 	 	 	 	 	 	 	 	 	 	 	 	 	 	 	 	1581501742	9.42	17.45
12/02/2020 10:02:23	120220	12022020	100223	191.93	12.623187	-57.170715	192.02	0.870	-1.490	1.900	191.89	-2.70	2.50	 	 	 	 	 	 	 	 	 	 	 	 	 	 	 	 	 	 	1581501743	8.44	15.63
12/02/2020 10:02:24	120220	12022020	100224	191.76	12.623153	-57.170725	191.85	0.030	-0.260	2.530	191.71	-1.50	3.20	 	 	 	 	 	 	 	 	 	 	 	 	 	 	 	 	 	 	1581501744	7.34	13.59
12/02/2020 10:02:25	120220	12022020	100225	191.50	12.623122	-57.170737	191.60	-0.720	0.400	3.220	191.44	-1.00	3.80	 	 	 	 	 	 	 	 	 	 	 	 	 	 	 	 	 	 	1581501745	7.34	13.59
12/02/2020 10:02:26	120220	12022020	100226	191.25	12.623087	-57.170753	191.37	-0.990	0.360	3.690	191.21	-1.10	4.30	 	 	 	 	 	 	 	 	 	 	 	 	 	 	 	 	 	 	1581501746	8.27	15.32
12/02/2020 10:02:27	120220	12022020	100227	191.12	12.623048	-57.170770	191.26	-0.840	0.200	3.760	191.10	-1.20	4.20	 	 	 	 	 	 	 	 	 	 	 	 	 	 	 	 	 	 	1581501747	9.03	16.72
12/02/2020 10:02:28	120220	12022020	100228	191.11	12.623010	-57.170787	191.31	-0.510	0.230	3.330	191.15	-1.10	3.70	 	 	 	 	 	 	 	 	 	 	 	 	 	 	 	 	 	 	1581501748	8.96	16.59
12/02/2020 10:02:29	120220	12022020	100229	191.43	12.622972	-57.170798	191.68	-0.160	0.460	2.390	191.43	-0.90	2.80	 	 	 	 	 	 	 	 	 	 	 	 	 	 	 	 	 	 	1581501749	8.48	15.70
12/02/2020 10:02:30	120220	12022020	100230	192.11	12.622937	-57.170807	192.25	0.210	0.570	1.170	192.11	-0.90	1.50	 	 	 	 	 	 	 	 	 	 	 	 	 	 	 	 	 	 	1581501750	7.91	14.65
12/02/2020 10:02:31	120220	12022020	100231	192.52	12.622900	-57.170810	192.69	0.560	0.130	0.320	192.58	-1.40	0.80	 	 	 	 	 	 	 	 	 	 	 	 	 	 	 	 	 	 	1581501751	7.84	14.52
12/02/2020 10:02:32	120220	12022020	100232	192.56	12.622862	-57.170815	192.65	0.850	-0.890	0.360	192.56	-2.40	1.00	 	 	 	 	 	 	 	 	 	 	 	 	 	 	 	 	 	 	1581501752	8.30	15.37
12/02/2020 10:02:33	120220	12022020	100233	192.32	12.622822	-57.170823	192.38	0.910	-1.700	0.930	192.27	-3.10	1.60	 	 	 	 	 	 	 	 	 	 	 	 	 	 	 	 	 	 	1581501753	8.90	16.48
12/02/2020 10:02:34	120220	12022020	100234	192.15	12.622782	-57.170833	192.26	0.530	-1.440	1.850	192.13	-2.70	2.50	 	 	 	 	 	 	 	 	 	 	 	 	 	 	 	 	 	 	1581501754	8.79	16.28
12/02/2020 10:02:35	120220	12022020	100235	192.05	12.622748	-57.170848	192.15	-0.150	-0.430	2.920	192.01	-1.70	3.60	 	 	 	 	 	 	 	 	 	 	 	 	 	 	 	 	 	 	1581501755	7.86	14.56
12/02/2020 10:02:36	120220	12022020	100236	191.77	12.622717	-57.170865	191.86	-0.700	0.330	3.740	191.70	-1.00	4.30	 	 	 	 	 	 	 	 	 	 	 	 	 	 	 	 	 	 	1581501756	7.39	13.69
12/02/2020 10:02:37	120220	12022020	100237	191.47	12.622683	-57.170880	191.59	-0.900	0.420	4.050	191.43	-1.00	4.60	 	 	 	 	 	 	 	 	 	 	 	 	 	 	 	 	 	 	1581501757	7.90	14.63
12/02/2020 10:02:38	120220	12022020	100238	191.45	12.622647	-57.170897	191.62	-0.770	0.170	3.850	191.45	-1.30	4.30	 	 	 	 	 	 	 	 	 	 	 	 	 	 	 	 	 	 	1581501758	8.62	15.96
12/02/2020 10:02:39	120220	12022020	100239	191.72	12.622610	-57.170912	191.96	-0.410	0.060	3.010	191.72	-1.30	3.40	 	 	 	 	 	 	 	 	 	 	 	 	 	 	 	 	 	 	1581501759	8.76	16.22
12/02/2020 10:02:40	120220	12022020	100240	192.18	12.622573	-57.170923	192.38	0.100	0.130	1.780	192.27	-1.30	2.10	 	 	 	 	 	 	 	 	 	 	 	 	 	 	 	 	 	 	1581501760	8.21	15.20
12/02/2020 10:02:41	120220	12022020	100241	192.47	12.622537	-57.170928	192.58	0.670	-0.010	0.740	192.47	-1.50	1.20	 	 	 	 	 	 	 	 	 	 	 	 	 	 	 	 	 	 	1581501761	7.84	14.52
12/02/2020 10:02:42	120220	12022020	100242	192.37	12.622500	-57.170932	192.45	1.070	-0.500	0.310	192.37	-2.00	0.80	 	 	 	 	 	 	 	 	 	 	 	 	 	 	 	 	 	 	1581501762	8.08	14.96
12/02/2020 10:02:43	120220	12022020	100243	192.20	12.622460	-57.170935	192.23	1.020	-1.050	0.510	192.16	-2.50	1.10	 	 	 	 	 	 	 	 	 	 	 	 	 	 	 	 	 	 	1581501763	8.45	15.65
12/02/2020 10:02:44	120220	12022020	100244	192.00	12.622422	-57.170943	192.06	0.460	-1.220	1.240	191.97	-2.60	1.90	 	 	 	 	 	 	 	 	 	 	 	 	 	 	 	 	 	 	1581501764	8.52	15.78
12/02/2020 10:02:45	120220	12022020	100245	191.77	12.622385	-57.170957	191.84	-0.430	-0.850	2.420	191.71	-2.20	3.10	 	 	 	 	 	 	 	 	 	 	 	 	 	 	 	 	 	 	1581501765	8.27	15.32
12/02/2020 10:02:46	120220	12022020	100246	191.48	12.622352	-57.170973	191.58	-1.250	-0.220	3.670	191.42	-1.50	4.30	 	 	 	 	 	 	 	 	 	 	 	 	 	 	 	 	 	 	1581501766	8.10	15.00
12/02/2020 10:02:47	120220	12022020	100247	191.17	12.622320	-57.170997	191.29	-1.560	0.160	4.530	191.11	-1.20	5.10	 	 	 	 	 	 	 	 	 	 	 	 	 	 	 	 	 	 	1581501767	8.34	15.45
12/02/2020 10:02:48	120220	12022020	100248	190.88	12.622285	-57.171020	191.05	-1.130	0.320	4.750	190.88	-1.00	5.20	 	 	 	 	 	 	 	 	 	 	 	 	 	 	 	 	 	 	1581501768	8.83	16.35
12/02/2020 10:02:49	120220	12022020	100249	190.95	12.622250	-57.171040	191.17	-0.160	0.590	3.950	191.02	-0.80	4.30	 	 	 	 	 	 	 	 	 	 	 	 	 	 	 	 	 	 	1581501769	8.74	16.19
12/02/2020 10:02:50	120220	12022020	100250	191.42	12.622213	-57.171050	191.65	0.810	0.930	2.270	191.54	-0.40	2.50	 	 	 	 	 	 	 	 	 	 	 	 	 	 	 	 	 	 	1581501770	7.98	14.78
12/02/2020 10:02:51	120220	12022020	100251	192.03	12.622178	-57.171050	192.23	1.320	0.760	0.450	192.15	-0.70	0.80	 	 	 	 	 	 	 	 	 	 	 	 	 	 	 	 	 	 	1581501771	7.63	14.13
12/02/2020 10:02:52	120220	12022020	100252	192.51	12.622142	-57.171047	192.62	1.260	-0.200	-0.600	192.56	-1.80	-0.10	 	 	 	 	 	 	 	 	 	 	 	 	 	 	 	 	 	 	1581501772	8.08	14.96
12/02/2020 10:02:53	120220	12022020	100253	192.52	12.622102	-57.171047	192.50	0.890	-1.620	-0.260	192.52	-3.20	0.40	 	 	 	 	 	 	 	 	 	 	 	 	 	 	 	 	 	 	1581501773	8.48	15.70
12/02/2020 10:02:54	120220	12022020	100254	191.81	12.622062	-57.171057	191.89	0.450	-2.700	1.190	191.81	-4.20	2.00	 	 	 	 	 	 	 	 	 	 	 	 	 	 	 	 	 	 	1581501774	8.82	16.33
12/02/2020 10:02:55	120220	12022020	100255	191.17	12.622023	-57.171073	191.14	-0.030	-2.650	2.970	191.02	-3.90	3.70	 	 	 	 	 	 	 	 	 	 	 	 	 	 	 	 	 	 	1581501775	8.98	16.63
12/02/2020 10:02:56	120220	12022020	100256	190.56	12.621988	-57.171093	190.65	-0.700	-1.390	4.380	190.49	-2.50	5.00	 	 	 	 	 	 	 	 	 	 	 	 	 	 	 	 	 	 	1581501776	8.51	15.76
12/02/2020 10:02:57	120220	12022020	100257	190.28	12.621958	-57.171113	190.41	-1.440	0.230	5.130	190.24	-1.00	5.70	 	 	 	 	 	 	 	 	 	 	 	 	 	 	 	 	 	 	1581501777	7.85	14.54
12/02/2020 10:02:58	120220	12022020	100258	190.13	12.621928	-57.171133	190.29	-1.800	1.300	5.230	190.11	0.00	5.70	 	 	 	 	 	 	 	 	 	 	 	 	 	 	 	 	 	 	1581501778	7.83	14.50
12/02/2020 10:02:59	120220	12022020	100259	190.21	12.621893	-57.171152	190.45	-1.400	1.640	4.610	190.28	0.30	5.00	 	 	 	 	 	 	 	 	 	 	 	 	 	 	 	 	 	 	1581501779	8.29	15.35
12/02/2020 10:03:00	120220	12022020	100300	190.84	12.621857	-57.171167	191.00	-0.260	1.520	3.220	190.84	0.10	3.50	 	 	 	 	 	 	 	 	 	 	 	 	 	 	 	 	 	 	1581501780	8.47	15.69
12/02/2020 10:03:01	120220	12022020	100301	191.51	12.621818	-57.171173	191.81	1.020	1.020	1.470	191.70	-0.50	1.80	1015.20	26.10	26.10	20.90	21.00	0.0	73.0	73.0	421.0	25.8	261.00	12.60	75.00	13.90	70	9372.0	27.5	27.5	1581501781	8.37	15.50
12/02/2020 10:03:02	120220	12022020	100302	192.67	12.621780	-57.171173	192.77	1.690	0.220	0.130	192.67	-1.30	0.60	 	 	 	 	 	 	 	 	 	 	 	 	 	 	 	 	 	 	1581501782	8.40	15.56
12/02/2020 10:03:03	120220	12022020	100303	193.20	12.621742	-57.171173	193.34	1.560	-0.760	-0.100	193.26	-2.30	0.50	 	 	 	 	 	 	 	 	 	 	 	 	 	 	 	 	 	 	1581501783	8.15	15.09
12/02/2020 10:03:04	120220	12022020	100304	193.04	12.621707	-57.171180	193.13	1.080	-1.800	0.900	193.04	-3.30	1.60	 	 	 	 	 	 	 	 	 	 	 	 	 	 	 	 	 	 	1581501784	7.85	14.54
12/02/2020 10:03:05	120220	12022020	100305	192.43	12.621670	-57.171192	192.38	0.560	-2.280	2.420	192.43	-3.70	3.10	 	 	 	 	 	 	 	 	 	 	 	 	 	 	 	 	 	 	1581501785	8.04	14.89
12/02/2020 10:03:06	120220	12022020	100306	191.45	12.621637	-57.171208	191.60	-0.060	-1.890	3.750	191.45	-3.20	4.40	 	 	 	 	 	 	 	 	 	 	 	 	 	 	 	 	 	 	1581501786	7.97	14.76
12/02/2020 10:03:07	120220	12022020	100307	190.90	12.621605	-57.171225	190.94	-0.720	-1.120	4.690	190.78	-2.40	5.30	 	 	 	 	 	 	 	 	 	 	 	 	 	 	 	 	 	 	1581501787	7.71	14.28
12/02/2020 10:03:08	120220	12022020	100308	190.42	12.621573	-57.171245	190.53	-1.140	-0.410	5.100	190.37	-1.70	5.60	 	 	 	 	 	 	 	 	 	 	 	 	 	 	 	 	 	 	1581501788	7.96	14.74
12/02/2020 10:03:09	120220	12022020	100309	190.27	12.621540	-57.171263	190.44	-1.160	0.170	4.930	190.27	-1.10	5.40	 	 	 	 	 	 	 	 	 	 	 	 	 	 	 	 	 	 	1581501789	8.29	15.35
12/02/2020 10:03:10	120220	12022020	100310	190.34	12.621505	-57.171280	190.54	-0.820	0.600	4.380	190.38	-0.70	4.80	 	 	 	 	 	 	 	 	 	 	 	 	 	 	 	 	 	 	1581501790	8.35	15.46
12/02/2020 10:03:11	120220	12022020	100311	190.58	12.621468	-57.171293	190.80	-0.290	0.840	3.370	190.65	-0.50	3.70	 	 	 	 	 	 	 	 	 	 	 	 	 	 	 	 	 	 	1581501791	8.29	15.35
12/02/2020 10:03:12	120220	12022020	100312	191.21	12.621432	-57.171302	191.34	0.180	1.030	1.860	191.21	-0.30	2.20	 	 	 	 	 	 	 	 	 	 	 	 	 	 	 	 	 	 	1581501792	8.11	15.02
12/02/2020 10:03:13	120220	12022020	100313	191.87	12.621395	-57.171303	192.13	0.450	1.170	0.290	192.04	-0.20	0.70	 	 	 	 	 	 	 	 	 	 	 	 	 	 	 	 	 	 	1581501793	7.77	14.39
12/02/2020 10:03:14	120220	12022020	100314	192.72	12.621362	-57.171305	192.79	0.570	0.770	-0.600	192.72	-0.80	-0.10	 	 	 	 	 	 	 	 	 	 	 	 	 	 	 	 	 	 	1581501794	7.40	13.70
12/02/2020 10:03:15	120220	12022020	100315	192.86	12.621327	-57.171308	192.89	0.700	-0.450	-0.390	192.82	-2.10	0.30	 	 	 	 	 	 	 	 	 	 	 	 	 	 	 	 	 	 	1581501795	7.55	13.98
12/02/2020 10:03:16	120220	12022020	100316	192.17	12.621288	-57.171318	192.26	0.910	-1.900	0.930	192.17	-3.40	1.70	 	 	 	 	 	 	 	 	 	 	 	 	 	 	 	 	 	 	1581501796	8.20	15.19
12/02/2020 10:03:17	120220	12022020	100317	191.35	12.621252	-57.171333	191.27	0.970	-2.450	2.610	191.35	-3.80	3.30	 	 	 	 	 	 	 	 	 	 	 	 	 	 	 	 	 	 	1581501797	8.69	16.09
12/02/2020 10:03:18	120220	12022020	100318	190.39	12.621217	-57.171350	190.54	0.540	-1.730	3.920	190.39	-2.90	4.50	 	 	 	 	 	 	 	 	 	 	 	 	 	 	 	 	 	 	1581501798	8.18	15.15
12/02/2020 10:03:19	120220	12022020	100319	190.07	12.621187	-57.171365	190.17	-0.250	-0.540	4.550	190.02	-1.80	5.10	 	 	 	 	 	 	 	 	 	 	 	 	 	 	 	 	 	 	1581501799	7.30	13.52
12/02/2020 10:03:20	120220	12022020	100320	189.89	12.621157	-57.171380	190.05	-0.970	0.190	4.600	189.89	-1.20	5.10	 	 	 	 	 	 	 	 	 	 	 	 	 	 	 	 	 	 	1581501800	7.20	13.33
12/02/2020 10:03:21	120220	12022020	100321	189.87	12.621123	-57.171395	190.01	-1.210	0.200	4.330	189.86	-1.20	4.80	 	 	 	 	 	 	 	 	 	 	 	 	 	 	 	 	 	 	1581501801	7.87	14.58
12/02/2020 10:03:22	120220	12022020	100322	189.78	12.621085	-57.171410	189.92	-0.940	-0.070	3.850	189.78	-1.50	4.30	 	 	 	 	 	 	 	 	 	 	 	 	 	 	 	 	 	 	1581501802	8.65	16.02
12/02/2020 10:03:23	120220	12022020	100323	189.80	12.621047	-57.171423	189.97	-0.460	0.070	3.120	189.84	-1.30	3.50	 	 	 	 	 	 	 	 	 	 	 	 	 	 	 	 	 	 	1581501803	8.80	16.30
12/02/2020 10:03:24	120220	12022020	100324	190.20	12.621010	-57.171433	190.43	-0.090	0.680	1.990	190.32	-0.60	2.30	 	 	 	 	 	 	 	 	 	 	 	 	 	 	 	 	 	 	1581501804	8.11	15.02
12/02/2020 10:03:25	120220	12022020	100325	190.89	12.620977	-57.171438	191.11	0.160	1.160	0.810	191.03	-0.20	1.20	 	 	 	 	 	 	 	 	 	 	 	 	 	 	 	 	 	 	1581501805	7.24	13.41
12/02/2020 10:03:26	120220	12022020	100326	191.45	12.620945	-57.171442	191.51	0.470	0.770	0.170	191.45	-0.70	0.70	 	 	 	 	 	 	 	 	 	 	 	 	 	 	 	 	 	 	1581501806	7.12	13.19
12/02/2020 10:03:27	120220	12022020	100327	191.41	12.620908	-57.171445	191.42	0.870	-0.360	0.310	191.36	-1.90	0.90	 	 	 	 	 	 	 	 	 	 	 	 	 	 	 	 	 	 	1581501807	7.86	14.56
12/02/2020 10:03:28	120220	12022020	100328	191.23	12.620868	-57.171452	191.31	0.990	-1.210	0.950	191.21	-2.60	1.60	 	 	 	 	 	 	 	 	 	 	 	 	 	 	 	 	 	 	1581501808	8.51	15.76
12/02/2020 10:03:29	120220	12022020	100329	191.09	12.620832	-57.171462	191.17	0.590	-1.330	2.130	191.04	-2.70	2.90	 	 	 	 	 	 	 	 	 	 	 	 	 	 	 	 	 	 	1581501809	8.09	14.98
12/02/2020 10:03:30	120220	12022020	100330	190.69	12.620800	-57.171475	190.70	-0.050	-1.270	3.700	190.55	-2.70	4.40	 	 	 	 	 	 	 	 	 	 	 	 	 	 	 	 	 	 	1581501810	7.54	13.96
12/02/2020 10:03:31	120220	12022020	100331	189.84	12.620768	-57.171495	189.82	-0.420	-1.410	5.210	189.84	-2.80	5.90	 	 	 	 	 	 	 	 	 	 	 	 	 	 	 	 	 	 	1581501811	7.98	14.78
12/02/2020 10:03:32	120220	12022020	100332	188.92	12.620733	-57.171515	189.11	-0.460	-1.210	6.020	188.92	-2.50	6.60	 	 	 	 	 	 	 	 	 	 	 	 	 	 	 	 	 	 	1581501812	8.81	16.32
12/02/2020 10:03:33	120220	12022020	100333	188.74	12.620697	-57.171535	188.96	-0.380	-0.250	5.890	188.76	-1.40	6.30	 	 	 	 	 	 	 	 	 	 	 	 	 	 	 	 	 	 	1581501813	8.62	15.96
12/02/2020 10:03:34	120220	12022020	100334	189.04	12.620665	-57.171548	189.32	-0.290	1.010	4.820	189.14	-0.20	5.10	 	 	 	 	 	 	 	 	 	 	 	 	 	 	 	 	 	 	1581501814	7.58	14.04
12/02/2020 10:03:35	120220	12022020	100335	189.71	12.620633	-57.171555	189.98	-0.170	1.620	3.170	189.86	0.20	3.50	 	 	 	 	 	 	 	 	 	 	 	 	 	 	 	 	 	 	1581501815	6.90	12.78
12/02/2020 10:03:36	120220	12022020	100336	190.38	12.620600	-57.171557	190.57	0.020	1.030	1.720	190.47	-0.50	2.10	 	 	 	 	 	 	 	 	 	 	 	 	 	 	 	 	 	 	1581501816	7.37	13.65
12/02/2020 10:03:37	120220	12022020	100337	190.60	12.620560	-57.171558	190.66	0.290	-0.380	1.040	190.58	-2.00	1.50	 	 	 	 	 	 	 	 	 	 	 	 	 	 	 	 	 	 	1581501817	8.37	15.50
12/02/2020 10:03:38	120220	12022020	100338	190.45	12.620518	-57.171563	190.51	0.390	-1.400	1.100	190.41	-2.80	1.70	 	 	 	 	 	 	 	 	 	 	 	 	 	 	 	 	 	 	1581501818	8.99	16.65
12/02/2020 10:03:39	120220	12022020	100339	190.33	12.620480	-57.171573	190.43	0.160	-1.230	1.550	190.33	-2.50	2.10	 	 	 	 	 	 	 	 	 	 	 	 	 	 	 	 	 	 	1581501819	8.45	15.65
12/02/2020 10:03:40	120220	12022020	100340	190.39	12.620448	-57.171585	190.52	-0.200	-0.280	1.910	190.43	-1.50	2.40	 	 	 	 	 	 	 	 	 	 	 	 	 	 	 	 	 	 	1581501820	7.24	13.41
12/02/2020 10:03:41	120220	12022020	100341	190.57	12.620422	-57.171598	190.69	-0.280	0.280	1.870	190.60	-1.10	2.40	 	 	 	 	 	 	 	 	 	 	 	 	 	 	 	 	 	 	1581501821	6.61	12.24
12/02/2020 10:03:42	120220	12022020	100342	190.63	12.620390	-57.171608	190.68	0.170	-0.180	1.700	190.60	-1.70	2.20	 	 	 	 	 	 	 	 	 	 	 	 	 	 	 	 	 	 	1581501822	7.09	13.13
12/02/2020 10:03:43	120220	12022020	100343	190.45	12.620352	-57.171617	190.52	0.730	-1.090	1.740	190.42	-2.60	2.30	 	 	 	 	 	 	 	 	 	 	 	 	 	 	 	 	 	 	1581501823	8.30	15.37
12/02/2020 10:03:44	120220	12022020	100344	190.40	12.620312	-57.171625	190.51	0.680	-1.300	2.040	190.40	-2.60	2.60	 	 	 	 	 	 	 	 	 	 	 	 	 	 	 	 	 	 	1581501824	8.87	16.43
12/02/2020 10:03:45	120220	12022020	100345	190.40	12.620275	-57.171633	190.51	-0.120	-0.630	2.710	190.38	-1.90	3.30	 	 	 	 	 	 	 	 	 	 	 	 	 	 	 	 	 	 	1581501825	8.12	15.04
12/02/2020 10:03:46	120220	12022020	100346	190.15	12.620243	-57.171648	190.21	-0.990	0.100	3.600	190.08	-1.20	4.20	 	 	 	 	 	 	 	 	 	 	 	 	 	 	 	 	 	 	1581501826	7.46	13.82
12/02/2020 10:03:47	120220	12022020	100347	189.81	12.620212	-57.171667	189.92	-1.290	0.440	4.070	189.77	-0.90	4.60	 	 	 	 	 	 	 	 	 	 	 	 	 	 	 	 	 	 	1581501827	7.91	14.65
12/02/2020 10:03:48	120220	12022020	100348	189.71	12.620177	-57.171685	189.89	-0.900	0.550	3.920	189.73	-0.80	4.40	 	 	 	 	 	 	 	 	 	 	 	 	 	 	 	 	 	 	1581501828	8.34	15.45
12/02/2020 10:03:49	120220	12022020	100349	189.86	12.620142	-57.171700	190.06	-0.190	0.560	3.190	189.92	-0.80	3.60	 	 	 	 	 	 	 	 	 	 	 	 	 	 	 	 	 	 	1581501829	8.20	15.19
12/02/2020 10:03:50	120220	12022020	100350	190.26	12.620105	-57.171708	190.48	0.370	0.540	1.920	190.37	-0.90	2.30	 	 	 	 	 	 	 	 	 	 	 	 	 	 	 	 	 	 	1581501830	7.90	14.63
12/02/2020 10:03:51	120220	12022020	100351	190.88	12.620070	-57.171712	191.10	0.630	0.400	0.640	191.02	-1.00	1.00	 	 	 	 	 	 	 	 	 	 	 	 	 	 	 	 	 	 	1581501831	7.58	14.04
12/02/2020 10:03:52	120220	12022020	100352	191.45	12.620037	-57.171715	191.59	0.790	-0.090	-0.160	191.53	-1.60	0.30	 	 	 	 	 	 	 	 	 	 	 	 	 	 	 	 	 	 	1581501832	7.42	13.74
12/02/2020 10:03:53	120220	12022020	100353	191.54	12.620002	-57.171717	191.54	1.000	-1.070	-0.090	191.47	-2.60	0.60	 	 	 	 	 	 	 	 	 	 	 	 	 	 	 	 	 	 	1581501833	7.63	14.13
12/02/2020 10:03:54	120220	12022020	100354	190.98	12.619963	-57.171723	190.93	0.960	-2.000	1.100	190.83	-3.40	1.90	 	 	 	 	 	 	 	 	 	 	 	 	 	 	 	 	 	 	1581501834	8.23	15.24
12/02/2020 10:03:55	120220	12022020	100355	190.39	12.619925	-57.171735	190.45	0.330	-1.890	2.810	190.39	-3.10	3.60	 	 	 	 	 	 	 	 	 	 	 	 	 	 	 	 	 	 	1581501835	8.51	15.76
12/02/2020 10:03:56	120220	12022020	100356	190.04	12.619893	-57.171755	190.20	-0.670	-0.670	4.400	190.04	-1.90	5.10	 	 	 	 	 	 	 	 	 	 	 	 	 	 	 	 	 	 	1581501836	7.98	14.78
12/02/2020 10:03:57	120220	12022020	100357	189.78	12.619865	-57.171777	189.86	-1.300	0.440	5.550	189.69	-0.90	6.20	 	 	 	 	 	 	 	 	 	 	 	 	 	 	 	 	 	 	1581501837	7.56	14.00
12/02/2020 10:03:58	120220	12022020	100358	189.37	12.619837	-57.171798	189.49	-1.080	0.560	5.810	189.32	-0.80	6.30	 	 	 	 	 	 	 	 	 	 	 	 	 	 	 	 	 	 	1581501838	7.94	14.70
12/02/2020 10:03:59	120220	12022020	100359	189.19	12.619800	-57.171817	189.34	-0.340	0.200	5.080	189.18	-1.20	5.40	 	 	 	 	 	 	 	 	 	 	 	 	 	 	 	 	 	 	1581501839	8.56	15.85
12/02/2020 10:04:00	120220	12022020	100400	189.27	12.619762	-57.171827	189.45	0.310	-0.120	3.640	189.33	-1.50	3.90	 	 	 	 	 	 	 	 	 	 	 	 	 	 	 	 	 	 	1581501840	8.61	15.95
12/02/2020 10:04:01	120220	12022020	100401	189.63	12.619723	-57.171830	189.80	0.540	-0.170	1.970	189.71	-1.60	2.30	1015.00	26.00	26.10	20.60	20.70	0.0	72.0	72.0	429.0	25.8	266.00	12.30	79.00	13.20	78	9436.0	27.5	27.5	1581501841	8.26	15.30
12/02/2020 10:04:02	120220	12022020	100402	190.04	12.619687	-57.171832	190.10	0.480	-0.140	0.710	190.04	-1.50	1.10	 	 	 	 	 	 	 	 	 	 	 	 	 	 	 	 	 	 	1581501842	7.83	14.50
12/02/2020 10:04:03	120220	12022020	100403	190.19	12.619652	-57.171832	190.28	0.280	-0.230	0.290	190.22	-1.60	0.90	 	 	 	 	 	 	 	 	 	 	 	 	 	 	 	 	 	 	1581501843	7.66	14.19
12/02/2020 10:04:04	120220	12022020	100404	190.32	12.619615	-57.171837	190.40	-0.120	-0.320	0.800	190.32	-1.70	1.50	 	 	 	 	 	 	 	 	 	 	 	 	 	 	 	 	 	 	1581501844	7.69	14.24
12/02/2020 10:04:05	120220	12022020	100405	190.25	12.619582	-57.171850	190.30	-0.580	-0.230	1.850	190.21	-1.60	2.50	 	 	 	 	 	 	 	 	 	 	 	 	 	 	 	 	 	 	1581501845	7.71	14.28
12/02/2020 10:04:06	120220	12022020	100406	190.01	12.619550	-57.171868	190.07	-0.720	-0.000	2.790	189.95	-1.40	3.40	 	 	 	 	 	 	 	 	 	 	 	 	 	 	 	 	 	 	1581501846	7.83	14.50
12/02/2020 10:04:07	120220	12022020	100407	189.64	12.619518	-57.171887	189.67	-0.320	-0.060	3.390	189.64	-1.50	3.90	 	 	 	 	 	 	 	 	 	 	 	 	 	 	 	 	 	 	1581501847	7.83	14.50
12/02/2020 10:04:08	120220	12022020	100408	189.07	12.619485	-57.171903	189.20	0.460	-0.410	3.450	189.07	-1.80	3.90	 	 	 	 	 	 	 	 	 	 	 	 	 	 	 	 	 	 	1581501848	8.03	14.87
12/02/2020 10:04:09	120220	12022020	100409	188.75	12.619448	-57.171913	188.81	1.050	-0.640	2.960	188.75	-2.00	3.40	 	 	 	 	 	 	 	 	 	 	 	 	 	 	 	 	 	 	1581501849	8.14	15.08
12/02/2020 10:04:10	120220	12022020	100410	188.53	12.619412	-57.171918	188.63	0.980	-0.480	2.430	188.52	-1.80	2.90	 	 	 	 	 	 	 	 	 	 	 	 	 	 	 	 	 	 	1581501850	7.92	14.67
12/02/2020 10:04:11	120220	12022020	100411	188.59	12.619378	-57.171922	188.73	0.280	-0.060	2.200	188.63	-1.40	2.70	 	 	 	 	 	 	 	 	 	 	 	 	 	 	 	 	 	 	1581501851	7.45	13.80
12/02/2020 10:04:12	120220	12022020	100412	188.85	12.619345	-57.171928	188.95	-0.500	0.110	2.360	188.85	-1.30	2.90	 	 	 	 	 	 	 	 	 	 	 	 	 	 	 	 	 	 	1581501852	7.08	13.11
12/02/2020 10:04:13	120220	12022020	100413	188.88	12.619313	-57.171942	188.97	-0.790	-0.260	2.850	188.86	-1.70	3.40	 	 	 	 	 	 	 	 	 	 	 	 	 	 	 	 	 	 	1581501853	7.48	13.85
12/02/2020 10:04:14	120220	12022020	100414	188.71	12.619278	-57.171958	188.78	-0.440	-0.870	3.200	188.66	-2.30	3.70	 	 	 	 	 	 	 	 	 	 	 	 	 	 	 	 	 	 	1581501854	8.28	15.33
12/02/2020 10:04:15	120220	12022020	100415	188.48	12.619242	-57.171973	188.55	0.110	-1.090	3.110	188.43	-2.40	3.60	 	 	 	 	 	 	 	 	 	 	 	 	 	 	 	 	 	 	1581501855	8.56	15.85
12/02/2020 10:04:16	120220	12022020	100416	188.19	12.619205	-57.171983	188.30	0.360	-0.740	2.840	188.19	-2.00	3.30	 	 	 	 	 	 	 	 	 	 	 	 	 	 	 	 	 	 	1581501856	8.07	14.95
12/02/2020 10:04:17	120220	12022020	100417	188.08	12.619172	-57.171992	188.17	0.150	-0.070	2.490	188.07	-1.40	3.00	 	 	 	 	 	 	 	 	 	 	 	 	 	 	 	 	 	 	1581501857	7.54	13.96
12/02/2020 10:04:18	120220	12022020	100418	188.09	12.619138	-57.171997	188.21	-0.240	0.510	2.250	188.11	-0.80	2.80	 	 	 	 	 	 	 	 	 	 	 	 	 	 	 	 	 	 	1581501858	7.27	13.46
12/02/2020 10:04:19	120220	12022020	100419	188.22	12.619105	-57.172003	188.34	-0.470	0.720	2.110	188.25	-0.70	2.60	 	 	 	 	 	 	 	 	 	 	 	 	 	 	 	 	 	 	1581501859	7.34	13.59
12/02/2020 10:04:20	120220	12022020	100420	188.29	12.619070	-57.172012	188.39	-0.400	0.430	2.140	188.29	-1.00	2.70	 	 	 	 	 	 	 	 	 	 	 	 	 	 	 	 	 	 	1581501860	7.66	14.19
12/02/2020 10:04:21	120220	12022020	100421	188.30	12.619033	-57.172022	188.41	-0.080	-0.060	2.280	188.30	-1.50	2.80	 	 	 	 	 	 	 	 	 	 	 	 	 	 	 	 	 	 	1581501861	8.06	14.93
12/02/2020 10:04:22	120220	12022020	100422	188.38	12.618997	-57.172032	188.49	0.300	-0.390	2.250	188.39	-1.80	2.80	 	 	 	 	 	 	 	 	 	 	 	 	 	 	 	 	 	 	1581501862	8.08	14.96
12/02/2020 10:04:23	120220	12022020	100423	188.34	12.618962	-57.172040	188.41	0.530	-0.620	2.290	188.30	-2.00	2.80	 	 	 	 	 	 	 	 	 	 	 	 	 	 	 	 	 	 	1581501863	7.73	14.32
12/02/2020 10:04:24	120220	12022020	100424	188.05	12.618928	-57.172048	188.16	0.520	-0.800	2.490	188.05	-2.20	3.00	 	 	 	 	 	 	 	 	 	 	 	 	 	 	 	 	 	 	1581501864	7.62	14.11
12/02/2020 10:04:25	120220	12022020	100425	187.86	12.618893	-57.172057	187.92	0.310	-0.730	2.700	187.81	-2.10	3.20	 	 	 	 	 	 	 	 	 	 	 	 	 	 	 	 	 	 	1581501865	7.65	14.17
12/02/2020 10:04:26	120220	12022020	100426	187.65	12.618860	-57.172065	187.76	-0.030	-0.400	2.860	187.65	-1.70	3.40	 	 	 	 	 	 	 	 	 	 	 	 	 	 	 	 	 	 	1581501866	7.52	13.93
12/02/2020 10:04:27	120220	12022020	100427	187.64	12.618827	-57.172075	187.77	-0.350	-0.160	2.950	187.65	-1.50	3.50	 	 	 	 	 	 	 	 	 	 	 	 	 	 	 	 	 	 	1581501867	7.38	13.67
12/02/2020 10:04:28	120220	12022020	100428	187.73	12.618792	-57.172087	187.84	-0.480	-0.250	2.910	187.73	-1.70	3.40	 	 	 	 	 	 	 	 	 	 	 	 	 	 	 	 	 	 	1581501868	7.63	14.13
12/02/2020 10:04:29	120220	12022020	100429	187.72	12.618757	-57.172097	187.81	-0.300	-0.490	2.710	187.71	-1.90	3.20	 	 	 	 	 	 	 	 	 	 	 	 	 	 	 	 	 	 	1581501869	8.04	14.89
12/02/2020 10:04:30	120220	12022020	100430	187.66	12.618720	-57.172107	187.76	0.030	-0.440	2.310	187.67	-1.80	2.70	 	 	 	 	 	 	 	 	 	 	 	 	 	 	 	 	 	 	1581501870	8.24	15.26
12/02/2020 10:04:31	120220	12022020	100431	187.79	12.618683	-57.172113	187.92	0.180	-0.030	1.810	187.85	-1.40	2.30	 	 	 	 	 	 	 	 	 	 	 	 	 	 	 	 	 	 	1581501871	7.87	14.58
12/02/2020 10:04:32	120220	12022020	100432	188.07	12.618650	-57.172118	188.18	0.020	0.310	1.490	188.10	-1.10	2.00	 	 	 	 	 	 	 	 	 	 	 	 	 	 	 	 	 	 	1581501872	7.42	13.74
12/02/2020 10:04:33	120220	12022020	100433	188.14	12.618615	-57.172123	188.18	-0.200	0.190	1.570	188.11	-1.30	2.10	 	 	 	 	 	 	 	 	 	 	 	 	 	 	 	 	 	 	1581501873	7.39	13.69
12/02/2020 10:04:34	120220	12022020	100434	187.97	12.618580	-57.172130	188.02	-0.220	-0.260	1.950	187.93	-1.70	2.50	 	 	 	 	 	 	 	 	 	 	 	 	 	 	 	 	 	 	1581501874	7.87	14.58
12/02/2020 10:04:35	120220	12022020	100435	187.88	12.618543	-57.172142	187.98	-0.110	-0.500	2.420	187.88	-1.90	3.00	 	 	 	 	 	 	 	 	 	 	 	 	 	 	 	 	 	 	1581501875	8.25	15.28
12/02/2020 10:04:36	120220	12022020	100436	188.00	12.618507	-57.172153	188.16	-0.070	-0.250	2.670	188.05	-1.60	3.20	 	 	 	 	 	 	 	 	 	 	 	 	 	 	 	 	 	 	1581501876	8.03	14.87
12/02/2020 10:04:37	120220	12022020	100437	188.30	12.618475	-57.172163	188.45	-0.120	0.090	2.610	188.35	-1.30	3.10	 	 	 	 	 	 	 	 	 	 	 	 	 	 	 	 	 	 	1581501877	7.39	13.69
12/02/2020 10:04:38	120220	12022020	100438	188.42	12.618442	-57.172173	188.51	0.000	-0.130	2.430	188.42	-1.60	2.90	 	 	 	 	 	 	 	 	 	 	 	 	 	 	 	 	 	 	1581501878	7.19	13.32
12/02/2020 10:04:39	120220	12022020	100439	188.15	12.618407	-57.172182	188.15	0.460	-0.900	2.370	188.07	-2.40	2.90	 	 	 	 	 	 	 	 	 	 	 	 	 	 	 	 	 	 	1581501879	7.81	14.46
12/02/2020 10:04:40	120220	12022020	100440	187.70	12.618368	-57.172188	187.79	0.770	-1.290	2.350	187.70	-2.60	2.90	 	 	 	 	 	 	 	 	 	 	 	 	 	 	 	 	 	 	1581501880	8.57	15.87
12/02/2020 10:04:41	120220	12022020	100441	187.66	12.618330	-57.172195	187.77	0.460	-0.650	2.440	187.68	-1.90	3.00	 	 	 	 	 	 	 	 	 	 	 	 	 	 	 	 	 	 	1581501881	8.26	15.30
12/02/2020 10:04:42	120220	12022020	100442	187.84	12.618297	-57.172202	188.00	-0.330	0.340	2.790	187.90	-0.90	3.30	 	 	 	 	 	 	 	 	 	 	 	 	 	 	 	 	 	 	1581501882	7.22	13.37
12/02/2020 10:04:43	120220	12022020	100443	188.15	12.618267	-57.172213	188.32	-0.980	0.740	3.120	188.21	-0.70	3.60	 	 	 	 	 	 	 	 	 	 	 	 	 	 	 	 	 	 	1581501883	6.97	12.91
12/02/2020 10:04:44	120220	12022020	100444	188.33	12.618233	-57.172227	188.46	-0.970	0.330	3.270	188.33	-1.20	3.80	 	 	 	 	 	 	 	 	 	 	 	 	 	 	 	 	 	 	1581501884	7.70	14.26
12/02/2020 10:04:45	120220	12022020	100445	188.21	12.618197	-57.172242	188.30	-0.310	-0.260	3.280	188.17	-1.70	3.70	 	 	 	 	 	 	 	 	 	 	 	 	 	 	 	 	 	 	1581501885	8.50	15.74
12/02/2020 10:04:46	120220	12022020	100446	188.15	12.618158	-57.172253	188.31	0.440	-0.240	2.750	188.19	-1.60	3.10	 	 	 	 	 	 	 	 	 	 	 	 	 	 	 	 	 	 	1581501886	8.46	15.67
12/02/2020 10:04:47	120220	12022020	100447	188.41	12.618123	-57.172258	188.56	0.790	-0.060	1.800	188.46	-1.50	2.20	 	 	 	 	 	 	 	 	 	 	 	 	 	 	 	 	 	 	1581501887	7.55	13.98
12/02/2020 10:04:48	120220	12022020	100448	188.46	12.618090	-57.172260	188.50	0.720	-0.540	1.290	188.42	-2.00	1.80	 	 	 	 	 	 	 	 	 	 	 	 	 	 	 	 	 	 	1581501888	7.35	13.61
12/02/2020 10:04:49	120220	12022020	100449	188.21	12.618052	-57.172263	188.24	0.420	-1.250	1.590	188.16	-2.70	2.20	 	 	 	 	 	 	 	 	 	 	 	 	 	 	 	 	 	 	1581501889	8.13	15.06
12/02/2020 10:04:50	120220	12022020	100450	187.99	12.618013	-57.172273	188.04	0.060	-1.260	2.160	187.95	-2.60	2.70	 	 	 	 	 	 	 	 	 	 	 	 	 	 	 	 	 	 	1581501890	8.44	15.63
12/02/2020 10:04:51	120220	12022020	100451	187.83	12.617978	-57.172283	187.90	-0.260	-0.540	2.600	187.81	-1.80	3.20	 	 	 	 	 	 	 	 	 	 	 	 	 	 	 	 	 	 	1581501891	7.86	14.56
12/02/2020 10:04:52	120220	12022020	100452	187.72	12.617947	-57.172295	187.82	-0.490	0.190	2.960	187.71	-1.10	3.50	 	 	 	 	 	 	 	 	 	 	 	 	 	 	 	 	 	 	1581501892	7.28	13.48
12/02/2020 10:04:53	120220	12022020	100453	187.70	12.617913	-57.172305	187.82	-0.660	0.440	3.140	187.71	-0.90	3.60	 	 	 	 	 	 	 	 	 	 	 	 	 	 	 	 	 	 	1581501893	7.44	13.78
12/02/2020 10:04:54	120220	12022020	100454	187.77	12.617878	-57.172315	187.88	-0.680	0.180	3.070	187.77	-1.30	3.50	 	 	 	 	 	 	 	 	 	 	 	 	 	 	 	 	 	 	1581501894	7.93	14.69
12/02/2020 10:04:55	120220	12022020	100455	187.72	12.617842	-57.172327	187.81	-0.430	-0.380	3.070	187.69	-1.80	3.60	 	 	 	 	 	 	 	 	 	 	 	 	 	 	 	 	 	 	1581501895	8.38	15.52
12/02/2020 10:04:56	120220	12022020	100456	187.50	12.617802	-57.172338	187.56	0.050	-0.710	3.020	187.44	-2.10	3.50	 	 	 	 	 	 	 	 	 	 	 	 	 	 	 	 	 	 	1581501896	8.66	16.04
12/02/2020 10:04:57	120220	12022020	100457	187.24	12.617765	-57.172348	187.31	0.490	-0.520	2.650	187.20	-1.80	3.10	 	 	 	 	 	 	 	 	 	 	 	 	 	 	 	 	 	 	1581501897	8.40	15.56
12/02/2020 10:04:58	120220	12022020	100458	187.09	12.617728	-57.172353	187.19	0.570	0.050	2.140	187.09	-1.30	2.60	 	 	 	 	 	 	 	 	 	 	 	 	 	 	 	 	 	 	1581501898	7.77	14.39
12/02/2020 10:04:59	120220	12022020	100459	187.08	12.617695	-57.172358	187.17	0.340	0.450	1.780	187.07	-0.90	2.20	 	 	 	 	 	 	 	 	 	 	 	 	 	 	 	 	 	 	1581501899	7.31	13.54
12/02/2020 10:05:00	120220	12022020	100500	187.07	12.617662	-57.172363	187.15	0.070	0.480	1.660	187.07	-0.90	2.20	 	 	 	 	 	 	 	 	 	 	 	 	 	 	 	 	 	 	1581501900	7.40	13.70
12/02/2020 10:05:01	120220	12022020	100501	187.16	12.617627	-57.172370	187.31	-0.120	0.330	1.730	187.21	-1.10	2.20	1015.10	25.90	25.90	20.40	20.50	1.0	71.0	71.0	432.0	25.8	264.00	12.70	75.00	13.80	93	8697.0	27.5	27.5	1581501901	7.68	14.22
12/02/2020 10:05:02	120220	12022020	100502	187.64	12.617592	-57.172380	187.74	-0.200	0.190	1.810	187.64	-1.20	2.30	 	 	 	 	 	 	 	 	 	 	 	 	 	 	 	 	 	 	1581501902	7.67	14.20
12/02/2020 10:05:03	120220	12022020	100503	188.03	12.617558	-57.172390	188.20	-0.090	-0.270	1.810	188.10	-1.70	2.30	 	 	 	 	 	 	 	 	 	 	 	 	 	 	 	 	 	 	1581501903	7.48	13.85
12/02/2020 10:05:04	120220	12022020	100504	188.24	12.617523	-57.172400	188.32	0.310	-1.230	1.910	188.23	-2.70	2.40	 	 	 	 	 	 	 	 	 	 	 	 	 	 	 	 	 	 	1581501904	7.80	14.45
12/02/2020 10:05:05	120220	12022020	100505	187.98	12.617485	-57.172408	187.98	0.770	-2.160	2.330	187.87	-3.60	2.90	 	 	 	 	 	 	 	 	 	 	 	 	 	 	 	 	 	 	1581501905	8.46	15.67
12/02/2020 10:05:06	120220	12022020	100506	187.36	12.617445	-57.172417	187.48	0.730	-2.140	2.880	187.36	-3.40	3.40	 	 	 	 	 	 	 	 	 	 	 	 	 	 	 	 	 	 	1581501906	8.74	16.19
12/02/2020 10:05:07	120220	12022020	100507	187.11	12.617408	-57.172423	187.20	-0.020	-1.070	3.240	187.07	-2.30	3.80	 	 	 	 	 	 	 	 	 	 	 	 	 	 	 	 	 	 	1581501907	8.12	15.04
12/02/2020 10:05:08	120220	12022020	100508	186.91	12.617375	-57.172433	187.04	-0.970	0.210	3.460	186.91	-1.00	4.00	 	 	 	 	 	 	 	 	 	 	 	 	 	 	 	 	 	 	1581501908	7.36	13.63
12/02/2020 10:05:09	120220	12022020	100509	186.90	12.617342	-57.172445	187.06	-1.350	0.990	3.440	186.92	-0.30	3.90	 	 	 	 	 	 	 	 	 	 	 	 	 	 	 	 	 	 	1581501909	7.48	13.85
12/02/2020 10:05:10	120220	12022020	100510	187.08	12.617307	-57.172457	187.28	-1.010	1.180	3.180	187.13	-0.20	3.60	 	 	 	 	 	 	 	 	 	 	 	 	 	 	 	 	 	 	1581501910	7.98	14.78
12/02/2020 10:05:11	120220	12022020	100511	187.29	12.617270	-57.172467	187.46	-0.340	0.940	2.870	187.29	-0.50	3.30	 	 	 	 	 	 	 	 	 	 	 	 	 	 	 	 	 	 	1581501911	8.32	15.41
12/02/2020 10:05:12	120220	12022020	100512	187.42	12.617232	-57.172475	187.57	0.210	0.490	2.700	187.42	-0.90	3.20	 	 	 	 	 	 	 	 	 	 	 	 	 	 	 	 	 	 	1581501912	8.46	15.67
12/02/2020 10:05:13	120220	12022020	100513	187.61	12.617193	-57.172483	187.81	0.470	0.190	2.480	187.61	-1.20	2.90	 	 	 	 	 	 	 	 	 	 	 	 	 	 	 	 	 	 	1581501913	8.33	15.43
12/02/2020 10:05:14	120220	12022020	100514	188.02	12.617157	-57.172490	188.24	0.550	-0.020	2.120	188.10	-1.40	2.60	 	 	 	 	 	 	 	 	 	 	 	 	 	 	 	 	 	 	1581501914	7.82	14.48
12/02/2020 10:05:15	120220	12022020	100515	188.43	12.617123	-57.172497	188.62	0.600	-0.360	1.810	188.49	-1.80	2.30	 	 	 	 	 	 	 	 	 	 	 	 	 	 	 	 	 	 	1581501915	7.48	13.85
12/02/2020 10:05:16	120220	12022020	100516	188.68	12.617088	-57.172502	188.79	0.550	-0.890	1.650	188.68	-2.30	2.20	 	 	 	 	 	 	 	 	 	 	 	 	 	 	 	 	 	 	1581501916	7.53	13.95
12/02/2020 10:05:17	120220	12022020	100517	188.64	12.617053	-57.172508	188.71	0.300	-1.430	1.840	188.60	-2.90	2.40	 	 	 	 	 	 	 	 	 	 	 	 	 	 	 	 	 	 	1581501917	7.77	14.39
12/02/2020 10:05:18	120220	12022020	100518	188.26	12.617017	-57.172518	188.37	-0.000	-1.790	2.420	188.26	-3.20	3.00	 	 	 	 	 	 	 	 	 	 	 	 	 	 	 	 	 	 	1581501918	7.99	14.80
12/02/2020 10:05:19	120220	12022020	100519	187.83	12.616982	-57.172532	187.84	-0.080	-1.700	3.010	187.72	-3.00	3.60	 	 	 	 	 	 	 	 	 	 	 	 	 	 	 	 	 	 	1581501919	8.27	15.32
12/02/2020 10:05:20	120220	12022020	100520	187.26	12.616945	-57.172545	187.37	0.110	-0.970	3.370	187.26	-2.20	3.90	 	 	 	 	 	 	 	 	 	 	 	 	 	 	 	 	 	 	1581501920	8.21	15.20
12/02/2020 10:05:21	120220	12022020	100521	187.20	12.616910	-57.172553	187.36	0.210	0.130	3.240	187.24	-1.10	3.70	 	 	 	 	 	 	 	 	 	 	 	 	 	 	 	 	 	 	1581501921	7.88	14.59
12/02/2020 10:05:22	120220	12022020	100522	187.76	12.616875	-57.172560	187.89	-0.130	1.070	2.790	187.76	-0.20	3.20	 	 	 	 	 	 	 	 	 	 	 	 	 	 	 	 	 	 	1581501922	7.60	14.08
12/02/2020 10:05:23	120220	12022020	100523	188.42	12.616840	-57.172563	188.72	-0.780	1.410	2.410	188.58	0.00	2.90	 	 	 	 	 	 	 	 	 	 	 	 	 	 	 	 	 	 	1581501923	7.56	14.00
12/02/2020 10:05:24	120220	12022020	100524	188.99	12.616805	-57.172572	189.15	-1.160	0.900	2.520	189.02	-0.60	3.10	 	 	 	 	 	 	 	 	 	 	 	 	 	 	 	 	 	 	1581501924	7.80	14.45
12/02/2020 10:05:25	120220	12022020	100525	188.76	12.616767	-57.172585	188.78	-0.770	-0.330	3.200	188.76	-1.90	3.80	 	 	 	 	 	 	 	 	 	 	 	 	 	 	 	 	 	 	1581501925	8.56	15.85
12/02/2020 10:05:26	120220	12022020	100526	188.05	12.616727	-57.172602	188.09	0.150	-1.260	3.610	187.94	-2.70	4.10	 	 	 	 	 	 	 	 	 	 	 	 	 	 	 	 	 	 	1581501926	9.35	17.32
12/02/2020 10:05:27	120220	12022020	100527	187.70	12.616687	-57.172613	187.88	0.740	-0.930	3.240	187.72	-2.20	3.60	 	 	 	 	 	 	 	 	 	 	 	 	 	 	 	 	 	 	1581501927	8.89	16.46
12/02/2020 10:05:28	120220	12022020	100528	188.07	12.616653	-57.172620	188.34	0.610	0.200	2.240	188.21	-1.00	2.60	 	 	 	 	 	 	 	 	 	 	 	 	 	 	 	 	 	 	1581501928	7.33	13.58
12/02/2020 10:05:29	120220	12022020	100529	188.78	12.616623	-57.172623	188.99	0.200	0.820	1.090	188.90	-0.60	1.50	 	 	 	 	 	 	 	 	 	 	 	 	 	 	 	 	 	 	1581501929	6.28	11.63
12/02/2020 10:05:30	120220	12022020	100530	189.15	12.616593	-57.172627	189.23	0.250	0.070	0.620	189.15	-1.50	1.10	 	 	 	 	 	 	 	 	 	 	 	 	 	 	 	 	 	 	1581501930	6.79	12.58
12/02/2020 10:05:31	120220	12022020	100531	188.99	12.616555	-57.172632	189.03	0.760	-1.350	0.950	188.94	-2.90	1.50	 	 	 	 	 	 	 	 	 	 	 	 	 	 	 	 	 	 	1581501931	8.34	15.45
12/02/2020 10:05:32	120220	12022020	100532	188.88	12.616512	-57.172640	189.01	0.890	-1.780	1.660	188.90	-3.10	2.30	 	 	 	 	 	 	 	 	 	 	 	 	 	 	 	 	 	 	1581501932	9.19	17.02
12/02/2020 10:05:33	120220	12022020	100533	189.13	12.616475	-57.172652	189.33	0.200	-0.890	2.490	189.21	-2.10	3.10	 	 	 	 	 	 	 	 	 	 	 	 	 	 	 	 	 	 	1581501933	8.23	15.24
12/02/2020 10:05:34	120220	12022020	100534	189.57	12.616445	-57.172665	189.70	-0.760	0.130	3.150	189.57	-1.10	3.70	 	 	 	 	 	 	 	 	 	 	 	 	 	 	 	 	 	 	1581501934	7.15	13.24
12/02/2020 10:05:35	120220	12022020	100535	189.61	12.616415	-57.172682	189.71	-1.100	0.330	3.590	189.61	-1.10	4.10	 	 	 	 	 	 	 	 	 	 	 	 	 	 	 	 	 	 	1581501935	7.30	13.52
12/02/2020 10:05:36	120220	12022020	100536	189.37	12.616380	-57.172697	189.44	-0.600	-0.100	3.650	189.31	-1.50	4.10	 	 	 	 	 	 	 	 	 	 	 	 	 	 	 	 	 	 	1581501936	8.24	15.26
12/02/2020 10:05:37	120220	12022020	100537	189.17	12.616340	-57.172707	189.29	0.040	-0.390	3.350	189.16	-1.80	3.80	 	 	 	 	 	 	 	 	 	 	 	 	 	 	 	 	 	 	1581501937	8.81	16.32
12/02/2020 10:05:38	120220	12022020	100538	189.22	12.616302	-57.172715	189.37	0.180	-0.190	2.870	189.26	-1.50	3.30	 	 	 	 	 	 	 	 	 	 	 	 	 	 	 	 	 	 	1581501938	8.51	15.76
12/02/2020 10:05:39	120220	12022020	100539	189.45	12.616267	-57.172723	189.62	-0.150	0.240	2.340	189.51	-1.10	2.80	 	 	 	 	 	 	 	 	 	 	 	 	 	 	 	 	 	 	1581501939	7.84	14.52
12/02/2020 10:05:40	120220	12022020	100540	189.79	12.616232	-57.172733	189.95	-0.400	0.590	1.810	189.86	-0.80	2.30	 	 	 	 	 	 	 	 	 	 	 	 	 	 	 	 	 	 	1581501940	7.47	13.83
12/02/2020 10:05:41	120220	12022020	100541	190.13	12.616200	-57.172743	190.25	-0.120	0.580	1.310	190.18	-0.80	1.80	 	 	 	 	 	 	 	 	 	 	 	 	 	 	 	 	 	 	1581501941	7.38	13.67
12/02/2020 10:05:42	120220	12022020	100542	190.28	12.616165	-57.172752	190.34	0.590	0.010	0.940	190.28	-1.50	1.40	 	 	 	 	 	 	 	 	 	 	 	 	 	 	 	 	 	 	1581501942	7.58	14.04
12/02/2020 10:05:43	120220	12022020	100543	190.16	12.616128	-57.172757	190.18	1.160	-0.790	0.890	190.11	-2.30	1.40	 	 	 	 	 	 	 	 	 	 	 	 	 	 	 	 	 	 	1581501943	8.12	15.04
12/02/2020 10:05:44	120220	12022020	100544	189.87	12.616090	-57.172763	189.88	1.070	-1.280	1.260	189.80	-2.70	1.80	 	 	 	 	 	 	 	 	 	 	 	 	 	 	 	 	 	 	1581501944	8.37	15.50
12/02/2020 10:05:45	120220	12022020	100545	189.56	12.616053	-57.172772	189.63	0.310	-1.170	1.960	189.52	-2.50	2.60	 	 	 	 	 	 	 	 	 	 	 	 	 	 	 	 	 	 	1581501945	8.11	15.02
12/02/2020 10:05:46	120220	12022020	100546	189.47	12.616018	-57.172785	189.60	-0.630	-0.620	2.830	189.48	-1.90	3.40	 	 	 	 	 	 	 	 	 	 	 	 	 	 	 	 	 	 	1581501946	7.81	14.46
12/02/2020 10:05:47	120220	12022020	100547	189.53	12.615987	-57.172802	189.66	-1.120	-0.060	3.440	189.53	-1.40	4.00	 	 	 	 	 	 	 	 	 	 	 	 	 	 	 	 	 	 	1581501947	7.78	14.41
12/02/2020 10:05:48	120220	12022020	100548	189.58	12.615955	-57.172820	189.70	-0.890	0.080	3.440	189.59	-1.30	3.90	 	 	 	 	 	 	 	 	 	 	 	 	 	 	 	 	 	 	1581501948	7.95	14.72
12/02/2020 10:05:49	120220	12022020	100549	189.56	12.615920	-57.172835	189.65	-0.160	-0.230	2.950	189.56	-1.70	3.40	 	 	 	 	 	 	 	 	 	 	 	 	 	 	 	 	 	 	1581501949	8.22	15.22
12/02/2020 10:05:50	120220	12022020	100550	189.38	12.615880	-57.172843	189.47	0.570	-0.590	2.270	189.38	-2.00	2.70	 	 	 	 	 	 	 	 	 	 	 	 	 	 	 	 	 	 	1581501950	8.58	15.89
12/02/2020 10:05:51	120220	12022020	100551	189.21	12.615840	-57.172848	189.25	0.770	-0.520	1.680	189.17	-1.80	2.10	 	 	 	 	 	 	 	 	 	 	 	 	 	 	 	 	 	 	1581501951	8.62	15.96
12/02/2020 10:05:52	120220	12022020	100552	189.08	12.615803	-57.172850	189.16	0.340	0.050	1.330	189.09	-1.20	1.80	 	 	 	 	 	 	 	 	 	 	 	 	 	 	 	 	 	 	1581501952	8.13	15.06
12/02/2020 10:05:53	120220	12022020	100553	189.23	12.615768	-57.172855	189.36	-0.370	0.730	1.230	189.28	-0.60	1.80	 	 	 	 	 	 	 	 	 	 	 	 	 	 	 	 	 	 	1581501953	7.48	13.85
12/02/2020 10:05:54	120220	12022020	100554	189.52	12.615737	-57.172865	189.66	-0.810	0.990	1.540	189.57	-0.40	2.10	 	 	 	 	 	 	 	 	 	 	 	 	 	 	 	 	 	 	1581501954	7.25	13.43
12/02/2020 10:05:55	120220	12022020	100555	189.80	12.615703	-57.172878	189.96	-0.670	0.640	1.950	189.86	-0.80	2.50	 	 	 	 	 	 	 	 	 	 	 	 	 	 	 	 	 	 	1581501955	7.68	14.22
12/02/2020 10:05:56	120220	12022020	100556	190.03	12.615668	-57.172893	190.15	-0.050	-0.120	2.200	190.03	-1.60	2.70	 	 	 	 	 	 	 	 	 	 	 	 	 	 	 	 	 	 	1581501956	8.14	15.08
12/02/2020 10:05:57	120220	12022020	100557	190.12	12.615632	-57.172907	190.24	0.650	-0.960	2.170	190.13	-2.40	2.70	 	 	 	 	 	 	 	 	 	 	 	 	 	 	 	 	 	 	1581501957	8.36	15.48
12/02/2020 10:05:58	120220	12022020	100558	190.09	12.615593	-57.172917	190.16	1.080	-1.530	2.070	190.05	-2.90	2.60	 	 	 	 	 	 	 	 	 	 	 	 	 	 	 	 	 	 	1581501958	8.30	15.37
12/02/2020 10:05:59	120220	12022020	100559	189.80	12.615557	-57.172923	189.82	1.060	-1.620	2.060	189.72	-2.90	2.60	 	 	 	 	 	 	 	 	 	 	 	 	 	 	 	 	 	 	1581501959	8.12	15.04
12/02/2020 10:06:00	120220	12022020	100600	189.43	12.615520	-57.172928	189.47	0.550	-1.100	2.120	189.36	-2.40	2.60	 	 	 	 	 	 	 	 	 	 	 	 	 	 	 	 	 	 	1581501960	7.88	14.59
12/02/2020 10:06:01	120220	12022020	100601	189.18	12.615487	-57.172937	189.24	-0.150	-0.330	2.150	189.18	-1.60	2.70	1015.20	26.00	26.10	20.80	20.80	1.0	73.0	72.0	430.0	25.8	266.00	11.10	75.00	12.00	115	9559.0	27.5	27.5	1581501961	7.52	13.93
12/02/2020 10:06:02	120220	12022020	100602	189.06	12.615453	-57.172947	189.17	-0.640	0.180	2.330	189.06	-1.10	2.90	 	 	 	 	 	 	 	 	 	 	 	 	 	 	 	 	 	 	1581501962	7.55	13.98
12/02/2020 10:06:03	120220	12022020	100603	189.17	12.615417	-57.172958	189.35	-0.810	0.380	2.510	189.17	-1.00	3.00	 	 	 	 	 	 	 	 	 	 	 	 	 	 	 	 	 	 	1581501963	8.05	14.91
12/02/2020 10:06:04	120220	12022020	100604	189.55	12.615380	-57.172970	189.76	-0.800	0.450	2.510	189.64	-0.90	3.00	 	 	 	 	 	 	 	 	 	 	 	 	 	 	 	 	 	 	1581501964	8.34	15.45
12/02/2020 10:06:05	120220	12022020	100605	190.03	12.615343	-57.172983	190.24	-0.670	0.440	2.340	190.12	-1.00	2.80	 	 	 	 	 	 	 	 	 	 	 	 	 	 	 	 	 	 	1581501965	8.28	15.33
12/02/2020 10:06:06	120220	12022020	100606	190.38	12.615308	-57.172995	190.54	-0.350	0.250	2.100	190.43	-1.20	2.60	 	 	 	 	 	 	 	 	 	 	 	 	 	 	 	 	 	 	1581501966	8.14	15.08
12/02/2020 10:06:07	120220	12022020	100607	190.58	12.615272	-57.173003	190.71	0.120	0.010	1.700	190.62	-1.40	2.20	 	 	 	 	 	 	 	 	 	 	 	 	 	 	 	 	 	 	1581501967	8.14	15.08
12/02/2020 10:06:08	120220	12022020	100608	190.91	12.615235	-57.173010	191.00	0.480	-0.090	1.130	190.91	-1.50	1.60	 	 	 	 	 	 	 	 	 	 	 	 	 	 	 	 	 	 	1581501968	8.04	14.89
12/02/2020 10:06:09	120220	12022020	100609	191.15	12.615198	-57.173015	191.27	0.560	-0.240	0.780	191.18	-1.70	1.30	 	 	 	 	 	 	 	 	 	 	 	 	 	 	 	 	 	 	1581501969	7.75	14.35
12/02/2020 10:06:10	120220	12022020	100610	190.94	12.615163	-57.173020	191.02	0.470	-0.760	1.270	190.94	-2.20	1.90	 	 	 	 	 	 	 	 	 	 	 	 	 	 	 	 	 	 	1581501970	7.68	14.22
12/02/2020 10:06:11	120220	12022020	100611	190.28	12.615127	-57.173032	190.20	0.450	-1.440	2.340	190.09	-2.90	3.00	 	 	 	 	 	 	 	 	 	 	 	 	 	 	 	 	 	 	1581501971	8.21	15.20
12/02/2020 10:06:12	120220	12022020	100612	189.24	12.615088	-57.173047	189.36	0.500	-1.420	3.210	189.24	-2.70	3.80	 	 	 	 	 	 	 	 	 	 	 	 	 	 	 	 	 	 	1581501972	8.73	16.17
12/02/2020 10:06:13	120220	12022020	100613	188.97	12.615053	-57.173060	189.13	0.360	-0.380	3.410	188.97	-1.60	3.90	 	 	 	 	 	 	 	 	 	 	 	 	 	 	 	 	 	 	1581501973	8.22	15.22
12/02/2020 10:06:14	120220	12022020	100614	189.48	12.615022	-57.173070	189.62	-0.070	0.780	2.960	189.48	-0.50	3.40	 	 	 	 	 	 	 	 	 	 	 	 	 	 	 	 	 	 	1581501974	7.19	13.32
12/02/2020 10:06:15	120220	12022020	100615	190.05	12.614990	-57.173078	190.29	-0.470	0.920	2.320	190.17	-0.50	2.80	 	 	 	 	 	 	 	 	 	 	 	 	 	 	 	 	 	 	1581501975	6.96	12.89
12/02/2020 10:06:16	120220	12022020	100616	190.48	12.614953	-57.173088	190.63	-0.430	0.050	1.950	190.53	-1.40	2.40	 	 	 	 	 	 	 	 	 	 	 	 	 	 	 	 	 	 	1581501976	7.97	14.76
12/02/2020 10:06:17	120220	12022020	100617	190.75	12.614913	-57.173098	190.91	-0.160	-0.630	1.780	190.81	-2.00	2.30	 	 	 	 	 	 	 	 	 	 	 	 	 	 	 	 	 	 	1581501977	8.94	16.56
12/02/2020 10:06:18	120220	12022020	100618	191.03	12.614875	-57.173108	191.12	-0.050	-0.720	1.880	191.03	-2.10	2.40	 	 	 	 	 	 	 	 	 	 	 	 	 	 	 	 	 	 	1581501978	8.54	15.82
12/02/2020 10:06:19	120220	12022020	100619	190.98	12.614840	-57.173118	191.03	-0.170	-0.790	2.180	190.93	-2.20	2.70	 	 	 	 	 	 	 	 	 	 	 	 	 	 	 	 	 	 	1581501979	7.92	14.67
12/02/2020 10:06:20	120220	12022020	100620	190.58	12.614803	-57.173130	190.67	-0.320	-0.870	2.520	190.58	-2.20	3.10	 	 	 	 	 	 	 	 	 	 	 	 	 	 	 	 	 	 	1581501980	8.10	15.00
12/02/2020 10:06:21	120220	12022020	100621	190.36	12.614767	-57.173142	190.42	-0.330	-0.530	2.570	190.33	-1.80	3.00	 	 	 	 	 	 	 	 	 	 	 	 	 	 	 	 	 	 	1581501981	8.31	15.39
12/02/2020 10:06:22	120220	12022020	100622	190.27	12.614732	-57.173153	190.36	-0.100	0.160	2.220	190.27	-1.10	2.70	 	 	 	 	 	 	 	 	 	 	 	 	 	 	 	 	 	 	1581501982	7.85	14.54
12/02/2020 10:06:23	120220	12022020	100623	190.24	12.614698	-57.173162	190.29	0.340	0.460	1.790	190.22	-0.90	2.30	 	 	 	 	 	 	 	 	 	 	 	 	 	 	 	 	 	 	1581501983	7.47	13.83
12/02/2020 10:06:24	120220	12022020	100624	190.17	12.614662	-57.173167	190.23	0.640	0.190	1.550	190.16	-1.20	2.10	 	 	 	 	 	 	 	 	 	 	 	 	 	 	 	 	 	 	1581501984	7.94	14.70
12/02/2020 10:06:25	120220	12022020	100625	190.14	12.614623	-57.173173	190.21	0.530	-0.280	1.850	190.14	-1.70	2.50	 	 	 	 	 	 	 	 	 	 	 	 	 	 	 	 	 	 	1581501985	8.48	15.70
12/02/2020 10:06:26	120220	12022020	100626	190.19	12.614583	-57.173183	190.29	0.040	-0.500	2.610	190.19	-1.80	3.20	 	 	 	 	 	 	 	 	 	 	 	 	 	 	 	 	 	 	1581501986	8.57	15.87
12/02/2020 10:06:27	120220	12022020	100627	190.26	12.614548	-57.173198	190.38	-0.480	-0.240	3.410	190.27	-1.50	4.00	 	 	 	 	 	 	 	 	 	 	 	 	 	 	 	 	 	 	1581501987	8.29	15.35
12/02/2020 10:06:28	120220	12022020	100628	190.33	12.614515	-57.173215	190.47	-0.670	0.110	3.750	190.36	-1.20	4.20	 	 	 	 	 	 	 	 	 	 	 	 	 	 	 	 	 	 	1581501988	7.90	14.63
12/02/2020 10:06:29	120220	12022020	100629	190.47	12.614483	-57.173230	190.60	-0.420	0.080	3.390	190.50	-1.30	3.80	 	 	 	 	 	 	 	 	 	 	 	 	 	 	 	 	 	 	1581501989	7.74	14.33
12/02/2020 10:06:30	120220	12022020	100630	190.60	12.614448	-57.173240	190.70	0.090	-0.330	2.630	190.61	-1.80	3.00	 	 	 	 	 	 	 	 	 	 	 	 	 	 	 	 	 	 	1581501990	7.94	14.70
12/02/2020 10:06:31	120220	12022020	100631	190.61	12.614410	-57.173248	190.67	0.550	-0.790	1.780	190.59	-2.20	2.20	 	 	 	 	 	 	 	 	 	 	 	 	 	 	 	 	 	 	1581501991	8.26	15.30
12/02/2020 10:06:32	120220	12022020	100632	190.44	12.614372	-57.173252	190.50	0.670	-1.000	1.190	190.44	-2.40	1.70	 	 	 	 	 	 	 	 	 	 	 	 	 	 	 	 	 	 	1581501992	8.37	15.50
12/02/2020 10:06:33	120220	12022020	100633	190.32	12.614333	-57.173257	190.37	0.430	-0.860	1.060	190.31	-2.20	1.60	 	 	 	 	 	 	 	 	 	 	 	 	 	 	 	 	 	 	1581501993	8.22	15.22
12/02/2020 10:06:34	120220	12022020	100634	190.40	12.614297	-57.173265	190.47	0.040	-0.380	1.160	190.40	-1.70	1.70	 	 	 	 	 	 	 	 	 	 	 	 	 	 	 	 	 	 	1581501994	7.99	14.80
12/02/2020 10:06:35	120220	12022020	100635	190.59	12.614262	-57.173273	190.72	-0.310	0.190	1.420	190.65	-1.10	2.00	 	 	 	 	 	 	 	 	 	 	 	 	 	 	 	 	 	 	1581501995	7.74	14.33
12/02/2020 10:06:36	120220	12022020	100636	190.84	12.614228	-57.173285	190.96	-0.510	0.470	1.850	190.88	-0.90	2.40	 	 	 	 	 	 	 	 	 	 	 	 	 	 	 	 	 	 	1581501996	7.73	14.32
12/02/2020 10:06:37	120220	12022020	100637	190.87	12.614193	-57.173298	190.91	-0.480	0.270	2.430	190.82	-1.20	3.00	 	 	 	 	 	 	 	 	 	 	 	 	 	 	 	 	 	 	1581501997	8.03	14.87
12/02/2020 10:06:38	120220	12022020	100638	190.45	12.614157	-57.173313	190.45	-0.210	-0.180	3.040	190.33	-1.60	3.60	 	 	 	 	 	 	 	 	 	 	 	 	 	 	 	 	 	 	1581501998	8.51	15.76
12/02/2020 10:06:39	120220	12022020	100639	190.02	12.614118	-57.173327	190.12	0.080	-0.320	3.240	190.02	-1.70	3.70	 	 	 	 	 	 	 	 	 	 	 	 	 	 	 	 	 	 	1581501999	8.72	16.15
12/02/2020 10:06:40	120220	12022020	100640	190.11	12.614082	-57.173338	190.31	0.170	-0.080	2.800	190.19	-1.40	3.20	 	 	 	 	 	 	 	 	 	 	 	 	 	 	 	 	 	 	1581502000	8.19	15.17
12/02/2020 10:06:41	120220	12022020	100641	190.50	12.614047	-57.173345	190.66	0.140	-0.070	2.160	190.55	-1.50	2.60	 	 	 	 	 	 	 	 	 	 	 	 	 	 	 	 	 	 	1581502001	7.55	13.98
12/02/2020 10:06:42	120220	12022020	100642	190.56	12.614012	-57.173352	190.61	0.260	-0.700	1.920	190.52	-2.20	2.40	 	 	 	 	 	 	 	 	 	 	 	 	 	 	 	 	 	 	1581502002	7.80	14.45
12/02/2020 10:06:43	120220	12022020	100643	190.16	12.613972	-57.173362	190.17	0.490	-1.350	2.110	190.06	-2.70	2.70	 	 	 	 	 	 	 	 	 	 	 	 	 	 	 	 	 	 	1581502003	8.60	15.93
12/02/2020 10:06:44	120220	12022020	100644	189.88	12.613932	-57.173372	190.00	0.330	-1.080	2.420	189.88	-2.30	3.00	 	 	 	 	 	 	 	 	 	 	 	 	 	 	 	 	 	 	1581502004	8.81	16.32
12/02/2020 10:06:45	120220	12022020	100645	190.11	12.613897	-57.173382	190.31	-0.360	0.020	2.650	190.21	-1.20	3.20	 	 	 	 	 	 	 	 	 	 	 	 	 	 	 	 	 	 	1581502005	7.92	14.67
12/02/2020 10:06:46	120220	12022020	100646	190.69	12.613867	-57.173395	190.77	-1.040	0.920	2.590	190.69	-0.40	3.10	 	 	 	 	 	 	 	 	 	 	 	 	 	 	 	 	 	 	1581502006	7.12	13.19
12/02/2020 10:06:47	120220	12022020	100647	190.91	12.613835	-57.173410	191.01	-1.030	0.700	2.440	190.94	-0.80	2.90	 	 	 	 	 	 	 	 	 	 	 	 	 	 	 	 	 	 	1581502007	7.37	13.65
12/02/2020 10:06:48	120220	12022020	100648	190.98	12.613798	-57.173423	191.04	-0.210	-0.210	2.150	190.97	-1.70	2.60	 	 	 	 	 	 	 	 	 	 	 	 	 	 	 	 	 	 	1581502008	8.49	15.72
12/02/2020 10:06:49	120220	12022020	100649	190.99	12.613757	-57.173433	191.09	0.740	-0.780	1.710	191.01	-2.20	2.20	 	 	 	 	 	 	 	 	 	 	 	 	 	 	 	 	 	 	1581502009	9.06	16.78
12/02/2020 10:06:50	120220	12022020	100650	191.17	12.613717	-57.173438	191.25	0.980	-0.690	1.520	191.17	-2.00	2.10	 	 	 	 	 	 	 	 	 	 	 	 	 	 	 	 	 	 	1581502010	8.61	15.95
12/02/2020 10:06:51	120220	12022020	100651	191.22	12.613682	-57.173443	191.30	0.390	-0.310	1.940	191.22	-1.60	2.60	 	 	 	 	 	 	 	 	 	 	 	 	 	 	 	 	 	 	1581502011	7.82	14.48
12/02/2020 10:06:52	120220	12022020	100652	191.02	12.613648	-57.173455	191.05	-0.380	-0.060	2.820	190.94	-1.40	3.50	 	 	 	 	 	 	 	 	 	 	 	 	 	 	 	 	 	 	1581502012	7.55	13.98
12/02/2020 10:06:53	120220	12022020	100653	190.60	12.613615	-57.173472	190.65	-0.630	0.040	3.670	190.60	-1.30	4.20	 	 	 	 	 	 	 	 	 	 	 	 	 	 	 	 	 	 	1581502013	7.98	14.78
12/02/2020 10:06:54	120220	12022020	100654	190.27	12.613580	-57.173488	190.35	-0.180	0.040	3.860	190.23	-1.30	4.30	 	 	 	 	 	 	 	 	 	 	 	 	 	 	 	 	 	 	1581502014	8.25	15.28
12/02/2020 10:06:55	120220	12022020	100655	190.16	12.613545	-57.173502	190.27	0.470	-0.140	3.260	190.16	-1.50	3.70	 	 	 	 	 	 	 	 	 	 	 	 	 	 	 	 	 	 	1581502015	8.13	15.06
12/02/2020 10:06:56	120220	12022020	100656	190.20	12.613508	-57.173510	190.29	0.690	-0.460	2.510	190.21	-1.90	2.90	 	 	 	 	 	 	 	 	 	 	 	 	 	 	 	 	 	 	1581502016	8.17	15.13
12/02/2020 10:06:57	120220	12022020	100657	190.20	12.613470	-57.173517	190.25	0.360	-0.670	2.090	190.18	-2.00	2.60	 	 	 	 	 	 	 	 	 	 	 	 	 	 	 	 	 	 	1581502017	8.19	15.17
12/02/2020 10:06:58	120220	12022020	100658	190.11	12.613433	-57.173525	190.18	-0.160	-0.540	1.950	190.11	-1.90	2.50	 	 	 	 	 	 	 	 	 	 	 	 	 	 	 	 	 	 	1581502018	8.00	14.82
12/02/2020 10:06:59	120220	12022020	100659	190.10	12.613400	-57.173535	190.16	-0.470	-0.190	2.030	190.10	-1.50	2.60	 	 	 	 	 	 	 	 	 	 	 	 	 	 	 	 	 	 	1581502019	7.69	14.24
12/02/2020 10:07:00	120220	12022020	100700	190.02	12.613367	-57.173547	190.08	-0.360	-0.140	2.240	190.02	-1.50	2.80	 	 	 	 	 	 	 	 	 	 	 	 	 	 	 	 	 	 	1581502020	7.62	14.11
12/02/2020 10:07:01	120220	12022020	100701	189.98	12.613330	-57.173558	190.05	-0.040	-0.350	2.280	189.98	-1.70	2.80	1015.20	26.10	26.10	21.10	21.10	1.0	74.0	74.0	427.0	25.8	266.00	10.80	76.00	11.80	143	8975.0	27.5	27.5	1581502021	8.09	14.98
12/02/2020 10:07:02	120220	12022020	100702	190.10	12.613293	-57.173570	190.18	0.120	-0.410	2.230	190.10	-1.80	2.70	 	 	 	 	 	 	 	 	 	 	 	 	 	 	 	 	 	 	1581502022	8.35	15.46
12/02/2020 10:07:03	120220	12022020	100703	190.33	12.613257	-57.173578	190.47	0.060	-0.230	1.950	190.33	-1.60	2.40	 	 	 	 	 	 	 	 	 	 	 	 	 	 	 	 	 	 	1581502023	8.14	15.08
12/02/2020 10:07:04	120220	12022020	100704	190.63	12.613222	-57.173587	190.68	-0.030	-0.080	1.600	190.63	-1.40	2.10	 	 	 	 	 	 	 	 	 	 	 	 	 	 	 	 	 	 	1581502024	7.77	14.39
12/02/2020 10:07:05	120220	12022020	100705	190.55	12.613185	-57.173593	190.56	-0.000	-0.310	1.730	190.49	-1.70	2.30	 	 	 	 	 	 	 	 	 	 	 	 	 	 	 	 	 	 	1581502025	7.82	14.48
12/02/2020 10:07:06	120220	12022020	100706	190.27	12.613148	-57.173602	190.31	-0.030	-0.590	2.210	190.22	-2.00	2.80	 	 	 	 	 	 	 	 	 	 	 	 	 	 	 	 	 	 	1581502026	8.31	15.39
12/02/2020 10:07:07	120220	12022020	100707	190.02	12.613110	-57.173613	190.04	-0.250	-0.480	2.670	189.95	-1.80	3.20	 	 	 	 	 	 	 	 	 	 	 	 	 	 	 	 	 	 	1581502027	8.40	15.56
12/02/2020 10:07:08	120220	12022020	100708	189.69	12.613075	-57.173627	189.71	-0.450	-0.140	2.990	189.63	-1.40	3.50	 	 	 	 	 	 	 	 	 	 	 	 	 	 	 	 	 	 	1581502028	8.04	14.89
12/02/2020 10:07:09	120220	12022020	100709	189.47	12.613042	-57.173642	189.55	-0.400	0.100	3.010	189.45	-1.20	3.50	 	 	 	 	 	 	 	 	 	 	 	 	 	 	 	 	 	 	1581502029	7.92	14.67
12/02/2020 10:07:10	120220	12022020	100710	189.49	12.613007	-57.173653	189.62	-0.060	0.160	2.720	189.53	-1.20	3.20	 	 	 	 	 	 	 	 	 	 	 	 	 	 	 	 	 	 	1581502030	8.00	14.82
12/02/2020 10:07:11	120220	12022020	100711	189.73	12.612970	-57.173663	189.88	0.390	0.240	2.210	189.80	-1.10	2.60	 	 	 	 	 	 	 	 	 	 	 	 	 	 	 	 	 	 	1581502031	8.09	14.98
12/02/2020 10:07:12	120220	12022020	100712	190.20	12.612935	-57.173672	190.26	0.690	0.380	1.600	190.20	-1.00	2.00	 	 	 	 	 	 	 	 	 	 	 	 	 	 	 	 	 	 	1581502032	7.86	14.56
12/02/2020 10:07:13	120220	12022020	100713	190.48	12.612898	-57.173677	190.59	0.710	0.200	1.150	190.53	-1.20	1.70	 	 	 	 	 	 	 	 	 	 	 	 	 	 	 	 	 	 	1581502033	7.60	14.08
12/02/2020 10:07:14	120220	12022020	100714	190.63	12.612863	-57.173680	190.69	0.460	-0.520	1.270	190.63	-2.00	1.90	 	 	 	 	 	 	 	 	 	 	 	 	 	 	 	 	 	 	1581502034	7.83	14.50
12/02/2020 10:07:15	120220	12022020	100715	190.70	12.612825	-57.173690	190.79	0.010	-1.250	1.780	190.70	-2.70	2.40	 	 	 	 	 	 	 	 	 	 	 	 	 	 	 	 	 	 	1581502035	8.34	15.45
12/02/2020 10:07:16	120220	12022020	100716	190.73	12.612788	-57.173703	190.80	-0.420	-1.500	2.480	190.71	-2.80	3.10	 	 	 	 	 	 	 	 	 	 	 	 	 	 	 	 	 	 	1581502036	8.45	15.65
12/02/2020 10:07:17	120220	12022020	100717	190.49	12.612753	-57.173720	190.50	-0.570	-1.290	3.260	190.40	-2.60	3.90	 	 	 	 	 	 	 	 	 	 	 	 	 	 	 	 	 	 	1581502037	8.21	15.20
12/02/2020 10:07:18	120220	12022020	100718	189.95	12.612720	-57.173737	189.94	-0.320	-0.950	3.760	189.83	-2.30	4.30	 	 	 	 	 	 	 	 	 	 	 	 	 	 	 	 	 	 	1581502038	8.09	14.98
12/02/2020 10:07:19	120220	12022020	100719	189.42	12.612683	-57.173750	189.48	0.080	-0.550	3.610	189.36	-1.80	4.10	 	 	 	 	 	 	 	 	 	 	 	 	 	 	 	 	 	 	1581502039	8.21	15.20
12/02/2020 10:07:20	120220	12022020	100720	189.39	12.612647	-57.173757	189.59	0.120	0.140	3.000	189.47	-1.10	3.40	 	 	 	 	 	 	 	 	 	 	 	 	 	 	 	 	 	 	1581502040	8.28	15.33
12/02/2020 10:07:21	120220	12022020	100721	189.91	12.612610	-57.173762	190.13	-0.240	0.820	2.270	190.03	-0.50	2.70	 	 	 	 	 	 	 	 	 	 	 	 	 	 	 	 	 	 	1581502041	7.92	14.67
12/02/2020 10:07:22	120220	12022020	100722	190.48	12.612575	-57.173768	190.56	-0.560	0.940	1.780	190.48	-0.50	2.30	 	 	 	 	 	 	 	 	 	 	 	 	 	 	 	 	 	 	1581502042	7.72	14.30
12/02/2020 10:07:23	120220	12022020	100723	190.56	12.612537	-57.173777	190.64	-0.450	0.390	1.850	190.56	-1.10	2.40	 	 	 	 	 	 	 	 	 	 	 	 	 	 	 	 	 	 	1581502043	8.18	15.15
12/02/2020 10:07:24	120220	12022020	100724	190.54	12.612498	-57.173788	190.64	-0.060	-0.150	2.220	190.54	-1.50	2.80	 	 	 	 	 	 	 	 	 	 	 	 	 	 	 	 	 	 	1581502044	8.76	16.22
12/02/2020 10:07:25	120220	12022020	100725	190.58	12.612460	-57.173802	190.69	0.240	-0.160	2.410	190.59	-1.50	2.90	 	 	 	 	 	 	 	 	 	 	 	 	 	 	 	 	 	 	1581502045	8.55	15.83
12/02/2020 10:07:26	120220	12022020	100726	190.68	12.612427	-57.173813	190.77	0.360	0.120	2.190	190.68	-1.20	2.60	 	 	 	 	 	 	 	 	 	 	 	 	 	 	 	 	 	 	1581502046	7.76	14.37
12/02/2020 10:07:27	120220	12022020	100727	190.77	12.612393	-57.173822	190.86	0.460	-0.000	1.690	190.78	-1.40	2.10	 	 	 	 	 	 	 	 	 	 	 	 	 	 	 	 	 	 	1581502047	7.27	13.46
12/02/2020 10:07:28	120220	12022020	100728	190.80	12.612358	-57.173828	190.87	0.650	-0.710	1.220	190.80	-2.20	1.70	 	 	 	 	 	 	 	 	 	 	 	 	 	 	 	 	 	 	1581502048	7.66	14.19
12/02/2020 10:07:29	120220	12022020	100729	190.69	12.612320	-57.173835	190.72	0.710	-1.510	1.040	190.64	-2.90	1.60	 	 	 	 	 	 	 	 	 	 	 	 	 	 	 	 	 	 	1581502049	8.36	15.48
12/02/2020 10:07:30	120220	12022020	100730	190.41	12.612282	-57.173842	190.44	0.380	-1.760	1.400	190.34	-3.10	2.00	 	 	 	 	 	 	 	 	 	 	 	 	 	 	 	 	 	 	1581502050	8.59	15.91
12/02/2020 10:07:31	120220	12022020	100731	190.14	12.612245	-57.173853	190.22	-0.280	-1.220	2.160	190.10	-2.40	2.80	 	 	 	 	 	 	 	 	 	 	 	 	 	 	 	 	 	 	1581502051	8.27	15.32
12/02/2020 10:07:32	120220	12022020	100732	189.97	12.612210	-57.173867	190.09	-0.920	-0.290	2.840	189.97	-1.50	3.40	 	 	 	 	 	 	 	 	 	 	 	 	 	 	 	 	 	 	1581502052	7.89	14.61
12/02/2020 10:07:33	120220	12022020	100733	189.97	12.612178	-57.173883	190.13	-1.170	0.420	3.070	189.99	-0.90	3.60	 	 	 	 	 	 	 	 	 	 	 	 	 	 	 	 	 	 	1581502053	7.83	14.50
12/02/2020 10:07:34	120220	12022020	100734	190.15	12.612143	-57.173898	190.27	-0.850	0.580	2.890	190.15	-0.80	3.40	 	 	 	 	 	 	 	 	 	 	 	 	 	 	 	 	 	 	1581502054	8.12	15.04
12/02/2020 10:07:35	120220	12022020	100735	190.24	12.612105	-57.173910	190.35	-0.120	0.300	2.490	190.25	-1.10	2.90	 	 	 	 	 	 	 	 	 	 	 	 	 	 	 	 	 	 	1581502055	8.53	15.80
12/02/2020 10:07:36	120220	12022020	100736	190.25	12.612065	-57.173918	190.37	0.540	0.110	1.910	190.27	-1.20	2.40	 	 	 	 	 	 	 	 	 	 	 	 	 	 	 	 	 	 	1581502056	8.82	16.33
12/02/2020 10:07:37	120220	12022020	100737	190.45	12.612025	-57.173925	190.61	0.720	0.400	1.330	190.52	-0.90	1.80	 	 	 	 	 	 	 	 	 	 	 	 	 	 	 	 	 	 	1581502057	8.51	15.76
12/02/2020 10:07:38	120220	12022020	100738	190.82	12.611990	-57.173928	190.91	0.490	0.700	1.040	190.82	-0.70	1.60	 	 	 	 	 	 	 	 	 	 	 	 	 	 	 	 	 	 	1581502058	7.66	14.19
12/02/2020 10:07:39	120220	12022020	100739	190.93	12.611957	-57.173935	191.03	0.250	0.340	1.190	190.93	-1.10	1.80	 	 	 	 	 	 	 	 	 	 	 	 	 	 	 	 	 	 	1581502059	7.38	13.67
12/02/2020 10:07:40	120220	12022020	100740	190.89	12.611920	-57.173943	190.96	0.160	-0.630	1.670	190.86	-2.10	2.30	 	 	 	 	 	 	 	 	 	 	 	 	 	 	 	 	 	 	1581502060	7.96	14.74
12/02/2020 10:07:41	120220	12022020	100741	190.67	12.611882	-57.173955	190.62	0.150	-1.620	2.440	190.59	-3.10	3.10	 	 	 	 	 	 	 	 	 	 	 	 	 	 	 	 	 	 	1581502061	8.60	15.93
12/02/2020 10:07:42	120220	12022020	100742	190.09	12.611843	-57.173970	190.14	0.050	-1.950	3.190	190.00	-3.20	3.80	 	 	 	 	 	 	 	 	 	 	 	 	 	 	 	 	 	 	1581502062	8.85	16.39
12/02/2020 10:07:43	120220	12022020	100743	189.78	12.611807	-57.173985	189.93	-0.230	-1.310	3.420	189.78	-2.50	3.90	 	 	 	 	 	 	 	 	 	 	 	 	 	 	 	 	 	 	1581502063	8.43	15.61
12/02/2020 10:07:44	120220	12022020	100744	189.90	12.611773	-57.173997	190.09	-0.520	-0.250	3.030	189.94	-1.50	3.50	 	 	 	 	 	 	 	 	 	 	 	 	 	 	 	 	 	 	1581502064	7.64	14.15
12/02/2020 10:07:45	120220	12022020	100745	190.12	12.611742	-57.174008	190.28	-0.560	0.350	2.460	190.16	-1.00	2.90	 	 	 	 	 	 	 	 	 	 	 	 	 	 	 	 	 	 	1581502065	7.36	13.63
12/02/2020 10:07:46	120220	12022020	100746	190.31	12.611705	-57.174017	190.46	-0.330	0.340	1.880	190.36	-1.00	2.30	 	 	 	 	 	 	 	 	 	 	 	 	 	 	 	 	 	 	1581502066	7.98	14.78
12/02/2020 10:07:47	120220	12022020	100747	190.59	12.611667	-57.174025	190.75	0.030	0.270	1.370	190.66	-1.10	1.80	 	 	 	 	 	 	 	 	 	 	 	 	 	 	 	 	 	 	1581502067	8.53	15.80
12/02/2020 10:07:48	120220	12022020	100748	190.94	12.611628	-57.174033	191.08	0.380	0.340	0.900	191.00	-1.00	1.40	 	 	 	 	 	 	 	 	 	 	 	 	 	 	 	 	 	 	1581502068	8.40	15.56
12/02/2020 10:07:49	120220	12022020	100749	191.11	12.611592	-57.174038	191.17	0.670	0.110	0.700	191.09	-1.30	1.30	 	 	 	 	 	 	 	 	 	 	 	 	 	 	 	 	 	 	1581502069	8.10	15.00
12/02/2020 10:07:50	120220	12022020	100750	190.85	12.611552	-57.174043	190.86	0.760	-0.470	1.110	190.77	-1.90	1.70	 	 	 	 	 	 	 	 	 	 	 	 	 	 	 	 	 	 	1581502070	8.40	15.56
12/02/2020 10:07:51	120220	12022020	100751	190.50	12.611512	-57.174050	190.58	0.410	-0.630	1.790	190.47	-1.90	2.40	 	 	 	 	 	 	 	 	 	 	 	 	 	 	 	 	 	 	1581502071	8.74	16.19
12/02/2020 10:07:52	120220	12022020	100752	190.48	12.611475	-57.174062	190.63	-0.310	-0.240	2.540	190.50	-1.50	3.20	 	 	 	 	 	 	 	 	 	 	 	 	 	 	 	 	 	 	1581502072	8.25	15.28
12/02/2020 10:07:53	120220	12022020	100753	190.57	12.611442	-57.174077	190.71	-0.970	-0.010	3.390	190.58	-1.40	4.00	 	 	 	 	 	 	 	 	 	 	 	 	 	 	 	 	 	 	1581502073	7.75	14.35
12/02/2020 10:07:54	120220	12022020	100754	190.45	12.611408	-57.174095	190.55	-1.140	-0.310	4.080	190.41	-1.70	4.60	 	 	 	 	 	 	 	 	 	 	 	 	 	 	 	 	 	 	1581502074	8.18	15.15
12/02/2020 10:07:55	120220	12022020	100755	190.31	12.611373	-57.174115	190.45	-0.720	-0.540	3.990	190.31	-1.90	4.40	 	 	 	 	 	 	 	 	 	 	 	 	 	 	 	 	 	 	1581502075	8.83	16.35
12/02/2020 10:07:56	120220	12022020	100756	190.46	12.611337	-57.174132	190.63	0.030	-0.240	2.990	190.52	-1.50	3.30	 	 	 	 	 	 	 	 	 	 	 	 	 	 	 	 	 	 	1581502076	8.42	15.59
12/02/2020 10:07:57	120220	12022020	100757	190.80	12.611303	-57.174138	190.95	0.740	0.000	1.500	190.87	-1.40	1.80	 	 	 	 	 	 	 	 	 	 	 	 	 	 	 	 	 	 	1581502077	7.58	14.04
12/02/2020 10:07:58	120220	12022020	100758	191.11	12.611267	-57.174140	191.20	1.170	-0.420	0.440	191.13	-1.90	0.90	 	 	 	 	 	 	 	 	 	 	 	 	 	 	 	 	 	 	1581502078	7.77	14.39
12/02/2020 10:07:59	120220	12022020	100759	191.03	12.611227	-57.174140	191.00	1.270	-1.230	0.390	190.94	-2.70	1.00	 	 	 	 	 	 	 	 	 	 	 	 	 	 	 	 	 	 	1581502079	8.56	15.85
12/02/2020 10:08:00	120220	12022020	100800	190.40	12.611185	-57.174145	190.31	1.000	-1.590	1.290	190.23	-2.90	2.00	 	 	 	 	 	 	 	 	 	 	 	 	 	 	 	 	 	 	1581502080	9.04	16.74
12/02/2020 10:08:01	120220	12022020	100801	189.67	12.611145	-57.174155	189.72	0.220	-0.940	2.560	189.60	-2.10	3.20	1015.20	26.00	26.10	21.00	21.10	1.0	74.0	73.0	420.0	25.8	263.00	11.00	73.00	12.20	176	8896.0	27.5	27.5	1581502081	8.83	16.35
12/02/2020 10:08:02	120220	12022020	100802	189.69	12.611110	-57.174168	189.83	-0.910	0.360	3.440	189.69	-0.80	4.00	 	 	 	 	 	 	 	 	 	 	 	 	 	 	 	 	 	 	1581502082	8.20	15.19
12/02/2020 10:08:03	120220	12022020	100803	190.08	12.611078	-57.174187	190.35	-1.840	1.390	3.850	190.20	0.10	4.40	 	 	 	 	 	 	 	 	 	 	 	 	 	 	 	 	 	 	1581502083	7.77	14.39
12/02/2020 10:08:04	120220	12022020	100804	190.68	12.611047	-57.174207	190.95	-2.020	1.550	3.720	190.80	0.20	4.20	 	 	 	 	 	 	 	 	 	 	 	 	 	 	 	 	 	 	1581502084	7.98	14.78
12/02/2020 10:08:05	120220	12022020	100805	191.15	12.611012	-57.174223	191.50	-1.290	0.950	2.900	191.26	-0.50	3.20	 	 	 	 	 	 	 	 	 	 	 	 	 	 	 	 	 	 	1581502085	8.44	15.63
12/02/2020 10:08:06	120220	12022020	100806	191.83	12.610973	-57.174237	192.03	-0.030	0.130	1.510	191.93	-1.30	1.80	 	 	 	 	 	 	 	 	 	 	 	 	 	 	 	 	 	 	1581502086	8.64	16.00
12/02/2020 10:08:07	120220	12022020	100807	192.28	12.610933	-57.174243	192.41	1.240	-0.690	0.130	192.34	-2.20	0.50	 	 	 	 	 	 	 	 	 	 	 	 	 	 	 	 	 	 	1581502087	8.48	15.70
12/02/2020 10:08:08	120220	12022020	100808	192.43	12.610895	-57.174245	192.48	2.000	-1.380	-0.500	192.41	-2.80	0.00	 	 	 	 	 	 	 	 	 	 	 	 	 	 	 	 	 	 	1581502088	8.44	15.63
12/02/2020 10:08:09	120220	12022020	100809	192.20	12.610855	-57.174245	192.18	1.920	-1.590	-0.290	192.11	-2.90	0.30	 	 	 	 	 	 	 	 	 	 	 	 	 	 	 	 	 	 	1581502089	8.38	15.52
12/02/2020 10:08:10	120220	12022020	100810	191.68	12.610818	-57.174250	191.65	1.020	-1.200	0.530	191.56	-2.50	1.20	 	 	 	 	 	 	 	 	 	 	 	 	 	 	 	 	 	 	1581502090	7.95	14.72
12/02/2020 10:08:11	120220	12022020	100811	191.18	12.610785	-57.174260	191.23	-0.300	-0.400	1.660	191.12	-1.60	2.30	 	 	 	 	 	 	 	 	 	 	 	 	 	 	 	 	 	 	1581502091	7.66	14.19
12/02/2020 10:08:12	120220	12022020	100812	191.11	12.610753	-57.174278	191.29	-1.430	0.490	2.580	191.16	-0.80	3.20	 	 	 	 	 	 	 	 	 	 	 	 	 	 	 	 	 	 	1581502092	7.83	14.50
12/02/2020 10:08:13	120220	12022020	100813	191.49	12.610722	-57.174302	191.73	-1.800	0.910	2.960	191.59	-0.40	3.50	 	 	 	 	 	 	 	 	 	 	 	 	 	 	 	 	 	 	1581502093	8.13	15.06
12/02/2020 10:08:14	120220	12022020	100814	191.98	12.610690	-57.174323	192.18	-1.200	0.460	2.700	192.06	-1.00	3.10	 	 	 	 	 	 	 	 	 	 	 	 	 	 	 	 	 	 	1581502094	8.45	15.65
12/02/2020 10:08:15	120220	12022020	100815	192.22	12.610652	-57.174340	192.34	0.070	-0.590	2.040	192.23	-2.10	2.50	 	 	 	 	 	 	 	 	 	 	 	 	 	 	 	 	 	 	1581502095	8.91	16.50
12/02/2020 10:08:16	120220	12022020	100816	192.07	12.610610	-57.174350	192.10	1.180	-1.370	1.550	192.00	-2.80	2.00	 	 	 	 	 	 	 	 	 	 	 	 	 	 	 	 	 	 	1581502096	9.32	17.26
12/02/2020 10:08:17	120220	12022020	100817	191.70	12.610568	-57.174357	191.75	1.350	-1.170	1.390	191.65	-2.40	1.90	 	 	 	 	 	 	 	 	 	 	 	 	 	 	 	 	 	 	1581502097	9.09	16.83
12/02/2020 10:08:18	120220	12022020	100818	191.65	12.610530	-57.174360	191.81	0.430	0.000	1.550	191.70	-1.20	2.10	 	 	 	 	 	 	 	 	 	 	 	 	 	 	 	 	 	 	1581502098	8.09	14.98
12/02/2020 10:08:19	120220	12022020	100819	191.92	12.610498	-57.174368	192.25	-0.890	1.210	2.000	192.01	-0.00	2.60	 	 	 	 	 	 	 	 	 	 	 	 	 	 	 	 	 	 	1581502099	6.96	12.89
12/02/2020 10:08:20	120220	12022020	100820	192.47	12.610470	-57.174383	192.69	-1.560	1.510	2.450	192.54	0.10	3.00	 	 	 	 	 	 	 	 	 	 	 	 	 	 	 	 	 	 	1581502100	7.03	13.02
12/02/2020 10:08:21	120220	12022020	100821	192.72	12.610438	-57.174403	192.87	-1.010	0.680	2.550	192.73	-0.90	3.00	 	 	 	 	 	 	 	 	 	 	 	 	 	 	 	 	 	 	1581502101	8.00	14.82
12/02/2020 10:08:22	120220	12022020	100822	192.70	12.610400	-57.174422	192.79	0.290	-0.540	2.280	192.66	-2.00	2.80	 	 	 	 	 	 	 	 	 	 	 	 	 	 	 	 	 	 	1581502102	8.85	16.39
12/02/2020 10:08:23	120220	12022020	100823	192.38	12.610360	-57.174433	192.42	1.390	-1.280	1.940	192.29	-2.70	2.40	 	 	 	 	 	 	 	 	 	 	 	 	 	 	 	 	 	 	1581502103	8.96	16.59
12/02/2020 10:08:24	120220	12022020	100824	191.94	12.610323	-57.174442	191.99	1.660	-1.240	1.590	191.86	-2.60	2.10	 	 	 	 	 	 	 	 	 	 	 	 	 	 	 	 	 	 	1581502104	8.38	15.52
12/02/2020 10:08:25	120220	12022020	100825	191.59	12.610287	-57.174445	191.64	1.120	-0.860	1.470	191.53	-2.20	2.00	 	 	 	 	 	 	 	 	 	 	 	 	 	 	 	 	 	 	1581502105	7.72	14.30
12/02/2020 10:08:26	120220	12022020	100826	191.29	12.610252	-57.174450	191.35	0.280	-0.620	1.900	191.23	-2.00	2.50	 	 	 	 	 	 	 	 	 	 	 	 	 	 	 	 	 	 	1581502106	7.54	13.96
12/02/2020 10:08:27	120220	12022020	100827	190.98	12.610217	-57.174463	191.05	-0.420	-0.550	2.680	190.92	-1.90	3.30	 	 	 	 	 	 	 	 	 	 	 	 	 	 	 	 	 	 	1581502107	7.98	14.78
12/02/2020 10:08:28	120220	12022020	100828	190.69	12.610182	-57.174480	190.79	-0.790	-0.420	3.340	190.64	-1.70	3.90	 	 	 	 	 	 	 	 	 	 	 	 	 	 	 	 	 	 	1581502108	8.49	15.72
12/02/2020 10:08:29	120220	12022020	100829	190.54	12.610145	-57.174498	190.69	-0.870	-0.110	3.600	190.53	-1.40	4.10	 	 	 	 	 	 	 	 	 	 	 	 	 	 	 	 	 	 	1581502109	8.60	15.93
12/02/2020 10:08:30	120220	12022020	100830	190.54	12.610110	-57.174515	190.70	-0.730	0.290	3.410	190.55	-1.00	3.90	 	 	 	 	 	 	 	 	 	 	 	 	 	 	 	 	 	 	1581502110	8.35	15.46
12/02/2020 10:08:31	120220	12022020	100831	190.69	12.610075	-57.174528	190.95	-0.410	0.540	2.640	190.75	-0.80	3.00	 	 	 	 	 	 	 	 	 	 	 	 	 	 	 	 	 	 	1581502111	8.06	14.93
12/02/2020 10:08:32	120220	12022020	100832	191.25	12.610038	-57.174535	191.47	-0.040	0.480	1.550	191.38	-0.90	1.90	 	 	 	 	 	 	 	 	 	 	 	 	 	 	 	 	 	 	1581502112	7.99	14.80
12/02/2020 10:08:33	120220	12022020	100833	191.75	12.610002	-57.174540	192.02	0.290	0.100	0.760	191.85	-1.30	1.20	 	 	 	 	 	 	 	 	 	 	 	 	 	 	 	 	 	 	1581502113	8.11	15.02
12/02/2020 10:08:34	120220	12022020	100834	192.12	12.609963	-57.174545	192.19	0.580	-0.370	0.640	192.11	-1.80	1.20	 	 	 	 	 	 	 	 	 	 	 	 	 	 	 	 	 	 	1581502114	8.21	15.20
12/02/2020 10:08:35	120220	12022020	100835	191.84	12.609927	-57.174553	191.83	0.790	-0.710	1.100	191.74	-2.10	1.70	 	 	 	 	 	 	 	 	 	 	 	 	 	 	 	 	 	 	1581502115	8.15	15.09
12/02/2020 10:08:36	120220	12022020	100836	191.28	12.609890	-57.174562	191.28	0.740	-0.700	1.880	191.17	-2.00	2.50	 	 	 	 	 	 	 	 	 	 	 	 	 	 	 	 	 	 	1581502116	8.05	14.91
12/02/2020 10:08:37	120220	12022020	100837	190.78	12.609855	-57.174573	190.83	0.430	-0.490	2.720	190.70	-1.80	3.30	 	 	 	 	 	 	 	 	 	 	 	 	 	 	 	 	 	 	1581502117	7.79	14.43
12/02/2020 10:08:38	120220	12022020	100838	190.37	12.609822	-57.174587	190.42	0.040	-0.460	3.290	190.28	-1.80	3.90	 	 	 	 	 	 	 	 	 	 	 	 	 	 	 	 	 	 	1581502118	7.79	14.43
12/02/2020 10:08:39	120220	12022020	100839	189.98	12.609787	-57.174600	190.08	-0.230	-0.570	3.450	189.93	-1.90	4.00	 	 	 	 	 	 	 	 	 	 	 	 	 	 	 	 	 	 	1581502119	8.19	15.17
12/02/2020 10:08:40	120220	12022020	100840	189.87	12.609750	-57.174613	190.04	-0.390	-0.440	3.210	189.89	-1.70	3.70	 	 	 	 	 	 	 	 	 	 	 	 	 	 	 	 	 	 	1581502120	8.43	15.61
12/02/2020 10:08:41	120220	12022020	100841	190.10	12.609713	-57.174627	190.29	-0.390	-0.050	2.560	190.16	-1.30	3.00	 	 	 	 	 	 	 	 	 	 	 	 	 	 	 	 	 	 	1581502121	8.18	15.15
12/02/2020 10:08:42	120220	12022020	100842	190.49	12.609678	-57.174637	190.70	-0.250	0.350	1.620	190.60	-1.00	2.00	 	 	 	 	 	 	 	 	 	 	 	 	 	 	 	 	 	 	1581502122	7.79	14.43
12/02/2020 10:08:43	120220	12022020	100843	191.11	12.609643	-57.174643	191.34	-0.140	0.620	0.700	191.26	-0.80	1.10	 	 	 	 	 	 	 	 	 	 	 	 	 	 	 	 	 	 	1581502123	7.67	14.20
12/02/2020 10:08:44	120220	12022020	100844	191.77	12.609608	-57.174648	191.94	-0.110	0.380	0.310	191.86	-1.10	0.80	 	 	 	 	 	 	 	 	 	 	 	 	 	 	 	 	 	 	1581502124	7.59	14.06
12/02/2020 10:08:45	120220	12022020	100845	191.96	12.609573	-57.174657	191.99	0.050	-0.480	0.600	191.91	-2.00	1.20	 	 	 	 	 	 	 	 	 	 	 	 	 	 	 	 	 	 	1581502125	7.90	14.63
12/02/2020 10:08:46	120220	12022020	100846	191.55	12.609535	-57.174668	191.54	0.430	-1.430	1.330	191.44	-2.90	2.00	 	 	 	 	 	 	 	 	 	 	 	 	 	 	 	 	 	 	1581502126	8.56	15.85
12/02/2020 10:08:47	120220	12022020	100847	191.03	12.609495	-57.174680	191.07	0.670	-1.520	2.080	190.95	-2.80	2.70	 	 	 	 	 	 	 	 	 	 	 	 	 	 	 	 	 	 	1581502127	8.82	16.33
12/02/2020 10:08:48	120220	12022020	100848	190.70	12.609460	-57.174692	190.79	0.540	-0.750	2.510	190.66	-2.00	3.00	 	 	 	 	 	 	 	 	 	 	 	 	 	 	 	 	 	 	1581502128	8.06	14.93
12/02/2020 10:08:49	120220	12022020	100849	190.54	12.609427	-57.174700	190.63	0.130	0.030	2.530	190.51	-1.30	3.00	 	 	 	 	 	 	 	 	 	 	 	 	 	 	 	 	 	 	1581502129	7.34	13.59
12/02/2020 10:08:50	120220	12022020	100850	190.32	12.609393	-57.174708	190.39	-0.290	0.200	2.620	190.27	-1.20	3.20	 	 	 	 	 	 	 	 	 	 	 	 	 	 	 	 	 	 	1581502130	7.52	13.93
12/02/2020 10:08:51	120220	12022020	100851	190.17	12.609355	-57.174718	190.32	-0.710	0.100	2.800	190.19	-1.30	3.30	 	 	 	 	 	 	 	 	 	 	 	 	 	 	 	 	 	 	1581502131	8.29	15.35
12/02/2020 10:08:52	120220	12022020	100852	190.37	12.609318	-57.174732	190.54	-1.110	0.140	2.990	190.42	-1.20	3.50	 	 	 	 	 	 	 	 	 	 	 	 	 	 	 	 	 	 	1581502132	8.52	15.78
12/02/2020 10:08:53	120220	12022020	100853	190.58	12.609283	-57.174748	190.70	-1.160	0.200	3.200	190.59	-1.20	3.70	 	 	 	 	 	 	 	 	 	 	 	 	 	 	 	 	 	 	1581502133	8.35	15.46
12/02/2020 10:08:54	120220	12022020	100854	190.60	12.609248	-57.174767	190.72	-0.520	0.180	3.030	190.61	-1.20	3.40	 	 	 	 	 	 	 	 	 	 	 	 	 	 	 	 	 	 	1581502134	8.33	15.43
12/02/2020 10:08:55	120220	12022020	100855	190.73	12.609213	-57.174780	190.98	0.460	0.340	2.140	190.81	-1.00	2.50	 	 	 	 	 	 	 	 	 	 	 	 	 	 	 	 	 	 	1581502135	8.11	15.02
12/02/2020 10:08:56	120220	12022020	100856	191.25	12.609178	-57.174785	191.40	1.100	0.310	1.130	191.32	-1.10	1.50	 	 	 	 	 	 	 	 	 	 	 	 	 	 	 	 	 	 	1581502136	7.62	14.11
12/02/2020 10:08:57	120220	12022020	100857	191.49	12.609142	-57.174787	191.55	1.150	-0.290	0.660	191.49	-1.80	1.20	 	 	 	 	 	 	 	 	 	 	 	 	 	 	 	 	 	 	1581502137	7.66	14.19
12/02/2020 10:08:58	120220	12022020	100858	191.41	12.609105	-57.174792	191.45	0.810	-1.040	0.740	191.38	-2.50	1.30	 	 	 	 	 	 	 	 	 	 	 	 	 	 	 	 	 	 	1581502138	8.10	15.00
12/02/2020 10:08:59	120220	12022020	100859	191.23	12.609067	-57.174800	191.28	0.380	-1.280	1.190	191.20	-2.60	1.80	 	 	 	 	 	 	 	 	 	 	 	 	 	 	 	 	 	 	1581502139	8.21	15.20
12/02/2020 10:09:00	120220	12022020	100900	191.10	12.609032	-57.174810	191.17	0.050	-1.060	1.710	191.07	-2.40	2.30	 	 	 	 	 	 	 	 	 	 	 	 	 	 	 	 	 	 	1581502140	7.83	14.50
12/02/2020 10:09:01	120220	12022020	100901	190.85	12.608998	-57.174822	190.88	-0.170	-0.960	2.320	190.76	-2.30	2.90	1015.20	26.00	26.00	20.90	21.00	2.0	73.0	73.0	415.0	25.8	259.00	11.30	71.00	12.70	214	8910.0	27.5	27.5	1581502141	7.65	14.17
12/02/2020 10:09:02	120220	12022020	100902	190.28	12.608963	-57.174833	190.26	-0.330	-1.050	3.080	190.13	-2.40	3.70	 	 	 	 	 	 	 	 	 	 	 	 	 	 	 	 	 	 	1581502142	8.19	15.17
12/02/2020 10:09:03	120220	12022020	100903	189.61	12.608925	-57.174848	189.65	-0.530	-0.750	3.670	189.51	-2.00	4.20	 	 	 	 	 	 	 	 	 	 	 	 	 	 	 	 	 	 	1581502143	8.80	16.30
12/02/2020 10:09:04	120220	12022020	100904	189.33	12.608887	-57.174863	189.50	-0.810	0.240	3.720	189.36	-0.90	4.20	 	 	 	 	 	 	 	 	 	 	 	 	 	 	 	 	 	 	1581502144	8.58	15.89
12/02/2020 10:09:05	120220	12022020	100905	189.61	12.608853	-57.174875	189.85	-1.090	1.280	3.300	189.71	0.00	3.70	 	 	 	 	 	 	 	 	 	 	 	 	 	 	 	 	 	 	1581502145	7.74	14.33
12/02/2020 10:09:06	120220	12022020	100906	190.14	12.608820	-57.174885	190.36	-1.100	1.480	2.630	190.25	0.10	3.00	 	 	 	 	 	 	 	 	 	 	 	 	 	 	 	 	 	 	1581502146	7.47	13.83
12/02/2020 10:09:07	120220	12022020	100907	190.59	12.608783	-57.174895	190.75	-0.640	0.720	1.890	190.66	-0.80	2.30	 	 	 	 	 	 	 	 	 	 	 	 	 	 	 	 	 	 	1581502147	8.02	14.85
12/02/2020 10:09:08	120220	12022020	100908	190.80	12.608745	-57.174905	190.89	0.150	-0.420	1.260	190.81	-1.90	1.70	 	 	 	 	 	 	 	 	 	 	 	 	 	 	 	 	 	 	1581502148	8.69	16.09
12/02/2020 10:09:09	120220	12022020	100909	190.82	12.608703	-57.174913	190.86	0.840	-1.140	0.840	190.81	-2.50	1.30	 	 	 	 	 	 	 	 	 	 	 	 	 	 	 	 	 	 	1581502149	8.84	16.37
12/02/2020 10:09:10	120220	12022020	100910	190.68	12.608667	-57.174920	190.71	1.120	-1.070	0.720	190.64	-2.40	1.20	 	 	 	 	 	 	 	 	 	 	 	 	 	 	 	 	 	 	1581502150	8.26	15.30
12/02/2020 10:09:11	120220	12022020	100911	190.47	12.608632	-57.174927	190.53	1.000	-0.490	0.670	190.45	-1.80	1.20	 	 	 	 	 	 	 	 	 	 	 	 	 	 	 	 	 	 	1581502151	7.48	13.85
12/02/2020 10:09:12	120220	12022020	100912	190.44	12.608598	-57.174930	190.53	0.640	0.060	0.700	190.46	-1.30	1.20	 	 	 	 	 	 	 	 	 	 	 	 	 	 	 	 	 	 	1581502152	7.14	13.22
12/02/2020 10:09:13	120220	12022020	100913	190.54	12.608565	-57.174937	190.66	0.240	0.130	1.090	190.58	-1.30	1.70	 	 	 	 	 	 	 	 	 	 	 	 	 	 	 	 	 	 	1581502153	7.31	13.54
12/02/2020 10:09:14	120220	12022020	100914	190.70	12.608530	-57.174947	190.84	-0.080	-0.240	1.810	190.73	-1.70	2.40	 	 	 	 	 	 	 	 	 	 	 	 	 	 	 	 	 	 	1581502154	7.94	14.70
12/02/2020 10:09:15	120220	12022020	100915	190.84	12.608493	-57.174960	191.00	-0.320	-0.720	2.710	190.86	-2.10	3.30	 	 	 	 	 	 	 	 	 	 	 	 	 	 	 	 	 	 	1581502155	8.49	15.72
12/02/2020 10:09:16	120220	12022020	100916	190.86	12.608455	-57.174977	190.99	-0.470	-1.020	3.480	190.83	-2.40	4.00	 	 	 	 	 	 	 	 	 	 	 	 	 	 	 	 	 	 	1581502156	8.71	16.13
12/02/2020 10:09:17	120220	12022020	100917	190.66	12.608420	-57.174993	190.78	-0.520	-0.990	3.870	190.61	-2.30	4.40	 	 	 	 	 	 	 	 	 	 	 	 	 	 	 	 	 	 	1581502157	8.59	15.91
12/02/2020 10:09:18	120220	12022020	100918	190.49	12.608383	-57.175007	190.65	-0.620	-0.560	3.670	190.48	-1.80	4.10	 	 	 	 	 	 	 	 	 	 	 	 	 	 	 	 	 	 	1581502158	8.29	15.35
12/02/2020 10:09:19	120220	12022020	100919	190.55	12.608348	-57.175018	190.71	-0.700	0.060	2.940	190.57	-1.20	3.30	 	 	 	 	 	 	 	 	 	 	 	 	 	 	 	 	 	 	1581502159	7.88	14.59
12/02/2020 10:09:20	120220	12022020	100920	190.63	12.608313	-57.175027	190.75	-0.530	0.440	2.090	190.64	-0.90	2.50	 	 	 	 	 	 	 	 	 	 	 	 	 	 	 	 	 	 	1581502160	7.63	14.13
12/02/2020 10:09:21	120220	12022020	100921	190.62	12.608278	-57.175035	190.72	0.010	0.400	1.310	190.62	-1.00	1.70	 	 	 	 	 	 	 	 	 	 	 	 	 	 	 	 	 	 	1581502161	7.88	14.59
12/02/2020 10:09:22	120220	12022020	100922	190.71	12.608240	-57.175040	190.85	0.570	0.220	0.740	190.75	-1.20	1.20	 	 	 	 	 	 	 	 	 	 	 	 	 	 	 	 	 	 	1581502162	8.33	15.43
12/02/2020 10:09:23	120220	12022020	100923	190.90	12.608202	-57.175045	191.12	0.770	0.090	0.590	190.96	-1.30	1.10	 	 	 	 	 	 	 	 	 	 	 	 	 	 	 	 	 	 	1581502163	8.33	15.43
12/02/2020 10:09:24	120220	12022020	100924	191.30	12.608165	-57.175052	191.45	0.600	0.020	0.840	191.35	-1.40	1.40	 	 	 	 	 	 	 	 	 	 	 	 	 	 	 	 	 	 	1581502164	8.06	14.93
12/02/2020 10:09:25	120220	12022020	100925	191.49	12.608130	-57.175062	191.62	0.330	-0.150	1.460	191.51	-1.50	2.10	 	 	 	 	 	 	 	 	 	 	 	 	 	 	 	 	 	 	1581502165	7.81	14.46
12/02/2020 10:09:26	120220	12022020	100926	191.53	12.608095	-57.175073	191.64	0.170	-0.430	2.090	191.51	-1.80	2.70	 	 	 	 	 	 	 	 	 	 	 	 	 	 	 	 	 	 	1581502166	7.87	14.58
12/02/2020 10:09:27	120220	12022020	100927	191.42	12.608060	-57.175087	191.51	0.160	-0.830	2.520	191.38	-2.20	3.00	 	 	 	 	 	 	 	 	 	 	 	 	 	 	 	 	 	 	1581502167	8.01	14.83
12/02/2020 10:09:28	120220	12022020	100928	191.20	12.608023	-57.175098	191.31	0.130	-1.130	2.680	191.17	-2.50	3.20	 	 	 	 	 	 	 	 	 	 	 	 	 	 	 	 	 	 	1581502168	8.21	15.20
12/02/2020 10:09:29	120220	12022020	100929	191.11	12.607987	-57.175110	191.25	-0.150	-1.000	2.770	191.10	-2.30	3.30	 	 	 	 	 	 	 	 	 	 	 	 	 	 	 	 	 	 	1581502169	8.21	15.20
12/02/2020 10:09:30	120220	12022020	100930	190.98	12.607952	-57.175120	191.05	-0.630	-0.830	2.950	190.91	-2.20	3.50	 	 	 	 	 	 	 	 	 	 	 	 	 	 	 	 	 	 	1581502170	7.90	14.63
12/02/2020 10:09:31	120220	12022020	100931	190.52	12.607915	-57.175133	190.55	-0.940	-0.850	3.180	190.41	-2.20	3.70	 	 	 	 	 	 	 	 	 	 	 	 	 	 	 	 	 	 	1581502171	8.22	15.22
12/02/2020 10:09:32	120220	12022020	100932	190.10	12.607878	-57.175150	190.22	-0.880	-0.450	3.110	190.08	-1.70	3.50	 	 	 	 	 	 	 	 	 	 	 	 	 	 	 	 	 	 	1581502172	8.80	16.30
12/02/2020 10:09:33	120220	12022020	100933	190.25	12.607842	-57.175163	190.47	-0.450	0.670	2.360	190.34	-0.50	2.70	 	 	 	 	 	 	 	 	 	 	 	 	 	 	 	 	 	 	1581502173	8.37	15.50
12/02/2020 10:09:34	120220	12022020	100934	190.80	12.607808	-57.175172	190.99	0.180	1.510	1.200	190.91	0.20	1.50	 	 	 	 	 	 	 	 	 	 	 	 	 	 	 	 	 	 	1581502174	7.32	13.56
12/02/2020 10:09:35	120220	12022020	100935	191.19	12.607773	-57.175173	191.30	0.790	1.170	0.350	191.22	-0.30	0.80	 	 	 	 	 	 	 	 	 	 	 	 	 	 	 	 	 	 	1581502175	7.48	13.85
12/02/2020 10:09:36	120220	12022020	100936	191.30	12.607735	-57.175177	191.38	1.090	0.060	0.360	191.31	-1.40	0.90	 	 	 	 	 	 	 	 	 	 	 	 	 	 	 	 	 	 	1581502176	8.50	15.74
12/02/2020 10:09:37	120220	12022020	100937	191.28	12.607693	-57.175183	191.35	0.990	-0.820	0.880	191.27	-2.20	1.50	 	 	 	 	 	 	 	 	 	 	 	 	 	 	 	 	 	 	1581502177	8.85	16.39
12/02/2020 10:09:38	120220	12022020	100938	191.07	12.607657	-57.175192	191.10	0.590	-1.200	1.800	191.00	-2.60	2.40	 	 	 	 	 	 	 	 	 	 	 	 	 	 	 	 	 	 	1581502178	8.37	15.50
12/02/2020 10:09:39	120220	12022020	100939	190.67	12.607622	-57.175205	190.69	0.070	-1.350	3.110	190.57	-2.70	3.80	 	 	 	 	 	 	 	 	 	 	 	 	 	 	 	 	 	 	1581502179	8.01	14.83
12/02/2020 10:09:40	120220	12022020	100940	190.11	12.607587	-57.175222	190.11	-0.490	-1.340	4.420	189.98	-2.70	5.00	 	 	 	 	 	 	 	 	 	 	 	 	 	 	 	 	 	 	1581502180	8.22	15.22
12/02/2020 10:09:41	120220	12022020	100941	189.53	12.607552	-57.175242	189.59	-0.950	-0.970	5.060	189.45	-2.20	5.50	 	 	 	 	 	 	 	 	 	 	 	 	 	 	 	 	 	 	1581502181	8.57	15.87
12/02/2020 10:09:42	120220	12022020	100942	189.35	12.607518	-57.175262	189.54	-1.120	-0.080	4.720	189.39	-1.30	5.10	 	 	 	 	 	 	 	 	 	 	 	 	 	 	 	 	 	 	1581502182	8.41	15.58
12/02/2020 10:09:43	120220	12022020	100943	189.76	12.607485	-57.175277	190.01	-0.800	0.900	3.440	189.89	-0.40	3.70	 	 	 	 	 	 	 	 	 	 	 	 	 	 	 	 	 	 	1581502183	7.63	14.13
12/02/2020 10:09:44	120220	12022020	100944	190.38	12.607452	-57.175283	190.57	-0.050	0.890	1.830	190.49	-0.60	2.10	 	 	 	 	 	 	 	 	 	 	 	 	 	 	 	 	 	 	1581502184	7.20	13.33
12/02/2020 10:09:45	120220	12022020	100945	190.78	12.607413	-57.175285	190.86	0.760	-0.220	0.700	190.81	-1.80	1.10	 	 	 	 	 	 	 	 	 	 	 	 	 	 	 	 	 	 	1581502185	8.25	15.28
12/02/2020 10:09:46	120220	12022020	100946	190.76	12.607370	-57.175287	190.77	1.190	-1.310	0.490	190.71	-2.80	1.00	 	 	 	 	 	 	 	 	 	 	 	 	 	 	 	 	 	 	1581502186	9.33	17.28
12/02/2020 10:09:47	120220	12022020	100947	190.56	12.607328	-57.175292	190.61	0.980	-1.300	0.920	190.55	-2.60	1.50	 	 	 	 	 	 	 	 	 	 	 	 	 	 	 	 	 	 	1581502187	9.19	17.02
12/02/2020 10:09:48	120220	12022020	100948	190.57	12.607292	-57.175298	190.69	0.240	-0.210	1.520	190.60	-1.40	2.10	 	 	 	 	 	 	 	 	 	 	 	 	 	 	 	 	 	 	1581502188	8.04	14.89
12/02/2020 10:09:49	120220	12022020	100949	190.75	12.607260	-57.175308	190.87	-0.580	0.820	2.190	190.77	-0.50	2.80	 	 	 	 	 	 	 	 	 	 	 	 	 	 	 	 	 	 	1581502189	7.01	12.98
12/02/2020 10:09:50	120220	12022020	100950	190.82	12.607230	-57.175323	190.94	-0.950	0.860	2.900	190.83	-0.60	3.40	 	 	 	 	 	 	 	 	 	 	 	 	 	 	 	 	 	 	1581502190	7.26	13.45
12/02/2020 10:09:51	120220	12022020	100951	190.88	12.607195	-57.175340	191.03	-0.770	0.250	3.180	190.91	-1.20	3.60	 	 	 	 	 	 	 	 	 	 	 	 	 	 	 	 	 	 	1581502191	8.34	15.45
12/02/2020 10:09:52	120220	12022020	100952	190.98	12.607157	-57.175355	191.10	-0.290	-0.400	2.960	190.99	-1.80	3.40	 	 	 	 	 	 	 	 	 	 	 	 	 	 	 	 	 	 	1581502192	8.70	16.11
12/02/2020 10:09:53	120220	12022020	100953	190.92	12.607120	-57.175367	190.96	0.190	-0.940	2.590	190.87	-2.40	3.00	 	 	 	 	 	 	 	 	 	 	 	 	 	 	 	 	 	 	1581502193	8.48	15.70
12/02/2020 10:09:54	120220	12022020	100954	190.63	12.607082	-57.175377	190.66	0.470	-1.180	2.280	190.56	-2.50	2.70	 	 	 	 	 	 	 	 	 	 	 	 	 	 	 	 	 	 	1581502194	8.34	15.45
12/02/2020 10:09:55	120220	12022020	100955	190.34	12.607045	-57.175385	190.38	0.470	-0.910	1.960	190.30	-2.20	2.40	 	 	 	 	 	 	 	 	 	 	 	 	 	 	 	 	 	 	1581502195	8.13	15.06
12/02/2020 10:09:56	120220	12022020	100956	190.20	12.607010	-57.175392	190.30	0.320	-0.330	1.480	190.21	-1.60	1.90	 	 	 	 	 	 	 	 	 	 	 	 	 	 	 	 	 	 	1581502196	7.77	14.39
12/02/2020 10:09:57	120220	12022020	100957	190.33	12.606975	-57.175398	190.55	0.140	0.220	0.970	190.39	-1.10	1.40	 	 	 	 	 	 	 	 	 	 	 	 	 	 	 	 	 	 	1581502197	7.59	14.06
12/02/2020 10:09:58	120220	12022020	100958	190.79	12.606940	-57.175405	190.94	0.010	0.420	0.790	190.86	-0.90	1.30	 	 	 	 	 	 	 	 	 	 	 	 	 	 	 	 	 	 	1581502198	7.66	14.19
12/02/2020 10:09:59	120220	12022020	100959	191.02	12.606903	-57.175415	191.15	-0.020	0.160	1.000	191.05	-1.30	1.50	 	 	 	 	 	 	 	 	 	 	 	 	 	 	 	 	 	 	1581502199	7.97	14.76
12/02/2020 10:10:00	120220	12022020	101000	191.09	12.606865	-57.175425	191.19	0.040	-0.310	1.430	191.09	-1.70	2.00	 	 	 	 	 	 	 	 	 	 	 	 	 	 	 	 	 	 	1581502200	8.41	15.58
12/02/2020 10:10:01	120220	12022020	101001	191.11	12.606827	-57.175435	191.25	-0.050	-0.500	1.950	191.14	-1.80	2.50	1015.20	26.00	26.10	20.90	21.00	2.0	73.0	73.0	413.0	25.8	262.00	10.20	72.00	11.50	257	9396.0	27.5	27.5	1581502201	8.58	15.89
12/02/2020 10:10:02	120220	12022020	101002	191.25	12.606792	-57.175447	191.42	-0.370	-0.290	2.320	191.28	-1.60	2.80	 	 	 	 	 	 	 	 	 	 	 	 	 	 	 	 	 	 	1581502202	8.19	15.17
12/02/2020 10:10:03	120220	12022020	101003	191.34	12.606757	-57.175460	191.45	-0.660	-0.200	2.550	191.32	-1.60	3.10	 	 	 	 	 	 	 	 	 	 	 	 	 	 	 	 	 	 	1581502203	7.75	14.35
12/02/2020 10:10:04	120220	12022020	101004	191.03	12.606723	-57.175473	191.05	-0.490	-0.600	2.810	190.93	-2.00	3.30	 	 	 	 	 	 	 	 	 	 	 	 	 	 	 	 	 	 	1581502204	7.95	14.72
12/02/2020 10:10:05	120220	12022020	101005	190.54	12.606685	-57.175487	190.60	0.050	-0.970	2.740	190.47	-2.30	3.20	 	 	 	 	 	 	 	 	 	 	 	 	 	 	 	 	 	 	1581502205	8.69	16.09
12/02/2020 10:10:06	120220	12022020	101006	190.39	12.606645	-57.175497	190.55	0.520	-0.710	2.240	190.43	-2.00	2.60	 	 	 	 	 	 	 	 	 	 	 	 	 	 	 	 	 	 	1581502206	8.70	16.11
12/02/2020 10:10:07	120220	12022020	101007	190.70	12.606608	-57.175503	190.90	0.550	0.030	1.600	190.80	-1.20	2.00	 	 	 	 	 	 	 	 	 	 	 	 	 	 	 	 	 	 	1581502207	8.03	14.87
12/02/2020 10:10:08	120220	12022020	101008	191.19	12.606575	-57.175510	191.40	0.150	0.710	1.120	191.29	-0.60	1.60	 	 	 	 	 	 	 	 	 	 	 	 	 	 	 	 	 	 	1581502208	7.42	13.74
12/02/2020 10:10:09	120220	12022020	101009	191.64	12.606542	-57.175515	191.78	-0.350	0.890	1.010	191.69	-0.50	1.50	 	 	 	 	 	 	 	 	 	 	 	 	 	 	 	 	 	 	1581502209	7.30	13.52
12/02/2020 10:10:10	120220	12022020	101010	191.67	12.606507	-57.175525	191.72	-0.430	0.190	1.390	191.62	-1.30	1.90	 	 	 	 	 	 	 	 	 	 	 	 	 	 	 	 	 	 	1581502210	7.70	14.26
12/02/2020 10:10:11	120220	12022020	101011	191.41	12.606468	-57.175538	191.36	0.010	-0.850	1.950	191.33	-2.30	2.50	 	 	 	 	 	 	 	 	 	 	 	 	 	 	 	 	 	 	1581502211	8.65	16.02
12/02/2020 10:10:12	120220	12022020	101012	190.94	12.606428	-57.175553	191.01	0.520	-1.400	2.430	190.88	-2.80	2.90	 	 	 	 	 	 	 	 	 	 	 	 	 	 	 	 	 	 	1581502212	9.02	16.71
12/02/2020 10:10:13	120220	12022020	101013	190.80	12.606390	-57.175565	190.93	0.610	-1.210	2.560	190.80	-2.50	3.00	 	 	 	 	 	 	 	 	 	 	 	 	 	 	 	 	 	 	1581502213	8.62	15.96
12/02/2020 10:10:14	120220	12022020	101014	190.95	12.606355	-57.175575	191.13	0.180	-0.470	2.470	191.00	-1.70	2.90	 	 	 	 	 	 	 	 	 	 	 	 	 	 	 	 	 	 	1581502214	7.89	14.61
12/02/2020 10:10:15	120220	12022020	101015	191.30	12.606322	-57.175585	191.51	-0.460	0.310	2.290	191.39	-1.00	2.70	 	 	 	 	 	 	 	 	 	 	 	 	 	 	 	 	 	 	1581502215	7.39	13.69
12/02/2020 10:10:16	120220	12022020	101016	191.75	12.606290	-57.175595	191.93	-0.800	0.650	2.010	191.83	-0.70	2.50	 	 	 	 	 	 	 	 	 	 	 	 	 	 	 	 	 	 	1581502216	7.33	13.58
12/02/2020 10:10:17	120220	12022020	101017	191.98	12.606255	-57.175607	192.07	-0.560	0.270	1.860	191.97	-1.20	2.40	 	 	 	 	 	 	 	 	 	 	 	 	 	 	 	 	 	 	1581502217	7.76	14.37
12/02/2020 10:10:18	120220	12022020	101018	191.79	12.606218	-57.175618	191.83	0.030	-0.460	2.030	191.72	-1.90	2.60	 	 	 	 	 	 	 	 	 	 	 	 	 	 	 	 	 	 	1581502218	8.47	15.69
12/02/2020 10:10:19	120220	12022020	101019	191.42	12.606178	-57.175630	191.46	0.440	-0.840	2.320	191.34	-2.20	2.80	 	 	 	 	 	 	 	 	 	 	 	 	 	 	 	 	 	 	1581502219	8.87	16.43
12/02/2020 10:10:20	120220	12022020	101020	191.13	12.606140	-57.175640	191.24	0.390	-0.550	2.410	191.12	-1.80	2.90	 	 	 	 	 	 	 	 	 	 	 	 	 	 	 	 	 	 	1581502220	8.47	15.69
12/02/2020 10:10:21	120220	12022020	101021	191.27	12.606105	-57.175650	191.47	-0.010	0.100	2.160	191.35	-1.20	2.60	 	 	 	 	 	 	 	 	 	 	 	 	 	 	 	 	 	 	1581502221	7.75	14.35
12/02/2020 10:10:22	120220	12022020	101022	191.68	12.606073	-57.175660	191.86	-0.260	0.430	1.820	191.75	-0.90	2.30	 	 	 	 	 	 	 	 	 	 	 	 	 	 	 	 	 	 	1581502222	7.33	13.58
12/02/2020 10:10:23	120220	12022020	101023	191.84	12.606038	-57.175670	191.93	0.020	0.010	1.520	191.83	-1.40	2.00	 	 	 	 	 	 	 	 	 	 	 	 	 	 	 	 	 	 	1581502223	7.63	14.13
12/02/2020 10:10:24	120220	12022020	101024	191.75	12.606000	-57.175678	191.83	0.520	-0.680	1.290	191.73	-2.10	1.80	 	 	 	 	 	 	 	 	 	 	 	 	 	 	 	 	 	 	1581502224	8.46	15.67
12/02/2020 10:10:25	120220	12022020	101025	191.70	12.605960	-57.175687	191.79	0.650	-1.020	1.410	191.69	-2.40	2.00	 	 	 	 	 	 	 	 	 	 	 	 	 	 	 	 	 	 	1581502225	8.73	16.17
12/02/2020 10:10:26	120220	12022020	101026	191.62	12.605923	-57.175695	191.71	0.240	-0.900	1.890	191.59	-2.20	2.40	 	 	 	 	 	 	 	 	 	 	 	 	 	 	 	 	 	 	1581502226	8.36	15.48
12/02/2020 10:10:27	120220	12022020	101027	191.48	12.605887	-57.175708	191.58	-0.380	-0.470	2.460	191.45	-1.80	3.00	 	 	 	 	 	 	 	 	 	 	 	 	 	 	 	 	 	 	1581502227	8.03	14.87
12/02/2020 10:10:28	120220	12022020	101028	191.40	12.605853	-57.175722	191.54	-0.780	0.020	2.960	191.41	-1.30	3.50	 	 	 	 	 	 	 	 	 	 	 	 	 	 	 	 	 	 	1581502228	7.94	14.70
12/02/2020 10:10:29	120220	12022020	101029	191.49	12.605818	-57.175738	191.66	-0.810	0.390	3.160	191.53	-0.90	3.60	 	 	 	 	 	 	 	 	 	 	 	 	 	 	 	 	 	 	1581502229	8.01	14.83
12/02/2020 10:10:30	120220	12022020	101030	191.69	12.605785	-57.175752	191.86	-0.570	0.550	2.860	191.73	-0.80	3.30	 	 	 	 	 	 	 	 	 	 	 	 	 	 	 	 	 	 	1581502230	8.03	14.87
12/02/2020 10:10:31	120220	12022020	101031	191.88	12.605750	-57.175763	192.00	-0.150	0.300	2.150	191.90	-1.10	2.50	 	 	 	 	 	 	 	 	 	 	 	 	 	 	 	 	 	 	1581502231	8.02	14.85
12/02/2020 10:10:32	120220	12022020	101032	191.86	12.605712	-57.175773	191.89	0.420	-0.310	1.450	191.81	-1.80	1.90	 	 	 	 	 	 	 	 	 	 	 	 	 	 	 	 	 	 	1581502232	8.28	15.33
12/02/2020 10:10:33	120220	12022020	101033	191.51	12.605672	-57.175780	191.50	0.970	-0.850	1.160	191.42	-2.20	1.60	 	 	 	 	 	 	 	 	 	 	 	 	 	 	 	 	 	 	1581502233	8.62	15.96
12/02/2020 10:10:34	120220	12022020	101034	191.16	12.605633	-57.175785	191.21	1.130	-0.780	1.060	191.14	-2.10	1.60	 	 	 	 	 	 	 	 	 	 	 	 	 	 	 	 	 	 	1581502234	8.58	15.89
12/02/2020 10:10:35	120220	12022020	101035	191.24	12.605597	-57.175792	191.41	0.650	-0.120	1.110	191.31	-1.40	1.60	 	 	 	 	 	 	 	 	 	 	 	 	 	 	 	 	 	 	1581502235	7.91	14.65
12/02/2020 10:10:36	120220	12022020	101036	191.64	12.605563	-57.175798	191.82	-0.160	0.320	1.430	191.72	-1.00	2.00	 	 	 	 	 	 	 	 	 	 	 	 	 	 	 	 	 	 	1581502236	7.21	13.35
12/02/2020 10:10:37	120220	12022020	101037	191.88	12.605532	-57.175812	192.02	-0.630	-0.030	1.930	191.89	-1.50	2.50	 	 	 	 	 	 	 	 	 	 	 	 	 	 	 	 	 	 	1581502237	7.51	13.91
12/02/2020 10:10:38	120220	12022020	101038	191.80	12.605495	-57.175828	191.87	-0.480	-0.860	2.510	191.75	-2.30	3.10	 	 	 	 	 	 	 	 	 	 	 	 	 	 	 	 	 	 	1581502238	8.44	15.63
12/02/2020 10:10:39	120220	12022020	101039	191.49	12.605457	-57.175843	191.59	-0.120	-1.350	3.020	191.45	-2.70	3.50	 	 	 	 	 	 	 	 	 	 	 	 	 	 	 	 	 	 	1581502239	9.04	16.74
12/02/2020 10:10:40	120220	12022020	101040	191.37	12.605418	-57.175858	191.51	0.020	-1.020	2.960	191.37	-2.30	3.40	 	 	 	 	 	 	 	 	 	 	 	 	 	 	 	 	 	 	1581502240	8.79	16.28
12/02/2020 10:10:41	120220	12022020	101041	191.38	12.605383	-57.175870	191.50	-0.070	-0.250	2.540	191.38	-1.50	3.00	 	 	 	 	 	 	 	 	 	 	 	 	 	 	 	 	 	 	1581502241	7.97	14.76
12/02/2020 10:10:42	120220	12022020	101042	191.33	12.605348	-57.175878	191.42	-0.050	0.260	1.960	191.31	-1.10	2.40	 	 	 	 	 	 	 	 	 	 	 	 	 	 	 	 	 	 	1581502242	7.63	14.13
12/02/2020 10:10:43	120220	12022020	101043	191.23	12.605312	-57.175885	191.32	0.120	0.280	1.530	191.22	-1.10	2.00	 	 	 	 	 	 	 	 	 	 	 	 	 	 	 	 	 	 	1581502243	8.04	14.89
12/02/2020 10:10:44	120220	12022020	101044	191.19	12.605272	-57.175892	191.30	0.060	0.320	1.540	191.19	-1.00	2.10	 	 	 	 	 	 	 	 	 	 	 	 	 	 	 	 	 	 	1581502244	8.51	15.76
12/02/2020 10:10:45	120220	12022020	101045	191.27	12.605235	-57.175902	191.41	-0.350	0.600	1.690	191.30	-0.70	2.20	 	 	 	 	 	 	 	 	 	 	 	 	 	 	 	 	 	 	1581502245	8.25	15.28
12/02/2020 10:10:46	120220	12022020	101046	191.39	12.605202	-57.175915	191.52	-0.670	0.690	1.970	191.41	-0.70	2.50	 	 	 	 	 	 	 	 	 	 	 	 	 	 	 	 	 	 	1581502246	7.79	14.43
12/02/2020 10:10:47	120220	12022020	101047	191.52	12.605168	-57.175930	191.67	-0.320	0.310	1.910	191.56	-1.10	2.30	 	 	 	 	 	 	 	 	 	 	 	 	 	 	 	 	 	 	1581502247	7.91	14.65
12/02/2020 10:10:48	120220	12022020	101048	191.73	12.605132	-57.175943	191.87	0.600	-0.490	1.360	191.77	-1.90	1.80	 	 	 	 	 	 	 	 	 	 	 	 	 	 	 	 	 	 	1581502248	8.13	15.06
12/02/2020 10:10:49	120220	12022020	101049	191.82	12.605093	-57.175952	191.90	1.350	-1.340	1.050	191.82	-2.80	1.50	 	 	 	 	 	 	 	 	 	 	 	 	 	 	 	 	 	 	1581502249	8.42	15.59
12/02/2020 10:10:50	120220	12022020	101050	191.58	12.605055	-57.175958	191.59	1.340	-1.780	1.160	191.49	-3.10	1.70	 	 	 	 	 	 	 	 	 	 	 	 	 	 	 	 	 	 	1581502250	8.49	15.72
12/02/2020 10:10:51	120220	12022020	101051	191.10	12.605017	-57.175965	191.11	0.600	-1.540	1.640	191.00	-2.80	2.20	 	 	 	 	 	 	 	 	 	 	 	 	 	 	 	 	 	 	1581502251	8.25	15.28
12/02/2020 10:10:52	120220	12022020	101052	190.63	12.604982	-57.175975	190.68	-0.450	-0.810	2.560	190.55	-2.00	3.20	 	 	 	 	 	 	 	 	 	 	 	 	 	 	 	 	 	 	1581502252	7.90	14.63
12/02/2020 10:10:53	120220	12022020	101053	190.40	12.604948	-57.175992	190.51	-1.260	0.050	3.460	190.37	-1.20	4.00	 	 	 	 	 	 	 	 	 	 	 	 	 	 	 	 	 	 	1581502253	7.94	14.70
12/02/2020 10:10:54	120220	12022020	101054	190.39	12.604915	-57.176010	190.56	-1.450	0.710	3.840	190.41	-0.60	4.30	 	 	 	 	 	 	 	 	 	 	 	 	 	 	 	 	 	 	1581502254	8.21	15.20
12/02/2020 10:10:55	120220	12022020	101055	190.53	12.604882	-57.176028	190.71	-1.000	0.880	3.750	190.56	-0.50	4.20	 	 	 	 	 	 	 	 	 	 	 	 	 	 	 	 	 	 	1581502255	8.35	15.46
12/02/2020 10:10:56	120220	12022020	101056	190.77	12.604843	-57.176043	190.97	-0.230	0.560	3.180	190.83	-0.80	3.50	 	 	 	 	 	 	 	 	 	 	 	 	 	 	 	 	 	 	1581502256	8.58	15.89
12/02/2020 10:10:57	120220	12022020	101057	191.19	12.604805	-57.176053	191.43	0.430	0.190	2.040	191.31	-1.20	2.40	 	 	 	 	 	 	 	 	 	 	 	 	 	 	 	 	 	 	1581502257	8.70	16.11
12/02/2020 10:10:58	120220	12022020	101058	191.81	12.604767	-57.176058	192.04	0.720	0.110	0.700	191.94	-1.20	1.00	 	 	 	 	 	 	 	 	 	 	 	 	 	 	 	 	 	 	1581502258	8.33	15.43
12/02/2020 10:10:59	120220	12022020	101059	192.33	12.604730	-57.176058	192.46	0.640	-0.100	-0.080	192.38	-1.50	0.40	 	 	 	 	 	 	 	 	 	 	 	 	 	 	 	 	 	 	1581502259	7.76	14.37
12/02/2020 10:11:00	120220	12022020	101100	192.21	12.604695	-57.176060	192.17	0.460	-0.910	0.380	192.09	-2.40	1.10	 	 	 	 	 	 	 	 	 	 	 	 	 	 	 	 	 	 	1581502260	7.69	14.24
12/02/2020 10:11:01	120220	12022020	101101	191.55	12.604657	-57.176070	191.25	0.340	-1.820	1.730	191.35	-3.20	2.40	1015.20	25.90	26.00	20.60	20.70	3.0	72.0	72.0	412.0	25.8	259.00	10.50	71.00	12.00	302	9600.0	27.5	27.5	1581502261	8.39	15.54
12/02/2020 10:11:02	120220	12022020	101102	190.43	12.604618	-57.176087	190.45	0.170	-1.760	2.920	190.32	-3.00	3.50	 	 	 	 	 	 	 	 	 	 	 	 	 	 	 	 	 	 	1581502262	8.99	16.65
12/02/2020 10:11:03	120220	12022020	101103	190.16	12.604583	-57.176103	190.38	-0.170	-0.510	3.320	190.18	-1.60	3.80	 	 	 	 	 	 	 	 	 	 	 	 	 	 	 	 	 	 	1581502263	8.37	15.50
12/02/2020 10:11:04	120220	12022020	101104	190.60	12.604552	-57.176118	190.87	-0.550	0.820	3.060	190.72	-0.40	3.50	 	 	 	 	 	 	 	 	 	 	 	 	 	 	 	 	 	 	1581502264	7.20	13.33
12/02/2020 10:11:05	120220	12022020	101105	191.17	12.604522	-57.176128	191.40	-0.720	1.110	2.640	191.26	-0.30	3.10	 	 	 	 	 	 	 	 	 	 	 	 	 	 	 	 	 	 	1581502265	7.05	13.06
12/02/2020 10:11:06	120220	12022020	101106	191.43	12.604485	-57.176140	191.57	-0.550	0.430	2.460	191.44	-1.00	2.90	 	 	 	 	 	 	 	 	 	 	 	 	 	 	 	 	 	 	1581502266	8.01	14.83
12/02/2020 10:11:07	120220	12022020	101107	191.37	12.604447	-57.176153	191.47	-0.160	-0.320	2.420	191.34	-1.70	2.90	 	 	 	 	 	 	 	 	 	 	 	 	 	 	 	 	 	 	1581502267	8.84	16.37
12/02/2020 10:11:08	120220	12022020	101108	191.22	12.604408	-57.176167	191.31	0.290	-0.410	2.190	191.19	-1.70	2.60	 	 	 	 	 	 	 	 	 	 	 	 	 	 	 	 	 	 	1581502268	8.67	16.06
12/02/2020 10:11:09	120220	12022020	101109	191.06	12.604373	-57.176175	191.15	0.660	-0.210	1.680	191.04	-1.50	2.10	 	 	 	 	 	 	 	 	 	 	 	 	 	 	 	 	 	 	1581502269	7.79	14.43
12/02/2020 10:11:10	120220	12022020	101110	191.00	12.604338	-57.176180	191.12	0.790	-0.290	1.180	191.01	-1.70	1.70	 	 	 	 	 	 	 	 	 	 	 	 	 	 	 	 	 	 	1581502270	7.58	14.04
12/02/2020 10:11:11	120220	12022020	101111	191.14	12.604302	-57.176183	191.30	0.590	-0.510	0.980	191.19	-1.90	1.50	 	 	 	 	 	 	 	 	 	 	 	 	 	 	 	 	 	 	1581502271	7.94	14.70
12/02/2020 10:11:12	120220	12022020	101112	191.40	12.604265	-57.176192	191.55	0.130	-0.530	1.160	191.43	-1.90	1.70	 	 	 	 	 	 	 	 	 	 	 	 	 	 	 	 	 	 	1581502272	8.00	14.82
12/02/2020 10:11:13	120220	12022020	101113	191.43	12.604230	-57.176203	191.51	-0.270	-0.620	1.780	191.38	-2.00	2.40	 	 	 	 	 	 	 	 	 	 	 	 	 	 	 	 	 	 	1581502273	7.78	14.41
12/02/2020 10:11:14	120220	12022020	101114	191.11	12.604197	-57.176218	191.16	-0.330	-0.920	2.540	191.03	-2.30	3.10	 	 	 	 	 	 	 	 	 	 	 	 	 	 	 	 	 	 	1581502274	8.11	15.02
12/02/2020 10:11:15	120220	12022020	101115	190.71	12.604158	-57.176233	190.79	-0.210	-0.950	3.080	190.64	-2.20	3.60	 	 	 	 	 	 	 	 	 	 	 	 	 	 	 	 	 	 	1581502275	8.56	15.85
12/02/2020 10:11:16	120220	12022020	101116	190.34	12.604122	-57.176245	190.43	-0.180	-0.570	3.360	190.28	-1.80	3.90	 	 	 	 	 	 	 	 	 	 	 	 	 	 	 	 	 	 	1581502276	8.38	15.52
12/02/2020 10:11:17	120220	12022020	101117	190.09	12.604087	-57.176257	190.22	-0.310	0.020	3.280	190.08	-1.20	3.70	 	 	 	 	 	 	 	 	 	 	 	 	 	 	 	 	 	 	1581502277	8.07	14.95
12/02/2020 10:11:18	120220	12022020	101118	190.13	12.604052	-57.176267	190.33	-0.510	0.590	2.930	190.17	-0.70	3.40	 	 	 	 	 	 	 	 	 	 	 	 	 	 	 	 	 	 	1581502278	7.91	14.65
12/02/2020 10:11:19	120220	12022020	101119	190.43	12.604017	-57.176277	190.63	-0.530	0.940	2.450	190.49	-0.40	2.90	 	 	 	 	 	 	 	 	 	 	 	 	 	 	 	 	 	 	1581502279	7.81	14.46
12/02/2020 10:11:20	120220	12022020	101120	190.71	12.603982	-57.176287	190.87	-0.170	0.840	1.950	190.75	-0.50	2.40	 	 	 	 	 	 	 	 	 	 	 	 	 	 	 	 	 	 	1581502280	7.80	14.45
12/02/2020 10:11:21	120220	12022020	101121	190.88	12.603945	-57.176295	191.02	0.450	0.240	1.390	190.91	-1.20	1.80	 	 	 	 	 	 	 	 	 	 	 	 	 	 	 	 	 	 	1581502281	8.05	14.91
12/02/2020 10:11:22	120220	12022020	101122	191.08	12.603907	-57.176302	191.21	0.880	-0.440	0.950	191.11	-1.80	1.40	 	 	 	 	 	 	 	 	 	 	 	 	 	 	 	 	 	 	1581502282	8.37	15.50
12/02/2020 10:11:23	120220	12022020	101123	191.24	12.603868	-57.176308	191.36	0.900	-0.940	0.790	191.27	-2.30	1.30	 	 	 	 	 	 	 	 	 	 	 	 	 	 	 	 	 	 	1581502283	8.24	15.26
12/02/2020 10:11:24	120220	12022020	101124	191.31	12.603832	-57.176317	191.40	0.660	-1.180	0.960	191.30	-2.50	1.50	 	 	 	 	 	 	 	 	 	 	 	 	 	 	 	 	 	 	1581502284	8.00	14.82
12/02/2020 10:11:25	120220	12022020	101125	191.18	12.603797	-57.176327	191.26	0.300	-1.220	1.460	191.14	-2.50	2.10	 	 	 	 	 	 	 	 	 	 	 	 	 	 	 	 	 	 	1581502285	7.86	14.56
12/02/2020 10:11:26	120220	12022020	101126	191.00	12.603762	-57.176337	191.11	-0.260	-0.980	2.260	190.98	-2.20	2.90	 	 	 	 	 	 	 	 	 	 	 	 	 	 	 	 	 	 	1581502286	7.91	14.65
12/02/2020 10:11:27	120220	12022020	101127	190.89	12.603727	-57.176350	191.00	-0.860	-0.520	2.980	190.87	-1.80	3.50	 	 	 	 	 	 	 	 	 	 	 	 	 	 	 	 	 	 	1581502287	7.95	14.72
12/02/2020 10:11:28	120220	12022020	101128	190.80	12.603693	-57.176367	190.94	-1.090	-0.100	3.290	190.78	-1.40	3.80	 	 	 	 	 	 	 	 	 	 	 	 	 	 	 	 	 	 	1581502288	8.03	14.87
12/02/2020 10:11:29	120220	12022020	101129	190.75	12.603658	-57.176382	190.92	-0.650	0.050	3.160	190.75	-1.20	3.60	 	 	 	 	 	 	 	 	 	 	 	 	 	 	 	 	 	 	1581502289	8.23	15.24
12/02/2020 10:11:30	120220	12022020	101130	190.88	12.603620	-57.176395	191.10	0.150	0.120	2.510	190.93	-1.20	2.90	 	 	 	 	 	 	 	 	 	 	 	 	 	 	 	 	 	 	1581502290	8.50	15.74
12/02/2020 10:11:31	120220	12022020	101131	191.18	12.603582	-57.176402	191.39	0.680	0.260	1.790	191.25	-1.00	2.20	 	 	 	 	 	 	 	 	 	 	 	 	 	 	 	 	 	 	1581502291	8.46	15.67
12/02/2020 10:11:32	120220	12022020	101132	191.43	12.603545	-57.176407	191.58	0.660	0.400	1.310	191.45	-0.90	1.80	 	 	 	 	 	 	 	 	 	 	 	 	 	 	 	 	 	 	1581502292	8.13	15.06
12/02/2020 10:11:33	120220	12022020	101133	191.43	12.603508	-57.176412	191.52	0.230	0.240	1.190	191.39	-1.10	1.70	 	 	 	 	 	 	 	 	 	 	 	 	 	 	 	 	 	 	1581502293	7.90	14.63
12/02/2020 10:11:34	120220	12022020	101134	191.15	12.603472	-57.176420	191.22	-0.300	-0.130	1.550	191.09	-1.50	2.10	 	 	 	 	 	 	 	 	 	 	 	 	 	 	 	 	 	 	1581502294	8.03	14.87
12/02/2020 10:11:35	120220	12022020	101135	190.91	12.603435	-57.176433	191.03	-0.650	-0.320	1.910	190.89	-1.60	2.40	 	 	 	 	 	 	 	 	 	 	 	 	 	 	 	 	 	 	1581502295	8.24	15.26
12/02/2020 10:11:36	120220	12022020	101136	191.01	12.603402	-57.176448	191.23	-0.700	-0.240	1.910	191.08	-1.50	2.40	 	 	 	 	 	 	 	 	 	 	 	 	 	 	 	 	 	 	1581502296	8.04	14.89
12/02/2020 10:11:37	120220	12022020	101137	191.31	12.603368	-57.176462	191.59	-0.360	-0.340	1.660	191.38	-1.70	2.10	 	 	 	 	 	 	 	 	 	 	 	 	 	 	 	 	 	 	1581502297	7.68	14.22
12/02/2020 10:11:38	120220	12022020	101138	191.55	12.603333	-57.176475	191.67	0.350	-0.940	1.420	191.54	-2.40	1.90	 	 	 	 	 	 	 	 	 	 	 	 	 	 	 	 	 	 	1581502298	7.88	14.59
12/02/2020 10:11:39	120220	12022020	101139	191.49	12.603295	-57.176485	191.58	1.090	-1.450	1.140	191.47	-2.80	1.60	 	 	 	 	 	 	 	 	 	 	 	 	 	 	 	 	 	 	1581502299	8.54	15.82
12/02/2020 10:11:40	120220	12022020	101140	191.48	12.603255	-57.176492	191.62	1.290	-1.000	0.930	191.50	-2.20	1.40	 	 	 	 	 	 	 	 	 	 	 	 	 	 	 	 	 	 	1581502300	8.59	15.91
12/02/2020 10:11:41	120220	12022020	101141	191.62	12.603220	-57.176495	191.78	0.750	0.040	0.840	191.65	-1.20	1.40	 	 	 	 	 	 	 	 	 	 	 	 	 	 	 	 	 	 	1581502301	7.67	14.20
12/02/2020 10:11:42	120220	12022020	101142	191.61	12.603187	-57.176498	191.70	-0.180	0.510	1.230	191.58	-0.80	1.90	 	 	 	 	 	 	 	 	 	 	 	 	 	 	 	 	 	 	1581502302	7.12	13.19
12/02/2020 10:11:43	120220	12022020	101143	191.27	12.603152	-57.176510	191.34	-1.020	0.070	2.400	191.17	-1.30	3.10	 	 	 	 	 	 	 	 	 	 	 	 	 	 	 	 	 	 	1581502303	7.86	14.56
12/02/2020 10:11:44	120220	12022020	101144	190.69	12.603115	-57.176530	190.72	-1.440	-0.530	3.820	190.54	-1.90	4.50	 	 	 	 	 	 	 	 	 	 	 	 	 	 	 	 	 	 	1581502304	9.15	16.95
12/02/2020 10:11:45	120220	12022020	101145	189.98	12.603077	-57.176555	190.07	-1.300	-0.550	4.810	189.87	-1.80	5.30	 	 	 	 	 	 	 	 	 	 	 	 	 	 	 	 	 	 	1581502305	9.65	17.87
12/02/2020 10:11:46	120220	12022020	101146	189.70	12.603042	-57.176577	189.93	-0.720	0.170	4.520	189.74	-1.00	4.90	 	 	 	 	 	 	 	 	 	 	 	 	 	 	 	 	 	 	1581502306	9.02	16.71
12/02/2020 10:11:47	120220	12022020	101147	190.19	12.603008	-57.176592	190.51	0.080	1.070	2.880	190.36	-0.20	3.10	 	 	 	 	 	 	 	 	 	 	 	 	 	 	 	 	 	 	1581502307	7.60	14.08
12/02/2020 10:11:48	120220	12022020	101148	191.10	12.602977	-57.176595	191.39	0.850	1.130	0.670	191.28	-0.30	0.90	 	 	 	 	 	 	 	 	 	 	 	 	 	 	 	 	 	 	1581502308	6.88	12.74
12/02/2020 10:11:49	120220	12022020	101149	191.86	12.602942	-57.176592	192.02	1.410	-0.090	-1.030	191.95	-1.70	-0.60	 	 	 	 	 	 	 	 	 	 	 	 	 	 	 	 	 	 	1581502309	7.79	14.43
12/02/2020 10:11:50	120220	12022020	101150	192.07	12.602900	-57.176590	192.09	1.520	-1.780	-1.350	192.03	-3.30	-0.80	 	 	 	 	 	 	 	 	 	 	 	 	 	 	 	 	 	 	1581502310	8.92	16.52
12/02/2020 10:11:51	120220	12022020	101151	191.75	12.602858	-57.176593	191.54	1.060	-2.700	-0.380	191.61	-4.00	0.40	 	 	 	 	 	 	 	 	 	 	 	 	 	 	 	 	 	 	1581502311	9.09	16.83
12/02/2020 10:11:52	120220	12022020	101152	190.82	12.602820	-57.176607	190.79	0.120	-2.240	1.230	190.67	-3.40	2.00	 	 	 	 	 	 	 	 	 	 	 	 	 	 	 	 	 	 	1581502312	8.52	15.78
12/02/2020 10:11:53	120220	12022020	101153	190.33	12.602788	-57.176623	190.31	-0.930	-0.770	2.720	190.24	-1.90	3.40	 	 	 	 	 	 	 	 	 	 	 	 	 	 	 	 	 	 	1581502313	7.91	14.65
12/02/2020 10:11:54	120220	12022020	101154	190.04	12.602758	-57.176645	190.23	-1.540	0.670	3.690	190.06	-0.50	4.20	 	 	 	 	 	 	 	 	 	 	 	 	 	 	 	 	 	 	1581502314	7.64	14.15
12/02/2020 10:11:55	120220	12022020	101155	190.33	12.602728	-57.176665	190.63	-1.480	1.390	3.780	190.45	0.10	4.20	 	 	 	 	 	 	 	 	 	 	 	 	 	 	 	 	 	 	1581502315	7.86	14.56
12/02/2020 10:11:56	120220	12022020	101156	191.14	12.602693	-57.176682	191.51	-0.940	1.430	3.090	191.34	0.10	3.40	 	 	 	 	 	 	 	 	 	 	 	 	 	 	 	 	 	 	1581502316	8.19	15.17
12/02/2020 10:11:57	120220	12022020	101157	192.17	12.602657	-57.176692	192.51	-0.230	1.040	1.990	192.36	-0.40	2.30	 	 	 	 	 	 	 	 	 	 	 	 	 	 	 	 	 	 	1581502317	8.27	15.32
12/02/2020 10:11:58	120220	12022020	101158	192.98	12.602618	-57.176700	193.20	0.510	0.280	0.820	193.09	-1.20	1.20	 	 	 	 	 	 	 	 	 	 	 	 	 	 	 	 	 	 	1581502318	8.17	15.13
12/02/2020 10:11:59	120220	12022020	101159	193.28	12.602582	-57.176705	193.36	1.190	-0.640	0.090	193.27	-2.10	0.60	 	 	 	 	 	 	 	 	 	 	 	 	 	 	 	 	 	 	1581502319	8.24	15.26
12/02/2020 10:12:00	120220	12022020	101200	193.06	12.602543	-57.176708	193.08	1.460	-1.360	0.200	192.98	-2.80	0.80	 	 	 	 	 	 	 	 	 	 	 	 	 	 	 	 	 	 	1581502320	8.31	15.39
12/02/2020 10:12:01	120220	12022020	101201	192.64	12.602505	-57.176713	192.69	0.970	-1.580	1.100	192.56	-2.90	1.80	1015.10	26.00	26.00	20.50	20.70	3.0	72.0	72.0	413.0	25.8	260.00	10.50	71.00	12.00	351	9501.0	27.5	27.5	1581502321	8.12	15.04
12/02/2020 10:12:02	120220	12022020	101202	192.31	12.602472	-57.176727	192.42	-0.040	-1.270	2.270	192.27	-2.50	2.90	 	 	 	 	 	 	 	 	 	 	 	 	 	 	 	 	 	 	1581502322	7.81	14.46
12/02/2020 10:12:03	120220	12022020	101203	192.14	12.602440	-57.176745	192.28	-0.920	-0.660	3.150	192.12	-1.90	3.70	 	 	 	 	 	 	 	 	 	 	 	 	 	 	 	 	 	 	1581502323	7.83	14.50
12/02/2020 10:12:04	120220	12022020	101204	192.16	12.602408	-57.176765	192.34	-1.160	-0.070	3.400	192.19	-1.30	3.90	 	 	 	 	 	 	 	 	 	 	 	 	 	 	 	 	 	 	1581502324	7.93	14.69
12/02/2020 10:12:05	120220	12022020	101205	192.34	12.602375	-57.176782	192.53	-0.750	0.300	2.990	192.39	-1.00	3.40	 	 	 	 	 	 	 	 	 	 	 	 	 	 	 	 	 	 	1581502325	7.98	14.78
12/02/2020 10:12:06	120220	12022020	101206	192.53	12.602340	-57.176795	192.67	-0.030	0.400	2.160	192.55	-0.90	2.50	 	 	 	 	 	 	 	 	 	 	 	 	 	 	 	 	 	 	1581502326	8.04	14.89
12/02/2020 10:12:07	120220	12022020	101207	192.64	12.602303	-57.176805	192.75	0.580	0.310	1.300	192.65	-1.00	1.70	 	 	 	 	 	 	 	 	 	 	 	 	 	 	 	 	 	 	1581502327	8.17	15.13
12/02/2020 10:12:08	120220	12022020	101208	192.71	12.602265	-57.176808	192.79	0.800	0.200	0.620	192.71	-1.10	1.10	 	 	 	 	 	 	 	 	 	 	 	 	 	 	 	 	 	 	1581502328	8.25	15.28
12/02/2020 10:12:09	120220	12022020	101209	192.65	12.602228	-57.176813	192.71	0.570	0.060	0.470	192.62	-1.30	1.00	 	 	 	 	 	 	 	 	 	 	 	 	 	 	 	 	 	 	1581502329	8.10	15.00
12/02/2020 10:12:10	120220	12022020	101210	192.56	12.602192	-57.176820	192.67	0.020	-0.200	0.990	192.57	-1.60	1.60	 	 	 	 	 	 	 	 	 	 	 	 	 	 	 	 	 	 	1581502330	7.96	14.74
12/02/2020 10:12:11	120220	12022020	101211	192.70	12.602157	-57.176833	192.87	-0.530	-0.410	1.850	192.74	-1.80	2.40	 	 	 	 	 	 	 	 	 	 	 	 	 	 	 	 	 	 	1581502331	8.01	14.83
12/02/2020 10:12:12	120220	12022020	101212	192.87	12.602123	-57.176853	192.99	-0.620	-0.540	2.540	192.87	-1.90	3.10	 	 	 	 	 	 	 	 	 	 	 	 	 	 	 	 	 	 	1581502332	8.11	15.02
12/02/2020 10:12:13	120220	12022020	101213	192.69	12.602092	-57.176872	192.73	-0.060	-0.750	2.880	192.60	-2.10	3.40	 	 	 	 	 	 	 	 	 	 	 	 	 	 	 	 	 	 	1581502333	8.00	14.82
12/02/2020 10:12:14	120220	12022020	101214	192.17	12.602057	-57.176885	192.18	0.710	-0.950	2.800	192.06	-2.30	3.30	 	 	 	 	 	 	 	 	 	 	 	 	 	 	 	 	 	 	1581502334	8.02	14.85
12/02/2020 10:12:15	120220	12022020	101215	191.76	12.602020	-57.176895	191.82	0.940	-0.840	2.450	191.72	-2.10	2.90	 	 	 	 	 	 	 	 	 	 	 	 	 	 	 	 	 	 	1581502335	8.15	15.09
12/02/2020 10:12:16	120220	12022020	101216	191.70	12.601983	-57.176900	191.80	0.440	-0.430	2.140	191.71	-1.70	2.60	 	 	 	 	 	 	 	 	 	 	 	 	 	 	 	 	 	 	1581502336	7.94	14.70
12/02/2020 10:12:17	120220	12022020	101217	191.72	12.601948	-57.176908	191.82	-0.290	-0.100	2.160	191.71	-1.40	2.70	 	 	 	 	 	 	 	 	 	 	 	 	 	 	 	 	 	 	1581502337	7.67	14.20
12/02/2020 10:12:18	120220	12022020	101218	191.60	12.601913	-57.176922	191.68	-0.660	-0.120	2.430	191.57	-1.50	2.90	 	 	 	 	 	 	 	 	 	 	 	 	 	 	 	 	 	 	1581502338	7.94	14.70
12/02/2020 10:12:19	120220	12022020	101219	191.58	12.601877	-57.176937	191.73	-0.580	-0.140	2.460	191.61	-1.40	2.90	 	 	 	 	 	 	 	 	 	 	 	 	 	 	 	 	 	 	1581502339	8.52	15.78
12/02/2020 10:12:20	120220	12022020	101220	191.88	12.601840	-57.176950	192.06	-0.340	0.120	2.190	191.95	-1.20	2.60	 	 	 	 	 	 	 	 	 	 	 	 	 	 	 	 	 	 	1581502340	8.45	15.65
12/02/2020 10:12:21	120220	12022020	101221	192.26	12.601805	-57.176962	192.42	-0.110	0.460	1.700	192.33	-0.80	2.10	 	 	 	 	 	 	 	 	 	 	 	 	 	 	 	 	 	 	1581502341	7.94	14.70
12/02/2020 10:12:22	120220	12022020	101222	192.65	12.601772	-57.176972	192.83	0.080	0.560	1.000	192.75	-0.80	1.40	 	 	 	 	 	 	 	 	 	 	 	 	 	 	 	 	 	 	1581502342	7.66	14.19
12/02/2020 10:12:23	120220	12022020	101223	193.14	12.601737	-57.176978	193.29	0.190	0.370	0.580	193.22	-1.00	1.10	 	 	 	 	 	 	 	 	 	 	 	 	 	 	 	 	 	 	1581502343	7.73	14.32
12/02/2020 10:12:24	120220	12022020	101224	193.40	12.601700	-57.176987	193.46	0.280	-0.100	0.680	193.39	-1.50	1.20	 	 	 	 	 	 	 	 	 	 	 	 	 	 	 	 	 	 	1581502344	7.77	14.39
12/02/2020 10:12:25	120220	12022020	101225	193.15	12.601665	-57.176997	193.11	0.450	-0.770	1.190	193.04	-2.20	1.80	 	 	 	 	 	 	 	 	 	 	 	 	 	 	 	 	 	 	1581502345	7.93	14.69
12/02/2020 10:12:26	120220	12022020	101226	192.53	12.601628	-57.177010	192.51	0.630	-1.260	1.960	192.40	-2.60	2.60	 	 	 	 	 	 	 	 	 	 	 	 	 	 	 	 	 	 	1581502346	8.23	15.24
12/02/2020 10:12:27	120220	12022020	101227	191.94	12.601593	-57.177022	191.97	0.630	-1.260	2.640	191.84	-2.60	3.20	 	 	 	 	 	 	 	 	 	 	 	 	 	 	 	 	 	 	1581502347	8.25	15.28
12/02/2020 10:12:28	120220	12022020	101228	191.59	12.601558	-57.177035	191.68	0.370	-0.790	2.830	191.56	-2.10	3.30	 	 	 	 	 	 	 	 	 	 	 	 	 	 	 	 	 	 	1581502348	7.95	14.72
12/02/2020 10:12:29	120220	12022020	101229	191.52	12.601523	-57.177045	191.64	-0.160	-0.360	2.770	191.52	-1.70	3.30	 	 	 	 	 	 	 	 	 	 	 	 	 	 	 	 	 	 	1581502349	7.64	14.15
12/02/2020 10:12:30	120220	12022020	101230	191.58	12.601488	-57.177055	191.72	-0.800	-0.280	2.910	191.60	-1.60	3.40	 	 	 	 	 	 	 	 	 	 	 	 	 	 	 	 	 	 	1581502350	7.85	14.54
12/02/2020 10:12:31	120220	12022020	101231	191.65	12.601453	-57.177072	191.78	-1.250	-0.300	3.180	191.65	-1.60	3.70	 	 	 	 	 	 	 	 	 	 	 	 	 	 	 	 	 	 	1581502351	8.42	15.59
12/02/2020 10:12:32	120220	12022020	101232	191.66	12.601417	-57.177092	191.76	-1.190	-0.120	3.280	191.65	-1.40	3.70	 	 	 	 	 	 	 	 	 	 	 	 	 	 	 	 	 	 	1581502352	8.70	16.11
12/02/2020 10:12:33	120220	12022020	101233	191.61	12.601382	-57.177108	191.70	-0.540	0.210	2.970	191.61	-1.10	3.40	 	 	 	 	 	 	 	 	 	 	 	 	 	 	 	 	 	 	1581502353	8.44	15.63
12/02/2020 10:12:34	120220	12022020	101234	191.64	12.601347	-57.177122	191.74	0.340	0.510	2.220	191.66	-0.80	2.60	 	 	 	 	 	 	 	 	 	 	 	 	 	 	 	 	 	 	1581502354	8.07	14.95
12/02/2020 10:12:35	120220	12022020	101235	191.73	12.601310	-57.177128	191.79	0.960	0.600	1.310	191.74	-0.80	1.70	 	 	 	 	 	 	 	 	 	 	 	 	 	 	 	 	 	 	1581502355	7.91	14.65
12/02/2020 10:12:36	120220	12022020	101236	191.75	12.601273	-57.177128	191.79	1.100	0.370	0.600	191.75	-1.10	1.00	 	 	 	 	 	 	 	 	 	 	 	 	 	 	 	 	 	 	1581502356	8.02	14.85
12/02/2020 10:12:37	120220	12022020	101237	191.81	12.601235	-57.177130	191.88	0.790	-0.050	0.360	191.84	-1.50	0.90	 	 	 	 	 	 	 	 	 	 	 	 	 	 	 	 	 	 	1581502357	8.18	15.15
12/02/2020 10:12:38	120220	12022020	101238	191.95	12.601198	-57.177135	192.02	0.280	-0.490	0.800	191.96	-1.90	1.40	 	 	 	 	 	 	 	 	 	 	 	 	 	 	 	 	 	 	1581502358	8.00	14.82
12/02/2020 10:12:39	120220	12022020	101239	191.83	12.601163	-57.177147	191.83	-0.120	-1.170	1.890	191.75	-2.70	2.60	 	 	 	 	 	 	 	 	 	 	 	 	 	 	 	 	 	 	1581502359	7.92	14.67
12/02/2020 10:12:40	120220	12022020	101240	191.24	12.601127	-57.177163	191.18	-0.280	-1.900	3.280	191.08	-3.30	3.90	 	 	 	 	 	 	 	 	 	 	 	 	 	 	 	 	 	 	1581502360	8.53	15.80
12/02/2020 10:12:41	120220	12022020	101241	190.57	12.601090	-57.177183	190.39	-0.350	-1.890	4.460	190.42	-3.20	5.00	 	 	 	 	 	 	 	 	 	 	 	 	 	 	 	 	 	 	1581502361	9.11	16.87
12/02/2020 10:12:42	120220	12022020	101242	189.87	12.601055	-57.177203	189.96	-0.540	-0.790	4.870	189.83	-1.90	5.30	 	 	 	 	 	 	 	 	 	 	 	 	 	 	 	 	 	 	1581502362	8.70	16.11
12/02/2020 10:12:43	120220	12022020	101243	189.86	12.601023	-57.177220	190.09	-0.780	0.680	4.320	189.91	-0.50	4.60	 	 	 	 	 	 	 	 	 	 	 	 	 	 	 	 	 	 	1581502363	7.57	14.02
12/02/2020 10:12:44	120220	12022020	101244	190.28	12.600992	-57.177230	190.47	-0.700	1.290	3.110	190.36	-0.10	3.40	 	 	 	 	 	 	 	 	 	 	 	 	 	 	 	 	 	 	1581502364	7.01	12.98
12/02/2020 10:12:45	120220	12022020	101245	190.64	12.600957	-57.177238	190.79	-0.040	0.730	1.700	190.70	-0.80	2.00	 	 	 	 	 	 	 	 	 	 	 	 	 	 	 	 	 	 	1581502365	7.79	14.43
12/02/2020 10:12:46	120220	12022020	101246	190.95	12.600915	-57.177242	191.08	0.770	-0.150	0.550	191.01	-1.60	0.90	 	 	 	 	 	 	 	 	 	 	 	 	 	 	 	 	 	 	1581502366	8.92	16.52
12/02/2020 10:12:47	120220	12022020	101247	191.25	12.600873	-57.177243	191.37	1.030	-0.600	0.020	191.31	-2.00	0.50	 	 	 	 	 	 	 	 	 	 	 	 	 	 	 	 	 	 	1581502367	9.08	16.82
12/02/2020 10:12:48	120220	12022020	101248	191.53	12.600835	-57.177247	191.65	0.570	-0.420	0.100	191.58	-1.70	0.70	 	 	 	 	 	 	 	 	 	 	 	 	 	 	 	 	 	 	1581502368	8.27	15.32
12/02/2020 10:12:49	120220	12022020	101249	191.72	12.600802	-57.177253	191.81	-0.150	-0.080	0.730	191.73	-1.40	1.30	 	 	 	 	 	 	 	 	 	 	 	 	 	 	 	 	 	 	1581502369	7.38	13.67
12/02/2020 10:12:50	120220	12022020	101250	191.65	12.600770	-57.177267	191.68	-0.510	-0.260	1.660	191.59	-1.70	2.30	 	 	 	 	 	 	 	 	 	 	 	 	 	 	 	 	 	 	1581502370	7.34	13.59
12/02/2020 10:12:51	120220	12022020	101251	191.31	12.600735	-57.177282	191.34	-0.390	-0.850	2.620	191.23	-2.30	3.20	 	 	 	 	 	 	 	 	 	 	 	 	 	 	 	 	 	 	1581502371	8.15	15.09
12/02/2020 10:12:52	120220	12022020	101252	190.97	12.600697	-57.177298	191.03	-0.180	-1.180	3.300	190.91	-2.50	3.80	 	 	 	 	 	 	 	 	 	 	 	 	 	 	 	 	 	 	1581502372	8.81	16.32
12/02/2020 10:12:53	120220	12022020	101253	190.73	12.600660	-57.177313	190.82	-0.130	-0.920	3.510	190.70	-2.20	4.00	 	 	 	 	 	 	 	 	 	 	 	 	 	 	 	 	 	 	1581502373	8.62	15.96
12/02/2020 10:12:54	120220	12022020	101254	190.62	12.600625	-57.177327	190.73	-0.230	-0.270	3.270	190.61	-1.50	3.70	 	 	 	 	 	 	 	 	 	 	 	 	 	 	 	 	 	 	1581502374	8.07	14.95
12/02/2020 10:12:55	120220	12022020	101255	190.65	12.600590	-57.177337	190.79	-0.250	0.400	2.630	190.67	-0.90	3.00	 	 	 	 	 	 	 	 	 	 	 	 	 	 	 	 	 	 	1581502375	7.67	14.20
12/02/2020 10:12:56	120220	12022020	101256	190.87	12.600555	-57.177343	191.05	-0.180	0.810	1.760	190.94	-0.50	2.10	 	 	 	 	 	 	 	 	 	 	 	 	 	 	 	 	 	 	1581502376	7.69	14.24
12/02/2020 10:12:57	120220	12022020	101257	191.25	12.600520	-57.177350	191.40	-0.080	0.700	0.900	191.31	-0.70	1.30	 	 	 	 	 	 	 	 	 	 	 	 	 	 	 	 	 	 	1581502377	7.69	14.24
12/02/2020 10:12:58	120220	12022020	101258	191.48	12.600483	-57.177357	191.56	0.050	0.080	0.400	191.49	-1.40	0.90	 	 	 	 	 	 	 	 	 	 	 	 	 	 	 	 	 	 	1581502378	8.03	14.87
12/02/2020 10:12:59	120220	12022020	101259	191.53	12.600445	-57.177365	191.59	0.260	-0.570	0.340	191.53	-2.00	0.80	 	 	 	 	 	 	 	 	 	 	 	 	 	 	 	 	 	 	1581502379	8.38	15.52
12/02/2020 10:13:00	120220	12022020	101300	191.50	12.600408	-57.177373	191.56	0.550	-0.920	0.500	191.49	-2.30	1.00	 	 	 	 	 	 	 	 	 	 	 	 	 	 	 	 	 	 	1581502380	8.32	15.41
12/02/2020 10:13:01	120220	12022020	101301	191.38	12.600372	-57.177383	191.42	0.700	-1.100	0.940	191.34	-2.50	1.50	1015.10	26.00	26.10	20.70	20.80	4.0	72.0	72.0	415.0	25.8	259.00	10.40	71.00	11.90	407	9435.0	27.5	27.5	1581502381	8.06	14.93
12/02/2020 10:13:02	120220	12022020	101302	191.14	12.600335	-57.177392	191.19	0.410	-1.090	1.860	191.09	-2.40	2.50	 	 	 	 	 	 	 	 	 	 	 	 	 	 	 	 	 	 	1581502382	8.11	15.02
12/02/2020 10:13:03	120220	12022020	101303	190.92	12.600298	-57.177405	191.01	-0.320	-0.730	2.980	190.88	-2.00	3.60	 	 	 	 	 	 	 	 	 	 	 	 	 	 	 	 	 	 	1581502383	8.17	15.13
12/02/2020 10:13:04	120220	12022020	101304	190.81	12.600265	-57.177423	190.94	-1.030	-0.100	3.730	190.80	-1.40	4.30	 	 	 	 	 	 	 	 	 	 	 	 	 	 	 	 	 	 	1581502384	8.17	15.13
12/02/2020 10:13:05	120220	12022020	101305	190.79	12.600233	-57.177442	190.94	-1.090	0.500	3.880	190.79	-0.80	4.30	 	 	 	 	 	 	 	 	 	 	 	 	 	 	 	 	 	 	1581502385	8.08	14.96
12/02/2020 10:13:06	120220	12022020	101306	190.81	12.600200	-57.177458	190.96	-0.350	0.790	3.390	190.82	-0.60	3.70	 	 	 	 	 	 	 	 	 	 	 	 	 	 	 	 	 	 	1581502386	7.98	14.78
12/02/2020 10:13:07	120220	12022020	101307	190.90	12.600163	-57.177468	191.11	0.590	0.620	2.320	190.94	-0.80	2.60	 	 	 	 	 	 	 	 	 	 	 	 	 	 	 	 	 	 	1581502387	7.96	14.74
12/02/2020 10:13:08	120220	12022020	101308	191.22	12.600125	-57.177470	191.38	0.960	0.040	1.370	191.27	-1.40	1.80	 	 	 	 	 	 	 	 	 	 	 	 	 	 	 	 	 	 	1581502388	8.27	15.32
12/02/2020 10:13:09	120220	12022020	101309	191.34	12.600087	-57.177473	191.42	0.640	-0.690	1.250	191.32	-2.20	1.80	 	 	 	 	 	 	 	 	 	 	 	 	 	 	 	 	 	 	1581502389	8.38	15.52
12/02/2020 10:13:10	120220	12022020	101310	191.02	12.600048	-57.177480	191.03	0.070	-1.300	1.930	190.91	-2.70	2.50	 	 	 	 	 	 	 	 	 	 	 	 	 	 	 	 	 	 	1581502390	8.26	15.30
12/02/2020 10:13:11	120220	12022020	101311	190.42	12.600012	-57.177493	190.43	-0.300	-1.460	2.810	190.30	-2.80	3.40	 	 	 	 	 	 	 	 	 	 	 	 	 	 	 	 	 	 	1581502391	8.33	15.43
12/02/2020 10:13:12	120220	12022020	101312	189.87	12.599977	-57.177510	189.94	-0.370	-1.020	3.400	189.80	-2.30	3.90	 	 	 	 	 	 	 	 	 	 	 	 	 	 	 	 	 	 	1581502392	8.27	15.32
12/02/2020 10:13:13	120220	12022020	101313	189.67	12.599943	-57.177527	189.86	-0.290	-0.220	3.360	189.70	-1.50	3.80	 	 	 	 	 	 	 	 	 	 	 	 	 	 	 	 	 	 	1581502393	7.94	14.70
12/02/2020 10:13:14	120220	12022020	101314	189.96	12.599910	-57.177538	190.23	-0.170	0.450	2.620	190.07	-0.90	3.00	 	 	 	 	 	 	 	 	 	 	 	 	 	 	 	 	 	 	1581502394	7.57	14.02
12/02/2020 10:13:15	120220	12022020	101315	190.59	12.599877	-57.177547	190.87	-0.010	0.600	1.560	190.72	-0.80	1.90	 	 	 	 	 	 	 	 	 	 	 	 	 	 	 	 	 	 	1581502395	7.58	14.04
12/02/2020 10:13:16	120220	12022020	101316	191.16	12.599840	-57.177550	191.38	0.230	0.140	0.790	191.24	-1.30	1.20	 	 	 	 	 	 	 	 	 	 	 	 	 	 	 	 	 	 	1581502396	8.03	14.87
12/02/2020 10:13:17	120220	12022020	101317	191.41	12.599800	-57.177555	191.58	0.340	-0.430	0.730	191.44	-1.90	1.30	 	 	 	 	 	 	 	 	 	 	 	 	 	 	 	 	 	 	1581502397	8.55	15.83
12/02/2020 10:13:18	120220	12022020	101318	191.41	12.599760	-57.177563	191.49	0.080	-0.570	1.260	191.36	-1.90	1.80	 	 	 	 	 	 	 	 	 	 	 	 	 	 	 	 	 	 	1581502398	8.51	15.76
12/02/2020 10:13:19	120220	12022020	101319	191.16	12.599725	-57.177575	191.13	-0.380	-0.400	2.090	191.08	-1.80	2.70	 	 	 	 	 	 	 	 	 	 	 	 	 	 	 	 	 	 	1581502399	8.01	14.83
12/02/2020 10:13:20	120220	12022020	101320	190.57	12.599692	-57.177590	190.60	-0.570	-0.340	2.830	190.47	-1.70	3.40	 	 	 	 	 	 	 	 	 	 	 	 	 	 	 	 	 	 	1581502400	7.93	14.69
12/02/2020 10:13:21	120220	12022020	101321	190.11	12.599657	-57.177607	190.21	-0.280	-0.290	3.030	190.06	-1.60	3.50	 	 	 	 	 	 	 	 	 	 	 	 	 	 	 	 	 	 	1581502401	8.26	15.30
12/02/2020 10:13:22	120220	12022020	101322	189.99	12.599622	-57.177622	190.16	0.270	-0.020	2.600	190.01	-1.30	3.00	 	 	 	 	 	 	 	 	 	 	 	 	 	 	 	 	 	 	1581502402	8.18	15.15
12/02/2020 10:13:23	120220	12022020	101323	190.31	12.599587	-57.177630	190.56	0.660	0.350	1.640	190.43	-1.00	2.00	 	 	 	 	 	 	 	 	 	 	 	 	 	 	 	 	 	 	1581502403	7.74	14.33
12/02/2020 10:13:24	120220	12022020	101324	190.94	12.599552	-57.177632	191.17	0.640	0.350	0.750	191.06	-1.10	1.20	 	 	 	 	 	 	 	 	 	 	 	 	 	 	 	 	 	 	1581502404	7.50	13.89
12/02/2020 10:13:25	120220	12022020	101325	191.43	12.599517	-57.177635	191.58	0.370	-0.290	0.630	191.49	-1.80	1.20	 	 	 	 	 	 	 	 	 	 	 	 	 	 	 	 	 	 	1581502405	7.74	14.33
12/02/2020 10:13:26	120220	12022020	101326	191.60	12.599478	-57.177643	191.70	0.050	-1.070	1.180	191.59	-2.50	1.80	 	 	 	 	 	 	 	 	 	 	 	 	 	 	 	 	 	 	1581502406	8.30	15.37
12/02/2020 10:13:27	120220	12022020	101327	191.51	12.599442	-57.177657	191.59	-0.170	-1.320	1.920	191.48	-2.70	2.50	 	 	 	 	 	 	 	 	 	 	 	 	 	 	 	 	 	 	1581502407	8.49	15.72
12/02/2020 10:13:28	120220	12022020	101328	191.28	12.599407	-57.177672	191.34	-0.230	-1.130	2.490	191.21	-2.50	3.00	 	 	 	 	 	 	 	 	 	 	 	 	 	 	 	 	 	 	1581502408	8.17	15.13
12/02/2020 10:13:29	120220	12022020	101329	190.86	12.599372	-57.177687	190.87	-0.180	-0.810	2.830	190.75	-2.10	3.30	 	 	 	 	 	 	 	 	 	 	 	 	 	 	 	 	 	 	1581502409	7.94	14.70
12/02/2020 10:13:30	120220	12022020	101330	190.28	12.599337	-57.177698	190.28	-0.120	-0.550	2.960	190.17	-1.90	3.40	 	 	 	 	 	 	 	 	 	 	 	 	 	 	 	 	 	 	1581502410	8.08	14.96
12/02/2020 10:13:31	120220	12022020	101331	189.93	12.599298	-57.177710	190.01	-0.200	-0.190	2.780	189.89	-1.50	3.20	 	 	 	 	 	 	 	 	 	 	 	 	 	 	 	 	 	 	1581502411	8.36	15.48
12/02/2020 10:13:32	120220	12022020	101332	189.97	12.599262	-57.177718	190.19	-0.440	0.330	2.410	190.05	-1.00	2.80	 	 	 	 	 	 	 	 	 	 	 	 	 	 	 	 	 	 	1581502412	8.29	15.35
12/02/2020 10:13:33	120220	12022020	101333	190.36	12.599225	-57.177728	190.75	-0.660	0.880	1.910	190.48	-0.40	2.30	 	 	 	 	 	 	 	 	 	 	 	 	 	 	 	 	 	 	1581502413	8.00	14.82
12/02/2020 10:13:34	120220	12022020	101334	191.15	12.599192	-57.177737	191.39	-0.570	1.100	1.240	191.26	-0.30	1.60	 	 	 	 	 	 	 	 	 	 	 	 	 	 	 	 	 	 	1581502414	7.72	14.30
12/02/2020 10:13:35	120220	12022020	101335	191.70	12.599155	-57.177745	191.90	-0.120	0.670	0.740	191.80	-0.80	1.20	 	 	 	 	 	 	 	 	 	 	 	 	 	 	 	 	 	 	1581502415	7.79	14.43
12/02/2020 10:13:36	120220	12022020	101336	192.17	12.599118	-57.177753	192.34	0.470	-0.140	0.570	192.25	-1.60	1.00	 	 	 	 	 	 	 	 	 	 	 	 	 	 	 	 	 	 	1581502416	8.26	15.30
12/02/2020 10:13:37	120220	12022020	101337	192.45	12.599080	-57.177762	192.56	0.880	-0.810	0.700	192.47	-2.30	1.20	 	 	 	 	 	 	 	 	 	 	 	 	 	 	 	 	 	 	1581502417	8.41	15.58
12/02/2020 10:13:38	120220	12022020	101338	192.38	12.599043	-57.177772	192.43	0.900	-1.100	1.290	192.32	-2.50	1.90	 	 	 	 	 	 	 	 	 	 	 	 	 	 	 	 	 	 	1581502418	8.12	15.04
12/02/2020 10:13:39	120220	12022020	101339	192.00	12.599008	-57.177782	192.02	0.510	-1.010	2.110	191.90	-2.40	2.70	 	 	 	 	 	 	 	 	 	 	 	 	 	 	 	 	 	 	1581502419	7.79	14.43
12/02/2020 10:13:40	120220	12022020	101340	191.53	12.598975	-57.177793	191.54	-0.050	-0.770	2.900	191.43	-2.10	3.50	 	 	 	 	 	 	 	 	 	 	 	 	 	 	 	 	 	 	1581502420	7.65	14.17
12/02/2020 10:13:41	120220	12022020	101341	190.98	12.598942	-57.177810	191.00	-0.390	-0.690	3.450	190.87	-2.10	3.90	 	 	 	 	 	 	 	 	 	 	 	 	 	 	 	 	 	 	1581502421	7.88	14.59
12/02/2020 10:13:42	120220	12022020	101342	190.52	12.598907	-57.177825	190.60	-0.320	-0.670	3.420	190.47	-2.00	3.80	 	 	 	 	 	 	 	 	 	 	 	 	 	 	 	 	 	 	1581502422	8.38	15.52
12/02/2020 10:13:43	120220	12022020	101343	190.45	12.598868	-57.177840	190.70	-0.010	-0.280	2.580	190.49	-1.60	2.90	 	 	 	 	 	 	 	 	 	 	 	 	 	 	 	 	 	 	1581502423	8.50	15.74
12/02/2020 10:13:44	120220	12022020	101344	191.01	12.598832	-57.177847	191.27	0.190	0.300	1.250	191.15	-1.00	1.60	 	 	 	 	 	 	 	 	 	 	 	 	 	 	 	 	 	 	1581502424	8.01	14.83
12/02/2020 10:13:45	120220	12022020	101345	191.69	12.598797	-57.177850	191.90	0.050	0.440	0.410	191.80	-1.00	0.90	 	 	 	 	 	 	 	 	 	 	 	 	 	 	 	 	 	 	1581502425	7.74	14.33
12/02/2020 10:13:46	120220	12022020	101346	192.03	12.598760	-57.177855	192.12	-0.330	0.010	0.610	192.03	-1.40	1.20	 	 	 	 	 	 	 	 	 	 	 	 	 	 	 	 	 	 	1581502426	8.04	14.89
12/02/2020 10:13:47	120220	12022020	101347	191.88	12.598722	-57.177867	191.93	-0.610	-0.460	1.440	191.82	-1.90	2.00	 	 	 	 	 	 	 	 	 	 	 	 	 	 	 	 	 	 	1581502427	8.50	15.74
12/02/2020 10:13:48	120220	12022020	101348	191.64	12.598685	-57.177882	191.74	-0.590	-0.410	2.110	191.62	-1.70	2.60	 	 	 	 	 	 	 	 	 	 	 	 	 	 	 	 	 	 	1581502428	8.58	15.89
12/02/2020 10:13:49	120220	12022020	101349	191.61	12.598652	-57.177897	191.72	-0.300	-0.080	2.300	191.60	-1.40	2.80	 	 	 	 	 	 	 	 	 	 	 	 	 	 	 	 	 	 	1581502429	7.99	14.80
12/02/2020 10:13:50	120220	12022020	101350	191.45	12.598618	-57.177910	191.49	0.160	-0.100	2.340	191.38	-1.50	2.80	 	 	 	 	 	 	 	 	 	 	 	 	 	 	 	 	 	 	1581502430	7.61	14.09
12/02/2020 10:13:51	120220	12022020	101351	191.04	12.598582	-57.177920	191.06	0.570	-0.430	2.370	190.95	-1.80	2.80	 	 	 	 	 	 	 	 	 	 	 	 	 	 	 	 	 	 	1581502431	8.04	14.89
12/02/2020 10:13:52	120220	12022020	101352	190.65	12.598543	-57.177928	190.70	0.720	-0.560	2.310	190.59	-1.90	2.80	 	 	 	 	 	 	 	 	 	 	 	 	 	 	 	 	 	 	1581502432	8.41	15.58
12/02/2020 10:13:53	120220	12022020	101353	190.47	12.598507	-57.177937	190.58	0.550	-0.310	2.200	190.47	-1.60	2.70	 	 	 	 	 	 	 	 	 	 	 	 	 	 	 	 	 	 	1581502433	8.16	15.11
12/02/2020 10:13:54	120220	12022020	101354	190.60	12.598472	-57.177947	190.77	0.230	0.080	2.000	190.66	-1.20	2.40	 	 	 	 	 	 	 	 	 	 	 	 	 	 	 	 	 	 	1581502434	7.75	14.35
12/02/2020 10:13:55	120220	12022020	101355	190.94	12.598438	-57.177955	191.12	-0.090	0.280	1.780	191.02	-1.10	2.20	 	 	 	 	 	 	 	 	 	 	 	 	 	 	 	 	 	 	1581502435	7.52	13.93
12/02/2020 10:13:56	120220	12022020	101356	191.27	12.598403	-57.177963	191.43	-0.370	0.050	1.750	191.32	-1.40	2.20	 	 	 	 	 	 	 	 	 	 	 	 	 	 	 	 	 	 	1581502436	7.65	14.17
12/02/2020 10:13:57	120220	12022020	101357	191.42	12.598367	-57.177975	191.52	-0.490	-0.540	1.970	191.42	-2.00	2.50	 	 	 	 	 	 	 	 	 	 	 	 	 	 	 	 	 	 	1581502437	8.05	14.91
12/02/2020 10:13:58	120220	12022020	101358	191.32	12.598330	-57.177990	191.37	-0.300	-1.120	2.220	191.28	-2.50	2.70	 	 	 	 	 	 	 	 	 	 	 	 	 	 	 	 	 	 	1581502438	8.55	15.83
12/02/2020 10:13:59	120220	12022020	101359	191.11	12.598293	-57.178005	191.16	0.090	-1.150	2.280	191.08	-2.50	2.70	 	 	 	 	 	 	 	 	 	 	 	 	 	 	 	 	 	 	1581502439	8.63	15.98
12/02/2020 10:14:00	120220	12022020	101400	190.93	12.598257	-57.178015	190.98	0.380	-0.590	2.020	190.91	-1.90	2.40	 	 	 	 	 	 	 	 	 	 	 	 	 	 	 	 	 	 	1581502440	8.14	15.08
12/02/2020 10:14:01	120220	12022020	101401	190.88	12.598222	-57.178023	190.97	0.350	0.070	1.510	190.90	-1.20	1.90	1015.20	26.10	26.10	21.00	21.00	4.0	73.0	73.0	416.0	25.8	262.00	9.70	71.00	11.10	469	9057.0	27.5	27.5	1581502441	7.61	14.09
12/02/2020 10:14:02	120220	12022020	101402	190.99	12.598187	-57.178027	191.08	0.060	0.300	1.200	191.01	-1.10	1.70	 	 	 	 	 	 	 	 	 	 	 	 	 	 	 	 	 	 	1581502442	7.61	14.09
12/02/2020 10:14:03	120220	12022020	101403	191.04	12.598150	-57.178033	191.12	-0.310	0.060	1.430	191.04	-1.40	2.00	 	 	 	 	 	 	 	 	 	 	 	 	 	 	 	 	 	 	1581502443	8.03	14.87
12/02/2020 10:14:04	120220	12022020	101404	190.99	12.598112	-57.178043	191.06	-0.560	-0.190	2.040	190.97	-1.60	2.60	 	 	 	 	 	 	 	 	 	 	 	 	 	 	 	 	 	 	1581502444	8.46	15.67
12/02/2020 10:14:05	120220	12022020	101405	190.90	12.598075	-57.178058	191.00	-0.550	-0.180	2.550	190.89	-1.50	3.00	 	 	 	 	 	 	 	 	 	 	 	 	 	 	 	 	 	 	1581502445	8.50	15.74
12/02/2020 10:14:06	120220	12022020	101406	190.92	12.598040	-57.178073	191.05	-0.240	-0.120	2.640	190.93	-1.50	3.10	 	 	 	 	 	 	 	 	 	 	 	 	 	 	 	 	 	 	1581502446	8.20	15.19
12/02/2020 10:14:07	120220	12022020	101407	190.97	12.598005	-57.178087	191.06	0.240	-0.220	2.440	190.97	-1.60	2.90	 	 	 	 	 	 	 	 	 	 	 	 	 	 	 	 	 	 	1581502447	8.10	15.00
12/02/2020 10:14:08	120220	12022020	101408	190.91	12.597968	-57.178097	190.99	0.620	-0.240	2.080	190.90	-1.60	2.50	 	 	 	 	 	 	 	 	 	 	 	 	 	 	 	 	 	 	1581502448	8.16	15.11
12/02/2020 10:14:09	120220	12022020	101409	190.90	12.597932	-57.178105	191.02	0.630	-0.070	1.620	190.92	-1.40	2.00	 	 	 	 	 	 	 	 	 	 	 	 	 	 	 	 	 	 	1581502449	8.02	14.85
12/02/2020 10:14:10	120220	12022020	101410	191.09	12.597897	-57.178110	191.20	0.340	0.120	1.180	191.13	-1.30	1.60	 	 	 	 	 	 	 	 	 	 	 	 	 	 	 	 	 	 	1581502450	7.70	14.26
12/02/2020 10:14:11	120220	12022020	101411	191.25	12.597862	-57.178117	191.39	0.000	-0.040	0.930	191.29	-1.50	1.40	 	 	 	 	 	 	 	 	 	 	 	 	 	 	 	 	 	 	1581502451	7.60	14.08
12/02/2020 10:14:12	120220	12022020	101412	191.44	12.597827	-57.178125	191.52	-0.190	-0.550	1.060	191.45	-2.00	1.60	 	 	 	 	 	 	 	 	 	 	 	 	 	 	 	 	 	 	1581502452	7.94	14.70
12/02/2020 10:14:13	120220	12022020	101413	191.41	12.597788	-57.178135	191.43	-0.260	-1.150	1.520	191.36	-2.60	2.10	 	 	 	 	 	 	 	 	 	 	 	 	 	 	 	 	 	 	1581502453	8.37	15.50
12/02/2020 10:14:14	120220	12022020	101414	191.09	12.597750	-57.178150	191.08	-0.260	-1.460	2.300	191.00	-2.80	2.90	 	 	 	 	 	 	 	 	 	 	 	 	 	 	 	 	 	 	1581502454	8.66	16.04
12/02/2020 10:14:15	120220	12022020	101415	190.67	12.597713	-57.178165	190.69	-0.200	-1.170	2.910	190.60	-2.40	3.40	 	 	 	 	 	 	 	 	 	 	 	 	 	 	 	 	 	 	1581502455	8.68	16.08
12/02/2020 10:14:16	120220	12022020	101416	190.43	12.597678	-57.178180	190.50	-0.080	-0.330	2.890	190.41	-1.60	3.30	 	 	 	 	 	 	 	 	 	 	 	 	 	 	 	 	 	 	1581502456	8.26	15.30
12/02/2020 10:14:17	120220	12022020	101417	190.41	12.597643	-57.178192	190.53	0.080	0.480	2.470	190.44	-0.80	2.90	 	 	 	 	 	 	 	 	 	 	 	 	 	 	 	 	 	 	1581502457	7.75	14.35
12/02/2020 10:14:18	120220	12022020	101418	190.65	12.597608	-57.178198	190.82	0.210	0.870	1.730	190.73	-0.50	2.10	 	 	 	 	 	 	 	 	 	 	 	 	 	 	 	 	 	 	1581502458	7.79	14.43
12/02/2020 10:14:19	120220	12022020	101419	191.09	12.597570	-57.178203	191.25	0.140	0.870	1.010	191.17	-0.50	1.40	 	 	 	 	 	 	 	 	 	 	 	 	 	 	 	 	 	 	1581502459	8.07	14.95
12/02/2020 10:14:20	120220	12022020	101420	191.43	12.597533	-57.178207	191.55	-0.140	0.460	0.790	191.48	-1.00	1.30	 	 	 	 	 	 	 	 	 	 	 	 	 	 	 	 	 	 	1581502460	8.18	15.15
12/02/2020 10:14:21	120220	12022020	101421	191.59	12.597495	-57.178215	191.73	-0.440	-0.220	1.090	191.62	-1.70	1.60	 	 	 	 	 	 	 	 	 	 	 	 	 	 	 	 	 	 	1581502461	8.30	15.37
12/02/2020 10:14:22	120220	12022020	101422	191.71	12.597458	-57.178228	191.78	-0.460	-0.820	1.680	191.70	-2.20	2.20	 	 	 	 	 	 	 	 	 	 	 	 	 	 	 	 	 	 	1581502462	8.48	15.70
12/02/2020 10:14:23	120220	12022020	101423	191.60	12.597422	-57.178245	191.55	0.040	-1.210	2.140	191.54	-2.60	2.60	 	 	 	 	 	 	 	 	 	 	 	 	 	 	 	 	 	 	1581502463	8.48	15.70
12/02/2020 10:14:24	120220	12022020	101424	191.18	12.597385	-57.178258	191.22	0.710	-1.300	2.150	191.14	-2.60	2.60	 	 	 	 	 	 	 	 	 	 	 	 	 	 	 	 	 	 	1581502464	8.38	15.52
12/02/2020 10:14:25	120220	12022020	101425	191.08	12.597348	-57.178267	191.20	0.800	-0.830	2.000	191.10	-2.10	2.50	 	 	 	 	 	 	 	 	 	 	 	 	 	 	 	 	 	 	1581502465	8.22	15.22
12/02/2020 10:14:26	120220	12022020	101426	191.19	12.597313	-57.178275	191.30	0.190	-0.170	1.940	191.21	-1.50	2.40	 	 	 	 	 	 	 	 	 	 	 	 	 	 	 	 	 	 	1581502466	7.70	14.26
12/02/2020 10:14:27	120220	12022020	101427	191.21	12.597278	-57.178285	191.28	-0.520	0.180	2.060	191.19	-1.20	2.60	 	 	 	 	 	 	 	 	 	 	 	 	 	 	 	 	 	 	1581502467	7.59	14.06
12/02/2020 10:14:28	120220	12022020	101428	191.09	12.597243	-57.178298	191.18	-0.690	0.180	2.300	191.08	-1.20	2.80	 	 	 	 	 	 	 	 	 	 	 	 	 	 	 	 	 	 	1581502468	8.09	14.98
12/02/2020 10:14:29	120220	12022020	101429	191.14	12.597207	-57.178313	191.30	-0.280	0.220	2.240	191.18	-1.10	2.70	 	 	 	 	 	 	 	 	 	 	 	 	 	 	 	 	 	 	1581502469	8.48	15.70
12/02/2020 10:14:30	120220	12022020	101430	191.44	12.597170	-57.178325	191.62	0.280	0.210	1.740	191.51	-1.20	2.10	 	 	 	 	 	 	 	 	 	 	 	 	 	 	 	 	 	 	1581502470	8.27	15.32
12/02/2020 10:14:31	120220	12022020	101431	191.70	12.597133	-57.178333	191.81	0.580	-0.150	1.320	191.73	-1.60	1.80	 	 	 	 	 	 	 	 	 	 	 	 	 	 	 	 	 	 	1581502471	8.18	15.15
12/02/2020 10:14:32	120220	12022020	101432	191.84	12.597095	-57.178340	191.97	0.440	-0.550	1.320	191.88	-1.90	1.80	 	 	 	 	 	 	 	 	 	 	 	 	 	 	 	 	 	 	1581502472	8.51	15.76
12/02/2020 10:14:33	120220	12022020	101433	192.08	12.597057	-57.178348	192.23	0.020	-0.480	1.600	192.14	-1.80	2.10	 	 	 	 	 	 	 	 	 	 	 	 	 	 	 	 	 	 	1581502473	8.43	15.61
12/02/2020 10:14:34	120220	12022020	101434	192.36	12.597022	-57.178358	192.48	-0.370	-0.150	1.880	192.40	-1.50	2.40	 	 	 	 	 	 	 	 	 	 	 	 	 	 	 	 	 	 	1581502474	7.83	14.50
12/02/2020 10:14:35	120220	12022020	101435	192.42	12.596988	-57.178370	192.47	-0.440	-0.220	2.240	192.39	-1.60	2.80	 	 	 	 	 	 	 	 	 	 	 	 	 	 	 	 	 	 	1581502475	7.60	14.08
12/02/2020 10:14:36	120220	12022020	101436	192.14	12.596952	-57.178383	192.15	-0.200	-0.760	2.660	192.06	-2.20	3.20	 	 	 	 	 	 	 	 	 	 	 	 	 	 	 	 	 	 	1581502476	8.19	15.17
12/02/2020 10:14:37	120220	12022020	101437	191.69	12.596913	-57.178398	191.68	0.040	-1.100	2.910	191.60	-2.50	3.40	 	 	 	 	 	 	 	 	 	 	 	 	 	 	 	 	 	 	1581502477	8.80	16.30
12/02/2020 10:14:38	120220	12022020	101438	191.20	12.596875	-57.178412	191.20	0.100	-0.870	2.910	191.11	-2.20	3.30	 	 	 	 	 	 	 	 	 	 	 	 	 	 	 	 	 	 	1581502478	8.67	16.06
12/02/2020 10:14:39	120220	12022020	101439	190.76	12.596840	-57.178423	190.78	0.030	-0.300	2.700	190.70	-1.60	3.10	 	 	 	 	 	 	 	 	 	 	 	 	 	 	 	 	 	 	1581502479	8.16	15.11
12/02/2020 10:14:40	120220	12022020	101440	190.59	12.596803	-57.178433	190.70	-0.060	0.230	2.160	190.61	-1.10	2.50	 	 	 	 	 	 	 	 	 	 	 	 	 	 	 	 	 	 	1581502480	7.96	14.74
12/02/2020 10:14:41	120220	12022020	101441	190.83	12.596767	-57.178442	191.02	-0.140	0.620	1.410	190.92	-0.70	1.80	 	 	 	 	 	 	 	 	 	 	 	 	 	 	 	 	 	 	1581502481	8.03	14.87
12/02/2020 10:14:42	120220	12022020	101442	191.33	12.596730	-57.178448	191.53	-0.170	0.730	0.800	191.45	-0.70	1.20	 	 	 	 	 	 	 	 	 	 	 	 	 	 	 	 	 	 	1581502482	8.00	14.82
12/02/2020 10:14:43	120220	12022020	101443	191.94	12.596693	-57.178457	192.11	-0.110	0.370	0.580	192.05	-1.10	1.10	 	 	 	 	 	 	 	 	 	 	 	 	 	 	 	 	 	 	1581502483	8.08	14.96
12/02/2020 10:14:44	120220	12022020	101444	192.34	12.596657	-57.178467	192.45	0.070	-0.390	0.900	192.39	-1.90	1.40	 	 	 	 	 	 	 	 	 	 	 	 	 	 	 	 	 	 	1581502484	8.37	15.50
12/02/2020 10:14:45	120220	12022020	101445	192.48	12.596618	-57.178478	192.62	0.330	-0.980	1.420	192.50	-2.40	1.90	 	 	 	 	 	 	 	 	 	 	 	 	 	 	 	 	 	 	1581502485	8.69	16.09
12/02/2020 10:14:46	120220	12022020	101446	192.64	12.596580	-57.178492	192.78	0.500	-0.940	1.700	192.68	-2.20	2.20	 	 	 	 	 	 	 	 	 	 	 	 	 	 	 	 	 	 	1581502486	8.49	15.72
12/02/2020 10:14:47	120220	12022020	101447	192.78	12.596545	-57.178502	192.93	0.410	-0.520	1.780	192.81	-1.80	2.30	 	 	 	 	 	 	 	 	 	 	 	 	 	 	 	 	 	 	1581502487	7.82	14.48
12/02/2020 10:14:48	120220	12022020	101448	192.68	12.596512	-57.178508	192.70	0.090	-0.380	2.170	192.60	-1.80	2.70	 	 	 	 	 	 	 	 	 	 	 	 	 	 	 	 	 	 	1581502488	7.49	13.87
12/02/2020 10:14:49	120220	12022020	101449	192.04	12.596475	-57.178520	192.00	-0.290	-0.730	3.040	191.88	-2.10	3.60	 	 	 	 	 	 	 	 	 	 	 	 	 	 	 	 	 	 	1581502489	8.03	14.87
12/02/2020 10:14:50	120220	12022020	101450	191.17	12.596437	-57.178537	191.16	-0.620	-0.970	3.910	191.03	-2.30	4.40	 	 	 	 	 	 	 	 	 	 	 	 	 	 	 	 	 	 	1581502490	8.94	16.56
12/02/2020 10:14:51	120220	12022020	101451	190.59	12.596398	-57.178557	190.67	-0.790	-0.510	4.200	190.53	-1.70	4.60	 	 	 	 	 	 	 	 	 	 	 	 	 	 	 	 	 	 	1581502491	9.15	16.95
12/02/2020 10:14:52	120220	12022020	101452	190.59	12.596365	-57.178573	190.79	-0.690	0.460	3.580	190.66	-0.80	3.90	 	 	 	 	 	 	 	 	 	 	 	 	 	 	 	 	 	 	1581502492	8.42	15.59
12/02/2020 10:14:53	120220	12022020	101453	191.14	12.596332	-57.178587	191.39	-0.280	1.070	2.170	191.28	-0.30	2.40	 	 	 	 	 	 	 	 	 	 	 	 	 	 	 	 	 	 	1581502493	7.56	14.00
12/02/2020 10:14:54	120220	12022020	101454	191.84	12.596297	-57.178593	192.06	0.370	0.670	0.650	191.97	-0.80	1.00	 	 	 	 	 	 	 	 	 	 	 	 	 	 	 	 	 	 	1581502494	7.69	14.24
12/02/2020 10:14:55	120220	12022020	101455	192.37	12.596257	-57.178595	192.53	0.920	-0.360	-0.210	192.45	-1.90	0.20	 	 	 	 	 	 	 	 	 	 	 	 	 	 	 	 	 	 	1581502495	8.66	16.04
12/02/2020 10:14:56	120220	12022020	101456	192.72	12.596213	-57.178600	192.86	0.970	-1.120	-0.210	192.78	-2.50	0.30	 	 	 	 	 	 	 	 	 	 	 	 	 	 	 	 	 	 	1581502496	9.10	16.85
12/02/2020 10:14:57	120220	12022020	101457	192.89	12.596175	-57.178607	193.03	0.450	-1.030	0.360	192.92	-2.30	0.90	 	 	 	 	 	 	 	 	 	 	 	 	 	 	 	 	 	 	1581502497	8.57	15.87
12/02/2020 10:14:58	120220	12022020	101458	192.98	12.596140	-57.178618	193.09	-0.270	-0.360	1.180	192.99	-1.60	1.80	 	 	 	 	 	 	 	 	 	 	 	 	 	 	 	 	 	 	1581502498	7.74	14.33
12/02/2020 10:14:59	120220	12022020	101459	193.00	12.596110	-57.178633	193.09	-0.680	0.140	2.060	192.99	-1.20	2.70	 	 	 	 	 	 	 	 	 	 	 	 	 	 	 	 	 	 	1581502499	7.39	13.69
12/02/2020 10:15:00	120220	12022020	101500	192.78	12.596077	-57.178652	192.83	-0.500	-0.070	2.880	192.71	-1.50	3.40	 	 	 	 	 	 	 	 	 	 	 	 	 	 	 	 	 	 	1581502500	7.80	14.45
12/02/2020 10:15:01	120220	12022020	101501	192.31	12.596040	-57.178668	192.33	-0.000	-0.610	3.450	192.21	-2.00	4.00	1015.10	26.10	26.10	21.10	21.10	5.0	74.0	74.0	413.0	25.8	262.00	10.60	73.00	11.90	538	9687.0	27.5	27.5	1581502501	8.65	16.02
12/02/2020 10:15:02	120220	12022020	101502	191.82	12.596002	-57.178683	191.89	0.280	-0.760	3.710	191.75	-2.10	4.20	 	 	 	 	 	 	 	 	 	 	 	 	 	 	 	 	 	 	1581502502	9.00	16.67
12/02/2020 10:15:03	120220	12022020	101503	191.58	12.595963	-57.178695	191.69	0.140	-0.410	3.620	191.55	-1.70	4.00	 	 	 	 	 	 	 	 	 	 	 	 	 	 	 	 	 	 	1581502503	8.52	15.78
12/02/2020 10:15:04	120220	12022020	101504	191.45	12.595928	-57.178707	191.55	-0.220	-0.020	3.320	191.42	-1.40	3.70	 	 	 	 	 	 	 	 	 	 	 	 	 	 	 	 	 	 	1581502504	7.90	14.63
12/02/2020 10:15:05	120220	12022020	101505	191.29	12.595893	-57.178718	191.38	-0.360	-0.030	2.900	191.27	-1.40	3.30	 	 	 	 	 	 	 	 	 	 	 	 	 	 	 	 	 	 	1581502505	7.90	14.63
12/02/2020 10:15:06	120220	12022020	101506	191.32	12.595857	-57.178730	191.47	-0.180	-0.180	2.280	191.36	-1.50	2.70	 	 	 	 	 	 	 	 	 	 	 	 	 	 	 	 	 	 	1581502506	8.39	15.54
12/02/2020 10:15:07	120220	12022020	101507	191.64	12.595820	-57.178742	191.81	0.130	-0.050	1.470	191.72	-1.40	1.80	 	 	 	 	 	 	 	 	 	 	 	 	 	 	 	 	 	 	1581502507	8.43	15.61
12/02/2020 10:15:08	120220	12022020	101508	192.11	12.595783	-57.178752	192.29	0.370	0.200	0.580	192.21	-1.10	0.90	 	 	 	 	 	 	 	 	 	 	 	 	 	 	 	 	 	 	1581502508	7.95	14.72
12/02/2020 10:15:09	120220	12022020	101509	192.63	12.595748	-57.178757	192.79	0.420	0.150	0.030	192.72	-1.30	0.50	 	 	 	 	 	 	 	 	 	 	 	 	 	 	 	 	 	 	1581502509	7.73	14.32
12/02/2020 10:15:10	120220	12022020	101510	192.94	12.595712	-57.178763	193.04	0.220	-0.360	0.380	192.95	-1.80	1.00	 	 	 	 	 	 	 	 	 	 	 	 	 	 	 	 	 	 	1581502510	7.98	14.78
12/02/2020 10:15:11	120220	12022020	101511	192.87	12.595673	-57.178775	192.85	-0.100	-1.020	1.470	192.82	-2.50	2.10	 	 	 	 	 	 	 	 	 	 	 	 	 	 	 	 	 	 	1581502511	8.41	15.58
12/02/2020 10:15:12	120220	12022020	101512	192.34	12.595637	-57.178792	192.33	-0.250	-1.320	2.700	192.21	-2.70	3.30	 	 	 	 	 	 	 	 	 	 	 	 	 	 	 	 	 	 	1581502512	8.80	16.30
12/02/2020 10:15:13	120220	12022020	101513	191.65	12.595600	-57.178810	191.64	-0.050	-1.000	3.660	191.53	-2.30	4.20	 	 	 	 	 	 	 	 	 	 	 	 	 	 	 	 	 	 	1581502513	8.76	16.22
12/02/2020 10:15:14	120220	12022020	101514	191.09	12.595565	-57.178827	191.17	0.260	-0.130	3.810	191.04	-1.30	4.20	 	 	 	 	 	 	 	 	 	 	 	 	 	 	 	 	 	 	1581502514	8.29	15.35
12/02/2020 10:15:15	120220	12022020	101515	191.02	12.595530	-57.178835	191.18	0.210	0.850	3.190	191.05	-0.40	3.50	 	 	 	 	 	 	 	 	 	 	 	 	 	 	 	 	 	 	1581502515	7.64	14.15
12/02/2020 10:15:16	120220	12022020	101516	191.23	12.595497	-57.178842	191.36	-0.170	1.090	2.420	191.26	-0.30	2.80	 	 	 	 	 	 	 	 	 	 	 	 	 	 	 	 	 	 	1581502516	7.29	13.50
12/02/2020 10:15:17	120220	12022020	101517	191.17	12.595462	-57.178848	191.20	-0.430	0.200	2.170	191.12	-1.30	2.60	 	 	 	 	 	 	 	 	 	 	 	 	 	 	 	 	 	 	1581502517	7.84	14.52
12/02/2020 10:15:18	120220	12022020	101518	190.85	12.595422	-57.178862	190.88	-0.300	-1.000	2.340	190.79	-2.50	2.80	 	 	 	 	 	 	 	 	 	 	 	 	 	 	 	 	 	 	1581502518	8.96	16.59
12/02/2020 10:15:19	120220	12022020	101519	190.69	12.595382	-57.178878	190.82	0.060	-1.370	2.310	190.72	-2.70	2.70	 	 	 	 	 	 	 	 	 	 	 	 	 	 	 	 	 	 	1581502519	9.31	17.24
12/02/2020 10:15:20	120220	12022020	101520	190.99	12.595345	-57.178892	191.17	0.280	-0.760	1.790	191.08	-2.00	2.20	 	 	 	 	 	 	 	 	 	 	 	 	 	 	 	 	 	 	1581502520	8.33	15.43
12/02/2020 10:15:21	120220	12022020	101521	191.37	12.595313	-57.178902	191.49	0.270	-0.170	1.270	191.42	-1.50	1.70	 	 	 	 	 	 	 	 	 	 	 	 	 	 	 	 	 	 	1581502521	7.21	13.35
12/02/2020 10:15:22	120220	12022020	101522	191.43	12.595280	-57.178908	191.47	0.170	-0.220	1.230	191.40	-1.60	1.70	 	 	 	 	 	 	 	 	 	 	 	 	 	 	 	 	 	 	1581502522	7.36	13.63
12/02/2020 10:15:23	120220	12022020	101523	191.27	12.595242	-57.178917	191.33	0.060	-0.510	1.410	191.25	-1.90	1.90	 	 	 	 	 	 	 	 	 	 	 	 	 	 	 	 	 	 	1581502523	8.23	15.24
12/02/2020 10:15:24	120220	12022020	101524	191.24	12.595203	-57.178927	191.34	-0.120	-0.370	1.620	191.26	-1.70	2.10	 	 	 	 	 	 	 	 	 	 	 	 	 	 	 	 	 	 	1581502524	8.60	15.93
12/02/2020 10:15:25	120220	12022020	101525	191.40	12.595167	-57.178938	191.54	-0.310	0.130	1.930	191.44	-1.20	2.40	 	 	 	 	 	 	 	 	 	 	 	 	 	 	 	 	 	 	1581502525	8.16	15.11
12/02/2020 10:15:26	120220	12022020	101526	191.57	12.595133	-57.178952	191.67	-0.330	0.390	2.260	191.58	-1.00	2.80	 	 	 	 	 	 	 	 	 	 	 	 	 	 	 	 	 	 	1581502526	7.77	14.39
12/02/2020 10:15:27	120220	12022020	101527	191.55	12.595098	-57.178963	191.64	-0.110	0.180	2.480	191.54	-1.20	3.00	 	 	 	 	 	 	 	 	 	 	 	 	 	 	 	 	 	 	1581502527	8.00	14.82
12/02/2020 10:15:28	120220	12022020	101528	191.43	12.595062	-57.178975	191.51	0.110	-0.190	2.680	191.40	-1.60	3.20	 	 	 	 	 	 	 	 	 	 	 	 	 	 	 	 	 	 	1581502528	8.41	15.58
12/02/2020 10:15:29	120220	12022020	101529	191.29	12.595023	-57.178988	191.38	0.150	-0.380	2.710	191.26	-1.70	3.10	 	 	 	 	 	 	 	 	 	 	 	 	 	 	 	 	 	 	1581502529	8.44	15.63
12/02/2020 10:15:30	120220	12022020	101530	191.14	12.594988	-57.179000	191.23	0.070	-0.370	2.440	191.11	-1.70	2.90	 	 	 	 	 	 	 	 	 	 	 	 	 	 	 	 	 	 	1581502530	8.13	15.06
12/02/2020 10:15:31	120220	12022020	101531	190.95	12.594953	-57.179010	191.02	0.050	-0.320	2.180	190.91	-1.70	2.60	 	 	 	 	 	 	 	 	 	 	 	 	 	 	 	 	 	 	1581502531	7.83	14.50
12/02/2020 10:15:32	120220	12022020	101532	190.73	12.594918	-57.179020	190.81	0.200	-0.410	1.950	190.70	-1.80	2.40	 	 	 	 	 	 	 	 	 	 	 	 	 	 	 	 	 	 	1581502532	7.83	14.50
12/02/2020 10:15:33	120220	12022020	101533	190.68	12.594882	-57.179028	190.81	0.360	-0.450	1.550	190.71	-1.80	2.00	 	 	 	 	 	 	 	 	 	 	 	 	 	 	 	 	 	 	1581502533	8.04	14.89
12/02/2020 10:15:34	120220	12022020	101534	190.88	12.594845	-57.179037	191.02	0.310	-0.380	1.380	190.92	-1.70	1.90	 	 	 	 	 	 	 	 	 	 	 	 	 	 	 	 	 	 	1581502534	8.00	14.82
12/02/2020 10:15:35	120220	12022020	101535	190.98	12.594810	-57.179047	191.07	0.080	-0.410	1.590	190.98	-1.80	2.10	 	 	 	 	 	 	 	 	 	 	 	 	 	 	 	 	 	 	1581502535	7.90	14.63
12/02/2020 10:15:36	120220	12022020	101536	190.89	12.594773	-57.179058	190.98	-0.170	-0.550	2.030	190.87	-1.90	2.60	 	 	 	 	 	 	 	 	 	 	 	 	 	 	 	 	 	 	1581502536	8.16	15.11
12/02/2020 10:15:37	120220	12022020	101537	190.82	12.594737	-57.179072	190.93	-0.390	-0.510	2.660	190.81	-1.80	3.20	 	 	 	 	 	 	 	 	 	 	 	 	 	 	 	 	 	 	1581502537	8.40	15.56
12/02/2020 10:15:38	120220	12022020	101538	190.82	12.594700	-57.179087	190.96	-0.520	-0.250	3.090	190.83	-1.60	3.60	 	 	 	 	 	 	 	 	 	 	 	 	 	 	 	 	 	 	1581502538	8.36	15.48
12/02/2020 10:15:39	120220	12022020	101539	190.89	12.594665	-57.179102	191.02	-0.420	0.020	2.990	190.90	-1.30	3.40	 	 	 	 	 	 	 	 	 	 	 	 	 	 	 	 	 	 	1581502539	8.15	15.09
12/02/2020 10:15:40	120220	12022020	101540	190.95	12.594630	-57.179113	191.09	-0.020	0.090	2.390	190.98	-1.30	2.70	 	 	 	 	 	 	 	 	 	 	 	 	 	 	 	 	 	 	1581502540	8.07	14.95
12/02/2020 10:15:41	120220	12022020	101541	191.18	12.594593	-57.179122	191.33	0.380	0.080	1.480	191.25	-1.30	1.80	 	 	 	 	 	 	 	 	 	 	 	 	 	 	 	 	 	 	1581502541	8.23	15.24
12/02/2020 10:15:42	120220	12022020	101542	191.51	12.594555	-57.179125	191.63	0.390	0.100	0.910	191.56	-1.30	1.40	 	 	 	 	 	 	 	 	 	 	 	 	 	 	 	 	 	 	1581502542	8.15	15.09
12/02/2020 10:15:43	120220	12022020	101543	191.61	12.594518	-57.179130	191.64	0.040	-0.100	1.050	191.58	-1.50	1.60	 	 	 	 	 	 	 	 	 	 	 	 	 	 	 	 	 	 	1581502543	7.92	14.67
12/02/2020 10:15:44	120220	12022020	101544	191.33	12.594482	-57.179140	191.29	-0.270	-0.570	1.690	191.23	-2.00	2.20	 	 	 	 	 	 	 	 	 	 	 	 	 	 	 	 	 	 	1581502544	8.07	14.95
12/02/2020 10:15:45	120220	12022020	101545	190.80	12.594445	-57.179157	190.76	-0.180	-0.960	2.400	190.69	-2.40	2.90	 	 	 	 	 	 	 	 	 	 	 	 	 	 	 	 	 	 	1581502545	8.54	15.82
12/02/2020 10:15:46	120220	12022020	101546	190.31	12.594408	-57.179173	190.30	0.200	-0.820	2.880	190.21	-2.10	3.40	 	 	 	 	 	 	 	 	 	 	 	 	 	 	 	 	 	 	1581502546	8.63	15.98
12/02/2020 10:15:47	120220	12022020	101547	189.86	12.594373	-57.179187	189.88	0.440	-0.270	2.970	189.79	-1.60	3.40	 	 	 	 	 	 	 	 	 	 	 	 	 	 	 	 	 	 	1581502547	8.08	14.96
12/02/2020 10:15:48	120220	12022020	101548	189.69	12.594338	-57.179195	189.81	0.220	0.250	2.610	189.70	-1.10	3.00	 	 	 	 	 	 	 	 	 	 	 	 	 	 	 	 	 	 	1581502548	7.71	14.28
12/02/2020 10:15:49	120220	12022020	101549	189.86	12.594305	-57.179203	190.17	-0.240	0.460	2.150	189.94	-0.90	2.50	 	 	 	 	 	 	 	 	 	 	 	 	 	 	 	 	 	 	1581502549	7.72	14.30
12/02/2020 10:15:50	120220	12022020	101550	190.55	12.594268	-57.179213	190.80	-0.480	0.350	1.630	190.69	-1.10	2.00	 	 	 	 	 	 	 	 	 	 	 	 	 	 	 	 	 	 	1581502550	7.91	14.65
12/02/2020 10:15:51	120220	12022020	101551	191.21	12.594233	-57.179223	191.40	-0.280	-0.130	1.130	191.31	-1.60	1.60	 	 	 	 	 	 	 	 	 	 	 	 	 	 	 	 	 	 	1581502551	8.06	14.93
12/02/2020 10:15:52	120220	12022020	101552	191.65	12.594195	-57.179233	191.77	0.110	-0.820	1.060	191.70	-2.30	1.60	 	 	 	 	 	 	 	 	 	 	 	 	 	 	 	 	 	 	1581502552	8.33	15.43
12/02/2020 10:15:53	120220	12022020	101553	191.72	12.594157	-57.179245	191.75	0.360	-1.270	1.490	191.67	-2.70	2.00	 	 	 	 	 	 	 	 	 	 	 	 	 	 	 	 	 	 	1581502553	8.48	15.70
12/02/2020 10:15:54	120220	12022020	101554	191.27	12.594120	-57.179257	191.19	0.370	-1.250	2.280	191.12	-2.60	2.90	 	 	 	 	 	 	 	 	 	 	 	 	 	 	 	 	 	 	1581502554	8.30	15.37
12/02/2020 10:15:55	120220	12022020	101555	190.52	12.594085	-57.179270	190.48	0.160	-0.850	3.100	190.38	-2.10	3.60	 	 	 	 	 	 	 	 	 	 	 	 	 	 	 	 	 	 	1581502555	8.15	15.09
12/02/2020 10:15:56	120220	12022020	101556	189.94	12.594050	-57.179283	189.97	-0.180	-0.200	3.600	189.86	-1.50	4.10	 	 	 	 	 	 	 	 	 	 	 	 	 	 	 	 	 	 	1581502556	8.10	15.00
12/02/2020 10:15:57	120220	12022020	101557	189.65	12.594015	-57.179297	189.76	-0.450	0.500	3.650	189.64	-0.80	4.10	 	 	 	 	 	 	 	 	 	 	 	 	 	 	 	 	 	 	1581502557	8.04	14.89
12/02/2020 10:15:58	120220	12022020	101558	189.78	12.593980	-57.179310	189.98	-0.480	1.000	3.100	189.87	-0.30	3.40	 	 	 	 	 	 	 	 	 	 	 	 	 	 	 	 	 	 	1581502558	7.94	14.70
12/02/2020 10:15:59	120220	12022020	101559	190.34	12.593945	-57.179318	190.58	-0.270	0.990	2.090	190.48	-0.40	2.40	 	 	 	 	 	 	 	 	 	 	 	 	 	 	 	 	 	 	1581502559	7.89	14.61
12/02/2020 10:16:00	120220	12022020	101600	190.99	12.593908	-57.179327	191.18	0.090	0.420	1.200	191.10	-1.10	1.60	 	 	 	 	 	 	 	 	 	 	 	 	 	 	 	 	 	 	1581502560	8.08	14.96
12/02/2020 10:16:01	120220	12022020	101601	191.37	12.593870	-57.179333	191.55	0.470	-0.420	0.810	191.42	-1.90	1.30	1015.10	26.00	26.10	20.50	20.70	6.0	71.0	72.0	409.0	25.8	263.00	11.50	75.00	12.70	616	9645.0	27.5	27.5	1581502561	8.37	15.50
12/02/2020 10:16:02	120220	12022020	101602	191.52	12.593832	-57.179342	191.58	0.630	-1.130	1.010	191.50	-2.60	1.50	 	 	 	 	 	 	 	 	 	 	 	 	 	 	 	 	 	 	1581502562	8.42	15.59
12/02/2020 10:16:03	120220	12022020	101603	191.36	12.593793	-57.179350	191.30	0.470	-1.420	1.500	191.29	-2.80	2.00	 	 	 	 	 	 	 	 	 	 	 	 	 	 	 	 	 	 	1581502563	8.24	15.26
12/02/2020 10:16:04	120220	12022020	101604	190.88	12.593758	-57.179363	190.88	0.060	-1.260	2.130	190.80	-2.60	2.70	 	 	 	 	 	 	 	 	 	 	 	 	 	 	 	 	 	 	1581502564	8.03	14.87
12/02/2020 10:16:05	120220	12022020	101605	190.41	12.593725	-57.179377	190.43	-0.350	-0.760	2.850	190.32	-2.00	3.40	 	 	 	 	 	 	 	 	 	 	 	 	 	 	 	 	 	 	1581502565	7.94	14.70
12/02/2020 10:16:06	120220	12022020	101606	190.04	12.593692	-57.179393	190.13	-0.480	-0.100	3.150	189.99	-1.40	3.60	 	 	 	 	 	 	 	 	 	 	 	 	 	 	 	 	 	 	1581502566	7.93	14.69
12/02/2020 10:16:07	120220	12022020	101607	189.90	12.593657	-57.179407	190.03	-0.330	0.390	2.960	189.89	-0.90	3.40	 	 	 	 	 	 	 	 	 	 	 	 	 	 	 	 	 	 	1581502567	7.81	14.46
12/02/2020 10:16:08	120220	12022020	101608	189.87	12.593622	-57.179417	190.01	-0.060	0.410	2.560	189.88	-1.00	3.00	 	 	 	 	 	 	 	 	 	 	 	 	 	 	 	 	 	 	1581502568	7.95	14.72
12/02/2020 10:16:09	120220	12022020	101609	190.09	12.593583	-57.179427	190.29	0.090	0.250	2.060	190.17	-1.10	2.50	 	 	 	 	 	 	 	 	 	 	 	 	 	 	 	 	 	 	1581502569	8.36	15.48
12/02/2020 10:16:10	120220	12022020	101610	190.45	12.593547	-57.179433	190.61	0.050	0.110	1.800	190.50	-1.30	2.30	 	 	 	 	 	 	 	 	 	 	 	 	 	 	 	 	 	 	1581502570	8.29	15.35
12/02/2020 10:16:11	120220	12022020	101611	190.55	12.593510	-57.179443	190.63	0.040	-0.140	1.950	190.53	-1.60	2.40	 	 	 	 	 	 	 	 	 	 	 	 	 	 	 	 	 	 	1581502571	8.04	14.89
12/02/2020 10:16:12	120220	12022020	101612	190.40	12.593473	-57.179455	190.47	0.230	-0.510	2.030	190.37	-1.90	2.50	 	 	 	 	 	 	 	 	 	 	 	 	 	 	 	 	 	 	1581502572	8.15	15.09
12/02/2020 10:16:13	120220	12022020	101613	190.32	12.593437	-57.179465	190.41	0.480	-0.630	1.930	190.31	-2.00	2.40	 	 	 	 	 	 	 	 	 	 	 	 	 	 	 	 	 	 	1581502573	8.26	15.30
12/02/2020 10:16:14	120220	12022020	101614	190.27	12.593400	-57.179475	190.34	0.440	-0.430	1.890	190.24	-1.80	2.40	 	 	 	 	 	 	 	 	 	 	 	 	 	 	 	 	 	 	1581502574	7.95	14.72
12/02/2020 10:16:15	120220	12022020	101615	190.10	12.593367	-57.179483	190.17	0.070	-0.270	2.050	190.06	-1.60	2.60	 	 	 	 	 	 	 	 	 	 	 	 	 	 	 	 	 	 	1581502575	7.62	14.11
12/02/2020 10:16:16	120220	12022020	101616	189.89	12.593332	-57.179493	189.97	-0.420	-0.320	2.330	189.86	-1.70	2.90	 	 	 	 	 	 	 	 	 	 	 	 	 	 	 	 	 	 	1581502576	7.74	14.33
12/02/2020 10:16:17	120220	12022020	101617	189.76	12.593297	-57.179507	189.86	-0.670	-0.540	2.530	189.75	-1.90	3.00	 	 	 	 	 	 	 	 	 	 	 	 	 	 	 	 	 	 	1581502577	8.12	15.04
12/02/2020 10:16:18	120220	12022020	101618	189.67	12.593260	-57.179522	189.77	-0.390	-0.720	2.430	189.66	-2.10	2.90	 	 	 	 	 	 	 	 	 	 	 	 	 	 	 	 	 	 	1581502578	8.43	15.61
12/02/2020 10:16:19	120220	12022020	101619	189.59	12.593223	-57.179533	189.70	0.240	-0.660	2.060	189.58	-2.00	2.50	 	 	 	 	 	 	 	 	 	 	 	 	 	 	 	 	 	 	1581502579	8.41	15.58
12/02/2020 10:16:20	120220	12022020	101620	189.61	12.593185	-57.179540	189.78	0.570	-0.290	1.770	189.66	-1.60	2.20	 	 	 	 	 	 	 	 	 	 	 	 	 	 	 	 	 	 	1581502580	8.23	15.24
12/02/2020 10:16:21	120220	12022020	101621	189.92	12.593148	-57.179547	190.11	0.230	0.230	1.770	190.00	-1.10	2.30	 	 	 	 	 	 	 	 	 	 	 	 	 	 	 	 	 	 	1581502581	7.94	14.70
12/02/2020 10:16:22	120220	12022020	101622	190.31	12.593113	-57.179555	190.50	-0.460	0.480	2.140	190.37	-0.90	2.70	 	 	 	 	 	 	 	 	 	 	 	 	 	 	 	 	 	 	1581502582	7.67	14.20
12/02/2020 10:16:23	120220	12022020	101623	190.52	12.593080	-57.179568	190.67	-0.780	0.270	2.640	190.53	-1.10	3.20	 	 	 	 	 	 	 	 	 	 	 	 	 	 	 	 	 	 	1581502583	7.94	14.70
12/02/2020 10:16:24	120220	12022020	101624	190.46	12.593045	-57.179585	190.56	-0.350	-0.140	3.020	190.42	-1.60	3.50	 	 	 	 	 	 	 	 	 	 	 	 	 	 	 	 	 	 	1581502584	8.38	15.52
12/02/2020 10:16:25	120220	12022020	101625	190.24	12.593008	-57.179600	190.23	0.450	-0.470	3.190	190.16	-1.90	3.70	 	 	 	 	 	 	 	 	 	 	 	 	 	 	 	 	 	 	1581502585	8.45	15.65
12/02/2020 10:16:26	120220	12022020	101626	189.78	12.592970	-57.179612	189.84	0.950	-0.530	3.050	189.72	-1.90	3.50	 	 	 	 	 	 	 	 	 	 	 	 	 	 	 	 	 	 	1581502586	8.27	15.32
12/02/2020 10:16:27	120220	12022020	101627	189.64	12.592935	-57.179618	189.79	0.750	-0.290	2.650	189.66	-1.60	3.10	 	 	 	 	 	 	 	 	 	 	 	 	 	 	 	 	 	 	1581502587	7.97	14.76
12/02/2020 10:16:28	120220	12022020	101628	189.94	12.592900	-57.179625	190.15	0.120	0.060	2.170	190.04	-1.30	2.60	 	 	 	 	 	 	 	 	 	 	 	 	 	 	 	 	 	 	1581502588	7.58	14.04
12/02/2020 10:16:29	120220	12022020	101629	190.45	12.592867	-57.179632	190.63	-0.410	-0.000	1.910	190.53	-1.40	2.40	 	 	 	 	 	 	 	 	 	 	 	 	 	 	 	 	 	 	1581502589	7.34	13.59
12/02/2020 10:16:30	120220	12022020	101630	190.61	12.592832	-57.179642	190.65	-0.390	-0.840	2.080	190.56	-2.40	2.60	 	 	 	 	 	 	 	 	 	 	 	 	 	 	 	 	 	 	1581502590	7.82	14.48
12/02/2020 10:16:31	120220	12022020	101631	190.18	12.592792	-57.179655	190.18	0.070	-1.750	2.480	190.06	-3.20	3.00	 	 	 	 	 	 	 	 	 	 	 	 	 	 	 	 	 	 	1581502591	8.90	16.48
12/02/2020 10:16:32	120220	12022020	101632	189.67	12.592752	-57.179670	189.75	0.340	-1.470	2.750	189.61	-2.70	3.20	 	 	 	 	 	 	 	 	 	 	 	 	 	 	 	 	 	 	1581502592	9.20	17.04
12/02/2020 10:16:33	120220	12022020	101633	189.54	12.592717	-57.179682	189.69	0.060	-0.110	2.620	189.55	-1.30	3.10	 	 	 	 	 	 	 	 	 	 	 	 	 	 	 	 	 	 	1581502593	8.02	14.85
12/02/2020 10:16:34	120220	12022020	101634	189.63	12.592685	-57.179690	189.77	-0.440	0.910	2.290	189.65	-0.40	2.70	 	 	 	 	 	 	 	 	 	 	 	 	 	 	 	 	 	 	1581502594	6.94	12.85
12/02/2020 10:16:35	120220	12022020	101635	189.72	12.592652	-57.179698	189.85	-0.690	0.890	2.090	189.74	-0.50	2.60	 	 	 	 	 	 	 	 	 	 	 	 	 	 	 	 	 	 	1581502595	7.38	13.67
12/02/2020 10:16:36	120220	12022020	101636	189.90	12.592615	-57.179710	190.07	-0.480	0.450	1.970	189.95	-1.00	2.40	 	 	 	 	 	 	 	 	 	 	 	 	 	 	 	 	 	 	1581502596	8.43	15.61
12/02/2020 10:16:37	120220	12022020	101637	190.21	12.592577	-57.179723	190.39	0.010	0.160	1.680	190.28	-1.20	2.10	 	 	 	 	 	 	 	 	 	 	 	 	 	 	 	 	 	 	1581502597	8.59	15.91
12/02/2020 10:16:38	120220	12022020	101638	190.43	12.592540	-57.179732	190.54	0.420	-0.150	1.490	190.44	-1.60	2.00	 	 	 	 	 	 	 	 	 	 	 	 	 	 	 	 	 	 	1581502598	8.11	15.02
12/02/2020 10:16:39	120220	12022020	101639	190.32	12.592503	-57.179740	190.35	0.570	-0.720	1.700	190.25	-2.20	2.20	 	 	 	 	 	 	 	 	 	 	 	 	 	 	 	 	 	 	1581502599	8.01	14.83
12/02/2020 10:16:40	120220	12022020	101640	189.93	12.592465	-57.179748	189.94	0.480	-1.260	2.180	189.83	-2.70	2.70	 	 	 	 	 	 	 	 	 	 	 	 	 	 	 	 	 	 	1581502600	8.34	15.45
12/02/2020 10:16:41	120220	12022020	101641	189.43	12.592428	-57.179760	189.45	0.280	-1.270	2.700	189.34	-2.60	3.20	 	 	 	 	 	 	 	 	 	 	 	 	 	 	 	 	 	 	1581502601	8.46	15.67
12/02/2020 10:16:42	120220	12022020	101642	188.99	12.592392	-57.179772	189.06	0.040	-0.680	2.980	188.94	-1.90	3.50	 	 	 	 	 	 	 	 	 	 	 	 	 	 	 	 	 	 	1581502602	8.11	15.02
12/02/2020 10:16:43	120220	12022020	101643	188.86	12.592358	-57.179782	189.01	-0.330	0.150	2.950	188.88	-1.10	3.40	 	 	 	 	 	 	 	 	 	 	 	 	 	 	 	 	 	 	1581502603	7.66	14.19
12/02/2020 10:16:44	120220	12022020	101644	189.11	12.592325	-57.179793	189.30	-0.710	0.710	2.780	189.19	-0.60	3.20	 	 	 	 	 	 	 	 	 	 	 	 	 	 	 	 	 	 	1581502604	7.45	13.80
12/02/2020 10:16:45	120220	12022020	101645	189.38	12.592292	-57.179805	189.51	-0.710	0.650	2.570	189.41	-0.80	3.00	 	 	 	 	 	 	 	 	 	 	 	 	 	 	 	 	 	 	1581502605	7.69	14.24
12/02/2020 10:16:46	120220	12022020	101646	189.44	12.592255	-57.179818	189.53	-0.120	0.110	2.290	189.43	-1.30	2.70	 	 	 	 	 	 	 	 	 	 	 	 	 	 	 	 	 	 	1581502606	8.24	15.26
12/02/2020 10:16:47	120220	12022020	101647	189.42	12.592217	-57.179830	189.51	0.630	-0.450	1.920	189.42	-1.90	2.40	 	 	 	 	 	 	 	 	 	 	 	 	 	 	 	 	 	 	1581502607	8.56	15.85
12/02/2020 10:16:48	120220	12022020	101648	189.43	12.592178	-57.179837	189.53	0.940	-0.690	1.630	189.43	-2.10	2.10	 	 	 	 	 	 	 	 	 	 	 	 	 	 	 	 	 	 	1581502608	8.43	15.61
12/02/2020 10:16:49	120220	12022020	101649	189.45	12.592142	-57.179842	189.55	0.630	-0.590	1.520	189.45	-1.90	2.00	 	 	 	 	 	 	 	 	 	 	 	 	 	 	 	 	 	 	1581502609	8.02	14.85
12/02/2020 10:16:50	120220	12022020	101650	189.49	12.592107	-57.179848	189.59	0.090	-0.410	1.650	189.49	-1.80	2.20	 	 	 	 	 	 	 	 	 	 	 	 	 	 	 	 	 	 	1581502610	7.66	14.19
12/02/2020 10:16:51	120220	12022020	101651	189.52	12.592072	-57.179857	189.64	-0.240	-0.500	1.910	189.52	-1.90	2.40	 	 	 	 	 	 	 	 	 	 	 	 	 	 	 	 	 	 	1581502611	7.71	14.28
12/02/2020 10:16:52	120220	12022020	101652	189.49	12.592035	-57.179868	189.61	-0.320	-0.820	2.330	189.48	-2.20	2.90	 	 	 	 	 	 	 	 	 	 	 	 	 	 	 	 	 	 	1581502612	8.18	15.15
12/02/2020 10:16:53	120220	12022020	101653	189.43	12.591997	-57.179882	189.51	-0.390	-0.950	2.780	189.41	-2.30	3.30	 	 	 	 	 	 	 	 	 	 	 	 	 	 	 	 	 	 	1581502613	8.60	15.93
12/02/2020 10:16:54	120220	12022020	101654	189.22	12.591960	-57.179895	189.30	-0.530	-0.600	3.060	189.17	-1.90	3.50	 	 	 	 	 	 	 	 	 	 	 	 	 	 	 	 	 	 	1581502614	8.52	15.78
12/02/2020 10:16:55	120220	12022020	101655	188.93	12.591925	-57.179908	189.01	-0.580	-0.060	3.180	188.88	-1.40	3.60	 	 	 	 	 	 	 	 	 	 	 	 	 	 	 	 	 	 	1581502615	8.13	15.06
12/02/2020 10:16:56	120220	12022020	101656	188.73	12.591890	-57.179922	188.83	-0.370	0.370	3.040	188.71	-1.00	3.50	 	 	 	 	 	 	 	 	 	 	 	 	 	 	 	 	 	 	1581502616	8.02	14.85
12/02/2020 10:16:57	120220	12022020	101657	188.70	12.591853	-57.179932	188.82	0.050	0.630	2.610	188.72	-0.70	3.00	 	 	 	 	 	 	 	 	 	 	 	 	 	 	 	 	 	 	1581502617	8.08	14.96
12/02/2020 10:16:58	120220	12022020	101658	188.87	12.591817	-57.179937	189.02	0.420	0.750	1.960	188.93	-0.60	2.30	 	 	 	 	 	 	 	 	 	 	 	 	 	 	 	 	 	 	1581502618	8.08	14.96
12/02/2020 10:16:59	120220	12022020	101659	189.27	12.591778	-57.179942	189.47	0.520	0.660	1.290	189.38	-0.80	1.70	 	 	 	 	 	 	 	 	 	 	 	 	 	 	 	 	 	 	1581502619	7.98	14.78
12/02/2020 10:17:00	120220	12022020	101700	189.81	12.591743	-57.179945	189.98	0.370	0.150	1.020	189.89	-1.30	1.50	 	 	 	 	 	 	 	 	 	 	 	 	 	 	 	 	 	 	1581502620	7.87	14.58
12/02/2020 10:17:01	120220	12022020	101701	190.08	12.591707	-57.179953	190.15	0.260	-0.710	1.360	190.07	-2.20	1.90	1015.20	26.10	26.10	20.20	20.40	8.0	70.0	70.0	406.0	25.8	261.00	11.70	73.00	13.00	705	9610.0	27.5	27.5	1581502621	8.00	14.82
12/02/2020 10:17:02	120220	12022020	101702	189.88	12.591670	-57.179965	189.87	0.340	-1.450	2.050	189.78	-2.90	2.60	 	 	 	 	 	 	 	 	 	 	 	 	 	 	 	 	 	 	1581502622	8.34	15.45
12/02/2020 10:17:03	120220	12022020	101703	189.33	12.591633	-57.179978	189.33	0.420	-1.660	2.810	189.21	-3.00	3.40	 	 	 	 	 	 	 	 	 	 	 	 	 	 	 	 	 	 	1581502623	8.39	15.54
12/02/2020 10:17:04	120220	12022020	101704	188.87	12.591597	-57.179992	188.97	0.170	-1.330	3.260	188.84	-2.60	3.70	 	 	 	 	 	 	 	 	 	 	 	 	 	 	 	 	 	 	1581502624	8.14	15.08
12/02/2020 10:17:05	120220	12022020	101705	188.87	12.591562	-57.180003	189.05	-0.410	-0.660	3.310	188.91	-1.90	3.80	 	 	 	 	 	 	 	 	 	 	 	 	 	 	 	 	 	 	1581502625	7.91	14.65
12/02/2020 10:17:06	120220	12022020	101706	189.13	12.591528	-57.180015	189.32	-0.880	-0.030	3.140	189.18	-1.30	3.50	 	 	 	 	 	 	 	 	 	 	 	 	 	 	 	 	 	 	1581502626	7.76	14.37
12/02/2020 10:17:07	120220	12022020	101707	189.42	12.591493	-57.180027	189.60	-0.820	0.340	2.650	189.47	-1.00	3.00	 	 	 	 	 	 	 	 	 	 	 	 	 	 	 	 	 	 	1581502627	7.90	14.63
12/02/2020 10:17:08	120220	12022020	101708	189.72	12.591457	-57.180037	189.88	-0.290	0.390	1.850	189.78	-1.00	2.20	 	 	 	 	 	 	 	 	 	 	 	 	 	 	 	 	 	 	1581502628	8.17	15.13
12/02/2020 10:17:09	120220	12022020	101709	190.02	12.591417	-57.180042	190.15	0.270	0.200	1.090	190.08	-1.20	1.50	 	 	 	 	 	 	 	 	 	 	 	 	 	 	 	 	 	 	1581502629	8.46	15.67
12/02/2020 10:17:10	120220	12022020	101710	190.22	12.591377	-57.180047	190.31	0.510	-0.050	0.810	190.23	-1.40	1.30	 	 	 	 	 	 	 	 	 	 	 	 	 	 	 	 	 	 	1581502630	8.57	15.87
12/02/2020 10:17:11	120220	12022020	101711	190.08	12.591338	-57.180052	190.09	0.380	-0.240	1.180	190.01	-1.60	1.70	 	 	 	 	 	 	 	 	 	 	 	 	 	 	 	 	 	 	1581502631	8.44	15.63
12/02/2020 10:17:12	120220	12022020	101712	189.71	12.591302	-57.180060	189.73	0.030	-0.200	1.900	189.64	-1.50	2.50	 	 	 	 	 	 	 	 	 	 	 	 	 	 	 	 	 	 	1581502632	8.29	15.35
12/02/2020 10:17:13	120220	12022020	101713	189.47	12.591265	-57.180072	189.54	-0.320	-0.010	2.510	189.44	-1.40	3.00	 	 	 	 	 	 	 	 	 	 	 	 	 	 	 	 	 	 	1581502633	8.14	15.08
12/02/2020 10:17:14	120220	12022020	101714	189.38	12.591230	-57.180087	189.48	-0.470	0.070	2.970	189.38	-1.30	3.50	 	 	 	 	 	 	 	 	 	 	 	 	 	 	 	 	 	 	1581502634	8.04	14.89
12/02/2020 10:17:15	120220	12022020	101715	189.36	12.591197	-57.180103	189.48	-0.360	0.000	3.070	189.36	-1.40	3.50	 	 	 	 	 	 	 	 	 	 	 	 	 	 	 	 	 	 	1581502635	8.10	15.00
12/02/2020 10:17:16	120220	12022020	101716	189.47	12.591162	-57.180117	189.62	-0.100	-0.050	2.550	189.53	-1.40	2.90	 	 	 	 	 	 	 	 	 	 	 	 	 	 	 	 	 	 	1581502636	8.06	14.93
12/02/2020 10:17:17	120220	12022020	101717	189.78	12.591127	-57.180127	190.05	0.220	-0.090	1.530	189.87	-1.50	1.80	 	 	 	 	 	 	 	 	 	 	 	 	 	 	 	 	 	 	1581502637	7.82	14.48
12/02/2020 10:17:18	120220	12022020	101718	190.34	12.591092	-57.180133	190.43	0.680	-0.420	0.460	190.39	-1.90	0.80	 	 	 	 	 	 	 	 	 	 	 	 	 	 	 	 	 	 	1581502638	7.63	14.13
12/02/2020 10:17:19	120220	12022020	101719	190.42	12.591055	-57.180137	190.40	1.190	-1.140	-0.050	190.39	-2.60	0.40	 	 	 	 	 	 	 	 	 	 	 	 	 	 	 	 	 	 	1581502639	8.01	14.83
12/02/2020 10:17:20	120220	12022020	101720	190.22	12.591015	-57.180140	190.22	1.170	-1.580	0.230	190.19	-2.90	0.80	 	 	 	 	 	 	 	 	 	 	 	 	 	 	 	 	 	 	1581502640	8.69	16.09
12/02/2020 10:17:21	120220	12022020	101721	190.07	12.590975	-57.180145	190.08	0.380	-1.320	1.130	190.04	-2.60	1.80	 	 	 	 	 	 	 	 	 	 	 	 	 	 	 	 	 	 	1581502641	8.53	15.80
12/02/2020 10:17:22	120220	12022020	101722	189.83	12.590938	-57.180157	189.85	-0.690	-0.740	2.440	189.77	-2.00	3.10	 	 	 	 	 	 	 	 	 	 	 	 	 	 	 	 	 	 	1581502642	8.09	14.98
12/02/2020 10:17:23	120220	12022020	101723	189.58	12.590903	-57.180173	189.68	-1.430	-0.150	3.650	189.56	-1.40	4.20	 	 	 	 	 	 	 	 	 	 	 	 	 	 	 	 	 	 	1581502643	8.40	15.56
12/02/2020 10:17:24	120220	12022020	101724	189.64	12.590868	-57.180195	189.81	-1.630	0.550	4.180	189.69	-0.70	4.60	 	 	 	 	 	 	 	 	 	 	 	 	 	 	 	 	 	 	1581502644	8.71	16.13
12/02/2020 10:17:25	120220	12022020	101725	189.81	12.590835	-57.180213	189.94	-1.340	0.900	4.070	189.83	-0.50	4.50	 	 	 	 	 	 	 	 	 	 	 	 	 	 	 	 	 	 	1581502645	8.41	15.58
12/02/2020 10:17:26	120220	12022020	101726	189.82	12.590798	-57.180228	189.92	-0.670	0.620	3.430	189.81	-0.80	3.80	 	 	 	 	 	 	 	 	 	 	 	 	 	 	 	 	 	 	1581502646	8.48	15.70
12/02/2020 10:17:27	120220	12022020	101727	189.74	12.590758	-57.180240	189.81	0.170	0.230	2.370	189.72	-1.20	2.70	 	 	 	 	 	 	 	 	 	 	 	 	 	 	 	 	 	 	1581502647	8.73	16.17
12/02/2020 10:17:28	120220	12022020	101728	189.67	12.590720	-57.180245	189.77	0.910	0.120	1.160	189.68	-1.20	1.50	 	 	 	 	 	 	 	 	 	 	 	 	 	 	 	 	 	 	1581502648	8.52	15.78
12/02/2020 10:17:29	120220	12022020	101729	189.77	12.590682	-57.180247	189.93	1.290	0.100	0.080	189.81	-1.30	0.50	 	 	 	 	 	 	 	 	 	 	 	 	 	 	 	 	 	 	1581502649	8.04	14.89
12/02/2020 10:17:30	120220	12022020	101730	189.97	12.590647	-57.180247	190.04	1.260	-0.260	-0.250	189.98	-1.70	0.30	 	 	 	 	 	 	 	 	 	 	 	 	 	 	 	 	 	 	1581502650	7.81	14.46
12/02/2020 10:17:31	120220	12022020	101731	189.91	12.590608	-57.180250	189.97	0.930	-0.850	0.290	189.87	-2.30	0.90	 	 	 	 	 	 	 	 	 	 	 	 	 	 	 	 	 	 	1581502651	8.04	14.89
12/02/2020 10:17:32	120220	12022020	101732	189.75	12.590572	-57.180260	189.84	0.340	-1.060	1.340	189.73	-2.40	2.00	 	 	 	 	 	 	 	 	 	 	 	 	 	 	 	 	 	 	1581502652	8.32	15.41
12/02/2020 10:17:33	120220	12022020	101733	189.66	12.590537	-57.180273	189.80	-0.360	-0.710	2.520	189.65	-2.00	3.10	 	 	 	 	 	 	 	 	 	 	 	 	 	 	 	 	 	 	1581502653	8.10	15.00
12/02/2020 10:17:34	120220	12022020	101734	189.67	12.590503	-57.180292	189.87	-0.860	-0.320	3.260	189.70	-1.60	3.80	 	 	 	 	 	 	 	 	 	 	 	 	 	 	 	 	 	 	1581502654	7.88	14.59
12/02/2020 10:17:35	120220	12022020	101735	189.87	12.590472	-57.180310	190.07	-0.850	-0.270	3.270	189.91	-1.60	3.70	 	 	 	 	 	 	 	 	 	 	 	 	 	 	 	 	 	 	1581502655	7.95	14.72
12/02/2020 10:17:36	120220	12022020	101736	189.99	12.590435	-57.180323	190.12	-0.340	-0.620	2.930	189.99	-2.00	3.30	 	 	 	 	 	 	 	 	 	 	 	 	 	 	 	 	 	 	1581502656	8.23	15.24
12/02/2020 10:17:37	120220	12022020	101737	189.86	12.590397	-57.180333	189.95	0.290	-1.000	2.500	189.81	-2.40	2.80	 	 	 	 	 	 	 	 	 	 	 	 	 	 	 	 	 	 	1581502657	8.68	16.08
12/02/2020 10:17:38	120220	12022020	101738	189.63	12.590355	-57.180340	189.69	0.680	-0.900	1.980	189.59	-2.20	2.40	 	 	 	 	 	 	 	 	 	 	 	 	 	 	 	 	 	 	1581502658	8.87	16.43
12/02/2020 10:17:39	120220	12022020	101739	189.44	12.590317	-57.180345	189.54	0.400	-0.120	1.710	189.42	-1.30	2.20	 	 	 	 	 	 	 	 	 	 	 	 	 	 	 	 	 	 	1581502659	8.38	15.52
12/02/2020 10:17:40	120220	12022020	101740	189.41	12.590282	-57.180352	189.53	-0.210	0.700	1.560	189.42	-0.60	2.00	 	 	 	 	 	 	 	 	 	 	 	 	 	 	 	 	 	 	1581502660	7.70	14.26
12/02/2020 10:17:41	120220	12022020	101741	189.47	12.590247	-57.180358	189.61	-0.630	0.910	1.530	189.48	-0.50	2.00	 	 	 	 	 	 	 	 	 	 	 	 	 	 	 	 	 	 	1581502661	7.58	14.04
12/02/2020 10:17:42	120220	12022020	101742	189.58	12.590210	-57.180368	189.70	-0.520	0.400	1.670	189.59	-1.00	2.20	 	 	 	 	 	 	 	 	 	 	 	 	 	 	 	 	 	 	1581502662	8.18	15.15
12/02/2020 10:17:43	120220	12022020	101743	189.66	12.590172	-57.180382	189.81	-0.040	-0.200	1.780	189.68	-1.60	2.30	 	 	 	 	 	 	 	 	 	 	 	 	 	 	 	 	 	 	1581502663	8.81	16.32
12/02/2020 10:17:44	120220	12022020	101744	189.86	12.590133	-57.180393	190.03	0.310	-0.390	1.830	189.92	-1.70	2.30	 	 	 	 	 	 	 	 	 	 	 	 	 	 	 	 	 	 	1581502664	8.72	16.15
12/02/2020 10:17:45	120220	12022020	101745	190.25	12.590097	-57.180403	190.44	0.240	-0.180	1.840	190.33	-1.50	2.30	 	 	 	 	 	 	 	 	 	 	 	 	 	 	 	 	 	 	1581502665	8.09	14.98
12/02/2020 10:17:46	120220	12022020	101746	190.63	12.590063	-57.180413	190.78	-0.000	-0.010	1.860	190.68	-1.40	2.30	 	 	 	 	 	 	 	 	 	 	 	 	 	 	 	 	 	 	1581502666	7.51	13.91
12/02/2020 10:17:47	120220	12022020	101747	190.75	12.590030	-57.180423	190.82	0.040	-0.270	1.850	190.73	-1.70	2.30	 	 	 	 	 	 	 	 	 	 	 	 	 	 	 	 	 	 	1581502667	7.50	13.89
12/02/2020 10:17:48	120220	12022020	101748	190.64	12.589993	-57.180433	190.68	0.380	-0.770	1.710	190.59	-2.20	2.20	 	 	 	 	 	 	 	 	 	 	 	 	 	 	 	 	 	 	1581502668	8.03	14.87
12/02/2020 10:17:49	120220	12022020	101749	190.28	12.589955	-57.180442	190.25	0.710	-1.250	1.680	190.17	-2.60	2.20	 	 	 	 	 	 	 	 	 	 	 	 	 	 	 	 	 	 	1581502669	8.40	15.56
12/02/2020 10:17:50	120220	12022020	101750	189.72	12.589917	-57.180450	189.72	0.790	-1.300	1.780	189.63	-2.60	2.30	 	 	 	 	 	 	 	 	 	 	 	 	 	 	 	 	 	 	1581502670	8.60	15.93
12/02/2020 10:17:51	120220	12022020	101751	189.42	12.589878	-57.180458	189.52	0.450	-0.570	1.800	189.42	-1.80	2.30	 	 	 	 	 	 	 	 	 	 	 	 	 	 	 	 	 	 	1581502671	8.35	15.46
12/02/2020 10:17:52	120220	12022020	101752	189.61	12.589843	-57.180465	189.79	-0.190	0.310	1.730	189.69	-1.00	2.20	 	 	 	 	 	 	 	 	 	 	 	 	 	 	 	 	 	 	1581502672	7.66	14.19
12/02/2020 10:17:53	120220	12022020	101753	189.98	12.589810	-57.180475	190.15	-0.760	0.550	1.850	190.04	-0.80	2.40	 	 	 	 	 	 	 	 	 	 	 	 	 	 	 	 	 	 	1581502673	7.54	13.96
12/02/2020 10:17:54	120220	12022020	101754	190.17	12.589773	-57.180487	190.30	-0.900	0.170	2.250	190.19	-1.20	2.80	 	 	 	 	 	 	 	 	 	 	 	 	 	 	 	 	 	 	1581502674	8.29	15.35
12/02/2020 10:17:55	120220	12022020	101755	190.20	12.589735	-57.180503	190.32	-0.610	-0.180	2.430	190.21	-1.50	2.90	 	 	 	 	 	 	 	 	 	 	 	 	 	 	 	 	 	 	1581502675	8.90	16.48
12/02/2020 10:17:56	120220	12022020	101756	190.28	12.589697	-57.180517	190.42	-0.210	-0.160	2.200	190.32	-1.50	2.60	 	 	 	 	 	 	 	 	 	 	 	 	 	 	 	 	 	 	1581502676	8.69	16.09
12/02/2020 10:17:57	120220	12022020	101757	190.52	12.589660	-57.180525	190.65	0.000	-0.010	1.840	190.56	-1.40	2.30	 	 	 	 	 	 	 	 	 	 	 	 	 	 	 	 	 	 	1581502677	8.08	14.96
12/02/2020 10:17:58	120220	12022020	101758	190.62	12.589625	-57.180535	190.70	0.100	-0.110	1.600	190.60	-1.50	2.10	 	 	 	 	 	 	 	 	 	 	 	 	 	 	 	 	 	 	1581502678	7.84	14.52
12/02/2020 10:17:59	120220	12022020	101759	190.37	12.589587	-57.180543	190.38	0.360	-0.540	1.620	190.30	-2.00	2.10	 	 	 	 	 	 	 	 	 	 	 	 	 	 	 	 	 	 	1581502679	8.12	15.04
12/02/2020 10:18:00	120220	12022020	101800	190.05	12.589548	-57.180552	190.07	0.710	-0.830	1.690	190.00	-2.20	2.20	 	 	 	 	 	 	 	 	 	 	 	 	 	 	 	 	 	 	1581502680	8.54	15.82
12/02/2020 10:18:01	120220	12022020	101801	189.94	12.589510	-57.180560	190.04	0.840	-0.660	1.620	189.95	-2.00	2.10	1015.20	26.10	26.10	19.90	20.10	9.0	69.0	69.0	404.0	25.8	256.00	11.40	67.00	13.10	805	9654.0	27.5	27.5	1581502681	8.49	15.72
12/02/2020 10:18:02	120220	12022020	101802	190.10	12.589473	-57.180567	190.23	0.530	-0.190	1.550	190.16	-1.40	2.00	 	 	 	 	 	 	 	 	 	 	 	 	 	 	 	 	 	 	1581502682	8.05	14.91
12/02/2020 10:18:03	120220	12022020	101803	190.44	12.589438	-57.180573	190.58	-0.210	0.260	1.720	190.50	-1.10	2.30	 	 	 	 	 	 	 	 	 	 	 	 	 	 	 	 	 	 	1581502683	7.62	14.11
12/02/2020 10:18:04	120220	12022020	101804	190.62	12.589403	-57.180585	190.74	-0.880	0.030	2.240	190.61	-1.40	2.80	 	 	 	 	 	 	 	 	 	 	 	 	 	 	 	 	 	 	1581502684	7.76	14.37
12/02/2020 10:18:05	120220	12022020	101805	190.52	12.589367	-57.180602	190.54	-0.800	-0.650	2.720	190.47	-2.10	3.20	 	 	 	 	 	 	 	 	 	 	 	 	 	 	 	 	 	 	1581502685	8.66	16.04
12/02/2020 10:18:06	120220	12022020	101806	190.22	12.589328	-57.180618	190.31	-0.150	-0.850	2.820	190.19	-2.20	3.30	 	 	 	 	 	 	 	 	 	 	 	 	 	 	 	 	 	 	1581502686	9.18	17.00
12/02/2020 10:18:07	120220	12022020	101807	190.20	12.589290	-57.180630	190.34	0.420	-0.270	2.280	190.22	-1.50	2.70	 	 	 	 	 	 	 	 	 	 	 	 	 	 	 	 	 	 	1581502687	8.53	15.80
12/02/2020 10:18:08	120220	12022020	101808	190.41	12.589255	-57.180637	190.54	0.420	0.410	1.570	190.45	-0.90	2.00	 	 	 	 	 	 	 	 	 	 	 	 	 	 	 	 	 	 	1581502688	7.61	14.09
12/02/2020 10:18:09	120220	12022020	101809	190.60	12.589222	-57.180642	190.70	0.050	0.440	1.210	190.61	-1.00	1.70	 	 	 	 	 	 	 	 	 	 	 	 	 	 	 	 	 	 	1581502689	7.44	13.78
12/02/2020 10:18:10	120220	12022020	101810	190.55	12.589185	-57.180648	190.62	-0.180	-0.160	1.290	190.53	-1.60	1.80	 	 	 	 	 	 	 	 	 	 	 	 	 	 	 	 	 	 	1581502690	8.02	14.85
12/02/2020 10:18:11	120220	12022020	101811	190.47	12.589145	-57.180660	190.58	-0.060	-0.740	1.460	190.49	-2.20	2.00	 	 	 	 	 	 	 	 	 	 	 	 	 	 	 	 	 	 	1581502691	8.73	16.17
12/02/2020 10:18:12	120220	12022020	101812	190.64	12.589107	-57.180672	190.80	0.270	-0.890	1.500	190.69	-2.20	2.00	 	 	 	 	 	 	 	 	 	 	 	 	 	 	 	 	 	 	1581502692	8.76	16.22
12/02/2020 10:18:13	120220	12022020	101813	190.83	12.589070	-57.180683	190.95	0.420	-0.680	1.500	190.84	-2.00	2.00	 	 	 	 	 	 	 	 	 	 	 	 	 	 	 	 	 	 	1581502693	8.20	15.19
12/02/2020 10:18:14	120220	12022020	101814	190.77	12.589033	-57.180692	190.84	0.290	-0.550	1.580	190.74	-1.90	2.10	 	 	 	 	 	 	 	 	 	 	 	 	 	 	 	 	 	 	1581502694	7.94	14.70
12/02/2020 10:18:15	120220	12022020	101815	190.65	12.588997	-57.180700	190.76	-0.040	-0.400	1.660	190.65	-1.70	2.10	 	 	 	 	 	 	 	 	 	 	 	 	 	 	 	 	 	 	1581502695	8.14	15.08
12/02/2020 10:18:16	120220	12022020	101816	190.67	12.588960	-57.180710	190.77	-0.390	-0.090	1.640	190.68	-1.40	2.10	 	 	 	 	 	 	 	 	 	 	 	 	 	 	 	 	 	 	1581502696	8.17	15.13
12/02/2020 10:18:17	120220	12022020	101817	190.66	12.588923	-57.180720	190.74	-0.620	0.100	1.720	190.65	-1.20	2.20	 	 	 	 	 	 	 	 	 	 	 	 	 	 	 	 	 	 	1581502697	8.02	14.85
12/02/2020 10:18:18	120220	12022020	101818	190.63	12.588888	-57.180732	190.72	-0.690	0.120	1.970	190.64	-1.20	2.50	 	 	 	 	 	 	 	 	 	 	 	 	 	 	 	 	 	 	1581502698	8.22	15.22
12/02/2020 10:18:19	120220	12022020	101819	190.65	12.588852	-57.180745	190.75	-0.620	0.090	2.180	190.65	-1.30	2.70	 	 	 	 	 	 	 	 	 	 	 	 	 	 	 	 	 	 	1581502699	8.42	15.59
12/02/2020 10:18:20	120220	12022020	101820	190.64	12.588815	-57.180760	190.72	-0.330	-0.020	2.240	190.62	-1.40	2.70	 	 	 	 	 	 	 	 	 	 	 	 	 	 	 	 	 	 	1581502700	8.41	15.58
12/02/2020 10:18:21	120220	12022020	101821	190.57	12.588777	-57.180772	190.65	0.260	-0.250	1.990	190.57	-1.60	2.40	 	 	 	 	 	 	 	 	 	 	 	 	 	 	 	 	 	 	1581502701	8.42	15.59
12/02/2020 10:18:22	120220	12022020	101822	190.63	12.588740	-57.180782	190.71	0.740	-0.330	1.570	190.66	-1.70	1.90	 	 	 	 	 	 	 	 	 	 	 	 	 	 	 	 	 	 	1581502702	8.42	15.59
12/02/2020 10:18:23	120220	12022020	101823	190.76	12.588702	-57.180787	190.91	0.950	-0.180	1.070	190.81	-1.50	1.40	 	 	 	 	 	 	 	 	 	 	 	 	 	 	 	 	 	 	1581502703	8.17	15.13
12/02/2020 10:18:24	120220	12022020	101824	191.05	12.588665	-57.180790	191.16	0.660	0.010	0.690	191.10	-1.30	1.20	 	 	 	 	 	 	 	 	 	 	 	 	 	 	 	 	 	 	1581502704	7.82	14.48
12/02/2020 10:18:25	120220	12022020	101825	191.25	12.588630	-57.180797	191.34	0.130	-0.130	0.830	191.27	-1.60	1.40	 	 	 	 	 	 	 	 	 	 	 	 	 	 	 	 	 	 	1581502705	7.66	14.19
12/02/2020 10:18:26	120220	12022020	101826	191.27	12.588593	-57.180805	191.36	-0.270	-0.780	1.350	191.25	-2.30	2.00	 	 	 	 	 	 	 	 	 	 	 	 	 	 	 	 	 	 	1581502706	8.07	14.95
12/02/2020 10:18:27	120220	12022020	101827	191.14	12.588555	-57.180820	191.22	-0.450	-1.450	2.040	191.09	-2.90	2.70	 	 	 	 	 	 	 	 	 	 	 	 	 	 	 	 	 	 	1581502707	8.77	16.24
12/02/2020 10:18:28	120220	12022020	101828	190.88	12.588517	-57.180837	190.98	-0.530	-1.500	2.850	190.83	-2.70	3.50	 	 	 	 	 	 	 	 	 	 	 	 	 	 	 	 	 	 	1581502708	9.03	16.72
12/02/2020 10:18:29	120220	12022020	101829	190.71	12.588480	-57.180853	190.83	-0.600	-0.720	3.340	190.71	-1.80	3.80	 	 	 	 	 	 	 	 	 	 	 	 	 	 	 	 	 	 	1581502709	8.65	16.02
12/02/2020 10:18:30	120220	12022020	101830	190.78	12.588447	-57.180870	190.91	-0.610	0.360	3.230	190.81	-0.80	3.60	 	 	 	 	 	 	 	 	 	 	 	 	 	 	 	 	 	 	1581502710	7.89	14.61
12/02/2020 10:18:31	120220	12022020	101831	190.82	12.588413	-57.180882	190.90	-0.310	0.860	2.720	190.82	-0.50	3.00	 	 	 	 	 	 	 	 	 	 	 	 	 	 	 	 	 	 	1581502711	7.60	14.08
12/02/2020 10:18:32	120220	12022020	101832	190.70	12.588377	-57.180888	190.78	0.350	0.520	1.860	190.70	-1.00	2.10	 	 	 	 	 	 	 	 	 	 	 	 	 	 	 	 	 	 	1581502712	8.27	15.32
12/02/2020 10:18:33	120220	12022020	101833	190.83	12.588335	-57.180892	191.06	0.820	0.180	0.890	190.92	-1.20	1.20	 	 	 	 	 	 	 	 	 	 	 	 	 	 	 	 	 	 	1581502713	9.04	16.74
12/02/2020 10:18:34	120220	12022020	101834	191.49	12.588293	-57.180893	191.64	0.660	0.120	0.500	191.60	-1.30	1.00	 	 	 	 	 	 	 	 	 	 	 	 	 	 	 	 	 	 	1581502714	8.65	16.02
12/02/2020 10:18:35	120220	12022020	101835	191.90	12.588258	-57.180900	192.01	0.030	-0.080	0.930	191.93	-1.60	1.60	 	 	 	 	 	 	 	 	 	 	 	 	 	 	 	 	 	 	1581502715	7.91	14.65
12/02/2020 10:18:36	120220	12022020	101836	191.86	12.588222	-57.180912	191.95	-0.480	-0.660	1.910	191.82	-2.20	2.60	 	 	 	 	 	 	 	 	 	 	 	 	 	 	 	 	 	 	1581502716	8.07	14.95
12/02/2020 10:18:37	120220	12022020	101837	191.63	12.588187	-57.180930	191.74	-0.600	-1.190	2.870	191.59	-2.60	3.50	 	 	 	 	 	 	 	 	 	 	 	 	 	 	 	 	 	 	1581502717	8.70	16.11
12/02/2020 10:18:38	120220	12022020	101838	191.47	12.588150	-57.180950	191.58	-0.320	-1.180	3.190	191.44	-2.50	3.60	 	 	 	 	 	 	 	 	 	 	 	 	 	 	 	 	 	 	1581502718	8.76	16.22
12/02/2020 10:18:39	120220	12022020	101839	191.27	12.588115	-57.180965	191.36	0.160	-0.820	2.930	191.21	-2.10	3.30	 	 	 	 	 	 	 	 	 	 	 	 	 	 	 	 	 	 	1581502719	8.10	15.00
12/02/2020 10:18:40	120220	12022020	101840	190.95	12.588080	-57.180975	191.05	0.570	-0.510	2.540	190.89	-1.80	2.90	 	 	 	 	 	 	 	 	 	 	 	 	 	 	 	 	 	 	1581502720	7.91	14.65
12/02/2020 10:18:41	120220	12022020	101841	190.78	12.588043	-57.180982	190.92	0.630	-0.150	2.070	190.78	-1.40	2.40	 	 	 	 	 	 	 	 	 	 	 	 	 	 	 	 	 	 	1581502721	8.22	15.22
12/02/2020 10:18:42	120220	12022020	101842	191.04	12.588005	-57.180987	191.23	0.210	0.440	1.610	191.14	-0.80	2.00	 	 	 	 	 	 	 	 	 	 	 	 	 	 	 	 	 	 	1581502722	8.20	15.19
12/02/2020 10:18:43	120220	12022020	101843	191.53	12.587970	-57.180993	191.72	-0.390	0.810	1.550	191.62	-0.60	2.10	 	 	 	 	 	 	 	 	 	 	 	 	 	 	 	 	 	 	1581502723	7.78	14.41
12/02/2020 10:18:44	120220	12022020	101844	191.88	12.587933	-57.181003	192.05	-0.630	0.480	1.790	191.92	-1.10	2.30	 	 	 	 	 	 	 	 	 	 	 	 	 	 	 	 	 	 	1581502724	7.94	14.70
12/02/2020 10:18:45	120220	12022020	101845	192.02	12.587895	-57.181017	192.18	-0.380	-0.290	2.050	192.02	-1.80	2.60	 	 	 	 	 	 	 	 	 	 	 	 	 	 	 	 	 	 	1581502725	8.61	15.95
12/02/2020 10:18:46	120220	12022020	101846	191.97	12.587857	-57.181030	192.14	0.020	-0.880	2.330	191.95	-2.30	2.80	 	 	 	 	 	 	 	 	 	 	 	 	 	 	 	 	 	 	1581502726	8.88	16.45
12/02/2020 10:18:47	120220	12022020	101847	191.85	12.587820	-57.181043	192.00	0.240	-1.010	2.370	191.82	-2.40	2.80	 	 	 	 	 	 	 	 	 	 	 	 	 	 	 	 	 	 	1581502727	8.57	15.87
12/02/2020 10:18:48	120220	12022020	101848	191.64	12.587783	-57.181055	191.76	0.220	-0.820	2.120	191.59	-2.10	2.50	 	 	 	 	 	 	 	 	 	 	 	 	 	 	 	 	 	 	1581502728	8.08	14.96
12/02/2020 10:18:49	120220	12022020	101849	191.39	12.587748	-57.181065	191.50	0.130	-0.560	1.830	191.35	-1.90	2.20	 	 	 	 	 	 	 	 	 	 	 	 	 	 	 	 	 	 	1581502729	7.92	14.67
12/02/2020 10:18:50	120220	12022020	101850	191.23	12.587712	-57.181073	191.35	0.090	-0.310	1.500	191.22	-1.60	1.90	 	 	 	 	 	 	 	 	 	 	 	 	 	 	 	 	 	 	1581502730	8.02	14.85
12/02/2020 10:18:51	120220	12022020	101851	191.15	12.587675	-57.181082	191.26	0.160	-0.160	1.210	191.14	-1.50	1.70	 	 	 	 	 	 	 	 	 	 	 	 	 	 	 	 	 	 	1581502731	8.15	15.09
12/02/2020 10:18:52	120220	12022020	101852	191.13	12.587637	-57.181088	191.24	0.170	-0.100	1.170	191.15	-1.50	1.70	 	 	 	 	 	 	 	 	 	 	 	 	 	 	 	 	 	 	1581502732	8.39	15.54
12/02/2020 10:18:53	120220	12022020	101853	191.33	12.587597	-57.181098	191.48	-0.110	0.090	1.480	191.39	-1.20	2.10	 	 	 	 	 	 	 	 	 	 	 	 	 	 	 	 	 	 	1581502733	8.49	15.72
12/02/2020 10:18:54	120220	12022020	101854	191.75	12.587562	-57.181110	191.94	-0.610	0.510	2.040	191.86	-0.80	2.60	 	 	 	 	 	 	 	 	 	 	 	 	 	 	 	 	 	 	1581502734	8.22	15.22
12/02/2020 10:18:55	120220	12022020	101855	192.25	12.587528	-57.181127	192.43	-0.900	0.840	2.420	192.25	-0.60	2.90	 	 	 	 	 	 	 	 	 	 	 	 	 	 	 	 	 	 	1581502735	7.86	14.56
12/02/2020 10:18:56	120220	12022020	101856	192.48	12.587495	-57.181142	192.63	-0.520	0.370	2.390	192.48	-1.30	2.80	 	 	 	 	 	 	 	 	 	 	 	 	 	 	 	 	 	 	1581502736	7.81	14.46
12/02/2020 10:18:57	120220	12022020	101857	192.31	12.587458	-57.181155	192.43	0.400	-0.860	2.100	192.25	-2.50	2.50	 	 	 	 	 	 	 	 	 	 	 	 	 	 	 	 	 	 	1581502737	8.56	15.85
12/02/2020 10:18:58	120220	12022020	101858	191.97	12.587415	-57.181163	192.11	1.140	-1.760	1.740	191.93	-3.20	2.10	 	 	 	 	 	 	 	 	 	 	 	 	 	 	 	 	 	 	1581502738	9.29	17.21
12/02/2020 10:18:59	120220	12022020	101859	191.85	12.587375	-57.181170	191.99	1.020	-1.520	1.370	191.85	-2.70	1.80	 	 	 	 	 	 	 	 	 	 	 	 	 	 	 	 	 	 	1581502739	8.89	16.46
12/02/2020 10:19:00	120220	12022020	101900	191.92	12.587338	-57.181175	192.06	0.150	-0.530	1.340	191.93	-1.70	1.90	 	 	 	 	 	 	 	 	 	 	 	 	 	 	 	 	 	 	1581502740	7.71	14.28
12/02/2020 10:19:01	120220	12022020	101901	191.90	12.587307	-57.181185	192.01	-0.700	0.220	1.760	191.88	-1.10	2.40	1015.10	26.20	26.30	20.30	20.40	10.0	69.0	70.0	403.0	25.8	254.00	10.50	66.00	12.30	903	10575.0	27.5	27.5	1581502741	7.21	13.35
12/02/2020 10:19:02	120220	12022020	101902	191.76	12.587273	-57.181200	191.87	-0.810	0.420	2.280	191.73	-1.00	2.80	 	 	 	 	 	 	 	 	 	 	 	 	 	 	 	 	 	 	1581502742	7.92	14.67
12/02/2020 10:19:03	120220	12022020	101903	191.62	12.587237	-57.181217	191.73	-0.210	0.270	2.520	191.59	-1.20	3.00	 	 	 	 	 	 	 	 	 	 	 	 	 	 	 	 	 	 	1581502743	8.55	15.83
12/02/2020 10:19:04	120220	12022020	101904	191.50	12.587198	-57.181230	191.65	0.360	-0.080	2.580	191.50	-1.50	3.10	 	 	 	 	 	 	 	 	 	 	 	 	 	 	 	 	 	 	1581502744	8.77	16.24
12/02/2020 10:19:05	120220	12022020	101905	191.64	12.587158	-57.181242	191.82	0.270	-0.270	2.680	191.70	-1.70	3.20	 	 	 	 	 	 	 	 	 	 	 	 	 	 	 	 	 	 	1581502745	8.78	16.26
12/02/2020 10:19:06	120220	12022020	101906	191.97	12.587122	-57.181253	192.14	-0.320	-0.190	2.890	192.03	-1.50	3.40	 	 	 	 	 	 	 	 	 	 	 	 	 	 	 	 	 	 	1581502746	8.36	15.48
12/02/2020 10:19:07	120220	12022020	101907	192.16	12.587088	-57.181268	192.37	-0.670	-0.130	2.970	192.20	-1.50	3.40	 	 	 	 	 	 	 	 	 	 	 	 	 	 	 	 	 	 	1581502747	8.02	14.85
12/02/2020 10:19:08	120220	12022020	101908	192.33	12.587053	-57.181283	192.51	-0.300	-0.270	2.580	192.36	-1.70	2.90	 	 	 	 	 	 	 	 	 	 	 	 	 	 	 	 	 	 	1581502748	8.10	15.00
12/02/2020 10:19:09	120220	12022020	101909	192.45	12.587017	-57.181293	192.64	0.430	-0.340	1.810	192.48	-1.70	2.10	 	 	 	 	 	 	 	 	 	 	 	 	 	 	 	 	 	 	1581502749	8.22	15.22
12/02/2020 10:19:10	120220	12022020	101910	192.70	12.586980	-57.181300	192.84	0.880	-0.200	0.870	192.75	-1.50	1.20	 	 	 	 	 	 	 	 	 	 	 	 	 	 	 	 	 	 	1581502750	8.08	14.96
12/02/2020 10:19:11	120220	12022020	101911	192.90	12.586943	-57.181303	193.00	0.760	-0.150	0.140	192.92	-1.60	0.60	 	 	 	 	 	 	 	 	 	 	 	 	 	 	 	 	 	 	1581502751	7.86	14.56
12/02/2020 10:19:12	120220	12022020	101912	192.84	12.586907	-57.181307	192.90	0.300	-0.560	0.250	192.79	-2.10	0.90	 	 	 	 	 	 	 	 	 	 	 	 	 	 	 	 	 	 	1581502752	7.98	14.78
12/02/2020 10:19:13	120220	12022020	101913	192.42	12.586867	-57.181317	192.47	-0.140	-1.250	1.270	192.29	-2.70	2.10	 	 	 	 	 	 	 	 	 	 	 	 	 	 	 	 	 	 	1581502753	8.58	15.89
12/02/2020 10:19:14	120220	12022020	101914	191.78	12.586828	-57.181333	191.86	-0.400	-1.420	2.650	191.65	-2.70	3.40	 	 	 	 	 	 	 	 	 	 	 	 	 	 	 	 	 	 	1581502754	9.14	16.93
12/02/2020 10:19:15	120220	12022020	101915	191.21	12.586792	-57.181353	191.32	-0.570	-0.710	3.760	191.11	-1.80	4.40	 	 	 	 	 	 	 	 	 	 	 	 	 	 	 	 	 	 	1581502755	8.92	16.52
12/02/2020 10:19:16	120220	12022020	101916	190.81	12.586758	-57.181372	190.96	-0.720	0.340	4.200	190.75	-0.80	4.70	 	 	 	 	 	 	 	 	 	 	 	 	 	 	 	 	 	 	1581502756	8.19	15.17
12/02/2020 10:19:17	120220	12022020	101917	190.62	12.586725	-57.181388	190.78	-0.720	0.900	3.790	190.62	-0.40	4.10	 	 	 	 	 	 	 	 	 	 	 	 	 	 	 	 	 	 	1581502757	7.87	14.58
12/02/2020 10:19:18	120220	12022020	101918	190.81	12.586690	-57.181402	191.00	-0.380	0.880	2.580	190.91	-0.60	2.70	 	 	 	 	 	 	 	 	 	 	 	 	 	 	 	 	 	 	1581502758	8.16	15.11
12/02/2020 10:19:19	120220	12022020	101919	191.27	12.586652	-57.181408	191.57	0.250	0.540	0.950	191.41	-1.00	1.10	 	 	 	 	 	 	 	 	 	 	 	 	 	 	 	 	 	 	1581502759	8.34	15.45
12/02/2020 10:19:20	120220	12022020	101920	191.91	12.586613	-57.181412	192.00	0.840	-0.180	-0.170	191.97	-1.80	0.20	 	 	 	 	 	 	 	 	 	 	 	 	 	 	 	 	 	 	1581502760	8.43	15.61
12/02/2020 10:19:21	120220	12022020	101921	192.07	12.586572	-57.181413	192.18	0.980	-0.920	-0.240	192.10	-2.40	0.40	 	 	 	 	 	 	 	 	 	 	 	 	 	 	 	 	 	 	1581502761	8.67	16.06
12/02/2020 10:19:22	120220	12022020	101922	192.28	12.586533	-57.181422	192.39	0.480	-1.050	0.640	192.32	-2.40	1.40	 	 	 	 	 	 	 	 	 	 	 	 	 	 	 	 	 	 	1581502762	8.39	15.54
12/02/2020 10:19:23	120220	12022020	101923	192.36	12.586500	-57.181437	192.46	-0.260	-0.730	1.890	192.36	-2.00	2.70	 	 	 	 	 	 	 	 	 	 	 	 	 	 	 	 	 	 	1581502763	7.80	14.45
12/02/2020 10:19:24	120220	12022020	101924	192.06	12.586468	-57.181455	192.16	-0.550	-0.650	3.010	191.97	-2.10	3.70	 	 	 	 	 	 	 	 	 	 	 	 	 	 	 	 	 	 	1581502764	7.77	14.39
12/02/2020 10:19:25	120220	12022020	101925	191.43	12.586435	-57.181473	191.50	-0.180	-1.050	3.810	191.27	-2.50	4.40	 	 	 	 	 	 	 	 	 	 	 	 	 	 	 	 	 	 	1581502765	8.40	15.56
12/02/2020 10:19:26	120220	12022020	101926	190.63	12.586395	-57.181488	190.72	0.380	-1.270	4.210	190.48	-2.60	4.70	 	 	 	 	 	 	 	 	 	 	 	 	 	 	 	 	 	 	1581502766	9.08	16.82
12/02/2020 10:19:27	120220	12022020	101927	190.17	12.586355	-57.181500	190.36	0.410	-0.580	4.040	190.20	-1.60	4.40	 	 	 	 	 	 	 	 	 	 	 	 	 	 	 	 	 	 	1581502767	9.00	16.67
12/02/2020 10:19:28	120220	12022020	101928	190.69	12.586318	-57.181508	190.96	-0.290	1.030	3.420	190.89	0.00	3.70	 	 	 	 	 	 	 	 	 	 	 	 	 	 	 	 	 	 	1581502768	7.90	14.63
12/02/2020 10:19:29	120220	12022020	101929	191.81	12.586290	-57.181518	192.07	-1.100	2.360	2.660	192.04	1.10	3.00	 	 	 	 	 	 	 	 	 	 	 	 	 	 	 	 	 	 	1581502769	6.64	12.30
12/02/2020 10:19:30	120220	12022020	101930	192.73	12.586260	-57.181528	192.94	-1.100	2.020	1.870	192.86	0.20	2.20	 	 	 	 	 	 	 	 	 	 	 	 	 	 	 	 	 	 	1581502770	6.67	12.35
12/02/2020 10:19:31	120220	12022020	101931	193.08	12.586223	-57.181540	193.22	-0.010	-0.030	1.210	193.09	-2.00	1.60	 	 	 	 	 	 	 	 	 	 	 	 	 	 	 	 	 	 	1581502771	8.26	15.30
12/02/2020 10:19:32	120220	12022020	101932	193.00	12.586180	-57.181550	193.10	1.300	-1.990	0.840	192.96	-3.60	1.30	 	 	 	 	 	 	 	 	 	 	 	 	 	 	 	 	 	 	1581502772	9.76	18.08
12/02/2020 10:19:33	120220	12022020	101933	192.83	12.586137	-57.181560	192.94	1.710	-2.420	0.760	192.81	-3.70	1.30	 	 	 	 	 	 	 	 	 	 	 	 	 	 	 	 	 	 	1581502773	9.37	17.35
12/02/2020 10:19:34	120220	12022020	101934	192.71	12.586102	-57.181567	192.82	0.950	-1.580	1.030	192.67	-2.70	1.70	 	 	 	 	 	 	 	 	 	 	 	 	 	 	 	 	 	 	1581502774	7.79	14.43
12/02/2020 10:19:35	120220	12022020	101935	192.56	12.586070	-57.181577	192.65	-0.290	-0.540	1.670	192.53	-1.70	2.30	 	 	 	 	 	 	 	 	 	 	 	 	 	 	 	 	 	 	1581502775	6.93	12.83
12/02/2020 10:19:36	120220	12022020	101936	192.29	12.586040	-57.181592	192.44	-1.100	0.060	2.350	192.25	-1.30	3.00	 	 	 	 	 	 	 	 	 	 	 	 	 	 	 	 	 	 	1581502776	7.41	13.72
12/02/2020 10:19:37	120220	12022020	101937	192.11	12.586005	-57.181610	192.27	-1.100	0.240	2.790	192.10	-1.10	3.30	 	 	 	 	 	 	 	 	 	 	 	 	 	 	 	 	 	 	1581502777	8.27	15.32
12/02/2020 10:19:38	120220	12022020	101938	192.15	12.585968	-57.181627	192.34	-0.650	0.340	2.750	192.19	-1.00	3.10	 	 	 	 	 	 	 	 	 	 	 	 	 	 	 	 	 	 	1581502778	8.64	16.00
12/02/2020 10:19:39	120220	12022020	101939	192.43	12.585932	-57.181640	192.63	-0.220	0.390	2.210	192.49	-1.00	2.60	 	 	 	 	 	 	 	 	 	 	 	 	 	 	 	 	 	 	1581502779	8.47	15.69
12/02/2020 10:19:40	120220	12022020	101940	192.60	12.585895	-57.181650	192.75	0.070	0.240	1.670	192.59	-1.20	2.10	 	 	 	 	 	 	 	 	 	 	 	 	 	 	 	 	 	 	1581502780	8.26	15.30
12/02/2020 10:19:41	120220	12022020	101941	192.43	12.585857	-57.181658	192.56	0.330	-0.060	1.480	192.39	-1.50	2.00	 	 	 	 	 	 	 	 	 	 	 	 	 	 	 	 	 	 	1581502781	8.34	15.45
12/02/2020 10:19:42	120220	12022020	101942	192.31	12.585818	-57.181667	192.46	0.440	-0.100	1.470	192.30	-1.50	2.00	 	 	 	 	 	 	 	 	 	 	 	 	 	 	 	 	 	 	1581502782	8.32	15.41
12/02/2020 10:19:43	120220	12022020	101943	192.28	12.585783	-57.181677	192.43	0.310	-0.010	1.580	192.26	-1.40	2.10	 	 	 	 	 	 	 	 	 	 	 	 	 	 	 	 	 	 	1581502783	7.82	14.48
12/02/2020 10:19:44	120220	12022020	101944	192.12	12.585750	-57.181688	192.25	0.090	-0.260	1.840	192.06	-1.80	2.40	 	 	 	 	 	 	 	 	 	 	 	 	 	 	 	 	 	 	1581502784	7.67	14.20
12/02/2020 10:19:45	120220	12022020	101945	191.77	12.585715	-57.181702	191.90	0.000	-0.840	2.240	191.77	-2.30	2.80	 	 	 	 	 	 	 	 	 	 	 	 	 	 	 	 	 	 	1581502785	8.15	15.09
12/02/2020 10:19:46	120220	12022020	101946	191.48	12.585678	-57.181717	191.63	0.010	-1.120	2.490	191.45	-2.50	3.00	 	 	 	 	 	 	 	 	 	 	 	 	 	 	 	 	 	 	1581502786	8.57	15.87
12/02/2020 10:19:47	120220	12022020	101947	191.33	12.585642	-57.181732	191.47	0.040	-0.840	2.420	191.30	-2.10	2.90	 	 	 	 	 	 	 	 	 	 	 	 	 	 	 	 	 	 	1581502787	8.23	15.24
12/02/2020 10:19:48	120220	12022020	101948	191.11	12.585608	-57.181743	191.24	0.090	-0.370	2.230	191.07	-1.60	2.70	 	 	 	 	 	 	 	 	 	 	 	 	 	 	 	 	 	 	1581502788	7.73	14.32
12/02/2020 10:19:49	120220	12022020	101949	190.97	12.585573	-57.181752	191.11	0.200	-0.030	1.970	190.97	-1.40	2.40	 	 	 	 	 	 	 	 	 	 	 	 	 	 	 	 	 	 	1581502789	7.74	14.33
12/02/2020 10:19:50	120220	12022020	101950	190.94	12.585537	-57.181760	191.06	0.320	0.030	1.810	190.92	-1.40	2.30	 	 	 	 	 	 	 	 	 	 	 	 	 	 	 	 	 	 	1581502790	7.99	14.80
12/02/2020 10:19:51	120220	12022020	101951	190.87	12.585498	-57.181768	191.02	0.320	-0.060	1.820	190.89	-1.40	2.30	 	 	 	 	 	 	 	 	 	 	 	 	 	 	 	 	 	 	1581502791	8.33	15.43
12/02/2020 10:19:52	120220	12022020	101952	191.24	12.585460	-57.181777	191.45	-0.020	0.100	1.920	191.37	-1.20	2.50	 	 	 	 	 	 	 	 	 	 	 	 	 	 	 	 	 	 	1581502792	8.41	15.58
12/02/2020 10:19:53	120220	12022020	101953	191.82	12.585427	-57.181788	192.21	-0.540	0.360	2.180	191.98	-1.00	2.80	 	 	 	 	 	 	 	 	 	 	 	 	 	 	 	 	 	 	1581502793	7.89	14.61
12/02/2020 10:19:54	120220	12022020	101954	192.54	12.585393	-57.181802	192.73	-0.780	0.180	2.470	192.59	-1.30	3.00	 	 	 	 	 	 	 	 	 	 	 	 	 	 	 	 	 	 	1581502794	7.65	14.17
12/02/2020 10:19:55	120220	12022020	101955	192.59	12.585358	-57.181818	192.73	-0.480	-0.620	2.770	192.54	-2.20	3.30	 	 	 	 	 	 	 	 	 	 	 	 	 	 	 	 	 	 	1581502795	8.11	15.02
12/02/2020 10:19:56	120220	12022020	101956	192.18	12.585322	-57.181833	192.28	0.160	-1.430	3.020	192.05	-2.90	3.60	 	 	 	 	 	 	 	 	 	 	 	 	 	 	 	 	 	 	1581502796	8.74	16.19
12/02/2020 10:19:57	120220	12022020	101957	191.61	12.585282	-57.181845	191.52	0.690	-1.610	3.230	191.44	-2.90	3.80	 	 	 	 	 	 	 	 	 	 	 	 	 	 	 	 	 	 	1581502797	8.84	16.37
12/02/2020 10:19:58	120220	12022020	101958	190.67	12.585243	-57.181855	190.78	0.770	-0.920	3.310	190.55	-2.00	3.80	 	 	 	 	 	 	 	 	 	 	 	 	 	 	 	 	 	 	1581502798	8.40	15.56
12/02/2020 10:19:59	120220	12022020	101959	190.41	12.585208	-57.181863	190.63	0.290	0.370	2.910	190.42	-0.70	3.30	 	 	 	 	 	 	 	 	 	 	 	 	 	 	 	 	 	 	1581502799	7.76	14.37
12/02/2020 10:20:00	120220	12022020	102000	191.00	12.585177	-57.181870	191.29	-0.430	1.490	2.170	191.20	0.30	2.50	 	 	 	 	 	 	 	 	 	 	 	 	 	 	 	 	 	 	1581502800	7.16	13.26
12/02/2020 10:20:01	120220	12022020	102001	192.13	12.585143	-57.181880	192.39	-0.860	1.690	1.280	192.34	0.20	1.60	1015.20	26.20	26.30	20.40	20.40	11.0	70.0	70.0	402.0	25.8	256.00	10.00	67.00	11.80	998	9906.0	27.5	27.5	1581502801	7.16	13.26
12/02/2020 10:20:02	120220	12022020	102002	193.16	12.585110	-57.181890	193.38	-0.670	0.870	0.540	193.31	-0.80	1.00	 	 	 	 	 	 	 	 	 	 	 	 	 	 	 	 	 	 	1581502802	7.79	14.43
12/02/2020 10:20:03	120220	12022020	102003	193.65	12.585072	-57.181902	193.79	0.060	-0.570	0.390	193.66	-2.30	1.00	 	 	 	 	 	 	 	 	 	 	 	 	 	 	 	 	 	 	1581502803	8.54	15.82
12/02/2020 10:20:04	120220	12022020	102004	193.55	12.585032	-57.181915	193.64	0.810	-1.860	0.780	193.49	-3.40	1.40	 	 	 	 	 	 	 	 	 	 	 	 	 	 	 	 	 	 	1581502804	9.00	16.67
12/02/2020 10:20:05	120220	12022020	102005	193.25	12.584992	-57.181925	193.36	1.030	-2.170	1.310	193.19	-3.40	2.00	 	 	 	 	 	 	 	 	 	 	 	 	 	 	 	 	 	 	1581502805	8.86	16.41
12/02/2020 10:20:06	120220	12022020	102006	192.95	12.584955	-57.181937	193.06	0.540	-1.480	1.880	192.89	-2.60	2.50	 	 	 	 	 	 	 	 	 	 	 	 	 	 	 	 	 	 	1581502806	8.02	14.85
12/02/2020 10:20:07	120220	12022020	102007	192.67	12.584923	-57.181947	192.79	-0.270	-0.500	2.350	192.62	-1.70	2.90	 	 	 	 	 	 	 	 	 	 	 	 	 	 	 	 	 	 	1581502807	7.42	13.74
12/02/2020 10:20:08	120220	12022020	102008	192.36	12.584890	-57.181960	192.47	-0.800	0.140	2.610	192.28	-1.20	3.20	 	 	 	 	 	 	 	 	 	 	 	 	 	 	 	 	 	 	1581502808	7.58	14.04
12/02/2020 10:20:09	120220	12022020	102009	192.01	12.584855	-57.181975	192.01	-0.750	0.320	2.800	191.92	-1.00	3.30	 	 	 	 	 	 	 	 	 	 	 	 	 	 	 	 	 	 	1581502809	8.20	15.19
12/02/2020 10:20:10	120220	12022020	102010	191.47	12.584817	-57.181990	191.58	-0.370	0.400	2.860	191.41	-0.90	3.30	 	 	 	 	 	 	 	 	 	 	 	 	 	 	 	 	 	 	1581502810	8.73	16.17
12/02/2020 10:20:11	120220	12022020	102011	191.39	12.584780	-57.182003	191.61	-0.150	0.760	2.570	191.44	-0.50	3.00	 	 	 	 	 	 	 	 	 	 	 	 	 	 	 	 	 	 	1581502811	8.62	15.96
12/02/2020 10:20:12	120220	12022020	102012	191.99	12.584745	-57.182015	192.20	-0.210	1.120	2.050	192.14	-0.20	2.40	 	 	 	 	 	 	 	 	 	 	 	 	 	 	 	 	 	 	1581502812	7.95	14.72
12/02/2020 10:20:13	120220	12022020	102013	192.61	12.584712	-57.182027	192.96	-0.160	0.940	1.460	192.76	-0.60	1.80	 	 	 	 	 	 	 	 	 	 	 	 	 	 	 	 	 	 	1581502813	7.56	14.00
12/02/2020 10:20:14	120220	12022020	102014	193.28	12.584677	-57.182038	193.43	0.390	0.090	0.810	193.33	-1.60	1.20	 	 	 	 	 	 	 	 	 	 	 	 	 	 	 	 	 	 	1581502814	7.79	14.43
12/02/2020 10:20:15	120220	12022020	102015	193.39	12.584638	-57.182045	193.49	1.150	-1.070	0.430	193.37	-2.70	0.90	 	 	 	 	 	 	 	 	 	 	 	 	 	 	 	 	 	 	1581502815	8.30	15.37
12/02/2020 10:20:16	120220	12022020	102016	193.21	12.584598	-57.182052	193.29	1.380	-1.990	0.550	193.14	-3.50	1.20	 	 	 	 	 	 	 	 	 	 	 	 	 	 	 	 	 	 	1581502816	8.59	15.91
12/02/2020 10:20:17	120220	12022020	102017	192.74	12.584560	-57.182060	192.80	0.830	-2.310	1.340	192.60	-3.70	2.10	 	 	 	 	 	 	 	 	 	 	 	 	 	 	 	 	 	 	1581502817	8.43	15.61
12/02/2020 10:20:18	120220	12022020	102018	191.98	12.584525	-57.182075	192.04	-0.100	-1.990	2.560	191.82	-3.20	3.30	 	 	 	 	 	 	 	 	 	 	 	 	 	 	 	 	 	 	1581502818	8.28	15.33
12/02/2020 10:20:19	120220	12022020	102019	191.25	12.584490	-57.182093	191.35	-0.810	-0.990	3.630	191.14	-2.10	4.30	 	 	 	 	 	 	 	 	 	 	 	 	 	 	 	 	 	 	1581502819	8.34	15.45
12/02/2020 10:20:20	120220	12022020	102020	190.97	12.584457	-57.182112	191.16	-1.110	0.370	4.100	190.98	-0.70	4.60	 	 	 	 	 	 	 	 	 	 	 	 	 	 	 	 	 	 	1581502820	8.16	15.11
12/02/2020 10:20:21	120220	12022020	102021	191.17	12.584425	-57.182127	191.38	-1.110	1.370	3.980	191.23	0.10	4.40	 	 	 	 	 	 	 	 	 	 	 	 	 	 	 	 	 	 	1581502821	7.88	14.59
12/02/2020 10:20:22	120220	12022020	102022	191.38	12.584390	-57.182142	191.56	-0.830	1.440	3.440	191.40	-0.10	3.80	 	 	 	 	 	 	 	 	 	 	 	 	 	 	 	 	 	 	1581502822	8.09	14.98
12/02/2020 10:20:23	120220	12022020	102023	191.44	12.584350	-57.182153	191.58	-0.280	0.880	2.650	191.46	-0.60	2.90	 	 	 	 	 	 	 	 	 	 	 	 	 	 	 	 	 	 	1581502823	8.72	16.15
12/02/2020 10:20:24	120220	12022020	102024	191.71	12.584310	-57.182163	191.88	0.260	0.560	1.600	191.81	-0.90	1.90	 	 	 	 	 	 	 	 	 	 	 	 	 	 	 	 	 	 	1581502824	8.85	16.39
12/02/2020 10:20:25	120220	12022020	102025	192.33	12.584273	-57.182168	192.51	0.570	0.440	0.540	192.47	-1.00	0.90	 	 	 	 	 	 	 	 	 	 	 	 	 	 	 	 	 	 	1581502825	8.03	14.87
12/02/2020 10:20:26	120220	12022020	102026	192.89	12.584238	-57.182172	193.02	0.680	-0.160	0.080	192.94	-1.80	0.60	 	 	 	 	 	 	 	 	 	 	 	 	 	 	 	 	 	 	1581502826	7.47	13.83
12/02/2020 10:20:27	120220	12022020	102027	192.90	12.584203	-57.182180	192.96	0.800	-1.330	0.510	192.84	-3.00	1.20	 	 	 	 	 	 	 	 	 	 	 	 	 	 	 	 	 	 	1581502827	7.87	14.58
12/02/2020 10:20:28	120220	12022020	102028	192.37	12.584165	-57.182192	192.40	0.890	-2.300	1.470	192.20	-3.80	2.30	 	 	 	 	 	 	 	 	 	 	 	 	 	 	 	 	 	 	1581502828	8.57	15.87
12/02/2020 10:20:29	120220	12022020	102029	191.67	12.584128	-57.182207	191.52	0.770	-2.320	2.700	191.47	-3.50	3.50	 	 	 	 	 	 	 	 	 	 	 	 	 	 	 	 	 	 	1581502829	8.61	15.95
12/02/2020 10:20:30	120220	12022020	102030	190.62	12.584093	-57.182222	190.72	0.310	-1.340	3.700	190.50	-2.40	4.30	 	 	 	 	 	 	 	 	 	 	 	 	 	 	 	 	 	 	1581502830	8.15	15.09
12/02/2020 10:20:31	120220	12022020	102031	190.27	12.584060	-57.182237	190.45	-0.430	0.080	3.970	190.28	-1.00	4.40	 	 	 	 	 	 	 	 	 	 	 	 	 	 	 	 	 	 	1581502831	7.66	14.19
12/02/2020 10:20:32	120220	12022020	102032	190.48	12.584028	-57.182252	190.70	-1.120	1.090	3.680	190.56	-0.20	4.10	 	 	 	 	 	 	 	 	 	 	 	 	 	 	 	 	 	 	1581502832	7.51	13.91
12/02/2020 10:20:33	120220	12022020	102033	190.96	12.583993	-57.182265	191.19	-1.340	1.370	3.040	191.09	-0.00	3.30	 	 	 	 	 	 	 	 	 	 	 	 	 	 	 	 	 	 	1581502833	7.97	14.76
12/02/2020 10:20:34	120220	12022020	102034	191.73	12.583957	-57.182278	191.96	-0.940	1.120	1.900	191.92	-0.40	2.10	 	 	 	 	 	 	 	 	 	 	 	 	 	 	 	 	 	 	1581502834	8.39	15.54
12/02/2020 10:20:35	120220	12022020	102035	192.47	12.583920	-57.182287	192.82	-0.240	0.570	0.720	192.64	-1.00	1.00	 	 	 	 	 	 	 	 	 	 	 	 	 	 	 	 	 	 	1581502835	8.36	15.48
12/02/2020 10:20:36	120220	12022020	102036	193.13	12.583882	-57.182293	193.23	0.410	-0.280	0.240	193.13	-1.90	0.80	 	 	 	 	 	 	 	 	 	 	 	 	 	 	 	 	 	 	1581502836	8.25	15.28
12/02/2020 10:20:37	120220	12022020	102037	192.77	12.583843	-57.182302	192.79	0.890	-1.300	0.670	192.61	-2.90	1.40	 	 	 	 	 	 	 	 	 	 	 	 	 	 	 	 	 	 	1581502837	8.38	15.52
12/02/2020 10:20:38	120220	12022020	102038	191.89	12.583805	-57.182313	191.93	1.060	-1.730	1.490	191.74	-3.00	2.20	 	 	 	 	 	 	 	 	 	 	 	 	 	 	 	 	 	 	1581502838	8.61	15.95
12/02/2020 10:20:39	120220	12022020	102039	191.32	12.583768	-57.182325	191.44	0.790	-1.060	2.020	191.28	-2.20	2.60	 	 	 	 	 	 	 	 	 	 	 	 	 	 	 	 	 	 	1581502839	8.17	15.13
12/02/2020 10:20:40	120220	12022020	102040	191.30	12.583737	-57.182337	191.44	0.250	0.050	2.120	191.32	-1.10	2.60	 	 	 	 	 	 	 	 	 	 	 	 	 	 	 	 	 	 	1581502840	7.20	13.33
12/02/2020 10:20:41	120220	12022020	102041	191.43	12.583707	-57.182347	191.59	-0.220	0.590	2.170	191.46	-0.80	2.70	 	 	 	 	 	 	 	 	 	 	 	 	 	 	 	 	 	 	1581502841	7.01	12.98
12/02/2020 10:20:42	120220	12022020	102042	191.58	12.583672	-57.182358	191.74	-0.490	0.390	2.330	191.60	-1.10	2.90	 	 	 	 	 	 	 	 	 	 	 	 	 	 	 	 	 	 	1581502842	7.75	14.35
12/02/2020 10:20:43	120220	12022020	102043	191.62	12.583635	-57.182373	191.76	-0.620	-0.110	2.790	191.60	-1.60	3.40	 	 	 	 	 	 	 	 	 	 	 	 	 	 	 	 	 	 	1581502843	8.45	15.65
12/02/2020 10:20:44	120220	12022020	102044	191.37	12.583598	-57.182390	191.50	-0.600	-0.620	3.370	191.29	-2.10	3.90	 	 	 	 	 	 	 	 	 	 	 	 	 	 	 	 	 	 	1581502844	8.73	16.17
12/02/2020 10:20:45	120220	12022020	102045	190.94	12.583562	-57.182408	191.07	-0.340	-0.810	3.600	190.86	-2.20	4.00	 	 	 	 	 	 	 	 	 	 	 	 	 	 	 	 	 	 	1581502845	8.74	16.19
12/02/2020 10:20:46	120220	12022020	102046	190.63	12.583527	-57.182423	190.77	0.050	-0.540	3.240	190.60	-1.80	3.60	 	 	 	 	 	 	 	 	 	 	 	 	 	 	 	 	 	 	1581502846	8.25	15.28
12/02/2020 10:20:47	120220	12022020	102047	190.52	12.583492	-57.182433	190.63	0.390	-0.140	2.470	190.50	-1.40	2.70	 	 	 	 	 	 	 	 	 	 	 	 	 	 	 	 	 	 	1581502847	7.69	14.24
12/02/2020 10:20:48	120220	12022020	102048	190.41	12.583457	-57.182440	190.51	0.640	0.040	1.570	190.38	-1.30	1.90	 	 	 	 	 	 	 	 	 	 	 	 	 	 	 	 	 	 	1581502848	7.60	14.08
12/02/2020 10:20:49	120220	12022020	102049	190.34	12.583422	-57.182443	190.45	0.760	0.010	0.880	190.34	-1.40	1.30	 	 	 	 	 	 	 	 	 	 	 	 	 	 	 	 	 	 	1581502849	7.88	14.59
12/02/2020 10:20:50	120220	12022020	102050	190.48	12.583383	-57.182447	190.62	0.620	-0.030	0.640	190.54	-1.40	1.20	 	 	 	 	 	 	 	 	 	 	 	 	 	 	 	 	 	 	1581502850	8.05	14.91
12/02/2020 10:20:51	120220	12022020	102051	190.84	12.583347	-57.182453	190.98	0.120	-0.050	0.920	190.91	-1.40	1.60	 	 	 	 	 	 	 	 	 	 	 	 	 	 	 	 	 	 	1581502851	7.90	14.63
12/02/2020 10:20:52	120220	12022020	102052	191.12	12.583313	-57.182463	191.26	-0.530	-0.210	1.780	191.15	-1.70	2.60	 	 	 	 	 	 	 	 	 	 	 	 	 	 	 	 	 	 	1581502852	7.80	14.45
12/02/2020 10:20:53	120220	12022020	102053	191.05	12.583278	-57.182480	191.16	-0.900	-0.620	3.030	190.97	-2.10	3.80	 	 	 	 	 	 	 	 	 	 	 	 	 	 	 	 	 	 	1581502853	8.11	15.02
12/02/2020 10:20:54	120220	12022020	102054	190.42	12.583243	-57.182500	190.51	-0.680	-1.210	4.210	190.24	-2.70	4.90	 	 	 	 	 	 	 	 	 	 	 	 	 	 	 	 	 	 	1581502854	8.71	16.13
12/02/2020 10:20:55	120220	12022020	102055	189.48	12.583207	-57.182520	189.58	-0.110	-1.420	4.910	189.31	-2.70	5.40	 	 	 	 	 	 	 	 	 	 	 	 	 	 	 	 	 	 	1581502855	9.08	16.82
12/02/2020 10:20:56	120220	12022020	102056	188.94	12.583168	-57.182535	189.13	0.290	-0.700	4.650	188.94	-1.80	4.90	 	 	 	 	 	 	 	 	 	 	 	 	 	 	 	 	 	 	1581502856	8.65	16.02
12/02/2020 10:20:57	120220	12022020	102057	189.20	12.583135	-57.182545	189.43	0.260	0.540	3.400	189.33	-0.60	3.50	 	 	 	 	 	 	 	 	 	 	 	 	 	 	 	 	 	 	1581502857	7.50	13.89
12/02/2020 10:20:58	120220	12022020	102058	189.93	12.583103	-57.182547	190.14	0.010	1.210	1.850	190.09	-0.20	2.00	 	 	 	 	 	 	 	 	 	 	 	 	 	 	 	 	 	 	1581502858	6.89	12.76
12/02/2020 10:20:59	120220	12022020	102059	190.58	12.583068	-57.182550	190.73	-0.060	0.800	0.850	190.67	-0.80	1.30	 	 	 	 	 	 	 	 	 	 	 	 	 	 	 	 	 	 	1581502859	7.43	13.76
12/02/2020 10:21:00	120220	12022020	102100	190.81	12.583030	-57.182555	190.92	0.230	-0.120	0.610	190.80	-1.70	1.20	 	 	 	 	 	 	 	 	 	 	 	 	 	 	 	 	 	 	1581502860	8.31	15.39
12/02/2020 10:21:01	120220	12022020	102101	190.71	12.582992	-57.182563	190.79	0.610	-0.780	0.800	190.69	-2.20	1.40	1015.20	26.20	26.30	20.60	20.70	12.0	71.0	71.0	400.0	25.8	260.00	10.60	71.00	12.10	1096	9593.0	27.5	27.5	1581502861	8.61	15.95
12/02/2020 10:21:02	120220	12022020	102102	190.65	12.582953	-57.182572	190.78	0.610	-0.860	1.200	190.67	-2.20	1.80	 	 	 	 	 	 	 	 	 	 	 	 	 	 	 	 	 	 	1581502862	8.23	15.24
12/02/2020 10:21:03	120220	12022020	102103	190.73	12.582920	-57.182582	190.87	0.090	-0.680	1.870	190.74	-2.00	2.60	 	 	 	 	 	 	 	 	 	 	 	 	 	 	 	 	 	 	1581502863	7.67	14.20
12/02/2020 10:21:04	120220	12022020	102104	190.56	12.582887	-57.182595	190.68	-0.540	-0.740	2.820	190.48	-2.20	3.60	 	 	 	 	 	 	 	 	 	 	 	 	 	 	 	 	 	 	1581502864	7.65	14.17
12/02/2020 10:21:05	120220	12022020	102105	190.16	12.582852	-57.182613	190.16	-0.810	-0.940	3.810	190.05	-2.30	4.50	 	 	 	 	 	 	 	 	 	 	 	 	 	 	 	 	 	 	1581502865	8.39	15.54
12/02/2020 10:21:06	120220	12022020	102106	189.59	12.582815	-57.182633	189.73	-0.600	-0.790	4.260	189.53	-2.00	4.70	 	 	 	 	 	 	 	 	 	 	 	 	 	 	 	 	 	 	1581502866	8.77	16.24
12/02/2020 10:21:07	120220	12022020	102107	189.48	12.582780	-57.182648	189.66	-0.200	-0.210	3.870	189.50	-1.40	4.20	 	 	 	 	 	 	 	 	 	 	 	 	 	 	 	 	 	 	1581502867	8.29	15.35
12/02/2020 10:21:08	120220	12022020	102108	189.71	12.582745	-57.182657	189.90	0.060	0.360	2.860	189.79	-0.90	3.10	 	 	 	 	 	 	 	 	 	 	 	 	 	 	 	 	 	 	1581502868	7.71	14.28
12/02/2020 10:21:09	120220	12022020	102109	190.14	12.582710	-57.182662	190.30	0.100	0.600	1.670	190.22	-0.80	1.90	 	 	 	 	 	 	 	 	 	 	 	 	 	 	 	 	 	 	1581502869	7.64	14.15
12/02/2020 10:21:10	120220	12022020	102110	190.44	12.582673	-57.182665	190.55	0.140	0.410	0.720	190.46	-1.10	1.10	 	 	 	 	 	 	 	 	 	 	 	 	 	 	 	 	 	 	1581502870	7.82	14.48
12/02/2020 10:21:11	120220	12022020	102111	190.43	12.582637	-57.182670	190.51	0.350	-0.130	0.410	190.41	-1.60	0.90	 	 	 	 	 	 	 	 	 	 	 	 	 	 	 	 	 	 	1581502871	8.17	15.13
12/02/2020 10:21:12	120220	12022020	102112	190.34	12.582598	-57.182677	190.45	0.590	-0.530	0.620	190.35	-1.90	1.20	 	 	 	 	 	 	 	 	 	 	 	 	 	 	 	 	 	 	1581502872	8.42	15.59
12/02/2020 10:21:13	120220	12022020	102113	190.50	12.582560	-57.182685	190.65	0.460	-0.440	1.150	190.56	-1.80	1.80	 	 	 	 	 	 	 	 	 	 	 	 	 	 	 	 	 	 	1581502873	8.13	15.06
12/02/2020 10:21:14	120220	12022020	102114	190.71	12.582527	-57.182695	190.82	-0.110	-0.260	1.980	190.70	-1.70	2.70	 	 	 	 	 	 	 	 	 	 	 	 	 	 	 	 	 	 	1581502874	7.57	14.02
12/02/2020 10:21:15	120220	12022020	102115	190.44	12.582495	-57.182710	190.50	-0.660	-0.560	3.150	190.31	-2.10	3.90	 	 	 	 	 	 	 	 	 	 	 	 	 	 	 	 	 	 	1581502875	7.70	14.26
12/02/2020 10:21:16	120220	12022020	102116	189.67	12.582460	-57.182730	189.72	-0.750	-1.140	4.270	189.50	-2.60	5.00	 	 	 	 	 	 	 	 	 	 	 	 	 	 	 	 	 	 	1581502876	8.65	16.02
12/02/2020 10:21:17	120220	12022020	102117	188.83	12.582422	-57.182750	188.91	-0.340	-1.150	4.750	188.71	-2.40	5.20	 	 	 	 	 	 	 	 	 	 	 	 	 	 	 	 	 	 	1581502877	9.15	16.95
12/02/2020 10:21:18	120220	12022020	102118	188.50	12.582387	-57.182767	188.65	0.170	-0.210	4.040	188.53	-1.30	4.20	 	 	 	 	 	 	 	 	 	 	 	 	 	 	 	 	 	 	1581502878	8.38	15.52
12/02/2020 10:21:19	120220	12022020	102119	188.81	12.582353	-57.182773	188.96	0.420	0.800	2.480	188.91	-0.50	2.60	 	 	 	 	 	 	 	 	 	 	 	 	 	 	 	 	 	 	1581502879	7.14	13.22
12/02/2020 10:21:20	120220	12022020	102120	189.27	12.582320	-57.182773	189.38	0.370	0.880	1.020	189.35	-0.60	1.30	 	 	 	 	 	 	 	 	 	 	 	 	 	 	 	 	 	 	1581502880	7.09	13.13
12/02/2020 10:21:21	120220	12022020	102121	189.54	12.582283	-57.182773	189.60	0.220	0.060	0.360	189.55	-1.60	0.90	 	 	 	 	 	 	 	 	 	 	 	 	 	 	 	 	 	 	1581502881	7.94	14.70
12/02/2020 10:21:22	120220	12022020	102122	189.50	12.582243	-57.182780	189.54	0.060	-0.910	0.550	189.47	-2.50	1.20	 	 	 	 	 	 	 	 	 	 	 	 	 	 	 	 	 	 	1581502882	8.56	15.85
12/02/2020 10:21:23	120220	12022020	102123	189.30	12.582205	-57.182790	189.34	-0.120	-1.360	1.160	189.25	-2.70	1.80	 	 	 	 	 	 	 	 	 	 	 	 	 	 	 	 	 	 	1581502883	8.62	15.96
12/02/2020 10:21:24	120220	12022020	102124	188.98	12.582170	-57.182803	189.02	-0.300	-1.140	1.980	188.89	-2.40	2.70	 	 	 	 	 	 	 	 	 	 	 	 	 	 	 	 	 	 	1581502884	8.23	15.24
12/02/2020 10:21:25	120220	12022020	102125	188.65	12.582135	-57.182818	188.64	-0.360	-0.500	2.760	188.58	-1.70	3.40	 	 	 	 	 	 	 	 	 	 	 	 	 	 	 	 	 	 	1581502885	7.89	14.61
12/02/2020 10:21:26	120220	12022020	102126	188.43	12.582103	-57.182832	188.54	-0.250	0.220	2.950	188.45	-1.00	3.40	 	 	 	 	 	 	 	 	 	 	 	 	 	 	 	 	 	 	1581502886	7.68	14.22
12/02/2020 10:21:27	120220	12022020	102127	188.66	12.582070	-57.182842	188.80	-0.080	0.610	2.570	188.73	-0.80	3.00	 	 	 	 	 	 	 	 	 	 	 	 	 	 	 	 	 	 	1581502887	7.51	13.91
12/02/2020 10:21:28	120220	12022020	102128	188.95	12.582033	-57.182848	189.06	0.020	0.390	2.220	188.98	-1.10	2.70	 	 	 	 	 	 	 	 	 	 	 	 	 	 	 	 	 	 	1581502888	7.73	14.32
12/02/2020 10:21:29	120220	12022020	102129	188.93	12.581997	-57.182855	189.00	0.000	-0.270	2.340	188.88	-1.80	2.90	 	 	 	 	 	 	 	 	 	 	 	 	 	 	 	 	 	 	1581502889	8.22	15.22
12/02/2020 10:21:30	120220	12022020	102130	188.57	12.581958	-57.182867	188.62	-0.070	-0.840	2.790	188.48	-2.30	3.40	 	 	 	 	 	 	 	 	 	 	 	 	 	 	 	 	 	 	1581502890	8.58	15.89
12/02/2020 10:21:31	120220	12022020	102131	188.18	12.581920	-57.182880	188.25	-0.100	-0.720	3.180	188.12	-2.00	3.70	 	 	 	 	 	 	 	 	 	 	 	 	 	 	 	 	 	 	1581502891	8.50	15.74
12/02/2020 10:21:32	120220	12022020	102132	188.00	12.581887	-57.182893	188.08	0.050	0.020	3.100	188.00	-1.20	3.50	 	 	 	 	 	 	 	 	 	 	 	 	 	 	 	 	 	 	1581502892	7.74	14.33
12/02/2020 10:21:33	120220	12022020	102133	188.15	12.581855	-57.182902	188.26	0.310	0.540	2.480	188.22	-0.80	2.80	 	 	 	 	 	 	 	 	 	 	 	 	 	 	 	 	 	 	1581502893	7.04	13.04
12/02/2020 10:21:34	120220	12022020	102134	188.60	12.581822	-57.182907	188.73	0.470	0.210	1.750	188.70	-1.40	2.20	 	 	 	 	 	 	 	 	 	 	 	 	 	 	 	 	 	 	1581502894	7.30	13.52
12/02/2020 10:21:35	120220	12022020	102135	189.02	12.581785	-57.182910	189.11	0.380	-0.730	1.630	189.05	-2.30	2.20	 	 	 	 	 	 	 	 	 	 	 	 	 	 	 	 	 	 	1581502895	8.13	15.06
12/02/2020 10:21:36	120220	12022020	102136	188.99	12.581745	-57.182918	189.04	0.080	-1.510	2.290	188.92	-3.00	3.00	 	 	 	 	 	 	 	 	 	 	 	 	 	 	 	 	 	 	1581502896	8.59	15.91
12/02/2020 10:21:37	120220	12022020	102137	188.50	12.581707	-57.182932	188.54	-0.210	-1.580	3.330	188.38	-2.90	4.10	 	 	 	 	 	 	 	 	 	 	 	 	 	 	 	 	 	 	1581502897	8.56	15.85
12/02/2020 10:21:38	120220	12022020	102138	187.97	12.581672	-57.182947	188.07	-0.360	-0.830	4.070	187.91	-1.90	4.60	 	 	 	 	 	 	 	 	 	 	 	 	 	 	 	 	 	 	1581502898	8.21	15.20
12/02/2020 10:21:39	120220	12022020	102139	187.85	12.581640	-57.182960	188.01	-0.400	0.340	4.000	187.86	-0.80	4.40	 	 	 	 	 	 	 	 	 	 	 	 	 	 	 	 	 	 	1581502899	7.55	13.98
12/02/2020 10:21:40	120220	12022020	102140	188.14	12.581608	-57.182970	188.31	-0.350	1.040	3.310	188.22	-0.30	3.60	 	 	 	 	 	 	 	 	 	 	 	 	 	 	 	 	 	 	1581502900	7.10	13.15
12/02/2020 10:21:41	120220	12022020	102141	188.51	12.581575	-57.182977	188.64	-0.160	0.790	2.400	188.56	-0.80	2.70	 	 	 	 	 	 	 	 	 	 	 	 	 	 	 	 	 	 	1581502901	7.48	13.85
12/02/2020 10:21:42	120220	12022020	102142	188.68	12.581537	-57.182982	188.76	0.200	-0.110	1.620	188.69	-1.70	2.00	 	 	 	 	 	 	 	 	 	 	 	 	 	 	 	 	 	 	1581502902	8.30	15.37
12/02/2020 10:21:43	120220	12022020	102143	188.64	12.581495	-57.182985	188.69	0.550	-0.930	1.250	188.62	-2.40	1.80	 	 	 	 	 	 	 	 	 	 	 	 	 	 	 	 	 	 	1581502903	8.80	16.30
12/02/2020 10:21:44	120220	12022020	102144	188.58	12.581455	-57.182992	188.64	0.580	-1.070	1.330	188.58	-2.40	1.90	 	 	 	 	 	 	 	 	 	 	 	 	 	 	 	 	 	 	1581502904	8.55	15.83
12/02/2020 10:21:45	120220	12022020	102145	188.59	12.581420	-57.182998	188.68	0.120	-0.530	1.790	188.60	-1.80	2.40	 	 	 	 	 	 	 	 	 	 	 	 	 	 	 	 	 	 	1581502905	7.79	14.43
12/02/2020 10:21:46	120220	12022020	102146	188.65	12.581388	-57.183008	188.74	-0.600	0.130	2.390	188.66	-1.20	3.00	 	 	 	 	 	 	 	 	 	 	 	 	 	 	 	 	 	 	1581502906	7.24	13.41
12/02/2020 10:21:47	120220	12022020	102147	188.64	12.581357	-57.183023	188.73	-0.950	0.310	2.850	188.62	-1.10	3.40	 	 	 	 	 	 	 	 	 	 	 	 	 	 	 	 	 	 	1581502907	7.42	13.74
12/02/2020 10:21:48	120220	12022020	102148	188.50	12.581323	-57.183040	188.59	-0.490	-0.040	2.910	188.47	-1.50	3.30	 	 	 	 	 	 	 	 	 	 	 	 	 	 	 	 	 	 	1581502908	8.04	14.89
12/02/2020 10:21:49	120220	12022020	102149	188.39	12.581285	-57.183050	188.50	0.390	-0.390	2.550	188.39	-1.80	2.90	 	 	 	 	 	 	 	 	 	 	 	 	 	 	 	 	 	 	1581502909	8.37	15.50
12/02/2020 10:21:50	120220	12022020	102150	188.47	12.581248	-57.183057	188.57	0.860	-0.470	2.040	188.50	-1.80	2.40	 	 	 	 	 	 	 	 	 	 	 	 	 	 	 	 	 	 	1581502910	8.22	15.22
12/02/2020 10:21:51	120220	12022020	102151	188.68	12.581212	-57.183060	188.87	0.590	-0.370	1.620	188.74	-1.70	2.10	 	 	 	 	 	 	 	 	 	 	 	 	 	 	 	 	 	 	1581502911	7.91	14.65
12/02/2020 10:21:52	120220	12022020	102152	189.10	12.581177	-57.183067	189.24	-0.060	-0.210	1.570	189.17	-1.60	2.10	 	 	 	 	 	 	 	 	 	 	 	 	 	 	 	 	 	 	1581502912	7.64	14.15
12/02/2020 10:21:53	120220	12022020	102153	189.31	12.581142	-57.183077	189.46	-0.470	-0.140	1.830	189.35	-1.50	2.40	 	 	 	 	 	 	 	 	 	 	 	 	 	 	 	 	 	 	1581502913	7.58	14.04
12/02/2020 10:21:54	120220	12022020	102154	189.36	12.581108	-57.183087	189.45	-0.390	-0.320	2.090	189.34	-1.80	2.60	 	 	 	 	 	 	 	 	 	 	 	 	 	 	 	 	 	 	1581502914	7.72	14.30
12/02/2020 10:21:55	120220	12022020	102155	189.14	12.581072	-57.183098	189.20	-0.100	-0.750	2.360	189.06	-2.20	2.90	 	 	 	 	 	 	 	 	 	 	 	 	 	 	 	 	 	 	1581502915	8.07	14.95
12/02/2020 10:21:56	120220	12022020	102156	188.67	12.581033	-57.183108	188.71	0.100	-1.130	2.640	188.56	-2.50	3.20	 	 	 	 	 	 	 	 	 	 	 	 	 	 	 	 	 	 	1581502916	8.47	15.69
12/02/2020 10:21:57	120220	12022020	102157	188.16	12.580995	-57.183120	188.22	0.050	-1.000	2.820	188.08	-2.30	3.30	 	 	 	 	 	 	 	 	 	 	 	 	 	 	 	 	 	 	1581502917	8.57	15.87
12/02/2020 10:21:58	120220	12022020	102158	187.88	12.580960	-57.183130	187.97	-0.140	-0.240	2.760	187.87	-1.40	3.20	 	 	 	 	 	 	 	 	 	 	 	 	 	 	 	 	 	 	1581502918	8.18	15.15
12/02/2020 10:21:59	120220	12022020	102159	188.02	12.580925	-57.183138	188.15	-0.300	0.770	2.320	188.11	-0.40	2.70	 	 	 	 	 	 	 	 	 	 	 	 	 	 	 	 	 	 	1581502919	7.57	14.02
12/02/2020 10:22:00	120220	12022020	102200	188.58	12.580892	-57.183145	188.72	-0.360	1.380	1.660	188.71	0.00	2.00	 	 	 	 	 	 	 	 	 	 	 	 	 	 	 	 	 	 	1581502920	7.20	13.33
12/02/2020 10:22:01	120220	12022020	102201	189.16	12.580858	-57.183152	189.25	-0.260	1.020	1.200	189.24	-0.60	1.70	1015.30	26.10	26.20	20.00	20.10	14.0	69.0	69.0	399.0	25.8	260.00	11.30	70.00	12.60	1198	10610.0	27.5	27.5	1581502921	7.43	13.76
12/02/2020 10:22:02	120220	12022020	102202	189.33	12.580820	-57.183158	189.39	0.050	-0.190	1.270	189.31	-1.90	1.90	 	 	 	 	 	 	 	 	 	 	 	 	 	 	 	 	 	 	1581502922	8.21	15.20
12/02/2020 10:22:03	120220	12022020	102203	189.13	12.580780	-57.183168	189.17	0.450	-1.340	1.650	189.07	-2.90	2.30	 	 	 	 	 	 	 	 	 	 	 	 	 	 	 	 	 	 	1581502923	8.91	16.50
12/02/2020 10:22:04	120220	12022020	102204	188.83	12.580742	-57.183178	188.89	0.600	-1.630	2.070	188.78	-2.90	2.70	 	 	 	 	 	 	 	 	 	 	 	 	 	 	 	 	 	 	1581502924	8.72	16.15
12/02/2020 10:22:05	120220	12022020	102205	188.69	12.580705	-57.183188	188.77	0.270	-1.090	2.430	188.69	-2.30	3.00	 	 	 	 	 	 	 	 	 	 	 	 	 	 	 	 	 	 	1581502925	7.90	14.63
12/02/2020 10:22:06	120220	12022020	102206	188.75	12.580673	-57.183198	188.85	-0.270	-0.270	2.760	188.77	-1.50	3.30	 	 	 	 	 	 	 	 	 	 	 	 	 	 	 	 	 	 	1581502926	7.30	13.52
12/02/2020 10:22:07	120220	12022020	102207	188.86	12.580642	-57.183212	188.95	-0.510	0.260	2.850	188.87	-1.10	3.30	 	 	 	 	 	 	 	 	 	 	 	 	 	 	 	 	 	 	1581502927	7.30	13.52
12/02/2020 10:22:08	120220	12022020	102208	188.89	12.580608	-57.183223	188.98	-0.250	0.240	2.620	188.88	-1.20	3.10	 	 	 	 	 	 	 	 	 	 	 	 	 	 	 	 	 	 	1581502928	7.68	14.22
12/02/2020 10:22:09	120220	12022020	102209	188.85	12.580570	-57.183232	188.93	0.220	-0.130	2.380	188.83	-1.60	2.80	 	 	 	 	 	 	 	 	 	 	 	 	 	 	 	 	 	 	1581502929	8.24	15.26
12/02/2020 10:22:10	120220	12022020	102210	188.89	12.580532	-57.183240	189.00	0.530	-0.370	2.030	188.93	-1.80	2.40	 	 	 	 	 	 	 	 	 	 	 	 	 	 	 	 	 	 	1581502930	8.54	15.82
12/02/2020 10:22:11	120220	12022020	102211	189.19	12.580493	-57.183245	189.30	0.510	-0.230	1.490	189.26	-1.60	1.90	 	 	 	 	 	 	 	 	 	 	 	 	 	 	 	 	 	 	1581502931	8.25	15.28
12/02/2020 10:22:12	120220	12022020	102212	189.55	12.580458	-57.183248	189.67	0.190	-0.070	1.290	189.61	-1.50	1.90	 	 	 	 	 	 	 	 	 	 	 	 	 	 	 	 	 	 	1581502932	7.73	14.32
12/02/2020 10:22:13	120220	12022020	102213	189.69	12.580422	-57.183255	189.76	-0.140	-0.320	1.700	189.65	-1.80	2.40	 	 	 	 	 	 	 	 	 	 	 	 	 	 	 	 	 	 	1581502933	7.74	14.33
12/02/2020 10:22:14	120220	12022020	102214	189.30	12.580385	-57.183267	189.33	-0.220	-0.920	2.510	189.18	-2.40	3.20	 	 	 	 	 	 	 	 	 	 	 	 	 	 	 	 	 	 	1581502934	8.33	15.43
12/02/2020 10:22:15	120220	12022020	102215	188.84	12.580347	-57.183282	188.82	-0.220	-1.090	3.300	188.75	-2.40	3.90	 	 	 	 	 	 	 	 	 	 	 	 	 	 	 	 	 	 	1581502935	8.91	16.50
12/02/2020 10:22:16	120220	12022020	102216	188.58	12.580310	-57.183295	188.73	-0.370	-0.370	3.560	188.61	-1.50	4.00	 	 	 	 	 	 	 	 	 	 	 	 	 	 	 	 	 	 	1581502936	8.51	15.76
12/02/2020 10:22:17	120220	12022020	102217	188.86	12.580277	-57.183308	189.18	-0.650	0.680	3.090	188.97	-0.50	3.40	 	 	 	 	 	 	 	 	 	 	 	 	 	 	 	 	 	 	1581502937	7.53	13.95
12/02/2020 10:22:18	120220	12022020	102218	189.79	12.580245	-57.183317	189.99	-0.690	1.120	2.020	189.96	-0.30	2.20	 	 	 	 	 	 	 	 	 	 	 	 	 	 	 	 	 	 	1581502938	7.05	13.06
12/02/2020 10:22:19	120220	12022020	102219	190.56	12.580210	-57.183323	190.70	-0.270	0.570	0.920	190.65	-1.10	1.30	 	 	 	 	 	 	 	 	 	 	 	 	 	 	 	 	 	 	1581502939	7.55	13.98
12/02/2020 10:22:20	120220	12022020	102220	190.81	12.580172	-57.183328	190.89	0.470	-0.460	0.390	190.78	-2.10	0.90	 	 	 	 	 	 	 	 	 	 	 	 	 	 	 	 	 	 	1581502940	8.40	15.56
12/02/2020 10:22:21	120220	12022020	102221	190.51	12.580132	-57.183333	190.55	1.090	-1.250	0.410	190.42	-2.70	1.00	 	 	 	 	 	 	 	 	 	 	 	 	 	 	 	 	 	 	1581502941	8.75	16.21
12/02/2020 10:22:22	120220	12022020	102222	190.09	12.580092	-57.183340	190.15	1.150	-1.330	0.800	190.02	-2.60	1.50	 	 	 	 	 	 	 	 	 	 	 	 	 	 	 	 	 	 	1581502942	8.50	15.74
12/02/2020 10:22:23	120220	12022020	102223	189.87	12.580057	-57.183348	189.98	0.590	-0.760	1.530	189.87	-2.00	2.20	 	 	 	 	 	 	 	 	 	 	 	 	 	 	 	 	 	 	1581502943	7.90	14.63
12/02/2020 10:22:24	120220	12022020	102224	189.90	12.580023	-57.183360	190.02	-0.240	0.010	2.340	189.92	-1.20	3.00	 	 	 	 	 	 	 	 	 	 	 	 	 	 	 	 	 	 	1581502944	7.46	13.82
12/02/2020 10:22:25	120220	12022020	102225	190.00	12.579992	-57.183375	190.12	-0.740	0.370	2.830	190.03	-1.00	3.30	 	 	 	 	 	 	 	 	 	 	 	 	 	 	 	 	 	 	1581502945	7.57	14.02
12/02/2020 10:22:26	120220	12022020	102226	190.17	12.579957	-57.183390	190.29	-0.570	0.090	2.700	190.21	-1.40	3.10	 	 	 	 	 	 	 	 	 	 	 	 	 	 	 	 	 	 	1581502946	8.13	15.06
12/02/2020 10:22:27	120220	12022020	102227	190.38	12.579918	-57.183402	190.48	-0.030	-0.580	2.250	190.42	-2.10	2.60	 	 	 	 	 	 	 	 	 	 	 	 	 	 	 	 	 	 	1581502947	8.64	16.00
12/02/2020 10:22:28	120220	12022020	102228	190.53	12.579878	-57.183410	190.61	0.250	-1.140	1.930	190.53	-2.60	2.40	 	 	 	 	 	 	 	 	 	 	 	 	 	 	 	 	 	 	1581502948	8.97	16.61
12/02/2020 10:22:29	120220	12022020	102229	190.45	12.579838	-57.183418	190.52	-0.010	-1.060	1.970	190.42	-2.30	2.50	 	 	 	 	 	 	 	 	 	 	 	 	 	 	 	 	 	 	1581502949	8.78	16.26
12/02/2020 10:22:30	120220	12022020	102230	190.25	12.579802	-57.183428	190.31	-0.550	-0.280	2.240	190.21	-1.40	2.80	 	 	 	 	 	 	 	 	 	 	 	 	 	 	 	 	 	 	1581502950	8.14	15.08
12/02/2020 10:22:31	120220	12022020	102231	190.13	12.579768	-57.183440	190.22	-0.920	0.760	2.500	190.13	-0.40	3.00	 	 	 	 	 	 	 	 	 	 	 	 	 	 	 	 	 	 	1581502951	7.56	14.00
12/02/2020 10:22:32	120220	12022020	102232	190.22	12.579737	-57.183453	190.33	-0.760	1.430	2.480	190.27	0.10	2.90	 	 	 	 	 	 	 	 	 	 	 	 	 	 	 	 	 	 	1581502952	7.40	13.70
12/02/2020 10:22:33	120220	12022020	102233	190.63	12.579703	-57.183467	190.76	-0.050	1.350	1.900	190.73	-0.20	2.20	 	 	 	 	 	 	 	 	 	 	 	 	 	 	 	 	 	 	1581502953	7.63	14.13
12/02/2020 10:22:34	120220	12022020	102234	191.14	12.579667	-57.183475	191.24	0.930	0.550	1.020	191.22	-1.10	1.30	 	 	 	 	 	 	 	 	 	 	 	 	 	 	 	 	 	 	1581502954	8.02	14.85
12/02/2020 10:22:35	120220	12022020	102235	191.38	12.579627	-57.183478	191.44	1.650	-0.660	0.460	191.37	-2.40	1.00	 	 	 	 	 	 	 	 	 	 	 	 	 	 	 	 	 	 	1581502955	8.48	15.70
12/02/2020 10:22:36	120220	12022020	102236	191.22	12.579587	-57.183482	191.26	1.580	-1.760	0.750	191.16	-3.30	1.40	 	 	 	 	 	 	 	 	 	 	 	 	 	 	 	 	 	 	1581502956	8.74	16.19
12/02/2020 10:22:37	120220	12022020	102237	190.83	12.579548	-57.183488	190.89	0.670	-2.160	1.840	190.72	-3.50	2.70	 	 	 	 	 	 	 	 	 	 	 	 	 	 	 	 	 	 	1581502957	8.51	15.76
12/02/2020 10:22:38	120220	12022020	102238	190.29	12.579513	-57.183505	190.37	-0.430	-1.820	3.230	190.17	-3.10	4.00	 	 	 	 	 	 	 	 	 	 	 	 	 	 	 	 	 	 	1581502958	8.17	15.13
12/02/2020 10:22:39	120220	12022020	102239	189.81	12.579480	-57.183525	189.93	-0.960	-1.160	3.980	189.75	-2.40	4.50	 	 	 	 	 	 	 	 	 	 	 	 	 	 	 	 	 	 	1581502959	8.15	15.09
12/02/2020 10:22:40	120220	12022020	102240	189.65	12.579447	-57.183542	189.80	-0.800	-0.600	3.860	189.65	-1.90	4.30	 	 	 	 	 	 	 	 	 	 	 	 	 	 	 	 	 	 	1581502960	8.15	15.09
12/02/2020 10:22:41	120220	12022020	102241	189.74	12.579410	-57.183553	189.90	-0.450	-0.130	3.390	189.74	-1.40	3.80	 	 	 	 	 	 	 	 	 	 	 	 	 	 	 	 	 	 	1581502961	8.33	15.43
12/02/2020 10:22:42	120220	12022020	102242	190.00	12.579372	-57.183563	190.16	-0.330	0.340	2.720	190.08	-0.90	3.10	 	 	 	 	 	 	 	 	 	 	 	 	 	 	 	 	 	 	1581502962	8.48	15.70
12/02/2020 10:22:43	120220	12022020	102243	190.39	12.579333	-57.183570	190.54	-0.480	0.830	2.040	190.47	-0.50	2.40	 	 	 	 	 	 	 	 	 	 	 	 	 	 	 	 	 	 	1581502963	8.36	15.48
12/02/2020 10:22:44	120220	12022020	102244	190.84	12.579297	-57.183577	191.00	-0.630	1.240	1.500	190.94	-0.10	1.90	 	 	 	 	 	 	 	 	 	 	 	 	 	 	 	 	 	 	1581502964	8.14	15.08
12/02/2020 10:22:45	120220	12022020	102245	191.37	12.579260	-57.183585	191.52	-0.560	1.390	1.090	191.48	-0.10	1.60	 	 	 	 	 	 	 	 	 	 	 	 	 	 	 	 	 	 	1581502965	7.89	14.61
12/02/2020 10:22:46	120220	12022020	102246	191.81	12.579225	-57.183593	191.93	-0.150	0.900	0.900	191.87	-0.70	1.40	 	 	 	 	 	 	 	 	 	 	 	 	 	 	 	 	 	 	1581502966	7.84	14.52
12/02/2020 10:22:47	120220	12022020	102247	191.97	12.579188	-57.183603	192.04	0.570	-0.190	0.920	191.95	-1.90	1.50	 	 	 	 	 	 	 	 	 	 	 	 	 	 	 	 	 	 	1581502967	8.23	15.24
12/02/2020 10:22:48	120220	12022020	102248	191.76	12.579148	-57.183613	191.80	1.370	-1.280	1.040	191.69	-2.90	1.60	 	 	 	 	 	 	 	 	 	 	 	 	 	 	 	 	 	 	1581502968	8.62	15.96
12/02/2020 10:22:49	120220	12022020	102249	191.40	12.579110	-57.183622	191.46	1.770	-1.680	1.170	191.34	-3.10	1.70	 	 	 	 	 	 	 	 	 	 	 	 	 	 	 	 	 	 	1581502969	8.48	15.70
12/02/2020 10:22:50	120220	12022020	102250	191.21	12.579073	-57.183627	191.31	1.320	-1.260	1.340	191.21	-2.50	1.90	 	 	 	 	 	 	 	 	 	 	 	 	 	 	 	 	 	 	1581502970	7.83	14.50
12/02/2020 10:22:51	120220	12022020	102251	191.28	12.579042	-57.183635	191.40	0.230	-0.580	1.560	191.32	-1.90	2.10	 	 	 	 	 	 	 	 	 	 	 	 	 	 	 	 	 	 	1581502971	7.15	13.24
12/02/2020 10:22:52	120220	12022020	102252	191.41	12.579010	-57.183645	191.51	-0.800	-0.360	1.860	191.41	-1.80	2.50	 	 	 	 	 	 	 	 	 	 	 	 	 	 	 	 	 	 	1581502972	7.25	13.43
12/02/2020 10:22:53	120220	12022020	102253	191.33	12.578975	-57.183662	191.37	-1.160	-0.840	2.280	191.29	-2.40	2.90	 	 	 	 	 	 	 	 	 	 	 	 	 	 	 	 	 	 	1581502973	8.19	15.17
12/02/2020 10:22:54	120220	12022020	102254	190.94	12.578935	-57.183678	191.02	-0.870	-1.320	2.740	190.87	-2.70	3.30	 	 	 	 	 	 	 	 	 	 	 	 	 	 	 	 	 	 	1581502974	9.24	17.11
12/02/2020 10:22:55	120220	12022020	102255	190.72	12.578895	-57.183695	190.86	-0.460	-0.890	2.890	190.75	-2.00	3.30	 	 	 	 	 	 	 	 	 	 	 	 	 	 	 	 	 	 	1581502975	9.38	17.37
12/02/2020 10:22:56	120220	12022020	102256	191.12	12.578858	-57.183708	191.31	-0.410	0.470	2.460	191.27	-0.60	2.80	 	 	 	 	 	 	 	 	 	 	 	 	 	 	 	 	 	 	1581502976	8.39	15.54
12/02/2020 10:22:57	120220	12022020	102257	191.98	12.578825	-57.183718	192.16	-0.590	1.620	1.720	192.15	0.30	2.00	 	 	 	 	 	 	 	 	 	 	 	 	 	 	 	 	 	 	1581502977	7.29	13.50
12/02/2020 10:22:58	120220	12022020	102258	192.77	12.578793	-57.183727	192.89	-0.410	1.600	0.950	192.88	-0.00	1.30	 	 	 	 	 	 	 	 	 	 	 	 	 	 	 	 	 	 	1581502978	7.34	13.59
12/02/2020 10:22:59	120220	12022020	102259	193.16	12.578753	-57.183733	193.25	0.320	0.500	0.380	193.21	-1.20	0.80	 	 	 	 	 	 	 	 	 	 	 	 	 	 	 	 	 	 	1581502979	8.37	15.50
12/02/2020 10:23:00	120220	12022020	102300	193.38	12.578712	-57.183738	193.46	0.990	-0.550	0.230	193.41	-2.10	0.80	 	 	 	 	 	 	 	 	 	 	 	 	 	 	 	 	 	 	1581502980	9.16	16.96
12/02/2020 10:23:01	120220	12022020	102301	193.37	12.578673	-57.183747	193.41	1.080	-0.960	0.630	193.31	-2.40	1.30	1015.20	26.20	26.20	20.20	20.30	16.0	69.0	69.0	398.0	25.8	260.00	11.30	72.00	12.70	1308	9838.0	27.5	27.5	1581502981	8.62	15.96
12/02/2020 10:23:02	120220	12022020	102302	192.88	12.578637	-57.183755	192.90	0.690	-1.080	1.470	192.75	-2.50	2.20	 	 	 	 	 	 	 	 	 	 	 	 	 	 	 	 	 	 	1581502982	7.86	14.56
12/02/2020 10:23:03	120220	12022020	102303	192.20	12.578603	-57.183768	192.23	0.170	-1.050	2.460	192.07	-2.40	3.20	 	 	 	 	 	 	 	 	 	 	 	 	 	 	 	 	 	 	1581502983	7.88	14.59
12/02/2020 10:23:04	120220	12022020	102304	191.72	12.578568	-57.183785	191.82	-0.260	-0.690	3.100	191.68	-2.00	3.60	 	 	 	 	 	 	 	 	 	 	 	 	 	 	 	 	 	 	1581502984	8.10	15.00
12/02/2020 10:23:05	120220	12022020	102305	191.64	12.578535	-57.183802	191.80	-0.500	-0.200	3.050	191.66	-1.50	3.40	 	 	 	 	 	 	 	 	 	 	 	 	 	 	 	 	 	 	1581502985	7.98	14.78
12/02/2020 10:23:06	120220	12022020	102306	191.89	12.578502	-57.183817	192.04	-0.480	0.070	2.530	191.94	-1.40	2.90	 	 	 	 	 	 	 	 	 	 	 	 	 	 	 	 	 	 	1581502986	7.89	14.61
12/02/2020 10:23:07	120220	12022020	102307	192.11	12.578467	-57.183828	192.29	-0.220	-0.030	1.960	192.16	-1.50	2.30	 	 	 	 	 	 	 	 	 	 	 	 	 	 	 	 	 	 	1581502987	8.10	15.00
12/02/2020 10:23:08	120220	12022020	102308	192.36	12.578428	-57.183840	192.47	0.070	-0.250	1.440	192.40	-1.70	1.90	 	 	 	 	 	 	 	 	 	 	 	 	 	 	 	 	 	 	1581502988	8.41	15.58
12/02/2020 10:23:09	120220	12022020	102309	192.54	12.578390	-57.183850	192.65	0.220	-0.270	1.070	192.58	-1.70	1.50	 	 	 	 	 	 	 	 	 	 	 	 	 	 	 	 	 	 	1581502989	8.39	15.54
12/02/2020 10:23:10	120220	12022020	102310	192.72	12.578353	-57.183858	192.82	0.250	-0.160	0.800	192.76	-1.60	1.30	 	 	 	 	 	 	 	 	 	 	 	 	 	 	 	 	 	 	1581502990	8.10	15.00
12/02/2020 10:23:11	120220	12022020	102311	192.88	12.578318	-57.183867	192.97	0.220	-0.160	0.670	192.91	-1.60	1.20	 	 	 	 	 	 	 	 	 	 	 	 	 	 	 	 	 	 	1581502991	7.98	14.78
12/02/2020 10:23:12	120220	12022020	102312	192.98	12.578282	-57.183877	193.07	0.110	-0.230	0.840	192.99	-1.70	1.40	 	 	 	 	 	 	 	 	 	 	 	 	 	 	 	 	 	 	1581502992	8.14	15.08
12/02/2020 10:23:13	120220	12022020	102313	193.05	12.578245	-57.183887	193.15	-0.080	-0.190	1.100	193.07	-1.60	1.70	 	 	 	 	 	 	 	 	 	 	 	 	 	 	 	 	 	 	1581502993	8.18	15.15
12/02/2020 10:23:14	120220	12022020	102314	193.12	12.578210	-57.183898	193.22	-0.200	-0.090	1.340	193.14	-1.50	1.90	 	 	 	 	 	 	 	 	 	 	 	 	 	 	 	 	 	 	1581502994	8.01	14.83
12/02/2020 10:23:15	120220	12022020	102315	193.04	12.578173	-57.183910	193.09	-0.060	-0.290	1.670	192.97	-1.80	2.30	 	 	 	 	 	 	 	 	 	 	 	 	 	 	 	 	 	 	1581502995	7.95	14.72
12/02/2020 10:23:16	120220	12022020	102316	192.49	12.578137	-57.183923	192.49	0.290	-0.900	2.350	192.33	-2.50	3.00	 	 	 	 	 	 	 	 	 	 	 	 	 	 	 	 	 	 	1581502996	8.40	15.56
12/02/2020 10:23:17	120220	12022020	102317	191.67	12.578097	-57.183935	191.69	0.450	-1.270	3.150	191.51	-2.70	3.80	 	 	 	 	 	 	 	 	 	 	 	 	 	 	 	 	 	 	1581502997	9.00	16.67
12/02/2020 10:23:18	120220	12022020	102318	191.03	12.578058	-57.183950	191.09	0.130	-0.820	3.670	190.95	-2.00	4.20	 	 	 	 	 	 	 	 	 	 	 	 	 	 	 	 	 	 	1581502998	8.87	16.43
12/02/2020 10:23:19	120220	12022020	102319	190.86	12.578023	-57.183963	190.99	-0.540	0.250	3.720	190.89	-0.90	4.10	 	 	 	 	 	 	 	 	 	 	 	 	 	 	 	 	 	 	1581502999	8.16	15.11
12/02/2020 10:23:20	120220	12022020	102320	191.31	12.577992	-57.183978	191.50	-1.090	1.290	3.220	191.47	0.00	3.50	 	 	 	 	 	 	 	 	 	 	 	 	 	 	 	 	 	 	1581503000	7.55	13.98
12/02/2020 10:23:21	120220	12022020	102321	192.25	12.577960	-57.183993	192.44	-1.050	1.610	2.180	192.44	0.10	2.40	 	 	 	 	 	 	 	 	 	 	 	 	 	 	 	 	 	 	1581503001	7.40	13.70
12/02/2020 10:23:22	120220	12022020	102322	193.21	12.577925	-57.184005	193.34	-0.310	0.910	0.890	193.34	-0.80	1.10	 	 	 	 	 	 	 	 	 	 	 	 	 	 	 	 	 	 	1581503002	7.71	14.28
12/02/2020 10:23:23	120220	12022020	102323	193.70	12.577887	-57.184012	193.74	0.760	-0.630	0.020	193.72	-2.40	0.40	 	 	 	 	 	 	 	 	 	 	 	 	 	 	 	 	 	 	1581503003	8.51	15.76
12/02/2020 10:23:24	120220	12022020	102324	193.58	12.577845	-57.184018	193.58	1.580	-2.060	-0.120	193.50	-3.70	0.50	 	 	 	 	 	 	 	 	 	 	 	 	 	 	 	 	 	 	1581503004	9.24	17.11
12/02/2020 10:23:25	120220	12022020	102325	193.08	12.577803	-57.184027	193.08	1.680	-2.310	0.440	192.97	-3.60	1.10	 	 	 	 	 	 	 	 	 	 	 	 	 	 	 	 	 	 	1581503005	9.10	16.85
12/02/2020 10:23:26	120220	12022020	102326	192.60	12.577767	-57.184033	192.64	0.990	-1.230	1.270	192.53	-2.30	2.00	 	 	 	 	 	 	 	 	 	 	 	 	 	 	 	 	 	 	1581503006	8.03	14.87
12/02/2020 10:23:27	120220	12022020	102327	192.38	12.577735	-57.184043	192.50	-0.120	0.140	2.000	192.38	-1.10	2.60	 	 	 	 	 	 	 	 	 	 	 	 	 	 	 	 	 	 	1581503007	7.11	13.17
12/02/2020 10:23:28	120220	12022020	102328	192.50	12.577703	-57.184057	192.65	-1.070	0.800	2.440	192.58	-0.60	3.00	 	 	 	 	 	 	 	 	 	 	 	 	 	 	 	 	 	 	1581503008	7.35	13.61
12/02/2020 10:23:29	120220	12022020	102329	192.95	12.577668	-57.184073	193.12	-1.520	0.790	2.590	193.06	-0.70	3.10	 	 	 	 	 	 	 	 	 	 	 	 	 	 	 	 	 	 	1581503009	8.25	15.28
12/02/2020 10:23:30	120220	12022020	102330	193.49	12.577630	-57.184090	193.65	-1.460	0.350	2.610	193.58	-1.20	3.10	 	 	 	 	 	 	 	 	 	 	 	 	 	 	 	 	 	 	1581503010	8.76	16.22
12/02/2020 10:23:31	120220	12022020	102331	193.73	12.577593	-57.184108	193.85	-1.000	-0.290	2.610	193.75	-1.90	3.10	 	 	 	 	 	 	 	 	 	 	 	 	 	 	 	 	 	 	1581503011	8.97	16.61
12/02/2020 10:23:32	120220	12022020	102332	193.45	12.577555	-57.184127	193.48	-0.250	-0.800	2.620	193.32	-2.30	3.10	 	 	 	 	 	 	 	 	 	 	 	 	 	 	 	 	 	 	1581503012	8.94	16.56
12/02/2020 10:23:33	120220	12022020	102333	192.86	12.577518	-57.184142	192.69	0.600	-0.900	2.520	192.68	-2.30	3.00	 	 	 	 	 	 	 	 	 	 	 	 	 	 	 	 	 	 	1581503013	8.69	16.09
12/02/2020 10:23:34	120220	12022020	102334	191.99	12.577482	-57.184152	192.04	1.230	-0.410	2.090	191.91	-1.70	2.50	 	 	 	 	 	 	 	 	 	 	 	 	 	 	 	 	 	 	1581503014	8.26	15.30
12/02/2020 10:23:35	120220	12022020	102335	191.73	12.577445	-57.184157	191.82	1.310	0.270	1.440	191.74	-1.00	1.80	 	 	 	 	 	 	 	 	 	 	 	 	 	 	 	 	 	 	1581503015	7.73	14.32
12/02/2020 10:23:36	120220	12022020	102336	191.88	12.577410	-57.184160	191.98	0.850	0.540	0.920	191.93	-0.90	1.40	 	 	 	 	 	 	 	 	 	 	 	 	 	 	 	 	 	 	1581503016	7.60	14.08
12/02/2020 10:23:37	120220	12022020	102337	192.15	12.577373	-57.184165	192.26	0.170	0.230	0.940	192.20	-1.30	1.50	 	 	 	 	 	 	 	 	 	 	 	 	 	 	 	 	 	 	1581503017	7.93	14.69
12/02/2020 10:23:38	120220	12022020	102338	192.37	12.577337	-57.184175	192.48	-0.430	-0.400	1.480	192.42	-2.00	2.10	 	 	 	 	 	 	 	 	 	 	 	 	 	 	 	 	 	 	1581503018	8.39	15.54
12/02/2020 10:23:39	120220	12022020	102339	192.65	12.577298	-57.184192	192.78	-0.780	-0.860	2.160	192.71	-2.30	2.80	 	 	 	 	 	 	 	 	 	 	 	 	 	 	 	 	 	 	1581503019	8.77	16.24
12/02/2020 10:23:40	120220	12022020	102340	192.94	12.577263	-57.184212	193.07	-0.820	-0.880	2.760	192.98	-2.30	3.40	 	 	 	 	 	 	 	 	 	 	 	 	 	 	 	 	 	 	1581503020	8.64	16.00
12/02/2020 10:23:41	120220	12022020	102341	192.97	12.577230	-57.184230	193.06	-0.570	-0.700	3.090	192.93	-2.10	3.60	 	 	 	 	 	 	 	 	 	 	 	 	 	 	 	 	 	 	1581503021	8.16	15.11
12/02/2020 10:23:42	120220	12022020	102342	192.65	12.577195	-57.184243	192.69	-0.100	-0.670	3.000	192.56	-2.10	3.40	 	 	 	 	 	 	 	 	 	 	 	 	 	 	 	 	 	 	1581503022	8.01	14.83
12/02/2020 10:23:43	120220	12022020	102343	192.15	12.577158	-57.184255	192.19	0.390	-0.690	2.700	192.05	-2.10	3.10	 	 	 	 	 	 	 	 	 	 	 	 	 	 	 	 	 	 	1581503023	8.35	15.46
12/02/2020 10:23:44	120220	12022020	102344	191.75	12.577120	-57.184263	191.79	0.630	-0.390	2.260	191.69	-1.70	2.70	 	 	 	 	 	 	 	 	 	 	 	 	 	 	 	 	 	 	1581503024	8.51	15.76
12/02/2020 10:23:45	120220	12022020	102345	191.45	12.577082	-57.184270	191.49	0.490	0.190	1.830	191.39	-1.10	2.30	 	 	 	 	 	 	 	 	 	 	 	 	 	 	 	 	 	 	1581503025	8.15	15.09
12/02/2020 10:23:46	120220	12022020	102346	191.22	12.577047	-57.184277	191.27	0.140	0.610	1.590	191.20	-0.80	2.10	 	 	 	 	 	 	 	 	 	 	 	 	 	 	 	 	 	 	1581503026	7.87	14.58
12/02/2020 10:23:47	120220	12022020	102347	191.22	12.577010	-57.184285	191.32	-0.180	0.730	1.440	191.26	-0.70	1.90	 	 	 	 	 	 	 	 	 	 	 	 	 	 	 	 	 	 	1581503027	7.99	14.80
12/02/2020 10:23:48	120220	12022020	102348	191.56	12.576973	-57.184297	191.71	-0.270	0.610	1.250	191.68	-0.90	1.70	 	 	 	 	 	 	 	 	 	 	 	 	 	 	 	 	 	 	1581503028	8.09	14.98
12/02/2020 10:23:49	120220	12022020	102349	192.19	12.576938	-57.184308	192.35	-0.090	0.210	1.010	192.32	-1.40	1.50	 	 	 	 	 	 	 	 	 	 	 	 	 	 	 	 	 	 	1581503029	8.10	15.00
12/02/2020 10:23:50	120220	12022020	102350	192.70	12.576902	-57.184320	192.81	0.240	-0.540	1.130	192.75	-2.20	1.70	 	 	 	 	 	 	 	 	 	 	 	 	 	 	 	 	 	 	1581503030	8.17	15.13
12/02/2020 10:23:51	120220	12022020	102351	192.69	12.576865	-57.184332	192.75	0.470	-1.480	1.870	192.62	-3.10	2.60	 	 	 	 	 	 	 	 	 	 	 	 	 	 	 	 	 	 	1581503031	8.49	15.72
12/02/2020 10:23:52	120220	12022020	102352	192.30	12.576825	-57.184347	192.37	0.330	-2.010	2.910	192.22	-3.40	3.60	 	 	 	 	 	 	 	 	 	 	 	 	 	 	 	 	 	 	1581503032	8.84	16.37
12/02/2020 10:23:53	120220	12022020	102353	191.98	12.576788	-57.184362	192.10	-0.190	-1.560	3.760	191.95	-2.70	4.40	 	 	 	 	 	 	 	 	 	 	 	 	 	 	 	 	 	 	1581503033	8.66	16.04
12/02/2020 10:23:54	120220	12022020	102354	191.89	12.576755	-57.184380	192.02	-0.630	-0.370	3.960	191.88	-1.50	4.40	 	 	 	 	 	 	 	 	 	 	 	 	 	 	 	 	 	 	1581503034	7.93	14.69
12/02/2020 10:23:55	120220	12022020	102355	191.87	12.576723	-57.184393	192.01	-0.590	0.550	3.490	191.88	-0.80	3.80	 	 	 	 	 	 	 	 	 	 	 	 	 	 	 	 	 	 	1581503035	7.39	13.69
12/02/2020 10:23:56	120220	12022020	102356	191.95	12.576690	-57.184403	192.06	-0.150	0.650	2.580	191.95	-0.80	2.90	 	 	 	 	 	 	 	 	 	 	 	 	 	 	 	 	 	 	1581503036	7.79	14.43
12/02/2020 10:23:57	120220	12022020	102357	192.02	12.576650	-57.184410	192.15	0.240	0.350	1.760	192.04	-1.20	2.10	 	 	 	 	 	 	 	 	 	 	 	 	 	 	 	 	 	 	1581503037	8.56	15.85
12/02/2020 10:23:58	120220	12022020	102358	192.09	12.576610	-57.184415	192.17	0.280	0.030	1.430	192.08	-1.50	2.00	 	 	 	 	 	 	 	 	 	 	 	 	 	 	 	 	 	 	1581503038	8.73	16.17
12/02/2020 10:23:59	120220	12022020	102359	191.92	12.576572	-57.184423	191.97	0.080	-0.260	1.700	191.87	-1.80	2.30	 	 	 	 	 	 	 	 	 	 	 	 	 	 	 	 	 	 	1581503039	8.50	15.74
12/02/2020 10:24:00	120220	12022020	102400	191.67	12.576533	-57.184435	191.75	-0.000	-0.390	2.090	191.65	-1.80	2.60	 	 	 	 	 	 	 	 	 	 	 	 	 	 	 	 	 	 	1581503040	8.50	15.74
12/02/2020 10:24:01	120220	12022020	102401	191.72	12.576497	-57.184448	191.84	0.130	-0.130	2.140	191.77	-1.50	2.60	1015.40	26.20	26.30	20.10	20.30	17.0	69.0	69.0	398.0	25.8	257.00	10.60	69.00	12.30	1425	10552.0	27.5	27.5	1581503041	8.28	15.33
12/02/2020 10:24:02	120220	12022020	102402	192.05	12.576463	-57.184460	192.20	0.290	0.040	1.870	192.14	-1.40	2.30	 	 	 	 	 	 	 	 	 	 	 	 	 	 	 	 	 	 	1581503042	7.77	14.39
12/02/2020 10:24:03	120220	12022020	102403	192.34	12.576427	-57.184468	192.45	0.260	-0.210	1.700	192.36	-1.80	2.20	 	 	 	 	 	 	 	 	 	 	 	 	 	 	 	 	 	 	1581503043	7.83	14.50
12/02/2020 10:24:04	120220	12022020	102404	192.19	12.576392	-57.184480	192.24	0.030	-0.720	1.940	192.10	-2.20	2.50	 	 	 	 	 	 	 	 	 	 	 	 	 	 	 	 	 	 	1581503044	8.20	15.19
12/02/2020 10:24:05	120220	12022020	102405	191.76	12.576353	-57.184493	191.82	-0.230	-0.950	2.400	191.70	-2.30	3.00	 	 	 	 	 	 	 	 	 	 	 	 	 	 	 	 	 	 	1581503045	8.51	15.76
12/02/2020 10:24:06	120220	12022020	102406	191.61	12.576318	-57.184508	191.72	-0.390	-0.650	2.560	191.64	-2.00	3.00	 	 	 	 	 	 	 	 	 	 	 	 	 	 	 	 	 	 	1581503046	8.32	15.41
12/02/2020 10:24:07	120220	12022020	102407	191.80	12.576283	-57.184522	191.91	-0.350	-0.270	2.300	191.84	-1.70	2.70	 	 	 	 	 	 	 	 	 	 	 	 	 	 	 	 	 	 	1581503047	7.86	14.56
12/02/2020 10:24:08	120220	12022020	102408	192.01	12.576248	-57.184533	192.11	-0.070	-0.250	1.870	192.05	-1.70	2.20	 	 	 	 	 	 	 	 	 	 	 	 	 	 	 	 	 	 	1581503048	7.93	14.69
12/02/2020 10:24:09	120220	12022020	102409	192.17	12.576212	-57.184543	192.26	0.250	-0.400	1.380	192.19	-1.80	1.80	 	 	 	 	 	 	 	 	 	 	 	 	 	 	 	 	 	 	1581503049	8.41	15.58
12/02/2020 10:24:10	120220	12022020	102410	192.28	12.576172	-57.184550	192.34	0.340	-0.290	1.050	192.29	-1.60	1.50	 	 	 	 	 	 	 	 	 	 	 	 	 	 	 	 	 	 	1581503050	8.51	15.76
12/02/2020 10:24:11	120220	12022020	102411	192.23	12.576135	-57.184557	192.27	0.120	-0.030	1.050	192.21	-1.40	1.60	 	 	 	 	 	 	 	 	 	 	 	 	 	 	 	 	 	 	1581503051	8.21	15.20
12/02/2020 10:24:12	120220	12022020	102412	192.17	12.576098	-57.184565	192.23	-0.260	0.090	1.290	192.16	-1.30	1.90	 	 	 	 	 	 	 	 	 	 	 	 	 	 	 	 	 	 	1581503052	8.08	14.96
12/02/2020 10:24:13	120220	12022020	102413	192.06	12.576062	-57.184577	192.13	-0.550	0.010	1.890	192.03	-1.40	2.50	 	 	 	 	 	 	 	 	 	 	 	 	 	 	 	 	 	 	1581503053	8.26	15.30
12/02/2020 10:24:14	120220	12022020	102414	191.80	12.576025	-57.184593	191.86	-0.520	-0.090	2.610	191.73	-1.50	3.20	 	 	 	 	 	 	 	 	 	 	 	 	 	 	 	 	 	 	1581503054	8.51	15.76
12/02/2020 10:24:15	120220	12022020	102415	191.49	12.575990	-57.184610	191.56	-0.130	-0.030	2.940	191.44	-1.40	3.40	 	 	 	 	 	 	 	 	 	 	 	 	 	 	 	 	 	 	1581503055	8.49	15.72
12/02/2020 10:24:16	120220	12022020	102416	191.28	12.575953	-57.184623	191.36	0.390	-0.080	2.810	191.25	-1.60	3.20	 	 	 	 	 	 	 	 	 	 	 	 	 	 	 	 	 	 	1581503056	8.12	15.04
12/02/2020 10:24:17	120220	12022020	102417	191.12	12.575917	-57.184633	191.22	0.680	-0.470	2.540	191.10	-2.00	3.00	 	 	 	 	 	 	 	 	 	 	 	 	 	 	 	 	 	 	1581503057	8.20	15.19
12/02/2020 10:24:18	120220	12022020	102418	191.17	12.575878	-57.184642	191.30	0.480	-0.720	2.240	191.22	-2.10	2.60	 	 	 	 	 	 	 	 	 	 	 	 	 	 	 	 	 	 	1581503058	8.51	15.76
12/02/2020 10:24:19	120220	12022020	102419	191.50	12.575842	-57.184650	191.63	-0.070	-0.490	1.810	191.58	-1.80	2.20	 	 	 	 	 	 	 	 	 	 	 	 	 	 	 	 	 	 	1581503059	8.18	15.15
12/02/2020 10:24:20	120220	12022020	102420	191.77	12.575807	-57.184660	191.88	-0.520	-0.280	1.570	191.80	-1.70	2.10	 	 	 	 	 	 	 	 	 	 	 	 	 	 	 	 	 	 	1581503060	7.65	14.17
12/02/2020 10:24:21	120220	12022020	102421	191.84	12.575772	-57.184672	191.93	-0.620	-0.360	1.640	191.84	-1.80	2.20	 	 	 	 	 	 	 	 	 	 	 	 	 	 	 	 	 	 	1581503061	7.86	14.56
12/02/2020 10:24:22	120220	12022020	102422	191.82	12.575735	-57.184685	191.90	-0.420	-0.610	1.810	191.80	-2.10	2.30	 	 	 	 	 	 	 	 	 	 	 	 	 	 	 	 	 	 	1581503062	8.35	15.46
12/02/2020 10:24:23	120220	12022020	102423	191.69	12.575698	-57.184698	191.77	-0.030	-0.730	2.020	191.65	-2.10	2.50	 	 	 	 	 	 	 	 	 	 	 	 	 	 	 	 	 	 	1581503063	8.66	16.04
12/02/2020 10:24:24	120220	12022020	102424	191.41	12.575660	-57.184712	191.48	0.400	-0.530	2.170	191.35	-1.90	2.70	 	 	 	 	 	 	 	 	 	 	 	 	 	 	 	 	 	 	1581503064	8.60	15.93
12/02/2020 10:24:25	120220	12022020	102425	191.17	12.575622	-57.184722	191.26	0.590	0.020	2.100	191.16	-1.30	2.50	 	 	 	 	 	 	 	 	 	 	 	 	 	 	 	 	 	 	1581503065	8.34	15.45
12/02/2020 10:24:26	120220	12022020	102426	191.25	12.575585	-57.184727	191.36	0.360	0.640	1.850	191.29	-0.70	2.30	 	 	 	 	 	 	 	 	 	 	 	 	 	 	 	 	 	 	1581503066	7.92	14.67
12/02/2020 10:24:27	120220	12022020	102427	191.48	12.575550	-57.184733	191.59	-0.090	0.790	1.610	191.53	-0.70	2.10	 	 	 	 	 	 	 	 	 	 	 	 	 	 	 	 	 	 	1581503067	7.72	14.30
12/02/2020 10:24:28	120220	12022020	102428	191.69	12.575513	-57.184743	191.80	-0.400	0.340	1.610	191.73	-1.20	2.10	 	 	 	 	 	 	 	 	 	 	 	 	 	 	 	 	 	 	1581503068	8.04	14.89
12/02/2020 10:24:29	120220	12022020	102429	191.88	12.575477	-57.184755	191.98	-0.430	-0.270	1.790	191.92	-1.80	2.30	 	 	 	 	 	 	 	 	 	 	 	 	 	 	 	 	 	 	1581503069	8.52	15.78
12/02/2020 10:24:30	120220	12022020	102430	192.05	12.575440	-57.184770	192.14	-0.260	-0.700	1.910	192.08	-2.20	2.40	 	 	 	 	 	 	 	 	 	 	 	 	 	 	 	 	 	 	1581503070	8.50	15.74
12/02/2020 10:24:31	120220	12022020	102431	192.04	12.575403	-57.184785	192.09	0.040	-0.980	2.070	191.99	-2.50	2.60	 	 	 	 	 	 	 	 	 	 	 	 	 	 	 	 	 	 	1581503071	8.22	15.22
12/02/2020 10:24:32	120220	12022020	102432	191.60	12.575368	-57.184797	191.61	0.370	-1.280	2.330	191.48	-2.70	2.90	 	 	 	 	 	 	 	 	 	 	 	 	 	 	 	 	 	 	1581503072	8.19	15.17
12/02/2020 10:24:33	120220	12022020	102433	190.98	12.575330	-57.184808	191.00	0.490	-1.310	2.480	190.87	-2.70	3.00	 	 	 	 	 	 	 	 	 	 	 	 	 	 	 	 	 	 	1581503073	8.47	15.69
12/02/2020 10:24:34	120220	12022020	102434	190.59	12.575292	-57.184818	190.64	0.210	-0.820	2.410	190.55	-2.10	2.90	 	 	 	 	 	 	 	 	 	 	 	 	 	 	 	 	 	 	1581503074	8.43	15.61
12/02/2020 10:24:35	120220	12022020	102435	190.56	12.575255	-57.184828	190.64	-0.290	-0.060	2.290	190.59	-1.30	2.70	 	 	 	 	 	 	 	 	 	 	 	 	 	 	 	 	 	 	1581503075	8.12	15.04
12/02/2020 10:24:36	120220	12022020	102436	190.78	12.575220	-57.184840	190.88	-0.610	0.510	2.170	190.83	-0.80	2.60	 	 	 	 	 	 	 	 	 	 	 	 	 	 	 	 	 	 	1581503076	8.03	14.87
12/02/2020 10:24:37	120220	12022020	102437	191.12	12.575183	-57.184852	191.23	-0.530	0.700	1.860	191.20	-0.70	2.20	 	 	 	 	 	 	 	 	 	 	 	 	 	 	 	 	 	 	1581503077	8.25	15.28
12/02/2020 10:24:38	120220	12022020	102438	191.53	12.575147	-57.184862	191.64	-0.160	0.600	1.470	191.61	-0.90	1.90	 	 	 	 	 	 	 	 	 	 	 	 	 	 	 	 	 	 	1581503078	8.45	15.65
12/02/2020 10:24:39	120220	12022020	102439	191.98	12.575108	-57.184872	192.08	0.160	0.410	1.110	192.06	-1.10	1.50	 	 	 	 	 	 	 	 	 	 	 	 	 	 	 	 	 	 	1581503079	8.45	15.65
12/02/2020 10:24:40	120220	12022020	102440	192.33	12.575070	-57.184878	192.40	0.230	0.160	1.000	192.37	-1.40	1.50	 	 	 	 	 	 	 	 	 	 	 	 	 	 	 	 	 	 	1581503080	8.22	15.22
12/02/2020 10:24:41	120220	12022020	102441	192.43	12.575033	-57.184888	192.48	0.110	-0.170	1.380	192.42	-1.70	2.00	 	 	 	 	 	 	 	 	 	 	 	 	 	 	 	 	 	 	1581503081	8.04	14.89
12/02/2020 10:24:42	120220	12022020	102442	192.22	12.574998	-57.184900	192.25	0.050	-0.610	2.110	192.14	-2.20	2.80	 	 	 	 	 	 	 	 	 	 	 	 	 	 	 	 	 	 	1581503082	8.04	14.89
12/02/2020 10:24:43	120220	12022020	102443	191.69	12.574963	-57.184915	191.70	0.260	-1.140	2.880	191.55	-2.70	3.50	 	 	 	 	 	 	 	 	 	 	 	 	 	 	 	 	 	 	1581503083	8.33	15.43
12/02/2020 10:24:44	120220	12022020	102444	191.04	12.574925	-57.184930	191.08	0.620	-1.430	3.300	190.93	-2.80	3.70	 	 	 	 	 	 	 	 	 	 	 	 	 	 	 	 	 	 	1581503084	8.66	16.04
12/02/2020 10:24:45	120220	12022020	102445	190.75	12.574888	-57.184943	190.83	0.700	-1.070	2.930	190.73	-2.30	3.20	 	 	 	 	 	 	 	 	 	 	 	 	 	 	 	 	 	 	1581503085	8.50	15.74
12/02/2020 10:24:46	120220	12022020	102446	190.91	12.574852	-57.184950	191.03	0.270	-0.320	2.090	190.98	-1.60	2.40	 	 	 	 	 	 	 	 	 	 	 	 	 	 	 	 	 	 	1581503086	7.89	14.61
12/02/2020 10:24:47	120220	12022020	102447	191.20	12.574817	-57.184957	191.36	-0.370	0.180	1.300	191.26	-1.20	1.70	 	 	 	 	 	 	 	 	 	 	 	 	 	 	 	 	 	 	1581503087	7.60	14.08
12/02/2020 10:24:48	120220	12022020	102448	191.48	12.574780	-57.184963	191.57	-0.800	0.120	1.010	191.51	-1.40	1.50	 	 	 	 	 	 	 	 	 	 	 	 	 	 	 	 	 	 	1581503088	7.98	14.78
12/02/2020 10:24:49	120220	12022020	102449	191.64	12.574742	-57.184973	191.72	-0.840	-0.200	1.180	191.66	-1.70	1.70	 	 	 	 	 	 	 	 	 	 	 	 	 	 	 	 	 	 	1581503089	8.58	15.89
12/02/2020 10:24:50	120220	12022020	102450	191.76	12.574703	-57.184988	191.85	-0.620	-0.460	1.500	191.76	-1.90	2.00	 	 	 	 	 	 	 	 	 	 	 	 	 	 	 	 	 	 	1581503090	8.87	16.43
12/02/2020 10:24:51	120220	12022020	102451	191.66	12.574665	-57.185003	191.72	-0.270	-0.470	1.870	191.61	-1.90	2.40	 	 	 	 	 	 	 	 	 	 	 	 	 	 	 	 	 	 	1581503091	8.79	16.28
12/02/2020 10:24:52	120220	12022020	102452	191.34	12.574627	-57.185017	191.40	0.080	-0.210	2.130	191.28	-1.50	2.60	 	 	 	 	 	 	 	 	 	 	 	 	 	 	 	 	 	 	1581503092	8.53	15.80
12/02/2020 10:24:53	120220	12022020	102453	191.21	12.574590	-57.185027	191.31	0.280	0.340	1.930	191.24	-0.90	2.30	 	 	 	 	 	 	 	 	 	 	 	 	 	 	 	 	 	 	1581503093	8.23	15.24
12/02/2020 10:24:54	120220	12022020	102454	191.46	12.574555	-57.185035	191.58	0.300	0.910	1.460	191.53	-0.50	1.80	 	 	 	 	 	 	 	 	 	 	 	 	 	 	 	 	 	 	1581503094	7.74	14.33
12/02/2020 10:24:55	120220	12022020	102455	191.72	12.574522	-57.185042	191.79	0.290	0.800	1.220	191.72	-0.80	1.70	 	 	 	 	 	 	 	 	 	 	 	 	 	 	 	 	 	 	1581503095	7.53	13.95
12/02/2020 10:24:56	120220	12022020	102456	191.50	12.574483	-57.185048	191.52	0.360	-0.250	1.680	191.41	-2.00	2.30	 	 	 	 	 	 	 	 	 	 	 	 	 	 	 	 	 	 	1581503096	8.14	15.08
12/02/2020 10:24:57	120220	12022020	102457	191.06	12.574443	-57.185062	191.12	0.340	-1.280	2.470	190.99	-2.80	3.10	 	 	 	 	 	 	 	 	 	 	 	 	 	 	 	 	 	 	1581503097	9.09	16.83
12/02/2020 10:24:58	120220	12022020	102458	190.91	12.574405	-57.185078	191.02	0.150	-1.340	2.980	190.94	-2.60	3.50	 	 	 	 	 	 	 	 	 	 	 	 	 	 	 	 	 	 	1581503098	9.00	16.67
12/02/2020 10:24:59	120220	12022020	102459	191.12	12.574372	-57.185093	191.33	-0.050	-0.610	2.870	191.20	-1.90	3.20	 	 	 	 	 	 	 	 	 	 	 	 	 	 	 	 	 	 	1581503099	7.98	14.78
12/02/2020 10:25:00	120220	12022020	102500	191.57	12.574340	-57.185105	191.66	0.070	-0.120	2.230	191.61	-1.50	2.50	 	 	 	 	 	 	 	 	 	 	 	 	 	 	 	 	 	 	1581503100	7.20	13.33
12/02/2020 10:25:01	120220	12022020	102501	191.65	12.574305	-57.185113	191.68	0.420	-0.390	1.660	191.62	-1.90	2.10	1015.30	26.20	26.30	20.20	20.30	19.0	69.0	69.0	398.0	25.8	260.00	10.70	72.00	12.20	1548	9632.0	27.5	27.5	1581503101	7.66	14.19
12/02/2020 10:25:02	120220	12022020	102502	191.42	12.574265	-57.185118	191.51	0.550	-0.900	1.580	191.42	-2.40	2.10	 	 	 	 	 	 	 	 	 	 	 	 	 	 	 	 	 	 	1581503102	8.70	16.11
12/02/2020 10:25:03	120220	12022020	102503	191.36	12.574223	-57.185127	191.44	0.060	-0.780	1.880	191.36	-2.10	2.50	 	 	 	 	 	 	 	 	 	 	 	 	 	 	 	 	 	 	1581503103	8.92	16.52
12/02/2020 10:25:04	120220	12022020	102504	191.45	12.574188	-57.185138	191.56	-0.840	-0.100	2.390	191.49	-1.40	3.00	 	 	 	 	 	 	 	 	 	 	 	 	 	 	 	 	 	 	1581503104	8.24	15.26
12/02/2020 10:25:05	120220	12022020	102505	191.64	12.574155	-57.185155	191.75	-1.420	0.410	2.760	191.66	-1.00	3.20	 	 	 	 	 	 	 	 	 	 	 	 	 	 	 	 	 	 	1581503105	7.97	14.76
12/02/2020 10:25:06	120220	12022020	102506	191.78	12.574120	-57.185173	191.89	-1.080	0.410	2.560	191.82	-1.00	2.90	 	 	 	 	 	 	 	 	 	 	 	 	 	 	 	 	 	 	1581503106	8.37	15.50
12/02/2020 10:25:07	120220	12022020	102507	192.06	12.574083	-57.185188	192.19	-0.020	0.260	1.640	192.15	-1.20	1.90	 	 	 	 	 	 	 	 	 	 	 	 	 	 	 	 	 	 	1581503107	8.62	15.96
12/02/2020 10:25:08	120220	12022020	102508	192.52	12.574043	-57.185195	192.62	0.930	0.170	0.510	192.60	-1.30	0.80	 	 	 	 	 	 	 	 	 	 	 	 	 	 	 	 	 	 	1581503108	8.43	15.61
12/02/2020 10:25:09	120220	12022020	102509	192.81	12.574005	-57.185197	192.86	1.210	-0.160	-0.140	192.81	-1.70	0.30	 	 	 	 	 	 	 	 	 	 	 	 	 	 	 	 	 	 	1581503109	8.27	15.32
12/02/2020 10:25:10	120220	12022020	102510	192.63	12.573967	-57.185200	192.63	0.850	-0.800	0.240	192.53	-2.40	0.90	 	 	 	 	 	 	 	 	 	 	 	 	 	 	 	 	 	 	1581503110	8.38	15.52
12/02/2020 10:25:11	120220	12022020	102511	192.12	12.573928	-57.185212	191.97	0.260	-1.240	1.350	191.98	-2.70	2.10	 	 	 	 	 	 	 	 	 	 	 	 	 	 	 	 	 	 	1581503111	8.62	15.96
12/02/2020 10:25:12	120220	12022020	102512	191.31	12.573890	-57.185227	191.37	-0.310	-0.910	2.470	191.23	-2.10	3.10	 	 	 	 	 	 	 	 	 	 	 	 	 	 	 	 	 	 	1581503112	8.68	16.08
12/02/2020 10:25:13	120220	12022020	102513	191.23	12.573857	-57.185245	191.38	-0.840	0.050	3.130	191.23	-1.10	3.60	 	 	 	 	 	 	 	 	 	 	 	 	 	 	 	 	 	 	1581503113	8.14	15.08
12/02/2020 10:25:14	120220	12022020	102514	191.58	12.573827	-57.185263	191.75	-1.160	0.730	3.170	191.65	-0.70	3.60	 	 	 	 	 	 	 	 	 	 	 	 	 	 	 	 	 	 	1581503114	7.61	14.09
12/02/2020 10:25:15	120220	12022020	102515	191.87	12.573793	-57.185280	192.00	-0.960	0.450	2.790	191.90	-1.20	3.10	 	 	 	 	 	 	 	 	 	 	 	 	 	 	 	 	 	 	1581503115	7.87	14.58
12/02/2020 10:25:16	120220	12022020	102516	191.96	12.573757	-57.185295	192.07	-0.190	-0.410	2.160	191.95	-2.00	2.50	 	 	 	 	 	 	 	 	 	 	 	 	 	 	 	 	 	 	1581503116	8.69	16.09
12/02/2020 10:25:17	120220	12022020	102517	191.89	12.573715	-57.185305	191.98	0.720	-1.000	1.450	191.87	-2.40	1.80	 	 	 	 	 	 	 	 	 	 	 	 	 	 	 	 	 	 	1581503117	9.05	16.76
12/02/2020 10:25:18	120220	12022020	102518	191.81	12.573675	-57.185312	191.89	1.280	-0.860	0.680	191.81	-2.20	1.00	 	 	 	 	 	 	 	 	 	 	 	 	 	 	 	 	 	 	1581503118	8.65	16.02
12/02/2020 10:25:19	120220	12022020	102519	191.88	12.573638	-57.185313	191.98	1.150	-0.180	-0.010	191.93	-1.40	0.40	 	 	 	 	 	 	 	 	 	 	 	 	 	 	 	 	 	 	1581503119	7.99	14.80
12/02/2020 10:25:20	120220	12022020	102520	192.21	12.573603	-57.185315	192.32	0.400	0.450	-0.040	192.28	-0.90	0.60	 	 	 	 	 	 	 	 	 	 	 	 	 	 	 	 	 	 	1581503120	7.44	13.78
12/02/2020 10:25:21	120220	12022020	102521	192.42	12.573570	-57.185323	192.50	-0.460	0.350	0.860	192.41	-1.20	1.70	 	 	 	 	 	 	 	 	 	 	 	 	 	 	 	 	 	 	1581503121	7.43	13.76
12/02/2020 10:25:22	120220	12022020	102522	192.11	12.573535	-57.185340	192.15	-0.800	-0.490	2.250	191.98	-2.10	3.00	 	 	 	 	 	 	 	 	 	 	 	 	 	 	 	 	 	 	1581503122	8.41	15.58
12/02/2020 10:25:23	120220	12022020	102523	191.45	12.573497	-57.185362	191.52	-0.490	-1.230	3.350	191.33	-2.70	4.00	 	 	 	 	 	 	 	 	 	 	 	 	 	 	 	 	 	 	1581503123	9.44	17.48
12/02/2020 10:25:24	120220	12022020	102524	191.02	12.573458	-57.185382	191.13	0.010	-1.120	3.640	190.98	-2.40	4.10	 	 	 	 	 	 	 	 	 	 	 	 	 	 	 	 	 	 	1581503124	9.25	17.13
12/02/2020 10:25:25	120220	12022020	102525	190.93	12.573422	-57.185393	191.05	0.230	-0.350	3.290	190.93	-1.60	3.60	 	 	 	 	 	 	 	 	 	 	 	 	 	 	 	 	 	 	1581503125	8.17	15.13
12/02/2020 10:25:26	120220	12022020	102526	190.93	12.573388	-57.185402	191.02	0.070	0.240	2.690	190.93	-1.10	3.00	 	 	 	 	 	 	 	 	 	 	 	 	 	 	 	 	 	 	1581503126	7.53	13.95
12/02/2020 10:25:27	120220	12022020	102527	190.87	12.573352	-57.185408	190.94	-0.210	0.270	2.130	190.86	-1.20	2.50	 	 	 	 	 	 	 	 	 	 	 	 	 	 	 	 	 	 	1581503127	7.80	14.45
12/02/2020 10:25:28	120220	12022020	102528	190.83	12.573315	-57.185418	190.91	-0.360	0.120	1.780	190.85	-1.30	2.20	 	 	 	 	 	 	 	 	 	 	 	 	 	 	 	 	 	 	1581503128	8.31	15.39
12/02/2020 10:25:29	120220	12022020	102529	191.08	12.573278	-57.185428	191.18	-0.350	0.210	1.360	191.16	-1.20	1.70	 	 	 	 	 	 	 	 	 	 	 	 	 	 	 	 	 	 	1581503129	8.29	15.35
12/02/2020 10:25:30	120220	12022020	102530	191.44	12.573243	-57.185438	191.51	-0.140	0.210	0.960	191.49	-1.30	1.40	 	 	 	 	 	 	 	 	 	 	 	 	 	 	 	 	 	 	1581503130	7.78	14.41
12/02/2020 10:25:31	120220	12022020	102531	191.50	12.573207	-57.185448	191.54	0.310	-0.400	0.990	191.49	-2.00	1.50	 	 	 	 	 	 	 	 	 	 	 	 	 	 	 	 	 	 	1581503131	7.89	14.61
12/02/2020 10:25:32	120220	12022020	102532	191.44	12.573168	-57.185458	191.51	0.790	-1.140	1.270	191.44	-2.60	1.80	 	 	 	 	 	 	 	 	 	 	 	 	 	 	 	 	 	 	1581503132	8.61	15.95
12/02/2020 10:25:33	120220	12022020	102533	191.49	12.573130	-57.185468	191.57	0.870	-1.140	1.520	191.51	-2.40	2.10	 	 	 	 	 	 	 	 	 	 	 	 	 	 	 	 	 	 	1581503133	8.71	16.13
12/02/2020 10:25:34	120220	12022020	102534	191.62	12.573093	-57.185478	191.71	0.450	-0.320	1.770	191.65	-1.50	2.30	 	 	 	 	 	 	 	 	 	 	 	 	 	 	 	 	 	 	1581503134	7.88	14.59
12/02/2020 10:25:35	120220	12022020	102535	191.69	12.573062	-57.185488	191.76	-0.160	0.410	2.180	191.69	-1.00	2.80	 	 	 	 	 	 	 	 	 	 	 	 	 	 	 	 	 	 	1581503135	7.19	13.32
12/02/2020 10:25:36	120220	12022020	102536	191.61	12.573028	-57.185500	191.68	-0.510	0.350	2.630	191.59	-1.20	3.20	 	 	 	 	 	 	 	 	 	 	 	 	 	 	 	 	 	 	1581503136	7.55	13.98
12/02/2020 10:25:37	120220	12022020	102537	191.51	12.572992	-57.185513	191.54	-0.420	-0.330	2.930	191.48	-1.90	3.40	 	 	 	 	 	 	 	 	 	 	 	 	 	 	 	 	 	 	1581503137	8.46	15.67
12/02/2020 10:25:38	120220	12022020	102538	191.22	12.572952	-57.185528	191.27	-0.100	-0.970	3.020	191.17	-2.50	3.50	 	 	 	 	 	 	 	 	 	 	 	 	 	 	 	 	 	 	1581503138	9.03	16.72
12/02/2020 10:25:39	120220	12022020	102539	190.98	12.572913	-57.185542	191.05	0.030	-0.960	2.780	190.95	-2.30	3.20	 	 	 	 	 	 	 	 	 	 	 	 	 	 	 	 	 	 	1581503139	8.88	16.45
12/02/2020 10:25:40	120220	12022020	102540	190.89	12.572877	-57.185552	190.96	-0.170	-0.370	2.330	190.90	-1.60	2.70	 	 	 	 	 	 	 	 	 	 	 	 	 	 	 	 	 	 	1581503140	8.12	15.04
12/02/2020 10:25:41	120220	12022020	102541	190.97	12.572842	-57.185560	191.03	-0.450	0.200	1.770	190.99	-1.10	2.10	 	 	 	 	 	 	 	 	 	 	 	 	 	 	 	 	 	 	1581503141	7.63	14.13
12/02/2020 10:25:42	120220	12022020	102542	191.14	12.572808	-57.185570	191.20	-0.440	0.430	1.220	191.19	-1.00	1.60	 	 	 	 	 	 	 	 	 	 	 	 	 	 	 	 	 	 	1581503142	7.71	14.28
12/02/2020 10:25:43	120220	12022020	102543	191.45	12.572772	-57.185578	191.53	-0.080	0.410	0.620	191.54	-1.00	1.00	 	 	 	 	 	 	 	 	 	 	 	 	 	 	 	 	 	 	1581503143	8.03	14.87
12/02/2020 10:25:44	120220	12022020	102544	191.87	12.572735	-57.185587	191.93	0.440	0.290	0.140	191.94	-1.20	0.60	 	 	 	 	 	 	 	 	 	 	 	 	 	 	 	 	 	 	1581503144	8.10	15.00
12/02/2020 10:25:45	120220	12022020	102545	192.12	12.572698	-57.185593	192.16	0.880	-0.080	0.180	192.13	-1.70	0.80	 	 	 	 	 	 	 	 	 	 	 	 	 	 	 	 	 	 	1581503145	8.03	14.87
12/02/2020 10:25:46	120220	12022020	102546	192.04	12.572660	-57.185600	192.05	0.980	-0.730	0.820	191.99	-2.30	1.50	 	 	 	 	 	 	 	 	 	 	 	 	 	 	 	 	 	 	1581503146	8.24	15.26
12/02/2020 10:25:47	120220	12022020	102547	191.78	12.572622	-57.185610	191.82	0.560	-1.170	1.810	191.73	-2.60	2.50	 	 	 	 	 	 	 	 	 	 	 	 	 	 	 	 	 	 	1581503147	8.54	15.82
12/02/2020 10:25:48	120220	12022020	102548	191.50	12.572585	-57.185625	191.55	-0.180	-1.090	2.860	191.43	-2.40	3.60	 	 	 	 	 	 	 	 	 	 	 	 	 	 	 	 	 	 	1581503148	8.43	15.61
12/02/2020 10:25:49	120220	12022020	102549	191.22	12.572552	-57.185643	191.22	-0.740	-0.720	3.640	191.16	-2.00	4.20	 	 	 	 	 	 	 	 	 	 	 	 	 	 	 	 	 	 	1581503149	8.22	15.22
12/02/2020 10:25:50	120220	12022020	102550	190.89	12.572517	-57.185660	190.97	-0.790	-0.350	3.730	190.84	-1.70	4.10	 	 	 	 	 	 	 	 	 	 	 	 	 	 	 	 	 	 	1581503150	8.16	15.11
12/02/2020 10:25:51	120220	12022020	102551	190.71	12.572482	-57.185673	190.82	-0.500	-0.200	3.310	190.71	-1.60	3.60	 	 	 	 	 	 	 	 	 	 	 	 	 	 	 	 	 	 	1581503151	8.21	15.20
12/02/2020 10:25:52	120220	12022020	102552	190.78	12.572443	-57.185685	190.88	-0.230	-0.180	2.510	190.81	-1.60	2.80	 	 	 	 	 	 	 	 	 	 	 	 	 	 	 	 	 	 	1581503152	8.47	15.69
12/02/2020 10:25:53	120220	12022020	102553	191.00	12.572405	-57.185692	191.10	-0.100	-0.050	1.660	191.06	-1.40	2.00	 	 	 	 	 	 	 	 	 	 	 	 	 	 	 	 	 	 	1581503153	8.51	15.76
12/02/2020 10:25:54	120220	12022020	102554	191.34	12.572367	-57.185700	191.44	0.000	0.370	1.000	191.42	-1.00	1.40	 	 	 	 	 	 	 	 	 	 	 	 	 	 	 	 	 	 	1581503154	8.22	15.22
12/02/2020 10:25:55	120220	12022020	102555	191.75	12.572332	-57.185705	191.84	0.150	0.760	0.670	191.83	-0.70	1.20	 	 	 	 	 	 	 	 	 	 	 	 	 	 	 	 	 	 	1581503155	7.75	14.35
12/02/2020 10:25:56	120220	12022020	102556	192.05	12.572297	-57.185713	192.10	0.340	0.600	0.660	192.07	-1.00	1.20	 	 	 	 	 	 	 	 	 	 	 	 	 	 	 	 	 	 	1581503156	7.64	14.15
12/02/2020 10:25:57	120220	12022020	102557	192.01	12.572260	-57.185722	192.03	0.610	-0.150	0.930	191.98	-1.80	1.50	 	 	 	 	 	 	 	 	 	 	 	 	 	 	 	 	 	 	1581503157	8.11	15.02
12/02/2020 10:25:58	120220	12022020	102558	191.90	12.572222	-57.185733	191.96	0.790	-0.780	1.260	191.90	-2.30	1.80	 	 	 	 	 	 	 	 	 	 	 	 	 	 	 	 	 	 	1581503158	8.63	15.98
12/02/2020 10:25:59	120220	12022020	102559	191.89	12.572183	-57.185743	191.96	0.630	-0.880	1.570	191.89	-2.30	2.20	 	 	 	 	 	 	 	 	 	 	 	 	 	 	 	 	 	 	1581503159	8.32	15.41
12/02/2020 10:26:00	120220	12022020	102600	191.83	12.572148	-57.185752	191.90	0.160	-0.830	1.970	191.82	-2.20	2.60	 	 	 	 	 	 	 	 	 	 	 	 	 	 	 	 	 	 	1581503160	7.82	14.48
12/02/2020 10:26:01	120220	12022020	102601	191.76	12.572113	-57.185765	191.78	-0.400	-0.900	2.540	191.73	-2.40	3.20	1015.30	26.40	26.40	20.70	20.70	22.0	71.0	71.0	398.0	25.9	262.00	9.70	72.00	11.10	1674	10111.0	27.5	27.5	1581503161	7.90	14.63
12/02/2020 10:26:02	120220	12022020	102602	191.37	12.572078	-57.185780	191.39	-0.700	-1.150	3.230	191.25	-2.60	3.80	 	 	 	 	 	 	 	 	 	 	 	 	 	 	 	 	 	 	1581503162	8.36	15.48
12/02/2020 10:26:03	120220	12022020	102603	190.92	12.572040	-57.185797	190.87	-0.680	-1.230	3.630	190.82	-2.60	4.10	 	 	 	 	 	 	 	 	 	 	 	 	 	 	 	 	 	 	1581503163	8.89	16.46
12/02/2020 10:26:04	120220	12022020	102604	190.49	12.572002	-57.185812	190.57	-0.580	-0.720	3.540	190.46	-1.90	3.90	 	 	 	 	 	 	 	 	 	 	 	 	 	 	 	 	 	 	1581503164	8.84	16.37
12/02/2020 10:26:05	120220	12022020	102605	190.41	12.571965	-57.185823	190.51	-0.550	0.160	2.960	190.43	-1.10	3.20	 	 	 	 	 	 	 	 	 	 	 	 	 	 	 	 	 	 	1581503165	8.24	15.26
12/02/2020 10:26:06	120220	12022020	102606	190.66	12.571930	-57.185833	190.78	-0.470	0.850	1.950	190.76	-0.50	2.20	 	 	 	 	 	 	 	 	 	 	 	 	 	 	 	 	 	 	1581503166	7.94	14.70
12/02/2020 10:26:07	120220	12022020	102607	191.36	12.571893	-57.185842	191.50	-0.180	1.190	0.740	191.53	-0.20	1.00	 	 	 	 	 	 	 	 	 	 	 	 	 	 	 	 	 	 	1581503167	8.01	14.83
12/02/2020 10:26:08	120220	12022020	102608	192.23	12.571857	-57.185847	192.35	0.320	1.130	-0.320	192.38	-0.40	0.00	 	 	 	 	 	 	 	 	 	 	 	 	 	 	 	 	 	 	1581503168	8.03	14.87
12/02/2020 10:26:09	120220	12022020	102609	192.74	12.571818	-57.185850	192.77	0.890	0.470	-0.770	192.76	-1.20	-0.20	 	 	 	 	 	 	 	 	 	 	 	 	 	 	 	 	 	 	1581503169	8.14	15.08
12/02/2020 10:26:10	120220	12022020	102610	192.57	12.571780	-57.185855	192.56	1.260	-0.580	-0.130	192.48	-2.20	0.70	 	 	 	 	 	 	 	 	 	 	 	 	 	 	 	 	 	 	1581503170	8.55	15.83
12/02/2020 10:26:11	120220	12022020	102611	192.17	12.571740	-57.185865	192.21	1.070	-1.190	1.170	192.12	-2.60	2.00	 	 	 	 	 	 	 	 	 	 	 	 	 	 	 	 	 	 	1581503171	8.77	16.24
12/02/2020 10:26:12	120220	12022020	102612	191.99	12.571703	-57.185878	192.09	0.270	-1.080	2.550	191.97	-2.40	3.40	 	 	 	 	 	 	 	 	 	 	 	 	 	 	 	 	 	 	1581503172	8.27	15.32
12/02/2020 10:26:13	120220	12022020	102613	191.85	12.571672	-57.185895	191.98	-0.680	-0.920	3.850	191.81	-2.40	4.60	 	 	 	 	 	 	 	 	 	 	 	 	 	 	 	 	 	 	1581503173	7.85	14.54
12/02/2020 10:26:14	120220	12022020	102614	191.59	12.571638	-57.185917	191.73	-1.130	-1.080	4.610	191.53	-2.50	5.10	 	 	 	 	 	 	 	 	 	 	 	 	 	 	 	 	 	 	1581503174	8.39	15.54
12/02/2020 10:26:15	120220	12022020	102615	191.28	12.571603	-57.185937	191.43	-0.880	-1.160	4.460	191.22	-2.50	4.80	 	 	 	 	 	 	 	 	 	 	 	 	 	 	 	 	 	 	1581503175	8.82	16.33
12/02/2020 10:26:16	120220	12022020	102616	191.04	12.571565	-57.185952	191.21	-0.290	-0.890	3.630	191.02	-2.20	3.90	 	 	 	 	 	 	 	 	 	 	 	 	 	 	 	 	 	 	1581503176	8.61	15.95
12/02/2020 10:26:17	120220	12022020	102617	190.95	12.571528	-57.185960	191.10	0.120	-0.360	2.530	190.95	-1.70	2.80	 	 	 	 	 	 	 	 	 	 	 	 	 	 	 	 	 	 	1581503177	8.30	15.37
12/02/2020 10:26:18	120220	12022020	102618	191.03	12.571490	-57.185965	191.16	0.210	0.160	1.420	191.06	-1.10	1.70	 	 	 	 	 	 	 	 	 	 	 	 	 	 	 	 	 	 	1581503178	8.19	15.17
12/02/2020 10:26:19	120220	12022020	102619	191.31	12.571452	-57.185970	191.45	0.160	0.660	0.490	191.40	-0.70	0.90	 	 	 	 	 	 	 	 	 	 	 	 	 	 	 	 	 	 	1581503179	8.25	15.28
12/02/2020 10:26:20	120220	12022020	102620	191.78	12.571415	-57.185973	191.91	0.110	0.990	0.050	191.87	-0.40	0.60	 	 	 	 	 	 	 	 	 	 	 	 	 	 	 	 	 	 	1581503180	8.11	15.02
12/02/2020 10:26:21	120220	12022020	102621	192.18	12.571377	-57.185980	192.30	0.150	0.780	0.280	192.24	-0.80	0.90	 	 	 	 	 	 	 	 	 	 	 	 	 	 	 	 	 	 	1581503181	8.08	14.96
12/02/2020 10:26:22	120220	12022020	102622	192.43	12.571340	-57.185990	192.53	0.200	0.110	0.850	192.45	-1.50	1.50	 	 	 	 	 	 	 	 	 	 	 	 	 	 	 	 	 	 	1581503182	8.43	15.61
12/02/2020 10:26:23	120220	12022020	102623	192.45	12.571302	-57.186003	192.54	0.170	-0.680	1.660	192.41	-2.30	2.40	 	 	 	 	 	 	 	 	 	 	 	 	 	 	 	 	 	 	1581503183	8.71	16.13
12/02/2020 10:26:24	120220	12022020	102624	192.17	12.571263	-57.186018	192.27	0.040	-1.150	2.660	192.10	-2.60	3.40	 	 	 	 	 	 	 	 	 	 	 	 	 	 	 	 	 	 	1581503184	8.76	16.22
12/02/2020 10:26:25	120220	12022020	102625	191.76	12.571227	-57.186035	191.86	-0.160	-1.050	3.460	191.67	-2.40	4.00	 	 	 	 	 	 	 	 	 	 	 	 	 	 	 	 	 	 	1581503185	8.46	15.67
12/02/2020 10:26:26	120220	12022020	102626	191.37	12.571193	-57.186050	191.50	-0.280	-0.600	3.550	191.32	-1.90	3.90	 	 	 	 	 	 	 	 	 	 	 	 	 	 	 	 	 	 	1581503186	7.98	14.78
12/02/2020 10:26:27	120220	12022020	102627	191.26	12.571160	-57.186063	191.43	-0.280	-0.110	2.840	191.27	-1.40	3.10	 	 	 	 	 	 	 	 	 	 	 	 	 	 	 	 	 	 	1581503187	7.69	14.24
12/02/2020 10:26:28	120220	12022020	102628	191.38	12.571125	-57.186072	191.52	-0.070	0.020	1.890	191.40	-1.40	2.20	 	 	 	 	 	 	 	 	 	 	 	 	 	 	 	 	 	 	1581503188	7.68	14.22
12/02/2020 10:26:29	120220	12022020	102629	191.45	12.571088	-57.186078	191.57	0.380	-0.320	1.020	191.48	-1.80	1.30	 	 	 	 	 	 	 	 	 	 	 	 	 	 	 	 	 	 	1581503189	8.13	15.06
12/02/2020 10:26:30	120220	12022020	102630	191.70	12.571048	-57.186085	191.82	0.770	-0.630	0.330	191.77	-2.00	0.80	 	 	 	 	 	 	 	 	 	 	 	 	 	 	 	 	 	 	1581503190	8.72	16.15
12/02/2020 10:26:31	120220	12022020	102631	192.01	12.571008	-57.186088	192.22	0.740	-0.500	0.270	192.09	-1.90	0.90	 	 	 	 	 	 	 	 	 	 	 	 	 	 	 	 	 	 	1581503191	8.60	15.93
12/02/2020 10:26:32	120220	12022020	102632	192.31	12.570972	-57.186095	192.41	0.250	-0.310	0.770	192.32	-1.70	1.40	 	 	 	 	 	 	 	 	 	 	 	 	 	 	 	 	 	 	1581503192	8.12	15.04
12/02/2020 10:26:33	120220	12022020	102633	192.33	12.570935	-57.186107	192.43	-0.480	-0.280	1.600	192.33	-1.70	2.30	 	 	 	 	 	 	 	 	 	 	 	 	 	 	 	 	 	 	1581503193	8.20	15.19
12/02/2020 10:26:34	120220	12022020	102634	192.27	12.570898	-57.186123	192.38	-1.070	-0.310	2.640	192.24	-1.70	3.40	 	 	 	 	 	 	 	 	 	 	 	 	 	 	 	 	 	 	1581503194	8.56	15.85
12/02/2020 10:26:35	120220	12022020	102635	192.09	12.570863	-57.186143	192.19	-1.190	-0.280	3.460	192.03	-1.70	4.10	 	 	 	 	 	 	 	 	 	 	 	 	 	 	 	 	 	 	1581503195	8.79	16.28
12/02/2020 10:26:36	120220	12022020	102636	191.71	12.570827	-57.186163	191.82	-0.720	-0.200	3.700	191.62	-1.60	4.10	 	 	 	 	 	 	 	 	 	 	 	 	 	 	 	 	 	 	1581503196	8.71	16.13
12/02/2020 10:26:37	120220	12022020	102637	191.41	12.570790	-57.186178	191.55	0.030	0.020	3.170	191.39	-1.30	3.40	 	 	 	 	 	 	 	 	 	 	 	 	 	 	 	 	 	 	1581503197	8.49	15.72
12/02/2020 10:26:38	120220	12022020	102638	191.49	12.570753	-57.186187	191.66	0.560	0.390	2.150	191.55	-1.00	2.40	 	 	 	 	 	 	 	 	 	 	 	 	 	 	 	 	 	 	1581503198	8.12	15.04
12/02/2020 10:26:39	120220	12022020	102639	191.75	12.570717	-57.186190	191.96	0.730	0.450	1.160	191.81	-1.00	1.50	 	 	 	 	 	 	 	 	 	 	 	 	 	 	 	 	 	 	1581503199	7.83	14.50
12/02/2020 10:26:40	120220	12022020	102640	192.18	12.570680	-57.186193	192.32	0.680	-0.020	0.470	192.26	-1.60	0.90	 	 	 	 	 	 	 	 	 	 	 	 	 	 	 	 	 	 	1581503200	8.08	14.96
12/02/2020 10:26:41	120220	12022020	102641	192.53	12.570642	-57.186198	192.63	0.580	-0.660	0.430	192.57	-2.20	1.00	 	 	 	 	 	 	 	 	 	 	 	 	 	 	 	 	 	 	1581503201	8.44	15.63
12/02/2020 10:26:42	120220	12022020	102642	192.67	12.570603	-57.186208	192.77	0.410	-1.010	0.990	192.67	-2.40	1.70	 	 	 	 	 	 	 	 	 	 	 	 	 	 	 	 	 	 	1581503202	8.46	15.67
12/02/2020 10:26:43	120220	12022020	102643	192.61	12.570567	-57.186222	192.71	0.130	-0.960	1.690	192.58	-2.30	2.40	 	 	 	 	 	 	 	 	 	 	 	 	 	 	 	 	 	 	1581503203	8.23	15.24
12/02/2020 10:26:44	120220	12022020	102644	192.35	12.570532	-57.186237	192.42	-0.200	-0.790	2.370	192.26	-2.20	3.00	 	 	 	 	 	 	 	 	 	 	 	 	 	 	 	 	 	 	1581503204	8.02	14.85
12/02/2020 10:26:45	120220	12022020	102645	191.83	12.570497	-57.186250	191.90	-0.440	-0.820	3.030	191.73	-2.20	3.70	 	 	 	 	 	 	 	 	 	 	 	 	 	 	 	 	 	 	1581503205	8.23	15.24
12/02/2020 10:26:46	120220	12022020	102646	191.37	12.570458	-57.186265	191.47	-0.590	-0.780	3.440	191.31	-2.10	3.90	 	 	 	 	 	 	 	 	 	 	 	 	 	 	 	 	 	 	1581503206	8.73	16.17
12/02/2020 10:26:47	120220	12022020	102647	191.23	12.570420	-57.186280	191.39	-0.670	-0.300	3.220	191.27	-1.50	3.60	 	 	 	 	 	 	 	 	 	 	 	 	 	 	 	 	 	 	1581503207	8.76	16.22
12/02/2020 10:26:48	120220	12022020	102648	191.57	12.570385	-57.186293	191.76	-0.620	0.510	2.440	191.69	-0.70	2.70	 	 	 	 	 	 	 	 	 	 	 	 	 	 	 	 	 	 	1581503208	8.24	15.26
12/02/2020 10:26:49	120220	12022020	102649	192.23	12.570350	-57.186302	192.43	-0.430	1.140	1.420	192.38	-0.20	1.70	 	 	 	 	 	 	 	 	 	 	 	 	 	 	 	 	 	 	1581503209	7.73	14.32
12/02/2020 10:26:50	120220	12022020	102650	192.89	12.570315	-57.186310	193.04	-0.030	1.080	0.600	192.99	-0.50	1.00	 	 	 	 	 	 	 	 	 	 	 	 	 	 	 	 	 	 	1581503210	7.72	14.30
12/02/2020 10:26:51	120220	12022020	102651	193.20	12.570277	-57.186318	193.35	0.530	0.400	0.160	193.25	-1.20	0.60	 	 	 	 	 	 	 	 	 	 	 	 	 	 	 	 	 	 	1581503211	8.19	15.17
12/02/2020 10:26:52	120220	12022020	102652	193.44	12.570238	-57.186325	193.52	1.020	-0.400	-0.010	193.46	-2.00	0.50	 	 	 	 	 	 	 	 	 	 	 	 	 	 	 	 	 	 	1581503212	8.57	15.87
12/02/2020 10:26:53	120220	12022020	102653	193.44	12.570198	-57.186332	193.43	1.150	-1.190	0.380	193.39	-2.80	1.10	 	 	 	 	 	 	 	 	 	 	 	 	 	 	 	 	 	 	1581503213	8.51	15.76
12/02/2020 10:26:54	120220	12022020	102654	192.90	12.570160	-57.186342	192.94	0.830	-1.850	1.530	192.78	-3.30	2.30	 	 	 	 	 	 	 	 	 	 	 	 	 	 	 	 	 	 	1581503214	8.59	15.91
12/02/2020 10:26:55	120220	12022020	102655	192.28	12.570122	-57.186357	192.36	0.160	-1.790	2.830	192.19	-3.00	3.60	 	 	 	 	 	 	 	 	 	 	 	 	 	 	 	 	 	 	1581503215	8.78	16.26
12/02/2020 10:26:56	120220	12022020	102656	191.90	12.570087	-57.186373	192.02	-0.610	-0.810	3.770	191.86	-1.90	4.40	 	 	 	 	 	 	 	 	 	 	 	 	 	 	 	 	 	 	1581503216	8.39	15.54
12/02/2020 10:26:57	120220	12022020	102657	191.68	12.570055	-57.186390	191.82	-1.130	0.280	4.090	191.64	-0.90	4.50	 	 	 	 	 	 	 	 	 	 	 	 	 	 	 	 	 	 	1581503217	7.78	14.41
12/02/2020 10:26:58	120220	12022020	102658	191.60	12.570022	-57.186407	191.77	-1.190	0.760	3.710	191.61	-0.60	4.00	 	 	 	 	 	 	 	 	 	 	 	 	 	 	 	 	 	 	1581503218	7.85	14.54
12/02/2020 10:26:59	120220	12022020	102659	191.74	12.569985	-57.186420	191.92	-0.810	0.570	2.860	191.78	-0.90	3.10	 	 	 	 	 	 	 	 	 	 	 	 	 	 	 	 	 	 	1581503219	8.38	15.52
12/02/2020 10:27:00	120220	12022020	102700	191.90	12.569947	-57.186430	192.05	-0.210	0.090	1.940	191.93	-1.40	2.20	 	 	 	 	 	 	 	 	 	 	 	 	 	 	 	 	 	 	1581503220	8.82	16.33
12/02/2020 10:27:01	120220	12022020	102701	192.08	12.569905	-57.186440	192.23	0.350	-0.160	1.070	192.14	-1.50	1.40	1015.40	26.30	26.30	20.50	20.60	23.0	70.0	71.0	399.0	25.9	263.00	9.10	71.00	10.60	1810	10140.0	27.5	27.5	1581503221	8.85	16.39
12/02/2020 10:27:02	120220	12022020	102702	192.54	12.569867	-57.186445	192.71	0.630	0.050	0.280	192.67	-1.30	0.70	 	 	 	 	 	 	 	 	 	 	 	 	 	 	 	 	 	 	1581503222	8.39	15.54
12/02/2020 10:27:03	120220	12022020	102703	193.18	12.569832	-57.186452	193.32	0.660	0.290	-0.200	193.29	-1.20	0.30	 	 	 	 	 	 	 	 	 	 	 	 	 	 	 	 	 	 	1581503223	7.69	14.24
12/02/2020 10:27:04	120220	12022020	102704	193.52	12.569797	-57.186457	193.59	0.630	-0.040	-0.050	193.53	-1.60	0.60	 	 	 	 	 	 	 	 	 	 	 	 	 	 	 	 	 	 	1581503224	7.57	14.02
12/02/2020 10:27:05	120220	12022020	102705	193.40	12.569760	-57.186467	193.44	0.620	-0.820	0.770	193.33	-2.40	1.50	 	 	 	 	 	 	 	 	 	 	 	 	 	 	 	 	 	 	1581503225	8.18	15.15
12/02/2020 10:27:06	120220	12022020	102706	192.97	12.569722	-57.186478	193.02	0.530	-1.410	1.810	192.86	-2.90	2.60	 	 	 	 	 	 	 	 	 	 	 	 	 	 	 	 	 	 	1581503226	8.68	16.08
12/02/2020 10:27:07	120220	12022020	102707	192.38	12.569683	-57.186493	192.45	0.240	-1.360	2.880	192.27	-2.70	3.60	 	 	 	 	 	 	 	 	 	 	 	 	 	 	 	 	 	 	1581503227	8.66	16.04
12/02/2020 10:27:08	120220	12022020	102708	192.01	12.569648	-57.186508	192.14	-0.280	-0.740	3.540	191.99	-2.00	4.10	 	 	 	 	 	 	 	 	 	 	 	 	 	 	 	 	 	 	1581503228	8.32	15.41
12/02/2020 10:27:09	120220	12022020	102709	192.01	12.569613	-57.186522	192.18	-0.870	-0.020	3.570	192.03	-1.30	4.00	 	 	 	 	 	 	 	 	 	 	 	 	 	 	 	 	 	 	1581503229	7.92	14.67
12/02/2020 10:27:10	120220	12022020	102710	192.11	12.569580	-57.186537	192.29	-1.230	0.290	3.290	192.13	-1.10	3.70	 	 	 	 	 	 	 	 	 	 	 	 	 	 	 	 	 	 	1581503230	7.96	14.74
12/02/2020 10:27:11	120220	12022020	102711	192.22	12.569543	-57.186552	192.40	-1.090	0.170	2.820	192.25	-1.30	3.20	 	 	 	 	 	 	 	 	 	 	 	 	 	 	 	 	 	 	1581503231	8.46	15.67
12/02/2020 10:27:12	120220	12022020	102712	192.35	12.569505	-57.186567	192.51	-0.470	-0.040	2.110	192.38	-1.50	2.40	 	 	 	 	 	 	 	 	 	 	 	 	 	 	 	 	 	 	1581503232	8.76	16.22
12/02/2020 10:27:13	120220	12022020	102713	192.55	12.569467	-57.186577	192.69	0.340	-0.070	1.180	192.60	-1.40	1.50	 	 	 	 	 	 	 	 	 	 	 	 	 	 	 	 	 	 	1581503233	8.63	15.98
12/02/2020 10:27:14	120220	12022020	102714	192.80	12.569428	-57.186583	192.92	0.960	0.060	0.300	192.85	-1.30	0.60	 	 	 	 	 	 	 	 	 	 	 	 	 	 	 	 	 	 	1581503234	8.30	15.37
12/02/2020 10:27:15	120220	12022020	102715	192.98	12.569390	-57.186585	193.13	1.130	0.120	-0.270	193.03	-1.30	0.20	 	 	 	 	 	 	 	 	 	 	 	 	 	 	 	 	 	 	1581503235	8.14	15.08
12/02/2020 10:27:16	120220	12022020	102716	193.27	12.569353	-57.186588	193.38	0.740	0.030	-0.190	193.31	-1.40	0.50	 	 	 	 	 	 	 	 	 	 	 	 	 	 	 	 	 	 	1581503236	8.12	15.04
12/02/2020 10:27:17	120220	12022020	102717	193.36	12.569317	-57.186597	193.44	0.030	-0.300	0.760	193.35	-1.80	1.60	 	 	 	 	 	 	 	 	 	 	 	 	 	 	 	 	 	 	1581503237	8.08	14.96
12/02/2020 10:27:18	120220	12022020	102718	193.25	12.569280	-57.186612	193.36	-0.580	-0.680	2.130	193.22	-2.10	2.90	 	 	 	 	 	 	 	 	 	 	 	 	 	 	 	 	 	 	1581503238	8.45	15.65
12/02/2020 10:27:19	120220	12022020	102719	193.11	12.569245	-57.186633	193.24	-0.730	-0.800	3.240	193.09	-2.20	3.90	 	 	 	 	 	 	 	 	 	 	 	 	 	 	 	 	 	 	1581503239	8.82	16.33
12/02/2020 10:27:20	120220	12022020	102720	192.97	12.569212	-57.186655	193.08	-0.350	-0.700	3.560	192.93	-2.10	4.00	 	 	 	 	 	 	 	 	 	 	 	 	 	 	 	 	 	 	1581503240	8.58	15.89
12/02/2020 10:27:21	120220	12022020	102721	192.72	12.569177	-57.186672	192.81	0.270	-0.640	3.150	192.66	-2.00	3.50	 	 	 	 	 	 	 	 	 	 	 	 	 	 	 	 	 	 	1581503241	8.22	15.22
12/02/2020 10:27:22	120220	12022020	102722	192.47	12.569138	-57.186680	192.55	0.610	-0.620	2.330	192.44	-2.00	2.60	 	 	 	 	 	 	 	 	 	 	 	 	 	 	 	 	 	 	1581503242	8.27	15.32
12/02/2020 10:27:23	120220	12022020	102723	192.38	12.569100	-57.186687	192.46	0.420	-0.590	1.430	192.38	-2.00	1.80	 	 	 	 	 	 	 	 	 	 	 	 	 	 	 	 	 	 	1581503243	8.43	15.61
12/02/2020 10:27:24	120220	12022020	102724	192.45	12.569062	-57.186692	192.52	-0.080	-0.400	0.850	192.47	-1.70	1.30	 	 	 	 	 	 	 	 	 	 	 	 	 	 	 	 	 	 	1581503244	8.43	15.61
12/02/2020 10:27:25	120220	12022020	102725	192.57	12.569023	-57.186700	192.64	-0.430	-0.040	0.840	192.59	-1.30	1.40	 	 	 	 	 	 	 	 	 	 	 	 	 	 	 	 	 	 	1581503245	8.27	15.32
12/02/2020 10:27:26	120220	12022020	102726	192.70	12.568988	-57.186712	192.78	-0.430	0.360	1.130	192.73	-1.00	1.70	 	 	 	 	 	 	 	 	 	 	 	 	 	 	 	 	 	 	1581503246	8.12	15.04
12/02/2020 10:27:27	120220	12022020	102727	192.91	12.568952	-57.186723	193.01	-0.210	0.550	1.460	192.95	-0.90	2.00	 	 	 	 	 	 	 	 	 	 	 	 	 	 	 	 	 	 	1581503247	8.15	15.09
12/02/2020 10:27:28	120220	12022020	102728	193.12	12.568915	-57.186737	193.23	0.030	0.370	1.720	193.16	-1.10	2.30	 	 	 	 	 	 	 	 	 	 	 	 	 	 	 	 	 	 	1581503248	8.29	15.35
12/02/2020 10:27:29	120220	12022020	102729	193.26	12.568878	-57.186750	193.37	0.190	-0.020	1.870	193.28	-1.50	2.40	 	 	 	 	 	 	 	 	 	 	 	 	 	 	 	 	 	 	1581503249	8.47	15.69
12/02/2020 10:27:30	120220	12022020	102730	193.27	12.568840	-57.186762	193.35	0.290	-0.470	1.910	193.26	-2.00	2.40	 	 	 	 	 	 	 	 	 	 	 	 	 	 	 	 	 	 	1581503250	8.50	15.74
12/02/2020 10:27:31	120220	12022020	102731	193.12	12.568803	-57.186773	193.19	0.280	-0.690	1.970	193.08	-2.10	2.50	 	 	 	 	 	 	 	 	 	 	 	 	 	 	 	 	 	 	1581503251	8.43	15.61
12/02/2020 10:27:32	120220	12022020	102732	192.89	12.568767	-57.186783	192.97	0.160	-0.690	2.110	192.86	-2.10	2.60	 	 	 	 	 	 	 	 	 	 	 	 	 	 	 	 	 	 	1581503252	8.18	15.15
12/02/2020 10:27:33	120220	12022020	102733	192.76	12.568732	-57.186797	192.84	-0.040	-0.590	2.090	192.75	-2.00	2.60	 	 	 	 	 	 	 	 	 	 	 	 	 	 	 	 	 	 	1581503253	8.05	14.91
12/02/2020 10:27:34	120220	12022020	102734	192.75	12.568695	-57.186808	192.83	-0.180	-0.480	1.990	192.75	-1.90	2.40	 	 	 	 	 	 	 	 	 	 	 	 	 	 	 	 	 	 	1581503254	8.05	14.91
12/02/2020 10:27:35	120220	12022020	102735	192.76	12.568660	-57.186822	192.83	-0.090	-0.410	1.820	192.75	-1.80	2.30	 	 	 	 	 	 	 	 	 	 	 	 	 	 	 	 	 	 	1581503255	8.11	15.02
12/02/2020 10:27:36	120220	12022020	102736	192.68	12.568623	-57.186833	192.75	0.220	-0.420	1.610	192.65	-1.80	2.10	 	 	 	 	 	 	 	 	 	 	 	 	 	 	 	 	 	 	1581503256	8.22	15.22
12/02/2020 10:27:37	120220	12022020	102737	192.50	12.568585	-57.186842	192.58	0.460	-0.460	1.510	192.48	-1.90	2.00	 	 	 	 	 	 	 	 	 	 	 	 	 	 	 	 	 	 	1581503257	8.41	15.58
12/02/2020 10:27:38	120220	12022020	102738	192.41	12.568547	-57.186850	192.50	0.360	-0.440	1.530	192.42	-1.80	2.00	 	 	 	 	 	 	 	 	 	 	 	 	 	 	 	 	 	 	1581503258	8.56	15.85
12/02/2020 10:27:39	120220	12022020	102739	192.50	12.568508	-57.186860	192.61	-0.040	-0.200	1.660	192.54	-1.50	2.20	 	 	 	 	 	 	 	 	 	 	 	 	 	 	 	 	 	 	1581503259	8.51	15.76
12/02/2020 10:27:40	120220	12022020	102740	192.65	12.568472	-57.186872	192.77	-0.450	0.110	1.880	192.67	-1.20	2.40	 	 	 	 	 	 	 	 	 	 	 	 	 	 	 	 	 	 	1581503260	8.26	15.30
12/02/2020 10:27:41	120220	12022020	102741	192.78	12.568435	-57.186883	192.97	-0.640	0.250	2.130	192.83	-1.20	2.70	 	 	 	 	 	 	 	 	 	 	 	 	 	 	 	 	 	 	1581503261	8.19	15.17
12/02/2020 10:27:42	120220	12022020	102742	193.12	12.568398	-57.186897	193.26	-0.660	0.180	2.370	193.17	-1.30	2.90	 	 	 	 	 	 	 	 	 	 	 	 	 	 	 	 	 	 	1581503262	8.35	15.46
12/02/2020 10:27:43	120220	12022020	102743	193.28	12.568363	-57.186913	193.40	-0.590	-0.050	2.620	193.29	-1.50	3.10	 	 	 	 	 	 	 	 	 	 	 	 	 	 	 	 	 	 	1581503263	8.43	15.61
12/02/2020 10:27:44	120220	12022020	102744	193.14	12.568327	-57.186930	193.20	-0.320	-0.390	2.840	193.07	-1.90	3.30	 	 	 	 	 	 	 	 	 	 	 	 	 	 	 	 	 	 	1581503264	8.51	15.76
12/02/2020 10:27:45	120220	12022020	102745	192.73	12.568290	-57.186945	192.77	0.260	-0.660	2.740	192.64	-2.10	3.10	 	 	 	 	 	 	 	 	 	 	 	 	 	 	 	 	 	 	1581503265	8.58	15.89
12/02/2020 10:27:46	120220	12022020	102746	192.39	12.568252	-57.186957	192.46	0.910	-0.530	2.210	192.36	-1.90	2.50	 	 	 	 	 	 	 	 	 	 	 	 	 	 	 	 	 	 	1581503266	8.46	15.67
12/02/2020 10:27:47	120220	12022020	102747	192.43	12.568215	-57.186962	192.53	1.120	-0.130	1.430	192.49	-1.50	1.70	 	 	 	 	 	 	 	 	 	 	 	 	 	 	 	 	 	 	1581503267	8.08	14.96
12/02/2020 10:27:48	120220	12022020	102748	192.80	12.568178	-57.186963	192.89	0.710	0.090	0.820	192.88	-1.40	1.20	 	 	 	 	 	 	 	 	 	 	 	 	 	 	 	 	 	 	1581503268	7.83	14.50
12/02/2020 10:27:49	120220	12022020	102749	193.10	12.568142	-57.186970	193.16	0.000	-0.190	0.820	193.12	-1.70	1.40	 	 	 	 	 	 	 	 	 	 	 	 	 	 	 	 	 	 	1581503269	7.93	14.69
12/02/2020 10:27:50	120220	12022020	102750	193.08	12.568105	-57.186982	193.13	-0.490	-0.670	1.500	193.03	-2.20	2.20	 	 	 	 	 	 	 	 	 	 	 	 	 	 	 	 	 	 	1581503270	8.40	15.56
12/02/2020 10:27:51	120220	12022020	102751	192.76	12.568067	-57.186998	192.82	-0.550	-1.020	2.420	192.67	-2.50	3.10	 	 	 	 	 	 	 	 	 	 	 	 	 	 	 	 	 	 	1581503271	8.79	16.28
12/02/2020 10:27:52	120220	12022020	102752	192.32	12.568030	-57.187017	192.38	-0.340	-0.990	3.220	192.23	-2.30	3.80	 	 	 	 	 	 	 	 	 	 	 	 	 	 	 	 	 	 	1581503272	8.86	16.41
12/02/2020 10:27:53	120220	12022020	102753	191.94	12.567993	-57.187033	192.06	-0.170	-0.610	3.510	191.91	-1.90	3.90	 	 	 	 	 	 	 	 	 	 	 	 	 	 	 	 	 	 	1581503273	8.64	16.00
12/02/2020 10:27:54	120220	12022020	102754	191.94	12.567957	-57.187047	192.11	-0.220	-0.000	3.050	191.99	-1.30	3.30	 	 	 	 	 	 	 	 	 	 	 	 	 	 	 	 	 	 	1581503274	8.32	15.41
12/02/2020 10:27:55	120220	12022020	102755	192.28	12.567922	-57.187057	192.44	-0.380	0.540	2.250	192.37	-0.80	2.50	 	 	 	 	 	 	 	 	 	 	 	 	 	 	 	 	 	 	1581503275	7.96	14.74
12/02/2020 10:27:56	120220	12022020	102756	192.65	12.567887	-57.187067	192.77	-0.330	0.660	1.430	192.70	-0.80	1.80	 	 	 	 	 	 	 	 	 	 	 	 	 	 	 	 	 	 	1581503276	7.89	14.61
12/02/2020 10:27:57	120220	12022020	102757	192.87	12.567848	-57.187073	192.97	0.030	0.270	0.820	192.91	-1.30	1.20	 	 	 	 	 	 	 	 	 	 	 	 	 	 	 	 	 	 	1581503277	8.21	15.20
12/02/2020 10:27:58	120220	12022020	102758	193.07	12.567810	-57.187082	193.15	0.450	-0.320	0.530	193.11	-1.80	1.00	 	 	 	 	 	 	 	 	 	 	 	 	 	 	 	 	 	 	1581503278	8.64	16.00
12/02/2020 10:27:59	120220	12022020	102759	193.22	12.567770	-57.187092	193.30	0.620	-0.610	0.630	193.25	-2.00	1.20	 	 	 	 	 	 	 	 	 	 	 	 	 	 	 	 	 	 	1581503279	8.65	16.02
12/02/2020 10:28:00	120220	12022020	102800	193.29	12.567733	-57.187102	193.35	0.490	-0.550	1.080	193.27	-1.90	1.70	 	 	 	 	 	 	 	 	 	 	 	 	 	 	 	 	 	 	1581503280	8.21	15.20
12/02/2020 10:28:01	120220	12022020	102801	193.08	12.567698	-57.187113	193.12	0.300	-0.540	1.830	193.00	-2.00	2.50	1015.30	26.20	26.30	20.10	20.30	25.0	69.0	69.0	398.0	25.9	261.00	10.90	74.00	12.30	1951	9291.0	27.5	27.5	1581503281	7.93	14.69
12/02/2020 10:28:02	120220	12022020	102802	192.61	12.567662	-57.187127	192.66	0.150	-0.670	2.600	192.53	-2.10	3.20	 	 	 	 	 	 	 	 	 	 	 	 	 	 	 	 	 	 	1581503282	8.23	15.24
12/02/2020 10:28:03	120220	12022020	102803	192.31	12.567625	-57.187140	192.40	-0.160	-0.520	3.040	192.29	-1.80	3.50	 	 	 	 	 	 	 	 	 	 	 	 	 	 	 	 	 	 	1581503283	8.54	15.82
12/02/2020 10:28:04	120220	12022020	102804	192.31	12.567588	-57.187155	192.44	-0.600	-0.120	3.080	192.34	-1.40	3.50	 	 	 	 	 	 	 	 	 	 	 	 	 	 	 	 	 	 	1581503284	8.26	15.30
12/02/2020 10:28:05	120220	12022020	102805	192.48	12.567555	-57.187170	192.62	-0.840	0.140	2.740	192.52	-1.30	3.10	 	 	 	 	 	 	 	 	 	 	 	 	 	 	 	 	 	 	1581503285	8.04	14.89
12/02/2020 10:28:06	120220	12022020	102806	192.70	12.567520	-57.187183	192.84	-0.600	0.040	2.080	192.75	-1.40	2.40	 	 	 	 	 	 	 	 	 	 	 	 	 	 	 	 	 	 	1581503286	8.18	15.15
12/02/2020 10:28:07	120220	12022020	102807	192.91	12.567482	-57.187195	193.02	-0.030	-0.290	1.370	192.94	-1.80	1.70	 	 	 	 	 	 	 	 	 	 	 	 	 	 	 	 	 	 	1581503287	8.42	15.59
12/02/2020 10:28:08	120220	12022020	102808	192.98	12.567442	-57.187203	193.05	0.480	-0.700	0.870	192.97	-2.20	1.30	 	 	 	 	 	 	 	 	 	 	 	 	 	 	 	 	 	 	1581503288	8.63	15.98
12/02/2020 10:28:09	120220	12022020	102809	192.80	12.567403	-57.187212	192.82	0.720	-0.930	0.840	192.73	-2.30	1.40	 	 	 	 	 	 	 	 	 	 	 	 	 	 	 	 	 	 	1581503289	8.73	16.17
12/02/2020 10:28:10	120220	12022020	102810	192.52	12.567363	-57.187222	192.58	0.570	-0.650	1.090	192.50	-1.90	1.60	 	 	 	 	 	 	 	 	 	 	 	 	 	 	 	 	 	 	1581503290	8.60	15.93
12/02/2020 10:28:11	120220	12022020	102811	192.58	12.567327	-57.187232	192.69	0.050	0.170	1.340	192.62	-1.00	1.90	 	 	 	 	 	 	 	 	 	 	 	 	 	 	 	 	 	 	1581503291	8.10	15.00
12/02/2020 10:28:12	120220	12022020	102812	192.87	12.567293	-57.187242	192.99	-0.520	0.830	1.560	192.94	-0.50	2.10	 	 	 	 	 	 	 	 	 	 	 	 	 	 	 	 	 	 	1581503292	7.55	13.98
12/02/2020 10:28:13	120220	12022020	102813	193.17	12.567260	-57.187255	193.28	-0.750	0.670	1.730	193.21	-0.90	2.20	 	 	 	 	 	 	 	 	 	 	 	 	 	 	 	 	 	 	1581503293	7.82	14.48
12/02/2020 10:28:14	120220	12022020	102814	193.28	12.567223	-57.187270	193.37	-0.510	-0.060	1.930	193.27	-1.70	2.50	 	 	 	 	 	 	 	 	 	 	 	 	 	 	 	 	 	 	1581503294	8.58	15.89
12/02/2020 10:28:15	120220	12022020	102815	193.16	12.567183	-57.187285	193.23	-0.020	-0.800	2.190	193.11	-2.30	2.70	 	 	 	 	 	 	 	 	 	 	 	 	 	 	 	 	 	 	1581503295	9.00	16.67
12/02/2020 10:28:16	120220	12022020	102816	192.78	12.567145	-57.187298	192.82	0.420	-1.120	2.380	192.67	-2.50	2.90	 	 	 	 	 	 	 	 	 	 	 	 	 	 	 	 	 	 	1581503296	8.87	16.43
12/02/2020 10:28:17	120220	12022020	102817	192.22	12.567107	-57.187310	192.26	0.630	-0.890	2.500	192.12	-2.20	2.90	 	 	 	 	 	 	 	 	 	 	 	 	 	 	 	 	 	 	1581503297	8.45	15.65
12/02/2020 10:28:18	120220	12022020	102818	191.93	12.567072	-57.187320	192.03	0.480	-0.280	2.340	191.93	-1.50	2.70	 	 	 	 	 	 	 	 	 	 	 	 	 	 	 	 	 	 	1581503298	8.02	14.85
12/02/2020 10:28:19	120220	12022020	102819	192.02	12.567037	-57.187330	192.19	0.020	0.270	2.080	192.06	-1.10	2.50	 	 	 	 	 	 	 	 	 	 	 	 	 	 	 	 	 	 	1581503299	7.69	14.24
12/02/2020 10:28:20	120220	12022020	102820	192.28	12.567002	-57.187340	192.37	-0.380	0.250	1.930	192.30	-1.30	2.40	 	 	 	 	 	 	 	 	 	 	 	 	 	 	 	 	 	 	1581503300	7.77	14.39
12/02/2020 10:28:21	120220	12022020	102821	192.27	12.566965	-57.187355	192.34	-0.320	-0.390	1.880	192.25	-2.00	2.30	 	 	 	 	 	 	 	 	 	 	 	 	 	 	 	 	 	 	1581503301	8.46	15.67
12/02/2020 10:28:22	120220	12022020	102822	192.11	12.566925	-57.187368	192.20	0.130	-0.970	1.820	192.10	-2.40	2.30	 	 	 	 	 	 	 	 	 	 	 	 	 	 	 	 	 	 	1581503302	9.11	16.87
12/02/2020 10:28:23	120220	12022020	102823	192.15	12.566885	-57.187380	192.27	0.400	-0.760	1.670	192.20	-2.00	2.10	 	 	 	 	 	 	 	 	 	 	 	 	 	 	 	 	 	 	1581503303	8.97	16.61
12/02/2020 10:28:24	120220	12022020	102824	192.52	12.566848	-57.187388	192.66	0.150	0.050	1.350	192.61	-1.20	1.80	 	 	 	 	 	 	 	 	 	 	 	 	 	 	 	 	 	 	1581503304	8.04	14.89
12/02/2020 10:28:25	120220	12022020	102825	192.96	12.566815	-57.187397	193.08	-0.390	0.570	1.150	193.04	-0.80	1.60	 	 	 	 	 	 	 	 	 	 	 	 	 	 	 	 	 	 	1581503305	7.41	13.72
12/02/2020 10:28:26	120220	12022020	102826	193.22	12.566780	-57.187407	193.30	-0.650	0.280	1.370	193.23	-1.30	1.90	 	 	 	 	 	 	 	 	 	 	 	 	 	 	 	 	 	 	1581503306	7.78	14.41
12/02/2020 10:28:27	120220	12022020	102827	193.15	12.566742	-57.187422	193.21	-0.300	-0.520	1.770	193.10	-2.10	2.30	 	 	 	 	 	 	 	 	 	 	 	 	 	 	 	 	 	 	1581503307	8.70	16.11
12/02/2020 10:28:28	120220	12022020	102828	192.80	12.566702	-57.187437	192.84	0.380	-1.030	2.210	192.71	-2.50	2.80	 	 	 	 	 	 	 	 	 	 	 	 	 	 	 	 	 	 	1581503308	9.15	16.95
12/02/2020 10:28:29	120220	12022020	102829	192.37	12.566663	-57.187448	192.43	0.650	-0.910	2.640	192.29	-2.20	3.20	 	 	 	 	 	 	 	 	 	 	 	 	 	 	 	 	 	 	1581503309	8.82	16.33
12/02/2020 10:28:30	120220	12022020	102830	192.03	12.566627	-57.187460	192.10	0.220	-0.420	2.860	191.95	-1.70	3.40	 	 	 	 	 	 	 	 	 	 	 	 	 	 	 	 	 	 	1581503310	8.24	15.26
12/02/2020 10:28:31	120220	12022020	102831	191.71	12.566592	-57.187473	191.67	-0.400	-0.010	3.070	191.62	-1.40	3.60	 	 	 	 	 	 	 	 	 	 	 	 	 	 	 	 	 	 	1581503311	8.02	14.85
12/02/2020 10:28:32	120220	12022020	102832	191.22	12.566557	-57.187492	191.29	-0.490	0.270	3.010	191.17	-1.10	3.30	 	 	 	 	 	 	 	 	 	 	 	 	 	 	 	 	 	 	1581503312	8.35	15.46
12/02/2020 10:28:33	120220	12022020	102833	191.19	12.566522	-57.187505	191.37	-0.020	0.580	2.210	191.25	-0.80	2.40	 	 	 	 	 	 	 	 	 	 	 	 	 	 	 	 	 	 	1581503313	8.33	15.43
12/02/2020 10:28:34	120220	12022020	102834	191.84	12.566485	-57.187512	191.99	0.420	0.630	1.180	191.99	-0.90	1.40	 	 	 	 	 	 	 	 	 	 	 	 	 	 	 	 	 	 	1581503314	7.99	14.80
12/02/2020 10:28:35	120220	12022020	102835	192.55	12.566447	-57.187518	192.65	0.460	0.080	0.480	192.66	-1.50	0.90	 	 	 	 	 	 	 	 	 	 	 	 	 	 	 	 	 	 	1581503315	8.06	14.93
12/02/2020 10:28:36	120220	12022020	102836	192.93	12.566408	-57.187525	192.98	0.270	-0.840	0.450	192.95	-2.40	1.00	 	 	 	 	 	 	 	 	 	 	 	 	 	 	 	 	 	 	1581503316	8.42	15.59
12/02/2020 10:28:37	120220	12022020	102837	192.95	12.566370	-57.187537	193.00	0.140	-1.470	0.980	192.93	-2.90	1.60	 	 	 	 	 	 	 	 	 	 	 	 	 	 	 	 	 	 	1581503317	8.73	16.17
12/02/2020 10:28:38	120220	12022020	102838	192.78	12.566333	-57.187550	192.82	0.100	-1.470	1.740	192.72	-2.80	2.40	 	 	 	 	 	 	 	 	 	 	 	 	 	 	 	 	 	 	1581503318	8.50	15.74
12/02/2020 10:28:39	120220	12022020	102839	192.39	12.566298	-57.187565	192.40	0.070	-1.130	2.500	192.27	-2.40	3.10	 	 	 	 	 	 	 	 	 	 	 	 	 	 	 	 	 	 	1581503319	8.12	15.04
12/02/2020 10:28:40	120220	12022020	102840	191.78	12.566262	-57.187580	191.80	0.000	-0.760	3.110	191.65	-2.10	3.70	 	 	 	 	 	 	 	 	 	 	 	 	 	 	 	 	 	 	1581503320	8.21	15.20
12/02/2020 10:28:41	120220	12022020	102841	191.16	12.566225	-57.187593	191.21	-0.190	-0.330	3.510	191.05	-1.60	4.00	 	 	 	 	 	 	 	 	 	 	 	 	 	 	 	 	 	 	1581503321	8.53	15.80
12/02/2020 10:28:42	120220	12022020	102842	190.75	12.566187	-57.187607	190.84	-0.480	0.320	3.470	190.71	-0.90	3.80	 	 	 	 	 	 	 	 	 	 	 	 	 	 	 	 	 	 	1581503322	8.60	15.93
12/02/2020 10:28:43	120220	12022020	102843	190.74	12.566150	-57.187620	190.88	-0.730	1.040	2.940	190.80	-0.20	3.20	 	 	 	 	 	 	 	 	 	 	 	 	 	 	 	 	 	 	1581503323	8.28	15.33
12/02/2020 10:28:44	120220	12022020	102844	191.13	12.566115	-57.187630	191.29	-0.700	1.380	2.110	191.24	-0.10	2.40	 	 	 	 	 	 	 	 	 	 	 	 	 	 	 	 	 	 	1581503324	7.95	14.72
12/02/2020 10:28:45	120220	12022020	102845	191.70	12.566080	-57.187640	191.85	-0.270	1.030	1.160	191.82	-0.60	1.40	 	 	 	 	 	 	 	 	 	 	 	 	 	 	 	 	 	 	1581503325	8.01	14.83
12/02/2020 10:28:46	120220	12022020	102846	192.23	12.566042	-57.187648	192.34	0.420	0.100	0.400	192.31	-1.60	0.80	 	 	 	 	 	 	 	 	 	 	 	 	 	 	 	 	 	 	1581503326	8.37	15.50
12/02/2020 10:28:47	120220	12022020	102847	192.49	12.566002	-57.187655	192.56	0.980	-0.920	0.160	192.50	-2.50	0.70	 	 	 	 	 	 	 	 	 	 	 	 	 	 	 	 	 	 	1581503327	8.68	16.08
12/02/2020 10:28:48	120220	12022020	102848	192.49	12.565962	-57.187663	192.55	1.050	-1.540	0.480	192.47	-3.00	1.10	 	 	 	 	 	 	 	 	 	 	 	 	 	 	 	 	 	 	1581503328	8.61	15.95
12/02/2020 10:28:49	120220	12022020	102849	192.40	12.565925	-57.187675	192.48	0.600	-1.500	1.290	192.38	-2.80	2.00	 	 	 	 	 	 	 	 	 	 	 	 	 	 	 	 	 	 	1581503329	8.21	15.20
12/02/2020 10:28:50	120220	12022020	102850	192.29	12.565892	-57.187690	192.39	-0.020	-1.060	2.100	192.27	-2.40	2.70	 	 	 	 	 	 	 	 	 	 	 	 	 	 	 	 	 	 	1581503330	7.82	14.48
12/02/2020 10:28:51	120220	12022020	102851	192.17	12.565858	-57.187703	192.26	-0.420	-0.710	2.560	192.13	-2.10	3.10	 	 	 	 	 	 	 	 	 	 	 	 	 	 	 	 	 	 	1581503331	7.76	14.37
12/02/2020 10:28:52	120220	12022020	102852	191.88	12.565823	-57.187717	191.95	-0.470	-0.740	2.850	191.78	-2.20	3.40	 	 	 	 	 	 	 	 	 	 	 	 	 	 	 	 	 	 	1581503332	8.20	15.19
12/02/2020 10:28:53	120220	12022020	102853	191.34	12.565783	-57.187730	191.42	-0.320	-0.840	3.170	191.24	-2.20	3.70	 	 	 	 	 	 	 	 	 	 	 	 	 	 	 	 	 	 	1581503333	8.92	16.52
12/02/2020 10:28:54	120220	12022020	102854	190.97	12.565743	-57.187743	191.09	-0.320	-0.360	3.320	190.95	-1.50	3.70	 	 	 	 	 	 	 	 	 	 	 	 	 	 	 	 	 	 	1581503334	9.19	17.02
12/02/2020 10:28:55	120220	12022020	102855	191.02	12.565705	-57.187757	191.27	-0.530	0.840	3.050	191.09	-0.30	3.30	 	 	 	 	 	 	 	 	 	 	 	 	 	 	 	 	 	 	1581503335	8.56	15.85
12/02/2020 10:28:56	120220	12022020	102856	191.77	12.565672	-57.187767	191.96	-0.740	1.960	2.300	191.95	0.70	2.50	 	 	 	 	 	 	 	 	 	 	 	 	 	 	 	 	 	 	1581503336	7.57	14.02
12/02/2020 10:28:57	120220	12022020	102857	192.51	12.565638	-57.187777	192.83	-0.640	1.880	1.520	192.67	0.20	1.80	 	 	 	 	 	 	 	 	 	 	 	 	 	 	 	 	 	 	1581503337	7.33	13.58
12/02/2020 10:28:58	120220	12022020	102858	193.22	12.565602	-57.187787	193.31	-0.030	0.470	1.100	193.25	-1.40	1.50	 	 	 	 	 	 	 	 	 	 	 	 	 	 	 	 	 	 	1581503338	8.22	15.22
12/02/2020 10:28:59	120220	12022020	102859	193.09	12.565562	-57.187798	193.11	0.860	-1.200	1.150	193.00	-2.90	1.70	 	 	 	 	 	 	 	 	 	 	 	 	 	 	 	 	 	 	1581503339	9.19	17.02
12/02/2020 10:29:00	120220	12022020	102900	192.58	12.565520	-57.187810	192.60	1.450	-1.940	1.430	192.49	-3.30	1.90	 	 	 	 	 	 	 	 	 	 	 	 	 	 	 	 	 	 	1581503340	9.19	17.02
12/02/2020 10:29:01	120220	12022020	102901	192.26	12.565483	-57.187820	192.33	1.240	-1.450	1.530	192.25	-2.60	2.00	1015.30	26.30	26.30	19.90	20.00	26.0	68.0	68.0	398.0	25.9	257.00	10.20	69.00	11.90	2097	9656.0	27.5	27.5	1581503341	8.20	15.19
12/02/2020 10:29:02	120220	12022020	102902	192.32	12.565450	-57.187828	192.41	0.400	-0.510	1.490	192.36	-1.80	1.90	 	 	 	 	 	 	 	 	 	 	 	 	 	 	 	 	 	 	1581503342	7.13	13.20
12/02/2020 10:29:03	120220	12022020	102903	192.49	12.565420	-57.187838	192.59	-0.420	-0.100	1.550	192.53	-1.50	2.00	 	 	 	 	 	 	 	 	 	 	 	 	 	 	 	 	 	 	1581503343	7.05	13.06
12/02/2020 10:29:04	120220	12022020	102904	192.59	12.565385	-57.187850	192.67	-0.700	-0.400	1.720	192.59	-1.90	2.20	 	 	 	 	 	 	 	 	 	 	 	 	 	 	 	 	 	 	1581503344	7.97	14.76
12/02/2020 10:29:05	120220	12022020	102905	192.56	12.565345	-57.187865	192.62	-0.510	-0.910	1.970	192.54	-2.40	2.50	 	 	 	 	 	 	 	 	 	 	 	 	 	 	 	 	 	 	1581503345	8.91	16.50
12/02/2020 10:29:06	120220	12022020	102906	192.42	12.565305	-57.187880	192.48	-0.240	-1.070	2.330	192.37	-2.40	2.90	 	 	 	 	 	 	 	 	 	 	 	 	 	 	 	 	 	 	1581503346	9.18	17.00
12/02/2020 10:29:07	120220	12022020	102907	192.11	12.565267	-57.187893	192.17	-0.150	-0.740	2.640	192.03	-2.00	3.10	 	 	 	 	 	 	 	 	 	 	 	 	 	 	 	 	 	 	1581503347	8.90	16.48
12/02/2020 10:29:08	120220	12022020	102908	191.67	12.565228	-57.187907	191.74	-0.230	-0.090	2.720	191.60	-1.30	3.20	 	 	 	 	 	 	 	 	 	 	 	 	 	 	 	 	 	 	1581503348	8.55	15.83
12/02/2020 10:29:09	120220	12022020	102909	191.40	12.565192	-57.187918	191.50	-0.420	0.730	2.590	191.40	-0.50	3.00	 	 	 	 	 	 	 	 	 	 	 	 	 	 	 	 	 	 	1581503349	8.30	15.37
12/02/2020 10:29:10	120220	12022020	102910	191.48	12.565157	-57.187928	191.62	-0.570	1.530	2.250	191.53	0.20	2.60	 	 	 	 	 	 	 	 	 	 	 	 	 	 	 	 	 	 	1581503350	7.97	14.76
12/02/2020 10:29:11	120220	12022020	102911	191.84	12.565122	-57.187940	191.98	-0.500	1.840	1.630	191.93	0.40	1.90	 	 	 	 	 	 	 	 	 	 	 	 	 	 	 	 	 	 	1581503351	7.64	14.15
12/02/2020 10:29:12	120220	12022020	102912	192.35	12.565088	-57.187950	192.48	-0.100	1.230	0.920	192.44	-0.50	1.20	 	 	 	 	 	 	 	 	 	 	 	 	 	 	 	 	 	 	1581503352	7.75	14.35
12/02/2020 10:29:13	120220	12022020	102913	192.80	12.565050	-57.187960	192.90	0.560	-0.120	0.410	192.88	-1.90	0.80	 	 	 	 	 	 	 	 	 	 	 	 	 	 	 	 	 	 	1581503353	8.32	15.41
12/02/2020 10:29:14	120220	12022020	102914	193.14	12.565012	-57.187970	193.22	1.170	-1.420	0.140	193.18	-3.10	0.60	 	 	 	 	 	 	 	 	 	 	 	 	 	 	 	 	 	 	1581503354	8.70	16.11
12/02/2020 10:29:15	120220	12022020	102915	193.26	12.564973	-57.187978	193.31	1.370	-2.170	0.270	193.23	-3.70	0.80	 	 	 	 	 	 	 	 	 	 	 	 	 	 	 	 	 	 	1581503355	8.43	15.61
12/02/2020 10:29:16	120220	12022020	102916	192.92	12.564937	-57.187987	192.93	1.130	-2.460	0.970	192.77	-3.90	1.70	 	 	 	 	 	 	 	 	 	 	 	 	 	 	 	 	 	 	1581503356	8.03	14.87
12/02/2020 10:29:17	120220	12022020	102917	192.08	12.564900	-57.187998	192.08	0.640	-2.330	2.160	191.87	-3.60	2.90	 	 	 	 	 	 	 	 	 	 	 	 	 	 	 	 	 	 	1581503357	8.13	15.06
12/02/2020 10:29:18	120220	12022020	102918	191.15	12.564863	-57.188013	191.20	-0.040	-1.530	3.280	191.02	-2.60	3.90	 	 	 	 	 	 	 	 	 	 	 	 	 	 	 	 	 	 	1581503358	8.48	15.70
12/02/2020 10:29:19	120220	12022020	102919	190.82	12.564827	-57.188028	190.99	-0.940	0.070	3.660	190.86	-0.90	4.10	 	 	 	 	 	 	 	 	 	 	 	 	 	 	 	 	 	 	1581503359	8.40	15.56
12/02/2020 10:29:20	120220	12022020	102920	191.50	12.564793	-57.188043	191.57	-1.860	1.650	3.370	191.50	0.50	3.70	 	 	 	 	 	 	 	 	 	 	 	 	 	 	 	 	 	 	1581503360	7.78	14.41
12/02/2020 10:29:21	120220	12022020	102921	191.99	12.564762	-57.188058	192.31	-2.260	2.120	2.880	192.12	0.60	3.20	 	 	 	 	 	 	 	 	 	 	 	 	 	 	 	 	 	 	1581503361	7.79	14.43
12/02/2020 10:29:22	120220	12022020	102922	192.64	12.564723	-57.188075	192.77	-1.660	1.420	2.270	192.71	-0.20	2.50	 	 	 	 	 	 	 	 	 	 	 	 	 	 	 	 	 	 	1581503362	8.72	16.15
12/02/2020 10:29:23	120220	12022020	102923	192.93	12.564683	-57.188090	193.09	-0.350	0.510	1.400	192.99	-1.10	1.60	 	 	 	 	 	 	 	 	 	 	 	 	 	 	 	 	 	 	1581503363	9.39	17.39
12/02/2020 10:29:24	120220	12022020	102924	193.25	12.564643	-57.188100	193.31	0.910	0.060	0.520	193.28	-1.40	0.80	 	 	 	 	 	 	 	 	 	 	 	 	 	 	 	 	 	 	1581503364	8.90	16.48
12/02/2020 10:29:25	120220	12022020	102925	193.33	12.564607	-57.188107	193.35	1.620	-0.160	-0.020	193.31	-1.60	0.40	 	 	 	 	 	 	 	 	 	 	 	 	 	 	 	 	 	 	1581503365	8.00	14.82
12/02/2020 10:29:26	120220	12022020	102926	193.10	12.564572	-57.188112	193.10	1.750	-0.560	-0.080	193.03	-2.10	0.40	 	 	 	 	 	 	 	 	 	 	 	 	 	 	 	 	 	 	1581503366	7.60	14.08
12/02/2020 10:29:27	120220	12022020	102927	192.68	12.564535	-57.188117	192.69	1.410	-1.110	0.370	192.61	-2.60	1.00	 	 	 	 	 	 	 	 	 	 	 	 	 	 	 	 	 	 	1581503367	7.86	14.56
12/02/2020 10:29:28	120220	12022020	102928	192.40	12.564498	-57.188127	192.48	0.730	-1.310	1.200	192.38	-2.70	1.80	 	 	 	 	 	 	 	 	 	 	 	 	 	 	 	 	 	 	1581503368	8.10	15.00
12/02/2020 10:29:29	120220	12022020	102929	192.38	12.564465	-57.188142	192.48	-0.070	-1.010	1.920	192.37	-2.30	2.50	 	 	 	 	 	 	 	 	 	 	 	 	 	 	 	 	 	 	1581503369	7.98	14.78
12/02/2020 10:29:30	120220	12022020	102930	192.27	12.564432	-57.188157	192.35	-0.650	-0.660	2.530	192.21	-2.00	3.10	 	 	 	 	 	 	 	 	 	 	 	 	 	 	 	 	 	 	1581503370	7.82	14.48
12/02/2020 10:29:31	120220	12022020	102931	192.01	12.564398	-57.188175	192.13	-0.840	-0.580	3.010	191.99	-2.00	3.50	 	 	 	 	 	 	 	 	 	 	 	 	 	 	 	 	 	 	1581503371	8.19	15.17
12/02/2020 10:29:32	120220	12022020	102932	191.97	12.564362	-57.188192	192.09	-0.750	-0.490	3.020	191.97	-1.90	3.40	 	 	 	 	 	 	 	 	 	 	 	 	 	 	 	 	 	 	1581503372	8.60	15.93
12/02/2020 10:29:33	120220	12022020	102933	191.98	12.564325	-57.188207	192.07	-0.540	-0.270	2.690	191.96	-1.60	3.00	 	 	 	 	 	 	 	 	 	 	 	 	 	 	 	 	 	 	1581503373	8.52	15.78
12/02/2020 10:29:34	120220	12022020	102934	191.86	12.564288	-57.188220	191.91	-0.270	-0.010	2.240	191.82	-1.40	2.60	 	 	 	 	 	 	 	 	 	 	 	 	 	 	 	 	 	 	1581503374	8.33	15.43
12/02/2020 10:29:35	120220	12022020	102935	191.83	12.564250	-57.188228	191.92	0.010	0.270	1.650	191.87	-1.10	2.00	 	 	 	 	 	 	 	 	 	 	 	 	 	 	 	 	 	 	1581503375	8.29	15.35
12/02/2020 10:29:36	120220	12022020	102936	192.16	12.564213	-57.188237	192.26	0.170	0.540	1.110	192.23	-0.80	1.50	 	 	 	 	 	 	 	 	 	 	 	 	 	 	 	 	 	 	1581503376	8.16	15.11
12/02/2020 10:29:37	120220	12022020	102937	192.44	12.564177	-57.188243	192.50	0.220	0.520	0.850	192.44	-1.00	1.30	 	 	 	 	 	 	 	 	 	 	 	 	 	 	 	 	 	 	1581503377	7.93	14.69
12/02/2020 10:29:38	120220	12022020	102938	192.29	12.564140	-57.188252	192.34	0.310	-0.040	1.040	192.23	-1.60	1.60	 	 	 	 	 	 	 	 	 	 	 	 	 	 	 	 	 	 	1581503378	8.13	15.06
12/02/2020 10:29:39	120220	12022020	102939	192.01	12.564102	-57.188263	192.06	0.380	-0.580	1.530	191.97	-2.00	2.10	 	 	 	 	 	 	 	 	 	 	 	 	 	 	 	 	 	 	1581503379	8.62	15.96
12/02/2020 10:29:40	120220	12022020	102940	191.80	12.564063	-57.188277	191.84	0.320	-0.570	2.050	191.76	-1.90	2.60	 	 	 	 	 	 	 	 	 	 	 	 	 	 	 	 	 	 	1581503380	8.49	15.72
12/02/2020 10:29:41	120220	12022020	102941	191.69	12.564030	-57.188290	191.77	0.110	-0.160	2.310	191.71	-1.50	2.80	 	 	 	 	 	 	 	 	 	 	 	 	 	 	 	 	 	 	1581503381	7.87	14.58
12/02/2020 10:29:42	120220	12022020	102942	191.88	12.563998	-57.188303	191.99	-0.090	0.180	2.220	191.94	-1.20	2.60	 	 	 	 	 	 	 	 	 	 	 	 	 	 	 	 	 	 	1581503382	7.49	13.87
12/02/2020 10:29:43	120220	12022020	102943	192.19	12.563965	-57.188315	192.26	-0.010	0.020	1.920	192.22	-1.50	2.30	 	 	 	 	 	 	 	 	 	 	 	 	 	 	 	 	 	 	1581503383	7.53	13.95
12/02/2020 10:29:44	120220	12022020	102944	192.26	12.563928	-57.188325	192.29	0.400	-0.720	1.650	192.23	-2.30	2.10	 	 	 	 	 	 	 	 	 	 	 	 	 	 	 	 	 	 	1581503384	8.05	14.91
12/02/2020 10:29:45	120220	12022020	102945	192.11	12.563890	-57.188335	192.08	0.780	-1.430	1.590	192.06	-2.90	2.10	 	 	 	 	 	 	 	 	 	 	 	 	 	 	 	 	 	 	1581503385	8.71	16.13
12/02/2020 10:29:46	120220	12022020	102946	191.84	12.563850	-57.188343	191.89	0.630	-1.410	1.850	191.82	-2.70	2.40	 	 	 	 	 	 	 	 	 	 	 	 	 	 	 	 	 	 	1581503386	8.73	16.17
12/02/2020 10:29:47	120220	12022020	102947	191.80	12.563813	-57.188353	191.88	-0.090	-0.720	2.030	191.81	-1.90	2.50	 	 	 	 	 	 	 	 	 	 	 	 	 	 	 	 	 	 	1581503387	8.13	15.06
12/02/2020 10:29:48	120220	12022020	102948	191.95	12.563780	-57.188367	192.06	-0.900	0.130	2.060	192.00	-1.10	2.50	 	 	 	 	 	 	 	 	 	 	 	 	 	 	 	 	 	 	1581503388	7.71	14.28
12/02/2020 10:29:49	120220	12022020	102949	192.21	12.563747	-57.188380	192.31	-1.240	0.610	2.020	192.26	-0.80	2.40	 	 	 	 	 	 	 	 	 	 	 	 	 	 	 	 	 	 	1581503389	7.81	14.46
12/02/2020 10:29:50	120220	12022020	102950	192.45	12.563710	-57.188397	192.52	-0.860	0.570	1.710	192.49	-0.90	2.00	 	 	 	 	 	 	 	 	 	 	 	 	 	 	 	 	 	 	1581503390	8.26	15.30
12/02/2020 10:29:51	120220	12022020	102951	192.57	12.563673	-57.188410	192.60	-0.040	0.260	1.190	192.57	-1.20	1.50	 	 	 	 	 	 	 	 	 	 	 	 	 	 	 	 	 	 	1581503391	8.58	15.89
12/02/2020 10:29:52	120220	12022020	102952	192.47	12.563633	-57.188418	192.49	0.640	-0.010	0.880	192.43	-1.40	1.30	 	 	 	 	 	 	 	 	 	 	 	 	 	 	 	 	 	 	1581503392	8.61	15.95
12/02/2020 10:29:53	120220	12022020	102953	192.23	12.563597	-57.188427	192.25	0.760	-0.140	0.870	192.20	-1.60	1.40	 	 	 	 	 	 	 	 	 	 	 	 	 	 	 	 	 	 	1581503393	8.37	15.50
12/02/2020 10:29:54	120220	12022020	102954	192.11	12.563558	-57.188435	192.15	0.400	-0.180	1.050	192.11	-1.60	1.60	 	 	 	 	 	 	 	 	 	 	 	 	 	 	 	 	 	 	1581503394	8.08	14.96
12/02/2020 10:29:55	120220	12022020	102955	192.13	12.563523	-57.188445	192.18	0.030	-0.200	1.340	192.14	-1.60	1.90	 	 	 	 	 	 	 	 	 	 	 	 	 	 	 	 	 	 	1581503395	7.89	14.61
12/02/2020 10:29:56	120220	12022020	102956	192.14	12.563490	-57.188457	192.19	0.020	-0.440	1.670	192.12	-2.00	2.20	 	 	 	 	 	 	 	 	 	 	 	 	 	 	 	 	 	 	1581503396	7.90	14.63
12/02/2020 10:29:57	120220	12022020	102957	192.03	12.563453	-57.188470	192.09	0.270	-1.010	2.040	192.00	-2.50	2.60	 	 	 	 	 	 	 	 	 	 	 	 	 	 	 	 	 	 	1581503397	8.28	15.33
12/02/2020 10:29:58	120220	12022020	102958	191.85	12.563415	-57.188483	191.91	0.370	-1.340	2.360	191.81	-2.70	2.90	 	 	 	 	 	 	 	 	 	 	 	 	 	 	 	 	 	 	1581503398	8.75	16.21
12/02/2020 10:29:59	120220	12022020	102959	191.70	12.563377	-57.188498	191.75	-0.000	-0.850	2.520	191.67	-2.00	2.90	 	 	 	 	 	 	 	 	 	 	 	 	 	 	 	 	 	 	1581503399	8.54	15.82
12/02/2020 10:30:00	120220	12022020	103000	191.68	12.563343	-57.188510	191.77	-0.690	0.130	2.320	191.71	-1.10	2.70	 	 	 	 	 	 	 	 	 	 	 	 	 	 	 	 	 	 	1581503400	7.76	14.37
12/02/2020 10:30:01	120220	12022020	103001	191.92	12.563312	-57.188523	192.01	-1.130	0.710	1.830	191.98	-0.70	2.10	1015.40	26.40	26.50	20.60	20.60	27.0	70.0	70.0	398.0	25.9	259.00	9.90	70.00	11.40	2241	9651.0	27.5	27.5	1581503401	7.41	13.72
12/02/2020 10:30:02	120220	12022020	103002	192.20	12.563277	-57.188535	192.28	-0.790	0.430	1.280	192.23	-1.10	1.60	 	 	 	 	 	 	 	 	 	 	 	 	 	 	 	 	 	 	1581503402	7.92	14.67
12/02/2020 10:30:03	120220	12022020	103003	192.22	12.563238	-57.188547	192.25	0.230	-0.310	0.900	192.19	-1.90	1.30	 	 	 	 	 	 	 	 	 	 	 	 	 	 	 	 	 	 	1581503403	8.72	16.15
12/02/2020 10:30:04	120220	12022020	103004	191.97	12.563197	-57.188555	192.02	1.060	-0.700	0.790	191.97	-2.10	1.20	 	 	 	 	 	 	 	 	 	 	 	 	 	 	 	 	 	 	1581503404	9.10	16.85
12/02/2020 10:30:05	120220	12022020	103005	191.84	12.563157	-57.188562	191.88	1.040	-0.390	0.960	191.82	-1.70	1.50	 	 	 	 	 	 	 	 	 	 	 	 	 	 	 	 	 	 	1581503405	8.56	15.85
12/02/2020 10:30:06	120220	12022020	103006	191.70	12.563122	-57.188570	191.75	0.320	0.070	1.480	191.66	-1.30	2.10	 	 	 	 	 	 	 	 	 	 	 	 	 	 	 	 	 	 	1581503406	7.76	14.37
12/02/2020 10:30:07	120220	12022020	103007	191.54	12.563088	-57.188582	191.62	-0.440	0.210	2.190	191.52	-1.20	2.80	 	 	 	 	 	 	 	 	 	 	 	 	 	 	 	 	 	 	1581503407	7.70	14.26
12/02/2020 10:30:08	120220	12022020	103008	191.45	12.563053	-57.188598	191.55	-0.680	-0.050	2.720	191.44	-1.60	3.20	 	 	 	 	 	 	 	 	 	 	 	 	 	 	 	 	 	 	1581503408	8.20	15.19
12/02/2020 10:30:09	120220	12022020	103009	191.43	12.563017	-57.188615	191.55	-0.350	-0.490	2.740	191.44	-2.00	3.10	 	 	 	 	 	 	 	 	 	 	 	 	 	 	 	 	 	 	1581503409	8.60	15.93
12/02/2020 10:30:10	120220	12022020	103010	191.63	12.562980	-57.188630	191.74	0.080	-0.750	2.320	191.69	-2.20	2.60	 	 	 	 	 	 	 	 	 	 	 	 	 	 	 	 	 	 	1581503410	8.61	15.95
12/02/2020 10:30:11	120220	12022020	103011	191.79	12.562942	-57.188640	191.87	0.190	-0.760	1.850	191.80	-2.20	2.20	 	 	 	 	 	 	 	 	 	 	 	 	 	 	 	 	 	 	1581503411	8.28	15.33
12/02/2020 10:30:12	120220	12022020	103012	191.66	12.562907	-57.188650	191.69	0.010	-0.660	1.620	191.60	-2.00	2.10	 	 	 	 	 	 	 	 	 	 	 	 	 	 	 	 	 	 	1581503412	8.08	14.96
12/02/2020 10:30:13	120220	12022020	103013	191.43	12.562870	-57.188660	191.41	-0.170	-0.390	1.660	191.37	-1.70	2.10	 	 	 	 	 	 	 	 	 	 	 	 	 	 	 	 	 	 	1581503413	8.11	15.02
12/02/2020 10:30:14	120220	12022020	103014	191.21	12.562833	-57.188670	191.27	-0.160	0.030	1.650	191.21	-1.30	2.10	 	 	 	 	 	 	 	 	 	 	 	 	 	 	 	 	 	 	1581503414	8.08	14.96
12/02/2020 10:30:15	120220	12022020	103015	191.30	12.562798	-57.188680	191.39	-0.070	0.320	1.470	191.35	-1.10	1.90	 	 	 	 	 	 	 	 	 	 	 	 	 	 	 	 	 	 	1581503415	8.01	14.83
12/02/2020 10:30:16	120220	12022020	103016	191.55	12.562762	-57.188688	191.62	0.030	0.290	1.390	191.58	-1.20	1.90	 	 	 	 	 	 	 	 	 	 	 	 	 	 	 	 	 	 	1581503416	8.09	14.98
12/02/2020 10:30:17	120220	12022020	103017	191.60	12.562723	-57.188700	191.62	0.170	-0.060	1.520	191.58	-1.50	2.00	 	 	 	 	 	 	 	 	 	 	 	 	 	 	 	 	 	 	1581503417	8.31	15.39
12/02/2020 10:30:18	120220	12022020	103018	191.45	12.562685	-57.188710	191.50	0.310	-0.340	1.710	191.43	-1.80	2.20	 	 	 	 	 	 	 	 	 	 	 	 	 	 	 	 	 	 	1581503418	8.49	15.72
12/02/2020 10:30:19	120220	12022020	103019	191.38	12.562648	-57.188720	191.44	0.300	-0.460	1.970	191.36	-1.90	2.50	 	 	 	 	 	 	 	 	 	 	 	 	 	 	 	 	 	 	1581503419	8.28	15.33
12/02/2020 10:30:20	120220	12022020	103020	191.15	12.562612	-57.188732	191.20	0.140	-0.680	2.310	191.06	-2.10	2.80	 	 	 	 	 	 	 	 	 	 	 	 	 	 	 	 	 	 	1581503420	8.16	15.11
12/02/2020 10:30:21	120220	12022020	103021	190.72	12.562575	-57.188745	190.78	-0.090	-0.840	2.680	190.64	-2.20	3.20	 	 	 	 	 	 	 	 	 	 	 	 	 	 	 	 	 	 	1581503421	8.42	15.59
12/02/2020 10:30:22	120220	12022020	103022	190.42	12.562538	-57.188758	190.51	-0.360	-0.560	2.930	190.39	-1.80	3.40	 	 	 	 	 	 	 	 	 	 	 	 	 	 	 	 	 	 	1581503422	8.47	15.69
12/02/2020 10:30:23	120220	12022020	103023	190.45	12.562503	-57.188772	190.60	-0.620	0.080	2.860	190.50	-1.20	3.20	 	 	 	 	 	 	 	 	 	 	 	 	 	 	 	 	 	 	1581503423	8.05	14.91
12/02/2020 10:30:24	120220	12022020	103024	190.77	12.562470	-57.188785	190.92	-0.650	0.540	2.400	190.84	-0.80	2.70	 	 	 	 	 	 	 	 	 	 	 	 	 	 	 	 	 	 	1581503424	7.72	14.30
12/02/2020 10:30:25	120220	12022020	103025	191.09	12.562435	-57.188797	191.21	-0.230	0.420	1.790	191.15	-1.10	2.10	 	 	 	 	 	 	 	 	 	 	 	 	 	 	 	 	 	 	1581503425	7.85	14.54
12/02/2020 10:30:26	120220	12022020	103026	191.36	12.562398	-57.188807	191.44	0.510	-0.100	1.030	191.41	-1.60	1.30	 	 	 	 	 	 	 	 	 	 	 	 	 	 	 	 	 	 	1581503426	8.37	15.50
12/02/2020 10:30:27	120220	12022020	103027	191.62	12.562358	-57.188812	191.70	0.990	-0.490	0.400	191.67	-1.90	0.80	 	 	 	 	 	 	 	 	 	 	 	 	 	 	 	 	 	 	1581503427	8.63	15.98
12/02/2020 10:30:28	120220	12022020	103028	191.82	12.562318	-57.188815	191.89	0.850	-0.630	0.280	191.84	-2.10	0.80	 	 	 	 	 	 	 	 	 	 	 	 	 	 	 	 	 	 	1581503428	8.35	15.46
12/02/2020 10:30:29	120220	12022020	103029	191.82	12.562282	-57.188822	191.88	0.250	-0.790	0.790	191.80	-2.30	1.40	 	 	 	 	 	 	 	 	 	 	 	 	 	 	 	 	 	 	1581503429	8.04	14.89
12/02/2020 10:30:30	120220	12022020	103030	191.55	12.562245	-57.188832	191.58	-0.450	-1.040	1.860	191.45	-2.50	2.60	 	 	 	 	 	 	 	 	 	 	 	 	 	 	 	 	 	 	1581503430	8.19	15.17
12/02/2020 10:30:31	120220	12022020	103031	190.94	12.562208	-57.188848	190.96	-0.850	-1.270	3.070	190.80	-2.70	3.80	 	 	 	 	 	 	 	 	 	 	 	 	 	 	 	 	 	 	1581503431	8.70	16.11
12/02/2020 10:30:32	120220	12022020	103032	190.23	12.562172	-57.188868	190.28	-0.840	-1.100	3.940	190.10	-2.40	4.50	 	 	 	 	 	 	 	 	 	 	 	 	 	 	 	 	 	 	1581503432	9.18	17.00
12/02/2020 10:30:33	120220	12022020	103033	189.77	12.562133	-57.188888	189.88	-0.620	-0.200	4.050	189.74	-1.30	4.40	 	 	 	 	 	 	 	 	 	 	 	 	 	 	 	 	 	 	1581503433	8.87	16.43
12/02/2020 10:30:34	120220	12022020	103034	189.76	12.562100	-57.188902	189.91	-0.420	0.930	3.390	189.81	-0.30	3.60	 	 	 	 	 	 	 	 	 	 	 	 	 	 	 	 	 	 	1581503434	7.92	14.67
12/02/2020 10:30:35	120220	12022020	103035	190.00	12.562065	-57.188910	190.24	-0.220	1.410	2.280	190.08	-0.00	2.40	 	 	 	 	 	 	 	 	 	 	 	 	 	 	 	 	 	 	1581503435	7.51	13.91
12/02/2020 10:30:36	120220	12022020	103036	190.54	12.562028	-57.188917	190.67	0.140	0.990	1.140	190.64	-0.60	1.40	 	 	 	 	 	 	 	 	 	 	 	 	 	 	 	 	 	 	1581503436	7.99	14.80
12/02/2020 10:30:37	120220	12022020	103037	191.10	12.561990	-57.188920	191.23	0.560	0.180	0.260	191.22	-1.40	0.60	 	 	 	 	 	 	 	 	 	 	 	 	 	 	 	 	 	 	1581503437	8.60	15.93
12/02/2020 10:30:38	120220	12022020	103038	191.68	12.561950	-57.188925	191.78	0.780	-0.550	-0.010	191.77	-2.10	0.50	 	 	 	 	 	 	 	 	 	 	 	 	 	 	 	 	 	 	1581503438	8.60	15.93
12/02/2020 10:30:39	120220	12022020	103039	191.96	12.561912	-57.188933	192.02	0.760	-1.160	0.310	191.95	-2.70	0.90	 	 	 	 	 	 	 	 	 	 	 	 	 	 	 	 	 	 	1581503439	8.27	15.32
12/02/2020 10:30:40	120220	12022020	103040	191.76	12.561875	-57.188942	191.82	0.640	-1.600	1.110	191.70	-3.00	1.80	 	 	 	 	 	 	 	 	 	 	 	 	 	 	 	 	 	 	1581503440	8.26	15.30
12/02/2020 10:30:41	120220	12022020	103041	191.53	12.561837	-57.188953	191.63	0.300	-1.370	1.970	191.50	-2.60	2.60	 	 	 	 	 	 	 	 	 	 	 	 	 	 	 	 	 	 	1581503441	8.35	15.46
12/02/2020 10:30:42	120220	12022020	103042	191.46	12.561803	-57.188967	191.56	-0.280	-0.570	2.650	191.44	-1.80	3.20	 	 	 	 	 	 	 	 	 	 	 	 	 	 	 	 	 	 	1581503442	7.87	14.58
12/02/2020 10:30:43	120220	12022020	103043	191.30	12.561770	-57.188982	191.39	-0.810	0.000	3.110	191.26	-1.40	3.60	 	 	 	 	 	 	 	 	 	 	 	 	 	 	 	 	 	 	1581503443	7.62	14.11
12/02/2020 10:30:44	120220	12022020	103044	191.12	12.561737	-57.188998	191.22	-0.970	0.060	3.270	191.10	-1.40	3.70	 	 	 	 	 	 	 	 	 	 	 	 	 	 	 	 	 	 	1581503444	8.22	15.22
12/02/2020 10:30:45	120220	12022020	103045	191.15	12.561698	-57.189015	191.27	-0.680	0.070	2.960	191.20	-1.30	3.20	 	 	 	 	 	 	 	 	 	 	 	 	 	 	 	 	 	 	1581503445	8.78	16.26
12/02/2020 10:30:46	120220	12022020	103046	191.48	12.561662	-57.189027	191.60	-0.140	0.240	2.130	191.57	-1.10	2.30	 	 	 	 	 	 	 	 	 	 	 	 	 	 	 	 	 	 	1581503446	8.53	15.80
12/02/2020 10:30:47	120220	12022020	103047	191.86	12.561623	-57.189035	191.94	0.340	0.210	1.230	191.91	-1.30	1.50	 	 	 	 	 	 	 	 	 	 	 	 	 	 	 	 	 	 	1581503447	8.14	15.08
12/02/2020 10:30:48	120220	12022020	103048	192.04	12.561585	-57.189040	192.08	0.600	-0.220	0.670	192.05	-1.80	1.00	 	 	 	 	 	 	 	 	 	 	 	 	 	 	 	 	 	 	1581503448	8.33	15.43
12/02/2020 10:30:49	120220	12022020	103049	192.09	12.561547	-57.189047	192.17	0.590	-0.630	0.510	192.11	-2.10	1.00	 	 	 	 	 	 	 	 	 	 	 	 	 	 	 	 	 	 	1581503449	8.65	16.02
12/02/2020 10:30:50	120220	12022020	103050	192.28	12.561507	-57.189055	192.37	0.360	-0.570	0.560	192.33	-1.90	1.00	 	 	 	 	 	 	 	 	 	 	 	 	 	 	 	 	 	 	1581503450	8.51	15.76
12/02/2020 10:30:51	120220	12022020	103051	192.52	12.561472	-57.189065	192.60	0.010	-0.190	0.740	192.54	-1.60	1.30	 	 	 	 	 	 	 	 	 	 	 	 	 	 	 	 	 	 	1581503451	7.96	14.74
12/02/2020 10:30:52	120220	12022020	103052	192.50	12.561437	-57.189077	192.55	-0.290	-0.170	1.250	192.47	-1.60	1.90	 	 	 	 	 	 	 	 	 	 	 	 	 	 	 	 	 	 	1581503452	7.76	14.37
12/02/2020 10:30:53	120220	12022020	103053	192.30	12.561402	-57.189092	192.29	-0.480	-0.470	2.100	192.23	-1.90	2.70	 	 	 	 	 	 	 	 	 	 	 	 	 	 	 	 	 	 	1581503453	8.36	15.48
12/02/2020 10:30:54	120220	12022020	103054	191.93	12.561363	-57.189108	192.00	-0.560	-0.600	2.970	191.88	-2.00	3.50	 	 	 	 	 	 	 	 	 	 	 	 	 	 	 	 	 	 	1581503454	8.83	16.35
12/02/2020 10:30:55	120220	12022020	103055	191.80	12.561328	-57.189127	191.90	-0.540	-0.290	3.360	191.81	-1.60	3.80	 	 	 	 	 	 	 	 	 	 	 	 	 	 	 	 	 	 	1581503455	8.65	16.02
12/02/2020 10:30:56	120220	12022020	103056	191.94	12.561293	-57.189142	192.05	-0.420	0.180	3.100	191.98	-1.20	3.40	 	 	 	 	 	 	 	 	 	 	 	 	 	 	 	 	 	 	1581503456	8.10	15.00
12/02/2020 10:30:57	120220	12022020	103057	192.10	12.561258	-57.189153	192.17	-0.060	0.290	2.400	192.11	-1.20	2.70	 	 	 	 	 	 	 	 	 	 	 	 	 	 	 	 	 	 	1581503457	7.80	14.45
12/02/2020 10:30:58	120220	12022020	103058	192.09	12.561222	-57.189163	192.13	0.530	-0.090	1.610	192.08	-1.60	1.90	 	 	 	 	 	 	 	 	 	 	 	 	 	 	 	 	 	 	1581503458	8.14	15.08
12/02/2020 10:30:59	120220	12022020	103059	192.04	12.561183	-57.189170	192.06	1.030	-0.380	0.970	192.03	-1.80	1.30	 	 	 	 	 	 	 	 	 	 	 	 	 	 	 	 	 	 	1581503459	8.54	15.82
12/02/2020 10:31:00	120220	12022020	103100	191.95	12.561145	-57.189175	191.95	1.120	-0.440	0.660	191.92	-1.90	1.10	 	 	 	 	 	 	 	 	 	 	 	 	 	 	 	 	 	 	1581503460	8.31	15.39
12/02/2020 10:31:01	120220	12022020	103101	191.81	12.561108	-57.189182	191.77	0.780	-0.540	0.820	191.77	-2.00	1.40	1015.40	26.30	26.40	20.50	20.60	28.0	70.0	70.0	398.0	25.9	261.00	10.30	72.00	11.80	2387	10001.0	27.5	27.5	1581503461	8.06	14.93
12/02/2020 10:31:02	120220	12022020	103102	191.45	12.561070	-57.189192	191.47	0.250	-0.770	1.500	191.38	-2.20	2.20	 	 	 	 	 	 	 	 	 	 	 	 	 	 	 	 	 	 	1581503462	8.25	15.28
12/02/2020 10:31:03	120220	12022020	103103	191.18	12.561033	-57.189205	191.19	-0.340	-0.800	2.500	191.13	-2.10	3.20	 	 	 	 	 	 	 	 	 	 	 	 	 	 	 	 	 	 	1581503463	8.61	15.95
12/02/2020 10:31:04	120220	12022020	103104	191.08	12.560997	-57.189223	191.19	-0.990	-0.420	3.360	191.10	-1.70	3.90	 	 	 	 	 	 	 	 	 	 	 	 	 	 	 	 	 	 	1581503464	8.64	16.00
12/02/2020 10:31:05	120220	12022020	103105	191.30	12.560963	-57.189243	191.43	-1.440	0.100	3.630	191.36	-1.20	4.00	 	 	 	 	 	 	 	 	 	 	 	 	 	 	 	 	 	 	1581503465	8.42	15.59
12/02/2020 10:31:06	120220	12022020	103106	191.66	12.560930	-57.189262	191.80	-1.330	0.340	3.210	191.75	-1.10	3.40	 	 	 	 	 	 	 	 	 	 	 	 	 	 	 	 	 	 	1581503466	8.29	15.35
12/02/2020 10:31:07	120220	12022020	103107	192.10	12.560893	-57.189278	192.22	-0.580	0.270	2.220	192.19	-1.20	2.40	 	 	 	 	 	 	 	 	 	 	 	 	 	 	 	 	 	 	1581503467	8.28	15.33
12/02/2020 10:31:08	120220	12022020	103108	192.46	12.560857	-57.189287	192.52	0.460	-0.010	0.950	192.50	-1.50	1.10	 	 	 	 	 	 	 	 	 	 	 	 	 	 	 	 	 	 	1581503468	8.30	15.37
12/02/2020 10:31:09	120220	12022020	103109	192.47	12.560817	-57.189290	192.48	1.240	-0.440	0.050	192.42	-1.90	0.40	 	 	 	 	 	 	 	 	 	 	 	 	 	 	 	 	 	 	1581503469	8.52	15.78
12/02/2020 10:31:10	120220	12022020	103110	192.14	12.560777	-57.189292	192.14	1.380	-0.770	-0.010	192.05	-2.20	0.50	 	 	 	 	 	 	 	 	 	 	 	 	 	 	 	 	 	 	1581503470	8.67	16.06
12/02/2020 10:31:11	120220	12022020	103111	191.63	12.560738	-57.189297	191.62	0.950	-0.820	0.640	191.51	-2.20	1.30	 	 	 	 	 	 	 	 	 	 	 	 	 	 	 	 	 	 	1581503471	8.46	15.67
12/02/2020 10:31:12	120220	12022020	103112	191.14	12.560700	-57.189307	191.18	0.270	-0.470	1.560	191.09	-1.70	2.20	 	 	 	 	 	 	 	 	 	 	 	 	 	 	 	 	 	 	1581503472	8.28	15.33
12/02/2020 10:31:13	120220	12022020	103113	191.15	12.560665	-57.189322	191.27	-0.400	0.220	2.250	191.23	-1.00	2.80	 	 	 	 	 	 	 	 	 	 	 	 	 	 	 	 	 	 	1581503473	8.15	15.09
12/02/2020 10:31:14	120220	12022020	103114	191.75	12.560633	-57.189338	191.92	-0.880	0.730	2.590	191.90	-0.70	3.10	 	 	 	 	 	 	 	 	 	 	 	 	 	 	 	 	 	 	1581503474	7.95	14.72
12/02/2020 10:31:15	120220	12022020	103115	192.45	12.560600	-57.189357	192.60	-1.000	0.540	2.720	192.55	-1.00	3.10	 	 	 	 	 	 	 	 	 	 	 	 	 	 	 	 	 	 	1581503475	8.00	14.82
12/02/2020 10:31:16	120220	12022020	103116	192.66	12.560565	-57.189375	192.73	-0.650	-0.410	2.820	192.62	-2.10	3.30	 	 	 	 	 	 	 	 	 	 	 	 	 	 	 	 	 	 	1581503476	8.49	15.72
12/02/2020 10:31:17	120220	12022020	103117	192.27	12.560525	-57.189392	192.29	-0.040	-1.410	2.970	192.17	-2.90	3.40	 	 	 	 	 	 	 	 	 	 	 	 	 	 	 	 	 	 	1581503477	9.15	16.95
12/02/2020 10:31:18	120220	12022020	103118	191.71	12.560485	-57.189405	191.73	0.420	-1.540	2.950	191.61	-2.80	3.30	 	 	 	 	 	 	 	 	 	 	 	 	 	 	 	 	 	 	1581503478	9.12	16.89
12/02/2020 10:31:19	120220	12022020	103119	191.33	12.560448	-57.189417	191.39	0.490	-0.730	2.580	191.31	-1.90	2.90	 	 	 	 	 	 	 	 	 	 	 	 	 	 	 	 	 	 	1581503479	8.30	15.37
12/02/2020 10:31:20	120220	12022020	103120	191.39	12.560415	-57.189425	191.47	0.320	0.350	1.820	191.44	-0.90	2.10	 	 	 	 	 	 	 	 	 	 	 	 	 	 	 	 	 	 	1581503480	7.49	13.87
12/02/2020 10:31:21	120220	12022020	103121	191.75	12.560380	-57.189430	191.84	0.190	0.890	0.880	191.85	-0.50	1.10	 	 	 	 	 	 	 	 	 	 	 	 	 	 	 	 	 	 	1581503481	7.38	13.67
12/02/2020 10:31:22	120220	12022020	103122	192.28	12.560343	-57.189435	192.37	0.210	0.670	0.190	192.40	-0.80	0.60	 	 	 	 	 	 	 	 	 	 	 	 	 	 	 	 	 	 	1581503482	7.96	14.74
12/02/2020 10:31:23	120220	12022020	103123	192.81	12.560305	-57.189442	192.89	0.240	0.030	0.210	192.87	-1.60	0.80	 	 	 	 	 	 	 	 	 	 	 	 	 	 	 	 	 	 	1581503483	8.48	15.70
12/02/2020 10:31:24	120220	12022020	103124	192.91	12.560267	-57.189452	192.94	0.190	-0.730	0.950	192.84	-2.30	1.70	 	 	 	 	 	 	 	 	 	 	 	 	 	 	 	 	 	 	1581503484	8.65	16.02
12/02/2020 10:31:25	120220	12022020	103125	192.49	12.560228	-57.189468	192.30	0.090	-1.300	2.190	192.32	-2.80	2.90	 	 	 	 	 	 	 	 	 	 	 	 	 	 	 	 	 	 	1581503485	8.76	16.22
12/02/2020 10:31:26	120220	12022020	103126	191.43	12.560192	-57.189487	191.44	-0.060	-1.350	3.410	191.27	-2.60	4.00	 	 	 	 	 	 	 	 	 	 	 	 	 	 	 	 	 	 	1581503486	8.88	16.45
12/02/2020 10:31:27	120220	12022020	103127	190.78	12.560155	-57.189505	190.84	-0.240	-0.700	3.920	190.71	-1.90	4.30	 	 	 	 	 	 	 	 	 	 	 	 	 	 	 	 	 	 	1581503487	8.58	15.89
12/02/2020 10:31:28	120220	12022020	103128	190.65	12.560122	-57.189518	190.78	-0.470	0.220	3.480	190.69	-1.00	3.70	 	 	 	 	 	 	 	 	 	 	 	 	 	 	 	 	 	 	1581503488	7.89	14.61
12/02/2020 10:31:29	120220	12022020	103129	190.89	12.560088	-57.189530	191.09	-0.680	0.700	2.600	190.97	-0.70	2.80	 	 	 	 	 	 	 	 	 	 	 	 	 	 	 	 	 	 	1581503489	7.56	14.00
12/02/2020 10:31:30	120220	12022020	103130	191.28	12.560053	-57.189540	191.35	-0.610	0.460	1.830	191.32	-1.10	2.10	 	 	 	 	 	 	 	 	 	 	 	 	 	 	 	 	 	 	1581503490	7.94	14.70
12/02/2020 10:31:31	120220	12022020	103131	191.37	12.560015	-57.189552	191.40	-0.120	-0.120	1.190	191.37	-1.60	1.50	 	 	 	 	 	 	 	 	 	 	 	 	 	 	 	 	 	 	1581503491	8.56	15.85
12/02/2020 10:31:32	120220	12022020	103132	191.31	12.559975	-57.189562	191.34	0.580	-0.470	0.820	191.30	-1.90	1.20	 	 	 	 	 	 	 	 	 	 	 	 	 	 	 	 	 	 	1581503492	8.69	16.09
12/02/2020 10:31:33	120220	12022020	103133	191.22	12.559937	-57.189568	191.25	1.020	-0.480	0.690	191.21	-1.80	1.10	 	 	 	 	 	 	 	 	 	 	 	 	 	 	 	 	 	 	1581503493	8.31	15.39
12/02/2020 10:31:34	120220	12022020	103134	191.19	12.559900	-57.189575	191.23	0.920	-0.310	0.740	191.19	-1.70	1.30	 	 	 	 	 	 	 	 	 	 	 	 	 	 	 	 	 	 	1581503494	7.95	14.72
12/02/2020 10:31:35	120220	12022020	103135	191.19	12.559865	-57.189582	191.23	0.380	-0.200	1.090	191.18	-1.60	1.70	 	 	 	 	 	 	 	 	 	 	 	 	 	 	 	 	 	 	1581503495	7.80	14.45
12/02/2020 10:31:36	120220	12022020	103136	191.10	12.559830	-57.189593	191.13	-0.160	-0.280	1.740	191.06	-1.70	2.40	 	 	 	 	 	 	 	 	 	 	 	 	 	 	 	 	 	 	1581503496	7.91	14.65
12/02/2020 10:31:37	120220	12022020	103137	190.92	12.559793	-57.189607	190.90	-0.350	-0.540	2.440	190.87	-2.00	3.00	 	 	 	 	 	 	 	 	 	 	 	 	 	 	 	 	 	 	1581503497	8.29	15.35
12/02/2020 10:31:38	120220	12022020	103138	190.54	12.559757	-57.189623	190.59	-0.260	-0.710	3.020	190.48	-2.10	3.50	 	 	 	 	 	 	 	 	 	 	 	 	 	 	 	 	 	 	1581503498	8.65	16.02
12/02/2020 10:31:39	120220	12022020	103139	190.34	12.559720	-57.189638	190.41	-0.170	-0.520	3.130	190.32	-1.80	3.50	 	 	 	 	 	 	 	 	 	 	 	 	 	 	 	 	 	 	1581503499	8.59	15.91
12/02/2020 10:31:40	120220	12022020	103140	190.48	12.559685	-57.189650	190.61	-0.280	-0.020	2.620	190.55	-1.30	2.90	 	 	 	 	 	 	 	 	 	 	 	 	 	 	 	 	 	 	1581503500	8.08	14.96
12/02/2020 10:31:41	120220	12022020	103141	190.83	12.559650	-57.189660	190.94	-0.480	0.250	1.980	190.88	-1.20	2.30	 	 	 	 	 	 	 	 	 	 	 	 	 	 	 	 	 	 	1581503501	7.60	14.08
12/02/2020 10:31:42	120220	12022020	103142	190.90	12.559615	-57.189668	190.94	-0.440	-0.240	1.680	190.87	-1.80	2.10	 	 	 	 	 	 	 	 	 	 	 	 	 	 	 	 	 	 	1581503502	7.88	14.59
12/02/2020 10:31:43	120220	12022020	103143	190.66	12.559575	-57.189678	190.68	-0.080	-1.020	1.650	190.59	-2.50	2.10	 	 	 	 	 	 	 	 	 	 	 	 	 	 	 	 	 	 	1581503503	8.83	16.35
12/02/2020 10:31:44	120220	12022020	103144	190.37	12.559533	-57.189690	190.41	0.290	-1.100	1.730	190.32	-2.40	2.20	 	 	 	 	 	 	 	 	 	 	 	 	 	 	 	 	 	 	1581503504	9.12	16.89
12/02/2020 10:31:45	120220	12022020	103145	190.28	12.559497	-57.189700	190.36	0.370	-0.270	1.580	190.30	-1.40	2.00	 	 	 	 	 	 	 	 	 	 	 	 	 	 	 	 	 	 	1581503505	8.35	15.46
12/02/2020 10:31:46	120220	12022020	103146	190.42	12.559463	-57.189708	190.50	0.190	0.660	1.200	190.45	-0.60	1.60	 	 	 	 	 	 	 	 	 	 	 	 	 	 	 	 	 	 	1581503506	7.45	13.80
12/02/2020 10:31:47	120220	12022020	103147	190.60	12.559428	-57.189715	190.69	0.040	0.870	0.990	190.65	-0.60	1.40	 	 	 	 	 	 	 	 	 	 	 	 	 	 	 	 	 	 	1581503507	7.46	13.82
12/02/2020 10:31:48	120220	12022020	103148	191.00	12.559392	-57.189725	191.11	0.060	0.570	0.900	191.11	-0.90	1.40	 	 	 	 	 	 	 	 	 	 	 	 	 	 	 	 	 	 	1581503508	8.15	15.09
12/02/2020 10:31:49	120220	12022020	103149	191.55	12.559355	-57.189735	191.65	0.180	0.270	1.010	191.65	-1.20	1.50	 	 	 	 	 	 	 	 	 	 	 	 	 	 	 	 	 	 	1581503509	8.32	15.41
12/02/2020 10:31:50	120220	12022020	103150	191.85	12.559318	-57.189745	191.90	0.280	-0.140	1.370	191.84	-1.70	1.90	 	 	 	 	 	 	 	 	 	 	 	 	 	 	 	 	 	 	1581503510	7.98	14.78
12/02/2020 10:31:51	120220	12022020	103151	191.71	12.559283	-57.189757	191.63	0.340	-0.930	1.910	191.64	-2.50	2.50	 	 	 	 	 	 	 	 	 	 	 	 	 	 	 	 	 	 	1581503511	8.08	14.96
12/02/2020 10:31:52	120220	12022020	103152	191.16	12.559245	-57.189770	191.19	0.300	-1.640	2.620	191.07	-3.10	3.20	 	 	 	 	 	 	 	 	 	 	 	 	 	 	 	 	 	 	1581503512	8.59	15.91
12/02/2020 10:31:53	120220	12022020	103153	190.80	12.559207	-57.189783	190.76	0.060	-1.770	3.140	190.71	-3.10	3.70	 	 	 	 	 	 	 	 	 	 	 	 	 	 	 	 	 	 	1581503513	8.65	16.02
12/02/2020 10:31:54	120220	12022020	103154	190.25	12.559172	-57.189797	190.29	-0.260	-1.360	3.350	190.15	-2.60	3.80	 	 	 	 	 	 	 	 	 	 	 	 	 	 	 	 	 	 	1581503514	8.33	15.43
12/02/2020 10:31:55	120220	12022020	103155	189.80	12.559135	-57.189810	189.88	-0.500	-0.550	3.330	189.74	-1.70	3.70	 	 	 	 	 	 	 	 	 	 	 	 	 	 	 	 	 	 	1581503515	8.17	15.13
12/02/2020 10:31:56	120220	12022020	103156	189.65	12.559102	-57.189823	189.76	-0.580	0.450	2.930	189.67	-0.70	3.20	 	 	 	 	 	 	 	 	 	 	 	 	 	 	 	 	 	 	1581503516	7.96	14.74
12/02/2020 10:31:57	120220	12022020	103157	189.89	12.559067	-57.189833	190.03	-0.500	1.090	2.090	189.98	-0.30	2.30	 	 	 	 	 	 	 	 	 	 	 	 	 	 	 	 	 	 	1581503517	7.74	14.33
12/02/2020 10:31:58	120220	12022020	103158	190.36	12.559030	-57.189842	190.50	-0.260	0.890	1.230	190.46	-0.60	1.50	 	 	 	 	 	 	 	 	 	 	 	 	 	 	 	 	 	 	1581503518	8.00	14.82
12/02/2020 10:31:59	120220	12022020	103159	190.83	12.558990	-57.189848	190.95	0.110	0.160	0.660	190.91	-1.40	1.00	 	 	 	 	 	 	 	 	 	 	 	 	 	 	 	 	 	 	1581503519	8.67	16.06
12/02/2020 10:32:00	120220	12022020	103200	191.21	12.558950	-57.189857	191.32	0.430	-0.420	0.440	191.28	-1.90	0.90	 	 	 	 	 	 	 	 	 	 	 	 	 	 	 	 	 	 	1581503520	8.91	16.50
12/02/2020 10:32:01	120220	12022020	103201	191.49	12.558912	-57.189863	191.58	0.480	-0.460	0.620	191.53	-1.80	1.20	1015.40	26.30	26.30	20.10	20.30	29.0	68.0	69.0	398.0	25.9	257.00	10.20	68.00	11.90	2535	9966.0	27.5	27.5	1581503521	8.47	15.69
12/02/2020 10:32:02	120220	12022020	103202	191.53	12.558875	-57.189873	191.59	0.340	-0.300	1.110	191.51	-1.70	1.70	 	 	 	 	 	 	 	 	 	 	 	 	 	 	 	 	 	 	1581503522	7.77	14.39
12/02/2020 10:32:03	120220	12022020	103203	191.38	12.558842	-57.189883	191.44	0.180	-0.330	1.720	191.32	-1.80	2.30	 	 	 	 	 	 	 	 	 	 	 	 	 	 	 	 	 	 	1581503523	7.65	14.17
12/02/2020 10:32:04	120220	12022020	103204	190.99	12.558807	-57.189895	191.03	0.040	-0.630	2.500	190.87	-2.10	3.10	 	 	 	 	 	 	 	 	 	 	 	 	 	 	 	 	 	 	1581503524	8.00	14.82
12/02/2020 10:32:05	120220	12022020	103205	190.43	12.558768	-57.189908	190.50	-0.150	-0.890	3.280	190.33	-2.30	3.90	 	 	 	 	 	 	 	 	 	 	 	 	 	 	 	 	 	 	1581503525	8.50	15.74
12/02/2020 10:32:06	120220	12022020	103206	190.06	12.558732	-57.189923	190.18	-0.400	-0.770	3.670	190.03	-2.10	4.10	 	 	 	 	 	 	 	 	 	 	 	 	 	 	 	 	 	 	1581503526	8.59	15.91
12/02/2020 10:32:07	120220	12022020	103207	190.01	12.558697	-57.189940	190.16	-0.520	-0.410	3.440	190.03	-1.70	3.70	 	 	 	 	 	 	 	 	 	 	 	 	 	 	 	 	 	 	1581503527	8.30	15.37
12/02/2020 10:32:08	120220	12022020	103208	190.21	12.558662	-57.189953	190.37	-0.340	-0.060	2.650	190.27	-1.40	2.90	 	 	 	 	 	 	 	 	 	 	 	 	 	 	 	 	 	 	1581503528	8.07	14.95
12/02/2020 10:32:09	120220	12022020	103209	190.49	12.558625	-57.189962	190.64	0.080	0.140	1.630	190.55	-1.20	1.90	 	 	 	 	 	 	 	 	 	 	 	 	 	 	 	 	 	 	1581503529	8.02	14.85
12/02/2020 10:32:10	120220	12022020	103210	190.71	12.558588	-57.189968	190.82	0.480	0.140	0.790	190.74	-1.30	1.10	 	 	 	 	 	 	 	 	 	 	 	 	 	 	 	 	 	 	1581503530	8.12	15.04
12/02/2020 10:32:11	120220	12022020	103211	190.82	12.558550	-57.189973	190.92	0.620	-0.010	0.340	190.85	-1.40	0.80	 	 	 	 	 	 	 	 	 	 	 	 	 	 	 	 	 	 	1581503531	8.28	15.33
12/02/2020 10:32:12	120220	12022020	103212	190.99	12.558512	-57.189978	191.10	0.440	-0.050	0.300	191.04	-1.40	0.80	 	 	 	 	 	 	 	 	 	 	 	 	 	 	 	 	 	 	1581503532	8.30	15.37
12/02/2020 10:32:13	120220	12022020	103213	191.22	12.558475	-57.189987	191.33	0.050	0.010	0.630	191.26	-1.40	1.20	 	 	 	 	 	 	 	 	 	 	 	 	 	 	 	 	 	 	1581503533	8.02	14.85
12/02/2020 10:32:14	120220	12022020	103214	191.37	12.558440	-57.189998	191.47	-0.300	-0.150	1.170	191.38	-1.60	1.80	 	 	 	 	 	 	 	 	 	 	 	 	 	 	 	 	 	 	1581503534	7.89	14.61
12/02/2020 10:32:15	120220	12022020	103215	191.40	12.558405	-57.190012	191.48	-0.410	-0.630	1.840	191.39	-2.10	2.40	 	 	 	 	 	 	 	 	 	 	 	 	 	 	 	 	 	 	1581503535	8.24	15.26
12/02/2020 10:32:16	120220	12022020	103216	191.29	12.558367	-57.190027	191.39	-0.260	-1.030	2.440	191.27	-2.40	3.00	 	 	 	 	 	 	 	 	 	 	 	 	 	 	 	 	 	 	1581503536	8.69	16.09
12/02/2020 10:32:17	120220	12022020	103217	191.20	12.558330	-57.190042	191.29	-0.100	-0.960	2.620	191.19	-2.30	3.00	 	 	 	 	 	 	 	 	 	 	 	 	 	 	 	 	 	 	1581503537	8.60	15.93
12/02/2020 10:32:18	120220	12022020	103218	191.21	12.558293	-57.190053	191.31	-0.100	-0.560	2.360	191.23	-1.90	2.70	 	 	 	 	 	 	 	 	 	 	 	 	 	 	 	 	 	 	1581503538	8.11	15.02
12/02/2020 10:32:19	120220	12022020	103219	191.20	12.558258	-57.190063	191.24	-0.090	-0.320	2.070	191.16	-1.70	2.50	 	 	 	 	 	 	 	 	 	 	 	 	 	 	 	 	 	 	1581503539	7.89	14.61
12/02/2020 10:32:20	120220	12022020	103220	190.88	12.558220	-57.190072	190.90	0.070	-0.410	1.990	190.80	-1.80	2.40	 	 	 	 	 	 	 	 	 	 	 	 	 	 	 	 	 	 	1581503540	8.27	15.32
12/02/2020 10:32:21	120220	12022020	103221	190.49	12.558182	-57.190080	190.54	0.050	-0.280	2.090	190.44	-1.60	2.60	 	 	 	 	 	 	 	 	 	 	 	 	 	 	 	 	 	 	1581503541	8.71	16.13
12/02/2020 10:32:22	120220	12022020	103222	190.44	12.558143	-57.190092	190.57	-0.370	0.330	2.180	190.52	-0.90	2.60	 	 	 	 	 	 	 	 	 	 	 	 	 	 	 	 	 	 	1581503542	8.47	15.69
12/02/2020 10:32:23	120220	12022020	103223	191.03	12.558108	-57.190103	191.21	-0.840	1.140	1.980	191.20	-0.10	2.40	 	 	 	 	 	 	 	 	 	 	 	 	 	 	 	 	 	 	1581503543	7.84	14.52
12/02/2020 10:32:24	120220	12022020	103224	191.93	12.558077	-57.190118	192.09	-0.720	1.440	1.460	192.11	-0.10	1.70	 	 	 	 	 	 	 	 	 	 	 	 	 	 	 	 	 	 	1581503544	7.45	13.80
12/02/2020 10:32:25	120220	12022020	103225	192.67	12.558043	-57.190132	192.78	0.350	0.560	0.580	192.78	-1.20	0.80	 	 	 	 	 	 	 	 	 	 	 	 	 	 	 	 	 	 	1581503545	7.76	14.37
12/02/2020 10:32:26	120220	12022020	103226	193.05	12.558003	-57.190138	193.13	1.580	-0.930	0.000	193.10	-2.60	0.50	 	 	 	 	 	 	 	 	 	 	 	 	 	 	 	 	 	 	1581503546	8.82	16.33
12/02/2020 10:32:27	120220	12022020	103227	193.12	12.557960	-57.190143	193.16	1.860	-1.920	0.250	193.10	-3.40	0.90	 	 	 	 	 	 	 	 	 	 	 	 	 	 	 	 	 	 	1581503547	9.25	17.13
12/02/2020 10:32:28	120220	12022020	103228	192.89	12.557922	-57.190152	192.92	0.930	-1.860	1.070	192.82	-3.10	1.80	 	 	 	 	 	 	 	 	 	 	 	 	 	 	 	 	 	 	1581503548	8.57	15.87
12/02/2020 10:32:29	120220	12022020	103229	192.58	12.557888	-57.190165	192.57	-0.500	-1.010	2.200	192.51	-2.20	2.90	 	 	 	 	 	 	 	 	 	 	 	 	 	 	 	 	 	 	1581503549	7.73	14.32
12/02/2020 10:32:30	120220	12022020	103230	192.32	12.557857	-57.190183	192.43	-1.540	-0.080	3.130	192.31	-1.30	3.70	 	 	 	 	 	 	 	 	 	 	 	 	 	 	 	 	 	 	1581503550	7.65	14.17
12/02/2020 10:32:31	120220	12022020	103231	192.32	12.557825	-57.190203	192.44	-1.720	0.340	3.500	192.32	-1.10	3.90	 	 	 	 	 	 	 	 	 	 	 	 	 	 	 	 	 	 	1581503551	8.03	14.87
12/02/2020 10:32:32	120220	12022020	103232	192.27	12.557790	-57.190223	192.38	-1.090	0.060	3.300	192.27	-1.40	3.60	 	 	 	 	 	 	 	 	 	 	 	 	 	 	 	 	 	 	1581503552	8.64	16.00
12/02/2020 10:32:33	120220	12022020	103233	192.22	12.557752	-57.190240	192.30	-0.100	-0.390	2.540	192.23	-1.80	2.80	 	 	 	 	 	 	 	 	 	 	 	 	 	 	 	 	 	 	1581503553	9.14	16.93
12/02/2020 10:32:34	120220	12022020	103234	192.33	12.557710	-57.190250	192.40	0.610	-0.300	1.520	192.38	-1.60	1.70	 	 	 	 	 	 	 	 	 	 	 	 	 	 	 	 	 	 	1581503554	9.04	16.74
12/02/2020 10:32:35	120220	12022020	103235	192.66	12.557672	-57.190255	192.75	0.670	0.350	0.560	192.75	-0.90	0.90	 	 	 	 	 	 	 	 	 	 	 	 	 	 	 	 	 	 	1581503555	8.26	15.30
12/02/2020 10:32:36	120220	12022020	103236	193.07	12.557638	-57.190260	193.15	0.290	0.830	0.050	193.14	-0.60	0.50	 	 	 	 	 	 	 	 	 	 	 	 	 	 	 	 	 	 	1581503556	7.48	13.85
12/02/2020 10:32:37	120220	12022020	103237	193.27	12.557603	-57.190267	193.33	0.000	0.530	0.200	193.28	-1.00	0.80	 	 	 	 	 	 	 	 	 	 	 	 	 	 	 	 	 	 	1581503557	7.51	13.91
12/02/2020 10:32:38	120220	12022020	103238	193.27	12.557567	-57.190278	193.34	0.050	-0.240	0.790	193.26	-1.80	1.40	 	 	 	 	 	 	 	 	 	 	 	 	 	 	 	 	 	 	1581503558	8.27	15.32
12/02/2020 10:32:39	120220	12022020	103239	193.25	12.557530	-57.190295	193.33	0.300	-0.840	1.460	193.23	-2.30	2.10	 	 	 	 	 	 	 	 	 	 	 	 	 	 	 	 	 	 	1581503559	8.66	16.04
12/02/2020 10:32:40	120220	12022020	103240	193.17	12.557493	-57.190310	193.26	0.440	-1.040	2.050	193.15	-2.40	2.60	 	 	 	 	 	 	 	 	 	 	 	 	 	 	 	 	 	 	1581503560	8.44	15.63
12/02/2020 10:32:41	120220	12022020	103241	193.04	12.557458	-57.190325	193.04	0.380	-0.960	2.390	192.99	-2.30	2.90	 	 	 	 	 	 	 	 	 	 	 	 	 	 	 	 	 	 	1581503561	8.08	14.96
12/02/2020 10:32:42	120220	12022020	103242	192.65	12.557423	-57.190337	192.70	0.180	-0.870	2.550	192.58	-2.20	3.00	 	 	 	 	 	 	 	 	 	 	 	 	 	 	 	 	 	 	1581503562	7.98	14.78
12/02/2020 10:32:43	120220	12022020	103243	192.40	12.557387	-57.190348	192.48	-0.110	-0.650	2.510	192.40	-1.90	2.90	 	 	 	 	 	 	 	 	 	 	 	 	 	 	 	 	 	 	1581503563	8.20	15.19
12/02/2020 10:32:44	120220	12022020	103244	192.47	12.557352	-57.190360	192.58	-0.460	-0.160	2.190	192.51	-1.40	2.50	 	 	 	 	 	 	 	 	 	 	 	 	 	 	 	 	 	 	1581503564	8.14	15.08
12/02/2020 10:32:45	120220	12022020	103245	192.70	12.557317	-57.190370	192.80	-0.680	0.230	1.770	192.73	-1.10	2.10	 	 	 	 	 	 	 	 	 	 	 	 	 	 	 	 	 	 	1581503565	7.89	14.61
12/02/2020 10:32:46	120220	12022020	103246	192.79	12.557280	-57.190382	192.88	-0.520	0.170	1.590	192.79	-1.30	2.00	 	 	 	 	 	 	 	 	 	 	 	 	 	 	 	 	 	 	1581503566	8.03	14.87
12/02/2020 10:32:47	120220	12022020	103247	192.77	12.557243	-57.190395	192.86	-0.140	-0.080	1.760	192.77	-1.50	2.30	 	 	 	 	 	 	 	 	 	 	 	 	 	 	 	 	 	 	1581503567	8.55	15.83
12/02/2020 10:32:48	120220	12022020	103248	192.84	12.557205	-57.190408	192.97	0.180	-0.020	2.070	192.89	-1.30	2.50	 	 	 	 	 	 	 	 	 	 	 	 	 	 	 	 	 	 	1581503568	8.64	16.00
12/02/2020 10:32:49	120220	12022020	103249	193.24	12.557170	-57.190423	193.39	0.270	0.400	2.020	193.35	-0.90	2.40	 	 	 	 	 	 	 	 	 	 	 	 	 	 	 	 	 	 	1581503569	8.10	15.00
12/02/2020 10:32:50	120220	12022020	103250	193.77	12.557137	-57.190435	193.90	0.330	0.520	1.590	193.86	-1.00	1.90	 	 	 	 	 	 	 	 	 	 	 	 	 	 	 	 	 	 	1581503570	7.50	13.89
12/02/2020 10:32:51	120220	12022020	103251	194.06	12.557102	-57.190445	194.12	0.560	-0.150	1.250	194.06	-1.80	1.70	 	 	 	 	 	 	 	 	 	 	 	 	 	 	 	 	 	 	1581503571	7.74	14.33
12/02/2020 10:32:52	120220	12022020	103252	193.97	12.557063	-57.190453	194.01	0.890	-1.180	1.160	193.94	-2.70	1.60	 	 	 	 	 	 	 	 	 	 	 	 	 	 	 	 	 	 	1581503572	8.57	15.87
12/02/2020 10:32:53	120220	12022020	103253	193.90	12.557023	-57.190463	193.96	0.790	-1.620	1.250	193.91	-3.00	1.80	 	 	 	 	 	 	 	 	 	 	 	 	 	 	 	 	 	 	1581503573	8.98	16.63
12/02/2020 10:32:54	120220	12022020	103254	194.04	12.556985	-57.190473	194.08	0.100	-1.200	1.600	194.04	-2.40	2.20	 	 	 	 	 	 	 	 	 	 	 	 	 	 	 	 	 	 	1581503574	8.37	15.50
12/02/2020 10:32:55	120220	12022020	103255	194.14	12.556952	-57.190488	194.21	-0.730	-0.470	2.130	194.14	-1.70	2.70	 	 	 	 	 	 	 	 	 	 	 	 	 	 	 	 	 	 	1581503575	7.75	14.35
12/02/2020 10:32:56	120220	12022020	103256	194.01	12.556920	-57.190505	194.07	-1.070	-0.060	2.690	193.96	-1.40	3.20	 	 	 	 	 	 	 	 	 	 	 	 	 	 	 	 	 	 	1581503576	7.83	14.50
12/02/2020 10:32:57	120220	12022020	103257	193.78	12.556885	-57.190523	193.86	-0.800	0.090	2.910	193.76	-1.20	3.30	 	 	 	 	 	 	 	 	 	 	 	 	 	 	 	 	 	 	1581503577	8.45	15.65
12/02/2020 10:32:58	120220	12022020	103258	193.81	12.556848	-57.190540	193.91	-0.290	0.340	2.640	193.84	-1.00	3.00	 	 	 	 	 	 	 	 	 	 	 	 	 	 	 	 	 	 	1581503578	8.60	15.93
12/02/2020 10:32:59	120220	12022020	103259	194.05	12.556812	-57.190552	194.15	0.100	0.500	2.040	194.11	-0.90	2.30	 	 	 	 	 	 	 	 	 	 	 	 	 	 	 	 	 	 	1581503579	8.30	15.37
12/02/2020 10:33:00	120220	12022020	103300	194.28	12.556775	-57.190563	194.35	0.340	0.380	1.440	194.31	-1.10	1.80	 	 	 	 	 	 	 	 	 	 	 	 	 	 	 	 	 	 	1581503580	8.17	15.13
12/02/2020 10:33:01	120220	12022020	103301	194.40	12.556738	-57.190572	194.44	0.580	0.170	0.990	194.41	-1.30	1.40	1015.40	26.40	26.40	20.50	20.50	30.0	70.0	70.0	399.0	25.9	264.00	9.80	74.00	11.10	2677	9292.0	27.5	27.5	1581503581	8.22	15.22
12/02/2020 10:33:02	120220	12022020	103302	194.45	12.556702	-57.190582	194.48	0.800	-0.060	0.780	194.44	-1.50	1.20	 	 	 	 	 	 	 	 	 	 	 	 	 	 	 	 	 	 	1581503582	8.13	15.06
12/02/2020 10:33:03	120220	12022020	103303	194.39	12.556665	-57.190590	194.41	0.790	-0.480	0.950	194.37	-2.00	1.50	 	 	 	 	 	 	 	 	 	 	 	 	 	 	 	 	 	 	1581503583	8.09	14.98
12/02/2020 10:33:04	120220	12022020	103304	194.33	12.556628	-57.190602	194.38	0.410	-0.850	1.470	194.34	-2.30	2.10	 	 	 	 	 	 	 	 	 	 	 	 	 	 	 	 	 	 	1581503584	8.29	15.35
12/02/2020 10:33:05	120220	12022020	103305	194.44	12.556593	-57.190618	194.50	-0.130	-0.850	2.020	194.44	-2.20	2.60	 	 	 	 	 	 	 	 	 	 	 	 	 	 	 	 	 	 	1581503585	8.26	15.30
12/02/2020 10:33:06	120220	12022020	103306	194.44	12.556560	-57.190635	194.46	-0.470	-0.770	2.550	194.39	-2.20	3.10	 	 	 	 	 	 	 	 	 	 	 	 	 	 	 	 	 	 	1581503586	7.97	14.76
12/02/2020 10:33:07	120220	12022020	103307	194.03	12.556527	-57.190653	194.03	-0.400	-1.050	3.080	193.92	-2.50	3.60	 	 	 	 	 	 	 	 	 	 	 	 	 	 	 	 	 	 	1581503587	8.20	15.19
12/02/2020 10:33:08	120220	12022020	103308	193.56	12.556488	-57.190670	193.61	-0.240	-1.210	3.230	193.51	-2.50	3.60	 	 	 	 	 	 	 	 	 	 	 	 	 	 	 	 	 	 	1581503588	8.86	16.41
12/02/2020 10:33:09	120220	12022020	103309	193.48	12.556450	-57.190685	193.56	-0.290	-0.700	2.920	193.51	-1.90	3.30	 	 	 	 	 	 	 	 	 	 	 	 	 	 	 	 	 	 	1581503589	8.82	16.33
12/02/2020 10:33:10	120220	12022020	103310	193.72	12.556413	-57.190697	193.81	-0.490	0.190	2.440	193.78	-1.00	2.80	 	 	 	 	 	 	 	 	 	 	 	 	 	 	 	 	 	 	1581503590	8.10	15.00
12/02/2020 10:33:11	120220	12022020	103311	193.94	12.556380	-57.190707	193.99	-0.500	0.660	1.990	193.94	-0.70	2.40	 	 	 	 	 	 	 	 	 	 	 	 	 	 	 	 	 	 	1581503591	7.78	14.41
12/02/2020 10:33:12	120220	12022020	103312	193.85	12.556342	-57.190718	193.89	-0.140	0.490	1.780	193.81	-1.00	2.20	 	 	 	 	 	 	 	 	 	 	 	 	 	 	 	 	 	 	1581503592	8.31	15.39
12/02/2020 10:33:13	120220	12022020	103313	193.65	12.556303	-57.190732	193.70	0.340	0.300	1.690	193.64	-1.10	2.10	 	 	 	 	 	 	 	 	 	 	 	 	 	 	 	 	 	 	1581503593	8.84	16.37
12/02/2020 10:33:14	120220	12022020	103314	193.72	12.556265	-57.190742	193.79	0.520	0.500	1.370	193.77	-0.80	1.80	 	 	 	 	 	 	 	 	 	 	 	 	 	 	 	 	 	 	1581503594	8.56	15.85
12/02/2020 10:33:15	120220	12022020	103315	193.94	12.556230	-57.190750	194.00	0.250	0.600	1.180	193.97	-0.90	1.70	 	 	 	 	 	 	 	 	 	 	 	 	 	 	 	 	 	 	1581503595	7.78	14.41
12/02/2020 10:33:16	120220	12022020	103316	193.86	12.556195	-57.190762	193.94	-0.100	0.020	1.640	193.86	-1.60	2.30	 	 	 	 	 	 	 	 	 	 	 	 	 	 	 	 	 	 	1581503596	7.72	14.30
12/02/2020 10:33:17	120220	12022020	103317	193.50	12.556160	-57.190778	193.51	-0.060	-0.970	2.500	193.40	-2.50	3.10	 	 	 	 	 	 	 	 	 	 	 	 	 	 	 	 	 	 	1581503597	8.52	15.78
12/02/2020 10:33:18	120220	12022020	103318	193.15	12.556122	-57.190798	193.23	0.300	-1.460	2.930	193.14	-2.80	3.40	 	 	 	 	 	 	 	 	 	 	 	 	 	 	 	 	 	 	1581503598	9.04	16.74
12/02/2020 10:33:19	120220	12022020	103319	193.22	12.556087	-57.190813	193.42	0.440	-1.050	2.780	193.29	-2.30	3.10	 	 	 	 	 	 	 	 	 	 	 	 	 	 	 	 	 	 	1581503599	8.40	15.56
12/02/2020 10:33:20	120220	12022020	103320	193.79	12.556053	-57.190827	193.92	0.150	-0.370	2.250	193.89	-1.60	2.60	 	 	 	 	 	 	 	 	 	 	 	 	 	 	 	 	 	 	1581503600	7.46	13.82
12/02/2020 10:33:21	120220	12022020	103321	194.13	12.556022	-57.190837	194.17	-0.200	-0.180	1.740	194.14	-1.60	2.10	 	 	 	 	 	 	 	 	 	 	 	 	 	 	 	 	 	 	1581503601	7.29	13.50
12/02/2020 10:33:22	120220	12022020	103322	194.00	12.555985	-57.190848	194.02	-0.170	-0.500	1.560	193.95	-2.00	2.10	 	 	 	 	 	 	 	 	 	 	 	 	 	 	 	 	 	 	1581503602	8.04	14.89
12/02/2020 10:33:23	120220	12022020	103323	193.73	12.555947	-57.190860	193.77	0.090	-0.670	1.650	193.68	-2.00	2.20	 	 	 	 	 	 	 	 	 	 	 	 	 	 	 	 	 	 	1581503603	8.65	16.02
12/02/2020 10:33:24	120220	12022020	103324	193.48	12.555908	-57.190870	193.53	0.220	-0.600	1.750	193.43	-1.90	2.30	 	 	 	 	 	 	 	 	 	 	 	 	 	 	 	 	 	 	1581503604	8.54	15.82
12/02/2020 10:33:25	120220	12022020	103325	193.15	12.555870	-57.190882	193.18	0.070	-0.540	2.010	193.06	-1.90	2.60	 	 	 	 	 	 	 	 	 	 	 	 	 	 	 	 	 	 	1581503605	8.48	15.70
12/02/2020 10:33:26	120220	12022020	103326	192.77	12.555832	-57.190895	192.83	-0.270	-0.400	2.500	192.72	-1.70	3.10	 	 	 	 	 	 	 	 	 	 	 	 	 	 	 	 	 	 	1581503606	8.72	16.15
12/02/2020 10:33:27	120220	12022020	103327	192.67	12.555795	-57.190910	192.79	-0.680	0.140	2.880	192.71	-1.10	3.40	 	 	 	 	 	 	 	 	 	 	 	 	 	 	 	 	 	 	1581503607	8.73	16.17
12/02/2020 10:33:28	120220	12022020	103328	193.01	12.555760	-57.190927	193.17	-0.970	0.900	2.840	193.12	-0.30	3.20	 	 	 	 	 	 	 	 	 	 	 	 	 	 	 	 	 	 	1581503608	8.22	15.22
12/02/2020 10:33:29	120220	12022020	103329	193.55	12.555728	-57.190942	193.70	-0.930	1.280	2.460	193.65	-0.10	2.80	 	 	 	 	 	 	 	 	 	 	 	 	 	 	 	 	 	 	1581503609	7.73	14.32
12/02/2020 10:33:30	120220	12022020	103330	193.91	12.555693	-57.190957	194.01	-0.460	0.790	2.040	193.95	-0.80	2.40	 	 	 	 	 	 	 	 	 	 	 	 	 	 	 	 	 	 	1581503610	7.89	14.61
12/02/2020 10:33:31	120220	12022020	103331	194.02	12.555657	-57.190970	194.11	0.240	-0.190	1.610	194.03	-1.80	2.00	 	 	 	 	 	 	 	 	 	 	 	 	 	 	 	 	 	 	1581503611	8.52	15.78
12/02/2020 10:33:32	120220	12022020	103332	193.97	12.555618	-57.190982	194.05	0.870	-0.940	1.150	193.96	-2.40	1.50	 	 	 	 	 	 	 	 	 	 	 	 	 	 	 	 	 	 	1581503612	8.72	16.15
12/02/2020 10:33:33	120220	12022020	103333	193.96	12.555580	-57.190990	194.05	1.160	-1.140	0.690	193.98	-2.50	1.10	 	 	 	 	 	 	 	 	 	 	 	 	 	 	 	 	 	 	1581503613	8.36	15.48
12/02/2020 10:33:34	120220	12022020	103334	194.00	12.555543	-57.190997	194.06	0.980	-1.000	0.550	193.98	-2.30	1.10	 	 	 	 	 	 	 	 	 	 	 	 	 	 	 	 	 	 	1581503614	7.85	14.54
12/02/2020 10:33:35	120220	12022020	103335	193.77	12.555508	-57.191005	193.80	0.480	-0.920	1.090	193.69	-2.30	1.80	 	 	 	 	 	 	 	 	 	 	 	 	 	 	 	 	 	 	1581503615	7.66	14.19
12/02/2020 10:33:36	120220	12022020	103336	193.27	12.555473	-57.191018	193.31	-0.010	-1.010	1.970	193.16	-2.40	2.70	 	 	 	 	 	 	 	 	 	 	 	 	 	 	 	 	 	 	1581503616	8.13	15.06
12/02/2020 10:33:37	120220	12022020	103337	192.78	12.555437	-57.191035	192.85	-0.330	-0.890	2.830	192.71	-2.10	3.50	 	 	 	 	 	 	 	 	 	 	 	 	 	 	 	 	 	 	1581503617	8.70	16.11
12/02/2020 10:33:38	120220	12022020	103338	192.51	12.555400	-57.191053	192.61	-0.550	-0.270	3.470	192.50	-1.40	4.00	 	 	 	 	 	 	 	 	 	 	 	 	 	 	 	 	 	 	1581503618	8.72	16.15
12/02/2020 10:33:39	120220	12022020	103339	192.64	12.555365	-57.191072	192.78	-0.750	0.580	3.540	192.71	-0.60	3.90	 	 	 	 	 	 	 	 	 	 	 	 	 	 	 	 	 	 	1581503619	8.31	15.39
12/02/2020 10:33:40	120220	12022020	103340	193.05	12.555332	-57.191087	193.19	-0.800	1.060	3.010	193.14	-0.30	3.30	 	 	 	 	 	 	 	 	 	 	 	 	 	 	 	 	 	 	1581503620	7.88	14.59
12/02/2020 10:33:41	120220	12022020	103341	193.42	12.555297	-57.191098	193.55	-0.540	0.690	2.280	193.47	-0.90	2.60	 	 	 	 	 	 	 	 	 	 	 	 	 	 	 	 	 	 	1581503621	8.04	14.89
12/02/2020 10:33:42	120220	12022020	103342	193.55	12.555258	-57.191110	193.65	0.010	-0.210	1.630	193.56	-1.80	2.00	 	 	 	 	 	 	 	 	 	 	 	 	 	 	 	 	 	 	1581503622	8.75	16.21
12/02/2020 10:33:43	120220	12022020	103343	193.56	12.555217	-57.191120	193.65	0.470	-0.900	1.200	193.56	-2.30	1.60	 	 	 	 	 	 	 	 	 	 	 	 	 	 	 	 	 	 	1581503623	9.08	16.82
12/02/2020 10:33:44	120220	12022020	103344	193.57	12.555178	-57.191128	193.66	0.560	-0.950	1.030	193.57	-2.20	1.50	 	 	 	 	 	 	 	 	 	 	 	 	 	 	 	 	 	 	1581503624	8.67	16.06
12/02/2020 10:33:45	120220	12022020	103345	193.53	12.555142	-57.191138	193.60	0.300	-0.560	1.160	193.50	-1.80	1.70	 	 	 	 	 	 	 	 	 	 	 	 	 	 	 	 	 	 	1581503625	7.96	14.74
12/02/2020 10:33:46	120220	12022020	103346	193.28	12.555108	-57.191150	193.33	0.000	-0.280	1.580	193.21	-1.60	2.20	 	 	 	 	 	 	 	 	 	 	 	 	 	 	 	 	 	 	1581503626	7.67	14.20
12/02/2020 10:33:47	120220	12022020	103347	192.96	12.555073	-57.191163	193.03	-0.130	-0.140	2.010	192.92	-1.50	2.60	 	 	 	 	 	 	 	 	 	 	 	 	 	 	 	 	 	 	1581503627	8.03	14.87
12/02/2020 10:33:48	120220	12022020	103348	192.81	12.555038	-57.191178	192.90	-0.150	0.050	2.300	192.81	-1.30	2.80	 	 	 	 	 	 	 	 	 	 	 	 	 	 	 	 	 	 	1581503628	8.23	15.24
12/02/2020 10:33:49	120220	12022020	103349	192.87	12.555003	-57.191193	192.98	-0.090	0.220	2.410	192.91	-1.10	2.80	 	 	 	 	 	 	 	 	 	 	 	 	 	 	 	 	 	 	1581503629	8.17	15.13
12/02/2020 10:33:50	120220	12022020	103350	193.12	12.554968	-57.191207	193.24	0.050	0.180	2.210	193.17	-1.20	2.60	 	 	 	 	 	 	 	 	 	 	 	 	 	 	 	 	 	 	1581503630	8.09	14.98
12/02/2020 10:33:51	120220	12022020	103351	193.31	12.554932	-57.191220	193.40	0.330	-0.210	1.930	193.33	-1.70	2.30	 	 	 	 	 	 	 	 	 	 	 	 	 	 	 	 	 	 	1581503631	8.21	15.20
12/02/2020 10:33:52	120220	12022020	103352	193.44	12.554893	-57.191232	193.55	0.640	-0.650	1.550	193.48	-2.10	1.90	 	 	 	 	 	 	 	 	 	 	 	 	 	 	 	 	 	 	1581503632	8.49	15.72
12/02/2020 10:33:53	120220	12022020	103353	193.54	12.554855	-57.191240	193.61	0.630	-0.920	1.310	193.51	-2.30	1.80	 	 	 	 	 	 	 	 	 	 	 	 	 	 	 	 	 	 	1581503633	8.47	15.69
12/02/2020 10:33:54	120220	12022020	103354	193.24	12.554817	-57.191248	193.28	0.160	-1.130	1.730	193.14	-2.50	2.40	 	 	 	 	 	 	 	 	 	 	 	 	 	 	 	 	 	 	1581503634	8.38	15.52
12/02/2020 10:33:55	120220	12022020	103355	192.72	12.554780	-57.191263	192.78	-0.530	-1.090	2.510	192.63	-2.40	3.20	 	 	 	 	 	 	 	 	 	 	 	 	 	 	 	 	 	 	1581503635	8.60	15.93
12/02/2020 10:33:56	120220	12022020	103356	192.34	12.554745	-57.191283	192.43	-1.000	-0.530	3.130	192.29	-1.70	3.70	 	 	 	 	 	 	 	 	 	 	 	 	 	 	 	 	 	 	1581503636	8.70	16.11
12/02/2020 10:33:57	120220	12022020	103357	192.19	12.554710	-57.191302	192.27	-0.880	0.330	3.220	192.17	-0.90	3.60	 	 	 	 	 	 	 	 	 	 	 	 	 	 	 	 	 	 	1581503637	8.32	15.41
12/02/2020 10:33:58	120220	12022020	103358	192.29	12.554677	-57.191317	192.41	-0.320	0.930	2.590	192.35	-0.40	2.80	 	 	 	 	 	 	 	 	 	 	 	 	 	 	 	 	 	 	1581503638	7.88	14.59
12/02/2020 10:33:59	120220	12022020	103359	192.63	12.554642	-57.191325	192.75	0.270	0.820	1.640	192.70	-0.70	1.90	 	 	 	 	 	 	 	 	 	 	 	 	 	 	 	 	 	 	1581503639	7.93	14.69
12/02/2020 10:34:00	120220	12022020	103400	192.98	12.554602	-57.191332	193.05	0.580	0.050	1.020	192.98	-1.50	1.50	 	 	 	 	 	 	 	 	 	 	 	 	 	 	 	 	 	 	1581503640	8.49	15.72
12/02/2020 10:34:01	120220	12022020	103401	193.05	12.554562	-57.191338	193.14	0.580	-0.750	1.060	193.05	-2.20	1.60	1015.40	26.20	26.30	20.30	20.40	30.0	69.0	70.0	400.0	26.0	263.00	10.70	76.00	12.00	2815	9474.0	27.5	27.4	1581503641	8.89	16.46
12/02/2020 10:34:02	120220	12022020	103402	192.89	12.554522	-57.191350	192.95	0.450	-1.030	1.710	192.83	-2.40	2.40	 	 	 	 	 	 	 	 	 	 	 	 	 	 	 	 	 	 	1581503642	8.73	16.17
12/02/2020 10:34:03	120220	12022020	103403	192.59	12.554487	-57.191365	192.67	0.300	-0.690	2.520	192.55	-1.90	3.10	 	 	 	 	 	 	 	 	 	 	 	 	 	 	 	 	 	 	1581503643	8.30	15.37
12/02/2020 10:34:04	120220	12022020	103404	192.54	12.554453	-57.191380	192.65	0.090	-0.040	2.870	192.55	-1.30	3.30	 	 	 	 	 	 	 	 	 	 	 	 	 	 	 	 	 	 	1581503644	7.88	14.59
12/02/2020 10:34:05	120220	12022020	103405	192.64	12.554420	-57.191395	192.74	-0.150	0.290	2.720	192.65	-1.10	3.10	 	 	 	 	 	 	 	 	 	 	 	 	 	 	 	 	 	 	1581503645	7.54	13.96
12/02/2020 10:34:06	120220	12022020	103406	192.56	12.554387	-57.191407	192.62	-0.230	-0.210	2.400	192.50	-1.80	2.80	 	 	 	 	 	 	 	 	 	 	 	 	 	 	 	 	 	 	1581503646	7.89	14.61
12/02/2020 10:34:07	120220	12022020	103407	192.24	12.554347	-57.191418	192.28	-0.100	-1.160	2.070	192.16	-2.70	2.50	 	 	 	 	 	 	 	 	 	 	 	 	 	 	 	 	 	 	1581503647	8.82	16.33
12/02/2020 10:34:08	120220	12022020	103408	191.88	12.554305	-57.191430	191.92	0.040	-1.540	1.860	191.81	-2.80	2.30	 	 	 	 	 	 	 	 	 	 	 	 	 	 	 	 	 	 	1581503648	9.26	17.15
12/02/2020 10:34:09	120220	12022020	103409	191.70	12.554267	-57.191442	191.77	-0.020	-0.940	1.650	191.69	-2.10	2.10	 	 	 	 	 	 	 	 	 	 	 	 	 	 	 	 	 	 	1581503649	8.69	16.09
12/02/2020 10:34:10	120220	12022020	103410	191.97	12.554232	-57.191453	192.10	-0.260	0.120	1.330	192.07	-1.00	1.70	 	 	 	 	 	 	 	 	 	 	 	 	 	 	 	 	 	 	1581503650	7.83	14.50
12/02/2020 10:34:11	120220	12022020	103411	192.50	12.554198	-57.191463	192.62	-0.410	0.780	1.040	192.60	-0.60	1.50	 	 	 	 	 	 	 	 	 	 	 	 	 	 	 	 	 	 	1581503651	7.50	13.89
12/02/2020 10:34:12	120220	12022020	103412	192.90	12.554163	-57.191475	193.00	-0.230	0.740	1.030	192.95	-0.70	1.60	 	 	 	 	 	 	 	 	 	 	 	 	 	 	 	 	 	 	1581503652	7.99	14.80
12/02/2020 10:34:13	120220	12022020	103413	193.07	12.554125	-57.191487	193.16	0.120	0.390	1.350	193.09	-1.10	1.90	 	 	 	 	 	 	 	 	 	 	 	 	 	 	 	 	 	 	1581503653	8.58	15.89
12/02/2020 10:34:14	120220	12022020	103414	193.14	12.554087	-57.191498	193.24	0.290	0.090	1.720	193.14	-1.40	2.30	 	 	 	 	 	 	 	 	 	 	 	 	 	 	 	 	 	 	1581503654	8.62	15.96
12/02/2020 10:34:15	120220	12022020	103415	193.03	12.554048	-57.191510	193.12	0.210	-0.300	2.190	192.99	-1.80	2.80	 	 	 	 	 	 	 	 	 	 	 	 	 	 	 	 	 	 	1581503655	8.39	15.54
12/02/2020 10:34:16	120220	12022020	103416	192.84	12.554012	-57.191523	192.94	0.100	-0.710	2.540	192.82	-2.10	3.00	 	 	 	 	 	 	 	 	 	 	 	 	 	 	 	 	 	 	1581503656	8.45	15.65
12/02/2020 10:34:17	120220	12022020	103417	192.79	12.553975	-57.191538	192.90	0.110	-0.850	2.500	192.79	-2.20	2.90	 	 	 	 	 	 	 	 	 	 	 	 	 	 	 	 	 	 	1581503657	8.43	15.61
12/02/2020 10:34:18	120220	12022020	103418	192.71	12.553940	-57.191550	192.78	0.210	-0.800	2.290	192.66	-2.20	2.70	 	 	 	 	 	 	 	 	 	 	 	 	 	 	 	 	 	 	1581503658	8.09	14.98
12/02/2020 10:34:19	120220	12022020	103419	192.47	12.553903	-57.191560	192.44	0.230	-0.790	2.220	192.39	-2.20	2.70	 	 	 	 	 	 	 	 	 	 	 	 	 	 	 	 	 	 	1581503659	8.04	14.89
12/02/2020 10:34:20	120220	12022020	103420	191.97	12.553867	-57.191572	192.02	0.030	-0.820	2.420	191.89	-2.20	3.00	 	 	 	 	 	 	 	 	 	 	 	 	 	 	 	 	 	 	1581503660	8.33	15.43
12/02/2020 10:34:21	120220	12022020	103421	191.69	12.553828	-57.191587	191.72	-0.240	-0.660	2.750	191.65	-1.90	3.30	 	 	 	 	 	 	 	 	 	 	 	 	 	 	 	 	 	 	1581503661	8.64	16.00
12/02/2020 10:34:22	120220	12022020	103422	191.70	12.553792	-57.191603	191.80	-0.380	-0.090	2.750	191.75	-1.30	3.20	 	 	 	 	 	 	 	 	 	 	 	 	 	 	 	 	 	 	1581503662	8.64	16.00
12/02/2020 10:34:23	120220	12022020	103423	191.95	12.553757	-57.191617	192.13	-0.300	0.600	2.340	192.03	-0.70	2.70	 	 	 	 	 	 	 	 	 	 	 	 	 	 	 	 	 	 	1581503663	8.11	15.02
12/02/2020 10:34:24	120220	12022020	103424	192.37	12.553722	-57.191627	192.45	-0.050	0.790	1.830	192.43	-0.60	2.20	 	 	 	 	 	 	 	 	 	 	 	 	 	 	 	 	 	 	1581503664	7.90	14.63
12/02/2020 10:34:25	120220	12022020	103425	192.75	12.553683	-57.191635	192.84	0.080	0.420	1.340	192.83	-1.10	1.70	 	 	 	 	 	 	 	 	 	 	 	 	 	 	 	 	 	 	1581503665	8.36	15.48
12/02/2020 10:34:26	120220	12022020	103426	193.23	12.553645	-57.191643	193.34	-0.060	-0.070	1.090	193.33	-1.60	1.60	 	 	 	 	 	 	 	 	 	 	 	 	 	 	 	 	 	 	1581503666	8.63	15.98
12/02/2020 10:34:27	120220	12022020	103427	193.57	12.553607	-57.191655	193.65	-0.190	-0.560	1.130	193.60	-2.10	1.70	 	 	 	 	 	 	 	 	 	 	 	 	 	 	 	 	 	 	1581503667	8.47	15.69
12/02/2020 10:34:28	120220	12022020	103428	193.56	12.553570	-57.191668	193.61	0.020	-1.060	1.390	193.53	-2.50	1.90	 	 	 	 	 	 	 	 	 	 	 	 	 	 	 	 	 	 	1581503668	8.46	15.67
12/02/2020 10:34:29	120220	12022020	103429	193.37	12.553532	-57.191682	193.41	0.440	-1.230	1.590	193.33	-2.60	2.10	 	 	 	 	 	 	 	 	 	 	 	 	 	 	 	 	 	 	1581503669	8.60	15.93
12/02/2020 10:34:30	120220	12022020	103430	193.22	12.553495	-57.191692	193.27	0.470	-0.850	1.770	193.20	-2.10	2.30	 	 	 	 	 	 	 	 	 	 	 	 	 	 	 	 	 	 	1581503670	8.32	15.41
12/02/2020 10:34:31	120220	12022020	103431	193.07	12.553460	-57.191703	193.12	-0.020	-0.320	2.000	193.03	-1.60	2.50	 	 	 	 	 	 	 	 	 	 	 	 	 	 	 	 	 	 	1581503671	7.89	14.61
12/02/2020 10:34:32	120220	12022020	103432	192.80	12.553425	-57.191717	192.83	-0.590	-0.070	2.290	192.74	-1.40	2.80	 	 	 	 	 	 	 	 	 	 	 	 	 	 	 	 	 	 	1581503672	8.00	14.82
12/02/2020 10:34:33	120220	12022020	103433	192.54	12.553388	-57.191733	192.58	-0.680	-0.040	2.490	192.50	-1.40	3.00	 	 	 	 	 	 	 	 	 	 	 	 	 	 	 	 	 	 	1581503673	8.57	15.87
12/02/2020 10:34:34	120220	12022020	103434	192.40	12.553350	-57.191748	192.47	-0.180	0.140	2.330	192.40	-1.20	2.70	 	 	 	 	 	 	 	 	 	 	 	 	 	 	 	 	 	 	1581503674	8.77	16.24
12/02/2020 10:34:35	120220	12022020	103435	192.39	12.553313	-57.191760	192.45	0.360	0.390	2.050	192.38	-1.00	2.50	 	 	 	 	 	 	 	 	 	 	 	 	 	 	 	 	 	 	1581503675	8.40	15.56
12/02/2020 10:34:36	120220	12022020	103436	192.28	12.553277	-57.191770	192.32	0.470	0.210	2.010	192.24	-1.30	2.50	 	 	 	 	 	 	 	 	 	 	 	 	 	 	 	 	 	 	1581503676	8.22	15.22
12/02/2020 10:34:37	120220	12022020	103437	192.05	12.553238	-57.191782	192.10	0.180	-0.290	2.250	192.03	-1.80	2.80	 	 	 	 	 	 	 	 	 	 	 	 	 	 	 	 	 	 	1581503677	8.58	15.89
12/02/2020 10:34:38	120220	12022020	103438	192.06	12.553200	-57.191797	192.15	-0.220	-0.540	2.470	192.11	-1.90	2.90	 	 	 	 	 	 	 	 	 	 	 	 	 	 	 	 	 	 	1581503678	8.81	16.32
12/02/2020 10:34:39	120220	12022020	103439	192.49	12.553163	-57.191812	192.64	-0.440	-0.280	2.320	192.62	-1.60	2.70	 	 	 	 	 	 	 	 	 	 	 	 	 	 	 	 	 	 	1581503679	8.40	15.56
12/02/2020 10:34:40	120220	12022020	103440	193.21	12.553130	-57.191827	193.35	-0.330	0.030	1.600	193.36	-1.40	1.80	 	 	 	 	 	 	 	 	 	 	 	 	 	 	 	 	 	 	1581503680	7.73	14.32
12/02/2020 10:34:41	120220	12022020	103441	193.86	12.553097	-57.191837	193.95	0.070	-0.210	0.710	193.95	-1.70	1.00	 	 	 	 	 	 	 	 	 	 	 	 	 	 	 	 	 	 	1581503681	7.65	14.17
12/02/2020 10:34:42	120220	12022020	103442	194.09	12.553058	-57.191843	194.12	0.570	-0.980	0.390	194.05	-2.60	0.90	 	 	 	 	 	 	 	 	 	 	 	 	 	 	 	 	 	 	1581503682	8.32	15.41
12/02/2020 10:34:43	120220	12022020	103443	193.65	12.553018	-57.191852	193.61	0.840	-1.730	0.840	193.49	-3.20	1.50	 	 	 	 	 	 	 	 	 	 	 	 	 	 	 	 	 	 	1581503683	8.95	16.58
12/02/2020 10:34:44	120220	12022020	103444	192.88	12.552977	-57.191863	192.88	0.570	-1.680	1.770	192.76	-2.90	2.50	 	 	 	 	 	 	 	 	 	 	 	 	 	 	 	 	 	 	1581503684	9.18	17.00
12/02/2020 10:34:45	120220	12022020	103445	192.50	12.552938	-57.191877	192.52	-0.250	-0.470	2.760	192.45	-1.50	3.40	 	 	 	 	 	 	 	 	 	 	 	 	 	 	 	 	 	 	1581503685	8.67	16.06
12/02/2020 10:34:46	120220	12022020	103446	192.49	12.552907	-57.191893	192.60	-1.130	1.180	3.400	192.55	0.10	3.90	 	 	 	 	 	 	 	 	 	 	 	 	 	 	 	 	 	 	1581503686	7.84	14.52
12/02/2020 10:34:47	120220	12022020	103447	192.83	12.552877	-57.191913	192.96	-1.420	2.010	3.440	192.90	0.60	3.80	 	 	 	 	 	 	 	 	 	 	 	 	 	 	 	 	 	 	1581503687	7.61	14.09
12/02/2020 10:34:48	120220	12022020	103448	193.18	12.552842	-57.191930	193.29	-0.820	1.410	2.880	193.24	-0.30	3.20	 	 	 	 	 	 	 	 	 	 	 	 	 	 	 	 	 	 	1581503688	8.18	15.15
12/02/2020 10:34:49	120220	12022020	103449	193.39	12.552802	-57.191943	193.46	0.210	-0.030	2.120	193.39	-1.80	2.50	 	 	 	 	 	 	 	 	 	 	 	 	 	 	 	 	 	 	1581503689	9.19	17.02
12/02/2020 10:34:50	120220	12022020	103450	193.29	12.552758	-57.191955	193.31	0.940	-1.170	1.580	193.23	-2.70	1.90	 	 	 	 	 	 	 	 	 	 	 	 	 	 	 	 	 	 	1581503690	9.55	17.69
12/02/2020 10:34:51	120220	12022020	103451	193.00	12.552718	-57.191967	193.02	1.080	-1.350	1.070	192.97	-2.60	1.40	 	 	 	 	 	 	 	 	 	 	 	 	 	 	 	 	 	 	1581503691	8.91	16.50
12/02/2020 10:34:52	120220	12022020	103452	192.99	12.552683	-57.191975	193.03	0.790	-0.740	0.430	193.03	-2.00	0.80	 	 	 	 	 	 	 	 	 	 	 	 	 	 	 	 	 	 	1581503692	7.90	14.63
12/02/2020 10:34:53	120220	12022020	103453	193.31	12.552650	-57.191980	193.38	0.390	-0.240	0.050	193.39	-1.60	0.50	 	 	 	 	 	 	 	 	 	 	 	 	 	 	 	 	 	 	1581503693	7.29	13.50
12/02/2020 10:34:54	120220	12022020	103454	193.70	12.552615	-57.191988	193.77	-0.020	-0.320	0.290	193.78	-1.80	0.90	 	 	 	 	 	 	 	 	 	 	 	 	 	 	 	 	 	 	1581503694	7.67	14.20
12/02/2020 10:34:55	120220	12022020	103455	194.06	12.552578	-57.192003	194.14	-0.490	-0.590	1.040	194.12	-2.00	1.80	 	 	 	 	 	 	 	 	 	 	 	 	 	 	 	 	 	 	1581503695	8.45	15.65
12/02/2020 10:34:56	120220	12022020	103456	194.26	12.552542	-57.192022	194.32	-0.920	-0.590	2.070	194.26	-1.90	2.80	 	 	 	 	 	 	 	 	 	 	 	 	 	 	 	 	 	 	1581503696	8.75	16.21
12/02/2020 10:34:57	120220	12022020	103457	194.14	12.552508	-57.192043	194.17	-0.910	-0.460	2.890	194.06	-1.90	3.50	 	 	 	 	 	 	 	 	 	 	 	 	 	 	 	 	 	 	1581503697	8.70	16.11
12/02/2020 10:34:58	120220	12022020	103458	193.60	12.552472	-57.192063	193.61	-0.210	-0.560	3.240	193.44	-2.00	3.70	 	 	 	 	 	 	 	 	 	 	 	 	 	 	 	 	 	 	1581503698	8.67	16.06
12/02/2020 10:34:59	120220	12022020	103459	192.95	12.552433	-57.192078	192.79	0.710	-0.620	3.170	192.80	-1.90	3.60	 	 	 	 	 	 	 	 	 	 	 	 	 	 	 	 	 	 	1581503699	8.94	16.56
12/02/2020 10:35:00	120220	12022020	103500	192.13	12.552393	-57.192087	192.15	1.050	-0.170	2.760	192.04	-1.40	3.10	 	 	 	 	 	 	 	 	 	 	 	 	 	 	 	 	 	 	1581503700	8.94	16.56
12/02/2020 10:35:01	120220	12022020	103501	191.91	12.552355	-57.192092	191.96	0.490	0.640	2.100	191.93	-0.60	2.40	1015.40	26.30	26.30	20.40	20.40	31.0	70.0	70.0	400.0	26.0	262.00	10.30	74.00	11.70	2953	9705.0	27.5	27.4	1581503701	8.33	15.43
12/02/2020 10:35:02	120220	12022020	103502	192.21	12.552318	-57.192098	192.30	-0.490	1.180	1.610	192.30	-0.20	2.00	 	 	 	 	 	 	 	 	 	 	 	 	 	 	 	 	 	 	1581503702	7.71	14.28
12/02/2020 10:35:03	120220	12022020	103503	192.72	12.552285	-57.192112	192.83	-1.080	0.980	1.520	192.82	-0.60	2.00	 	 	 	 	 	 	 	 	 	 	 	 	 	 	 	 	 	 	1581503703	7.79	14.43
12/02/2020 10:35:04	120220	12022020	103504	193.07	12.552250	-57.192130	193.15	-0.780	0.100	1.540	193.11	-1.50	2.00	 	 	 	 	 	 	 	 	 	 	 	 	 	 	 	 	 	 	1581503704	8.48	15.70
12/02/2020 10:35:05	120220	12022020	103505	193.20	12.552213	-57.192148	193.26	0.130	-0.950	1.410	193.22	-2.50	1.80	 	 	 	 	 	 	 	 	 	 	 	 	 	 	 	 	 	 	1581503705	8.93	16.54
12/02/2020 10:35:06	120220	12022020	103506	193.29	12.552175	-57.192163	193.36	0.870	-1.500	1.180	193.32	-2.90	1.60	 	 	 	 	 	 	 	 	 	 	 	 	 	 	 	 	 	 	1581503706	8.83	16.35
12/02/2020 10:35:07	120220	12022020	103507	193.41	12.552138	-57.192175	193.47	0.970	-1.310	0.970	193.43	-2.60	1.40	 	 	 	 	 	 	 	 	 	 	 	 	 	 	 	 	 	 	1581503707	8.21	15.20
12/02/2020 10:35:08	120220	12022020	103508	193.47	12.552103	-57.192183	193.51	0.580	-0.700	0.860	193.47	-2.00	1.40	 	 	 	 	 	 	 	 	 	 	 	 	 	 	 	 	 	 	1581503708	7.57	14.02
12/02/2020 10:35:09	120220	12022020	103509	193.38	12.552070	-57.192193	193.42	0.100	-0.250	1.010	193.34	-1.60	1.60	 	 	 	 	 	 	 	 	 	 	 	 	 	 	 	 	 	 	1581503709	7.42	13.74
12/02/2020 10:35:10	120220	12022020	103510	193.09	12.552035	-57.192203	193.09	-0.140	-0.190	1.480	192.99	-1.60	2.10	 	 	 	 	 	 	 	 	 	 	 	 	 	 	 	 	 	 	1581503710	7.85	14.54
12/02/2020 10:35:11	120220	12022020	103511	192.61	12.551998	-57.192217	192.49	-0.160	-0.360	2.220	192.48	-1.80	2.90	 	 	 	 	 	 	 	 	 	 	 	 	 	 	 	 	 	 	1581503711	8.46	15.67
12/02/2020 10:35:12	120220	12022020	103512	191.97	12.551960	-57.192232	192.04	-0.250	-0.300	2.780	191.92	-1.60	3.40	 	 	 	 	 	 	 	 	 	 	 	 	 	 	 	 	 	 	1581503712	8.88	16.45
12/02/2020 10:35:13	120220	12022020	103513	191.87	12.551923	-57.192248	192.00	-0.510	0.070	3.060	191.88	-1.20	3.60	 	 	 	 	 	 	 	 	 	 	 	 	 	 	 	 	 	 	1581503713	8.61	15.95
12/02/2020 10:35:14	120220	12022020	103514	192.24	12.551888	-57.192265	192.39	-0.690	0.490	2.950	192.34	-0.80	3.30	 	 	 	 	 	 	 	 	 	 	 	 	 	 	 	 	 	 	1581503714	8.19	15.17
12/02/2020 10:35:15	120220	12022020	103515	192.84	12.551855	-57.192280	192.97	-0.520	0.510	2.460	192.94	-1.00	2.80	 	 	 	 	 	 	 	 	 	 	 	 	 	 	 	 	 	 	1581503715	7.85	14.54
12/02/2020 10:35:16	120220	12022020	103516	193.21	12.551820	-57.192293	193.30	-0.080	-0.040	1.990	193.23	-1.60	2.40	 	 	 	 	 	 	 	 	 	 	 	 	 	 	 	 	 	 	1581503716	8.01	14.83
12/02/2020 10:35:17	120220	12022020	103517	193.15	12.551783	-57.192305	193.19	0.440	-0.740	1.690	193.10	-2.20	2.10	 	 	 	 	 	 	 	 	 	 	 	 	 	 	 	 	 	 	1581503717	8.42	15.59
12/02/2020 10:35:18	120220	12022020	103518	192.92	12.551745	-57.192317	192.97	0.740	-0.940	1.490	192.88	-2.30	2.00	 	 	 	 	 	 	 	 	 	 	 	 	 	 	 	 	 	 	1581503718	8.47	15.69
12/02/2020 10:35:19	120220	12022020	103519	192.77	12.551710	-57.192328	192.82	0.740	-0.480	1.380	192.75	-1.70	1.90	 	 	 	 	 	 	 	 	 	 	 	 	 	 	 	 	 	 	1581503719	7.87	14.58
12/02/2020 10:35:20	120220	12022020	103520	192.67	12.551678	-57.192337	192.71	0.480	-0.040	1.470	192.65	-1.40	2.00	 	 	 	 	 	 	 	 	 	 	 	 	 	 	 	 	 	 	1581503720	7.27	13.46
12/02/2020 10:35:21	120220	12022020	103521	192.53	12.551645	-57.192347	192.58	0.090	-0.060	1.910	192.50	-1.50	2.60	 	 	 	 	 	 	 	 	 	 	 	 	 	 	 	 	 	 	1581503721	7.50	13.89
12/02/2020 10:35:22	120220	12022020	103522	192.38	12.551610	-57.192362	192.45	-0.250	-0.260	2.520	192.36	-1.70	3.10	 	 	 	 	 	 	 	 	 	 	 	 	 	 	 	 	 	 	1581503722	8.16	15.11
12/02/2020 10:35:23	120220	12022020	103523	192.33	12.551575	-57.192380	192.42	-0.400	-0.190	2.760	192.33	-1.50	3.20	 	 	 	 	 	 	 	 	 	 	 	 	 	 	 	 	 	 	1581503723	8.35	15.46
12/02/2020 10:35:24	120220	12022020	103524	192.38	12.551542	-57.192395	192.45	-0.310	0.040	2.440	192.39	-1.30	2.80	 	 	 	 	 	 	 	 	 	 	 	 	 	 	 	 	 	 	1581503724	7.94	14.70
12/02/2020 10:35:25	120220	12022020	103525	192.45	12.551508	-57.192407	192.51	-0.050	-0.050	1.770	192.45	-1.50	2.10	 	 	 	 	 	 	 	 	 	 	 	 	 	 	 	 	 	 	1581503725	7.63	14.13
12/02/2020 10:35:26	120220	12022020	103526	192.31	12.551472	-57.192417	192.31	0.230	-0.570	1.230	192.23	-2.10	1.70	 	 	 	 	 	 	 	 	 	 	 	 	 	 	 	 	 	 	1581503726	7.86	14.56
12/02/2020 10:35:27	120220	12022020	103527	191.69	12.551435	-57.192425	191.64	0.420	-1.170	1.170	191.52	-2.60	1.70	 	 	 	 	 	 	 	 	 	 	 	 	 	 	 	 	 	 	1581503727	8.26	15.30
12/02/2020 10:35:28	120220	12022020	103528	190.73	12.551397	-57.192435	190.67	0.410	-1.350	1.430	190.54	-2.70	2.00	 	 	 	 	 	 	 	 	 	 	 	 	 	 	 	 	 	 	1581503728	8.45	15.65
12/02/2020 10:35:29	120220	12022020	103529	189.87	12.551360	-57.192447	189.86	0.090	-0.800	1.740	189.74	-2.00	2.30	 	 	 	 	 	 	 	 	 	 	 	 	 	 	 	 	 	 	1581503729	8.19	15.17
12/02/2020 10:35:30	120220	12022020	103530	189.34	12.551327	-57.192460	189.36	-0.460	0.240	1.940	189.27	-0.90	2.40	 	 	 	 	 	 	 	 	 	 	 	 	 	 	 	 	 	 	1581503730	7.61	14.09
12/02/2020 10:35:31	120220	12022020	103531	189.03	12.551297	-57.192473	189.06	-0.970	1.120	1.880	188.99	-0.10	2.30	 	 	 	 	 	 	 	 	 	 	 	 	 	 	 	 	 	 	1581503731	7.20	13.33
12/02/2020 10:35:32	120220	12022020	103532	188.80	12.551267	-57.192488	188.82	-1.070	1.300	1.570	188.74	-0.20	2.00	 	 	 	 	 	 	 	 	 	 	 	 	 	 	 	 	 	 	1581503732	7.32	13.56
12/02/2020 10:35:33	120220	12022020	103533	188.44	12.551232	-57.192502	188.44	-0.560	0.670	1.160	188.35	-0.90	1.50	 	 	 	 	 	 	 	 	 	 	 	 	 	 	 	 	 	 	1581503733	7.82	14.48
12/02/2020 10:35:34	120220	12022020	103534	187.85	12.551197	-57.192515	187.81	0.390	-0.350	0.800	187.68	-2.00	1.30	 	 	 	 	 	 	 	 	 	 	 	 	 	 	 	 	 	 	1581503734	8.25	15.28
12/02/2020 10:35:35	120220	12022020	103535	186.85	12.551158	-57.192523	186.78	1.190	-1.190	0.820	186.60	-2.70	1.40	 	 	 	 	 	 	 	 	 	 	 	 	 	 	 	 	 	 	1581503735	8.31	15.39
12/02/2020 10:35:36	120220	12022020	103536	185.60	12.551122	-57.192530	185.54	1.320	-1.370	1.140	185.35	-2.70	1.70	 	 	 	 	 	 	 	 	 	 	 	 	 	 	 	 	 	 	1581503736	8.02	14.85
12/02/2020 10:35:37	120220	12022020	103537	184.64	12.551088	-57.192537	184.43	0.740	-0.790	1.700	184.44	-1.90	2.30	 	 	 	 	 	 	 	 	 	 	 	 	 	 	 	 	 	 	1581503737	7.39	13.69
12/02/2020 10:35:38	120220	12022020	103538	183.51	12.551058	-57.192547	183.57	-0.120	0.060	2.350	183.36	-1.10	3.00	 	 	 	 	 	 	 	 	 	 	 	 	 	 	 	 	 	 	1581503738	6.80	12.59
12/02/2020 10:35:39	120220	12022020	103539	182.70	12.551028	-57.192560	182.74	-0.700	0.500	2.880	182.54	-0.90	3.50	 	 	 	 	 	 	 	 	 	 	 	 	 	 	 	 	 	 	1581503739	6.78	12.56
12/02/2020 10:35:40	120220	12022020	103540	181.72	12.550998	-57.192573	181.72	-0.760	0.180	3.350	181.50	-1.30	3.90	 	 	 	 	 	 	 	 	 	 	 	 	 	 	 	 	 	 	1581503740	7.32	13.56
12/02/2020 10:35:41	120220	12022020	103541	180.44	12.550962	-57.192587	180.40	-0.450	-0.550	3.800	180.16	-2.00	4.40	 	 	 	 	 	 	 	 	 	 	 	 	 	 	 	 	 	 	1581503741	8.11	15.02
12/02/2020 10:35:42	120220	12022020	103542	179.07	12.550925	-57.192600	179.06	-0.140	-0.910	4.040	178.81	-2.20	4.50	 	 	 	 	 	 	 	 	 	 	 	 	 	 	 	 	 	 	1581503742	8.41	15.58
12/02/2020 10:35:43	120220	12022020	103543	177.86	12.550890	-57.192610	177.87	-0.010	-0.600	3.840	177.63	-1.80	4.20	 	 	 	 	 	 	 	 	 	 	 	 	 	 	 	 	 	 	1581503743	7.82	14.48
12/02/2020 10:35:44	120220	12022020	103544	176.75	12.550858	-57.192618	176.74	0.090	-0.010	3.260	176.53	-1.20	3.60	 	 	 	 	 	 	 	 	 	 	 	 	 	 	 	 	 	 	1581503744	6.96	12.89
12/02/2020 10:35:45	120220	12022020	103545	175.69	12.550828	-57.192622	175.68	0.320	0.380	2.390	175.48	-0.90	2.70	 	 	 	 	 	 	 	 	 	 	 	 	 	 	 	 	 	 	1581503745	6.55	12.13
12/02/2020 10:35:46	120220	12022020	103546	174.70	12.550798	-57.192620	174.65	0.540	0.350	1.500	174.50	-1.10	1.80	 	 	 	 	 	 	 	 	 	 	 	 	 	 	 	 	 	 	1581503746	6.61	12.24
12/02/2020 10:35:47	120220	12022020	103547	173.68	12.550767	-57.192618	173.60	0.490	-0.050	1.050	173.46	-1.50	1.50	 	 	 	 	 	 	 	 	 	 	 	 	 	 	 	 	 	 	1581503747	6.87	12.72
12/02/2020 10:35:48	120220	12022020	103548	172.55	12.550733	-57.192617	172.47	0.080	-0.460	1.360	172.32	-1.80	2.00	 	 	 	 	 	 	 	 	 	 	 	 	 	 	 	 	 	 	1581503748	7.06	13.08
12/02/2020 10:35:49	120220	12022020	103549	171.57	12.550700	-57.192622	171.26	-0.460	-0.550	2.280	171.34	-1.90	3.00	 	 	 	 	 	 	 	 	 	 	 	 	 	 	 	 	 	 	1581503749	7.11	13.17
12/02/2020 10:35:50	120220	12022020	103550	170.10	12.550668	-57.192633	170.01	-0.720	-0.410	3.230	169.85	-1.70	3.90	 	 	 	 	 	 	 	 	 	 	 	 	 	 	 	 	 	 	1581503750	7.19	13.32
12/02/2020 10:35:51	120220	12022020	103551	168.81	12.550638	-57.192645	168.74	-0.480	-0.310	3.860	168.56	-1.60	4.40	 	 	 	 	 	 	 	 	 	 	 	 	 	 	 	 	 	 	1581503751	7.20	13.33
12/02/2020 10:35:52	120220	12022020	103552	167.42	12.550607	-57.192655	167.33	0.140	-0.370	4.090	167.15	-1.70	4.60	 	 	 	 	 	 	 	 	 	 	 	 	 	 	 	 	 	 	1581503752	7.06	13.08
12/02/2020 10:35:53	120220	12022020	103553	166.03	12.550575	-57.192658	165.94	0.680	-0.340	3.850	165.77	-1.60	4.20	 	 	 	 	 	 	 	 	 	 	 	 	 	 	 	 	 	 	1581503753	6.90	12.78
12/02/2020 10:35:54	120220	12022020	103554	164.94	12.550545	-57.192657	164.88	0.750	-0.000	3.110	164.77	-1.20	3.40	 	 	 	 	 	 	 	 	 	 	 	 	 	 	 	 	 	 	1581503754	6.45	11.95
12/02/2020 10:35:55	120220	12022020	103555	164.21	12.550518	-57.192652	164.16	0.340	0.400	2.290	164.08	-0.90	2.60	 	 	 	 	 	 	 	 	 	 	 	 	 	 	 	 	 	 	1581503755	5.84	10.82
12/02/2020 10:35:56	120220	12022020	103556	163.55	12.550492	-57.192647	163.48	-0.180	0.400	1.880	163.40	-1.00	2.40	 	 	 	 	 	 	 	 	 	 	 	 	 	 	 	 	 	 	1581503756	5.57	10.32
12/02/2020 10:35:57	120220	12022020	103557	162.59	12.550465	-57.192645	162.46	-0.440	-0.190	1.990	162.35	-1.70	2.60	 	 	 	 	 	 	 	 	 	 	 	 	 	 	 	 	 	 	1581503757	6.00	11.11
12/02/2020 10:35:58	120220	12022020	103558	161.25	12.550433	-57.192647	161.08	-0.390	-0.890	2.470	160.95	-2.30	3.10	 	 	 	 	 	 	 	 	 	 	 	 	 	 	 	 	 	 	1581503758	6.73	12.46
12/02/2020 10:35:59	120220	12022020	103559	159.71	12.550402	-57.192648	159.56	-0.220	-1.140	3.220	159.41	-2.40	3.90	 	 	 	 	 	 	 	 	 	 	 	 	 	 	 	 	 	 	1581503759	6.95	12.87
12/02/2020 10:36:00	120220	12022020	103600	158.26	12.550370	-57.192653	158.15	-0.110	-0.810	3.820	158.00	-2.00	4.40	 	 	 	 	 	 	 	 	 	 	 	 	 	 	 	 	 	 	1581503760	6.66	12.33
12/02/2020 10:36:01	120220	12022020	103601	157.28	12.550342	-57.192655	157.00	-0.040	-0.230	3.860	157.08	-1.40	4.30	1015.40	26.30	26.30	20.60	20.60	31.0	70.0	70.0	402.0	26.0	271.00	9.80	73.00	10.80	3094	10659.0	27.4	27.4	1581503761	6.10	11.30
12/02/2020 10:36:02	120220	12022020	103602	156.14	12.550315	-57.192655	156.05	0.060	0.270	3.370	155.96	-0.90	3.70	 	 	 	 	 	 	 	 	 	 	 	 	 	 	 	 	 	 	1581503762	5.68	10.52
12/02/2020 10:36:03	120220	12022020	103603	155.40	12.550290	-57.192650	155.09	0.250	0.470	2.730	155.19	-0.80	3.00	 	 	 	 	 	 	 	 	 	 	 	 	 	 	 	 	 	 	1581503763	5.50	10.19
12/02/2020 10:36:04	120220	12022020	103604	154.24	12.550265	-57.192643	154.15	0.420	0.350	1.970	154.08	-1.00	2.30	 	 	 	 	 	 	 	 	 	 	 	 	 	 	 	 	 	 	1581503764	5.62	10.41
12/02/2020 10:36:05	120220	12022020	103605	153.58	12.550240	-57.192635	153.33	0.360	0.160	1.360	153.43	-1.20	1.80	 	 	 	 	 	 	 	 	 	 	 	 	 	 	 	 	 	 	1581503765	5.61	10.39
12/02/2020 10:36:06	120220	12022020	103606	152.60	12.550217	-57.192627	152.51	0.080	-0.050	1.290	152.42	-1.40	1.80	 	 	 	 	 	 	 	 	 	 	 	 	 	 	 	 	 	 	1581503766	5.39	9.98
12/02/2020 10:36:07	120220	12022020	103607	151.90	12.550192	-57.192623	151.65	-0.320	-0.320	1.620	151.73	-1.70	2.20	 	 	 	 	 	 	 	 	 	 	 	 	 	 	 	 	 	 	1581503767	5.44	10.07
12/02/2020 10:36:08	120220	12022020	103608	150.79	12.550165	-57.192620	150.75	-0.620	-0.600	2.380	150.58	-1.90	3.10	 	 	 	 	 	 	 	 	 	 	 	 	 	 	 	 	 	 	1581503768	5.68	10.52
12/02/2020 10:36:09	120220	12022020	103609	149.61	12.550137	-57.192622	149.55	-0.590	-0.810	3.450	149.34	-2.10	4.10	 	 	 	 	 	 	 	 	 	 	 	 	 	 	 	 	 	 	1581503769	6.12	11.33
12/02/2020 10:36:10	120220	12022020	103610	148.27	12.550108	-57.192625	148.24	-0.180	-0.840	4.210	148.01	-2.10	4.80	 	 	 	 	 	 	 	 	 	 	 	 	 	 	 	 	 	 	1581503770	6.39	11.83
12/02/2020 10:36:11	120220	12022020	103611	147.04	12.550080	-57.192625	147.05	0.330	-0.520	4.300	146.81	-1.70	4.70	 	 	 	 	 	 	 	 	 	 	 	 	 	 	 	 	 	 	1581503771	5.98	11.07
12/02/2020 10:36:12	120220	12022020	103612	145.97	12.550057	-57.192620	145.98	0.570	-0.010	3.810	145.77	-1.20	4.10	 	 	 	 	 	 	 	 	 	 	 	 	 	 	 	 	 	 	1581503772	5.18	9.59
12/02/2020 10:36:13	120220	12022020	103613	145.23	12.550037	-57.192612	145.12	0.450	0.420	2.920	145.09	-0.80	3.20	 	 	 	 	 	 	 	 	 	 	 	 	 	 	 	 	 	 	1581503773	4.66	8.63
12/02/2020 10:36:14	120220	12022020	103614	144.41	12.550018	-57.192600	144.46	0.070	0.590	1.930	144.28	-0.70	2.20	 	 	 	 	 	 	 	 	 	 	 	 	 	 	 	 	 	 	1581503774	4.52	8.37
12/02/2020 10:36:15	120220	12022020	103615	143.88	12.550000	-57.192588	143.76	-0.270	0.310	1.260	143.75	-1.10	1.60	 	 	 	 	 	 	 	 	 	 	 	 	 	 	 	 	 	 	1581503775	4.54	8.41
12/02/2020 10:36:16	120220	12022020	103616	142.86	12.549978	-57.192580	142.84	-0.350	-0.440	1.100	142.65	-1.90	1.60	 	 	 	 	 	 	 	 	 	 	 	 	 	 	 	 	 	 	1581503776	4.99	9.24
12/02/2020 10:36:17	120220	12022020	103617	141.72	12.549953	-57.192572	141.72	-0.220	-1.110	1.380	141.51	-2.40	2.00	 	 	 	 	 	 	 	 	 	 	 	 	 	 	 	 	 	 	1581503777	5.68	10.52
12/02/2020 10:36:18	120220	12022020	103618	140.65	12.549928	-57.192565	140.67	-0.150	-1.030	1.850	140.46	-2.20	2.40	 	 	 	 	 	 	 	 	 	 	 	 	 	 	 	 	 	 	1581503778	5.72	10.59
12/02/2020 10:36:19	120220	12022020	103619	139.79	12.549905	-57.192562	139.84	-0.260	-0.310	2.270	139.63	-1.40	2.80	 	 	 	 	 	 	 	 	 	 	 	 	 	 	 	 	 	 	1581503779	5.06	9.37
12/02/2020 10:36:20	120220	12022020	103620	138.99	12.549883	-57.192560	139.02	-0.470	0.400	2.600	138.82	-0.80	3.10	 	 	 	 	 	 	 	 	 	 	 	 	 	 	 	 	 	 	1581503780	4.46	8.26
12/02/2020 10:36:21	120220	12022020	103621	138.10	12.549863	-57.192557	138.14	-0.540	0.690	2.780	137.93	-0.60	3.20	 	 	 	 	 	 	 	 	 	 	 	 	 	 	 	 	 	 	1581503781	4.47	8.28
12/02/2020 10:36:22	120220	12022020	103622	137.30	12.549842	-57.192552	137.35	-0.310	0.520	2.710	137.17	-0.80	3.10	 	 	 	 	 	 	 	 	 	 	 	 	 	 	 	 	 	 	1581503782	4.75	8.80
12/02/2020 10:36:23	120220	12022020	103623	136.67	12.549820	-57.192545	136.73	0.220	0.040	2.410	136.55	-1.40	2.80	 	 	 	 	 	 	 	 	 	 	 	 	 	 	 	 	 	 	1581503783	4.85	8.98
12/02/2020 10:36:24	120220	12022020	103624	136.02	12.549800	-57.192535	136.04	0.860	-0.620	1.980	135.86	-2.10	2.30	 	 	 	 	 	 	 	 	 	 	 	 	 	 	 	 	 	 	1581503784	4.73	8.76
12/02/2020 10:36:25	120220	12022020	103625	135.33	12.549783	-57.192522	135.12	1.280	-1.240	1.540	135.13	-2.60	1.90	 	 	 	 	 	 	 	 	 	 	 	 	 	 	 	 	 	 	1581503785	4.76	8.82
12/02/2020 10:36:26	120220	12022020	103626	134.07	12.549767	-57.192507	134.03	1.090	-1.220	1.410	133.85	-2.30	1.90	 	 	 	 	 	 	 	 	 	 	 	 	 	 	 	 	 	 	1581503786	4.73	8.76
12/02/2020 10:36:27	120220	12022020	103627	133.17	12.549750	-57.192495	132.94	0.250	-0.380	1.820	132.97	-1.40	2.40	 	 	 	 	 	 	 	 	 	 	 	 	 	 	 	 	 	 	1581503787	4.12	7.63
12/02/2020 10:36:28	120220	12022020	103628	132.02	12.549735	-57.192490	132.06	-0.830	0.700	2.530	131.88	-0.40	3.20	 	 	 	 	 	 	 	 	 	 	 	 	 	 	 	 	 	 	1581503788	3.69	6.83
12/02/2020 10:36:29	120220	12022020	103629	131.42	12.549715	-57.192488	131.34	-1.590	1.150	3.230	131.28	-0.10	3.80	 	 	 	 	 	 	 	 	 	 	 	 	 	 	 	 	 	 	1581503789	4.11	7.61
12/02/2020 10:36:30	120220	12022020	103630	130.60	12.549692	-57.192487	130.67	-1.670	0.650	3.720	130.47	-0.80	4.20	 	 	 	 	 	 	 	 	 	 	 	 	 	 	 	 	 	 	1581503790	5.00	9.26
12/02/2020 10:36:31	120220	12022020	103631	130.11	12.549665	-57.192482	130.05	-1.130	-0.290	3.810	129.99	-1.70	4.20	 	 	 	 	 	 	 	 	 	 	 	 	 	 	 	 	 	 	1581503791	5.73	10.61
12/02/2020 10:36:32	120220	12022020	103632	129.41	12.549640	-57.192475	129.44	-0.270	-0.950	3.390	129.27	-2.30	3.70	 	 	 	 	 	 	 	 	 	 	 	 	 	 	 	 	 	 	1581503792	5.57	10.32
12/02/2020 10:36:33	120220	12022020	103633	128.53	12.549622	-57.192467	128.48	0.640	-1.120	2.600	128.30	-2.30	2.90	 	 	 	 	 	 	 	 	 	 	 	 	 	 	 	 	 	 	1581503793	4.63	8.57
12/02/2020 10:36:34	120220	12022020	103634	127.29	12.549608	-57.192455	127.19	1.340	-0.850	1.630	127.04	-2.00	1.80	 	 	 	 	 	 	 	 	 	 	 	 	 	 	 	 	 	 	1581503794	3.82	7.07
12/02/2020 10:36:35	120220	12022020	103635	126.12	12.549600	-57.192440	126.04	1.550	-0.300	0.440	125.93	-1.40	0.60	 	 	 	 	 	 	 	 	 	 	 	 	 	 	 	 	 	 	1581503795	3.50	6.48
12/02/2020 10:36:36	120220	12022020	103636	125.28	12.549595	-57.192425	125.20	1.140	0.320	-0.690	125.15	-0.80	-0.40	 	 	 	 	 	 	 	 	 	 	 	 	 	 	 	 	 	 	1581503796	3.43	6.35
12/02/2020 10:36:37	120220	12022020	103637	124.82	12.549592	-57.192410	124.64	0.250	0.710	-1.140	124.72	-0.50	-0.60	 	 	 	 	 	 	 	 	 	 	 	 	 	 	 	 	 	 	1581503797	3.22	5.96
12/02/2020 10:36:38	120220	12022020	103638	124.21	12.549582	-57.192398	124.15	-0.730	0.580	-0.410	124.10	-0.80	0.40	 	 	 	 	 	 	 	 	 	 	 	 	 	 	 	 	 	 	1581503798	3.15	5.83
12/02/2020 10:36:39	120220	12022020	103639	123.60	12.549562	-57.192393	123.54	-1.360	0.130	1.310	123.60	-1.20	2.20	 	 	 	 	 	 	 	 	 	 	 	 	 	 	 	 	 	 	1581503799	4.50	8.33
12/02/2020 10:36:40	120220	12022020	103640	122.80	12.549533	-57.192392	122.76	-1.410	-0.240	3.360	122.61	-1.60	4.20	 	 	 	 	 	 	 	 	 	 	 	 	 	 	 	 	 	 	1581503800	6.08	11.26
12/02/2020 10:36:41	120220	12022020	103641	122.02	12.549502	-57.192392	121.80	-0.880	-0.550	5.020	121.81	-1.90	5.70	 	 	 	 	 	 	 	 	 	 	 	 	 	 	 	 	 	 	1581503801	6.57	12.17
12/02/2020 10:36:42	120220	12022020	103642	120.69	12.549475	-57.192390	120.69	0.030	-0.910	5.670	120.48	-2.20	6.10	 	 	 	 	 	 	 	 	 	 	 	 	 	 	 	 	 	 	1581503802	5.89	10.91
12/02/2020 10:36:43	120220	12022020	103643	119.55	12.549455	-57.192382	119.54	0.890	-1.160	5.080	119.32	-2.40	5.20	 	 	 	 	 	 	 	 	 	 	 	 	 	 	 	 	 	 	1581503803	4.51	8.35
12/02/2020 10:36:44	120220	12022020	103644	118.42	12.549445	-57.192368	118.37	1.340	-1.020	3.620	118.20	-2.20	3.60	 	 	 	 	 	 	 	 	 	 	 	 	 	 	 	 	 	 	1581503804	3.59	6.65
12/02/2020 10:36:45	120220	12022020	103645	117.46	12.549443	-57.192352	117.40	1.210	-0.390	1.690	117.31	-1.50	1.70	 	 	 	 	 	 	 	 	 	 	 	 	 	 	 	 	 	 	1581503805	3.49	6.46
12/02/2020 10:36:46	120220	12022020	103646	116.82	12.549443	-57.192337	116.73	0.570	0.470	-0.190	116.73	-0.60	-0.10	 	 	 	 	 	 	 	 	 	 	 	 	 	 	 	 	 	 	1581503806	3.31	6.13
12/02/2020 10:36:47	120220	12022020	103647	116.42	12.549443	-57.192323	116.32	-0.240	1.120	-1.480	116.36	-0.00	-1.20	 	 	 	 	 	 	 	 	 	 	 	 	 	 	 	 	 	 	1581503807	2.81	5.20
12/02/2020 10:36:48	120220	12022020	103648	116.23	12.549440	-57.192312	116.16	-0.880	1.260	-1.920	116.21	-0.10	-1.40	 	 	 	 	 	 	 	 	 	 	 	 	 	 	 	 	 	 	1581503808	2.47	4.57
12/02/2020 10:36:49	120220	12022020	103649	116.12	12.549427	-57.192303	115.97	-1.150	0.700	-1.360	116.06	-0.80	-0.60	 	 	 	 	 	 	 	 	 	 	 	 	 	 	 	 	 	 	1581503809	3.11	5.76
12/02/2020 10:36:50	120220	12022020	103650	115.48	12.549408	-57.192297	115.36	-0.930	-0.420	0.280	115.28	-1.90	1.20	 	 	 	 	 	 	 	 	 	 	 	 	 	 	 	 	 	 	1581503810	4.49	8.32
12/02/2020 10:36:51	120220	12022020	103651	114.55	12.549382	-57.192290	114.15	-0.310	-1.460	2.490	114.29	-2.80	3.40	 	 	 	 	 	 	 	 	 	 	 	 	 	 	 	 	 	 	1581503811	5.68	10.52
12/02/2020 10:36:52	120220	12022020	103652	112.85	12.549357	-57.192283	112.76	0.390	-1.730	4.430	112.57	-2.90	5.20	 	 	 	 	 	 	 	 	 	 	 	 	 	 	 	 	 	 	1581503812	5.73	10.61
12/02/2020 10:36:53	120220	12022020	103653	111.83	12.549335	-57.192278	111.63	0.860	-1.270	5.470	111.62	-2.30	5.90	 	 	 	 	 	 	 	 	 	 	 	 	 	 	 	 	 	 	1581503813	4.64	8.59
12/02/2020 10:36:54	120220	12022020	103654	110.70	12.549322	-57.192270	110.76	1.040	-0.640	5.380	110.54	-1.80	5.60	 	 	 	 	 	 	 	 	 	 	 	 	 	 	 	 	 	 	1581503814	3.32	6.15
12/02/2020 10:36:55	120220	12022020	103655	110.08	12.549315	-57.192260	110.02	0.960	-0.150	4.250	109.95	-1.30	4.30	 	 	 	 	 	 	 	 	 	 	 	 	 	 	 	 	 	 	1581503815	2.74	5.07
12/02/2020 10:36:56	120220	12022020	103656	109.53	12.549313	-57.192247	109.60	0.580	0.520	2.500	109.50	-0.50	2.50	 	 	 	 	 	 	 	 	 	 	 	 	 	 	 	 	 	 	1581503816	2.91	5.39
12/02/2020 10:36:57	120220	12022020	103657	109.45	12.549313	-57.192233	109.49	-0.090	1.270	0.750	109.45	0.10	0.80	 	 	 	 	 	 	 	 	 	 	 	 	 	 	 	 	 	 	1581503817	2.60	4.82
12/02/2020 10:36:58	120220	12022020	103658	109.31	12.549313	-57.192225	109.30	-0.840	1.490	-0.400	109.24	0.20	-0.10	 	 	 	 	 	 	 	 	 	 	 	 	 	 	 	 	 	 	1581503818	2.02	3.74
12/02/2020 10:36:59	120220	12022020	103659	108.80	12.549307	-57.192217	108.71	-1.250	0.890	-0.660	108.64	-0.60	-0.20	 	 	 	 	 	 	 	 	 	 	 	 	 	 	 	 	 	 	1581503819	2.24	4.15
12/02/2020 10:37:00	120220	12022020	103700	107.97	12.549295	-57.192207	107.87	-1.010	-0.290	-0.240	107.79	-1.80	0.30	 	 	 	 	 	 	 	 	 	 	 	 	 	 	 	 	 	 	1581503820	3.25	6.02
12/02/2020 10:37:01	120220	12022020	103701	107.04	12.549278	-57.192197	106.95	-0.140	-1.610	0.460	106.85	-3.10	1.00	1015.40	26.30	26.30	20.80	20.80	32.0	71.0	71.0	403.0	26.0	314.00	12.50	75.00	11.30	3240	10473.0	27.4	27.4	1581503821	4.03	7.46
12/02/2020 10:37:02	120220	12022020	103702	106.15	12.549263	-57.192183	106.09	0.850	-2.400	1.150	105.97	-3.60	1.70	 	 	 	 	 	 	 	 	 	 	 	 	 	 	 	 	 	 	1581503822	4.19	7.76
12/02/2020 10:37:03	120220	12022020	103703	105.34	12.549252	-57.192172	105.31	1.260	-1.970	1.680	105.19	-2.90	2.20	 	 	 	 	 	 	 	 	 	 	 	 	 	 	 	 	 	 	1581503823	3.64	6.74
12/02/2020 10:37:04	120220	12022020	103704	104.60	12.549242	-57.192165	104.54	0.820	-0.470	1.950	104.45	-1.30	2.40	 	 	 	 	 	 	 	 	 	 	 	 	 	 	 	 	 	 	1581503824	2.52	4.67
12/02/2020 10:37:05	120220	12022020	103705	104.02	12.549235	-57.192160	103.83	-0.030	1.010	1.990	103.89	0.00	2.40	 	 	 	 	 	 	 	 	 	 	 	 	 	 	 	 	 	 	1581503825	1.71	3.17
12/02/2020 10:37:06	120220	12022020	103706	103.29	12.549228	-57.192155	103.26	-0.650	1.620	1.980	103.21	0.40	2.40	 	 	 	 	 	 	 	 	 	 	 	 	 	 	 	 	 	 	1581503826	1.86	3.44
12/02/2020 10:37:07	120220	12022020	103707	102.91	12.549220	-57.192147	102.91	-0.740	1.330	1.860	102.86	-0.10	2.20	 	 	 	 	 	 	 	 	 	 	 	 	 	 	 	 	 	 	1581503827	2.66	4.93
12/02/2020 10:37:08	120220	12022020	103708	102.67	12.549210	-57.192137	102.66	-0.460	0.550	1.560	102.61	-0.90	1.90	 	 	 	 	 	 	 	 	 	 	 	 	 	 	 	 	 	 	1581503828	3.07	5.69
12/02/2020 10:37:09	120220	12022020	103709	102.27	12.549202	-57.192125	102.21	-0.070	-0.420	1.190	102.15	-1.90	1.50	 	 	 	 	 	 	 	 	 	 	 	 	 	 	 	 	 	 	1581503829	3.00	5.56
12/02/2020 10:37:10	120220	12022020	103710	101.48	12.549195	-57.192112	101.38	0.220	-1.190	1.140	101.28	-2.50	1.60	 	 	 	 	 	 	 	 	 	 	 	 	 	 	 	 	 	 	1581503830	2.94	5.44
12/02/2020 10:37:11	120220	12022020	103711	100.51	12.549188	-57.192102	100.43	0.370	-1.420	1.440	100.34	-2.60	1.90	 	 	 	 	 	 	 	 	 	 	 	 	 	 	 	 	 	 	1581503831	2.90	5.37
12/02/2020 10:37:12	120220	12022020	103712	99.54	12.549178	-57.192092	99.63	0.420	-1.020	1.800	99.54	-2.10	2.20	 	 	 	 	 	 	 	 	 	 	 	 	 	 	 	 	 	 	1581503832	2.81	5.20
12/02/2020 10:37:13	120220	12022020	103713	98.94	12.549170	-57.192085	98.87	0.430	-0.310	1.860	98.79	-1.40	2.20	 	 	 	 	 	 	 	 	 	 	 	 	 	 	 	 	 	 	1581503833	2.41	4.46
12/02/2020 10:37:14	120220	12022020	103714	98.24	12.549163	-57.192077	98.18	0.370	0.170	1.500	98.11	-1.00	1.80	 	 	 	 	 	 	 	 	 	 	 	 	 	 	 	 	 	 	1581503834	1.94	3.59
12/02/2020 10:37:15	120220	12022020	103715	97.65	12.549160	-57.192068	97.61	0.170	0.270	1.080	97.55	-1.00	1.40	 	 	 	 	 	 	 	 	 	 	 	 	 	 	 	 	 	 	1581503835	2.03	3.76
12/02/2020 10:37:16	120220	12022020	103716	97.21	12.549157	-57.192058	97.21	-0.170	0.170	0.860	97.14	-1.10	1.20	 	 	 	 	 	 	 	 	 	 	 	 	 	 	 	 	 	 	1581503836	2.39	4.43
12/02/2020 10:37:17	120220	12022020	103717	96.87	12.549150	-57.192047	96.75	-0.520	0.110	0.860	96.77	-1.10	1.30	 	 	 	 	 	 	 	 	 	 	 	 	 	 	 	 	 	 	1581503837	2.60	4.82
12/02/2020 10:37:18	120220	12022020	103718	96.13	12.549142	-57.192038	96.11	-0.670	0.130	1.040	96.00	-1.10	1.50	 	 	 	 	 	 	 	 	 	 	 	 	 	 	 	 	 	 	1581503838	2.63	4.87
12/02/2020 10:37:19	120220	12022020	103719	95.45	12.549132	-57.192030	95.44	-0.520	0.210	1.270	95.32	-1.00	1.70	 	 	 	 	 	 	 	 	 	 	 	 	 	 	 	 	 	 	1581503839	2.59	4.80
12/02/2020 10:37:20	120220	12022020	103720	94.72	12.549123	-57.192023	94.68	-0.180	0.130	1.490	94.58	-1.20	1.90	 	 	 	 	 	 	 	 	 	 	 	 	 	 	 	 	 	 	1581503840	2.48	4.59
12/02/2020 10:37:21	120220	12022020	103721	93.97	12.549117	-57.192015	93.93	0.200	-0.230	1.520	93.83	-1.60	1.90	 	 	 	 	 	 	 	 	 	 	 	 	 	 	 	 	 	 	1581503841	2.41	4.46
12/02/2020 10:37:22	120220	12022020	103722	93.37	12.549112	-57.192005	93.34	0.550	-0.830	1.210	93.26	-2.20	1.50	 	 	 	 	 	 	 	 	 	 	 	 	 	 	 	 	 	 	1581503842	2.35	4.35
12/02/2020 10:37:23	120220	12022020	103723	92.89	12.549110	-57.191993	92.87	0.850	-1.310	0.810	92.79	-2.60	1.10	 	 	 	 	 	 	 	 	 	 	 	 	 	 	 	 	 	 	1581503843	2.48	4.59
12/02/2020 10:37:24	120220	12022020	103724	92.30	12.549107	-57.191982	92.23	0.960	-1.310	0.750	92.13	-2.50	1.20	 	 	 	 	 	 	 	 	 	 	 	 	 	 	 	 	 	 	1581503844	2.54	4.70
12/02/2020 10:37:25	120220	12022020	103725	91.42	12.549103	-57.191970	91.34	0.690	-0.690	1.090	91.23	-1.70	1.60	 	 	 	 	 	 	 	 	 	 	 	 	 	 	 	 	 	 	1581503845	2.41	4.46
12/02/2020 10:37:26	120220	12022020	103726	90.54	12.549097	-57.191963	90.50	0.050	0.390	1.520	90.39	-0.60	2.00	 	 	 	 	 	 	 	 	 	 	 	 	 	 	 	 	 	 	1581503846	2.16	4.00
12/02/2020 10:37:27	120220	12022020	103727	89.95	12.549088	-57.191958	89.98	-0.650	1.380	1.730	89.86	0.30	2.10	 	 	 	 	 	 	 	 	 	 	 	 	 	 	 	 	 	 	1581503847	1.95	3.61
12/02/2020 10:37:28	120220	12022020	103728	89.63	12.549082	-57.191953	89.67	-1.040	1.610	1.630	89.57	0.30	2.00	 	 	 	 	 	 	 	 	 	 	 	 	 	 	 	 	 	 	1581503848	1.74	3.22
12/02/2020 10:37:29	120220	12022020	103729	89.39	12.549077	-57.191945	89.33	-0.980	1.000	1.480	89.33	-0.50	1.80	 	 	 	 	 	 	 	 	 	 	 	 	 	 	 	 	 	 	1581503849	1.93	3.57
12/02/2020 10:37:30	120220	12022020	103730	88.91	12.549072	-57.191935	88.86	-0.670	0.050	1.400	88.80	-1.40	1.80	 	 	 	 	 	 	 	 	 	 	 	 	 	 	 	 	 	 	1581503850	2.37	4.39
12/02/2020 10:37:31	120220	12022020	103731	88.45	12.549067	-57.191925	88.27	-0.220	-1.020	1.390	88.32	-2.50	1.80	 	 	 	 	 	 	 	 	 	 	 	 	 	 	 	 	 	 	1581503851	2.47	4.57
12/02/2020 10:37:32	120220	12022020	103732	87.64	12.549062	-57.191913	87.59	0.410	-2.170	1.520	87.51	-3.60	2.00	 	 	 	 	 	 	 	 	 	 	 	 	 	 	 	 	 	 	1581503852	2.73	5.06
12/02/2020 10:37:33	120220	12022020	103733	86.87	12.549057	-57.191898	86.80	1.050	-2.600	1.860	86.71	-3.70	2.30	 	 	 	 	 	 	 	 	 	 	 	 	 	 	 	 	 	 	1581503853	3.17	5.87
12/02/2020 10:37:34	120220	12022020	103734	86.19	12.549052	-57.191887	86.14	1.190	-1.490	2.020	86.09	-2.30	2.40	 	 	 	 	 	 	 	 	 	 	 	 	 	 	 	 	 	 	1581503854	2.65	4.91
12/02/2020 10:37:35	120220	12022020	103735	85.85	12.549050	-57.191882	85.85	0.620	0.500	1.690	85.81	-0.30	1.90	 	 	 	 	 	 	 	 	 	 	 	 	 	 	 	 	 	 	1581503855	1.15	2.13
12/02/2020 10:37:36	120220	12022020	103736	85.75	12.549050	-57.191882	85.75	-0.230	1.950	0.950	85.73	0.80	1.20	 	 	 	 	 	 	 	 	 	 	 	 	 	 	 	 	 	 	1581503856	0.23	0.43
12/02/2020 10:37:37	120220	12022020	103737	85.68	12.549050	-57.191878	85.69	-0.760	2.090	0.240	85.68	0.70	0.50	 	 	 	 	 	 	 	 	 	 	 	 	 	 	 	 	 	 	1581503857	0.76	1.41
12/02/2020 10:37:38	120220	12022020	103738	85.68	12.549050	-57.191868	85.69	-0.720	1.050	-0.220	85.69	-0.50	0.10	 	 	 	 	 	 	 	 	 	 	 	 	 	 	 	 	 	 	1581503858	1.89	3.50
12/02/2020 10:37:39	120220	12022020	103739	85.66	12.549048	-57.191857	85.63	-0.390	-0.340	-0.270	85.63	-1.90	0.20	 	 	 	 	 	 	 	 	 	 	 	 	 	 	 	 	 	 	1581503859	2.77	5.13
12/02/2020 10:37:40	120220	12022020	103740	85.49	12.549045	-57.191843	85.46	-0.150	-1.230	0.070	85.45	-2.60	0.60	 	 	 	 	 	 	 	 	 	 	 	 	 	 	 	 	 	 	1581503860	2.88	5.33
12/02/2020 10:37:41	120220	12022020	103741	85.32	12.549040	-57.191832	85.28	-0.090	-1.380	0.650	85.28	-2.60	1.20	 	 	 	 	 	 	 	 	 	 	 	 	 	 	 	 	 	 	1581503861	2.39	4.43
12/02/2020 10:37:42	120220	12022020	103742	85.02	12.549033	-57.191825	85.03	0.000	-1.060	1.460	84.95	-2.20	2.00	 	 	 	 	 	 	 	 	 	 	 	 	 	 	 	 	 	 	1581503862	2.16	4.00
12/02/2020 10:37:43	120220	12022020	103743	84.67	12.549025	-57.191818	84.59	0.220	-0.630	2.390	84.56	-1.80	2.90	 	 	 	 	 	 	 	 	 	 	 	 	 	 	 	 	 	 	1581503863	2.30	4.26
12/02/2020 10:37:44	120220	12022020	103744	84.11	12.549018	-57.191810	84.16	0.490	-0.400	2.890	84.05	-1.60	3.30	 	 	 	 	 	 	 	 	 	 	 	 	 	 	 	 	 	 	1581503864	2.28	4.22
12/02/2020 10:37:45	120220	12022020	103745	83.92	12.549015	-57.191800	84.01	0.580	-0.270	2.710	83.92	-1.50	2.90	 	 	 	 	 	 	 	 	 	 	 	 	 	 	 	 	 	 	1581503865	2.15	3.98
12/02/2020 10:37:46	120220	12022020	103746	84.08	12.549017	-57.191790	84.21	0.290	0.110	2.030	84.15	-1.00	2.20	 	 	 	 	 	 	 	 	 	 	 	 	 	 	 	 	 	 	1581503866	2.10	3.89
12/02/2020 10:37:47	120220	12022020	103747	84.51	12.549020	-57.191782	84.65	-0.330	0.800	1.210	84.60	-0.30	1.40	 	 	 	 	 	 	 	 	 	 	 	 	 	 	 	 	 	 	1581503867	1.68	3.11
12/02/2020 10:37:48	120220	12022020	103748	84.85	12.549020	-57.191778	84.93	-0.930	1.310	0.580	84.88	0.10	0.90	 	 	 	 	 	 	 	 	 	 	 	 	 	 	 	 	 	 	1581503868	1.05	1.94
12/02/2020 10:37:49	120220	12022020	103749	84.76	12.549017	-57.191772	84.75	-0.950	0.920	0.330	84.68	-0.60	0.70	 	 	 	 	 	 	 	 	 	 	 	 	 	 	 	 	 	 	1581503869	1.20	2.22
12/02/2020 10:37:50	120220	12022020	103750	84.27	12.549015	-57.191763	84.22	-0.270	-0.560	0.390	84.16	-2.20	0.80	 	 	 	 	 	 	 	 	 	 	 	 	 	 	 	 	 	 	1581503870	2.11	3.91
12/02/2020 10:37:51	120220	12022020	103751	83.77	12.549012	-57.191748	83.75	0.590	-2.080	0.570	83.71	-3.50	1.00	 	 	 	 	 	 	 	 	 	 	 	 	 	 	 	 	 	 	1581503871	3.19	5.91
12/02/2020 10:37:52	120220	12022020	103752	83.60	12.549010	-57.191733	83.63	0.980	-2.240	0.600	83.60	-3.30	1.00	 	 	 	 	 	 	 	 	 	 	 	 	 	 	 	 	 	 	1581503872	3.17	5.87
12/02/2020 10:37:53	120220	12022020	103753	83.66	12.549010	-57.191725	83.71	0.700	-0.940	0.580	83.67	-1.80	1.00	 	 	 	 	 	 	 	 	 	 	 	 	 	 	 	 	 	 	1581503873	1.81	3.35
12/02/2020 10:37:54	120220	12022020	103754	83.67	12.549008	-57.191722	83.71	0.060	0.620	0.650	83.66	-0.40	1.00	 	 	 	 	 	 	 	 	 	 	 	 	 	 	 	 	 	 	1581503874	0.60	1.11
12/02/2020 10:37:55	120220	12022020	103755	83.59	12.549007	-57.191720	83.62	-0.470	1.400	0.770	83.57	0.20	1.20	 	 	 	 	 	 	 	 	 	 	 	 	 	 	 	 	 	 	1581503875	0.66	1.22
12/02/2020 10:37:56	120220	12022020	103756	83.48	12.549003	-57.191713	83.52	-0.620	1.170	1.040	83.46	-0.30	1.50	 	 	 	 	 	 	 	 	 	 	 	 	 	 	 	 	 	 	1581503876	1.46	2.70
12/02/2020 10:37:57	120220	12022020	103757	83.39	12.549000	-57.191703	83.43	-0.400	0.260	1.410	83.38	-1.20	1.80	 	 	 	 	 	 	 	 	 	 	 	 	 	 	 	 	 	 	1581503877	2.35	4.35
12/02/2020 10:37:58	120220	12022020	103758	83.34	12.548997	-57.191692	83.39	-0.040	-0.650	1.550	83.33	-2.00	1.90	 	 	 	 	 	 	 	 	 	 	 	 	 	 	 	 	 	 	1581503878	2.67	4.94
12/02/2020 10:37:59	120220	12022020	103759	83.31	12.548995	-57.191680	83.35	0.300	-1.060	1.530	83.30	-2.30	1.90	 	 	 	 	 	 	 	 	 	 	 	 	 	 	 	 	 	 	1581503879	2.36	4.37
12/02/2020 10:38:00	120220	12022020	103800	83.18	12.548993	-57.191672	83.21	0.480	-0.960	1.620	83.13	-2.10	2.00	 	 	 	 	 	 	 	 	 	 	 	 	 	 	 	 	 	 	1581503880	1.91	3.54
12/02/2020 10:38:01	120220	12022020	103801	82.95	12.548990	-57.191663	82.98	0.380	-0.600	1.720	82.91	-1.80	2.10	1015.40	26.20	26.30	20.60	20.70	32.0	71.0	71.0	401.0	26.0	346.00	12.20	76.00	11.30	3354	10395.0	27.5	27.4	1581503881	1.68	3.11
12/02/2020 10:38:02	120220	12022020	103802	82.80	12.548988	-57.191657	82.85	0.020	-0.130	1.720	82.78	-1.30	2.10	 	 	 	 	 	 	 	 	 	 	 	 	 	 	 	 	 	 	1581503882	1.55	2.87
12/02/2020 10:38:03	120220	12022020	103803	82.67	12.548985	-57.191650	82.68	-0.320	0.330	1.630	82.63	-0.90	2.00	 	 	 	 	 	 	 	 	 	 	 	 	 	 	 	 	 	 	1581503883	1.40	2.59
12/02/2020 10:38:04	120220	12022020	103804	82.40	12.548983	-57.191645	82.37	-0.360	0.430	1.390	82.34	-0.90	1.70	 	 	 	 	 	 	 	 	 	 	 	 	 	 	 	 	 	 	1581503884	1.24	2.30
12/02/2020 10:38:05	120220	12022020	103805	82.06	12.548985	-57.191638	82.04	-0.120	0.030	0.960	82.00	-1.40	1.20	 	 	 	 	 	 	 	 	 	 	 	 	 	 	 	 	 	 	1581503885	1.57	2.91
12/02/2020 10:38:06	120220	12022020	103806	81.78	12.548987	-57.191628	81.78	0.130	-0.430	0.480	81.76	-1.80	0.80	 	 	 	 	 	 	 	 	 	 	 	 	 	 	 	 	 	 	1581503886	2.07	3.83
12/02/2020 10:38:07	120220	12022020	103807	81.80	12.548990	-57.191618	81.85	0.230	-0.590	0.050	81.85	-1.90	0.30	 	 	 	 	 	 	 	 	 	 	 	 	 	 	 	 	 	 	1581503887	2.01	3.72
12/02/2020 10:38:08	120220	12022020	103808	82.16	12.548992	-57.191612	82.21	0.210	-0.580	-0.240	82.23	-1.80	0.10	 	 	 	 	 	 	 	 	 	 	 	 	 	 	 	 	 	 	1581503888	1.68	3.11
12/02/2020 10:38:09	120220	12022020	103809	82.40	12.548990	-57.191603	82.41	0.130	-0.500	-0.150	82.40	-1.70	0.30	 	 	 	 	 	 	 	 	 	 	 	 	 	 	 	 	 	 	1581503889	1.72	3.19
12/02/2020 10:38:10	120220	12022020	103810	82.11	12.548987	-57.191595	82.07	0.010	-0.170	0.520	82.00	-1.30	1.10	 	 	 	 	 	 	 	 	 	 	 	 	 	 	 	 	 	 	1581503890	1.95	3.61
12/02/2020 10:38:11	120220	12022020	103811	81.51	12.548980	-57.191588	81.48	-0.250	0.500	1.400	81.41	-0.60	1.90	 	 	 	 	 	 	 	 	 	 	 	 	 	 	 	 	 	 	1581503891	1.95	3.61
12/02/2020 10:38:12	120220	12022020	103812	81.24	12.548975	-57.191583	81.28	-0.560	1.050	1.910	81.25	-0.20	2.30	 	 	 	 	 	 	 	 	 	 	 	 	 	 	 	 	 	 	1581503892	1.58	2.93
12/02/2020 10:38:13	120220	12022020	103813	81.37	12.548970	-57.191580	81.45	-0.600	0.750	1.950	81.41	-0.70	2.30	 	 	 	 	 	 	 	 	 	 	 	 	 	 	 	 	 	 	1581503893	1.16	2.15
12/02/2020 10:38:14	120220	12022020	103814	81.45	12.548968	-57.191572	81.49	-0.100	-0.610	1.900	81.42	-2.30	2.30	 	 	 	 	 	 	 	 	 	 	 	 	 	 	 	 	 	 	1581503894	1.59	2.94
12/02/2020 10:38:15	120220	12022020	103815	81.18	12.548970	-57.191560	81.20	0.710	-2.080	2.020	81.10	-3.50	2.40	 	 	 	 	 	 	 	 	 	 	 	 	 	 	 	 	 	 	1581503895	2.71	5.02
12/02/2020 10:38:16	120220	12022020	103816	80.78	12.548970	-57.191545	80.81	1.150	-2.210	2.230	80.71	-3.30	2.70	 	 	 	 	 	 	 	 	 	 	 	 	 	 	 	 	 	 	1581503896	2.90	5.37
12/02/2020 10:38:17	120220	12022020	103817	80.52	12.548968	-57.191538	80.58	0.830	-0.870	2.400	80.49	-1.70	2.80	 	 	 	 	 	 	 	 	 	 	 	 	 	 	 	 	 	 	1581503897	1.61	2.98
12/02/2020 10:38:18	120220	12022020	103818	80.43	12.548967	-57.191537	80.49	0.030	0.760	2.250	80.43	-0.20	2.50	 	 	 	 	 	 	 	 	 	 	 	 	 	 	 	 	 	 	1581503898	0.73	1.35
12/02/2020 10:38:19	120220	12022020	103819	80.46	12.548965	-57.191537	80.53	-0.660	1.650	1.610	80.49	0.40	1.80	 	 	 	 	 	 	 	 	 	 	 	 	 	 	 	 	 	 	1581503899	0.32	0.59
12/02/2020 10:38:20	120220	12022020	103820	80.76	12.548967	-57.191533	80.79	-0.890	1.540	0.600	80.83	0.10	0.80	 	 	 	 	 	 	 	 	 	 	 	 	 	 	 	 	 	 	1581503900	0.85	1.57
12/02/2020 10:38:21	120220	12022020	103821	81.02	12.548970	-57.191527	81.06	-0.720	0.780	-0.310	81.07	-0.70	-0.10	 	 	 	 	 	 	 	 	 	 	 	 	 	 	 	 	 	 	1581503901	1.54	2.85
12/02/2020 10:38:22	120220	12022020	103822	81.12	12.548973	-57.191518	81.07	-0.370	-0.240	-0.790	81.10	-1.80	-0.40	 	 	 	 	 	 	 	 	 	 	 	 	 	 	 	 	 	 	1581503902	1.74	3.22
12/02/2020 10:38:23	120220	12022020	103823	80.91	12.548973	-57.191510	80.85	0.010	-1.200	-0.770	80.85	-2.70	-0.30	 	 	 	 	 	 	 	 	 	 	 	 	 	 	 	 	 	 	1581503903	1.74	3.22
12/02/2020 10:38:24	120220	12022020	103824	80.56	12.548972	-57.191502	80.50	0.410	-1.840	-0.250	80.47	-3.20	0.30	 	 	 	 	 	 	 	 	 	 	 	 	 	 	 	 	 	 	1581503904	1.87	3.46
12/02/2020 10:38:25	120220	12022020	103825	80.06	12.548968	-57.191493	80.01	0.800	-1.900	0.640	79.95	-3.10	1.20	 	 	 	 	 	 	 	 	 	 	 	 	 	 	 	 	 	 	1581503905	1.99	3.69
12/02/2020 10:38:26	120220	12022020	103826	79.62	12.548963	-57.191485	79.62	0.940	-1.260	1.400	79.57	-2.30	1.90	 	 	 	 	 	 	 	 	 	 	 	 	 	 	 	 	 	 	1581503906	1.90	3.52
12/02/2020 10:38:27	120220	12022020	103827	79.55	12.548962	-57.191480	79.59	0.580	-0.000	1.710	79.57	-1.00	2.10	 	 	 	 	 	 	 	 	 	 	 	 	 	 	 	 	 	 	1581503907	1.34	2.48
12/02/2020 10:38:28	120220	12022020	103828	79.81	12.548960	-57.191477	79.91	-0.270	1.450	1.720	79.90	0.50	2.10	 	 	 	 	 	 	 	 	 	 	 	 	 	 	 	 	 	 	1581503908	0.57	1.06
12/02/2020 10:38:29	120220	12022020	103829	80.32	12.548958	-57.191477	80.42	-1.170	2.340	1.600	80.42	1.10	1.90	 	 	 	 	 	 	 	 	 	 	 	 	 	 	 	 	 	 	1581503909	0.37	0.69
12/02/2020 10:38:30	120220	12022020	103830	80.76	12.548955	-57.191477	80.83	-1.480	1.840	1.420	80.82	0.20	1.70	 	 	 	 	 	 	 	 	 	 	 	 	 	 	 	 	 	 	1581503910	0.65	1.20
12/02/2020 10:38:31	120220	12022020	103831	80.88	12.548952	-57.191470	80.90	-0.970	0.000	1.230	80.87	-1.80	1.60	 	 	 	 	 	 	 	 	 	 	 	 	 	 	 	 	 	 	1581503911	1.58	2.93
12/02/2020 10:38:32	120220	12022020	103832	80.64	12.548950	-57.191457	80.66	0.050	-2.000	1.200	80.57	-3.60	1.60	 	 	 	 	 	 	 	 	 	 	 	 	 	 	 	 	 	 	1581503912	2.62	4.85
12/02/2020 10:38:33	120220	12022020	103833	80.39	12.548948	-57.191445	80.37	0.980	-2.830	1.270	80.34	-4.00	1.60	 	 	 	 	 	 	 	 	 	 	 	 	 	 	 	 	 	 	1581503913	2.67	4.94
12/02/2020 10:38:34	120220	12022020	103834	80.20	12.548948	-57.191437	80.23	1.360	-2.150	1.220	80.17	-3.10	1.60	 	 	 	 	 	 	 	 	 	 	 	 	 	 	 	 	 	 	1581503914	1.58	2.93
12/02/2020 10:38:35	120220	12022020	103835	80.11	12.548950	-57.191435	80.16	1.100	-0.630	1.020	80.11	-1.50	1.30	 	 	 	 	 	 	 	 	 	 	 	 	 	 	 	 	 	 	1581503915	0.48	0.89
12/02/2020 10:38:36	120220	12022020	103836	80.06	12.548952	-57.191435	80.09	0.340	0.950	0.770	80.06	-0.00	1.10	 	 	 	 	 	 	 	 	 	 	 	 	 	 	 	 	 	 	1581503916	0.27	0.50
12/02/2020 10:38:37	120220	12022020	103837	80.08	12.548952	-57.191435	80.10	-0.530	1.960	0.500	80.10	0.80	0.80	 	 	 	 	 	 	 	 	 	 	 	 	 	 	 	 	 	 	1581503917	0.16	0.30
12/02/2020 10:38:38	120220	12022020	103838	80.29	12.548952	-57.191435	80.32	-1.060	1.850	0.210	80.36	0.40	0.50	 	 	 	 	 	 	 	 	 	 	 	 	 	 	 	 	 	 	1581503918	0.22	0.41
12/02/2020 10:38:39	120220	12022020	103839	80.61	12.548952	-57.191430	80.64	-0.980	0.650	0.050	80.65	-1.00	0.40	 	 	 	 	 	 	 	 	 	 	 	 	 	 	 	 	 	 	1581503919	1.06	1.96
12/02/2020 10:38:40	120220	12022020	103840	80.61	12.548952	-57.191420	80.60	-0.460	-0.860	0.340	80.56	-2.40	0.80	 	 	 	 	 	 	 	 	 	 	 	 	 	 	 	 	 	 	1581503920	1.95	3.61
12/02/2020 10:38:41	120220	12022020	103841	80.23	12.548948	-57.191410	80.20	0.150	-1.870	0.960	80.14	-3.30	1.50	 	 	 	 	 	 	 	 	 	 	 	 	 	 	 	 	 	 	1581503921	2.25	4.17
12/02/2020 10:38:42	120220	12022020	103842	79.86	12.548943	-57.191402	79.86	0.570	-2.080	1.580	79.82	-3.30	2.00	 	 	 	 	 	 	 	 	 	 	 	 	 	 	 	 	 	 	1581503922	2.02	3.74
12/02/2020 10:38:43	120220	12022020	103843	79.79	12.548940	-57.191395	79.84	0.680	-1.500	1.880	79.81	-2.50	2.20	 	 	 	 	 	 	 	 	 	 	 	 	 	 	 	 	 	 	1581503923	1.57	2.91
12/02/2020 10:38:44	120220	12022020	103844	79.98	12.548937	-57.191392	80.04	0.430	-0.230	1.680	80.04	-1.20	1.90	 	 	 	 	 	 	 	 	 	 	 	 	 	 	 	 	 	 	1581503924	0.83	1.54
12/02/2020 10:38:45	120220	12022020	103845	80.34	12.548938	-57.191393	80.41	-0.050	1.200	1.130	80.41	0.20	1.40	 	 	 	 	 	 	 	 	 	 	 	 	 	 	 	 	 	 	1581503925	0.10	0.19
12/02/2020 10:38:46	120220	12022020	103846	80.67	12.548940	-57.191395	80.72	-0.460	1.940	0.630	80.70	0.60	0.90	 	 	 	 	 	 	 	 	 	 	 	 	 	 	 	 	 	 	1581503926	0.47	0.87
12/02/2020 10:38:47	120220	12022020	103847	80.70	12.548940	-57.191393	80.71	-0.550	1.420	0.410	80.67	-0.20	0.80	 	 	 	 	 	 	 	 	 	 	 	 	 	 	 	 	 	 	1581503927	0.26	0.48
12/02/2020 10:38:48	120220	12022020	103848	80.44	12.548940	-57.191387	80.44	-0.320	-0.040	0.390	80.38	-1.70	0.80	 	 	 	 	 	 	 	 	 	 	 	 	 	 	 	 	 	 	1581503928	1.29	2.39
12/02/2020 10:38:49	120220	12022020	103849	80.09	12.548940	-57.191378	80.06	0.040	-1.450	0.570	80.01	-2.90	1.00	 	 	 	 	 	 	 	 	 	 	 	 	 	 	 	 	 	 	1581503929	1.98	3.67
12/02/2020 10:38:50	120220	12022020	103850	79.75	12.548938	-57.191368	79.76	0.380	-2.070	0.860	79.71	-3.40	1.30	 	 	 	 	 	 	 	 	 	 	 	 	 	 	 	 	 	 	1581503930	1.83	3.39
12/02/2020 10:38:51	120220	12022020	103851	79.72	12.548938	-57.191363	79.80	0.660	-1.860	0.850	79.77	-3.00	1.20	 	 	 	 	 	 	 	 	 	 	 	 	 	 	 	 	 	 	1581503931	1.23	2.28
12/02/2020 10:38:52	120220	12022020	103852	80.07	12.548938	-57.191360	80.18	0.740	-1.070	0.600	80.16	-2.10	0.90	 	 	 	 	 	 	 	 	 	 	 	 	 	 	 	 	 	 	1581503932	0.76	1.41
12/02/2020 10:38:53	120220	12022020	103853	80.46	12.548940	-57.191358	80.55	0.430	0.130	0.510	80.52	-0.80	0.90	 	 	 	 	 	 	 	 	 	 	 	 	 	 	 	 	 	 	1581503933	0.48	0.89
12/02/2020 10:38:54	120220	12022020	103854	80.65	12.548938	-57.191357	80.71	-0.200	1.360	0.730	80.65	0.30	1.20	 	 	 	 	 	 	 	 	 	 	 	 	 	 	 	 	 	 	1581503934	0.36	0.67
12/02/2020 10:38:55	120220	12022020	103855	80.65	12.548935	-57.191357	80.71	-0.770	1.960	1.140	80.64	0.70	1.60	 	 	 	 	 	 	 	 	 	 	 	 	 	 	 	 	 	 	1581503935	0.85	1.57
12/02/2020 10:38:56	120220	12022020	103856	80.62	12.548930	-57.191355	80.69	-0.890	1.460	1.520	80.61	-0.10	1.90	 	 	 	 	 	 	 	 	 	 	 	 	 	 	 	 	 	 	1581503936	1.01	1.87
12/02/2020 10:38:57	120220	12022020	103857	80.54	12.548927	-57.191350	80.58	-0.520	-0.000	1.770	80.50	-1.70	2.20	 	 	 	 	 	 	 	 	 	 	 	 	 	 	 	 	 	 	1581503937	1.41	2.61
12/02/2020 10:38:58	120220	12022020	103858	80.24	12.548925	-57.191340	80.28	0.040	-1.550	1.950	80.17	-3.10	2.30	 	 	 	 	 	 	 	 	 	 	 	 	 	 	 	 	 	 	1581503938	1.98	3.67
12/02/2020 10:38:59	120220	12022020	103859	79.88	12.548923	-57.191332	79.93	0.460	-2.200	2.010	79.83	-3.40	2.40	 	 	 	 	 	 	 	 	 	 	 	 	 	 	 	 	 	 	1581503939	1.89	3.50
12/02/2020 10:39:00	120220	12022020	103900	79.72	12.548923	-57.191327	79.79	0.600	-1.650	1.830	79.71	-2.70	2.10	 	 	 	 	 	 	 	 	 	 	 	 	 	 	 	 	 	 	1581503940	1.03	1.91
12/02/2020 10:39:01	120220	12022020	103901	79.74	12.548923	-57.191327	79.81	0.550	-0.590	1.310	79.77	-1.70	1.50	1015.40	26.20	26.30	20.50	20.60	33.0	71.0	70.0	401.0	26.0	353.00	11.90	73.00	11.20	3499	11043.0	27.5	27.4	1581503941	0.24	0.44
12/02/2020 10:39:02	120220	12022020	103902	79.88	12.548927	-57.191327	79.93	0.420	0.230	0.550	79.92	-0.90	0.80	 	 	 	 	 	 	 	 	 	 	 	 	 	 	 	 	 	 	1581503942	0.63	1.17
12/02/2020 10:39:03	120220	12022020	103903	80.04	12.548930	-57.191327	80.07	0.210	0.680	-0.000	80.06	-0.60	0.30	 	 	 	 	 	 	 	 	 	 	 	 	 	 	 	 	 	 	1581503943	0.79	1.46
12/02/2020 10:39:04	120220	12022020	103904	80.07	12.548932	-57.191323	80.07	-0.070	0.780	-0.150	80.05	-0.50	0.20	 	 	 	 	 	 	 	 	 	 	 	 	 	 	 	 	 	 	1581503944	0.67	1.24
12/02/2020 10:39:05	120220	12022020	103905	79.89	12.548930	-57.191318	79.88	-0.350	0.560	0.010	79.83	-0.80	0.50	 	 	 	 	 	 	 	 	 	 	 	 	 	 	 	 	 	 	1581503945	0.89	1.65
12/02/2020 10:39:06	120220	12022020	103906	79.49	12.548928	-57.191315	79.44	-0.500	0.140	0.470	79.38	-1.30	1.00	 	 	 	 	 	 	 	 	 	 	 	 	 	 	 	 	 	 	1581503946	1.13	2.09
12/02/2020 10:39:07	120220	12022020	103907	78.94	12.548925	-57.191308	78.93	-0.390	-0.450	1.150	78.84	-1.90	1.70	 	 	 	 	 	 	 	 	 	 	 	 	 	 	 	 	 	 	1581503947	1.32	2.44
12/02/2020 10:39:08	120220	12022020	103908	78.54	12.548922	-57.191303	78.55	-0.110	-0.980	1.650	78.48	-2.30	2.10	 	 	 	 	 	 	 	 	 	 	 	 	 	 	 	 	 	 	1581503948	1.42	2.63
12/02/2020 10:39:09	120220	12022020	103909	78.41	12.548920	-57.191298	78.50	0.130	-0.980	1.770	78.42	-2.20	2.10	 	 	 	 	 	 	 	 	 	 	 	 	 	 	 	 	 	 	1581503949	1.20	2.22
12/02/2020 10:39:10	120220	12022020	103910	78.62	12.548918	-57.191295	78.72	0.190	-0.420	1.620	78.68	-1.50	1.90	 	 	 	 	 	 	 	 	 	 	 	 	 	 	 	 	 	 	1581503950	0.62	1.15
12/02/2020 10:39:11	120220	12022020	103911	78.79	12.548918	-57.191295	78.85	0.150	0.230	1.490	78.81	-1.00	1.80	 	 	 	 	 	 	 	 	 	 	 	 	 	 	 	 	 	 	1581503951	0.29	0.54
12/02/2020 10:39:12	120220	12022020	103912	78.70	12.548917	-57.191293	78.72	0.100	0.430	1.460	78.66	-0.90	1.80	 	 	 	 	 	 	 	 	 	 	 	 	 	 	 	 	 	 	1581503952	0.38	0.70
12/02/2020 10:39:13	120220	12022020	103913	78.41	12.548915	-57.191292	78.41	0.070	0.090	1.410	78.34	-1.30	1.80	 	 	 	 	 	 	 	 	 	 	 	 	 	 	 	 	 	 	1581503953	0.68	1.26
12/02/2020 10:39:14	120220	12022020	103914	78.06	12.548915	-57.191287	78.05	0.030	-0.470	1.370	77.98	-1.90	1.70	 	 	 	 	 	 	 	 	 	 	 	 	 	 	 	 	 	 	1581503954	1.11	2.06
12/02/2020 10:39:15	120220	12022020	103915	77.68	12.548915	-57.191280	77.67	-0.000	-0.820	1.390	77.60	-2.10	1.80	 	 	 	 	 	 	 	 	 	 	 	 	 	 	 	 	 	 	1581503955	1.24	2.30
12/02/2020 10:39:16	120220	12022020	103916	77.27	12.548915	-57.191275	77.27	0.030	-0.730	1.400	77.20	-1.90	1.80	 	 	 	 	 	 	 	 	 	 	 	 	 	 	 	 	 	 	1581503956	0.95	1.76
12/02/2020 10:39:17	120220	12022020	103917	76.96	12.548917	-57.191273	76.97	0.100	-0.290	1.240	76.92	-1.40	1.60	 	 	 	 	 	 	 	 	 	 	 	 	 	 	 	 	 	 	1581503957	0.58	1.07
12/02/2020 10:39:18	120220	12022020	103918	76.86	12.548918	-57.191272	76.91	0.080	0.290	0.900	76.86	-0.90	1.20	 	 	 	 	 	 	 	 	 	 	 	 	 	 	 	 	 	 	1581503958	0.45	0.83
12/02/2020 10:39:19	120220	12022020	103919	76.92	12.548920	-57.191272	76.99	-0.060	0.570	0.490	76.93	-0.80	0.80	 	 	 	 	 	 	 	 	 	 	 	 	 	 	 	 	 	 	1581503959	0.35	0.65
12/02/2020 10:39:20	120220	12022020	103920	77.01	12.548922	-57.191270	77.07	-0.190	0.230	0.220	77.02	-1.20	0.60	 	 	 	 	 	 	 	 	 	 	 	 	 	 	 	 	 	 	1581503960	0.43	0.80
12/02/2020 10:39:21	120220	12022020	103921	77.00	12.548922	-57.191267	77.02	-0.170	-0.420	0.210	76.99	-1.80	0.60	 	 	 	 	 	 	 	 	 	 	 	 	 	 	 	 	 	 	1581503961	0.97	1.80
12/02/2020 10:39:22	120220	12022020	103922	76.88	12.548922	-57.191260	76.94	-0.030	-0.760	0.530	76.85	-2.00	1.00	 	 	 	 	 	 	 	 	 	 	 	 	 	 	 	 	 	 	1581503962	1.26	2.33
12/02/2020 10:39:23	120220	12022020	103923	76.72	12.548918	-57.191255	76.73	0.040	-0.510	0.960	76.66	-1.70	1.40	 	 	 	 	 	 	 	 	 	 	 	 	 	 	 	 	 	 	1581503963	1.19	2.20
12/02/2020 10:39:24	120220	12022020	103924	76.42	12.548913	-57.191253	76.50	-0.090	0.050	1.170	76.39	-1.10	1.50	 	 	 	 	 	 	 	 	 	 	 	 	 	 	 	 	 	 	1581503964	0.83	1.54
12/02/2020 10:39:25	120220	12022020	103925	76.34	12.548913	-57.191255	76.44	-0.320	0.300	1.140	76.34	-1.00	1.50	 	 	 	 	 	 	 	 	 	 	 	 	 	 	 	 	 	 	1581503965	0.34	0.63
12/02/2020 10:39:26	120220	12022020	103926	76.25	12.548912	-57.191253	76.32	-0.370	-0.060	1.180	76.20	-1.50	1.60	 	 	 	 	 	 	 	 	 	 	 	 	 	 	 	 	 	 	1581503966	0.28	0.52
12/02/2020 10:39:27	120220	12022020	103927	75.85	12.548912	-57.191248	75.89	-0.130	-0.600	1.460	75.73	-2.00	1.90	 	 	 	 	 	 	 	 	 	 	 	 	 	 	 	 	 	 	1581503967	0.96	1.78
12/02/2020 10:39:28	120220	12022020	103928	75.22	12.548912	-57.191243	75.24	0.190	-0.770	1.610	75.10	-2.00	2.00	 	 	 	 	 	 	 	 	 	 	 	 	 	 	 	 	 	 	1581503968	1.14	2.11
12/02/2020 10:39:29	120220	12022020	103929	74.82	12.548912	-57.191240	74.84	0.320	-0.520	1.250	74.76	-1.70	1.50	 	 	 	 	 	 	 	 	 	 	 	 	 	 	 	 	 	 	1581503969	0.68	1.26
12/02/2020 10:39:30	120220	12022020	103930	74.85	12.548917	-57.191240	74.99	0.240	-0.130	0.550	74.93	-1.30	0.80	 	 	 	 	 	 	 	 	 	 	 	 	 	 	 	 	 	 	1581503970	0.87	1.61
12/02/2020 10:39:31	120220	12022020	103931	75.32	12.548920	-57.191240	75.46	0.070	0.160	0.060	75.41	-1.10	0.40	 	 	 	 	 	 	 	 	 	 	 	 	 	 	 	 	 	 	1581503971	0.86	1.59
12/02/2020 10:39:32	120220	12022020	103932	75.66	12.548922	-57.191238	75.76	-0.060	0.310	-0.060	75.69	-1.00	0.30	 	 	 	 	 	 	 	 	 	 	 	 	 	 	 	 	 	 	1581503972	0.28	0.52
12/02/2020 10:39:33	120220	12022020	103933	75.62	12.548918	-57.191237	75.65	-0.100	0.230	0.060	75.56	-1.10	0.50	 	 	 	 	 	 	 	 	 	 	 	 	 	 	 	 	 	 	1581503973	0.57	1.06
12/02/2020 10:39:34	120220	12022020	103934	75.23	12.548917	-57.191233	75.23	-0.020	-0.150	0.360	75.13	-1.60	0.80	 	 	 	 	 	 	 	 	 	 	 	 	 	 	 	 	 	 	1581503974	0.77	1.43
12/02/2020 10:39:35	120220	12022020	103935	74.73	12.548915	-57.191230	74.73	0.090	-0.590	0.830	74.64	-1.90	1.30	 	 	 	 	 	 	 	 	 	 	 	 	 	 	 	 	 	 	1581503975	0.94	1.74
12/02/2020 10:39:36	120220	12022020	103936	74.26	12.548915	-57.191225	74.29	0.080	-0.640	1.430	74.17	-1.90	1.90	 	 	 	 	 	 	 	 	 	 	 	 	 	 	 	 	 	 	1581503976	0.94	1.74
12/02/2020 10:39:37	120220	12022020	103937	73.88	12.548913	-57.191223	73.95	-0.130	-0.220	1.900	73.83	-1.40	2.30	 	 	 	 	 	 	 	 	 	 	 	 	 	 	 	 	 	 	1581503977	0.54	1.00
12/02/2020 10:39:38	120220	12022020	103938	73.71	12.548912	-57.191223	73.81	-0.370	0.170	1.910	73.70	-1.10	2.20	 	 	 	 	 	 	 	 	 	 	 	 	 	 	 	 	 	 	1581503978	0.24	0.44
12/02/2020 10:39:39	120220	12022020	103939	73.79	12.548912	-57.191223	73.91	-0.380	0.010	1.390	73.83	-1.40	1.60	 	 	 	 	 	 	 	 	 	 	 	 	 	 	 	 	 	 	1581503979	0.11	0.20
12/02/2020 10:39:40	120220	12022020	103940	74.04	12.548915	-57.191222	74.16	-0.100	-0.560	0.720	74.09	-1.90	1.00	 	 	 	 	 	 	 	 	 	 	 	 	 	 	 	 	 	 	1581503980	0.79	1.46
12/02/2020 10:39:41	120220	12022020	103941	74.20	12.548918	-57.191217	74.28	0.190	-0.760	0.390	74.19	-2.00	0.80	 	 	 	 	 	 	 	 	 	 	 	 	 	 	 	 	 	 	1581503981	1.18	2.19
12/02/2020 10:39:42	120220	12022020	103942	74.00	12.548918	-57.191213	74.06	0.120	-0.110	0.500	73.91	-1.20	0.90	 	 	 	 	 	 	 	 	 	 	 	 	 	 	 	 	 	 	1581503982	0.70	1.30
12/02/2020 10:39:43	120220	12022020	103943	73.44	12.548915	-57.191213	73.44	-0.310	0.900	0.670	73.30	-0.20	1.10	 	 	 	 	 	 	 	 	 	 	 	 	 	 	 	 	 	 	1581503983	0.67	1.24
12/02/2020 10:39:44	120220	12022020	103944	72.69	12.548912	-57.191218	72.70	-0.700	1.280	0.610	72.54	-0.10	0.90	 	 	 	 	 	 	 	 	 	 	 	 	 	 	 	 	 	 	1581503984	0.96	1.78
12/02/2020 10:39:45	120220	12022020	103945	72.03	12.548913	-57.191220	72.05	-0.470	0.310	0.250	71.93	-1.40	0.50	 	 	 	 	 	 	 	 	 	 	 	 	 	 	 	 	 	 	1581503985	0.57	1.06
12/02/2020 10:39:46	120220	12022020	103946	71.75	12.548920	-57.191217	71.83	0.400	-1.540	-0.310	71.76	-3.20	-0.10	 	 	 	 	 	 	 	 	 	 	 	 	 	 	 	 	 	 	1581503986	1.54	2.85
12/02/2020 10:39:47	120220	12022020	103947	71.94	12.548930	-57.191210	72.15	1.230	-2.770	-0.910	72.03	-4.00	-0.60	 	 	 	 	 	 	 	 	 	 	 	 	 	 	 	 	 	 	1581503987	2.54	4.70
12/02/2020 10:39:48	120220	12022020	103948	72.43	12.548937	-57.191203	72.52	1.140	-1.920	-0.920	72.47	-2.70	-0.40	 	 	 	 	 	 	 	 	 	 	 	 	 	 	 	 	 	 	1581503988	1.89	3.50
12/02/2020 10:39:49	120220	12022020	103949	72.48	12.548935	-57.191207	72.55	0.110	0.520	-0.010	72.44	-0.20	0.70	 	 	 	 	 	 	 	 	 	 	 	 	 	 	 	 	 	 	1581503989	0.64	1.19
12/02/2020 10:39:50	120220	12022020	103950	72.07	12.548925	-57.191215	72.11	-1.060	2.480	1.480	71.95	1.40	2.20	 	 	 	 	 	 	 	 	 	 	 	 	 	 	 	 	 	 	1581503990	2.76	5.11
12/02/2020 10:39:51	120220	12022020	103951	71.30	12.548912	-57.191218	71.36	-1.450	2.350	2.980	71.12	0.70	3.60	 	 	 	 	 	 	 	 	 	 	 	 	 	 	 	 	 	 	1581503991	2.90	5.37
12/02/2020 10:39:52	120220	12022020	103952	70.49	12.548903	-57.191213	70.59	-0.850	0.500	3.920	70.37	-1.30	4.40	 	 	 	 	 	 	 	 	 	 	 	 	 	 	 	 	 	 	1581503992	2.10	3.89
12/02/2020 10:39:53	120220	12022020	103953	70.05	12.548903	-57.191203	70.20	0.060	-1.380	4.020	70.03	-2.90	4.30	 	 	 	 	 	 	 	 	 	 	 	 	 	 	 	 	 	 	1581503993	2.04	3.78
12/02/2020 10:39:54	120220	12022020	103954	70.08	12.548908	-57.191197	70.22	0.530	-1.980	3.200	70.12	-3.20	3.30	 	 	 	 	 	 	 	 	 	 	 	 	 	 	 	 	 	 	1581503994	1.62	3.00
12/02/2020 10:39:55	120220	12022020	103955	70.30	12.548915	-57.191200	70.40	0.450	-1.290	1.820	70.33	-2.30	1.90	 	 	 	 	 	 	 	 	 	 	 	 	 	 	 	 	 	 	1581503995	1.68	3.11
12/02/2020 10:39:56	120220	12022020	103956	70.35	12.548923	-57.191208	70.41	0.270	-0.350	0.550	70.33	-1.50	0.70	 	 	 	 	 	 	 	 	 	 	 	 	 	 	 	 	 	 	1581503996	2.24	4.15
12/02/2020 10:39:57	120220	12022020	103957	70.22	12.548928	-57.191213	70.25	0.370	0.010	-0.260	70.19	-1.30	0.00	 	 	 	 	 	 	 	 	 	 	 	 	 	 	 	 	 	 	1581503997	1.76	3.26
12/02/2020 10:39:58	120220	12022020	103958	70.04	12.548933	-57.191215	70.07	0.570	-0.100	-0.470	70.00	-1.40	-0.10	 	 	 	 	 	 	 	 	 	 	 	 	 	 	 	 	 	 	1581503998	0.94	1.74
12/02/2020 10:39:59	120220	12022020	103959	69.88	12.548935	-57.191213	69.88	0.360	0.010	-0.310	69.85	-1.20	0.10	 	 	 	 	 	 	 	 	 	 	 	 	 	 	 	 	 	 	1581503999	0.62	1.15
12/02/2020 10:40:00	120220	12022020	104000	69.64	12.548935	-57.191212	69.67	-0.330	0.530	-0.220	69.59	-0.60	0.20	 	 	 	 	 	 	 	 	 	 	 	 	 	 	 	 	 	 	1581504000	0.12	0.22
12/02/2020 10:40:01	120220	12022020	104001	69.35	12.548933	-57.191215	69.37	-0.970	0.930	-0.080	69.29	-0.40	0.40	1015.50	26.20	26.20	20.50	20.60	34.0	71.0	71.0	401.0	26.0	356.00	12.20	71.00	11.70	3627	10924.0	27.5	27.5	1581504001	0.59	1.09
12/02/2020 10:40:02	120220	12022020	104002	69.01	12.548932	-57.191217	69.03	-0.950	0.530	0.280	68.95	-1.00	0.80	 	 	 	 	 	 	 	 	 	 	 	 	 	 	 	 	 	 	1581504002	0.56	1.04
12/02/2020 10:40:03	120220	12022020	104003	68.73	12.548932	-57.191215	68.78	-0.210	-0.720	0.740	68.69	-2.30	1.20	 	 	 	 	 	 	 	 	 	 	 	 	 	 	 	 	 	 	1581504003	0.42	0.78
12/02/2020 10:40:04	120220	12022020	104004	68.67	12.548932	-57.191208	68.75	0.740	-1.990	1.000	68.69	-3.40	1.40	 	 	 	 	 	 	 	 	 	 	 	 	 	 	 	 	 	 	1581504004	1.27	2.35
12/02/2020 10:40:05	120220	12022020	104005	68.82	12.548935	-57.191203	68.91	1.220	-2.050	1.070	68.86	-3.10	1.50	 	 	 	 	 	 	 	 	 	 	 	 	 	 	 	 	 	 	1581504005	1.39	2.57
12/02/2020 10:40:06	120220	12022020	104006	68.98	12.548937	-57.191203	69.05	0.840	-0.500	1.230	69.00	-1.30	1.60	 	 	 	 	 	 	 	 	 	 	 	 	 	 	 	 	 	 	1581504006	0.40	0.74
12/02/2020 10:40:07	120220	12022020	104007	69.08	12.548935	-57.191208	69.17	-0.120	1.530	1.420	69.09	0.60	1.80	 	 	 	 	 	 	 	 	 	 	 	 	 	 	 	 	 	 	1581504007	1.37	2.54
12/02/2020 10:40:08	120220	12022020	104008	69.10	12.548932	-57.191217	69.18	-0.980	2.470	1.450	69.09	1.20	1.80	 	 	 	 	 	 	 	 	 	 	 	 	 	 	 	 	 	 	1581504008	1.86	3.44
12/02/2020 10:40:09	120220	12022020	104009	68.99	12.548930	-57.191222	69.04	-1.220	1.710	1.390	68.95	0.10	1.80	 	 	 	 	 	 	 	 	 	 	 	 	 	 	 	 	 	 	1581504009	0.89	1.65
12/02/2020 10:40:10	120220	12022020	104010	68.74	12.548932	-57.191218	68.78	-0.770	-0.130	1.430	68.69	-1.90	1.80	 	 	 	 	 	 	 	 	 	 	 	 	 	 	 	 	 	 	1581504010	0.58	1.07
12/02/2020 10:40:11	120220	12022020	104011	68.54	12.548935	-57.191213	68.55	-0.010	-1.910	1.420	68.51	-3.40	1.70	 	 	 	 	 	 	 	 	 	 	 	 	 	 	 	 	 	 	1581504011	1.41	2.61
12/02/2020 10:40:12	120220	12022020	104012	68.38	12.548940	-57.191208	68.44	0.680	-2.700	1.200	68.37	-3.90	1.50	 	 	 	 	 	 	 	 	 	 	 	 	 	 	 	 	 	 	1581504012	1.34	2.48
12/02/2020 10:40:13	120220	12022020	104013	68.31	12.548943	-57.191207	68.32	1.060	-2.290	0.940	68.29	-3.30	1.30	 	 	 	 	 	 	 	 	 	 	 	 	 	 	 	 	 	 	1581504013	0.81	1.50
12/02/2020 10:40:14	120220	12022020	104014	68.32	12.548945	-57.191208	68.37	1.060	-1.110	0.740	68.35	-2.00	1.10	 	 	 	 	 	 	 	 	 	 	 	 	 	 	 	 	 	 	1581504014	0.59	1.09
12/02/2020 10:40:15	120220	12022020	104015	68.56	12.548945	-57.191212	68.61	0.680	0.340	0.570	68.62	-0.60	0.90	 	 	 	 	 	 	 	 	 	 	 	 	 	 	 	 	 	 	1581504015	0.67	1.24
12/02/2020 10:40:16	120220	12022020	104016	68.84	12.548947	-57.191215	68.88	0.070	1.560	0.440	68.87	0.50	0.80	 	 	 	 	 	 	 	 	 	 	 	 	 	 	 	 	 	 	1581504016	0.78	1.44
12/02/2020 10:40:17	120220	12022020	104017	68.92	12.548947	-57.191218	68.94	-0.510	2.050	0.430	68.91	0.80	0.80	 	 	 	 	 	 	 	 	 	 	 	 	 	 	 	 	 	 	1581504017	0.66	1.22
12/02/2020 10:40:18	120220	12022020	104018	68.80	12.548947	-57.191220	68.81	-0.890	1.680	0.520	68.75	0.20	0.90	 	 	 	 	 	 	 	 	 	 	 	 	 	 	 	 	 	 	1581504018	0.26	0.48
12/02/2020 10:40:19	120220	12022020	104019	68.49	12.548948	-57.191218	68.48	-0.960	0.620	0.740	68.42	-0.90	1.20	 	 	 	 	 	 	 	 	 	 	 	 	 	 	 	 	 	 	1581504019	0.26	0.48
12/02/2020 10:40:20	120220	12022020	104020	68.20	12.548950	-57.191217	68.23	-0.640	-0.780	0.940	68.18	-2.40	1.30	 	 	 	 	 	 	 	 	 	 	 	 	 	 	 	 	 	 	1581504020	0.62	1.15
12/02/2020 10:40:21	120220	12022020	104021	68.30	12.548953	-57.191213	68.38	0.000	-1.980	0.830	68.38	-3.40	1.20	 	 	 	 	 	 	 	 	 	 	 	 	 	 	 	 	 	 	1581504021	0.94	1.74
12/02/2020 10:40:22	120220	12022020	104022	68.70	12.548957	-57.191210	68.78	0.610	-2.350	0.710	68.77	-3.50	1.10	 	 	 	 	 	 	 	 	 	 	 	 	 	 	 	 	 	 	1581504022	0.97	1.80
12/02/2020 10:40:23	120220	12022020	104023	68.89	12.548957	-57.191208	68.92	0.830	-1.550	0.780	68.87	-2.50	1.20	 	 	 	 	 	 	 	 	 	 	 	 	 	 	 	 	 	 	1581504023	0.34	0.63
12/02/2020 10:40:24	120220	12022020	104024	68.69	12.548957	-57.191212	68.69	0.620	-0.210	0.790	68.63	-1.20	1.10	 	 	 	 	 	 	 	 	 	 	 	 	 	 	 	 	 	 	1581504024	0.55	1.02
12/02/2020 10:40:25	120220	12022020	104025	68.46	12.548957	-57.191215	68.47	0.280	0.760	0.630	68.43	-0.40	0.90	 	 	 	 	 	 	 	 	 	 	 	 	 	 	 	 	 	 	1581504025	0.85	1.57
12/02/2020 10:40:26	120220	12022020	104026	68.45	12.548960	-57.191217	68.47	0.110	0.860	0.470	68.47	-0.50	0.90	 	 	 	 	 	 	 	 	 	 	 	 	 	 	 	 	 	 	1581504026	0.60	1.11
12/02/2020 10:40:27	120220	12022020	104027	68.55	12.548962	-57.191215	68.58	0.050	0.370	0.580	68.57	-1.00	1.00	 	 	 	 	 	 	 	 	 	 	 	 	 	 	 	 	 	 	1581504027	0.77	1.43
12/02/2020 10:40:28	120220	12022020	104028	68.63	12.548965	-57.191212	68.65	-0.080	-0.040	0.550	68.64	-1.30	0.90	 	 	 	 	 	 	 	 	 	 	 	 	 	 	 	 	 	 	1581504028	1.03	1.91
12/02/2020 10:40:29	120220	12022020	104029	68.68	12.548970	-57.191210	68.69	-0.330	0.090	0.180	68.68	-1.10	0.50	 	 	 	 	 	 	 	 	 	 	 	 	 	 	 	 	 	 	1581504029	0.94	1.74
12/02/2020 10:40:30	120220	12022020	104030	68.62	12.548973	-57.191213	68.62	-0.600	0.640	-0.070	68.59	-0.50	0.30	 	 	 	 	 	 	 	 	 	 	 	 	 	 	 	 	 	 	1581504030	1.17	2.17
12/02/2020 10:40:31	120220	12022020	104031	68.48	12.548975	-57.191218	68.49	-0.670	0.780	0.090	68.46	-0.60	0.60	 	 	 	 	 	 	 	 	 	 	 	 	 	 	 	 	 	 	1581504031	1.15	2.13
12/02/2020 10:40:32	120220	12022020	104032	68.43	12.548977	-57.191220	68.47	-0.340	-0.280	0.510	68.45	-1.90	1.00	 	 	 	 	 	 	 	 	 	 	 	 	 	 	 	 	 	 	1581504032	0.39	0.72
12/02/2020 10:40:33	120220	12022020	104033	68.59	12.548978	-57.191215	68.66	0.380	-2.070	0.700	68.65	-3.70	1.10	 	 	 	 	 	 	 	 	 	 	 	 	 	 	 	 	 	 	1581504033	1.07	1.98
12/02/2020 10:40:34	120220	12022020	104034	68.98	12.548983	-57.191207	69.07	1.080	-3.040	0.540	69.09	-4.20	0.90	 	 	 	 	 	 	 	 	 	 	 	 	 	 	 	 	 	 	1581504034	2.03	3.76
12/02/2020 10:40:35	120220	12022020	104035	69.57	12.548988	-57.191203	69.67	1.270	-1.990	0.470	69.68	-2.80	0.90	 	 	 	 	 	 	 	 	 	 	 	 	 	 	 	 	 	 	1581504035	1.52	2.82
12/02/2020 10:40:36	120220	12022020	104036	70.00	12.548988	-57.191205	70.07	0.750	0.380	0.860	70.03	-0.30	1.40	 	 	 	 	 	 	 	 	 	 	 	 	 	 	 	 	 	 	1581504036	0.63	1.17
12/02/2020 10:40:37	120220	12022020	104037	69.91	12.548985	-57.191213	69.93	-0.140	2.380	1.710	69.82	1.40	2.30	 	 	 	 	 	 	 	 	 	 	 	 	 	 	 	 	 	 	1581504037	1.75	3.24
12/02/2020 10:40:38	120220	12022020	104038	69.32	12.548980	-57.191218	69.35	-0.920	2.930	2.600	69.20	1.60	3.10	 	 	 	 	 	 	 	 	 	 	 	 	 	 	 	 	 	 	1581504038	1.43	2.65
12/02/2020 10:40:39	120220	12022020	104039	68.85	12.548978	-57.191218	68.94	-1.290	2.030	2.860	68.82	0.40	3.20	 	 	 	 	 	 	 	 	 	 	 	 	 	 	 	 	 	 	1581504039	0.35	0.65
12/02/2020 10:40:40	120220	12022020	104040	68.98	12.548982	-57.191215	69.14	-1.180	0.160	2.260	69.07	-1.60	2.40	 	 	 	 	 	 	 	 	 	 	 	 	 	 	 	 	 	 	1581504040	0.93	1.72
12/02/2020 10:40:41	120220	12022020	104041	69.55	12.548990	-57.191212	69.71	-0.620	-1.900	1.210	69.66	-3.60	1.40	 	 	 	 	 	 	 	 	 	 	 	 	 	 	 	 	 	 	1581504041	1.91	3.54
12/02/2020 10:40:42	120220	12022020	104042	70.02	12.549000	-57.191208	70.11	0.190	-3.160	0.420	70.07	-4.50	0.70	 	 	 	 	 	 	 	 	 	 	 	 	 	 	 	 	 	 	1581504042	2.17	4.02
12/02/2020 10:40:43	120220	12022020	104043	70.14	12.549005	-57.191207	70.18	0.960	-2.930	0.260	70.13	-3.90	0.70	 	 	 	 	 	 	 	 	 	 	 	 	 	 	 	 	 	 	1581504043	1.42	2.63
12/02/2020 10:40:44	120220	12022020	104044	70.09	12.549007	-57.191207	70.14	1.330	-1.480	0.560	70.09	-2.40	1.00	 	 	 	 	 	 	 	 	 	 	 	 	 	 	 	 	 	 	1581504044	0.39	0.72
12/02/2020 10:40:45	120220	12022020	104045	70.12	12.549007	-57.191210	70.18	1.180	0.220	0.920	70.14	-0.70	1.40	 	 	 	 	 	 	 	 	 	 	 	 	 	 	 	 	 	 	1581504045	0.69	1.28
12/02/2020 10:40:46	120220	12022020	104046	70.24	12.549005	-57.191213	70.32	0.670	1.330	1.150	70.27	0.20	1.50	 	 	 	 	 	 	 	 	 	 	 	 	 	 	 	 	 	 	1581504046	0.57	1.06
12/02/2020 10:40:47	120220	12022020	104047	70.41	12.549007	-57.191213	70.50	0.010	1.730	1.110	70.44	0.50	1.50	 	 	 	 	 	 	 	 	 	 	 	 	 	 	 	 	 	 	1581504047	0.28	0.52
12/02/2020 10:40:48	120220	12022020	104048	70.63	12.549010	-57.191213	70.73	-0.630	1.670	0.880	70.68	0.30	1.20	 	 	 	 	 	 	 	 	 	 	 	 	 	 	 	 	 	 	1581504048	0.74	1.37
12/02/2020 10:40:49	120220	12022020	104049	70.81	12.549013	-57.191213	70.94	-1.070	1.080	0.610	70.85	-0.40	0.90	 	 	 	 	 	 	 	 	 	 	 	 	 	 	 	 	 	 	1581504049	0.90	1.67
12/02/2020 10:40:50	120220	12022020	104050	70.95	12.549018	-57.191212	71.03	-1.120	-0.160	0.430	70.96	-1.80	0.80	 	 	 	 	 	 	 	 	 	 	 	 	 	 	 	 	 	 	1581504050	0.98	1.81
12/02/2020 10:40:51	120220	12022020	104051	71.01	12.549023	-57.191208	71.09	-0.710	-1.540	0.380	71.03	-3.00	0.80	 	 	 	 	 	 	 	 	 	 	 	 	 	 	 	 	 	 	1581504051	1.27	2.35
12/02/2020 10:40:52	120220	12022020	104052	71.22	12.549028	-57.191205	71.35	0.020	-2.190	0.450	71.30	-3.40	0.90	 	 	 	 	 	 	 	 	 	 	 	 	 	 	 	 	 	 	1581504052	1.38	2.56
12/02/2020 10:40:53	120220	12022020	104053	71.70	12.549032	-57.191202	71.85	0.690	-1.690	0.730	71.81	-2.70	1.20	 	 	 	 	 	 	 	 	 	 	 	 	 	 	 	 	 	 	1581504053	0.72	1.33
12/02/2020 10:40:54	120220	12022020	104054	72.24	12.549030	-57.191203	72.38	0.870	-0.530	1.040	72.32	-1.50	1.50	 	 	 	 	 	 	 	 	 	 	 	 	 	 	 	 	 	 	1581504054	0.33	0.61
12/02/2020 10:40:55	120220	12022020	104055	72.53	12.549027	-57.191205	72.62	0.540	0.410	1.170	72.54	-0.70	1.60	 	 	 	 	 	 	 	 	 	 	 	 	 	 	 	 	 	 	1581504055	0.73	1.35
12/02/2020 10:40:56	120220	12022020	104056	72.46	12.549025	-57.191205	72.51	0.100	0.660	1.270	72.43	-0.60	1.70	 	 	 	 	 	 	 	 	 	 	 	 	 	 	 	 	 	 	1581504056	0.17	0.31
12/02/2020 10:40:57	120220	12022020	104057	72.37	12.549028	-57.191202	72.46	-0.070	0.390	1.210	72.39	-1.00	1.50	 	 	 	 	 	 	 	 	 	 	 	 	 	 	 	 	 	 	1581504057	0.75	1.39
12/02/2020 10:40:58	120220	12022020	104058	72.59	12.549033	-57.191198	72.69	-0.020	-0.010	0.850	72.66	-1.30	1.10	 	 	 	 	 	 	 	 	 	 	 	 	 	 	 	 	 	 	1581504058	1.42	2.63
12/02/2020 10:40:59	120220	12022020	104059	72.88	12.549042	-57.191197	73.06	-0.030	-0.050	0.320	72.97	-1.30	0.60	 	 	 	 	 	 	 	 	 	 	 	 	 	 	 	 	 	 	1581504059	1.63	3.02
12/02/2020 10:41:00	120220	12022020	104100	73.33	12.549048	-57.191197	73.42	-0.200	0.200	-0.080	73.41	-1.00	0.30	 	 	 	 	 	 	 	 	 	 	 	 	 	 	 	 	 	 	1581504060	1.44	2.67
12/02/2020 10:41:01	120220	12022020	104101	73.65	12.549052	-57.191198	73.82	-0.340	0.190	-0.190	73.73	-1.20	0.20	1015.40	26.20	26.30	20.40	20.40	35.0	70.0	70.0	402.0	26.0	0.00	12.10	70.00	11.60	3788	11398.0	27.4	27.4	1581504061	0.98	1.81
12/02/2020 10:41:02	120220	12022020	104102	74.26	12.549053	-57.191197	74.38	-0.260	-0.280	-0.030	74.38	-1.70	0.40	 	 	 	 	 	 	 	 	 	 	 	 	 	 	 	 	 	 	1581504062	0.45	0.83
12/02/2020 10:41:03	120220	12022020	104103	74.71	12.549053	-57.191192	74.90	-0.010	-0.850	0.400	74.80	-2.20	0.90	 	 	 	 	 	 	 	 	 	 	 	 	 	 	 	 	 	 	1581504063	0.89	1.65
12/02/2020 10:41:04	120220	12022020	104104	74.97	12.549053	-57.191187	75.04	0.210	-1.060	1.090	74.96	-2.30	1.60	 	 	 	 	 	 	 	 	 	 	 	 	 	 	 	 	 	 	1581504064	1.14	2.11
12/02/2020 10:41:05	120220	12022020	104105	74.88	12.549052	-57.191183	74.97	0.250	-0.690	1.750	74.87	-1.80	2.20	 	 	 	 	 	 	 	 	 	 	 	 	 	 	 	 	 	 	1581504065	0.93	1.72
12/02/2020 10:41:06	120220	12022020	104106	75.03	12.549052	-57.191182	75.18	0.110	0.030	2.030	75.11	-1.10	2.40	 	 	 	 	 	 	 	 	 	 	 	 	 	 	 	 	 	 	1581504066	0.36	0.67
12/02/2020 10:41:07	120220	12022020	104107	75.55	12.549052	-57.191182	75.74	-0.120	0.550	2.030	75.67	-0.70	2.40	 	 	 	 	 	 	 	 	 	 	 	 	 	 	 	 	 	 	1581504067	0.14	0.26
12/02/2020 10:41:08	120220	12022020	104108	76.14	12.549053	-57.191182	76.32	-0.230	0.460	1.920	76.23	-0.90	2.30	 	 	 	 	 	 	 	 	 	 	 	 	 	 	 	 	 	 	1581504068	0.24	0.44
12/02/2020 10:41:09	120220	12022020	104109	76.56	12.549055	-57.191178	76.72	-0.030	-0.170	1.550	76.62	-1.60	1.80	 	 	 	 	 	 	 	 	 	 	 	 	 	 	 	 	 	 	1581504069	0.80	1.48
12/02/2020 10:41:10	120220	12022020	104110	76.86	12.549060	-57.191173	76.99	0.320	-0.710	0.930	76.92	-2.00	1.20	 	 	 	 	 	 	 	 	 	 	 	 	 	 	 	 	 	 	1581504070	1.52	2.82
12/02/2020 10:41:11	120220	12022020	104111	77.17	12.549067	-57.191170	77.30	0.430	-0.610	0.480	77.25	-1.80	0.80	 	 	 	 	 	 	 	 	 	 	 	 	 	 	 	 	 	 	1581504071	1.69	3.13
12/02/2020 10:41:12	120220	12022020	104112	77.66	12.549072	-57.191168	77.81	0.130	-0.050	0.420	77.78	-1.20	0.90	 	 	 	 	 	 	 	 	 	 	 	 	 	 	 	 	 	 	1581504072	1.08	2.00
12/02/2020 10:41:13	120220	12022020	104113	78.27	12.549073	-57.191170	78.41	-0.280	0.260	0.620	78.38	-1.00	1.10	 	 	 	 	 	 	 	 	 	 	 	 	 	 	 	 	 	 	1581504073	0.37	0.69
12/02/2020 10:41:14	120220	12022020	104114	78.73	12.549073	-57.191168	78.84	-0.390	0.080	0.950	78.79	-1.30	1.40	 	 	 	 	 	 	 	 	 	 	 	 	 	 	 	 	 	 	1581504074	0.32	0.59
12/02/2020 10:41:15	120220	12022020	104115	78.99	12.549073	-57.191163	79.07	-0.150	-0.360	1.280	79.04	-1.70	1.70	 	 	 	 	 	 	 	 	 	 	 	 	 	 	 	 	 	 	1581504075	0.89	1.65
12/02/2020 10:41:16	120220	12022020	104116	79.23	12.549073	-57.191158	79.31	0.180	-0.720	1.510	79.28	-2.00	1.90	 	 	 	 	 	 	 	 	 	 	 	 	 	 	 	 	 	 	1581504076	1.18	2.19
12/02/2020 10:41:17	120220	12022020	104117	79.59	12.549073	-57.191153	79.70	0.370	-0.740	1.660	79.68	-1.90	2.10	 	 	 	 	 	 	 	 	 	 	 	 	 	 	 	 	 	 	1581504077	1.09	2.02
12/02/2020 10:41:18	120220	12022020	104118	80.18	12.549073	-57.191150	80.32	0.290	-0.320	1.560	80.33	-1.50	1.90	 	 	 	 	 	 	 	 	 	 	 	 	 	 	 	 	 	 	1581504078	0.74	1.37
12/02/2020 10:41:19	120220	12022020	104119	80.94	12.549077	-57.191148	81.07	-0.030	0.320	1.150	81.09	-0.80	1.40	 	 	 	 	 	 	 	 	 	 	 	 	 	 	 	 	 	 	1581504079	0.68	1.26
12/02/2020 10:41:20	120220	12022020	104120	81.65	12.549080	-57.191150	81.75	-0.360	0.800	0.690	81.76	-0.50	1.00	 	 	 	 	 	 	 	 	 	 	 	 	 	 	 	 	 	 	1581504080	0.82	1.52
12/02/2020 10:41:21	120220	12022020	104121	82.06	12.549083	-57.191148	82.11	-0.480	0.650	0.550	82.11	-0.80	1.00	 	 	 	 	 	 	 	 	 	 	 	 	 	 	 	 	 	 	1581504081	0.67	1.24
12/02/2020 10:41:22	120220	12022020	104122	82.24	12.549085	-57.191145	82.31	-0.330	-0.150	0.730	82.28	-1.70	1.20	 	 	 	 	 	 	 	 	 	 	 	 	 	 	 	 	 	 	1581504082	0.77	1.43
12/02/2020 10:41:23	120220	12022020	104123	82.48	12.549087	-57.191140	82.56	-0.020	-1.080	0.860	82.56	-2.50	1.30	 	 	 	 	 	 	 	 	 	 	 	 	 	 	 	 	 	 	1581504083	1.39	2.57
12/02/2020 10:41:24	120220	12022020	104124	82.94	12.549088	-57.191132	83.03	0.230	-1.420	0.840	83.05	-2.60	1.20	 	 	 	 	 	 	 	 	 	 	 	 	 	 	 	 	 	 	1581504084	1.52	2.82
12/02/2020 10:41:25	120220	12022020	104125	83.51	12.549090	-57.191128	83.61	0.270	-0.890	0.790	83.62	-1.90	1.20	 	 	 	 	 	 	 	 	 	 	 	 	 	 	 	 	 	 	1581504085	0.99	1.83
12/02/2020 10:41:26	120220	12022020	104126	84.02	12.549092	-57.191128	84.12	0.150	0.090	0.740	84.13	-1.00	1.10	 	 	 	 	 	 	 	 	 	 	 	 	 	 	 	 	 	 	1581504086	0.31	0.57
12/02/2020 10:41:27	120220	12022020	104127	84.56	12.549092	-57.191128	84.63	-0.010	0.680	0.620	84.66	-0.60	1.00	 	 	 	 	 	 	 	 	 	 	 	 	 	 	 	 	 	 	1581504087	0.23	0.43
12/02/2020 10:41:28	120220	12022020	104128	85.02	12.549092	-57.191127	85.08	-0.060	0.430	0.620	85.08	-1.00	1.00	 	 	 	 	 	 	 	 	 	 	 	 	 	 	 	 	 	 	1581504088	0.39	0.72
12/02/2020 10:41:29	120220	12022020	104129	85.34	12.549093	-57.191120	85.39	0.060	-0.320	0.780	85.39	-1.80	1.20	 	 	 	 	 	 	 	 	 	 	 	 	 	 	 	 	 	 	1581504089	1.29	2.39
12/02/2020 10:41:30	120220	12022020	104130	85.72	12.549093	-57.191112	85.79	0.160	-0.770	0.950	85.81	-2.00	1.40	 	 	 	 	 	 	 	 	 	 	 	 	 	 	 	 	 	 	1581504090	1.72	3.19
12/02/2020 10:41:31	120220	12022020	104131	86.31	12.549095	-57.191107	86.41	-0.020	-0.400	1.070	86.45	-1.50	1.50	 	 	 	 	 	 	 	 	 	 	 	 	 	 	 	 	 	 	1581504091	1.28	2.37
12/02/2020 10:41:32	120220	12022020	104132	86.92	12.549095	-57.191105	87.01	-0.390	0.460	1.250	87.03	-0.70	1.70	 	 	 	 	 	 	 	 	 	 	 	 	 	 	 	 	 	 	1581504092	0.23	0.43
12/02/2020 10:41:33	120220	12022020	104133	87.33	12.549095	-57.191107	87.39	-0.600	0.900	1.480	87.39	-0.40	1.90	 	 	 	 	 	 	 	 	 	 	 	 	 	 	 	 	 	 	1581504093	0.44	0.81
12/02/2020 10:41:34	120220	12022020	104134	87.55	12.549093	-57.191107	87.59	-0.450	0.410	1.690	87.58	-1.10	2.10	 	 	 	 	 	 	 	 	 	 	 	 	 	 	 	 	 	 	1581504094	0.36	0.67
12/02/2020 10:41:35	120220	12022020	104135	87.70	12.549092	-57.191100	87.75	-0.120	-0.530	1.780	87.76	-2.00	2.20	 	 	 	 	 	 	 	 	 	 	 	 	 	 	 	 	 	 	1581504095	1.16	2.15
12/02/2020 10:41:36	120220	12022020	104136	88.10	12.549093	-57.191093	88.20	0.090	-1.140	1.580	88.23	-2.50	1.90	 	 	 	 	 	 	 	 	 	 	 	 	 	 	 	 	 	 	1581504096	1.51	2.80
12/02/2020 10:41:37	120220	12022020	104137	88.76	12.549095	-57.191088	88.86	0.220	-1.290	1.180	88.90	-2.60	1.50	 	 	 	 	 	 	 	 	 	 	 	 	 	 	 	 	 	 	1581504097	1.18	2.19
12/02/2020 10:41:38	120220	12022020	104138	89.29	12.549097	-57.191083	89.33	0.520	-1.290	0.870	89.35	-2.60	1.20	 	 	 	 	 	 	 	 	 	 	 	 	 	 	 	 	 	 	1581504098	0.92	1.70
12/02/2020 10:41:39	120220	12022020	104139	89.48	12.549097	-57.191078	89.53	0.900	-1.030	0.630	89.51	-2.20	1.00	 	 	 	 	 	 	 	 	 	 	 	 	 	 	 	 	 	 	1581504099	1.18	2.19
12/02/2020 10:41:40	120220	12022020	104140	89.68	12.549098	-57.191073	89.70	0.860	-0.070	0.430	89.73	-1.10	0.80	 	 	 	 	 	 	 	 	 	 	 	 	 	 	 	 	 	 	1581504100	1.19	2.20
12/02/2020 10:41:41	120220	12022020	104141	89.99	12.549100	-57.191072	90.03	0.120	1.320	0.440	90.07	0.30	0.90	 	 	 	 	 	 	 	 	 	 	 	 	 	 	 	 	 	 	1581504101	0.65	1.20
12/02/2020 10:41:42	120220	12022020	104142	90.51	12.549102	-57.191073	90.57	-0.930	2.280	0.450	90.63	1.00	0.80	 	 	 	 	 	 	 	 	 	 	 	 	 	 	 	 	 	 	1581504102	0.47	0.87
12/02/2020 10:41:43	120220	12022020	104143	91.09	12.549102	-57.191075	91.13	-1.570	1.940	0.360	91.18	0.30	0.80	 	 	 	 	 	 	 	 	 	 	 	 	 	 	 	 	 	 	1581504103	0.24	0.44
12/02/2020 10:41:44	120220	12022020	104144	91.41	12.549100	-57.191070	91.43	-1.320	0.160	0.480	91.44	-1.70	1.00	 	 	 	 	 	 	 	 	 	 	 	 	 	 	 	 	 	 	1581504104	0.86	1.59
12/02/2020 10:41:45	120220	12022020	104145	91.45	12.549097	-57.191060	91.46	-0.330	-2.000	1.020	91.45	-3.60	1.60	 	 	 	 	 	 	 	 	 	 	 	 	 	 	 	 	 	 	1581504105	2.27	4.20
12/02/2020 10:41:46	120220	12022020	104146	91.47	12.549092	-57.191048	91.52	0.730	-2.930	1.660	91.50	-4.20	2.20	 	 	 	 	 	 	 	 	 	 	 	 	 	 	 	 	 	 	1581504106	2.67	4.94
12/02/2020 10:41:47	120220	12022020	104147	91.63	12.549088	-57.191042	91.75	1.220	-2.190	2.010	91.68	-3.20	2.40	 	 	 	 	 	 	 	 	 	 	 	 	 	 	 	 	 	 	1581504107	1.60	2.96
12/02/2020 10:41:48	120220	12022020	104148	91.98	12.549087	-57.191042	92.05	0.990	-0.730	1.960	92.04	-1.70	2.30	 	 	 	 	 	 	 	 	 	 	 	 	 	 	 	 	 	 	1581504108	0.36	0.67
12/02/2020 10:41:49	120220	12022020	104149	92.28	12.549088	-57.191042	92.34	0.410	0.450	1.600	92.35	-0.60	1.90	 	 	 	 	 	 	 	 	 	 	 	 	 	 	 	 	 	 	1581504109	0.09	0.17
12/02/2020 10:41:50	120220	12022020	104150	92.69	12.549088	-57.191038	92.78	-0.130	1.260	1.140	92.79	0.10	1.50	 	 	 	 	 	 	 	 	 	 	 	 	 	 	 	 	 	 	1581504110	0.58	1.07
12/02/2020 10:41:51	120220	12022020	104151	93.08	12.549090	-57.191035	93.24	-0.600	1.800	0.800	93.15	0.50	1.10	 	 	 	 	 	 	 	 	 	 	 	 	 	 	 	 	 	 	1581504111	0.69	1.28
12/02/2020 10:41:52	120220	12022020	104152	93.43	12.549090	-57.191033	93.47	-0.940	1.660	0.550	93.46	0.20	0.90	 	 	 	 	 	 	 	 	 	 	 	 	 	 	 	 	 	 	1581504112	0.48	0.89
12/02/2020 10:41:53	120220	12022020	104153	93.47	12.549088	-57.191030	93.46	-0.910	0.550	0.440	93.46	-1.10	0.90	 	 	 	 	 	 	 	 	 	 	 	 	 	 	 	 	 	 	1581504113	0.83	1.54
12/02/2020 10:41:54	120220	12022020	104154	93.31	12.549087	-57.191022	93.31	-0.370	-1.120	0.540	93.28	-2.80	1.00	 	 	 	 	 	 	 	 	 	 	 	 	 	 	 	 	 	 	1581504114	1.64	3.04
12/02/2020 10:41:55	120220	12022020	104155	93.30	12.549087	-57.191012	93.34	0.490	-2.410	0.570	93.33	-3.90	1.00	 	 	 	 	 	 	 	 	 	 	 	 	 	 	 	 	 	 	1581504115	2.20	4.07
12/02/2020 10:41:56	120220	12022020	104156	93.55	12.549087	-57.191002	93.62	1.200	-2.690	0.570	93.61	-3.90	1.00	 	 	 	 	 	 	 	 	 	 	 	 	 	 	 	 	 	 	1581504116	2.04	3.78
12/02/2020 10:41:57	120220	12022020	104157	93.81	12.549085	-57.190995	93.87	1.310	-1.730	0.880	93.85	-2.70	1.40	 	 	 	 	 	 	 	 	 	 	 	 	 	 	 	 	 	 	1581504117	1.40	2.59
12/02/2020 10:41:58	120220	12022020	104158	93.97	12.549083	-57.190993	94.04	0.760	0.110	1.350	94.01	-0.70	1.80	 	 	 	 	 	 	 	 	 	 	 	 	 	 	 	 	 	 	1581504118	0.81	1.50
12/02/2020 10:41:59	120220	12022020	104159	94.21	12.549078	-57.190993	94.30	-0.190	1.960	1.530	94.27	0.90	1.90	 	 	 	 	 	 	 	 	 	 	 	 	 	 	 	 	 	 	1581504119	0.83	1.54
12/02/2020 10:42:00	120220	12022020	104200	94.57	12.549077	-57.190995	94.66	-1.100	2.730	1.360	94.63	1.40	1.70	 	 	 	 	 	 	 	 	 	 	 	 	 	 	 	 	 	 	1581504120	0.54	1.00
12/02/2020 10:42:01	120220	12022020	104201	94.82	12.549077	-57.190993	94.90	-1.540	1.940	1.240	94.86	0.20	1.60	1015.40	26.20	26.20	20.20	20.30	36.0	69.0	70.0	401.0	26.0	343.00	13.50	69.00	13.20	3973	11057.0	27.4	27.4	1581504121	0.46	0.85
12/02/2020 10:42:02	120220	12022020	104202	94.93	12.549073	-57.190987	94.99	-1.270	-0.060	1.370	94.93	-1.90	1.80	 	 	 	 	 	 	 	 	 	 	 	 	 	 	 	 	 	 	1581504122	1.71	3.17
12/02/2020 10:42:03	120220	12022020	104203	94.86	12.549067	-57.190975	94.91	-0.360	-2.170	1.670	94.83	-3.80	2.10	 	 	 	 	 	 	 	 	 	 	 	 	 	 	 	 	 	 	1581504123	2.76	5.11
12/02/2020 10:42:04	120220	12022020	104204	94.71	12.549062	-57.190962	94.79	0.720	-3.110	1.860	94.70	-4.40	2.30	 	 	 	 	 	 	 	 	 	 	 	 	 	 	 	 	 	 	1581504124	2.90	5.37
12/02/2020 10:42:05	120220	12022020	104205	94.72	12.549058	-57.190955	94.82	1.300	-2.240	1.770	94.75	-3.10	2.10	 	 	 	 	 	 	 	 	 	 	 	 	 	 	 	 	 	 	1581504125	1.87	3.46
12/02/2020 10:42:06	120220	12022020	104206	94.83	12.549057	-57.190953	94.93	1.110	-0.240	1.510	94.84	-1.10	1.90	 	 	 	 	 	 	 	 	 	 	 	 	 	 	 	 	 	 	1581504126	0.32	0.59
12/02/2020 10:42:07	120220	12022020	104207	94.79	12.549058	-57.190955	94.85	0.490	1.360	1.200	94.77	0.30	1.50	 	 	 	 	 	 	 	 	 	 	 	 	 	 	 	 	 	 	1581504127	0.54	1.00
12/02/2020 10:42:08	120220	12022020	104208	94.74	12.549062	-57.190955	94.80	-0.110	1.810	0.710	94.76	0.40	1.00	 	 	 	 	 	 	 	 	 	 	 	 	 	 	 	 	 	 	1581504128	0.58	1.07
12/02/2020 10:42:09	120220	12022020	104209	94.99	12.549065	-57.190950	95.07	-0.420	1.200	0.050	95.07	-0.40	0.30	 	 	 	 	 	 	 	 	 	 	 	 	 	 	 	 	 	 	1581504129	1.34	2.48
12/02/2020 10:42:10	120220	12022020	104210	95.36	12.549065	-57.190940	95.41	-0.380	-0.020	-0.310	95.41	-1.60	0.10	 	 	 	 	 	 	 	 	 	 	 	 	 	 	 	 	 	 	1581504130	1.88	3.48
12/02/2020 10:42:11	120220	12022020	104211	95.47	12.549063	-57.190930	95.47	-0.100	-1.300	-0.040	95.46	-2.80	0.50	 	 	 	 	 	 	 	 	 	 	 	 	 	 	 	 	 	 	1581504131	2.26	4.19
12/02/2020 10:42:12	120220	12022020	104212	95.38	12.549057	-57.190920	95.40	0.250	-1.960	0.620	95.36	-3.20	1.20	 	 	 	 	 	 	 	 	 	 	 	 	 	 	 	 	 	 	1581504132	2.61	4.83
12/02/2020 10:42:13	120220	12022020	104213	95.30	12.549048	-57.190912	95.33	0.390	-1.460	1.320	95.28	-2.50	1.90	 	 	 	 	 	 	 	 	 	 	 	 	 	 	 	 	 	 	1581504133	2.33	4.32
12/02/2020 10:42:14	120220	12022020	104214	95.22	12.549043	-57.190908	95.28	0.030	0.050	1.920	95.22	-0.80	2.40	 	 	 	 	 	 	 	 	 	 	 	 	 	 	 	 	 	 	1581504134	1.48	2.74
12/02/2020 10:42:15	120220	12022020	104215	95.23	12.549037	-57.190910	95.32	-0.690	1.580	2.290	95.24	0.50	2.70	 	 	 	 	 	 	 	 	 	 	 	 	 	 	 	 	 	 	1581504135	1.19	2.20
12/02/2020 10:42:16	120220	12022020	104216	95.36	12.549033	-57.190912	95.46	-1.150	1.900	2.370	95.40	0.40	2.70	 	 	 	 	 	 	 	 	 	 	 	 	 	 	 	 	 	 	1581504136	1.12	2.07
12/02/2020 10:42:17	120220	12022020	104217	95.63	12.549028	-57.190908	95.73	-0.700	0.510	2.060	95.69	-1.30	2.30	 	 	 	 	 	 	 	 	 	 	 	 	 	 	 	 	 	 	1581504137	1.26	2.33
12/02/2020 10:42:18	120220	12022020	104218	95.81	12.549025	-57.190897	95.86	0.500	-1.590	1.580	95.80	-3.30	1.90	 	 	 	 	 	 	 	 	 	 	 	 	 	 	 	 	 	 	1581504138	2.59	4.80
12/02/2020 10:42:19	120220	12022020	104219	95.65	12.549023	-57.190882	95.67	1.540	-2.660	1.340	95.61	-3.90	1.70	 	 	 	 	 	 	 	 	 	 	 	 	 	 	 	 	 	 	1581504139	3.23	5.98
12/02/2020 10:42:20	120220	12022020	104220	95.46	12.549023	-57.190870	95.48	1.540	-1.750	1.420	95.44	-2.60	1.90	 	 	 	 	 	 	 	 	 	 	 	 	 	 	 	 	 	 	1581504140	2.22	4.11
12/02/2020 10:42:21	120220	12022020	104221	95.54	12.549023	-57.190870	95.62	0.480	0.360	1.780	95.61	-0.50	2.30	 	 	 	 	 	 	 	 	 	 	 	 	 	 	 	 	 	 	1581504141	0.30	0.56
12/02/2020 10:42:22	120220	12022020	104222	95.99	12.549020	-57.190873	96.11	-0.800	2.030	2.060	96.11	0.90	2.50	 	 	 	 	 	 	 	 	 	 	 	 	 	 	 	 	 	 	1581504142	1.14	2.11
12/02/2020 10:42:23	120220	12022020	104223	96.55	12.549015	-57.190875	96.67	-1.350	2.120	2.050	96.65	0.60	2.40	 	 	 	 	 	 	 	 	 	 	 	 	 	 	 	 	 	 	1581504143	1.30	2.41
12/02/2020 10:42:24	120220	12022020	104224	96.92	12.549008	-57.190872	97.01	-0.900	0.620	1.920	96.95	-1.10	2.30	 	 	 	 	 	 	 	 	 	 	 	 	 	 	 	 	 	 	1581504144	1.59	2.94
12/02/2020 10:42:25	120220	12022020	104225	96.93	12.549003	-57.190860	96.98	0.080	-1.400	2.010	96.89	-3.10	2.50	 	 	 	 	 	 	 	 	 	 	 	 	 	 	 	 	 	 	1581504145	2.75	5.09
12/02/2020 10:42:26	120220	12022020	104226	96.68	12.548997	-57.190845	96.72	0.860	-2.480	2.330	96.61	-3.80	2.80	 	 	 	 	 	 	 	 	 	 	 	 	 	 	 	 	 	 	1581504146	3.17	5.87
12/02/2020 10:42:27	120220	12022020	104227	96.47	12.548992	-57.190837	96.50	1.010	-1.840	2.560	96.45	-2.80	2.90	 	 	 	 	 	 	 	 	 	 	 	 	 	 	 	 	 	 	1581504147	2.35	4.35
12/02/2020 10:42:28	120220	12022020	104228	96.59	12.548988	-57.190833	96.68	0.560	-0.100	2.140	96.67	-1.00	2.40	 	 	 	 	 	 	 	 	 	 	 	 	 	 	 	 	 	 	1581504148	0.80	1.48
12/02/2020 10:42:29	120220	12022020	104229	97.00	12.548990	-57.190835	97.20	-0.150	1.420	1.220	97.12	0.30	1.40	 	 	 	 	 	 	 	 	 	 	 	 	 	 	 	 	 	 	1581504149	0.45	0.83
12/02/2020 10:42:30	120220	12022020	104230	97.67	12.548993	-57.190835	97.70	-0.720	1.760	0.550	97.75	0.30	0.90	 	 	 	 	 	 	 	 	 	 	 	 	 	 	 	 	 	 	1581504150	0.61	1.13
12/02/2020 10:42:31	120220	12022020	104231	97.92	12.548992	-57.190830	97.90	-0.780	0.670	0.430	97.93	-1.00	0.90	 	 	 	 	 	 	 	 	 	 	 	 	 	 	 	 	 	 	1581504151	1.06	1.96
12/02/2020 10:42:32	120220	12022020	104232	97.94	12.548987	-57.190820	97.91	-0.310	-1.070	0.570	97.93	-2.70	1.00	 	 	 	 	 	 	 	 	 	 	 	 	 	 	 	 	 	 	1581504152	2.58	4.78
12/02/2020 10:42:33	120220	12022020	104233	97.86	12.548978	-57.190807	97.81	0.360	-2.110	0.870	97.83	-3.40	1.40	 	 	 	 	 	 	 	 	 	 	 	 	 	 	 	 	 	 	1581504153	3.24	6.00
12/02/2020 10:42:34	120220	12022020	104234	97.80	12.548972	-57.190797	97.80	0.740	-1.550	1.180	97.82	-2.50	1.60	 	 	 	 	 	 	 	 	 	 	 	 	 	 	 	 	 	 	1581504154	2.47	4.57
12/02/2020 10:42:35	120220	12022020	104235	98.10	12.548968	-57.190795	98.14	0.520	0.090	1.250	98.21	-0.80	1.60	 	 	 	 	 	 	 	 	 	 	 	 	 	 	 	 	 	 	1581504155	0.98	1.81
12/02/2020 10:42:36	120220	12022020	104236	98.69	12.548965	-57.190797	98.71	-0.060	1.300	1.090	98.80	0.10	1.50	 	 	 	 	 	 	 	 	 	 	 	 	 	 	 	 	 	 	1581504156	0.58	1.07
12/02/2020 10:42:37	120220	12022020	104237	99.10	12.548963	-57.190795	99.09	-0.470	1.140	1.110	99.13	-0.40	1.60	 	 	 	 	 	 	 	 	 	 	 	 	 	 	 	 	 	 	1581504157	0.66	1.22
12/02/2020 10:42:38	120220	12022020	104238	99.06	12.548957	-57.190788	99.01	-0.400	-0.020	1.520	99.01	-1.60	2.10	 	 	 	 	 	 	 	 	 	 	 	 	 	 	 	 	 	 	1581504158	1.93	3.57
12/02/2020 10:42:39	120220	12022020	104239	98.75	12.548950	-57.190777	98.70	-0.010	-1.080	2.190	98.69	-2.50	2.70	 	 	 	 	 	 	 	 	 	 	 	 	 	 	 	 	 	 	1581504159	2.81	5.20
12/02/2020 10:42:40	120220	12022020	104240	98.65	12.548942	-57.190767	98.68	0.360	-1.360	2.590	98.70	-2.60	3.00	 	 	 	 	 	 	 	 	 	 	 	 	 	 	 	 	 	 	1581504160	2.68	4.96
12/02/2020 10:42:41	120220	12022020	104241	98.94	12.548937	-57.190760	99.11	0.480	-0.880	2.410	99.05	-2.00	2.70	 	 	 	 	 	 	 	 	 	 	 	 	 	 	 	 	 	 	1581504161	1.90	3.52
12/02/2020 10:42:42	120220	12022020	104242	99.62	12.548933	-57.190757	99.65	0.310	-0.020	1.900	99.72	-1.10	2.20	 	 	 	 	 	 	 	 	 	 	 	 	 	 	 	 	 	 	1581504162	1.13	2.09
12/02/2020 10:42:43	120220	12022020	104243	99.92	12.548932	-57.190753	99.93	-0.040	0.640	1.470	99.95	-0.60	1.80	 	 	 	 	 	 	 	 	 	 	 	 	 	 	 	 	 	 	1581504163	0.77	1.43
12/02/2020 10:42:44	120220	12022020	104244	99.97	12.548930	-57.190748	99.94	-0.340	0.670	1.250	99.96	-0.70	1.60	 	 	 	 	 	 	 	 	 	 	 	 	 	 	 	 	 	 	1581504164	1.02	1.89
12/02/2020 10:42:45	120220	12022020	104245	99.93	12.548925	-57.190742	99.89	-0.380	0.120	1.110	99.93	-1.30	1.50	 	 	 	 	 	 	 	 	 	 	 	 	 	 	 	 	 	 	1581504165	1.68	3.11
12/02/2020 10:42:46	120220	12022020	104246	99.91	12.548922	-57.190732	99.88	-0.220	-0.430	1.000	99.92	-1.80	1.40	 	 	 	 	 	 	 	 	 	 	 	 	 	 	 	 	 	 	1581504166	2.14	3.96
12/02/2020 10:42:47	120220	12022020	104247	99.99	12.548918	-57.190723	99.98	-0.060	-0.630	0.900	100.03	-1.90	1.30	 	 	 	 	 	 	 	 	 	 	 	 	 	 	 	 	 	 	1581504167	2.03	3.76
12/02/2020 10:42:48	120220	12022020	104248	100.25	12.548913	-57.190717	100.26	0.090	-0.600	0.820	100.31	-1.90	1.20	 	 	 	 	 	 	 	 	 	 	 	 	 	 	 	 	 	 	1581504168	1.69	3.13
12/02/2020 10:42:49	120220	12022020	104249	100.49	12.548908	-57.190710	100.49	0.320	-0.650	0.900	100.51	-2.00	1.40	 	 	 	 	 	 	 	 	 	 	 	 	 	 	 	 	 	 	1581504169	1.67	3.09
12/02/2020 10:42:50	120220	12022020	104250	100.42	12.548903	-57.190702	100.39	0.540	-0.690	1.330	100.37	-1.90	1.90	 	 	 	 	 	 	 	 	 	 	 	 	 	 	 	 	 	 	1581504170	2.07	3.83
12/02/2020 10:42:51	120220	12022020	104251	100.16	12.548897	-57.190693	100.14	0.460	-0.270	1.820	100.12	-1.40	2.30	 	 	 	 	 	 	 	 	 	 	 	 	 	 	 	 	 	 	1581504171	2.28	4.22
12/02/2020 10:42:52	120220	12022020	104252	100.17	12.548892	-57.190688	100.22	-0.010	0.620	1.970	100.23	-0.50	2.40	 	 	 	 	 	 	 	 	 	 	 	 	 	 	 	 	 	 	1581504172	1.71	3.17
12/02/2020 10:42:53	120220	12022020	104253	100.66	12.548888	-57.190685	100.75	-0.570	1.200	1.800	100.80	-0.10	2.20	 	 	 	 	 	 	 	 	 	 	 	 	 	 	 	 	 	 	1581504173	1.00	1.85
12/02/2020 10:42:54	120220	12022020	104254	101.33	12.548885	-57.190680	101.42	-0.820	0.810	1.660	101.45	-0.70	2.10	 	 	 	 	 	 	 	 	 	 	 	 	 	 	 	 	 	 	1581504174	1.17	2.17
12/02/2020 10:42:55	120220	12022020	104255	101.70	12.548878	-57.190672	101.68	-0.570	-0.370	1.760	101.70	-2.00	2.30	 	 	 	 	 	 	 	 	 	 	 	 	 	 	 	 	 	 	1581504175	2.15	3.98
12/02/2020 10:42:56	120220	12022020	104256	101.49	12.548870	-57.190662	101.42	-0.000	-1.470	2.180	101.40	-2.90	2.70	 	 	 	 	 	 	 	 	 	 	 	 	 	 	 	 	 	 	1581504176	2.99	5.54
12/02/2020 10:42:57	120220	12022020	104257	101.04	12.548862	-57.190650	101.00	0.430	-1.670	2.700	100.97	-2.80	3.20	 	 	 	 	 	 	 	 	 	 	 	 	 	 	 	 	 	 	1581504177	3.01	5.57
12/02/2020 10:42:58	120220	12022020	104258	100.76	12.548853	-57.190642	100.74	0.520	-0.940	2.950	100.74	-2.00	3.40	 	 	 	 	 	 	 	 	 	 	 	 	 	 	 	 	 	 	1581504178	2.24	4.15
12/02/2020 10:42:59	120220	12022020	104259	100.74	12.548848	-57.190638	100.72	0.440	-0.030	2.670	100.75	-1.20	3.00	 	 	 	 	 	 	 	 	 	 	 	 	 	 	 	 	 	 	1581504179	1.38	2.56
12/02/2020 10:43:00	120220	12022020	104300	100.85	12.548848	-57.190632	100.84	0.390	0.390	1.920	100.90	-0.90	2.10	 	 	 	 	 	 	 	 	 	 	 	 	 	 	 	 	 	 	1581504180	1.25	2.31
12/02/2020 10:43:01	120220	12022020	104301	101.26	12.548848	-57.190623	101.26	0.220	0.440	0.820	101.38	-0.80	1.00	1015.30	26.20	26.20	20.20	20.30	37.0	69.0	70.0	400.0	26.0	332.00	13.60	67.00	12.80	4155	11249.0	27.4	27.4	1581504181	2.01	3.72
12/02/2020 10:43:02	120220	12022020	104302	101.91	12.548850	-57.190613	101.90	-0.280	0.500	0.030	102.04	-0.80	0.40	 	 	 	 	 	 	 	 	 	 	 	 	 	 	 	 	 	 	1581504182	2.18	4.04
12/02/2020 10:43:03	120220	12022020	104303	102.44	12.548847	-57.190605	102.40	-0.900	0.510	0.060	102.50	-0.80	0.60	 	 	 	 	 	 	 	 	 	 	 	 	 	 	 	 	 	 	1581504183	1.72	3.19
12/02/2020 10:43:04	120220	12022020	104304	102.57	12.548840	-57.190600	102.48	-1.060	0.220	0.810	102.56	-1.20	1.50	 	 	 	 	 	 	 	 	 	 	 	 	 	 	 	 	 	 	1581504184	2.10	3.89
12/02/2020 10:43:05	120220	12022020	104305	102.35	12.548827	-57.190593	102.23	-0.470	-0.490	1.730	102.27	-2.00	2.40	 	 	 	 	 	 	 	 	 	 	 	 	 	 	 	 	 	 	1581504185	2.93	5.43
12/02/2020 10:43:06	120220	12022020	104306	101.96	12.548815	-57.190583	101.88	0.440	-1.280	2.390	101.91	-2.70	2.90	 	 	 	 	 	 	 	 	 	 	 	 	 	 	 	 	 	 	1581504186	3.15	5.83
12/02/2020 10:43:07	120220	12022020	104307	101.87	12.548808	-57.190573	101.87	0.960	-1.480	2.630	101.91	-2.70	3.10	 	 	 	 	 	 	 	 	 	 	 	 	 	 	 	 	 	 	1581504187	2.93	5.43
12/02/2020 10:43:08	120220	12022020	104308	102.21	12.548803	-57.190563	102.24	0.720	-0.790	2.670	102.29	-1.80	3.10	 	 	 	 	 	 	 	 	 	 	 	 	 	 	 	 	 	 	1581504188	2.25	4.17
12/02/2020 10:43:09	120220	12022020	104309	102.68	12.548798	-57.190558	102.68	0.020	0.300	2.500	102.76	-0.80	2.90	 	 	 	 	 	 	 	 	 	 	 	 	 	 	 	 	 	 	1581504189	1.41	2.61
12/02/2020 10:43:10	120220	12022020	104310	102.99	12.548795	-57.190553	102.95	-0.560	0.910	2.130	103.02	-0.40	2.50	 	 	 	 	 	 	 	 	 	 	 	 	 	 	 	 	 	 	1581504190	1.21	2.24
12/02/2020 10:43:11	120220	12022020	104311	103.01	12.548790	-57.190547	102.94	-0.700	0.760	1.830	102.99	-0.60	2.20	 	 	 	 	 	 	 	 	 	 	 	 	 	 	 	 	 	 	1581504191	1.74	3.22
12/02/2020 10:43:12	120220	12022020	104312	102.89	12.548783	-57.190538	102.82	-0.470	0.240	1.570	102.88	-1.20	1.90	 	 	 	 	 	 	 	 	 	 	 	 	 	 	 	 	 	 	1581504192	2.40	4.44
12/02/2020 10:43:13	120220	12022020	104313	102.92	12.548778	-57.190527	102.89	-0.140	-0.220	1.130	102.96	-1.60	1.40	 	 	 	 	 	 	 	 	 	 	 	 	 	 	 	 	 	 	1581504193	2.52	4.67
12/02/2020 10:43:14	120220	12022020	104314	103.24	12.548775	-57.190517	103.25	0.040	-0.470	0.470	103.33	-1.80	0.80	 	 	 	 	 	 	 	 	 	 	 	 	 	 	 	 	 	 	1581504194	2.22	4.11
12/02/2020 10:43:15	120220	12022020	104315	103.63	12.548773	-57.190508	103.62	0.140	-0.750	0.090	103.67	-2.10	0.50	 	 	 	 	 	 	 	 	 	 	 	 	 	 	 	 	 	 	1581504195	1.98	3.67
12/02/2020 10:43:16	120220	12022020	104316	103.70	12.548770	-57.190498	103.69	0.360	-1.100	0.340	103.67	-2.40	0.90	 	 	 	 	 	 	 	 	 	 	 	 	 	 	 	 	 	 	1581504196	2.23	4.13
12/02/2020 10:43:17	120220	12022020	104317	103.48	12.548762	-57.190488	103.47	0.640	-1.100	0.950	103.42	-2.30	1.50	 	 	 	 	 	 	 	 	 	 	 	 	 	 	 	 	 	 	1581504197	2.75	5.09
12/02/2020 10:43:18	120220	12022020	104318	103.22	12.548753	-57.190478	103.22	0.670	-0.560	1.620	103.18	-1.70	2.20	 	 	 	 	 	 	 	 	 	 	 	 	 	 	 	 	 	 	1581504198	2.73	5.06
12/02/2020 10:43:19	120220	12022020	104319	103.17	12.548745	-57.190470	103.24	0.260	0.260	2.190	103.19	-0.90	2.70	 	 	 	 	 	 	 	 	 	 	 	 	 	 	 	 	 	 	1581504199	2.39	4.43
12/02/2020 10:43:20	120220	12022020	104320	103.50	12.548738	-57.190465	103.58	-0.470	0.970	2.420	103.59	-0.20	2.90	 	 	 	 	 	 	 	 	 	 	 	 	 	 	 	 	 	 	1581504200	2.07	3.83
12/02/2020 10:43:21	120220	12022020	104321	103.98	12.548732	-57.190458	104.06	-1.140	1.240	2.460	104.05	-0.10	2.90	 	 	 	 	 	 	 	 	 	 	 	 	 	 	 	 	 	 	1581504201	1.88	3.48
12/02/2020 10:43:22	120220	12022020	104322	104.32	12.548723	-57.190452	104.37	-1.320	0.830	2.430	104.35	-0.70	2.90	 	 	 	 	 	 	 	 	 	 	 	 	 	 	 	 	 	 	1581504202	2.12	3.93
12/02/2020 10:43:23	120220	12022020	104323	104.37	12.548715	-57.190442	104.39	-0.890	-0.120	2.420	104.34	-1.60	2.80	 	 	 	 	 	 	 	 	 	 	 	 	 	 	 	 	 	 	1581504203	2.68	4.96
12/02/2020 10:43:24	120220	12022020	104324	104.18	12.548707	-57.190432	104.16	-0.120	-1.010	2.420	104.13	-2.50	2.80	 	 	 	 	 	 	 	 	 	 	 	 	 	 	 	 	 	 	1581504204	3.07	5.69
12/02/2020 10:43:25	120220	12022020	104325	104.00	12.548698	-57.190420	104.00	0.670	-1.500	2.240	103.99	-2.80	2.60	 	 	 	 	 	 	 	 	 	 	 	 	 	 	 	 	 	 	1581504205	2.93	5.43
12/02/2020 10:43:26	120220	12022020	104326	104.01	12.548693	-57.190408	103.98	1.200	-1.590	1.750	104.02	-2.80	2.10	 	 	 	 	 	 	 	 	 	 	 	 	 	 	 	 	 	 	1581504206	2.58	4.78
12/02/2020 10:43:27	120220	12022020	104327	104.11	12.548692	-57.190397	104.11	1.260	-1.290	1.120	104.14	-2.40	1.40	 	 	 	 	 	 	 	 	 	 	 	 	 	 	 	 	 	 	1581504207	2.56	4.74
12/02/2020 10:43:28	120220	12022020	104328	104.28	12.548692	-57.190385	104.28	0.830	-0.420	0.640	104.32	-1.40	1.00	 	 	 	 	 	 	 	 	 	 	 	 	 	 	 	 	 	 	1581504208	2.47	4.57
12/02/2020 10:43:29	120220	12022020	104329	104.46	12.548688	-57.190377	104.47	0.130	0.740	0.520	104.50	-0.30	1.00	 	 	 	 	 	 	 	 	 	 	 	 	 	 	 	 	 	 	1581504209	1.91	3.54
12/02/2020 10:43:30	120220	12022020	104330	104.63	12.548685	-57.190370	104.63	-0.470	1.540	0.630	104.66	0.30	1.10	 	 	 	 	 	 	 	 	 	 	 	 	 	 	 	 	 	 	1581504210	1.66	3.07
12/02/2020 10:43:31	120220	12022020	104331	104.74	12.548678	-57.190363	104.77	-0.760	1.530	0.800	104.76	0.10	1.30	 	 	 	 	 	 	 	 	 	 	 	 	 	 	 	 	 	 	1581504211	1.92	3.56
12/02/2020 10:43:32	120220	12022020	104332	104.80	12.548672	-57.190353	104.82	-0.810	0.650	1.120	104.80	-0.90	1.70	 	 	 	 	 	 	 	 	 	 	 	 	 	 	 	 	 	 	1581504212	2.50	4.63
12/02/2020 10:43:33	120220	12022020	104333	104.76	12.548663	-57.190340	104.77	-0.690	-0.700	1.780	104.74	-2.30	2.40	 	 	 	 	 	 	 	 	 	 	 	 	 	 	 	 	 	 	1581504213	3.32	6.15
12/02/2020 10:43:34	120220	12022020	104334	104.68	12.548648	-57.190328	104.73	-0.520	-1.650	2.680	104.67	-3.00	3.30	 	 	 	 	 	 	 	 	 	 	 	 	 	 	 	 	 	 	1581504214	4.02	7.45
12/02/2020 10:43:35	120220	12022020	104335	104.60	12.548633	-57.190317	104.66	-0.310	-1.570	3.360	104.59	-2.70	3.80	 	 	 	 	 	 	 	 	 	 	 	 	 	 	 	 	 	 	1581504215	3.95	7.32
12/02/2020 10:43:36	120220	12022020	104336	104.49	12.548622	-57.190310	104.54	-0.000	-0.760	3.240	104.48	-1.80	3.50	 	 	 	 	 	 	 	 	 	 	 	 	 	 	 	 	 	 	1581504216	2.92	5.41
12/02/2020 10:43:37	120220	12022020	104337	104.44	12.548617	-57.190303	104.47	0.460	-0.070	2.240	104.43	-1.30	2.40	 	 	 	 	 	 	 	 	 	 	 	 	 	 	 	 	 	 	1581504217	1.76	3.26
12/02/2020 10:43:38	120220	12022020	104338	104.47	12.548618	-57.190293	104.49	0.940	-0.010	0.980	104.49	-1.30	1.20	 	 	 	 	 	 	 	 	 	 	 	 	 	 	 	 	 	 	1581504218	2.21	4.09
12/02/2020 10:43:39	120220	12022020	104339	104.63	12.548620	-57.190278	104.64	1.090	-0.280	-0.010	104.67	-1.60	0.30	 	 	 	 	 	 	 	 	 	 	 	 	 	 	 	 	 	 	1581504219	3.14	5.82
12/02/2020 10:43:40	120220	12022020	104340	104.73	12.548620	-57.190263	104.71	0.700	-0.330	-0.460	104.72	-1.60	-0.00	 	 	 	 	 	 	 	 	 	 	 	 	 	 	 	 	 	 	1581504220	3.25	6.02
12/02/2020 10:43:41	120220	12022020	104341	104.57	12.548617	-57.190250	104.52	0.030	0.040	-0.300	104.51	-1.10	0.30	 	 	 	 	 	 	 	 	 	 	 	 	 	 	 	 	 	 	1581504221	2.76	5.11
12/02/2020 10:43:42	120220	12022020	104342	104.31	12.548608	-57.190242	104.28	-0.470	0.610	0.220	104.29	-0.50	0.80	 	 	 	 	 	 	 	 	 	 	 	 	 	 	 	 	 	 	1581504222	2.53	4.69
12/02/2020 10:43:43	120220	12022020	104343	104.35	12.548600	-57.190233	104.39	-0.690	1.040	0.670	104.40	-0.20	1.20	 	 	 	 	 	 	 	 	 	 	 	 	 	 	 	 	 	 	1581504223	2.47	4.57
12/02/2020 10:43:44	120220	12022020	104344	104.62	12.548592	-57.190227	104.65	-0.740	0.810	1.350	104.67	-0.60	2.00	 	 	 	 	 	 	 	 	 	 	 	 	 	 	 	 	 	 	1581504224	2.49	4.61
12/02/2020 10:43:45	120220	12022020	104345	104.81	12.548580	-57.190217	104.85	-0.690	-0.170	2.300	104.83	-1.70	2.90	 	 	 	 	 	 	 	 	 	 	 	 	 	 	 	 	 	 	1581504225	3.09	5.72
12/02/2020 10:43:46	120220	12022020	104346	104.83	12.548567	-57.190205	104.83	-0.460	-1.430	3.110	104.79	-3.00	3.70	 	 	 	 	 	 	 	 	 	 	 	 	 	 	 	 	 	 	1581504226	3.82	7.07
12/02/2020 10:43:47	120220	12022020	104347	104.51	12.548553	-57.190192	104.50	0.060	-2.250	3.880	104.41	-3.60	4.50	 	 	 	 	 	 	 	 	 	 	 	 	 	 	 	 	 	 	1581504227	4.15	7.69
12/02/2020 10:43:48	120220	12022020	104348	103.99	12.548540	-57.190178	104.00	0.780	-2.100	4.510	103.89	-3.20	5.00	 	 	 	 	 	 	 	 	 	 	 	 	 	 	 	 	 	 	1581504228	4.00	7.41
12/02/2020 10:43:49	120220	12022020	104349	103.66	12.548530	-57.190167	103.72	1.180	-0.830	4.400	103.65	-1.70	4.60	 	 	 	 	 	 	 	 	 	 	 	 	 	 	 	 	 	 	1581504229	3.32	6.15
12/02/2020 10:43:50	120220	12022020	104350	103.82	12.548525	-57.190158	103.92	0.770	1.080	3.220	103.91	0.20	3.20	 	 	 	 	 	 	 	 	 	 	 	 	 	 	 	 	 	 	1581504230	1.96	3.63
12/02/2020 10:43:51	120220	12022020	104351	104.41	12.548528	-57.190152	104.51	-0.230	2.450	1.400	104.54	1.30	1.40	 	 	 	 	 	 	 	 	 	 	 	 	 	 	 	 	 	 	1581504231	1.46	2.70
12/02/2020 10:43:52	120220	12022020	104352	104.94	12.548533	-57.190145	104.92	-1.050	2.260	-0.240	104.99	0.70	-0.10	 	 	 	 	 	 	 	 	 	 	 	 	 	 	 	 	 	 	1581504232	1.95	3.61
12/02/2020 10:43:53	120220	12022020	104353	105.05	12.548535	-57.190132	104.94	-0.960	0.380	-1.130	105.02	-1.50	-0.80	 	 	 	 	 	 	 	 	 	 	 	 	 	 	 	 	 	 	1581504233	2.77	5.13
12/02/2020 10:43:54	120220	12022020	104354	104.80	12.548530	-57.190112	104.68	-0.100	-2.000	-1.290	104.74	-3.70	-0.80	 	 	 	 	 	 	 	 	 	 	 	 	 	 	 	 	 	 	1581504234	4.16	7.70
12/02/2020 10:43:55	120220	12022020	104355	104.57	12.548522	-57.190092	104.51	0.700	-3.030	-0.970	104.56	-4.20	-0.40	 	 	 	 	 	 	 	 	 	 	 	 	 	 	 	 	 	 	1581504235	4.69	8.69
12/02/2020 10:43:56	120220	12022020	104356	104.68	12.548512	-57.190078	104.71	0.730	-1.860	-0.350	104.76	-2.70	0.20	 	 	 	 	 	 	 	 	 	 	 	 	 	 	 	 	 	 	1581504236	3.47	6.43
12/02/2020 10:43:57	120220	12022020	104357	105.15	12.548503	-57.190075	105.21	0.090	0.320	0.430	105.24	-0.50	1.10	 	 	 	 	 	 	 	 	 	 	 	 	 	 	 	 	 	 	1581504237	1.95	3.61
12/02/2020 10:43:58	120220	12022020	104358	105.50	12.548493	-57.190077	105.52	-0.550	1.700	1.530	105.52	0.50	2.20	 	 	 	 	 	 	 	 	 	 	 	 	 	 	 	 	 	 	1581504238	1.90	3.52
12/02/2020 10:43:59	120220	12022020	104359	105.46	12.548482	-57.190073	105.50	-0.650	1.390	2.770	105.43	-0.20	3.40	 	 	 	 	 	 	 	 	 	 	 	 	 	 	 	 	 	 	1581504239	2.69	4.98
12/02/2020 10:44:00	120220	12022020	104400	105.27	12.548467	-57.190062	105.33	-0.170	-0.130	3.710	105.23	-1.80	4.30	 	 	 	 	 	 	 	 	 	 	 	 	 	 	 	 	 	 	1581504240	3.95	7.32
12/02/2020 10:44:01	120220	12022020	104401	105.13	12.548453	-57.190045	105.22	0.410	-1.510	4.240	105.12	-3.00	4.70	1015.40	26.20	26.30	20.60	20.70	37.0	71.0	71.0	399.0	26.0	327.00	12.70	67.00	11.60	4318	10332.0	27.4	27.4	1581504241	4.66	8.63
12/02/2020 10:44:02	120220	12022020	104402	105.13	12.548442	-57.190028	105.21	0.670	-1.660	4.200	105.14	-2.80	4.50	 	 	 	 	 	 	 	 	 	 	 	 	 	 	 	 	 	 	1581504242	4.16	7.70
12/02/2020 10:44:03	120220	12022020	104403	105.22	12.548437	-57.190017	105.30	0.510	-0.650	3.550	105.24	-1.60	3.70	 	 	 	 	 	 	 	 	 	 	 	 	 	 	 	 	 	 	1581504243	2.70	5.00
12/02/2020 10:44:04	120220	12022020	104404	105.33	12.548435	-57.190008	105.38	0.150	0.580	2.440	105.35	-0.50	2.60	 	 	 	 	 	 	 	 	 	 	 	 	 	 	 	 	 	 	1581504244	1.69	3.13
12/02/2020 10:44:05	120220	12022020	104405	105.55	12.548437	-57.190002	105.58	-0.310	1.310	1.110	105.61	0.10	1.20	 	 	 	 	 	 	 	 	 	 	 	 	 	 	 	 	 	 	1581504245	1.77	3.28
12/02/2020 10:44:06	120220	12022020	104406	105.96	12.548438	-57.189992	106.01	-0.730	1.300	-0.100	106.06	-0.10	0.10	 	 	 	 	 	 	 	 	 	 	 	 	 	 	 	 	 	 	1581504246	2.07	3.83
12/02/2020 10:44:07	120220	12022020	104407	106.43	12.548437	-57.189980	106.43	-0.840	0.440	-0.850	106.49	-1.20	-0.50	 	 	 	 	 	 	 	 	 	 	 	 	 	 	 	 	 	 	1581504247	2.35	4.35
12/02/2020 10:44:08	120220	12022020	104408	106.55	12.548430	-57.189967	106.47	-0.370	-1.200	-0.830	106.49	-2.90	-0.30	 	 	 	 	 	 	 	 	 	 	 	 	 	 	 	 	 	 	1581504248	3.19	5.91
12/02/2020 10:44:09	120220	12022020	104409	106.05	12.548417	-57.189950	105.94	0.480	-2.570	-0.030	105.90	-4.00	0.70	 	 	 	 	 	 	 	 	 	 	 	 	 	 	 	 	 	 	1581504249	4.34	8.04
12/02/2020 10:44:10	120220	12022020	104410	105.36	12.548403	-57.189935	105.30	0.990	-2.290	1.110	105.26	-3.20	1.80	 	 	 	 	 	 	 	 	 	 	 	 	 	 	 	 	 	 	1581504250	4.43	8.20
12/02/2020 10:44:11	120220	12022020	104411	105.11	12.548392	-57.189927	105.13	0.770	-0.400	1.830	105.13	-1.20	2.30	 	 	 	 	 	 	 	 	 	 	 	 	 	 	 	 	 	 	1581504251	3.05	5.65
12/02/2020 10:44:12	120220	12022020	104412	105.50	12.548385	-57.189923	105.59	0.100	1.560	1.860	105.63	0.60	2.20	 	 	 	 	 	 	 	 	 	 	 	 	 	 	 	 	 	 	1581504252	1.49	2.76
12/02/2020 10:44:13	120220	12022020	104413	106.27	12.548382	-57.189920	106.36	-0.390	2.010	1.590	106.40	0.50	2.00	 	 	 	 	 	 	 	 	 	 	 	 	 	 	 	 	 	 	1581504253	1.09	2.02
12/02/2020 10:44:14	120220	12022020	104414	106.70	12.548377	-57.189908	106.76	-0.320	0.650	1.590	106.71	-1.10	2.00	 	 	 	 	 	 	 	 	 	 	 	 	 	 	 	 	 	 	1581504254	2.59	4.80
12/02/2020 10:44:15	120220	12022020	104415	106.62	12.548367	-57.189892	106.65	-0.010	-1.090	1.910	106.57	-2.60	2.40	 	 	 	 	 	 	 	 	 	 	 	 	 	 	 	 	 	 	1581504255	4.37	8.09
12/02/2020 10:44:16	120220	12022020	104416	106.40	12.548353	-57.189873	106.46	0.010	-1.510	2.530	106.37	-2.70	3.10	 	 	 	 	 	 	 	 	 	 	 	 	 	 	 	 	 	 	1581504256	4.52	8.37
12/02/2020 10:44:17	120220	12022020	104417	106.35	12.548342	-57.189865	106.44	-0.280	-0.480	3.120	106.38	-1.40	3.60	 	 	 	 	 	 	 	 	 	 	 	 	 	 	 	 	 	 	1581504257	3.32	6.15
12/02/2020 10:44:18	120220	12022020	104418	106.59	12.548332	-57.189862	106.70	-0.470	0.690	3.100	106.66	-0.50	3.40	 	 	 	 	 	 	 	 	 	 	 	 	 	 	 	 	 	 	1581504258	2.32	4.30
12/02/2020 10:44:19	120220	12022020	104419	106.89	12.548325	-57.189857	106.97	-0.210	0.640	2.310	106.91	-0.90	2.50	 	 	 	 	 	 	 	 	 	 	 	 	 	 	 	 	 	 	1581504259	1.78	3.30
12/02/2020 10:44:20	120220	12022020	104420	106.85	12.548320	-57.189843	106.86	0.350	-0.560	1.410	106.80	-2.20	1.70	 	 	 	 	 	 	 	 	 	 	 	 	 	 	 	 	 	 	1581504260	2.88	5.33
12/02/2020 10:44:21	120220	12022020	104421	106.61	12.548315	-57.189825	106.56	0.760	-1.690	0.940	106.56	-3.10	1.30	 	 	 	 	 	 	 	 	 	 	 	 	 	 	 	 	 	 	1581504261	4.06	7.52
12/02/2020 10:44:22	120220	12022020	104422	106.47	12.548310	-57.189807	106.53	0.730	-1.540	0.690	106.51	-2.60	1.00	 	 	 	 	 	 	 	 	 	 	 	 	 	 	 	 	 	 	1581504262	3.90	7.22
12/02/2020 10:44:23	120220	12022020	104423	106.68	12.548305	-57.189797	106.82	0.250	-0.170	0.370	106.75	-1.10	0.70	 	 	 	 	 	 	 	 	 	 	 	 	 	 	 	 	 	 	1581504263	2.59	4.80
12/02/2020 10:44:24	120220	12022020	104424	107.08	12.548300	-57.189790	107.11	-0.290	1.090	0.120	107.11	-0.10	0.50	 	 	 	 	 	 	 	 	 	 	 	 	 	 	 	 	 	 	1581504264	1.59	2.94
12/02/2020 10:44:25	120220	12022020	104425	107.06	12.548293	-57.189783	107.06	-0.420	1.080	0.340	107.02	-0.40	0.90	 	 	 	 	 	 	 	 	 	 	 	 	 	 	 	 	 	 	1581504265	2.10	3.89
12/02/2020 10:44:26	120220	12022020	104426	106.85	12.548282	-57.189772	106.86	-0.100	0.160	0.960	106.83	-1.30	1.50	 	 	 	 	 	 	 	 	 	 	 	 	 	 	 	 	 	 	1581504266	3.55	6.57
12/02/2020 10:44:27	120220	12022020	104427	106.89	12.548270	-57.189757	106.96	0.170	-0.340	1.480	106.94	-1.60	2.00	 	 	 	 	 	 	 	 	 	 	 	 	 	 	 	 	 	 	1581504267	4.17	7.72
12/02/2020 10:44:28	120220	12022020	104428	107.25	12.548260	-57.189745	107.34	-0.000	0.030	1.720	107.34	-1.10	2.10	 	 	 	 	 	 	 	 	 	 	 	 	 	 	 	 	 	 	1581504268	3.24	6.00
12/02/2020 10:44:29	120220	12022020	104429	107.60	12.548252	-57.189738	107.65	-0.460	0.360	1.870	107.63	-1.00	2.30	 	 	 	 	 	 	 	 	 	 	 	 	 	 	 	 	 	 	1581504269	2.13	3.94
12/02/2020 10:44:30	120220	12022020	104430	107.52	12.548243	-57.189730	107.53	-0.630	-0.290	2.270	107.45	-1.90	2.80	 	 	 	 	 	 	 	 	 	 	 	 	 	 	 	 	 	 	1581504270	2.41	4.46
12/02/2020 10:44:31	120220	12022020	104431	107.00	12.548230	-57.189718	106.98	-0.180	-1.650	3.040	106.86	-3.20	3.60	 	 	 	 	 	 	 	 	 	 	 	 	 	 	 	 	 	 	1581504271	3.80	7.04
12/02/2020 10:44:32	120220	12022020	104432	106.36	12.548215	-57.189702	106.36	0.590	-2.390	3.680	106.27	-3.60	4.10	 	 	 	 	 	 	 	 	 	 	 	 	 	 	 	 	 	 	1581504272	4.79	8.87
12/02/2020 10:44:33	120220	12022020	104433	106.15	12.548203	-57.189687	106.23	1.000	-1.530	3.520	106.17	-2.40	3.70	 	 	 	 	 	 	 	 	 	 	 	 	 	 	 	 	 	 	1581504273	4.16	7.70
12/02/2020 10:44:34	120220	12022020	104434	106.43	12.548197	-57.189677	106.52	0.700	0.390	2.480	106.51	-0.50	2.60	 	 	 	 	 	 	 	 	 	 	 	 	 	 	 	 	 	 	1581504274	2.36	4.37
12/02/2020 10:44:35	120220	12022020	104435	106.81	12.548197	-57.189672	106.87	-0.010	1.850	1.110	106.86	0.70	1.20	 	 	 	 	 	 	 	 	 	 	 	 	 	 	 	 	 	 	1581504275	1.34	2.48
12/02/2020 10:44:36	120220	12022020	104436	107.03	12.548198	-57.189662	107.05	-0.590	1.930	-0.040	107.06	0.50	0.20	 	 	 	 	 	 	 	 	 	 	 	 	 	 	 	 	 	 	1581504276	1.94	3.59
12/02/2020 10:44:37	120220	12022020	104437	107.24	12.548197	-57.189648	107.25	-0.760	0.950	-0.830	107.28	-0.60	-0.50	 	 	 	 	 	 	 	 	 	 	 	 	 	 	 	 	 	 	1581504277	2.97	5.50
12/02/2020 10:44:38	120220	12022020	104438	107.36	12.548190	-57.189632	107.33	-0.600	-0.210	-1.000	107.34	-1.70	-0.50	 	 	 	 	 	 	 	 	 	 	 	 	 	 	 	 	 	 	1581504278	3.65	6.76
12/02/2020 10:44:39	120220	12022020	104439	107.08	12.548182	-57.189617	107.01	-0.330	-0.970	-0.380	106.98	-2.40	0.20	 	 	 	 	 	 	 	 	 	 	 	 	 	 	 	 	 	 	1581504279	3.64	6.74
12/02/2020 10:44:40	120220	12022020	104440	106.57	12.548168	-57.189607	106.51	-0.070	-1.290	0.600	106.48	-2.60	1.20	 	 	 	 	 	 	 	 	 	 	 	 	 	 	 	 	 	 	1581504280	3.49	6.46
12/02/2020 10:44:41	120220	12022020	104441	106.28	12.548157	-57.189597	106.28	0.230	-1.460	1.460	106.26	-2.80	2.00	 	 	 	 	 	 	 	 	 	 	 	 	 	 	 	 	 	 	1581504281	3.41	6.32
12/02/2020 10:44:42	120220	12022020	104442	106.25	12.548145	-57.189585	106.29	0.630	-1.490	2.180	106.24	-2.80	2.70	 	 	 	 	 	 	 	 	 	 	 	 	 	 	 	 	 	 	1581504282	3.47	6.43
12/02/2020 10:44:43	120220	12022020	104443	106.16	12.548133	-57.189572	106.18	0.880	-1.090	2.850	106.12	-2.20	3.40	 	 	 	 	 	 	 	 	 	 	 	 	 	 	 	 	 	 	1581504283	3.64	6.74
12/02/2020 10:44:44	120220	12022020	104444	105.97	12.548123	-57.189560	105.99	0.660	-0.130	3.280	105.94	-1.20	3.70	 	 	 	 	 	 	 	 	 	 	 	 	 	 	 	 	 	 	1581504284	3.39	6.28
12/02/2020 10:44:45	120220	12022020	104445	105.88	12.548115	-57.189550	105.92	-0.010	1.050	3.290	105.88	-0.00	3.60	 	 	 	 	 	 	 	 	 	 	 	 	 	 	 	 	 	 	1581504285	2.85	5.28
12/02/2020 10:44:46	120220	12022020	104446	105.98	12.548107	-57.189542	106.07	-0.720	1.790	2.850	106.02	0.50	3.10	 	 	 	 	 	 	 	 	 	 	 	 	 	 	 	 	 	 	1581504286	2.36	4.37
12/02/2020 10:44:47	120220	12022020	104447	106.13	12.548102	-57.189532	106.23	-0.940	1.440	2.100	106.16	-0.10	2.30	 	 	 	 	 	 	 	 	 	 	 	 	 	 	 	 	 	 	1581504287	2.42	4.48
12/02/2020 10:44:48	120220	12022020	104448	106.14	12.548095	-57.189517	106.17	-0.590	0.160	1.370	106.11	-1.40	1.60	 	 	 	 	 	 	 	 	 	 	 	 	 	 	 	 	 	 	1581504288	3.29	6.09
12/02/2020 10:44:49	120220	12022020	104449	105.94	12.548090	-57.189500	105.95	-0.110	-0.960	0.740	105.91	-2.40	1.10	 	 	 	 	 	 	 	 	 	 	 	 	 	 	 	 	 	 	1581504289	3.98	7.37
12/02/2020 10:44:50	120220	12022020	104450	105.85	12.548085	-57.189483	105.88	0.110	-1.280	0.400	105.86	-2.60	0.80	 	 	 	 	 	 	 	 	 	 	 	 	 	 	 	 	 	 	1581504290	3.59	6.65
12/02/2020 10:44:51	120220	12022020	104451	105.96	12.548080	-57.189472	105.99	0.140	-1.070	0.390	105.99	-2.30	0.80	 	 	 	 	 	 	 	 	 	 	 	 	 	 	 	 	 	 	1581504291	2.81	5.20
12/02/2020 10:44:52	120220	12022020	104452	106.00	12.548073	-57.189462	106.01	0.250	-0.840	0.710	105.96	-2.10	1.20	 	 	 	 	 	 	 	 	 	 	 	 	 	 	 	 	 	 	1581504292	2.66	4.93
12/02/2020 10:44:53	120220	12022020	104453	105.69	12.548063	-57.189450	105.67	0.500	-0.780	1.240	105.60	-2.10	1.80	 	 	 	 	 	 	 	 	 	 	 	 	 	 	 	 	 	 	1581504293	3.12	5.78
12/02/2020 10:44:54	120220	12022020	104454	105.27	12.548053	-57.189437	105.27	0.670	-0.690	1.810	105.20	-2.00	2.30	 	 	 	 	 	 	 	 	 	 	 	 	 	 	 	 	 	 	1581504294	3.60	6.67
12/02/2020 10:44:55	120220	12022020	104455	105.00	12.548043	-57.189422	105.04	0.550	-0.340	2.460	104.96	-1.50	3.00	 	 	 	 	 	 	 	 	 	 	 	 	 	 	 	 	 	 	1581504295	3.77	6.98
12/02/2020 10:44:56	120220	12022020	104456	104.85	12.548032	-57.189408	104.93	0.090	0.430	2.970	104.85	-0.70	3.40	 	 	 	 	 	 	 	 	 	 	 	 	 	 	 	 	 	 	1581504296	3.64	6.74
12/02/2020 10:44:57	120220	12022020	104457	104.93	12.548022	-57.189398	105.02	-0.520	1.370	2.700	104.98	0.20	2.90	 	 	 	 	 	 	 	 	 	 	 	 	 	 	 	 	 	 	1581504297	2.91	5.39
12/02/2020 10:44:58	120220	12022020	104458	105.18	12.548018	-57.189390	105.25	-0.960	1.730	1.870	105.23	0.30	2.10	 	 	 	 	 	 	 	 	 	 	 	 	 	 	 	 	 	 	1581504298	2.16	4.00
12/02/2020 10:44:59	120220	12022020	104459	105.33	12.548015	-57.189378	105.39	-0.950	0.920	1.260	105.35	-0.80	1.60	 	 	 	 	 	 	 	 	 	 	 	 	 	 	 	 	 	 	1581504299	2.47	4.57
12/02/2020 10:45:00	120220	12022020	104500	105.38	12.548010	-57.189363	105.40	-0.450	-0.710	1.050	105.37	-2.40	1.40	 	 	 	 	 	 	 	 	 	 	 	 	 	 	 	 	 	 	1581504300	3.54	6.56
12/02/2020 10:45:01	120220	12022020	104501	105.28	12.548000	-57.189343	105.28	0.250	-2.160	1.000	105.26	-3.70	1.40	1015.40	26.20	26.30	21.00	21.00	37.0	72.0	72.0	399.0	26.0	330.00	12.30	72.00	11.00	4457	9415.0	27.4	27.4	1581504301	4.38	8.11
12/02/2020 10:45:02	120220	12022020	104502	105.12	12.547992	-57.189327	105.12	0.760	-2.460	1.050	105.07	-3.60	1.50	 	 	 	 	 	 	 	 	 	 	 	 	 	 	 	 	 	 	1581504302	4.31	7.98
12/02/2020 10:45:03	120220	12022020	104503	104.76	12.547982	-57.189312	104.72	0.820	-1.420	1.450	104.65	-2.40	2.00	 	 	 	 	 	 	 	 	 	 	 	 	 	 	 	 	 	 	1581504303	3.40	6.30
12/02/2020 10:45:04	120220	12022020	104504	104.17	12.547975	-57.189303	104.15	0.480	0.180	1.970	104.05	-0.80	2.40	 	 	 	 	 	 	 	 	 	 	 	 	 	 	 	 	 	 	1581504304	2.45	4.54
12/02/2020 10:45:05	120220	12022020	104505	103.78	12.547968	-57.189297	103.83	-0.050	1.370	2.040	103.78	0.20	2.40	 	 	 	 	 	 	 	 	 	 	 	 	 	 	 	 	 	 	1581504305	2.14	3.96
12/02/2020 10:45:06	120220	12022020	104506	104.04	12.547963	-57.189287	104.12	-0.430	1.510	1.470	104.14	0.00	1.70	 	 	 	 	 	 	 	 	 	 	 	 	 	 	 	 	 	 	1581504306	2.36	4.37
12/02/2020 10:45:07	120220	12022020	104507	104.45	12.547958	-57.189272	104.45	-0.440	0.550	0.980	104.46	-1.10	1.40	 	 	 	 	 	 	 	 	 	 	 	 	 	 	 	 	 	 	1581504307	3.23	5.98
12/02/2020 10:45:08	120220	12022020	104508	104.21	12.547950	-57.189253	104.14	-0.090	-0.850	1.100	104.10	-2.40	1.60	 	 	 	 	 	 	 	 	 	 	 	 	 	 	 	 	 	 	1581504308	4.20	7.78
12/02/2020 10:45:09	120220	12022020	104509	103.66	12.547942	-57.189235	103.62	0.270	-1.450	1.460	103.59	-2.70	1.90	 	 	 	 	 	 	 	 	 	 	 	 	 	 	 	 	 	 	1581504309	4.59	8.50
12/02/2020 10:45:10	120220	12022020	104510	103.51	12.547933	-57.189220	103.55	0.280	-0.680	1.650	103.55	-1.70	2.10	 	 	 	 	 	 	 	 	 	 	 	 	 	 	 	 	 	 	1581504310	3.62	6.70
12/02/2020 10:45:11	120220	12022020	104511	103.72	12.547927	-57.189212	103.86	-0.080	0.530	1.700	103.78	-0.60	2.10	 	 	 	 	 	 	 	 	 	 	 	 	 	 	 	 	 	 	1581504311	2.19	4.06
12/02/2020 10:45:12	120220	12022020	104512	104.08	12.547922	-57.189203	104.13	-0.470	0.870	1.830	104.10	-0.60	2.30	 	 	 	 	 	 	 	 	 	 	 	 	 	 	 	 	 	 	1581504312	2.03	3.76
12/02/2020 10:45:13	120220	12022020	104513	104.07	12.547912	-57.189193	104.05	-0.500	0.090	2.140	104.03	-1.50	2.60	 	 	 	 	 	 	 	 	 	 	 	 	 	 	 	 	 	 	1581504313	3.15	5.83
12/02/2020 10:45:14	120220	12022020	104514	103.59	12.547900	-57.189177	103.59	-0.130	-0.990	2.570	103.48	-2.50	3.10	 	 	 	 	 	 	 	 	 	 	 	 	 	 	 	 	 	 	1581504314	4.27	7.91
12/02/2020 10:45:15	120220	12022020	104515	102.99	12.547888	-57.189158	102.99	0.360	-1.460	2.920	102.88	-2.80	3.40	 	 	 	 	 	 	 	 	 	 	 	 	 	 	 	 	 	 	1581504315	4.46	8.26
12/02/2020 10:45:16	120220	12022020	104516	102.57	12.547880	-57.189143	102.59	0.600	-1.020	2.980	102.54	-2.20	3.30	 	 	 	 	 	 	 	 	 	 	 	 	 	 	 	 	 	 	1581504316	3.78	7.00
12/02/2020 10:45:17	120220	12022020	104517	102.61	12.547873	-57.189130	102.67	0.440	-0.020	2.490	102.67	-1.20	2.70	 	 	 	 	 	 	 	 	 	 	 	 	 	 	 	 	 	 	1581504317	2.87	5.32
12/02/2020 10:45:18	120220	12022020	104518	102.99	12.547872	-57.189120	103.04	0.080	0.720	1.460	103.07	-0.60	1.60	 	 	 	 	 	 	 	 	 	 	 	 	 	 	 	 	 	 	1581504318	2.36	4.37
12/02/2020 10:45:19	120220	12022020	104519	103.41	12.547872	-57.189107	103.42	-0.180	0.710	0.460	103.49	-0.70	0.70	 	 	 	 	 	 	 	 	 	 	 	 	 	 	 	 	 	 	1581504319	2.72	5.04
12/02/2020 10:45:20	120220	12022020	104520	103.63	12.547870	-57.189092	103.60	-0.190	0.150	0.140	103.63	-1.40	0.60	 	 	 	 	 	 	 	 	 	 	 	 	 	 	 	 	 	 	1581504320	3.38	6.26
12/02/2020 10:45:21	120220	12022020	104521	103.57	12.547865	-57.189073	103.53	-0.090	-0.400	0.470	103.54	-1.80	1.00	 	 	 	 	 	 	 	 	 	 	 	 	 	 	 	 	 	 	1581504321	3.81	7.06
12/02/2020 10:45:22	120220	12022020	104522	103.44	12.547855	-57.189058	103.41	-0.030	-0.580	0.950	103.43	-1.90	1.50	 	 	 	 	 	 	 	 	 	 	 	 	 	 	 	 	 	 	1581504322	3.84	7.11
12/02/2020 10:45:23	120220	12022020	104523	103.43	12.547845	-57.189045	103.46	-0.080	-0.380	1.400	103.44	-1.70	1.90	 	 	 	 	 	 	 	 	 	 	 	 	 	 	 	 	 	 	1581504323	3.50	6.48
12/02/2020 10:45:24	120220	12022020	104524	103.56	12.547837	-57.189033	103.64	-0.160	-0.070	1.900	103.60	-1.40	2.40	 	 	 	 	 	 	 	 	 	 	 	 	 	 	 	 	 	 	1581504324	3.14	5.82
12/02/2020 10:45:25	120220	12022020	104525	103.80	12.547828	-57.189022	103.89	-0.170	-0.080	2.320	103.84	-1.50	2.80	 	 	 	 	 	 	 	 	 	 	 	 	 	 	 	 	 	 	1581504325	3.09	5.72
12/02/2020 10:45:26	120220	12022020	104526	103.91	12.547820	-57.189007	103.99	0.010	-0.570	2.580	103.91	-2.10	3.00	 	 	 	 	 	 	 	 	 	 	 	 	 	 	 	 	 	 	1581504326	3.50	6.48
12/02/2020 10:45:27	120220	12022020	104527	103.78	12.547810	-57.188990	103.84	0.390	-1.130	2.740	103.74	-2.50	3.10	 	 	 	 	 	 	 	 	 	 	 	 	 	 	 	 	 	 	1581504327	4.12	7.63
12/02/2020 10:45:28	120220	12022020	104528	103.71	12.547802	-57.188973	103.80	0.650	-0.840	2.600	103.74	-2.00	2.90	 	 	 	 	 	 	 	 	 	 	 	 	 	 	 	 	 	 	1581504328	4.20	7.78
12/02/2020 10:45:29	120220	12022020	104529	104.04	12.547797	-57.188958	104.17	0.430	0.320	2.110	104.15	-0.80	2.40	 	 	 	 	 	 	 	 	 	 	 	 	 	 	 	 	 	 	1581504329	3.12	5.78
12/02/2020 10:45:30	120220	12022020	104530	104.63	12.547795	-57.188948	104.74	-0.180	1.230	1.340	104.74	-0.10	1.60	 	 	 	 	 	 	 	 	 	 	 	 	 	 	 	 	 	 	1581504330	2.15	3.98
12/02/2020 10:45:31	120220	12022020	104531	105.04	12.547795	-57.188937	105.09	-0.680	0.870	0.720	105.08	-0.70	1.10	 	 	 	 	 	 	 	 	 	 	 	 	 	 	 	 	 	 	1581504331	2.47	4.57
12/02/2020 10:45:32	120220	12022020	104532	105.11	12.547790	-57.188920	105.13	-0.690	-0.460	0.660	105.10	-2.10	1.10	 	 	 	 	 	 	 	 	 	 	 	 	 	 	 	 	 	 	1581504332	3.77	6.98
12/02/2020 10:45:33	120220	12022020	104533	105.04	12.547780	-57.188900	105.06	-0.280	-1.370	1.050	105.02	-2.70	1.60	 	 	 	 	 	 	 	 	 	 	 	 	 	 	 	 	 	 	1581504333	4.75	8.80
12/02/2020 10:45:34	120220	12022020	104534	105.01	12.547768	-57.188883	105.05	0.100	-1.070	1.460	105.03	-2.20	1.90	 	 	 	 	 	 	 	 	 	 	 	 	 	 	 	 	 	 	1581504334	4.26	7.89
12/02/2020 10:45:35	120220	12022020	104535	105.26	12.547760	-57.188872	105.35	0.160	-0.090	1.550	105.34	-1.20	1.90	 	 	 	 	 	 	 	 	 	 	 	 	 	 	 	 	 	 	1581504335	3.02	5.59
12/02/2020 10:45:36	120220	12022020	104536	105.78	12.547755	-57.188862	105.88	0.030	0.500	1.480	105.89	-0.80	1.90	 	 	 	 	 	 	 	 	 	 	 	 	 	 	 	 	 	 	1581504336	2.38	4.41
12/02/2020 10:45:37	120220	12022020	104537	106.23	12.547748	-57.188850	106.40	0.050	0.320	1.470	106.32	-1.20	1.90	 	 	 	 	 	 	 	 	 	 	 	 	 	 	 	 	 	 	1581504337	2.89	5.35
12/02/2020 10:45:38	120220	12022020	104538	106.60	12.547742	-57.188835	106.64	0.290	-0.340	1.500	106.61	-1.80	1.90	 	 	 	 	 	 	 	 	 	 	 	 	 	 	 	 	 	 	1581504338	3.68	6.82
12/02/2020 10:45:39	120220	12022020	104539	106.52	12.547733	-57.188817	106.52	0.520	-0.890	1.740	106.47	-2.30	2.30	 	 	 	 	 	 	 	 	 	 	 	 	 	 	 	 	 	 	1581504339	4.09	7.57
12/02/2020 10:45:40	120220	12022020	104540	106.33	12.547727	-57.188798	106.37	0.470	-0.860	2.240	106.32	-2.10	2.80	 	 	 	 	 	 	 	 	 	 	 	 	 	 	 	 	 	 	1581504340	3.95	7.32
12/02/2020 10:45:41	120220	12022020	104541	106.47	12.547720	-57.188785	106.56	0.110	-0.430	2.550	106.55	-1.60	3.00	 	 	 	 	 	 	 	 	 	 	 	 	 	 	 	 	 	 	1581504341	3.47	6.43
12/02/2020 10:45:42	120220	12022020	104542	106.93	12.547712	-57.188772	107.05	-0.370	0.100	2.510	107.05	-1.10	2.90	 	 	 	 	 	 	 	 	 	 	 	 	 	 	 	 	 	 	1581504342	3.22	5.96
12/02/2020 10:45:43	120220	12022020	104543	107.53	12.547705	-57.188758	107.65	-0.740	0.590	2.290	107.66	-0.70	2.60	 	 	 	 	 	 	 	 	 	 	 	 	 	 	 	 	 	 	1581504343	3.18	5.89
12/02/2020 10:45:44	120220	12022020	104544	108.12	12.547697	-57.188747	108.23	-0.840	0.790	2.010	108.22	-0.60	2.40	 	 	 	 	 	 	 	 	 	 	 	 	 	 	 	 	 	 	1581504344	3.12	5.78
12/02/2020 10:45:45	120220	12022020	104545	108.53	12.547688	-57.188733	108.62	-0.550	0.390	1.700	108.59	-1.10	2.00	 	 	 	 	 	 	 	 	 	 	 	 	 	 	 	 	 	 	1581504345	3.28	6.07
12/02/2020 10:45:46	120220	12022020	104546	108.76	12.547682	-57.188717	108.81	0.060	-0.420	1.440	108.79	-2.00	1.80	 	 	 	 	 	 	 	 	 	 	 	 	 	 	 	 	 	 	1581504346	3.75	6.95
12/02/2020 10:45:47	120220	12022020	104547	108.92	12.547675	-57.188698	108.95	0.650	-1.150	1.300	108.98	-2.60	1.70	 	 	 	 	 	 	 	 	 	 	 	 	 	 	 	 	 	 	1581504347	4.15	7.69
12/02/2020 10:45:48	120220	12022020	104548	109.30	12.547668	-57.188680	109.36	0.840	-1.190	1.120	109.41	-2.40	1.50	 	 	 	 	 	 	 	 	 	 	 	 	 	 	 	 	 	 	1581504348	4.11	7.61
12/02/2020 10:45:49	120220	12022020	104549	109.85	12.547665	-57.188663	109.91	0.480	-0.510	1.060	109.95	-1.70	1.50	 	 	 	 	 	 	 	 	 	 	 	 	 	 	 	 	 	 	1581504349	3.42	6.33
12/02/2020 10:45:50	120220	12022020	104550	110.23	12.547658	-57.188652	110.27	-0.130	0.160	1.450	110.27	-1.10	2.00	 	 	 	 	 	 	 	 	 	 	 	 	 	 	 	 	 	 	1581504350	2.75	5.09
12/02/2020 10:45:51	120220	12022020	104551	110.27	12.547650	-57.188642	110.29	-0.490	0.180	2.180	110.25	-1.20	2.80	 	 	 	 	 	 	 	 	 	 	 	 	 	 	 	 	 	 	1581504351	3.11	5.76
12/02/2020 10:45:52	120220	12022020	104552	110.17	12.547637	-57.188627	110.25	-0.370	-0.250	2.850	110.17	-1.60	3.40	 	 	 	 	 	 	 	 	 	 	 	 	 	 	 	 	 	 	1581504352	4.12	7.63
12/02/2020 10:45:53	120220	12022020	104553	110.34	12.547623	-57.188610	110.48	-0.030	-0.380	3.030	110.43	-1.70	3.40	 	 	 	 	 	 	 	 	 	 	 	 	 	 	 	 	 	 	1581504353	4.47	8.28
12/02/2020 10:45:54	120220	12022020	104554	111.02	12.547615	-57.188595	111.22	0.090	-0.010	2.580	111.23	-1.20	2.80	 	 	 	 	 	 	 	 	 	 	 	 	 	 	 	 	 	 	1581504354	3.86	7.15
12/02/2020 10:45:55	120220	12022020	104555	112.13	12.547610	-57.188580	112.33	-0.140	0.520	1.840	112.36	-0.80	2.10	 	 	 	 	 	 	 	 	 	 	 	 	 	 	 	 	 	 	1581504355	3.10	5.74
12/02/2020 10:45:56	120220	12022020	104556	113.10	12.547607	-57.188567	113.22	-0.350	0.470	1.340	113.22	-1.00	1.70	 	 	 	 	 	 	 	 	 	 	 	 	 	 	 	 	 	 	1581504356	2.83	5.24
12/02/2020 10:45:57	120220	12022020	104557	113.40	12.547600	-57.188553	113.43	-0.050	-0.450	1.430	113.40	-2.00	1.90	 	 	 	 	 	 	 	 	 	 	 	 	 	 	 	 	 	 	1581504357	3.46	6.41
12/02/2020 10:45:58	120220	12022020	104558	113.36	12.547588	-57.188535	113.40	0.500	-1.350	1.820	113.37	-2.70	2.40	 	 	 	 	 	 	 	 	 	 	 	 	 	 	 	 	 	 	1581504358	4.56	8.45
12/02/2020 10:45:59	120220	12022020	104559	113.57	12.547577	-57.188517	113.66	0.630	-1.100	2.170	113.67	-2.20	2.60	 	 	 	 	 	 	 	 	 	 	 	 	 	 	 	 	 	 	1581504359	4.55	8.43
12/02/2020 10:46:00	120220	12022020	104600	114.17	12.547567	-57.188505	114.29	0.170	0.100	2.150	114.31	-0.90	2.50	 	 	 	 	 	 	 	 	 	 	 	 	 	 	 	 	 	 	1581504360	3.26	6.04
12/02/2020 10:46:01	120220	12022020	104601	114.74	12.547562	-57.188495	114.98	-0.430	1.020	1.850	114.87	-0.20	2.20	1015.40	26.20	26.30	21.20	21.20	38.0	74.0	73.0	399.0	26.0	331.00	13.50	74.00	12.10	4593	10565.0	27.4	27.4	1581504361	2.30	4.26
12/02/2020 10:46:02	120220	12022020	104602	115.53	12.547555	-57.188485	115.63	-0.680	0.930	1.500	115.66	-0.60	1.90	 	 	 	 	 	 	 	 	 	 	 	 	 	 	 	 	 	 	1581504362	2.65	4.91
12/02/2020 10:46:03	120220	12022020	104603	116.03	12.547548	-57.188468	116.24	-0.460	-0.030	1.280	116.16	-1.60	1.70	 	 	 	 	 	 	 	 	 	 	 	 	 	 	 	 	 	 	1581504363	3.63	6.72
12/02/2020 10:46:04	120220	12022020	104604	116.79	12.547537	-57.188452	116.87	0.050	-1.230	1.220	116.90	-2.80	1.70	 	 	 	 	 	 	 	 	 	 	 	 	 	 	 	 	 	 	1581504364	4.44	8.22
12/02/2020 10:46:05	120220	12022020	104605	117.31	12.547525	-57.188432	117.37	0.500	-1.990	1.430	117.37	-3.40	2.00	 	 	 	 	 	 	 	 	 	 	 	 	 	 	 	 	 	 	1581504365	4.74	8.78
12/02/2020 10:46:06	120220	12022020	104606	117.55	12.547512	-57.188415	117.59	0.570	-1.670	1.900	117.57	-2.70	2.40	 	 	 	 	 	 	 	 	 	 	 	 	 	 	 	 	 	 	1581504366	4.58	8.48
12/02/2020 10:46:07	120220	12022020	104607	117.71	12.547498	-57.188403	117.78	0.220	-0.120	2.170	117.77	-1.00	2.60	 	 	 	 	 	 	 	 	 	 	 	 	 	 	 	 	 	 	1581504367	3.69	6.83
12/02/2020 10:46:08	120220	12022020	104608	118.11	12.547492	-57.188395	118.20	-0.290	1.660	2.020	118.23	0.60	2.40	 	 	 	 	 	 	 	 	 	 	 	 	 	 	 	 	 	 	1581504368	2.38	4.41
12/02/2020 10:46:09	120220	12022020	104609	118.83	12.547487	-57.188387	118.96	-0.620	2.130	1.680	119.01	0.60	2.00	 	 	 	 	 	 	 	 	 	 	 	 	 	 	 	 	 	 	1581504369	2.11	3.91
12/02/2020 10:46:10	120220	12022020	104610	119.78	12.547480	-57.188372	119.91	-0.480	0.880	1.230	119.98	-0.90	1.50	 	 	 	 	 	 	 	 	 	 	 	 	 	 	 	 	 	 	1581504370	3.36	6.22
12/02/2020 10:46:11	120220	12022020	104611	120.67	12.547468	-57.188352	120.76	-0.010	-0.940	0.880	120.81	-2.60	1.30	 	 	 	 	 	 	 	 	 	 	 	 	 	 	 	 	 	 	1581504371	4.85	8.98
12/02/2020 10:46:12	120220	12022020	104612	121.11	12.547455	-57.188332	121.13	0.380	-1.970	1.100	121.14	-3.30	1.70	 	 	 	 	 	 	 	 	 	 	 	 	 	 	 	 	 	 	1581504372	5.14	9.52
12/02/2020 10:46:13	120220	12022020	104613	121.16	12.547442	-57.188317	121.19	0.460	-1.650	1.820	121.17	-2.70	2.40	 	 	 	 	 	 	 	 	 	 	 	 	 	 	 	 	 	 	1581504373	4.32	8.00
12/02/2020 10:46:14	120220	12022020	104614	121.35	12.547430	-57.188308	121.43	0.290	-0.390	2.400	121.44	-1.40	2.90	 	 	 	 	 	 	 	 	 	 	 	 	 	 	 	 	 	 	1581504374	3.23	5.98
12/02/2020 10:46:15	120220	12022020	104615	121.97	12.547420	-57.188300	122.07	0.090	0.690	2.370	122.12	-0.50	2.70	 	 	 	 	 	 	 	 	 	 	 	 	 	 	 	 	 	 	1581504375	2.50	4.63
12/02/2020 10:46:16	120220	12022020	104616	122.69	12.547413	-57.188290	122.74	0.040	0.590	1.990	122.78	-1.00	2.40	 	 	 	 	 	 	 	 	 	 	 	 	 	 	 	 	 	 	1581504376	2.71	5.02
12/02/2020 10:46:17	120220	12022020	104617	122.96	12.547403	-57.188273	122.97	0.110	-0.640	2.100	122.98	-2.30	2.60	 	 	 	 	 	 	 	 	 	 	 	 	 	 	 	 	 	 	1581504377	4.13	7.65
12/02/2020 10:46:18	120220	12022020	104618	123.15	12.547387	-57.188253	123.23	0.040	-1.440	2.510	123.24	-2.70	3.00	 	 	 	 	 	 	 	 	 	 	 	 	 	 	 	 	 	 	1581504378	5.32	9.85
12/02/2020 10:46:19	120220	12022020	104619	123.75	12.547372	-57.188238	123.89	-0.320	-0.610	2.690	123.92	-1.60	3.10	 	 	 	 	 	 	 	 	 	 	 	 	 	 	 	 	 	 	1581504379	4.70	8.70
12/02/2020 10:46:20	120220	12022020	104620	124.66	12.547360	-57.188232	124.83	-0.730	1.000	2.500	124.85	-0.10	2.80	 	 	 	 	 	 	 	 	 	 	 	 	 	 	 	 	 	 	1581504380	2.99	5.54
12/02/2020 10:46:21	120220	12022020	104621	125.66	12.547352	-57.188225	125.84	-0.770	1.690	1.990	125.86	0.30	2.30	 	 	 	 	 	 	 	 	 	 	 	 	 	 	 	 	 	 	1581504381	2.24	4.15
12/02/2020 10:46:22	120220	12022020	104622	126.56	12.547342	-57.188215	126.69	-0.270	0.800	1.350	126.69	-0.90	1.70	 	 	 	 	 	 	 	 	 	 	 	 	 	 	 	 	 	 	1581504382	3.05	5.65
12/02/2020 10:46:23	120220	12022020	104623	126.93	12.547330	-57.188197	126.99	0.510	-1.000	1.190	126.93	-2.70	1.70	 	 	 	 	 	 	 	 	 	 	 	 	 	 	 	 	 	 	1581504383	4.54	8.41
12/02/2020 10:46:24	120220	12022020	104624	126.81	12.547315	-57.188177	126.88	1.010	-2.160	1.660	126.80	-3.50	2.20	 	 	 	 	 	 	 	 	 	 	 	 	 	 	 	 	 	 	1581504384	5.39	9.98
12/02/2020 10:46:25	120220	12022020	104625	126.98	12.547300	-57.188160	127.13	0.840	-1.690	2.170	127.09	-2.70	2.70	 	 	 	 	 	 	 	 	 	 	 	 	 	 	 	 	 	 	1581504385	4.75	8.80
12/02/2020 10:46:26	120220	12022020	104626	127.79	12.547288	-57.188150	128.03	0.220	-0.110	2.270	128.02	-1.10	2.70	 	 	 	 	 	 	 	 	 	 	 	 	 	 	 	 	 	 	1581504386	3.24	6.00
12/02/2020 10:46:27	120220	12022020	104627	128.97	12.547280	-57.188145	129.21	-0.320	1.110	2.060	129.19	-0.20	2.40	 	 	 	 	 	 	 	 	 	 	 	 	 	 	 	 	 	 	1581504387	2.36	4.37
12/02/2020 10:46:28	120220	12022020	104628	129.90	12.547268	-57.188137	130.06	-0.350	0.920	1.920	130.02	-0.60	2.30	 	 	 	 	 	 	 	 	 	 	 	 	 	 	 	 	 	 	1581504388	2.90	5.37
12/02/2020 10:46:29	120220	12022020	104629	130.44	12.547253	-57.188122	130.58	-0.010	-0.080	1.970	130.52	-1.60	2.40	 	 	 	 	 	 	 	 	 	 	 	 	 	 	 	 	 	 	1581504389	4.39	8.13
12/02/2020 10:46:30	120220	12022020	104630	130.94	12.547237	-57.188107	131.09	0.190	-0.620	2.150	131.05	-2.00	2.60	 	 	 	 	 	 	 	 	 	 	 	 	 	 	 	 	 	 	1581504390	4.96	9.19
12/02/2020 10:46:31	120220	12022020	104631	131.56	12.547222	-57.188092	131.73	-0.020	-0.470	2.260	131.68	-1.80	2.70	 	 	 	 	 	 	 	 	 	 	 	 	 	 	 	 	 	 	1581504391	4.17	7.72
12/02/2020 10:46:32	120220	12022020	104632	132.09	12.547210	-57.188082	132.23	-0.360	-0.420	2.440	132.18	-1.80	2.90	 	 	 	 	 	 	 	 	 	 	 	 	 	 	 	 	 	 	1581504392	3.56	6.59
12/02/2020 10:46:33	120220	12022020	104633	132.48	12.547193	-57.188072	132.63	-0.470	-0.570	2.660	132.57	-1.90	3.10	 	 	 	 	 	 	 	 	 	 	 	 	 	 	 	 	 	 	1581504393	4.00	7.41
12/02/2020 10:46:34	120220	12022020	104634	132.98	12.547177	-57.188062	133.13	-0.300	-0.460	2.630	133.12	-1.70	3.00	 	 	 	 	 	 	 	 	 	 	 	 	 	 	 	 	 	 	1581504394	4.34	8.04
12/02/2020 10:46:35	120220	12022020	104635	133.77	12.547162	-57.188050	133.93	-0.070	0.080	2.260	133.96	-1.10	2.60	 	 	 	 	 	 	 	 	 	 	 	 	 	 	 	 	 	 	1581504395	3.98	7.37
12/02/2020 10:46:36	120220	12022020	104636	134.69	12.547148	-57.188040	134.83	0.110	0.530	1.700	134.86	-0.80	2.00	 	 	 	 	 	 	 	 	 	 	 	 	 	 	 	 	 	 	1581504396	3.41	6.32
12/02/2020 10:46:37	120220	12022020	104637	135.39	12.547138	-57.188028	135.47	0.380	0.190	1.190	135.48	-1.40	1.60	 	 	 	 	 	 	 	 	 	 	 	 	 	 	 	 	 	 	1581504397	3.51	6.50
12/02/2020 10:46:38	120220	12022020	104638	135.74	12.547123	-57.188012	135.80	0.680	-0.760	1.080	135.79	-2.30	1.60	 	 	 	 	 	 	 	 	 	 	 	 	 	 	 	 	 	 	1581504398	4.45	8.24
12/02/2020 10:46:39	120220	12022020	104639	135.91	12.547107	-57.187995	136.05	0.640	-1.300	1.480	135.95	-2.60	2.00	 	 	 	 	 	 	 	 	 	 	 	 	 	 	 	 	 	 	1581504399	5.12	9.48
12/02/2020 10:46:40	120220	12022020	104640	136.41	12.547090	-57.187982	136.59	0.090	-0.730	2.020	136.57	-1.80	2.60	 	 	 	 	 	 	 	 	 	 	 	 	 	 	 	 	 	 	1581504400	4.71	8.72
12/02/2020 10:46:41	120220	12022020	104641	137.39	12.547073	-57.187977	137.63	-0.640	0.710	2.300	137.62	-0.30	2.70	 	 	 	 	 	 	 	 	 	 	 	 	 	 	 	 	 	 	1581504401	3.67	6.80
12/02/2020 10:46:42	120220	12022020	104642	138.63	12.547060	-57.187973	138.87	-0.900	1.670	2.260	138.86	0.30	2.70	 	 	 	 	 	 	 	 	 	 	 	 	 	 	 	 	 	 	1581504402	2.82	5.22
12/02/2020 10:46:43	120220	12022020	104643	139.51	12.547047	-57.187967	139.91	-0.490	0.920	2.130	139.70	-0.80	2.50	 	 	 	 	 	 	 	 	 	 	 	 	 	 	 	 	 	 	1581504403	3.13	5.80
12/02/2020 10:46:44	120220	12022020	104644	140.30	12.547028	-57.187955	140.46	0.230	-0.910	2.130	140.37	-2.60	2.60	 	 	 	 	 	 	 	 	 	 	 	 	 	 	 	 	 	 	1581504404	4.81	8.91
12/02/2020 10:46:45	120220	12022020	104645	140.56	12.547007	-57.187940	140.71	0.700	-2.180	2.330	140.61	-3.60	2.80	 	 	 	 	 	 	 	 	 	 	 	 	 	 	 	 	 	 	1581504405	5.78	10.70
12/02/2020 10:46:46	120220	12022020	104646	140.86	12.546987	-57.187927	141.01	0.650	-1.940	2.610	140.94	-3.10	3.10	 	 	 	 	 	 	 	 	 	 	 	 	 	 	 	 	 	 	1581504406	5.14	9.52
12/02/2020 10:46:47	120220	12022020	104647	141.31	12.546972	-57.187918	141.47	0.190	-0.710	2.790	141.41	-1.80	3.20	 	 	 	 	 	 	 	 	 	 	 	 	 	 	 	 	 	 	1581504407	3.76	6.96
12/02/2020 10:46:48	120220	12022020	104648	141.81	12.546958	-57.187912	141.99	-0.280	0.450	2.740	141.93	-0.70	3.10	 	 	 	 	 	 	 	 	 	 	 	 	 	 	 	 	 	 	1581504408	3.16	5.85
12/02/2020 10:46:49	120220	12022020	104649	142.49	12.546943	-57.187903	142.71	-0.490	1.040	2.280	142.66	-0.30	2.60	 	 	 	 	 	 	 	 	 	 	 	 	 	 	 	 	 	 	1581504409	3.53	6.54
12/02/2020 10:46:50	120220	12022020	104650	143.31	12.546928	-57.187893	143.53	-0.480	1.040	1.810	143.48	-0.40	2.20	 	 	 	 	 	 	 	 	 	 	 	 	 	 	 	 	 	 	1581504410	4.03	7.46
12/02/2020 10:46:51	120220	12022020	104651	143.96	12.546910	-57.187882	144.34	-0.370	0.580	1.660	144.10	-0.90	2.10	 	 	 	 	 	 	 	 	 	 	 	 	 	 	 	 	 	 	1581504411	4.41	8.17
12/02/2020 10:46:52	120220	12022020	104652	144.96	12.546892	-57.187872	145.21	-0.120	0.050	1.420	145.15	-1.40	1.80	 	 	 	 	 	 	 	 	 	 	 	 	 	 	 	 	 	 	1581504412	4.61	8.54
12/02/2020 10:46:53	120220	12022020	104653	145.69	12.546873	-57.187862	146.05	0.220	-0.380	1.090	145.85	-1.90	1.50	 	 	 	 	 	 	 	 	 	 	 	 	 	 	 	 	 	 	1581504413	4.40	8.15
12/02/2020 10:46:54	120220	12022020	104654	146.44	12.546857	-57.187852	146.62	0.520	-0.860	1.160	146.53	-2.30	1.70	 	 	 	 	 	 	 	 	 	 	 	 	 	 	 	 	 	 	1581504414	4.28	7.93
12/02/2020 10:46:55	120220	12022020	104655	146.97	12.546838	-57.187842	147.14	0.540	-1.080	1.470	147.08	-2.40	2.00	 	 	 	 	 	 	 	 	 	 	 	 	 	 	 	 	 	 	1581504415	4.46	8.26
12/02/2020 10:46:56	120220	12022020	104656	147.56	12.546820	-57.187833	147.73	0.250	-0.810	1.970	147.67	-2.10	2.50	 	 	 	 	 	 	 	 	 	 	 	 	 	 	 	 	 	 	1581504416	4.23	7.83
12/02/2020 10:46:57	120220	12022020	104657	148.06	12.546802	-57.187828	148.22	-0.070	-0.430	2.550	148.16	-1.80	3.10	 	 	 	 	 	 	 	 	 	 	 	 	 	 	 	 	 	 	1581504417	3.91	7.24
12/02/2020 10:46:58	120220	12022020	104658	148.58	12.546783	-57.187823	148.74	-0.110	-0.340	2.870	148.70	-1.70	3.30	 	 	 	 	 	 	 	 	 	 	 	 	 	 	 	 	 	 	1581504418	4.18	7.74
12/02/2020 10:46:59	120220	12022020	104659	149.17	12.546763	-57.187817	149.31	0.040	-0.390	2.900	149.28	-1.80	3.30	 	 	 	 	 	 	 	 	 	 	 	 	 	 	 	 	 	 	1581504419	4.63	8.57
12/02/2020 10:47:00	120220	12022020	104700	149.65	12.546742	-57.187808	149.77	0.090	-0.320	3.000	149.73	-1.60	3.50	 	 	 	 	 	 	 	 	 	 	 	 	 	 	 	 	 	 	1581504420	4.81	8.91
12/02/2020 10:47:01	120220	12022020	104701	150.06	12.546722	-57.187800	150.17	-0.110	0.150	2.940	150.15	-1.10	3.30	1015.30	26.00	26.10	20.70	20.80	39.0	72.0	72.0	398.0	26.0	308.00	14.30	73.00	13.30	4737	10017.0	27.4	27.4	1581504421	4.63	8.57
12/02/2020 10:47:02	120220	12022020	104702	150.62	12.546705	-57.187792	150.75	-0.420	0.860	2.350	150.77	-0.40	2.60	 	 	 	 	 	 	 	 	 	 	 	 	 	 	 	 	 	 	1581504422	4.06	7.52
12/02/2020 10:47:03	120220	12022020	104703	151.46	12.546690	-57.187783	151.59	-0.670	1.140	1.330	151.65	-0.30	1.60	 	 	 	 	 	 	 	 	 	 	 	 	 	 	 	 	 	 	1581504423	3.70	6.85
12/02/2020 10:47:04	120220	12022020	104704	152.29	12.546675	-57.187773	152.38	-0.670	0.470	0.640	152.42	-1.20	1.00	 	 	 	 	 	 	 	 	 	 	 	 	 	 	 	 	 	 	1581504424	3.99	7.39
12/02/2020 10:47:05	120220	12022020	104705	152.68	12.546653	-57.187765	152.71	-0.320	-0.900	0.630	152.69	-2.60	1.10	 	 	 	 	 	 	 	 	 	 	 	 	 	 	 	 	 	 	1581504425	4.93	9.13
12/02/2020 10:47:06	120220	12022020	104706	152.62	12.546627	-57.187760	152.64	0.350	-1.880	0.810	152.60	-3.30	1.30	 	 	 	 	 	 	 	 	 	 	 	 	 	 	 	 	 	 	1581504426	5.74	10.63
12/02/2020 10:47:07	120220	12022020	104707	152.54	12.546603	-57.187753	152.58	0.980	-1.610	0.690	152.54	-2.70	1.00	 	 	 	 	 	 	 	 	 	 	 	 	 	 	 	 	 	 	1581504427	5.39	9.98
12/02/2020 10:47:08	120220	12022020	104708	152.62	12.546585	-57.187745	152.68	1.120	-0.350	0.270	152.66	-1.40	0.60	 	 	 	 	 	 	 	 	 	 	 	 	 	 	 	 	 	 	1581504428	4.08	7.56
12/02/2020 10:47:09	120220	12022020	104709	152.81	12.546573	-57.187737	152.87	0.600	0.860	0.030	152.85	-0.30	0.50	 	 	 	 	 	 	 	 	 	 	 	 	 	 	 	 	 	 	1581504429	3.24	6.00
12/02/2020 10:47:10	120220	12022020	104710	152.94	12.546560	-57.187728	152.97	-0.280	1.150	0.200	152.93	-0.30	0.70	 	 	 	 	 	 	 	 	 	 	 	 	 	 	 	 	 	 	1581504430	3.33	6.17
12/02/2020 10:47:11	120220	12022020	104711	152.79	12.546542	-57.187722	152.79	-0.990	0.340	0.720	152.72	-1.30	1.30	 	 	 	 	 	 	 	 	 	 	 	 	 	 	 	 	 	 	1581504431	4.25	7.87
12/02/2020 10:47:12	120220	12022020	104712	152.34	12.546515	-57.187718	152.33	-1.080	-0.970	1.660	152.22	-2.60	2.30	 	 	 	 	 	 	 	 	 	 	 	 	 	 	 	 	 	 	1581504432	5.63	10.43
12/02/2020 10:47:13	120220	12022020	104713	151.76	12.546485	-57.187718	151.78	-0.520	-1.690	2.640	151.63	-3.00	3.20	 	 	 	 	 	 	 	 	 	 	 	 	 	 	 	 	 	 	1581504433	6.50	12.04
12/02/2020 10:47:14	120220	12022020	104714	151.18	12.546458	-57.187718	151.23	0.200	-1.250	3.080	151.08	-2.40	3.50	 	 	 	 	 	 	 	 	 	 	 	 	 	 	 	 	 	 	1581504434	5.85	10.83
12/02/2020 10:47:15	120220	12022020	104715	150.78	12.546438	-57.187717	150.73	0.520	-0.160	2.820	150.68	-1.30	3.10	 	 	 	 	 	 	 	 	 	 	 	 	 	 	 	 	 	 	1581504435	4.35	8.06
12/02/2020 10:47:16	120220	12022020	104716	150.29	12.546422	-57.187710	150.34	0.330	0.710	2.060	150.22	-0.50	2.30	 	 	 	 	 	 	 	 	 	 	 	 	 	 	 	 	 	 	1581504436	3.64	6.74
12/02/2020 10:47:17	120220	12022020	104717	150.01	12.546407	-57.187702	150.05	-0.060	0.960	1.260	149.98	-0.40	1.50	 	 	 	 	 	 	 	 	 	 	 	 	 	 	 	 	 	 	1581504437	3.84	7.11
12/02/2020 10:47:18	120220	12022020	104718	149.85	12.546388	-57.187693	149.88	-0.210	0.780	0.670	149.83	-0.70	1.00	 	 	 	 	 	 	 	 	 	 	 	 	 	 	 	 	 	 	1581504438	4.28	7.93
12/02/2020 10:47:19	120220	12022020	104719	149.75	12.546368	-57.187685	149.76	0.020	0.260	0.320	149.73	-1.20	0.70	 	 	 	 	 	 	 	 	 	 	 	 	 	 	 	 	 	 	1581504439	4.48	8.30
12/02/2020 10:47:20	120220	12022020	104720	149.60	12.546350	-57.187677	149.60	0.370	-0.420	0.400	149.54	-1.90	1.00	 	 	 	 	 	 	 	 	 	 	 	 	 	 	 	 	 	 	1581504440	4.63	8.57
12/02/2020 10:47:21	120220	12022020	104721	149.11	12.546328	-57.187670	149.08	0.490	-1.090	1.200	148.96	-2.60	1.90	 	 	 	 	 	 	 	 	 	 	 	 	 	 	 	 	 	 	1581504441	4.79	8.87
12/02/2020 10:47:22	120220	12022020	104722	148.23	12.546305	-57.187665	148.19	0.280	-1.460	2.540	148.03	-2.80	3.30	 	 	 	 	 	 	 	 	 	 	 	 	 	 	 	 	 	 	1581504442	5.06	9.37
12/02/2020 10:47:23	120220	12022020	104723	147.26	12.546280	-57.187665	147.25	-0.070	-1.360	3.930	147.08	-2.60	4.60	 	 	 	 	 	 	 	 	 	 	 	 	 	 	 	 	 	 	1581504443	5.41	10.02
12/02/2020 10:47:24	120220	12022020	104724	146.58	12.546255	-57.187665	146.64	-0.260	-0.710	4.760	146.50	-1.80	5.30	 	 	 	 	 	 	 	 	 	 	 	 	 	 	 	 	 	 	1581504444	5.49	10.17
12/02/2020 10:47:25	120220	12022020	104725	146.45	12.546232	-57.187665	146.55	-0.180	0.300	4.650	146.49	-0.80	5.00	 	 	 	 	 	 	 	 	 	 	 	 	 	 	 	 	 	 	1581504445	4.79	8.87
12/02/2020 10:47:26	120220	12022020	104726	146.79	12.546215	-57.187660	146.91	-0.070	0.990	3.910	146.89	-0.30	4.10	 	 	 	 	 	 	 	 	 	 	 	 	 	 	 	 	 	 	1581504446	3.92	7.26
12/02/2020 10:47:27	120220	12022020	104727	147.18	12.546198	-57.187650	147.25	-0.050	0.780	2.930	147.22	-0.70	3.20	 	 	 	 	 	 	 	 	 	 	 	 	 	 	 	 	 	 	1581504447	4.01	7.43
12/02/2020 10:47:28	120220	12022020	104728	147.20	12.546180	-57.187638	147.20	-0.020	-0.080	2.210	147.15	-1.60	2.60	 	 	 	 	 	 	 	 	 	 	 	 	 	 	 	 	 	 	1581504448	4.79	8.87
12/02/2020 10:47:29	120220	12022020	104729	146.96	12.546158	-57.187627	146.90	0.070	-0.690	1.920	146.90	-2.10	2.40	 	 	 	 	 	 	 	 	 	 	 	 	 	 	 	 	 	 	1581504449	5.25	9.72
12/02/2020 10:47:30	120220	12022020	104730	146.75	12.546137	-57.187618	146.79	0.140	-0.450	1.720	146.76	-1.70	2.10	 	 	 	 	 	 	 	 	 	 	 	 	 	 	 	 	 	 	1581504450	4.82	8.93
12/02/2020 10:47:31	120220	12022020	104731	146.97	12.546120	-57.187612	147.05	0.050	0.200	1.430	147.05	-1.10	1.80	 	 	 	 	 	 	 	 	 	 	 	 	 	 	 	 	 	 	1581504451	3.86	7.15
12/02/2020 10:47:32	120220	12022020	104732	147.38	12.546105	-57.187605	147.45	-0.110	0.310	1.300	147.44	-1.20	1.80	 	 	 	 	 	 	 	 	 	 	 	 	 	 	 	 	 	 	1581504452	3.47	6.43
12/02/2020 10:47:33	120220	12022020	104733	147.55	12.546087	-57.187600	147.59	-0.090	-0.470	1.670	147.55	-2.00	2.30	 	 	 	 	 	 	 	 	 	 	 	 	 	 	 	 	 	 	1581504453	4.21	7.80
12/02/2020 10:47:34	120220	12022020	104734	147.36	12.546062	-57.187593	147.39	0.200	-1.360	2.450	147.30	-2.80	3.10	 	 	 	 	 	 	 	 	 	 	 	 	 	 	 	 	 	 	1581504454	5.32	9.85
12/02/2020 10:47:35	120220	12022020	104735	147.09	12.546037	-57.187588	147.14	0.560	-1.420	3.140	147.07	-2.60	3.70	 	 	 	 	 	 	 	 	 	 	 	 	 	 	 	 	 	 	1581504455	5.57	10.32
12/02/2020 10:47:36	120220	12022020	104736	147.14	12.546015	-57.187583	147.23	0.650	-0.550	3.270	147.20	-1.60	3.70	 	 	 	 	 	 	 	 	 	 	 	 	 	 	 	 	 	 	1581504456	4.73	8.76
12/02/2020 10:47:37	120220	12022020	104737	147.62	12.546000	-57.187577	147.75	0.280	0.580	2.900	147.76	-0.60	3.20	 	 	 	 	 	 	 	 	 	 	 	 	 	 	 	 	 	 	1581504457	3.67	6.80
12/02/2020 10:47:38	120220	12022020	104738	148.35	12.545987	-57.187570	148.47	-0.330	1.100	2.440	148.50	-0.30	2.80	 	 	 	 	 	 	 	 	 	 	 	 	 	 	 	 	 	 	1581504458	3.38	6.26
12/02/2020 10:47:39	120220	12022020	104739	149.01	12.545968	-57.187562	149.09	-0.780	0.680	2.230	149.11	-0.90	2.70	 	 	 	 	 	 	 	 	 	 	 	 	 	 	 	 	 	 	1581504459	3.97	7.35
12/02/2020 10:47:40	120220	12022020	104740	149.31	12.545947	-57.187555	149.33	-0.820	-0.350	2.360	149.31	-1.90	2.90	 	 	 	 	 	 	 	 	 	 	 	 	 	 	 	 	 	 	1581504460	4.96	9.19
12/02/2020 10:47:41	120220	12022020	104741	149.21	12.545922	-57.187550	149.14	-0.440	-1.170	2.720	149.16	-2.60	3.30	 	 	 	 	 	 	 	 	 	 	 	 	 	 	 	 	 	 	1581504461	5.60	10.37
12/02/2020 10:47:42	120220	12022020	104742	148.93	12.545897	-57.187545	148.94	0.090	-1.230	2.850	148.92	-2.50	3.30	 	 	 	 	 	 	 	 	 	 	 	 	 	 	 	 	 	 	1581504462	5.38	9.96
12/02/2020 10:47:43	120220	12022020	104743	148.97	12.545877	-57.187540	149.06	0.430	-0.630	2.390	149.01	-1.80	2.70	 	 	 	 	 	 	 	 	 	 	 	 	 	 	 	 	 	 	1581504463	4.57	8.46
12/02/2020 10:47:44	120220	12022020	104744	149.26	12.545860	-57.187532	149.27	0.470	0.090	1.640	149.29	-1.10	1.90	 	 	 	 	 	 	 	 	 	 	 	 	 	 	 	 	 	 	1581504464	3.98	7.37
12/02/2020 10:47:45	120220	12022020	104745	149.46	12.545845	-57.187522	149.47	0.340	0.480	0.990	149.51	-0.80	1.40	 	 	 	 	 	 	 	 	 	 	 	 	 	 	 	 	 	 	1581504465	4.00	7.41
12/02/2020 10:47:46	120220	12022020	104746	149.81	12.545827	-57.187510	149.84	0.130	0.590	0.550	149.90	-0.80	1.00	 	 	 	 	 	 	 	 	 	 	 	 	 	 	 	 	 	 	1581504466	4.29	7.95
12/02/2020 10:47:47	120220	12022020	104747	150.24	12.545810	-57.187500	150.27	-0.050	0.370	0.440	150.30	-1.10	1.00	 	 	 	 	 	 	 	 	 	 	 	 	 	 	 	 	 	 	1581504467	4.38	8.11
12/02/2020 10:47:48	120220	12022020	104748	150.38	12.545788	-57.187493	150.39	-0.100	-0.320	0.890	150.35	-1.90	1.50	 	 	 	 	 	 	 	 	 	 	 	 	 	 	 	 	 	 	1581504468	4.68	8.67
12/02/2020 10:47:49	120220	12022020	104749	150.13	12.545765	-57.187488	150.15	-0.080	-1.060	1.850	150.06	-2.50	2.50	 	 	 	 	 	 	 	 	 	 	 	 	 	 	 	 	 	 	1581504469	5.33	9.87
12/02/2020 10:47:50	120220	12022020	104750	149.85	12.545738	-57.187485	149.91	-0.190	-1.170	2.890	149.82	-2.40	3.50	 	 	 	 	 	 	 	 	 	 	 	 	 	 	 	 	 	 	1581504470	5.62	10.41
12/02/2020 10:47:51	120220	12022020	104751	149.84	12.545713	-57.187485	149.95	-0.440	-0.610	3.510	149.87	-1.80	4.00	 	 	 	 	 	 	 	 	 	 	 	 	 	 	 	 	 	 	1581504471	5.20	9.63
12/02/2020 10:47:52	120220	12022020	104752	150.01	12.545693	-57.187485	150.11	-0.560	0.060	3.590	150.04	-1.20	4.00	 	 	 	 	 	 	 	 	 	 	 	 	 	 	 	 	 	 	1581504472	4.62	8.56
12/02/2020 10:47:53	120220	12022020	104753	150.10	12.545672	-57.187483	150.17	-0.250	0.180	3.280	150.11	-1.20	3.60	 	 	 	 	 	 	 	 	 	 	 	 	 	 	 	 	 	 	1581504473	4.51	8.35
12/02/2020 10:47:54	120220	12022020	104754	150.20	12.545650	-57.187475	150.27	0.410	-0.190	2.490	150.24	-1.60	2.70	 	 	 	 	 	 	 	 	 	 	 	 	 	 	 	 	 	 	1581504474	4.96	9.19
12/02/2020 10:47:55	120220	12022020	104755	150.44	12.545630	-57.187460	150.51	0.840	-0.440	1.610	150.50	-1.80	1.90	 	 	 	 	 	 	 	 	 	 	 	 	 	 	 	 	 	 	1581504475	5.37	9.95
12/02/2020 10:47:56	120220	12022020	104756	150.67	12.545610	-57.187445	150.73	0.580	-0.320	1.160	150.70	-1.60	1.60	 	 	 	 	 	 	 	 	 	 	 	 	 	 	 	 	 	 	1581504476	5.14	9.52
12/02/2020 10:47:57	120220	12022020	104757	150.75	12.545592	-57.187435	150.81	-0.130	-0.030	1.320	150.76	-1.30	1.90	 	 	 	 	 	 	 	 	 	 	 	 	 	 	 	 	 	 	1581504477	4.64	8.59
12/02/2020 10:47:58	120220	12022020	104758	150.85	12.545572	-57.187430	150.94	-0.740	0.370	1.790	150.89	-0.90	2.40	 	 	 	 	 	 	 	 	 	 	 	 	 	 	 	 	 	 	1581504478	4.67	8.65
12/02/2020 10:47:59	120220	12022020	104759	151.18	12.545548	-57.187428	151.33	-0.850	0.670	2.180	151.28	-0.70	2.70	 	 	 	 	 	 	 	 	 	 	 	 	 	 	 	 	 	 	1581504479	4.85	8.98
12/02/2020 10:48:00	120220	12022020	104800	151.68	12.545525	-57.187427	151.83	-0.430	0.430	2.370	151.78	-1.10	2.80	 	 	 	 	 	 	 	 	 	 	 	 	 	 	 	 	 	 	1581504480	4.89	9.06
12/02/2020 10:48:01	120220	12022020	104801	152.10	12.545502	-57.187423	152.23	0.120	-0.290	2.420	152.16	-1.80	2.90	1015.40	26.10	26.20	20.70	20.80	40.0	72.0	72.0	398.0	26.0	295.00	13.00	75.00	12.20	4893	10528.0	27.5	27.4	1581504481	5.15	9.54
12/02/2020 10:48:02	120220	12022020	104802	152.39	12.545478	-57.187417	152.51	0.410	-0.880	2.300	152.44	-2.30	2.70	 	 	 	 	 	 	 	 	 	 	 	 	 	 	 	 	 	 	1581504482	5.31	9.83
12/02/2020 10:48:03	120220	12022020	104803	152.56	12.545457	-57.187410	152.66	0.430	-1.090	2.170	152.56	-2.50	2.70	 	 	 	 	 	 	 	 	 	 	 	 	 	 	 	 	 	 	1581504483	4.99	9.24
12/02/2020 10:48:04	120220	12022020	104804	152.40	12.545435	-57.187402	152.45	0.580	-1.350	2.280	152.32	-2.80	2.80	 	 	 	 	 	 	 	 	 	 	 	 	 	 	 	 	 	 	1581504484	4.80	8.89
12/02/2020 10:48:05	120220	12022020	104805	152.04	12.545412	-57.187393	152.01	0.890	-1.550	2.520	151.95	-2.80	3.00	 	 	 	 	 	 	 	 	 	 	 	 	 	 	 	 	 	 	1581504485	5.38	9.96
12/02/2020 10:48:06	120220	12022020	104806	152.07	12.545387	-57.187383	152.27	0.760	-0.720	2.390	152.24	-1.70	2.80	 	 	 	 	 	 	 	 	 	 	 	 	 	 	 	 	 	 	1581504486	5.70	10.56
12/02/2020 10:48:07	120220	12022020	104807	153.19	12.545368	-57.187373	153.47	-0.220	1.120	2.280	153.49	0.20	2.80	 	 	 	 	 	 	 	 	 	 	 	 	 	 	 	 	 	 	1581504487	4.50	8.33
12/02/2020 10:48:08	120220	12022020	104808	154.64	12.545353	-57.187372	154.88	-1.570	2.410	2.540	154.87	1.10	3.10	 	 	 	 	 	 	 	 	 	 	 	 	 	 	 	 	 	 	1581504488	3.32	6.15
12/02/2020 10:48:09	120220	12022020	104809	155.50	12.545333	-57.187375	155.65	-2.210	1.900	3.200	155.56	0.10	3.80	 	 	 	 	 	 	 	 	 	 	 	 	 	 	 	 	 	 	1581504489	4.23	7.83
12/02/2020 10:48:10	120220	12022020	104810	155.59	12.545305	-57.187378	155.70	-1.460	-0.150	3.800	155.55	-2.00	4.40	 	 	 	 	 	 	 	 	 	 	 	 	 	 	 	 	 	 	1581504490	6.21	11.50
12/02/2020 10:48:11	120220	12022020	104811	155.22	12.545270	-57.187380	155.32	0.170	-1.950	4.250	155.12	-3.50	4.80	 	 	 	 	 	 	 	 	 	 	 	 	 	 	 	 	 	 	1581504491	7.33	13.58
12/02/2020 10:48:12	120220	12022020	104812	154.85	12.545240	-57.187375	155.00	1.540	-2.300	4.190	154.84	-3.50	4.50	 	 	 	 	 	 	 	 	 	 	 	 	 	 	 	 	 	 	1581504492	6.64	12.30
12/02/2020 10:48:13	120220	12022020	104813	155.05	12.545218	-57.187367	155.24	1.870	-1.280	3.240	155.15	-2.30	3.40	 	 	 	 	 	 	 	 	 	 	 	 	 	 	 	 	 	 	1581504493	5.01	9.28
12/02/2020 10:48:14	120220	12022020	104814	155.66	12.545203	-57.187357	155.83	1.210	0.170	1.700	155.79	-0.90	1.90	 	 	 	 	 	 	 	 	 	 	 	 	 	 	 	 	 	 	1581504494	3.88	7.19
12/02/2020 10:48:15	120220	12022020	104815	156.17	12.545192	-57.187343	156.28	0.270	1.000	0.360	156.25	-0.30	0.60	 	 	 	 	 	 	 	 	 	 	 	 	 	 	 	 	 	 	1581504495	3.82	7.07
12/02/2020 10:48:16	120220	12022020	104816	156.51	12.545175	-57.187330	156.59	-0.490	0.890	-0.200	156.57	-0.60	0.30	 	 	 	 	 	 	 	 	 	 	 	 	 	 	 	 	 	 	1581504496	4.38	8.11
12/02/2020 10:48:17	120220	12022020	104817	156.87	12.545153	-57.187323	156.96	-0.930	0.290	-0.080	156.94	-1.30	0.50	 	 	 	 	 	 	 	 	 	 	 	 	 	 	 	 	 	 	1581504497	5.12	9.48
12/02/2020 10:48:18	120220	12022020	104818	157.13	12.545127	-57.187320	157.19	-0.940	-0.490	0.500	157.13	-2.10	1.20	 	 	 	 	 	 	 	 	 	 	 	 	 	 	 	 	 	 	1581504498	5.67	10.50
12/02/2020 10:48:19	120220	12022020	104819	157.04	12.545098	-57.187320	157.01	-0.600	-1.330	1.550	156.98	-2.80	2.30	 	 	 	 	 	 	 	 	 	 	 	 	 	 	 	 	 	 	1581504499	6.14	11.37
12/02/2020 10:48:20	120220	12022020	104820	156.55	12.545068	-57.187323	156.58	-0.110	-1.610	2.790	156.45	-2.90	3.50	 	 	 	 	 	 	 	 	 	 	 	 	 	 	 	 	 	 	1581504500	6.57	12.17
12/02/2020 10:48:21	120220	12022020	104821	156.20	12.545038	-57.187325	156.30	0.220	-0.920	3.630	156.18	-2.00	4.20	 	 	 	 	 	 	 	 	 	 	 	 	 	 	 	 	 	 	1581504501	6.16	11.41
12/02/2020 10:48:22	120220	12022020	104822	156.22	12.545015	-57.187327	156.35	0.290	0.330	3.670	156.26	-0.80	4.00	 	 	 	 	 	 	 	 	 	 	 	 	 	 	 	 	 	 	1581504502	5.02	9.30
12/02/2020 10:48:23	120220	12022020	104823	156.51	12.544997	-57.187322	156.63	0.240	1.180	2.900	156.58	-0.10	3.10	 	 	 	 	 	 	 	 	 	 	 	 	 	 	 	 	 	 	1581504503	4.18	7.74
12/02/2020 10:48:24	120220	12022020	104824	156.94	12.544978	-57.187313	157.06	0.220	1.090	1.790	157.05	-0.40	2.10	 	 	 	 	 	 	 	 	 	 	 	 	 	 	 	 	 	 	1581504504	4.49	8.32
12/02/2020 10:48:25	120220	12022020	104825	157.48	12.544957	-57.187302	157.59	0.230	0.280	0.990	157.58	-1.30	1.40	 	 	 	 	 	 	 	 	 	 	 	 	 	 	 	 	 	 	1581504505	5.29	9.80
12/02/2020 10:48:26	120220	12022020	104826	157.94	12.544932	-57.187292	158.02	0.240	-0.650	0.850	158.00	-2.20	1.40	 	 	 	 	 	 	 	 	 	 	 	 	 	 	 	 	 	 	1581504506	5.72	10.59
12/02/2020 10:48:27	120220	12022020	104827	158.10	12.544905	-57.187285	158.14	0.210	-1.280	1.350	158.09	-2.70	2.00	 	 	 	 	 	 	 	 	 	 	 	 	 	 	 	 	 	 	1581504507	5.72	10.59
12/02/2020 10:48:28	120220	12022020	104828	158.07	12.544880	-57.187282	158.11	0.090	-1.380	2.200	158.06	-2.70	2.90	 	 	 	 	 	 	 	 	 	 	 	 	 	 	 	 	 	 	1581504508	5.67	10.50
12/02/2020 10:48:29	120220	12022020	104829	158.14	12.544853	-57.187282	158.23	-0.200	-0.820	3.060	158.18	-2.00	3.70	 	 	 	 	 	 	 	 	 	 	 	 	 	 	 	 	 	 	1581504509	5.50	10.19
12/02/2020 10:48:30	120220	12022020	104830	158.41	12.544830	-57.187283	158.53	-0.510	0.050	3.560	158.48	-1.20	4.00	 	 	 	 	 	 	 	 	 	 	 	 	 	 	 	 	 	 	1581504510	5.11	9.46
12/02/2020 10:48:31	120220	12022020	104831	158.69	12.544808	-57.187285	158.85	-0.540	0.520	3.490	158.75	-0.90	3.80	 	 	 	 	 	 	 	 	 	 	 	 	 	 	 	 	 	 	1581504511	4.85	8.98
12/02/2020 10:48:32	120220	12022020	104832	159.08	12.544783	-57.187282	159.17	-0.120	0.250	2.860	159.15	-1.30	3.10	 	 	 	 	 	 	 	 	 	 	 	 	 	 	 	 	 	 	1581504512	5.12	9.48
12/02/2020 10:48:33	120220	12022020	104833	159.35	12.544758	-57.187273	159.48	0.520	-0.360	1.980	159.42	-1.80	2.30	 	 	 	 	 	 	 	 	 	 	 	 	 	 	 	 	 	 	1581504513	5.77	10.69
12/02/2020 10:48:34	120220	12022020	104834	159.80	12.544733	-57.187262	159.84	0.900	-0.570	1.190	159.90	-1.90	1.50	 	 	 	 	 	 	 	 	 	 	 	 	 	 	 	 	 	 	1581504514	6.07	11.24
12/02/2020 10:48:35	120220	12022020	104835	160.41	12.544710	-57.187250	160.46	0.610	-0.110	0.640	160.55	-1.30	1.10	 	 	 	 	 	 	 	 	 	 	 	 	 	 	 	 	 	 	1581504515	5.58	10.33
12/02/2020 10:48:36	120220	12022020	104836	161.15	12.544690	-57.187240	161.20	-0.220	0.480	0.550	161.29	-0.90	1.10	 	 	 	 	 	 	 	 	 	 	 	 	 	 	 	 	 	 	1581504516	4.70	8.70
12/02/2020 10:48:37	120220	12022020	104837	161.63	12.544668	-57.187238	161.63	-0.940	0.380	1.060	161.67	-1.10	1.70	 	 	 	 	 	 	 	 	 	 	 	 	 	 	 	 	 	 	1581504517	4.61	8.54
12/02/2020 10:48:38	120220	12022020	104838	161.65	12.544642	-57.187240	161.62	-0.920	-0.390	1.890	161.62	-2.00	2.50	 	 	 	 	 	 	 	 	 	 	 	 	 	 	 	 	 	 	1581504518	5.77	10.69
12/02/2020 10:48:39	120220	12022020	104839	161.45	12.544612	-57.187243	161.42	-0.200	-1.050	2.590	161.38	-2.50	3.20	 	 	 	 	 	 	 	 	 	 	 	 	 	 	 	 	 	 	1581504519	6.54	12.11
12/02/2020 10:48:40	120220	12022020	104840	161.10	12.544583	-57.187243	161.06	0.640	-1.180	3.060	161.02	-2.50	3.60	 	 	 	 	 	 	 	 	 	 	 	 	 	 	 	 	 	 	1581504520	6.25	11.58
12/02/2020 10:48:41	120220	12022020	104841	160.87	12.544557	-57.187240	160.87	0.970	-0.780	2.900	160.87	-2.00	3.20	 	 	 	 	 	 	 	 	 	 	 	 	 	 	 	 	 	 	1581504521	5.72	10.59
12/02/2020 10:48:42	120220	12022020	104842	161.09	12.544533	-57.187233	161.14	0.570	-0.030	2.220	161.19	-1.20	2.50	 	 	 	 	 	 	 	 	 	 	 	 	 	 	 	 	 	 	1581504522	5.23	9.69
12/02/2020 10:48:43	120220	12022020	104843	161.64	12.544512	-57.187225	161.68	-0.260	0.610	1.740	161.75	-0.70	2.20	 	 	 	 	 	 	 	 	 	 	 	 	 	 	 	 	 	 	1581504523	4.88	9.04
12/02/2020 10:48:44	120220	12022020	104844	162.10	12.544488	-57.187222	162.11	-0.880	0.850	1.680	162.18	-0.50	2.20	 	 	 	 	 	 	 	 	 	 	 	 	 	 	 	 	 	 	1581504524	4.94	9.15
12/02/2020 10:48:45	120220	12022020	104845	162.46	12.544463	-57.187220	162.46	-0.870	0.630	1.680	162.53	-0.90	2.10	 	 	 	 	 	 	 	 	 	 	 	 	 	 	 	 	 	 	1581504525	5.39	9.98
12/02/2020 10:48:46	120220	12022020	104846	162.73	12.544437	-57.187218	162.69	-0.170	-0.170	1.640	162.74	-1.80	2.10	 	 	 	 	 	 	 	 	 	 	 	 	 	 	 	 	 	 	1581504526	5.76	10.67
12/02/2020 10:48:47	120220	12022020	104847	162.69	12.544408	-57.187215	162.63	0.750	-1.320	1.800	162.65	-2.90	2.40	 	 	 	 	 	 	 	 	 	 	 	 	 	 	 	 	 	 	1581504527	6.32	11.70
12/02/2020 10:48:48	120220	12022020	104848	162.48	12.544377	-57.187210	162.44	1.130	-1.870	2.200	162.46	-3.20	2.80	 	 	 	 	 	 	 	 	 	 	 	 	 	 	 	 	 	 	1581504528	6.72	12.45
12/02/2020 10:48:49	120220	12022020	104849	162.48	12.544350	-57.187203	162.50	0.580	-1.100	2.650	162.53	-2.20	3.20	 	 	 	 	 	 	 	 	 	 	 	 	 	 	 	 	 	 	1581504529	6.11	11.32
12/02/2020 10:48:50	120220	12022020	104850	162.83	12.544327	-57.187202	162.90	-0.480	0.470	2.870	162.94	-0.60	3.40	 	 	 	 	 	 	 	 	 	 	 	 	 	 	 	 	 	 	1581504530	4.85	8.98
12/02/2020 10:48:51	120220	12022020	104851	163.42	12.544307	-57.187205	163.50	-1.170	1.610	2.890	163.55	0.30	3.30	 	 	 	 	 	 	 	 	 	 	 	 	 	 	 	 	 	 	1581504531	4.31	7.98
12/02/2020 10:48:52	120220	12022020	104852	163.98	12.544285	-57.187207	164.04	-0.860	1.300	2.780	164.07	-0.40	3.20	 	 	 	 	 	 	 	 	 	 	 	 	 	 	 	 	 	 	1581504532	4.90	9.07
12/02/2020 10:48:53	120220	12022020	104853	164.32	12.544255	-57.187205	164.35	0.200	-0.150	2.510	164.37	-1.90	2.90	 	 	 	 	 	 	 	 	 	 	 	 	 	 	 	 	 	 	1581504533	6.22	11.52
12/02/2020 10:48:54	120220	12022020	104854	164.55	12.544223	-57.187198	164.58	1.030	-1.360	2.230	164.60	-2.90	2.70	 	 	 	 	 	 	 	 	 	 	 	 	 	 	 	 	 	 	1581504534	7.10	13.15
12/02/2020 10:48:55	120220	12022020	104855	164.79	12.544193	-57.187192	164.83	0.930	-1.370	2.290	164.85	-2.60	2.80	 	 	 	 	 	 	 	 	 	 	 	 	 	 	 	 	 	 	1581504535	6.52	12.08
12/02/2020 10:48:56	120220	12022020	104856	165.06	12.544170	-57.187187	165.11	0.120	-0.460	2.490	165.12	-1.60	3.00	 	 	 	 	 	 	 	 	 	 	 	 	 	 	 	 	 	 	1581504536	5.18	9.59
12/02/2020 10:48:57	120220	12022020	104857	165.33	12.544148	-57.187188	165.38	-0.550	0.340	2.610	165.38	-1.00	3.10	 	 	 	 	 	 	 	 	 	 	 	 	 	 	 	 	 	 	1581504537	4.56	8.45
12/02/2020 10:48:58	120220	12022020	104858	165.51	12.544125	-57.187190	165.53	-0.470	0.220	2.550	165.53	-1.30	3.00	 	 	 	 	 	 	 	 	 	 	 	 	 	 	 	 	 	 	1581504538	5.09	9.43
12/02/2020 10:48:59	120220	12022020	104859	165.68	12.544097	-57.187188	165.72	0.140	-0.380	2.210	165.74	-1.90	2.60	 	 	 	 	 	 	 	 	 	 	 	 	 	 	 	 	 	 	1581504539	6.14	11.37
12/02/2020 10:49:00	120220	12022020	104900	166.10	12.544067	-57.187183	166.16	0.470	-0.570	1.710	166.21	-1.90	2.10	 	 	 	 	 	 	 	 	 	 	 	 	 	 	 	 	 	 	1581504540	6.45	11.95
12/02/2020 10:49:01	120220	12022020	104901	166.70	12.544040	-57.187178	166.76	0.110	-0.250	1.380	166.82	-1.50	1.90	1015.40	26.20	26.30	21.20	21.20	40.0	74.0	73.0	398.0	26.0	290.00	12.00	76.00	11.30	5048	10470.0	27.5	27.4	1581504541	5.79	10.72
12/02/2020 10:49:02	120220	12022020	104902	167.15	12.544017	-57.187175	167.18	-0.540	0.140	1.490	167.19	-1.20	2.10	 	 	 	 	 	 	 	 	 	 	 	 	 	 	 	 	 	 	1581504542	5.18	9.59
12/02/2020 10:49:03	120220	12022020	104903	167.24	12.543992	-57.187177	167.24	-0.730	0.150	1.960	167.22	-1.30	2.50	 	 	 	 	 	 	 	 	 	 	 	 	 	 	 	 	 	 	1581504543	5.32	9.85
12/02/2020 10:49:04	120220	12022020	104904	167.13	12.543965	-57.187178	167.14	-0.250	-0.260	2.360	167.10	-1.80	2.90	 	 	 	 	 	 	 	 	 	 	 	 	 	 	 	 	 	 	1581504544	5.93	10.98
12/02/2020 10:49:05	120220	12022020	104905	167.00	12.543935	-57.187178	167.02	0.400	-0.690	2.550	166.99	-2.10	3.00	 	 	 	 	 	 	 	 	 	 	 	 	 	 	 	 	 	 	1581504545	6.41	11.87
12/02/2020 10:49:06	120220	12022020	104906	167.08	12.543905	-57.187175	167.15	0.650	-0.590	2.490	167.14	-1.90	2.90	 	 	 	 	 	 	 	 	 	 	 	 	 	 	 	 	 	 	1581504546	6.36	11.78
12/02/2020 10:49:07	120220	12022020	104907	167.55	12.543878	-57.187173	167.66	0.410	0.030	2.160	167.69	-1.20	2.50	 	 	 	 	 	 	 	 	 	 	 	 	 	 	 	 	 	 	1581504547	5.67	10.50
12/02/2020 10:49:08	120220	12022020	104908	168.19	12.543855	-57.187170	168.26	0.010	0.540	1.770	168.29	-0.80	2.20	 	 	 	 	 	 	 	 	 	 	 	 	 	 	 	 	 	 	1581504548	4.98	9.22
12/02/2020 10:49:09	120220	12022020	104909	168.46	12.543832	-57.187168	168.49	-0.120	0.260	1.750	168.47	-1.30	2.30	 	 	 	 	 	 	 	 	 	 	 	 	 	 	 	 	 	 	1581504549	5.11	9.46
12/02/2020 10:49:10	120220	12022020	104910	168.36	12.543803	-57.187167	168.35	0.040	-0.540	2.140	168.33	-2.10	2.70	 	 	 	 	 	 	 	 	 	 	 	 	 	 	 	 	 	 	1581504550	6.07	11.24
12/02/2020 10:49:11	120220	12022020	104911	168.27	12.543773	-57.187167	168.29	0.140	-0.870	2.550	168.27	-2.20	3.10	 	 	 	 	 	 	 	 	 	 	 	 	 	 	 	 	 	 	1581504551	6.65	12.32
12/02/2020 10:49:12	120220	12022020	104912	168.32	12.543745	-57.187168	168.35	0.020	-0.470	2.830	168.34	-1.70	3.30	 	 	 	 	 	 	 	 	 	 	 	 	 	 	 	 	 	 	1581504552	6.12	11.33
12/02/2020 10:49:13	120220	12022020	104913	168.55	12.543720	-57.187170	168.61	-0.170	0.060	2.760	168.64	-1.30	3.20	 	 	 	 	 	 	 	 	 	 	 	 	 	 	 	 	 	 	1581504553	5.43	10.06
12/02/2020 10:49:14	120220	12022020	104914	169.05	12.543695	-57.187170	169.13	-0.170	0.040	2.280	169.18	-1.40	2.60	 	 	 	 	 	 	 	 	 	 	 	 	 	 	 	 	 	 	1581504554	5.40	10.00
12/02/2020 10:49:15	120220	12022020	104915	169.73	12.543667	-57.187167	169.80	-0.030	-0.460	1.660	169.87	-2.00	2.10	 	 	 	 	 	 	 	 	 	 	 	 	 	 	 	 	 	 	1581504555	5.97	11.06
12/02/2020 10:49:16	120220	12022020	104916	170.27	12.543637	-57.187163	170.29	-0.020	-0.890	1.470	170.33	-2.30	2.00	 	 	 	 	 	 	 	 	 	 	 	 	 	 	 	 	 	 	1581504556	6.40	11.85
12/02/2020 10:49:17	120220	12022020	104917	170.42	12.543608	-57.187162	170.40	-0.190	-0.880	1.780	170.40	-2.20	2.40	 	 	 	 	 	 	 	 	 	 	 	 	 	 	 	 	 	 	1581504557	6.33	11.72
12/02/2020 10:49:18	120220	12022020	104918	170.33	12.543580	-57.187163	170.32	-0.310	-0.320	2.240	170.31	-1.50	2.80	 	 	 	 	 	 	 	 	 	 	 	 	 	 	 	 	 	 	1581504558	6.03	11.17
12/02/2020 10:49:19	120220	12022020	104919	170.29	12.543553	-57.187167	170.30	-0.110	0.330	2.570	170.29	-1.00	3.10	 	 	 	 	 	 	 	 	 	 	 	 	 	 	 	 	 	 	1581504559	5.66	10.48
12/02/2020 10:49:20	120220	12022020	104920	170.36	12.543527	-57.187167	170.38	0.370	0.470	2.630	170.38	-1.00	3.10	 	 	 	 	 	 	 	 	 	 	 	 	 	 	 	 	 	 	1581504560	5.69	10.54
12/02/2020 10:49:21	120220	12022020	104921	170.51	12.543498	-57.187165	170.62	0.690	0.200	2.520	170.57	-1.30	3.00	 	 	 	 	 	 	 	 	 	 	 	 	 	 	 	 	 	 	1581504561	6.20	11.48
12/02/2020 10:49:22	120220	12022020	104922	171.11	12.543468	-57.187162	171.22	0.480	0.040	2.350	171.27	-1.40	2.80	 	 	 	 	 	 	 	 	 	 	 	 	 	 	 	 	 	 	1581504562	6.43	11.91
12/02/2020 10:49:23	120220	12022020	104923	171.80	12.543442	-57.187160	172.09	-0.120	0.170	2.090	171.98	-1.20	2.50	 	 	 	 	 	 	 	 	 	 	 	 	 	 	 	 	 	 	1581504563	5.93	10.98
12/02/2020 10:49:24	120220	12022020	104924	172.66	12.543417	-57.187162	172.73	-0.550	0.000	2.010	172.73	-1.50	2.50	 	 	 	 	 	 	 	 	 	 	 	 	 	 	 	 	 	 	1581504564	5.46	10.11
12/02/2020 10:49:25	120220	12022020	104925	172.82	12.543388	-57.187165	172.84	-0.400	-0.660	2.330	172.80	-2.20	2.90	 	 	 	 	 	 	 	 	 	 	 	 	 	 	 	 	 	 	1581504565	5.90	10.93
12/02/2020 10:49:26	120220	12022020	104926	172.68	12.543358	-57.187167	172.71	-0.010	-1.120	2.710	172.67	-2.50	3.20	 	 	 	 	 	 	 	 	 	 	 	 	 	 	 	 	 	 	1581504566	6.58	12.19
12/02/2020 10:49:27	120220	12022020	104927	172.76	12.543328	-57.187170	172.82	0.180	-0.890	2.670	172.82	-2.20	3.10	 	 	 	 	 	 	 	 	 	 	 	 	 	 	 	 	 	 	1581504567	6.39	11.83
12/02/2020 10:49:28	120220	12022020	104928	173.13	12.543302	-57.187170	173.21	0.130	-0.370	2.200	173.22	-1.70	2.60	 	 	 	 	 	 	 	 	 	 	 	 	 	 	 	 	 	 	1581504568	5.75	10.65
12/02/2020 10:49:29	120220	12022020	104929	173.52	12.543277	-57.187168	173.57	0.110	-0.190	1.700	173.57	-1.60	2.10	 	 	 	 	 	 	 	 	 	 	 	 	 	 	 	 	 	 	1581504569	5.60	10.37
12/02/2020 10:49:30	120220	12022020	104930	173.75	12.543247	-57.187167	173.80	0.160	-0.370	1.430	173.79	-1.80	1.90	 	 	 	 	 	 	 	 	 	 	 	 	 	 	 	 	 	 	1581504570	6.18	11.45
12/02/2020 10:49:31	120220	12022020	104931	173.96	12.543217	-57.187163	174.03	0.080	-0.430	1.410	174.01	-1.80	1.90	 	 	 	 	 	 	 	 	 	 	 	 	 	 	 	 	 	 	1581504571	6.62	12.26
12/02/2020 10:49:32	120220	12022020	104932	174.18	12.543187	-57.187165	174.24	-0.230	-0.130	1.600	174.21	-1.40	2.20	 	 	 	 	 	 	 	 	 	 	 	 	 	 	 	 	 	 	1581504572	6.48	12.00
12/02/2020 10:49:33	120220	12022020	104933	174.33	12.543158	-57.187168	174.40	-0.550	0.350	1.950	174.37	-1.00	2.50	 	 	 	 	 	 	 	 	 	 	 	 	 	 	 	 	 	 	1581504573	6.16	11.41
12/02/2020 10:49:34	120220	12022020	104934	174.63	12.543130	-57.187173	174.73	-0.620	0.740	2.140	174.72	-0.60	2.60	 	 	 	 	 	 	 	 	 	 	 	 	 	 	 	 	 	 	1581504574	6.07	11.24
12/02/2020 10:49:35	120220	12022020	104935	175.12	12.543103	-57.187177	175.22	-0.270	0.630	2.000	175.22	-0.90	2.40	 	 	 	 	 	 	 	 	 	 	 	 	 	 	 	 	 	 	1581504575	5.98	11.07
12/02/2020 10:49:36	120220	12022020	104936	175.56	12.543073	-57.187178	175.63	0.280	-0.170	1.820	175.63	-1.80	2.30	 	 	 	 	 	 	 	 	 	 	 	 	 	 	 	 	 	 	1581504576	6.38	11.82
12/02/2020 10:49:37	120220	12022020	104937	175.86	12.543040	-57.187177	175.92	0.650	-0.960	1.800	175.91	-2.50	2.30	 	 	 	 	 	 	 	 	 	 	 	 	 	 	 	 	 	 	1581504577	6.95	12.87
12/02/2020 10:49:38	120220	12022020	104938	176.05	12.543010	-57.187177	176.10	0.560	-1.030	1.930	176.08	-2.40	2.50	 	 	 	 	 	 	 	 	 	 	 	 	 	 	 	 	 	 	1581504578	6.75	12.50
12/02/2020 10:49:39	120220	12022020	104939	176.12	12.542982	-57.187178	176.16	0.080	-0.560	2.340	176.12	-1.90	2.90	 	 	 	 	 	 	 	 	 	 	 	 	 	 	 	 	 	 	1581504579	5.99	11.09
12/02/2020 10:49:40	120220	12022020	104940	176.08	12.542955	-57.187183	176.12	-0.370	-0.210	2.930	176.06	-1.60	3.50	 	 	 	 	 	 	 	 	 	 	 	 	 	 	 	 	 	 	1581504580	5.77	10.69
12/02/2020 10:49:41	120220	12022020	104941	175.99	12.542927	-57.187192	176.04	-0.340	-0.150	3.320	176.00	-1.60	3.80	 	 	 	 	 	 	 	 	 	 	 	 	 	 	 	 	 	 	1581504581	6.36	11.78
12/02/2020 10:49:42	120220	12022020	104942	176.21	12.542897	-57.187198	176.31	0.090	-0.110	3.070	176.31	-1.50	3.40	 	 	 	 	 	 	 	 	 	 	 	 	 	 	 	 	 	 	1581504582	6.68	12.37
12/02/2020 10:49:43	120220	12022020	104943	176.84	12.542867	-57.187200	176.96	0.420	-0.070	2.330	177.00	-1.50	2.60	 	 	 	 	 	 	 	 	 	 	 	 	 	 	 	 	 	 	1581504583	6.45	11.95
12/02/2020 10:49:44	120220	12022020	104944	177.70	12.542837	-57.187198	177.83	0.330	-0.070	1.520	177.88	-1.50	1.90	 	 	 	 	 	 	 	 	 	 	 	 	 	 	 	 	 	 	1581504584	6.32	11.70
12/02/2020 10:49:45	120220	12022020	104945	178.49	12.542808	-57.187195	178.57	-0.080	-0.160	1.050	178.61	-1.60	1.50	 	 	 	 	 	 	 	 	 	 	 	 	 	 	 	 	 	 	1581504585	6.22	11.52
12/02/2020 10:49:46	120220	12022020	104946	178.90	12.542780	-57.187195	178.95	-0.410	-0.410	1.150	178.94	-1.90	1.80	 	 	 	 	 	 	 	 	 	 	 	 	 	 	 	 	 	 	1581504586	6.24	11.56
12/02/2020 10:49:47	120220	12022020	104947	178.92	12.542750	-57.187198	178.94	-0.420	-0.730	1.770	178.89	-2.20	2.40	 	 	 	 	 	 	 	 	 	 	 	 	 	 	 	 	 	 	1581504587	6.52	12.08
12/02/2020 10:49:48	120220	12022020	104948	178.73	12.542718	-57.187205	178.75	-0.170	-0.890	2.530	178.69	-2.30	3.20	 	 	 	 	 	 	 	 	 	 	 	 	 	 	 	 	 	 	1581504588	6.86	12.70
12/02/2020 10:49:49	120220	12022020	104949	178.60	12.542687	-57.187212	178.65	0.050	-0.600	3.050	178.60	-1.90	3.60	 	 	 	 	 	 	 	 	 	 	 	 	 	 	 	 	 	 	1581504589	6.96	12.89
12/02/2020 10:49:50	120220	12022020	104950	178.70	12.542657	-57.187218	178.78	0.060	0.140	3.140	178.75	-1.10	3.50	 	 	 	 	 	 	 	 	 	 	 	 	 	 	 	 	 	 	1581504590	6.56	12.15
12/02/2020 10:49:51	120220	12022020	104951	179.14	12.542628	-57.187223	179.25	-0.070	0.860	2.600	179.28	-0.50	2.90	 	 	 	 	 	 	 	 	 	 	 	 	 	 	 	 	 	 	1581504591	6.00	11.11
12/02/2020 10:49:52	120220	12022020	104952	179.82	12.542602	-57.187225	179.90	-0.130	0.920	1.650	179.94	-0.60	1.90	 	 	 	 	 	 	 	 	 	 	 	 	 	 	 	 	 	 	1581504592	5.85	10.83
12/02/2020 10:49:53	120220	12022020	104953	180.35	12.542572	-57.187225	180.40	0.010	0.260	0.920	180.43	-1.40	1.30	 	 	 	 	 	 	 	 	 	 	 	 	 	 	 	 	 	 	1581504593	6.40	11.85
12/02/2020 10:49:54	120220	12022020	104954	180.72	12.542540	-57.187225	180.76	0.240	-0.530	0.630	180.80	-2.10	1.10	 	 	 	 	 	 	 	 	 	 	 	 	 	 	 	 	 	 	1581504594	6.95	12.87
12/02/2020 10:49:55	120220	12022020	104955	181.11	12.542508	-57.187228	181.14	0.360	-0.910	0.580	181.20	-2.40	1.10	 	 	 	 	 	 	 	 	 	 	 	 	 	 	 	 	 	 	1581504595	6.88	12.74
12/02/2020 10:49:56	120220	12022020	104956	181.50	12.542478	-57.187230	181.51	0.300	-0.980	0.730	181.55	-2.40	1.30	 	 	 	 	 	 	 	 	 	 	 	 	 	 	 	 	 	 	1581504596	6.43	11.91
12/02/2020 10:49:57	120220	12022020	104957	181.64	12.542448	-57.187235	181.63	0.200	-0.990	1.250	181.64	-2.40	1.90	 	 	 	 	 	 	 	 	 	 	 	 	 	 	 	 	 	 	1581504597	6.37	11.80
12/02/2020 10:49:58	120220	12022020	104958	181.59	12.542418	-57.187242	181.58	0.120	-0.840	1.940	181.58	-2.20	2.60	 	 	 	 	 	 	 	 	 	 	 	 	 	 	 	 	 	 	1581504598	6.63	12.28
12/02/2020 10:49:59	120220	12022020	104959	181.59	12.542388	-57.187250	181.63	-0.020	-0.300	2.490	181.61	-1.60	3.00	 	 	 	 	 	 	 	 	 	 	 	 	 	 	 	 	 	 	1581504599	6.71	12.43
12/02/2020 10:50:00	120220	12022020	105000	181.90	12.542360	-57.187257	181.95	-0.310	0.440	2.740	181.98	-0.90	3.20	 	 	 	 	 	 	 	 	 	 	 	 	 	 	 	 	 	 	1581504600	6.38	11.82
12/02/2020 10:50:01	120220	12022020	105001	182.31	12.542332	-57.187262	182.36	-0.590	0.750	2.770	182.38	-0.70	3.20	1015.40	26.10	26.10	20.90	21.00	44.0	73.0	73.0	397.0	26.0	280.00	11.60	78.00	11.60	5204	9597.0	27.4	27.4	1581504601	6.18	11.45
12/02/2020 10:50:02	120220	12022020	105002	182.60	12.542302	-57.187268	182.64	-0.560	0.300	2.670	182.65	-1.30	3.10	 	 	 	 	 	 	 	 	 	 	 	 	 	 	 	 	 	 	1581504602	6.65	12.32
12/02/2020 10:50:03	120220	12022020	105003	182.87	12.542267	-57.187275	182.91	-0.180	-0.400	2.330	182.95	-1.90	2.70	 	 	 	 	 	 	 	 	 	 	 	 	 	 	 	 	 	 	1581504603	7.33	13.58
12/02/2020 10:50:04	120220	12022020	105004	183.36	12.542233	-57.187278	183.42	0.180	-0.620	1.760	183.48	-2.00	2.10	 	 	 	 	 	 	 	 	 	 	 	 	 	 	 	 	 	 	1581504604	7.37	13.65
12/02/2020 10:50:05	120220	12022020	105005	183.94	12.542202	-57.187283	183.97	0.290	-0.330	1.280	184.04	-1.70	1.70	 	 	 	 	 	 	 	 	 	 	 	 	 	 	 	 	 	 	1581504605	6.67	12.35
12/02/2020 10:50:06	120220	12022020	105006	184.30	12.542175	-57.187287	184.29	0.330	0.000	1.060	184.35	-1.40	1.50	 	 	 	 	 	 	 	 	 	 	 	 	 	 	 	 	 	 	1581504606	6.08	11.26
12/02/2020 10:50:07	120220	12022020	105007	184.53	12.542147	-57.187290	184.53	0.460	0.050	0.900	184.59	-1.40	1.40	 	 	 	 	 	 	 	 	 	 	 	 	 	 	 	 	 	 	1581504607	6.18	11.45
12/02/2020 10:50:08	120220	12022020	105008	184.91	12.542115	-57.187292	184.96	0.440	-0.160	0.910	185.02	-1.70	1.40	 	 	 	 	 	 	 	 	 	 	 	 	 	 	 	 	 	 	1581504608	6.55	12.13
12/02/2020 10:50:09	120220	12022020	105009	185.46	12.542083	-57.187295	185.52	0.100	-0.540	1.210	185.55	-2.10	1.80	 	 	 	 	 	 	 	 	 	 	 	 	 	 	 	 	 	 	1581504609	6.81	12.61
12/02/2020 10:50:10	120220	12022020	105010	185.83	12.542053	-57.187303	185.88	-0.350	-0.840	1.810	185.86	-2.30	2.50	 	 	 	 	 	 	 	 	 	 	 	 	 	 	 	 	 	 	1581504610	7.00	12.96
12/02/2020 10:50:11	120220	12022020	105011	185.86	12.542022	-57.187315	185.90	-0.490	-0.930	2.670	185.84	-2.40	3.30	 	 	 	 	 	 	 	 	 	 	 	 	 	 	 	 	 	 	1581504611	7.13	13.20
12/02/2020 10:50:12	120220	12022020	105012	185.72	12.541990	-57.187327	185.78	-0.220	-0.750	3.380	185.71	-2.10	3.90	 	 	 	 	 	 	 	 	 	 	 	 	 	 	 	 	 	 	1581504612	7.21	13.35
12/02/2020 10:50:13	120220	12022020	105013	185.79	12.541958	-57.187337	185.98	-0.000	-0.250	3.500	185.87	-1.60	3.90	 	 	 	 	 	 	 	 	 	 	 	 	 	 	 	 	 	 	1581504613	7.06	13.08
12/02/2020 10:50:14	120220	12022020	105014	186.43	12.541928	-57.187345	186.56	-0.120	0.230	3.210	186.55	-1.10	3.60	 	 	 	 	 	 	 	 	 	 	 	 	 	 	 	 	 	 	1581504614	6.70	12.41
12/02/2020 10:50:15	120220	12022020	105015	186.96	12.541898	-57.187353	187.19	-0.400	0.540	2.670	187.08	-0.90	3.00	 	 	 	 	 	 	 	 	 	 	 	 	 	 	 	 	 	 	1581504615	6.60	12.22
12/02/2020 10:50:16	120220	12022020	105016	187.65	12.541870	-57.187360	187.73	-0.410	0.710	1.840	187.76	-0.70	2.10	 	 	 	 	 	 	 	 	 	 	 	 	 	 	 	 	 	 	1581504616	6.56	12.15
12/02/2020 10:50:17	120220	12022020	105017	188.14	12.541840	-57.187365	188.19	-0.090	0.610	1.010	188.24	-0.90	1.30	 	 	 	 	 	 	 	 	 	 	 	 	 	 	 	 	 	 	1581504617	6.53	12.09
12/02/2020 10:50:18	120220	12022020	105018	188.66	12.541808	-57.187368	188.72	0.320	0.210	0.460	188.79	-1.40	0.90	 	 	 	 	 	 	 	 	 	 	 	 	 	 	 	 	 	 	1581504618	6.71	12.43
12/02/2020 10:50:19	120220	12022020	105019	189.33	12.541777	-57.187373	189.40	0.600	-0.320	0.260	189.47	-1.90	0.70	 	 	 	 	 	 	 	 	 	 	 	 	 	 	 	 	 	 	1581504619	6.86	12.70
12/02/2020 10:50:20	120220	12022020	105020	189.95	12.541745	-57.187378	190.00	0.710	-0.830	0.360	190.04	-2.40	0.90	 	 	 	 	 	 	 	 	 	 	 	 	 	 	 	 	 	 	1581504620	6.85	12.69
12/02/2020 10:50:21	120220	12022020	105021	190.17	12.541715	-57.187387	190.16	0.780	-1.460	0.940	190.13	-3.10	1.60	 	 	 	 	 	 	 	 	 	 	 	 	 	 	 	 	 	 	1581504621	6.85	12.69
12/02/2020 10:50:22	120220	12022020	105022	189.78	12.541682	-57.187395	189.75	0.740	-2.020	2.000	189.66	-3.50	2.70	 	 	 	 	 	 	 	 	 	 	 	 	 	 	 	 	 	 	1581504622	7.30	13.52
12/02/2020 10:50:23	120220	12022020	105023	189.21	12.541648	-57.187407	189.23	0.290	-1.750	3.100	189.13	-3.00	3.80	 	 	 	 	 	 	 	 	 	 	 	 	 	 	 	 	 	 	1581504623	7.64	14.15
12/02/2020 10:50:24	120220	12022020	105024	189.00	12.541617	-57.187420	189.10	-0.620	-0.450	3.720	189.03	-1.50	4.20	 	 	 	 	 	 	 	 	 	 	 	 	 	 	 	 	 	 	1581504624	7.18	13.30
12/02/2020 10:50:25	120220	12022020	105025	189.39	12.541592	-57.187435	189.55	-1.540	1.180	3.620	189.53	0.00	4.00	 	 	 	 	 	 	 	 	 	 	 	 	 	 	 	 	 	 	1581504625	6.46	11.96
12/02/2020 10:50:26	120220	12022020	105026	190.24	12.541565	-57.187450	190.41	-1.940	2.090	3.050	190.42	0.70	3.30	 	 	 	 	 	 	 	 	 	 	 	 	 	 	 	 	 	 	1581504626	6.17	11.43
12/02/2020 10:50:27	120220	12022020	105027	191.21	12.541538	-57.187463	191.35	-1.430	1.650	2.180	191.39	-0.00	2.40	 	 	 	 	 	 	 	 	 	 	 	 	 	 	 	 	 	 	1581504627	6.73	12.46
12/02/2020 10:50:28	120220	12022020	105028	192.16	12.541503	-57.187475	192.27	-0.130	0.430	0.970	192.34	-1.30	1.10	 	 	 	 	 	 	 	 	 	 	 	 	 	 	 	 	 	 	1581504628	7.68	14.22
12/02/2020 10:50:29	120220	12022020	105029	192.95	12.541467	-57.187482	193.01	1.290	-0.640	-0.230	193.08	-2.30	0.00	 	 	 	 	 	 	 	 	 	 	 	 	 	 	 	 	 	 	1581504629	8.00	14.82
12/02/2020 10:50:30	120220	12022020	105030	193.42	12.541432	-57.187483	193.43	2.000	-1.140	-0.790	193.47	-2.60	-0.30	 	 	 	 	 	 	 	 	 	 	 	 	 	 	 	 	 	 	1581504630	7.66	14.19
12/02/2020 10:50:31	120220	12022020	105031	193.60	12.541400	-57.187485	193.61	1.590	-1.110	-0.490	193.62	-2.50	0.10	 	 	 	 	 	 	 	 	 	 	 	 	 	 	 	 	 	 	1581504631	6.95	12.87
12/02/2020 10:50:32	120220	12022020	105032	193.62	12.541370	-57.187490	193.63	0.470	-0.900	0.470	193.60	-2.30	1.20	 	 	 	 	 	 	 	 	 	 	 	 	 	 	 	 	 	 	1581504632	6.32	11.70
12/02/2020 10:50:33	120220	12022020	105033	193.43	12.541343	-57.187503	193.46	-0.590	-0.830	1.920	193.38	-2.30	2.70	 	 	 	 	 	 	 	 	 	 	 	 	 	 	 	 	 	 	1581504633	6.53	12.09
12/02/2020 10:50:34	120220	12022020	105034	193.18	12.541315	-57.187523	193.25	-1.060	-0.850	3.320	193.16	-2.30	4.00	 	 	 	 	 	 	 	 	 	 	 	 	 	 	 	 	 	 	1581504634	7.43	13.76
12/02/2020 10:50:35	120220	12022020	105035	193.15	12.541285	-57.187545	193.31	-0.940	-0.570	4.000	193.19	-1.90	4.40	 	 	 	 	 	 	 	 	 	 	 	 	 	 	 	 	 	 	1581504635	7.97	14.76
12/02/2020 10:50:36	120220	12022020	105036	193.63	12.541255	-57.187563	193.80	-0.580	0.130	3.720	193.76	-1.20	3.90	 	 	 	 	 	 	 	 	 	 	 	 	 	 	 	 	 	 	1581504636	7.57	14.02
12/02/2020 10:50:37	120220	12022020	105037	194.37	12.541227	-57.187578	194.52	-0.250	0.830	2.680	194.53	-0.50	2.80	 	 	 	 	 	 	 	 	 	 	 	 	 	 	 	 	 	 	1581504637	6.80	12.59
12/02/2020 10:50:38	120220	12022020	105038	195.19	12.541197	-57.187585	195.31	-0.020	1.070	1.330	195.34	-0.40	1.50	 	 	 	 	 	 	 	 	 	 	 	 	 	 	 	 	 	 	1581504638	6.49	12.02
12/02/2020 10:50:39	120220	12022020	105039	195.89	12.541167	-57.187590	195.96	0.220	0.700	0.080	195.99	-1.00	0.30	 	 	 	 	 	 	 	 	 	 	 	 	 	 	 	 	 	 	1581504639	6.75	12.50
12/02/2020 10:50:40	120220	12022020	105040	196.27	12.541133	-57.187595	196.29	0.540	-0.210	-0.600	196.31	-1.90	-0.20	 	 	 	 	 	 	 	 	 	 	 	 	 	 	 	 	 	 	1581504640	7.22	13.37
12/02/2020 10:50:41	120220	12022020	105041	196.45	12.541098	-57.187602	196.48	0.720	-1.040	-0.540	196.48	-2.60	0.00	 	 	 	 	 	 	 	 	 	 	 	 	 	 	 	 	 	 	1581504641	7.60	14.08
12/02/2020 10:50:42	120220	12022020	105042	196.57	12.541065	-57.187612	196.60	0.540	-1.140	0.040	196.59	-2.50	0.70	 	 	 	 	 	 	 	 	 	 	 	 	 	 	 	 	 	 	1581504642	7.35	13.61
12/02/2020 10:50:43	120220	12022020	105043	196.66	12.541037	-57.187625	196.73	0.160	-0.720	0.830	196.69	-2.10	1.40	 	 	 	 	 	 	 	 	 	 	 	 	 	 	 	 	 	 	1581504643	6.70	12.41
12/02/2020 10:50:44	120220	12022020	105044	196.80	12.541010	-57.187640	196.90	-0.100	-0.430	1.600	196.84	-1.90	2.20	 	 	 	 	 	 	 	 	 	 	 	 	 	 	 	 	 	 	1581504644	6.50	12.04
12/02/2020 10:50:45	120220	12022020	105045	196.89	12.540982	-57.187657	196.98	-0.120	-0.640	2.340	196.88	-2.20	2.90	 	 	 	 	 	 	 	 	 	 	 	 	 	 	 	 	 	 	1581504645	6.96	12.89
12/02/2020 10:50:46	120220	12022020	105046	196.85	12.540950	-57.187673	196.96	-0.130	-0.940	3.060	196.85	-2.40	3.60	 	 	 	 	 	 	 	 	 	 	 	 	 	 	 	 	 	 	1581504646	7.71	14.28
12/02/2020 10:50:47	120220	12022020	105047	197.04	12.540918	-57.187690	197.20	-0.390	-0.500	3.270	197.13	-1.70	3.60	 	 	 	 	 	 	 	 	 	 	 	 	 	 	 	 	 	 	1581504647	7.92	14.67
12/02/2020 10:50:48	120220	12022020	105048	197.62	12.540890	-57.187707	197.81	-0.740	0.640	2.760	197.76	-0.60	3.00	 	 	 	 	 	 	 	 	 	 	 	 	 	 	 	 	 	 	1581504648	6.96	12.89
12/02/2020 10:50:49	120220	12022020	105049	198.17	12.540865	-57.187720	198.44	-0.670	1.260	1.790	198.28	-0.30	1.90	 	 	 	 	 	 	 	 	 	 	 	 	 	 	 	 	 	 	1581504649	6.11	11.32
12/02/2020 10:50:50	120220	12022020	105050	198.72	12.540835	-57.187730	198.82	-0.000	0.700	0.790	198.77	-1.00	1.00	 	 	 	 	 	 	 	 	 	 	 	 	 	 	 	 	 	 	1581504650	6.66	12.33
12/02/2020 10:50:51	120220	12022020	105051	198.85	12.540800	-57.187738	198.91	0.740	-0.330	0.240	198.85	-2.00	0.60	 	 	 	 	 	 	 	 	 	 	 	 	 	 	 	 	 	 	1581504651	7.82	14.48
12/02/2020 10:50:52	120220	12022020	105052	198.85	12.540763	-57.187748	198.89	0.940	-0.860	0.190	198.84	-2.40	0.70	 	 	 	 	 	 	 	 	 	 	 	 	 	 	 	 	 	 	1581504652	8.05	14.91
12/02/2020 10:50:53	120220	12022020	105053	198.85	12.540732	-57.187760	198.90	0.570	-0.620	0.450	198.85	-2.00	1.00	 	 	 	 	 	 	 	 	 	 	 	 	 	 	 	 	 	 	1581504653	7.28	13.48
12/02/2020 10:50:54	120220	12022020	105054	198.82	12.540705	-57.187773	198.87	0.050	-0.160	0.900	198.80	-1.60	1.40	 	 	 	 	 	 	 	 	 	 	 	 	 	 	 	 	 	 	1581504654	6.51	12.06
12/02/2020 10:50:55	120220	12022020	105055	198.67	12.540678	-57.187788	198.72	-0.160	-0.190	1.470	198.62	-1.80	2.00	 	 	 	 	 	 	 	 	 	 	 	 	 	 	 	 	 	 	1581504655	6.51	12.06
12/02/2020 10:50:56	120220	12022020	105056	198.40	12.540648	-57.187805	198.46	0.000	-0.690	2.060	198.35	-2.30	2.60	 	 	 	 	 	 	 	 	 	 	 	 	 	 	 	 	 	 	1581504656	7.29	13.50
12/02/2020 10:50:57	120220	12022020	105057	198.17	12.540617	-57.187823	198.23	0.220	-1.030	2.540	198.13	-2.50	3.00	 	 	 	 	 	 	 	 	 	 	 	 	 	 	 	 	 	 	1581504657	7.86	14.56
12/02/2020 10:50:58	120220	12022020	105058	198.07	12.540585	-57.187842	198.15	0.150	-0.840	2.800	198.07	-2.20	3.20	 	 	 	 	 	 	 	 	 	 	 	 	 	 	 	 	 	 	1581504658	7.72	14.30
12/02/2020 10:50:59	120220	12022020	105059	198.07	12.540555	-57.187858	198.16	-0.250	-0.250	2.850	198.07	-1.60	3.20	 	 	 	 	 	 	 	 	 	 	 	 	 	 	 	 	 	 	1581504659	7.20	13.33
12/02/2020 10:51:00	120220	12022020	105100	198.11	12.540528	-57.187873	198.21	-0.690	0.340	2.700	198.13	-1.00	3.00	 	 	 	 	 	 	 	 	 	 	 	 	 	 	 	 	 	 	1581504660	6.91	12.80
12/02/2020 10:51:01	120220	12022020	105101	198.27	12.540500	-57.187890	198.44	-0.760	0.690	2.300	198.33	-0.80	2.50	1015.50	26.00	26.10	20.50	20.60	53.0	71.0	71.0	396.0	26.0	258.00	11.10	74.00	12.50	5339	8835.0	27.5	27.5	1581504661	7.01	12.98
12/02/2020 10:51:02	120220	12022020	105102	198.78	12.540470	-57.187905	198.89	-0.260	0.720	1.500	198.89	-0.80	1.60	 	 	 	 	 	 	 	 	 	 	 	 	 	 	 	 	 	 	1581504662	7.14	13.22
12/02/2020 10:51:03	120220	12022020	105103	199.24	12.540438	-57.187917	199.45	0.600	0.360	0.390	199.36	-1.30	0.50	 	 	 	 	 	 	 	 	 	 	 	 	 	 	 	 	 	 	1581504663	7.22	13.37
12/02/2020 10:51:04	120220	12022020	105104	199.91	12.540403	-57.187923	199.98	1.210	-0.370	-0.370	200.00	-2.00	-0.00	 	 	 	 	 	 	 	 	 	 	 	 	 	 	 	 	 	 	1581504664	7.59	14.06
12/02/2020 10:51:05	120220	12022020	105105	200.24	12.540368	-57.187930	200.28	1.100	-1.050	-0.130	200.26	-2.70	0.50	 	 	 	 	 	 	 	 	 	 	 	 	 	 	 	 	 	 	1581504665	7.78	14.41
12/02/2020 10:51:06	120220	12022020	105106	200.12	12.540335	-57.187942	200.12	0.330	-1.370	1.150	200.03	-2.90	1.90	 	 	 	 	 	 	 	 	 	 	 	 	 	 	 	 	 	 	1581504666	7.48	13.85
12/02/2020 10:51:07	120220	12022020	105107	199.51	12.540307	-57.187962	199.51	-0.620	-1.340	3.040	199.35	-2.80	3.80	 	 	 	 	 	 	 	 	 	 	 	 	 	 	 	 	 	 	1581504667	7.44	13.78
12/02/2020 10:51:08	120220	12022020	105108	198.74	12.540280	-57.187988	198.77	-1.220	-0.950	4.630	198.60	-2.30	5.20	 	 	 	 	 	 	 	 	 	 	 	 	 	 	 	 	 	 	1581504668	7.99	14.80
12/02/2020 10:51:09	120220	12022020	105109	198.18	12.540255	-57.188018	198.26	-1.180	-0.310	5.260	198.11	-1.60	5.60	 	 	 	 	 	 	 	 	 	 	 	 	 	 	 	 	 	 	1581504669	8.18	15.15
12/02/2020 10:51:10	120220	12022020	105110	197.96	12.540228	-57.188042	198.07	-0.580	0.320	4.640	197.95	-1.10	4.70	 	 	 	 	 	 	 	 	 	 	 	 	 	 	 	 	 	 	1581504670	7.71	14.28
12/02/2020 10:51:11	120220	12022020	105111	198.04	12.540198	-57.188058	198.17	0.220	0.690	3.030	198.10	-0.80	2.90	 	 	 	 	 	 	 	 	 	 	 	 	 	 	 	 	 	 	1581504671	7.26	13.45
12/02/2020 10:51:12	120220	12022020	105112	198.51	12.540165	-57.188065	198.66	0.720	0.830	0.940	198.67	-0.70	0.90	 	 	 	 	 	 	 	 	 	 	 	 	 	 	 	 	 	 	1581504672	7.33	13.58
12/02/2020 10:51:13	120220	12022020	105113	199.36	12.540130	-57.188067	199.49	0.730	0.720	-0.890	199.55	-0.90	-0.80	 	 	 	 	 	 	 	 	 	 	 	 	 	 	 	 	 	 	1581504673	7.43	13.76
12/02/2020 10:51:14	120220	12022020	105114	200.16	12.540097	-57.188072	200.20	0.520	0.160	-1.730	200.25	-1.60	-1.30	 	 	 	 	 	 	 	 	 	 	 	 	 	 	 	 	 	 	1581504674	7.26	13.45
12/02/2020 10:51:15	120220	12022020	105115	200.40	12.540063	-57.188080	200.38	0.370	-0.920	-1.120	200.36	-2.70	-0.40	 	 	 	 	 	 	 	 	 	 	 	 	 	 	 	 	 	 	1581504675	7.37	13.65
12/02/2020 10:51:16	120220	12022020	105116	199.99	12.540032	-57.188097	199.94	0.220	-1.820	0.780	199.86	-3.40	1.70	 	 	 	 	 	 	 	 	 	 	 	 	 	 	 	 	 	 	1581504676	7.90	14.63
12/02/2020 10:51:17	120220	12022020	105117	199.23	12.540002	-57.188122	199.22	-0.020	-1.930	2.930	199.08	-3.30	3.70	 	 	 	 	 	 	 	 	 	 	 	 	 	 	 	 	 	 	1581504677	8.22	15.22
12/02/2020 10:51:18	120220	12022020	105118	198.51	12.539975	-57.188148	198.56	-0.320	-1.220	4.430	198.40	-2.50	5.00	 	 	 	 	 	 	 	 	 	 	 	 	 	 	 	 	 	 	1581504678	8.03	14.87
12/02/2020 10:51:19	120220	12022020	105119	198.16	12.539950	-57.188173	198.27	-0.510	-0.040	4.830	198.15	-1.30	5.10	 	 	 	 	 	 	 	 	 	 	 	 	 	 	 	 	 	 	1581504679	7.43	13.76
12/02/2020 10:51:20	120220	12022020	105120	198.24	12.539923	-57.188190	198.39	-0.480	0.910	4.110	198.29	-0.50	4.20	 	 	 	 	 	 	 	 	 	 	 	 	 	 	 	 	 	 	1581504680	6.75	12.50
12/02/2020 10:51:21	120220	12022020	105121	198.41	12.539893	-57.188202	198.53	-0.240	0.930	2.920	198.43	-0.70	3.00	 	 	 	 	 	 	 	 	 	 	 	 	 	 	 	 	 	 	1581504681	6.81	12.61
12/02/2020 10:51:22	120220	12022020	105122	198.42	12.539860	-57.188213	198.49	0.090	0.180	1.860	198.41	-1.50	2.10	 	 	 	 	 	 	 	 	 	 	 	 	 	 	 	 	 	 	1581504682	7.71	14.28
12/02/2020 10:51:23	120220	12022020	105123	198.37	12.539823	-57.188223	198.43	0.300	-0.400	1.080	198.37	-1.90	1.30	 	 	 	 	 	 	 	 	 	 	 	 	 	 	 	 	 	 	1581504683	8.27	15.32
12/02/2020 10:51:24	120220	12022020	105124	198.49	12.539788	-57.188235	198.56	0.260	-0.280	0.520	198.54	-1.70	0.80	 	 	 	 	 	 	 	 	 	 	 	 	 	 	 	 	 	 	1581504684	7.79	14.43
12/02/2020 10:51:25	120220	12022020	105125	198.73	12.539758	-57.188247	198.79	0.090	0.040	0.170	198.77	-1.50	0.60	 	 	 	 	 	 	 	 	 	 	 	 	 	 	 	 	 	 	1581504685	6.85	12.69
12/02/2020 10:51:26	120220	12022020	105126	198.80	12.539730	-57.188260	198.83	0.050	-0.210	0.200	198.78	-1.90	0.70	 	 	 	 	 	 	 	 	 	 	 	 	 	 	 	 	 	 	1581504686	6.72	12.45
12/02/2020 10:51:27	120220	12022020	105127	198.62	12.539698	-57.188275	198.51	0.240	-0.890	0.740	198.54	-2.50	1.30	 	 	 	 	 	 	 	 	 	 	 	 	 	 	 	 	 	 	1581504687	7.48	13.85
12/02/2020 10:51:28	120220	12022020	105128	197.90	12.539665	-57.188292	197.90	0.340	-1.200	1.670	197.79	-2.60	2.30	 	 	 	 	 	 	 	 	 	 	 	 	 	 	 	 	 	 	1581504688	8.04	14.89
12/02/2020 10:51:29	120220	12022020	105129	197.41	12.539633	-57.188310	197.45	0.040	-0.610	2.350	197.36	-1.90	2.80	 	 	 	 	 	 	 	 	 	 	 	 	 	 	 	 	 	 	1581504689	7.78	14.41
12/02/2020 10:51:30	120220	12022020	105130	197.21	12.539607	-57.188330	197.28	-0.460	0.260	2.660	197.18	-1.10	3.10	 	 	 	 	 	 	 	 	 	 	 	 	 	 	 	 	 	 	1581504690	7.01	12.98
12/02/2020 10:51:31	120220	12022020	105131	197.02	12.539580	-57.188348	197.09	-0.570	0.550	2.700	196.98	-1.00	3.00	 	 	 	 	 	 	 	 	 	 	 	 	 	 	 	 	 	 	1581504691	6.89	12.76
12/02/2020 10:51:32	120220	12022020	105132	196.73	12.539550	-57.188365	196.78	-0.100	0.120	2.430	196.67	-1.50	2.70	 	 	 	 	 	 	 	 	 	 	 	 	 	 	 	 	 	 	1581504692	7.46	13.82
12/02/2020 10:51:33	120220	12022020	105133	196.48	12.539515	-57.188378	196.55	0.380	-0.480	2.110	196.44	-2.10	2.50	 	 	 	 	 	 	 	 	 	 	 	 	 	 	 	 	 	 	1581504693	8.08	14.96
12/02/2020 10:51:34	120220	12022020	105134	196.28	12.539480	-57.188392	196.34	0.320	-0.680	2.100	196.23	-2.10	2.50	 	 	 	 	 	 	 	 	 	 	 	 	 	 	 	 	 	 	1581504694	8.02	14.85
12/02/2020 10:51:35	120220	12022020	105135	195.99	12.539448	-57.188407	196.05	-0.150	-0.470	2.310	195.93	-1.90	2.80	 	 	 	 	 	 	 	 	 	 	 	 	 	 	 	 	 	 	1581504695	7.48	13.85
12/02/2020 10:51:36	120220	12022020	105136	195.70	12.539418	-57.188423	195.77	-0.520	-0.250	2.520	195.66	-1.70	2.90	 	 	 	 	 	 	 	 	 	 	 	 	 	 	 	 	 	 	1581504696	7.21	13.35
12/02/2020 10:51:37	120220	12022020	105137	195.54	12.539390	-57.188442	195.62	-0.390	-0.180	2.520	195.52	-1.60	2.90	 	 	 	 	 	 	 	 	 	 	 	 	 	 	 	 	 	 	1581504697	7.39	13.69
12/02/2020 10:51:38	120220	12022020	105138	195.50	12.539358	-57.188457	195.58	0.120	-0.090	2.280	195.50	-1.50	2.60	 	 	 	 	 	 	 	 	 	 	 	 	 	 	 	 	 	 	1581504698	7.48	13.85
12/02/2020 10:51:39	120220	12022020	105139	195.50	12.539327	-57.188470	195.58	0.530	-0.010	1.960	195.50	-1.50	2.30	 	 	 	 	 	 	 	 	 	 	 	 	 	 	 	 	 	 	1581504699	7.35	13.61
12/02/2020 10:51:40	120220	12022020	105140	195.46	12.539295	-57.188480	195.52	0.550	-0.060	1.870	195.44	-1.60	2.30	 	 	 	 	 	 	 	 	 	 	 	 	 	 	 	 	 	 	1581504700	7.33	13.58
12/02/2020 10:51:41	120220	12022020	105141	195.39	12.539262	-57.188493	195.44	0.280	-0.100	2.120	195.38	-1.60	2.60	 	 	 	 	 	 	 	 	 	 	 	 	 	 	 	 	 	 	1581504701	7.42	13.74
12/02/2020 10:51:42	120220	12022020	105142	195.40	12.539230	-57.188507	195.47	0.020	0.000	2.380	195.42	-1.50	2.80	 	 	 	 	 	 	 	 	 	 	 	 	 	 	 	 	 	 	1581504702	7.37	13.65
12/02/2020 10:51:43	120220	12022020	105143	195.42	12.539200	-57.188522	195.47	-0.080	-0.100	2.510	195.40	-1.70	2.90	 	 	 	 	 	 	 	 	 	 	 	 	 	 	 	 	 	 	1581504703	7.15	13.24
12/02/2020 10:51:44	120220	12022020	105144	195.23	12.539168	-57.188535	195.26	-0.140	-0.640	2.740	195.16	-2.30	3.20	 	 	 	 	 	 	 	 	 	 	 	 	 	 	 	 	 	 	1581504704	7.42	13.74
12/02/2020 10:51:45	120220	12022020	105145	194.87	12.539135	-57.188552	194.90	-0.330	-1.120	3.080	194.79	-2.60	3.50	 	 	 	 	 	 	 	 	 	 	 	 	 	 	 	 	 	 	1581504705	7.97	14.76
12/02/2020 10:51:46	120220	12022020	105146	194.56	12.539102	-57.188570	194.61	-0.590	-1.060	3.280	194.51	-2.50	3.70	 	 	 	 	 	 	 	 	 	 	 	 	 	 	 	 	 	 	1581504706	8.04	14.89
12/02/2020 10:51:47	120220	12022020	105147	194.38	12.539072	-57.188588	194.42	-0.590	-0.600	3.110	194.35	-2.00	3.40	 	 	 	 	 	 	 	 	 	 	 	 	 	 	 	 	 	 	1581504707	7.64	14.15
12/02/2020 10:51:48	120220	12022020	105148	194.29	12.539042	-57.188603	194.34	-0.100	-0.160	2.430	194.29	-1.60	2.60	 	 	 	 	 	 	 	 	 	 	 	 	 	 	 	 	 	 	1581504708	7.32	13.56
12/02/2020 10:51:49	120220	12022020	105149	194.43	12.539008	-57.188613	194.50	0.540	0.210	1.460	194.50	-1.20	1.60	 	 	 	 	 	 	 	 	 	 	 	 	 	 	 	 	 	 	1581504709	7.34	13.59
12/02/2020 10:51:50	120220	12022020	105150	194.84	12.538975	-57.188620	194.91	0.720	0.510	0.640	194.94	-0.90	0.90	 	 	 	 	 	 	 	 	 	 	 	 	 	 	 	 	 	 	1581504710	7.40	13.70
12/02/2020 10:51:51	120220	12022020	105151	195.21	12.538942	-57.188625	195.31	0.330	0.470	0.460	195.27	-1.10	1.00	 	 	 	 	 	 	 	 	 	 	 	 	 	 	 	 	 	 	1581504711	7.29	13.50
12/02/2020 10:51:52	120220	12022020	105152	195.28	12.538908	-57.188637	195.28	-0.200	-0.070	1.170	195.22	-1.70	1.80	 	 	 	 	 	 	 	 	 	 	 	 	 	 	 	 	 	 	1581504712	7.45	13.80
12/02/2020 10:51:53	120220	12022020	105153	194.98	12.538875	-57.188655	194.92	-0.450	-0.580	2.330	194.90	-2.10	3.00	 	 	 	 	 	 	 	 	 	 	 	 	 	 	 	 	 	 	1581504713	8.13	15.06
12/02/2020 10:51:54	120220	12022020	105154	194.74	12.538843	-57.188677	194.83	-0.420	-0.400	3.120	194.77	-1.80	3.60	 	 	 	 	 	 	 	 	 	 	 	 	 	 	 	 	 	 	1581504714	8.23	15.24
12/02/2020 10:51:55	120220	12022020	105155	195.05	12.538815	-57.188695	195.17	-0.260	0.110	2.980	195.13	-1.30	3.20	 	 	 	 	 	 	 	 	 	 	 	 	 	 	 	 	 	 	1581504715	7.32	13.56
12/02/2020 10:51:56	120220	12022020	105156	195.40	12.538787	-57.188708	195.47	-0.020	-0.020	2.190	195.43	-1.70	2.40	 	 	 	 	 	 	 	 	 	 	 	 	 	 	 	 	 	 	1581504716	6.73	12.46
12/02/2020 10:51:57	120220	12022020	105157	195.44	12.538753	-57.188718	195.47	0.300	-0.940	1.460	195.43	-2.60	1.80	 	 	 	 	 	 	 	 	 	 	 	 	 	 	 	 	 	 	1581504717	7.45	13.80
12/02/2020 10:51:58	120220	12022020	105158	195.35	12.538717	-57.188728	195.38	0.410	-1.620	1.200	195.32	-3.10	1.60	 	 	 	 	 	 	 	 	 	 	 	 	 	 	 	 	 	 	1581504718	8.31	15.39
12/02/2020 10:51:59	120220	12022020	105159	195.17	12.538680	-57.188740	195.19	0.140	-1.330	1.370	195.11	-2.60	1.90	 	 	 	 	 	 	 	 	 	 	 	 	 	 	 	 	 	 	1581504719	8.00	14.82
12/02/2020 10:52:00	120220	12022020	105200	194.76	12.538650	-57.188755	194.75	-0.240	-0.500	1.900	194.64	-1.80	2.50	 	 	 	 	 	 	 	 	 	 	 	 	 	 	 	 	 	 	1581504720	7.24	13.41
12/02/2020 10:52:01	120220	12022020	105201	194.11	12.538622	-57.188772	194.10	-0.360	0.120	2.620	193.99	-1.30	3.10	1015.60	26.10	26.20	20.50	20.60	61.0	71.0	71.0	398.0	26.0	254.00	11.10	74.00	12.70	5446	9512.0	27.5	27.5	1581504721	7.18	13.30
12/02/2020 10:52:02	120220	12022020	105202	193.72	12.538590	-57.188788	193.78	-0.240	0.540	2.960	193.71	-0.90	3.30	 	 	 	 	 	 	 	 	 	 	 	 	 	 	 	 	 	 	1581504722	7.77	14.39
12/02/2020 10:52:03	120220	12022020	105203	193.90	12.538557	-57.188805	194.04	-0.120	0.960	2.680	194.01	-0.40	2.90	 	 	 	 	 	 	 	 	 	 	 	 	 	 	 	 	 	 	1581504723	7.85	14.54
12/02/2020 10:52:04	120220	12022020	105204	194.56	12.538525	-57.188820	194.70	-0.100	1.260	1.980	194.71	-0.20	2.20	 	 	 	 	 	 	 	 	 	 	 	 	 	 	 	 	 	 	1581504724	7.41	13.72
12/02/2020 10:52:05	120220	12022020	105205	195.33	12.538493	-57.188830	195.45	-0.000	0.960	1.130	195.48	-0.70	1.40	 	 	 	 	 	 	 	 	 	 	 	 	 	 	 	 	 	 	1581504725	7.11	13.17
12/02/2020 10:52:06	120220	12022020	105206	195.98	12.538460	-57.188838	196.06	0.230	-0.020	0.630	196.06	-1.80	1.00	 	 	 	 	 	 	 	 	 	 	 	 	 	 	 	 	 	 	1581504726	7.38	13.67
12/02/2020 10:52:07	120220	12022020	105207	196.20	12.538425	-57.188850	196.22	0.400	-1.270	0.920	196.17	-3.00	1.50	 	 	 	 	 	 	 	 	 	 	 	 	 	 	 	 	 	 	1581504727	7.77	14.39
12/02/2020 10:52:08	120220	12022020	105208	195.78	12.538392	-57.188863	195.75	0.390	-2.220	1.730	195.62	-3.80	2.40	 	 	 	 	 	 	 	 	 	 	 	 	 	 	 	 	 	 	1581504728	7.96	14.74
12/02/2020 10:52:09	120220	12022020	105209	194.90	12.538358	-57.188882	194.87	0.180	-2.370	2.780	194.70	-3.70	3.40	 	 	 	 	 	 	 	 	 	 	 	 	 	 	 	 	 	 	1581504729	7.95	14.72
12/02/2020 10:52:10	120220	12022020	105210	193.95	12.538328	-57.188900	193.95	-0.120	-1.670	3.640	193.79	-2.90	4.10	 	 	 	 	 	 	 	 	 	 	 	 	 	 	 	 	 	 	1581504730	7.70	14.26
12/02/2020 10:52:11	120220	12022020	105211	193.27	12.538298	-57.188918	193.30	-0.370	-0.590	3.950	193.17	-1.80	4.40	 	 	 	 	 	 	 	 	 	 	 	 	 	 	 	 	 	 	1581504731	7.41	13.72
12/02/2020 10:52:12	120220	12022020	105212	192.91	12.538268	-57.188933	192.97	-0.470	0.380	3.840	192.88	-0.90	4.10	 	 	 	 	 	 	 	 	 	 	 	 	 	 	 	 	 	 	1581504732	7.38	13.67
12/02/2020 10:52:13	120220	12022020	105213	192.90	12.538235	-57.188948	193.00	-0.490	1.070	3.270	192.95	-0.30	3.50	 	 	 	 	 	 	 	 	 	 	 	 	 	 	 	 	 	 	1581504733	7.59	14.06
12/02/2020 10:52:14	120220	12022020	105214	193.38	12.538202	-57.188960	193.52	-0.490	1.520	2.270	193.54	0.10	2.40	 	 	 	 	 	 	 	 	 	 	 	 	 	 	 	 	 	 	1581504734	7.67	14.20
12/02/2020 10:52:15	120220	12022020	105215	194.30	12.538168	-57.188970	194.46	-0.450	1.630	1.110	194.51	0.10	1.30	 	 	 	 	 	 	 	 	 	 	 	 	 	 	 	 	 	 	1581504735	7.47	13.83
12/02/2020 10:52:16	120220	12022020	105216	195.27	12.538137	-57.188980	195.38	-0.180	1.140	0.250	195.42	-0.60	0.50	 	 	 	 	 	 	 	 	 	 	 	 	 	 	 	 	 	 	1581504736	7.23	13.39
12/02/2020 10:52:17	120220	12022020	105217	195.76	12.538103	-57.188990	195.79	0.420	-0.090	-0.000	195.78	-1.90	0.50	 	 	 	 	 	 	 	 	 	 	 	 	 	 	 	 	 	 	1581504737	7.42	13.74
12/02/2020 10:52:18	120220	12022020	105218	195.61	12.538068	-57.189002	195.58	1.080	-1.560	0.420	195.53	-3.30	1.00	 	 	 	 	 	 	 	 	 	 	 	 	 	 	 	 	 	 	1581504738	7.98	14.78
12/02/2020 10:52:19	120220	12022020	105219	195.11	12.538032	-57.189013	195.11	1.200	-2.290	1.370	195.02	-3.80	2.00	 	 	 	 	 	 	 	 	 	 	 	 	 	 	 	 	 	 	1581504739	8.20	15.19
12/02/2020 10:52:20	120220	12022020	105220	194.70	12.537998	-57.189027	194.75	0.520	-1.850	2.550	194.65	-3.10	3.20	 	 	 	 	 	 	 	 	 	 	 	 	 	 	 	 	 	 	1581504740	7.58	14.04
12/02/2020 10:52:21	120220	12022020	105221	194.46	12.537972	-57.189043	194.54	-0.550	-0.890	3.620	194.43	-2.20	4.20	 	 	 	 	 	 	 	 	 	 	 	 	 	 	 	 	 	 	1581504741	6.89	12.76
12/02/2020 10:52:22	120220	12022020	105222	194.24	12.537945	-57.189065	194.32	-1.210	-0.260	4.240	194.19	-1.70	4.70	 	 	 	 	 	 	 	 	 	 	 	 	 	 	 	 	 	 	1581504742	7.13	13.20
12/02/2020 10:52:23	120220	12022020	105223	193.96	12.537915	-57.189087	194.04	-0.950	-0.140	4.240	193.91	-1.60	4.50	 	 	 	 	 	 	 	 	 	 	 	 	 	 	 	 	 	 	1581504743	7.91	14.65
12/02/2020 10:52:24	120220	12022020	105224	193.78	12.537882	-57.189105	193.87	-0.070	-0.080	3.520	193.78	-1.50	3.70	 	 	 	 	 	 	 	 	 	 	 	 	 	 	 	 	 	 	1581504744	8.35	15.46
12/02/2020 10:52:25	120220	12022020	105225	193.95	12.537845	-57.189117	194.05	0.540	0.310	2.420	194.04	-1.00	2.60	 	 	 	 	 	 	 	 	 	 	 	 	 	 	 	 	 	 	1581504745	8.14	15.08
12/02/2020 10:52:26	120220	12022020	105226	194.50	12.537810	-57.189122	194.61	0.350	0.870	1.240	194.64	-0.50	1.40	 	 	 	 	 	 	 	 	 	 	 	 	 	 	 	 	 	 	1581504746	7.57	14.02
12/02/2020 10:52:27	120220	12022020	105227	195.18	12.537778	-57.189128	195.27	-0.300	1.170	0.490	195.31	-0.30	0.80	 	 	 	 	 	 	 	 	 	 	 	 	 	 	 	 	 	 	1581504747	7.05	13.06
12/02/2020 10:52:28	120220	12022020	105228	195.70	12.537747	-57.189138	195.75	-0.620	0.830	0.320	195.77	-0.80	0.80	 	 	 	 	 	 	 	 	 	 	 	 	 	 	 	 	 	 	1581504748	6.98	12.93
12/02/2020 10:52:29	120220	12022020	105229	195.89	12.537715	-57.189153	195.92	-0.190	-0.130	0.530	195.90	-1.90	1.00	 	 	 	 	 	 	 	 	 	 	 	 	 	 	 	 	 	 	1581504749	7.50	13.89
12/02/2020 10:52:30	120220	12022020	105230	195.88	12.537682	-57.189168	195.87	0.570	-1.170	0.960	195.85	-2.80	1.50	 	 	 	 	 	 	 	 	 	 	 	 	 	 	 	 	 	 	1581504750	8.04	14.89
12/02/2020 10:52:31	120220	12022020	105231	195.69	12.537647	-57.189183	195.71	0.970	-1.650	1.490	195.64	-3.10	2.00	 	 	 	 	 	 	 	 	 	 	 	 	 	 	 	 	 	 	1581504751	8.04	14.89
12/02/2020 10:52:32	120220	12022020	105232	195.35	12.537613	-57.189197	195.37	0.720	-1.420	2.060	195.28	-2.80	2.60	 	 	 	 	 	 	 	 	 	 	 	 	 	 	 	 	 	 	1581504752	7.52	13.93
12/02/2020 10:52:33	120220	12022020	105233	194.96	12.537583	-57.189210	195.00	-0.020	-0.840	2.620	194.89	-2.20	3.10	 	 	 	 	 	 	 	 	 	 	 	 	 	 	 	 	 	 	1581504753	7.12	13.19
12/02/2020 10:52:34	120220	12022020	105234	194.70	12.537553	-57.189225	194.77	-0.710	-0.280	2.920	194.67	-1.60	3.30	 	 	 	 	 	 	 	 	 	 	 	 	 	 	 	 	 	 	1581504754	7.20	13.33
12/02/2020 10:52:35	120220	12022020	105235	194.55	12.537523	-57.189243	194.62	-0.870	0.050	2.830	194.51	-1.40	3.20	 	 	 	 	 	 	 	 	 	 	 	 	 	 	 	 	 	 	1581504755	7.54	13.96
12/02/2020 10:52:36	120220	12022020	105236	194.37	12.537492	-57.189260	194.43	-0.410	0.120	2.390	194.34	-1.40	2.70	 	 	 	 	 	 	 	 	 	 	 	 	 	 	 	 	 	 	1581504756	7.84	14.52
12/02/2020 10:52:37	120220	12022020	105237	194.29	12.537457	-57.189273	194.34	0.230	0.110	1.740	194.29	-1.40	2.00	 	 	 	 	 	 	 	 	 	 	 	 	 	 	 	 	 	 	1581504757	8.01	14.83
12/02/2020 10:52:38	120220	12022020	105238	194.38	12.537422	-57.189283	194.43	0.500	0.220	1.230	194.41	-1.20	1.60	 	 	 	 	 	 	 	 	 	 	 	 	 	 	 	 	 	 	1581504758	7.93	14.69
12/02/2020 10:52:39	120220	12022020	105239	194.53	12.537387	-57.189293	194.58	0.210	0.460	1.100	194.55	-1.00	1.60	 	 	 	 	 	 	 	 	 	 	 	 	 	 	 	 	 	 	1581504759	7.57	14.02
12/02/2020 10:52:40	120220	12022020	105240	194.60	12.537355	-57.189305	194.64	-0.250	0.540	1.410	194.60	-1.00	1.90	 	 	 	 	 	 	 	 	 	 	 	 	 	 	 	 	 	 	1581504760	7.21	13.35
12/02/2020 10:52:41	120220	12022020	105241	194.60	12.537325	-57.189322	194.64	-0.310	0.310	1.710	194.61	-1.30	2.10	 	 	 	 	 	 	 	 	 	 	 	 	 	 	 	 	 	 	1581504761	7.40	13.70
12/02/2020 10:52:42	120220	12022020	105242	194.70	12.537293	-57.189338	194.75	0.170	-0.090	1.650	194.73	-1.70	2.00	 	 	 	 	 	 	 	 	 	 	 	 	 	 	 	 	 	 	1581504762	7.58	14.04
12/02/2020 10:52:43	120220	12022020	105243	194.81	12.537262	-57.189352	194.89	0.720	-0.730	1.460	194.84	-2.40	1.80	 	 	 	 	 	 	 	 	 	 	 	 	 	 	 	 	 	 	1581504763	7.53	13.95
12/02/2020 10:52:44	120220	12022020	105244	194.95	12.537227	-57.189362	195.00	0.790	-1.380	1.440	194.95	-3.00	1.90	 	 	 	 	 	 	 	 	 	 	 	 	 	 	 	 	 	 	1581504764	7.75	14.35
12/02/2020 10:52:45	120220	12022020	105245	194.80	12.537192	-57.189373	194.80	0.350	-1.720	1.830	194.72	-3.20	2.40	 	 	 	 	 	 	 	 	 	 	 	 	 	 	 	 	 	 	1581504765	7.82	14.48
12/02/2020 10:52:46	120220	12022020	105246	194.28	12.537158	-57.189388	194.28	-0.200	-1.640	2.620	194.16	-3.00	3.20	 	 	 	 	 	 	 	 	 	 	 	 	 	 	 	 	 	 	1581504766	7.82	14.48
12/02/2020 10:52:47	120220	12022020	105247	193.65	12.537127	-57.189405	193.66	-0.510	-1.110	3.370	193.52	-2.40	3.90	 	 	 	 	 	 	 	 	 	 	 	 	 	 	 	 	 	 	1581504767	7.91	14.65
12/02/2020 10:52:48	120220	12022020	105248	193.01	12.537095	-57.189423	193.03	-0.570	-0.310	3.760	192.89	-1.60	4.20	 	 	 	 	 	 	 	 	 	 	 	 	 	 	 	 	 	 	1581504768	7.85	14.54
12/02/2020 10:52:49	120220	12022020	105249	192.48	12.537062	-57.189440	192.52	-0.490	0.530	3.740	192.40	-0.80	4.10	 	 	 	 	 	 	 	 	 	 	 	 	 	 	 	 	 	 	1581504769	7.77	14.39
12/02/2020 10:52:50	120220	12022020	105250	192.26	12.537030	-57.189455	192.34	-0.290	1.230	3.390	192.27	-0.10	3.70	 	 	 	 	 	 	 	 	 	 	 	 	 	 	 	 	 	 	1581504770	7.74	14.33
12/02/2020 10:52:51	120220	12022020	105251	192.55	12.536997	-57.189468	192.67	0.020	1.670	2.650	192.68	0.20	2.80	 	 	 	 	 	 	 	 	 	 	 	 	 	 	 	 	 	 	1581504771	7.56	14.00
12/02/2020 10:52:52	120220	12022020	105252	193.34	12.536963	-57.189477	193.47	0.330	1.580	1.700	193.53	-0.10	1.90	 	 	 	 	 	 	 	 	 	 	 	 	 	 	 	 	 	 	1581504772	7.33	13.58
12/02/2020 10:52:53	120220	12022020	105253	194.25	12.536930	-57.189483	194.34	0.490	0.770	1.040	194.40	-1.00	1.40	 	 	 	 	 	 	 	 	 	 	 	 	 	 	 	 	 	 	1581504773	7.35	13.61
12/02/2020 10:52:54	120220	12022020	105254	194.84	12.536895	-57.189492	194.87	0.550	-0.640	0.980	194.89	-2.50	1.50	 	 	 	 	 	 	 	 	 	 	 	 	 	 	 	 	 	 	1581504774	7.59	14.06
12/02/2020 10:52:55	120220	12022020	105255	194.85	12.536860	-57.189505	194.83	0.660	-2.170	1.510	194.79	-3.90	2.10	 	 	 	 	 	 	 	 	 	 	 	 	 	 	 	 	 	 	1581504775	8.03	14.87
12/02/2020 10:52:56	120220	12022020	105256	194.42	12.536825	-57.189520	194.38	0.740	-2.980	2.280	194.32	-4.50	2.90	 	 	 	 	 	 	 	 	 	 	 	 	 	 	 	 	 	 	1581504776	8.29	15.35
12/02/2020 10:52:57	120220	12022020	105257	193.88	12.536792	-57.189535	193.86	0.490	-2.550	2.990	193.77	-3.80	3.50	 	 	 	 	 	 	 	 	 	 	 	 	 	 	 	 	 	 	1581504777	7.88	14.59
12/02/2020 10:52:58	120220	12022020	105258	193.35	12.536762	-57.189552	193.36	-0.050	-1.370	3.370	193.25	-2.60	3.80	 	 	 	 	 	 	 	 	 	 	 	 	 	 	 	 	 	 	1581504778	7.19	13.32
12/02/2020 10:52:59	120220	12022020	105259	192.91	12.536732	-57.189565	192.93	-0.550	-0.270	3.330	192.84	-1.50	3.70	 	 	 	 	 	 	 	 	 	 	 	 	 	 	 	 	 	 	1581504779	7.09	13.13
12/02/2020 10:53:00	120220	12022020	105300	192.68	12.536700	-57.189578	192.74	-0.780	0.610	2.950	192.70	-0.70	3.20	 	 	 	 	 	 	 	 	 	 	 	 	 	 	 	 	 	 	1581504780	7.60	14.08
12/02/2020 10:53:01	120220	12022020	105301	192.98	12.536665	-57.189590	193.08	-0.830	1.450	2.230	193.10	0.10	2.40	1015.60	26.10	26.20	20.60	20.70	66.0	71.0	71.0	402.0	26.0	257.00	10.10	72.00	11.60	5529	9346.0	27.4	27.4	1581504781	7.85	14.54
12/02/2020 10:53:02	120220	12022020	105302	193.67	12.536630	-57.189600	193.77	-0.760	1.830	1.290	193.82	0.30	1.50	 	 	 	 	 	 	 	 	 	 	 	 	 	 	 	 	 	 	1581504782	7.58	14.04
12/02/2020 10:53:03	120220	12022020	105303	194.33	12.536597	-57.189608	194.39	-0.540	1.350	0.750	194.44	-0.40	1.20	 	 	 	 	 	 	 	 	 	 	 	 	 	 	 	 	 	 	1581504783	7.71	14.28
12/02/2020 10:53:04	120220	12022020	105304	194.77	12.536560	-57.189620	194.81	-0.090	0.370	0.850	194.83	-1.40	1.40	 	 	 	 	 	 	 	 	 	 	 	 	 	 	 	 	 	 	1581504784	8.17	15.13
12/02/2020 10:53:05	120220	12022020	105305	194.94	12.536523	-57.189633	194.99	0.420	-0.600	1.300	194.96	-2.30	1.80	 	 	 	 	 	 	 	 	 	 	 	 	 	 	 	 	 	 	1581504785	8.26	15.30
12/02/2020 10:53:06	120220	12022020	105306	194.88	12.536490	-57.189650	194.89	0.800	-1.240	1.830	194.83	-2.80	2.40	 	 	 	 	 	 	 	 	 	 	 	 	 	 	 	 	 	 	1581504786	7.99	14.80
12/02/2020 10:53:07	120220	12022020	105307	194.56	12.536458	-57.189665	194.56	0.960	-1.420	2.280	194.48	-2.90	2.80	 	 	 	 	 	 	 	 	 	 	 	 	 	 	 	 	 	 	1581504787	7.64	14.15
12/02/2020 10:53:08	120220	12022020	105308	194.18	12.536427	-57.189678	194.21	0.770	-1.090	2.490	194.12	-2.50	2.90	 	 	 	 	 	 	 	 	 	 	 	 	 	 	 	 	 	 	1581504788	7.30	13.52
12/02/2020 10:53:09	120220	12022020	105309	194.00	12.536397	-57.189690	194.05	0.310	-0.540	2.280	194.00	-1.90	2.60	 	 	 	 	 	 	 	 	 	 	 	 	 	 	 	 	 	 	1581504789	7.00	12.96
12/02/2020 10:53:10	120220	12022020	105310	194.08	12.536365	-57.189702	194.14	-0.150	-0.140	1.770	194.11	-1.60	2.10	 	 	 	 	 	 	 	 	 	 	 	 	 	 	 	 	 	 	1581504790	6.99	12.95
12/02/2020 10:53:11	120220	12022020	105311	194.30	12.536333	-57.189712	194.35	-0.360	-0.080	1.310	194.35	-1.60	1.70	 	 	 	 	 	 	 	 	 	 	 	 	 	 	 	 	 	 	1581504791	7.37	13.65
12/02/2020 10:53:12	120220	12022020	105312	194.62	12.536298	-57.189723	194.67	-0.330	-0.210	1.020	194.70	-1.70	1.40	 	 	 	 	 	 	 	 	 	 	 	 	 	 	 	 	 	 	1581504792	7.84	14.52
12/02/2020 10:53:13	120220	12022020	105313	194.95	12.536262	-57.189735	195.00	-0.230	-0.380	1.080	195.00	-1.90	1.60	 	 	 	 	 	 	 	 	 	 	 	 	 	 	 	 	 	 	1581504793	8.09	14.98
12/02/2020 10:53:14	120220	12022020	105314	195.10	12.536227	-57.189748	195.13	-0.200	-0.450	1.370	195.10	-1.90	1.90	 	 	 	 	 	 	 	 	 	 	 	 	 	 	 	 	 	 	1581504794	8.11	15.02
12/02/2020 10:53:15	120220	12022020	105315	195.04	12.536192	-57.189762	195.08	-0.310	-0.380	1.760	195.02	-1.80	2.30	 	 	 	 	 	 	 	 	 	 	 	 	 	 	 	 	 	 	1581504795	8.03	14.87
12/02/2020 10:53:16	120220	12022020	105316	194.88	12.536158	-57.189778	194.90	-0.530	-0.160	2.370	194.82	-1.60	2.90	 	 	 	 	 	 	 	 	 	 	 	 	 	 	 	 	 	 	1581504796	7.92	14.67
12/02/2020 10:53:17	120220	12022020	105317	194.66	12.536127	-57.189795	194.63	-0.630	0.090	2.890	194.60	-1.30	3.40	 	 	 	 	 	 	 	 	 	 	 	 	 	 	 	 	 	 	1581504797	7.86	14.56
12/02/2020 10:53:18	120220	12022020	105318	194.38	12.536095	-57.189813	194.44	-0.420	0.340	2.940	194.36	-1.10	3.30	 	 	 	 	 	 	 	 	 	 	 	 	 	 	 	 	 	 	1581504798	7.84	14.52
12/02/2020 10:53:19	120220	12022020	105319	194.39	12.536062	-57.189827	194.50	-0.020	0.460	2.500	194.41	-1.10	2.80	 	 	 	 	 	 	 	 	 	 	 	 	 	 	 	 	 	 	1581504799	7.65	14.17
12/02/2020 10:53:20	120220	12022020	105320	194.61	12.536028	-57.189838	194.68	0.370	0.230	1.930	194.64	-1.40	2.20	 	 	 	 	 	 	 	 	 	 	 	 	 	 	 	 	 	 	1581504800	7.60	14.08
12/02/2020 10:53:21	120220	12022020	105321	194.72	12.535993	-57.189850	194.78	0.650	-0.200	1.480	194.74	-1.80	1.80	 	 	 	 	 	 	 	 	 	 	 	 	 	 	 	 	 	 	1581504801	7.77	14.39
12/02/2020 10:53:22	120220	12022020	105322	194.93	12.535958	-57.189860	195.01	0.760	-0.410	1.030	194.99	-1.90	1.40	 	 	 	 	 	 	 	 	 	 	 	 	 	 	 	 	 	 	1581504802	7.83	14.50
12/02/2020 10:53:23	120220	12022020	105323	195.33	12.535925	-57.189868	195.41	0.700	-0.340	0.640	195.41	-1.80	1.00	 	 	 	 	 	 	 	 	 	 	 	 	 	 	 	 	 	 	1581504803	7.46	13.82
12/02/2020 10:53:24	120220	12022020	105324	195.60	12.535893	-57.189878	195.63	0.600	-0.470	0.600	195.60	-2.10	1.10	 	 	 	 	 	 	 	 	 	 	 	 	 	 	 	 	 	 	1581504804	7.13	13.20
12/02/2020 10:53:25	120220	12022020	105325	195.40	12.535860	-57.189888	195.40	0.430	-1.070	1.180	195.32	-2.70	1.80	 	 	 	 	 	 	 	 	 	 	 	 	 	 	 	 	 	 	1581504805	7.55	13.98
12/02/2020 10:53:26	120220	12022020	105326	194.94	12.535823	-57.189902	194.97	-0.030	-1.510	2.190	194.87	-3.00	2.90	 	 	 	 	 	 	 	 	 	 	 	 	 	 	 	 	 	 	1581504806	8.30	15.37
12/02/2020 10:53:27	120220	12022020	105327	194.69	12.535788	-57.189920	194.78	-0.760	-1.280	3.180	194.68	-2.60	3.80	 	 	 	 	 	 	 	 	 	 	 	 	 	 	 	 	 	 	1581504807	8.48	15.70
12/02/2020 10:53:28	120220	12022020	105328	194.72	12.535757	-57.189942	194.84	-1.370	-0.510	3.810	194.74	-1.80	4.30	 	 	 	 	 	 	 	 	 	 	 	 	 	 	 	 	 	 	1581504808	8.23	15.24
12/02/2020 10:53:29	120220	12022020	105329	194.77	12.535727	-57.189965	194.86	-1.370	0.210	3.980	194.75	-1.10	4.40	 	 	 	 	 	 	 	 	 	 	 	 	 	 	 	 	 	 	1581504809	8.00	14.82
12/02/2020 10:53:30	120220	12022020	105330	194.62	12.535695	-57.189985	194.69	-0.630	0.510	3.700	194.59	-0.90	4.00	 	 	 	 	 	 	 	 	 	 	 	 	 	 	 	 	 	 	1581504810	8.02	14.85
12/02/2020 10:53:31	120220	12022020	105331	194.59	12.535660	-57.190000	194.69	0.310	0.690	2.830	194.62	-0.70	3.00	 	 	 	 	 	 	 	 	 	 	 	 	 	 	 	 	 	 	1581504811	8.20	15.19
12/02/2020 10:53:32	120220	12022020	105332	194.93	12.535625	-57.190008	195.05	0.830	0.840	1.590	195.04	-0.60	1.70	 	 	 	 	 	 	 	 	 	 	 	 	 	 	 	 	 	 	1581504812	7.96	14.74
12/02/2020 10:53:33	120220	12022020	105333	195.43	12.535588	-57.190012	195.69	0.790	0.550	0.440	195.57	-1.10	0.70	 	 	 	 	 	 	 	 	 	 	 	 	 	 	 	 	 	 	1581504813	7.75	14.35
12/02/2020 10:53:34	120220	12022020	105334	196.21	12.535552	-57.190017	196.29	0.490	-0.280	-0.020	196.30	-2.00	0.50	 	 	 	 	 	 	 	 	 	 	 	 	 	 	 	 	 	 	1581504814	7.93	14.69
12/02/2020 10:53:35	120220	12022020	105335	196.54	12.535515	-57.190027	196.59	0.220	-1.140	0.540	196.55	-2.70	1.20	 	 	 	 	 	 	 	 	 	 	 	 	 	 	 	 	 	 	1581504815	8.19	15.17
12/02/2020 10:53:36	120220	12022020	105336	196.46	12.535480	-57.190043	196.49	0.040	-1.420	1.680	196.39	-2.80	2.40	 	 	 	 	 	 	 	 	 	 	 	 	 	 	 	 	 	 	1581504816	8.21	15.20
12/02/2020 10:53:37	120220	12022020	105337	196.00	12.535450	-57.190063	196.02	-0.020	-1.100	2.830	195.87	-2.40	3.50	 	 	 	 	 	 	 	 	 	 	 	 	 	 	 	 	 	 	1581504817	7.93	14.69
12/02/2020 10:53:38	120220	12022020	105338	195.32	12.535420	-57.190085	195.37	0.050	-0.600	3.640	195.20	-2.00	4.20	 	 	 	 	 	 	 	 	 	 	 	 	 	 	 	 	 	 	1581504818	7.70	14.26
12/02/2020 10:53:39	120220	12022020	105339	194.79	12.535388	-57.190103	194.87	0.160	-0.230	3.790	194.72	-1.60	4.10	 	 	 	 	 	 	 	 	 	 	 	 	 	 	 	 	 	 	1581504819	7.74	14.33
12/02/2020 10:53:40	120220	12022020	105340	194.64	12.535355	-57.190117	194.76	0.090	-0.040	3.280	194.66	-1.50	3.50	 	 	 	 	 	 	 	 	 	 	 	 	 	 	 	 	 	 	1581504820	7.90	14.63
12/02/2020 10:53:41	120220	12022020	105341	194.95	12.535320	-57.190128	195.11	-0.280	0.120	2.480	195.05	-1.30	2.70	 	 	 	 	 	 	 	 	 	 	 	 	 	 	 	 	 	 	1581504821	8.00	14.82
12/02/2020 10:53:42	120220	12022020	105342	195.50	12.535285	-57.190140	195.64	-0.710	0.300	1.760	195.61	-1.10	2.10	 	 	 	 	 	 	 	 	 	 	 	 	 	 	 	 	 	 	1581504822	7.81	14.46
12/02/2020 10:53:43	120220	12022020	105343	195.99	12.535252	-57.190153	196.10	-0.760	0.280	1.160	196.08	-1.20	1.40	 	 	 	 	 	 	 	 	 	 	 	 	 	 	 	 	 	 	1581504823	7.65	14.17
12/02/2020 10:53:44	120220	12022020	105344	196.37	12.535218	-57.190167	196.45	-0.220	-0.060	0.530	196.41	-1.60	0.90	 	 	 	 	 	 	 	 	 	 	 	 	 	 	 	 	 	 	1581504824	7.77	14.39
12/02/2020 10:53:45	120220	12022020	105345	196.45	12.535183	-57.190178	196.49	0.540	-0.600	0.320	196.43	-2.20	0.80	 	 	 	 	 	 	 	 	 	 	 	 	 	 	 	 	 	 	1581504825	8.06	14.93
12/02/2020 10:53:46	120220	12022020	105346	196.27	12.535147	-57.190192	196.31	0.970	-0.880	0.510	196.24	-2.30	1.00	 	 	 	 	 	 	 	 	 	 	 	 	 	 	 	 	 	 	1581504826	8.28	15.33
12/02/2020 10:53:47	120220	12022020	105347	196.21	12.535112	-57.190203	196.27	0.730	-0.530	0.790	196.21	-1.90	1.30	 	 	 	 	 	 	 	 	 	 	 	 	 	 	 	 	 	 	1581504827	8.01	14.83
12/02/2020 10:53:48	120220	12022020	105348	196.16	12.535078	-57.190215	196.21	0.100	-0.040	1.360	196.13	-1.40	2.00	 	 	 	 	 	 	 	 	 	 	 	 	 	 	 	 	 	 	1581504828	7.37	13.65
12/02/2020 10:53:49	120220	12022020	105349	195.96	12.535047	-57.190230	196.01	-0.350	-0.040	2.110	195.90	-1.60	2.70	 	 	 	 	 	 	 	 	 	 	 	 	 	 	 	 	 	 	1581504829	7.42	13.74
12/02/2020 10:53:50	120220	12022020	105350	195.66	12.535013	-57.190247	195.72	-0.490	-0.440	2.840	195.59	-2.00	3.40	 	 	 	 	 	 	 	 	 	 	 	 	 	 	 	 	 	 	1581504830	8.12	15.04
12/02/2020 10:53:51	120220	12022020	105351	195.30	12.534978	-57.190265	195.37	-0.550	-0.730	3.590	195.22	-2.20	4.20	 	 	 	 	 	 	 	 	 	 	 	 	 	 	 	 	 	 	1581504831	8.65	16.02
12/02/2020 10:53:52	120220	12022020	105352	195.01	12.534943	-57.190287	195.13	-0.710	-0.520	4.050	195.00	-1.80	4.50	 	 	 	 	 	 	 	 	 	 	 	 	 	 	 	 	 	 	1581504832	8.71	16.13
12/02/2020 10:53:53	120220	12022020	105353	195.15	12.534912	-57.190308	195.32	-0.760	0.220	3.720	195.23	-1.00	3.90	 	 	 	 	 	 	 	 	 	 	 	 	 	 	 	 	 	 	1581504833	8.21	15.20
12/02/2020 10:53:54	120220	12022020	105354	195.71	12.534882	-57.190325	195.88	-0.410	0.930	2.460	195.85	-0.50	2.50	 	 	 	 	 	 	 	 	 	 	 	 	 	 	 	 	 	 	1581504834	7.32	13.56
12/02/2020 10:53:55	120220	12022020	105355	196.38	12.534850	-57.190335	196.52	0.360	0.850	0.850	196.50	-0.80	0.90	 	 	 	 	 	 	 	 	 	 	 	 	 	 	 	 	 	 	1581504835	7.08	13.11
12/02/2020 10:53:56	120220	12022020	105356	196.90	12.534813	-57.190340	196.99	1.140	-0.030	-0.440	196.98	-1.80	-0.20	 	 	 	 	 	 	 	 	 	 	 	 	 	 	 	 	 	 	1581504836	7.89	14.61
12/02/2020 10:53:57	120220	12022020	105357	197.12	12.534775	-57.190347	197.16	1.440	-1.050	-0.880	197.12	-2.70	-0.40	 	 	 	 	 	 	 	 	 	 	 	 	 	 	 	 	 	 	1581504837	8.57	15.87
12/02/2020 10:53:58	120220	12022020	105358	196.94	12.534737	-57.190355	196.95	1.100	-1.530	-0.330	196.87	-3.00	0.40	 	 	 	 	 	 	 	 	 	 	 	 	 	 	 	 	 	 	1581504838	8.43	15.61
12/02/2020 10:53:59	120220	12022020	105359	196.54	12.534702	-57.190367	196.57	0.270	-1.220	0.860	196.46	-2.50	1.60	 	 	 	 	 	 	 	 	 	 	 	 	 	 	 	 	 	 	1581504839	7.88	14.59
12/02/2020 10:54:00	120220	12022020	105400	196.17	12.534672	-57.190383	196.24	-0.630	-0.620	2.210	196.10	-2.00	2.90	 	 	 	 	 	 	 	 	 	 	 	 	 	 	 	 	 	 	1581504840	7.50	13.89
12/02/2020 10:54:01	120220	12022020	105401	195.87	12.534642	-57.190405	195.98	-1.220	-0.310	3.410	195.82	-1.70	4.00	1015.60	26.20	26.30	21.20	21.20	70.0	73.0	73.0	407.0	26.0	264.00	9.60	77.00	10.80	5605	9415.0	27.5	27.5	1581504841	7.94	14.70
12/02/2020 10:54:02	120220	12022020	105402	195.67	12.534608	-57.190432	195.80	-1.330	-0.240	4.110	195.65	-1.70	4.60	 	 	 	 	 	 	 	 	 	 	 	 	 	 	 	 	 	 	1581504842	8.69	16.09
12/02/2020 10:54:03	120220	12022020	105403	195.65	12.534575	-57.190455	195.81	-1.020	-0.020	3.960	195.67	-1.40	4.20	 	 	 	 	 	 	 	 	 	 	 	 	 	 	 	 	 	 	1581504843	8.89	16.46
12/02/2020 10:54:04	120220	12022020	105404	195.90	12.534542	-57.190475	196.07	-0.440	0.520	2.910	195.99	-0.80	3.00	 	 	 	 	 	 	 	 	 	 	 	 	 	 	 	 	 	 	1581504844	8.30	15.37
12/02/2020 10:54:05	120220	12022020	105405	196.39	12.534508	-57.190485	196.55	0.210	0.990	1.280	196.51	-0.40	1.30	 	 	 	 	 	 	 	 	 	 	 	 	 	 	 	 	 	 	1581504845	7.54	13.96
12/02/2020 10:54:06	120220	12022020	105406	197.01	12.534473	-57.190490	197.15	0.690	0.830	-0.240	197.15	-0.80	-0.00	 	 	 	 	 	 	 	 	 	 	 	 	 	 	 	 	 	 	1581504846	7.51	13.91
12/02/2020 10:54:07	120220	12022020	105407	197.58	12.534437	-57.190495	197.67	0.840	-0.000	-0.870	197.67	-1.70	-0.40	 	 	 	 	 	 	 	 	 	 	 	 	 	 	 	 	 	 	1581504847	7.93	14.69
12/02/2020 10:54:08	120220	12022020	105408	197.77	12.534400	-57.190503	197.78	0.710	-1.030	-0.460	197.73	-2.70	0.20	 	 	 	 	 	 	 	 	 	 	 	 	 	 	 	 	 	 	1581504848	8.19	15.17
12/02/2020 10:54:09	120220	12022020	105409	197.49	12.534365	-57.190518	197.36	0.460	-1.670	0.740	197.38	-3.20	1.50	 	 	 	 	 	 	 	 	 	 	 	 	 	 	 	 	 	 	1581504849	8.31	15.39
12/02/2020 10:54:10	120220	12022020	105410	196.71	12.534332	-57.190537	196.72	0.180	-1.560	2.160	196.59	-2.90	2.80	 	 	 	 	 	 	 	 	 	 	 	 	 	 	 	 	 	 	1581504850	8.22	15.22
12/02/2020 10:54:11	120220	12022020	105411	196.23	12.534300	-57.190558	196.31	-0.080	-0.800	3.030	196.18	-2.00	3.50	 	 	 	 	 	 	 	 	 	 	 	 	 	 	 	 	 	 	1581504851	7.92	14.67
12/02/2020 10:54:12	120220	12022020	105412	196.10	12.534270	-57.190577	196.21	-0.330	0.060	3.180	196.10	-1.30	3.50	 	 	 	 	 	 	 	 	 	 	 	 	 	 	 	 	 	 	1581504852	7.52	13.93
12/02/2020 10:54:13	120220	12022020	105413	196.13	12.534238	-57.190592	196.26	-0.500	0.440	2.830	196.16	-1.00	3.10	 	 	 	 	 	 	 	 	 	 	 	 	 	 	 	 	 	 	1581504853	7.54	13.96
12/02/2020 10:54:14	120220	12022020	105414	196.31	12.534205	-57.190607	196.44	-0.510	0.380	2.210	196.37	-1.10	2.50	 	 	 	 	 	 	 	 	 	 	 	 	 	 	 	 	 	 	1581504854	7.99	14.80
12/02/2020 10:54:15	120220	12022020	105415	196.60	12.534168	-57.190620	196.72	-0.360	0.240	1.550	196.66	-1.20	1.90	 	 	 	 	 	 	 	 	 	 	 	 	 	 	 	 	 	 	1581504855	8.23	15.24
12/02/2020 10:54:16	120220	12022020	105416	196.83	12.534133	-57.190633	196.91	-0.130	0.080	1.120	196.85	-1.40	1.50	 	 	 	 	 	 	 	 	 	 	 	 	 	 	 	 	 	 	1581504856	8.06	14.93
12/02/2020 10:54:17	120220	12022020	105417	196.89	12.534098	-57.190647	196.95	0.060	-0.170	1.070	196.88	-1.70	1.50	 	 	 	 	 	 	 	 	 	 	 	 	 	 	 	 	 	 	1581504857	7.98	14.78
12/02/2020 10:54:18	120220	12022020	105418	196.86	12.534063	-57.190662	196.93	0.120	-0.310	1.250	196.85	-1.80	1.70	 	 	 	 	 	 	 	 	 	 	 	 	 	 	 	 	 	 	1581504858	7.97	14.76
12/02/2020 10:54:19	120220	12022020	105419	196.85	12.534032	-57.190677	196.92	0.150	-0.330	1.400	196.85	-1.80	1.80	 	 	 	 	 	 	 	 	 	 	 	 	 	 	 	 	 	 	1581504859	7.79	14.43
12/02/2020 10:54:20	120220	12022020	105420	196.88	12.533998	-57.190692	196.95	0.250	-0.460	1.390	196.88	-2.00	1.80	 	 	 	 	 	 	 	 	 	 	 	 	 	 	 	 	 	 	1581504860	7.67	14.20
12/02/2020 10:54:21	120220	12022020	105421	196.87	12.533965	-57.190705	196.93	0.440	-0.700	1.280	196.87	-2.20	1.70	 	 	 	 	 	 	 	 	 	 	 	 	 	 	 	 	 	 	1581504861	7.91	14.65
12/02/2020 10:54:22	120220	12022020	105422	196.90	12.533930	-57.190718	196.97	0.560	-0.630	1.050	196.92	-2.00	1.40	 	 	 	 	 	 	 	 	 	 	 	 	 	 	 	 	 	 	1581504862	8.06	14.93
12/02/2020 10:54:23	120220	12022020	105423	196.97	12.533895	-57.190730	197.03	0.500	-0.270	0.890	196.98	-1.60	1.40	 	 	 	 	 	 	 	 	 	 	 	 	 	 	 	 	 	 	1581504863	7.77	14.39
12/02/2020 10:54:24	120220	12022020	105424	196.91	12.533862	-57.190742	196.94	0.270	-0.080	1.140	196.87	-1.50	1.70	 	 	 	 	 	 	 	 	 	 	 	 	 	 	 	 	 	 	1581504864	7.56	14.00
12/02/2020 10:54:25	120220	12022020	105425	196.66	12.533827	-57.190755	196.71	-0.060	-0.210	1.770	196.62	-1.70	2.40	 	 	 	 	 	 	 	 	 	 	 	 	 	 	 	 	 	 	1581504865	7.90	14.63
12/02/2020 10:54:26	120220	12022020	105426	196.52	12.533792	-57.190772	196.60	-0.490	-0.330	2.530	196.51	-1.80	3.10	 	 	 	 	 	 	 	 	 	 	 	 	 	 	 	 	 	 	1581504866	8.35	15.46
12/02/2020 10:54:27	120220	12022020	105427	196.47	12.533758	-57.190792	196.56	-0.880	-0.350	3.240	196.45	-1.80	3.80	 	 	 	 	 	 	 	 	 	 	 	 	 	 	 	 	 	 	1581504867	8.41	15.58
12/02/2020 10:54:28	120220	12022020	105428	196.32	12.533725	-57.190813	196.40	-0.950	-0.350	3.630	196.28	-1.80	4.10	 	 	 	 	 	 	 	 	 	 	 	 	 	 	 	 	 	 	1581504868	8.42	15.59
12/02/2020 10:54:29	120220	12022020	105429	196.18	12.533692	-57.190833	196.28	-0.610	-0.220	3.410	196.18	-1.60	3.70	 	 	 	 	 	 	 	 	 	 	 	 	 	 	 	 	 	 	1581504869	8.38	15.52
12/02/2020 10:54:30	120220	12022020	105430	196.28	12.533658	-57.190850	196.40	-0.060	0.020	2.540	196.33	-1.40	2.70	 	 	 	 	 	 	 	 	 	 	 	 	 	 	 	 	 	 	1581504870	8.09	14.98
12/02/2020 10:54:31	120220	12022020	105431	196.62	12.533625	-57.190862	196.74	0.430	0.280	1.270	196.71	-1.10	1.40	 	 	 	 	 	 	 	 	 	 	 	 	 	 	 	 	 	 	1581504871	7.77	14.39
12/02/2020 10:54:32	120220	12022020	105432	197.04	12.533590	-57.190870	197.13	0.740	0.320	0.030	197.11	-1.20	0.30	 	 	 	 	 	 	 	 	 	 	 	 	 	 	 	 	 	 	1581504872	7.62	14.11
12/02/2020 10:54:33	120220	12022020	105433	197.27	12.533555	-57.190877	197.31	0.880	-0.030	-0.670	197.29	-1.60	-0.20	 	 	 	 	 	 	 	 	 	 	 	 	 	 	 	 	 	 	1581504873	7.78	14.41
12/02/2020 10:54:34	120220	12022020	105434	197.21	12.533517	-57.190885	197.21	0.830	-0.600	-0.450	197.16	-2.20	0.20	 	 	 	 	 	 	 	 	 	 	 	 	 	 	 	 	 	 	1581504874	8.09	14.98
12/02/2020 10:54:35	120220	12022020	105435	196.97	12.533480	-57.190897	197.01	0.480	-0.900	0.380	196.95	-2.30	1.10	 	 	 	 	 	 	 	 	 	 	 	 	 	 	 	 	 	 	1581504875	8.29	15.35
12/02/2020 10:54:36	120220	12022020	105436	197.00	12.533447	-57.190913	197.09	-0.130	-0.680	1.410	197.03	-2.00	2.10	 	 	 	 	 	 	 	 	 	 	 	 	 	 	 	 	 	 	1581504876	8.12	15.04
12/02/2020 10:54:37	120220	12022020	105437	197.17	12.533415	-57.190932	197.28	-0.680	-0.380	2.500	197.19	-1.80	3.20	 	 	 	 	 	 	 	 	 	 	 	 	 	 	 	 	 	 	1581504877	7.85	14.54
12/02/2020 10:54:38	120220	12022020	105438	197.12	12.533385	-57.190955	197.21	-0.740	-0.450	3.280	197.07	-1.90	3.80	 	 	 	 	 	 	 	 	 	 	 	 	 	 	 	 	 	 	1581504878	8.11	15.02
12/02/2020 10:54:39	120220	12022020	105439	196.90	12.533350	-57.190977	196.99	-0.310	-0.690	3.340	196.87	-2.10	3.70	 	 	 	 	 	 	 	 	 	 	 	 	 	 	 	 	 	 	1581504879	8.58	15.89
12/02/2020 10:54:40	120220	12022020	105440	196.85	12.533315	-57.190993	196.96	0.060	-0.560	2.850	196.87	-1.90	3.10	 	 	 	 	 	 	 	 	 	 	 	 	 	 	 	 	 	 	1581504880	8.61	15.95
12/02/2020 10:54:41	120220	12022020	105441	196.97	12.533278	-57.191007	197.08	-0.020	-0.070	2.140	197.00	-1.40	2.40	 	 	 	 	 	 	 	 	 	 	 	 	 	 	 	 	 	 	1581504881	8.11	15.02
12/02/2020 10:54:42	120220	12022020	105442	197.06	12.533245	-57.191018	197.14	-0.360	0.370	1.580	197.06	-1.00	1.90	 	 	 	 	 	 	 	 	 	 	 	 	 	 	 	 	 	 	1581504882	7.67	14.20
12/02/2020 10:54:43	120220	12022020	105443	197.00	12.533212	-57.191033	197.05	-0.480	0.420	1.310	196.98	-1.10	1.70	 	 	 	 	 	 	 	 	 	 	 	 	 	 	 	 	 	 	1581504883	7.73	14.32
12/02/2020 10:54:44	120220	12022020	105444	196.88	12.533178	-57.191048	196.94	-0.110	0.240	1.070	196.88	-1.20	1.40	 	 	 	 	 	 	 	 	 	 	 	 	 	 	 	 	 	 	1581504884	8.13	15.06
12/02/2020 10:54:45	120220	12022020	105445	196.92	12.533142	-57.191063	197.04	0.480	0.160	0.650	196.95	-1.30	1.00	 	 	 	 	 	 	 	 	 	 	 	 	 	 	 	 	 	 	1581504885	8.23	15.24
12/02/2020 10:54:46	120220	12022020	105446	197.16	12.533107	-57.191073	197.24	0.830	-0.020	0.420	197.19	-1.60	0.90	 	 	 	 	 	 	 	 	 	 	 	 	 	 	 	 	 	 	1581504886	7.92	14.67
12/02/2020 10:54:47	120220	12022020	105447	197.22	12.533070	-57.191083	197.29	0.730	-0.590	0.680	197.21	-2.20	1.30	 	 	 	 	 	 	 	 	 	 	 	 	 	 	 	 	 	 	1581504887	7.99	14.80
12/02/2020 10:54:48	120220	12022020	105448	197.10	12.533035	-57.191097	197.16	0.260	-1.120	1.400	197.06	-2.60	2.10	 	 	 	 	 	 	 	 	 	 	 	 	 	 	 	 	 	 	1581504888	8.38	15.52
12/02/2020 10:54:49	120220	12022020	105449	196.90	12.533000	-57.191117	196.97	-0.250	-1.170	2.370	196.86	-2.50	3.00	 	 	 	 	 	 	 	 	 	 	 	 	 	 	 	 	 	 	1581504889	8.45	15.65
12/02/2020 10:54:50	120220	12022020	105450	196.71	12.532967	-57.191137	196.80	-0.490	-0.770	3.090	196.67	-2.10	3.60	 	 	 	 	 	 	 	 	 	 	 	 	 	 	 	 	 	 	1581504890	8.20	15.19
12/02/2020 10:54:51	120220	12022020	105451	196.51	12.532937	-57.191157	196.59	-0.460	-0.350	3.380	196.46	-1.70	3.80	 	 	 	 	 	 	 	 	 	 	 	 	 	 	 	 	 	 	1581504891	7.92	14.67
12/02/2020 10:54:52	120220	12022020	105452	196.23	12.532903	-57.191175	196.30	-0.280	-0.140	3.370	196.17	-1.60	3.80	 	 	 	 	 	 	 	 	 	 	 	 	 	 	 	 	 	 	1581504892	8.04	14.89
12/02/2020 10:54:53	120220	12022020	105453	195.99	12.532868	-57.191190	196.07	-0.130	-0.080	2.990	195.96	-1.50	3.30	 	 	 	 	 	 	 	 	 	 	 	 	 	 	 	 	 	 	1581504893	8.33	15.43
12/02/2020 10:54:54	120220	12022020	105454	196.00	12.532832	-57.191203	196.11	-0.100	0.200	2.230	196.05	-1.20	2.50	 	 	 	 	 	 	 	 	 	 	 	 	 	 	 	 	 	 	1581504894	8.36	15.48
12/02/2020 10:54:55	120220	12022020	105455	196.34	12.532795	-57.191215	196.46	-0.170	0.670	1.350	196.43	-0.70	1.60	 	 	 	 	 	 	 	 	 	 	 	 	 	 	 	 	 	 	1581504895	7.92	14.67
12/02/2020 10:54:56	120220	12022020	105456	196.74	12.532762	-57.191223	196.84	-0.170	0.690	0.680	196.80	-0.90	1.10	 	 	 	 	 	 	 	 	 	 	 	 	 	 	 	 	 	 	1581504896	7.51	13.91
12/02/2020 10:54:57	120220	12022020	105457	196.89	12.532727	-57.191235	196.93	0.110	-0.100	0.500	196.88	-1.80	1.00	 	 	 	 	 	 	 	 	 	 	 	 	 	 	 	 	 	 	1581504897	7.90	14.63
12/02/2020 10:54:58	120220	12022020	105458	196.73	12.532688	-57.191250	196.76	0.570	-1.070	0.820	196.68	-2.70	1.40	 	 	 	 	 	 	 	 	 	 	 	 	 	 	 	 	 	 	1581504898	8.70	16.11
12/02/2020 10:54:59	120220	12022020	105459	196.58	12.532652	-57.191265	196.62	0.840	-1.280	1.300	196.56	-2.60	1.90	 	 	 	 	 	 	 	 	 	 	 	 	 	 	 	 	 	 	1581504899	8.83	16.35
12/02/2020 10:55:00	120220	12022020	105500	196.59	12.532617	-57.191280	196.67	0.560	-0.650	1.650	196.61	-1.90	2.20	 	 	 	 	 	 	 	 	 	 	 	 	 	 	 	 	 	 	1581504900	8.01	14.83
12/02/2020 10:55:01	120220	12022020	105501	196.67	12.532585	-57.191293	196.75	-0.170	0.070	1.910	196.68	-1.30	2.40	1015.50	26.10	26.20	21.10	21.10	81.0	73.0	74.0	409.0	26.1	260.00	9.70	75.00	11.20	5739	8991.0	27.5	27.5	1581504901	7.26	13.45
12/02/2020 10:55:02	120220	12022020	105502	196.74	12.532555	-57.191310	196.83	-0.790	0.220	2.140	196.76	-1.30	2.60	 	 	 	 	 	 	 	 	 	 	 	 	 	 	 	 	 	 	1581504902	7.44	13.78
12/02/2020 10:55:03	120220	12022020	105503	196.80	12.532522	-57.191328	196.88	-0.810	-0.200	2.180	196.80	-1.80	2.60	 	 	 	 	 	 	 	 	 	 	 	 	 	 	 	 	 	 	1581504903	8.21	15.20
12/02/2020 10:55:04	120220	12022020	105504	196.78	12.532485	-57.191347	196.85	-0.270	-0.720	2.060	196.77	-2.20	2.50	 	 	 	 	 	 	 	 	 	 	 	 	 	 	 	 	 	 	1581504904	8.80	16.30
12/02/2020 10:55:05	120220	12022020	105505	196.78	12.532447	-57.191363	196.86	0.280	-0.760	1.730	196.80	-2.10	2.10	 	 	 	 	 	 	 	 	 	 	 	 	 	 	 	 	 	 	1581504905	8.82	16.33
12/02/2020 10:55:06	120220	12022020	105506	196.90	12.532412	-57.191377	196.98	0.410	-0.180	1.230	196.94	-1.50	1.60	 	 	 	 	 	 	 	 	 	 	 	 	 	 	 	 	 	 	1581504906	8.18	15.15
12/02/2020 10:55:07	120220	12022020	105507	197.02	12.532378	-57.191387	197.07	0.220	0.350	0.830	197.03	-1.00	1.30	 	 	 	 	 	 	 	 	 	 	 	 	 	 	 	 	 	 	1581504907	7.50	13.89
12/02/2020 10:55:08	120220	12022020	105508	197.05	12.532345	-57.191397	197.09	-0.010	0.380	0.720	197.06	-1.10	1.20	 	 	 	 	 	 	 	 	 	 	 	 	 	 	 	 	 	 	1581504908	7.58	14.04
12/02/2020 10:55:09	120220	12022020	105509	197.09	12.532308	-57.191410	197.13	-0.120	0.090	0.980	197.09	-1.40	1.50	 	 	 	 	 	 	 	 	 	 	 	 	 	 	 	 	 	 	1581504909	8.09	14.98
12/02/2020 10:55:10	120220	12022020	105510	197.11	12.532273	-57.191427	197.16	-0.060	-0.230	1.510	197.11	-1.70	2.10	 	 	 	 	 	 	 	 	 	 	 	 	 	 	 	 	 	 	1581504910	8.36	15.48
12/02/2020 10:55:11	120220	12022020	105511	197.12	12.532240	-57.191447	197.20	0.130	-0.470	2.000	197.13	-1.90	2.50	 	 	 	 	 	 	 	 	 	 	 	 	 	 	 	 	 	 	1581504911	8.42	15.59
12/02/2020 10:55:12	120220	12022020	105512	197.20	12.532205	-57.191465	197.28	0.310	-0.540	2.160	197.22	-2.00	2.60	 	 	 	 	 	 	 	 	 	 	 	 	 	 	 	 	 	 	1581504912	8.31	15.39
12/02/2020 10:55:13	120220	12022020	105513	197.26	12.532172	-57.191480	197.33	0.290	-0.520	2.080	197.26	-2.00	2.50	 	 	 	 	 	 	 	 	 	 	 	 	 	 	 	 	 	 	1581504913	8.05	14.91
12/02/2020 10:55:14	120220	12022020	105514	197.12	12.532137	-57.191495	197.16	0.080	-0.630	2.020	197.07	-2.10	2.50	 	 	 	 	 	 	 	 	 	 	 	 	 	 	 	 	 	 	1581504914	7.97	14.76
12/02/2020 10:55:15	120220	12022020	105515	196.78	12.532102	-57.191508	196.81	-0.130	-0.770	2.090	196.70	-2.20	2.60	 	 	 	 	 	 	 	 	 	 	 	 	 	 	 	 	 	 	1581504915	8.24	15.26
12/02/2020 10:55:16	120220	12022020	105516	196.41	12.532065	-57.191525	196.45	-0.220	-0.640	2.200	196.36	-2.00	2.70	 	 	 	 	 	 	 	 	 	 	 	 	 	 	 	 	 	 	1581504916	8.44	15.63
12/02/2020 10:55:17	120220	12022020	105517	196.38	12.532030	-57.191540	196.49	-0.320	-0.060	2.130	196.44	-1.30	2.50	 	 	 	 	 	 	 	 	 	 	 	 	 	 	 	 	 	 	1581504917	8.27	15.32
12/02/2020 10:55:18	120220	12022020	105518	196.83	12.531997	-57.191555	196.98	-0.540	0.610	1.840	196.95	-0.70	2.20	 	 	 	 	 	 	 	 	 	 	 	 	 	 	 	 	 	 	1581504918	7.75	14.35
12/02/2020 10:55:19	120220	12022020	105519	197.40	12.531965	-57.191570	197.52	-0.590	0.720	1.430	197.48	-0.80	1.80	 	 	 	 	 	 	 	 	 	 	 	 	 	 	 	 	 	 	1581504919	7.53	13.95
12/02/2020 10:55:20	120220	12022020	105520	197.62	12.531932	-57.191587	197.69	-0.140	-0.030	1.170	197.62	-1.70	1.60	 	 	 	 	 	 	 	 	 	 	 	 	 	 	 	 	 	 	1581504920	8.06	14.93
12/02/2020 10:55:21	120220	12022020	105521	197.53	12.531892	-57.191602	197.59	0.600	-0.910	1.200	197.50	-2.40	1.70	 	 	 	 	 	 	 	 	 	 	 	 	 	 	 	 	 	 	1581504921	8.94	16.56
12/02/2020 10:55:22	120220	12022020	105522	197.43	12.531853	-57.191617	197.51	0.950	-0.990	1.510	197.43	-2.30	2.10	 	 	 	 	 	 	 	 	 	 	 	 	 	 	 	 	 	 	1581504922	8.96	16.59
12/02/2020 10:55:23	120220	12022020	105523	197.54	12.531818	-57.191630	197.64	0.620	-0.260	1.780	197.58	-1.50	2.30	 	 	 	 	 	 	 	 	 	 	 	 	 	 	 	 	 	 	1581504923	8.05	14.91
12/02/2020 10:55:24	120220	12022020	105524	197.73	12.531788	-57.191643	197.83	-0.060	0.380	1.920	197.74	-1.00	2.40	 	 	 	 	 	 	 	 	 	 	 	 	 	 	 	 	 	 	1581504924	7.22	13.37
12/02/2020 10:55:25	120220	12022020	105525	197.64	12.531757	-57.191660	197.70	-0.450	0.140	2.240	197.57	-1.50	2.80	 	 	 	 	 	 	 	 	 	 	 	 	 	 	 	 	 	 	1581504925	7.47	13.83
12/02/2020 10:55:26	120220	12022020	105526	197.18	12.531722	-57.191678	197.24	-0.400	-0.650	2.690	197.09	-2.20	3.20	 	 	 	 	 	 	 	 	 	 	 	 	 	 	 	 	 	 	1581504926	8.56	15.85
12/02/2020 10:55:27	120220	12022020	105527	196.70	12.531683	-57.191698	196.78	-0.240	-1.010	2.980	196.63	-2.40	3.40	 	 	 	 	 	 	 	 	 	 	 	 	 	 	 	 	 	 	1581504927	9.16	16.96
12/02/2020 10:55:28	120220	12022020	105528	196.54	12.531648	-57.191718	196.67	-0.210	-0.590	2.820	196.56	-1.90	3.20	 	 	 	 	 	 	 	 	 	 	 	 	 	 	 	 	 	 	1581504928	8.66	16.04
12/02/2020 10:55:29	120220	12022020	105529	196.77	12.531615	-57.191735	196.91	-0.190	0.150	2.200	196.84	-1.20	2.50	 	 	 	 	 	 	 	 	 	 	 	 	 	 	 	 	 	 	1581504929	7.79	14.43
12/02/2020 10:55:30	120220	12022020	105530	197.15	12.531583	-57.191747	197.27	0.070	0.440	1.300	197.22	-1.00	1.60	 	 	 	 	 	 	 	 	 	 	 	 	 	 	 	 	 	 	1581504930	7.41	13.72
12/02/2020 10:55:31	120220	12022020	105531	197.45	12.531548	-57.191758	197.57	0.490	0.050	0.570	197.50	-1.50	0.90	 	 	 	 	 	 	 	 	 	 	 	 	 	 	 	 	 	 	1581504931	7.95	14.72
12/02/2020 10:55:32	120220	12022020	105532	197.68	12.531510	-57.191768	197.78	0.630	-0.480	0.380	197.71	-2.00	0.90	 	 	 	 	 	 	 	 	 	 	 	 	 	 	 	 	 	 	1581504932	8.61	15.95
12/02/2020 10:55:33	120220	12022020	105533	197.71	12.531472	-57.191780	197.78	0.240	-0.740	0.910	197.67	-2.20	1.60	 	 	 	 	 	 	 	 	 	 	 	 	 	 	 	 	 	 	1581504933	8.58	15.89
12/02/2020 10:55:34	120220	12022020	105534	197.44	12.531437	-57.191798	197.50	-0.360	-0.720	1.850	197.37	-2.10	2.50	 	 	 	 	 	 	 	 	 	 	 	 	 	 	 	 	 	 	1581504934	8.35	15.46
12/02/2020 10:55:35	120220	12022020	105535	197.10	12.531405	-57.191820	197.17	-0.630	-0.490	2.600	197.04	-1.80	3.20	 	 	 	 	 	 	 	 	 	 	 	 	 	 	 	 	 	 	1581504935	8.41	15.58
12/02/2020 10:55:36	120220	12022020	105536	196.83	12.531372	-57.191842	196.93	-0.360	-0.160	2.880	196.79	-1.50	3.30	 	 	 	 	 	 	 	 	 	 	 	 	 	 	 	 	 	 	1581504936	8.32	15.41
12/02/2020 10:55:37	120220	12022020	105537	196.67	12.531338	-57.191860	196.75	0.060	0.090	2.700	196.65	-1.30	3.10	 	 	 	 	 	 	 	 	 	 	 	 	 	 	 	 	 	 	1581504937	8.12	15.04
12/02/2020 10:55:38	120220	12022020	105538	196.57	12.531303	-57.191873	196.68	0.230	0.100	2.250	196.57	-1.40	2.60	 	 	 	 	 	 	 	 	 	 	 	 	 	 	 	 	 	 	1581504938	8.13	15.06
12/02/2020 10:55:39	120220	12022020	105539	196.57	12.531267	-57.191887	196.67	0.100	-0.070	1.840	196.57	-1.50	2.20	 	 	 	 	 	 	 	 	 	 	 	 	 	 	 	 	 	 	1581504939	8.28	15.33
12/02/2020 10:55:40	120220	12022020	105540	196.56	12.531232	-57.191902	196.65	0.010	-0.240	1.580	196.56	-1.70	2.00	 	 	 	 	 	 	 	 	 	 	 	 	 	 	 	 	 	 	1581504940	8.36	15.48
12/02/2020 10:55:41	120220	12022020	105541	196.62	12.531195	-57.191917	196.72	0.130	-0.260	1.380	196.64	-1.70	1.80	 	 	 	 	 	 	 	 	 	 	 	 	 	 	 	 	 	 	1581504941	8.29	15.35
12/02/2020 10:55:42	120220	12022020	105542	196.70	12.531160	-57.191930	196.78	0.320	-0.210	1.320	196.71	-1.60	1.80	 	 	 	 	 	 	 	 	 	 	 	 	 	 	 	 	 	 	1581504942	8.05	14.91
12/02/2020 10:55:43	120220	12022020	105543	196.72	12.531125	-57.191943	196.80	0.300	-0.350	1.510	196.72	-1.80	2.10	 	 	 	 	 	 	 	 	 	 	 	 	 	 	 	 	 	 	1581504943	8.01	14.83
12/02/2020 10:55:44	120220	12022020	105544	196.70	12.531090	-57.191958	196.77	0.040	-0.690	1.930	196.67	-2.20	2.50	 	 	 	 	 	 	 	 	 	 	 	 	 	 	 	 	 	 	1581504944	8.28	15.33
12/02/2020 10:55:45	120220	12022020	105545	196.48	12.531053	-57.191977	196.54	-0.220	-0.970	2.480	196.41	-2.40	3.00	 	 	 	 	 	 	 	 	 	 	 	 	 	 	 	 	 	 	1581504945	8.61	15.95
12/02/2020 10:55:46	120220	12022020	105546	196.21	12.531018	-57.191997	196.29	-0.260	-0.710	2.820	196.17	-1.90	3.30	 	 	 	 	 	 	 	 	 	 	 	 	 	 	 	 	 	 	1581504946	8.72	16.15
12/02/2020 10:55:47	120220	12022020	105547	196.15	12.530985	-57.192015	196.25	-0.100	0.130	2.720	196.15	-1.10	3.10	 	 	 	 	 	 	 	 	 	 	 	 	 	 	 	 	 	 	1581504947	8.15	15.09
12/02/2020 10:55:48	120220	12022020	105548	196.26	12.530953	-57.192028	196.36	0.070	0.680	2.330	196.29	-0.70	2.70	 	 	 	 	 	 	 	 	 	 	 	 	 	 	 	 	 	 	1581504948	7.49	13.87
12/02/2020 10:55:49	120220	12022020	105549	196.35	12.530918	-57.192040	196.45	0.110	0.360	2.020	196.35	-1.20	2.50	 	 	 	 	 	 	 	 	 	 	 	 	 	 	 	 	 	 	1581504949	7.84	14.52
12/02/2020 10:55:50	120220	12022020	105550	196.37	12.530880	-57.192053	196.47	0.020	-0.340	2.050	196.37	-1.90	2.60	 	 	 	 	 	 	 	 	 	 	 	 	 	 	 	 	 	 	1581504950	8.67	16.06
12/02/2020 10:55:51	120220	12022020	105551	196.39	12.530842	-57.192070	196.48	-0.130	-0.600	2.230	196.39	-2.00	2.70	 	 	 	 	 	 	 	 	 	 	 	 	 	 	 	 	 	 	1581504951	8.84	16.37
12/02/2020 10:55:52	120220	12022020	105552	196.38	12.530808	-57.192087	196.46	-0.190	-0.480	2.330	196.36	-1.90	2.80	 	 	 	 	 	 	 	 	 	 	 	 	 	 	 	 	 	 	1581504952	8.24	15.26
12/02/2020 10:55:53	120220	12022020	105553	196.18	12.530775	-57.192103	196.24	0.020	-0.600	2.200	196.12	-2.10	2.60	 	 	 	 	 	 	 	 	 	 	 	 	 	 	 	 	 	 	1581504953	7.92	14.67
12/02/2020 10:55:54	120220	12022020	105554	195.85	12.530738	-57.192117	195.90	0.350	-0.900	1.910	195.79	-2.40	2.30	 	 	 	 	 	 	 	 	 	 	 	 	 	 	 	 	 	 	1581504954	8.33	15.43
12/02/2020 10:55:55	120220	12022020	105555	195.64	12.530700	-57.192130	195.71	0.430	-0.810	1.610	195.63	-2.10	2.00	 	 	 	 	 	 	 	 	 	 	 	 	 	 	 	 	 	 	1581504955	8.66	16.04
12/02/2020 10:55:56	120220	12022020	105556	195.76	12.530663	-57.192142	195.86	0.060	-0.160	1.370	195.82	-1.40	1.80	 	 	 	 	 	 	 	 	 	 	 	 	 	 	 	 	 	 	1581504956	8.26	15.30
12/02/2020 10:55:57	120220	12022020	105557	196.17	12.530630	-57.192155	196.29	-0.470	0.560	1.300	196.27	-0.80	1.80	 	 	 	 	 	 	 	 	 	 	 	 	 	 	 	 	 	 	1581504957	7.68	14.22
12/02/2020 10:55:58	120220	12022020	105558	196.63	12.530598	-57.192170	196.75	-0.710	0.760	1.380	196.72	-0.70	1.90	 	 	 	 	 	 	 	 	 	 	 	 	 	 	 	 	 	 	1581504958	7.69	14.24
12/02/2020 10:55:59	120220	12022020	105559	196.97	12.530563	-57.192188	197.06	-0.440	0.320	1.570	197.00	-1.30	2.10	 	 	 	 	 	 	 	 	 	 	 	 	 	 	 	 	 	 	1581504959	8.24	15.26
12/02/2020 10:56:00	120220	12022020	105600	197.00	12.530527	-57.192207	197.06	0.120	-0.280	1.830	196.97	-1.80	2.30	 	 	 	 	 	 	 	 	 	 	 	 	 	 	 	 	 	 	1581504960	8.71	16.13
12/02/2020 10:56:01	120220	12022020	105601	196.85	12.530490	-57.192223	196.85	0.560	-0.660	1.910	196.80	-2.10	2.30	1015.50	26.10	26.20	21.00	21.10	98.0	73.0	73.0	408.0	26.1	257.00	10.60	74.00	12.20	5874	9212.0	27.5	27.5	1581504961	8.69	16.09
12/02/2020 10:56:02	120220	12022020	105602	196.56	12.530453	-57.192237	196.61	0.680	-0.770	1.760	196.51	-2.20	2.20	 	 	 	 	 	 	 	 	 	 	 	 	 	 	 	 	 	 	1581504962	8.38	15.52
12/02/2020 10:56:03	120220	12022020	105603	196.38	12.530418	-57.192248	196.40	0.520	-0.730	1.630	196.34	-2.10	2.10	 	 	 	 	 	 	 	 	 	 	 	 	 	 	 	 	 	 	1581504963	8.19	15.17
12/02/2020 10:56:04	120220	12022020	105604	196.37	12.530382	-57.192262	196.46	0.180	-0.480	1.520	196.41	-1.80	2.00	 	 	 	 	 	 	 	 	 	 	 	 	 	 	 	 	 	 	1581504964	8.16	15.11
12/02/2020 10:56:05	120220	12022020	105605	196.67	12.530347	-57.192275	196.76	-0.320	-0.050	1.500	196.72	-1.40	2.00	 	 	 	 	 	 	 	 	 	 	 	 	 	 	 	 	 	 	1581504965	7.93	14.69
12/02/2020 10:56:06	120220	12022020	105606	196.78	12.530313	-57.192290	196.83	-0.750	-0.100	1.850	196.75	-1.60	2.50	 	 	 	 	 	 	 	 	 	 	 	 	 	 	 	 	 	 	1581504966	7.79	14.43
12/02/2020 10:56:07	120220	12022020	105607	196.41	12.530280	-57.192310	196.43	-0.780	-0.760	2.570	196.29	-2.30	3.20	 	 	 	 	 	 	 	 	 	 	 	 	 	 	 	 	 	 	1581504967	8.57	15.87
12/02/2020 10:56:08	120220	12022020	105608	195.77	12.530242	-57.192332	195.80	-0.410	-1.280	3.200	195.64	-2.70	3.70	 	 	 	 	 	 	 	 	 	 	 	 	 	 	 	 	 	 	1581504968	9.49	17.58
12/02/2020 10:56:09	120220	12022020	105609	195.31	12.530203	-57.192353	195.40	0.020	-0.850	3.220	195.29	-2.00	3.60	 	 	 	 	 	 	 	 	 	 	 	 	 	 	 	 	 	 	1581504969	9.36	17.33
12/02/2020 10:56:10	120220	12022020	105610	195.52	12.530168	-57.192368	195.69	0.170	0.310	2.410	195.65	-0.80	2.60	 	 	 	 	 	 	 	 	 	 	 	 	 	 	 	 	 	 	1581504970	8.30	15.37
12/02/2020 10:56:11	120220	12022020	105611	196.27	12.530135	-57.192380	196.44	0.070	1.350	1.310	196.43	0.10	1.60	 	 	 	 	 	 	 	 	 	 	 	 	 	 	 	 	 	 	1581504971	7.39	13.69
12/02/2020 10:56:12	120220	12022020	105612	196.99	12.530102	-57.192387	197.10	0.010	1.500	0.590	197.09	-0.10	1.00	 	 	 	 	 	 	 	 	 	 	 	 	 	 	 	 	 	 	1581504972	7.31	13.54
12/02/2020 10:56:13	120220	12022020	105613	197.25	12.530067	-57.192397	197.31	0.170	0.580	0.650	197.24	-1.10	1.20	 	 	 	 	 	 	 	 	 	 	 	 	 	 	 	 	 	 	1581504973	8.00	14.82
12/02/2020 10:56:14	120220	12022020	105614	197.05	12.530027	-57.192412	197.08	0.450	-0.790	1.290	196.97	-2.50	2.00	 	 	 	 	 	 	 	 	 	 	 	 	 	 	 	 	 	 	1581504974	8.86	16.41
12/02/2020 10:56:15	120220	12022020	105615	196.60	12.529988	-57.192430	196.63	0.590	-1.670	2.100	196.50	-3.10	2.70	 	 	 	 	 	 	 	 	 	 	 	 	 	 	 	 	 	 	1581504975	9.20	17.04
12/02/2020 10:56:16	120220	12022020	105616	196.13	12.529952	-57.192448	196.20	0.420	-1.590	2.740	196.06	-2.90	3.30	 	 	 	 	 	 	 	 	 	 	 	 	 	 	 	 	 	 	1581504976	8.72	16.15
12/02/2020 10:56:17	120220	12022020	105617	195.80	12.529920	-57.192467	195.88	0.070	-0.930	2.960	195.75	-2.20	3.40	 	 	 	 	 	 	 	 	 	 	 	 	 	 	 	 	 	 	1581504977	7.92	14.67
12/02/2020 10:56:18	120220	12022020	105618	195.59	12.529888	-57.192482	195.68	-0.200	-0.380	2.790	195.56	-1.70	3.20	 	 	 	 	 	 	 	 	 	 	 	 	 	 	 	 	 	 	1581504978	7.62	14.11
12/02/2020 10:56:19	120220	12022020	105619	195.48	12.529853	-57.192497	195.57	-0.290	-0.200	2.420	195.47	-1.60	2.80	 	 	 	 	 	 	 	 	 	 	 	 	 	 	 	 	 	 	1581504979	8.02	14.85
12/02/2020 10:56:20	120220	12022020	105620	195.52	12.529817	-57.192512	195.63	-0.330	-0.110	1.900	195.57	-1.50	2.20	 	 	 	 	 	 	 	 	 	 	 	 	 	 	 	 	 	 	1581504980	8.48	15.70
12/02/2020 10:56:21	120220	12022020	105621	195.87	12.529780	-57.192527	195.98	-0.410	0.160	1.270	195.97	-1.20	1.60	 	 	 	 	 	 	 	 	 	 	 	 	 	 	 	 	 	 	1581504981	8.49	15.72
12/02/2020 10:56:22	120220	12022020	105622	196.37	12.529745	-57.192540	196.47	-0.420	0.390	0.730	196.46	-1.00	1.10	 	 	 	 	 	 	 	 	 	 	 	 	 	 	 	 	 	 	1581504982	8.12	15.04
12/02/2020 10:56:23	120220	12022020	105623	196.71	12.529710	-57.192552	196.77	-0.160	0.200	0.470	196.74	-1.30	1.00	 	 	 	 	 	 	 	 	 	 	 	 	 	 	 	 	 	 	1581504983	8.09	14.98
12/02/2020 10:56:24	120220	12022020	105624	196.72	12.529672	-57.192565	196.75	0.320	-0.380	0.680	196.70	-1.90	1.30	 	 	 	 	 	 	 	 	 	 	 	 	 	 	 	 	 	 	1581504984	8.55	15.83
12/02/2020 10:56:25	120220	12022020	105625	196.61	12.529633	-57.192580	196.62	0.540	-0.740	1.250	196.59	-2.20	1.90	 	 	 	 	 	 	 	 	 	 	 	 	 	 	 	 	 	 	1581504985	8.91	16.50
12/02/2020 10:56:26	120220	12022020	105626	196.43	12.529595	-57.192595	196.48	0.210	-0.640	2.040	196.40	-2.00	2.70	 	 	 	 	 	 	 	 	 	 	 	 	 	 	 	 	 	 	1581504986	8.62	15.96
12/02/2020 10:56:27	120220	12022020	105627	196.25	12.529562	-57.192613	196.31	-0.400	-0.310	2.830	196.21	-1.60	3.40	 	 	 	 	 	 	 	 	 	 	 	 	 	 	 	 	 	 	1581504987	8.28	15.33
12/02/2020 10:56:28	120220	12022020	105628	196.06	12.529530	-57.192635	196.13	-0.680	0.060	3.240	196.02	-1.30	3.70	 	 	 	 	 	 	 	 	 	 	 	 	 	 	 	 	 	 	1581504988	8.31	15.39
12/02/2020 10:56:29	120220	12022020	105629	195.94	12.529497	-57.192657	196.04	-0.290	0.350	2.930	195.94	-1.00	3.20	 	 	 	 	 	 	 	 	 	 	 	 	 	 	 	 	 	 	1581504989	8.21	15.20
12/02/2020 10:56:30	120220	12022020	105630	196.01	12.529463	-57.192672	196.11	0.470	0.270	2.010	196.04	-1.20	2.30	 	 	 	 	 	 	 	 	 	 	 	 	 	 	 	 	 	 	1581504990	8.05	14.91
12/02/2020 10:56:31	120220	12022020	105631	196.17	12.529425	-57.192680	196.25	0.960	-0.200	1.090	196.21	-1.70	1.40	 	 	 	 	 	 	 	 	 	 	 	 	 	 	 	 	 	 	1581504991	8.32	15.41
12/02/2020 10:56:32	120220	12022020	105632	196.37	12.529387	-57.192688	196.44	0.830	-0.640	0.690	196.40	-2.10	1.20	 	 	 	 	 	 	 	 	 	 	 	 	 	 	 	 	 	 	1581504992	8.62	15.96
12/02/2020 10:56:33	120220	12022020	105633	196.50	12.529348	-57.192700	196.57	0.240	-0.760	0.940	196.51	-2.10	1.50	 	 	 	 	 	 	 	 	 	 	 	 	 	 	 	 	 	 	1581504993	8.40	15.56
12/02/2020 10:56:34	120220	12022020	105634	196.44	12.529313	-57.192715	196.48	-0.300	-0.660	1.590	196.39	-2.00	2.30	 	 	 	 	 	 	 	 	 	 	 	 	 	 	 	 	 	 	1581504994	8.08	14.96
12/02/2020 10:56:35	120220	12022020	105635	196.09	12.529280	-57.192733	196.12	-0.450	-0.620	2.410	196.00	-2.00	3.00	 	 	 	 	 	 	 	 	 	 	 	 	 	 	 	 	 	 	1581504995	8.16	15.11
12/02/2020 10:56:36	120220	12022020	105636	195.78	12.529247	-57.192753	195.86	-0.330	-0.570	2.790	195.76	-1.90	3.30	 	 	 	 	 	 	 	 	 	 	 	 	 	 	 	 	 	 	1581504996	8.58	15.89
12/02/2020 10:56:37	120220	12022020	105637	195.79	12.529210	-57.192772	195.90	-0.220	-0.360	2.620	195.82	-1.70	3.00	 	 	 	 	 	 	 	 	 	 	 	 	 	 	 	 	 	 	1581504997	8.53	15.80
12/02/2020 10:56:38	120220	12022020	105638	195.97	12.529175	-57.192787	196.08	-0.200	-0.210	2.130	196.01	-1.60	2.50	 	 	 	 	 	 	 	 	 	 	 	 	 	 	 	 	 	 	1581504998	8.30	15.37
12/02/2020 10:56:39	120220	12022020	105639	196.11	12.529138	-57.192800	196.23	-0.210	-0.280	1.580	196.14	-1.70	2.00	 	 	 	 	 	 	 	 	 	 	 	 	 	 	 	 	 	 	1581504999	8.37	15.50
12/02/2020 10:56:40	120220	12022020	105640	196.20	12.529100	-57.192813	196.26	-0.190	-0.330	1.370	196.19	-1.70	1.90	 	 	 	 	 	 	 	 	 	 	 	 	 	 	 	 	 	 	1581505000	8.61	15.95
12/02/2020 10:56:41	120220	12022020	105641	196.06	12.529063	-57.192828	196.11	-0.100	-0.150	1.470	196.04	-1.40	1.90	 	 	 	 	 	 	 	 	 	 	 	 	 	 	 	 	 	 	1581505001	8.58	15.89
12/02/2020 10:56:42	120220	12022020	105642	196.02	12.529028	-57.192845	196.09	0.080	0.400	1.320	196.04	-0.90	1.70	 	 	 	 	 	 	 	 	 	 	 	 	 	 	 	 	 	 	1581505002	8.34	15.45
12/02/2020 10:56:43	120220	12022020	105643	196.20	12.528995	-57.192857	196.27	0.250	0.800	1.020	196.23	-0.60	1.50	 	 	 	 	 	 	 	 	 	 	 	 	 	 	 	 	 	 	1581505003	7.75	14.35
12/02/2020 10:56:44	120220	12022020	105644	196.29	12.528960	-57.192868	196.35	0.340	0.420	1.090	196.29	-1.20	1.70	 	 	 	 	 	 	 	 	 	 	 	 	 	 	 	 	 	 	1581505004	7.84	14.52
12/02/2020 10:56:45	120220	12022020	105645	196.24	12.528922	-57.192882	196.29	0.300	-0.460	1.640	196.21	-2.00	2.30	 	 	 	 	 	 	 	 	 	 	 	 	 	 	 	 	 	 	1581505005	8.58	15.89
12/02/2020 10:56:46	120220	12022020	105646	196.09	12.528883	-57.192900	196.16	0.140	-1.110	2.390	196.06	-2.60	3.00	 	 	 	 	 	 	 	 	 	 	 	 	 	 	 	 	 	 	1581505006	8.98	16.63
12/02/2020 10:56:47	120220	12022020	105647	196.01	12.528848	-57.192918	196.10	-0.080	-1.140	2.890	196.01	-2.40	3.40	 	 	 	 	 	 	 	 	 	 	 	 	 	 	 	 	 	 	1581505007	8.80	16.30
12/02/2020 10:56:48	120220	12022020	105648	196.10	12.528815	-57.192938	196.20	-0.180	-0.630	2.790	196.13	-1.90	3.10	 	 	 	 	 	 	 	 	 	 	 	 	 	 	 	 	 	 	1581505008	8.26	15.30
12/02/2020 10:56:49	120220	12022020	105649	196.26	12.528782	-57.192955	196.36	-0.010	-0.170	2.190	196.29	-1.50	2.50	 	 	 	 	 	 	 	 	 	 	 	 	 	 	 	 	 	 	1581505009	7.69	14.24
12/02/2020 10:56:50	120220	12022020	105650	196.38	12.528748	-57.192967	196.45	0.260	-0.200	1.520	196.38	-1.70	1.90	 	 	 	 	 	 	 	 	 	 	 	 	 	 	 	 	 	 	1581505010	7.83	14.50
12/02/2020 10:56:51	120220	12022020	105651	196.34	12.528710	-57.192977	196.33	0.300	-0.580	1.300	196.30	-2.10	1.80	 	 	 	 	 	 	 	 	 	 	 	 	 	 	 	 	 	 	1581505011	8.44	15.63
12/02/2020 10:56:52	120220	12022020	105652	195.88	12.528670	-57.192990	195.90	0.010	-0.930	1.710	195.78	-2.30	2.30	 	 	 	 	 	 	 	 	 	 	 	 	 	 	 	 	 	 	1581505012	8.88	16.45
12/02/2020 10:56:53	120220	12022020	105653	195.54	12.528632	-57.193007	195.55	-0.400	-0.680	2.170	195.49	-1.90	2.70	 	 	 	 	 	 	 	 	 	 	 	 	 	 	 	 	 	 	1581505013	9.01	16.69
12/02/2020 10:56:54	120220	12022020	105654	195.50	12.528597	-57.193025	195.61	-0.690	0.200	2.250	195.55	-1.00	2.70	 	 	 	 	 	 	 	 	 	 	 	 	 	 	 	 	 	 	1581505014	8.49	15.72
12/02/2020 10:56:55	120220	12022020	105655	195.88	12.528565	-57.193042	196.01	-0.660	0.950	1.990	195.96	-0.40	2.40	 	 	 	 	 	 	 	 	 	 	 	 	 	 	 	 	 	 	1581505015	7.84	14.52
12/02/2020 10:56:56	120220	12022020	105656	196.38	12.528532	-57.193057	196.51	-0.280	0.940	1.420	196.49	-0.60	1.80	 	 	 	 	 	 	 	 	 	 	 	 	 	 	 	 	 	 	1581505016	7.88	14.59
12/02/2020 10:56:57	120220	12022020	105657	196.88	12.528493	-57.193070	197.00	0.230	0.330	0.800	196.98	-1.20	1.20	 	 	 	 	 	 	 	 	 	 	 	 	 	 	 	 	 	 	1581505017	8.46	15.67
12/02/2020 10:56:58	120220	12022020	105658	197.26	12.528455	-57.193083	197.36	0.600	-0.290	0.450	197.31	-1.80	0.90	 	 	 	 	 	 	 	 	 	 	 	 	 	 	 	 	 	 	1581505018	8.72	16.15
12/02/2020 10:56:59	120220	12022020	105659	197.36	12.528418	-57.193095	197.41	0.700	-0.770	0.500	197.33	-2.30	1.10	 	 	 	 	 	 	 	 	 	 	 	 	 	 	 	 	 	 	1581505019	8.48	15.70
12/02/2020 10:57:00	120220	12022020	105700	197.04	12.528382	-57.193108	197.05	0.560	-1.160	1.080	196.93	-2.60	1.80	 	 	 	 	 	 	 	 	 	 	 	 	 	 	 	 	 	 	1581505020	8.30	15.37
12/02/2020 10:57:01	120220	12022020	105701	196.49	12.528345	-57.193125	196.52	0.310	-1.300	1.940	196.39	-2.60	2.60	1015.60	26.20	26.20	20.80	20.90	102.0	72.0	72.0	411.0	26.1	258.00	9.30	72.00	11.00	6033	9355.0	27.5	27.5	1581505021	8.46	15.67
12/02/2020 10:57:02	120220	12022020	105702	196.13	12.528310	-57.193142	196.22	-0.050	-0.920	2.430	196.10	-2.20	3.00	 	 	 	 	 	 	 	 	 	 	 	 	 	 	 	 	 	 	1581505022	8.52	15.78
12/02/2020 10:57:03	120220	12022020	105703	196.10	12.528275	-57.193158	196.23	-0.510	-0.230	2.610	196.13	-1.50	3.10	 	 	 	 	 	 	 	 	 	 	 	 	 	 	 	 	 	 	1581505023	8.19	15.17
12/02/2020 10:57:04	120220	12022020	105704	196.33	12.528242	-57.193177	196.47	-0.900	0.370	2.630	196.39	-0.90	3.10	 	 	 	 	 	 	 	 	 	 	 	 	 	 	 	 	 	 	1581505024	8.05	14.91
12/02/2020 10:57:05	120220	12022020	105705	196.61	12.528210	-57.193195	196.75	-0.930	0.610	2.300	196.66	-0.80	2.60	 	 	 	 	 	 	 	 	 	 	 	 	 	 	 	 	 	 	1581505025	8.16	15.11
12/02/2020 10:57:06	120220	12022020	105706	196.78	12.528173	-57.193213	196.89	-0.470	0.320	1.700	196.80	-1.20	2.00	 	 	 	 	 	 	 	 	 	 	 	 	 	 	 	 	 	 	1581505026	8.38	15.52
12/02/2020 10:57:07	120220	12022020	105707	196.85	12.528135	-57.193227	196.95	0.230	-0.270	1.090	196.87	-1.80	1.50	 	 	 	 	 	 	 	 	 	 	 	 	 	 	 	 	 	 	1581505027	8.80	16.30
12/02/2020 10:57:08	120220	12022020	105708	196.95	12.528095	-57.193238	197.04	0.740	-0.640	0.610	196.98	-2.00	1.00	 	 	 	 	 	 	 	 	 	 	 	 	 	 	 	 	 	 	1581505028	8.97	16.61
12/02/2020 10:57:09	120220	12022020	105709	197.06	12.528057	-57.193250	197.13	0.810	-0.540	0.370	197.07	-1.90	0.90	 	 	 	 	 	 	 	 	 	 	 	 	 	 	 	 	 	 	1581505029	8.59	15.91
12/02/2020 10:57:10	120220	12022020	105710	197.10	12.528022	-57.193260	197.16	0.490	-0.260	0.640	197.10	-1.60	1.30	 	 	 	 	 	 	 	 	 	 	 	 	 	 	 	 	 	 	1581505030	8.08	14.96
12/02/2020 10:57:11	120220	12022020	105711	197.06	12.527987	-57.193275	197.12	-0.020	-0.140	1.470	197.04	-1.50	2.20	 	 	 	 	 	 	 	 	 	 	 	 	 	 	 	 	 	 	1581505031	8.01	14.83
12/02/2020 10:57:12	120220	12022020	105712	196.93	12.527953	-57.193295	197.00	-0.440	-0.210	2.420	196.89	-1.60	3.10	 	 	 	 	 	 	 	 	 	 	 	 	 	 	 	 	 	 	1581505032	8.41	15.58
12/02/2020 10:57:13	120220	12022020	105713	196.76	12.527918	-57.193317	196.84	-0.500	-0.270	2.930	196.72	-1.70	3.40	 	 	 	 	 	 	 	 	 	 	 	 	 	 	 	 	 	 	1581505033	8.78	16.26
12/02/2020 10:57:14	120220	12022020	105714	196.63	12.527883	-57.193338	196.73	-0.210	-0.190	2.810	196.62	-1.60	3.20	 	 	 	 	 	 	 	 	 	 	 	 	 	 	 	 	 	 	1581505034	8.65	16.02
12/02/2020 10:57:15	120220	12022020	105715	196.65	12.527848	-57.193353	196.76	0.150	-0.090	2.160	196.68	-1.50	2.50	 	 	 	 	 	 	 	 	 	 	 	 	 	 	 	 	 	 	1581505035	8.34	15.45
12/02/2020 10:57:16	120220	12022020	105716	196.78	12.527812	-57.193365	196.88	0.300	-0.170	1.490	196.79	-1.60	1.90	 	 	 	 	 	 	 	 	 	 	 	 	 	 	 	 	 	 	1581505036	8.23	15.24
12/02/2020 10:57:17	120220	12022020	105717	196.79	12.527773	-57.193375	196.84	0.240	-0.490	1.200	196.78	-2.00	1.70	 	 	 	 	 	 	 	 	 	 	 	 	 	 	 	 	 	 	1581505037	8.36	15.48
12/02/2020 10:57:18	120220	12022020	105718	196.59	12.527737	-57.193390	196.65	0.130	-0.690	1.240	196.59	-2.10	1.80	 	 	 	 	 	 	 	 	 	 	 	 	 	 	 	 	 	 	1581505038	8.60	15.93
12/02/2020 10:57:19	120220	12022020	105719	196.54	12.527700	-57.193405	196.63	0.000	-0.470	1.330	196.56	-1.80	1.80	 	 	 	 	 	 	 	 	 	 	 	 	 	 	 	 	 	 	1581505039	8.53	15.80
12/02/2020 10:57:20	120220	12022020	105720	196.76	12.527665	-57.193420	196.86	-0.140	-0.070	1.380	196.81	-1.40	1.90	 	 	 	 	 	 	 	 	 	 	 	 	 	 	 	 	 	 	1581505040	8.15	15.09
12/02/2020 10:57:21	120220	12022020	105721	197.02	12.527632	-57.193437	197.12	-0.230	0.050	1.550	197.06	-1.40	2.10	 	 	 	 	 	 	 	 	 	 	 	 	 	 	 	 	 	 	1581505041	8.04	14.89
12/02/2020 10:57:22	120220	12022020	105722	197.10	12.527595	-57.193453	197.17	-0.200	-0.260	1.890	197.08	-1.70	2.40	 	 	 	 	 	 	 	 	 	 	 	 	 	 	 	 	 	 	1581505042	8.42	15.59
12/02/2020 10:57:23	120220	12022020	105723	196.95	12.527558	-57.193472	197.01	-0.040	-0.540	2.090	196.91	-1.90	2.50	 	 	 	 	 	 	 	 	 	 	 	 	 	 	 	 	 	 	1581505043	8.90	16.48
12/02/2020 10:57:24	120220	12022020	105724	196.77	12.527522	-57.193488	196.84	0.180	-0.400	1.930	196.73	-1.70	2.30	 	 	 	 	 	 	 	 	 	 	 	 	 	 	 	 	 	 	1581505044	8.81	16.32
12/02/2020 10:57:25	120220	12022020	105725	196.63	12.527485	-57.193503	196.70	0.360	-0.090	1.520	196.61	-1.40	1.90	 	 	 	 	 	 	 	 	 	 	 	 	 	 	 	 	 	 	1581505045	8.29	15.35
12/02/2020 10:57:26	120220	12022020	105726	196.63	12.527448	-57.193513	196.72	0.340	0.060	1.050	196.63	-1.30	1.50	 	 	 	 	 	 	 	 	 	 	 	 	 	 	 	 	 	 	1581505046	8.17	15.13
12/02/2020 10:57:27	120220	12022020	105727	196.82	12.527412	-57.193525	196.93	-0.000	0.000	0.960	196.82	-1.40	1.50	 	 	 	 	 	 	 	 	 	 	 	 	 	 	 	 	 	 	1581505047	8.29	15.35
12/02/2020 10:57:28	120220	12022020	105728	196.99	12.527375	-57.193540	197.07	-0.420	-0.220	1.400	196.99	-1.70	2.00	 	 	 	 	 	 	 	 	 	 	 	 	 	 	 	 	 	 	1581505048	8.37	15.50
12/02/2020 10:57:29	120220	12022020	105729	197.00	12.527340	-57.193560	197.07	-0.540	-0.490	1.970	196.99	-1.90	2.60	 	 	 	 	 	 	 	 	 	 	 	 	 	 	 	 	 	 	1581505049	8.65	16.02
12/02/2020 10:57:30	120220	12022020	105730	196.82	12.527305	-57.193580	196.89	-0.250	-0.650	2.420	196.77	-2.10	3.00	 	 	 	 	 	 	 	 	 	 	 	 	 	 	 	 	 	 	1581505050	8.78	16.26
12/02/2020 10:57:31	120220	12022020	105731	196.52	12.527270	-57.193600	196.60	0.220	-0.660	2.610	196.48	-2.00	3.00	 	 	 	 	 	 	 	 	 	 	 	 	 	 	 	 	 	 	1581505051	8.73	16.17
12/02/2020 10:57:32	120220	12022020	105732	196.45	12.527233	-57.193617	196.57	0.470	-0.330	2.220	196.48	-1.60	2.50	 	 	 	 	 	 	 	 	 	 	 	 	 	 	 	 	 	 	1581505052	8.58	15.89
12/02/2020 10:57:33	120220	12022020	105733	196.76	12.527197	-57.193628	196.90	0.310	0.150	1.550	196.84	-1.20	1.90	 	 	 	 	 	 	 	 	 	 	 	 	 	 	 	 	 	 	1581505053	8.13	15.06
12/02/2020 10:57:34	120220	12022020	105734	197.16	12.527162	-57.193638	197.28	-0.030	0.230	1.040	197.22	-1.20	1.50	 	 	 	 	 	 	 	 	 	 	 	 	 	 	 	 	 	 	1581505054	7.94	14.70
12/02/2020 10:57:35	120220	12022020	105735	197.42	12.527125	-57.193652	197.53	-0.270	-0.140	0.970	197.46	-1.60	1.50	 	 	 	 	 	 	 	 	 	 	 	 	 	 	 	 	 	 	1581505055	8.38	15.52
12/02/2020 10:57:36	120220	12022020	105736	197.52	12.527087	-57.193668	197.61	-0.270	-0.470	1.310	197.52	-1.90	1.90	 	 	 	 	 	 	 	 	 	 	 	 	 	 	 	 	 	 	1581505056	8.78	16.26
12/02/2020 10:57:37	120220	12022020	105737	197.39	12.527050	-57.193687	197.45	-0.050	-0.660	1.670	197.33	-2.10	2.20	 	 	 	 	 	 	 	 	 	 	 	 	 	 	 	 	 	 	1581505057	8.75	16.21
12/02/2020 10:57:38	120220	12022020	105738	197.09	12.527015	-57.193703	197.17	0.240	-0.670	1.820	197.09	-2.00	2.30	 	 	 	 	 	 	 	 	 	 	 	 	 	 	 	 	 	 	1581505058	8.65	16.02
12/02/2020 10:57:39	120220	12022020	105739	196.89	12.526978	-57.193720	196.98	0.340	-0.410	1.790	196.89	-1.70	2.20	 	 	 	 	 	 	 	 	 	 	 	 	 	 	 	 	 	 	1581505059	8.52	15.78
12/02/2020 10:57:40	120220	12022020	105740	196.85	12.526942	-57.193733	196.95	0.160	0.040	1.680	196.85	-1.30	2.10	 	 	 	 	 	 	 	 	 	 	 	 	 	 	 	 	 	 	1581505060	8.23	15.24
12/02/2020 10:57:41	120220	12022020	105741	196.91	12.526908	-57.193748	197.05	-0.130	0.380	1.590	196.94	-1.00	2.00	 	 	 	 	 	 	 	 	 	 	 	 	 	 	 	 	 	 	1581505061	8.01	14.83
12/02/2020 10:57:42	120220	12022020	105742	197.17	12.526873	-57.193763	197.30	-0.270	0.290	1.500	197.17	-1.20	1.90	 	 	 	 	 	 	 	 	 	 	 	 	 	 	 	 	 	 	1581505062	8.17	15.13
12/02/2020 10:57:43	120220	12022020	105743	197.44	12.526837	-57.193780	197.64	-0.130	-0.190	1.400	197.51	-1.70	1.80	 	 	 	 	 	 	 	 	 	 	 	 	 	 	 	 	 	 	1581505063	8.59	15.91
12/02/2020 10:57:44	120220	12022020	105744	197.80	12.526798	-57.193797	197.91	0.140	-0.690	1.310	197.84	-2.20	1.80	 	 	 	 	 	 	 	 	 	 	 	 	 	 	 	 	 	 	1581505064	8.92	16.52
12/02/2020 10:57:45	120220	12022020	105745	197.90	12.526760	-57.193813	198.00	0.230	-0.880	1.410	197.90	-2.30	1.90	 	 	 	 	 	 	 	 	 	 	 	 	 	 	 	 	 	 	1581505065	8.84	16.37
12/02/2020 10:57:46	120220	12022020	105746	197.76	12.526723	-57.193828	197.83	0.020	-0.720	1.700	197.70	-2.10	2.20	 	 	 	 	 	 	 	 	 	 	 	 	 	 	 	 	 	 	1581505066	8.50	15.74
12/02/2020 10:57:47	120220	12022020	105747	197.43	12.526690	-57.193845	197.51	-0.290	-0.420	2.090	197.37	-1.80	2.60	 	 	 	 	 	 	 	 	 	 	 	 	 	 	 	 	 	 	1581505067	8.25	15.28
12/02/2020 10:57:48	120220	12022020	105748	197.19	12.526655	-57.193863	197.30	-0.430	-0.210	2.250	197.19	-1.60	2.70	 	 	 	 	 	 	 	 	 	 	 	 	 	 	 	 	 	 	1581505068	8.34	15.45
12/02/2020 10:57:49	120220	12022020	105749	197.21	12.526620	-57.193882	197.33	-0.240	-0.060	1.950	197.21	-1.40	2.30	 	 	 	 	 	 	 	 	 	 	 	 	 	 	 	 	 	 	1581505069	8.49	15.72
12/02/2020 10:57:50	120220	12022020	105750	197.40	12.526583	-57.193898	197.51	0.240	-0.030	1.410	197.44	-1.40	1.80	 	 	 	 	 	 	 	 	 	 	 	 	 	 	 	 	 	 	1581505070	8.50	15.74
12/02/2020 10:57:51	120220	12022020	105751	197.49	12.526545	-57.193910	197.58	0.610	-0.150	1.160	197.49	-1.60	1.60	 	 	 	 	 	 	 	 	 	 	 	 	 	 	 	 	 	 	1581505071	8.57	15.87
12/02/2020 10:57:52	120220	12022020	105752	197.48	12.526507	-57.193922	197.57	0.480	-0.270	1.410	197.48	-1.70	2.00	 	 	 	 	 	 	 	 	 	 	 	 	 	 	 	 	 	 	1581505072	8.74	16.19
12/02/2020 10:57:53	120220	12022020	105753	197.43	12.526470	-57.193938	197.52	-0.110	-0.250	2.080	197.43	-1.60	2.70	 	 	 	 	 	 	 	 	 	 	 	 	 	 	 	 	 	 	1581505073	8.70	16.11
12/02/2020 10:57:54	120220	12022020	105754	197.38	12.526435	-57.193960	197.49	-0.640	-0.100	2.720	197.38	-1.40	3.30	 	 	 	 	 	 	 	 	 	 	 	 	 	 	 	 	 	 	1581505074	8.73	16.17
12/02/2020 10:57:55	120220	12022020	105755	197.45	12.526402	-57.193983	197.61	-0.700	0.190	2.820	197.45	-1.10	3.20	 	 	 	 	 	 	 	 	 	 	 	 	 	 	 	 	 	 	1581505075	8.65	16.02
12/02/2020 10:57:56	120220	12022020	105756	197.78	12.526368	-57.194002	197.94	-0.320	0.400	2.250	197.78	-1.00	2.50	 	 	 	 	 	 	 	 	 	 	 	 	 	 	 	 	 	 	1581505076	8.26	15.30
12/02/2020 10:57:57	120220	12022020	105757	198.08	12.526333	-57.194017	198.21	0.270	0.090	1.430	198.08	-1.50	1.70	 	 	 	 	 	 	 	 	 	 	 	 	 	 	 	 	 	 	1581505077	8.04	14.89
12/02/2020 10:57:58	120220	12022020	105758	198.05	12.526295	-57.194028	198.11	0.800	-0.760	0.830	198.05	-2.40	1.20	 	 	 	 	 	 	 	 	 	 	 	 	 	 	 	 	 	 	1581505078	8.50	15.74
12/02/2020 10:57:59	120220	12022020	105759	197.69	12.526255	-57.194040	197.75	0.980	-1.420	0.680	197.69	-2.90	1.20	 	 	 	 	 	 	 	 	 	 	 	 	 	 	 	 	 	 	1581505079	9.08	16.82
12/02/2020 10:58:00	120220	12022020	105800	197.31	12.526215	-57.194052	197.37	0.660	-1.320	1.020	197.31	-2.60	1.60	 	 	 	 	 	 	 	 	 	 	 	 	 	 	 	 	 	 	1581505080	8.90	16.48
12/02/2020 10:58:01	120220	12022020	105801	197.03	12.526180	-57.194068	197.11	0.070	-0.650	1.610	197.03	-1.90	2.20	1015.60	26.20	26.30	21.30	21.30	120.0	74.0	74.0	416.0	26.1	263.00	10.00	78.00	11.40	6401	9815.0	27.5	27.5	1581505081	8.35	15.46
12/02/2020 10:58:02	120220	12022020	105802	196.98	12.526147	-57.194085	197.11	-0.460	0.050	2.200	196.98	-1.20	2.80	 	 	 	 	 	 	 	 	 	 	 	 	 	 	 	 	 	 	1581505082	8.15	15.09
12/02/2020 10:58:03	120220	12022020	105803	197.26	12.526112	-57.194105	197.43	-0.860	0.430	2.630	197.26	-0.90	3.10	 	 	 	 	 	 	 	 	 	 	 	 	 	 	 	 	 	 	1581505083	8.39	15.54
12/02/2020 10:58:04	120220	12022020	105804	197.61	12.526078	-57.194128	197.79	-1.030	0.410	2.770	197.61	-1.00	3.20	 	 	 	 	 	 	 	 	 	 	 	 	 	 	 	 	 	 	1581505084	8.76	16.22
12/02/2020 10:58:05	120220	12022020	105805	197.79	12.526042	-57.194150	197.95	-0.800	0.100	2.570	197.79	-1.40	2.90	 	 	 	 	 	 	 	 	 	 	 	 	 	 	 	 	 	 	1581505085	9.00	16.67
12/02/2020 10:58:06	120220	12022020	105806	197.91	12.526005	-57.194170	198.09	-0.230	-0.080	1.960	197.91	-1.50	2.20	 	 	 	 	 	 	 	 	 	 	 	 	 	 	 	 	 	 	1581505086	9.01	16.69
12/02/2020 10:58:07	120220	12022020	105807	198.10	12.525968	-57.194183	198.30	0.340	-0.040	1.080	198.13	-1.40	1.40	 	 	 	 	 	 	 	 	 	 	 	 	 	 	 	 	 	 	1581505087	8.57	15.87
12/02/2020 10:58:08	120220	12022020	105808	198.17	12.525932	-57.194195	198.27	0.710	-0.220	0.450	198.17	-1.70	0.80	 	 	 	 	 	 	 	 	 	 	 	 	 	 	 	 	 	 	1581505088	8.24	15.26
12/02/2020 10:58:09	120220	12022020	105809	197.88	12.525893	-57.194205	197.95	0.860	-0.620	0.310	197.88	-2.10	0.80	 	 	 	 	 	 	 	 	 	 	 	 	 	 	 	 	 	 	1581505089	8.51	15.76
12/02/2020 10:58:10	120220	12022020	105810	197.50	12.525853	-57.194217	197.57	0.700	-0.690	0.680	197.50	-2.00	1.30	 	 	 	 	 	 	 	 	 	 	 	 	 	 	 	 	 	 	1581505090	8.76	16.22
12/02/2020 10:58:11	120220	12022020	105811	197.28	12.525817	-57.194232	197.38	0.200	-0.400	1.430	197.28	-1.70	2.10	 	 	 	 	 	 	 	 	 	 	 	 	 	 	 	 	 	 	1581505091	8.41	15.58
12/02/2020 10:58:12	120220	12022020	105812	197.27	12.525783	-57.194250	197.42	-0.390	-0.260	2.240	197.27	-1.70	2.90	 	 	 	 	 	 	 	 	 	 	 	 	 	 	 	 	 	 	1581505092	8.27	15.32
12/02/2020 10:58:13	120220	12022020	105813	197.28	12.525750	-57.194273	197.42	-0.680	-0.500	2.930	197.28	-1.90	3.50	 	 	 	 	 	 	 	 	 	 	 	 	 	 	 	 	 	 	1581505093	8.73	16.17
12/02/2020 10:58:14	120220	12022020	105814	197.15	12.525713	-57.194297	197.29	-0.490	-0.710	3.310	197.15	-2.10	3.80	 	 	 	 	 	 	 	 	 	 	 	 	 	 	 	 	 	 	1581505094	9.22	17.08
12/02/2020 10:58:15	120220	12022020	105815	196.95	12.525677	-57.194318	197.10	-0.080	-0.470	3.260	196.95	-1.70	3.60	 	 	 	 	 	 	 	 	 	 	 	 	 	 	 	 	 	 	1581505095	9.07	16.80
12/02/2020 10:58:16	120220	12022020	105816	196.83	12.525642	-57.194335	196.99	0.110	0.060	2.770	196.83	-1.20	3.10	 	 	 	 	 	 	 	 	 	 	 	 	 	 	 	 	 	 	1581505096	8.46	15.67
12/02/2020 10:58:17	120220	12022020	105817	196.90	12.525607	-57.194348	197.07	-0.020	0.450	2.050	196.90	-0.90	2.40	 	 	 	 	 	 	 	 	 	 	 	 	 	 	 	 	 	 	1581505097	8.13	15.06
12/02/2020 10:58:18	120220	12022020	105818	197.05	12.525570	-57.194362	197.19	-0.180	0.510	1.440	197.05	-0.90	1.80	 	 	 	 	 	 	 	 	 	 	 	 	 	 	 	 	 	 	1581505098	8.16	15.11
12/02/2020 10:58:19	120220	12022020	105819	197.13	12.525533	-57.194375	197.29	-0.040	0.260	1.050	197.16	-1.20	1.50	 	 	 	 	 	 	 	 	 	 	 	 	 	 	 	 	 	 	1581505099	8.36	15.48
12/02/2020 10:58:20	120220	12022020	105820	197.32	12.525497	-57.194390	197.45	0.360	-0.180	0.760	197.32	-1.70	1.20	 	 	 	 	 	 	 	 	 	 	 	 	 	 	 	 	 	 	1581505100	8.57	15.87
12/02/2020 10:58:21	120220	12022020	105821	197.46	12.525458	-57.194402	197.61	0.690	-0.640	0.630	197.49	-2.10	1.10	 	 	 	 	 	 	 	 	 	 	 	 	 	 	 	 	 	 	1581505101	8.62	15.96
12/02/2020 10:58:22	120220	12022020	105822	197.55	12.525420	-57.194417	197.65	0.680	-1.030	0.780	197.55	-2.50	1.40	 	 	 	 	 	 	 	 	 	 	 	 	 	 	 	 	 	 	1581505102	8.61	15.95
12/02/2020 10:58:23	120220	12022020	105823	197.39	12.525383	-57.194430	197.46	0.350	-1.290	1.310	197.39	-2.70	2.00	 	 	 	 	 	 	 	 	 	 	 	 	 	 	 	 	 	 	1581505103	8.60	15.93
12/02/2020 10:58:24	120220	12022020	105824	197.02	12.525347	-57.194448	197.09	-0.100	-1.250	2.150	197.02	-2.50	2.80	 	 	 	 	 	 	 	 	 	 	 	 	 	 	 	 	 	 	1581505104	8.75	16.21
12/02/2020 10:58:25	120220	12022020	105825	196.72	12.525312	-57.194468	196.83	-0.490	-0.680	2.930	196.72	-1.90	3.50	 	 	 	 	 	 	 	 	 	 	 	 	 	 	 	 	 	 	1581505105	8.78	16.26
12/02/2020 10:58:26	120220	12022020	105826	196.57	12.525278	-57.194490	196.70	-0.760	0.070	3.380	196.57	-1.20	3.90	 	 	 	 	 	 	 	 	 	 	 	 	 	 	 	 	 	 	1581505106	8.50	15.74
12/02/2020 10:58:27	120220	12022020	105827	196.49	12.525243	-57.194510	196.63	-0.830	0.570	3.430	196.49	-0.80	3.80	 	 	 	 	 	 	 	 	 	 	 	 	 	 	 	 	 	 	1581505107	8.45	15.65
12/02/2020 10:58:28	120220	12022020	105828	196.48	12.525208	-57.194530	196.62	-0.640	0.650	3.060	196.48	-0.80	3.40	 	 	 	 	 	 	 	 	 	 	 	 	 	 	 	 	 	 	1581505108	8.61	15.95
12/02/2020 10:58:29	120220	12022020	105829	196.48	12.525172	-57.194547	196.62	-0.200	0.350	2.330	196.48	-1.10	2.60	 	 	 	 	 	 	 	 	 	 	 	 	 	 	 	 	 	 	1581505109	8.84	16.37
12/02/2020 10:58:30	120220	12022020	105830	196.56	12.525132	-57.194560	196.72	0.290	0.100	1.330	196.56	-1.30	1.60	 	 	 	 	 	 	 	 	 	 	 	 	 	 	 	 	 	 	1581505110	8.95	16.58
12/02/2020 10:58:31	120220	12022020	105831	196.89	12.525093	-57.194572	197.17	0.560	0.140	0.240	197.00	-1.20	0.50	 	 	 	 	 	 	 	 	 	 	 	 	 	 	 	 	 	 	1581505111	8.63	15.98
12/02/2020 10:58:32	120220	12022020	105832	197.68	12.525057	-57.194580	197.82	0.580	0.100	-0.480	197.68	-1.40	-0.00	 	 	 	 	 	 	 	 	 	 	 	 	 	 	 	 	 	 	1581505112	8.04	14.89
12/02/2020 10:58:33	120220	12022020	105833	198.06	12.525022	-57.194592	198.17	0.610	-0.440	-0.350	198.10	-2.00	0.30	 	 	 	 	 	 	 	 	 	 	 	 	 	 	 	 	 	 	1581505113	7.97	14.76
12/02/2020 10:58:34	120220	12022020	105834	197.96	12.524983	-57.194605	198.00	0.710	-1.270	0.560	197.96	-2.80	1.30	 	 	 	 	 	 	 	 	 	 	 	 	 	 	 	 	 	 	1581505114	8.52	15.78
12/02/2020 10:58:35	120220	12022020	105835	197.48	12.524947	-57.194623	197.52	0.640	-1.720	1.830	197.48	-3.10	2.60	 	 	 	 	 	 	 	 	 	 	 	 	 	 	 	 	 	 	1581505115	9.02	16.71
12/02/2020 10:58:36	120220	12022020	105836	196.98	12.524910	-57.194645	197.06	0.180	-1.310	2.970	196.98	-2.50	3.60	 	 	 	 	 	 	 	 	 	 	 	 	 	 	 	 	 	 	1581505116	8.93	16.54
12/02/2020 10:58:37	120220	12022020	105837	196.61	12.524877	-57.194665	196.73	-0.570	-0.340	3.770	196.61	-1.50	4.40	 	 	 	 	 	 	 	 	 	 	 	 	 	 	 	 	 	 	1581505117	8.40	15.56
12/02/2020 10:58:38	120220	12022020	105838	196.29	12.524845	-57.194687	196.41	-1.140	0.370	4.150	196.29	-1.00	4.60	 	 	 	 	 	 	 	 	 	 	 	 	 	 	 	 	 	 	1581505118	8.17	15.13
12/02/2020 10:58:39	120220	12022020	105839	195.99	12.524812	-57.194710	196.12	-1.140	0.440	3.860	195.99	-1.00	4.20	 	 	 	 	 	 	 	 	 	 	 	 	 	 	 	 	 	 	1581505119	8.69	16.09
12/02/2020 10:58:40	120220	12022020	105840	195.98	12.524773	-57.194730	196.16	-0.560	0.430	2.810	195.98	-0.90	2.90	 	 	 	 	 	 	 	 	 	 	 	 	 	 	 	 	 	 	1581505120	9.16	16.96
12/02/2020 10:58:41	120220	12022020	105841	196.57	12.524737	-57.194745	196.78	0.190	0.740	1.080	196.57	-0.60	1.10	 	 	 	 	 	 	 	 	 	 	 	 	 	 	 	 	 	 	1581505121	8.73	16.17
12/02/2020 10:58:42	120220	12022020	105842	197.40	12.524700	-57.194752	197.55	0.660	0.620	-0.520	197.40	-1.00	-0.20	 	 	 	 	 	 	 	 	 	 	 	 	 	 	 	 	 	 	1581505122	8.02	14.85
12/02/2020 10:58:43	120220	12022020	105843	197.80	12.524660	-57.194757	197.86	0.760	-0.480	-0.850	197.80	-2.20	-0.20	 	 	 	 	 	 	 	 	 	 	 	 	 	 	 	 	 	 	1581505123	8.38	15.52
12/02/2020 10:58:44	120220	12022020	105844	197.60	12.524620	-57.194770	197.61	0.600	-1.740	0.210	197.60	-3.30	1.10	 	 	 	 	 	 	 	 	 	 	 	 	 	 	 	 	 	 	1581505124	9.10	16.85
12/02/2020 10:58:45	120220	12022020	105845	196.97	12.524582	-57.194790	196.97	0.270	-1.990	1.940	196.97	-3.20	2.80	 	 	 	 	 	 	 	 	 	 	 	 	 	 	 	 	 	 	1581505125	9.33	17.28
12/02/2020 10:58:46	120220	12022020	105846	196.22	12.524550	-57.194815	196.27	-0.030	-1.050	3.510	196.22	-2.10	4.20	 	 	 	 	 	 	 	 	 	 	 	 	 	 	 	 	 	 	1581505126	8.73	16.17
12/02/2020 10:58:47	120220	12022020	105847	195.75	12.524520	-57.194838	195.86	-0.200	0.160	4.270	195.75	-1.00	4.80	 	 	 	 	 	 	 	 	 	 	 	 	 	 	 	 	 	 	1581505127	7.96	14.74
12/02/2020 10:58:48	120220	12022020	105848	195.65	12.524490	-57.194858	195.80	-0.170	0.700	4.180	195.65	-0.70	4.50	 	 	 	 	 	 	 	 	 	 	 	 	 	 	 	 	 	 	1581505128	7.78	14.41
12/02/2020 10:58:49	120220	12022020	105849	195.70	12.524455	-57.194873	195.85	-0.030	0.380	3.600	195.70	-1.20	3.90	 	 	 	 	 	 	 	 	 	 	 	 	 	 	 	 	 	 	1581505129	8.31	15.39
12/02/2020 10:58:50	120220	12022020	105850	195.74	12.524415	-57.194887	195.89	-0.020	-0.290	2.960	195.74	-1.80	3.30	 	 	 	 	 	 	 	 	 	 	 	 	 	 	 	 	 	 	1581505130	9.04	16.74
12/02/2020 10:58:51	120220	12022020	105851	195.85	12.524373	-57.194900	196.01	-0.220	-0.630	2.430	195.85	-2.00	2.80	 	 	 	 	 	 	 	 	 	 	 	 	 	 	 	 	 	 	1581505131	9.21	17.06
12/02/2020 10:58:52	120220	12022020	105852	196.17	12.524337	-57.194915	196.35	-0.450	-0.300	2.000	196.17	-1.60	2.40	 	 	 	 	 	 	 	 	 	 	 	 	 	 	 	 	 	 	1581505132	8.67	16.06
12/02/2020 10:58:53	120220	12022020	105853	196.58	12.524303	-57.194932	196.74	-0.430	0.260	1.600	196.58	-1.10	2.00	 	 	 	 	 	 	 	 	 	 	 	 	 	 	 	 	 	 	1581505133	7.82	14.48
12/02/2020 10:58:54	120220	12022020	105854	196.76	12.524272	-57.194947	196.86	-0.090	0.360	1.350	196.76	-1.10	1.80	 	 	 	 	 	 	 	 	 	 	 	 	 	 	 	 	 	 	1581505134	7.53	13.95
12/02/2020 10:58:55	120220	12022020	105855	196.66	12.524237	-57.194962	196.74	0.420	-0.130	1.240	196.66	-1.70	1.70	 	 	 	 	 	 	 	 	 	 	 	 	 	 	 	 	 	 	1581505135	8.02	14.85
12/02/2020 10:58:56	120220	12022020	105856	196.50	12.524200	-57.194977	196.60	0.790	-0.590	1.200	196.50	-2.00	1.70	 	 	 	 	 	 	 	 	 	 	 	 	 	 	 	 	 	 	1581505136	8.57	15.87
12/02/2020 10:58:57	120220	12022020	105857	196.53	12.524163	-57.194990	196.67	0.840	-0.610	1.210	196.55	-2.00	1.70	 	 	 	 	 	 	 	 	 	 	 	 	 	 	 	 	 	 	1581505137	8.46	15.67
12/02/2020 10:58:58	120220	12022020	105858	196.70	12.524128	-57.195003	196.80	0.610	-0.470	1.260	196.70	-1.90	1.80	 	 	 	 	 	 	 	 	 	 	 	 	 	 	 	 	 	 	1581505138	7.99	14.80
12/02/2020 10:58:59	120220	12022020	105859	196.65	12.524093	-57.195017	196.72	0.180	-0.520	1.610	196.65	-2.00	2.20	 	 	 	 	 	 	 	 	 	 	 	 	 	 	 	 	 	 	1581505139	7.95	14.72
12/02/2020 10:59:00	120220	12022020	105900	196.30	12.524058	-57.195032	196.36	-0.320	-0.770	2.360	196.30	-2.20	3.00	 	 	 	 	 	 	 	 	 	 	 	 	 	 	 	 	 	 	1581505140	8.38	15.52
12/02/2020 10:59:01	120220	12022020	105901	195.79	12.524022	-57.195053	195.88	-0.660	-0.930	3.060	195.79	-2.30	3.60	1015.60	26.10	26.20	21.20	21.30	132.0	74.0	74.0	418.0	26.2	258.00	9.80	73.00	11.50	6817	9048.0	27.5	27.5	1581505141	8.91	16.50
12/02/2020 10:59:02	120220	12022020	105902	195.38	12.523987	-57.195075	195.48	-0.690	-0.640	3.190	195.38	-1.90	3.60	 	 	 	 	 	 	 	 	 	 	 	 	 	 	 	 	 	 	1581505142	9.02	16.71
12/02/2020 10:59:03	120220	12022020	105903	195.15	12.523952	-57.195093	195.28	-0.510	-0.010	2.770	195.15	-1.30	3.10	 	 	 	 	 	 	 	 	 	 	 	 	 	 	 	 	 	 	1581505143	8.50	15.74
12/02/2020 10:59:04	120220	12022020	105904	195.29	12.523917	-57.195108	195.45	-0.370	0.510	2.020	195.29	-0.80	2.30	 	 	 	 	 	 	 	 	 	 	 	 	 	 	 	 	 	 	1581505144	8.08	14.96
12/02/2020 10:59:05	120220	12022020	105905	195.71	12.523880	-57.195120	195.86	-0.370	0.590	1.340	195.71	-0.90	1.70	 	 	 	 	 	 	 	 	 	 	 	 	 	 	 	 	 	 	1581505145	8.03	14.87
12/02/2020 10:59:06	120220	12022020	105906	196.12	12.523845	-57.195133	196.24	-0.310	0.260	0.860	196.12	-1.20	1.30	 	 	 	 	 	 	 	 	 	 	 	 	 	 	 	 	 	 	1581505146	8.27	15.32
12/02/2020 10:59:07	120220	12022020	105907	196.33	12.523808	-57.195150	196.41	0.070	-0.150	0.740	196.33	-1.60	1.30	 	 	 	 	 	 	 	 	 	 	 	 	 	 	 	 	 	 	1581505147	8.49	15.72
12/02/2020 10:59:08	120220	12022020	105908	196.27	12.523772	-57.195165	196.32	0.640	-0.380	0.870	196.27	-1.80	1.40	 	 	 	 	 	 	 	 	 	 	 	 	 	 	 	 	 	 	1581505148	8.45	15.65
12/02/2020 10:59:09	120220	12022020	105909	196.12	12.523737	-57.195178	196.12	0.990	-0.370	0.990	196.08	-1.80	1.50	 	 	 	 	 	 	 	 	 	 	 	 	 	 	 	 	 	 	1581505149	8.21	15.20
12/02/2020 10:59:10	120220	12022020	105910	195.85	12.523702	-57.195190	195.89	0.910	-0.290	1.260	195.85	-1.70	1.80	 	 	 	 	 	 	 	 	 	 	 	 	 	 	 	 	 	 	1581505150	7.97	14.76
12/02/2020 10:59:11	120220	12022020	105911	195.66	12.523667	-57.195203	195.73	0.530	-0.310	1.620	195.66	-1.70	2.20	 	 	 	 	 	 	 	 	 	 	 	 	 	 	 	 	 	 	1581505151	7.97	14.76
12/02/2020 10:59:12	120220	12022020	105912	195.54	12.523630	-57.195217	195.61	-0.010	-0.570	2.130	195.54	-2.10	2.80	 	 	 	 	 	 	 	 	 	 	 	 	 	 	 	 	 	 	1581505152	8.17	15.13
12/02/2020 10:59:13	120220	12022020	105913	195.32	12.523595	-57.195235	195.40	-0.500	-1.030	2.940	195.32	-2.50	3.60	 	 	 	 	 	 	 	 	 	 	 	 	 	 	 	 	 	 	1581505153	8.63	15.98
12/02/2020 10:59:14	120220	12022020	105914	194.94	12.523558	-57.195258	195.04	-0.760	-1.190	3.690	194.94	-2.50	4.30	 	 	 	 	 	 	 	 	 	 	 	 	 	 	 	 	 	 	1581505154	9.15	16.95
12/02/2020 10:59:15	120220	12022020	105915	194.62	12.523523	-57.195282	194.68	-0.770	-0.600	3.930	194.56	-1.80	4.40	 	 	 	 	 	 	 	 	 	 	 	 	 	 	 	 	 	 	1581505155	8.96	16.59
12/02/2020 10:59:16	120220	12022020	105916	194.46	12.523492	-57.195302	194.62	-0.590	0.340	3.500	194.46	-0.90	3.80	 	 	 	 	 	 	 	 	 	 	 	 	 	 	 	 	 	 	1581505156	8.08	14.96
12/02/2020 10:59:17	120220	12022020	105917	194.78	12.523460	-57.195315	194.97	-0.240	0.810	2.470	194.78	-0.60	2.70	 	 	 	 	 	 	 	 	 	 	 	 	 	 	 	 	 	 	1581505157	7.56	14.00
12/02/2020 10:59:18	120220	12022020	105918	195.37	12.523423	-57.195325	195.54	0.190	0.460	1.230	195.37	-1.10	1.50	 	 	 	 	 	 	 	 	 	 	 	 	 	 	 	 	 	 	1581505158	7.95	14.72
12/02/2020 10:59:19	120220	12022020	105919	195.77	12.523385	-57.195333	195.88	0.570	-0.360	0.550	195.77	-1.90	1.00	 	 	 	 	 	 	 	 	 	 	 	 	 	 	 	 	 	 	1581505159	8.67	16.06
12/02/2020 10:59:20	120220	12022020	105920	195.90	12.523343	-57.195345	195.98	0.710	-0.910	0.480	195.90	-2.30	1.00	 	 	 	 	 	 	 	 	 	 	 	 	 	 	 	 	 	 	1581505160	8.98	16.63
12/02/2020 10:59:21	120220	12022020	105921	195.91	12.523307	-57.195357	195.98	0.520	-0.680	0.680	195.91	-1.90	1.30	 	 	 	 	 	 	 	 	 	 	 	 	 	 	 	 	 	 	1581505161	8.53	15.80
12/02/2020 10:59:22	120220	12022020	105922	195.84	12.523272	-57.195370	195.89	0.110	-0.110	1.080	195.84	-1.40	1.70	 	 	 	 	 	 	 	 	 	 	 	 	 	 	 	 	 	 	1581505162	7.73	14.32
12/02/2020 10:59:23	120220	12022020	105923	195.67	12.523240	-57.195385	195.64	-0.160	-0.000	1.710	195.60	-1.50	2.40	 	 	 	 	 	 	 	 	 	 	 	 	 	 	 	 	 	 	1581505163	7.64	14.15
12/02/2020 10:59:24	120220	12022020	105924	195.21	12.523205	-57.195403	195.26	-0.170	-0.370	2.440	195.21	-1.90	3.10	 	 	 	 	 	 	 	 	 	 	 	 	 	 	 	 	 	 	1581505164	8.41	15.58
12/02/2020 10:59:25	120220	12022020	105925	194.94	12.523168	-57.195422	195.04	-0.150	-0.570	3.070	194.94	-1.90	3.60	 	 	 	 	 	 	 	 	 	 	 	 	 	 	 	 	 	 	1581505165	8.96	16.59
12/02/2020 10:59:26	120220	12022020	105926	195.15	12.523132	-57.195440	195.32	-0.400	-0.240	3.260	195.15	-1.50	3.70	 	 	 	 	 	 	 	 	 	 	 	 	 	 	 	 	 	 	1581505166	8.68	16.08
12/02/2020 10:59:27	120220	12022020	105927	195.74	12.523100	-57.195458	195.93	-0.730	0.200	2.920	195.74	-1.20	3.30	 	 	 	 	 	 	 	 	 	 	 	 	 	 	 	 	 	 	1581505167	7.97	14.76
12/02/2020 10:59:28	120220	12022020	105928	196.30	12.523067	-57.195475	196.46	-0.650	0.120	2.290	196.30	-1.40	2.60	 	 	 	 	 	 	 	 	 	 	 	 	 	 	 	 	 	 	1581505168	7.81	14.46
12/02/2020 10:59:29	120220	12022020	105929	196.53	12.523033	-57.195492	196.63	0.010	-0.320	1.680	196.53	-1.80	2.10	 	 	 	 	 	 	 	 	 	 	 	 	 	 	 	 	 	 	1581505169	8.28	15.33
12/02/2020 10:59:30	120220	12022020	105930	196.45	12.522995	-57.195507	196.53	0.770	-0.530	1.190	196.45	-1.90	1.60	 	 	 	 	 	 	 	 	 	 	 	 	 	 	 	 	 	 	1581505170	8.56	15.85
12/02/2020 10:59:31	120220	12022020	105931	196.41	12.522958	-57.195517	196.49	1.010	-0.350	0.890	196.41	-1.70	1.40	 	 	 	 	 	 	 	 	 	 	 	 	 	 	 	 	 	 	1581505171	8.28	15.33
12/02/2020 10:59:32	120220	12022020	105932	196.41	12.522923	-57.195528	196.48	0.650	-0.170	0.920	196.41	-1.60	1.50	 	 	 	 	 	 	 	 	 	 	 	 	 	 	 	 	 	 	1581505172	7.92	14.67
12/02/2020 10:59:33	120220	12022020	105933	196.37	12.522888	-57.195542	196.43	0.030	-0.220	1.340	196.35	-1.60	2.00	 	 	 	 	 	 	 	 	 	 	 	 	 	 	 	 	 	 	1581505173	8.00	14.82
12/02/2020 10:59:34	120220	12022020	105934	196.24	12.522853	-57.195558	196.32	-0.460	-0.370	1.990	196.24	-1.80	2.60	 	 	 	 	 	 	 	 	 	 	 	 	 	 	 	 	 	 	1581505174	8.34	15.45
12/02/2020 10:59:35	120220	12022020	105935	196.06	12.522818	-57.195578	196.14	-0.600	-0.520	2.560	196.06	-1.90	3.10	 	 	 	 	 	 	 	 	 	 	 	 	 	 	 	 	 	 	1581505175	8.63	15.98
12/02/2020 10:59:36	120220	12022020	105936	195.89	12.522783	-57.195598	196.00	-0.390	-0.530	2.710	195.89	-1.90	3.20	 	 	 	 	 	 	 	 	 	 	 	 	 	 	 	 	 	 	1581505176	8.71	16.13
12/02/2020 10:59:37	120220	12022020	105937	195.85	12.522748	-57.195617	195.96	-0.050	-0.510	2.420	195.85	-1.90	2.80	 	 	 	 	 	 	 	 	 	 	 	 	 	 	 	 	 	 	1581505177	8.50	15.74
12/02/2020 10:59:38	120220	12022020	105938	195.83	12.522712	-57.195632	195.94	0.140	-0.460	1.940	195.83	-1.80	2.30	 	 	 	 	 	 	 	 	 	 	 	 	 	 	 	 	 	 	1581505178	8.41	15.58
12/02/2020 10:59:39	120220	12022020	105939	195.83	12.522675	-57.195643	195.94	0.020	-0.210	1.530	195.83	-1.50	2.00	 	 	 	 	 	 	 	 	 	 	 	 	 	 	 	 	 	 	1581505179	8.38	15.52
12/02/2020 10:59:40	120220	12022020	105940	195.98	12.522638	-57.195657	196.10	-0.330	0.270	1.350	195.98	-1.00	1.90	 	 	 	 	 	 	 	 	 	 	 	 	 	 	 	 	 	 	1581505180	8.09	14.98
12/02/2020 10:59:41	120220	12022020	105941	196.05	12.522605	-57.195672	196.13	-0.500	0.500	1.510	196.05	-0.90	2.10	 	 	 	 	 	 	 	 	 	 	 	 	 	 	 	 	 	 	1581505181	7.79	14.43
12/02/2020 10:59:42	120220	12022020	105942	195.69	12.522572	-57.195688	195.72	-0.170	0.100	1.950	195.69	-1.40	2.60	 	 	 	 	 	 	 	 	 	 	 	 	 	 	 	 	 	 	1581505182	8.12	15.04
12/02/2020 10:59:43	120220	12022020	105943	195.06	12.522535	-57.195707	195.12	0.430	-0.460	2.460	195.06	-1.90	3.00	 	 	 	 	 	 	 	 	 	 	 	 	 	 	 	 	 	 	1581505183	8.85	16.39
12/02/2020 10:59:44	120220	12022020	105944	194.74	12.522497	-57.195723	194.87	0.750	-0.430	2.660	194.74	-1.70	3.10	 	 	 	 	 	 	 	 	 	 	 	 	 	 	 	 	 	 	1581505184	8.93	16.54
12/02/2020 10:59:45	120220	12022020	105945	194.94	12.522462	-57.195738	195.12	0.590	0.120	2.330	194.94	-1.20	2.70	 	 	 	 	 	 	 	 	 	 	 	 	 	 	 	 	 	 	1581505185	8.10	15.00
12/02/2020 10:59:46	120220	12022020	105946	195.40	12.522430	-57.195752	195.56	0.300	0.350	1.730	195.40	-1.10	2.10	 	 	 	 	 	 	 	 	 	 	 	 	 	 	 	 	 	 	1581505186	7.37	13.65
12/02/2020 10:59:47	120220	12022020	105947	195.68	12.522397	-57.195763	195.81	0.250	-0.320	1.360	195.68	-1.90	1.80	 	 	 	 	 	 	 	 	 	 	 	 	 	 	 	 	 	 	1581505187	7.71	14.28
12/02/2020 10:59:48	120220	12022020	105948	195.74	12.522358	-57.195777	195.85	0.260	-1.270	1.520	195.74	-2.80	2.10	 	 	 	 	 	 	 	 	 	 	 	 	 	 	 	 	 	 	1581505188	8.68	16.08
12/02/2020 10:59:49	120220	12022020	105949	195.67	12.522320	-57.195793	195.78	-0.030	-1.580	1.970	195.67	-2.90	2.60	 	 	 	 	 	 	 	 	 	 	 	 	 	 	 	 	 	 	1581505189	8.93	16.54
12/02/2020 10:59:50	120220	12022020	105950	195.54	12.522285	-57.195810	195.64	-0.560	-1.160	2.480	195.54	-2.40	3.10	 	 	 	 	 	 	 	 	 	 	 	 	 	 	 	 	 	 	1581505190	8.43	15.61
12/02/2020 10:59:51	120220	12022020	105951	195.32	12.522252	-57.195830	195.33	-0.850	-0.640	2.940	195.24	-1.90	3.50	 	 	 	 	 	 	 	 	 	 	 	 	 	 	 	 	 	 	1581505191	8.10	15.00
12/02/2020 10:59:52	120220	12022020	105952	194.85	12.522218	-57.195850	194.97	-0.590	-0.240	3.020	194.85	-1.50	3.40	 	 	 	 	 	 	 	 	 	 	 	 	 	 	 	 	 	 	1581505192	8.38	15.52
12/02/2020 10:59:53	120220	12022020	105953	194.71	12.522182	-57.195865	194.86	-0.070	0.220	2.620	194.71	-1.10	3.00	 	 	 	 	 	 	 	 	 	 	 	 	 	 	 	 	 	 	1581505193	8.55	15.83
12/02/2020 10:59:54	120220	12022020	105954	194.81	12.522145	-57.195877	194.97	0.240	0.600	2.050	194.81	-0.80	2.40	 	 	 	 	 	 	 	 	 	 	 	 	 	 	 	 	 	 	1581505194	8.38	15.52
12/02/2020 10:59:55	120220	12022020	105955	195.01	12.522107	-57.195887	195.16	0.170	0.690	1.570	195.01	-0.70	2.00	 	 	 	 	 	 	 	 	 	 	 	 	 	 	 	 	 	 	1581505195	8.33	15.43
12/02/2020 10:59:56	120220	12022020	105956	195.21	12.522070	-57.195900	195.33	-0.010	0.490	1.460	195.21	-1.00	2.00	 	 	 	 	 	 	 	 	 	 	 	 	 	 	 	 	 	 	1581505196	8.37	15.50
12/02/2020 10:59:57	120220	12022020	105957	195.34	12.522033	-57.195913	195.46	0.000	0.210	1.600	195.34	-1.20	2.10	 	 	 	 	 	 	 	 	 	 	 	 	 	 	 	 	 	 	1581505197	8.42	15.59
12/02/2020 10:59:58	120220	12022020	105958	195.45	12.521998	-57.195930	195.56	0.170	0.030	1.630	195.45	-1.40	2.10	 	 	 	 	 	 	 	 	 	 	 	 	 	 	 	 	 	 	1581505198	8.27	15.32
12/02/2020 10:59:59	120220	12022020	105959	195.44	12.521963	-57.195943	195.49	0.290	-0.320	1.690	195.42	-1.90	2.20	 	 	 	 	 	 	 	 	 	 	 	 	 	 	 	 	 	 	1581505199	7.99	14.80
12/02/2020 11:00:00	120220	12022020	110000	195.12	12.521928	-57.195958	195.18	0.320	-0.940	2.020	195.12	-2.40	2.60	 	 	 	 	 	 	 	 	 	 	 	 	 	 	 	 	 	 	1581505200	8.21	15.20
12/02/2020 11:00:01	120220	12022020	110001	194.76	12.521892	-57.195977	194.84	0.270	-1.260	2.340	194.76	-2.60	2.90	1015.70	26.20	26.20	21.30	21.40	130.0	74.0	74.0	414.0	26.2	262.00	9.30	74.00	10.70	7077	9236.0	27.5	27.5	1581505201	8.57	15.87
12/02/2020 11:00:02	120220	12022020	110002	194.46	12.521857	-57.195992	194.54	0.160	-1.040	2.460	194.46	-2.30	2.90	 	 	 	 	 	 	 	 	 	 	 	 	 	 	 	 	 	 	1581505202	8.32	15.41
12/02/2020 11:00:03	120220	12022020	110003	194.27	12.521823	-57.196007	194.36	-0.000	-0.670	2.320	194.27	-2.00	2.70	 	 	 	 	 	 	 	 	 	 	 	 	 	 	 	 	 	 	1581505203	7.95	14.72
12/02/2020 11:00:04	120220	12022020	110004	194.20	12.521788	-57.196020	194.29	-0.160	-0.420	2.080	194.20	-1.70	2.50	 	 	 	 	 	 	 	 	 	 	 	 	 	 	 	 	 	 	1581505204	8.04	14.89
12/02/2020 11:00:05	120220	12022020	110005	194.29	12.521752	-57.196035	194.40	-0.220	-0.160	1.750	194.29	-1.50	2.10	 	 	 	 	 	 	 	 	 	 	 	 	 	 	 	 	 	 	1581505205	8.30	15.37
12/02/2020 11:00:06	120220	12022020	110006	194.51	12.521717	-57.196048	194.61	-0.120	0.090	1.270	194.51	-1.30	1.70	 	 	 	 	 	 	 	 	 	 	 	 	 	 	 	 	 	 	1581505206	8.26	15.30
12/02/2020 11:00:07	120220	12022020	110007	194.65	12.521680	-57.196060	194.73	0.040	0.050	1.020	194.65	-1.40	1.50	 	 	 	 	 	 	 	 	 	 	 	 	 	 	 	 	 	 	1581505207	8.25	15.28
12/02/2020 11:00:08	120220	12022020	110008	194.62	12.521642	-57.196070	194.71	0.010	-0.230	1.410	194.62	-1.60	2.10	 	 	 	 	 	 	 	 	 	 	 	 	 	 	 	 	 	 	1581505208	8.60	15.93
12/02/2020 11:00:09	120220	12022020	110009	194.65	12.521603	-57.196085	194.76	-0.300	-0.350	2.180	194.66	-1.70	2.90	 	 	 	 	 	 	 	 	 	 	 	 	 	 	 	 	 	 	1581505209	8.83	16.35
12/02/2020 11:00:10	120220	12022020	110010	194.61	12.521567	-57.196105	194.70	-0.630	-0.250	2.990	194.61	-1.60	3.60	 	 	 	 	 	 	 	 	 	 	 	 	 	 	 	 	 	 	1581505210	8.67	16.06
12/02/2020 11:00:11	120220	12022020	110011	194.31	12.521533	-57.196125	194.28	-0.580	-0.230	3.620	194.21	-1.60	4.20	 	 	 	 	 	 	 	 	 	 	 	 	 	 	 	 	 	 	1581505211	8.51	15.76
12/02/2020 11:00:12	120220	12022020	110012	193.81	12.521497	-57.196143	193.91	-0.170	-0.150	3.640	193.81	-1.40	4.00	 	 	 	 	 	 	 	 	 	 	 	 	 	 	 	 	 	 	1581505212	8.69	16.09
12/02/2020 11:00:13	120220	12022020	110013	193.84	12.521460	-57.196158	194.05	0.190	0.350	2.900	193.90	-0.90	3.10	 	 	 	 	 	 	 	 	 	 	 	 	 	 	 	 	 	 	1581505213	8.37	15.50
12/02/2020 11:00:14	120220	12022020	110014	194.31	12.521427	-57.196168	194.44	0.350	0.740	1.810	194.31	-0.60	2.00	 	 	 	 	 	 	 	 	 	 	 	 	 	 	 	 	 	 	1581505214	7.60	14.08
12/02/2020 11:00:15	120220	12022020	110015	194.71	12.521393	-57.196177	194.82	0.500	0.390	0.830	194.71	-1.20	1.20	 	 	 	 	 	 	 	 	 	 	 	 	 	 	 	 	 	 	1581505215	7.57	14.02
12/02/2020 11:00:16	120220	12022020	110016	194.95	12.521355	-57.196185	195.02	0.690	-0.560	0.440	194.95	-2.10	1.00	 	 	 	 	 	 	 	 	 	 	 	 	 	 	 	 	 	 	1581505216	8.25	15.28
12/02/2020 11:00:17	120220	12022020	110017	194.90	12.521315	-57.196195	194.94	0.690	-1.450	0.830	194.90	-2.90	1.50	 	 	 	 	 	 	 	 	 	 	 	 	 	 	 	 	 	 	1581505217	8.75	16.21
12/02/2020 11:00:18	120220	12022020	110018	194.56	12.521278	-57.196210	194.58	0.340	-1.740	1.720	194.56	-3.00	2.40	 	 	 	 	 	 	 	 	 	 	 	 	 	 	 	 	 	 	1581505218	8.78	16.26
12/02/2020 11:00:19	120220	12022020	110019	194.17	12.521242	-57.196228	194.23	-0.250	-1.290	2.600	194.17	-2.40	3.20	 	 	 	 	 	 	 	 	 	 	 	 	 	 	 	 	 	 	1581505219	8.54	15.82
12/02/2020 11:00:20	120220	12022020	110020	194.11	12.521210	-57.196248	194.21	-0.730	-0.370	2.940	194.11	-1.50	3.40	 	 	 	 	 	 	 	 	 	 	 	 	 	 	 	 	 	 	1581505220	8.14	15.08
12/02/2020 11:00:21	120220	12022020	110021	194.22	12.521177	-57.196265	194.31	-0.810	0.290	2.850	194.22	-1.00	3.30	 	 	 	 	 	 	 	 	 	 	 	 	 	 	 	 	 	 	1581505221	7.77	14.39
12/02/2020 11:00:22	120220	12022020	110022	194.28	12.521143	-57.196280	194.37	-0.480	0.290	2.470	194.28	-1.10	2.80	 	 	 	 	 	 	 	 	 	 	 	 	 	 	 	 	 	 	1581505222	8.15	15.09
12/02/2020 11:00:23	120220	12022020	110023	194.43	12.521103	-57.196293	194.53	-0.070	0.020	1.920	194.43	-1.40	2.30	 	 	 	 	 	 	 	 	 	 	 	 	 	 	 	 	 	 	1581505223	8.80	16.30
12/02/2020 11:00:24	120220	12022020	110024	194.66	12.521065	-57.196305	194.75	0.120	-0.040	1.470	194.66	-1.40	1.90	 	 	 	 	 	 	 	 	 	 	 	 	 	 	 	 	 	 	1581505224	8.88	16.45
12/02/2020 11:00:25	120220	12022020	110025	194.95	12.521027	-57.196317	195.05	0.050	0.160	1.200	194.95	-1.20	1.70	 	 	 	 	 	 	 	 	 	 	 	 	 	 	 	 	 	 	1581505225	8.46	15.67
12/02/2020 11:00:26	120220	12022020	110026	195.32	12.520992	-57.196330	195.41	-0.090	0.290	1.150	195.32	-1.10	1.70	 	 	 	 	 	 	 	 	 	 	 	 	 	 	 	 	 	 	1581505226	8.06	14.93
12/02/2020 11:00:27	120220	12022020	110027	195.44	12.520957	-57.196343	195.45	0.020	-0.060	1.450	195.42	-1.60	2.10	 	 	 	 	 	 	 	 	 	 	 	 	 	 	 	 	 	 	1581505227	8.07	14.95
12/02/2020 11:00:28	120220	12022020	110028	195.08	12.520920	-57.196360	195.11	0.380	-0.720	1.950	195.08	-2.20	2.60	 	 	 	 	 	 	 	 	 	 	 	 	 	 	 	 	 	 	1581505228	8.62	15.96
12/02/2020 11:00:29	120220	12022020	110029	194.64	12.520880	-57.196375	194.69	0.470	-0.870	2.410	194.64	-2.10	3.00	 	 	 	 	 	 	 	 	 	 	 	 	 	 	 	 	 	 	1581505229	8.91	16.50
12/02/2020 11:00:30	120220	12022020	110030	194.44	12.520845	-57.196388	194.55	0.020	-0.370	2.610	194.44	-1.60	3.10	 	 	 	 	 	 	 	 	 	 	 	 	 	 	 	 	 	 	1581505230	8.36	15.48
12/02/2020 11:00:31	120220	12022020	110031	194.70	12.520812	-57.196403	194.86	-0.650	0.290	2.470	194.70	-0.90	2.90	 	 	 	 	 	 	 	 	 	 	 	 	 	 	 	 	 	 	1581505231	7.73	14.32
12/02/2020 11:00:32	120220	12022020	110032	195.25	12.520780	-57.196422	195.41	-0.880	0.510	2.050	195.25	-0.90	2.40	 	 	 	 	 	 	 	 	 	 	 	 	 	 	 	 	 	 	1581505232	7.64	14.15
12/02/2020 11:00:33	120220	12022020	110033	195.72	12.520747	-57.196438	195.85	-0.240	0.030	1.390	195.72	-1.50	1.70	 	 	 	 	 	 	 	 	 	 	 	 	 	 	 	 	 	 	1581505233	8.05	14.91
12/02/2020 11:00:34	120220	12022020	110034	195.84	12.520710	-57.196453	195.91	0.880	-0.860	0.770	195.84	-2.40	1.20	 	 	 	 	 	 	 	 	 	 	 	 	 	 	 	 	 	 	1581505234	8.67	16.06
12/02/2020 11:00:35	120220	12022020	110035	195.62	12.520668	-57.196463	195.68	1.520	-1.370	0.640	195.62	-2.70	1.20	 	 	 	 	 	 	 	 	 	 	 	 	 	 	 	 	 	 	1581505235	9.09	16.83
12/02/2020 11:00:36	120220	12022020	110036	195.45	12.520628	-57.196473	195.55	1.030	-1.000	1.030	195.45	-2.20	1.70	 	 	 	 	 	 	 	 	 	 	 	 	 	 	 	 	 	 	1581505236	8.70	16.11
12/02/2020 11:00:37	120220	12022020	110037	195.48	12.520595	-57.196485	195.59	-0.240	-0.240	1.720	195.49	-1.50	2.40	 	 	 	 	 	 	 	 	 	 	 	 	 	 	 	 	 	 	1581505237	7.86	14.56
12/02/2020 11:00:38	120220	12022020	110038	195.34	12.520563	-57.196503	195.43	-1.260	0.050	2.610	195.34	-1.40	3.30	 	 	 	 	 	 	 	 	 	 	 	 	 	 	 	 	 	 	1581505238	7.80	14.45
12/02/2020 11:00:39	120220	12022020	110039	194.83	12.520528	-57.196527	194.93	-1.320	-0.370	3.510	194.83	-1.80	4.20	 	 	 	 	 	 	 	 	 	 	 	 	 	 	 	 	 	 	1581505239	8.83	16.35
12/02/2020 11:00:40	120220	12022020	110040	194.37	12.520490	-57.196552	194.51	-0.720	-0.590	3.900	194.37	-1.90	4.40	 	 	 	 	 	 	 	 	 	 	 	 	 	 	 	 	 	 	1581505240	9.73	18.02
12/02/2020 11:00:41	120220	12022020	110041	194.31	12.520452	-57.196572	194.49	-0.160	-0.020	3.520	194.31	-1.20	3.80	 	 	 	 	 	 	 	 	 	 	 	 	 	 	 	 	 	 	1581505241	9.24	17.11
12/02/2020 11:00:42	120220	12022020	110042	194.58	12.520418	-57.196587	194.76	-0.010	0.870	2.540	194.58	-0.30	2.80	 	 	 	 	 	 	 	 	 	 	 	 	 	 	 	 	 	 	1581505242	8.02	14.85
12/02/2020 11:00:43	120220	12022020	110043	195.09	12.520385	-57.196597	195.27	-0.050	1.330	1.310	195.09	-0.00	1.60	 	 	 	 	 	 	 	 	 	 	 	 	 	 	 	 	 	 	1581505243	7.41	13.72
12/02/2020 11:00:44	120220	12022020	110044	195.75	12.520350	-57.196605	195.92	0.080	1.030	0.300	195.75	-0.50	0.70	 	 	 	 	 	 	 	 	 	 	 	 	 	 	 	 	 	 	1581505244	7.57	14.02
12/02/2020 11:00:45	120220	12022020	110045	196.12	12.520315	-57.196613	196.23	0.530	-0.120	-0.020	196.15	-1.90	0.60	 	 	 	 	 	 	 	 	 	 	 	 	 	 	 	 	 	 	1581505245	8.01	14.83
12/02/2020 11:00:46	120220	12022020	110046	195.82	12.520275	-57.196625	195.82	1.090	-1.780	0.590	195.82	-3.50	1.40	 	 	 	 	 	 	 	 	 	 	 	 	 	 	 	 	 	 	1581505246	8.74	16.19
12/02/2020 11:00:47	120220	12022020	110047	194.89	12.520235	-57.196642	194.89	1.340	-2.740	1.800	194.89	-4.10	2.60	 	 	 	 	 	 	 	 	 	 	 	 	 	 	 	 	 	 	1581505247	9.38	17.37
12/02/2020 11:00:48	120220	12022020	110048	194.09	12.520197	-57.196660	194.16	0.860	-2.060	2.850	194.09	-3.00	3.50	 	 	 	 	 	 	 	 	 	 	 	 	 	 	 	 	 	 	1581505248	8.97	16.61
12/02/2020 11:00:49	120220	12022020	110049	193.86	12.520165	-57.196677	193.98	-0.140	-0.380	3.330	193.85	-1.40	3.90	 	 	 	 	 	 	 	 	 	 	 	 	 	 	 	 	 	 	1581505249	7.70	14.26
12/02/2020 11:00:50	120220	12022020	110050	193.94	12.520137	-57.196693	194.10	-1.040	0.840	3.480	193.94	-0.40	4.00	 	 	 	 	 	 	 	 	 	 	 	 	 	 	 	 	 	 	1581505250	7.19	13.32
12/02/2020 11:00:51	120220	12022020	110051	194.21	12.520105	-57.196713	194.38	-1.320	1.060	3.360	194.21	-0.30	3.80	 	 	 	 	 	 	 	 	 	 	 	 	 	 	 	 	 	 	1581505251	7.97	14.76
12/02/2020 11:00:52	120220	12022020	110052	194.61	12.520068	-57.196732	194.80	-0.990	0.720	2.940	194.61	-0.70	3.30	 	 	 	 	 	 	 	 	 	 	 	 	 	 	 	 	 	 	1581505252	8.84	16.37
12/02/2020 11:00:53	120220	12022020	110053	195.13	12.520030	-57.196750	195.32	-0.370	0.340	2.250	195.13	-1.10	2.60	 	 	 	 	 	 	 	 	 	 	 	 	 	 	 	 	 	 	1581505253	8.98	16.63
12/02/2020 11:00:54	120220	12022020	110054	195.62	12.519992	-57.196762	195.76	0.230	0.020	1.410	195.62	-1.40	1.70	 	 	 	 	 	 	 	 	 	 	 	 	 	 	 	 	 	 	1581505254	8.58	15.89
12/02/2020 11:00:55	120220	12022020	110055	195.81	12.519955	-57.196772	195.91	0.680	-0.380	0.820	195.81	-1.80	1.30	 	 	 	 	 	 	 	 	 	 	 	 	 	 	 	 	 	 	1581505255	8.26	15.30
12/02/2020 11:00:56	120220	12022020	110056	195.68	12.519918	-57.196782	195.75	0.810	-0.740	0.830	195.68	-2.10	1.40	 	 	 	 	 	 	 	 	 	 	 	 	 	 	 	 	 	 	1581505256	8.27	15.32
12/02/2020 11:00:57	120220	12022020	110057	195.39	12.519882	-57.196793	195.45	0.590	-0.760	1.280	195.39	-2.10	1.90	 	 	 	 	 	 	 	 	 	 	 	 	 	 	 	 	 	 	1581505257	8.15	15.09
12/02/2020 11:00:58	120220	12022020	110058	194.94	12.519848	-57.196808	194.98	0.240	-0.640	1.920	194.94	-2.00	2.60	 	 	 	 	 	 	 	 	 	 	 	 	 	 	 	 	 	 	1581505258	7.91	14.65
12/02/2020 11:00:59	120220	12022020	110059	194.41	12.519815	-57.196825	194.48	0.020	-0.680	2.590	194.41	-2.00	3.20	 	 	 	 	 	 	 	 	 	 	 	 	 	 	 	 	 	 	1581505259	8.12	15.04
12/02/2020 11:01:00	120220	12022020	110100	194.12	12.519778	-57.196843	194.24	-0.030	-0.660	2.940	194.12	-2.00	3.40	 	 	 	 	 	 	 	 	 	 	 	 	 	 	 	 	 	 	1581505260	8.57	15.87
12/02/2020 11:01:01	120220	12022020	110101	194.22	12.519743	-57.196860	194.45	-0.120	-0.340	2.810	194.28	-1.60	3.20	1015.60	26.10	26.20	20.80	20.90	120.0	72.0	72.0	411.0	26.2	264.00	10.80	78.00	12.00	7267	9927.0	27.5	27.5	1581505261	8.55	15.83
12/02/2020 11:01:02	120220	12022020	110102	194.70	12.519708	-57.196875	194.87	-0.330	0.110	2.500	194.70	-1.20	2.90	 	 	 	 	 	 	 	 	 	 	 	 	 	 	 	 	 	 	1581505262	8.17	15.13
12/02/2020 11:01:03	120220	12022020	110103	194.95	12.519673	-57.196890	195.12	-0.440	0.320	2.210	194.99	-1.00	2.60	 	 	 	 	 	 	 	 	 	 	 	 	 	 	 	 	 	 	1581505263	8.00	14.82
12/02/2020 11:01:04	120220	12022020	110104	195.24	12.519638	-57.196905	195.39	-0.340	0.380	1.880	195.24	-1.00	2.30	 	 	 	 	 	 	 	 	 	 	 	 	 	 	 	 	 	 	1581505264	8.18	15.15
12/02/2020 11:01:05	120220	12022020	110105	195.75	12.519603	-57.196918	195.91	-0.200	0.420	1.430	195.75	-1.00	1.80	 	 	 	 	 	 	 	 	 	 	 	 	 	 	 	 	 	 	1581505265	8.11	15.02
12/02/2020 11:01:06	120220	12022020	110106	196.17	12.519568	-57.196930	196.28	-0.020	0.120	1.080	196.17	-1.40	1.60	 	 	 	 	 	 	 	 	 	 	 	 	 	 	 	 	 	 	1581505266	7.87	14.58
12/02/2020 11:01:07	120220	12022020	110107	196.02	12.519533	-57.196945	196.07	0.380	-0.800	1.190	196.02	-2.40	1.80	 	 	 	 	 	 	 	 	 	 	 	 	 	 	 	 	 	 	1581505267	8.18	15.15
12/02/2020 11:01:08	120220	12022020	110108	195.39	12.519493	-57.196958	195.43	0.850	-1.700	1.690	195.39	-3.10	2.30	 	 	 	 	 	 	 	 	 	 	 	 	 	 	 	 	 	 	1581505268	8.97	16.61
12/02/2020 11:01:09	120220	12022020	110109	194.91	12.519453	-57.196973	195.00	0.810	-1.530	2.250	194.91	-2.70	2.90	 	 	 	 	 	 	 	 	 	 	 	 	 	 	 	 	 	 	1581505269	9.10	16.85
12/02/2020 11:01:10	120220	12022020	110110	194.88	12.519418	-57.196988	195.02	0.060	-0.270	2.730	194.88	-1.30	3.30	 	 	 	 	 	 	 	 	 	 	 	 	 	 	 	 	 	 	1581505270	8.06	14.93
12/02/2020 11:01:11	120220	12022020	110111	195.11	12.519390	-57.197005	195.27	-0.840	1.020	2.970	195.11	-0.20	3.50	 	 	 	 	 	 	 	 	 	 	 	 	 	 	 	 	 	 	1581505271	7.15	13.24
12/02/2020 11:01:12	120220	12022020	110112	195.37	12.519362	-57.197023	195.53	-1.080	1.330	2.880	195.37	-0.10	3.30	 	 	 	 	 	 	 	 	 	 	 	 	 	 	 	 	 	 	1581505272	7.36	13.63
12/02/2020 11:01:13	120220	12022020	110113	195.67	12.519327	-57.197042	195.84	-0.450	0.710	2.310	195.67	-0.90	2.60	 	 	 	 	 	 	 	 	 	 	 	 	 	 	 	 	 	 	1581505273	8.28	15.33
12/02/2020 11:01:14	120220	12022020	110114	196.01	12.519288	-57.197057	196.17	0.430	-0.150	1.590	196.01	-1.70	2.00	 	 	 	 	 	 	 	 	 	 	 	 	 	 	 	 	 	 	1581505274	8.81	16.32
12/02/2020 11:01:15	120220	12022020	110115	196.21	12.519250	-57.197068	196.33	0.900	-0.930	1.190	196.21	-2.40	1.70	 	 	 	 	 	 	 	 	 	 	 	 	 	 	 	 	 	 	1581505275	8.72	16.15
12/02/2020 11:01:16	120220	12022020	110116	196.05	12.519212	-57.197080	196.14	0.840	-1.450	1.210	196.05	-2.90	1.80	 	 	 	 	 	 	 	 	 	 	 	 	 	 	 	 	 	 	1581505276	8.51	15.76
12/02/2020 11:01:17	120220	12022020	110117	195.70	12.519175	-57.197093	195.79	0.450	-1.390	1.470	195.70	-2.60	2.10	 	 	 	 	 	 	 	 	 	 	 	 	 	 	 	 	 	 	1581505277	8.35	15.46
12/02/2020 11:01:18	120220	12022020	110118	195.45	12.519142	-57.197108	195.56	-0.100	-0.760	1.910	195.45	-2.00	2.50	 	 	 	 	 	 	 	 	 	 	 	 	 	 	 	 	 	 	1581505278	7.92	14.67
12/02/2020 11:01:19	120220	12022020	110119	195.33	12.519110	-57.197123	195.45	-0.570	-0.200	2.320	195.33	-1.50	2.90	 	 	 	 	 	 	 	 	 	 	 	 	 	 	 	 	 	 	1581505279	7.68	14.22
12/02/2020 11:01:20	120220	12022020	110120	195.11	12.519077	-57.197142	195.21	-0.720	-0.080	2.710	195.11	-1.50	3.30	 	 	 	 	 	 	 	 	 	 	 	 	 	 	 	 	 	 	1581505280	8.12	15.04
12/02/2020 11:01:21	120220	12022020	110121	194.78	12.519040	-57.197162	194.91	-0.540	-0.080	3.120	194.78	-1.40	3.70	 	 	 	 	 	 	 	 	 	 	 	 	 	 	 	 	 	 	1581505281	8.81	16.32
12/02/2020 11:01:22	120220	12022020	110122	194.86	12.519003	-57.197180	195.06	-0.290	0.420	2.980	194.86	-0.80	3.40	 	 	 	 	 	 	 	 	 	 	 	 	 	 	 	 	 	 	1581505282	8.87	16.43
12/02/2020 11:01:23	120220	12022020	110123	195.43	12.518968	-57.197193	195.65	-0.200	1.120	2.330	195.43	-0.20	2.70	 	 	 	 	 	 	 	 	 	 	 	 	 	 	 	 	 	 	1581505283	7.93	14.69
12/02/2020 11:01:24	120220	12022020	110124	196.10	12.518935	-57.197205	196.30	-0.150	0.990	1.710	196.10	-0.60	2.10	 	 	 	 	 	 	 	 	 	 	 	 	 	 	 	 	 	 	1581505284	7.43	13.76
12/02/2020 11:01:25	120220	12022020	110125	196.45	12.518900	-57.197218	196.59	0.130	-0.040	1.540	196.45	-1.70	2.10	 	 	 	 	 	 	 	 	 	 	 	 	 	 	 	 	 	 	1581505285	8.06	14.93
12/02/2020 11:01:26	120220	12022020	110126	196.28	12.518863	-57.197235	196.35	0.610	-1.120	1.800	196.28	-2.70	2.40	 	 	 	 	 	 	 	 	 	 	 	 	 	 	 	 	 	 	1581505286	8.78	16.26
12/02/2020 11:01:27	120220	12022020	110127	195.73	12.518827	-57.197250	195.80	0.990	-1.500	2.190	195.73	-2.80	2.80	 	 	 	 	 	 	 	 	 	 	 	 	 	 	 	 	 	 	1581505287	8.71	16.13
12/02/2020 11:01:28	120220	12022020	110128	195.26	12.518792	-57.197265	195.37	0.930	-1.120	2.280	195.26	-2.30	2.80	 	 	 	 	 	 	 	 	 	 	 	 	 	 	 	 	 	 	1581505288	8.08	14.96
12/02/2020 11:01:29	120220	12022020	110129	195.12	12.518758	-57.197277	195.27	0.420	-0.490	2.070	195.12	-1.70	2.50	 	 	 	 	 	 	 	 	 	 	 	 	 	 	 	 	 	 	1581505289	7.52	13.93
12/02/2020 11:01:30	120220	12022020	110130	195.29	12.518725	-57.197288	195.46	-0.200	-0.120	1.780	195.29	-1.50	2.30	 	 	 	 	 	 	 	 	 	 	 	 	 	 	 	 	 	 	1581505290	7.52	13.93
12/02/2020 11:01:31	120220	12022020	110131	195.56	12.518690	-57.197303	195.72	-0.610	-0.190	1.740	195.56	-1.60	2.30	 	 	 	 	 	 	 	 	 	 	 	 	 	 	 	 	 	 	1581505291	7.99	14.80
12/02/2020 11:01:32	120220	12022020	110132	195.65	12.518653	-57.197318	195.79	-0.730	-0.510	2.070	195.65	-1.90	2.70	 	 	 	 	 	 	 	 	 	 	 	 	 	 	 	 	 	 	1581505292	8.57	15.87
12/02/2020 11:01:33	120220	12022020	110133	195.46	12.518617	-57.197338	195.58	-0.690	-0.680	2.590	195.46	-2.00	3.20	 	 	 	 	 	 	 	 	 	 	 	 	 	 	 	 	 	 	1581505293	8.96	16.59
12/02/2020 11:01:34	120220	12022020	110134	195.12	12.518580	-57.197358	195.26	-0.580	-0.350	2.970	195.12	-1.60	3.50	 	 	 	 	 	 	 	 	 	 	 	 	 	 	 	 	 	 	1581505294	8.90	16.48
12/02/2020 11:01:35	120220	12022020	110135	194.95	12.518547	-57.197377	195.12	-0.390	0.380	2.800	194.95	-0.80	3.20	 	 	 	 	 	 	 	 	 	 	 	 	 	 	 	 	 	 	1581505295	8.36	15.48
12/02/2020 11:01:36	120220	12022020	110136	195.09	12.518513	-57.197392	195.27	-0.050	0.990	2.090	195.09	-0.30	2.40	 	 	 	 	 	 	 	 	 	 	 	 	 	 	 	 	 	 	1581505296	7.71	14.28
12/02/2020 11:01:37	120220	12022020	110137	195.38	12.518480	-57.197402	195.54	0.370	0.920	1.180	195.38	-0.60	1.50	 	 	 	 	 	 	 	 	 	 	 	 	 	 	 	 	 	 	1581505297	7.63	14.13
12/02/2020 11:01:38	120220	12022020	110138	195.60	12.518442	-57.197410	195.74	0.680	0.160	0.600	195.60	-1.40	1.10	 	 	 	 	 	 	 	 	 	 	 	 	 	 	 	 	 	 	1581505298	8.13	15.06
12/02/2020 11:01:39	120220	12022020	110139	195.62	12.518403	-57.197420	195.69	0.730	-0.880	0.710	195.59	-2.50	1.40	 	 	 	 	 	 	 	 	 	 	 	 	 	 	 	 	 	 	1581505299	8.57	15.87
12/02/2020 11:01:40	120220	12022020	110140	195.26	12.518365	-57.197433	195.33	0.580	-1.690	1.410	195.26	-3.10	2.10	 	 	 	 	 	 	 	 	 	 	 	 	 	 	 	 	 	 	1581505300	8.76	16.22
12/02/2020 11:01:41	120220	12022020	110141	194.74	12.518328	-57.197450	194.82	0.270	-1.770	2.400	194.74	-3.00	3.10	 	 	 	 	 	 	 	 	 	 	 	 	 	 	 	 	 	 	1581505301	8.70	16.11
12/02/2020 11:01:42	120220	12022020	110142	194.21	12.518293	-57.197468	194.32	-0.160	-1.110	3.380	194.21	-2.20	4.00	 	 	 	 	 	 	 	 	 	 	 	 	 	 	 	 	 	 	1581505302	8.38	15.52
12/02/2020 11:01:43	120220	12022020	110143	193.95	12.518262	-57.197488	194.10	-0.570	0.000	3.710	193.95	-1.10	4.20	 	 	 	 	 	 	 	 	 	 	 	 	 	 	 	 	 	 	1581505303	8.06	14.93
12/02/2020 11:01:44	120220	12022020	110144	194.17	12.518232	-57.197507	194.36	-0.740	1.030	3.260	194.17	-0.20	3.60	 	 	 	 	 	 	 	 	 	 	 	 	 	 	 	 	 	 	1581505304	7.63	14.13
12/02/2020 11:01:45	120220	12022020	110145	194.67	12.518198	-57.197520	194.85	-0.540	1.190	2.390	194.67	-0.30	2.70	 	 	 	 	 	 	 	 	 	 	 	 	 	 	 	 	 	 	1581505305	7.50	13.89
12/02/2020 11:01:46	120220	12022020	110146	195.21	12.518162	-57.197532	195.37	-0.080	0.270	1.510	195.21	-1.40	1.90	 	 	 	 	 	 	 	 	 	 	 	 	 	 	 	 	 	 	1581505306	8.25	15.28
12/02/2020 11:01:47	120220	12022020	110147	195.55	12.518122	-57.197542	195.67	0.290	-0.880	1.040	195.55	-2.40	1.50	 	 	 	 	 	 	 	 	 	 	 	 	 	 	 	 	 	 	1581505307	9.13	16.91
12/02/2020 11:01:48	120220	12022020	110148	195.54	12.518082	-57.197557	195.62	0.410	-1.290	1.140	195.54	-2.60	1.70	 	 	 	 	 	 	 	 	 	 	 	 	 	 	 	 	 	 	1581505308	9.08	16.82
12/02/2020 11:01:49	120220	12022020	110149	195.27	12.518045	-57.197570	195.34	0.360	-0.810	1.430	195.27	-2.00	2.00	 	 	 	 	 	 	 	 	 	 	 	 	 	 	 	 	 	 	1581505309	8.25	15.28
12/02/2020 11:01:50	120220	12022020	110150	195.11	12.518013	-57.197583	195.23	0.200	-0.110	1.580	195.11	-1.40	2.10	 	 	 	 	 	 	 	 	 	 	 	 	 	 	 	 	 	 	1581505310	7.53	13.95
12/02/2020 11:01:51	120220	12022020	110151	195.22	12.517980	-57.197595	195.40	-0.020	0.150	1.620	195.26	-1.20	2.10	 	 	 	 	 	 	 	 	 	 	 	 	 	 	 	 	 	 	1581505311	7.53	13.95
12/02/2020 11:01:52	120220	12022020	110152	195.48	12.517945	-57.197610	195.60	-0.170	-0.050	1.660	195.48	-1.50	2.20	 	 	 	 	 	 	 	 	 	 	 	 	 	 	 	 	 	 	1581505312	8.07	14.95
12/02/2020 11:01:53	120220	12022020	110153	195.59	12.517908	-57.197625	195.72	-0.130	-0.340	1.660	195.61	-1.70	2.10	 	 	 	 	 	 	 	 	 	 	 	 	 	 	 	 	 	 	1581505313	8.56	15.85
12/02/2020 11:01:54	120220	12022020	110154	195.63	12.517872	-57.197640	195.74	0.000	-0.330	1.600	195.63	-1.70	2.10	 	 	 	 	 	 	 	 	 	 	 	 	 	 	 	 	 	 	1581505314	8.53	15.80
12/02/2020 11:01:55	120220	12022020	110155	195.57	12.517835	-57.197653	195.69	0.060	-0.150	1.590	195.57	-1.50	2.10	 	 	 	 	 	 	 	 	 	 	 	 	 	 	 	 	 	 	1581505315	8.23	15.24
12/02/2020 11:01:56	120220	12022020	110156	195.73	12.517800	-57.197667	195.88	-0.140	0.100	1.540	195.73	-1.20	2.00	 	 	 	 	 	 	 	 	 	 	 	 	 	 	 	 	 	 	1581505316	8.04	14.89
12/02/2020 11:01:57	120220	12022020	110157	196.00	12.517767	-57.197682	196.13	-0.460	0.110	1.730	196.00	-1.30	2.30	 	 	 	 	 	 	 	 	 	 	 	 	 	 	 	 	 	 	1581505317	7.87	14.58
12/02/2020 11:01:58	120220	12022020	110158	196.01	12.517733	-57.197700	196.11	-0.540	-0.370	2.150	196.01	-1.90	2.70	 	 	 	 	 	 	 	 	 	 	 	 	 	 	 	 	 	 	1581505318	8.15	15.09
12/02/2020 11:01:59	120220	12022020	110159	195.63	12.517698	-57.197720	195.72	-0.140	-1.050	2.580	195.63	-2.50	3.10	 	 	 	 	 	 	 	 	 	 	 	 	 	 	 	 	 	 	1581505319	8.80	16.30
12/02/2020 11:02:00	120220	12022020	110200	195.14	12.517660	-57.197740	195.25	0.450	-1.170	2.700	195.14	-2.40	3.10	 	 	 	 	 	 	 	 	 	 	 	 	 	 	 	 	 	 	1581505320	9.04	16.74
12/02/2020 11:02:01	120220	12022020	110201	194.94	12.517623	-57.197753	195.09	0.740	-0.450	2.290	194.94	-1.60	2.60	1015.60	26.20	26.30	20.60	20.70	119.0	71.0	71.0	408.0	26.3	261.00	11.00	77.00	12.40	7483	9871.0	27.5	27.5	1581505321	8.37	15.50
12/02/2020 11:02:02	120220	12022020	110202	195.15	12.517590	-57.197763	195.31	0.530	0.410	1.620	195.15	-0.80	2.00	 	 	 	 	 	 	 	 	 	 	 	 	 	 	 	 	 	 	1581505322	7.50	13.89
12/02/2020 11:02:03	120220	12022020	110203	195.40	12.517557	-57.197772	195.52	0.100	0.550	1.290	195.40	-0.90	1.80	 	 	 	 	 	 	 	 	 	 	 	 	 	 	 	 	 	 	1581505323	7.40	13.70
12/02/2020 11:02:04	120220	12022020	110204	195.33	12.517520	-57.197783	195.44	-0.170	-0.100	1.500	195.33	-1.60	2.10	 	 	 	 	 	 	 	 	 	 	 	 	 	 	 	 	 	 	1581505324	8.21	15.20
12/02/2020 11:02:05	120220	12022020	110205	195.23	12.517482	-57.197798	195.37	-0.290	-0.590	1.910	195.23	-2.00	2.50	 	 	 	 	 	 	 	 	 	 	 	 	 	 	 	 	 	 	1581505325	9.01	16.69
12/02/2020 11:02:06	120220	12022020	110206	195.32	12.517445	-57.197817	195.49	-0.400	-0.470	2.280	195.32	-1.70	2.80	 	 	 	 	 	 	 	 	 	 	 	 	 	 	 	 	 	 	1581505326	8.76	16.22
12/02/2020 11:02:07	120220	12022020	110207	195.56	12.517412	-57.197833	195.72	-0.490	-0.080	2.330	195.56	-1.40	2.80	 	 	 	 	 	 	 	 	 	 	 	 	 	 	 	 	 	 	1581505327	8.09	14.98
12/02/2020 11:02:08	120220	12022020	110208	195.67	12.517378	-57.197850	195.80	-0.360	-0.050	2.160	195.67	-1.50	2.60	 	 	 	 	 	 	 	 	 	 	 	 	 	 	 	 	 	 	1581505328	7.76	14.37
12/02/2020 11:02:09	120220	12022020	110209	195.51	12.517343	-57.197865	195.62	0.030	-0.500	2.070	195.51	-2.00	2.60	 	 	 	 	 	 	 	 	 	 	 	 	 	 	 	 	 	 	1581505329	8.17	15.13
12/02/2020 11:02:10	120220	12022020	110210	195.17	12.517307	-57.197880	195.27	0.390	-0.900	2.080	195.17	-2.30	2.60	 	 	 	 	 	 	 	 	 	 	 	 	 	 	 	 	 	 	1581505330	8.67	16.06
12/02/2020 11:02:11	120220	12022020	110211	194.62	12.517268	-57.197895	194.70	0.540	-0.810	2.280	194.62	-2.10	2.80	 	 	 	 	 	 	 	 	 	 	 	 	 	 	 	 	 	 	1581505331	8.61	15.95
12/02/2020 11:02:12	120220	12022020	110212	194.14	12.517233	-57.197910	194.26	0.420	-0.180	2.420	194.14	-1.30	2.90	 	 	 	 	 	 	 	 	 	 	 	 	 	 	 	 	 	 	1581505332	8.25	15.28
12/02/2020 11:02:13	120220	12022020	110213	194.27	12.517200	-57.197922	194.45	0.090	0.660	2.180	194.27	-0.60	2.60	 	 	 	 	 	 	 	 	 	 	 	 	 	 	 	 	 	 	1581505333	7.71	14.28
12/02/2020 11:02:14	120220	12022020	110214	194.84	12.517167	-57.197933	195.03	-0.190	0.840	1.870	194.84	-0.60	2.30	 	 	 	 	 	 	 	 	 	 	 	 	 	 	 	 	 	 	1581505334	7.42	13.74
12/02/2020 11:02:15	120220	12022020	110215	195.29	12.517132	-57.197945	195.56	-0.220	0.050	1.760	195.39	-1.60	2.30	 	 	 	 	 	 	 	 	 	 	 	 	 	 	 	 	 	 	1581505335	8.05	14.91
12/02/2020 11:02:16	120220	12022020	110216	195.71	12.517093	-57.197960	195.86	-0.080	-1.010	2.000	195.71	-2.50	2.60	 	 	 	 	 	 	 	 	 	 	 	 	 	 	 	 	 	 	1581505336	8.96	16.59
12/02/2020 11:02:17	120220	12022020	110217	195.79	12.517053	-57.197978	195.93	-0.010	-1.420	2.410	195.79	-2.70	3.00	 	 	 	 	 	 	 	 	 	 	 	 	 	 	 	 	 	 	1581505337	9.14	16.93
12/02/2020 11:02:18	120220	12022020	110218	195.72	12.517018	-57.197997	195.84	-0.070	-1.040	2.720	195.72	-2.20	3.30	 	 	 	 	 	 	 	 	 	 	 	 	 	 	 	 	 	 	1581505338	8.47	15.69
12/02/2020 11:02:19	120220	12022020	110219	195.44	12.516987	-57.198013	195.54	-0.120	-0.420	2.860	195.44	-1.70	3.40	 	 	 	 	 	 	 	 	 	 	 	 	 	 	 	 	 	 	1581505339	7.80	14.45
12/02/2020 11:02:20	120220	12022020	110220	195.03	12.516953	-57.198028	195.14	-0.080	-0.060	2.850	195.03	-1.40	3.30	 	 	 	 	 	 	 	 	 	 	 	 	 	 	 	 	 	 	1581505340	7.77	14.39
12/02/2020 11:02:21	120220	12022020	110221	194.67	12.516918	-57.198042	194.79	-0.030	0.040	2.650	194.67	-1.30	3.00	 	 	 	 	 	 	 	 	 	 	 	 	 	 	 	 	 	 	1581505341	8.21	15.20
12/02/2020 11:02:22	120220	12022020	110222	194.59	12.516880	-57.198053	194.75	-0.090	0.150	2.160	194.59	-1.20	2.50	 	 	 	 	 	 	 	 	 	 	 	 	 	 	 	 	 	 	1581505342	8.49	15.72
12/02/2020 11:02:23	120220	12022020	110223	194.88	12.516843	-57.198065	195.07	-0.190	0.380	1.660	194.88	-0.90	2.00	 	 	 	 	 	 	 	 	 	 	 	 	 	 	 	 	 	 	1581505343	8.34	15.45
12/02/2020 11:02:24	120220	12022020	110224	195.45	12.516808	-57.198078	195.64	-0.160	0.500	1.160	195.45	-0.90	1.60	 	 	 	 	 	 	 	 	 	 	 	 	 	 	 	 	 	 	1581505344	8.04	14.89
12/02/2020 11:02:25	120220	12022020	110225	196.01	12.516773	-57.198092	196.17	0.070	0.210	0.850	196.01	-1.30	1.40	 	 	 	 	 	 	 	 	 	 	 	 	 	 	 	 	 	 	1581505345	7.96	14.74
12/02/2020 11:02:26	120220	12022020	110226	196.26	12.516737	-57.198105	196.37	0.330	-0.340	1.110	196.26	-1.80	1.70	 	 	 	 	 	 	 	 	 	 	 	 	 	 	 	 	 	 	1581505346	8.21	15.20
12/02/2020 11:02:27	120220	12022020	110227	196.05	12.516702	-57.198120	196.12	0.430	-0.900	1.770	196.05	-2.40	2.40	 	 	 	 	 	 	 	 	 	 	 	 	 	 	 	 	 	 	1581505347	8.37	15.50
12/02/2020 11:02:28	120220	12022020	110228	195.56	12.516665	-57.198137	195.64	0.300	-1.180	2.490	195.56	-2.50	3.10	 	 	 	 	 	 	 	 	 	 	 	 	 	 	 	 	 	 	1581505348	8.48	15.70
12/02/2020 11:02:29	120220	12022020	110229	195.14	12.516632	-57.198155	195.17	0.050	-1.100	3.150	195.05	-2.40	3.70	 	 	 	 	 	 	 	 	 	 	 	 	 	 	 	 	 	 	1581505349	8.39	15.54
12/02/2020 11:02:30	120220	12022020	110230	194.80	12.516597	-57.198173	194.97	-0.220	-0.700	3.380	194.80	-1.90	3.80	 	 	 	 	 	 	 	 	 	 	 	 	 	 	 	 	 	 	1581505350	8.30	15.37
12/02/2020 11:02:31	120220	12022020	110231	194.97	12.516563	-57.198190	195.17	-0.470	-0.120	3.080	194.97	-1.30	3.40	 	 	 	 	 	 	 	 	 	 	 	 	 	 	 	 	 	 	1581505351	8.10	15.00
12/02/2020 11:02:32	120220	12022020	110232	195.45	12.516528	-57.198205	195.65	-0.570	0.310	2.340	195.45	-1.00	2.60	 	 	 	 	 	 	 	 	 	 	 	 	 	 	 	 	 	 	1581505352	7.88	14.59
12/02/2020 11:02:33	120220	12022020	110233	195.88	12.516493	-57.198217	196.05	-0.330	0.230	1.430	195.88	-1.20	1.80	 	 	 	 	 	 	 	 	 	 	 	 	 	 	 	 	 	 	1581505353	7.98	14.78
12/02/2020 11:02:34	120220	12022020	110234	196.00	12.516457	-57.198228	196.12	0.190	-0.270	0.950	196.00	-1.70	1.40	 	 	 	 	 	 	 	 	 	 	 	 	 	 	 	 	 	 	1581505354	8.47	15.69
12/02/2020 11:02:35	120220	12022020	110235	195.75	12.516417	-57.198238	195.83	0.580	-0.610	1.110	195.75	-1.90	1.70	 	 	 	 	 	 	 	 	 	 	 	 	 	 	 	 	 	 	1581505355	8.91	16.50
12/02/2020 11:02:36	120220	12022020	110236	195.49	12.516377	-57.198252	195.61	0.280	-0.180	1.560	195.49	-1.40	2.20	 	 	 	 	 	 	 	 	 	 	 	 	 	 	 	 	 	 	1581505356	8.69	16.09
12/02/2020 11:02:37	120220	12022020	110237	195.58	12.516345	-57.198265	195.75	-0.540	0.630	2.310	195.58	-0.60	3.00	 	 	 	 	 	 	 	 	 	 	 	 	 	 	 	 	 	 	1581505357	7.77	14.39
12/02/2020 11:02:38	120220	12022020	110238	195.85	12.516315	-57.198287	196.03	-1.060	0.970	2.930	195.85	-0.40	3.50	 	 	 	 	 	 	 	 	 	 	 	 	 	 	 	 	 	 	1581505358	7.60	14.08
12/02/2020 11:02:39	120220	12022020	110239	195.96	12.516285	-57.198310	196.11	-0.580	0.350	3.000	195.96	-1.30	3.40	 	 	 	 	 	 	 	 	 	 	 	 	 	 	 	 	 	 	1581505359	8.12	15.04
12/02/2020 11:02:40	120220	12022020	110240	195.78	12.516250	-57.198330	195.92	0.710	-0.860	2.540	195.78	-2.40	2.90	 	 	 	 	 	 	 	 	 	 	 	 	 	 	 	 	 	 	1581505360	8.81	16.32
12/02/2020 11:02:41	120220	12022020	110241	195.63	12.516208	-57.198343	195.77	1.670	-1.520	1.750	195.62	-2.90	2.00	 	 	 	 	 	 	 	 	 	 	 	 	 	 	 	 	 	 	1581505361	9.18	17.00
12/02/2020 11:02:42	120220	12022020	110242	195.79	12.516170	-57.198350	195.96	1.430	-1.110	0.920	195.79	-2.30	1.30	 	 	 	 	 	 	 	 	 	 	 	 	 	 	 	 	 	 	1581505362	8.51	15.76
12/02/2020 11:02:43	120220	12022020	110243	196.03	12.516137	-57.198357	196.21	0.200	-0.390	0.680	196.07	-1.60	1.30	 	 	 	 	 	 	 	 	 	 	 	 	 	 	 	 	 	 	1581505363	7.35	13.61
12/02/2020 11:02:44	120220	12022020	110244	196.11	12.516105	-57.198368	196.22	-1.020	-0.270	1.340	196.11	-1.70	2.00	 	 	 	 	 	 	 	 	 	 	 	 	 	 	 	 	 	 	1581505364	7.25	13.43
12/02/2020 11:02:45	120220	12022020	110245	195.99	12.516072	-57.198388	196.11	-1.470	-0.570	2.270	195.99	-2.00	3.00	 	 	 	 	 	 	 	 	 	 	 	 	 	 	 	 	 	 	1581505365	8.43	15.61
12/02/2020 11:02:46	120220	12022020	110246	195.74	12.516035	-57.198413	195.86	-1.120	-0.760	3.050	195.74	-2.10	3.60	 	 	 	 	 	 	 	 	 	 	 	 	 	 	 	 	 	 	1581505366	9.18	17.00
12/02/2020 11:02:47	120220	12022020	110247	195.42	12.516000	-57.198437	195.54	-0.390	-0.590	3.300	195.42	-1.80	3.70	 	 	 	 	 	 	 	 	 	 	 	 	 	 	 	 	 	 	1581505367	9.20	17.04
12/02/2020 11:02:48	120220	12022020	110248	195.25	12.515963	-57.198455	195.40	0.170	0.000	2.850	195.25	-1.20	3.20	 	 	 	 	 	 	 	 	 	 	 	 	 	 	 	 	 	 	1581505368	8.66	16.04
12/02/2020 11:02:49	120220	12022020	110249	195.31	12.515928	-57.198467	195.47	0.370	0.760	2.100	195.31	-0.40	2.40	 	 	 	 	 	 	 	 	 	 	 	 	 	 	 	 	 	 	1581505369	8.00	14.82
12/02/2020 11:02:50	120220	12022020	110250	195.46	12.515893	-57.198475	195.60	0.310	1.160	1.360	195.46	-0.20	1.70	 	 	 	 	 	 	 	 	 	 	 	 	 	 	 	 	 	 	1581505370	7.61	14.09
12/02/2020 11:02:51	120220	12022020	110251	195.53	12.515858	-57.198483	195.64	0.280	0.810	0.830	195.53	-0.70	1.30	 	 	 	 	 	 	 	 	 	 	 	 	 	 	 	 	 	 	1581505371	7.74	14.33
12/02/2020 11:02:52	120220	12022020	110252	195.42	12.515822	-57.198493	195.51	0.390	-0.070	0.910	195.42	-1.60	1.50	 	 	 	 	 	 	 	 	 	 	 	 	 	 	 	 	 	 	1581505372	8.29	15.35
12/02/2020 11:02:53	120220	12022020	110253	195.23	12.515783	-57.198507	195.34	0.490	-0.840	1.390	195.23	-2.30	2.00	 	 	 	 	 	 	 	 	 	 	 	 	 	 	 	 	 	 	1581505373	8.63	15.98
12/02/2020 11:02:54	120220	12022020	110254	195.16	12.515748	-57.198523	195.29	0.390	-1.130	1.860	195.16	-2.50	2.40	 	 	 	 	 	 	 	 	 	 	 	 	 	 	 	 	 	 	1581505374	8.42	15.59
12/02/2020 11:02:55	120220	12022020	110255	195.18	12.515715	-57.198540	195.33	0.080	-1.070	2.270	195.18	-2.40	2.80	 	 	 	 	 	 	 	 	 	 	 	 	 	 	 	 	 	 	1581505375	8.02	14.85
12/02/2020 11:02:56	120220	12022020	110256	195.17	12.515683	-57.198558	195.30	-0.200	-0.890	2.570	195.17	-2.20	3.10	 	 	 	 	 	 	 	 	 	 	 	 	 	 	 	 	 	 	1581505376	7.87	14.58
12/02/2020 11:02:57	120220	12022020	110257	195.10	12.515650	-57.198577	195.24	-0.250	-0.680	2.620	195.10	-2.00	3.10	 	 	 	 	 	 	 	 	 	 	 	 	 	 	 	 	 	 	1581505377	7.95	14.72
12/02/2020 11:02:58	120220	12022020	110258	195.10	12.515617	-57.198592	195.24	-0.160	-0.470	2.380	195.10	-1.80	2.80	 	 	 	 	 	 	 	 	 	 	 	 	 	 	 	 	 	 	1581505378	8.03	14.87
12/02/2020 11:02:59	120220	12022020	110259	195.09	12.515580	-57.198605	195.23	-0.100	-0.390	2.170	195.09	-1.70	2.70	 	 	 	 	 	 	 	 	 	 	 	 	 	 	 	 	 	 	1581505379	8.15	15.09
12/02/2020 11:03:00	120220	12022020	110300	194.97	12.515543	-57.198618	195.09	-0.090	-0.500	2.180	194.97	-1.90	2.70	 	 	 	 	 	 	 	 	 	 	 	 	 	 	 	 	 	 	1581505380	8.45	15.65
12/02/2020 11:03:01	120220	12022020	110301	194.80	12.515505	-57.198633	194.93	-0.060	-0.430	2.160	194.80	-1.70	2.60	1015.60	26.20	26.30	20.80	20.90	117.0	72.0	72.0	407.0	26.3	259.00	11.10	75.00	12.60	7650	9488.0	27.5	27.5	1581505381	8.77	16.24
12/02/2020 11:03:02	120220	12022020	110302	194.81	12.515468	-57.198647	194.96	0.000	0.060	1.900	194.81	-1.10	2.30	 	 	 	 	 	 	 	 	 	 	 	 	 	 	 	 	 	 	1581505382	8.60	15.93
12/02/2020 11:03:03	120220	12022020	110303	195.12	12.515432	-57.198657	195.29	-0.030	0.740	1.540	195.12	-0.50	2.00	 	 	 	 	 	 	 	 	 	 	 	 	 	 	 	 	 	 	1581505383	8.05	14.91
12/02/2020 11:03:04	120220	12022020	110304	195.56	12.515398	-57.198668	195.72	-0.160	1.070	1.360	195.56	-0.30	1.90	 	 	 	 	 	 	 	 	 	 	 	 	 	 	 	 	 	 	1581505384	7.66	14.19
12/02/2020 11:03:05	120220	12022020	110305	195.71	12.515365	-57.198682	195.80	-0.140	0.660	1.530	195.71	-0.90	2.10	 	 	 	 	 	 	 	 	 	 	 	 	 	 	 	 	 	 	1581505385	7.76	14.37
12/02/2020 11:03:06	120220	12022020	110306	195.37	12.515328	-57.198697	195.45	0.180	-0.340	2.050	195.37	-1.90	2.70	 	 	 	 	 	 	 	 	 	 	 	 	 	 	 	 	 	 	1581505386	8.44	15.63
12/02/2020 11:03:07	120220	12022020	110307	195.20	12.515290	-57.198713	195.40	0.410	-0.810	2.520	195.23	-2.10	3.10	 	 	 	 	 	 	 	 	 	 	 	 	 	 	 	 	 	 	1581505387	9.00	16.67
12/02/2020 11:03:08	120220	12022020	110308	195.73	12.515255	-57.198732	195.96	0.240	-0.260	2.620	195.73	-1.40	3.10	 	 	 	 	 	 	 	 	 	 	 	 	 	 	 	 	 	 	1581505388	8.15	15.09
12/02/2020 11:03:09	120220	12022020	110309	196.44	12.515227	-57.198747	196.64	-0.100	0.250	2.280	196.44	-1.10	2.70	 	 	 	 	 	 	 	 	 	 	 	 	 	 	 	 	 	 	1581505389	6.89	12.76
12/02/2020 11:03:10	120220	12022020	110310	196.67	12.515198	-57.198760	196.79	0.040	-0.500	1.930	196.67	-2.20	2.40	 	 	 	 	 	 	 	 	 	 	 	 	 	 	 	 	 	 	1581505390	6.98	12.93
12/02/2020 11:03:11	120220	12022020	110311	196.35	12.515160	-57.198775	196.44	0.680	-2.040	1.800	196.35	-3.60	2.30	 	 	 	 	 	 	 	 	 	 	 	 	 	 	 	 	 	 	1581505391	8.61	15.95
12/02/2020 11:03:12	120220	12022020	110312	195.96	12.515118	-57.198788	196.08	0.980	-2.590	1.930	195.96	-3.80	2.50	 	 	 	 	 	 	 	 	 	 	 	 	 	 	 	 	 	 	1581505392	9.66	17.89
12/02/2020 11:03:13	120220	12022020	110313	195.84	12.515080	-57.198803	196.01	0.390	-1.440	2.120	195.84	-2.40	2.60	 	 	 	 	 	 	 	 	 	 	 	 	 	 	 	 	 	 	1581505393	8.73	16.17
12/02/2020 11:03:14	120220	12022020	110314	196.04	12.515048	-57.198817	196.21	-0.760	0.390	2.040	196.04	-0.60	2.50	 	 	 	 	 	 	 	 	 	 	 	 	 	 	 	 	 	 	1581505394	7.29	13.50
12/02/2020 11:03:15	120220	12022020	110315	196.35	12.515018	-57.198830	196.52	-1.610	1.480	1.860	196.35	0.20	2.30	 	 	 	 	 	 	 	 	 	 	 	 	 	 	 	 	 	 	1581505395	6.95	12.87
12/02/2020 11:03:16	120220	12022020	110316	196.54	12.514987	-57.198847	196.68	-1.520	1.270	1.890	196.54	-0.30	2.40	 	 	 	 	 	 	 	 	 	 	 	 	 	 	 	 	 	 	1581505396	7.91	14.65
12/02/2020 11:03:17	120220	12022020	110317	196.53	12.514948	-57.198867	196.66	-0.620	0.480	1.870	196.53	-1.00	2.30	 	 	 	 	 	 	 	 	 	 	 	 	 	 	 	 	 	 	1581505397	9.16	16.96
12/02/2020 11:03:18	120220	12022020	110318	196.46	12.514908	-57.198885	196.59	0.330	0.130	1.720	196.46	-1.20	2.20	 	 	 	 	 	 	 	 	 	 	 	 	 	 	 	 	 	 	1581505398	9.36	17.33
12/02/2020 11:03:19	120220	12022020	110319	196.49	12.514872	-57.198898	196.69	0.750	0.380	1.500	196.52	-0.90	1.90	 	 	 	 	 	 	 	 	 	 	 	 	 	 	 	 	 	 	1581505399	8.44	15.63
12/02/2020 11:03:20	120220	12022020	110320	196.91	12.514838	-57.198910	197.11	0.600	0.600	1.090	196.91	-0.80	1.50	 	 	 	 	 	 	 	 	 	 	 	 	 	 	 	 	 	 	1581505400	7.47	13.83
12/02/2020 11:03:21	120220	12022020	110321	197.35	12.514807	-57.198922	197.51	0.360	0.120	1.020	197.35	-1.50	1.60	 	 	 	 	 	 	 	 	 	 	 	 	 	 	 	 	 	 	1581505401	7.20	13.33
12/02/2020 11:03:22	120220	12022020	110322	197.27	12.514773	-57.198937	197.37	0.470	-1.150	1.640	197.27	-2.80	2.30	 	 	 	 	 	 	 	 	 	 	 	 	 	 	 	 	 	 	1581505402	7.87	14.58
12/02/2020 11:03:23	120220	12022020	110323	196.73	12.514737	-57.198955	196.81	0.710	-2.280	2.430	196.73	-3.70	3.10	 	 	 	 	 	 	 	 	 	 	 	 	 	 	 	 	 	 	1581505403	8.85	16.39
12/02/2020 11:03:24	120220	12022020	110324	196.04	12.514700	-57.198973	196.13	0.620	-2.390	3.040	196.04	-3.60	3.60	 	 	 	 	 	 	 	 	 	 	 	 	 	 	 	 	 	 	1581505404	8.89	16.46
12/02/2020 11:03:25	120220	12022020	110325	195.39	12.514667	-57.198992	195.51	0.100	-1.580	3.390	195.39	-2.70	3.90	 	 	 	 	 	 	 	 	 	 	 	 	 	 	 	 	 	 	1581505405	8.25	15.28
12/02/2020 11:03:26	120220	12022020	110326	194.89	12.514633	-57.199010	195.03	-0.480	-0.440	3.460	194.89	-1.50	3.90	 	 	 	 	 	 	 	 	 	 	 	 	 	 	 	 	 	 	1581505406	7.83	14.50
12/02/2020 11:03:27	120220	12022020	110327	194.76	12.514600	-57.199025	194.95	-0.790	0.600	3.120	194.76	-0.60	3.50	 	 	 	 	 	 	 	 	 	 	 	 	 	 	 	 	 	 	1581505407	7.88	14.59
12/02/2020 11:03:28	120220	12022020	110328	195.12	12.514567	-57.199040	195.34	-0.790	1.310	2.440	195.12	0.00	2.80	 	 	 	 	 	 	 	 	 	 	 	 	 	 	 	 	 	 	1581505408	8.01	14.83
12/02/2020 11:03:29	120220	12022020	110329	195.67	12.514532	-57.199053	195.88	-0.570	1.430	1.830	195.67	0.00	2.20	 	 	 	 	 	 	 	 	 	 	 	 	 	 	 	 	 	 	1581505409	8.11	15.02
12/02/2020 11:03:30	120220	12022020	110330	196.09	12.514495	-57.199067	196.24	-0.220	0.950	1.430	196.09	-0.60	1.90	 	 	 	 	 	 	 	 	 	 	 	 	 	 	 	 	 	 	1581505410	8.32	15.41
12/02/2020 11:03:31	120220	12022020	110331	196.19	12.514457	-57.199080	196.30	0.230	0.080	1.280	196.18	-1.50	1.80	 	 	 	 	 	 	 	 	 	 	 	 	 	 	 	 	 	 	1581505411	8.56	15.85
12/02/2020 11:03:32	120220	12022020	110332	196.10	12.514418	-57.199093	196.22	0.590	-0.720	1.400	196.10	-2.20	2.00	 	 	 	 	 	 	 	 	 	 	 	 	 	 	 	 	 	 	1581505412	8.68	16.08
12/02/2020 11:03:33	120220	12022020	110333	196.08	12.514382	-57.199108	196.22	0.690	-1.010	1.650	196.09	-2.40	2.20	 	 	 	 	 	 	 	 	 	 	 	 	 	 	 	 	 	 	1581505413	8.40	15.56
12/02/2020 11:03:34	120220	12022020	110334	196.04	12.514348	-57.199122	196.15	0.520	-0.920	2.000	196.04	-2.20	2.60	 	 	 	 	 	 	 	 	 	 	 	 	 	 	 	 	 	 	1581505414	7.83	14.50
12/02/2020 11:03:35	120220	12022020	110335	195.67	12.514317	-57.199138	195.76	0.270	-0.900	2.510	195.67	-2.30	3.10	 	 	 	 	 	 	 	 	 	 	 	 	 	 	 	 	 	 	1581505415	7.62	14.11
12/02/2020 11:03:36	120220	12022020	110336	195.24	12.514283	-57.199153	195.35	0.080	-0.970	2.810	195.24	-2.30	3.30	 	 	 	 	 	 	 	 	 	 	 	 	 	 	 	 	 	 	1581505416	8.07	14.95
12/02/2020 11:03:37	120220	12022020	110337	195.02	12.514247	-57.199170	195.15	-0.070	-0.840	2.710	195.02	-2.10	3.10	 	 	 	 	 	 	 	 	 	 	 	 	 	 	 	 	 	 	1581505417	8.38	15.52
12/02/2020 11:03:38	120220	12022020	110338	195.01	12.514212	-57.199185	195.16	-0.240	-0.470	2.420	195.01	-1.70	2.80	 	 	 	 	 	 	 	 	 	 	 	 	 	 	 	 	 	 	1581505418	8.28	15.33
12/02/2020 11:03:39	120220	12022020	110339	195.23	12.514177	-57.199198	195.38	-0.430	0.020	2.000	195.23	-1.20	2.40	 	 	 	 	 	 	 	 	 	 	 	 	 	 	 	 	 	 	1581505419	8.17	15.13
12/02/2020 11:03:40	120220	12022020	110340	195.51	12.514142	-57.199212	195.65	-0.580	0.430	1.690	195.51	-0.90	2.20	 	 	 	 	 	 	 	 	 	 	 	 	 	 	 	 	 	 	1581505420	8.02	14.85
12/02/2020 11:03:41	120220	12022020	110341	195.67	12.514107	-57.199225	195.79	-0.480	0.490	1.660	195.67	-0.90	2.20	 	 	 	 	 	 	 	 	 	 	 	 	 	 	 	 	 	 	1581505421	8.08	14.96
12/02/2020 11:03:42	120220	12022020	110342	195.77	12.514070	-57.199240	195.89	-0.180	0.300	1.640	195.77	-1.10	2.10	 	 	 	 	 	 	 	 	 	 	 	 	 	 	 	 	 	 	1581505422	8.35	15.46
12/02/2020 11:03:43	120220	12022020	110343	195.84	12.514033	-57.199255	195.96	0.100	0.060	1.720	195.84	-1.40	2.30	 	 	 	 	 	 	 	 	 	 	 	 	 	 	 	 	 	 	1581505423	8.42	15.59
12/02/2020 11:03:44	120220	12022020	110344	195.79	12.513998	-57.199270	195.90	0.200	-0.150	1.970	195.79	-1.50	2.50	 	 	 	 	 	 	 	 	 	 	 	 	 	 	 	 	 	 	1581505424	8.30	15.37
12/02/2020 11:03:45	120220	12022020	110345	195.72	12.513963	-57.199287	195.83	0.260	-0.230	1.880	195.72	-1.60	2.30	 	 	 	 	 	 	 	 	 	 	 	 	 	 	 	 	 	 	1581505425	8.21	15.20
12/02/2020 11:03:46	120220	12022020	110346	195.84	12.513928	-57.199300	195.98	0.420	-0.180	1.380	195.84	-1.50	1.70	 	 	 	 	 	 	 	 	 	 	 	 	 	 	 	 	 	 	1581505426	7.98	14.78
12/02/2020 11:03:47	120220	12022020	110347	196.21	12.513895	-57.199312	196.35	0.620	-0.210	0.930	196.21	-1.60	1.40	 	 	 	 	 	 	 	 	 	 	 	 	 	 	 	 	 	 	1581505427	7.72	14.30
12/02/2020 11:03:48	120220	12022020	110348	196.37	12.513860	-57.199322	196.45	0.670	-0.610	0.930	196.37	-2.10	1.50	 	 	 	 	 	 	 	 	 	 	 	 	 	 	 	 	 	 	1581505428	7.75	14.35
12/02/2020 11:03:49	120220	12022020	110349	196.02	12.513823	-57.199335	196.08	0.510	-1.210	1.300	196.02	-2.60	1.90	 	 	 	 	 	 	 	 	 	 	 	 	 	 	 	 	 	 	1581505429	8.22	15.22
12/02/2020 11:03:50	120220	12022020	110350	195.49	12.513787	-57.199350	195.56	0.080	-1.450	1.970	195.49	-2.80	2.60	 	 	 	 	 	 	 	 	 	 	 	 	 	 	 	 	 	 	1581505430	8.63	15.98
12/02/2020 11:03:51	120220	12022020	110351	195.08	12.513752	-57.199368	195.20	-0.470	-1.110	2.640	195.08	-2.30	3.20	 	 	 	 	 	 	 	 	 	 	 	 	 	 	 	 	 	 	1581505431	8.58	15.89
12/02/2020 11:03:52	120220	12022020	110352	195.07	12.513717	-57.199387	195.24	-0.970	-0.350	2.870	195.07	-1.50	3.40	 	 	 	 	 	 	 	 	 	 	 	 	 	 	 	 	 	 	1581505432	8.33	15.43
12/02/2020 11:03:53	120220	12022020	110353	195.39	12.513685	-57.199407	195.58	-1.210	0.350	2.850	195.39	-0.90	3.30	 	 	 	 	 	 	 	 	 	 	 	 	 	 	 	 	 	 	1581505433	8.10	15.00
12/02/2020 11:03:54	120220	12022020	110354	195.72	12.513652	-57.199427	195.87	-0.920	0.640	2.640	195.72	-0.70	3.00	 	 	 	 	 	 	 	 	 	 	 	 	 	 	 	 	 	 	1581505434	8.22	15.22
12/02/2020 11:03:55	120220	12022020	110355	195.78	12.513617	-57.199443	195.88	-0.070	0.490	2.140	195.76	-0.90	2.50	 	 	 	 	 	 	 	 	 	 	 	 	 	 	 	 	 	 	1581505435	8.48	15.70
12/02/2020 11:03:56	120220	12022020	110356	195.68	12.513578	-57.199457	195.81	0.810	0.320	1.530	195.68	-1.00	1.90	 	 	 	 	 	 	 	 	 	 	 	 	 	 	 	 	 	 	1581505436	8.67	16.06
12/02/2020 11:03:57	120220	12022020	110357	195.77	12.513540	-57.199465	195.90	1.050	0.390	0.940	195.77	-1.00	1.30	 	 	 	 	 	 	 	 	 	 	 	 	 	 	 	 	 	 	1581505437	8.41	15.58
12/02/2020 11:03:58	120220	12022020	110358	195.93	12.513505	-57.199472	196.05	0.560	0.350	0.640	195.93	-1.10	1.20	 	 	 	 	 	 	 	 	 	 	 	 	 	 	 	 	 	 	1581505438	7.82	14.48
12/02/2020 11:03:59	120220	12022020	110359	195.85	12.513470	-57.199483	195.94	-0.080	-0.190	0.960	195.85	-1.70	1.60	 	 	 	 	 	 	 	 	 	 	 	 	 	 	 	 	 	 	1581505439	7.63	14.13
12/02/2020 11:04:00	120220	12022020	110400	195.46	12.513435	-57.199498	195.54	-0.320	-1.200	1.750	195.46	-2.80	2.50	 	 	 	 	 	 	 	 	 	 	 	 	 	 	 	 	 	 	1581505440	8.25	15.28
12/02/2020 11:04:01	120220	12022020	110401	194.94	12.513400	-57.199522	195.01	-0.040	-2.020	2.610	194.94	-3.40	3.20	1015.70	26.20	26.30	20.80	20.90	112.0	72.0	72.0	408.0	26.3	257.00	10.50	73.00	12.10	7844	9952.0	27.5	27.5	1581505441	9.12	16.89
12/02/2020 11:04:02	120220	12022020	110402	194.51	12.513363	-57.199543	194.62	0.420	-1.890	2.930	194.51	-3.00	3.40	 	 	 	 	 	 	 	 	 	 	 	 	 	 	 	 	 	 	1581505442	9.14	16.93
12/02/2020 11:04:03	120220	12022020	110403	194.54	12.513328	-57.199560	194.70	0.460	-0.720	2.560	194.54	-1.70	2.90	 	 	 	 	 	 	 	 	 	 	 	 	 	 	 	 	 	 	1581505443	8.14	15.08
12/02/2020 11:04:04	120220	12022020	110404	194.96	12.513297	-57.199570	195.13	-0.090	0.650	1.990	194.96	-0.50	2.40	 	 	 	 	 	 	 	 	 	 	 	 	 	 	 	 	 	 	1581505444	7.09	13.13
12/02/2020 11:04:05	120220	12022020	110405	195.23	12.513267	-57.199580	195.34	-0.720	1.020	1.770	195.23	-0.40	2.30	 	 	 	 	 	 	 	 	 	 	 	 	 	 	 	 	 	 	1581505445	7.00	12.96
12/02/2020 11:04:06	120220	12022020	110406	195.03	12.513232	-57.199595	195.10	-0.810	0.180	1.970	195.03	-1.40	2.50	 	 	 	 	 	 	 	 	 	 	 	 	 	 	 	 	 	 	1581505446	8.20	15.19
12/02/2020 11:04:07	120220	12022020	110407	194.61	12.513192	-57.199615	194.70	-0.340	-0.650	2.300	194.61	-2.00	2.90	 	 	 	 	 	 	 	 	 	 	 	 	 	 	 	 	 	 	1581505447	9.46	17.52
12/02/2020 11:04:08	120220	12022020	110408	194.34	12.513152	-57.199632	194.48	0.150	-0.470	2.440	194.34	-1.60	2.90	 	 	 	 	 	 	 	 	 	 	 	 	 	 	 	 	 	 	1581505448	9.19	17.02
12/02/2020 11:04:09	120220	12022020	110409	194.37	12.513117	-57.199645	194.56	0.270	0.260	2.120	194.40	-1.00	2.50	 	 	 	 	 	 	 	 	 	 	 	 	 	 	 	 	 	 	1581505449	7.93	14.69
12/02/2020 11:04:10	120220	12022020	110410	194.62	12.513085	-57.199657	194.77	0.110	0.490	1.710	194.62	-0.90	2.20	 	 	 	 	 	 	 	 	 	 	 	 	 	 	 	 	 	 	1581505450	7.27	13.46
12/02/2020 11:04:11	120220	12022020	110411	194.71	12.513052	-57.199668	194.85	0.100	-0.070	1.660	194.71	-1.60	2.20	 	 	 	 	 	 	 	 	 	 	 	 	 	 	 	 	 	 	1581505451	7.77	14.39
12/02/2020 11:04:12	120220	12022020	110412	194.68	12.513013	-57.199682	194.83	0.260	-0.760	1.780	194.68	-2.20	2.30	 	 	 	 	 	 	 	 	 	 	 	 	 	 	 	 	 	 	1581505452	8.55	15.83
12/02/2020 11:04:13	120220	12022020	110413	194.78	12.512977	-57.199697	194.94	0.300	-0.780	1.840	194.78	-2.10	2.40	 	 	 	 	 	 	 	 	 	 	 	 	 	 	 	 	 	 	1581505453	8.50	15.74
12/02/2020 11:04:14	120220	12022020	110414	194.90	12.512943	-57.199710	195.03	0.150	-0.470	1.940	194.90	-1.80	2.50	 	 	 	 	 	 	 	 	 	 	 	 	 	 	 	 	 	 	1581505454	7.72	14.30
12/02/2020 11:04:15	120220	12022020	110415	194.65	12.512912	-57.199723	194.72	0.120	-0.590	2.330	194.65	-2.00	2.90	 	 	 	 	 	 	 	 	 	 	 	 	 	 	 	 	 	 	1581505455	7.54	13.96
12/02/2020 11:04:16	120220	12022020	110416	194.07	12.512875	-57.199740	194.17	0.240	-0.950	2.860	194.07	-2.30	3.40	 	 	 	 	 	 	 	 	 	 	 	 	 	 	 	 	 	 	1581505456	8.39	15.54
12/02/2020 11:04:17	120220	12022020	110417	193.81	12.512838	-57.199755	193.97	0.200	-0.630	3.030	193.81	-1.80	3.50	 	 	 	 	 	 	 	 	 	 	 	 	 	 	 	 	 	 	1581505457	8.80	16.30
12/02/2020 11:04:18	120220	12022020	110418	194.04	12.512803	-57.199770	194.24	-0.210	0.260	2.730	194.04	-0.90	3.10	 	 	 	 	 	 	 	 	 	 	 	 	 	 	 	 	 	 	1581505458	8.00	14.82
12/02/2020 11:04:19	120220	12022020	110419	194.34	12.512772	-57.199782	194.59	-0.710	0.760	2.360	194.40	-0.60	2.80	 	 	 	 	 	 	 	 	 	 	 	 	 	 	 	 	 	 	1581505459	7.36	13.63
12/02/2020 11:04:20	120220	12022020	110420	194.72	12.512737	-57.199797	194.90	-0.840	0.480	2.070	194.72	-1.00	2.50	 	 	 	 	 	 	 	 	 	 	 	 	 	 	 	 	 	 	1581505460	7.82	14.48
12/02/2020 11:04:21	120220	12022020	110421	195.01	12.512702	-57.199812	195.24	-0.500	-0.080	1.720	195.07	-1.50	2.10	 	 	 	 	 	 	 	 	 	 	 	 	 	 	 	 	 	 	1581505461	8.50	15.74
12/02/2020 11:04:22	120220	12022020	110422	195.38	12.512665	-57.199827	195.51	0.060	-0.450	1.280	195.38	-1.90	1.70	 	 	 	 	 	 	 	 	 	 	 	 	 	 	 	 	 	 	1581505462	8.50	15.74
12/02/2020 11:04:23	120220	12022020	110423	195.50	12.512628	-57.199838	195.61	0.540	-0.670	0.980	195.51	-2.10	1.50	 	 	 	 	 	 	 	 	 	 	 	 	 	 	 	 	 	 	1581505463	8.13	15.06
12/02/2020 11:04:24	120220	12022020	110424	195.33	12.512593	-57.199850	195.37	0.810	-0.880	1.040	195.33	-2.30	1.60	 	 	 	 	 	 	 	 	 	 	 	 	 	 	 	 	 	 	1581505464	7.97	14.76
12/02/2020 11:04:25	120220	12022020	110425	194.78	12.512557	-57.199860	194.81	0.840	-0.960	1.440	194.78	-2.30	2.10	 	 	 	 	 	 	 	 	 	 	 	 	 	 	 	 	 	 	1581505465	8.12	15.04
12/02/2020 11:04:26	120220	12022020	110426	194.21	12.512520	-57.199872	194.29	0.520	-0.640	2.060	194.21	-1.80	2.70	 	 	 	 	 	 	 	 	 	 	 	 	 	 	 	 	 	 	1581505466	8.22	15.22
12/02/2020 11:04:27	120220	12022020	110427	194.06	12.512485	-57.199887	194.19	-0.110	0.000	2.650	194.06	-1.20	3.30	 	 	 	 	 	 	 	 	 	 	 	 	 	 	 	 	 	 	1581505467	8.00	14.82
12/02/2020 11:04:28	120220	12022020	110428	194.27	12.512453	-57.199903	194.44	-0.770	0.490	3.180	194.27	-0.80	3.80	 	 	 	 	 	 	 	 	 	 	 	 	 	 	 	 	 	 	1581505468	7.83	14.50
12/02/2020 11:04:29	120220	12022020	110429	194.50	12.512420	-57.199923	194.67	-1.110	0.460	3.580	194.50	-1.00	4.10	 	 	 	 	 	 	 	 	 	 	 	 	 	 	 	 	 	 	1581505469	8.11	15.02
12/02/2020 11:04:30	120220	12022020	110430	194.69	12.512387	-57.199943	194.88	-0.880	0.030	3.410	194.69	-1.40	3.80	 	 	 	 	 	 	 	 	 	 	 	 	 	 	 	 	 	 	1581505470	8.65	16.02
12/02/2020 11:04:31	120220	12022020	110431	195.00	12.512350	-57.199962	195.19	-0.290	-0.180	2.610	195.00	-1.50	2.90	 	 	 	 	 	 	 	 	 	 	 	 	 	 	 	 	 	 	1581505471	8.67	16.06
12/02/2020 11:04:32	120220	12022020	110432	195.37	12.512315	-57.199973	195.53	0.280	-0.080	1.520	195.37	-1.40	1.80	 	 	 	 	 	 	 	 	 	 	 	 	 	 	 	 	 	 	1581505472	8.06	14.93
12/02/2020 11:04:33	120220	12022020	110433	195.54	12.512280	-57.199982	195.63	0.600	-0.260	0.710	195.54	-1.70	1.10	 	 	 	 	 	 	 	 	 	 	 	 	 	 	 	 	 	 	1581505473	7.63	14.13
12/02/2020 11:04:34	120220	12022020	110434	195.33	12.512243	-57.199988	195.39	0.620	-0.860	0.670	195.33	-2.30	1.30	 	 	 	 	 	 	 	 	 	 	 	 	 	 	 	 	 	 	1581505474	8.01	14.83
12/02/2020 11:04:35	120220	12022020	110435	194.87	12.512205	-57.200000	194.94	0.420	-1.290	1.310	194.87	-2.60	2.00	 	 	 	 	 	 	 	 	 	 	 	 	 	 	 	 	 	 	1581505475	8.50	15.74
12/02/2020 11:04:36	120220	12022020	110436	194.65	12.512168	-57.200015	194.78	0.110	-0.930	1.960	194.65	-2.10	2.60	 	 	 	 	 	 	 	 	 	 	 	 	 	 	 	 	 	 	1581505476	8.49	15.72
12/02/2020 11:04:37	120220	12022020	110437	194.71	12.512137	-57.200032	194.85	-0.090	-0.070	2.380	194.71	-1.20	2.90	 	 	 	 	 	 	 	 	 	 	 	 	 	 	 	 	 	 	1581505477	7.81	14.46
12/02/2020 11:04:38	120220	12022020	110438	194.61	12.512105	-57.200048	194.71	-0.010	0.350	2.580	194.61	-1.00	3.10	 	 	 	 	 	 	 	 	 	 	 	 	 	 	 	 	 	 	1581505478	7.42	13.74
12/02/2020 11:04:39	120220	12022020	110439	194.24	12.512072	-57.200062	194.34	0.220	0.110	2.630	194.24	-1.30	3.10	 	 	 	 	 	 	 	 	 	 	 	 	 	 	 	 	 	 	1581505479	8.00	14.82
12/02/2020 11:04:40	120220	12022020	110440	194.00	12.512033	-57.200073	194.13	0.170	-0.120	2.590	194.00	-1.50	3.10	 	 	 	 	 	 	 	 	 	 	 	 	 	 	 	 	 	 	1581505480	8.64	16.00
12/02/2020 11:04:41	120220	12022020	110441	193.99	12.511995	-57.200088	194.18	-0.220	0.000	2.530	193.99	-1.30	3.00	 	 	 	 	 	 	 	 	 	 	 	 	 	 	 	 	 	 	1581505481	8.47	15.69
12/02/2020 11:04:42	120220	12022020	110442	194.37	12.511962	-57.200103	194.58	-0.690	0.300	2.370	194.37	-1.00	2.80	 	 	 	 	 	 	 	 	 	 	 	 	 	 	 	 	 	 	1581505482	7.98	14.78
12/02/2020 11:04:43	120220	12022020	110443	194.93	12.511930	-57.200118	195.13	-0.820	0.280	2.210	194.93	-1.20	2.70	 	 	 	 	 	 	 	 	 	 	 	 	 	 	 	 	 	 	1581505483	7.62	14.11
12/02/2020 11:04:44	120220	12022020	110444	195.26	12.511897	-57.200135	195.41	-0.460	-0.440	2.180	195.26	-2.00	2.70	 	 	 	 	 	 	 	 	 	 	 	 	 	 	 	 	 	 	1581505484	7.90	14.63
12/02/2020 11:04:45	120220	12022020	110445	195.20	12.511860	-57.200152	195.31	0.200	-1.430	2.110	195.20	-2.90	2.60	 	 	 	 	 	 	 	 	 	 	 	 	 	 	 	 	 	 	1581505485	8.65	16.02
12/02/2020 11:04:46	120220	12022020	110446	194.98	12.511822	-57.200167	195.07	0.700	-1.700	1.920	194.98	-2.90	2.30	 	 	 	 	 	 	 	 	 	 	 	 	 	 	 	 	 	 	1581505486	8.93	16.54
12/02/2020 11:04:47	120220	12022020	110447	194.87	12.511785	-57.200178	194.96	0.810	-0.890	1.500	194.85	-2.00	1.90	 	 	 	 	 	 	 	 	 	 	 	 	 	 	 	 	 	 	1581505487	8.20	15.19
12/02/2020 11:04:48	120220	12022020	110448	194.81	12.511752	-57.200187	194.91	0.570	0.240	1.040	194.81	-0.90	1.50	 	 	 	 	 	 	 	 	 	 	 	 	 	 	 	 	 	 	1581505488	7.26	13.45
12/02/2020 11:04:49	120220	12022020	110449	194.89	12.511720	-57.200193	195.00	0.150	0.870	0.920	194.89	-0.50	1.50	 	 	 	 	 	 	 	 	 	 	 	 	 	 	 	 	 	 	1581505489	7.17	13.28
12/02/2020 11:04:50	120220	12022020	110450	194.96	12.511685	-57.200203	195.05	-0.250	0.690	1.450	194.96	-0.80	2.10	 	 	 	 	 	 	 	 	 	 	 	 	 	 	 	 	 	 	1581505490	7.72	14.30
12/02/2020 11:04:51	120220	12022020	110451	194.77	12.511648	-57.200218	194.84	-0.400	-0.010	2.450	194.77	-1.50	3.20	 	 	 	 	 	 	 	 	 	 	 	 	 	 	 	 	 	 	1581505491	8.50	15.74
12/02/2020 11:04:52	120220	12022020	110452	194.40	12.511612	-57.200240	194.50	-0.280	-0.590	3.270	194.40	-2.00	3.90	 	 	 	 	 	 	 	 	 	 	 	 	 	 	 	 	 	 	1581505492	9.09	16.83
12/02/2020 11:04:53	120220	12022020	110453	194.28	12.511575	-57.200258	194.42	-0.120	-0.660	3.580	194.28	-2.00	4.10	 	 	 	 	 	 	 	 	 	 	 	 	 	 	 	 	 	 	1581505493	8.85	16.39
12/02/2020 11:04:54	120220	12022020	110454	194.42	12.511540	-57.200277	194.59	-0.080	-0.390	3.460	194.42	-1.70	3.80	 	 	 	 	 	 	 	 	 	 	 	 	 	 	 	 	 	 	1581505494	8.16	15.11
12/02/2020 11:04:55	120220	12022020	110455	194.57	12.511508	-57.200290	194.71	-0.110	-0.230	2.880	194.57	-1.60	3.20	 	 	 	 	 	 	 	 	 	 	 	 	 	 	 	 	 	 	1581505495	7.63	14.13
12/02/2020 11:04:56	120220	12022020	110456	194.55	12.511475	-57.200303	194.67	-0.080	-0.350	2.070	194.55	-1.80	2.40	 	 	 	 	 	 	 	 	 	 	 	 	 	 	 	 	 	 	1581505496	7.73	14.32
12/02/2020 11:04:57	120220	12022020	110457	194.53	12.511438	-57.200313	194.64	0.000	-0.470	1.380	194.53	-1.80	1.80	 	 	 	 	 	 	 	 	 	 	 	 	 	 	 	 	 	 	1581505497	8.04	14.89
12/02/2020 11:04:58	120220	12022020	110458	194.57	12.511403	-57.200323	194.68	0.140	-0.440	0.920	194.57	-1.80	1.40	 	 	 	 	 	 	 	 	 	 	 	 	 	 	 	 	 	 	1581505498	8.02	14.85
12/02/2020 11:04:59	120220	12022020	110459	194.60	12.511367	-57.200335	194.70	0.310	-0.350	0.720	194.60	-1.70	1.20	 	 	 	 	 	 	 	 	 	 	 	 	 	 	 	 	 	 	1581505499	7.90	14.63
12/02/2020 11:05:00	120220	12022020	110500	194.67	12.511332	-57.200345	194.77	0.410	-0.220	0.840	194.67	-1.50	1.40	 	 	 	 	 	 	 	 	 	 	 	 	 	 	 	 	 	 	1581505500	7.97	14.76
12/02/2020 11:05:01	120220	12022020	110501	194.79	12.511297	-57.200357	194.89	0.360	-0.060	1.320	194.79	-1.40	2.00	1015.80	26.20	26.30	21.00	21.10	118.0	73.0	73.0	410.0	26.3	262.00	10.50	76.00	11.90	8147	9534.0	27.5	27.5	1581505501	7.97	14.76
12/02/2020 11:05:02	120220	12022020	110502	194.71	12.511262	-57.200372	194.79	0.220	-0.050	1.970	194.71	-1.40	2.60	 	 	 	 	 	 	 	 	 	 	 	 	 	 	 	 	 	 	1581505502	7.97	14.76
12/02/2020 11:05:03	120220	12022020	110503	194.51	12.511227	-57.200385	194.61	-0.020	-0.150	2.520	194.51	-1.50	3.10	 	 	 	 	 	 	 	 	 	 	 	 	 	 	 	 	 	 	1581505503	8.23	15.24
12/02/2020 11:05:04	120220	12022020	110504	194.51	12.511192	-57.200400	194.65	-0.340	-0.150	2.890	194.51	-1.50	3.40	 	 	 	 	 	 	 	 	 	 	 	 	 	 	 	 	 	 	1581505504	8.29	15.35
12/02/2020 11:05:05	120220	12022020	110505	194.67	12.511157	-57.200417	194.82	-0.570	-0.170	2.930	194.67	-1.60	3.40	 	 	 	 	 	 	 	 	 	 	 	 	 	 	 	 	 	 	1581505505	8.09	14.98
12/02/2020 11:05:06	120220	12022020	110506	194.67	12.511123	-57.200432	194.80	-0.530	-0.450	2.870	194.67	-1.90	3.40	 	 	 	 	 	 	 	 	 	 	 	 	 	 	 	 	 	 	1581505506	8.04	14.89
12/02/2020 11:05:07	120220	12022020	110507	194.45	12.511087	-57.200448	194.58	-0.240	-0.800	2.830	194.45	-2.20	3.30	 	 	 	 	 	 	 	 	 	 	 	 	 	 	 	 	 	 	1581505507	8.39	15.54
12/02/2020 11:05:08	120220	12022020	110508	194.20	12.511050	-57.200463	194.32	0.130	-0.790	2.540	194.20	-2.00	2.90	 	 	 	 	 	 	 	 	 	 	 	 	 	 	 	 	 	 	1581505508	8.51	15.76
12/02/2020 11:05:09	120220	12022020	110509	194.14	12.511015	-57.200477	194.28	0.360	-0.190	1.910	194.14	-1.40	2.30	 	 	 	 	 	 	 	 	 	 	 	 	 	 	 	 	 	 	1581505509	8.12	15.04
12/02/2020 11:05:10	120220	12022020	110510	194.38	12.510982	-57.200485	194.53	0.330	0.560	1.320	194.38	-0.70	1.70	 	 	 	 	 	 	 	 	 	 	 	 	 	 	 	 	 	 	1581505510	7.44	13.78
12/02/2020 11:05:11	120220	12022020	110511	194.70	12.510948	-57.200493	194.83	0.150	0.760	0.920	194.70	-0.70	1.40	 	 	 	 	 	 	 	 	 	 	 	 	 	 	 	 	 	 	1581505511	7.21	13.35
12/02/2020 11:05:12	120220	12022020	110512	194.91	12.510913	-57.200502	195.01	-0.010	0.190	0.870	194.91	-1.40	1.40	 	 	 	 	 	 	 	 	 	 	 	 	 	 	 	 	 	 	1581505512	7.73	14.32
12/02/2020 11:05:13	120220	12022020	110513	194.99	12.510877	-57.200515	195.09	0.000	-0.810	1.290	194.99	-2.40	1.90	 	 	 	 	 	 	 	 	 	 	 	 	 	 	 	 	 	 	1581505513	8.46	15.67
12/02/2020 11:05:14	120220	12022020	110514	194.93	12.510838	-57.200532	195.02	0.240	-1.510	1.970	194.93	-2.90	2.60	 	 	 	 	 	 	 	 	 	 	 	 	 	 	 	 	 	 	1581505514	8.91	16.50
12/02/2020 11:05:15	120220	12022020	110515	194.71	12.510802	-57.200548	194.81	0.430	-1.440	2.540	194.71	-2.70	3.10	 	 	 	 	 	 	 	 	 	 	 	 	 	 	 	 	 	 	1581505515	8.65	16.02
12/02/2020 11:05:16	120220	12022020	110516	194.55	12.510767	-57.200563	194.66	0.280	-0.710	2.800	194.55	-1.90	3.30	 	 	 	 	 	 	 	 	 	 	 	 	 	 	 	 	 	 	1581505516	8.01	14.83
12/02/2020 11:05:17	120220	12022020	110517	194.40	12.510735	-57.200575	194.52	-0.170	0.110	2.880	194.40	-1.10	3.40	 	 	 	 	 	 	 	 	 	 	 	 	 	 	 	 	 	 	1581505517	7.52	13.93
12/02/2020 11:05:18	120220	12022020	110518	194.36	12.510702	-57.200588	194.50	-0.630	0.650	2.770	194.36	-0.60	3.20	 	 	 	 	 	 	 	 	 	 	 	 	 	 	 	 	 	 	1581505518	7.58	14.04
12/02/2020 11:05:19	120220	12022020	110519	194.60	12.510668	-57.200602	194.77	-0.900	0.820	2.410	194.60	-0.60	2.80	 	 	 	 	 	 	 	 	 	 	 	 	 	 	 	 	 	 	1581505519	7.82	14.48
12/02/2020 11:05:20	120220	12022020	110520	194.76	12.510633	-57.200615	194.90	-0.830	0.360	2.210	194.76	-1.20	2.70	 	 	 	 	 	 	 	 	 	 	 	 	 	 	 	 	 	 	1581505520	8.01	14.83
12/02/2020 11:05:21	120220	12022020	110521	194.60	12.510597	-57.200632	194.70	-0.350	-0.460	2.250	194.60	-2.00	2.70	 	 	 	 	 	 	 	 	 	 	 	 	 	 	 	 	 	 	1581505521	8.59	15.91
12/02/2020 11:05:22	120220	12022020	110522	194.25	12.510558	-57.200648	194.35	0.360	-0.890	2.150	194.25	-2.20	2.50	 	 	 	 	 	 	 	 	 	 	 	 	 	 	 	 	 	 	1581505522	8.84	16.37
12/02/2020 11:05:23	120220	12022020	110523	194.03	12.510523	-57.200662	194.14	0.930	-0.590	1.590	194.03	-1.80	1.90	 	 	 	 	 	 	 	 	 	 	 	 	 	 	 	 	 	 	1581505523	8.25	15.28
12/02/2020 11:05:24	120220	12022020	110524	194.16	12.510488	-57.200668	194.29	1.070	-0.070	0.750	194.16	-1.40	1.10	 	 	 	 	 	 	 	 	 	 	 	 	 	 	 	 	 	 	1581505524	7.47	13.83
12/02/2020 11:05:25	120220	12022020	110525	194.48	12.510455	-57.200673	194.60	0.760	-0.010	0.280	194.48	-1.40	0.80	 	 	 	 	 	 	 	 	 	 	 	 	 	 	 	 	 	 	1581505525	7.36	13.63
12/02/2020 11:05:26	120220	12022020	110526	194.77	12.510418	-57.200680	194.87	0.180	-0.440	0.610	194.77	-1.90	1.30	 	 	 	 	 	 	 	 	 	 	 	 	 	 	 	 	 	 	1581505526	7.88	14.59
12/02/2020 11:05:27	120220	12022020	110527	194.98	12.510382	-57.200693	195.09	-0.400	-0.780	1.500	194.98	-2.10	2.20	 	 	 	 	 	 	 	 	 	 	 	 	 	 	 	 	 	 	1581505527	8.39	15.54
12/02/2020 11:05:28	120220	12022020	110528	195.15	12.510347	-57.200712	195.27	-0.780	-0.720	2.470	195.15	-2.00	3.20	 	 	 	 	 	 	 	 	 	 	 	 	 	 	 	 	 	 	1581505528	8.39	15.54
12/02/2020 11:05:29	120220	12022020	110529	195.01	12.510315	-57.200732	195.11	-0.810	-0.610	3.370	195.01	-2.00	4.00	 	 	 	 	 	 	 	 	 	 	 	 	 	 	 	 	 	 	1581505529	8.20	15.19
12/02/2020 11:05:30	120220	12022020	110530	194.54	12.510280	-57.200752	194.63	-0.540	-0.610	3.910	194.54	-1.90	4.40	 	 	 	 	 	 	 	 	 	 	 	 	 	 	 	 	 	 	1581505530	8.44	15.63
12/02/2020 11:05:31	120220	12022020	110531	194.13	12.510245	-57.200770	194.24	-0.190	-0.280	3.660	194.13	-1.50	4.00	 	 	 	 	 	 	 	 	 	 	 	 	 	 	 	 	 	 	1581505531	8.59	15.91
12/02/2020 11:05:32	120220	12022020	110532	194.02	12.510210	-57.200783	194.16	0.080	0.390	2.670	194.02	-0.80	2.90	 	 	 	 	 	 	 	 	 	 	 	 	 	 	 	 	 	 	1581505532	8.04	14.89
12/02/2020 11:05:33	120220	12022020	110533	194.23	12.510175	-57.200790	194.40	0.200	0.790	1.360	194.23	-0.60	1.60	 	 	 	 	 	 	 	 	 	 	 	 	 	 	 	 	 	 	1581505533	7.54	13.96
12/02/2020 11:05:34	120220	12022020	110534	194.59	12.510140	-57.200793	194.74	0.240	0.480	0.480	194.59	-1.00	0.90	 	 	 	 	 	 	 	 	 	 	 	 	 	 	 	 	 	 	1581505534	7.73	14.32
12/02/2020 11:05:35	120220	12022020	110535	194.83	12.510102	-57.200802	194.93	0.330	-0.380	0.290	194.83	-2.00	0.80	 	 	 	 	 	 	 	 	 	 	 	 	 	 	 	 	 	 	1581505535	8.24	15.26
12/02/2020 11:05:36	120220	12022020	110536	194.84	12.510063	-57.200813	194.94	0.470	-1.180	0.630	194.84	-2.60	1.30	 	 	 	 	 	 	 	 	 	 	 	 	 	 	 	 	 	 	1581505536	8.71	16.13
12/02/2020 11:05:37	120220	12022020	110537	194.85	12.510025	-57.200827	194.97	0.410	-1.160	1.280	194.85	-2.40	1.90	 	 	 	 	 	 	 	 	 	 	 	 	 	 	 	 	 	 	1581505537	8.63	15.98
12/02/2020 11:05:38	120220	12022020	110538	194.98	12.509992	-57.200842	195.12	-0.040	-0.380	1.990	194.98	-1.50	2.60	 	 	 	 	 	 	 	 	 	 	 	 	 	 	 	 	 	 	1581505538	7.86	14.56
12/02/2020 11:05:39	120220	12022020	110539	195.22	12.509962	-57.200858	195.38	-0.650	0.400	2.380	195.22	-0.90	2.90	 	 	 	 	 	 	 	 	 	 	 	 	 	 	 	 	 	 	1581505539	7.24	13.41
12/02/2020 11:05:40	120220	12022020	110540	195.49	12.509932	-57.200873	195.64	-0.870	0.460	2.400	195.49	-1.00	2.80	 	 	 	 	 	 	 	 	 	 	 	 	 	 	 	 	 	 	1581505540	7.37	13.65
12/02/2020 11:05:41	120220	12022020	110541	195.61	12.509898	-57.200890	195.73	-0.400	-0.210	2.170	195.61	-1.80	2.50	 	 	 	 	 	 	 	 	 	 	 	 	 	 	 	 	 	 	1581505541	8.14	15.08
12/02/2020 11:05:42	120220	12022020	110542	195.58	12.509860	-57.200905	195.68	0.380	-0.850	1.710	195.58	-2.30	2.10	 	 	 	 	 	 	 	 	 	 	 	 	 	 	 	 	 	 	1581505542	8.84	16.37
12/02/2020 11:05:43	120220	12022020	110543	195.54	12.509820	-57.200915	195.63	0.790	-0.750	1.170	195.54	-2.00	1.50	 	 	 	 	 	 	 	 	 	 	 	 	 	 	 	 	 	 	1581505543	8.68	16.08
12/02/2020 11:05:44	120220	12022020	110544	195.54	12.509785	-57.200923	195.61	0.610	-0.080	0.680	195.54	-1.30	1.10	 	 	 	 	 	 	 	 	 	 	 	 	 	 	 	 	 	 	1581505544	7.80	14.45
12/02/2020 11:05:45	120220	12022020	110545	195.55	12.509752	-57.200930	195.61	0.130	0.360	0.620	195.55	-1.00	1.20	 	 	 	 	 	 	 	 	 	 	 	 	 	 	 	 	 	 	1581505545	7.23	13.39
12/02/2020 11:05:46	120220	12022020	110546	195.56	12.509718	-57.200940	195.64	-0.270	0.110	1.180	195.56	-1.40	1.80	 	 	 	 	 	 	 	 	 	 	 	 	 	 	 	 	 	 	1581505546	7.53	13.95
12/02/2020 11:05:47	120220	12022020	110547	195.52	12.509683	-57.200957	195.60	-0.390	-0.600	1.960	195.52	-2.10	2.60	 	 	 	 	 	 	 	 	 	 	 	 	 	 	 	 	 	 	1581505547	8.34	15.45
12/02/2020 11:05:48	120220	12022020	110548	195.38	12.509647	-57.200977	195.45	-0.240	-1.180	2.470	195.38	-2.60	3.00	 	 	 	 	 	 	 	 	 	 	 	 	 	 	 	 	 	 	1581505548	8.93	16.54
12/02/2020 11:05:49	120220	12022020	110549	195.24	12.509610	-57.200995	195.30	-0.040	-1.190	2.620	195.21	-2.40	3.10	 	 	 	 	 	 	 	 	 	 	 	 	 	 	 	 	 	 	1581505549	8.80	16.30
12/02/2020 11:05:50	120220	12022020	110550	195.15	12.509575	-57.201010	195.27	-0.020	-0.560	2.380	195.15	-1.70	2.70	 	 	 	 	 	 	 	 	 	 	 	 	 	 	 	 	 	 	1581505550	8.22	15.22
12/02/2020 11:05:51	120220	12022020	110551	195.29	12.509540	-57.201022	195.50	-0.290	0.360	1.830	195.36	-0.80	2.20	 	 	 	 	 	 	 	 	 	 	 	 	 	 	 	 	 	 	1581505551	7.59	14.06
12/02/2020 11:05:52	120220	12022020	110552	195.79	12.509508	-57.201032	195.92	-0.620	0.920	1.290	195.79	-0.40	1.70	 	 	 	 	 	 	 	 	 	 	 	 	 	 	 	 	 	 	1581505552	7.28	13.48
12/02/2020 11:05:53	120220	12022020	110553	196.15	12.509475	-57.201043	196.24	-0.520	0.700	0.990	196.15	-0.80	1.40	 	 	 	 	 	 	 	 	 	 	 	 	 	 	 	 	 	 	1581505553	7.61	14.09
12/02/2020 11:05:54	120220	12022020	110554	196.23	12.509438	-57.201057	196.31	0.150	-0.050	0.920	196.23	-1.60	1.40	 	 	 	 	 	 	 	 	 	 	 	 	 	 	 	 	 	 	1581505554	8.35	15.46
12/02/2020 11:05:55	120220	12022020	110555	196.17	12.509400	-57.201070	196.23	0.910	-0.640	1.000	196.17	-2.00	1.50	 	 	 	 	 	 	 	 	 	 	 	 	 	 	 	 	 	 	1581505555	8.77	16.24
12/02/2020 11:05:56	120220	12022020	110556	196.24	12.509362	-57.201080	196.34	1.060	-0.550	1.180	196.24	-1.80	1.70	 	 	 	 	 	 	 	 	 	 	 	 	 	 	 	 	 	 	1581505556	8.44	15.63
12/02/2020 11:05:57	120220	12022020	110557	196.47	12.509328	-57.201092	196.58	0.450	-0.130	1.580	196.47	-1.40	2.20	 	 	 	 	 	 	 	 	 	 	 	 	 	 	 	 	 	 	1581505557	7.56	14.00
12/02/2020 11:05:58	120220	12022020	110558	196.52	12.509298	-57.201105	196.60	-0.310	-0.120	2.240	196.52	-1.60	2.90	 	 	 	 	 	 	 	 	 	 	 	 	 	 	 	 	 	 	1581505558	7.19	13.32
12/02/2020 11:05:59	120220	12022020	110559	196.23	12.509265	-57.201123	196.30	-0.470	-0.690	2.780	196.23	-2.20	3.30	 	 	 	 	 	 	 	 	 	 	 	 	 	 	 	 	 	 	1581505559	7.93	14.69
12/02/2020 11:06:00	120220	12022020	110600	196.03	12.509230	-57.201142	196.15	-0.090	-1.030	2.790	196.03	-2.40	3.20	 	 	 	 	 	 	 	 	 	 	 	 	 	 	 	 	 	 	1581505560	8.62	15.96
12/02/2020 11:06:01	120220	12022020	110601	196.07	12.509193	-57.201155	196.23	0.220	-0.820	2.450	196.10	-2.10	2.80	1015.70	26.20	26.20	20.80	20.90	132.0	72.0	72.0	410.0	26.3	260.00	10.40	75.00	11.80	8552	8937.0	27.5	27.5	1581505561	8.33	15.43
12/02/2020 11:06:02	120220	12022020	110602	196.30	12.509160	-57.201168	196.44	0.120	-0.350	1.900	196.30	-1.60	2.20	 	 	 	 	 	 	 	 	 	 	 	 	 	 	 	 	 	 	1581505562	7.80	14.45
12/02/2020 11:06:03	120220	12022020	110603	196.49	12.509125	-57.201178	196.63	-0.200	-0.050	1.360	196.52	-1.40	1.80	 	 	 	 	 	 	 	 	 	 	 	 	 	 	 	 	 	 	1581505563	7.60	14.08
12/02/2020 11:06:04	120220	12022020	110604	196.49	12.509092	-57.201192	196.56	-0.270	-0.200	1.260	196.49	-1.60	1.80	 	 	 	 	 	 	 	 	 	 	 	 	 	 	 	 	 	 	1581505564	7.89	14.61
12/02/2020 11:06:05	120220	12022020	110605	196.19	12.509053	-57.201205	196.27	-0.050	-0.490	1.550	196.19	-1.90	2.10	 	 	 	 	 	 	 	 	 	 	 	 	 	 	 	 	 	 	1581505565	8.53	15.80
12/02/2020 11:06:06	120220	12022020	110606	196.09	12.509017	-57.201220	196.21	0.050	-0.280	1.820	196.09	-1.50	2.40	 	 	 	 	 	 	 	 	 	 	 	 	 	 	 	 	 	 	1581505566	8.72	16.15
12/02/2020 11:06:07	120220	12022020	110607	196.44	12.508982	-57.201235	196.61	-0.170	0.460	1.870	196.44	-0.70	2.30	 	 	 	 	 	 	 	 	 	 	 	 	 	 	 	 	 	 	1581505567	8.08	14.96
12/02/2020 11:06:08	120220	12022020	110608	197.12	12.508950	-57.201250	197.30	-0.420	1.080	1.600	197.12	-0.20	2.00	 	 	 	 	 	 	 	 	 	 	 	 	 	 	 	 	 	 	1581505568	7.34	13.59
12/02/2020 11:06:09	120220	12022020	110609	197.79	12.508920	-57.201263	197.94	-0.260	0.890	1.090	197.79	-0.70	1.50	 	 	 	 	 	 	 	 	 	 	 	 	 	 	 	 	 	 	1581505569	7.23	13.39
12/02/2020 11:06:10	120220	12022020	110610	198.10	12.508885	-57.201275	198.21	0.320	-0.150	0.850	198.10	-1.80	1.40	 	 	 	 	 	 	 	 	 	 	 	 	 	 	 	 	 	 	1581505570	7.94	14.70
12/02/2020 11:06:11	120220	12022020	110611	197.95	12.508847	-57.201287	198.03	0.870	-1.270	1.040	197.95	-2.80	1.60	 	 	 	 	 	 	 	 	 	 	 	 	 	 	 	 	 	 	1581505571	8.69	16.09
12/02/2020 11:06:12	120220	12022020	110612	197.55	12.508808	-57.201300	197.62	0.920	-1.670	1.490	197.55	-3.00	2.10	 	 	 	 	 	 	 	 	 	 	 	 	 	 	 	 	 	 	1581505572	8.68	16.08
12/02/2020 11:06:13	120220	12022020	110613	197.16	12.508773	-57.201313	197.25	0.460	-1.310	2.030	197.16	-2.50	2.60	 	 	 	 	 	 	 	 	 	 	 	 	 	 	 	 	 	 	1581505573	8.05	14.91
12/02/2020 11:06:14	120220	12022020	110614	196.93	12.508740	-57.201328	197.04	-0.200	-0.680	2.480	196.93	-1.90	3.10	 	 	 	 	 	 	 	 	 	 	 	 	 	 	 	 	 	 	1581505574	7.60	14.08
12/02/2020 11:06:15	120220	12022020	110615	196.80	12.508708	-57.201345	196.93	-0.680	-0.190	2.880	196.80	-1.50	3.40	 	 	 	 	 	 	 	 	 	 	 	 	 	 	 	 	 	 	1581505575	7.68	14.22
12/02/2020 11:06:16	120220	12022020	110616	196.84	12.508677	-57.201365	196.99	-0.850	0.120	2.990	196.84	-1.20	3.40	 	 	 	 	 	 	 	 	 	 	 	 	 	 	 	 	 	 	1581505576	8.12	15.04
12/02/2020 11:06:17	120220	12022020	110617	197.05	12.508642	-57.201383	197.21	-0.690	0.320	2.710	197.05	-1.00	3.10	 	 	 	 	 	 	 	 	 	 	 	 	 	 	 	 	 	 	1581505577	8.30	15.37
12/02/2020 11:06:18	120220	12022020	110618	197.23	12.508607	-57.201400	197.37	-0.260	0.280	2.280	197.23	-1.10	2.60	 	 	 	 	 	 	 	 	 	 	 	 	 	 	 	 	 	 	1581505578	8.25	15.28
12/02/2020 11:06:19	120220	12022020	110619	197.34	12.508572	-57.201415	197.47	0.270	0.050	1.610	197.34	-1.40	1.90	 	 	 	 	 	 	 	 	 	 	 	 	 	 	 	 	 	 	1581505579	8.37	15.50
12/02/2020 11:06:20	120220	12022020	110620	197.66	12.508533	-57.201425	197.81	0.600	0.060	0.620	197.66	-1.30	0.90	 	 	 	 	 	 	 	 	 	 	 	 	 	 	 	 	 	 	1581505580	8.40	15.56
12/02/2020 11:06:21	120220	12022020	110621	198.23	12.508498	-57.201432	198.38	0.580	0.330	-0.230	198.23	-1.00	0.20	 	 	 	 	 	 	 	 	 	 	 	 	 	 	 	 	 	 	1581505581	7.92	14.67
12/02/2020 11:06:22	120220	12022020	110622	198.64	12.508463	-57.201438	198.73	0.390	0.160	-0.370	198.64	-1.40	0.20	 	 	 	 	 	 	 	 	 	 	 	 	 	 	 	 	 	 	1581505582	7.44	13.78
12/02/2020 11:06:23	120220	12022020	110623	198.52	12.508428	-57.201450	198.59	0.190	-0.650	0.420	198.52	-2.20	1.20	 	 	 	 	 	 	 	 	 	 	 	 	 	 	 	 	 	 	1581505583	7.84	14.52
12/02/2020 11:06:24	120220	12022020	110624	197.94	12.508393	-57.201467	198.01	0.030	-1.450	1.790	197.94	-2.90	2.60	 	 	 	 	 	 	 	 	 	 	 	 	 	 	 	 	 	 	1581505584	8.63	15.98
12/02/2020 11:06:25	120220	12022020	110625	197.44	12.508357	-57.201490	197.48	-0.120	-1.480	2.870	197.35	-2.70	3.50	 	 	 	 	 	 	 	 	 	 	 	 	 	 	 	 	 	 	1581505585	8.95	16.58
12/02/2020 11:06:26	120220	12022020	110626	197.28	12.508325	-57.201512	197.49	-0.230	-0.510	3.110	197.28	-1.60	3.50	 	 	 	 	 	 	 	 	 	 	 	 	 	 	 	 	 	 	1581505586	8.29	15.35
12/02/2020 11:06:27	120220	12022020	110627	197.53	12.508297	-57.201528	197.78	-0.300	0.400	2.770	197.58	-0.90	3.10	 	 	 	 	 	 	 	 	 	 	 	 	 	 	 	 	 	 	1581505587	7.13	13.20
12/02/2020 11:06:28	120220	12022020	110628	197.71	12.508265	-57.201540	197.86	-0.230	0.250	2.310	197.71	-1.30	2.70	 	 	 	 	 	 	 	 	 	 	 	 	 	 	 	 	 	 	1581505588	7.30	13.52
12/02/2020 11:06:29	120220	12022020	110629	197.60	12.508227	-57.201553	197.75	-0.130	-0.530	2.070	197.60	-2.00	2.50	 	 	 	 	 	 	 	 	 	 	 	 	 	 	 	 	 	 	1581505589	8.51	15.76
12/02/2020 11:06:30	120220	12022020	110630	197.43	12.508188	-57.201568	197.58	-0.110	-0.900	2.110	197.43	-2.20	2.60	 	 	 	 	 	 	 	 	 	 	 	 	 	 	 	 	 	 	1581505590	9.05	16.76
12/02/2020 11:06:31	120220	12022020	110631	197.12	12.508152	-57.201585	197.24	-0.140	-0.540	2.280	197.12	-1.70	2.80	 	 	 	 	 	 	 	 	 	 	 	 	 	 	 	 	 	 	1581505591	8.53	15.80
12/02/2020 11:06:32	120220	12022020	110632	196.71	12.508118	-57.201602	196.83	-0.040	0.170	2.370	196.71	-1.00	2.80	 	 	 	 	 	 	 	 	 	 	 	 	 	 	 	 	 	 	1581505592	7.84	14.52
12/02/2020 11:06:33	120220	12022020	110633	196.51	12.508087	-57.201617	196.68	0.170	0.690	2.120	196.51	-0.60	2.50	 	 	 	 	 	 	 	 	 	 	 	 	 	 	 	 	 	 	1581505593	7.54	13.96
12/02/2020 11:06:34	120220	12022020	110634	196.83	12.508053	-57.201627	197.05	0.300	0.770	1.600	196.83	-0.60	2.00	 	 	 	 	 	 	 	 	 	 	 	 	 	 	 	 	 	 	1581505594	7.71	14.28
12/02/2020 11:06:35	120220	12022020	110635	197.55	12.508018	-57.201638	197.78	0.220	0.450	1.220	197.55	-1.00	1.70	 	 	 	 	 	 	 	 	 	 	 	 	 	 	 	 	 	 	1581505595	7.90	14.63
12/02/2020 11:06:36	120220	12022020	110636	198.25	12.507983	-57.201652	198.45	0.120	-0.180	1.210	198.25	-1.70	1.80	 	 	 	 	 	 	 	 	 	 	 	 	 	 	 	 	 	 	1581505596	7.97	14.76
12/02/2020 11:06:37	120220	12022020	110637	198.50	12.507948	-57.201667	198.66	0.240	-1.050	1.530	198.50	-2.60	2.10	 	 	 	 	 	 	 	 	 	 	 	 	 	 	 	 	 	 	1581505597	8.12	15.04
12/02/2020 11:06:38	120220	12022020	110638	198.30	12.507912	-57.201683	198.45	0.470	-1.760	2.080	198.30	-3.20	2.70	 	 	 	 	 	 	 	 	 	 	 	 	 	 	 	 	 	 	1581505598	8.45	15.65
12/02/2020 11:06:39	120220	12022020	110639	198.03	12.507877	-57.201700	198.15	0.350	-1.610	2.670	197.98	-2.80	3.20	 	 	 	 	 	 	 	 	 	 	 	 	 	 	 	 	 	 	1581505599	8.41	15.58
12/02/2020 11:06:40	120220	12022020	110640	197.78	12.507843	-57.201715	197.97	-0.120	-0.690	2.880	197.78	-1.80	3.40	 	 	 	 	 	 	 	 	 	 	 	 	 	 	 	 	 	 	1581505600	7.74	14.33
12/02/2020 11:06:41	120220	12022020	110641	197.56	12.507813	-57.201730	197.73	-0.520	0.080	2.800	197.56	-1.20	3.30	 	 	 	 	 	 	 	 	 	 	 	 	 	 	 	 	 	 	1581505601	7.18	13.30
12/02/2020 11:06:42	120220	12022020	110642	197.21	12.507782	-57.201745	197.37	-0.490	0.130	2.670	197.21	-1.30	3.10	 	 	 	 	 	 	 	 	 	 	 	 	 	 	 	 	 	 	1581505602	7.71	14.28
12/02/2020 11:06:43	120220	12022020	110643	197.05	12.507743	-57.201760	197.24	-0.280	-0.060	2.570	197.05	-1.40	3.10	 	 	 	 	 	 	 	 	 	 	 	 	 	 	 	 	 	 	1581505603	8.58	15.89
12/02/2020 11:06:44	120220	12022020	110644	197.21	12.507707	-57.201775	197.41	-0.330	-0.050	2.540	197.21	-1.40	3.00	 	 	 	 	 	 	 	 	 	 	 	 	 	 	 	 	 	 	1581505604	8.68	16.08
12/02/2020 11:06:45	120220	12022020	110645	197.45	12.507672	-57.201792	197.64	-0.590	0.130	2.570	197.45	-1.20	3.10	 	 	 	 	 	 	 	 	 	 	 	 	 	 	 	 	 	 	1581505605	8.32	15.41
12/02/2020 11:06:46	120220	12022020	110646	197.63	12.507638	-57.201812	197.80	-0.580	0.250	2.620	197.63	-1.10	3.10	 	 	 	 	 	 	 	 	 	 	 	 	 	 	 	 	 	 	1581505606	8.11	15.02
12/02/2020 11:06:47	120220	12022020	110647	197.75	12.507607	-57.201830	197.93	0.050	0.270	2.280	197.75	-1.10	2.60	 	 	 	 	 	 	 	 	 	 	 	 	 	 	 	 	 	 	1581505607	8.09	14.98
12/02/2020 11:06:48	120220	12022020	110648	198.05	12.507572	-57.201843	198.25	0.800	0.360	1.610	198.05	-1.00	1.90	 	 	 	 	 	 	 	 	 	 	 	 	 	 	 	 	 	 	1581505608	7.95	14.72
12/02/2020 11:06:49	120220	12022020	110649	198.56	12.507538	-57.201853	198.76	1.020	0.370	0.940	198.56	-1.10	1.30	 	 	 	 	 	 	 	 	 	 	 	 	 	 	 	 	 	 	1581505609	7.62	14.11
12/02/2020 11:06:50	120220	12022020	110650	198.96	12.507505	-57.201862	199.12	0.730	-0.040	0.600	198.96	-1.60	1.10	 	 	 	 	 	 	 	 	 	 	 	 	 	 	 	 	 	 	1581505610	7.43	13.76
12/02/2020 11:06:51	120220	12022020	110651	198.97	12.507470	-57.201873	199.06	0.380	-0.900	0.880	198.93	-2.50	1.50	 	 	 	 	 	 	 	 	 	 	 	 	 	 	 	 	 	 	1581505611	7.73	14.32
12/02/2020 11:06:52	120220	12022020	110652	198.58	12.507435	-57.201888	198.70	0.170	-1.690	1.550	198.58	-3.20	2.20	 	 	 	 	 	 	 	 	 	 	 	 	 	 	 	 	 	 	1581505612	8.27	15.32
12/02/2020 11:06:53	120220	12022020	110653	198.17	12.507398	-57.201905	198.20	-0.060	-2.010	2.560	198.07	-3.40	3.30	 	 	 	 	 	 	 	 	 	 	 	 	 	 	 	 	 	 	1581505613	8.47	15.69
12/02/2020 11:06:54	120220	12022020	110654	197.49	12.507365	-57.201925	197.65	-0.480	-1.740	3.670	197.49	-3.00	4.40	 	 	 	 	 	 	 	 	 	 	 	 	 	 	 	 	 	 	1581505614	8.44	15.63
12/02/2020 11:06:55	120220	12022020	110655	196.87	12.507333	-57.201947	197.04	-0.960	-1.010	4.400	196.87	-2.20	4.90	 	 	 	 	 	 	 	 	 	 	 	 	 	 	 	 	 	 	1581505615	8.43	15.61
12/02/2020 11:06:56	120220	12022020	110656	196.31	12.507300	-57.201970	196.50	-1.110	-0.080	4.610	196.31	-1.20	5.00	 	 	 	 	 	 	 	 	 	 	 	 	 	 	 	 	 	 	1581505616	8.35	15.46
12/02/2020 11:06:57	120220	12022020	110657	196.02	12.507268	-57.201990	196.23	-0.730	0.830	4.240	196.02	-0.40	4.50	 	 	 	 	 	 	 	 	 	 	 	 	 	 	 	 	 	 	1581505617	8.22	15.22
12/02/2020 11:06:58	120220	12022020	110658	196.20	12.507233	-57.202005	196.45	-0.040	1.450	3.180	196.20	0.10	3.40	 	 	 	 	 	 	 	 	 	 	 	 	 	 	 	 	 	 	1581505618	8.00	14.82
12/02/2020 11:06:59	120220	12022020	110659	196.80	12.507198	-57.202015	197.05	0.450	1.510	1.910	196.80	0.10	2.20	 	 	 	 	 	 	 	 	 	 	 	 	 	 	 	 	 	 	1581505619	7.95	14.72
12/02/2020 11:07:00	120220	12022020	110700	197.57	12.507162	-57.202022	197.81	0.520	0.980	1.150	197.57	-0.60	1.60	 	 	 	 	 	 	 	 	 	 	 	 	 	 	 	 	 	 	1581505620	8.05	14.91
12/02/2020 11:07:01	120220	12022020	110701	198.19	12.507125	-57.202032	198.39	0.340	0.060	1.100	198.19	-1.50	1.70	1015.80	26.30	26.30	21.10	21.10	159.0	73.0	73.0	410.0	26.4	259.00	10.10	76.00	11.70	9117	8728.0	27.5	27.5	1581505621	8.02	14.85
12/02/2020 11:07:02	120220	12022020	110702	198.30	12.507092	-57.202047	198.43	0.260	-0.930	1.580	198.30	-2.50	2.20	 	 	 	 	 	 	 	 	 	 	 	 	 	 	 	 	 	 	1581505622	8.02	14.85
12/02/2020 11:07:03	120220	12022020	110703	197.93	12.507058	-57.202065	198.03	0.390	-1.660	2.290	197.93	-3.10	2.90	 	 	 	 	 	 	 	 	 	 	 	 	 	 	 	 	 	 	1581505623	8.14	15.08
12/02/2020 11:07:04	120220	12022020	110704	197.32	12.507025	-57.202083	197.43	0.510	-1.890	2.950	197.32	-3.20	3.50	 	 	 	 	 	 	 	 	 	 	 	 	 	 	 	 	 	 	1581505624	8.11	15.02
12/02/2020 11:07:05	120220	12022020	110705	196.67	12.506992	-57.202100	196.80	0.410	-1.550	3.250	196.67	-2.70	3.70	 	 	 	 	 	 	 	 	 	 	 	 	 	 	 	 	 	 	1581505625	7.91	14.65
12/02/2020 11:07:06	120220	12022020	110706	196.32	12.506958	-57.202113	196.49	0.040	-0.770	3.010	196.32	-1.90	3.40	 	 	 	 	 	 	 	 	 	 	 	 	 	 	 	 	 	 	1581505626	7.65	14.17
12/02/2020 11:07:07	120220	12022020	110707	196.45	12.506927	-57.202127	196.65	-0.420	0.100	2.480	196.45	-1.10	2.80	 	 	 	 	 	 	 	 	 	 	 	 	 	 	 	 	 	 	1581505627	7.45	13.80
12/02/2020 11:07:08	120220	12022020	110708	196.87	12.506893	-57.202138	197.06	-0.710	0.600	1.890	196.87	-0.70	2.20	 	 	 	 	 	 	 	 	 	 	 	 	 	 	 	 	 	 	1581505628	7.48	13.85
12/02/2020 11:07:09	120220	12022020	110709	197.24	12.506860	-57.202152	197.40	-0.650	0.480	1.440	197.24	-1.00	1.90	 	 	 	 	 	 	 	 	 	 	 	 	 	 	 	 	 	 	1581505629	7.85	14.54
12/02/2020 11:07:10	120220	12022020	110710	197.35	12.506823	-57.202165	197.48	-0.330	-0.120	1.470	197.35	-1.60	2.00	 	 	 	 	 	 	 	 	 	 	 	 	 	 	 	 	 	 	1581505630	8.46	15.67
12/02/2020 11:07:11	120220	12022020	110711	197.23	12.506785	-57.202182	197.35	-0.020	-0.500	1.760	197.23	-1.90	2.30	 	 	 	 	 	 	 	 	 	 	 	 	 	 	 	 	 	 	1581505631	8.84	16.37
12/02/2020 11:07:12	120220	12022020	110712	197.09	12.506750	-57.202198	197.22	0.090	-0.230	1.960	197.09	-1.50	2.40	 	 	 	 	 	 	 	 	 	 	 	 	 	 	 	 	 	 	1581505632	8.45	15.65
12/02/2020 11:07:13	120220	12022020	110713	197.09	12.506717	-57.202213	197.23	0.020	0.340	1.930	197.09	-0.90	2.40	 	 	 	 	 	 	 	 	 	 	 	 	 	 	 	 	 	 	1581505633	7.63	14.13
12/02/2020 11:07:14	120220	12022020	110714	197.24	12.506685	-57.202227	197.40	-0.040	0.550	1.790	197.24	-0.90	2.20	 	 	 	 	 	 	 	 	 	 	 	 	 	 	 	 	 	 	1581505634	7.27	13.46
12/02/2020 11:07:15	120220	12022020	110715	197.32	12.506653	-57.202240	197.43	0.050	0.140	1.720	197.32	-1.40	2.20	 	 	 	 	 	 	 	 	 	 	 	 	 	 	 	 	 	 	1581505635	7.56	14.00
12/02/2020 11:07:16	120220	12022020	110716	197.04	12.506618	-57.202255	197.12	0.320	-0.630	1.810	197.04	-2.10	2.30	 	 	 	 	 	 	 	 	 	 	 	 	 	 	 	 	 	 	1581505636	8.17	15.13
12/02/2020 11:07:17	120220	12022020	110717	196.72	12.506582	-57.202270	196.85	0.530	-1.030	1.840	196.72	-2.40	2.30	 	 	 	 	 	 	 	 	 	 	 	 	 	 	 	 	 	 	1581505637	8.55	15.83
12/02/2020 11:07:18	120220	12022020	110718	196.77	12.506545	-57.202283	196.94	0.420	-0.690	1.780	196.77	-1.90	2.20	 	 	 	 	 	 	 	 	 	 	 	 	 	 	 	 	 	 	1581505638	8.10	15.00
12/02/2020 11:07:19	120220	12022020	110719	197.00	12.506513	-57.202297	197.15	0.080	-0.210	1.730	197.00	-1.50	2.20	 	 	 	 	 	 	 	 	 	 	 	 	 	 	 	 	 	 	1581505639	7.30	13.52
12/02/2020 11:07:20	120220	12022020	110720	197.06	12.506483	-57.202308	197.18	-0.150	-0.290	1.850	197.06	-1.70	2.40	 	 	 	 	 	 	 	 	 	 	 	 	 	 	 	 	 	 	1581505640	7.29	13.50
12/02/2020 11:07:21	120220	12022020	110721	196.96	12.506448	-57.202323	197.09	-0.170	-0.690	2.190	196.96	-2.10	2.80	 	 	 	 	 	 	 	 	 	 	 	 	 	 	 	 	 	 	1581505641	8.10	15.00
12/02/2020 11:07:22	120220	12022020	110722	196.83	12.506412	-57.202340	196.98	-0.160	-0.690	2.560	196.83	-2.00	3.10	 	 	 	 	 	 	 	 	 	 	 	 	 	 	 	 	 	 	1581505642	8.49	15.72
12/02/2020 11:07:23	120220	12022020	110723	196.73	12.506378	-57.202358	196.87	-0.240	-0.170	2.600	196.73	-1.40	3.00	 	 	 	 	 	 	 	 	 	 	 	 	 	 	 	 	 	 	1581505643	8.08	14.96
12/02/2020 11:07:24	120220	12022020	110724	196.66	12.506347	-57.202373	196.78	-0.320	0.270	2.420	196.66	-1.10	2.90	 	 	 	 	 	 	 	 	 	 	 	 	 	 	 	 	 	 	1581505644	7.54	13.96
12/02/2020 11:07:25	120220	12022020	110725	196.50	12.506313	-57.202387	196.61	-0.250	0.130	2.340	196.50	-1.30	2.80	 	 	 	 	 	 	 	 	 	 	 	 	 	 	 	 	 	 	1581505645	7.72	14.30
12/02/2020 11:07:26	120220	12022020	110726	196.37	12.506278	-57.202402	196.50	-0.030	-0.280	2.180	196.37	-1.70	2.60	 	 	 	 	 	 	 	 	 	 	 	 	 	 	 	 	 	 	1581505646	8.33	15.43
12/02/2020 11:07:27	120220	12022020	110727	196.35	12.506240	-57.202415	196.49	0.210	-0.460	1.900	196.35	-1.80	2.30	 	 	 	 	 	 	 	 	 	 	 	 	 	 	 	 	 	 	1581505647	8.51	15.76
12/02/2020 11:07:28	120220	12022020	110728	196.44	12.506205	-57.202428	196.56	0.380	-0.270	1.490	196.44	-1.60	1.90	 	 	 	 	 	 	 	 	 	 	 	 	 	 	 	 	 	 	1581505648	8.12	15.04
12/02/2020 11:07:29	120220	12022020	110729	196.57	12.506170	-57.202438	196.73	0.360	0.020	1.150	196.61	-1.30	1.60	 	 	 	 	 	 	 	 	 	 	 	 	 	 	 	 	 	 	1581505649	7.70	14.26
12/02/2020 11:07:30	120220	12022020	110730	196.85	12.506137	-57.202447	196.96	0.110	0.090	1.070	196.85	-1.30	1.60	 	 	 	 	 	 	 	 	 	 	 	 	 	 	 	 	 	 	1581505650	7.54	13.96
12/02/2020 11:07:31	120220	12022020	110731	196.87	12.506103	-57.202460	196.94	-0.180	-0.220	1.480	196.87	-1.70	2.10	 	 	 	 	 	 	 	 	 	 	 	 	 	 	 	 	 	 	1581505651	7.76	14.37
12/02/2020 11:07:32	120220	12022020	110732	196.54	12.506068	-57.202477	196.60	-0.300	-0.640	2.240	196.54	-2.00	2.90	 	 	 	 	 	 	 	 	 	 	 	 	 	 	 	 	 	 	1581505652	8.24	15.26
12/02/2020 11:07:33	120220	12022020	110733	196.20	12.506033	-57.202497	196.29	-0.190	-0.660	2.740	196.20	-1.90	3.30	 	 	 	 	 	 	 	 	 	 	 	 	 	 	 	 	 	 	1581505653	8.44	15.63
12/02/2020 11:07:34	120220	12022020	110734	196.08	12.506000	-57.202513	196.20	-0.040	-0.240	2.760	196.08	-1.50	3.20	 	 	 	 	 	 	 	 	 	 	 	 	 	 	 	 	 	 	1581505654	7.97	14.76
12/02/2020 11:07:35	120220	12022020	110735	196.24	12.505968	-57.202527	196.37	0.010	0.190	2.440	196.24	-1.10	2.80	 	 	 	 	 	 	 	 	 	 	 	 	 	 	 	 	 	 	1581505655	7.50	13.89
12/02/2020 11:07:36	120220	12022020	110736	196.50	12.505937	-57.202540	196.62	0.040	0.180	1.930	196.50	-1.30	2.30	 	 	 	 	 	 	 	 	 	 	 	 	 	 	 	 	 	 	1581505656	7.44	13.78
12/02/2020 11:07:37	120220	12022020	110737	196.61	12.505902	-57.202552	196.70	0.260	-0.310	1.380	196.61	-1.80	1.80	 	 	 	 	 	 	 	 	 	 	 	 	 	 	 	 	 	 	1581505657	7.86	14.56
12/02/2020 11:07:38	120220	12022020	110738	196.45	12.505863	-57.202562	196.52	0.530	-0.940	1.160	196.45	-2.40	1.70	 	 	 	 	 	 	 	 	 	 	 	 	 	 	 	 	 	 	1581505658	8.35	15.46
12/02/2020 11:07:39	120220	12022020	110739	196.18	12.505825	-57.202573	196.26	0.470	-1.180	1.310	196.18	-2.50	1.90	 	 	 	 	 	 	 	 	 	 	 	 	 	 	 	 	 	 	1581505659	8.53	15.80
12/02/2020 11:07:40	120220	12022020	110740	196.01	12.505790	-57.202585	196.11	-0.030	-0.850	1.620	196.01	-2.10	2.20	 	 	 	 	 	 	 	 	 	 	 	 	 	 	 	 	 	 	1581505660	8.21	15.20
12/02/2020 11:07:41	120220	12022020	110741	195.95	12.505757	-57.202602	196.05	-0.610	-0.260	1.990	195.95	-1.50	2.50	 	 	 	 	 	 	 	 	 	 	 	 	 	 	 	 	 	 	1581505661	7.84	14.52
12/02/2020 11:07:42	120220	12022020	110742	196.02	12.505725	-57.202620	196.15	-0.830	0.330	2.180	196.02	-0.90	2.70	 	 	 	 	 	 	 	 	 	 	 	 	 	 	 	 	 	 	1581505662	7.80	14.45
12/02/2020 11:07:43	120220	12022020	110743	196.22	12.505693	-57.202635	196.42	-0.610	0.650	2.120	196.28	-0.70	2.60	 	 	 	 	 	 	 	 	 	 	 	 	 	 	 	 	 	 	1581505663	7.78	14.41
12/02/2020 11:07:44	120220	12022020	110744	196.54	12.505658	-57.202650	196.66	-0.190	0.480	1.940	196.54	-1.00	2.40	 	 	 	 	 	 	 	 	 	 	 	 	 	 	 	 	 	 	1581505664	7.93	14.69
12/02/2020 11:07:45	120220	12022020	110745	196.57	12.505622	-57.202663	196.65	0.200	-0.030	1.760	196.57	-1.50	2.20	 	 	 	 	 	 	 	 	 	 	 	 	 	 	 	 	 	 	1581505665	8.25	15.28
12/02/2020 11:07:46	120220	12022020	110746	196.46	12.505585	-57.202677	196.56	0.390	-0.380	1.580	196.46	-1.80	2.00	 	 	 	 	 	 	 	 	 	 	 	 	 	 	 	 	 	 	1581505666	8.45	15.65
12/02/2020 11:07:47	120220	12022020	110747	196.55	12.505550	-57.202688	196.67	0.400	-0.160	1.250	196.55	-1.40	1.70	 	 	 	 	 	 	 	 	 	 	 	 	 	 	 	 	 	 	1581505667	8.10	15.00
12/02/2020 11:07:48	120220	12022020	110748	196.70	12.505517	-57.202698	196.79	0.370	0.070	0.950	196.70	-1.30	1.40	 	 	 	 	 	 	 	 	 	 	 	 	 	 	 	 	 	 	1581505668	7.31	13.54
12/02/2020 11:07:49	120220	12022020	110749	196.59	12.505485	-57.202708	196.64	0.430	-0.410	1.030	196.59	-2.00	1.60	 	 	 	 	 	 	 	 	 	 	 	 	 	 	 	 	 	 	1581505669	7.37	13.65
12/02/2020 11:07:50	120220	12022020	110750	196.24	12.505448	-57.202720	196.30	0.460	-1.250	1.540	196.24	-2.70	2.20	 	 	 	 	 	 	 	 	 	 	 	 	 	 	 	 	 	 	1581505670	8.29	15.35
12/02/2020 11:07:51	120220	12022020	110751	195.95	12.505410	-57.202737	196.03	0.200	-1.560	2.300	195.95	-2.90	3.00	 	 	 	 	 	 	 	 	 	 	 	 	 	 	 	 	 	 	1581505671	8.78	16.26
12/02/2020 11:07:52	120220	12022020	110752	195.76	12.505375	-57.202753	195.86	-0.340	-1.040	3.000	195.76	-2.20	3.60	 	 	 	 	 	 	 	 	 	 	 	 	 	 	 	 	 	 	1581505672	8.36	15.48
12/02/2020 11:07:53	120220	12022020	110753	195.63	12.505343	-57.202773	195.74	-0.800	-0.230	3.320	195.63	-1.40	3.80	 	 	 	 	 	 	 	 	 	 	 	 	 	 	 	 	 	 	1581505673	7.81	14.46
12/02/2020 11:07:54	120220	12022020	110754	195.61	12.505312	-57.202790	195.76	-0.860	0.350	3.170	195.61	-0.90	3.60	 	 	 	 	 	 	 	 	 	 	 	 	 	 	 	 	 	 	1581505674	7.72	14.30
12/02/2020 11:07:55	120220	12022020	110755	195.84	12.505278	-57.202807	196.01	-0.560	0.640	2.590	195.84	-0.70	2.90	 	 	 	 	 	 	 	 	 	 	 	 	 	 	 	 	 	 	1581505675	7.95	14.72
12/02/2020 11:07:56	120220	12022020	110756	196.34	12.505243	-57.202818	196.50	-0.120	0.650	1.700	196.34	-0.80	2.00	 	 	 	 	 	 	 	 	 	 	 	 	 	 	 	 	 	 	1581505676	8.02	14.85
12/02/2020 11:07:57	120220	12022020	110757	196.67	12.505207	-57.202828	196.77	0.320	0.270	1.010	196.67	-1.20	1.50	 	 	 	 	 	 	 	 	 	 	 	 	 	 	 	 	 	 	1581505677	8.08	14.96
12/02/2020 11:07:58	120220	12022020	110758	196.50	12.505170	-57.202838	196.55	0.730	-0.390	0.920	196.50	-1.90	1.50	 	 	 	 	 	 	 	 	 	 	 	 	 	 	 	 	 	 	1581505678	8.35	15.46
12/02/2020 11:07:59	120220	12022020	110759	196.24	12.505132	-57.202848	196.31	0.840	-0.670	1.090	196.24	-2.00	1.70	 	 	 	 	 	 	 	 	 	 	 	 	 	 	 	 	 	 	1581505679	8.57	15.87
12/02/2020 11:08:00	120220	12022020	110800	196.32	12.505095	-57.202858	196.43	0.480	-0.360	1.370	196.32	-1.60	2.00	 	 	 	 	 	 	 	 	 	 	 	 	 	 	 	 	 	 	1581505680	8.04	14.89
12/02/2020 11:08:01	120220	12022020	110801	196.57	12.505063	-57.202870	196.69	-0.080	-0.060	1.800	196.57	-1.40	2.40	1015.70	26.20	26.30	21.00	21.10	148.0	72.0	72.0	409.0	26.4	256.00	10.10	73.00	11.80	9341	8691.0	27.5	27.5	1581505681	7.37	13.65
12/02/2020 11:08:02	120220	12022020	110802	196.72	12.505032	-57.202887	196.84	-0.480	-0.280	2.310	196.72	-1.70	2.90	 	 	 	 	 	 	 	 	 	 	 	 	 	 	 	 	 	 	1581505682	7.50	13.89
12/02/2020 11:08:03	120220	12022020	110803	196.79	12.504998	-57.202905	196.92	-0.490	-0.770	2.640	196.79	-2.20	3.20	 	 	 	 	 	 	 	 	 	 	 	 	 	 	 	 	 	 	1581505683	8.21	15.20
12/02/2020 11:08:04	120220	12022020	110804	196.73	12.504963	-57.202923	196.84	-0.180	-0.990	2.650	196.73	-2.30	3.10	 	 	 	 	 	 	 	 	 	 	 	 	 	 	 	 	 	 	1581505684	8.51	15.76
12/02/2020 11:08:05	120220	12022020	110805	196.62	12.504928	-57.202940	196.73	0.230	-0.730	2.400	196.61	-2.00	2.80	 	 	 	 	 	 	 	 	 	 	 	 	 	 	 	 	 	 	1581505685	8.21	15.20
12/02/2020 11:08:06	120220	12022020	110806	196.60	12.504893	-57.202952	196.72	0.380	-0.210	1.970	196.60	-1.50	2.40	 	 	 	 	 	 	 	 	 	 	 	 	 	 	 	 	 	 	1581505686	7.80	14.45
12/02/2020 11:08:07	120220	12022020	110807	196.62	12.504858	-57.202960	196.73	0.230	0.150	1.530	196.62	-1.20	2.00	 	 	 	 	 	 	 	 	 	 	 	 	 	 	 	 	 	 	1581505687	7.65	14.17
12/02/2020 11:08:08	120220	12022020	110808	196.55	12.504823	-57.202968	196.62	-0.080	0.100	1.420	196.55	-1.30	2.00	 	 	 	 	 	 	 	 	 	 	 	 	 	 	 	 	 	 	1581505688	7.85	14.54
12/02/2020 11:08:09	120220	12022020	110809	196.30	12.504787	-57.202980	196.38	-0.350	-0.300	1.800	196.30	-1.80	2.40	 	 	 	 	 	 	 	 	 	 	 	 	 	 	 	 	 	 	1581505689	8.29	15.35
12/02/2020 11:08:10	120220	12022020	110810	196.02	12.504750	-57.202997	196.11	-0.480	-0.600	2.370	196.02	-2.00	3.00	 	 	 	 	 	 	 	 	 	 	 	 	 	 	 	 	 	 	1581505690	8.75	16.21
12/02/2020 11:08:11	120220	12022020	110811	195.82	12.504715	-57.203017	195.92	-0.320	-0.460	2.700	195.82	-1.70	3.20	 	 	 	 	 	 	 	 	 	 	 	 	 	 	 	 	 	 	1581505691	8.74	16.19
12/02/2020 11:08:12	120220	12022020	110812	195.88	12.504680	-57.203035	196.03	0.110	-0.000	2.290	195.88	-1.30	2.60	 	 	 	 	 	 	 	 	 	 	 	 	 	 	 	 	 	 	1581505692	8.22	15.22
12/02/2020 11:08:13	120220	12022020	110813	196.32	12.504647	-57.203047	196.50	0.490	0.440	1.460	196.32	-0.90	1.80	 	 	 	 	 	 	 	 	 	 	 	 	 	 	 	 	 	 	1581505693	7.72	14.30
12/02/2020 11:08:14	120220	12022020	110814	196.99	12.504612	-57.203053	197.15	0.420	0.610	0.780	196.99	-0.80	1.20	 	 	 	 	 	 	 	 	 	 	 	 	 	 	 	 	 	 	1581505694	7.57	14.02
12/02/2020 11:08:15	120220	12022020	110815	197.47	12.504577	-57.203062	197.58	0.010	0.240	0.650	197.47	-1.30	1.20	 	 	 	 	 	 	 	 	 	 	 	 	 	 	 	 	 	 	1581505695	7.58	14.04
12/02/2020 11:08:16	120220	12022020	110816	197.50	12.504543	-57.203075	197.56	-0.300	-0.530	1.130	197.50	-2.10	1.80	 	 	 	 	 	 	 	 	 	 	 	 	 	 	 	 	 	 	1581505696	7.96	14.74
12/02/2020 11:08:17	120220	12022020	110817	197.30	12.504507	-57.203093	197.38	-0.240	-1.010	1.710	197.30	-2.40	2.30	 	 	 	 	 	 	 	 	 	 	 	 	 	 	 	 	 	 	1581505697	8.41	15.58
12/02/2020 11:08:18	120220	12022020	110818	197.20	12.504473	-57.203110	197.30	0.080	-0.930	2.000	197.20	-2.20	2.50	 	 	 	 	 	 	 	 	 	 	 	 	 	 	 	 	 	 	1581505698	8.14	15.08
12/02/2020 11:08:19	120220	12022020	110819	197.10	12.504442	-57.203123	197.14	0.440	-0.840	2.050	197.06	-2.20	2.60	 	 	 	 	 	 	 	 	 	 	 	 	 	 	 	 	 	 	1581505699	7.65	14.17
12/02/2020 11:08:20	120220	12022020	110820	196.66	12.504405	-57.203137	196.73	0.670	-1.070	2.090	196.66	-2.50	2.60	 	 	 	 	 	 	 	 	 	 	 	 	 	 	 	 	 	 	1581505700	7.99	14.80
12/02/2020 11:08:21	120220	12022020	110821	196.26	12.504368	-57.203148	196.38	0.580	-1.060	2.080	196.26	-2.30	2.60	 	 	 	 	 	 	 	 	 	 	 	 	 	 	 	 	 	 	1581505701	8.61	15.95
12/02/2020 11:08:22	120220	12022020	110822	196.29	12.504330	-57.203160	196.45	0.050	-0.300	1.970	196.29	-1.40	2.40	 	 	 	 	 	 	 	 	 	 	 	 	 	 	 	 	 	 	1581505702	8.42	15.59
12/02/2020 11:08:23	120220	12022020	110823	196.70	12.504297	-57.203172	196.86	-0.720	0.620	1.830	196.70	-0.60	2.30	 	 	 	 	 	 	 	 	 	 	 	 	 	 	 	 	 	 	1581505703	7.55	13.98
12/02/2020 11:08:24	120220	12022020	110824	197.00	12.504265	-57.203185	197.13	-1.220	0.760	1.860	197.00	-0.70	2.40	 	 	 	 	 	 	 	 	 	 	 	 	 	 	 	 	 	 	1581505704	7.44	13.78
12/02/2020 11:08:25	120220	12022020	110825	196.96	12.504230	-57.203203	197.07	-1.080	0.110	2.190	196.96	-1.40	2.80	 	 	 	 	 	 	 	 	 	 	 	 	 	 	 	 	 	 	1581505705	8.39	15.54
12/02/2020 11:08:26	120220	12022020	110826	196.98	12.504193	-57.203223	197.14	-0.590	-0.250	2.320	196.98	-1.60	2.80	 	 	 	 	 	 	 	 	 	 	 	 	 	 	 	 	 	 	1581505706	9.14	16.93
12/02/2020 11:08:27	120220	12022020	110827	197.39	12.504157	-57.203242	197.60	-0.180	0.210	1.900	197.39	-1.00	2.30	 	 	 	 	 	 	 	 	 	 	 	 	 	 	 	 	 	 	1581505707	8.49	15.72
12/02/2020 11:08:28	120220	12022020	110828	197.95	12.504125	-57.203253	198.12	0.060	0.710	1.200	197.95	-0.60	1.60	 	 	 	 	 	 	 	 	 	 	 	 	 	 	 	 	 	 	1581505708	7.27	13.46
12/02/2020 11:08:29	120220	12022020	110829	198.25	12.504093	-57.203265	198.37	0.480	0.380	0.710	198.25	-1.20	1.20	 	 	 	 	 	 	 	 	 	 	 	 	 	 	 	 	 	 	1581505709	7.15	13.24
12/02/2020 11:08:30	120220	12022020	110830	198.21	12.504058	-57.203275	198.29	1.140	-0.500	0.530	198.21	-2.00	1.10	 	 	 	 	 	 	 	 	 	 	 	 	 	 	 	 	 	 	1581505710	8.01	14.83
12/02/2020 11:08:31	120220	12022020	110831	198.02	12.504020	-57.203285	198.06	1.540	-1.090	0.710	197.96	-2.50	1.30	 	 	 	 	 	 	 	 	 	 	 	 	 	 	 	 	 	 	1581505711	8.50	15.74
12/02/2020 11:08:32	120220	12022020	110832	197.79	12.503983	-57.203295	197.92	1.160	-1.110	1.130	197.79	-2.40	1.80	 	 	 	 	 	 	 	 	 	 	 	 	 	 	 	 	 	 	1581505712	8.16	15.11
12/02/2020 11:08:33	120220	12022020	110833	197.82	12.503950	-57.203307	198.00	0.160	-0.880	1.700	197.84	-2.20	2.40	 	 	 	 	 	 	 	 	 	 	 	 	 	 	 	 	 	 	1581505713	7.63	14.13
12/02/2020 11:08:34	120220	12022020	110834	197.90	12.503918	-57.203325	198.06	-0.720	-0.790	2.350	197.90	-2.20	3.00	 	 	 	 	 	 	 	 	 	 	 	 	 	 	 	 	 	 	1581505714	7.67	14.20
12/02/2020 11:08:35	120220	12022020	110835	197.78	12.503887	-57.203345	197.93	-0.910	-0.900	2.860	197.78	-2.30	3.40	 	 	 	 	 	 	 	 	 	 	 	 	 	 	 	 	 	 	1581505715	8.24	15.26
12/02/2020 11:08:36	120220	12022020	110836	197.60	12.503852	-57.203365	197.77	-0.630	-0.780	3.040	197.60	-2.00	3.50	 	 	 	 	 	 	 	 	 	 	 	 	 	 	 	 	 	 	1581505716	8.65	16.02
12/02/2020 11:08:37	120220	12022020	110837	197.56	12.503815	-57.203383	197.76	-0.480	-0.290	2.900	197.56	-1.50	3.30	 	 	 	 	 	 	 	 	 	 	 	 	 	 	 	 	 	 	1581505717	8.46	15.67
12/02/2020 11:08:38	120220	12022020	110838	197.63	12.503782	-57.203398	197.82	-0.590	0.270	2.540	197.63	-1.00	3.00	 	 	 	 	 	 	 	 	 	 	 	 	 	 	 	 	 	 	1581505718	8.08	14.96
12/02/2020 11:08:39	120220	12022020	110839	197.69	12.503747	-57.203413	197.88	-0.670	0.610	2.150	197.69	-0.70	2.60	 	 	 	 	 	 	 	 	 	 	 	 	 	 	 	 	 	 	1581505719	8.00	14.82
12/02/2020 11:08:40	120220	12022020	110840	197.80	12.503713	-57.203428	197.98	-0.430	0.770	1.790	197.80	-0.60	2.20	 	 	 	 	 	 	 	 	 	 	 	 	 	 	 	 	 	 	1581505720	8.10	15.00
12/02/2020 11:08:41	120220	12022020	110841	198.00	12.503678	-57.203442	198.18	0.080	0.810	1.310	198.00	-0.60	1.70	 	 	 	 	 	 	 	 	 	 	 	 	 	 	 	 	 	 	1581505721	8.05	14.91
12/02/2020 11:08:42	120220	12022020	110842	198.32	12.503643	-57.203453	198.50	0.610	0.600	0.660	198.32	-0.90	1.00	 	 	 	 	 	 	 	 	 	 	 	 	 	 	 	 	 	 	1581505722	7.91	14.65
12/02/2020 11:08:43	120220	12022020	110843	198.62	12.503607	-57.203463	198.77	0.970	-0.020	0.170	198.62	-1.60	0.70	 	 	 	 	 	 	 	 	 	 	 	 	 	 	 	 	 	 	1581505723	7.93	14.69
12/02/2020 11:08:44	120220	12022020	110844	198.72	12.503570	-57.203472	198.86	1.100	-0.900	0.220	198.72	-2.40	0.90	 	 	 	 	 	 	 	 	 	 	 	 	 	 	 	 	 	 	1581505724	8.18	15.15
12/02/2020 11:08:45	120220	12022020	110845	198.65	12.503533	-57.203485	198.79	0.930	-1.570	0.870	198.65	-3.00	1.60	 	 	 	 	 	 	 	 	 	 	 	 	 	 	 	 	 	 	1581505725	8.32	15.41
12/02/2020 11:08:46	120220	12022020	110846	198.30	12.503498	-57.203500	198.43	0.480	-1.750	1.970	198.30	-3.10	2.80	 	 	 	 	 	 	 	 	 	 	 	 	 	 	 	 	 	 	1581505726	8.18	15.15
12/02/2020 11:08:47	120220	12022020	110847	197.72	12.503467	-57.203520	197.86	-0.120	-1.410	3.210	197.72	-2.60	4.00	 	 	 	 	 	 	 	 	 	 	 	 	 	 	 	 	 	 	1581505727	8.09	14.98
12/02/2020 11:08:48	120220	12022020	110848	197.11	12.503435	-57.203542	197.28	-0.670	-0.750	4.230	197.11	-1.90	4.90	 	 	 	 	 	 	 	 	 	 	 	 	 	 	 	 	 	 	1581505728	8.11	15.02
12/02/2020 11:08:49	120220	12022020	110849	196.72	12.503403	-57.203563	196.92	-0.970	-0.010	4.650	196.72	-1.20	5.10	 	 	 	 	 	 	 	 	 	 	 	 	 	 	 	 	 	 	1581505729	8.19	15.17
12/02/2020 11:08:50	120220	12022020	110850	196.68	12.503372	-57.203585	196.91	-0.860	0.580	4.340	196.68	-0.70	4.70	 	 	 	 	 	 	 	 	 	 	 	 	 	 	 	 	 	 	1581505730	8.22	15.22
12/02/2020 11:08:51	120220	12022020	110851	197.06	12.503337	-57.203602	197.33	-0.470	0.920	3.310	197.06	-0.40	3.50	 	 	 	 	 	 	 	 	 	 	 	 	 	 	 	 	 	 	1581505731	8.14	15.08
12/02/2020 11:08:52	120220	12022020	110852	197.93	12.503302	-57.203612	198.22	-0.070	1.010	1.760	197.93	-0.40	1.90	 	 	 	 	 	 	 	 	 	 	 	 	 	 	 	 	 	 	1581505732	8.05	14.91
12/02/2020 11:08:53	120220	12022020	110853	199.01	12.503265	-57.203620	199.26	0.210	0.740	0.220	199.01	-0.80	0.50	 	 	 	 	 	 	 	 	 	 	 	 	 	 	 	 	 	 	1581505733	7.92	14.67
12/02/2020 11:08:54	120220	12022020	110854	199.76	12.503228	-57.203627	199.92	0.490	-0.130	-0.650	199.76	-1.80	-0.10	 	 	 	 	 	 	 	 	 	 	 	 	 	 	 	 	 	 	1581505734	7.93	14.69
12/02/2020 11:08:55	120220	12022020	110855	199.75	12.503192	-57.203635	199.83	0.860	-1.530	-0.360	199.75	-3.20	0.40	 	 	 	 	 	 	 	 	 	 	 	 	 	 	 	 	 	 	1581505735	8.33	15.43
12/02/2020 11:08:56	120220	12022020	110856	199.00	12.503153	-57.203650	199.04	1.080	-2.550	0.910	199.00	-4.00	1.80	 	 	 	 	 	 	 	 	 	 	 	 	 	 	 	 	 	 	1581505736	8.88	16.45
12/02/2020 11:08:57	120220	12022020	110857	198.15	12.503115	-57.203668	198.05	0.820	-2.220	2.450	197.96	-3.30	3.30	 	 	 	 	 	 	 	 	 	 	 	 	 	 	 	 	 	 	1581505737	8.81	16.32
12/02/2020 11:08:58	120220	12022020	110858	197.28	12.503083	-57.203687	197.47	-0.030	-0.570	3.520	197.28	-1.50	4.20	 	 	 	 	 	 	 	 	 	 	 	 	 	 	 	 	 	 	1581505738	7.94	14.70
12/02/2020 11:08:59	120220	12022020	110859	197.40	12.503057	-57.203705	197.66	-1.090	1.290	3.850	197.40	0.20	4.40	 	 	 	 	 	 	 	 	 	 	 	 	 	 	 	 	 	 	1581505739	7.04	13.04
12/02/2020 11:09:00	120220	12022020	110900	198.10	12.503030	-57.203723	198.39	-1.690	2.070	3.540	198.10	0.70	3.90	 	 	 	 	 	 	 	 	 	 	 	 	 	 	 	 	 	 	1581505740	6.95	12.87
12/02/2020 11:09:01	120220	12022020	110901	198.98	12.502998	-57.203742	199.24	-1.440	1.490	2.750	198.98	-0.10	3.10	1015.70	26.30	26.40	21.00	21.10	134.0	72.0	72.0	409.0	26.4	259.00	9.70	75.00	11.30	9502	9237.0	27.5	27.5	1581505741	7.82	14.48
12/02/2020 11:09:02	120220	12022020	110902	199.68	12.502962	-57.203762	199.88	-0.450	0.270	1.710	199.68	-1.30	2.00	 	 	 	 	 	 	 	 	 	 	 	 	 	 	 	 	 	 	1581505742	8.76	16.22
12/02/2020 11:09:03	120220	12022020	110903	200.08	12.502923	-57.203777	200.22	0.670	-0.680	0.610	200.08	-2.20	0.90	 	 	 	 	 	 	 	 	 	 	 	 	 	 	 	 	 	 	1581505743	8.93	16.54
12/02/2020 11:09:04	120220	12022020	110904	200.23	12.502885	-57.203787	200.33	1.330	-1.080	-0.220	200.23	-2.50	0.20	 	 	 	 	 	 	 	 	 	 	 	 	 	 	 	 	 	 	1581505744	8.37	15.50
12/02/2020 11:09:05	120220	12022020	110905	200.07	12.502850	-57.203795	200.13	1.340	-1.210	-0.400	200.07	-2.60	0.20	 	 	 	 	 	 	 	 	 	 	 	 	 	 	 	 	 	 	1581505745	7.82	14.48
12/02/2020 11:09:06	120220	12022020	110906	199.60	12.502817	-57.203805	199.67	0.890	-1.180	0.160	199.60	-2.50	0.90	 	 	 	 	 	 	 	 	 	 	 	 	 	 	 	 	 	 	1581505746	7.67	14.20
12/02/2020 11:09:07	120220	12022020	110907	199.28	12.502783	-57.203818	199.35	0.200	-0.750	1.060	199.23	-2.00	1.80	 	 	 	 	 	 	 	 	 	 	 	 	 	 	 	 	 	 	1581505747	7.73	14.32
12/02/2020 11:09:08	120220	12022020	110908	199.04	12.502752	-57.203837	199.19	-0.490	-0.110	1.950	199.04	-1.40	2.70	 	 	 	 	 	 	 	 	 	 	 	 	 	 	 	 	 	 	1581505748	7.59	14.06
12/02/2020 11:09:09	120220	12022020	110909	198.84	12.502722	-57.203857	198.92	-0.860	0.110	2.800	198.79	-1.30	3.50	 	 	 	 	 	 	 	 	 	 	 	 	 	 	 	 	 	 	1581505749	7.74	14.33
12/02/2020 11:09:10	120220	12022020	110910	198.52	12.502690	-57.203880	198.69	-0.800	-0.040	3.240	198.52	-1.40	3.70	 	 	 	 	 	 	 	 	 	 	 	 	 	 	 	 	 	 	1581505750	8.44	15.63
12/02/2020 11:09:11	120220	12022020	110911	198.60	12.502655	-57.203900	198.81	-0.460	-0.030	2.890	198.60	-1.30	3.20	 	 	 	 	 	 	 	 	 	 	 	 	 	 	 	 	 	 	1581505751	8.73	16.17
12/02/2020 11:09:12	120220	12022020	110912	199.00	12.502620	-57.203917	199.20	-0.050	0.240	1.990	199.00	-1.10	2.30	 	 	 	 	 	 	 	 	 	 	 	 	 	 	 	 	 	 	1581505752	8.16	15.11
12/02/2020 11:09:13	120220	12022020	110913	199.36	12.502587	-57.203928	199.54	0.300	0.290	1.050	199.36	-1.10	1.40	 	 	 	 	 	 	 	 	 	 	 	 	 	 	 	 	 	 	1581505753	7.71	14.28
12/02/2020 11:09:14	120220	12022020	110914	199.74	12.502550	-57.203937	199.92	0.400	0.180	0.450	199.74	-1.20	0.90	 	 	 	 	 	 	 	 	 	 	 	 	 	 	 	 	 	 	1581505754	7.86	14.56
12/02/2020 11:09:15	120220	12022020	110915	200.01	12.502517	-57.203947	200.15	0.210	-0.030	0.560	200.01	-1.50	1.20	 	 	 	 	 	 	 	 	 	 	 	 	 	 	 	 	 	 	1581505755	7.74	14.33
12/02/2020 11:09:16	120220	12022020	110916	199.80	12.502483	-57.203962	199.89	-0.010	-0.530	1.270	199.80	-2.00	2.00	 	 	 	 	 	 	 	 	 	 	 	 	 	 	 	 	 	 	1581505756	7.67	14.20
12/02/2020 11:09:17	120220	12022020	110917	199.13	12.502452	-57.203982	199.21	0.020	-1.210	2.310	199.13	-2.70	3.10	 	 	 	 	 	 	 	 	 	 	 	 	 	 	 	 	 	 	1581505757	8.19	15.17
12/02/2020 11:09:18	120220	12022020	110918	198.26	12.502417	-57.204003	198.36	0.270	-1.480	3.190	198.26	-2.80	3.80	 	 	 	 	 	 	 	 	 	 	 	 	 	 	 	 	 	 	1581505758	8.65	16.02
12/02/2020 11:09:19	120220	12022020	110919	197.54	12.502383	-57.204023	197.69	0.380	-0.960	3.410	197.54	-2.10	3.90	 	 	 	 	 	 	 	 	 	 	 	 	 	 	 	 	 	 	1581505759	8.37	15.50
12/02/2020 11:09:20	120220	12022020	110920	197.43	12.502352	-57.204038	197.67	0.100	0.170	2.950	197.43	-0.90	3.30	 	 	 	 	 	 	 	 	 	 	 	 	 	 	 	 	 	 	1581505760	7.60	14.08
12/02/2020 11:09:21	120220	12022020	110921	197.83	12.502322	-57.204050	198.21	-0.370	1.040	2.030	197.96	-0.20	2.30	 	 	 	 	 	 	 	 	 	 	 	 	 	 	 	 	 	 	1581505761	6.95	12.87
12/02/2020 11:09:22	120220	12022020	110922	198.63	12.502290	-57.204062	198.86	-0.530	1.000	1.070	198.63	-0.50	1.40	 	 	 	 	 	 	 	 	 	 	 	 	 	 	 	 	 	 	1581505762	7.13	13.20
12/02/2020 11:09:23	120220	12022020	110923	199.28	12.502255	-57.204075	199.48	-0.120	0.170	0.420	199.28	-1.40	0.90	 	 	 	 	 	 	 	 	 	 	 	 	 	 	 	 	 	 	1581505763	7.97	14.76
12/02/2020 11:09:24	120220	12022020	110924	199.72	12.502218	-57.204088	199.87	0.490	-0.710	0.390	199.72	-2.20	1.00	 	 	 	 	 	 	 	 	 	 	 	 	 	 	 	 	 	 	1581505764	8.53	15.80
12/02/2020 11:09:25	120220	12022020	110925	199.71	12.502182	-57.204102	199.83	0.770	-1.170	0.880	199.71	-2.60	1.60	 	 	 	 	 	 	 	 	 	 	 	 	 	 	 	 	 	 	1581505765	8.36	15.48
12/02/2020 11:09:26	120220	12022020	110926	199.35	12.502148	-57.204118	199.46	0.530	-1.180	1.680	199.35	-2.50	2.40	 	 	 	 	 	 	 	 	 	 	 	 	 	 	 	 	 	 	1581505766	7.99	14.80
12/02/2020 11:09:27	120220	12022020	110927	198.75	12.502115	-57.204135	198.88	-0.000	-0.780	2.630	198.75	-2.00	3.30	 	 	 	 	 	 	 	 	 	 	 	 	 	 	 	 	 	 	1581505767	7.80	14.45
12/02/2020 11:09:28	120220	12022020	110928	198.28	12.502085	-57.204155	198.46	-0.460	-0.010	3.270	198.28	-1.20	3.80	 	 	 	 	 	 	 	 	 	 	 	 	 	 	 	 	 	 	1581505768	7.72	14.30
12/02/2020 11:09:29	120220	12022020	110929	198.27	12.502057	-57.204175	198.49	-0.610	0.770	3.220	198.27	-0.50	3.70	 	 	 	 	 	 	 	 	 	 	 	 	 	 	 	 	 	 	1581505769	7.40	13.70
12/02/2020 11:09:30	120220	12022020	110930	198.47	12.502027	-57.204190	198.66	-0.420	0.680	2.820	198.47	-0.90	3.30	 	 	 	 	 	 	 	 	 	 	 	 	 	 	 	 	 	 	1581505770	7.26	13.45
12/02/2020 11:09:31	120220	12022020	110931	198.49	12.501992	-57.204205	198.63	0.020	-0.380	2.560	198.49	-2.00	3.10	 	 	 	 	 	 	 	 	 	 	 	 	 	 	 	 	 	 	1581505771	8.10	15.00
12/02/2020 11:09:32	120220	12022020	110932	198.29	12.501953	-57.204222	198.44	0.440	-1.380	2.470	198.29	-2.80	3.00	 	 	 	 	 	 	 	 	 	 	 	 	 	 	 	 	 	 	1581505772	9.02	16.71
12/02/2020 11:09:33	120220	12022020	110933	198.21	12.501915	-57.204238	198.40	0.450	-1.180	2.430	198.21	-2.30	2.90	 	 	 	 	 	 	 	 	 	 	 	 	 	 	 	 	 	 	1581505773	8.80	16.30
12/02/2020 11:09:34	120220	12022020	110934	198.51	12.501883	-57.204252	198.75	0.010	0.060	2.180	198.51	-1.00	2.60	 	 	 	 	 	 	 	 	 	 	 	 	 	 	 	 	 	 	1581505774	7.43	13.76
12/02/2020 11:09:35	120220	12022020	110935	199.13	12.501857	-57.204265	199.36	-0.480	1.090	1.700	199.13	-0.20	2.10	 	 	 	 	 	 	 	 	 	 	 	 	 	 	 	 	 	 	1581505775	6.34	11.74
12/02/2020 11:09:36	120220	12022020	110936	199.52	12.501830	-57.204278	199.67	-0.420	0.860	1.460	199.52	-0.70	2.00	 	 	 	 	 	 	 	 	 	 	 	 	 	 	 	 	 	 	1581505776	6.58	12.19
12/02/2020 11:09:37	120220	12022020	110937	199.29	12.501797	-57.204293	199.38	0.310	-0.480	1.680	199.29	-2.10	2.30	 	 	 	 	 	 	 	 	 	 	 	 	 	 	 	 	 	 	1581505777	7.91	14.65
12/02/2020 11:09:38	120220	12022020	110938	198.68	12.501757	-57.204310	198.78	0.980	-1.530	2.230	198.68	-2.90	2.90	 	 	 	 	 	 	 	 	 	 	 	 	 	 	 	 	 	 	1581505778	9.06	16.78
12/02/2020 11:09:39	120220	12022020	110939	198.20	12.501720	-57.204327	198.35	0.840	-1.400	2.850	198.20	-2.60	3.50	 	 	 	 	 	 	 	 	 	 	 	 	 	 	 	 	 	 	1581505779	8.76	16.22
12/02/2020 11:09:40	120220	12022020	110940	198.13	12.501688	-57.204343	198.35	-0.020	-0.390	3.260	198.13	-1.50	3.80	 	 	 	 	 	 	 	 	 	 	 	 	 	 	 	 	 	 	1581505780	7.62	14.11
12/02/2020 11:09:41	120220	12022020	110941	198.49	12.501660	-57.204360	198.73	-0.910	0.550	3.210	198.49	-0.70	3.70	 	 	 	 	 	 	 	 	 	 	 	 	 	 	 	 	 	 	1581505781	6.92	12.82
12/02/2020 11:09:42	120220	12022020	110942	199.01	12.501633	-57.204378	199.23	-1.120	0.700	2.740	199.01	-0.70	3.10	 	 	 	 	 	 	 	 	 	 	 	 	 	 	 	 	 	 	1581505782	7.08	13.11
12/02/2020 11:09:43	120220	12022020	110943	199.30	12.501602	-57.204395	199.50	-0.570	0.070	2.110	199.34	-1.50	2.50	 	 	 	 	 	 	 	 	 	 	 	 	 	 	 	 	 	 	1581505783	7.79	14.43
12/02/2020 11:09:44	120220	12022020	110944	199.28	12.501565	-57.204412	199.39	0.240	-0.690	1.650	199.28	-2.20	2.10	 	 	 	 	 	 	 	 	 	 	 	 	 	 	 	 	 	 	1581505784	8.43	15.61
12/02/2020 11:09:45	120220	12022020	110945	198.91	12.501528	-57.204425	199.00	0.680	-0.980	1.460	198.91	-2.30	2.00	 	 	 	 	 	 	 	 	 	 	 	 	 	 	 	 	 	 	1581505785	8.45	15.65
12/02/2020 11:09:46	120220	12022020	110946	198.53	12.501493	-57.204438	198.63	0.560	-0.650	1.420	198.53	-1.80	1.90	 	 	 	 	 	 	 	 	 	 	 	 	 	 	 	 	 	 	1581505786	7.96	14.74
12/02/2020 11:09:47	120220	12022020	110947	198.46	12.501462	-57.204452	198.61	0.120	0.080	1.320	198.46	-1.10	1.80	 	 	 	 	 	 	 	 	 	 	 	 	 	 	 	 	 	 	1581505787	7.39	13.69
12/02/2020 11:09:48	120220	12022020	110948	198.67	12.501432	-57.204465	198.84	-0.230	0.630	1.330	198.67	-0.70	1.90	 	 	 	 	 	 	 	 	 	 	 	 	 	 	 	 	 	 	1581505788	7.04	13.04
12/02/2020 11:09:49	120220	12022020	110949	198.86	12.501402	-57.204480	199.01	-0.250	0.530	1.620	198.86	-0.90	2.20	 	 	 	 	 	 	 	 	 	 	 	 	 	 	 	 	 	 	1581505789	7.30	13.52
12/02/2020 11:09:50	120220	12022020	110950	198.93	12.501368	-57.204498	199.08	-0.020	-0.070	1.970	198.93	-1.60	2.50	 	 	 	 	 	 	 	 	 	 	 	 	 	 	 	 	 	 	1581505790	7.99	14.80
12/02/2020 11:09:51	120220	12022020	110951	198.99	12.501335	-57.204517	199.16	0.200	-0.640	2.070	198.99	-2.10	2.60	 	 	 	 	 	 	 	 	 	 	 	 	 	 	 	 	 	 	1581505791	8.34	15.45
12/02/2020 11:09:52	120220	12022020	110952	199.05	12.501300	-57.204533	199.21	0.270	-0.910	1.980	199.05	-2.30	2.50	 	 	 	 	 	 	 	 	 	 	 	 	 	 	 	 	 	 	1581505792	8.09	14.98
12/02/2020 11:09:53	120220	12022020	110953	198.84	12.501267	-57.204547	198.94	0.160	-1.020	2.090	198.84	-2.40	2.70	 	 	 	 	 	 	 	 	 	 	 	 	 	 	 	 	 	 	1581505793	7.72	14.30
12/02/2020 11:09:54	120220	12022020	110954	198.15	12.501233	-57.204560	198.23	-0.110	-1.110	2.600	198.15	-2.40	3.30	 	 	 	 	 	 	 	 	 	 	 	 	 	 	 	 	 	 	1581505794	7.77	14.39
12/02/2020 11:09:55	120220	12022020	110955	197.32	12.501200	-57.204578	197.41	-0.460	-0.930	3.190	197.32	-2.20	3.80	 	 	 	 	 	 	 	 	 	 	 	 	 	 	 	 	 	 	1581505795	8.12	15.04
12/02/2020 11:09:56	120220	12022020	110956	196.78	12.501168	-57.204598	196.93	-0.710	-0.300	3.430	196.78	-1.40	3.90	 	 	 	 	 	 	 	 	 	 	 	 	 	 	 	 	 	 	1581505796	8.20	15.19
12/02/2020 11:09:57	120220	12022020	110957	196.70	12.501137	-57.204620	196.90	-0.620	0.500	3.170	196.70	-0.70	3.60	 	 	 	 	 	 	 	 	 	 	 	 	 	 	 	 	 	 	1581505797	7.84	14.52
12/02/2020 11:09:58	120220	12022020	110958	197.03	12.501107	-57.204635	197.27	-0.130	0.960	2.330	197.03	-0.40	2.60	 	 	 	 	 	 	 	 	 	 	 	 	 	 	 	 	 	 	1581505798	7.54	13.96
12/02/2020 11:09:59	120220	12022020	110959	197.57	12.501072	-57.204647	197.97	0.410	0.880	1.260	197.72	-0.50	1.60	 	 	 	 	 	 	 	 	 	 	 	 	 	 	 	 	 	 	1581505799	7.69	14.24
12/02/2020 11:10:00	120220	12022020	111000	198.56	12.501037	-57.204655	198.78	0.560	0.510	0.600	198.56	-0.90	1.10	 	 	 	 	 	 	 	 	 	 	 	 	 	 	 	 	 	 	1581505800	7.90	14.63
12/02/2020 11:10:01	120220	12022020	111001	199.11	12.501002	-57.204665	199.26	0.330	-0.070	0.690	199.11	-1.60	1.40	1015.70	26.20	26.30	20.70	20.90	153.0	71.0	72.0	409.0	26.5	260.00	10.80	79.00	12.20	9955	9090.0	27.5	27.5	1581505801	7.73	14.32
12/02/2020 11:10:02	120220	12022020	111002	198.96	12.500968	-57.204678	199.05	0.150	-0.860	1.450	198.96	-2.40	2.20	 	 	 	 	 	 	 	 	 	 	 	 	 	 	 	 	 	 	1581505802	7.67	14.20
12/02/2020 11:10:03	120220	12022020	111003	198.35	12.500937	-57.204697	198.45	0.150	-1.460	2.480	198.35	-2.90	3.20	 	 	 	 	 	 	 	 	 	 	 	 	 	 	 	 	 	 	1581505803	8.05	14.91
12/02/2020 11:10:04	120220	12022020	111004	197.72	12.500903	-57.204717	197.84	0.140	-1.490	3.380	197.72	-2.80	4.10	 	 	 	 	 	 	 	 	 	 	 	 	 	 	 	 	 	 	1581505804	8.05	14.91
12/02/2020 11:10:05	120220	12022020	111005	197.06	12.500872	-57.204735	197.19	0.010	-1.090	3.900	197.06	-2.30	4.50	 	 	 	 	 	 	 	 	 	 	 	 	 	 	 	 	 	 	1581505805	7.76	14.37
12/02/2020 11:10:06	120220	12022020	111006	196.55	12.500842	-57.204752	196.73	-0.210	-0.480	3.840	196.55	-1.60	4.20	 	 	 	 	 	 	 	 	 	 	 	 	 	 	 	 	 	 	1581505806	7.67	14.20
12/02/2020 11:10:07	120220	12022020	111007	196.71	12.500810	-57.204768	196.96	-0.440	0.320	3.080	196.71	-0.90	3.40	 	 	 	 	 	 	 	 	 	 	 	 	 	 	 	 	 	 	1581505807	7.57	14.02
12/02/2020 11:10:08	120220	12022020	111008	197.44	12.500778	-57.204780	197.70	-0.500	0.850	1.970	197.44	-0.50	2.30	 	 	 	 	 	 	 	 	 	 	 	 	 	 	 	 	 	 	1581505808	7.21	13.35
12/02/2020 11:10:09	120220	12022020	111009	198.26	12.500747	-57.204792	198.48	-0.310	0.600	1.030	198.26	-0.90	1.40	 	 	 	 	 	 	 	 	 	 	 	 	 	 	 	 	 	 	1581505809	7.32	13.56
12/02/2020 11:10:10	120220	12022020	111010	198.72	12.500710	-57.204803	198.86	0.140	-0.300	0.550	198.72	-1.90	1.10	 	 	 	 	 	 	 	 	 	 	 	 	 	 	 	 	 	 	1581505810	7.99	14.80
12/02/2020 11:10:11	120220	12022020	111011	198.62	12.500673	-57.204818	198.61	0.600	-1.120	0.840	198.55	-2.60	1.50	 	 	 	 	 	 	 	 	 	 	 	 	 	 	 	 	 	 	1581505811	8.58	15.89
12/02/2020 11:10:12	120220	12022020	111012	198.01	12.500637	-57.204832	198.11	0.590	-1.110	1.650	198.01	-2.30	2.40	 	 	 	 	 	 	 	 	 	 	 	 	 	 	 	 	 	 	1581505812	8.51	15.76
12/02/2020 11:10:13	120220	12022020	111013	197.80	12.500603	-57.204848	197.98	-0.080	-0.110	2.380	197.80	-1.20	3.00	 	 	 	 	 	 	 	 	 	 	 	 	 	 	 	 	 	 	1581505813	7.71	14.28
12/02/2020 11:10:14	120220	12022020	111014	198.04	12.500577	-57.204865	198.25	-0.970	0.960	2.690	198.04	-0.20	3.20	 	 	 	 	 	 	 	 	 	 	 	 	 	 	 	 	 	 	1581505814	6.84	12.67
12/02/2020 11:10:15	120220	12022020	111015	198.30	12.500552	-57.204883	198.48	-1.290	1.120	2.750	198.30	-0.30	3.20	 	 	 	 	 	 	 	 	 	 	 	 	 	 	 	 	 	 	1581505815	6.90	12.78
12/02/2020 11:10:16	120220	12022020	111016	198.36	12.500522	-57.204905	198.50	-0.620	0.260	2.400	198.36	-1.30	2.80	 	 	 	 	 	 	 	 	 	 	 	 	 	 	 	 	 	 	1581505816	7.81	14.46
12/02/2020 11:10:17	120220	12022020	111017	198.35	12.500485	-57.204923	198.47	0.620	-0.720	1.480	198.35	-2.20	1.80	 	 	 	 	 	 	 	 	 	 	 	 	 	 	 	 	 	 	1581505817	8.54	15.82
12/02/2020 11:10:18	120220	12022020	111018	198.43	12.500448	-57.204935	198.54	1.480	-1.060	0.540	198.43	-2.40	0.90	 	 	 	 	 	 	 	 	 	 	 	 	 	 	 	 	 	 	1581505818	8.35	15.46
12/02/2020 11:10:19	120220	12022020	111019	198.38	12.500413	-57.204942	198.46	1.410	-1.030	0.220	198.38	-2.40	0.80	 	 	 	 	 	 	 	 	 	 	 	 	 	 	 	 	 	 	1581505819	7.60	14.08
12/02/2020 11:10:20	120220	12022020	111020	198.02	12.500380	-57.204950	198.09	0.610	-1.050	0.610	198.02	-2.40	1.30	 	 	 	 	 	 	 	 	 	 	 	 	 	 	 	 	 	 	1581505820	7.32	13.56
12/02/2020 11:10:21	120220	12022020	111021	197.51	12.500348	-57.204963	197.58	-0.440	-0.920	1.600	197.51	-2.10	2.40	 	 	 	 	 	 	 	 	 	 	 	 	 	 	 	 	 	 	1581505821	7.64	14.15
12/02/2020 11:10:22	120220	12022020	111022	197.02	12.500317	-57.204983	197.13	-1.250	-0.330	2.750	197.02	-1.50	3.50	 	 	 	 	 	 	 	 	 	 	 	 	 	 	 	 	 	 	1581505822	7.92	14.67
12/02/2020 11:10:23	120220	12022020	111023	196.77	12.500288	-57.205008	196.93	-1.520	0.320	3.400	196.77	-0.90	4.00	 	 	 	 	 	 	 	 	 	 	 	 	 	 	 	 	 	 	1581505823	7.94	14.70
12/02/2020 11:10:24	120220	12022020	111024	196.77	12.500260	-57.205032	196.97	-1.190	0.550	3.400	196.77	-0.80	3.80	 	 	 	 	 	 	 	 	 	 	 	 	 	 	 	 	 	 	1581505824	7.97	14.76
12/02/2020 11:10:25	120220	12022020	111025	196.95	12.500227	-57.205052	197.15	-0.420	0.340	2.760	196.95	-1.00	3.10	 	 	 	 	 	 	 	 	 	 	 	 	 	 	 	 	 	 	1581505825	8.12	15.04
12/02/2020 11:10:26	120220	12022020	111026	197.18	12.500193	-57.205067	197.34	0.420	0.130	1.730	197.18	-1.20	2.00	 	 	 	 	 	 	 	 	 	 	 	 	 	 	 	 	 	 	1581505826	8.12	15.04
12/02/2020 11:10:27	120220	12022020	111027	197.25	12.500158	-57.205077	197.37	0.990	0.110	0.810	197.25	-1.20	1.20	 	 	 	 	 	 	 	 	 	 	 	 	 	 	 	 	 	 	1581505827	7.79	14.43
12/02/2020 11:10:28	120220	12022020	111028	197.10	12.500123	-57.205082	197.18	1.070	0.060	0.490	197.10	-1.30	1.10	 	 	 	 	 	 	 	 	 	 	 	 	 	 	 	 	 	 	1581505828	7.42	13.74
12/02/2020 11:10:29	120220	12022020	111029	196.73	12.500090	-57.205090	196.80	0.760	-0.300	0.780	196.73	-1.70	1.50	 	 	 	 	 	 	 	 	 	 	 	 	 	 	 	 	 	 	1581505829	7.30	13.52
12/02/2020 11:10:30	120220	12022020	111030	196.24	12.500057	-57.205103	196.33	0.290	-0.760	1.540	196.24	-2.10	2.30	 	 	 	 	 	 	 	 	 	 	 	 	 	 	 	 	 	 	1581505830	7.61	14.09
12/02/2020 11:10:31	120220	12022020	111031	196.00	12.500025	-57.205120	196.16	-0.150	-0.810	2.300	196.00	-2.00	2.90	 	 	 	 	 	 	 	 	 	 	 	 	 	 	 	 	 	 	1581505831	7.91	14.65
12/02/2020 11:10:32	120220	12022020	111032	196.23	12.499995	-57.205140	196.44	-0.430	-0.400	2.670	196.23	-1.60	3.20	 	 	 	 	 	 	 	 	 	 	 	 	 	 	 	 	 	 	1581505832	7.60	14.08
12/02/2020 11:10:33	120220	12022020	111033	196.52	12.499968	-57.205158	196.72	-0.460	-0.250	2.680	196.52	-1.60	3.20	 	 	 	 	 	 	 	 	 	 	 	 	 	 	 	 	 	 	1581505833	7.15	13.24
12/02/2020 11:10:34	120220	12022020	111034	196.56	12.499937	-57.205175	196.74	-0.210	-0.670	2.500	196.56	-2.10	3.00	 	 	 	 	 	 	 	 	 	 	 	 	 	 	 	 	 	 	1581505834	7.51	13.91
12/02/2020 11:10:35	120220	12022020	111035	196.43	12.499902	-57.205188	196.61	0.070	-0.980	2.240	196.43	-2.30	2.70	 	 	 	 	 	 	 	 	 	 	 	 	 	 	 	 	 	 	1581505835	8.16	15.11
12/02/2020 11:10:36	120220	12022020	111036	196.28	12.499865	-57.205202	196.44	0.100	-0.690	2.130	196.28	-1.90	2.70	 	 	 	 	 	 	 	 	 	 	 	 	 	 	 	 	 	 	1581505836	8.04	14.89
12/02/2020 11:10:37	120220	12022020	111037	196.00	12.499833	-57.205212	196.03	-0.100	-0.140	2.260	195.91	-1.40	2.90	 	 	 	 	 	 	 	 	 	 	 	 	 	 	 	 	 	 	1581505837	7.47	13.83
12/02/2020 11:10:38	120220	12022020	111038	195.30	12.499800	-57.205225	195.42	-0.280	0.190	2.580	195.30	-1.10	3.20	 	 	 	 	 	 	 	 	 	 	 	 	 	 	 	 	 	 	1581505838	7.43	13.76
12/02/2020 11:10:39	120220	12022020	111039	194.95	12.499768	-57.205242	195.13	-0.300	0.470	2.620	194.95	-0.70	3.10	 	 	 	 	 	 	 	 	 	 	 	 	 	 	 	 	 	 	1581505839	7.84	14.52
12/02/2020 11:10:40	120220	12022020	111040	195.20	12.499735	-57.205257	195.43	-0.150	1.000	2.110	195.20	-0.20	2.50	 	 	 	 	 	 	 	 	 	 	 	 	 	 	 	 	 	 	1581505840	7.62	14.11
12/02/2020 11:10:41	120220	12022020	111041	195.75	12.499705	-57.205267	195.96	0.110	1.060	1.410	195.75	-0.40	1.80	 	 	 	 	 	 	 	 	 	 	 	 	 	 	 	 	 	 	1581505841	6.94	12.85
12/02/2020 11:10:42	120220	12022020	111042	196.19	12.499673	-57.205277	196.37	0.430	0.180	0.960	196.19	-1.40	1.50	 	 	 	 	 	 	 	 	 	 	 	 	 	 	 	 	 	 	1581505842	7.22	13.37
12/02/2020 11:10:43	120220	12022020	111043	196.46	12.499638	-57.205288	196.63	0.680	-1.060	1.060	196.46	-2.60	1.70	 	 	 	 	 	 	 	 	 	 	 	 	 	 	 	 	 	 	1581505843	8.02	14.85
12/02/2020 11:10:44	120220	12022020	111044	196.47	12.499602	-57.205303	196.61	0.680	-1.810	1.740	196.47	-3.20	2.50	 	 	 	 	 	 	 	 	 	 	 	 	 	 	 	 	 	 	1581505844	8.22	15.22
12/02/2020 11:10:45	120220	12022020	111045	196.06	12.499570	-57.205318	196.17	0.450	-1.840	2.640	196.06	-3.10	3.40	 	 	 	 	 	 	 	 	 	 	 	 	 	 	 	 	 	 	1581505845	7.83	14.50
12/02/2020 11:10:46	120220	12022020	111046	195.31	12.499538	-57.205337	195.42	0.160	-1.250	3.450	195.31	-2.40	4.10	 	 	 	 	 	 	 	 	 	 	 	 	 	 	 	 	 	 	1581505846	7.50	13.89
12/02/2020 11:10:47	120220	12022020	111047	194.72	12.499508	-57.205353	194.89	-0.210	-0.280	3.750	194.72	-1.30	4.20	 	 	 	 	 	 	 	 	 	 	 	 	 	 	 	 	 	 	1581505847	7.32	13.56
12/02/2020 11:10:48	120220	12022020	111048	194.75	12.499478	-57.205367	194.98	-0.570	0.700	3.260	194.75	-0.40	3.60	 	 	 	 	 	 	 	 	 	 	 	 	 	 	 	 	 	 	1581505848	7.09	13.13
12/02/2020 11:10:49	120220	12022020	111049	195.07	12.499448	-57.205378	195.36	-0.730	1.050	2.400	195.15	-0.30	2.80	 	 	 	 	 	 	 	 	 	 	 	 	 	 	 	 	 	 	1581505849	6.98	12.93
12/02/2020 11:10:50	120220	12022020	111050	195.44	12.499415	-57.205390	195.59	-0.490	0.460	1.740	195.44	-1.10	2.20	 	 	 	 	 	 	 	 	 	 	 	 	 	 	 	 	 	 	1581505850	7.52	13.93
12/02/2020 11:10:51	120220	12022020	111051	195.51	12.499378	-57.205402	195.65	-0.020	-0.470	1.470	195.51	-1.90	2.00	 	 	 	 	 	 	 	 	 	 	 	 	 	 	 	 	 	 	1581505851	8.41	15.58
12/02/2020 11:10:52	120220	12022020	111052	195.75	12.499340	-57.205413	195.93	0.250	-0.710	1.510	195.75	-1.90	2.10	 	 	 	 	 	 	 	 	 	 	 	 	 	 	 	 	 	 	1581505852	8.55	15.83
12/02/2020 11:10:53	120220	12022020	111053	196.15	12.499308	-57.205428	196.33	0.130	-0.140	1.640	196.15	-1.30	2.20	 	 	 	 	 	 	 	 	 	 	 	 	 	 	 	 	 	 	1581505853	7.53	13.95
12/02/2020 11:10:54	120220	12022020	111054	196.28	12.499280	-57.205442	196.40	-0.020	0.190	1.760	196.28	-1.20	2.30	 	 	 	 	 	 	 	 	 	 	 	 	 	 	 	 	 	 	1581505854	6.64	12.30
12/02/2020 11:10:55	120220	12022020	111055	196.01	12.499250	-57.205457	196.03	0.190	-0.250	1.910	195.93	-1.70	2.40	 	 	 	 	 	 	 	 	 	 	 	 	 	 	 	 	 	 	1581505855	7.06	13.08
12/02/2020 11:10:56	120220	12022020	111056	195.74	12.499217	-57.205470	195.90	0.450	-0.540	1.820	195.74	-1.80	2.30	 	 	 	 	 	 	 	 	 	 	 	 	 	 	 	 	 	 	1581505856	7.95	14.72
12/02/2020 11:10:57	120220	12022020	111057	195.94	12.499183	-57.205482	196.12	0.380	-0.350	1.610	195.94	-1.60	2.10	 	 	 	 	 	 	 	 	 	 	 	 	 	 	 	 	 	 	1581505857	7.60	14.08
12/02/2020 11:10:58	120220	12022020	111058	196.05	12.499152	-57.205492	196.19	0.080	-0.280	1.670	196.05	-1.60	2.30	 	 	 	 	 	 	 	 	 	 	 	 	 	 	 	 	 	 	1581505858	7.04	13.04
12/02/2020 11:10:59	120220	12022020	111059	195.73	12.499120	-57.205507	195.84	-0.100	-0.670	2.190	195.73	-2.10	2.90	 	 	 	 	 	 	 	 	 	 	 	 	 	 	 	 	 	 	1581505859	7.38	13.67
12/02/2020 11:11:00	120220	12022020	111100	195.22	12.499087	-57.205523	195.34	-0.010	-0.920	2.810	195.22	-2.20	3.40	 	 	 	 	 	 	 	 	 	 	 	 	 	 	 	 	 	 	1581505860	8.11	15.02
12/02/2020 11:11:01	120220	12022020	111101	194.84	12.499053	-57.205540	194.99	0.090	-0.550	3.130	194.84	-1.70	3.70	1015.70	26.20	26.30	20.50	20.60	138.0	70.0	70.0	409.0	26.5	259.00	10.20	76.00	11.60	10025	8959.0	27.6	27.5	1581505861	8.02	14.85
12/02/2020 11:11:02	120220	12022020	111102	194.70	12.499022	-57.205553	194.86	-0.030	0.030	2.970	194.70	-1.20	3.40	 	 	 	 	 	 	 	 	 	 	 	 	 	 	 	 	 	 	1581505862	7.35	13.61
12/02/2020 11:11:03	120220	12022020	111103	194.78	12.498990	-57.205565	194.96	-0.380	0.270	2.560	194.78	-1.00	3.00	 	 	 	 	 	 	 	 	 	 	 	 	 	 	 	 	 	 	1581505863	7.24	13.41
12/02/2020 11:11:04	120220	12022020	111104	195.07	12.498957	-57.205578	195.25	-0.730	0.340	2.360	195.07	-0.90	2.90	 	 	 	 	 	 	 	 	 	 	 	 	 	 	 	 	 	 	1581505864	7.55	13.98
12/02/2020 11:11:05	120220	12022020	111105	195.43	12.498925	-57.205595	195.60	-0.730	0.480	2.220	195.43	-0.80	2.70	 	 	 	 	 	 	 	 	 	 	 	 	 	 	 	 	 	 	1581505865	7.58	14.04
12/02/2020 11:11:06	120220	12022020	111106	195.67	12.498897	-57.205610	195.81	-0.200	0.440	1.910	195.67	-0.90	2.40	 	 	 	 	 	 	 	 	 	 	 	 	 	 	 	 	 	 	1581505866	7.29	13.50
12/02/2020 11:11:07	120220	12022020	111107	195.68	12.498865	-57.205623	195.79	0.640	-0.120	1.570	195.68	-1.60	2.00	 	 	 	 	 	 	 	 	 	 	 	 	 	 	 	 	 	 	1581505867	7.28	13.48
12/02/2020 11:11:08	120220	12022020	111108	195.55	12.498830	-57.205633	195.67	1.260	-0.910	1.320	195.55	-2.40	1.80	 	 	 	 	 	 	 	 	 	 	 	 	 	 	 	 	 	 	1581505868	7.78	14.41
12/02/2020 11:11:09	120220	12022020	111109	195.51	12.498793	-57.205642	195.64	1.180	-1.370	1.200	195.51	-2.70	1.80	 	 	 	 	 	 	 	 	 	 	 	 	 	 	 	 	 	 	1581505869	7.99	14.80
12/02/2020 11:11:10	120220	12022020	111110	195.39	12.498758	-57.205650	195.49	0.430	-1.390	1.590	195.39	-2.60	2.30	 	 	 	 	 	 	 	 	 	 	 	 	 	 	 	 	 	 	1581505870	7.67	14.20
12/02/2020 11:11:11	120220	12022020	111111	194.95	12.498727	-57.205663	195.03	-0.480	-1.100	2.490	194.95	-2.30	3.30	 	 	 	 	 	 	 	 	 	 	 	 	 	 	 	 	 	 	1581505871	7.50	13.89
12/02/2020 11:11:12	120220	12022020	111112	194.44	12.498695	-57.205682	194.56	-1.090	-0.550	3.380	194.44	-1.70	4.00	 	 	 	 	 	 	 	 	 	 	 	 	 	 	 	 	 	 	1581505872	7.73	14.32
12/02/2020 11:11:13	120220	12022020	111113	194.35	12.498663	-57.205700	194.55	-1.290	0.190	3.680	194.35	-0.90	4.20	 	 	 	 	 	 	 	 	 	 	 	 	 	 	 	 	 	 	1581505873	7.84	14.52
12/02/2020 11:11:14	120220	12022020	111114	194.72	12.498633	-57.205718	194.95	-1.110	0.790	3.370	194.72	-0.40	3.80	 	 	 	 	 	 	 	 	 	 	 	 	 	 	 	 	 	 	1581505874	7.64	14.15
12/02/2020 11:11:15	120220	12022020	111115	195.16	12.498602	-57.205733	195.34	-0.630	0.880	2.710	195.16	-0.50	3.10	 	 	 	 	 	 	 	 	 	 	 	 	 	 	 	 	 	 	1581505875	7.49	13.87
12/02/2020 11:11:16	120220	12022020	111116	195.29	12.498568	-57.205747	195.42	0.090	0.400	2.070	195.29	-1.00	2.50	 	 	 	 	 	 	 	 	 	 	 	 	 	 	 	 	 	 	1581505876	7.73	14.32
12/02/2020 11:11:17	120220	12022020	111117	195.23	12.498532	-57.205757	195.34	0.780	-0.040	1.400	195.23	-1.40	1.80	 	 	 	 	 	 	 	 	 	 	 	 	 	 	 	 	 	 	1581505877	8.13	15.06
12/02/2020 11:11:18	120220	12022020	111118	195.26	12.498497	-57.205765	195.37	1.130	0.080	0.790	195.26	-1.20	1.20	 	 	 	 	 	 	 	 	 	 	 	 	 	 	 	 	 	 	1581505878	7.76	14.37
12/02/2020 11:11:19	120220	12022020	111119	195.48	12.498465	-57.205772	195.59	1.040	0.330	0.420	195.48	-1.00	0.90	 	 	 	 	 	 	 	 	 	 	 	 	 	 	 	 	 	 	1581505879	6.94	12.85
12/02/2020 11:11:20	120220	12022020	111120	195.88	12.498435	-57.205778	196.02	0.580	0.080	0.400	195.88	-1.40	1.00	 	 	 	 	 	 	 	 	 	 	 	 	 	 	 	 	 	 	1581505880	6.69	12.39
12/02/2020 11:11:21	120220	12022020	111121	196.20	12.498403	-57.205790	196.30	0.030	-0.830	0.960	196.20	-2.40	1.70	 	 	 	 	 	 	 	 	 	 	 	 	 	 	 	 	 	 	1581505881	7.13	13.20
12/02/2020 11:11:22	120220	12022020	111122	196.00	12.498370	-57.205807	196.08	-0.260	-1.990	2.050	196.00	-3.50	2.80	 	 	 	 	 	 	 	 	 	 	 	 	 	 	 	 	 	 	1581505882	8.00	14.82
12/02/2020 11:11:23	120220	12022020	111123	195.39	12.498335	-57.205828	195.48	-0.170	-2.640	3.000	195.39	-3.90	3.70	 	 	 	 	 	 	 	 	 	 	 	 	 	 	 	 	 	 	1581505883	8.66	16.04
12/02/2020 11:11:24	120220	12022020	111124	194.83	12.498300	-57.205845	194.96	-0.100	-2.280	3.350	194.83	-3.30	3.90	 	 	 	 	 	 	 	 	 	 	 	 	 	 	 	 	 	 	1581505884	8.44	15.63
12/02/2020 11:11:25	120220	12022020	111125	194.51	12.498267	-57.205860	194.61	-0.410	-1.020	3.440	194.45	-2.00	4.00	 	 	 	 	 	 	 	 	 	 	 	 	 	 	 	 	 	 	1581505885	7.75	14.35
12/02/2020 11:11:26	120220	12022020	111126	194.20	12.498237	-57.205873	194.35	-0.950	0.520	3.360	194.20	-0.50	3.80	 	 	 	 	 	 	 	 	 	 	 	 	 	 	 	 	 	 	1581505886	7.19	13.32
12/02/2020 11:11:27	120220	12022020	111127	194.06	12.498207	-57.205887	194.21	-1.210	1.640	3.040	194.05	0.50	3.50	 	 	 	 	 	 	 	 	 	 	 	 	 	 	 	 	 	 	1581505887	7.12	13.19
12/02/2020 11:11:28	120220	12022020	111128	194.17	12.498173	-57.205900	194.37	-0.880	1.970	2.570	194.17	0.60	3.00	 	 	 	 	 	 	 	 	 	 	 	 	 	 	 	 	 	 	1581505888	7.49	13.87
12/02/2020 11:11:29	120220	12022020	111129	194.56	12.498138	-57.205912	194.78	-0.110	1.610	2.110	194.56	0.20	2.50	 	 	 	 	 	 	 	 	 	 	 	 	 	 	 	 	 	 	1581505889	7.94	14.70
12/02/2020 11:11:30	120220	12022020	111130	195.21	12.498103	-57.205923	195.44	0.670	1.030	1.510	195.21	-0.40	1.90	 	 	 	 	 	 	 	 	 	 	 	 	 	 	 	 	 	 	1581505890	8.09	14.98
12/02/2020 11:11:31	120220	12022020	111131	195.71	12.498068	-57.205932	195.96	1.070	0.230	1.060	195.79	-1.30	1.60	 	 	 	 	 	 	 	 	 	 	 	 	 	 	 	 	 	 	1581505891	7.66	14.19
12/02/2020 11:11:32	120220	12022020	111132	195.88	12.498035	-57.205942	196.00	1.130	-0.890	1.250	195.88	-2.50	1.90	 	 	 	 	 	 	 	 	 	 	 	 	 	 	 	 	 	 	1581505892	7.48	13.85
12/02/2020 11:11:33	120220	12022020	111133	195.67	12.498002	-57.205953	195.80	1.020	-1.830	1.690	195.67	-3.30	2.30	 	 	 	 	 	 	 	 	 	 	 	 	 	 	 	 	 	 	1581505893	7.70	14.26
12/02/2020 11:11:34	120220	12022020	111134	195.42	12.497968	-57.205967	195.56	0.700	-2.120	2.080	195.42	-3.40	2.70	 	 	 	 	 	 	 	 	 	 	 	 	 	 	 	 	 	 	1581505894	7.58	14.04
12/02/2020 11:11:35	120220	12022020	111135	195.05	12.497937	-57.205980	195.19	0.170	-1.930	2.500	195.05	-3.10	3.10	 	 	 	 	 	 	 	 	 	 	 	 	 	 	 	 	 	 	1581505895	7.20	13.33
12/02/2020 11:11:36	120220	12022020	111136	194.71	12.497907	-57.205993	194.87	-0.430	-1.490	2.780	194.71	-2.60	3.30	 	 	 	 	 	 	 	 	 	 	 	 	 	 	 	 	 	 	1581505896	7.30	13.52
12/02/2020 11:11:37	120220	12022020	111137	194.57	12.497873	-57.206008	194.73	-0.890	-0.890	2.830	194.57	-2.00	3.40	 	 	 	 	 	 	 	 	 	 	 	 	 	 	 	 	 	 	1581505897	7.58	14.04
12/02/2020 11:11:38	120220	12022020	111138	194.49	12.497842	-57.206023	194.63	-0.990	-0.260	2.870	194.49	-1.40	3.40	 	 	 	 	 	 	 	 	 	 	 	 	 	 	 	 	 	 	1581505898	7.81	14.46
12/02/2020 11:11:39	120220	12022020	111139	194.45	12.497807	-57.206040	194.61	-0.750	0.410	2.780	194.45	-0.70	3.20	 	 	 	 	 	 	 	 	 	 	 	 	 	 	 	 	 	 	1581505899	8.05	14.91
12/02/2020 11:11:40	120220	12022020	111140	194.57	12.497772	-57.206053	194.74	-0.390	1.130	2.360	194.57	-0.00	2.70	 	 	 	 	 	 	 	 	 	 	 	 	 	 	 	 	 	 	1581505900	7.98	14.78
12/02/2020 11:11:41	120220	12022020	111141	194.88	12.497738	-57.206063	195.04	-0.110	1.620	1.720	194.88	0.30	2.10	 	 	 	 	 	 	 	 	 	 	 	 	 	 	 	 	 	 	1581505901	7.68	14.22
12/02/2020 11:11:42	120220	12022020	111142	195.23	12.497703	-57.206070	195.37	0.120	1.460	1.280	195.23	0.00	1.80	 	 	 	 	 	 	 	 	 	 	 	 	 	 	 	 	 	 	1581505902	7.57	14.02
12/02/2020 11:11:43	120220	12022020	111143	195.56	12.497668	-57.206080	195.70	0.360	0.760	1.040	195.56	-0.70	1.60	 	 	 	 	 	 	 	 	 	 	 	 	 	 	 	 	 	 	1581505903	7.78	14.41
12/02/2020 11:11:44	120220	12022020	111144	195.76	12.497633	-57.206090	195.88	0.530	-0.140	1.090	195.76	-1.70	1.70	 	 	 	 	 	 	 	 	 	 	 	 	 	 	 	 	 	 	1581505904	7.83	14.50
12/02/2020 11:11:45	120220	12022020	111145	195.72	12.497600	-57.206102	195.82	0.560	-1.010	1.550	195.72	-2.50	2.20	 	 	 	 	 	 	 	 	 	 	 	 	 	 	 	 	 	 	1581505905	7.70	14.26
12/02/2020 11:11:46	120220	12022020	111146	195.48	12.497567	-57.206118	195.58	0.560	-1.630	2.070	195.48	-3.00	2.70	 	 	 	 	 	 	 	 	 	 	 	 	 	 	 	 	 	 	1581505906	7.67	14.20
12/02/2020 11:11:47	120220	12022020	111147	195.27	12.497535	-57.206133	195.40	0.600	-1.810	2.230	195.27	-3.10	2.80	 	 	 	 	 	 	 	 	 	 	 	 	 	 	 	 	 	 	1581505907	7.56	14.00
12/02/2020 11:11:48	120220	12022020	111148	195.15	12.497503	-57.206145	195.28	0.570	-1.680	2.120	195.15	-2.90	2.60	 	 	 	 	 	 	 	 	 	 	 	 	 	 	 	 	 	 	1581505908	7.37	13.65
12/02/2020 11:11:49	120220	12022020	111149	195.07	12.497470	-57.206155	195.21	0.240	-1.310	1.940	195.07	-2.50	2.50	 	 	 	 	 	 	 	 	 	 	 	 	 	 	 	 	 	 	1581505909	7.47	13.83
12/02/2020 11:11:50	120220	12022020	111150	195.01	12.497435	-57.206165	195.15	-0.420	-0.790	1.900	195.01	-2.00	2.50	 	 	 	 	 	 	 	 	 	 	 	 	 	 	 	 	 	 	1581505910	7.67	14.20
12/02/2020 11:11:51	120220	12022020	111151	194.93	12.497402	-57.206178	195.06	-1.040	-0.150	2.040	194.93	-1.30	2.60	 	 	 	 	 	 	 	 	 	 	 	 	 	 	 	 	 	 	1581505911	7.84	14.52
12/02/2020 11:11:52	120220	12022020	111152	194.94	12.497368	-57.206193	195.07	-1.180	0.690	2.050	194.94	-0.40	2.60	 	 	 	 	 	 	 	 	 	 	 	 	 	 	 	 	 	 	1581505912	7.94	14.70
12/02/2020 11:11:53	120220	12022020	111153	195.06	12.497335	-57.206208	195.20	-0.800	1.320	1.880	195.06	0.10	2.40	 	 	 	 	 	 	 	 	 	 	 	 	 	 	 	 	 	 	1581505913	7.71	14.28
12/02/2020 11:11:54	120220	12022020	111154	195.20	12.497302	-57.206220	195.33	-0.190	1.340	1.750	195.20	-0.00	2.30	 	 	 	 	 	 	 	 	 	 	 	 	 	 	 	 	 	 	1581505914	7.76	14.37
12/02/2020 11:11:55	120220	12022020	111155	195.31	12.497265	-57.206232	195.44	0.300	0.930	1.740	195.31	-0.50	2.30	 	 	 	 	 	 	 	 	 	 	 	 	 	 	 	 	 	 	1581505915	8.05	14.91
12/02/2020 11:11:56	120220	12022020	111156	195.42	12.497230	-57.206243	195.54	0.580	0.470	1.720	195.42	-1.00	2.30	 	 	 	 	 	 	 	 	 	 	 	 	 	 	 	 	 	 	1581505916	7.96	14.74
12/02/2020 11:11:57	120220	12022020	111157	195.42	12.497197	-57.206255	195.53	0.780	-0.170	1.690	195.42	-1.70	2.20	 	 	 	 	 	 	 	 	 	 	 	 	 	 	 	 	 	 	1581505917	7.58	14.04
12/02/2020 11:11:58	120220	12022020	111158	195.44	12.497163	-57.206265	195.57	0.900	-0.970	1.580	195.44	-2.50	2.10	 	 	 	 	 	 	 	 	 	 	 	 	 	 	 	 	 	 	1581505918	7.58	14.04
12/02/2020 11:11:59	120220	12022020	111159	195.52	12.497128	-57.206275	195.65	0.780	-1.670	1.530	195.52	-3.10	2.10	 	 	 	 	 	 	 	 	 	 	 	 	 	 	 	 	 	 	1581505919	7.70	14.26
12/02/2020 11:12:00	120220	12022020	111200	195.45	12.497095	-57.206287	195.57	0.310	-1.980	1.920	195.45	-3.30	2.60	 	 	 	 	 	 	 	 	 	 	 	 	 	 	 	 	 	 	1581505920	7.72	14.30
12/02/2020 11:12:01	120220	12022020	111201	195.13	12.497062	-57.206302	195.23	-0.330	-1.760	2.680	195.13	-2.90	3.40	1015.80	26.30	26.30	20.50	20.60	131.0	70.0	70.0	410.0	26.5	258.00	10.20	74.00	11.70	10162	8597.0	27.5	27.5	1581505921	7.69	14.24
12/02/2020 11:12:02	120220	12022020	111202	194.77	12.497030	-57.206320	194.92	-0.810	-1.080	3.240	194.77	-2.20	3.80	 	 	 	 	 	 	 	 	 	 	 	 	 	 	 	 	 	 	1581505922	7.75	14.35
12/02/2020 11:12:03	120220	12022020	111203	194.71	12.496998	-57.206338	194.89	-0.870	-0.130	3.210	194.71	-1.20	3.60	 	 	 	 	 	 	 	 	 	 	 	 	 	 	 	 	 	 	1581505923	7.75	14.35
12/02/2020 11:12:04	120220	12022020	111204	194.94	12.496967	-57.206353	195.13	-0.470	0.790	2.630	194.94	-0.40	3.00	 	 	 	 	 	 	 	 	 	 	 	 	 	 	 	 	 	 	1581505924	7.58	14.04
12/02/2020 11:12:05	120220	12022020	111205	195.26	12.496933	-57.206362	195.43	0.140	1.160	1.760	195.26	-0.20	2.10	 	 	 	 	 	 	 	 	 	 	 	 	 	 	 	 	 	 	1581505925	7.55	13.98
12/02/2020 11:12:06	120220	12022020	111206	195.57	12.496897	-57.206368	195.73	0.510	0.870	1.090	195.57	-0.60	1.60	 	 	 	 	 	 	 	 	 	 	 	 	 	 	 	 	 	 	1581505926	8.05	14.91
12/02/2020 11:12:07	120220	12022020	111207	195.97	12.496858	-57.206373	196.13	0.410	0.310	0.980	195.97	-1.10	1.60	 	 	 	 	 	 	 	 	 	 	 	 	 	 	 	 	 	 	1581505927	8.40	15.56
12/02/2020 11:12:08	120220	12022020	111208	196.34	12.496822	-57.206383	196.49	0.050	-0.120	1.430	196.34	-1.50	2.10	 	 	 	 	 	 	 	 	 	 	 	 	 	 	 	 	 	 	1581505928	8.09	14.98
12/02/2020 11:12:09	120220	12022020	111209	196.29	12.496788	-57.206398	196.39	-0.160	-0.590	2.350	196.29	-2.00	3.10	 	 	 	 	 	 	 	 	 	 	 	 	 	 	 	 	 	 	1581505929	7.69	14.24
12/02/2020 11:12:10	120220	12022020	111210	195.76	12.496757	-57.206415	195.86	-0.110	-1.080	3.340	195.76	-2.50	4.00	 	 	 	 	 	 	 	 	 	 	 	 	 	 	 	 	 	 	1581505930	7.91	14.65
12/02/2020 11:12:11	120220	12022020	111211	195.29	12.496723	-57.206435	195.44	-0.050	-1.110	3.690	195.29	-2.30	4.20	 	 	 	 	 	 	 	 	 	 	 	 	 	 	 	 	 	 	1581505931	8.17	15.13
12/02/2020 11:12:12	120220	12022020	111212	195.29	12.496692	-57.206452	195.50	-0.120	-0.510	3.240	195.29	-1.60	3.60	 	 	 	 	 	 	 	 	 	 	 	 	 	 	 	 	 	 	1581505932	7.68	14.22
12/02/2020 11:12:13	120220	12022020	111213	195.81	12.496662	-57.206463	196.03	-0.190	0.260	2.100	195.81	-0.90	2.30	 	 	 	 	 	 	 	 	 	 	 	 	 	 	 	 	 	 	1581505933	6.92	12.82
12/02/2020 11:12:14	120220	12022020	111214	196.43	12.496630	-57.206472	196.61	-0.070	0.350	0.850	196.43	-1.10	1.20	 	 	 	 	 	 	 	 	 	 	 	 	 	 	 	 	 	 	1581505934	6.79	12.58
12/02/2020 11:12:15	120220	12022020	111215	196.83	12.496595	-57.206478	196.98	0.240	-0.410	0.170	196.83	-1.90	0.70	 	 	 	 	 	 	 	 	 	 	 	 	 	 	 	 	 	 	1581505935	7.68	14.22
12/02/2020 11:12:16	120220	12022020	111216	196.95	12.496557	-57.206487	197.06	0.490	-1.160	0.190	196.95	-2.50	0.80	 	 	 	 	 	 	 	 	 	 	 	 	 	 	 	 	 	 	1581505936	8.55	15.83
12/02/2020 11:12:17	120220	12022020	111217	196.85	12.496520	-57.206498	196.89	0.500	-1.140	0.510	196.80	-2.40	1.20	 	 	 	 	 	 	 	 	 	 	 	 	 	 	 	 	 	 	1581505937	8.45	15.65
12/02/2020 11:12:18	120220	12022020	111218	196.51	12.496485	-57.206510	196.61	0.250	-0.510	1.010	196.51	-1.60	1.70	 	 	 	 	 	 	 	 	 	 	 	 	 	 	 	 	 	 	1581505938	7.75	14.35
12/02/2020 11:12:19	120220	12022020	111219	196.29	12.496453	-57.206523	196.44	-0.130	0.240	1.590	196.29	-0.90	2.20	 	 	 	 	 	 	 	 	 	 	 	 	 	 	 	 	 	 	1581505939	7.33	13.58
12/02/2020 11:12:20	120220	12022020	111220	196.31	12.496422	-57.206537	196.49	-0.510	0.730	1.980	196.31	-0.50	2.60	 	 	 	 	 	 	 	 	 	 	 	 	 	 	 	 	 	 	1581505940	7.34	13.59
12/02/2020 11:12:21	120220	12022020	111221	196.55	12.496390	-57.206552	196.76	-0.760	0.810	2.110	196.55	-0.50	2.60	 	 	 	 	 	 	 	 	 	 	 	 	 	 	 	 	 	 	1581505941	7.57	14.02
12/02/2020 11:12:22	120220	12022020	111222	196.87	12.496357	-57.206568	197.06	-0.720	0.490	2.050	196.87	-1.00	2.60	 	 	 	 	 	 	 	 	 	 	 	 	 	 	 	 	 	 	1581505942	7.80	14.45
12/02/2020 11:12:23	120220	12022020	111223	197.02	12.496323	-57.206583	197.19	-0.360	-0.230	2.040	197.02	-1.70	2.60	 	 	 	 	 	 	 	 	 	 	 	 	 	 	 	 	 	 	1581505943	7.97	14.76
12/02/2020 11:12:24	120220	12022020	111224	196.91	12.496288	-57.206600	197.05	0.200	-0.950	2.020	196.91	-2.40	2.50	 	 	 	 	 	 	 	 	 	 	 	 	 	 	 	 	 	 	1581505944	8.20	15.19
12/02/2020 11:12:25	120220	12022020	111225	196.59	12.496253	-57.206613	196.71	0.740	-1.350	1.750	196.59	-2.70	2.20	 	 	 	 	 	 	 	 	 	 	 	 	 	 	 	 	 	 	1581505945	8.15	15.09
12/02/2020 11:12:26	120220	12022020	111226	196.26	12.496218	-57.206623	196.40	0.930	-1.330	1.360	196.26	-2.50	1.80	 	 	 	 	 	 	 	 	 	 	 	 	 	 	 	 	 	 	1581505946	8.00	14.82
12/02/2020 11:12:27	120220	12022020	111227	196.21	12.496182	-57.206632	196.41	0.500	-0.710	1.090	196.21	-1.80	1.60	 	 	 	 	 	 	 	 	 	 	 	 	 	 	 	 	 	 	1581505947	7.80	14.45
12/02/2020 11:12:28	120220	12022020	111228	196.55	12.496150	-57.206640	196.77	-0.380	0.220	1.090	196.55	-0.90	1.70	 	 	 	 	 	 	 	 	 	 	 	 	 	 	 	 	 	 	1581505948	7.26	13.45
12/02/2020 11:12:29	120220	12022020	111229	197.05	12.496120	-57.206653	197.26	-1.150	0.860	1.370	197.05	-0.40	2.00	 	 	 	 	 	 	 	 	 	 	 	 	 	 	 	 	 	 	1581505949	7.00	12.96
12/02/2020 11:12:30	120220	12022020	111230	197.36	12.496090	-57.206672	197.54	-1.100	0.750	1.790	197.36	-0.70	2.40	 	 	 	 	 	 	 	 	 	 	 	 	 	 	 	 	 	 	1581505950	7.46	13.82
12/02/2020 11:12:31	120220	12022020	111231	197.33	12.496057	-57.206692	197.47	-0.100	-0.030	2.000	197.33	-1.60	2.50	 	 	 	 	 	 	 	 	 	 	 	 	 	 	 	 	 	 	1581505951	8.22	15.22
12/02/2020 11:12:32	120220	12022020	111232	197.08	12.496020	-57.206707	197.21	1.090	-0.770	1.860	197.08	-2.20	2.30	 	 	 	 	 	 	 	 	 	 	 	 	 	 	 	 	 	 	1581505952	8.71	16.13
12/02/2020 11:12:33	120220	12022020	111233	196.91	12.495980	-57.206715	197.08	1.410	-0.780	1.640	196.91	-2.00	2.10	 	 	 	 	 	 	 	 	 	 	 	 	 	 	 	 	 	 	1581505953	8.57	15.87
12/02/2020 11:12:34	120220	12022020	111234	197.02	12.495945	-57.206723	197.21	0.610	-0.200	1.500	197.02	-1.40	2.00	 	 	 	 	 	 	 	 	 	 	 	 	 	 	 	 	 	 	1581505954	7.67	14.20
12/02/2020 11:12:35	120220	12022020	111235	197.23	12.495915	-57.206732	197.40	-0.550	0.180	1.660	197.23	-1.10	2.30	 	 	 	 	 	 	 	 	 	 	 	 	 	 	 	 	 	 	1581505955	6.92	12.82
12/02/2020 11:12:36	120220	12022020	111236	197.31	12.495885	-57.206748	197.48	-1.140	-0.090	2.130	197.31	-1.50	2.80	 	 	 	 	 	 	 	 	 	 	 	 	 	 	 	 	 	 	1581505956	7.32	13.56
12/02/2020 11:12:37	120220	12022020	111237	197.34	12.495852	-57.206768	197.51	-0.870	-0.690	2.420	197.34	-2.10	3.00	 	 	 	 	 	 	 	 	 	 	 	 	 	 	 	 	 	 	1581505957	8.25	15.28
12/02/2020 11:12:38	120220	12022020	111238	197.38	12.495817	-57.206788	197.54	-0.180	-0.990	2.360	197.38	-2.30	2.80	 	 	 	 	 	 	 	 	 	 	 	 	 	 	 	 	 	 	1581505958	8.54	15.82
12/02/2020 11:12:39	120220	12022020	111239	197.35	12.495782	-57.206803	197.50	0.330	-0.850	2.000	197.35	-2.10	2.40	 	 	 	 	 	 	 	 	 	 	 	 	 	 	 	 	 	 	1581505959	8.17	15.13
12/02/2020 11:12:40	120220	12022020	111240	197.32	12.495748	-57.206815	197.46	0.360	-0.380	1.640	197.32	-1.60	2.10	 	 	 	 	 	 	 	 	 	 	 	 	 	 	 	 	 	 	1581505960	7.83	14.50
12/02/2020 11:12:41	120220	12022020	111241	197.39	12.495715	-57.206827	197.55	0.080	0.310	1.300	197.39	-0.80	1.70	 	 	 	 	 	 	 	 	 	 	 	 	 	 	 	 	 	 	1581505961	7.53	13.95
12/02/2020 11:12:42	120220	12022020	111242	197.69	12.495682	-57.206837	197.86	-0.110	0.950	0.800	197.69	-0.30	1.30	 	 	 	 	 	 	 	 	 	 	 	 	 	 	 	 	 	 	1581505962	7.25	13.43
12/02/2020 11:12:43	120220	12022020	111243	197.96	12.495650	-57.206847	198.09	0.060	0.900	0.570	197.96	-0.60	1.10	 	 	 	 	 	 	 	 	 	 	 	 	 	 	 	 	 	 	1581505963	7.17	13.28
12/02/2020 11:12:44	120220	12022020	111244	197.88	12.495615	-57.206857	197.97	0.510	-0.040	0.810	197.88	-1.60	1.50	 	 	 	 	 	 	 	 	 	 	 	 	 	 	 	 	 	 	1581505964	7.82	14.48
12/02/2020 11:12:45	120220	12022020	111245	197.61	12.495578	-57.206870	197.70	0.830	-1.050	1.330	197.61	-2.50	2.00	 	 	 	 	 	 	 	 	 	 	 	 	 	 	 	 	 	 	1581505965	8.64	16.00
12/02/2020 11:12:46	120220	12022020	111246	197.40	12.495540	-57.206885	197.53	0.630	-1.300	1.980	197.40	-2.60	2.70	 	 	 	 	 	 	 	 	 	 	 	 	 	 	 	 	 	 	1581505966	8.56	15.85
12/02/2020 11:12:47	120220	12022020	111247	197.27	12.495508	-57.206900	197.41	-0.060	-0.920	2.560	197.27	-2.10	3.20	 	 	 	 	 	 	 	 	 	 	 	 	 	 	 	 	 	 	1581505967	7.38	13.67
12/02/2020 11:12:48	120220	12022020	111248	197.19	12.495477	-57.206917	197.36	-0.790	-0.490	2.910	197.19	-1.70	3.50	 	 	 	 	 	 	 	 	 	 	 	 	 	 	 	 	 	 	1581505968	7.38	13.67
12/02/2020 11:12:49	120220	12022020	111249	197.28	12.495447	-57.206935	197.47	-1.090	-0.220	2.900	197.28	-1.50	3.40	 	 	 	 	 	 	 	 	 	 	 	 	 	 	 	 	 	 	1581505969	7.66	14.19
12/02/2020 11:12:50	120220	12022020	111250	197.64	12.495415	-57.206953	197.85	-0.780	0.010	2.360	197.64	-1.30	2.70	 	 	 	 	 	 	 	 	 	 	 	 	 	 	 	 	 	 	1581505970	7.87	14.58
12/02/2020 11:12:51	120220	12022020	111251	198.10	12.495382	-57.206967	198.26	-0.120	-0.060	1.580	198.10	-1.50	2.00	 	 	 	 	 	 	 	 	 	 	 	 	 	 	 	 	 	 	1581505971	7.83	14.50
12/02/2020 11:12:52	120220	12022020	111252	198.10	12.495345	-57.206978	198.17	0.530	-0.510	1.190	198.10	-1.90	1.70	 	 	 	 	 	 	 	 	 	 	 	 	 	 	 	 	 	 	1581505972	8.16	15.11
12/02/2020 11:12:53	120220	12022020	111253	197.63	12.495307	-57.206990	197.70	0.830	-0.750	1.260	197.63	-2.00	1.90	 	 	 	 	 	 	 	 	 	 	 	 	 	 	 	 	 	 	1581505973	8.65	16.02
12/02/2020 11:12:54	120220	12022020	111254	197.40	12.495268	-57.207000	197.53	0.520	0.020	1.420	197.40	-1.00	2.00	 	 	 	 	 	 	 	 	 	 	 	 	 	 	 	 	 	 	1581505974	8.36	15.48
12/02/2020 11:12:55	120220	12022020	111255	197.62	12.495238	-57.207012	197.79	-0.190	1.230	1.410	197.62	0.10	1.90	 	 	 	 	 	 	 	 	 	 	 	 	 	 	 	 	 	 	1581505975	7.09	13.13
12/02/2020 11:12:56	120220	12022020	111256	198.03	12.495210	-57.207025	198.19	-0.680	1.460	1.380	198.03	0.00	1.90	 	 	 	 	 	 	 	 	 	 	 	 	 	 	 	 	 	 	1581505976	6.57	12.17
12/02/2020 11:12:57	120220	12022020	111257	198.34	12.495178	-57.207042	198.47	-0.470	0.440	1.440	198.34	-1.20	2.00	 	 	 	 	 	 	 	 	 	 	 	 	 	 	 	 	 	 	1581505977	7.53	13.95
12/02/2020 11:12:58	120220	12022020	111258	198.42	12.495143	-57.207058	198.53	0.310	-0.910	1.450	198.42	-2.50	2.00	 	 	 	 	 	 	 	 	 	 	 	 	 	 	 	 	 	 	1581505978	8.59	15.91
12/02/2020 11:12:59	120220	12022020	111259	198.38	12.495105	-57.207073	198.48	1.040	-1.680	1.290	198.38	-3.10	1.80	 	 	 	 	 	 	 	 	 	 	 	 	 	 	 	 	 	 	1581505979	8.69	16.09
12/02/2020 11:13:00	120220	12022020	111300	198.38	12.495070	-57.207085	198.48	1.090	-1.700	1.140	198.38	-3.00	1.70	 	 	 	 	 	 	 	 	 	 	 	 	 	 	 	 	 	 	1581505980	8.10	15.00
12/02/2020 11:13:01	120220	12022020	111301	198.28	12.495035	-57.207095	198.37	0.400	-1.330	1.560	198.28	-2.60	2.30	1015.80	26.20	26.30	20.40	20.50	133.0	70.0	70.0	411.0	26.5	255.00	9.30	71.00	11.10	10386	9742.0	27.5	27.5	1581505981	7.56	14.00
12/02/2020 11:13:02	120220	12022020	111302	198.00	12.495003	-57.207110	198.10	-0.530	-0.900	2.420	198.00	-2.10	3.10	 	 	 	 	 	 	 	 	 	 	 	 	 	 	 	 	 	 	1581505982	7.57	14.02
12/02/2020 11:13:03	120220	12022020	111303	197.71	12.494972	-57.207130	197.83	-1.130	-0.380	3.200	197.71	-1.60	3.90	 	 	 	 	 	 	 	 	 	 	 	 	 	 	 	 	 	 	1581505983	8.04	14.89
12/02/2020 11:13:04	120220	12022020	111304	197.49	12.494940	-57.207152	197.62	-1.080	0.170	3.630	197.49	-1.10	4.20	 	 	 	 	 	 	 	 	 	 	 	 	 	 	 	 	 	 	1581505984	8.24	15.26
12/02/2020 11:13:05	120220	12022020	111305	197.27	12.494907	-57.207172	197.33	-0.510	0.430	3.590	197.21	-0.90	4.00	 	 	 	 	 	 	 	 	 	 	 	 	 	 	 	 	 	 	1581505985	8.20	15.19
12/02/2020 11:13:06	120220	12022020	111306	197.15	12.494872	-57.207188	197.32	0.070	0.640	2.990	197.15	-0.60	3.30	 	 	 	 	 	 	 	 	 	 	 	 	 	 	 	 	 	 	1581505986	8.40	15.56
12/02/2020 11:13:07	120220	12022020	111307	197.65	12.494837	-57.207200	197.85	0.310	1.020	1.980	197.65	-0.30	2.30	 	 	 	 	 	 	 	 	 	 	 	 	 	 	 	 	 	 	1581505987	8.07	14.95
12/02/2020 11:13:08	120220	12022020	111308	198.34	12.494802	-57.207208	198.50	0.370	1.060	0.930	198.34	-0.40	1.30	 	 	 	 	 	 	 	 	 	 	 	 	 	 	 	 	 	 	1581505988	7.44	13.78
12/02/2020 11:13:09	120220	12022020	111309	198.82	12.494768	-57.207217	198.92	0.540	0.310	0.290	198.82	-1.30	0.80	 	 	 	 	 	 	 	 	 	 	 	 	 	 	 	 	 	 	1581505989	7.52	13.93
12/02/2020 11:13:10	120220	12022020	111310	199.03	12.494732	-57.207225	199.11	0.710	-0.940	0.430	199.03	-2.60	1.10	 	 	 	 	 	 	 	 	 	 	 	 	 	 	 	 	 	 	1581505990	8.15	15.09
12/02/2020 11:13:11	120220	12022020	111311	198.92	12.494693	-57.207238	198.98	0.580	-1.960	1.330	198.92	-3.40	2.10	 	 	 	 	 	 	 	 	 	 	 	 	 	 	 	 	 	 	1581505991	8.53	15.80
12/02/2020 11:13:12	120220	12022020	111312	198.55	12.494660	-57.207257	198.60	0.130	-2.090	2.460	198.55	-3.30	3.20	 	 	 	 	 	 	 	 	 	 	 	 	 	 	 	 	 	 	1581505992	8.41	15.58
12/02/2020 11:13:13	120220	12022020	111313	198.13	12.494628	-57.207278	198.22	-0.350	-1.370	3.360	198.13	-2.50	4.00	 	 	 	 	 	 	 	 	 	 	 	 	 	 	 	 	 	 	1581505993	7.93	14.69
12/02/2020 11:13:14	120220	12022020	111314	197.97	12.494600	-57.207298	198.11	-0.610	-0.270	3.560	197.97	-1.40	4.00	 	 	 	 	 	 	 	 	 	 	 	 	 	 	 	 	 	 	1581505994	7.46	13.82
12/02/2020 11:13:15	120220	12022020	111315	198.11	12.494572	-57.207315	198.25	-0.550	0.530	3.090	198.11	-0.70	3.50	 	 	 	 	 	 	 	 	 	 	 	 	 	 	 	 	 	 	1581505995	7.20	13.33
12/02/2020 11:13:16	120220	12022020	111316	198.21	12.494538	-57.207328	198.31	-0.170	0.430	2.410	198.21	-1.00	2.80	 	 	 	 	 	 	 	 	 	 	 	 	 	 	 	 	 	 	1581505996	7.53	13.95
12/02/2020 11:13:17	120220	12022020	111317	198.08	12.494500	-57.207340	198.18	0.310	-0.210	1.910	198.08	-1.60	2.40	 	 	 	 	 	 	 	 	 	 	 	 	 	 	 	 	 	 	1581505997	8.54	15.82
12/02/2020 11:13:18	120220	12022020	111318	198.13	12.494460	-57.207353	198.28	0.480	-0.270	1.490	198.13	-1.50	1.90	 	 	 	 	 	 	 	 	 	 	 	 	 	 	 	 	 	 	1581505998	9.01	16.69
12/02/2020 11:13:19	120220	12022020	111319	198.47	12.494425	-57.207363	198.72	0.170	0.350	1.170	198.57	-0.90	1.70	 	 	 	 	 	 	 	 	 	 	 	 	 	 	 	 	 	 	1581505999	8.10	15.00
12/02/2020 11:13:20	120220	12022020	111320	199.04	12.494393	-57.207375	199.17	-0.290	0.710	1.250	199.04	-0.70	1.90	 	 	 	 	 	 	 	 	 	 	 	 	 	 	 	 	 	 	1581506000	7.20	13.33
12/02/2020 11:13:21	120220	12022020	111321	199.30	12.494362	-57.207390	199.39	-0.440	0.260	1.630	199.30	-1.30	2.30	 	 	 	 	 	 	 	 	 	 	 	 	 	 	 	 	 	 	1581506001	7.43	13.76
12/02/2020 11:13:22	120220	12022020	111322	199.21	12.494327	-57.207407	199.28	-0.210	-0.690	2.180	199.21	-2.20	2.80	 	 	 	 	 	 	 	 	 	 	 	 	 	 	 	 	 	 	1581506002	8.24	15.26
12/02/2020 11:13:23	120220	12022020	111323	198.90	12.494292	-57.207427	198.97	0.130	-1.320	2.620	198.90	-2.70	3.20	 	 	 	 	 	 	 	 	 	 	 	 	 	 	 	 	 	 	1581506003	8.73	16.17
12/02/2020 11:13:24	120220	12022020	111324	198.63	12.494257	-57.207445	198.72	0.280	-1.000	2.690	198.63	-2.10	3.20	 	 	 	 	 	 	 	 	 	 	 	 	 	 	 	 	 	 	1581506004	8.34	15.45
12/02/2020 11:13:25	120220	12022020	111325	198.51	12.494227	-57.207460	198.61	0.210	-0.200	2.330	198.51	-1.40	2.80	 	 	 	 	 	 	 	 	 	 	 	 	 	 	 	 	 	 	1581506005	7.33	13.58
12/02/2020 11:13:26	120220	12022020	111326	198.50	12.494195	-57.207472	198.60	0.100	0.120	1.760	198.50	-1.20	2.20	 	 	 	 	 	 	 	 	 	 	 	 	 	 	 	 	 	 	1581506006	6.99	12.95
12/02/2020 11:13:27	120220	12022020	111327	198.49	12.494162	-57.207483	198.56	0.150	-0.170	1.340	198.49	-1.60	1.80	 	 	 	 	 	 	 	 	 	 	 	 	 	 	 	 	 	 	1581506007	7.65	14.17
12/02/2020 11:13:28	120220	12022020	111328	198.37	12.494125	-57.207497	198.45	0.310	-0.520	1.210	198.37	-1.90	1.80	 	 	 	 	 	 	 	 	 	 	 	 	 	 	 	 	 	 	1581506008	8.31	15.39
12/02/2020 11:13:29	120220	12022020	111329	198.38	12.494090	-57.207510	198.47	0.280	-0.420	1.220	198.38	-1.70	1.80	 	 	 	 	 	 	 	 	 	 	 	 	 	 	 	 	 	 	1581506009	8.35	15.46
12/02/2020 11:13:30	120220	12022020	111330	198.50	12.494055	-57.207522	198.60	-0.070	-0.130	1.430	198.50	-1.40	2.10	 	 	 	 	 	 	 	 	 	 	 	 	 	 	 	 	 	 	1581506010	7.84	14.52
12/02/2020 11:13:31	120220	12022020	111331	198.55	12.494022	-57.207537	198.64	-0.480	-0.160	1.920	198.55	-1.60	2.60	 	 	 	 	 	 	 	 	 	 	 	 	 	 	 	 	 	 	1581506011	7.73	14.32
12/02/2020 11:13:32	120220	12022020	111332	198.47	12.493988	-57.207555	198.56	-0.600	-0.460	2.400	198.47	-1.80	3.00	 	 	 	 	 	 	 	 	 	 	 	 	 	 	 	 	 	 	1581506012	8.22	15.22
12/02/2020 11:13:33	120220	12022020	111333	198.33	12.493953	-57.207573	198.43	-0.360	-0.540	2.600	198.33	-1.80	3.10	 	 	 	 	 	 	 	 	 	 	 	 	 	 	 	 	 	 	1581506013	8.51	15.76
12/02/2020 11:13:34	120220	12022020	111334	198.27	12.493918	-57.207590	198.39	-0.070	-0.230	2.360	198.27	-1.50	2.80	 	 	 	 	 	 	 	 	 	 	 	 	 	 	 	 	 	 	1581506014	8.19	15.17
12/02/2020 11:13:35	120220	12022020	111335	198.33	12.493885	-57.207603	198.44	-0.010	0.170	1.880	198.33	-1.10	2.30	 	 	 	 	 	 	 	 	 	 	 	 	 	 	 	 	 	 	1581506015	7.68	14.22
12/02/2020 11:13:36	120220	12022020	111336	198.36	12.493853	-57.207617	198.47	-0.110	0.280	1.550	198.36	-1.10	2.10	 	 	 	 	 	 	 	 	 	 	 	 	 	 	 	 	 	 	1581506016	7.53	13.95
12/02/2020 11:13:37	120220	12022020	111337	198.34	12.493818	-57.207630	198.43	-0.070	0.020	1.390	198.34	-1.40	1.90	 	 	 	 	 	 	 	 	 	 	 	 	 	 	 	 	 	 	1581506017	7.76	14.37
12/02/2020 11:13:38	120220	12022020	111338	198.21	12.493783	-57.207643	198.28	0.180	-0.430	1.450	198.21	-1.90	2.00	 	 	 	 	 	 	 	 	 	 	 	 	 	 	 	 	 	 	1581506018	8.10	15.00
12/02/2020 11:13:39	120220	12022020	111339	198.04	12.493748	-57.207657	198.14	0.390	-0.720	1.580	198.04	-2.10	2.20	 	 	 	 	 	 	 	 	 	 	 	 	 	 	 	 	 	 	1581506019	8.31	15.39
12/02/2020 11:13:40	120220	12022020	111340	197.95	12.493712	-57.207672	198.06	0.320	-0.610	1.750	197.95	-1.90	2.30	 	 	 	 	 	 	 	 	 	 	 	 	 	 	 	 	 	 	1581506020	8.15	15.09
12/02/2020 11:13:41	120220	12022020	111341	197.99	12.493680	-57.207687	198.13	0.050	-0.240	1.940	197.99	-1.50	2.50	 	 	 	 	 	 	 	 	 	 	 	 	 	 	 	 	 	 	1581506021	7.79	14.43
12/02/2020 11:13:42	120220	12022020	111342	198.16	12.493648	-57.207702	198.30	-0.040	0.100	1.850	198.16	-1.20	2.30	 	 	 	 	 	 	 	 	 	 	 	 	 	 	 	 	 	 	1581506022	7.62	14.11
12/02/2020 11:13:43	120220	12022020	111343	198.43	12.493615	-57.207715	198.57	0.090	0.160	1.460	198.43	-1.20	1.90	 	 	 	 	 	 	 	 	 	 	 	 	 	 	 	 	 	 	1581506023	7.59	14.06
12/02/2020 11:13:44	120220	12022020	111344	198.63	12.493580	-57.207727	198.74	0.150	-0.260	1.250	198.63	-1.70	1.80	 	 	 	 	 	 	 	 	 	 	 	 	 	 	 	 	 	 	1581506024	7.87	14.58
12/02/2020 11:13:45	120220	12022020	111345	198.49	12.493543	-57.207740	198.54	0.010	-0.960	1.500	198.49	-2.40	2.20	 	 	 	 	 	 	 	 	 	 	 	 	 	 	 	 	 	 	1581506025	8.37	15.50
12/02/2020 11:13:46	120220	12022020	111346	198.06	12.493507	-57.207757	198.12	-0.250	-1.310	2.090	198.06	-2.60	2.80	 	 	 	 	 	 	 	 	 	 	 	 	 	 	 	 	 	 	1581506026	8.75	16.21
12/02/2020 11:13:47	120220	12022020	111347	197.75	12.493472	-57.207777	197.85	-0.430	-0.800	2.510	197.75	-1.90	3.10	 	 	 	 	 	 	 	 	 	 	 	 	 	 	 	 	 	 	1581506027	8.50	15.74
12/02/2020 11:13:48	120220	12022020	111348	197.66	12.493440	-57.207793	197.78	-0.380	0.160	2.480	197.66	-1.00	3.00	 	 	 	 	 	 	 	 	 	 	 	 	 	 	 	 	 	 	1581506028	7.62	14.11
12/02/2020 11:13:49	120220	12022020	111349	197.66	12.493410	-57.207808	197.77	-0.140	0.700	2.240	197.66	-0.60	2.70	 	 	 	 	 	 	 	 	 	 	 	 	 	 	 	 	 	 	1581506029	7.21	13.35
12/02/2020 11:13:50	120220	12022020	111350	197.65	12.493377	-57.207820	197.77	0.110	0.470	1.940	197.65	-1.00	2.40	 	 	 	 	 	 	 	 	 	 	 	 	 	 	 	 	 	 	1581506030	7.71	14.28
12/02/2020 11:13:51	120220	12022020	111351	197.71	12.493338	-57.207832	197.84	0.190	-0.060	1.710	197.71	-1.50	2.20	 	 	 	 	 	 	 	 	 	 	 	 	 	 	 	 	 	 	1581506031	8.37	15.50
12/02/2020 11:13:52	120220	12022020	111352	197.82	12.493302	-57.207847	197.96	0.160	-0.300	1.600	197.82	-1.60	2.10	 	 	 	 	 	 	 	 	 	 	 	 	 	 	 	 	 	 	1581506032	8.44	15.63
12/02/2020 11:13:53	120220	12022020	111353	198.01	12.493268	-57.207860	198.16	0.180	-0.170	1.460	198.01	-1.50	2.00	 	 	 	 	 	 	 	 	 	 	 	 	 	 	 	 	 	 	1581506033	7.97	14.76
12/02/2020 11:13:54	120220	12022020	111354	198.18	12.493235	-57.207873	198.31	0.290	-0.160	1.380	198.18	-1.50	1.90	 	 	 	 	 	 	 	 	 	 	 	 	 	 	 	 	 	 	1581506034	7.53	13.95
12/02/2020 11:13:55	120220	12022020	111355	198.20	12.493202	-57.207885	198.31	0.360	-0.540	1.540	198.20	-2.00	2.20	 	 	 	 	 	 	 	 	 	 	 	 	 	 	 	 	 	 	1581506035	7.73	14.32
12/02/2020 11:13:56	120220	12022020	111356	198.09	12.493167	-57.207900	198.20	0.280	-0.990	1.870	198.09	-2.40	2.50	 	 	 	 	 	 	 	 	 	 	 	 	 	 	 	 	 	 	1581506036	8.19	15.17
12/02/2020 11:13:57	120220	12022020	111357	197.91	12.493130	-57.207915	197.97	0.020	-1.110	2.150	197.87	-2.40	2.70	 	 	 	 	 	 	 	 	 	 	 	 	 	 	 	 	 	 	1581506037	8.31	15.39
12/02/2020 11:13:58	120220	12022020	111358	197.66	12.493097	-57.207932	197.78	-0.280	-0.850	2.240	197.66	-2.10	2.70	 	 	 	 	 	 	 	 	 	 	 	 	 	 	 	 	 	 	1581506038	8.09	14.98
12/02/2020 11:13:59	120220	12022020	111359	197.70	12.493063	-57.207947	197.86	-0.510	-0.380	2.030	197.70	-1.60	2.50	 	 	 	 	 	 	 	 	 	 	 	 	 	 	 	 	 	 	1581506039	7.88	14.59
12/02/2020 11:14:00	120220	12022020	111400	197.89	12.493030	-57.207960	198.04	-0.600	0.020	1.790	197.89	-1.20	2.30	 	 	 	 	 	 	 	 	 	 	 	 	 	 	 	 	 	 	1581506040	7.77	14.39
12/02/2020 11:14:01	120220	12022020	111401	198.01	12.492995	-57.207973	198.13	-0.500	0.160	1.720	198.01	-1.20	2.30	1015.80	26.30	26.30	20.70	20.70	133.0	71.0	71.0	412.0	26.5	257.00	9.10	74.00	10.80	10534	8959.0	27.6	27.5	1581506041	7.92	14.67
12/02/2020 11:14:02	120220	12022020	111402	197.87	12.492960	-57.207988	197.95	-0.230	0.070	1.910	197.87	-1.30	2.50	 	 	 	 	 	 	 	 	 	 	 	 	 	 	 	 	 	 	1581506042	8.20	15.19
12/02/2020 11:14:03	120220	12022020	111403	197.53	12.492923	-57.208005	197.63	0.130	-0.020	2.150	197.53	-1.30	2.70	 	 	 	 	 	 	 	 	 	 	 	 	 	 	 	 	 	 	1581506043	8.46	15.67
12/02/2020 11:14:04	120220	12022020	111404	197.41	12.492888	-57.208018	197.56	0.340	0.230	2.120	197.41	-1.00	2.60	 	 	 	 	 	 	 	 	 	 	 	 	 	 	 	 	 	 	1581506044	8.37	15.50
12/02/2020 11:14:05	120220	12022020	111405	197.60	12.492853	-57.208032	197.76	0.220	0.580	1.860	197.60	-0.70	2.30	 	 	 	 	 	 	 	 	 	 	 	 	 	 	 	 	 	 	1581506045	7.79	14.43
12/02/2020 11:14:06	120220	12022020	111406	197.97	12.492820	-57.208043	198.14	-0.040	0.580	1.450	197.97	-0.80	1.90	 	 	 	 	 	 	 	 	 	 	 	 	 	 	 	 	 	 	1581506046	7.48	13.85
12/02/2020 11:14:07	120220	12022020	111407	198.38	12.492788	-57.208057	198.53	-0.110	0.080	1.110	198.38	-1.40	1.60	 	 	 	 	 	 	 	 	 	 	 	 	 	 	 	 	 	 	1581506047	7.67	14.20
12/02/2020 11:14:08	120220	12022020	111408	198.64	12.492753	-57.208072	198.76	0.200	-0.660	0.840	198.64	-2.10	1.40	 	 	 	 	 	 	 	 	 	 	 	 	 	 	 	 	 	 	1581506048	8.01	14.83
12/02/2020 11:14:09	120220	12022020	111409	198.75	12.492717	-57.208083	198.84	0.580	-1.310	0.760	198.75	-2.70	1.30	 	 	 	 	 	 	 	 	 	 	 	 	 	 	 	 	 	 	1581506049	8.18	15.15
12/02/2020 11:14:10	120220	12022020	111410	198.58	12.492682	-57.208097	198.63	0.620	-1.660	1.080	198.58	-3.00	1.80	 	 	 	 	 	 	 	 	 	 	 	 	 	 	 	 	 	 	1581506050	8.15	15.09
12/02/2020 11:14:11	120220	12022020	111411	198.30	12.492647	-57.208112	198.30	0.260	-1.600	1.620	198.23	-2.80	2.30	 	 	 	 	 	 	 	 	 	 	 	 	 	 	 	 	 	 	1581506051	8.11	15.02
12/02/2020 11:14:12	120220	12022020	111412	198.01	12.492613	-57.208127	198.09	-0.210	-1.000	2.030	198.01	-2.10	2.70	 	 	 	 	 	 	 	 	 	 	 	 	 	 	 	 	 	 	1581506052	8.03	14.87
12/02/2020 11:14:13	120220	12022020	111413	197.73	12.492580	-57.208143	197.79	-0.460	-0.300	2.450	197.73	-1.50	3.10	 	 	 	 	 	 	 	 	 	 	 	 	 	 	 	 	 	 	1581506053	7.81	14.46
12/02/2020 11:14:14	120220	12022020	111414	197.41	12.492547	-57.208160	197.50	-0.480	0.140	2.720	197.41	-1.10	3.20	 	 	 	 	 	 	 	 	 	 	 	 	 	 	 	 	 	 	1581506054	8.07	14.95
12/02/2020 11:14:15	120220	12022020	111415	197.46	12.492510	-57.208175	197.61	-0.600	0.590	2.630	197.46	-0.60	3.10	 	 	 	 	 	 	 	 	 	 	 	 	 	 	 	 	 	 	1581506055	8.46	15.67
12/02/2020 11:14:16	120220	12022020	111416	197.79	12.492475	-57.208190	197.95	-0.890	1.030	2.380	197.79	-0.20	2.80	 	 	 	 	 	 	 	 	 	 	 	 	 	 	 	 	 	 	1581506056	8.23	15.24
12/02/2020 11:14:17	120220	12022020	111417	198.15	12.492440	-57.208205	198.28	-1.020	1.120	1.970	198.15	-0.30	2.40	 	 	 	 	 	 	 	 	 	 	 	 	 	 	 	 	 	 	1581506057	7.96	14.74
12/02/2020 11:14:18	120220	12022020	111418	198.58	12.492407	-57.208220	198.71	-0.630	0.840	1.360	198.58	-0.60	1.70	 	 	 	 	 	 	 	 	 	 	 	 	 	 	 	 	 	 	1581506058	8.03	14.87
12/02/2020 11:14:19	120220	12022020	111419	199.00	12.492372	-57.208235	199.08	0.270	0.310	0.660	199.00	-1.20	1.10	 	 	 	 	 	 	 	 	 	 	 	 	 	 	 	 	 	 	1581506059	8.00	14.82
12/02/2020 11:14:20	120220	12022020	111420	199.11	12.492337	-57.208247	199.14	1.210	-0.560	0.180	199.11	-2.10	0.70	 	 	 	 	 	 	 	 	 	 	 	 	 	 	 	 	 	 	1581506060	8.03	14.87
12/02/2020 11:14:21	120220	12022020	111421	199.07	12.492298	-57.208255	199.10	1.540	-1.340	0.170	199.07	-2.80	0.80	 	 	 	 	 	 	 	 	 	 	 	 	 	 	 	 	 	 	1581506061	8.32	15.41
12/02/2020 11:14:22	120220	12022020	111422	198.91	12.492263	-57.208268	198.93	1.090	-1.550	0.750	198.91	-2.90	1.50	 	 	 	 	 	 	 	 	 	 	 	 	 	 	 	 	 	 	1581506062	8.08	14.96
12/02/2020 11:14:23	120220	12022020	111423	198.71	12.492232	-57.208283	198.71	0.330	-1.170	1.440	198.67	-2.40	2.10	 	 	 	 	 	 	 	 	 	 	 	 	 	 	 	 	 	 	1581506063	7.66	14.19
12/02/2020 11:14:24	120220	12022020	111424	198.60	12.492200	-57.208300	198.66	-0.200	-0.570	1.860	198.60	-1.80	2.40	 	 	 	 	 	 	 	 	 	 	 	 	 	 	 	 	 	 	1581506064	7.37	13.65
12/02/2020 11:14:25	120220	12022020	111425	198.58	12.492170	-57.208315	198.64	-0.350	-0.410	2.140	198.58	-1.80	2.70	 	 	 	 	 	 	 	 	 	 	 	 	 	 	 	 	 	 	1581506065	7.48	13.85
12/02/2020 11:14:26	120220	12022020	111426	198.45	12.492135	-57.208332	198.50	-0.400	-0.660	2.420	198.45	-2.10	3.00	 	 	 	 	 	 	 	 	 	 	 	 	 	 	 	 	 	 	1581506066	8.26	15.30
12/02/2020 11:14:27	120220	12022020	111427	198.16	12.492097	-57.208348	198.21	-0.620	-0.720	2.780	198.16	-2.00	3.40	 	 	 	 	 	 	 	 	 	 	 	 	 	 	 	 	 	 	1581506067	8.86	16.41
12/02/2020 11:14:28	120220	12022020	111428	197.91	12.492062	-57.208368	198.00	-0.950	-0.130	3.000	197.91	-1.30	3.50	 	 	 	 	 	 	 	 	 	 	 	 	 	 	 	 	 	 	1581506068	8.72	16.15
12/02/2020 11:14:29	120220	12022020	111429	198.00	12.492028	-57.208385	198.13	-1.130	0.770	2.770	198.00	-0.40	3.20	 	 	 	 	 	 	 	 	 	 	 	 	 	 	 	 	 	 	1581506069	8.07	14.95
12/02/2020 11:14:30	120220	12022020	111430	198.40	12.491997	-57.208402	198.54	-0.880	1.310	2.170	198.40	-0.00	2.50	 	 	 	 	 	 	 	 	 	 	 	 	 	 	 	 	 	 	1581506070	7.60	14.08
12/02/2020 11:14:31	120220	12022020	111431	198.84	12.491963	-57.208417	198.95	-0.170	1.110	1.380	198.84	-0.40	1.70	 	 	 	 	 	 	 	 	 	 	 	 	 	 	 	 	 	 	1581506071	7.70	14.26
12/02/2020 11:14:32	120220	12022020	111432	199.01	12.491928	-57.208430	199.06	0.810	0.300	0.640	199.01	-1.30	1.00	 	 	 	 	 	 	 	 	 	 	 	 	 	 	 	 	 	 	1581506072	8.10	15.00
12/02/2020 11:14:33	120220	12022020	111433	198.95	12.491890	-57.208440	198.98	1.580	-0.440	0.110	198.95	-1.90	0.60	 	 	 	 	 	 	 	 	 	 	 	 	 	 	 	 	 	 	1581506073	8.45	15.65
12/02/2020 11:14:34	120220	12022020	111434	198.90	12.491853	-57.208447	198.95	1.620	-0.760	-0.010	198.90	-2.20	0.60	 	 	 	 	 	 	 	 	 	 	 	 	 	 	 	 	 	 	1581506074	8.17	15.13
12/02/2020 11:14:35	120220	12022020	111435	198.92	12.491818	-57.208455	198.97	0.950	-1.020	0.360	198.92	-2.50	1.10	 	 	 	 	 	 	 	 	 	 	 	 	 	 	 	 	 	 	1581506075	7.63	14.13
12/02/2020 11:14:36	120220	12022020	111436	198.85	12.491785	-57.208470	198.89	0.080	-1.350	1.270	198.85	-2.80	2.00	 	 	 	 	 	 	 	 	 	 	 	 	 	 	 	 	 	 	1581506076	7.70	14.26
12/02/2020 11:14:37	120220	12022020	111437	198.56	12.491753	-57.208492	198.61	-0.480	-1.490	2.420	198.56	-2.80	3.20	 	 	 	 	 	 	 	 	 	 	 	 	 	 	 	 	 	 	1581506077	8.25	15.28
12/02/2020 11:14:38	120220	12022020	111438	198.24	12.491720	-57.208513	198.33	-0.750	-1.250	3.290	198.24	-2.50	3.90	 	 	 	 	 	 	 	 	 	 	 	 	 	 	 	 	 	 	1581506078	8.49	15.72
12/02/2020 11:14:39	120220	12022020	111439	198.11	12.491688	-57.208535	198.22	-0.920	-0.680	3.630	198.11	-1.90	4.10	 	 	 	 	 	 	 	 	 	 	 	 	 	 	 	 	 	 	1581506079	8.36	15.48
12/02/2020 11:14:40	120220	12022020	111440	198.10	12.491655	-57.208555	198.22	-1.010	0.020	3.490	198.10	-1.20	3.90	 	 	 	 	 	 	 	 	 	 	 	 	 	 	 	 	 	 	1581506080	8.14	15.08
12/02/2020 11:14:41	120220	12022020	111441	198.16	12.491623	-57.208573	198.28	-0.810	0.630	2.880	198.16	-0.60	3.20	 	 	 	 	 	 	 	 	 	 	 	 	 	 	 	 	 	 	1581506081	7.97	14.76
12/02/2020 11:14:42	120220	12022020	111442	198.31	12.491588	-57.208587	198.41	-0.220	0.940	1.960	198.31	-0.40	2.30	 	 	 	 	 	 	 	 	 	 	 	 	 	 	 	 	 	 	1581506082	7.93	14.69
12/02/2020 11:14:43	120220	12022020	111443	198.38	12.491552	-57.208597	198.44	0.560	0.820	1.130	198.38	-0.60	1.50	 	 	 	 	 	 	 	 	 	 	 	 	 	 	 	 	 	 	1581506083	8.07	14.95
12/02/2020 11:14:44	120220	12022020	111444	198.32	12.491513	-57.208603	198.38	1.110	0.360	0.720	198.32	-1.10	1.20	 	 	 	 	 	 	 	 	 	 	 	 	 	 	 	 	 	 	1581506084	8.37	15.50
12/02/2020 11:14:45	120220	12022020	111445	198.40	12.491475	-57.208612	198.55	1.040	0.020	0.660	198.45	-1.40	1.20	 	 	 	 	 	 	 	 	 	 	 	 	 	 	 	 	 	 	1581506085	8.39	15.54
12/02/2020 11:14:46	120220	12022020	111446	198.79	12.491440	-57.208623	198.90	0.450	-0.130	1.010	198.79	-1.60	1.70	 	 	 	 	 	 	 	 	 	 	 	 	 	 	 	 	 	 	1581506086	7.85	14.54
12/02/2020 11:14:47	120220	12022020	111447	198.99	12.491410	-57.208640	199.07	-0.130	-0.530	1.790	198.99	-2.10	2.50	 	 	 	 	 	 	 	 	 	 	 	 	 	 	 	 	 	 	1581506087	7.52	13.93
12/02/2020 11:14:48	120220	12022020	111448	198.83	12.491378	-57.208660	198.89	-0.200	-1.320	2.600	198.83	-2.90	3.20	 	 	 	 	 	 	 	 	 	 	 	 	 	 	 	 	 	 	1581506088	8.06	14.93
12/02/2020 11:14:49	120220	12022020	111449	198.49	12.491343	-57.208682	198.56	0.090	-1.880	3.030	198.49	-3.30	3.60	 	 	 	 	 	 	 	 	 	 	 	 	 	 	 	 	 	 	1581506089	8.64	16.00
12/02/2020 11:14:50	120220	12022020	111450	198.06	12.491310	-57.208702	198.12	0.290	-1.730	3.120	198.06	-2.90	3.60	 	 	 	 	 	 	 	 	 	 	 	 	 	 	 	 	 	 	1581506090	8.50	15.74
12/02/2020 11:14:51	120220	12022020	111451	197.64	12.491275	-57.208717	197.72	0.120	-0.850	2.930	197.64	-2.00	3.40	 	 	 	 	 	 	 	 	 	 	 	 	 	 	 	 	 	 	1581506091	7.97	14.76
12/02/2020 11:14:52	120220	12022020	111452	197.53	12.491243	-57.208728	197.65	-0.330	0.250	2.370	197.53	-0.90	2.70	 	 	 	 	 	 	 	 	 	 	 	 	 	 	 	 	 	 	1581506092	7.50	13.89
12/02/2020 11:14:53	120220	12022020	111453	197.73	12.491210	-57.208740	197.84	-0.620	0.920	1.650	197.73	-0.40	2.00	 	 	 	 	 	 	 	 	 	 	 	 	 	 	 	 	 	 	1581506093	7.43	13.76
12/02/2020 11:14:54	120220	12022020	111454	198.12	12.491175	-57.208753	198.26	-0.420	1.020	0.860	198.12	-0.40	1.20	 	 	 	 	 	 	 	 	 	 	 	 	 	 	 	 	 	 	1581506094	7.91	14.65
12/02/2020 11:14:55	120220	12022020	111455	198.77	12.491138	-57.208765	198.91	0.100	0.860	0.120	198.77	-0.60	0.50	 	 	 	 	 	 	 	 	 	 	 	 	 	 	 	 	 	 	1581506095	8.30	15.37
12/02/2020 11:14:56	120220	12022020	111456	199.47	12.491102	-57.208773	199.59	0.460	0.440	-0.100	199.47	-1.10	0.50	 	 	 	 	 	 	 	 	 	 	 	 	 	 	 	 	 	 	1581506096	8.23	15.24
12/02/2020 11:14:57	120220	12022020	111457	199.75	12.491065	-57.208785	199.80	0.420	-0.430	0.530	199.75	-2.00	1.30	 	 	 	 	 	 	 	 	 	 	 	 	 	 	 	 	 	 	1581506097	8.15	15.09
12/02/2020 11:14:58	120220	12022020	111458	199.39	12.491030	-57.208803	199.39	0.190	-1.460	1.880	199.39	-3.00	2.80	 	 	 	 	 	 	 	 	 	 	 	 	 	 	 	 	 	 	1581506098	8.46	15.67
12/02/2020 11:14:59	120220	12022020	111459	198.73	12.490995	-57.208825	198.55	0.090	-2.020	3.360	198.56	-3.30	4.20	 	 	 	 	 	 	 	 	 	 	 	 	 	 	 	 	 	 	1581506099	8.86	16.41
12/02/2020 11:15:00	120220	12022020	111500	197.68	12.490962	-57.208848	197.73	0.040	-1.520	4.330	197.68	-2.60	4.90	 	 	 	 	 	 	 	 	 	 	 	 	 	 	 	 	 	 	1581506100	8.60	15.93
12/02/2020 11:15:01	120220	12022020	111501	197.27	12.490932	-57.208867	197.39	-0.200	-0.210	4.430	197.27	-1.30	4.80	1015.80	26.30	26.30	20.80	20.90	156.0	72.0	72.0	412.0	26.5	259.00	8.50	74.00	10.20	10880	8797.0	27.5	27.5	1581506101	7.68	14.22
12/02/2020 11:15:02	120220	12022020	111502	197.27	12.490903	-57.208883	197.40	-0.470	0.780	3.810	197.27	-0.50	4.10	 	 	 	 	 	 	 	 	 	 	 	 	 	 	 	 	 	 	1581506102	6.92	12.82
12/02/2020 11:15:03	120220	12022020	111503	197.28	12.490872	-57.208897	197.38	-0.320	0.590	2.930	197.28	-0.90	3.30	 	 	 	 	 	 	 	 	 	 	 	 	 	 	 	 	 	 	1581506103	7.35	13.61
12/02/2020 11:15:04	120220	12022020	111504	197.28	12.490835	-57.208912	197.40	0.290	-0.030	1.960	197.28	-1.40	2.30	 	 	 	 	 	 	 	 	 	 	 	 	 	 	 	 	 	 	1581506104	8.58	15.89
12/02/2020 11:15:05	120220	12022020	111505	197.77	12.490795	-57.208922	197.95	0.750	0.060	0.920	197.77	-1.20	1.20	 	 	 	 	 	 	 	 	 	 	 	 	 	 	 	 	 	 	1581506105	8.80	16.30
12/02/2020 11:15:06	120220	12022020	111506	198.71	12.490758	-57.208927	198.90	0.560	0.390	0.210	198.71	-1.00	0.70	 	 	 	 	 	 	 	 	 	 	 	 	 	 	 	 	 	 	1581506106	7.79	14.43
12/02/2020 11:15:07	120220	12022020	111507	199.52	12.490727	-57.208935	199.66	-0.050	0.030	0.530	199.52	-1.50	1.30	 	 	 	 	 	 	 	 	 	 	 	 	 	 	 	 	 	 	1581506107	7.30	13.52
12/02/2020 11:15:08	120220	12022020	111508	199.77	12.490693	-57.208952	199.84	-0.430	-1.040	1.730	199.77	-2.70	2.60	 	 	 	 	 	 	 	 	 	 	 	 	 	 	 	 	 	 	1581506108	7.94	14.70
12/02/2020 11:15:09	120220	12022020	111509	199.36	12.490658	-57.208975	199.39	-0.300	-2.000	3.150	199.36	-3.50	4.00	 	 	 	 	 	 	 	 	 	 	 	 	 	 	 	 	 	 	1581506109	8.83	16.35
12/02/2020 11:15:10	120220	12022020	111510	198.40	12.490625	-57.208998	198.41	0.030	-2.110	4.520	198.40	-3.30	5.30	 	 	 	 	 	 	 	 	 	 	 	 	 	 	 	 	 	 	1581506110	8.93	16.54
12/02/2020 11:15:11	120220	12022020	111511	197.44	12.490592	-57.209022	197.27	0.160	-1.190	5.440	197.23	-2.20	6.00	 	 	 	 	 	 	 	 	 	 	 	 	 	 	 	 	 	 	1581506111	8.37	15.50
12/02/2020 11:15:12	120220	12022020	111512	196.37	12.490562	-57.209040	196.47	0.000	0.170	5.510	196.37	-0.90	5.90	 	 	 	 	 	 	 	 	 	 	 	 	 	 	 	 	 	 	1581506112	7.66	14.19
12/02/2020 11:15:13	120220	12022020	111513	196.09	12.490530	-57.209053	196.25	-0.220	1.140	4.800	196.09	-0.10	5.10	 	 	 	 	 	 	 	 	 	 	 	 	 	 	 	 	 	 	1581506113	7.34	13.59
12/02/2020 11:15:14	120220	12022020	111514	196.45	12.490497	-57.209067	196.67	-0.290	1.470	3.500	196.45	0.10	3.70	 	 	 	 	 	 	 	 	 	 	 	 	 	 	 	 	 	 	1581506114	7.63	14.13
12/02/2020 11:15:15	120220	12022020	111515	197.37	12.490462	-57.209077	197.60	-0.190	1.270	1.940	197.37	-0.20	2.20	 	 	 	 	 	 	 	 	 	 	 	 	 	 	 	 	 	 	1581506115	7.89	14.61
12/02/2020 11:15:16	120220	12022020	111516	198.34	12.490425	-57.209085	198.51	0.070	0.520	0.710	198.34	-1.10	1.10	 	 	 	 	 	 	 	 	 	 	 	 	 	 	 	 	 	 	1581506116	7.95	14.72
12/02/2020 11:15:17	120220	12022020	111517	199.03	12.490390	-57.209097	199.17	0.440	-0.500	0.080	199.03	-2.10	0.60	 	 	 	 	 	 	 	 	 	 	 	 	 	 	 	 	 	 	1581506117	8.14	15.08
12/02/2020 11:15:18	120220	12022020	111518	199.51	12.490353	-57.209108	199.62	0.600	-1.150	0.140	199.51	-2.60	0.80	 	 	 	 	 	 	 	 	 	 	 	 	 	 	 	 	 	 	1581506118	8.16	15.11
12/02/2020 11:15:19	120220	12022020	111519	199.70	12.490322	-57.209122	199.77	0.420	-1.250	0.670	199.70	-2.60	1.40	 	 	 	 	 	 	 	 	 	 	 	 	 	 	 	 	 	 	1581506119	7.57	14.02
12/02/2020 11:15:20	120220	12022020	111520	199.45	12.490292	-57.209138	199.47	0.170	-1.270	1.520	199.45	-2.60	2.30	 	 	 	 	 	 	 	 	 	 	 	 	 	 	 	 	 	 	1581506120	7.18	13.30
12/02/2020 11:15:21	120220	12022020	111521	198.80	12.490260	-57.209155	198.81	0.090	-1.460	2.460	198.80	-2.80	3.20	 	 	 	 	 	 	 	 	 	 	 	 	 	 	 	 	 	 	1581506121	7.52	13.93
12/02/2020 11:15:22	120220	12022020	111522	198.07	12.490227	-57.209172	198.10	0.000	-1.480	3.280	198.07	-2.80	3.90	 	 	 	 	 	 	 	 	 	 	 	 	 	 	 	 	 	 	1581506122	8.16	15.11
12/02/2020 11:15:23	120220	12022020	111523	197.43	12.490192	-57.209190	197.50	-0.320	-0.990	3.790	197.43	-2.10	4.30	 	 	 	 	 	 	 	 	 	 	 	 	 	 	 	 	 	 	1581506123	8.37	15.50
12/02/2020 11:15:24	120220	12022020	111524	196.99	12.490158	-57.209208	197.09	-0.760	-0.060	3.790	196.99	-1.20	4.20	 	 	 	 	 	 	 	 	 	 	 	 	 	 	 	 	 	 	1581506124	8.17	15.13
12/02/2020 11:15:25	120220	12022020	111525	196.91	12.490127	-57.209227	197.06	-1.010	1.040	3.250	196.91	-0.10	3.60	 	 	 	 	 	 	 	 	 	 	 	 	 	 	 	 	 	 	1581506125	7.87	14.58
12/02/2020 11:15:26	120220	12022020	111526	197.40	12.490095	-57.209242	197.58	-0.900	1.950	2.130	197.40	0.70	2.40	 	 	 	 	 	 	 	 	 	 	 	 	 	 	 	 	 	 	1581506126	7.52	13.93
12/02/2020 11:15:27	120220	12022020	111527	198.33	12.490062	-57.209252	198.50	-0.540	2.030	0.900	198.33	0.50	1.20	 	 	 	 	 	 	 	 	 	 	 	 	 	 	 	 	 	 	1581506127	7.27	13.46
12/02/2020 11:15:28	120220	12022020	111528	199.11	12.490028	-57.209262	199.21	-0.030	0.990	0.320	199.11	-0.70	0.80	 	 	 	 	 	 	 	 	 	 	 	 	 	 	 	 	 	 	1581506128	7.61	14.09
12/02/2020 11:15:29	120220	12022020	111529	199.18	12.489993	-57.209277	199.21	0.630	-0.650	0.600	199.18	-2.40	1.30	 	 	 	 	 	 	 	 	 	 	 	 	 	 	 	 	 	 	1581506129	8.28	15.33
12/02/2020 11:15:30	120220	12022020	111530	198.83	12.489957	-57.209293	198.85	1.110	-1.660	1.250	198.83	-3.10	1.90	 	 	 	 	 	 	 	 	 	 	 	 	 	 	 	 	 	 	1581506130	8.61	15.95
12/02/2020 11:15:31	120220	12022020	111531	198.51	12.489923	-57.209310	198.56	1.080	-1.470	1.910	198.51	-2.70	2.50	 	 	 	 	 	 	 	 	 	 	 	 	 	 	 	 	 	 	1581506131	7.80	14.45
12/02/2020 11:15:32	120220	12022020	111532	198.18	12.489897	-57.209325	198.22	0.680	-0.890	2.350	198.18	-2.20	2.90	 	 	 	 	 	 	 	 	 	 	 	 	 	 	 	 	 	 	1581506132	6.69	12.39
12/02/2020 11:15:33	120220	12022020	111533	197.67	12.489868	-57.209338	197.69	0.340	-0.740	2.550	197.67	-2.10	3.10	 	 	 	 	 	 	 	 	 	 	 	 	 	 	 	 	 	 	1581506133	6.71	12.43
12/02/2020 11:15:34	120220	12022020	111534	197.11	12.489835	-57.209352	197.15	0.180	-0.890	2.610	197.11	-2.30	3.10	 	 	 	 	 	 	 	 	 	 	 	 	 	 	 	 	 	 	1581506134	7.53	13.95
12/02/2020 11:15:35	120220	12022020	111535	196.83	12.489800	-57.209365	196.90	-0.050	-0.890	2.510	196.80	-2.20	3.00	 	 	 	 	 	 	 	 	 	 	 	 	 	 	 	 	 	 	1581506135	8.07	14.95
12/02/2020 11:15:36	120220	12022020	111536	196.90	12.489765	-57.209378	197.02	-0.580	-0.600	2.360	196.90	-1.90	2.90	 	 	 	 	 	 	 	 	 	 	 	 	 	 	 	 	 	 	1581506136	8.04	14.89
12/02/2020 11:15:37	120220	12022020	111537	197.07	12.489732	-57.209393	197.21	-1.150	-0.210	2.430	197.10	-1.50	3.00	 	 	 	 	 	 	 	 	 	 	 	 	 	 	 	 	 	 	1581506137	7.85	14.54
12/02/2020 11:15:38	120220	12022020	111538	197.19	12.489700	-57.209413	197.30	-1.310	0.120	2.680	197.19	-1.20	3.20	 	 	 	 	 	 	 	 	 	 	 	 	 	 	 	 	 	 	1581506138	8.01	14.83
12/02/2020 11:15:39	120220	12022020	111539	197.30	12.489668	-57.209433	197.42	-0.880	0.410	2.650	197.30	-0.90	3.10	 	 	 	 	 	 	 	 	 	 	 	 	 	 	 	 	 	 	1581506139	8.13	15.06
12/02/2020 11:15:40	120220	12022020	111540	197.43	12.489635	-57.209450	197.53	-0.210	0.700	2.430	197.43	-0.60	2.90	 	 	 	 	 	 	 	 	 	 	 	 	 	 	 	 	 	 	1581506140	7.93	14.69
12/02/2020 11:15:41	120220	12022020	111541	197.49	12.489602	-57.209462	197.59	0.280	0.840	2.100	197.49	-0.50	2.50	 	 	 	 	 	 	 	 	 	 	 	 	 	 	 	 	 	 	1581506141	7.68	14.22
12/02/2020 11:15:42	120220	12022020	111542	197.51	12.489568	-57.209473	197.59	0.530	0.690	1.490	197.51	-0.70	1.90	 	 	 	 	 	 	 	 	 	 	 	 	 	 	 	 	 	 	1581506142	7.54	13.96
12/02/2020 11:15:43	120220	12022020	111543	197.62	12.489533	-57.209482	197.71	0.650	0.330	0.850	197.62	-1.20	1.30	 	 	 	 	 	 	 	 	 	 	 	 	 	 	 	 	 	 	1581506143	7.55	13.98
12/02/2020 11:15:44	120220	12022020	111544	197.74	12.489500	-57.209490	197.83	0.760	-0.310	0.640	197.74	-1.90	1.20	 	 	 	 	 	 	 	 	 	 	 	 	 	 	 	 	 	 	1581506144	7.49	13.87
12/02/2020 11:15:45	120220	12022020	111545	197.65	12.489467	-57.209502	197.60	0.790	-1.270	1.130	197.57	-2.90	1.90	 	 	 	 	 	 	 	 	 	 	 	 	 	 	 	 	 	 	1581506145	7.65	14.17
12/02/2020 11:15:46	120220	12022020	111546	196.93	12.489432	-57.209517	196.93	0.670	-2.100	2.220	196.93	-3.50	3.00	 	 	 	 	 	 	 	 	 	 	 	 	 	 	 	 	 	 	1581506146	8.13	15.06
12/02/2020 11:15:47	120220	12022020	111547	196.30	12.489398	-57.209537	196.23	0.360	-2.110	3.320	196.17	-3.30	4.00	 	 	 	 	 	 	 	 	 	 	 	 	 	 	 	 	 	 	1581506147	8.40	15.56
12/02/2020 11:15:48	120220	12022020	111548	195.81	12.489367	-57.209557	195.94	-0.120	-1.150	3.880	195.81	-2.20	4.40	 	 	 	 	 	 	 	 	 	 	 	 	 	 	 	 	 	 	1581506148	7.93	14.69
12/02/2020 11:15:49	120220	12022020	111549	195.77	12.489338	-57.209573	195.91	-0.580	0.070	3.950	195.77	-1.10	4.40	 	 	 	 	 	 	 	 	 	 	 	 	 	 	 	 	 	 	1581506149	7.14	13.22
12/02/2020 11:15:50	120220	12022020	111550	195.88	12.489308	-57.209588	196.05	-0.850	0.780	3.700	195.88	-0.50	4.10	 	 	 	 	 	 	 	 	 	 	 	 	 	 	 	 	 	 	1581506150	7.09	13.13
12/02/2020 11:15:51	120220	12022020	111551	196.27	12.489275	-57.209602	196.45	-0.910	0.890	3.100	196.27	-0.50	3.50	 	 	 	 	 	 	 	 	 	 	 	 	 	 	 	 	 	 	1581506151	7.69	14.24
12/02/2020 11:15:52	120220	12022020	111552	196.72	12.489240	-57.209617	196.87	-0.660	0.690	2.400	196.72	-0.80	2.80	 	 	 	 	 	 	 	 	 	 	 	 	 	 	 	 	 	 	1581506152	8.04	14.89
12/02/2020 11:15:53	120220	12022020	111553	196.87	12.489205	-57.209628	196.96	-0.050	0.160	1.800	196.87	-1.40	2.20	 	 	 	 	 	 	 	 	 	 	 	 	 	 	 	 	 	 	1581506153	8.05	14.91
12/02/2020 11:15:54	120220	12022020	111554	196.69	12.489168	-57.209640	196.75	0.660	-0.570	1.390	196.69	-2.10	1.90	 	 	 	 	 	 	 	 	 	 	 	 	 	 	 	 	 	 	1581506154	8.29	15.35
12/02/2020 11:15:55	120220	12022020	111555	196.45	12.489130	-57.209648	196.52	0.960	-0.830	1.270	196.45	-2.20	1.80	 	 	 	 	 	 	 	 	 	 	 	 	 	 	 	 	 	 	1581506155	8.38	15.52
12/02/2020 11:15:56	120220	12022020	111556	196.38	12.489095	-57.209658	196.48	0.620	-0.350	1.320	196.38	-1.60	1.90	 	 	 	 	 	 	 	 	 	 	 	 	 	 	 	 	 	 	1581506156	7.68	14.22
12/02/2020 11:15:57	120220	12022020	111557	196.40	12.489065	-57.209668	196.49	-0.060	0.240	1.510	196.40	-1.10	2.10	 	 	 	 	 	 	 	 	 	 	 	 	 	 	 	 	 	 	1581506157	6.81	12.61
12/02/2020 11:15:58	120220	12022020	111558	196.35	12.489037	-57.209682	196.44	-0.490	0.180	1.980	196.35	-1.30	2.70	 	 	 	 	 	 	 	 	 	 	 	 	 	 	 	 	 	 	1581506158	6.84	12.67
12/02/2020 11:15:59	120220	12022020	111559	196.20	12.489005	-57.209700	196.28	-0.320	-0.540	2.610	196.20	-2.10	3.30	 	 	 	 	 	 	 	 	 	 	 	 	 	 	 	 	 	 	1581506159	7.73	14.32
12/02/2020 11:16:00	120220	12022020	111600	195.95	12.488970	-57.209720	196.05	0.230	-1.250	2.950	195.95	-2.70	3.50	 	 	 	 	 	 	 	 	 	 	 	 	 	 	 	 	 	 	1581506160	8.52	15.78
12/02/2020 11:16:01	120220	12022020	111601	195.94	12.488933	-57.209735	196.12	0.550	-1.100	2.760	195.98	-2.30	3.20	1015.80	26.30	26.30	21.00	21.00	144.0	72.0	72.0	411.0	26.5	261.00	9.60	77.00	11.00	10797	9178.0	27.5	27.5	1581506161	8.46	15.67
12/02/2020 11:16:02	120220	12022020	111602	196.36	12.488902	-57.209747	196.52	0.280	-0.180	2.310	196.36	-1.30	2.70	 	 	 	 	 	 	 	 	 	 	 	 	 	 	 	 	 	 	1581506162	7.50	13.89
12/02/2020 11:16:03	120220	12022020	111603	196.72	12.488872	-57.209755	196.82	-0.250	0.510	1.930	196.72	-0.80	2.40	 	 	 	 	 	 	 	 	 	 	 	 	 	 	 	 	 	 	1581506163	6.68	12.37
12/02/2020 11:16:04	120220	12022020	111604	196.67	12.488840	-57.209767	196.72	-0.490	0.250	1.850	196.67	-1.30	2.40	 	 	 	 	 	 	 	 	 	 	 	 	 	 	 	 	 	 	1581506164	7.08	13.11
12/02/2020 11:16:05	120220	12022020	111605	196.41	12.488805	-57.209780	196.47	-0.340	-0.370	2.000	196.41	-1.80	2.60	 	 	 	 	 	 	 	 	 	 	 	 	 	 	 	 	 	 	1581506165	8.20	15.19
12/02/2020 11:16:06	120220	12022020	111606	196.44	12.488768	-57.209795	196.57	-0.210	-0.420	2.020	196.44	-1.70	2.50	 	 	 	 	 	 	 	 	 	 	 	 	 	 	 	 	 	 	1581506166	8.48	15.70
12/02/2020 11:16:07	120220	12022020	111607	196.81	12.488735	-57.209810	196.93	-0.290	0.090	1.850	196.81	-1.20	2.30	 	 	 	 	 	 	 	 	 	 	 	 	 	 	 	 	 	 	1581506167	7.64	14.15
12/02/2020 11:16:08	120220	12022020	111608	196.96	12.488707	-57.209823	197.02	-0.280	0.280	1.680	196.96	-1.20	2.20	 	 	 	 	 	 	 	 	 	 	 	 	 	 	 	 	 	 	1581506168	6.93	12.83
12/02/2020 11:16:09	120220	12022020	111609	196.71	12.488675	-57.209838	196.75	0.180	-0.230	1.560	196.71	-1.80	2.10	 	 	 	 	 	 	 	 	 	 	 	 	 	 	 	 	 	 	1581506169	7.34	13.59
12/02/2020 11:16:10	120220	12022020	111610	196.46	12.488640	-57.209850	196.52	0.800	-0.670	1.380	196.46	-2.10	1.90	 	 	 	 	 	 	 	 	 	 	 	 	 	 	 	 	 	 	1581506170	8.07	14.95
12/02/2020 11:16:11	120220	12022020	111611	196.45	12.488603	-57.209860	196.53	1.010	-0.630	1.220	196.45	-2.00	1.80	 	 	 	 	 	 	 	 	 	 	 	 	 	 	 	 	 	 	1581506171	7.92	14.67
12/02/2020 11:16:12	120220	12022020	111612	196.50	12.488570	-57.209867	196.58	0.570	-0.530	1.370	196.50	-1.90	2.00	 	 	 	 	 	 	 	 	 	 	 	 	 	 	 	 	 	 	1581506172	7.47	13.83
12/02/2020 11:16:13	120220	12022020	111613	196.47	12.488537	-57.209880	196.55	-0.220	-0.540	1.980	196.46	-1.90	2.70	 	 	 	 	 	 	 	 	 	 	 	 	 	 	 	 	 	 	1581506173	7.53	13.95
12/02/2020 11:16:14	120220	12022020	111614	196.41	12.488505	-57.209897	196.52	-0.870	-0.420	2.790	196.41	-1.80	3.50	 	 	 	 	 	 	 	 	 	 	 	 	 	 	 	 	 	 	1581506174	7.85	14.54
12/02/2020 11:16:15	120220	12022020	111615	196.28	12.488473	-57.209917	196.38	-1.010	-0.200	3.400	196.28	-1.50	4.00	 	 	 	 	 	 	 	 	 	 	 	 	 	 	 	 	 	 	1581506175	7.94	14.70
12/02/2020 11:16:16	120220	12022020	111616	196.09	12.488443	-57.209937	196.19	-0.630	-0.060	3.500	196.09	-1.40	4.00	 	 	 	 	 	 	 	 	 	 	 	 	 	 	 	 	 	 	1581506176	7.94	14.70
12/02/2020 11:16:17	120220	12022020	111617	195.89	12.488410	-57.209955	195.99	-0.020	-0.000	3.100	195.89	-1.40	3.50	 	 	 	 	 	 	 	 	 	 	 	 	 	 	 	 	 	 	1581506177	7.88	14.59
12/02/2020 11:16:18	120220	12022020	111618	195.94	12.488375	-57.209967	196.07	0.380	0.140	2.250	195.94	-1.20	2.60	 	 	 	 	 	 	 	 	 	 	 	 	 	 	 	 	 	 	1581506178	7.82	14.48
12/02/2020 11:16:19	120220	12022020	111619	196.27	12.488342	-57.209973	196.41	0.300	0.360	1.410	196.27	-1.00	1.80	 	 	 	 	 	 	 	 	 	 	 	 	 	 	 	 	 	 	1581506179	7.48	13.85
12/02/2020 11:16:20	120220	12022020	111620	196.66	12.488308	-57.209980	196.77	-0.010	0.310	0.810	196.66	-1.20	1.30	 	 	 	 	 	 	 	 	 	 	 	 	 	 	 	 	 	 	1581506180	7.19	13.32
12/02/2020 11:16:21	120220	12022020	111621	196.84	12.488277	-57.209990	196.92	-0.060	-0.290	0.600	196.85	-1.90	1.10	 	 	 	 	 	 	 	 	 	 	 	 	 	 	 	 	 	 	1581506181	7.32	13.56
12/02/2020 11:16:22	120220	12022020	111622	196.75	12.488242	-57.210002	196.81	0.350	-1.080	0.730	196.75	-2.60	1.30	 	 	 	 	 	 	 	 	 	 	 	 	 	 	 	 	 	 	1581506182	7.93	14.69
12/02/2020 11:16:23	120220	12022020	111623	196.61	12.488205	-57.210015	196.68	0.770	-1.320	0.970	196.61	-2.60	1.60	 	 	 	 	 	 	 	 	 	 	 	 	 	 	 	 	 	 	1581506183	8.17	15.13
12/02/2020 11:16:24	120220	12022020	111624	196.49	12.488172	-57.210027	196.54	0.700	-0.950	1.290	196.49	-2.20	1.90	 	 	 	 	 	 	 	 	 	 	 	 	 	 	 	 	 	 	1581506184	7.65	14.17
12/02/2020 11:16:25	120220	12022020	111625	196.15	12.488140	-57.210038	196.18	0.170	-0.530	1.850	196.15	-1.80	2.60	 	 	 	 	 	 	 	 	 	 	 	 	 	 	 	 	 	 	1581506185	7.27	13.46
12/02/2020 11:16:26	120220	12022020	111626	195.67	12.488108	-57.210053	195.73	-0.450	-0.220	2.690	195.67	-1.50	3.40	 	 	 	 	 	 	 	 	 	 	 	 	 	 	 	 	 	 	1581506186	7.58	14.04
12/02/2020 11:16:27	120220	12022020	111627	195.49	12.488077	-57.210073	195.64	-0.900	0.220	3.230	195.49	-1.00	3.80	 	 	 	 	 	 	 	 	 	 	 	 	 	 	 	 	 	 	1581506187	8.02	14.85
12/02/2020 11:16:28	120220	12022020	111628	195.88	12.488045	-57.210092	196.09	-1.020	0.770	2.960	195.88	-0.50	3.30	 	 	 	 	 	 	 	 	 	 	 	 	 	 	 	 	 	 	1581506188	7.82	14.48
12/02/2020 11:16:29	120220	12022020	111629	196.70	12.488013	-57.210107	196.90	-0.790	0.920	2.120	196.70	-0.50	2.40	 	 	 	 	 	 	 	 	 	 	 	 	 	 	 	 	 	 	1581506189	7.35	13.61
12/02/2020 11:16:30	120220	12022020	111630	197.58	12.487980	-57.210117	197.76	-0.290	0.310	1.260	197.58	-1.30	1.60	 	 	 	 	 	 	 	 	 	 	 	 	 	 	 	 	 	 	1581506190	7.50	13.89
12/02/2020 11:16:31	120220	12022020	111631	198.26	12.487945	-57.210128	198.38	0.220	-0.610	0.820	198.26	-2.20	1.30	 	 	 	 	 	 	 	 	 	 	 	 	 	 	 	 	 	 	1581506191	8.03	14.87
12/02/2020 11:16:32	120220	12022020	111632	198.38	12.487908	-57.210140	198.41	0.610	-1.250	0.930	198.38	-2.70	1.60	 	 	 	 	 	 	 	 	 	 	 	 	 	 	 	 	 	 	1581506192	8.08	14.96
12/02/2020 11:16:33	120220	12022020	111633	197.69	12.487875	-57.210153	197.65	0.960	-1.470	1.580	197.69	-2.80	2.30	 	 	 	 	 	 	 	 	 	 	 	 	 	 	 	 	 	 	1581506193	7.77	14.39
12/02/2020 11:16:34	120220	12022020	111634	196.64	12.487842	-57.210167	196.63	1.080	-1.050	2.430	196.64	-2.20	3.10	 	 	 	 	 	 	 	 	 	 	 	 	 	 	 	 	 	 	1581506194	7.67	14.20
12/02/2020 11:16:35	120220	12022020	111635	196.20	12.487810	-57.210178	196.32	0.660	0.110	2.830	196.20	-1.00	3.40	 	 	 	 	 	 	 	 	 	 	 	 	 	 	 	 	 	 	1581506195	7.33	13.58
12/02/2020 11:16:36	120220	12022020	111636	196.69	12.487782	-57.210190	196.88	-0.180	1.080	2.720	196.69	-0.20	3.20	 	 	 	 	 	 	 	 	 	 	 	 	 	 	 	 	 	 	1581506196	6.64	12.30
12/02/2020 11:16:37	120220	12022020	111637	197.33	12.487753	-57.210205	197.46	-0.910	0.800	2.720	197.33	-0.80	3.30	 	 	 	 	 	 	 	 	 	 	 	 	 	 	 	 	 	 	1581506197	6.83	12.65
12/02/2020 11:16:38	120220	12022020	111638	197.35	12.487720	-57.210223	197.43	-0.940	-0.560	3.140	197.35	-2.20	3.70	 	 	 	 	 	 	 	 	 	 	 	 	 	 	 	 	 	 	1581506198	8.21	15.20
12/02/2020 11:16:39	120220	12022020	111639	197.22	12.487682	-57.210247	197.34	-0.480	-1.400	3.280	197.23	-2.70	3.70	 	 	 	 	 	 	 	 	 	 	 	 	 	 	 	 	 	 	1581506199	9.34	17.30
12/02/2020 11:16:40	120220	12022020	111640	197.47	12.487648	-57.210265	197.62	-0.180	-0.770	2.820	197.47	-1.90	3.20	 	 	 	 	 	 	 	 	 	 	 	 	 	 	 	 	 	 	1581506200	8.40	15.56
12/02/2020 11:16:41	120220	12022020	111641	197.84	12.487620	-57.210278	197.95	-0.170	0.220	2.060	197.84	-1.10	2.40	 	 	 	 	 	 	 	 	 	 	 	 	 	 	 	 	 	 	1581506201	6.66	12.33
12/02/2020 11:16:42	120220	12022020	111642	197.96	12.487592	-57.210288	198.02	-0.040	0.290	1.270	197.96	-1.20	1.70	 	 	 	 	 	 	 	 	 	 	 	 	 	 	 	 	 	 	1581506202	6.43	11.91
12/02/2020 11:16:43	120220	12022020	111643	197.82	12.487558	-57.210298	197.84	0.380	-0.280	0.680	197.82	-1.80	1.10	 	 	 	 	 	 	 	 	 	 	 	 	 	 	 	 	 	 	1581506203	7.54	13.96
12/02/2020 11:16:44	120220	12022020	111644	197.57	12.487520	-57.210307	197.59	0.790	-0.550	0.440	197.57	-1.90	1.00	 	 	 	 	 	 	 	 	 	 	 	 	 	 	 	 	 	 	1581506204	8.18	15.15
12/02/2020 11:16:45	120220	12022020	111645	197.33	12.487485	-57.210317	197.35	0.880	-0.310	0.570	197.33	-1.60	1.20	 	 	 	 	 	 	 	 	 	 	 	 	 	 	 	 	 	 	1581506205	7.77	14.39
12/02/2020 11:16:46	120220	12022020	111646	197.02	12.487453	-57.210327	197.04	0.620	-0.030	1.110	197.02	-1.40	1.80	 	 	 	 	 	 	 	 	 	 	 	 	 	 	 	 	 	 	1581506206	7.23	13.39
12/02/2020 11:16:47	120220	12022020	111647	196.70	12.487422	-57.210338	196.76	0.070	-0.110	2.070	196.70	-1.50	2.90	 	 	 	 	 	 	 	 	 	 	 	 	 	 	 	 	 	 	1581506207	7.34	13.59
12/02/2020 11:16:48	120220	12022020	111648	196.56	12.487390	-57.210357	196.66	-0.600	-0.410	3.320	196.56	-1.80	4.10	 	 	 	 	 	 	 	 	 	 	 	 	 	 	 	 	 	 	1581506208	7.88	14.59
12/02/2020 11:16:49	120220	12022020	111649	196.56	12.487358	-57.210380	196.70	-1.050	-0.580	4.280	196.56	-1.90	4.90	 	 	 	 	 	 	 	 	 	 	 	 	 	 	 	 	 	 	1581506209	8.41	15.58
12/02/2020 11:16:50	120220	12022020	111650	196.63	12.487328	-57.210405	196.79	-0.940	-0.440	4.460	196.63	-1.70	4.90	 	 	 	 	 	 	 	 	 	 	 	 	 	 	 	 	 	 	1581506210	8.30	15.37
12/02/2020 11:16:51	120220	12022020	111651	196.74	12.487298	-57.210425	196.92	-0.400	-0.160	3.860	196.77	-1.50	4.20	 	 	 	 	 	 	 	 	 	 	 	 	 	 	 	 	 	 	1581506211	7.64	14.15
12/02/2020 11:16:52	120220	12022020	111652	196.83	12.487268	-57.210438	196.94	0.200	-0.110	2.830	196.83	-1.50	3.10	 	 	 	 	 	 	 	 	 	 	 	 	 	 	 	 	 	 	1581506212	7.23	13.39
12/02/2020 11:16:53	120220	12022020	111653	196.65	12.487235	-57.210448	196.70	0.640	-0.390	1.870	196.65	-1.80	2.20	 	 	 	 	 	 	 	 	 	 	 	 	 	 	 	 	 	 	1581506213	7.49	13.87
12/02/2020 11:16:54	120220	12022020	111654	196.41	12.487198	-57.210455	196.48	0.830	-0.510	1.140	196.41	-1.80	1.60	 	 	 	 	 	 	 	 	 	 	 	 	 	 	 	 	 	 	1581506214	7.93	14.69
12/02/2020 11:16:55	120220	12022020	111655	196.53	12.487163	-57.210462	196.63	0.750	-0.030	0.550	196.53	-1.30	1.00	 	 	 	 	 	 	 	 	 	 	 	 	 	 	 	 	 	 	1581506215	7.73	14.32
12/02/2020 11:16:56	120220	12022020	111656	196.89	12.487130	-57.210467	196.99	0.330	0.390	0.440	196.89	-1.00	1.10	 	 	 	 	 	 	 	 	 	 	 	 	 	 	 	 	 	 	1581506216	7.03	13.02
12/02/2020 11:16:57	120220	12022020	111657	197.09	12.487098	-57.210477	197.16	-0.240	0.060	1.130	197.09	-1.50	1.90	 	 	 	 	 	 	 	 	 	 	 	 	 	 	 	 	 	 	1581506217	7.07	13.09
12/02/2020 11:16:58	120220	12022020	111658	196.99	12.487067	-57.210493	197.05	-0.560	-0.740	2.230	196.99	-2.30	3.00	 	 	 	 	 	 	 	 	 	 	 	 	 	 	 	 	 	 	1581506218	7.97	14.76
12/02/2020 11:16:59	120220	12022020	111659	196.63	12.487033	-57.210517	196.68	-0.440	-1.190	3.290	196.63	-2.60	4.00	 	 	 	 	 	 	 	 	 	 	 	 	 	 	 	 	 	 	1581506219	8.60	15.93
12/02/2020 11:17:00	120220	12022020	111700	196.17	12.487000	-57.210538	196.24	-0.140	-0.910	3.910	196.17	-2.10	4.50	 	 	 	 	 	 	 	 	 	 	 	 	 	 	 	 	 	 	1581506220	8.25	15.28
12/02/2020 11:17:01	120220	12022020	111701	195.89	12.486970	-57.210555	196.00	-0.050	-0.250	3.760	195.89	-1.50	4.20	1015.80	26.30	26.30	20.90	21.00	143.0	72.0	72.0	411.0	26.5	262.00	9.20	77.00	10.50	10936	9064.0	27.5	27.5	1581506221	7.45	13.80
12/02/2020 11:17:02	120220	12022020	111702	195.91	12.486940	-57.210567	196.05	-0.250	0.240	3.020	195.91	-1.10	3.40	 	 	 	 	 	 	 	 	 	 	 	 	 	 	 	 	 	 	1581506222	7.03	13.02
12/02/2020 11:17:03	120220	12022020	111703	196.02	12.486907	-57.210577	196.11	-0.400	0.230	2.310	196.02	-1.20	2.80	 	 	 	 	 	 	 	 	 	 	 	 	 	 	 	 	 	 	1581506223	7.18	13.30
12/02/2020 11:17:04	120220	12022020	111704	195.85	12.486873	-57.210587	195.92	-0.210	-0.150	2.000	195.85	-1.60	2.50	 	 	 	 	 	 	 	 	 	 	 	 	 	 	 	 	 	 	1581506224	7.68	14.22
12/02/2020 11:17:05	120220	12022020	111705	195.72	12.486838	-57.210600	195.82	0.190	-0.300	1.770	195.72	-1.60	2.30	 	 	 	 	 	 	 	 	 	 	 	 	 	 	 	 	 	 	1581506225	8.08	14.96
12/02/2020 11:17:06	120220	12022020	111706	195.84	12.486805	-57.210612	195.97	0.510	0.040	1.390	195.84	-1.20	1.80	 	 	 	 	 	 	 	 	 	 	 	 	 	 	 	 	 	 	1581506226	7.69	14.24
12/02/2020 11:17:07	120220	12022020	111707	196.27	12.486773	-57.210622	196.42	0.610	0.440	0.640	196.27	-0.90	1.10	 	 	 	 	 	 	 	 	 	 	 	 	 	 	 	 	 	 	1581506227	7.06	13.08
12/02/2020 11:17:08	120220	12022020	111708	196.86	12.486742	-57.210627	196.99	0.500	0.220	0.170	196.86	-1.30	0.80	 	 	 	 	 	 	 	 	 	 	 	 	 	 	 	 	 	 	1581506228	6.95	12.87
12/02/2020 11:17:09	120220	12022020	111709	197.18	12.486707	-57.210635	197.26	0.260	-0.690	0.620	197.18	-2.30	1.40	 	 	 	 	 	 	 	 	 	 	 	 	 	 	 	 	 	 	1581506229	7.51	13.91
12/02/2020 11:17:10	120220	12022020	111710	196.96	12.486672	-57.210650	197.01	-0.040	-1.590	1.900	196.96	-3.10	2.80	 	 	 	 	 	 	 	 	 	 	 	 	 	 	 	 	 	 	1581506230	8.17	15.13
12/02/2020 11:17:11	120220	12022020	111711	196.33	12.486638	-57.210670	196.38	-0.380	-1.720	3.510	196.33	-3.00	4.40	 	 	 	 	 	 	 	 	 	 	 	 	 	 	 	 	 	 	1581506231	8.41	15.58
12/02/2020 11:17:12	120220	12022020	111712	195.73	12.486607	-57.210692	195.83	-0.700	-0.970	4.650	195.73	-2.10	5.30	 	 	 	 	 	 	 	 	 	 	 	 	 	 	 	 	 	 	1581506232	8.11	15.02
12/02/2020 11:17:13	120220	12022020	111713	195.51	12.486578	-57.210712	195.68	-0.800	0.030	4.680	195.51	-1.20	5.10	 	 	 	 	 	 	 	 	 	 	 	 	 	 	 	 	 	 	1581506233	7.49	13.87
12/02/2020 11:17:14	120220	12022020	111714	195.79	12.486550	-57.210728	195.99	-0.530	0.660	3.590	195.79	-0.70	3.80	 	 	 	 	 	 	 	 	 	 	 	 	 	 	 	 	 	 	1581506234	7.14	13.22
12/02/2020 11:17:15	120220	12022020	111715	196.23	12.486517	-57.210737	196.52	-0.070	0.730	2.010	196.35	-0.70	2.20	 	 	 	 	 	 	 	 	 	 	 	 	 	 	 	 	 	 	1581506235	7.36	13.63
12/02/2020 11:17:16	120220	12022020	111716	196.85	12.486480	-57.210742	196.96	0.290	0.350	0.700	196.85	-1.20	1.10	 	 	 	 	 	 	 	 	 	 	 	 	 	 	 	 	 	 	1581506236	7.83	14.50
12/02/2020 11:17:17	120220	12022020	111717	197.02	12.486443	-57.210747	197.10	0.440	-0.130	0.090	197.04	-1.60	0.60	 	 	 	 	 	 	 	 	 	 	 	 	 	 	 	 	 	 	1581506237	8.03	14.87
12/02/2020 11:17:18	120220	12022020	111718	197.05	12.486407	-57.210755	197.11	0.380	-0.370	0.040	197.05	-1.80	0.70	 	 	 	 	 	 	 	 	 	 	 	 	 	 	 	 	 	 	1581506238	7.87	14.58
12/02/2020 11:17:19	120220	12022020	111719	197.15	12.486373	-57.210765	197.23	0.210	-0.240	0.290	197.15	-1.60	0.90	 	 	 	 	 	 	 	 	 	 	 	 	 	 	 	 	 	 	1581506239	7.49	13.87
12/02/2020 11:17:20	120220	12022020	111720	197.33	12.486343	-57.210778	197.42	0.120	-0.090	0.740	197.33	-1.50	1.40	 	 	 	 	 	 	 	 	 	 	 	 	 	 	 	 	 	 	1581506240	7.11	13.17
12/02/2020 11:17:21	120220	12022020	111721	197.41	12.486313	-57.210793	197.49	0.140	-0.390	1.440	197.41	-1.90	2.20	 	 	 	 	 	 	 	 	 	 	 	 	 	 	 	 	 	 	1581506241	7.17	13.28
12/02/2020 11:17:22	120220	12022020	111722	197.28	12.486280	-57.210808	197.36	0.100	-0.980	2.320	197.28	-2.50	3.00	 	 	 	 	 	 	 	 	 	 	 	 	 	 	 	 	 	 	1581506242	7.75	14.35
12/02/2020 11:17:23	120220	12022020	111723	197.14	12.486247	-57.210825	197.25	-0.160	-1.210	2.960	197.14	-2.50	3.60	 	 	 	 	 	 	 	 	 	 	 	 	 	 	 	 	 	 	1581506243	8.15	15.09
12/02/2020 11:17:24	120220	12022020	111724	197.13	12.486215	-57.210842	197.25	-0.480	-0.870	3.100	197.13	-2.20	3.60	 	 	 	 	 	 	 	 	 	 	 	 	 	 	 	 	 	 	1581506244	7.84	14.52
12/02/2020 11:17:25	120220	12022020	111725	197.12	12.486183	-57.210858	197.23	-0.520	-0.450	2.820	197.12	-1.80	3.30	 	 	 	 	 	 	 	 	 	 	 	 	 	 	 	 	 	 	1581506245	7.40	13.70
12/02/2020 11:17:26	120220	12022020	111726	197.04	12.486152	-57.210872	197.12	-0.190	-0.170	2.310	197.04	-1.50	2.70	 	 	 	 	 	 	 	 	 	 	 	 	 	 	 	 	 	 	1581506246	7.53	13.95
12/02/2020 11:17:27	120220	12022020	111727	197.06	12.486117	-57.210883	197.17	0.210	0.190	1.680	197.06	-1.10	2.10	 	 	 	 	 	 	 	 	 	 	 	 	 	 	 	 	 	 	1581506247	7.77	14.39
12/02/2020 11:17:28	120220	12022020	111728	197.41	12.486083	-57.210893	197.54	0.330	0.630	1.140	197.41	-0.70	1.60	 	 	 	 	 	 	 	 	 	 	 	 	 	 	 	 	 	 	1581506248	7.60	14.08
12/02/2020 11:17:29	120220	12022020	111729	197.83	12.486050	-57.210902	198.07	0.160	0.750	0.910	197.94	-0.70	1.50	 	 	 	 	 	 	 	 	 	 	 	 	 	 	 	 	 	 	1581506249	7.33	13.58
12/02/2020 11:17:30	120220	12022020	111730	198.35	12.486017	-57.210912	198.45	-0.050	0.240	0.970	198.35	-1.30	1.60	 	 	 	 	 	 	 	 	 	 	 	 	 	 	 	 	 	 	1581506250	7.45	13.80
12/02/2020 11:17:31	120220	12022020	111731	198.48	12.485982	-57.210925	198.56	-0.110	-0.660	1.380	198.48	-2.20	2.10	 	 	 	 	 	 	 	 	 	 	 	 	 	 	 	 	 	 	1581506251	7.96	14.74
12/02/2020 11:17:32	120220	12022020	111732	198.34	12.485947	-57.210940	198.41	-0.120	-1.250	2.110	198.34	-2.70	2.80	 	 	 	 	 	 	 	 	 	 	 	 	 	 	 	 	 	 	1581506252	8.31	15.39
12/02/2020 11:17:33	120220	12022020	111733	198.00	12.485913	-57.210958	198.06	-0.120	-1.120	2.690	198.00	-2.40	3.30	 	 	 	 	 	 	 	 	 	 	 	 	 	 	 	 	 	 	1581506253	8.06	14.93
12/02/2020 11:17:34	120220	12022020	111734	197.77	12.485883	-57.210977	197.87	-0.100	-0.380	2.700	197.77	-1.60	3.20	 	 	 	 	 	 	 	 	 	 	 	 	 	 	 	 	 	 	1581506254	7.49	13.87
12/02/2020 11:17:35	120220	12022020	111735	197.90	12.485855	-57.210990	198.02	0.080	0.400	2.110	197.90	-0.90	2.50	 	 	 	 	 	 	 	 	 	 	 	 	 	 	 	 	 	 	1581506255	6.86	12.70
12/02/2020 11:17:36	120220	12022020	111736	198.16	12.485825	-57.211000	198.25	0.450	0.460	1.280	198.16	-1.00	1.60	 	 	 	 	 	 	 	 	 	 	 	 	 	 	 	 	 	 	1581506256	6.84	12.67
12/02/2020 11:17:37	120220	12022020	111737	198.43	12.485790	-57.211008	198.53	0.700	-0.130	0.630	198.43	-1.70	1.10	 	 	 	 	 	 	 	 	 	 	 	 	 	 	 	 	 	 	1581506257	7.68	14.22
12/02/2020 11:17:38	120220	12022020	111738	198.65	12.485752	-57.211017	198.72	0.500	-0.870	0.770	198.65	-2.40	1.50	 	 	 	 	 	 	 	 	 	 	 	 	 	 	 	 	 	 	1581506258	8.24	15.26
12/02/2020 11:17:39	120220	12022020	111739	198.56	12.485717	-57.211030	198.61	-0.030	-1.300	1.490	198.56	-2.70	2.20	 	 	 	 	 	 	 	 	 	 	 	 	 	 	 	 	 	 	1581506259	8.27	15.32
12/02/2020 11:17:40	120220	12022020	111740	198.29	12.485683	-57.211050	198.36	-0.500	-1.070	2.220	198.29	-2.30	2.90	 	 	 	 	 	 	 	 	 	 	 	 	 	 	 	 	 	 	1581506260	8.16	15.11
12/02/2020 11:17:41	120220	12022020	111741	198.22	12.485653	-57.211068	198.38	-0.720	-0.210	2.440	198.25	-1.40	2.90	 	 	 	 	 	 	 	 	 	 	 	 	 	 	 	 	 	 	1581506261	7.71	14.28
12/02/2020 11:17:42	120220	12022020	111742	198.64	12.485623	-57.211085	198.80	-0.700	0.670	1.980	198.64	-0.60	2.40	 	 	 	 	 	 	 	 	 	 	 	 	 	 	 	 	 	 	1581506262	7.06	13.08
12/02/2020 11:17:43	120220	12022020	111743	199.14	12.485593	-57.211097	199.26	-0.470	0.680	1.320	199.14	-0.90	1.80	 	 	 	 	 	 	 	 	 	 	 	 	 	 	 	 	 	 	1581506263	6.98	12.93
12/02/2020 11:17:44	120220	12022020	111744	199.29	12.485558	-57.211108	199.35	-0.100	-0.130	1.110	199.29	-1.70	1.70	 	 	 	 	 	 	 	 	 	 	 	 	 	 	 	 	 	 	1581506264	7.87	14.58
12/02/2020 11:17:45	120220	12022020	111745	199.14	12.485522	-57.211123	199.20	0.230	-0.710	1.280	199.14	-2.10	1.90	 	 	 	 	 	 	 	 	 	 	 	 	 	 	 	 	 	 	1581506265	8.62	15.96
12/02/2020 11:17:46	120220	12022020	111746	199.02	12.485487	-57.211138	199.09	0.450	-0.350	1.480	199.02	-1.60	2.10	 	 	 	 	 	 	 	 	 	 	 	 	 	 	 	 	 	 	1581506266	8.17	15.13
12/02/2020 11:17:47	120220	12022020	111747	198.96	12.485457	-57.211152	199.02	0.580	0.290	1.500	198.96	-1.10	2.00	 	 	 	 	 	 	 	 	 	 	 	 	 	 	 	 	 	 	1581506267	7.08	13.11
12/02/2020 11:17:48	120220	12022020	111748	198.90	12.485425	-57.211160	198.97	0.570	0.160	1.470	198.90	-1.40	2.10	 	 	 	 	 	 	 	 	 	 	 	 	 	 	 	 	 	 	1581506268	6.94	12.85
12/02/2020 11:17:49	120220	12022020	111749	198.85	12.485390	-57.211172	198.91	0.310	-0.540	1.760	198.85	-2.10	2.40	 	 	 	 	 	 	 	 	 	 	 	 	 	 	 	 	 	 	1581506269	7.75	14.35
12/02/2020 11:17:50	120220	12022020	111750	198.65	12.485355	-57.211187	198.70	-0.080	-1.160	2.200	198.65	-2.60	2.80	 	 	 	 	 	 	 	 	 	 	 	 	 	 	 	 	 	 	1581506270	8.23	15.24
12/02/2020 11:17:51	120220	12022020	111751	198.29	12.485322	-57.211205	198.35	-0.360	-1.220	2.640	198.29	-2.50	3.30	 	 	 	 	 	 	 	 	 	 	 	 	 	 	 	 	 	 	1581506271	8.21	15.20
12/02/2020 11:17:52	120220	12022020	111752	198.15	12.485290	-57.211223	198.27	-0.500	-0.610	2.770	198.15	-1.80	3.30	 	 	 	 	 	 	 	 	 	 	 	 	 	 	 	 	 	 	1581506272	7.87	14.58
12/02/2020 11:17:53	120220	12022020	111753	198.36	12.485262	-57.211242	198.60	-0.510	0.230	2.450	198.44	-1.00	2.90	 	 	 	 	 	 	 	 	 	 	 	 	 	 	 	 	 	 	1581506273	7.30	13.52
12/02/2020 11:17:54	120220	12022020	111754	198.83	12.485232	-57.211257	198.95	-0.340	0.580	1.940	198.83	-0.80	2.40	 	 	 	 	 	 	 	 	 	 	 	 	 	 	 	 	 	 	1581506274	7.01	12.98
12/02/2020 11:17:55	120220	12022020	111755	198.93	12.485200	-57.211268	199.00	0.070	0.140	1.560	198.93	-1.40	2.10	 	 	 	 	 	 	 	 	 	 	 	 	 	 	 	 	 	 	1581506275	7.52	13.93
12/02/2020 11:17:56	120220	12022020	111756	198.80	12.485162	-57.211282	198.88	0.510	-0.510	1.420	198.80	-2.00	2.00	 	 	 	 	 	 	 	 	 	 	 	 	 	 	 	 	 	 	1581506276	8.35	15.46
12/02/2020 11:17:57	120220	12022020	111757	198.85	12.485125	-57.211293	198.96	0.610	-0.510	1.270	198.85	-1.80	1.80	 	 	 	 	 	 	 	 	 	 	 	 	 	 	 	 	 	 	1581506277	8.43	15.61
12/02/2020 11:17:58	120220	12022020	111758	199.15	12.485092	-57.211303	199.27	0.320	0.000	1.010	199.15	-1.30	1.50	 	 	 	 	 	 	 	 	 	 	 	 	 	 	 	 	 	 	1581506278	7.57	14.02
12/02/2020 11:17:59	120220	12022020	111759	199.35	12.485060	-57.211313	199.43	-0.020	0.130	1.060	199.35	-1.30	1.70	 	 	 	 	 	 	 	 	 	 	 	 	 	 	 	 	 	 	1581506279	6.97	12.91
12/02/2020 11:18:00	120220	12022020	111800	199.28	12.485028	-57.211327	199.36	-0.110	-0.320	1.490	199.28	-1.80	2.10	 	 	 	 	 	 	 	 	 	 	 	 	 	 	 	 	 	 	1581506280	7.49	13.87
12/02/2020 11:18:01	120220	12022020	111801	199.24	12.484993	-57.211342	199.35	-0.070	-0.650	1.880	199.24	-2.00	2.50	1015.90	26.20	26.30	20.90	21.00	147.0	72.0	72.0	412.0	26.6	256.00	9.50	74.00	11.20	11189	8778.0	27.6	27.5	1581506281	8.13	15.06
12/02/2020 11:18:02	120220	12022020	111802	199.27	12.484960	-57.211358	199.37	-0.150	-0.590	2.120	199.27	-1.90	2.70	 	 	 	 	 	 	 	 	 	 	 	 	 	 	 	 	 	 	1581506282	7.94	14.70
12/02/2020 11:18:03	120220	12022020	111803	199.21	12.484928	-57.211375	199.30	-0.310	-0.520	2.340	199.21	-1.90	2.90	 	 	 	 	 	 	 	 	 	 	 	 	 	 	 	 	 	 	1581506283	7.60	14.08
12/02/2020 11:18:04	120220	12022020	111804	199.05	12.484897	-57.211393	199.13	-0.290	-0.560	2.400	199.05	-1.90	2.90	 	 	 	 	 	 	 	 	 	 	 	 	 	 	 	 	 	 	1581506284	7.74	14.33
12/02/2020 11:18:05	120220	12022020	111805	198.90	12.484863	-57.211408	198.94	-0.080	-0.520	2.210	198.85	-1.80	2.70	 	 	 	 	 	 	 	 	 	 	 	 	 	 	 	 	 	 	1581506285	7.95	14.72
12/02/2020 11:18:06	120220	12022020	111806	198.78	12.484830	-57.211422	198.89	0.070	-0.260	1.870	198.78	-1.50	2.30	 	 	 	 	 	 	 	 	 	 	 	 	 	 	 	 	 	 	1581506286	7.94	14.70
12/02/2020 11:18:07	120220	12022020	111807	198.95	12.484795	-57.211435	199.16	0.050	0.130	1.420	199.02	-1.20	1.90	 	 	 	 	 	 	 	 	 	 	 	 	 	 	 	 	 	 	1581506287	7.73	14.32
12/02/2020 11:18:08	120220	12022020	111808	199.48	12.484762	-57.211445	199.61	-0.020	0.410	0.860	199.48	-0.90	1.30	 	 	 	 	 	 	 	 	 	 	 	 	 	 	 	 	 	 	1581506288	7.50	13.89
12/02/2020 11:18:09	120220	12022020	111809	199.89	12.484728	-57.211455	199.98	0.060	0.270	0.440	199.89	-1.20	1.00	 	 	 	 	 	 	 	 	 	 	 	 	 	 	 	 	 	 	1581506289	7.54	13.96
12/02/2020 11:18:10	120220	12022020	111810	200.08	12.484693	-57.211467	200.17	0.240	-0.170	0.510	200.08	-1.60	1.10	 	 	 	 	 	 	 	 	 	 	 	 	 	 	 	 	 	 	1581506290	7.92	14.67
12/02/2020 11:18:11	120220	12022020	111811	200.11	12.484658	-57.211480	200.18	0.290	-0.460	1.020	200.11	-1.80	1.70	 	 	 	 	 	 	 	 	 	 	 	 	 	 	 	 	 	 	1581506291	8.11	15.02
12/02/2020 11:18:12	120220	12022020	111812	199.91	12.484625	-57.211497	199.97	0.130	-0.440	1.720	199.91	-1.80	2.40	 	 	 	 	 	 	 	 	 	 	 	 	 	 	 	 	 	 	1581506292	7.87	14.58
12/02/2020 11:18:13	120220	12022020	111813	199.62	12.484595	-57.211513	199.70	-0.080	-0.300	2.310	199.62	-1.70	2.90	 	 	 	 	 	 	 	 	 	 	 	 	 	 	 	 	 	 	1581506293	7.62	14.11
12/02/2020 11:18:14	120220	12022020	111814	199.40	12.484563	-57.211532	199.51	-0.180	-0.300	2.610	199.40	-1.70	3.10	 	 	 	 	 	 	 	 	 	 	 	 	 	 	 	 	 	 	1581506294	7.60	14.08
12/02/2020 11:18:15	120220	12022020	111815	199.39	12.484532	-57.211548	199.52	-0.140	-0.420	2.500	199.39	-1.80	2.90	 	 	 	 	 	 	 	 	 	 	 	 	 	 	 	 	 	 	1581506295	7.79	14.43
12/02/2020 11:18:16	120220	12022020	111816	199.64	12.484498	-57.211565	199.80	-0.010	-0.450	1.930	199.64	-1.80	2.30	 	 	 	 	 	 	 	 	 	 	 	 	 	 	 	 	 	 	1581506296	7.88	14.59
12/02/2020 11:18:17	120220	12022020	111817	200.17	12.484465	-57.211577	200.33	0.150	-0.350	0.990	200.17	-1.70	1.30	 	 	 	 	 	 	 	 	 	 	 	 	 	 	 	 	 	 	1581506297	7.72	14.30
12/02/2020 11:18:18	120220	12022020	111818	200.67	12.484430	-57.211587	200.79	0.250	-0.500	0.230	200.67	-2.00	0.70	 	 	 	 	 	 	 	 	 	 	 	 	 	 	 	 	 	 	1581506298	7.61	14.09
12/02/2020 11:18:19	120220	12022020	111819	200.82	12.484395	-57.211595	200.89	0.190	-0.950	0.200	200.82	-2.40	0.80	 	 	 	 	 	 	 	 	 	 	 	 	 	 	 	 	 	 	1581506299	8.03	14.87
12/02/2020 11:18:20	120220	12022020	111820	200.60	12.484357	-57.211608	200.64	-0.100	-1.160	0.760	200.60	-2.50	1.50	 	 	 	 	 	 	 	 	 	 	 	 	 	 	 	 	 	 	1581506300	8.40	15.56
12/02/2020 11:18:21	120220	12022020	111821	200.16	12.484322	-57.211625	200.21	-0.480	-0.750	1.500	200.16	-1.90	2.20	 	 	 	 	 	 	 	 	 	 	 	 	 	 	 	 	 	 	1581506301	8.30	15.37
12/02/2020 11:18:22	120220	12022020	111822	199.80	12.484290	-57.211643	199.89	-0.700	0.130	2.080	199.80	-1.00	2.70	 	 	 	 	 	 	 	 	 	 	 	 	 	 	 	 	 	 	1581506302	7.89	14.61
12/02/2020 11:18:23	120220	12022020	111823	199.72	12.484260	-57.211660	199.83	-0.620	0.950	2.410	199.72	-0.30	3.00	 	 	 	 	 	 	 	 	 	 	 	 	 	 	 	 	 	 	1581506303	7.53	13.95
12/02/2020 11:18:24	120220	12022020	111824	199.78	12.484228	-57.211678	199.90	-0.260	1.170	2.500	199.78	-0.20	3.00	 	 	 	 	 	 	 	 	 	 	 	 	 	 	 	 	 	 	1581506304	7.58	14.04
12/02/2020 11:18:25	120220	12022020	111825	199.87	12.484195	-57.211695	200.00	0.160	0.810	2.370	199.87	-0.70	2.80	 	 	 	 	 	 	 	 	 	 	 	 	 	 	 	 	 	 	1581506305	8.00	14.82
12/02/2020 11:18:26	120220	12022020	111826	200.13	12.484160	-57.211710	200.29	0.390	0.330	2.130	200.13	-1.10	2.60	 	 	 	 	 	 	 	 	 	 	 	 	 	 	 	 	 	 	1581506306	8.22	15.22
12/02/2020 11:18:27	120220	12022020	111827	200.59	12.484127	-57.211725	200.75	0.430	0.050	1.610	200.59	-1.40	2.00	 	 	 	 	 	 	 	 	 	 	 	 	 	 	 	 	 	 	1581506307	7.85	14.54
12/02/2020 11:18:28	120220	12022020	111828	201.12	12.484095	-57.211738	201.27	0.510	-0.370	0.760	201.12	-1.90	1.10	 	 	 	 	 	 	 	 	 	 	 	 	 	 	 	 	 	 	1581506308	7.27	13.46
12/02/2020 11:18:29	120220	12022020	111829	201.51	12.484062	-57.211747	201.62	0.660	-1.280	0.120	201.51	-2.90	0.60	 	 	 	 	 	 	 	 	 	 	 	 	 	 	 	 	 	 	1581506309	7.44	13.78
12/02/2020 11:18:30	120220	12022020	111830	201.49	12.484027	-57.211758	201.54	0.740	-2.250	0.250	201.49	-3.80	0.90	 	 	 	 	 	 	 	 	 	 	 	 	 	 	 	 	 	 	1581506310	8.05	14.91
12/02/2020 11:18:31	120220	12022020	111831	201.11	12.483990	-57.211773	201.16	0.550	-2.480	0.940	201.11	-3.70	1.70	 	 	 	 	 	 	 	 	 	 	 	 	 	 	 	 	 	 	1581506311	8.38	15.52
12/02/2020 11:18:32	120220	12022020	111832	200.77	12.483957	-57.211788	200.85	-0.000	-1.610	1.760	200.77	-2.70	2.50	 	 	 	 	 	 	 	 	 	 	 	 	 	 	 	 	 	 	1581506312	8.05	14.91
12/02/2020 11:18:33	120220	12022020	111833	200.62	12.483927	-57.211807	200.73	-0.720	-0.270	2.500	200.62	-1.40	3.20	 	 	 	 	 	 	 	 	 	 	 	 	 	 	 	 	 	 	1581506313	7.44	13.78
12/02/2020 11:18:34	120220	12022020	111834	200.49	12.483897	-57.211825	200.61	-1.200	0.590	3.120	200.49	-0.70	3.70	 	 	 	 	 	 	 	 	 	 	 	 	 	 	 	 	 	 	1581506314	7.50	13.89
12/02/2020 11:18:35	120220	12022020	111835	200.30	12.483863	-57.211845	200.43	-1.220	0.860	3.450	200.30	-0.50	4.00	 	 	 	 	 	 	 	 	 	 	 	 	 	 	 	 	 	 	1581506315	8.29	15.35
12/02/2020 11:18:36	120220	12022020	111836	200.32	12.483828	-57.211867	200.49	-0.920	1.080	3.350	200.32	-0.20	3.80	 	 	 	 	 	 	 	 	 	 	 	 	 	 	 	 	 	 	1581506316	8.79	16.28
12/02/2020 11:18:37	120220	12022020	111837	200.79	12.483793	-57.211885	201.02	-0.530	1.440	2.550	200.79	0.10	2.80	 	 	 	 	 	 	 	 	 	 	 	 	 	 	 	 	 	 	1581506317	8.39	15.54
12/02/2020 11:18:38	120220	12022020	111838	201.62	12.483760	-57.211898	201.84	-0.110	1.500	1.300	201.62	0.00	1.50	 	 	 	 	 	 	 	 	 	 	 	 	 	 	 	 	 	 	1581506318	7.63	14.13
12/02/2020 11:18:39	120220	12022020	111839	202.46	12.483727	-57.211908	202.64	0.470	0.830	0.100	202.46	-0.80	0.40	 	 	 	 	 	 	 	 	 	 	 	 	 	 	 	 	 	 	1581506319	7.46	13.82
12/02/2020 11:18:40	120220	12022020	111840	203.06	12.483692	-57.211917	203.16	1.170	-0.400	-0.680	203.06	-2.10	-0.20	 	 	 	 	 	 	 	 	 	 	 	 	 	 	 	 	 	 	1581506320	7.80	14.45
12/02/2020 11:18:41	120220	12022020	111841	203.02	12.483657	-57.211927	203.04	1.660	-1.720	-0.600	203.02	-3.30	0.10	 	 	 	 	 	 	 	 	 	 	 	 	 	 	 	 	 	 	1581506321	8.11	15.02
12/02/2020 11:18:42	120220	12022020	111842	202.47	12.483620	-57.211940	202.50	1.490	-2.450	0.390	202.47	-3.80	1.20	 	 	 	 	 	 	 	 	 	 	 	 	 	 	 	 	 	 	1581506322	8.19	15.17
12/02/2020 11:18:43	120220	12022020	111843	201.94	12.483588	-57.211957	202.02	0.580	-2.160	1.750	201.94	-3.30	2.60	 	 	 	 	 	 	 	 	 	 	 	 	 	 	 	 	 	 	1581506323	7.82	14.48
12/02/2020 11:18:44	120220	12022020	111844	201.59	12.483560	-57.211978	201.70	-0.540	-1.240	2.920	201.59	-2.40	3.70	 	 	 	 	 	 	 	 	 	 	 	 	 	 	 	 	 	 	1581506324	7.37	13.65
12/02/2020 11:18:45	120220	12022020	111845	201.29	12.483533	-57.212000	201.41	-1.200	-0.520	3.750	201.29	-1.80	4.40	 	 	 	 	 	 	 	 	 	 	 	 	 	 	 	 	 	 	1581506325	7.50	13.89
12/02/2020 11:18:46	120220	12022020	111846	201.10	12.483503	-57.212025	201.26	-1.240	0.030	4.060	201.10	-1.20	4.50	 	 	 	 	 	 	 	 	 	 	 	 	 	 	 	 	 	 	1581506326	8.18	15.15
12/02/2020 11:18:47	120220	12022020	111847	201.35	12.483472	-57.212047	201.57	-0.960	0.790	3.580	201.35	-0.40	3.90	 	 	 	 	 	 	 	 	 	 	 	 	 	 	 	 	 	 	1581506327	8.39	15.54
12/02/2020 11:18:48	120220	12022020	111848	202.12	12.483438	-57.212063	202.34	-0.560	1.450	2.370	202.12	0.10	2.60	 	 	 	 	 	 	 	 	 	 	 	 	 	 	 	 	 	 	1581506328	7.79	14.43
12/02/2020 11:18:49	120220	12022020	111849	202.96	12.483405	-57.212075	203.12	-0.030	1.350	0.910	202.96	-0.20	1.10	 	 	 	 	 	 	 	 	 	 	 	 	 	 	 	 	 	 	1581506329	7.50	13.89
12/02/2020 11:18:50	120220	12022020	111850	203.42	12.483370	-57.212083	203.52	0.600	0.400	-0.150	203.42	-1.20	0.30	 	 	 	 	 	 	 	 	 	 	 	 	 	 	 	 	 	 	1581506330	8.04	14.89
12/02/2020 11:18:51	120220	12022020	111851	203.51	12.483330	-57.212093	203.57	1.030	-0.660	-0.410	203.51	-2.20	0.20	 	 	 	 	 	 	 	 	 	 	 	 	 	 	 	 	 	 	1581506331	8.57	15.87
12/02/2020 11:18:52	120220	12022020	111852	203.25	12.483295	-57.212107	203.28	0.990	-1.210	0.150	203.25	-2.60	0.90	 	 	 	 	 	 	 	 	 	 	 	 	 	 	 	 	 	 	1581506332	8.28	15.33
12/02/2020 11:18:53	120220	12022020	111853	202.70	12.483262	-57.212122	202.73	0.540	-1.190	1.290	202.70	-2.50	2.10	 	 	 	 	 	 	 	 	 	 	 	 	 	 	 	 	 	 	1581506333	7.63	14.13
12/02/2020 11:18:54	120220	12022020	111854	201.94	12.483233	-57.212142	201.98	-0.040	-0.970	2.640	201.94	-2.30	3.40	 	 	 	 	 	 	 	 	 	 	 	 	 	 	 	 	 	 	1581506334	7.42	13.74
12/02/2020 11:18:55	120220	12022020	111855	201.41	12.483205	-57.212163	201.54	-0.560	-0.560	3.470	201.41	-1.80	4.00	 	 	 	 	 	 	 	 	 	 	 	 	 	 	 	 	 	 	1581506335	7.75	14.35
12/02/2020 11:18:56	120220	12022020	111856	201.62	12.483177	-57.212187	201.83	-0.840	0.040	3.230	201.62	-1.20	3.60	 	 	 	 	 	 	 	 	 	 	 	 	 	 	 	 	 	 	1581506336	7.78	14.41
12/02/2020 11:18:57	120220	12022020	111857	202.31	12.483148	-57.212207	202.52	-0.700	0.430	2.220	202.31	-0.90	2.40	 	 	 	 	 	 	 	 	 	 	 	 	 	 	 	 	 	 	1581506337	7.36	13.63
12/02/2020 11:18:58	120220	12022020	111858	202.85	12.483118	-57.212222	202.97	-0.050	0.220	1.000	202.85	-1.30	1.30	 	 	 	 	 	 	 	 	 	 	 	 	 	 	 	 	 	 	1581506338	7.39	13.69
12/02/2020 11:18:59	120220	12022020	111859	202.99	12.483082	-57.212233	203.06	0.740	-0.350	0.190	202.99	-1.80	0.60	 	 	 	 	 	 	 	 	 	 	 	 	 	 	 	 	 	 	1581506339	8.06	14.93
12/02/2020 11:19:00	120220	12022020	111900	203.04	12.483045	-57.212243	203.12	0.970	-0.500	0.200	203.04	-1.80	0.80	 	 	 	 	 	 	 	 	 	 	 	 	 	 	 	 	 	 	1581506340	8.41	15.58
12/02/2020 11:19:01	120220	12022020	111901	203.15	12.483010	-57.212257	203.25	0.440	-0.150	0.740	203.15	-1.40	1.40	1015.80	26.30	26.30	21.00	21.10	166.0	72.0	73.0	412.0	26.6	257.00	9.30	77.00	11.00	11603	8493.0	27.6	27.5	1581506341	7.69	14.24
12/02/2020 11:19:02	120220	12022020	111902	203.27	12.482982	-57.212273	203.37	-0.300	0.170	1.390	203.27	-1.20	2.00	 	 	 	 	 	 	 	 	 	 	 	 	 	 	 	 	 	 	1581506342	7.10	13.15
12/02/2020 11:19:03	120220	12022020	111903	203.24	12.482953	-57.212292	203.32	-0.550	-0.030	2.030	203.24	-1.50	2.70	 	 	 	 	 	 	 	 	 	 	 	 	 	 	 	 	 	 	1581506343	7.27	13.46
12/02/2020 11:19:04	120220	12022020	111904	202.94	12.482923	-57.212313	203.01	-0.150	-0.660	2.560	202.94	-2.20	3.20	 	 	 	 	 	 	 	 	 	 	 	 	 	 	 	 	 	 	1581506344	7.92	14.67
12/02/2020 11:19:05	120220	12022020	111905	202.39	12.482890	-57.212335	202.44	0.370	-1.100	2.940	202.39	-2.50	3.50	 	 	 	 	 	 	 	 	 	 	 	 	 	 	 	 	 	 	1581506345	8.38	15.52
12/02/2020 11:19:06	120220	12022020	111906	201.81	12.482857	-57.212353	201.89	0.470	-0.820	2.910	201.81	-2.00	3.30	 	 	 	 	 	 	 	 	 	 	 	 	 	 	 	 	 	 	1581506346	8.19	15.17
12/02/2020 11:19:07	120220	12022020	111907	201.56	12.482827	-57.212370	201.68	0.130	0.050	2.380	201.56	-1.10	2.70	 	 	 	 	 	 	 	 	 	 	 	 	 	 	 	 	 	 	1581506347	7.43	13.76
12/02/2020 11:19:08	120220	12022020	111908	201.80	12.482798	-57.212382	201.94	-0.290	0.770	1.540	201.80	-0.60	1.90	 	 	 	 	 	 	 	 	 	 	 	 	 	 	 	 	 	 	1581506348	6.79	12.58
12/02/2020 11:19:09	120220	12022020	111909	202.18	12.482767	-57.212393	202.37	-0.360	0.550	0.890	202.25	-1.00	1.30	 	 	 	 	 	 	 	 	 	 	 	 	 	 	 	 	 	 	1581506349	6.94	12.85
12/02/2020 11:19:10	120220	12022020	111910	202.38	12.482733	-57.212408	202.43	-0.020	-0.560	0.820	202.38	-2.20	1.40	 	 	 	 	 	 	 	 	 	 	 	 	 	 	 	 	 	 	1581506350	7.88	14.59
12/02/2020 11:19:11	120220	12022020	111911	202.03	12.482697	-57.212427	202.06	0.390	-1.530	1.290	202.03	-3.00	2.00	 	 	 	 	 	 	 	 	 	 	 	 	 	 	 	 	 	 	1581506351	8.81	16.32
12/02/2020 11:19:12	120220	12022020	111912	201.67	12.482662	-57.212445	201.76	0.390	-1.220	1.850	201.67	-2.40	2.40	 	 	 	 	 	 	 	 	 	 	 	 	 	 	 	 	 	 	1581506352	8.64	16.00
12/02/2020 11:19:13	120220	12022020	111913	201.81	12.482632	-57.212462	201.96	-0.110	0.110	2.010	201.81	-1.00	2.50	 	 	 	 	 	 	 	 	 	 	 	 	 	 	 	 	 	 	1581506353	7.32	13.56
12/02/2020 11:19:14	120220	12022020	111914	202.25	12.482605	-57.212477	202.39	-0.590	1.030	1.900	202.25	-0.30	2.40	 	 	 	 	 	 	 	 	 	 	 	 	 	 	 	 	 	 	1581506354	6.33	11.72
12/02/2020 11:19:15	120220	12022020	111915	202.55	12.482578	-57.212493	202.66	-0.460	0.650	1.790	202.55	-1.00	2.30	 	 	 	 	 	 	 	 	 	 	 	 	 	 	 	 	 	 	1581506355	6.86	12.70
12/02/2020 11:19:16	120220	12022020	111916	202.52	12.482543	-57.212510	202.60	0.240	-0.440	1.750	202.52	-2.00	2.30	 	 	 	 	 	 	 	 	 	 	 	 	 	 	 	 	 	 	1581506356	8.17	15.13
12/02/2020 11:19:17	120220	12022020	111917	202.19	12.482507	-57.212527	202.25	0.780	-1.050	1.920	202.19	-2.40	2.50	 	 	 	 	 	 	 	 	 	 	 	 	 	 	 	 	 	 	1581506357	8.75	16.21
12/02/2020 11:19:18	120220	12022020	111918	201.86	12.482472	-57.212542	201.95	0.610	-0.730	2.110	201.86	-1.90	2.70	 	 	 	 	 	 	 	 	 	 	 	 	 	 	 	 	 	 	1581506358	8.13	15.06
12/02/2020 11:19:19	120220	12022020	111919	201.75	12.482442	-57.212558	201.86	-0.000	-0.030	2.170	201.75	-1.30	2.70	 	 	 	 	 	 	 	 	 	 	 	 	 	 	 	 	 	 	1581506359	7.16	13.26
12/02/2020 11:19:20	120220	12022020	111920	201.74	12.482415	-57.212573	201.85	-0.340	0.180	2.040	201.74	-1.30	2.50	 	 	 	 	 	 	 	 	 	 	 	 	 	 	 	 	 	 	1581506360	6.92	12.82
12/02/2020 11:19:21	120220	12022020	111921	201.77	12.482382	-57.212590	201.89	-0.140	-0.300	1.790	201.77	-1.80	2.30	 	 	 	 	 	 	 	 	 	 	 	 	 	 	 	 	 	 	1581506361	7.59	14.06
12/02/2020 11:19:22	120220	12022020	111922	201.99	12.482347	-57.212605	202.13	0.070	-0.810	1.620	201.99	-2.20	2.10	 	 	 	 	 	 	 	 	 	 	 	 	 	 	 	 	 	 	1581506362	8.34	15.45
12/02/2020 11:19:23	120220	12022020	111923	202.30	12.482313	-57.212623	202.52	-0.090	-0.790	1.570	202.38	-2.10	2.10	 	 	 	 	 	 	 	 	 	 	 	 	 	 	 	 	 	 	1581506363	8.27	15.32
12/02/2020 11:19:24	120220	12022020	111924	202.70	12.482283	-57.212642	202.81	-0.400	-0.250	1.580	202.70	-1.50	2.10	 	 	 	 	 	 	 	 	 	 	 	 	 	 	 	 	 	 	1581506364	7.61	14.09
12/02/2020 11:19:25	120220	12022020	111925	202.72	12.482255	-57.212660	202.80	-0.350	0.220	1.690	202.72	-1.10	2.20	 	 	 	 	 	 	 	 	 	 	 	 	 	 	 	 	 	 	1581506365	7.12	13.19
12/02/2020 11:19:26	120220	12022020	111926	202.56	12.482225	-57.212675	202.64	0.100	0.280	1.700	202.56	-1.10	2.20	 	 	 	 	 	 	 	 	 	 	 	 	 	 	 	 	 	 	1581506366	7.30	13.52
12/02/2020 11:19:27	120220	12022020	111927	202.55	12.482192	-57.212690	202.65	0.450	0.080	1.520	202.55	-1.40	2.00	 	 	 	 	 	 	 	 	 	 	 	 	 	 	 	 	 	 	1581506367	7.77	14.39
12/02/2020 11:19:28	120220	12022020	111928	202.61	12.482157	-57.212703	202.71	0.350	-0.250	1.580	202.61	-1.70	2.20	 	 	 	 	 	 	 	 	 	 	 	 	 	 	 	 	 	 	1581506368	7.91	14.65
12/02/2020 11:19:29	120220	12022020	111929	202.45	12.482123	-57.212718	202.53	-0.020	-0.660	2.130	202.45	-2.10	2.80	 	 	 	 	 	 	 	 	 	 	 	 	 	 	 	 	 	 	1581506369	7.96	14.74
12/02/2020 11:19:30	120220	12022020	111930	202.06	12.482090	-57.212738	202.12	-0.260	-0.910	2.790	202.06	-2.30	3.40	 	 	 	 	 	 	 	 	 	 	 	 	 	 	 	 	 	 	1581506370	8.08	14.96
12/02/2020 11:19:31	120220	12022020	111931	201.58	12.482060	-57.212760	201.66	-0.190	-0.830	3.120	201.58	-2.10	3.60	 	 	 	 	 	 	 	 	 	 	 	 	 	 	 	 	 	 	1581506371	8.08	14.96
12/02/2020 11:19:32	120220	12022020	111932	201.25	12.482028	-57.212778	201.35	-0.020	-0.430	2.990	201.25	-1.70	3.40	 	 	 	 	 	 	 	 	 	 	 	 	 	 	 	 	 	 	1581506372	7.81	14.46
12/02/2020 11:19:33	120220	12022020	111933	201.21	12.481997	-57.212795	201.35	-0.030	0.080	2.450	201.21	-1.20	2.80	 	 	 	 	 	 	 	 	 	 	 	 	 	 	 	 	 	 	1581506373	7.50	13.89
12/02/2020 11:19:34	120220	12022020	111934	201.53	12.481965	-57.212808	201.69	-0.270	0.470	1.630	201.53	-0.90	2.00	 	 	 	 	 	 	 	 	 	 	 	 	 	 	 	 	 	 	1581506374	7.32	13.56
12/02/2020 11:19:35	120220	12022020	111935	201.86	12.481935	-57.212822	201.97	-0.410	0.420	1.070	201.86	-1.10	1.50	 	 	 	 	 	 	 	 	 	 	 	 	 	 	 	 	 	 	1581506375	7.30	13.52
12/02/2020 11:19:36	120220	12022020	111936	201.88	12.481902	-57.212837	201.96	-0.150	-0.060	0.910	201.88	-1.60	1.40	 	 	 	 	 	 	 	 	 	 	 	 	 	 	 	 	 	 	1581506376	7.69	14.24
12/02/2020 11:19:37	120220	12022020	111937	201.84	12.481867	-57.212852	201.93	0.350	-0.450	0.840	201.84	-1.90	1.40	 	 	 	 	 	 	 	 	 	 	 	 	 	 	 	 	 	 	1581506377	8.09	14.98
12/02/2020 11:19:38	120220	12022020	111938	201.85	12.481833	-57.212867	201.95	0.640	-0.630	0.930	201.85	-2.10	1.50	 	 	 	 	 	 	 	 	 	 	 	 	 	 	 	 	 	 	1581506378	7.92	14.67
12/02/2020 11:19:39	120220	12022020	111939	201.72	12.481800	-57.212880	201.79	0.550	-0.800	1.410	201.72	-2.20	2.10	 	 	 	 	 	 	 	 	 	 	 	 	 	 	 	 	 	 	1581506379	7.73	14.32
12/02/2020 11:19:40	120220	12022020	111940	201.25	12.481767	-57.212897	201.31	0.150	-0.860	2.240	201.25	-2.20	2.90	 	 	 	 	 	 	 	 	 	 	 	 	 	 	 	 	 	 	1581506380	7.86	14.56
12/02/2020 11:19:41	120220	12022020	111941	200.79	12.481735	-57.212917	200.90	-0.390	-0.500	2.880	200.79	-1.80	3.50	 	 	 	 	 	 	 	 	 	 	 	 	 	 	 	 	 	 	1581506381	7.96	14.74
12/02/2020 11:19:42	120220	12022020	111942	200.75	12.481707	-57.212937	200.91	-0.810	0.200	2.970	200.75	-1.00	3.40	 	 	 	 	 	 	 	 	 	 	 	 	 	 	 	 	 	 	1581506382	7.65	14.17
12/02/2020 11:19:43	120220	12022020	111943	201.11	12.481678	-57.212955	201.29	-0.850	0.710	2.450	201.11	-0.70	2.80	 	 	 	 	 	 	 	 	 	 	 	 	 	 	 	 	 	 	1581506383	7.22	13.37
12/02/2020 11:19:44	120220	12022020	111944	201.60	12.481648	-57.212970	201.75	-0.460	0.470	1.640	201.60	-1.10	2.00	 	 	 	 	 	 	 	 	 	 	 	 	 	 	 	 	 	 	1581506384	7.23	13.39
12/02/2020 11:19:45	120220	12022020	111945	201.71	12.481613	-57.212983	201.77	0.210	-0.520	1.250	201.71	-2.20	1.80	 	 	 	 	 	 	 	 	 	 	 	 	 	 	 	 	 	 	1581506385	7.90	14.63
12/02/2020 11:19:46	120220	12022020	111946	201.24	12.481577	-57.212998	201.26	0.840	-1.450	1.360	201.24	-2.90	1.90	 	 	 	 	 	 	 	 	 	 	 	 	 	 	 	 	 	 	1581506386	8.65	16.02
12/02/2020 11:19:47	120220	12022020	111947	200.74	12.481538	-57.213013	200.71	0.990	-1.440	1.590	200.65	-2.70	2.20	 	 	 	 	 	 	 	 	 	 	 	 	 	 	 	 	 	 	1581506387	8.68	16.08
12/02/2020 11:19:48	120220	12022020	111948	200.52	12.481505	-57.213027	200.65	0.480	-0.350	1.720	200.52	-1.40	2.30	 	 	 	 	 	 	 	 	 	 	 	 	 	 	 	 	 	 	1581506388	7.80	14.45
12/02/2020 11:19:49	120220	12022020	111949	200.79	12.481477	-57.213040	200.94	-0.390	0.930	1.750	200.79	-0.30	2.30	 	 	 	 	 	 	 	 	 	 	 	 	 	 	 	 	 	 	1581506389	6.74	12.48
12/02/2020 11:19:50	120220	12022020	111950	201.08	12.481448	-57.213055	201.22	-0.950	1.290	1.780	201.08	-0.20	2.30	 	 	 	 	 	 	 	 	 	 	 	 	 	 	 	 	 	 	1581506390	6.62	12.26
12/02/2020 11:19:51	120220	12022020	111951	201.38	12.481418	-57.213073	201.52	-0.890	0.680	1.740	201.38	-0.90	2.30	 	 	 	 	 	 	 	 	 	 	 	 	 	 	 	 	 	 	1581506391	7.57	14.02
12/02/2020 11:19:52	120220	12022020	111952	201.57	12.481385	-57.213092	201.69	-0.320	-0.390	1.770	201.57	-2.00	2.30	 	 	 	 	 	 	 	 	 	 	 	 	 	 	 	 	 	 	1581506392	8.34	15.45
12/02/2020 11:19:53	120220	12022020	111953	201.49	12.481350	-57.213112	201.59	0.400	-1.280	1.800	201.49	-2.80	2.30	 	 	 	 	 	 	 	 	 	 	 	 	 	 	 	 	 	 	1581506393	8.58	15.89
12/02/2020 11:19:54	120220	12022020	111954	201.31	12.481315	-57.213128	201.42	0.810	-1.500	1.600	201.31	-2.80	2.10	 	 	 	 	 	 	 	 	 	 	 	 	 	 	 	 	 	 	1581506394	8.36	15.48
12/02/2020 11:19:55	120220	12022020	111955	201.22	12.481280	-57.213142	201.33	0.640	-0.940	1.430	201.22	-2.10	2.00	 	 	 	 	 	 	 	 	 	 	 	 	 	 	 	 	 	 	1581506395	7.75	14.35
12/02/2020 11:19:56	120220	12022020	111956	201.13	12.481250	-57.213152	201.22	0.020	-0.130	1.550	201.13	-1.40	2.10	 	 	 	 	 	 	 	 	 	 	 	 	 	 	 	 	 	 	1581506396	7.08	13.11
12/02/2020 11:19:57	120220	12022020	111957	200.92	12.481220	-57.213167	201.00	-0.560	0.290	1.850	200.92	-1.10	2.50	 	 	 	 	 	 	 	 	 	 	 	 	 	 	 	 	 	 	1581506397	7.05	13.06
12/02/2020 11:19:58	120220	12022020	111958	200.52	12.481188	-57.213185	200.57	-0.620	0.110	2.280	200.52	-1.40	2.90	 	 	 	 	 	 	 	 	 	 	 	 	 	 	 	 	 	 	1581506398	7.66	14.19
12/02/2020 11:19:59	120220	12022020	111959	200.18	12.481155	-57.213205	200.25	-0.180	-0.220	2.370	200.14	-1.60	2.80	 	 	 	 	 	 	 	 	 	 	 	 	 	 	 	 	 	 	1581506399	8.43	15.61
12/02/2020 11:20:00	120220	12022020	112000	200.35	12.481120	-57.213222	200.52	0.190	-0.130	1.950	200.35	-1.50	2.40	 	 	 	 	 	 	 	 	 	 	 	 	 	 	 	 	 	 	1581506400	8.41	15.58
12/02/2020 11:20:01	120220	12022020	112001	200.90	12.481087	-57.213235	201.05	0.140	0.170	1.540	200.90	-1.20	2.00	1015.90	26.30	26.30	21.10	21.10	155.0	73.0	73.0	412.0	26.6	257.00	9.40	78.00	11.00	11496	8960.0	27.5	27.5	1581506401	7.66	14.19
12/02/2020 11:20:02	120220	12022020	112002	201.24	12.481055	-57.213248	201.35	-0.070	0.150	1.410	201.24	-1.30	2.00	 	 	 	 	 	 	 	 	 	 	 	 	 	 	 	 	 	 	1581506402	7.25	13.43
12/02/2020 11:20:03	120220	12022020	112003	201.16	12.481023	-57.213263	201.23	-0.040	-0.300	1.640	201.16	-1.80	2.30	 	 	 	 	 	 	 	 	 	 	 	 	 	 	 	 	 	 	1581506403	7.55	13.98
12/02/2020 11:20:04	120220	12022020	112004	200.78	12.480990	-57.213280	200.85	0.210	-0.740	2.090	200.78	-2.20	2.70	 	 	 	 	 	 	 	 	 	 	 	 	 	 	 	 	 	 	1581506404	8.02	14.85
12/02/2020 11:20:05	120220	12022020	112005	200.43	12.480957	-57.213297	200.52	0.320	-0.770	2.430	200.43	-2.10	3.00	 	 	 	 	 	 	 	 	 	 	 	 	 	 	 	 	 	 	1581506405	8.09	14.98
12/02/2020 11:20:06	120220	12022020	112006	200.34	12.480923	-57.213312	200.47	0.090	-0.360	2.420	200.34	-1.60	2.90	 	 	 	 	 	 	 	 	 	 	 	 	 	 	 	 	 	 	1581506406	7.73	14.32
12/02/2020 11:20:07	120220	12022020	112007	200.52	12.480893	-57.213328	200.67	-0.240	0.140	2.160	200.52	-1.20	2.60	 	 	 	 	 	 	 	 	 	 	 	 	 	 	 	 	 	 	1581506407	7.33	13.58
12/02/2020 11:20:08	120220	12022020	112008	200.75	12.480863	-57.213343	200.89	-0.180	0.300	1.670	200.75	-1.10	2.10	 	 	 	 	 	 	 	 	 	 	 	 	 	 	 	 	 	 	1581506408	7.21	13.35
12/02/2020 11:20:09	120220	12022020	112009	200.90	12.480830	-57.213357	201.02	0.270	-0.090	1.110	200.90	-1.60	1.60	 	 	 	 	 	 	 	 	 	 	 	 	 	 	 	 	 	 	1581506409	7.59	14.06
12/02/2020 11:20:10	120220	12022020	112010	200.92	12.480795	-57.213368	201.03	0.470	-0.710	0.990	200.92	-2.20	1.60	 	 	 	 	 	 	 	 	 	 	 	 	 	 	 	 	 	 	1581506410	8.14	15.08
12/02/2020 11:20:11	120220	12022020	112011	200.83	12.480760	-57.213383	200.87	0.110	-1.110	1.330	200.78	-2.50	2.00	 	 	 	 	 	 	 	 	 	 	 	 	 	 	 	 	 	 	1581506411	8.25	15.28
12/02/2020 11:20:12	120220	12022020	112012	200.42	12.480727	-57.213402	200.49	-0.410	-1.050	1.930	200.42	-2.30	2.60	 	 	 	 	 	 	 	 	 	 	 	 	 	 	 	 	 	 	1581506412	8.05	14.91
12/02/2020 11:20:13	120220	12022020	112013	200.01	12.480697	-57.213423	200.00	-0.510	-0.610	2.500	199.91	-1.90	3.10	 	 	 	 	 	 	 	 	 	 	 	 	 	 	 	 	 	 	1581506413	7.85	14.54
12/02/2020 11:20:14	120220	12022020	112014	199.57	12.480667	-57.213443	199.71	-0.150	-0.020	2.680	199.57	-1.20	3.20	 	 	 	 	 	 	 	 	 	 	 	 	 	 	 	 	 	 	1581506414	7.71	14.28
12/02/2020 11:20:15	120220	12022020	112015	199.74	12.480635	-57.213458	199.92	0.160	0.530	2.390	199.74	-0.80	2.80	 	 	 	 	 	 	 	 	 	 	 	 	 	 	 	 	 	 	1581506415	7.58	14.04
12/02/2020 11:20:16	120220	12022020	112016	200.22	12.480602	-57.213470	200.39	0.130	0.740	2.010	200.22	-0.70	2.50	 	 	 	 	 	 	 	 	 	 	 	 	 	 	 	 	 	 	1581506416	7.49	13.87
12/02/2020 11:20:17	120220	12022020	112017	200.57	12.480568	-57.213483	200.70	-0.040	0.490	1.920	200.57	-1.00	2.50	 	 	 	 	 	 	 	 	 	 	 	 	 	 	 	 	 	 	1581506417	7.61	14.09
12/02/2020 11:20:18	120220	12022020	112018	200.57	12.480535	-57.213498	200.68	0.000	-0.030	2.050	200.57	-1.50	2.60	 	 	 	 	 	 	 	 	 	 	 	 	 	 	 	 	 	 	1581506418	7.89	14.61
12/02/2020 11:20:19	120220	12022020	112019	200.48	12.480502	-57.213515	200.60	0.210	-0.450	2.110	200.48	-1.90	2.60	 	 	 	 	 	 	 	 	 	 	 	 	 	 	 	 	 	 	1581506419	8.04	14.89
12/02/2020 11:20:20	120220	12022020	112020	200.56	12.480468	-57.213530	200.70	0.280	-0.470	2.060	200.56	-1.80	2.50	 	 	 	 	 	 	 	 	 	 	 	 	 	 	 	 	 	 	1581506420	7.75	14.35
12/02/2020 11:20:21	120220	12022020	112021	200.63	12.480438	-57.213545	200.74	0.180	-0.430	1.840	200.63	-1.80	2.30	 	 	 	 	 	 	 	 	 	 	 	 	 	 	 	 	 	 	1581506421	7.17	13.28
12/02/2020 11:20:22	120220	12022020	112022	200.28	12.480408	-57.213558	200.32	0.170	-0.780	1.760	200.28	-2.30	2.30	 	 	 	 	 	 	 	 	 	 	 	 	 	 	 	 	 	 	1581506422	7.13	13.20
12/02/2020 11:20:23	120220	12022020	112023	199.69	12.480375	-57.213573	199.75	0.250	-1.220	1.930	199.69	-2.60	2.50	 	 	 	 	 	 	 	 	 	 	 	 	 	 	 	 	 	 	1581506423	7.77	14.39
12/02/2020 11:20:24	120220	12022020	112024	199.41	12.480342	-57.213590	199.54	0.260	-1.230	1.940	199.41	-2.50	2.40	 	 	 	 	 	 	 	 	 	 	 	 	 	 	 	 	 	 	1581506424	8.10	15.00
12/02/2020 11:20:25	120220	12022020	112025	199.44	12.480307	-57.213605	199.59	0.020	-0.820	1.850	199.44	-2.00	2.40	 	 	 	 	 	 	 	 	 	 	 	 	 	 	 	 	 	 	1581506425	7.85	14.54
12/02/2020 11:20:26	120220	12022020	112026	199.68	12.480275	-57.213618	199.85	-0.430	-0.250	1.860	199.68	-1.50	2.40	 	 	 	 	 	 	 	 	 	 	 	 	 	 	 	 	 	 	1581506426	7.65	14.17
12/02/2020 11:20:27	120220	12022020	112027	200.02	12.480243	-57.213635	200.17	-0.790	0.280	1.960	200.02	-1.00	2.50	 	 	 	 	 	 	 	 	 	 	 	 	 	 	 	 	 	 	1581506427	7.66	14.19
12/02/2020 11:20:28	120220	12022020	112028	200.27	12.480212	-57.213652	200.41	-0.790	0.690	2.030	200.27	-0.60	2.50	 	 	 	 	 	 	 	 	 	 	 	 	 	 	 	 	 	 	1581506428	7.70	14.26
12/02/2020 11:20:29	120220	12022020	112029	200.42	12.480180	-57.213668	200.54	-0.440	0.810	1.940	200.42	-0.60	2.40	 	 	 	 	 	 	 	 	 	 	 	 	 	 	 	 	 	 	1581506429	7.71	14.28
12/02/2020 11:20:30	120220	12022020	112030	200.40	12.480147	-57.213683	200.49	0.030	0.530	1.740	200.40	-0.90	2.20	 	 	 	 	 	 	 	 	 	 	 	 	 	 	 	 	 	 	1581506430	7.79	14.43
12/02/2020 11:20:31	120220	12022020	112031	200.24	12.480112	-57.213697	200.34	0.360	0.090	1.530	200.24	-1.40	2.00	 	 	 	 	 	 	 	 	 	 	 	 	 	 	 	 	 	 	1581506431	8.02	14.85
12/02/2020 11:20:32	120220	12022020	112032	200.22	12.480077	-57.213710	200.32	0.440	-0.130	1.380	200.22	-1.50	1.90	 	 	 	 	 	 	 	 	 	 	 	 	 	 	 	 	 	 	1581506432	7.87	14.58
12/02/2020 11:20:33	120220	12022020	112033	200.13	12.480045	-57.213723	200.22	0.360	-0.270	1.480	200.13	-1.70	2.10	 	 	 	 	 	 	 	 	 	 	 	 	 	 	 	 	 	 	1581506433	7.40	13.70
12/02/2020 11:20:34	120220	12022020	112034	199.88	12.480013	-57.213737	199.96	0.260	-0.510	1.770	199.88	-1.90	2.30	 	 	 	 	 	 	 	 	 	 	 	 	 	 	 	 	 	 	1581506434	7.33	13.58
12/02/2020 11:20:35	120220	12022020	112035	199.85	12.479983	-57.213753	200.01	0.170	-0.640	1.850	199.88	-2.00	2.40	 	 	 	 	 	 	 	 	 	 	 	 	 	 	 	 	 	 	1581506435	7.50	13.89
12/02/2020 11:20:36	120220	12022020	112036	200.06	12.479952	-57.213770	200.19	0.150	-0.810	1.750	200.06	-2.20	2.20	 	 	 	 	 	 	 	 	 	 	 	 	 	 	 	 	 	 	1581506436	7.40	13.70
12/02/2020 11:20:37	120220	12022020	112037	200.05	12.479920	-57.213785	200.14	0.300	-1.200	1.610	200.05	-2.60	2.10	 	 	 	 	 	 	 	 	 	 	 	 	 	 	 	 	 	 	1581506437	7.55	13.98
12/02/2020 11:20:38	120220	12022020	112038	199.90	12.479887	-57.213798	200.01	0.440	-1.420	1.420	199.90	-2.70	1.90	 	 	 	 	 	 	 	 	 	 	 	 	 	 	 	 	 	 	1581506438	8.04	14.89
12/02/2020 11:20:39	120220	12022020	112039	199.84	12.479850	-57.213812	199.95	0.210	-1.070	1.420	199.84	-2.30	2.00	 	 	 	 	 	 	 	 	 	 	 	 	 	 	 	 	 	 	1581506439	8.11	15.02
12/02/2020 11:20:40	120220	12022020	112040	199.64	12.479817	-57.213823	199.73	-0.440	-0.410	1.790	199.64	-1.60	2.40	 	 	 	 	 	 	 	 	 	 	 	 	 	 	 	 	 	 	1581506440	7.71	14.28
12/02/2020 11:20:41	120220	12022020	112041	199.29	12.479785	-57.213840	199.39	-1.110	0.210	2.310	199.29	-1.00	2.90	 	 	 	 	 	 	 	 	 	 	 	 	 	 	 	 	 	 	1581506441	7.67	14.20
12/02/2020 11:20:42	120220	12022020	112042	199.08	12.479753	-57.213860	199.21	-1.340	0.690	2.620	199.08	-0.60	3.10	 	 	 	 	 	 	 	 	 	 	 	 	 	 	 	 	 	 	1581506442	7.98	14.78
12/02/2020 11:20:43	120220	12022020	112043	199.27	12.479722	-57.213880	199.45	-0.990	1.020	2.400	199.27	-0.30	2.80	 	 	 	 	 	 	 	 	 	 	 	 	 	 	 	 	 	 	1581506443	8.06	14.93
12/02/2020 11:20:44	120220	12022020	112044	199.86	12.479688	-57.213898	200.06	-0.280	1.100	1.730	199.86	-0.30	2.10	 	 	 	 	 	 	 	 	 	 	 	 	 	 	 	 	 	 	1581506444	7.85	14.54
12/02/2020 11:20:45	120220	12022020	112045	200.60	12.479657	-57.213910	200.77	0.430	0.930	0.890	200.60	-0.50	1.20	 	 	 	 	 	 	 	 	 	 	 	 	 	 	 	 	 	 	1581506445	7.65	14.17
12/02/2020 11:20:46	120220	12022020	112046	201.24	12.479622	-57.213920	201.39	0.860	0.460	0.230	201.24	-1.10	0.70	 	 	 	 	 	 	 	 	 	 	 	 	 	 	 	 	 	 	1581506446	7.50	13.89
12/02/2020 11:20:47	120220	12022020	112047	201.63	12.479588	-57.213930	201.73	1.000	-0.360	0.110	201.63	-2.00	0.70	 	 	 	 	 	 	 	 	 	 	 	 	 	 	 	 	 	 	1581506447	7.48	13.85
12/02/2020 11:20:48	120220	12022020	112048	201.50	12.479555	-57.213942	201.54	1.000	-1.480	0.750	201.50	-3.10	1.50	 	 	 	 	 	 	 	 	 	 	 	 	 	 	 	 	 	 	1581506448	7.60	14.08
12/02/2020 11:20:49	120220	12022020	112049	200.99	12.479522	-57.213958	200.86	0.890	-2.340	1.900	200.84	-3.80	2.70	 	 	 	 	 	 	 	 	 	 	 	 	 	 	 	 	 	 	1581506449	8.01	14.83
12/02/2020 11:20:50	120220	12022020	112050	199.88	12.479488	-57.213977	199.90	0.540	-2.380	3.060	199.88	-3.60	3.80	 	 	 	 	 	 	 	 	 	 	 	 	 	 	 	 	 	 	1581506450	8.11	15.02
12/02/2020 11:20:51	120220	12022020	112051	199.01	12.479457	-57.213995	199.11	-0.110	-1.610	3.730	199.01	-2.70	4.30	 	 	 	 	 	 	 	 	 	 	 	 	 	 	 	 	 	 	1581506451	7.82	14.48
12/02/2020 11:20:52	120220	12022020	112052	198.58	12.479427	-57.214013	198.73	-0.870	-0.440	3.840	198.58	-1.50	4.30	 	 	 	 	 	 	 	 	 	 	 	 	 	 	 	 	 	 	1581506452	7.53	13.95
12/02/2020 11:20:53	120220	12022020	112053	198.59	12.479398	-57.214033	198.78	-1.390	0.620	3.550	198.59	-0.50	3.90	 	 	 	 	 	 	 	 	 	 	 	 	 	 	 	 	 	 	1581506453	7.51	13.91
12/02/2020 11:20:54	120220	12022020	112054	199.04	12.479367	-57.214052	199.26	-1.390	1.290	2.810	199.04	0.00	3.10	 	 	 	 	 	 	 	 	 	 	 	 	 	 	 	 	 	 	1581506454	7.72	14.30
12/02/2020 11:20:55	120220	12022020	112055	199.88	12.479333	-57.214068	200.12	-0.870	1.510	1.670	199.88	0.10	1.90	 	 	 	 	 	 	 	 	 	 	 	 	 	 	 	 	 	 	1581506455	7.87	14.58
12/02/2020 11:20:56	120220	12022020	112056	201.01	12.479300	-57.214080	201.24	-0.120	1.350	0.420	201.01	-0.10	0.70	 	 	 	 	 	 	 	 	 	 	 	 	 	 	 	 	 	 	1581506456	7.91	14.65
12/02/2020 11:20:57	120220	12022020	112057	202.03	12.479265	-57.214090	202.21	0.530	0.780	-0.510	202.03	-0.80	-0.10	 	 	 	 	 	 	 	 	 	 	 	 	 	 	 	 	 	 	1581506457	7.80	14.45
12/02/2020 11:20:58	120220	12022020	112058	202.53	12.479230	-57.214100	202.62	0.960	-0.210	-0.680	202.53	-1.90	-0.10	 	 	 	 	 	 	 	 	 	 	 	 	 	 	 	 	 	 	1581506458	7.78	14.41
12/02/2020 11:20:59	120220	12022020	112059	202.52	12.479195	-57.214110	202.51	1.180	-1.300	-0.140	202.47	-2.90	0.60	 	 	 	 	 	 	 	 	 	 	 	 	 	 	 	 	 	 	1581506459	7.89	14.61
12/02/2020 11:21:00	120220	12022020	112100	202.05	12.479160	-57.214123	202.07	1.110	-1.910	0.970	202.05	-3.30	1.80	 	 	 	 	 	 	 	 	 	 	 	 	 	 	 	 	 	 	1581506460	7.91	14.65
12/02/2020 11:21:01	120220	12022020	112101	201.57	12.479128	-57.214140	201.49	0.660	-1.790	2.300	201.45	-3.00	3.10	1015.90	26.30	26.30	21.00	21.10	136.0	72.0	72.0	412.0	26.6	257.00	9.60	77.00	11.20	11255	8621.0	27.5	27.5	1581506461	7.59	14.06
12/02/2020 11:21:02	120220	12022020	112102	200.82	12.479100	-57.214158	200.88	-0.120	-1.280	3.480	200.82	-2.50	4.20	 	 	 	 	 	 	 	 	 	 	 	 	 	 	 	 	 	 	1581506462	7.32	13.56
12/02/2020 11:21:03	120220	12022020	112103	200.27	12.479072	-57.214180	200.20	-0.830	-0.840	4.300	200.12	-2.10	4.90	 	 	 	 	 	 	 	 	 	 	 	 	 	 	 	 	 	 	1581506463	7.58	14.04
12/02/2020 11:21:04	120220	12022020	112104	199.57	12.479042	-57.214203	199.70	-1.140	-0.330	4.430	199.57	-1.50	4.80	 	 	 	 	 	 	 	 	 	 	 	 	 	 	 	 	 	 	1581506464	8.20	15.19
12/02/2020 11:21:05	120220	12022020	112105	199.63	12.479010	-57.214225	199.83	-0.980	0.540	3.610	199.63	-0.60	3.80	 	 	 	 	 	 	 	 	 	 	 	 	 	 	 	 	 	 	1581506465	8.17	15.13
12/02/2020 11:21:06	120220	12022020	112106	200.25	12.478978	-57.214240	200.45	-0.530	1.270	2.060	200.25	-0.00	2.20	 	 	 	 	 	 	 	 	 	 	 	 	 	 	 	 	 	 	1581506466	7.44	13.78
12/02/2020 11:21:07	120220	12022020	112107	200.99	12.478947	-57.214252	201.15	0.030	1.200	0.440	200.99	-0.30	0.70	 	 	 	 	 	 	 	 	 	 	 	 	 	 	 	 	 	 	1581506467	7.35	13.61
12/02/2020 11:21:08	120220	12022020	112108	201.62	12.478910	-57.214260	201.75	0.480	0.520	-0.590	201.62	-1.00	-0.20	 	 	 	 	 	 	 	 	 	 	 	 	 	 	 	 	 	 	1581506468	7.98	14.78
12/02/2020 11:21:09	120220	12022020	112109	202.13	12.478873	-57.214268	202.23	0.630	-0.100	-0.790	202.13	-1.60	-0.20	 	 	 	 	 	 	 	 	 	 	 	 	 	 	 	 	 	 	1581506469	8.14	15.08
12/02/2020 11:21:10	120220	12022020	112110	202.35	12.478840	-57.214282	202.40	0.510	-0.490	-0.320	202.35	-1.90	0.40	 	 	 	 	 	 	 	 	 	 	 	 	 	 	 	 	 	 	1581506470	7.60	14.08
12/02/2020 11:21:11	120220	12022020	112111	202.18	12.478810	-57.214297	202.20	0.360	-0.900	0.630	202.18	-2.40	1.40	 	 	 	 	 	 	 	 	 	 	 	 	 	 	 	 	 	 	1581506471	7.28	13.48
12/02/2020 11:21:12	120220	12022020	112112	201.82	12.478780	-57.214315	201.85	0.310	-1.190	1.640	201.82	-2.60	2.30	 	 	 	 	 	 	 	 	 	 	 	 	 	 	 	 	 	 	1581506472	7.51	13.91
12/02/2020 11:21:13	120220	12022020	112113	201.48	12.478750	-57.214333	201.40	0.320	-1.220	2.420	201.38	-2.60	3.00	 	 	 	 	 	 	 	 	 	 	 	 	 	 	 	 	 	 	1581506473	7.57	14.02
12/02/2020 11:21:14	120220	12022020	112114	200.80	12.478720	-57.214352	200.83	0.260	-1.140	2.900	200.80	-2.50	3.50	 	 	 	 	 	 	 	 	 	 	 	 	 	 	 	 	 	 	1581506474	7.55	13.98
12/02/2020 11:21:15	120220	12022020	112115	200.23	12.478687	-57.214367	200.28	0.030	-0.910	3.170	200.23	-2.20	3.70	 	 	 	 	 	 	 	 	 	 	 	 	 	 	 	 	 	 	1581506475	7.75	14.35
12/02/2020 11:21:16	120220	12022020	112116	199.85	12.478653	-57.214383	199.95	-0.310	-0.370	3.300	199.85	-1.60	3.80	 	 	 	 	 	 	 	 	 	 	 	 	 	 	 	 	 	 	1581506476	7.83	14.50
12/02/2020 11:21:17	120220	12022020	112117	199.79	12.478623	-57.214400	199.92	-0.580	0.360	3.200	199.79	-0.90	3.60	 	 	 	 	 	 	 	 	 	 	 	 	 	 	 	 	 	 	1581506477	7.66	14.19
12/02/2020 11:21:18	120220	12022020	112118	199.98	12.478592	-57.214417	200.13	-0.570	0.870	2.710	199.98	-0.40	3.00	 	 	 	 	 	 	 	 	 	 	 	 	 	 	 	 	 	 	1581506478	7.50	13.89
12/02/2020 11:21:19	120220	12022020	112119	200.33	12.478560	-57.214433	200.48	-0.250	0.970	1.940	200.33	-0.40	2.30	 	 	 	 	 	 	 	 	 	 	 	 	 	 	 	 	 	 	1581506479	7.52	13.93
12/02/2020 11:21:20	120220	12022020	112120	200.74	12.478527	-57.214447	200.89	0.120	0.730	1.140	200.74	-0.70	1.50	 	 	 	 	 	 	 	 	 	 	 	 	 	 	 	 	 	 	1581506480	7.67	14.20
12/02/2020 11:21:21	120220	12022020	112121	201.10	12.478493	-57.214458	201.20	0.340	0.160	0.620	201.10	-1.40	1.10	 	 	 	 	 	 	 	 	 	 	 	 	 	 	 	 	 	 	1581506481	7.67	14.20
12/02/2020 11:21:22	120220	12022020	112122	201.14	12.478460	-57.214470	201.20	0.450	-0.700	0.790	201.14	-2.20	1.40	 	 	 	 	 	 	 	 	 	 	 	 	 	 	 	 	 	 	1581506482	7.78	14.41
12/02/2020 11:21:23	120220	12022020	112123	200.88	12.478425	-57.214487	200.93	0.520	-1.290	1.350	200.88	-2.70	2.00	 	 	 	 	 	 	 	 	 	 	 	 	 	 	 	 	 	 	1581506483	7.98	14.78
12/02/2020 11:21:24	120220	12022020	112124	200.64	12.478393	-57.214503	200.73	0.430	-1.150	1.830	200.64	-2.40	2.40	 	 	 	 	 	 	 	 	 	 	 	 	 	 	 	 	 	 	1581506484	7.76	14.37
12/02/2020 11:21:25	120220	12022020	112125	200.68	12.478363	-57.214517	200.82	0.100	-0.500	1.960	200.68	-1.70	2.40	 	 	 	 	 	 	 	 	 	 	 	 	 	 	 	 	 	 	1581506485	7.10	13.15
12/02/2020 11:21:26	120220	12022020	112126	200.89	12.478335	-57.214530	201.01	-0.220	-0.060	1.740	200.89	-1.40	2.20	 	 	 	 	 	 	 	 	 	 	 	 	 	 	 	 	 	 	1581506486	6.73	12.46
12/02/2020 11:21:27	120220	12022020	112127	200.94	12.478305	-57.214545	201.03	-0.210	-0.320	1.600	200.92	-1.80	2.10	 	 	 	 	 	 	 	 	 	 	 	 	 	 	 	 	 	 	1581506487	7.15	13.24
12/02/2020 11:21:28	120220	12022020	112128	200.81	12.478270	-57.214560	200.92	0.100	-0.870	1.720	200.81	-2.30	2.30	 	 	 	 	 	 	 	 	 	 	 	 	 	 	 	 	 	 	1581506488	8.09	14.98
12/02/2020 11:21:29	120220	12022020	112129	200.64	12.478235	-57.214575	200.74	0.230	-0.920	2.090	200.64	-2.20	2.70	 	 	 	 	 	 	 	 	 	 	 	 	 	 	 	 	 	 	1581506489	8.45	15.65
12/02/2020 11:21:30	120220	12022020	112130	200.38	12.478202	-57.214592	200.47	-0.040	-0.390	2.430	200.38	-1.60	3.00	 	 	 	 	 	 	 	 	 	 	 	 	 	 	 	 	 	 	1581506490	7.95	14.72
12/02/2020 11:21:31	120220	12022020	112131	200.10	12.478170	-57.214608	200.22	-0.480	0.230	2.710	200.10	-1.00	3.20	 	 	 	 	 	 	 	 	 	 	 	 	 	 	 	 	 	 	1581506491	7.50	13.89
12/02/2020 11:21:32	120220	12022020	112132	199.96	12.478140	-57.214627	200.10	-0.720	0.650	2.690	199.96	-0.70	3.10	 	 	 	 	 	 	 	 	 	 	 	 	 	 	 	 	 	 	1581506492	7.52	13.93
12/02/2020 11:21:33	120220	12022020	112133	200.03	12.478108	-57.214643	200.19	-0.590	0.830	2.180	200.03	-0.50	2.50	 	 	 	 	 	 	 	 	 	 	 	 	 	 	 	 	 	 	1581506493	7.61	14.09
12/02/2020 11:21:34	120220	12022020	112134	200.35	12.478077	-57.214657	200.51	-0.170	0.690	1.330	200.35	-0.80	1.60	 	 	 	 	 	 	 	 	 	 	 	 	 	 	 	 	 	 	1581506494	7.59	14.06
12/02/2020 11:21:35	120220	12022020	112135	200.84	12.478042	-57.214668	200.98	0.310	0.220	0.470	200.84	-1.30	0.80	 	 	 	 	 	 	 	 	 	 	 	 	 	 	 	 	 	 	1581506495	7.64	14.15
12/02/2020 11:21:36	120220	12022020	112136	201.20	12.478008	-57.214678	201.31	0.690	-0.530	0.100	201.20	-2.10	0.60	 	 	 	 	 	 	 	 	 	 	 	 	 	 	 	 	 	 	1581506496	7.73	14.32
12/02/2020 11:21:37	120220	12022020	112137	201.24	12.477973	-57.214690	201.31	0.810	-1.260	0.450	201.24	-2.70	1.10	 	 	 	 	 	 	 	 	 	 	 	 	 	 	 	 	 	 	1581506497	7.86	14.56
12/02/2020 11:21:38	120220	12022020	112138	200.94	12.477940	-57.214705	200.99	0.610	-1.500	1.200	200.94	-2.80	1.90	 	 	 	 	 	 	 	 	 	 	 	 	 	 	 	 	 	 	1581506498	7.87	14.58
12/02/2020 11:21:39	120220	12022020	112139	200.66	12.477908	-57.214722	200.66	0.200	-1.100	1.920	200.59	-2.30	2.50	 	 	 	 	 	 	 	 	 	 	 	 	 	 	 	 	 	 	1581506499	7.58	14.04
12/02/2020 11:21:40	120220	12022020	112140	200.28	12.477880	-57.214740	200.36	-0.170	-0.510	2.450	200.28	-1.80	3.00	 	 	 	 	 	 	 	 	 	 	 	 	 	 	 	 	 	 	1581506500	7.30	13.52
12/02/2020 11:21:41	120220	12022020	112141	200.09	12.477850	-57.214758	200.22	-0.410	-0.030	2.640	200.09	-1.30	3.10	 	 	 	 	 	 	 	 	 	 	 	 	 	 	 	 	 	 	1581506501	7.41	13.72
12/02/2020 11:21:42	120220	12022020	112142	200.23	12.477818	-57.214773	200.39	-0.620	0.320	2.510	200.23	-1.00	2.90	 	 	 	 	 	 	 	 	 	 	 	 	 	 	 	 	 	 	1581506502	7.62	14.11
12/02/2020 11:21:43	120220	12022020	112143	200.50	12.477787	-57.214790	200.64	-0.740	0.450	2.110	200.50	-0.90	2.50	 	 	 	 	 	 	 	 	 	 	 	 	 	 	 	 	 	 	1581506503	7.64	14.15
12/02/2020 11:21:44	120220	12022020	112144	200.57	12.477753	-57.214807	200.69	-0.480	0.190	1.700	200.57	-1.30	2.10	 	 	 	 	 	 	 	 	 	 	 	 	 	 	 	 	 	 	1581506504	7.73	14.32
12/02/2020 11:21:45	120220	12022020	112145	200.49	12.477720	-57.214822	200.58	0.200	-0.280	1.250	200.49	-1.70	1.60	 	 	 	 	 	 	 	 	 	 	 	 	 	 	 	 	 	 	1581506505	8.03	14.87
12/02/2020 11:21:46	120220	12022020	112146	200.44	12.477683	-57.214832	200.54	0.810	-0.520	0.840	200.44	-1.90	1.30	 	 	 	 	 	 	 	 	 	 	 	 	 	 	 	 	 	 	1581506506	8.17	15.13
12/02/2020 11:21:47	120220	12022020	112147	200.54	12.477648	-57.214842	200.64	0.770	-0.390	0.740	200.54	-1.70	1.30	 	 	 	 	 	 	 	 	 	 	 	 	 	 	 	 	 	 	1581506507	7.89	14.61
12/02/2020 11:21:48	120220	12022020	112148	200.54	12.477615	-57.214853	200.62	0.180	-0.220	1.150	200.54	-1.60	1.80	 	 	 	 	 	 	 	 	 	 	 	 	 	 	 	 	 	 	1581506508	7.41	13.72
12/02/2020 11:21:49	120220	12022020	112149	200.38	12.477585	-57.214870	200.46	-0.420	-0.150	1.880	200.38	-1.50	2.50	 	 	 	 	 	 	 	 	 	 	 	 	 	 	 	 	 	 	1581506509	7.46	13.82
12/02/2020 11:21:50	120220	12022020	112150	200.40	12.477553	-57.214890	200.53	-0.590	-0.070	2.310	200.40	-1.40	2.80	 	 	 	 	 	 	 	 	 	 	 	 	 	 	 	 	 	 	1581506510	7.73	14.32
12/02/2020 11:21:51	120220	12022020	112151	200.65	12.477523	-57.214908	200.89	-0.500	-0.100	2.370	200.72	-1.50	2.80	 	 	 	 	 	 	 	 	 	 	 	 	 	 	 	 	 	 	1581506511	7.64	14.15
12/02/2020 11:21:52	120220	12022020	112152	201.03	12.477493	-57.214927	201.17	-0.320	-0.440	2.310	201.03	-1.90	2.80	 	 	 	 	 	 	 	 	 	 	 	 	 	 	 	 	 	 	1581506512	7.69	14.24
12/02/2020 11:21:53	120220	12022020	112153	201.05	12.477460	-57.214945	201.08	-0.010	-0.890	2.120	201.00	-2.30	2.50	 	 	 	 	 	 	 	 	 	 	 	 	 	 	 	 	 	 	1581506513	7.97	14.76
12/02/2020 11:21:54	120220	12022020	112154	200.68	12.477427	-57.214962	200.75	0.440	-0.960	1.770	200.68	-2.20	2.20	 	 	 	 	 	 	 	 	 	 	 	 	 	 	 	 	 	 	1581506514	8.12	15.04
12/02/2020 11:21:55	120220	12022020	112155	200.51	12.477392	-57.214973	200.61	0.690	-0.380	1.390	200.51	-1.60	1.80	 	 	 	 	 	 	 	 	 	 	 	 	 	 	 	 	 	 	1581506515	7.80	14.45
12/02/2020 11:21:56	120220	12022020	112156	200.60	12.477360	-57.214982	200.71	0.450	0.370	1.150	200.60	-0.90	1.60	 	 	 	 	 	 	 	 	 	 	 	 	 	 	 	 	 	 	1581506516	7.20	13.33
12/02/2020 11:21:57	120220	12022020	112157	200.72	12.477328	-57.214992	200.82	-0.050	0.550	1.080	200.72	-0.90	1.60	 	 	 	 	 	 	 	 	 	 	 	 	 	 	 	 	 	 	1581506517	7.03	13.02
12/02/2020 11:21:58	120220	12022020	112158	200.68	12.477297	-57.215007	200.75	-0.360	0.050	1.280	200.68	-1.50	1.90	 	 	 	 	 	 	 	 	 	 	 	 	 	 	 	 	 	 	1581506518	7.64	14.15
12/02/2020 11:21:59	120220	12022020	112159	200.45	12.477262	-57.215025	200.50	-0.200	-0.560	1.670	200.45	-2.00	2.20	 	 	 	 	 	 	 	 	 	 	 	 	 	 	 	 	 	 	1581506519	8.36	15.48
12/02/2020 11:22:00	120220	12022020	112200	200.13	12.477228	-57.215045	200.20	0.200	-0.740	1.980	200.13	-2.00	2.50	 	 	 	 	 	 	 	 	 	 	 	 	 	 	 	 	 	 	1581506520	8.40	15.56
12/02/2020 11:22:01	120220	12022020	112201	200.13	12.477195	-57.215060	200.26	0.260	-0.330	2.090	200.13	-1.60	2.60	1015.80	26.20	26.30	20.60	20.80	135.0	71.0	71.0	413.0	26.6	254.00	10.40	77.00	12.10	11319	8390.0	27.5	27.5	1581506521	7.91	14.65
12/02/2020 11:22:02	120220	12022020	112202	200.43	12.477163	-57.215075	200.57	-0.200	0.210	2.220	200.43	-1.10	2.70	 	 	 	 	 	 	 	 	 	 	 	 	 	 	 	 	 	 	1581506522	7.21	13.35
12/02/2020 11:22:03	120220	12022020	112203	200.66	12.477135	-57.215092	200.79	-0.700	0.300	2.360	200.66	-1.10	2.80	 	 	 	 	 	 	 	 	 	 	 	 	 	 	 	 	 	 	1581506523	7.01	12.98
12/02/2020 11:22:04	120220	12022020	112204	200.84	12.477107	-57.215110	200.99	-0.720	-0.060	2.160	200.84	-1.50	2.50	 	 	 	 	 	 	 	 	 	 	 	 	 	 	 	 	 	 	1581506524	7.51	13.91
12/02/2020 11:22:05	120220	12022020	112205	201.01	12.477073	-57.215128	201.18	-0.200	-0.580	1.690	201.04	-2.10	2.10	 	 	 	 	 	 	 	 	 	 	 	 	 	 	 	 	 	 	1581506525	7.81	14.46
12/02/2020 11:22:06	120220	12022020	112206	201.00	12.477040	-57.215143	201.09	0.480	-1.180	1.320	201.00	-2.70	1.80	 	 	 	 	 	 	 	 	 	 	 	 	 	 	 	 	 	 	1581506526	7.95	14.72
12/02/2020 11:22:07	120220	12022020	112207	200.67	12.477005	-57.215157	200.73	0.870	-1.520	1.190	200.67	-2.90	1.70	 	 	 	 	 	 	 	 	 	 	 	 	 	 	 	 	 	 	1581506527	8.16	15.11
12/02/2020 11:22:08	120220	12022020	112208	200.20	12.476968	-57.215170	200.25	0.750	-1.220	1.290	200.20	-2.40	1.80	 	 	 	 	 	 	 	 	 	 	 	 	 	 	 	 	 	 	1581506528	8.12	15.04
12/02/2020 11:22:09	120220	12022020	112209	199.68	12.476935	-57.215182	199.75	0.260	-0.350	1.570	199.68	-1.50	2.10	 	 	 	 	 	 	 	 	 	 	 	 	 	 	 	 	 	 	1581506529	7.75	14.35
12/02/2020 11:22:10	120220	12022020	112210	199.58	12.476903	-57.215193	199.72	-0.390	0.750	1.810	199.58	-0.40	2.40	 	 	 	 	 	 	 	 	 	 	 	 	 	 	 	 	 	 	1581506530	7.43	13.76
12/02/2020 11:22:11	120220	12022020	112211	199.99	12.476872	-57.215208	200.17	-0.930	1.420	2.070	199.99	0.10	2.60	 	 	 	 	 	 	 	 	 	 	 	 	 	 	 	 	 	 	1581506531	7.25	13.43
12/02/2020 11:22:12	120220	12022020	112212	200.58	12.476842	-57.215227	200.77	-1.060	1.350	2.240	200.58	-0.10	2.70	 	 	 	 	 	 	 	 	 	 	 	 	 	 	 	 	 	 	1581506532	7.57	14.02
12/02/2020 11:22:13	120220	12022020	112213	201.15	12.476810	-57.215247	201.34	-0.640	0.680	2.100	201.15	-0.90	2.50	 	 	 	 	 	 	 	 	 	 	 	 	 	 	 	 	 	 	1581506533	8.03	14.87
12/02/2020 11:22:14	120220	12022020	112214	201.61	12.476777	-57.215265	201.75	0.050	-0.160	1.740	201.61	-1.70	2.20	 	 	 	 	 	 	 	 	 	 	 	 	 	 	 	 	 	 	1581506534	8.16	15.11
12/02/2020 11:22:15	120220	12022020	112215	201.57	12.476743	-57.215280	201.64	0.630	-0.940	1.610	201.57	-2.50	2.10	 	 	 	 	 	 	 	 	 	 	 	 	 	 	 	 	 	 	1581506535	7.94	14.70
12/02/2020 11:22:16	120220	12022020	112216	201.00	12.476710	-57.215295	201.03	0.860	-1.470	1.840	201.00	-2.90	2.40	 	 	 	 	 	 	 	 	 	 	 	 	 	 	 	 	 	 	1581506536	7.82	14.48
12/02/2020 11:22:17	120220	12022020	112217	200.48	12.476677	-57.215310	200.43	0.730	-1.500	1.990	200.38	-2.80	2.50	 	 	 	 	 	 	 	 	 	 	 	 	 	 	 	 	 	 	1581506537	7.72	14.30
12/02/2020 11:22:18	120220	12022020	112218	199.96	12.476645	-57.215325	200.06	0.420	-1.110	1.820	199.96	-2.30	2.20	 	 	 	 	 	 	 	 	 	 	 	 	 	 	 	 	 	 	1581506538	7.48	13.85
12/02/2020 11:22:19	120220	12022020	112219	199.90	12.476613	-57.215338	200.04	0.060	-0.510	1.400	199.90	-1.70	1.80	 	 	 	 	 	 	 	 	 	 	 	 	 	 	 	 	 	 	1581506539	7.36	13.63
12/02/2020 11:22:20	120220	12022020	112220	200.20	12.476582	-57.215352	200.35	-0.330	0.020	0.980	200.20	-1.30	1.40	 	 	 	 	 	 	 	 	 	 	 	 	 	 	 	 	 	 	1581506540	7.37	13.65
12/02/2020 11:22:21	120220	12022020	112221	200.61	12.476550	-57.215365	200.74	-0.640	0.210	0.750	200.61	-1.20	1.20	 	 	 	 	 	 	 	 	 	 	 	 	 	 	 	 	 	 	1581506541	7.57	14.02
12/02/2020 11:22:22	120220	12022020	112222	201.00	12.476515	-57.215380	201.12	-0.710	0.220	0.770	201.00	-1.10	1.30	 	 	 	 	 	 	 	 	 	 	 	 	 	 	 	 	 	 	1581506542	7.98	14.78
12/02/2020 11:22:23	120220	12022020	112223	201.33	12.476482	-57.215397	201.44	-0.460	0.230	1.020	201.33	-1.20	1.60	 	 	 	 	 	 	 	 	 	 	 	 	 	 	 	 	 	 	1581506543	8.08	14.96
12/02/2020 11:22:24	120220	12022020	112224	201.41	12.476448	-57.215413	201.50	-0.020	0.090	1.410	201.41	-1.30	2.00	 	 	 	 	 	 	 	 	 	 	 	 	 	 	 	 	 	 	1581506544	7.98	14.78
12/02/2020 11:22:25	120220	12022020	112225	201.28	12.476415	-57.215430	201.36	0.330	-0.070	1.730	201.28	-1.40	2.30	 	 	 	 	 	 	 	 	 	 	 	 	 	 	 	 	 	 	1581506545	8.03	14.87
12/02/2020 11:22:26	120220	12022020	112226	201.07	12.476382	-57.215443	201.16	0.300	-0.000	1.910	201.07	-1.30	2.40	 	 	 	 	 	 	 	 	 	 	 	 	 	 	 	 	 	 	1581506546	7.88	14.59
12/02/2020 11:22:27	120220	12022020	112227	200.89	12.476348	-57.215458	200.98	-0.010	0.060	1.930	200.89	-1.40	2.40	 	 	 	 	 	 	 	 	 	 	 	 	 	 	 	 	 	 	1581506547	7.44	13.78
12/02/2020 11:22:28	120220	12022020	112228	200.51	12.476318	-57.215472	200.55	-0.250	-0.390	2.160	200.51	-1.90	2.80	 	 	 	 	 	 	 	 	 	 	 	 	 	 	 	 	 	 	1581506548	7.37	13.65
12/02/2020 11:22:29	120220	12022020	112229	199.92	12.476285	-57.215490	199.83	-0.240	-1.160	2.750	199.78	-2.60	3.30	 	 	 	 	 	 	 	 	 	 	 	 	 	 	 	 	 	 	1581506549	8.09	14.98
12/02/2020 11:22:30	120220	12022020	112230	199.30	12.476250	-57.215512	199.44	-0.100	-1.230	2.970	199.30	-2.40	3.40	 	 	 	 	 	 	 	 	 	 	 	 	 	 	 	 	 	 	1581506550	8.64	16.00
12/02/2020 11:22:31	120220	12022020	112231	199.46	12.476220	-57.215532	199.64	0.010	-0.320	2.560	199.46	-1.40	2.90	 	 	 	 	 	 	 	 	 	 	 	 	 	 	 	 	 	 	1581506551	7.88	14.59
12/02/2020 11:22:32	120220	12022020	112232	199.94	12.476193	-57.215548	200.11	0.250	0.510	1.810	199.94	-0.80	2.10	 	 	 	 	 	 	 	 	 	 	 	 	 	 	 	 	 	 	1581506552	6.75	12.50
12/02/2020 11:22:33	120220	12022020	112233	200.36	12.476162	-57.215560	200.51	0.710	0.360	0.940	200.36	-1.20	1.30	 	 	 	 	 	 	 	 	 	 	 	 	 	 	 	 	 	 	1581506553	6.92	12.82
12/02/2020 11:22:34	120220	12022020	112234	200.69	12.476125	-57.215568	200.83	1.010	-0.320	0.340	200.69	-1.80	0.80	 	 	 	 	 	 	 	 	 	 	 	 	 	 	 	 	 	 	1581506554	8.08	14.96
12/02/2020 11:22:35	120220	12022020	112235	200.99	12.476087	-57.215575	201.12	0.670	-0.760	0.380	200.99	-2.20	1.00	 	 	 	 	 	 	 	 	 	 	 	 	 	 	 	 	 	 	1581506555	8.51	15.76
12/02/2020 11:22:36	120220	12022020	112236	201.08	12.476052	-57.215587	201.18	-0.250	-0.910	1.250	201.08	-2.30	2.00	 	 	 	 	 	 	 	 	 	 	 	 	 	 	 	 	 	 	1581506556	8.02	14.85
12/02/2020 11:22:37	120220	12022020	112237	200.69	12.476020	-57.215605	200.75	-1.120	-1.010	2.680	200.69	-2.40	3.50	 	 	 	 	 	 	 	 	 	 	 	 	 	 	 	 	 	 	1581506557	7.86	14.56
12/02/2020 11:22:38	120220	12022020	112238	199.95	12.475990	-57.215632	200.02	-1.300	-0.900	3.890	199.95	-2.10	4.50	 	 	 	 	 	 	 	 	 	 	 	 	 	 	 	 	 	 	1581506558	8.49	15.72
12/02/2020 11:22:39	120220	12022020	112239	199.55	12.475960	-57.215658	199.71	-0.770	-0.100	3.890	199.55	-1.20	4.20	 	 	 	 	 	 	 	 	 	 	 	 	 	 	 	 	 	 	1581506559	8.54	15.82
12/02/2020 11:22:40	120220	12022020	112240	199.80	12.475932	-57.215677	199.99	-0.010	1.000	2.760	199.80	-0.20	2.90	 	 	 	 	 	 	 	 	 	 	 	 	 	 	 	 	 	 	1581506560	7.33	13.58
12/02/2020 11:22:41	120220	12022020	112241	200.11	12.475902	-57.215685	200.26	0.580	1.080	1.350	200.14	-0.50	1.60	 	 	 	 	 	 	 	 	 	 	 	 	 	 	 	 	 	 	1581506561	6.70	12.41
12/02/2020 11:22:42	120220	12022020	112242	200.01	12.475865	-57.215692	200.06	0.890	-0.160	0.590	200.01	-1.90	1.00	 	 	 	 	 	 	 	 	 	 	 	 	 	 	 	 	 	 	1581506562	7.82	14.48
12/02/2020 11:22:43	120220	12022020	112243	199.64	12.475825	-57.215703	199.60	0.810	-1.430	0.720	199.55	-2.90	1.30	 	 	 	 	 	 	 	 	 	 	 	 	 	 	 	 	 	 	1581506563	8.99	16.65
12/02/2020 11:22:44	120220	12022020	112244	199.23	12.475787	-57.215718	199.34	0.400	-1.380	1.200	199.23	-2.50	1.80	 	 	 	 	 	 	 	 	 	 	 	 	 	 	 	 	 	 	1581506564	8.78	16.26
12/02/2020 11:22:45	120220	12022020	112245	199.46	12.475757	-57.215735	199.65	-0.110	-0.100	1.360	199.46	-1.10	1.80	 	 	 	 	 	 	 	 	 	 	 	 	 	 	 	 	 	 	1581506565	7.45	13.80
12/02/2020 11:22:46	120220	12022020	112246	200.29	12.475732	-57.215750	200.51	-0.500	0.960	1.090	200.29	-0.40	1.50	 	 	 	 	 	 	 	 	 	 	 	 	 	 	 	 	 	 	1581506566	6.25	11.58
12/02/2020 11:22:47	120220	12022020	112247	201.10	12.475703	-57.215763	201.27	-0.500	0.590	0.920	201.10	-1.00	1.40	 	 	 	 	 	 	 	 	 	 	 	 	 	 	 	 	 	 	1581506567	6.53	12.09
12/02/2020 11:22:48	120220	12022020	112248	201.42	12.475670	-57.215780	201.54	-0.100	-0.770	1.190	201.42	-2.40	1.80	 	 	 	 	 	 	 	 	 	 	 	 	 	 	 	 	 	 	1581506568	8.01	14.83
12/02/2020 11:22:49	120220	12022020	112249	201.20	12.475633	-57.215798	201.29	0.280	-1.720	1.740	201.20	-3.10	2.30	 	 	 	 	 	 	 	 	 	 	 	 	 	 	 	 	 	 	1581506569	8.96	16.59
12/02/2020 11:22:50	120220	12022020	112250	200.75	12.475598	-57.215817	200.84	0.310	-1.470	2.210	200.75	-2.60	2.80	 	 	 	 	 	 	 	 	 	 	 	 	 	 	 	 	 	 	1581506570	8.53	15.80
12/02/2020 11:22:51	120220	12022020	112251	200.31	12.475567	-57.215833	200.41	0.090	-0.440	2.410	200.31	-1.50	2.90	 	 	 	 	 	 	 	 	 	 	 	 	 	 	 	 	 	 	1581506571	7.44	13.78
12/02/2020 11:22:52	120220	12022020	112252	199.99	12.475538	-57.215847	200.11	-0.060	0.440	2.250	199.99	-0.80	2.70	 	 	 	 	 	 	 	 	 	 	 	 	 	 	 	 	 	 	1581506572	6.90	12.78
12/02/2020 11:22:53	120220	12022020	112253	199.93	12.475507	-57.215860	200.08	-0.090	0.790	1.910	199.93	-0.60	2.30	 	 	 	 	 	 	 	 	 	 	 	 	 	 	 	 	 	 	1581506573	7.26	13.45
12/02/2020 11:22:54	120220	12022020	112254	200.18	12.475472	-57.215872	200.36	-0.160	0.700	1.610	200.18	-0.70	2.00	 	 	 	 	 	 	 	 	 	 	 	 	 	 	 	 	 	 	1581506574	7.70	14.26
12/02/2020 11:22:55	120220	12022020	112255	200.58	12.475438	-57.215885	200.76	-0.240	0.280	1.450	200.58	-1.20	1.90	 	 	 	 	 	 	 	 	 	 	 	 	 	 	 	 	 	 	1581506575	7.89	14.61
12/02/2020 11:22:56	120220	12022020	112256	200.86	12.475405	-57.215902	201.00	-0.170	-0.370	1.500	200.86	-1.90	2.00	 	 	 	 	 	 	 	 	 	 	 	 	 	 	 	 	 	 	1581506576	8.00	14.82
12/02/2020 11:22:57	120220	12022020	112257	200.93	12.475372	-57.215918	201.06	0.040	-0.890	1.710	200.93	-2.30	2.20	 	 	 	 	 	 	 	 	 	 	 	 	 	 	 	 	 	 	1581506577	8.11	15.02
12/02/2020 11:22:58	120220	12022020	112258	200.90	12.475338	-57.215937	201.02	0.160	-1.090	1.850	200.90	-2.40	2.30	 	 	 	 	 	 	 	 	 	 	 	 	 	 	 	 	 	 	1581506578	7.93	14.69
12/02/2020 11:22:59	120220	12022020	112259	200.77	12.475307	-57.215953	200.87	0.140	-0.990	1.890	200.77	-2.30	2.40	 	 	 	 	 	 	 	 	 	 	 	 	 	 	 	 	 	 	1581506579	7.65	14.17
12/02/2020 11:23:00	120220	12022020	112300	200.51	12.475277	-57.215970	200.61	0.140	-0.680	1.870	200.51	-1.90	2.30	 	 	 	 	 	 	 	 	 	 	 	 	 	 	 	 	 	 	1581506580	7.55	13.98
12/02/2020 11:23:01	120220	12022020	112301	200.37	12.475245	-57.215985	200.49	0.230	-0.170	1.570	200.37	-1.40	2.00	1015.80	26.30	26.40	20.80	20.90	137.0	71.0	71.0	415.0	26.6	255.00	9.20	75.00	10.90	11374	8664.0	27.5	27.5	1581506581	7.51	13.91
12/02/2020 11:23:02	120220	12022020	112302	200.42	12.475212	-57.215997	200.54	0.280	0.250	1.240	200.42	-1.10	1.70	 	 	 	 	 	 	 	 	 	 	 	 	 	 	 	 	 	 	1581506582	7.44	13.78
12/02/2020 11:23:03	120220	12022020	112303	200.51	12.475178	-57.216007	200.62	0.140	0.340	1.260	200.51	-1.10	1.80	 	 	 	 	 	 	 	 	 	 	 	 	 	 	 	 	 	 	1581506583	7.61	14.09
12/02/2020 11:23:04	120220	12022020	112304	200.42	12.475143	-57.216020	200.53	-0.170	0.160	1.600	200.42	-1.30	2.20	 	 	 	 	 	 	 	 	 	 	 	 	 	 	 	 	 	 	1581506584	7.88	14.59
12/02/2020 11:23:05	120220	12022020	112305	200.32	12.475110	-57.216037	200.45	-0.490	-0.010	2.060	200.32	-1.40	2.60	 	 	 	 	 	 	 	 	 	 	 	 	 	 	 	 	 	 	1581506585	8.09	14.98
12/02/2020 11:23:06	120220	12022020	112306	200.41	12.475078	-57.216057	200.59	-0.590	-0.000	2.310	200.41	-1.40	2.80	 	 	 	 	 	 	 	 	 	 	 	 	 	 	 	 	 	 	1581506586	8.00	14.82
12/02/2020 11:23:07	120220	12022020	112307	200.64	12.475047	-57.216075	200.92	-0.370	0.010	1.980	200.72	-1.40	2.30	 	 	 	 	 	 	 	 	 	 	 	 	 	 	 	 	 	 	1581506587	7.60	14.08
12/02/2020 11:23:08	120220	12022020	112308	201.13	12.475017	-57.216088	201.30	-0.010	-0.290	1.430	201.13	-1.80	1.80	 	 	 	 	 	 	 	 	 	 	 	 	 	 	 	 	 	 	1581506588	7.40	13.70
12/02/2020 11:23:09	120220	12022020	112309	201.24	12.474983	-57.216103	201.34	0.270	-1.020	1.270	201.24	-2.60	1.80	 	 	 	 	 	 	 	 	 	 	 	 	 	 	 	 	 	 	1581506589	7.69	14.24
12/02/2020 11:23:10	120220	12022020	112310	200.72	12.474948	-57.216118	200.74	0.440	-1.670	1.710	200.72	-3.10	2.30	 	 	 	 	 	 	 	 	 	 	 	 	 	 	 	 	 	 	1581506590	8.21	15.20
12/02/2020 11:23:11	120220	12022020	112311	199.85	12.474913	-57.216137	199.89	0.510	-1.410	2.270	199.85	-2.50	2.80	 	 	 	 	 	 	 	 	 	 	 	 	 	 	 	 	 	 	1581506591	8.34	15.45
12/02/2020 11:23:12	120220	12022020	112312	199.35	12.474882	-57.216153	199.45	0.400	-0.240	2.460	199.35	-1.30	2.90	 	 	 	 	 	 	 	 	 	 	 	 	 	 	 	 	 	 	1581506592	7.65	14.17
12/02/2020 11:23:13	120220	12022020	112313	199.31	12.474852	-57.216167	199.45	0.110	0.790	2.380	199.31	-0.40	2.80	 	 	 	 	 	 	 	 	 	 	 	 	 	 	 	 	 	 	1581506593	6.93	12.83
12/02/2020 11:23:14	120220	12022020	112314	199.50	12.474822	-57.216178	199.65	-0.230	0.990	2.300	199.50	-0.40	2.80	 	 	 	 	 	 	 	 	 	 	 	 	 	 	 	 	 	 	1581506594	7.20	13.33
12/02/2020 11:23:15	120220	12022020	112315	199.79	12.474787	-57.216193	199.97	-0.440	0.610	2.230	199.79	-0.90	2.70	 	 	 	 	 	 	 	 	 	 	 	 	 	 	 	 	 	 	1581506595	7.93	14.69
12/02/2020 11:23:16	120220	12022020	112316	200.34	12.474752	-57.216210	200.54	-0.440	0.170	1.970	200.34	-1.30	2.40	 	 	 	 	 	 	 	 	 	 	 	 	 	 	 	 	 	 	1581506596	8.24	15.26
12/02/2020 11:23:17	120220	12022020	112317	201.01	12.474718	-57.216227	201.20	-0.230	-0.200	1.500	201.01	-1.60	1.90	 	 	 	 	 	 	 	 	 	 	 	 	 	 	 	 	 	 	1581506597	7.96	14.74
12/02/2020 11:23:18	120220	12022020	112318	201.38	12.474687	-57.216240	201.49	0.080	-0.720	1.150	201.38	-2.20	1.60	 	 	 	 	 	 	 	 	 	 	 	 	 	 	 	 	 	 	1581506598	7.66	14.19
12/02/2020 11:23:19	120220	12022020	112319	201.32	12.474652	-57.216253	201.32	0.250	-1.300	1.330	201.27	-2.70	2.00	 	 	 	 	 	 	 	 	 	 	 	 	 	 	 	 	 	 	1581506599	7.84	14.52
12/02/2020 11:23:20	120220	12022020	112320	200.62	12.474618	-57.216268	200.61	0.130	-1.510	2.110	200.62	-2.80	2.80	 	 	 	 	 	 	 	 	 	 	 	 	 	 	 	 	 	 	1581506600	7.97	14.76
12/02/2020 11:23:21	120220	12022020	112321	199.79	12.474587	-57.216288	199.62	-0.110	-1.090	3.020	199.60	-2.30	3.60	 	 	 	 	 	 	 	 	 	 	 	 	 	 	 	 	 	 	1581506601	7.89	14.61
12/02/2020 11:23:22	120220	12022020	112322	198.98	12.474557	-57.216308	199.10	-0.250	-0.120	3.260	198.98	-1.20	3.70	 	 	 	 	 	 	 	 	 	 	 	 	 	 	 	 	 	 	1581506602	7.69	14.24
12/02/2020 11:23:23	120220	12022020	112323	199.12	12.474527	-57.216325	199.30	-0.090	0.880	2.640	199.12	-0.30	2.90	 	 	 	 	 	 	 	 	 	 	 	 	 	 	 	 	 	 	1581506603	7.18	13.30
12/02/2020 11:23:24	120220	12022020	112324	199.61	12.474497	-57.216337	199.79	0.290	1.060	1.740	199.61	-0.40	2.10	 	 	 	 	 	 	 	 	 	 	 	 	 	 	 	 	 	 	1581506604	7.04	13.04
12/02/2020 11:23:25	120220	12022020	112325	200.09	12.474462	-57.216345	200.26	0.530	0.300	1.260	200.09	-1.30	1.80	 	 	 	 	 	 	 	 	 	 	 	 	 	 	 	 	 	 	1581506605	7.83	14.50
12/02/2020 11:23:26	120220	12022020	112326	200.46	12.474423	-57.216357	200.61	0.340	-0.680	1.630	200.46	-2.20	2.30	 	 	 	 	 	 	 	 	 	 	 	 	 	 	 	 	 	 	1581506606	8.50	15.74
12/02/2020 11:23:27	120220	12022020	112327	200.52	12.474388	-57.216377	200.65	-0.120	-1.220	2.640	200.52	-2.60	3.40	 	 	 	 	 	 	 	 	 	 	 	 	 	 	 	 	 	 	1581506607	8.47	15.69
12/02/2020 11:23:28	120220	12022020	112328	200.25	12.474358	-57.216398	200.36	-0.400	-1.130	3.490	200.25	-2.40	4.10	 	 	 	 	 	 	 	 	 	 	 	 	 	 	 	 	 	 	1581506608	8.13	15.06
12/02/2020 11:23:29	120220	12022020	112329	199.83	12.474328	-57.216418	199.96	-0.380	-0.620	3.820	199.83	-1.80	4.30	 	 	 	 	 	 	 	 	 	 	 	 	 	 	 	 	 	 	1581506609	7.58	14.04
12/02/2020 11:23:30	120220	12022020	112330	199.53	12.474300	-57.216435	199.69	-0.280	-0.060	3.530	199.53	-1.30	3.90	 	 	 	 	 	 	 	 	 	 	 	 	 	 	 	 	 	 	1581506610	7.23	13.39
12/02/2020 11:23:31	120220	12022020	112331	199.48	12.474268	-57.216448	199.65	-0.190	0.200	2.650	199.48	-1.20	2.90	 	 	 	 	 	 	 	 	 	 	 	 	 	 	 	 	 	 	1581506611	7.22	13.37
12/02/2020 11:23:32	120220	12022020	112332	199.51	12.474235	-57.216458	199.65	-0.040	0.040	1.810	199.51	-1.40	2.20	 	 	 	 	 	 	 	 	 	 	 	 	 	 	 	 	 	 	1581506612	7.54	13.96
12/02/2020 11:23:33	120220	12022020	112333	199.46	12.474200	-57.216470	199.59	0.210	-0.280	1.370	199.46	-1.70	1.80	 	 	 	 	 	 	 	 	 	 	 	 	 	 	 	 	 	 	1581506613	7.96	14.74
12/02/2020 11:23:34	120220	12022020	112334	199.60	12.474163	-57.216482	199.76	0.310	-0.290	1.140	199.60	-1.60	1.70	 	 	 	 	 	 	 	 	 	 	 	 	 	 	 	 	 	 	1581506614	8.09	14.98
12/02/2020 11:23:35	120220	12022020	112335	199.96	12.474130	-57.216493	200.13	0.080	-0.050	1.300	199.96	-1.40	1.90	 	 	 	 	 	 	 	 	 	 	 	 	 	 	 	 	 	 	1581506615	7.62	14.11
12/02/2020 11:23:36	120220	12022020	112336	200.26	12.474100	-57.216510	200.41	-0.230	-0.010	1.850	200.26	-1.40	2.50	 	 	 	 	 	 	 	 	 	 	 	 	 	 	 	 	 	 	1581506616	7.31	13.54
12/02/2020 11:23:37	120220	12022020	112337	200.21	12.474070	-57.216528	200.32	-0.210	-0.350	2.440	200.21	-1.80	3.00	 	 	 	 	 	 	 	 	 	 	 	 	 	 	 	 	 	 	1581506617	7.63	14.13
12/02/2020 11:23:38	120220	12022020	112338	199.93	12.474038	-57.216548	200.05	0.130	-0.640	2.720	199.93	-2.00	3.20	 	 	 	 	 	 	 	 	 	 	 	 	 	 	 	 	 	 	1581506618	8.06	14.93
12/02/2020 11:23:39	120220	12022020	112339	199.81	12.474005	-57.216565	199.97	0.360	-0.460	2.540	199.81	-1.70	3.00	 	 	 	 	 	 	 	 	 	 	 	 	 	 	 	 	 	 	1581506619	7.93	14.69
12/02/2020 11:23:40	120220	12022020	112340	200.00	12.473973	-57.216577	200.19	0.240	0.020	2.010	200.00	-1.20	2.40	 	 	 	 	 	 	 	 	 	 	 	 	 	 	 	 	 	 	1581506620	7.36	13.63
12/02/2020 11:23:41	120220	12022020	112341	200.35	12.473942	-57.216588	200.51	-0.070	0.230	1.370	200.35	-1.20	1.80	 	 	 	 	 	 	 	 	 	 	 	 	 	 	 	 	 	 	1581506621	6.99	12.95
12/02/2020 11:23:42	120220	12022020	112342	200.51	12.473910	-57.216598	200.62	-0.190	-0.170	1.020	200.51	-1.70	1.50	 	 	 	 	 	 	 	 	 	 	 	 	 	 	 	 	 	 	1581506622	7.25	13.43
12/02/2020 11:23:43	120220	12022020	112343	200.28	12.473875	-57.216613	200.35	-0.020	-0.960	1.120	200.28	-2.50	1.70	 	 	 	 	 	 	 	 	 	 	 	 	 	 	 	 	 	 	1581506623	7.97	14.76
12/02/2020 11:23:44	120220	12022020	112344	199.83	12.473840	-57.216630	199.89	0.160	-1.430	1.610	199.83	-2.80	2.30	 	 	 	 	 	 	 	 	 	 	 	 	 	 	 	 	 	 	1581506624	8.49	15.72
12/02/2020 11:23:45	120220	12022020	112345	199.41	12.473805	-57.216647	199.50	0.110	-1.050	2.170	199.41	-2.20	2.70	 	 	 	 	 	 	 	 	 	 	 	 	 	 	 	 	 	 	1581506625	8.32	15.41
12/02/2020 11:23:46	120220	12022020	112346	199.32	12.473773	-57.216663	199.45	-0.170	0.050	2.310	199.32	-1.00	2.80	 	 	 	 	 	 	 	 	 	 	 	 	 	 	 	 	 	 	1581506626	7.59	14.06
12/02/2020 11:23:47	120220	12022020	112347	199.53	12.473745	-57.216678	199.70	-0.480	1.010	2.060	199.53	-0.30	2.50	 	 	 	 	 	 	 	 	 	 	 	 	 	 	 	 	 	 	1581506627	6.87	12.72
12/02/2020 11:23:48	120220	12022020	112348	199.84	12.473715	-57.216690	199.99	-0.560	1.010	1.760	199.84	-0.50	2.20	 	 	 	 	 	 	 	 	 	 	 	 	 	 	 	 	 	 	1581506628	7.00	12.96
12/02/2020 11:23:49	120220	12022020	112349	199.99	12.473682	-57.216705	200.12	-0.340	0.160	1.730	199.99	-1.40	2.20	 	 	 	 	 	 	 	 	 	 	 	 	 	 	 	 	 	 	1581506629	7.87	14.58
12/02/2020 11:23:50	120220	12022020	112350	199.91	12.473645	-57.216722	200.03	0.040	-0.680	1.750	199.91	-2.10	2.20	 	 	 	 	 	 	 	 	 	 	 	 	 	 	 	 	 	 	1581506630	8.54	15.82
12/02/2020 11:23:51	120220	12022020	112351	199.78	12.473610	-57.216738	199.90	0.300	-0.790	1.610	199.78	-2.10	2.10	 	 	 	 	 	 	 	 	 	 	 	 	 	 	 	 	 	 	1581506631	8.29	15.35
12/02/2020 11:23:52	120220	12022020	112352	199.69	12.473578	-57.216752	199.79	0.330	-0.470	1.420	199.69	-1.80	1.90	 	 	 	 	 	 	 	 	 	 	 	 	 	 	 	 	 	 	1581506632	7.40	13.70
12/02/2020 11:23:53	120220	12022020	112353	199.54	12.473548	-57.216765	199.65	0.300	-0.360	1.320	199.54	-1.70	1.80	 	 	 	 	 	 	 	 	 	 	 	 	 	 	 	 	 	 	1581506633	7.04	13.04
12/02/2020 11:23:54	120220	12022020	112354	199.40	12.473517	-57.216778	199.52	0.330	-0.600	1.420	199.40	-2.00	2.00	 	 	 	 	 	 	 	 	 	 	 	 	 	 	 	 	 	 	1581506634	7.46	13.82
12/02/2020 11:23:55	120220	12022020	112355	199.41	12.473482	-57.216792	199.56	0.340	-0.790	1.650	199.41	-2.10	2.20	 	 	 	 	 	 	 	 	 	 	 	 	 	 	 	 	 	 	1581506635	7.97	14.76
12/02/2020 11:23:56	120220	12022020	112356	199.53	12.473447	-57.216807	199.70	0.170	-0.580	1.960	199.53	-1.80	2.60	 	 	 	 	 	 	 	 	 	 	 	 	 	 	 	 	 	 	1581506636	7.97	14.76
12/02/2020 11:23:57	120220	12022020	112357	199.64	12.473415	-57.216822	199.80	-0.120	-0.160	2.320	199.65	-1.40	2.90	 	 	 	 	 	 	 	 	 	 	 	 	 	 	 	 	 	 	1581506637	7.65	14.17
12/02/2020 11:23:58	120220	12022020	112358	199.62	12.473383	-57.216837	199.77	-0.300	0.070	2.530	199.62	-1.30	3.10	 	 	 	 	 	 	 	 	 	 	 	 	 	 	 	 	 	 	1581506638	7.51	13.91
12/02/2020 11:23:59	120220	12022020	112359	199.46	12.473350	-57.216852	199.62	-0.340	-0.010	2.600	199.46	-1.40	3.10	 	 	 	 	 	 	 	 	 	 	 	 	 	 	 	 	 	 	1581506639	7.80	14.45
12/02/2020 11:24:00	120220	12022020	112400	199.37	12.473315	-57.216867	199.55	-0.430	-0.020	2.460	199.37	-1.30	2.90	 	 	 	 	 	 	 	 	 	 	 	 	 	 	 	 	 	 	1581506640	8.08	14.96
12/02/2020 11:24:01	120220	12022020	112401	199.48	12.473282	-57.216882	199.67	-0.610	0.160	2.080	199.48	-1.20	2.50	1015.90	26.20	26.30	21.00	21.10	140.0	72.0	72.0	417.0	26.6	259.00	9.40	78.00	11.00	11413	8684.0	27.6	27.5	1581506641	7.82	14.48
12/02/2020 11:24:02	120220	12022020	112402	199.69	12.473252	-57.216897	199.87	-0.630	0.260	1.700	199.69	-1.10	2.10	 	 	 	 	 	 	 	 	 	 	 	 	 	 	 	 	 	 	1581506642	7.44	13.78
12/02/2020 11:24:03	120220	12022020	112403	199.86	12.473220	-57.216913	200.01	-0.170	0.020	1.300	199.86	-1.40	1.70	 	 	 	 	 	 	 	 	 	 	 	 	 	 	 	 	 	 	1581506643	7.45	13.80
12/02/2020 11:24:04	120220	12022020	112404	199.92	12.473187	-57.216927	200.04	0.650	-0.520	0.860	199.92	-2.00	1.30	 	 	 	 	 	 	 	 	 	 	 	 	 	 	 	 	 	 	1581506644	7.74	14.33
12/02/2020 11:24:05	120220	12022020	112405	199.84	12.473152	-57.216938	199.96	1.230	-1.020	0.700	199.84	-2.50	1.20	 	 	 	 	 	 	 	 	 	 	 	 	 	 	 	 	 	 	1581506645	8.09	14.98
12/02/2020 11:24:06	120220	12022020	112406	199.79	12.473115	-57.216950	199.91	1.150	-1.150	0.830	199.79	-2.40	1.40	 	 	 	 	 	 	 	 	 	 	 	 	 	 	 	 	 	 	1581506646	8.19	15.17
12/02/2020 11:24:07	120220	12022020	112407	199.89	12.473082	-57.216963	200.04	0.370	-0.570	1.140	199.89	-1.70	1.70	 	 	 	 	 	 	 	 	 	 	 	 	 	 	 	 	 	 	1581506647	7.78	14.41
12/02/2020 11:24:08	120220	12022020	112408	200.22	12.473052	-57.216977	200.40	-0.560	0.400	1.470	200.22	-0.80	2.00	 	 	 	 	 	 	 	 	 	 	 	 	 	 	 	 	 	 	1581506648	7.15	13.24
12/02/2020 11:24:09	120220	12022020	112409	200.56	12.473023	-57.216992	200.78	-1.120	0.850	1.790	200.62	-0.60	2.40	 	 	 	 	 	 	 	 	 	 	 	 	 	 	 	 	 	 	1581506649	6.80	12.59
12/02/2020 11:24:10	120220	12022020	112410	200.70	12.472993	-57.217010	200.81	-0.980	0.160	2.130	200.70	-1.50	2.70	 	 	 	 	 	 	 	 	 	 	 	 	 	 	 	 	 	 	1581506650	7.47	13.83
12/02/2020 11:24:11	120220	12022020	112411	200.47	12.472958	-57.217032	200.51	-0.220	-0.990	2.300	200.40	-2.50	2.80	 	 	 	 	 	 	 	 	 	 	 	 	 	 	 	 	 	 	1581506651	8.73	16.17
12/02/2020 11:24:12	120220	12022020	112412	200.18	12.472920	-57.217050	200.31	0.510	-1.310	2.000	200.18	-2.60	2.40	 	 	 	 	 	 	 	 	 	 	 	 	 	 	 	 	 	 	1581506652	9.07	16.80
12/02/2020 11:24:13	120220	12022020	112413	200.18	12.472885	-57.217062	200.31	0.650	-0.590	1.440	200.18	-1.70	1.80	 	 	 	 	 	 	 	 	 	 	 	 	 	 	 	 	 	 	1581506653	8.05	14.91
12/02/2020 11:24:14	120220	12022020	112414	200.16	12.472853	-57.217070	200.26	0.210	0.250	1.110	200.16	-1.00	1.60	 	 	 	 	 	 	 	 	 	 	 	 	 	 	 	 	 	 	1581506654	7.00	12.96
12/02/2020 11:24:15	120220	12022020	112415	199.89	12.472823	-57.217082	199.95	-0.300	0.430	1.450	199.89	-1.00	2.10	 	 	 	 	 	 	 	 	 	 	 	 	 	 	 	 	 	 	1581506655	6.96	12.89
12/02/2020 11:24:16	120220	12022020	112416	199.45	12.472790	-57.217098	199.54	-0.440	0.080	2.100	199.45	-1.30	2.70	 	 	 	 	 	 	 	 	 	 	 	 	 	 	 	 	 	 	1581506656	7.84	14.52
12/02/2020 11:24:17	120220	12022020	112417	199.30	12.472757	-57.217120	199.44	-0.220	-0.100	2.350	199.30	-1.40	2.80	 	 	 	 	 	 	 	 	 	 	 	 	 	 	 	 	 	 	1581506657	8.38	15.52
12/02/2020 11:24:18	120220	12022020	112418	199.45	12.472725	-57.217138	199.62	0.140	-0.010	2.120	199.45	-1.30	2.50	 	 	 	 	 	 	 	 	 	 	 	 	 	 	 	 	 	 	1581506658	7.96	14.74
12/02/2020 11:24:19	120220	12022020	112419	199.68	12.472693	-57.217152	199.83	0.410	-0.020	1.690	199.68	-1.40	2.10	 	 	 	 	 	 	 	 	 	 	 	 	 	 	 	 	 	 	1581506659	7.47	13.83
12/02/2020 11:24:20	120220	12022020	112420	199.91	12.472660	-57.217165	200.07	0.430	-0.260	1.300	199.91	-1.70	1.70	 	 	 	 	 	 	 	 	 	 	 	 	 	 	 	 	 	 	1581506660	7.50	13.89
12/02/2020 11:24:21	120220	12022020	112421	200.17	12.472627	-57.217177	200.30	0.250	-0.560	1.090	200.17	-2.00	1.60	 	 	 	 	 	 	 	 	 	 	 	 	 	 	 	 	 	 	1581506661	7.65	14.17
12/02/2020 11:24:22	120220	12022020	112422	200.14	12.472593	-57.217190	200.23	0.140	-0.830	1.300	200.14	-2.20	1.90	 	 	 	 	 	 	 	 	 	 	 	 	 	 	 	 	 	 	1581506662	7.70	14.26
12/02/2020 11:24:23	120220	12022020	112423	199.99	12.472562	-57.217207	200.08	0.160	-0.840	1.600	199.97	-2.10	2.10	 	 	 	 	 	 	 	 	 	 	 	 	 	 	 	 	 	 	1581506663	7.82	14.48
12/02/2020 11:24:24	120220	12022020	112424	200.12	12.472528	-57.217220	200.28	0.110	-0.500	1.650	200.12	-1.80	2.20	 	 	 	 	 	 	 	 	 	 	 	 	 	 	 	 	 	 	1581506664	7.70	14.26
12/02/2020 11:24:25	120220	12022020	112425	200.45	12.472497	-57.217233	200.60	-0.070	-0.190	1.680	200.45	-1.50	2.20	 	 	 	 	 	 	 	 	 	 	 	 	 	 	 	 	 	 	1581506665	7.39	13.69
12/02/2020 11:24:26	120220	12022020	112426	200.47	12.472465	-57.217248	200.60	-0.150	-0.250	1.830	200.47	-1.70	2.40	 	 	 	 	 	 	 	 	 	 	 	 	 	 	 	 	 	 	1581506666	7.47	13.83
12/02/2020 11:24:27	120220	12022020	112427	199.98	12.472430	-57.217263	200.04	-0.090	-0.650	2.310	199.98	-2.00	2.90	 	 	 	 	 	 	 	 	 	 	 	 	 	 	 	 	 	 	1581506667	8.05	14.91
12/02/2020 11:24:28	120220	12022020	112428	199.43	12.472395	-57.217280	199.53	-0.120	-0.640	2.820	199.43	-1.90	3.40	 	 	 	 	 	 	 	 	 	 	 	 	 	 	 	 	 	 	1581506668	8.46	15.67
12/02/2020 11:24:29	120220	12022020	112429	199.17	12.472362	-57.217298	199.32	-0.360	-0.100	3.100	199.17	-1.30	3.60	 	 	 	 	 	 	 	 	 	 	 	 	 	 	 	 	 	 	1581506669	8.10	15.00
12/02/2020 11:24:30	120220	12022020	112430	199.17	12.472330	-57.217315	199.33	-0.590	0.450	2.960	199.17	-0.80	3.30	 	 	 	 	 	 	 	 	 	 	 	 	 	 	 	 	 	 	1581506670	7.54	13.96
12/02/2020 11:24:31	120220	12022020	112431	199.49	12.472300	-57.217332	199.65	-0.660	0.800	2.410	199.49	-0.50	2.60	 	 	 	 	 	 	 	 	 	 	 	 	 	 	 	 	 	 	1581506671	7.46	13.82
12/02/2020 11:24:32	120220	12022020	112432	200.10	12.472268	-57.217347	200.31	-0.300	0.840	1.420	200.10	-0.60	1.70	 	 	 	 	 	 	 	 	 	 	 	 	 	 	 	 	 	 	1581506672	7.55	13.98
12/02/2020 11:24:33	120220	12022020	112433	200.79	12.472235	-57.217360	200.97	0.360	0.540	0.410	200.79	-1.00	0.70	 	 	 	 	 	 	 	 	 	 	 	 	 	 	 	 	 	 	1581506673	7.54	13.96
12/02/2020 11:24:34	120220	12022020	112434	201.39	12.472202	-57.217372	201.54	0.970	-0.080	-0.370	201.39	-1.60	0.00	 	 	 	 	 	 	 	 	 	 	 	 	 	 	 	 	 	 	1581506674	7.63	14.13
12/02/2020 11:24:35	120220	12022020	112435	201.73	12.472167	-57.217380	201.81	1.220	-0.870	-0.570	201.73	-2.40	0.00	 	 	 	 	 	 	 	 	 	 	 	 	 	 	 	 	 	 	1581506675	7.76	14.37
12/02/2020 11:24:36	120220	12022020	112436	201.50	12.472132	-57.217390	201.52	1.030	-1.710	0.100	201.50	-3.20	0.90	 	 	 	 	 	 	 	 	 	 	 	 	 	 	 	 	 	 	1581506676	7.86	14.56
12/02/2020 11:24:37	120220	12022020	112437	200.83	12.472097	-57.217405	200.83	0.490	-2.090	1.380	200.83	-3.40	2.20	 	 	 	 	 	 	 	 	 	 	 	 	 	 	 	 	 	 	1581506677	8.05	14.91
12/02/2020 11:24:38	120220	12022020	112438	200.07	12.472065	-57.217423	200.12	-0.220	-1.600	2.680	200.07	-2.70	3.40	 	 	 	 	 	 	 	 	 	 	 	 	 	 	 	 	 	 	1581506678	7.99	14.80
12/02/2020 11:24:39	120220	12022020	112439	199.64	12.472035	-57.217445	199.77	-0.810	-0.460	3.440	199.64	-1.60	4.00	 	 	 	 	 	 	 	 	 	 	 	 	 	 	 	 	 	 	1581506679	7.70	14.26
12/02/2020 11:24:40	120220	12022020	112440	199.73	12.472008	-57.217465	199.91	-1.070	0.580	3.440	199.73	-0.60	3.80	 	 	 	 	 	 	 	 	 	 	 	 	 	 	 	 	 	 	1581506680	7.42	13.74
12/02/2020 11:24:41	120220	12022020	112441	200.10	12.471978	-57.217483	200.24	-0.940	0.950	2.850	200.10	-0.40	3.00	 	 	 	 	 	 	 	 	 	 	 	 	 	 	 	 	 	 	1581506681	7.50	13.89
12/02/2020 11:24:42	120220	12022020	112442	200.58	12.471945	-57.217500	200.75	-0.490	0.630	1.660	200.58	-0.80	1.90	 	 	 	 	 	 	 	 	 	 	 	 	 	 	 	 	 	 	1581506682	8.00	14.82
12/02/2020 11:24:43	120220	12022020	112443	201.01	12.471907	-57.217512	201.11	-0.130	0.160	0.850	201.01	-1.30	1.20	 	 	 	 	 	 	 	 	 	 	 	 	 	 	 	 	 	 	1581506683	8.42	15.59
12/02/2020 11:24:44	120220	12022020	112444	201.18	12.471870	-57.217523	201.24	0.080	-0.220	0.470	201.18	-1.60	1.00	 	 	 	 	 	 	 	 	 	 	 	 	 	 	 	 	 	 	1581506684	8.28	15.33
12/02/2020 11:24:45	120220	12022020	112445	201.05	12.471837	-57.217537	201.07	0.110	-0.370	0.550	201.05	-1.70	1.10	 	 	 	 	 	 	 	 	 	 	 	 	 	 	 	 	 	 	1581506685	7.87	14.58
12/02/2020 11:24:46	120220	12022020	112446	200.78	12.471803	-57.217553	200.80	0.140	-0.330	0.890	200.78	-1.60	1.50	 	 	 	 	 	 	 	 	 	 	 	 	 	 	 	 	 	 	1581506686	7.67	14.20
12/02/2020 11:24:47	120220	12022020	112447	200.60	12.471773	-57.217570	200.64	0.280	-0.040	1.170	200.58	-1.30	1.70	 	 	 	 	 	 	 	 	 	 	 	 	 	 	 	 	 	 	1581506687	7.51	13.91
12/02/2020 11:24:48	120220	12022020	112448	200.64	12.471743	-57.217585	200.69	0.570	0.330	1.160	200.64	-1.00	1.60	 	 	 	 	 	 	 	 	 	 	 	 	 	 	 	 	 	 	1581506688	7.16	13.26
12/02/2020 11:24:49	120220	12022020	112449	200.88	12.471713	-57.217597	200.94	0.840	0.260	0.960	200.88	-1.30	1.40	 	 	 	 	 	 	 	 	 	 	 	 	 	 	 	 	 	 	1581506689	7.09	13.13
12/02/2020 11:24:50	120220	12022020	112450	201.07	12.471678	-57.217607	201.15	0.730	-0.430	1.160	201.07	-1.90	1.80	 	 	 	 	 	 	 	 	 	 	 	 	 	 	 	 	 	 	1581506690	7.59	14.06
12/02/2020 11:24:51	120220	12022020	112451	201.09	12.471645	-57.217622	201.17	0.280	-0.990	1.700	201.09	-2.50	2.40	 	 	 	 	 	 	 	 	 	 	 	 	 	 	 	 	 	 	1581506691	7.98	14.78
12/02/2020 11:24:52	120220	12022020	112452	200.93	12.471613	-57.217642	201.00	-0.270	-1.180	2.380	200.93	-2.50	3.00	 	 	 	 	 	 	 	 	 	 	 	 	 	 	 	 	 	 	1581506692	7.97	14.76
12/02/2020 11:24:53	120220	12022020	112453	200.73	12.471583	-57.217662	200.82	-0.380	-1.010	2.690	200.73	-2.30	3.20	 	 	 	 	 	 	 	 	 	 	 	 	 	 	 	 	 	 	1581506693	7.65	14.17
12/02/2020 11:24:54	120220	12022020	112454	200.58	12.471553	-57.217680	200.69	-0.210	-0.970	2.700	200.58	-2.40	3.20	 	 	 	 	 	 	 	 	 	 	 	 	 	 	 	 	 	 	1581506694	7.53	13.95
12/02/2020 11:24:55	120220	12022020	112455	200.25	12.471520	-57.217697	200.36	-0.020	-1.070	2.710	200.25	-2.40	3.30	 	 	 	 	 	 	 	 	 	 	 	 	 	 	 	 	 	 	1581506695	7.95	14.72
12/02/2020 11:24:56	120220	12022020	112456	199.62	12.471485	-57.217712	199.75	-0.120	-0.870	2.930	199.62	-2.00	3.50	 	 	 	 	 	 	 	 	 	 	 	 	 	 	 	 	 	 	1581506696	8.32	15.41
12/02/2020 11:24:57	120220	12022020	112457	199.23	12.471450	-57.217728	199.38	-0.620	0.140	3.000	199.23	-0.90	3.50	 	 	 	 	 	 	 	 	 	 	 	 	 	 	 	 	 	 	1581506697	8.16	15.11
12/02/2020 11:24:58	120220	12022020	112458	199.49	12.471418	-57.217743	199.66	-1.050	1.260	2.700	199.49	0.20	3.00	 	 	 	 	 	 	 	 	 	 	 	 	 	 	 	 	 	 	1581506698	7.45	13.80
12/02/2020 11:24:59	120220	12022020	112459	200.07	12.471390	-57.217760	200.46	-1.010	1.960	1.960	200.23	0.60	2.30	 	 	 	 	 	 	 	 	 	 	 	 	 	 	 	 	 	 	1581506699	7.00	12.96
12/02/2020 11:25:00	120220	12022020	112500	201.05	12.471360	-57.217775	201.17	-0.310	1.540	1.140	201.05	-0.10	1.30	 	 	 	 	 	 	 	 	 	 	 	 	 	 	 	 	 	 	1581506700	7.34	13.59
12/02/2020 11:25:01	120220	12022020	112501	201.72	12.471323	-57.217787	201.81	0.760	0.400	0.240	201.72	-1.40	0.50	1015.90	26.20	26.30	20.90	21.00	143.0	72.0	72.0	419.0	26.6	257.00	10.30	78.00	11.90	11494	9016.0	27.6	27.5	1581506701	8.09	14.98
12/02/2020 11:25:02	120220	12022020	112502	202.01	12.471287	-57.217798	202.09	1.580	-0.890	-0.150	202.01	-2.50	0.40	 	 	 	 	 	 	 	 	 	 	 	 	 	 	 	 	 	 	1581506702	8.36	15.48
12/02/2020 11:25:03	120220	12022020	112503	201.88	12.471250	-57.217808	201.94	1.670	-1.620	0.200	201.88	-3.10	0.90	 	 	 	 	 	 	 	 	 	 	 	 	 	 	 	 	 	 	1581506703	8.04	14.89
12/02/2020 11:25:04	120220	12022020	112504	201.56	12.471217	-57.217822	201.63	1.130	-1.850	1.010	201.56	-3.10	1.80	 	 	 	 	 	 	 	 	 	 	 	 	 	 	 	 	 	 	1581506704	7.68	14.22
12/02/2020 11:25:05	120220	12022020	112505	201.26	12.471187	-57.217837	201.32	0.050	-1.450	2.210	201.26	-2.70	3.00	 	 	 	 	 	 	 	 	 	 	 	 	 	 	 	 	 	 	1581506705	7.34	13.59
12/02/2020 11:25:06	120220	12022020	112506	200.94	12.471158	-57.217857	201.05	-0.830	-0.890	3.200	200.94	-2.00	4.00	 	 	 	 	 	 	 	 	 	 	 	 	 	 	 	 	 	 	1581506706	7.37	13.65
12/02/2020 11:25:07	120220	12022020	112507	200.64	12.471130	-57.217878	200.76	-1.470	-0.260	4.000	200.64	-1.40	4.60	 	 	 	 	 	 	 	 	 	 	 	 	 	 	 	 	 	 	1581506707	7.72	14.30
12/02/2020 11:25:08	120220	12022020	112508	200.46	12.471102	-57.217903	200.60	-1.490	0.170	4.120	200.46	-1.10	4.50	 	 	 	 	 	 	 	 	 	 	 	 	 	 	 	 	 	 	1581506708	8.04	14.89
12/02/2020 11:25:09	120220	12022020	112509	200.33	12.471070	-57.217927	200.43	-0.840	0.360	3.480	200.33	-1.00	3.60	 	 	 	 	 	 	 	 	 	 	 	 	 	 	 	 	 	 	1581506709	8.18	15.15
12/02/2020 11:25:10	120220	12022020	112510	200.29	12.471037	-57.217942	200.38	0.220	0.410	2.200	200.29	-0.90	2.20	 	 	 	 	 	 	 	 	 	 	 	 	 	 	 	 	 	 	1581506710	8.15	15.09
12/02/2020 11:25:11	120220	12022020	112511	200.45	12.470998	-57.217950	200.58	0.990	0.370	0.710	200.51	-1.00	0.80	 	 	 	 	 	 	 	 	 	 	 	 	 	 	 	 	 	 	1581506711	8.16	15.11
12/02/2020 11:25:12	120220	12022020	112512	201.04	12.470962	-57.217955	201.10	0.970	0.290	-0.340	201.04	-1.10	0.00	 	 	 	 	 	 	 	 	 	 	 	 	 	 	 	 	 	 	1581506712	8.08	14.96
12/02/2020 11:25:13	120220	12022020	112513	201.56	12.470927	-57.217963	201.73	0.340	0.200	-0.510	201.69	-1.20	0.10	 	 	 	 	 	 	 	 	 	 	 	 	 	 	 	 	 	 	1581506713	7.58	14.04
12/02/2020 11:25:14	120220	12022020	112514	202.20	12.470897	-57.217978	202.25	-0.220	-0.060	-0.010	202.20	-1.60	0.70	 	 	 	 	 	 	 	 	 	 	 	 	 	 	 	 	 	 	1581506714	7.26	13.45
12/02/2020 11:25:15	120220	12022020	112515	202.46	12.470867	-57.217997	202.51	-0.210	-0.580	0.690	202.46	-2.10	1.40	 	 	 	 	 	 	 	 	 	 	 	 	 	 	 	 	 	 	1581506715	7.50	13.89
12/02/2020 11:25:16	120220	12022020	112516	202.33	12.470837	-57.218017	202.39	0.240	-1.200	1.440	202.33	-2.70	2.20	 	 	 	 	 	 	 	 	 	 	 	 	 	 	 	 	 	 	1581506716	7.84	14.52
12/02/2020 11:25:17	120220	12022020	112517	201.77	12.470803	-57.218033	201.85	0.550	-1.560	2.150	201.77	-2.90	2.90	 	 	 	 	 	 	 	 	 	 	 	 	 	 	 	 	 	 	1581506717	8.05	14.91
12/02/2020 11:25:18	120220	12022020	112518	200.97	12.470768	-57.218050	201.07	0.330	-1.400	2.770	200.97	-2.60	3.40	 	 	 	 	 	 	 	 	 	 	 	 	 	 	 	 	 	 	1581506718	8.03	14.87
12/02/2020 11:25:19	120220	12022020	112519	200.36	12.470737	-57.218068	200.49	-0.350	-0.670	3.100	200.36	-1.70	3.60	 	 	 	 	 	 	 	 	 	 	 	 	 	 	 	 	 	 	1581506719	7.86	14.56
12/02/2020 11:25:20	120220	12022020	112520	200.28	12.470707	-57.218087	200.40	-1.030	0.360	3.150	200.28	-0.70	3.60	 	 	 	 	 	 	 	 	 	 	 	 	 	 	 	 	 	 	1581506720	7.52	13.93
12/02/2020 11:25:21	120220	12022020	112521	200.59	12.470680	-57.218107	200.71	-1.180	1.110	2.860	200.59	-0.20	3.20	 	 	 	 	 	 	 	 	 	 	 	 	 	 	 	 	 	 	1581506721	7.32	13.56
12/02/2020 11:25:22	120220	12022020	112522	200.93	12.470650	-57.218125	201.04	-0.590	1.060	2.160	200.93	-0.50	2.40	 	 	 	 	 	 	 	 	 	 	 	 	 	 	 	 	 	 	1581506722	7.52	13.93
12/02/2020 11:25:23	120220	12022020	112523	201.16	12.470615	-57.218142	201.27	0.370	0.420	1.400	201.16	-1.10	1.60	 	 	 	 	 	 	 	 	 	 	 	 	 	 	 	 	 	 	1581506723	8.09	14.98
12/02/2020 11:25:24	120220	12022020	112524	201.69	12.470578	-57.218155	201.80	1.040	-0.050	0.590	201.69	-1.40	0.80	 	 	 	 	 	 	 	 	 	 	 	 	 	 	 	 	 	 	1581506724	8.35	15.46
12/02/2020 11:25:25	120220	12022020	112525	202.46	12.470545	-57.218165	202.55	1.100	-0.070	-0.110	202.46	-1.50	0.30	 	 	 	 	 	 	 	 	 	 	 	 	 	 	 	 	 	 	1581506725	7.66	14.19
12/02/2020 11:25:26	120220	12022020	112526	202.81	12.470513	-57.218173	202.87	0.850	-0.380	-0.140	202.81	-2.00	0.60	 	 	 	 	 	 	 	 	 	 	 	 	 	 	 	 	 	 	1581506726	7.01	12.98
12/02/2020 11:25:27	120220	12022020	112527	202.61	12.470482	-57.218187	202.57	0.620	-1.230	0.700	202.50	-2.80	1.60	 	 	 	 	 	 	 	 	 	 	 	 	 	 	 	 	 	 	1581506727	7.45	13.80
12/02/2020 11:25:28	120220	12022020	112528	201.81	12.470447	-57.218203	201.90	0.270	-1.870	2.000	201.81	-3.30	2.90	 	 	 	 	 	 	 	 	 	 	 	 	 	 	 	 	 	 	1581506728	8.18	15.15
12/02/2020 11:25:29	120220	12022020	112529	201.09	12.470415	-57.218225	201.21	-0.320	-1.800	3.260	201.09	-2.90	4.10	 	 	 	 	 	 	 	 	 	 	 	 	 	 	 	 	 	 	1581506729	8.32	15.41
12/02/2020 11:25:30	120220	12022020	112530	200.50	12.470385	-57.218248	200.64	-0.940	-1.020	4.140	200.50	-2.00	4.80	 	 	 	 	 	 	 	 	 	 	 	 	 	 	 	 	 	 	1581506730	8.13	15.06
12/02/2020 11:25:31	120220	12022020	112531	200.23	12.470357	-57.218273	200.38	-1.260	0.110	4.360	200.23	-0.90	4.70	 	 	 	 	 	 	 	 	 	 	 	 	 	 	 	 	 	 	1581506731	7.84	14.52
12/02/2020 11:25:32	120220	12022020	112532	200.50	12.470330	-57.218295	200.65	-1.070	1.160	3.620	200.50	0.00	3.70	 	 	 	 	 	 	 	 	 	 	 	 	 	 	 	 	 	 	1581506732	7.50	13.89
12/02/2020 11:25:33	120220	12022020	112533	201.22	12.470300	-57.218310	201.33	-0.450	1.600	2.070	201.22	0.20	2.00	 	 	 	 	 	 	 	 	 	 	 	 	 	 	 	 	 	 	1581506733	7.21	13.35
12/02/2020 11:25:34	120220	12022020	112534	202.04	12.470265	-57.218320	202.13	0.300	0.990	0.460	202.04	-0.80	0.60	 	 	 	 	 	 	 	 	 	 	 	 	 	 	 	 	 	 	1581506734	7.59	14.06
12/02/2020 11:25:35	120220	12022020	112535	202.37	12.470227	-57.218328	202.44	0.850	-0.450	-0.280	202.39	-2.30	0.20	 	 	 	 	 	 	 	 	 	 	 	 	 	 	 	 	 	 	1581506735	8.44	15.63
12/02/2020 11:25:36	120220	12022020	112536	201.98	12.470188	-57.218340	202.04	1.030	-1.680	-0.070	201.98	-3.10	0.60	 	 	 	 	 	 	 	 	 	 	 	 	 	 	 	 	 	 	1581506736	8.87	16.43
12/02/2020 11:25:37	120220	12022020	112537	201.41	12.470152	-57.218355	201.35	0.740	-1.520	0.640	201.29	-2.50	1.40	 	 	 	 	 	 	 	 	 	 	 	 	 	 	 	 	 	 	1581506737	8.36	15.48
12/02/2020 11:25:38	120220	12022020	112538	200.92	12.470123	-57.218372	201.00	0.140	-0.160	1.320	200.92	-1.00	2.00	 	 	 	 	 	 	 	 	 	 	 	 	 	 	 	 	 	 	1581506738	6.96	12.89
12/02/2020 11:25:39	120220	12022020	112539	201.00	12.470100	-57.218387	201.10	-0.340	0.920	1.600	201.00	-0.40	2.10	 	 	 	 	 	 	 	 	 	 	 	 	 	 	 	 	 	 	1581506739	6.15	11.39
12/02/2020 11:25:40	120220	12022020	112540	201.19	12.470073	-57.218403	201.30	-0.360	0.660	1.720	201.19	-1.00	2.30	 	 	 	 	 	 	 	 	 	 	 	 	 	 	 	 	 	 	1581506740	6.75	12.50
12/02/2020 11:25:41	120220	12022020	112541	201.35	12.470040	-57.218423	201.48	-0.000	-0.530	1.980	201.35	-2.30	2.60	 	 	 	 	 	 	 	 	 	 	 	 	 	 	 	 	 	 	1581506741	8.15	15.09
12/02/2020 11:25:42	120220	12022020	112542	201.33	12.470003	-57.218443	201.46	0.320	-1.510	2.420	201.33	-3.00	3.10	 	 	 	 	 	 	 	 	 	 	 	 	 	 	 	 	 	 	1581506742	8.85	16.39
12/02/2020 11:25:43	120220	12022020	112543	201.06	12.469970	-57.218462	201.21	0.240	-1.550	2.940	201.06	-2.70	3.60	 	 	 	 	 	 	 	 	 	 	 	 	 	 	 	 	 	 	1581506743	8.43	15.61
12/02/2020 11:25:44	120220	12022020	112544	200.73	12.469938	-57.218480	200.90	-0.220	-0.780	3.320	200.73	-1.80	3.90	 	 	 	 	 	 	 	 	 	 	 	 	 	 	 	 	 	 	1581506744	7.59	14.06
12/02/2020 11:25:45	120220	12022020	112545	200.55	12.469912	-57.218498	200.72	-0.760	0.220	3.310	200.55	-0.90	3.70	 	 	 	 	 	 	 	 	 	 	 	 	 	 	 	 	 	 	1581506745	7.00	12.96
12/02/2020 11:25:46	120220	12022020	112546	200.48	12.469883	-57.218515	200.64	-0.880	0.750	2.930	200.48	-0.60	3.30	 	 	 	 	 	 	 	 	 	 	 	 	 	 	 	 	 	 	1581506746	6.96	12.89
12/02/2020 11:25:47	120220	12022020	112547	200.28	12.469853	-57.218532	200.41	-0.310	0.510	2.360	200.28	-1.00	2.60	 	 	 	 	 	 	 	 	 	 	 	 	 	 	 	 	 	 	1581506747	7.50	13.89
12/02/2020 11:25:48	120220	12022020	112548	200.19	12.469818	-57.218547	200.33	0.580	-0.010	1.510	200.19	-1.50	1.70	 	 	 	 	 	 	 	 	 	 	 	 	 	 	 	 	 	 	1581506748	8.19	15.17
12/02/2020 11:25:49	120220	12022020	112549	200.40	12.469780	-57.218557	200.59	1.130	-0.250	0.610	200.47	-1.60	0.90	 	 	 	 	 	 	 	 	 	 	 	 	 	 	 	 	 	 	1581506749	8.22	15.22
12/02/2020 11:25:50	120220	12022020	112550	200.85	12.469747	-57.218565	200.95	0.940	-0.290	0.420	200.85	-1.70	1.10	 	 	 	 	 	 	 	 	 	 	 	 	 	 	 	 	 	 	1581506750	7.70	14.26
12/02/2020 11:25:51	120220	12022020	112551	200.94	12.469713	-57.218577	201.04	0.200	-0.390	1.290	200.94	-1.80	2.20	 	 	 	 	 	 	 	 	 	 	 	 	 	 	 	 	 	 	1581506751	7.29	13.50
12/02/2020 11:25:52	120220	12022020	112552	200.73	12.469683	-57.218595	200.84	-0.590	-0.510	2.630	200.73	-1.90	3.50	 	 	 	 	 	 	 	 	 	 	 	 	 	 	 	 	 	 	1581506752	7.47	13.83
12/02/2020 11:25:53	120220	12022020	112553	200.38	12.469657	-57.218618	200.52	-0.920	-0.530	3.720	200.38	-1.90	4.40	 	 	 	 	 	 	 	 	 	 	 	 	 	 	 	 	 	 	1581506753	7.83	14.50
12/02/2020 11:25:54	120220	12022020	112554	199.86	12.469628	-57.218642	200.01	-0.590	-0.560	4.230	199.86	-1.90	4.70	 	 	 	 	 	 	 	 	 	 	 	 	 	 	 	 	 	 	1581506754	7.87	14.58
12/02/2020 11:25:55	120220	12022020	112555	199.22	12.469598	-57.218663	199.38	0.110	-0.690	4.050	199.22	-2.00	4.30	 	 	 	 	 	 	 	 	 	 	 	 	 	 	 	 	 	 	1581506755	7.87	14.58
12/02/2020 11:25:56	120220	12022020	112556	198.92	12.469563	-57.218677	199.08	0.560	-0.540	3.150	198.92	-1.70	3.30	 	 	 	 	 	 	 	 	 	 	 	 	 	 	 	 	 	 	1581506756	7.87	14.58
12/02/2020 11:25:57	120220	12022020	112557	199.14	12.469530	-57.218687	199.31	0.430	-0.020	1.910	199.14	-1.20	2.00	 	 	 	 	 	 	 	 	 	 	 	 	 	 	 	 	 	 	1581506757	7.43	13.76
12/02/2020 11:25:58	120220	12022020	112558	199.51	12.469498	-57.218693	199.66	-0.010	0.260	0.940	199.51	-1.10	1.30	 	 	 	 	 	 	 	 	 	 	 	 	 	 	 	 	 	 	1581506758	7.00	12.96
12/02/2020 11:25:59	120220	12022020	112559	199.61	12.469467	-57.218703	199.75	-0.300	-0.120	0.780	199.61	-1.70	1.40	 	 	 	 	 	 	 	 	 	 	 	 	 	 	 	 	 	 	1581506759	7.27	13.46
12/02/2020 11:26:00	120220	12022020	112600	199.46	12.469432	-57.218718	199.60	-0.290	-0.740	1.260	199.46	-2.20	1.90	 	 	 	 	 	 	 	 	 	 	 	 	 	 	 	 	 	 	1581506760	8.06	14.93
12/02/2020 11:26:01	120220	12022020	112601	199.36	12.469398	-57.218738	199.50	-0.140	-0.730	1.770	199.36	-1.90	2.40	1015.90	26.20	26.30	20.60	20.70	146.0	71.0	71.0	419.0	26.6	253.00	9.80	75.00	11.60	11650	9073.0	27.5	27.5	1581506761	8.33	15.43
12/02/2020 11:26:02	120220	12022020	112602	199.54	12.469367	-57.218755	199.69	-0.060	-0.030	1.940	199.54	-1.10	2.40	 	 	 	 	 	 	 	 	 	 	 	 	 	 	 	 	 	 	1581506762	7.56	14.00
12/02/2020 11:26:03	120220	12022020	112603	199.79	12.469338	-57.218770	199.97	-0.020	0.540	1.740	199.86	-0.80	2.10	 	 	 	 	 	 	 	 	 	 	 	 	 	 	 	 	 	 	1581506763	6.84	12.67
12/02/2020 11:26:04	120220	12022020	112604	200.06	12.469308	-57.218780	200.16	0.090	0.480	1.410	200.06	-1.00	1.90	 	 	 	 	 	 	 	 	 	 	 	 	 	 	 	 	 	 	1581506764	6.99	12.95
12/02/2020 11:26:05	120220	12022020	112605	200.01	12.469275	-57.218792	200.11	0.230	-0.060	1.300	200.01	-1.60	1.80	 	 	 	 	 	 	 	 	 	 	 	 	 	 	 	 	 	 	1581506765	7.58	14.04
12/02/2020 11:26:06	120220	12022020	112606	199.87	12.469240	-57.218803	199.97	0.240	-0.570	1.470	199.87	-2.00	2.10	 	 	 	 	 	 	 	 	 	 	 	 	 	 	 	 	 	 	1581506766	7.87	14.58
12/02/2020 11:26:07	120220	12022020	112607	199.73	12.469207	-57.218818	199.83	0.080	-0.770	1.860	199.73	-2.10	2.50	 	 	 	 	 	 	 	 	 	 	 	 	 	 	 	 	 	 	1581506767	7.70	14.26
12/02/2020 11:26:08	120220	12022020	112608	199.44	12.469177	-57.218837	199.54	-0.060	-0.750	2.320	199.44	-2.10	2.90	 	 	 	 	 	 	 	 	 	 	 	 	 	 	 	 	 	 	1581506768	7.42	13.74
12/02/2020 11:26:09	120220	12022020	112609	199.01	12.469147	-57.218853	199.12	-0.020	-0.780	2.730	199.01	-2.10	3.30	 	 	 	 	 	 	 	 	 	 	 	 	 	 	 	 	 	 	1581506769	7.43	13.76
12/02/2020 11:26:10	120220	12022020	112610	198.63	12.469115	-57.218870	198.76	0.060	-0.850	2.950	198.63	-2.20	3.40	 	 	 	 	 	 	 	 	 	 	 	 	 	 	 	 	 	 	1581506770	7.76	14.37
12/02/2020 11:26:11	120220	12022020	112611	198.51	12.469082	-57.218885	198.66	-0.050	-0.670	2.880	198.51	-1.90	3.30	 	 	 	 	 	 	 	 	 	 	 	 	 	 	 	 	 	 	1581506771	7.96	14.74
12/02/2020 11:26:12	120220	12022020	112612	198.61	12.469048	-57.218902	198.77	-0.370	-0.150	2.610	198.61	-1.30	3.00	 	 	 	 	 	 	 	 	 	 	 	 	 	 	 	 	 	 	1581506772	7.72	14.30
12/02/2020 11:26:13	120220	12022020	112613	198.89	12.469018	-57.218915	199.03	-0.610	0.450	2.080	198.89	-0.70	2.30	 	 	 	 	 	 	 	 	 	 	 	 	 	 	 	 	 	 	1581506773	7.34	13.59
12/02/2020 11:26:14	120220	12022020	112614	199.35	12.468987	-57.218928	199.50	-0.580	0.810	1.310	199.35	-0.50	1.50	 	 	 	 	 	 	 	 	 	 	 	 	 	 	 	 	 	 	1581506774	7.21	13.35
12/02/2020 11:26:15	120220	12022020	112615	199.84	12.468955	-57.218938	200.09	-0.280	0.760	0.490	199.95	-0.70	0.70	 	 	 	 	 	 	 	 	 	 	 	 	 	 	 	 	 	 	1581506775	7.28	13.48
12/02/2020 11:26:16	120220	12022020	112616	200.48	12.468920	-57.218948	200.58	0.170	0.190	-0.160	200.48	-1.40	0.30	 	 	 	 	 	 	 	 	 	 	 	 	 	 	 	 	 	 	1581506776	7.53	13.95
12/02/2020 11:26:17	120220	12022020	112617	200.63	12.468885	-57.218960	200.70	0.610	-0.680	-0.250	200.63	-2.30	0.40	 	 	 	 	 	 	 	 	 	 	 	 	 	 	 	 	 	 	1581506777	7.94	14.70
12/02/2020 11:26:18	120220	12022020	112618	200.48	12.468850	-57.218972	200.55	0.870	-1.130	0.210	200.48	-2.50	0.90	 	 	 	 	 	 	 	 	 	 	 	 	 	 	 	 	 	 	1581506778	8.08	14.96
12/02/2020 11:26:19	120220	12022020	112619	200.23	12.468817	-57.218983	200.29	0.650	-0.930	1.060	200.23	-2.20	1.90	 	 	 	 	 	 	 	 	 	 	 	 	 	 	 	 	 	 	1581506779	7.56	14.00
12/02/2020 11:26:20	120220	12022020	112620	199.75	12.468787	-57.218998	199.82	0.000	-0.660	2.350	199.75	-2.00	3.30	 	 	 	 	 	 	 	 	 	 	 	 	 	 	 	 	 	 	1581506780	7.13	13.20
12/02/2020 11:26:21	120220	12022020	112621	198.98	12.468757	-57.219018	199.09	-0.650	-0.670	3.870	198.98	-2.00	4.80	 	 	 	 	 	 	 	 	 	 	 	 	 	 	 	 	 	 	1581506781	7.63	14.13
12/02/2020 11:26:22	120220	12022020	112622	198.13	12.468727	-57.219043	198.27	-0.840	-0.680	4.950	198.13	-2.00	5.60	 	 	 	 	 	 	 	 	 	 	 	 	 	 	 	 	 	 	1581506782	8.47	15.69
12/02/2020 11:26:23	120220	12022020	112623	197.52	12.468695	-57.219068	197.67	-0.500	-0.330	5.090	197.52	-1.50	5.40	 	 	 	 	 	 	 	 	 	 	 	 	 	 	 	 	 	 	1581506783	8.44	15.63
12/02/2020 11:26:24	120220	12022020	112624	197.51	12.468663	-57.219085	197.69	-0.070	0.350	4.190	197.51	-0.80	4.20	 	 	 	 	 	 	 	 	 	 	 	 	 	 	 	 	 	 	1581506784	7.75	14.35
12/02/2020 11:26:25	120220	12022020	112625	198.02	12.468632	-57.219095	198.35	0.110	0.810	2.490	198.19	-0.50	2.40	 	 	 	 	 	 	 	 	 	 	 	 	 	 	 	 	 	 	1581506785	7.14	13.22
12/02/2020 11:26:26	120220	12022020	112626	199.08	12.468600	-57.219102	199.20	0.130	0.620	0.700	199.08	-0.90	0.70	 	 	 	 	 	 	 	 	 	 	 	 	 	 	 	 	 	 	1581506786	7.17	13.28
12/02/2020 11:26:27	120220	12022020	112627	199.79	12.468565	-57.219108	199.87	0.260	-0.080	-0.560	199.79	-1.70	-0.30	 	 	 	 	 	 	 	 	 	 	 	 	 	 	 	 	 	 	1581506787	7.66	14.19
12/02/2020 11:26:28	120220	12022020	112628	200.18	12.468528	-57.219115	200.24	0.480	-0.860	-0.930	200.18	-2.40	-0.30	 	 	 	 	 	 	 	 	 	 	 	 	 	 	 	 	 	 	1581506788	8.00	14.82
12/02/2020 11:26:29	120220	12022020	112629	200.12	12.468493	-57.219127	200.19	0.480	-1.350	-0.280	200.12	-2.80	0.60	 	 	 	 	 	 	 	 	 	 	 	 	 	 	 	 	 	 	1581506789	7.93	14.69
12/02/2020 11:26:30	120220	12022020	112630	199.75	12.468460	-57.219142	199.85	0.110	-1.290	1.030	199.75	-2.50	2.00	 	 	 	 	 	 	 	 	 	 	 	 	 	 	 	 	 	 	1581506790	7.76	14.37
12/02/2020 11:26:31	120220	12022020	112631	199.48	12.468430	-57.219160	199.60	-0.450	-0.620	2.230	199.48	-1.70	3.00	 	 	 	 	 	 	 	 	 	 	 	 	 	 	 	 	 	 	1581506791	7.56	14.00
12/02/2020 11:26:32	120220	12022020	112632	199.34	12.468402	-57.219180	199.46	-0.750	0.240	2.880	199.34	-0.90	3.40	 	 	 	 	 	 	 	 	 	 	 	 	 	 	 	 	 	 	1581506792	7.23	13.39
12/02/2020 11:26:33	120220	12022020	112633	199.17	12.468373	-57.219198	199.27	-0.430	0.520	2.850	199.17	-0.90	3.20	 	 	 	 	 	 	 	 	 	 	 	 	 	 	 	 	 	 	1581506793	7.17	13.28
12/02/2020 11:26:34	120220	12022020	112634	199.05	12.468340	-57.219212	199.15	0.180	0.200	2.470	199.05	-1.30	2.90	 	 	 	 	 	 	 	 	 	 	 	 	 	 	 	 	 	 	1581506794	7.75	14.35
12/02/2020 11:26:35	120220	12022020	112635	198.99	12.468303	-57.219222	199.10	0.370	-0.210	2.250	198.99	-1.70	2.70	 	 	 	 	 	 	 	 	 	 	 	 	 	 	 	 	 	 	1581506795	8.16	15.11
12/02/2020 11:26:36	120220	12022020	112636	198.73	12.468270	-57.219237	198.84	0.040	-0.480	2.300	198.73	-1.90	2.90	 	 	 	 	 	 	 	 	 	 	 	 	 	 	 	 	 	 	1581506796	7.98	14.78
12/02/2020 11:26:37	120220	12022020	112637	198.34	12.468237	-57.219253	198.46	-0.310	-0.500	2.500	198.34	-1.70	2.90	 	 	 	 	 	 	 	 	 	 	 	 	 	 	 	 	 	 	1581506797	7.87	14.58
12/02/2020 11:26:38	120220	12022020	112638	198.41	12.468207	-57.219273	198.55	-0.250	0.010	2.060	198.41	-1.10	2.30	 	 	 	 	 	 	 	 	 	 	 	 	 	 	 	 	 	 	1581506798	7.63	14.13
12/02/2020 11:26:39	120220	12022020	112639	198.91	12.468178	-57.219285	199.19	0.120	0.580	1.050	199.06	-0.70	1.20	 	 	 	 	 	 	 	 	 	 	 	 	 	 	 	 	 	 	1581506799	6.82	12.63
12/02/2020 11:26:40	120220	12022020	112640	199.78	12.468148	-57.219293	199.88	0.450	0.340	0.230	199.78	-1.30	0.60	 	 	 	 	 	 	 	 	 	 	 	 	 	 	 	 	 	 	1581506800	6.76	12.52
12/02/2020 11:26:41	120220	12022020	112641	200.00	12.468113	-57.219303	200.08	0.590	-0.740	0.170	199.99	-2.50	0.80	 	 	 	 	 	 	 	 	 	 	 	 	 	 	 	 	 	 	1581506801	7.64	14.15
12/02/2020 11:26:42	120220	12022020	112642	199.73	12.468077	-57.219318	199.82	0.480	-1.610	0.790	199.73	-3.00	1.60	 	 	 	 	 	 	 	 	 	 	 	 	 	 	 	 	 	 	1581506802	8.41	15.58
12/02/2020 11:26:43	120220	12022020	112643	199.44	12.468043	-57.219333	199.55	0.110	-1.340	1.650	199.44	-2.40	2.40	 	 	 	 	 	 	 	 	 	 	 	 	 	 	 	 	 	 	1581506803	8.09	14.98
12/02/2020 11:26:44	120220	12022020	112644	199.32	12.468013	-57.219350	199.43	-0.340	-0.330	2.290	199.32	-1.40	2.90	 	 	 	 	 	 	 	 	 	 	 	 	 	 	 	 	 	 	1581506804	7.10	13.15
12/02/2020 11:26:45	120220	12022020	112645	199.25	12.467987	-57.219365	199.36	-0.590	0.350	2.480	199.25	-0.90	3.00	 	 	 	 	 	 	 	 	 	 	 	 	 	 	 	 	 	 	1581506805	6.75	12.50
12/02/2020 11:26:46	120220	12022020	112646	199.18	12.467955	-57.219380	199.28	-0.500	0.290	2.340	199.18	-1.20	2.70	 	 	 	 	 	 	 	 	 	 	 	 	 	 	 	 	 	 	1581506806	7.33	13.58
12/02/2020 11:26:47	120220	12022020	112647	199.11	12.467922	-57.219395	199.23	-0.190	-0.230	2.010	199.11	-1.80	2.40	 	 	 	 	 	 	 	 	 	 	 	 	 	 	 	 	 	 	1581506807	8.08	14.96
12/02/2020 11:26:48	120220	12022020	112648	198.95	12.467885	-57.219408	199.06	0.030	-0.680	1.880	198.95	-2.10	2.40	 	 	 	 	 	 	 	 	 	 	 	 	 	 	 	 	 	 	1581506808	8.34	15.45
12/02/2020 11:26:49	120220	12022020	112649	198.53	12.467850	-57.219423	198.64	-0.020	-0.720	2.190	198.53	-2.00	2.80	 	 	 	 	 	 	 	 	 	 	 	 	 	 	 	 	 	 	1581506809	8.12	15.04
12/02/2020 11:26:50	120220	12022020	112650	198.14	12.467817	-57.219438	198.27	-0.320	-0.200	2.480	198.14	-1.30	3.00	 	 	 	 	 	 	 	 	 	 	 	 	 	 	 	 	 	 	1581506810	7.73	14.32
12/02/2020 11:26:51	120220	12022020	112651	198.19	12.467788	-57.219455	198.33	-0.590	0.570	2.320	198.19	-0.60	2.70	 	 	 	 	 	 	 	 	 	 	 	 	 	 	 	 	 	 	1581506811	7.21	13.35
12/02/2020 11:26:52	120220	12022020	112652	198.61	12.467760	-57.219472	198.76	-0.440	1.000	1.760	198.61	-0.30	2.00	 	 	 	 	 	 	 	 	 	 	 	 	 	 	 	 	 	 	1581506812	6.93	12.83
12/02/2020 11:26:53	120220	12022020	112653	199.11	12.467728	-57.219485	199.34	0.230	0.810	0.900	199.23	-0.70	1.20	 	 	 	 	 	 	 	 	 	 	 	 	 	 	 	 	 	 	1581506813	7.10	13.15
12/02/2020 11:26:54	120220	12022020	112654	199.65	12.467695	-57.219495	199.73	1.000	0.030	0.340	199.65	-1.60	0.80	 	 	 	 	 	 	 	 	 	 	 	 	 	 	 	 	 	 	1581506814	7.53	13.95
12/02/2020 11:26:55	120220	12022020	112655	199.66	12.467660	-57.219503	199.73	1.350	-0.940	0.550	199.66	-2.50	1.30	 	 	 	 	 	 	 	 	 	 	 	 	 	 	 	 	 	 	1581506815	7.98	14.78
12/02/2020 11:26:56	120220	12022020	112656	199.34	12.467625	-57.219517	199.43	1.090	-1.490	1.220	199.34	-2.90	2.00	 	 	 	 	 	 	 	 	 	 	 	 	 	 	 	 	 	 	1581506816	7.99	14.80
12/02/2020 11:26:57	120220	12022020	112657	198.97	12.467592	-57.219532	199.08	0.410	-1.370	1.940	198.97	-2.60	2.60	 	 	 	 	 	 	 	 	 	 	 	 	 	 	 	 	 	 	1581506817	7.61	14.09
12/02/2020 11:26:58	120220	12022020	112658	198.79	12.467562	-57.219547	198.91	-0.320	-0.870	2.450	198.79	-2.10	3.00	 	 	 	 	 	 	 	 	 	 	 	 	 	 	 	 	 	 	1581506818	7.22	13.37
12/02/2020 11:26:59	120220	12022020	112659	198.75	12.467533	-57.219563	198.88	-0.880	-0.450	2.650	198.75	-1.70	3.10	 	 	 	 	 	 	 	 	 	 	 	 	 	 	 	 	 	 	1581506819	7.21	13.35
12/02/2020 11:27:00	120220	12022020	112700	198.71	12.467502	-57.219580	198.83	-1.140	-0.270	2.690	198.71	-1.60	3.20	 	 	 	 	 	 	 	 	 	 	 	 	 	 	 	 	 	 	1581506820	7.53	13.95
12/02/2020 11:27:01	120220	12022020	112701	198.54	12.467470	-57.219598	198.66	-0.980	-0.280	2.710	198.54	-1.60	3.20	1015.80	26.20	26.30	20.60	20.70	175.0	71.0	71.0	420.0	26.6	254.00	10.30	75.00	12.00	12359	9324.0	27.6	27.5	1581506821	7.93	14.69
12/02/2020 11:27:02	120220	12022020	112702	198.44	12.467435	-57.219615	198.57	-0.520	-0.220	2.450	198.44	-1.50	2.80	 	 	 	 	 	 	 	 	 	 	 	 	 	 	 	 	 	 	1581506822	8.14	15.08
12/02/2020 11:27:03	120220	12022020	112703	198.62	12.467402	-57.219628	198.76	-0.050	0.040	1.950	198.62	-1.20	2.30	 	 	 	 	 	 	 	 	 	 	 	 	 	 	 	 	 	 	1581506823	7.99	14.80
12/02/2020 11:27:04	120220	12022020	112704	198.99	12.467367	-57.219640	199.11	0.230	0.370	1.560	198.99	-0.90	1.90	 	 	 	 	 	 	 	 	 	 	 	 	 	 	 	 	 	 	1581506824	7.66	14.19
12/02/2020 11:27:05	120220	12022020	112705	199.22	12.467335	-57.219652	199.32	0.460	0.530	1.210	199.22	-0.90	1.70	 	 	 	 	 	 	 	 	 	 	 	 	 	 	 	 	 	 	1581506825	7.46	13.82
12/02/2020 11:27:06	120220	12022020	112706	199.07	12.467300	-57.219662	199.17	0.700	0.410	1.220	199.07	-1.00	1.80	 	 	 	 	 	 	 	 	 	 	 	 	 	 	 	 	 	 	1581506826	7.56	14.00
12/02/2020 11:27:07	120220	12022020	112707	198.89	12.467267	-57.219673	199.01	0.710	0.260	1.540	198.89	-1.10	2.10	 	 	 	 	 	 	 	 	 	 	 	 	 	 	 	 	 	 	1581506827	7.68	14.22
12/02/2020 11:27:08	120220	12022020	112708	199.06	12.467235	-57.219687	199.19	0.290	0.190	1.780	199.06	-1.20	2.30	 	 	 	 	 	 	 	 	 	 	 	 	 	 	 	 	 	 	1581506828	7.45	13.80
12/02/2020 11:27:09	120220	12022020	112709	199.54	12.467205	-57.219702	199.67	-0.280	-0.050	1.830	199.54	-1.60	2.30	 	 	 	 	 	 	 	 	 	 	 	 	 	 	 	 	 	 	1581506829	7.17	13.28
12/02/2020 11:27:10	120220	12022020	112710	199.94	12.467175	-57.219720	200.05	-0.430	-0.720	1.800	199.94	-2.40	2.30	 	 	 	 	 	 	 	 	 	 	 	 	 	 	 	 	 	 	1581506830	7.35	13.61
12/02/2020 11:27:11	120220	12022020	112711	200.01	12.467143	-57.219738	200.09	0.100	-1.560	1.730	200.01	-3.10	2.20	 	 	 	 	 	 	 	 	 	 	 	 	 	 	 	 	 	 	1581506831	7.86	14.56
12/02/2020 11:27:12	120220	12022020	112712	199.76	12.467108	-57.219753	199.83	0.790	-1.930	1.710	199.76	-3.20	2.20	 	 	 	 	 	 	 	 	 	 	 	 	 	 	 	 	 	 	1581506832	8.11	15.02
12/02/2020 11:27:13	120220	12022020	112713	199.48	12.467075	-57.219765	199.55	0.870	-1.470	1.770	199.48	-2.50	2.30	 	 	 	 	 	 	 	 	 	 	 	 	 	 	 	 	 	 	1581506833	7.87	14.58
12/02/2020 11:27:14	120220	12022020	112714	199.45	12.467042	-57.219777	199.53	0.180	-0.310	1.900	199.45	-1.30	2.40	 	 	 	 	 	 	 	 	 	 	 	 	 	 	 	 	 	 	1581506834	7.26	13.45
12/02/2020 11:27:15	120220	12022020	112715	199.62	12.467013	-57.219790	199.71	-0.710	0.780	1.990	199.62	-0.40	2.50	 	 	 	 	 	 	 	 	 	 	 	 	 	 	 	 	 	 	1581506835	6.81	12.61
12/02/2020 11:27:16	120220	12022020	112716	199.79	12.466983	-57.219805	199.87	-1.040	1.060	1.860	199.79	-0.40	2.30	 	 	 	 	 	 	 	 	 	 	 	 	 	 	 	 	 	 	1581506836	7.06	13.08
12/02/2020 11:27:17	120220	12022020	112717	199.82	12.466950	-57.219820	199.91	-0.650	0.510	1.660	199.83	-1.10	2.10	 	 	 	 	 	 	 	 	 	 	 	 	 	 	 	 	 	 	1581506837	7.98	14.78
12/02/2020 11:27:18	120220	12022020	112718	199.94	12.466913	-57.219835	200.01	-0.050	-0.140	1.570	199.94	-1.60	2.10	 	 	 	 	 	 	 	 	 	 	 	 	 	 	 	 	 	 	1581506838	8.59	15.91
12/02/2020 11:27:19	120220	12022020	112719	200.11	12.466878	-57.219850	200.18	0.190	-0.430	1.620	200.11	-1.80	2.20	 	 	 	 	 	 	 	 	 	 	 	 	 	 	 	 	 	 	1581506839	8.30	15.37
12/02/2020 11:27:20	120220	12022020	112720	200.13	12.466845	-57.219867	200.18	0.050	-0.480	1.900	200.13	-1.90	2.50	 	 	 	 	 	 	 	 	 	 	 	 	 	 	 	 	 	 	1581506840	7.71	14.28
12/02/2020 11:27:21	120220	12022020	112721	199.92	12.466815	-57.219883	199.97	-0.050	-0.550	2.250	199.92	-1.90	2.80	 	 	 	 	 	 	 	 	 	 	 	 	 	 	 	 	 	 	1581506841	7.51	13.91
12/02/2020 11:27:22	120220	12022020	112722	199.61	12.466783	-57.219900	199.65	0.090	-0.530	2.400	199.61	-1.90	2.90	 	 	 	 	 	 	 	 	 	 	 	 	 	 	 	 	 	 	1581506842	7.62	14.11
12/02/2020 11:27:23	120220	12022020	112723	199.34	12.466752	-57.219915	199.39	0.320	-0.320	2.220	199.34	-1.60	2.60	 	 	 	 	 	 	 	 	 	 	 	 	 	 	 	 	 	 	1581506843	7.57	14.02
12/02/2020 11:27:24	120220	12022020	112724	199.34	12.466718	-57.219927	199.40	0.390	0.010	1.760	199.34	-1.20	2.10	 	 	 	 	 	 	 	 	 	 	 	 	 	 	 	 	 	 	1581506844	7.45	13.80
12/02/2020 11:27:25	120220	12022020	112725	199.67	12.466687	-57.219938	199.74	0.230	0.330	1.310	199.67	-1.00	1.70	 	 	 	 	 	 	 	 	 	 	 	 	 	 	 	 	 	 	1581506845	7.31	13.54
12/02/2020 11:27:26	120220	12022020	112726	200.12	12.466655	-57.219948	200.18	0.060	0.410	1.140	200.12	-1.00	1.70	 	 	 	 	 	 	 	 	 	 	 	 	 	 	 	 	 	 	1581506846	7.21	13.35
12/02/2020 11:27:27	120220	12022020	112727	200.30	12.466623	-57.219962	200.36	0.030	0.000	1.460	200.30	-1.60	2.20	 	 	 	 	 	 	 	 	 	 	 	 	 	 	 	 	 	 	1581506847	7.36	13.63
12/02/2020 11:27:28	120220	12022020	112728	200.00	12.466590	-57.219978	200.05	0.070	-0.820	2.160	200.00	-2.50	2.90	 	 	 	 	 	 	 	 	 	 	 	 	 	 	 	 	 	 	1581506848	7.84	14.52
12/02/2020 11:27:29	120220	12022020	112729	199.47	12.466557	-57.219997	199.40	0.050	-1.570	2.900	199.33	-3.00	3.60	 	 	 	 	 	 	 	 	 	 	 	 	 	 	 	 	 	 	1581506849	8.38	15.52
12/02/2020 11:27:30	120220	12022020	112730	198.67	12.466522	-57.220018	198.77	-0.120	-1.540	3.350	198.67	-2.70	3.90	 	 	 	 	 	 	 	 	 	 	 	 	 	 	 	 	 	 	1581506850	8.40	15.56
12/02/2020 11:27:31	120220	12022020	112731	198.36	12.466492	-57.220037	198.44	-0.270	-0.710	3.160	198.34	-1.70	3.40	 	 	 	 	 	 	 	 	 	 	 	 	 	 	 	 	 	 	1581506851	7.67	14.20
12/02/2020 11:27:32	120220	12022020	112732	198.59	12.466463	-57.220052	198.69	-0.230	0.270	2.210	198.59	-0.90	2.30	 	 	 	 	 	 	 	 	 	 	 	 	 	 	 	 	 	 	1581506852	7.00	12.96
12/02/2020 11:27:33	120220	12022020	112733	199.23	12.466432	-57.220060	199.32	0.020	0.650	1.080	199.23	-0.80	1.30	 	 	 	 	 	 	 	 	 	 	 	 	 	 	 	 	 	 	1581506853	7.01	12.98
12/02/2020 11:27:34	120220	12022020	112734	199.80	12.466397	-57.220068	199.88	0.300	0.320	0.510	199.80	-1.20	1.00	 	 	 	 	 	 	 	 	 	 	 	 	 	 	 	 	 	 	1581506854	7.74	14.33
12/02/2020 11:27:35	120220	12022020	112735	200.13	12.466360	-57.220078	200.22	0.310	-0.090	0.670	200.13	-1.50	1.40	 	 	 	 	 	 	 	 	 	 	 	 	 	 	 	 	 	 	1581506855	8.24	15.26
12/02/2020 11:27:36	120220	12022020	112736	200.10	12.466325	-57.220090	200.18	-0.050	-0.320	1.500	200.10	-1.70	2.40	 	 	 	 	 	 	 	 	 	 	 	 	 	 	 	 	 	 	1581506856	8.00	14.82
12/02/2020 11:27:37	120220	12022020	112737	199.75	12.466293	-57.220108	199.85	-0.520	-0.410	2.640	199.75	-1.70	3.50	 	 	 	 	 	 	 	 	 	 	 	 	 	 	 	 	 	 	1581506857	7.80	14.45
12/02/2020 11:27:38	120220	12022020	112738	199.30	12.466263	-57.220130	199.42	-0.750	-0.310	3.620	199.30	-1.60	4.30	 	 	 	 	 	 	 	 	 	 	 	 	 	 	 	 	 	 	1581506858	7.85	14.54
12/02/2020 11:27:39	120220	12022020	112739	198.86	12.466235	-57.220153	199.00	-0.540	-0.160	3.980	198.86	-1.50	4.40	 	 	 	 	 	 	 	 	 	 	 	 	 	 	 	 	 	 	1581506859	7.78	14.41
12/02/2020 11:27:40	120220	12022020	112740	198.66	12.466205	-57.220172	198.80	0.010	-0.090	3.530	198.66	-1.50	3.70	 	 	 	 	 	 	 	 	 	 	 	 	 	 	 	 	 	 	1581506860	7.59	14.06
12/02/2020 11:27:41	120220	12022020	112741	198.65	12.466173	-57.220187	198.79	0.650	-0.220	2.530	198.66	-1.60	2.60	 	 	 	 	 	 	 	 	 	 	 	 	 	 	 	 	 	 	1581506861	7.48	13.85
12/02/2020 11:27:42	120220	12022020	112742	198.84	12.466138	-57.220195	198.96	1.080	-0.420	1.220	198.84	-1.80	1.30	 	 	 	 	 	 	 	 	 	 	 	 	 	 	 	 	 	 	1581506862	7.65	14.17
12/02/2020 11:27:43	120220	12022020	112743	199.17	12.466103	-57.220200	199.35	1.010	-0.520	0.150	199.26	-1.90	0.50	 	 	 	 	 	 	 	 	 	 	 	 	 	 	 	 	 	 	1581506863	7.76	14.37
12/02/2020 11:27:44	120220	12022020	112744	199.67	12.466068	-57.220205	199.75	0.460	-0.660	-0.110	199.67	-2.10	0.50	 	 	 	 	 	 	 	 	 	 	 	 	 	 	 	 	 	 	1581506864	7.58	14.04
12/02/2020 11:27:45	120220	12022020	112745	199.88	12.466033	-57.220217	199.96	-0.300	-0.830	0.370	199.88	-2.20	1.10	 	 	 	 	 	 	 	 	 	 	 	 	 	 	 	 	 	 	1581506865	7.61	14.09
12/02/2020 11:27:46	120220	12022020	112746	199.89	12.466002	-57.220233	199.96	-0.950	-0.790	1.310	199.89	-2.10	2.10	 	 	 	 	 	 	 	 	 	 	 	 	 	 	 	 	 	 	1581506866	7.81	14.46
12/02/2020 11:27:47	120220	12022020	112747	199.75	12.465972	-57.220257	199.83	-1.180	-0.470	2.300	199.75	-1.70	3.00	 	 	 	 	 	 	 	 	 	 	 	 	 	 	 	 	 	 	1581506867	7.97	14.76
12/02/2020 11:27:48	120220	12022020	112748	199.63	12.465942	-57.220278	199.72	-0.870	-0.040	2.870	199.63	-1.30	3.40	 	 	 	 	 	 	 	 	 	 	 	 	 	 	 	 	 	 	1581506868	7.89	14.61
12/02/2020 11:27:49	120220	12022020	112749	199.51	12.465912	-57.220297	199.61	-0.260	0.280	2.870	199.51	-1.00	3.30	 	 	 	 	 	 	 	 	 	 	 	 	 	 	 	 	 	 	1581506869	7.72	14.30
12/02/2020 11:27:50	120220	12022020	112750	199.37	12.465878	-57.220312	199.46	0.270	0.410	2.380	199.37	-0.90	2.60	 	 	 	 	 	 	 	 	 	 	 	 	 	 	 	 	 	 	1581506870	7.73	14.32
12/02/2020 11:27:51	120220	12022020	112751	199.36	12.465843	-57.220322	199.45	0.460	0.490	1.540	199.36	-0.90	1.70	 	 	 	 	 	 	 	 	 	 	 	 	 	 	 	 	 	 	1581506871	7.72	14.30
12/02/2020 11:27:52	120220	12022020	112752	199.53	12.465810	-57.220330	199.59	0.370	0.410	0.650	199.53	-1.10	1.00	 	 	 	 	 	 	 	 	 	 	 	 	 	 	 	 	 	 	1581506872	7.48	13.85
12/02/2020 11:27:53	120220	12022020	112753	199.64	12.465777	-57.220338	199.69	0.250	-0.200	0.320	199.64	-1.80	0.90	 	 	 	 	 	 	 	 	 	 	 	 	 	 	 	 	 	 	1581506873	7.48	13.85
12/02/2020 11:27:54	120220	12022020	112754	199.60	12.465742	-57.220352	199.67	0.230	-1.050	0.680	199.60	-2.60	1.40	 	 	 	 	 	 	 	 	 	 	 	 	 	 	 	 	 	 	1581506874	7.94	14.70
12/02/2020 11:27:55	120220	12022020	112755	199.57	12.465708	-57.220368	199.66	0.200	-1.370	1.290	199.57	-2.60	1.90	 	 	 	 	 	 	 	 	 	 	 	 	 	 	 	 	 	 	1581506875	8.17	15.13
12/02/2020 11:27:56	120220	12022020	112756	199.60	12.465677	-57.220387	199.69	0.070	-0.890	1.700	199.60	-2.00	2.30	 	 	 	 	 	 	 	 	 	 	 	 	 	 	 	 	 	 	1581506876	7.66	14.19
12/02/2020 11:27:57	120220	12022020	112757	199.58	12.465648	-57.220403	199.67	-0.080	-0.260	1.950	199.58	-1.50	2.50	 	 	 	 	 	 	 	 	 	 	 	 	 	 	 	 	 	 	1581506877	7.04	13.04
12/02/2020 11:27:58	120220	12022020	112758	199.55	12.465618	-57.220417	199.64	-0.100	-0.090	2.070	199.55	-1.50	2.60	 	 	 	 	 	 	 	 	 	 	 	 	 	 	 	 	 	 	1581506878	7.22	13.37
12/02/2020 11:27:59	120220	12022020	112759	199.52	12.465583	-57.220432	199.62	-0.070	-0.260	2.030	199.52	-1.70	2.50	 	 	 	 	 	 	 	 	 	 	 	 	 	 	 	 	 	 	1581506879	7.85	14.54
12/02/2020 11:28:00	120220	12022020	112800	199.53	12.465548	-57.220445	199.63	-0.210	-0.400	2.030	199.53	-1.80	2.60	 	 	 	 	 	 	 	 	 	 	 	 	 	 	 	 	 	 	1581506880	8.16	15.11
12/02/2020 11:28:01	120220	12022020	112801	199.44	12.465515	-57.220460	199.53	-0.460	-0.330	2.180	199.44	-1.60	2.70	1015.80	26.30	26.30	20.70	20.80	155.0	71.0	71.0	420.0	26.6	253.00	9.60	73.00	11.40	12110	9464.0	27.5	27.5	1581506881	8.04	14.89
12/02/2020 11:28:02	120220	12022020	112802	199.16	12.465482	-57.220477	199.25	-0.530	-0.050	2.340	199.16	-1.30	2.80	 	 	 	 	 	 	 	 	 	 	 	 	 	 	 	 	 	 	1581506882	7.79	14.43
12/02/2020 11:28:03	120220	12022020	112803	199.05	12.465450	-57.220492	199.14	-0.250	0.330	2.040	199.05	-0.90	2.40	 	 	 	 	 	 	 	 	 	 	 	 	 	 	 	 	 	 	1581506883	7.58	14.04
12/02/2020 11:28:04	120220	12022020	112804	199.14	12.465418	-57.220505	199.22	0.230	0.470	1.500	199.14	-0.90	1.90	 	 	 	 	 	 	 	 	 	 	 	 	 	 	 	 	 	 	1581506884	7.39	13.69
12/02/2020 11:28:05	120220	12022020	112805	199.22	12.465385	-57.220515	199.31	0.660	0.150	1.130	199.24	-1.40	1.60	 	 	 	 	 	 	 	 	 	 	 	 	 	 	 	 	 	 	1581506885	7.58	14.04
12/02/2020 11:28:06	120220	12022020	112806	199.32	12.465348	-57.220525	199.42	0.740	-0.400	1.140	199.32	-1.90	1.70	 	 	 	 	 	 	 	 	 	 	 	 	 	 	 	 	 	 	1581506886	7.94	14.70
12/02/2020 11:28:07	120220	12022020	112807	199.40	12.465313	-57.220538	199.52	0.410	-0.790	1.500	199.41	-2.20	2.20	 	 	 	 	 	 	 	 	 	 	 	 	 	 	 	 	 	 	1581506887	8.00	14.82
12/02/2020 11:28:08	120220	12022020	112808	199.45	12.465282	-57.220555	199.57	-0.110	-0.790	2.040	199.45	-2.10	2.70	 	 	 	 	 	 	 	 	 	 	 	 	 	 	 	 	 	 	1581506888	7.78	14.41
12/02/2020 11:28:09	120220	12022020	112809	199.62	12.465252	-57.220573	199.73	-0.440	-0.420	2.300	199.62	-1.60	2.70	 	 	 	 	 	 	 	 	 	 	 	 	 	 	 	 	 	 	1581506889	7.52	13.93
12/02/2020 11:28:10	120220	12022020	112810	200.10	12.465222	-57.220588	200.21	-0.420	-0.010	1.900	200.10	-1.30	2.20	 	 	 	 	 	 	 	 	 	 	 	 	 	 	 	 	 	 	1581506890	7.21	13.35
12/02/2020 11:28:11	120220	12022020	112811	200.57	12.465190	-57.220602	200.66	-0.160	-0.100	1.230	200.57	-1.60	1.60	 	 	 	 	 	 	 	 	 	 	 	 	 	 	 	 	 	 	1581506891	7.23	13.39
12/02/2020 11:28:12	120220	12022020	112812	200.70	12.465155	-57.220613	200.78	0.130	-0.690	0.840	200.70	-2.20	1.30	 	 	 	 	 	 	 	 	 	 	 	 	 	 	 	 	 	 	1581506892	7.90	14.63
12/02/2020 11:28:13	120220	12022020	112813	200.49	12.465118	-57.220625	200.57	0.220	-1.110	0.950	200.49	-2.50	1.60	 	 	 	 	 	 	 	 	 	 	 	 	 	 	 	 	 	 	1581506893	8.42	15.59
12/02/2020 11:28:14	120220	12022020	112814	200.05	12.465083	-57.220640	200.13	0.120	-0.890	1.380	200.05	-2.10	2.00	 	 	 	 	 	 	 	 	 	 	 	 	 	 	 	 	 	 	1581506894	8.16	15.11
12/02/2020 11:28:15	120220	12022020	112815	199.56	12.465052	-57.220655	199.67	-0.000	-0.250	1.800	199.56	-1.40	2.40	 	 	 	 	 	 	 	 	 	 	 	 	 	 	 	 	 	 	1581506895	7.65	14.17
12/02/2020 11:28:16	120220	12022020	112816	199.34	12.465018	-57.220668	199.48	-0.110	0.420	2.030	199.34	-0.70	2.50	 	 	 	 	 	 	 	 	 	 	 	 	 	 	 	 	 	 	1581506896	7.48	13.85
12/02/2020 11:28:17	120220	12022020	112817	199.68	12.464987	-57.220683	199.83	-0.280	0.930	1.930	199.68	-0.30	2.30	 	 	 	 	 	 	 	 	 	 	 	 	 	 	 	 	 	 	1581506897	7.46	13.82
12/02/2020 11:28:18	120220	12022020	112818	200.39	12.464957	-57.220698	200.54	-0.390	0.990	1.460	200.39	-0.50	1.80	 	 	 	 	 	 	 	 	 	 	 	 	 	 	 	 	 	 	1581506898	7.38	13.67
12/02/2020 11:28:19	120220	12022020	112819	200.92	12.464923	-57.220712	201.15	-0.220	0.350	1.030	201.02	-1.30	1.50	 	 	 	 	 	 	 	 	 	 	 	 	 	 	 	 	 	 	1581506899	7.60	14.08
12/02/2020 11:28:20	120220	12022020	112820	201.39	12.464888	-57.220727	201.50	0.210	-0.660	0.870	201.39	-2.30	1.40	 	 	 	 	 	 	 	 	 	 	 	 	 	 	 	 	 	 	1581506900	8.17	15.13
12/02/2020 11:28:21	120220	12022020	112821	201.63	12.464852	-57.220742	201.76	0.560	-1.280	0.810	201.63	-2.70	1.30	 	 	 	 	 	 	 	 	 	 	 	 	 	 	 	 	 	 	1581506901	8.35	15.46
12/02/2020 11:28:22	120220	12022020	112822	201.81	12.464818	-57.220755	201.96	0.530	-1.170	0.780	201.81	-2.40	1.30	 	 	 	 	 	 	 	 	 	 	 	 	 	 	 	 	 	 	1581506902	7.81	14.46
12/02/2020 11:28:23	120220	12022020	112823	201.82	12.464788	-57.220767	201.98	0.180	-0.770	0.970	201.82	-2.00	1.60	 	 	 	 	 	 	 	 	 	 	 	 	 	 	 	 	 	 	1581506903	7.21	13.35
12/02/2020 11:28:24	120220	12022020	112824	201.63	12.464757	-57.220780	201.79	-0.240	-0.450	1.340	201.63	-1.70	2.00	 	 	 	 	 	 	 	 	 	 	 	 	 	 	 	 	 	 	1581506904	7.22	13.37
12/02/2020 11:28:25	120220	12022020	112825	201.31	12.464725	-57.220797	201.48	-0.470	-0.350	1.850	201.31	-1.70	2.50	 	 	 	 	 	 	 	 	 	 	 	 	 	 	 	 	 	 	1581506905	7.57	14.02
12/02/2020 11:28:26	120220	12022020	112826	200.94	12.464693	-57.220815	201.12	-0.320	-0.440	2.320	200.94	-1.80	2.90	 	 	 	 	 	 	 	 	 	 	 	 	 	 	 	 	 	 	1581506906	8.04	14.89
12/02/2020 11:28:27	120220	12022020	112827	200.79	12.464658	-57.220833	200.95	0.060	-0.380	2.430	200.79	-1.60	2.90	 	 	 	 	 	 	 	 	 	 	 	 	 	 	 	 	 	 	1581506907	8.34	15.45
12/02/2020 11:28:28	120220	12022020	112828	201.12	12.464623	-57.220848	201.26	0.230	0.080	2.170	201.12	-1.10	2.60	 	 	 	 	 	 	 	 	 	 	 	 	 	 	 	 	 	 	1581506908	8.08	14.96
12/02/2020 11:28:29	120220	12022020	112829	201.62	12.464592	-57.220862	201.73	0.060	0.580	1.770	201.62	-0.70	2.10	 	 	 	 	 	 	 	 	 	 	 	 	 	 	 	 	 	 	1581506909	7.50	13.89
12/02/2020 11:28:30	120220	12022020	112830	201.92	12.464560	-57.220875	202.04	-0.200	0.650	1.380	201.92	-0.80	1.80	 	 	 	 	 	 	 	 	 	 	 	 	 	 	 	 	 	 	1581506910	7.39	13.69
12/02/2020 11:28:31	120220	12022020	112831	202.27	12.464527	-57.220888	202.38	-0.320	0.360	1.030	202.27	-1.10	1.40	 	 	 	 	 	 	 	 	 	 	 	 	 	 	 	 	 	 	1581506911	7.72	14.30
12/02/2020 11:28:32	120220	12022020	112832	202.80	12.464493	-57.220903	202.89	-0.220	0.040	0.580	202.80	-1.40	1.00	 	 	 	 	 	 	 	 	 	 	 	 	 	 	 	 	 	 	1581506912	7.77	14.39
12/02/2020 11:28:33	120220	12022020	112833	203.17	12.464460	-57.220918	203.30	0.070	-0.360	0.330	203.23	-1.90	0.90	 	 	 	 	 	 	 	 	 	 	 	 	 	 	 	 	 	 	1581506913	7.61	14.09
12/02/2020 11:28:34	120220	12022020	112834	203.25	12.464428	-57.220933	203.31	0.480	-1.010	0.530	203.25	-2.60	1.20	 	 	 	 	 	 	 	 	 	 	 	 	 	 	 	 	 	 	1581506914	7.70	14.26
12/02/2020 11:28:35	120220	12022020	112835	202.89	12.464393	-57.220948	202.95	0.730	-1.590	0.990	202.89	-3.00	1.70	 	 	 	 	 	 	 	 	 	 	 	 	 	 	 	 	 	 	1581506915	8.12	15.04
12/02/2020 11:28:36	120220	12022020	112836	202.49	12.464358	-57.220965	202.57	0.580	-1.540	1.490	202.49	-2.70	2.10	 	 	 	 	 	 	 	 	 	 	 	 	 	 	 	 	 	 	1581506916	8.20	15.19
12/02/2020 11:28:37	120220	12022020	112837	202.41	12.464327	-57.220980	202.50	0.040	-0.730	1.790	202.41	-1.70	2.30	 	 	 	 	 	 	 	 	 	 	 	 	 	 	 	 	 	 	1581506917	7.76	14.37
12/02/2020 11:28:38	120220	12022020	112838	202.69	12.464297	-57.220997	202.78	-0.590	0.320	1.750	202.69	-0.80	2.20	 	 	 	 	 	 	 	 	 	 	 	 	 	 	 	 	 	 	1581506918	7.20	13.33
12/02/2020 11:28:39	120220	12022020	112839	203.14	12.464267	-57.221012	203.20	-0.900	0.860	1.570	203.14	-0.50	2.00	 	 	 	 	 	 	 	 	 	 	 	 	 	 	 	 	 	 	1581506919	7.14	13.22
12/02/2020 11:28:40	120220	12022020	112840	203.56	12.464235	-57.221028	203.62	-0.760	0.610	1.450	203.56	-1.00	2.00	 	 	 	 	 	 	 	 	 	 	 	 	 	 	 	 	 	 	1581506920	7.72	14.30
12/02/2020 11:28:41	120220	12022020	112841	203.58	12.464200	-57.221045	203.63	-0.270	-0.140	1.590	203.58	-1.70	2.20	 	 	 	 	 	 	 	 	 	 	 	 	 	 	 	 	 	 	1581506921	8.40	15.56
12/02/2020 11:28:42	120220	12022020	112842	203.12	12.464165	-57.221065	203.19	0.290	-0.720	1.990	203.12	-2.10	2.50	 	 	 	 	 	 	 	 	 	 	 	 	 	 	 	 	 	 	1581506922	8.74	16.19
12/02/2020 11:28:43	120220	12022020	112843	202.86	12.464130	-57.221083	202.95	0.610	-0.460	1.980	202.86	-1.50	2.30	 	 	 	 	 	 	 	 	 	 	 	 	 	 	 	 	 	 	1581506923	8.41	15.58
12/02/2020 11:28:44	120220	12022020	112844	203.12	12.464098	-57.221098	203.23	0.580	0.360	1.440	203.12	-0.80	1.70	 	 	 	 	 	 	 	 	 	 	 	 	 	 	 	 	 	 	1581506924	7.32	13.56
12/02/2020 11:28:45	120220	12022020	112845	203.63	12.464068	-57.221108	203.73	0.330	0.650	0.870	203.63	-0.80	1.30	 	 	 	 	 	 	 	 	 	 	 	 	 	 	 	 	 	 	1581506925	6.80	12.59
12/02/2020 11:28:46	120220	12022020	112846	203.99	12.464037	-57.221120	204.05	0.090	-0.070	0.870	203.99	-1.80	1.50	 	 	 	 	 	 	 	 	 	 	 	 	 	 	 	 	 	 	1581506926	7.41	13.72
12/02/2020 11:28:47	120220	12022020	112847	204.00	12.464002	-57.221138	204.09	-0.060	-1.150	1.500	204.00	-2.70	2.30	 	 	 	 	 	 	 	 	 	 	 	 	 	 	 	 	 	 	1581506927	8.39	15.54
12/02/2020 11:28:48	120220	12022020	112848	204.02	12.463967	-57.221160	204.13	-0.210	-1.550	2.290	204.02	-2.80	3.00	 	 	 	 	 	 	 	 	 	 	 	 	 	 	 	 	 	 	1581506928	8.72	16.15
12/02/2020 11:28:49	120220	12022020	112849	204.17	12.463938	-57.221183	204.27	-0.320	-0.960	2.680	204.17	-2.00	3.20	 	 	 	 	 	 	 	 	 	 	 	 	 	 	 	 	 	 	1581506929	8.01	14.83
12/02/2020 11:28:50	120220	12022020	112850	204.36	12.463910	-57.221202	204.43	-0.220	-0.110	2.420	204.36	-1.30	2.70	 	 	 	 	 	 	 	 	 	 	 	 	 	 	 	 	 	 	1581506930	7.06	13.08
12/02/2020 11:28:51	120220	12022020	112851	204.41	12.463880	-57.221215	204.45	0.110	0.130	1.810	204.41	-1.30	2.10	 	 	 	 	 	 	 	 	 	 	 	 	 	 	 	 	 	 	1581506931	7.09	13.13
12/02/2020 11:28:52	120220	12022020	112852	204.41	12.463845	-57.221227	204.42	0.440	-0.210	1.170	204.41	-1.70	1.50	 	 	 	 	 	 	 	 	 	 	 	 	 	 	 	 	 	 	1581506932	8.03	14.87
12/02/2020 11:28:53	120220	12022020	112853	204.51	12.463807	-57.221238	204.52	0.410	-0.460	0.770	204.51	-1.80	1.20	 	 	 	 	 	 	 	 	 	 	 	 	 	 	 	 	 	 	1581506933	8.57	15.87
12/02/2020 11:28:54	120220	12022020	112854	204.65	12.463770	-57.221252	204.66	-0.010	-0.350	0.820	204.65	-1.60	1.50	 	 	 	 	 	 	 	 	 	 	 	 	 	 	 	 	 	 	1581506934	8.24	15.26
12/02/2020 11:28:55	120220	12022020	112855	204.67	12.463738	-57.221268	204.68	-0.500	-0.150	1.370	204.67	-1.50	2.10	 	 	 	 	 	 	 	 	 	 	 	 	 	 	 	 	 	 	1581506935	7.79	14.43
12/02/2020 11:28:56	120220	12022020	112856	204.61	12.463708	-57.221290	204.63	-0.710	-0.100	2.100	204.61	-1.40	2.80	 	 	 	 	 	 	 	 	 	 	 	 	 	 	 	 	 	 	1581506936	7.89	14.61
12/02/2020 11:28:57	120220	12022020	112857	204.61	12.463678	-57.221313	204.63	-0.550	0.020	2.520	204.61	-1.30	3.00	 	 	 	 	 	 	 	 	 	 	 	 	 	 	 	 	 	 	1581506937	8.15	15.09
12/02/2020 11:28:58	120220	12022020	112858	204.68	12.463648	-57.221335	204.70	-0.190	0.250	2.370	204.68	-1.10	2.70	 	 	 	 	 	 	 	 	 	 	 	 	 	 	 	 	 	 	1581506938	7.91	14.65
12/02/2020 11:28:59	120220	12022020	112859	204.78	12.463617	-57.221352	204.79	0.180	0.250	1.780	204.78	-1.20	2.00	 	 	 	 	 	 	 	 	 	 	 	 	 	 	 	 	 	 	1581506939	7.64	14.15
12/02/2020 11:29:00	120220	12022020	112900	204.92	12.463583	-57.221365	204.91	0.430	-0.000	1.030	204.92	-1.40	1.30	 	 	 	 	 	 	 	 	 	 	 	 	 	 	 	 	 	 	1581506940	7.82	14.48
12/02/2020 11:29:01	120220	12022020	112901	205.07	12.463548	-57.221378	205.05	0.540	-0.280	0.430	205.07	-1.80	0.80	1015.90	26.30	26.40	21.00	21.00	166.0	72.0	72.0	419.0	26.6	250.00	8.30	71.00	10.40	12561	8281.0	27.5	27.5	1581506941	7.89	14.61
12/02/2020 11:29:02	120220	12022020	112902	205.21	12.463513	-57.221390	205.19	0.500	-0.630	0.090	205.21	-2.10	0.60	 	 	 	 	 	 	 	 	 	 	 	 	 	 	 	 	 	 	1581506942	7.84	14.52
12/02/2020 11:29:03	120220	12022020	112903	205.28	12.463480	-57.221405	205.25	0.380	-0.910	0.140	205.28	-2.30	0.80	 	 	 	 	 	 	 	 	 	 	 	 	 	 	 	 	 	 	1581506943	7.87	14.58
12/02/2020 11:29:04	120220	12022020	112904	205.26	12.463448	-57.221422	205.24	0.240	-0.940	0.520	205.26	-2.20	1.20	 	 	 	 	 	 	 	 	 	 	 	 	 	 	 	 	 	 	1581506944	7.88	14.59
12/02/2020 11:29:05	120220	12022020	112905	205.27	12.463417	-57.221440	205.26	0.020	-0.670	0.980	205.27	-1.90	1.60	 	 	 	 	 	 	 	 	 	 	 	 	 	 	 	 	 	 	1581506945	7.75	14.35
12/02/2020 11:29:06	120220	12022020	112906	205.24	12.463385	-57.221458	205.24	-0.270	-0.380	1.570	205.24	-1.70	2.30	 	 	 	 	 	 	 	 	 	 	 	 	 	 	 	 	 	 	1581506946	7.64	14.15
12/02/2020 11:29:07	120220	12022020	112907	205.14	12.463355	-57.221478	205.16	-0.530	-0.260	2.220	205.14	-1.60	2.90	 	 	 	 	 	 	 	 	 	 	 	 	 	 	 	 	 	 	1581506947	7.90	14.63
12/02/2020 11:29:08	120220	12022020	112908	205.01	12.463323	-57.221500	205.03	-0.640	-0.190	2.530	205.01	-1.50	3.00	 	 	 	 	 	 	 	 	 	 	 	 	 	 	 	 	 	 	1581506948	8.17	15.13
12/02/2020 11:29:09	120220	12022020	112909	204.90	12.463290	-57.221522	204.89	-0.560	-0.120	2.450	204.88	-1.40	2.80	 	 	 	 	 	 	 	 	 	 	 	 	 	 	 	 	 	 	1581506949	8.23	15.24
12/02/2020 11:29:10	120220	12022020	112910	204.89	12.463258	-57.221540	204.90	-0.280	0.030	2.030	204.89	-1.30	2.30	 	 	 	 	 	 	 	 	 	 	 	 	 	 	 	 	 	 	1581506950	8.18	15.15
12/02/2020 11:29:11	120220	12022020	112911	205.07	12.463225	-57.221557	205.10	0.160	0.240	1.290	205.13	-1.10	1.50	 	 	 	 	 	 	 	 	 	 	 	 	 	 	 	 	 	 	1581506951	7.96	14.74
12/02/2020 11:29:12	120220	12022020	112912	205.41	12.463190	-57.221570	205.37	0.530	0.250	0.610	205.41	-1.20	1.00	 	 	 	 	 	 	 	 	 	 	 	 	 	 	 	 	 	 	1581506952	7.84	14.52
12/02/2020 11:29:13	120220	12022020	112913	205.59	12.463155	-57.221582	205.56	0.610	0.040	0.280	205.59	-1.40	0.80	 	 	 	 	 	 	 	 	 	 	 	 	 	 	 	 	 	 	1581506953	7.92	14.67
12/02/2020 11:29:14	120220	12022020	112914	205.62	12.463122	-57.221595	205.58	0.400	-0.250	0.400	205.62	-1.70	1.00	 	 	 	 	 	 	 	 	 	 	 	 	 	 	 	 	 	 	1581506954	7.94	14.70
12/02/2020 11:29:15	120220	12022020	112915	205.48	12.463088	-57.221613	205.47	0.080	-0.510	1.000	205.48	-1.90	1.70	 	 	 	 	 	 	 	 	 	 	 	 	 	 	 	 	 	 	1581506955	7.94	14.70
12/02/2020 11:29:16	120220	12022020	112916	205.43	12.463058	-57.221635	205.45	-0.220	-0.580	1.810	205.43	-2.00	2.50	 	 	 	 	 	 	 	 	 	 	 	 	 	 	 	 	 	 	1581506956	7.99	14.80
12/02/2020 11:29:17	120220	12022020	112917	205.51	12.463028	-57.221657	205.53	-0.350	-0.530	2.470	205.51	-1.90	3.00	 	 	 	 	 	 	 	 	 	 	 	 	 	 	 	 	 	 	1581506957	7.94	14.70
12/02/2020 11:29:18	120220	12022020	112918	205.70	12.463000	-57.221680	205.72	-0.270	-0.480	2.620	205.70	-1.90	3.00	 	 	 	 	 	 	 	 	 	 	 	 	 	 	 	 	 	 	1581506958	7.89	14.61
12/02/2020 11:29:19	120220	12022020	112919	205.84	12.462968	-57.221700	205.87	-0.030	-0.470	2.300	205.84	-1.90	2.60	 	 	 	 	 	 	 	 	 	 	 	 	 	 	 	 	 	 	1581506959	7.82	14.48
12/02/2020 11:29:20	120220	12022020	112920	205.88	12.462937	-57.221718	205.90	0.210	-0.440	1.720	205.88	-1.80	2.00	 	 	 	 	 	 	 	 	 	 	 	 	 	 	 	 	 	 	1581506960	7.87	14.58
12/02/2020 11:29:21	120220	12022020	112921	205.87	12.462903	-57.221732	205.86	0.370	-0.360	1.110	205.87	-1.70	1.40	 	 	 	 	 	 	 	 	 	 	 	 	 	 	 	 	 	 	1581506961	7.92	14.67
12/02/2020 11:29:22	120220	12022020	112922	206.00	12.462868	-57.221747	205.96	0.370	-0.190	0.610	206.00	-1.50	1.00	 	 	 	 	 	 	 	 	 	 	 	 	 	 	 	 	 	 	1581506962	7.94	14.70
12/02/2020 11:29:23	120220	12022020	112923	206.16	12.462835	-57.221760	206.17	0.130	-0.180	0.650	206.19	-1.60	1.30	 	 	 	 	 	 	 	 	 	 	 	 	 	 	 	 	 	 	1581506963	7.89	14.61
12/02/2020 11:29:24	120220	12022020	112924	206.23	12.462802	-57.221778	206.23	-0.280	-0.420	1.430	206.23	-1.90	2.30	 	 	 	 	 	 	 	 	 	 	 	 	 	 	 	 	 	 	1581506964	8.07	14.95
12/02/2020 11:29:25	120220	12022020	112925	205.88	12.462770	-57.221802	205.90	-0.580	-0.640	2.500	205.88	-2.00	3.30	 	 	 	 	 	 	 	 	 	 	 	 	 	 	 	 	 	 	1581506965	8.45	15.65
12/02/2020 11:29:26	120220	12022020	112926	205.34	12.462740	-57.221828	205.38	-0.560	-0.470	3.270	205.34	-1.70	3.80	 	 	 	 	 	 	 	 	 	 	 	 	 	 	 	 	 	 	1581506966	8.53	15.80
12/02/2020 11:29:27	120220	12022020	112927	205.07	12.462710	-57.221852	205.12	-0.300	0.110	3.260	205.07	-1.00	3.60	 	 	 	 	 	 	 	 	 	 	 	 	 	 	 	 	 	 	1581506967	8.11	15.02
12/02/2020 11:29:28	120220	12022020	112928	205.20	12.462678	-57.221868	205.23	0.000	0.730	2.540	205.20	-0.60	2.70	 	 	 	 	 	 	 	 	 	 	 	 	 	 	 	 	 	 	1581506968	7.51	13.91
12/02/2020 11:29:29	120220	12022020	112929	205.57	12.462647	-57.221882	205.57	0.240	0.800	1.490	205.57	-0.70	1.70	 	 	 	 	 	 	 	 	 	 	 	 	 	 	 	 	 	 	1581506969	7.42	13.74
12/02/2020 11:29:30	120220	12022020	112930	205.99	12.462612	-57.221893	205.97	0.380	0.230	0.740	205.99	-1.40	1.20	 	 	 	 	 	 	 	 	 	 	 	 	 	 	 	 	 	 	1581506970	7.84	14.52
12/02/2020 11:29:31	120220	12022020	112931	206.20	12.462577	-57.221908	206.18	0.390	-0.630	0.850	206.20	-2.30	1.60	 	 	 	 	 	 	 	 	 	 	 	 	 	 	 	 	 	 	1581506971	8.16	15.11
12/02/2020 11:29:32	120220	12022020	112932	205.86	12.462545	-57.221928	205.84	0.370	-1.390	1.700	205.86	-3.00	2.50	 	 	 	 	 	 	 	 	 	 	 	 	 	 	 	 	 	 	1581506972	8.25	15.28
12/02/2020 11:29:33	120220	12022020	112933	205.03	12.462513	-57.221952	205.04	0.340	-1.810	2.670	205.03	-3.20	3.40	 	 	 	 	 	 	 	 	 	 	 	 	 	 	 	 	 	 	1581506973	8.36	15.48
12/02/2020 11:29:34	120220	12022020	112934	204.43	12.462482	-57.221973	204.46	0.170	-1.420	3.050	204.43	-2.50	3.50	 	 	 	 	 	 	 	 	 	 	 	 	 	 	 	 	 	 	1581506974	8.28	15.33
12/02/2020 11:29:35	120220	12022020	112935	204.31	12.462452	-57.221993	204.36	-0.170	-0.430	2.710	204.31	-1.50	3.00	 	 	 	 	 	 	 	 	 	 	 	 	 	 	 	 	 	 	1581506975	7.62	14.11
12/02/2020 11:29:36	120220	12022020	112936	204.54	12.462423	-57.222010	204.57	-0.450	0.400	2.000	204.54	-0.90	2.20	 	 	 	 	 	 	 	 	 	 	 	 	 	 	 	 	 	 	1581506976	7.20	13.33
12/02/2020 11:29:37	120220	12022020	112937	204.93	12.462390	-57.222027	204.94	-0.480	0.570	1.300	204.93	-0.90	1.70	 	 	 	 	 	 	 	 	 	 	 	 	 	 	 	 	 	 	1581506977	7.61	14.09
12/02/2020 11:29:38	120220	12022020	112938	205.23	12.462355	-57.222042	205.24	-0.280	0.310	1.040	205.23	-1.20	1.60	 	 	 	 	 	 	 	 	 	 	 	 	 	 	 	 	 	 	1581506978	8.26	15.30
12/02/2020 11:29:39	120220	12022020	112939	205.45	12.462320	-57.222060	205.46	-0.080	0.050	1.160	205.45	-1.40	1.70	 	 	 	 	 	 	 	 	 	 	 	 	 	 	 	 	 	 	1581506979	8.53	15.80
12/02/2020 11:29:40	120220	12022020	112940	205.69	12.462287	-57.222078	205.69	-0.010	0.060	1.380	205.69	-1.30	1.90	 	 	 	 	 	 	 	 	 	 	 	 	 	 	 	 	 	 	1581506980	8.25	15.28
12/02/2020 11:29:41	120220	12022020	112941	206.01	12.462255	-57.222095	206.01	-0.030	0.220	1.430	206.01	-1.20	1.90	 	 	 	 	 	 	 	 	 	 	 	 	 	 	 	 	 	 	1581506981	7.76	14.37
12/02/2020 11:29:42	120220	12022020	112942	206.29	12.462223	-57.222112	206.27	-0.030	0.180	1.300	206.29	-1.30	1.70	 	 	 	 	 	 	 	 	 	 	 	 	 	 	 	 	 	 	1581506982	7.40	13.70
12/02/2020 11:29:43	120220	12022020	112943	206.39	12.462193	-57.222128	206.39	0.070	-0.290	1.140	206.39	-1.90	1.60	 	 	 	 	 	 	 	 	 	 	 	 	 	 	 	 	 	 	1581506983	7.55	13.98
12/02/2020 11:29:44	120220	12022020	112944	206.21	12.462160	-57.222145	206.21	0.260	-0.960	1.180	206.21	-2.60	1.80	 	 	 	 	 	 	 	 	 	 	 	 	 	 	 	 	 	 	1581506984	7.95	14.72
12/02/2020 11:29:45	120220	12022020	112945	205.71	12.462125	-57.222163	205.72	0.450	-1.460	1.530	205.71	-2.90	2.20	 	 	 	 	 	 	 	 	 	 	 	 	 	 	 	 	 	 	1581506985	8.23	15.24
12/02/2020 11:29:46	120220	12022020	112946	205.23	12.462092	-57.222182	205.25	0.430	-1.470	1.980	205.23	-2.80	2.70	 	 	 	 	 	 	 	 	 	 	 	 	 	 	 	 	 	 	1581506986	8.25	15.28
12/02/2020 11:29:47	120220	12022020	112947	204.82	12.462060	-57.222202	204.84	0.140	-1.060	2.540	204.82	-2.20	3.20	 	 	 	 	 	 	 	 	 	 	 	 	 	 	 	 	 	 	1581506987	8.07	14.95
12/02/2020 11:29:48	120220	12022020	112948	204.53	12.462030	-57.222223	204.56	-0.290	-0.310	2.960	204.53	-1.40	3.50	 	 	 	 	 	 	 	 	 	 	 	 	 	 	 	 	 	 	1581506988	8.04	14.89
12/02/2020 11:29:49	120220	12022020	112949	204.63	12.462000	-57.222247	204.67	-0.630	0.690	2.840	204.63	-0.40	3.10	 	 	 	 	 	 	 	 	 	 	 	 	 	 	 	 	 	 	1581506989	7.84	14.52
12/02/2020 11:29:50	120220	12022020	112950	205.08	12.461972	-57.222267	205.11	-0.670	1.330	2.110	205.08	-0.10	2.30	 	 	 	 	 	 	 	 	 	 	 	 	 	 	 	 	 	 	1581506990	7.47	13.83
12/02/2020 11:29:51	120220	12022020	112951	205.58	12.461940	-57.222283	205.58	-0.350	1.100	1.150	205.58	-0.50	1.40	 	 	 	 	 	 	 	 	 	 	 	 	 	 	 	 	 	 	1581506991	7.66	14.19
12/02/2020 11:29:52	120220	12022020	112952	205.96	12.461905	-57.222297	205.93	0.120	0.230	0.320	205.96	-1.50	0.60	 	 	 	 	 	 	 	 	 	 	 	 	 	 	 	 	 	 	1581506992	8.30	15.37
12/02/2020 11:29:53	120220	12022020	112953	206.14	12.461867	-57.222310	206.13	0.440	-0.700	-0.090	206.14	-2.30	0.40	 	 	 	 	 	 	 	 	 	 	 	 	 	 	 	 	 	 	1581506993	8.66	16.04
12/02/2020 11:29:54	120220	12022020	112954	206.18	12.461830	-57.222325	206.17	0.450	-1.150	0.100	206.18	-2.60	0.80	 	 	 	 	 	 	 	 	 	 	 	 	 	 	 	 	 	 	1581506994	8.43	15.61
12/02/2020 11:29:55	120220	12022020	112955	206.09	12.461797	-57.222340	206.09	0.190	-1.130	0.820	206.09	-2.50	1.60	 	 	 	 	 	 	 	 	 	 	 	 	 	 	 	 	 	 	1581506995	7.88	14.59
12/02/2020 11:29:56	120220	12022020	112956	205.84	12.461767	-57.222360	205.87	-0.110	-0.890	1.870	205.84	-2.20	2.70	 	 	 	 	 	 	 	 	 	 	 	 	 	 	 	 	 	 	1581506996	7.66	14.19
12/02/2020 11:29:57	120220	12022020	112957	205.62	12.461738	-57.222383	205.66	-0.250	-0.430	2.640	205.62	-1.60	3.20	 	 	 	 	 	 	 	 	 	 	 	 	 	 	 	 	 	 	1581506997	7.79	14.43
12/02/2020 11:29:58	120220	12022020	112958	205.72	12.461710	-57.222403	205.74	-0.290	0.170	2.630	205.72	-1.10	3.00	 	 	 	 	 	 	 	 	 	 	 	 	 	 	 	 	 	 	1581506998	7.55	13.98
12/02/2020 11:29:59	120220	12022020	112959	205.76	12.461680	-57.222422	205.72	-0.180	0.140	2.310	205.73	-1.50	2.70	 	 	 	 	 	 	 	 	 	 	 	 	 	 	 	 	 	 	1581506999	7.38	13.67
12/02/2020 11:30:00	120220	12022020	113000	205.28	12.461647	-57.222440	205.27	0.140	-0.690	2.150	205.28	-2.40	2.60	 	 	 	 	 	 	 	 	 	 	 	 	 	 	 	 	 	 	1581507000	8.23	15.24
12/02/2020 11:30:01	120220	12022020	113001	204.80	12.461608	-57.222460	204.67	0.470	-1.230	2.090	204.69	-2.60	2.60	1016.00	26.20	26.30	20.80	20.90	214.0	72.0	72.0	419.0	26.7	247.00	8.20	72.00	10.50	13756	9540.0	27.5	27.5	1581507001	9.04	16.74
12/02/2020 11:30:02	120220	12022020	113002	204.24	12.461573	-57.222478	204.22	0.490	-0.810	2.090	204.24	-1.90	2.60	 	 	 	 	 	 	 	 	 	 	 	 	 	 	 	 	 	 	1581507002	8.62	15.96
12/02/2020 11:30:03	120220	12022020	113003	204.05	12.461540	-57.222493	204.05	0.080	0.090	2.170	204.05	-1.00	2.70	 	 	 	 	 	 	 	 	 	 	 	 	 	 	 	 	 	 	1581507003	7.77	14.39
12/02/2020 11:30:04	120220	12022020	113004	204.34	12.461510	-57.222512	204.35	-0.540	0.870	2.200	204.34	-0.30	2.70	 	 	 	 	 	 	 	 	 	 	 	 	 	 	 	 	 	 	1581507004	7.50	13.89
12/02/2020 11:30:05	120220	12022020	113005	205.11	12.461480	-57.222530	205.11	-0.970	1.300	1.990	205.11	-0.10	2.30	 	 	 	 	 	 	 	 	 	 	 	 	 	 	 	 	 	 	1581507005	7.52	13.93
12/02/2020 11:30:06	120220	12022020	113006	206.06	12.461450	-57.222550	206.04	-0.810	1.140	1.350	206.06	-0.50	1.60	 	 	 	 	 	 	 	 	 	 	 	 	 	 	 	 	 	 	1581507006	7.63	14.13
12/02/2020 11:30:07	120220	12022020	113007	206.90	12.461418	-57.222567	206.85	-0.030	0.300	0.480	206.90	-1.50	0.80	 	 	 	 	 	 	 	 	 	 	 	 	 	 	 	 	 	 	1581507007	7.90	14.63
12/02/2020 11:30:08	120220	12022020	113008	207.28	12.461382	-57.222582	207.23	0.790	-0.890	0.050	207.28	-2.70	0.60	 	 	 	 	 	 	 	 	 	 	 	 	 	 	 	 	 	 	1581507008	8.34	15.45
12/02/2020 11:30:09	120220	12022020	113009	206.97	12.461347	-57.222597	206.95	1.050	-1.880	0.440	206.97	-3.50	1.20	 	 	 	 	 	 	 	 	 	 	 	 	 	 	 	 	 	 	1581507009	8.46	15.67
12/02/2020 11:30:10	120220	12022020	113010	206.10	12.461312	-57.222615	206.10	0.730	-2.200	1.450	206.10	-3.50	2.30	 	 	 	 	 	 	 	 	 	 	 	 	 	 	 	 	 	 	1581507010	8.23	15.24
12/02/2020 11:30:11	120220	12022020	113011	205.25	12.461282	-57.222637	205.27	0.210	-1.600	2.430	205.25	-2.60	3.10	 	 	 	 	 	 	 	 	 	 	 	 	 	 	 	 	 	 	1581507011	7.96	14.74
12/02/2020 11:30:12	120220	12022020	113012	204.77	12.461253	-57.222657	204.80	-0.170	-0.420	2.890	204.77	-1.50	3.40	 	 	 	 	 	 	 	 	 	 	 	 	 	 	 	 	 	 	1581507012	7.47	13.83
12/02/2020 11:30:13	120220	12022020	113013	204.64	12.461225	-57.222675	204.66	-0.390	0.470	2.810	204.64	-0.80	3.20	 	 	 	 	 	 	 	 	 	 	 	 	 	 	 	 	 	 	1581507013	7.30	13.52
12/02/2020 11:30:14	120220	12022020	113014	204.86	12.461193	-57.222693	204.86	-0.530	0.720	2.300	204.86	-0.70	2.50	 	 	 	 	 	 	 	 	 	 	 	 	 	 	 	 	 	 	1581507014	7.84	14.52
12/02/2020 11:30:15	120220	12022020	113015	205.32	12.461158	-57.222713	205.32	-0.580	0.590	1.530	205.32	-0.90	1.80	 	 	 	 	 	 	 	 	 	 	 	 	 	 	 	 	 	 	1581507015	8.35	15.46
12/02/2020 11:30:16	120220	12022020	113016	205.77	12.461123	-57.222730	205.74	-0.430	0.400	0.850	205.77	-1.10	1.20	 	 	 	 	 	 	 	 	 	 	 	 	 	 	 	 	 	 	1581507016	8.38	15.52
12/02/2020 11:30:17	120220	12022020	113017	206.00	12.461090	-57.222747	205.96	-0.110	0.170	0.590	206.00	-1.30	1.20	 	 	 	 	 	 	 	 	 	 	 	 	 	 	 	 	 	 	1581507017	8.18	15.15
12/02/2020 11:30:18	120220	12022020	113018	205.88	12.461055	-57.222763	205.84	0.150	-0.130	0.990	205.88	-1.60	1.70	 	 	 	 	 	 	 	 	 	 	 	 	 	 	 	 	 	 	1581507018	8.02	14.85
12/02/2020 11:30:19	120220	12022020	113019	205.48	12.461023	-57.222782	205.45	0.200	-0.410	1.620	205.48	-1.90	2.30	 	 	 	 	 	 	 	 	 	 	 	 	 	 	 	 	 	 	1581507019	8.01	14.83
12/02/2020 11:30:20	120220	12022020	113020	205.18	12.460993	-57.222803	205.16	0.110	-0.420	2.090	205.18	-1.70	2.60	 	 	 	 	 	 	 	 	 	 	 	 	 	 	 	 	 	 	1581507020	7.94	14.70
12/02/2020 11:30:21	120220	12022020	113021	205.24	12.460965	-57.222823	205.21	0.090	-0.150	2.000	205.24	-1.50	2.40	 	 	 	 	 	 	 	 	 	 	 	 	 	 	 	 	 	 	1581507021	7.55	13.98
12/02/2020 11:30:22	120220	12022020	113022	205.36	12.460935	-57.222842	205.34	0.250	-0.170	1.570	205.36	-1.70	1.90	 	 	 	 	 	 	 	 	 	 	 	 	 	 	 	 	 	 	1581507022	7.16	13.26
12/02/2020 11:30:23	120220	12022020	113023	205.25	12.460903	-57.222857	205.21	0.510	-0.740	1.260	205.25	-2.30	1.70	 	 	 	 	 	 	 	 	 	 	 	 	 	 	 	 	 	 	1581507023	7.63	14.13
12/02/2020 11:30:24	120220	12022020	113024	204.93	12.460868	-57.222872	204.90	0.590	-1.270	1.250	204.93	-2.70	1.80	 	 	 	 	 	 	 	 	 	 	 	 	 	 	 	 	 	 	1581507024	8.26	15.30
12/02/2020 11:30:25	120220	12022020	113025	204.54	12.460833	-57.222888	204.51	0.380	-1.230	1.490	204.54	-2.40	2.10	 	 	 	 	 	 	 	 	 	 	 	 	 	 	 	 	 	 	1581507025	8.28	15.33
12/02/2020 11:30:26	120220	12022020	113026	204.45	12.460802	-57.222907	204.44	-0.020	-0.460	1.750	204.45	-1.50	2.30	 	 	 	 	 	 	 	 	 	 	 	 	 	 	 	 	 	 	1581507026	7.88	14.59
12/02/2020 11:30:27	120220	12022020	113027	204.82	12.460772	-57.222925	204.82	-0.350	0.520	1.850	204.82	-0.70	2.30	 	 	 	 	 	 	 	 	 	 	 	 	 	 	 	 	 	 	1581507027	7.31	13.54
12/02/2020 11:30:28	120220	12022020	113028	205.42	12.460743	-57.222942	205.42	-0.420	0.920	1.650	205.42	-0.50	2.00	 	 	 	 	 	 	 	 	 	 	 	 	 	 	 	 	 	 	1581507028	7.25	13.43
12/02/2020 11:30:29	120220	12022020	113029	206.05	12.460712	-57.222958	206.04	-0.270	0.520	1.340	206.05	-1.20	1.80	 	 	 	 	 	 	 	 	 	 	 	 	 	 	 	 	 	 	1581507029	7.78	14.41
12/02/2020 11:30:30	120220	12022020	113030	206.21	12.460677	-57.222977	206.19	-0.050	-0.550	1.360	206.21	-2.30	2.00	 	 	 	 	 	 	 	 	 	 	 	 	 	 	 	 	 	 	1581507030	8.37	15.50
12/02/2020 11:30:31	120220	12022020	113031	205.42	12.460640	-57.222997	205.42	0.090	-1.690	2.190	205.42	-3.20	3.10	 	 	 	 	 	 	 	 	 	 	 	 	 	 	 	 	 	 	1581507031	8.96	16.59
12/02/2020 11:30:32	120220	12022020	113032	204.30	12.460603	-57.223020	204.34	-0.100	-1.740	3.380	204.30	-2.80	4.20	 	 	 	 	 	 	 	 	 	 	 	 	 	 	 	 	 	 	1581507032	9.07	16.80
12/02/2020 11:30:33	120220	12022020	113033	203.63	12.460575	-57.223045	203.69	-0.490	-0.540	4.070	203.63	-1.40	4.60	 	 	 	 	 	 	 	 	 	 	 	 	 	 	 	 	 	 	1581507033	8.15	15.09
12/02/2020 11:30:34	120220	12022020	113034	203.56	12.460550	-57.223067	203.62	-0.650	0.940	3.800	203.56	-0.10	4.00	 	 	 	 	 	 	 	 	 	 	 	 	 	 	 	 	 	 	1581507034	7.11	13.17
12/02/2020 11:30:35	120220	12022020	113035	204.01	12.460523	-57.223085	204.06	-0.310	1.540	2.650	204.01	0.10	2.60	 	 	 	 	 	 	 	 	 	 	 	 	 	 	 	 	 	 	1581507035	6.84	12.67
12/02/2020 11:30:36	120220	12022020	113036	204.97	12.460492	-57.223098	205.02	0.310	1.180	0.960	204.97	-0.50	0.90	 	 	 	 	 	 	 	 	 	 	 	 	 	 	 	 	 	 	1581507036	7.55	13.98
12/02/2020 11:30:37	120220	12022020	113037	206.15	12.460455	-57.223110	206.15	0.860	0.370	-0.620	206.15	-1.30	-0.50	 	 	 	 	 	 	 	 	 	 	 	 	 	 	 	 	 	 	1581507037	8.16	15.11
12/02/2020 11:30:38	120220	12022020	113038	207.06	12.460418	-57.223120	207.03	1.150	-0.570	-1.450	207.06	-2.30	-1.00	 	 	 	 	 	 	 	 	 	 	 	 	 	 	 	 	 	 	1581507038	8.20	15.19
12/02/2020 11:30:39	120220	12022020	113039	207.37	12.460383	-57.223132	207.35	1.180	-1.480	-1.110	207.37	-3.10	-0.30	 	 	 	 	 	 	 	 	 	 	 	 	 	 	 	 	 	 	1581507039	8.08	14.96
12/02/2020 11:30:40	120220	12022020	113040	207.04	12.460348	-57.223148	207.08	0.860	-1.990	0.300	207.04	-3.40	1.40	 	 	 	 	 	 	 	 	 	 	 	 	 	 	 	 	 	 	1581507040	7.99	14.80
12/02/2020 11:30:41	120220	12022020	113041	206.32	12.460318	-57.223168	206.37	0.080	-1.900	2.180	206.32	-3.10	3.20	 	 	 	 	 	 	 	 	 	 	 	 	 	 	 	 	 	 	1581507041	7.87	14.58
12/02/2020 11:30:42	120220	12022020	113042	205.45	12.460290	-57.223193	205.54	-0.910	-1.410	3.830	205.45	-2.60	4.70	 	 	 	 	 	 	 	 	 	 	 	 	 	 	 	 	 	 	1581507042	7.99	14.80
12/02/2020 11:30:43	120220	12022020	113043	204.75	12.460263	-57.223222	204.86	-1.630	-0.710	4.690	204.75	-1.80	5.20	 	 	 	 	 	 	 	 	 	 	 	 	 	 	 	 	 	 	1581507043	8.37	15.50
12/02/2020 11:30:44	120220	12022020	113044	204.47	12.460237	-57.223252	204.58	-1.680	0.210	4.420	204.47	-0.90	4.60	 	 	 	 	 	 	 	 	 	 	 	 	 	 	 	 	 	 	1581507044	8.42	15.59
12/02/2020 11:30:45	120220	12022020	113045	204.54	12.460208	-57.223273	204.64	-1.050	0.980	3.200	204.54	-0.30	3.20	 	 	 	 	 	 	 	 	 	 	 	 	 	 	 	 	 	 	1581507045	7.90	14.63
12/02/2020 11:30:46	120220	12022020	113046	204.79	12.460175	-57.223290	204.84	-0.120	1.200	1.560	204.79	-0.20	1.50	 	 	 	 	 	 	 	 	 	 	 	 	 	 	 	 	 	 	1581507046	7.78	14.41
12/02/2020 11:30:47	120220	12022020	113047	205.18	12.460140	-57.223302	205.18	0.600	0.940	0.040	205.18	-0.60	0.10	 	 	 	 	 	 	 	 	 	 	 	 	 	 	 	 	 	 	1581507047	8.16	15.11
12/02/2020 11:30:48	120220	12022020	113048	205.73	12.460102	-57.223312	205.71	0.870	0.490	-0.990	205.73	-1.10	-0.70	 	 	 	 	 	 	 	 	 	 	 	 	 	 	 	 	 	 	1581507048	8.22	15.22
12/02/2020 11:30:49	120220	12022020	113049	206.10	12.460067	-57.223323	206.13	0.830	-0.070	-1.280	206.17	-1.70	-0.70	 	 	 	 	 	 	 	 	 	 	 	 	 	 	 	 	 	 	1581507049	7.94	14.70
12/02/2020 11:30:50	120220	12022020	113050	206.33	12.460035	-57.223338	206.30	0.720	-0.580	-0.620	206.33	-2.10	0.30	 	 	 	 	 	 	 	 	 	 	 	 	 	 	 	 	 	 	1581507050	7.73	14.32
12/02/2020 11:30:51	120220	12022020	113051	206.09	12.460005	-57.223357	206.08	0.550	-0.900	0.800	206.09	-2.40	1.80	 	 	 	 	 	 	 	 	 	 	 	 	 	 	 	 	 	 	1581507051	7.56	14.00
12/02/2020 11:30:52	120220	12022020	113052	205.52	12.459977	-57.223380	205.55	0.290	-1.040	2.410	205.52	-2.40	3.30	 	 	 	 	 	 	 	 	 	 	 	 	 	 	 	 	 	 	1581507052	7.64	14.15
12/02/2020 11:30:53	120220	12022020	113053	205.08	12.459950	-57.223403	205.03	-0.040	-0.930	3.470	204.99	-2.20	4.10	 	 	 	 	 	 	 	 	 	 	 	 	 	 	 	 	 	 	1581507053	7.76	14.37
12/02/2020 11:30:54	120220	12022020	113054	204.78	12.459922	-57.223427	204.82	-0.320	-0.660	3.570	204.78	-2.00	3.90	 	 	 	 	 	 	 	 	 	 	 	 	 	 	 	 	 	 	1581507054	7.63	14.13
12/02/2020 11:30:55	120220	12022020	113055	204.83	12.459892	-57.223445	204.87	-0.390	-0.470	2.990	204.83	-1.90	3.20	 	 	 	 	 	 	 	 	 	 	 	 	 	 	 	 	 	 	1581507055	7.47	13.83
12/02/2020 11:30:56	120220	12022020	113056	204.88	12.459860	-57.223462	204.89	-0.210	-0.580	2.140	204.88	-2.10	2.40	 	 	 	 	 	 	 	 	 	 	 	 	 	 	 	 	 	 	1581507056	7.68	14.22
12/02/2020 11:30:57	120220	12022020	113057	204.78	12.459825	-57.223477	204.75	0.050	-0.860	1.530	204.78	-2.30	1.90	 	 	 	 	 	 	 	 	 	 	 	 	 	 	 	 	 	 	1581507057	8.15	15.09
12/02/2020 11:30:58	120220	12022020	113058	204.51	12.459790	-57.223492	204.49	0.090	-0.840	1.430	204.51	-2.10	2.00	 	 	 	 	 	 	 	 	 	 	 	 	 	 	 	 	 	 	1581507058	8.39	15.54
12/02/2020 11:30:59	120220	12022020	113059	204.29	12.459755	-57.223508	204.28	-0.200	-0.200	1.550	204.29	-1.30	2.10	 	 	 	 	 	 	 	 	 	 	 	 	 	 	 	 	 	 	1581507059	8.11	15.02
12/02/2020 11:31:00	120220	12022020	113100	204.34	12.459727	-57.223527	204.34	-0.620	0.770	1.570	204.34	-0.40	2.10	 	 	 	 	 	 	 	 	 	 	 	 	 	 	 	 	 	 	1581507060	7.51	13.91
12/02/2020 11:31:01	120220	12022020	113101	204.53	12.459698	-57.223547	204.52	-0.740	1.220	1.520	204.53	-0.20	2.00	1016.00	26.30	26.40	21.20	21.20	191.0	73.0	73.0	418.0	26.7	253.00	8.50	77.00	10.40	13622	8481.0	27.5	27.5	1581507061	7.21	13.35
12/02/2020 11:31:02	120220	12022020	113102	204.76	12.459667	-57.223565	204.72	-0.310	0.840	1.390	204.76	-0.80	1.80	 	 	 	 	 	 	 	 	 	 	 	 	 	 	 	 	 	 	1581507062	7.71	14.28
12/02/2020 11:31:03	120220	12022020	113103	205.07	12.459633	-57.223583	205.04	0.450	0.210	1.030	205.07	-1.30	1.40	 	 	 	 	 	 	 	 	 	 	 	 	 	 	 	 	 	 	1581507063	8.26	15.30
12/02/2020 11:31:04	120220	12022020	113104	205.56	12.459598	-57.223598	205.53	0.960	-0.080	0.580	205.56	-1.50	1.00	 	 	 	 	 	 	 	 	 	 	 	 	 	 	 	 	 	 	1581507064	8.05	14.91
12/02/2020 11:31:05	120220	12022020	113105	205.91	12.459567	-57.223612	205.88	0.930	-0.320	0.450	205.91	-1.90	1.00	 	 	 	 	 	 	 	 	 	 	 	 	 	 	 	 	 	 	1581507065	7.39	13.69
12/02/2020 11:31:06	120220	12022020	113106	205.69	12.459537	-57.223625	205.66	0.620	-0.970	1.020	205.69	-2.60	1.80	 	 	 	 	 	 	 	 	 	 	 	 	 	 	 	 	 	 	1581507066	7.34	13.59
12/02/2020 11:31:07	120220	12022020	113107	205.06	12.459505	-57.223645	205.05	0.290	-1.630	2.100	205.06	-3.10	2.90	 	 	 	 	 	 	 	 	 	 	 	 	 	 	 	 	 	 	1581507067	7.95	14.72
12/02/2020 11:31:08	120220	12022020	113108	204.48	12.459473	-57.223668	204.51	-0.040	-1.660	3.030	204.48	-2.90	3.70	 	 	 	 	 	 	 	 	 	 	 	 	 	 	 	 	 	 	1581507068	8.22	15.22
12/02/2020 11:31:09	120220	12022020	113109	204.22	12.459445	-57.223690	204.25	-0.410	-0.940	3.380	204.22	-2.00	3.80	 	 	 	 	 	 	 	 	 	 	 	 	 	 	 	 	 	 	1581507069	7.83	14.50
12/02/2020 11:31:10	120220	12022020	113110	204.26	12.459417	-57.223712	204.31	-0.650	0.000	3.110	204.26	-1.20	3.40	 	 	 	 	 	 	 	 	 	 	 	 	 	 	 	 	 	 	1581507070	7.30	13.52
12/02/2020 11:31:11	120220	12022020	113111	204.47	12.459388	-57.223728	204.49	-0.550	0.510	2.350	204.47	-0.90	2.50	 	 	 	 	 	 	 	 	 	 	 	 	 	 	 	 	 	 	1581507071	7.17	13.28
12/02/2020 11:31:12	120220	12022020	113112	204.64	12.459357	-57.223743	204.64	-0.130	0.280	1.500	204.64	-1.30	1.80	 	 	 	 	 	 	 	 	 	 	 	 	 	 	 	 	 	 	1581507072	7.72	14.30
12/02/2020 11:31:13	120220	12022020	113113	204.70	12.459318	-57.223757	204.69	0.260	-0.260	0.950	204.70	-1.80	1.40	 	 	 	 	 	 	 	 	 	 	 	 	 	 	 	 	 	 	1581507073	8.46	15.67
12/02/2020 11:31:14	120220	12022020	113114	204.65	12.459282	-57.223772	204.64	0.300	-0.490	0.970	204.65	-1.80	1.60	 	 	 	 	 	 	 	 	 	 	 	 	 	 	 	 	 	 	1581507074	8.55	15.83
12/02/2020 11:31:15	120220	12022020	113115	204.57	12.459248	-57.223788	204.56	-0.010	-0.210	1.310	204.57	-1.40	1.90	 	 	 	 	 	 	 	 	 	 	 	 	 	 	 	 	 	 	1581507075	8.03	14.87
12/02/2020 11:31:16	120220	12022020	113116	204.56	12.459218	-57.223807	204.56	-0.330	0.290	1.560	204.56	-1.00	2.10	 	 	 	 	 	 	 	 	 	 	 	 	 	 	 	 	 	 	1581507076	7.50	13.89
12/02/2020 11:31:17	120220	12022020	113117	204.68	12.459190	-57.223825	204.68	-0.340	0.570	1.500	204.68	-0.80	1.90	 	 	 	 	 	 	 	 	 	 	 	 	 	 	 	 	 	 	1581507077	7.31	13.54
12/02/2020 11:31:18	120220	12022020	113118	204.90	12.459160	-57.223843	204.89	0.020	0.400	1.250	204.90	-1.20	1.70	 	 	 	 	 	 	 	 	 	 	 	 	 	 	 	 	 	 	1581507078	7.46	13.82
12/02/2020 11:31:19	120220	12022020	113119	204.93	12.459127	-57.223860	204.92	0.480	-0.150	1.130	204.93	-1.80	1.60	 	 	 	 	 	 	 	 	 	 	 	 	 	 	 	 	 	 	1581507079	7.77	14.39
12/02/2020 11:31:20	120220	12022020	113120	204.73	12.459093	-57.223875	204.70	0.650	-0.810	1.250	204.73	-2.40	1.80	 	 	 	 	 	 	 	 	 	 	 	 	 	 	 	 	 	 	1581507080	8.00	14.82
12/02/2020 11:31:21	120220	12022020	113121	204.41	12.459060	-57.223892	204.39	0.420	-1.210	1.590	204.41	-2.60	2.20	 	 	 	 	 	 	 	 	 	 	 	 	 	 	 	 	 	 	1581507081	8.05	14.91
12/02/2020 11:31:22	120220	12022020	113122	204.11	12.459028	-57.223912	204.12	0.020	-1.220	2.050	204.11	-2.60	2.60	 	 	 	 	 	 	 	 	 	 	 	 	 	 	 	 	 	 	1581507082	7.86	14.56
12/02/2020 11:31:23	120220	12022020	113123	203.86	12.458998	-57.223930	203.86	-0.220	-0.990	2.330	203.86	-2.30	2.80	 	 	 	 	 	 	 	 	 	 	 	 	 	 	 	 	 	 	1581507083	7.74	14.33
12/02/2020 11:31:24	120220	12022020	113124	203.73	12.458967	-57.223948	203.73	-0.300	-0.620	2.400	203.73	-1.80	2.90	 	 	 	 	 	 	 	 	 	 	 	 	 	 	 	 	 	 	1581507084	7.79	14.43
12/02/2020 11:31:25	120220	12022020	113125	203.76	12.458935	-57.223967	203.79	-0.370	-0.010	2.330	203.76	-1.20	2.70	 	 	 	 	 	 	 	 	 	 	 	 	 	 	 	 	 	 	1581507085	7.80	14.45
12/02/2020 11:31:26	120220	12022020	113126	204.07	12.458905	-57.223985	204.10	-0.470	0.710	2.030	204.07	-0.50	2.40	 	 	 	 	 	 	 	 	 	 	 	 	 	 	 	 	 	 	1581507086	7.55	13.98
12/02/2020 11:31:27	120220	12022020	113127	204.46	12.458875	-57.224002	204.48	-0.350	1.030	1.600	204.46	-0.40	1.90	 	 	 	 	 	 	 	 	 	 	 	 	 	 	 	 	 	 	1581507087	7.33	13.58
12/02/2020 11:31:28	120220	12022020	113128	204.64	12.458843	-57.224018	204.66	0.170	0.680	1.110	204.64	-0.90	1.40	 	 	 	 	 	 	 	 	 	 	 	 	 	 	 	 	 	 	1581507088	7.64	14.15
12/02/2020 11:31:29	120220	12022020	113129	204.69	12.458808	-57.224032	204.67	0.730	-0.070	0.740	204.68	-1.80	1.20	 	 	 	 	 	 	 	 	 	 	 	 	 	 	 	 	 	 	1581507089	8.13	15.06
12/02/2020 11:31:30	120220	12022020	113130	204.39	12.458772	-57.224045	204.38	0.870	-0.930	0.910	204.39	-2.60	1.60	 	 	 	 	 	 	 	 	 	 	 	 	 	 	 	 	 	 	1581507090	8.33	15.43
12/02/2020 11:31:31	120220	12022020	113131	203.89	12.458735	-57.224060	203.89	0.440	-1.450	1.690	203.89	-2.90	2.50	 	 	 	 	 	 	 	 	 	 	 	 	 	 	 	 	 	 	1581507091	8.30	15.37
12/02/2020 11:31:32	120220	12022020	113132	203.56	12.458703	-57.224080	203.59	-0.310	-1.320	2.650	203.56	-2.50	3.40	 	 	 	 	 	 	 	 	 	 	 	 	 	 	 	 	 	 	1581507092	8.03	14.87
12/02/2020 11:31:33	120220	12022020	113133	203.46	12.458677	-57.224103	203.50	-0.870	-0.760	3.290	203.46	-2.00	3.80	 	 	 	 	 	 	 	 	 	 	 	 	 	 	 	 	 	 	1581507093	7.70	14.26
12/02/2020 11:31:34	120220	12022020	113134	203.52	12.458648	-57.224127	203.57	-0.850	-0.340	3.240	203.52	-1.70	3.50	 	 	 	 	 	 	 	 	 	 	 	 	 	 	 	 	 	 	1581507094	7.65	14.17
12/02/2020 11:31:35	120220	12022020	113135	203.65	12.458617	-57.224147	203.68	-0.280	-0.240	2.580	203.65	-1.60	2.80	 	 	 	 	 	 	 	 	 	 	 	 	 	 	 	 	 	 	1581507095	7.88	14.59
12/02/2020 11:31:36	120220	12022020	113136	203.65	12.458583	-57.224162	203.68	0.310	-0.110	1.910	203.65	-1.40	2.20	 	 	 	 	 	 	 	 	 	 	 	 	 	 	 	 	 	 	1581507096	8.19	15.17
12/02/2020 11:31:37	120220	12022020	113137	203.58	12.458547	-57.224175	203.60	0.440	0.320	1.420	203.58	-0.90	1.80	 	 	 	 	 	 	 	 	 	 	 	 	 	 	 	 	 	 	1581507097	8.11	15.02
12/02/2020 11:31:38	120220	12022020	113138	203.77	12.458513	-57.224187	203.80	0.070	1.030	0.910	203.77	-0.20	1.20	 	 	 	 	 	 	 	 	 	 	 	 	 	 	 	 	 	 	1581507098	7.61	14.09
12/02/2020 11:31:39	120220	12022020	113139	204.19	12.458483	-57.224200	204.31	-0.330	1.460	0.420	204.31	-0.00	0.80	 	 	 	 	 	 	 	 	 	 	 	 	 	 	 	 	 	 	1581507099	7.00	12.96
12/02/2020 11:31:40	120220	12022020	113140	204.80	12.458455	-57.224215	204.78	-0.170	0.780	0.260	204.80	-1.10	0.90	 	 	 	 	 	 	 	 	 	 	 	 	 	 	 	 	 	 	1581507100	7.09	13.13
12/02/2020 11:31:41	120220	12022020	113141	204.78	12.458420	-57.224232	204.77	0.560	-1.030	0.790	204.78	-3.00	1.60	 	 	 	 	 	 	 	 	 	 	 	 	 	 	 	 	 	 	1581507101	8.18	15.15
12/02/2020 11:31:42	120220	12022020	113142	204.41	12.458382	-57.224253	204.44	1.090	-2.580	1.860	204.41	-4.10	2.70	 	 	 	 	 	 	 	 	 	 	 	 	 	 	 	 	 	 	1581507102	9.25	17.13
12/02/2020 11:31:43	120220	12022020	113143	204.01	12.458347	-57.224275	204.07	0.720	-2.520	2.960	204.01	-3.50	3.70	 	 	 	 	 	 	 	 	 	 	 	 	 	 	 	 	 	 	1581507103	8.82	16.33
12/02/2020 11:31:44	120220	12022020	113144	203.76	12.458320	-57.224297	203.85	-0.330	-1.190	3.620	203.76	-2.10	4.20	 	 	 	 	 	 	 	 	 	 	 	 	 	 	 	 	 	 	1581507104	7.41	13.72
12/02/2020 11:31:45	120220	12022020	113145	203.58	12.458297	-57.224317	203.64	-1.180	0.010	3.800	203.58	-1.20	4.20	 	 	 	 	 	 	 	 	 	 	 	 	 	 	 	 	 	 	1581507105	6.75	12.50
12/02/2020 11:31:46	120220	12022020	113146	203.25	12.458268	-57.224338	203.30	-1.110	0.300	3.580	203.25	-1.10	3.90	 	 	 	 	 	 	 	 	 	 	 	 	 	 	 	 	 	 	1581507106	7.43	13.76
12/02/2020 11:31:47	120220	12022020	113147	203.03	12.458235	-57.224358	203.09	-0.330	0.220	2.970	203.03	-1.10	3.20	 	 	 	 	 	 	 	 	 	 	 	 	 	 	 	 	 	 	1581507107	8.46	15.67
12/02/2020 11:31:48	120220	12022020	113148	203.31	12.458198	-57.224373	203.36	0.310	0.420	2.190	203.31	-0.90	2.50	 	 	 	 	 	 	 	 	 	 	 	 	 	 	 	 	 	 	1581507108	8.57	15.87
12/02/2020 11:31:49	120220	12022020	113149	203.78	12.458163	-57.224387	203.81	0.370	0.730	1.680	203.78	-0.60	2.10	 	 	 	 	 	 	 	 	 	 	 	 	 	 	 	 	 	 	1581507109	7.96	14.74
12/02/2020 11:31:50	120220	12022020	113150	204.13	12.458130	-57.224402	204.16	0.090	0.770	1.540	204.13	-0.70	2.00	 	 	 	 	 	 	 	 	 	 	 	 	 	 	 	 	 	 	1581507110	7.57	14.02
12/02/2020 11:31:51	120220	12022020	113151	204.56	12.458098	-57.224417	204.59	-0.060	0.670	1.390	204.56	-0.80	1.80	 	 	 	 	 	 	 	 	 	 	 	 	 	 	 	 	 	 	1581507111	7.57	14.02
12/02/2020 11:31:52	120220	12022020	113152	205.06	12.458068	-57.224432	205.07	0.080	0.360	1.130	205.06	-1.30	1.60	 	 	 	 	 	 	 	 	 	 	 	 	 	 	 	 	 	 	1581507112	7.33	13.58
12/02/2020 11:31:53	120220	12022020	113153	205.24	12.458038	-57.224448	205.23	0.360	-0.550	1.210	205.24	-2.30	1.80	 	 	 	 	 	 	 	 	 	 	 	 	 	 	 	 	 	 	1581507113	7.39	13.69
12/02/2020 11:31:54	120220	12022020	113154	204.86	12.458005	-57.224467	204.86	0.560	-1.790	1.770	204.86	-3.50	2.50	 	 	 	 	 	 	 	 	 	 	 	 	 	 	 	 	 	 	1581507114	8.02	14.85
12/02/2020 11:31:55	120220	12022020	113155	204.16	12.457972	-57.224487	204.18	0.510	-2.500	2.450	204.16	-3.90	3.10	 	 	 	 	 	 	 	 	 	 	 	 	 	 	 	 	 	 	1581507115	8.48	15.70
12/02/2020 11:31:56	120220	12022020	113156	203.42	12.457940	-57.224508	203.46	0.210	-2.240	3.020	203.42	-3.40	3.60	 	 	 	 	 	 	 	 	 	 	 	 	 	 	 	 	 	 	1581507116	8.19	15.17
12/02/2020 11:31:57	120220	12022020	113157	202.79	12.457910	-57.224528	202.83	-0.210	-1.320	3.310	202.79	-2.30	3.80	 	 	 	 	 	 	 	 	 	 	 	 	 	 	 	 	 	 	1581507117	7.70	14.26
12/02/2020 11:31:58	120220	12022020	113158	202.39	12.457878	-57.224547	202.43	-0.640	-0.150	3.240	202.39	-1.20	3.70	 	 	 	 	 	 	 	 	 	 	 	 	 	 	 	 	 	 	1581507118	7.58	14.04
12/02/2020 11:31:59	120220	12022020	113159	202.26	12.457848	-57.224563	202.30	-0.890	0.900	2.980	202.26	-0.20	3.30	 	 	 	 	 	 	 	 	 	 	 	 	 	 	 	 	 	 	1581507119	7.67	14.20
12/02/2020 11:32:00	120220	12022020	113200	202.55	12.457817	-57.224582	202.58	-0.800	1.660	2.390	202.55	0.40	2.60	 	 	 	 	 	 	 	 	 	 	 	 	 	 	 	 	 	 	1581507120	7.79	14.43
12/02/2020 11:32:01	120220	12022020	113201	203.13	12.457783	-57.224598	203.14	-0.360	1.840	1.600	203.13	0.30	1.90	1016.00	26.30	26.40	21.20	21.20	242.0	73.0	73.0	417.0	26.8	254.00	9.10	78.00	10.90	14990	8741.0	27.5	27.5	1581507121	7.75	14.35
12/02/2020 11:32:02	120220	12022020	113202	203.63	12.457748	-57.224610	203.62	0.200	1.210	1.130	203.63	-0.50	1.60	 	 	 	 	 	 	 	 	 	 	 	 	 	 	 	 	 	 	1581507122	7.95	14.72
12/02/2020 11:32:03	120220	12022020	113203	204.07	12.457713	-57.224623	204.05	0.500	0.190	1.050	204.07	-1.50	1.60	 	 	 	 	 	 	 	 	 	 	 	 	 	 	 	 	 	 	1581507123	8.25	15.28
12/02/2020 11:32:04	120220	12022020	113204	204.39	12.457680	-57.224640	204.37	0.460	-0.780	1.330	204.39	-2.50	2.00	 	 	 	 	 	 	 	 	 	 	 	 	 	 	 	 	 	 	1581507124	8.03	14.87
12/02/2020 11:32:05	120220	12022020	113205	204.35	12.457648	-57.224658	204.29	0.400	-1.650	1.980	204.29	-3.30	2.70	 	 	 	 	 	 	 	 	 	 	 	 	 	 	 	 	 	 	1581507125	7.77	14.39
12/02/2020 11:32:06	120220	12022020	113206	203.75	12.457618	-57.224678	203.77	0.500	-2.180	2.740	203.75	-3.60	3.50	 	 	 	 	 	 	 	 	 	 	 	 	 	 	 	 	 	 	1581507126	7.87	14.58
12/02/2020 11:32:07	120220	12022020	113207	202.95	12.457587	-57.224698	202.99	0.530	-1.960	3.420	202.95	-3.10	4.00	 	 	 	 	 	 	 	 	 	 	 	 	 	 	 	 	 	 	1581507127	7.84	14.52
12/02/2020 11:32:08	120220	12022020	113208	202.27	12.457557	-57.224717	202.31	0.280	-1.060	3.650	202.27	-2.10	4.00	 	 	 	 	 	 	 	 	 	 	 	 	 	 	 	 	 	 	1581507128	7.53	13.95
12/02/2020 11:32:09	120220	12022020	113209	202.07	12.457527	-57.224733	202.09	-0.170	0.000	3.240	202.07	-1.10	3.50	 	 	 	 	 	 	 	 	 	 	 	 	 	 	 	 	 	 	1581507129	7.26	13.45
12/02/2020 11:32:10	120220	12022020	113210	202.31	12.457497	-57.224748	202.33	-0.540	0.690	2.440	202.31	-0.60	2.60	 	 	 	 	 	 	 	 	 	 	 	 	 	 	 	 	 	 	1581507130	7.34	13.59
12/02/2020 11:32:11	120220	12022020	113211	202.95	12.457463	-57.224762	202.97	-0.680	0.890	1.530	202.95	-0.50	1.80	 	 	 	 	 	 	 	 	 	 	 	 	 	 	 	 	 	 	1581507131	7.73	14.32
12/02/2020 11:32:12	120220	12022020	113212	203.64	12.457428	-57.224775	203.63	-0.640	0.630	0.890	203.64	-1.00	1.30	 	 	 	 	 	 	 	 	 	 	 	 	 	 	 	 	 	 	1581507132	7.96	14.74
12/02/2020 11:32:13	120220	12022020	113213	203.91	12.457393	-57.224790	203.89	-0.400	-0.120	0.860	203.91	-1.80	1.50	 	 	 	 	 	 	 	 	 	 	 	 	 	 	 	 	 	 	1581507133	8.23	15.24
12/02/2020 11:32:14	120220	12022020	113214	203.75	12.457357	-57.224810	203.75	-0.030	-0.870	1.320	203.75	-2.30	2.00	 	 	 	 	 	 	 	 	 	 	 	 	 	 	 	 	 	 	1581507134	8.61	15.95
12/02/2020 11:32:15	120220	12022020	113215	203.62	12.457323	-57.224828	203.62	0.220	-0.780	1.730	203.62	-2.00	2.30	 	 	 	 	 	 	 	 	 	 	 	 	 	 	 	 	 	 	1581507135	8.45	15.65
12/02/2020 11:32:16	120220	12022020	113216	203.68	12.457293	-57.224847	203.67	0.170	0.040	1.830	203.68	-1.10	2.30	 	 	 	 	 	 	 	 	 	 	 	 	 	 	 	 	 	 	1581507136	7.43	13.76
12/02/2020 11:32:17	120220	12022020	113217	203.77	12.457265	-57.224860	203.77	0.000	0.720	1.720	203.77	-0.60	2.10	 	 	 	 	 	 	 	 	 	 	 	 	 	 	 	 	 	 	1581507137	6.71	12.43
12/02/2020 11:32:18	120220	12022020	113218	203.83	12.457237	-57.224875	203.82	0.040	0.670	1.480	203.83	-0.90	1.90	 	 	 	 	 	 	 	 	 	 	 	 	 	 	 	 	 	 	1581507138	6.93	12.83
12/02/2020 11:32:19	120220	12022020	113219	203.80	12.457203	-57.224890	203.79	0.340	-0.110	1.200	203.80	-1.90	1.70	 	 	 	 	 	 	 	 	 	 	 	 	 	 	 	 	 	 	1581507139	7.62	14.11
12/02/2020 11:32:20	120220	12022020	113220	203.55	12.457168	-57.224905	203.53	0.640	-1.170	1.270	203.55	-2.80	1.90	 	 	 	 	 	 	 	 	 	 	 	 	 	 	 	 	 	 	1581507140	8.28	15.33
12/02/2020 11:32:21	120220	12022020	113221	203.11	12.457133	-57.224922	203.09	0.650	-1.680	1.680	203.11	-3.00	2.30	 	 	 	 	 	 	 	 	 	 	 	 	 	 	 	 	 	 	1581507141	8.52	15.78
12/02/2020 11:32:22	120220	12022020	113222	202.77	12.457100	-57.224940	202.76	0.300	-1.220	2.100	202.77	-2.30	2.70	 	 	 	 	 	 	 	 	 	 	 	 	 	 	 	 	 	 	1581507142	7.99	14.80
12/02/2020 11:32:23	120220	12022020	113223	202.74	12.457072	-57.224958	202.74	-0.200	-0.290	2.260	202.74	-1.40	2.70	 	 	 	 	 	 	 	 	 	 	 	 	 	 	 	 	 	 	1581507143	7.18	13.30
12/02/2020 11:32:24	120220	12022020	113224	202.85	12.457043	-57.224975	202.84	-0.530	0.260	2.110	202.85	-1.10	2.50	 	 	 	 	 	 	 	 	 	 	 	 	 	 	 	 	 	 	1581507144	6.98	12.93
12/02/2020 11:32:25	120220	12022020	113225	202.98	12.457012	-57.224990	202.95	-0.560	0.080	1.780	202.98	-1.50	2.10	 	 	 	 	 	 	 	 	 	 	 	 	 	 	 	 	 	 	1581507145	7.63	14.13
12/02/2020 11:32:26	120220	12022020	113226	203.25	12.456977	-57.225007	203.22	-0.420	-0.350	1.410	203.25	-1.80	1.80	 	 	 	 	 	 	 	 	 	 	 	 	 	 	 	 	 	 	1581507146	8.37	15.50
12/02/2020 11:32:27	120220	12022020	113227	203.46	12.456942	-57.225023	203.42	-0.260	-0.450	1.140	203.46	-1.80	1.60	 	 	 	 	 	 	 	 	 	 	 	 	 	 	 	 	 	 	1581507147	8.40	15.56
12/02/2020 11:32:28	120220	12022020	113228	203.40	12.456907	-57.225040	203.35	-0.110	-0.280	1.120	203.40	-1.60	1.70	 	 	 	 	 	 	 	 	 	 	 	 	 	 	 	 	 	 	1581507148	7.99	14.80
12/02/2020 11:32:29	120220	12022020	113229	203.25	12.456875	-57.225055	203.18	0.020	-0.010	1.310	203.22	-1.30	1.90	 	 	 	 	 	 	 	 	 	 	 	 	 	 	 	 	 	 	1581507149	7.78	14.41
12/02/2020 11:32:30	120220	12022020	113230	203.11	12.456842	-57.225070	203.09	0.030	0.280	1.520	203.11	-1.00	2.10	 	 	 	 	 	 	 	 	 	 	 	 	 	 	 	 	 	 	1581507150	7.73	14.32
12/02/2020 11:32:31	120220	12022020	113231	203.18	12.456810	-57.225087	203.23	-0.110	0.510	1.650	203.24	-0.80	2.10	 	 	 	 	 	 	 	 	 	 	 	 	 	 	 	 	 	 	1581507151	7.63	14.13
12/02/2020 11:32:32	120220	12022020	113232	203.71	12.456780	-57.225103	203.69	-0.260	0.620	1.600	203.71	-0.80	2.00	 	 	 	 	 	 	 	 	 	 	 	 	 	 	 	 	 	 	1581507152	7.47	13.83
12/02/2020 11:32:33	120220	12022020	113233	204.23	12.456750	-57.225120	204.20	-0.130	0.410	1.390	204.23	-1.20	1.80	 	 	 	 	 	 	 	 	 	 	 	 	 	 	 	 	 	 	1581507153	7.31	13.54
12/02/2020 11:32:34	120220	12022020	113234	204.30	12.456718	-57.225137	204.26	0.450	-0.430	1.280	204.30	-2.20	1.80	 	 	 	 	 	 	 	 	 	 	 	 	 	 	 	 	 	 	1581507154	7.49	13.87
12/02/2020 11:32:35	120220	12022020	113235	203.85	12.456683	-57.225153	203.83	1.160	-1.540	1.410	203.85	-3.20	1.90	 	 	 	 	 	 	 	 	 	 	 	 	 	 	 	 	 	 	1581507155	8.24	15.26
12/02/2020 11:32:36	120220	12022020	113236	203.45	12.456647	-57.225168	203.46	1.340	-1.870	1.550	203.45	-3.10	2.10	 	 	 	 	 	 	 	 	 	 	 	 	 	 	 	 	 	 	1581507156	8.57	15.87
12/02/2020 11:32:37	120220	12022020	113237	203.37	12.456613	-57.225182	203.37	0.690	-1.130	1.580	203.37	-2.20	2.10	 	 	 	 	 	 	 	 	 	 	 	 	 	 	 	 	 	 	1581507157	7.81	14.46
12/02/2020 11:32:38	120220	12022020	113238	203.48	12.456583	-57.225195	203.48	-0.420	-0.100	1.660	203.48	-1.30	2.20	 	 	 	 	 	 	 	 	 	 	 	 	 	 	 	 	 	 	1581507158	6.98	12.93
12/02/2020 11:32:39	120220	12022020	113239	203.69	12.456555	-57.225212	203.70	-1.350	0.360	1.820	203.69	-1.10	2.40	 	 	 	 	 	 	 	 	 	 	 	 	 	 	 	 	 	 	1581507159	7.11	13.17
12/02/2020 11:32:40	120220	12022020	113240	203.83	12.456525	-57.225233	203.84	-1.530	0.100	2.050	203.83	-1.50	2.60	 	 	 	 	 	 	 	 	 	 	 	 	 	 	 	 	 	 	1581507160	8.01	14.83
12/02/2020 11:32:41	120220	12022020	113241	203.76	12.456492	-57.225258	203.79	-0.990	-0.430	2.220	203.76	-2.00	2.70	 	 	 	 	 	 	 	 	 	 	 	 	 	 	 	 	 	 	1581507161	8.75	16.21
12/02/2020 11:32:42	120220	12022020	113242	203.60	12.456457	-57.225280	203.63	-0.280	-0.700	2.210	203.60	-2.00	2.70	 	 	 	 	 	 	 	 	 	 	 	 	 	 	 	 	 	 	1581507162	8.88	16.45
12/02/2020 11:32:43	120220	12022020	113243	203.48	12.456422	-57.225300	203.51	0.180	-0.370	1.960	203.48	-1.50	2.30	 	 	 	 	 	 	 	 	 	 	 	 	 	 	 	 	 	 	1581507163	8.42	15.59
12/02/2020 11:32:44	120220	12022020	113244	203.49	12.456390	-57.225315	203.52	0.350	0.410	1.420	203.49	-0.70	1.70	 	 	 	 	 	 	 	 	 	 	 	 	 	 	 	 	 	 	1581507164	7.68	14.22
12/02/2020 11:32:45	120220	12022020	113245	203.75	12.456358	-57.225325	203.77	0.430	1.170	0.670	203.75	-0.10	0.90	 	 	 	 	 	 	 	 	 	 	 	 	 	 	 	 	 	 	1581507165	7.17	13.28
12/02/2020 11:32:46	120220	12022020	113246	204.17	12.456327	-57.225333	204.16	0.530	1.180	0.040	204.17	-0.40	0.50	 	 	 	 	 	 	 	 	 	 	 	 	 	 	 	 	 	 	1581507166	7.18	13.30
12/02/2020 11:32:47	120220	12022020	113247	204.34	12.456292	-57.225345	204.33	0.680	0.280	0.080	204.34	-1.50	0.70	 	 	 	 	 	 	 	 	 	 	 	 	 	 	 	 	 	 	1581507167	7.78	14.41
12/02/2020 11:32:48	120220	12022020	113248	204.24	12.456255	-57.225360	204.24	0.760	-0.860	0.780	204.24	-2.50	1.60	 	 	 	 	 	 	 	 	 	 	 	 	 	 	 	 	 	 	1581507168	8.40	15.56
12/02/2020 11:32:49	120220	12022020	113249	204.02	12.456222	-57.225380	204.05	0.550	-1.540	1.850	204.02	-3.00	2.70	 	 	 	 	 	 	 	 	 	 	 	 	 	 	 	 	 	 	1581507169	8.37	15.50
12/02/2020 11:32:50	120220	12022020	113250	203.68	12.456190	-57.225400	203.73	0.060	-1.690	2.960	203.68	-3.00	3.70	 	 	 	 	 	 	 	 	 	 	 	 	 	 	 	 	 	 	1581507170	7.97	14.76
12/02/2020 11:32:51	120220	12022020	113251	203.18	12.456162	-57.225423	203.25	-0.410	-1.490	3.820	203.18	-2.80	4.50	 	 	 	 	 	 	 	 	 	 	 	 	 	 	 	 	 	 	1581507171	7.82	14.48
12/02/2020 11:32:52	120220	12022020	113252	202.64	12.456133	-57.225447	202.71	-0.580	-1.130	4.130	202.64	-2.40	4.50	 	 	 	 	 	 	 	 	 	 	 	 	 	 	 	 	 	 	1581507172	7.88	14.59
12/02/2020 11:32:53	120220	12022020	113253	202.31	12.456102	-57.225467	202.38	-0.450	-0.740	3.740	202.31	-2.00	4.00	 	 	 	 	 	 	 	 	 	 	 	 	 	 	 	 	 	 	1581507173	7.99	14.80
12/02/2020 11:32:54	120220	12022020	113254	202.29	12.456068	-57.225485	202.34	-0.240	-0.340	2.870	202.29	-1.60	3.00	 	 	 	 	 	 	 	 	 	 	 	 	 	 	 	 	 	 	1581507174	8.16	15.11
12/02/2020 11:32:55	120220	12022020	113255	202.59	12.456032	-57.225498	202.63	-0.180	0.220	1.810	202.59	-0.90	2.00	 	 	 	 	 	 	 	 	 	 	 	 	 	 	 	 	 	 	1581507175	8.22	15.22
12/02/2020 11:32:56	120220	12022020	113256	203.08	12.455997	-57.225510	203.10	-0.340	0.910	0.910	203.08	-0.30	1.20	 	 	 	 	 	 	 	 	 	 	 	 	 	 	 	 	 	 	1581507176	7.94	14.70
12/02/2020 11:32:57	120220	12022020	113257	203.64	12.455963	-57.225522	203.64	-0.450	1.360	0.340	203.64	0.00	0.70	 	 	 	 	 	 	 	 	 	 	 	 	 	 	 	 	 	 	1581507177	7.61	14.09
12/02/2020 11:32:58	120220	12022020	113258	204.24	12.455932	-57.225535	204.23	-0.250	1.260	0.020	204.24	-0.30	0.50	 	 	 	 	 	 	 	 	 	 	 	 	 	 	 	 	 	 	1581507178	7.62	14.11
12/02/2020 11:32:59	120220	12022020	113259	204.64	12.455897	-57.225550	204.62	0.290	0.430	0.020	204.64	-1.30	0.60	 	 	 	 	 	 	 	 	 	 	 	 	 	 	 	 	 	 	1581507179	7.93	14.69
12/02/2020 11:33:00	120220	12022020	113300	204.87	12.455862	-57.225565	204.87	0.770	-0.580	0.340	204.87	-2.20	1.00	 	 	 	 	 	 	 	 	 	 	 	 	 	 	 	 	 	 	1581507180	8.39	15.54
12/02/2020 11:33:01	120220	12022020	113301	205.09	12.455827	-57.225582	205.11	0.810	-1.130	0.880	205.09	-2.60	1.60	1015.90	26.30	26.40	21.00	21.10	275.0	72.0	72.0	416.0	26.8	252.00	8.70	74.00	10.70	15907	9110.0	27.5	27.5	1581507181	8.19	15.17
12/02/2020 11:33:02	120220	12022020	113302	205.09	12.455797	-57.225600	205.11	0.530	-1.390	1.510	205.09	-2.90	2.20	 	 	 	 	 	 	 	 	 	 	 	 	 	 	 	 	 	 	1581507182	7.62	14.11
12/02/2020 11:33:03	120220	12022020	113303	204.77	12.455765	-57.225618	204.82	0.310	-1.530	2.180	204.77	-2.90	2.90	 	 	 	 	 	 	 	 	 	 	 	 	 	 	 	 	 	 	1581507183	7.61	14.09
12/02/2020 11:33:04	120220	12022020	113304	204.34	12.455735	-57.225637	204.40	0.140	-1.300	2.800	204.34	-2.50	3.40	 	 	 	 	 	 	 	 	 	 	 	 	 	 	 	 	 	 	1581507184	7.83	14.50
12/02/2020 11:33:05	120220	12022020	113305	204.00	12.455703	-57.225655	204.06	-0.150	-0.660	3.070	204.00	-1.80	3.60	 	 	 	 	 	 	 	 	 	 	 	 	 	 	 	 	 	 	1581507185	7.75	14.35
12/02/2020 11:33:06	120220	12022020	113306	203.84	12.455673	-57.225673	203.88	-0.570	0.050	3.030	203.84	-1.20	3.50	 	 	 	 	 	 	 	 	 	 	 	 	 	 	 	 	 	 	1581507186	7.61	14.09
12/02/2020 11:33:07	120220	12022020	113307	203.83	12.455642	-57.225692	203.85	-0.830	0.360	2.800	203.83	-1.00	3.10	 	 	 	 	 	 	 	 	 	 	 	 	 	 	 	 	 	 	1581507187	7.76	14.37
12/02/2020 11:33:08	120220	12022020	113308	203.96	12.455608	-57.225712	203.98	-0.670	0.300	2.200	203.96	-1.10	2.40	 	 	 	 	 	 	 	 	 	 	 	 	 	 	 	 	 	 	1581507188	8.25	15.28
12/02/2020 11:33:09	120220	12022020	113309	204.49	12.455573	-57.225730	204.48	-0.200	0.360	1.110	204.49	-1.00	1.20	 	 	 	 	 	 	 	 	 	 	 	 	 	 	 	 	 	 	1581507189	8.45	15.65
12/02/2020 11:33:10	120220	12022020	113310	205.36	12.455538	-57.225743	205.34	0.200	0.560	-0.090	205.36	-0.90	0.10	 	 	 	 	 	 	 	 	 	 	 	 	 	 	 	 	 	 	1581507190	7.99	14.80
12/02/2020 11:33:11	120220	12022020	113311	206.06	12.455505	-57.225755	206.02	0.410	0.320	-0.690	206.06	-1.30	-0.20	 	 	 	 	 	 	 	 	 	 	 	 	 	 	 	 	 	 	1581507191	7.66	14.19
12/02/2020 11:33:12	120220	12022020	113312	206.14	12.455470	-57.225768	206.10	0.500	-0.510	-0.260	206.14	-2.20	0.50	 	 	 	 	 	 	 	 	 	 	 	 	 	 	 	 	 	 	1581507192	7.97	14.76
12/02/2020 11:33:13	120220	12022020	113313	205.76	12.455435	-57.225787	205.73	0.400	-1.120	0.870	205.76	-2.50	1.70	 	 	 	 	 	 	 	 	 	 	 	 	 	 	 	 	 	 	1581507193	8.46	15.67
12/02/2020 11:33:14	120220	12022020	113314	205.36	12.455403	-57.225808	205.37	0.040	-0.880	2.010	205.36	-2.10	2.80	 	 	 	 	 	 	 	 	 	 	 	 	 	 	 	 	 	 	1581507194	8.16	15.11
12/02/2020 11:33:15	120220	12022020	113315	205.20	12.455377	-57.225830	205.23	-0.320	-0.190	2.620	205.20	-1.40	3.10	 	 	 	 	 	 	 	 	 	 	 	 	 	 	 	 	 	 	1581507195	7.46	13.82
12/02/2020 11:33:16	120220	12022020	113316	205.30	12.455350	-57.225850	205.34	-0.330	0.260	2.490	205.30	-1.10	2.80	 	 	 	 	 	 	 	 	 	 	 	 	 	 	 	 	 	 	1581507196	7.19	13.32
12/02/2020 11:33:17	120220	12022020	113317	205.51	12.455318	-57.225865	205.54	0.070	0.100	1.810	205.51	-1.50	2.10	 	 	 	 	 	 	 	 	 	 	 	 	 	 	 	 	 	 	1581507197	7.46	13.82
12/02/2020 11:33:18	120220	12022020	113318	205.57	12.455283	-57.225880	205.59	0.480	-0.600	1.330	205.57	-2.30	1.80	 	 	 	 	 	 	 	 	 	 	 	 	 	 	 	 	 	 	1581507198	8.14	15.08
12/02/2020 11:33:19	120220	12022020	113319	205.30	12.455247	-57.225895	205.32	0.550	-1.310	1.380	205.30	-2.80	2.00	 	 	 	 	 	 	 	 	 	 	 	 	 	 	 	 	 	 	1581507199	8.59	15.91
12/02/2020 11:33:20	120220	12022020	113320	204.75	12.455212	-57.225913	204.78	0.250	-1.370	1.810	204.75	-2.60	2.50	 	 	 	 	 	 	 	 	 	 	 	 	 	 	 	 	 	 	1581507200	8.51	15.76
12/02/2020 11:33:21	120220	12022020	113321	204.14	12.455180	-57.225933	204.18	-0.210	-0.740	2.380	204.14	-1.90	3.00	 	 	 	 	 	 	 	 	 	 	 	 	 	 	 	 	 	 	1581507201	8.03	14.87
12/02/2020 11:33:22	120220	12022020	113322	203.69	12.455150	-57.225955	203.73	-0.590	0.090	2.840	203.69	-1.10	3.40	 	 	 	 	 	 	 	 	 	 	 	 	 	 	 	 	 	 	1581507202	7.70	14.26
12/02/2020 11:33:23	120220	12022020	113323	203.60	12.455122	-57.225977	203.64	-0.720	0.820	2.830	203.60	-0.40	3.20	 	 	 	 	 	 	 	 	 	 	 	 	 	 	 	 	 	 	1581507203	7.74	14.33
12/02/2020 11:33:24	120220	12022020	113324	204.15	12.455092	-57.225997	204.19	-0.580	1.320	2.170	204.15	0.00	2.40	 	 	 	 	 	 	 	 	 	 	 	 	 	 	 	 	 	 	1581507204	7.70	14.26
12/02/2020 11:33:25	120220	12022020	113325	205.07	12.455060	-57.226012	205.09	-0.200	1.330	1.160	205.07	-0.30	1.30	 	 	 	 	 	 	 	 	 	 	 	 	 	 	 	 	 	 	1581507205	7.47	13.83
12/02/2020 11:33:26	120220	12022020	113326	205.79	12.455027	-57.226023	205.79	0.360	0.480	0.240	205.79	-1.30	0.50	 	 	 	 	 	 	 	 	 	 	 	 	 	 	 	 	 	 	1581507206	7.72	14.30
12/02/2020 11:33:27	120220	12022020	113327	206.11	12.454988	-57.226037	206.11	0.890	-0.870	-0.060	206.11	-2.60	0.50	 	 	 	 	 	 	 	 	 	 	 	 	 	 	 	 	 	 	1581507207	8.39	15.54
12/02/2020 11:33:28	120220	12022020	113328	206.06	12.454952	-57.226050	206.06	1.050	-1.880	0.440	206.06	-3.40	1.20	 	 	 	 	 	 	 	 	 	 	 	 	 	 	 	 	 	 	1581507208	8.52	15.78
12/02/2020 11:33:29	120220	12022020	113329	205.52	12.454918	-57.226068	205.54	0.770	-2.220	1.440	205.52	-3.60	2.30	 	 	 	 	 	 	 	 	 	 	 	 	 	 	 	 	 	 	1581507209	8.04	14.89
12/02/2020 11:33:30	120220	12022020	113330	204.69	12.454887	-57.226087	204.74	0.200	-1.970	2.610	204.69	-3.20	3.40	 	 	 	 	 	 	 	 	 	 	 	 	 	 	 	 	 	 	1581507210	7.78	14.41
12/02/2020 11:33:31	120220	12022020	113331	204.06	12.454857	-57.226107	204.16	-0.510	-1.280	3.520	204.06	-2.40	4.20	 	 	 	 	 	 	 	 	 	 	 	 	 	 	 	 	 	 	1581507211	7.86	14.56
12/02/2020 11:33:32	120220	12022020	113332	203.81	12.454828	-57.226130	203.91	-1.070	-0.290	3.830	203.81	-1.30	4.30	 	 	 	 	 	 	 	 	 	 	 	 	 	 	 	 	 	 	1581507212	7.98	14.78
12/02/2020 11:33:33	120220	12022020	113333	203.87	12.454798	-57.226153	203.98	-1.210	0.760	3.610	203.87	-0.30	3.90	 	 	 	 	 	 	 	 	 	 	 	 	 	 	 	 	 	 	1581507213	7.94	14.70
12/02/2020 11:33:34	120220	12022020	113334	204.34	12.454768	-57.226173	204.44	-0.880	1.560	2.850	204.34	0.30	3.00	 	 	 	 	 	 	 	 	 	 	 	 	 	 	 	 	 	 	1581507214	7.81	14.46
12/02/2020 11:33:35	120220	12022020	113335	205.17	12.454735	-57.226190	205.26	-0.360	1.660	1.690	205.17	0.10	1.80	 	 	 	 	 	 	 	 	 	 	 	 	 	 	 	 	 	 	1581507215	7.79	14.43
12/02/2020 11:33:36	120220	12022020	113336	205.87	12.454700	-57.226202	205.95	0.120	0.980	0.820	205.87	-0.70	1.20	 	 	 	 	 	 	 	 	 	 	 	 	 	 	 	 	 	 	1581507216	8.12	15.04
12/02/2020 11:33:37	120220	12022020	113337	206.09	12.454663	-57.226217	206.15	0.520	-0.040	0.520	206.09	-1.70	1.00	 	 	 	 	 	 	 	 	 	 	 	 	 	 	 	 	 	 	1581507217	8.42	15.59
12/02/2020 11:33:38	120220	12022020	113338	206.11	12.454628	-57.226232	206.16	0.790	-0.590	0.420	206.11	-2.00	0.90	 	 	 	 	 	 	 	 	 	 	 	 	 	 	 	 	 	 	1581507218	8.26	15.30
12/02/2020 11:33:39	120220	12022020	113339	206.26	12.454597	-57.226245	206.30	0.850	-0.610	0.250	206.26	-2.00	0.70	 	 	 	 	 	 	 	 	 	 	 	 	 	 	 	 	 	 	1581507219	7.44	13.78
12/02/2020 11:33:40	120220	12022020	113340	206.36	12.454567	-57.226258	206.38	0.760	-0.850	0.340	206.36	-2.40	1.00	 	 	 	 	 	 	 	 	 	 	 	 	 	 	 	 	 	 	1581507220	6.92	12.82
12/02/2020 11:33:41	120220	12022020	113341	206.10	12.454535	-57.226273	206.14	0.600	-1.600	1.020	206.10	-3.20	1.80	 	 	 	 	 	 	 	 	 	 	 	 	 	 	 	 	 	 	1581507221	7.50	13.89
12/02/2020 11:33:42	120220	12022020	113342	205.60	12.454502	-57.226295	205.65	0.260	-1.990	2.010	205.60	-3.20	2.80	 	 	 	 	 	 	 	 	 	 	 	 	 	 	 	 	 	 	1581507222	8.31	15.39
12/02/2020 11:33:43	120220	12022020	113343	205.19	12.454472	-57.226318	205.27	-0.300	-1.350	2.800	205.19	-2.30	3.40	 	 	 	 	 	 	 	 	 	 	 	 	 	 	 	 	 	 	1581507223	8.25	15.28
12/02/2020 11:33:44	120220	12022020	113344	205.13	12.454445	-57.226340	205.22	-0.820	-0.130	2.960	205.13	-1.10	3.30	 	 	 	 	 	 	 	 	 	 	 	 	 	 	 	 	 	 	1581507224	7.55	13.98
12/02/2020 11:33:45	120220	12022020	113345	205.35	12.454417	-57.226360	205.46	-0.990	0.650	2.550	205.35	-0.60	2.80	 	 	 	 	 	 	 	 	 	 	 	 	 	 	 	 	 	 	1581507225	7.24	13.41
12/02/2020 11:33:46	120220	12022020	113346	205.70	12.454387	-57.226378	205.78	-0.680	0.650	1.820	205.70	-0.80	2.00	 	 	 	 	 	 	 	 	 	 	 	 	 	 	 	 	 	 	1581507226	7.77	14.39
12/02/2020 11:33:47	120220	12022020	113347	205.98	12.454350	-57.226395	206.05	-0.050	0.160	0.870	205.98	-1.40	1.10	 	 	 	 	 	 	 	 	 	 	 	 	 	 	 	 	 	 	1581507227	8.47	15.69
12/02/2020 11:33:48	120220	12022020	113348	206.12	12.454312	-57.226408	206.15	0.430	-0.350	0.240	206.12	-1.80	0.70	 	 	 	 	 	 	 	 	 	 	 	 	 	 	 	 	 	 	1581507228	8.85	16.39
12/02/2020 11:33:49	120220	12022020	113349	206.20	12.454273	-57.226422	206.24	0.380	-0.340	0.240	206.20	-1.60	0.80	 	 	 	 	 	 	 	 	 	 	 	 	 	 	 	 	 	 	1581507229	8.58	15.89
12/02/2020 11:33:50	120220	12022020	113350	206.39	12.454240	-57.226437	206.42	-0.200	0.210	0.660	206.39	-1.00	1.30	 	 	 	 	 	 	 	 	 	 	 	 	 	 	 	 	 	 	1581507230	7.71	14.28
12/02/2020 11:33:51	120220	12022020	113351	206.62	12.454213	-57.226455	206.67	-0.850	0.650	1.310	206.62	-0.70	2.00	 	 	 	 	 	 	 	 	 	 	 	 	 	 	 	 	 	 	1581507231	7.06	13.08
12/02/2020 11:33:52	120220	12022020	113352	206.53	12.454187	-57.226477	206.60	-0.870	0.370	2.060	206.53	-1.20	2.70	 	 	 	 	 	 	 	 	 	 	 	 	 	 	 	 	 	 	1581507232	7.40	13.70
12/02/2020 11:33:53	120220	12022020	113353	206.14	12.454157	-57.226502	206.22	-0.070	-0.320	2.500	206.14	-1.80	3.00	 	 	 	 	 	 	 	 	 	 	 	 	 	 	 	 	 	 	1581507233	8.21	15.20
12/02/2020 11:33:54	120220	12022020	113354	205.75	12.454125	-57.226525	205.82	1.000	-0.660	2.290	205.75	-2.00	2.60	 	 	 	 	 	 	 	 	 	 	 	 	 	 	 	 	 	 	1581507234	8.33	15.43
12/02/2020 11:33:55	120220	12022020	113355	205.51	12.454092	-57.226540	205.59	1.550	-0.650	1.630	205.51	-2.00	1.90	 	 	 	 	 	 	 	 	 	 	 	 	 	 	 	 	 	 	1581507235	7.73	14.32
12/02/2020 11:33:56	120220	12022020	113356	205.42	12.454060	-57.226550	205.49	1.280	-0.720	1.060	205.42	-2.10	1.50	 	 	 	 	 	 	 	 	 	 	 	 	 	 	 	 	 	 	1581507236	7.49	13.87
12/02/2020 11:33:57	120220	12022020	113357	205.30	12.454025	-57.226563	205.35	0.440	-0.960	1.120	205.30	-2.40	1.80	 	 	 	 	 	 	 	 	 	 	 	 	 	 	 	 	 	 	1581507237	7.67	14.20
12/02/2020 11:33:58	120220	12022020	113358	205.12	12.453993	-57.226582	205.18	-0.400	-1.090	1.760	205.12	-2.40	2.50	 	 	 	 	 	 	 	 	 	 	 	 	 	 	 	 	 	 	1581507238	7.96	14.74
12/02/2020 11:33:59	120220	12022020	113359	205.02	12.453963	-57.226605	205.11	-0.870	-0.860	2.390	205.02	-2.10	3.00	 	 	 	 	 	 	 	 	 	 	 	 	 	 	 	 	 	 	1581507239	8.16	15.11
12/02/2020 11:34:00	120220	12022020	113400	205.11	12.453933	-57.226628	205.21	-0.910	-0.310	2.580	205.11	-1.50	3.00	 	 	 	 	 	 	 	 	 	 	 	 	 	 	 	 	 	 	1581507240	8.05	14.91
12/02/2020 11:34:01	120220	12022020	113401	205.45	12.453905	-57.226650	205.55	-0.690	0.340	2.060	205.45	-0.80	2.20	1015.90	26.40	26.40	21.20	21.30	217.0	73.0	73.0	416.0	26.9	249.00	7.90	73.00	10.10	15175	8383.0	27.5	27.5	1581507241	7.81	14.46
12/02/2020 11:34:02	120220	12022020	113402	205.97	12.453873	-57.226665	206.04	-0.340	0.810	1.000	205.97	-0.50	1.10	 	 	 	 	 	 	 	 	 	 	 	 	 	 	 	 	 	 	1581507242	7.56	14.00
12/02/2020 11:34:03	120220	12022020	113403	206.37	12.453838	-57.226677	206.42	0.090	0.700	0.060	206.37	-0.90	0.40	 	 	 	 	 	 	 	 	 	 	 	 	 	 	 	 	 	 	1581507243	7.67	14.20
12/02/2020 11:34:04	120220	12022020	113404	206.39	12.453802	-57.226688	206.44	0.440	-0.070	-0.000	206.39	-1.80	0.70	 	 	 	 	 	 	 	 	 	 	 	 	 	 	 	 	 	 	1581507244	8.20	15.19
12/02/2020 11:34:05	120220	12022020	113405	205.86	12.453765	-57.226703	205.91	0.540	-1.000	0.920	205.86	-2.50	1.80	 	 	 	 	 	 	 	 	 	 	 	 	 	 	 	 	 	 	1581507245	8.56	15.85
12/02/2020 11:34:06	120220	12022020	113406	205.09	12.453732	-57.226725	205.16	0.310	-1.290	2.330	205.09	-2.50	3.30	 	 	 	 	 	 	 	 	 	 	 	 	 	 	 	 	 	 	1581507246	8.61	15.95
12/02/2020 11:34:07	120220	12022020	113407	204.47	12.453702	-57.226748	204.57	-0.150	-0.720	3.520	204.47	-1.80	4.20	 	 	 	 	 	 	 	 	 	 	 	 	 	 	 	 	 	 	1581507247	8.11	15.02
12/02/2020 11:34:08	120220	12022020	113408	204.17	12.453677	-57.226772	204.31	-0.460	0.120	3.830	204.17	-1.00	4.20	 	 	 	 	 	 	 	 	 	 	 	 	 	 	 	 	 	 	1581507248	7.52	13.93
12/02/2020 11:34:09	120220	12022020	113409	204.21	12.453648	-57.226793	204.39	-0.380	0.670	3.160	204.26	-0.60	3.20	 	 	 	 	 	 	 	 	 	 	 	 	 	 	 	 	 	 	1581507249	7.26	13.45
12/02/2020 11:34:10	120220	12022020	113410	204.72	12.453618	-57.226808	204.84	0.020	0.740	1.840	204.72	-0.70	1.90	 	 	 	 	 	 	 	 	 	 	 	 	 	 	 	 	 	 	1581507250	7.35	13.61
12/02/2020 11:34:11	120220	12022020	113411	205.33	12.453585	-57.226820	205.41	0.380	0.230	0.600	205.33	-1.40	0.80	 	 	 	 	 	 	 	 	 	 	 	 	 	 	 	 	 	 	1581507251	7.72	14.30
12/02/2020 11:34:12	120220	12022020	113412	205.75	12.453548	-57.226832	205.81	0.490	-0.680	0.070	205.75	-2.30	0.60	 	 	 	 	 	 	 	 	 	 	 	 	 	 	 	 	 	 	1581507252	8.16	15.11
12/02/2020 11:34:13	120220	12022020	113413	205.93	12.453513	-57.226848	205.98	0.390	-1.370	0.270	205.93	-2.80	0.90	 	 	 	 	 	 	 	 	 	 	 	 	 	 	 	 	 	 	1581507253	8.36	15.48
12/02/2020 11:34:14	120220	12022020	113414	205.99	12.453480	-57.226867	206.04	0.280	-1.340	0.720	205.99	-2.50	1.30	 	 	 	 	 	 	 	 	 	 	 	 	 	 	 	 	 	 	1581507254	8.05	14.91
12/02/2020 11:34:15	120220	12022020	113415	206.03	12.453450	-57.226883	206.08	0.180	-0.770	1.130	206.03	-1.90	1.70	 	 	 	 	 	 	 	 	 	 	 	 	 	 	 	 	 	 	1581507255	7.41	13.72
12/02/2020 11:34:16	120220	12022020	113416	205.81	12.453422	-57.226900	205.86	0.040	-0.360	1.660	205.81	-1.70	2.40	 	 	 	 	 	 	 	 	 	 	 	 	 	 	 	 	 	 	1581507256	7.14	13.22
12/02/2020 11:34:17	120220	12022020	113417	205.18	12.453390	-57.226918	205.25	-0.180	-0.350	2.480	205.18	-1.70	3.20	 	 	 	 	 	 	 	 	 	 	 	 	 	 	 	 	 	 	1581507257	7.68	14.22
12/02/2020 11:34:18	120220	12022020	113418	204.52	12.453358	-57.226940	204.60	-0.520	-0.260	3.310	204.52	-1.50	3.90	 	 	 	 	 	 	 	 	 	 	 	 	 	 	 	 	 	 	1581507258	8.32	15.41
12/02/2020 11:34:19	120220	12022020	113419	204.24	12.453328	-57.226965	204.35	-0.790	0.260	3.580	204.24	-0.90	3.90	 	 	 	 	 	 	 	 	 	 	 	 	 	 	 	 	 	 	1581507259	8.26	15.30
12/02/2020 11:34:20	120220	12022020	113420	204.45	12.453298	-57.226987	204.56	-0.720	0.820	3.100	204.45	-0.50	3.20	 	 	 	 	 	 	 	 	 	 	 	 	 	 	 	 	 	 	1581507260	7.67	14.20
12/02/2020 11:34:21	120220	12022020	113421	204.90	12.453268	-57.227003	205.01	-0.190	0.780	1.950	204.90	-0.70	1.90	 	 	 	 	 	 	 	 	 	 	 	 	 	 	 	 	 	 	1581507261	7.50	13.89
12/02/2020 11:34:22	120220	12022020	113422	205.68	12.453233	-57.227017	205.76	0.450	0.330	0.480	205.68	-1.20	0.50	 	 	 	 	 	 	 	 	 	 	 	 	 	 	 	 	 	 	1581507262	7.96	14.74
12/02/2020 11:34:23	120220	12022020	113423	206.63	12.453198	-57.227027	206.67	0.750	-0.220	-0.470	206.63	-1.80	-0.10	 	 	 	 	 	 	 	 	 	 	 	 	 	 	 	 	 	 	1581507263	8.04	14.89
12/02/2020 11:34:24	120220	12022020	113424	207.05	12.453165	-57.227040	207.07	0.680	-0.980	-0.270	207.05	-2.60	0.50	 	 	 	 	 	 	 	 	 	 	 	 	 	 	 	 	 	 	1581507264	7.73	14.32
12/02/2020 11:34:25	120220	12022020	113425	206.54	12.453132	-57.227057	206.58	0.450	-1.760	1.090	206.54	-3.30	2.10	 	 	 	 	 	 	 	 	 	 	 	 	 	 	 	 	 	 	1581507265	7.90	14.63
12/02/2020 11:34:26	120220	12022020	113426	205.52	12.453102	-57.227080	205.59	0.090	-1.860	2.900	205.52	-3.10	3.90	 	 	 	 	 	 	 	 	 	 	 	 	 	 	 	 	 	 	1581507266	8.22	15.22
12/02/2020 11:34:27	120220	12022020	113427	204.52	12.453073	-57.227107	204.63	-0.310	-1.110	4.400	204.52	-2.10	5.20	 	 	 	 	 	 	 	 	 	 	 	 	 	 	 	 	 	 	1581507267	8.11	15.02
12/02/2020 11:34:28	120220	12022020	113428	204.03	12.453050	-57.227133	204.17	-0.580	0.160	4.990	204.03	-0.80	5.40	 	 	 	 	 	 	 	 	 	 	 	 	 	 	 	 	 	 	1581507268	7.71	14.28
12/02/2020 11:34:29	120220	12022020	113429	204.17	12.453023	-57.227155	204.33	-0.580	1.150	4.490	204.17	-0.10	4.60	 	 	 	 	 	 	 	 	 	 	 	 	 	 	 	 	 	 	1581507269	7.14	13.22
12/02/2020 11:34:30	120220	12022020	113430	204.80	12.452993	-57.227172	204.94	-0.310	1.270	3.120	204.80	-0.30	3.10	 	 	 	 	 	 	 	 	 	 	 	 	 	 	 	 	 	 	1581507270	7.21	13.35
12/02/2020 11:34:31	120220	12022020	113431	205.53	12.452960	-57.227183	205.63	0.110	0.570	1.620	205.53	-1.10	1.70	 	 	 	 	 	 	 	 	 	 	 	 	 	 	 	 	 	 	1581507271	7.87	14.58
12/02/2020 11:34:32	120220	12022020	113432	205.92	12.452923	-57.227197	205.98	0.490	-0.460	0.690	205.92	-2.10	1.10	 	 	 	 	 	 	 	 	 	 	 	 	 	 	 	 	 	 	1581507272	8.38	15.52
12/02/2020 11:34:33	120220	12022020	113433	205.87	12.452887	-57.227210	205.91	0.610	-1.230	0.570	205.87	-2.70	1.10	 	 	 	 	 	 	 	 	 	 	 	 	 	 	 	 	 	 	1581507273	8.41	15.58
12/02/2020 11:34:34	120220	12022020	113434	205.61	12.452853	-57.227227	205.64	0.400	-1.210	0.930	205.61	-2.40	1.60	 	 	 	 	 	 	 	 	 	 	 	 	 	 	 	 	 	 	1581507274	7.93	14.69
12/02/2020 11:34:35	120220	12022020	113435	205.35	12.452825	-57.227245	205.39	0.050	-0.590	1.440	205.35	-1.70	2.10	 	 	 	 	 	 	 	 	 	 	 	 	 	 	 	 	 	 	1581507275	7.18	13.30
12/02/2020 11:34:36	120220	12022020	113436	205.20	12.452798	-57.227262	205.24	-0.250	-0.020	1.900	205.20	-1.30	2.50	 	 	 	 	 	 	 	 	 	 	 	 	 	 	 	 	 	 	1581507276	6.86	12.70
12/02/2020 11:34:37	120220	12022020	113437	205.14	12.452770	-57.227282	205.19	-0.420	0.100	2.260	205.14	-1.30	2.80	 	 	 	 	 	 	 	 	 	 	 	 	 	 	 	 	 	 	1581507277	7.14	13.22
12/02/2020 11:34:38	120220	12022020	113438	205.01	12.452740	-57.227300	205.07	-0.420	-0.160	2.510	205.01	-1.70	3.00	 	 	 	 	 	 	 	 	 	 	 	 	 	 	 	 	 	 	1581507278	7.68	14.22
12/02/2020 11:34:39	120220	12022020	113439	204.70	12.452708	-57.227322	204.77	-0.170	-0.540	2.630	204.70	-2.00	3.10	 	 	 	 	 	 	 	 	 	 	 	 	 	 	 	 	 	 	1581507279	8.06	14.93
12/02/2020 11:34:40	120220	12022020	113440	204.33	12.452675	-57.227340	204.41	0.220	-0.650	2.510	204.33	-2.00	2.90	 	 	 	 	 	 	 	 	 	 	 	 	 	 	 	 	 	 	1581507280	8.18	15.15
12/02/2020 11:34:41	120220	12022020	113441	204.19	12.452642	-57.227357	204.29	0.370	-0.350	2.160	204.19	-1.60	2.50	 	 	 	 	 	 	 	 	 	 	 	 	 	 	 	 	 	 	1581507281	7.88	14.59
12/02/2020 11:34:42	120220	12022020	113442	204.41	12.452610	-57.227370	204.49	0.060	0.050	1.760	204.41	-1.30	2.10	 	 	 	 	 	 	 	 	 	 	 	 	 	 	 	 	 	 	1581507282	7.46	13.82
12/02/2020 11:34:43	120220	12022020	113443	204.70	12.452580	-57.227385	204.77	-0.400	0.130	1.520	204.70	-1.30	1.90	 	 	 	 	 	 	 	 	 	 	 	 	 	 	 	 	 	 	1581507283	7.31	13.54
12/02/2020 11:34:44	120220	12022020	113444	204.91	12.452550	-57.227403	204.98	-0.530	-0.140	1.370	204.91	-1.60	1.80	 	 	 	 	 	 	 	 	 	 	 	 	 	 	 	 	 	 	1581507284	7.67	14.20
12/02/2020 11:34:45	120220	12022020	113445	205.07	12.452517	-57.227423	205.15	-0.240	-0.420	1.260	205.07	-1.80	1.70	 	 	 	 	 	 	 	 	 	 	 	 	 	 	 	 	 	 	1581507285	8.00	14.82
12/02/2020 11:34:46	120220	12022020	113446	205.06	12.452485	-57.227440	205.13	0.130	-0.430	1.330	205.06	-1.70	1.80	 	 	 	 	 	 	 	 	 	 	 	 	 	 	 	 	 	 	1581507286	7.91	14.65
12/02/2020 11:34:47	120220	12022020	113447	204.89	12.452453	-57.227457	204.96	0.290	-0.190	1.400	204.89	-1.40	1.90	 	 	 	 	 	 	 	 	 	 	 	 	 	 	 	 	 	 	1581507287	7.60	14.08
12/02/2020 11:34:48	120220	12022020	113448	204.75	12.452423	-57.227473	204.83	0.170	0.180	1.490	204.75	-1.10	2.00	 	 	 	 	 	 	 	 	 	 	 	 	 	 	 	 	 	 	1581507288	7.34	13.59
12/02/2020 11:34:49	120220	12022020	113449	204.76	12.452393	-57.227488	204.84	-0.030	0.420	1.550	204.76	-0.90	2.00	 	 	 	 	 	 	 	 	 	 	 	 	 	 	 	 	 	 	1581507289	7.22	13.37
12/02/2020 11:34:50	120220	12022020	113450	204.87	12.452363	-57.227505	204.95	-0.070	0.340	1.550	204.87	-1.20	2.00	 	 	 	 	 	 	 	 	 	 	 	 	 	 	 	 	 	 	1581507290	7.29	13.50
12/02/2020 11:34:51	120220	12022020	113451	204.81	12.452333	-57.227522	204.90	0.190	-0.170	1.680	204.81	-1.80	2.20	 	 	 	 	 	 	 	 	 	 	 	 	 	 	 	 	 	 	1581507291	7.52	13.93
12/02/2020 11:34:52	120220	12022020	113452	204.51	12.452300	-57.227540	204.61	0.570	-0.920	1.920	204.51	-2.50	2.40	 	 	 	 	 	 	 	 	 	 	 	 	 	 	 	 	 	 	1581507292	7.96	14.74
12/02/2020 11:34:53	120220	12022020	113453	204.25	12.452267	-57.227557	204.38	0.660	-1.300	2.000	204.25	-2.70	2.40	 	 	 	 	 	 	 	 	 	 	 	 	 	 	 	 	 	 	1581507293	8.19	15.17
12/02/2020 11:34:54	120220	12022020	113454	204.15	12.452233	-57.227573	204.27	0.250	-1.190	1.910	204.15	-2.50	2.30	 	 	 	 	 	 	 	 	 	 	 	 	 	 	 	 	 	 	1581507294	7.79	14.43
12/02/2020 11:34:55	120220	12022020	113455	204.14	12.452203	-57.227590	204.24	-0.410	-0.900	1.840	204.14	-2.20	2.30	 	 	 	 	 	 	 	 	 	 	 	 	 	 	 	 	 	 	1581507295	7.48	13.85
12/02/2020 11:34:56	120220	12022020	113456	204.20	12.452172	-57.227608	204.29	-0.880	-0.560	1.820	204.20	-1.80	2.30	 	 	 	 	 	 	 	 	 	 	 	 	 	 	 	 	 	 	1581507296	7.57	14.02
12/02/2020 11:34:57	120220	12022020	113457	204.15	12.452142	-57.227627	204.23	-0.890	-0.310	1.870	204.15	-1.60	2.40	 	 	 	 	 	 	 	 	 	 	 	 	 	 	 	 	 	 	1581507297	7.72	14.30
12/02/2020 11:34:58	120220	12022020	113458	204.00	12.452110	-57.227647	204.09	-0.530	-0.160	1.960	204.00	-1.40	2.40	 	 	 	 	 	 	 	 	 	 	 	 	 	 	 	 	 	 	1581507298	8.07	14.95
12/02/2020 11:34:59	120220	12022020	113459	203.93	12.452077	-57.227667	204.00	-0.140	0.170	2.000	203.92	-1.00	2.40	 	 	 	 	 	 	 	 	 	 	 	 	 	 	 	 	 	 	1581507299	8.25	15.28
12/02/2020 11:35:00	120220	12022020	113500	204.07	12.452043	-57.227683	204.12	0.020	0.830	1.820	204.07	-0.30	2.20	 	 	 	 	 	 	 	 	 	 	 	 	 	 	 	 	 	 	1581507300	7.88	14.59
12/02/2020 11:35:01	120220	12022020	113501	204.42	12.452013	-57.227697	204.57	-0.080	1.450	1.370	204.53	0.10	1.70	1016.00	26.30	26.40	21.20	21.30	258.0	73.0	73.0	414.0	26.9	248.00	7.60	71.00	9.80	16312	8549.0	27.5	27.5	1581507301	7.26	13.45
12/02/2020 11:35:02	120220	12022020	113502	204.92	12.451982	-57.227708	204.96	-0.080	1.190	1.070	204.92	-0.50	1.50	 	 	 	 	 	 	 	 	 	 	 	 	 	 	 	 	 	 	1581507302	7.04	13.04
12/02/2020 11:35:03	120220	12022020	113503	204.90	12.451950	-57.227723	204.95	0.310	-0.070	1.250	204.90	-1.90	1.80	 	 	 	 	 	 	 	 	 	 	 	 	 	 	 	 	 	 	1581507303	7.75	14.35
12/02/2020 11:35:04	120220	12022020	113504	204.53	12.451913	-57.227742	204.60	0.850	-1.420	1.700	204.53	-3.00	2.30	 	 	 	 	 	 	 	 	 	 	 	 	 	 	 	 	 	 	1581507304	8.55	15.83
12/02/2020 11:35:05	120220	12022020	113505	204.13	12.451878	-57.227760	204.22	0.960	-1.890	2.080	204.13	-3.20	2.60	 	 	 	 	 	 	 	 	 	 	 	 	 	 	 	 	 	 	1581507305	8.40	15.56
12/02/2020 11:35:06	120220	12022020	113506	203.85	12.451848	-57.227777	203.93	0.480	-1.470	2.200	203.85	-2.60	2.70	 	 	 	 	 	 	 	 	 	 	 	 	 	 	 	 	 	 	1581507306	7.54	13.96
12/02/2020 11:35:07	120220	12022020	113507	203.69	12.451820	-57.227793	203.77	-0.170	-0.750	2.210	203.69	-1.90	2.60	 	 	 	 	 	 	 	 	 	 	 	 	 	 	 	 	 	 	1581507307	6.97	12.91
12/02/2020 11:35:08	120220	12022020	113508	203.75	12.451792	-57.227810	203.84	-0.490	-0.180	1.980	203.75	-1.40	2.30	 	 	 	 	 	 	 	 	 	 	 	 	 	 	 	 	 	 	1581507308	7.12	13.19
12/02/2020 11:35:09	120220	12022020	113509	204.08	12.451760	-57.227827	204.14	-0.480	0.140	1.510	204.08	-1.20	1.80	 	 	 	 	 	 	 	 	 	 	 	 	 	 	 	 	 	 	1581507309	7.47	13.83
12/02/2020 11:35:10	120220	12022020	113510	204.40	12.451728	-57.227843	204.42	-0.320	0.030	1.260	204.40	-1.40	1.70	 	 	 	 	 	 	 	 	 	 	 	 	 	 	 	 	 	 	1581507310	7.84	14.52
12/02/2020 11:35:11	120220	12022020	113511	204.52	12.451693	-57.227862	204.56	-0.140	-0.260	1.320	204.52	-1.70	1.80	 	 	 	 	 	 	 	 	 	 	 	 	 	 	 	 	 	 	1581507311	8.29	15.35
12/02/2020 11:35:12	120220	12022020	113512	204.66	12.451658	-57.227878	204.71	-0.020	-0.220	1.360	204.66	-1.50	1.80	 	 	 	 	 	 	 	 	 	 	 	 	 	 	 	 	 	 	1581507312	8.34	15.45
12/02/2020 11:35:13	120220	12022020	113513	204.73	12.451627	-57.227895	204.78	-0.060	0.090	1.490	204.73	-1.20	2.10	 	 	 	 	 	 	 	 	 	 	 	 	 	 	 	 	 	 	1581507313	7.79	14.43
12/02/2020 11:35:14	120220	12022020	113514	204.53	12.451595	-57.227910	204.59	-0.200	0.160	1.830	204.53	-1.30	2.40	 	 	 	 	 	 	 	 	 	 	 	 	 	 	 	 	 	 	1581507314	7.48	13.85
12/02/2020 11:35:15	120220	12022020	113515	204.05	12.451563	-57.227928	204.10	-0.210	-0.160	2.130	204.05	-1.60	2.60	 	 	 	 	 	 	 	 	 	 	 	 	 	 	 	 	 	 	1581507315	7.83	14.50
12/02/2020 11:35:16	120220	12022020	113516	203.71	12.451530	-57.227947	203.78	-0.040	-0.300	2.100	203.71	-1.60	2.40	 	 	 	 	 	 	 	 	 	 	 	 	 	 	 	 	 	 	1581507316	8.23	15.24
12/02/2020 11:35:17	120220	12022020	113517	203.86	12.451497	-57.227963	203.93	0.140	0.050	1.670	203.86	-1.20	2.00	 	 	 	 	 	 	 	 	 	 	 	 	 	 	 	 	 	 	1581507317	7.87	14.58
12/02/2020 11:35:18	120220	12022020	113518	204.36	12.451467	-57.227978	204.41	0.190	0.460	1.090	204.36	-0.90	1.40	 	 	 	 	 	 	 	 	 	 	 	 	 	 	 	 	 	 	1581507318	7.19	13.32
12/02/2020 11:35:19	120220	12022020	113519	204.95	12.451437	-57.227992	205.00	0.180	0.330	0.580	204.95	-1.20	1.00	 	 	 	 	 	 	 	 	 	 	 	 	 	 	 	 	 	 	1581507319	7.06	13.08
12/02/2020 11:35:20	120220	12022020	113520	205.33	12.451405	-57.228005	205.38	0.240	-0.530	0.580	205.33	-2.20	1.20	 	 	 	 	 	 	 	 	 	 	 	 	 	 	 	 	 	 	1581507320	7.57	14.02
12/02/2020 11:35:21	120220	12022020	113521	205.32	12.451370	-57.228023	205.37	0.360	-1.590	1.160	205.32	-3.20	1.90	 	 	 	 	 	 	 	 	 	 	 	 	 	 	 	 	 	 	1581507321	8.28	15.33
12/02/2020 11:35:22	120220	12022020	113522	204.96	12.451337	-57.228045	205.02	0.350	-2.000	2.090	204.96	-3.30	2.90	 	 	 	 	 	 	 	 	 	 	 	 	 	 	 	 	 	 	1581507322	8.48	15.70
12/02/2020 11:35:23	120220	12022020	113523	204.30	12.451305	-57.228065	204.38	0.130	-1.510	2.960	204.30	-2.60	3.60	 	 	 	 	 	 	 	 	 	 	 	 	 	 	 	 	 	 	1581507323	8.01	14.83
12/02/2020 11:35:24	120220	12022020	113524	203.59	12.451277	-57.228085	203.69	-0.130	-0.510	3.430	203.59	-1.50	3.90	 	 	 	 	 	 	 	 	 	 	 	 	 	 	 	 	 	 	1581507324	7.53	13.95
12/02/2020 11:35:25	120220	12022020	113525	203.14	12.451247	-57.228103	203.22	-0.330	0.550	3.450	203.14	-0.50	3.80	 	 	 	 	 	 	 	 	 	 	 	 	 	 	 	 	 	 	1581507325	7.40	13.70
12/02/2020 11:35:26	120220	12022020	113526	203.33	12.451217	-57.228120	203.41	-0.440	1.320	2.900	203.33	0.10	3.10	 	 	 	 	 	 	 	 	 	 	 	 	 	 	 	 	 	 	1581507326	7.46	13.82
12/02/2020 11:35:27	120220	12022020	113527	204.01	12.451185	-57.228137	204.07	-0.400	1.500	2.050	204.01	0.00	2.20	 	 	 	 	 	 	 	 	 	 	 	 	 	 	 	 	 	 	1581507327	7.51	13.91
12/02/2020 11:35:28	120220	12022020	113528	204.69	12.451152	-57.228150	204.73	-0.150	0.910	1.290	204.69	-0.80	1.60	 	 	 	 	 	 	 	 	 	 	 	 	 	 	 	 	 	 	1581507328	7.75	14.35
12/02/2020 11:35:29	120220	12022020	113529	205.18	12.451117	-57.228165	205.23	0.180	-0.230	0.920	205.18	-2.00	1.40	 	 	 	 	 	 	 	 	 	 	 	 	 	 	 	 	 	 	1581507329	8.20	15.19
12/02/2020 11:35:30	120220	12022020	113530	205.50	12.451082	-57.228182	205.56	0.420	-1.210	0.880	205.50	-2.70	1.40	 	 	 	 	 	 	 	 	 	 	 	 	 	 	 	 	 	 	1581507330	8.38	15.52
12/02/2020 11:35:31	120220	12022020	113531	205.71	12.451048	-57.228200	205.77	0.440	-1.550	1.050	205.71	-2.90	1.60	 	 	 	 	 	 	 	 	 	 	 	 	 	 	 	 	 	 	1581507331	7.95	14.72
12/02/2020 11:35:32	120220	12022020	113532	205.63	12.451018	-57.228217	205.69	0.290	-1.480	1.510	205.63	-2.80	2.20	 	 	 	 	 	 	 	 	 	 	 	 	 	 	 	 	 	 	1581507332	7.36	13.63
12/02/2020 11:35:33	120220	12022020	113533	205.17	12.450988	-57.228233	205.24	0.080	-1.240	2.210	205.17	-2.40	2.90	 	 	 	 	 	 	 	 	 	 	 	 	 	 	 	 	 	 	1581507333	7.37	13.65
12/02/2020 11:35:34	120220	12022020	113534	204.64	12.450958	-57.228253	204.74	-0.170	-0.630	2.770	204.64	-1.70	3.30	 	 	 	 	 	 	 	 	 	 	 	 	 	 	 	 	 	 	1581507334	7.66	14.19
12/02/2020 11:35:35	120220	12022020	113535	204.52	12.450930	-57.228273	204.64	-0.400	0.280	2.760	204.52	-0.80	3.10	 	 	 	 	 	 	 	 	 	 	 	 	 	 	 	 	 	 	1581507335	7.51	13.91
12/02/2020 11:35:36	120220	12022020	113536	204.73	12.450900	-57.228290	204.85	-0.420	0.850	2.380	204.73	-0.50	2.70	 	 	 	 	 	 	 	 	 	 	 	 	 	 	 	 	 	 	1581507336	7.26	13.45
12/02/2020 11:35:37	120220	12022020	113537	204.81	12.450868	-57.228305	204.90	-0.120	0.580	1.960	204.81	-1.00	2.30	 	 	 	 	 	 	 	 	 	 	 	 	 	 	 	 	 	 	1581507337	7.65	14.17
12/02/2020 11:35:38	120220	12022020	113538	204.64	12.450832	-57.228322	204.73	0.260	-0.200	1.820	204.64	-1.80	2.30	 	 	 	 	 	 	 	 	 	 	 	 	 	 	 	 	 	 	1581507338	8.47	15.69
12/02/2020 11:35:39	120220	12022020	113539	204.54	12.450795	-57.228338	204.63	0.300	-0.680	2.070	204.54	-2.00	2.70	 	 	 	 	 	 	 	 	 	 	 	 	 	 	 	 	 	 	1581507339	8.72	16.15
12/02/2020 11:35:40	120220	12022020	113540	204.57	12.450763	-57.228357	204.65	-0.100	-0.500	2.440	204.57	-1.70	3.00	 	 	 	 	 	 	 	 	 	 	 	 	 	 	 	 	 	 	1581507340	8.10	15.00
12/02/2020 11:35:41	120220	12022020	113541	204.61	12.450735	-57.228378	204.69	-0.520	-0.030	2.650	204.61	-1.30	3.10	 	 	 	 	 	 	 	 	 	 	 	 	 	 	 	 	 	 	1581507341	7.44	13.78
12/02/2020 11:35:42	120220	12022020	113542	204.81	12.450707	-57.228398	204.90	-0.540	0.310	2.350	204.81	-1.00	2.60	 	 	 	 	 	 	 	 	 	 	 	 	 	 	 	 	 	 	1581507342	7.27	13.46
12/02/2020 11:35:43	120220	12022020	113543	205.38	12.450678	-57.228415	205.46	-0.090	0.460	1.430	205.38	-0.90	1.60	 	 	 	 	 	 	 	 	 	 	 	 	 	 	 	 	 	 	1581507343	7.27	13.46
12/02/2020 11:35:44	120220	12022020	113544	206.07	12.450647	-57.228428	206.13	0.520	0.180	0.420	206.07	-1.40	0.70	 	 	 	 	 	 	 	 	 	 	 	 	 	 	 	 	 	 	1581507344	7.33	13.58
12/02/2020 11:35:45	120220	12022020	113545	206.57	12.450612	-57.228438	206.63	0.830	-0.550	-0.030	206.57	-2.20	0.50	 	 	 	 	 	 	 	 	 	 	 	 	 	 	 	 	 	 	1581507345	7.76	14.37
12/02/2020 11:35:46	120220	12022020	113546	206.46	12.450577	-57.228452	206.53	0.690	-1.330	0.450	206.46	-2.90	1.30	 	 	 	 	 	 	 	 	 	 	 	 	 	 	 	 	 	 	1581507346	8.07	14.95
12/02/2020 11:35:47	120220	12022020	113547	205.70	12.450543	-57.228472	205.78	0.260	-1.680	1.670	205.70	-3.00	2.60	 	 	 	 	 	 	 	 	 	 	 	 	 	 	 	 	 	 	1581507347	8.12	15.04
12/02/2020 11:35:48	120220	12022020	113548	204.78	12.450513	-57.228493	204.89	-0.180	-1.370	2.880	204.78	-2.50	3.60	 	 	 	 	 	 	 	 	 	 	 	 	 	 	 	 	 	 	1581507348	8.04	14.89
12/02/2020 11:35:49	120220	12022020	113549	204.33	12.450483	-57.228515	204.39	-0.470	-0.630	3.380	204.27	-1.70	3.80	 	 	 	 	 	 	 	 	 	 	 	 	 	 	 	 	 	 	1581507349	7.86	14.56
12/02/2020 11:35:50	120220	12022020	113550	204.17	12.450453	-57.228535	204.29	-0.610	0.090	3.270	204.17	-1.10	3.60	 	 	 	 	 	 	 	 	 	 	 	 	 	 	 	 	 	 	1581507350	7.64	14.15
12/02/2020 11:35:51	120220	12022020	113551	204.34	12.450423	-57.228553	204.46	-0.630	0.480	2.760	204.34	-0.80	3.00	 	 	 	 	 	 	 	 	 	 	 	 	 	 	 	 	 	 	1581507351	7.73	14.32
12/02/2020 11:35:52	120220	12022020	113552	204.78	12.450390	-57.228570	204.89	-0.600	0.580	2.110	204.78	-0.80	2.40	 	 	 	 	 	 	 	 	 	 	 	 	 	 	 	 	 	 	1581507352	7.95	14.72
12/02/2020 11:35:53	120220	12022020	113553	205.30	12.450357	-57.228587	205.40	-0.470	0.540	1.560	205.30	-0.90	1.90	 	 	 	 	 	 	 	 	 	 	 	 	 	 	 	 	 	 	1581507353	7.92	14.67
12/02/2020 11:35:54	120220	12022020	113554	205.65	12.450325	-57.228605	205.73	-0.090	0.380	1.190	205.65	-1.00	1.60	 	 	 	 	 	 	 	 	 	 	 	 	 	 	 	 	 	 	1581507354	7.78	14.41
12/02/2020 11:35:55	120220	12022020	113555	205.93	12.450293	-57.228622	206.01	0.430	0.210	0.950	205.93	-1.20	1.40	 	 	 	 	 	 	 	 	 	 	 	 	 	 	 	 	 	 	1581507355	7.75	14.35
12/02/2020 11:35:56	120220	12022020	113556	206.31	12.450262	-57.228635	206.40	0.730	0.070	0.740	206.31	-1.40	1.20	 	 	 	 	 	 	 	 	 	 	 	 	 	 	 	 	 	 	1581507356	7.54	13.96
12/02/2020 11:35:57	120220	12022020	113557	206.61	12.450230	-57.228650	206.69	0.650	-0.260	0.760	206.61	-1.80	1.30	 	 	 	 	 	 	 	 	 	 	 	 	 	 	 	 	 	 	1581507357	7.39	13.69
12/02/2020 11:35:58	120220	12022020	113558	206.70	12.450198	-57.228667	206.77	0.350	-0.750	1.150	206.70	-2.30	1.80	 	 	 	 	 	 	 	 	 	 	 	 	 	 	 	 	 	 	1581507358	7.53	13.95
12/02/2020 11:35:59	120220	12022020	113559	206.58	12.450168	-57.228687	206.65	0.150	-1.140	1.710	206.58	-2.60	2.40	 	 	 	 	 	 	 	 	 	 	 	 	 	 	 	 	 	 	1581507359	7.70	14.26
12/02/2020 11:36:00	120220	12022020	113600	206.18	12.450138	-57.228705	206.25	0.200	-1.370	2.200	206.18	-2.70	2.70	 	 	 	 	 	 	 	 	 	 	 	 	 	 	 	 	 	 	1581507360	7.77	14.39
12/02/2020 11:36:01	120220	12022020	113601	205.81	12.450105	-57.228723	205.90	0.270	-1.320	2.360	205.81	-2.60	2.80	1016.00	26.30	26.40	21.30	21.30	165.0	73.0	73.0	413.0	26.9	247.00	8.20	71.00	10.50	14487	8295.0	27.5	27.5	1581507361	7.92	14.67
12/02/2020 11:36:02	120220	12022020	113602	205.60	12.450072	-57.228740	205.70	0.050	-0.890	2.400	205.60	-2.00	2.90	 	 	 	 	 	 	 	 	 	 	 	 	 	 	 	 	 	 	1581507362	7.88	14.59
12/02/2020 11:36:03	120220	12022020	113603	205.47	12.450040	-57.228755	205.57	-0.470	-0.280	2.450	205.47	-1.40	2.90	 	 	 	 	 	 	 	 	 	 	 	 	 	 	 	 	 	 	1581507363	7.68	14.22
12/02/2020 11:36:04	120220	12022020	113604	205.42	12.450010	-57.228775	205.51	-0.920	0.300	2.570	205.42	-0.90	3.10	 	 	 	 	 	 	 	 	 	 	 	 	 	 	 	 	 	 	1581507364	7.67	14.20
12/02/2020 11:36:05	120220	12022020	113605	205.51	12.449980	-57.228797	205.62	-0.950	0.620	2.590	205.51	-0.70	3.00	 	 	 	 	 	 	 	 	 	 	 	 	 	 	 	 	 	 	1581507365	7.80	14.45
12/02/2020 11:36:06	120220	12022020	113606	205.78	12.449950	-57.228817	205.90	-0.580	0.690	2.270	205.78	-0.60	2.50	 	 	 	 	 	 	 	 	 	 	 	 	 	 	 	 	 	 	1581507366	8.02	14.85
12/02/2020 11:36:07	120220	12022020	113607	206.24	12.449918	-57.228837	206.33	-0.090	0.750	1.570	206.24	-0.60	1.80	 	 	 	 	 	 	 	 	 	 	 	 	 	 	 	 	 	 	1581507367	7.97	14.76
12/02/2020 11:36:08	120220	12022020	113608	206.81	12.449887	-57.228853	206.90	0.350	0.720	0.690	206.81	-0.70	0.90	 	 	 	 	 	 	 	 	 	 	 	 	 	 	 	 	 	 	1581507368	7.63	14.13
12/02/2020 11:36:09	120220	12022020	113609	207.33	12.449853	-57.228867	207.38	0.730	0.300	-0.020	207.33	-1.30	0.40	 	 	 	 	 	 	 	 	 	 	 	 	 	 	 	 	 	 	1581507369	7.47	13.83
12/02/2020 11:36:10	120220	12022020	113610	207.47	12.449820	-57.228880	207.53	1.010	-0.750	-0.030	207.47	-2.50	0.60	 	 	 	 	 	 	 	 	 	 	 	 	 	 	 	 	 	 	1581507370	7.80	14.45
12/02/2020 11:36:11	120220	12022020	113611	207.27	12.449785	-57.228895	207.34	0.920	-1.860	0.720	207.27	-3.40	1.60	 	 	 	 	 	 	 	 	 	 	 	 	 	 	 	 	 	 	1581507371	8.39	15.54
12/02/2020 11:36:12	120220	12022020	113612	206.84	12.449750	-57.228915	206.92	0.350	-2.190	1.900	206.84	-3.40	2.70	 	 	 	 	 	 	 	 	 	 	 	 	 	 	 	 	 	 	1581507372	8.42	15.59
12/02/2020 11:36:13	120220	12022020	113613	206.46	12.449722	-57.228938	206.57	-0.430	-1.460	2.980	206.46	-2.40	3.70	 	 	 	 	 	 	 	 	 	 	 	 	 	 	 	 	 	 	1581507373	7.90	14.63
12/02/2020 11:36:14	120220	12022020	113614	206.24	12.449695	-57.228960	206.37	-0.940	-0.270	3.580	206.24	-1.30	4.10	 	 	 	 	 	 	 	 	 	 	 	 	 	 	 	 	 	 	1581507374	7.22	13.37
12/02/2020 11:36:15	120220	12022020	113615	206.00	12.449670	-57.228980	206.14	-0.780	0.380	3.680	206.00	-0.90	4.10	 	 	 	 	 	 	 	 	 	 	 	 	 	 	 	 	 	 	1581507375	7.14	13.22
12/02/2020 11:36:16	120220	12022020	113616	205.86	12.449638	-57.229000	205.99	-0.210	0.410	3.320	205.86	-1.00	3.60	 	 	 	 	 	 	 	 	 	 	 	 	 	 	 	 	 	 	1581507376	7.94	14.70
12/02/2020 11:36:17	120220	12022020	113617	206.14	12.449602	-57.229017	206.27	0.180	0.370	2.570	206.14	-1.00	2.80	 	 	 	 	 	 	 	 	 	 	 	 	 	 	 	 	 	 	1581507377	8.43	15.61
12/02/2020 11:36:18	120220	12022020	113618	206.59	12.449568	-57.229033	206.70	0.140	0.380	1.870	206.59	-1.00	2.20	 	 	 	 	 	 	 	 	 	 	 	 	 	 	 	 	 	 	1581507378	8.13	15.06
12/02/2020 11:36:19	120220	12022020	113619	206.78	12.449535	-57.229048	206.87	-0.070	0.260	1.610	206.78	-1.10	2.10	 	 	 	 	 	 	 	 	 	 	 	 	 	 	 	 	 	 	1581507379	7.82	14.48
12/02/2020 11:36:20	120220	12022020	113620	206.87	12.449503	-57.229068	206.97	-0.150	0.150	1.590	206.87	-1.20	2.00	 	 	 	 	 	 	 	 	 	 	 	 	 	 	 	 	 	 	1581507380	7.80	14.45
12/02/2020 11:36:21	120220	12022020	113621	207.14	12.449473	-57.229087	207.24	-0.010	0.080	1.300	207.14	-1.30	1.60	 	 	 	 	 	 	 	 	 	 	 	 	 	 	 	 	 	 	1581507381	7.62	14.11
12/02/2020 11:36:22	120220	12022020	113622	207.41	12.449443	-57.229103	207.49	0.320	-0.230	0.820	207.41	-1.80	1.20	 	 	 	 	 	 	 	 	 	 	 	 	 	 	 	 	 	 	1581507382	7.45	13.80
12/02/2020 11:36:23	120220	12022020	113623	207.53	12.449412	-57.229120	207.61	0.690	-0.850	0.420	207.53	-2.40	0.80	 	 	 	 	 	 	 	 	 	 	 	 	 	 	 	 	 	 	1581507383	7.74	14.33
12/02/2020 11:36:24	120220	12022020	113624	207.63	12.449377	-57.229137	207.72	0.880	-1.290	0.100	207.63	-2.70	0.50	 	 	 	 	 	 	 	 	 	 	 	 	 	 	 	 	 	 	1581507384	8.11	15.02
12/02/2020 11:36:25	120220	12022020	113625	207.76	12.449343	-57.229150	207.85	0.650	-1.170	0.040	207.76	-2.40	0.60	 	 	 	 	 	 	 	 	 	 	 	 	 	 	 	 	 	 	1581507385	7.94	14.70
12/02/2020 11:36:26	120220	12022020	113626	207.71	12.449310	-57.229165	207.80	0.030	-0.780	0.490	207.71	-2.00	1.20	 	 	 	 	 	 	 	 	 	 	 	 	 	 	 	 	 	 	1581507386	7.54	13.96
12/02/2020 11:36:27	120220	12022020	113627	207.35	12.449280	-57.229183	207.45	-0.660	-0.460	1.410	207.35	-1.70	2.20	 	 	 	 	 	 	 	 	 	 	 	 	 	 	 	 	 	 	1581507387	7.55	13.98
12/02/2020 11:36:28	120220	12022020	113628	207.00	12.449252	-57.229207	207.11	-1.050	-0.220	2.360	207.00	-1.50	3.00	 	 	 	 	 	 	 	 	 	 	 	 	 	 	 	 	 	 	1581507388	8.04	14.89
12/02/2020 11:36:29	120220	12022020	113629	206.95	12.449222	-57.229232	207.08	-1.010	0.050	2.900	206.95	-1.20	3.40	 	 	 	 	 	 	 	 	 	 	 	 	 	 	 	 	 	 	1581507389	8.31	15.39
12/02/2020 11:36:30	120220	12022020	113630	207.07	12.449192	-57.229257	207.19	-0.600	0.300	2.950	207.07	-1.00	3.30	 	 	 	 	 	 	 	 	 	 	 	 	 	 	 	 	 	 	1581507390	8.23	15.24
12/02/2020 11:36:31	120220	12022020	113631	207.18	12.449162	-57.229278	207.30	-0.050	0.410	2.540	207.18	-0.90	2.80	 	 	 	 	 	 	 	 	 	 	 	 	 	 	 	 	 	 	1581507391	8.04	14.89
12/02/2020 11:36:32	120220	12022020	113632	207.31	12.449130	-57.229297	207.42	0.360	0.370	1.850	207.31	-1.00	2.10	 	 	 	 	 	 	 	 	 	 	 	 	 	 	 	 	 	 	1581507392	7.95	14.72
12/02/2020 11:36:33	120220	12022020	113633	207.41	12.449097	-57.229312	207.51	0.550	0.210	1.210	207.41	-1.20	1.50	 	 	 	 	 	 	 	 	 	 	 	 	 	 	 	 	 	 	1581507393	7.87	14.58
12/02/2020 11:36:34	120220	12022020	113634	207.36	12.449063	-57.229327	207.46	0.570	-0.110	0.770	207.36	-1.50	1.20	 	 	 	 	 	 	 	 	 	 	 	 	 	 	 	 	 	 	1581507394	7.83	14.50
12/02/2020 11:36:35	120220	12022020	113635	207.42	12.449030	-57.229342	207.52	0.440	-0.300	0.490	207.42	-1.60	0.90	 	 	 	 	 	 	 	 	 	 	 	 	 	 	 	 	 	 	1581507395	7.89	14.61
12/02/2020 11:36:36	120220	12022020	113636	207.78	12.448998	-57.229358	207.89	0.220	-0.210	0.320	207.78	-1.50	0.80	 	 	 	 	 	 	 	 	 	 	 	 	 	 	 	 	 	 	1581507396	7.55	13.98
12/02/2020 11:36:37	120220	12022020	113637	208.09	12.448968	-57.229375	208.21	0.110	-0.270	0.400	208.09	-1.70	1.00	 	 	 	 	 	 	 	 	 	 	 	 	 	 	 	 	 	 	1581507397	7.21	13.35
12/02/2020 11:36:38	120220	12022020	113638	208.16	12.448938	-57.229393	208.30	0.210	-0.860	0.760	208.16	-2.40	1.40	 	 	 	 	 	 	 	 	 	 	 	 	 	 	 	 	 	 	1581507398	7.57	14.02
12/02/2020 11:36:39	120220	12022020	113639	208.04	12.448905	-57.229413	208.15	0.350	-1.510	1.420	207.99	-2.90	2.10	 	 	 	 	 	 	 	 	 	 	 	 	 	 	 	 	 	 	1581507399	8.29	15.35
12/02/2020 11:36:40	120220	12022020	113640	207.65	12.448872	-57.229435	207.81	0.300	-1.560	2.170	207.65	-2.70	2.90	 	 	 	 	 	 	 	 	 	 	 	 	 	 	 	 	 	 	1581507400	8.45	15.65
12/02/2020 11:36:41	120220	12022020	113641	207.28	12.448842	-57.229457	207.44	-0.020	-0.920	2.810	207.28	-2.00	3.50	 	 	 	 	 	 	 	 	 	 	 	 	 	 	 	 	 	 	1581507401	8.01	14.83
12/02/2020 11:36:42	120220	12022020	113642	206.75	12.448813	-57.229477	206.89	-0.420	-0.170	3.360	206.75	-1.30	4.00	 	 	 	 	 	 	 	 	 	 	 	 	 	 	 	 	 	 	1581507402	7.60	14.08
12/02/2020 11:36:43	120220	12022020	113643	206.10	12.448783	-57.229498	206.27	-0.690	0.280	3.760	206.10	-0.90	4.20	 	 	 	 	 	 	 	 	 	 	 	 	 	 	 	 	 	 	1581507403	7.82	14.48
12/02/2020 11:36:44	120220	12022020	113644	205.82	12.448752	-57.229522	205.99	-0.840	0.500	3.640	205.82	-0.80	3.90	 	 	 	 	 	 	 	 	 	 	 	 	 	 	 	 	 	 	1581507404	8.27	15.32
12/02/2020 11:36:45	120220	12022020	113645	206.01	12.448720	-57.229543	206.17	-0.790	0.670	2.910	206.01	-0.60	3.00	 	 	 	 	 	 	 	 	 	 	 	 	 	 	 	 	 	 	1581507405	8.30	15.37
12/02/2020 11:36:46	120220	12022020	113646	206.56	12.448688	-57.229563	206.68	-0.440	0.860	1.750	206.56	-0.40	1.80	 	 	 	 	 	 	 	 	 	 	 	 	 	 	 	 	 	 	1581507406	7.98	14.78
12/02/2020 11:36:47	120220	12022020	113647	207.49	12.448657	-57.229578	207.59	0.170	0.940	0.280	207.49	-0.40	0.30	 	 	 	 	 	 	 	 	 	 	 	 	 	 	 	 	 	 	1581507407	7.62	14.11
12/02/2020 11:36:48	120220	12022020	113648	208.57	12.448623	-57.229588	208.63	0.770	0.530	-0.860	208.57	-1.10	-0.50	 	 	 	 	 	 	 	 	 	 	 	 	 	 	 	 	 	 	1581507408	7.54	13.96
12/02/2020 11:36:49	120220	12022020	113649	209.13	12.448588	-57.229600	209.17	1.130	-0.590	-0.930	209.13	-2.40	-0.20	 	 	 	 	 	 	 	 	 	 	 	 	 	 	 	 	 	 	1581507409	7.82	14.48
12/02/2020 11:36:50	120220	12022020	113650	208.79	12.448553	-57.229617	208.83	1.180	-1.890	0.190	208.79	-3.50	1.20	 	 	 	 	 	 	 	 	 	 	 	 	 	 	 	 	 	 	1581507410	8.28	15.33
12/02/2020 11:36:51	120220	12022020	113651	207.95	12.448520	-57.229638	208.04	0.790	-2.300	1.950	207.95	-3.40	3.00	 	 	 	 	 	 	 	 	 	 	 	 	 	 	 	 	 	 	1581507411	8.46	15.67
12/02/2020 11:36:52	120220	12022020	113652	207.24	12.448492	-57.229662	207.36	0.040	-1.580	3.480	207.24	-2.50	4.30	 	 	 	 	 	 	 	 	 	 	 	 	 	 	 	 	 	 	1581507412	7.88	14.59
12/02/2020 11:36:53	120220	12022020	113653	206.68	12.448468	-57.229687	206.83	-0.640	-0.510	4.380	206.68	-1.50	5.00	 	 	 	 	 	 	 	 	 	 	 	 	 	 	 	 	 	 	1581507413	7.34	13.59
12/02/2020 11:36:54	120220	12022020	113654	206.34	12.448442	-57.229712	206.51	-0.910	0.160	4.460	206.34	-1.00	4.70	 	 	 	 	 	 	 	 	 	 	 	 	 	 	 	 	 	 	1581507414	7.51	13.91
12/02/2020 11:36:55	120220	12022020	113655	206.43	12.448413	-57.229733	206.58	-0.760	0.440	3.710	206.43	-0.80	3.80	 	 	 	 	 	 	 	 	 	 	 	 	 	 	 	 	 	 	1581507415	7.90	14.63
12/02/2020 11:36:56	120220	12022020	113656	206.73	12.448380	-57.229752	206.84	-0.420	0.450	2.520	206.73	-0.90	2.60	 	 	 	 	 	 	 	 	 	 	 	 	 	 	 	 	 	 	1581507416	8.09	14.98
12/02/2020 11:36:57	120220	12022020	113657	207.02	12.448345	-57.229768	207.11	-0.090	0.260	1.440	207.02	-1.10	1.70	 	 	 	 	 	 	 	 	 	 	 	 	 	 	 	 	 	 	1581507417	8.18	15.15
12/02/2020 11:36:58	120220	12022020	113658	207.29	12.448310	-57.229783	207.38	0.100	0.010	0.790	207.29	-1.30	1.10	 	 	 	 	 	 	 	 	 	 	 	 	 	 	 	 	 	 	1581507418	8.22	15.22
12/02/2020 11:36:59	120220	12022020	113659	207.74	12.448277	-57.229800	207.84	0.120	0.080	0.350	207.74	-1.20	0.70	 	 	 	 	 	 	 	 	 	 	 	 	 	 	 	 	 	 	1581507419	8.05	14.91
12/02/2020 11:37:00	120220	12022020	113700	208.26	12.448245	-57.229817	208.37	0.040	0.270	0.200	208.26	-1.10	0.70	 	 	 	 	 	 	 	 	 	 	 	 	 	 	 	 	 	 	1581507420	7.45	13.80
12/02/2020 11:37:01	120220	12022020	113701	208.58	12.448217	-57.229833	208.68	0.110	0.060	0.380	208.58	-1.40	0.90	1016.00	26.20	26.30	21.10	21.20	150.0	73.0	73.0	411.0	26.9	244.00	8.30	71.00	10.80	14214	9149.0	27.5	27.5	1581507421	7.29	13.50
12/02/2020 11:37:02	120220	12022020	113702	208.72	12.448185	-57.229852	208.85	0.360	-0.490	0.590	208.72	-2.00	1.20	 	 	 	 	 	 	 	 	 	 	 	 	 	 	 	 	 	 	1581507422	7.70	14.26
12/02/2020 11:37:03	120220	12022020	113703	208.70	12.448152	-57.229870	208.80	0.540	-1.010	0.950	208.67	-2.40	1.60	 	 	 	 	 	 	 	 	 	 	 	 	 	 	 	 	 	 	1581507423	8.01	14.83
12/02/2020 11:37:04	120220	12022020	113704	208.36	12.448120	-57.229887	208.47	0.420	-1.320	1.560	208.36	-2.70	2.30	 	 	 	 	 	 	 	 	 	 	 	 	 	 	 	 	 	 	1581507424	8.00	14.82
12/02/2020 11:37:05	120220	12022020	113705	207.81	12.448088	-57.229907	207.94	0.030	-1.260	2.350	207.81	-2.40	3.10	 	 	 	 	 	 	 	 	 	 	 	 	 	 	 	 	 	 	1581507425	7.97	14.76
12/02/2020 11:37:06	120220	12022020	113706	207.16	12.448058	-57.229930	207.30	-0.360	-0.800	3.060	207.16	-1.90	3.70	 	 	 	 	 	 	 	 	 	 	 	 	 	 	 	 	 	 	1581507426	7.86	14.56
12/02/2020 11:37:07	120220	12022020	113707	206.76	12.448030	-57.229952	206.90	-0.590	-0.040	3.310	206.76	-1.10	3.70	 	 	 	 	 	 	 	 	 	 	 	 	 	 	 	 	 	 	1581507427	7.75	14.35
12/02/2020 11:37:08	120220	12022020	113708	206.80	12.448002	-57.229972	206.93	-0.590	0.640	3.040	206.80	-0.50	3.30	 	 	 	 	 	 	 	 	 	 	 	 	 	 	 	 	 	 	1581507428	7.53	13.95
12/02/2020 11:37:09	120220	12022020	113709	207.11	12.447972	-57.229992	207.23	-0.380	0.820	2.380	207.11	-0.60	2.60	 	 	 	 	 	 	 	 	 	 	 	 	 	 	 	 	 	 	1581507429	7.61	14.09
12/02/2020 11:37:10	120220	12022020	113710	207.54	12.447940	-57.230012	207.65	-0.040	0.540	1.500	207.54	-0.90	1.70	 	 	 	 	 	 	 	 	 	 	 	 	 	 	 	 	 	 	1581507430	8.00	14.82
12/02/2020 11:37:11	120220	12022020	113711	208.03	12.447907	-57.230030	208.12	0.360	0.160	0.560	208.03	-1.30	0.80	 	 	 	 	 	 	 	 	 	 	 	 	 	 	 	 	 	 	1581507431	8.16	15.11
12/02/2020 11:37:12	120220	12022020	113712	208.42	12.447872	-57.230043	208.52	0.660	-0.220	-0.010	208.42	-1.70	0.40	 	 	 	 	 	 	 	 	 	 	 	 	 	 	 	 	 	 	1581507432	7.96	14.74
12/02/2020 11:37:13	120220	12022020	113713	208.42	12.447838	-57.230058	208.51	0.670	-0.730	0.000	208.42	-2.20	0.60	 	 	 	 	 	 	 	 	 	 	 	 	 	 	 	 	 	 	1581507433	7.82	14.48
12/02/2020 11:37:14	120220	12022020	113714	208.02	12.447805	-57.230073	208.14	0.320	-1.200	0.520	208.02	-2.60	1.20	 	 	 	 	 	 	 	 	 	 	 	 	 	 	 	 	 	 	1581507434	7.96	14.74
12/02/2020 11:37:15	120220	12022020	113715	207.67	12.447773	-57.230093	207.82	-0.200	-1.180	1.220	207.67	-2.30	1.90	 	 	 	 	 	 	 	 	 	 	 	 	 	 	 	 	 	 	1581507435	8.01	14.83
12/02/2020 11:37:16	120220	12022020	113716	207.61	12.447745	-57.230117	207.76	-0.540	-0.580	1.690	207.61	-1.70	2.20	 	 	 	 	 	 	 	 	 	 	 	 	 	 	 	 	 	 	1581507436	7.70	14.26
12/02/2020 11:37:17	120220	12022020	113717	207.81	12.447718	-57.230137	207.98	-0.490	0.090	1.720	207.81	-1.10	2.10	 	 	 	 	 	 	 	 	 	 	 	 	 	 	 	 	 	 	1581507437	7.33	13.58
12/02/2020 11:37:18	120220	12022020	113718	208.13	12.447688	-57.230157	208.29	-0.160	0.310	1.570	208.13	-1.00	2.00	 	 	 	 	 	 	 	 	 	 	 	 	 	 	 	 	 	 	1581507438	7.41	13.72
12/02/2020 11:37:19	120220	12022020	113719	208.35	12.447658	-57.230175	208.49	0.180	0.110	1.490	208.35	-1.30	1.90	 	 	 	 	 	 	 	 	 	 	 	 	 	 	 	 	 	 	1581507439	7.88	14.59
12/02/2020 11:37:20	120220	12022020	113720	208.46	12.447625	-57.230193	208.60	0.280	-0.060	1.490	208.46	-1.40	2.00	 	 	 	 	 	 	 	 	 	 	 	 	 	 	 	 	 	 	1581507440	8.12	15.04
12/02/2020 11:37:21	120220	12022020	113721	208.42	12.447593	-57.230213	208.55	0.100	-0.190	1.720	208.42	-1.60	2.30	 	 	 	 	 	 	 	 	 	 	 	 	 	 	 	 	 	 	1581507441	7.87	14.58
12/02/2020 11:37:22	120220	12022020	113722	208.07	12.447562	-57.230233	208.19	-0.100	-0.590	2.130	208.07	-2.10	2.80	 	 	 	 	 	 	 	 	 	 	 	 	 	 	 	 	 	 	1581507442	7.84	14.52
12/02/2020 11:37:23	120220	12022020	113723	207.34	12.447530	-57.230255	207.49	-0.080	-1.060	2.610	207.34	-2.40	3.20	 	 	 	 	 	 	 	 	 	 	 	 	 	 	 	 	 	 	1581507443	8.27	15.32
12/02/2020 11:37:24	120220	12022020	113724	206.70	12.447498	-57.230277	206.87	0.080	-1.000	2.810	206.70	-2.10	3.20	 	 	 	 	 	 	 	 	 	 	 	 	 	 	 	 	 	 	1581507444	8.52	15.78
12/02/2020 11:37:25	120220	12022020	113725	206.71	12.447467	-57.230297	206.88	0.080	-0.170	2.390	206.71	-1.10	2.60	 	 	 	 	 	 	 	 	 	 	 	 	 	 	 	 	 	 	1581507445	7.97	14.76
12/02/2020 11:37:26	120220	12022020	113726	207.24	12.447437	-57.230313	207.40	-0.110	0.790	1.630	207.24	-0.40	1.90	 	 	 	 	 	 	 	 	 	 	 	 	 	 	 	 	 	 	1581507446	7.12	13.19
12/02/2020 11:37:27	120220	12022020	113727	207.81	12.447408	-57.230327	207.94	-0.230	0.890	1.000	207.81	-0.60	1.40	 	 	 	 	 	 	 	 	 	 	 	 	 	 	 	 	 	 	1581507447	7.03	13.02
12/02/2020 11:37:28	120220	12022020	113728	208.17	12.447375	-57.230343	208.31	-0.130	0.100	0.880	208.17	-1.50	1.40	 	 	 	 	 	 	 	 	 	 	 	 	 	 	 	 	 	 	1581507448	7.89	14.61
12/02/2020 11:37:29	120220	12022020	113729	208.39	12.447340	-57.230363	208.59	0.030	-0.640	1.050	208.43	-2.00	1.60	 	 	 	 	 	 	 	 	 	 	 	 	 	 	 	 	 	 	1581507449	8.51	15.76
12/02/2020 11:37:30	120220	12022020	113730	208.59	12.447308	-57.230385	208.73	0.130	-0.690	1.290	208.59	-1.90	1.90	 	 	 	 	 	 	 	 	 	 	 	 	 	 	 	 	 	 	1581507450	8.09	14.98
12/02/2020 11:37:31	120220	12022020	113731	208.47	12.447280	-57.230405	208.61	0.170	-0.520	1.680	208.47	-1.80	2.30	 	 	 	 	 	 	 	 	 	 	 	 	 	 	 	 	 	 	1581507451	7.36	13.63
12/02/2020 11:37:32	120220	12022020	113732	208.11	12.447252	-57.230423	208.27	0.190	-0.630	2.180	208.11	-2.00	2.80	 	 	 	 	 	 	 	 	 	 	 	 	 	 	 	 	 	 	1581507452	7.43	13.76
12/02/2020 11:37:33	120220	12022020	113733	207.74	12.447220	-57.230445	207.91	0.220	-0.770	2.510	207.74	-2.00	3.00	 	 	 	 	 	 	 	 	 	 	 	 	 	 	 	 	 	 	1581507453	7.97	14.76
12/02/2020 11:37:34	120220	12022020	113734	207.53	12.447188	-57.230463	207.70	0.200	-0.510	2.510	207.53	-1.70	2.90	 	 	 	 	 	 	 	 	 	 	 	 	 	 	 	 	 	 	1581507454	8.05	14.91
12/02/2020 11:37:35	120220	12022020	113735	207.52	12.447157	-57.230482	207.66	0.070	-0.070	2.180	207.52	-1.30	2.50	 	 	 	 	 	 	 	 	 	 	 	 	 	 	 	 	 	 	1581507455	7.66	14.19
12/02/2020 11:37:36	120220	12022020	113736	207.62	12.447125	-57.230497	207.77	-0.090	0.030	1.670	207.62	-1.30	2.00	 	 	 	 	 	 	 	 	 	 	 	 	 	 	 	 	 	 	1581507456	7.60	14.08
12/02/2020 11:37:37	120220	12022020	113737	207.84	12.447093	-57.230515	207.99	-0.220	-0.210	1.250	207.84	-1.60	1.70	 	 	 	 	 	 	 	 	 	 	 	 	 	 	 	 	 	 	1581507457	7.97	14.76
12/02/2020 11:37:38	120220	12022020	113738	207.90	12.447060	-57.230533	208.04	-0.320	-0.550	1.280	207.90	-2.00	1.90	 	 	 	 	 	 	 	 	 	 	 	 	 	 	 	 	 	 	1581507458	8.19	15.17
12/02/2020 11:37:39	120220	12022020	113739	207.54	12.447027	-57.230555	207.68	-0.380	-0.780	1.850	207.54	-2.10	2.60	 	 	 	 	 	 	 	 	 	 	 	 	 	 	 	 	 	 	1581507459	8.29	15.35
12/02/2020 11:37:40	120220	12022020	113740	207.08	12.446997	-57.230578	207.24	-0.450	-0.540	2.510	207.08	-1.60	3.10	 	 	 	 	 	 	 	 	 	 	 	 	 	 	 	 	 	 	1581507460	8.32	15.41
12/02/2020 11:37:41	120220	12022020	113741	207.08	12.446967	-57.230602	207.24	-0.500	0.280	2.650	207.08	-0.70	3.00	 	 	 	 	 	 	 	 	 	 	 	 	 	 	 	 	 	 	1581507461	7.93	14.69
12/02/2020 11:37:42	120220	12022020	113742	207.58	12.446940	-57.230622	207.73	-0.370	1.180	2.020	207.58	0.00	2.20	 	 	 	 	 	 	 	 	 	 	 	 	 	 	 	 	 	 	1581507462	7.20	13.33
12/02/2020 11:37:43	120220	12022020	113743	208.23	12.446912	-57.230638	208.35	0.050	1.370	0.980	208.23	-0.10	1.10	 	 	 	 	 	 	 	 	 	 	 	 	 	 	 	 	 	 	1581507463	6.95	12.87
12/02/2020 11:37:44	120220	12022020	113744	208.66	12.446878	-57.230650	208.75	0.640	0.500	0.210	208.66	-1.20	0.60	 	 	 	 	 	 	 	 	 	 	 	 	 	 	 	 	 	 	1581507464	7.64	14.15
12/02/2020 11:37:45	120220	12022020	113745	208.80	12.446842	-57.230663	208.89	0.980	-0.870	0.250	208.80	-2.60	0.90	 	 	 	 	 	 	 	 	 	 	 	 	 	 	 	 	 	 	1581507465	8.44	15.63
12/02/2020 11:37:46	120220	12022020	113746	208.46	12.446807	-57.230682	208.56	0.870	-1.910	1.130	208.46	-3.40	2.00	 	 	 	 	 	 	 	 	 	 	 	 	 	 	 	 	 	 	1581507466	8.56	15.85
12/02/2020 11:37:47	120220	12022020	113747	207.72	12.446775	-57.230705	207.83	0.450	-2.160	2.350	207.72	-3.40	3.20	 	 	 	 	 	 	 	 	 	 	 	 	 	 	 	 	 	 	1581507467	8.21	15.20
12/02/2020 11:37:48	120220	12022020	113748	207.04	12.446747	-57.230728	207.16	-0.070	-1.580	3.280	207.04	-2.60	3.90	 	 	 	 	 	 	 	 	 	 	 	 	 	 	 	 	 	 	1581507468	7.82	14.48
12/02/2020 11:37:49	120220	12022020	113749	206.75	12.446722	-57.230752	206.88	-0.560	-0.610	3.470	206.75	-1.60	3.80	 	 	 	 	 	 	 	 	 	 	 	 	 	 	 	 	 	 	1581507469	7.41	13.72
12/02/2020 11:37:50	120220	12022020	113750	206.82	12.446693	-57.230772	206.94	-0.850	0.100	3.080	206.82	-1.10	3.30	 	 	 	 	 	 	 	 	 	 	 	 	 	 	 	 	 	 	1581507470	7.34	13.59
12/02/2020 11:37:51	120220	12022020	113751	207.15	12.446663	-57.230792	207.27	-0.860	0.290	2.400	207.15	-1.10	2.60	 	 	 	 	 	 	 	 	 	 	 	 	 	 	 	 	 	 	1581507471	7.80	14.45
12/02/2020 11:37:52	120220	12022020	113752	207.52	12.446628	-57.230810	207.63	-0.580	0.160	1.720	207.52	-1.20	2.00	 	 	 	 	 	 	 	 	 	 	 	 	 	 	 	 	 	 	1581507472	8.34	15.45
12/02/2020 11:37:53	120220	12022020	113753	207.82	12.446593	-57.230828	207.93	-0.150	0.160	1.150	207.82	-1.10	1.50	 	 	 	 	 	 	 	 	 	 	 	 	 	 	 	 	 	 	1581507473	8.55	15.83
12/02/2020 11:37:54	120220	12022020	113754	208.21	12.446558	-57.230843	208.32	0.150	0.610	0.820	208.21	-0.50	1.20	 	 	 	 	 	 	 	 	 	 	 	 	 	 	 	 	 	 	1581507474	8.19	15.17
12/02/2020 11:37:55	120220	12022020	113755	208.61	12.446527	-57.230858	208.72	0.180	1.090	0.710	208.61	-0.20	1.20	 	 	 	 	 	 	 	 	 	 	 	 	 	 	 	 	 	 	1581507475	7.42	13.74
12/02/2020 11:37:56	120220	12022020	113756	208.90	12.446498	-57.230875	209.00	0.100	0.980	0.820	208.90	-0.50	1.40	 	 	 	 	 	 	 	 	 	 	 	 	 	 	 	 	 	 	1581507476	7.15	13.24
12/02/2020 11:37:57	120220	12022020	113757	208.96	12.446468	-57.230893	209.07	0.140	0.190	1.180	208.96	-1.50	1.80	 	 	 	 	 	 	 	 	 	 	 	 	 	 	 	 	 	 	1581507477	7.50	13.89
12/02/2020 11:37:58	120220	12022020	113758	208.65	12.446437	-57.230915	208.77	0.350	-1.020	1.690	208.65	-2.70	2.30	 	 	 	 	 	 	 	 	 	 	 	 	 	 	 	 	 	 	1581507478	8.03	14.87
12/02/2020 11:37:59	120220	12022020	113759	208.04	12.446405	-57.230938	208.19	0.620	-1.990	2.200	208.04	-3.40	2.80	 	 	 	 	 	 	 	 	 	 	 	 	 	 	 	 	 	 	1581507479	8.41	15.58
12/02/2020 11:38:00	120220	12022020	113800	207.60	12.446373	-57.230960	207.75	0.710	-2.020	2.330	207.60	-3.10	2.70	 	 	 	 	 	 	 	 	 	 	 	 	 	 	 	 	 	 	1581507480	8.22	15.22
12/02/2020 11:38:01	120220	12022020	113801	207.47	12.446345	-57.230978	207.61	0.510	-1.250	2.000	207.47	-2.30	2.30	1016.00	26.30	26.30	21.20	21.20	146.0	73.0	73.0	410.0	26.9	240.00	8.50	70.00	11.10	14206	8530.0	27.5	27.5	1581507481	7.41	13.72
12/02/2020 11:38:02	120220	12022020	113802	207.68	12.446315	-57.230993	207.81	0.020	-0.370	1.420	207.68	-1.50	1.70	 	 	 	 	 	 	 	 	 	 	 	 	 	 	 	 	 	 	1581507482	7.02	13.00
12/02/2020 11:38:03	120220	12022020	113803	208.16	12.446285	-57.231008	208.31	-0.520	0.030	0.880	208.16	-1.30	1.30	 	 	 	 	 	 	 	 	 	 	 	 	 	 	 	 	 	 	1581507483	7.30	13.52
12/02/2020 11:38:04	120220	12022020	113804	208.46	12.446252	-57.231027	208.58	-0.790	-0.120	0.810	208.46	-1.50	1.40	 	 	 	 	 	 	 	 	 	 	 	 	 	 	 	 	 	 	1581507484	8.01	14.83
12/02/2020 11:38:05	120220	12022020	113805	208.37	12.446218	-57.231048	208.49	-0.720	-0.320	1.210	208.37	-1.60	1.90	 	 	 	 	 	 	 	 	 	 	 	 	 	 	 	 	 	 	1581507485	8.68	16.08
12/02/2020 11:38:06	120220	12022020	113806	208.09	12.446183	-57.231070	208.20	-0.560	-0.040	1.760	208.09	-1.20	2.40	 	 	 	 	 	 	 	 	 	 	 	 	 	 	 	 	 	 	1581507486	8.65	16.02
12/02/2020 11:38:07	120220	12022020	113807	207.81	12.446153	-57.231093	207.87	-0.440	0.660	2.140	207.75	-0.40	2.60	 	 	 	 	 	 	 	 	 	 	 	 	 	 	 	 	 	 	1581507487	8.07	14.95
12/02/2020 11:38:08	120220	12022020	113808	207.64	12.446125	-57.231113	207.75	-0.280	1.240	2.020	207.64	-0.00	2.30	 	 	 	 	 	 	 	 	 	 	 	 	 	 	 	 	 	 	1581507488	7.54	13.96
12/02/2020 11:38:09	120220	12022020	113809	207.84	12.446095	-57.231132	207.96	0.060	1.110	1.470	207.84	-0.40	1.70	 	 	 	 	 	 	 	 	 	 	 	 	 	 	 	 	 	 	1581507489	7.44	13.78
12/02/2020 11:38:10	120220	12022020	113810	208.01	12.446062	-57.231148	208.12	0.520	0.190	0.950	208.01	-1.50	1.30	 	 	 	 	 	 	 	 	 	 	 	 	 	 	 	 	 	 	1581507490	7.86	14.56
12/02/2020 11:38:11	120220	12022020	113811	208.02	12.446028	-57.231165	208.13	0.840	-0.870	0.740	208.02	-2.40	1.20	 	 	 	 	 	 	 	 	 	 	 	 	 	 	 	 	 	 	1581507491	8.35	15.46
12/02/2020 11:38:12	120220	12022020	113812	208.12	12.445995	-57.231183	208.24	0.770	-1.290	0.770	208.12	-2.60	1.30	 	 	 	 	 	 	 	 	 	 	 	 	 	 	 	 	 	 	1581507492	8.14	15.08
12/02/2020 11:38:13	120220	12022020	113813	208.33	12.445965	-57.231202	208.45	0.420	-1.160	0.850	208.33	-2.40	1.30	 	 	 	 	 	 	 	 	 	 	 	 	 	 	 	 	 	 	1581507493	7.39	13.69
12/02/2020 11:38:14	120220	12022020	113814	208.45	12.445937	-57.231220	208.57	0.120	-1.220	0.970	208.45	-2.70	1.50	 	 	 	 	 	 	 	 	 	 	 	 	 	 	 	 	 	 	1581507494	7.15	13.24
12/02/2020 11:38:15	120220	12022020	113815	208.13	12.445905	-57.231238	208.25	0.040	-1.640	1.490	208.13	-3.00	2.20	 	 	 	 	 	 	 	 	 	 	 	 	 	 	 	 	 	 	1581507495	7.90	14.63
12/02/2020 11:38:16	120220	12022020	113816	207.61	12.445872	-57.231262	207.76	-0.100	-1.530	2.220	207.61	-2.60	2.90	 	 	 	 	 	 	 	 	 	 	 	 	 	 	 	 	 	 	1581507496	8.71	16.13
12/02/2020 11:38:17	120220	12022020	113817	207.51	12.445840	-57.231283	207.68	-0.540	-0.420	2.630	207.51	-1.30	3.20	 	 	 	 	 	 	 	 	 	 	 	 	 	 	 	 	 	 	1581507497	8.37	15.50
12/02/2020 11:38:18	120220	12022020	113818	207.72	12.445812	-57.231307	207.90	-1.010	0.960	2.750	207.72	-0.00	3.20	 	 	 	 	 	 	 	 	 	 	 	 	 	 	 	 	 	 	1581507498	7.51	13.91
12/02/2020 11:38:19	120220	12022020	113819	207.84	12.445785	-57.231328	208.01	-0.960	1.610	2.600	207.85	0.30	3.00	 	 	 	 	 	 	 	 	 	 	 	 	 	 	 	 	 	 	1581507499	7.36	13.63
12/02/2020 11:38:20	120220	12022020	113820	207.80	12.445755	-57.231350	207.93	-0.210	1.270	2.230	207.80	-0.30	2.60	 	 	 	 	 	 	 	 	 	 	 	 	 	 	 	 	 	 	1581507500	7.98	14.78
12/02/2020 11:38:21	120220	12022020	113821	207.59	12.445720	-57.231368	207.73	0.690	0.480	1.890	207.59	-1.10	2.20	 	 	 	 	 	 	 	 	 	 	 	 	 	 	 	 	 	 	1581507501	8.64	16.00
12/02/2020 11:38:22	120220	12022020	113822	207.62	12.445683	-57.231387	207.75	1.030	0.020	1.440	207.62	-1.30	1.70	 	 	 	 	 	 	 	 	 	 	 	 	 	 	 	 	 	 	1581507502	8.64	16.00
12/02/2020 11:38:23	120220	12022020	113823	208.16	12.445650	-57.231402	208.28	0.630	0.090	0.770	208.16	-1.20	1.10	 	 	 	 	 	 	 	 	 	 	 	 	 	 	 	 	 	 	1581507503	7.72	14.30
12/02/2020 11:38:24	120220	12022020	113824	208.92	12.445622	-57.231417	209.05	0.010	-0.030	0.260	208.92	-1.50	0.70	 	 	 	 	 	 	 	 	 	 	 	 	 	 	 	 	 	 	1581507504	6.91	12.80
12/02/2020 11:38:25	120220	12022020	113825	209.48	12.445593	-57.231435	209.60	-0.120	-0.860	0.160	209.48	-2.60	0.70	 	 	 	 	 	 	 	 	 	 	 	 	 	 	 	 	 	 	1581507505	7.16	13.26
12/02/2020 11:38:26	120220	12022020	113826	209.52	12.445563	-57.231457	209.64	0.310	-2.170	0.560	209.52	-3.90	1.30	 	 	 	 	 	 	 	 	 	 	 	 	 	 	 	 	 	 	1581507506	8.11	15.02
12/02/2020 11:38:27	120220	12022020	113827	209.01	12.445528	-57.231480	209.12	0.740	-3.000	1.490	209.01	-4.30	2.30	 	 	 	 	 	 	 	 	 	 	 	 	 	 	 	 	 	 	1581507507	8.85	16.39
12/02/2020 11:38:28	120220	12022020	113828	208.12	12.445497	-57.231505	208.23	0.610	-2.570	2.730	208.12	-3.40	3.60	 	 	 	 	 	 	 	 	 	 	 	 	 	 	 	 	 	 	1581507508	8.71	16.13
12/02/2020 11:38:29	120220	12022020	113829	207.33	12.445467	-57.231528	207.46	-0.150	-0.900	3.740	207.33	-1.50	4.40	 	 	 	 	 	 	 	 	 	 	 	 	 	 	 	 	 	 	1581507509	7.99	14.80
12/02/2020 11:38:30	120220	12022020	113830	206.93	12.445442	-57.231552	207.08	-1.070	1.110	4.150	206.93	0.30	4.60	 	 	 	 	 	 	 	 	 	 	 	 	 	 	 	 	 	 	1581507510	7.29	13.50
12/02/2020 11:38:31	120220	12022020	113831	206.97	12.445417	-57.231575	207.11	-1.490	2.220	3.920	206.97	1.00	4.20	 	 	 	 	 	 	 	 	 	 	 	 	 	 	 	 	 	 	1581507511	7.28	13.48
12/02/2020 11:38:32	120220	12022020	113832	207.31	12.445387	-57.231598	207.45	-1.060	2.030	3.060	207.31	0.40	3.10	 	 	 	 	 	 	 	 	 	 	 	 	 	 	 	 	 	 	1581507512	8.06	14.93
12/02/2020 11:38:33	120220	12022020	113833	207.82	12.445352	-57.231620	207.93	-0.050	1.170	1.820	207.82	-0.50	1.90	 	 	 	 	 	 	 	 	 	 	 	 	 	 	 	 	 	 	1581507513	8.81	16.32
12/02/2020 11:38:34	120220	12022020	113834	208.40	12.445315	-57.231635	208.48	0.800	0.280	0.700	208.40	-1.30	1.00	 	 	 	 	 	 	 	 	 	 	 	 	 	 	 	 	 	 	1581507514	8.84	16.37
12/02/2020 11:38:35	120220	12022020	113835	208.76	12.445278	-57.231650	208.86	0.930	-0.500	0.420	208.76	-2.10	1.00	 	 	 	 	 	 	 	 	 	 	 	 	 	 	 	 	 	 	1581507515	8.30	15.37
12/02/2020 11:38:36	120220	12022020	113836	208.65	12.445247	-57.231667	208.78	0.580	-1.170	1.160	208.65	-2.60	2.00	 	 	 	 	 	 	 	 	 	 	 	 	 	 	 	 	 	 	1581507516	7.77	14.39
12/02/2020 11:38:37	120220	12022020	113837	208.27	12.445218	-57.231690	208.43	0.230	-1.460	2.280	208.27	-2.70	3.10	 	 	 	 	 	 	 	 	 	 	 	 	 	 	 	 	 	 	1581507517	7.73	14.32
12/02/2020 11:38:38	120220	12022020	113838	207.92	12.445193	-57.231715	208.10	0.070	-1.190	3.140	207.92	-2.40	3.80	 	 	 	 	 	 	 	 	 	 	 	 	 	 	 	 	 	 	1581507518	7.55	13.98
12/02/2020 11:38:39	120220	12022020	113839	207.46	12.445168	-57.231738	207.64	0.120	-0.910	3.490	207.46	-2.20	4.00	 	 	 	 	 	 	 	 	 	 	 	 	 	 	 	 	 	 	1581507519	7.30	13.52
12/02/2020 11:38:40	120220	12022020	113840	206.91	12.445140	-57.231760	207.10	0.260	-0.850	3.370	206.91	-2.10	3.70	 	 	 	 	 	 	 	 	 	 	 	 	 	 	 	 	 	 	1581507520	7.60	14.08
12/02/2020 11:38:41	120220	12022020	113841	206.55	12.445108	-57.231780	206.74	0.250	-0.630	2.850	206.55	-1.80	3.10	 	 	 	 	 	 	 	 	 	 	 	 	 	 	 	 	 	 	1581507521	8.02	14.85
12/02/2020 11:38:42	120220	12022020	113842	206.48	12.445077	-57.231798	206.66	0.090	-0.020	2.080	206.48	-1.10	2.30	 	 	 	 	 	 	 	 	 	 	 	 	 	 	 	 	 	 	1581507522	7.83	14.50
12/02/2020 11:38:43	120220	12022020	113843	206.64	12.445045	-57.231813	206.80	-0.030	0.570	1.250	206.64	-0.70	1.50	 	 	 	 	 	 	 	 	 	 	 	 	 	 	 	 	 	 	1581507523	7.42	13.74
12/02/2020 11:38:44	120220	12022020	113844	206.86	12.445013	-57.231827	207.00	0.010	0.550	0.710	206.86	-0.90	1.20	 	 	 	 	 	 	 	 	 	 	 	 	 	 	 	 	 	 	1581507524	7.54	13.96
12/02/2020 11:38:45	120220	12022020	113845	206.98	12.444978	-57.231842	207.12	0.070	-0.110	0.940	206.98	-1.70	1.70	 	 	 	 	 	 	 	 	 	 	 	 	 	 	 	 	 	 	1581507525	8.16	15.11
12/02/2020 11:38:46	120220	12022020	113846	206.90	12.444943	-57.231862	207.05	-0.100	-0.790	1.860	206.90	-2.20	2.70	 	 	 	 	 	 	 	 	 	 	 	 	 	 	 	 	 	 	1581507526	8.66	16.04
12/02/2020 11:38:47	120220	12022020	113847	206.78	12.444912	-57.231887	206.96	-0.460	-0.830	2.920	206.78	-2.00	3.70	 	 	 	 	 	 	 	 	 	 	 	 	 	 	 	 	 	 	1581507527	8.58	15.89
12/02/2020 11:38:48	120220	12022020	113848	206.68	12.444885	-57.231913	206.85	-0.710	-0.350	3.620	206.68	-1.50	4.20	 	 	 	 	 	 	 	 	 	 	 	 	 	 	 	 	 	 	1581507528	7.99	14.80
12/02/2020 11:38:49	120220	12022020	113849	206.58	12.444858	-57.231937	206.75	-0.640	0.100	3.660	206.58	-1.10	4.00	 	 	 	 	 	 	 	 	 	 	 	 	 	 	 	 	 	 	1581507529	7.53	13.95
12/02/2020 11:38:50	120220	12022020	113850	206.66	12.444830	-57.231958	206.82	-0.340	0.370	2.950	206.66	-0.90	3.10	 	 	 	 	 	 	 	 	 	 	 	 	 	 	 	 	 	 	1581507530	7.46	13.82
12/02/2020 11:38:51	120220	12022020	113851	206.82	12.444800	-57.231975	206.95	0.060	0.370	1.830	206.82	-1.00	2.00	 	 	 	 	 	 	 	 	 	 	 	 	 	 	 	 	 	 	1581507531	7.43	13.76
12/02/2020 11:38:52	120220	12022020	113852	206.85	12.444768	-57.231988	206.96	0.500	-0.080	0.880	206.85	-1.60	1.20	 	 	 	 	 	 	 	 	 	 	 	 	 	 	 	 	 	 	1581507532	7.58	14.04
12/02/2020 11:38:53	120220	12022020	113853	206.66	12.444733	-57.232003	206.77	0.870	-0.830	0.520	206.66	-2.30	1.00	 	 	 	 	 	 	 	 	 	 	 	 	 	 	 	 	 	 	1581507533	8.02	14.85
12/02/2020 11:38:54	120220	12022020	113854	206.37	12.444698	-57.232018	206.50	0.950	-1.270	0.720	206.37	-2.60	1.40	 	 	 	 	 	 	 	 	 	 	 	 	 	 	 	 	 	 	1581507534	8.30	15.37
12/02/2020 11:38:55	120220	12022020	113855	206.05	12.444665	-57.232037	206.19	0.600	-1.070	1.350	206.05	-2.20	2.10	 	 	 	 	 	 	 	 	 	 	 	 	 	 	 	 	 	 	1581507535	8.01	14.83
12/02/2020 11:38:56	120220	12022020	113856	205.87	12.444635	-57.232055	206.03	-0.070	-0.240	1.970	205.87	-1.20	2.60	 	 	 	 	 	 	 	 	 	 	 	 	 	 	 	 	 	 	1581507536	7.57	14.02
12/02/2020 11:38:57	120220	12022020	113857	206.03	12.444608	-57.232077	206.26	-0.670	0.690	2.210	206.08	-0.50	2.70	 	 	 	 	 	 	 	 	 	 	 	 	 	 	 	 	 	 	1581507537	7.14	13.22
12/02/2020 11:38:58	120220	12022020	113858	206.34	12.444583	-57.232097	206.51	-0.780	0.770	2.250	206.34	-0.70	2.70	 	 	 	 	 	 	 	 	 	 	 	 	 	 	 	 	 	 	1581507538	7.17	13.28
12/02/2020 11:38:59	120220	12022020	113859	206.48	12.444552	-57.232118	206.65	-0.380	0.030	2.120	206.48	-1.60	2.50	 	 	 	 	 	 	 	 	 	 	 	 	 	 	 	 	 	 	1581507539	8.05	14.91
12/02/2020 11:39:00	120220	12022020	113900	206.57	12.444517	-57.232140	206.74	0.060	-0.680	1.860	206.57	-2.10	2.30	 	 	 	 	 	 	 	 	 	 	 	 	 	 	 	 	 	 	1581507540	8.61	15.95
12/02/2020 11:39:01	120220	12022020	113901	206.52	12.444483	-57.232158	206.67	0.150	-0.770	1.550	206.52	-2.00	1.90	1016.00	26.40	26.40	21.40	21.40	164.0	74.0	74.0	409.0	26.9	245.00	7.70	71.00	10.10	14732	7828.0	27.5	27.5	1581507541	8.24	15.26
12/02/2020 11:39:02	120220	12022020	113902	206.34	12.444453	-57.232175	206.48	0.000	-0.440	1.280	206.34	-1.70	1.70	 	 	 	 	 	 	 	 	 	 	 	 	 	 	 	 	 	 	1581507542	7.46	13.82
12/02/2020 11:39:03	120220	12022020	113903	206.02	12.444423	-57.232192	206.16	-0.050	-0.330	1.170	206.02	-1.70	1.70	 	 	 	 	 	 	 	 	 	 	 	 	 	 	 	 	 	 	1581507543	7.14	13.22
12/02/2020 11:39:04	120220	12022020	113904	205.59	12.444392	-57.232207	205.71	0.060	-0.630	1.380	205.59	-2.00	2.00	 	 	 	 	 	 	 	 	 	 	 	 	 	 	 	 	 	 	1581507544	7.69	14.24
12/02/2020 11:39:05	120220	12022020	113905	205.22	12.444358	-57.232227	205.35	0.130	-0.770	1.800	205.22	-2.00	2.40	 	 	 	 	 	 	 	 	 	 	 	 	 	 	 	 	 	 	1581507545	8.22	15.22
12/02/2020 11:39:06	120220	12022020	113906	205.07	12.444327	-57.232245	205.21	-0.030	-0.430	2.170	205.07	-1.60	2.70	 	 	 	 	 	 	 	 	 	 	 	 	 	 	 	 	 	 	1581507546	8.08	14.96
12/02/2020 11:39:07	120220	12022020	113907	205.18	12.444297	-57.232265	205.31	-0.310	0.080	2.330	205.18	-1.10	2.80	 	 	 	 	 	 	 	 	 	 	 	 	 	 	 	 	 	 	1581507547	7.66	14.19
12/02/2020 11:39:08	120220	12022020	113908	205.33	12.444267	-57.232285	205.45	-0.440	0.370	2.370	205.33	-0.90	2.90	 	 	 	 	 	 	 	 	 	 	 	 	 	 	 	 	 	 	1581507548	7.55	13.98
12/02/2020 11:39:09	120220	12022020	113909	205.36	12.444237	-57.232305	205.47	-0.250	0.310	2.300	205.36	-1.10	2.70	 	 	 	 	 	 	 	 	 	 	 	 	 	 	 	 	 	 	1581507549	7.76	14.37
12/02/2020 11:39:10	120220	12022020	113910	205.32	12.444203	-57.232323	205.43	0.060	0.050	2.090	205.32	-1.30	2.50	 	 	 	 	 	 	 	 	 	 	 	 	 	 	 	 	 	 	1581507550	8.00	14.82
12/02/2020 11:39:11	120220	12022020	113911	205.34	12.444172	-57.232342	205.46	0.170	-0.090	1.870	205.34	-1.40	2.30	 	 	 	 	 	 	 	 	 	 	 	 	 	 	 	 	 	 	1581507551	8.02	14.85
12/02/2020 11:39:12	120220	12022020	113912	205.47	12.444140	-57.232358	205.58	0.070	-0.010	1.550	205.47	-1.30	1.90	 	 	 	 	 	 	 	 	 	 	 	 	 	 	 	 	 	 	1581507552	7.68	14.22
12/02/2020 11:39:13	120220	12022020	113913	205.67	12.444110	-57.232375	205.77	0.050	0.140	1.140	205.67	-1.20	1.50	 	 	 	 	 	 	 	 	 	 	 	 	 	 	 	 	 	 	1581507553	7.27	13.46
12/02/2020 11:39:14	120220	12022020	113914	205.79	12.444080	-57.232388	205.89	0.290	-0.140	0.870	205.79	-1.70	1.40	 	 	 	 	 	 	 	 	 	 	 	 	 	 	 	 	 	 	1581507554	7.20	13.33
12/02/2020 11:39:15	120220	12022020	113915	205.77	12.444047	-57.232403	205.88	0.580	-0.860	0.950	205.77	-2.40	1.60	 	 	 	 	 	 	 	 	 	 	 	 	 	 	 	 	 	 	1581507555	7.74	14.33
12/02/2020 11:39:16	120220	12022020	113916	205.58	12.444012	-57.232422	205.69	0.580	-1.550	1.410	205.58	-3.00	2.10	 	 	 	 	 	 	 	 	 	 	 	 	 	 	 	 	 	 	1581507556	8.22	15.22
12/02/2020 11:39:17	120220	12022020	113917	205.24	12.443978	-57.232442	205.38	0.230	-1.700	2.070	205.24	-2.90	2.70	 	 	 	 	 	 	 	 	 	 	 	 	 	 	 	 	 	 	1581507557	8.32	15.41
12/02/2020 11:39:18	120220	12022020	113918	205.02	12.443948	-57.232462	205.19	-0.300	-1.080	2.590	205.02	-2.10	3.20	 	 	 	 	 	 	 	 	 	 	 	 	 	 	 	 	 	 	1581507558	8.02	14.85
12/02/2020 11:39:19	120220	12022020	113919	204.99	12.443920	-57.232482	205.18	-0.760	-0.060	2.890	204.99	-1.10	3.40	 	 	 	 	 	 	 	 	 	 	 	 	 	 	 	 	 	 	1581507559	7.51	13.91
12/02/2020 11:39:20	120220	12022020	113920	205.04	12.443892	-57.232503	205.22	-0.890	0.650	2.880	205.04	-0.60	3.30	 	 	 	 	 	 	 	 	 	 	 	 	 	 	 	 	 	 	1581507560	7.36	13.63
12/02/2020 11:39:21	120220	12022020	113921	204.96	12.443862	-57.232523	205.12	-0.560	0.650	2.560	204.96	-0.80	2.90	 	 	 	 	 	 	 	 	 	 	 	 	 	 	 	 	 	 	1581507561	7.79	14.43
12/02/2020 11:39:22	120220	12022020	113922	204.93	12.443827	-57.232540	205.08	-0.070	0.380	2.000	204.93	-1.00	2.30	 	 	 	 	 	 	 	 	 	 	 	 	 	 	 	 	 	 	1581507562	8.42	15.59
12/02/2020 11:39:23	120220	12022020	113923	205.16	12.443790	-57.232557	205.30	0.190	0.350	1.400	205.16	-0.90	1.80	 	 	 	 	 	 	 	 	 	 	 	 	 	 	 	 	 	 	1581507563	8.36	15.48
12/02/2020 11:39:24	120220	12022020	113924	205.47	12.443757	-57.232570	205.58	0.200	0.420	1.010	205.47	-0.90	1.50	 	 	 	 	 	 	 	 	 	 	 	 	 	 	 	 	 	 	1581507564	7.75	14.35
12/02/2020 11:39:25	120220	12022020	113925	205.66	12.443725	-57.232585	205.78	0.230	0.260	0.960	205.66	-1.20	1.50	 	 	 	 	 	 	 	 	 	 	 	 	 	 	 	 	 	 	1581507565	7.43	13.76
12/02/2020 11:39:26	120220	12022020	113926	205.93	12.443695	-57.232602	206.06	0.430	-0.140	0.940	205.93	-1.60	1.40	 	 	 	 	 	 	 	 	 	 	 	 	 	 	 	 	 	 	1581507566	7.55	13.98
12/02/2020 11:39:27	120220	12022020	113927	206.28	12.443663	-57.232618	206.40	0.660	-0.740	0.870	206.28	-2.30	1.40	 	 	 	 	 	 	 	 	 	 	 	 	 	 	 	 	 	 	1581507567	7.69	14.24
12/02/2020 11:39:28	120220	12022020	113928	206.32	12.443630	-57.232637	206.44	0.690	-1.400	1.090	206.32	-2.90	1.80	 	 	 	 	 	 	 	 	 	 	 	 	 	 	 	 	 	 	1581507568	7.86	14.56
12/02/2020 11:39:29	120220	12022020	113929	205.96	12.443598	-57.232653	206.10	0.350	-1.760	1.710	205.96	-3.10	2.40	 	 	 	 	 	 	 	 	 	 	 	 	 	 	 	 	 	 	1581507569	8.06	14.93
12/02/2020 11:39:30	120220	12022020	113930	205.37	12.443567	-57.232675	205.55	-0.280	-1.550	2.470	205.37	-2.70	3.20	 	 	 	 	 	 	 	 	 	 	 	 	 	 	 	 	 	 	1581507570	8.03	14.87
12/02/2020 11:39:31	120220	12022020	113931	204.95	12.443537	-57.232697	205.15	-0.890	-0.830	2.980	204.95	-1.90	3.50	 	 	 	 	 	 	 	 	 	 	 	 	 	 	 	 	 	 	1581507571	7.95	14.72
12/02/2020 11:39:32	120220	12022020	113932	205.01	12.443508	-57.232722	205.21	-1.120	0.100	2.920	205.01	-0.90	3.30	 	 	 	 	 	 	 	 	 	 	 	 	 	 	 	 	 	 	1581507572	7.82	14.48
12/02/2020 11:39:33	120220	12022020	113933	205.36	12.443480	-57.232742	205.65	-0.800	0.930	2.240	205.48	-0.20	2.40	 	 	 	 	 	 	 	 	 	 	 	 	 	 	 	 	 	 	1581507573	7.65	14.17
12/02/2020 11:39:34	120220	12022020	113934	206.17	12.443450	-57.232758	206.32	-0.080	1.310	1.070	206.17	-0.10	1.20	 	 	 	 	 	 	 	 	 	 	 	 	 	 	 	 	 	 	1581507574	7.53	13.95
12/02/2020 11:39:35	120220	12022020	113935	206.70	12.443415	-57.232772	206.82	0.610	0.870	0.110	206.70	-0.80	0.50	 	 	 	 	 	 	 	 	 	 	 	 	 	 	 	 	 	 	1581507575	7.87	14.58
12/02/2020 11:39:36	120220	12022020	113936	206.80	12.443377	-57.232782	206.90	0.910	-0.220	0.000	206.80	-1.90	0.70	 	 	 	 	 	 	 	 	 	 	 	 	 	 	 	 	 	 	1581507576	8.54	15.82
12/02/2020 11:39:37	120220	12022020	113937	206.51	12.443338	-57.232798	206.62	0.630	-1.200	0.810	206.51	-2.70	1.70	 	 	 	 	 	 	 	 	 	 	 	 	 	 	 	 	 	 	1581507577	8.80	16.30
12/02/2020 11:39:38	120220	12022020	113938	206.13	12.443307	-57.232820	206.27	-0.030	-1.320	2.230	206.13	-2.50	3.20	 	 	 	 	 	 	 	 	 	 	 	 	 	 	 	 	 	 	1581507578	8.47	15.69
12/02/2020 11:39:39	120220	12022020	113939	205.97	12.443280	-57.232847	206.16	-0.610	-0.680	3.400	205.97	-1.80	4.10	 	 	 	 	 	 	 	 	 	 	 	 	 	 	 	 	 	 	1581507579	7.89	14.61
12/02/2020 11:39:40	120220	12022020	113940	206.00	12.443255	-57.232872	206.19	-0.700	-0.020	3.660	206.00	-1.30	4.10	 	 	 	 	 	 	 	 	 	 	 	 	 	 	 	 	 	 	1581507580	7.36	13.63
12/02/2020 11:39:41	120220	12022020	113941	205.90	12.443228	-57.232893	206.07	-0.270	0.060	3.260	205.90	-1.40	3.60	 	 	 	 	 	 	 	 	 	 	 	 	 	 	 	 	 	 	1581507581	7.35	13.61
12/02/2020 11:39:42	120220	12022020	113942	205.65	12.443197	-57.232912	205.80	0.270	-0.270	2.610	205.65	-1.70	2.90	 	 	 	 	 	 	 	 	 	 	 	 	 	 	 	 	 	 	1581507582	7.94	14.70
12/02/2020 11:39:43	120220	12022020	113943	205.58	12.443162	-57.232927	205.74	0.520	-0.480	1.820	205.58	-1.80	2.10	 	 	 	 	 	 	 	 	 	 	 	 	 	 	 	 	 	 	1581507583	8.28	15.33
12/02/2020 11:39:44	120220	12022020	113944	205.75	12.443127	-57.232942	205.91	0.430	-0.310	1.090	205.75	-1.60	1.40	 	 	 	 	 	 	 	 	 	 	 	 	 	 	 	 	 	 	1581507584	7.98	14.78
12/02/2020 11:39:45	120220	12022020	113945	206.02	12.443095	-57.232955	206.17	0.220	-0.050	0.640	206.02	-1.40	1.10	 	 	 	 	 	 	 	 	 	 	 	 	 	 	 	 	 	 	1581507585	7.55	13.98
12/02/2020 11:39:46	120220	12022020	113946	206.44	12.443062	-57.232970	206.59	-0.000	-0.000	0.510	206.44	-1.40	1.10	 	 	 	 	 	 	 	 	 	 	 	 	 	 	 	 	 	 	1581507586	7.53	13.95
12/02/2020 11:39:47	120220	12022020	113947	206.85	12.443030	-57.232987	207.09	-0.200	-0.150	0.700	206.95	-1.60	1.30	 	 	 	 	 	 	 	 	 	 	 	 	 	 	 	 	 	 	1581507587	7.74	14.33
12/02/2020 11:39:48	120220	12022020	113948	207.25	12.443000	-57.233007	207.39	-0.240	-0.410	1.100	207.25	-1.90	1.80	 	 	 	 	 	 	 	 	 	 	 	 	 	 	 	 	 	 	1581507588	7.87	14.58
12/02/2020 11:39:49	120220	12022020	113949	207.10	12.442970	-57.233028	207.26	-0.030	-0.800	1.710	207.10	-2.20	2.40	 	 	 	 	 	 	 	 	 	 	 	 	 	 	 	 	 	 	1581507589	8.05	14.91
12/02/2020 11:39:50	120220	12022020	113950	206.60	12.442937	-57.233050	206.79	0.250	-0.990	2.300	206.60	-2.30	2.90	 	 	 	 	 	 	 	 	 	 	 	 	 	 	 	 	 	 	1581507590	8.31	15.39
12/02/2020 11:39:51	120220	12022020	113951	206.10	12.442905	-57.233070	206.31	0.280	-0.620	2.520	206.10	-1.70	3.00	 	 	 	 	 	 	 	 	 	 	 	 	 	 	 	 	 	 	1581507591	8.19	15.17
12/02/2020 11:39:52	120220	12022020	113952	205.93	12.442873	-57.233088	206.12	-0.020	0.140	2.250	205.93	-1.00	2.60	 	 	 	 	 	 	 	 	 	 	 	 	 	 	 	 	 	 	1581507592	7.67	14.20
12/02/2020 11:39:53	120220	12022020	113953	206.04	12.442843	-57.233103	206.21	-0.410	0.610	1.780	206.04	-0.70	2.10	 	 	 	 	 	 	 	 	 	 	 	 	 	 	 	 	 	 	1581507593	7.33	13.58
12/02/2020 11:39:54	120220	12022020	113954	206.25	12.442812	-57.233120	206.40	-0.610	0.430	1.460	206.25	-1.10	1.90	 	 	 	 	 	 	 	 	 	 	 	 	 	 	 	 	 	 	1581507594	7.62	14.11
12/02/2020 11:39:55	120220	12022020	113955	206.41	12.442778	-57.233138	206.55	-0.500	-0.150	1.450	206.41	-1.70	2.00	 	 	 	 	 	 	 	 	 	 	 	 	 	 	 	 	 	 	1581507595	8.18	15.15
12/02/2020 11:39:56	120220	12022020	113956	206.45	12.442745	-57.233162	206.60	-0.210	-0.610	1.680	206.45	-2.00	2.30	 	 	 	 	 	 	 	 	 	 	 	 	 	 	 	 	 	 	1581507596	8.42	15.59
12/02/2020 11:39:57	120220	12022020	113957	206.34	12.442715	-57.233183	206.49	0.130	-0.620	1.890	206.34	-1.90	2.40	 	 	 	 	 	 	 	 	 	 	 	 	 	 	 	 	 	 	1581507597	8.16	15.11
12/02/2020 11:39:58	120220	12022020	113958	206.28	12.442685	-57.233205	206.43	0.470	-0.230	1.610	206.28	-1.40	1.90	 	 	 	 	 	 	 	 	 	 	 	 	 	 	 	 	 	 	1581507598	7.69	14.24
12/02/2020 11:39:59	120220	12022020	113959	206.53	12.442655	-57.233220	206.76	0.690	0.230	0.850	206.61	-1.00	1.10	 	 	 	 	 	 	 	 	 	 	 	 	 	 	 	 	 	 	1581507599	7.24	13.41
12/02/2020 11:40:00	120220	12022020	114000	206.99	12.442623	-57.233232	207.12	0.720	0.190	0.260	206.99	-1.30	0.70	 	 	 	 	 	 	 	 	 	 	 	 	 	 	 	 	 	 	1581507600	7.25	13.43
12/02/2020 11:40:01	120220	12022020	114001	207.03	12.442590	-57.233245	207.16	0.580	-0.470	0.300	207.03	-2.10	1.00	1016.00	26.40	26.50	21.60	21.50	205.0	74.0	74.0	408.0	27.0	247.00	7.60	71.00	9.90	15645	8504.0	27.5	27.5	1581507601	7.84	14.52
12/02/2020 11:40:02	120220	12022020	114002	206.78	12.442555	-57.233262	206.90	0.260	-1.200	1.050	206.78	-2.70	1.90	 	 	 	 	 	 	 	 	 	 	 	 	 	 	 	 	 	 	1581507602	8.44	15.63
12/02/2020 11:40:03	120220	12022020	114003	206.38	12.442522	-57.233283	206.52	-0.190	-1.480	2.180	206.38	-2.80	3.00	 	 	 	 	 	 	 	 	 	 	 	 	 	 	 	 	 	 	1581507603	8.53	15.80
12/02/2020 11:40:04	120220	12022020	114004	205.96	12.442490	-57.233308	206.12	-0.620	-1.230	3.290	205.96	-2.40	4.10	 	 	 	 	 	 	 	 	 	 	 	 	 	 	 	 	 	 	1581507604	8.35	15.46
12/02/2020 11:40:05	120220	12022020	114005	205.53	12.442462	-57.233333	205.72	-0.880	-0.650	4.060	205.53	-1.80	4.60	 	 	 	 	 	 	 	 	 	 	 	 	 	 	 	 	 	 	1581507605	8.17	15.13
12/02/2020 11:40:06	120220	12022020	114006	205.20	12.442433	-57.233358	205.39	-0.860	0.080	4.170	205.20	-1.00	4.50	 	 	 	 	 	 	 	 	 	 	 	 	 	 	 	 	 	 	1581507606	8.04	14.89
12/02/2020 11:40:07	120220	12022020	114007	205.09	12.442403	-57.233380	205.27	-0.610	0.780	3.580	205.09	-0.40	3.70	 	 	 	 	 	 	 	 	 	 	 	 	 	 	 	 	 	 	1581507607	7.84	14.52
12/02/2020 11:40:08	120220	12022020	114008	205.41	12.442373	-57.233398	205.56	-0.220	1.290	2.350	205.41	0.00	2.40	 	 	 	 	 	 	 	 	 	 	 	 	 	 	 	 	 	 	1581507608	7.66	14.19
12/02/2020 11:40:09	120220	12022020	114009	206.11	12.442340	-57.233412	206.23	0.260	1.330	0.780	206.11	-0.10	0.80	 	 	 	 	 	 	 	 	 	 	 	 	 	 	 	 	 	 	1581507609	7.55	13.98
12/02/2020 11:40:10	120220	12022020	114010	206.89	12.442305	-57.233422	206.99	0.780	0.780	-0.580	206.89	-0.90	-0.30	 	 	 	 	 	 	 	 	 	 	 	 	 	 	 	 	 	 	1581507610	7.73	14.32
12/02/2020 11:40:11	120220	12022020	114011	207.34	12.442270	-57.233432	207.42	1.140	-0.370	-0.990	207.34	-2.20	-0.40	 	 	 	 	 	 	 	 	 	 	 	 	 	 	 	 	 	 	1581507611	8.04	14.89
12/02/2020 11:40:12	120220	12022020	114012	207.22	12.442233	-57.233447	207.29	1.140	-1.720	-0.240	207.22	-3.40	0.70	 	 	 	 	 	 	 	 	 	 	 	 	 	 	 	 	 	 	1581507612	8.34	15.45
12/02/2020 11:40:13	120220	12022020	114013	206.75	12.442200	-57.233467	206.84	0.700	-2.450	1.280	206.75	-3.80	2.30	 	 	 	 	 	 	 	 	 	 	 	 	 	 	 	 	 	 	1581507613	8.52	15.78
12/02/2020 11:40:14	120220	12022020	114014	206.32	12.442170	-57.233492	206.45	-0.050	-2.070	2.840	206.32	-3.10	3.70	 	 	 	 	 	 	 	 	 	 	 	 	 	 	 	 	 	 	1581507614	8.17	15.13
12/02/2020 11:40:15	120220	12022020	114015	206.04	12.442145	-57.233517	206.22	-0.790	-1.080	3.790	206.04	-2.10	4.40	 	 	 	 	 	 	 	 	 	 	 	 	 	 	 	 	 	 	1581507615	7.62	14.11
12/02/2020 11:40:16	120220	12022020	114016	205.92	12.442120	-57.233542	206.11	-1.130	-0.200	3.810	205.92	-1.30	4.10	 	 	 	 	 	 	 	 	 	 	 	 	 	 	 	 	 	 	1581507616	7.53	13.95
12/02/2020 11:40:17	120220	12022020	114017	205.99	12.442090	-57.233563	206.17	-0.980	0.340	3.090	205.99	-0.90	3.20	 	 	 	 	 	 	 	 	 	 	 	 	 	 	 	 	 	 	1581507617	7.80	14.45
12/02/2020 11:40:18	120220	12022020	114018	206.21	12.442057	-57.233582	206.36	-0.560	0.590	2.020	206.21	-0.70	2.20	 	 	 	 	 	 	 	 	 	 	 	 	 	 	 	 	 	 	1581507618	8.15	15.09
12/02/2020 11:40:19	120220	12022020	114019	206.55	12.442022	-57.233597	206.71	-0.200	0.720	1.000	206.55	-0.60	1.20	 	 	 	 	 	 	 	 	 	 	 	 	 	 	 	 	 	 	1581507619	8.29	15.35
12/02/2020 11:40:20	120220	12022020	114020	206.87	12.441987	-57.233610	207.03	-0.030	0.730	0.360	206.87	-0.70	0.80	 	 	 	 	 	 	 	 	 	 	 	 	 	 	 	 	 	 	1581507620	8.13	15.06
12/02/2020 11:40:21	120220	12022020	114021	207.05	12.441952	-57.233625	207.19	0.050	0.510	0.310	207.05	-1.00	0.90	 	 	 	 	 	 	 	 	 	 	 	 	 	 	 	 	 	 	1581507621	7.92	14.67
12/02/2020 11:40:22	120220	12022020	114022	207.13	12.441920	-57.233643	207.28	0.190	0.120	0.670	207.13	-1.30	1.30	 	 	 	 	 	 	 	 	 	 	 	 	 	 	 	 	 	 	1581507622	7.88	14.59
12/02/2020 11:40:23	120220	12022020	114023	207.28	12.441890	-57.233663	207.45	0.430	-0.130	1.060	207.28	-1.50	1.60	 	 	 	 	 	 	 	 	 	 	 	 	 	 	 	 	 	 	1581507623	7.85	14.54
12/02/2020 11:40:24	120220	12022020	114024	207.49	12.441860	-57.233683	207.66	0.690	-0.240	1.230	207.49	-1.60	1.70	 	 	 	 	 	 	 	 	 	 	 	 	 	 	 	 	 	 	1581507624	7.48	13.85
12/02/2020 11:40:25	120220	12022020	114025	207.58	12.441832	-57.233702	207.74	0.910	-0.560	1.180	207.58	-2.10	1.70	 	 	 	 	 	 	 	 	 	 	 	 	 	 	 	 	 	 	1581507625	7.27	13.46
12/02/2020 11:40:26	120220	12022020	114026	207.23	12.441800	-57.233718	207.39	0.960	-1.280	1.390	207.23	-2.80	2.00	 	 	 	 	 	 	 	 	 	 	 	 	 	 	 	 	 	 	1581507626	7.65	14.17
12/02/2020 11:40:27	120220	12022020	114027	206.70	12.441767	-57.233737	206.89	0.560	-1.820	2.040	206.70	-3.20	2.80	 	 	 	 	 	 	 	 	 	 	 	 	 	 	 	 	 	 	1581507627	8.32	15.41
12/02/2020 11:40:28	120220	12022020	114028	206.47	12.441735	-57.233758	206.66	-0.360	-1.570	2.770	206.47	-2.60	3.40	 	 	 	 	 	 	 	 	 	 	 	 	 	 	 	 	 	 	1581507628	8.32	15.41
12/02/2020 11:40:29	120220	12022020	114029	206.56	12.441707	-57.233783	206.76	-1.310	-0.650	3.190	206.56	-1.70	3.70	 	 	 	 	 	 	 	 	 	 	 	 	 	 	 	 	 	 	1581507629	7.88	14.59
12/02/2020 11:40:30	120220	12022020	114030	206.70	12.441682	-57.233808	206.89	-1.530	0.160	3.070	206.70	-1.00	3.40	 	 	 	 	 	 	 	 	 	 	 	 	 	 	 	 	 	 	1581507630	7.64	14.15
12/02/2020 11:40:31	120220	12022020	114031	206.94	12.441653	-57.233832	207.11	-0.770	0.470	2.210	206.94	-0.90	2.40	 	 	 	 	 	 	 	 	 	 	 	 	 	 	 	 	 	 	1581507631	7.86	14.56
12/02/2020 11:40:32	120220	12022020	114032	207.24	12.441618	-57.233848	207.39	0.300	0.430	1.180	207.24	-0.90	1.40	 	 	 	 	 	 	 	 	 	 	 	 	 	 	 	 	 	 	1581507632	8.27	15.32
12/02/2020 11:40:33	120220	12022020	114033	207.56	12.441580	-57.233862	207.71	0.820	0.320	0.530	207.56	-1.00	0.90	 	 	 	 	 	 	 	 	 	 	 	 	 	 	 	 	 	 	1581507633	8.50	15.74
12/02/2020 11:40:34	120220	12022020	114034	207.73	12.441545	-57.233875	207.89	0.520	0.240	0.360	207.73	-1.10	0.90	 	 	 	 	 	 	 	 	 	 	 	 	 	 	 	 	 	 	1581507634	8.20	15.19
12/02/2020 11:40:35	120220	12022020	114035	207.65	12.441512	-57.233890	207.83	-0.120	0.130	0.760	207.65	-1.20	1.50	 	 	 	 	 	 	 	 	 	 	 	 	 	 	 	 	 	 	1581507635	7.81	14.46
12/02/2020 11:40:36	120220	12022020	114036	207.37	12.441483	-57.233912	207.57	-0.480	0.000	1.550	207.37	-1.40	2.30	 	 	 	 	 	 	 	 	 	 	 	 	 	 	 	 	 	 	1581507636	7.78	14.41
12/02/2020 11:40:37	120220	12022020	114037	207.09	12.441455	-57.233937	207.23	-0.300	-0.220	2.120	207.03	-1.60	2.70	 	 	 	 	 	 	 	 	 	 	 	 	 	 	 	 	 	 	1581507637	7.90	14.63
12/02/2020 11:40:38	120220	12022020	114038	206.71	12.441427	-57.233960	206.90	0.240	-0.550	2.200	206.71	-2.00	2.60	 	 	 	 	 	 	 	 	 	 	 	 	 	 	 	 	 	 	1581507638	7.98	14.78
12/02/2020 11:40:39	120220	12022020	114039	206.37	12.441395	-57.233980	206.58	0.710	-0.810	1.960	206.37	-2.10	2.30	 	 	 	 	 	 	 	 	 	 	 	 	 	 	 	 	 	 	1581507639	8.00	14.82
12/02/2020 11:40:40	120220	12022020	114040	206.25	12.441362	-57.233998	206.45	0.750	-0.720	1.450	206.25	-1.90	1.70	 	 	 	 	 	 	 	 	 	 	 	 	 	 	 	 	 	 	1581507640	7.91	14.65
12/02/2020 11:40:41	120220	12022020	114041	206.52	12.441330	-57.234013	206.69	0.340	-0.340	0.910	206.52	-1.60	1.30	 	 	 	 	 	 	 	 	 	 	 	 	 	 	 	 	 	 	1581507641	7.51	13.91
12/02/2020 11:40:42	120220	12022020	114042	206.92	12.441300	-57.234028	207.07	-0.200	-0.140	0.770	206.92	-1.50	1.30	 	 	 	 	 	 	 	 	 	 	 	 	 	 	 	 	 	 	1581507642	7.25	13.43
12/02/2020 11:40:43	120220	12022020	114043	207.32	12.441270	-57.234047	207.48	-0.510	-0.310	0.980	207.32	-1.70	1.60	 	 	 	 	 	 	 	 	 	 	 	 	 	 	 	 	 	 	1581507643	7.58	14.04
12/02/2020 11:40:44	120220	12022020	114044	207.47	12.441240	-57.234070	207.62	-0.450	-0.740	1.480	207.47	-2.20	2.20	 	 	 	 	 	 	 	 	 	 	 	 	 	 	 	 	 	 	1581507644	8.04	14.89
12/02/2020 11:40:45	120220	12022020	114045	207.15	12.441208	-57.234093	207.30	-0.100	-1.170	2.160	207.15	-2.50	2.80	 	 	 	 	 	 	 	 	 	 	 	 	 	 	 	 	 	 	1581507645	8.45	15.65
12/02/2020 11:40:46	120220	12022020	114046	206.53	12.441177	-57.234117	206.70	0.250	-1.080	2.720	206.53	-2.20	3.30	 	 	 	 	 	 	 	 	 	 	 	 	 	 	 	 	 	 	1581507646	8.61	15.95
12/02/2020 11:40:47	120220	12022020	114047	206.19	12.441143	-57.234137	206.35	0.310	-0.150	2.710	206.19	-1.10	3.00	 	 	 	 	 	 	 	 	 	 	 	 	 	 	 	 	 	 	1581507647	8.19	15.17
12/02/2020 11:40:48	120220	12022020	114048	206.50	12.441113	-57.234153	206.67	0.000	1.070	2.140	206.50	0.00	2.40	 	 	 	 	 	 	 	 	 	 	 	 	 	 	 	 	 	 	1581507648	7.28	13.48
12/02/2020 11:40:49	120220	12022020	114049	207.01	12.441083	-57.234167	207.29	-0.360	1.560	1.540	207.13	0.10	1.90	 	 	 	 	 	 	 	 	 	 	 	 	 	 	 	 	 	 	1581507649	6.94	12.85
12/02/2020 11:40:50	120220	12022020	114050	207.56	12.441053	-57.234183	207.70	-0.330	0.940	1.200	207.56	-0.80	1.70	 	 	 	 	 	 	 	 	 	 	 	 	 	 	 	 	 	 	1581507650	7.55	13.98
12/02/2020 11:40:51	120220	12022020	114051	207.61	12.441018	-57.234202	207.75	0.110	-0.330	1.200	207.61	-2.10	1.80	 	 	 	 	 	 	 	 	 	 	 	 	 	 	 	 	 	 	1581507651	8.44	15.63
12/02/2020 11:40:52	120220	12022020	114052	207.47	12.440983	-57.234223	207.62	0.510	-1.330	1.480	207.47	-2.80	2.10	 	 	 	 	 	 	 	 	 	 	 	 	 	 	 	 	 	 	1581507652	8.83	16.35
12/02/2020 11:40:53	120220	12022020	114053	207.26	12.440950	-57.234245	207.43	0.470	-1.460	1.960	207.26	-2.70	2.60	 	 	 	 	 	 	 	 	 	 	 	 	 	 	 	 	 	 	1581507653	8.33	15.43
12/02/2020 11:40:54	120220	12022020	114054	206.93	12.440922	-57.234265	207.10	0.030	-1.070	2.460	206.93	-2.30	3.10	 	 	 	 	 	 	 	 	 	 	 	 	 	 	 	 	 	 	1581507654	7.55	13.98
12/02/2020 11:40:55	120220	12022020	114055	206.53	12.440895	-57.234287	206.71	-0.390	-0.680	2.780	206.53	-1.90	3.30	 	 	 	 	 	 	 	 	 	 	 	 	 	 	 	 	 	 	1581507655	7.39	13.69
12/02/2020 11:40:56	120220	12022020	114056	206.16	12.440867	-57.234310	206.31	-0.390	-0.440	2.680	206.16	-1.70	3.00	 	 	 	 	 	 	 	 	 	 	 	 	 	 	 	 	 	 	1581507656	7.74	14.33
12/02/2020 11:40:57	120220	12022020	114057	206.15	12.440835	-57.234330	206.32	-0.040	-0.040	1.950	206.15	-1.20	2.10	 	 	 	 	 	 	 	 	 	 	 	 	 	 	 	 	 	 	1581507657	7.95	14.72
12/02/2020 11:40:58	120220	12022020	114058	206.69	12.440802	-57.234345	206.85	0.220	0.410	0.880	206.69	-0.90	1.10	 	 	 	 	 	 	 	 	 	 	 	 	 	 	 	 	 	 	1581507658	7.71	14.28
12/02/2020 11:40:59	120220	12022020	114059	207.34	12.440768	-57.234358	207.49	0.180	0.320	0.270	207.34	-1.20	0.80	 	 	 	 	 	 	 	 	 	 	 	 	 	 	 	 	 	 	1581507659	7.69	14.24
12/02/2020 11:41:00	120220	12022020	114100	207.61	12.440735	-57.234375	207.74	0.020	-0.280	0.480	207.61	-1.80	1.10	 	 	 	 	 	 	 	 	 	 	 	 	 	 	 	 	 	 	1581507660	8.16	15.11
12/02/2020 11:41:01	120220	12022020	114101	207.74	12.440702	-57.234397	207.87	0.010	-0.560	0.900	207.74	-1.80	1.50	1016.10	26.40	26.50	21.50	21.60	178.0	74.0	74.0	409.0	27.0	251.00	7.40	74.00	9.60	15017	8813.0	27.5	27.5	1581507661	8.58	15.89
12/02/2020 11:41:02	120220	12022020	114102	207.97	12.440670	-57.234417	208.11	0.090	-0.280	1.270	207.97	-1.50	1.90	 	 	 	 	 	 	 	 	 	 	 	 	 	 	 	 	 	 	1581507662	8.02	14.85
12/02/2020 11:41:03	120220	12022020	114103	207.85	12.440640	-57.234435	207.97	0.100	-0.160	1.900	207.85	-1.60	2.70	 	 	 	 	 	 	 	 	 	 	 	 	 	 	 	 	 	 	1581507663	7.46	13.82
12/02/2020 11:41:04	120220	12022020	114104	207.21	12.440610	-57.234455	207.36	-0.080	-0.410	2.800	207.21	-1.80	3.50	 	 	 	 	 	 	 	 	 	 	 	 	 	 	 	 	 	 	1581507664	7.87	14.58
12/02/2020 11:41:05	120220	12022020	114105	206.56	12.440580	-57.234480	206.72	-0.390	-0.490	3.430	206.56	-1.70	4.00	 	 	 	 	 	 	 	 	 	 	 	 	 	 	 	 	 	 	1581507665	8.37	15.50
12/02/2020 11:41:06	120220	12022020	114106	206.05	12.440552	-57.234505	206.21	-0.480	-0.100	3.520	206.05	-1.30	3.90	 	 	 	 	 	 	 	 	 	 	 	 	 	 	 	 	 	 	1581507666	8.10	15.00
12/02/2020 11:41:07	120220	12022020	114107	205.65	12.440523	-57.234527	205.80	-0.090	0.200	3.000	205.65	-1.10	3.20	 	 	 	 	 	 	 	 	 	 	 	 	 	 	 	 	 	 	1581507667	7.47	13.83
12/02/2020 11:41:08	120220	12022020	114108	205.53	12.440493	-57.234545	205.68	0.490	-0.010	2.100	205.53	-1.50	2.30	 	 	 	 	 	 	 	 	 	 	 	 	 	 	 	 	 	 	1581507668	7.60	14.08
12/02/2020 11:41:09	120220	12022020	114109	205.76	12.440458	-57.234560	205.91	0.760	-0.510	1.230	205.76	-2.00	1.50	 	 	 	 	 	 	 	 	 	 	 	 	 	 	 	 	 	 	1581507669	8.09	14.98
12/02/2020 11:41:10	120220	12022020	114110	206.25	12.440423	-57.234575	206.38	0.530	-0.790	0.800	206.25	-2.10	1.30	 	 	 	 	 	 	 	 	 	 	 	 	 	 	 	 	 	 	1581507670	8.21	15.20
12/02/2020 11:41:11	120220	12022020	114111	206.97	12.440392	-57.234593	207.11	0.010	-0.550	0.830	206.97	-1.70	1.40	 	 	 	 	 	 	 	 	 	 	 	 	 	 	 	 	 	 	1581507671	7.85	14.54
12/02/2020 11:41:12	120220	12022020	114112	207.73	12.440363	-57.234612	207.87	-0.400	-0.060	1.050	207.73	-1.30	1.70	 	 	 	 	 	 	 	 	 	 	 	 	 	 	 	 	 	 	1581507672	7.31	13.54
12/02/2020 11:41:13	120220	12022020	114113	208.01	12.440337	-57.234632	208.13	-0.390	-0.060	1.520	207.99	-1.60	2.20	 	 	 	 	 	 	 	 	 	 	 	 	 	 	 	 	 	 	1581507673	7.14	13.22
12/02/2020 11:41:14	120220	12022020	114114	207.49	12.440305	-57.234653	207.63	-0.040	-0.770	2.340	207.49	-2.30	3.10	 	 	 	 	 	 	 	 	 	 	 	 	 	 	 	 	 	 	1581507674	7.96	14.74
12/02/2020 11:41:15	120220	12022020	114115	206.63	12.440272	-57.234677	206.78	0.140	-1.170	3.110	206.63	-2.40	3.80	 	 	 	 	 	 	 	 	 	 	 	 	 	 	 	 	 	 	1581507675	8.84	16.37
12/02/2020 11:41:16	120220	12022020	114116	205.96	12.440240	-57.234700	206.14	-0.110	-0.610	3.470	205.96	-1.60	4.00	 	 	 	 	 	 	 	 	 	 	 	 	 	 	 	 	 	 	1581507676	8.42	15.59
12/02/2020 11:41:17	120220	12022020	114117	205.67	12.440212	-57.234720	205.83	-0.490	0.320	3.330	205.67	-0.80	3.60	 	 	 	 	 	 	 	 	 	 	 	 	 	 	 	 	 	 	1581507677	7.52	13.93
12/02/2020 11:41:18	120220	12022020	114118	205.73	12.440183	-57.234740	205.90	-0.530	0.840	2.630	205.73	-0.50	2.80	 	 	 	 	 	 	 	 	 	 	 	 	 	 	 	 	 	 	1581507678	7.25	13.43
12/02/2020 11:41:19	120220	12022020	114119	206.00	12.440152	-57.234757	206.15	-0.130	0.620	1.620	206.00	-0.90	1.80	 	 	 	 	 	 	 	 	 	 	 	 	 	 	 	 	 	 	1581507679	7.61	14.09
12/02/2020 11:41:20	120220	12022020	114120	206.33	12.440117	-57.234773	206.46	0.370	-0.110	0.870	206.33	-1.70	1.30	 	 	 	 	 	 	 	 	 	 	 	 	 	 	 	 	 	 	1581507680	8.17	15.13
12/02/2020 11:41:21	120220	12022020	114121	206.57	12.440082	-57.234790	206.70	0.500	-0.810	0.780	206.57	-2.30	1.40	 	 	 	 	 	 	 	 	 	 	 	 	 	 	 	 	 	 	1581507681	8.42	15.59
12/02/2020 11:41:22	120220	12022020	114122	206.54	12.440050	-57.234810	206.68	0.230	-1.060	1.300	206.54	-2.40	2.00	 	 	 	 	 	 	 	 	 	 	 	 	 	 	 	 	 	 	1581507682	8.14	15.08
12/02/2020 11:41:23	120220	12022020	114123	206.30	12.440022	-57.234832	206.44	-0.130	-0.750	2.020	206.30	-1.90	2.70	 	 	 	 	 	 	 	 	 	 	 	 	 	 	 	 	 	 	1581507683	7.80	14.45
12/02/2020 11:41:24	120220	12022020	114124	206.15	12.439995	-57.234855	206.31	-0.250	-0.040	2.380	206.15	-1.10	2.90	 	 	 	 	 	 	 	 	 	 	 	 	 	 	 	 	 	 	1581507684	7.44	13.78
12/02/2020 11:41:25	120220	12022020	114125	206.16	12.439968	-57.234875	206.32	-0.060	0.450	2.270	206.16	-0.90	2.70	 	 	 	 	 	 	 	 	 	 	 	 	 	 	 	 	 	 	1581507685	7.11	13.17
12/02/2020 11:41:26	120220	12022020	114126	206.12	12.439938	-57.234893	206.26	0.230	0.200	2.050	206.12	-1.30	2.50	 	 	 	 	 	 	 	 	 	 	 	 	 	 	 	 	 	 	1581507686	7.39	13.69
12/02/2020 11:41:27	120220	12022020	114127	205.92	12.439905	-57.234912	205.99	0.350	-0.470	2.040	205.85	-2.00	2.60	 	 	 	 	 	 	 	 	 	 	 	 	 	 	 	 	 	 	1581507687	8.13	15.06
12/02/2020 11:41:28	120220	12022020	114128	205.42	12.439872	-57.234930	205.57	0.210	-0.940	2.300	205.42	-2.30	2.90	 	 	 	 	 	 	 	 	 	 	 	 	 	 	 	 	 	 	1581507688	8.47	15.69
12/02/2020 11:41:29	120220	12022020	114129	205.05	12.439838	-57.234950	205.21	-0.070	-0.870	2.550	205.05	-2.10	3.10	 	 	 	 	 	 	 	 	 	 	 	 	 	 	 	 	 	 	1581507689	8.17	15.13
12/02/2020 11:41:30	120220	12022020	114130	204.82	12.439808	-57.234970	204.99	-0.360	-0.540	2.590	204.82	-1.80	3.00	 	 	 	 	 	 	 	 	 	 	 	 	 	 	 	 	 	 	1581507690	7.67	14.20
12/02/2020 11:41:31	120220	12022020	114131	204.74	12.439778	-57.234988	204.88	-0.530	-0.330	2.410	204.74	-1.60	2.80	 	 	 	 	 	 	 	 	 	 	 	 	 	 	 	 	 	 	1581507691	7.56	14.00
12/02/2020 11:41:32	120220	12022020	114132	204.76	12.439747	-57.235008	204.88	-0.510	-0.270	2.120	204.76	-1.60	2.50	 	 	 	 	 	 	 	 	 	 	 	 	 	 	 	 	 	 	1581507692	7.78	14.41
12/02/2020 11:41:33	120220	12022020	114133	204.66	12.439717	-57.235027	204.77	-0.230	-0.200	1.910	204.66	-1.50	2.30	 	 	 	 	 	 	 	 	 	 	 	 	 	 	 	 	 	 	1581507693	7.92	14.67
12/02/2020 11:41:34	120220	12022020	114134	204.58	12.439683	-57.235045	204.69	0.150	0.010	1.640	204.58	-1.20	2.00	 	 	 	 	 	 	 	 	 	 	 	 	 	 	 	 	 	 	1581507694	7.92	14.67
12/02/2020 11:41:35	120220	12022020	114135	204.70	12.439652	-57.235062	204.81	0.390	0.290	1.340	204.70	-1.00	1.80	 	 	 	 	 	 	 	 	 	 	 	 	 	 	 	 	 	 	1581507695	7.73	14.32
12/02/2020 11:41:36	120220	12022020	114136	204.86	12.439618	-57.235077	204.96	0.380	0.310	1.220	204.86	-1.10	1.80	 	 	 	 	 	 	 	 	 	 	 	 	 	 	 	 	 	 	1581507696	7.64	14.15
12/02/2020 11:41:37	120220	12022020	114137	204.91	12.439587	-57.235092	205.01	0.130	0.020	1.570	204.91	-1.40	2.30	 	 	 	 	 	 	 	 	 	 	 	 	 	 	 	 	 	 	1581507697	7.85	14.54
12/02/2020 11:41:38	120220	12022020	114138	204.74	12.439555	-57.235113	204.85	-0.160	-0.320	2.370	204.74	-1.70	3.10	 	 	 	 	 	 	 	 	 	 	 	 	 	 	 	 	 	 	1581507698	8.05	14.91
12/02/2020 11:41:39	120220	12022020	114139	204.51	12.439525	-57.235135	204.60	-0.280	-0.480	2.980	204.47	-1.80	3.50	 	 	 	 	 	 	 	 	 	 	 	 	 	 	 	 	 	 	1581507699	8.09	14.98
12/02/2020 11:41:40	120220	12022020	114140	204.34	12.439495	-57.235157	204.47	-0.210	-0.450	3.000	204.34	-1.80	3.40	 	 	 	 	 	 	 	 	 	 	 	 	 	 	 	 	 	 	1581507700	7.82	14.48
12/02/2020 11:41:41	120220	12022020	114141	204.23	12.439465	-57.235175	204.34	0.000	-0.510	2.600	204.23	-1.90	2.90	 	 	 	 	 	 	 	 	 	 	 	 	 	 	 	 	 	 	1581507701	7.55	13.98
12/02/2020 11:41:42	120220	12022020	114142	204.08	12.439432	-57.235192	204.20	0.250	-0.680	2.070	204.08	-2.00	2.40	 	 	 	 	 	 	 	 	 	 	 	 	 	 	 	 	 	 	1581507702	7.71	14.28
12/02/2020 11:41:43	120220	12022020	114143	204.02	12.439398	-57.235207	204.13	0.380	-0.660	1.600	204.02	-1.90	2.00	 	 	 	 	 	 	 	 	 	 	 	 	 	 	 	 	 	 	1581507703	7.88	14.59
12/02/2020 11:41:44	120220	12022020	114144	204.04	12.439365	-57.235220	204.13	0.270	-0.380	1.340	204.04	-1.60	1.80	 	 	 	 	 	 	 	 	 	 	 	 	 	 	 	 	 	 	1581507704	7.72	14.30
12/02/2020 11:41:45	120220	12022020	114145	204.14	12.439333	-57.235235	204.23	0.020	-0.080	1.220	204.14	-1.30	1.70	 	 	 	 	 	 	 	 	 	 	 	 	 	 	 	 	 	 	1581507705	7.56	14.00
12/02/2020 11:41:46	120220	12022020	114146	204.48	12.439302	-57.235252	204.58	-0.230	0.120	1.190	204.48	-1.20	1.70	 	 	 	 	 	 	 	 	 	 	 	 	 	 	 	 	 	 	1581507706	7.65	14.17
12/02/2020 11:41:47	120220	12022020	114147	204.85	12.439272	-57.235270	204.94	-0.340	0.070	1.360	204.85	-1.40	2.00	 	 	 	 	 	 	 	 	 	 	 	 	 	 	 	 	 	 	1581507707	7.72	14.30
12/02/2020 11:41:48	120220	12022020	114148	204.82	12.439240	-57.235290	204.91	-0.210	-0.340	1.770	204.82	-1.80	2.40	 	 	 	 	 	 	 	 	 	 	 	 	 	 	 	 	 	 	1581507708	7.96	14.74
12/02/2020 11:41:49	120220	12022020	114149	204.51	12.439207	-57.235312	204.61	-0.010	-0.780	2.200	204.51	-2.20	2.80	 	 	 	 	 	 	 	 	 	 	 	 	 	 	 	 	 	 	1581507709	8.39	15.54
12/02/2020 11:41:50	120220	12022020	114150	204.23	12.439173	-57.235332	204.35	0.000	-0.750	2.340	204.23	-1.90	2.80	 	 	 	 	 	 	 	 	 	 	 	 	 	 	 	 	 	 	1581507710	8.36	15.48
12/02/2020 11:41:51	120220	12022020	114151	204.11	12.439140	-57.235348	204.22	-0.170	-0.320	2.140	204.11	-1.50	2.50	 	 	 	 	 	 	 	 	 	 	 	 	 	 	 	 	 	 	1581507711	7.86	14.56
12/02/2020 11:41:52	120220	12022020	114152	204.10	12.439110	-57.235365	204.19	-0.300	0.050	1.860	204.10	-1.20	2.30	 	 	 	 	 	 	 	 	 	 	 	 	 	 	 	 	 	 	1581507712	7.53	13.95
12/02/2020 11:41:53	120220	12022020	114153	204.08	12.439078	-57.235382	204.17	-0.180	0.180	1.590	204.08	-1.10	2.00	 	 	 	 	 	 	 	 	 	 	 	 	 	 	 	 	 	 	1581507713	7.69	14.24
12/02/2020 11:41:54	120220	12022020	114154	204.25	12.439045	-57.235397	204.35	0.060	0.310	1.320	204.25	-1.00	1.80	 	 	 	 	 	 	 	 	 	 	 	 	 	 	 	 	 	 	1581507714	7.87	14.58
12/02/2020 11:41:55	120220	12022020	114155	204.56	12.439012	-57.235412	204.66	0.180	0.330	1.290	204.56	-1.10	1.90	 	 	 	 	 	 	 	 	 	 	 	 	 	 	 	 	 	 	1581507715	7.68	14.22
12/02/2020 11:41:56	120220	12022020	114156	204.67	12.438980	-57.235428	204.78	0.120	-0.010	1.650	204.67	-1.50	2.30	 	 	 	 	 	 	 	 	 	 	 	 	 	 	 	 	 	 	1581507716	7.66	14.19
12/02/2020 11:41:57	120220	12022020	114157	204.56	12.438948	-57.235448	204.66	0.010	-0.570	2.090	204.56	-2.10	2.70	 	 	 	 	 	 	 	 	 	 	 	 	 	 	 	 	 	 	1581507717	8.01	14.83
12/02/2020 11:41:58	120220	12022020	114158	204.26	12.438917	-57.235472	204.36	0.070	-0.980	2.440	204.26	-2.40	3.00	 	 	 	 	 	 	 	 	 	 	 	 	 	 	 	 	 	 	1581507718	8.21	15.20
12/02/2020 11:41:59	120220	12022020	114159	203.96	12.438887	-57.235492	204.06	0.290	-0.930	2.510	203.96	-2.20	3.00	 	 	 	 	 	 	 	 	 	 	 	 	 	 	 	 	 	 	1581507719	8.06	14.93
12/02/2020 11:42:00	120220	12022020	114200	203.68	12.438855	-57.235508	203.79	0.460	-0.590	2.270	203.68	-1.80	2.60	 	 	 	 	 	 	 	 	 	 	 	 	 	 	 	 	 	 	1581507720	7.63	14.13
12/02/2020 11:42:01	120220	12022020	114201	203.50	12.438822	-57.235523	203.60	0.400	-0.290	1.770	203.50	-1.50	2.10	1016.10	26.30	26.40	21.50	21.60	139.0	74.0	74.0	409.0	26.9	253.00	8.60	77.00	10.60	14038	8818.0	27.5	27.5	1581507721	7.58	14.04
12/02/2020 11:42:02	120220	12022020	114202	203.62	12.438788	-57.235537	203.70	0.040	-0.030	1.280	203.62	-1.30	1.70	 	 	 	 	 	 	 	 	 	 	 	 	 	 	 	 	 	 	1581507722	7.78	14.41
12/02/2020 11:42:03	120220	12022020	114203	204.13	12.438755	-57.235550	204.23	-0.480	0.150	1.010	204.13	-1.20	1.50	 	 	 	 	 	 	 	 	 	 	 	 	 	 	 	 	 	 	1581507723	7.74	14.33
12/02/2020 11:42:04	120220	12022020	114204	204.64	12.438723	-57.235565	204.73	-0.880	-0.100	1.180	204.64	-1.60	1.80	 	 	 	 	 	 	 	 	 	 	 	 	 	 	 	 	 	 	1581507724	7.71	14.28
12/02/2020 11:42:05	120220	12022020	114205	204.81	12.438690	-57.235587	204.91	-0.830	-0.770	1.760	204.81	-2.30	2.50	 	 	 	 	 	 	 	 	 	 	 	 	 	 	 	 	 	 	1581507725	8.28	15.33
12/02/2020 11:42:06	120220	12022020	114206	204.69	12.438658	-57.235613	204.80	-0.290	-1.180	2.440	204.69	-2.50	3.10	 	 	 	 	 	 	 	 	 	 	 	 	 	 	 	 	 	 	1581507726	8.82	16.33
12/02/2020 11:42:07	120220	12022020	114207	204.28	12.438627	-57.235637	204.38	0.390	-0.800	2.940	204.28	-1.90	3.50	 	 	 	 	 	 	 	 	 	 	 	 	 	 	 	 	 	 	1581507727	8.45	15.65
12/02/2020 11:42:08	120220	12022020	114208	203.76	12.438595	-57.235655	203.87	0.790	0.100	3.000	203.76	-0.90	3.40	 	 	 	 	 	 	 	 	 	 	 	 	 	 	 	 	 	 	1581507728	7.65	14.17
12/02/2020 11:42:09	120220	12022020	114209	203.53	12.438565	-57.235667	203.64	0.700	0.880	2.560	203.53	-0.30	2.90	 	 	 	 	 	 	 	 	 	 	 	 	 	 	 	 	 	 	1581507729	7.24	13.41
12/02/2020 11:42:10	120220	12022020	114210	203.59	12.438532	-57.235678	203.70	0.250	0.970	2.050	203.59	-0.50	2.40	 	 	 	 	 	 	 	 	 	 	 	 	 	 	 	 	 	 	1581507730	7.40	13.70
12/02/2020 11:42:11	120220	12022020	114211	203.82	12.438498	-57.235692	203.94	-0.210	0.410	1.780	203.82	-1.20	2.30	 	 	 	 	 	 	 	 	 	 	 	 	 	 	 	 	 	 	1581507731	7.91	14.65
12/02/2020 11:42:12	120220	12022020	114212	204.07	12.438463	-57.235710	204.18	-0.420	-0.420	1.820	204.07	-2.00	2.40	 	 	 	 	 	 	 	 	 	 	 	 	 	 	 	 	 	 	1581507732	8.29	15.35
12/02/2020 11:42:13	120220	12022020	114213	204.14	12.438430	-57.235732	204.25	-0.380	-1.190	2.170	204.14	-2.70	2.80	 	 	 	 	 	 	 	 	 	 	 	 	 	 	 	 	 	 	1581507733	8.43	15.61
12/02/2020 11:42:14	120220	12022020	114214	204.11	12.438398	-57.235755	204.23	-0.200	-1.500	2.370	204.11	-2.80	2.80	 	 	 	 	 	 	 	 	 	 	 	 	 	 	 	 	 	 	1581507734	8.38	15.52
12/02/2020 11:42:15	120220	12022020	114215	204.12	12.438368	-57.235775	204.22	0.020	-1.220	2.070	204.12	-2.40	2.40	 	 	 	 	 	 	 	 	 	 	 	 	 	 	 	 	 	 	1581507735	7.91	14.65
12/02/2020 11:42:16	120220	12022020	114216	204.16	12.438338	-57.235792	204.25	0.220	-0.640	1.550	204.16	-1.80	1.90	 	 	 	 	 	 	 	 	 	 	 	 	 	 	 	 	 	 	1581507736	7.40	13.70
12/02/2020 11:42:17	120220	12022020	114217	204.08	12.438307	-57.235805	204.16	0.400	-0.240	1.190	204.08	-1.50	1.60	 	 	 	 	 	 	 	 	 	 	 	 	 	 	 	 	 	 	1581507737	7.40	13.70
12/02/2020 11:42:18	120220	12022020	114218	203.95	12.438272	-57.235818	204.04	0.440	0.010	1.070	203.95	-1.20	1.60	 	 	 	 	 	 	 	 	 	 	 	 	 	 	 	 	 	 	1581507738	7.86	14.56
12/02/2020 11:42:19	120220	12022020	114219	204.06	12.438238	-57.235833	204.15	0.200	0.390	1.090	204.06	-0.80	1.60	 	 	 	 	 	 	 	 	 	 	 	 	 	 	 	 	 	 	1581507739	8.01	14.83
12/02/2020 11:42:20	120220	12022020	114220	204.39	12.438205	-57.235850	204.48	-0.190	0.770	1.120	204.39	-0.60	1.70	 	 	 	 	 	 	 	 	 	 	 	 	 	 	 	 	 	 	1581507740	7.72	14.30
12/02/2020 11:42:21	120220	12022020	114221	204.52	12.438173	-57.235867	204.60	-0.390	0.570	1.500	204.52	-1.00	2.20	 	 	 	 	 	 	 	 	 	 	 	 	 	 	 	 	 	 	1581507741	7.62	14.11
12/02/2020 11:42:22	120220	12022020	114222	204.42	12.438142	-57.235887	204.52	-0.270	-0.250	2.170	204.42	-1.90	2.90	 	 	 	 	 	 	 	 	 	 	 	 	 	 	 	 	 	 	1581507742	8.27	15.32
12/02/2020 11:42:23	120220	12022020	114223	204.31	12.438107	-57.235908	204.43	-0.070	-1.010	2.800	204.31	-2.50	3.40	 	 	 	 	 	 	 	 	 	 	 	 	 	 	 	 	 	 	1581507743	8.77	16.24
12/02/2020 11:42:24	120220	12022020	114224	204.26	12.438073	-57.235932	204.40	-0.050	-1.220	3.120	204.26	-2.50	3.60	 	 	 	 	 	 	 	 	 	 	 	 	 	 	 	 	 	 	1581507744	8.55	15.83
12/02/2020 11:42:25	120220	12022020	114225	204.31	12.438043	-57.235952	204.44	-0.190	-0.850	2.990	204.31	-2.00	3.30	 	 	 	 	 	 	 	 	 	 	 	 	 	 	 	 	 	 	1581507745	7.87	14.58
12/02/2020 11:42:26	120220	12022020	114226	204.36	12.438015	-57.235970	204.47	-0.190	-0.400	2.480	204.36	-1.70	2.80	 	 	 	 	 	 	 	 	 	 	 	 	 	 	 	 	 	 	1581507746	7.32	13.56
12/02/2020 11:42:27	120220	12022020	114227	204.29	12.437983	-57.235987	204.39	0.130	-0.310	1.930	204.29	-1.70	2.30	 	 	 	 	 	 	 	 	 	 	 	 	 	 	 	 	 	 	1581507747	7.44	13.78
12/02/2020 11:42:28	120220	12022020	114228	204.09	12.437950	-57.236003	204.18	0.560	-0.370	1.650	204.09	-1.70	2.10	 	 	 	 	 	 	 	 	 	 	 	 	 	 	 	 	 	 	1581507748	8.01	14.83
12/02/2020 11:42:29	120220	12022020	114229	203.93	12.437915	-57.236018	204.02	0.660	-0.080	1.570	203.92	-1.20	2.00	 	 	 	 	 	 	 	 	 	 	 	 	 	 	 	 	 	 	1581507749	8.19	15.17
12/02/2020 11:42:30	120220	12022020	114230	204.17	12.437882	-57.236033	204.28	0.230	0.560	1.350	204.17	-0.60	1.70	 	 	 	 	 	 	 	 	 	 	 	 	 	 	 	 	 	 	1581507750	7.75	14.35
12/02/2020 11:42:31	120220	12022020	114231	204.84	12.437852	-57.236048	204.94	-0.370	0.940	1.080	204.84	-0.40	1.60	 	 	 	 	 	 	 	 	 	 	 	 	 	 	 	 	 	 	1581507751	7.27	13.46
12/02/2020 11:42:32	120220	12022020	114232	205.43	12.437822	-57.236065	205.53	-0.600	0.490	1.110	205.43	-1.20	1.70	 	 	 	 	 	 	 	 	 	 	 	 	 	 	 	 	 	 	1581507752	7.48	13.85
12/02/2020 11:42:33	120220	12022020	114233	205.71	12.437788	-57.236087	205.80	-0.230	-0.640	1.390	205.71	-2.40	2.00	 	 	 	 	 	 	 	 	 	 	 	 	 	 	 	 	 	 	1581507753	8.29	15.35
12/02/2020 11:42:34	120220	12022020	114234	205.60	12.437753	-57.236108	205.71	0.350	-1.650	1.800	205.60	-3.10	2.40	 	 	 	 	 	 	 	 	 	 	 	 	 	 	 	 	 	 	1581507754	8.89	16.46
12/02/2020 11:42:35	120220	12022020	114235	205.31	12.437718	-57.236128	205.43	0.530	-1.700	2.230	205.31	-2.80	2.90	 	 	 	 	 	 	 	 	 	 	 	 	 	 	 	 	 	 	1581507755	8.65	16.02
12/02/2020 11:42:36	120220	12022020	114236	205.09	12.437688	-57.236147	205.20	0.130	-0.850	2.610	205.09	-1.90	3.20	 	 	 	 	 	 	 	 	 	 	 	 	 	 	 	 	 	 	1581507756	7.66	14.19
12/02/2020 11:42:37	120220	12022020	114237	204.85	12.437662	-57.236165	204.96	-0.450	0.020	2.850	204.85	-1.10	3.40	 	 	 	 	 	 	 	 	 	 	 	 	 	 	 	 	 	 	1581507757	7.03	13.02
12/02/2020 11:42:38	120220	12022020	114238	204.62	12.437633	-57.236187	204.73	-0.680	0.390	2.850	204.62	-0.90	3.30	 	 	 	 	 	 	 	 	 	 	 	 	 	 	 	 	 	 	1581507758	7.37	13.65
12/02/2020 11:42:39	120220	12022020	114239	204.51	12.437602	-57.236208	204.62	-0.370	0.400	2.590	204.51	-1.00	2.90	 	 	 	 	 	 	 	 	 	 	 	 	 	 	 	 	 	 	1581507759	7.99	14.80
12/02/2020 11:42:40	120220	12022020	114240	204.60	12.437570	-57.236227	204.72	0.280	0.360	2.000	204.60	-1.00	2.20	 	 	 	 	 	 	 	 	 	 	 	 	 	 	 	 	 	 	1581507760	8.18	15.15
12/02/2020 11:42:41	120220	12022020	114241	204.90	12.437535	-57.236243	205.02	0.790	0.320	1.220	204.90	-1.10	1.50	 	 	 	 	 	 	 	 	 	 	 	 	 	 	 	 	 	 	1581507761	8.00	14.82
12/02/2020 11:42:42	120220	12022020	114242	205.23	12.437502	-57.236255	205.33	0.860	0.090	0.750	205.23	-1.40	1.20	 	 	 	 	 	 	 	 	 	 	 	 	 	 	 	 	 	 	1581507762	7.87	14.58
12/02/2020 11:42:43	120220	12022020	114243	205.43	12.437467	-57.236267	205.54	0.480	-0.430	0.930	205.43	-2.00	1.60	 	 	 	 	 	 	 	 	 	 	 	 	 	 	 	 	 	 	1581507763	7.92	14.67
12/02/2020 11:42:44	120220	12022020	114244	205.51	12.437433	-57.236285	205.63	-0.130	-0.990	1.730	205.51	-2.40	2.50	 	 	 	 	 	 	 	 	 	 	 	 	 	 	 	 	 	 	1581507764	8.07	14.95
12/02/2020 11:42:45	120220	12022020	114245	205.48	12.437403	-57.236308	205.62	-0.630	-1.200	2.740	205.48	-2.50	3.50	 	 	 	 	 	 	 	 	 	 	 	 	 	 	 	 	 	 	1581507765	8.20	15.19
12/02/2020 11:42:46	120220	12022020	114246	205.26	12.437375	-57.236335	205.42	-0.750	-1.090	3.460	205.26	-2.30	4.00	 	 	 	 	 	 	 	 	 	 	 	 	 	 	 	 	 	 	1581507766	8.11	15.02
12/02/2020 11:42:47	120220	12022020	114247	204.99	12.437347	-57.236358	205.14	-0.520	-0.790	3.480	204.99	-2.00	3.80	 	 	 	 	 	 	 	 	 	 	 	 	 	 	 	 	 	 	1581507767	7.95	14.72
12/02/2020 11:42:48	120220	12022020	114248	204.91	12.437317	-57.236378	205.08	-0.230	-0.350	2.970	204.91	-1.50	3.30	 	 	 	 	 	 	 	 	 	 	 	 	 	 	 	 	 	 	1581507768	7.78	14.41
12/02/2020 11:42:49	120220	12022020	114249	204.85	12.437285	-57.236395	205.00	-0.020	0.030	2.340	204.85	-1.20	2.70	 	 	 	 	 	 	 	 	 	 	 	 	 	 	 	 	 	 	1581507769	7.65	14.17
12/02/2020 11:42:50	120220	12022020	114250	204.63	12.437252	-57.236410	204.76	0.180	0.190	1.780	204.63	-1.10	2.10	 	 	 	 	 	 	 	 	 	 	 	 	 	 	 	 	 	 	1581507770	7.81	14.46
12/02/2020 11:42:51	120220	12022020	114251	204.59	12.437217	-57.236425	204.74	0.360	0.370	1.220	204.59	-0.90	1.50	 	 	 	 	 	 	 	 	 	 	 	 	 	 	 	 	 	 	1581507771	8.07	14.95
12/02/2020 11:42:52	120220	12022020	114252	205.01	12.437183	-57.236437	205.15	0.380	0.680	0.690	205.01	-0.60	1.10	 	 	 	 	 	 	 	 	 	 	 	 	 	 	 	 	 	 	1581507772	7.84	14.52
12/02/2020 11:42:53	120220	12022020	114253	205.69	12.437150	-57.236450	205.81	0.150	0.620	0.460	205.69	-0.90	1.00	 	 	 	 	 	 	 	 	 	 	 	 	 	 	 	 	 	 	1581507773	7.49	13.87
12/02/2020 11:42:54	120220	12022020	114254	206.23	12.437118	-57.236467	206.33	-0.110	-0.040	0.860	206.23	-1.70	1.60	 	 	 	 	 	 	 	 	 	 	 	 	 	 	 	 	 	 	1581507774	7.66	14.19
12/02/2020 11:42:55	120220	12022020	114255	206.31	12.437087	-57.236488	206.41	-0.100	-1.010	1.710	206.31	-2.60	2.50	 	 	 	 	 	 	 	 	 	 	 	 	 	 	 	 	 	 	1581507775	8.21	15.20
12/02/2020 11:42:56	120220	12022020	114256	205.95	12.437057	-57.236513	206.06	0.190	-1.670	2.590	205.95	-3.00	3.30	 	 	 	 	 	 	 	 	 	 	 	 	 	 	 	 	 	 	1581507776	8.53	15.80
12/02/2020 11:42:57	120220	12022020	114257	205.46	12.437025	-57.236537	205.61	0.400	-1.520	3.150	205.46	-2.60	3.70	 	 	 	 	 	 	 	 	 	 	 	 	 	 	 	 	 	 	1581507777	8.24	15.26
12/02/2020 11:42:58	120220	12022020	114258	205.25	12.436995	-57.236555	205.41	0.220	-0.750	3.210	205.25	-1.80	3.70	 	 	 	 	 	 	 	 	 	 	 	 	 	 	 	 	 	 	1581507778	7.56	14.00
12/02/2020 11:42:59	120220	12022020	114259	205.17	12.436967	-57.236572	205.33	-0.280	-0.030	3.000	205.17	-1.20	3.40	 	 	 	 	 	 	 	 	 	 	 	 	 	 	 	 	 	 	1581507779	7.19	13.32
12/02/2020 11:43:00	120220	12022020	114300	205.18	12.436937	-57.236590	205.35	-0.740	0.320	2.560	205.18	-1.00	2.90	 	 	 	 	 	 	 	 	 	 	 	 	 	 	 	 	 	 	1581507780	7.49	13.87
12/02/2020 11:43:01	120220	12022020	114301	205.34	12.436905	-57.236610	205.49	-0.790	0.480	1.880	205.34	-0.80	2.10	1016.20	26.30	26.40	21.40	21.50	135.0	74.0	74.0	410.0	26.9	252.00	8.40	75.00	10.40	13881	8260.0	27.5	27.5	1581507781	7.89	14.61
12/02/2020 11:43:02	120220	12022020	114302	205.68	12.436873	-57.236628	205.80	-0.350	0.650	0.980	205.68	-0.70	1.20	 	 	 	 	 	 	 	 	 	 	 	 	 	 	 	 	 	 	1581507782	7.91	14.65
12/02/2020 11:43:03	120220	12022020	114303	206.30	12.436840	-57.236643	206.39	0.250	0.680	-0.100	206.30	-0.80	0.10	 	 	 	 	 	 	 	 	 	 	 	 	 	 	 	 	 	 	1581507783	7.68	14.22
12/02/2020 11:43:04	120220	12022020	114304	207.00	12.436807	-57.236655	207.05	0.620	0.150	-0.590	207.00	-1.50	0.00	 	 	 	 	 	 	 	 	 	 	 	 	 	 	 	 	 	 	1581507784	7.71	14.28
12/02/2020 11:43:05	120220	12022020	114305	207.15	12.436773	-57.236672	207.20	0.720	-0.910	0.160	207.15	-2.60	1.10	 	 	 	 	 	 	 	 	 	 	 	 	 	 	 	 	 	 	1581507785	8.02	14.85
12/02/2020 11:43:06	120220	12022020	114306	206.59	12.436740	-57.236693	206.65	0.690	-1.840	1.600	206.59	-3.20	2.50	 	 	 	 	 	 	 	 	 	 	 	 	 	 	 	 	 	 	1581507786	8.53	15.80
12/02/2020 11:43:07	120220	12022020	114307	206.08	12.436708	-57.236718	206.11	0.470	-1.600	2.860	206.00	-2.60	3.60	 	 	 	 	 	 	 	 	 	 	 	 	 	 	 	 	 	 	1581507787	8.48	15.70
12/02/2020 11:43:08	120220	12022020	114308	205.76	12.436682	-57.236740	205.90	0.020	-0.480	3.450	205.76	-1.50	4.00	 	 	 	 	 	 	 	 	 	 	 	 	 	 	 	 	 	 	1581507788	7.40	13.70
12/02/2020 11:43:09	120220	12022020	114309	205.69	12.436657	-57.236758	205.85	-0.430	0.330	3.420	205.69	-0.90	3.80	 	 	 	 	 	 	 	 	 	 	 	 	 	 	 	 	 	 	1581507789	6.82	12.63
12/02/2020 11:43:10	120220	12022020	114310	205.66	12.436627	-57.236777	205.82	-0.680	0.290	3.080	205.66	-1.20	3.40	 	 	 	 	 	 	 	 	 	 	 	 	 	 	 	 	 	 	1581507790	7.41	13.72
12/02/2020 11:43:11	120220	12022020	114311	205.71	12.436593	-57.236797	205.88	-0.780	-0.170	2.740	205.71	-1.60	3.20	 	 	 	 	 	 	 	 	 	 	 	 	 	 	 	 	 	 	1581507791	8.28	15.33
12/02/2020 11:43:12	120220	12022020	114312	205.75	12.436560	-57.236818	205.90	-0.740	-0.490	2.600	205.75	-1.80	3.00	 	 	 	 	 	 	 	 	 	 	 	 	 	 	 	 	 	 	1581507792	8.52	15.78
12/02/2020 11:43:13	120220	12022020	114313	205.78	12.436528	-57.236842	205.92	-0.460	-0.320	2.450	205.78	-1.50	2.80	 	 	 	 	 	 	 	 	 	 	 	 	 	 	 	 	 	 	1581507793	8.31	15.39
12/02/2020 11:43:14	120220	12022020	114314	205.97	12.436498	-57.236862	206.12	0.070	0.310	1.960	205.97	-0.80	2.20	 	 	 	 	 	 	 	 	 	 	 	 	 	 	 	 	 	 	1581507794	7.69	14.24
12/02/2020 11:43:15	120220	12022020	114315	206.39	12.436468	-57.236877	206.52	0.650	0.790	1.090	206.39	-0.60	1.30	 	 	 	 	 	 	 	 	 	 	 	 	 	 	 	 	 	 	1581507795	7.09	13.13
12/02/2020 11:43:16	120220	12022020	114316	206.78	12.436437	-57.236887	206.88	0.940	0.490	0.410	206.78	-1.10	0.90	 	 	 	 	 	 	 	 	 	 	 	 	 	 	 	 	 	 	1581507796	7.29	13.50
12/02/2020 11:43:17	120220	12022020	114317	206.81	12.436402	-57.236900	206.90	0.750	-0.460	0.530	206.81	-2.10	1.30	 	 	 	 	 	 	 	 	 	 	 	 	 	 	 	 	 	 	1581507797	7.93	14.69
12/02/2020 11:43:18	120220	12022020	114318	206.31	12.436368	-57.236918	206.39	0.270	-1.350	1.470	206.31	-2.80	2.30	 	 	 	 	 	 	 	 	 	 	 	 	 	 	 	 	 	 	1581507798	8.30	15.37
12/02/2020 11:43:19	120220	12022020	114319	205.70	12.436338	-57.236943	205.68	-0.100	-1.460	2.470	205.57	-2.60	3.20	 	 	 	 	 	 	 	 	 	 	 	 	 	 	 	 	 	 	1581507799	8.33	15.43
12/02/2020 11:43:20	120220	12022020	114320	205.13	12.436312	-57.236967	205.25	-0.140	-0.880	2.820	205.13	-2.00	3.30	 	 	 	 	 	 	 	 	 	 	 	 	 	 	 	 	 	 	1581507800	7.72	14.30
12/02/2020 11:43:21	120220	12022020	114321	204.96	12.436283	-57.236987	205.10	0.050	-0.420	2.620	204.96	-1.70	3.00	 	 	 	 	 	 	 	 	 	 	 	 	 	 	 	 	 	 	1581507801	7.23	13.39
12/02/2020 11:43:22	120220	12022020	114322	204.96	12.436253	-57.237003	205.11	0.130	-0.360	2.380	204.96	-1.70	2.80	 	 	 	 	 	 	 	 	 	 	 	 	 	 	 	 	 	 	1581507802	7.59	14.06
12/02/2020 11:43:23	120220	12022020	114323	205.01	12.436220	-57.237022	205.16	-0.120	-0.360	2.280	205.01	-1.60	2.80	 	 	 	 	 	 	 	 	 	 	 	 	 	 	 	 	 	 	1581507803	8.08	14.96
12/02/2020 11:43:24	120220	12022020	114324	205.11	12.436187	-57.237042	205.25	-0.590	-0.070	2.280	205.11	-1.30	2.80	 	 	 	 	 	 	 	 	 	 	 	 	 	 	 	 	 	 	1581507804	8.04	14.89
12/02/2020 11:43:25	120220	12022020	114325	205.37	12.436158	-57.237062	205.51	-0.930	0.420	2.200	205.37	-0.80	2.60	 	 	 	 	 	 	 	 	 	 	 	 	 	 	 	 	 	 	1581507805	7.69	14.24
12/02/2020 11:43:26	120220	12022020	114326	205.59	12.436130	-57.237082	205.71	-0.740	0.600	1.840	205.59	-0.80	2.20	 	 	 	 	 	 	 	 	 	 	 	 	 	 	 	 	 	 	1581507806	7.45	13.80
12/02/2020 11:43:27	120220	12022020	114327	205.66	12.436098	-57.237100	205.78	-0.030	0.270	1.340	205.66	-1.20	1.70	 	 	 	 	 	 	 	 	 	 	 	 	 	 	 	 	 	 	1581507807	7.74	14.33
12/02/2020 11:43:28	120220	12022020	114328	205.84	12.436063	-57.237117	205.95	0.680	-0.120	0.810	205.84	-1.50	1.20	 	 	 	 	 	 	 	 	 	 	 	 	 	 	 	 	 	 	1581507808	8.11	15.02
12/02/2020 11:43:29	120220	12022020	114329	206.09	12.436030	-57.237130	206.19	0.890	-0.300	0.700	206.09	-1.70	1.30	 	 	 	 	 	 	 	 	 	 	 	 	 	 	 	 	 	 	1581507809	7.89	14.61
12/02/2020 11:43:30	120220	12022020	114330	206.07	12.435998	-57.237145	206.17	0.620	-0.510	1.350	206.07	-2.00	2.20	 	 	 	 	 	 	 	 	 	 	 	 	 	 	 	 	 	 	1581507810	7.45	13.80
12/02/2020 11:43:31	120220	12022020	114331	205.57	12.435968	-57.237163	205.68	0.300	-0.930	2.500	205.57	-2.40	3.40	 	 	 	 	 	 	 	 	 	 	 	 	 	 	 	 	 	 	1581507811	7.59	14.06
12/02/2020 11:43:32	120220	12022020	114332	204.82	12.435938	-57.237187	204.97	0.130	-1.250	3.600	204.82	-2.50	4.30	 	 	 	 	 	 	 	 	 	 	 	 	 	 	 	 	 	 	1581507812	8.16	15.11
12/02/2020 11:43:33	120220	12022020	114333	204.40	12.435908	-57.237212	204.58	-0.000	-0.870	4.080	204.40	-1.90	4.50	 	 	 	 	 	 	 	 	 	 	 	 	 	 	 	 	 	 	1581507813	8.28	15.33
12/02/2020 11:43:34	120220	12022020	114334	204.48	12.435882	-57.237233	204.66	-0.200	0.060	3.780	204.48	-1.00	4.00	 	 	 	 	 	 	 	 	 	 	 	 	 	 	 	 	 	 	1581507814	7.48	13.85
12/02/2020 11:43:35	120220	12022020	114335	204.77	12.435853	-57.237252	204.93	-0.390	0.610	2.980	204.77	-0.70	3.20	 	 	 	 	 	 	 	 	 	 	 	 	 	 	 	 	 	 	1581507815	6.88	12.74
12/02/2020 11:43:36	120220	12022020	114336	205.06	12.435823	-57.237267	205.21	-0.490	0.400	2.090	205.06	-1.10	2.30	 	 	 	 	 	 	 	 	 	 	 	 	 	 	 	 	 	 	1581507816	7.34	13.59
12/02/2020 11:43:37	120220	12022020	114337	205.35	12.435790	-57.237283	205.49	-0.360	-0.130	1.260	205.35	-1.60	1.50	 	 	 	 	 	 	 	 	 	 	 	 	 	 	 	 	 	 	1581507817	8.03	14.87
12/02/2020 11:43:38	120220	12022020	114338	205.74	12.435755	-57.237300	205.86	-0.020	-0.380	0.560	205.74	-1.70	0.90	 	 	 	 	 	 	 	 	 	 	 	 	 	 	 	 	 	 	1581507818	8.14	15.08
12/02/2020 11:43:39	120220	12022020	114339	206.21	12.435723	-57.237315	206.31	0.360	-0.310	0.160	206.21	-1.60	0.70	 	 	 	 	 	 	 	 	 	 	 	 	 	 	 	 	 	 	1581507819	7.70	14.26
12/02/2020 11:43:40	120220	12022020	114340	206.51	12.435692	-57.237328	206.60	0.490	-0.350	0.410	206.51	-1.80	1.10	 	 	 	 	 	 	 	 	 	 	 	 	 	 	 	 	 	 	1581507820	7.34	13.59
12/02/2020 11:43:41	120220	12022020	114341	206.46	12.435662	-57.237347	206.54	0.340	-0.650	1.060	206.46	-2.10	1.80	 	 	 	 	 	 	 	 	 	 	 	 	 	 	 	 	 	 	1581507821	7.54	13.96
12/02/2020 11:43:42	120220	12022020	114342	206.18	12.435632	-57.237367	206.28	0.080	-0.840	1.850	206.18	-2.20	2.60	 	 	 	 	 	 	 	 	 	 	 	 	 	 	 	 	 	 	1581507822	7.87	14.58
12/02/2020 11:43:43	120220	12022020	114343	205.79	12.435602	-57.237388	205.77	-0.010	-0.760	2.620	205.66	-2.00	3.30	 	 	 	 	 	 	 	 	 	 	 	 	 	 	 	 	 	 	1581507823	7.83	14.50
12/02/2020 11:43:44	120220	12022020	114344	205.04	12.435572	-57.237410	205.19	0.070	-0.510	3.140	205.04	-1.70	3.70	 	 	 	 	 	 	 	 	 	 	 	 	 	 	 	 	 	 	1581507824	7.78	14.41
12/02/2020 11:43:45	120220	12022020	114345	204.92	12.435542	-57.237428	205.09	-0.070	0.050	3.220	204.92	-1.10	3.70	 	 	 	 	 	 	 	 	 	 	 	 	 	 	 	 	 	 	1581507825	7.75	14.35
12/02/2020 11:43:46	120220	12022020	114346	205.39	12.435512	-57.237447	205.56	-0.500	0.700	2.990	205.39	-0.50	3.40	 	 	 	 	 	 	 	 	 	 	 	 	 	 	 	 	 	 	1581507826	7.33	13.58
12/02/2020 11:43:47	120220	12022020	114347	206.02	12.435485	-57.237465	206.18	-0.840	0.960	2.550	206.02	-0.50	2.90	 	 	 	 	 	 	 	 	 	 	 	 	 	 	 	 	 	 	1581507827	7.08	13.11
12/02/2020 11:43:48	120220	12022020	114348	206.47	12.435457	-57.237485	206.61	-0.600	0.490	2.020	206.47	-1.10	2.40	 	 	 	 	 	 	 	 	 	 	 	 	 	 	 	 	 	 	1581507828	7.34	13.59
12/02/2020 11:43:49	120220	12022020	114349	206.58	12.435425	-57.237503	206.69	0.150	-0.480	1.630	206.58	-2.10	2.00	 	 	 	 	 	 	 	 	 	 	 	 	 	 	 	 	 	 	1581507829	7.91	14.65
12/02/2020 11:43:50	120220	12022020	114350	206.49	12.435390	-57.237523	206.61	0.810	-1.250	1.400	206.49	-2.70	1.90	 	 	 	 	 	 	 	 	 	 	 	 	 	 	 	 	 	 	1581507830	8.31	15.39
12/02/2020 11:43:51	120220	12022020	114351	206.41	12.435358	-57.237540	206.51	0.890	-1.310	1.250	206.41	-2.50	1.70	 	 	 	 	 	 	 	 	 	 	 	 	 	 	 	 	 	 	1581507831	7.97	14.76
12/02/2020 11:43:52	120220	12022020	114352	206.27	12.435328	-57.237557	206.37	0.490	-0.860	1.190	206.27	-2.00	1.70	 	 	 	 	 	 	 	 	 	 	 	 	 	 	 	 	 	 	1581507832	7.27	13.46
12/02/2020 11:43:53	120220	12022020	114353	206.17	12.435298	-57.237572	206.27	-0.010	-0.410	1.150	206.17	-1.60	1.60	 	 	 	 	 	 	 	 	 	 	 	 	 	 	 	 	 	 	1581507833	7.08	13.11
12/02/2020 11:43:54	120220	12022020	114354	206.32	12.435268	-57.237588	206.44	-0.430	-0.090	1.160	206.32	-1.40	1.70	 	 	 	 	 	 	 	 	 	 	 	 	 	 	 	 	 	 	1581507834	7.35	13.61
12/02/2020 11:43:55	120220	12022020	114355	206.50	12.435238	-57.237608	206.61	-0.670	0.030	1.370	206.50	-1.30	2.00	 	 	 	 	 	 	 	 	 	 	 	 	 	 	 	 	 	 	1581507835	7.60	14.08
12/02/2020 11:43:56	120220	12022020	114356	206.41	12.435210	-57.237630	206.52	-0.630	-0.040	1.740	206.41	-1.40	2.40	 	 	 	 	 	 	 	 	 	 	 	 	 	 	 	 	 	 	1581507836	7.89	14.61
12/02/2020 11:43:57	120220	12022020	114357	206.04	12.435178	-57.237653	206.16	-0.260	-0.180	2.180	206.04	-1.50	2.80	 	 	 	 	 	 	 	 	 	 	 	 	 	 	 	 	 	 	1581507837	8.14	15.08
12/02/2020 11:43:58	120220	12022020	114358	205.73	12.435148	-57.237675	205.86	0.200	-0.030	2.340	205.73	-1.20	2.80	 	 	 	 	 	 	 	 	 	 	 	 	 	 	 	 	 	 	1581507838	8.15	15.09
12/02/2020 11:43:59	120220	12022020	114359	205.78	12.435117	-57.237692	205.92	0.360	0.480	2.070	205.78	-0.70	2.40	 	 	 	 	 	 	 	 	 	 	 	 	 	 	 	 	 	 	1581507839	7.63	14.13
12/02/2020 11:44:00	120220	12022020	114400	206.07	12.435087	-57.237707	206.21	0.120	0.780	1.680	206.07	-0.60	2.10	 	 	 	 	 	 	 	 	 	 	 	 	 	 	 	 	 	 	1581507840	7.03	13.02
12/02/2020 11:44:01	120220	12022020	114401	206.30	12.435058	-57.237723	206.42	-0.130	0.330	1.400	206.30	-1.30	1.90	1016.10	26.30	26.40	21.20	21.30	133.0	73.0	73.0	414.0	26.9	248.00	8.30	73.00	10.40	13643	8766.0	27.5	27.5	1581507841	7.10	13.15
12/02/2020 11:44:02	120220	12022020	114402	206.29	12.435027	-57.237742	206.40	0.020	-0.640	1.340	206.29	-2.30	1.90	 	 	 	 	 	 	 	 	 	 	 	 	 	 	 	 	 	 	1581507842	7.73	14.32
12/02/2020 11:44:03	120220	12022020	114403	206.06	12.434995	-57.237762	206.18	0.400	-1.510	1.500	206.06	-3.00	2.10	 	 	 	 	 	 	 	 	 	 	 	 	 	 	 	 	 	 	1581507843	8.17	15.13
12/02/2020 11:44:04	120220	12022020	114404	205.59	12.434963	-57.237782	205.71	0.600	-1.930	1.930	205.59	-3.30	2.60	 	 	 	 	 	 	 	 	 	 	 	 	 	 	 	 	 	 	1581507844	8.10	15.00
12/02/2020 11:44:05	120220	12022020	114405	205.04	12.434932	-57.237802	205.18	0.400	-1.730	2.420	205.04	-2.80	3.00	 	 	 	 	 	 	 	 	 	 	 	 	 	 	 	 	 	 	1581507845	7.99	14.80
12/02/2020 11:44:06	120220	12022020	114406	204.75	12.434902	-57.237823	204.90	-0.090	-0.770	2.730	204.75	-1.60	3.20	 	 	 	 	 	 	 	 	 	 	 	 	 	 	 	 	 	 	1581507846	7.74	14.33
12/02/2020 11:44:07	120220	12022020	114407	204.89	12.434875	-57.237843	205.04	-0.590	0.660	2.620	204.89	-0.30	3.00	 	 	 	 	 	 	 	 	 	 	 	 	 	 	 	 	 	 	1581507847	7.19	13.32
12/02/2020 11:44:08	120220	12022020	114408	205.12	12.434848	-57.237860	205.27	-0.710	1.440	2.280	205.12	0.10	2.70	 	 	 	 	 	 	 	 	 	 	 	 	 	 	 	 	 	 	1581507848	6.81	12.61
12/02/2020 11:44:09	120220	12022020	114409	205.15	12.434818	-57.237878	205.27	-0.360	0.990	2.070	205.13	-0.60	2.50	 	 	 	 	 	 	 	 	 	 	 	 	 	 	 	 	 	 	1581507849	7.56	14.00
12/02/2020 11:44:10	120220	12022020	114410	205.14	12.434782	-57.237897	205.29	0.150	0.140	1.860	205.14	-1.40	2.30	 	 	 	 	 	 	 	 	 	 	 	 	 	 	 	 	 	 	1581507850	8.65	16.02
12/02/2020 11:44:11	120220	12022020	114411	205.42	12.434747	-57.237915	205.56	0.350	-0.190	1.530	205.42	-1.50	1.90	 	 	 	 	 	 	 	 	 	 	 	 	 	 	 	 	 	 	1581507851	8.53	15.80
12/02/2020 11:44:12	120220	12022020	114412	205.84	12.434715	-57.237930	205.97	0.150	-0.210	1.330	205.84	-1.60	1.80	 	 	 	 	 	 	 	 	 	 	 	 	 	 	 	 	 	 	1581507852	7.54	13.96
12/02/2020 11:44:13	120220	12022020	114413	206.12	12.434687	-57.237947	206.25	-0.100	-0.450	1.480	206.12	-1.90	2.10	 	 	 	 	 	 	 	 	 	 	 	 	 	 	 	 	 	 	1581507853	7.11	13.17
12/02/2020 11:44:14	120220	12022020	114414	206.11	12.434657	-57.237967	206.24	-0.050	-0.940	1.900	206.11	-2.40	2.50	 	 	 	 	 	 	 	 	 	 	 	 	 	 	 	 	 	 	1581507854	7.41	13.72
12/02/2020 11:44:15	120220	12022020	114415	205.82	12.434627	-57.237987	205.96	0.210	-1.310	2.270	205.82	-2.70	2.80	 	 	 	 	 	 	 	 	 	 	 	 	 	 	 	 	 	 	1581507855	7.84	14.52
12/02/2020 11:44:16	120220	12022020	114416	205.35	12.434597	-57.238007	205.49	0.400	-1.260	2.490	205.35	-2.50	3.00	 	 	 	 	 	 	 	 	 	 	 	 	 	 	 	 	 	 	1581507856	7.88	14.59
12/02/2020 11:44:17	120220	12022020	114417	204.95	12.434565	-57.238025	205.09	0.340	-0.770	2.440	204.95	-1.90	2.80	 	 	 	 	 	 	 	 	 	 	 	 	 	 	 	 	 	 	1581507857	7.73	14.32
12/02/2020 11:44:18	120220	12022020	114418	204.93	12.434533	-57.238042	205.08	0.030	-0.000	2.070	204.93	-1.10	2.40	 	 	 	 	 	 	 	 	 	 	 	 	 	 	 	 	 	 	1581507858	7.47	13.83
12/02/2020 11:44:19	120220	12022020	114419	205.19	12.434503	-57.238055	205.32	-0.380	0.610	1.770	205.19	-0.60	2.20	 	 	 	 	 	 	 	 	 	 	 	 	 	 	 	 	 	 	1581507859	7.27	13.46
12/02/2020 11:44:20	120220	12022020	114420	205.30	12.434473	-57.238073	205.42	-0.660	0.690	1.830	205.30	-0.70	2.40	 	 	 	 	 	 	 	 	 	 	 	 	 	 	 	 	 	 	1581507860	7.43	13.76
12/02/2020 11:44:21	120220	12022020	114421	205.14	12.434443	-57.238095	205.28	-0.580	0.310	2.100	205.14	-1.20	2.70	 	 	 	 	 	 	 	 	 	 	 	 	 	 	 	 	 	 	1581507861	7.96	14.74
12/02/2020 11:44:22	120220	12022020	114422	204.97	12.434412	-57.238117	205.12	-0.180	-0.010	2.220	204.97	-1.40	2.70	 	 	 	 	 	 	 	 	 	 	 	 	 	 	 	 	 	 	1581507862	8.29	15.35
12/02/2020 11:44:23	120220	12022020	114423	205.17	12.434382	-57.238138	205.31	0.260	0.050	1.860	205.17	-1.20	2.10	 	 	 	 	 	 	 	 	 	 	 	 	 	 	 	 	 	 	1581507863	7.92	14.67
12/02/2020 11:44:24	120220	12022020	114424	205.80	12.434352	-57.238155	205.92	0.500	0.230	1.130	205.80	-1.10	1.40	 	 	 	 	 	 	 	 	 	 	 	 	 	 	 	 	 	 	1581507864	7.23	13.39
12/02/2020 11:44:25	120220	12022020	114425	206.50	12.434322	-57.238168	206.61	0.490	0.060	0.440	206.50	-1.50	0.80	 	 	 	 	 	 	 	 	 	 	 	 	 	 	 	 	 	 	1581507865	6.95	12.87
12/02/2020 11:44:26	120220	12022020	114426	206.93	12.434292	-57.238182	207.02	0.440	-0.680	0.170	206.93	-2.30	0.70	 	 	 	 	 	 	 	 	 	 	 	 	 	 	 	 	 	 	1581507866	7.26	13.45
12/02/2020 11:44:27	120220	12022020	114427	206.85	12.434258	-57.238197	206.94	0.430	-1.720	0.610	206.85	-3.30	1.40	 	 	 	 	 	 	 	 	 	 	 	 	 	 	 	 	 	 	1581507867	7.89	14.61
12/02/2020 11:44:28	120220	12022020	114428	206.15	12.434223	-57.238217	206.27	0.350	-2.380	1.620	206.15	-3.70	2.50	 	 	 	 	 	 	 	 	 	 	 	 	 	 	 	 	 	 	1581507868	8.38	15.52
12/02/2020 11:44:29	120220	12022020	114429	205.19	12.434192	-57.238240	205.33	0.020	-1.980	2.610	205.19	-2.90	3.30	 	 	 	 	 	 	 	 	 	 	 	 	 	 	 	 	 	 	1581507869	8.35	15.46
12/02/2020 11:44:30	120220	12022020	114430	204.61	12.434163	-57.238262	204.76	-0.550	-0.520	3.050	204.61	-1.30	3.50	 	 	 	 	 	 	 	 	 	 	 	 	 	 	 	 	 	 	1581507870	7.70	14.26
12/02/2020 11:44:31	120220	12022020	114431	204.68	12.434138	-57.238282	204.84	-1.040	1.130	2.940	204.68	0.20	3.30	 	 	 	 	 	 	 	 	 	 	 	 	 	 	 	 	 	 	1581507871	6.90	12.78
12/02/2020 11:44:32	120220	12022020	114432	205.06	12.434112	-57.238300	205.21	-1.050	1.780	2.600	205.06	0.30	3.00	 	 	 	 	 	 	 	 	 	 	 	 	 	 	 	 	 	 	1581507872	6.86	12.70
12/02/2020 11:44:33	120220	12022020	114433	205.33	12.434082	-57.238320	205.53	-0.560	1.150	2.300	205.39	-0.50	2.70	 	 	 	 	 	 	 	 	 	 	 	 	 	 	 	 	 	 	1581507873	7.83	14.50
12/02/2020 11:44:34	120220	12022020	114434	205.62	12.434047	-57.238342	205.77	0.080	0.120	2.190	205.62	-1.50	2.70	 	 	 	 	 	 	 	 	 	 	 	 	 	 	 	 	 	 	1581507874	8.76	16.22
12/02/2020 11:44:35	120220	12022020	114435	205.81	12.434012	-57.238363	205.95	0.510	-0.320	2.020	205.81	-1.60	2.40	 	 	 	 	 	 	 	 	 	 	 	 	 	 	 	 	 	 	1581507875	8.61	15.95
12/02/2020 11:44:36	120220	12022020	114436	206.03	12.433982	-57.238380	206.16	0.630	-0.060	1.530	206.03	-1.30	1.80	 	 	 	 	 	 	 	 	 	 	 	 	 	 	 	 	 	 	1581507876	7.55	13.98
12/02/2020 11:44:37	120220	12022020	114437	206.41	12.433953	-57.238393	206.53	0.510	0.180	0.800	206.41	-1.20	1.10	 	 	 	 	 	 	 	 	 	 	 	 	 	 	 	 	 	 	1581507877	6.73	12.46
12/02/2020 11:44:38	120220	12022020	114438	206.79	12.433923	-57.238405	206.89	0.390	-0.250	0.300	206.79	-1.90	0.80	 	 	 	 	 	 	 	 	 	 	 	 	 	 	 	 	 	 	1581507878	6.76	12.52
12/02/2020 11:44:39	120220	12022020	114439	206.78	12.433893	-57.238422	206.85	0.450	-1.270	0.460	206.78	-2.90	1.10	 	 	 	 	 	 	 	 	 	 	 	 	 	 	 	 	 	 	1581507879	7.52	13.93
12/02/2020 11:44:40	120220	12022020	114440	206.34	12.433860	-57.238440	206.42	0.540	-2.090	1.130	206.34	-3.50	1.90	 	 	 	 	 	 	 	 	 	 	 	 	 	 	 	 	 	 	1581507880	8.22	15.22
12/02/2020 11:44:41	120220	12022020	114441	205.73	12.433827	-57.238462	205.82	0.350	-2.060	2.070	205.73	-3.20	2.90	 	 	 	 	 	 	 	 	 	 	 	 	 	 	 	 	 	 	1581507881	8.19	15.17
12/02/2020 11:44:42	120220	12022020	114442	205.04	12.433798	-57.238483	205.15	-0.150	-1.270	2.990	205.04	-2.20	3.70	 	 	 	 	 	 	 	 	 	 	 	 	 	 	 	 	 	 	1581507882	7.75	14.35
12/02/2020 11:44:43	120220	12022020	114443	204.46	12.433770	-57.238505	204.60	-0.650	-0.130	3.590	204.46	-1.10	4.20	 	 	 	 	 	 	 	 	 	 	 	 	 	 	 	 	 	 	1581507883	7.55	13.98
12/02/2020 11:44:44	120220	12022020	114444	204.29	12.433743	-57.238527	204.44	-0.910	0.920	3.620	204.29	-0.10	4.00	 	 	 	 	 	 	 	 	 	 	 	 	 	 	 	 	 	 	1581507884	7.54	13.96
12/02/2020 11:44:45	120220	12022020	114445	204.76	12.433713	-57.238547	204.90	-0.900	1.550	3.040	204.76	0.30	3.30	 	 	 	 	 	 	 	 	 	 	 	 	 	 	 	 	 	 	1581507885	7.55	13.98
12/02/2020 11:44:46	120220	12022020	114446	205.55	12.433683	-57.238565	205.68	-0.660	1.460	2.290	205.55	-0.00	2.60	 	 	 	 	 	 	 	 	 	 	 	 	 	 	 	 	 	 	1581507886	7.65	14.17
12/02/2020 11:44:47	120220	12022020	114447	206.14	12.433652	-57.238583	206.35	-0.200	0.760	1.580	206.25	-0.90	1.90	 	 	 	 	 	 	 	 	 	 	 	 	 	 	 	 	 	 	1581507887	7.93	14.69
12/02/2020 11:44:48	120220	12022020	114448	206.64	12.433618	-57.238602	206.73	0.420	-0.220	0.950	206.64	-1.90	1.30	 	 	 	 	 	 	 	 	 	 	 	 	 	 	 	 	 	 	1581507888	8.10	15.00
12/02/2020 11:44:49	120220	12022020	114449	206.73	12.433583	-57.238617	206.79	0.890	-1.050	0.600	206.73	-2.50	1.10	 	 	 	 	 	 	 	 	 	 	 	 	 	 	 	 	 	 	1581507889	8.10	15.00
12/02/2020 11:44:50	120220	12022020	114450	206.71	12.433550	-57.238632	206.78	0.850	-1.310	0.630	206.71	-2.60	1.20	 	 	 	 	 	 	 	 	 	 	 	 	 	 	 	 	 	 	1581507890	7.77	14.39
12/02/2020 11:44:51	120220	12022020	114451	206.51	12.433520	-57.238647	206.58	0.420	-1.170	1.060	206.51	-2.40	1.80	 	 	 	 	 	 	 	 	 	 	 	 	 	 	 	 	 	 	1581507891	7.18	13.30
12/02/2020 11:44:52	120220	12022020	114452	205.94	12.433493	-57.238665	206.01	0.010	-0.980	1.830	205.94	-2.20	2.60	 	 	 	 	 	 	 	 	 	 	 	 	 	 	 	 	 	 	1581507892	7.11	13.17
12/02/2020 11:44:53	120220	12022020	114453	205.39	12.433463	-57.238687	205.49	-0.190	-0.710	2.600	205.39	-1.90	3.30	 	 	 	 	 	 	 	 	 	 	 	 	 	 	 	 	 	 	1581507893	7.53	13.95
12/02/2020 11:44:54	120220	12022020	114454	205.34	12.433435	-57.238708	205.46	-0.250	-0.200	2.980	205.34	-1.30	3.50	 	 	 	 	 	 	 	 	 	 	 	 	 	 	 	 	 	 	1581507894	7.73	14.32
12/02/2020 11:44:55	120220	12022020	114455	205.76	12.433407	-57.238728	205.90	-0.310	0.390	2.950	205.76	-0.80	3.40	 	 	 	 	 	 	 	 	 	 	 	 	 	 	 	 	 	 	1581507895	7.52	13.93
12/02/2020 11:44:56	120220	12022020	114456	206.29	12.433380	-57.238750	206.43	-0.340	0.550	2.610	206.29	-0.90	2.90	 	 	 	 	 	 	 	 	 	 	 	 	 	 	 	 	 	 	1581507896	7.40	13.70
12/02/2020 11:44:57	120220	12022020	114457	206.65	12.433348	-57.238770	206.77	-0.160	0.180	2.100	206.65	-1.30	2.40	 	 	 	 	 	 	 	 	 	 	 	 	 	 	 	 	 	 	1581507897	7.77	14.39
12/02/2020 11:44:58	120220	12022020	114458	206.88	12.433317	-57.238788	206.99	0.200	-0.180	1.390	206.88	-1.60	1.70	 	 	 	 	 	 	 	 	 	 	 	 	 	 	 	 	 	 	1581507898	8.08	14.96
12/02/2020 11:44:59	120220	12022020	114459	206.99	12.433283	-57.238803	207.07	0.440	-0.380	0.840	206.99	-1.80	1.30	 	 	 	 	 	 	 	 	 	 	 	 	 	 	 	 	 	 	1581507899	7.86	14.56
12/02/2020 11:45:00	120220	12022020	114500	206.73	12.433250	-57.238817	206.79	0.310	-0.590	0.870	206.73	-2.00	1.50	 	 	 	 	 	 	 	 	 	 	 	 	 	 	 	 	 	 	1581507900	7.70	14.26
12/02/2020 11:45:01	120220	12022020	114501	206.20	12.433218	-57.238835	206.27	-0.150	-0.680	1.380	206.20	-1.90	2.10	1016.10	26.40	26.50	21.40	21.50	152.0	74.0	74.0	419.0	26.9	251.00	7.70	74.00	9.70	14127	8791.0	27.5	27.5	1581507901	7.75	14.35
12/02/2020 11:45:02	120220	12022020	114502	205.89	12.433190	-57.238857	205.96	-0.610	-0.340	1.780	205.89	-1.50	2.30	 	 	 	 	 	 	 	 	 	 	 	 	 	 	 	 	 	 	1581507902	7.75	14.35
12/02/2020 11:45:03	120220	12022020	114503	205.96	12.433163	-57.238878	206.04	-0.670	0.280	1.720	205.96	-0.90	2.10	 	 	 	 	 	 	 	 	 	 	 	 	 	 	 	 	 	 	1581507903	7.30	13.52
12/02/2020 11:45:04	120220	12022020	114504	206.14	12.433137	-57.238897	206.22	-0.210	0.410	1.460	206.14	-1.10	1.90	 	 	 	 	 	 	 	 	 	 	 	 	 	 	 	 	 	 	1581507904	6.93	12.83
12/02/2020 11:45:05	120220	12022020	114505	206.14	12.433107	-57.238915	206.22	0.500	-0.250	1.450	206.14	-1.80	2.00	 	 	 	 	 	 	 	 	 	 	 	 	 	 	 	 	 	 	1581507905	7.53	13.95
12/02/2020 11:45:06	120220	12022020	114506	206.07	12.433072	-57.238933	206.16	0.880	-0.910	1.730	206.07	-2.30	2.30	 	 	 	 	 	 	 	 	 	 	 	 	 	 	 	 	 	 	1581507906	8.31	15.39
12/02/2020 11:45:07	120220	12022020	114507	206.06	12.433040	-57.238953	206.16	0.660	-0.840	2.090	206.06	-2.00	2.70	 	 	 	 	 	 	 	 	 	 	 	 	 	 	 	 	 	 	1581507907	8.12	15.04
12/02/2020 11:45:08	120220	12022020	114508	206.09	12.433012	-57.238972	206.20	0.170	-0.240	2.300	206.09	-1.40	2.80	 	 	 	 	 	 	 	 	 	 	 	 	 	 	 	 	 	 	1581507908	7.33	13.58
12/02/2020 11:45:09	120220	12022020	114509	206.08	12.432983	-57.238990	206.19	-0.120	0.130	2.320	206.08	-1.20	2.80	 	 	 	 	 	 	 	 	 	 	 	 	 	 	 	 	 	 	1581507909	6.94	12.85
12/02/2020 11:45:10	120220	12022020	114510	205.85	12.432953	-57.239007	205.96	-0.110	-0.160	2.320	205.85	-1.70	2.80	 	 	 	 	 	 	 	 	 	 	 	 	 	 	 	 	 	 	1581507910	7.36	13.63
12/02/2020 11:45:11	120220	12022020	114511	205.40	12.432920	-57.239025	205.51	-0.120	-0.780	2.440	205.40	-2.20	3.00	 	 	 	 	 	 	 	 	 	 	 	 	 	 	 	 	 	 	1581507911	8.16	15.11
12/02/2020 11:45:12	120220	12022020	114512	204.90	12.432887	-57.239047	205.03	-0.470	-1.130	2.880	204.90	-2.40	3.60	 	 	 	 	 	 	 	 	 	 	 	 	 	 	 	 	 	 	1581507912	8.52	15.78
12/02/2020 11:45:13	120220	12022020	114513	204.65	12.432857	-57.239072	204.81	-0.950	-0.780	3.410	204.65	-1.80	4.00	 	 	 	 	 	 	 	 	 	 	 	 	 	 	 	 	 	 	1581507913	8.40	15.56
12/02/2020 11:45:14	120220	12022020	114514	204.98	12.432830	-57.239098	205.14	-1.060	0.300	3.270	204.98	-0.60	3.50	 	 	 	 	 	 	 	 	 	 	 	 	 	 	 	 	 	 	1581507914	7.85	14.54
12/02/2020 11:45:15	120220	12022020	114515	205.68	12.432807	-57.239118	205.82	-0.410	1.220	2.240	205.68	0.00	2.30	 	 	 	 	 	 	 	 	 	 	 	 	 	 	 	 	 	 	1581507915	6.85	12.69
12/02/2020 11:45:16	120220	12022020	114516	206.41	12.432777	-57.239132	206.53	0.710	1.120	0.860	206.41	-0.40	1.00	 	 	 	 	 	 	 	 	 	 	 	 	 	 	 	 	 	 	1581507916	6.87	12.72
12/02/2020 11:45:17	120220	12022020	114517	207.03	12.432742	-57.239142	207.12	1.460	0.220	-0.180	207.03	-1.50	0.20	 	 	 	 	 	 	 	 	 	 	 	 	 	 	 	 	 	 	1581507917	7.96	14.74
12/02/2020 11:45:18	120220	12022020	114518	207.12	12.432703	-57.239152	207.19	1.380	-0.930	-0.150	207.12	-2.60	0.60	 	 	 	 	 	 	 	 	 	 	 	 	 	 	 	 	 	 	1581507918	8.35	15.46
12/02/2020 11:45:19	120220	12022020	114519	206.37	12.432668	-57.239168	206.45	0.680	-1.790	1.110	206.37	-3.20	2.20	 	 	 	 	 	 	 	 	 	 	 	 	 	 	 	 	 	 	1581507919	8.18	15.15
12/02/2020 11:45:20	120220	12022020	114520	205.23	12.432640	-57.239192	205.35	-0.120	-1.810	2.900	205.23	-2.90	3.90	 	 	 	 	 	 	 	 	 	 	 	 	 	 	 	 	 	 	1581507920	8.13	15.06
12/02/2020 11:45:21	120220	12022020	114521	204.61	12.432615	-57.239220	204.79	-0.700	-0.990	4.080	204.61	-1.90	4.70	 	 	 	 	 	 	 	 	 	 	 	 	 	 	 	 	 	 	1581507921	7.97	14.76
12/02/2020 11:45:22	120220	12022020	114522	204.64	12.432592	-57.239247	204.84	-0.900	0.070	4.290	204.64	-1.00	4.60	 	 	 	 	 	 	 	 	 	 	 	 	 	 	 	 	 	 	1581507922	7.48	13.85
12/02/2020 11:45:23	120220	12022020	114523	204.89	12.432567	-57.239268	205.14	-0.680	0.570	3.650	204.97	-0.80	3.80	 	 	 	 	 	 	 	 	 	 	 	 	 	 	 	 	 	 	1581507923	7.18	13.30
12/02/2020 11:45:24	120220	12022020	114524	205.43	12.432535	-57.239287	205.59	-0.310	0.280	2.500	205.43	-1.20	2.60	 	 	 	 	 	 	 	 	 	 	 	 	 	 	 	 	 	 	1581507924	7.63	14.13
12/02/2020 11:45:25	120220	12022020	114525	206.05	12.432500	-57.239302	206.18	-0.090	-0.230	1.420	206.05	-1.70	1.60	 	 	 	 	 	 	 	 	 	 	 	 	 	 	 	 	 	 	1581507925	8.23	15.24
12/02/2020 11:45:26	120220	12022020	114526	206.57	12.432465	-57.239317	206.67	-0.060	-0.430	0.700	206.57	-1.70	1.10	 	 	 	 	 	 	 	 	 	 	 	 	 	 	 	 	 	 	1581507926	8.14	15.08
12/02/2020 11:45:27	120220	12022020	114527	206.75	12.432433	-57.239332	206.84	0.010	-0.340	0.420	206.75	-1.60	0.90	 	 	 	 	 	 	 	 	 	 	 	 	 	 	 	 	 	 	1581507927	7.60	14.08
12/02/2020 11:45:28	120220	12022020	114528	206.65	12.432403	-57.239348	206.72	0.180	-0.210	0.550	206.65	-1.50	1.20	 	 	 	 	 	 	 	 	 	 	 	 	 	 	 	 	 	 	1581507928	7.33	13.58
12/02/2020 11:45:29	120220	12022020	114529	206.38	12.432373	-57.239365	206.46	0.310	-0.170	0.960	206.38	-1.40	1.60	 	 	 	 	 	 	 	 	 	 	 	 	 	 	 	 	 	 	1581507929	7.41	13.72
12/02/2020 11:45:30	120220	12022020	114530	206.23	12.432343	-57.239383	206.32	0.290	0.000	1.450	206.23	-1.20	2.10	 	 	 	 	 	 	 	 	 	 	 	 	 	 	 	 	 	 	1581507930	7.56	14.00
12/02/2020 11:45:31	120220	12022020	114531	206.29	12.432315	-57.239403	206.40	0.250	0.280	1.770	206.29	-1.00	2.30	 	 	 	 	 	 	 	 	 	 	 	 	 	 	 	 	 	 	1581507931	7.37	13.65
12/02/2020 11:45:32	120220	12022020	114532	206.42	12.432287	-57.239422	206.54	0.250	0.190	1.900	206.42	-1.30	2.40	 	 	 	 	 	 	 	 	 	 	 	 	 	 	 	 	 	 	1581507932	7.22	13.37
12/02/2020 11:45:33	120220	12022020	114533	206.46	12.432257	-57.239440	206.57	0.210	-0.400	2.120	206.46	-1.90	2.80	 	 	 	 	 	 	 	 	 	 	 	 	 	 	 	 	 	 	1581507933	7.61	14.09
12/02/2020 11:45:34	120220	12022020	114534	206.19	12.432225	-57.239462	206.31	0.090	-1.100	2.610	206.19	-2.60	3.30	 	 	 	 	 	 	 	 	 	 	 	 	 	 	 	 	 	 	1581507934	8.11	15.02
12/02/2020 11:45:35	120220	12022020	114535	205.68	12.432193	-57.239485	205.81	-0.050	-1.410	3.100	205.68	-2.70	3.70	 	 	 	 	 	 	 	 	 	 	 	 	 	 	 	 	 	 	1581507935	8.28	15.33
12/02/2020 11:45:36	120220	12022020	114536	205.14	12.432163	-57.239507	205.27	-0.260	-1.080	3.340	205.14	-2.10	3.80	 	 	 	 	 	 	 	 	 	 	 	 	 	 	 	 	 	 	1581507936	8.01	14.83
12/02/2020 11:45:37	120220	12022020	114537	204.95	12.432135	-57.239527	205.08	-0.520	-0.220	3.150	204.95	-1.20	3.50	 	 	 	 	 	 	 	 	 	 	 	 	 	 	 	 	 	 	1581507937	7.49	13.87
12/02/2020 11:45:38	120220	12022020	114538	205.18	12.432108	-57.239547	205.30	-0.670	0.670	2.540	205.18	-0.50	2.80	 	 	 	 	 	 	 	 	 	 	 	 	 	 	 	 	 	 	1581507938	6.99	12.95
12/02/2020 11:45:39	120220	12022020	114539	205.56	12.432082	-57.239563	205.66	-0.440	0.940	1.650	205.56	-0.50	1.80	 	 	 	 	 	 	 	 	 	 	 	 	 	 	 	 	 	 	1581507939	6.96	12.89
12/02/2020 11:45:40	120220	12022020	114540	206.00	12.432050	-57.239578	206.09	0.160	0.540	0.650	206.00	-1.00	0.90	 	 	 	 	 	 	 	 	 	 	 	 	 	 	 	 	 	 	1581507940	7.54	13.96
12/02/2020 11:45:41	120220	12022020	114541	206.42	12.432015	-57.239592	206.50	0.740	-0.060	-0.050	206.42	-1.60	0.40	 	 	 	 	 	 	 	 	 	 	 	 	 	 	 	 	 	 	1581507941	8.02	14.85
12/02/2020 11:45:42	120220	12022020	114542	206.61	12.431980	-57.239605	206.67	0.930	-0.590	0.020	206.61	-2.00	0.70	 	 	 	 	 	 	 	 	 	 	 	 	 	 	 	 	 	 	1581507942	7.96	14.74
12/02/2020 11:45:43	120220	12022020	114543	206.40	12.431947	-57.239620	206.46	0.680	-0.980	0.890	206.40	-2.40	1.80	 	 	 	 	 	 	 	 	 	 	 	 	 	 	 	 	 	 	1581507943	7.72	14.30
12/02/2020 11:45:44	120220	12022020	114544	205.82	12.431917	-57.239642	205.91	0.200	-1.220	2.250	205.82	-2.50	3.20	 	 	 	 	 	 	 	 	 	 	 	 	 	 	 	 	 	 	1581507944	7.72	14.30
12/02/2020 11:45:45	120220	12022020	114545	205.21	12.431888	-57.239665	205.33	-0.290	-1.130	3.470	205.21	-2.30	4.20	 	 	 	 	 	 	 	 	 	 	 	 	 	 	 	 	 	 	1581507945	7.98	14.78
12/02/2020 11:45:46	120220	12022020	114546	204.81	12.431862	-57.239690	204.96	-0.650	-0.670	4.110	204.81	-1.80	4.60	 	 	 	 	 	 	 	 	 	 	 	 	 	 	 	 	 	 	1581507946	7.96	14.74
12/02/2020 11:45:47	120220	12022020	114547	204.55	12.431833	-57.239713	204.71	-0.700	-0.170	4.040	204.55	-1.30	4.30	 	 	 	 	 	 	 	 	 	 	 	 	 	 	 	 	 	 	1581507947	7.74	14.33
12/02/2020 11:45:48	120220	12022020	114548	204.54	12.431803	-57.239733	204.71	-0.470	0.170	3.240	204.54	-1.00	3.40	 	 	 	 	 	 	 	 	 	 	 	 	 	 	 	 	 	 	1581507948	7.69	14.24
12/02/2020 11:45:49	120220	12022020	114549	204.86	12.431772	-57.239748	205.11	-0.300	0.410	2.050	204.96	-0.90	2.20	 	 	 	 	 	 	 	 	 	 	 	 	 	 	 	 	 	 	1581507949	7.72	14.30
12/02/2020 11:45:50	120220	12022020	114550	205.44	12.431738	-57.239762	205.55	-0.320	0.400	1.120	205.44	-1.00	1.50	 	 	 	 	 	 	 	 	 	 	 	 	 	 	 	 	 	 	1581507950	7.63	14.13
12/02/2020 11:45:51	120220	12022020	114551	205.58	12.431705	-57.239777	205.66	-0.330	0.080	0.890	205.58	-1.40	1.40	 	 	 	 	 	 	 	 	 	 	 	 	 	 	 	 	 	 	1581507951	7.69	14.24
12/02/2020 11:45:52	120220	12022020	114552	205.50	12.431675	-57.239797	205.58	-0.060	-0.230	1.040	205.50	-1.60	1.60	 	 	 	 	 	 	 	 	 	 	 	 	 	 	 	 	 	 	1581507952	7.89	14.61
12/02/2020 11:45:53	120220	12022020	114553	205.57	12.431643	-57.239815	205.64	0.430	-0.180	1.030	205.57	-1.40	1.50	 	 	 	 	 	 	 	 	 	 	 	 	 	 	 	 	 	 	1581507953	7.75	14.35
12/02/2020 11:45:54	120220	12022020	114554	205.79	12.431613	-57.239832	205.85	0.800	0.040	0.920	205.79	-1.30	1.40	 	 	 	 	 	 	 	 	 	 	 	 	 	 	 	 	 	 	1581507954	7.25	13.43
12/02/2020 11:45:55	120220	12022020	114555	205.81	12.431583	-57.239845	205.87	0.900	-0.100	0.930	205.81	-1.60	1.50	 	 	 	 	 	 	 	 	 	 	 	 	 	 	 	 	 	 	1581507955	7.08	13.11
12/02/2020 11:45:56	120220	12022020	114556	205.65	12.431552	-57.239862	205.70	0.680	-0.610	1.210	205.65	-2.10	1.90	 	 	 	 	 	 	 	 	 	 	 	 	 	 	 	 	 	 	1581507956	7.58	14.04
12/02/2020 11:45:57	120220	12022020	114557	205.63	12.431520	-57.239878	205.70	0.270	-0.890	1.690	205.63	-2.20	2.40	 	 	 	 	 	 	 	 	 	 	 	 	 	 	 	 	 	 	1581507957	7.91	14.65
12/02/2020 11:45:58	120220	12022020	114558	205.60	12.431490	-57.239898	205.67	-0.180	-0.810	2.340	205.60	-2.10	3.00	 	 	 	 	 	 	 	 	 	 	 	 	 	 	 	 	 	 	1581507958	7.67	14.20
12/02/2020 11:45:59	120220	12022020	114559	205.46	12.431462	-57.239920	205.56	-0.530	-0.640	2.960	205.46	-1.90	3.60	 	 	 	 	 	 	 	 	 	 	 	 	 	 	 	 	 	 	1581507959	7.55	13.98
12/02/2020 11:46:00	120220	12022020	114600	205.25	12.431433	-57.239943	205.35	-0.660	-0.600	3.300	205.25	-1.90	3.80	 	 	 	 	 	 	 	 	 	 	 	 	 	 	 	 	 	 	1581507960	7.75	14.35
12/02/2020 11:46:01	120220	12022020	114601	204.90	12.431403	-57.239965	205.01	-0.490	-0.690	3.240	204.90	-2.00	3.60	1016.10	26.40	26.40	21.30	21.40	177.0	73.0	73.0	421.0	26.9	253.00	9.00	79.00	10.90	14860	8525.0	27.6	27.6	1581507961	8.02	14.85
12/02/2020 11:46:02	120220	12022020	114602	204.63	12.431372	-57.239987	204.74	-0.180	-0.560	2.810	204.63	-1.70	3.10	 	 	 	 	 	 	 	 	 	 	 	 	 	 	 	 	 	 	1581507962	8.18	15.15
12/02/2020 11:46:03	120220	12022020	114603	204.68	12.431338	-57.240003	204.79	-0.060	-0.020	2.100	204.68	-1.10	2.40	 	 	 	 	 	 	 	 	 	 	 	 	 	 	 	 	 	 	1581507963	7.89	14.61
12/02/2020 11:46:04	120220	12022020	114604	205.14	12.431307	-57.240017	205.25	-0.270	0.580	1.460	205.14	-0.60	1.80	 	 	 	 	 	 	 	 	 	 	 	 	 	 	 	 	 	 	1581507964	7.40	13.70
12/02/2020 11:46:05	120220	12022020	114605	205.73	12.431277	-57.240030	205.82	-0.540	0.720	1.170	205.73	-0.70	1.70	 	 	 	 	 	 	 	 	 	 	 	 	 	 	 	 	 	 	1581507965	7.26	13.45
12/02/2020 11:46:06	120220	12022020	114606	206.04	12.431245	-57.240048	206.12	-0.410	0.270	1.240	206.04	-1.20	1.80	 	 	 	 	 	 	 	 	 	 	 	 	 	 	 	 	 	 	1581507966	7.65	14.17
12/02/2020 11:46:07	120220	12022020	114607	206.02	12.431213	-57.240070	206.11	0.210	-0.270	1.450	206.02	-1.70	2.00	 	 	 	 	 	 	 	 	 	 	 	 	 	 	 	 	 	 	1581507967	8.15	15.09
12/02/2020 11:46:08	120220	12022020	114608	205.97	12.431182	-57.240088	206.07	0.880	-0.430	1.510	205.97	-1.70	2.00	 	 	 	 	 	 	 	 	 	 	 	 	 	 	 	 	 	 	1581507968	8.05	14.91
12/02/2020 11:46:09	120220	12022020	114609	205.84	12.431150	-57.240105	205.93	1.110	-0.340	1.500	205.84	-1.60	2.10	 	 	 	 	 	 	 	 	 	 	 	 	 	 	 	 	 	 	1581507969	7.52	13.93
12/02/2020 11:46:10	120220	12022020	114610	205.46	12.431118	-57.240118	205.55	0.760	-0.390	1.780	205.46	-1.80	2.40	 	 	 	 	 	 	 	 	 	 	 	 	 	 	 	 	 	 	1581507970	7.34	13.59
12/02/2020 11:46:11	120220	12022020	114611	205.14	12.431087	-57.240135	205.25	0.020	-0.570	2.220	205.14	-1.90	2.80	 	 	 	 	 	 	 	 	 	 	 	 	 	 	 	 	 	 	1581507971	7.61	14.09
12/02/2020 11:46:12	120220	12022020	114612	205.16	12.431057	-57.240157	205.28	-0.690	-0.650	2.470	205.16	-1.90	3.00	 	 	 	 	 	 	 	 	 	 	 	 	 	 	 	 	 	 	1581507972	7.84	14.52
12/02/2020 11:46:13	120220	12022020	114613	205.41	12.431028	-57.240180	205.61	-0.970	-0.520	2.380	205.50	-1.80	2.80	 	 	 	 	 	 	 	 	 	 	 	 	 	 	 	 	 	 	1581507973	7.84	14.52
12/02/2020 11:46:14	120220	12022020	114614	206.01	12.431000	-57.240202	206.12	-0.780	-0.320	1.960	206.01	-1.60	2.30	 	 	 	 	 	 	 	 	 	 	 	 	 	 	 	 	 	 	1581507974	7.60	14.08
12/02/2020 11:46:15	120220	12022020	114615	206.39	12.430972	-57.240220	206.49	-0.320	-0.280	1.530	206.39	-1.60	1.90	 	 	 	 	 	 	 	 	 	 	 	 	 	 	 	 	 	 	1581507975	7.51	13.91
12/02/2020 11:46:16	120220	12022020	114616	206.31	12.430940	-57.240238	206.39	0.240	-0.490	1.380	206.31	-1.90	1.90	 	 	 	 	 	 	 	 	 	 	 	 	 	 	 	 	 	 	1581507976	7.74	14.33
12/02/2020 11:46:17	120220	12022020	114617	205.88	12.430907	-57.240257	205.97	0.660	-0.610	1.500	205.88	-1.90	2.10	 	 	 	 	 	 	 	 	 	 	 	 	 	 	 	 	 	 	1581507977	8.07	14.95
12/02/2020 11:46:18	120220	12022020	114618	205.46	12.430873	-57.240275	205.54	0.720	-0.330	1.610	205.46	-1.50	2.10	 	 	 	 	 	 	 	 	 	 	 	 	 	 	 	 	 	 	1581507978	8.02	14.85
12/02/2020 11:46:19	120220	12022020	114619	205.26	12.430842	-57.240290	205.36	0.440	0.220	1.600	205.26	-0.90	2.10	 	 	 	 	 	 	 	 	 	 	 	 	 	 	 	 	 	 	1581507979	7.63	14.13
12/02/2020 11:46:20	120220	12022020	114620	205.37	12.430812	-57.240307	205.48	-0.010	0.610	1.600	205.37	-0.70	2.10	 	 	 	 	 	 	 	 	 	 	 	 	 	 	 	 	 	 	1581507980	7.36	13.63
12/02/2020 11:46:21	120220	12022020	114621	205.57	12.430782	-57.240323	205.68	-0.400	0.410	1.850	205.57	-1.10	2.50	 	 	 	 	 	 	 	 	 	 	 	 	 	 	 	 	 	 	1581507981	7.53	13.95
12/02/2020 11:46:22	120220	12022020	114622	205.57	12.430750	-57.240345	205.68	-0.590	-0.250	2.360	205.57	-1.80	3.00	 	 	 	 	 	 	 	 	 	 	 	 	 	 	 	 	 	 	1581507982	8.11	15.02
12/02/2020 11:46:23	120220	12022020	114623	205.56	12.430718	-57.240368	205.68	-0.580	-0.780	2.760	205.56	-2.10	3.30	 	 	 	 	 	 	 	 	 	 	 	 	 	 	 	 	 	 	1581507983	8.52	15.78
12/02/2020 11:46:24	120220	12022020	114624	205.76	12.430687	-57.240392	205.89	-0.380	-0.800	2.690	205.76	-2.00	3.00	 	 	 	 	 	 	 	 	 	 	 	 	 	 	 	 	 	 	1581507984	8.23	15.24
12/02/2020 11:46:25	120220	12022020	114625	205.96	12.430658	-57.240413	206.08	0.010	-0.590	2.160	205.96	-1.80	2.40	 	 	 	 	 	 	 	 	 	 	 	 	 	 	 	 	 	 	1581507985	7.58	14.04
12/02/2020 11:46:26	120220	12022020	114626	206.05	12.430628	-57.240428	206.16	0.420	-0.390	1.480	206.05	-1.60	1.80	 	 	 	 	 	 	 	 	 	 	 	 	 	 	 	 	 	 	1581507986	7.43	13.76
12/02/2020 11:46:27	120220	12022020	114627	206.12	12.430597	-57.240443	206.20	0.560	-0.080	1.020	206.12	-1.30	1.50	 	 	 	 	 	 	 	 	 	 	 	 	 	 	 	 	 	 	1581507987	7.44	13.78
12/02/2020 11:46:28	120220	12022020	114628	206.06	12.430565	-57.240457	206.13	0.420	0.100	0.950	206.06	-1.20	1.50	 	 	 	 	 	 	 	 	 	 	 	 	 	 	 	 	 	 	1581507988	7.33	13.58
12/02/2020 11:46:29	120220	12022020	114629	205.83	12.430533	-57.240473	205.91	0.230	-0.050	1.190	205.83	-1.50	1.80	 	 	 	 	 	 	 	 	 	 	 	 	 	 	 	 	 	 	1581507989	7.53	13.95
12/02/2020 11:46:30	120220	12022020	114630	205.50	12.430502	-57.240493	205.61	0.190	-0.380	1.690	205.50	-1.80	2.40	 	 	 	 	 	 	 	 	 	 	 	 	 	 	 	 	 	 	1581507990	7.97	14.76
12/02/2020 11:46:31	120220	12022020	114631	205.20	12.430470	-57.240513	205.33	0.240	-0.580	2.270	205.20	-1.90	2.90	 	 	 	 	 	 	 	 	 	 	 	 	 	 	 	 	 	 	1581507991	8.20	15.19
12/02/2020 11:46:32	120220	12022020	114632	204.98	12.430438	-57.240533	205.10	0.100	-0.600	2.790	204.98	-1.90	3.40	 	 	 	 	 	 	 	 	 	 	 	 	 	 	 	 	 	 	1581507992	8.11	15.02
12/02/2020 11:46:33	120220	12022020	114633	204.75	12.430408	-57.240557	204.88	-0.250	-0.490	3.110	204.75	-1.70	3.60	 	 	 	 	 	 	 	 	 	 	 	 	 	 	 	 	 	 	1581507993	8.01	14.83
12/02/2020 11:46:34	120220	12022020	114634	204.65	12.430378	-57.240578	204.79	-0.590	-0.250	3.080	204.65	-1.40	3.40	 	 	 	 	 	 	 	 	 	 	 	 	 	 	 	 	 	 	1581507994	7.96	14.74
12/02/2020 11:46:35	120220	12022020	114635	204.94	12.430348	-57.240600	205.08	-0.680	0.130	2.530	204.94	-1.10	2.80	 	 	 	 	 	 	 	 	 	 	 	 	 	 	 	 	 	 	1581507995	7.70	14.26
12/02/2020 11:46:36	120220	12022020	114636	205.37	12.430318	-57.240617	205.49	-0.420	0.340	1.700	205.37	-1.00	1.90	 	 	 	 	 	 	 	 	 	 	 	 	 	 	 	 	 	 	1581507996	7.37	13.65
12/02/2020 11:46:37	120220	12022020	114637	205.75	12.430287	-57.240633	205.85	0.070	0.150	0.930	205.75	-1.30	1.20	 	 	 	 	 	 	 	 	 	 	 	 	 	 	 	 	 	 	1581507997	7.53	13.95
12/02/2020 11:46:38	120220	12022020	114638	206.01	12.430253	-57.240647	206.10	0.470	-0.190	0.520	206.01	-1.60	1.00	 	 	 	 	 	 	 	 	 	 	 	 	 	 	 	 	 	 	1581507998	7.87	14.58
12/02/2020 11:46:39	120220	12022020	114639	206.20	12.430220	-57.240662	206.33	0.510	-0.320	0.510	206.24	-1.60	1.10	 	 	 	 	 	 	 	 	 	 	 	 	 	 	 	 	 	 	1581507999	7.89	14.61
12/02/2020 11:46:40	120220	12022020	114640	206.36	12.430188	-57.240677	206.44	0.240	-0.280	1.010	206.36	-1.60	1.80	 	 	 	 	 	 	 	 	 	 	 	 	 	 	 	 	 	 	1581508000	7.47	13.83
12/02/2020 11:46:41	120220	12022020	114641	206.03	12.430160	-57.240695	206.13	0.030	-0.520	1.960	206.03	-2.00	2.80	 	 	 	 	 	 	 	 	 	 	 	 	 	 	 	 	 	 	1581508001	7.41	13.72
12/02/2020 11:46:42	120220	12022020	114642	205.27	12.430130	-57.240718	205.39	0.130	-1.070	3.030	205.27	-2.50	3.80	 	 	 	 	 	 	 	 	 	 	 	 	 	 	 	 	 	 	1581508002	8.03	14.87
12/02/2020 11:46:43	120220	12022020	114643	204.34	12.430098	-57.240743	204.48	0.350	-1.390	3.820	204.34	-2.60	4.40	 	 	 	 	 	 	 	 	 	 	 	 	 	 	 	 	 	 	1581508003	8.58	15.89
12/02/2020 11:46:44	120220	12022020	114644	203.77	12.430065	-57.240765	203.92	0.310	-1.010	3.820	203.77	-2.00	4.10	 	 	 	 	 	 	 	 	 	 	 	 	 	 	 	 	 	 	1581508004	8.43	15.61
12/02/2020 11:46:45	120220	12022020	114645	203.77	12.430035	-57.240783	203.91	-0.060	-0.120	3.180	203.77	-1.20	3.40	 	 	 	 	 	 	 	 	 	 	 	 	 	 	 	 	 	 	1581508005	7.68	14.22
12/02/2020 11:46:46	120220	12022020	114646	204.17	12.430005	-57.240798	204.29	-0.520	0.610	2.270	204.17	-0.60	2.50	 	 	 	 	 	 	 	 	 	 	 	 	 	 	 	 	 	 	1581508006	7.21	13.35
12/02/2020 11:46:47	120220	12022020	114647	204.84	12.429973	-57.240813	204.94	-0.830	0.810	1.460	204.84	-0.50	1.80	 	 	 	 	 	 	 	 	 	 	 	 	 	 	 	 	 	 	1581508007	7.40	13.70
12/02/2020 11:46:48	120220	12022020	114648	205.52	12.429942	-57.240830	205.61	-0.890	0.610	1.090	205.52	-0.80	1.60	 	 	 	 	 	 	 	 	 	 	 	 	 	 	 	 	 	 	1581508008	7.78	14.41
12/02/2020 11:46:49	120220	12022020	114649	205.99	12.429910	-57.240850	206.06	-0.650	0.310	1.110	205.99	-1.10	1.60	 	 	 	 	 	 	 	 	 	 	 	 	 	 	 	 	 	 	1581508009	7.98	14.78
12/02/2020 11:46:50	120220	12022020	114650	206.23	12.429880	-57.240872	206.30	-0.080	0.120	1.180	206.23	-1.20	1.70	 	 	 	 	 	 	 	 	 	 	 	 	 	 	 	 	 	 	1581508010	7.86	14.56
12/02/2020 11:46:51	120220	12022020	114651	206.23	12.429850	-57.240890	206.31	0.740	-0.010	1.030	206.23	-1.40	1.40	 	 	 	 	 	 	 	 	 	 	 	 	 	 	 	 	 	 	1581508011	7.52	13.93
12/02/2020 11:46:52	120220	12022020	114652	206.12	12.429818	-57.240903	206.18	1.380	-0.300	0.790	206.12	-1.80	1.20	 	 	 	 	 	 	 	 	 	 	 	 	 	 	 	 	 	 	1581508012	7.43	13.76
12/02/2020 11:46:53	120220	12022020	114653	206.05	12.429783	-57.240915	206.11	1.390	-0.720	0.710	206.05	-2.20	1.30	 	 	 	 	 	 	 	 	 	 	 	 	 	 	 	 	 	 	1581508013	7.65	14.17
12/02/2020 11:46:54	120220	12022020	114654	206.02	12.429750	-57.240928	206.07	0.750	-1.220	1.100	206.02	-2.70	1.90	 	 	 	 	 	 	 	 	 	 	 	 	 	 	 	 	 	 	1581508014	7.67	14.20
12/02/2020 11:46:55	120220	12022020	114655	205.75	12.429720	-57.240947	205.82	-0.060	-1.720	2.120	205.75	-3.20	3.00	 	 	 	 	 	 	 	 	 	 	 	 	 	 	 	 	 	 	1581508015	7.83	14.50
12/02/2020 11:46:56	120220	12022020	114656	205.13	12.429690	-57.240972	205.22	-0.580	-2.020	3.510	205.13	-3.30	4.40	 	 	 	 	 	 	 	 	 	 	 	 	 	 	 	 	 	 	1581508016	8.34	15.45
12/02/2020 11:46:57	120220	12022020	114657	204.31	12.429660	-57.241000	204.43	-0.770	-1.760	4.770	204.31	-2.90	5.50	 	 	 	 	 	 	 	 	 	 	 	 	 	 	 	 	 	 	1581508017	8.73	16.17
12/02/2020 11:46:58	120220	12022020	114658	203.61	12.429632	-57.241028	203.74	-0.830	-0.840	5.420	203.61	-1.70	5.90	 	 	 	 	 	 	 	 	 	 	 	 	 	 	 	 	 	 	1581508018	8.61	15.95
12/02/2020 11:46:59	120220	12022020	114659	203.35	12.429602	-57.241053	203.49	-0.900	0.540	5.270	203.35	-0.30	5.50	 	 	 	 	 	 	 	 	 	 	 	 	 	 	 	 	 	 	1581508019	8.13	15.06
12/02/2020 11:47:00	120220	12022020	114700	203.74	12.429573	-57.241073	203.88	-0.930	1.810	4.390	203.74	0.70	4.50	 	 	 	 	 	 	 	 	 	 	 	 	 	 	 	 	 	 	1581508020	7.54	13.96
12/02/2020 11:47:01	120220	12022020	114701	204.60	12.429543	-57.241090	204.72	-0.700	2.330	2.990	204.60	0.90	2.90	1016.10	26.40	26.40	20.50	20.80	213.0	70.0	71.0	422.0	26.9	252.00	10.50	79.00	12.30	16033	8674.0	27.6	27.5	1581508021	7.30	13.52
12/02/2020 11:47:02	120220	12022020	114702	205.70	12.429510	-57.241103	205.80	-0.110	1.900	1.270	205.70	0.30	1.20	 	 	 	 	 	 	 	 	 	 	 	 	 	 	 	 	 	 	1581508022	7.64	14.15
12/02/2020 11:47:03	120220	12022020	114703	206.60	12.429473	-57.241113	206.86	0.680	0.810	-0.190	206.80	-1.00	0.00	 	 	 	 	 	 	 	 	 	 	 	 	 	 	 	 	 	 	1581508023	8.05	14.91
12/02/2020 11:47:04	120220	12022020	114704	207.41	12.429438	-57.241125	207.46	1.330	-0.580	-0.770	207.41	-2.30	-0.20	 	 	 	 	 	 	 	 	 	 	 	 	 	 	 	 	 	 	1581508024	8.17	15.13
12/02/2020 11:47:05	120220	12022020	114705	207.42	12.429403	-57.241137	207.48	1.490	-1.730	-0.380	207.42	-3.30	0.40	 	 	 	 	 	 	 	 	 	 	 	 	 	 	 	 	 	 	1581508025	8.00	14.82
12/02/2020 11:47:06	120220	12022020	114706	206.95	12.429372	-57.241153	207.04	1.080	-2.310	0.830	206.95	-3.70	1.80	 	 	 	 	 	 	 	 	 	 	 	 	 	 	 	 	 	 	1581508026	7.56	14.00
12/02/2020 11:47:07	120220	12022020	114707	206.09	12.429343	-57.241175	206.21	0.400	-2.420	2.460	206.09	-3.70	3.40	 	 	 	 	 	 	 	 	 	 	 	 	 	 	 	 	 	 	1581508027	7.44	13.78
12/02/2020 11:47:08	120220	12022020	114708	205.21	12.429317	-57.241200	205.37	-0.180	-2.060	3.820	205.21	-3.10	4.60	 	 	 	 	 	 	 	 	 	 	 	 	 	 	 	 	 	 	1581508028	7.79	14.43
12/02/2020 11:47:09	120220	12022020	114709	204.63	12.429290	-57.241225	204.80	-0.500	-1.170	4.490	204.63	-2.10	5.00	 	 	 	 	 	 	 	 	 	 	 	 	 	 	 	 	 	 	1581508029	7.97	14.76
12/02/2020 11:47:10	120220	12022020	114710	204.50	12.429262	-57.241248	204.67	-0.700	0.060	4.410	204.50	-0.90	4.70	 	 	 	 	 	 	 	 	 	 	 	 	 	 	 	 	 	 	1581508030	7.78	14.41
12/02/2020 11:47:11	120220	12022020	114711	204.92	12.429233	-57.241268	205.08	-0.930	1.100	3.600	204.92	-0.00	3.80	 	 	 	 	 	 	 	 	 	 	 	 	 	 	 	 	 	 	1581508031	7.55	13.98
12/02/2020 11:47:12	120220	12022020	114712	205.60	12.429203	-57.241287	205.72	-1.110	1.490	2.590	205.60	0.10	2.80	 	 	 	 	 	 	 	 	 	 	 	 	 	 	 	 	 	 	1581508032	7.59	14.06
12/02/2020 11:47:13	120220	12022020	114713	206.12	12.429170	-57.241307	206.22	-0.900	1.210	1.730	206.12	-0.30	2.00	 	 	 	 	 	 	 	 	 	 	 	 	 	 	 	 	 	 	1581508033	7.99	14.80
12/02/2020 11:47:14	120220	12022020	114714	206.47	12.429137	-57.241325	206.56	-0.200	0.740	0.910	206.47	-0.80	1.10	 	 	 	 	 	 	 	 	 	 	 	 	 	 	 	 	 	 	1581508034	8.25	15.28
12/02/2020 11:47:15	120220	12022020	114715	206.91	12.429102	-57.241338	206.99	0.560	0.350	0.100	206.91	-1.10	0.40	 	 	 	 	 	 	 	 	 	 	 	 	 	 	 	 	 	 	1581508035	8.03	14.87
12/02/2020 11:47:16	120220	12022020	114716	207.39	12.429068	-57.241352	207.48	0.940	-0.110	-0.310	207.39	-1.70	0.20	 	 	 	 	 	 	 	 	 	 	 	 	 	 	 	 	 	 	1581508036	7.62	14.11
12/02/2020 11:47:17	120220	12022020	114717	207.49	12.429037	-57.241365	207.57	0.890	-0.820	0.010	207.49	-2.40	0.80	 	 	 	 	 	 	 	 	 	 	 	 	 	 	 	 	 	 	1581508037	7.40	13.70
12/02/2020 11:47:18	120220	12022020	114718	207.02	12.429007	-57.241383	207.10	0.660	-1.560	1.020	207.02	-3.00	1.90	 	 	 	 	 	 	 	 	 	 	 	 	 	 	 	 	 	 	1581508038	7.65	14.17
12/02/2020 11:47:19	120220	12022020	114719	206.29	12.428977	-57.241405	206.41	0.440	-1.670	2.270	206.29	-2.90	3.10	 	 	 	 	 	 	 	 	 	 	 	 	 	 	 	 	 	 	1581508039	7.87	14.58
12/02/2020 11:47:20	120220	12022020	114720	205.72	12.428950	-57.241428	205.88	0.260	-1.070	3.230	205.72	-2.10	3.90	 	 	 	 	 	 	 	 	 	 	 	 	 	 	 	 	 	 	1581508040	7.58	14.04
12/02/2020 11:47:21	120220	12022020	114721	205.55	12.428923	-57.241450	205.70	0.060	-0.320	3.490	205.55	-1.50	3.90	 	 	 	 	 	 	 	 	 	 	 	 	 	 	 	 	 	 	1581508041	7.19	13.32
12/02/2020 11:47:22	120220	12022020	114722	205.66	12.428897	-57.241468	205.79	-0.240	0.070	3.290	205.66	-1.20	3.70	 	 	 	 	 	 	 	 	 	 	 	 	 	 	 	 	 	 	1581508042	7.26	13.45
12/02/2020 11:47:23	120220	12022020	114723	205.82	12.428865	-57.241488	205.94	-0.580	0.140	2.990	205.82	-1.20	3.40	 	 	 	 	 	 	 	 	 	 	 	 	 	 	 	 	 	 	1581508043	7.70	14.26
12/02/2020 11:47:24	120220	12022020	114724	205.91	12.428835	-57.241508	206.01	-0.760	0.240	2.640	205.91	-1.00	3.00	 	 	 	 	 	 	 	 	 	 	 	 	 	 	 	 	 	 	1581508044	7.90	14.63
12/02/2020 11:47:25	120220	12022020	114725	205.87	12.428805	-57.241528	205.98	-0.540	0.320	2.220	205.87	-1.10	2.50	 	 	 	 	 	 	 	 	 	 	 	 	 	 	 	 	 	 	1581508045	7.73	14.32
12/02/2020 11:47:26	120220	12022020	114726	205.86	12.428773	-57.241548	205.96	0.010	0.100	1.710	205.86	-1.30	2.00	 	 	 	 	 	 	 	 	 	 	 	 	 	 	 	 	 	 	1581508046	7.73	14.32
12/02/2020 11:47:27	120220	12022020	114727	205.86	12.428742	-57.241565	205.94	0.500	-0.200	1.220	205.86	-1.60	1.60	 	 	 	 	 	 	 	 	 	 	 	 	 	 	 	 	 	 	1581508047	7.93	14.69
12/02/2020 11:47:28	120220	12022020	114728	206.03	12.428708	-57.241580	206.11	0.600	-0.370	0.820	206.03	-1.70	1.20	 	 	 	 	 	 	 	 	 	 	 	 	 	 	 	 	 	 	1581508048	7.85	14.54
12/02/2020 11:47:29	120220	12022020	114729	206.26	12.428677	-57.241595	206.38	0.410	-0.440	0.710	206.31	-1.80	1.30	 	 	 	 	 	 	 	 	 	 	 	 	 	 	 	 	 	 	1581508049	7.51	13.91
12/02/2020 11:47:30	120220	12022020	114730	206.32	12.428647	-57.241612	206.39	0.230	-0.590	1.090	206.32	-2.00	1.80	 	 	 	 	 	 	 	 	 	 	 	 	 	 	 	 	 	 	1581508050	7.41	13.72
12/02/2020 11:47:31	120220	12022020	114731	206.09	12.428617	-57.241632	206.18	0.130	-0.570	1.800	206.09	-1.80	2.50	 	 	 	 	 	 	 	 	 	 	 	 	 	 	 	 	 	 	1581508051	7.61	14.09
12/02/2020 11:47:32	120220	12022020	114732	206.13	12.428588	-57.241652	206.24	-0.060	-0.150	2.310	206.13	-1.30	2.90	 	 	 	 	 	 	 	 	 	 	 	 	 	 	 	 	 	 	1581508052	7.50	13.89
12/02/2020 11:47:33	120220	12022020	114733	206.47	12.428560	-57.241672	206.58	-0.300	0.250	2.440	206.47	-1.10	2.90	 	 	 	 	 	 	 	 	 	 	 	 	 	 	 	 	 	 	1581508053	7.14	13.22
12/02/2020 11:47:34	120220	12022020	114734	206.74	12.428533	-57.241692	206.85	-0.420	0.120	2.430	206.74	-1.40	2.90	 	 	 	 	 	 	 	 	 	 	 	 	 	 	 	 	 	 	1581508054	7.19	13.32
12/02/2020 11:47:35	120220	12022020	114735	206.67	12.428503	-57.241712	206.78	-0.240	-0.570	2.530	206.67	-2.20	3.00	 	 	 	 	 	 	 	 	 	 	 	 	 	 	 	 	 	 	1581508055	7.84	14.52
12/02/2020 11:47:36	120220	12022020	114736	206.34	12.428470	-57.241733	206.45	0.150	-1.210	2.600	206.34	-2.60	3.10	 	 	 	 	 	 	 	 	 	 	 	 	 	 	 	 	 	 	1581508056	8.42	15.59
12/02/2020 11:47:37	120220	12022020	114737	205.97	12.428437	-57.241753	206.09	0.350	-1.200	2.480	205.97	-2.40	2.90	 	 	 	 	 	 	 	 	 	 	 	 	 	 	 	 	 	 	1581508057	8.33	15.43
12/02/2020 11:47:38	120220	12022020	114738	205.67	12.428405	-57.241770	205.77	0.130	-0.620	2.290	205.67	-1.70	2.70	 	 	 	 	 	 	 	 	 	 	 	 	 	 	 	 	 	 	1581508058	7.69	14.24
12/02/2020 11:47:39	120220	12022020	114739	205.51	12.428377	-57.241788	205.60	-0.330	0.040	2.080	205.51	-1.10	2.50	 	 	 	 	 	 	 	 	 	 	 	 	 	 	 	 	 	 	1581508059	7.30	13.52
12/02/2020 11:47:40	120220	12022020	114740	205.48	12.428347	-57.241807	205.57	-0.590	0.400	1.790	205.48	-0.90	2.20	 	 	 	 	 	 	 	 	 	 	 	 	 	 	 	 	 	 	1581508060	7.40	13.70
12/02/2020 11:47:41	120220	12022020	114741	205.52	12.428317	-57.241827	205.61	-0.380	0.440	1.470	205.52	-0.90	1.80	 	 	 	 	 	 	 	 	 	 	 	 	 	 	 	 	 	 	1581508061	7.74	14.33
12/02/2020 11:47:42	120220	12022020	114742	205.76	12.428285	-57.241845	205.85	0.120	0.480	1.090	205.76	-0.80	1.40	 	 	 	 	 	 	 	 	 	 	 	 	 	 	 	 	 	 	1581508062	7.95	14.72
12/02/2020 11:47:43	120220	12022020	114743	206.35	12.428253	-57.241862	206.45	0.480	0.710	0.620	206.35	-0.60	1.00	 	 	 	 	 	 	 	 	 	 	 	 	 	 	 	 	 	 	1581508063	7.60	14.08
12/02/2020 11:47:44	120220	12022020	114744	206.98	12.428223	-57.241875	207.06	0.500	0.640	0.460	206.98	-0.90	1.00	 	 	 	 	 	 	 	 	 	 	 	 	 	 	 	 	 	 	1581508064	7.11	13.17
12/02/2020 11:47:45	120220	12022020	114745	207.08	12.428193	-57.241892	207.16	0.370	-0.240	1.030	207.08	-2.00	1.80	 	 	 	 	 	 	 	 	 	 	 	 	 	 	 	 	 	 	1581508065	7.23	13.39
12/02/2020 11:47:46	120220	12022020	114746	206.60	12.428162	-57.241913	206.72	0.330	-1.430	2.030	206.60	-3.00	2.80	 	 	 	 	 	 	 	 	 	 	 	 	 	 	 	 	 	 	1581508066	8.13	15.06
12/02/2020 11:47:47	120220	12022020	114747	206.06	12.428132	-57.241938	206.20	0.310	-1.940	2.890	206.06	-3.20	3.50	 	 	 	 	 	 	 	 	 	 	 	 	 	 	 	 	 	 	1581508067	8.46	15.67
12/02/2020 11:47:48	120220	12022020	114748	205.70	12.428102	-57.241960	205.86	0.140	-1.630	3.270	205.70	-2.80	3.70	 	 	 	 	 	 	 	 	 	 	 	 	 	 	 	 	 	 	1581508068	7.91	14.65
12/02/2020 11:47:49	120220	12022020	114749	205.54	12.428073	-57.241980	205.70	-0.200	-1.010	3.170	205.54	-2.20	3.60	 	 	 	 	 	 	 	 	 	 	 	 	 	 	 	 	 	 	1581508069	7.33	13.58
12/02/2020 11:47:50	120220	12022020	114750	205.30	12.428045	-57.242000	205.44	-0.430	-0.620	2.940	205.30	-1.90	3.30	 	 	 	 	 	 	 	 	 	 	 	 	 	 	 	 	 	 	1581508070	7.39	13.69
12/02/2020 11:47:51	120220	12022020	114751	204.90	12.428013	-57.242018	205.03	-0.370	-0.440	2.730	204.90	-1.70	3.10	 	 	 	 	 	 	 	 	 	 	 	 	 	 	 	 	 	 	1581508071	7.99	14.80
12/02/2020 11:47:52	120220	12022020	114752	204.72	12.427980	-57.242038	204.83	-0.240	0.110	2.440	204.72	-1.00	2.80	 	 	 	 	 	 	 	 	 	 	 	 	 	 	 	 	 	 	1581508072	8.29	15.35
12/02/2020 11:47:53	120220	12022020	114753	204.92	12.427947	-57.242053	205.12	-0.340	0.920	1.870	205.01	-0.30	2.20	 	 	 	 	 	 	 	 	 	 	 	 	 	 	 	 	 	 	1581508073	7.77	14.39
12/02/2020 11:47:54	120220	12022020	114754	205.50	12.427917	-57.242070	205.59	-0.550	1.220	1.390	205.50	-0.20	1.80	 	 	 	 	 	 	 	 	 	 	 	 	 	 	 	 	 	 	1581508074	7.38	13.67
12/02/2020 11:47:55	120220	12022020	114755	205.88	12.427885	-57.242087	205.97	-0.520	0.940	1.340	205.88	-0.50	1.90	 	 	 	 	 	 	 	 	 	 	 	 	 	 	 	 	 	 	1581508075	7.74	14.33
12/02/2020 11:47:56	120220	12022020	114756	206.23	12.427853	-57.242107	206.31	-0.080	0.580	1.400	206.23	-0.90	1.90	 	 	 	 	 	 	 	 	 	 	 	 	 	 	 	 	 	 	1581508076	8.01	14.83
12/02/2020 11:47:57	120220	12022020	114757	206.52	12.427823	-57.242127	206.61	0.510	0.200	1.410	206.52	-1.30	1.90	 	 	 	 	 	 	 	 	 	 	 	 	 	 	 	 	 	 	1581508077	7.68	14.22
12/02/2020 11:47:58	120220	12022020	114758	206.70	12.427792	-57.242143	206.80	0.870	-0.490	1.440	206.70	-2.10	2.00	 	 	 	 	 	 	 	 	 	 	 	 	 	 	 	 	 	 	1581508078	7.53	13.95
12/02/2020 11:47:59	120220	12022020	114759	206.69	12.427760	-57.242160	206.81	0.770	-1.350	1.720	206.69	-2.90	2.30	 	 	 	 	 	 	 	 	 	 	 	 	 	 	 	 	 	 	1581508079	7.72	14.30
12/02/2020 11:48:00	120220	12022020	114800	206.37	12.427730	-57.242180	206.50	0.400	-2.040	2.140	206.37	-3.50	2.70	 	 	 	 	 	 	 	 	 	 	 	 	 	 	 	 	 	 	1581508080	7.91	14.65
12/02/2020 11:48:01	120220	12022020	114801	205.84	12.427698	-57.242202	205.98	0.070	-2.210	2.510	205.84	-3.40	3.10	1016.10	26.50	26.60	20.20	20.40	254.0	68.0	69.0	422.0	27.0	249.00	9.90	77.00	11.90	17355	10025.0	27.6	27.5	1581508081	7.99	14.80
12/02/2020 11:48:02	120220	12022020	114802	205.28	12.427668	-57.242222	205.43	-0.190	-1.680	2.830	205.28	-2.70	3.40	 	 	 	 	 	 	 	 	 	 	 	 	 	 	 	 	 	 	1581508082	7.87	14.58
12/02/2020 11:48:03	120220	12022020	114803	204.96	12.427638	-57.242242	205.13	-0.470	-0.520	2.840	204.96	-1.40	3.20	 	 	 	 	 	 	 	 	 	 	 	 	 	 	 	 	 	 	1581508083	7.63	14.13
12/02/2020 11:48:04	120220	12022020	114804	205.07	12.427610	-57.242262	205.21	-0.660	0.780	2.380	205.07	-0.20	2.70	 	 	 	 	 	 	 	 	 	 	 	 	 	 	 	 	 	 	1581508084	7.32	13.56
12/02/2020 11:48:05	120220	12022020	114805	205.53	12.427580	-57.242278	205.66	-0.650	1.580	1.820	205.53	0.30	2.20	 	 	 	 	 	 	 	 	 	 	 	 	 	 	 	 	 	 	1581508085	7.27	13.46
12/02/2020 11:48:06	120220	12022020	114806	206.09	12.427548	-57.242295	206.20	-0.360	1.470	1.460	206.09	-0.10	1.90	 	 	 	 	 	 	 	 	 	 	 	 	 	 	 	 	 	 	1581508086	7.70	14.26
12/02/2020 11:48:07	120220	12022020	114807	206.54	12.427515	-57.242313	206.65	-0.000	0.730	1.440	206.54	-0.90	2.00	 	 	 	 	 	 	 	 	 	 	 	 	 	 	 	 	 	 	1581508087	8.26	15.30
12/02/2020 11:48:08	120220	12022020	114808	206.65	12.427480	-57.242332	206.75	0.240	-0.200	1.840	206.65	-1.80	2.50	 	 	 	 	 	 	 	 	 	 	 	 	 	 	 	 	 	 	1581508088	8.42	15.59
12/02/2020 11:48:09	120220	12022020	114809	206.41	12.427448	-57.242353	206.52	0.350	-0.890	2.430	206.41	-2.40	3.00	 	 	 	 	 	 	 	 	 	 	 	 	 	 	 	 	 	 	1581508089	8.32	15.41
12/02/2020 11:48:10	120220	12022020	114810	206.07	12.427418	-57.242377	206.18	0.380	-1.010	2.710	206.07	-2.30	3.10	 	 	 	 	 	 	 	 	 	 	 	 	 	 	 	 	 	 	1581508090	7.96	14.74
12/02/2020 11:48:11	120220	12022020	114811	205.91	12.427390	-57.242397	206.04	0.370	-0.700	2.420	205.91	-1.90	2.70	 	 	 	 	 	 	 	 	 	 	 	 	 	 	 	 	 	 	1581508091	7.32	13.56
12/02/2020 11:48:12	120220	12022020	114812	205.98	12.427362	-57.242413	206.09	0.310	-0.400	1.820	205.98	-1.70	2.10	 	 	 	 	 	 	 	 	 	 	 	 	 	 	 	 	 	 	1581508092	6.95	12.87
12/02/2020 11:48:13	120220	12022020	114813	206.13	12.427332	-57.242427	206.22	0.160	-0.430	1.240	206.13	-1.90	1.60	 	 	 	 	 	 	 	 	 	 	 	 	 	 	 	 	 	 	1581508093	7.12	13.19
12/02/2020 11:48:14	120220	12022020	114814	206.09	12.427300	-57.242443	206.18	0.010	-0.890	0.980	206.09	-2.40	1.50	 	 	 	 	 	 	 	 	 	 	 	 	 	 	 	 	 	 	1581508094	7.65	14.17
12/02/2020 11:48:15	120220	12022020	114815	205.77	12.427267	-57.242460	205.85	-0.060	-1.460	1.190	205.77	-2.90	1.80	 	 	 	 	 	 	 	 	 	 	 	 	 	 	 	 	 	 	1581508095	8.34	15.45
12/02/2020 11:48:16	120220	12022020	114816	205.47	12.427232	-57.242482	205.59	-0.200	-1.360	1.680	205.47	-2.50	2.30	 	 	 	 	 	 	 	 	 	 	 	 	 	 	 	 	 	 	1581508096	8.66	16.04
12/02/2020 11:48:17	120220	12022020	114817	205.42	12.427198	-57.242502	205.54	-0.600	-0.420	2.250	205.42	-1.40	2.90	 	 	 	 	 	 	 	 	 	 	 	 	 	 	 	 	 	 	1581508097	8.10	15.00
12/02/2020 11:48:18	120220	12022020	114818	205.47	12.427172	-57.242522	205.58	-1.070	0.720	2.790	205.47	-0.30	3.40	 	 	 	 	 	 	 	 	 	 	 	 	 	 	 	 	 	 	1581508098	7.46	13.82
12/02/2020 11:48:19	120220	12022020	114819	205.52	12.427145	-57.242545	205.65	-1.200	1.420	3.130	205.53	0.10	3.60	 	 	 	 	 	 	 	 	 	 	 	 	 	 	 	 	 	 	1581508099	7.45	13.80
12/02/2020 11:48:20	120220	12022020	114820	205.64	12.427117	-57.242568	205.75	-0.690	1.430	2.990	205.64	-0.00	3.30	 	 	 	 	 	 	 	 	 	 	 	 	 	 	 	 	 	 	1581508100	7.81	14.46
12/02/2020 11:48:21	120220	12022020	114821	205.80	12.427085	-57.242590	205.96	0.270	1.010	2.250	205.87	-0.50	2.40	 	 	 	 	 	 	 	 	 	 	 	 	 	 	 	 	 	 	1581508101	8.03	14.87
12/02/2020 11:48:22	120220	12022020	114822	206.33	12.427052	-57.242605	206.39	1.130	0.470	1.120	206.33	-1.10	1.20	 	 	 	 	 	 	 	 	 	 	 	 	 	 	 	 	 	 	1581508102	7.95	14.72
12/02/2020 11:48:23	120220	12022020	114823	206.70	12.427018	-57.242617	206.81	1.430	-0.250	0.100	206.76	-1.90	0.40	 	 	 	 	 	 	 	 	 	 	 	 	 	 	 	 	 	 	1581508103	7.64	14.15
12/02/2020 11:48:24	120220	12022020	114824	206.80	12.426983	-57.242628	206.85	1.200	-1.310	-0.100	206.80	-3.00	0.50	 	 	 	 	 	 	 	 	 	 	 	 	 	 	 	 	 	 	1581508104	7.65	14.17
12/02/2020 11:48:25	120220	12022020	114825	206.47	12.426950	-57.242643	206.54	0.710	-2.230	0.560	206.47	-3.70	1.40	 	 	 	 	 	 	 	 	 	 	 	 	 	 	 	 	 	 	1581508105	7.94	14.70
12/02/2020 11:48:26	120220	12022020	114826	205.92	12.426918	-57.242663	206.03	0.070	-2.490	1.670	205.92	-3.80	2.50	 	 	 	 	 	 	 	 	 	 	 	 	 	 	 	 	 	 	1581508106	8.02	14.85
12/02/2020 11:48:27	120220	12022020	114827	205.36	12.426890	-57.242687	205.50	-0.650	-2.090	2.860	205.36	-3.20	3.70	 	 	 	 	 	 	 	 	 	 	 	 	 	 	 	 	 	 	1581508107	7.96	14.74
12/02/2020 11:48:28	120220	12022020	114828	204.87	12.426863	-57.242713	205.02	-1.300	-1.250	3.830	204.87	-2.30	4.50	 	 	 	 	 	 	 	 	 	 	 	 	 	 	 	 	 	 	1581508108	8.10	15.00
12/02/2020 11:48:29	120220	12022020	114829	204.54	12.426835	-57.242742	204.65	-1.560	-0.240	4.190	204.54	-1.20	4.60	 	 	 	 	 	 	 	 	 	 	 	 	 	 	 	 	 	 	1581508109	8.30	15.37
12/02/2020 11:48:30	120220	12022020	114830	204.64	12.426807	-57.242767	204.75	-1.270	0.800	3.650	204.64	-0.20	3.80	 	 	 	 	 	 	 	 	 	 	 	 	 	 	 	 	 	 	1581508110	8.29	15.35
12/02/2020 11:48:31	120220	12022020	114831	205.33	12.426775	-57.242787	205.44	-0.600	1.750	2.430	205.33	0.60	2.50	 	 	 	 	 	 	 	 	 	 	 	 	 	 	 	 	 	 	1581508111	7.91	14.65
12/02/2020 11:48:32	120220	12022020	114832	206.26	12.426742	-57.242800	206.34	0.080	2.170	1.080	206.26	0.80	1.20	 	 	 	 	 	 	 	 	 	 	 	 	 	 	 	 	 	 	1581508112	7.58	14.04
12/02/2020 11:48:33	120220	12022020	114833	206.84	12.426708	-57.242810	206.99	0.590	1.680	0.070	206.95	-0.00	0.40	 	 	 	 	 	 	 	 	 	 	 	 	 	 	 	 	 	 	1581508113	7.70	14.26
12/02/2020 11:48:34	120220	12022020	114834	207.18	12.426672	-57.242822	207.22	0.920	0.440	-0.220	207.18	-1.40	0.40	 	 	 	 	 	 	 	 	 	 	 	 	 	 	 	 	 	 	1581508114	8.09	14.98
12/02/2020 11:48:35	120220	12022020	114835	206.98	12.426637	-57.242838	207.04	1.020	-0.920	0.310	206.98	-2.60	1.10	 	 	 	 	 	 	 	 	 	 	 	 	 	 	 	 	 	 	1581508115	8.25	15.28
12/02/2020 11:48:36	120220	12022020	114836	206.57	12.426605	-57.242858	206.65	0.840	-1.830	1.320	206.57	-3.30	2.10	 	 	 	 	 	 	 	 	 	 	 	 	 	 	 	 	 	 	1581508116	8.12	15.04
12/02/2020 11:48:37	120220	12022020	114837	206.17	12.426577	-57.242880	206.28	0.480	-2.090	2.280	206.17	-3.40	3.00	 	 	 	 	 	 	 	 	 	 	 	 	 	 	 	 	 	 	1581508117	7.80	14.45
12/02/2020 11:48:38	120220	12022020	114838	205.89	12.426550	-57.242905	206.03	0.140	-1.910	2.780	205.89	-3.10	3.30	 	 	 	 	 	 	 	 	 	 	 	 	 	 	 	 	 	 	1581508118	7.57	14.02
12/02/2020 11:48:39	120220	12022020	114839	205.71	12.426522	-57.242927	205.85	-0.080	-1.460	2.830	205.71	-2.60	3.30	 	 	 	 	 	 	 	 	 	 	 	 	 	 	 	 	 	 	1581508119	7.52	13.93
12/02/2020 11:48:40	120220	12022020	114840	205.59	12.426492	-57.242945	205.74	-0.290	-0.790	2.680	205.59	-1.90	3.10	 	 	 	 	 	 	 	 	 	 	 	 	 	 	 	 	 	 	1581508120	7.61	14.09
12/02/2020 11:48:41	120220	12022020	114841	205.70	12.426462	-57.242963	205.83	-0.600	0.090	2.390	205.70	-1.00	2.80	 	 	 	 	 	 	 	 	 	 	 	 	 	 	 	 	 	 	1581508121	7.67	14.20
12/02/2020 11:48:42	120220	12022020	114842	205.95	12.426432	-57.242983	206.05	-0.840	0.830	2.080	205.95	-0.40	2.50	 	 	 	 	 	 	 	 	 	 	 	 	 	 	 	 	 	 	1581508122	7.57	14.02
12/02/2020 11:48:43	120220	12022020	114843	206.04	12.426402	-57.243003	206.13	-0.650	1.070	1.840	206.04	-0.30	2.30	 	 	 	 	 	 	 	 	 	 	 	 	 	 	 	 	 	 	1581508123	7.73	14.32
12/02/2020 11:48:44	120220	12022020	114844	206.03	12.426370	-57.243023	206.11	-0.050	0.840	1.600	206.03	-0.60	2.00	 	 	 	 	 	 	 	 	 	 	 	 	 	 	 	 	 	 	1581508124	8.15	15.09
12/02/2020 11:48:45	120220	12022020	114845	206.12	12.426335	-57.243042	206.21	0.580	0.540	1.200	206.12	-0.90	1.50	 	 	 	 	 	 	 	 	 	 	 	 	 	 	 	 	 	 	1581508125	8.30	15.37
12/02/2020 11:48:46	120220	12022020	114846	206.42	12.426302	-57.243057	206.51	0.830	0.210	0.740	206.42	-1.30	1.10	 	 	 	 	 	 	 	 	 	 	 	 	 	 	 	 	 	 	1581508126	8.00	14.82
12/02/2020 11:48:47	120220	12022020	114847	206.83	12.426268	-57.243072	206.93	0.650	-0.300	0.530	206.83	-1.90	1.10	 	 	 	 	 	 	 	 	 	 	 	 	 	 	 	 	 	 	1581508127	7.74	14.33
12/02/2020 11:48:48	120220	12022020	114848	207.13	12.426237	-57.243087	207.23	0.280	-1.010	0.860	207.13	-2.60	1.60	 	 	 	 	 	 	 	 	 	 	 	 	 	 	 	 	 	 	1581508128	7.74	14.33
12/02/2020 11:48:49	120220	12022020	114849	207.21	12.426205	-57.243107	207.33	-0.120	-1.600	1.630	207.21	-3.00	2.40	 	 	 	 	 	 	 	 	 	 	 	 	 	 	 	 	 	 	1581508129	7.94	14.70
12/02/2020 11:48:50	120220	12022020	114850	207.02	12.426175	-57.243130	207.16	-0.410	-1.730	2.580	207.02	-3.00	3.30	 	 	 	 	 	 	 	 	 	 	 	 	 	 	 	 	 	 	1581508130	8.05	14.91
12/02/2020 11:48:51	120220	12022020	114851	206.57	12.426147	-57.243157	206.73	-0.440	-1.480	3.390	206.57	-2.70	4.00	 	 	 	 	 	 	 	 	 	 	 	 	 	 	 	 	 	 	1581508131	8.04	14.89
12/02/2020 11:48:52	120220	12022020	114852	205.99	12.426118	-57.243182	206.13	-0.160	-0.950	3.760	205.99	-2.10	4.30	 	 	 	 	 	 	 	 	 	 	 	 	 	 	 	 	 	 	1581508132	8.07	14.95
12/02/2020 11:48:53	120220	12022020	114853	205.37	12.426088	-57.243203	205.51	0.170	-0.090	3.780	205.37	-1.10	4.20	 	 	 	 	 	 	 	 	 	 	 	 	 	 	 	 	 	 	1581508133	7.97	14.76
12/02/2020 11:48:54	120220	12022020	114854	205.13	12.426057	-57.243220	205.26	0.130	1.000	3.360	205.13	-0.10	3.60	 	 	 	 	 	 	 	 	 	 	 	 	 	 	 	 	 	 	1581508134	7.72	14.30
12/02/2020 11:48:55	120220	12022020	114855	205.37	12.426027	-57.243235	205.49	-0.270	1.640	2.620	205.37	0.30	2.90	 	 	 	 	 	 	 	 	 	 	 	 	 	 	 	 	 	 	1581508135	7.36	13.63
12/02/2020 11:48:56	120220	12022020	114856	205.78	12.425995	-57.243253	205.87	-0.520	1.370	1.940	205.78	-0.20	2.20	 	 	 	 	 	 	 	 	 	 	 	 	 	 	 	 	 	 	1581508136	7.60	14.08
12/02/2020 11:48:57	120220	12022020	114857	206.12	12.425963	-57.243273	206.28	-0.210	0.570	1.230	206.20	-1.10	1.50	 	 	 	 	 	 	 	 	 	 	 	 	 	 	 	 	 	 	1581508137	8.20	15.19
12/02/2020 11:48:58	120220	12022020	114858	206.69	12.425928	-57.243292	206.76	0.480	-0.190	0.440	206.69	-1.80	0.70	 	 	 	 	 	 	 	 	 	 	 	 	 	 	 	 	 	 	1581508138	8.24	15.26
12/02/2020 11:48:59	120220	12022020	114859	207.10	12.425895	-57.243307	207.18	0.990	-0.820	-0.070	207.10	-2.40	0.40	 	 	 	 	 	 	 	 	 	 	 	 	 	 	 	 	 	 	1581508139	7.86	14.56
12/02/2020 11:49:00	120220	12022020	114900	207.21	12.425863	-57.243322	207.28	1.050	-1.440	0.000	207.21	-3.00	0.70	 	 	 	 	 	 	 	 	 	 	 	 	 	 	 	 	 	 	1581508140	7.63	14.13
12/02/2020 11:49:01	120220	12022020	114901	207.06	12.425832	-57.243338	207.14	0.740	-1.840	0.640	207.06	-3.20	1.40	1016.10	26.60	26.70	20.50	20.70	226.0	69.0	69.0	419.0	27.0	248.00	9.10	74.00	11.30	16982	9166.0	27.5	27.5	1581508141	7.78	14.41
12/02/2020 11:49:02	120220	12022020	114902	206.87	12.425802	-57.243360	206.98	0.230	-1.670	1.530	206.87	-2.90	2.30	 	 	 	 	 	 	 	 	 	 	 	 	 	 	 	 	 	 	1581508142	7.84	14.52
12/02/2020 11:49:03	120220	12022020	114903	206.57	12.425773	-57.243382	206.69	-0.300	-1.130	2.520	206.57	-2.30	3.30	 	 	 	 	 	 	 	 	 	 	 	 	 	 	 	 	 	 	1581508143	7.67	14.20
12/02/2020 11:49:04	120220	12022020	114904	206.07	12.425745	-57.243405	206.20	-0.750	-0.550	3.440	206.07	-1.70	4.10	 	 	 	 	 	 	 	 	 	 	 	 	 	 	 	 	 	 	1581508144	7.82	14.48
12/02/2020 11:49:05	120220	12022020	114905	205.58	12.425715	-57.243430	205.70	-1.020	-0.040	3.920	205.58	-1.30	4.40	 	 	 	 	 	 	 	 	 	 	 	 	 	 	 	 	 	 	1581508145	8.20	15.19
12/02/2020 11:49:06	120220	12022020	114906	205.35	12.425685	-57.243455	205.47	-1.000	0.430	3.760	205.35	-0.80	4.10	 	 	 	 	 	 	 	 	 	 	 	 	 	 	 	 	 	 	1581508146	8.41	15.58
12/02/2020 11:49:07	120220	12022020	114907	205.50	12.425653	-57.243477	205.59	-0.610	0.920	3.090	205.50	-0.30	3.30	 	 	 	 	 	 	 	 	 	 	 	 	 	 	 	 	 	 	1581508147	8.25	15.28
12/02/2020 11:49:08	120220	12022020	114908	205.82	12.425620	-57.243493	205.90	-0.100	1.210	2.130	205.82	-0.20	2.30	 	 	 	 	 	 	 	 	 	 	 	 	 	 	 	 	 	 	1581508148	7.89	14.61
12/02/2020 11:49:09	120220	12022020	114909	206.10	12.425587	-57.243507	206.20	0.230	0.950	1.290	206.15	-0.60	1.60	 	 	 	 	 	 	 	 	 	 	 	 	 	 	 	 	 	 	1581508149	7.82	14.48
12/02/2020 11:49:10	120220	12022020	114910	206.29	12.425553	-57.243523	206.34	0.330	0.240	0.950	206.29	-1.40	1.40	 	 	 	 	 	 	 	 	 	 	 	 	 	 	 	 	 	 	1581508150	7.97	14.76
12/02/2020 11:49:11	120220	12022020	114911	206.30	12.425520	-57.243542	206.35	0.410	-0.390	1.000	206.30	-1.90	1.50	 	 	 	 	 	 	 	 	 	 	 	 	 	 	 	 	 	 	1581508151	8.04	14.89
12/02/2020 11:49:12	120220	12022020	114912	206.45	12.425490	-57.243562	206.50	0.610	-0.550	0.960	206.45	-1.90	1.40	 	 	 	 	 	 	 	 	 	 	 	 	 	 	 	 	 	 	1581508152	7.70	14.26
12/02/2020 11:49:13	120220	12022020	114913	206.75	12.425462	-57.243580	206.82	0.860	-0.620	0.800	206.75	-2.10	1.30	 	 	 	 	 	 	 	 	 	 	 	 	 	 	 	 	 	 	1581508153	7.12	13.19
12/02/2020 11:49:14	120220	12022020	114914	206.87	12.425432	-57.243595	206.94	0.960	-1.100	0.850	206.87	-2.70	1.40	 	 	 	 	 	 	 	 	 	 	 	 	 	 	 	 	 	 	1581508154	7.19	13.32
12/02/2020 11:49:15	120220	12022020	114915	206.56	12.425400	-57.243613	206.63	0.730	-1.790	1.380	206.56	-3.30	2.10	 	 	 	 	 	 	 	 	 	 	 	 	 	 	 	 	 	 	1581508155	7.88	14.59
12/02/2020 11:49:16	120220	12022020	114916	205.87	12.425368	-57.243635	205.98	0.120	-1.960	2.240	205.87	-3.20	3.00	 	 	 	 	 	 	 	 	 	 	 	 	 	 	 	 	 	 	1581508156	8.37	15.50
12/02/2020 11:49:17	120220	12022020	114917	205.28	12.425337	-57.243658	205.39	-0.630	-1.150	2.910	205.28	-2.10	3.50	 	 	 	 	 	 	 	 	 	 	 	 	 	 	 	 	 	 	1581508157	8.24	15.26
12/02/2020 11:49:18	120220	12022020	114918	204.99	12.425310	-57.243682	205.11	-1.210	0.160	3.150	204.99	-0.80	3.60	 	 	 	 	 	 	 	 	 	 	 	 	 	 	 	 	 	 	1581508158	7.61	14.09
12/02/2020 11:49:19	120220	12022020	114919	205.01	12.425283	-57.243705	205.12	-1.230	1.030	2.980	205.01	-0.20	3.30	 	 	 	 	 	 	 	 	 	 	 	 	 	 	 	 	 	 	1581508159	7.46	13.82
12/02/2020 11:49:20	120220	12022020	114920	205.34	12.425253	-57.243727	205.43	-0.630	1.120	2.200	205.34	-0.30	2.30	 	 	 	 	 	 	 	 	 	 	 	 	 	 	 	 	 	 	1581508160	7.91	14.65
12/02/2020 11:49:21	120220	12022020	114921	205.85	12.425218	-57.243743	206.07	0.150	0.790	1.110	206.00	-0.70	1.30	 	 	 	 	 	 	 	 	 	 	 	 	 	 	 	 	 	 	1581508161	8.33	15.43
12/02/2020 11:49:22	120220	12022020	114922	206.79	12.425183	-57.243758	206.85	0.480	0.390	0.360	206.79	-1.10	0.80	 	 	 	 	 	 	 	 	 	 	 	 	 	 	 	 	 	 	1581508162	8.27	15.32
12/02/2020 11:49:23	120220	12022020	114923	207.29	12.425150	-57.243773	207.33	0.240	-0.170	0.290	207.29	-1.80	0.90	 	 	 	 	 	 	 	 	 	 	 	 	 	 	 	 	 	 	1581508163	7.85	14.54
12/02/2020 11:49:24	120220	12022020	114924	207.12	12.425118	-57.243792	207.15	-0.030	-0.880	0.900	207.12	-2.40	1.70	 	 	 	 	 	 	 	 	 	 	 	 	 	 	 	 	 	 	1581508164	7.79	14.43
12/02/2020 11:49:25	120220	12022020	114925	206.38	12.425090	-57.243815	206.43	0.080	-1.360	1.970	206.38	-2.80	2.80	 	 	 	 	 	 	 	 	 	 	 	 	 	 	 	 	 	 	1581508165	8.09	14.98
12/02/2020 11:49:26	120220	12022020	114926	205.68	12.425060	-57.243840	205.76	0.340	-1.230	2.810	205.68	-2.40	3.40	 	 	 	 	 	 	 	 	 	 	 	 	 	 	 	 	 	 	1581508166	8.08	14.96
12/02/2020 11:49:27	120220	12022020	114927	205.45	12.425032	-57.243862	205.53	0.280	-0.600	3.080	205.45	-1.80	3.50	 	 	 	 	 	 	 	 	 	 	 	 	 	 	 	 	 	 	1581508167	7.60	14.08
12/02/2020 11:49:28	120220	12022020	114928	205.60	12.425005	-57.243882	205.67	-0.070	0.020	2.890	205.60	-1.20	3.20	 	 	 	 	 	 	 	 	 	 	 	 	 	 	 	 	 	 	1581508168	7.22	13.37
12/02/2020 11:49:29	120220	12022020	114929	205.96	12.424977	-57.243900	206.02	-0.310	0.230	2.330	205.96	-1.20	2.60	 	 	 	 	 	 	 	 	 	 	 	 	 	 	 	 	 	 	1581508169	7.30	13.52
12/02/2020 11:49:30	120220	12022020	114930	206.15	12.424945	-57.243918	206.21	-0.130	-0.020	1.880	206.15	-1.50	2.30	 	 	 	 	 	 	 	 	 	 	 	 	 	 	 	 	 	 	1581508170	7.71	14.28
12/02/2020 11:49:31	120220	12022020	114931	206.02	12.424912	-57.243938	206.08	0.210	-0.340	1.960	206.02	-1.80	2.50	 	 	 	 	 	 	 	 	 	 	 	 	 	 	 	 	 	 	1581508171	8.17	15.13
12/02/2020 11:49:32	120220	12022020	114932	205.87	12.424880	-57.243958	205.92	0.300	-0.250	2.040	205.86	-1.50	2.50	 	 	 	 	 	 	 	 	 	 	 	 	 	 	 	 	 	 	1581508172	8.20	15.19
12/02/2020 11:49:33	120220	12022020	114933	206.01	12.424850	-57.243978	206.09	0.060	0.250	1.820	206.01	-1.00	2.20	 	 	 	 	 	 	 	 	 	 	 	 	 	 	 	 	 	 	1581508173	7.64	14.15
12/02/2020 11:49:34	120220	12022020	114934	206.31	12.424822	-57.243997	206.37	-0.180	0.610	1.430	206.31	-0.80	1.70	 	 	 	 	 	 	 	 	 	 	 	 	 	 	 	 	 	 	1581508174	7.11	13.17
12/02/2020 11:49:35	120220	12022020	114935	206.59	12.424793	-57.244013	206.64	-0.080	0.360	0.960	206.59	-1.20	1.30	 	 	 	 	 	 	 	 	 	 	 	 	 	 	 	 	 	 	1581508175	7.23	13.39
12/02/2020 11:49:36	120220	12022020	114936	206.77	12.424762	-57.244030	206.81	0.220	-0.470	0.740	206.77	-2.20	1.30	 	 	 	 	 	 	 	 	 	 	 	 	 	 	 	 	 	 	1581508176	7.76	14.37
12/02/2020 11:49:37	120220	12022020	114937	206.69	12.424727	-57.244048	206.75	0.380	-1.430	1.120	206.69	-3.00	1.80	 	 	 	 	 	 	 	 	 	 	 	 	 	 	 	 	 	 	1581508177	8.29	15.35
12/02/2020 11:49:38	120220	12022020	114938	206.33	12.424695	-57.244070	206.41	0.190	-1.840	2.000	206.33	-3.20	2.80	 	 	 	 	 	 	 	 	 	 	 	 	 	 	 	 	 	 	1581508178	8.42	15.59
12/02/2020 11:49:39	120220	12022020	114939	205.90	12.424665	-57.244095	206.00	-0.230	-1.380	2.940	205.90	-2.50	3.60	 	 	 	 	 	 	 	 	 	 	 	 	 	 	 	 	 	 	1581508179	8.09	14.98
12/02/2020 11:49:40	120220	12022020	114940	205.50	12.424638	-57.244118	205.61	-0.530	-0.430	3.520	205.50	-1.50	4.10	 	 	 	 	 	 	 	 	 	 	 	 	 	 	 	 	 	 	1581508180	7.57	14.02
12/02/2020 11:49:41	120220	12022020	114941	205.13	12.424613	-57.244142	205.23	-0.460	0.320	3.610	205.13	-0.90	4.00	 	 	 	 	 	 	 	 	 	 	 	 	 	 	 	 	 	 	1581508181	7.39	13.69
12/02/2020 11:49:42	120220	12022020	114942	204.86	12.424583	-57.244162	204.95	-0.100	0.590	3.350	204.86	-0.80	3.70	 	 	 	 	 	 	 	 	 	 	 	 	 	 	 	 	 	 	1581508182	7.74	14.33
12/02/2020 11:49:43	120220	12022020	114943	204.80	12.424550	-57.244180	204.89	0.220	0.620	2.820	204.81	-0.80	3.10	 	 	 	 	 	 	 	 	 	 	 	 	 	 	 	 	 	 	1581508183	8.07	14.95
12/02/2020 11:49:44	120220	12022020	114944	204.91	12.424517	-57.244197	204.98	0.250	0.540	2.290	204.91	-0.90	2.60	 	 	 	 	 	 	 	 	 	 	 	 	 	 	 	 	 	 	1581508184	7.99	14.80
12/02/2020 11:49:45	120220	12022020	114945	205.09	12.424485	-57.244213	205.14	0.050	0.340	1.860	205.09	-1.10	2.20	 	 	 	 	 	 	 	 	 	 	 	 	 	 	 	 	 	 	1581508185	7.79	14.43
12/02/2020 11:49:46	120220	12022020	114946	205.38	12.424453	-57.244230	205.43	-0.150	0.050	1.550	205.38	-1.40	2.00	 	 	 	 	 	 	 	 	 	 	 	 	 	 	 	 	 	 	1581508186	7.69	14.24
12/02/2020 11:49:47	120220	12022020	114947	205.70	12.424423	-57.244248	205.74	-0.190	-0.330	1.410	205.70	-1.90	1.90	 	 	 	 	 	 	 	 	 	 	 	 	 	 	 	 	 	 	1581508187	7.60	14.08
12/02/2020 11:49:48	120220	12022020	114948	205.91	12.424393	-57.244268	205.96	-0.020	-0.770	1.450	205.91	-2.30	1.90	 	 	 	 	 	 	 	 	 	 	 	 	 	 	 	 	 	 	1581508188	7.65	14.17
12/02/2020 11:49:49	120220	12022020	114949	206.01	12.424363	-57.244288	206.07	0.230	-1.090	1.490	206.01	-2.50	2.00	 	 	 	 	 	 	 	 	 	 	 	 	 	 	 	 	 	 	1581508189	7.69	14.24
12/02/2020 11:49:50	120220	12022020	114950	205.88	12.424332	-57.244307	205.96	0.430	-1.220	1.600	205.88	-2.60	2.10	 	 	 	 	 	 	 	 	 	 	 	 	 	 	 	 	 	 	1581508190	7.64	14.15
12/02/2020 11:49:51	120220	12022020	114951	205.58	12.424302	-57.244325	205.68	0.440	-1.110	1.790	205.58	-2.40	2.40	 	 	 	 	 	 	 	 	 	 	 	 	 	 	 	 	 	 	1581508191	7.67	14.20
12/02/2020 11:49:52	120220	12022020	114952	205.24	12.424270	-57.244342	205.35	0.190	-0.800	2.070	205.24	-2.00	2.70	 	 	 	 	 	 	 	 	 	 	 	 	 	 	 	 	 	 	1581508192	7.70	14.26
12/02/2020 11:49:53	120220	12022020	114953	204.89	12.424238	-57.244362	205.00	-0.140	-0.380	2.370	204.89	-1.60	2.90	 	 	 	 	 	 	 	 	 	 	 	 	 	 	 	 	 	 	1581508193	7.80	14.45
12/02/2020 11:49:54	120220	12022020	114954	204.75	12.424208	-57.244382	204.84	-0.410	0.220	2.510	204.74	-0.90	3.00	 	 	 	 	 	 	 	 	 	 	 	 	 	 	 	 	 	 	1581508194	7.86	14.56
12/02/2020 11:49:55	120220	12022020	114955	204.74	12.424178	-57.244400	204.84	-0.610	0.800	2.510	204.74	-0.50	3.00	 	 	 	 	 	 	 	 	 	 	 	 	 	 	 	 	 	 	1581508195	7.67	14.20
12/02/2020 11:49:56	120220	12022020	114956	204.69	12.424147	-57.244420	204.78	-0.690	0.880	2.530	204.69	-0.60	3.00	 	 	 	 	 	 	 	 	 	 	 	 	 	 	 	 	 	 	1581508196	7.63	14.13
12/02/2020 11:49:57	120220	12022020	114957	204.56	12.424117	-57.244440	204.64	-0.520	0.400	2.500	204.56	-1.20	2.90	 	 	 	 	 	 	 	 	 	 	 	 	 	 	 	 	 	 	1581508197	8.06	14.93
12/02/2020 11:49:58	120220	12022020	114958	204.48	12.424083	-57.244462	204.56	-0.010	-0.170	2.180	204.48	-1.70	2.50	 	 	 	 	 	 	 	 	 	 	 	 	 	 	 	 	 	 	1581508198	8.40	15.56
12/02/2020 11:49:59	120220	12022020	114959	204.51	12.424050	-57.244480	204.60	0.560	-0.330	1.590	204.54	-1.70	1.80	 	 	 	 	 	 	 	 	 	 	 	 	 	 	 	 	 	 	1581508199	8.13	15.06
12/02/2020 11:50:00	120220	12022020	115000	204.85	12.424018	-57.244495	204.91	0.760	-0.130	0.910	204.85	-1.50	1.20	 	 	 	 	 	 	 	 	 	 	 	 	 	 	 	 	 	 	1581508200	7.45	13.80
12/02/2020 11:50:01	120220	12022020	115001	205.15	12.423988	-57.244508	205.25	0.490	-0.110	0.590	205.21	-1.60	1.10	 	 	 	 	 	 	 	 	 	 	 	 	 	 	 	 	 	 	1581508201	6.94	12.85
12/02/2020 11:50:02	120220	12022020	115002	205.30	12.423960	-57.244525	205.35	0.110	-0.650	0.890	205.30	-2.30	1.50	1016.10	26.60	26.70	20.50	20.70	230.0	69.0	69.0	417.0	27.1	248.00	8.80	74.00	10.90	17511	9402.0	27.6	27.5	1581508202	7.18	13.30
12/02/2020 11:50:03	120220	12022020	115003	205.23	12.423928	-57.244545	205.30	-0.080	-1.320	1.460	205.23	-2.80	2.10	 	 	 	 	 	 	 	 	 	 	 	 	 	 	 	 	 	 	1581508203	7.95	14.72
12/02/2020 11:50:04	120220	12022020	115004	205.19	12.423897	-57.244567	205.28	-0.110	-1.520	1.940	205.19	-2.90	2.50	 	 	 	 	 	 	 	 	 	 	 	 	 	 	 	 	 	 	1581508204	8.19	15.17
12/02/2020 11:50:05	120220	12022020	115005	205.02	12.423867	-57.244588	205.12	-0.060	-1.290	2.300	205.02	-2.60	2.90	 	 	 	 	 	 	 	 	 	 	 	 	 	 	 	 	 	 	1581508205	7.90	14.63
12/02/2020 11:50:06	120220	12022020	115006	204.63	12.423837	-57.244607	204.74	-0.050	-0.910	2.570	204.63	-2.10	3.10	 	 	 	 	 	 	 	 	 	 	 	 	 	 	 	 	 	 	1581508206	7.81	14.46
12/02/2020 11:50:07	120220	12022020	115007	204.14	12.423803	-57.244625	204.24	-0.200	-0.370	2.820	204.14	-1.50	3.40	 	 	 	 	 	 	 	 	 	 	 	 	 	 	 	 	 	 	1581508207	8.00	14.82
12/02/2020 11:50:08	120220	12022020	115008	203.76	12.423770	-57.244643	203.87	-0.510	0.420	3.030	203.76	-0.70	3.50	 	 	 	 	 	 	 	 	 	 	 	 	 	 	 	 	 	 	1581508208	7.99	14.80
12/02/2020 11:50:09	120220	12022020	115009	203.63	12.423740	-57.244662	203.74	-0.760	1.200	3.040	203.63	0.00	3.40	 	 	 	 	 	 	 	 	 	 	 	 	 	 	 	 	 	 	1581508209	7.73	14.32
12/02/2020 11:50:10	120220	12022020	115010	203.78	12.423710	-57.244682	203.88	-0.730	1.580	2.780	203.78	0.20	3.10	 	 	 	 	 	 	 	 	 	 	 	 	 	 	 	 	 	 	1581508210	7.58	14.04
12/02/2020 11:50:11	120220	12022020	115011	204.12	12.423680	-57.244702	204.21	-0.320	1.350	2.270	204.12	-0.20	2.50	 	 	 	 	 	 	 	 	 	 	 	 	 	 	 	 	 	 	1581508211	7.64	14.15
12/02/2020 11:50:12	120220	12022020	115012	204.57	12.423648	-57.244718	204.64	0.320	0.590	1.540	204.57	-1.10	1.80	 	 	 	 	 	 	 	 	 	 	 	 	 	 	 	 	 	 	1581508212	7.78	14.41
12/02/2020 11:50:13	120220	12022020	115013	204.99	12.423615	-57.244735	205.04	0.870	-0.480	0.900	204.99	-2.20	1.30	 	 	 	 	 	 	 	 	 	 	 	 	 	 	 	 	 	 	1581508213	7.92	14.67
12/02/2020 11:50:14	120220	12022020	115014	205.27	12.423582	-57.244750	205.32	1.050	-1.420	0.710	205.27	-3.00	1.20	 	 	 	 	 	 	 	 	 	 	 	 	 	 	 	 	 	 	1581508214	8.00	14.82
12/02/2020 11:50:15	120220	12022020	115015	205.41	12.423550	-57.244767	205.49	0.820	-1.750	0.990	205.41	-3.10	1.60	 	 	 	 	 	 	 	 	 	 	 	 	 	 	 	 	 	 	1581508215	7.74	14.33
12/02/2020 11:50:16	120220	12022020	115016	205.48	12.423520	-57.244785	205.57	0.380	-1.510	1.280	205.49	-2.80	1.80	 	 	 	 	 	 	 	 	 	 	 	 	 	 	 	 	 	 	1581508216	7.24	13.41
12/02/2020 11:50:17	120220	12022020	115017	205.41	12.423492	-57.244802	205.50	0.020	-1.250	1.580	205.41	-2.60	2.20	 	 	 	 	 	 	 	 	 	 	 	 	 	 	 	 	 	 	1581508217	7.06	13.08
12/02/2020 11:50:18	120220	12022020	115018	205.02	12.423462	-57.244820	205.12	-0.170	-1.230	2.190	205.02	-2.60	2.90	 	 	 	 	 	 	 	 	 	 	 	 	 	 	 	 	 	 	1581508218	7.58	14.04
12/02/2020 11:50:19	120220	12022020	115019	204.48	12.423430	-57.244842	204.60	-0.340	-1.070	2.900	204.48	-2.30	3.50	 	 	 	 	 	 	 	 	 	 	 	 	 	 	 	 	 	 	1581508219	8.32	15.41
12/02/2020 11:50:20	120220	12022020	115020	204.09	12.423398	-57.244865	204.22	-0.650	-0.420	3.460	204.09	-1.50	4.00	 	 	 	 	 	 	 	 	 	 	 	 	 	 	 	 	 	 	1581508220	8.44	15.63
12/02/2020 11:50:21	120220	12022020	115021	203.89	12.423367	-57.244888	204.01	-0.930	0.570	3.720	203.89	-0.50	4.10	 	 	 	 	 	 	 	 	 	 	 	 	 	 	 	 	 	 	1581508221	8.13	15.06
12/02/2020 11:50:22	120220	12022020	115022	203.97	12.423337	-57.244908	204.10	-0.900	1.490	3.450	203.97	0.30	3.70	 	 	 	 	 	 	 	 	 	 	 	 	 	 	 	 	 	 	1581508222	7.78	14.41
12/02/2020 11:50:23	120220	12022020	115023	204.46	12.423307	-57.244927	204.57	-0.560	1.890	2.620	204.46	0.50	2.70	 	 	 	 	 	 	 	 	 	 	 	 	 	 	 	 	 	 	1581508223	7.59	14.06
12/02/2020 11:50:24	120220	12022020	115024	205.29	12.423275	-57.244942	205.39	-0.060	1.580	1.470	205.29	-0.00	1.60	 	 	 	 	 	 	 	 	 	 	 	 	 	 	 	 	 	 	1581508224	7.69	14.24
12/02/2020 11:50:25	120220	12022020	115025	206.18	12.423242	-57.244957	206.25	0.430	0.740	0.450	206.18	-1.00	0.70	 	 	 	 	 	 	 	 	 	 	 	 	 	 	 	 	 	 	1581508225	7.78	14.41
12/02/2020 11:50:26	120220	12022020	115026	206.68	12.423208	-57.244970	206.71	0.900	-0.470	-0.060	206.68	-2.30	0.40	 	 	 	 	 	 	 	 	 	 	 	 	 	 	 	 	 	 	1581508226	7.75	14.35
12/02/2020 11:50:27	120220	12022020	115027	206.58	12.423175	-57.244985	206.61	1.160	-1.740	0.290	206.58	-3.40	1.10	 	 	 	 	 	 	 	 	 	 	 	 	 	 	 	 	 	 	1581508227	7.89	14.61
12/02/2020 11:50:28	120220	12022020	115028	206.10	12.423142	-57.245003	206.18	0.930	-2.500	1.460	206.10	-4.00	2.40	 	 	 	 	 	 	 	 	 	 	 	 	 	 	 	 	 	 	1581508228	7.94	14.70
12/02/2020 11:50:29	120220	12022020	115029	205.41	12.423113	-57.245028	205.50	0.310	-2.520	2.880	205.41	-3.70	3.70	 	 	 	 	 	 	 	 	 	 	 	 	 	 	 	 	 	 	1581508229	7.89	14.61
12/02/2020 11:50:30	120220	12022020	115030	204.64	12.423087	-57.245053	204.75	-0.300	-1.860	3.880	204.64	-2.90	4.50	 	 	 	 	 	 	 	 	 	 	 	 	 	 	 	 	 	 	1581508230	7.94	14.70
12/02/2020 11:50:31	120220	12022020	115031	204.16	12.423060	-57.245078	204.28	-0.610	-0.670	4.150	204.16	-1.60	4.50	 	 	 	 	 	 	 	 	 	 	 	 	 	 	 	 	 	 	1581508231	7.82	14.48
12/02/2020 11:50:32	120220	12022020	115032	204.15	12.423033	-57.245100	204.26	-0.640	0.610	3.700	204.15	-0.50	3.90	 	 	 	 	 	 	 	 	 	 	 	 	 	 	 	 	 	 	1581508232	7.49	13.87
12/02/2020 11:50:33	120220	12022020	115033	204.39	12.423002	-57.245117	204.47	-0.510	1.290	2.730	204.39	-0.10	2.80	 	 	 	 	 	 	 	 	 	 	 	 	 	 	 	 	 	 	1581508233	7.43	13.76
12/02/2020 11:50:34	120220	12022020	115034	204.75	12.422968	-57.245132	204.82	-0.310	1.180	1.680	204.75	-0.30	1.90	 	 	 	 	 	 	 	 	 	 	 	 	 	 	 	 	 	 	1581508234	8.02	14.85
12/02/2020 11:50:35	120220	12022020	115035	205.21	12.422932	-57.245147	205.27	-0.170	0.760	0.940	205.21	-0.80	1.30	 	 	 	 	 	 	 	 	 	 	 	 	 	 	 	 	 	 	1581508235	8.49	15.72
12/02/2020 11:50:36	120220	12022020	115036	205.70	12.422895	-57.245162	205.74	-0.130	0.400	0.660	205.70	-1.10	1.20	 	 	 	 	 	 	 	 	 	 	 	 	 	 	 	 	 	 	1581508236	8.23	15.24
12/02/2020 11:50:37	120220	12022020	115037	206.02	12.422863	-57.245178	206.07	-0.130	-0.060	0.930	206.02	-1.60	1.60	 	 	 	 	 	 	 	 	 	 	 	 	 	 	 	 	 	 	1581508237	7.76	14.37
12/02/2020 11:50:38	120220	12022020	115038	206.07	12.422833	-57.245198	206.13	-0.090	-0.600	1.650	206.07	-2.10	2.40	 	 	 	 	 	 	 	 	 	 	 	 	 	 	 	 	 	 	1581508238	7.72	14.30
12/02/2020 11:50:39	120220	12022020	115039	205.88	12.422805	-57.245222	205.96	0.060	-0.940	2.340	205.88	-2.40	3.00	 	 	 	 	 	 	 	 	 	 	 	 	 	 	 	 	 	 	1581508239	7.81	14.46
12/02/2020 11:50:40	120220	12022020	115040	205.45	12.422778	-57.245243	205.55	0.350	-1.010	2.770	205.45	-2.40	3.30	 	 	 	 	 	 	 	 	 	 	 	 	 	 	 	 	 	 	1581508240	7.63	14.13
12/02/2020 11:50:41	120220	12022020	115041	204.84	12.422750	-57.245263	204.93	0.670	-0.980	2.900	204.84	-2.30	3.30	 	 	 	 	 	 	 	 	 	 	 	 	 	 	 	 	 	 	1581508241	7.49	13.87
12/02/2020 11:50:42	120220	12022020	115042	204.36	12.422718	-57.245282	204.44	0.830	-0.780	2.630	204.36	-2.10	3.00	 	 	 	 	 	 	 	 	 	 	 	 	 	 	 	 	 	 	1581508242	7.61	14.09
12/02/2020 11:50:43	120220	12022020	115043	204.08	12.422687	-57.245297	204.15	0.700	-0.370	2.200	204.08	-1.60	2.50	 	 	 	 	 	 	 	 	 	 	 	 	 	 	 	 	 	 	1581508243	7.57	14.02
12/02/2020 11:50:44	120220	12022020	115044	203.95	12.422655	-57.245312	204.01	0.310	-0.030	1.880	203.95	-1.40	2.30	 	 	 	 	 	 	 	 	 	 	 	 	 	 	 	 	 	 	1581508244	7.51	13.91
12/02/2020 11:50:45	120220	12022020	115045	204.05	12.422623	-57.245327	204.10	-0.170	0.160	1.750	204.05	-1.20	2.20	 	 	 	 	 	 	 	 	 	 	 	 	 	 	 	 	 	 	1581508245	7.66	14.19
12/02/2020 11:50:46	120220	12022020	115046	204.36	12.422592	-57.245345	204.41	-0.550	0.290	1.740	204.36	-1.10	2.20	 	 	 	 	 	 	 	 	 	 	 	 	 	 	 	 	 	 	1581508246	7.77	14.39
12/02/2020 11:50:47	120220	12022020	115047	204.75	12.422560	-57.245365	204.81	-0.770	0.250	1.880	204.75	-1.20	2.40	 	 	 	 	 	 	 	 	 	 	 	 	 	 	 	 	 	 	1581508247	7.74	14.33
12/02/2020 11:50:48	120220	12022020	115048	205.21	12.422530	-57.245385	205.26	-0.810	0.030	2.080	205.21	-1.50	2.60	 	 	 	 	 	 	 	 	 	 	 	 	 	 	 	 	 	 	1581508248	7.86	14.56
12/02/2020 11:50:49	120220	12022020	115049	205.52	12.422500	-57.245408	205.64	-0.560	-0.300	2.120	205.58	-1.80	2.50	 	 	 	 	 	 	 	 	 	 	 	 	 	 	 	 	 	 	1581508249	7.93	14.69
12/02/2020 11:50:50	120220	12022020	115050	205.79	12.422470	-57.245428	205.86	-0.040	-0.640	1.800	205.79	-2.10	2.10	 	 	 	 	 	 	 	 	 	 	 	 	 	 	 	 	 	 	1581508250	7.91	14.65
12/02/2020 11:50:51	120220	12022020	115051	205.81	12.422438	-57.245445	205.84	0.490	-0.850	1.410	205.78	-2.30	1.80	 	 	 	 	 	 	 	 	 	 	 	 	 	 	 	 	 	 	1581508251	7.84	14.52
12/02/2020 11:50:52	120220	12022020	115052	205.43	12.422405	-57.245460	205.51	0.760	-0.870	1.280	205.43	-2.20	1.70	 	 	 	 	 	 	 	 	 	 	 	 	 	 	 	 	 	 	1581508252	7.77	14.39
12/02/2020 11:50:53	120220	12022020	115053	205.00	12.422372	-57.245475	205.06	0.660	-0.600	1.320	205.00	-1.80	1.80	 	 	 	 	 	 	 	 	 	 	 	 	 	 	 	 	 	 	1581508253	7.69	14.24
12/02/2020 11:50:54	120220	12022020	115054	204.69	12.422340	-57.245490	204.76	0.290	-0.030	1.520	204.69	-1.20	2.10	 	 	 	 	 	 	 	 	 	 	 	 	 	 	 	 	 	 	1581508254	7.48	13.85
12/02/2020 11:50:55	120220	12022020	115055	204.57	12.422312	-57.245507	204.64	-0.110	0.450	1.850	204.57	-0.90	2.40	 	 	 	 	 	 	 	 	 	 	 	 	 	 	 	 	 	 	1581508255	7.26	13.45
12/02/2020 11:50:56	120220	12022020	115056	204.51	12.422282	-57.245527	204.58	-0.360	0.340	2.310	204.51	-1.20	2.90	 	 	 	 	 	 	 	 	 	 	 	 	 	 	 	 	 	 	1581508256	7.50	13.89
12/02/2020 11:50:57	120220	12022020	115057	204.35	12.422250	-57.245548	204.43	-0.350	-0.200	2.950	204.35	-1.70	3.60	 	 	 	 	 	 	 	 	 	 	 	 	 	 	 	 	 	 	1581508257	8.26	15.30
12/02/2020 11:50:58	120220	12022020	115058	204.35	12.422218	-57.245573	204.45	-0.180	-0.360	3.320	204.35	-1.60	3.70	 	 	 	 	 	 	 	 	 	 	 	 	 	 	 	 	 	 	1581508258	8.63	15.98
12/02/2020 11:50:59	120220	12022020	115059	204.79	12.422188	-57.245595	204.91	-0.070	0.180	2.990	204.79	-1.00	3.20	 	 	 	 	 	 	 	 	 	 	 	 	 	 	 	 	 	 	1581508259	7.83	14.50
12/02/2020 11:51:00	120220	12022020	115100	205.41	12.422162	-57.245610	205.50	-0.100	0.560	2.170	205.41	-0.90	2.30	 	 	 	 	 	 	 	 	 	 	 	 	 	 	 	 	 	 	1581508260	6.79	12.58
12/02/2020 11:51:01	120220	12022020	115101	205.81	12.422132	-57.245625	205.86	-0.080	-0.010	1.380	205.81	-1.80	1.60	 	 	 	 	 	 	 	 	 	 	 	 	 	 	 	 	 	 	1581508261	6.95	12.87
12/02/2020 11:51:02	120220	12022020	115102	205.94	12.422098	-57.245642	206.00	0.160	-1.160	0.880	205.94	-2.90	1.30	1016.10	26.60	26.70	20.50	20.60	365.0	69.0	69.0	415.0	27.2	251.00	9.80	77.00	11.80	21221	9081.0	27.6	27.6	1581508262	7.95	14.72
12/02/2020 11:51:03	120220	12022020	115103	205.85	12.422063	-57.245658	205.92	0.480	-1.900	0.820	205.85	-3.30	1.40	 	 	 	 	 	 	 	 	 	 	 	 	 	 	 	 	 	 	1581508263	8.44	15.63
12/02/2020 11:51:04	120220	12022020	115104	205.50	12.422032	-57.245678	205.57	0.580	-1.750	1.180	205.50	-2.90	1.80	 	 	 	 	 	 	 	 	 	 	 	 	 	 	 	 	 	 	1581508264	8.06	14.93
12/02/2020 11:51:05	120220	12022020	115105	204.90	12.422002	-57.245695	204.98	0.400	-0.910	1.710	204.90	-2.00	2.40	 	 	 	 	 	 	 	 	 	 	 	 	 	 	 	 	 	 	1581508265	7.51	13.91
12/02/2020 11:51:06	120220	12022020	115106	204.41	12.421972	-57.245713	204.50	-0.030	0.160	2.240	204.41	-0.90	2.80	 	 	 	 	 	 	 	 	 	 	 	 	 	 	 	 	 	 	1581508266	7.28	13.48
12/02/2020 11:51:07	120220	12022020	115107	204.49	12.421943	-57.245732	204.59	-0.540	1.100	2.460	204.49	-0.10	2.90	 	 	 	 	 	 	 	 	 	 	 	 	 	 	 	 	 	 	1581508267	7.33	13.58
12/02/2020 11:51:08	120220	12022020	115108	205.00	12.421913	-57.245750	205.10	-0.870	1.370	2.520	205.00	-0.10	3.00	 	 	 	 	 	 	 	 	 	 	 	 	 	 	 	 	 	 	1581508268	7.40	13.70
12/02/2020 11:51:09	120220	12022020	115109	205.35	12.421883	-57.245772	205.43	-0.790	0.760	2.780	205.35	-1.00	3.30	 	 	 	 	 	 	 	 	 	 	 	 	 	 	 	 	 	 	1581508269	7.92	14.67
12/02/2020 11:51:10	120220	12022020	115110	205.27	12.421852	-57.245795	205.35	-0.260	-0.230	3.120	205.27	-1.90	3.60	 	 	 	 	 	 	 	 	 	 	 	 	 	 	 	 	 	 	1581508270	8.59	15.91
12/02/2020 11:51:11	120220	12022020	115111	205.01	12.421818	-57.245818	205.09	0.350	-0.770	3.170	205.01	-2.20	3.50	 	 	 	 	 	 	 	 	 	 	 	 	 	 	 	 	 	 	1581508271	8.61	15.95
12/02/2020 11:51:12	120220	12022020	115112	204.84	12.421787	-57.245837	204.92	0.610	-0.620	2.790	204.84	-1.90	3.00	 	 	 	 	 	 	 	 	 	 	 	 	 	 	 	 	 	 	1581508272	7.79	14.43
12/02/2020 11:51:13	120220	12022020	115113	204.84	12.421758	-57.245852	204.92	0.450	-0.310	2.080	204.85	-1.70	2.30	 	 	 	 	 	 	 	 	 	 	 	 	 	 	 	 	 	 	1581508273	6.99	12.95
12/02/2020 11:51:14	120220	12022020	115114	204.80	12.421728	-57.245865	204.87	0.180	-0.440	1.610	204.80	-2.00	2.00	 	 	 	 	 	 	 	 	 	 	 	 	 	 	 	 	 	 	1581508274	6.93	12.83
12/02/2020 11:51:15	120220	12022020	115115	204.69	12.421698	-57.245883	204.76	0.150	-0.930	1.380	204.69	-2.40	1.80	 	 	 	 	 	 	 	 	 	 	 	 	 	 	 	 	 	 	1581508275	7.63	14.13
12/02/2020 11:51:16	120220	12022020	115116	204.64	12.421665	-57.245902	204.70	0.310	-1.060	1.240	204.64	-2.40	1.70	 	 	 	 	 	 	 	 	 	 	 	 	 	 	 	 	 	 	1581508276	8.04	14.89
12/02/2020 11:51:17	120220	12022020	115117	204.69	12.421633	-57.245918	204.75	0.320	-0.600	1.380	204.69	-1.80	2.00	 	 	 	 	 	 	 	 	 	 	 	 	 	 	 	 	 	 	1581508277	7.76	14.37
12/02/2020 11:51:18	120220	12022020	115118	204.82	12.421603	-57.245935	204.90	-0.010	0.100	1.770	204.82	-1.10	2.40	 	 	 	 	 	 	 	 	 	 	 	 	 	 	 	 	 	 	1581508278	7.31	13.54
12/02/2020 11:51:19	120220	12022020	115119	204.88	12.421575	-57.245953	204.95	-0.380	0.420	2.260	204.88	-1.00	2.90	 	 	 	 	 	 	 	 	 	 	 	 	 	 	 	 	 	 	1581508279	7.25	13.43
12/02/2020 11:51:20	120220	12022020	115120	204.78	12.421545	-57.245973	204.85	-0.410	0.150	2.650	204.78	-1.40	3.20	 	 	 	 	 	 	 	 	 	 	 	 	 	 	 	 	 	 	1581508280	7.80	14.45
12/02/2020 11:51:21	120220	12022020	115121	204.71	12.421512	-57.245995	204.79	-0.250	-0.270	2.740	204.71	-1.80	3.20	 	 	 	 	 	 	 	 	 	 	 	 	 	 	 	 	 	 	1581508281	8.34	15.45
12/02/2020 11:51:22	120220	12022020	115122	204.73	12.421478	-57.246013	204.81	-0.220	-0.420	2.630	204.73	-1.80	3.10	 	 	 	 	 	 	 	 	 	 	 	 	 	 	 	 	 	 	1581508282	8.22	15.22
12/02/2020 11:51:23	120220	12022020	115123	204.61	12.421447	-57.246032	204.68	-0.360	-0.370	2.560	204.61	-1.80	3.00	 	 	 	 	 	 	 	 	 	 	 	 	 	 	 	 	 	 	1581508283	7.76	14.37
12/02/2020 11:51:24	120220	12022020	115124	204.29	12.421417	-57.246052	204.36	-0.350	-0.340	2.620	204.29	-1.70	3.10	 	 	 	 	 	 	 	 	 	 	 	 	 	 	 	 	 	 	1581508284	7.60	14.08
12/02/2020 11:51:25	120220	12022020	115125	204.04	12.421388	-57.246073	204.12	-0.040	-0.310	2.620	204.04	-1.70	3.00	 	 	 	 	 	 	 	 	 	 	 	 	 	 	 	 	 	 	1581508285	7.71	14.28
12/02/2020 11:51:26	120220	12022020	115126	204.00	12.421357	-57.246092	204.09	0.360	-0.180	2.430	204.00	-1.50	2.80	 	 	 	 	 	 	 	 	 	 	 	 	 	 	 	 	 	 	1581508286	7.69	14.24
12/02/2020 11:51:27	120220	12022020	115127	204.18	12.421327	-57.246108	204.27	0.590	-0.090	1.890	204.18	-1.50	2.20	 	 	 	 	 	 	 	 	 	 	 	 	 	 	 	 	 	 	1581508287	7.55	13.98
12/02/2020 11:51:28	120220	12022020	115128	204.54	12.421293	-57.246123	204.61	0.580	-0.080	1.270	204.54	-1.50	1.60	 	 	 	 	 	 	 	 	 	 	 	 	 	 	 	 	 	 	1581508288	7.58	14.04
12/02/2020 11:51:29	120220	12022020	115129	204.98	12.421262	-57.246137	205.04	0.380	-0.050	0.880	204.98	-1.50	1.30	 	 	 	 	 	 	 	 	 	 	 	 	 	 	 	 	 	 	1581508289	7.59	14.06
12/02/2020 11:51:30	120220	12022020	115130	205.31	12.421228	-57.246150	205.37	0.050	-0.170	1.020	205.31	-1.70	1.70	 	 	 	 	 	 	 	 	 	 	 	 	 	 	 	 	 	 	1581508290	7.51	13.91
12/02/2020 11:51:31	120220	12022020	115131	205.29	12.421198	-57.246167	205.35	-0.320	-0.550	1.850	205.29	-2.10	2.70	 	 	 	 	 	 	 	 	 	 	 	 	 	 	 	 	 	 	1581508291	7.68	14.22
12/02/2020 11:51:32	120220	12022020	115132	204.87	12.421168	-57.246192	204.97	-0.540	-0.920	3.000	204.87	-2.40	3.80	 	 	 	 	 	 	 	 	 	 	 	 	 	 	 	 	 	 	1581508292	8.19	15.17
12/02/2020 11:51:33	120220	12022020	115133	204.37	12.421138	-57.246217	204.48	-0.510	-0.850	3.770	204.37	-2.10	4.30	 	 	 	 	 	 	 	 	 	 	 	 	 	 	 	 	 	 	1581508293	8.37	15.50
12/02/2020 11:51:34	120220	12022020	115134	204.07	12.421110	-57.246242	204.16	-0.250	-0.350	3.740	204.07	-1.60	4.00	 	 	 	 	 	 	 	 	 	 	 	 	 	 	 	 	 	 	1581508294	7.93	14.69
12/02/2020 11:51:35	120220	12022020	115135	204.08	12.421082	-57.246260	204.16	0.130	0.200	2.920	204.08	-1.10	3.00	 	 	 	 	 	 	 	 	 	 	 	 	 	 	 	 	 	 	1581508295	7.34	13.59
12/02/2020 11:51:36	120220	12022020	115136	204.33	12.421050	-57.246273	204.38	0.400	0.330	1.760	204.33	-1.20	1.90	 	 	 	 	 	 	 	 	 	 	 	 	 	 	 	 	 	 	1581508296	7.28	13.48
12/02/2020 11:51:37	120220	12022020	115137	204.58	12.421017	-57.246283	204.62	0.380	-0.040	0.960	204.58	-1.60	1.30	 	 	 	 	 	 	 	 	 	 	 	 	 	 	 	 	 	 	1581508297	7.69	14.24
12/02/2020 11:51:38	120220	12022020	115138	204.73	12.420982	-57.246297	204.76	0.150	-0.530	0.650	204.73	-2.00	1.10	 	 	 	 	 	 	 	 	 	 	 	 	 	 	 	 	 	 	1581508298	8.00	14.82
12/02/2020 11:51:39	120220	12022020	115139	204.72	12.420948	-57.246313	204.73	-0.100	-0.720	0.730	204.69	-2.10	1.30	 	 	 	 	 	 	 	 	 	 	 	 	 	 	 	 	 	 	1581508299	7.96	14.74
12/02/2020 11:51:40	120220	12022020	115140	204.38	12.420917	-57.246332	204.42	-0.230	-0.690	1.170	204.38	-2.10	1.80	 	 	 	 	 	 	 	 	 	 	 	 	 	 	 	 	 	 	1581508300	7.72	14.30
12/02/2020 11:51:41	120220	12022020	115141	203.97	12.420887	-57.246352	203.93	-0.250	-0.590	1.780	203.86	-1.90	2.40	 	 	 	 	 	 	 	 	 	 	 	 	 	 	 	 	 	 	1581508301	7.76	14.37
12/02/2020 11:51:42	120220	12022020	115142	203.42	12.420857	-57.246373	203.50	-0.210	-0.330	2.140	203.42	-1.60	2.60	 	 	 	 	 	 	 	 	 	 	 	 	 	 	 	 	 	 	1581508302	7.87	14.58
12/02/2020 11:51:43	120220	12022020	115143	203.11	12.420827	-57.246393	203.17	-0.160	0.070	2.130	203.11	-1.20	2.50	 	 	 	 	 	 	 	 	 	 	 	 	 	 	 	 	 	 	1581508303	7.69	14.24
12/02/2020 11:51:44	120220	12022020	115144	202.99	12.420798	-57.246412	203.06	-0.140	0.460	1.790	202.99	-0.90	2.10	 	 	 	 	 	 	 	 	 	 	 	 	 	 	 	 	 	 	1581508304	7.42	13.74
12/02/2020 11:51:45	120220	12022020	115145	203.00	12.420768	-57.246428	203.06	-0.140	0.550	1.290	203.00	-0.90	1.60	 	 	 	 	 	 	 	 	 	 	 	 	 	 	 	 	 	 	1581508305	7.25	13.43
12/02/2020 11:51:46	120220	12022020	115146	202.74	12.420738	-57.246443	202.79	-0.070	0.150	0.970	202.74	-1.50	1.40	 	 	 	 	 	 	 	 	 	 	 	 	 	 	 	 	 	 	1581508306	7.30	13.52
12/02/2020 11:51:47	120220	12022020	115147	201.97	12.420707	-57.246462	202.01	0.140	-0.660	1.120	201.97	-2.30	1.70	 	 	 	 	 	 	 	 	 	 	 	 	 	 	 	 	 	 	1581508307	7.71	14.28
12/02/2020 11:51:48	120220	12022020	115148	200.95	12.420673	-57.246480	200.98	0.360	-1.160	1.500	200.95	-2.60	2.10	 	 	 	 	 	 	 	 	 	 	 	 	 	 	 	 	 	 	1581508308	8.08	14.96
12/02/2020 11:51:49	120220	12022020	115149	200.16	12.420643	-57.246498	200.02	0.400	-0.930	1.880	199.99	-2.10	2.40	 	 	 	 	 	 	 	 	 	 	 	 	 	 	 	 	 	 	1581508309	7.75	14.35
12/02/2020 11:51:50	120220	12022020	115150	199.30	12.420615	-57.246517	199.34	0.200	-0.230	2.040	199.30	-1.40	2.50	 	 	 	 	 	 	 	 	 	 	 	 	 	 	 	 	 	 	1581508310	7.09	13.13
12/02/2020 11:51:51	120220	12022020	115151	198.78	12.420587	-57.246532	198.81	-0.070	0.310	2.050	198.78	-1.00	2.50	 	 	 	 	 	 	 	 	 	 	 	 	 	 	 	 	 	 	1581508311	6.68	12.37
12/02/2020 11:51:52	120220	12022020	115152	198.33	12.420558	-57.246547	198.21	-0.190	0.280	2.050	198.21	-1.30	2.50	 	 	 	 	 	 	 	 	 	 	 	 	 	 	 	 	 	 	1581508312	6.87	12.72
12/02/2020 11:51:53	120220	12022020	115153	197.34	12.420528	-57.246563	197.34	-0.040	-0.320	2.160	197.34	-1.90	2.70	 	 	 	 	 	 	 	 	 	 	 	 	 	 	 	 	 	 	1581508313	7.42	13.74
12/02/2020 11:51:54	120220	12022020	115154	196.11	12.420497	-57.246582	196.14	0.140	-0.930	2.520	196.11	-2.40	3.10	 	 	 	 	 	 	 	 	 	 	 	 	 	 	 	 	 	 	1581508314	7.92	14.67
12/02/2020 11:51:55	120220	12022020	115155	194.77	12.420463	-57.246598	194.79	0.040	-0.920	3.050	194.77	-2.10	3.70	 	 	 	 	 	 	 	 	 	 	 	 	 	 	 	 	 	 	1581508315	7.86	14.56
12/02/2020 11:51:56	120220	12022020	115156	193.62	12.420435	-57.246617	193.63	-0.340	-0.240	3.410	193.62	-1.40	3.90	 	 	 	 	 	 	 	 	 	 	 	 	 	 	 	 	 	 	1581508316	7.27	13.46
12/02/2020 11:51:57	120220	12022020	115157	192.84	12.420410	-57.246635	192.86	-0.670	0.500	3.340	192.84	-0.80	3.70	 	 	 	 	 	 	 	 	 	 	 	 	 	 	 	 	 	 	1581508317	6.66	12.33
12/02/2020 11:51:58	120220	12022020	115158	192.15	12.420383	-57.246650	192.17	-0.540	0.570	3.030	192.15	-1.00	3.40	 	 	 	 	 	 	 	 	 	 	 	 	 	 	 	 	 	 	1581508318	6.59	12.20
12/02/2020 11:51:59	120220	12022020	115159	191.20	12.420353	-57.246665	191.22	0.100	-0.070	2.670	191.20	-1.70	3.00	 	 	 	 	 	 	 	 	 	 	 	 	 	 	 	 	 	 	1581508319	7.15	13.24
12/02/2020 11:52:00	120220	12022020	115200	190.39	12.420320	-57.246677	190.24	0.700	-0.640	2.260	190.21	-2.00	2.60	 	 	 	 	 	 	 	 	 	 	 	 	 	 	 	 	 	 	1581508320	7.63	14.13
12/02/2020 11:52:01	120220	12022020	115201	189.42	12.420287	-57.246685	189.46	0.700	-0.430	1.870	189.42	-1.60	2.30	1016.20	26.60	26.70	20.50	20.60	385.0	69.0	69.0	415.0	27.3	254.00	10.40	78.00	12.10	22130	9094.0	27.6	27.6	1581508321	7.14	13.22
12/02/2020 11:52:02	120220	12022020	115202	188.73	12.420260	-57.246693	188.75	0.180	0.200	1.680	188.73	-1.00	2.20	 	 	 	 	 	 	 	 	 	 	 	 	 	 	 	 	 	 	1581508322	6.04	11.19
12/02/2020 11:52:03	120220	12022020	115203	188.05	12.420235	-57.246702	187.86	-0.270	0.370	1.970	187.85	-1.10	2.60	 	 	 	 	 	 	 	 	 	 	 	 	 	 	 	 	 	 	1581508323	5.67	10.50
12/02/2020 11:52:04	120220	12022020	115204	186.90	12.420208	-57.246717	186.68	-0.240	-0.230	2.630	186.65	-1.90	3.40	 	 	 	 	 	 	 	 	 	 	 	 	 	 	 	 	 	 	1581508324	6.48	12.00
12/02/2020 11:52:05	120220	12022020	115205	185.22	12.420178	-57.246732	185.26	0.190	-0.990	3.420	185.22	-2.50	4.10	 	 	 	 	 	 	 	 	 	 	 	 	 	 	 	 	 	 	1581508325	7.38	13.67
12/02/2020 11:52:06	120220	12022020	115206	183.67	12.420147	-57.246747	183.74	0.540	-1.120	4.130	183.67	-2.40	4.70	 	 	 	 	 	 	 	 	 	 	 	 	 	 	 	 	 	 	1581508326	7.41	13.72
12/02/2020 11:52:07	120220	12022020	115207	182.56	12.420118	-57.246757	182.40	0.420	-0.520	4.300	182.32	-1.60	4.70	 	 	 	 	 	 	 	 	 	 	 	 	 	 	 	 	 	 	1581508327	6.64	12.30
12/02/2020 11:52:08	120220	12022020	115208	181.64	12.420092	-57.246765	181.61	-0.140	0.310	3.810	181.53	-0.80	4.10	 	 	 	 	 	 	 	 	 	 	 	 	 	 	 	 	 	 	1581508328	5.85	10.83
12/02/2020 11:52:09	120220	12022020	115209	181.16	12.420067	-57.246773	181.24	-0.780	0.860	3.280	181.16	-0.50	3.60	 	 	 	 	 	 	 	 	 	 	 	 	 	 	 	 	 	 	1581508329	5.52	10.22
12/02/2020 11:52:10	120220	12022020	115210	180.90	12.420042	-57.246783	180.88	-0.930	0.710	2.870	180.83	-0.90	3.20	 	 	 	 	 	 	 	 	 	 	 	 	 	 	 	 	 	 	1581508330	5.81	10.76
12/02/2020 11:52:11	120220	12022020	115211	180.39	12.420015	-57.246793	180.27	-0.400	-0.070	2.340	180.25	-1.80	2.60	 	 	 	 	 	 	 	 	 	 	 	 	 	 	 	 	 	 	1581508331	6.33	11.72
12/02/2020 11:52:12	120220	12022020	115212	179.47	12.419985	-57.246800	179.24	0.420	-1.030	1.950	179.23	-2.60	2.40	 	 	 	 	 	 	 	 	 	 	 	 	 	 	 	 	 	 	1581508332	6.60	12.22
12/02/2020 11:52:13	120220	12022020	115213	178.05	12.419953	-57.246803	177.71	0.890	-1.540	2.170	177.70	-2.90	2.80	 	 	 	 	 	 	 	 	 	 	 	 	 	 	 	 	 	 	1581508333	6.60	12.22
12/02/2020 11:52:14	120220	12022020	115214	176.33	12.419925	-57.246808	176.01	0.750	-1.270	2.680	176.00	-2.30	3.30	 	 	 	 	 	 	 	 	 	 	 	 	 	 	 	 	 	 	1581508334	6.27	11.61
12/02/2020 11:52:15	120220	12022020	115215	174.73	12.419898	-57.246813	174.77	0.140	-0.180	3.100	174.73	-1.10	3.70	 	 	 	 	 	 	 	 	 	 	 	 	 	 	 	 	 	 	1581508335	5.75	10.65
12/02/2020 11:52:16	120220	12022020	115216	174.12	12.419877	-57.246820	174.06	-0.500	1.060	3.350	174.02	-0.00	3.90	 	 	 	 	 	 	 	 	 	 	 	 	 	 	 	 	 	 	1581508336	5.18	9.59
12/02/2020 11:52:17	120220	12022020	115217	173.58	12.419853	-57.246830	173.61	-0.760	1.500	3.370	173.58	0.00	3.80	 	 	 	 	 	 	 	 	 	 	 	 	 	 	 	 	 	 	1581508337	5.15	9.54
12/02/2020 11:52:18	120220	12022020	115218	173.16	12.419828	-57.246838	173.06	-0.520	0.780	3.230	173.04	-1.00	3.60	 	 	 	 	 	 	 	 	 	 	 	 	 	 	 	 	 	 	1581508338	5.74	10.63
12/02/2020 11:52:19	120220	12022020	115219	172.26	12.419798	-57.246843	172.29	-0.010	-0.450	3.060	172.26	-2.10	3.50	 	 	 	 	 	 	 	 	 	 	 	 	 	 	 	 	 	 	1581508339	6.48	12.00
12/02/2020 11:52:20	120220	12022020	115220	171.48	12.419768	-57.246848	171.27	0.360	-1.190	3.030	171.26	-2.60	3.50	 	 	 	 	 	 	 	 	 	 	 	 	 	 	 	 	 	 	1581508340	6.52	12.08
12/02/2020 11:52:21	120220	12022020	115221	170.29	12.419742	-57.246852	170.07	0.360	-1.100	3.080	170.05	-2.30	3.50	 	 	 	 	 	 	 	 	 	 	 	 	 	 	 	 	 	 	1581508341	5.80	10.74
12/02/2020 11:52:22	120220	12022020	115222	169.20	12.419718	-57.246853	169.04	0.070	-0.450	2.970	169.01	-1.50	3.30	 	 	 	 	 	 	 	 	 	 	 	 	 	 	 	 	 	 	1581508342	5.03	9.32
12/02/2020 11:52:23	120220	12022020	115223	168.42	12.419698	-57.246857	168.31	-0.220	0.250	2.600	168.29	-1.00	2.90	 	 	 	 	 	 	 	 	 	 	 	 	 	 	 	 	 	 	1581508343	4.57	8.46
12/02/2020 11:52:24	120220	12022020	115224	167.69	12.419677	-57.246860	167.53	-0.180	0.410	2.250	167.51	-1.10	2.70	 	 	 	 	 	 	 	 	 	 	 	 	 	 	 	 	 	 	1581508344	4.53	8.39
12/02/2020 11:52:25	120220	12022020	115225	166.61	12.419653	-57.246862	166.34	0.270	-0.230	2.230	166.33	-1.90	2.80	 	 	 	 	 	 	 	 	 	 	 	 	 	 	 	 	 	 	1581508345	5.09	9.43
12/02/2020 11:52:26	120220	12022020	115226	165.15	12.419625	-57.246860	164.87	0.780	-1.110	2.520	164.86	-2.60	3.10	 	 	 	 	 	 	 	 	 	 	 	 	 	 	 	 	 	 	1581508346	5.94	11.00
12/02/2020 11:52:27	120220	12022020	115227	163.94	12.419597	-57.246858	163.78	0.770	-1.210	2.780	163.76	-2.30	3.40	 	 	 	 	 	 	 	 	 	 	 	 	 	 	 	 	 	 	1581508347	6.11	11.32
12/02/2020 11:52:28	120220	12022020	115228	163.27	12.419573	-57.246858	163.25	0.030	-0.280	3.190	163.19	-1.20	3.80	 	 	 	 	 	 	 	 	 	 	 	 	 	 	 	 	 	 	1581508348	5.20	9.63
12/02/2020 11:52:29	120220	12022020	115229	163.01	12.419553	-57.246863	163.05	-1.080	0.970	3.760	162.98	-0.10	4.40	 	 	 	 	 	 	 	 	 	 	 	 	 	 	 	 	 	 	1581508349	4.38	8.11
12/02/2020 11:52:30	120220	12022020	115230	162.84	12.419533	-57.246873	162.86	-1.800	1.530	4.170	162.79	0.10	4.70	 	 	 	 	 	 	 	 	 	 	 	 	 	 	 	 	 	 	1581508350	4.67	8.65
12/02/2020 11:52:31	120220	12022020	115231	162.38	12.419510	-57.246883	162.30	-1.520	0.850	4.320	162.23	-0.90	4.80	 	 	 	 	 	 	 	 	 	 	 	 	 	 	 	 	 	 	1581508351	5.50	10.19
12/02/2020 11:52:32	120220	12022020	115232	161.42	12.419483	-57.246892	161.24	-0.300	-0.530	4.230	161.18	-2.20	4.60	 	 	 	 	 	 	 	 	 	 	 	 	 	 	 	 	 	 	1581508352	6.26	11.59
12/02/2020 11:52:33	120220	12022020	115233	160.16	12.419453	-57.246893	159.96	1.110	-1.430	3.640	159.91	-2.80	3.80	 	 	 	 	 	 	 	 	 	 	 	 	 	 	 	 	 	 	1581508353	6.15	11.39
12/02/2020 11:52:34	120220	12022020	115234	159.07	12.419432	-57.246887	158.92	1.850	-1.230	2.310	158.90	-2.30	2.20	 	 	 	 	 	 	 	 	 	 	 	 	 	 	 	 	 	 	1581508354	5.03	9.32
12/02/2020 11:52:35	120220	12022020	115235	158.32	12.419417	-57.246873	158.17	1.620	-0.490	0.660	158.18	-1.60	0.70	 	 	 	 	 	 	 	 	 	 	 	 	 	 	 	 	 	 	1581508355	4.12	7.63
12/02/2020 11:52:36	120220	12022020	115236	157.65	12.419405	-57.246860	157.48	0.710	0.000	-0.330	157.51	-1.20	0.10	 	 	 	 	 	 	 	 	 	 	 	 	 	 	 	 	 	 	1581508356	3.94	7.30
12/02/2020 11:52:37	120220	12022020	115237	156.91	12.419388	-57.246853	156.75	-0.400	0.180	0.040	156.75	-1.10	0.90	 	 	 	 	 	 	 	 	 	 	 	 	 	 	 	 	 	 	1581508357	3.92	7.26
12/02/2020 11:52:38	120220	12022020	115238	156.08	12.419367	-57.246855	155.95	-1.260	0.380	1.400	155.92	-0.80	2.40	 	 	 	 	 	 	 	 	 	 	 	 	 	 	 	 	 	 	1581508358	4.72	8.74
12/02/2020 11:52:39	120220	12022020	115239	155.31	12.419342	-57.246865	155.25	-1.550	0.640	2.850	155.18	-0.70	3.70	 	 	 	 	 	 	 	 	 	 	 	 	 	 	 	 	 	 	1581508359	5.62	10.41
12/02/2020 11:52:40	120220	12022020	115240	154.65	12.419318	-57.246877	154.59	-1.160	0.390	3.940	154.50	-1.20	4.70	 	 	 	 	 	 	 	 	 	 	 	 	 	 	 	 	 	 	1581508360	5.75	10.65
12/02/2020 11:52:41	120220	12022020	115241	153.78	12.419293	-57.246885	153.68	-0.190	-0.660	4.710	153.57	-2.40	5.30	 	 	 	 	 	 	 	 	 	 	 	 	 	 	 	 	 	 	1581508361	5.72	10.59
12/02/2020 11:52:42	120220	12022020	115242	152.60	12.419265	-57.246887	152.47	0.880	-1.810	5.060	152.35	-3.30	5.50	 	 	 	 	 	 	 	 	 	 	 	 	 	 	 	 	 	 	1581508362	5.90	10.93
12/02/2020 11:52:43	120220	12022020	115243	151.38	12.419240	-57.246882	151.28	1.400	-1.820	4.610	151.18	-2.80	4.70	 	 	 	 	 	 	 	 	 	 	 	 	 	 	 	 	 	 	1581508363	5.45	10.09
12/02/2020 11:52:44	120220	12022020	115244	150.57	12.419223	-57.246873	150.59	1.010	-0.260	3.280	150.49	-0.90	3.20	 	 	 	 	 	 	 	 	 	 	 	 	 	 	 	 	 	 	1581508364	3.90	7.22
12/02/2020 11:52:45	120220	12022020	115245	150.35	12.419217	-57.246865	150.42	-0.010	1.720	1.490	150.35	0.80	1.40	 	 	 	 	 	 	 	 	 	 	 	 	 	 	 	 	 	 	1581508365	2.28	4.22
12/02/2020 11:52:46	120220	12022020	115246	150.34	12.419212	-57.246858	150.35	-0.890	2.310	-0.010	150.30	0.70	0.20	 	 	 	 	 	 	 	 	 	 	 	 	 	 	 	 	 	 	1581508366	1.82	3.37
12/02/2020 11:52:47	120220	12022020	115247	149.94	12.419198	-57.246852	149.83	-0.910	0.760	-0.530	149.79	-1.30	0.00	 	 	 	 	 	 	 	 	 	 	 	 	 	 	 	 	 	 	1581508367	3.12	5.78
12/02/2020 11:52:48	120220	12022020	115248	148.98	12.419175	-57.246847	148.77	-0.230	-1.570	-0.040	148.75	-3.40	0.70	 	 	 	 	 	 	 	 	 	 	 	 	 	 	 	 	 	 	1581508368	5.37	9.95
12/02/2020 11:52:49	120220	12022020	115249	147.90	12.419147	-57.246842	147.74	0.430	-2.650	1.020	147.71	-3.90	1.90	 	 	 	 	 	 	 	 	 	 	 	 	 	 	 	 	 	 	1581508369	6.09	11.28
12/02/2020 11:52:50	120220	12022020	115250	147.09	12.419123	-57.246843	147.02	0.550	-1.830	2.150	146.95	-2.60	2.90	 	 	 	 	 	 	 	 	 	 	 	 	 	 	 	 	 	 	1581508370	4.98	9.22
12/02/2020 11:52:51	120220	12022020	115251	146.47	12.419108	-57.246848	146.43	0.210	-0.190	2.950	146.34	-1.00	3.60	 	 	 	 	 	 	 	 	 	 	 	 	 	 	 	 	 	 	1581508371	3.56	6.59
12/02/2020 11:52:52	120220	12022020	115252	145.86	12.419095	-57.246853	145.83	-0.160	0.970	3.350	145.74	-0.10	3.80	 	 	 	 	 	 	 	 	 	 	 	 	 	 	 	 	 	 	1581508372	3.03	5.61
12/02/2020 11:52:53	120220	12022020	115253	145.30	12.419078	-57.246853	145.28	-0.330	1.310	3.400	145.19	-0.00	3.80	 	 	 	 	 	 	 	 	 	 	 	 	 	 	 	 	 	 	1581508373	3.29	6.09
12/02/2020 11:52:54	120220	12022020	115254	144.78	12.419062	-57.246852	144.78	-0.270	1.010	3.140	144.69	-0.50	3.40	 	 	 	 	 	 	 	 	 	 	 	 	 	 	 	 	 	 	1581508374	3.65	6.76
12/02/2020 11:52:55	120220	12022020	115255	144.25	12.419045	-57.246847	144.22	-0.010	0.190	2.640	144.14	-1.40	2.90	 	 	 	 	 	 	 	 	 	 	 	 	 	 	 	 	 	 	1581508375	3.74	6.93
12/02/2020 11:52:56	120220	12022020	115256	143.59	12.419028	-57.246840	143.53	0.320	-0.750	2.100	143.45	-2.30	2.40	 	 	 	 	 	 	 	 	 	 	 	 	 	 	 	 	 	 	1581508376	3.87	7.17
12/02/2020 11:52:57	120220	12022020	115257	142.88	12.419013	-57.246832	142.81	0.510	-1.240	1.640	142.74	-2.50	2.00	 	 	 	 	 	 	 	 	 	 	 	 	 	 	 	 	 	 	1581508377	3.81	7.06
12/02/2020 11:52:58	120220	12022020	115258	142.25	12.419000	-57.246825	142.19	0.430	-1.100	1.340	142.13	-2.30	1.80	 	 	 	 	 	 	 	 	 	 	 	 	 	 	 	 	 	 	1581508378	3.34	6.19
12/02/2020 11:52:59	120220	12022020	115259	141.64	12.418987	-57.246820	141.54	0.250	-0.770	1.310	141.49	-2.00	1.80	 	 	 	 	 	 	 	 	 	 	 	 	 	 	 	 	 	 	1581508379	3.00	5.56
12/02/2020 11:53:00	120220	12022020	115300	140.82	12.418972	-57.246818	140.67	0.190	-0.540	1.630	140.63	-1.70	2.20	 	 	 	 	 	 	 	 	 	 	 	 	 	 	 	 	 	 	1581508380	3.26	6.04
12/02/2020 11:53:01	120220	12022020	115301	139.81	12.418955	-57.246815	139.66	0.110	-0.130	2.150	139.62	-1.20	2.70	 	 	 	 	 	 	 	 	 	 	 	 	 	 	 	 	 	 	1581508381	3.64	6.74
12/02/2020 11:53:02	120220	12022020	115302	138.96	12.418938	-57.246813	138.87	-0.250	0.690	2.490	138.83	-0.30	3.00	1016.10	26.60	26.70	20.40	20.50	384.0	69.0	69.0	414.0	27.4	288.00	11.20	77.00	11.10	23092	10351.0	27.6	27.5	1581508382	3.46	6.41
12/02/2020 11:53:03	120220	12022020	115303	138.49	12.418925	-57.246812	138.49	-0.780	1.390	2.460	138.43	0.20	2.80	 	 	 	 	 	 	 	 	 	 	 	 	 	 	 	 	 	 	1581508383	2.94	5.44
12/02/2020 11:53:04	120220	12022020	115304	138.23	12.418912	-57.246812	138.21	-1.020	1.170	2.280	138.16	-0.50	2.70	 	 	 	 	 	 	 	 	 	 	 	 	 	 	 	 	 	 	1581508384	2.83	5.24
12/02/2020 11:53:05	120220	12022020	115305	137.79	12.418895	-57.246810	137.71	-0.580	-0.120	2.230	137.67	-1.90	2.70	 	 	 	 	 	 	 	 	 	 	 	 	 	 	 	 	 	 	1581508385	3.51	6.50
12/02/2020 11:53:06	120220	12022020	115306	137.09	12.418877	-57.246803	136.97	0.320	-1.580	2.210	136.95	-3.20	2.60	 	 	 	 	 	 	 	 	 	 	 	 	 	 	 	 	 	 	1581508386	4.34	8.04
12/02/2020 11:53:07	120220	12022020	115307	136.21	12.418858	-57.246795	136.03	1.090	-2.110	2.120	136.03	-3.30	2.50	 	 	 	 	 	 	 	 	 	 	 	 	 	 	 	 	 	 	1581508387	4.25	7.87
12/02/2020 11:53:08	120220	12022020	115308	135.26	12.418845	-57.246788	135.08	1.180	-1.290	1.870	135.09	-2.10	2.20	 	 	 	 	 	 	 	 	 	 	 	 	 	 	 	 	 	 	1581508388	3.18	5.89
12/02/2020 11:53:09	120220	12022020	115309	134.41	12.418838	-57.246783	134.23	0.590	0.160	1.670	134.25	-0.70	2.10	 	 	 	 	 	 	 	 	 	 	 	 	 	 	 	 	 	 	1581508389	1.93	3.57
12/02/2020 11:53:10	120220	12022020	115310	133.69	12.418830	-57.246780	133.55	-0.160	1.150	1.620	133.57	-0.00	2.00	 	 	 	 	 	 	 	 	 	 	 	 	 	 	 	 	 	 	1581508390	1.55	2.87
12/02/2020 11:53:11	120220	12022020	115311	133.15	12.418822	-57.246777	133.05	-0.520	1.090	1.540	133.06	-0.40	1.90	 	 	 	 	 	 	 	 	 	 	 	 	 	 	 	 	 	 	1581508391	2.25	4.17
12/02/2020 11:53:12	120220	12022020	115312	132.67	12.418807	-57.246772	132.56	-0.370	0.230	1.490	132.56	-1.40	1.90	 	 	 	 	 	 	 	 	 	 	 	 	 	 	 	 	 	 	1581508392	3.23	5.98
12/02/2020 11:53:13	120220	12022020	115313	132.05	12.418790	-57.246763	131.92	-0.050	-0.660	1.740	131.91	-2.10	2.30	 	 	 	 	 	 	 	 	 	 	 	 	 	 	 	 	 	 	1581508393	3.87	7.17
12/02/2020 11:53:14	120220	12022020	115314	131.35	12.418773	-57.246758	131.24	0.010	-0.870	2.310	131.21	-2.00	2.90	 	 	 	 	 	 	 	 	 	 	 	 	 	 	 	 	 	 	1581508394	3.86	7.15
12/02/2020 11:53:15	120220	12022020	115315	130.71	12.418758	-57.246757	130.62	-0.240	-0.290	2.760	130.59	-1.30	3.20	 	 	 	 	 	 	 	 	 	 	 	 	 	 	 	 	 	 	1581508395	3.32	6.15
12/02/2020 11:53:16	120220	12022020	115316	130.16	12.418747	-57.246757	130.08	-0.550	0.420	2.780	130.05	-0.80	3.10	 	 	 	 	 	 	 	 	 	 	 	 	 	 	 	 	 	 	1581508396	2.56	4.74
12/02/2020 11:53:17	120220	12022020	115317	129.56	12.418737	-57.246757	129.43	-0.540	0.370	2.570	129.42	-1.10	2.90	 	 	 	 	 	 	 	 	 	 	 	 	 	 	 	 	 	 	1581508397	2.18	4.04
12/02/2020 11:53:18	120220	12022020	115318	128.76	12.418723	-57.246752	128.56	-0.070	-0.590	2.510	128.56	-2.20	2.90	 	 	 	 	 	 	 	 	 	 	 	 	 	 	 	 	 	 	1581508398	2.79	5.17
12/02/2020 11:53:19	120220	12022020	115319	127.72	12.418710	-57.246743	127.52	0.590	-1.580	2.550	127.52	-3.00	3.00	 	 	 	 	 	 	 	 	 	 	 	 	 	 	 	 	 	 	1581508399	3.69	6.83
12/02/2020 11:53:20	120220	12022020	115320	126.74	12.418695	-57.246733	126.60	0.950	-1.420	2.350	126.59	-2.30	2.60	 	 	 	 	 	 	 	 	 	 	 	 	 	 	 	 	 	 	1581508400	3.61	6.69
12/02/2020 11:53:21	120220	12022020	115321	126.04	12.418687	-57.246727	125.95	0.800	-0.110	1.660	125.93	-0.90	1.80	 	 	 	 	 	 	 	 	 	 	 	 	 	 	 	 	 	 	1581508401	2.25	4.17
12/02/2020 11:53:22	120220	12022020	115322	125.52	12.418685	-57.246723	125.43	0.300	1.130	0.800	125.42	0.10	1.00	 	 	 	 	 	 	 	 	 	 	 	 	 	 	 	 	 	 	1581508402	1.10	2.04
12/02/2020 11:53:23	120220	12022020	115323	125.02	12.418682	-57.246717	124.93	-0.280	1.390	0.370	124.93	-0.00	0.80	 	 	 	 	 	 	 	 	 	 	 	 	 	 	 	 	 	 	1581508403	1.27	2.35
12/02/2020 11:53:24	120220	12022020	115324	124.57	12.418675	-57.246710	124.49	-0.720	0.700	0.440	124.49	-0.90	1.00	 	 	 	 	 	 	 	 	 	 	 	 	 	 	 	 	 	 	1581508404	2.12	3.93
12/02/2020 11:53:25	120220	12022020	115325	124.18	12.418662	-57.246705	124.12	-0.830	-0.320	0.830	124.10	-1.90	1.40	 	 	 	 	 	 	 	 	 	 	 	 	 	 	 	 	 	 	1581508405	3.09	5.72
12/02/2020 11:53:26	120220	12022020	115326	123.70	12.418647	-57.246700	123.62	-0.580	-1.130	1.580	123.58	-2.50	2.30	 	 	 	 	 	 	 	 	 	 	 	 	 	 	 	 	 	 	1581508406	3.58	6.63
12/02/2020 11:53:27	120220	12022020	115327	122.98	12.418628	-57.246697	122.87	-0.120	-1.390	2.640	122.81	-2.60	3.40	 	 	 	 	 	 	 	 	 	 	 	 	 	 	 	 	 	 	1581508407	3.84	7.11
12/02/2020 11:53:28	120220	12022020	115328	122.08	12.418610	-57.246695	121.97	0.340	-1.090	3.600	121.88	-2.20	4.20	 	 	 	 	 	 	 	 	 	 	 	 	 	 	 	 	 	 	1581508408	3.78	7.00
12/02/2020 11:53:29	120220	12022020	115329	121.09	12.418597	-57.246695	121.00	0.590	-0.390	3.970	120.89	-1.40	4.30	 	 	 	 	 	 	 	 	 	 	 	 	 	 	 	 	 	 	1581508409	3.12	5.78
12/02/2020 11:53:30	120220	12022020	115330	120.15	12.418587	-57.246692	120.09	0.520	0.320	3.450	119.98	-0.80	3.50	 	 	 	 	 	 	 	 	 	 	 	 	 	 	 	 	 	 	1581508410	2.01	3.72
12/02/2020 11:53:31	120220	12022020	115331	119.38	12.418583	-57.246685	119.34	0.210	0.720	2.280	119.27	-0.50	2.20	 	 	 	 	 	 	 	 	 	 	 	 	 	 	 	 	 	 	1581508411	1.50	2.78
12/02/2020 11:53:32	120220	12022020	115332	118.85	12.418583	-57.246677	118.78	-0.050	0.590	0.900	118.76	-0.80	0.90	 	 	 	 	 	 	 	 	 	 	 	 	 	 	 	 	 	 	1581508412	1.86	3.44
12/02/2020 11:53:33	120220	12022020	115333	118.41	12.418583	-57.246665	118.33	-0.060	-0.010	-0.180	118.33	-1.50	-0.00	 	 	 	 	 	 	 	 	 	 	 	 	 	 	 	 	 	 	1581508413	2.26	4.19
12/02/2020 11:53:34	120220	12022020	115334	118.13	12.418578	-57.246655	118.07	0.020	-0.700	-0.850	118.10	-2.10	-0.50	 	 	 	 	 	 	 	 	 	 	 	 	 	 	 	 	 	 	1581508414	2.52	4.67
12/02/2020 11:53:35	120220	12022020	115335	117.99	12.418570	-57.246645	117.90	0.030	-1.070	-0.750	117.93	-2.30	-0.10	 	 	 	 	 	 	 	 	 	 	 	 	 	 	 	 	 	 	1581508415	2.63	4.87
12/02/2020 11:53:36	120220	12022020	115336	117.55	12.418558	-57.246640	117.38	-0.070	-0.830	0.380	117.40	-1.90	1.30	 	 	 	 	 	 	 	 	 	 	 	 	 	 	 	 	 	 	1581508416	2.94	5.44
12/02/2020 11:53:37	120220	12022020	115337	116.63	12.418542	-57.246640	116.42	-0.240	-0.050	2.010	116.41	-1.00	2.90	 	 	 	 	 	 	 	 	 	 	 	 	 	 	 	 	 	 	1581508417	3.37	6.24
12/02/2020 11:53:38	120220	12022020	115338	115.59	12.418527	-57.246643	115.47	-0.470	0.790	3.250	115.42	-0.30	3.90	 	 	 	 	 	 	 	 	 	 	 	 	 	 	 	 	 	 	1581508418	3.23	5.98
12/02/2020 11:53:39	120220	12022020	115339	114.91	12.418515	-57.246643	114.90	-0.600	0.970	3.720	114.82	-0.50	4.10	 	 	 	 	 	 	 	 	 	 	 	 	 	 	 	 	 	 	1581508419	2.60	4.82
12/02/2020 11:53:40	120220	12022020	115340	114.52	12.418505	-57.246642	114.51	-0.350	0.100	3.680	114.44	-1.60	4.00	 	 	 	 	 	 	 	 	 	 	 	 	 	 	 	 	 	 	1581508420	2.36	4.37
12/02/2020 11:53:41	120220	12022020	115341	114.01	12.418493	-57.246632	113.93	0.380	-1.260	3.540	113.87	-2.90	3.90	 	 	 	 	 	 	 	 	 	 	 	 	 	 	 	 	 	 	1581508421	2.89	5.35
12/02/2020 11:53:42	120220	12022020	115342	113.32	12.418485	-57.246620	113.24	1.070	-1.820	3.210	113.18	-2.90	3.40	 	 	 	 	 	 	 	 	 	 	 	 	 	 	 	 	 	 	1581508422	3.13	5.80
12/02/2020 11:53:43	120220	12022020	115343	112.77	12.418482	-57.246612	112.72	1.090	-0.980	2.520	112.69	-1.80	2.70	 	 	 	 	 	 	 	 	 	 	 	 	 	 	 	 	 	 	1581508423	2.13	3.94
12/02/2020 11:53:44	120220	12022020	115344	112.53	12.418482	-57.246608	112.54	0.360	0.470	1.710	112.52	-0.40	1.90	 	 	 	 	 	 	 	 	 	 	 	 	 	 	 	 	 	 	1581508424	0.82	1.52
12/02/2020 11:53:45	120220	12022020	115345	112.50	12.418482	-57.246607	112.52	-0.530	1.320	1.260	112.50	0.10	1.60	 	 	 	 	 	 	 	 	 	 	 	 	 	 	 	 	 	 	1581508425	0.21	0.39
12/02/2020 11:53:46	120220	12022020	115346	112.36	12.418475	-57.246605	112.33	-0.980	1.120	1.310	112.30	-0.40	1.80	 	 	 	 	 	 	 	 	 	 	 	 	 	 	 	 	 	 	1581508426	1.31	2.43
12/02/2020 11:53:47	120220	12022020	115347	111.93	12.418465	-57.246602	111.83	-0.810	0.180	1.590	111.80	-1.40	2.10	 	 	 	 	 	 	 	 	 	 	 	 	 	 	 	 	 	 	1581508427	2.47	4.57
12/02/2020 11:53:48	120220	12022020	115348	111.19	12.418453	-57.246595	111.07	-0.220	-0.860	1.910	111.03	-2.40	2.40	 	 	 	 	 	 	 	 	 	 	 	 	 	 	 	 	 	 	1581508428	2.84	5.26
12/02/2020 11:53:49	120220	12022020	115349	110.42	12.418443	-57.246587	110.35	0.360	-1.510	2.170	110.29	-2.80	2.70	 	 	 	 	 	 	 	 	 	 	 	 	 	 	 	 	 	 	1581508429	2.66	4.93
12/02/2020 11:53:50	120220	12022020	115350	109.90	12.418435	-57.246580	109.88	0.600	-1.480	2.390	109.83	-2.60	2.90	 	 	 	 	 	 	 	 	 	 	 	 	 	 	 	 	 	 	1581508430	2.23	4.13
12/02/2020 11:53:51	120220	12022020	115351	109.59	12.418428	-57.246575	109.59	0.450	-0.750	2.520	109.54	-1.70	2.90	 	 	 	 	 	 	 	 	 	 	 	 	 	 	 	 	 	 	1581508431	1.75	3.24
12/02/2020 11:53:52	120220	12022020	115352	109.34	12.418423	-57.246573	109.32	0.090	0.310	2.280	109.28	-0.60	2.50	 	 	 	 	 	 	 	 	 	 	 	 	 	 	 	 	 	 	1581508432	1.20	2.22
12/02/2020 11:53:53	120220	12022020	115353	109.13	12.418422	-57.246572	109.12	-0.250	1.150	1.530	109.10	0.00	1.70	 	 	 	 	 	 	 	 	 	 	 	 	 	 	 	 	 	 	1581508433	0.61	1.13
12/02/2020 11:53:54	120220	12022020	115354	109.07	12.418420	-57.246568	109.06	-0.390	1.190	0.670	109.06	-0.30	0.90	 	 	 	 	 	 	 	 	 	 	 	 	 	 	 	 	 	 	1581508434	0.66	1.22
12/02/2020 11:53:55	120220	12022020	115355	109.01	12.418418	-57.246563	108.99	-0.260	0.340	0.290	108.99	-1.30	0.70	 	 	 	 	 	 	 	 	 	 	 	 	 	 	 	 	 	 	1581508435	1.33	2.46
12/02/2020 11:53:56	120220	12022020	115356	108.76	12.418412	-57.246555	108.70	-0.040	-0.860	0.620	108.69	-2.40	1.20	 	 	 	 	 	 	 	 	 	 	 	 	 	 	 	 	 	 	1581508436	2.24	4.15
12/02/2020 11:53:57	120220	12022020	115357	108.29	12.418400	-57.246547	108.20	0.070	-1.550	1.300	108.19	-2.80	1.90	 	 	 	 	 	 	 	 	 	 	 	 	 	 	 	 	 	 	1581508437	2.76	5.11
12/02/2020 11:53:58	120220	12022020	115358	107.75	12.418390	-57.246542	107.67	0.070	-1.270	1.820	107.65	-2.30	2.30	 	 	 	 	 	 	 	 	 	 	 	 	 	 	 	 	 	 	1581508438	2.48	4.59
12/02/2020 11:53:59	120220	12022020	115359	107.21	12.418383	-57.246542	107.11	0.050	-0.230	2.060	107.10	-1.10	2.50	 	 	 	 	 	 	 	 	 	 	 	 	 	 	 	 	 	 	1581508439	1.65	3.06
12/02/2020 11:54:00	120220	12022020	115400	106.72	12.418378	-57.246542	106.65	0.020	0.830	2.070	106.63	-0.30	2.50	 	 	 	 	 	 	 	 	 	 	 	 	 	 	 	 	 	 	1581508440	0.88	1.63
12/02/2020 11:54:01	120220	12022020	115401	106.34	12.418377	-57.246542	106.31	0.030	0.960	1.910	106.29	-0.50	2.20	1016.00	26.60	26.70	20.50	20.60	391.0	69.0	69.0	412.0	27.4	321.00	12.30	78.00	11.50	23095	9914.0	27.6	27.5	1581508441	0.49	0.91
12/02/2020 11:54:02	120220	12022020	115402	106.15	12.418375	-57.246535	106.16	0.130	-0.010	1.500	106.13	-1.70	1.80	 	 	 	 	 	 	 	 	 	 	 	 	 	 	 	 	 	 	1581508442	1.25	2.31
12/02/2020 11:54:03	120220	12022020	115403	106.11	12.418372	-57.246525	106.16	0.220	-1.180	1.010	106.11	-2.60	1.30	 	 	 	 	 	 	 	 	 	 	 	 	 	 	 	 	 	 	1581508443	2.25	4.17
12/02/2020 11:54:04	120220	12022020	115404	106.11	12.418368	-57.246515	106.15	0.110	-1.350	0.900	106.11	-2.40	1.40	 	 	 	 	 	 	 	 	 	 	 	 	 	 	 	 	 	 	1581508444	2.22	4.11
12/02/2020 11:54:05	120220	12022020	115405	106.11	12.418362	-57.246512	106.16	-0.210	-0.360	1.300	106.10	-1.20	1.90	 	 	 	 	 	 	 	 	 	 	 	 	 	 	 	 	 	 	1581508445	1.52	2.82
12/02/2020 11:54:06	120220	12022020	115406	105.97	12.418353	-57.246515	105.98	-0.440	0.640	1.870	105.91	-0.50	2.40	 	 	 	 	 	 	 	 	 	 	 	 	 	 	 	 	 	 	1581508446	1.94	3.59
12/02/2020 11:54:07	120220	12022020	115407	105.54	12.418345	-57.246517	105.49	-0.300	0.700	2.190	105.43	-0.70	2.60	 	 	 	 	 	 	 	 	 	 	 	 	 	 	 	 	 	 	1581508447	1.83	3.39
12/02/2020 11:54:08	120220	12022020	115408	104.98	12.418338	-57.246513	104.93	0.020	0.070	2.160	104.87	-1.40	2.50	 	 	 	 	 	 	 	 	 	 	 	 	 	 	 	 	 	 	1581508448	1.59	2.94
12/02/2020 11:54:09	120220	12022020	115409	104.52	12.418335	-57.246505	104.53	0.220	-0.480	2.050	104.48	-1.80	2.40	 	 	 	 	 	 	 	 	 	 	 	 	 	 	 	 	 	 	1581508449	1.74	3.22
12/02/2020 11:54:10	120220	12022020	115410	104.34	12.418332	-57.246500	104.38	0.170	-0.660	1.940	104.33	-1.90	2.30	 	 	 	 	 	 	 	 	 	 	 	 	 	 	 	 	 	 	1581508450	1.41	2.61
12/02/2020 11:54:11	120220	12022020	115411	104.30	12.418328	-57.246495	104.34	0.110	-0.610	1.660	104.30	-1.80	1.90	 	 	 	 	 	 	 	 	 	 	 	 	 	 	 	 	 	 	1581508451	1.08	2.00
12/02/2020 11:54:12	120220	12022020	115412	104.32	12.418327	-57.246492	104.35	0.170	-0.520	1.160	104.33	-1.70	1.40	 	 	 	 	 	 	 	 	 	 	 	 	 	 	 	 	 	 	1581508452	0.99	1.83
12/02/2020 11:54:13	120220	12022020	115413	104.33	12.418325	-57.246487	104.33	0.160	-0.250	0.840	104.31	-1.40	1.30	 	 	 	 	 	 	 	 	 	 	 	 	 	 	 	 	 	 	1581508453	1.01	1.87
12/02/2020 11:54:14	120220	12022020	115414	104.18	12.418322	-57.246483	104.16	-0.110	0.300	1.060	104.14	-0.80	1.60	 	 	 	 	 	 	 	 	 	 	 	 	 	 	 	 	 	 	1581508454	0.89	1.65
12/02/2020 11:54:15	120220	12022020	115415	103.91	12.418315	-57.246485	103.90	-0.520	0.670	1.550	103.85	-0.60	2.10	 	 	 	 	 	 	 	 	 	 	 	 	 	 	 	 	 	 	1581508455	1.29	2.39
12/02/2020 11:54:16	120220	12022020	115416	103.60	12.418308	-57.246483	103.56	-0.660	0.370	1.870	103.52	-1.10	2.30	 	 	 	 	 	 	 	 	 	 	 	 	 	 	 	 	 	 	1581508456	1.57	2.91
12/02/2020 11:54:17	120220	12022020	115417	103.22	12.418302	-57.246480	103.18	-0.370	-0.390	1.990	103.13	-1.90	2.40	 	 	 	 	 	 	 	 	 	 	 	 	 	 	 	 	 	 	1581508457	1.66	3.07
12/02/2020 11:54:18	120220	12022020	115418	102.90	12.418297	-57.246473	102.92	0.110	-0.980	1.960	102.87	-2.30	2.40	 	 	 	 	 	 	 	 	 	 	 	 	 	 	 	 	 	 	1581508458	1.75	3.24
12/02/2020 11:54:19	120220	12022020	115419	102.84	12.418292	-57.246468	102.91	0.450	-1.080	1.850	102.85	-2.30	2.20	 	 	 	 	 	 	 	 	 	 	 	 	 	 	 	 	 	 	1581508459	1.44	2.67
12/02/2020 11:54:20	120220	12022020	115420	102.95	12.418288	-57.246465	103.04	0.520	-0.780	1.670	102.98	-1.90	2.00	 	 	 	 	 	 	 	 	 	 	 	 	 	 	 	 	 	 	1581508460	1.05	1.94
12/02/2020 11:54:21	120220	12022020	115421	102.98	12.418285	-57.246462	102.99	0.480	-0.390	1.490	102.95	-1.50	1.90	 	 	 	 	 	 	 	 	 	 	 	 	 	 	 	 	 	 	1581508461	0.87	1.61
12/02/2020 11:54:22	120220	12022020	115422	102.68	12.418283	-57.246460	102.62	0.440	-0.040	1.450	102.59	-1.20	1.90	 	 	 	 	 	 	 	 	 	 	 	 	 	 	 	 	 	 	1581508462	0.91	1.69
12/02/2020 11:54:23	120220	12022020	115423	102.18	12.418280	-57.246455	102.14	0.240	0.430	1.530	102.10	-0.60	2.00	 	 	 	 	 	 	 	 	 	 	 	 	 	 	 	 	 	 	1581508463	0.98	1.81
12/02/2020 11:54:24	120220	12022020	115424	101.84	12.418277	-57.246453	101.85	-0.220	0.980	1.530	101.81	-0.20	1.90	 	 	 	 	 	 	 	 	 	 	 	 	 	 	 	 	 	 	1581508464	0.68	1.26
12/02/2020 11:54:25	120220	12022020	115425	101.79	12.418275	-57.246453	101.85	-0.750	1.040	1.420	101.81	-0.40	1.80	 	 	 	 	 	 	 	 	 	 	 	 	 	 	 	 	 	 	1581508465	0.44	0.81
12/02/2020 11:54:26	120220	12022020	115426	101.91	12.418272	-57.246452	101.96	-0.970	0.300	1.390	101.94	-1.30	1.90	 	 	 	 	 	 	 	 	 	 	 	 	 	 	 	 	 	 	1581508466	0.71	1.31
12/02/2020 11:54:27	120220	12022020	115427	101.96	12.418267	-57.246448	101.98	-0.700	-0.810	1.610	101.95	-2.40	2.10	 	 	 	 	 	 	 	 	 	 	 	 	 	 	 	 	 	 	1581508467	1.52	2.82
12/02/2020 11:54:28	120220	12022020	115428	101.84	12.418258	-57.246442	101.86	-0.130	-1.580	1.950	101.79	-2.90	2.50	 	 	 	 	 	 	 	 	 	 	 	 	 	 	 	 	 	 	1581508468	2.09	3.87
12/02/2020 11:54:29	120220	12022020	115429	101.59	12.418250	-57.246438	101.59	0.410	-1.620	2.300	101.53	-2.70	2.90	 	 	 	 	 	 	 	 	 	 	 	 	 	 	 	 	 	 	1581508469	1.95	3.61
12/02/2020 11:54:30	120220	12022020	115430	101.26	12.418245	-57.246437	101.24	0.670	-1.000	2.680	101.18	-2.00	3.20	 	 	 	 	 	 	 	 	 	 	 	 	 	 	 	 	 	 	1581508470	1.42	2.63
12/02/2020 11:54:31	120220	12022020	115431	100.90	12.418240	-57.246435	100.92	0.580	-0.160	2.780	100.85	-1.20	3.10	 	 	 	 	 	 	 	 	 	 	 	 	 	 	 	 	 	 	1581508471	1.02	1.89
12/02/2020 11:54:32	120220	12022020	115432	100.72	12.418237	-57.246435	100.76	0.340	0.510	2.310	100.71	-0.60	2.50	 	 	 	 	 	 	 	 	 	 	 	 	 	 	 	 	 	 	1581508472	0.60	1.11
12/02/2020 11:54:33	120220	12022020	115433	100.71	12.418237	-57.246433	100.73	0.150	0.750	1.470	100.70	-0.50	1.70	 	 	 	 	 	 	 	 	 	 	 	 	 	 	 	 	 	 	1581508473	0.41	0.76
12/02/2020 11:54:34	120220	12022020	115434	100.65	12.418238	-57.246430	100.62	0.080	0.560	0.710	100.62	-0.80	1.00	 	 	 	 	 	 	 	 	 	 	 	 	 	 	 	 	 	 	1581508474	0.88	1.63
12/02/2020 11:54:35	120220	12022020	115435	100.55	12.418240	-57.246425	100.54	-0.010	0.200	0.140	100.54	-1.20	0.50	 	 	 	 	 	 	 	 	 	 	 	 	 	 	 	 	 	 	1581508475	1.12	2.07
12/02/2020 11:54:36	120220	12022020	115436	100.61	12.418242	-57.246420	100.63	-0.250	-0.080	-0.180	100.63	-1.40	0.30	 	 	 	 	 	 	 	 	 	 	 	 	 	 	 	 	 	 	1581508476	0.89	1.65
12/02/2020 11:54:37	120220	12022020	115437	100.67	12.418240	-57.246418	100.68	-0.460	-0.370	0.010	100.67	-1.70	0.70	 	 	 	 	 	 	 	 	 	 	 	 	 	 	 	 	 	 	1581508477	0.65	1.20
12/02/2020 11:54:38	120220	12022020	115438	100.62	12.418233	-57.246417	100.65	-0.450	-0.710	0.690	100.62	-2.00	1.40	 	 	 	 	 	 	 	 	 	 	 	 	 	 	 	 	 	 	1581508478	1.34	2.48
12/02/2020 11:54:39	120220	12022020	115439	100.65	12.418225	-57.246413	100.72	-0.280	-0.770	1.500	100.66	-1.90	2.20	 	 	 	 	 	 	 	 	 	 	 	 	 	 	 	 	 	 	1581508479	1.94	3.59
12/02/2020 11:54:40	120220	12022020	115440	100.65	12.418215	-57.246413	100.71	-0.090	-0.390	2.370	100.63	-1.50	3.10	 	 	 	 	 	 	 	 	 	 	 	 	 	 	 	 	 	 	1581508480	2.05	3.80
12/02/2020 11:54:41	120220	12022020	115441	100.42	12.418207	-57.246415	100.42	0.050	-0.040	3.150	100.34	-1.30	3.70	 	 	 	 	 	 	 	 	 	 	 	 	 	 	 	 	 	 	1581508481	1.93	3.57
12/02/2020 11:54:42	120220	12022020	115442	99.99	12.418200	-57.246415	99.99	0.200	-0.120	3.440	99.91	-1.50	3.80	 	 	 	 	 	 	 	 	 	 	 	 	 	 	 	 	 	 	1581508482	1.46	2.70
12/02/2020 11:54:43	120220	12022020	115443	99.74	12.418197	-57.246412	99.80	0.330	-0.450	3.010	99.74	-1.80	3.20	 	 	 	 	 	 	 	 	 	 	 	 	 	 	 	 	 	 	1581508483	0.98	1.81
12/02/2020 11:54:44	120220	12022020	115444	99.88	12.418198	-57.246407	99.98	0.320	-0.600	2.250	99.94	-1.80	2.50	 	 	 	 	 	 	 	 	 	 	 	 	 	 	 	 	 	 	1581508484	1.05	1.94
12/02/2020 11:54:45	120220	12022020	115445	100.27	12.418198	-57.246402	100.40	0.200	-0.380	1.530	100.35	-1.50	1.80	 	 	 	 	 	 	 	 	 	 	 	 	 	 	 	 	 	 	1581508485	0.79	1.46
12/02/2020 11:54:46	120220	12022020	115446	100.59	12.418197	-57.246402	100.65	0.100	0.050	1.030	100.61	-1.10	1.40	 	 	 	 	 	 	 	 	 	 	 	 	 	 	 	 	 	 	1581508486	0.43	0.80
12/02/2020 11:54:47	120220	12022020	115447	100.54	12.418195	-57.246400	100.49	0.080	0.360	0.680	100.48	-0.80	1.00	 	 	 	 	 	 	 	 	 	 	 	 	 	 	 	 	 	 	1581508487	0.51	0.94
12/02/2020 11:54:48	120220	12022020	115448	100.24	12.418193	-57.246400	100.20	0.010	0.460	0.370	100.20	-0.80	0.70	 	 	 	 	 	 	 	 	 	 	 	 	 	 	 	 	 	 	1581508488	0.33	0.61
12/02/2020 11:54:49	120220	12022020	115449	100.12	12.418193	-57.246397	100.12	-0.200	0.380	0.160	100.12	-0.90	0.60	 	 	 	 	 	 	 	 	 	 	 	 	 	 	 	 	 	 	1581508489	0.39	0.72
12/02/2020 11:54:50	120220	12022020	115450	100.23	12.418193	-57.246397	100.25	-0.490	0.150	0.260	100.26	-1.20	0.80	 	 	 	 	 	 	 	 	 	 	 	 	 	 	 	 	 	 	1581508490	0.31	0.57
12/02/2020 11:54:51	120220	12022020	115451	100.34	12.418192	-57.246395	100.36	-0.630	-0.260	0.680	100.35	-1.70	1.30	 	 	 	 	 	 	 	 	 	 	 	 	 	 	 	 	 	 	1581508491	0.55	1.02
12/02/2020 11:54:52	120220	12022020	115452	100.35	12.418185	-57.246393	100.37	-0.430	-0.890	1.330	100.34	-2.30	2.00	 	 	 	 	 	 	 	 	 	 	 	 	 	 	 	 	 	 	1581508492	1.27	2.35
12/02/2020 11:54:53	120220	12022020	115453	100.29	12.418177	-57.246392	100.33	0.080	-1.440	2.200	100.28	-2.80	2.90	 	 	 	 	 	 	 	 	 	 	 	 	 	 	 	 	 	 	1581508493	2.09	3.87
12/02/2020 11:54:54	120220	12022020	115454	100.22	12.418165	-57.246388	100.29	0.570	-1.370	2.950	100.21	-2.40	3.50	 	 	 	 	 	 	 	 	 	 	 	 	 	 	 	 	 	 	1581508494	2.44	4.52
12/02/2020 11:54:55	120220	12022020	115455	100.20	12.418157	-57.246388	100.27	0.740	-0.590	3.140	100.19	-1.60	3.50	 	 	 	 	 	 	 	 	 	 	 	 	 	 	 	 	 	 	1581508495	1.76	3.26
12/02/2020 11:54:56	120220	12022020	115456	100.17	12.418155	-57.246388	100.23	0.600	0.210	2.740	100.16	-0.90	3.00	 	 	 	 	 	 	 	 	 	 	 	 	 	 	 	 	 	 	1581508496	0.54	1.00
12/02/2020 11:54:57	120220	12022020	115457	100.10	12.418157	-57.246388	100.12	0.310	0.530	2.060	100.08	-0.70	2.30	 	 	 	 	 	 	 	 	 	 	 	 	 	 	 	 	 	 	1581508497	0.44	0.81
12/02/2020 11:54:58	120220	12022020	115458	99.98	12.418160	-57.246385	99.99	-0.060	0.590	1.360	99.97	-0.70	1.60	 	 	 	 	 	 	 	 	 	 	 	 	 	 	 	 	 	 	1581508498	0.81	1.50
12/02/2020 11:54:59	120220	12022020	115459	100.00	12.418162	-57.246383	100.06	-0.540	0.750	0.690	100.03	-0.50	0.90	 	 	 	 	 	 	 	 	 	 	 	 	 	 	 	 	 	 	1581508499	0.63	1.17
12/02/2020 11:55:00	120220	12022020	115500	100.28	12.418162	-57.246383	100.37	-1.000	0.910	0.150	100.34	-0.40	0.50	 	 	 	 	 	 	 	 	 	 	 	 	 	 	 	 	 	 	1581508500	0.04	0.07
12/02/2020 11:55:01	120220	12022020	115501	100.61	12.418158	-57.246385	100.69	-1.100	0.560	-0.030	100.67	-1.00	0.40	1016.10	26.50	26.60	20.30	20.40	384.0	68.0	68.0	410.0	27.5	333.00	12.60	74.00	12.10	22688	10130.0	27.6	27.5	1581508501	0.57	1.06
12/02/2020 11:55:02	120220	12022020	115502	100.84	12.418155	-57.246385	100.90	-0.590	-0.460	0.160	100.87	-2.10	0.70	 	 	 	 	 	 	 	 	 	 	 	 	 	 	 	 	 	 	1581508502	0.84	1.56
12/02/2020 11:55:03	120220	12022020	115503	100.94	12.418150	-57.246382	100.97	0.310	-1.570	0.620	100.94	-3.10	1.30	 	 	 	 	 	 	 	 	 	 	 	 	 	 	 	 	 	 	1581508503	1.24	2.30
12/02/2020 11:55:04	120220	12022020	115504	100.82	12.418145	-57.246378	100.79	1.000	-2.080	1.330	100.76	-3.40	2.10	 	 	 	 	 	 	 	 	 	 	 	 	 	 	 	 	 	 	1581508504	1.42	2.63
12/02/2020 11:55:05	120220	12022020	115505	100.39	12.418138	-57.246377	100.35	1.150	-1.900	2.320	100.28	-3.00	3.10	 	 	 	 	 	 	 	 	 	 	 	 	 	 	 	 	 	 	1581508505	1.45	2.69
12/02/2020 11:55:06	120220	12022020	115506	99.93	12.418132	-57.246375	99.98	0.810	-1.110	3.250	99.88	-2.00	3.90	 	 	 	 	 	 	 	 	 	 	 	 	 	 	 	 	 	 	1581508506	1.59	2.94
12/02/2020 11:55:07	120220	12022020	115507	99.95	12.418123	-57.246377	100.14	0.250	0.330	3.580	100.02	-0.40	3.90	 	 	 	 	 	 	 	 	 	 	 	 	 	 	 	 	 	 	1581508507	1.53	2.83
12/02/2020 11:55:08	120220	12022020	115508	100.43	12.418120	-57.246380	100.64	-0.330	1.830	3.110	100.54	0.90	3.20	 	 	 	 	 	 	 	 	 	 	 	 	 	 	 	 	 	 	1581508508	1.19	2.20
12/02/2020 11:55:09	120220	12022020	115509	100.91	12.418122	-57.246385	101.02	-0.660	2.240	1.940	100.97	0.80	1.90	 	 	 	 	 	 	 	 	 	 	 	 	 	 	 	 	 	 	1581508509	0.95	1.76
12/02/2020 11:55:10	120220	12022020	115510	101.07	12.418125	-57.246385	101.09	-0.620	1.250	0.550	101.08	-0.50	0.60	 	 	 	 	 	 	 	 	 	 	 	 	 	 	 	 	 	 	1581508510	0.93	1.72
12/02/2020 11:55:11	120220	12022020	115511	101.07	12.418130	-57.246378	101.09	-0.410	-0.230	-0.400	101.07	-1.90	-0.10	 	 	 	 	 	 	 	 	 	 	 	 	 	 	 	 	 	 	1581508511	1.48	2.74
12/02/2020 11:55:12	120220	12022020	115512	101.17	12.418130	-57.246373	101.23	-0.270	-1.260	-0.770	101.21	-2.70	-0.30	 	 	 	 	 	 	 	 	 	 	 	 	 	 	 	 	 	 	1581508512	1.12	2.07
12/02/2020 11:55:13	120220	12022020	115513	101.39	12.418128	-57.246372	101.43	-0.160	-1.620	-0.610	101.42	-2.90	0.00	 	 	 	 	 	 	 	 	 	 	 	 	 	 	 	 	 	 	1581508513	0.66	1.22
12/02/2020 11:55:14	120220	12022020	115514	101.42	12.418122	-57.246373	101.40	0.070	-1.580	0.050	101.39	-2.80	0.80	 	 	 	 	 	 	 	 	 	 	 	 	 	 	 	 	 	 	1581508514	1.26	2.33
12/02/2020 11:55:15	120220	12022020	115515	101.16	12.418115	-57.246373	101.12	0.370	-1.270	0.920	101.09	-2.40	1.60	 	 	 	 	 	 	 	 	 	 	 	 	 	 	 	 	 	 	1581508515	1.68	3.11
12/02/2020 11:55:16	120220	12022020	115516	100.86	12.418107	-57.246375	100.86	0.530	-0.650	1.730	100.81	-1.60	2.40	 	 	 	 	 	 	 	 	 	 	 	 	 	 	 	 	 	 	1581508516	1.61	2.98
12/02/2020 11:55:17	120220	12022020	115517	100.69	12.418100	-57.246377	100.75	0.400	0.280	2.410	100.68	-0.70	3.00	 	 	 	 	 	 	 	 	 	 	 	 	 	 	 	 	 	 	1581508517	1.33	2.46
12/02/2020 11:55:18	120220	12022020	115518	100.82	12.418097	-57.246380	100.97	0.010	1.190	2.660	100.89	0.10	3.00	 	 	 	 	 	 	 	 	 	 	 	 	 	 	 	 	 	 	1581508518	1.14	2.11
12/02/2020 11:55:19	120220	12022020	115519	101.32	12.418095	-57.246383	101.52	-0.320	1.420	2.300	101.45	-0.00	2.60	 	 	 	 	 	 	 	 	 	 	 	 	 	 	 	 	 	 	1581508519	0.83	1.54
12/02/2020 11:55:20	120220	12022020	115520	101.89	12.418093	-57.246383	102.02	-0.280	0.540	1.870	101.96	-1.20	2.30	 	 	 	 	 	 	 	 	 	 	 	 	 	 	 	 	 	 	1581508520	0.09	0.17
12/02/2020 11:55:21	120220	12022020	115521	102.00	12.418092	-57.246378	102.01	0.110	-0.890	2.000	101.95	-2.50	2.60	 	 	 	 	 	 	 	 	 	 	 	 	 	 	 	 	 	 	1581508521	1.08	2.00
12/02/2020 11:55:22	120220	12022020	115522	101.62	12.418085	-57.246372	101.59	0.430	-1.650	2.560	101.53	-2.90	3.20	 	 	 	 	 	 	 	 	 	 	 	 	 	 	 	 	 	 	1581508522	1.82	3.37
12/02/2020 11:55:23	120220	12022020	115523	101.22	12.418080	-57.246370	101.25	0.290	-1.020	2.920	101.18	-1.90	3.40	 	 	 	 	 	 	 	 	 	 	 	 	 	 	 	 	 	 	1581508523	1.41	2.61
12/02/2020 11:55:24	120220	12022020	115524	101.14	12.418075	-57.246375	101.24	-0.270	0.360	2.830	101.16	-0.50	3.20	 	 	 	 	 	 	 	 	 	 	 	 	 	 	 	 	 	 	1581508524	1.26	2.33
12/02/2020 11:55:25	120220	12022020	115525	101.32	12.418075	-57.246383	101.42	-0.730	1.140	2.390	101.36	-0.20	2.60	 	 	 	 	 	 	 	 	 	 	 	 	 	 	 	 	 	 	1581508525	1.66	3.07
12/02/2020 11:55:26	120220	12022020	115526	101.51	12.418073	-57.246387	101.56	-0.560	0.560	1.730	101.54	-1.10	2.00	 	 	 	 	 	 	 	 	 	 	 	 	 	 	 	 	 	 	1581508526	0.81	1.50
12/02/2020 11:55:27	120220	12022020	115527	101.54	12.418072	-57.246383	101.52	0.240	-0.800	1.020	101.51	-2.50	1.30	 	 	 	 	 	 	 	 	 	 	 	 	 	 	 	 	 	 	1581508527	0.72	1.33
12/02/2020 11:55:28	120220	12022020	115528	101.33	12.418073	-57.246377	101.27	1.050	-1.830	0.510	101.27	-3.20	0.90	 	 	 	 	 	 	 	 	 	 	 	 	 	 	 	 	 	 	1581508528	1.49	2.76
12/02/2020 11:55:29	120220	12022020	115529	101.11	12.418073	-57.246372	101.10	1.170	-1.710	0.490	101.09	-2.70	1.10	 	 	 	 	 	 	 	 	 	 	 	 	 	 	 	 	 	 	1581508529	1.17	2.17
12/02/2020 11:55:30	120220	12022020	115530	101.10	12.418073	-57.246372	101.17	0.500	-0.510	1.080	101.14	-1.30	1.80	 	 	 	 	 	 	 	 	 	 	 	 	 	 	 	 	 	 	1581508530	0.31	0.57
12/02/2020 11:55:31	120220	12022020	115531	101.34	12.418067	-57.246378	101.47	-0.450	1.060	1.890	101.42	0.20	2.60	 	 	 	 	 	 	 	 	 	 	 	 	 	 	 	 	 	 	1581508531	1.84	3.41
12/02/2020 11:55:32	120220	12022020	115532	101.69	12.418058	-57.246387	101.80	-1.070	2.090	2.560	101.74	0.90	3.10	 	 	 	 	 	 	 	 	 	 	 	 	 	 	 	 	 	 	1581508532	2.63	4.87
12/02/2020 11:55:33	120220	12022020	115533	101.77	12.418050	-57.246393	101.76	-1.050	1.750	2.940	101.72	0.00	3.50	 	 	 	 	 	 	 	 	 	 	 	 	 	 	 	 	 	 	1581508533	2.36	4.37
12/02/2020 11:55:34	120220	12022020	115534	101.29	12.418043	-57.246395	101.16	-0.450	0.090	3.330	101.14	-1.80	3.90	 	 	 	 	 	 	 	 	 	 	 	 	 	 	 	 	 	 	1581508534	1.57	2.91
12/02/2020 11:55:35	120220	12022020	115535	100.48	12.418037	-57.246390	100.38	0.340	-1.780	3.690	100.33	-3.40	4.20	 	 	 	 	 	 	 	 	 	 	 	 	 	 	 	 	 	 	1581508535	1.59	2.94
12/02/2020 11:55:36	120220	12022020	115536	99.98	12.418035	-57.246385	100.04	0.830	-2.570	3.510	99.97	-3.70	3.80	 	 	 	 	 	 	 	 	 	 	 	 	 	 	 	 	 	 	1581508536	1.34	2.48
12/02/2020 11:55:37	120220	12022020	115537	100.20	12.418037	-57.246383	100.37	0.790	-1.880	2.760	100.30	-2.70	2.90	 	 	 	 	 	 	 	 	 	 	 	 	 	 	 	 	 	 	1581508537	0.50	0.93
12/02/2020 11:55:38	120220	12022020	115538	100.69	12.418040	-57.246387	100.80	0.400	-0.440	2.010	100.75	-1.20	2.30	 	 	 	 	 	 	 	 	 	 	 	 	 	 	 	 	 	 	1581508538	1.00	1.85
12/02/2020 11:55:39	120220	12022020	115539	100.72	12.418040	-57.246393	100.68	0.000	0.820	1.660	100.65	-0.20	2.00	 	 	 	 	 	 	 	 	 	 	 	 	 	 	 	 	 	 	1581508539	1.35	2.50
12/02/2020 11:55:40	120220	12022020	115540	100.21	12.418038	-57.246398	100.07	-0.250	1.390	1.400	100.07	0.20	1.80	 	 	 	 	 	 	 	 	 	 	 	 	 	 	 	 	 	 	1581508540	1.06	1.96
12/02/2020 11:55:41	120220	12022020	115541	99.56	12.418037	-57.246400	99.44	-0.390	1.320	1.030	99.45	-0.10	1.40	 	 	 	 	 	 	 	 	 	 	 	 	 	 	 	 	 	 	1581508541	0.48	0.89
12/02/2020 11:55:42	120220	12022020	115542	99.19	12.418038	-57.246400	99.16	-0.440	0.740	0.650	99.17	-0.80	1.00	 	 	 	 	 	 	 	 	 	 	 	 	 	 	 	 	 	 	1581508542	0.26	0.48
12/02/2020 11:55:43	120220	12022020	115543	99.25	12.418038	-57.246400	99.27	-0.350	-0.310	0.450	99.28	-2.00	0.90	 	 	 	 	 	 	 	 	 	 	 	 	 	 	 	 	 	 	1581508543	0.19	0.35
12/02/2020 11:55:44	120220	12022020	115544	99.32	12.418037	-57.246400	99.27	-0.020	-1.600	0.690	99.29	-3.20	1.30	 	 	 	 	 	 	 	 	 	 	 	 	 	 	 	 	 	 	1581508544	0.45	0.83
12/02/2020 11:55:45	120220	12022020	115545	98.96	12.418033	-57.246397	98.81	0.420	-2.370	1.440	98.83	-3.60	2.20	 	 	 	 	 	 	 	 	 	 	 	 	 	 	 	 	 	 	1581508545	1.21	2.24
12/02/2020 11:55:46	120220	12022020	115546	98.25	12.418027	-57.246395	98.11	0.610	-1.800	2.440	98.11	-2.50	3.20	 	 	 	 	 	 	 	 	 	 	 	 	 	 	 	 	 	 	1581508546	1.45	2.69
12/02/2020 11:55:47	120220	12022020	115547	97.74	12.418018	-57.246398	97.72	0.350	-0.040	3.260	97.69	-0.60	3.90	 	 	 	 	 	 	 	 	 	 	 	 	 	 	 	 	 	 	1581508547	1.68	3.11
12/02/2020 11:55:48	120220	12022020	115548	97.65	12.418013	-57.246407	97.70	-0.190	1.740	3.610	97.67	0.80	4.10	 	 	 	 	 	 	 	 	 	 	 	 	 	 	 	 	 	 	1581508548	2.23	4.13
12/02/2020 11:55:49	120220	12022020	115549	97.77	12.418010	-57.246417	97.82	-0.650	2.350	3.490	97.80	0.90	3.80	 	 	 	 	 	 	 	 	 	 	 	 	 	 	 	 	 	 	1581508549	2.03	3.76
12/02/2020 11:55:50	120220	12022020	115550	97.81	12.418010	-57.246420	97.77	-0.640	1.350	3.060	97.78	-0.50	3.40	 	 	 	 	 	 	 	 	 	 	 	 	 	 	 	 	 	 	1581508550	0.92	1.70
12/02/2020 11:55:51	120220	12022020	115551	97.55	12.418010	-57.246418	97.43	-0.130	-0.650	2.630	97.47	-2.50	3.00	 	 	 	 	 	 	 	 	 	 	 	 	 	 	 	 	 	 	1581508551	0.52	0.96
12/02/2020 11:55:52	120220	12022020	115552	97.08	12.418010	-57.246412	96.91	0.510	-2.420	2.280	96.96	-4.00	2.70	 	 	 	 	 	 	 	 	 	 	 	 	 	 	 	 	 	 	1581508552	1.29	2.39
12/02/2020 11:55:53	120220	12022020	115553	96.46	12.418008	-57.246407	96.28	0.850	-2.950	2.140	96.32	-4.00	2.60	 	 	 	 	 	 	 	 	 	 	 	 	 	 	 	 	 	 	1581508553	1.13	2.09
12/02/2020 11:55:54	120220	12022020	115554	95.80	12.418007	-57.246407	95.63	0.720	-1.930	2.210	95.68	-2.60	2.70	 	 	 	 	 	 	 	 	 	 	 	 	 	 	 	 	 	 	1581508554	0.31	0.57
12/02/2020 11:55:55	120220	12022020	115555	95.36	12.418007	-57.246412	95.24	0.200	0.050	2.050	95.31	-0.60	2.40	 	 	 	 	 	 	 	 	 	 	 	 	 	 	 	 	 	 	1581508555	1.07	1.98
12/02/2020 11:55:56	120220	12022020	115556	95.22	12.418007	-57.246420	95.14	-0.440	1.820	1.380	95.22	0.90	1.50	 	 	 	 	 	 	 	 	 	 	 	 	 	 	 	 	 	 	1581508556	1.72	3.19
12/02/2020 11:55:57	120220	12022020	115557	95.34	12.418010	-57.246427	95.30	-0.900	2.510	0.310	95.39	1.20	0.40	 	 	 	 	 	 	 	 	 	 	 	 	 	 	 	 	 	 	1581508557	1.58	2.93
12/02/2020 11:55:58	120220	12022020	115558	95.60	12.418013	-57.246430	95.53	-1.020	1.900	-0.570	95.64	0.20	-0.20	 	 	 	 	 	 	 	 	 	 	 	 	 	 	 	 	 	 	1581508558	0.95	1.76
12/02/2020 11:55:59	120220	12022020	115559	95.63	12.418013	-57.246428	95.47	-0.720	0.260	-0.550	95.57	-1.60	0.10	 	 	 	 	 	 	 	 	 	 	 	 	 	 	 	 	 	 	1581508559	0.12	0.22
12/02/2020 11:56:00	120220	12022020	115600	95.15	12.418008	-57.246425	94.93	-0.060	-1.640	0.320	95.02	-3.40	1.10	 	 	 	 	 	 	 	 	 	 	 	 	 	 	 	 	 	 	1581508560	1.27	2.35
12/02/2020 11:56:01	120220	12022020	115601	94.44	12.418000	-57.246422	94.25	0.700	-2.820	1.330	94.31	-4.10	2.10	1016.10	26.60	26.70	20.50	20.50	357.0	69.0	69.0	409.0	27.5	334.00	11.90	72.00	11.40	22272	11498.0	27.6	27.5	1581508561	1.83	3.39
12/02/2020 11:56:02	120220	12022020	115602	93.79	12.417995	-57.246418	93.62	1.170	-2.690	2.130	93.67	-3.60	2.80	 	 	 	 	 	 	 	 	 	 	 	 	 	 	 	 	 	 	1581508562	1.40	2.59
12/02/2020 11:56:03	120220	12022020	115603	93.20	12.417990	-57.246420	93.06	1.100	-1.310	2.710	93.10	-1.90	3.30	 	 	 	 	 	 	 	 	 	 	 	 	 	 	 	 	 	 	1581508563	0.87	1.61
12/02/2020 11:56:04	120220	12022020	115604	92.85	12.417988	-57.246425	92.80	0.520	0.650	2.800	92.83	-0.00	3.10	 	 	 	 	 	 	 	 	 	 	 	 	 	 	 	 	 	 	1581508564	1.16	2.15
12/02/2020 11:56:05	120220	12022020	115605	92.96	12.417990	-57.246432	92.99	-0.300	2.080	2.240	93.02	1.00	2.40	 	 	 	 	 	 	 	 	 	 	 	 	 	 	 	 	 	 	1581508565	1.49	2.76
12/02/2020 11:56:06	120220	12022020	115606	93.28	12.417992	-57.246437	93.29	-0.950	2.130	1.440	93.33	0.60	1.70	 	 	 	 	 	 	 	 	 	 	 	 	 	 	 	 	 	 	1581508566	1.16	2.15
12/02/2020 11:56:07	120220	12022020	115607	93.35	12.417993	-57.246437	93.24	-1.140	0.970	0.970	93.31	-0.70	1.40	 	 	 	 	 	 	 	 	 	 	 	 	 	 	 	 	 	 	1581508567	0.24	0.44
12/02/2020 11:56:08	120220	12022020	115608	93.01	12.417992	-57.246433	92.86	-0.850	-0.430	1.030	92.92	-2.00	1.60	 	 	 	 	 	 	 	 	 	 	 	 	 	 	 	 	 	 	1581508568	0.89	1.65
12/02/2020 11:56:09	120220	12022020	115609	92.59	12.417987	-57.246430	92.48	-0.260	-1.360	1.320	92.53	-2.70	1.80	 	 	 	 	 	 	 	 	 	 	 	 	 	 	 	 	 	 	1581508569	1.16	2.15
12/02/2020 11:56:10	120220	12022020	115610	92.43	12.417983	-57.246428	92.38	0.330	-1.660	1.500	92.42	-2.90	2.00	 	 	 	 	 	 	 	 	 	 	 	 	 	 	 	 	 	 	1581508570	0.90	1.67
12/02/2020 11:56:11	120220	12022020	115611	92.40	12.417980	-57.246430	92.34	0.670	-1.500	1.640	92.38	-2.60	2.20	 	 	 	 	 	 	 	 	 	 	 	 	 	 	 	 	 	 	1581508571	0.50	0.93
12/02/2020 11:56:12	120220	12022020	115612	92.21	12.417978	-57.246430	92.11	0.700	-0.910	1.920	92.14	-1.90	2.50	 	 	 	 	 	 	 	 	 	 	 	 	 	 	 	 	 	 	1581508572	0.41	0.76
12/02/2020 11:56:13	120220	12022020	115613	91.87	12.417977	-57.246433	91.79	0.590	-0.080	2.140	91.81	-1.10	2.60	 	 	 	 	 	 	 	 	 	 	 	 	 	 	 	 	 	 	1581508573	0.62	1.15
12/02/2020 11:56:14	120220	12022020	115614	91.62	12.417977	-57.246435	91.56	0.470	0.630	2.090	91.59	-0.50	2.50	 	 	 	 	 	 	 	 	 	 	 	 	 	 	 	 	 	 	1581508574	0.59	1.09
12/02/2020 11:56:15	120220	12022020	115615	91.50	12.417977	-57.246437	91.45	0.300	0.820	1.870	91.49	-0.50	2.30	 	 	 	 	 	 	 	 	 	 	 	 	 	 	 	 	 	 	1581508575	0.36	0.67
12/02/2020 11:56:16	120220	12022020	115616	91.47	12.417978	-57.246437	91.41	0.030	0.470	1.550	91.46	-0.90	1.90	 	 	 	 	 	 	 	 	 	 	 	 	 	 	 	 	 	 	1581508576	0.40	0.74
12/02/2020 11:56:17	120220	12022020	115617	91.46	12.417982	-57.246435	91.42	-0.300	-0.020	1.180	91.46	-1.40	1.50	 	 	 	 	 	 	 	 	 	 	 	 	 	 	 	 	 	 	1581508577	0.64	1.19
12/02/2020 11:56:18	120220	12022020	115618	91.57	12.417983	-57.246433	91.57	-0.560	-0.130	0.860	91.62	-1.30	1.30	 	 	 	 	 	 	 	 	 	 	 	 	 	 	 	 	 	 	1581508578	0.53	0.98
12/02/2020 11:56:19	120220	12022020	115619	91.84	12.417983	-57.246435	91.83	-0.640	-0.040	0.810	91.88	-1.30	1.40	 	 	 	 	 	 	 	 	 	 	 	 	 	 	 	 	 	 	1581508579	0.38	0.70
12/02/2020 11:56:20	120220	12022020	115620	92.02	12.417982	-57.246438	91.99	-0.550	-0.200	1.230	92.03	-1.60	1.90	 	 	 	 	 	 	 	 	 	 	 	 	 	 	 	 	 	 	1581508580	0.80	1.48
12/02/2020 11:56:21	120220	12022020	115621	92.00	12.417975	-57.246438	91.97	-0.270	-0.670	1.900	91.98	-2.00	2.60	 	 	 	 	 	 	 	 	 	 	 	 	 	 	 	 	 	 	1581508581	1.43	2.65
12/02/2020 11:56:22	120220	12022020	115622	91.84	12.417967	-57.246437	91.79	0.170	-1.020	2.470	91.79	-2.30	3.10	 	 	 	 	 	 	 	 	 	 	 	 	 	 	 	 	 	 	1581508582	1.53	2.83
12/02/2020 11:56:23	120220	12022020	115623	91.53	12.417963	-57.246437	91.45	0.620	-1.000	2.800	91.45	-2.10	3.30	 	 	 	 	 	 	 	 	 	 	 	 	 	 	 	 	 	 	1581508583	0.91	1.69
12/02/2020 11:56:24	120220	12022020	115624	91.08	12.417962	-57.246435	91.00	0.830	-0.600	2.950	90.99	-1.60	3.40	 	 	 	 	 	 	 	 	 	 	 	 	 	 	 	 	 	 	1581508584	0.28	0.52
12/02/2020 11:56:25	120220	12022020	115625	90.74	12.417963	-57.246437	90.70	0.650	0.030	2.730	90.71	-1.00	3.00	 	 	 	 	 	 	 	 	 	 	 	 	 	 	 	 	 	 	1581508585	0.27	0.50
12/02/2020 11:56:26	120220	12022020	115626	90.71	12.417967	-57.246438	90.72	0.180	0.600	2.090	90.73	-0.50	2.30	 	 	 	 	 	 	 	 	 	 	 	 	 	 	 	 	 	 	1581508586	0.82	1.52
12/02/2020 11:56:27	120220	12022020	115627	90.87	12.417972	-57.246440	90.89	-0.300	0.790	1.260	90.91	-0.50	1.50	 	 	 	 	 	 	 	 	 	 	 	 	 	 	 	 	 	 	1581508587	1.17	2.17
12/02/2020 11:56:28	120220	12022020	115628	91.04	12.417977	-57.246442	91.04	-0.550	0.490	0.530	91.07	-0.90	0.90	 	 	 	 	 	 	 	 	 	 	 	 	 	 	 	 	 	 	1581508588	1.03	1.91
12/02/2020 11:56:29	120220	12022020	115629	91.13	12.417978	-57.246440	91.08	-0.480	-0.160	0.220	91.13	-1.60	0.70	 	 	 	 	 	 	 	 	 	 	 	 	 	 	 	 	 	 	1581508589	0.52	0.96
12/02/2020 11:56:30	120220	12022020	115630	91.03	12.417977	-57.246438	90.94	-0.130	-0.810	0.480	90.98	-2.20	1.10	 	 	 	 	 	 	 	 	 	 	 	 	 	 	 	 	 	 	1581508590	0.47	0.87
12/02/2020 11:56:31	120220	12022020	115631	90.73	12.417973	-57.246437	90.63	0.290	-1.100	1.050	90.66	-2.30	1.70	 	 	 	 	 	 	 	 	 	 	 	 	 	 	 	 	 	 	1581508591	0.81	1.50
12/02/2020 11:56:32	120220	12022020	115632	90.42	12.417970	-57.246435	90.36	0.480	-0.820	1.550	90.37	-1.90	2.20	 	 	 	 	 	 	 	 	 	 	 	 	 	 	 	 	 	 	1581508592	0.74	1.37
12/02/2020 11:56:33	120220	12022020	115633	90.20	12.417968	-57.246437	90.15	0.310	-0.140	1.940	90.17	-1.20	2.50	 	 	 	 	 	 	 	 	 	 	 	 	 	 	 	 	 	 	1581508593	0.54	1.00
12/02/2020 11:56:34	120220	12022020	115634	90.05	12.417967	-57.246440	90.01	-0.060	0.410	2.220	90.02	-0.80	2.70	 	 	 	 	 	 	 	 	 	 	 	 	 	 	 	 	 	 	1581508594	0.66	1.22
12/02/2020 11:56:35	120220	12022020	115635	89.93	12.417967	-57.246442	89.89	-0.340	0.370	2.280	89.91	-1.00	2.70	 	 	 	 	 	 	 	 	 	 	 	 	 	 	 	 	 	 	1581508595	0.40	0.74
12/02/2020 11:56:36	120220	12022020	115636	89.84	12.417967	-57.246440	89.82	-0.360	-0.150	2.120	89.82	-1.60	2.50	 	 	 	 	 	 	 	 	 	 	 	 	 	 	 	 	 	 	1581508596	0.25	0.46
12/02/2020 11:56:37	120220	12022020	115637	89.78	12.417967	-57.246437	89.76	-0.180	-0.630	1.940	89.77	-1.90	2.40	 	 	 	 	 	 	 	 	 	 	 	 	 	 	 	 	 	 	1581508597	0.66	1.22
12/02/2020 11:56:38	120220	12022020	115638	89.66	12.417965	-57.246435	89.61	0.050	-0.630	1.840	89.62	-1.70	2.30	 	 	 	 	 	 	 	 	 	 	 	 	 	 	 	 	 	 	1581508598	0.58	1.07
12/02/2020 11:56:39	120220	12022020	115639	89.46	12.417963	-57.246435	89.42	0.120	-0.050	1.620	89.43	-1.00	1.90	 	 	 	 	 	 	 	 	 	 	 	 	 	 	 	 	 	 	1581508599	0.28	0.52
12/02/2020 11:56:40	120220	12022020	115640	89.34	12.417965	-57.246438	89.28	0.040	0.610	1.110	89.31	-0.60	1.40	 	 	 	 	 	 	 	 	 	 	 	 	 	 	 	 	 	 	1581508600	0.72	1.33
12/02/2020 11:56:41	120220	12022020	115641	89.17	12.417970	-57.246442	89.08	-0.060	0.560	0.530	89.12	-0.90	0.80	 	 	 	 	 	 	 	 	 	 	 	 	 	 	 	 	 	 	1581508601	1.25	2.31
12/02/2020 11:56:42	120220	12022020	115642	88.96	12.417975	-57.246442	88.89	-0.080	-0.270	0.100	88.93	-1.80	0.50	 	 	 	 	 	 	 	 	 	 	 	 	 	 	 	 	 	 	1581508602	1.17	2.17
12/02/2020 11:56:43	120220	12022020	115643	88.84	12.417978	-57.246437	88.78	0.040	-1.210	0.020	88.82	-2.60	0.60	 	 	 	 	 	 	 	 	 	 	 	 	 	 	 	 	 	 	1581508603	1.00	1.85
12/02/2020 11:56:44	120220	12022020	115644	88.76	12.417977	-57.246433	88.75	0.290	-1.560	0.320	88.76	-2.70	0.90	 	 	 	 	 	 	 	 	 	 	 	 	 	 	 	 	 	 	1581508604	0.91	1.69
12/02/2020 11:56:45	120220	12022020	115645	88.80	12.417975	-57.246432	88.84	0.450	-0.970	0.730	88.83	-1.80	1.30	 	 	 	 	 	 	 	 	 	 	 	 	 	 	 	 	 	 	1581508605	0.70	1.30
12/02/2020 11:56:46	120220	12022020	115646	88.98	12.417972	-57.246433	89.04	0.290	0.250	1.130	89.02	-0.60	1.70	 	 	 	 	 	 	 	 	 	 	 	 	 	 	 	 	 	 	1581508606	0.77	1.43
12/02/2020 11:56:47	120220	12022020	115647	89.13	12.417968	-57.246438	89.17	-0.200	1.190	1.530	89.13	0.10	2.10	 	 	 	 	 	 	 	 	 	 	 	 	 	 	 	 	 	 	1581508607	1.15	2.13
12/02/2020 11:56:48	120220	12022020	115648	89.10	12.417967	-57.246442	89.13	-0.700	1.190	1.890	89.08	-0.30	2.40	 	 	 	 	 	 	 	 	 	 	 	 	 	 	 	 	 	 	1581508608	0.92	1.70
12/02/2020 11:56:49	120220	12022020	115649	88.98	12.417963	-57.246442	89.02	-0.850	0.370	2.200	88.95	-1.20	2.70	 	 	 	 	 	 	 	 	 	 	 	 	 	 	 	 	 	 	1581508609	0.64	1.19
12/02/2020 11:56:50	120220	12022020	115650	88.80	12.417960	-57.246438	88.82	-0.510	-0.600	2.420	88.75	-2.10	2.90	 	 	 	 	 	 	 	 	 	 	 	 	 	 	 	 	 	 	1581508610	0.97	1.80
12/02/2020 11:56:51	120220	12022020	115651	88.52	12.417958	-57.246435	88.53	0.120	-1.120	2.320	88.47	-2.40	2.60	 	 	 	 	 	 	 	 	 	 	 	 	 	 	 	 	 	 	1581508611	0.81	1.50
12/02/2020 11:56:52	120220	12022020	115652	88.31	12.417958	-57.246433	88.34	0.690	-1.020	1.770	88.30	-2.10	2.00	 	 	 	 	 	 	 	 	 	 	 	 	 	 	 	 	 	 	1581508612	0.33	0.61
12/02/2020 11:56:53	120220	12022020	115653	88.35	12.417963	-57.246435	88.42	0.900	-0.650	1.040	88.38	-1.70	1.30	 	 	 	 	 	 	 	 	 	 	 	 	 	 	 	 	 	 	1581508613	1.13	2.09
12/02/2020 11:56:54	120220	12022020	115654	88.62	12.417970	-57.246437	88.73	0.600	-0.230	0.300	88.70	-1.30	0.50	 	 	 	 	 	 	 	 	 	 	 	 	 	 	 	 	 	 	1581508614	1.37	2.54
12/02/2020 11:56:55	120220	12022020	115655	89.08	12.417975	-57.246438	89.20	-0.100	0.130	-0.280	89.18	-1.00	0.10	 	 	 	 	 	 	 	 	 	 	 	 	 	 	 	 	 	 	1581508615	1.14	2.11
12/02/2020 11:56:56	120220	12022020	115656	89.48	12.417977	-57.246440	89.52	-0.760	0.230	-0.290	89.51	-1.00	0.30	 	 	 	 	 	 	 	 	 	 	 	 	 	 	 	 	 	 	1581508616	0.48	0.89
12/02/2020 11:56:57	120220	12022020	115657	89.41	12.417973	-57.246440	89.32	-0.860	-0.020	0.460	89.32	-1.40	1.30	 	 	 	 	 	 	 	 	 	 	 	 	 	 	 	 	 	 	1581508617	0.82	1.52
12/02/2020 11:56:58	120220	12022020	115658	88.81	12.417965	-57.246438	88.68	-0.340	-0.430	1.560	88.67	-1.80	2.30	 	 	 	 	 	 	 	 	 	 	 	 	 	 	 	 	 	 	1581508618	1.85	3.43
12/02/2020 11:56:59	120220	12022020	115659	88.13	12.417957	-57.246435	88.07	0.350	-0.610	2.330	88.03	-1.80	2.90	 	 	 	 	 	 	 	 	 	 	 	 	 	 	 	 	 	 	1581508619	1.87	3.46
12/02/2020 11:57:00	120220	12022020	115700	87.84	12.417953	-57.246433	87.91	0.600	-0.200	2.360	87.86	-1.20	2.70	 	 	 	 	 	 	 	 	 	 	 	 	 	 	 	 	 	 	1581508620	0.77	1.43
12/02/2020 11:57:01	120220	12022020	115701	88.17	12.417955	-57.246437	88.34	0.160	0.620	1.760	88.29	-0.40	2.00	1016.10	26.50	26.50	20.10	20.10	384.0	67.0	67.0	407.0	27.5	344.00	11.60	74.00	11.30	23163	9858.0	27.6	27.6	1581508621	0.66	1.22
12/02/2020 11:57:02	120220	12022020	115702	88.79	12.417960	-57.246442	88.92	-0.540	1.050	0.980	88.89	-0.30	1.20	 	 	 	 	 	 	 	 	 	 	 	 	 	 	 	 	 	 	1581508622	1.44	2.67
12/02/2020 11:57:03	120220	12022020	115703	89.12	12.417963	-57.246445	89.13	-0.800	0.540	0.430	89.14	-1.00	0.80	 	 	 	 	 	 	 	 	 	 	 	 	 	 	 	 	 	 	1581508623	1.14	2.11
12/02/2020 11:57:04	120220	12022020	115704	89.07	12.417965	-57.246445	89.00	-0.310	-0.640	0.150	89.03	-2.30	0.60	 	 	 	 	 	 	 	 	 	 	 	 	 	 	 	 	 	 	1581508624	0.62	1.15
12/02/2020 11:57:05	120220	12022020	115705	88.91	12.417968	-57.246442	88.86	0.500	-1.720	0.170	88.88	-3.20	0.70	 	 	 	 	 	 	 	 	 	 	 	 	 	 	 	 	 	 	1581508625	0.92	1.70
12/02/2020 11:57:06	120220	12022020	115706	88.80	12.417968	-57.246437	88.78	1.010	-2.130	0.620	88.78	-3.30	1.30	 	 	 	 	 	 	 	 	 	 	 	 	 	 	 	 	 	 	1581508626	0.82	1.52
12/02/2020 11:57:07	120220	12022020	115707	88.64	12.417963	-57.246435	88.63	0.960	-1.630	1.410	88.60	-2.50	2.10	 	 	 	 	 	 	 	 	 	 	 	 	 	 	 	 	 	 	1581508627	0.92	1.70
12/02/2020 11:57:08	120220	12022020	115708	88.50	12.417958	-57.246437	88.56	0.480	-0.330	2.020	88.51	-1.00	2.50	 	 	 	 	 	 	 	 	 	 	 	 	 	 	 	 	 	 	1581508628	1.15	2.13
12/02/2020 11:57:09	120220	12022020	115709	88.70	12.417955	-57.246440	88.83	-0.280	1.410	2.060	88.78	0.70	2.40	 	 	 	 	 	 	 	 	 	 	 	 	 	 	 	 	 	 	1581508629	1.13	2.09
12/02/2020 11:57:10	120220	12022020	115710	89.11	12.417953	-57.246447	89.21	-1.140	2.710	1.850	89.17	1.60	2.20	 	 	 	 	 	 	 	 	 	 	 	 	 	 	 	 	 	 	1581508630	1.54	2.85
12/02/2020 11:57:11	120220	12022020	115711	89.26	12.417952	-57.246453	89.28	-1.690	2.630	1.760	89.25	1.00	2.20	 	 	 	 	 	 	 	 	 	 	 	 	 	 	 	 	 	 	1581508631	1.49	2.76
12/02/2020 11:57:12	120220	12022020	115712	89.04	12.417950	-57.246457	89.00	-1.460	0.920	1.750	88.98	-1.10	2.20	 	 	 	 	 	 	 	 	 	 	 	 	 	 	 	 	 	 	1581508632	0.65	1.20
12/02/2020 11:57:13	120220	12022020	115713	88.76	12.417948	-57.246452	88.74	-0.380	-1.580	1.430	88.72	-3.50	1.70	 	 	 	 	 	 	 	 	 	 	 	 	 	 	 	 	 	 	1581508633	0.87	1.61
12/02/2020 11:57:14	120220	12022020	115714	88.68	12.417952	-57.246445	88.71	0.990	-3.390	0.790	88.71	-4.80	1.10	 	 	 	 	 	 	 	 	 	 	 	 	 	 	 	 	 	 	1581508634	1.62	3.00
12/02/2020 11:57:15	120220	12022020	115715	88.90	12.417957	-57.246440	88.96	1.810	-3.400	0.310	88.96	-4.20	0.70	 	 	 	 	 	 	 	 	 	 	 	 	 	 	 	 	 	 	1581508635	1.51	2.80
12/02/2020 11:57:16	120220	12022020	115716	89.23	12.417960	-57.246442	89.26	1.650	-1.870	0.350	89.28	-2.50	1.00	 	 	 	 	 	 	 	 	 	 	 	 	 	 	 	 	 	 	1581508636	0.88	1.63
12/02/2020 11:57:17	120220	12022020	115717	89.34	12.417960	-57.246448	89.26	0.840	-0.000	1.020	89.30	-0.70	1.80	 	 	 	 	 	 	 	 	 	 	 	 	 	 	 	 	 	 	1581508637	1.17	2.17
12/02/2020 11:57:18	120220	12022020	115718	88.97	12.417955	-57.246452	88.86	-0.040	1.440	1.980	88.87	0.50	2.60	 	 	 	 	 	 	 	 	 	 	 	 	 	 	 	 	 	 	1581508638	1.53	2.83
12/02/2020 11:57:19	120220	12022020	115719	88.49	12.417948	-57.246455	88.44	-0.700	2.300	2.440	88.44	1.20	2.90	 	 	 	 	 	 	 	 	 	 	 	 	 	 	 	 	 	 	1581508639	1.43	2.65
12/02/2020 11:57:20	120220	12022020	115720	88.44	12.417947	-57.246458	88.51	-1.130	2.430	2.270	88.49	1.00	2.60	 	 	 	 	 	 	 	 	 	 	 	 	 	 	 	 	 	 	1581508640	0.76	1.41
12/02/2020 11:57:21	120220	12022020	115721	88.84	12.417947	-57.246460	88.94	-1.300	1.650	1.750	88.93	-0.00	2.00	 	 	 	 	 	 	 	 	 	 	 	 	 	 	 	 	 	 	1581508641	0.46	0.85
12/02/2020 11:57:22	120220	12022020	115722	89.22	12.417947	-57.246460	89.26	-1.050	-0.060	1.370	89.25	-2.00	1.80	 	 	 	 	 	 	 	 	 	 	 	 	 	 	 	 	 	 	1581508642	0.19	0.35
12/02/2020 11:57:23	120220	12022020	115723	89.15	12.417947	-57.246457	89.04	-0.300	-2.190	1.420	89.07	-4.00	2.00	 	 	 	 	 	 	 	 	 	 	 	 	 	 	 	 	 	 	1581508643	0.84	1.56
12/02/2020 11:57:24	120220	12022020	115724	88.56	12.417943	-57.246450	88.40	0.670	-3.380	1.800	88.42	-4.60	2.40	 	 	 	 	 	 	 	 	 	 	 	 	 	 	 	 	 	 	1581508644	1.48	2.74
12/02/2020 11:57:25	120220	12022020	115725	87.98	12.417942	-57.246447	87.91	1.300	-2.720	2.110	87.91	-3.40	2.60	 	 	 	 	 	 	 	 	 	 	 	 	 	 	 	 	 	 	1581508645	0.75	1.39
12/02/2020 11:57:26	120220	12022020	115726	87.88	12.417942	-57.246450	87.94	1.240	-0.890	2.150	87.92	-1.50	2.60	 	 	 	 	 	 	 	 	 	 	 	 	 	 	 	 	 	 	1581508646	0.79	1.46
12/02/2020 11:57:27	120220	12022020	115727	88.18	12.417943	-57.246457	88.27	0.690	0.760	1.970	88.25	-0.20	2.40	 	 	 	 	 	 	 	 	 	 	 	 	 	 	 	 	 	 	1581508647	1.50	2.78
12/02/2020 11:57:28	120220	12022020	115728	88.52	12.417945	-57.246462	88.58	0.110	1.400	1.700	88.57	0.10	2.10	 	 	 	 	 	 	 	 	 	 	 	 	 	 	 	 	 	 	1581508648	1.02	1.89
12/02/2020 11:57:29	120220	12022020	115729	88.74	12.417945	-57.246462	88.78	-0.210	1.180	1.350	88.76	-0.20	1.70	 	 	 	 	 	 	 	 	 	 	 	 	 	 	 	 	 	 	1581508649	0.14	0.26
12/02/2020 11:57:30	120220	12022020	115730	88.80	12.417945	-57.246458	88.79	-0.290	0.780	1.080	88.79	-0.60	1.50	 	 	 	 	 	 	 	 	 	 	 	 	 	 	 	 	 	 	1581508650	0.55	1.02
12/02/2020 11:57:31	120220	12022020	115731	88.65	12.417945	-57.246458	88.60	-0.370	0.480	1.050	88.61	-0.90	1.50	 	 	 	 	 	 	 	 	 	 	 	 	 	 	 	 	 	 	1581508651	0.33	0.61
12/02/2020 11:57:32	120220	12022020	115732	88.44	12.417945	-57.246458	88.42	-0.580	0.120	1.140	88.42	-1.30	1.60	 	 	 	 	 	 	 	 	 	 	 	 	 	 	 	 	 	 	1581508652	0.09	0.17
12/02/2020 11:57:33	120220	12022020	115733	88.41	12.417945	-57.246460	88.45	-0.780	-0.440	1.130	88.44	-1.90	1.60	 	 	 	 	 	 	 	 	 	 	 	 	 	 	 	 	 	 	1581508653	0.25	0.46
12/02/2020 11:57:34	120220	12022020	115734	88.59	12.417945	-57.246458	88.64	-0.640	-1.120	1.160	88.63	-2.50	1.70	 	 	 	 	 	 	 	 	 	 	 	 	 	 	 	 	 	 	1581508654	0.07	0.13
12/02/2020 11:57:35	120220	12022020	115735	88.76	12.417943	-57.246457	88.78	-0.110	-1.490	1.420	88.78	-2.70	2.00	 	 	 	 	 	 	 	 	 	 	 	 	 	 	 	 	 	 	1581508655	0.55	1.02
12/02/2020 11:57:36	120220	12022020	115736	88.79	12.417940	-57.246457	88.80	0.540	-1.230	1.720	88.79	-2.30	2.20	 	 	 	 	 	 	 	 	 	 	 	 	 	 	 	 	 	 	1581508656	0.94	1.74
12/02/2020 11:57:37	120220	12022020	115737	88.70	12.417935	-57.246457	88.67	1.020	-0.690	1.860	88.66	-1.80	2.30	 	 	 	 	 	 	 	 	 	 	 	 	 	 	 	 	 	 	1581508657	0.79	1.46
12/02/2020 11:57:38	120220	12022020	115738	88.49	12.417935	-57.246458	88.46	1.130	-0.240	1.830	88.46	-1.30	2.20	 	 	 	 	 	 	 	 	 	 	 	 	 	 	 	 	 	 	1581508658	0.17	0.31
12/02/2020 11:57:39	120220	12022020	115739	88.41	12.417938	-57.246457	88.43	0.830	0.160	1.460	88.42	-0.90	1.80	 	 	 	 	 	 	 	 	 	 	 	 	 	 	 	 	 	 	1581508659	0.64	1.19
12/02/2020 11:57:40	120220	12022020	115740	88.51	12.417943	-57.246457	88.55	0.230	0.650	1.050	88.54	-0.40	1.40	 	 	 	 	 	 	 	 	 	 	 	 	 	 	 	 	 	 	1581508660	1.17	2.17
12/02/2020 11:57:41	120220	12022020	115741	88.66	12.417948	-57.246458	88.69	-0.450	1.010	0.920	88.68	-0.20	1.40	 	 	 	 	 	 	 	 	 	 	 	 	 	 	 	 	 	 	1581508661	0.96	1.78
12/02/2020 11:57:42	120220	12022020	115742	88.78	12.417948	-57.246460	88.81	-0.940	0.900	0.920	88.80	-0.50	1.40	 	 	 	 	 	 	 	 	 	 	 	 	 	 	 	 	 	 	1581508662	0.39	0.72
12/02/2020 11:57:43	120220	12022020	115743	88.95	12.417947	-57.246460	89.01	-1.090	0.350	0.900	88.98	-1.10	1.40	 	 	 	 	 	 	 	 	 	 	 	 	 	 	 	 	 	 	1581508663	0.23	0.43
12/02/2020 11:57:44	120220	12022020	115744	89.20	12.417945	-57.246458	89.29	-0.900	-0.280	1.050	89.25	-1.70	1.60	 	 	 	 	 	 	 	 	 	 	 	 	 	 	 	 	 	 	1581508664	0.60	1.11
12/02/2020 11:57:45	120220	12022020	115745	89.36	12.417940	-57.246457	89.42	-0.400	-0.830	1.570	89.36	-2.20	2.20	 	 	 	 	 	 	 	 	 	 	 	 	 	 	 	 	 	 	1581508665	0.97	1.80
12/02/2020 11:57:46	120220	12022020	115746	89.21	12.417935	-57.246457	89.21	0.250	-1.360	2.290	89.15	-2.70	2.90	 	 	 	 	 	 	 	 	 	 	 	 	 	 	 	 	 	 	1581508666	1.14	2.11
12/02/2020 11:57:47	120220	12022020	115747	88.86	12.417932	-57.246453	88.84	0.730	-1.550	2.690	88.79	-2.70	3.20	 	 	 	 	 	 	 	 	 	 	 	 	 	 	 	 	 	 	1581508667	0.95	1.76
12/02/2020 11:57:48	120220	12022020	115748	88.60	12.417932	-57.246452	88.65	0.900	-1.200	2.550	88.58	-2.20	2.90	 	 	 	 	 	 	 	 	 	 	 	 	 	 	 	 	 	 	1581508668	0.43	0.80
12/02/2020 11:57:49	120220	12022020	115749	88.59	12.417933	-57.246452	88.67	0.800	-0.440	2.030	88.61	-1.40	2.30	 	 	 	 	 	 	 	 	 	 	 	 	 	 	 	 	 	 	1581508669	0.54	1.00
12/02/2020 11:57:50	120220	12022020	115750	88.65	12.417938	-57.246453	88.70	0.480	0.530	1.340	88.67	-0.40	1.60	 	 	 	 	 	 	 	 	 	 	 	 	 	 	 	 	 	 	1581508670	1.08	2.00
12/02/2020 11:57:51	120220	12022020	115751	88.75	12.417945	-57.246455	88.80	-0.060	1.410	0.520	88.79	0.40	0.70	 	 	 	 	 	 	 	 	 	 	 	 	 	 	 	 	 	 	1581508671	1.57	2.91
12/02/2020 11:57:52	120220	12022020	115752	89.02	12.417952	-57.246458	89.07	-0.620	1.600	-0.180	89.08	0.20	0.20	 	 	 	 	 	 	 	 	 	 	 	 	 	 	 	 	 	 	1581508672	1.63	3.02
12/02/2020 11:57:53	120220	12022020	115753	89.36	12.417955	-57.246458	89.40	-0.850	0.610	-0.430	89.42	-1.10	0.10	 	 	 	 	 	 	 	 	 	 	 	 	 	 	 	 	 	 	1581508673	0.74	1.37
12/02/2020 11:57:54	120220	12022020	115754	89.54	12.417953	-57.246453	89.50	-0.550	-1.050	-0.140	89.52	-2.70	0.50	 	 	 	 	 	 	 	 	 	 	 	 	 	 	 	 	 	 	1581508674	1.07	1.98
12/02/2020 11:57:55	120220	12022020	115755	89.32	12.417948	-57.246447	89.25	-0.010	-1.950	0.580	89.26	-3.10	1.30	 	 	 	 	 	 	 	 	 	 	 	 	 	 	 	 	 	 	1581508675	1.88	3.48
12/02/2020 11:57:56	120220	12022020	115756	88.96	12.417943	-57.246443	88.90	0.330	-1.410	1.450	88.90	-2.20	2.20	 	 	 	 	 	 	 	 	 	 	 	 	 	 	 	 	 	 	1581508676	1.32	2.44
12/02/2020 11:57:57	120220	12022020	115757	88.67	12.417940	-57.246447	88.66	0.270	-0.250	2.150	88.62	-1.20	2.80	 	 	 	 	 	 	 	 	 	 	 	 	 	 	 	 	 	 	1581508677	1.01	1.87
12/02/2020 11:57:58	120220	12022020	115758	88.42	12.417938	-57.246452	88.43	0.020	0.340	2.540	88.38	-0.90	3.00	 	 	 	 	 	 	 	 	 	 	 	 	 	 	 	 	 	 	1581508678	0.93	1.72
12/02/2020 11:57:59	120220	12022020	115759	88.29	12.417938	-57.246452	88.34	-0.130	0.210	2.400	88.29	-1.10	2.70	 	 	 	 	 	 	 	 	 	 	 	 	 	 	 	 	 	 	1581508679	0.06	0.11
12/02/2020 11:58:00	120220	12022020	115800	88.46	12.417940	-57.246448	88.59	-0.110	0.070	1.760	88.53	-1.10	2.00	 	 	 	 	 	 	 	 	 	 	 	 	 	 	 	 	 	 	1581508680	0.70	1.30
12/02/2020 11:58:01	120220	12022020	115801	88.87	12.417943	-57.246448	89.01	-0.060	0.300	1.040	88.96	-0.90	1.30	1016.30	26.60	26.60	20.70	20.70	368.0	70.0	69.0	404.0	27.6	348.00	10.60	76.00	10.20	22980	9311.0	27.6	27.6	1581508681	0.85	1.57
12/02/2020 11:58:02	120220	12022020	115802	89.28	12.417947	-57.246448	89.38	0.000	0.400	0.620	89.35	-0.90	1.00	 	 	 	 	 	 	 	 	 	 	 	 	 	 	 	 	 	 	1581508682	0.86	1.59
12/02/2020 11:58:03	120220	12022020	115803	89.47	12.417948	-57.246450	89.48	0.160	-0.160	0.580	89.46	-1.70	1.10	 	 	 	 	 	 	 	 	 	 	 	 	 	 	 	 	 	 	1581508683	0.36	0.67
12/02/2020 11:58:04	120220	12022020	115804	89.28	12.417948	-57.246447	89.21	0.390	-1.100	0.850	89.20	-2.50	1.40	 	 	 	 	 	 	 	 	 	 	 	 	 	 	 	 	 	 	1581508684	0.74	1.37
12/02/2020 11:58:05	120220	12022020	115805	88.80	12.417947	-57.246440	88.70	0.440	-1.410	1.310	88.69	-2.50	2.00	 	 	 	 	 	 	 	 	 	 	 	 	 	 	 	 	 	 	1581508685	1.17	2.17
12/02/2020 11:58:06	120220	12022020	115806	88.32	12.417945	-57.246438	88.29	0.180	-0.770	1.820	88.26	-1.70	2.40	 	 	 	 	 	 	 	 	 	 	 	 	 	 	 	 	 	 	1581508686	0.54	1.00
12/02/2020 11:58:07	120220	12022020	115807	88.14	12.417945	-57.246440	88.20	-0.210	0.150	2.040	88.15	-0.90	2.50	 	 	 	 	 	 	 	 	 	 	 	 	 	 	 	 	 	 	1581508687	0.50	0.93
12/02/2020 11:58:08	120220	12022020	115808	88.33	12.417945	-57.246443	88.45	-0.440	0.670	1.800	88.40	-0.50	2.10	 	 	 	 	 	 	 	 	 	 	 	 	 	 	 	 	 	 	1581508688	0.55	1.02
12/02/2020 11:58:09	120220	12022020	115809	88.76	12.417947	-57.246443	88.91	-0.420	0.710	1.270	88.85	-0.60	1.60	 	 	 	 	 	 	 	 	 	 	 	 	 	 	 	 	 	 	1581508689	0.45	0.83
12/02/2020 11:58:10	120220	12022020	115810	89.10	12.417948	-57.246443	89.16	-0.220	0.300	0.840	89.13	-1.10	1.20	 	 	 	 	 	 	 	 	 	 	 	 	 	 	 	 	 	 	1581508690	0.52	0.96
12/02/2020 11:58:11	120220	12022020	115811	89.15	12.417950	-57.246440	89.15	-0.030	-0.320	0.750	89.13	-1.70	1.30	 	 	 	 	 	 	 	 	 	 	 	 	 	 	 	 	 	 	1581508691	0.62	1.15
12/02/2020 11:58:12	120220	12022020	115812	89.01	12.417948	-57.246437	88.97	-0.000	-0.610	1.010	88.96	-1.80	1.60	 	 	 	 	 	 	 	 	 	 	 	 	 	 	 	 	 	 	1581508692	0.67	1.24
12/02/2020 11:58:13	120220	12022020	115813	88.73	12.417947	-57.246437	88.69	-0.060	-0.450	1.380	88.67	-1.60	1.90	 	 	 	 	 	 	 	 	 	 	 	 	 	 	 	 	 	 	1581508693	0.43	0.80
12/02/2020 11:58:14	120220	12022020	115814	88.52	12.417947	-57.246438	88.55	0.010	-0.200	1.440	88.52	-1.40	1.90	 	 	 	 	 	 	 	 	 	 	 	 	 	 	 	 	 	 	1581508694	0.32	0.59
12/02/2020 11:58:15	120220	12022020	115815	88.58	12.417948	-57.246438	88.63	0.260	-0.280	1.190	88.62	-1.60	1.60	 	 	 	 	 	 	 	 	 	 	 	 	 	 	 	 	 	 	1581508695	0.41	0.76
12/02/2020 11:58:16	120220	12022020	115816	88.70	12.417950	-57.246437	88.72	0.510	-0.740	1.030	88.71	-2.10	1.50	 	 	 	 	 	 	 	 	 	 	 	 	 	 	 	 	 	 	1581508696	0.76	1.41
12/02/2020 11:58:17	120220	12022020	115817	88.68	12.417952	-57.246433	88.69	0.440	-0.970	1.190	88.67	-2.10	1.80	 	 	 	 	 	 	 	 	 	 	 	 	 	 	 	 	 	 	1581508697	0.93	1.72
12/02/2020 11:58:18	120220	12022020	115818	88.57	12.417952	-57.246430	88.56	-0.040	-0.430	1.540	88.54	-1.30	2.10	 	 	 	 	 	 	 	 	 	 	 	 	 	 	 	 	 	 	1581508698	0.61	1.13
12/02/2020 11:58:19	120220	12022020	115819	88.40	12.417948	-57.246432	88.39	-0.560	0.590	1.810	88.36	-0.30	2.30	 	 	 	 	 	 	 	 	 	 	 	 	 	 	 	 	 	 	1581508699	0.65	1.20
12/02/2020 11:58:20	120220	12022020	115820	88.25	12.417947	-57.246435	88.26	-0.690	1.230	1.720	88.24	-0.00	2.10	 	 	 	 	 	 	 	 	 	 	 	 	 	 	 	 	 	 	1581508700	0.88	1.63
12/02/2020 11:58:21	120220	12022020	115821	88.19	12.417948	-57.246437	88.20	-0.350	0.810	1.330	88.19	-0.70	1.60	 	 	 	 	 	 	 	 	 	 	 	 	 	 	 	 	 	 	1581508701	0.46	0.85
12/02/2020 11:58:22	120220	12022020	115822	88.24	12.417952	-57.246435	88.26	0.140	-0.310	0.840	88.26	-1.90	1.20	 	 	 	 	 	 	 	 	 	 	 	 	 	 	 	 	 	 	1581508702	0.84	1.56
12/02/2020 11:58:23	120220	12022020	115823	88.37	12.417953	-57.246430	88.40	0.380	-1.140	0.490	88.40	-2.40	0.90	 	 	 	 	 	 	 	 	 	 	 	 	 	 	 	 	 	 	1581508703	1.28	2.37
12/02/2020 11:58:24	120220	12022020	115824	88.43	12.417957	-57.246427	88.41	0.330	-1.210	0.430	88.42	-2.30	1.00	 	 	 	 	 	 	 	 	 	 	 	 	 	 	 	 	 	 	1581508704	0.85	1.57
12/02/2020 11:58:25	120220	12022020	115825	88.28	12.417958	-57.246427	88.24	0.180	-0.850	0.710	88.23	-1.90	1.30	 	 	 	 	 	 	 	 	 	 	 	 	 	 	 	 	 	 	1581508705	0.22	0.41
12/02/2020 11:58:26	120220	12022020	115826	88.01	12.417957	-57.246427	87.98	0.100	-0.480	1.200	87.95	-1.60	1.80	 	 	 	 	 	 	 	 	 	 	 	 	 	 	 	 	 	 	1581508706	0.20	0.37
12/02/2020 11:58:27	120220	12022020	115827	87.73	12.417955	-57.246427	87.73	0.070	-0.120	1.730	87.68	-1.20	2.30	 	 	 	 	 	 	 	 	 	 	 	 	 	 	 	 	 	 	1581508707	0.50	0.93
12/02/2020 11:58:28	120220	12022020	115828	87.64	12.417953	-57.246425	87.73	-0.110	0.460	1.950	87.68	-0.50	2.40	 	 	 	 	 	 	 	 	 	 	 	 	 	 	 	 	 	 	1581508708	0.50	0.93
12/02/2020 11:58:29	120220	12022020	115829	87.96	12.417952	-57.246427	88.09	-0.470	1.110	1.740	88.05	-0.00	2.10	 	 	 	 	 	 	 	 	 	 	 	 	 	 	 	 	 	 	1581508709	0.39	0.72
12/02/2020 11:58:30	120220	12022020	115830	88.34	12.417952	-57.246430	88.42	-0.750	1.130	1.430	88.39	-0.30	1.80	 	 	 	 	 	 	 	 	 	 	 	 	 	 	 	 	 	 	1581508710	0.65	1.20
12/02/2020 11:58:31	120220	12022020	115831	88.40	12.417953	-57.246430	88.36	-0.580	0.080	1.310	88.35	-1.70	1.80	 	 	 	 	 	 	 	 	 	 	 	 	 	 	 	 	 	 	1581508711	0.24	0.44
12/02/2020 11:58:32	120220	12022020	115832	88.02	12.417953	-57.246425	87.95	0.150	-1.580	1.390	87.93	-3.20	1.90	 	 	 	 	 	 	 	 	 	 	 	 	 	 	 	 	 	 	1581508712	1.05	1.94
12/02/2020 11:58:33	120220	12022020	115833	87.60	12.417955	-57.246418	87.58	0.900	-2.380	1.380	87.56	-3.40	1.80	 	 	 	 	 	 	 	 	 	 	 	 	 	 	 	 	 	 	1581508713	1.74	3.22
12/02/2020 11:58:34	120220	12022020	115834	87.53	12.417957	-57.246413	87.60	0.960	-1.340	1.340	87.56	-1.90	1.80	 	 	 	 	 	 	 	 	 	 	 	 	 	 	 	 	 	 	1581508714	0.85	1.57
12/02/2020 11:58:35	120220	12022020	115835	87.81	12.417958	-57.246420	87.95	0.220	0.660	1.260	87.90	-0.10	1.70	 	 	 	 	 	 	 	 	 	 	 	 	 	 	 	 	 	 	1581508715	1.16	2.15
12/02/2020 11:58:36	120220	12022020	115836	88.25	12.417958	-57.246428	88.36	-0.630	1.770	1.090	88.33	0.50	1.50	 	 	 	 	 	 	 	 	 	 	 	 	 	 	 	 	 	 	1581508716	1.84	3.41
12/02/2020 11:58:37	120220	12022020	115837	88.57	12.417958	-57.246432	88.60	-0.820	1.140	0.840	88.60	-0.60	1.20	 	 	 	 	 	 	 	 	 	 	 	 	 	 	 	 	 	 	1581508717	0.72	1.33
12/02/2020 11:58:38	120220	12022020	115838	88.68	12.417958	-57.246427	88.67	-0.230	-0.500	0.630	88.68	-2.20	1.10	 	 	 	 	 	 	 	 	 	 	 	 	 	 	 	 	 	 	1581508718	0.99	1.83
12/02/2020 11:58:39	120220	12022020	115839	88.65	12.417958	-57.246418	88.64	0.500	-1.710	0.740	88.63	-3.00	1.30	 	 	 	 	 	 	 	 	 	 	 	 	 	 	 	 	 	 	1581508719	1.78	3.30
12/02/2020 11:58:40	120220	12022020	115840	88.47	12.417958	-57.246413	88.45	0.680	-1.510	1.320	88.42	-2.40	2.00	 	 	 	 	 	 	 	 	 	 	 	 	 	 	 	 	 	 	1581508720	1.13	2.09
12/02/2020 11:58:41	120220	12022020	115841	88.23	12.417955	-57.246415	88.25	0.140	-0.110	1.970	88.20	-0.80	2.50	 	 	 	 	 	 	 	 	 	 	 	 	 	 	 	 	 	 	1581508721	0.73	1.35
12/02/2020 11:58:42	120220	12022020	115842	88.19	12.417952	-57.246422	88.28	-0.640	1.390	2.120	88.23	0.40	2.50	 	 	 	 	 	 	 	 	 	 	 	 	 	 	 	 	 	 	1581508722	1.58	2.93
12/02/2020 11:58:43	120220	12022020	115843	88.46	12.417953	-57.246428	88.59	-0.980	1.770	1.690	88.54	0.30	2.00	 	 	 	 	 	 	 	 	 	 	 	 	 	 	 	 	 	 	1581508723	1.50	2.78
12/02/2020 11:58:44	120220	12022020	115844	88.83	12.417957	-57.246430	88.91	-0.620	0.650	1.130	88.88	-1.20	1.50	 	 	 	 	 	 	 	 	 	 	 	 	 	 	 	 	 	 	1581508724	0.86	1.59
12/02/2020 11:58:45	120220	12022020	115845	89.04	12.417960	-57.246425	89.06	0.130	-1.210	0.810	89.05	-3.00	1.30	 	 	 	 	 	 	 	 	 	 	 	 	 	 	 	 	 	 	1581508725	1.20	2.22
12/02/2020 11:58:46	120220	12022020	115846	89.00	12.417960	-57.246418	88.97	0.710	-2.450	0.900	88.96	-3.70	1.50	 	 	 	 	 	 	 	 	 	 	 	 	 	 	 	 	 	 	1581508726	1.63	3.02
12/02/2020 11:58:47	120220	12022020	115847	88.74	12.417958	-57.246413	88.68	0.820	-2.180	1.320	88.67	-3.00	1.90	 	 	 	 	 	 	 	 	 	 	 	 	 	 	 	 	 	 	1581508727	1.09	2.02
12/02/2020 11:58:48	120220	12022020	115848	88.39	12.417955	-57.246415	88.35	0.600	-0.810	1.680	88.33	-1.50	2.20	 	 	 	 	 	 	 	 	 	 	 	 	 	 	 	 	 	 	1581508728	0.74	1.37
12/02/2020 11:58:49	120220	12022020	115849	88.18	12.417953	-57.246420	88.21	0.310	0.600	1.550	88.18	-0.30	1.90	 	 	 	 	 	 	 	 	 	 	 	 	 	 	 	 	 	 	1581508729	0.97	1.80
12/02/2020 11:58:50	120220	12022020	115850	88.35	12.417957	-57.246423	88.45	-0.060	1.500	0.970	88.43	0.40	1.20	 	 	 	 	 	 	 	 	 	 	 	 	 	 	 	 	 	 	1581508730	1.02	1.89
12/02/2020 11:58:51	120220	12022020	115851	88.83	12.417962	-57.246425	88.91	-0.530	1.700	0.280	88.92	0.30	0.60	 	 	 	 	 	 	 	 	 	 	 	 	 	 	 	 	 	 	1581508731	1.26	2.33
12/02/2020 11:58:52	120220	12022020	115852	89.20	12.417967	-57.246427	89.19	-0.950	1.090	-0.030	89.23	-0.50	0.50	 	 	 	 	 	 	 	 	 	 	 	 	 	 	 	 	 	 	1581508732	0.99	1.83
12/02/2020 11:58:53	120220	12022020	115853	89.19	12.417967	-57.246425	89.12	-1.000	-0.030	0.250	89.15	-1.70	0.90	 	 	 	 	 	 	 	 	 	 	 	 	 	 	 	 	 	 	1581508733	0.29	0.54
12/02/2020 11:58:54	120220	12022020	115854	88.92	12.417963	-57.246422	88.85	-0.530	-1.150	0.860	88.86	-2.60	1.50	 	 	 	 	 	 	 	 	 	 	 	 	 	 	 	 	 	 	1581508734	1.08	2.00
12/02/2020 11:58:55	120220	12022020	115855	88.60	12.417957	-57.246418	88.56	0.250	-1.770	1.480	88.55	-3.00	2.10	 	 	 	 	 	 	 	 	 	 	 	 	 	 	 	 	 	 	1581508735	1.30	2.41
12/02/2020 11:58:56	120220	12022020	115856	88.42	12.417953	-57.246418	88.46	0.870	-1.740	1.880	88.42	-2.80	2.40	 	 	 	 	 	 	 	 	 	 	 	 	 	 	 	 	 	 	1581508736	0.82	1.52
12/02/2020 11:58:57	120220	12022020	115857	88.56	12.417953	-57.246418	88.68	1.000	-1.190	1.900	88.62	-2.20	2.30	 	 	 	 	 	 	 	 	 	 	 	 	 	 	 	 	 	 	1581508737	0.19	0.35
12/02/2020 11:58:58	120220	12022020	115858	88.90	12.417955	-57.246418	89.03	0.700	-0.280	1.640	88.96	-1.20	2.00	 	 	 	 	 	 	 	 	 	 	 	 	 	 	 	 	 	 	1581508738	0.40	0.74
12/02/2020 11:58:59	120220	12022020	115859	89.12	12.417957	-57.246422	89.17	0.240	0.640	1.320	89.12	-0.40	1.70	 	 	 	 	 	 	 	 	 	 	 	 	 	 	 	 	 	 	1581508739	0.70	1.30
12/02/2020 11:59:00	120220	12022020	115900	88.98	12.417958	-57.246423	88.94	-0.130	1.000	1.100	88.91	-0.30	1.50	 	 	 	 	 	 	 	 	 	 	 	 	 	 	 	 	 	 	1581508740	0.60	1.11
12/02/2020 11:59:01	120220	12022020	115901	88.62	12.417960	-57.246422	88.56	-0.330	0.680	1.050	88.54	-0.70	1.50	 	 	 	 	 	 	 	 	 	 	 	 	 	 	 	 	 	 	1581508741	0.39	0.72
12/02/2020 11:59:02	120220	12022020	115902	88.35	12.417962	-57.246420	88.37	-0.400	0.180	1.100	88.34	-1.10	1.50	1016.20	26.50	26.50	20.60	20.60	371.0	70.0	70.0	401.0	27.6	349.00	11.50	77.00	11.10	23252	9413.0	27.6	27.6	1581508742	0.63	1.17
12/02/2020 11:59:03	120220	12022020	115903	88.54	12.417962	-57.246417	88.70	-0.420	0.080	0.920	88.65	-1.10	1.30	 	 	 	 	 	 	 	 	 	 	 	 	 	 	 	 	 	 	1581508743	0.44	0.81
12/02/2020 11:59:04	120220	12022020	115904	89.20	12.417963	-57.246418	89.38	-0.400	0.200	0.480	89.33	-1.10	0.80	 	 	 	 	 	 	 	 	 	 	 	 	 	 	 	 	 	 	1581508744	0.44	0.81
12/02/2020 11:59:05	120220	12022020	115905	89.67	12.417965	-57.246422	89.72	-0.270	-0.150	0.300	89.68	-1.60	0.80	 	 	 	 	 	 	 	 	 	 	 	 	 	 	 	 	 	 	1581508745	0.64	1.19
12/02/2020 11:59:06	120220	12022020	115906	89.53	12.417965	-57.246420	89.47	-0.060	-0.920	0.750	89.45	-2.40	1.50	 	 	 	 	 	 	 	 	 	 	 	 	 	 	 	 	 	 	1581508746	0.16	0.30
12/02/2020 11:59:07	120220	12022020	115907	89.04	12.417962	-57.246418	88.99	0.190	-1.540	1.610	88.94	-2.80	2.30	 	 	 	 	 	 	 	 	 	 	 	 	 	 	 	 	 	 	1581508747	1.10	2.04
12/02/2020 11:59:08	120220	12022020	115908	88.62	12.417955	-57.246415	88.63	0.480	-1.540	2.300	88.56	-2.60	2.90	 	 	 	 	 	 	 	 	 	 	 	 	 	 	 	 	 	 	1581508748	1.45	2.69
12/02/2020 11:59:09	120220	12022020	115909	88.43	12.417952	-57.246413	88.51	0.720	-0.810	2.460	88.43	-1.70	2.80	 	 	 	 	 	 	 	 	 	 	 	 	 	 	 	 	 	 	1581508749	0.80	1.48
12/02/2020 11:59:10	120220	12022020	115910	88.54	12.417953	-57.246413	88.64	0.640	0.250	1.990	88.58	-0.70	2.20	 	 	 	 	 	 	 	 	 	 	 	 	 	 	 	 	 	 	1581508750	0.42	0.78
12/02/2020 11:59:11	120220	12022020	115911	88.80	12.417958	-57.246417	88.89	0.170	1.010	1.060	88.86	-0.10	1.20	 	 	 	 	 	 	 	 	 	 	 	 	 	 	 	 	 	 	1581508751	1.30	2.41
12/02/2020 11:59:12	120220	12022020	115912	88.98	12.417965	-57.246418	88.98	-0.380	1.130	0.150	88.98	-0.20	0.40	 	 	 	 	 	 	 	 	 	 	 	 	 	 	 	 	 	 	1581508752	1.53	2.83
12/02/2020 11:59:13	120220	12022020	115913	88.94	12.417970	-57.246418	88.91	-0.630	0.650	-0.330	88.92	-0.80	0.10	 	 	 	 	 	 	 	 	 	 	 	 	 	 	 	 	 	 	1581508753	1.13	2.09
12/02/2020 11:59:14	120220	12022020	115914	88.93	12.417973	-57.246415	88.95	-0.480	-0.100	-0.420	88.96	-1.60	0.10	 	 	 	 	 	 	 	 	 	 	 	 	 	 	 	 	 	 	1581508754	0.70	1.30
12/02/2020 11:59:15	120220	12022020	115915	89.08	12.417973	-57.246413	89.11	-0.200	-0.660	-0.120	89.11	-2.00	0.50	 	 	 	 	 	 	 	 	 	 	 	 	 	 	 	 	 	 	1581508755	0.55	1.02
12/02/2020 11:59:16	120220	12022020	115916	89.19	12.417970	-57.246412	89.21	-0.090	-0.780	0.500	89.19	-2.00	1.20	 	 	 	 	 	 	 	 	 	 	 	 	 	 	 	 	 	 	1581508756	0.72	1.33
12/02/2020 11:59:17	120220	12022020	115917	89.15	12.417965	-57.246412	89.20	-0.150	-0.540	1.150	89.13	-1.70	1.80	 	 	 	 	 	 	 	 	 	 	 	 	 	 	 	 	 	 	1581508757	1.09	2.02
12/02/2020 11:59:18	120220	12022020	115918	89.02	12.417960	-57.246415	89.08	-0.130	-0.240	1.660	88.99	-1.40	2.20	 	 	 	 	 	 	 	 	 	 	 	 	 	 	 	 	 	 	1581508758	1.06	1.96
12/02/2020 11:59:19	120220	12022020	115919	88.82	12.417958	-57.246415	88.86	0.170	-0.300	2.020	88.78	-1.70	2.50	 	 	 	 	 	 	 	 	 	 	 	 	 	 	 	 	 	 	1581508759	0.63	1.17
12/02/2020 11:59:20	120220	12022020	115920	88.68	12.417958	-57.246413	88.77	0.600	-0.820	2.130	88.68	-2.20	2.50	 	 	 	 	 	 	 	 	 	 	 	 	 	 	 	 	 	 	1581508760	0.39	0.72
12/02/2020 11:59:21	120220	12022020	115921	88.74	12.417962	-57.246408	88.86	0.820	-1.170	1.980	88.78	-2.40	2.30	 	 	 	 	 	 	 	 	 	 	 	 	 	 	 	 	 	 	1581508761	1.15	2.13
12/02/2020 11:59:22	120220	12022020	115922	88.99	12.417965	-57.246405	89.14	0.550	-0.670	1.580	89.05	-1.60	1.90	 	 	 	 	 	 	 	 	 	 	 	 	 	 	 	 	 	 	1581508762	1.02	1.89
12/02/2020 11:59:23	120220	12022020	115923	89.30	12.417967	-57.246407	89.42	-0.040	0.520	1.210	89.34	-0.30	1.60	 	 	 	 	 	 	 	 	 	 	 	 	 	 	 	 	 	 	1581508763	0.53	0.98
12/02/2020 11:59:24	120220	12022020	115924	89.45	12.417967	-57.246412	89.51	-0.550	1.590	1.090	89.45	0.50	1.50	 	 	 	 	 	 	 	 	 	 	 	 	 	 	 	 	 	 	1581508764	0.97	1.80
12/02/2020 11:59:25	120220	12022020	115925	89.38	12.417967	-57.246415	89.38	-0.760	1.750	1.190	89.35	0.30	1.70	 	 	 	 	 	 	 	 	 	 	 	 	 	 	 	 	 	 	1581508765	0.92	1.70
12/02/2020 11:59:26	120220	12022020	115926	89.25	12.417967	-57.246417	89.27	-0.670	0.710	1.290	89.25	-1.10	1.70	 	 	 	 	 	 	 	 	 	 	 	 	 	 	 	 	 	 	1581508766	0.16	0.30
12/02/2020 11:59:27	120220	12022020	115927	89.32	12.417967	-57.246412	89.40	-0.380	-0.980	1.120	89.36	-2.70	1.50	 	 	 	 	 	 	 	 	 	 	 	 	 	 	 	 	 	 	1581508767	0.83	1.54
12/02/2020 11:59:28	120220	12022020	115928	89.55	12.417968	-57.246407	89.62	0.030	-2.260	0.830	89.59	-3.70	1.20	 	 	 	 	 	 	 	 	 	 	 	 	 	 	 	 	 	 	1581508768	1.31	2.43
12/02/2020 11:59:29	120220	12022020	115929	89.68	12.417968	-57.246402	89.71	0.480	-2.350	0.840	89.67	-3.40	1.40	 	 	 	 	 	 	 	 	 	 	 	 	 	 	 	 	 	 	1581508769	0.91	1.69
12/02/2020 11:59:30	120220	12022020	115930	89.60	12.417967	-57.246402	89.62	0.840	-1.360	1.110	89.58	-2.20	1.60	 	 	 	 	 	 	 	 	 	 	 	 	 	 	 	 	 	 	1581508770	0.22	0.41
12/02/2020 11:59:31	120220	12022020	115931	89.50	12.417967	-57.246405	89.54	0.850	0.040	1.350	89.49	-0.80	1.80	 	 	 	 	 	 	 	 	 	 	 	 	 	 	 	 	 	 	1581508771	0.63	1.17
12/02/2020 11:59:32	120220	12022020	115932	89.52	12.417968	-57.246408	89.58	0.390	1.120	1.370	89.54	0.10	1.80	 	 	 	 	 	 	 	 	 	 	 	 	 	 	 	 	 	 	1581508772	0.84	1.56
12/02/2020 11:59:33	120220	12022020	115933	89.64	12.417970	-57.246412	89.70	-0.290	1.420	1.140	89.66	0.10	1.50	 	 	 	 	 	 	 	 	 	 	 	 	 	 	 	 	 	 	1581508773	0.65	1.20
12/02/2020 11:59:34	120220	12022020	115934	89.72	12.417972	-57.246412	89.75	-0.740	0.990	0.940	89.73	-0.50	1.40	 	 	 	 	 	 	 	 	 	 	 	 	 	 	 	 	 	 	1581508774	0.37	0.69
12/02/2020 11:59:35	120220	12022020	115935	89.75	12.417972	-57.246408	89.80	-0.730	0.240	0.980	89.77	-1.20	1.50	 	 	 	 	 	 	 	 	 	 	 	 	 	 	 	 	 	 	1581508775	0.45	0.83
12/02/2020 11:59:36	120220	12022020	115936	89.89	12.417972	-57.246407	89.97	-0.420	-0.420	1.100	89.93	-1.80	1.50	 	 	 	 	 	 	 	 	 	 	 	 	 	 	 	 	 	 	1581508776	0.50	0.93
12/02/2020 11:59:37	120220	12022020	115937	90.10	12.417970	-57.246405	90.19	-0.110	-0.870	1.160	90.14	-2.20	1.60	 	 	 	 	 	 	 	 	 	 	 	 	 	 	 	 	 	 	1581508777	0.39	0.72
12/02/2020 11:59:38	120220	12022020	115938	90.20	12.417968	-57.246405	90.23	0.030	-1.000	1.310	90.19	-2.20	1.80	 	 	 	 	 	 	 	 	 	 	 	 	 	 	 	 	 	 	1581508778	0.32	0.59
12/02/2020 11:59:39	120220	12022020	115939	90.08	12.417967	-57.246405	90.08	0.080	-0.900	1.480	90.04	-2.10	2.00	 	 	 	 	 	 	 	 	 	 	 	 	 	 	 	 	 	 	1581508779	0.30	0.56
12/02/2020 11:59:40	120220	12022020	115940	89.87	12.417967	-57.246405	89.86	0.260	-0.890	1.620	89.82	-2.20	2.10	 	 	 	 	 	 	 	 	 	 	 	 	 	 	 	 	 	 	1581508780	0.12	0.22
12/02/2020 11:59:41	120220	12022020	115941	89.59	12.417967	-57.246403	89.57	0.540	-0.950	1.800	89.53	-2.10	2.30	 	 	 	 	 	 	 	 	 	 	 	 	 	 	 	 	 	 	1581508781	0.43	0.80
12/02/2020 11:59:42	120220	12022020	115942	89.33	12.417967	-57.246400	89.35	0.580	-0.420	1.800	89.30	-1.30	2.20	 	 	 	 	 	 	 	 	 	 	 	 	 	 	 	 	 	 	1581508782	0.66	1.22
12/02/2020 11:59:43	120220	12022020	115943	89.28	12.417967	-57.246402	89.35	0.210	0.780	1.390	89.30	-0.10	1.60	 	 	 	 	 	 	 	 	 	 	 	 	 	 	 	 	 	 	1581508783	0.29	0.54
12/02/2020 11:59:44	120220	12022020	115944	89.48	12.417972	-57.246407	89.56	-0.270	1.750	0.640	89.54	0.50	0.80	 	 	 	 	 	 	 	 	 	 	 	 	 	 	 	 	 	 	1581508784	1.39	2.57
12/02/2020 11:59:45	120220	12022020	115945	89.80	12.417978	-57.246410	89.88	-0.430	1.400	-0.130	89.86	-0.30	0.10	 	 	 	 	 	 	 	 	 	 	 	 	 	 	 	 	 	 	1581508785	1.64	3.04
12/02/2020 11:59:46	120220	12022020	115946	90.10	12.417983	-57.246408	90.14	-0.200	-0.200	-0.520	90.14	-2.00	-0.10	 	 	 	 	 	 	 	 	 	 	 	 	 	 	 	 	 	 	1581508786	1.21	2.24
12/02/2020 11:59:47	120220	12022020	115947	90.16	12.417983	-57.246402	90.12	0.060	-1.720	-0.230	90.13	-3.20	0.50	 	 	 	 	 	 	 	 	 	 	 	 	 	 	 	 	 	 	1581508787	1.47	2.72
12/02/2020 11:59:48	120220	12022020	115948	89.79	12.417978	-57.246397	89.67	0.080	-1.930	0.690	89.68	-2.90	1.50	 	 	 	 	 	 	 	 	 	 	 	 	 	 	 	 	 	 	1581508788	1.54	2.85
12/02/2020 11:59:49	120220	12022020	115949	89.20	12.417972	-57.246397	89.12	-0.110	-0.930	1.730	89.09	-1.80	2.40	 	 	 	 	 	 	 	 	 	 	 	 	 	 	 	 	 	 	1581508789	1.39	2.57
12/02/2020 11:59:50	120220	12022020	115950	88.81	12.417968	-57.246402	88.85	-0.330	0.310	2.300	88.79	-0.70	2.70	 	 	 	 	 	 	 	 	 	 	 	 	 	 	 	 	 	 	1581508790	1.46	2.70
12/02/2020 11:59:51	120220	12022020	115951	88.86	12.417967	-57.246407	88.97	-0.420	0.900	2.010	88.91	-0.40	2.20	 	 	 	 	 	 	 	 	 	 	 	 	 	 	 	 	 	 	1581508791	1.10	2.04
12/02/2020 11:59:52	120220	12022020	115952	89.20	12.417970	-57.246410	89.29	-0.220	0.610	1.050	89.27	-0.90	1.20	 	 	 	 	 	 	 	 	 	 	 	 	 	 	 	 	 	 	1581508792	0.87	1.61
12/02/2020 11:59:53	120220	12022020	115953	89.42	12.417977	-57.246408	89.45	0.210	-0.320	0.360	89.43	-1.90	0.70	 	 	 	 	 	 	 	 	 	 	 	 	 	 	 	 	 	 	1581508793	1.35	2.50
12/02/2020 11:59:54	120220	12022020	115954	89.38	12.417980	-57.246403	89.39	0.590	-1.150	0.300	89.37	-2.50	0.80	 	 	 	 	 	 	 	 	 	 	 	 	 	 	 	 	 	 	1581508794	1.25	2.31
12/02/2020 11:59:55	120220	12022020	115955	89.39	12.417980	-57.246398	89.44	0.650	-1.140	0.490	89.41	-2.20	1.00	 	 	 	 	 	 	 	 	 	 	 	 	 	 	 	 	 	 	1581508795	0.81	1.50
12/02/2020 11:59:56	120220	12022020	115956	89.47	12.417978	-57.246400	89.51	0.380	-0.410	0.770	89.47	-1.40	1.30	 	 	 	 	 	 	 	 	 	 	 	 	 	 	 	 	 	 	1581508796	0.33	0.61
12/02/2020 11:59:57	120220	12022020	115957	89.40	12.417977	-57.246402	89.40	-0.060	0.340	1.120	89.36	-0.80	1.60	 	 	 	 	 	 	 	 	 	 	 	 	 	 	 	 	 	 	1581508797	0.73	1.35
12/02/2020 11:59:58	120220	12022020	115958	89.17	12.417975	-57.246405	89.15	-0.470	0.710	1.310	89.12	-0.50	1.70	 	 	 	 	 	 	 	 	 	 	 	 	 	 	 	 	 	 	1581508798	0.62	1.15
12/02/2020 11:59:59	120220	12022020	115959	88.96	12.417975	-57.246407	88.96	-0.640	0.700	1.220	88.94	-0.70	1.60	 	 	 	 	 	 	 	 	 	 	 	 	 	 	 	 	 	 	1581508799	0.30	0.56
12/02/2020 12:00:00	120220	12022020	120000	88.97	12.417975	-57.246407	89.02	-0.460	0.350	0.900	89.00	-1.10	1.30	 	 	 	 	 	 	 	 	 	 	 	 	 	 	 	 	 	 	1581508800	0.25	0.46
12/02/2020 12:00:01	120220	12022020	120001	89.13	12.417977	-57.246407	89.18	-0.010	-0.390	0.720	89.16	-1.90	1.20	 	 	 	 	 	 	 	 	 	 	 	 	 	 	 	 	 	 	1581508801	0.41	0.76
12/02/2020 12:00:02	120220	12022020	120002	89.22	12.417978	-57.246403	89.26	0.490	-1.220	0.750	89.23	-2.70	1.20	1016.20	26.50	26.50	20.50	20.50	311.0	69.0	69.0	399.0	27.6	348.00	11.50	77.00	11.20	22088	9263.0	27.6	27.6	1581508802	0.62	1.15
12/02/2020 12:00:03	120220	12022020	120003	89.24	12.417980	-57.246400	89.26	0.710	-1.500	0.810	89.24	-2.70	1.30	 	 	 	 	 	 	 	 	 	 	 	 	 	 	 	 	 	 	1581508803	0.78	1.44
12/02/2020 12:00:04	120220	12022020	120004	89.27	12.417982	-57.246398	89.30	0.460	-0.890	0.950	89.29	-1.90	1.50	 	 	 	 	 	 	 	 	 	 	 	 	 	 	 	 	 	 	1581508804	0.32	0.59
12/02/2020 12:00:05	120220	12022020	120005	89.38	12.417980	-57.246402	89.44	-0.030	0.050	1.270	89.40	-1.00	1.90	 	 	 	 	 	 	 	 	 	 	 	 	 	 	 	 	 	 	1581508805	0.55	1.02
12/02/2020 12:00:06	120220	12022020	120006	89.48	12.417978	-57.246405	89.54	-0.340	0.620	1.800	89.49	-0.60	2.40	 	 	 	 	 	 	 	 	 	 	 	 	 	 	 	 	 	 	1581508806	0.92	1.70
12/02/2020 12:00:07	120220	12022020	120007	89.49	12.417973	-57.246407	89.54	-0.320	0.640	2.330	89.48	-0.70	2.90	 	 	 	 	 	 	 	 	 	 	 	 	 	 	 	 	 	 	1581508807	0.88	1.63
12/02/2020 12:00:08	120220	12022020	120008	89.39	12.417970	-57.246405	89.43	-0.140	0.360	2.640	89.35	-1.00	3.10	 	 	 	 	 	 	 	 	 	 	 	 	 	 	 	 	 	 	1581508808	0.81	1.50
12/02/2020 12:00:09	120220	12022020	120009	89.23	12.417968	-57.246403	89.26	-0.050	0.090	2.590	89.21	-1.30	2.90	 	 	 	 	 	 	 	 	 	 	 	 	 	 	 	 	 	 	1581508809	0.53	0.98
12/02/2020 12:00:10	120220	12022020	120010	89.14	12.417968	-57.246403	89.17	-0.120	-0.060	2.180	89.12	-1.40	2.40	 	 	 	 	 	 	 	 	 	 	 	 	 	 	 	 	 	 	1581508810	0.09	0.17
12/02/2020 12:00:11	120220	12022020	120011	89.07	12.417972	-57.246405	89.08	-0.220	-0.170	1.540	89.05	-1.50	1.80	 	 	 	 	 	 	 	 	 	 	 	 	 	 	 	 	 	 	1581508811	0.70	1.30
12/02/2020 12:00:12	120220	12022020	120012	89.01	12.417977	-57.246407	89.01	-0.150	-0.460	0.820	89.01	-1.90	1.00	 	 	 	 	 	 	 	 	 	 	 	 	 	 	 	 	 	 	1581508812	1.18	2.19
12/02/2020 12:00:13	120220	12022020	120013	89.03	12.417983	-57.246405	89.04	0.210	-1.010	0.120	89.04	-2.50	0.40	 	 	 	 	 	 	 	 	 	 	 	 	 	 	 	 	 	 	1581508813	1.22	2.26
12/02/2020 12:00:14	120220	12022020	120014	89.15	12.417987	-57.246403	89.20	0.750	-1.520	-0.450	89.20	-2.80	-0.10	 	 	 	 	 	 	 	 	 	 	 	 	 	 	 	 	 	 	1581508814	1.14	2.11
12/02/2020 12:00:15	120220	12022020	120015	89.40	12.417990	-57.246400	89.44	1.060	-1.390	-0.670	89.44	-2.40	-0.20	 	 	 	 	 	 	 	 	 	 	 	 	 	 	 	 	 	 	1581508815	1.04	1.93
12/02/2020 12:00:16	120220	12022020	120016	89.52	12.417992	-57.246398	89.53	0.750	-0.350	-0.300	89.51	-1.20	0.40	 	 	 	 	 	 	 	 	 	 	 	 	 	 	 	 	 	 	1581508816	0.33	0.61
12/02/2020 12:00:17	120220	12022020	120017	89.37	12.417990	-57.246402	89.35	-0.130	1.130	0.590	89.32	0.30	1.30	 	 	 	 	 	 	 	 	 	 	 	 	 	 	 	 	 	 	1581508817	0.78	1.44
12/02/2020 12:00:18	120220	12022020	120018	89.15	12.417985	-57.246407	89.17	-1.130	2.240	1.580	89.12	1.10	2.30	 	 	 	 	 	 	 	 	 	 	 	 	 	 	 	 	 	 	1581508818	1.62	3.00
12/02/2020 12:00:19	120220	12022020	120019	89.08	12.417978	-57.246413	89.13	-1.670	2.240	2.260	89.08	0.70	2.80	 	 	 	 	 	 	 	 	 	 	 	 	 	 	 	 	 	 	1581508819	1.76	3.26
12/02/2020 12:00:20	120220	12022020	120020	89.12	12.417973	-57.246415	89.15	-1.410	0.810	2.520	89.12	-1.10	3.00	 	 	 	 	 	 	 	 	 	 	 	 	 	 	 	 	 	 	1581508820	1.20	2.22
12/02/2020 12:00:21	120220	12022020	120021	89.06	12.417970	-57.246410	89.04	-0.420	-1.510	2.640	89.02	-3.50	3.10	 	 	 	 	 	 	 	 	 	 	 	 	 	 	 	 	 	 	1581508821	1.09	2.02
12/02/2020 12:00:22	120220	12022020	120022	88.83	12.417970	-57.246402	88.83	0.780	-3.320	2.630	88.78	-4.80	3.00	 	 	 	 	 	 	 	 	 	 	 	 	 	 	 	 	 	 	1581508822	1.71	3.17
12/02/2020 12:00:23	120220	12022020	120023	88.72	12.417973	-57.246397	88.80	1.520	-3.240	2.290	88.74	-4.00	2.50	 	 	 	 	 	 	 	 	 	 	 	 	 	 	 	 	 	 	1581508823	1.42	2.63
12/02/2020 12:00:24	120220	12022020	120024	88.96	12.417977	-57.246397	89.08	1.460	-1.360	1.610	89.02	-1.90	1.80	 	 	 	 	 	 	 	 	 	 	 	 	 	 	 	 	 	 	1581508824	1.05	1.94
12/02/2020 12:00:25	120220	12022020	120025	89.25	12.417983	-57.246405	89.33	0.750	0.890	0.860	89.30	0.20	1.10	 	 	 	 	 	 	 	 	 	 	 	 	 	 	 	 	 	 	1581508825	2.03	3.76
12/02/2020 12:00:26	120220	12022020	120026	89.43	12.417987	-57.246413	89.46	-0.180	2.190	0.330	89.45	1.00	0.70	 	 	 	 	 	 	 	 	 	 	 	 	 	 	 	 	 	 	1581508826	1.87	3.46
12/02/2020 12:00:27	120220	12022020	120027	89.46	12.417988	-57.246417	89.44	-0.860	2.200	0.200	89.45	0.70	0.70	 	 	 	 	 	 	 	 	 	 	 	 	 	 	 	 	 	 	1581508827	0.78	1.44
12/02/2020 12:00:28	120220	12022020	120028	89.31	12.417987	-57.246415	89.26	-1.010	1.170	0.370	89.25	-0.60	0.90	 	 	 	 	 	 	 	 	 	 	 	 	 	 	 	 	 	 	1581508828	0.35	0.65
12/02/2020 12:00:29	120220	12022020	120029	89.00	12.417985	-57.246412	88.94	-0.700	-0.310	0.630	88.93	-2.00	1.10	 	 	 	 	 	 	 	 	 	 	 	 	 	 	 	 	 	 	1581508829	0.86	1.59
12/02/2020 12:00:30	120220	12022020	120030	88.70	12.417985	-57.246407	88.70	-0.170	-1.520	0.800	88.67	-3.00	1.30	 	 	 	 	 	 	 	 	 	 	 	 	 	 	 	 	 	 	1581508830	0.94	1.74
12/02/2020 12:00:31	120220	12022020	120031	88.64	12.417985	-57.246405	88.72	0.310	-1.930	0.940	88.67	-3.10	1.40	 	 	 	 	 	 	 	 	 	 	 	 	 	 	 	 	 	 	1581508831	0.65	1.20
12/02/2020 12:00:32	120220	12022020	120032	88.87	12.417985	-57.246405	89.02	0.520	-1.430	1.140	88.95	-2.40	1.60	 	 	 	 	 	 	 	 	 	 	 	 	 	 	 	 	 	 	1581508832	0.11	0.20
12/02/2020 12:00:33	120220	12022020	120033	89.27	12.417985	-57.246407	89.41	0.410	-0.470	1.350	89.34	-1.40	1.90	 	 	 	 	 	 	 	 	 	 	 	 	 	 	 	 	 	 	1581508833	0.60	1.11
12/02/2020 12:00:34	120220	12022020	120034	89.48	12.417983	-57.246410	89.53	0.100	0.300	1.670	89.47	-0.80	2.20	 	 	 	 	 	 	 	 	 	 	 	 	 	 	 	 	 	 	1581508834	0.89	1.65
12/02/2020 12:00:35	120220	12022020	120035	89.30	12.417980	-57.246413	89.27	-0.160	0.590	2.140	89.23	-0.70	2.70	 	 	 	 	 	 	 	 	 	 	 	 	 	 	 	 	 	 	1581508835	0.81	1.50
12/02/2020 12:00:36	120220	12022020	120036	88.95	12.417977	-57.246413	88.92	-0.160	0.460	2.480	88.89	-0.90	2.90	 	 	 	 	 	 	 	 	 	 	 	 	 	 	 	 	 	 	1581508836	0.71	1.31
12/02/2020 12:00:37	120220	12022020	120037	88.76	12.417975	-57.246412	88.79	0.010	0.160	2.360	88.75	-1.20	2.60	 	 	 	 	 	 	 	 	 	 	 	 	 	 	 	 	 	 	1581508837	0.49	0.91
12/02/2020 12:00:38	120220	12022020	120038	88.85	12.417977	-57.246410	88.92	0.110	-0.020	1.780	88.89	-1.30	1.90	 	 	 	 	 	 	 	 	 	 	 	 	 	 	 	 	 	 	1581508838	0.51	0.94
12/02/2020 12:00:39	120220	12022020	120039	89.08	12.417982	-57.246410	89.12	0.010	-0.040	0.940	89.12	-1.30	1.10	 	 	 	 	 	 	 	 	 	 	 	 	 	 	 	 	 	 	1581508839	1.06	1.96
12/02/2020 12:00:40	120220	12022020	120040	89.18	12.417987	-57.246412	89.15	-0.100	-0.190	0.270	89.17	-1.60	0.60	 	 	 	 	 	 	 	 	 	 	 	 	 	 	 	 	 	 	1581508840	1.26	2.33
12/02/2020 12:00:41	120220	12022020	120041	89.06	12.417992	-57.246412	89.01	0.060	-0.610	-0.020	89.03	-2.00	0.40	 	 	 	 	 	 	 	 	 	 	 	 	 	 	 	 	 	 	1581508841	0.86	1.59
12/02/2020 12:00:42	120220	12022020	120042	88.93	12.417993	-57.246410	88.92	0.390	-1.060	-0.030	88.92	-2.40	0.50	 	 	 	 	 	 	 	 	 	 	 	 	 	 	 	 	 	 	1581508842	0.63	1.17
12/02/2020 12:00:43	120220	12022020	120043	88.91	12.417995	-57.246407	88.93	0.530	-1.120	0.270	88.92	-2.30	0.80	 	 	 	 	 	 	 	 	 	 	 	 	 	 	 	 	 	 	1581508843	0.62	1.15
12/02/2020 12:00:44	120220	12022020	120044	88.93	12.417992	-57.246407	88.97	0.290	-0.530	0.670	88.93	-1.50	1.20	 	 	 	 	 	 	 	 	 	 	 	 	 	 	 	 	 	 	1581508844	0.48	0.89
12/02/2020 12:00:45	120220	12022020	120045	88.96	12.417990	-57.246408	89.01	-0.170	0.430	0.930	88.98	-0.60	1.40	 	 	 	 	 	 	 	 	 	 	 	 	 	 	 	 	 	 	1581508845	0.69	1.28
12/02/2020 12:00:46	120220	12022020	120046	89.04	12.417988	-57.246412	89.08	-0.580	1.040	1.080	89.07	-0.20	1.60	 	 	 	 	 	 	 	 	 	 	 	 	 	 	 	 	 	 	1581508846	0.87	1.61
12/02/2020 12:00:47	120220	12022020	120047	89.13	12.417988	-57.246415	89.17	-0.820	1.030	1.370	89.14	-0.40	1.90	 	 	 	 	 	 	 	 	 	 	 	 	 	 	 	 	 	 	1581508847	0.57	1.06
12/02/2020 12:00:48	120220	12022020	120048	89.25	12.417985	-57.246415	89.34	-0.850	0.570	1.730	89.29	-0.90	2.20	 	 	 	 	 	 	 	 	 	 	 	 	 	 	 	 	 	 	1581508848	0.50	0.93
12/02/2020 12:00:49	120220	12022020	120049	89.42	12.417982	-57.246415	89.50	-0.500	-0.220	1.950	89.44	-1.90	2.40	 	 	 	 	 	 	 	 	 	 	 	 	 	 	 	 	 	 	1581508849	0.76	1.41
12/02/2020 12:00:50	120220	12022020	120050	89.45	12.417978	-57.246413	89.46	0.290	-1.320	1.950	89.42	-2.90	2.30	 	 	 	 	 	 	 	 	 	 	 	 	 	 	 	 	 	 	1581508850	0.71	1.31
12/02/2020 12:00:51	120220	12022020	120051	89.25	12.417980	-57.246408	89.23	1.200	-2.150	1.840	89.19	-3.50	2.20	 	 	 	 	 	 	 	 	 	 	 	 	 	 	 	 	 	 	1581508851	0.94	1.74
12/02/2020 12:00:52	120220	12022020	120052	88.95	12.417982	-57.246405	88.95	1.560	-1.820	1.820	88.91	-2.70	2.20	 	 	 	 	 	 	 	 	 	 	 	 	 	 	 	 	 	 	1581508852	1.09	2.02
12/02/2020 12:00:53	120220	12022020	120053	88.87	12.417985	-57.246405	88.97	0.980	-0.280	1.750	88.90	-1.00	2.10	 	 	 	 	 	 	 	 	 	 	 	 	 	 	 	 	 	 	1581508853	0.81	1.50
12/02/2020 12:00:54	120220	12022020	120054	89.17	12.417988	-57.246412	89.31	-0.180	1.380	1.440	89.26	0.40	1.70	 	 	 	 	 	 	 	 	 	 	 	 	 	 	 	 	 	 	1581508854	1.47	2.72
12/02/2020 12:00:55	120220	12022020	120055	89.61	12.417990	-57.246418	89.72	-1.110	2.020	0.990	89.69	0.60	1.30	 	 	 	 	 	 	 	 	 	 	 	 	 	 	 	 	 	 	1581508855	1.49	2.76
12/02/2020 12:00:56	120220	12022020	120056	89.92	12.417990	-57.246420	89.97	-1.260	1.410	0.680	89.95	-0.30	1.10	 	 	 	 	 	 	 	 	 	 	 	 	 	 	 	 	 	 	1581508856	0.52	0.96
12/02/2020 12:00:57	120220	12022020	120057	89.92	12.417988	-57.246418	89.90	-0.740	0.090	0.760	89.89	-1.70	1.30	 	 	 	 	 	 	 	 	 	 	 	 	 	 	 	 	 	 	1581508857	0.53	0.98
12/02/2020 12:00:58	120220	12022020	120058	89.71	12.417987	-57.246415	89.71	-0.010	-1.240	1.040	89.68	-2.90	1.50	 	 	 	 	 	 	 	 	 	 	 	 	 	 	 	 	 	 	1581508858	1.06	1.96
12/02/2020 12:00:59	120220	12022020	120059	89.67	12.417985	-57.246410	89.72	0.520	-1.970	1.150	89.68	-3.30	1.60	 	 	 	 	 	 	 	 	 	 	 	 	 	 	 	 	 	 	1581508859	0.92	1.70
12/02/2020 12:01:00	120220	12022020	120100	89.78	12.417985	-57.246408	89.86	0.630	-1.760	1.200	89.81	-2.80	1.70	 	 	 	 	 	 	 	 	 	 	 	 	 	 	 	 	 	 	1581508860	0.42	0.78
12/02/2020 12:01:01	120220	12022020	120101	89.86	12.417987	-57.246410	89.92	0.390	-0.840	1.440	89.87	-1.80	2.00	1016.20	26.50	26.60	20.70	20.70	254.0	70.0	70.0	397.0	27.5	344.00	11.00	72.00	10.60	20910	9401.0	27.6	27.6	1581508861	0.33	0.61
12/02/2020 12:01:02	120220	12022020	120102	89.84	12.417985	-57.246413	89.91	0.100	0.260	1.810	89.84	-0.70	2.30	 	 	 	 	 	 	 	 	 	 	 	 	 	 	 	 	 	 	1581508862	0.76	1.41
12/02/2020 12:01:03	120220	12022020	120103	89.85	12.417982	-57.246417	89.92	-0.050	1.090	1.870	89.86	-0.10	2.20	 	 	 	 	 	 	 	 	 	 	 	 	 	 	 	 	 	 	1581508863	0.98	1.81
12/02/2020 12:01:04	120220	12022020	120104	89.93	12.417982	-57.246418	90.00	-0.070	1.390	1.570	89.96	0.00	1.90	 	 	 	 	 	 	 	 	 	 	 	 	 	 	 	 	 	 	1581508864	0.58	1.07
12/02/2020 12:01:05	120220	12022020	120105	89.98	12.417983	-57.246420	89.99	-0.110	0.990	1.270	89.97	-0.60	1.60	 	 	 	 	 	 	 	 	 	 	 	 	 	 	 	 	 	 	1581508865	0.54	1.00
12/02/2020 12:01:06	120220	12022020	120106	89.83	12.417987	-57.246420	89.80	-0.200	-0.110	1.100	89.78	-1.90	1.50	 	 	 	 	 	 	 	 	 	 	 	 	 	 	 	 	 	 	1581508866	0.76	1.41
12/02/2020 12:01:07	120220	12022020	120107	89.58	12.417990	-57.246415	89.59	-0.180	-1.460	0.950	89.55	-3.10	1.30	 	 	 	 	 	 	 	 	 	 	 	 	 	 	 	 	 	 	1581508867	0.96	1.78
12/02/2020 12:01:08	120220	12022020	120108	89.52	12.417992	-57.246410	89.59	0.040	-2.160	0.790	89.54	-3.40	1.20	 	 	 	 	 	 	 	 	 	 	 	 	 	 	 	 	 	 	1581508868	1.10	2.04
12/02/2020 12:01:09	120220	12022020	120109	89.70	12.417990	-57.246408	89.80	0.310	-1.690	0.790	89.74	-2.60	1.30	 	 	 	 	 	 	 	 	 	 	 	 	 	 	 	 	 	 	1581508869	0.58	1.07
12/02/2020 12:01:10	120220	12022020	120110	89.82	12.417988	-57.246410	89.87	0.390	-0.380	1.010	89.82	-1.20	1.50	 	 	 	 	 	 	 	 	 	 	 	 	 	 	 	 	 	 	1581508870	0.57	1.06
12/02/2020 12:01:11	120220	12022020	120111	89.77	12.417987	-57.246413	89.79	0.170	1.030	1.170	89.74	0.10	1.60	 	 	 	 	 	 	 	 	 	 	 	 	 	 	 	 	 	 	1581508871	1.08	2.00
12/02/2020 12:01:12	120220	12022020	120112	89.66	12.417987	-57.246418	89.68	-0.260	1.830	1.070	89.64	0.50	1.40	 	 	 	 	 	 	 	 	 	 	 	 	 	 	 	 	 	 	1581508872	1.09	2.02
12/02/2020 12:01:13	120220	12022020	120113	89.64	12.417988	-57.246422	89.69	-0.610	1.490	0.860	89.65	-0.20	1.20	 	 	 	 	 	 	 	 	 	 	 	 	 	 	 	 	 	 	1581508873	0.73	1.35
12/02/2020 12:01:14	120220	12022020	120114	89.72	12.417988	-57.246422	89.77	-0.540	0.100	0.800	89.73	-1.70	1.30	 	 	 	 	 	 	 	 	 	 	 	 	 	 	 	 	 	 	1581508874	0.29	0.54
12/02/2020 12:01:15	120220	12022020	120115	89.67	12.417988	-57.246415	89.68	-0.080	-1.490	1.020	89.63	-3.20	1.50	 	 	 	 	 	 	 	 	 	 	 	 	 	 	 	 	 	 	1581508875	1.12	2.07
12/02/2020 12:01:16	120220	12022020	120116	89.39	12.417987	-57.246410	89.38	0.440	-2.240	1.300	89.32	-3.50	1.80	 	 	 	 	 	 	 	 	 	 	 	 	 	 	 	 	 	 	1581508876	1.24	2.30
12/02/2020 12:01:17	120220	12022020	120117	89.12	12.417987	-57.246408	89.18	0.660	-1.780	1.470	89.11	-2.80	1.90	 	 	 	 	 	 	 	 	 	 	 	 	 	 	 	 	 	 	1581508877	0.51	0.94
12/02/2020 12:01:18	120220	12022020	120118	89.20	12.417988	-57.246410	89.37	0.490	-0.600	1.520	89.26	-1.50	1.90	 	 	 	 	 	 	 	 	 	 	 	 	 	 	 	 	 	 	1581508878	0.42	0.78
12/02/2020 12:01:19	120220	12022020	120119	89.59	12.417987	-57.246413	89.77	0.070	0.660	1.440	89.68	-0.30	1.80	 	 	 	 	 	 	 	 	 	 	 	 	 	 	 	 	 	 	1581508879	0.85	1.57
12/02/2020 12:01:20	120220	12022020	120120	89.91	12.417987	-57.246417	90.00	-0.310	1.390	1.460	89.93	0.10	1.90	 	 	 	 	 	 	 	 	 	 	 	 	 	 	 	 	 	 	1581508880	0.86	1.59
12/02/2020 12:01:21	120220	12022020	120121	89.90	12.417985	-57.246420	89.92	-0.490	1.290	1.620	89.87	-0.20	2.10	 	 	 	 	 	 	 	 	 	 	 	 	 	 	 	 	 	 	1581508881	0.47	0.87
12/02/2020 12:01:22	120220	12022020	120122	89.74	12.417983	-57.246418	89.76	-0.430	0.470	1.650	89.71	-1.20	2.00	 	 	 	 	 	 	 	 	 	 	 	 	 	 	 	 	 	 	1581508882	0.41	0.76
12/02/2020 12:01:23	120220	12022020	120123	89.62	12.417983	-57.246415	89.67	-0.170	-0.620	1.480	89.61	-2.20	1.80	 	 	 	 	 	 	 	 	 	 	 	 	 	 	 	 	 	 	1581508883	0.73	1.35
12/02/2020 12:01:24	120220	12022020	120124	89.58	12.417983	-57.246410	89.64	0.160	-1.390	1.260	89.58	-2.80	1.70	 	 	 	 	 	 	 	 	 	 	 	 	 	 	 	 	 	 	1581508884	0.87	1.61
12/02/2020 12:01:25	120220	12022020	120125	89.52	12.417983	-57.246408	89.55	0.370	-1.440	1.230	89.49	-2.60	1.70	 	 	 	 	 	 	 	 	 	 	 	 	 	 	 	 	 	 	1581508885	0.58	1.07
12/02/2020 12:01:26	120220	12022020	120126	89.35	12.417985	-57.246408	89.37	0.330	-0.880	1.280	89.32	-1.90	1.70	 	 	 	 	 	 	 	 	 	 	 	 	 	 	 	 	 	 	1581508886	0.16	0.30
12/02/2020 12:01:27	120220	12022020	120127	89.30	12.417987	-57.246410	89.35	0.110	-0.160	1.130	89.31	-1.30	1.40	 	 	 	 	 	 	 	 	 	 	 	 	 	 	 	 	 	 	1581508887	0.41	0.76
12/02/2020 12:01:28	120220	12022020	120128	89.50	12.417988	-57.246412	89.58	-0.040	0.350	0.650	89.56	-0.90	0.90	 	 	 	 	 	 	 	 	 	 	 	 	 	 	 	 	 	 	1581508888	0.56	1.04
12/02/2020 12:01:29	120220	12022020	120129	89.80	12.417990	-57.246412	89.86	-0.030	0.580	0.310	89.85	-0.70	0.70	 	 	 	 	 	 	 	 	 	 	 	 	 	 	 	 	 	 	1581508889	0.57	1.06
12/02/2020 12:01:30	120220	12022020	120130	90.02	12.417992	-57.246412	90.05	-0.040	0.710	0.450	90.04	-0.60	1.00	 	 	 	 	 	 	 	 	 	 	 	 	 	 	 	 	 	 	1581508890	0.25	0.46
12/02/2020 12:01:31	120220	12022020	120131	90.06	12.417990	-57.246412	90.07	-0.210	0.640	0.970	90.04	-0.80	1.50	 	 	 	 	 	 	 	 	 	 	 	 	 	 	 	 	 	 	1581508891	0.34	0.63
12/02/2020 12:01:32	120220	12022020	120132	89.91	12.417987	-57.246412	89.90	-0.370	0.120	1.400	89.86	-1.50	1.90	 	 	 	 	 	 	 	 	 	 	 	 	 	 	 	 	 	 	1581508892	0.67	1.24
12/02/2020 12:01:33	120220	12022020	120133	89.68	12.417985	-57.246410	89.67	-0.260	-0.880	1.610	89.63	-2.50	2.10	 	 	 	 	 	 	 	 	 	 	 	 	 	 	 	 	 	 	1581508893	0.57	1.06
12/02/2020 12:01:34	120220	12022020	120134	89.43	12.417983	-57.246405	89.42	0.160	-1.950	1.960	89.38	-3.50	2.50	 	 	 	 	 	 	 	 	 	 	 	 	 	 	 	 	 	 	1581508894	1.02	1.89
12/02/2020 12:01:35	120220	12022020	120135	89.17	12.417982	-57.246400	89.19	0.600	-2.230	2.430	89.12	-3.30	2.90	 	 	 	 	 	 	 	 	 	 	 	 	 	 	 	 	 	 	1581508895	1.37	2.54
12/02/2020 12:01:36	120220	12022020	120136	89.04	12.417980	-57.246397	89.17	0.610	-1.040	2.460	89.07	-1.70	2.70	 	 	 	 	 	 	 	 	 	 	 	 	 	 	 	 	 	 	1581508896	0.81	1.50
12/02/2020 12:01:37	120220	12022020	120137	89.34	12.417980	-57.246400	89.56	0.110	0.990	1.770	89.45	0.20	1.80	 	 	 	 	 	 	 	 	 	 	 	 	 	 	 	 	 	 	1581508897	0.83	1.54
12/02/2020 12:01:38	120220	12022020	120138	89.93	12.417983	-57.246408	90.09	-0.480	2.290	0.700	90.03	1.00	0.80	 	 	 	 	 	 	 	 	 	 	 	 	 	 	 	 	 	 	1581508898	1.83	3.39
12/02/2020 12:01:39	120220	12022020	120139	90.26	12.417988	-57.246412	90.28	-0.710	1.950	0.080	90.26	0.20	0.50	 	 	 	 	 	 	 	 	 	 	 	 	 	 	 	 	 	 	1581508899	1.39	2.57
12/02/2020 12:01:40	120220	12022020	120140	90.08	12.417990	-57.246410	89.99	-0.490	0.560	0.120	90.00	-1.20	0.60	 	 	 	 	 	 	 	 	 	 	 	 	 	 	 	 	 	 	1581508900	0.73	1.35
12/02/2020 12:01:41	120220	12022020	120141	89.64	12.417990	-57.246405	89.56	-0.110	-0.830	0.330	89.56	-2.50	0.80	 	 	 	 	 	 	 	 	 	 	 	 	 	 	 	 	 	 	1581508901	1.08	2.00
12/02/2020 12:01:42	120220	12022020	120142	89.33	12.417990	-57.246402	89.32	0.170	-1.730	0.390	89.31	-3.20	0.80	 	 	 	 	 	 	 	 	 	 	 	 	 	 	 	 	 	 	1581508902	0.84	1.56
12/02/2020 12:01:43	120220	12022020	120143	89.39	12.417992	-57.246398	89.48	0.310	-2.020	0.520	89.44	-3.30	1.10	 	 	 	 	 	 	 	 	 	 	 	 	 	 	 	 	 	 	1581508903	0.49	0.91
12/02/2020 12:01:44	120220	12022020	120144	89.72	12.417992	-57.246398	89.85	0.360	-1.760	1.020	89.80	-2.90	1.70	 	 	 	 	 	 	 	 	 	 	 	 	 	 	 	 	 	 	1581508904	0.21	0.39
12/02/2020 12:01:45	120220	12022020	120145	90.01	12.417987	-57.246398	90.11	0.430	-1.000	1.770	90.05	-2.00	2.40	 	 	 	 	 	 	 	 	 	 	 	 	 	 	 	 	 	 	1581508905	0.80	1.48
12/02/2020 12:01:46	120220	12022020	120146	90.11	12.417982	-57.246400	90.18	0.450	0.080	2.330	90.10	-0.90	2.80	 	 	 	 	 	 	 	 	 	 	 	 	 	 	 	 	 	 	1581508906	1.15	2.13
12/02/2020 12:01:47	120220	12022020	120147	90.05	12.417978	-57.246400	90.08	0.220	1.050	2.520	90.02	-0.10	2.90	 	 	 	 	 	 	 	 	 	 	 	 	 	 	 	 	 	 	1581508907	0.93	1.72
12/02/2020 12:01:48	120220	12022020	120148	89.88	12.417975	-57.246402	89.89	-0.300	1.550	2.600	89.85	0.30	3.00	 	 	 	 	 	 	 	 	 	 	 	 	 	 	 	 	 	 	1581508908	0.57	1.06
12/02/2020 12:01:49	120220	12022020	120149	89.78	12.417973	-57.246403	89.82	-0.830	1.460	2.510	89.78	-0.00	2.80	 	 	 	 	 	 	 	 	 	 	 	 	 	 	 	 	 	 	1581508909	0.38	0.70
12/02/2020 12:01:50	120220	12022020	120150	89.92	12.417975	-57.246402	90.02	-0.990	0.770	1.860	90.00	-0.90	1.90	 	 	 	 	 	 	 	 	 	 	 	 	 	 	 	 	 	 	1581508910	0.13	0.24
12/02/2020 12:01:51	120220	12022020	120151	90.35	12.417980	-57.246402	90.46	-0.700	-0.230	0.670	90.45	-1.90	0.70	 	 	 	 	 	 	 	 	 	 	 	 	 	 	 	 	 	 	1581508911	1.10	2.04
12/02/2020 12:01:52	120220	12022020	120152	90.82	12.417987	-57.246400	90.89	-0.090	-1.100	-0.510	90.89	-2.60	-0.30	 	 	 	 	 	 	 	 	 	 	 	 	 	 	 	 	 	 	1581508912	1.70	3.15
12/02/2020 12:01:53	120220	12022020	120153	91.06	12.417993	-57.246398	91.02	0.600	-1.690	-0.920	91.06	-3.10	-0.40	 	 	 	 	 	 	 	 	 	 	 	 	 	 	 	 	 	 	1581508913	1.38	2.56
12/02/2020 12:01:54	120220	12022020	120154	90.91	12.417995	-57.246397	90.81	1.100	-1.930	-0.330	90.84	-3.20	0.40	 	 	 	 	 	 	 	 	 	 	 	 	 	 	 	 	 	 	1581508914	0.42	0.78
12/02/2020 12:01:55	120220	12022020	120155	90.54	12.417992	-57.246395	90.48	1.170	-1.620	0.760	90.47	-2.70	1.50	 	 	 	 	 	 	 	 	 	 	 	 	 	 	 	 	 	 	1581508915	0.87	1.61
12/02/2020 12:01:56	120220	12022020	120156	90.26	12.417985	-57.246393	90.29	0.720	-0.700	1.810	90.24	-1.60	2.50	 	 	 	 	 	 	 	 	 	 	 	 	 	 	 	 	 	 	1581508916	1.23	2.28
12/02/2020 12:01:57	120220	12022020	120157	90.27	12.417980	-57.246395	90.39	-0.030	0.520	2.440	90.31	-0.40	2.90	 	 	 	 	 	 	 	 	 	 	 	 	 	 	 	 	 	 	1581508917	1.16	2.15
12/02/2020 12:01:58	120220	12022020	120158	90.59	12.417977	-57.246397	90.75	-0.720	1.510	2.530	90.67	0.40	2.90	 	 	 	 	 	 	 	 	 	 	 	 	 	 	 	 	 	 	1581508918	0.94	1.74
12/02/2020 12:01:59	120220	12022020	120159	90.97	12.417975	-57.246400	91.10	-1.050	1.850	2.210	91.04	0.50	2.40	 	 	 	 	 	 	 	 	 	 	 	 	 	 	 	 	 	 	1581508919	0.59	1.09
12/02/2020 12:02:00	120220	12022020	120200	91.32	12.417977	-57.246400	91.43	-0.980	1.370	1.540	91.39	-0.20	1.70	 	 	 	 	 	 	 	 	 	 	 	 	 	 	 	 	 	 	1581508920	0.34	0.63
12/02/2020 12:02:01	120220	12022020	120201	91.67	12.417980	-57.246400	91.73	-0.670	0.290	0.840	91.72	-1.40	1.10	1016.10	26.50	26.50	20.50	20.60	332.0	69.0	69.0	397.0	27.5	347.00	11.70	76.00	11.30	23207	10855.0	27.6	27.6	1581508921	0.71	1.31
12/02/2020 12:02:02	120220	12022020	120202	91.81	12.417982	-57.246397	91.82	-0.310	-0.950	0.580	91.81	-2.60	1.00	 	 	 	 	 	 	 	 	 	 	 	 	 	 	 	 	 	 	1581508922	0.68	1.26
12/02/2020 12:02:03	120220	12022020	120203	91.67	12.417980	-57.246393	91.62	0.050	-1.770	0.670	91.62	-3.20	1.10	 	 	 	 	 	 	 	 	 	 	 	 	 	 	 	 	 	 	1581508923	0.68	1.26
12/02/2020 12:02:04	120220	12022020	120204	91.42	12.417978	-57.246392	91.37	0.470	-1.900	0.680	91.38	-3.10	1.10	 	 	 	 	 	 	 	 	 	 	 	 	 	 	 	 	 	 	1581508924	0.46	0.85
12/02/2020 12:02:05	120220	12022020	120205	91.24	12.417980	-57.246392	91.18	0.920	-1.490	0.600	91.21	-2.60	1.00	 	 	 	 	 	 	 	 	 	 	 	 	 	 	 	 	 	 	1581508925	0.17	0.31
12/02/2020 12:02:06	120220	12022020	120206	91.09	12.417982	-57.246392	91.07	1.120	-0.790	0.650	91.08	-1.80	1.10	 	 	 	 	 	 	 	 	 	 	 	 	 	 	 	 	 	 	1581508926	0.52	0.96
12/02/2020 12:02:07	120220	12022020	120207	91.13	12.417983	-57.246392	91.18	0.760	0.190	0.760	91.18	-0.80	1.20	 	 	 	 	 	 	 	 	 	 	 	 	 	 	 	 	 	 	1581508927	0.40	0.74
12/02/2020 12:02:08	120220	12022020	120208	91.38	12.417985	-57.246395	91.45	-0.060	1.200	0.870	91.43	0.10	1.40	 	 	 	 	 	 	 	 	 	 	 	 	 	 	 	 	 	 	1581508928	0.48	0.89
12/02/2020 12:02:09	120220	12022020	120209	91.59	12.417983	-57.246398	91.65	-0.830	1.630	1.130	91.61	0.30	1.70	 	 	 	 	 	 	 	 	 	 	 	 	 	 	 	 	 	 	1581508929	0.72	1.33
12/02/2020 12:02:10	120220	12022020	120210	91.59	12.417980	-57.246398	91.60	-1.040	1.090	1.680	91.56	-0.60	2.30	 	 	 	 	 	 	 	 	 	 	 	 	 	 	 	 	 	 	1581508930	0.86	1.59
12/02/2020 12:02:11	120220	12022020	120211	91.36	12.417973	-57.246397	91.35	-0.630	-0.190	2.310	91.31	-1.90	2.90	 	 	 	 	 	 	 	 	 	 	 	 	 	 	 	 	 	 	1581508931	1.28	2.37
12/02/2020 12:02:12	120220	12022020	120212	91.12	12.417970	-57.246392	91.12	-0.010	-1.350	2.620	91.09	-2.80	3.00	 	 	 	 	 	 	 	 	 	 	 	 	 	 	 	 	 	 	1581508932	1.51	2.80
12/02/2020 12:02:13	120220	12022020	120213	91.10	12.417967	-57.246388	91.17	0.360	-1.580	2.460	91.13	-2.70	2.70	 	 	 	 	 	 	 	 	 	 	 	 	 	 	 	 	 	 	1581508933	0.94	1.74
12/02/2020 12:02:14	120220	12022020	120214	91.29	12.417970	-57.246388	91.36	0.360	-0.900	1.950	91.34	-1.90	2.20	 	 	 	 	 	 	 	 	 	 	 	 	 	 	 	 	 	 	1581508934	0.39	0.72
12/02/2020 12:02:15	120220	12022020	120215	91.52	12.417973	-57.246392	91.56	0.190	-0.010	1.330	91.56	-1.10	1.60	 	 	 	 	 	 	 	 	 	 	 	 	 	 	 	 	 	 	1581508935	1.21	2.24
12/02/2020 12:02:16	120220	12022020	120216	91.71	12.417977	-57.246395	91.74	0.070	0.390	0.780	91.74	-0.90	1.10	 	 	 	 	 	 	 	 	 	 	 	 	 	 	 	 	 	 	1581508936	1.13	2.09
12/02/2020 12:02:17	120220	12022020	120217	91.81	12.417978	-57.246395	91.79	0.130	0.100	0.530	91.81	-1.40	1.00	 	 	 	 	 	 	 	 	 	 	 	 	 	 	 	 	 	 	1581508937	0.41	0.76
12/02/2020 12:02:18	120220	12022020	120218	91.71	12.417978	-57.246393	91.66	0.340	-0.500	0.660	91.68	-1.90	1.20	 	 	 	 	 	 	 	 	 	 	 	 	 	 	 	 	 	 	1581508938	0.68	1.26
12/02/2020 12:02:19	120220	12022020	120219	91.40	12.417977	-57.246388	91.31	0.420	-0.700	0.920	91.32	-1.90	1.40	 	 	 	 	 	 	 	 	 	 	 	 	 	 	 	 	 	 	1581508939	0.95	1.76
12/02/2020 12:02:20	120220	12022020	120220	91.02	12.417977	-57.246387	90.98	0.140	-0.110	1.140	90.96	-1.10	1.60	 	 	 	 	 	 	 	 	 	 	 	 	 	 	 	 	 	 	1581508940	0.32	0.59
12/02/2020 12:02:21	120220	12022020	120221	90.93	12.417977	-57.246390	91.01	-0.400	0.830	1.220	90.98	-0.30	1.60	 	 	 	 	 	 	 	 	 	 	 	 	 	 	 	 	 	 	1581508941	0.68	1.26
12/02/2020 12:02:22	120220	12022020	120222	91.35	12.417977	-57.246395	91.49	-0.780	1.220	1.090	91.46	-0.20	1.50	 	 	 	 	 	 	 	 	 	 	 	 	 	 	 	 	 	 	1581508942	1.12	2.07
12/02/2020 12:02:23	120220	12022020	120223	91.87	12.417978	-57.246398	91.98	-0.680	0.460	0.970	91.93	-1.30	1.40	 	 	 	 	 	 	 	 	 	 	 	 	 	 	 	 	 	 	1581508943	0.56	1.04
12/02/2020 12:02:24	120220	12022020	120224	92.02	12.417977	-57.246395	92.03	-0.130	-1.070	1.140	91.99	-2.80	1.70	 	 	 	 	 	 	 	 	 	 	 	 	 	 	 	 	 	 	1581508944	0.67	1.24
12/02/2020 12:02:25	120220	12022020	120225	91.79	12.417973	-57.246388	91.76	0.500	-2.250	1.660	91.72	-3.70	2.30	 	 	 	 	 	 	 	 	 	 	 	 	 	 	 	 	 	 	1581508945	1.55	2.87
12/02/2020 12:02:26	120220	12022020	120226	91.52	12.417968	-57.246383	91.54	0.840	-2.130	2.220	91.49	-3.10	2.80	 	 	 	 	 	 	 	 	 	 	 	 	 	 	 	 	 	 	1581508946	1.46	2.70
12/02/2020 12:02:27	120220	12022020	120227	91.45	12.417965	-57.246383	91.51	0.710	-0.670	2.460	91.45	-1.40	2.90	 	 	 	 	 	 	 	 	 	 	 	 	 	 	 	 	 	 	1581508947	0.71	1.31
12/02/2020 12:02:28	120220	12022020	120228	91.47	12.417965	-57.246390	91.49	0.190	1.120	2.290	91.47	0.30	2.60	 	 	 	 	 	 	 	 	 	 	 	 	 	 	 	 	 	 	1581508948	1.22	2.26
12/02/2020 12:02:29	120220	12022020	120229	91.46	12.417967	-57.246397	91.46	-0.440	2.090	1.680	91.46	0.80	1.80	 	 	 	 	 	 	 	 	 	 	 	 	 	 	 	 	 	 	1581508949	1.45	2.69
12/02/2020 12:02:30	120220	12022020	120230	91.46	12.417970	-57.246400	91.44	-0.810	1.710	0.790	91.46	0.00	0.90	 	 	 	 	 	 	 	 	 	 	 	 	 	 	 	 	 	 	1581508950	1.10	2.04
12/02/2020 12:02:31	120220	12022020	120231	91.47	12.417975	-57.246398	91.45	-0.650	0.170	-0.010	91.47	-1.70	0.20	 	 	 	 	 	 	 	 	 	 	 	 	 	 	 	 	 	 	1581508951	1.14	2.11
12/02/2020 12:02:32	120220	12022020	120232	91.48	12.417980	-57.246392	91.48	-0.070	-1.520	-0.460	91.48	-3.20	-0.10	 	 	 	 	 	 	 	 	 	 	 	 	 	 	 	 	 	 	1581508952	1.50	2.78
12/02/2020 12:02:33	120220	12022020	120233	91.53	12.417982	-57.246385	91.56	0.470	-2.150	-0.570	91.55	-3.30	-0.10	 	 	 	 	 	 	 	 	 	 	 	 	 	 	 	 	 	 	1581508953	1.32	2.44
12/02/2020 12:02:34	120220	12022020	120234	91.64	12.417982	-57.246385	91.64	0.540	-1.420	-0.320	91.64	-2.30	0.30	 	 	 	 	 	 	 	 	 	 	 	 	 	 	 	 	 	 	1581508954	0.16	0.30
12/02/2020 12:02:35	120220	12022020	120235	91.54	12.417978	-57.246390	91.51	0.200	-0.210	0.480	91.49	-1.20	1.20	 	 	 	 	 	 	 	 	 	 	 	 	 	 	 	 	 	 	1581508955	1.02	1.89
12/02/2020 12:02:36	120220	12022020	120236	91.22	12.417973	-57.246395	91.21	-0.170	0.620	1.580	91.15	-0.60	2.30	 	 	 	 	 	 	 	 	 	 	 	 	 	 	 	 	 	 	1581508956	1.48	2.74
12/02/2020 12:02:37	120220	12022020	120237	90.98	12.417968	-57.246397	91.02	-0.260	0.810	2.360	90.95	-0.60	2.90	 	 	 	 	 	 	 	 	 	 	 	 	 	 	 	 	 	 	1581508957	1.29	2.39
12/02/2020 12:02:38	120220	12022020	120238	90.96	12.417965	-57.246397	91.05	-0.130	0.410	2.630	90.98	-1.10	3.00	 	 	 	 	 	 	 	 	 	 	 	 	 	 	 	 	 	 	1581508958	0.67	1.24
12/02/2020 12:02:39	120220	12022020	120239	91.12	12.417965	-57.246393	91.23	0.070	-0.350	2.570	91.17	-1.90	2.90	 	 	 	 	 	 	 	 	 	 	 	 	 	 	 	 	 	 	1581508959	0.58	1.07
12/02/2020 12:02:40	120220	12022020	120240	91.34	12.417963	-57.246390	91.42	0.230	-0.950	2.410	91.38	-2.30	2.80	 	 	 	 	 	 	 	 	 	 	 	 	 	 	 	 	 	 	1581508960	0.79	1.46
12/02/2020 12:02:41	120220	12022020	120241	91.49	12.417963	-57.246387	91.53	0.270	-0.830	2.180	91.50	-1.90	2.50	 	 	 	 	 	 	 	 	 	 	 	 	 	 	 	 	 	 	1581508961	0.50	0.93
12/02/2020 12:02:42	120220	12022020	120242	91.44	12.417965	-57.246388	91.41	0.150	-0.170	1.880	91.40	-1.20	2.20	 	 	 	 	 	 	 	 	 	 	 	 	 	 	 	 	 	 	1581508962	0.26	0.48
12/02/2020 12:02:43	120220	12022020	120243	91.13	12.417965	-57.246392	91.03	-0.060	0.470	1.560	91.06	-0.70	1.90	 	 	 	 	 	 	 	 	 	 	 	 	 	 	 	 	 	 	1581508963	0.68	1.26
12/02/2020 12:02:44	120220	12022020	120244	90.69	12.417968	-57.246393	90.59	-0.200	0.590	1.210	90.61	-0.80	1.50	 	 	 	 	 	 	 	 	 	 	 	 	 	 	 	 	 	 	1581508964	0.64	1.19
12/02/2020 12:02:45	120220	12022020	120245	90.42	12.417972	-57.246393	90.38	-0.270	0.180	0.620	90.41	-1.30	0.80	 	 	 	 	 	 	 	 	 	 	 	 	 	 	 	 	 	 	1581508965	0.77	1.43
12/02/2020 12:02:46	120220	12022020	120246	90.52	12.417977	-57.246392	90.56	-0.300	-0.400	-0.090	90.58	-1.80	0.20	 	 	 	 	 	 	 	 	 	 	 	 	 	 	 	 	 	 	1581508966	1.17	2.17
12/02/2020 12:02:47	120220	12022020	120247	90.94	12.417980	-57.246390	91.05	-0.240	-0.770	-0.510	91.05	-2.10	-0.10	 	 	 	 	 	 	 	 	 	 	 	 	 	 	 	 	 	 	1581508967	0.94	1.74
12/02/2020 12:02:48	120220	12022020	120248	91.49	12.417982	-57.246388	91.60	-0.050	-0.790	-0.410	91.59	-2.00	0.20	 	 	 	 	 	 	 	 	 	 	 	 	 	 	 	 	 	 	1581508968	0.21	0.39
12/02/2020 12:02:49	120220	12022020	120249	91.79	12.417978	-57.246390	91.81	0.250	-0.560	0.260	91.80	-1.80	1.00	 	 	 	 	 	 	 	 	 	 	 	 	 	 	 	 	 	 	1581508969	0.71	1.31
12/02/2020 12:02:50	120220	12022020	120250	91.68	12.417972	-57.246390	91.63	0.540	-0.450	1.250	91.62	-1.80	2.00	 	 	 	 	 	 	 	 	 	 	 	 	 	 	 	 	 	 	1581508970	1.18	2.19
12/02/2020 12:02:51	120220	12022020	120251	91.29	12.417967	-57.246388	91.21	0.660	-0.510	2.360	91.19	-1.80	3.10	 	 	 	 	 	 	 	 	 	 	 	 	 	 	 	 	 	 	1581508971	1.28	2.37
12/02/2020 12:02:52	120220	12022020	120252	90.80	12.417960	-57.246387	90.75	0.450	-0.320	3.390	90.72	-1.40	4.00	 	 	 	 	 	 	 	 	 	 	 	 	 	 	 	 	 	 	1581508972	1.37	2.54
12/02/2020 12:02:53	120220	12022020	120253	90.52	12.417957	-57.246385	90.57	-0.040	0.450	3.720	90.52	-0.50	4.00	 	 	 	 	 	 	 	 	 	 	 	 	 	 	 	 	 	 	1581508973	0.94	1.74
12/02/2020 12:02:54	120220	12022020	120254	90.77	12.417957	-57.246388	90.93	-0.580	1.360	2.970	90.87	0.20	3.00	 	 	 	 	 	 	 	 	 	 	 	 	 	 	 	 	 	 	1581508974	0.75	1.39
12/02/2020 12:02:55	120220	12022020	120255	91.46	12.417963	-57.246395	91.63	-0.900	1.500	1.590	91.60	-0.00	1.60	 	 	 	 	 	 	 	 	 	 	 	 	 	 	 	 	 	 	1581508975	1.69	3.13
12/02/2020 12:02:56	120220	12022020	120256	92.10	12.417970	-57.246397	92.18	-0.790	0.400	0.450	92.19	-1.50	0.70	 	 	 	 	 	 	 	 	 	 	 	 	 	 	 	 	 	 	1581508976	1.58	2.93
12/02/2020 12:02:57	120220	12022020	120257	92.25	12.417973	-57.246393	92.18	-0.240	-1.460	-0.040	92.21	-3.30	0.40	 	 	 	 	 	 	 	 	 	 	 	 	 	 	 	 	 	 	1581508977	1.07	1.98
12/02/2020 12:02:58	120220	12022020	120258	91.85	12.417972	-57.246385	91.72	0.440	-2.860	0.080	91.74	-4.30	0.60	 	 	 	 	 	 	 	 	 	 	 	 	 	 	 	 	 	 	1581508978	1.58	2.93
12/02/2020 12:02:59	120220	12022020	120259	91.41	12.417970	-57.246380	91.35	0.880	-2.630	0.500	91.36	-3.50	1.10	 	 	 	 	 	 	 	 	 	 	 	 	 	 	 	 	 	 	1581508979	1.35	2.50
12/02/2020 12:03:00	120220	12022020	120300	91.36	12.417967	-57.246380	91.43	0.840	-0.790	0.900	91.41	-1.40	1.40	 	 	 	 	 	 	 	 	 	 	 	 	 	 	 	 	 	 	1581508980	0.59	1.09
12/02/2020 12:03:01	120220	12022020	120301	91.67	12.417967	-57.246388	91.80	0.350	1.330	1.150	91.76	0.50	1.60	 	 	 	 	 	 	 	 	 	 	 	 	 	 	 	 	 	 	1581508981	1.57	2.91
12/02/2020 12:03:02	120220	12022020	120302	92.11	12.417965	-57.246395	92.25	-0.280	2.300	1.130	92.20	0.90	1.50	1016.30	26.50	26.50	20.50	20.50	355.0	69.0	69.0	397.0	27.5	343.00	11.90	74.00	11.50	23994	10694.0	27.6	27.6	1581508982	1.65	3.06
12/02/2020 12:03:03	120220	12022020	120303	92.49	12.417967	-57.246398	92.57	-0.670	1.680	0.850	92.54	-0.10	1.20	 	 	 	 	 	 	 	 	 	 	 	 	 	 	 	 	 	 	1581508983	0.57	1.06
12/02/2020 12:03:04	120220	12022020	120304	92.61	12.417967	-57.246395	92.62	-0.680	0.190	0.840	92.60	-1.60	1.40	 	 	 	 	 	 	 	 	 	 	 	 	 	 	 	 	 	 	1581508984	0.68	1.26
12/02/2020 12:03:05	120220	12022020	120305	92.47	12.417963	-57.246390	92.46	-0.420	-1.090	1.420	92.43	-2.70	2.10	 	 	 	 	 	 	 	 	 	 	 	 	 	 	 	 	 	 	1581508985	1.19	2.20
12/02/2020 12:03:06	120220	12022020	120306	92.29	12.417960	-57.246387	92.28	-0.080	-1.550	2.210	92.26	-2.80	2.80	 	 	 	 	 	 	 	 	 	 	 	 	 	 	 	 	 	 	1581508986	1.19	2.20
12/02/2020 12:03:07	120220	12022020	120307	92.22	12.417955	-57.246387	92.22	0.160	-1.290	2.630	92.21	-2.40	3.10	 	 	 	 	 	 	 	 	 	 	 	 	 	 	 	 	 	 	1581508987	0.90	1.67
12/02/2020 12:03:08	120220	12022020	120308	92.19	12.417953	-57.246388	92.17	0.260	-0.750	2.510	92.19	-1.90	2.80	 	 	 	 	 	 	 	 	 	 	 	 	 	 	 	 	 	 	1581508988	0.63	1.17
12/02/2020 12:03:09	120220	12022020	120309	92.20	12.417955	-57.246392	92.21	0.250	-0.170	2.040	92.23	-1.30	2.30	 	 	 	 	 	 	 	 	 	 	 	 	 	 	 	 	 	 	1581508989	0.45	0.83
12/02/2020 12:03:10	120220	12022020	120310	92.43	12.417957	-57.246393	92.47	0.190	0.360	1.420	92.49	-0.80	1.70	 	 	 	 	 	 	 	 	 	 	 	 	 	 	 	 	 	 	1581508990	0.62	1.15
12/02/2020 12:03:11	120220	12022020	120311	92.75	12.417960	-57.246393	92.79	0.110	0.510	0.920	92.80	-0.90	1.20	 	 	 	 	 	 	 	 	 	 	 	 	 	 	 	 	 	 	1581508991	0.71	1.31
12/02/2020 12:03:12	120220	12022020	120312	92.92	12.417962	-57.246393	92.88	0.160	-0.030	0.550	92.92	-1.60	0.90	 	 	 	 	 	 	 	 	 	 	 	 	 	 	 	 	 	 	1581508992	0.50	0.93
12/02/2020 12:03:13	120220	12022020	120313	92.83	12.417963	-57.246390	92.76	0.380	-0.900	0.320	92.79	-2.40	0.80	 	 	 	 	 	 	 	 	 	 	 	 	 	 	 	 	 	 	1581508993	0.89	1.65
12/02/2020 12:03:14	120220	12022020	120314	92.64	12.417963	-57.246385	92.58	0.490	-1.080	0.440	92.60	-2.20	1.00	 	 	 	 	 	 	 	 	 	 	 	 	 	 	 	 	 	 	1581508994	1.15	2.13
12/02/2020 12:03:15	120220	12022020	120315	92.55	12.417963	-57.246383	92.57	0.160	-0.110	1.010	92.55	-1.00	1.70	 	 	 	 	 	 	 	 	 	 	 	 	 	 	 	 	 	 	1581508995	0.33	0.61
12/02/2020 12:03:16	120220	12022020	120316	92.65	12.417960	-57.246388	92.72	-0.610	1.230	1.770	92.69	0.20	2.40	 	 	 	 	 	 	 	 	 	 	 	 	 	 	 	 	 	 	1581508996	1.31	2.43
12/02/2020 12:03:17	120220	12022020	120317	92.83	12.417955	-57.246397	92.91	-1.350	1.810	2.340	92.86	0.40	2.90	 	 	 	 	 	 	 	 	 	 	 	 	 	 	 	 	 	 	1581508997	1.89	3.50
12/02/2020 12:03:18	120220	12022020	120318	92.95	12.417950	-57.246400	93.01	-1.440	1.090	2.540	92.97	-0.70	3.00	 	 	 	 	 	 	 	 	 	 	 	 	 	 	 	 	 	 	1581508998	1.34	2.48
12/02/2020 12:03:19	120220	12022020	120319	93.01	12.417948	-57.246400	93.05	-0.610	-0.660	2.470	93.01	-2.60	2.90	 	 	 	 	 	 	 	 	 	 	 	 	 	 	 	 	 	 	1581508999	0.60	1.11
12/02/2020 12:03:20	120220	12022020	120320	93.00	12.417947	-57.246393	93.00	0.720	-2.510	2.520	92.99	-4.20	3.10	 	 	 	 	 	 	 	 	 	 	 	 	 	 	 	 	 	 	1581509000	1.24	2.30
12/02/2020 12:03:21	120220	12022020	120321	92.84	12.417945	-57.246387	92.77	1.710	-3.210	2.940	92.77	-4.30	3.50	 	 	 	 	 	 	 	 	 	 	 	 	 	 	 	 	 	 	1581509001	1.54	2.85
12/02/2020 12:03:22	120220	12022020	120322	92.49	12.417943	-57.246383	92.41	1.690	-2.120	3.290	92.42	-2.80	3.70	 	 	 	 	 	 	 	 	 	 	 	 	 	 	 	 	 	 	1581509002	0.77	1.43
12/02/2020 12:03:23	120220	12022020	120323	92.23	12.417943	-57.246387	92.18	0.830	0.060	2.940	92.21	-0.60	3.10	 	 	 	 	 	 	 	 	 	 	 	 	 	 	 	 	 	 	1581509003	0.75	1.39
12/02/2020 12:03:24	120220	12022020	120324	92.31	12.417948	-57.246395	92.34	-0.210	2.010	1.730	92.38	1.10	1.70	 	 	 	 	 	 	 	 	 	 	 	 	 	 	 	 	 	 	1581509004	1.83	3.39
12/02/2020 12:03:25	120220	12022020	120325	92.76	12.417957	-57.246402	92.82	-0.930	2.760	0.150	92.87	1.40	0.20	 	 	 	 	 	 	 	 	 	 	 	 	 	 	 	 	 	 	1581509005	2.19	4.06
12/02/2020 12:03:26	120220	12022020	120326	93.25	12.417965	-57.246403	93.27	-1.260	2.140	-0.870	93.32	0.40	-0.50	 	 	 	 	 	 	 	 	 	 	 	 	 	 	 	 	 	 	1581509006	1.83	3.39
12/02/2020 12:03:27	120220	12022020	120327	93.42	12.417968	-57.246402	93.36	-1.280	0.600	-1.000	93.42	-1.30	-0.50	 	 	 	 	 	 	 	 	 	 	 	 	 	 	 	 	 	 	1581509007	0.87	1.61
12/02/2020 12:03:28	120220	12022020	120328	93.33	12.417967	-57.246398	93.24	-0.990	-1.090	-0.650	93.30	-2.90	-0.10	 	 	 	 	 	 	 	 	 	 	 	 	 	 	 	 	 	 	1581509008	0.82	1.52
12/02/2020 12:03:29	120220	12022020	120329	93.19	12.417962	-57.246395	93.11	-0.360	-2.300	-0.050	93.16	-3.80	0.70	 	 	 	 	 	 	 	 	 	 	 	 	 	 	 	 	 	 	1581509009	1.29	2.39
12/02/2020 12:03:30	120220	12022020	120330	92.97	12.417955	-57.246393	92.87	0.530	-2.710	0.930	92.90	-3.90	1.70	 	 	 	 	 	 	 	 	 	 	 	 	 	 	 	 	 	 	1581509010	1.44	2.67
12/02/2020 12:03:31	120220	12022020	120331	92.55	12.417948	-57.246393	92.46	1.300	-2.170	2.070	92.46	-3.10	2.80	 	 	 	 	 	 	 	 	 	 	 	 	 	 	 	 	 	 	1581509011	1.32	2.44
12/02/2020 12:03:32	120220	12022020	120332	92.11	12.417945	-57.246393	92.06	1.430	-0.820	2.940	92.05	-1.60	3.50	 	 	 	 	 	 	 	 	 	 	 	 	 	 	 	 	 	 	1581509012	0.86	1.59
12/02/2020 12:03:33	120220	12022020	120333	91.98	12.417943	-57.246398	92.06	0.780	0.840	3.050	92.02	-0.00	3.30	 	 	 	 	 	 	 	 	 	 	 	 	 	 	 	 	 	 	1581509013	0.81	1.50
12/02/2020 12:03:34	120220	12022020	120334	92.42	12.417947	-57.246403	92.60	-0.220	2.000	2.340	92.57	0.80	2.50	 	 	 	 	 	 	 	 	 	 	 	 	 	 	 	 	 	 	1581509014	1.28	2.37
12/02/2020 12:03:35	120220	12022020	120335	93.14	12.417952	-57.246407	93.28	-0.860	1.910	1.500	93.26	0.30	1.80	 	 	 	 	 	 	 	 	 	 	 	 	 	 	 	 	 	 	1581509015	1.32	2.44
12/02/2020 12:03:36	120220	12022020	120336	93.60	12.417955	-57.246405	93.65	-0.730	0.590	1.140	93.64	-1.30	1.60	 	 	 	 	 	 	 	 	 	 	 	 	 	 	 	 	 	 	1581509016	0.62	1.15
12/02/2020 12:03:37	120220	12022020	120337	93.70	12.417953	-57.246400	93.69	-0.170	-0.910	1.180	93.69	-2.50	1.70	 	 	 	 	 	 	 	 	 	 	 	 	 	 	 	 	 	 	1581509017	1.19	2.20
12/02/2020 12:03:38	120220	12022020	120338	93.60	12.417952	-57.246395	93.55	0.260	-1.500	1.380	93.58	-2.80	1.90	 	 	 	 	 	 	 	 	 	 	 	 	 	 	 	 	 	 	1581509018	1.19	2.20
12/02/2020 12:03:39	120220	12022020	120339	93.42	12.417948	-57.246395	93.34	0.220	-1.040	1.760	93.38	-2.10	2.40	 	 	 	 	 	 	 	 	 	 	 	 	 	 	 	 	 	 	1581509019	0.64	1.19
12/02/2020 12:03:40	120220	12022020	120340	93.19	12.417945	-57.246398	93.10	-0.110	-0.240	2.330	93.14	-1.40	2.90	 	 	 	 	 	 	 	 	 	 	 	 	 	 	 	 	 	 	1581509020	1.06	1.96
12/02/2020 12:03:41	120220	12022020	120341	92.98	12.417943	-57.246403	92.94	-0.320	0.220	2.600	92.96	-1.10	3.00	 	 	 	 	 	 	 	 	 	 	 	 	 	 	 	 	 	 	1581509021	1.09	2.02
12/02/2020 12:03:42	120220	12022020	120342	92.99	12.417943	-57.246405	93.01	-0.170	0.040	2.160	93.03	-1.40	2.30	 	 	 	 	 	 	 	 	 	 	 	 	 	 	 	 	 	 	1581509022	0.37	0.69
12/02/2020 12:03:43	120220	12022020	120343	93.24	12.417947	-57.246403	93.27	0.220	-0.450	1.320	93.30	-1.90	1.50	 	 	 	 	 	 	 	 	 	 	 	 	 	 	 	 	 	 	1581509023	0.95	1.76
12/02/2020 12:03:44	120220	12022020	120344	93.52	12.417952	-57.246400	93.52	0.570	-0.820	0.770	93.57	-2.20	1.10	 	 	 	 	 	 	 	 	 	 	 	 	 	 	 	 	 	 	1581509024	1.18	2.19
12/02/2020 12:03:45	120220	12022020	120345	93.72	12.417953	-57.246397	93.70	0.650	-0.770	0.750	93.75	-2.00	1.30	 	 	 	 	 	 	 	 	 	 	 	 	 	 	 	 	 	 	1581509025	0.64	1.19
12/02/2020 12:03:46	120220	12022020	120346	93.78	12.417952	-57.246397	93.71	0.410	-0.230	1.210	93.76	-1.30	1.80	 	 	 	 	 	 	 	 	 	 	 	 	 	 	 	 	 	 	1581509026	0.32	0.59
12/02/2020 12:03:47	120220	12022020	120347	93.64	12.417948	-57.246398	93.54	-0.060	0.640	1.800	93.60	-0.40	2.40	 	 	 	 	 	 	 	 	 	 	 	 	 	 	 	 	 	 	1581509027	0.75	1.39
12/02/2020 12:03:48	120220	12022020	120348	93.44	12.417947	-57.246402	93.36	-0.560	1.210	2.120	93.41	-0.10	2.60	 	 	 	 	 	 	 	 	 	 	 	 	 	 	 	 	 	 	1581509028	0.96	1.78
12/02/2020 12:03:49	120220	12022020	120349	93.32	12.417945	-57.246405	93.27	-0.760	0.960	2.090	93.31	-0.60	2.50	 	 	 	 	 	 	 	 	 	 	 	 	 	 	 	 	 	 	1581509029	0.64	1.19
12/02/2020 12:03:50	120220	12022020	120350	93.30	12.417945	-57.246405	93.29	-0.500	-0.040	1.980	93.30	-1.70	2.40	 	 	 	 	 	 	 	 	 	 	 	 	 	 	 	 	 	 	1581509030	0.12	0.22
12/02/2020 12:03:51	120220	12022020	120351	93.29	12.417945	-57.246400	93.28	0.110	-1.320	1.970	93.28	-3.00	2.40	 	 	 	 	 	 	 	 	 	 	 	 	 	 	 	 	 	 	1581509031	0.77	1.43
12/02/2020 12:03:52	120220	12022020	120352	93.19	12.417945	-57.246395	93.15	0.730	-2.140	2.090	93.16	-3.50	2.60	 	 	 	 	 	 	 	 	 	 	 	 	 	 	 	 	 	 	1581509032	1.14	2.11
12/02/2020 12:03:53	120220	12022020	120353	93.08	12.417945	-57.246392	93.06	0.870	-1.700	2.130	93.08	-2.60	2.60	 	 	 	 	 	 	 	 	 	 	 	 	 	 	 	 	 	 	1581509033	0.86	1.59
12/02/2020 12:03:54	120220	12022020	120354	93.16	12.417945	-57.246393	93.18	0.350	-0.130	2.080	93.20	-0.90	2.50	 	 	 	 	 	 	 	 	 	 	 	 	 	 	 	 	 	 	1581509034	0.32	0.59
12/02/2020 12:03:55	120220	12022020	120355	93.36	12.417945	-57.246398	93.39	-0.470	1.390	1.950	93.40	0.30	2.40	 	 	 	 	 	 	 	 	 	 	 	 	 	 	 	 	 	 	1581509035	1.38	2.56
12/02/2020 12:03:56	120220	12022020	120356	93.44	12.417945	-57.246405	93.44	-0.920	1.700	1.850	93.44	0.20	2.30	 	 	 	 	 	 	 	 	 	 	 	 	 	 	 	 	 	 	1581509036	1.25	2.31
12/02/2020 12:03:57	120220	12022020	120357	93.33	12.417943	-57.246405	93.28	-0.560	0.740	1.780	93.29	-1.00	2.20	 	 	 	 	 	 	 	 	 	 	 	 	 	 	 	 	 	 	1581509037	0.31	0.57
12/02/2020 12:03:58	120220	12022020	120358	93.10	12.417943	-57.246400	93.08	0.290	-0.680	1.750	93.07	-2.40	2.20	 	 	 	 	 	 	 	 	 	 	 	 	 	 	 	 	 	 	1581509038	1.02	1.89
12/02/2020 12:03:59	120220	12022020	120359	93.07	12.417945	-57.246395	93.10	0.790	-1.440	1.660	93.10	-2.70	2.10	 	 	 	 	 	 	 	 	 	 	 	 	 	 	 	 	 	 	1581509039	1.33	2.46
12/02/2020 12:04:00	120220	12022020	120400	93.30	12.417947	-57.246392	93.34	0.510	-1.110	1.560	93.35	-2.20	2.00	 	 	 	 	 	 	 	 	 	 	 	 	 	 	 	 	 	 	1581509040	0.58	1.07
12/02/2020 12:04:01	120220	12022020	120401	93.38	12.417947	-57.246395	93.33	-0.180	-0.370	1.730	93.35	-1.50	2.30	 	 	 	 	 	 	 	 	 	 	 	 	 	 	 	 	 	 	1581509041	0.59	1.09
12/02/2020 12:04:02	120220	12022020	120402	93.08	12.417945	-57.246398	92.98	-0.540	0.080	2.160	92.99	-1.20	2.70	1016.10	26.50	26.50	20.40	20.50	362.0	69.0	69.0	396.0	27.5	339.00	12.00	72.00	11.60	24258	11103.0	27.6	27.5	1581509042	0.85	1.57
12/02/2020 12:04:03	120220	12022020	120403	92.78	12.417942	-57.246400	92.75	-0.370	0.240	2.230	92.76	-1.10	2.60	 	 	 	 	 	 	 	 	 	 	 	 	 	 	 	 	 	 	1581509043	0.57	1.06
12/02/2020 12:04:04	120220	12022020	120404	92.90	12.417943	-57.246400	92.95	0.010	0.270	1.770	92.96	-1.10	2.00	 	 	 	 	 	 	 	 	 	 	 	 	 	 	 	 	 	 	1581509044	0.06	0.11
12/02/2020 12:04:05	120220	12022020	120405	93.29	12.417945	-57.246400	93.32	0.230	0.080	1.210	93.36	-1.40	1.60	 	 	 	 	 	 	 	 	 	 	 	 	 	 	 	 	 	 	1581509045	0.58	1.07
12/02/2020 12:04:06	120220	12022020	120406	93.45	12.417947	-57.246398	93.37	0.260	-0.480	1.100	93.43	-2.00	1.60	 	 	 	 	 	 	 	 	 	 	 	 	 	 	 	 	 	 	1581509046	0.50	0.93
12/02/2020 12:04:07	120220	12022020	120407	93.24	12.417947	-57.246395	93.14	0.220	-1.070	1.360	93.19	-2.40	1.90	 	 	 	 	 	 	 	 	 	 	 	 	 	 	 	 	 	 	1581509047	0.73	1.35
12/02/2020 12:04:08	120220	12022020	120408	93.10	12.417943	-57.246392	93.06	0.090	-0.840	1.630	93.10	-1.90	2.10	 	 	 	 	 	 	 	 	 	 	 	 	 	 	 	 	 	 	1581509048	0.96	1.78
12/02/2020 12:04:09	120220	12022020	120409	93.16	12.417940	-57.246393	93.17	-0.120	0.300	1.800	93.19	-0.60	2.20	 	 	 	 	 	 	 	 	 	 	 	 	 	 	 	 	 	 	1581509049	0.70	1.30
12/02/2020 12:04:10	120220	12022020	120410	93.32	12.417940	-57.246398	93.34	-0.250	1.270	1.760	93.36	0.00	2.10	 	 	 	 	 	 	 	 	 	 	 	 	 	 	 	 	 	 	1581509050	1.30	2.41
12/02/2020 12:04:11	120220	12022020	120411	93.47	12.417942	-57.246403	93.45	-0.160	1.110	1.540	93.48	-0.50	1.90	 	 	 	 	 	 	 	 	 	 	 	 	 	 	 	 	 	 	1581509051	1.05	1.94
12/02/2020 12:04:12	120220	12022020	120412	93.44	12.417943	-57.246403	93.37	0.060	-0.090	1.440	93.41	-1.90	1.90	 	 	 	 	 	 	 	 	 	 	 	 	 	 	 	 	 	 	1581509052	0.73	1.35
12/02/2020 12:04:13	120220	12022020	120413	93.21	12.417947	-57.246398	93.11	0.160	-1.400	1.600	93.15	-3.00	2.10	 	 	 	 	 	 	 	 	 	 	 	 	 	 	 	 	 	 	1581509053	1.16	2.15
12/02/2020 12:04:14	120220	12022020	120414	92.90	12.417945	-57.246393	92.84	0.060	-1.970	2.000	92.85	-3.30	2.60	 	 	 	 	 	 	 	 	 	 	 	 	 	 	 	 	 	 	1581509054	1.12	2.07
12/02/2020 12:04:15	120220	12022020	120415	92.79	12.417942	-57.246390	92.80	-0.100	-1.590	2.470	92.81	-2.60	3.00	 	 	 	 	 	 	 	 	 	 	 	 	 	 	 	 	 	 	1581509055	0.95	1.76
12/02/2020 12:04:16	120220	12022020	120416	92.98	12.417937	-57.246392	93.05	-0.110	-0.560	2.720	93.04	-1.50	3.20	 	 	 	 	 	 	 	 	 	 	 	 	 	 	 	 	 	 	1581509056	1.11	2.06
12/02/2020 12:04:17	120220	12022020	120417	93.30	12.417933	-57.246395	93.35	-0.040	0.630	2.590	93.36	-0.40	2.90	 	 	 	 	 	 	 	 	 	 	 	 	 	 	 	 	 	 	1581509057	1.00	1.85
12/02/2020 12:04:18	120220	12022020	120418	93.59	12.417933	-57.246398	93.63	-0.000	1.360	1.960	93.65	0.10	2.10	 	 	 	 	 	 	 	 	 	 	 	 	 	 	 	 	 	 	1581509058	0.71	1.31
12/02/2020 12:04:19	120220	12022020	120419	93.83	12.417937	-57.246400	93.84	0.000	1.280	1.010	93.87	-0.30	1.10	 	 	 	 	 	 	 	 	 	 	 	 	 	 	 	 	 	 	1581509059	0.84	1.56
12/02/2020 12:04:20	120220	12022020	120420	93.98	12.417942	-57.246398	93.94	0.050	0.510	0.190	93.99	-1.10	0.50	 	 	 	 	 	 	 	 	 	 	 	 	 	 	 	 	 	 	1581509060	1.33	2.46
12/02/2020 12:04:21	120220	12022020	120421	93.98	12.417947	-57.246395	93.90	0.110	-0.450	0.010	93.95	-2.10	0.60	 	 	 	 	 	 	 	 	 	 	 	 	 	 	 	 	 	 	1581509061	1.29	2.39
12/02/2020 12:04:22	120220	12022020	120422	93.71	12.417948	-57.246392	93.57	0.130	-1.220	0.580	93.63	-2.70	1.30	 	 	 	 	 	 	 	 	 	 	 	 	 	 	 	 	 	 	1581509062	0.71	1.31
12/02/2020 12:04:23	120220	12022020	120423	93.15	12.417945	-57.246388	92.99	0.090	-1.490	1.530	93.03	-2.80	2.20	 	 	 	 	 	 	 	 	 	 	 	 	 	 	 	 	 	 	1581509063	0.89	1.65
12/02/2020 12:04:24	120220	12022020	120424	92.65	12.417940	-57.246388	92.58	0.030	-1.190	2.180	92.59	-2.30	2.70	 	 	 	 	 	 	 	 	 	 	 	 	 	 	 	 	 	 	1581509064	0.94	1.74
12/02/2020 12:04:25	120220	12022020	120425	92.59	12.417938	-57.246388	92.65	-0.030	-0.530	2.360	92.65	-1.60	2.80	 	 	 	 	 	 	 	 	 	 	 	 	 	 	 	 	 	 	1581509065	0.36	0.67
12/02/2020 12:04:26	120220	12022020	120426	93.07	12.417940	-57.246390	93.23	-0.140	0.120	2.270	93.21	-1.00	2.70	 	 	 	 	 	 	 	 	 	 	 	 	 	 	 	 	 	 	1581509066	0.25	0.46
12/02/2020 12:04:27	120220	12022020	120427	93.71	12.417940	-57.246390	93.81	-0.310	0.530	2.230	93.80	-0.70	2.70	 	 	 	 	 	 	 	 	 	 	 	 	 	 	 	 	 	 	1581509067	0.14	0.26
12/02/2020 12:04:28	120220	12022020	120428	93.91	12.417937	-57.246390	93.88	-0.350	0.650	2.280	93.88	-0.70	2.70	 	 	 	 	 	 	 	 	 	 	 	 	 	 	 	 	 	 	1581509068	0.52	0.96
12/02/2020 12:04:29	120220	12022020	120429	93.60	12.417935	-57.246390	93.50	-0.150	0.460	2.330	93.51	-1.00	2.80	 	 	 	 	 	 	 	 	 	 	 	 	 	 	 	 	 	 	1581509069	0.54	1.00
12/02/2020 12:04:30	120220	12022020	120430	93.15	12.417933	-57.246388	93.07	0.160	0.030	2.280	93.08	-1.40	2.70	 	 	 	 	 	 	 	 	 	 	 	 	 	 	 	 	 	 	1581509070	0.42	0.78
12/02/2020 12:04:31	120220	12022020	120431	92.93	12.417935	-57.246385	92.91	0.310	-0.340	2.070	92.93	-1.70	2.40	 	 	 	 	 	 	 	 	 	 	 	 	 	 	 	 	 	 	1581509071	0.61	1.13
12/02/2020 12:04:32	120220	12022020	120432	92.97	12.417938	-57.246383	92.97	0.230	-0.500	1.700	92.99	-1.80	2.00	 	 	 	 	 	 	 	 	 	 	 	 	 	 	 	 	 	 	1581509072	0.71	1.31
12/02/2020 12:04:33	120220	12022020	120433	93.03	12.417942	-57.246383	92.99	0.020	-0.480	1.310	93.02	-1.80	1.70	 	 	 	 	 	 	 	 	 	 	 	 	 	 	 	 	 	 	1581509073	0.84	1.56
12/02/2020 12:04:34	120220	12022020	120434	92.98	12.417947	-57.246382	92.93	-0.180	-0.480	1.170	92.97	-1.80	1.70	 	 	 	 	 	 	 	 	 	 	 	 	 	 	 	 	 	 	1581509074	0.80	1.48
12/02/2020 12:04:35	120220	12022020	120435	92.88	12.417947	-57.246382	92.83	-0.220	-0.570	1.400	92.86	-1.90	2.00	 	 	 	 	 	 	 	 	 	 	 	 	 	 	 	 	 	 	1581509075	0.28	0.52
12/02/2020 12:04:36	120220	12022020	120436	92.64	12.417945	-57.246380	92.54	-0.050	-0.690	1.890	92.55	-2.00	2.50	 	 	 	 	 	 	 	 	 	 	 	 	 	 	 	 	 	 	1581509076	0.61	1.13
12/02/2020 12:04:37	120220	12022020	120437	92.14	12.417942	-57.246377	92.04	0.210	-0.660	2.400	92.03	-1.90	2.90	 	 	 	 	 	 	 	 	 	 	 	 	 	 	 	 	 	 	1581509077	0.87	1.61
12/02/2020 12:04:38	120220	12022020	120438	91.69	12.417940	-57.246375	91.67	0.270	-0.190	2.590	91.65	-1.20	3.00	 	 	 	 	 	 	 	 	 	 	 	 	 	 	 	 	 	 	1581509078	0.57	1.06
12/02/2020 12:04:39	120220	12022020	120439	91.82	12.417942	-57.246375	91.98	-0.030	0.730	2.270	91.94	-0.30	2.50	 	 	 	 	 	 	 	 	 	 	 	 	 	 	 	 	 	 	1581509079	0.35	0.65
12/02/2020 12:04:40	120220	12022020	120440	92.59	12.417945	-57.246378	92.81	-0.470	1.380	1.630	92.76	0.00	1.90	 	 	 	 	 	 	 	 	 	 	 	 	 	 	 	 	 	 	1581509080	0.97	1.80
12/02/2020 12:04:41	120220	12022020	120441	93.23	12.417947	-57.246380	93.30	-0.590	0.800	1.250	93.26	-1.00	1.70	 	 	 	 	 	 	 	 	 	 	 	 	 	 	 	 	 	 	1581509081	0.69	1.28
12/02/2020 12:04:42	120220	12022020	120442	93.11	12.417947	-57.246377	93.02	-0.200	-0.720	1.450	93.00	-2.50	2.10	 	 	 	 	 	 	 	 	 	 	 	 	 	 	 	 	 	 	1581509082	0.79	1.46
12/02/2020 12:04:43	120220	12022020	120443	92.41	12.417943	-57.246370	92.24	0.330	-1.650	2.080	92.24	-3.00	2.70	 	 	 	 	 	 	 	 	 	 	 	 	 	 	 	 	 	 	1581509083	1.66	3.07
12/02/2020 12:04:44	120220	12022020	120444	91.56	12.417942	-57.246367	91.42	0.510	-1.240	2.670	91.41	-2.30	3.20	 	 	 	 	 	 	 	 	 	 	 	 	 	 	 	 	 	 	1581509084	0.88	1.63
12/02/2020 12:04:45	120220	12022020	120445	91.05	12.417943	-57.246368	91.05	0.250	-0.250	2.740	91.02	-1.30	3.10	 	 	 	 	 	 	 	 	 	 	 	 	 	 	 	 	 	 	1581509085	0.47	0.87
12/02/2020 12:04:46	120220	12022020	120446	91.15	12.417947	-57.246372	91.26	-0.110	0.270	2.210	91.23	-1.10	2.40	 	 	 	 	 	 	 	 	 	 	 	 	 	 	 	 	 	 	1581509086	1.02	1.89
12/02/2020 12:04:47	120220	12022020	120447	91.60	12.417950	-57.246372	91.71	-0.200	0.000	1.540	91.68	-1.50	1.80	 	 	 	 	 	 	 	 	 	 	 	 	 	 	 	 	 	 	1581509087	0.92	1.70
12/02/2020 12:04:48	120220	12022020	120448	91.91	12.417953	-57.246368	91.95	-0.030	-0.410	1.090	91.93	-1.80	1.50	 	 	 	 	 	 	 	 	 	 	 	 	 	 	 	 	 	 	1581509088	1.05	1.94
12/02/2020 12:04:49	120220	12022020	120449	91.90	12.417955	-57.246365	91.87	0.030	-0.230	0.990	91.86	-1.40	1.50	 	 	 	 	 	 	 	 	 	 	 	 	 	 	 	 	 	 	1581509089	0.82	1.52
12/02/2020 12:04:50	120220	12022020	120450	91.62	12.417955	-57.246365	91.55	-0.180	0.390	1.270	91.54	-0.80	1.80	 	 	 	 	 	 	 	 	 	 	 	 	 	 	 	 	 	 	1581509090	0.10	0.19
12/02/2020 12:04:51	120220	12022020	120451	91.20	12.417952	-57.246367	91.14	-0.400	0.620	1.740	91.11	-0.80	2.30	 	 	 	 	 	 	 	 	 	 	 	 	 	 	 	 	 	 	1581509091	0.63	1.17
12/02/2020 12:04:52	120220	12022020	120452	90.84	12.417950	-57.246367	90.81	-0.320	0.110	2.150	90.78	-1.50	2.60	 	 	 	 	 	 	 	 	 	 	 	 	 	 	 	 	 	 	1581509092	0.43	0.80
12/02/2020 12:04:53	120220	12022020	120453	90.66	12.417950	-57.246363	90.68	0.050	-0.650	2.180	90.65	-2.20	2.50	 	 	 	 	 	 	 	 	 	 	 	 	 	 	 	 	 	 	1581509093	0.73	1.35
12/02/2020 12:04:54	120220	12022020	120454	90.71	12.417952	-57.246360	90.77	0.400	-0.970	1.750	90.74	-2.30	2.00	 	 	 	 	 	 	 	 	 	 	 	 	 	 	 	 	 	 	1581509094	1.03	1.91
12/02/2020 12:04:55	120220	12022020	120455	90.86	12.417957	-57.246358	90.89	0.450	-0.650	1.270	90.88	-1.80	1.70	 	 	 	 	 	 	 	 	 	 	 	 	 	 	 	 	 	 	1581509095	1.11	2.06
12/02/2020 12:04:56	120220	12022020	120456	90.80	12.417962	-57.246358	90.74	0.220	-0.210	1.300	90.74	-1.50	1.90	 	 	 	 	 	 	 	 	 	 	 	 	 	 	 	 	 	 	1581509096	0.89	1.65
12/02/2020 12:04:57	120220	12022020	120457	90.39	12.417962	-57.246360	90.30	-0.090	-0.050	1.860	90.28	-1.40	2.50	 	 	 	 	 	 	 	 	 	 	 	 	 	 	 	 	 	 	1581509097	0.20	0.37
12/02/2020 12:04:58	120220	12022020	120458	89.96	12.417960	-57.246358	89.95	-0.320	0.090	2.330	89.91	-1.20	2.80	 	 	 	 	 	 	 	 	 	 	 	 	 	 	 	 	 	 	1581509098	0.49	0.91
12/02/2020 12:04:59	120220	12022020	120459	89.92	12.417958	-57.246358	89.97	-0.400	0.270	2.260	89.95	-1.10	2.60	 	 	 	 	 	 	 	 	 	 	 	 	 	 	 	 	 	 	1581509099	0.32	0.59
12/02/2020 12:05:00	120220	12022020	120500	90.09	12.417960	-57.246358	90.12	-0.260	0.070	1.830	90.12	-1.40	2.20	 	 	 	 	 	 	 	 	 	 	 	 	 	 	 	 	 	 	1581509100	0.18	0.33
12/02/2020 12:05:01	120220	12022020	120501	90.06	12.417962	-57.246357	90.01	0.080	-0.480	1.570	90.02	-2.00	2.00	1016.20	26.50	26.50	20.50	20.50	261.0	69.0	69.0	397.0	27.5	338.00	12.00	69.00	11.70	21589	10161.0	27.6	27.6	1581509101	0.67	1.24
12/02/2020 12:05:02	120220	12022020	120502	89.83	12.417963	-57.246352	89.77	0.350	-0.740	1.460	89.79	-2.00	1.90	 	 	 	 	 	 	 	 	 	 	 	 	 	 	 	 	 	 	1581509102	1.00	1.85
12/02/2020 12:05:03	120220	12022020	120503	89.64	12.417967	-57.246350	89.60	0.300	-0.370	1.470	89.61	-1.50	1.90	 	 	 	 	 	 	 	 	 	 	 	 	 	 	 	 	 	 	1581509103	0.67	1.24
12/02/2020 12:05:04	120220	12022020	120504	89.50	12.417968	-57.246352	89.46	-0.030	0.210	1.520	89.47	-1.00	2.00	 	 	 	 	 	 	 	 	 	 	 	 	 	 	 	 	 	 	1581509104	0.49	0.91
12/02/2020 12:05:05	120220	12022020	120505	89.39	12.417970	-57.246353	89.37	-0.300	0.370	1.470	89.38	-1.00	1.90	 	 	 	 	 	 	 	 	 	 	 	 	 	 	 	 	 	 	1581509105	0.59	1.09
12/02/2020 12:05:06	120220	12022020	120506	89.40	12.417972	-57.246353	89.40	-0.250	0.060	1.290	89.41	-1.40	1.70	 	 	 	 	 	 	 	 	 	 	 	 	 	 	 	 	 	 	1581509106	0.47	0.87
12/02/2020 12:05:07	120220	12022020	120507	89.41	12.417975	-57.246352	89.41	0.030	-0.440	1.280	89.40	-1.90	1.80	 	 	 	 	 	 	 	 	 	 	 	 	 	 	 	 	 	 	1581509107	0.67	1.24
12/02/2020 12:05:08	120220	12022020	120508	89.25	12.417975	-57.246348	89.20	0.190	-0.780	1.580	89.19	-2.10	2.20	 	 	 	 	 	 	 	 	 	 	 	 	 	 	 	 	 	 	1581509108	0.70	1.30
12/02/2020 12:05:09	120220	12022020	120509	88.93	12.417973	-57.246345	88.89	0.050	-0.680	1.980	88.86	-1.90	2.50	 	 	 	 	 	 	 	 	 	 	 	 	 	 	 	 	 	 	1581509109	0.58	1.07
12/02/2020 12:05:10	120220	12022020	120510	88.70	12.417972	-57.246345	88.72	-0.200	-0.290	2.120	88.68	-1.50	2.50	 	 	 	 	 	 	 	 	 	 	 	 	 	 	 	 	 	 	1581509110	0.34	0.63
12/02/2020 12:05:11	120220	12022020	120511	88.73	12.417972	-57.246347	88.78	-0.190	0.090	1.890	88.75	-1.20	2.20	 	 	 	 	 	 	 	 	 	 	 	 	 	 	 	 	 	 	1581509111	0.17	0.31
12/02/2020 12:05:12	120220	12022020	120512	88.89	12.417973	-57.246347	88.94	0.120	0.250	1.470	88.92	-1.10	1.80	 	 	 	 	 	 	 	 	 	 	 	 	 	 	 	 	 	 	1581509112	0.50	0.93
12/02/2020 12:05:13	120220	12022020	120513	89.00	12.417978	-57.246345	89.00	0.400	0.080	1.030	89.00	-1.40	1.40	 	 	 	 	 	 	 	 	 	 	 	 	 	 	 	 	 	 	1581509113	0.96	1.78
12/02/2020 12:05:14	120220	12022020	120514	88.92	12.417983	-57.246343	88.86	0.350	-0.200	0.740	88.87	-1.60	1.10	 	 	 	 	 	 	 	 	 	 	 	 	 	 	 	 	 	 	1581509114	1.09	2.02
12/02/2020 12:05:15	120220	12022020	120515	88.66	12.417987	-57.246342	88.59	0.010	-0.310	0.710	88.60	-1.60	1.20	 	 	 	 	 	 	 	 	 	 	 	 	 	 	 	 	 	 	1581509115	0.78	1.44
12/02/2020 12:05:16	120220	12022020	120516	88.41	12.417987	-57.246340	88.38	-0.300	-0.190	0.880	88.37	-1.50	1.40	 	 	 	 	 	 	 	 	 	 	 	 	 	 	 	 	 	 	1581509116	0.28	0.52
12/02/2020 12:05:17	120220	12022020	120517	88.24	12.417987	-57.246340	88.23	-0.350	-0.010	1.160	88.22	-1.30	1.70	 	 	 	 	 	 	 	 	 	 	 	 	 	 	 	 	 	 	1581509117	0.06	0.11
12/02/2020 12:05:18	120220	12022020	120518	88.22	12.417988	-57.246340	88.28	-0.270	0.060	1.350	88.25	-1.30	1.80	 	 	 	 	 	 	 	 	 	 	 	 	 	 	 	 	 	 	1581509118	0.17	0.31
12/02/2020 12:05:19	120220	12022020	120519	88.46	12.417990	-57.246340	88.56	-0.250	-0.030	1.370	88.52	-1.40	1.80	 	 	 	 	 	 	 	 	 	 	 	 	 	 	 	 	 	 	1581509119	0.26	0.48
12/02/2020 12:05:20	120220	12022020	120520	88.65	12.417988	-57.246340	88.68	-0.260	-0.280	1.520	88.64	-1.70	2.10	 	 	 	 	 	 	 	 	 	 	 	 	 	 	 	 	 	 	1581509120	0.12	0.22
12/02/2020 12:05:21	120220	12022020	120521	88.44	12.417987	-57.246338	88.40	-0.000	-0.770	1.960	88.36	-2.30	2.50	 	 	 	 	 	 	 	 	 	 	 	 	 	 	 	 	 	 	1581509121	0.55	1.02
12/02/2020 12:05:22	120220	12022020	120522	88.07	12.417985	-57.246335	88.08	0.560	-1.300	2.240	88.02	-2.70	2.70	 	 	 	 	 	 	 	 	 	 	 	 	 	 	 	 	 	 	1581509122	0.91	1.69
12/02/2020 12:05:23	120220	12022020	120523	87.93	12.417985	-57.246330	88.00	1.040	-1.300	2.160	87.93	-2.40	2.50	 	 	 	 	 	 	 	 	 	 	 	 	 	 	 	 	 	 	1581509123	1.07	1.98
12/02/2020 12:05:24	120220	12022020	120524	88.02	12.417988	-57.246327	88.12	0.920	-0.290	1.790	88.05	-1.20	2.00	 	 	 	 	 	 	 	 	 	 	 	 	 	 	 	 	 	 	1581509124	0.87	1.61
12/02/2020 12:05:25	120220	12022020	120525	88.18	12.417993	-57.246330	88.24	0.080	1.180	1.230	88.20	0.20	1.50	 	 	 	 	 	 	 	 	 	 	 	 	 	 	 	 	 	 	1581509125	1.10	2.04
12/02/2020 12:05:26	120220	12022020	120526	88.24	12.417997	-57.246335	88.25	-0.950	2.040	0.760	88.24	0.70	1.10	 	 	 	 	 	 	 	 	 	 	 	 	 	 	 	 	 	 	1581509126	1.50	2.78
12/02/2020 12:05:27	120220	12022020	120527	88.24	12.418000	-57.246338	88.23	-1.390	1.680	0.440	88.25	-0.00	0.80	 	 	 	 	 	 	 	 	 	 	 	 	 	 	 	 	 	 	1581509127	0.97	1.80
12/02/2020 12:05:28	120220	12022020	120528	88.24	12.418002	-57.246338	88.22	-0.890	0.250	0.250	88.23	-1.70	0.70	 	 	 	 	 	 	 	 	 	 	 	 	 	 	 	 	 	 	1581509128	0.47	0.87
12/02/2020 12:05:29	120220	12022020	120529	88.16	12.418005	-57.246333	88.14	0.070	-1.470	0.300	88.14	-3.20	0.80	 	 	 	 	 	 	 	 	 	 	 	 	 	 	 	 	 	 	1581509129	1.23	2.28
12/02/2020 12:05:30	120220	12022020	120530	88.05	12.418005	-57.246327	88.04	0.670	-2.370	0.630	88.02	-3.70	1.20	 	 	 	 	 	 	 	 	 	 	 	 	 	 	 	 	 	 	1581509130	1.37	2.54
12/02/2020 12:05:31	120220	12022020	120531	87.95	12.418005	-57.246323	87.99	0.560	-1.990	1.280	87.94	-3.00	2.00	 	 	 	 	 	 	 	 	 	 	 	 	 	 	 	 	 	 	1581509131	0.64	1.19
12/02/2020 12:05:32	120220	12022020	120532	87.86	12.418002	-57.246325	87.92	0.130	-0.840	2.090	87.84	-1.80	2.70	 	 	 	 	 	 	 	 	 	 	 	 	 	 	 	 	 	 	1581509132	0.94	1.74
12/02/2020 12:05:33	120220	12022020	120533	87.69	12.417997	-57.246328	87.74	0.030	0.130	2.610	87.65	-1.00	3.10	 	 	 	 	 	 	 	 	 	 	 	 	 	 	 	 	 	 	1581509133	1.24	2.30
12/02/2020 12:05:34	120220	12022020	120534	87.51	12.417995	-57.246328	87.57	0.340	0.500	2.540	87.49	-0.80	2.80	 	 	 	 	 	 	 	 	 	 	 	 	 	 	 	 	 	 	1581509134	0.30	0.56
12/02/2020 12:05:35	120220	12022020	120535	87.56	12.417998	-57.246327	87.66	0.540	0.670	1.990	87.61	-0.60	2.20	 	 	 	 	 	 	 	 	 	 	 	 	 	 	 	 	 	 	1581509135	0.84	1.56
12/02/2020 12:05:36	120220	12022020	120536	87.83	12.418003	-57.246325	87.91	0.190	0.960	1.370	87.88	-0.30	1.60	 	 	 	 	 	 	 	 	 	 	 	 	 	 	 	 	 	 	1581509136	1.17	2.17
12/02/2020 12:05:37	120220	12022020	120537	88.02	12.418007	-57.246325	88.05	-0.490	1.090	0.890	88.04	-0.30	1.20	 	 	 	 	 	 	 	 	 	 	 	 	 	 	 	 	 	 	1581509137	1.00	1.85
12/02/2020 12:05:38	120220	12022020	120538	88.08	12.418012	-57.246327	88.09	-0.920	0.660	0.490	88.09	-0.90	0.80	 	 	 	 	 	 	 	 	 	 	 	 	 	 	 	 	 	 	1581509138	0.84	1.56
12/02/2020 12:05:39	120220	12022020	120539	88.09	12.418013	-57.246327	88.08	-0.680	-0.360	0.220	88.08	-2.10	0.60	 	 	 	 	 	 	 	 	 	 	 	 	 	 	 	 	 	 	1581509139	0.60	1.11
12/02/2020 12:05:40	120220	12022020	120540	87.98	12.418015	-57.246323	87.95	0.020	-1.560	0.290	87.94	-3.20	0.90	 	 	 	 	 	 	 	 	 	 	 	 	 	 	 	 	 	 	1581509140	0.78	1.44
12/02/2020 12:05:41	120220	12022020	120541	87.69	12.418015	-57.246318	87.64	0.660	-2.250	0.920	87.63	-3.60	1.60	 	 	 	 	 	 	 	 	 	 	 	 	 	 	 	 	 	 	1581509141	1.10	2.04
12/02/2020 12:05:42	120220	12022020	120542	87.41	12.418012	-57.246313	87.42	0.820	-1.900	1.720	87.37	-2.90	2.30	 	 	 	 	 	 	 	 	 	 	 	 	 	 	 	 	 	 	1581509142	1.04	1.93
12/02/2020 12:05:43	120220	12022020	120543	87.41	12.418008	-57.246313	87.51	0.560	-0.580	1.990	87.46	-1.40	2.30	 	 	 	 	 	 	 	 	 	 	 	 	 	 	 	 	 	 	1581509143	0.57	1.06
12/02/2020 12:05:44	120220	12022020	120544	87.74	12.418010	-57.246317	87.86	0.180	1.020	1.620	87.81	0.10	1.90	 	 	 	 	 	 	 	 	 	 	 	 	 	 	 	 	 	 	1581509144	0.77	1.43
12/02/2020 12:05:45	120220	12022020	120545	88.05	12.418013	-57.246322	88.09	-0.060	1.780	1.210	88.07	0.40	1.60	 	 	 	 	 	 	 	 	 	 	 	 	 	 	 	 	 	 	1581509145	1.30	2.41
12/02/2020 12:05:46	120220	12022020	120546	88.04	12.418018	-57.246322	88.03	-0.160	1.240	1.330	88.01	-0.50	1.90	 	 	 	 	 	 	 	 	 	 	 	 	 	 	 	 	 	 	1581509146	1.00	1.85
12/02/2020 12:05:47	120220	12022020	120547	87.91	12.418020	-57.246318	87.94	-0.270	0.100	1.650	87.90	-1.60	2.10	 	 	 	 	 	 	 	 	 	 	 	 	 	 	 	 	 	 	1581509147	0.97	1.80
12/02/2020 12:05:48	120220	12022020	120548	88.00	12.418018	-57.246312	88.10	-0.480	-0.680	1.750	88.05	-2.10	2.20	 	 	 	 	 	 	 	 	 	 	 	 	 	 	 	 	 	 	1581509148	1.16	2.15
12/02/2020 12:05:49	120220	12022020	120549	88.32	12.418017	-57.246310	88.46	-0.610	-0.790	1.800	88.39	-2.10	2.20	 	 	 	 	 	 	 	 	 	 	 	 	 	 	 	 	 	 	1581509149	0.59	1.09
12/02/2020 12:05:50	120220	12022020	120550	88.62	12.418013	-57.246312	88.70	-0.360	-0.750	1.940	88.64	-2.10	2.40	 	 	 	 	 	 	 	 	 	 	 	 	 	 	 	 	 	 	1581509150	0.52	0.96
12/02/2020 12:05:51	120220	12022020	120551	88.57	12.418012	-57.246312	88.56	0.280	-1.020	2.190	88.51	-2.40	2.70	 	 	 	 	 	 	 	 	 	 	 	 	 	 	 	 	 	 	1581509151	0.35	0.65
12/02/2020 12:05:52	120220	12022020	120552	88.22	12.418012	-57.246307	88.20	0.830	-1.170	2.400	88.15	-2.40	2.80	 	 	 	 	 	 	 	 	 	 	 	 	 	 	 	 	 	 	1581509152	0.72	1.33
12/02/2020 12:05:53	120220	12022020	120553	87.97	12.418013	-57.246305	88.02	0.880	-0.660	2.270	87.95	-1.70	2.60	 	 	 	 	 	 	 	 	 	 	 	 	 	 	 	 	 	 	1581509153	0.75	1.39
12/02/2020 12:05:54	120220	12022020	120554	87.97	12.418017	-57.246303	88.05	0.530	0.240	1.790	88.00	-0.90	2.00	 	 	 	 	 	 	 	 	 	 	 	 	 	 	 	 	 	 	1581509154	0.75	1.39
12/02/2020 12:05:55	120220	12022020	120555	88.19	12.418022	-57.246305	88.31	0.120	0.810	1.100	88.27	-0.50	1.30	 	 	 	 	 	 	 	 	 	 	 	 	 	 	 	 	 	 	1581509155	1.17	2.17
12/02/2020 12:05:56	120220	12022020	120556	88.65	12.418028	-57.246305	88.80	-0.130	0.840	0.390	88.76	-0.60	0.70	 	 	 	 	 	 	 	 	 	 	 	 	 	 	 	 	 	 	1581509156	1.25	2.31
12/02/2020 12:05:57	120220	12022020	120557	89.15	12.418033	-57.246303	89.27	-0.260	0.500	0.050	89.24	-1.00	0.50	 	 	 	 	 	 	 	 	 	 	 	 	 	 	 	 	 	 	1581509157	1.15	2.13
12/02/2020 12:05:58	120220	12022020	120558	89.50	12.418035	-57.246300	89.54	-0.410	0.080	0.220	89.53	-1.40	0.80	 	 	 	 	 	 	 	 	 	 	 	 	 	 	 	 	 	 	1581509158	0.67	1.24
12/02/2020 12:05:59	120220	12022020	120559	89.48	12.418032	-57.246298	89.45	-0.510	-0.340	0.860	89.43	-1.80	1.60	 	 	 	 	 	 	 	 	 	 	 	 	 	 	 	 	 	 	1581509159	0.64	1.19
12/02/2020 12:06:00	120220	12022020	120600	89.07	12.418027	-57.246297	88.99	-0.330	-0.770	1.800	88.96	-2.30	2.50	 	 	 	 	 	 	 	 	 	 	 	 	 	 	 	 	 	 	1581509160	1.15	2.13
12/02/2020 12:06:01	120220	12022020	120601	88.53	12.418022	-57.246295	88.51	0.210	-1.200	2.630	88.46	-2.60	3.20	 	 	 	 	 	 	 	 	 	 	 	 	 	 	 	 	 	 	1581509161	1.17	2.17
12/02/2020 12:06:02	120220	12022020	120602	88.33	12.418020	-57.246290	88.42	0.690	-1.360	2.940	88.35	-2.60	3.30	1016.20	26.40	26.50	20.50	20.60	136.0	70.0	70.0	397.0	27.4	343.00	11.20	71.00	10.80	18142	10558.0	27.6	27.6	1581509162	0.90	1.67
12/02/2020 12:06:03	120220	12022020	120603	88.59	12.418023	-57.246287	88.75	0.620	-0.780	2.620	88.67	-1.80	2.80	 	 	 	 	 	 	 	 	 	 	 	 	 	 	 	 	 	 	1581509163	0.84	1.56
12/02/2020 12:06:04	120220	12022020	120604	89.03	12.418027	-57.246287	89.17	0.020	0.420	1.930	89.11	-0.50	2.10	 	 	 	 	 	 	 	 	 	 	 	 	 	 	 	 	 	 	1581509164	0.82	1.52
12/02/2020 12:06:05	120220	12022020	120605	89.37	12.418030	-57.246292	89.46	-0.570	1.330	1.310	89.42	0.10	1.60	 	 	 	 	 	 	 	 	 	 	 	 	 	 	 	 	 	 	1581509165	1.09	2.02
12/02/2020 12:06:06	120220	12022020	120606	89.55	12.418033	-57.246293	89.57	-0.600	1.120	0.800	89.57	-0.50	1.10	 	 	 	 	 	 	 	 	 	 	 	 	 	 	 	 	 	 	1581509166	0.67	1.24
12/02/2020 12:06:07	120220	12022020	120607	89.58	12.418035	-57.246290	89.57	-0.070	-0.070	0.480	89.58	-1.80	0.90	 	 	 	 	 	 	 	 	 	 	 	 	 	 	 	 	 	 	1581509167	0.91	1.69
12/02/2020 12:06:08	120220	12022020	120608	89.54	12.418038	-57.246282	89.52	0.430	-1.130	0.510	89.52	-2.60	1.00	 	 	 	 	 	 	 	 	 	 	 	 	 	 	 	 	 	 	1581509168	1.62	3.00
12/02/2020 12:06:09	120220	12022020	120609	89.41	12.418038	-57.246277	89.39	0.410	-1.130	0.850	89.37	-2.30	1.40	 	 	 	 	 	 	 	 	 	 	 	 	 	 	 	 	 	 	1581509169	1.15	2.13
12/02/2020 12:06:10	120220	12022020	120610	89.22	12.418037	-57.246277	89.20	0.040	-0.290	1.160	89.18	-1.30	1.60	 	 	 	 	 	 	 	 	 	 	 	 	 	 	 	 	 	 	1581509170	0.14	0.26
12/02/2020 12:06:11	120220	12022020	120611	89.07	12.418038	-57.246280	89.09	-0.220	0.430	1.230	89.06	-0.80	1.70	 	 	 	 	 	 	 	 	 	 	 	 	 	 	 	 	 	 	1581509171	0.73	1.35
12/02/2020 12:06:12	120220	12022020	120612	89.11	12.418042	-57.246282	89.17	-0.210	0.400	1.220	89.15	-1.10	1.70	 	 	 	 	 	 	 	 	 	 	 	 	 	 	 	 	 	 	1581509172	0.68	1.26
12/02/2020 12:06:13	120220	12022020	120613	89.35	12.418043	-57.246280	89.43	-0.100	-0.140	1.320	89.40	-1.60	1.80	 	 	 	 	 	 	 	 	 	 	 	 	 	 	 	 	 	 	1581509173	0.66	1.22
12/02/2020 12:06:14	120220	12022020	120614	89.56	12.418043	-57.246275	89.62	-0.030	-0.640	1.600	89.58	-2.10	2.10	 	 	 	 	 	 	 	 	 	 	 	 	 	 	 	 	 	 	1581509174	0.83	1.54
12/02/2020 12:06:15	120220	12022020	120615	89.64	12.418042	-57.246272	89.69	0.030	-0.890	1.930	89.65	-2.20	2.40	 	 	 	 	 	 	 	 	 	 	 	 	 	 	 	 	 	 	1581509175	0.80	1.48
12/02/2020 12:06:16	120220	12022020	120616	89.71	12.418040	-57.246270	89.78	0.170	-0.860	2.160	89.74	-2.10	2.60	 	 	 	 	 	 	 	 	 	 	 	 	 	 	 	 	 	 	1581509176	0.74	1.37
12/02/2020 12:06:17	120220	12022020	120617	89.86	12.418038	-57.246267	89.94	0.380	-0.580	2.240	89.89	-1.80	2.70	 	 	 	 	 	 	 	 	 	 	 	 	 	 	 	 	 	 	1581509177	0.62	1.15
12/02/2020 12:06:18	120220	12022020	120618	89.93	12.418038	-57.246265	89.96	0.450	-0.070	2.300	89.91	-1.20	2.70	 	 	 	 	 	 	 	 	 	 	 	 	 	 	 	 	 	 	1581509178	0.41	0.76
12/02/2020 12:06:19	120220	12022020	120619	89.76	12.418038	-57.246263	89.75	0.190	0.590	2.230	89.73	-0.50	2.50	 	 	 	 	 	 	 	 	 	 	 	 	 	 	 	 	 	 	1581509179	0.26	0.48
12/02/2020 12:06:20	120220	12022020	120620	89.62	12.418042	-57.246265	89.61	-0.430	1.200	1.800	89.61	-0.00	2.10	 	 	 	 	 	 	 	 	 	 	 	 	 	 	 	 	 	 	1581509180	0.73	1.35
12/02/2020 12:06:21	120220	12022020	120621	89.62	12.418047	-57.246267	89.63	-1.060	1.300	1.260	89.64	-0.20	1.50	 	 	 	 	 	 	 	 	 	 	 	 	 	 	 	 	 	 	1581509181	1.03	1.91
12/02/2020 12:06:22	120220	12022020	120622	89.81	12.418050	-57.246268	89.86	-1.210	0.640	0.750	89.87	-1.10	1.00	 	 	 	 	 	 	 	 	 	 	 	 	 	 	 	 	 	 	1581509182	0.76	1.41
12/02/2020 12:06:23	120220	12022020	120623	90.15	12.418053	-57.246265	90.21	-0.680	-0.650	0.300	90.22	-2.50	0.60	 	 	 	 	 	 	 	 	 	 	 	 	 	 	 	 	 	 	1581509183	0.78	1.44
12/02/2020 12:06:24	120220	12022020	120624	90.36	12.418055	-57.246260	90.37	0.330	-2.110	0.210	90.36	-3.80	0.70	 	 	 	 	 	 	 	 	 	 	 	 	 	 	 	 	 	 	1581509184	1.24	2.30
12/02/2020 12:06:25	120220	12022020	120625	90.23	12.418057	-57.246253	90.21	1.270	-2.940	0.720	90.19	-4.20	1.40	 	 	 	 	 	 	 	 	 	 	 	 	 	 	 	 	 	 	1581509185	1.57	2.91
12/02/2020 12:06:26	120220	12022020	120626	90.03	12.418055	-57.246247	90.07	1.540	-2.330	1.730	90.01	-3.10	2.50	 	 	 	 	 	 	 	 	 	 	 	 	 	 	 	 	 	 	1581509186	1.39	2.57
12/02/2020 12:06:27	120220	12022020	120627	90.00	12.418050	-57.246247	90.11	1.020	-0.240	2.750	90.02	-0.80	3.40	 	 	 	 	 	 	 	 	 	 	 	 	 	 	 	 	 	 	1581509187	1.00	1.85
12/02/2020 12:06:28	120220	12022020	120628	90.19	12.418045	-57.246252	90.33	0.100	2.060	3.180	90.24	1.20	3.60	 	 	 	 	 	 	 	 	 	 	 	 	 	 	 	 	 	 	1581509188	1.60	2.96
12/02/2020 12:06:29	120220	12022020	120629	90.53	12.418045	-57.246258	90.69	-0.770	3.110	2.900	90.62	1.70	3.10	 	 	 	 	 	 	 	 	 	 	 	 	 	 	 	 	 	 	1581509189	1.45	2.69
12/02/2020 12:06:30	120220	12022020	120630	90.96	12.418048	-57.246262	91.09	-1.280	2.420	2.190	91.03	0.60	2.40	 	 	 	 	 	 	 	 	 	 	 	 	 	 	 	 	 	 	1581509190	0.84	1.56
12/02/2020 12:06:31	120220	12022020	120631	91.19	12.418052	-57.246258	91.21	-1.280	0.470	1.530	91.20	-1.60	1.80	 	 	 	 	 	 	 	 	 	 	 	 	 	 	 	 	 	 	1581509191	1.17	2.17
12/02/2020 12:06:32	120220	12022020	120632	91.08	12.418055	-57.246250	91.02	-0.780	-1.650	1.170	91.03	-3.50	1.50	 	 	 	 	 	 	 	 	 	 	 	 	 	 	 	 	 	 	1581509192	1.63	3.02
12/02/2020 12:06:33	120220	12022020	120633	90.77	12.418057	-57.246243	90.71	-0.030	-2.860	1.110	90.71	-4.30	1.50	 	 	 	 	 	 	 	 	 	 	 	 	 	 	 	 	 	 	1581509193	1.57	2.91
12/02/2020 12:06:34	120220	12022020	120634	90.62	12.418057	-57.246240	90.66	0.650	-2.670	1.130	90.63	-3.70	1.50	 	 	 	 	 	 	 	 	 	 	 	 	 	 	 	 	 	 	1581509194	0.81	1.50
12/02/2020 12:06:35	120220	12022020	120635	90.85	12.418058	-57.246240	90.97	1.020	-1.610	1.050	90.92	-2.60	1.40	 	 	 	 	 	 	 	 	 	 	 	 	 	 	 	 	 	 	1581509195	0.29	0.54
12/02/2020 12:06:36	120220	12022020	120636	91.25	12.418060	-57.246242	91.38	1.030	-0.400	1.000	91.33	-1.40	1.40	 	 	 	 	 	 	 	 	 	 	 	 	 	 	 	 	 	 	1581509196	0.51	0.94
12/02/2020 12:06:37	120220	12022020	120637	91.62	12.418060	-57.246243	91.73	0.700	0.710	1.110	91.69	-0.30	1.60	 	 	 	 	 	 	 	 	 	 	 	 	 	 	 	 	 	 	1581509197	0.27	0.50
12/02/2020 12:06:38	120220	12022020	120638	91.92	12.418060	-57.246243	91.99	0.080	1.570	1.410	91.96	0.40	2.00	 	 	 	 	 	 	 	 	 	 	 	 	 	 	 	 	 	 	1581509198	0.10	0.19
12/02/2020 12:06:39	120220	12022020	120639	92.01	12.418058	-57.246243	92.01	-0.570	1.840	1.900	92.00	0.40	2.50	 	 	 	 	 	 	 	 	 	 	 	 	 	 	 	 	 	 	1581509199	0.37	0.69
12/02/2020 12:06:40	120220	12022020	120640	91.87	12.418057	-57.246243	91.86	-0.910	1.290	2.400	91.84	-0.40	3.00	 	 	 	 	 	 	 	 	 	 	 	 	 	 	 	 	 	 	1581509200	0.45	0.83
12/02/2020 12:06:41	120220	12022020	120641	91.70	12.418055	-57.246242	91.72	-0.830	0.120	2.770	91.68	-1.60	3.30	 	 	 	 	 	 	 	 	 	 	 	 	 	 	 	 	 	 	1581509201	0.62	1.15
12/02/2020 12:06:42	120220	12022020	120642	91.68	12.418055	-57.246237	91.73	-0.440	-1.130	2.930	91.70	-2.70	3.40	 	 	 	 	 	 	 	 	 	 	 	 	 	 	 	 	 	 	1581509202	0.96	1.78
12/02/2020 12:06:43	120220	12022020	120643	91.83	12.418055	-57.246232	91.93	0.040	-1.830	2.870	91.88	-3.20	3.20	 	 	 	 	 	 	 	 	 	 	 	 	 	 	 	 	 	 	1581509203	0.91	1.69
12/02/2020 12:06:44	120220	12022020	120644	92.12	12.418055	-57.246230	92.22	0.480	-1.760	2.660	92.18	-2.90	3.00	 	 	 	 	 	 	 	 	 	 	 	 	 	 	 	 	 	 	1581509204	0.56	1.04
12/02/2020 12:06:45	120220	12022020	120645	92.34	12.418057	-57.246228	92.38	0.800	-1.230	2.510	92.35	-2.40	2.90	 	 	 	 	 	 	 	 	 	 	 	 	 	 	 	 	 	 	1581509205	0.26	0.48
12/02/2020 12:06:46	120220	12022020	120646	92.20	12.418057	-57.246228	92.14	0.870	-0.680	2.550	92.13	-1.80	3.00	 	 	 	 	 	 	 	 	 	 	 	 	 	 	 	 	 	 	1581509206	0.35	0.65
12/02/2020 12:06:47	120220	12022020	120647	91.87	12.418058	-57.246225	91.85	0.560	0.020	2.530	91.84	-1.00	2.90	 	 	 	 	 	 	 	 	 	 	 	 	 	 	 	 	 	 	1581509207	0.56	1.04
12/02/2020 12:06:48	120220	12022020	120648	91.91	12.418060	-57.246225	91.98	-0.010	0.950	2.010	91.97	-0.10	2.20	 	 	 	 	 	 	 	 	 	 	 	 	 	 	 	 	 	 	1581509208	0.50	0.93
12/02/2020 12:06:49	120220	12022020	120649	92.34	12.418065	-57.246225	92.43	-0.530	1.620	1.170	92.43	0.30	1.40	 	 	 	 	 	 	 	 	 	 	 	 	 	 	 	 	 	 	1581509209	0.88	1.63
12/02/2020 12:06:50	120220	12022020	120650	92.76	12.418070	-57.246227	92.78	-0.690	1.350	0.530	92.81	-0.30	0.90	 	 	 	 	 	 	 	 	 	 	 	 	 	 	 	 	 	 	1581509210	1.11	2.06
12/02/2020 12:06:51	120220	12022020	120651	92.87	12.418073	-57.246223	92.80	-0.450	0.140	0.480	92.84	-1.70	1.00	 	 	 	 	 	 	 	 	 	 	 	 	 	 	 	 	 	 	1581509211	1.01	1.87
12/02/2020 12:06:52	120220	12022020	120652	92.62	12.418073	-57.246217	92.52	-0.060	-1.250	0.920	92.57	-2.90	1.50	 	 	 	 	 	 	 	 	 	 	 	 	 	 	 	 	 	 	1581509212	1.36	2.52
12/02/2020 12:06:53	120220	12022020	120653	92.41	12.418072	-57.246210	92.39	0.160	-1.830	1.510	92.40	-3.10	2.20	 	 	 	 	 	 	 	 	 	 	 	 	 	 	 	 	 	 	1581509213	1.50	2.78
12/02/2020 12:06:54	120220	12022020	120654	92.44	12.418068	-57.246208	92.45	0.090	-1.250	2.170	92.46	-2.30	2.80	 	 	 	 	 	 	 	 	 	 	 	 	 	 	 	 	 	 	1581509214	0.88	1.63
12/02/2020 12:06:55	120220	12022020	120655	92.47	12.418065	-57.246210	92.48	-0.070	-0.280	2.740	92.46	-1.40	3.30	 	 	 	 	 	 	 	 	 	 	 	 	 	 	 	 	 	 	1581509215	0.88	1.63
12/02/2020 12:06:56	120220	12022020	120656	92.37	12.418063	-57.246212	92.38	-0.020	0.240	3.040	92.35	-1.00	3.50	 	 	 	 	 	 	 	 	 	 	 	 	 	 	 	 	 	 	1581509216	0.75	1.39
12/02/2020 12:06:57	120220	12022020	120657	92.32	12.418063	-57.246212	92.38	0.290	0.180	2.920	92.34	-1.20	3.20	 	 	 	 	 	 	 	 	 	 	 	 	 	 	 	 	 	 	1581509217	0.19	0.35
12/02/2020 12:06:58	120220	12022020	120658	92.47	12.418067	-57.246207	92.57	0.560	-0.140	2.420	92.53	-1.50	2.70	 	 	 	 	 	 	 	 	 	 	 	 	 	 	 	 	 	 	1581509218	1.11	2.06
12/02/2020 12:06:59	120220	12022020	120659	92.74	12.418072	-57.246202	92.84	0.450	-0.310	1.900	92.80	-1.60	2.20	 	 	 	 	 	 	 	 	 	 	 	 	 	 	 	 	 	 	1581509219	1.53	2.83
12/02/2020 12:07:00	120220	12022020	120700	92.92	12.418075	-57.246198	92.97	-0.070	-0.120	1.780	92.93	-1.30	2.30	 	 	 	 	 	 	 	 	 	 	 	 	 	 	 	 	 	 	1581509220	1.04	1.93
12/02/2020 12:07:01	120220	12022020	120701	92.89	12.418073	-57.246198	92.90	-0.650	0.370	2.010	92.86	-0.80	2.50	 	 	 	 	 	 	 	 	 	 	 	 	 	 	 	 	 	 	1581509221	0.19	0.35
12/02/2020 12:07:02	120220	12022020	120702	92.68	12.418072	-57.246198	92.65	-0.890	0.690	2.210	92.63	-0.70	2.70	1016.30	26.40	26.50	20.70	20.70	142.0	70.0	70.0	397.0	27.3	336.00	11.70	66.00	11.30	18190	11151.0	27.6	27.5	1581509222	0.57	1.06
12/02/2020 12:07:03	120220	12022020	120703	92.36	12.418070	-57.246200	92.31	-0.570	0.280	2.140	92.28	-1.30	2.50	 	 	 	 	 	 	 	 	 	 	 	 	 	 	 	 	 	 	1581509223	0.30	0.56
12/02/2020 12:07:04	120220	12022020	120704	91.99	12.418072	-57.246197	91.96	0.120	-0.710	1.760	91.95	-2.30	2.00	 	 	 	 	 	 	 	 	 	 	 	 	 	 	 	 	 	 	1581509224	0.75	1.39
12/02/2020 12:07:05	120220	12022020	120705	91.86	12.418075	-57.246190	91.91	0.710	-1.430	1.250	91.88	-2.80	1.50	 	 	 	 	 	 	 	 	 	 	 	 	 	 	 	 	 	 	1581509225	1.60	2.96
12/02/2020 12:07:06	120220	12022020	120706	92.12	12.418082	-57.246185	92.22	0.830	-1.280	0.800	92.20	-2.40	1.20	 	 	 	 	 	 	 	 	 	 	 	 	 	 	 	 	 	 	1581509226	1.66	3.07
12/02/2020 12:07:07	120220	12022020	120707	92.46	12.418087	-57.246183	92.49	0.400	-0.410	0.710	92.49	-1.40	1.20	 	 	 	 	 	 	 	 	 	 	 	 	 	 	 	 	 	 	1581509227	1.08	2.00
12/02/2020 12:07:08	120220	12022020	120708	92.49	12.418088	-57.246187	92.46	-0.220	0.490	1.030	92.47	-0.60	1.60	 	 	 	 	 	 	 	 	 	 	 	 	 	 	 	 	 	 	1581509228	0.54	1.00
12/02/2020 12:07:09	120220	12022020	120709	92.25	12.418085	-57.246188	92.18	-0.630	0.830	1.630	92.18	-0.50	2.30	 	 	 	 	 	 	 	 	 	 	 	 	 	 	 	 	 	 	1581509229	0.58	1.07
12/02/2020 12:07:10	120220	12022020	120710	91.85	12.418082	-57.246187	91.77	-0.530	0.430	2.360	91.75	-1.10	3.00	 	 	 	 	 	 	 	 	 	 	 	 	 	 	 	 	 	 	1581509230	0.89	1.65
12/02/2020 12:07:11	120220	12022020	120711	91.41	12.418078	-57.246183	91.37	-0.080	-0.250	2.940	91.34	-1.70	3.40	 	 	 	 	 	 	 	 	 	 	 	 	 	 	 	 	 	 	1581509231	1.18	2.19
12/02/2020 12:07:12	120220	12022020	120712	91.24	12.418078	-57.246178	91.28	0.260	-0.620	2.980	91.25	-1.90	3.30	 	 	 	 	 	 	 	 	 	 	 	 	 	 	 	 	 	 	1581509232	1.01	1.87
12/02/2020 12:07:13	120220	12022020	120713	91.40	12.418080	-57.246175	91.47	0.260	-0.580	2.550	91.45	-1.80	2.80	 	 	 	 	 	 	 	 	 	 	 	 	 	 	 	 	 	 	1581509233	0.79	1.46
12/02/2020 12:07:14	120220	12022020	120714	91.58	12.418083	-57.246175	91.59	0.050	-0.350	2.020	91.58	-1.60	2.30	 	 	 	 	 	 	 	 	 	 	 	 	 	 	 	 	 	 	1581509234	0.81	1.50
12/02/2020 12:07:15	120220	12022020	120715	91.50	12.418087	-57.246173	91.44	-0.160	-0.160	1.620	91.45	-1.40	2.00	 	 	 	 	 	 	 	 	 	 	 	 	 	 	 	 	 	 	1581509235	0.74	1.37
12/02/2020 12:07:16	120220	12022020	120716	91.22	12.418090	-57.246173	91.14	-0.230	-0.010	1.380	91.15	-1.30	1.80	 	 	 	 	 	 	 	 	 	 	 	 	 	 	 	 	 	 	1581509236	0.67	1.24
12/02/2020 12:07:17	120220	12022020	120717	90.87	12.418093	-57.246172	90.77	-0.200	0.010	1.270	90.80	-1.30	1.70	 	 	 	 	 	 	 	 	 	 	 	 	 	 	 	 	 	 	1581509237	0.67	1.24
12/02/2020 12:07:18	120220	12022020	120718	90.54	12.418095	-57.246170	90.47	-0.100	-0.190	1.140	90.50	-1.60	1.50	 	 	 	 	 	 	 	 	 	 	 	 	 	 	 	 	 	 	1581509238	0.69	1.28
12/02/2020 12:07:19	120220	12022020	120719	90.41	12.418098	-57.246167	90.39	0.050	-0.470	0.920	90.40	-1.80	1.30	 	 	 	 	 	 	 	 	 	 	 	 	 	 	 	 	 	 	1581509239	0.79	1.46
12/02/2020 12:07:20	120220	12022020	120720	90.41	12.418100	-57.246163	90.40	0.230	-0.650	0.790	90.41	-2.00	1.20	 	 	 	 	 	 	 	 	 	 	 	 	 	 	 	 	 	 	1581509240	0.88	1.63
12/02/2020 12:07:21	120220	12022020	120721	90.45	12.418102	-57.246160	90.45	0.280	-0.550	0.770	90.46	-1.70	1.30	 	 	 	 	 	 	 	 	 	 	 	 	 	 	 	 	 	 	1581509241	0.89	1.65
12/02/2020 12:07:22	120220	12022020	120722	90.48	12.418105	-57.246158	90.48	0.060	-0.040	0.990	90.49	-1.10	1.60	 	 	 	 	 	 	 	 	 	 	 	 	 	 	 	 	 	 	1581509242	0.59	1.09
12/02/2020 12:07:23	120220	12022020	120723	90.50	12.418103	-57.246158	90.49	-0.300	0.670	1.480	90.49	-0.50	2.10	 	 	 	 	 	 	 	 	 	 	 	 	 	 	 	 	 	 	1581509243	0.17	0.31
12/02/2020 12:07:24	120220	12022020	120724	90.40	12.418102	-57.246160	90.35	-0.450	0.920	2.160	90.34	-0.50	2.80	 	 	 	 	 	 	 	 	 	 	 	 	 	 	 	 	 	 	1581509244	0.67	1.24
12/02/2020 12:07:25	120220	12022020	120725	90.03	12.418098	-57.246160	89.94	-0.260	0.270	2.910	89.92	-1.40	3.50	 	 	 	 	 	 	 	 	 	 	 	 	 	 	 	 	 	 	1581509245	0.73	1.35
12/02/2020 12:07:26	120220	12022020	120726	89.52	12.418097	-57.246155	89.45	0.130	-0.840	3.280	89.43	-2.40	3.70	 	 	 	 	 	 	 	 	 	 	 	 	 	 	 	 	 	 	1581509246	1.13	2.09
12/02/2020 12:07:27	120220	12022020	120727	89.25	12.418097	-57.246148	89.27	0.430	-1.500	3.020	89.24	-2.80	3.30	 	 	 	 	 	 	 	 	 	 	 	 	 	 	 	 	 	 	1581509247	1.38	2.56
12/02/2020 12:07:28	120220	12022020	120728	89.34	12.418102	-57.246145	89.39	0.530	-1.360	2.340	89.39	-2.50	2.50	 	 	 	 	 	 	 	 	 	 	 	 	 	 	 	 	 	 	1581509248	1.39	2.57
12/02/2020 12:07:29	120220	12022020	120729	89.57	12.418108	-57.246143	89.58	0.400	-0.710	1.670	89.60	-1.70	2.00	 	 	 	 	 	 	 	 	 	 	 	 	 	 	 	 	 	 	1581509249	1.46	2.70
12/02/2020 12:07:30	120220	12022020	120730	89.70	12.418113	-57.246143	89.70	0.070	0.150	1.320	89.71	-0.90	1.70	 	 	 	 	 	 	 	 	 	 	 	 	 	 	 	 	 	 	1581509250	1.03	1.91
12/02/2020 12:07:31	120220	12022020	120731	89.70	12.418115	-57.246145	89.67	-0.400	0.900	1.190	89.68	-0.30	1.60	 	 	 	 	 	 	 	 	 	 	 	 	 	 	 	 	 	 	1581509251	0.29	0.54
12/02/2020 12:07:32	120220	12022020	120732	89.56	12.418115	-57.246145	89.50	-0.780	1.140	1.130	89.52	-0.20	1.60	 	 	 	 	 	 	 	 	 	 	 	 	 	 	 	 	 	 	1581509252	0.21	0.39
12/02/2020 12:07:33	120220	12022020	120733	89.37	12.418113	-57.246145	89.31	-0.840	0.740	1.070	89.33	-0.80	1.50	 	 	 	 	 	 	 	 	 	 	 	 	 	 	 	 	 	 	1581509253	0.24	0.44
12/02/2020 12:07:34	120220	12022020	120734	89.20	12.418115	-57.246142	89.14	-0.480	-0.090	0.930	89.17	-1.70	1.30	 	 	 	 	 	 	 	 	 	 	 	 	 	 	 	 	 	 	1581509254	0.68	1.26
12/02/2020 12:07:35	120220	12022020	120735	89.07	12.418118	-57.246137	89.02	0.170	-0.990	0.780	89.04	-2.50	1.20	 	 	 	 	 	 	 	 	 	 	 	 	 	 	 	 	 	 	1581509255	1.15	2.13
12/02/2020 12:07:36	120220	12022020	120736	88.94	12.418122	-57.246132	88.90	0.750	-1.520	0.760	88.91	-2.80	1.30	 	 	 	 	 	 	 	 	 	 	 	 	 	 	 	 	 	 	1581509256	1.35	2.50
12/02/2020 12:07:37	120220	12022020	120737	88.83	12.418125	-57.246128	88.82	0.870	-1.290	0.980	88.82	-2.40	1.50	 	 	 	 	 	 	 	 	 	 	 	 	 	 	 	 	 	 	1581509257	1.07	1.98
12/02/2020 12:07:38	120220	12022020	120738	88.87	12.418127	-57.246128	88.93	0.490	-0.410	1.430	88.91	-1.40	2.00	 	 	 	 	 	 	 	 	 	 	 	 	 	 	 	 	 	 	1581509258	0.35	0.65
12/02/2020 12:07:39	120220	12022020	120739	89.13	12.418127	-57.246128	89.24	-0.030	0.460	1.880	89.20	-0.70	2.40	 	 	 	 	 	 	 	 	 	 	 	 	 	 	 	 	 	 	1581509259	0.40	0.74
12/02/2020 12:07:40	120220	12022020	120740	89.45	12.418123	-57.246130	89.54	-0.310	0.680	2.220	89.50	-0.70	2.70	 	 	 	 	 	 	 	 	 	 	 	 	 	 	 	 	 	 	1581509260	0.48	0.89
12/02/2020 12:07:41	120220	12022020	120741	89.54	12.418122	-57.246127	89.55	-0.270	0.160	2.560	89.52	-1.40	3.10	 	 	 	 	 	 	 	 	 	 	 	 	 	 	 	 	 	 	1581509261	0.71	1.31
12/02/2020 12:07:42	120220	12022020	120742	89.23	12.418120	-57.246122	89.15	-0.130	-0.460	3.060	89.12	-1.80	3.60	 	 	 	 	 	 	 	 	 	 	 	 	 	 	 	 	 	 	1581509262	1.35	2.50
12/02/2020 12:07:43	120220	12022020	120743	88.65	12.418117	-57.246117	88.58	-0.180	-0.280	3.330	88.55	-1.30	3.70	 	 	 	 	 	 	 	 	 	 	 	 	 	 	 	 	 	 	1581509263	1.21	2.24
12/02/2020 12:07:44	120220	12022020	120744	88.28	12.418117	-57.246117	88.30	-0.480	0.600	2.980	88.26	-0.40	3.10	 	 	 	 	 	 	 	 	 	 	 	 	 	 	 	 	 	 	1581509264	0.13	0.24
12/02/2020 12:07:45	120220	12022020	120745	88.34	12.418122	-57.246122	88.40	-0.670	0.990	1.900	88.39	-0.40	1.90	 	 	 	 	 	 	 	 	 	 	 	 	 	 	 	 	 	 	1581509265	1.35	2.50
12/02/2020 12:07:46	120220	12022020	120746	88.61	12.418130	-57.246122	88.65	-0.350	0.020	0.610	88.67	-1.80	0.70	 	 	 	 	 	 	 	 	 	 	 	 	 	 	 	 	 	 	1581509266	1.76	3.26
12/02/2020 12:07:47	120220	12022020	120747	88.92	12.418138	-57.246117	88.95	0.360	-1.660	-0.450	88.98	-3.40	-0.20	 	 	 	 	 	 	 	 	 	 	 	 	 	 	 	 	 	 	1581509267	2.23	4.13
12/02/2020 12:07:48	120220	12022020	120748	89.16	12.418145	-57.246107	89.15	0.960	-2.510	-0.920	89.19	-3.70	-0.50	 	 	 	 	 	 	 	 	 	 	 	 	 	 	 	 	 	 	1581509268	2.43	4.50
12/02/2020 12:07:49	120220	12022020	120749	89.20	12.418148	-57.246102	89.16	1.060	-1.680	-0.670	89.19	-2.40	-0.00	 	 	 	 	 	 	 	 	 	 	 	 	 	 	 	 	 	 	1581509269	1.28	2.37
12/02/2020 12:07:50	120220	12022020	120750	89.07	12.418147	-57.246103	89.00	0.620	0.130	0.220	89.02	-0.60	1.00	 	 	 	 	 	 	 	 	 	 	 	 	 	 	 	 	 	 	1581509270	0.40	0.74
12/02/2020 12:07:51	120220	12022020	120751	88.75	12.418143	-57.246108	88.67	-0.110	1.550	1.560	88.67	0.50	2.40	 	 	 	 	 	 	 	 	 	 	 	 	 	 	 	 	 	 	1581509271	1.39	2.57
12/02/2020 12:07:52	120220	12022020	120752	88.31	12.418137	-57.246112	88.24	-0.720	1.830	2.820	88.22	0.40	3.50	 	 	 	 	 	 	 	 	 	 	 	 	 	 	 	 	 	 	1581509272	1.40	2.59
12/02/2020 12:07:53	120220	12022020	120753	87.93	12.418133	-57.246110	87.93	-0.940	1.190	3.470	87.89	-0.40	3.90	 	 	 	 	 	 	 	 	 	 	 	 	 	 	 	 	 	 	1581509273	1.05	1.94
12/02/2020 12:07:54	120220	12022020	120754	87.95	12.418132	-57.246105	88.05	-0.720	0.110	3.330	88.01	-1.50	3.60	 	 	 	 	 	 	 	 	 	 	 	 	 	 	 	 	 	 	1581509274	0.87	1.61
12/02/2020 12:07:55	120220	12022020	120755	88.39	12.418135	-57.246102	88.52	-0.250	-0.910	2.770	88.48	-2.40	3.00	 	 	 	 	 	 	 	 	 	 	 	 	 	 	 	 	 	 	1581509275	1.20	2.22
12/02/2020 12:07:56	120220	12022020	120756	88.83	12.418140	-57.246098	88.90	0.170	-1.510	2.220	88.89	-2.90	2.50	 	 	 	 	 	 	 	 	 	 	 	 	 	 	 	 	 	 	1581509276	1.27	2.35
12/02/2020 12:07:57	120220	12022020	120757	88.95	12.418143	-57.246095	88.92	0.390	-1.520	1.910	88.92	-2.70	2.30	 	 	 	 	 	 	 	 	 	 	 	 	 	 	 	 	 	 	1581509277	0.88	1.63
12/02/2020 12:07:58	120220	12022020	120758	88.73	12.418145	-57.246095	88.66	0.430	-1.110	1.840	88.66	-2.20	2.30	 	 	 	 	 	 	 	 	 	 	 	 	 	 	 	 	 	 	1581509278	0.29	0.54
12/02/2020 12:07:59	120220	12022020	120759	88.38	12.418145	-57.246095	88.32	0.490	-0.600	1.780	88.32	-1.70	2.10	 	 	 	 	 	 	 	 	 	 	 	 	 	 	 	 	 	 	1581509279	0.11	0.20
12/02/2020 12:08:00	120220	12022020	120800	88.15	12.418147	-57.246093	88.12	0.530	-0.030	1.450	88.13	-1.10	1.70	 	 	 	 	 	 	 	 	 	 	 	 	 	 	 	 	 	 	1581509280	0.46	0.85
12/02/2020 12:08:01	120220	12022020	120801	88.16	12.418152	-57.246092	88.17	0.280	0.580	0.840	88.19	-0.50	1.10	1016.30	26.40	26.50	20.70	20.80	168.0	71.0	71.0	399.0	27.3	339.00	12.00	68.00	11.60	18984	9937.0	27.6	27.6	1581509281	0.96	1.78
12/02/2020 12:08:02	120220	12022020	120802	88.26	12.418157	-57.246092	88.23	-0.320	1.100	0.340	88.27	-0.10	0.70	 	 	 	 	 	 	 	 	 	 	 	 	 	 	 	 	 	 	1581509282	1.06	1.96
12/02/2020 12:08:03	120220	12022020	120803	88.19	12.418160	-57.246092	88.11	-0.870	1.190	0.210	88.15	-0.20	0.60	 	 	 	 	 	 	 	 	 	 	 	 	 	 	 	 	 	 	1581509283	0.71	1.31
12/02/2020 12:08:04	120220	12022020	120804	88.03	12.418162	-57.246092	87.98	-0.880	0.620	0.180	88.02	-1.00	0.60	 	 	 	 	 	 	 	 	 	 	 	 	 	 	 	 	 	 	1581509284	0.41	0.76
12/02/2020 12:08:05	120220	12022020	120805	88.12	12.418163	-57.246090	88.14	-0.310	-0.400	0.140	88.17	-2.00	0.60	 	 	 	 	 	 	 	 	 	 	 	 	 	 	 	 	 	 	1581509285	0.78	1.44
12/02/2020 12:08:06	120220	12022020	120806	88.43	12.418167	-57.246085	88.48	0.380	-1.360	0.360	88.50	-2.90	0.90	 	 	 	 	 	 	 	 	 	 	 	 	 	 	 	 	 	 	1581509286	1.05	1.94
12/02/2020 12:08:07	120220	12022020	120807	88.66	12.418167	-57.246080	88.66	0.730	-1.820	0.990	88.67	-3.10	1.70	 	 	 	 	 	 	 	 	 	 	 	 	 	 	 	 	 	 	1581509287	0.94	1.74
12/02/2020 12:08:08	120220	12022020	120808	88.48	12.418163	-57.246078	88.40	0.660	-1.510	1.990	88.40	-2.50	2.80	 	 	 	 	 	 	 	 	 	 	 	 	 	 	 	 	 	 	1581509288	0.99	1.83
12/02/2020 12:08:09	120220	12022020	120809	87.91	12.418158	-57.246077	87.82	0.400	-0.580	3.030	87.79	-1.50	3.70	 	 	 	 	 	 	 	 	 	 	 	 	 	 	 	 	 	 	1581509289	1.08	2.00
12/02/2020 12:08:10	120220	12022020	120810	87.50	12.418155	-57.246078	87.53	0.120	0.570	3.450	87.49	-0.40	3.80	 	 	 	 	 	 	 	 	 	 	 	 	 	 	 	 	 	 	1581509290	0.73	1.35
12/02/2020 12:08:11	120220	12022020	120811	87.75	12.418155	-57.246080	87.92	-0.220	1.310	2.940	87.87	0.10	3.10	 	 	 	 	 	 	 	 	 	 	 	 	 	 	 	 	 	 	1581509291	0.47	0.87
12/02/2020 12:08:12	120220	12022020	120812	88.38	12.418160	-57.246080	88.50	-0.580	1.140	1.940	88.49	-0.40	2.10	 	 	 	 	 	 	 	 	 	 	 	 	 	 	 	 	 	 	1581509292	1.00	1.85
12/02/2020 12:08:13	120220	12022020	120813	88.72	12.418165	-57.246078	88.70	-0.690	0.240	1.140	88.72	-1.40	1.40	 	 	 	 	 	 	 	 	 	 	 	 	 	 	 	 	 	 	1581509293	1.09	2.02
12/02/2020 12:08:14	120220	12022020	120814	88.59	12.418167	-57.246073	88.50	-0.380	-0.700	0.780	88.54	-2.20	1.10	 	 	 	 	 	 	 	 	 	 	 	 	 	 	 	 	 	 	1581509294	1.16	2.15
12/02/2020 12:08:15	120220	12022020	120815	88.35	12.418168	-57.246068	88.27	0.160	-1.010	0.590	88.31	-2.20	1.00	 	 	 	 	 	 	 	 	 	 	 	 	 	 	 	 	 	 	1581509295	0.96	1.78
12/02/2020 12:08:16	120220	12022020	120816	88.25	12.418170	-57.246068	88.22	0.460	-0.740	0.370	88.25	-1.90	0.70	 	 	 	 	 	 	 	 	 	 	 	 	 	 	 	 	 	 	1581509296	0.55	1.02
12/02/2020 12:08:17	120220	12022020	120817	88.32	12.418173	-57.246068	88.31	0.350	-0.420	0.210	88.35	-1.60	0.70	 	 	 	 	 	 	 	 	 	 	 	 	 	 	 	 	 	 	1581509297	0.80	1.48
12/02/2020 12:08:18	120220	12022020	120818	88.50	12.418177	-57.246068	88.51	0.020	-0.320	0.390	88.53	-1.60	1.00	 	 	 	 	 	 	 	 	 	 	 	 	 	 	 	 	 	 	1581509298	0.65	1.20
12/02/2020 12:08:19	120220	12022020	120819	88.63	12.418177	-57.246067	88.63	-0.150	-0.210	0.940	88.65	-1.40	1.60	 	 	 	 	 	 	 	 	 	 	 	 	 	 	 	 	 	 	1581509299	0.35	0.65
12/02/2020 12:08:20	120220	12022020	120820	88.70	12.418175	-57.246065	88.71	-0.000	0.020	1.490	88.72	-1.20	2.00	 	 	 	 	 	 	 	 	 	 	 	 	 	 	 	 	 	 	1581509300	0.56	1.04
12/02/2020 12:08:21	120220	12022020	120821	88.82	12.418173	-57.246063	88.86	0.280	0.090	1.810	88.85	-1.20	2.30	 	 	 	 	 	 	 	 	 	 	 	 	 	 	 	 	 	 	1581509301	0.32	0.59
12/02/2020 12:08:22	120220	12022020	120822	89.01	12.418173	-57.246062	89.08	0.390	-0.170	2.070	89.05	-1.60	2.60	 	 	 	 	 	 	 	 	 	 	 	 	 	 	 	 	 	 	1581509302	0.46	0.85
12/02/2020 12:08:23	120220	12022020	120823	89.16	12.418172	-57.246058	89.21	0.230	-0.460	2.560	89.17	-1.80	3.20	 	 	 	 	 	 	 	 	 	 	 	 	 	 	 	 	 	 	1581509303	0.82	1.52
12/02/2020 12:08:24	120220	12022020	120824	89.13	12.418168	-57.246055	89.13	-0.070	-0.470	3.240	89.08	-1.70	3.80	 	 	 	 	 	 	 	 	 	 	 	 	 	 	 	 	 	 	1581509304	1.09	2.02
12/02/2020 12:08:25	120220	12022020	120825	88.83	12.418165	-57.246053	88.80	-0.340	-0.150	3.560	88.76	-1.30	3.90	 	 	 	 	 	 	 	 	 	 	 	 	 	 	 	 	 	 	1581509305	0.99	1.83
12/02/2020 12:08:26	120220	12022020	120826	88.59	12.418163	-57.246053	88.61	-0.450	0.390	3.030	88.58	-0.70	3.10	 	 	 	 	 	 	 	 	 	 	 	 	 	 	 	 	 	 	1581509306	0.16	0.30
12/02/2020 12:08:27	120220	12022020	120827	88.74	12.418168	-57.246055	88.83	-0.320	0.710	1.710	88.82	-0.60	1.70	 	 	 	 	 	 	 	 	 	 	 	 	 	 	 	 	 	 	1581509307	1.11	2.06
12/02/2020 12:08:28	120220	12022020	120828	89.20	12.418178	-57.246055	89.29	0.000	0.340	0.300	89.30	-1.20	0.40	 	 	 	 	 	 	 	 	 	 	 	 	 	 	 	 	 	 	1581509308	2.08	3.85
12/02/2020 12:08:29	120220	12022020	120829	89.61	12.418188	-57.246052	89.62	0.280	-0.590	-0.550	89.65	-2.20	-0.20	 	 	 	 	 	 	 	 	 	 	 	 	 	 	 	 	 	 	1581509309	2.11	3.91
12/02/2020 12:08:30	120220	12022020	120830	89.69	12.418192	-57.246047	89.61	0.280	-1.370	-0.600	89.65	-2.70	-0.00	 	 	 	 	 	 	 	 	 	 	 	 	 	 	 	 	 	 	1581509310	1.55	2.87
12/02/2020 12:08:31	120220	12022020	120831	89.36	12.418192	-57.246042	89.24	0.090	-1.390	0.040	89.26	-2.50	0.70	 	 	 	 	 	 	 	 	 	 	 	 	 	 	 	 	 	 	1581509311	0.95	1.76
12/02/2020 12:08:32	120220	12022020	120832	88.91	12.418188	-57.246042	88.84	-0.030	-0.750	0.890	88.85	-1.70	1.50	 	 	 	 	 	 	 	 	 	 	 	 	 	 	 	 	 	 	1581509312	0.89	1.65
12/02/2020 12:08:33	120220	12022020	120833	88.80	12.418183	-57.246042	88.84	0.020	0.080	1.470	88.82	-1.00	2.00	 	 	 	 	 	 	 	 	 	 	 	 	 	 	 	 	 	 	1581509313	0.88	1.63
12/02/2020 12:08:34	120220	12022020	120834	89.03	12.418182	-57.246042	89.12	0.120	0.610	1.730	89.09	-0.60	2.20	 	 	 	 	 	 	 	 	 	 	 	 	 	 	 	 	 	 	1581509314	0.48	0.89
12/02/2020 12:08:35	120220	12022020	120835	89.36	12.418182	-57.246042	89.43	0.160	0.610	1.710	89.41	-0.80	2.10	 	 	 	 	 	 	 	 	 	 	 	 	 	 	 	 	 	 	1581509315	0.12	0.22
12/02/2020 12:08:36	120220	12022020	120836	89.54	12.418185	-57.246040	89.55	0.190	0.180	1.700	89.56	-1.30	2.20	 	 	 	 	 	 	 	 	 	 	 	 	 	 	 	 	 	 	1581509316	0.65	1.20
12/02/2020 12:08:37	120220	12022020	120837	89.55	12.418185	-57.246035	89.54	0.220	-0.400	1.860	89.54	-1.80	2.30	 	 	 	 	 	 	 	 	 	 	 	 	 	 	 	 	 	 	1581509317	0.92	1.70
12/02/2020 12:08:38	120220	12022020	120838	89.55	12.418187	-57.246032	89.57	0.140	-0.630	2.060	89.56	-1.80	2.50	 	 	 	 	 	 	 	 	 	 	 	 	 	 	 	 	 	 	1581509318	0.95	1.76
12/02/2020 12:08:39	120220	12022020	120839	89.65	12.418187	-57.246028	89.71	-0.130	-0.260	2.140	89.69	-1.40	2.50	 	 	 	 	 	 	 	 	 	 	 	 	 	 	 	 	 	 	1581509319	0.47	0.87
12/02/2020 12:08:40	120220	12022020	120840	89.84	12.418187	-57.246030	89.89	-0.530	0.260	2.070	89.87	-0.90	2.50	 	 	 	 	 	 	 	 	 	 	 	 	 	 	 	 	 	 	1581509320	0.23	0.43
12/02/2020 12:08:41	120220	12022020	120841	89.92	12.418187	-57.246032	89.94	-0.830	0.420	2.080	89.92	-0.90	2.50	 	 	 	 	 	 	 	 	 	 	 	 	 	 	 	 	 	 	1581509321	0.37	0.69
12/02/2020 12:08:42	120220	12022020	120842	89.84	12.418187	-57.246032	89.83	-0.770	0.100	2.030	89.82	-1.30	2.30	 	 	 	 	 	 	 	 	 	 	 	 	 	 	 	 	 	 	1581509322	0.15	0.28
12/02/2020 12:08:43	120220	12022020	120843	89.81	12.418187	-57.246030	89.84	-0.220	-0.490	1.550	89.83	-2.00	1.80	 	 	 	 	 	 	 	 	 	 	 	 	 	 	 	 	 	 	1581509323	0.45	0.83
12/02/2020 12:08:44	120220	12022020	120844	89.96	12.418190	-57.246027	90.01	0.630	-1.100	0.850	90.00	-2.50	1.10	 	 	 	 	 	 	 	 	 	 	 	 	 	 	 	 	 	 	1581509324	1.09	2.02
12/02/2020 12:08:45	120220	12022020	120845	90.13	12.418195	-57.246022	90.12	1.260	-1.490	0.520	90.14	-2.80	1.00	 	 	 	 	 	 	 	 	 	 	 	 	 	 	 	 	 	 	1581509325	1.54	2.85
12/02/2020 12:08:46	120220	12022020	120846	90.11	12.418200	-57.246017	90.07	1.180	-1.200	0.780	90.08	-2.20	1.30	 	 	 	 	 	 	 	 	 	 	 	 	 	 	 	 	 	 	1581509326	1.26	2.33
12/02/2020 12:08:47	120220	12022020	120847	89.96	12.418200	-57.246015	89.92	0.430	-0.190	1.200	89.93	-1.10	1.70	 	 	 	 	 	 	 	 	 	 	 	 	 	 	 	 	 	 	1581509327	0.41	0.76
12/02/2020 12:08:48	120220	12022020	120848	89.90	12.418200	-57.246017	89.91	-0.390	0.810	1.420	89.91	-0.30	1.90	 	 	 	 	 	 	 	 	 	 	 	 	 	 	 	 	 	 	1581509328	0.34	0.63
12/02/2020 12:08:49	120220	12022020	120849	89.99	12.418198	-57.246018	90.01	-0.680	1.180	1.440	90.02	-0.10	1.90	 	 	 	 	 	 	 	 	 	 	 	 	 	 	 	 	 	 	1581509329	0.29	0.54
12/02/2020 12:08:50	120220	12022020	120850	90.12	12.418198	-57.246017	90.15	-0.560	1.170	1.470	90.15	-0.20	1.90	 	 	 	 	 	 	 	 	 	 	 	 	 	 	 	 	 	 	1581509330	0.30	0.56
12/02/2020 12:08:51	120220	12022020	120851	90.29	12.418200	-57.246015	90.34	-0.550	1.030	1.500	90.33	-0.40	1.90	 	 	 	 	 	 	 	 	 	 	 	 	 	 	 	 	 	 	1581509331	0.31	0.57
12/02/2020 12:08:52	120220	12022020	120852	90.54	12.418202	-57.246015	90.60	-0.770	0.500	1.340	90.59	-1.10	1.70	 	 	 	 	 	 	 	 	 	 	 	 	 	 	 	 	 	 	1581509332	0.40	0.74
12/02/2020 12:08:53	120220	12022020	120853	90.73	12.418203	-57.246015	90.71	-0.790	-0.770	1.210	90.73	-2.60	1.70	 	 	 	 	 	 	 	 	 	 	 	 	 	 	 	 	 	 	1581509333	0.36	0.67
12/02/2020 12:08:54	120220	12022020	120854	90.57	12.418202	-57.246010	90.47	-0.240	-2.380	1.610	90.49	-4.10	2.30	 	 	 	 	 	 	 	 	 	 	 	 	 	 	 	 	 	 	1581509334	1.08	2.00
12/02/2020 12:08:55	120220	12022020	120855	90.12	12.418198	-57.246002	90.01	0.700	-3.180	2.280	90.02	-4.40	2.90	 	 	 	 	 	 	 	 	 	 	 	 	 	 	 	 	 	 	1581509335	1.89	3.50
12/02/2020 12:08:56	120220	12022020	120856	89.62	12.418195	-57.245997	89.54	1.400	-2.310	2.640	89.53	-3.00	3.00	 	 	 	 	 	 	 	 	 	 	 	 	 	 	 	 	 	 	1581509336	1.44	2.67
12/02/2020 12:08:57	120220	12022020	120857	89.28	12.418195	-57.245997	89.27	1.370	-0.150	2.310	89.25	-0.70	2.50	 	 	 	 	 	 	 	 	 	 	 	 	 	 	 	 	 	 	1581509337	0.12	0.22
12/02/2020 12:08:58	120220	12022020	120858	89.34	12.418202	-57.246002	89.40	0.580	2.020	1.320	89.40	1.20	1.30	 	 	 	 	 	 	 	 	 	 	 	 	 	 	 	 	 	 	1581509338	1.76	3.26
12/02/2020 12:08:59	120220	12022020	120859	89.80	12.418212	-57.246008	89.90	-0.500	2.950	0.050	89.92	1.60	0.10	 	 	 	 	 	 	 	 	 	 	 	 	 	 	 	 	 	 	1581509339	2.51	4.65
12/02/2020 12:09:00	120220	12022020	120900	90.40	12.418220	-57.246010	90.48	-1.350	2.230	-0.920	90.51	0.40	-0.60	 	 	 	 	 	 	 	 	 	 	 	 	 	 	 	 	 	 	1581509340	2.06	3.82
12/02/2020 12:09:01	120220	12022020	120901	90.80	12.418225	-57.246005	90.80	-1.530	0.430	-1.110	90.84	-1.50	-0.60	 	 	 	 	 	 	 	 	 	 	 	 	 	 	 	 	 	 	1581509341	1.20	2.22
12/02/2020 12:09:02	120220	12022020	120902	90.79	12.418223	-57.245998	90.69	-0.960	-1.480	-0.550	90.74	-3.20	0.20	1016.30	26.40	26.40	20.50	20.60	117.0	70.0	70.0	399.0	27.2	337.00	11.50	65.00	11.10	17295	11551.0	27.6	27.5	1581509342	1.51	2.80
12/02/2020 12:09:03	120220	12022020	120903	90.47	12.418217	-57.245993	90.37	0.030	-2.470	0.480	90.39	-3.80	1.30	 	 	 	 	 	 	 	 	 	 	 	 	 	 	 	 	 	 	1581509343	1.82	3.37
12/02/2020 12:09:04	120220	12022020	120904	90.09	12.418210	-57.245990	90.01	0.870	-2.350	1.720	90.01	-3.40	2.50	 	 	 	 	 	 	 	 	 	 	 	 	 	 	 	 	 	 	1581509344	1.39	2.57
12/02/2020 12:09:05	120220	12022020	120905	89.70	12.418205	-57.245990	89.65	1.170	-1.620	2.900	89.63	-2.60	3.60	 	 	 	 	 	 	 	 	 	 	 	 	 	 	 	 	 	 	1581509345	1.07	1.98
12/02/2020 12:09:06	120220	12022020	120906	89.36	12.418202	-57.245990	89.35	0.880	-0.620	3.550	89.31	-1.60	4.00	 	 	 	 	 	 	 	 	 	 	 	 	 	 	 	 	 	 	1581509346	0.79	1.46
12/02/2020 12:09:07	120220	12022020	120907	89.24	12.418202	-57.245990	89.32	0.310	0.520	3.260	89.28	-0.40	3.40	 	 	 	 	 	 	 	 	 	 	 	 	 	 	 	 	 	 	1581509347	0.08	0.15
12/02/2020 12:09:08	120220	12022020	120908	89.62	12.418207	-57.245990	89.83	-0.230	1.640	2.180	89.76	0.60	2.20	 	 	 	 	 	 	 	 	 	 	 	 	 	 	 	 	 	 	1581509348	1.04	1.93
12/02/2020 12:09:09	120220	12022020	120909	90.44	12.418215	-57.245993	90.65	-0.570	2.100	0.910	90.60	0.70	1.00	 	 	 	 	 	 	 	 	 	 	 	 	 	 	 	 	 	 	1581509349	1.75	3.24
12/02/2020 12:09:10	120220	12022020	120910	91.19	12.418222	-57.245993	91.28	-0.640	1.370	-0.090	91.28	-0.40	0.20	 	 	 	 	 	 	 	 	 	 	 	 	 	 	 	 	 	 	1581509350	1.58	2.93
12/02/2020 12:09:11	120220	12022020	120911	91.34	12.418227	-57.245990	91.24	-0.470	-0.270	-0.350	91.28	-2.10	0.20	 	 	 	 	 	 	 	 	 	 	 	 	 	 	 	 	 	 	1581509351	1.25	2.31
12/02/2020 12:09:12	120220	12022020	120912	90.81	12.418225	-57.245982	90.60	-0.160	-1.730	0.300	90.64	-3.30	1.10	 	 	 	 	 	 	 	 	 	 	 	 	 	 	 	 	 	 	1581509352	1.46	2.70
12/02/2020 12:09:13	120220	12022020	120913	89.98	12.418222	-57.245977	89.83	0.140	-2.050	1.370	89.84	-3.20	2.10	 	 	 	 	 	 	 	 	 	 	 	 	 	 	 	 	 	 	1581509353	1.42	2.63
12/02/2020 12:09:14	120220	12022020	120914	89.48	12.418217	-57.245977	89.46	0.420	-1.490	2.060	89.44	-2.50	2.60	 	 	 	 	 	 	 	 	 	 	 	 	 	 	 	 	 	 	1581509354	1.01	1.87
12/02/2020 12:09:15	120220	12022020	120915	89.53	12.418215	-57.245977	89.63	0.630	-0.770	2.020	89.61	-1.90	2.30	 	 	 	 	 	 	 	 	 	 	 	 	 	 	 	 	 	 	1581509355	0.33	0.61
12/02/2020 12:09:16	120220	12022020	120916	89.96	12.418220	-57.245977	90.07	0.680	-0.170	1.490	90.04	-1.30	1.80	 	 	 	 	 	 	 	 	 	 	 	 	 	 	 	 	 	 	1581509356	0.78	1.44
12/02/2020 12:09:17	120220	12022020	120917	90.31	12.418225	-57.245975	90.36	0.430	0.360	1.060	90.36	-0.80	1.40	 	 	 	 	 	 	 	 	 	 	 	 	 	 	 	 	 	 	1581509357	1.31	2.43
12/02/2020 12:09:18	120220	12022020	120918	90.42	12.418228	-57.245973	90.41	-0.100	0.770	1.120	90.42	-0.50	1.70	 	 	 	 	 	 	 	 	 	 	 	 	 	 	 	 	 	 	1581509358	0.79	1.46
12/02/2020 12:09:19	120220	12022020	120919	90.37	12.418228	-57.245973	90.35	-0.610	0.920	1.560	90.36	-0.40	2.10	 	 	 	 	 	 	 	 	 	 	 	 	 	 	 	 	 	 	1581509359	0.29	0.54
12/02/2020 12:09:20	120220	12022020	120920	90.36	12.418225	-57.245972	90.38	-0.760	0.670	1.980	90.37	-0.80	2.50	 	 	 	 	 	 	 	 	 	 	 	 	 	 	 	 	 	 	1581509360	0.75	1.39
12/02/2020 12:09:21	120220	12022020	120921	90.48	12.418222	-57.245970	90.52	-0.470	0.130	2.090	90.50	-1.40	2.50	 	 	 	 	 	 	 	 	 	 	 	 	 	 	 	 	 	 	1581509361	0.73	1.35
12/02/2020 12:09:22	120220	12022020	120922	90.51	12.418220	-57.245968	90.50	0.020	-0.470	2.100	90.49	-1.90	2.60	 	 	 	 	 	 	 	 	 	 	 	 	 	 	 	 	 	 	1581509362	0.62	1.15
12/02/2020 12:09:23	120220	12022020	120923	90.30	12.418222	-57.245965	90.24	0.400	-0.930	2.200	90.24	-2.30	2.70	 	 	 	 	 	 	 	 	 	 	 	 	 	 	 	 	 	 	1581509363	0.61	1.13
12/02/2020 12:09:24	120220	12022020	120924	89.90	12.418223	-57.245962	89.80	0.580	-1.210	2.210	89.80	-2.50	2.60	 	 	 	 	 	 	 	 	 	 	 	 	 	 	 	 	 	 	1581509364	0.70	1.30
12/02/2020 12:09:25	120220	12022020	120925	89.51	12.418227	-57.245958	89.47	0.570	-1.230	1.940	89.47	-2.40	2.20	 	 	 	 	 	 	 	 	 	 	 	 	 	 	 	 	 	 	1581509365	1.07	1.98
12/02/2020 12:09:26	120220	12022020	120926	89.45	12.418233	-57.245957	89.49	0.400	-0.710	1.460	89.49	-1.70	1.70	 	 	 	 	 	 	 	 	 	 	 	 	 	 	 	 	 	 	1581509366	1.35	2.50
12/02/2020 12:09:27	120220	12022020	120927	89.80	12.418238	-57.245957	89.92	0.060	0.240	0.980	89.91	-0.80	1.30	 	 	 	 	 	 	 	 	 	 	 	 	 	 	 	 	 	 	1581509367	1.13	2.09
12/02/2020 12:09:28	120220	12022020	120928	90.35	12.418240	-57.245958	90.45	-0.280	0.980	0.750	90.46	-0.30	1.20	 	 	 	 	 	 	 	 	 	 	 	 	 	 	 	 	 	 	1581509368	0.71	1.31
12/02/2020 12:09:29	120220	12022020	120929	90.72	12.418240	-57.245958	90.75	-0.350	0.820	0.950	90.75	-0.70	1.50	 	 	 	 	 	 	 	 	 	 	 	 	 	 	 	 	 	 	1581509369	0.16	0.30
12/02/2020 12:09:30	120220	12022020	120930	90.76	12.418237	-57.245955	90.72	-0.170	-0.120	1.390	90.74	-1.70	2.00	 	 	 	 	 	 	 	 	 	 	 	 	 	 	 	 	 	 	1581509370	1.03	1.91
12/02/2020 12:09:31	120220	12022020	120931	90.50	12.418233	-57.245948	90.40	0.020	-0.990	1.900	90.42	-2.40	2.50	 	 	 	 	 	 	 	 	 	 	 	 	 	 	 	 	 	 	1581509371	1.66	3.07
12/02/2020 12:09:32	120220	12022020	120932	90.08	12.418232	-57.245942	90.00	0.040	-0.910	2.360	90.00	-1.90	2.90	 	 	 	 	 	 	 	 	 	 	 	 	 	 	 	 	 	 	1581509372	1.36	2.52
12/02/2020 12:09:33	120220	12022020	120933	89.75	12.418230	-57.245942	89.73	-0.100	0.120	2.490	89.71	-0.80	2.90	 	 	 	 	 	 	 	 	 	 	 	 	 	 	 	 	 	 	1581509373	0.14	0.26
12/02/2020 12:09:34	120220	12022020	120934	89.73	12.418233	-57.245947	89.78	-0.280	1.100	2.140	89.76	-0.10	2.40	 	 	 	 	 	 	 	 	 	 	 	 	 	 	 	 	 	 	1581509374	1.13	2.09
12/02/2020 12:09:35	120220	12022020	120935	90.01	12.418238	-57.245952	90.08	-0.300	0.980	1.440	90.07	-0.70	1.60	 	 	 	 	 	 	 	 	 	 	 	 	 	 	 	 	 	 	1581509375	1.43	2.65
12/02/2020 12:09:36	120220	12022020	120936	90.30	12.418245	-57.245950	90.34	-0.040	-0.410	0.660	90.34	-2.30	0.90	 	 	 	 	 	 	 	 	 	 	 	 	 	 	 	 	 	 	1581509376	1.32	2.44
12/02/2020 12:09:37	120220	12022020	120937	90.45	12.418250	-57.245942	90.44	0.400	-2.070	0.110	90.46	-3.70	0.50	 	 	 	 	 	 	 	 	 	 	 	 	 	 	 	 	 	 	1581509377	1.97	3.65
12/02/2020 12:09:38	120220	12022020	120938	90.45	12.418252	-57.245933	90.43	0.760	-2.570	0.190	90.43	-3.60	0.80	 	 	 	 	 	 	 	 	 	 	 	 	 	 	 	 	 	 	1581509378	1.99	3.69
12/02/2020 12:09:39	120220	12022020	120939	90.40	12.418252	-57.245928	90.41	0.710	-1.360	0.840	90.40	-2.00	1.50	 	 	 	 	 	 	 	 	 	 	 	 	 	 	 	 	 	 	1581509379	0.85	1.57
12/02/2020 12:09:40	120220	12022020	120940	90.41	12.418248	-57.245932	90.42	0.210	0.590	1.660	90.41	-0.20	2.30	 	 	 	 	 	 	 	 	 	 	 	 	 	 	 	 	 	 	1581509380	1.04	1.93
12/02/2020 12:09:41	120220	12022020	120941	90.39	12.418243	-57.245937	90.37	-0.440	1.830	2.240	90.36	0.60	2.80	 	 	 	 	 	 	 	 	 	 	 	 	 	 	 	 	 	 	1581509381	1.52	2.82
12/02/2020 12:09:42	120220	12022020	120942	90.20	12.418240	-57.245938	90.15	-0.860	1.870	2.410	90.14	0.40	2.80	 	 	 	 	 	 	 	 	 	 	 	 	 	 	 	 	 	 	1581509382	0.72	1.33
12/02/2020 12:09:43	120220	12022020	120943	89.92	12.418242	-57.245937	89.89	-0.930	1.250	2.190	89.87	-0.30	2.50	 	 	 	 	 	 	 	 	 	 	 	 	 	 	 	 	 	 	1581509383	0.44	0.81
12/02/2020 12:09:44	120220	12022020	120944	89.81	12.418245	-57.245935	89.87	-0.710	0.350	1.620	89.81	-0.60	2.30	 	 	 	 	 	 	 	 	 	 	 	 	 	 	 	 	 	 	1581509384	1.03	1.91
12/02/2020 12:09:45	120220	12022020	120945	90.06	12.418252	-57.245932	90.16	-0.280	-0.790	0.780	90.15	-2.50	0.90	 	 	 	 	 	 	 	 	 	 	 	 	 	 	 	 	 	 	1581509385	1.41	2.61
12/02/2020 12:09:46	120220	12022020	120946	90.46	12.418258	-57.245928	90.51	0.310	-2.040	0.020	90.52	-3.70	0.30	 	 	 	 	 	 	 	 	 	 	 	 	 	 	 	 	 	 	1581509386	1.59	2.94
12/02/2020 12:09:47	120220	12022020	120947	90.59	12.418262	-57.245923	90.57	0.860	-2.770	-0.120	90.58	-4.00	0.40	 	 	 	 	 	 	 	 	 	 	 	 	 	 	 	 	 	 	1581509387	1.50	2.78
12/02/2020 12:09:48	120220	12022020	120948	90.46	12.418263	-57.245918	90.42	1.060	-2.220	0.500	90.42	-3.10	1.20	 	 	 	 	 	 	 	 	 	 	 	 	 	 	 	 	 	 	1581509388	1.03	1.91
12/02/2020 12:09:49	120220	12022020	120949	90.26	12.418260	-57.245918	90.22	0.770	-0.510	1.460	90.23	-1.20	2.20	 	 	 	 	 	 	 	 	 	 	 	 	 	 	 	 	 	 	1581509389	0.75	1.39
12/02/2020 12:09:50	120220	12022020	120950	90.07	12.418255	-57.245922	90.04	0.180	1.310	2.150	90.04	0.40	2.70	 	 	 	 	 	 	 	 	 	 	 	 	 	 	 	 	 	 	1581509390	1.30	2.41
12/02/2020 12:09:51	120220	12022020	120951	89.93	12.418252	-57.245925	89.92	-0.470	2.310	2.430	89.91	1.10	2.90	 	 	 	 	 	 	 	 	 	 	 	 	 	 	 	 	 	 	1581509391	0.99	1.83
12/02/2020 12:09:52	120220	12022020	120952	89.88	12.418252	-57.245927	89.89	-0.940	2.170	2.450	89.88	0.60	2.80	 	 	 	 	 	 	 	 	 	 	 	 	 	 	 	 	 	 	1581509392	0.26	0.48
12/02/2020 12:09:53	120220	12022020	120953	89.93	12.418253	-57.245925	89.97	-1.050	1.000	2.120	89.96	-0.80	2.40	 	 	 	 	 	 	 	 	 	 	 	 	 	 	 	 	 	 	1581509393	0.56	1.04
12/02/2020 12:09:54	120220	12022020	120954	90.12	12.418258	-57.245920	90.16	-0.700	-0.810	1.450	90.17	-2.70	1.70	 	 	 	 	 	 	 	 	 	 	 	 	 	 	 	 	 	 	1581509394	1.38	2.56
12/02/2020 12:09:55	120220	12022020	120955	90.35	12.418263	-57.245913	90.36	0.030	-2.300	0.820	90.39	-3.80	1.20	 	 	 	 	 	 	 	 	 	 	 	 	 	 	 	 	 	 	1581509395	1.88	3.48
12/02/2020 12:09:56	120220	12022020	120956	90.49	12.418267	-57.245907	90.48	0.780	-2.500	0.630	90.51	-3.50	1.10	 	 	 	 	 	 	 	 	 	 	 	 	 	 	 	 	 	 	1581509396	1.49	2.76
12/02/2020 12:09:57	120220	12022020	120957	90.50	12.418268	-57.245907	90.48	1.080	-1.390	0.940	90.49	-2.20	1.50	 	 	 	 	 	 	 	 	 	 	 	 	 	 	 	 	 	 	1581509397	0.33	0.61
12/02/2020 12:09:58	120220	12022020	120958	90.42	12.418268	-57.245910	90.41	0.750	0.050	1.430	90.41	-0.90	2.00	 	 	 	 	 	 	 	 	 	 	 	 	 	 	 	 	 	 	1581509398	0.72	1.33
12/02/2020 12:09:59	120220	12022020	120959	90.34	12.418267	-57.245913	90.32	0.080	0.890	1.770	90.32	-0.30	2.30	 	 	 	 	 	 	 	 	 	 	 	 	 	 	 	 	 	 	1581509399	0.71	1.31
12/02/2020 12:10:00	120220	12022020	121000	90.28	12.418265	-57.245913	90.29	-0.490	1.060	1.990	90.29	-0.30	2.50	 	 	 	 	 	 	 	 	 	 	 	 	 	 	 	 	 	 	1581509400	0.18	0.33
12/02/2020 12:10:01	120220	12022020	121001	90.36	12.418265	-57.245910	90.40	-0.730	0.890	2.120	90.39	-0.50	2.60	1016.20	26.50	26.50	21.00	21.00	120.0	71.0	71.0	401.0	27.2	337.00	11.10	66.00	10.60	17171	10090.0	27.6	27.6	1581509401	0.46	0.85
12/02/2020 12:10:02	120220	12022020	121002	90.53	12.418265	-57.245908	90.58	-0.610	0.360	2.100	90.57	-1.20	2.50	 	 	 	 	 	 	 	 	 	 	 	 	 	 	 	 	 	 	1581509402	0.45	0.83
12/02/2020 12:10:03	120220	12022020	121003	90.73	12.418267	-57.245905	90.78	-0.270	-0.440	1.810	90.77	-2.00	2.10	 	 	 	 	 	 	 	 	 	 	 	 	 	 	 	 	 	 	1581509403	0.72	1.33
12/02/2020 12:10:04	120220	12022020	121004	90.92	12.418270	-57.245902	90.92	0.030	-0.960	1.380	90.95	-2.30	1.70	 	 	 	 	 	 	 	 	 	 	 	 	 	 	 	 	 	 	1581509404	1.02	1.89
12/02/2020 12:10:05	120220	12022020	121005	90.97	12.418272	-57.245900	90.92	0.190	-0.950	1.300	90.95	-2.20	1.80	 	 	 	 	 	 	 	 	 	 	 	 	 	 	 	 	 	 	1581509405	0.75	1.39
12/02/2020 12:10:06	120220	12022020	121006	90.69	12.418273	-57.245898	90.57	0.320	-0.720	1.760	90.60	-2.00	2.40	 	 	 	 	 	 	 	 	 	 	 	 	 	 	 	 	 	 	1581509406	0.13	0.24
12/02/2020 12:10:07	120220	12022020	121007	90.27	12.418272	-57.245898	90.21	0.530	-0.560	2.210	90.22	-1.80	2.70	 	 	 	 	 	 	 	 	 	 	 	 	 	 	 	 	 	 	1581509407	0.28	0.52
12/02/2020 12:10:08	120220	12022020	121008	90.23	12.418272	-57.245895	90.27	0.720	-0.420	1.990	90.27	-1.70	2.20	 	 	 	 	 	 	 	 	 	 	 	 	 	 	 	 	 	 	1581509408	0.54	1.00
12/02/2020 12:10:09	120220	12022020	121009	90.55	12.418277	-57.245893	90.63	0.620	-0.120	1.320	90.63	-1.30	1.60	 	 	 	 	 	 	 	 	 	 	 	 	 	 	 	 	 	 	1581509409	1.15	2.13
12/02/2020 12:10:10	120220	12022020	121010	90.92	12.418283	-57.245892	90.96	0.080	0.400	0.810	90.98	-0.70	1.20	 	 	 	 	 	 	 	 	 	 	 	 	 	 	 	 	 	 	1581509410	1.27	2.35
12/02/2020 12:10:11	120220	12022020	121011	91.13	12.418285	-57.245892	91.14	-0.630	0.870	0.890	91.14	-0.40	1.50	 	 	 	 	 	 	 	 	 	 	 	 	 	 	 	 	 	 	1581509411	0.68	1.26
12/02/2020 12:10:12	120220	12022020	121012	91.10	12.418285	-57.245892	91.08	-1.010	0.830	1.480	91.07	-0.70	2.10	 	 	 	 	 	 	 	 	 	 	 	 	 	 	 	 	 	 	1581509412	0.29	0.54
12/02/2020 12:10:13	120220	12022020	121013	90.88	12.418282	-57.245892	90.86	-0.810	0.170	2.100	90.84	-1.40	2.70	 	 	 	 	 	 	 	 	 	 	 	 	 	 	 	 	 	 	1581509413	0.80	1.48
12/02/2020 12:10:14	120220	12022020	121014	90.62	12.418278	-57.245888	90.61	-0.210	-0.760	2.510	90.57	-2.30	3.00	 	 	 	 	 	 	 	 	 	 	 	 	 	 	 	 	 	 	1581509414	1.02	1.89
12/02/2020 12:10:15	120220	12022020	121015	90.44	12.418277	-57.245883	90.46	0.360	-1.400	2.720	90.42	-2.80	3.20	 	 	 	 	 	 	 	 	 	 	 	 	 	 	 	 	 	 	1581509415	1.06	1.96
12/02/2020 12:10:16	120220	12022020	121016	90.41	12.418277	-57.245878	90.45	0.570	-1.360	2.820	90.42	-2.50	3.30	 	 	 	 	 	 	 	 	 	 	 	 	 	 	 	 	 	 	1581509416	0.80	1.48
12/02/2020 12:10:17	120220	12022020	121017	90.37	12.418277	-57.245878	90.36	0.460	-0.710	2.800	90.34	-1.80	3.20	 	 	 	 	 	 	 	 	 	 	 	 	 	 	 	 	 	 	1581509417	0.29	0.54
12/02/2020 12:10:18	120220	12022020	121018	90.12	12.418278	-57.245878	90.06	0.280	0.060	2.540	90.06	-1.10	2.80	 	 	 	 	 	 	 	 	 	 	 	 	 	 	 	 	 	 	1581509418	0.35	0.65
12/02/2020 12:10:19	120220	12022020	121019	89.84	12.418282	-57.245878	89.83	0.160	0.520	1.860	89.82	-0.80	2.00	 	 	 	 	 	 	 	 	 	 	 	 	 	 	 	 	 	 	1581509419	0.90	1.67
12/02/2020 12:10:20	120220	12022020	121020	89.90	12.418288	-57.245877	89.95	0.080	0.550	0.850	89.96	-0.80	1.00	 	 	 	 	 	 	 	 	 	 	 	 	 	 	 	 	 	 	1581509420	1.46	2.70
12/02/2020 12:10:21	120220	12022020	121021	90.25	12.418297	-57.245875	90.29	-0.010	0.300	-0.070	90.32	-1.10	0.20	 	 	 	 	 	 	 	 	 	 	 	 	 	 	 	 	 	 	1581509421	1.69	3.13
12/02/2020 12:10:22	120220	12022020	121022	90.49	12.418303	-57.245872	90.47	-0.170	-0.060	-0.530	90.51	-1.50	-0.10	 	 	 	 	 	 	 	 	 	 	 	 	 	 	 	 	 	 	1581509422	1.46	2.70
12/02/2020 12:10:23	120220	12022020	121023	90.45	12.418305	-57.245868	90.36	-0.410	-0.300	-0.390	90.41	-1.70	0.20	 	 	 	 	 	 	 	 	 	 	 	 	 	 	 	 	 	 	1581509423	0.89	1.65
12/02/2020 12:10:24	120220	12022020	121024	90.20	12.418305	-57.245867	90.10	-0.610	-0.360	0.330	90.14	-1.70	1.10	 	 	 	 	 	 	 	 	 	 	 	 	 	 	 	 	 	 	1581509424	0.42	0.78
12/02/2020 12:10:25	120220	12022020	121025	89.93	12.418300	-57.245865	89.88	-0.530	-0.330	1.420	89.89	-1.70	2.20	 	 	 	 	 	 	 	 	 	 	 	 	 	 	 	 	 	 	1581509425	1.09	2.02
12/02/2020 12:10:26	120220	12022020	121026	89.74	12.418293	-57.245865	89.72	-0.110	-0.400	2.490	89.71	-1.80	3.20	 	 	 	 	 	 	 	 	 	 	 	 	 	 	 	 	 	 	1581509426	1.44	2.67
12/02/2020 12:10:27	120220	12022020	121027	89.64	12.418288	-57.245862	89.68	0.420	-0.590	2.960	89.64	-2.00	3.40	 	 	 	 	 	 	 	 	 	 	 	 	 	 	 	 	 	 	1581509427	1.09	2.02
12/02/2020 12:10:28	120220	12022020	121028	89.67	12.418290	-57.245858	89.71	0.690	-0.730	2.790	89.68	-2.00	3.20	 	 	 	 	 	 	 	 	 	 	 	 	 	 	 	 	 	 	1581509428	0.73	1.35
12/02/2020 12:10:29	120220	12022020	121029	89.68	12.418293	-57.245855	89.72	0.540	-0.550	2.630	89.67	-1.70	3.10	 	 	 	 	 	 	 	 	 	 	 	 	 	 	 	 	 	 	1581509429	1.04	1.93
12/02/2020 12:10:30	120220	12022020	121030	89.67	12.418295	-57.245853	89.76	0.130	-0.000	2.540	89.69	-1.10	2.90	 	 	 	 	 	 	 	 	 	 	 	 	 	 	 	 	 	 	1581509430	0.55	1.02
12/02/2020 12:10:31	120220	12022020	121031	89.83	12.418297	-57.245853	89.93	-0.240	0.560	2.110	89.87	-0.70	2.40	 	 	 	 	 	 	 	 	 	 	 	 	 	 	 	 	 	 	1581509431	0.22	0.41
12/02/2020 12:10:32	120220	12022020	121032	90.01	12.418298	-57.245855	90.05	-0.290	0.600	1.420	90.03	-0.90	1.70	 	 	 	 	 	 	 	 	 	 	 	 	 	 	 	 	 	 	1581509432	0.61	1.13
12/02/2020 12:10:33	120220	12022020	121033	89.97	12.418303	-57.245852	89.93	-0.060	0.080	0.760	89.95	-1.40	1.00	 	 	 	 	 	 	 	 	 	 	 	 	 	 	 	 	 	 	1581509433	1.10	2.04
12/02/2020 12:10:34	120220	12022020	121034	89.83	12.418308	-57.245848	89.78	0.140	-0.430	0.310	89.81	-1.90	0.70	 	 	 	 	 	 	 	 	 	 	 	 	 	 	 	 	 	 	1581509434	1.46	2.70
12/02/2020 12:10:35	120220	12022020	121035	89.82	12.418313	-57.245845	89.82	0.080	-0.570	0.210	89.84	-1.90	0.70	 	 	 	 	 	 	 	 	 	 	 	 	 	 	 	 	 	 	1581509435	1.18	2.19
12/02/2020 12:10:36	120220	12022020	121036	89.95	12.418315	-57.245843	89.97	-0.280	-0.390	0.440	89.98	-1.60	1.00	 	 	 	 	 	 	 	 	 	 	 	 	 	 	 	 	 	 	1581509436	0.51	0.94
12/02/2020 12:10:37	120220	12022020	121037	90.06	12.418313	-57.245843	90.05	-0.690	-0.110	0.920	90.06	-1.40	1.50	 	 	 	 	 	 	 	 	 	 	 	 	 	 	 	 	 	 	1581509437	0.31	0.57
12/02/2020 12:10:38	120220	12022020	121038	90.02	12.418310	-57.245843	90.01	-0.760	0.030	1.520	90.01	-1.30	2.10	 	 	 	 	 	 	 	 	 	 	 	 	 	 	 	 	 	 	1581509438	0.77	1.43
12/02/2020 12:10:39	120220	12022020	121039	89.92	12.418307	-57.245842	89.90	-0.290	-0.180	2.080	89.90	-1.60	2.70	 	 	 	 	 	 	 	 	 	 	 	 	 	 	 	 	 	 	1581509439	0.83	1.54
12/02/2020 12:10:40	120220	12022020	121040	89.84	12.418303	-57.245838	89.83	0.480	-0.660	2.470	89.82	-2.20	3.00	 	 	 	 	 	 	 	 	 	 	 	 	 	 	 	 	 	 	1581509440	0.88	1.63
12/02/2020 12:10:41	120220	12022020	121041	89.76	12.418302	-57.245833	89.77	1.100	-1.060	2.540	89.76	-2.40	2.90	 	 	 	 	 	 	 	 	 	 	 	 	 	 	 	 	 	 	1581509441	1.10	2.04
12/02/2020 12:10:42	120220	12022020	121042	89.81	12.418305	-57.245828	89.87	1.160	-0.770	2.220	89.86	-1.80	2.50	 	 	 	 	 	 	 	 	 	 	 	 	 	 	 	 	 	 	1581509442	1.12	2.07
12/02/2020 12:10:43	120220	12022020	121043	90.13	12.418310	-57.245828	90.23	0.540	0.290	1.760	90.22	-0.70	2.10	 	 	 	 	 	 	 	 	 	 	 	 	 	 	 	 	 	 	1581509443	1.07	1.98
12/02/2020 12:10:44	120220	12022020	121044	90.57	12.418313	-57.245832	90.65	-0.380	1.230	1.470	90.64	0.00	1.90	 	 	 	 	 	 	 	 	 	 	 	 	 	 	 	 	 	 	1581509444	1.21	2.24
12/02/2020 12:10:45	120220	12022020	121045	90.83	12.418315	-57.245835	90.83	-1.030	1.270	1.430	90.84	-0.30	1.90	 	 	 	 	 	 	 	 	 	 	 	 	 	 	 	 	 	 	1581509445	0.71	1.31
12/02/2020 12:10:46	120220	12022020	121046	90.75	12.418315	-57.245833	90.69	-1.070	0.480	1.540	90.70	-1.20	2.00	 	 	 	 	 	 	 	 	 	 	 	 	 	 	 	 	 	 	1581509446	0.27	0.50
12/02/2020 12:10:47	120220	12022020	121047	90.47	12.418313	-57.245830	90.39	-0.610	-0.610	1.650	90.40	-2.30	2.20	 	 	 	 	 	 	 	 	 	 	 	 	 	 	 	 	 	 	1581509447	0.88	1.63
12/02/2020 12:10:48	120220	12022020	121048	90.16	12.418313	-57.245825	90.09	0.010	-1.440	1.880	90.12	-2.90	2.40	 	 	 	 	 	 	 	 	 	 	 	 	 	 	 	 	 	 	1581509448	1.02	1.89
12/02/2020 12:10:49	120220	12022020	121049	90.06	12.418313	-57.245820	90.06	0.450	-1.700	2.030	90.07	-2.90	2.50	 	 	 	 	 	 	 	 	 	 	 	 	 	 	 	 	 	 	1581509449	0.86	1.59
12/02/2020 12:10:50	120220	12022020	121050	90.23	12.418315	-57.245818	90.29	0.570	-1.280	1.890	90.29	-2.30	2.20	 	 	 	 	 	 	 	 	 	 	 	 	 	 	 	 	 	 	1581509450	0.56	1.04
12/02/2020 12:10:51	120220	12022020	121051	90.63	12.418317	-57.245818	90.72	0.410	-0.340	1.490	90.73	-1.30	1.80	 	 	 	 	 	 	 	 	 	 	 	 	 	 	 	 	 	 	1581509451	0.39	0.72
12/02/2020 12:10:52	120220	12022020	121052	91.12	12.418318	-57.245818	91.16	0.250	0.570	1.170	91.20	-0.60	1.60	 	 	 	 	 	 	 	 	 	 	 	 	 	 	 	 	 	 	1581509452	0.47	0.87
12/02/2020 12:10:53	120220	12022020	121053	91.38	12.418318	-57.245820	91.36	0.200	0.880	1.160	91.39	-0.50	1.70	 	 	 	 	 	 	 	 	 	 	 	 	 	 	 	 	 	 	1581509453	0.19	0.35
12/02/2020 12:10:54	120220	12022020	121054	91.30	12.418318	-57.245818	91.21	0.170	0.630	1.310	91.26	-0.80	1.80	 	 	 	 	 	 	 	 	 	 	 	 	 	 	 	 	 	 	1581509454	0.44	0.81
12/02/2020 12:10:55	120220	12022020	121055	91.03	12.418318	-57.245815	90.93	0.020	0.300	1.460	90.97	-1.10	2.00	 	 	 	 	 	 	 	 	 	 	 	 	 	 	 	 	 	 	1581509455	0.74	1.37
12/02/2020 12:10:56	120220	12022020	121056	90.79	12.418322	-57.245812	90.76	-0.270	0.090	1.620	90.78	-1.30	2.10	 	 	 	 	 	 	 	 	 	 	 	 	 	 	 	 	 	 	1581509456	0.72	1.33
12/02/2020 12:10:57	120220	12022020	121057	90.91	12.418323	-57.245812	90.98	-0.600	-0.110	1.670	90.98	-1.50	2.10	 	 	 	 	 	 	 	 	 	 	 	 	 	 	 	 	 	 	1581509457	0.57	1.06
12/02/2020 12:10:58	120220	12022020	121058	91.32	12.418325	-57.245810	91.43	-0.790	-0.430	1.670	91.41	-1.90	2.20	 	 	 	 	 	 	 	 	 	 	 	 	 	 	 	 	 	 	1581509458	0.34	0.63
12/02/2020 12:10:59	120220	12022020	121059	91.61	12.418325	-57.245810	91.62	-0.630	-0.860	1.940	91.62	-2.30	2.60	 	 	 	 	 	 	 	 	 	 	 	 	 	 	 	 	 	 	1581509459	0.33	0.61
12/02/2020 12:11:00	120220	12022020	121100	91.49	12.418320	-57.245807	91.45	-0.120	-1.240	2.590	91.43	-2.60	3.20	 	 	 	 	 	 	 	 	 	 	 	 	 	 	 	 	 	 	1581509460	1.08	2.00
12/02/2020 12:11:01	120220	12022020	121101	91.20	12.418313	-57.245803	91.17	0.480	-1.250	3.120	91.14	-2.40	3.60	 	 	 	 	 	 	 	 	 	 	 	 	 	 	 	 	 	 	1581509461	1.52	2.82
12/02/2020 12:11:02	120220	12022020	121102	90.96	12.418310	-57.245800	90.96	0.780	-0.580	3.100	90.93	-1.60	3.40	1016.30	26.40	26.40	20.80	20.90	125.0	71.0	71.0	403.0	27.1	336.00	11.80	66.00	11.50	17144	10928.0	27.6	27.6	1581509462	1.03	1.91
12/02/2020 12:11:03	120220	12022020	121103	90.87	12.418312	-57.245800	90.88	0.700	0.420	2.370	90.87	-0.70	2.50	 	 	 	 	 	 	 	 	 	 	 	 	 	 	 	 	 	 	1581509463	0.36	0.67
12/02/2020 12:11:04	120220	12022020	121104	90.95	12.418320	-57.245802	90.98	0.400	0.950	1.150	91.00	-0.40	1.20	 	 	 	 	 	 	 	 	 	 	 	 	 	 	 	 	 	 	1581509464	1.72	3.19
12/02/2020 12:11:05	120220	12022020	121105	91.28	12.418330	-57.245802	91.34	0.100	0.690	-0.210	91.36	-0.80	-0.10	 	 	 	 	 	 	 	 	 	 	 	 	 	 	 	 	 	 	1581509465	2.39	4.43
12/02/2020 12:11:06	120220	12022020	121106	91.73	12.418340	-57.245798	91.76	-0.160	0.080	-1.150	91.81	-1.40	-0.80	 	 	 	 	 	 	 	 	 	 	 	 	 	 	 	 	 	 	1581509466	2.25	4.17
12/02/2020 12:11:07	120220	12022020	121107	91.97	12.418345	-57.245795	91.92	-0.410	-0.290	-1.100	91.96	-1.70	-0.40	 	 	 	 	 	 	 	 	 	 	 	 	 	 	 	 	 	 	1581509467	1.26	2.33
12/02/2020 12:11:08	120220	12022020	121108	91.79	12.418342	-57.245793	91.68	-0.580	-0.290	-0.060	91.71	-1.60	0.80	 	 	 	 	 	 	 	 	 	 	 	 	 	 	 	 	 	 	1581509468	0.62	1.15
12/02/2020 12:11:09	120220	12022020	121109	91.37	12.418335	-57.245793	91.25	-0.610	-0.210	1.340	91.28	-1.50	2.20	 	 	 	 	 	 	 	 	 	 	 	 	 	 	 	 	 	 	1581509469	1.44	2.67
12/02/2020 12:11:10	120220	12022020	121110	90.92	12.418330	-57.245793	90.87	-0.480	-0.290	2.560	90.85	-1.70	3.30	 	 	 	 	 	 	 	 	 	 	 	 	 	 	 	 	 	 	1581509470	1.34	2.48
12/02/2020 12:11:11	120220	12022020	121111	90.64	12.418325	-57.245793	90.65	-0.220	-0.610	3.380	90.61	-2.10	4.00	 	 	 	 	 	 	 	 	 	 	 	 	 	 	 	 	 	 	1581509471	0.92	1.70
12/02/2020 12:11:12	120220	12022020	121112	90.64	12.418322	-57.245790	90.74	0.160	-0.960	3.780	90.68	-2.40	4.30	 	 	 	 	 	 	 	 	 	 	 	 	 	 	 	 	 	 	1581509472	0.89	1.65
12/02/2020 12:11:13	120220	12022020	121113	90.86	12.418320	-57.245787	90.98	0.620	-1.140	3.780	90.91	-2.50	4.10	 	 	 	 	 	 	 	 	 	 	 	 	 	 	 	 	 	 	1581509473	0.94	1.74
12/02/2020 12:11:14	120220	12022020	121114	91.06	12.418318	-57.245783	91.13	1.040	-0.960	3.240	91.09	-2.10	3.40	 	 	 	 	 	 	 	 	 	 	 	 	 	 	 	 	 	 	1581509474	0.78	1.44
12/02/2020 12:11:15	120220	12022020	121115	91.21	12.418323	-57.245780	91.26	1.090	-0.170	2.150	91.24	-1.10	2.20	 	 	 	 	 	 	 	 	 	 	 	 	 	 	 	 	 	 	1581509475	1.10	2.04
12/02/2020 12:11:16	120220	12022020	121116	91.29	12.418332	-57.245782	91.28	0.480	1.040	1.010	91.30	0.10	1.20	 	 	 	 	 	 	 	 	 	 	 	 	 	 	 	 	 	 	1581509476	1.89	3.50
12/02/2020 12:11:17	120220	12022020	121117	91.26	12.418342	-57.245785	91.20	-0.610	1.940	0.310	91.24	0.70	0.60	 	 	 	 	 	 	 	 	 	 	 	 	 	 	 	 	 	 	1581509477	2.07	3.83
12/02/2020 12:11:18	120220	12022020	121118	91.12	12.418347	-57.245788	91.03	-1.490	1.780	0.070	91.07	0.10	0.50	 	 	 	 	 	 	 	 	 	 	 	 	 	 	 	 	 	 	1581509478	1.41	2.61
12/02/2020 12:11:19	120220	12022020	121119	90.90	12.418348	-57.245790	90.84	-1.520	0.310	0.100	90.85	-1.60	0.60	 	 	 	 	 	 	 	 	 	 	 	 	 	 	 	 	 	 	1581509479	0.39	0.72
12/02/2020 12:11:20	120220	12022020	121120	90.71	12.418348	-57.245783	90.66	-0.690	-1.700	0.240	90.68	-3.50	0.80	 	 	 	 	 	 	 	 	 	 	 	 	 	 	 	 	 	 	1581509480	1.18	2.19
12/02/2020 12:11:21	120220	12022020	121121	90.54	12.418345	-57.245775	90.50	0.430	-2.970	0.630	90.51	-4.40	1.30	 	 	 	 	 	 	 	 	 	 	 	 	 	 	 	 	 	 	1581509481	1.75	3.24
12/02/2020 12:11:22	120220	12022020	121122	90.39	12.418343	-57.245770	90.38	1.120	-2.610	1.320	90.37	-3.50	2.00	 	 	 	 	 	 	 	 	 	 	 	 	 	 	 	 	 	 	1581509482	1.32	2.44
12/02/2020 12:11:23	120220	12022020	121123	90.31	12.418340	-57.245770	90.31	1.010	-0.890	2.070	90.30	-1.50	2.70	 	 	 	 	 	 	 	 	 	 	 	 	 	 	 	 	 	 	1581509483	0.69	1.28
12/02/2020 12:11:24	120220	12022020	121124	90.28	12.418337	-57.245775	90.30	0.420	1.000	2.530	90.29	0.10	3.00	 	 	 	 	 	 	 	 	 	 	 	 	 	 	 	 	 	 	1581509484	1.22	2.26
12/02/2020 12:11:25	120220	12022020	121125	90.40	12.418338	-57.245782	90.47	-0.100	1.890	2.400	90.45	0.50	2.70	 	 	 	 	 	 	 	 	 	 	 	 	 	 	 	 	 	 	1581509485	1.10	2.04
12/02/2020 12:11:26	120220	12022020	121126	90.64	12.418342	-57.245782	90.73	-0.280	1.480	1.940	90.68	-0.20	2.20	 	 	 	 	 	 	 	 	 	 	 	 	 	 	 	 	 	 	1581509486	0.68	1.26
12/02/2020 12:11:27	120220	12022020	121127	90.78	12.418345	-57.245777	90.80	-0.250	0.420	1.570	90.77	-1.20	1.90	 	 	 	 	 	 	 	 	 	 	 	 	 	 	 	 	 	 	1581509487	1.15	2.13
12/02/2020 12:11:28	120220	12022020	121128	90.67	12.418347	-57.245772	90.64	-0.210	-0.400	1.430	90.63	-1.90	1.90	 	 	 	 	 	 	 	 	 	 	 	 	 	 	 	 	 	 	1581509488	1.14	2.11
12/02/2020 12:11:29	120220	12022020	121129	90.39	12.418348	-57.245770	90.32	-0.180	-0.760	1.450	90.32	-2.10	1.90	 	 	 	 	 	 	 	 	 	 	 	 	 	 	 	 	 	 	1581509489	0.57	1.06
12/02/2020 12:11:30	120220	12022020	121130	90.00	12.418350	-57.245770	89.92	-0.090	-0.930	1.500	89.93	-2.30	1.90	 	 	 	 	 	 	 	 	 	 	 	 	 	 	 	 	 	 	1581509490	0.41	0.76
12/02/2020 12:11:31	120220	12022020	121131	89.75	12.418352	-57.245768	89.75	-0.010	-0.910	1.440	89.74	-2.20	1.90	 	 	 	 	 	 	 	 	 	 	 	 	 	 	 	 	 	 	1581509491	0.57	1.06
12/02/2020 12:11:32	120220	12022020	121132	89.85	12.418353	-57.245768	89.91	-0.060	-0.650	1.420	89.90	-1.90	1.90	 	 	 	 	 	 	 	 	 	 	 	 	 	 	 	 	 	 	1581509492	0.39	0.72
12/02/2020 12:11:33	120220	12022020	121133	90.14	12.418353	-57.245767	90.21	-0.140	-0.360	1.450	90.19	-1.60	1.90	 	 	 	 	 	 	 	 	 	 	 	 	 	 	 	 	 	 	1581509493	0.18	0.33
12/02/2020 12:11:34	120220	12022020	121134	90.30	12.418350	-57.245767	90.29	-0.010	-0.230	1.400	90.30	-1.60	1.80	 	 	 	 	 	 	 	 	 	 	 	 	 	 	 	 	 	 	1581509494	0.47	0.87
12/02/2020 12:11:35	120220	12022020	121135	90.21	12.418350	-57.245765	90.17	0.380	-0.240	1.230	90.18	-1.50	1.60	 	 	 	 	 	 	 	 	 	 	 	 	 	 	 	 	 	 	1581509495	0.48	0.89
12/02/2020 12:11:36	120220	12022020	121136	90.06	12.418353	-57.245762	90.02	0.710	-0.050	1.140	90.03	-1.20	1.60	 	 	 	 	 	 	 	 	 	 	 	 	 	 	 	 	 	 	1581509496	0.85	1.57
12/02/2020 12:11:37	120220	12022020	121137	89.98	12.418357	-57.245760	89.97	0.530	0.520	1.150	89.98	-0.60	1.60	 	 	 	 	 	 	 	 	 	 	 	 	 	 	 	 	 	 	1581509497	0.79	1.46
12/02/2020 12:11:38	120220	12022020	121138	90.07	12.418360	-57.245762	90.09	-0.160	1.040	1.080	90.10	-0.30	1.50	 	 	 	 	 	 	 	 	 	 	 	 	 	 	 	 	 	 	1581509498	0.71	1.31
12/02/2020 12:11:39	120220	12022020	121139	90.21	12.418362	-57.245763	90.21	-0.840	0.800	1.040	90.23	-0.80	1.50	 	 	 	 	 	 	 	 	 	 	 	 	 	 	 	 	 	 	1581509499	0.59	1.09
12/02/2020 12:11:40	120220	12022020	121140	90.26	12.418362	-57.245762	90.26	-0.950	-0.190	1.230	90.26	-1.90	1.80	 	 	 	 	 	 	 	 	 	 	 	 	 	 	 	 	 	 	1581509500	0.25	0.46
12/02/2020 12:11:41	120220	12022020	121141	90.20	12.418360	-57.245757	90.17	-0.420	-1.290	1.710	90.17	-2.80	2.40	 	 	 	 	 	 	 	 	 	 	 	 	 	 	 	 	 	 	1581509501	1.03	1.91
12/02/2020 12:11:42	120220	12022020	121142	90.01	12.418357	-57.245752	89.98	0.290	-1.770	2.380	89.96	-3.00	3.00	 	 	 	 	 	 	 	 	 	 	 	 	 	 	 	 	 	 	1581509502	1.30	2.41
12/02/2020 12:11:43	120220	12022020	121143	89.81	12.418353	-57.245748	89.82	0.690	-1.370	2.850	89.80	-2.40	3.30	 	 	 	 	 	 	 	 	 	 	 	 	 	 	 	 	 	 	1581509503	0.99	1.83
12/02/2020 12:11:44	120220	12022020	121144	89.76	12.418352	-57.245750	89.79	0.650	-0.460	2.820	89.76	-1.50	3.10	 	 	 	 	 	 	 	 	 	 	 	 	 	 	 	 	 	 	1581509504	0.32	0.59
12/02/2020 12:11:45	120220	12022020	121145	89.75	12.418353	-57.245750	89.75	0.430	0.300	2.360	89.74	-0.90	2.60	 	 	 	 	 	 	 	 	 	 	 	 	 	 	 	 	 	 	1581509505	0.50	0.93
12/02/2020 12:11:46	120220	12022020	121146	89.75	12.418358	-57.245750	89.79	0.230	0.720	1.680	89.78	-0.50	1.90	 	 	 	 	 	 	 	 	 	 	 	 	 	 	 	 	 	 	1581509506	1.08	2.00
12/02/2020 12:11:47	120220	12022020	121147	89.99	12.418365	-57.245748	90.08	-0.030	0.930	0.900	90.07	-0.40	1.10	 	 	 	 	 	 	 	 	 	 	 	 	 	 	 	 	 	 	1581509507	1.31	2.43
12/02/2020 12:11:48	120220	12022020	121148	90.41	12.418370	-57.245748	90.50	-0.370	0.870	0.290	90.49	-0.50	0.60	 	 	 	 	 	 	 	 	 	 	 	 	 	 	 	 	 	 	1581509508	1.07	1.98
12/02/2020 12:11:49	120220	12022020	121149	90.69	12.418372	-57.245747	90.69	-0.590	0.420	0.040	90.71	-1.10	0.50	 	 	 	 	 	 	 	 	 	 	 	 	 	 	 	 	 	 	1581509509	0.60	1.11
12/02/2020 12:11:50	120220	12022020	121150	90.67	12.418373	-57.245745	90.59	-0.470	-0.380	0.180	90.63	-2.00	0.80	 	 	 	 	 	 	 	 	 	 	 	 	 	 	 	 	 	 	1581509510	0.42	0.78
12/02/2020 12:11:51	120220	12022020	121151	90.40	12.418373	-57.245742	90.29	-0.040	-1.300	0.640	90.32	-2.90	1.30	 	 	 	 	 	 	 	 	 	 	 	 	 	 	 	 	 	 	1581509511	0.72	1.33
12/02/2020 12:11:52	120220	12022020	121152	90.07	12.418372	-57.245737	90.01	0.440	-1.900	1.300	90.02	-3.30	2.00	 	 	 	 	 	 	 	 	 	 	 	 	 	 	 	 	 	 	1581509512	1.05	1.94
12/02/2020 12:11:53	120220	12022020	121153	89.92	12.418370	-57.245732	89.94	0.650	-1.740	2.040	89.92	-2.80	2.70	 	 	 	 	 	 	 	 	 	 	 	 	 	 	 	 	 	 	1581509513	1.14	2.11
12/02/2020 12:11:54	120220	12022020	121154	90.00	12.418367	-57.245730	90.07	0.430	-0.670	2.550	90.04	-1.50	3.00	 	 	 	 	 	 	 	 	 	 	 	 	 	 	 	 	 	 	1581509514	0.81	1.50
12/02/2020 12:11:55	120220	12022020	121155	90.32	12.418365	-57.245732	90.45	-0.110	0.930	2.400	90.42	0.10	2.60	 	 	 	 	 	 	 	 	 	 	 	 	 	 	 	 	 	 	1581509515	0.49	0.91
12/02/2020 12:11:56	120220	12022020	121156	90.92	12.418368	-57.245737	91.09	-0.570	2.080	1.580	91.06	0.80	1.70	 	 	 	 	 	 	 	 	 	 	 	 	 	 	 	 	 	 	1581509516	1.15	2.13
12/02/2020 12:11:57	120220	12022020	121157	91.47	12.418372	-57.245740	91.53	-0.580	1.800	0.720	91.52	0.10	1.00	 	 	 	 	 	 	 	 	 	 	 	 	 	 	 	 	 	 	1581509517	1.23	2.28
12/02/2020 12:11:58	120220	12022020	121158	91.52	12.418377	-57.245738	91.46	-0.180	0.290	0.480	91.48	-1.60	1.00	 	 	 	 	 	 	 	 	 	 	 	 	 	 	 	 	 	 	1581509518	1.02	1.89
12/02/2020 12:11:59	120220	12022020	121159	91.23	12.418377	-57.245730	91.15	0.230	-1.280	0.740	91.15	-2.90	1.30	 	 	 	 	 	 	 	 	 	 	 	 	 	 	 	 	 	 	1581509519	1.56	2.89
12/02/2020 12:12:00	120220	12022020	121200	90.87	12.418378	-57.245725	90.81	0.370	-1.980	1.130	90.81	-3.30	1.70	 	 	 	 	 	 	 	 	 	 	 	 	 	 	 	 	 	 	1581509520	1.37	2.54
12/02/2020 12:12:01	120220	12022020	121201	90.69	12.418380	-57.245722	90.69	0.250	-1.730	1.370	90.68	-2.80	1.90	 	 	 	 	 	 	 	 	 	 	 	 	 	 	 	 	 	 	1581509521	0.64	1.19
12/02/2020 12:12:02	120220	12022020	121202	90.84	12.418382	-57.245722	90.93	0.080	-0.910	1.450	90.91	-1.90	1.90	1016.30	26.30	26.40	20.70	20.70	141.0	71.0	71.0	407.0	27.1	338.00	12.00	68.00	11.60	17659	10771.0	27.6	27.5	1581509522	0.26	0.48
12/02/2020 12:12:03	120220	12022020	121203	91.30	12.418382	-57.245723	91.43	0.040	0.060	1.520	91.41	-1.00	2.00	 	 	 	 	 	 	 	 	 	 	 	 	 	 	 	 	 	 	1581509523	0.27	0.50
12/02/2020 12:12:04	120220	12022020	121204	91.80	12.418380	-57.245723	91.90	0.090	0.760	1.660	91.86	-0.50	2.10	 	 	 	 	 	 	 	 	 	 	 	 	 	 	 	 	 	 	1581509524	0.34	0.63
12/02/2020 12:12:05	120220	12022020	121205	92.00	12.418378	-57.245723	92.04	0.140	0.840	1.850	92.00	-0.60	2.30	 	 	 	 	 	 	 	 	 	 	 	 	 	 	 	 	 	 	1581509525	0.20	0.37
12/02/2020 12:12:06	120220	12022020	121206	91.93	12.418380	-57.245722	91.95	0.090	0.400	1.980	91.91	-1.10	2.40	 	 	 	 	 	 	 	 	 	 	 	 	 	 	 	 	 	 	1581509526	0.57	1.06
12/02/2020 12:12:07	120220	12022020	121207	91.87	12.418380	-57.245717	91.91	-0.030	-0.140	1.950	91.87	-1.60	2.40	 	 	 	 	 	 	 	 	 	 	 	 	 	 	 	 	 	 	1581509527	0.94	1.74
12/02/2020 12:12:08	120220	12022020	121208	91.90	12.418383	-57.245713	91.95	-0.170	-0.380	1.820	91.92	-1.70	2.20	 	 	 	 	 	 	 	 	 	 	 	 	 	 	 	 	 	 	1581509528	0.93	1.72
12/02/2020 12:12:09	120220	12022020	121209	92.03	12.418385	-57.245712	92.09	-0.340	-0.230	1.700	92.06	-1.50	2.10	 	 	 	 	 	 	 	 	 	 	 	 	 	 	 	 	 	 	1581509529	0.63	1.17
12/02/2020 12:12:10	120220	12022020	121210	92.19	12.418387	-57.245712	92.24	-0.480	-0.010	1.690	92.21	-1.30	2.10	 	 	 	 	 	 	 	 	 	 	 	 	 	 	 	 	 	 	1581509530	0.34	0.63
12/02/2020 12:12:11	120220	12022020	121211	92.27	12.418387	-57.245713	92.30	-0.460	-0.100	1.720	92.28	-1.50	2.10	 	 	 	 	 	 	 	 	 	 	 	 	 	 	 	 	 	 	1581509531	0.15	0.28
12/02/2020 12:12:12	120220	12022020	121212	92.32	12.418387	-57.245712	92.31	-0.160	-0.570	1.610	92.33	-2.10	2.00	 	 	 	 	 	 	 	 	 	 	 	 	 	 	 	 	 	 	1581509532	0.28	0.52
12/02/2020 12:12:13	120220	12022020	121213	92.33	12.418388	-57.245708	92.30	0.370	-1.160	1.460	92.32	-2.60	1.90	 	 	 	 	 	 	 	 	 	 	 	 	 	 	 	 	 	 	1581509533	0.86	1.59
12/02/2020 12:12:14	120220	12022020	121214	92.24	12.418390	-57.245702	92.20	0.850	-1.290	1.390	92.22	-2.50	1.80	 	 	 	 	 	 	 	 	 	 	 	 	 	 	 	 	 	 	1581509534	1.17	2.17
12/02/2020 12:12:15	120220	12022020	121215	92.15	12.418393	-57.245698	92.11	0.960	-0.670	1.330	92.14	-1.60	1.80	 	 	 	 	 	 	 	 	 	 	 	 	 	 	 	 	 	 	1581509535	0.99	1.83
12/02/2020 12:12:16	120220	12022020	121216	92.18	12.418397	-57.245698	92.17	0.520	0.370	1.330	92.20	-0.60	1.80	 	 	 	 	 	 	 	 	 	 	 	 	 	 	 	 	 	 	1581509536	0.81	1.50
12/02/2020 12:12:17	120220	12022020	121217	92.38	12.418398	-57.245700	92.42	-0.230	1.160	1.410	92.43	-0.00	1.90	 	 	 	 	 	 	 	 	 	 	 	 	 	 	 	 	 	 	1581509537	0.71	1.31
12/02/2020 12:12:18	120220	12022020	121218	92.65	12.418400	-57.245702	92.69	-0.790	1.270	1.440	92.69	-0.20	1.90	 	 	 	 	 	 	 	 	 	 	 	 	 	 	 	 	 	 	1581509538	0.29	0.54
12/02/2020 12:12:19	120220	12022020	121219	92.82	12.418400	-57.245700	92.85	-0.830	0.650	1.530	92.84	-1.00	2.00	 	 	 	 	 	 	 	 	 	 	 	 	 	 	 	 	 	 	1581509539	0.25	0.46
12/02/2020 12:12:20	120220	12022020	121220	92.86	12.418398	-57.245697	92.87	-0.450	-0.360	1.780	92.85	-2.00	2.30	 	 	 	 	 	 	 	 	 	 	 	 	 	 	 	 	 	 	1581509540	0.82	1.52
12/02/2020 12:12:21	120220	12022020	121221	92.73	12.418397	-57.245692	92.69	-0.030	-1.220	2.210	92.68	-2.70	2.80	 	 	 	 	 	 	 	 	 	 	 	 	 	 	 	 	 	 	1581509541	1.12	2.07
12/02/2020 12:12:22	120220	12022020	121222	92.36	12.418395	-57.245687	92.27	0.160	-1.430	2.620	92.26	-2.60	3.20	 	 	 	 	 	 	 	 	 	 	 	 	 	 	 	 	 	 	1581509542	0.93	1.72
12/02/2020 12:12:23	120220	12022020	121223	91.93	12.418395	-57.245685	91.88	0.190	-1.010	2.760	91.87	-2.10	3.20	 	 	 	 	 	 	 	 	 	 	 	 	 	 	 	 	 	 	1581509543	0.35	0.65
12/02/2020 12:12:24	120220	12022020	121224	91.77	12.418398	-57.245685	91.80	0.300	-0.410	2.450	91.78	-1.60	2.70	 	 	 	 	 	 	 	 	 	 	 	 	 	 	 	 	 	 	1581509544	0.49	0.91
12/02/2020 12:12:25	120220	12022020	121225	91.95	12.418402	-57.245685	92.03	0.520	-0.000	1.760	92.02	-1.20	1.90	 	 	 	 	 	 	 	 	 	 	 	 	 	 	 	 	 	 	1581509545	1.03	1.91
12/02/2020 12:12:26	120220	12022020	121226	92.41	12.418408	-57.245682	92.52	0.600	0.180	0.770	92.52	-1.10	0.90	 	 	 	 	 	 	 	 	 	 	 	 	 	 	 	 	 	 	1581509546	1.48	2.74
12/02/2020 12:12:27	120220	12022020	121227	92.84	12.418415	-57.245680	92.84	0.290	0.310	0.070	92.87	-0.90	0.50	 	 	 	 	 	 	 	 	 	 	 	 	 	 	 	 	 	 	1581509547	1.59	2.94
12/02/2020 12:12:28	120220	12022020	121228	92.79	12.418420	-57.245677	92.68	-0.360	0.480	0.140	92.73	-0.80	0.80	 	 	 	 	 	 	 	 	 	 	 	 	 	 	 	 	 	 	1581509548	0.97	1.80
12/02/2020 12:12:29	120220	12022020	121229	92.43	12.418418	-57.245677	92.33	-0.990	0.670	0.730	92.37	-0.60	1.40	 	 	 	 	 	 	 	 	 	 	 	 	 	 	 	 	 	 	1581509549	0.12	0.22
12/02/2020 12:12:30	120220	12022020	121230	92.12	12.418417	-57.245678	92.04	-1.180	0.620	1.380	92.07	-0.80	2.00	 	 	 	 	 	 	 	 	 	 	 	 	 	 	 	 	 	 	1581509550	0.73	1.35
12/02/2020 12:12:31	120220	12022020	121231	91.86	12.418413	-57.245678	91.82	-0.680	-0.130	1.930	91.81	-1.80	2.50	 	 	 	 	 	 	 	 	 	 	 	 	 	 	 	 	 	 	1581509551	0.70	1.30
12/02/2020 12:12:32	120220	12022020	121232	91.56	12.418412	-57.245673	91.51	0.280	-1.510	2.250	91.49	-3.20	2.70	 	 	 	 	 	 	 	 	 	 	 	 	 	 	 	 	 	 	1581509552	0.88	1.63
12/02/2020 12:12:33	120220	12022020	121233	91.30	12.418413	-57.245667	91.30	1.090	-2.450	2.310	91.28	-3.70	2.80	 	 	 	 	 	 	 	 	 	 	 	 	 	 	 	 	 	 	1581509553	1.75	3.24
12/02/2020 12:12:34	120220	12022020	121234	91.34	12.418415	-57.245660	91.42	1.110	-1.770	2.320	91.39	-2.50	2.80	 	 	 	 	 	 	 	 	 	 	 	 	 	 	 	 	 	 	1581509554	1.53	2.83
12/02/2020 12:12:35	120220	12022020	121235	91.73	12.418418	-57.245660	91.89	0.420	0.170	2.250	91.84	-0.50	2.60	 	 	 	 	 	 	 	 	 	 	 	 	 	 	 	 	 	 	1581509555	0.53	0.98
12/02/2020 12:12:36	120220	12022020	121236	92.29	12.418420	-57.245667	92.44	-0.300	1.890	1.920	92.39	0.80	2.20	 	 	 	 	 	 	 	 	 	 	 	 	 	 	 	 	 	 	1581509556	1.50	2.78
12/02/2020 12:12:37	120220	12022020	121237	92.65	12.418422	-57.245672	92.70	-0.540	2.130	1.450	92.68	0.50	1.80	 	 	 	 	 	 	 	 	 	 	 	 	 	 	 	 	 	 	1581509557	1.23	2.28
12/02/2020 12:12:38	120220	12022020	121238	92.58	12.418425	-57.245672	92.52	-0.300	0.840	1.240	92.52	-1.00	1.70	 	 	 	 	 	 	 	 	 	 	 	 	 	 	 	 	 	 	1581509558	0.77	1.43
12/02/2020 12:12:39	120220	12022020	121239	92.22	12.418427	-57.245663	92.15	-0.040	-0.840	1.360	92.14	-2.60	1.90	 	 	 	 	 	 	 	 	 	 	 	 	 	 	 	 	 	 	1581509559	1.58	2.93
12/02/2020 12:12:40	120220	12022020	121240	91.85	12.418427	-57.245657	91.80	0.000	-1.700	1.640	91.79	-3.00	2.20	 	 	 	 	 	 	 	 	 	 	 	 	 	 	 	 	 	 	1581509560	1.54	2.85
12/02/2020 12:12:41	120220	12022020	121241	91.62	12.418425	-57.245653	91.63	-0.050	-1.500	1.810	91.60	-2.60	2.30	 	 	 	 	 	 	 	 	 	 	 	 	 	 	 	 	 	 	1581509561	0.63	1.17
12/02/2020 12:12:42	120220	12022020	121242	91.60	12.418425	-57.245655	91.63	0.010	-0.860	1.670	91.62	-2.00	2.00	 	 	 	 	 	 	 	 	 	 	 	 	 	 	 	 	 	 	1581509562	0.22	0.41
12/02/2020 12:12:43	120220	12022020	121243	91.73	12.418428	-57.245655	91.77	0.090	-0.140	1.200	91.77	-1.20	1.50	 	 	 	 	 	 	 	 	 	 	 	 	 	 	 	 	 	 	1581509563	0.73	1.35
12/02/2020 12:12:44	120220	12022020	121244	91.97	12.418433	-57.245657	92.01	-0.070	0.590	0.690	92.03	-0.50	1.00	 	 	 	 	 	 	 	 	 	 	 	 	 	 	 	 	 	 	1581509564	1.09	2.02
12/02/2020 12:12:45	120220	12022020	121245	92.30	12.418437	-57.245658	92.37	-0.390	1.070	0.410	92.37	-0.30	0.80	 	 	 	 	 	 	 	 	 	 	 	 	 	 	 	 	 	 	1581509565	0.85	1.57
12/02/2020 12:12:46	120220	12022020	121246	92.62	12.418438	-57.245658	92.64	-0.520	0.770	0.390	92.65	-0.90	0.90	 	 	 	 	 	 	 	 	 	 	 	 	 	 	 	 	 	 	1581509566	0.30	0.56
12/02/2020 12:12:47	120220	12022020	121247	92.65	12.418437	-57.245657	92.60	-0.170	-0.380	0.770	92.62	-2.10	1.40	 	 	 	 	 	 	 	 	 	 	 	 	 	 	 	 	 	 	1581509567	0.56	1.04
12/02/2020 12:12:48	120220	12022020	121248	92.41	12.418435	-57.245650	92.34	0.520	-1.470	1.420	92.35	-3.00	2.10	 	 	 	 	 	 	 	 	 	 	 	 	 	 	 	 	 	 	1581509568	1.40	2.59
12/02/2020 12:12:49	120220	12022020	121249	92.14	12.418432	-57.245645	92.11	1.030	-1.610	1.960	92.10	-2.80	2.50	 	 	 	 	 	 	 	 	 	 	 	 	 	 	 	 	 	 	1581509569	1.29	2.39
12/02/2020 12:12:50	120220	12022020	121250	92.03	12.418433	-57.245643	92.05	0.940	-0.800	2.200	92.03	-1.80	2.70	 	 	 	 	 	 	 	 	 	 	 	 	 	 	 	 	 	 	1581509570	0.35	0.65
12/02/2020 12:12:51	120220	12022020	121251	92.01	12.418435	-57.245645	92.02	0.320	0.210	2.340	92.01	-0.90	2.80	 	 	 	 	 	 	 	 	 	 	 	 	 	 	 	 	 	 	1581509571	0.50	0.93
12/02/2020 12:12:52	120220	12022020	121252	92.02	12.418435	-57.245647	92.05	-0.370	0.800	2.370	92.03	-0.50	2.80	 	 	 	 	 	 	 	 	 	 	 	 	 	 	 	 	 	 	1581509572	0.46	0.85
12/02/2020 12:12:53	120220	12022020	121253	92.12	12.418437	-57.245647	92.18	-0.810	0.840	2.190	92.15	-0.60	2.50	 	 	 	 	 	 	 	 	 	 	 	 	 	 	 	 	 	 	1581509573	0.19	0.35
12/02/2020 12:12:54	120220	12022020	121254	92.38	12.418437	-57.245645	92.48	-0.970	0.600	1.780	92.45	-0.80	2.10	 	 	 	 	 	 	 	 	 	 	 	 	 	 	 	 	 	 	1581509574	0.50	0.93
12/02/2020 12:12:55	120220	12022020	121255	92.75	12.418438	-57.245643	92.84	-0.940	0.350	1.300	92.81	-1.10	1.60	 	 	 	 	 	 	 	 	 	 	 	 	 	 	 	 	 	 	1581509575	0.38	0.70
12/02/2020 12:12:56	120220	12022020	121256	92.90	12.418438	-57.245643	92.87	-0.630	-0.050	1.030	92.87	-1.60	1.50	 	 	 	 	 	 	 	 	 	 	 	 	 	 	 	 	 	 	1581509576	0.09	0.17
12/02/2020 12:12:57	120220	12022020	121257	92.54	12.418437	-57.245642	92.41	0.020	-0.740	1.140	92.42	-2.30	1.70	 	 	 	 	 	 	 	 	 	 	 	 	 	 	 	 	 	 	1581509577	0.25	0.46
12/02/2020 12:12:58	120220	12022020	121258	91.88	12.418438	-57.245638	91.76	0.840	-1.560	1.340	91.76	-3.10	1.80	 	 	 	 	 	 	 	 	 	 	 	 	 	 	 	 	 	 	1581509578	0.76	1.41
12/02/2020 12:12:59	120220	12022020	121259	91.47	12.418440	-57.245633	91.46	1.390	-1.860	1.180	91.46	-3.10	1.50	 	 	 	 	 	 	 	 	 	 	 	 	 	 	 	 	 	 	1581509579	1.31	2.43
12/02/2020 12:13:00	120220	12022020	121300	91.64	12.418447	-57.245628	91.73	1.280	-1.140	0.700	91.73	-2.10	1.00	 	 	 	 	 	 	 	 	 	 	 	 	 	 	 	 	 	 	1581509580	1.48	2.74
12/02/2020 12:13:01	120220	12022020	121301	92.18	12.418452	-57.245628	92.30	0.540	0.220	0.490	92.29	-0.70	1.00	 	 	 	 	 	 	 	 	 	 	 	 	 	 	 	 	 	 	1581509581	1.25	2.31
12/02/2020 12:13:02	120220	12022020	121302	92.64	12.418453	-57.245632	92.72	-0.370	1.250	0.890	92.71	0.10	1.50	1016.30	26.30	26.40	20.80	20.80	171.0	71.0	71.0	408.0	27.1	337.00	11.60	68.00	11.30	18823	10171.0	27.6	27.6	1581509582	0.79	1.46
12/02/2020 12:13:03	120220	12022020	121303	92.80	12.418450	-57.245633	92.80	-0.940	1.420	1.650	92.79	-0.00	2.30	 	 	 	 	 	 	 	 	 	 	 	 	 	 	 	 	 	 	1581509583	0.84	1.56
12/02/2020 12:13:04	120220	12022020	121304	92.52	12.418443	-57.245632	92.44	-0.920	0.830	2.480	92.42	-0.80	3.20	 	 	 	 	 	 	 	 	 	 	 	 	 	 	 	 	 	 	1581509584	1.46	2.70
12/02/2020 12:13:05	120220	12022020	121305	91.98	12.418438	-57.245628	91.93	-0.440	-0.090	3.100	91.88	-1.70	3.70	 	 	 	 	 	 	 	 	 	 	 	 	 	 	 	 	 	 	1581509585	1.58	2.93
12/02/2020 12:13:06	120220	12022020	121306	91.65	12.418435	-57.245623	91.70	0.060	-0.730	3.300	91.64	-2.20	3.70	 	 	 	 	 	 	 	 	 	 	 	 	 	 	 	 	 	 	1581509586	1.13	2.09
12/02/2020 12:13:07	120220	12022020	121307	91.80	12.418437	-57.245622	91.92	0.250	-0.860	3.000	91.87	-2.20	3.30	 	 	 	 	 	 	 	 	 	 	 	 	 	 	 	 	 	 	1581509587	0.62	1.15
12/02/2020 12:13:08	120220	12022020	121308	92.20	12.418440	-57.245620	92.31	0.150	-0.750	2.300	92.27	-2.00	2.50	 	 	 	 	 	 	 	 	 	 	 	 	 	 	 	 	 	 	1581509588	0.78	1.44
12/02/2020 12:13:09	120220	12022020	121309	92.48	12.418445	-57.245620	92.51	0.040	-0.640	1.480	92.50	-1.90	1.70	 	 	 	 	 	 	 	 	 	 	 	 	 	 	 	 	 	 	1581509589	1.08	2.00
12/02/2020 12:13:10	120220	12022020	121310	92.41	12.418450	-57.245620	92.33	0.070	-0.510	0.960	92.36	-1.80	1.40	 	 	 	 	 	 	 	 	 	 	 	 	 	 	 	 	 	 	1581509590	1.10	2.04
12/02/2020 12:13:11	120220	12022020	121311	92.09	12.418453	-57.245618	91.98	0.210	-0.310	0.940	92.02	-1.60	1.40	 	 	 	 	 	 	 	 	 	 	 	 	 	 	 	 	 	 	1581509591	0.73	1.35
12/02/2020 12:13:12	120220	12022020	121312	91.77	12.418453	-57.245617	91.71	0.380	-0.170	1.080	91.73	-1.50	1.60	 	 	 	 	 	 	 	 	 	 	 	 	 	 	 	 	 	 	1581509592	0.40	0.74
12/02/2020 12:13:13	120220	12022020	121313	91.62	12.418455	-57.245613	91.60	0.430	-0.190	1.070	91.61	-1.50	1.50	 	 	 	 	 	 	 	 	 	 	 	 	 	 	 	 	 	 	1581509593	0.57	1.06
12/02/2020 12:13:14	120220	12022020	121314	91.64	12.418457	-57.245610	91.68	0.210	-0.120	0.940	91.68	-1.40	1.40	 	 	 	 	 	 	 	 	 	 	 	 	 	 	 	 	 	 	1581509594	0.83	1.54
12/02/2020 12:13:15	120220	12022020	121315	91.82	12.418457	-57.245608	91.86	-0.210	0.260	1.040	91.86	-0.90	1.60	 	 	 	 	 	 	 	 	 	 	 	 	 	 	 	 	 	 	1581509595	0.54	1.00
12/02/2020 12:13:16	120220	12022020	121316	91.96	12.418457	-57.245608	92.00	-0.550	0.710	1.480	91.98	-0.60	2.10	 	 	 	 	 	 	 	 	 	 	 	 	 	 	 	 	 	 	1581509596	0.23	0.43
12/02/2020 12:13:17	120220	12022020	121317	91.98	12.418453	-57.245608	92.02	-0.530	0.750	1.920	91.97	-0.70	2.40	 	 	 	 	 	 	 	 	 	 	 	 	 	 	 	 	 	 	1581509597	0.54	1.00
12/02/2020 12:13:18	120220	12022020	121318	91.93	12.418453	-57.245608	91.96	-0.220	0.220	2.020	91.92	-1.40	2.40	 	 	 	 	 	 	 	 	 	 	 	 	 	 	 	 	 	 	1581509598	0.18	0.33
12/02/2020 12:13:19	120220	12022020	121319	91.87	12.418455	-57.245605	91.92	0.130	-0.630	1.990	91.86	-2.30	2.40	 	 	 	 	 	 	 	 	 	 	 	 	 	 	 	 	 	 	1581509599	0.72	1.33
12/02/2020 12:13:20	120220	12022020	121320	91.88	12.418457	-57.245602	91.95	0.360	-1.390	2.120	91.89	-2.90	2.70	 	 	 	 	 	 	 	 	 	 	 	 	 	 	 	 	 	 	1581509600	1.02	1.89
12/02/2020 12:13:21	120220	12022020	121321	91.89	12.418457	-57.245597	91.92	0.470	-1.650	2.460	91.87	-2.90	3.00	 	 	 	 	 	 	 	 	 	 	 	 	 	 	 	 	 	 	1581509601	0.91	1.69
12/02/2020 12:13:22	120220	12022020	121322	91.75	12.418457	-57.245593	91.76	0.500	-1.330	2.700	91.72	-2.50	3.20	 	 	 	 	 	 	 	 	 	 	 	 	 	 	 	 	 	 	1581509602	0.70	1.30
12/02/2020 12:13:23	120220	12022020	121323	91.62	12.418455	-57.245592	91.63	0.350	-0.470	2.650	91.60	-1.50	3.00	 	 	 	 	 	 	 	 	 	 	 	 	 	 	 	 	 	 	1581509603	0.39	0.72
12/02/2020 12:13:24	120220	12022020	121324	91.54	12.418457	-57.245592	91.58	-0.060	0.760	2.400	91.54	-0.20	2.70	 	 	 	 	 	 	 	 	 	 	 	 	 	 	 	 	 	 	1581509604	0.09	0.17
12/02/2020 12:13:25	120220	12022020	121325	91.51	12.418457	-57.245595	91.53	-0.600	1.820	1.940	91.51	0.60	2.20	 	 	 	 	 	 	 	 	 	 	 	 	 	 	 	 	 	 	1581509605	0.63	1.17
12/02/2020 12:13:26	120220	12022020	121326	91.52	12.418460	-57.245598	91.55	-0.900	1.900	1.140	91.53	0.30	1.30	 	 	 	 	 	 	 	 	 	 	 	 	 	 	 	 	 	 	1581509606	0.92	1.70
12/02/2020 12:13:27	120220	12022020	121327	91.62	12.418467	-57.245597	91.66	-0.670	0.630	0.030	91.65	-1.30	0.20	 	 	 	 	 	 	 	 	 	 	 	 	 	 	 	 	 	 	1581509607	1.41	2.61
12/02/2020 12:13:28	120220	12022020	121328	91.77	12.418475	-57.245590	91.78	-0.080	-1.240	-0.800	91.80	-3.10	-0.40	 	 	 	 	 	 	 	 	 	 	 	 	 	 	 	 	 	 	1581509608	2.30	4.26
12/02/2020 12:13:29	120220	12022020	121329	91.86	12.418482	-57.245582	91.83	0.410	-2.430	-0.760	91.86	-3.80	-0.10	 	 	 	 	 	 	 	 	 	 	 	 	 	 	 	 	 	 	1581509609	2.20	4.07
12/02/2020 12:13:30	120220	12022020	121330	91.83	12.418480	-57.245577	91.80	0.510	-2.180	0.030	91.82	-3.20	0.80	 	 	 	 	 	 	 	 	 	 	 	 	 	 	 	 	 	 	1581509610	1.11	2.06
12/02/2020 12:13:31	120220	12022020	121331	91.77	12.418477	-57.245577	91.75	0.370	-0.870	1.010	91.75	-1.80	1.70	 	 	 	 	 	 	 	 	 	 	 	 	 	 	 	 	 	 	1581509611	1.00	1.85
12/02/2020 12:13:32	120220	12022020	121332	91.64	12.418472	-57.245582	91.61	0.300	0.380	1.900	91.60	-0.70	2.60	 	 	 	 	 	 	 	 	 	 	 	 	 	 	 	 	 	 	1581509612	1.29	2.39
12/02/2020 12:13:33	120220	12022020	121333	91.36	12.418468	-57.245583	91.32	0.330	0.940	2.710	91.30	-0.40	3.30	 	 	 	 	 	 	 	 	 	 	 	 	 	 	 	 	 	 	1581509613	0.83	1.54
12/02/2020 12:13:34	120220	12022020	121334	91.10	12.418467	-57.245582	91.12	0.250	0.870	3.130	91.09	-0.60	3.60	 	 	 	 	 	 	 	 	 	 	 	 	 	 	 	 	 	 	1581509614	0.53	0.98
12/02/2020 12:13:35	120220	12022020	121335	91.19	12.418467	-57.245578	91.29	-0.060	0.520	2.890	91.26	-0.90	3.10	 	 	 	 	 	 	 	 	 	 	 	 	 	 	 	 	 	 	1581509615	0.76	1.41
12/02/2020 12:13:36	120220	12022020	121336	91.64	12.418472	-57.245575	91.77	-0.560	0.200	2.120	91.76	-1.20	2.30	 	 	 	 	 	 	 	 	 	 	 	 	 	 	 	 	 	 	1581509616	1.11	2.06
12/02/2020 12:13:37	120220	12022020	121337	92.13	12.418477	-57.245573	92.20	-0.930	-0.070	1.380	92.20	-1.50	1.70	 	 	 	 	 	 	 	 	 	 	 	 	 	 	 	 	 	 	1581509617	1.07	1.98
12/02/2020 12:13:38	120220	12022020	121338	92.28	12.418478	-57.245572	92.24	-0.810	-0.490	1.150	92.26	-2.00	1.60	 	 	 	 	 	 	 	 	 	 	 	 	 	 	 	 	 	 	1581509618	0.52	0.96
12/02/2020 12:13:39	120220	12022020	121339	92.06	12.418478	-57.245570	91.97	-0.250	-0.900	1.320	91.99	-2.30	1.80	 	 	 	 	 	 	 	 	 	 	 	 	 	 	 	 	 	 	1581509619	0.50	0.93
12/02/2020 12:13:40	120220	12022020	121340	91.77	12.418477	-57.245568	91.71	0.320	-1.000	1.440	91.73	-2.30	1.90	 	 	 	 	 	 	 	 	 	 	 	 	 	 	 	 	 	 	1581509620	0.62	1.15
12/02/2020 12:13:41	120220	12022020	121341	91.65	12.418477	-57.245565	91.64	0.590	-0.830	1.250	91.65	-2.10	1.60	 	 	 	 	 	 	 	 	 	 	 	 	 	 	 	 	 	 	1581509621	0.44	0.81
12/02/2020 12:13:42	120220	12022020	121342	91.71	12.418480	-57.245565	91.72	0.640	-0.580	0.870	91.73	-1.80	1.20	 	 	 	 	 	 	 	 	 	 	 	 	 	 	 	 	 	 	1581509622	0.73	1.35
12/02/2020 12:13:43	120220	12022020	121343	91.82	12.418485	-57.245562	91.82	0.590	-0.280	0.680	91.84	-1.50	1.10	 	 	 	 	 	 	 	 	 	 	 	 	 	 	 	 	 	 	1581509623	0.90	1.67
12/02/2020 12:13:44	120220	12022020	121344	91.85	12.418487	-57.245560	91.83	0.450	0.140	0.770	91.85	-1.00	1.30	 	 	 	 	 	 	 	 	 	 	 	 	 	 	 	 	 	 	1581509624	0.81	1.50
12/02/2020 12:13:45	120220	12022020	121345	91.82	12.418490	-57.245558	91.83	0.070	0.660	0.940	91.83	-0.50	1.40	 	 	 	 	 	 	 	 	 	 	 	 	 	 	 	 	 	 	1581509625	0.61	1.13
12/02/2020 12:13:46	120220	12022020	121346	91.94	12.418492	-57.245558	91.99	-0.530	0.980	1.110	91.98	-0.40	1.70	 	 	 	 	 	 	 	 	 	 	 	 	 	 	 	 	 	 	1581509626	0.38	0.70
12/02/2020 12:13:47	120220	12022020	121347	92.12	12.418492	-57.245558	92.16	-0.970	0.620	1.520	92.14	-1.00	2.20	 	 	 	 	 	 	 	 	 	 	 	 	 	 	 	 	 	 	1581509627	0.14	0.26
12/02/2020 12:13:48	120220	12022020	121348	92.17	12.418487	-57.245557	92.20	-0.830	-0.360	2.190	92.16	-2.00	2.80	 	 	 	 	 	 	 	 	 	 	 	 	 	 	 	 	 	 	1581509628	1.06	1.96
12/02/2020 12:13:49	120220	12022020	121349	92.11	12.418482	-57.245552	92.12	-0.170	-1.060	2.710	92.08	-2.40	3.30	 	 	 	 	 	 	 	 	 	 	 	 	 	 	 	 	 	 	1581509629	1.55	2.87
12/02/2020 12:13:50	120220	12022020	121350	91.96	12.418478	-57.245548	91.95	0.370	-0.870	2.940	91.93	-2.00	3.40	 	 	 	 	 	 	 	 	 	 	 	 	 	 	 	 	 	 	1581509630	0.87	1.61
12/02/2020 12:13:51	120220	12022020	121351	91.80	12.418480	-57.245548	91.79	0.400	-0.250	2.830	91.77	-1.50	3.20	 	 	 	 	 	 	 	 	 	 	 	 	 	 	 	 	 	 	1581509631	0.18	0.33
12/02/2020 12:13:52	120220	12022020	121352	91.70	12.418482	-57.245550	91.70	0.140	-0.130	2.370	91.69	-1.60	2.60	 	 	 	 	 	 	 	 	 	 	 	 	 	 	 	 	 	 	1581509632	0.69	1.28
12/02/2020 12:13:53	120220	12022020	121353	91.74	12.418487	-57.245548	91.76	0.080	-0.680	1.680	91.76	-2.20	1.90	 	 	 	 	 	 	 	 	 	 	 	 	 	 	 	 	 	 	1581509633	1.09	2.02
12/02/2020 12:13:54	120220	12022020	121354	91.81	12.418492	-57.245542	91.79	0.280	-1.030	1.100	91.80	-2.30	1.40	 	 	 	 	 	 	 	 	 	 	 	 	 	 	 	 	 	 	1581509634	1.58	2.93
12/02/2020 12:13:55	120220	12022020	121355	91.68	12.418495	-57.245538	91.60	0.440	-0.600	0.790	91.63	-1.70	1.20	 	 	 	 	 	 	 	 	 	 	 	 	 	 	 	 	 	 	1581509635	1.18	2.19
12/02/2020 12:13:56	120220	12022020	121356	91.49	12.418497	-57.245537	91.44	0.300	0.350	0.530	91.47	-0.70	0.90	 	 	 	 	 	 	 	 	 	 	 	 	 	 	 	 	 	 	1581509636	0.51	0.94
12/02/2020 12:13:57	120220	12022020	121357	91.43	12.418500	-57.245538	91.40	-0.090	1.050	0.410	91.43	-0.20	0.90	 	 	 	 	 	 	 	 	 	 	 	 	 	 	 	 	 	 	1581509637	0.59	1.09
12/02/2020 12:13:58	120220	12022020	121358	91.42	12.418502	-57.245540	91.42	-0.480	1.040	0.510	91.43	-0.40	1.00	 	 	 	 	 	 	 	 	 	 	 	 	 	 	 	 	 	 	1581509638	0.40	0.74
12/02/2020 12:13:59	120220	12022020	121359	91.49	12.418502	-57.245538	91.51	-0.710	0.510	0.720	91.52	-1.10	1.30	 	 	 	 	 	 	 	 	 	 	 	 	 	 	 	 	 	 	1581509639	0.44	0.81
12/02/2020 12:14:00	120220	12022020	121400	91.57	12.418503	-57.245535	91.57	-0.690	-0.200	1.030	91.57	-1.80	1.60	 	 	 	 	 	 	 	 	 	 	 	 	 	 	 	 	 	 	1581509640	0.60	1.11
12/02/2020 12:14:01	120220	12022020	121401	91.48	12.418502	-57.245532	91.45	-0.340	-0.860	1.530	91.44	-2.40	2.10	 	 	 	 	 	 	 	 	 	 	 	 	 	 	 	 	 	 	1581509641	0.64	1.19
12/02/2020 12:14:02	120220	12022020	121402	91.26	12.418500	-57.245530	91.25	0.220	-1.310	2.100	91.22	-2.70	2.70	1016.30	26.40	26.50	21.00	21.10	342.0	72.0	72.0	407.0	27.1	335.00	11.30	66.00	10.90	24116	10297.0	27.6	27.6	1581509642	0.75	1.39
12/02/2020 12:14:03	120220	12022020	121403	91.09	12.418497	-57.245527	91.11	0.750	-1.430	2.660	91.07	-2.70	3.20	 	 	 	 	 	 	 	 	 	 	 	 	 	 	 	 	 	 	1581509643	0.80	1.48
12/02/2020 12:14:04	120220	12022020	121404	91.03	12.418495	-57.245523	91.07	1.020	-1.200	2.950	91.03	-2.40	3.40	 	 	 	 	 	 	 	 	 	 	 	 	 	 	 	 	 	 	1581509644	0.73	1.35
12/02/2020 12:14:05	120220	12022020	121405	91.07	12.418497	-57.245522	91.12	0.860	-0.580	2.790	91.09	-1.60	3.10	 	 	 	 	 	 	 	 	 	 	 	 	 	 	 	 	 	 	1581509645	0.55	1.02
12/02/2020 12:14:06	120220	12022020	121406	91.20	12.418500	-57.245520	91.25	0.240	0.480	2.250	91.24	-0.50	2.50	 	 	 	 	 	 	 	 	 	 	 	 	 	 	 	 	 	 	1581509646	0.79	1.46
12/02/2020 12:14:07	120220	12022020	121407	91.31	12.418503	-57.245522	91.30	-0.530	1.550	1.540	91.31	0.40	1.80	 	 	 	 	 	 	 	 	 	 	 	 	 	 	 	 	 	 	1581509647	1.07	1.98
12/02/2020 12:14:08	120220	12022020	121408	91.21	12.418508	-57.245525	91.13	-1.000	1.840	0.880	91.16	0.30	1.20	 	 	 	 	 	 	 	 	 	 	 	 	 	 	 	 	 	 	1581509648	1.17	2.17
12/02/2020 12:14:09	120220	12022020	121409	90.97	12.418513	-57.245525	90.91	-0.940	0.900	0.370	90.93	-1.00	0.70	 	 	 	 	 	 	 	 	 	 	 	 	 	 	 	 	 	 	1581509649	0.91	1.69
12/02/2020 12:14:10	120220	12022020	121410	90.90	12.418517	-57.245520	90.89	-0.470	-0.720	-0.040	90.91	-2.50	0.30	 	 	 	 	 	 	 	 	 	 	 	 	 	 	 	 	 	 	1581509650	1.34	2.48
12/02/2020 12:14:11	120220	12022020	121411	91.03	12.418520	-57.245512	91.03	0.080	-1.890	-0.270	91.06	-3.40	0.20	 	 	 	 	 	 	 	 	 	 	 	 	 	 	 	 	 	 	1581509651	1.69	3.13
12/02/2020 12:14:12	120220	12022020	121412	91.10	12.418522	-57.245508	91.06	0.430	-1.970	-0.110	91.10	-3.10	0.50	 	 	 	 	 	 	 	 	 	 	 	 	 	 	 	 	 	 	1581509652	1.11	2.06
12/02/2020 12:14:13	120220	12022020	121413	91.08	12.418522	-57.245507	91.06	0.530	-1.230	0.400	91.08	-2.30	1.00	 	 	 	 	 	 	 	 	 	 	 	 	 	 	 	 	 	 	1581509653	0.18	0.33
12/02/2020 12:14:14	120220	12022020	121414	91.10	12.418520	-57.245508	91.11	0.400	-0.210	1.130	91.11	-1.30	1.80	 	 	 	 	 	 	 	 	 	 	 	 	 	 	 	 	 	 	1581509654	0.46	0.85
12/02/2020 12:14:15	120220	12022020	121415	91.08	12.418518	-57.245510	91.09	0.140	0.630	1.990	91.07	-0.60	2.70	 	 	 	 	 	 	 	 	 	 	 	 	 	 	 	 	 	 	1581509655	0.73	1.35
12/02/2020 12:14:16	120220	12022020	121416	90.98	12.418515	-57.245510	91.01	-0.070	0.910	2.670	90.96	-0.50	3.20	 	 	 	 	 	 	 	 	 	 	 	 	 	 	 	 	 	 	1581509656	0.69	1.28
12/02/2020 12:14:17	120220	12022020	121417	90.94	12.418513	-57.245508	90.99	-0.070	0.620	2.900	90.95	-0.90	3.30	 	 	 	 	 	 	 	 	 	 	 	 	 	 	 	 	 	 	1581509657	0.55	1.02
12/02/2020 12:14:18	120220	12022020	121418	91.02	12.418513	-57.245505	91.07	0.080	0.070	2.670	91.03	-1.50	3.00	 	 	 	 	 	 	 	 	 	 	 	 	 	 	 	 	 	 	1581509658	0.75	1.39
12/02/2020 12:14:19	120220	12022020	121419	91.00	12.418517	-57.245502	91.00	0.180	-0.400	2.280	90.97	-1.80	2.60	 	 	 	 	 	 	 	 	 	 	 	 	 	 	 	 	 	 	1581509659	1.02	1.89
12/02/2020 12:14:20	120220	12022020	121420	90.85	12.418520	-57.245498	90.83	0.060	-0.540	1.840	90.82	-1.90	2.10	 	 	 	 	 	 	 	 	 	 	 	 	 	 	 	 	 	 	1581509660	1.12	2.07
12/02/2020 12:14:21	120220	12022020	121421	90.79	12.418525	-57.245497	90.81	-0.260	-0.340	1.270	90.80	-1.60	1.50	 	 	 	 	 	 	 	 	 	 	 	 	 	 	 	 	 	 	1581509661	1.19	2.20
12/02/2020 12:14:22	120220	12022020	121422	90.90	12.418532	-57.245498	90.93	-0.530	-0.110	0.690	90.92	-1.50	1.00	 	 	 	 	 	 	 	 	 	 	 	 	 	 	 	 	 	 	1581509662	1.15	2.13
12/02/2020 12:14:23	120220	12022020	121423	91.02	12.418535	-57.245498	91.03	-0.450	-0.280	0.220	91.03	-1.80	0.60	 	 	 	 	 	 	 	 	 	 	 	 	 	 	 	 	 	 	1581509663	0.83	1.54
12/02/2020 12:14:24	120220	12022020	121424	91.07	12.418537	-57.245495	91.06	-0.030	-0.820	0.080	91.07	-2.30	0.60	 	 	 	 	 	 	 	 	 	 	 	 	 	 	 	 	 	 	1581509664	0.82	1.52
12/02/2020 12:14:25	120220	12022020	121425	91.09	12.418537	-57.245488	91.08	0.320	-0.990	0.400	91.09	-2.20	1.00	 	 	 	 	 	 	 	 	 	 	 	 	 	 	 	 	 	 	1581509665	1.15	2.13
12/02/2020 12:14:26	120220	12022020	121426	91.04	12.418535	-57.245487	91.03	0.260	-0.210	1.030	91.02	-1.20	1.70	 	 	 	 	 	 	 	 	 	 	 	 	 	 	 	 	 	 	1581509666	0.82	1.52
12/02/2020 12:14:27	120220	12022020	121427	90.87	12.418532	-57.245488	90.81	-0.100	0.830	1.550	90.81	-0.30	2.10	 	 	 	 	 	 	 	 	 	 	 	 	 	 	 	 	 	 	1581509667	0.81	1.50
12/02/2020 12:14:28	120220	12022020	121428	90.56	12.418532	-57.245492	90.51	-0.280	1.080	1.700	90.49	-0.40	2.10	 	 	 	 	 	 	 	 	 	 	 	 	 	 	 	 	 	 	1581509668	0.72	1.33
12/02/2020 12:14:29	120220	12022020	121429	90.35	12.418533	-57.245492	90.37	-0.080	0.320	1.420	90.34	-1.40	1.70	 	 	 	 	 	 	 	 	 	 	 	 	 	 	 	 	 	 	1581509669	0.64	1.19
12/02/2020 12:14:30	120220	12022020	121430	90.36	12.418538	-57.245487	90.41	0.290	-0.820	1.100	90.38	-2.50	1.50	 	 	 	 	 	 	 	 	 	 	 	 	 	 	 	 	 	 	1581509670	1.54	2.85
12/02/2020 12:14:31	120220	12022020	121431	90.48	12.418543	-57.245480	90.55	0.510	-1.550	1.070	90.51	-2.90	1.60	 	 	 	 	 	 	 	 	 	 	 	 	 	 	 	 	 	 	1581509671	1.61	2.98
12/02/2020 12:14:32	120220	12022020	121432	90.65	12.418545	-57.245475	90.73	0.450	-1.360	1.200	90.69	-2.40	1.70	 	 	 	 	 	 	 	 	 	 	 	 	 	 	 	 	 	 	1581509672	1.00	1.85
12/02/2020 12:14:33	120220	12022020	121433	90.79	12.418545	-57.245473	90.81	0.150	-0.360	1.300	90.79	-1.30	1.80	 	 	 	 	 	 	 	 	 	 	 	 	 	 	 	 	 	 	1581509673	0.19	0.35
12/02/2020 12:14:34	120220	12022020	121434	90.70	12.418545	-57.245477	90.68	-0.300	0.880	1.470	90.67	-0.20	2.00	 	 	 	 	 	 	 	 	 	 	 	 	 	 	 	 	 	 	1581509674	0.55	1.02
12/02/2020 12:14:35	120220	12022020	121435	90.51	12.418545	-57.245480	90.51	-0.730	1.590	1.720	90.47	0.20	2.30	 	 	 	 	 	 	 	 	 	 	 	 	 	 	 	 	 	 	1581509675	0.82	1.52
12/02/2020 12:14:36	120220	12022020	121436	90.38	12.418545	-57.245483	90.43	-0.860	1.200	2.030	90.37	-0.50	2.50	 	 	 	 	 	 	 	 	 	 	 	 	 	 	 	 	 	 	1581509676	0.43	0.80
12/02/2020 12:14:37	120220	12022020	121437	90.41	12.418543	-57.245480	90.50	-0.550	-0.080	2.120	90.43	-1.90	2.50	 	 	 	 	 	 	 	 	 	 	 	 	 	 	 	 	 	 	1581509677	0.57	1.06
12/02/2020 12:14:38	120220	12022020	121438	90.47	12.418543	-57.245475	90.50	0.070	-1.440	2.010	90.46	-3.10	2.40	 	 	 	 	 	 	 	 	 	 	 	 	 	 	 	 	 	 	1581509678	1.22	2.26
12/02/2020 12:14:39	120220	12022020	121439	90.31	12.418543	-57.245468	90.26	0.730	-2.200	1.980	90.24	-3.60	2.40	 	 	 	 	 	 	 	 	 	 	 	 	 	 	 	 	 	 	1581509679	1.30	2.41
12/02/2020 12:14:40	120220	12022020	121440	89.94	12.418545	-57.245463	89.90	1.170	-2.080	2.020	89.87	-3.20	2.40	 	 	 	 	 	 	 	 	 	 	 	 	 	 	 	 	 	 	1581509680	1.00	1.85
12/02/2020 12:14:41	120220	12022020	121441	89.69	12.418548	-57.245462	89.71	1.160	-1.040	1.840	89.68	-1.90	2.20	 	 	 	 	 	 	 	 	 	 	 	 	 	 	 	 	 	 	1581509681	0.70	1.30
12/02/2020 12:14:42	120220	12022020	121442	89.77	12.418552	-57.245463	89.86	0.630	0.610	1.380	89.82	-0.20	1.60	 	 	 	 	 	 	 	 	 	 	 	 	 	 	 	 	 	 	1581509682	0.98	1.81
12/02/2020 12:14:43	120220	12022020	121443	90.14	12.418557	-57.245467	90.25	-0.260	1.990	0.830	90.23	0.90	1.10	 	 	 	 	 	 	 	 	 	 	 	 	 	 	 	 	 	 	1581509683	1.47	2.72
12/02/2020 12:14:44	120220	12022020	121444	90.53	12.418562	-57.245470	90.61	-1.120	2.250	0.450	90.59	0.70	0.80	 	 	 	 	 	 	 	 	 	 	 	 	 	 	 	 	 	 	1581509684	1.23	2.28
12/02/2020 12:14:45	120220	12022020	121445	90.65	12.418563	-57.245470	90.66	-1.500	1.290	0.420	90.64	-0.50	0.90	 	 	 	 	 	 	 	 	 	 	 	 	 	 	 	 	 	 	1581509685	0.29	0.54
12/02/2020 12:14:46	120220	12022020	121446	90.46	12.418562	-57.245467	90.43	-1.180	-0.320	0.750	90.40	-2.20	1.30	 	 	 	 	 	 	 	 	 	 	 	 	 	 	 	 	 	 	1581509686	0.97	1.80
12/02/2020 12:14:47	120220	12022020	121447	90.18	12.418557	-57.245460	90.18	-0.330	-1.790	1.260	90.14	-3.40	1.90	 	 	 	 	 	 	 	 	 	 	 	 	 	 	 	 	 	 	1581509687	1.54	2.85
12/02/2020 12:14:48	120220	12022020	121448	89.98	12.418553	-57.245455	89.97	0.620	-2.410	1.700	89.94	-3.70	2.20	 	 	 	 	 	 	 	 	 	 	 	 	 	 	 	 	 	 	1581509688	1.39	2.57
12/02/2020 12:14:49	120220	12022020	121449	89.76	12.418552	-57.245452	89.74	1.250	-1.970	1.890	89.71	-3.00	2.30	 	 	 	 	 	 	 	 	 	 	 	 	 	 	 	 	 	 	1581509689	0.59	1.09
12/02/2020 12:14:50	120220	12022020	121450	89.57	12.418555	-57.245453	89.57	1.280	-0.830	1.820	89.55	-1.80	2.20	 	 	 	 	 	 	 	 	 	 	 	 	 	 	 	 	 	 	1581509690	0.51	0.94
12/02/2020 12:14:51	120220	12022020	121451	89.56	12.418558	-57.245455	89.61	0.770	0.320	1.550	89.58	-0.80	1.90	 	 	 	 	 	 	 	 	 	 	 	 	 	 	 	 	 	 	1581509691	0.94	1.74
12/02/2020 12:14:52	120220	12022020	121452	89.71	12.418563	-57.245455	89.79	0.040	0.950	1.240	89.76	-0.30	1.60	 	 	 	 	 	 	 	 	 	 	 	 	 	 	 	 	 	 	1581509692	0.84	1.56
12/02/2020 12:14:53	120220	12022020	121453	89.94	12.418565	-57.245453	90.01	-0.550	1.180	0.990	89.98	-0.10	1.40	 	 	 	 	 	 	 	 	 	 	 	 	 	 	 	 	 	 	1581509693	0.56	1.04
12/02/2020 12:14:54	120220	12022020	121454	90.13	12.418567	-57.245453	90.18	-0.820	1.250	0.820	90.16	-0.10	1.20	 	 	 	 	 	 	 	 	 	 	 	 	 	 	 	 	 	 	1581509694	0.33	0.61
12/02/2020 12:14:55	120220	12022020	121455	90.19	12.418567	-57.245453	90.20	-0.800	0.890	0.880	90.18	-0.70	1.40	 	 	 	 	 	 	 	 	 	 	 	 	 	 	 	 	 	 	1581509695	0.21	0.39
12/02/2020 12:14:56	120220	12022020	121456	90.06	12.418567	-57.245452	90.07	-0.570	-0.130	1.150	90.03	-1.90	1.70	 	 	 	 	 	 	 	 	 	 	 	 	 	 	 	 	 	 	1581509696	0.30	0.56
12/02/2020 12:14:57	120220	12022020	121457	89.91	12.418565	-57.245447	89.95	-0.220	-1.390	1.410	89.90	-3.10	1.90	 	 	 	 	 	 	 	 	 	 	 	 	 	 	 	 	 	 	1581509697	0.97	1.80
12/02/2020 12:14:58	120220	12022020	121458	89.87	12.418563	-57.245442	89.93	0.230	-2.160	1.620	89.87	-3.50	2.10	 	 	 	 	 	 	 	 	 	 	 	 	 	 	 	 	 	 	1581509698	1.29	2.39
12/02/2020 12:14:59	120220	12022020	121459	89.80	12.418562	-57.245437	89.81	0.680	-1.820	1.800	89.76	-2.80	2.30	 	 	 	 	 	 	 	 	 	 	 	 	 	 	 	 	 	 	1581509699	0.92	1.70
12/02/2020 12:15:00	120220	12022020	121500	89.52	12.418562	-57.245437	89.50	0.870	-0.630	1.900	89.46	-1.50	2.30	 	 	 	 	 	 	 	 	 	 	 	 	 	 	 	 	 	 	1581509700	0.05	0.09
12/02/2020 12:15:01	120220	12022020	121501	89.28	12.418565	-57.245440	89.32	0.650	0.510	1.700	89.27	-0.60	2.00	 	 	 	 	 	 	 	 	 	 	 	 	 	 	 	 	 	 	1581509701	0.69	1.28
12/02/2020 12:15:02	120220	12022020	121502	89.40	12.418568	-57.245442	89.51	0.180	0.920	1.070	89.47	-0.40	1.30	1016.40	26.30	26.40	20.90	20.90	351.0	71.0	71.0	408.0	27.2	336.00	11.30	65.00	11.00	25137	10249.0	27.6	27.6	1581509702	0.77	1.43
12/02/2020 12:15:03	120220	12022020	121503	89.72	12.418572	-57.245438	89.81	-0.180	0.730	0.450	89.77	-0.70	0.80	 	 	 	 	 	 	 	 	 	 	 	 	 	 	 	 	 	 	1581509703	1.02	1.89
12/02/2020 12:15:04	120220	12022020	121504	89.89	12.418575	-57.245435	89.94	-0.370	0.430	0.300	89.91	-1.00	0.80	 	 	 	 	 	 	 	 	 	 	 	 	 	 	 	 	 	 	1581509704	1.08	2.00
12/02/2020 12:15:05	120220	12022020	121505	89.96	12.418577	-57.245433	90.00	-0.470	0.220	0.470	89.97	-1.20	1.00	 	 	 	 	 	 	 	 	 	 	 	 	 	 	 	 	 	 	1581509705	0.62	1.15
12/02/2020 12:15:06	120220	12022020	121506	90.00	12.418577	-57.245432	90.03	-0.480	-0.140	0.780	89.99	-1.60	1.30	 	 	 	 	 	 	 	 	 	 	 	 	 	 	 	 	 	 	1581509706	0.36	0.67
12/02/2020 12:15:07	120220	12022020	121507	89.92	12.418575	-57.245430	89.95	-0.240	-0.690	1.220	89.89	-2.20	1.80	 	 	 	 	 	 	 	 	 	 	 	 	 	 	 	 	 	 	1581509707	0.55	1.02
12/02/2020 12:15:08	120220	12022020	121508	89.79	12.418573	-57.245427	89.84	0.190	-1.070	1.740	89.78	-2.40	2.30	 	 	 	 	 	 	 	 	 	 	 	 	 	 	 	 	 	 	1581509708	0.76	1.41
12/02/2020 12:15:09	120220	12022020	121509	89.73	12.418572	-57.245423	89.80	0.490	-0.930	2.290	89.73	-2.10	2.90	 	 	 	 	 	 	 	 	 	 	 	 	 	 	 	 	 	 	1581509709	0.71	1.31
12/02/2020 12:15:10	120220	12022020	121510	89.71	12.418568	-57.245423	89.78	0.420	-0.410	2.710	89.70	-1.60	3.20	 	 	 	 	 	 	 	 	 	 	 	 	 	 	 	 	 	 	1581509710	0.56	1.04
12/02/2020 12:15:11	120220	12022020	121511	89.61	12.418567	-57.245423	89.64	0.130	0.000	2.830	89.58	-1.30	3.20	 	 	 	 	 	 	 	 	 	 	 	 	 	 	 	 	 	 	1581509711	0.35	0.65
12/02/2020 12:15:12	120220	12022020	121512	89.55	12.418568	-57.245422	89.62	-0.170	0.240	2.330	89.58	-1.00	2.50	 	 	 	 	 	 	 	 	 	 	 	 	 	 	 	 	 	 	1581509712	0.33	0.61
12/02/2020 12:15:13	120220	12022020	121513	89.85	12.418572	-57.245420	89.98	-0.310	0.400	1.470	89.94	-1.00	1.60	 	 	 	 	 	 	 	 	 	 	 	 	 	 	 	 	 	 	1581509713	0.92	1.70
12/02/2020 12:15:14	120220	12022020	121514	90.31	12.418577	-57.245420	90.42	-0.180	0.180	0.800	90.39	-1.40	1.10	 	 	 	 	 	 	 	 	 	 	 	 	 	 	 	 	 	 	1581509714	0.95	1.76
12/02/2020 12:15:15	120220	12022020	121515	90.53	12.418578	-57.245417	90.55	0.240	-0.620	0.570	90.53	-2.20	1.00	 	 	 	 	 	 	 	 	 	 	 	 	 	 	 	 	 	 	1581509715	0.91	1.69
12/02/2020 12:15:16	120220	12022020	121516	90.41	12.418580	-57.245410	90.39	0.610	-1.200	0.620	90.37	-2.50	1.10	 	 	 	 	 	 	 	 	 	 	 	 	 	 	 	 	 	 	1581509716	1.39	2.57
12/02/2020 12:15:17	120220	12022020	121517	90.24	12.418582	-57.245405	90.27	0.460	-0.660	0.800	90.23	-1.60	1.30	 	 	 	 	 	 	 	 	 	 	 	 	 	 	 	 	 	 	1581509717	1.07	1.98
12/02/2020 12:15:18	120220	12022020	121518	90.30	12.418580	-57.245407	90.38	-0.140	0.760	0.970	90.34	-0.20	1.40	 	 	 	 	 	 	 	 	 	 	 	 	 	 	 	 	 	 	1581509718	0.29	0.54
12/02/2020 12:15:19	120220	12022020	121519	90.55	12.418580	-57.245412	90.66	-0.710	1.740	1.130	90.60	0.40	1.60	 	 	 	 	 	 	 	 	 	 	 	 	 	 	 	 	 	 	1581509719	1.29	2.39
12/02/2020 12:15:20	120220	12022020	121520	90.74	12.418580	-57.245417	90.80	-0.830	1.240	1.490	90.75	-0.60	2.10	 	 	 	 	 	 	 	 	 	 	 	 	 	 	 	 	 	 	1581509720	0.85	1.57
12/02/2020 12:15:21	120220	12022020	121521	90.70	12.418580	-57.245413	90.75	-0.460	-0.510	1.940	90.68	-2.50	2.50	 	 	 	 	 	 	 	 	 	 	 	 	 	 	 	 	 	 	1581509721	0.64	1.19
12/02/2020 12:15:22	120220	12022020	121522	90.62	12.418578	-57.245405	90.68	0.090	-2.220	2.190	90.61	-3.90	2.70	 	 	 	 	 	 	 	 	 	 	 	 	 	 	 	 	 	 	1581509722	1.77	3.28
12/02/2020 12:15:23	120220	12022020	121523	90.65	12.418577	-57.245397	90.76	0.580	-2.720	2.420	90.68	-3.90	2.90	 	 	 	 	 	 	 	 	 	 	 	 	 	 	 	 	 	 	1581509723	1.73	3.20
12/02/2020 12:15:24	120220	12022020	121524	90.75	12.418575	-57.245393	90.86	0.860	-1.740	2.640	90.78	-2.50	3.10	 	 	 	 	 	 	 	 	 	 	 	 	 	 	 	 	 	 	1581509724	0.89	1.65
12/02/2020 12:15:25	120220	12022020	121525	90.91	12.418573	-57.245395	91.02	0.790	0.010	2.540	90.96	-0.80	2.80	 	 	 	 	 	 	 	 	 	 	 	 	 	 	 	 	 	 	1581509725	0.47	0.87
12/02/2020 12:15:26	120220	12022020	121526	91.17	12.418575	-57.245400	91.27	0.340	1.420	2.000	91.22	0.30	2.20	 	 	 	 	 	 	 	 	 	 	 	 	 	 	 	 	 	 	1581509726	0.94	1.74
12/02/2020 12:15:27	120220	12022020	121527	91.37	12.418578	-57.245402	91.41	-0.250	1.780	1.270	91.38	0.30	1.50	 	 	 	 	 	 	 	 	 	 	 	 	 	 	 	 	 	 	1581509727	0.89	1.65
12/02/2020 12:15:28	120220	12022020	121528	91.32	12.418582	-57.245400	91.29	-0.710	1.170	0.750	91.28	-0.50	1.10	 	 	 	 	 	 	 	 	 	 	 	 	 	 	 	 	 	 	1581509728	0.84	1.56
12/02/2020 12:15:29	120220	12022020	121529	91.07	12.418585	-57.245397	91.03	-0.840	0.250	0.450	91.02	-1.30	0.80	 	 	 	 	 	 	 	 	 	 	 	 	 	 	 	 	 	 	1581509729	1.05	1.94
12/02/2020 12:15:30	120220	12022020	121530	90.91	12.418587	-57.245392	90.94	-0.690	-0.340	0.200	90.91	-1.80	0.60	 	 	 	 	 	 	 	 	 	 	 	 	 	 	 	 	 	 	1581509730	0.94	1.74
12/02/2020 12:15:31	120220	12022020	121531	91.01	12.418590	-57.245392	91.09	-0.350	-0.650	0.060	91.06	-2.10	0.50	 	 	 	 	 	 	 	 	 	 	 	 	 	 	 	 	 	 	1581509731	0.64	1.19
12/02/2020 12:15:32	120220	12022020	121532	91.26	12.418592	-57.245392	91.34	0.120	-1.100	0.220	91.32	-2.60	0.80	 	 	 	 	 	 	 	 	 	 	 	 	 	 	 	 	 	 	1581509732	0.31	0.57
12/02/2020 12:15:33	120220	12022020	121533	91.45	12.418590	-57.245388	91.48	0.640	-1.740	0.780	91.46	-3.20	1.50	 	 	 	 	 	 	 	 	 	 	 	 	 	 	 	 	 	 	1581509733	0.57	1.06
12/02/2020 12:15:34	120220	12022020	121534	91.34	12.418587	-57.245383	91.32	0.920	-1.870	1.710	91.28	-3.00	2.50	 	 	 	 	 	 	 	 	 	 	 	 	 	 	 	 	 	 	1581509734	1.34	2.48
12/02/2020 12:15:35	120220	12022020	121535	90.98	12.418580	-57.245380	90.94	0.720	-0.900	2.750	90.89	-1.70	3.40	 	 	 	 	 	 	 	 	 	 	 	 	 	 	 	 	 	 	1581509735	1.48	2.74
12/02/2020 12:15:36	120220	12022020	121536	90.60	12.418575	-57.245382	90.62	0.200	0.710	3.380	90.56	-0.20	3.80	 	 	 	 	 	 	 	 	 	 	 	 	 	 	 	 	 	 	1581509736	1.25	2.31
12/02/2020 12:15:37	120220	12022020	121537	90.52	12.418573	-57.245385	90.63	-0.330	1.840	3.200	90.56	0.60	3.40	 	 	 	 	 	 	 	 	 	 	 	 	 	 	 	 	 	 	1581509737	0.87	1.61
12/02/2020 12:15:38	120220	12022020	121538	90.87	12.418578	-57.245387	91.03	-0.700	1.860	2.240	90.97	0.30	2.30	 	 	 	 	 	 	 	 	 	 	 	 	 	 	 	 	 	 	1581509738	1.01	1.87
12/02/2020 12:15:39	120220	12022020	121539	91.36	12.418585	-57.245387	91.46	-0.820	0.900	1.020	91.43	-0.90	1.10	 	 	 	 	 	 	 	 	 	 	 	 	 	 	 	 	 	 	1581509739	1.59	2.94
12/02/2020 12:15:40	120220	12022020	121540	91.52	12.418590	-57.245382	91.51	-0.650	-0.430	0.260	91.50	-2.20	0.60	 	 	 	 	 	 	 	 	 	 	 	 	 	 	 	 	 	 	1581509740	1.50	2.78
12/02/2020 12:15:41	120220	12022020	121541	91.30	12.418592	-57.245377	91.24	-0.220	-1.560	0.190	91.23	-3.10	0.70	 	 	 	 	 	 	 	 	 	 	 	 	 	 	 	 	 	 	1581509741	1.08	2.00
12/02/2020 12:15:42	120220	12022020	121542	91.00	12.418590	-57.245373	90.94	0.360	-2.010	0.430	90.94	-3.30	1.00	 	 	 	 	 	 	 	 	 	 	 	 	 	 	 	 	 	 	1581509742	1.00	1.85
12/02/2020 12:15:43	120220	12022020	121543	90.71	12.418588	-57.245370	90.66	0.790	-1.700	0.770	90.65	-2.80	1.30	 	 	 	 	 	 	 	 	 	 	 	 	 	 	 	 	 	 	1581509743	0.63	1.17
12/02/2020 12:15:44	120220	12022020	121544	90.46	12.418588	-57.245370	90.45	0.770	-0.790	0.990	90.43	-1.80	1.40	 	 	 	 	 	 	 	 	 	 	 	 	 	 	 	 	 	 	1581509744	0.14	0.26
12/02/2020 12:15:45	120220	12022020	121545	90.35	12.418590	-57.245370	90.38	0.290	0.390	1.000	90.34	-0.60	1.40	 	 	 	 	 	 	 	 	 	 	 	 	 	 	 	 	 	 	1581509745	0.42	0.78
12/02/2020 12:15:46	120220	12022020	121546	90.40	12.418592	-57.245373	90.48	-0.340	1.360	1.010	90.43	0.20	1.40	 	 	 	 	 	 	 	 	 	 	 	 	 	 	 	 	 	 	1581509746	0.69	1.28
12/02/2020 12:15:47	120220	12022020	121547	90.69	12.418593	-57.245375	90.86	-0.700	1.580	0.930	90.79	0.10	1.30	 	 	 	 	 	 	 	 	 	 	 	 	 	 	 	 	 	 	1581509747	0.53	0.98
12/02/2020 12:15:48	120220	12022020	121548	91.23	12.418595	-57.245373	91.42	-0.640	0.890	0.870	91.34	-0.80	1.40	 	 	 	 	 	 	 	 	 	 	 	 	 	 	 	 	 	 	1581509748	0.32	0.59
12/02/2020 12:15:49	120220	12022020	121549	91.66	12.418595	-57.245370	91.76	-0.330	-0.300	1.240	91.68	-2.00	1.90	 	 	 	 	 	 	 	 	 	 	 	 	 	 	 	 	 	 	1581509749	0.78	1.44
12/02/2020 12:15:50	120220	12022020	121550	91.52	12.418590	-57.245365	91.48	0.080	-1.410	2.140	91.41	-3.00	2.90	 	 	 	 	 	 	 	 	 	 	 	 	 	 	 	 	 	 	1581509750	1.46	2.70
12/02/2020 12:15:51	120220	12022020	121551	90.76	12.418582	-57.245360	90.64	0.480	-1.980	3.230	90.57	-3.30	3.90	 	 	 	 	 	 	 	 	 	 	 	 	 	 	 	 	 	 	1581509751	1.86	3.44
12/02/2020 12:15:52	120220	12022020	121552	89.89	12.418577	-57.245357	89.85	0.760	-1.620	3.770	89.76	-2.60	4.10	 	 	 	 	 	 	 	 	 	 	 	 	 	 	 	 	 	 	1581509752	1.42	2.63
12/02/2020 12:15:53	120220	12022020	121553	89.59	12.418577	-57.245357	89.73	0.670	-0.410	3.330	89.63	-1.30	3.40	 	 	 	 	 	 	 	 	 	 	 	 	 	 	 	 	 	 	1581509753	0.18	0.33
12/02/2020 12:15:54	120220	12022020	121554	90.00	12.418583	-57.245358	90.21	0.100	0.920	2.110	90.14	-0.20	2.10	 	 	 	 	 	 	 	 	 	 	 	 	 	 	 	 	 	 	1581509754	1.53	2.83
12/02/2020 12:15:55	120220	12022020	121555	90.72	12.418593	-57.245363	90.89	-0.660	1.530	0.670	90.85	0.10	0.70	 	 	 	 	 	 	 	 	 	 	 	 	 	 	 	 	 	 	1581509755	2.08	3.85
12/02/2020 12:15:56	120220	12022020	121556	91.17	12.418600	-57.245363	91.19	-1.060	1.130	-0.280	91.19	-0.50	0.00	 	 	 	 	 	 	 	 	 	 	 	 	 	 	 	 	 	 	1581509756	1.57	2.91
12/02/2020 12:15:57	120220	12022020	121557	91.09	12.418603	-57.245360	91.02	-0.740	-0.010	-0.500	91.03	-1.70	-0.00	 	 	 	 	 	 	 	 	 	 	 	 	 	 	 	 	 	 	1581509757	0.86	1.59
12/02/2020 12:15:58	120220	12022020	121558	90.83	12.418602	-57.245355	90.79	0.060	-1.120	-0.320	90.79	-2.70	0.20	 	 	 	 	 	 	 	 	 	 	 	 	 	 	 	 	 	 	1581509758	1.24	2.30
12/02/2020 12:15:59	120220	12022020	121559	90.67	12.418600	-57.245350	90.65	0.750	-1.510	0.040	90.64	-2.80	0.60	 	 	 	 	 	 	 	 	 	 	 	 	 	 	 	 	 	 	1581509759	1.17	2.17
12/02/2020 12:16:00	120220	12022020	121600	90.55	12.418600	-57.245347	90.54	0.890	-1.200	0.630	90.52	-2.40	1.30	 	 	 	 	 	 	 	 	 	 	 	 	 	 	 	 	 	 	1581509760	0.52	0.96
12/02/2020 12:16:01	120220	12022020	121601	90.36	12.418598	-57.245347	90.36	0.550	-0.590	1.390	90.32	-1.70	2.00	1016.40	26.30	26.40	20.70	20.70	456.0	71.0	71.0	408.0	27.3	338.00	11.60	68.00	11.20	28316	11408.0	27.6	27.6	1581509761	0.16	0.30
12/02/2020 12:16:02	120220	12022020	121602	90.21	12.418598	-57.245347	90.29	0.100	0.090	2.040	90.22	-1.00	2.60	 	 	 	 	 	 	 	 	 	 	 	 	 	 	 	 	 	 	1581509762	0.25	0.46
12/02/2020 12:16:03	120220	12022020	121603	90.36	12.418597	-57.245348	90.50	-0.240	0.840	2.430	90.41	-0.30	2.90	 	 	 	 	 	 	 	 	 	 	 	 	 	 	 	 	 	 	1581509763	0.28	0.52
12/02/2020 12:16:04	120220	12022020	121604	90.69	12.418595	-57.245350	90.86	-0.530	1.180	2.620	90.76	-0.20	3.00	 	 	 	 	 	 	 	 	 	 	 	 	 	 	 	 	 	 	1581509764	0.41	0.76
12/02/2020 12:16:05	120220	12022020	121605	91.03	12.418593	-57.245350	91.17	-0.740	0.720	2.540	91.08	-0.90	2.90	 	 	 	 	 	 	 	 	 	 	 	 	 	 	 	 	 	 	1581509765	0.36	0.67
12/02/2020 12:16:06	120220	12022020	121606	91.18	12.418592	-57.245347	91.25	-0.660	-0.300	2.400	91.17	-2.00	2.80	 	 	 	 	 	 	 	 	 	 	 	 	 	 	 	 	 	 	1581509766	0.61	1.13
12/02/2020 12:16:07	120220	12022020	121607	91.00	12.418592	-57.245342	90.99	-0.110	-1.310	2.420	90.93	-2.90	2.90	 	 	 	 	 	 	 	 	 	 	 	 	 	 	 	 	 	 	1581509767	1.01	1.87
12/02/2020 12:16:08	120220	12022020	121608	90.61	12.418592	-57.245337	90.60	0.670	-1.770	2.420	90.54	-3.10	2.80	 	 	 	 	 	 	 	 	 	 	 	 	 	 	 	 	 	 	1581509768	1.13	2.09
12/02/2020 12:16:09	120220	12022020	121609	90.42	12.418595	-57.245333	90.49	1.040	-1.170	2.080	90.43	-2.10	2.30	 	 	 	 	 	 	 	 	 	 	 	 	 	 	 	 	 	 	1581509769	0.97	1.80
12/02/2020 12:16:10	120220	12022020	121610	90.61	12.418600	-57.245335	90.73	0.650	0.230	1.500	90.68	-0.70	1.70	 	 	 	 	 	 	 	 	 	 	 	 	 	 	 	 	 	 	1581509770	0.97	1.80
12/02/2020 12:16:11	120220	12022020	121611	90.91	12.418605	-57.245338	90.99	-0.130	1.280	1.010	90.95	0.00	1.40	 	 	 	 	 	 	 	 	 	 	 	 	 	 	 	 	 	 	1581509771	1.49	2.76
12/02/2020 12:16:12	120220	12022020	121612	91.03	12.418608	-57.245342	91.07	-0.680	1.150	0.850	91.03	-0.50	1.30	 	 	 	 	 	 	 	 	 	 	 	 	 	 	 	 	 	 	1581509772	1.08	2.00
12/02/2020 12:16:13	120220	12022020	121613	91.04	12.418610	-57.245340	91.09	-0.640	0.150	0.870	91.05	-1.60	1.30	 	 	 	 	 	 	 	 	 	 	 	 	 	 	 	 	 	 	1581509773	0.54	1.00
12/02/2020 12:16:14	120220	12022020	121614	91.09	12.418608	-57.245335	91.16	-0.110	-0.820	0.870	91.11	-2.40	1.30	 	 	 	 	 	 	 	 	 	 	 	 	 	 	 	 	 	 	1581509774	1.17	2.17
12/02/2020 12:16:15	120220	12022020	121615	91.23	12.418608	-57.245330	91.29	0.440	-1.230	0.930	91.24	-2.60	1.40	 	 	 	 	 	 	 	 	 	 	 	 	 	 	 	 	 	 	1581509775	0.99	1.83
12/02/2020 12:16:16	120220	12022020	121616	91.24	12.418608	-57.245327	91.26	0.570	-1.100	1.380	91.21	-2.30	2.00	 	 	 	 	 	 	 	 	 	 	 	 	 	 	 	 	 	 	1581509776	0.50	0.93
12/02/2020 12:16:17	120220	12022020	121617	91.02	12.418607	-57.245327	91.02	0.270	-0.590	2.100	90.97	-1.70	2.70	 	 	 	 	 	 	 	 	 	 	 	 	 	 	 	 	 	 	1581509777	0.27	0.50
12/02/2020 12:16:18	120220	12022020	121618	90.78	12.418605	-57.245327	90.80	-0.130	0.180	2.580	90.74	-0.90	3.10	 	 	 	 	 	 	 	 	 	 	 	 	 	 	 	 	 	 	1581509778	0.37	0.69
12/02/2020 12:16:19	120220	12022020	121619	90.64	12.418605	-57.245328	90.70	-0.350	0.810	2.640	90.63	-0.50	3.00	 	 	 	 	 	 	 	 	 	 	 	 	 	 	 	 	 	 	1581509779	0.31	0.57
12/02/2020 12:16:20	120220	12022020	121620	90.69	12.418607	-57.245330	90.79	-0.340	0.810	2.300	90.72	-0.70	2.50	 	 	 	 	 	 	 	 	 	 	 	 	 	 	 	 	 	 	1581509780	0.32	0.59
12/02/2020 12:16:21	120220	12022020	121621	90.95	12.418608	-57.245327	91.08	-0.180	0.110	1.700	91.02	-1.50	1.90	 	 	 	 	 	 	 	 	 	 	 	 	 	 	 	 	 	 	1581509781	0.62	1.15
12/02/2020 12:16:22	120220	12022020	121622	91.27	12.418612	-57.245323	91.35	0.020	-0.770	1.210	91.31	-2.30	1.50	 	 	 	 	 	 	 	 	 	 	 	 	 	 	 	 	 	 	1581509782	1.10	2.04
12/02/2020 12:16:23	120220	12022020	121623	91.41	12.418613	-57.245318	91.43	0.150	-0.940	0.980	91.41	-2.20	1.40	 	 	 	 	 	 	 	 	 	 	 	 	 	 	 	 	 	 	1581509783	1.09	2.02
12/02/2020 12:16:24	120220	12022020	121624	91.35	12.418617	-57.245318	91.30	0.160	-0.360	0.890	91.30	-1.50	1.30	 	 	 	 	 	 	 	 	 	 	 	 	 	 	 	 	 	 	1581509784	0.48	0.89
12/02/2020 12:16:25	120220	12022020	121625	91.02	12.418618	-57.245320	90.90	0.220	0.030	0.990	90.91	-1.40	1.50	 	 	 	 	 	 	 	 	 	 	 	 	 	 	 	 	 	 	1581509785	0.60	1.11
12/02/2020 12:16:26	120220	12022020	121626	90.42	12.418620	-57.245320	90.29	0.410	-0.370	1.290	90.29	-1.90	1.80	 	 	 	 	 	 	 	 	 	 	 	 	 	 	 	 	 	 	1581509786	0.35	0.65
12/02/2020 12:16:27	120220	12022020	121627	89.94	12.418622	-57.245313	89.94	0.480	-0.930	1.600	89.91	-2.30	2.10	 	 	 	 	 	 	 	 	 	 	 	 	 	 	 	 	 	 	1581509787	1.17	2.17
12/02/2020 12:16:28	120220	12022020	121628	90.06	12.418622	-57.245308	90.22	0.180	-0.730	1.630	90.15	-1.80	2.00	 	 	 	 	 	 	 	 	 	 	 	 	 	 	 	 	 	 	1581509788	1.21	2.24
12/02/2020 12:16:29	120220	12022020	121629	90.70	12.418623	-57.245308	90.92	-0.400	0.290	1.330	90.85	-0.70	1.60	 	 	 	 	 	 	 	 	 	 	 	 	 	 	 	 	 	 	1581509789	0.36	0.67
12/02/2020 12:16:30	120220	12022020	121630	91.35	12.418625	-57.245312	91.49	-0.870	1.260	1.070	91.43	0.00	1.50	 	 	 	 	 	 	 	 	 	 	 	 	 	 	 	 	 	 	1581509790	0.85	1.57
12/02/2020 12:16:31	120220	12022020	121631	91.56	12.418625	-57.245315	91.60	-0.880	1.290	1.140	91.54	-0.30	1.70	 	 	 	 	 	 	 	 	 	 	 	 	 	 	 	 	 	 	1581509791	0.69	1.28
12/02/2020 12:16:32	120220	12022020	121632	91.31	12.418623	-57.245313	91.27	-0.500	0.310	1.630	91.22	-1.50	2.20	 	 	 	 	 	 	 	 	 	 	 	 	 	 	 	 	 	 	1581509792	0.39	0.72
12/02/2020 12:16:33	120220	12022020	121633	90.81	12.418622	-57.245308	90.76	0.020	-1.070	2.200	90.70	-2.80	2.70	 	 	 	 	 	 	 	 	 	 	 	 	 	 	 	 	 	 	1581509793	1.29	2.39
12/02/2020 12:16:34	120220	12022020	121634	90.37	12.418618	-57.245302	90.38	0.480	-1.950	2.420	90.32	-3.40	2.80	 	 	 	 	 	 	 	 	 	 	 	 	 	 	 	 	 	 	1581509794	1.52	2.82
12/02/2020 12:16:35	120220	12022020	121635	90.32	12.418620	-57.245297	90.45	0.780	-1.710	2.040	90.38	-2.80	2.20	 	 	 	 	 	 	 	 	 	 	 	 	 	 	 	 	 	 	1581509795	1.05	1.94
12/02/2020 12:16:36	120220	12022020	121636	90.74	12.418625	-57.245297	90.90	0.770	-0.600	1.260	90.74	-2.40	2.00	 	 	 	 	 	 	 	 	 	 	 	 	 	 	 	 	 	 	1581509796	1.16	2.15
12/02/2020 12:16:37	120220	12022020	121637	91.20	12.418633	-57.245298	91.28	0.420	0.550	0.490	91.25	-0.60	0.80	 	 	 	 	 	 	 	 	 	 	 	 	 	 	 	 	 	 	1581509797	1.68	3.11
12/02/2020 12:16:38	120220	12022020	121638	91.30	12.418638	-57.245302	91.26	-0.090	1.030	0.210	91.26	-0.30	0.70	 	 	 	 	 	 	 	 	 	 	 	 	 	 	 	 	 	 	1581509798	1.40	2.59
12/02/2020 12:16:39	120220	12022020	121639	91.01	12.418642	-57.245300	90.93	-0.550	0.880	0.570	90.93	-0.60	1.20	 	 	 	 	 	 	 	 	 	 	 	 	 	 	 	 	 	 	1581509799	0.50	0.93
12/02/2020 12:16:40	120220	12022020	121640	90.60	12.418638	-57.245298	90.56	-0.820	0.400	1.280	90.54	-1.10	1.90	 	 	 	 	 	 	 	 	 	 	 	 	 	 	 	 	 	 	1581509800	0.72	1.33
12/02/2020 12:16:41	120220	12022020	121641	90.35	12.418635	-57.245295	90.37	-0.740	-0.120	1.850	90.32	-1.60	2.40	 	 	 	 	 	 	 	 	 	 	 	 	 	 	 	 	 	 	1581509801	1.05	1.94
12/02/2020 12:16:42	120220	12022020	121642	90.35	12.418633	-57.245293	90.44	-0.290	-0.560	2.140	90.39	-2.00	2.60	 	 	 	 	 	 	 	 	 	 	 	 	 	 	 	 	 	 	1581509802	0.66	1.22
12/02/2020 12:16:43	120220	12022020	121643	90.68	12.418633	-57.245290	90.83	0.280	-0.980	2.050	90.77	-2.50	2.40	 	 	 	 	 	 	 	 	 	 	 	 	 	 	 	 	 	 	1581509803	0.51	0.94
12/02/2020 12:16:44	120220	12022020	121644	91.03	12.418637	-57.245288	91.09	0.650	-1.460	2.010	91.04	-2.90	2.50	 	 	 	 	 	 	 	 	 	 	 	 	 	 	 	 	 	 	1581509804	0.86	1.59
12/02/2020 12:16:45	120220	12022020	121645	90.84	12.418637	-57.245283	90.78	0.640	-1.560	2.530	90.74	-2.70	3.20	 	 	 	 	 	 	 	 	 	 	 	 	 	 	 	 	 	 	1581509805	1.01	1.87
12/02/2020 12:16:46	120220	12022020	121646	90.23	12.418633	-57.245280	90.14	0.370	-0.620	3.070	90.09	-1.50	3.50	 	 	 	 	 	 	 	 	 	 	 	 	 	 	 	 	 	 	1581509806	1.07	1.98
12/02/2020 12:16:47	120220	12022020	121647	89.73	12.418630	-57.245282	89.73	0.080	1.050	2.850	89.68	0.20	3.00	 	 	 	 	 	 	 	 	 	 	 	 	 	 	 	 	 	 	1581509807	0.62	1.15
12/02/2020 12:16:48	120220	12022020	121648	89.64	12.418633	-57.245287	89.70	-0.180	2.150	1.880	89.67	0.80	1.90	 	 	 	 	 	 	 	 	 	 	 	 	 	 	 	 	 	 	1581509808	1.31	2.43
12/02/2020 12:16:49	120220	12022020	121649	89.76	12.418642	-57.245290	89.78	-0.330	1.570	0.570	89.78	-0.40	0.60	 	 	 	 	 	 	 	 	 	 	 	 	 	 	 	 	 	 	1581509809	1.98	3.67
12/02/2020 12:16:50	120220	12022020	121650	89.80	12.418653	-57.245285	89.78	-0.300	-0.420	-0.550	89.80	-2.50	-0.40	 	 	 	 	 	 	 	 	 	 	 	 	 	 	 	 	 	 	1581509810	2.54	4.70
12/02/2020 12:16:51	120220	12022020	121651	89.75	12.418662	-57.245275	89.70	-0.260	-2.200	-1.010	89.73	-3.80	-0.50	 	 	 	 	 	 	 	 	 	 	 	 	 	 	 	 	 	 	1581509811	2.75	5.09
12/02/2020 12:16:52	120220	12022020	121652	89.58	12.418663	-57.245268	89.51	-0.320	-2.190	-0.510	89.53	-3.20	0.20	 	 	 	 	 	 	 	 	 	 	 	 	 	 	 	 	 	 	1581509812	1.64	3.04
12/02/2020 12:16:53	120220	12022020	121653	89.33	12.418658	-57.245268	89.30	-0.380	-0.700	0.500	89.29	-1.60	1.20	 	 	 	 	 	 	 	 	 	 	 	 	 	 	 	 	 	 	1581509813	1.10	2.04
12/02/2020 12:16:54	120220	12022020	121654	89.23	12.418650	-57.245275	89.27	-0.200	0.520	1.390	89.24	-0.70	2.00	 	 	 	 	 	 	 	 	 	 	 	 	 	 	 	 	 	 	1581509814	2.06	3.82
12/02/2020 12:16:55	120220	12022020	121655	89.36	12.418645	-57.245278	89.45	0.300	0.420	1.920	89.40	-1.20	2.40	 	 	 	 	 	 	 	 	 	 	 	 	 	 	 	 	 	 	1581509815	1.27	2.35
12/02/2020 12:16:56	120220	12022020	121656	89.54	12.418643	-57.245273	89.61	0.770	-0.290	2.120	89.56	-1.80	2.50	 	 	 	 	 	 	 	 	 	 	 	 	 	 	 	 	 	 	1581509816	1.09	2.02
12/02/2020 12:16:57	120220	12022020	121657	89.57	12.418643	-57.245267	89.59	0.780	-0.320	2.080	89.55	-1.50	2.50	 	 	 	 	 	 	 	 	 	 	 	 	 	 	 	 	 	 	1581509817	1.29	2.39
12/02/2020 12:16:58	120220	12022020	121658	89.37	12.418647	-57.245267	89.35	0.250	0.410	1.950	89.31	-0.70	2.30	 	 	 	 	 	 	 	 	 	 	 	 	 	 	 	 	 	 	1581509818	0.64	1.19
12/02/2020 12:16:59	120220	12022020	121659	89.03	12.418652	-57.245270	88.98	-0.440	0.980	1.820	88.95	-0.40	2.20	 	 	 	 	 	 	 	 	 	 	 	 	 	 	 	 	 	 	1581509819	1.17	2.17
12/02/2020 12:17:00	120220	12022020	121700	88.72	12.418655	-57.245272	88.72	-0.780	0.620	1.640	88.69	-1.00	2.00	 	 	 	 	 	 	 	 	 	 	 	 	 	 	 	 	 	 	1581509820	1.15	2.13
12/02/2020 12:17:01	120220	12022020	121701	88.71	12.418660	-57.245270	88.81	-0.600	-0.490	1.260	88.76	-2.20	1.50	 	 	 	 	 	 	 	 	 	 	 	 	 	 	 	 	 	 	1581509821	1.02	1.89
12/02/2020 12:17:02	120220	12022020	121702	89.11	12.418663	-57.245265	89.27	-0.210	-1.440	0.780	89.22	-2.90	1.10	1016.40	26.40	26.50	20.80	20.90	462.0	71.0	71.0	408.0	27.3	340.00	11.00	69.00	10.60	29008	9826.0	27.6	27.6	1581509822	1.27	2.35
12/02/2020 12:17:03	120220	12022020	121703	89.62	12.418663	-57.245262	89.73	0.100	-1.520	0.520	89.69	-2.70	1.00	 	 	 	 	 	 	 	 	 	 	 	 	 	 	 	 	 	 	1581509823	0.87	1.61
12/02/2020 12:17:04	120220	12022020	121704	89.74	12.418662	-57.245260	89.73	0.300	-0.920	0.740	89.70	-2.10	1.30	 	 	 	 	 	 	 	 	 	 	 	 	 	 	 	 	 	 	1581509824	0.46	0.85
12/02/2020 12:17:05	120220	12022020	121705	89.35	12.418658	-57.245262	89.26	0.440	-0.250	1.220	89.25	-1.40	1.80	 	 	 	 	 	 	 	 	 	 	 	 	 	 	 	 	 	 	1581509825	0.53	0.98
12/02/2020 12:17:06	120220	12022020	121706	88.88	12.418658	-57.245262	88.87	0.410	0.310	1.460	88.83	-0.90	1.90	 	 	 	 	 	 	 	 	 	 	 	 	 	 	 	 	 	 	1581509826	0.08	0.15
12/02/2020 12:17:07	120220	12022020	121707	88.85	12.418660	-57.245262	88.95	0.140	0.780	1.370	88.91	-0.50	1.70	 	 	 	 	 	 	 	 	 	 	 	 	 	 	 	 	 	 	1581509827	0.44	0.81
12/02/2020 12:17:08	120220	12022020	121708	89.23	12.418663	-57.245262	89.37	-0.280	1.020	1.100	89.32	-0.40	1.50	 	 	 	 	 	 	 	 	 	 	 	 	 	 	 	 	 	 	1581509828	0.64	1.19
12/02/2020 12:17:09	120220	12022020	121709	89.63	12.418667	-57.245263	89.74	-0.570	0.780	0.930	89.69	-0.80	1.40	 	 	 	 	 	 	 	 	 	 	 	 	 	 	 	 	 	 	1581509829	0.57	1.06
12/02/2020 12:17:10	120220	12022020	121710	89.79	12.418667	-57.245262	89.81	-0.470	-0.040	1.020	89.78	-1.70	1.50	 	 	 	 	 	 	 	 	 	 	 	 	 	 	 	 	 	 	1581509830	0.34	0.63
12/02/2020 12:17:11	120220	12022020	121711	89.59	12.418667	-57.245258	89.55	-0.030	-1.020	1.410	89.52	-2.60	2.00	 	 	 	 	 	 	 	 	 	 	 	 	 	 	 	 	 	 	1581509831	0.67	1.24
12/02/2020 12:17:12	120220	12022020	121712	89.27	12.418667	-57.245255	89.27	0.460	-1.580	1.840	89.23	-3.00	2.40	 	 	 	 	 	 	 	 	 	 	 	 	 	 	 	 	 	 	1581509832	0.92	1.70
12/02/2020 12:17:13	120220	12022020	121713	89.14	12.418665	-57.245252	89.20	0.700	-1.380	2.180	89.14	-2.60	2.70	 	 	 	 	 	 	 	 	 	 	 	 	 	 	 	 	 	 	1581509833	0.64	1.19
12/02/2020 12:17:14	120220	12022020	121714	89.20	12.418665	-57.245252	89.30	0.550	-0.610	2.340	89.20	-2.30	2.80	 	 	 	 	 	 	 	 	 	 	 	 	 	 	 	 	 	 	1581509834	0.10	0.19
12/02/2020 12:17:15	120220	12022020	121715	89.41	12.418667	-57.245252	89.53	0.070	0.320	2.090	89.46	-0.80	2.40	 	 	 	 	 	 	 	 	 	 	 	 	 	 	 	 	 	 	1581509835	0.41	0.76
12/02/2020 12:17:16	120220	12022020	121716	89.68	12.418670	-57.245255	89.80	-0.460	1.000	1.580	89.74	-0.30	1.80	 	 	 	 	 	 	 	 	 	 	 	 	 	 	 	 	 	 	1581509836	0.72	1.33
12/02/2020 12:17:17	120220	12022020	121717	89.97	12.418672	-57.245255	90.07	-0.700	1.080	1.080	90.02	-0.40	1.40	 	 	 	 	 	 	 	 	 	 	 	 	 	 	 	 	 	 	1581509837	0.62	1.15
12/02/2020 12:17:18	120220	12022020	121718	90.22	12.418673	-57.245255	90.29	-0.560	0.440	0.800	90.25	-1.20	1.20	 	 	 	 	 	 	 	 	 	 	 	 	 	 	 	 	 	 	1581509838	0.39	0.72
12/02/2020 12:17:19	120220	12022020	121719	90.32	12.418675	-57.245252	90.34	-0.130	-0.520	0.870	90.31	-2.20	1.40	 	 	 	 	 	 	 	 	 	 	 	 	 	 	 	 	 	 	1581509839	0.76	1.41
12/02/2020 12:17:20	120220	12022020	121720	90.15	12.418673	-57.245247	90.10	0.340	-1.250	1.110	90.08	-2.70	1.60	 	 	 	 	 	 	 	 	 	 	 	 	 	 	 	 	 	 	1581509840	0.98	1.81
12/02/2020 12:17:21	120220	12022020	121721	89.70	12.418675	-57.245243	89.60	0.680	-1.470	1.420	89.58	-2.80	2.00	 	 	 	 	 	 	 	 	 	 	 	 	 	 	 	 	 	 	1581509841	0.86	1.59
12/02/2020 12:17:22	120220	12022020	121722	89.20	12.418675	-57.245240	89.19	0.760	-1.020	1.760	89.15	-2.10	2.20	 	 	 	 	 	 	 	 	 	 	 	 	 	 	 	 	 	 	1581509842	0.62	1.15
12/02/2020 12:17:23	120220	12022020	121723	89.22	12.418677	-57.245240	89.36	0.510	0.100	1.720	89.31	-0.90	2.00	 	 	 	 	 	 	 	 	 	 	 	 	 	 	 	 	 	 	1581509843	0.39	0.72
12/02/2020 12:17:24	120220	12022020	121724	89.85	12.418682	-57.245243	90.07	-0.020	1.140	1.190	90.02	-0.10	1.40	 	 	 	 	 	 	 	 	 	 	 	 	 	 	 	 	 	 	1581509844	1.07	1.98
12/02/2020 12:17:25	120220	12022020	121725	90.61	12.418687	-57.245245	90.75	-0.610	1.250	0.720	90.72	-0.30	1.10	 	 	 	 	 	 	 	 	 	 	 	 	 	 	 	 	 	 	1581509845	1.20	2.22
12/02/2020 12:17:26	120220	12022020	121726	90.93	12.418688	-57.245243	90.93	-0.900	0.390	0.890	90.92	-1.40	1.50	 	 	 	 	 	 	 	 	 	 	 	 	 	 	 	 	 	 	1581509846	0.45	0.83
12/02/2020 12:17:27	120220	12022020	121727	90.71	12.418685	-57.245238	90.65	-0.700	-0.710	1.600	90.63	-2.40	2.30	 	 	 	 	 	 	 	 	 	 	 	 	 	 	 	 	 	 	1581509847	1.26	2.33
12/02/2020 12:17:28	120220	12022020	121728	90.30	12.418678	-57.245233	90.26	-0.160	-1.320	2.310	90.22	-2.70	2.90	 	 	 	 	 	 	 	 	 	 	 	 	 	 	 	 	 	 	1581509848	1.68	3.11
12/02/2020 12:17:29	120220	12022020	121729	90.04	12.418675	-57.245230	90.08	0.350	-1.140	2.640	90.03	-2.30	3.10	 	 	 	 	 	 	 	 	 	 	 	 	 	 	 	 	 	 	1581509849	1.12	2.07
12/02/2020 12:17:30	120220	12022020	121730	90.07	12.418675	-57.245230	90.14	0.560	-0.470	2.460	90.09	-1.60	2.70	 	 	 	 	 	 	 	 	 	 	 	 	 	 	 	 	 	 	1581509850	0.08	0.15
12/02/2020 12:17:31	120220	12022020	121731	90.19	12.418678	-57.245232	90.23	0.510	0.010	1.860	90.20	-1.30	2.10	 	 	 	 	 	 	 	 	 	 	 	 	 	 	 	 	 	 	1581509851	0.83	1.54
12/02/2020 12:17:32	120220	12022020	121732	90.23	12.418685	-57.245230	90.24	0.380	0.000	1.110	90.23	-1.40	1.40	 	 	 	 	 	 	 	 	 	 	 	 	 	 	 	 	 	 	1581509852	1.38	2.56
12/02/2020 12:17:33	120220	12022020	121733	90.21	12.418692	-57.245227	90.21	0.250	-0.170	0.530	90.21	-1.50	0.90	 	 	 	 	 	 	 	 	 	 	 	 	 	 	 	 	 	 	1581509853	1.65	3.06
12/02/2020 12:17:34	120220	12022020	121734	90.28	12.418697	-57.245222	90.31	0.050	-0.070	0.220	90.31	-1.30	0.60	 	 	 	 	 	 	 	 	 	 	 	 	 	 	 	 	 	 	1581509854	1.40	2.59
12/02/2020 12:17:35	120220	12022020	121735	90.48	12.418700	-57.245220	90.54	-0.230	0.290	0.230	90.53	-1.00	0.70	 	 	 	 	 	 	 	 	 	 	 	 	 	 	 	 	 	 	1581509855	0.72	1.33
12/02/2020 12:17:36	120220	12022020	121736	90.76	12.418700	-57.245220	90.83	-0.510	0.560	0.450	90.81	-0.80	1.00	 	 	 	 	 	 	 	 	 	 	 	 	 	 	 	 	 	 	1581509856	0.10	0.19
12/02/2020 12:17:37	120220	12022020	121737	90.96	12.418698	-57.245220	91.01	-0.640	0.370	0.880	90.97	-1.20	1.50	 	 	 	 	 	 	 	 	 	 	 	 	 	 	 	 	 	 	1581509857	0.30	0.56
12/02/2020 12:17:38	120220	12022020	121738	90.96	12.418695	-57.245217	90.97	-0.510	-0.210	1.520	90.93	-1.80	2.20	 	 	 	 	 	 	 	 	 	 	 	 	 	 	 	 	 	 	1581509858	0.76	1.41
12/02/2020 12:17:39	120220	12022020	121739	90.72	12.418692	-57.245213	90.71	-0.140	-0.820	2.440	90.66	-2.30	3.20	 	 	 	 	 	 	 	 	 	 	 	 	 	 	 	 	 	 	1581509859	1.18	2.19
12/02/2020 12:17:40	120220	12022020	121740	90.43	12.418687	-57.245210	90.47	0.300	-1.160	3.220	90.39	-2.50	3.80	 	 	 	 	 	 	 	 	 	 	 	 	 	 	 	 	 	 	1581509860	1.32	2.44
12/02/2020 12:17:41	120220	12022020	121741	90.34	12.418685	-57.245207	90.43	0.540	-0.940	3.270	90.35	-2.10	3.50	 	 	 	 	 	 	 	 	 	 	 	 	 	 	 	 	 	 	1581509861	0.86	1.59
12/02/2020 12:17:42	120220	12022020	121742	90.45	12.418688	-57.245205	90.52	0.530	-0.360	2.580	90.47	-1.60	2.70	 	 	 	 	 	 	 	 	 	 	 	 	 	 	 	 	 	 	1581509862	0.67	1.24
12/02/2020 12:17:43	120220	12022020	121743	90.49	12.418695	-57.245203	90.50	0.420	0.120	1.730	90.48	-1.20	1.90	 	 	 	 	 	 	 	 	 	 	 	 	 	 	 	 	 	 	1581509863	1.44	2.67
12/02/2020 12:17:44	120220	12022020	121744	90.43	12.418702	-57.245202	90.44	0.270	0.350	1.060	90.43	-1.00	1.30	 	 	 	 	 	 	 	 	 	 	 	 	 	 	 	 	 	 	1581509864	1.65	3.06
12/02/2020 12:17:45	120220	12022020	121745	90.51	12.418708	-57.245200	90.56	0.030	0.410	0.490	90.56	-1.00	0.80	 	 	 	 	 	 	 	 	 	 	 	 	 	 	 	 	 	 	1581509865	1.44	2.67
12/02/2020 12:17:46	120220	12022020	121746	90.80	12.418712	-57.245197	90.86	-0.270	0.210	0.010	90.86	-1.30	0.40	 	 	 	 	 	 	 	 	 	 	 	 	 	 	 	 	 	 	1581509866	1.10	2.04
12/02/2020 12:17:47	120220	12022020	121747	91.07	12.418715	-57.245193	91.10	-0.430	-0.300	-0.170	91.10	-1.80	0.30	 	 	 	 	 	 	 	 	 	 	 	 	 	 	 	 	 	 	1581509867	0.86	1.59
12/02/2020 12:17:48	120220	12022020	121748	91.13	12.418715	-57.245190	91.10	-0.340	-0.670	0.190	91.10	-2.10	0.80	 	 	 	 	 	 	 	 	 	 	 	 	 	 	 	 	 	 	1581509868	0.98	1.81
12/02/2020 12:17:49	120220	12022020	121749	90.90	12.418712	-57.245185	90.84	-0.150	-0.550	0.940	90.84	-1.80	1.60	 	 	 	 	 	 	 	 	 	 	 	 	 	 	 	 	 	 	1581509869	1.01	1.87
12/02/2020 12:17:50	120220	12022020	121750	90.58	12.418708	-57.245185	90.56	-0.080	-0.040	1.680	90.53	-1.30	2.30	 	 	 	 	 	 	 	 	 	 	 	 	 	 	 	 	 	 	1581509870	0.64	1.19
12/02/2020 12:17:51	120220	12022020	121751	90.40	12.418707	-57.245185	90.42	-0.130	0.300	2.160	90.38	-1.10	2.70	 	 	 	 	 	 	 	 	 	 	 	 	 	 	 	 	 	 	1581509871	0.37	0.69
12/02/2020 12:17:52	120220	12022020	121752	90.31	12.418707	-57.245185	90.36	-0.130	0.090	2.450	90.31	-1.40	2.90	 	 	 	 	 	 	 	 	 	 	 	 	 	 	 	 	 	 	1581509872	0.16	0.30
12/02/2020 12:17:53	120220	12022020	121753	90.37	12.418707	-57.245180	90.48	-0.040	-0.450	2.470	90.42	-2.00	2.90	 	 	 	 	 	 	 	 	 	 	 	 	 	 	 	 	 	 	1581509873	0.76	1.41
12/02/2020 12:17:54	120220	12022020	121754	90.65	12.418707	-57.245177	90.76	0.080	-0.790	2.280	90.71	-2.20	2.60	 	 	 	 	 	 	 	 	 	 	 	 	 	 	 	 	 	 	1581509874	1.03	1.91
12/02/2020 12:17:55	120220	12022020	121755	90.87	12.418708	-57.245173	90.91	0.250	-0.690	1.930	90.88	-2.00	2.20	 	 	 	 	 	 	 	 	 	 	 	 	 	 	 	 	 	 	1581509875	0.78	1.44
12/02/2020 12:17:56	120220	12022020	121756	90.81	12.418713	-57.245172	90.79	0.460	-0.390	1.540	90.78	-1.70	1.80	 	 	 	 	 	 	 	 	 	 	 	 	 	 	 	 	 	 	1581509876	0.91	1.69
12/02/2020 12:17:57	120220	12022020	121757	90.67	12.418718	-57.245170	90.66	0.520	-0.090	1.100	90.67	-1.30	1.40	 	 	 	 	 	 	 	 	 	 	 	 	 	 	 	 	 	 	1581509877	1.24	2.30
12/02/2020 12:17:58	120220	12022020	121758	90.73	12.418723	-57.245167	90.78	0.190	0.300	0.770	90.77	-1.00	1.20	 	 	 	 	 	 	 	 	 	 	 	 	 	 	 	 	 	 	1581509878	1.12	2.07
12/02/2020 12:17:59	120220	12022020	121759	90.97	12.418725	-57.245167	91.02	-0.370	0.550	0.760	91.01	-0.80	1.30	 	 	 	 	 	 	 	 	 	 	 	 	 	 	 	 	 	 	1581509879	0.33	0.61
12/02/2020 12:18:00	120220	12022020	121800	91.09	12.418723	-57.245167	91.09	-0.630	0.280	1.100	91.08	-1.30	1.70	 	 	 	 	 	 	 	 	 	 	 	 	 	 	 	 	 	 	1581509880	0.46	0.85
12/02/2020 12:18:01	120220	12022020	121801	90.92	12.418720	-57.245163	90.87	-0.320	-0.510	1.530	90.87	-2.10	2.00	 	 	 	 	 	 	 	 	 	 	 	 	 	 	 	 	 	 	1581509881	0.93	1.72
12/02/2020 12:18:02	120220	12022020	121802	90.70	12.418718	-57.245157	90.70	0.090	-0.980	1.720	90.68	-2.30	2.20	1016.40	26.40	26.50	20.80	20.90	416.0	71.0	71.0	407.0	27.4	342.00	11.20	72.00	10.90	27729	9671.0	27.6	27.6	1581509882	1.26	2.33
12/02/2020 12:18:03	120220	12022020	121803	90.73	12.418720	-57.245153	90.80	0.160	-0.580	1.760	90.77	-1.70	2.20	 	 	 	 	 	 	 	 	 	 	 	 	 	 	 	 	 	 	1581509883	0.77	1.43
12/02/2020 12:18:04	120220	12022020	121804	90.99	12.418722	-57.245155	91.08	-0.050	0.170	1.760	90.99	-1.40	2.20	 	 	 	 	 	 	 	 	 	 	 	 	 	 	 	 	 	 	1581509884	0.34	0.63
12/02/2020 12:18:05	120220	12022020	121805	91.28	12.418722	-57.245157	91.37	-0.170	0.300	1.740	91.34	-1.20	2.20	 	 	 	 	 	 	 	 	 	 	 	 	 	 	 	 	 	 	1581509885	0.43	0.80
12/02/2020 12:18:06	120220	12022020	121806	91.53	12.418723	-57.245153	91.60	0.020	-0.250	1.670	91.57	-1.80	2.10	 	 	 	 	 	 	 	 	 	 	 	 	 	 	 	 	 	 	1581509886	0.48	0.89
12/02/2020 12:18:07	120220	12022020	121807	91.67	12.418723	-57.245148	91.69	0.290	-0.680	1.670	91.67	-2.00	2.10	 	 	 	 	 	 	 	 	 	 	 	 	 	 	 	 	 	 	1581509887	1.15	2.13
12/02/2020 12:18:08	120220	12022020	121808	91.62	12.418725	-57.245145	91.60	0.290	-0.450	1.690	91.59	-1.60	2.10	 	 	 	 	 	 	 	 	 	 	 	 	 	 	 	 	 	 	1581509888	0.84	1.56
12/02/2020 12:18:09	120220	12022020	121809	91.48	12.418725	-57.245145	91.46	-0.010	0.100	1.680	91.46	-1.10	2.10	 	 	 	 	 	 	 	 	 	 	 	 	 	 	 	 	 	 	1581509889	0.25	0.46
12/02/2020 12:18:10	120220	12022020	121810	91.45	12.418727	-57.245145	91.47	-0.400	0.410	1.670	91.47	-1.00	2.10	 	 	 	 	 	 	 	 	 	 	 	 	 	 	 	 	 	 	1581509890	0.34	0.63
12/02/2020 12:18:11	120220	12022020	121811	91.56	12.418727	-57.245145	91.58	-0.550	0.220	1.650	91.58	-1.30	2.10	 	 	 	 	 	 	 	 	 	 	 	 	 	 	 	 	 	 	1581509891	0.03	0.06
12/02/2020 12:18:12	120220	12022020	121812	91.60	12.418725	-57.245143	91.59	-0.280	-0.340	1.660	91.59	-1.90	2.10	 	 	 	 	 	 	 	 	 	 	 	 	 	 	 	 	 	 	1581509892	0.50	0.93
12/02/2020 12:18:13	120220	12022020	121813	91.54	12.418725	-57.245138	91.51	0.230	-0.870	1.600	91.52	-2.30	2.00	 	 	 	 	 	 	 	 	 	 	 	 	 	 	 	 	 	 	1581509893	0.88	1.63
12/02/2020 12:18:14	120220	12022020	121814	91.48	12.418728	-57.245135	91.45	0.660	-1.070	1.350	91.47	-2.40	1.70	 	 	 	 	 	 	 	 	 	 	 	 	 	 	 	 	 	 	1581509894	1.01	1.87
12/02/2020 12:18:15	120220	12022020	121815	91.48	12.418732	-57.245132	91.47	0.730	-0.730	1.130	91.49	-1.90	1.60	 	 	 	 	 	 	 	 	 	 	 	 	 	 	 	 	 	 	1581509895	1.00	1.85
12/02/2020 12:18:16	120220	12022020	121816	91.52	12.418733	-57.245130	91.52	0.350	0.120	1.180	91.53	-1.00	1.70	 	 	 	 	 	 	 	 	 	 	 	 	 	 	 	 	 	 	1581509896	0.65	1.20
12/02/2020 12:18:17	120220	12022020	121817	91.60	12.418735	-57.245133	91.60	-0.210	0.860	1.410	91.62	-0.40	1.90	 	 	 	 	 	 	 	 	 	 	 	 	 	 	 	 	 	 	1581509897	0.48	0.89
12/02/2020 12:18:18	120220	12022020	121818	91.72	12.418735	-57.245135	91.73	-0.560	0.920	1.560	91.74	-0.60	2.00	 	 	 	 	 	 	 	 	 	 	 	 	 	 	 	 	 	 	1581509898	0.33	0.61
12/02/2020 12:18:19	120220	12022020	121819	91.77	12.418735	-57.245133	91.75	-0.530	0.220	1.700	91.76	-1.40	2.20	 	 	 	 	 	 	 	 	 	 	 	 	 	 	 	 	 	 	1581509899	0.33	0.61
12/02/2020 12:18:20	120220	12022020	121820	91.71	12.418735	-57.245128	91.71	-0.390	-0.560	1.920	91.71	-2.10	2.40	 	 	 	 	 	 	 	 	 	 	 	 	 	 	 	 	 	 	1581509900	0.97	1.80
12/02/2020 12:18:21	120220	12022020	121821	91.76	12.418732	-57.245125	91.81	-0.380	-0.790	2.160	91.79	-2.10	2.70	 	 	 	 	 	 	 	 	 	 	 	 	 	 	 	 	 	 	1581509901	0.94	1.74
12/02/2020 12:18:22	120220	12022020	121822	91.84	12.418728	-57.245123	91.86	-0.440	-0.470	2.450	91.84	-1.70	3.00	 	 	 	 	 	 	 	 	 	 	 	 	 	 	 	 	 	 	1581509902	0.71	1.31
12/02/2020 12:18:23	120220	12022020	121823	91.68	12.418725	-57.245127	91.63	-0.240	-0.230	2.700	91.62	-1.70	3.10	 	 	 	 	 	 	 	 	 	 	 	 	 	 	 	 	 	 	1581509903	0.81	1.50
12/02/2020 12:18:24	120220	12022020	121824	91.26	12.418725	-57.245125	91.18	0.340	-0.570	2.630	91.17	-2.10	2.90	 	 	 	 	 	 	 	 	 	 	 	 	 	 	 	 	 	 	1581509904	0.26	0.48
12/02/2020 12:18:25	120220	12022020	121825	90.86	12.418727	-57.245122	90.84	0.920	-1.080	2.120	90.83	-2.50	2.30	 	 	 	 	 	 	 	 	 	 	 	 	 	 	 	 	 	 	1581509905	1.12	2.07
12/02/2020 12:18:26	120220	12022020	121826	90.91	12.418733	-57.245115	90.99	1.010	-0.950	1.270	90.98	-2.10	1.50	 	 	 	 	 	 	 	 	 	 	 	 	 	 	 	 	 	 	1581509906	1.83	3.39
12/02/2020 12:18:27	120220	12022020	121827	91.41	12.418740	-57.245113	91.55	0.520	0.090	0.500	91.54	-0.90	0.80	 	 	 	 	 	 	 	 	 	 	 	 	 	 	 	 	 	 	1581509907	1.53	2.83
12/02/2020 12:18:28	120220	12022020	121828	92.03	12.418745	-57.245117	92.11	-0.100	1.230	0.060	92.12	0.00	0.50	 	 	 	 	 	 	 	 	 	 	 	 	 	 	 	 	 	 	1581509908	1.30	2.41
12/02/2020 12:18:29	120220	12022020	121829	92.31	12.418748	-57.245122	92.28	-0.390	1.360	0.180	92.31	-0.30	0.80	 	 	 	 	 	 	 	 	 	 	 	 	 	 	 	 	 	 	1581509909	0.98	1.81
12/02/2020 12:18:30	120220	12022020	121830	92.11	12.418747	-57.245120	92.01	-0.370	0.400	0.850	92.03	-1.40	1.60	 	 	 	 	 	 	 	 	 	 	 	 	 	 	 	 	 	 	1581509910	0.29	0.54
12/02/2020 12:18:31	120220	12022020	121831	91.67	12.418743	-57.245115	91.59	-0.390	-0.590	1.850	91.58	-2.10	2.60	 	 	 	 	 	 	 	 	 	 	 	 	 	 	 	 	 	 	1581509911	1.41	2.61
12/02/2020 12:18:32	120220	12022020	121832	91.32	12.418737	-57.245112	91.33	-0.600	-0.900	2.770	91.29	-2.30	3.40	 	 	 	 	 	 	 	 	 	 	 	 	 	 	 	 	 	 	1581509912	1.53	2.83
12/02/2020 12:18:33	120220	12022020	121833	91.27	12.418732	-57.245112	91.37	-0.710	-0.820	3.230	91.30	-2.20	3.70	 	 	 	 	 	 	 	 	 	 	 	 	 	 	 	 	 	 	1581509913	1.15	2.13
12/02/2020 12:18:34	120220	12022020	121834	91.51	12.418728	-57.245112	91.63	-0.360	-0.880	3.070	91.57	-2.30	3.30	 	 	 	 	 	 	 	 	 	 	 	 	 	 	 	 	 	 	1581509914	0.64	1.19
12/02/2020 12:18:35	120220	12022020	121835	91.79	12.418728	-57.245110	91.87	0.350	-1.000	2.510	91.83	-2.30	2.70	 	 	 	 	 	 	 	 	 	 	 	 	 	 	 	 	 	 	1581509915	0.33	0.61
12/02/2020 12:18:36	120220	12022020	121836	91.86	12.418733	-57.245108	91.85	0.920	-0.750	1.880	91.84	-2.00	2.10	 	 	 	 	 	 	 	 	 	 	 	 	 	 	 	 	 	 	1581509916	0.94	1.74
12/02/2020 12:18:37	120220	12022020	121837	91.71	12.418737	-57.245107	91.67	0.940	-0.060	1.360	91.69	-1.20	1.60	 	 	 	 	 	 	 	 	 	 	 	 	 	 	 	 	 	 	1581509917	1.05	1.94
12/02/2020 12:18:38	120220	12022020	121838	91.63	12.418742	-57.245107	91.61	0.450	0.770	0.820	91.64	-0.40	1.10	 	 	 	 	 	 	 	 	 	 	 	 	 	 	 	 	 	 	1581509918	0.89	1.65
12/02/2020 12:18:39	120220	12022020	121839	91.73	12.418745	-57.245108	91.72	-0.140	1.280	0.310	91.76	-0.10	0.60	 	 	 	 	 	 	 	 	 	 	 	 	 	 	 	 	 	 	1581509919	0.97	1.80
12/02/2020 12:18:40	120220	12022020	121840	91.86	12.418750	-57.245110	91.83	-0.490	1.000	0.100	91.86	-0.70	0.50	 	 	 	 	 	 	 	 	 	 	 	 	 	 	 	 	 	 	1581509920	0.89	1.65
12/02/2020 12:18:41	120220	12022020	121841	91.82	12.418752	-57.245108	91.76	-0.500	-0.110	0.230	91.80	-1.90	0.80	 	 	 	 	 	 	 	 	 	 	 	 	 	 	 	 	 	 	1581509921	0.62	1.15
12/02/2020 12:18:42	120220	12022020	121842	91.64	12.418752	-57.245103	91.57	-0.260	-1.380	0.770	91.60	-3.00	1.50	 	 	 	 	 	 	 	 	 	 	 	 	 	 	 	 	 	 	1581509922	1.09	2.02
12/02/2020 12:18:43	120220	12022020	121843	91.45	12.418748	-57.245097	91.43	-0.010	-1.870	1.650	91.42	-3.10	2.40	 	 	 	 	 	 	 	 	 	 	 	 	 	 	 	 	 	 	1581509923	1.39	2.57
12/02/2020 12:18:44	120220	12022020	121844	91.41	12.418743	-57.245095	91.45	0.030	-1.100	2.540	91.42	-2.10	3.20	 	 	 	 	 	 	 	 	 	 	 	 	 	 	 	 	 	 	1581509924	1.16	2.15
12/02/2020 12:18:45	120220	12022020	121845	91.47	12.418737	-57.245098	91.51	0.000	0.160	3.090	91.47	-0.90	3.60	 	 	 	 	 	 	 	 	 	 	 	 	 	 	 	 	 	 	1581509925	1.37	2.54
12/02/2020 12:18:46	120220	12022020	121846	91.40	12.418735	-57.245102	91.39	0.110	0.690	3.130	91.36	-0.80	3.50	 	 	 	 	 	 	 	 	 	 	 	 	 	 	 	 	 	 	1581509926	1.07	1.98
12/02/2020 12:18:47	120220	12022020	121847	91.16	12.418735	-57.245102	91.14	0.280	0.270	2.850	91.12	-1.30	3.10	 	 	 	 	 	 	 	 	 	 	 	 	 	 	 	 	 	 	1581509927	0.33	0.61
12/02/2020 12:18:48	120220	12022020	121848	91.04	12.418738	-57.245097	91.08	0.260	-0.190	2.340	91.06	-1.60	2.50	 	 	 	 	 	 	 	 	 	 	 	 	 	 	 	 	 	 	1581509928	1.30	2.41
12/02/2020 12:18:49	120220	12022020	121849	91.24	12.418743	-57.245093	91.32	0.020	-0.050	1.510	91.30	-1.30	1.60	 	 	 	 	 	 	 	 	 	 	 	 	 	 	 	 	 	 	1581509929	1.18	2.19
12/02/2020 12:18:50	120220	12022020	121850	91.59	12.418748	-57.245093	91.65	-0.250	0.260	0.600	91.66	-1.10	0.90	 	 	 	 	 	 	 	 	 	 	 	 	 	 	 	 	 	 	1581509930	1.08	2.00
12/02/2020 12:18:51	120220	12022020	121851	91.79	12.418752	-57.245095	91.76	-0.310	0.010	0.270	91.77	-1.60	0.80	 	 	 	 	 	 	 	 	 	 	 	 	 	 	 	 	 	 	1581509931	0.83	1.54
12/02/2020 12:18:52	120220	12022020	121852	91.51	12.418752	-57.245093	91.36	-0.130	-0.570	0.650	91.39	-2.10	1.30	 	 	 	 	 	 	 	 	 	 	 	 	 	 	 	 	 	 	1581509932	0.39	0.72
12/02/2020 12:18:53	120220	12022020	121853	90.87	12.418750	-57.245090	90.73	0.120	-0.780	1.220	90.75	-2.10	1.80	 	 	 	 	 	 	 	 	 	 	 	 	 	 	 	 	 	 	1581509933	0.84	1.56
12/02/2020 12:18:54	120220	12022020	121854	90.39	12.418748	-57.245088	90.34	0.260	-0.480	1.550	90.34	-1.80	2.00	 	 	 	 	 	 	 	 	 	 	 	 	 	 	 	 	 	 	1581509934	0.33	0.61
12/02/2020 12:18:55	120220	12022020	121855	90.31	12.418752	-57.245088	90.33	0.330	-0.310	1.560	90.32	-1.70	2.00	 	 	 	 	 	 	 	 	 	 	 	 	 	 	 	 	 	 	1581509935	0.39	0.72
12/02/2020 12:18:56	120220	12022020	121856	90.42	12.418753	-57.245087	90.46	0.400	-0.570	1.550	90.45	-2.10	2.00	 	 	 	 	 	 	 	 	 	 	 	 	 	 	 	 	 	 	1581509936	0.62	1.15
12/02/2020 12:18:57	120220	12022020	121857	90.47	12.418755	-57.245083	90.50	0.420	-0.770	1.750	90.48	-2.10	2.30	 	 	 	 	 	 	 	 	 	 	 	 	 	 	 	 	 	 	1581509937	0.93	1.72
12/02/2020 12:18:58	120220	12022020	121858	90.52	12.418753	-57.245078	90.57	0.160	-0.120	1.990	90.54	-1.10	2.40	 	 	 	 	 	 	 	 	 	 	 	 	 	 	 	 	 	 	1581509938	0.86	1.59
12/02/2020 12:18:59	120220	12022020	121859	90.66	12.418750	-57.245080	90.71	-0.460	1.190	2.030	90.68	0.10	2.40	 	 	 	 	 	 	 	 	 	 	 	 	 	 	 	 	 	 	1581509939	0.55	1.02
12/02/2020 12:19:00	120220	12022020	121900	90.73	12.418750	-57.245087	90.74	-1.110	1.890	1.930	90.72	0.40	2.30	 	 	 	 	 	 	 	 	 	 	 	 	 	 	 	 	 	 	1581509940	1.27	2.35
12/02/2020 12:19:01	120220	12022020	121901	90.62	12.418750	-57.245090	90.58	-1.230	1.110	1.720	90.58	-0.80	2.10	 	 	 	 	 	 	 	 	 	 	 	 	 	 	 	 	 	 	1581509941	0.74	1.37
12/02/2020 12:19:02	120220	12022020	121902	90.30	12.418750	-57.245087	90.21	-0.550	-0.820	1.560	90.21	-2.80	1.90	1016.40	26.40	26.50	20.80	20.90	437.0	71.0	71.0	409.0	27.4	340.00	11.40	71.00	11.00	28350	9454.0	27.6	27.6	1581509942	0.68	1.26
12/02/2020 12:19:03	120220	12022020	121903	89.79	12.418750	-57.245078	89.67	0.570	-2.550	1.430	89.68	-4.20	1.80	 	 	 	 	 	 	 	 	 	 	 	 	 	 	 	 	 	 	1581509943	1.77	3.28
12/02/2020 12:19:04	120220	12022020	121904	89.35	12.418753	-57.245070	89.31	1.410	-2.820	1.160	89.30	-3.90	1.50	 	 	 	 	 	 	 	 	 	 	 	 	 	 	 	 	 	 	1581509944	1.72	3.19
12/02/2020 12:19:05	120220	12022020	121905	89.29	12.418758	-57.245068	89.32	1.390	-1.420	0.890	89.31	-2.20	1.30	 	 	 	 	 	 	 	 	 	 	 	 	 	 	 	 	 	 	1581509945	1.19	2.20
12/02/2020 12:19:06	120220	12022020	121906	89.48	12.418763	-57.245073	89.55	0.600	0.590	0.790	89.53	-0.30	1.20	 	 	 	 	 	 	 	 	 	 	 	 	 	 	 	 	 	 	1581509946	1.46	2.70
12/02/2020 12:19:07	120220	12022020	121907	89.71	12.418765	-57.245080	89.77	-0.320	1.820	0.880	89.76	0.60	1.40	 	 	 	 	 	 	 	 	 	 	 	 	 	 	 	 	 	 	1581509947	1.42	2.63
12/02/2020 12:19:08	120220	12022020	121908	89.88	12.418763	-57.245083	89.92	-0.860	1.830	1.030	89.90	0.30	1.50	 	 	 	 	 	 	 	 	 	 	 	 	 	 	 	 	 	 	1581509948	0.55	1.02
12/02/2020 12:19:09	120220	12022020	121909	89.98	12.418762	-57.245082	90.03	-0.890	1.050	1.130	90.01	-0.70	1.60	 	 	 	 	 	 	 	 	 	 	 	 	 	 	 	 	 	 	1581509949	0.59	1.09
12/02/2020 12:19:10	120220	12022020	121910	90.05	12.418760	-57.245077	90.07	-0.590	0.010	1.340	90.04	-1.70	1.90	 	 	 	 	 	 	 	 	 	 	 	 	 	 	 	 	 	 	1581509950	0.83	1.54
12/02/2020 12:19:11	120220	12022020	121911	89.90	12.418758	-57.245075	89.86	-0.190	-0.910	1.900	89.84	-2.50	2.50	 	 	 	 	 	 	 	 	 	 	 	 	 	 	 	 	 	 	1581509951	0.81	1.50
12/02/2020 12:19:12	120220	12022020	121912	89.57	12.418755	-57.245072	89.54	0.160	-1.500	2.500	89.50	-3.00	3.00	 	 	 	 	 	 	 	 	 	 	 	 	 	 	 	 	 	 	1581509952	0.81	1.50
12/02/2020 12:19:13	120220	12022020	121913	89.31	12.418753	-57.245070	89.31	0.440	-1.630	2.700	89.27	-2.90	3.10	 	 	 	 	 	 	 	 	 	 	 	 	 	 	 	 	 	 	1581509953	0.58	1.07
12/02/2020 12:19:14	120220	12022020	121914	89.22	12.418753	-57.245068	89.26	0.570	-1.280	2.450	89.22	-2.40	2.70	 	 	 	 	 	 	 	 	 	 	 	 	 	 	 	 	 	 	1581509954	0.32	0.59
12/02/2020 12:19:15	120220	12022020	121915	89.27	12.418757	-57.245068	89.32	0.500	-0.540	1.970	89.29	-1.60	2.30	 	 	 	 	 	 	 	 	 	 	 	 	 	 	 	 	 	 	1581509955	0.62	1.15
12/02/2020 12:19:16	120220	12022020	121916	89.30	12.418760	-57.245068	89.32	0.230	0.370	1.540	89.30	-0.70	1.80	 	 	 	 	 	 	 	 	 	 	 	 	 	 	 	 	 	 	1581509956	0.67	1.24
12/02/2020 12:19:17	120220	12022020	121917	89.31	12.418762	-57.245070	89.34	-0.140	1.150	1.020	89.32	-0.10	1.20	 	 	 	 	 	 	 	 	 	 	 	 	 	 	 	 	 	 	1581509957	0.63	1.17
12/02/2020 12:19:18	120220	12022020	121918	89.47	12.418767	-57.245072	89.52	-0.430	1.420	0.250	89.52	-0.00	0.50	 	 	 	 	 	 	 	 	 	 	 	 	 	 	 	 	 	 	1581509958	0.88	1.63
12/02/2020 12:19:19	120220	12022020	121919	89.70	12.418772	-57.245073	89.74	-0.500	0.920	-0.410	89.74	-0.80	-0.10	 	 	 	 	 	 	 	 	 	 	 	 	 	 	 	 	 	 	1581509959	1.11	2.06
12/02/2020 12:19:20	120220	12022020	121920	89.80	12.418775	-57.245070	89.79	-0.320	-0.160	-0.550	89.80	-1.90	-0.00	 	 	 	 	 	 	 	 	 	 	 	 	 	 	 	 	 	 	1581509960	1.01	1.87
12/02/2020 12:19:21	120220	12022020	121921	89.69	12.418777	-57.245067	89.65	0.010	-1.250	-0.120	89.65	-2.90	0.50	 	 	 	 	 	 	 	 	 	 	 	 	 	 	 	 	 	 	1581509961	0.92	1.70
12/02/2020 12:19:22	120220	12022020	121922	89.49	12.418775	-57.245062	89.47	0.310	-1.840	0.610	89.45	-3.20	1.30	 	 	 	 	 	 	 	 	 	 	 	 	 	 	 	 	 	 	1581509962	1.02	1.89
12/02/2020 12:19:23	120220	12022020	121923	89.26	12.418770	-57.245060	89.27	0.460	-1.640	1.530	89.22	-2.80	2.30	 	 	 	 	 	 	 	 	 	 	 	 	 	 	 	 	 	 	1581509963	1.01	1.87
12/02/2020 12:19:24	120220	12022020	121924	89.09	12.418767	-57.245058	89.16	0.430	-0.740	2.370	89.08	-1.70	3.00	 	 	 	 	 	 	 	 	 	 	 	 	 	 	 	 	 	 	1581509964	0.94	1.74
12/02/2020 12:19:25	120220	12022020	121925	89.18	12.418763	-57.245062	89.30	0.160	0.440	2.760	89.22	-0.60	3.20	 	 	 	 	 	 	 	 	 	 	 	 	 	 	 	 	 	 	1581509965	0.81	1.50
12/02/2020 12:19:26	120220	12022020	121926	89.40	12.418762	-57.245063	89.50	-0.190	1.210	2.760	89.42	-0.10	3.10	 	 	 	 	 	 	 	 	 	 	 	 	 	 	 	 	 	 	1581509966	0.69	1.28
12/02/2020 12:19:27	120220	12022020	121927	89.44	12.418762	-57.245065	89.49	-0.420	1.120	2.450	89.43	-0.40	2.70	 	 	 	 	 	 	 	 	 	 	 	 	 	 	 	 	 	 	1581509967	0.24	0.44
12/02/2020 12:19:28	120220	12022020	121928	89.51	12.418763	-57.245063	89.61	-0.420	0.450	1.660	89.56	-1.10	1.80	 	 	 	 	 	 	 	 	 	 	 	 	 	 	 	 	 	 	1581509968	0.64	1.19
12/02/2020 12:19:29	120220	12022020	121929	89.80	12.418768	-57.245060	89.90	-0.270	-0.180	0.740	89.87	-1.70	1.00	 	 	 	 	 	 	 	 	 	 	 	 	 	 	 	 	 	 	1581509969	1.25	2.31
12/02/2020 12:19:30	120220	12022020	121930	90.07	12.418775	-57.245058	90.11	-0.060	-0.610	0.260	90.09	-2.10	0.70	 	 	 	 	 	 	 	 	 	 	 	 	 	 	 	 	 	 	1581509970	1.22	2.26
12/02/2020 12:19:31	120220	12022020	121931	90.12	12.418778	-57.245057	90.11	0.120	-0.870	0.250	90.10	-2.30	0.80	 	 	 	 	 	 	 	 	 	 	 	 	 	 	 	 	 	 	1581509971	0.70	1.30
12/02/2020 12:19:32	120220	12022020	121932	90.00	12.418778	-57.245057	89.97	0.260	-0.970	0.510	89.96	-2.30	1.00	 	 	 	 	 	 	 	 	 	 	 	 	 	 	 	 	 	 	1581509972	0.23	0.43
12/02/2020 12:19:33	120220	12022020	121933	89.76	12.418777	-57.245055	89.73	0.370	-1.020	0.870	89.70	-2.40	1.40	 	 	 	 	 	 	 	 	 	 	 	 	 	 	 	 	 	 	1581509973	0.38	0.70
12/02/2020 12:19:34	120220	12022020	121934	89.51	12.418775	-57.245053	89.51	0.490	-0.980	1.250	89.47	-2.30	1.80	 	 	 	 	 	 	 	 	 	 	 	 	 	 	 	 	 	 	1581509974	0.61	1.13
12/02/2020 12:19:35	120220	12022020	121935	89.40	12.418775	-57.245050	89.45	0.520	-0.580	1.520	89.40	-1.70	2.00	 	 	 	 	 	 	 	 	 	 	 	 	 	 	 	 	 	 	1581509975	0.64	1.19
12/02/2020 12:19:36	120220	12022020	121936	89.57	12.418775	-57.245048	89.71	0.230	0.320	1.590	89.65	-0.70	2.00	 	 	 	 	 	 	 	 	 	 	 	 	 	 	 	 	 	 	1581509976	0.28	0.52
12/02/2020 12:19:37	120220	12022020	121937	90.09	12.418775	-57.245050	90.30	-0.380	1.350	1.370	90.23	0.20	1.70	 	 	 	 	 	 	 	 	 	 	 	 	 	 	 	 	 	 	1581509977	0.43	0.80
12/02/2020 12:19:38	120220	12022020	121938	90.81	12.418777	-57.245055	91.00	-0.970	1.810	0.960	90.95	0.40	1.30	 	 	 	 	 	 	 	 	 	 	 	 	 	 	 	 	 	 	1581509978	0.83	1.54
12/02/2020 12:19:39	120220	12022020	121939	91.30	12.418777	-57.245057	91.34	-1.110	1.250	0.780	91.32	-0.50	1.30	 	 	 	 	 	 	 	 	 	 	 	 	 	 	 	 	 	 	1581509979	0.53	0.98
12/02/2020 12:19:40	120220	12022020	121940	91.10	12.418775	-57.245055	90.99	-0.630	-0.190	1.200	90.98	-2.10	1.80	 	 	 	 	 	 	 	 	 	 	 	 	 	 	 	 	 	 	1581509980	0.38	0.70
12/02/2020 12:19:41	120220	12022020	121941	90.37	12.418773	-57.245050	90.23	0.210	-1.720	1.910	90.21	-3.40	2.50	 	 	 	 	 	 	 	 	 	 	 	 	 	 	 	 	 	 	1581509981	1.23	2.28
12/02/2020 12:19:42	120220	12022020	121942	89.76	12.418772	-57.245045	89.76	0.960	-2.470	2.220	89.71	-3.80	2.60	 	 	 	 	 	 	 	 	 	 	 	 	 	 	 	 	 	 	1581509982	1.27	2.35
12/02/2020 12:19:43	120220	12022020	121943	89.83	12.418773	-57.245042	89.99	1.200	-2.100	1.930	89.92	-3.10	2.20	 	 	 	 	 	 	 	 	 	 	 	 	 	 	 	 	 	 	1581509983	0.86	1.59
12/02/2020 12:19:44	120220	12022020	121944	90.41	12.418778	-57.245042	90.59	0.810	-0.910	1.420	90.53	-1.80	1.70	 	 	 	 	 	 	 	 	 	 	 	 	 	 	 	 	 	 	1581509984	0.95	1.76
12/02/2020 12:19:45	120220	12022020	121945	90.91	12.418782	-57.245045	90.99	0.030	0.460	1.030	90.96	-0.50	1.40	 	 	 	 	 	 	 	 	 	 	 	 	 	 	 	 	 	 	1581509985	0.92	1.70
12/02/2020 12:19:46	120220	12022020	121946	91.03	12.418782	-57.245047	91.03	-0.660	1.470	0.920	91.02	0.30	1.30	 	 	 	 	 	 	 	 	 	 	 	 	 	 	 	 	 	 	1581509986	0.67	1.24
12/02/2020 12:19:47	120220	12022020	121947	90.89	12.418780	-57.245050	90.84	-0.910	1.810	0.950	90.84	0.40	1.40	 	 	 	 	 	 	 	 	 	 	 	 	 	 	 	 	 	 	1581509987	0.59	1.09
12/02/2020 12:19:48	120220	12022020	121948	90.57	12.418778	-57.245050	90.48	-0.660	1.290	1.180	90.49	-0.40	1.70	 	 	 	 	 	 	 	 	 	 	 	 	 	 	 	 	 	 	1581509988	0.34	0.63
12/02/2020 12:19:49	120220	12022020	121949	90.23	12.418778	-57.245048	90.19	-0.190	0.110	1.370	90.19	-1.70	1.80	 	 	 	 	 	 	 	 	 	 	 	 	 	 	 	 	 	 	1581509989	0.52	0.96
12/02/2020 12:19:50	120220	12022020	121950	90.17	12.418780	-57.245043	90.19	0.130	-1.040	1.300	90.19	-2.60	1.70	 	 	 	 	 	 	 	 	 	 	 	 	 	 	 	 	 	 	1581509990	0.94	1.74
12/02/2020 12:19:51	120220	12022020	121951	90.30	12.418782	-57.245040	90.31	0.130	-1.560	1.120	90.31	-2.90	1.50	 	 	 	 	 	 	 	 	 	 	 	 	 	 	 	 	 	 	1581509991	0.87	1.61
12/02/2020 12:19:52	120220	12022020	121952	90.28	12.418783	-57.245040	90.24	0.050	-1.380	1.170	90.25	-2.60	1.70	 	 	 	 	 	 	 	 	 	 	 	 	 	 	 	 	 	 	1581509992	0.37	0.69
12/02/2020 12:19:53	120220	12022020	121953	90.03	12.418783	-57.245042	89.96	0.210	-0.960	1.520	89.96	-2.20	2.10	 	 	 	 	 	 	 	 	 	 	 	 	 	 	 	 	 	 	1581509993	0.31	0.57
12/02/2020 12:19:54	120220	12022020	121954	89.72	12.418783	-57.245042	89.69	0.630	-0.670	1.780	89.68	-1.90	2.20	 	 	 	 	 	 	 	 	 	 	 	 	 	 	 	 	 	 	1581509994	0.13	0.24
12/02/2020 12:19:55	120220	12022020	121955	89.61	12.418785	-57.245040	89.64	0.860	-0.330	1.660	89.63	-1.50	2.00	 	 	 	 	 	 	 	 	 	 	 	 	 	 	 	 	 	 	1581509995	0.44	0.81
12/02/2020 12:19:56	120220	12022020	121956	89.80	12.418788	-57.245038	89.88	0.510	0.310	1.330	89.87	-0.80	1.70	 	 	 	 	 	 	 	 	 	 	 	 	 	 	 	 	 	 	1581509996	0.65	1.20
12/02/2020 12:19:57	120220	12022020	121957	90.16	12.418790	-57.245040	90.23	-0.290	1.190	1.130	90.23	0.10	1.50	 	 	 	 	 	 	 	 	 	 	 	 	 	 	 	 	 	 	1581509997	0.48	0.89
12/02/2020 12:19:58	120220	12022020	121958	90.39	12.418788	-57.245043	90.41	-1.020	1.670	1.150	90.40	0.30	1.60	 	 	 	 	 	 	 	 	 	 	 	 	 	 	 	 	 	 	1581509998	0.88	1.63
12/02/2020 12:19:59	120220	12022020	121959	90.34	12.418788	-57.245047	90.29	-1.160	1.090	1.300	90.30	-0.70	1.80	 	 	 	 	 	 	 	 	 	 	 	 	 	 	 	 	 	 	1581509999	0.76	1.41
12/02/2020 12:20:00	120220	12022020	122000	90.10	12.418787	-57.245047	90.04	-0.680	-0.460	1.410	90.06	-2.30	1.80	 	 	 	 	 	 	 	 	 	 	 	 	 	 	 	 	 	 	1581510000	0.40	0.74
12/02/2020 12:20:01	120220	12022020	122001	89.95	12.418787	-57.245040	89.94	0.030	-1.950	1.390	89.95	-3.50	1.80	 	 	 	 	 	 	 	 	 	 	 	 	 	 	 	 	 	 	1581510001	1.21	2.24
12/02/2020 12:20:02	120220	12022020	122002	89.96	12.418785	-57.245035	89.95	0.520	-2.260	1.400	89.95	-3.40	1.90	1016.50	26.50	26.60	21.10	21.10	231.0	72.0	72.0	410.0	27.4	344.00	10.50	73.00	10.20	21765	9843.0	27.6	27.6	1581510002	1.12	2.07
12/02/2020 12:20:03	120220	12022020	122003	89.86	12.418785	-57.245035	89.79	0.700	-1.340	1.440	89.80	-2.30	1.90	 	 	 	 	 	 	 	 	 	 	 	 	 	 	 	 	 	 	1581510003	0.02	0.04
12/02/2020 12:20:04	120220	12022020	122004	89.54	12.418788	-57.245040	89.46	0.660	-0.030	1.240	89.48	-1.00	1.50	 	 	 	 	 	 	 	 	 	 	 	 	 	 	 	 	 	 	1581510004	1.06	1.96
12/02/2020 12:20:05	120220	12022020	122005	89.34	12.418793	-57.245043	89.31	0.580	0.750	0.620	89.34	-0.50	0.80	 	 	 	 	 	 	 	 	 	 	 	 	 	 	 	 	 	 	1581510005	1.43	2.65
12/02/2020 12:20:06	120220	12022020	122006	89.44	12.418800	-57.245045	89.48	0.460	0.740	-0.010	89.50	-0.70	0.30	 	 	 	 	 	 	 	 	 	 	 	 	 	 	 	 	 	 	1581510006	1.47	2.72
12/02/2020 12:20:07	120220	12022020	122007	89.81	12.418805	-57.245043	89.90	0.120	0.390	-0.300	89.91	-1.00	0.10	 	 	 	 	 	 	 	 	 	 	 	 	 	 	 	 	 	 	1581510007	1.22	2.26
12/02/2020 12:20:08	120220	12022020	122008	90.23	12.418807	-57.245042	90.27	-0.480	0.250	-0.220	90.23	-1.10	0.10	 	 	 	 	 	 	 	 	 	 	 	 	 	 	 	 	 	 	1581510008	0.46	0.85
12/02/2020 12:20:09	120220	12022020	122009	90.35	12.418803	-57.245043	90.30	-1.000	0.220	0.300	90.31	-1.20	1.00	 	 	 	 	 	 	 	 	 	 	 	 	 	 	 	 	 	 	1581510009	0.61	1.13
12/02/2020 12:20:10	120220	12022020	122010	90.02	12.418798	-57.245045	89.90	-1.000	-0.110	1.290	89.90	-1.60	2.10	 	 	 	 	 	 	 	 	 	 	 	 	 	 	 	 	 	 	1581510010	1.25	2.31
12/02/2020 12:20:11	120220	12022020	122011	89.40	12.418792	-57.245045	89.29	-0.440	-0.640	2.360	89.28	-2.10	3.00	 	 	 	 	 	 	 	 	 	 	 	 	 	 	 	 	 	 	1581510011	1.43	2.65
12/02/2020 12:20:12	120220	12022020	122012	88.95	12.418787	-57.245043	88.96	0.260	-1.000	2.840	88.92	-2.40	3.30	 	 	 	 	 	 	 	 	 	 	 	 	 	 	 	 	 	 	1581510012	1.03	1.91
12/02/2020 12:20:13	120220	12022020	122013	88.96	12.418787	-57.245042	89.04	0.690	-0.910	2.610	89.00	-2.10	2.90	 	 	 	 	 	 	 	 	 	 	 	 	 	 	 	 	 	 	1581510013	0.21	0.39
12/02/2020 12:20:14	120220	12022020	122014	89.24	12.418790	-57.245043	89.34	0.640	-0.400	1.940	89.31	-1.60	2.10	 	 	 	 	 	 	 	 	 	 	 	 	 	 	 	 	 	 	1581510014	0.71	1.31
12/02/2020 12:20:15	120220	12022020	122015	89.53	12.418795	-57.245047	89.57	0.290	0.070	1.190	89.57	-1.20	1.40	 	 	 	 	 	 	 	 	 	 	 	 	 	 	 	 	 	 	1581510015	1.27	2.35
12/02/2020 12:20:16	120220	12022020	122016	89.58	12.418800	-57.245048	89.55	-0.040	0.150	0.740	89.57	-1.20	1.10	 	 	 	 	 	 	 	 	 	 	 	 	 	 	 	 	 	 	1581510016	1.15	2.13
12/02/2020 12:20:17	120220	12022020	122017	89.48	12.418802	-57.245047	89.43	-0.110	0.030	0.520	89.46	-1.40	0.90	 	 	 	 	 	 	 	 	 	 	 	 	 	 	 	 	 	 	1581510017	0.48	0.89
12/02/2020 12:20:18	120220	12022020	122018	89.34	12.418803	-57.245047	89.28	0.010	-0.050	0.410	89.31	-1.40	0.80	 	 	 	 	 	 	 	 	 	 	 	 	 	 	 	 	 	 	1581510018	0.20	0.37
12/02/2020 12:20:19	120220	12022020	122019	89.15	12.418803	-57.245047	89.09	0.100	-0.080	0.480	89.11	-1.40	1.00	 	 	 	 	 	 	 	 	 	 	 	 	 	 	 	 	 	 	1581510019	0.16	0.30
12/02/2020 12:20:20	120220	12022020	122020	88.95	12.418805	-57.245047	88.90	0.010	-0.120	0.670	88.91	-1.50	1.10	 	 	 	 	 	 	 	 	 	 	 	 	 	 	 	 	 	 	1581510020	0.19	0.35
12/02/2020 12:20:21	120220	12022020	122021	88.91	12.418805	-57.245047	88.96	-0.230	-0.050	0.710	88.96	-1.30	1.10	 	 	 	 	 	 	 	 	 	 	 	 	 	 	 	 	 	 	1581510021	0.20	0.37
12/02/2020 12:20:22	120220	12022020	122022	89.26	12.418807	-57.245048	89.38	-0.420	0.110	0.570	89.37	-1.20	1.00	 	 	 	 	 	 	 	 	 	 	 	 	 	 	 	 	 	 	1581510022	0.32	0.59
12/02/2020 12:20:23	120220	12022020	122023	89.79	12.418807	-57.245050	89.89	-0.350	0.080	0.540	89.87	-1.40	1.00	 	 	 	 	 	 	 	 	 	 	 	 	 	 	 	 	 	 	1581510023	0.43	0.80
12/02/2020 12:20:24	120220	12022020	122024	90.04	12.418805	-57.245052	90.03	0.030	-0.340	0.970	90.03	-1.90	1.60	 	 	 	 	 	 	 	 	 	 	 	 	 	 	 	 	 	 	1581510024	0.36	0.67
12/02/2020 12:20:25	120220	12022020	122025	89.78	12.418802	-57.245050	89.69	0.450	-0.910	1.820	89.69	-2.40	2.50	 	 	 	 	 	 	 	 	 	 	 	 	 	 	 	 	 	 	1581510025	0.83	1.54
12/02/2020 12:20:26	120220	12022020	122026	89.26	12.418797	-57.245047	89.20	0.570	-1.010	2.620	89.17	-2.20	3.20	 	 	 	 	 	 	 	 	 	 	 	 	 	 	 	 	 	 	1581510026	1.13	2.09
12/02/2020 12:20:27	120220	12022020	122027	88.99	12.418793	-57.245045	89.02	0.320	-0.470	2.890	88.98	-1.60	3.20	 	 	 	 	 	 	 	 	 	 	 	 	 	 	 	 	 	 	1581510027	0.68	1.26
12/02/2020 12:20:28	120220	12022020	122028	89.06	12.418795	-57.245048	89.13	-0.070	0.260	2.470	89.10	-0.90	2.60	 	 	 	 	 	 	 	 	 	 	 	 	 	 	 	 	 	 	1581510028	0.50	0.93
12/02/2020 12:20:29	120220	12022020	122029	89.26	12.418798	-57.245052	89.31	-0.330	0.640	1.590	89.30	-0.70	1.70	 	 	 	 	 	 	 	 	 	 	 	 	 	 	 	 	 	 	1581510029	1.10	2.04
12/02/2020 12:20:30	120220	12022020	122030	89.43	12.418805	-57.245053	89.45	-0.310	0.440	0.630	89.46	-1.10	0.80	 	 	 	 	 	 	 	 	 	 	 	 	 	 	 	 	 	 	1581510030	1.38	2.56
12/02/2020 12:20:31	120220	12022020	122031	89.54	12.418810	-57.245052	89.55	-0.120	-0.090	-0.070	89.56	-1.60	0.20	 	 	 	 	 	 	 	 	 	 	 	 	 	 	 	 	 	 	1581510031	1.25	2.31
12/02/2020 12:20:32	120220	12022020	122032	89.71	12.418813	-57.245050	89.76	0.010	-0.450	-0.450	89.77	-1.80	-0.10	 	 	 	 	 	 	 	 	 	 	 	 	 	 	 	 	 	 	1581510032	0.91	1.69
12/02/2020 12:20:33	120220	12022020	122033	90.01	12.418815	-57.245048	90.06	-0.050	-0.430	-0.530	90.07	-1.70	-0.10	 	 	 	 	 	 	 	 	 	 	 	 	 	 	 	 	 	 	1581510033	0.26	0.48
12/02/2020 12:20:34	120220	12022020	122034	90.23	12.418813	-57.245050	90.24	-0.180	-0.230	-0.250	90.24	-1.50	0.40	 	 	 	 	 	 	 	 	 	 	 	 	 	 	 	 	 	 	1581510034	0.44	0.81
12/02/2020 12:20:35	120220	12022020	122035	90.15	12.418810	-57.245052	90.09	-0.140	-0.160	0.450	90.09	-1.50	1.20	 	 	 	 	 	 	 	 	 	 	 	 	 	 	 	 	 	 	1581510035	0.90	1.67
12/02/2020 12:20:36	120220	12022020	122036	89.73	12.418805	-57.245052	89.63	0.160	-0.410	1.320	89.63	-1.90	2.00	 	 	 	 	 	 	 	 	 	 	 	 	 	 	 	 	 	 	1581510036	0.98	1.81
12/02/2020 12:20:37	120220	12022020	122037	89.15	12.418802	-57.245050	89.06	0.590	-0.870	2.020	89.04	-2.30	2.60	 	 	 	 	 	 	 	 	 	 	 	 	 	 	 	 	 	 	1581510037	0.68	1.26
12/02/2020 12:20:38	120220	12022020	122038	88.68	12.418803	-57.245047	88.68	0.850	-1.110	2.310	88.64	-2.40	2.70	 	 	 	 	 	 	 	 	 	 	 	 	 	 	 	 	 	 	1581510038	0.76	1.41
12/02/2020 12:20:39	120220	12022020	122039	88.76	12.418805	-57.245045	88.93	0.600	-0.480	2.080	88.87	-1.40	2.40	 	 	 	 	 	 	 	 	 	 	 	 	 	 	 	 	 	 	1581510039	0.90	1.67
12/02/2020 12:20:40	120220	12022020	122040	89.44	12.418810	-57.245047	89.66	-0.190	0.840	1.570	89.61	-0.10	1.80	 	 	 	 	 	 	 	 	 	 	 	 	 	 	 	 	 	 	1581510040	0.92	1.70
12/02/2020 12:20:41	120220	12022020	122041	90.25	12.418810	-57.245053	90.43	-1.060	1.790	1.090	90.40	0.50	1.40	 	 	 	 	 	 	 	 	 	 	 	 	 	 	 	 	 	 	1581510041	1.34	2.48
12/02/2020 12:20:42	120220	12022020	122042	90.82	12.418808	-57.245057	90.91	-1.410	1.580	0.940	90.88	-0.10	1.40	 	 	 	 	 	 	 	 	 	 	 	 	 	 	 	 	 	 	1581510042	1.13	2.09
12/02/2020 12:20:43	120220	12022020	122043	90.88	12.418803	-57.245058	90.82	-0.960	0.370	1.160	90.81	-1.40	1.70	 	 	 	 	 	 	 	 	 	 	 	 	 	 	 	 	 	 	1581510043	1.00	1.85
12/02/2020 12:20:44	120220	12022020	122044	90.40	12.418800	-57.245053	90.26	-0.040	-1.120	1.580	90.26	-2.90	2.10	 	 	 	 	 	 	 	 	 	 	 	 	 	 	 	 	 	 	1581510044	1.15	2.13
12/02/2020 12:20:45	120220	12022020	122045	89.76	12.418798	-57.245050	89.65	0.760	-2.160	1.900	89.65	-3.60	2.40	 	 	 	 	 	 	 	 	 	 	 	 	 	 	 	 	 	 	1581510045	1.02	1.89
12/02/2020 12:20:46	120220	12022020	122046	89.35	12.418800	-57.245045	89.31	1.120	-2.320	1.940	89.30	-3.50	2.30	 	 	 	 	 	 	 	 	 	 	 	 	 	 	 	 	 	 	1581510046	0.79	1.46
12/02/2020 12:20:47	120220	12022020	122047	89.22	12.418803	-57.245045	89.22	1.070	-1.510	1.660	89.22	-2.40	1.90	 	 	 	 	 	 	 	 	 	 	 	 	 	 	 	 	 	 	1581510047	0.63	1.17
12/02/2020 12:20:48	120220	12022020	122048	89.34	12.418807	-57.245047	89.40	0.720	-0.080	1.050	89.40	-1.00	1.20	 	 	 	 	 	 	 	 	 	 	 	 	 	 	 	 	 	 	1581510048	0.90	1.67
12/02/2020 12:20:49	120220	12022020	122049	89.75	12.418812	-57.245050	89.84	0.180	1.190	0.370	89.85	0.10	0.60	 	 	 	 	 	 	 	 	 	 	 	 	 	 	 	 	 	 	1581510049	1.29	2.39
12/02/2020 12:20:50	120220	12022020	122050	90.30	12.418815	-57.245053	90.38	-0.480	1.840	0.040	90.39	0.50	0.50	 	 	 	 	 	 	 	 	 	 	 	 	 	 	 	 	 	 	1581510050	0.99	1.83
12/02/2020 12:20:51	120220	12022020	122051	90.67	12.418815	-57.245055	90.68	-1.080	1.700	0.240	90.69	0.10	0.80	 	 	 	 	 	 	 	 	 	 	 	 	 	 	 	 	 	 	1581510051	0.39	0.72
12/02/2020 12:20:52	120220	12022020	122052	90.64	12.418810	-57.245055	90.57	-1.280	0.750	0.840	90.58	-1.00	1.50	 	 	 	 	 	 	 	 	 	 	 	 	 	 	 	 	 	 	1581510052	0.96	1.78
12/02/2020 12:20:53	120220	12022020	122053	90.25	12.418803	-57.245053	90.14	-0.880	-0.590	1.560	90.14	-2.30	2.20	 	 	 	 	 	 	 	 	 	 	 	 	 	 	 	 	 	 	1581510053	1.54	2.85
12/02/2020 12:20:54	120220	12022020	122054	89.71	12.418798	-57.245048	89.63	-0.060	-1.600	2.130	89.62	-3.10	2.70	 	 	 	 	 	 	 	 	 	 	 	 	 	 	 	 	 	 	1581510054	1.37	2.54
12/02/2020 12:20:55	120220	12022020	122055	89.41	12.418797	-57.245047	89.43	0.710	-1.850	2.280	89.40	-3.10	2.60	 	 	 	 	 	 	 	 	 	 	 	 	 	 	 	 	 	 	1581510055	0.59	1.09
12/02/2020 12:20:56	120220	12022020	122056	89.56	12.418798	-57.245047	89.65	1.070	-1.400	1.880	89.63	-2.50	2.10	 	 	 	 	 	 	 	 	 	 	 	 	 	 	 	 	 	 	1581510056	0.41	0.76
12/02/2020 12:20:57	120220	12022020	122057	89.95	12.418803	-57.245048	90.03	0.970	-0.650	1.150	90.02	-1.80	1.40	 	 	 	 	 	 	 	 	 	 	 	 	 	 	 	 	 	 	1581510057	1.04	1.93
12/02/2020 12:20:58	120220	12022020	122058	90.29	12.418808	-57.245052	90.33	0.610	0.010	0.590	90.34	-1.20	0.90	 	 	 	 	 	 	 	 	 	 	 	 	 	 	 	 	 	 	1581510058	1.09	2.02
12/02/2020 12:20:59	120220	12022020	122059	90.46	12.418810	-57.245052	90.45	0.130	0.490	0.450	90.48	-0.70	0.90	 	 	 	 	 	 	 	 	 	 	 	 	 	 	 	 	 	 	1581510059	0.45	0.83
12/02/2020 12:21:00	120220	12022020	122100	90.47	12.418808	-57.245052	90.42	-0.340	0.780	0.660	90.45	-0.50	1.20	 	 	 	 	 	 	 	 	 	 	 	 	 	 	 	 	 	 	1581510060	0.25	0.46
12/02/2020 12:21:01	120220	12022020	122101	90.30	12.418805	-57.245052	90.24	-0.650	0.790	1.090	90.25	-0.60	1.70	 	 	 	 	 	 	 	 	 	 	 	 	 	 	 	 	 	 	1581510061	0.70	1.30
12/02/2020 12:21:02	120220	12022020	122102	90.01	12.418802	-57.245052	89.94	-0.650	0.400	1.450	89.96	-1.10	1.90	1016.50	26.40	26.50	21.00	21.10	211.0	72.0	72.0	411.0	27.3	345.00	11.10	74.00	10.70	21071	10581.0	27.6	27.6	1581510062	0.83	1.54
12/02/2020 12:21:03	120220	12022020	122103	89.79	12.418800	-57.245050	89.76	-0.390	-0.210	1.490	89.78	-1.70	1.90	 	 	 	 	 	 	 	 	 	 	 	 	 	 	 	 	 	 	1581510063	0.53	0.98
12/02/2020 12:21:04	120220	12022020	122104	89.82	12.418800	-57.245048	89.85	-0.090	-0.620	1.210	89.87	-2.00	1.50	 	 	 	 	 	 	 	 	 	 	 	 	 	 	 	 	 	 	1581510064	0.41	0.76
12/02/2020 12:21:05	120220	12022020	122105	90.14	12.418802	-57.245048	90.22	0.130	-0.680	0.820	90.23	-2.00	1.10	 	 	 	 	 	 	 	 	 	 	 	 	 	 	 	 	 	 	1581510065	0.53	0.98
12/02/2020 12:21:06	120220	12022020	122106	90.57	12.418805	-57.245048	90.61	0.250	-0.570	0.540	90.64	-1.90	0.90	 	 	 	 	 	 	 	 	 	 	 	 	 	 	 	 	 	 	1581510066	0.71	1.31
12/02/2020 12:21:07	120220	12022020	122107	90.77	12.418808	-57.245050	90.74	0.320	-0.530	0.590	90.78	-1.90	1.10	 	 	 	 	 	 	 	 	 	 	 	 	 	 	 	 	 	 	1581510067	0.49	0.91
12/02/2020 12:21:08	120220	12022020	122108	90.71	12.418807	-57.245050	90.65	0.370	-0.520	0.940	90.68	-1.80	1.50	 	 	 	 	 	 	 	 	 	 	 	 	 	 	 	 	 	 	1581510068	0.11	0.20
12/02/2020 12:21:09	120220	12022020	122109	90.58	12.418803	-57.245048	90.53	0.360	-0.440	1.470	90.55	-1.70	2.10	 	 	 	 	 	 	 	 	 	 	 	 	 	 	 	 	 	 	1581510069	0.67	1.24
12/02/2020 12:21:10	120220	12022020	122110	90.41	12.418800	-57.245047	90.37	0.270	-0.330	2.060	90.37	-1.60	2.60	 	 	 	 	 	 	 	 	 	 	 	 	 	 	 	 	 	 	1581510070	0.93	1.72
12/02/2020 12:21:11	120220	12022020	122111	90.32	12.418797	-57.245047	90.34	0.060	-0.090	2.390	90.34	-1.30	2.80	 	 	 	 	 	 	 	 	 	 	 	 	 	 	 	 	 	 	1581510071	0.84	1.56
12/02/2020 12:21:12	120220	12022020	122112	90.46	12.418795	-57.245047	90.50	-0.220	0.310	2.310	90.49	-0.90	2.60	 	 	 	 	 	 	 	 	 	 	 	 	 	 	 	 	 	 	1581510072	0.39	0.72
12/02/2020 12:21:13	120220	12022020	122113	90.63	12.418795	-57.245047	90.64	-0.450	0.650	1.900	90.65	-0.60	2.10	 	 	 	 	 	 	 	 	 	 	 	 	 	 	 	 	 	 	1581510073	0.28	0.52
12/02/2020 12:21:14	120220	12022020	122114	90.75	12.418797	-57.245048	90.75	-0.560	0.760	1.210	90.78	-0.60	1.40	 	 	 	 	 	 	 	 	 	 	 	 	 	 	 	 	 	 	1581510074	0.54	1.00
12/02/2020 12:21:15	120220	12022020	122115	90.87	12.418800	-57.245050	90.83	-0.480	0.440	0.520	90.88	-1.10	0.80	 	 	 	 	 	 	 	 	 	 	 	 	 	 	 	 	 	 	1581510075	0.81	1.50
12/02/2020 12:21:16	120220	12022020	122116	90.92	12.418805	-57.245050	90.88	-0.200	-0.340	0.050	90.93	-1.90	0.40	 	 	 	 	 	 	 	 	 	 	 	 	 	 	 	 	 	 	1581510076	0.86	1.59
12/02/2020 12:21:17	120220	12022020	122117	90.97	12.418807	-57.245047	90.93	0.170	-1.180	-0.090	90.98	-2.70	0.40	 	 	 	 	 	 	 	 	 	 	 	 	 	 	 	 	 	 	1581510077	0.83	1.54
12/02/2020 12:21:18	120220	12022020	122118	90.98	12.418808	-57.245043	90.92	0.490	-1.610	0.170	90.97	-2.90	0.80	 	 	 	 	 	 	 	 	 	 	 	 	 	 	 	 	 	 	1581510078	0.67	1.24
12/02/2020 12:21:19	120220	12022020	122119	90.91	12.418807	-57.245042	90.86	0.710	-1.350	0.630	90.89	-2.40	1.20	 	 	 	 	 	 	 	 	 	 	 	 	 	 	 	 	 	 	1581510079	0.50	0.93
12/02/2020 12:21:20	120220	12022020	122120	90.89	12.418805	-57.245042	90.89	0.680	-0.490	1.120	90.91	-1.50	1.70	 	 	 	 	 	 	 	 	 	 	 	 	 	 	 	 	 	 	1581510080	0.38	0.70
12/02/2020 12:21:21	120220	12022020	122121	91.08	12.418803	-57.245043	91.12	0.300	0.490	1.680	91.13	-0.60	2.30	 	 	 	 	 	 	 	 	 	 	 	 	 	 	 	 	 	 	1581510081	0.58	1.07
12/02/2020 12:21:22	120220	12022020	122122	91.28	12.418800	-57.245047	91.30	-0.330	1.020	2.260	91.30	-0.30	2.80	 	 	 	 	 	 	 	 	 	 	 	 	 	 	 	 	 	 	1581510082	0.91	1.69
12/02/2020 12:21:23	120220	12022020	122123	91.24	12.418795	-57.245047	91.20	-0.850	0.920	2.640	91.20	-0.50	3.10	 	 	 	 	 	 	 	 	 	 	 	 	 	 	 	 	 	 	1581510083	0.93	1.72
12/02/2020 12:21:24	120220	12022020	122124	90.93	12.418792	-57.245047	90.85	-0.890	0.500	2.760	90.85	-1.00	3.10	 	 	 	 	 	 	 	 	 	 	 	 	 	 	 	 	 	 	1581510084	0.65	1.20
12/02/2020 12:21:25	120220	12022020	122125	90.66	12.418792	-57.245045	90.64	-0.490	-0.040	2.460	90.64	-1.60	2.70	 	 	 	 	 	 	 	 	 	 	 	 	 	 	 	 	 	 	1581510085	0.30	0.56
12/02/2020 12:21:26	120220	12022020	122126	90.71	12.418795	-57.245043	90.75	0.020	-0.620	1.860	90.75	-2.10	2.10	 	 	 	 	 	 	 	 	 	 	 	 	 	 	 	 	 	 	1581510086	0.65	1.20
12/02/2020 12:21:27	120220	12022020	122127	90.96	12.418798	-57.245042	90.99	0.390	-1.130	1.180	91.01	-2.60	1.40	 	 	 	 	 	 	 	 	 	 	 	 	 	 	 	 	 	 	1581510087	0.87	1.61
12/02/2020 12:21:28	120220	12022020	122128	91.18	12.418802	-57.245040	91.18	0.550	-1.370	0.540	91.21	-2.70	0.80	 	 	 	 	 	 	 	 	 	 	 	 	 	 	 	 	 	 	1581510088	0.83	1.54
12/02/2020 12:21:29	120220	12022020	122129	91.27	12.418803	-57.245037	91.22	0.570	-1.170	0.210	91.26	-2.30	0.60	 	 	 	 	 	 	 	 	 	 	 	 	 	 	 	 	 	 	1581510089	0.61	1.13
12/02/2020 12:21:30	120220	12022020	122130	91.14	12.418803	-57.245037	91.04	0.470	-0.400	0.300	91.09	-1.40	0.80	 	 	 	 	 	 	 	 	 	 	 	 	 	 	 	 	 	 	1581510090	0.21	0.39
12/02/2020 12:21:31	120220	12022020	122131	90.85	12.418803	-57.245038	90.72	0.120	0.800	0.600	90.78	-0.20	1.10	 	 	 	 	 	 	 	 	 	 	 	 	 	 	 	 	 	 	1581510091	0.41	0.76
12/02/2020 12:21:32	120220	12022020	122132	90.53	12.418805	-57.245043	90.44	-0.390	1.670	0.790	90.49	0.40	1.20	 	 	 	 	 	 	 	 	 	 	 	 	 	 	 	 	 	 	1581510092	1.02	1.89
12/02/2020 12:21:33	120220	12022020	122133	90.41	12.418807	-57.245047	90.37	-0.760	1.390	0.730	90.41	-0.30	1.10	 	 	 	 	 	 	 	 	 	 	 	 	 	 	 	 	 	 	1581510093	0.90	1.67
12/02/2020 12:21:34	120220	12022020	122134	90.49	12.418808	-57.245045	90.49	-0.710	-0.040	0.740	90.52	-1.90	1.20	 	 	 	 	 	 	 	 	 	 	 	 	 	 	 	 	 	 	1581510094	0.47	0.87
12/02/2020 12:21:35	120220	12022020	122135	90.60	12.418808	-57.245040	90.60	-0.280	-1.560	1.110	90.62	-3.20	1.70	 	 	 	 	 	 	 	 	 	 	 	 	 	 	 	 	 	 	1581510095	1.24	2.30
12/02/2020 12:21:36	120220	12022020	122136	90.55	12.418803	-57.245033	90.49	0.160	-2.180	1.750	90.51	-3.50	2.40	 	 	 	 	 	 	 	 	 	 	 	 	 	 	 	 	 	 	1581510096	1.61	2.98
12/02/2020 12:21:37	120220	12022020	122137	90.30	12.418797	-57.245032	90.24	0.410	-1.700	2.220	90.24	-2.70	2.70	 	 	 	 	 	 	 	 	 	 	 	 	 	 	 	 	 	 	1581510097	1.42	2.63
12/02/2020 12:21:38	120220	12022020	122138	90.06	12.418793	-57.245033	90.02	0.480	-0.540	2.130	90.02	-1.50	2.40	 	 	 	 	 	 	 	 	 	 	 	 	 	 	 	 	 	 	1581510098	0.83	1.54
12/02/2020 12:21:39	120220	12022020	122139	89.95	12.418795	-57.245037	89.94	0.370	0.750	1.560	89.95	-0.30	1.70	 	 	 	 	 	 	 	 	 	 	 	 	 	 	 	 	 	 	1581510099	0.85	1.57
12/02/2020 12:21:40	120220	12022020	122140	90.06	12.418802	-57.245040	90.07	0.070	1.550	0.740	90.09	0.30	0.90	 	 	 	 	 	 	 	 	 	 	 	 	 	 	 	 	 	 	1581510100	1.47	2.72
12/02/2020 12:21:41	120220	12022020	122141	90.27	12.418808	-57.245043	90.26	-0.320	1.440	-0.020	90.30	-0.10	0.30	 	 	 	 	 	 	 	 	 	 	 	 	 	 	 	 	 	 	1581510101	1.56	2.89
12/02/2020 12:21:42	120220	12022020	122142	90.30	12.418813	-57.245043	90.24	-0.620	0.500	-0.350	90.28	-1.20	0.10	 	 	 	 	 	 	 	 	 	 	 	 	 	 	 	 	 	 	1581510102	1.09	2.02
12/02/2020 12:21:43	120220	12022020	122143	90.16	12.418813	-57.245040	90.08	-0.620	-0.680	-0.200	90.12	-2.40	0.40	 	 	 	 	 	 	 	 	 	 	 	 	 	 	 	 	 	 	1581510103	0.70	1.30
12/02/2020 12:21:44	120220	12022020	122144	89.96	12.418812	-57.245035	89.89	-0.230	-1.580	0.260	89.92	-3.10	0.80	 	 	 	 	 	 	 	 	 	 	 	 	 	 	 	 	 	 	1581510104	0.95	1.76
12/02/2020 12:21:45	120220	12022020	122145	89.79	12.418808	-57.245033	89.76	0.370	-1.920	0.690	89.78	-3.20	1.20	 	 	 	 	 	 	 	 	 	 	 	 	 	 	 	 	 	 	1581510105	0.98	1.81
12/02/2020 12:21:46	120220	12022020	122146	89.78	12.418807	-57.245032	89.78	0.780	-1.470	0.990	89.79	-2.50	1.50	 	 	 	 	 	 	 	 	 	 	 	 	 	 	 	 	 	 	1581510106	0.49	0.91
12/02/2020 12:21:47	120220	12022020	122147	89.84	12.418807	-57.245032	89.86	0.710	-0.390	1.390	89.85	-1.30	2.00	 	 	 	 	 	 	 	 	 	 	 	 	 	 	 	 	 	 	1581510107	0.24	0.44
12/02/2020 12:21:48	120220	12022020	122148	89.89	12.418805	-57.245035	89.91	0.240	0.850	1.800	89.90	-0.20	2.30	 	 	 	 	 	 	 	 	 	 	 	 	 	 	 	 	 	 	1581510108	0.77	1.43
12/02/2020 12:21:49	120220	12022020	122149	89.95	12.418803	-57.245040	90.00	-0.370	1.490	1.830	89.98	0.10	2.20	 	 	 	 	 	 	 	 	 	 	 	 	 	 	 	 	 	 	1581510109	0.82	1.52
12/02/2020 12:21:50	120220	12022020	122150	90.18	12.418805	-57.245042	90.28	-0.820	1.260	1.540	90.26	-0.30	1.90	 	 	 	 	 	 	 	 	 	 	 	 	 	 	 	 	 	 	1581510110	0.33	0.61
12/02/2020 12:21:51	120220	12022020	122151	90.62	12.418805	-57.245040	90.72	-0.940	0.530	1.210	90.69	-1.10	1.60	 	 	 	 	 	 	 	 	 	 	 	 	 	 	 	 	 	 	1581510111	0.21	0.39
12/02/2020 12:21:52	120220	12022020	122152	90.92	12.418803	-57.245038	90.93	-0.660	-0.380	1.100	90.93	-2.00	1.60	 	 	 	 	 	 	 	 	 	 	 	 	 	 	 	 	 	 	1581510112	0.38	0.70
12/02/2020 12:21:53	120220	12022020	122153	90.75	12.418802	-57.245037	90.65	-0.020	-1.390	1.350	90.67	-3.00	1.90	 	 	 	 	 	 	 	 	 	 	 	 	 	 	 	 	 	 	1581510113	0.54	1.00
12/02/2020 12:21:54	120220	12022020	122154	90.29	12.418802	-57.245033	90.21	0.710	-2.120	1.670	90.21	-3.50	2.20	 	 	 	 	 	 	 	 	 	 	 	 	 	 	 	 	 	 	1581510114	0.83	1.54
12/02/2020 12:21:55	120220	12022020	122155	90.04	12.418802	-57.245028	90.05	1.120	-1.840	1.760	90.04	-2.80	2.10	 	 	 	 	 	 	 	 	 	 	 	 	 	 	 	 	 	 	1581510115	0.79	1.46
12/02/2020 12:21:56	120220	12022020	122156	90.18	12.418802	-57.245030	90.25	0.930	-0.370	1.540	90.24	-1.20	1.90	 	 	 	 	 	 	 	 	 	 	 	 	 	 	 	 	 	 	1581510116	0.19	0.35
12/02/2020 12:21:57	120220	12022020	122157	90.49	12.418805	-57.245035	90.55	0.300	1.210	1.190	90.55	0.20	1.50	 	 	 	 	 	 	 	 	 	 	 	 	 	 	 	 	 	 	1581510117	1.28	2.37
12/02/2020 12:21:58	120220	12022020	122158	90.76	12.418807	-57.245040	90.79	-0.370	1.870	0.830	90.80	0.50	1.10	 	 	 	 	 	 	 	 	 	 	 	 	 	 	 	 	 	 	1581510118	1.34	2.48
12/02/2020 12:21:59	120220	12022020	122159	90.99	12.418810	-57.245043	91.02	-0.720	1.380	0.450	91.04	-0.30	0.80	 	 	 	 	 	 	 	 	 	 	 	 	 	 	 	 	 	 	1581510119	0.65	1.20
12/02/2020 12:22:00	120220	12022020	122200	91.21	12.418812	-57.245040	91.24	-0.640	0.080	0.250	91.25	-1.70	0.70	 	 	 	 	 	 	 	 	 	 	 	 	 	 	 	 	 	 	1581510120	0.59	1.09
12/02/2020 12:22:01	120220	12022020	122201	91.26	12.418812	-57.245035	91.22	-0.340	-1.250	0.610	91.23	-2.90	1.30	 	 	 	 	 	 	 	 	 	 	 	 	 	 	 	 	 	 	1581510121	1.01	1.87
12/02/2020 12:22:02	120220	12022020	122202	91.01	12.418808	-57.245032	90.94	-0.060	-1.780	1.390	90.95	-3.00	2.10	1016.60	26.40	26.50	20.90	20.90	154.0	71.0	71.0	416.0	27.3	344.00	10.50	74.00	10.20	18725	10369.0	27.6	27.5	1581510122	1.10	2.04
12/02/2020 12:22:03	120220	12022020	122203	90.75	12.418803	-57.245030	90.73	0.060	-1.240	2.020	90.71	-2.20	2.60	 	 	 	 	 	 	 	 	 	 	 	 	 	 	 	 	 	 	1581510123	1.04	1.93
12/02/2020 12:22:04	120220	12022020	122204	90.67	12.418800	-57.245035	90.70	0.050	-0.170	2.250	90.68	-1.20	2.70	 	 	 	 	 	 	 	 	 	 	 	 	 	 	 	 	 	 	1581510124	1.11	2.06
12/02/2020 12:22:05	120220	12022020	122205	90.72	12.418798	-57.245040	90.75	0.080	0.470	2.210	90.73	-0.90	2.60	 	 	 	 	 	 	 	 	 	 	 	 	 	 	 	 	 	 	1581510125	1.09	2.02
12/02/2020 12:22:06	120220	12022020	122206	90.80	12.418800	-57.245042	90.84	0.330	0.170	1.950	90.82	-1.40	2.20	 	 	 	 	 	 	 	 	 	 	 	 	 	 	 	 	 	 	1581510126	0.38	0.70
12/02/2020 12:22:07	120220	12022020	122207	90.95	12.418802	-57.245038	90.99	0.660	-0.570	1.350	90.99	-2.10	1.50	 	 	 	 	 	 	 	 	 	 	 	 	 	 	 	 	 	 	1581510127	0.82	1.52
12/02/2020 12:22:08	120220	12022020	122208	91.13	12.418805	-57.245033	91.14	0.750	-0.730	0.670	91.15	-1.90	0.90	 	 	 	 	 	 	 	 	 	 	 	 	 	 	 	 	 	 	1581510128	1.38	2.56
12/02/2020 12:22:09	120220	12022020	122209	91.20	12.418810	-57.245032	91.17	0.360	0.000	0.320	91.19	-1.00	0.70	 	 	 	 	 	 	 	 	 	 	 	 	 	 	 	 	 	 	1581510129	0.95	1.76
12/02/2020 12:22:10	120220	12022020	122210	91.15	12.418812	-57.245035	91.10	-0.290	0.900	0.350	91.13	-0.30	0.90	 	 	 	 	 	 	 	 	 	 	 	 	 	 	 	 	 	 	1581510130	0.93	1.72
12/02/2020 12:22:11	120220	12022020	122211	91.06	12.418813	-57.245040	91.02	-0.760	1.030	0.630	91.04	-0.50	1.20	 	 	 	 	 	 	 	 	 	 	 	 	 	 	 	 	 	 	1581510131	0.98	1.81
12/02/2020 12:22:12	120220	12022020	122212	90.99	12.418812	-57.245042	90.98	-0.770	0.260	1.000	90.98	-1.40	1.50	 	 	 	 	 	 	 	 	 	 	 	 	 	 	 	 	 	 	1581510132	0.39	0.72
12/02/2020 12:22:13	120220	12022020	122213	90.97	12.418808	-57.245038	90.99	-0.390	-0.670	1.430	90.98	-2.20	2.00	 	 	 	 	 	 	 	 	 	 	 	 	 	 	 	 	 	 	1581510133	0.69	1.28
12/02/2020 12:22:14	120220	12022020	122214	91.01	12.418807	-57.245037	91.04	0.060	-1.050	1.780	91.02	-2.40	2.30	 	 	 	 	 	 	 	 	 	 	 	 	 	 	 	 	 	 	1581510134	0.72	1.33
12/02/2020 12:22:15	120220	12022020	122215	91.07	12.418805	-57.245037	91.09	0.330	-0.990	1.990	91.07	-2.30	2.50	 	 	 	 	 	 	 	 	 	 	 	 	 	 	 	 	 	 	1581510135	0.40	0.74
12/02/2020 12:22:16	120220	12022020	122216	91.01	12.418803	-57.245037	90.99	0.470	-1.070	2.230	90.98	-2.50	2.70	 	 	 	 	 	 	 	 	 	 	 	 	 	 	 	 	 	 	1581510136	0.39	0.72
12/02/2020 12:22:17	120220	12022020	122217	90.77	12.418800	-57.245035	90.73	0.520	-1.190	2.470	90.71	-2.40	2.90	 	 	 	 	 	 	 	 	 	 	 	 	 	 	 	 	 	 	1581510137	0.71	1.31
12/02/2020 12:22:18	120220	12022020	122218	90.46	12.418798	-57.245032	90.45	0.410	-0.570	2.360	90.42	-1.50	2.60	 	 	 	 	 	 	 	 	 	 	 	 	 	 	 	 	 	 	1581510138	0.73	1.35
12/02/2020 12:22:19	120220	12022020	122219	90.41	12.418800	-57.245033	90.45	0.050	0.880	1.660	90.44	-0.00	1.70	 	 	 	 	 	 	 	 	 	 	 	 	 	 	 	 	 	 	1581510139	0.45	0.83
12/02/2020 12:22:20	120220	12022020	122220	90.67	12.418805	-57.245040	90.71	-0.380	2.080	0.460	90.73	0.80	0.50	 	 	 	 	 	 	 	 	 	 	 	 	 	 	 	 	 	 	1581510140	1.74	3.22
12/02/2020 12:22:21	120220	12022020	122221	90.92	12.418813	-57.245045	90.90	-0.560	1.820	-0.680	90.95	0.00	-0.50	 	 	 	 	 	 	 	 	 	 	 	 	 	 	 	 	 	 	1581510141	1.99	3.69
12/02/2020 12:22:22	120220	12022020	122222	90.97	12.418820	-57.245045	90.91	-0.400	0.160	-1.260	90.96	-1.80	-0.90	 	 	 	 	 	 	 	 	 	 	 	 	 	 	 	 	 	 	1581510142	1.45	2.69
12/02/2020 12:22:23	120220	12022020	122223	90.89	12.418823	-57.245038	90.82	-0.070	-1.780	-1.260	90.87	-3.60	-0.70	 	 	 	 	 	 	 	 	 	 	 	 	 	 	 	 	 	 	1581510143	1.51	2.80
12/02/2020 12:22:24	120220	12022020	122224	90.80	12.418822	-57.245032	90.76	0.210	-2.680	-0.720	90.79	-3.90	-0.00	 	 	 	 	 	 	 	 	 	 	 	 	 	 	 	 	 	 	1581510144	1.47	2.72
12/02/2020 12:22:25	120220	12022020	122225	90.74	12.418817	-57.245030	90.72	0.230	-1.880	0.340	90.73	-2.70	1.10	 	 	 	 	 	 	 	 	 	 	 	 	 	 	 	 	 	 	1581510145	1.14	2.11
12/02/2020 12:22:26	120220	12022020	122226	90.63	12.418810	-57.245035	90.62	-0.020	-0.060	1.530	90.60	-0.90	2.20	 	 	 	 	 	 	 	 	 	 	 	 	 	 	 	 	 	 	1581510146	1.96	3.63
12/02/2020 12:22:27	120220	12022020	122227	90.48	12.418803	-57.245043	90.48	-0.270	1.370	2.260	90.45	0.20	2.80	 	 	 	 	 	 	 	 	 	 	 	 	 	 	 	 	 	 	1581510147	2.32	4.30
12/02/2020 12:22:28	120220	12022020	122228	90.39	12.418800	-57.245048	90.42	-0.190	1.420	2.300	90.39	-0.20	2.60	 	 	 	 	 	 	 	 	 	 	 	 	 	 	 	 	 	 	1581510148	1.29	2.39
12/02/2020 12:22:29	120220	12022020	122229	90.42	12.418802	-57.245048	90.46	0.200	0.270	1.950	90.44	-1.60	2.20	 	 	 	 	 	 	 	 	 	 	 	 	 	 	 	 	 	 	1581510149	0.44	0.81
12/02/2020 12:22:30	120220	12022020	122230	90.51	12.418805	-57.245042	90.54	0.490	-1.050	1.560	90.53	-2.70	1.90	 	 	 	 	 	 	 	 	 	 	 	 	 	 	 	 	 	 	1581510150	1.43	2.65
12/02/2020 12:22:31	120220	12022020	122231	90.66	12.418808	-57.245037	90.70	0.350	-1.460	1.320	90.70	-2.70	1.70	 	 	 	 	 	 	 	 	 	 	 	 	 	 	 	 	 	 	1581510151	1.31	2.43
12/02/2020 12:22:32	120220	12022020	122232	90.91	12.418808	-57.245035	90.98	-0.140	-0.550	1.250	90.97	-1.50	1.60	 	 	 	 	 	 	 	 	 	 	 	 	 	 	 	 	 	 	1581510152	0.08	0.15
12/02/2020 12:22:33	120220	12022020	122233	91.15	12.418807	-57.245042	91.17	-0.500	0.740	1.160	91.17	-0.40	1.50	 	 	 	 	 	 	 	 	 	 	 	 	 	 	 	 	 	 	1581510153	1.32	2.44
12/02/2020 12:22:34	120220	12022020	122234	91.11	12.418807	-57.245048	91.03	-0.440	1.120	0.950	91.06	-0.40	1.30	 	 	 	 	 	 	 	 	 	 	 	 	 	 	 	 	 	 	1581510154	1.52	2.82
12/02/2020 12:22:35	120220	12022020	122235	90.76	12.418807	-57.245052	90.66	-0.020	0.200	0.760	90.69	-1.60	1.10	 	 	 	 	 	 	 	 	 	 	 	 	 	 	 	 	 	 	1581510155	0.48	0.89
12/02/2020 12:22:36	120220	12022020	122236	90.48	12.418810	-57.245047	90.45	0.350	-1.010	0.640	90.48	-2.60	1.10	 	 	 	 	 	 	 	 	 	 	 	 	 	 	 	 	 	 	1581510156	1.02	1.89
12/02/2020 12:22:37	120220	12022020	122237	90.62	12.418812	-57.245042	90.68	0.390	-1.370	0.630	90.69	-2.60	1.10	 	 	 	 	 	 	 	 	 	 	 	 	 	 	 	 	 	 	1581510157	1.05	1.94
12/02/2020 12:22:38	120220	12022020	122238	91.01	12.418812	-57.245042	91.08	0.180	-0.790	0.680	91.09	-1.90	1.10	 	 	 	 	 	 	 	 	 	 	 	 	 	 	 	 	 	 	1581510158	0.18	0.33
12/02/2020 12:22:39	120220	12022020	122239	91.32	12.418812	-57.245045	91.33	-0.030	-0.120	0.840	91.35	-1.30	1.30	 	 	 	 	 	 	 	 	 	 	 	 	 	 	 	 	 	 	1581510159	0.75	1.39
12/02/2020 12:22:40	120220	12022020	122240	91.33	12.418810	-57.245048	91.27	-0.120	0.200	1.230	91.29	-1.10	1.90	 	 	 	 	 	 	 	 	 	 	 	 	 	 	 	 	 	 	1581510160	0.65	1.20
12/02/2020 12:22:41	120220	12022020	122241	91.04	12.418807	-57.245048	90.97	-0.130	0.280	1.960	90.98	-1.10	2.60	 	 	 	 	 	 	 	 	 	 	 	 	 	 	 	 	 	 	1581510161	0.91	1.69
12/02/2020 12:22:42	120220	12022020	122242	90.75	12.418802	-57.245048	90.73	-0.100	0.310	2.530	90.72	-1.10	3.00	 	 	 	 	 	 	 	 	 	 	 	 	 	 	 	 	 	 	1581510162	1.11	2.06
12/02/2020 12:22:43	120220	12022020	122243	90.74	12.418800	-57.245048	90.78	-0.040	0.240	2.430	90.76	-1.20	2.70	 	 	 	 	 	 	 	 	 	 	 	 	 	 	 	 	 	 	1581510163	0.42	0.78
12/02/2020 12:22:44	120220	12022020	122244	90.96	12.418803	-57.245050	91.02	0.060	-0.070	1.750	91.02	-1.60	1.90	 	 	 	 	 	 	 	 	 	 	 	 	 	 	 	 	 	 	1581510164	0.70	1.30
12/02/2020 12:22:45	120220	12022020	122245	91.29	12.418808	-57.245048	91.36	0.150	-0.470	0.990	91.37	-1.90	1.20	 	 	 	 	 	 	 	 	 	 	 	 	 	 	 	 	 	 	1581510165	1.26	2.33
12/02/2020 12:22:46	120220	12022020	122246	91.71	12.418813	-57.245048	91.77	0.080	-0.630	0.520	91.79	-2.00	0.90	 	 	 	 	 	 	 	 	 	 	 	 	 	 	 	 	 	 	1581510166	0.98	1.81
12/02/2020 12:22:47	120220	12022020	122247	92.02	12.418813	-57.245048	92.02	-0.150	-0.560	0.570	92.04	-1.90	1.10	 	 	 	 	 	 	 	 	 	 	 	 	 	 	 	 	 	 	1581510167	0.15	0.28
12/02/2020 12:22:48	120220	12022020	122248	91.93	12.418810	-57.245048	91.83	-0.350	-0.380	1.020	91.86	-1.70	1.60	 	 	 	 	 	 	 	 	 	 	 	 	 	 	 	 	 	 	1581510168	0.74	1.37
12/02/2020 12:22:49	120220	12022020	122249	91.45	12.418807	-57.245050	91.30	-0.300	-0.190	1.460	91.33	-1.50	1.90	 	 	 	 	 	 	 	 	 	 	 	 	 	 	 	 	 	 	1581510169	0.96	1.78
12/02/2020 12:22:50	120220	12022020	122250	90.88	12.418805	-57.245050	90.77	0.030	0.040	1.580	90.80	-1.30	2.00	 	 	 	 	 	 	 	 	 	 	 	 	 	 	 	 	 	 	1581510170	0.38	0.70
12/02/2020 12:22:51	120220	12022020	122251	90.60	12.418807	-57.245052	90.58	0.420	0.120	1.370	90.59	-1.30	1.70	 	 	 	 	 	 	 	 	 	 	 	 	 	 	 	 	 	 	1581510171	0.51	0.94
12/02/2020 12:22:52	120220	12022020	122252	90.73	12.418812	-57.245050	90.79	0.640	-0.160	0.950	90.80	-1.70	1.20	 	 	 	 	 	 	 	 	 	 	 	 	 	 	 	 	 	 	1581510172	0.93	1.72
12/02/2020 12:22:53	120220	12022020	122253	91.14	12.418815	-57.245048	91.23	0.640	-0.650	0.450	91.24	-2.10	0.70	 	 	 	 	 	 	 	 	 	 	 	 	 	 	 	 	 	 	1581510173	1.05	1.94
12/02/2020 12:22:54	120220	12022020	122254	91.63	12.418818	-57.245045	91.69	0.370	-0.800	0.080	91.72	-2.10	0.50	 	 	 	 	 	 	 	 	 	 	 	 	 	 	 	 	 	 	1581510174	1.07	1.98
12/02/2020 12:22:55	120220	12022020	122255	92.01	12.418822	-57.245043	92.02	-0.180	-0.200	0.270	92.06	-1.30	0.90	 	 	 	 	 	 	 	 	 	 	 	 	 	 	 	 	 	 	1581510175	0.48	0.89
12/02/2020 12:22:56	120220	12022020	122256	92.09	12.418818	-57.245047	92.04	-0.840	0.740	1.170	92.06	-0.40	2.00	 	 	 	 	 	 	 	 	 	 	 	 	 	 	 	 	 	 	1581510176	0.83	1.54
12/02/2020 12:22:57	120220	12022020	122257	91.76	12.418812	-57.245052	91.65	-1.240	1.210	2.470	91.65	-0.20	3.30	 	 	 	 	 	 	 	 	 	 	 	 	 	 	 	 	 	 	1581510177	1.90	3.52
12/02/2020 12:22:58	120220	12022020	122258	91.16	12.418802	-57.245055	91.06	-1.100	0.770	3.580	91.04	-0.90	4.20	 	 	 	 	 	 	 	 	 	 	 	 	 	 	 	 	 	 	1581510178	2.09	3.87
12/02/2020 12:22:59	120220	12022020	122259	90.73	12.418795	-57.245055	90.71	-0.430	-0.380	3.830	90.69	-2.20	4.10	 	 	 	 	 	 	 	 	 	 	 	 	 	 	 	 	 	 	1581510179	1.45	2.69
12/02/2020 12:23:00	120220	12022020	122300	90.70	12.418795	-57.245050	90.76	0.440	-1.580	3.160	90.74	-3.20	3.20	 	 	 	 	 	 	 	 	 	 	 	 	 	 	 	 	 	 	1581510180	0.91	1.69
12/02/2020 12:23:01	120220	12022020	122301	90.92	12.418800	-57.245045	90.96	1.120	-2.080	2.040	90.96	-3.40	2.10	 	 	 	 	 	 	 	 	 	 	 	 	 	 	 	 	 	 	1581510181	1.43	2.65
12/02/2020 12:23:02	120220	12022020	122302	91.04	12.418808	-57.245043	91.01	1.360	-1.630	0.960	91.04	-2.70	1.10	1016.50	26.50	26.50	21.00	21.00	311.0	72.0	72.0	419.0	27.3	338.00	9.70	68.00	9.20	23906	10555.0	27.6	27.5	1581510182	1.78	3.30
12/02/2020 12:23:03	120220	12022020	122303	91.00	12.418817	-57.245043	90.93	1.050	-0.410	0.170	90.98	-1.30	0.40	 	 	 	 	 	 	 	 	 	 	 	 	 	 	 	 	 	 	1581510183	1.80	3.33
12/02/2020 12:23:04	120220	12022020	122304	90.95	12.418822	-57.245047	90.90	0.260	1.070	-0.190	90.95	0.10	0.20	 	 	 	 	 	 	 	 	 	 	 	 	 	 	 	 	 	 	1581510184	1.52	2.82
12/02/2020 12:23:05	120220	12022020	122305	91.01	12.418825	-57.245052	91.00	-0.650	2.030	-0.120	91.03	0.70	0.40	 	 	 	 	 	 	 	 	 	 	 	 	 	 	 	 	 	 	1581510185	1.17	2.17
12/02/2020 12:23:06	120220	12022020	122306	91.17	12.418823	-57.245055	91.19	-1.240	1.820	0.280	91.20	0.10	0.90	 	 	 	 	 	 	 	 	 	 	 	 	 	 	 	 	 	 	1581510186	0.86	1.59
12/02/2020 12:23:07	120220	12022020	122307	91.30	12.418818	-57.245055	91.29	-1.120	0.440	0.870	91.30	-1.50	1.50	 	 	 	 	 	 	 	 	 	 	 	 	 	 	 	 	 	 	1581510187	0.90	1.67
12/02/2020 12:23:08	120220	12022020	122308	91.12	12.418813	-57.245050	91.04	-0.360	-1.330	1.780	91.04	-3.10	2.50	 	 	 	 	 	 	 	 	 	 	 	 	 	 	 	 	 	 	1581510188	1.47	2.72
12/02/2020 12:23:09	120220	12022020	122309	90.65	12.418808	-57.245043	90.60	0.440	-2.330	2.720	90.57	-3.70	3.40	 	 	 	 	 	 	 	 	 	 	 	 	 	 	 	 	 	 	1581510189	1.74	3.22
12/02/2020 12:23:10	120220	12022020	122310	90.45	12.418805	-57.245042	90.52	0.680	-1.890	3.280	90.47	-2.90	3.80	 	 	 	 	 	 	 	 	 	 	 	 	 	 	 	 	 	 	1581510190	1.03	1.91
12/02/2020 12:23:11	120220	12022020	122311	90.74	12.418803	-57.245043	90.89	0.300	-0.460	3.440	90.84	-1.40	3.80	 	 	 	 	 	 	 	 	 	 	 	 	 	 	 	 	 	 	1581510191	0.74	1.37
12/02/2020 12:23:12	120220	12022020	122312	91.24	12.418802	-57.245050	91.38	-0.190	0.800	3.230	91.33	-0.40	3.50	 	 	 	 	 	 	 	 	 	 	 	 	 	 	 	 	 	 	1581510192	1.38	2.56
12/02/2020 12:23:13	120220	12022020	122313	91.56	12.418800	-57.245053	91.59	-0.230	0.860	2.610	91.57	-0.70	2.70	 	 	 	 	 	 	 	 	 	 	 	 	 	 	 	 	 	 	1581510193	0.89	1.65
12/02/2020 12:23:14	120220	12022020	122314	91.46	12.418802	-57.245052	91.38	0.260	-0.000	1.630	91.40	-1.60	1.70	 	 	 	 	 	 	 	 	 	 	 	 	 	 	 	 	 	 	1581510194	0.62	1.15
12/02/2020 12:23:15	120220	12022020	122315	91.14	12.418808	-57.245045	91.04	0.710	-0.540	0.590	91.08	-1.90	0.70	 	 	 	 	 	 	 	 	 	 	 	 	 	 	 	 	 	 	1581510195	1.78	3.30
12/02/2020 12:23:16	120220	12022020	122316	90.96	12.418815	-57.245043	90.92	0.500	-0.020	-0.170	90.96	-1.70	0.50	 	 	 	 	 	 	 	 	 	 	 	 	 	 	 	 	 	 	1581510196	1.81	3.35
12/02/2020 12:23:17	120220	12022020	122317	91.12	12.418822	-57.245047	91.16	-0.330	0.830	-0.570	91.20	-0.40	-0.20	 	 	 	 	 	 	 	 	 	 	 	 	 	 	 	 	 	 	1581510197	1.57	2.91
12/02/2020 12:23:18	120220	12022020	122318	91.52	12.418825	-57.245052	91.56	-1.080	0.770	-0.660	91.60	-0.90	-0.20	 	 	 	 	 	 	 	 	 	 	 	 	 	 	 	 	 	 	1581510198	1.27	2.35
12/02/2020 12:23:19	120220	12022020	122319	91.83	12.418822	-57.245053	91.83	-0.990	-0.500	-0.390	91.87	-2.40	0.20	 	 	 	 	 	 	 	 	 	 	 	 	 	 	 	 	 	 	1581510199	0.43	0.80
12/02/2020 12:23:20	120220	12022020	122320	91.91	12.418817	-57.245047	91.88	-0.140	-1.740	0.340	91.90	-3.30	1.10	 	 	 	 	 	 	 	 	 	 	 	 	 	 	 	 	 	 	1581510200	1.57	2.91
12/02/2020 12:23:21	120220	12022020	122321	91.81	12.418810	-57.245042	91.79	0.680	-1.810	1.470	91.78	-2.90	2.30	 	 	 	 	 	 	 	 	 	 	 	 	 	 	 	 	 	 	1581510201	1.83	3.39
12/02/2020 12:23:22	120220	12022020	122322	91.68	12.418803	-57.245042	91.68	0.830	-0.790	2.650	91.64	-1.80	3.40	 	 	 	 	 	 	 	 	 	 	 	 	 	 	 	 	 	 	1581510202	1.65	3.06
12/02/2020 12:23:23	120220	12022020	122323	91.50	12.418797	-57.245047	91.50	0.370	0.490	3.410	91.46	-0.50	3.90	 	 	 	 	 	 	 	 	 	 	 	 	 	 	 	 	 	 	1581510203	1.65	3.06
12/02/2020 12:23:24	120220	12022020	122324	91.36	12.418793	-57.245052	91.38	-0.190	1.330	3.290	91.35	0.00	3.50	 	 	 	 	 	 	 	 	 	 	 	 	 	 	 	 	 	 	1581510204	1.23	2.28
12/02/2020 12:23:25	120220	12022020	122325	91.35	12.418795	-57.245055	91.37	-0.350	1.210	2.390	91.36	-0.40	2.50	 	 	 	 	 	 	 	 	 	 	 	 	 	 	 	 	 	 	1581510205	0.80	1.48
12/02/2020 12:23:26	120220	12022020	122326	91.40	12.418802	-57.245053	91.40	-0.010	0.130	1.330	91.41	-1.70	1.50	 	 	 	 	 	 	 	 	 	 	 	 	 	 	 	 	 	 	1581510206	1.33	2.46
12/02/2020 12:23:27	120220	12022020	122327	91.50	12.418808	-57.245048	91.52	0.380	-0.990	0.460	91.54	-2.60	0.70	 	 	 	 	 	 	 	 	 	 	 	 	 	 	 	 	 	 	1581510207	1.84	3.41
12/02/2020 12:23:28	120220	12022020	122328	91.71	12.418813	-57.245045	91.73	0.280	-1.250	-0.120	91.75	-2.50	0.20	 	 	 	 	 	 	 	 	 	 	 	 	 	 	 	 	 	 	1581510208	1.42	2.63
12/02/2020 12:23:29	120220	12022020	122329	91.87	12.418817	-57.245047	91.87	-0.260	-0.690	-0.180	91.89	-1.80	0.30	 	 	 	 	 	 	 	 	 	 	 	 	 	 	 	 	 	 	1581510209	0.46	0.85
12/02/2020 12:23:30	120220	12022020	122330	91.93	12.418813	-57.245050	91.93	-0.750	0.140	0.290	91.93	-1.00	0.90	 	 	 	 	 	 	 	 	 	 	 	 	 	 	 	 	 	 	1581510210	1.04	1.93
12/02/2020 12:23:31	120220	12022020	122331	91.96	12.418808	-57.245055	91.96	-0.710	0.570	1.010	91.96	-0.80	1.70	 	 	 	 	 	 	 	 	 	 	 	 	 	 	 	 	 	 	1581510211	1.59	2.94
12/02/2020 12:23:32	120220	12022020	122332	91.88	12.418802	-57.245057	91.86	-0.110	0.190	1.710	91.85	-1.50	2.30	 	 	 	 	 	 	 	 	 	 	 	 	 	 	 	 	 	 	1581510212	1.53	2.83
12/02/2020 12:23:33	120220	12022020	122333	91.62	12.418797	-57.245055	91.57	0.710	-0.730	2.220	91.56	-2.40	2.70	 	 	 	 	 	 	 	 	 	 	 	 	 	 	 	 	 	 	1581510213	1.21	2.24
12/02/2020 12:23:34	120220	12022020	122334	91.26	12.418795	-57.245050	91.23	1.200	-1.330	2.480	91.20	-2.70	2.90	 	 	 	 	 	 	 	 	 	 	 	 	 	 	 	 	 	 	1581510214	1.10	2.04
12/02/2020 12:23:35	120220	12022020	122335	91.12	12.418795	-57.245047	91.19	1.000	-0.850	2.390	91.15	-1.90	2.70	 	 	 	 	 	 	 	 	 	 	 	 	 	 	 	 	 	 	1581510215	0.73	1.35
12/02/2020 12:23:36	120220	12022020	122336	91.42	12.418798	-57.245050	91.56	0.170	0.450	1.890	91.52	-0.60	2.10	 	 	 	 	 	 	 	 	 	 	 	 	 	 	 	 	 	 	1581510216	0.84	1.56
12/02/2020 12:23:37	120220	12022020	122337	91.93	12.418802	-57.245057	92.06	-0.750	1.410	1.290	92.03	0.10	1.60	 	 	 	 	 	 	 	 	 	 	 	 	 	 	 	 	 	 	1581510217	1.61	2.98
12/02/2020 12:23:38	120220	12022020	122338	92.38	12.418805	-57.245062	92.46	-1.130	1.290	0.900	92.45	-0.40	1.30	 	 	 	 	 	 	 	 	 	 	 	 	 	 	 	 	 	 	1581510218	1.20	2.22
12/02/2020 12:23:39	120220	12022020	122339	92.65	12.418803	-57.245062	92.68	-0.820	0.140	0.820	92.68	-1.70	1.30	 	 	 	 	 	 	 	 	 	 	 	 	 	 	 	 	 	 	1581510219	0.12	0.22
12/02/2020 12:23:40	120220	12022020	122340	92.63	12.418800	-57.245057	92.57	-0.140	-1.270	1.170	92.57	-3.00	1.80	 	 	 	 	 	 	 	 	 	 	 	 	 	 	 	 	 	 	1581510220	1.12	2.07
12/02/2020 12:23:41	120220	12022020	122341	92.21	12.418795	-57.245052	92.09	0.380	-1.920	1.890	92.09	-3.20	2.50	 	 	 	 	 	 	 	 	 	 	 	 	 	 	 	 	 	 	1581510221	1.55	2.87
12/02/2020 12:23:42	120220	12022020	122342	91.64	12.418790	-57.245050	91.56	0.460	-1.360	2.520	91.55	-2.40	3.00	 	 	 	 	 	 	 	 	 	 	 	 	 	 	 	 	 	 	1581510222	1.15	2.13
12/02/2020 12:23:43	120220	12022020	122343	91.34	12.418788	-57.245053	91.36	0.270	-0.070	2.530	91.34	-1.10	2.80	 	 	 	 	 	 	 	 	 	 	 	 	 	 	 	 	 	 	1581510223	0.91	1.69
12/02/2020 12:23:44	120220	12022020	122344	91.52	12.418790	-57.245060	91.62	0.150	0.810	1.760	91.60	-0.50	1.80	 	 	 	 	 	 	 	 	 	 	 	 	 	 	 	 	 	 	1581510224	1.24	2.30
12/02/2020 12:23:45	120220	12022020	122345	92.07	12.418795	-57.245063	92.20	0.190	0.730	0.670	92.19	-0.80	0.80	 	 	 	 	 	 	 	 	 	 	 	 	 	 	 	 	 	 	1581510225	1.37	2.54
12/02/2020 12:23:46	120220	12022020	122346	92.69	12.418802	-57.245062	92.76	0.230	0.100	-0.200	92.79	-1.50	0.10	 	 	 	 	 	 	 	 	 	 	 	 	 	 	 	 	 	 	1581510226	1.40	2.59
12/02/2020 12:23:47	120220	12022020	122347	93.02	12.418805	-57.245058	92.99	0.170	-0.430	-0.410	93.02	-1.90	0.10	 	 	 	 	 	 	 	 	 	 	 	 	 	 	 	 	 	 	1581510227	1.04	1.93
12/02/2020 12:23:48	120220	12022020	122348	92.86	12.418805	-57.245057	92.74	0.050	-0.540	0.210	92.77	-1.90	1.00	 	 	 	 	 	 	 	 	 	 	 	 	 	 	 	 	 	 	1581510228	0.37	0.69
12/02/2020 12:23:49	120220	12022020	122349	92.37	12.418800	-57.245057	92.28	-0.030	-0.350	1.330	92.28	-1.60	2.10	 	 	 	 	 	 	 	 	 	 	 	 	 	 	 	 	 	 	1581510229	0.93	1.72
12/02/2020 12:23:50	120220	12022020	122350	92.04	12.418795	-57.245058	92.03	-0.160	-0.100	2.340	92.01	-1.40	3.00	 	 	 	 	 	 	 	 	 	 	 	 	 	 	 	 	 	 	1581510230	1.23	2.28
12/02/2020 12:23:51	120220	12022020	122351	91.98	12.418790	-57.245060	92.03	-0.320	-0.050	3.000	91.99	-1.50	3.50	 	 	 	 	 	 	 	 	 	 	 	 	 	 	 	 	 	 	1581510231	1.05	1.94
12/02/2020 12:23:52	120220	12022020	122352	92.03	12.418787	-57.245060	92.07	-0.380	-0.210	3.220	92.04	-1.60	3.60	 	 	 	 	 	 	 	 	 	 	 	 	 	 	 	 	 	 	1581510232	0.71	1.31
12/02/2020 12:23:53	120220	12022020	122353	92.13	12.418785	-57.245058	92.18	-0.200	-0.300	2.980	92.16	-1.70	3.20	 	 	 	 	 	 	 	 	 	 	 	 	 	 	 	 	 	 	1581510233	0.36	0.67
12/02/2020 12:23:54	120220	12022020	122354	92.36	12.418787	-57.245058	92.42	0.110	-0.280	2.380	92.42	-1.70	2.60	 	 	 	 	 	 	 	 	 	 	 	 	 	 	 	 	 	 	1581510234	0.14	0.26
12/02/2020 12:23:55	120220	12022020	122355	92.65	12.418788	-57.245058	92.69	0.340	-0.310	1.730	92.71	-1.70	2.00	 	 	 	 	 	 	 	 	 	 	 	 	 	 	 	 	 	 	1581510235	0.50	0.93
12/02/2020 12:23:56	120220	12022020	122356	92.85	12.418790	-57.245058	92.82	0.370	-0.340	1.270	92.86	-1.70	1.60	 	 	 	 	 	 	 	 	 	 	 	 	 	 	 	 	 	 	1581510236	0.56	1.04
12/02/2020 12:23:57	120220	12022020	122357	92.81	12.418793	-57.245057	92.71	0.270	-0.330	1.050	92.77	-1.70	1.50	 	 	 	 	 	 	 	 	 	 	 	 	 	 	 	 	 	 	1581510237	0.50	0.93
12/02/2020 12:23:58	120220	12022020	122358	92.58	12.418795	-57.245055	92.47	0.130	-0.190	0.930	92.54	-1.50	1.30	 	 	 	 	 	 	 	 	 	 	 	 	 	 	 	 	 	 	1581510238	0.43	0.80
12/02/2020 12:23:59	120220	12022020	122359	92.43	12.418797	-57.245055	92.36	-0.030	0.110	0.670	92.43	-1.20	1.00	 	 	 	 	 	 	 	 	 	 	 	 	 	 	 	 	 	 	1581510239	0.50	0.93
12/02/2020 12:24:00	120220	12022020	122400	92.46	12.418800	-57.245057	92.42	-0.210	0.450	0.570	92.47	-0.90	1.10	 	 	 	 	 	 	 	 	 	 	 	 	 	 	 	 	 	 	1581510240	0.67	1.24
12/02/2020 12:24:01	120220	12022020	122401	92.54	12.418800	-57.245058	92.51	-0.360	0.510	0.890	92.55	-1.00	1.50	 	 	 	 	 	 	 	 	 	 	 	 	 	 	 	 	 	 	1581510241	0.41	0.76
12/02/2020 12:24:02	120220	12022020	122402	92.63	12.418798	-57.245058	92.61	-0.420	0.080	1.410	92.64	-1.50	2.00	1016.70	26.40	26.50	21.00	21.10	454.0	72.0	72.0	421.0	27.5	336.00	10.30	66.00	9.90	28850	10771.0	27.6	27.6	1581510242	0.44	0.81
12/02/2020 12:24:03	120220	12022020	122403	92.63	12.418795	-57.245057	92.58	-0.290	-0.720	1.950	92.60	-2.40	2.50	 	 	 	 	 	 	 	 	 	 	 	 	 	 	 	 	 	 	1581510243	0.88	1.63
12/02/2020 12:24:04	120220	12022020	122404	92.41	12.418790	-57.245053	92.31	0.060	-1.430	2.490	92.34	-2.90	3.10	 	 	 	 	 	 	 	 	 	 	 	 	 	 	 	 	 	 	1581510244	1.24	2.30
12/02/2020 12:24:05	120220	12022020	122405	92.04	12.418787	-57.245050	91.97	0.460	-1.440	2.980	91.98	-2.60	3.50	 	 	 	 	 	 	 	 	 	 	 	 	 	 	 	 	 	 	1581510245	1.20	2.22
12/02/2020 12:24:06	120220	12022020	122406	91.83	12.418785	-57.245048	91.82	0.590	-0.660	3.110	91.82	-1.70	3.50	 	 	 	 	 	 	 	 	 	 	 	 	 	 	 	 	 	 	1581510246	0.52	0.96
12/02/2020 12:24:07	120220	12022020	122407	91.92	12.418787	-57.245050	91.96	0.280	0.360	2.720	91.97	-0.80	2.90	 	 	 	 	 	 	 	 	 	 	 	 	 	 	 	 	 	 	1581510247	0.49	0.91
12/02/2020 12:24:08	120220	12022020	122408	92.21	12.418790	-57.245052	92.25	-0.260	0.990	1.810	92.29	-0.30	1.90	 	 	 	 	 	 	 	 	 	 	 	 	 	 	 	 	 	 	1581510248	1.04	1.93
12/02/2020 12:24:09	120220	12022020	122409	92.57	12.418795	-57.245053	92.56	-0.620	1.100	0.760	92.63	-0.30	0.90	 	 	 	 	 	 	 	 	 	 	 	 	 	 	 	 	 	 	1581510249	1.19	2.20
12/02/2020 12:24:10	120220	12022020	122410	92.78	12.418800	-57.245053	92.70	-0.570	0.760	0.240	92.78	-0.80	0.70	 	 	 	 	 	 	 	 	 	 	 	 	 	 	 	 	 	 	1581510250	0.97	1.80
12/02/2020 12:24:11	120220	12022020	122411	92.62	12.418802	-57.245053	92.47	-0.180	-0.080	0.460	92.54	-1.80	1.10	 	 	 	 	 	 	 	 	 	 	 	 	 	 	 	 	 	 	1581510251	0.32	0.59
12/02/2020 12:24:12	120220	12022020	122412	92.11	12.418798	-57.245050	91.92	0.260	-1.130	1.040	91.99	-2.80	1.60	 	 	 	 	 	 	 	 	 	 	 	 	 	 	 	 	 	 	1581510252	0.85	1.57
12/02/2020 12:24:13	120220	12022020	122413	91.54	12.418797	-57.245045	91.41	0.520	-1.730	1.450	91.46	-3.10	1.90	 	 	 	 	 	 	 	 	 	 	 	 	 	 	 	 	 	 	1581510253	1.09	2.02
12/02/2020 12:24:14	120220	12022020	122414	91.29	12.418797	-57.245042	91.26	0.500	-1.430	1.530	91.29	-2.50	2.00	 	 	 	 	 	 	 	 	 	 	 	 	 	 	 	 	 	 	1581510254	0.63	1.17
12/02/2020 12:24:15	120220	12022020	122415	91.41	12.418798	-57.245043	91.45	0.190	-0.420	1.560	91.47	-1.40	2.00	 	 	 	 	 	 	 	 	 	 	 	 	 	 	 	 	 	 	1581510255	0.53	0.98
12/02/2020 12:24:16	120220	12022020	122416	91.74	12.418800	-57.245047	91.81	-0.280	0.550	1.670	91.82	-0.70	2.10	 	 	 	 	 	 	 	 	 	 	 	 	 	 	 	 	 	 	1581510256	0.73	1.35
12/02/2020 12:24:17	120220	12022020	122417	92.11	12.418798	-57.245048	92.16	-0.610	0.850	1.810	92.17	-0.60	2.30	 	 	 	 	 	 	 	 	 	 	 	 	 	 	 	 	 	 	1581510257	0.60	1.11
12/02/2020 12:24:18	120220	12022020	122418	92.35	12.418795	-57.245048	92.35	-0.570	0.580	1.920	92.37	-0.90	2.40	 	 	 	 	 	 	 	 	 	 	 	 	 	 	 	 	 	 	1581510258	0.67	1.24
12/02/2020 12:24:19	120220	12022020	122419	92.32	12.418792	-57.245045	92.25	-0.270	0.150	2.040	92.29	-1.30	2.50	 	 	 	 	 	 	 	 	 	 	 	 	 	 	 	 	 	 	1581510259	0.85	1.57
12/02/2020 12:24:20	120220	12022020	122420	92.03	12.418790	-57.245043	91.92	0.050	-0.160	2.060	91.96	-1.60	2.50	 	 	 	 	 	 	 	 	 	 	 	 	 	 	 	 	 	 	1581510260	0.63	1.17
12/02/2020 12:24:21	120220	12022020	122421	91.69	12.418792	-57.245042	91.60	0.240	-0.440	1.930	91.64	-1.90	2.30	 	 	 	 	 	 	 	 	 	 	 	 	 	 	 	 	 	 	1581510261	0.29	0.54
12/02/2020 12:24:22	120220	12022020	122422	91.56	12.418793	-57.245040	91.52	0.280	-0.700	1.670	91.57	-2.10	2.00	 	 	 	 	 	 	 	 	 	 	 	 	 	 	 	 	 	 	1581510262	0.70	1.30
12/02/2020 12:24:23	120220	12022020	122423	91.65	12.418798	-57.245038	91.64	0.210	-0.830	1.320	91.68	-2.20	1.60	 	 	 	 	 	 	 	 	 	 	 	 	 	 	 	 	 	 	1581510263	0.85	1.57
12/02/2020 12:24:24	120220	12022020	122424	91.77	12.418800	-57.245038	91.73	0.020	-0.590	0.960	91.77	-1.80	1.30	 	 	 	 	 	 	 	 	 	 	 	 	 	 	 	 	 	 	1581510264	0.63	1.17
12/02/2020 12:24:25	120220	12022020	122425	91.71	12.418802	-57.245038	91.62	-0.290	0.010	0.750	91.68	-1.20	1.20	 	 	 	 	 	 	 	 	 	 	 	 	 	 	 	 	 	 	1581510265	0.28	0.52
12/02/2020 12:24:26	120220	12022020	122426	91.51	12.418802	-57.245040	91.43	-0.450	0.450	0.810	91.47	-0.90	1.30	 	 	 	 	 	 	 	 	 	 	 	 	 	 	 	 	 	 	1581510266	0.42	0.78
12/02/2020 12:24:27	120220	12022020	122427	91.37	12.418800	-57.245042	91.34	-0.210	0.200	0.930	91.37	-1.40	1.40	 	 	 	 	 	 	 	 	 	 	 	 	 	 	 	 	 	 	1581510267	0.28	0.52
12/02/2020 12:24:28	120220	12022020	122428	91.40	12.418800	-57.245038	91.38	0.370	-0.540	0.970	91.41	-2.10	1.40	 	 	 	 	 	 	 	 	 	 	 	 	 	 	 	 	 	 	1581510268	0.61	1.13
12/02/2020 12:24:29	120220	12022020	122429	91.39	12.418802	-57.245033	91.35	0.840	-0.990	0.960	91.38	-2.30	1.40	 	 	 	 	 	 	 	 	 	 	 	 	 	 	 	 	 	 	1581510269	1.10	2.04
12/02/2020 12:24:30	120220	12022020	122430	91.32	12.418803	-57.245030	91.30	0.710	-0.580	0.970	91.32	-1.70	1.50	 	 	 	 	 	 	 	 	 	 	 	 	 	 	 	 	 	 	1581510270	0.83	1.54
12/02/2020 12:24:31	120220	12022020	122431	91.33	12.418803	-57.245032	91.32	-0.080	0.490	1.340	91.34	-0.50	2.00	 	 	 	 	 	 	 	 	 	 	 	 	 	 	 	 	 	 	1581510271	0.30	0.56
12/02/2020 12:24:32	120220	12022020	122432	91.36	12.418802	-57.245037	91.36	-1.000	1.390	2.060	91.36	0.10	2.70	 	 	 	 	 	 	 	 	 	 	 	 	 	 	 	 	 	 	1581510272	1.28	2.37
12/02/2020 12:24:33	120220	12022020	122433	91.33	12.418797	-57.245042	91.33	-1.400	1.300	2.620	91.31	-0.40	3.10	 	 	 	 	 	 	 	 	 	 	 	 	 	 	 	 	 	 	1581510273	1.54	2.85
12/02/2020 12:24:34	120220	12022020	122434	91.21	12.418792	-57.245042	91.19	-0.930	0.040	2.830	91.18	-1.90	3.30	 	 	 	 	 	 	 	 	 	 	 	 	 	 	 	 	 	 	1581510274	0.94	1.74
12/02/2020 12:24:35	120220	12022020	122435	91.02	12.418790	-57.245037	90.99	0.150	-1.650	2.870	90.98	-3.40	3.30	 	 	 	 	 	 	 	 	 	 	 	 	 	 	 	 	 	 	1581510275	1.12	2.07
12/02/2020 12:24:36	120220	12022020	122436	90.86	12.418788	-57.245030	90.83	1.090	-2.600	2.870	90.82	-4.00	3.30	 	 	 	 	 	 	 	 	 	 	 	 	 	 	 	 	 	 	1581510276	1.50	2.78
12/02/2020 12:24:37	120220	12022020	122437	90.63	12.418788	-57.245025	90.59	1.220	-2.050	2.820	90.58	-2.90	3.20	 	 	 	 	 	 	 	 	 	 	 	 	 	 	 	 	 	 	1581510277	0.93	1.72
12/02/2020 12:24:38	120220	12022020	122438	90.34	12.418790	-57.245028	90.26	0.610	-0.220	2.420	90.28	-0.90	2.60	 	 	 	 	 	 	 	 	 	 	 	 	 	 	 	 	 	 	1581510278	0.57	1.06
12/02/2020 12:24:39	120220	12022020	122439	90.09	12.418795	-57.245035	90.04	-0.160	1.650	1.570	90.07	0.60	1.70	 	 	 	 	 	 	 	 	 	 	 	 	 	 	 	 	 	 	1581510279	1.78	3.30
12/02/2020 12:24:40	120220	12022020	122440	90.08	12.418800	-57.245042	90.08	-0.520	2.140	0.390	90.11	0.50	0.50	 	 	 	 	 	 	 	 	 	 	 	 	 	 	 	 	 	 	1581510280	1.94	3.59
12/02/2020 12:24:41	120220	12022020	122441	90.27	12.418807	-57.245043	90.28	-0.340	1.000	-0.710	90.32	-0.90	-0.50	 	 	 	 	 	 	 	 	 	 	 	 	 	 	 	 	 	 	1581510281	1.41	2.61
12/02/2020 12:24:42	120220	12022020	122442	90.51	12.418812	-57.245037	90.48	-0.010	-0.550	-1.410	90.54	-2.30	-1.10	 	 	 	 	 	 	 	 	 	 	 	 	 	 	 	 	 	 	1581510282	1.74	3.22
12/02/2020 12:24:43	120220	12022020	122443	90.57	12.418815	-57.245032	90.47	0.040	-1.310	-1.450	90.53	-2.70	-0.80	 	 	 	 	 	 	 	 	 	 	 	 	 	 	 	 	 	 	1581510283	1.43	2.65
12/02/2020 12:24:44	120220	12022020	122444	90.26	12.418815	-57.245032	90.11	-0.240	-1.030	-0.500	90.17	-2.20	0.40	 	 	 	 	 	 	 	 	 	 	 	 	 	 	 	 	 	 	1581510284	0.17	0.31
12/02/2020 12:24:45	120220	12022020	122445	89.73	12.418808	-57.245035	89.60	-0.550	-0.310	1.160	89.62	-1.50	2.10	 	 	 	 	 	 	 	 	 	 	 	 	 	 	 	 	 	 	1581510285	1.60	2.96
12/02/2020 12:24:46	120220	12022020	122446	89.26	12.418798	-57.245040	89.21	-0.480	0.100	2.650	89.20	-1.30	3.40	 	 	 	 	 	 	 	 	 	 	 	 	 	 	 	 	 	 	1581510286	2.46	4.56
12/02/2020 12:24:47	120220	12022020	122447	89.00	12.418790	-57.245042	89.00	0.110	-0.190	3.460	88.97	-1.80	4.00	 	 	 	 	 	 	 	 	 	 	 	 	 	 	 	 	 	 	1581510287	1.83	3.39
12/02/2020 12:24:48	120220	12022020	122448	88.85	12.418788	-57.245040	88.87	0.760	-0.790	3.650	88.83	-2.30	4.00	 	 	 	 	 	 	 	 	 	 	 	 	 	 	 	 	 	 	1581510288	0.68	1.26
12/02/2020 12:24:49	120220	12022020	122449	88.84	12.418790	-57.245037	88.92	0.910	-0.920	3.300	88.87	-2.20	3.50	 	 	 	 	 	 	 	 	 	 	 	 	 	 	 	 	 	 	1581510289	0.89	1.65
12/02/2020 12:24:50	120220	12022020	122450	89.06	12.418793	-57.245035	89.18	0.430	-0.270	2.640	89.13	-1.40	2.80	 	 	 	 	 	 	 	 	 	 	 	 	 	 	 	 	 	 	1581510290	0.84	1.56
12/02/2020 12:24:51	120220	12022020	122451	89.44	12.418797	-57.245038	89.56	-0.270	0.660	1.890	89.52	-0.50	2.10	 	 	 	 	 	 	 	 	 	 	 	 	 	 	 	 	 	 	1581510291	0.97	1.80
12/02/2020 12:24:52	120220	12022020	122452	89.80	12.418798	-57.245043	89.87	-0.660	1.050	1.170	89.85	-0.40	1.40	 	 	 	 	 	 	 	 	 	 	 	 	 	 	 	 	 	 	1581510292	1.07	1.98
12/02/2020 12:24:53	120220	12022020	122453	89.85	12.418800	-57.245045	89.77	-0.450	0.510	0.650	89.79	-1.20	1.00	 	 	 	 	 	 	 	 	 	 	 	 	 	 	 	 	 	 	1581510293	0.47	0.87
12/02/2020 12:24:54	120220	12022020	122454	89.36	12.418800	-57.245043	89.19	0.050	-0.420	0.490	89.22	-2.00	0.90	 	 	 	 	 	 	 	 	 	 	 	 	 	 	 	 	 	 	1581510294	0.53	0.98
12/02/2020 12:24:55	120220	12022020	122455	88.72	12.418803	-57.245040	88.61	0.290	-0.830	0.450	88.63	-2.20	0.90	 	 	 	 	 	 	 	 	 	 	 	 	 	 	 	 	 	 	1581510295	0.81	1.50
12/02/2020 12:24:56	120220	12022020	122456	88.54	12.418805	-57.245040	88.59	0.090	-0.470	0.370	88.58	-1.70	0.80	 	 	 	 	 	 	 	 	 	 	 	 	 	 	 	 	 	 	1581510296	0.50	0.93
12/02/2020 12:24:57	120220	12022020	122457	88.93	12.418807	-57.245043	89.07	-0.200	-0.020	0.280	89.04	-1.40	0.70	 	 	 	 	 	 	 	 	 	 	 	 	 	 	 	 	 	 	1581510297	0.87	1.61
12/02/2020 12:24:58	120220	12022020	122458	89.48	12.418807	-57.245047	89.61	-0.110	-0.280	0.370	89.58	-1.90	0.90	 	 	 	 	 	 	 	 	 	 	 	 	 	 	 	 	 	 	1581510298	0.72	1.33
12/02/2020 12:24:59	120220	12022020	122459	89.81	12.418805	-57.245045	89.86	0.390	-1.130	0.820	89.82	-2.70	1.50	 	 	 	 	 	 	 	 	 	 	 	 	 	 	 	 	 	 	1581510299	0.41	0.76
12/02/2020 12:25:00	120220	12022020	122500	89.70	12.418802	-57.245040	89.68	0.830	-1.530	1.780	89.64	-2.80	2.60	 	 	 	 	 	 	 	 	 	 	 	 	 	 	 	 	 	 	1581510300	1.40	2.59
12/02/2020 12:25:01	120220	12022020	122501	89.37	12.418795	-57.245037	89.40	0.710	-0.620	2.900	89.32	-1.40	3.60	 	 	 	 	 	 	 	 	 	 	 	 	 	 	 	 	 	 	1581510301	1.57	2.91
12/02/2020 12:25:02	120220	12022020	122502	89.32	12.418788	-57.245040	89.47	-0.030	1.160	3.500	89.36	0.30	3.90	1016.60	26.50	26.50	21.00	21.10	211.0	72.0	72.0	419.0	27.4	339.00	10.20	70.00	9.80	20872	11117.0	27.6	27.6	1581510302	1.58	2.93
12/02/2020 12:25:03	120220	12022020	122503	89.62	12.418785	-57.245050	89.78	-0.920	2.370	3.350	89.69	1.00	3.60	 	 	 	 	 	 	 	 	 	 	 	 	 	 	 	 	 	 	1581510303	1.98	3.67
12/02/2020 12:25:04	120220	12022020	122504	89.91	12.418785	-57.245057	90.01	-1.350	1.970	2.680	89.95	0.10	2.80	 	 	 	 	 	 	 	 	 	 	 	 	 	 	 	 	 	 	1581510304	1.44	2.67
12/02/2020 12:25:05	120220	12022020	122505	89.98	12.418788	-57.245057	90.00	-0.930	0.120	1.770	89.96	-1.90	1.90	 	 	 	 	 	 	 	 	 	 	 	 	 	 	 	 	 	 	1581510305	0.60	1.11
12/02/2020 12:25:06	120220	12022020	122506	89.84	12.418793	-57.245050	89.83	0.060	-1.960	0.900	89.81	-3.80	1.10	 	 	 	 	 	 	 	 	 	 	 	 	 	 	 	 	 	 	1581510306	1.53	2.83
12/02/2020 12:25:07	120220	12022020	122507	89.75	12.418797	-57.245043	89.76	0.940	-2.920	0.250	89.76	-4.20	0.60	 	 	 	 	 	 	 	 	 	 	 	 	 	 	 	 	 	 	1581510307	1.65	3.06
12/02/2020 12:25:08	120220	12022020	122508	89.84	12.418800	-57.245042	89.88	1.200	-2.260	-0.030	89.87	-3.10	0.40	 	 	 	 	 	 	 	 	 	 	 	 	 	 	 	 	 	 	1581510308	0.83	1.54
12/02/2020 12:25:09	120220	12022020	122509	90.02	12.418802	-57.245047	90.05	0.820	-0.590	0.070	90.05	-1.40	0.60	 	 	 	 	 	 	 	 	 	 	 	 	 	 	 	 	 	 	1581510309	0.92	1.70
12/02/2020 12:25:10	120220	12022020	122510	90.10	12.418802	-57.245053	90.10	0.160	1.030	0.530	90.10	0.00	1.10	 	 	 	 	 	 	 	 	 	 	 	 	 	 	 	 	 	 	1581510310	1.46	2.70
12/02/2020 12:25:11	120220	12022020	122511	90.09	12.418798	-57.245058	90.11	-0.430	1.890	1.010	90.09	0.50	1.50	 	 	 	 	 	 	 	 	 	 	 	 	 	 	 	 	 	 	1581510311	1.38	2.56
12/02/2020 12:25:12	120220	12022020	122512	90.18	12.418797	-57.245062	90.24	-0.660	1.590	1.230	90.20	-0.10	1.70	 	 	 	 	 	 	 	 	 	 	 	 	 	 	 	 	 	 	1581510312	0.86	1.59
12/02/2020 12:25:13	120220	12022020	122513	90.34	12.418793	-57.245060	90.42	-0.460	0.220	1.390	90.37	-1.70	1.90	 	 	 	 	 	 	 	 	 	 	 	 	 	 	 	 	 	 	1581510313	0.50	0.93
12/02/2020 12:25:14	120220	12022020	122514	90.42	12.418792	-57.245055	90.47	-0.060	-1.340	1.870	90.41	-3.00	2.50	 	 	 	 	 	 	 	 	 	 	 	 	 	 	 	 	 	 	1581510314	1.25	2.31
12/02/2020 12:25:15	120220	12022020	122515	90.35	12.418788	-57.245050	90.41	0.220	-1.870	2.410	90.34	-3.10	2.90	 	 	 	 	 	 	 	 	 	 	 	 	 	 	 	 	 	 	1581510315	1.41	2.61
12/02/2020 12:25:16	120220	12022020	122516	90.29	12.418785	-57.245048	90.34	0.230	-0.980	2.550	90.26	-1.90	2.90	 	 	 	 	 	 	 	 	 	 	 	 	 	 	 	 	 	 	1581510316	0.80	1.48
12/02/2020 12:25:17	120220	12022020	122517	90.16	12.418783	-57.245055	90.18	0.040	0.440	2.290	90.13	-0.60	2.60	 	 	 	 	 	 	 	 	 	 	 	 	 	 	 	 	 	 	1581510317	1.25	2.31
12/02/2020 12:25:18	120220	12022020	122518	90.04	12.418785	-57.245062	90.08	-0.120	1.230	1.690	90.04	-0.20	1.90	 	 	 	 	 	 	 	 	 	 	 	 	 	 	 	 	 	 	1581510318	1.57	2.91
12/02/2020 12:25:19	120220	12022020	122519	90.13	12.418790	-57.245065	90.22	-0.050	0.770	0.890	90.19	-1.00	1.10	 	 	 	 	 	 	 	 	 	 	 	 	 	 	 	 	 	 	1581510319	1.35	2.50
12/02/2020 12:25:20	120220	12022020	122520	90.47	12.418797	-57.245063	90.57	0.180	-0.520	0.070	90.54	-2.30	0.30	 	 	 	 	 	 	 	 	 	 	 	 	 	 	 	 	 	 	1581510320	1.54	2.85
12/02/2020 12:25:21	120220	12022020	122521	90.80	12.418802	-57.245058	90.84	0.330	-1.540	-0.230	90.83	-3.00	0.30	 	 	 	 	 	 	 	 	 	 	 	 	 	 	 	 	 	 	1581510321	1.63	3.02
12/02/2020 12:25:22	120220	12022020	122522	90.85	12.418802	-57.245055	90.83	0.220	-1.420	0.190	90.83	-2.50	0.80	 	 	 	 	 	 	 	 	 	 	 	 	 	 	 	 	 	 	1581510322	0.76	1.41
12/02/2020 12:25:23	120220	12022020	122523	90.70	12.418797	-57.245057	90.66	0.030	-0.510	0.880	90.65	-1.60	1.50	 	 	 	 	 	 	 	 	 	 	 	 	 	 	 	 	 	 	1581510323	1.15	2.13
12/02/2020 12:25:24	120220	12022020	122524	90.42	12.418792	-57.245060	90.37	0.040	0.070	1.480	90.36	-1.30	2.10	 	 	 	 	 	 	 	 	 	 	 	 	 	 	 	 	 	 	1581510324	1.39	2.57
12/02/2020 12:25:25	120220	12022020	122525	90.09	12.418788	-57.245060	90.07	0.180	0.110	1.940	90.05	-1.20	2.50	 	 	 	 	 	 	 	 	 	 	 	 	 	 	 	 	 	 	1581510325	0.63	1.17
12/02/2020 12:25:26	120220	12022020	122526	89.98	12.418787	-57.245058	90.06	0.080	0.390	2.160	90.01	-0.80	2.60	 	 	 	 	 	 	 	 	 	 	 	 	 	 	 	 	 	 	1581510326	0.44	0.81
12/02/2020 12:25:27	120220	12022020	122527	90.30	12.418788	-57.245060	90.46	-0.340	1.040	1.960	90.41	-0.20	2.20	 	 	 	 	 	 	 	 	 	 	 	 	 	 	 	 	 	 	1581510327	0.27	0.50
12/02/2020 12:25:28	120220	12022020	122528	90.88	12.418790	-57.245065	91.02	-0.720	1.200	1.330	90.98	-0.40	1.60	 	 	 	 	 	 	 	 	 	 	 	 	 	 	 	 	 	 	1581510328	1.04	1.93
12/02/2020 12:25:29	120220	12022020	122529	91.28	12.418792	-57.245067	91.33	-0.580	0.110	0.800	91.31	-1.80	1.20	 	 	 	 	 	 	 	 	 	 	 	 	 	 	 	 	 	 	1581510329	0.71	1.31
12/02/2020 12:25:30	120220	12022020	122530	91.28	12.418792	-57.245063	91.24	0.050	-1.540	0.960	91.24	-3.30	1.60	 	 	 	 	 	 	 	 	 	 	 	 	 	 	 	 	 	 	1581510330	0.86	1.59
12/02/2020 12:25:31	120220	12022020	122531	91.01	12.418788	-57.245057	90.96	0.630	-2.200	1.590	90.95	-3.40	2.20	 	 	 	 	 	 	 	 	 	 	 	 	 	 	 	 	 	 	1581510331	1.54	2.85
12/02/2020 12:25:32	120220	12022020	122532	90.73	12.418785	-57.245055	90.72	0.690	-1.300	2.090	90.69	-2.20	2.60	 	 	 	 	 	 	 	 	 	 	 	 	 	 	 	 	 	 	1581510332	0.80	1.48
12/02/2020 12:25:33	120220	12022020	122533	90.57	12.418785	-57.245060	90.58	0.310	0.150	2.230	90.56	-0.90	2.60	 	 	 	 	 	 	 	 	 	 	 	 	 	 	 	 	 	 	1581510333	1.07	1.98
12/02/2020 12:25:34	120220	12022020	122534	90.56	12.418785	-57.245065	90.59	-0.100	0.880	1.970	90.56	-0.60	2.50	 	 	 	 	 	 	 	 	 	 	 	 	 	 	 	 	 	 	1581510334	1.24	2.30
12/02/2020 12:25:35	120220	12022020	122535	90.70	12.418788	-57.245067	90.76	-0.190	0.620	1.390	90.75	-1.00	1.60	 	 	 	 	 	 	 	 	 	 	 	 	 	 	 	 	 	 	1581510335	0.70	1.30
12/02/2020 12:25:36	120220	12022020	122536	91.00	12.418792	-57.245063	91.06	0.010	0.010	0.750	91.06	-1.50	1.00	 	 	 	 	 	 	 	 	 	 	 	 	 	 	 	 	 	 	1581510336	1.05	1.94
12/02/2020 12:25:37	120220	12022020	122537	91.31	12.418795	-57.245060	91.35	0.180	-0.300	0.340	91.36	-1.70	0.70	 	 	 	 	 	 	 	 	 	 	 	 	 	 	 	 	 	 	1581510337	0.96	1.78
12/02/2020 12:25:38	120220	12022020	122538	91.49	12.418797	-57.245060	91.48	0.080	-0.230	0.350	91.49	-1.60	0.90	 	 	 	 	 	 	 	 	 	 	 	 	 	 	 	 	 	 	1581510338	0.32	0.59
12/02/2020 12:25:39	120220	12022020	122539	91.36	12.418795	-57.245060	91.31	-0.240	-0.130	0.860	91.30	-1.50	1.50	 	 	 	 	 	 	 	 	 	 	 	 	 	 	 	 	 	 	1581510339	0.40	0.74
12/02/2020 12:25:40	120220	12022020	122540	91.04	12.418790	-57.245062	91.00	-0.450	-0.230	1.620	90.98	-1.70	2.20	 	 	 	 	 	 	 	 	 	 	 	 	 	 	 	 	 	 	1581510340	0.80	1.48
12/02/2020 12:25:41	120220	12022020	122541	90.90	12.418787	-57.245062	90.95	-0.370	-0.340	2.020	90.92	-1.70	2.50	 	 	 	 	 	 	 	 	 	 	 	 	 	 	 	 	 	 	1581510341	0.83	1.54
12/02/2020 12:25:42	120220	12022020	122542	91.10	12.418785	-57.245060	91.21	-0.130	-0.140	2.010	91.17	-1.40	2.40	 	 	 	 	 	 	 	 	 	 	 	 	 	 	 	 	 	 	1581510342	0.40	0.74
12/02/2020 12:25:43	120220	12022020	122543	91.37	12.418785	-57.245062	91.42	0.020	0.040	1.830	91.40	-1.40	2.20	 	 	 	 	 	 	 	 	 	 	 	 	 	 	 	 	 	 	1581510343	0.31	0.57
12/02/2020 12:25:44	120220	12022020	122544	91.36	12.418785	-57.245063	91.32	0.070	-0.180	1.710	91.32	-1.70	2.10	 	 	 	 	 	 	 	 	 	 	 	 	 	 	 	 	 	 	1581510344	0.23	0.43
12/02/2020 12:25:45	120220	12022020	122545	91.14	12.418785	-57.245062	91.08	0.150	-0.610	1.680	91.09	-2.10	2.10	 	 	 	 	 	 	 	 	 	 	 	 	 	 	 	 	 	 	1581510345	0.26	0.48
12/02/2020 12:25:46	120220	12022020	122546	90.97	12.418787	-57.245060	90.95	0.340	-0.900	1.620	90.96	-2.30	2.00	 	 	 	 	 	 	 	 	 	 	 	 	 	 	 	 	 	 	1581510346	0.58	1.07
12/02/2020 12:25:47	120220	12022020	122547	90.89	12.418787	-57.245057	90.86	0.510	-0.810	1.510	90.87	-2.00	1.90	 	 	 	 	 	 	 	 	 	 	 	 	 	 	 	 	 	 	1581510347	0.59	1.09
12/02/2020 12:25:48	120220	12022020	122548	90.82	12.418788	-57.245055	90.80	0.420	-0.200	1.360	90.81	-1.30	1.70	 	 	 	 	 	 	 	 	 	 	 	 	 	 	 	 	 	 	1581510348	0.39	0.72
12/02/2020 12:25:49	120220	12022020	122549	90.86	12.418790	-57.245057	90.88	0.020	0.690	1.110	90.89	-0.50	1.50	 	 	 	 	 	 	 	 	 	 	 	 	 	 	 	 	 	 	1581510349	0.48	0.89
12/02/2020 12:25:50	120220	12022020	122550	91.06	12.418792	-57.245060	91.09	-0.420	1.110	0.810	91.10	-0.30	1.20	 	 	 	 	 	 	 	 	 	 	 	 	 	 	 	 	 	 	1581510350	0.87	1.61
12/02/2020 12:25:51	120220	12022020	122551	91.29	12.418795	-57.245062	91.31	-0.580	0.610	0.600	91.32	-1.10	1.00	 	 	 	 	 	 	 	 	 	 	 	 	 	 	 	 	 	 	1581510351	0.53	0.98
12/02/2020 12:25:52	120220	12022020	122552	91.40	12.418795	-57.245060	91.39	-0.420	-0.260	0.740	91.40	-1.90	1.30	 	 	 	 	 	 	 	 	 	 	 	 	 	 	 	 	 	 	1581510352	0.52	0.96
12/02/2020 12:25:53	120220	12022020	122553	91.27	12.418793	-57.245057	91.22	-0.220	-0.780	1.280	91.21	-2.20	1.90	 	 	 	 	 	 	 	 	 	 	 	 	 	 	 	 	 	 	1581510353	0.76	1.41
12/02/2020 12:25:54	120220	12022020	122554	90.98	12.418788	-57.245055	90.94	-0.180	-0.790	2.010	90.92	-2.10	2.60	 	 	 	 	 	 	 	 	 	 	 	 	 	 	 	 	 	 	1581510354	0.87	1.61
12/02/2020 12:25:55	120220	12022020	122555	90.76	12.418785	-57.245057	90.78	-0.130	-0.710	2.520	90.74	-2.10	3.00	 	 	 	 	 	 	 	 	 	 	 	 	 	 	 	 	 	 	1581510355	1.07	1.98
12/02/2020 12:25:56	120220	12022020	122556	90.71	12.418782	-57.245057	90.76	0.160	-0.850	2.510	90.73	-2.30	2.90	 	 	 	 	 	 	 	 	 	 	 	 	 	 	 	 	 	 	1581510356	0.67	1.24
12/02/2020 12:25:57	120220	12022020	122557	90.75	12.418782	-57.245055	90.77	0.590	-0.960	2.110	90.75	-2.30	2.40	 	 	 	 	 	 	 	 	 	 	 	 	 	 	 	 	 	 	1581510357	0.50	0.93
12/02/2020 12:25:58	120220	12022020	122558	90.69	12.418785	-57.245052	90.66	0.800	-0.570	1.660	90.66	-1.70	2.00	 	 	 	 	 	 	 	 	 	 	 	 	 	 	 	 	 	 	1581510358	0.91	1.69
12/02/2020 12:25:59	120220	12022020	122559	90.57	12.418788	-57.245052	90.58	0.540	0.340	1.240	90.58	-0.70	1.50	 	 	 	 	 	 	 	 	 	 	 	 	 	 	 	 	 	 	1581510359	0.77	1.43
12/02/2020 12:26:00	120220	12022020	122600	90.78	12.418792	-57.245053	90.87	-0.080	1.200	0.660	90.87	0.00	0.90	 	 	 	 	 	 	 	 	 	 	 	 	 	 	 	 	 	 	1581510360	0.85	1.57
12/02/2020 12:26:01	120220	12022020	122601	91.28	12.418795	-57.245057	91.35	-0.630	1.500	-0.010	91.36	0.00	0.30	 	 	 	 	 	 	 	 	 	 	 	 	 	 	 	 	 	 	1581510361	1.04	1.93
12/02/2020 12:26:02	120220	12022020	122602	91.57	12.418800	-57.245058	91.56	-0.770	0.990	-0.180	91.58	-0.70	0.40	1016.70	26.40	26.50	20.90	21.00	169.0	72.0	72.0	417.0	27.3	343.00	10.90	73.00	10.50	19197	10105.0	27.6	27.6	1581510362	1.00	1.85
12/02/2020 12:26:03	120220	12022020	122603	91.45	12.418802	-57.245057	91.38	-0.520	-0.160	0.390	91.39	-1.90	1.10	 	 	 	 	 	 	 	 	 	 	 	 	 	 	 	 	 	 	1581510363	0.42	0.78
12/02/2020 12:26:04	120220	12022020	122604	91.07	12.418798	-57.245053	91.00	-0.100	-1.380	1.320	90.99	-3.10	2.00	 	 	 	 	 	 	 	 	 	 	 	 	 	 	 	 	 	 	1581510364	0.96	1.78
12/02/2020 12:26:05	120220	12022020	122605	90.77	12.418793	-57.245048	90.78	0.320	-2.210	2.160	90.74	-3.70	2.80	 	 	 	 	 	 	 	 	 	 	 	 	 	 	 	 	 	 	1581510365	1.39	2.57
12/02/2020 12:26:06	120220	12022020	122606	90.76	12.418788	-57.245045	90.86	0.590	-2.230	2.740	90.79	-3.40	3.30	 	 	 	 	 	 	 	 	 	 	 	 	 	 	 	 	 	 	1581510366	1.33	2.46
12/02/2020 12:26:07	120220	12022020	122607	90.98	12.418785	-57.245043	91.12	0.520	-1.200	2.990	91.05	-2.10	3.40	 	 	 	 	 	 	 	 	 	 	 	 	 	 	 	 	 	 	1581510367	0.89	1.65
12/02/2020 12:26:08	120220	12022020	122608	91.31	12.418783	-57.245047	91.42	0.070	0.570	2.740	91.37	-0.30	3.00	 	 	 	 	 	 	 	 	 	 	 	 	 	 	 	 	 	 	1581510368	0.73	1.35
12/02/2020 12:26:09	120220	12022020	122609	91.49	12.418783	-57.245052	91.51	-0.500	2.020	2.130	91.50	0.80	2.40	 	 	 	 	 	 	 	 	 	 	 	 	 	 	 	 	 	 	1581510369	1.24	2.30
12/02/2020 12:26:10	120220	12022020	122610	91.38	12.418787	-57.245057	91.31	-0.840	2.130	1.470	91.33	0.50	1.70	 	 	 	 	 	 	 	 	 	 	 	 	 	 	 	 	 	 	1581510370	1.18	2.19
12/02/2020 12:26:11	120220	12022020	122611	91.09	12.418790	-57.245055	91.01	-0.660	0.900	0.740	91.04	-1.00	0.90	 	 	 	 	 	 	 	 	 	 	 	 	 	 	 	 	 	 	1581510371	0.84	1.56
12/02/2020 12:26:12	120220	12022020	122612	90.90	12.418795	-57.245050	90.85	-0.010	-0.700	-0.130	90.89	-2.50	0.10	 	 	 	 	 	 	 	 	 	 	 	 	 	 	 	 	 	 	1581510372	1.60	2.96
12/02/2020 12:26:13	120220	12022020	122613	90.90	12.418803	-57.245045	90.88	0.700	-1.640	-0.800	90.92	-3.10	-0.50	 	 	 	 	 	 	 	 	 	 	 	 	 	 	 	 	 	 	1581510373	1.97	3.65
12/02/2020 12:26:14	120220	12022020	122614	91.13	12.418810	-57.245042	91.18	0.960	-1.650	-1.020	91.21	-2.90	-0.50	 	 	 	 	 	 	 	 	 	 	 	 	 	 	 	 	 	 	1581510374	1.56	2.89
12/02/2020 12:26:15	120220	12022020	122615	91.58	12.418813	-57.245042	91.65	0.600	-1.030	-0.630	91.67	-2.20	0.10	 	 	 	 	 	 	 	 	 	 	 	 	 	 	 	 	 	 	1581510375	0.67	1.24
12/02/2020 12:26:16	120220	12022020	122616	91.90	12.418810	-57.245045	91.91	-0.060	-0.310	0.540	91.90	-1.50	1.50	 	 	 	 	 	 	 	 	 	 	 	 	 	 	 	 	 	 	1581510376	0.82	1.52
12/02/2020 12:26:17	120220	12022020	122617	91.69	12.418800	-57.245047	91.61	-0.500	0.240	2.280	91.59	-1.00	3.30	 	 	 	 	 	 	 	 	 	 	 	 	 	 	 	 	 	 	1581510377	2.05	3.80
12/02/2020 12:26:18	120220	12022020	122618	91.09	12.418788	-57.245047	90.99	-0.570	0.540	3.880	90.96	-0.80	4.70	 	 	 	 	 	 	 	 	 	 	 	 	 	 	 	 	 	 	1581510378	2.44	4.52
12/02/2020 12:26:19	120220	12022020	122619	90.56	12.418780	-57.245047	90.53	-0.380	0.460	4.690	90.49	-1.00	5.20	 	 	 	 	 	 	 	 	 	 	 	 	 	 	 	 	 	 	1581510379	1.86	3.44
12/02/2020 12:26:20	120220	12022020	122620	90.38	12.418777	-57.245045	90.43	-0.120	0.120	4.600	90.39	-1.40	4.90	 	 	 	 	 	 	 	 	 	 	 	 	 	 	 	 	 	 	1581510380	0.81	1.50
12/02/2020 12:26:21	120220	12022020	122621	90.51	12.418778	-57.245042	90.58	0.090	-0.250	3.720	90.55	-1.70	3.80	 	 	 	 	 	 	 	 	 	 	 	 	 	 	 	 	 	 	1581510381	0.61	1.13
12/02/2020 12:26:22	120220	12022020	122622	90.77	12.418785	-57.245040	90.82	0.190	-0.460	2.270	90.82	-1.90	2.30	 	 	 	 	 	 	 	 	 	 	 	 	 	 	 	 	 	 	1581510382	1.31	2.43
12/02/2020 12:26:23	120220	12022020	122623	90.99	12.418793	-57.245038	90.97	0.190	-0.480	0.810	91.02	-1.80	0.90	 	 	 	 	 	 	 	 	 	 	 	 	 	 	 	 	 	 	1581510383	1.78	3.30
12/02/2020 12:26:24	120220	12022020	122624	91.02	12.418800	-57.245038	90.93	0.140	-0.280	-0.170	90.99	-1.60	0.10	 	 	 	 	 	 	 	 	 	 	 	 	 	 	 	 	 	 	1581510384	1.64	3.04
12/02/2020 12:26:25	120220	12022020	122625	90.87	12.418805	-57.245038	90.76	0.110	-0.040	-0.640	90.84	-1.40	-0.20	 	 	 	 	 	 	 	 	 	 	 	 	 	 	 	 	 	 	1581510385	1.12	2.07
12/02/2020 12:26:26	120220	12022020	122626	90.66	12.418808	-57.245040	90.56	0.150	-0.130	-0.710	90.62	-1.60	-0.20	 	 	 	 	 	 	 	 	 	 	 	 	 	 	 	 	 	 	1581510386	0.65	1.20
12/02/2020 12:26:27	120220	12022020	122627	90.45	12.418810	-57.245038	90.37	0.230	-0.590	-0.390	90.41	-2.10	0.30	 	 	 	 	 	 	 	 	 	 	 	 	 	 	 	 	 	 	1581510387	0.44	0.81
12/02/2020 12:26:28	120220	12022020	122628	90.25	12.418808	-57.245033	90.21	0.230	-0.760	0.330	90.23	-2.00	1.00	 	 	 	 	 	 	 	 	 	 	 	 	 	 	 	 	 	 	1581510388	0.86	1.59
12/02/2020 12:26:29	120220	12022020	122629	90.15	12.418805	-57.245032	90.15	0.020	-0.130	1.170	90.15	-1.20	1.90	 	 	 	 	 	 	 	 	 	 	 	 	 	 	 	 	 	 	1581510389	0.78	1.44
12/02/2020 12:26:30	120220	12022020	122630	90.17	12.418802	-57.245035	90.23	-0.330	0.780	1.950	90.19	-0.40	2.60	 	 	 	 	 	 	 	 	 	 	 	 	 	 	 	 	 	 	1581510390	0.97	1.80
12/02/2020 12:26:31	120220	12022020	122631	90.29	12.418797	-57.245038	90.35	-0.580	0.960	2.600	90.30	-0.60	3.20	 	 	 	 	 	 	 	 	 	 	 	 	 	 	 	 	 	 	1581510391	1.17	2.17
12/02/2020 12:26:32	120220	12022020	122632	90.25	12.418793	-57.245038	90.25	-0.510	-0.050	3.170	90.19	-1.90	3.80	 	 	 	 	 	 	 	 	 	 	 	 	 	 	 	 	 	 	1581510392	0.87	1.61
12/02/2020 12:26:33	120220	12022020	122633	89.91	12.418788	-57.245033	89.90	-0.130	-1.400	3.610	89.84	-3.00	4.10	 	 	 	 	 	 	 	 	 	 	 	 	 	 	 	 	 	 	1581510393	1.56	2.89
12/02/2020 12:26:34	120220	12022020	122634	89.67	12.418785	-57.245025	89.70	0.360	-1.750	3.600	89.65	-2.90	3.90	 	 	 	 	 	 	 	 	 	 	 	 	 	 	 	 	 	 	1581510394	1.65	3.06
12/02/2020 12:26:35	120220	12022020	122635	89.67	12.418785	-57.245023	89.71	0.640	-0.790	3.110	89.67	-1.70	3.30	 	 	 	 	 	 	 	 	 	 	 	 	 	 	 	 	 	 	1581510395	0.40	0.74
12/02/2020 12:26:36	120220	12022020	122636	89.68	12.418790	-57.245028	89.70	0.500	0.500	2.220	89.69	-0.60	2.30	 	 	 	 	 	 	 	 	 	 	 	 	 	 	 	 	 	 	1581510396	1.21	2.24
12/02/2020 12:26:37	120220	12022020	122637	89.76	12.418797	-57.245032	89.78	0.000	1.170	1.020	89.79	-0.20	1.10	 	 	 	 	 	 	 	 	 	 	 	 	 	 	 	 	 	 	1581510397	1.80	3.33
12/02/2020 12:26:38	120220	12022020	122638	89.92	12.418805	-57.245035	89.95	-0.470	1.050	-0.060	89.96	-0.50	0.10	 	 	 	 	 	 	 	 	 	 	 	 	 	 	 	 	 	 	1581510398	1.69	3.13
12/02/2020 12:26:39	120220	12022020	122639	90.06	12.418810	-57.245033	90.04	-0.540	0.270	-0.560	90.06	-1.40	-0.10	 	 	 	 	 	 	 	 	 	 	 	 	 	 	 	 	 	 	1581510399	1.10	2.04
12/02/2020 12:26:40	120220	12022020	122640	89.96	12.418810	-57.245032	89.89	-0.130	-0.870	-0.420	89.91	-2.60	0.20	 	 	 	 	 	 	 	 	 	 	 	 	 	 	 	 	 	 	1581510400	0.63	1.17
12/02/2020 12:26:41	120220	12022020	122641	89.58	12.418808	-57.245027	89.47	0.420	-1.720	0.160	89.48	-3.10	0.80	 	 	 	 	 	 	 	 	 	 	 	 	 	 	 	 	 	 	1581510401	1.12	2.07
12/02/2020 12:26:42	120220	12022020	122642	89.17	12.418807	-57.245022	89.13	0.550	-1.510	0.910	89.12	-2.60	1.60	 	 	 	 	 	 	 	 	 	 	 	 	 	 	 	 	 	 	1581510402	1.00	1.85
12/02/2020 12:26:43	120220	12022020	122643	89.11	12.418803	-57.245023	89.20	0.050	-0.350	1.620	89.15	-1.30	2.20	 	 	 	 	 	 	 	 	 	 	 	 	 	 	 	 	 	 	1581510403	0.54	1.00
12/02/2020 12:26:44	120220	12022020	122644	89.46	12.418800	-57.245028	89.61	-0.620	0.750	2.150	89.55	-0.50	2.70	 	 	 	 	 	 	 	 	 	 	 	 	 	 	 	 	 	 	1581510404	1.23	2.28
12/02/2020 12:26:45	120220	12022020	122645	89.84	12.418797	-57.245032	89.95	-0.760	0.920	2.610	89.88	-0.60	3.20	 	 	 	 	 	 	 	 	 	 	 	 	 	 	 	 	 	 	1581510405	1.20	2.22
12/02/2020 12:26:46	120220	12022020	122646	89.95	12.418793	-57.245032	90.02	-0.230	0.240	2.890	89.96	-1.40	3.30	 	 	 	 	 	 	 	 	 	 	 	 	 	 	 	 	 	 	1581510406	0.91	1.69
12/02/2020 12:26:47	120220	12022020	122647	89.98	12.418790	-57.245027	90.06	0.450	-0.370	2.760	90.00	-1.80	3.10	 	 	 	 	 	 	 	 	 	 	 	 	 	 	 	 	 	 	1581510407	1.05	1.94
12/02/2020 12:26:48	120220	12022020	122648	90.17	12.418792	-57.245023	90.28	0.640	-0.290	2.340	90.23	-1.50	2.60	 	 	 	 	 	 	 	 	 	 	 	 	 	 	 	 	 	 	1581510408	0.59	1.09
12/02/2020 12:26:49	120220	12022020	122649	90.51	12.418793	-57.245025	90.61	0.250	0.160	1.920	90.57	-1.20	2.30	 	 	 	 	 	 	 	 	 	 	 	 	 	 	 	 	 	 	1581510409	0.71	1.31
12/02/2020 12:26:50	120220	12022020	122650	90.68	12.418797	-57.245030	90.67	-0.270	0.170	1.680	90.66	-1.40	2.10	 	 	 	 	 	 	 	 	 	 	 	 	 	 	 	 	 	 	1581510410	1.02	1.89
12/02/2020 12:26:51	120220	12022020	122651	90.43	12.418798	-57.245032	90.35	-0.420	-0.420	1.600	90.35	-2.10	2.00	 	 	 	 	 	 	 	 	 	 	 	 	 	 	 	 	 	 	1581510411	0.39	0.72
12/02/2020 12:26:52	120220	12022020	122652	90.00	12.418798	-57.245028	89.95	-0.140	-1.130	1.490	89.94	-2.70	1.90	 	 	 	 	 	 	 	 	 	 	 	 	 	 	 	 	 	 	1581510412	0.50	0.93
12/02/2020 12:26:53	120220	12022020	122653	89.84	12.418798	-57.245025	89.86	0.280	-1.410	1.230	89.85	-2.70	1.60	 	 	 	 	 	 	 	 	 	 	 	 	 	 	 	 	 	 	1581510413	0.72	1.33
12/02/2020 12:26:54	120220	12022020	122654	90.01	12.418798	-57.245023	90.08	0.450	-0.980	0.920	90.06	-2.10	1.30	 	 	 	 	 	 	 	 	 	 	 	 	 	 	 	 	 	 	1581510414	0.44	0.81
12/02/2020 12:26:55	120220	12022020	122655	90.25	12.418800	-57.245025	90.30	0.200	0.040	0.600	90.29	-1.00	0.90	 	 	 	 	 	 	 	 	 	 	 	 	 	 	 	 	 	 	1581510415	0.34	0.63
12/02/2020 12:26:56	120220	12022020	122656	90.47	12.418802	-57.245028	90.53	-0.210	1.060	0.170	90.53	-0.10	0.50	 	 	 	 	 	 	 	 	 	 	 	 	 	 	 	 	 	 	1581510416	0.90	1.67
12/02/2020 12:26:57	120220	12022020	122657	90.82	12.418805	-57.245032	90.91	-0.430	1.450	-0.230	90.91	0.00	0.20	 	 	 	 	 	 	 	 	 	 	 	 	 	 	 	 	 	 	1581510417	0.99	1.83
12/02/2020 12:26:58	120220	12022020	122658	91.18	12.418807	-57.245033	91.24	-0.380	1.030	-0.080	91.22	-0.60	0.60	 	 	 	 	 	 	 	 	 	 	 	 	 	 	 	 	 	 	1581510418	0.44	0.81
12/02/2020 12:26:59	120220	12022020	122659	91.26	12.418803	-57.245033	91.27	-0.250	0.160	0.760	91.24	-1.50	1.50	 	 	 	 	 	 	 	 	 	 	 	 	 	 	 	 	 	 	1581510419	0.51	0.94
12/02/2020 12:27:00	120220	12022020	122700	91.07	12.418798	-57.245032	91.04	-0.120	-0.810	1.830	91.01	-2.50	2.60	 	 	 	 	 	 	 	 	 	 	 	 	 	 	 	 	 	 	1581510420	1.16	2.15
12/02/2020 12:27:01	120220	12022020	122701	90.63	12.418793	-57.245030	90.55	0.140	-1.710	2.830	90.51	-3.30	3.50	 	 	 	 	 	 	 	 	 	 	 	 	 	 	 	 	 	 	1581510421	1.31	2.43
12/02/2020 12:27:02	120220	12022020	122702	90.01	12.418788	-57.245027	89.96	0.540	-2.190	3.580	89.90	-3.50	4.10	1016.70	26.40	26.50	20.50	20.60	189.0	70.0	70.0	420.0	27.3	337.00	12.10	67.00	11.60	19506	10667.0	27.6	27.6	1581510422	1.14	2.11
12/02/2020 12:27:03	120220	12022020	122703	89.69	12.418787	-57.245023	89.78	0.790	-1.750	3.780	89.70	-2.70	4.10	 	 	 	 	 	 	 	 	 	 	 	 	 	 	 	 	 	 	1581510423	0.69	1.28
12/02/2020 12:27:04	120220	12022020	122704	90.00	12.418787	-57.245025	90.18	0.580	-0.360	3.290	90.10	-1.20	3.40	 	 	 	 	 	 	 	 	 	 	 	 	 	 	 	 	 	 	1581510424	0.18	0.33
12/02/2020 12:27:05	120220	12022020	122705	90.62	12.418790	-57.245030	90.78	-0.060	1.370	2.180	90.73	0.40	2.20	 	 	 	 	 	 	 	 	 	 	 	 	 	 	 	 	 	 	1581510425	1.17	2.17
12/02/2020 12:27:06	120220	12022020	122706	91.06	12.418795	-57.245037	91.09	-0.770	2.350	0.910	91.09	1.00	1.00	 	 	 	 	 	 	 	 	 	 	 	 	 	 	 	 	 	 	1581510426	1.72	3.19
12/02/2020 12:27:07	120220	12022020	122707	91.07	12.418798	-57.245040	91.00	-1.140	1.850	-0.140	91.03	0.00	0.10	 	 	 	 	 	 	 	 	 	 	 	 	 	 	 	 	 	 	1581510427	1.27	2.35
12/02/2020 12:27:08	120220	12022020	122708	90.82	12.418802	-57.245038	90.74	-0.990	0.230	-0.690	90.78	-1.70	-0.30	 	 	 	 	 	 	 	 	 	 	 	 	 	 	 	 	 	 	1581510428	0.76	1.41
12/02/2020 12:27:09	120220	12022020	122709	90.61	12.418803	-57.245033	90.56	-0.340	-1.430	-0.770	90.58	-3.20	-0.30	 	 	 	 	 	 	 	 	 	 	 	 	 	 	 	 	 	 	1581510429	1.14	2.11
12/02/2020 12:27:10	120220	12022020	122710	90.53	12.418803	-57.245028	90.51	0.520	-2.170	-0.650	90.53	-3.60	-0.10	 	 	 	 	 	 	 	 	 	 	 	 	 	 	 	 	 	 	1581510430	0.96	1.78
12/02/2020 12:27:11	120220	12022020	122711	90.54	12.418803	-57.245027	90.53	1.190	-1.960	-0.370	90.54	-3.10	0.20	 	 	 	 	 	 	 	 	 	 	 	 	 	 	 	 	 	 	1581510431	0.31	0.57
12/02/2020 12:27:12	120220	12022020	122712	90.45	12.418805	-57.245028	90.42	1.290	-1.210	0.350	90.41	-2.30	1.10	 	 	 	 	 	 	 	 	 	 	 	 	 	 	 	 	 	 	1581510432	0.25	0.46
12/02/2020 12:27:13	120220	12022020	122713	90.29	12.418802	-57.245030	90.31	0.780	-0.130	1.500	90.27	-1.20	2.40	 	 	 	 	 	 	 	 	 	 	 	 	 	 	 	 	 	 	1581510433	0.53	0.98
12/02/2020 12:27:14	120220	12022020	122714	90.29	12.418798	-57.245032	90.39	-0.020	0.850	2.710	90.29	-0.80	2.80	 	 	 	 	 	 	 	 	 	 	 	 	 	 	 	 	 	 	1581510434	1.18	2.19
12/02/2020 12:27:15	120220	12022020	122715	90.47	12.418792	-57.245035	90.60	-0.700	1.280	3.590	90.52	-0.10	4.20	 	 	 	 	 	 	 	 	 	 	 	 	 	 	 	 	 	 	1581510435	1.43	2.65
12/02/2020 12:27:16	120220	12022020	122716	90.75	12.418785	-57.245035	90.90	-1.050	1.190	3.940	90.81	-0.30	4.40	 	 	 	 	 	 	 	 	 	 	 	 	 	 	 	 	 	 	1581510436	1.23	2.28
12/02/2020 12:27:17	120220	12022020	122717	91.06	12.418782	-57.245035	91.18	-1.090	0.870	3.750	91.11	-0.70	4.00	 	 	 	 	 	 	 	 	 	 	 	 	 	 	 	 	 	 	1581510437	0.87	1.61
12/02/2020 12:27:18	120220	12022020	122718	91.28	12.418780	-57.245035	91.33	-0.850	0.270	3.150	91.30	-1.40	3.40	 	 	 	 	 	 	 	 	 	 	 	 	 	 	 	 	 	 	1581510438	0.41	0.76
12/02/2020 12:27:19	120220	12022020	122719	91.28	12.418780	-57.245035	91.25	-0.300	-0.690	2.500	91.24	-2.40	2.80	 	 	 	 	 	 	 	 	 	 	 	 	 	 	 	 	 	 	1581510439	0.08	0.15
12/02/2020 12:27:20	120220	12022020	122720	91.00	12.418782	-57.245033	90.91	0.470	-1.830	1.970	90.92	-3.50	2.20	 	 	 	 	 	 	 	 	 	 	 	 	 	 	 	 	 	 	1581510440	0.70	1.30
12/02/2020 12:27:21	120220	12022020	122721	90.63	12.418785	-57.245028	90.54	1.120	-2.370	1.390	90.57	-3.60	1.60	 	 	 	 	 	 	 	 	 	 	 	 	 	 	 	 	 	 	1581510441	1.25	2.31
12/02/2020 12:27:22	120220	12022020	122722	90.47	12.418790	-57.245025	90.44	1.310	-1.610	0.660	90.48	-2.50	0.90	 	 	 	 	 	 	 	 	 	 	 	 	 	 	 	 	 	 	1581510442	1.23	2.28
12/02/2020 12:27:23	120220	12022020	122723	90.69	12.418797	-57.245027	90.73	1.030	0.000	-0.020	90.77	-0.90	0.30	 	 	 	 	 	 	 	 	 	 	 	 	 	 	 	 	 	 	1581510443	1.30	2.41
12/02/2020 12:27:24	120220	12022020	122724	91.07	12.418802	-57.245032	91.11	0.480	1.310	-0.380	91.14	0.10	0.10	 	 	 	 	 	 	 	 	 	 	 	 	 	 	 	 	 	 	1581510444	1.65	3.06
12/02/2020 12:27:25	120220	12022020	122725	91.31	12.418805	-57.245037	91.30	-0.140	1.540	-0.260	91.32	0.00	0.30	 	 	 	 	 	 	 	 	 	 	 	 	 	 	 	 	 	 	1581510445	1.09	2.02
12/02/2020 12:27:26	120220	12022020	122726	91.26	12.418805	-57.245035	91.23	-0.690	0.870	0.430	91.23	-0.80	1.20	 	 	 	 	 	 	 	 	 	 	 	 	 	 	 	 	 	 	1581510446	0.18	0.33
12/02/2020 12:27:27	120220	12022020	122727	91.10	12.418800	-57.245032	91.12	-1.090	0.130	1.540	91.09	-1.40	2.30	 	 	 	 	 	 	 	 	 	 	 	 	 	 	 	 	 	 	1581510447	1.21	2.24
12/02/2020 12:27:28	120220	12022020	122728	91.24	12.418793	-57.245030	91.39	-1.220	-0.200	2.580	91.32	-1.60	3.30	 	 	 	 	 	 	 	 	 	 	 	 	 	 	 	 	 	 	1581510448	1.73	3.20
12/02/2020 12:27:29	120220	12022020	122729	91.71	12.418783	-57.245032	91.88	-1.000	-0.320	3.390	91.79	-1.80	4.00	 	 	 	 	 	 	 	 	 	 	 	 	 	 	 	 	 	 	1581510449	1.87	3.46
12/02/2020 12:27:30	120220	12022020	122730	92.02	12.418777	-57.245035	92.08	-0.380	-0.710	3.940	92.02	-2.30	4.50	 	 	 	 	 	 	 	 	 	 	 	 	 	 	 	 	 	 	1581510450	1.78	3.30
12/02/2020 12:27:31	120220	12022020	122731	91.81	12.418770	-57.245033	91.75	0.570	-1.470	4.300	91.70	-3.10	4.80	 	 	 	 	 	 	 	 	 	 	 	 	 	 	 	 	 	 	1581510451	1.35	2.50
12/02/2020 12:27:32	120220	12022020	122732	91.19	12.418767	-57.245030	91.10	1.530	-1.930	4.280	91.06	-3.20	4.60	 	 	 	 	 	 	 	 	 	 	 	 	 	 	 	 	 	 	1581510452	1.16	2.15
12/02/2020 12:27:33	120220	12022020	122733	90.66	12.418768	-57.245025	90.65	1.860	-1.280	3.480	90.62	-2.20	3.50	 	 	 	 	 	 	 	 	 	 	 	 	 	 	 	 	 	 	1581510453	1.03	1.91
12/02/2020 12:27:34	120220	12022020	122734	90.69	12.418778	-57.245027	90.79	1.190	0.300	1.960	90.76	-0.60	1.90	 	 	 	 	 	 	 	 	 	 	 	 	 	 	 	 	 	 	1581510454	1.98	3.67
12/02/2020 12:27:35	120220	12022020	122735	91.20	12.418790	-57.245032	91.34	-0.110	1.740	0.410	91.33	0.60	0.50	 	 	 	 	 	 	 	 	 	 	 	 	 	 	 	 	 	 	1581510455	2.77	5.13
12/02/2020 12:27:36	120220	12022020	122736	91.82	12.418798	-57.245037	91.91	-1.250	2.180	-0.660	91.92	0.70	-0.40	 	 	 	 	 	 	 	 	 	 	 	 	 	 	 	 	 	 	1581510456	2.28	4.22
12/02/2020 12:27:37	120220	12022020	122737	92.15	12.418803	-57.245040	92.15	-1.600	1.380	-0.970	92.17	-0.50	-0.50	 	 	 	 	 	 	 	 	 	 	 	 	 	 	 	 	 	 	1581510457	1.04	1.93
12/02/2020 12:27:38	120220	12022020	122738	92.14	12.418802	-57.245038	92.10	-1.120	-0.320	-0.600	92.11	-2.30	0.10	 	 	 	 	 	 	 	 	 	 	 	 	 	 	 	 	 	 	1581510458	0.50	0.93
12/02/2020 12:27:39	120220	12022020	122739	91.93	12.418797	-57.245032	91.89	-0.220	-1.920	0.360	91.87	-3.60	1.20	 	 	 	 	 	 	 	 	 	 	 	 	 	 	 	 	 	 	1581510459	1.62	3.00
12/02/2020 12:27:40	120220	12022020	122740	91.69	12.418788	-57.245027	91.71	0.510	-2.420	1.690	91.65	-3.60	2.60	 	 	 	 	 	 	 	 	 	 	 	 	 	 	 	 	 	 	1581510460	2.07	3.83
12/02/2020 12:27:41	120220	12022020	122741	91.54	12.418778	-57.245027	91.60	0.800	-1.700	2.940	91.52	-2.70	3.70	 	 	 	 	 	 	 	 	 	 	 	 	 	 	 	 	 	 	1581510461	2.04	3.78
12/02/2020 12:27:42	120220	12022020	122742	91.42	12.418772	-57.245030	91.50	0.790	-0.490	3.580	91.41	-1.50	4.00	 	 	 	 	 	 	 	 	 	 	 	 	 	 	 	 	 	 	1581510462	1.69	3.13
12/02/2020 12:27:43	120220	12022020	122743	91.38	12.418770	-57.245033	91.46	0.610	0.500	3.330	91.39	-0.60	3.50	 	 	 	 	 	 	 	 	 	 	 	 	 	 	 	 	 	 	1581510463	0.79	1.46
12/02/2020 12:27:44	120220	12022020	122744	91.52	12.418775	-57.245035	91.61	0.240	1.150	2.440	91.57	-0.10	2.50	 	 	 	 	 	 	 	 	 	 	 	 	 	 	 	 	 	 	1581510464	1.05	1.94
12/02/2020 12:27:45	120220	12022020	122745	91.84	12.418782	-57.245037	91.94	-0.270	1.440	1.400	91.92	0.10	1.50	 	 	 	 	 	 	 	 	 	 	 	 	 	 	 	 	 	 	1581510465	1.47	2.72
12/02/2020 12:27:46	120220	12022020	122746	92.19	12.418787	-57.245038	92.23	-0.680	1.100	0.560	92.23	-0.60	0.80	 	 	 	 	 	 	 	 	 	 	 	 	 	 	 	 	 	 	1581510466	1.25	2.31
12/02/2020 12:27:47	120220	12022020	122747	92.25	12.418790	-57.245038	92.20	-0.690	-0.080	0.170	92.22	-1.90	0.60	 	 	 	 	 	 	 	 	 	 	 	 	 	 	 	 	 	 	1581510467	0.69	1.28
12/02/2020 12:27:48	120220	12022020	122748	91.96	12.418790	-57.245035	91.84	-0.280	-1.490	0.330	91.87	-3.20	0.90	 	 	 	 	 	 	 	 	 	 	 	 	 	 	 	 	 	 	1581510468	0.79	1.46
12/02/2020 12:27:49	120220	12022020	122749	91.52	12.418788	-57.245030	91.46	0.270	-2.130	0.840	91.46	-3.40	1.40	 	 	 	 	 	 	 	 	 	 	 	 	 	 	 	 	 	 	1581510469	1.10	2.04
12/02/2020 12:27:50	120220	12022020	122750	91.43	12.418787	-57.245028	91.50	0.620	-1.540	1.190	91.48	-2.50	1.70	 	 	 	 	 	 	 	 	 	 	 	 	 	 	 	 	 	 	1581510470	0.59	1.09
12/02/2020 12:27:51	120220	12022020	122751	91.82	12.418787	-57.245032	91.96	0.550	-0.220	1.340	91.92	-1.20	1.80	 	 	 	 	 	 	 	 	 	 	 	 	 	 	 	 	 	 	1581510471	0.62	1.15
12/02/2020 12:27:52	120220	12022020	122752	92.29	12.418785	-57.245037	92.38	0.100	0.920	1.580	92.35	-0.20	2.10	 	 	 	 	 	 	 	 	 	 	 	 	 	 	 	 	 	 	1581510472	1.10	2.04
12/02/2020 12:27:53	120220	12022020	122753	92.49	12.418783	-57.245040	92.52	-0.420	1.300	2.040	92.50	-0.10	2.60	 	 	 	 	 	 	 	 	 	 	 	 	 	 	 	 	 	 	1581510473	0.99	1.83
12/02/2020 12:27:54	120220	12022020	122754	92.42	12.418778	-57.245042	92.39	-0.580	0.760	2.610	92.38	-0.90	3.20	 	 	 	 	 	 	 	 	 	 	 	 	 	 	 	 	 	 	1581510474	0.95	1.76
12/02/2020 12:27:55	120220	12022020	122755	92.15	12.418775	-57.245038	92.08	-0.220	-0.400	2.960	92.08	-2.10	3.40	 	 	 	 	 	 	 	 	 	 	 	 	 	 	 	 	 	 	1581510475	1.04	1.93
12/02/2020 12:27:56	120220	12022020	122756	91.81	12.418773	-57.245033	91.74	0.380	-1.350	2.950	91.75	-2.80	3.30	 	 	 	 	 	 	 	 	 	 	 	 	 	 	 	 	 	 	1581510476	1.13	2.09
12/02/2020 12:27:57	120220	12022020	122757	91.58	12.418775	-57.245030	91.56	0.670	-1.320	2.650	91.57	-2.50	2.90	 	 	 	 	 	 	 	 	 	 	 	 	 	 	 	 	 	 	1581510477	0.93	1.72
12/02/2020 12:27:58	120220	12022020	122758	91.65	12.418778	-57.245030	91.70	0.410	-0.400	2.130	91.70	-1.40	2.40	 	 	 	 	 	 	 	 	 	 	 	 	 	 	 	 	 	 	1581510478	0.78	1.44
12/02/2020 12:27:59	120220	12022020	122759	91.97	12.418782	-57.245035	92.04	-0.150	0.580	1.500	92.06	-0.60	1.70	 	 	 	 	 	 	 	 	 	 	 	 	 	 	 	 	 	 	1581510479	1.21	2.24
12/02/2020 12:28:00	120220	12022020	122800	92.35	12.418785	-57.245038	92.39	-0.530	0.920	0.910	92.42	-0.50	1.20	 	 	 	 	 	 	 	 	 	 	 	 	 	 	 	 	 	 	1581510480	1.14	2.11
12/02/2020 12:28:01	120220	12022020	122801	92.58	12.418787	-57.245040	92.56	-0.430	0.380	0.590	92.60	-1.30	1.00	 	 	 	 	 	 	 	 	 	 	 	 	 	 	 	 	 	 	1581510481	0.54	1.00
12/02/2020 12:28:02	120220	12022020	122802	92.52	12.418788	-57.245037	92.44	0.050	-0.640	0.720	92.48	-2.30	1.30	1016.60	26.40	26.50	20.40	20.50	214.0	69.0	69.0	426.0	27.3	335.00	11.40	66.00	10.90	20587	11780.0	27.6	27.5	1581510482	0.66	1.22
12/02/2020 12:28:03	120220	12022020	122803	92.22	12.418787	-57.245032	92.10	0.490	-1.320	1.260	92.14	-2.70	1.90	 	 	 	 	 	 	 	 	 	 	 	 	 	 	 	 	 	 	1581510483	1.11	2.06
12/02/2020 12:28:04	120220	12022020	122804	91.86	12.418783	-57.245028	91.77	0.540	-1.050	1.900	91.80	-2.10	2.50	 	 	 	 	 	 	 	 	 	 	 	 	 	 	 	 	 	 	1581510484	0.88	1.63
12/02/2020 12:28:05	120220	12022020	122805	91.66	12.418782	-57.245030	91.64	0.140	0.000	2.280	91.65	-1.00	2.80	 	 	 	 	 	 	 	 	 	 	 	 	 	 	 	 	 	 	1581510485	0.58	1.07
12/02/2020 12:28:06	120220	12022020	122806	91.74	12.418780	-57.245035	91.77	-0.400	0.920	2.370	91.77	-0.40	2.80	 	 	 	 	 	 	 	 	 	 	 	 	 	 	 	 	 	 	1581510486	1.03	1.91
12/02/2020 12:28:07	120220	12022020	122807	91.98	12.418780	-57.245038	92.01	-0.660	0.840	2.250	92.03	-0.80	2.60	 	 	 	 	 	 	 	 	 	 	 	 	 	 	 	 	 	 	1581510487	0.76	1.41
12/02/2020 12:28:08	120220	12022020	122808	92.22	12.418780	-57.245038	92.22	-0.480	-0.090	2.000	92.25	-1.80	2.40	 	 	 	 	 	 	 	 	 	 	 	 	 	 	 	 	 	 	1581510488	0.24	0.44
12/02/2020 12:28:09	120220	12022020	122809	92.25	12.418782	-57.245033	92.17	-0.030	-0.970	1.830	92.22	-2.50	2.20	 	 	 	 	 	 	 	 	 	 	 	 	 	 	 	 	 	 	1581510489	0.93	1.72
12/02/2020 12:28:10	120220	12022020	122810	91.99	12.418782	-57.245030	91.86	0.420	-1.140	1.790	91.92	-2.40	2.20	 	 	 	 	 	 	 	 	 	 	 	 	 	 	 	 	 	 	1581510490	0.80	1.48
12/02/2020 12:28:11	120220	12022020	122811	91.68	12.418782	-57.245028	91.57	0.650	-0.670	1.660	91.63	-1.90	2.00	 	 	 	 	 	 	 	 	 	 	 	 	 	 	 	 	 	 	1581510491	0.25	0.46
12/02/2020 12:28:12	120220	12022020	122812	91.52	12.418785	-57.245030	91.45	0.610	-0.180	1.420	91.51	-1.50	1.80	 	 	 	 	 	 	 	 	 	 	 	 	 	 	 	 	 	 	1581510492	0.68	1.26
12/02/2020 12:28:13	120220	12022020	122813	91.43	12.418788	-57.245030	91.36	0.350	0.010	1.330	91.41	-1.30	1.80	 	 	 	 	 	 	 	 	 	 	 	 	 	 	 	 	 	 	1581510493	0.74	1.37
12/02/2020 12:28:14	120220	12022020	122814	91.35	12.418790	-57.245028	91.31	-0.080	0.240	1.290	91.36	-1.00	1.70	 	 	 	 	 	 	 	 	 	 	 	 	 	 	 	 	 	 	1581510494	0.47	0.87
12/02/2020 12:28:15	120220	12022020	122815	91.47	12.418792	-57.245030	91.48	-0.570	0.800	1.130	91.52	-0.40	1.50	 	 	 	 	 	 	 	 	 	 	 	 	 	 	 	 	 	 	1581510495	0.21	0.39
12/02/2020 12:28:16	120220	12022020	122816	91.71	12.418792	-57.245033	91.71	-0.960	1.130	1.040	91.74	-0.30	1.50	 	 	 	 	 	 	 	 	 	 	 	 	 	 	 	 	 	 	1581510496	0.76	1.41
12/02/2020 12:28:17	120220	12022020	122817	91.74	12.418792	-57.245037	91.68	-1.020	0.460	1.200	91.71	-1.40	1.70	 	 	 	 	 	 	 	 	 	 	 	 	 	 	 	 	 	 	1581510497	0.64	1.19
12/02/2020 12:28:18	120220	12022020	122818	91.46	12.418788	-57.245033	91.32	-0.580	-1.070	1.600	91.36	-2.90	2.20	 	 	 	 	 	 	 	 	 	 	 	 	 	 	 	 	 	 	1581510498	0.73	1.35
12/02/2020 12:28:19	120220	12022020	122819	90.92	12.418785	-57.245028	90.78	0.230	-2.400	2.110	90.81	-3.90	2.70	 	 	 	 	 	 	 	 	 	 	 	 	 	 	 	 	 	 	1581510499	1.58	2.93
12/02/2020 12:28:20	120220	12022020	122820	90.39	12.418783	-57.245022	90.32	0.950	-2.300	2.370	90.32	-3.30	2.80	 	 	 	 	 	 	 	 	 	 	 	 	 	 	 	 	 	 	1581510500	1.37	2.54
12/02/2020 12:28:21	120220	12022020	122821	90.23	12.418783	-57.245022	90.26	1.100	-0.800	2.110	90.24	-1.60	2.30	 	 	 	 	 	 	 	 	 	 	 	 	 	 	 	 	 	 	1581510501	0.30	0.56
12/02/2020 12:28:22	120220	12022020	122822	90.45	12.418788	-57.245027	90.53	0.670	0.880	1.420	90.52	-0.10	1.60	 	 	 	 	 	 	 	 	 	 	 	 	 	 	 	 	 	 	1581510502	1.43	2.65
12/02/2020 12:28:23	120220	12022020	122823	90.85	12.418793	-57.245032	90.93	0.070	1.650	0.690	90.93	0.30	0.90	 	 	 	 	 	 	 	 	 	 	 	 	 	 	 	 	 	 	1581510503	1.56	2.89
12/02/2020 12:28:24	120220	12022020	122824	91.12	12.418797	-57.245033	91.12	-0.390	1.350	0.360	91.13	-0.20	0.80	 	 	 	 	 	 	 	 	 	 	 	 	 	 	 	 	 	 	1581510504	0.87	1.61
12/02/2020 12:28:25	120220	12022020	122825	90.95	12.418798	-57.245030	90.84	-0.690	0.620	0.610	90.86	-1.00	1.20	 	 	 	 	 	 	 	 	 	 	 	 	 	 	 	 	 	 	1581510505	0.51	0.94
12/02/2020 12:28:26	120220	12022020	122826	90.43	12.418797	-57.245028	90.31	-0.850	0.050	1.110	90.31	-1.50	1.70	 	 	 	 	 	 	 	 	 	 	 	 	 	 	 	 	 	 	1581510506	0.54	1.00
12/02/2020 12:28:27	120220	12022020	122827	89.93	12.418795	-57.245028	89.86	-0.770	-0.430	1.540	89.86	-2.00	2.00	 	 	 	 	 	 	 	 	 	 	 	 	 	 	 	 	 	 	1581510507	0.35	0.65
12/02/2020 12:28:28	120220	12022020	122828	89.67	12.418795	-57.245030	89.67	-0.350	-1.160	1.700	89.64	-2.80	2.10	 	 	 	 	 	 	 	 	 	 	 	 	 	 	 	 	 	 	1581510508	0.13	0.24
12/02/2020 12:28:29	120220	12022020	122829	89.61	12.418795	-57.245028	89.65	0.310	-1.990	1.720	89.61	-3.50	2.20	 	 	 	 	 	 	 	 	 	 	 	 	 	 	 	 	 	 	1581510509	0.46	0.85
12/02/2020 12:28:30	120220	12022020	122830	89.59	12.418795	-57.245023	89.62	0.870	-2.190	1.910	89.58	-3.40	2.40	 	 	 	 	 	 	 	 	 	 	 	 	 	 	 	 	 	 	1581510510	0.90	1.67
12/02/2020 12:28:31	120220	12022020	122831	89.54	12.418793	-57.245020	89.59	0.910	-1.200	2.130	89.54	-2.00	2.60	 	 	 	 	 	 	 	 	 	 	 	 	 	 	 	 	 	 	1581510511	0.68	1.26
12/02/2020 12:28:32	120220	12022020	122832	89.62	12.418792	-57.245023	89.72	0.360	0.700	2.040	89.65	-0.10	2.30	 	 	 	 	 	 	 	 	 	 	 	 	 	 	 	 	 	 	1581510512	0.59	1.09
12/02/2020 12:28:33	120220	12022020	122833	89.78	12.418793	-57.245030	89.82	-0.350	2.360	1.540	89.79	1.20	1.80	 	 	 	 	 	 	 	 	 	 	 	 	 	 	 	 	 	 	1581510513	1.48	2.74
12/02/2020 12:28:34	120220	12022020	122834	89.70	12.418797	-57.245037	89.66	-0.700	2.560	1.040	89.65	0.80	1.30	 	 	 	 	 	 	 	 	 	 	 	 	 	 	 	 	 	 	1581510514	1.59	2.94
12/02/2020 12:28:35	120220	12022020	122835	89.40	12.418800	-57.245037	89.31	-0.550	0.970	0.760	89.32	-1.10	1.10	 	 	 	 	 	 	 	 	 	 	 	 	 	 	 	 	 	 	1581510515	0.97	1.80
12/02/2020 12:28:36	120220	12022020	122836	89.04	12.418803	-57.245030	88.99	-0.200	-1.240	0.560	88.98	-3.10	0.90	 	 	 	 	 	 	 	 	 	 	 	 	 	 	 	 	 	 	1581510516	1.51	2.80
12/02/2020 12:28:37	120220	12022020	122837	88.85	12.418807	-57.245023	88.85	-0.000	-2.360	0.360	88.84	-3.70	0.70	 	 	 	 	 	 	 	 	 	 	 	 	 	 	 	 	 	 	1581510517	1.66	3.07
12/02/2020 12:28:38	120220	12022020	122838	88.85	12.418807	-57.245022	88.91	0.010	-1.760	0.310	88.88	-2.70	0.70	 	 	 	 	 	 	 	 	 	 	 	 	 	 	 	 	 	 	1581510518	0.47	0.87
12/02/2020 12:28:39	120220	12022020	122839	89.05	12.418808	-57.245027	89.16	0.050	-0.550	0.450	89.11	-1.70	0.90	 	 	 	 	 	 	 	 	 	 	 	 	 	 	 	 	 	 	1581510519	1.17	2.17
12/02/2020 12:28:40	120220	12022020	122840	89.31	12.418808	-57.245033	89.38	0.300	-0.090	0.800	89.32	-1.50	1.40	 	 	 	 	 	 	 	 	 	 	 	 	 	 	 	 	 	 	1581510520	1.23	2.28
12/02/2020 12:28:41	120220	12022020	122841	89.22	12.418805	-57.245033	89.21	0.600	-0.410	1.400	89.15	-1.90	2.00	 	 	 	 	 	 	 	 	 	 	 	 	 	 	 	 	 	 	1581510521	0.55	1.02
12/02/2020 12:28:42	120220	12022020	122842	88.77	12.418802	-57.245028	88.73	0.610	-0.530	2.130	88.65	-1.80	2.70	 	 	 	 	 	 	 	 	 	 	 	 	 	 	 	 	 	 	1581510522	1.32	2.44
12/02/2020 12:28:43	120220	12022020	122843	88.23	12.418797	-57.245025	88.22	0.250	0.160	2.680	88.13	-0.90	3.10	 	 	 	 	 	 	 	 	 	 	 	 	 	 	 	 	 	 	1581510523	1.12	2.07
12/02/2020 12:28:44	120220	12022020	122844	87.86	12.418795	-57.245028	87.93	-0.310	1.300	2.610	87.83	0.20	2.80	 	 	 	 	 	 	 	 	 	 	 	 	 	 	 	 	 	 	1581510524	0.73	1.35
12/02/2020 12:28:45	120220	12022020	122845	87.91	12.418797	-57.245035	88.07	-0.800	1.880	1.800	87.97	0.40	1.90	 	 	 	 	 	 	 	 	 	 	 	 	 	 	 	 	 	 	1581510525	1.43	2.65
12/02/2020 12:28:46	120220	12022020	122846	88.28	12.418805	-57.245038	88.43	-0.940	1.210	0.730	88.35	-0.60	0.90	 	 	 	 	 	 	 	 	 	 	 	 	 	 	 	 	 	 	1581510526	1.76	3.26
12/02/2020 12:28:47	120220	12022020	122847	88.54	12.418810	-57.245038	88.62	-0.610	-0.480	-0.000	88.56	-2.40	0.30	 	 	 	 	 	 	 	 	 	 	 	 	 	 	 	 	 	 	1581510527	1.38	2.56
12/02/2020 12:28:48	120220	12022020	122848	88.44	12.418813	-57.245033	88.42	0.060	-2.180	-0.090	88.36	-3.90	0.40	 	 	 	 	 	 	 	 	 	 	 	 	 	 	 	 	 	 	1581510528	1.13	2.09
12/02/2020 12:28:49	120220	12022020	122849	87.92	12.418810	-57.245028	87.86	0.780	-2.930	0.370	87.79	-4.20	1.00	 	 	 	 	 	 	 	 	 	 	 	 	 	 	 	 	 	 	1581510529	1.25	2.31
12/02/2020 12:28:50	120220	12022020	122850	87.34	12.418808	-57.245025	87.34	1.160	-2.270	0.940	87.25	-3.10	1.50	 	 	 	 	 	 	 	 	 	 	 	 	 	 	 	 	 	 	1581510530	0.89	1.65
12/02/2020 12:28:51	120220	12022020	122851	87.02	12.418805	-57.245028	87.08	0.910	-0.400	1.360	86.98	-1.10	1.80	 	 	 	 	 	 	 	 	 	 	 	 	 	 	 	 	 	 	1581510531	0.65	1.20
12/02/2020 12:28:52	120220	12022020	122852	86.91	12.418805	-57.245035	87.01	0.220	1.430	1.520	86.89	0.40	1.90	 	 	 	 	 	 	 	 	 	 	 	 	 	 	 	 	 	 	1581510532	1.46	2.70
12/02/2020 12:28:53	120220	12022020	122853	86.83	12.418803	-57.245040	86.94	-0.400	2.060	1.430	86.81	0.60	1.80	 	 	 	 	 	 	 	 	 	 	 	 	 	 	 	 	 	 	1581510533	1.23	2.28
12/02/2020 12:28:54	120220	12022020	122854	86.73	12.418805	-57.245040	86.83	-0.750	1.520	1.230	86.71	-0.10	1.60	 	 	 	 	 	 	 	 	 	 	 	 	 	 	 	 	 	 	1581510534	0.18	0.33
12/02/2020 12:28:55	120220	12022020	122855	86.67	12.418805	-57.245038	86.79	-0.910	0.680	0.990	86.67	-0.90	1.30	 	 	 	 	 	 	 	 	 	 	 	 	 	 	 	 	 	 	1581510535	0.59	1.09
12/02/2020 12:28:56	120220	12022020	122856	86.72	12.418807	-57.245037	86.87	-0.910	0.040	0.780	86.74	-1.50	1.10	 	 	 	 	 	 	 	 	 	 	 	 	 	 	 	 	 	 	1581510536	0.31	0.57
12/02/2020 12:28:57	120220	12022020	122857	86.82	12.418807	-57.245038	86.96	-0.550	-0.690	0.760	86.83	-2.30	1.20	 	 	 	 	 	 	 	 	 	 	 	 	 	 	 	 	 	 	1581510537	0.28	0.52
12/02/2020 12:28:58	120220	12022020	122858	86.79	12.418805	-57.245038	86.86	0.290	-1.740	1.090	86.74	-3.40	1.70	 	 	 	 	 	 	 	 	 	 	 	 	 	 	 	 	 	 	1581510538	0.23	0.43
12/02/2020 12:28:59	120220	12022020	122859	86.37	12.418803	-57.245035	86.39	1.200	-2.550	1.710	86.25	-3.90	2.30	 	 	 	 	 	 	 	 	 	 	 	 	 	 	 	 	 	 	1581510539	0.90	1.67
12/02/2020 12:29:00	120220	12022020	122900	85.91	12.418802	-57.245030	86.01	1.470	-2.090	2.210	85.86	-3.00	2.70	 	 	 	 	 	 	 	 	 	 	 	 	 	 	 	 	 	 	1581510540	1.04	1.93
12/02/2020 12:29:01	120220	12022020	122901	85.88	12.418800	-57.245032	86.09	0.900	-0.240	2.530	85.92	-0.90	3.00	 	 	 	 	 	 	 	 	 	 	 	 	 	 	 	 	 	 	1581510541	0.41	0.76
12/02/2020 12:29:02	120220	12022020	122902	86.11	12.418798	-57.245038	86.31	-0.060	1.720	2.670	86.15	0.80	3.10	1016.70	26.40	26.50	20.60	20.60	212.0	70.0	70.0	425.0	27.3	341.00	10.40	70.00	9.90	20937	9631.0	27.6	27.5	1581510542	1.57	2.91
12/02/2020 12:29:03	120220	12022020	122903	86.26	12.418797	-57.245047	86.42	-0.780	2.440	2.500	86.27	1.00	2.80	 	 	 	 	 	 	 	 	 	 	 	 	 	 	 	 	 	 	1581510543	1.63	3.02
12/02/2020 12:29:04	120220	12022020	122904	86.24	12.418798	-57.245048	86.36	-0.960	1.690	1.950	86.22	-0.10	2.10	 	 	 	 	 	 	 	 	 	 	 	 	 	 	 	 	 	 	1581510544	0.52	0.96
12/02/2020 12:29:05	120220	12022020	122905	86.16	12.418800	-57.245045	86.28	-0.720	0.180	1.250	86.15	-1.70	1.50	 	 	 	 	 	 	 	 	 	 	 	 	 	 	 	 	 	 	1581510545	0.71	1.31
12/02/2020 12:29:06	120220	12022020	122906	86.18	12.418802	-57.245042	86.32	-0.290	-1.250	0.650	86.20	-2.90	0.90	 	 	 	 	 	 	 	 	 	 	 	 	 	 	 	 	 	 	1581510546	1.03	1.91
12/02/2020 12:29:07	120220	12022020	122907	86.24	12.418803	-57.245038	86.33	0.150	-2.020	0.320	86.22	-3.40	0.70	 	 	 	 	 	 	 	 	 	 	 	 	 	 	 	 	 	 	1581510547	0.79	1.46
12/02/2020 12:29:08	120220	12022020	122908	86.07	12.418805	-57.245037	86.10	0.530	-1.860	0.300	86.01	-3.00	0.80	 	 	 	 	 	 	 	 	 	 	 	 	 	 	 	 	 	 	1581510548	0.26	0.48
12/02/2020 12:29:09	120220	12022020	122909	85.77	12.418805	-57.245038	85.80	0.690	-0.970	0.430	85.72	-2.00	0.90	 	 	 	 	 	 	 	 	 	 	 	 	 	 	 	 	 	 	1581510549	0.37	0.69
12/02/2020 12:29:10	120220	12022020	122910	85.59	12.418805	-57.245042	85.67	0.510	0.100	0.560	85.58	-1.00	1.00	 	 	 	 	 	 	 	 	 	 	 	 	 	 	 	 	 	 	1581510550	0.70	1.30
12/02/2020 12:29:11	120220	12022020	122911	85.56	12.418805	-57.245045	85.66	0.030	0.870	0.710	85.56	-0.40	1.20	 	 	 	 	 	 	 	 	 	 	 	 	 	 	 	 	 	 	1581510551	0.70	1.30
12/02/2020 12:29:12	120220	12022020	122912	85.60	12.418803	-57.245048	85.72	-0.470	1.130	0.970	85.61	-0.30	1.50	 	 	 	 	 	 	 	 	 	 	 	 	 	 	 	 	 	 	1581510552	0.51	0.94
12/02/2020 12:29:13	120220	12022020	122913	85.69	12.418802	-57.245048	85.85	-0.680	0.900	1.290	85.72	-0.60	1.80	 	 	 	 	 	 	 	 	 	 	 	 	 	 	 	 	 	 	1581510553	0.35	0.65
12/02/2020 12:29:14	120220	12022020	122914	85.83	12.418800	-57.245048	85.99	-0.420	0.130	1.650	85.85	-1.60	2.20	 	 	 	 	 	 	 	 	 	 	 	 	 	 	 	 	 	 	1581510554	0.46	0.85
12/02/2020 12:29:15	120220	12022020	122915	85.78	12.418797	-57.245045	85.85	0.160	-0.970	2.140	85.71	-2.60	2.70	 	 	 	 	 	 	 	 	 	 	 	 	 	 	 	 	 	 	1581510555	0.97	1.80
12/02/2020 12:29:16	120220	12022020	122916	85.29	12.418792	-57.245040	85.30	0.680	-1.760	2.700	85.16	-3.10	3.20	 	 	 	 	 	 	 	 	 	 	 	 	 	 	 	 	 	 	1581510556	1.42	2.63
12/02/2020 12:29:17	120220	12022020	122917	84.66	12.418788	-57.245037	84.71	0.770	-1.450	3.040	84.56	-2.50	3.40	 	 	 	 	 	 	 	 	 	 	 	 	 	 	 	 	 	 	1581510557	1.09	2.02
12/02/2020 12:29:18	120220	12022020	122918	84.39	12.418788	-57.245038	84.55	0.350	-0.110	2.680	84.39	-1.00	2.80	 	 	 	 	 	 	 	 	 	 	 	 	 	 	 	 	 	 	1581510558	0.33	0.61
12/02/2020 12:29:19	120220	12022020	122919	84.60	12.418793	-57.245045	84.82	-0.260	1.140	1.550	84.67	-0.10	1.50	 	 	 	 	 	 	 	 	 	 	 	 	 	 	 	 	 	 	1581510559	1.68	3.11
12/02/2020 12:29:20	120220	12022020	122920	84.97	12.418800	-57.245052	85.14	-0.580	1.240	0.170	85.02	-0.30	0.20	 	 	 	 	 	 	 	 	 	 	 	 	 	 	 	 	 	 	1581510560	1.99	3.69
12/02/2020 12:29:21	120220	12022020	122921	85.08	12.418807	-57.245052	85.14	-0.480	0.350	-0.670	85.05	-1.40	-0.40	 	 	 	 	 	 	 	 	 	 	 	 	 	 	 	 	 	 	1581510561	1.41	2.61
12/02/2020 12:29:22	120220	12022020	122922	84.83	12.418808	-57.245048	84.86	-0.170	-0.640	-0.780	84.78	-2.20	-0.30	 	 	 	 	 	 	 	 	 	 	 	 	 	 	 	 	 	 	1581510562	0.98	1.81
12/02/2020 12:29:23	120220	12022020	122923	84.57	12.418808	-57.245045	84.63	0.080	-1.110	-0.430	84.53	-2.50	0.10	 	 	 	 	 	 	 	 	 	 	 	 	 	 	 	 	 	 	1581510563	0.83	1.54
12/02/2020 12:29:24	120220	12022020	122924	84.40	12.418805	-57.245043	84.46	0.210	-0.990	0.170	84.37	-2.20	0.80	 	 	 	 	 	 	 	 	 	 	 	 	 	 	 	 	 	 	1581510564	0.70	1.30
12/02/2020 12:29:25	120220	12022020	122925	84.26	12.418802	-57.245043	84.35	0.200	-0.520	0.910	84.24	-1.70	1.50	 	 	 	 	 	 	 	 	 	 	 	 	 	 	 	 	 	 	1581510565	0.79	1.46
12/02/2020 12:29:26	120220	12022020	122926	84.25	12.418797	-57.245045	84.38	0.130	0.040	1.490	84.27	-1.20	2.00	 	 	 	 	 	 	 	 	 	 	 	 	 	 	 	 	 	 	1581510566	0.93	1.72
12/02/2020 12:29:27	120220	12022020	122927	84.26	12.418793	-57.245047	84.35	0.170	0.240	1.920	84.23	-1.20	2.40	 	 	 	 	 	 	 	 	 	 	 	 	 	 	 	 	 	 	1581510567	0.77	1.43
12/02/2020 12:29:28	120220	12022020	122928	83.99	12.418792	-57.245047	84.02	0.350	-0.140	2.300	83.90	-1.60	2.80	 	 	 	 	 	 	 	 	 	 	 	 	 	 	 	 	 	 	1581510568	0.36	0.67
12/02/2020 12:29:29	120220	12022020	122929	83.63	12.418793	-57.245042	83.73	0.390	-0.460	2.540	83.60	-1.70	3.00	 	 	 	 	 	 	 	 	 	 	 	 	 	 	 	 	 	 	1581510569	0.79	1.46
12/02/2020 12:29:30	120220	12022020	122930	83.69	12.418793	-57.245040	83.93	0.030	0.060	2.540	83.77	-1.00	2.90	 	 	 	 	 	 	 	 	 	 	 	 	 	 	 	 	 	 	1581510570	0.49	0.91
12/02/2020 12:29:31	120220	12022020	122931	84.21	12.418793	-57.245043	84.49	-0.650	1.080	2.200	84.33	-0.10	2.40	 	 	 	 	 	 	 	 	 	 	 	 	 	 	 	 	 	 	1581510571	0.77	1.43
12/02/2020 12:29:32	120220	12022020	122932	84.62	12.418792	-57.245050	84.77	-1.130	1.300	1.690	84.62	0.00	2.20	 	 	 	 	 	 	 	 	 	 	 	 	 	 	 	 	 	 	1581510572	1.45	2.69
12/02/2020 12:29:33	120220	12022020	122933	84.47	12.418790	-57.245053	84.46	-0.900	0.030	1.360	84.36	-1.90	1.70	 	 	 	 	 	 	 	 	 	 	 	 	 	 	 	 	 	 	1581510573	0.55	1.02
12/02/2020 12:29:34	120220	12022020	122934	83.79	12.418790	-57.245048	83.72	0.030	-1.890	1.440	83.64	-3.70	1.90	 	 	 	 	 	 	 	 	 	 	 	 	 	 	 	 	 	 	1581510574	1.11	2.06
12/02/2020 12:29:35	120220	12022020	122935	83.18	12.418790	-57.245040	83.22	1.060	-2.880	1.420	83.12	-4.20	1.70	 	 	 	 	 	 	 	 	 	 	 	 	 	 	 	 	 	 	1581510575	1.79	3.32
12/02/2020 12:29:36	120220	12022020	122936	83.13	12.418792	-57.245035	83.27	1.500	-2.190	1.010	83.17	-3.00	1.20	 	 	 	 	 	 	 	 	 	 	 	 	 	 	 	 	 	 	1581510576	1.09	2.02
12/02/2020 12:29:37	120220	12022020	122937	83.46	12.418795	-57.245037	83.62	1.080	-0.240	0.300	83.54	-0.90	0.50	 	 	 	 	 	 	 	 	 	 	 	 	 	 	 	 	 	 	1581510577	0.83	1.54
12/02/2020 12:29:38	120220	12022020	122938	83.83	12.418798	-57.245043	83.95	0.180	1.720	-0.260	83.89	0.80	0.10	 	 	 	 	 	 	 	 	 	 	 	 	 	 	 	 	 	 	1581510578	1.70	3.15
12/02/2020 12:29:39	120220	12022020	122939	83.97	12.418802	-57.245050	84.02	-0.770	2.770	-0.150	83.95	1.50	0.50	 	 	 	 	 	 	 	 	 	 	 	 	 	 	 	 	 	 	1581510579	1.54	2.85
12/02/2020 12:29:40	120220	12022020	122940	83.70	12.418800	-57.245055	83.68	-1.440	2.550	0.770	83.60	0.90	1.50	 	 	 	 	 	 	 	 	 	 	 	 	 	 	 	 	 	 	1581510580	0.97	1.80
12/02/2020 12:29:41	120220	12022020	122941	83.12	12.418793	-57.245055	83.11	-1.510	1.010	1.930	83.00	-1.00	2.60	 	 	 	 	 	 	 	 	 	 	 	 	 	 	 	 	 	 	1581510581	1.18	2.19
12/02/2020 12:29:42	120220	12022020	122942	82.61	12.418788	-57.245050	82.69	-0.810	-1.320	2.670	82.54	-3.30	3.20	 	 	 	 	 	 	 	 	 	 	 	 	 	 	 	 	 	 	1581510582	1.52	2.82
12/02/2020 12:29:43	120220	12022020	122943	82.39	12.418785	-57.245043	82.56	0.380	-3.290	2.970	82.38	-4.90	3.40	 	 	 	 	 	 	 	 	 	 	 	 	 	 	 	 	 	 	1581510583	1.70	3.15
12/02/2020 12:29:44	120220	12022020	122944	82.43	12.418785	-57.245037	82.64	1.400	-3.720	3.030	82.46	-4.80	3.40	 	 	 	 	 	 	 	 	 	 	 	 	 	 	 	 	 	 	1581510584	1.39	2.57
12/02/2020 12:29:45	120220	12022020	122945	82.58	12.418785	-57.245035	82.77	1.590	-2.350	2.850	82.61	-3.00	3.10	 	 	 	 	 	 	 	 	 	 	 	 	 	 	 	 	 	 	1581510585	0.34	0.63
12/02/2020 12:29:46	120220	12022020	122946	82.62	12.418785	-57.245040	82.73	0.870	-0.000	2.460	82.60	-0.60	2.70	 	 	 	 	 	 	 	 	 	 	 	 	 	 	 	 	 	 	1581510586	0.88	1.63
12/02/2020 12:29:47	120220	12022020	122947	82.30	12.418785	-57.245047	82.31	-0.230	2.090	1.960	82.20	1.20	2.20	 	 	 	 	 	 	 	 	 	 	 	 	 	 	 	 	 	 	1581510587	1.54	2.85
12/02/2020 12:29:48	120220	12022020	122948	81.71	12.418787	-57.245053	81.70	-1.030	3.100	1.280	81.60	1.80	1.40	 	 	 	 	 	 	 	 	 	 	 	 	 	 	 	 	 	 	1581510588	1.44	2.67
12/02/2020 12:29:49	120220	12022020	122949	81.26	12.418790	-57.245057	81.28	-1.220	2.660	0.170	81.20	0.90	0.20	 	 	 	 	 	 	 	 	 	 	 	 	 	 	 	 	 	 	1581510589	1.15	2.13
12/02/2020 12:29:50	120220	12022020	122950	81.09	12.418798	-57.245057	81.13	-0.860	0.890	-1.060	81.07	-1.20	-1.00	 	 	 	 	 	 	 	 	 	 	 	 	 	 	 	 	 	 	1581510590	1.55	2.87
12/02/2020 12:29:51	120220	12022020	122951	81.05	12.418807	-57.245052	81.08	-0.250	-1.360	-1.880	81.04	-3.30	-1.60	 	 	 	 	 	 	 	 	 	 	 	 	 	 	 	 	 	 	1581510591	2.04	3.78
12/02/2020 12:29:52	120220	12022020	122952	81.00	12.418813	-57.245047	81.02	0.350	-2.900	-2.010	80.99	-4.40	-1.50	 	 	 	 	 	 	 	 	 	 	 	 	 	 	 	 	 	 	1581510592	1.84	3.41
12/02/2020 12:29:53	120220	12022020	122953	80.97	12.418815	-57.245042	81.00	0.730	-2.980	-1.540	80.96	-4.10	-0.90	 	 	 	 	 	 	 	 	 	 	 	 	 	 	 	 	 	 	1581510593	0.93	1.72
12/02/2020 12:29:54	120220	12022020	122954	80.95	12.418812	-57.245042	81.00	0.800	-1.850	-0.480	80.95	-2.70	0.30	 	 	 	 	 	 	 	 	 	 	 	 	 	 	 	 	 	 	1581510594	0.55	1.02
12/02/2020 12:29:55	120220	12022020	122955	80.88	12.418805	-57.245045	80.94	0.460	-0.110	1.040	80.85	-0.90	1.90	 	 	 	 	 	 	 	 	 	 	 	 	 	 	 	 	 	 	1581510595	1.62	3.00
12/02/2020 12:29:56	120220	12022020	122956	80.67	12.418795	-57.245048	80.72	-0.120	1.450	2.690	80.61	0.40	3.50	 	 	 	 	 	 	 	 	 	 	 	 	 	 	 	 	 	 	1581510596	2.29	4.24
12/02/2020 12:29:57	120220	12022020	122957	80.32	12.418785	-57.245052	80.39	-0.500	2.010	3.900	80.24	0.50	4.50	 	 	 	 	 	 	 	 	 	 	 	 	 	 	 	 	 	 	1581510597	2.17	4.02
12/02/2020 12:29:58	120220	12022020	122958	80.01	12.418780	-57.245050	80.13	-0.370	1.230	4.260	79.97	-0.50	4.60	 	 	 	 	 	 	 	 	 	 	 	 	 	 	 	 	 	 	1581510598	1.12	2.07
12/02/2020 12:29:59	120220	12022020	122959	79.98	12.418782	-57.245045	80.20	0.060	-0.170	3.740	80.02	-1.90	3.80	 	 	 	 	 	 	 	 	 	 	 	 	 	 	 	 	 	 	1581510599	1.08	2.00
12/02/2020 12:30:00	120220	12022020	123000	80.34	12.418787	-57.245040	80.60	0.270	-1.030	2.600	80.44	-2.40	2.60	 	 	 	 	 	 	 	 	 	 	 	 	 	 	 	 	 	 	1581510600	1.67	3.09
12/02/2020 12:30:01	120220	12022020	123001	80.80	12.418795	-57.245040	81.00	0.080	-0.830	1.420	80.86	-2.00	1.50	 	 	 	 	 	 	 	 	 	 	 	 	 	 	 	 	 	 	1581510601	1.54	2.85
12/02/2020 12:30:02	120220	12022020	123002	80.88	12.418798	-57.245043	80.93	-0.280	-0.200	0.780	80.82	-1.40	1.10	1016.80	26.40	26.50	20.70	20.70	187.0	70.0	70.0	422.0	27.2	348.00	10.30	70.00	9.70	20021	9873.0	27.5	27.5	1581510602	1.29	2.39
12/02/2020 12:30:03	120220	12022020	123003	80.39	12.418800	-57.245048	80.34	-0.330	-0.100	0.580	80.26	-1.60	0.90	 	 	 	 	 	 	 	 	 	 	 	 	 	 	 	 	 	 	1581510603	0.96	1.78
12/02/2020 12:30:04	120220	12022020	123004	79.77	12.418802	-57.245048	79.76	0.090	-0.730	0.220	79.67	-2.30	0.40	 	 	 	 	 	 	 	 	 	 	 	 	 	 	 	 	 	 	1581510604	0.32	0.59
12/02/2020 12:30:05	120220	12022020	123005	79.53	12.418807	-57.245045	79.62	0.670	-1.360	-0.420	79.54	-2.80	-0.20	 	 	 	 	 	 	 	 	 	 	 	 	 	 	 	 	 	 	1581510605	1.35	2.50
12/02/2020 12:30:06	120220	12022020	123006	79.77	12.418813	-57.245040	79.92	0.880	-1.200	-0.910	79.85	-2.30	-0.60	 	 	 	 	 	 	 	 	 	 	 	 	 	 	 	 	 	 	1581510606	1.62	3.00
12/02/2020 12:30:07	120220	12022020	123007	80.15	12.418817	-57.245040	80.27	0.500	-0.210	-0.890	80.21	-1.20	-0.40	 	 	 	 	 	 	 	 	 	 	 	 	 	 	 	 	 	 	1581510607	0.81	1.50
12/02/2020 12:30:08	120220	12022020	123008	80.37	12.418817	-57.245043	80.49	-0.220	1.020	-0.270	80.40	0.00	0.40	 	 	 	 	 	 	 	 	 	 	 	 	 	 	 	 	 	 	1581510608	0.58	1.07
12/02/2020 12:30:09	120220	12022020	123009	80.45	12.418812	-57.245047	80.57	-0.890	1.850	0.790	80.45	0.60	1.50	 	 	 	 	 	 	 	 	 	 	 	 	 	 	 	 	 	 	1581510609	1.37	2.54
12/02/2020 12:30:10	120220	12022020	123010	80.44	12.418803	-57.245048	80.56	-1.150	1.760	1.850	80.43	0.10	2.50	 	 	 	 	 	 	 	 	 	 	 	 	 	 	 	 	 	 	1581510610	1.88	3.48
12/02/2020 12:30:11	120220	12022020	123011	80.28	12.418795	-57.245048	80.36	-0.850	0.540	2.660	80.21	-1.30	3.20	 	 	 	 	 	 	 	 	 	 	 	 	 	 	 	 	 	 	1581510611	1.68	3.11
12/02/2020 12:30:12	120220	12022020	123012	79.89	12.418792	-57.245043	79.96	-0.080	-1.280	3.140	79.81	-3.10	3.60	 	 	 	 	 	 	 	 	 	 	 	 	 	 	 	 	 	 	1581510612	1.23	2.28
12/02/2020 12:30:13	120220	12022020	123013	79.54	12.418793	-57.245037	79.68	0.780	-2.640	3.210	79.50	-4.10	3.50	 	 	 	 	 	 	 	 	 	 	 	 	 	 	 	 	 	 	1581510613	1.40	2.59
12/02/2020 12:30:14	120220	12022020	123014	79.51	12.418797	-57.245032	79.72	1.280	-2.640	2.890	79.54	-3.60	3.10	 	 	 	 	 	 	 	 	 	 	 	 	 	 	 	 	 	 	1581510614	1.37	2.54
12/02/2020 12:30:15	120220	12022020	123015	79.68	12.418802	-57.245033	79.88	1.140	-1.330	2.270	79.71	-2.10	2.40	 	 	 	 	 	 	 	 	 	 	 	 	 	 	 	 	 	 	1581510615	0.88	1.63
12/02/2020 12:30:16	120220	12022020	123016	79.77	12.418805	-57.245038	79.90	0.550	0.270	1.410	79.77	-0.70	1.50	 	 	 	 	 	 	 	 	 	 	 	 	 	 	 	 	 	 	1581510616	1.24	2.30
12/02/2020 12:30:17	120220	12022020	123017	79.70	12.418808	-57.245043	79.79	-0.110	1.360	0.510	79.68	0.20	0.70	 	 	 	 	 	 	 	 	 	 	 	 	 	 	 	 	 	 	1581510617	1.36	2.52
12/02/2020 12:30:18	120220	12022020	123018	79.65	12.418813	-57.245045	79.78	-0.660	1.850	-0.200	79.67	0.50	0.10	 	 	 	 	 	 	 	 	 	 	 	 	 	 	 	 	 	 	1581510618	1.05	1.94
12/02/2020 12:30:19	120220	12022020	123019	79.79	12.418815	-57.245047	79.95	-1.030	1.770	-0.550	79.83	0.20	-0.20	 	 	 	 	 	 	 	 	 	 	 	 	 	 	 	 	 	 	1581510619	0.62	1.15
12/02/2020 12:30:20	120220	12022020	123020	79.93	12.418815	-57.245048	80.03	-1.140	0.920	-0.690	79.93	-0.90	-0.30	 	 	 	 	 	 	 	 	 	 	 	 	 	 	 	 	 	 	1581510620	0.16	0.30
12/02/2020 12:30:21	120220	12022020	123021	79.72	12.418815	-57.245045	79.69	-0.800	-0.680	-0.580	79.61	-2.60	-0.10	 	 	 	 	 	 	 	 	 	 	 	 	 	 	 	 	 	 	1581510621	0.42	0.78
12/02/2020 12:30:22	120220	12022020	123022	79.09	12.418815	-57.245040	79.04	-0.060	-2.200	-0.040	78.95	-3.80	0.60	 	 	 	 	 	 	 	 	 	 	 	 	 	 	 	 	 	 	1581510622	1.10	2.04
12/02/2020 12:30:23	120220	12022020	123023	78.58	12.418813	-57.245035	78.64	0.740	-2.630	0.730	78.54	-3.80	1.40	 	 	 	 	 	 	 	 	 	 	 	 	 	 	 	 	 	 	1581510623	1.16	2.15
12/02/2020 12:30:24	120220	12022020	123024	78.56	12.418812	-57.245033	78.73	1.190	-1.750	1.320	78.61	-2.60	1.80	 	 	 	 	 	 	 	 	 	 	 	 	 	 	 	 	 	 	1581510624	0.53	0.98
12/02/2020 12:30:25	120220	12022020	123025	78.84	12.418810	-57.245037	79.02	1.100	-0.280	1.410	78.90	-1.20	1.70	 	 	 	 	 	 	 	 	 	 	 	 	 	 	 	 	 	 	1581510625	0.75	1.39
12/02/2020 12:30:26	120220	12022020	123026	79.10	12.418810	-57.245040	79.23	0.580	0.850	1.110	79.12	-0.30	1.40	 	 	 	 	 	 	 	 	 	 	 	 	 	 	 	 	 	 	1581510626	0.91	1.69
12/02/2020 12:30:27	120220	12022020	123027	79.10	12.418812	-57.245043	79.15	0.000	1.330	1.030	79.06	0.00	1.50	 	 	 	 	 	 	 	 	 	 	 	 	 	 	 	 	 	 	1581510627	0.59	1.09
12/02/2020 12:30:28	120220	12022020	123028	78.75	12.418810	-57.245043	78.75	-0.390	1.260	1.380	78.65	-0.20	1.90	 	 	 	 	 	 	 	 	 	 	 	 	 	 	 	 	 	 	1581510628	0.11	0.20
12/02/2020 12:30:29	120220	12022020	123029	78.28	12.418808	-57.245042	78.33	-0.650	0.740	1.640	78.22	-0.80	2.00	 	 	 	 	 	 	 	 	 	 	 	 	 	 	 	 	 	 	1581510629	0.49	0.91
12/02/2020 12:30:30	120220	12022020	123030	78.14	12.418808	-57.245040	78.27	-0.840	-0.020	1.430	78.15	-1.60	1.70	 	 	 	 	 	 	 	 	 	 	 	 	 	 	 	 	 	 	1581510630	0.35	0.65
12/02/2020 12:30:31	120220	12022020	123031	78.30	12.418812	-57.245040	78.45	-0.850	-0.690	0.890	78.34	-2.20	1.10	 	 	 	 	 	 	 	 	 	 	 	 	 	 	 	 	 	 	1581510631	0.53	0.98
12/02/2020 12:30:32	120220	12022020	123032	78.51	12.418813	-57.245040	78.63	-0.470	-1.120	0.370	78.54	-2.50	0.60	 	 	 	 	 	 	 	 	 	 	 	 	 	 	 	 	 	 	1581510632	0.68	1.26
12/02/2020 12:30:33	120220	12022020	123033	78.61	12.418817	-57.245040	78.68	0.270	-1.300	0.150	78.61	-2.60	0.60	 	 	 	 	 	 	 	 	 	 	 	 	 	 	 	 	 	 	1581510633	0.47	0.87
12/02/2020 12:30:34	120220	12022020	123034	78.54	12.418817	-57.245038	78.57	0.940	-1.160	0.390	78.50	-2.40	0.90	 	 	 	 	 	 	 	 	 	 	 	 	 	 	 	 	 	 	1581510634	0.17	0.31
12/02/2020 12:30:35	120220	12022020	123035	78.37	12.418815	-57.245038	78.40	1.090	-0.730	0.900	78.33	-1.90	1.50	 	 	 	 	 	 	 	 	 	 	 	 	 	 	 	 	 	 	1581510635	0.42	0.78
12/02/2020 12:30:36	120220	12022020	123036	78.18	12.418812	-57.245037	78.23	0.650	-0.160	1.400	78.15	-1.30	1.90	 	 	 	 	 	 	 	 	 	 	 	 	 	 	 	 	 	 	1581510636	0.48	0.89
12/02/2020 12:30:37	120220	12022020	123037	78.01	12.418812	-57.245037	78.07	-0.050	0.440	1.590	77.98	-0.70	2.00	 	 	 	 	 	 	 	 	 	 	 	 	 	 	 	 	 	 	1581510637	0.34	0.63
12/02/2020 12:30:38	120220	12022020	123038	77.96	12.418810	-57.245038	78.08	-0.600	1.080	1.430	77.98	-0.10	1.70	 	 	 	 	 	 	 	 	 	 	 	 	 	 	 	 	 	 	1581510638	0.24	0.44
12/02/2020 12:30:39	120220	12022020	123039	78.16	12.418812	-57.245042	78.31	-0.780	1.430	1.030	78.22	0.00	1.30	 	 	 	 	 	 	 	 	 	 	 	 	 	 	 	 	 	 	1581510639	0.62	1.15
12/02/2020 12:30:40	120220	12022020	123040	78.45	12.418813	-57.245043	78.58	-0.580	0.910	0.630	78.50	-0.80	0.90	 	 	 	 	 	 	 	 	 	 	 	 	 	 	 	 	 	 	1581510640	0.73	1.35
12/02/2020 12:30:41	120220	12022020	123041	78.49	12.418817	-57.245043	78.51	-0.140	-0.490	0.520	78.44	-2.30	1.00	 	 	 	 	 	 	 	 	 	 	 	 	 	 	 	 	 	 	1581510641	0.60	1.11
12/02/2020 12:30:42	120220	12022020	123042	78.11	12.418818	-57.245038	78.07	0.260	-1.870	0.780	78.01	-3.40	1.30	 	 	 	 	 	 	 	 	 	 	 	 	 	 	 	 	 	 	1581510642	1.17	2.17
12/02/2020 12:30:43	120220	12022020	123043	77.74	12.418818	-57.245032	77.79	0.430	-2.140	1.090	77.71	-3.20	1.50	 	 	 	 	 	 	 	 	 	 	 	 	 	 	 	 	 	 	1581510643	1.19	2.20
12/02/2020 12:30:44	120220	12022020	123044	77.79	12.418818	-57.245032	77.96	0.350	-1.080	1.140	77.86	-2.00	1.50	 	 	 	 	 	 	 	 	 	 	 	 	 	 	 	 	 	 	1581510644	0.17	0.31
12/02/2020 12:30:45	120220	12022020	123045	78.19	12.418817	-57.245037	78.39	0.110	0.320	1.020	78.28	-0.70	1.40	 	 	 	 	 	 	 	 	 	 	 	 	 	 	 	 	 	 	1581510645	1.00	1.85
12/02/2020 12:30:46	120220	12022020	123046	78.60	12.418817	-57.245042	78.77	-0.170	1.030	1.050	78.66	-0.30	1.50	 	 	 	 	 	 	 	 	 	 	 	 	 	 	 	 	 	 	1581510646	1.14	2.11
12/02/2020 12:30:47	120220	12022020	123047	78.71	12.418815	-57.245043	78.79	-0.230	0.750	1.410	78.68	-0.80	2.00	 	 	 	 	 	 	 	 	 	 	 	 	 	 	 	 	 	 	1581510647	0.56	1.04
12/02/2020 12:30:48	120220	12022020	123048	78.44	12.418812	-57.245040	78.49	-0.040	-0.040	1.940	78.37	-1.60	2.50	 	 	 	 	 	 	 	 	 	 	 	 	 	 	 	 	 	 	1581510648	0.98	1.81
12/02/2020 12:30:49	120220	12022020	123049	78.09	12.418808	-57.245035	78.17	0.140	-0.550	2.310	78.04	-1.90	2.70	 	 	 	 	 	 	 	 	 	 	 	 	 	 	 	 	 	 	1581510649	1.17	2.17
12/02/2020 12:30:50	120220	12022020	123050	77.82	12.418808	-57.245032	77.91	0.070	-0.450	2.260	77.77	-1.60	2.50	 	 	 	 	 	 	 	 	 	 	 	 	 	 	 	 	 	 	1581510650	0.57	1.06
12/02/2020 12:30:51	120220	12022020	123051	77.62	12.418810	-57.245033	77.75	-0.170	0.020	1.740	77.61	-1.20	1.90	 	 	 	 	 	 	 	 	 	 	 	 	 	 	 	 	 	 	1581510651	0.47	0.87
12/02/2020 12:30:52	120220	12022020	123052	77.66	12.418813	-57.245038	77.84	-0.320	0.200	0.910	77.71	-1.20	1.00	 	 	 	 	 	 	 	 	 	 	 	 	 	 	 	 	 	 	1581510652	1.31	2.43
12/02/2020 12:30:53	120220	12022020	123053	78.01	12.418820	-57.245040	78.22	-0.190	-0.190	-0.020	78.11	-1.70	0.10	 	 	 	 	 	 	 	 	 	 	 	 	 	 	 	 	 	 	1581510653	1.41	2.61
12/02/2020 12:30:54	120220	12022020	123054	78.45	12.418825	-57.245040	78.57	0.110	-0.750	-0.660	78.51	-2.30	-0.40	 	 	 	 	 	 	 	 	 	 	 	 	 	 	 	 	 	 	1581510654	1.18	2.19
12/02/2020 12:30:55	120220	12022020	123055	78.64	12.418828	-57.245037	78.69	0.420	-1.100	-0.860	78.63	-2.40	-0.40	 	 	 	 	 	 	 	 	 	 	 	 	 	 	 	 	 	 	1581510655	0.83	1.54
12/02/2020 12:30:56	120220	12022020	123056	78.49	12.418827	-57.245035	78.49	0.460	-0.830	-0.300	78.42	-2.00	0.40	 	 	 	 	 	 	 	 	 	 	 	 	 	 	 	 	 	 	1581510656	0.51	0.94
12/02/2020 12:30:57	120220	12022020	123057	78.04	12.418823	-57.245033	78.02	0.230	-0.090	0.710	77.94	-1.20	1.40	 	 	 	 	 	 	 	 	 	 	 	 	 	 	 	 	 	 	1581510657	0.87	1.61
12/02/2020 12:30:58	120220	12022020	123058	77.57	12.418818	-57.245035	77.61	-0.160	0.710	1.580	77.50	-0.40	2.20	 	 	 	 	 	 	 	 	 	 	 	 	 	 	 	 	 	 	1581510658	1.03	1.91
12/02/2020 12:30:59	120220	12022020	123059	77.36	12.418815	-57.245037	77.47	-0.550	1.090	2.080	77.35	-0.30	2.50	 	 	 	 	 	 	 	 	 	 	 	 	 	 	 	 	 	 	1581510659	0.91	1.69
12/02/2020 12:31:00	120220	12022020	123100	77.39	12.418812	-57.245038	77.55	-0.760	0.820	2.100	77.42	-0.70	2.40	 	 	 	 	 	 	 	 	 	 	 	 	 	 	 	 	 	 	1581510660	0.55	1.02
12/02/2020 12:31:01	120220	12022020	123101	77.55	12.418812	-57.245037	77.70	-0.660	-0.060	1.710	77.58	-1.70	1.90	 	 	 	 	 	 	 	 	 	 	 	 	 	 	 	 	 	 	1581510661	0.18	0.33
12/02/2020 12:31:02	120220	12022020	123102	77.70	12.418815	-57.245035	77.83	-0.170	-1.130	1.310	77.72	-2.70	1.60	1016.80	26.40	26.50	20.70	20.80	146.0	70.0	70.0	416.0	27.2	358.00	10.40	77.00	9.90	18255	11300.0	27.6	27.5	1581510662	0.81	1.50
12/02/2020 12:31:03	120220	12022020	123103	77.80	12.418818	-57.245032	77.92	0.520	-1.780	1.120	77.81	-3.10	1.50	 	 	 	 	 	 	 	 	 	 	 	 	 	 	 	 	 	 	1581510663	1.05	1.94
12/02/2020 12:31:04	120220	12022020	123104	77.86	12.418820	-57.245028	77.94	0.920	-1.400	0.970	77.86	-2.40	1.30	 	 	 	 	 	 	 	 	 	 	 	 	 	 	 	 	 	 	1581510664	0.69	1.28
12/02/2020 12:31:05	120220	12022020	123105	77.79	12.418820	-57.245030	77.83	0.680	-0.120	0.750	77.75	-1.00	1.10	 	 	 	 	 	 	 	 	 	 	 	 	 	 	 	 	 	 	1581510665	0.30	0.56
12/02/2020 12:31:06	120220	12022020	123106	77.49	12.418820	-57.245035	77.47	0.030	1.020	0.770	77.40	-0.20	1.20	 	 	 	 	 	 	 	 	 	 	 	 	 	 	 	 	 	 	1581510666	1.08	2.00
12/02/2020 12:31:07	120220	12022020	123107	77.06	12.418820	-57.245038	77.04	-0.430	1.110	0.960	76.98	-0.40	1.40	 	 	 	 	 	 	 	 	 	 	 	 	 	 	 	 	 	 	1581510667	0.84	1.56
12/02/2020 12:31:08	120220	12022020	123108	76.77	12.418820	-57.245038	76.82	-0.370	0.230	0.950	76.75	-1.40	1.30	 	 	 	 	 	 	 	 	 	 	 	 	 	 	 	 	 	 	1581510668	0.27	0.50
12/02/2020 12:31:09	120220	12022020	123109	76.76	12.418823	-57.245033	76.84	-0.050	-0.700	0.680	76.77	-2.20	1.00	 	 	 	 	 	 	 	 	 	 	 	 	 	 	 	 	 	 	1581510669	1.14	2.11
12/02/2020 12:31:10	120220	12022020	123110	76.87	12.418827	-57.245030	76.97	0.140	-0.910	0.430	76.90	-2.10	0.80	 	 	 	 	 	 	 	 	 	 	 	 	 	 	 	 	 	 	1581510670	1.06	1.96
12/02/2020 12:31:11	120220	12022020	123111	77.01	12.418828	-57.245030	77.09	0.030	-0.450	0.410	77.03	-1.60	0.90	 	 	 	 	 	 	 	 	 	 	 	 	 	 	 	 	 	 	1581510671	0.35	0.65
12/02/2020 12:31:12	120220	12022020	123112	77.02	12.418828	-57.245032	77.08	-0.210	0.000	0.720	77.01	-1.30	1.20	 	 	 	 	 	 	 	 	 	 	 	 	 	 	 	 	 	 	1581510672	0.53	0.98
12/02/2020 12:31:13	120220	12022020	123113	77.00	12.418825	-57.245033	77.10	-0.360	0.090	1.170	77.01	-1.30	1.70	 	 	 	 	 	 	 	 	 	 	 	 	 	 	 	 	 	 	1581510673	0.67	1.24
12/02/2020 12:31:14	120220	12022020	123114	77.08	12.418822	-57.245032	77.18	-0.330	0.030	1.550	77.08	-1.30	2.00	 	 	 	 	 	 	 	 	 	 	 	 	 	 	 	 	 	 	1581510674	0.87	1.61
12/02/2020 12:31:15	120220	12022020	123115	77.04	12.418818	-57.245030	77.11	-0.170	-0.040	1.800	77.00	-1.40	2.30	 	 	 	 	 	 	 	 	 	 	 	 	 	 	 	 	 	 	1581510675	0.73	1.35
12/02/2020 12:31:16	120220	12022020	123116	76.77	12.418817	-57.245030	76.79	0.140	-0.320	1.980	76.70	-1.70	2.40	 	 	 	 	 	 	 	 	 	 	 	 	 	 	 	 	 	 	1581510676	0.36	0.67
12/02/2020 12:31:17	120220	12022020	123117	76.39	12.418817	-57.245028	76.42	0.370	-0.630	1.940	76.33	-2.00	2.20	 	 	 	 	 	 	 	 	 	 	 	 	 	 	 	 	 	 	1581510677	0.38	0.70
12/02/2020 12:31:18	120220	12022020	123118	76.21	12.418820	-57.245027	76.30	0.440	-0.700	1.560	76.22	-1.90	1.70	 	 	 	 	 	 	 	 	 	 	 	 	 	 	 	 	 	 	1581510678	0.67	1.24
12/02/2020 12:31:19	120220	12022020	123119	76.42	12.418825	-57.245027	76.57	0.310	-0.350	0.670	76.49	-1.50	0.80	 	 	 	 	 	 	 	 	 	 	 	 	 	 	 	 	 	 	1581510679	0.95	1.76
12/02/2020 12:31:20	120220	12022020	123120	76.77	12.418830	-57.245028	76.85	0.060	0.150	0.010	76.82	-1.00	0.20	 	 	 	 	 	 	 	 	 	 	 	 	 	 	 	 	 	 	1581510680	1.19	2.20
12/02/2020 12:31:21	120220	12022020	123121	76.93	12.418833	-57.245032	76.96	-0.300	0.600	-0.280	76.92	-0.60	0.20	 	 	 	 	 	 	 	 	 	 	 	 	 	 	 	 	 	 	1581510681	0.96	1.78
12/02/2020 12:31:22	120220	12022020	123122	76.77	12.418833	-57.245033	76.75	-0.610	0.700	0.040	76.72	-0.70	0.60	 	 	 	 	 	 	 	 	 	 	 	 	 	 	 	 	 	 	1581510682	0.41	0.76
12/02/2020 12:31:23	120220	12022020	123123	76.50	12.418830	-57.245033	76.53	-0.580	0.230	0.570	76.47	-1.50	1.20	 	 	 	 	 	 	 	 	 	 	 	 	 	 	 	 	 	 	1581510683	0.57	1.06
12/02/2020 12:31:24	120220	12022020	123124	76.43	12.418828	-57.245030	76.51	-0.100	-0.980	1.030	76.45	-2.70	1.50	 	 	 	 	 	 	 	 	 	 	 	 	 	 	 	 	 	 	1581510684	0.95	1.76
12/02/2020 12:31:25	120220	12022020	123125	76.53	12.418827	-57.245025	76.60	0.440	-1.820	1.230	76.53	-3.30	1.70	 	 	 	 	 	 	 	 	 	 	 	 	 	 	 	 	 	 	1581510685	1.30	2.41
12/02/2020 12:31:26	120220	12022020	123126	76.41	12.418827	-57.245020	76.43	0.740	-1.620	1.600	76.35	-2.60	2.10	 	 	 	 	 	 	 	 	 	 	 	 	 	 	 	 	 	 	1581510686	1.08	2.00
12/02/2020 12:31:27	120220	12022020	123127	76.12	12.418825	-57.245020	76.17	0.450	-0.260	1.980	76.08	-1.10	2.40	 	 	 	 	 	 	 	 	 	 	 	 	 	 	 	 	 	 	1581510687	0.19	0.35
12/02/2020 12:31:28	120220	12022020	123128	76.05	12.418823	-57.245023	76.20	-0.160	1.300	2.100	76.08	0.30	2.40	 	 	 	 	 	 	 	 	 	 	 	 	 	 	 	 	 	 	1581510688	1.10	2.04
12/02/2020 12:31:29	120220	12022020	123129	76.27	12.418822	-57.245030	76.40	-0.620	1.990	1.900	76.32	0.60	2.10	 	 	 	 	 	 	 	 	 	 	 	 	 	 	 	 	 	 	1581510689	1.34	2.48
12/02/2020 12:31:30	120220	12022020	123130	76.49	12.418823	-57.245033	76.60	-0.750	1.410	1.420	76.51	-0.30	1.60	 	 	 	 	 	 	 	 	 	 	 	 	 	 	 	 	 	 	1581510690	0.67	1.24
12/02/2020 12:31:31	120220	12022020	123131	76.56	12.418825	-57.245032	76.62	-0.510	0.140	0.890	76.56	-1.90	1.00	 	 	 	 	 	 	 	 	 	 	 	 	 	 	 	 	 	 	1581510691	0.58	1.07
12/02/2020 12:31:32	120220	12022020	123132	76.56	12.418828	-57.245028	76.61	-0.040	-1.480	0.250	76.56	-3.20	0.50	 	 	 	 	 	 	 	 	 	 	 	 	 	 	 	 	 	 	1581510692	1.19	2.20
12/02/2020 12:31:33	120220	12022020	123133	76.56	12.418833	-57.245025	76.60	0.270	-2.260	-0.020	76.55	-3.70	0.40	 	 	 	 	 	 	 	 	 	 	 	 	 	 	 	 	 	 	1581510693	1.19	2.20
12/02/2020 12:31:34	120220	12022020	123134	76.42	12.418835	-57.245022	76.45	0.490	-2.110	0.110	76.38	-3.10	0.70	 	 	 	 	 	 	 	 	 	 	 	 	 	 	 	 	 	 	1581510694	0.64	1.19
12/02/2020 12:31:35	120220	12022020	123135	76.19	12.418835	-57.245023	76.21	0.600	-0.920	0.600	76.15	-1.90	1.10	 	 	 	 	 	 	 	 	 	 	 	 	 	 	 	 	 	 	1581510695	0.20	0.37
12/02/2020 12:31:36	120220	12022020	123136	76.03	12.418833	-57.245027	76.10	0.610	0.210	0.930	76.02	-0.70	1.40	 	 	 	 	 	 	 	 	 	 	 	 	 	 	 	 	 	 	1581510696	0.80	1.48
12/02/2020 12:31:37	120220	12022020	123137	76.09	12.418832	-57.245030	76.21	0.430	1.020	0.960	76.13	-0.20	1.30	 	 	 	 	 	 	 	 	 	 	 	 	 	 	 	 	 	 	1581510697	0.64	1.19
12/02/2020 12:31:38	120220	12022020	123138	76.36	12.418833	-57.245030	76.47	0.090	1.140	0.790	76.42	-0.30	1.10	 	 	 	 	 	 	 	 	 	 	 	 	 	 	 	 	 	 	1581510698	0.28	0.52
12/02/2020 12:31:39	120220	12022020	123139	76.66	12.418833	-57.245030	76.75	-0.470	1.030	0.690	76.71	-0.40	1.10	 	 	 	 	 	 	 	 	 	 	 	 	 	 	 	 	 	 	1581510699	0.29	0.54
12/02/2020 12:31:40	120220	12022020	123140	76.83	12.418833	-57.245030	76.90	-0.970	0.710	0.940	76.84	-0.90	1.50	 	 	 	 	 	 	 	 	 	 	 	 	 	 	 	 	 	 	1581510700	0.21	0.39
12/02/2020 12:31:41	120220	12022020	123141	76.73	12.418830	-57.245028	76.77	-1.060	-0.070	1.450	76.68	-1.80	2.00	 	 	 	 	 	 	 	 	 	 	 	 	 	 	 	 	 	 	1581510701	0.85	1.57
12/02/2020 12:31:42	120220	12022020	123142	76.39	12.418825	-57.245027	76.37	-0.520	-1.180	1.840	76.31	-2.80	2.20	 	 	 	 	 	 	 	 	 	 	 	 	 	 	 	 	 	 	1581510702	0.98	1.81
12/02/2020 12:31:43	120220	12022020	123143	76.05	12.418825	-57.245023	76.08	0.250	-1.700	1.760	76.01	-3.00	2.00	 	 	 	 	 	 	 	 	 	 	 	 	 	 	 	 	 	 	1581510703	0.72	1.33
12/02/2020 12:31:44	120220	12022020	123144	76.05	12.418828	-57.245022	76.18	0.830	-1.460	1.160	76.11	-2.60	1.30	 	 	 	 	 	 	 	 	 	 	 	 	 	 	 	 	 	 	1581510704	0.65	1.20
12/02/2020 12:31:45	120220	12022020	123145	76.43	12.418833	-57.245025	76.54	1.010	-0.900	0.410	76.52	-1.90	0.50	 	 	 	 	 	 	 	 	 	 	 	 	 	 	 	 	 	 	1581510705	1.27	2.35
12/02/2020 12:31:46	120220	12022020	123146	76.76	12.418838	-57.245027	76.80	0.870	-0.220	-0.100	76.77	-1.30	0.30	 	 	 	 	 	 	 	 	 	 	 	 	 	 	 	 	 	 	1581510706	1.20	2.22
12/02/2020 12:31:47	120220	12022020	123147	76.65	12.418840	-57.245028	76.64	0.420	0.420	0.020	76.60	-0.60	0.60	 	 	 	 	 	 	 	 	 	 	 	 	 	 	 	 	 	 	1581510707	0.38	0.70
12/02/2020 12:31:48	120220	12022020	123148	76.42	12.418838	-57.245028	76.44	-0.280	1.070	0.410	76.40	-0.10	0.90	 	 	 	 	 	 	 	 	 	 	 	 	 	 	 	 	 	 	1581510708	0.40	0.74
12/02/2020 12:31:49	120220	12022020	123149	76.39	12.418835	-57.245030	76.45	-0.920	1.380	0.750	76.42	-0.00	1.20	 	 	 	 	 	 	 	 	 	 	 	 	 	 	 	 	 	 	1581510709	0.70	1.30
12/02/2020 12:31:50	120220	12022020	123150	76.60	12.418833	-57.245032	76.68	-1.090	0.980	0.910	76.66	-0.80	1.30	 	 	 	 	 	 	 	 	 	 	 	 	 	 	 	 	 	 	1581510710	0.60	1.11
12/02/2020 12:31:51	120220	12022020	123151	76.76	12.418832	-57.245032	76.80	-0.680	-0.170	1.060	76.75	-2.10	1.60	 	 	 	 	 	 	 	 	 	 	 	 	 	 	 	 	 	 	1581510711	0.35	0.65
12/02/2020 12:31:52	120220	12022020	123152	76.56	12.418830	-57.245027	76.57	0.030	-1.480	1.390	76.49	-3.20	1.90	 	 	 	 	 	 	 	 	 	 	 	 	 	 	 	 	 	 	1581510712	0.91	1.69
12/02/2020 12:31:53	120220	12022020	123153	76.26	12.418830	-57.245022	76.31	0.610	-2.130	1.760	76.23	-3.40	2.20	 	 	 	 	 	 	 	 	 	 	 	 	 	 	 	 	 	 	1581510713	1.06	1.96
12/02/2020 12:31:54	120220	12022020	123154	76.20	12.418830	-57.245020	76.28	0.830	-1.710	1.930	76.21	-2.60	2.30	 	 	 	 	 	 	 	 	 	 	 	 	 	 	 	 	 	 	1581510714	0.50	0.93
12/02/2020 12:31:55	120220	12022020	123155	76.30	12.418830	-57.245022	76.40	0.680	-0.580	1.810	76.33	-1.40	2.10	 	 	 	 	 	 	 	 	 	 	 	 	 	 	 	 	 	 	1581510715	0.34	0.63
12/02/2020 12:31:56	120220	12022020	123156	76.53	12.418832	-57.245025	76.63	0.300	0.570	1.380	76.59	-0.40	1.50	 	 	 	 	 	 	 	 	 	 	 	 	 	 	 	 	 	 	1581510716	0.88	1.63
12/02/2020 12:31:57	120220	12022020	123157	76.81	12.418833	-57.245028	76.89	-0.160	1.310	0.790	76.86	0.10	1.00	 	 	 	 	 	 	 	 	 	 	 	 	 	 	 	 	 	 	1581510717	0.97	1.80
12/02/2020 12:31:58	120220	12022020	123158	76.94	12.418837	-57.245032	76.98	-0.480	1.410	0.390	76.93	-0.10	0.70	 	 	 	 	 	 	 	 	 	 	 	 	 	 	 	 	 	 	1581510718	0.78	1.44
12/02/2020 12:31:59	120220	12022020	123159	76.81	12.418837	-57.245032	76.83	-0.520	0.770	0.370	76.77	-1.00	0.80	 	 	 	 	 	 	 	 	 	 	 	 	 	 	 	 	 	 	1581510719	0.33	0.61
12/02/2020 12:32:00	120220	12022020	123200	76.71	12.418838	-57.245030	76.76	-0.390	-0.260	0.490	76.72	-2.00	0.90	 	 	 	 	 	 	 	 	 	 	 	 	 	 	 	 	 	 	1581510720	0.50	0.93
12/02/2020 12:32:01	120220	12022020	123201	76.90	12.418837	-57.245027	77.01	-0.230	-1.160	0.600	76.97	-2.70	1.00	 	 	 	 	 	 	 	 	 	 	 	 	 	 	 	 	 	 	1581510721	0.75	1.39
12/02/2020 12:32:02	120220	12022020	123202	77.22	12.418835	-57.245023	77.31	-0.050	-1.530	0.800	77.25	-2.80	1.40	1016.70	26.40	26.50	20.60	20.60	120.0	70.0	70.0	414.0	27.1	358.00	10.30	75.00	10.00	16668	10484.0	27.6	27.5	1581510722	0.66	1.22
12/02/2020 12:32:03	120220	12022020	123203	77.15	12.418832	-57.245023	77.18	0.250	-1.350	1.390	77.07	-2.50	2.10	 	 	 	 	 	 	 	 	 	 	 	 	 	 	 	 	 	 	1581510723	0.61	1.13
12/02/2020 12:32:04	120220	12022020	123204	76.64	12.418828	-57.245023	76.67	0.570	-0.830	2.020	76.55	-1.90	2.50	 	 	 	 	 	 	 	 	 	 	 	 	 	 	 	 	 	 	1581510724	0.64	1.19
12/02/2020 12:32:05	120220	12022020	123205	76.34	12.418828	-57.245023	76.45	0.590	-0.110	2.170	76.35	-1.10	2.50	 	 	 	 	 	 	 	 	 	 	 	 	 	 	 	 	 	 	1581510725	0.14	0.26
12/02/2020 12:32:06	120220	12022020	123206	76.65	12.418830	-57.245025	76.84	0.260	0.620	1.850	76.78	-0.50	2.00	 	 	 	 	 	 	 	 	 	 	 	 	 	 	 	 	 	 	1581510726	0.56	1.04
12/02/2020 12:32:07	120220	12022020	123207	77.39	12.418833	-57.245028	77.59	-0.190	1.110	1.350	77.56	-0.20	1.60	 	 	 	 	 	 	 	 	 	 	 	 	 	 	 	 	 	 	1581510727	0.81	1.50
12/02/2020 12:32:08	120220	12022020	123208	78.12	12.418833	-57.245030	78.29	-0.490	1.120	0.990	78.24	-0.40	1.30	 	 	 	 	 	 	 	 	 	 	 	 	 	 	 	 	 	 	1581510728	0.66	1.22
12/02/2020 12:32:09	120220	12022020	123209	78.50	12.418833	-57.245032	78.60	-0.470	0.420	0.870	78.52	-1.40	1.30	 	 	 	 	 	 	 	 	 	 	 	 	 	 	 	 	 	 	1581510729	0.15	0.28
12/02/2020 12:32:10	120220	12022020	123210	78.40	12.418833	-57.245028	78.45	-0.130	-0.820	1.050	78.33	-2.70	1.60	 	 	 	 	 	 	 	 	 	 	 	 	 	 	 	 	 	 	1581510730	0.64	1.19
12/02/2020 12:32:11	120220	12022020	123211	77.96	12.418832	-57.245023	78.00	0.290	-1.850	1.500	77.86	-3.30	2.10	 	 	 	 	 	 	 	 	 	 	 	 	 	 	 	 	 	 	1581510731	1.21	2.24
12/02/2020 12:32:12	120220	12022020	123212	77.56	12.418830	-57.245018	77.67	0.530	-1.900	2.010	77.53	-2.90	2.50	 	 	 	 	 	 	 	 	 	 	 	 	 	 	 	 	 	 	1581510732	1.04	1.93
12/02/2020 12:32:13	120220	12022020	123213	77.56	12.418828	-57.245018	77.73	0.430	-0.880	2.170	77.61	-1.60	2.40	 	 	 	 	 	 	 	 	 	 	 	 	 	 	 	 	 	 	1581510733	0.29	0.54
12/02/2020 12:32:14	120220	12022020	123214	78.00	12.418828	-57.245022	78.22	0.020	0.580	1.670	78.14	-0.30	1.70	 	 	 	 	 	 	 	 	 	 	 	 	 	 	 	 	 	 	1581510734	0.93	1.72
12/02/2020 12:32:15	120220	12022020	123215	78.74	12.418830	-57.245028	78.94	-0.420	1.500	0.710	78.88	0.20	0.80	 	 	 	 	 	 	 	 	 	 	 	 	 	 	 	 	 	 	1581510735	1.39	2.57
12/02/2020 12:32:16	120220	12022020	123216	79.26	12.418833	-57.245032	79.37	-0.570	1.390	0.060	79.29	-0.30	0.40	 	 	 	 	 	 	 	 	 	 	 	 	 	 	 	 	 	 	1581510736	1.06	1.96
12/02/2020 12:32:17	120220	12022020	123217	79.21	12.418835	-57.245032	79.26	-0.420	0.440	0.030	79.15	-1.40	0.60	 	 	 	 	 	 	 	 	 	 	 	 	 	 	 	 	 	 	1581510737	0.44	0.81
12/02/2020 12:32:18	120220	12022020	123218	78.81	12.418835	-57.245028	78.86	-0.130	-0.750	0.450	78.73	-2.50	1.00	 	 	 	 	 	 	 	 	 	 	 	 	 	 	 	 	 	 	1581510738	0.76	1.41
12/02/2020 12:32:19	120220	12022020	123219	78.50	12.418835	-57.245023	78.60	0.240	-1.600	0.900	78.49	-3.10	1.40	 	 	 	 	 	 	 	 	 	 	 	 	 	 	 	 	 	 	1581510739	0.85	1.57
12/02/2020 12:32:20	120220	12022020	123220	78.62	12.418835	-57.245022	78.78	0.600	-1.780	1.010	78.69	-2.90	1.40	 	 	 	 	 	 	 	 	 	 	 	 	 	 	 	 	 	 	1581510740	0.59	1.09
12/02/2020 12:32:21	120220	12022020	123221	79.00	12.418835	-57.245020	79.16	0.680	-1.130	1.040	79.07	-2.00	1.40	 	 	 	 	 	 	 	 	 	 	 	 	 	 	 	 	 	 	1581510741	0.18	0.33
12/02/2020 12:32:22	120220	12022020	123222	79.26	12.418833	-57.245022	79.38	0.250	0.170	1.150	79.27	-0.60	1.60	 	 	 	 	 	 	 	 	 	 	 	 	 	 	 	 	 	 	1581510742	0.57	1.06
12/02/2020 12:32:23	120220	12022020	123223	79.22	12.418830	-57.245027	79.32	-0.460	1.430	1.340	79.18	0.40	1.80	 	 	 	 	 	 	 	 	 	 	 	 	 	 	 	 	 	 	1581510743	1.18	2.19
12/02/2020 12:32:24	120220	12022020	123224	78.96	12.418828	-57.245032	79.04	-0.960	1.860	1.440	78.89	0.30	1.80	 	 	 	 	 	 	 	 	 	 	 	 	 	 	 	 	 	 	1581510744	1.18	2.19
12/02/2020 12:32:25	120220	12022020	123225	78.63	12.418828	-57.245033	78.71	-0.800	0.850	1.390	78.56	-1.30	1.70	 	 	 	 	 	 	 	 	 	 	 	 	 	 	 	 	 	 	1581510745	0.39	0.72
12/02/2020 12:32:26	120220	12022020	123226	78.39	12.418832	-57.245030	78.51	-0.020	-1.130	1.230	78.37	-3.20	1.50	 	 	 	 	 	 	 	 	 	 	 	 	 	 	 	 	 	 	1581510746	1.10	2.04
12/02/2020 12:32:27	120220	12022020	123227	78.41	12.418835	-57.245022	78.56	0.710	-2.440	1.000	78.45	-3.80	1.30	 	 	 	 	 	 	 	 	 	 	 	 	 	 	 	 	 	 	1581510747	1.84	3.41
12/02/2020 12:32:28	120220	12022020	123228	78.64	12.418837	-57.245018	78.80	0.750	-1.820	0.790	78.70	-2.40	1.10	 	 	 	 	 	 	 	 	 	 	 	 	 	 	 	 	 	 	1581510748	0.82	1.52
12/02/2020 12:32:29	120220	12022020	123229	78.86	12.418835	-57.245023	78.98	0.160	0.090	0.620	78.88	-0.50	1.00	 	 	 	 	 	 	 	 	 	 	 	 	 	 	 	 	 	 	1581510749	1.17	2.17
12/02/2020 12:32:30	120220	12022020	123230	78.83	12.418833	-57.245033	78.91	-0.360	1.390	0.630	78.79	0.10	1.10	 	 	 	 	 	 	 	 	 	 	 	 	 	 	 	 	 	 	1581510750	2.02	3.74
12/02/2020 12:32:31	120220	12022020	123231	78.57	12.418833	-57.245038	78.65	-0.300	1.050	0.810	78.51	-0.80	1.30	 	 	 	 	 	 	 	 	 	 	 	 	 	 	 	 	 	 	1581510751	0.90	1.67
12/02/2020 12:32:32	120220	12022020	123232	78.31	12.418835	-57.245035	78.40	0.160	-0.200	0.960	78.26	-2.00	1.40	 	 	 	 	 	 	 	 	 	 	 	 	 	 	 	 	 	 	1581510752	0.76	1.41
12/02/2020 12:32:33	120220	12022020	123233	78.18	12.418837	-57.245028	78.30	0.380	-0.900	0.970	78.18	-2.20	1.40	 	 	 	 	 	 	 	 	 	 	 	 	 	 	 	 	 	 	1581510753	1.20	2.22
12/02/2020 12:32:34	120220	12022020	123234	78.27	12.418837	-57.245028	78.43	0.120	-0.530	1.010	78.32	-1.60	1.40	 	 	 	 	 	 	 	 	 	 	 	 	 	 	 	 	 	 	1581510754	0.17	0.31
12/02/2020 12:32:35	120220	12022020	123235	78.54	12.418835	-57.245033	78.70	-0.310	0.160	1.100	78.60	-1.00	1.50	 	 	 	 	 	 	 	 	 	 	 	 	 	 	 	 	 	 	1581510755	0.98	1.81
12/02/2020 12:32:36	120220	12022020	123236	78.77	12.418835	-57.245037	78.91	-0.480	0.330	1.180	78.79	-1.20	1.60	 	 	 	 	 	 	 	 	 	 	 	 	 	 	 	 	 	 	1581510756	1.03	1.91
12/02/2020 12:32:37	120220	12022020	123237	78.77	12.418833	-57.245038	78.87	-0.260	-0.170	1.330	78.73	-1.80	1.80	 	 	 	 	 	 	 	 	 	 	 	 	 	 	 	 	 	 	1581510757	0.31	0.57
12/02/2020 12:32:38	120220	12022020	123238	78.52	12.418832	-57.245037	78.62	0.080	-0.810	1.630	78.46	-2.30	2.10	 	 	 	 	 	 	 	 	 	 	 	 	 	 	 	 	 	 	1581510758	0.53	0.98
12/02/2020 12:32:39	120220	12022020	123239	78.29	12.418830	-57.245033	78.43	0.270	-0.950	1.940	78.27	-2.20	2.40	 	 	 	 	 	 	 	 	 	 	 	 	 	 	 	 	 	 	1581510759	0.67	1.24
12/02/2020 12:32:40	120220	12022020	123240	78.28	12.418828	-57.245033	78.45	0.270	-0.470	2.010	78.31	-1.60	2.30	 	 	 	 	 	 	 	 	 	 	 	 	 	 	 	 	 	 	1581510760	0.41	0.76
12/02/2020 12:32:41	120220	12022020	123241	78.56	12.418828	-57.245037	78.77	0.250	0.110	1.580	78.66	-1.10	1.70	 	 	 	 	 	 	 	 	 	 	 	 	 	 	 	 	 	 	1581510761	0.63	1.17
12/02/2020 12:32:42	120220	12022020	123242	79.00	12.418832	-57.245040	79.16	0.310	0.290	0.930	79.05	-1.10	1.10	 	 	 	 	 	 	 	 	 	 	 	 	 	 	 	 	 	 	1581510762	0.85	1.57
12/02/2020 12:32:43	120220	12022020	123243	79.06	12.418835	-57.245040	79.15	0.390	0.100	0.590	79.03	-1.40	0.90	 	 	 	 	 	 	 	 	 	 	 	 	 	 	 	 	 	 	1581510763	0.72	1.33
12/02/2020 12:32:44	120220	12022020	123244	78.76	12.418837	-57.245040	78.82	0.330	-0.170	0.610	78.68	-1.60	1.10	 	 	 	 	 	 	 	 	 	 	 	 	 	 	 	 	 	 	1581510764	0.50	0.93
12/02/2020 12:32:45	120220	12022020	123245	78.48	12.418838	-57.245038	78.58	0.040	-0.230	0.760	78.46	-1.50	1.20	 	 	 	 	 	 	 	 	 	 	 	 	 	 	 	 	 	 	1581510765	0.31	0.57
12/02/2020 12:32:46	120220	12022020	123246	78.52	12.418838	-57.245040	78.67	-0.370	0.020	0.820	78.57	-1.20	1.20	 	 	 	 	 	 	 	 	 	 	 	 	 	 	 	 	 	 	1581510766	0.28	0.52
12/02/2020 12:32:47	120220	12022020	123247	78.87	12.418840	-57.245043	79.06	-0.690	0.290	0.750	78.96	-1.10	1.10	 	 	 	 	 	 	 	 	 	 	 	 	 	 	 	 	 	 	1581510767	0.65	1.20
12/02/2020 12:32:48	120220	12022020	123248	79.31	12.418838	-57.245045	79.50	-0.710	0.150	0.830	79.38	-1.40	1.30	 	 	 	 	 	 	 	 	 	 	 	 	 	 	 	 	 	 	1581510768	0.56	1.04
12/02/2020 12:32:49	120220	12022020	123249	79.54	12.418837	-57.245045	79.71	-0.420	-0.420	1.240	79.55	-2.00	1.80	 	 	 	 	 	 	 	 	 	 	 	 	 	 	 	 	 	 	1581510769	0.63	1.17
12/02/2020 12:32:50	120220	12022020	123250	79.48	12.418832	-57.245042	79.62	0.030	-0.970	1.710	79.44	-2.40	2.20	 	 	 	 	 	 	 	 	 	 	 	 	 	 	 	 	 	 	1581510770	1.19	2.20
12/02/2020 12:32:51	120220	12022020	123251	79.26	12.418828	-57.245040	79.39	0.470	-1.060	2.010	79.21	-2.30	2.50	 	 	 	 	 	 	 	 	 	 	 	 	 	 	 	 	 	 	1581510771	0.97	1.80
12/02/2020 12:32:52	120220	12022020	123252	79.06	12.418827	-57.245038	79.21	0.720	-0.640	2.150	79.03	-1.70	2.50	 	 	 	 	 	 	 	 	 	 	 	 	 	 	 	 	 	 	1581510772	0.27	0.50
12/02/2020 12:32:53	120220	12022020	123253	79.01	12.418827	-57.245040	79.18	0.630	-0.040	1.990	79.03	-1.20	2.20	 	 	 	 	 	 	 	 	 	 	 	 	 	 	 	 	 	 	1581510773	0.40	0.74
12/02/2020 12:32:54	120220	12022020	123254	79.14	12.418830	-57.245043	79.31	0.210	0.460	1.370	79.17	-0.80	1.40	 	 	 	 	 	 	 	 	 	 	 	 	 	 	 	 	 	 	1581510774	0.81	1.50
12/02/2020 12:32:55	120220	12022020	123255	79.34	12.418835	-57.245047	79.49	-0.300	0.730	0.510	79.38	-0.60	0.60	 	 	 	 	 	 	 	 	 	 	 	 	 	 	 	 	 	 	1581510775	1.18	2.19
12/02/2020 12:32:56	120220	12022020	123256	79.47	12.418838	-57.245048	79.59	-0.580	0.640	0.060	79.47	-0.90	0.40	 	 	 	 	 	 	 	 	 	 	 	 	 	 	 	 	 	 	1581510776	1.05	1.94
12/02/2020 12:32:57	120220	12022020	123257	79.43	12.418840	-57.245050	79.55	-0.460	-0.020	0.110	79.43	-1.80	0.50	 	 	 	 	 	 	 	 	 	 	 	 	 	 	 	 	 	 	1581510777	0.31	0.57
12/02/2020 12:32:58	120220	12022020	123258	79.47	12.418840	-57.245047	79.61	-0.020	-1.080	0.180	79.49	-2.80	0.60	 	 	 	 	 	 	 	 	 	 	 	 	 	 	 	 	 	 	1581510778	0.60	1.11
12/02/2020 12:32:59	120220	12022020	123259	79.57	12.418842	-57.245042	79.71	0.450	-1.720	0.350	79.58	-3.00	0.90	 	 	 	 	 	 	 	 	 	 	 	 	 	 	 	 	 	 	1581510779	1.03	1.91
12/02/2020 12:33:00	120220	12022020	123300	79.54	12.418840	-57.245038	79.66	0.550	-1.250	0.890	79.51	-2.10	1.50	 	 	 	 	 	 	 	 	 	 	 	 	 	 	 	 	 	 	1581510780	0.64	1.19
12/02/2020 12:33:01	120220	12022020	123301	79.39	12.418837	-57.245040	79.53	0.170	0.050	1.480	79.37	-0.70	2.00	 	 	 	 	 	 	 	 	 	 	 	 	 	 	 	 	 	 	1581510781	0.88	1.63
12/02/2020 12:33:02	120220	12022020	123302	79.35	12.418832	-57.245045	79.52	-0.490	1.310	1.750	79.37	0.30	2.10	1016.80	26.40	26.50	20.70	20.80	113.0	70.0	71.0	418.0	27.1	353.00	10.50	72.00	10.10	15770	10282.0	27.6	27.6	1581510782	1.33	2.46
12/02/2020 12:33:03	120220	12022020	123303	79.55	12.418830	-57.245050	79.76	-0.990	1.800	1.730	79.62	0.30	2.00	 	 	 	 	 	 	 	 	 	 	 	 	 	 	 	 	 	 	1581510783	1.20	2.22
12/02/2020 12:33:04	120220	12022020	123304	79.96	12.418830	-57.245053	80.19	-0.970	1.100	1.520	80.05	-0.90	1.80	 	 	 	 	 	 	 	 	 	 	 	 	 	 	 	 	 	 	1581510784	0.56	1.04
12/02/2020 12:33:05	120220	12022020	123305	80.33	12.418830	-57.245052	80.51	-0.370	-0.550	1.190	80.36	-2.70	1.50	 	 	 	 	 	 	 	 	 	 	 	 	 	 	 	 	 	 	1581510785	0.42	0.78
12/02/2020 12:33:06	120220	12022020	123306	80.30	12.418832	-57.245045	80.40	0.520	-2.250	1.090	80.23	-4.00	1.60	 	 	 	 	 	 	 	 	 	 	 	 	 	 	 	 	 	 	1581510786	1.33	2.46
12/02/2020 12:33:07	120220	12022020	123307	79.83	12.418833	-57.245038	79.89	1.170	-2.730	1.480	79.71	-3.70	2.10	 	 	 	 	 	 	 	 	 	 	 	 	 	 	 	 	 	 	1581510787	1.38	2.56
12/02/2020 12:33:08	120220	12022020	123308	79.27	12.418832	-57.245038	79.36	1.140	-1.470	2.010	79.19	-2.00	2.50	 	 	 	 	 	 	 	 	 	 	 	 	 	 	 	 	 	 	1581510788	0.30	0.56
12/02/2020 12:33:09	120220	12022020	123309	79.06	12.418830	-57.245043	79.21	0.500	0.500	2.180	79.08	-0.20	2.50	 	 	 	 	 	 	 	 	 	 	 	 	 	 	 	 	 	 	1581510789	1.18	2.19
12/02/2020 12:33:10	120220	12022020	123310	79.29	12.418830	-57.245050	79.48	-0.250	1.700	1.820	79.37	0.40	1.90	 	 	 	 	 	 	 	 	 	 	 	 	 	 	 	 	 	 	1581510790	1.53	2.83
12/02/2020 12:33:11	120220	12022020	123311	79.72	12.418832	-57.245053	79.89	-0.680	1.510	1.080	79.81	-0.20	1.10	 	 	 	 	 	 	 	 	 	 	 	 	 	 	 	 	 	 	1581510791	0.86	1.59
12/02/2020 12:33:12	120220	12022020	123312	80.12	12.418837	-57.245052	80.27	-0.700	0.610	0.340	80.18	-1.10	0.50	 	 	 	 	 	 	 	 	 	 	 	 	 	 	 	 	 	 	1581510792	1.03	1.91
12/02/2020 12:33:13	120220	12022020	123313	80.37	12.418840	-57.245048	80.49	-0.550	-0.140	-0.020	80.40	-1.70	0.40	 	 	 	 	 	 	 	 	 	 	 	 	 	 	 	 	 	 	1581510793	0.93	1.72
12/02/2020 12:33:14	120220	12022020	123314	80.45	12.418840	-57.245048	80.56	-0.380	-0.530	0.120	80.45	-2.00	0.70	 	 	 	 	 	 	 	 	 	 	 	 	 	 	 	 	 	 	1581510794	0.22	0.41
12/02/2020 12:33:15	120220	12022020	123315	80.36	12.418837	-57.245048	80.47	-0.170	-0.900	0.710	80.32	-2.40	1.40	 	 	 	 	 	 	 	 	 	 	 	 	 	 	 	 	 	 	1581510795	0.65	1.20
12/02/2020 12:33:16	120220	12022020	123316	80.10	12.418833	-57.245047	80.21	0.170	-1.310	1.490	80.03	-2.70	2.20	 	 	 	 	 	 	 	 	 	 	 	 	 	 	 	 	 	 	1581510796	1.03	1.91
12/02/2020 12:33:17	120220	12022020	123317	79.77	12.418828	-57.245043	79.89	0.500	-1.280	2.120	79.70	-2.40	2.60	 	 	 	 	 	 	 	 	 	 	 	 	 	 	 	 	 	 	1581510797	1.04	1.93
12/02/2020 12:33:18	120220	12022020	123318	79.53	12.418827	-57.245043	79.69	0.560	-0.450	2.360	79.51	-1.30	2.70	 	 	 	 	 	 	 	 	 	 	 	 	 	 	 	 	 	 	1581510798	0.53	0.98
12/02/2020 12:33:19	120220	12022020	123319	79.55	12.418827	-57.245047	79.75	0.250	0.710	2.120	79.59	-0.30	2.30	 	 	 	 	 	 	 	 	 	 	 	 	 	 	 	 	 	 	1581510799	0.72	1.33
12/02/2020 12:33:20	120220	12022020	123320	79.83	12.418828	-57.245052	80.03	-0.160	1.180	1.570	79.90	-0.40	1.70	 	 	 	 	 	 	 	 	 	 	 	 	 	 	 	 	 	 	1581510800	1.18	2.19
12/02/2020 12:33:21	120220	12022020	123321	80.18	12.418832	-57.245053	80.37	-0.260	0.400	0.960	80.24	-1.50	1.10	 	 	 	 	 	 	 	 	 	 	 	 	 	 	 	 	 	 	1581510801	0.84	1.56
12/02/2020 12:33:22	120220	12022020	123322	80.38	12.418837	-57.245048	80.52	0.020	-0.880	0.490	80.39	-2.60	0.80	 	 	 	 	 	 	 	 	 	 	 	 	 	 	 	 	 	 	1581510802	1.27	2.35
12/02/2020 12:33:23	120220	12022020	123323	80.34	12.418838	-57.245043	80.45	0.370	-1.380	0.420	80.31	-2.60	0.90	 	 	 	 	 	 	 	 	 	 	 	 	 	 	 	 	 	 	1581510803	1.29	2.39
12/02/2020 12:33:24	120220	12022020	123324	80.18	12.418838	-57.245042	80.31	0.440	-0.790	0.760	80.15	-1.70	1.30	 	 	 	 	 	 	 	 	 	 	 	 	 	 	 	 	 	 	1581510804	0.40	0.74
12/02/2020 12:33:25	120220	12022020	123325	80.09	12.418835	-57.245043	80.23	0.150	0.200	1.220	80.07	-0.80	1.80	 	 	 	 	 	 	 	 	 	 	 	 	 	 	 	 	 	 	1581510805	0.88	1.63
12/02/2020 12:33:26	120220	12022020	123326	80.05	12.418832	-57.245047	80.20	-0.290	0.860	1.540	80.04	-0.40	2.00	 	 	 	 	 	 	 	 	 	 	 	 	 	 	 	 	 	 	1581510806	0.95	1.76
12/02/2020 12:33:27	120220	12022020	123327	80.01	12.418832	-57.245048	80.17	-0.550	0.840	1.570	80.01	-0.70	1.90	 	 	 	 	 	 	 	 	 	 	 	 	 	 	 	 	 	 	1581510807	0.47	0.87
12/02/2020 12:33:28	120220	12022020	123328	80.01	12.418832	-57.245048	80.16	-0.450	0.220	1.310	80.01	-0.90	1.80	 	 	 	 	 	 	 	 	 	 	 	 	 	 	 	 	 	 	1581510808	0.29	0.54
12/02/2020 12:33:29	120220	12022020	123329	80.04	12.418835	-57.245047	80.20	-0.130	-0.690	1.040	80.05	-2.40	1.40	 	 	 	 	 	 	 	 	 	 	 	 	 	 	 	 	 	 	1581510809	0.74	1.37
12/02/2020 12:33:30	120220	12022020	123330	80.12	12.418837	-57.245043	80.29	0.120	-1.300	1.010	80.15	-2.60	1.40	 	 	 	 	 	 	 	 	 	 	 	 	 	 	 	 	 	 	1581510810	0.86	1.59
12/02/2020 12:33:31	120220	12022020	123331	80.30	12.418837	-57.245040	80.48	0.140	-1.110	1.090	80.34	-2.20	1.50	 	 	 	 	 	 	 	 	 	 	 	 	 	 	 	 	 	 	1581510811	0.48	0.89
12/02/2020 12:33:32	120220	12022020	123332	80.41	12.418833	-57.245042	80.57	0.040	-0.400	1.270	80.41	-1.50	1.70	 	 	 	 	 	 	 	 	 	 	 	 	 	 	 	 	 	 	1581510812	0.55	1.02
12/02/2020 12:33:33	120220	12022020	123333	80.33	12.418830	-57.245043	80.48	0.000	0.170	1.450	80.30	-1.10	1.90	 	 	 	 	 	 	 	 	 	 	 	 	 	 	 	 	 	 	1581510813	0.83	1.54
12/02/2020 12:33:34	120220	12022020	123334	80.16	12.418828	-57.245045	80.30	0.140	0.290	1.450	80.11	-1.10	1.80	 	 	 	 	 	 	 	 	 	 	 	 	 	 	 	 	 	 	1581510814	0.41	0.76
12/02/2020 12:33:35	120220	12022020	123335	79.89	12.418830	-57.245043	80.03	0.370	0.050	1.370	79.84	-1.40	1.70	 	 	 	 	 	 	 	 	 	 	 	 	 	 	 	 	 	 	1581510815	0.35	0.65
12/02/2020 12:33:36	120220	12022020	123336	79.65	12.418833	-57.245042	79.80	0.480	-0.230	1.200	79.62	-1.60	1.50	 	 	 	 	 	 	 	 	 	 	 	 	 	 	 	 	 	 	1581510816	0.80	1.48
12/02/2020 12:33:37	120220	12022020	123337	79.62	12.418837	-57.245040	79.80	0.300	-0.290	0.930	79.64	-1.60	1.20	 	 	 	 	 	 	 	 	 	 	 	 	 	 	 	 	 	 	1581510817	0.88	1.63
12/02/2020 12:33:38	120220	12022020	123338	79.79	12.418840	-57.245040	80.00	-0.130	-0.060	0.820	79.85	-1.30	1.20	 	 	 	 	 	 	 	 	 	 	 	 	 	 	 	 	 	 	1581510818	0.56	1.04
12/02/2020 12:33:39	120220	12022020	123339	80.05	12.418840	-57.245040	80.26	-0.510	0.290	0.840	80.10	-1.00	1.20	 	 	 	 	 	 	 	 	 	 	 	 	 	 	 	 	 	 	1581510819	0.27	0.50
12/02/2020 12:33:40	120220	12022020	123340	80.24	12.418838	-57.245043	80.44	-0.620	0.480	0.940	80.27	-0.90	1.40	 	 	 	 	 	 	 	 	 	 	 	 	 	 	 	 	 	 	1581510820	0.44	0.81
12/02/2020 12:33:41	120220	12022020	123341	80.31	12.418838	-57.245043	80.50	-0.440	0.230	1.150	80.31	-1.40	1.60	 	 	 	 	 	 	 	 	 	 	 	 	 	 	 	 	 	 	1581510821	0.38	0.70
12/02/2020 12:33:42	120220	12022020	123342	80.25	12.418835	-57.245042	80.43	-0.120	-0.540	1.430	80.22	-2.30	1.90	 	 	 	 	 	 	 	 	 	 	 	 	 	 	 	 	 	 	1581510822	0.54	1.00
12/02/2020 12:33:43	120220	12022020	123343	80.11	12.418833	-57.245038	80.29	0.230	-1.530	1.720	80.08	-3.20	2.20	 	 	 	 	 	 	 	 	 	 	 	 	 	 	 	 	 	 	1581510823	0.98	1.81
12/02/2020 12:33:44	120220	12022020	123344	80.00	12.418833	-57.245032	80.19	0.570	-1.980	1.930	80.00	-3.10	2.30	 	 	 	 	 	 	 	 	 	 	 	 	 	 	 	 	 	 	1581510824	1.24	2.30
12/02/2020 12:33:45	120220	12022020	123345	80.09	12.418833	-57.245028	80.28	0.710	-1.130	1.900	80.11	-1.80	2.20	 	 	 	 	 	 	 	 	 	 	 	 	 	 	 	 	 	 	1581510825	0.72	1.33
12/02/2020 12:33:46	120220	12022020	123346	80.21	12.418833	-57.245032	80.37	0.390	0.720	1.580	80.22	0.10	1.70	 	 	 	 	 	 	 	 	 	 	 	 	 	 	 	 	 	 	1581510826	0.68	1.26
12/02/2020 12:33:47	120220	12022020	123347	80.19	12.418835	-57.245040	80.32	-0.310	2.220	1.040	80.17	1.10	1.20	 	 	 	 	 	 	 	 	 	 	 	 	 	 	 	 	 	 	1581510827	1.65	3.06
12/02/2020 12:33:48	120220	12022020	123348	80.12	12.418837	-57.245047	80.24	-1.000	2.310	0.550	80.12	0.50	0.80	 	 	 	 	 	 	 	 	 	 	 	 	 	 	 	 	 	 	1581510828	1.44	2.67
12/02/2020 12:33:49	120220	12022020	123349	80.18	12.418840	-57.245047	80.34	-1.160	0.810	0.290	80.21	-1.50	0.60	 	 	 	 	 	 	 	 	 	 	 	 	 	 	 	 	 	 	1581510829	0.73	1.35
12/02/2020 12:33:50	120220	12022020	123350	80.38	12.418843	-57.245042	80.56	-0.610	-1.500	0.170	80.42	-3.70	0.60	 	 	 	 	 	 	 	 	 	 	 	 	 	 	 	 	 	 	1581510830	1.31	2.43
12/02/2020 12:33:51	120220	12022020	123351	80.43	12.418845	-57.245032	80.53	0.360	-3.140	0.310	80.38	-4.60	0.90	 	 	 	 	 	 	 	 	 	 	 	 	 	 	 	 	 	 	1581510831	1.86	3.44
12/02/2020 12:33:52	120220	12022020	123352	80.04	12.418843	-57.245027	80.09	1.080	-2.890	0.770	79.93	-3.60	1.40	 	 	 	 	 	 	 	 	 	 	 	 	 	 	 	 	 	 	1581510832	1.27	2.35
12/02/2020 12:33:53	120220	12022020	123353	79.58	12.418842	-57.245028	79.68	1.100	-1.080	1.280	79.53	-1.60	1.80	 	 	 	 	 	 	 	 	 	 	 	 	 	 	 	 	 	 	1581510833	0.63	1.17
12/02/2020 12:33:54	120220	12022020	123354	79.54	12.418840	-57.245035	79.71	0.580	0.810	1.550	79.59	-0.00	1.90	 	 	 	 	 	 	 	 	 	 	 	 	 	 	 	 	 	 	1581510834	1.47	2.72
12/02/2020 12:33:55	120220	12022020	123355	79.93	12.418840	-57.245040	80.15	0.010	1.690	1.430	80.03	0.40	1.70	 	 	 	 	 	 	 	 	 	 	 	 	 	 	 	 	 	 	1581510835	1.12	2.07
12/02/2020 12:33:56	120220	12022020	123356	80.37	12.418840	-57.245042	80.56	-0.330	1.560	1.130	80.43	-0.00	1.40	 	 	 	 	 	 	 	 	 	 	 	 	 	 	 	 	 	 	1581510836	0.38	0.70
12/02/2020 12:33:57	120220	12022020	123357	80.51	12.418842	-57.245040	80.64	-0.520	0.950	1.010	80.49	-0.70	1.40	 	 	 	 	 	 	 	 	 	 	 	 	 	 	 	 	 	 	1581510837	0.46	0.85
12/02/2020 12:33:58	120220	12022020	123358	80.28	12.418842	-57.245037	80.39	-0.660	0.260	1.250	80.21	-1.40	1.80	 	 	 	 	 	 	 	 	 	 	 	 	 	 	 	 	 	 	1581510838	0.43	0.80
12/02/2020 12:33:59	120220	12022020	123359	79.93	12.418840	-57.245037	80.07	-0.700	-0.410	1.670	79.88	-2.00	2.20	 	 	 	 	 	 	 	 	 	 	 	 	 	 	 	 	 	 	1581510839	0.44	0.81
12/02/2020 12:34:00	120220	12022020	123400	79.77	12.418838	-57.245035	79.93	-0.530	-1.040	1.880	79.77	-2.60	2.30	 	 	 	 	 	 	 	 	 	 	 	 	 	 	 	 	 	 	1581510840	0.29	0.54
12/02/2020 12:34:01	120220	12022020	123401	79.82	12.418838	-57.245035	79.98	-0.090	-1.560	1.750	79.84	-3.00	2.00	 	 	 	 	 	 	 	 	 	 	 	 	 	 	 	 	 	 	1581510841	0.16	0.30
12/02/2020 12:34:02	120220	12022020	123402	79.87	12.418840	-57.245033	80.01	0.500	-1.770	1.420	79.87	-3.00	1.70	1016.90	26.50	26.50	20.80	20.90	118.0	71.0	71.0	424.0	27.1	349.00	10.80	68.00	10.40	15383	10644.0	27.6	27.5	1581510842	0.39	0.72
12/02/2020 12:34:03	120220	12022020	123403	79.89	12.418842	-57.245032	80.05	0.890	-1.370	1.140	79.91	-2.30	1.50	 	 	 	 	 	 	 	 	 	 	 	 	 	 	 	 	 	 	1581510843	0.46	0.85
12/02/2020 12:34:04	120220	12022020	123404	80.01	12.418842	-57.245032	80.17	0.790	-0.240	1.000	80.03	-1.00	1.30	 	 	 	 	 	 	 	 	 	 	 	 	 	 	 	 	 	 	1581510844	0.10	0.19
12/02/2020 12:34:05	120220	12022020	123405	80.06	12.418842	-57.245037	80.22	0.300	1.040	0.910	80.05	0.00	1.30	 	 	 	 	 	 	 	 	 	 	 	 	 	 	 	 	 	 	1581510845	0.72	1.33
12/02/2020 12:34:06	120220	12022020	123406	79.89	12.418842	-57.245040	80.01	-0.180	1.630	0.800	79.83	0.20	1.10	 	 	 	 	 	 	 	 	 	 	 	 	 	 	 	 	 	 	1581510846	0.85	1.57
12/02/2020 12:34:07	120220	12022020	123407	79.56	12.418843	-57.245042	79.67	-0.350	1.240	0.630	79.50	-0.50	0.90	 	 	 	 	 	 	 	 	 	 	 	 	 	 	 	 	 	 	1581510847	0.47	0.87
12/02/2020 12:34:08	120220	12022020	123408	79.38	12.418847	-57.245040	79.54	-0.270	0.220	0.410	79.39	-1.60	0.70	 	 	 	 	 	 	 	 	 	 	 	 	 	 	 	 	 	 	1581510848	0.73	1.35
12/02/2020 12:34:09	120220	12022020	123409	79.49	12.418848	-57.245037	79.66	-0.140	-0.800	0.300	79.51	-2.40	0.70	 	 	 	 	 	 	 	 	 	 	 	 	 	 	 	 	 	 	1581510849	0.89	1.65
12/02/2020 12:34:10	120220	12022020	123410	79.60	12.418850	-57.245033	79.76	-0.100	-1.260	0.470	79.60	-2.60	1.00	 	 	 	 	 	 	 	 	 	 	 	 	 	 	 	 	 	 	1581510850	0.56	1.04
12/02/2020 12:34:11	120220	12022020	123411	79.57	12.418848	-57.245033	79.73	-0.130	-1.090	0.790	79.56	-2.30	1.30	 	 	 	 	 	 	 	 	 	 	 	 	 	 	 	 	 	 	1581510851	0.27	0.50
12/02/2020 12:34:12	120220	12022020	123412	79.48	12.418847	-57.245035	79.63	-0.100	-0.630	1.140	79.46	-1.80	1.70	 	 	 	 	 	 	 	 	 	 	 	 	 	 	 	 	 	 	1581510852	0.51	0.94
12/02/2020 12:34:13	120220	12022020	123413	79.37	12.418845	-57.245037	79.53	0.030	-0.220	1.490	79.34	-1.50	2.00	 	 	 	 	 	 	 	 	 	 	 	 	 	 	 	 	 	 	1581510853	0.57	1.06
12/02/2020 12:34:14	120220	12022020	123414	79.31	12.418842	-57.245037	79.49	0.200	-0.050	1.770	79.31	-1.40	2.20	 	 	 	 	 	 	 	 	 	 	 	 	 	 	 	 	 	 	1581510854	0.55	1.02
12/02/2020 12:34:15	120220	12022020	123415	79.33	12.418840	-57.245037	79.52	0.330	-0.140	1.940	79.34	-1.50	2.40	 	 	 	 	 	 	 	 	 	 	 	 	 	 	 	 	 	 	1581510855	0.55	1.02
12/02/2020 12:34:16	120220	12022020	123416	79.29	12.418838	-57.245033	79.47	0.330	-0.220	2.040	79.27	-1.50	2.40	 	 	 	 	 	 	 	 	 	 	 	 	 	 	 	 	 	 	1581510856	0.57	1.06
12/02/2020 12:34:17	120220	12022020	123417	79.19	12.418838	-57.245032	79.36	0.160	-0.020	1.870	79.17	-1.20	2.10	 	 	 	 	 	 	 	 	 	 	 	 	 	 	 	 	 	 	1581510857	0.32	0.59
12/02/2020 12:34:18	120220	12022020	123418	79.09	12.418840	-57.245033	79.25	-0.110	0.400	1.340	79.07	-0.80	1.50	 	 	 	 	 	 	 	 	 	 	 	 	 	 	 	 	 	 	1581510858	0.45	0.83
12/02/2020 12:34:19	120220	12022020	123419	79.06	12.418843	-57.245037	79.22	-0.360	0.700	0.740	79.07	-0.70	0.90	 	 	 	 	 	 	 	 	 	 	 	 	 	 	 	 	 	 	1581510859	0.97	1.80
12/02/2020 12:34:20	120220	12022020	123420	79.20	12.418847	-57.245038	79.36	-0.430	0.470	0.170	79.23	-1.20	0.40	 	 	 	 	 	 	 	 	 	 	 	 	 	 	 	 	 	 	1581510860	0.99	1.83
12/02/2020 12:34:21	120220	12022020	123421	79.28	12.418850	-57.245038	79.42	-0.240	-0.260	-0.130	79.27	-2.00	0.30	 	 	 	 	 	 	 	 	 	 	 	 	 	 	 	 	 	 	1581510861	0.75	1.39
12/02/2020 12:34:22	120220	12022020	123422	79.10	12.418853	-57.245037	79.21	0.140	-1.090	-0.000	79.05	-2.70	0.50	 	 	 	 	 	 	 	 	 	 	 	 	 	 	 	 	 	 	1581510862	0.64	1.19
12/02/2020 12:34:23	120220	12022020	123423	78.87	12.418853	-57.245033	79.01	0.490	-1.610	0.380	78.85	-3.00	0.90	 	 	 	 	 	 	 	 	 	 	 	 	 	 	 	 	 	 	1581510863	0.73	1.35
12/02/2020 12:34:24	120220	12022020	123424	78.92	12.418852	-57.245030	79.11	0.640	-1.550	0.780	78.96	-2.60	1.30	 	 	 	 	 	 	 	 	 	 	 	 	 	 	 	 	 	 	1581510864	0.72	1.33
12/02/2020 12:34:25	120220	12022020	123425	79.23	12.418850	-57.245028	79.45	0.490	-0.720	1.050	79.31	-1.50	1.50	 	 	 	 	 	 	 	 	 	 	 	 	 	 	 	 	 	 	1581510865	0.61	1.13
12/02/2020 12:34:26	120220	12022020	123426	79.53	12.418847	-57.245030	79.72	0.070	0.650	1.240	79.56	-0.20	1.70	 	 	 	 	 	 	 	 	 	 	 	 	 	 	 	 	 	 	1581510866	0.74	1.37
12/02/2020 12:34:27	120220	12022020	123427	79.56	12.418843	-57.245035	79.72	-0.410	1.600	1.570	79.53	0.30	2.10	 	 	 	 	 	 	 	 	 	 	 	 	 	 	 	 	 	 	1581510867	1.08	2.00
12/02/2020 12:34:28	120220	12022020	123428	79.33	12.418842	-57.245037	79.48	-0.670	1.410	1.920	79.27	-0.30	2.40	 	 	 	 	 	 	 	 	 	 	 	 	 	 	 	 	 	 	1581510868	0.75	1.39
12/02/2020 12:34:29	120220	12022020	123429	79.07	12.418840	-57.245033	79.21	-0.580	0.360	1.990	79.04	-1.40	2.30	 	 	 	 	 	 	 	 	 	 	 	 	 	 	 	 	 	 	1581510869	0.67	1.24
12/02/2020 12:34:30	120220	12022020	123430	78.98	12.418840	-57.245030	79.16	-0.260	-0.670	1.680	78.99	-2.30	1.90	 	 	 	 	 	 	 	 	 	 	 	 	 	 	 	 	 	 	1581510870	0.95	1.76
12/02/2020 12:34:31	120220	12022020	123431	79.04	12.418843	-57.245027	79.22	0.050	-1.100	1.230	79.06	-2.40	1.40	 	 	 	 	 	 	 	 	 	 	 	 	 	 	 	 	 	 	1581510871	0.85	1.57
12/02/2020 12:34:32	120220	12022020	123432	79.10	12.418848	-57.245028	79.26	0.170	-0.970	0.770	79.10	-2.20	1.00	 	 	 	 	 	 	 	 	 	 	 	 	 	 	 	 	 	 	1581510872	0.79	1.46
12/02/2020 12:34:33	120220	12022020	123433	79.07	12.418850	-57.245030	79.22	0.230	-0.820	0.410	79.07	-2.10	0.70	 	 	 	 	 	 	 	 	 	 	 	 	 	 	 	 	 	 	1581510873	0.78	1.44
12/02/2020 12:34:34	120220	12022020	123434	79.12	12.418853	-57.245030	79.29	0.410	-0.800	0.190	79.16	-2.10	0.50	 	 	 	 	 	 	 	 	 	 	 	 	 	 	 	 	 	 	1581510874	0.49	0.91
12/02/2020 12:34:35	120220	12022020	123435	79.35	12.418853	-57.245028	79.53	0.610	-0.570	0.170	79.40	-1.70	0.70	 	 	 	 	 	 	 	 	 	 	 	 	 	 	 	 	 	 	1581510875	0.43	0.80
12/02/2020 12:34:36	120220	12022020	123436	79.51	12.418853	-57.245028	79.67	0.540	-0.100	0.520	79.51	-1.20	1.10	 	 	 	 	 	 	 	 	 	 	 	 	 	 	 	 	 	 	1581510876	0.32	0.59
12/02/2020 12:34:37	120220	12022020	123437	79.43	12.418850	-57.245027	79.57	0.120	0.430	1.110	79.39	-0.70	1.70	 	 	 	 	 	 	 	 	 	 	 	 	 	 	 	 	 	 	1581510877	0.69	1.28
12/02/2020 12:34:38	120220	12022020	123438	79.18	12.418847	-57.245027	79.32	-0.460	0.870	1.690	79.12	-0.40	2.20	 	 	 	 	 	 	 	 	 	 	 	 	 	 	 	 	 	 	1581510878	0.88	1.63
12/02/2020 12:34:39	120220	12022020	123439	78.92	12.418843	-57.245027	79.08	-0.850	0.910	1.990	78.87	-0.60	2.40	 	 	 	 	 	 	 	 	 	 	 	 	 	 	 	 	 	 	1581510879	0.71	1.31
12/02/2020 12:34:40	120220	12022020	123440	78.76	12.418842	-57.245027	78.95	-0.800	0.310	1.970	78.75	-1.40	2.30	 	 	 	 	 	 	 	 	 	 	 	 	 	 	 	 	 	 	1581510880	0.27	0.50
12/02/2020 12:34:41	120220	12022020	123441	78.68	12.418843	-57.245025	78.86	-0.330	-0.610	1.870	78.67	-2.20	2.20	 	 	 	 	 	 	 	 	 	 	 	 	 	 	 	 	 	 	1581510881	0.58	1.07
12/02/2020 12:34:42	120220	12022020	123442	78.75	12.418845	-57.245022	78.95	0.210	-1.200	1.560	78.79	-2.50	1.70	 	 	 	 	 	 	 	 	 	 	 	 	 	 	 	 	 	 	1581510882	0.84	1.56
12/02/2020 12:34:43	120220	12022020	123443	79.03	12.418848	-57.245020	79.22	0.440	-1.070	0.960	79.08	-2.20	1.10	 	 	 	 	 	 	 	 	 	 	 	 	 	 	 	 	 	 	1581510883	0.67	1.24
12/02/2020 12:34:44	120220	12022020	123444	79.21	12.418850	-57.245022	79.37	0.320	-0.510	0.450	79.22	-1.60	0.80	 	 	 	 	 	 	 	 	 	 	 	 	 	 	 	 	 	 	1581510884	0.69	1.28
12/02/2020 12:34:45	120220	12022020	123445	79.15	12.418852	-57.245023	79.28	0.180	-0.100	0.410	79.11	-1.30	0.90	 	 	 	 	 	 	 	 	 	 	 	 	 	 	 	 	 	 	1581510885	0.51	0.94
12/02/2020 12:34:46	120220	12022020	123446	78.97	12.418850	-57.245023	79.10	0.180	0.050	0.690	78.93	-1.20	1.20	 	 	 	 	 	 	 	 	 	 	 	 	 	 	 	 	 	 	1581510886	0.16	0.30
12/02/2020 12:34:47	120220	12022020	123447	78.73	12.418850	-57.245023	78.87	0.150	0.150	1.050	78.68	-1.10	1.50	 	 	 	 	 	 	 	 	 	 	 	 	 	 	 	 	 	 	1581510887	0.38	0.70
12/02/2020 12:34:48	120220	12022020	123448	78.53	12.418848	-57.245022	78.68	-0.040	0.240	1.180	78.51	-1.10	1.50	 	 	 	 	 	 	 	 	 	 	 	 	 	 	 	 	 	 	1581510888	0.11	0.20
12/02/2020 12:34:49	120220	12022020	123449	78.52	12.418850	-57.245022	78.70	-0.250	0.110	1.070	78.55	-1.40	1.40	 	 	 	 	 	 	 	 	 	 	 	 	 	 	 	 	 	 	1581510889	0.21	0.39
12/02/2020 12:34:50	120220	12022020	123450	78.68	12.418852	-57.245022	78.86	-0.270	-0.340	0.960	78.71	-1.90	1.40	 	 	 	 	 	 	 	 	 	 	 	 	 	 	 	 	 	 	1581510890	0.29	0.54
12/02/2020 12:34:51	120220	12022020	123451	78.78	12.418852	-57.245018	78.95	-0.070	-0.760	1.130	78.79	-2.10	1.60	 	 	 	 	 	 	 	 	 	 	 	 	 	 	 	 	 	 	1581510891	0.59	1.09
12/02/2020 12:34:52	120220	12022020	123452	78.79	12.418848	-57.245017	78.96	0.160	-0.750	1.410	78.79	-1.90	1.90	 	 	 	 	 	 	 	 	 	 	 	 	 	 	 	 	 	 	1581510892	0.70	1.30
12/02/2020 12:34:53	120220	12022020	123453	78.75	12.418847	-57.245015	78.92	0.200	-0.300	1.560	78.74	-1.40	1.90	 	 	 	 	 	 	 	 	 	 	 	 	 	 	 	 	 	 	1581510893	0.44	0.81
12/02/2020 12:34:54	120220	12022020	123454	78.71	12.418847	-57.245017	78.88	0.050	0.270	1.520	78.71	-0.90	1.90	 	 	 	 	 	 	 	 	 	 	 	 	 	 	 	 	 	 	1581510894	0.35	0.65
12/02/2020 12:34:55	120220	12022020	123455	78.77	12.418847	-57.245018	78.95	-0.180	0.610	1.390	78.79	-0.70	1.70	 	 	 	 	 	 	 	 	 	 	 	 	 	 	 	 	 	 	1581510895	0.41	0.76
12/02/2020 12:34:56	120220	12022020	123456	78.87	12.418847	-57.245020	79.03	-0.370	0.590	1.320	78.87	-0.70	1.70	 	 	 	 	 	 	 	 	 	 	 	 	 	 	 	 	 	 	1581510896	0.26	0.48
12/02/2020 12:34:57	120220	12022020	123457	78.83	12.418847	-57.245020	78.98	-0.430	0.140	1.240	78.81	-1.50	1.50	 	 	 	 	 	 	 	 	 	 	 	 	 	 	 	 	 	 	1581510897	0.05	0.09
12/02/2020 12:34:58	120220	12022020	123458	78.69	12.418848	-57.245018	78.82	-0.240	-0.670	0.940	78.65	-2.30	1.20	 	 	 	 	 	 	 	 	 	 	 	 	 	 	 	 	 	 	1581510898	0.52	0.96
12/02/2020 12:34:59	120220	12022020	123459	78.49	12.418853	-57.245017	78.62	0.140	-1.350	0.570	78.46	-2.80	0.80	 	 	 	 	 	 	 	 	 	 	 	 	 	 	 	 	 	 	1581510899	1.09	2.02
12/02/2020 12:35:00	120220	12022020	123500	78.47	12.418857	-57.245015	78.64	0.550	-1.460	0.300	78.51	-2.60	0.60	 	 	 	 	 	 	 	 	 	 	 	 	 	 	 	 	 	 	1581510900	1.08	2.00
12/02/2020 12:35:01	120220	12022020	123501	78.85	12.418860	-57.245013	79.06	0.750	-0.960	0.250	78.96	-1.90	0.70	 	 	 	 	 	 	 	 	 	 	 	 	 	 	 	 	 	 	1581510901	0.57	1.06
12/02/2020 12:35:02	120220	12022020	123502	79.35	12.418858	-57.245015	79.56	0.540	-0.020	0.550	79.43	-0.90	1.10	1016.80	26.50	26.50	21.10	21.10	120.0	72.0	72.0	427.0	27.0	356.00	10.60	76.00	10.30	15021	10213.0	27.6	27.5	1581510902	0.25	0.46
12/02/2020 12:35:03	120220	12022020	123503	79.61	12.418855	-57.245017	79.78	0.030	0.840	1.110	79.62	-0.30	1.70	 	 	 	 	 	 	 	 	 	 	 	 	 	 	 	 	 	 	1581510903	0.92	1.70
12/02/2020 12:35:04	120220	12022020	123504	79.51	12.418850	-57.245018	79.65	-0.510	1.260	1.590	79.46	-0.10	2.10	 	 	 	 	 	 	 	 	 	 	 	 	 	 	 	 	 	 	1581510904	1.18	2.19
12/02/2020 12:35:05	120220	12022020	123505	79.18	12.418845	-57.245018	79.29	-0.810	1.060	1.840	79.09	-0.50	2.30	 	 	 	 	 	 	 	 	 	 	 	 	 	 	 	 	 	 	1581510905	0.84	1.56
12/02/2020 12:35:06	120220	12022020	123506	78.78	12.418845	-57.245017	78.92	-0.750	0.310	1.980	78.72	-1.40	2.40	 	 	 	 	 	 	 	 	 	 	 	 	 	 	 	 	 	 	1581510906	0.28	0.52
12/02/2020 12:35:07	120220	12022020	123507	78.68	12.418847	-57.245015	78.87	-0.400	-0.720	1.850	78.72	-2.40	2.00	 	 	 	 	 	 	 	 	 	 	 	 	 	 	 	 	 	 	1581510907	0.67	1.24
12/02/2020 12:35:08	120220	12022020	123508	79.08	12.418853	-57.245013	79.31	0.090	-1.580	1.210	79.21	-3.10	1.20	 	 	 	 	 	 	 	 	 	 	 	 	 	 	 	 	 	 	1581510908	1.27	2.35
12/02/2020 12:35:09	120220	12022020	123509	79.74	12.418860	-57.245012	79.95	0.590	-1.820	0.340	79.87	-3.00	0.50	 	 	 	 	 	 	 	 	 	 	 	 	 	 	 	 	 	 	1581510909	1.55	2.87
12/02/2020 12:35:10	120220	12022020	123510	80.22	12.418865	-57.245012	80.38	0.910	-1.260	-0.030	80.28	-2.20	0.40	 	 	 	 	 	 	 	 	 	 	 	 	 	 	 	 	 	 	1581510910	1.06	1.96
12/02/2020 12:35:11	120220	12022020	123511	80.37	12.418865	-57.245013	80.48	0.840	-0.150	0.340	80.35	-1.00	1.10	 	 	 	 	 	 	 	 	 	 	 	 	 	 	 	 	 	 	1581510911	0.35	0.65
12/02/2020 12:35:12	120220	12022020	123512	80.13	12.418860	-57.245015	80.22	0.340	0.850	1.260	80.05	-0.30	2.00	 	 	 	 	 	 	 	 	 	 	 	 	 	 	 	 	 	 	1581510912	1.13	2.09
12/02/2020 12:35:13	120220	12022020	123513	79.68	12.418853	-57.245017	79.79	-0.320	1.130	2.090	79.60	-0.30	2.60	 	 	 	 	 	 	 	 	 	 	 	 	 	 	 	 	 	 	1581510913	1.23	2.28
12/02/2020 12:35:14	120220	12022020	123514	79.38	12.418852	-57.245015	79.53	-0.760	0.840	2.180	79.36	-0.70	2.40	 	 	 	 	 	 	 	 	 	 	 	 	 	 	 	 	 	 	1581510914	0.49	0.91
12/02/2020 12:35:15	120220	12022020	123515	79.44	12.418855	-57.245015	79.62	-0.810	0.340	1.630	79.49	-1.20	1.70	 	 	 	 	 	 	 	 	 	 	 	 	 	 	 	 	 	 	1581510915	0.66	1.22
12/02/2020 12:35:16	120220	12022020	123516	79.76	12.418860	-57.245015	79.95	-0.550	-0.290	0.890	79.83	-1.90	1.00	 	 	 	 	 	 	 	 	 	 	 	 	 	 	 	 	 	 	1581510916	1.25	2.31
12/02/2020 12:35:17	120220	12022020	123517	80.16	12.418867	-57.245015	80.35	-0.160	-1.000	0.220	80.24	-2.50	0.40	 	 	 	 	 	 	 	 	 	 	 	 	 	 	 	 	 	 	1581510917	1.32	2.44
12/02/2020 12:35:18	120220	12022020	123518	80.52	12.418872	-57.245013	80.68	0.160	-1.360	-0.160	80.57	-2.60	0.20	 	 	 	 	 	 	 	 	 	 	 	 	 	 	 	 	 	 	1581510918	0.92	1.70
12/02/2020 12:35:19	120220	12022020	123519	80.65	12.418870	-57.245012	80.78	0.290	-1.050	0.030	80.65	-2.10	0.60	 	 	 	 	 	 	 	 	 	 	 	 	 	 	 	 	 	 	1581510919	0.20	0.37
12/02/2020 12:35:20	120220	12022020	123520	80.56	12.418867	-57.245013	80.67	0.330	-0.350	0.600	80.54	-1.40	1.20	 	 	 	 	 	 	 	 	 	 	 	 	 	 	 	 	 	 	1581510920	0.89	1.65
12/02/2020 12:35:21	120220	12022020	123521	80.46	12.418863	-57.245015	80.60	0.350	0.220	1.090	80.46	-1.00	1.60	 	 	 	 	 	 	 	 	 	 	 	 	 	 	 	 	 	 	1581510921	0.90	1.67
12/02/2020 12:35:22	120220	12022020	123522	80.42	12.418862	-57.245015	80.56	0.260	0.520	1.320	80.39	-0.80	1.80	 	 	 	 	 	 	 	 	 	 	 	 	 	 	 	 	 	 	1581510922	0.36	0.67
12/02/2020 12:35:23	120220	12022020	123523	80.17	12.418862	-57.245015	80.25	0.030	0.510	1.450	80.08	-0.90	1.90	 	 	 	 	 	 	 	 	 	 	 	 	 	 	 	 	 	 	1581510923	0.14	0.26
12/02/2020 12:35:24	120220	12022020	123524	79.68	12.418863	-57.245015	79.77	-0.170	0.160	1.470	79.60	-1.40	1.80	 	 	 	 	 	 	 	 	 	 	 	 	 	 	 	 	 	 	1581510924	0.35	0.65
12/02/2020 12:35:25	120220	12022020	123525	79.40	12.418867	-57.245013	79.55	-0.120	-0.440	1.140	79.40	-2.00	1.30	 	 	 	 	 	 	 	 	 	 	 	 	 	 	 	 	 	 	1581510925	0.77	1.43
12/02/2020 12:35:26	120220	12022020	123526	79.59	12.418872	-57.245012	79.78	0.130	-0.980	0.550	79.66	-2.40	0.70	 	 	 	 	 	 	 	 	 	 	 	 	 	 	 	 	 	 	1581510926	1.23	2.28
12/02/2020 12:35:27	120220	12022020	123527	79.98	12.418877	-57.245010	80.17	0.290	-0.960	0.140	80.07	-2.10	0.40	 	 	 	 	 	 	 	 	 	 	 	 	 	 	 	 	 	 	1581510927	1.09	2.02
12/02/2020 12:35:28	120220	12022020	123528	80.38	12.418878	-57.245012	80.56	0.120	-0.310	-0.020	80.45	-1.30	0.40	 	 	 	 	 	 	 	 	 	 	 	 	 	 	 	 	 	 	1581510928	0.41	0.76
12/02/2020 12:35:29	120220	12022020	123529	80.72	12.418878	-57.245013	80.88	-0.300	0.480	0.020	80.77	-0.60	0.50	 	 	 	 	 	 	 	 	 	 	 	 	 	 	 	 	 	 	1581510929	0.63	1.17
12/02/2020 12:35:30	120220	12022020	123530	80.86	12.418875	-57.245017	80.99	-0.660	0.770	0.430	80.84	-0.60	1.20	 	 	 	 	 	 	 	 	 	 	 	 	 	 	 	 	 	 	1581510930	0.83	1.54
12/02/2020 12:35:31	120220	12022020	123531	80.60	12.418870	-57.245017	80.69	-0.690	0.460	1.380	80.50	-1.10	2.20	 	 	 	 	 	 	 	 	 	 	 	 	 	 	 	 	 	 	1581510931	1.14	2.11
12/02/2020 12:35:32	120220	12022020	123532	79.98	12.418863	-57.245013	80.04	-0.380	-0.120	2.350	79.82	-1.70	3.00	 	 	 	 	 	 	 	 	 	 	 	 	 	 	 	 	 	 	1581510932	1.63	3.02
12/02/2020 12:35:33	120220	12022020	123533	79.21	12.418858	-57.245012	79.28	0.150	-0.770	2.740	79.07	-2.30	3.00	 	 	 	 	 	 	 	 	 	 	 	 	 	 	 	 	 	 	1581510933	1.15	2.13
12/02/2020 12:35:34	120220	12022020	123534	78.77	12.418860	-57.245008	78.92	0.620	-1.170	2.290	78.77	-2.50	2.30	 	 	 	 	 	 	 	 	 	 	 	 	 	 	 	 	 	 	1581510934	0.65	1.20
12/02/2020 12:35:35	120220	12022020	123535	79.02	12.418868	-57.245008	79.22	0.780	-1.060	1.150	79.14	-2.20	1.00	 	 	 	 	 	 	 	 	 	 	 	 	 	 	 	 	 	 	1581510935	1.68	3.11
12/02/2020 12:35:36	120220	12022020	123536	79.71	12.418878	-57.245012	79.91	0.580	-0.520	-0.090	79.86	-1.50	-0.10	 	 	 	 	 	 	 	 	 	 	 	 	 	 	 	 	 	 	1581510936	2.14	3.96
12/02/2020 12:35:37	120220	12022020	123537	80.32	12.418885	-57.245015	80.45	0.110	0.250	-0.730	80.37	-0.80	-0.30	 	 	 	 	 	 	 	 	 	 	 	 	 	 	 	 	 	 	1581510937	1.59	2.94
12/02/2020 12:35:38	120220	12022020	123538	80.40	12.418885	-57.245017	80.46	-0.380	0.740	-0.520	80.35	-0.60	0.10	 	 	 	 	 	 	 	 	 	 	 	 	 	 	 	 	 	 	1581510938	0.66	1.22
12/02/2020 12:35:39	120220	12022020	123539	79.99	12.418882	-57.245018	80.01	-0.580	0.500	0.210	79.87	-1.10	0.90	 	 	 	 	 	 	 	 	 	 	 	 	 	 	 	 	 	 	1581510939	0.82	1.52
12/02/2020 12:35:40	120220	12022020	123540	79.37	12.418877	-57.245015	79.42	-0.320	-0.330	1.010	79.26	-2.00	1.60	 	 	 	 	 	 	 	 	 	 	 	 	 	 	 	 	 	 	1581510940	1.31	2.43
12/02/2020 12:35:41	120220	12022020	123541	79.05	12.418873	-57.245008	79.19	0.160	-1.000	1.510	79.05	-2.30	2.00	 	 	 	 	 	 	 	 	 	 	 	 	 	 	 	 	 	 	1581510941	1.40	2.59
12/02/2020 12:35:42	120220	12022020	123542	79.17	12.418872	-57.245005	79.34	0.340	-0.700	1.570	79.22	-1.60	1.80	 	 	 	 	 	 	 	 	 	 	 	 	 	 	 	 	 	 	1581510942	0.72	1.33
12/02/2020 12:35:43	120220	12022020	123543	79.47	12.418873	-57.245008	79.64	-0.030	0.360	1.000	79.53	-0.60	1.00	 	 	 	 	 	 	 	 	 	 	 	 	 	 	 	 	 	 	1581510943	0.70	1.30
12/02/2020 12:35:44	120220	12022020	123544	79.71	12.418877	-57.245017	79.83	-0.560	1.080	0.050	79.72	-0.30	0.10	 	 	 	 	 	 	 	 	 	 	 	 	 	 	 	 	 	 	1581510944	1.78	3.30
12/02/2020 12:35:45	120220	12022020	123545	79.61	12.418882	-57.245022	79.67	-0.630	0.620	-0.560	79.56	-1.20	-0.30	 	 	 	 	 	 	 	 	 	 	 	 	 	 	 	 	 	 	1581510945	1.56	2.89
12/02/2020 12:35:46	120220	12022020	123546	79.35	12.418885	-57.245018	79.42	-0.100	-0.800	-0.710	79.35	-1.80	-0.30	 	 	 	 	 	 	 	 	 	 	 	 	 	 	 	 	 	 	1581510946	0.81	1.50
12/02/2020 12:35:47	120220	12022020	123547	79.31	12.418887	-57.245012	79.41	0.570	-2.010	-0.680	79.32	-3.50	-0.20	 	 	 	 	 	 	 	 	 	 	 	 	 	 	 	 	 	 	1581510947	1.41	2.61
12/02/2020 12:35:48	120220	12022020	123548	79.39	12.418887	-57.245007	79.49	0.860	-1.920	-0.580	79.41	-2.80	-0.20	 	 	 	 	 	 	 	 	 	 	 	 	 	 	 	 	 	 	1581510948	1.07	1.98
12/02/2020 12:35:49	120220	12022020	123549	79.48	12.418885	-57.245008	79.57	0.660	-0.630	-0.510	79.49	-1.30	-0.10	 	 	 	 	 	 	 	 	 	 	 	 	 	 	 	 	 	 	1581510949	0.24	0.44
12/02/2020 12:35:50	120220	12022020	123550	79.54	12.418887	-57.245015	79.63	0.130	0.860	-0.330	79.54	-0.10	0.20	 	 	 	 	 	 	 	 	 	 	 	 	 	 	 	 	 	 	1581510950	1.21	2.24
12/02/2020 12:35:51	120220	12022020	123551	79.55	12.418885	-57.245020	79.63	-0.430	1.580	0.070	79.54	0.20	0.70	 	 	 	 	 	 	 	 	 	 	 	 	 	 	 	 	 	 	1581510951	1.11	2.06
12/02/2020 12:35:52	120220	12022020	123552	79.42	12.418883	-57.245022	79.49	-0.790	1.350	0.700	79.37	-0.30	1.40	 	 	 	 	 	 	 	 	 	 	 	 	 	 	 	 	 	 	1581510952	0.53	0.98
12/02/2020 12:35:53	120220	12022020	123553	79.16	12.418880	-57.245020	79.25	-0.750	0.500	1.430	79.11	-1.30	2.10	 	 	 	 	 	 	 	 	 	 	 	 	 	 	 	 	 	 	1581510953	0.73	1.35
12/02/2020 12:35:54	120220	12022020	123554	79.00	12.418878	-57.245017	79.13	-0.320	-0.590	1.970	78.99	-2.30	2.40	 	 	 	 	 	 	 	 	 	 	 	 	 	 	 	 	 	 	1581510954	0.89	1.65
12/02/2020 12:35:55	120220	12022020	123555	79.12	12.418877	-57.245013	79.31	0.190	-1.410	2.070	79.18	-2.90	2.40	 	 	 	 	 	 	 	 	 	 	 	 	 	 	 	 	 	 	1581510955	0.72	1.33
12/02/2020 12:35:56	120220	12022020	123556	79.58	12.418877	-57.245012	79.80	0.510	-1.560	1.730	79.70	-2.80	1.90	 	 	 	 	 	 	 	 	 	 	 	 	 	 	 	 	 	 	1581510956	0.32	0.59
12/02/2020 12:35:57	120220	12022020	123557	80.05	12.418878	-57.245013	80.22	0.550	-1.090	1.280	80.09	-2.10	1.60	 	 	 	 	 	 	 	 	 	 	 	 	 	 	 	 	 	 	1581510957	0.37	0.69
12/02/2020 12:35:58	120220	12022020	123558	80.00	12.418878	-57.245015	80.08	0.410	-0.320	1.120	79.92	-1.40	1.50	 	 	 	 	 	 	 	 	 	 	 	 	 	 	 	 	 	 	1581510958	0.56	1.04
12/02/2020 12:35:59	120220	12022020	123559	79.45	12.418880	-57.245018	79.50	0.240	0.330	1.190	79.32	-0.90	1.60	 	 	 	 	 	 	 	 	 	 	 	 	 	 	 	 	 	 	1581510959	0.56	1.04
12/02/2020 12:36:00	120220	12022020	123600	78.90	12.418880	-57.245020	78.99	0.130	0.530	1.080	78.83	-0.90	1.30	 	 	 	 	 	 	 	 	 	 	 	 	 	 	 	 	 	 	1581510960	0.40	0.74
12/02/2020 12:36:01	120220	12022020	123601	78.79	12.418883	-57.245020	78.94	0.090	0.220	0.500	78.83	-1.30	0.60	 	 	 	 	 	 	 	 	 	 	 	 	 	 	 	 	 	 	1581510961	0.70	1.30
12/02/2020 12:36:02	120220	12022020	123602	79.09	12.418888	-57.245018	79.24	-0.010	-0.160	-0.240	79.16	-1.60	-0.10	1016.90	26.40	26.40	20.90	20.90	109.0	72.0	72.0	431.0	27.0	359.00	10.00	79.00	9.60	13814	9974.0	27.6	27.6	1581510962	1.16	2.15
12/02/2020 12:36:03	120220	12022020	123603	79.48	12.418893	-57.245017	79.63	-0.210	-0.210	-0.690	79.55	-1.50	-0.30	 	 	 	 	 	 	 	 	 	 	 	 	 	 	 	 	 	 	1581510963	0.90	1.67
12/02/2020 12:36:04	120220	12022020	123604	79.72	12.418893	-57.245018	79.83	-0.400	0.030	-0.620	79.73	-1.20	-0.10	 	 	 	 	 	 	 	 	 	 	 	 	 	 	 	 	 	 	1581510964	0.24	0.44
12/02/2020 12:36:05	120220	12022020	123605	79.65	12.418892	-57.245020	79.73	-0.470	0.340	-0.100	79.60	-0.90	0.60	 	 	 	 	 	 	 	 	 	 	 	 	 	 	 	 	 	 	1581510965	0.66	1.22
12/02/2020 12:36:06	120220	12022020	123606	79.35	12.418888	-57.245022	79.45	-0.410	0.400	0.620	79.30	-1.10	1.30	 	 	 	 	 	 	 	 	 	 	 	 	 	 	 	 	 	 	1581510966	0.93	1.72
12/02/2020 12:36:07	120220	12022020	123607	79.20	12.418885	-57.245023	79.35	-0.190	-0.020	1.240	79.20	-1.70	1.80	 	 	 	 	 	 	 	 	 	 	 	 	 	 	 	 	 	 	1581510967	0.73	1.35
12/02/2020 12:36:08	120220	12022020	123608	79.27	12.418882	-57.245022	79.44	0.170	-0.810	1.660	79.28	-2.50	2.20	 	 	 	 	 	 	 	 	 	 	 	 	 	 	 	 	 	 	1581510968	0.50	0.93
12/02/2020 12:36:09	120220	12022020	123609	79.25	12.418882	-57.245018	79.40	0.570	-1.510	2.060	79.22	-3.00	2.60	 	 	 	 	 	 	 	 	 	 	 	 	 	 	 	 	 	 	1581510969	0.68	1.26
12/02/2020 12:36:10	120220	12022020	123610	79.04	12.418882	-57.245015	79.18	0.830	-1.670	2.420	79.00	-2.80	2.90	 	 	 	 	 	 	 	 	 	 	 	 	 	 	 	 	 	 	1581510970	0.70	1.30
12/02/2020 12:36:11	120220	12022020	123611	78.92	12.418880	-57.245013	79.08	0.790	-1.080	2.510	78.92	-2.00	2.80	 	 	 	 	 	 	 	 	 	 	 	 	 	 	 	 	 	 	1581510971	0.35	0.65
12/02/2020 12:36:12	120220	12022020	123612	79.05	12.418880	-57.245015	79.24	0.430	0.110	2.160	79.10	-0.70	2.30	 	 	 	 	 	 	 	 	 	 	 	 	 	 	 	 	 	 	1581510972	0.28	0.52
12/02/2020 12:36:13	120220	12022020	123613	79.25	12.418882	-57.245020	79.40	-0.150	1.370	1.450	79.27	0.40	1.50	 	 	 	 	 	 	 	 	 	 	 	 	 	 	 	 	 	 	1581510973	0.89	1.65
12/02/2020 12:36:14	120220	12022020	123614	79.26	12.418883	-57.245025	79.37	-0.680	2.000	0.670	79.23	0.60	0.80	 	 	 	 	 	 	 	 	 	 	 	 	 	 	 	 	 	 	1581510974	1.24	2.30
12/02/2020 12:36:15	120220	12022020	123615	79.10	12.418887	-57.245028	79.18	-0.930	1.570	-0.000	79.07	-0.30	0.20	 	 	 	 	 	 	 	 	 	 	 	 	 	 	 	 	 	 	1581510975	1.11	2.06
12/02/2020 12:36:16	120220	12022020	123616	78.99	12.418892	-57.245028	79.06	-0.740	0.140	-0.510	78.98	-1.90	-0.30	 	 	 	 	 	 	 	 	 	 	 	 	 	 	 	 	 	 	1581510976	0.96	1.78
12/02/2020 12:36:17	120220	12022020	123617	78.99	12.418897	-57.245025	79.08	-0.230	-1.580	-0.810	79.00	-3.50	-0.50	 	 	 	 	 	 	 	 	 	 	 	 	 	 	 	 	 	 	1581510977	1.23	2.28
12/02/2020 12:36:18	120220	12022020	123618	79.10	12.418898	-57.245020	79.20	0.330	-2.600	-0.880	79.14	-3.90	-0.40	 	 	 	 	 	 	 	 	 	 	 	 	 	 	 	 	 	 	1581510978	1.24	2.30
12/02/2020 12:36:19	120220	12022020	123619	79.26	12.418898	-57.245017	79.35	0.670	-2.240	-0.500	79.28	-3.10	0.20	 	 	 	 	 	 	 	 	 	 	 	 	 	 	 	 	 	 	1581510979	0.56	1.04
12/02/2020 12:36:20	120220	12022020	123620	79.33	12.418895	-57.245018	79.43	0.620	-0.790	0.350	79.34	-1.40	1.10	 	 	 	 	 	 	 	 	 	 	 	 	 	 	 	 	 	 	1581510980	1.01	1.87
12/02/2020 12:36:21	120220	12022020	123621	79.33	12.418887	-57.245023	79.46	0.270	0.760	1.370	79.33	-0.20	2.10	 	 	 	 	 	 	 	 	 	 	 	 	 	 	 	 	 	 	1581510981	1.81	3.35
12/02/2020 12:36:22	120220	12022020	123622	79.31	12.418880	-57.245028	79.44	-0.090	1.460	2.270	79.29	0.10	2.90	 	 	 	 	 	 	 	 	 	 	 	 	 	 	 	 	 	 	1581510982	1.73	3.20
12/02/2020 12:36:23	120220	12022020	123623	79.27	12.418875	-57.245028	79.40	-0.190	1.130	2.700	79.25	-0.50	3.10	 	 	 	 	 	 	 	 	 	 	 	 	 	 	 	 	 	 	1581510983	1.01	1.87
12/02/2020 12:36:24	120220	12022020	123624	79.12	12.418875	-57.245025	79.22	-0.140	0.410	2.640	79.07	-1.20	2.90	 	 	 	 	 	 	 	 	 	 	 	 	 	 	 	 	 	 	1581510984	0.61	1.13
12/02/2020 12:36:25	120220	12022020	123625	78.85	12.418878	-57.245023	78.96	-0.190	-0.080	2.310	78.82	-1.60	2.50	 	 	 	 	 	 	 	 	 	 	 	 	 	 	 	 	 	 	1581510985	0.70	1.30
12/02/2020 12:36:26	120220	12022020	123626	78.84	12.418882	-57.245023	79.01	-0.340	-0.420	1.750	78.89	-1.90	1.80	 	 	 	 	 	 	 	 	 	 	 	 	 	 	 	 	 	 	1581510986	0.87	1.61
12/02/2020 12:36:27	120220	12022020	123627	79.20	12.418887	-57.245025	79.39	-0.320	-0.920	1.000	79.29	-2.50	1.10	 	 	 	 	 	 	 	 	 	 	 	 	 	 	 	 	 	 	1581510987	0.93	1.72
12/02/2020 12:36:28	120220	12022020	123628	79.68	12.418888	-57.245025	79.87	0.020	-1.450	0.260	79.77	-2.90	0.40	 	 	 	 	 	 	 	 	 	 	 	 	 	 	 	 	 	 	1581510988	0.71	1.31
12/02/2020 12:36:29	120220	12022020	123629	80.10	12.418890	-57.245023	80.25	0.520	-1.560	-0.250	80.15	-2.70	0.10	 	 	 	 	 	 	 	 	 	 	 	 	 	 	 	 	 	 	1581510989	0.56	1.04
12/02/2020 12:36:30	120220	12022020	123630	80.19	12.418890	-57.245022	80.27	0.790	-0.860	-0.250	80.16	-1.70	0.30	 	 	 	 	 	 	 	 	 	 	 	 	 	 	 	 	 	 	1581510990	0.32	0.59
12/02/2020 12:36:31	120220	12022020	123631	79.92	12.418888	-57.245023	79.98	0.580	0.380	0.180	79.83	-0.50	0.80	 	 	 	 	 	 	 	 	 	 	 	 	 	 	 	 	 	 	1581510991	0.60	1.11
12/02/2020 12:36:32	120220	12022020	123632	79.51	12.418885	-57.245027	79.57	-0.010	1.340	0.660	79.43	0.20	1.20	 	 	 	 	 	 	 	 	 	 	 	 	 	 	 	 	 	 	1581510992	0.94	1.74
12/02/2020 12:36:33	120220	12022020	123633	79.17	12.418883	-57.245028	79.26	-0.600	1.550	0.900	79.12	0.10	1.30	 	 	 	 	 	 	 	 	 	 	 	 	 	 	 	 	 	 	1581510993	0.62	1.15
12/02/2020 12:36:34	120220	12022020	123634	79.06	12.418885	-57.245030	79.18	-0.900	1.040	0.890	79.07	-0.60	1.20	 	 	 	 	 	 	 	 	 	 	 	 	 	 	 	 	 	 	1581510994	0.26	0.48
12/02/2020 12:36:35	120220	12022020	123635	79.27	12.418887	-57.245030	79.43	-0.810	0.140	0.710	79.34	-1.60	1.00	 	 	 	 	 	 	 	 	 	 	 	 	 	 	 	 	 	 	1581510995	0.47	0.87
12/02/2020 12:36:36	120220	12022020	123636	79.65	12.418888	-57.245028	79.82	-0.420	-0.880	0.540	79.73	-2.60	0.90	 	 	 	 	 	 	 	 	 	 	 	 	 	 	 	 	 	 	1581510996	0.47	0.87
12/02/2020 12:36:37	120220	12022020	123637	80.04	12.418888	-57.245027	80.21	0.120	-1.780	0.470	80.09	-3.40	0.90	 	 	 	 	 	 	 	 	 	 	 	 	 	 	 	 	 	 	1581510997	0.48	0.89
12/02/2020 12:36:38	120220	12022020	123638	80.16	12.418888	-57.245023	80.27	0.610	-2.260	0.730	80.13	-3.60	1.30	 	 	 	 	 	 	 	 	 	 	 	 	 	 	 	 	 	 	1581510998	0.72	1.33
12/02/2020 12:36:39	120220	12022020	123639	79.93	12.418885	-57.245020	80.02	0.930	-2.000	1.400	79.86	-2.90	2.10	 	 	 	 	 	 	 	 	 	 	 	 	 	 	 	 	 	 	1581510999	0.91	1.69
12/02/2020 12:36:40	120220	12022020	123640	79.55	12.418880	-57.245018	79.65	0.900	-0.810	2.160	79.48	-1.40	2.70	 	 	 	 	 	 	 	 	 	 	 	 	 	 	 	 	 	 	1581511000	1.03	1.91
12/02/2020 12:36:41	120220	12022020	123641	79.26	12.418877	-57.245020	79.38	0.410	1.040	2.440	79.22	0.40	2.70	 	 	 	 	 	 	 	 	 	 	 	 	 	 	 	 	 	 	1581511001	1.10	2.04
12/02/2020 12:36:42	120220	12022020	123642	79.23	12.418873	-57.245027	79.38	-0.370	2.580	1.980	79.27	1.50	2.00	 	 	 	 	 	 	 	 	 	 	 	 	 	 	 	 	 	 	1581511002	1.39	2.57
12/02/2020 12:36:43	120220	12022020	123643	79.51	12.418877	-57.245033	79.67	-1.010	2.710	0.970	79.60	0.90	0.90	 	 	 	 	 	 	 	 	 	 	 	 	 	 	 	 	 	 	1581511003	1.39	2.57
12/02/2020 12:36:44	120220	12022020	123644	79.89	12.418882	-57.245033	80.00	-1.120	1.200	-0.040	79.93	-1.00	0.10	 	 	 	 	 	 	 	 	 	 	 	 	 	 	 	 	 	 	1581511004	1.16	2.15
12/02/2020 12:36:45	120220	12022020	123645	79.95	12.418887	-57.245030	80.02	-0.600	-1.040	-0.500	79.92	-3.20	-0.20	 	 	 	 	 	 	 	 	 	 	 	 	 	 	 	 	 	 	1581511005	1.41	2.61
12/02/2020 12:36:46	120220	12022020	123646	79.68	12.418890	-57.245023	79.71	0.220	-2.750	-0.550	79.61	-4.40	-0.10	 	 	 	 	 	 	 	 	 	 	 	 	 	 	 	 	 	 	1581511006	1.58	2.93
12/02/2020 12:36:47	120220	12022020	123647	79.34	12.418892	-57.245018	79.39	0.830	-2.980	-0.290	79.29	-4.00	0.30	 	 	 	 	 	 	 	 	 	 	 	 	 	 	 	 	 	 	1581511007	0.96	1.78
12/02/2020 12:36:48	120220	12022020	123648	79.22	12.418892	-57.245020	79.32	0.930	-1.850	0.170	79.24	-2.50	0.80	 	 	 	 	 	 	 	 	 	 	 	 	 	 	 	 	 	 	1581511008	0.20	0.37
12/02/2020 12:36:49	120220	12022020	123649	79.40	12.418888	-57.245023	79.54	0.590	-0.270	0.730	79.45	-1.00	1.40	 	 	 	 	 	 	 	 	 	 	 	 	 	 	 	 	 	 	1581511009	1.00	1.85
12/02/2020 12:36:50	120220	12022020	123650	79.65	12.418883	-57.245027	79.80	0.050	0.940	1.430	79.69	-0.10	2.10	 	 	 	 	 	 	 	 	 	 	 	 	 	 	 	 	 	 	1581511010	1.23	2.28
12/02/2020 12:36:51	120220	12022020	123651	79.82	12.418877	-57.245028	79.99	-0.460	1.490	2.100	79.85	0.20	2.70	 	 	 	 	 	 	 	 	 	 	 	 	 	 	 	 	 	 	1581511011	1.49	2.76
12/02/2020 12:36:52	120220	12022020	123652	79.90	12.418872	-57.245027	80.05	-0.750	1.420	2.440	79.90	-0.10	2.80	 	 	 	 	 	 	 	 	 	 	 	 	 	 	 	 	 	 	1581511012	1.38	2.56
12/02/2020 12:36:53	120220	12022020	123653	79.90	12.418867	-57.245025	80.02	-0.710	0.910	2.360	79.89	-0.70	2.60	 	 	 	 	 	 	 	 	 	 	 	 	 	 	 	 	 	 	1581511013	0.88	1.63
12/02/2020 12:36:54	120220	12022020	123654	79.79	12.418867	-57.245023	79.89	-0.390	0.180	1.900	79.76	-1.50	2.00	 	 	 	 	 	 	 	 	 	 	 	 	 	 	 	 	 	 	1581511014	0.34	0.63
12/02/2020 12:36:55	120220	12022020	123655	79.62	12.418870	-57.245022	79.72	0.020	-0.510	1.170	79.61	-2.10	1.20	 	 	 	 	 	 	 	 	 	 	 	 	 	 	 	 	 	 	1581511015	0.65	1.20
12/02/2020 12:36:56	120220	12022020	123656	79.60	12.418875	-57.245023	79.70	0.340	-1.020	0.360	79.61	-2.50	0.50	 	 	 	 	 	 	 	 	 	 	 	 	 	 	 	 	 	 	1581511016	1.29	2.39
12/02/2020 12:36:57	120220	12022020	123657	79.64	12.418883	-57.245023	79.72	0.550	-1.410	-0.220	79.63	-2.90	0.10	 	 	 	 	 	 	 	 	 	 	 	 	 	 	 	 	 	 	1581511017	1.54	2.85
12/02/2020 12:36:58	120220	12022020	123658	79.60	12.418888	-57.245023	79.67	0.660	-1.710	-0.380	79.58	-3.10	0.10	 	 	 	 	 	 	 	 	 	 	 	 	 	 	 	 	 	 	1581511018	1.14	2.11
12/02/2020 12:36:59	120220	12022020	123659	79.55	12.418890	-57.245020	79.63	0.650	-1.520	-0.150	79.55	-2.60	0.40	 	 	 	 	 	 	 	 	 	 	 	 	 	 	 	 	 	 	1581511019	0.58	1.07
12/02/2020 12:37:00	120220	12022020	123700	79.62	12.418887	-57.245018	79.74	0.470	-0.630	0.390	79.65	-1.50	1.00	 	 	 	 	 	 	 	 	 	 	 	 	 	 	 	 	 	 	1581511020	0.75	1.39
12/02/2020 12:37:01	120220	12022020	123701	79.82	12.418880	-57.245020	79.97	0.120	0.580	1.070	79.85	-0.30	1.80	 	 	 	 	 	 	 	 	 	 	 	 	 	 	 	 	 	 	1581511021	1.19	2.20
12/02/2020 12:37:02	120220	12022020	123702	79.90	12.418875	-57.245020	80.03	-0.330	1.530	1.780	79.88	0.40	2.40	1016.90	26.30	26.30	21.00	21.00	99.0	72.0	72.0	435.0	27.0	3.00	10.00	83.00	9.50	12401	10333.0	27.6	27.5	1581511022	1.33	2.46
12/02/2020 12:37:03	120220	12022020	123703	79.73	12.418870	-57.245022	79.85	-0.800	1.860	2.300	79.68	0.40	2.80	 	 	 	 	 	 	 	 	 	 	 	 	 	 	 	 	 	 	1581511023	1.16	2.15
12/02/2020 12:37:04	120220	12022020	123704	79.59	12.418867	-57.245022	79.74	-1.160	1.530	2.300	79.59	0.30	2.70	 	 	 	 	 	 	 	 	 	 	 	 	 	 	 	 	 	 	1581511024	0.68	1.26
12/02/2020 12:37:05	120220	12022020	123705	79.76	12.418867	-57.245022	79.92	-1.120	0.550	1.750	79.82	-1.40	1.80	 	 	 	 	 	 	 	 	 	 	 	 	 	 	 	 	 	 	1581511025	0.09	0.17
12/02/2020 12:37:06	120220	12022020	123706	80.07	12.418870	-57.245022	80.21	-0.450	-0.910	1.000	80.11	-2.90	1.10	 	 	 	 	 	 	 	 	 	 	 	 	 	 	 	 	 	 	1581511026	0.67	1.24
12/02/2020 12:37:07	120220	12022020	123707	80.17	12.418873	-57.245018	80.27	0.630	-2.270	0.520	80.15	-4.00	0.80	 	 	 	 	 	 	 	 	 	 	 	 	 	 	 	 	 	 	1581511027	1.09	2.02
12/02/2020 12:37:08	120220	12022020	123708	80.02	12.418877	-57.245015	80.11	1.450	-2.790	0.460	79.99	-4.00	0.90	 	 	 	 	 	 	 	 	 	 	 	 	 	 	 	 	 	 	1581511028	1.09	2.02
12/02/2020 12:37:09	120220	12022020	123709	79.82	12.418878	-57.245013	79.88	1.430	-2.020	0.660	79.77	-2.70	1.20	 	 	 	 	 	 	 	 	 	 	 	 	 	 	 	 	 	 	1581511029	0.47	0.87
12/02/2020 12:37:10	120220	12022020	123710	79.61	12.418877	-57.245015	79.70	0.630	-0.300	0.900	79.59	-0.90	1.40	 	 	 	 	 	 	 	 	 	 	 	 	 	 	 	 	 	 	1581511030	0.59	1.09
12/02/2020 12:37:11	120220	12022020	123711	79.59	12.418875	-57.245022	79.72	-0.270	1.370	1.020	79.62	0.40	1.40	 	 	 	 	 	 	 	 	 	 	 	 	 	 	 	 	 	 	1581511031	1.28	2.37
12/02/2020 12:37:12	120220	12022020	123712	79.82	12.418873	-57.245025	79.98	-0.670	1.950	1.010	79.88	0.40	1.40	 	 	 	 	 	 	 	 	 	 	 	 	 	 	 	 	 	 	1581511032	1.05	1.94
12/02/2020 12:37:13	120220	12022020	123713	80.06	12.418873	-57.245025	80.21	-0.550	1.280	1.110	80.09	-0.50	1.60	 	 	 	 	 	 	 	 	 	 	 	 	 	 	 	 	 	 	1581511033	0.27	0.50
12/02/2020 12:37:14	120220	12022020	123714	80.09	12.418872	-57.245020	80.22	-0.310	0.170	1.340	80.07	-1.50	1.80	 	 	 	 	 	 	 	 	 	 	 	 	 	 	 	 	 	 	1581511034	1.04	1.93
12/02/2020 12:37:15	120220	12022020	123715	80.01	12.418870	-57.245017	80.15	-0.330	-0.470	1.430	80.01	-1.90	1.80	 	 	 	 	 	 	 	 	 	 	 	 	 	 	 	 	 	 	1581511035	0.92	1.70
12/02/2020 12:37:16	120220	12022020	123716	80.11	12.418868	-57.245017	80.28	-0.460	-0.480	1.280	80.15	-1.80	1.60	 	 	 	 	 	 	 	 	 	 	 	 	 	 	 	 	 	 	1581511036	0.23	0.43
12/02/2020 12:37:17	120220	12022020	123717	80.34	12.418868	-57.245020	80.49	-0.310	-0.390	1.070	80.38	-1.80	1.40	 	 	 	 	 	 	 	 	 	 	 	 	 	 	 	 	 	 	1581511037	0.69	1.28
12/02/2020 12:37:18	120220	12022020	123718	80.55	12.418868	-57.245022	80.72	0.200	-0.640	0.960	80.59	-2.20	1.30	 	 	 	 	 	 	 	 	 	 	 	 	 	 	 	 	 	 	1581511038	0.56	1.04
12/02/2020 12:37:19	120220	12022020	123719	80.71	12.418870	-57.245022	80.86	0.790	-1.190	0.930	80.72	-2.70	1.40	 	 	 	 	 	 	 	 	 	 	 	 	 	 	 	 	 	 	1581511039	0.26	0.48
12/02/2020 12:37:20	120220	12022020	123720	80.67	12.418872	-57.245018	80.78	1.020	-1.500	1.020	80.63	-2.80	1.50	 	 	 	 	 	 	 	 	 	 	 	 	 	 	 	 	 	 	1581511040	0.62	1.15
12/02/2020 12:37:21	120220	12022020	123721	80.46	12.418870	-57.245017	80.58	0.690	-1.080	1.240	80.41	-2.00	1.80	 	 	 	 	 	 	 	 	 	 	 	 	 	 	 	 	 	 	1581511041	0.56	1.04
12/02/2020 12:37:22	120220	12022020	123722	80.26	12.418868	-57.245017	80.39	-0.010	0.110	1.530	80.23	-0.70	2.00	 	 	 	 	 	 	 	 	 	 	 	 	 	 	 	 	 	 	1581511042	0.51	0.94
12/02/2020 12:37:23	120220	12022020	123723	80.17	12.418865	-57.245020	80.32	-0.660	1.360	1.710	80.17	0.30	2.10	 	 	 	 	 	 	 	 	 	 	 	 	 	 	 	 	 	 	1581511043	1.13	2.09
12/02/2020 12:37:24	120220	12022020	123724	80.16	12.418862	-57.245025	80.31	-0.920	1.820	1.680	80.17	0.30	2.00	 	 	 	 	 	 	 	 	 	 	 	 	 	 	 	 	 	 	1581511044	1.14	2.11
12/02/2020 12:37:25	120220	12022020	123725	80.22	12.418862	-57.245027	80.36	-0.700	1.150	1.280	80.24	-0.70	1.40	 	 	 	 	 	 	 	 	 	 	 	 	 	 	 	 	 	 	1581511045	0.38	0.70
12/02/2020 12:37:26	120220	12022020	123726	80.35	12.418865	-57.245025	80.50	-0.180	-0.150	0.570	80.39	-2.10	0.70	 	 	 	 	 	 	 	 	 	 	 	 	 	 	 	 	 	 	1581511046	0.79	1.46
12/02/2020 12:37:27	120220	12022020	123727	80.60	12.418870	-57.245022	80.76	0.280	-1.390	-0.050	80.66	-3.10	0.30	 	 	 	 	 	 	 	 	 	 	 	 	 	 	 	 	 	 	1581511047	1.33	2.46
12/02/2020 12:37:28	120220	12022020	123728	80.94	12.418873	-57.245020	81.10	0.480	-2.030	-0.090	81.00	-3.40	0.50	 	 	 	 	 	 	 	 	 	 	 	 	 	 	 	 	 	 	1581511048	0.97	1.80
12/02/2020 12:37:29	120220	12022020	123729	81.20	12.418873	-57.245018	81.34	0.500	-1.820	0.480	81.22	-2.80	1.20	 	 	 	 	 	 	 	 	 	 	 	 	 	 	 	 	 	 	1581511049	0.48	0.89
12/02/2020 12:37:30	120220	12022020	123730	81.16	12.418867	-57.245018	81.28	0.470	-0.840	1.350	81.12	-1.70	2.10	 	 	 	 	 	 	 	 	 	 	 	 	 	 	 	 	 	 	1581511050	1.17	2.17
12/02/2020 12:37:31	120220	12022020	123731	80.86	12.418862	-57.245020	80.96	0.340	0.430	2.070	80.77	-0.50	2.70	 	 	 	 	 	 	 	 	 	 	 	 	 	 	 	 	 	 	1581511051	1.47	2.72
12/02/2020 12:37:32	120220	12022020	123732	80.37	12.418855	-57.245023	80.44	0.040	1.320	2.510	80.26	0.10	3.00	 	 	 	 	 	 	 	 	 	 	 	 	 	 	 	 	 	 	1581511052	1.29	2.39
12/02/2020 12:37:33	120220	12022020	123733	79.86	12.418853	-57.245025	79.96	-0.370	1.340	2.520	79.79	-0.20	2.70	 	 	 	 	 	 	 	 	 	 	 	 	 	 	 	 	 	 	1581511053	0.67	1.24
12/02/2020 12:37:34	120220	12022020	123734	79.71	12.418855	-57.245025	79.86	-0.740	0.700	1.880	79.74	-1.00	1.90	 	 	 	 	 	 	 	 	 	 	 	 	 	 	 	 	 	 	1581511054	0.35	0.65
12/02/2020 12:37:35	120220	12022020	123735	80.03	12.418860	-57.245025	80.22	-0.860	-0.090	0.760	80.12	-1.80	0.70	 	 	 	 	 	 	 	 	 	 	 	 	 	 	 	 	 	 	1581511055	1.18	2.19
12/02/2020 12:37:36	120220	12022020	123736	80.44	12.418867	-57.245025	80.58	-0.600	-0.840	-0.170	80.50	-2.50	0.00	 	 	 	 	 	 	 	 	 	 	 	 	 	 	 	 	 	 	1581511056	1.31	2.43
12/02/2020 12:37:37	120220	12022020	123737	80.66	12.418870	-57.245023	80.77	-0.000	-1.530	-0.580	80.68	-3.10	-0.20	 	 	 	 	 	 	 	 	 	 	 	 	 	 	 	 	 	 	1581511057	0.71	1.31
12/02/2020 12:37:38	120220	12022020	123738	80.72	12.418870	-57.245022	80.81	0.690	-1.970	-0.500	80.70	-3.30	0.10	 	 	 	 	 	 	 	 	 	 	 	 	 	 	 	 	 	 	1581511058	0.56	1.04
12/02/2020 12:37:39	120220	12022020	123739	80.57	12.418867	-57.245018	80.66	1.140	-1.680	-0.020	80.52	-2.60	0.60	 	 	 	 	 	 	 	 	 	 	 	 	 	 	 	 	 	 	1581511059	0.91	1.69
12/02/2020 12:37:40	120220	12022020	123740	80.27	12.418863	-57.245017	80.34	1.010	-0.230	0.610	80.20	-0.70	1.30	 	 	 	 	 	 	 	 	 	 	 	 	 	 	 	 	 	 	1581511060	0.75	1.39
12/02/2020 12:37:41	120220	12022020	123741	79.92	12.418860	-57.245023	80.01	0.190	1.790	1.160	79.85	1.00	1.70	 	 	 	 	 	 	 	 	 	 	 	 	 	 	 	 	 	 	1581511061	1.28	2.37
12/02/2020 12:37:42	120220	12022020	123742	79.63	12.418858	-57.245030	79.73	-0.830	2.750	1.530	79.58	1.20	2.00	 	 	 	 	 	 	 	 	 	 	 	 	 	 	 	 	 	 	1581511062	1.77	3.28
12/02/2020 12:37:43	120220	12022020	123743	79.46	12.418857	-57.245033	79.59	-1.330	1.710	1.690	79.44	-0.60	2.10	 	 	 	 	 	 	 	 	 	 	 	 	 	 	 	 	 	 	1581511063	0.77	1.43
12/02/2020 12:37:44	120220	12022020	123744	79.42	12.418857	-57.245028	79.56	-0.950	-0.620	1.690	79.42	-2.90	2.10	 	 	 	 	 	 	 	 	 	 	 	 	 	 	 	 	 	 	1581511064	1.01	1.87
12/02/2020 12:37:45	120220	12022020	123745	79.44	12.418857	-57.245020	79.59	-0.000	-2.440	1.640	79.45	-4.10	2.00	 	 	 	 	 	 	 	 	 	 	 	 	 	 	 	 	 	 	1581511065	1.84	3.41
12/02/2020 12:37:46	120220	12022020	123746	79.52	12.418858	-57.245015	79.65	0.780	-2.600	1.570	79.54	-3.60	1.90	 	 	 	 	 	 	 	 	 	 	 	 	 	 	 	 	 	 	1581511066	1.06	1.96
12/02/2020 12:37:47	120220	12022020	123747	79.63	12.418857	-57.245017	79.77	0.970	-1.450	1.430	79.65	-2.20	1.80	 	 	 	 	 	 	 	 	 	 	 	 	 	 	 	 	 	 	1581511067	0.37	0.69
12/02/2020 12:37:48	120220	12022020	123748	79.72	12.418857	-57.245022	79.84	0.650	-0.210	1.300	79.72	-1.20	1.70	 	 	 	 	 	 	 	 	 	 	 	 	 	 	 	 	 	 	1581511068	1.00	1.85
12/02/2020 12:37:49	120220	12022020	123749	79.74	12.418855	-57.245025	79.88	0.120	0.510	1.420	79.74	-0.60	1.90	 	 	 	 	 	 	 	 	 	 	 	 	 	 	 	 	 	 	1581511069	0.57	1.06
12/02/2020 12:37:50	120220	12022020	123750	79.69	12.418852	-57.245023	79.82	-0.310	0.990	1.710	79.66	-0.20	2.10	 	 	 	 	 	 	 	 	 	 	 	 	 	 	 	 	 	 	1581511070	0.71	1.31
12/02/2020 12:37:51	120220	12022020	123751	79.49	12.418848	-57.245023	79.58	-0.550	1.370	1.690	79.43	0.10	1.90	 	 	 	 	 	 	 	 	 	 	 	 	 	 	 	 	 	 	1581511071	0.84	1.56
12/02/2020 12:37:52	120220	12022020	123752	79.12	12.418847	-57.245027	79.19	-0.620	1.340	1.270	79.12	0.00	1.80	 	 	 	 	 	 	 	 	 	 	 	 	 	 	 	 	 	 	1581511072	0.45	0.83
12/02/2020 12:37:53	120220	12022020	123753	78.73	12.418852	-57.245028	78.80	-0.540	0.620	0.700	78.67	-1.30	0.90	 	 	 	 	 	 	 	 	 	 	 	 	 	 	 	 	 	 	1581511073	0.88	1.63
12/02/2020 12:37:54	120220	12022020	123754	78.55	12.418857	-57.245028	78.66	-0.200	-0.810	0.100	78.55	-2.90	0.30	 	 	 	 	 	 	 	 	 	 	 	 	 	 	 	 	 	 	1581511074	1.39	2.57
12/02/2020 12:37:55	120220	12022020	123755	78.67	12.418865	-57.245025	78.80	0.360	-2.380	-0.490	78.72	-4.20	-0.30	 	 	 	 	 	 	 	 	 	 	 	 	 	 	 	 	 	 	1581511075	1.74	3.22
12/02/2020 12:37:56	120220	12022020	123756	79.05	12.418870	-57.245020	79.20	0.870	-3.010	-0.780	79.15	-4.10	-0.30	 	 	 	 	 	 	 	 	 	 	 	 	 	 	 	 	 	 	1581511076	1.68	3.11
12/02/2020 12:37:57	120220	12022020	123757	79.58	12.418870	-57.245017	79.74	0.940	-1.920	-0.320	79.67	-2.40	0.50	 	 	 	 	 	 	 	 	 	 	 	 	 	 	 	 	 	 	1581511077	0.59	1.09
12/02/2020 12:37:58	120220	12022020	123758	79.97	12.418863	-57.245020	80.12	0.450	0.280	0.850	80.01	-0.20	1.80	 	 	 	 	 	 	 	 	 	 	 	 	 	 	 	 	 	 	1581511078	1.62	3.00
12/02/2020 12:37:59	120220	12022020	123759	80.10	12.418853	-57.245025	80.25	-0.280	2.160	2.150	80.11	1.20	3.00	 	 	 	 	 	 	 	 	 	 	 	 	 	 	 	 	 	 	1581511079	2.75	5.09
12/02/2020 12:38:00	120220	12022020	123800	80.05	12.418843	-57.245030	80.19	-0.760	2.590	2.980	80.02	0.90	3.50	 	 	 	 	 	 	 	 	 	 	 	 	 	 	 	 	 	 	1581511080	2.27	4.20
12/02/2020 12:38:01	120220	12022020	123801	79.79	12.418838	-57.245028	79.89	-0.740	1.430	3.210	79.71	-0.70	3.60	 	 	 	 	 	 	 	 	 	 	 	 	 	 	 	 	 	 	1581511081	1.03	1.91
12/02/2020 12:38:02	120220	12022020	123802	79.29	12.418838	-57.245023	79.38	-0.390	-0.450	3.060	79.18	-2.50	3.30	1016.90	26.30	26.30	21.00	21.10	103.0	72.0	72.0	439.0	26.9	359.00	10.00	78.00	9.50	11810	10354.0	27.5	27.5	1581511082	1.16	2.15
12/02/2020 12:38:03	120220	12022020	123803	78.87	12.418842	-57.245017	78.99	-0.020	-1.760	2.540	78.84	-3.30	2.60	 	 	 	 	 	 	 	 	 	 	 	 	 	 	 	 	 	 	1581511083	1.51	2.80
12/02/2020 12:38:04	120220	12022020	123804	78.93	12.418848	-57.245015	79.10	0.170	-1.900	1.650	79.01	-3.00	1.60	 	 	 	 	 	 	 	 	 	 	 	 	 	 	 	 	 	 	1581511084	1.39	2.57
12/02/2020 12:38:05	120220	12022020	123805	79.38	12.418855	-57.245018	79.55	0.200	-1.270	0.560	79.49	-2.30	0.50	 	 	 	 	 	 	 	 	 	 	 	 	 	 	 	 	 	 	1581511085	1.57	2.91
12/02/2020 12:38:06	120220	12022020	123806	79.88	12.418860	-57.245023	80.01	0.190	-0.500	-0.370	79.96	-1.60	-0.20	 	 	 	 	 	 	 	 	 	 	 	 	 	 	 	 	 	 	1581511086	1.50	2.78
12/02/2020 12:38:07	120220	12022020	123807	80.24	12.418863	-57.245025	80.33	0.230	-0.020	-0.790	80.28	-1.30	-0.40	 	 	 	 	 	 	 	 	 	 	 	 	 	 	 	 	 	 	1581511087	0.87	1.61
12/02/2020 12:38:08	120220	12022020	123808	80.35	12.418863	-57.245025	80.42	0.330	0.100	-0.560	80.33	-1.20	0.10	 	 	 	 	 	 	 	 	 	 	 	 	 	 	 	 	 	 	1581511088	0.12	0.22
12/02/2020 12:38:09	120220	12022020	123809	80.17	12.418860	-57.245023	80.24	0.390	0.200	0.300	80.11	-1.10	1.20	 	 	 	 	 	 	 	 	 	 	 	 	 	 	 	 	 	 	1581511089	0.90	1.67
12/02/2020 12:38:10	120220	12022020	123810	79.82	12.418855	-57.245022	79.89	0.210	0.430	1.510	79.74	-0.90	2.40	 	 	 	 	 	 	 	 	 	 	 	 	 	 	 	 	 	 	1581511090	1.29	2.39
12/02/2020 12:38:11	120220	12022020	123811	79.47	12.418848	-57.245020	79.58	-0.130	0.390	2.490	79.42	-1.10	3.10	 	 	 	 	 	 	 	 	 	 	 	 	 	 	 	 	 	 	1581511091	1.36	2.52
12/02/2020 12:38:12	120220	12022020	123812	79.24	12.418845	-57.245018	79.38	-0.430	0.060	2.850	79.22	-1.40	3.20	 	 	 	 	 	 	 	 	 	 	 	 	 	 	 	 	 	 	1581511092	0.83	1.54
12/02/2020 12:38:13	120220	12022020	123813	79.22	12.418845	-57.245018	79.38	-0.600	-0.030	2.640	79.26	-1.30	2.80	 	 	 	 	 	 	 	 	 	 	 	 	 	 	 	 	 	 	1581511093	0.20	0.37
12/02/2020 12:38:14	120220	12022020	123814	79.44	12.418847	-57.245020	79.60	-0.600	0.040	2.130	79.49	-1.40	2.30	 	 	 	 	 	 	 	 	 	 	 	 	 	 	 	 	 	 	1581511094	0.65	1.20
12/02/2020 12:38:15	120220	12022020	123815	79.71	12.418850	-57.245022	79.86	-0.350	-0.310	1.590	79.74	-2.00	1.80	 	 	 	 	 	 	 	 	 	 	 	 	 	 	 	 	 	 	1581511095	0.75	1.39
12/02/2020 12:38:16	120220	12022020	123816	79.86	12.418852	-57.245022	79.99	0.100	-1.050	1.170	79.88	-2.70	1.40	 	 	 	 	 	 	 	 	 	 	 	 	 	 	 	 	 	 	1581511096	0.50	0.93
12/02/2020 12:38:17	120220	12022020	123817	79.92	12.418853	-57.245018	80.04	0.540	-1.430	0.770	79.92	-2.70	1.00	 	 	 	 	 	 	 	 	 	 	 	 	 	 	 	 	 	 	1581511097	0.79	1.46
12/02/2020 12:38:18	120220	12022020	123818	79.89	12.418855	-57.245017	79.99	0.710	-1.010	0.500	79.87	-2.00	0.90	 	 	 	 	 	 	 	 	 	 	 	 	 	 	 	 	 	 	1581511098	0.44	0.81
12/02/2020 12:38:19	120220	12022020	123819	79.73	12.418855	-57.245017	79.82	0.580	-0.170	0.460	79.68	-1.20	0.90	 	 	 	 	 	 	 	 	 	 	 	 	 	 	 	 	 	 	1581511099	0.34	0.63
12/02/2020 12:38:20	120220	12022020	123820	79.46	12.418855	-57.245020	79.55	0.270	0.530	0.560	79.42	-0.60	1.00	 	 	 	 	 	 	 	 	 	 	 	 	 	 	 	 	 	 	1581511100	0.53	0.98
12/02/2020 12:38:21	120220	12022020	123821	79.26	12.418857	-57.245022	79.36	-0.140	0.920	0.650	79.24	-0.40	1.10	 	 	 	 	 	 	 	 	 	 	 	 	 	 	 	 	 	 	1581511101	0.37	0.69
12/02/2020 12:38:22	120220	12022020	123822	79.32	12.418857	-57.245023	79.47	-0.530	0.970	0.670	79.37	-0.50	1.00	 	 	 	 	 	 	 	 	 	 	 	 	 	 	 	 	 	 	1581511102	0.32	0.59
12/02/2020 12:38:23	120220	12022020	123823	79.68	12.418858	-57.245023	79.86	-0.770	0.530	0.560	79.77	-1.20	0.90	 	 	 	 	 	 	 	 	 	 	 	 	 	 	 	 	 	 	1581511103	0.27	0.50
12/02/2020 12:38:24	120220	12022020	123824	80.11	12.418857	-57.245023	80.27	-0.690	-0.350	0.570	80.17	-2.10	1.10	 	 	 	 	 	 	 	 	 	 	 	 	 	 	 	 	 	 	1581511104	0.17	0.31
12/02/2020 12:38:25	120220	12022020	123825	80.24	12.418855	-57.245020	80.35	-0.260	-1.220	1.020	80.21	-2.80	1.70	 	 	 	 	 	 	 	 	 	 	 	 	 	 	 	 	 	 	1581511105	0.87	1.61
12/02/2020 12:38:26	120220	12022020	123826	80.00	12.418850	-57.245017	80.11	0.340	-1.640	1.800	79.94	-2.90	2.50	 	 	 	 	 	 	 	 	 	 	 	 	 	 	 	 	 	 	1581511106	1.32	2.44
12/02/2020 12:38:27	120220	12022020	123827	79.70	12.418847	-57.245013	79.82	0.710	-1.280	2.400	79.66	-2.30	2.90	 	 	 	 	 	 	 	 	 	 	 	 	 	 	 	 	 	 	1581511107	1.00	1.85
12/02/2020 12:38:28	120220	12022020	123828	79.63	12.418845	-57.245015	79.79	0.550	-0.250	2.380	79.66	-1.20	2.60	 	 	 	 	 	 	 	 	 	 	 	 	 	 	 	 	 	 	1581511108	0.38	0.70
12/02/2020 12:38:29	120220	12022020	123829	79.87	12.418847	-57.245020	80.05	0.100	0.710	1.770	79.94	-0.50	1.80	 	 	 	 	 	 	 	 	 	 	 	 	 	 	 	 	 	 	1581511109	1.13	2.09
12/02/2020 12:38:30	120220	12022020	123830	80.25	12.418852	-57.245023	80.42	-0.180	0.860	1.000	80.33	-0.70	1.10	 	 	 	 	 	 	 	 	 	 	 	 	 	 	 	 	 	 	1581511110	1.17	2.17
12/02/2020 12:38:31	120220	12022020	123831	80.61	12.418853	-57.245023	80.74	-0.170	0.410	0.460	80.66	-1.10	0.70	 	 	 	 	 	 	 	 	 	 	 	 	 	 	 	 	 	 	1581511111	0.61	1.13
12/02/2020 12:38:32	120220	12022020	123832	80.72	12.418853	-57.245022	80.82	-0.130	0.080	0.290	80.71	-1.30	0.70	 	 	 	 	 	 	 	 	 	 	 	 	 	 	 	 	 	 	1581511112	0.50	0.93
12/02/2020 12:38:33	120220	12022020	123833	80.52	12.418853	-57.245022	80.58	-0.330	0.070	0.330	80.46	-1.30	0.70	 	 	 	 	 	 	 	 	 	 	 	 	 	 	 	 	 	 	1581511113	0.21	0.39
12/02/2020 12:38:34	120220	12022020	123834	80.27	12.418853	-57.245023	80.31	-0.570	-0.060	0.340	80.24	-1.60	0.70	 	 	 	 	 	 	 	 	 	 	 	 	 	 	 	 	 	 	1581511114	0.44	0.81
12/02/2020 12:38:35	120220	12022020	123835	80.23	12.418855	-57.245025	80.33	-0.470	-0.760	0.220	80.26	-2.50	0.60	 	 	 	 	 	 	 	 	 	 	 	 	 	 	 	 	 	 	1581511115	0.44	0.81
12/02/2020 12:38:36	120220	12022020	123836	80.47	12.418857	-57.245022	80.61	0.130	-1.600	0.110	80.54	-3.10	0.50	 	 	 	 	 	 	 	 	 	 	 	 	 	 	 	 	 	 	1581511116	0.76	1.41
12/02/2020 12:38:37	120220	12022020	123837	80.80	12.418858	-57.245018	80.95	0.800	-1.560	0.260	80.86	-2.60	0.80	 	 	 	 	 	 	 	 	 	 	 	 	 	 	 	 	 	 	1581511117	0.80	1.48
12/02/2020 12:38:38	120220	12022020	123838	81.04	12.418857	-57.245018	81.18	0.950	-0.470	0.670	81.07	-1.30	1.30	 	 	 	 	 	 	 	 	 	 	 	 	 	 	 	 	 	 	1581511118	0.40	0.74
12/02/2020 12:38:39	120220	12022020	123839	81.05	12.418852	-57.245022	81.16	0.450	0.800	1.300	81.01	-0.20	2.00	 	 	 	 	 	 	 	 	 	 	 	 	 	 	 	 	 	 	1581511119	1.23	2.28
12/02/2020 12:38:40	120220	12022020	123840	80.71	12.418847	-57.245025	80.79	-0.270	1.310	1.990	80.61	-0.20	2.60	 	 	 	 	 	 	 	 	 	 	 	 	 	 	 	 	 	 	1581511120	1.38	2.56
12/02/2020 12:38:41	120220	12022020	123841	80.21	12.418843	-57.245025	80.32	-0.640	0.720	2.380	80.15	-1.10	2.70	 	 	 	 	 	 	 	 	 	 	 	 	 	 	 	 	 	 	1581511121	0.82	1.52
12/02/2020 12:38:42	120220	12022020	123842	80.05	12.418843	-57.245022	80.22	-0.500	-0.180	2.100	80.07	-1.80	2.20	 	 	 	 	 	 	 	 	 	 	 	 	 	 	 	 	 	 	1581511122	0.77	1.43
12/02/2020 12:38:43	120220	12022020	123843	80.31	12.418848	-57.245020	80.52	-0.260	-0.450	1.400	80.40	-1.70	1.50	 	 	 	 	 	 	 	 	 	 	 	 	 	 	 	 	 	 	1581511123	1.10	2.04
12/02/2020 12:38:44	120220	12022020	123844	80.77	12.418853	-57.245023	80.94	-0.230	-0.060	0.730	80.85	-1.30	0.90	 	 	 	 	 	 	 	 	 	 	 	 	 	 	 	 	 	 	1581511124	1.26	2.33
12/02/2020 12:38:45	120220	12022020	123845	81.10	12.418857	-57.245028	81.22	-0.290	0.100	0.360	81.13	-1.40	0.70	 	 	 	 	 	 	 	 	 	 	 	 	 	 	 	 	 	 	1581511125	1.25	2.31
12/02/2020 12:38:46	120220	12022020	123846	81.19	12.418855	-57.245030	81.29	-0.140	-0.520	0.340	81.18	-2.30	0.80	 	 	 	 	 	 	 	 	 	 	 	 	 	 	 	 	 	 	1581511126	0.45	0.83
12/02/2020 12:38:47	120220	12022020	123847	81.02	12.418853	-57.245027	81.07	0.230	-1.340	0.700	80.95	-2.90	1.30	 	 	 	 	 	 	 	 	 	 	 	 	 	 	 	 	 	 	1581511127	0.87	1.61
12/02/2020 12:38:48	120220	12022020	123848	80.61	12.418848	-57.245023	80.67	0.570	-1.600	1.320	80.52	-2.80	2.00	 	 	 	 	 	 	 	 	 	 	 	 	 	 	 	 	 	 	1581511128	1.26	2.33
12/02/2020 12:38:49	120220	12022020	123849	80.19	12.418845	-57.245022	80.25	0.710	-1.120	1.850	80.12	-2.10	2.30	 	 	 	 	 	 	 	 	 	 	 	 	 	 	 	 	 	 	1581511129	0.85	1.57
12/02/2020 12:38:50	120220	12022020	123850	80.00	12.418845	-57.245022	80.10	0.610	-0.200	1.760	80.00	-1.20	1.90	 	 	 	 	 	 	 	 	 	 	 	 	 	 	 	 	 	 	1581511130	0.25	0.46
12/02/2020 12:38:51	120220	12022020	123851	80.09	12.418847	-57.245025	80.20	0.340	0.760	1.160	80.13	-0.30	1.30	 	 	 	 	 	 	 	 	 	 	 	 	 	 	 	 	 	 	1581511131	0.90	1.67
12/02/2020 12:38:52	120220	12022020	123852	80.33	12.418852	-57.245028	80.45	-0.110	1.450	0.550	80.40	0.20	0.80	 	 	 	 	 	 	 	 	 	 	 	 	 	 	 	 	 	 	1581511132	1.28	2.37
12/02/2020 12:38:53	120220	12022020	123853	80.71	12.418855	-57.245032	80.85	-0.640	1.540	0.200	80.78	-0.00	0.60	 	 	 	 	 	 	 	 	 	 	 	 	 	 	 	 	 	 	1581511133	0.96	1.78
12/02/2020 12:38:54	120220	12022020	123854	81.04	12.418855	-57.245033	81.16	-1.020	0.910	0.250	81.07	-0.90	0.80	 	 	 	 	 	 	 	 	 	 	 	 	 	 	 	 	 	 	1581511134	0.34	0.63
12/02/2020 12:38:55	120220	12022020	123855	81.09	12.418853	-57.245033	81.17	-1.020	-0.210	0.580	81.06	-2.10	1.20	 	 	 	 	 	 	 	 	 	 	 	 	 	 	 	 	 	 	1581511135	0.54	1.00
12/02/2020 12:38:56	120220	12022020	123856	80.91	12.418848	-57.245030	81.00	-0.570	-1.320	1.010	80.87	-3.00	1.60	 	 	 	 	 	 	 	 	 	 	 	 	 	 	 	 	 	 	1581511136	0.92	1.70
12/02/2020 12:38:57	120220	12022020	123857	80.72	12.418845	-57.245028	80.82	0.220	-1.980	1.480	80.68	-3.40	2.10	 	 	 	 	 	 	 	 	 	 	 	 	 	 	 	 	 	 	1581511137	0.88	1.63
12/02/2020 12:38:58	120220	12022020	123858	80.55	12.418843	-57.245027	80.66	1.000	-2.030	2.050	80.52	-3.30	2.70	 	 	 	 	 	 	 	 	 	 	 	 	 	 	 	 	 	 	1581511138	0.61	1.13
12/02/2020 12:38:59	120220	12022020	123859	80.40	12.418842	-57.245025	80.52	1.320	-1.560	2.510	80.38	-2.60	3.00	 	 	 	 	 	 	 	 	 	 	 	 	 	 	 	 	 	 	1581511139	0.49	0.91
12/02/2020 12:39:00	120220	12022020	123900	80.33	12.418840	-57.245025	80.46	0.970	-0.430	2.520	80.34	-1.20	2.80	 	 	 	 	 	 	 	 	 	 	 	 	 	 	 	 	 	 	1581511140	0.27	0.50
12/02/2020 12:39:01	120220	12022020	123901	80.44	12.418842	-57.245028	80.59	0.130	1.150	1.960	80.49	0.30	2.00	 	 	 	 	 	 	 	 	 	 	 	 	 	 	 	 	 	 	1581511141	0.76	1.41
12/02/2020 12:39:02	120220	12022020	123902	80.82	12.418843	-57.245035	80.99	-0.710	2.290	1.050	80.93	1.00	1.10	1016.90	26.30	26.30	21.10	21.20	120.0	73.0	73.0	441.0	26.8	350.00	11.10	70.00	10.70	12580	6913.0	27.5	27.5	1581511142	1.57	2.91
12/02/2020 12:39:03	120220	12022020	123903	81.38	12.418848	-57.245040	81.54	-1.050	2.160	0.130	81.49	0.30	0.20	 	 	 	 	 	 	 	 	 	 	 	 	 	 	 	 	 	 	1581511143	1.47	2.72
12/02/2020 12:39:04	120220	12022020	123904	81.79	12.418852	-57.245042	81.90	-0.780	0.730	-0.470	81.83	-1.40	-0.10	 	 	 	 	 	 	 	 	 	 	 	 	 	 	 	 	 	 	1581511144	0.82	1.52
12/02/2020 12:39:05	120220	12022020	123905	81.75	12.418853	-57.245037	81.81	-0.210	-1.190	-0.460	81.68	-3.20	0.10	 	 	 	 	 	 	 	 	 	 	 	 	 	 	 	 	 	 	1581511145	1.02	1.89
12/02/2020 12:39:06	120220	12022020	123906	81.30	12.418852	-57.245030	81.35	0.260	-2.470	0.180	81.19	-4.00	1.00	 	 	 	 	 	 	 	 	 	 	 	 	 	 	 	 	 	 	1581511146	1.41	2.61
12/02/2020 12:39:07	120220	12022020	123907	80.87	12.418847	-57.245027	80.97	0.470	-2.370	1.100	80.82	-3.30	1.80	 	 	 	 	 	 	 	 	 	 	 	 	 	 	 	 	 	 	1581511147	1.23	2.28
12/02/2020 12:39:08	120220	12022020	123908	80.68	12.418842	-57.245028	80.81	0.450	-1.100	1.760	80.67	-1.80	2.30	 	 	 	 	 	 	 	 	 	 	 	 	 	 	 	 	 	 	1581511148	1.11	2.06
12/02/2020 12:39:09	120220	12022020	123909	80.65	12.418840	-57.245033	80.79	0.210	0.490	1.850	80.66	-0.40	2.10	 	 	 	 	 	 	 	 	 	 	 	 	 	 	 	 	 	 	1581511149	1.28	2.37
12/02/2020 12:39:10	120220	12022020	123910	80.80	12.418842	-57.245040	80.97	-0.100	1.360	1.400	80.87	-0.00	1.50	 	 	 	 	 	 	 	 	 	 	 	 	 	 	 	 	 	 	1581511150	1.32	2.44
12/02/2020 12:39:11	120220	12022020	123911	81.22	12.418843	-57.245042	81.41	-0.250	1.110	0.770	81.33	-0.60	0.90	 	 	 	 	 	 	 	 	 	 	 	 	 	 	 	 	 	 	1581511151	0.85	1.57
12/02/2020 12:39:12	120220	12022020	123912	81.78	12.418847	-57.245040	81.95	-0.160	0.180	0.250	81.89	-1.60	0.60	 	 	 	 	 	 	 	 	 	 	 	 	 	 	 	 	 	 	1581511152	0.82	1.52
12/02/2020 12:39:13	120220	12022020	123913	82.18	12.418850	-57.245037	82.29	0.080	-0.710	0.200	82.19	-2.30	0.80	 	 	 	 	 	 	 	 	 	 	 	 	 	 	 	 	 	 	1581511153	0.88	1.63
12/02/2020 12:39:14	120220	12022020	123914	81.98	12.418848	-57.245033	82.03	0.270	-1.040	0.860	81.87	-2.40	1.60	 	 	 	 	 	 	 	 	 	 	 	 	 	 	 	 	 	 	1581511154	0.70	1.30
12/02/2020 12:39:15	120220	12022020	123915	81.32	12.418843	-57.245033	81.37	0.310	-0.820	1.790	81.18	-2.00	2.50	 	 	 	 	 	 	 	 	 	 	 	 	 	 	 	 	 	 	1581511155	1.04	1.93
12/02/2020 12:39:16	120220	12022020	123916	80.75	12.418838	-57.245033	80.86	0.220	-0.340	2.420	80.68	-1.50	2.90	 	 	 	 	 	 	 	 	 	 	 	 	 	 	 	 	 	 	1581511156	1.11	2.06
12/02/2020 12:39:17	120220	12022020	123917	80.56	12.418835	-57.245035	80.72	0.070	0.050	2.530	80.58	-1.20	2.80	 	 	 	 	 	 	 	 	 	 	 	 	 	 	 	 	 	 	1581511157	0.70	1.30
12/02/2020 12:39:18	120220	12022020	123918	80.68	12.418835	-57.245035	80.84	-0.090	0.200	2.110	80.71	-1.20	2.30	 	 	 	 	 	 	 	 	 	 	 	 	 	 	 	 	 	 	1581511158	0.18	0.33
12/02/2020 12:39:19	120220	12022020	123919	80.78	12.418838	-57.245037	80.90	-0.200	0.110	1.410	80.80	-1.40	1.50	 	 	 	 	 	 	 	 	 	 	 	 	 	 	 	 	 	 	1581511159	0.77	1.43
12/02/2020 12:39:20	120220	12022020	123920	80.94	12.418845	-57.245037	81.06	-0.210	-0.110	0.580	80.94	-1.40	1.20	 	 	 	 	 	 	 	 	 	 	 	 	 	 	 	 	 	 	1581511160	1.25	2.31
12/02/2020 12:39:21	120220	12022020	123921	81.27	12.418850	-57.245037	81.38	-0.150	-0.210	-0.180	81.34	-1.60	0.10	 	 	 	 	 	 	 	 	 	 	 	 	 	 	 	 	 	 	1581511161	1.25	2.31
12/02/2020 12:39:22	120220	12022020	123922	81.54	12.418853	-57.245037	81.61	-0.110	-0.100	-0.390	81.56	-1.40	0.20	 	 	 	 	 	 	 	 	 	 	 	 	 	 	 	 	 	 	1581511162	0.65	1.20
12/02/2020 12:39:23	120220	12022020	123923	81.51	12.418852	-57.245038	81.55	-0.060	0.020	0.110	81.47	-1.40	0.90	 	 	 	 	 	 	 	 	 	 	 	 	 	 	 	 	 	 	1581511163	0.48	0.89
12/02/2020 12:39:24	120220	12022020	123924	81.21	12.418847	-57.245038	81.24	0.060	-0.160	0.960	81.13	-1.70	1.70	 	 	 	 	 	 	 	 	 	 	 	 	 	 	 	 	 	 	1581511164	1.14	2.11
12/02/2020 12:39:25	120220	12022020	123925	80.84	12.418840	-57.245037	80.89	0.300	-0.750	1.700	80.78	-2.40	2.30	 	 	 	 	 	 	 	 	 	 	 	 	 	 	 	 	 	 	1581511165	1.17	2.17
12/02/2020 12:39:26	120220	12022020	123926	80.52	12.418838	-57.245033	80.60	0.500	-1.290	2.200	80.47	-2.70	2.80	 	 	 	 	 	 	 	 	 	 	 	 	 	 	 	 	 	 	1581511166	1.13	2.09
12/02/2020 12:39:27	120220	12022020	123927	80.27	12.418837	-57.245028	80.36	0.430	-0.980	2.460	80.24	-2.00	2.90	 	 	 	 	 	 	 	 	 	 	 	 	 	 	 	 	 	 	1581511167	0.82	1.52
12/02/2020 12:39:28	120220	12022020	123928	80.20	12.418837	-57.245030	80.31	0.060	0.130	2.350	80.21	-0.80	2.60	 	 	 	 	 	 	 	 	 	 	 	 	 	 	 	 	 	 	1581511168	0.26	0.48
12/02/2020 12:39:29	120220	12022020	123929	80.37	12.418837	-57.245035	80.51	-0.310	1.090	1.800	80.43	-0.20	1.90	 	 	 	 	 	 	 	 	 	 	 	 	 	 	 	 	 	 	1581511169	1.13	2.09
12/02/2020 12:39:30	120220	12022020	123930	80.71	12.418842	-57.245040	80.86	-0.410	1.110	0.970	80.78	-0.50	1.00	 	 	 	 	 	 	 	 	 	 	 	 	 	 	 	 	 	 	1581511170	1.16	2.15
12/02/2020 12:39:31	120220	12022020	123931	81.05	12.418845	-57.245040	81.17	-0.260	0.390	0.200	81.10	-1.40	0.40	 	 	 	 	 	 	 	 	 	 	 	 	 	 	 	 	 	 	1581511171	0.99	1.83
12/02/2020 12:39:32	120220	12022020	123932	81.15	12.418848	-57.245037	81.23	-0.100	-0.420	-0.090	81.15	-1.60	0.30	 	 	 	 	 	 	 	 	 	 	 	 	 	 	 	 	 	 	1581511172	0.86	1.59
12/02/2020 12:39:33	120220	12022020	123933	80.92	12.418850	-57.245035	80.96	-0.080	-0.800	0.220	80.85	-2.20	0.90	 	 	 	 	 	 	 	 	 	 	 	 	 	 	 	 	 	 	1581511173	0.41	0.76
12/02/2020 12:39:34	120220	12022020	123934	80.64	12.418847	-57.245035	80.71	-0.110	-0.830	0.780	80.61	-2.20	1.40	 	 	 	 	 	 	 	 	 	 	 	 	 	 	 	 	 	 	1581511174	0.51	0.94
12/02/2020 12:39:35	120220	12022020	123935	80.58	12.418843	-57.245035	80.68	0.010	-0.810	1.210	80.59	-2.20	1.80	 	 	 	 	 	 	 	 	 	 	 	 	 	 	 	 	 	 	1581511175	0.66	1.22
12/02/2020 12:39:36	120220	12022020	123936	80.58	12.418842	-57.245035	80.68	0.290	-0.860	1.570	80.56	-2.20	2.10	 	 	 	 	 	 	 	 	 	 	 	 	 	 	 	 	 	 	1581511176	0.64	1.19
12/02/2020 12:39:37	120220	12022020	123937	80.40	12.418838	-57.245032	80.49	0.500	-0.770	1.980	80.35	-2.00	2.50	 	 	 	 	 	 	 	 	 	 	 	 	 	 	 	 	 	 	1581511177	0.77	1.43
12/02/2020 12:39:38	120220	12022020	123938	80.12	12.418837	-57.245030	80.22	0.430	-0.210	2.210	80.09	-1.20	2.60	 	 	 	 	 	 	 	 	 	 	 	 	 	 	 	 	 	 	1581511178	0.55	1.02
12/02/2020 12:39:39	120220	12022020	123939	80.07	12.418837	-57.245032	80.21	0.060	0.690	1.920	80.11	-0.40	2.10	 	 	 	 	 	 	 	 	 	 	 	 	 	 	 	 	 	 	1581511179	0.34	0.63
12/02/2020 12:39:40	120220	12022020	123940	80.37	12.418840	-57.245037	80.54	-0.380	1.270	1.220	80.46	-0.10	1.30	 	 	 	 	 	 	 	 	 	 	 	 	 	 	 	 	 	 	1581511180	1.14	2.11
12/02/2020 12:39:41	120220	12022020	123941	80.80	12.418845	-57.245040	80.95	-0.610	0.940	0.530	80.88	-0.80	0.70	 	 	 	 	 	 	 	 	 	 	 	 	 	 	 	 	 	 	1581511181	1.17	2.17
12/02/2020 12:39:42	120220	12022020	123942	81.09	12.418848	-57.245038	81.19	-0.490	-0.170	0.120	81.12	-2.00	0.50	 	 	 	 	 	 	 	 	 	 	 	 	 	 	 	 	 	 	1581511182	0.72	1.33
12/02/2020 12:39:43	120220	12022020	123943	81.16	12.418848	-57.245033	81.23	-0.170	-1.160	0.190	81.14	-2.70	0.80	 	 	 	 	 	 	 	 	 	 	 	 	 	 	 	 	 	 	1581511183	0.92	1.70
12/02/2020 12:39:44	120220	12022020	123944	80.91	12.418845	-57.245032	80.96	0.060	-1.220	0.880	80.82	-2.30	1.70	 	 	 	 	 	 	 	 	 	 	 	 	 	 	 	 	 	 	1581511184	0.91	1.69
12/02/2020 12:39:45	120220	12022020	123945	80.35	12.418840	-57.245032	80.39	0.090	-0.530	1.840	80.23	-1.60	2.50	 	 	 	 	 	 	 	 	 	 	 	 	 	 	 	 	 	 	1581511185	1.32	2.44
12/02/2020 12:39:46	120220	12022020	123946	79.79	12.418835	-57.245035	79.87	0.010	0.080	2.260	79.71	-1.20	2.50	 	 	 	 	 	 	 	 	 	 	 	 	 	 	 	 	 	 	1581511186	1.22	2.26
12/02/2020 12:39:47	120220	12022020	123947	79.62	12.418835	-57.245037	79.78	0.020	0.010	1.770	79.66	-1.60	1.80	 	 	 	 	 	 	 	 	 	 	 	 	 	 	 	 	 	 	1581511187	0.44	0.81
12/02/2020 12:39:48	120220	12022020	123948	79.98	12.418842	-57.245035	80.17	0.150	-0.580	0.860	80.09	-2.20	0.90	 	 	 	 	 	 	 	 	 	 	 	 	 	 	 	 	 	 	1581511188	1.40	2.59
12/02/2020 12:39:49	120220	12022020	123949	80.55	12.418848	-57.245032	80.74	0.280	-1.010	0.240	80.66	-2.40	0.50	 	 	 	 	 	 	 	 	 	 	 	 	 	 	 	 	 	 	1581511189	1.53	2.83
12/02/2020 12:39:50	120220	12022020	123950	80.98	12.418850	-57.245030	81.13	0.300	-0.680	0.110	81.03	-1.70	0.60	 	 	 	 	 	 	 	 	 	 	 	 	 	 	 	 	 	 	1581511190	0.66	1.22
12/02/2020 12:39:51	120220	12022020	123951	81.01	12.418848	-57.245030	81.09	0.250	0.190	0.370	80.96	-0.80	1.00	 	 	 	 	 	 	 	 	 	 	 	 	 	 	 	 	 	 	1581511191	0.49	0.91
12/02/2020 12:39:52	120220	12022020	123952	80.62	12.418845	-57.245033	80.68	0.080	0.980	0.870	80.52	-0.20	1.50	 	 	 	 	 	 	 	 	 	 	 	 	 	 	 	 	 	 	1581511192	0.84	1.56
12/02/2020 12:39:53	120220	12022020	123953	80.20	12.418843	-57.245035	80.28	-0.310	1.330	1.400	80.13	-0.10	2.00	 	 	 	 	 	 	 	 	 	 	 	 	 	 	 	 	 	 	1581511193	0.70	1.30
12/02/2020 12:39:54	120220	12022020	123954	80.01	12.418842	-57.245037	80.15	-0.790	0.970	1.780	80.01	-0.80	2.30	 	 	 	 	 	 	 	 	 	 	 	 	 	 	 	 	 	 	1581511194	0.49	0.91
12/02/2020 12:39:55	120220	12022020	123955	80.06	12.418840	-57.245037	80.23	-0.970	-0.190	2.060	80.09	-2.20	2.50	 	 	 	 	 	 	 	 	 	 	 	 	 	 	 	 	 	 	1581511195	0.32	0.59
12/02/2020 12:39:56	120220	12022020	123956	80.25	12.418838	-57.245032	80.43	-0.580	-1.590	2.150	80.29	-3.40	2.50	 	 	 	 	 	 	 	 	 	 	 	 	 	 	 	 	 	 	1581511196	0.94	1.74
12/02/2020 12:39:57	120220	12022020	123957	80.43	12.418838	-57.245027	80.56	0.210	-2.260	2.000	80.44	-3.60	2.30	 	 	 	 	 	 	 	 	 	 	 	 	 	 	 	 	 	 	1581511197	1.08	2.00
12/02/2020 12:39:58	120220	12022020	123958	80.42	12.418838	-57.245025	80.51	0.920	-1.810	1.730	80.40	-2.80	2.00	 	 	 	 	 	 	 	 	 	 	 	 	 	 	 	 	 	 	1581511198	0.44	0.81
12/02/2020 12:39:59	120220	12022020	123959	80.28	12.418840	-57.245027	80.34	1.200	-0.690	1.550	80.24	-1.60	1.90	 	 	 	 	 	 	 	 	 	 	 	 	 	 	 	 	 	 	1581511199	0.43	0.80
12/02/2020 12:40:00	120220	12022020	124000	80.12	12.418842	-57.245030	80.20	0.930	0.450	1.440	80.11	-0.60	1.70	 	 	 	 	 	 	 	 	 	 	 	 	 	 	 	 	 	 	1581511200	0.72	1.33
12/02/2020 12:40:01	120220	12022020	124001	80.23	12.418843	-57.245033	80.34	0.220	1.240	1.040	80.29	0.10	1.20	 	 	 	 	 	 	 	 	 	 	 	 	 	 	 	 	 	 	1581511201	0.79	1.46
12/02/2020 12:40:02	120220	12022020	124002	80.62	12.418847	-57.245035	80.73	-0.650	1.600	0.380	80.70	0.20	0.60	1016.90	26.10	26.20	20.90	20.90	160.0	72.0	73.0	439.0	26.6	348.00	11.00	69.00	10.60	15364	8000.0	27.6	27.5	1581511202	0.92	1.70
12/02/2020 12:40:03	120220	12022020	124003	80.87	12.418848	-57.245038	80.95	-1.220	1.370	0.160	80.87	-0.40	0.70	 	 	 	 	 	 	 	 	 	 	 	 	 	 	 	 	 	 	1581511203	0.57	1.06
12/02/2020 12:40:04	120220	12022020	124004	80.67	12.418847	-57.245037	80.70	-1.140	0.290	0.620	80.59	-1.70	1.30	 	 	 	 	 	 	 	 	 	 	 	 	 	 	 	 	 	 	1581511204	0.58	1.07
12/02/2020 12:40:05	120220	12022020	124005	80.28	12.418842	-57.245033	80.33	-0.500	-1.360	1.210	80.21	-3.30	1.80	 	 	 	 	 	 	 	 	 	 	 	 	 	 	 	 	 	 	1581511205	1.35	2.50
12/02/2020 12:40:06	120220	12022020	124006	80.09	12.418840	-57.245025	80.20	0.230	-2.490	1.480	80.09	-3.90	1.90	 	 	 	 	 	 	 	 	 	 	 	 	 	 	 	 	 	 	1581511206	1.51	2.80
12/02/2020 12:40:07	120220	12022020	124007	80.24	12.418840	-57.245022	80.40	0.580	-2.110	1.410	80.31	-2.90	1.70	 	 	 	 	 	 	 	 	 	 	 	 	 	 	 	 	 	 	1581511207	0.75	1.39
12/02/2020 12:40:08	120220	12022020	124008	80.67	12.418840	-57.245025	80.85	0.520	-0.480	1.080	80.78	-1.20	1.30	 	 	 	 	 	 	 	 	 	 	 	 	 	 	 	 	 	 	1581511208	0.72	1.33
12/02/2020 12:40:09	120220	12022020	124009	81.19	12.418840	-57.245033	81.33	0.360	0.940	0.690	81.28	-0.20	1.00	 	 	 	 	 	 	 	 	 	 	 	 	 	 	 	 	 	 	1581511209	1.54	2.85
12/02/2020 12:40:10	120220	12022020	124010	81.44	12.418840	-57.245037	81.50	0.300	1.150	0.600	81.43	-0.50	1.10	 	 	 	 	 	 	 	 	 	 	 	 	 	 	 	 	 	 	1581511210	0.83	1.54
12/02/2020 12:40:11	120220	12022020	124011	81.22	12.418840	-57.245035	81.24	0.290	0.470	0.900	81.15	-1.30	1.50	 	 	 	 	 	 	 	 	 	 	 	 	 	 	 	 	 	 	1581511211	0.43	0.80
12/02/2020 12:40:12	120220	12022020	124012	80.83	12.418840	-57.245030	80.88	0.220	-0.290	1.370	80.77	-1.90	2.00	 	 	 	 	 	 	 	 	 	 	 	 	 	 	 	 	 	 	1581511212	1.01	1.87
12/02/2020 12:40:13	120220	12022020	124013	80.57	12.418838	-57.245027	80.67	0.020	-0.620	1.770	80.55	-2.00	2.30	 	 	 	 	 	 	 	 	 	 	 	 	 	 	 	 	 	 	1581511213	0.77	1.43
12/02/2020 12:40:14	120220	12022020	124014	80.62	12.418838	-57.245025	80.79	-0.340	-0.400	1.940	80.69	-1.60	2.30	 	 	 	 	 	 	 	 	 	 	 	 	 	 	 	 	 	 	1581511214	0.17	0.31
12/02/2020 12:40:15	120220	12022020	124015	81.12	12.418838	-57.245028	81.33	-0.700	0.140	1.700	81.27	-1.00	1.90	 	 	 	 	 	 	 	 	 	 	 	 	 	 	 	 	 	 	1581511215	0.51	0.94
12/02/2020 12:40:16	120220	12022020	124016	81.82	12.418837	-57.245032	81.99	-0.800	0.490	1.290	81.93	-0.90	1.60	 	 	 	 	 	 	 	 	 	 	 	 	 	 	 	 	 	 	1581511216	0.84	1.56
12/02/2020 12:40:17	120220	12022020	124017	82.11	12.418835	-57.245033	82.19	-0.480	0.120	1.260	82.10	-1.60	1.80	 	 	 	 	 	 	 	 	 	 	 	 	 	 	 	 	 	 	1581511217	0.58	1.07
12/02/2020 12:40:18	120220	12022020	124018	81.83	12.418833	-57.245032	81.86	0.200	-0.920	1.690	81.73	-2.70	2.30	 	 	 	 	 	 	 	 	 	 	 	 	 	 	 	 	 	 	1581511218	0.78	1.44
12/02/2020 12:40:19	120220	12022020	124019	81.35	12.418830	-57.245025	81.40	0.840	-1.810	2.070	81.28	-3.30	2.50	 	 	 	 	 	 	 	 	 	 	 	 	 	 	 	 	 	 	1581511219	1.45	2.69
12/02/2020 12:40:20	120220	12022020	124020	81.12	12.418828	-57.245020	81.22	0.990	-1.650	2.030	81.11	-2.60	2.30	 	 	 	 	 	 	 	 	 	 	 	 	 	 	 	 	 	 	1581511220	1.13	2.09
12/02/2020 12:40:21	120220	12022020	124021	81.17	12.418830	-57.245020	81.27	0.530	-0.330	1.640	81.19	-1.00	1.80	 	 	 	 	 	 	 	 	 	 	 	 	 	 	 	 	 	 	1581511221	0.29	0.54
12/02/2020 12:40:22	120220	12022020	124022	81.28	12.418833	-57.245027	81.39	-0.230	1.390	1.100	81.28	-0.40	1.60	 	 	 	 	 	 	 	 	 	 	 	 	 	 	 	 	 	 	1581511222	1.41	2.61
12/02/2020 12:40:23	120220	12022020	124023	81.54	12.418837	-57.245035	81.65	-0.820	2.390	0.410	81.61	1.00	0.50	 	 	 	 	 	 	 	 	 	 	 	 	 	 	 	 	 	 	1581511223	1.90	3.52
12/02/2020 12:40:24	120220	12022020	124024	81.91	12.418840	-57.245040	81.99	-0.910	1.810	-0.360	81.98	-0.30	-0.20	 	 	 	 	 	 	 	 	 	 	 	 	 	 	 	 	 	 	1581511224	1.39	2.57
12/02/2020 12:40:25	120220	12022020	124025	82.11	12.418843	-57.245038	82.14	-0.450	-0.200	-0.750	82.10	-2.50	-0.30	 	 	 	 	 	 	 	 	 	 	 	 	 	 	 	 	 	 	1581511225	0.77	1.43
12/02/2020 12:40:26	120220	12022020	124026	81.88	12.418843	-57.245030	81.89	0.240	-2.360	-0.380	81.79	-4.30	0.40	 	 	 	 	 	 	 	 	 	 	 	 	 	 	 	 	 	 	1581511226	1.65	3.06
12/02/2020 12:40:27	120220	12022020	124027	81.36	12.418840	-57.245022	81.39	0.730	-3.160	0.610	81.26	-4.30	1.50	 	 	 	 	 	 	 	 	 	 	 	 	 	 	 	 	 	 	1581511227	1.88	3.48
12/02/2020 12:40:28	120220	12022020	124028	80.96	12.418835	-57.245020	81.04	0.790	-2.130	1.570	80.93	-2.70	2.20	 	 	 	 	 	 	 	 	 	 	 	 	 	 	 	 	 	 	1581511228	1.28	2.37
12/02/2020 12:40:29	120220	12022020	124029	80.95	12.418830	-57.245023	81.07	0.470	-0.160	1.870	81.00	-0.80	2.20	 	 	 	 	 	 	 	 	 	 	 	 	 	 	 	 	 	 	1581511229	1.35	2.50
12/02/2020 12:40:30	120220	12022020	124030	81.29	12.418828	-57.245032	81.44	-0.050	1.450	1.440	81.39	0.40	1.60	 	 	 	 	 	 	 	 	 	 	 	 	 	 	 	 	 	 	1581511230	1.59	2.94
12/02/2020 12:40:31	120220	12022020	124031	81.74	12.418832	-57.245037	81.88	-0.560	2.010	0.770	81.83	0.60	0.90	 	 	 	 	 	 	 	 	 	 	 	 	 	 	 	 	 	 	1581511231	1.23	2.28
12/02/2020 12:40:32	120220	12022020	124032	82.10	12.418833	-57.245038	82.19	-0.850	1.610	0.310	82.15	-0.10	0.60	 	 	 	 	 	 	 	 	 	 	 	 	 	 	 	 	 	 	1581511232	0.55	1.02
12/02/2020 12:40:33	120220	12022020	124033	82.24	12.418833	-57.245038	82.31	-0.750	0.520	0.220	82.24	-1.40	0.70	 	 	 	 	 	 	 	 	 	 	 	 	 	 	 	 	 	 	1581511233	0.20	0.37
12/02/2020 12:40:34	120220	12022020	124034	82.12	12.418832	-57.245035	82.14	-0.280	-0.860	0.580	82.05	-2.70	1.30	 	 	 	 	 	 	 	 	 	 	 	 	 	 	 	 	 	 	1581511234	0.73	1.35
12/02/2020 12:40:35	120220	12022020	124035	81.69	12.418828	-57.245032	81.70	0.280	-1.910	1.280	81.58	-3.50	1.90	 	 	 	 	 	 	 	 	 	 	 	 	 	 	 	 	 	 	1581511235	1.01	1.87
12/02/2020 12:40:36	120220	12022020	124036	81.19	12.418827	-57.245028	81.24	0.610	-2.100	1.800	81.13	-3.20	2.30	 	 	 	 	 	 	 	 	 	 	 	 	 	 	 	 	 	 	1581511236	0.71	1.31
12/02/2020 12:40:37	120220	12022020	124037	81.15	12.418827	-57.245028	81.26	0.620	-1.360	1.720	81.21	-2.20	1.90	 	 	 	 	 	 	 	 	 	 	 	 	 	 	 	 	 	 	1581511237	0.10	0.19
12/02/2020 12:40:38	120220	12022020	124038	81.68	12.418828	-57.245033	81.84	0.480	-0.080	1.240	81.83	-1.00	1.50	 	 	 	 	 	 	 	 	 	 	 	 	 	 	 	 	 	 	1581511238	0.94	1.74
12/02/2020 12:40:39	120220	12022020	124039	82.41	12.418830	-57.245038	82.57	0.330	0.870	0.930	82.54	-0.40	1.30	 	 	 	 	 	 	 	 	 	 	 	 	 	 	 	 	 	 	1581511239	1.17	2.17
12/02/2020 12:40:40	120220	12022020	124040	82.84	12.418830	-57.245040	82.95	0.210	0.970	1.040	82.88	-0.60	1.50	 	 	 	 	 	 	 	 	 	 	 	 	 	 	 	 	 	 	1581511240	0.52	0.96
12/02/2020 12:40:41	120220	12022020	124041	82.88	12.418828	-57.245038	82.95	0.060	0.490	1.330	82.85	-1.10	1.90	 	 	 	 	 	 	 	 	 	 	 	 	 	 	 	 	 	 	1581511241	0.51	0.94
12/02/2020 12:40:42	120220	12022020	124042	82.64	12.418825	-57.245037	82.69	-0.200	-0.020	1.770	82.57	-1.50	2.40	 	 	 	 	 	 	 	 	 	 	 	 	 	 	 	 	 	 	1581511242	0.84	1.56
12/02/2020 12:40:43	120220	12022020	124043	82.30	12.418822	-57.245035	82.37	-0.480	-0.290	2.170	82.25	-1.70	2.70	 	 	 	 	 	 	 	 	 	 	 	 	 	 	 	 	 	 	1581511243	0.83	1.54
12/02/2020 12:40:44	120220	12022020	124044	82.13	12.418820	-57.245035	82.23	-0.530	-0.390	2.330	82.12	-1.80	2.70	 	 	 	 	 	 	 	 	 	 	 	 	 	 	 	 	 	 	1581511244	0.58	1.07
12/02/2020 12:40:45	120220	12022020	124045	82.16	12.418818	-57.245035	82.27	-0.240	-0.530	2.200	82.18	-2.00	2.50	 	 	 	 	 	 	 	 	 	 	 	 	 	 	 	 	 	 	1581511245	0.25	0.46
12/02/2020 12:40:46	120220	12022020	124046	82.28	12.418820	-57.245037	82.38	0.170	-0.710	1.770	82.31	-2.10	1.90	 	 	 	 	 	 	 	 	 	 	 	 	 	 	 	 	 	 	1581511246	0.35	0.65
12/02/2020 12:40:47	120220	12022020	124047	82.44	12.418823	-57.245037	82.53	0.370	-0.600	1.060	82.47	-1.80	1.20	 	 	 	 	 	 	 	 	 	 	 	 	 	 	 	 	 	 	1581511247	0.80	1.48
12/02/2020 12:40:48	120220	12022020	124048	82.61	12.418828	-57.245038	82.69	0.230	-0.090	0.360	82.61	-1.60	0.90	 	 	 	 	 	 	 	 	 	 	 	 	 	 	 	 	 	 	1581511248	1.04	1.93
12/02/2020 12:40:49	120220	12022020	124049	82.72	12.418832	-57.245042	82.79	-0.090	0.370	0.070	82.73	-1.00	0.50	 	 	 	 	 	 	 	 	 	 	 	 	 	 	 	 	 	 	1581511249	0.97	1.80
12/02/2020 12:40:50	120220	12022020	124050	82.76	12.418832	-57.245043	82.83	-0.240	0.220	0.250	82.76	-1.40	0.80	 	 	 	 	 	 	 	 	 	 	 	 	 	 	 	 	 	 	1581511250	0.45	0.83
12/02/2020 12:40:51	120220	12022020	124051	82.86	12.418830	-57.245042	82.97	-0.050	-0.500	0.600	82.91	-2.10	1.10	 	 	 	 	 	 	 	 	 	 	 	 	 	 	 	 	 	 	1581511251	0.62	1.15
12/02/2020 12:40:52	120220	12022020	124052	83.09	12.418827	-57.245037	83.21	0.340	-1.060	0.900	83.12	-2.40	1.40	 	 	 	 	 	 	 	 	 	 	 	 	 	 	 	 	 	 	1581511252	1.16	2.15
12/02/2020 12:40:53	120220	12022020	124053	83.11	12.418823	-57.245033	83.17	0.560	-0.850	1.330	83.05	-1.90	1.90	 	 	 	 	 	 	 	 	 	 	 	 	 	 	 	 	 	 	1581511253	0.93	1.72
12/02/2020 12:40:54	120220	12022020	124054	82.66	12.418820	-57.245035	82.68	0.390	0.050	1.850	82.54	-0.90	2.40	 	 	 	 	 	 	 	 	 	 	 	 	 	 	 	 	 	 	1581511254	0.71	1.31
12/02/2020 12:40:55	120220	12022020	124055	82.06	12.418818	-57.245038	82.09	-0.050	0.950	1.980	81.97	-0.20	2.20	 	 	 	 	 	 	 	 	 	 	 	 	 	 	 	 	 	 	1581511255	0.96	1.78
12/02/2020 12:40:56	120220	12022020	124056	81.78	12.418822	-57.245043	81.86	-0.420	1.110	1.470	81.79	-0.50	1.60	 	 	 	 	 	 	 	 	 	 	 	 	 	 	 	 	 	 	1581511256	1.09	2.02
12/02/2020 12:40:57	120220	12022020	124057	81.99	12.418828	-57.245045	82.12	-0.470	0.340	0.640	82.08	-1.50	0.70	 	 	 	 	 	 	 	 	 	 	 	 	 	 	 	 	 	 	1581511257	1.45	2.69
12/02/2020 12:40:58	120220	12022020	124058	82.49	12.418835	-57.245042	82.63	-0.280	-0.810	-0.010	82.60	-2.60	0.30	 	 	 	 	 	 	 	 	 	 	 	 	 	 	 	 	 	 	1581511258	1.43	2.65
12/02/2020 12:40:59	120220	12022020	124059	82.91	12.418837	-57.245038	83.02	-0.040	-1.600	-0.060	82.95	-3.00	0.50	 	 	 	 	 	 	 	 	 	 	 	 	 	 	 	 	 	 	1581511259	0.95	1.76
12/02/2020 12:41:00	120220	12022020	124100	82.94	12.418833	-57.245035	83.01	0.140	-1.470	0.500	82.89	-2.50	1.20	 	 	 	 	 	 	 	 	 	 	 	 	 	 	 	 	 	 	1581511260	0.91	1.69
12/02/2020 12:41:01	120220	12022020	124101	82.53	12.418827	-57.245037	82.57	0.220	-0.510	1.340	82.41	-1.40	2.10	 	 	 	 	 	 	 	 	 	 	 	 	 	 	 	 	 	 	1581511261	1.41	2.61
12/02/2020 12:41:02	120220	12022020	124102	81.95	12.418820	-57.245040	82.01	0.220	0.510	2.000	81.85	-0.60	2.50	1017.00	26.20	26.30	21.00	21.10	207.0	73.0	73.0	435.0	26.6	346.00	10.20	68.00	9.80	18492	10447.0	27.5	27.5	1581511262	1.52	2.82
12/02/2020 12:41:03	120220	12022020	124103	81.62	12.418818	-57.245043	81.73	0.160	0.810	2.090	81.61	-0.70	2.40	 	 	 	 	 	 	 	 	 	 	 	 	 	 	 	 	 	 	1581511263	0.84	1.56
12/02/2020 12:41:04	120220	12022020	124104	81.66	12.418820	-57.245042	81.79	0.060	0.390	1.720	81.69	-1.20	1.90	 	 	 	 	 	 	 	 	 	 	 	 	 	 	 	 	 	 	1581511264	0.39	0.72
12/02/2020 12:41:05	120220	12022020	124105	81.86	12.418823	-57.245040	81.98	-0.110	-0.120	1.170	81.91	-1.60	1.40	 	 	 	 	 	 	 	 	 	 	 	 	 	 	 	 	 	 	1581511265	1.04	1.93
12/02/2020 12:41:06	120220	12022020	124106	82.06	12.418828	-57.245040	82.15	-0.310	-0.150	0.720	82.08	-1.40	1.00	 	 	 	 	 	 	 	 	 	 	 	 	 	 	 	 	 	 	1581511266	0.95	1.76
12/02/2020 12:41:07	120220	12022020	124107	82.05	12.418830	-57.245042	82.09	-0.420	0.000	0.550	82.00	-1.40	1.00	 	 	 	 	 	 	 	 	 	 	 	 	 	 	 	 	 	 	1581511267	0.69	1.28
12/02/2020 12:41:08	120220	12022020	124108	81.69	12.418830	-57.245043	81.70	-0.290	-0.290	0.700	81.59	-1.90	1.20	 	 	 	 	 	 	 	 	 	 	 	 	 	 	 	 	 	 	1581511268	0.37	0.69
12/02/2020 12:41:09	120220	12022020	124109	81.21	12.418830	-57.245042	81.24	0.090	-1.030	1.030	81.13	-2.70	1.50	 	 	 	 	 	 	 	 	 	 	 	 	 	 	 	 	 	 	1581511269	0.44	0.81
12/02/2020 12:41:10	120220	12022020	124110	81.11	12.418828	-57.245038	81.23	0.570	-1.600	1.140	81.16	-2.90	1.50	 	 	 	 	 	 	 	 	 	 	 	 	 	 	 	 	 	 	1581511270	0.96	1.78
12/02/2020 12:41:11	120220	12022020	124111	81.50	12.418828	-57.245035	81.65	0.860	-1.200	1.000	81.60	-2.00	1.30	 	 	 	 	 	 	 	 	 	 	 	 	 	 	 	 	 	 	1581511271	0.75	1.39
12/02/2020 12:41:12	120220	12022020	124112	81.90	12.418830	-57.245035	82.01	0.640	0.180	0.800	81.95	-0.50	1.10	 	 	 	 	 	 	 	 	 	 	 	 	 	 	 	 	 	 	1581511272	0.29	0.54
12/02/2020 12:41:13	120220	12022020	124113	81.98	12.418830	-57.245042	82.02	-0.050	1.560	0.540	81.95	0.50	0.90	 	 	 	 	 	 	 	 	 	 	 	 	 	 	 	 	 	 	1581511273	1.23	2.28
12/02/2020 12:41:14	120220	12022020	124114	81.73	12.418832	-57.245047	81.73	-0.790	1.890	0.450	81.66	0.30	0.90	 	 	 	 	 	 	 	 	 	 	 	 	 	 	 	 	 	 	1581511274	1.21	2.24
12/02/2020 12:41:15	120220	12022020	124115	81.42	12.418832	-57.245048	81.44	-1.050	0.910	0.680	81.38	-1.10	1.20	 	 	 	 	 	 	 	 	 	 	 	 	 	 	 	 	 	 	1581511275	0.20	0.37
12/02/2020 12:41:16	120220	12022020	124116	81.23	12.418830	-57.245043	81.27	-0.740	-0.680	1.050	81.19	-2.60	1.60	 	 	 	 	 	 	 	 	 	 	 	 	 	 	 	 	 	 	1581511276	0.94	1.74
12/02/2020 12:41:17	120220	12022020	124117	81.05	12.418827	-57.245038	81.09	-0.130	-1.830	1.420	81.00	-3.40	1.90	 	 	 	 	 	 	 	 	 	 	 	 	 	 	 	 	 	 	1581511277	1.30	2.41
12/02/2020 12:41:18	120220	12022020	124118	80.83	12.418825	-57.245035	80.87	0.400	-2.030	1.600	80.79	-3.20	2.00	 	 	 	 	 	 	 	 	 	 	 	 	 	 	 	 	 	 	1581511278	0.84	1.56
12/02/2020 12:41:19	120220	12022020	124119	80.77	12.418825	-57.245035	80.86	0.580	-1.290	1.430	80.80	-2.10	1.70	 	 	 	 	 	 	 	 	 	 	 	 	 	 	 	 	 	 	1581511279	0.04	0.07
12/02/2020 12:41:20	120220	12022020	124120	81.01	12.418828	-57.245038	81.12	0.410	-0.110	1.020	81.09	-1.00	1.30	 	 	 	 	 	 	 	 	 	 	 	 	 	 	 	 	 	 	1581511280	0.83	1.54
12/02/2020 12:41:21	120220	12022020	124121	81.33	12.418830	-57.245042	81.43	0.130	0.690	0.720	81.38	-0.50	1.10	 	 	 	 	 	 	 	 	 	 	 	 	 	 	 	 	 	 	1581511281	0.98	1.81
12/02/2020 12:41:22	120220	12022020	124122	81.40	12.418830	-57.245043	81.44	-0.020	0.780	0.830	81.37	-0.70	1.40	 	 	 	 	 	 	 	 	 	 	 	 	 	 	 	 	 	 	1581511282	0.26	0.48
12/02/2020 12:41:23	120220	12022020	124123	81.11	12.418828	-57.245042	81.15	-0.030	0.530	1.270	81.03	-0.90	1.80	 	 	 	 	 	 	 	 	 	 	 	 	 	 	 	 	 	 	1581511283	0.50	0.93
12/02/2020 12:41:24	120220	12022020	124124	80.75	12.418827	-57.245040	80.80	-0.080	0.300	1.670	80.70	-1.10	2.10	 	 	 	 	 	 	 	 	 	 	 	 	 	 	 	 	 	 	1581511284	0.65	1.20
12/02/2020 12:41:25	120220	12022020	124125	80.60	12.418825	-57.245038	80.70	-0.170	0.040	1.760	80.60	-1.50	2.10	 	 	 	 	 	 	 	 	 	 	 	 	 	 	 	 	 	 	1581511285	0.35	0.65
12/02/2020 12:41:26	120220	12022020	124126	80.65	12.418825	-57.245038	80.75	-0.170	-0.450	1.680	80.66	-2.00	2.00	 	 	 	 	 	 	 	 	 	 	 	 	 	 	 	 	 	 	1581511286	0.12	0.22
12/02/2020 12:41:27	120220	12022020	124127	80.65	12.418827	-57.245037	80.72	-0.030	-0.970	1.560	80.63	-2.40	1.90	 	 	 	 	 	 	 	 	 	 	 	 	 	 	 	 	 	 	1581511287	0.44	0.81
12/02/2020 12:41:28	120220	12022020	124128	80.58	12.418828	-57.245033	80.66	0.080	-1.110	1.330	80.57	-2.30	1.60	 	 	 	 	 	 	 	 	 	 	 	 	 	 	 	 	 	 	1581511288	0.56	1.04
12/02/2020 12:41:29	120220	12022020	124129	80.56	12.418830	-57.245033	80.65	0.060	-0.650	1.090	80.55	-1.70	1.50	 	 	 	 	 	 	 	 	 	 	 	 	 	 	 	 	 	 	1581511289	0.44	0.81
12/02/2020 12:41:30	120220	12022020	124130	80.45	12.418830	-57.245037	80.53	-0.090	0.190	1.090	80.41	-0.90	1.60	 	 	 	 	 	 	 	 	 	 	 	 	 	 	 	 	 	 	1581511290	0.50	0.93
12/02/2020 12:41:31	120220	12022020	124131	80.24	12.418830	-57.245040	80.31	-0.200	0.680	1.260	80.20	-0.70	1.70	 	 	 	 	 	 	 	 	 	 	 	 	 	 	 	 	 	 	1581511291	0.68	1.26
12/02/2020 12:41:32	120220	12022020	124132	80.14	12.418828	-57.245040	80.25	-0.090	0.290	1.200	80.16	-1.40	1.50	 	 	 	 	 	 	 	 	 	 	 	 	 	 	 	 	 	 	1581511292	0.28	0.52
12/02/2020 12:41:33	120220	12022020	124133	80.29	12.418830	-57.245037	80.40	0.240	-0.690	0.800	80.33	-2.40	1.00	 	 	 	 	 	 	 	 	 	 	 	 	 	 	 	 	 	 	1581511293	0.83	1.54
12/02/2020 12:41:34	120220	12022020	124134	80.43	12.418832	-57.245030	80.53	0.500	-1.230	0.480	80.44	-2.40	0.90	 	 	 	 	 	 	 	 	 	 	 	 	 	 	 	 	 	 	1581511294	1.30	2.41
12/02/2020 12:41:35	120220	12022020	124135	80.37	12.418833	-57.245028	80.41	0.350	-0.620	0.540	80.32	-1.50	1.00	 	 	 	 	 	 	 	 	 	 	 	 	 	 	 	 	 	 	1581511295	0.58	1.07
12/02/2020 12:41:36	120220	12022020	124136	80.10	12.418833	-57.245032	80.13	-0.190	0.670	0.730	80.03	-0.20	1.20	 	 	 	 	 	 	 	 	 	 	 	 	 	 	 	 	 	 	1581511296	0.76	1.41
12/02/2020 12:41:37	120220	12022020	124137	79.74	12.418832	-57.245038	79.76	-0.700	1.470	0.810	79.67	0.10	1.20	 	 	 	 	 	 	 	 	 	 	 	 	 	 	 	 	 	 	1581511297	1.33	2.46
12/02/2020 12:41:38	120220	12022020	124138	79.44	12.418833	-57.245042	79.47	-0.770	1.050	0.770	79.39	-0.80	1.10	 	 	 	 	 	 	 	 	 	 	 	 	 	 	 	 	 	 	1581511298	0.73	1.35
12/02/2020 12:41:39	120220	12022020	124139	79.32	12.418835	-57.245040	79.41	-0.360	-0.320	0.670	79.34	-2.30	1.00	 	 	 	 	 	 	 	 	 	 	 	 	 	 	 	 	 	 	1581511299	0.61	1.13
12/02/2020 12:41:40	120220	12022020	124140	79.50	12.418837	-57.245033	79.61	0.190	-1.680	0.620	79.55	-3.40	1.10	 	 	 	 	 	 	 	 	 	 	 	 	 	 	 	 	 	 	1581511300	1.27	2.35
12/02/2020 12:41:41	120220	12022020	124141	79.76	12.418838	-57.245028	79.86	0.590	-2.240	0.800	79.79	-3.50	1.30	 	 	 	 	 	 	 	 	 	 	 	 	 	 	 	 	 	 	1581511301	1.07	1.98
12/02/2020 12:41:42	120220	12022020	124142	79.85	12.418837	-57.245027	79.94	0.770	-1.730	1.100	79.85	-2.60	1.60	 	 	 	 	 	 	 	 	 	 	 	 	 	 	 	 	 	 	1581511302	0.64	1.19
12/02/2020 12:41:43	120220	12022020	124143	79.78	12.418833	-57.245027	79.85	0.670	-0.420	1.390	79.74	-1.10	1.90	 	 	 	 	 	 	 	 	 	 	 	 	 	 	 	 	 	 	1581511303	0.57	1.06
12/02/2020 12:41:44	120220	12022020	124144	79.56	12.418832	-57.245030	79.64	0.260	1.040	1.740	79.53	0.20	2.30	 	 	 	 	 	 	 	 	 	 	 	 	 	 	 	 	 	 	1581511304	0.88	1.63
12/02/2020 12:41:45	120220	12022020	124145	79.43	12.418828	-57.245035	79.53	-0.350	1.900	1.980	79.42	0.60	2.40	 	 	 	 	 	 	 	 	 	 	 	 	 	 	 	 	 	 	1581511305	0.96	1.78
12/02/2020 12:41:46	120220	12022020	124146	79.47	12.418828	-57.245037	79.59	-0.900	1.750	1.890	79.49	0.10	2.20	 	 	 	 	 	 	 	 	 	 	 	 	 	 	 	 	 	 	1581511306	0.50	0.93
12/02/2020 12:41:47	120220	12022020	124147	79.55	12.418830	-57.245037	79.64	-1.090	0.710	1.500	79.55	-1.20	1.70	 	 	 	 	 	 	 	 	 	 	 	 	 	 	 	 	 	 	1581511307	0.28	0.52
12/02/2020 12:41:48	120220	12022020	124148	79.49	12.418832	-57.245033	79.56	-0.720	-0.720	1.120	79.47	-2.60	1.40	 	 	 	 	 	 	 	 	 	 	 	 	 	 	 	 	 	 	1581511308	0.87	1.61
12/02/2020 12:41:49	120220	12022020	124149	79.39	12.418835	-57.245030	79.47	0.030	-1.830	0.790	79.39	-3.40	1.10	 	 	 	 	 	 	 	 	 	 	 	 	 	 	 	 	 	 	1581511309	1.08	2.00
12/02/2020 12:41:50	120220	12022020	124150	79.43	12.418838	-57.245027	79.53	0.690	-2.040	0.500	79.46	-3.20	0.80	 	 	 	 	 	 	 	 	 	 	 	 	 	 	 	 	 	 	1581511310	0.79	1.46
12/02/2020 12:41:51	120220	12022020	124151	79.65	12.418840	-57.245028	79.75	0.980	-1.570	0.360	79.70	-2.60	0.80	 	 	 	 	 	 	 	 	 	 	 	 	 	 	 	 	 	 	1581511311	0.26	0.48
12/02/2020 12:41:52	120220	12022020	124152	79.88	12.418838	-57.245028	79.98	0.900	-0.790	0.500	79.90	-1.70	1.00	 	 	 	 	 	 	 	 	 	 	 	 	 	 	 	 	 	 	1581511312	0.20	0.37
12/02/2020 12:41:53	120220	12022020	124153	79.92	12.418838	-57.245028	80.01	0.480	0.280	0.810	79.92	-0.50	1.30	 	 	 	 	 	 	 	 	 	 	 	 	 	 	 	 	 	 	1581511313	0.32	0.59
12/02/2020 12:41:54	120220	12022020	124154	79.89	12.418837	-57.245032	79.97	-0.220	1.460	1.080	79.88	0.40	1.60	 	 	 	 	 	 	 	 	 	 	 	 	 	 	 	 	 	 	1581511314	0.56	1.04
12/02/2020 12:41:55	120220	12022020	124155	79.82	12.418835	-57.245035	79.90	-0.870	1.940	1.410	79.79	0.40	2.00	 	 	 	 	 	 	 	 	 	 	 	 	 	 	 	 	 	 	1581511315	0.83	1.54
12/02/2020 12:41:56	120220	12022020	124156	79.63	12.418832	-57.245035	79.72	-1.050	1.200	1.820	79.58	-0.70	2.30	 	 	 	 	 	 	 	 	 	 	 	 	 	 	 	 	 	 	1581511316	0.55	1.02
12/02/2020 12:41:57	120220	12022020	124157	79.40	12.418830	-57.245032	79.49	-0.630	-0.380	1.960	79.37	-2.40	2.30	 	 	 	 	 	 	 	 	 	 	 	 	 	 	 	 	 	 	1581511317	0.91	1.69
12/02/2020 12:41:58	120220	12022020	124158	79.34	12.418832	-57.245025	79.46	0.170	-1.880	1.650	79.36	-3.60	1.80	 	 	 	 	 	 	 	 	 	 	 	 	 	 	 	 	 	 	1581511318	1.33	2.46
12/02/2020 12:41:59	120220	12022020	124159	79.59	12.418835	-57.245020	79.76	0.880	-2.320	1.070	79.67	-3.40	1.20	 	 	 	 	 	 	 	 	 	 	 	 	 	 	 	 	 	 	1581511319	1.36	2.52
12/02/2020 12:42:00	120220	12022020	124200	80.07	12.418840	-57.245020	80.23	1.040	-1.400	0.550	80.17	-2.10	0.90	 	 	 	 	 	 	 	 	 	 	 	 	 	 	 	 	 	 	1581511320	0.92	1.70
12/02/2020 12:42:01	120220	12022020	124201	80.41	12.418842	-57.245025	80.51	0.490	0.210	0.430	80.43	-0.50	0.90	 	 	 	 	 	 	 	 	 	 	 	 	 	 	 	 	 	 	1581511321	0.93	1.72
12/02/2020 12:42:02	120220	12022020	124202	80.33	12.418838	-57.245030	80.36	-0.460	1.510	0.670	80.26	0.40	1.20	1016.90	26.30	26.40	21.40	21.40	311.0	74.0	74.0	434.0	26.7	349.00	10.40	69.00	10.00	24165	10363.0	27.5	27.5	1581511322	1.32	2.44
12/02/2020 12:42:03	120220	12022020	124203	79.85	12.418833	-57.245033	79.83	-1.170	1.690	1.060	79.72	0.00	1.60	 	 	 	 	 	 	 	 	 	 	 	 	 	 	 	 	 	 	1581511323	1.20	2.22
12/02/2020 12:42:04	120220	12022020	124204	79.18	12.418832	-57.245033	79.19	-1.100	0.610	1.320	79.06	-1.40	1.80	 	 	 	 	 	 	 	 	 	 	 	 	 	 	 	 	 	 	1581511324	0.64	1.19
12/02/2020 12:42:05	120220	12022020	124205	78.69	12.418832	-57.245027	78.75	-0.280	-0.930	1.310	78.65	-2.80	1.60	 	 	 	 	 	 	 	 	 	 	 	 	 	 	 	 	 	 	1581511325	1.15	2.13
12/02/2020 12:42:06	120220	12022020	124206	78.68	12.418835	-57.245022	78.80	0.700	-1.900	1.000	78.74	-3.30	1.20	 	 	 	 	 	 	 	 	 	 	 	 	 	 	 	 	 	 	1581511326	1.46	2.70
12/02/2020 12:42:07	120220	12022020	124207	79.09	12.418840	-57.245018	79.23	1.180	-1.750	0.490	79.19	-2.80	0.70	 	 	 	 	 	 	 	 	 	 	 	 	 	 	 	 	 	 	1581511327	1.14	2.11
12/02/2020 12:42:08	120220	12022020	124208	79.48	12.418843	-57.245020	79.59	0.950	-0.830	0.160	79.52	-1.70	0.50	 	 	 	 	 	 	 	 	 	 	 	 	 	 	 	 	 	 	1581511328	0.77	1.43
12/02/2020 12:42:09	120220	12022020	124209	79.50	12.418843	-57.245023	79.57	0.330	0.190	0.290	79.46	-0.80	0.90	 	 	 	 	 	 	 	 	 	 	 	 	 	 	 	 	 	 	1581511329	0.64	1.19
12/02/2020 12:42:10	120220	12022020	124210	79.17	12.418842	-57.245025	79.23	-0.280	1.120	0.890	79.09	0.10	1.60	 	 	 	 	 	 	 	 	 	 	 	 	 	 	 	 	 	 	1581511330	0.72	1.33
12/02/2020 12:42:11	120220	12022020	124211	78.76	12.418837	-57.245028	78.85	-0.660	1.660	1.590	78.69	0.30	2.20	 	 	 	 	 	 	 	 	 	 	 	 	 	 	 	 	 	 	1581511331	1.03	1.91
12/02/2020 12:42:12	120220	12022020	124212	78.60	12.418833	-57.245028	78.74	-0.750	1.210	1.970	78.61	-0.60	2.40	 	 	 	 	 	 	 	 	 	 	 	 	 	 	 	 	 	 	1581511332	0.75	1.39
12/02/2020 12:42:13	120220	12022020	124213	78.78	12.418833	-57.245027	78.96	-0.570	-0.200	1.850	78.84	-2.20	2.10	 	 	 	 	 	 	 	 	 	 	 	 	 	 	 	 	 	 	1581511333	0.48	0.89
12/02/2020 12:42:14	120220	12022020	124214	79.09	12.418835	-57.245022	79.25	-0.160	-1.610	1.480	79.14	-3.30	1.80	 	 	 	 	 	 	 	 	 	 	 	 	 	 	 	 	 	 	1581511334	1.13	2.09
12/02/2020 12:42:15	120220	12022020	124215	79.24	12.418837	-57.245017	79.35	0.320	-2.080	1.310	79.24	-3.30	1.70	 	 	 	 	 	 	 	 	 	 	 	 	 	 	 	 	 	 	1581511335	0.95	1.76
12/02/2020 12:42:16	120220	12022020	124216	79.15	12.418835	-57.245017	79.22	0.680	-1.510	1.500	79.10	-2.40	2.00	 	 	 	 	 	 	 	 	 	 	 	 	 	 	 	 	 	 	1581511336	0.29	0.54
12/02/2020 12:42:17	120220	12022020	124217	78.82	12.418833	-57.245018	78.88	0.680	-0.410	1.790	78.75	-1.30	2.20	 	 	 	 	 	 	 	 	 	 	 	 	 	 	 	 	 	 	1581511337	0.63	1.17
12/02/2020 12:42:18	120220	12022020	124218	78.50	12.418832	-57.245022	78.57	0.290	0.650	1.750	78.46	-0.40	2.00	 	 	 	 	 	 	 	 	 	 	 	 	 	 	 	 	 	 	1581511338	0.70	1.30
12/02/2020 12:42:19	120220	12022020	124219	78.39	12.418833	-57.245025	78.48	-0.200	1.210	1.280	78.39	-0.20	1.40	 	 	 	 	 	 	 	 	 	 	 	 	 	 	 	 	 	 	1581511339	0.78	1.44
12/02/2020 12:42:20	120220	12022020	124220	78.45	12.418837	-57.245027	78.56	-0.410	0.940	0.670	78.49	-0.70	0.80	 	 	 	 	 	 	 	 	 	 	 	 	 	 	 	 	 	 	1581511340	0.83	1.54
12/02/2020 12:42:21	120220	12022020	124221	78.77	12.418842	-57.245025	78.90	-0.240	0.090	0.060	78.87	-1.60	0.20	 	 	 	 	 	 	 	 	 	 	 	 	 	 	 	 	 	 	1581511341	0.99	1.83
12/02/2020 12:42:22	120220	12022020	124222	79.32	12.418847	-57.245022	79.46	0.040	-0.740	-0.490	79.43	-2.30	-0.20	 	 	 	 	 	 	 	 	 	 	 	 	 	 	 	 	 	 	1581511342	1.14	2.11
12/02/2020 12:42:23	120220	12022020	124223	79.75	12.418848	-57.245020	79.86	0.190	-1.080	-0.580	79.80	-2.40	0.00	 	 	 	 	 	 	 	 	 	 	 	 	 	 	 	 	 	 	1581511343	0.79	1.46
12/02/2020 12:42:24	120220	12022020	124224	79.85	12.418848	-57.245018	79.94	0.160	-0.900	0.100	79.84	-2.10	1.00	 	 	 	 	 	 	 	 	 	 	 	 	 	 	 	 	 	 	1581511344	0.19	0.35
12/02/2020 12:42:25	120220	12022020	124225	79.64	12.418843	-57.245020	79.72	0.110	-0.520	1.370	79.57	-1.70	2.30	 	 	 	 	 	 	 	 	 	 	 	 	 	 	 	 	 	 	1581511345	1.17	2.17
12/02/2020 12:42:26	120220	12022020	124226	79.31	12.418835	-57.245018	79.42	0.070	-0.070	2.570	79.26	-1.20	3.30	 	 	 	 	 	 	 	 	 	 	 	 	 	 	 	 	 	 	1581511346	1.77	3.28
12/02/2020 12:42:27	120220	12022020	124227	79.15	12.418827	-57.245018	79.30	-0.050	0.440	3.250	79.14	-0.80	3.80	 	 	 	 	 	 	 	 	 	 	 	 	 	 	 	 	 	 	1581511347	1.61	2.98
12/02/2020 12:42:28	120220	12022020	124228	79.14	12.418822	-57.245020	79.31	-0.240	0.670	3.380	79.15	-0.80	3.70	 	 	 	 	 	 	 	 	 	 	 	 	 	 	 	 	 	 	1581511348	1.02	1.89
12/02/2020 12:42:29	120220	12022020	124229	79.22	12.418823	-57.245020	79.40	-0.290	0.230	2.890	79.26	-1.50	2.90	 	 	 	 	 	 	 	 	 	 	 	 	 	 	 	 	 	 	1581511349	0.12	0.22
12/02/2020 12:42:30	120220	12022020	124230	79.50	12.418828	-57.245018	79.67	0.000	-0.700	1.740	79.56	-2.40	1.60	 	 	 	 	 	 	 	 	 	 	 	 	 	 	 	 	 	 	1581511350	1.31	2.43
12/02/2020 12:42:31	120220	12022020	124231	79.86	12.418837	-57.245015	79.99	0.510	-1.370	0.520	79.92	-2.70	0.50	 	 	 	 	 	 	 	 	 	 	 	 	 	 	 	 	 	 	1581511351	2.01	3.72
12/02/2020 12:42:32	120220	12022020	124232	80.07	12.418845	-57.245013	80.16	0.770	-1.070	-0.250	80.09	-2.10	-0.00	 	 	 	 	 	 	 	 	 	 	 	 	 	 	 	 	 	 	1581511352	1.51	2.80
12/02/2020 12:42:33	120220	12022020	124233	80.07	12.418847	-57.245017	80.13	0.480	-0.050	-0.490	80.05	-1.00	-0.10	 	 	 	 	 	 	 	 	 	 	 	 	 	 	 	 	 	 	1581511353	0.78	1.44
12/02/2020 12:42:34	120220	12022020	124234	80.02	12.418848	-57.245020	80.11	-0.200	0.840	-0.340	80.03	-0.30	0.20	 	 	 	 	 	 	 	 	 	 	 	 	 	 	 	 	 	 	1581511354	0.91	1.69
12/02/2020 12:42:35	120220	12022020	124235	80.13	12.418845	-57.245023	80.26	-0.820	1.050	0.120	80.18	-0.50	0.80	 	 	 	 	 	 	 	 	 	 	 	 	 	 	 	 	 	 	1581511355	0.77	1.43
12/02/2020 12:42:36	120220	12022020	124236	80.31	12.418840	-57.245023	80.43	-0.950	0.500	0.830	80.32	-1.20	1.60	 	 	 	 	 	 	 	 	 	 	 	 	 	 	 	 	 	 	1581511356	1.07	1.98
12/02/2020 12:42:37	120220	12022020	124237	80.26	12.418835	-57.245020	80.36	-0.480	-0.490	1.680	80.22	-2.20	2.40	 	 	 	 	 	 	 	 	 	 	 	 	 	 	 	 	 	 	1581511357	1.47	2.72
12/02/2020 12:42:38	120220	12022020	124238	80.05	12.418830	-57.245015	80.16	0.240	-1.230	2.290	80.01	-2.70	2.80	 	 	 	 	 	 	 	 	 	 	 	 	 	 	 	 	 	 	1581511358	1.40	2.59
12/02/2020 12:42:39	120220	12022020	124239	79.93	12.418828	-57.245012	80.06	0.660	-1.240	2.480	79.92	-2.40	2.90	 	 	 	 	 	 	 	 	 	 	 	 	 	 	 	 	 	 	1581511359	0.68	1.26
12/02/2020 12:42:40	120220	12022020	124240	79.88	12.418828	-57.245012	80.02	0.570	-0.700	2.440	79.88	-1.80	2.80	 	 	 	 	 	 	 	 	 	 	 	 	 	 	 	 	 	 	1581511360	0.22	0.41
12/02/2020 12:42:41	120220	12022020	124241	79.92	12.418830	-57.245015	80.09	0.200	-0.090	2.250	79.96	-1.30	2.50	 	 	 	 	 	 	 	 	 	 	 	 	 	 	 	 	 	 	1581511361	0.55	1.02
12/02/2020 12:42:42	120220	12022020	124242	80.16	12.418832	-57.245015	80.32	-0.120	0.250	1.850	80.21	-1.00	2.00	 	 	 	 	 	 	 	 	 	 	 	 	 	 	 	 	 	 	1581511362	0.32	0.59
12/02/2020 12:42:43	120220	12022020	124243	80.35	12.418832	-57.245015	80.46	-0.230	0.340	1.280	80.35	-1.00	1.40	 	 	 	 	 	 	 	 	 	 	 	 	 	 	 	 	 	 	1581511363	0.11	0.20
12/02/2020 12:42:44	120220	12022020	124244	80.27	12.418833	-57.245015	80.34	-0.090	0.290	0.760	80.23	-1.10	1.00	 	 	 	 	 	 	 	 	 	 	 	 	 	 	 	 	 	 	1581511364	0.42	0.78
12/02/2020 12:42:45	120220	12022020	124245	80.18	12.418837	-57.245015	80.27	0.120	0.140	0.310	80.20	-1.30	0.50	 	 	 	 	 	 	 	 	 	 	 	 	 	 	 	 	 	 	1581511365	0.69	1.28
12/02/2020 12:42:46	120220	12022020	124246	80.37	12.418840	-57.245015	80.47	0.180	-0.190	-0.140	80.42	-1.70	0.10	 	 	 	 	 	 	 	 	 	 	 	 	 	 	 	 	 	 	1581511366	0.76	1.41
12/02/2020 12:42:47	120220	12022020	124247	80.55	12.418843	-57.245015	80.62	0.050	-0.520	-0.300	80.55	-1.90	0.20	 	 	 	 	 	 	 	 	 	 	 	 	 	 	 	 	 	 	1581511367	0.58	1.07
12/02/2020 12:42:48	120220	12022020	124248	80.42	12.418843	-57.245013	80.46	-0.130	-0.570	0.130	80.36	-1.80	0.80	 	 	 	 	 	 	 	 	 	 	 	 	 	 	 	 	 	 	1581511368	0.27	0.50
12/02/2020 12:42:49	120220	12022020	124249	80.09	12.418838	-57.245013	80.14	-0.250	-0.300	0.920	80.02	-1.50	1.60	 	 	 	 	 	 	 	 	 	 	 	 	 	 	 	 	 	 	1581511369	0.89	1.65
12/02/2020 12:42:50	120220	12022020	124250	79.84	12.418833	-57.245013	79.93	-0.260	-0.070	1.620	79.83	-1.40	2.20	 	 	 	 	 	 	 	 	 	 	 	 	 	 	 	 	 	 	1581511370	1.09	2.02
12/02/2020 12:42:51	120220	12022020	124251	79.87	12.418830	-57.245013	80.01	-0.180	-0.150	2.010	79.90	-1.60	2.50	 	 	 	 	 	 	 	 	 	 	 	 	 	 	 	 	 	 	1581511371	0.74	1.37
12/02/2020 12:42:52	120220	12022020	124252	80.06	12.418828	-57.245012	80.21	-0.060	-0.430	2.070	80.09	-1.90	2.40	 	 	 	 	 	 	 	 	 	 	 	 	 	 	 	 	 	 	1581511372	0.38	0.70
12/02/2020 12:42:53	120220	12022020	124253	80.19	12.418830	-57.245010	80.32	0.050	-0.570	1.880	80.21	-1.90	2.10	 	 	 	 	 	 	 	 	 	 	 	 	 	 	 	 	 	 	1581511373	0.44	0.81
12/02/2020 12:42:54	120220	12022020	124254	80.29	12.418832	-57.245010	80.43	0.140	-0.290	1.530	80.33	-1.40	1.80	 	 	 	 	 	 	 	 	 	 	 	 	 	 	 	 	 	 	1581511374	0.36	0.67
12/02/2020 12:42:55	120220	12022020	124255	80.53	12.418832	-57.245010	80.69	0.190	0.250	1.200	80.59	-0.90	1.50	 	 	 	 	 	 	 	 	 	 	 	 	 	 	 	 	 	 	1581511375	0.43	0.80
12/02/2020 12:42:56	120220	12022020	124256	80.78	12.418832	-57.245013	80.90	0.150	0.590	1.080	80.79	-0.80	1.50	 	 	 	 	 	 	 	 	 	 	 	 	 	 	 	 	 	 	1581511376	0.55	1.02
12/02/2020 12:42:57	120220	12022020	124257	80.70	12.418830	-57.245015	80.75	0.080	0.280	1.100	80.62	-1.40	1.50	 	 	 	 	 	 	 	 	 	 	 	 	 	 	 	 	 	 	1581511377	0.39	0.72
12/02/2020 12:42:58	120220	12022020	124258	80.23	12.418832	-57.245013	80.25	0.110	-0.590	1.170	80.12	-2.30	1.60	 	 	 	 	 	 	 	 	 	 	 	 	 	 	 	 	 	 	1581511378	0.42	0.78
12/02/2020 12:42:59	120220	12022020	124259	79.82	12.418833	-57.245008	79.91	0.200	-1.260	1.220	79.81	-2.70	1.60	 	 	 	 	 	 	 	 	 	 	 	 	 	 	 	 	 	 	1581511379	1.00	1.85
12/02/2020 12:43:00	120220	12022020	124300	79.98	12.418835	-57.245005	80.15	0.170	-1.170	1.080	80.09	-2.20	1.40	 	 	 	 	 	 	 	 	 	 	 	 	 	 	 	 	 	 	1581511380	0.81	1.50
12/02/2020 12:43:01	120220	12022020	124301	80.62	12.418837	-57.245007	80.83	-0.100	-0.270	0.870	80.78	-1.20	1.20	 	 	 	 	 	 	 	 	 	 	 	 	 	 	 	 	 	 	1581511381	0.23	0.43
12/02/2020 12:43:02	120220	12022020	124302	81.26	12.418833	-57.245010	81.42	-0.460	0.790	0.810	81.34	-0.30	1.30	1017.00	26.20	26.30	20.90	21.00	270.0	72.0	72.0	432.0	26.8	349.00	12.20	69.00	11.80	23138	10226.0	27.5	27.5	1581511382	1.01	1.87
12/02/2020 12:43:03	120220	12022020	124303	81.44	12.418830	-57.245015	81.52	-0.570	1.170	1.060	81.41	-0.30	1.60	 	 	 	 	 	 	 	 	 	 	 	 	 	 	 	 	 	 	1581511383	1.16	2.15
12/02/2020 12:43:04	120220	12022020	124304	81.21	12.418827	-57.245015	81.27	-0.340	0.640	1.500	81.14	-1.10	2.10	 	 	 	 	 	 	 	 	 	 	 	 	 	 	 	 	 	 	1581511384	0.70	1.30
12/02/2020 12:43:05	120220	12022020	124305	80.90	12.418825	-57.245012	80.97	0.010	-0.310	1.820	80.85	-2.00	2.30	 	 	 	 	 	 	 	 	 	 	 	 	 	 	 	 	 	 	1581511385	0.72	1.33
12/02/2020 12:43:06	120220	12022020	124306	80.70	12.418825	-57.245008	80.81	0.190	-0.960	1.900	80.69	-2.40	2.30	 	 	 	 	 	 	 	 	 	 	 	 	 	 	 	 	 	 	1581511386	0.68	1.26
12/02/2020 12:43:07	120220	12022020	124307	80.79	12.418828	-57.245008	80.94	0.200	-1.160	1.680	80.84	-2.50	1.90	 	 	 	 	 	 	 	 	 	 	 	 	 	 	 	 	 	 	1581511387	0.47	0.87
12/02/2020 12:43:08	120220	12022020	124308	81.15	12.418830	-57.245008	81.31	0.220	-1.120	1.360	81.22	-2.40	1.70	 	 	 	 	 	 	 	 	 	 	 	 	 	 	 	 	 	 	1581511388	0.50	0.93
12/02/2020 12:43:09	120220	12022020	124309	81.47	12.418830	-57.245008	81.62	0.310	-0.840	1.190	81.51	-2.00	1.60	 	 	 	 	 	 	 	 	 	 	 	 	 	 	 	 	 	 	1581511389	0.21	0.39
12/02/2020 12:43:10	120220	12022020	124310	81.63	12.418830	-57.245008	81.74	0.290	-0.210	1.100	81.64	-1.30	1.50	 	 	 	 	 	 	 	 	 	 	 	 	 	 	 	 	 	 	1581511390	0.16	0.30
12/02/2020 12:43:11	120220	12022020	124311	81.64	12.418828	-57.245010	81.73	0.080	0.530	1.070	81.62	-0.60	1.50	 	 	 	 	 	 	 	 	 	 	 	 	 	 	 	 	 	 	1581511391	0.48	0.89
12/02/2020 12:43:12	120220	12022020	124312	81.51	12.418827	-57.245012	81.57	-0.200	0.940	1.180	81.46	-0.40	1.70	 	 	 	 	 	 	 	 	 	 	 	 	 	 	 	 	 	 	1581511392	0.58	1.07
12/02/2020 12:43:13	120220	12022020	124313	81.24	12.418825	-57.245013	81.29	-0.360	0.820	1.330	81.18	-0.70	1.80	 	 	 	 	 	 	 	 	 	 	 	 	 	 	 	 	 	 	1581511393	0.31	0.57
12/02/2020 12:43:14	120220	12022020	124314	81.02	12.418825	-57.245012	81.11	-0.400	0.380	1.290	81.01	-1.20	1.60	 	 	 	 	 	 	 	 	 	 	 	 	 	 	 	 	 	 	1581511394	0.10	0.19
12/02/2020 12:43:15	120220	12022020	124315	81.10	12.418827	-57.245012	81.21	-0.360	-0.180	0.990	81.14	-1.80	1.30	 	 	 	 	 	 	 	 	 	 	 	 	 	 	 	 	 	 	1581511395	0.43	0.80
12/02/2020 12:43:16	120220	12022020	124316	81.34	12.418830	-57.245012	81.45	-0.220	-0.780	0.700	81.34	-2.00	1.20	 	 	 	 	 	 	 	 	 	 	 	 	 	 	 	 	 	 	1581511396	0.66	1.22
12/02/2020 12:43:17	120220	12022020	124317	81.50	12.418833	-57.245012	81.58	-0.010	-1.350	0.660	81.51	-2.80	1.20	 	 	 	 	 	 	 	 	 	 	 	 	 	 	 	 	 	 	1581511397	0.55	1.02
12/02/2020 12:43:18	120220	12022020	124318	81.49	12.418833	-57.245008	81.56	0.170	-1.440	0.970	81.47	-2.60	1.60	 	 	 	 	 	 	 	 	 	 	 	 	 	 	 	 	 	 	1581511398	0.39	0.72
12/02/2020 12:43:19	120220	12022020	124319	81.37	12.418828	-57.245008	81.44	0.220	-0.790	1.580	81.34	-1.70	2.30	 	 	 	 	 	 	 	 	 	 	 	 	 	 	 	 	 	 	1581511399	0.82	1.52
12/02/2020 12:43:20	120220	12022020	124320	81.27	12.418823	-57.245010	81.36	0.150	0.240	2.170	81.27	-0.80	2.70	 	 	 	 	 	 	 	 	 	 	 	 	 	 	 	 	 	 	1581511400	1.33	2.46
12/02/2020 12:43:21	120220	12022020	124321	81.37	12.418818	-57.245013	81.50	0.050	0.900	2.320	81.41	-0.40	2.60	 	 	 	 	 	 	 	 	 	 	 	 	 	 	 	 	 	 	1581511401	1.26	2.33
12/02/2020 12:43:22	120220	12022020	124322	81.58	12.418817	-57.245015	81.68	0.040	0.750	1.890	81.60	-0.90	2.00	 	 	 	 	 	 	 	 	 	 	 	 	 	 	 	 	 	 	1581511402	0.46	0.85
12/02/2020 12:43:23	120220	12022020	124323	81.59	12.418820	-57.245015	81.64	0.160	0.060	1.290	81.56	-1.60	1.50	 	 	 	 	 	 	 	 	 	 	 	 	 	 	 	 	 	 	1581511403	0.72	1.33
12/02/2020 12:43:24	120220	12022020	124324	81.46	12.418825	-57.245012	81.50	0.250	-0.550	0.770	81.44	-2.10	1.00	 	 	 	 	 	 	 	 	 	 	 	 	 	 	 	 	 	 	1581511404	1.31	2.43
12/02/2020 12:43:25	120220	12022020	124325	81.44	12.418830	-57.245012	81.50	0.090	-0.710	0.410	81.45	-2.00	0.70	 	 	 	 	 	 	 	 	 	 	 	 	 	 	 	 	 	 	1581511405	1.17	2.17
12/02/2020 12:43:26	120220	12022020	124326	81.60	12.418833	-57.245013	81.69	-0.300	-0.430	0.270	81.65	-1.60	0.70	 	 	 	 	 	 	 	 	 	 	 	 	 	 	 	 	 	 	1581511406	0.67	1.24
12/02/2020 12:43:27	120220	12022020	124327	81.85	12.418833	-57.245015	81.94	-0.620	-0.080	0.420	81.89	-1.40	1.00	 	 	 	 	 	 	 	 	 	 	 	 	 	 	 	 	 	 	1581511407	0.53	0.98
12/02/2020 12:43:28	120220	12022020	124328	82.00	12.418828	-57.245017	82.08	-0.580	-0.000	0.900	82.02	-1.40	1.50	 	 	 	 	 	 	 	 	 	 	 	 	 	 	 	 	 	 	1581511408	0.94	1.74
12/02/2020 12:43:29	120220	12022020	124329	82.07	12.418823	-57.245017	82.15	-0.180	-0.240	1.420	82.08	-1.70	2.00	 	 	 	 	 	 	 	 	 	 	 	 	 	 	 	 	 	 	1581511409	1.12	2.07
12/02/2020 12:43:30	120220	12022020	124330	82.11	12.418820	-57.245015	82.19	0.220	-0.440	1.770	82.11	-1.80	2.20	 	 	 	 	 	 	 	 	 	 	 	 	 	 	 	 	 	 	1581511410	0.92	1.70
12/02/2020 12:43:31	120220	12022020	124331	82.07	12.418818	-57.245013	82.15	0.290	-0.340	1.900	82.06	-1.60	2.30	 	 	 	 	 	 	 	 	 	 	 	 	 	 	 	 	 	 	1581511411	0.51	0.94
12/02/2020 12:43:32	120220	12022020	124332	81.95	12.418817	-57.245015	82.01	0.120	-0.100	1.970	81.92	-1.40	2.40	 	 	 	 	 	 	 	 	 	 	 	 	 	 	 	 	 	 	1581511412	0.35	0.65
12/02/2020 12:43:33	120220	12022020	124333	81.80	12.418817	-57.245017	81.86	0.050	-0.050	1.970	81.78	-1.50	2.30	 	 	 	 	 	 	 	 	 	 	 	 	 	 	 	 	 	 	1581511413	0.32	0.59
12/02/2020 12:43:34	120220	12022020	124334	81.79	12.418817	-57.245017	81.88	0.220	-0.210	1.690	81.83	-1.70	1.90	 	 	 	 	 	 	 	 	 	 	 	 	 	 	 	 	 	 	1581511414	0.28	0.52
12/02/2020 12:43:35	120220	12022020	124335	82.01	12.418820	-57.245017	82.09	0.420	-0.360	1.060	82.06	-1.70	1.20	 	 	 	 	 	 	 	 	 	 	 	 	 	 	 	 	 	 	1581511415	0.77	1.43
12/02/2020 12:43:36	120220	12022020	124336	82.14	12.418825	-57.245017	82.18	0.370	-0.300	0.520	82.13	-1.60	0.90	 	 	 	 	 	 	 	 	 	 	 	 	 	 	 	 	 	 	1581511416	1.02	1.89
12/02/2020 12:43:37	120220	12022020	124337	82.03	12.418828	-57.245017	82.05	-0.070	0.050	0.520	81.99	-1.10	1.10	 	 	 	 	 	 	 	 	 	 	 	 	 	 	 	 	 	 	1581511417	0.71	1.31
12/02/2020 12:43:38	120220	12022020	124338	81.86	12.418828	-57.245020	81.90	-0.680	0.500	1.110	81.84	-0.80	1.80	 	 	 	 	 	 	 	 	 	 	 	 	 	 	 	 	 	 	1581511418	0.59	1.09
12/02/2020 12:43:39	120220	12022020	124339	81.83	12.418823	-57.245023	81.92	-0.960	0.590	1.770	81.84	-1.00	2.40	 	 	 	 	 	 	 	 	 	 	 	 	 	 	 	 	 	 	1581511419	1.26	2.33
12/02/2020 12:43:40	120220	12022020	124340	81.93	12.418817	-57.245023	82.03	-0.610	-0.110	2.120	81.95	-2.00	2.60	 	 	 	 	 	 	 	 	 	 	 	 	 	 	 	 	 	 	1581511420	1.19	2.20
12/02/2020 12:43:41	120220	12022020	124341	81.99	12.418813	-57.245020	82.08	0.140	-1.290	2.210	81.99	-3.00	2.70	 	 	 	 	 	 	 	 	 	 	 	 	 	 	 	 	 	 	1581511421	0.99	1.83
12/02/2020 12:43:42	120220	12022020	124342	81.90	12.418812	-57.245015	81.97	0.710	-1.790	2.310	81.87	-2.90	2.80	 	 	 	 	 	 	 	 	 	 	 	 	 	 	 	 	 	 	1581511422	1.19	2.20
12/02/2020 12:43:43	120220	12022020	124343	81.73	12.418810	-57.245013	81.80	0.690	-0.890	2.370	81.69	-1.60	2.70	 	 	 	 	 	 	 	 	 	 	 	 	 	 	 	 	 	 	1581511423	0.45	0.83
12/02/2020 12:43:44	120220	12022020	124344	81.58	12.418810	-57.245018	81.64	0.210	0.600	2.160	81.56	-0.30	2.40	 	 	 	 	 	 	 	 	 	 	 	 	 	 	 	 	 	 	1581511424	1.16	2.15
12/02/2020 12:43:45	120220	12022020	124345	81.48	12.418810	-57.245027	81.54	-0.270	1.340	1.640	81.46	-0.10	1.80	 	 	 	 	 	 	 	 	 	 	 	 	 	 	 	 	 	 	1581511425	1.53	2.83
12/02/2020 12:43:46	120220	12022020	124346	81.41	12.418813	-57.245030	81.46	-0.330	0.800	1.000	81.40	-1.10	1.20	 	 	 	 	 	 	 	 	 	 	 	 	 	 	 	 	 	 	1581511426	1.04	1.93
12/02/2020 12:43:47	120220	12022020	124347	81.44	12.418820	-57.245027	81.49	0.040	-0.380	0.390	81.46	-2.20	0.60	 	 	 	 	 	 	 	 	 	 	 	 	 	 	 	 	 	 	1581511427	1.22	2.26
12/02/2020 12:43:48	120220	12022020	124348	81.59	12.418825	-57.245023	81.64	0.390	-1.100	-0.040	81.62	-2.50	0.40	 	 	 	 	 	 	 	 	 	 	 	 	 	 	 	 	 	 	1581511428	1.35	2.50
12/02/2020 12:43:49	120220	12022020	124349	81.69	12.418827	-57.245023	81.74	0.350	-0.920	0.040	81.69	-2.10	0.70	 	 	 	 	 	 	 	 	 	 	 	 	 	 	 	 	 	 	1581511429	0.49	0.91
12/02/2020 12:43:50	120220	12022020	124350	81.63	12.418823	-57.245025	81.67	-0.050	-0.320	0.780	81.60	-1.50	1.60	 	 	 	 	 	 	 	 	 	 	 	 	 	 	 	 	 	 	1581511430	0.79	1.46
12/02/2020 12:43:51	120220	12022020	124351	81.48	12.418817	-57.245028	81.54	-0.440	0.160	1.820	81.45	-1.10	2.60	 	 	 	 	 	 	 	 	 	 	 	 	 	 	 	 	 	 	1581511431	1.54	2.85
12/02/2020 12:43:52	120220	12022020	124352	81.41	12.418810	-57.245030	81.50	-0.500	0.380	2.560	81.41	-1.00	3.10	 	 	 	 	 	 	 	 	 	 	 	 	 	 	 	 	 	 	1581511432	1.60	2.96
12/02/2020 12:43:53	120220	12022020	124353	81.46	12.418805	-57.245030	81.57	-0.290	0.300	2.830	81.47	-1.20	3.30	 	 	 	 	 	 	 	 	 	 	 	 	 	 	 	 	 	 	1581511433	1.07	1.98
12/02/2020 12:43:54	120220	12022020	124354	81.49	12.418803	-57.245030	81.59	-0.080	-0.080	2.780	81.49	-1.70	3.10	 	 	 	 	 	 	 	 	 	 	 	 	 	 	 	 	 	 	1581511434	0.51	0.94
12/02/2020 12:43:55	120220	12022020	124355	81.51	12.418802	-57.245030	81.60	0.020	-0.610	2.470	81.53	-2.20	2.70	 	 	 	 	 	 	 	 	 	 	 	 	 	 	 	 	 	 	1581511435	0.18	0.33
12/02/2020 12:43:56	120220	12022020	124356	81.60	12.418805	-57.245028	81.67	0.140	-0.940	1.960	81.61	-2.30	2.20	 	 	 	 	 	 	 	 	 	 	 	 	 	 	 	 	 	 	1581511436	0.44	0.81
12/02/2020 12:43:57	120220	12022020	124357	81.65	12.418807	-57.245028	81.70	0.340	-0.880	1.420	81.63	-2.10	1.70	 	 	 	 	 	 	 	 	 	 	 	 	 	 	 	 	 	 	1581511437	0.65	1.20
12/02/2020 12:43:58	120220	12022020	124358	81.51	12.418810	-57.245030	81.53	0.470	-0.420	1.050	81.46	-1.50	1.40	 	 	 	 	 	 	 	 	 	 	 	 	 	 	 	 	 	 	1581511438	0.60	1.11
12/02/2020 12:43:59	120220	12022020	124359	81.26	12.418812	-57.245032	81.28	0.340	0.250	0.780	81.22	-0.90	1.10	 	 	 	 	 	 	 	 	 	 	 	 	 	 	 	 	 	 	1581511439	0.59	1.09
12/02/2020 12:44:00	120220	12022020	124400	81.18	12.418813	-57.245035	81.23	0.050	0.640	0.520	81.21	-0.80	0.80	 	 	 	 	 	 	 	 	 	 	 	 	 	 	 	 	 	 	1581511440	0.73	1.35
12/02/2020 12:44:01	120220	12022020	124401	81.41	12.418815	-57.245037	81.49	-0.160	0.440	0.220	81.49	-1.20	0.60	 	 	 	 	 	 	 	 	 	 	 	 	 	 	 	 	 	 	1581511441	0.60	1.11
12/02/2020 12:44:02	120220	12022020	124402	81.81	12.418817	-57.245037	81.89	-0.130	-0.150	0.120	81.88	-1.80	0.70	1016.90	26.30	26.30	20.70	20.80	241.0	71.0	71.0	429.0	26.8	347.00	12.00	68.00	11.60	22560	10254.0	27.6	27.5	1581511442	0.53	0.98
12/02/2020 12:44:03	120220	12022020	124403	81.99	12.418817	-57.245033	82.02	-0.080	-0.600	0.490	81.98	-2.00	1.20	 	 	 	 	 	 	 	 	 	 	 	 	 	 	 	 	 	 	1581511443	0.50	0.93
12/02/2020 12:44:04	120220	12022020	124404	81.79	12.418813	-57.245033	81.80	-0.260	-0.440	1.310	81.73	-1.60	2.10	 	 	 	 	 	 	 	 	 	 	 	 	 	 	 	 	 	 	1581511444	0.84	1.56
12/02/2020 12:44:05	120220	12022020	124405	81.51	12.418807	-57.245035	81.57	-0.600	0.130	2.250	81.49	-1.00	3.00	 	 	 	 	 	 	 	 	 	 	 	 	 	 	 	 	 	 	1581511445	1.53	2.83
12/02/2020 12:44:06	120220	12022020	124406	81.46	12.418800	-57.245038	81.58	-0.660	0.360	2.910	81.48	-1.20	3.50	 	 	 	 	 	 	 	 	 	 	 	 	 	 	 	 	 	 	1581511446	1.77	3.28
12/02/2020 12:44:07	120220	12022020	124407	81.58	12.418795	-57.245038	81.70	-0.160	-0.350	3.130	81.60	-2.20	3.50	 	 	 	 	 	 	 	 	 	 	 	 	 	 	 	 	 	 	1581511447	1.12	2.07
12/02/2020 12:44:08	120220	12022020	124408	81.62	12.418793	-57.245035	81.71	0.640	-1.440	2.960	81.60	-3.00	3.20	 	 	 	 	 	 	 	 	 	 	 	 	 	 	 	 	 	 	1581511448	0.93	1.72
12/02/2020 12:44:09	120220	12022020	124409	81.43	12.418795	-57.245030	81.48	1.130	-1.670	2.440	81.38	-2.70	2.60	 	 	 	 	 	 	 	 	 	 	 	 	 	 	 	 	 	 	1581511449	1.22	2.26
12/02/2020 12:44:10	120220	12022020	124410	81.18	12.418802	-57.245030	81.22	0.930	-0.540	1.750	81.15	-1.20	1.90	 	 	 	 	 	 	 	 	 	 	 	 	 	 	 	 	 	 	1581511450	1.14	2.11
12/02/2020 12:44:11	120220	12022020	124411	81.15	12.418805	-57.245037	81.21	0.220	1.180	0.990	81.18	0.30	1.10	 	 	 	 	 	 	 	 	 	 	 	 	 	 	 	 	 	 	1581511451	1.75	3.24
12/02/2020 12:44:12	120220	12022020	124412	81.48	12.418810	-57.245045	81.57	-0.470	2.000	0.130	81.58	0.40	0.30	 	 	 	 	 	 	 	 	 	 	 	 	 	 	 	 	 	 	1581511452	2.07	3.83
12/02/2020 12:44:13	120220	12022020	124413	81.94	12.418813	-57.245048	81.99	-0.680	1.020	-0.440	82.00	-1.10	-0.00	 	 	 	 	 	 	 	 	 	 	 	 	 	 	 	 	 	 	1581511453	1.19	2.20
12/02/2020 12:44:14	120220	12022020	124414	82.09	12.418815	-57.245043	82.09	-0.470	-0.880	-0.260	82.07	-2.90	0.50	 	 	 	 	 	 	 	 	 	 	 	 	 	 	 	 	 	 	1581511454	1.09	2.02
12/02/2020 12:44:15	120220	12022020	124415	81.86	12.418812	-57.245035	81.84	-0.150	-1.950	0.510	81.79	-3.30	1.30	 	 	 	 	 	 	 	 	 	 	 	 	 	 	 	 	 	 	1581511455	1.84	3.41
12/02/2020 12:44:16	120220	12022020	124416	81.46	12.418805	-57.245033	81.44	0.010	-1.460	1.390	81.37	-2.30	2.10	 	 	 	 	 	 	 	 	 	 	 	 	 	 	 	 	 	 	1581511456	1.59	2.94
12/02/2020 12:44:17	120220	12022020	124417	81.04	12.418798	-57.245037	81.04	0.030	-0.230	2.040	80.96	-1.20	2.60	 	 	 	 	 	 	 	 	 	 	 	 	 	 	 	 	 	 	1581511457	1.59	2.94
12/02/2020 12:44:18	120220	12022020	124418	80.73	12.418795	-57.245042	80.77	0.070	0.460	2.270	80.70	-0.90	2.70	 	 	 	 	 	 	 	 	 	 	 	 	 	 	 	 	 	 	1581511458	1.31	2.43
12/02/2020 12:44:19	120220	12022020	124419	80.71	12.418797	-57.245043	80.79	0.170	0.340	2.050	80.74	-1.20	2.30	 	 	 	 	 	 	 	 	 	 	 	 	 	 	 	 	 	 	1581511459	0.39	0.72
12/02/2020 12:44:20	120220	12022020	124420	81.07	12.418800	-57.245043	81.20	0.200	-0.050	1.500	81.18	-1.60	1.70	 	 	 	 	 	 	 	 	 	 	 	 	 	 	 	 	 	 	1581511460	0.79	1.46
12/02/2020 12:44:21	120220	12022020	124421	81.63	12.418803	-57.245042	81.74	0.150	-0.350	0.890	81.73	-1.80	1.20	 	 	 	 	 	 	 	 	 	 	 	 	 	 	 	 	 	 	1581511461	0.94	1.74
12/02/2020 12:44:22	120220	12022020	124422	81.90	12.418807	-57.245042	81.94	0.110	-0.480	0.630	81.90	-1.80	1.10	 	 	 	 	 	 	 	 	 	 	 	 	 	 	 	 	 	 	1581511462	0.47	0.87
12/02/2020 12:44:23	120220	12022020	124423	81.76	12.418805	-57.245040	81.77	0.080	-0.300	0.830	81.71	-1.50	1.50	 	 	 	 	 	 	 	 	 	 	 	 	 	 	 	 	 	 	1581511463	0.27	0.50
12/02/2020 12:44:24	120220	12022020	124424	81.49	12.418802	-57.245042	81.51	-0.060	0.200	1.360	81.44	-1.00	2.00	 	 	 	 	 	 	 	 	 	 	 	 	 	 	 	 	 	 	1581511464	0.69	1.28
12/02/2020 12:44:25	120220	12022020	124425	81.32	12.418798	-57.245043	81.36	-0.270	0.580	1.890	81.30	-0.80	2.50	 	 	 	 	 	 	 	 	 	 	 	 	 	 	 	 	 	 	1581511465	0.93	1.72
12/02/2020 12:44:26	120220	12022020	124426	81.36	12.418797	-57.245047	81.44	-0.340	0.240	2.050	81.39	-1.50	2.40	 	 	 	 	 	 	 	 	 	 	 	 	 	 	 	 	 	 	1581511466	0.60	1.11
12/02/2020 12:44:27	120220	12022020	124427	81.55	12.418797	-57.245045	81.63	-0.080	-0.760	1.860	81.58	-2.50	2.20	 	 	 	 	 	 	 	 	 	 	 	 	 	 	 	 	 	 	1581511467	0.35	0.65
12/02/2020 12:44:28	120220	12022020	124428	81.65	12.418798	-57.245040	81.70	0.380	-1.450	1.640	81.65	-2.80	2.00	 	 	 	 	 	 	 	 	 	 	 	 	 	 	 	 	 	 	1581511468	1.00	1.85
12/02/2020 12:44:29	120220	12022020	124429	81.61	12.418800	-57.245037	81.64	0.680	-1.120	1.510	81.59	-2.10	1.90	 	 	 	 	 	 	 	 	 	 	 	 	 	 	 	 	 	 	1581511469	0.60	1.11
12/02/2020 12:44:30	120220	12022020	124430	81.56	12.418800	-57.245040	81.61	0.570	-0.190	1.510	81.56	-1.20	2.00	 	 	 	 	 	 	 	 	 	 	 	 	 	 	 	 	 	 	1581511470	0.38	0.70
12/02/2020 12:44:31	120220	12022020	124431	81.59	12.418798	-57.245042	81.65	0.120	0.530	1.690	81.60	-0.70	2.20	 	 	 	 	 	 	 	 	 	 	 	 	 	 	 	 	 	 	1581511471	0.74	1.37
12/02/2020 12:44:32	120220	12022020	124432	81.59	12.418797	-57.245043	81.64	-0.360	0.690	1.860	81.59	-0.70	2.30	 	 	 	 	 	 	 	 	 	 	 	 	 	 	 	 	 	 	1581511472	0.55	1.02
12/02/2020 12:44:33	120220	12022020	124433	81.62	12.418797	-57.245043	81.69	-0.630	0.540	1.640	81.65	-0.90	1.90	 	 	 	 	 	 	 	 	 	 	 	 	 	 	 	 	 	 	1581511473	0.16	0.30
12/02/2020 12:44:34	120220	12022020	124434	81.80	12.418798	-57.245043	81.86	-0.650	0.460	1.150	81.83	-0.90	1.40	 	 	 	 	 	 	 	 	 	 	 	 	 	 	 	 	 	 	1581511474	0.51	0.94
12/02/2020 12:44:35	120220	12022020	124435	81.93	12.418802	-57.245045	81.96	-0.510	0.350	0.770	81.94	-1.20	1.20	 	 	 	 	 	 	 	 	 	 	 	 	 	 	 	 	 	 	1581511475	0.78	1.44
12/02/2020 12:44:36	120220	12022020	124436	81.91	12.418803	-57.245047	81.94	-0.220	-0.280	0.690	81.90	-2.10	1.20	 	 	 	 	 	 	 	 	 	 	 	 	 	 	 	 	 	 	1581511476	0.51	0.94
12/02/2020 12:44:37	120220	12022020	124437	81.85	12.418803	-57.245045	81.89	0.300	-1.550	0.820	81.84	-3.40	1.40	 	 	 	 	 	 	 	 	 	 	 	 	 	 	 	 	 	 	1581511477	0.45	0.83
12/02/2020 12:44:38	120220	12022020	124438	81.75	12.418802	-57.245038	81.78	0.880	-2.530	1.180	81.71	-3.80	1.80	 	 	 	 	 	 	 	 	 	 	 	 	 	 	 	 	 	 	1581511478	1.45	2.69
12/02/2020 12:44:39	120220	12022020	124439	81.54	12.418798	-57.245033	81.58	1.090	-1.880	1.640	81.50	-2.40	2.20	 	 	 	 	 	 	 	 	 	 	 	 	 	 	 	 	 	 	1581511479	1.37	2.54
12/02/2020 12:44:40	120220	12022020	124440	81.35	12.418795	-57.245035	81.40	0.600	0.280	1.760	81.33	-0.10	2.10	 	 	 	 	 	 	 	 	 	 	 	 	 	 	 	 	 	 	1581511480	0.72	1.33
12/02/2020 12:44:41	120220	12022020	124441	81.27	12.418795	-57.245043	81.33	-0.330	2.270	1.390	81.27	1.30	1.60	 	 	 	 	 	 	 	 	 	 	 	 	 	 	 	 	 	 	1581511481	1.89	3.50
12/02/2020 12:44:42	120220	12022020	124442	81.29	12.418798	-57.245052	81.34	-1.130	2.680	0.810	81.30	0.90	1.10	 	 	 	 	 	 	 	 	 	 	 	 	 	 	 	 	 	 	1581511482	1.88	3.48
12/02/2020 12:44:43	120220	12022020	124443	81.38	12.418803	-57.245053	81.43	-1.260	1.320	0.390	81.40	-0.90	0.70	 	 	 	 	 	 	 	 	 	 	 	 	 	 	 	 	 	 	1581511483	0.97	1.80
12/02/2020 12:44:44	120220	12022020	124444	81.44	12.418805	-57.245048	81.48	-0.620	-0.910	0.180	81.44	-3.10	0.60	 	 	 	 	 	 	 	 	 	 	 	 	 	 	 	 	 	 	1581511484	1.20	2.22
12/02/2020 12:44:45	120220	12022020	124445	81.41	12.418807	-57.245042	81.44	0.320	-2.610	0.250	81.39	-4.20	0.80	 	 	 	 	 	 	 	 	 	 	 	 	 	 	 	 	 	 	1581511485	1.65	3.06
12/02/2020 12:44:46	120220	12022020	124446	81.34	12.418807	-57.245037	81.40	0.900	-2.670	0.600	81.34	-3.50	1.20	 	 	 	 	 	 	 	 	 	 	 	 	 	 	 	 	 	 	1581511486	1.13	2.09
12/02/2020 12:44:47	120220	12022020	124447	81.43	12.418803	-57.245038	81.53	0.760	-1.180	1.030	81.46	-1.80	1.70	 	 	 	 	 	 	 	 	 	 	 	 	 	 	 	 	 	 	1581511487	0.63	1.17
12/02/2020 12:44:48	120220	12022020	124448	81.60	12.418800	-57.245045	81.69	0.150	0.520	1.510	81.62	-0.40	2.20	 	 	 	 	 	 	 	 	 	 	 	 	 	 	 	 	 	 	1581511488	1.61	2.98
12/02/2020 12:44:49	120220	12022020	124449	81.63	12.418797	-57.245050	81.71	-0.360	1.290	2.070	81.62	-0.10	2.70	 	 	 	 	 	 	 	 	 	 	 	 	 	 	 	 	 	 	1581511489	1.49	2.76
12/02/2020 12:44:50	120220	12022020	124450	81.57	12.418793	-57.245052	81.65	-0.380	1.020	2.400	81.57	-0.70	2.80	 	 	 	 	 	 	 	 	 	 	 	 	 	 	 	 	 	 	1581511490	0.77	1.43
12/02/2020 12:44:51	120220	12022020	124451	81.57	12.418792	-57.245048	81.65	0.010	0.210	2.250	81.57	-1.50	2.50	 	 	 	 	 	 	 	 	 	 	 	 	 	 	 	 	 	 	1581511491	0.64	1.19
12/02/2020 12:44:52	120220	12022020	124452	81.55	12.418793	-57.245045	81.61	0.380	-0.500	1.900	81.53	-2.00	2.20	 	 	 	 	 	 	 	 	 	 	 	 	 	 	 	 	 	 	1581511492	0.78	1.44
12/02/2020 12:44:53	120220	12022020	124453	81.44	12.418795	-57.245043	81.49	0.390	-0.700	1.690	81.43	-2.00	2.10	 	 	 	 	 	 	 	 	 	 	 	 	 	 	 	 	 	 	1581511493	0.60	1.11
12/02/2020 12:44:54	120220	12022020	124454	81.38	12.418797	-57.245043	81.43	-0.020	-0.450	1.590	81.37	-1.70	2.00	 	 	 	 	 	 	 	 	 	 	 	 	 	 	 	 	 	 	1581511494	0.42	0.78
12/02/2020 12:44:55	120220	12022020	124455	81.38	12.418797	-57.245047	81.44	-0.510	-0.110	1.400	81.40	-1.40	1.70	 	 	 	 	 	 	 	 	 	 	 	 	 	 	 	 	 	 	1581511495	0.65	1.20
12/02/2020 12:44:56	120220	12022020	124456	81.52	12.418798	-57.245050	81.60	-0.650	0.040	0.900	81.57	-1.30	1.10	 	 	 	 	 	 	 	 	 	 	 	 	 	 	 	 	 	 	1581511496	0.66	1.22
12/02/2020 12:44:57	120220	12022020	124457	81.76	12.418802	-57.245052	81.82	-0.250	-0.050	0.310	81.80	-1.50	0.60	 	 	 	 	 	 	 	 	 	 	 	 	 	 	 	 	 	 	1581511497	0.62	1.15
12/02/2020 12:44:58	120220	12022020	124458	81.87	12.418803	-57.245052	81.89	0.430	-0.490	0.170	81.87	-2.10	0.70	 	 	 	 	 	 	 	 	 	 	 	 	 	 	 	 	 	 	1581511498	0.47	0.87
12/02/2020 12:44:59	120220	12022020	124459	81.83	12.418803	-57.245048	81.84	0.910	-1.130	0.530	81.81	-2.60	1.20	 	 	 	 	 	 	 	 	 	 	 	 	 	 	 	 	 	 	1581511499	0.65	1.20
12/02/2020 12:45:00	120220	12022020	124500	81.74	12.418802	-57.245043	81.77	0.830	-1.190	1.170	81.72	-2.20	1.90	 	 	 	 	 	 	 	 	 	 	 	 	 	 	 	 	 	 	1581511500	1.06	1.96
12/02/2020 12:45:01	120220	12022020	124501	81.65	12.418798	-57.245043	81.71	0.210	-0.160	1.810	81.64	-0.90	2.40	 	 	 	 	 	 	 	 	 	 	 	 	 	 	 	 	 	 	1581511501	0.81	1.50
12/02/2020 12:45:02	120220	12022020	124502	81.62	12.418793	-57.245047	81.69	-0.560	1.290	2.220	81.62	0.30	2.70	1017.00	26.30	26.40	20.60	20.70	243.0	71.0	71.0	428.0	26.8	348.00	11.80	69.00	11.30	22773	11105.0	27.5	27.5	1581511502	1.38	2.56
12/02/2020 12:45:03	120220	12022020	124503	81.60	12.418790	-57.245053	81.67	-0.980	1.910	2.310	81.60	0.40	2.70	 	 	 	 	 	 	 	 	 	 	 	 	 	 	 	 	 	 	1581511503	1.61	2.98
12/02/2020 12:45:04	120220	12022020	124504	81.60	12.418790	-57.245057	81.67	-0.770	1.040	2.040	81.61	-1.00	2.30	 	 	 	 	 	 	 	 	 	 	 	 	 	 	 	 	 	 	1581511504	0.63	1.17
12/02/2020 12:45:05	120220	12022020	124505	81.69	12.418792	-57.245053	81.78	-0.150	-0.670	1.530	81.72	-2.60	1.80	 	 	 	 	 	 	 	 	 	 	 	 	 	 	 	 	 	 	1581511505	0.92	1.70
12/02/2020 12:45:06	120220	12022020	124506	81.83	12.418797	-57.245048	81.89	0.400	-1.880	1.110	81.85	-3.40	1.40	 	 	 	 	 	 	 	 	 	 	 	 	 	 	 	 	 	 	1581511506	1.46	2.70
12/02/2020 12:45:07	120220	12022020	124507	81.90	12.418800	-57.245047	81.95	0.570	-1.960	0.920	81.90	-3.10	1.40	 	 	 	 	 	 	 	 	 	 	 	 	 	 	 	 	 	 	1581511507	0.74	1.37
12/02/2020 12:45:08	120220	12022020	124508	81.85	12.418800	-57.245047	81.89	0.480	-1.330	0.980	81.83	-2.40	1.50	 	 	 	 	 	 	 	 	 	 	 	 	 	 	 	 	 	 	1581511508	0.27	0.50
12/02/2020 12:45:09	120220	12022020	124509	81.74	12.418798	-57.245050	81.79	0.370	-0.570	1.200	81.72	-1.60	1.80	 	 	 	 	 	 	 	 	 	 	 	 	 	 	 	 	 	 	1581511509	0.50	0.93
12/02/2020 12:45:10	120220	12022020	124510	81.64	12.418797	-57.245050	81.69	0.270	0.250	1.480	81.64	-1.30	1.80	 	 	 	 	 	 	 	 	 	 	 	 	 	 	 	 	 	 	1581511510	0.42	0.78
12/02/2020 12:45:11	120220	12022020	124511	81.62	12.418795	-57.245052	81.70	0.020	1.100	1.530	81.64	0.00	1.90	 	 	 	 	 	 	 	 	 	 	 	 	 	 	 	 	 	 	1581511511	0.43	0.80
12/02/2020 12:45:12	120220	12022020	124512	81.79	12.418795	-57.245055	81.88	-0.360	1.520	1.260	81.84	0.10	1.50	 	 	 	 	 	 	 	 	 	 	 	 	 	 	 	 	 	 	1581511512	0.57	1.06
12/02/2020 12:45:13	120220	12022020	124513	82.10	12.418797	-57.245057	82.18	-0.600	1.030	0.870	82.15	-0.80	1.20	 	 	 	 	 	 	 	 	 	 	 	 	 	 	 	 	 	 	1581511513	0.46	0.85
12/02/2020 12:45:14	120220	12022020	124514	82.31	12.418798	-57.245055	82.37	-0.420	-0.170	0.760	82.33	-2.10	1.30	 	 	 	 	 	 	 	 	 	 	 	 	 	 	 	 	 	 	1581511514	0.51	0.94
12/02/2020 12:45:15	120220	12022020	124515	82.33	12.418798	-57.245050	82.36	0.110	-1.300	0.970	82.30	-2.90	1.50	 	 	 	 	 	 	 	 	 	 	 	 	 	 	 	 	 	 	1581511515	0.93	1.72
12/02/2020 12:45:16	120220	12022020	124516	82.12	12.418798	-57.245047	82.13	0.550	-1.620	1.370	82.05	-2.80	2.00	 	 	 	 	 	 	 	 	 	 	 	 	 	 	 	 	 	 	1581511516	0.80	1.48
12/02/2020 12:45:17	120220	12022020	124517	81.73	12.418795	-57.245047	81.74	0.570	-1.150	1.900	81.65	-2.20	2.50	 	 	 	 	 	 	 	 	 	 	 	 	 	 	 	 	 	 	1581511517	0.42	0.78
12/02/2020 12:45:18	120220	12022020	124518	81.43	12.418793	-57.245048	81.49	0.220	-0.440	2.350	81.41	-1.60	2.80	 	 	 	 	 	 	 	 	 	 	 	 	 	 	 	 	 	 	1581511518	0.62	1.15
12/02/2020 12:45:19	120220	12022020	124519	81.52	12.418792	-57.245050	81.63	-0.160	0.070	2.330	81.59	-1.10	2.60	 	 	 	 	 	 	 	 	 	 	 	 	 	 	 	 	 	 	1581511519	0.47	0.87
12/02/2020 12:45:20	120220	12022020	124520	81.87	12.418792	-57.245050	81.98	-0.370	0.480	1.860	81.95	-0.70	2.00	 	 	 	 	 	 	 	 	 	 	 	 	 	 	 	 	 	 	1581511520	0.19	0.35
12/02/2020 12:45:21	120220	12022020	124521	82.24	12.418795	-57.245052	82.33	-0.380	0.820	1.170	82.31	-0.50	1.30	 	 	 	 	 	 	 	 	 	 	 	 	 	 	 	 	 	 	1581511521	0.64	1.19
12/02/2020 12:45:22	120220	12022020	124522	82.47	12.418798	-57.245052	82.49	-0.270	0.740	0.640	82.47	-0.90	1.00	 	 	 	 	 	 	 	 	 	 	 	 	 	 	 	 	 	 	1581511522	0.67	1.24
12/02/2020 12:45:23	120220	12022020	124523	82.26	12.418798	-57.245052	82.22	-0.110	-0.010	0.790	82.16	-1.80	1.40	 	 	 	 	 	 	 	 	 	 	 	 	 	 	 	 	 	 	1581511523	0.19	0.35
12/02/2020 12:45:24	120220	12022020	124524	81.71	12.418795	-57.245047	81.68	0.080	-1.020	1.310	81.61	-2.70	1.90	 	 	 	 	 	 	 	 	 	 	 	 	 	 	 	 	 	 	1581511524	1.04	1.93
12/02/2020 12:45:25	120220	12022020	124525	81.35	12.418795	-57.245043	81.39	0.300	-1.550	1.470	81.34	-2.90	1.80	 	 	 	 	 	 	 	 	 	 	 	 	 	 	 	 	 	 	1581511525	1.07	1.98
12/02/2020 12:45:26	120220	12022020	124526	81.47	12.418797	-57.245040	81.56	0.490	-1.280	1.110	81.54	-2.30	1.40	 	 	 	 	 	 	 	 	 	 	 	 	 	 	 	 	 	 	1581511526	0.66	1.22
12/02/2020 12:45:27	120220	12022020	124527	81.82	12.418800	-57.245042	81.89	0.480	-0.310	0.720	81.88	-1.20	1.10	 	 	 	 	 	 	 	 	 	 	 	 	 	 	 	 	 	 	1581511527	0.82	1.52
12/02/2020 12:45:28	120220	12022020	124528	82.02	12.418802	-57.245045	82.05	0.160	0.810	0.700	82.02	-0.20	1.20	 	 	 	 	 	 	 	 	 	 	 	 	 	 	 	 	 	 	1581511528	0.82	1.52
12/02/2020 12:45:29	120220	12022020	124529	81.85	12.418800	-57.245048	81.83	-0.300	1.310	1.040	81.77	-0.10	1.60	 	 	 	 	 	 	 	 	 	 	 	 	 	 	 	 	 	 	1581511529	0.77	1.43
12/02/2020 12:45:30	120220	12022020	124530	81.41	12.418798	-57.245048	81.40	-0.570	0.770	1.410	81.32	-1.10	1.90	 	 	 	 	 	 	 	 	 	 	 	 	 	 	 	 	 	 	1581511530	0.39	0.72
12/02/2020 12:45:31	120220	12022020	124531	81.03	12.418798	-57.245045	81.05	-0.420	-0.490	1.630	80.98	-2.30	2.10	 	 	 	 	 	 	 	 	 	 	 	 	 	 	 	 	 	 	1581511531	0.85	1.57
12/02/2020 12:45:32	120220	12022020	124532	80.92	12.418798	-57.245038	80.99	-0.070	-1.400	1.700	80.93	-2.80	2.10	 	 	 	 	 	 	 	 	 	 	 	 	 	 	 	 	 	 	1581511532	1.34	2.48
12/02/2020 12:45:33	120220	12022020	124533	81.11	12.418800	-57.245035	81.21	0.130	-1.240	1.510	81.18	-2.30	1.80	 	 	 	 	 	 	 	 	 	 	 	 	 	 	 	 	 	 	1581511533	0.75	1.39
12/02/2020 12:45:34	120220	12022020	124534	81.50	12.418800	-57.245037	81.62	0.050	-0.340	1.050	81.59	-1.30	1.30	 	 	 	 	 	 	 	 	 	 	 	 	 	 	 	 	 	 	1581511534	0.39	0.72
12/02/2020 12:45:35	120220	12022020	124535	81.83	12.418802	-57.245042	81.90	-0.130	0.400	0.760	81.85	-0.80	1.20	 	 	 	 	 	 	 	 	 	 	 	 	 	 	 	 	 	 	1581511535	0.88	1.63
12/02/2020 12:45:36	120220	12022020	124536	81.78	12.418800	-57.245043	81.80	-0.220	0.490	0.980	81.72	-1.00	1.60	 	 	 	 	 	 	 	 	 	 	 	 	 	 	 	 	 	 	1581511536	0.41	0.76
12/02/2020 12:45:37	120220	12022020	124537	81.27	12.418798	-57.245042	81.24	-0.160	0.070	1.520	81.12	-1.50	2.20	 	 	 	 	 	 	 	 	 	 	 	 	 	 	 	 	 	 	1581511537	0.65	1.20
12/02/2020 12:45:38	120220	12022020	124538	80.44	12.418795	-57.245038	80.40	0.040	-0.370	1.920	80.29	-1.90	2.30	 	 	 	 	 	 	 	 	 	 	 	 	 	 	 	 	 	 	1581511538	0.93	1.72
12/02/2020 12:45:39	120220	12022020	124539	79.88	12.418797	-57.245035	79.93	0.370	-0.680	1.680	79.84	-2.10	1.80	 	 	 	 	 	 	 	 	 	 	 	 	 	 	 	 	 	 	1581511539	0.58	1.07
12/02/2020 12:45:40	120220	12022020	124540	79.98	12.418802	-57.245033	80.10	0.680	-0.910	0.950	80.06	-2.30	1.10	 	 	 	 	 	 	 	 	 	 	 	 	 	 	 	 	 	 	1581511540	1.30	2.41
12/02/2020 12:45:41	120220	12022020	124541	80.50	12.418810	-57.245032	80.65	0.680	-0.850	0.220	80.63	-2.00	0.40	 	 	 	 	 	 	 	 	 	 	 	 	 	 	 	 	 	 	1581511541	1.70	3.15
12/02/2020 12:45:42	120220	12022020	124542	81.12	12.418815	-57.245032	81.25	0.190	-0.240	-0.260	81.22	-1.20	0.10	 	 	 	 	 	 	 	 	 	 	 	 	 	 	 	 	 	 	1581511542	1.16	2.15
12/02/2020 12:45:43	120220	12022020	124543	81.41	12.418815	-57.245033	81.47	-0.520	0.700	-0.080	81.40	-0.30	0.70	 	 	 	 	 	 	 	 	 	 	 	 	 	 	 	 	 	 	1581511543	0.40	0.74
12/02/2020 12:45:44	120220	12022020	124544	81.15	12.418810	-57.245037	81.16	-1.020	1.330	0.900	81.05	0.00	1.80	 	 	 	 	 	 	 	 	 	 	 	 	 	 	 	 	 	 	1581511544	1.31	2.43
12/02/2020 12:45:45	120220	12022020	124545	80.62	12.418802	-57.245037	80.67	-1.070	1.180	2.150	80.53	-0.50	3.00	 	 	 	 	 	 	 	 	 	 	 	 	 	 	 	 	 	 	1581511545	1.76	3.26
12/02/2020 12:45:46	120220	12022020	124546	80.26	12.418795	-57.245035	80.35	-0.710	0.260	2.910	80.26	-0.80	3.20	 	 	 	 	 	 	 	 	 	 	 	 	 	 	 	 	 	 	1581511546	1.48	2.74
12/02/2020 12:45:47	120220	12022020	124547	80.10	12.418793	-57.245032	80.20	-0.100	-1.050	3.040	80.07	-2.90	3.40	 	 	 	 	 	 	 	 	 	 	 	 	 	 	 	 	 	 	1581511547	0.90	1.67
12/02/2020 12:45:48	120220	12022020	124548	79.96	12.418795	-57.245027	80.07	0.570	-2.110	2.880	79.94	-3.70	3.20	 	 	 	 	 	 	 	 	 	 	 	 	 	 	 	 	 	 	1581511548	1.07	1.98
12/02/2020 12:45:49	120220	12022020	124549	79.89	12.418798	-57.245023	80.02	1.070	-2.310	2.520	79.90	-3.40	2.70	 	 	 	 	 	 	 	 	 	 	 	 	 	 	 	 	 	 	1581511549	1.18	2.19
12/02/2020 12:45:50	120220	12022020	124550	80.02	12.418803	-57.245022	80.15	1.180	-1.450	1.900	80.06	-2.20	2.00	 	 	 	 	 	 	 	 	 	 	 	 	 	 	 	 	 	 	1581511550	0.91	1.69
12/02/2020 12:45:51	120220	12022020	124551	80.23	12.418807	-57.245025	80.33	0.860	0.020	1.230	80.25	-0.70	1.40	 	 	 	 	 	 	 	 	 	 	 	 	 	 	 	 	 	 	1581511551	1.02	1.89
12/02/2020 12:45:52	120220	12022020	124552	80.23	12.418810	-57.245028	80.30	0.160	1.380	0.790	80.21	0.40	1.10	 	 	 	 	 	 	 	 	 	 	 	 	 	 	 	 	 	 	1581511552	1.07	1.98
12/02/2020 12:45:53	120220	12022020	124553	80.09	12.418810	-57.245033	80.14	-0.720	2.080	0.550	80.05	0.70	0.90	 	 	 	 	 	 	 	 	 	 	 	 	 	 	 	 	 	 	1581511553	0.75	1.39
12/02/2020 12:45:54	120220	12022020	124554	79.92	12.418810	-57.245035	79.97	-1.380	1.940	0.380	79.88	0.30	0.80	 	 	 	 	 	 	 	 	 	 	 	 	 	 	 	 	 	 	1581511554	0.44	0.81
12/02/2020 12:45:55	120220	12022020	124555	79.69	12.418810	-57.245035	79.73	-1.390	0.910	0.330	79.64	-1.10	0.80	 	 	 	 	 	 	 	 	 	 	 	 	 	 	 	 	 	 	1581511555	0.12	0.22
12/02/2020 12:45:56	120220	12022020	124556	79.48	12.418812	-57.245033	79.55	-0.680	-0.880	0.320	79.46	-3.00	0.70	 	 	 	 	 	 	 	 	 	 	 	 	 	 	 	 	 	 	1581511556	0.59	1.09
12/02/2020 12:45:57	120220	12022020	124557	79.50	12.418815	-57.245027	79.60	0.360	-2.550	0.220	79.54	-4.20	0.60	 	 	 	 	 	 	 	 	 	 	 	 	 	 	 	 	 	 	1581511557	1.32	2.44
12/02/2020 12:45:58	120220	12022020	124558	79.73	12.418817	-57.245022	79.85	1.050	-2.940	0.310	79.78	-4.00	0.90	 	 	 	 	 	 	 	 	 	 	 	 	 	 	 	 	 	 	1581511558	1.23	2.28
12/02/2020 12:45:59	120220	12022020	124559	79.85	12.418817	-57.245022	79.93	1.050	-1.830	0.890	79.84	-2.40	1.70	 	 	 	 	 	 	 	 	 	 	 	 	 	 	 	 	 	 	1581511559	0.24	0.44
12/02/2020 12:46:00	120220	12022020	124600	79.61	12.418812	-57.245025	79.65	0.550	0.030	1.780	79.54	-0.60	2.50	 	 	 	 	 	 	 	 	 	 	 	 	 	 	 	 	 	 	1581511560	1.27	2.35
12/02/2020 12:46:01	120220	12022020	124601	79.28	12.418805	-57.245030	79.37	-0.070	1.620	2.310	79.26	0.60	2.70	 	 	 	 	 	 	 	 	 	 	 	 	 	 	 	 	 	 	1581511561	1.63	3.02
12/02/2020 12:46:02	120220	12022020	124602	79.33	12.418803	-57.245033	79.46	-0.520	2.110	2.110	79.38	0.60	2.30	1017.00	26.40	26.40	20.80	20.80	273.0	71.0	71.0	427.0	26.8	349.00	11.60	70.00	11.20	24658	10663.0	27.5	27.5	1581511562	1.03	1.91
12/02/2020 12:46:03	120220	12022020	124603	79.65	12.418805	-57.245035	79.79	-0.610	1.360	1.630	79.71	-0.60	1.90	 	 	 	 	 	 	 	 	 	 	 	 	 	 	 	 	 	 	1581511563	0.45	0.83
12/02/2020 12:46:04	120220	12022020	124604	79.87	12.418808	-57.245032	79.95	-0.350	-0.080	1.330	79.88	-2.10	1.70	 	 	 	 	 	 	 	 	 	 	 	 	 	 	 	 	 	 	1581511564	0.93	1.72
12/02/2020 12:46:05	120220	12022020	124605	79.83	12.418810	-57.245027	79.88	0.030	-1.420	1.180	79.80	-3.10	1.50	 	 	 	 	 	 	 	 	 	 	 	 	 	 	 	 	 	 	1581511565	1.13	2.09
12/02/2020 12:46:06	120220	12022020	124606	79.66	12.418812	-57.245023	79.72	0.250	-1.860	1.060	79.63	-3.10	1.50	 	 	 	 	 	 	 	 	 	 	 	 	 	 	 	 	 	 	1581511566	0.90	1.67
12/02/2020 12:46:07	120220	12022020	124607	79.56	12.418812	-57.245023	79.64	0.230	-1.240	1.050	79.55	-2.20	1.50	 	 	 	 	 	 	 	 	 	 	 	 	 	 	 	 	 	 	1581511567	0.08	0.15
12/02/2020 12:46:08	120220	12022020	124608	79.59	12.418812	-57.245027	79.70	0.100	-0.220	1.200	79.62	-1.20	1.70	 	 	 	 	 	 	 	 	 	 	 	 	 	 	 	 	 	 	1581511568	0.80	1.48
12/02/2020 12:46:09	120220	12022020	124609	79.75	12.418810	-57.245030	79.87	-0.020	0.510	1.310	79.78	-0.70	1.70	 	 	 	 	 	 	 	 	 	 	 	 	 	 	 	 	 	 	1581511569	0.92	1.70
12/02/2020 12:46:10	120220	12022020	124610	79.95	12.418808	-57.245033	80.06	-0.040	0.610	1.130	79.99	-0.90	1.40	 	 	 	 	 	 	 	 	 	 	 	 	 	 	 	 	 	 	1581511570	0.47	0.87
12/02/2020 12:46:11	120220	12022020	124611	80.10	12.418810	-57.245032	80.19	0.140	0.060	0.830	80.11	-1.70	1.20	 	 	 	 	 	 	 	 	 	 	 	 	 	 	 	 	 	 	1581511571	0.25	0.46
12/02/2020 12:46:12	120220	12022020	124612	80.08	12.418812	-57.245028	80.15	0.460	-0.720	0.830	80.08	-2.30	1.30	 	 	 	 	 	 	 	 	 	 	 	 	 	 	 	 	 	 	1581511572	0.84	1.56
12/02/2020 12:46:13	120220	12022020	124613	80.02	12.418813	-57.245023	80.11	0.620	-0.930	1.000	80.03	-2.10	1.50	 	 	 	 	 	 	 	 	 	 	 	 	 	 	 	 	 	 	1581511573	0.94	1.74
12/02/2020 12:46:14	120220	12022020	124614	80.12	12.418813	-57.245023	80.24	0.340	-0.230	1.220	80.16	-1.20	1.70	 	 	 	 	 	 	 	 	 	 	 	 	 	 	 	 	 	 	1581511574	0.13	0.24
12/02/2020 12:46:15	120220	12022020	124615	80.26	12.418812	-57.245027	80.37	-0.240	0.650	1.490	80.27	-0.50	2.00	 	 	 	 	 	 	 	 	 	 	 	 	 	 	 	 	 	 	1581511575	0.88	1.63
12/02/2020 12:46:16	120220	12022020	124616	80.28	12.418808	-57.245032	80.38	-0.710	0.830	1.810	80.27	-0.70	2.40	 	 	 	 	 	 	 	 	 	 	 	 	 	 	 	 	 	 	1581511576	1.01	1.87
12/02/2020 12:46:17	120220	12022020	124617	80.18	12.418805	-57.245032	80.26	-0.740	0.160	2.140	80.14	-1.60	2.70	 	 	 	 	 	 	 	 	 	 	 	 	 	 	 	 	 	 	1581511577	0.72	1.33
12/02/2020 12:46:18	120220	12022020	124618	79.96	12.418802	-57.245027	80.03	-0.400	-0.710	2.330	79.90	-2.30	2.70	 	 	 	 	 	 	 	 	 	 	 	 	 	 	 	 	 	 	1581511578	0.98	1.81
12/02/2020 12:46:19	120220	12022020	124619	79.72	12.418802	-57.245025	79.81	0.000	-0.930	2.180	79.70	-2.10	2.40	 	 	 	 	 	 	 	 	 	 	 	 	 	 	 	 	 	 	1581511579	0.67	1.24
12/02/2020 12:46:20	120220	12022020	124620	79.74	12.418803	-57.245025	79.87	0.210	-0.460	1.640	79.79	-1.60	1.80	 	 	 	 	 	 	 	 	 	 	 	 	 	 	 	 	 	 	1581511580	0.36	0.67
12/02/2020 12:46:21	120220	12022020	124621	80.09	12.418805	-57.245028	80.22	0.250	-0.100	0.900	80.17	-1.50	1.10	 	 	 	 	 	 	 	 	 	 	 	 	 	 	 	 	 	 	1581511581	0.96	1.78
12/02/2020 12:46:22	120220	12022020	124622	80.38	12.418808	-57.245030	80.45	0.320	-0.410	0.420	80.39	-2.00	0.80	 	 	 	 	 	 	 	 	 	 	 	 	 	 	 	 	 	 	1581511582	0.72	1.33
12/02/2020 12:46:23	120220	12022020	124623	80.27	12.418812	-57.245028	80.28	0.510	-0.960	0.370	80.21	-2.40	0.90	 	 	 	 	 	 	 	 	 	 	 	 	 	 	 	 	 	 	1581511583	0.79	1.46
12/02/2020 12:46:24	120220	12022020	124624	79.97	12.418813	-57.245025	80.00	0.670	-0.920	0.560	79.97	-2.40	0.90	 	 	 	 	 	 	 	 	 	 	 	 	 	 	 	 	 	 	1581511584	0.87	1.61
12/02/2020 12:46:25	120220	12022020	124625	79.75	12.418813	-57.245023	79.80	0.570	-0.110	0.940	79.72	-1.00	1.60	 	 	 	 	 	 	 	 	 	 	 	 	 	 	 	 	 	 	1581511585	0.14	0.26
12/02/2020 12:46:26	120220	12022020	124626	79.61	12.418810	-57.245027	79.70	0.130	0.850	1.440	79.60	-0.30	2.00	 	 	 	 	 	 	 	 	 	 	 	 	 	 	 	 	 	 	1581511586	0.75	1.39
12/02/2020 12:46:27	120220	12022020	124627	79.64	12.418807	-57.245028	79.77	-0.510	1.280	1.790	79.67	-0.10	2.30	 	 	 	 	 	 	 	 	 	 	 	 	 	 	 	 	 	 	1581511587	0.99	1.83
12/02/2020 12:46:28	120220	12022020	124628	79.85	12.418803	-57.245030	80.01	-1.030	1.010	1.910	79.90	-0.60	2.30	 	 	 	 	 	 	 	 	 	 	 	 	 	 	 	 	 	 	1581511588	0.65	1.20
12/02/2020 12:46:29	120220	12022020	124629	80.09	12.418802	-57.245030	80.22	-1.080	0.270	1.870	80.12	-1.50	2.20	 	 	 	 	 	 	 	 	 	 	 	 	 	 	 	 	 	 	1581511589	0.27	0.50
12/02/2020 12:46:30	120220	12022020	124630	80.15	12.418802	-57.245028	80.25	-0.640	-0.630	1.760	80.14	-2.30	2.10	 	 	 	 	 	 	 	 	 	 	 	 	 	 	 	 	 	 	1581511590	0.32	0.59
12/02/2020 12:46:31	120220	12022020	124631	80.06	12.418803	-57.245027	80.15	0.010	-1.330	1.670	80.04	-2.90	2.10	 	 	 	 	 	 	 	 	 	 	 	 	 	 	 	 	 	 	1581511591	0.43	0.80
12/02/2020 12:46:32	120220	12022020	124632	79.96	12.418803	-57.245025	80.06	0.570	-1.720	1.730	79.95	-3.10	2.20	 	 	 	 	 	 	 	 	 	 	 	 	 	 	 	 	 	 	1581511592	0.37	0.69
12/02/2020 12:46:33	120220	12022020	124633	79.86	12.418803	-57.245022	79.96	0.960	-1.700	1.960	79.83	-2.90	2.50	 	 	 	 	 	 	 	 	 	 	 	 	 	 	 	 	 	 	1581511593	0.49	0.91
12/02/2020 12:46:34	120220	12022020	124634	79.64	12.418802	-57.245020	79.73	1.080	-1.060	2.120	79.60	-2.00	2.50	 	 	 	 	 	 	 	 	 	 	 	 	 	 	 	 	 	 	1581511594	0.51	0.94
12/02/2020 12:46:35	120220	12022020	124635	79.54	12.418802	-57.245022	79.67	0.760	0.170	1.830	79.57	-0.60	2.00	 	 	 	 	 	 	 	 	 	 	 	 	 	 	 	 	 	 	1581511595	0.12	0.22
12/02/2020 12:46:36	120220	12022020	124636	79.87	12.418805	-57.245025	80.03	-0.020	1.470	1.140	79.98	0.50	1.30	 	 	 	 	 	 	 	 	 	 	 	 	 	 	 	 	 	 	1581511596	1.01	1.87
12/02/2020 12:46:37	120220	12022020	124637	80.41	12.418808	-57.245030	80.56	-0.840	2.040	0.500	80.51	0.60	0.80	 	 	 	 	 	 	 	 	 	 	 	 	 	 	 	 	 	 	1581511597	1.34	2.48
12/02/2020 12:46:38	120220	12022020	124638	80.78	12.418810	-57.245033	80.87	-1.180	1.420	0.350	80.78	0.30	0.80	 	 	 	 	 	 	 	 	 	 	 	 	 	 	 	 	 	 	1581511598	0.63	1.17
12/02/2020 12:46:39	120220	12022020	124639	80.70	12.418807	-57.245030	80.72	-0.880	-0.020	0.640	80.63	-2.00	1.30	 	 	 	 	 	 	 	 	 	 	 	 	 	 	 	 	 	 	1581511599	0.68	1.26
12/02/2020 12:46:40	120220	12022020	124640	80.26	12.418805	-57.245025	80.29	-0.250	-1.430	1.190	80.17	-3.10	1.90	 	 	 	 	 	 	 	 	 	 	 	 	 	 	 	 	 	 	1581511600	1.32	2.44
12/02/2020 12:46:41	120220	12022020	124641	79.94	12.418802	-57.245020	80.04	0.300	-2.030	1.730	79.94	-3.30	2.30	 	 	 	 	 	 	 	 	 	 	 	 	 	 	 	 	 	 	1581511601	1.09	2.02
12/02/2020 12:46:42	120220	12022020	124642	80.17	12.418802	-57.245018	80.34	0.540	-1.630	1.850	80.28	-2.60	2.20	 	 	 	 	 	 	 	 	 	 	 	 	 	 	 	 	 	 	1581511602	0.20	0.37
12/02/2020 12:46:43	120220	12022020	124643	80.77	12.418802	-57.245022	80.93	0.580	-0.790	1.630	80.88	-1.80	2.00	 	 	 	 	 	 	 	 	 	 	 	 	 	 	 	 	 	 	1581511603	0.60	1.11
12/02/2020 12:46:44	120220	12022020	124644	81.11	12.418802	-57.245025	81.21	0.560	-0.070	1.680	81.13	-1.20	2.20	 	 	 	 	 	 	 	 	 	 	 	 	 	 	 	 	 	 	1581511604	0.56	1.04
12/02/2020 12:46:45	120220	12022020	124645	81.05	12.418800	-57.245025	81.12	0.380	0.400	1.980	81.02	-0.80	2.50	 	 	 	 	 	 	 	 	 	 	 	 	 	 	 	 	 	 	1581511605	0.47	0.87
12/02/2020 12:46:46	120220	12022020	124646	80.93	12.418798	-57.245025	81.01	-0.020	0.720	2.110	80.93	-0.50	2.50	 	 	 	 	 	 	 	 	 	 	 	 	 	 	 	 	 	 	1581511606	0.38	0.70
12/02/2020 12:46:47	120220	12022020	124647	80.99	12.418798	-57.245025	81.09	-0.470	0.890	1.940	81.02	-0.50	2.30	 	 	 	 	 	 	 	 	 	 	 	 	 	 	 	 	 	 	1581511607	0.13	0.24
12/02/2020 12:46:48	120220	12022020	124648	81.17	12.418800	-57.245027	81.25	-0.690	0.760	1.630	81.19	-0.80	1.90	 	 	 	 	 	 	 	 	 	 	 	 	 	 	 	 	 	 	1581511608	0.43	0.80
12/02/2020 12:46:49	120220	12022020	124649	81.27	12.418802	-57.245027	81.32	-0.550	0.120	1.240	81.26	-1.60	1.50	 	 	 	 	 	 	 	 	 	 	 	 	 	 	 	 	 	 	1581511609	0.32	0.59
12/02/2020 12:46:50	120220	12022020	124650	81.22	12.418803	-57.245025	81.25	-0.160	-0.800	0.860	81.22	-1.90	1.40	 	 	 	 	 	 	 	 	 	 	 	 	 	 	 	 	 	 	1581511610	0.49	0.91
12/02/2020 12:46:51	120220	12022020	124651	81.20	12.418805	-57.245023	81.24	0.280	-1.510	0.540	81.21	-3.00	0.90	 	 	 	 	 	 	 	 	 	 	 	 	 	 	 	 	 	 	1581511611	0.81	1.50
12/02/2020 12:46:52	120220	12022020	124652	81.27	12.418808	-57.245020	81.31	0.530	-1.560	0.480	81.28	-2.70	1.00	 	 	 	 	 	 	 	 	 	 	 	 	 	 	 	 	 	 	1581511612	0.68	1.26
12/02/2020 12:46:53	120220	12022020	124653	81.35	12.418808	-57.245020	81.41	0.470	-0.800	0.640	81.38	-1.70	1.20	 	 	 	 	 	 	 	 	 	 	 	 	 	 	 	 	 	 	1581511613	0.03	0.06
12/02/2020 12:46:54	120220	12022020	124654	81.46	12.418807	-57.245023	81.51	0.210	0.300	0.870	81.48	-0.70	1.40	 	 	 	 	 	 	 	 	 	 	 	 	 	 	 	 	 	 	1581511614	0.69	1.28
12/02/2020 12:46:55	120220	12022020	124655	81.56	12.418805	-57.245028	81.62	-0.030	0.930	1.060	81.57	-0.40	1.60	 	 	 	 	 	 	 	 	 	 	 	 	 	 	 	 	 	 	1581511615	0.84	1.56
12/02/2020 12:46:56	120220	12022020	124656	81.57	12.418805	-57.245028	81.61	-0.120	0.670	1.330	81.55	-1.00	1.90	 	 	 	 	 	 	 	 	 	 	 	 	 	 	 	 	 	 	1581511616	0.29	0.54
12/02/2020 12:46:57	120220	12022020	124657	81.38	12.418803	-57.245025	81.40	-0.070	-0.130	1.720	81.32	-1.80	2.30	 	 	 	 	 	 	 	 	 	 	 	 	 	 	 	 	 	 	1581511617	0.68	1.26
12/02/2020 12:46:58	120220	12022020	124658	81.15	12.418802	-57.245022	81.21	0.000	-0.740	2.100	81.13	-2.10	2.60	 	 	 	 	 	 	 	 	 	 	 	 	 	 	 	 	 	 	1581511618	1.00	1.85
12/02/2020 12:46:59	120220	12022020	124659	81.18	12.418800	-57.245018	81.29	-0.060	-0.630	2.260	81.23	-1.70	2.60	 	 	 	 	 	 	 	 	 	 	 	 	 	 	 	 	 	 	1581511619	0.60	1.11
12/02/2020 12:47:00	120220	12022020	124700	81.51	12.418800	-57.245022	81.64	-0.300	0.110	1.940	81.59	-0.90	2.10	 	 	 	 	 	 	 	 	 	 	 	 	 	 	 	 	 	 	1581511620	0.40	0.74
12/02/2020 12:47:01	120220	12022020	124701	81.87	12.418802	-57.245027	81.95	-0.580	0.740	1.380	81.90	-0.60	1.60	 	 	 	 	 	 	 	 	 	 	 	 	 	 	 	 	 	 	1581511621	1.14	2.11
12/02/2020 12:47:02	120220	12022020	124702	81.94	12.418803	-57.245030	81.98	-0.570	0.450	0.970	81.94	-0.70	1.50	1017.00	26.40	26.40	20.70	20.70	310.0	71.0	71.0	425.0	26.9	347.00	12.30	68.00	12.00	26774	11029.0	27.5	27.5	1581511622	1.02	1.89
12/02/2020 12:47:03	120220	12022020	124703	81.77	12.418805	-57.245028	81.78	-0.130	-0.740	0.770	81.72	-2.60	1.20	 	 	 	 	 	 	 	 	 	 	 	 	 	 	 	 	 	 	1581511623	0.48	0.89
12/02/2020 12:47:04	120220	12022020	124704	81.56	12.418807	-57.245023	81.58	0.470	-1.770	0.700	81.56	-2.90	1.10	 	 	 	 	 	 	 	 	 	 	 	 	 	 	 	 	 	 	1581511624	1.22	2.26
12/02/2020 12:47:05	120220	12022020	124705	81.45	12.418805	-57.245018	81.48	0.820	-1.600	0.720	81.44	-2.50	1.10	 	 	 	 	 	 	 	 	 	 	 	 	 	 	 	 	 	 	1581511625	0.96	1.78
12/02/2020 12:47:06	120220	12022020	124706	81.43	12.418805	-57.245020	81.47	0.710	-0.360	0.700	81.43	-1.10	1.10	 	 	 	 	 	 	 	 	 	 	 	 	 	 	 	 	 	 	1581511626	0.28	0.52
12/02/2020 12:47:07	120220	12022020	124707	81.40	12.418805	-57.245025	81.43	0.210	0.900	0.650	81.40	-0.20	1.00	 	 	 	 	 	 	 	 	 	 	 	 	 	 	 	 	 	 	1581511627	1.14	2.11
12/02/2020 12:47:08	120220	12022020	124708	81.38	12.418808	-57.245030	81.41	-0.380	1.250	0.450	81.39	-0.30	0.70	 	 	 	 	 	 	 	 	 	 	 	 	 	 	 	 	 	 	1581511628	1.06	1.96
12/02/2020 12:47:09	120220	12022020	124709	81.47	12.418812	-57.245030	81.52	-0.720	0.700	0.110	81.49	-1.00	0.50	 	 	 	 	 	 	 	 	 	 	 	 	 	 	 	 	 	 	1581511629	0.64	1.19
12/02/2020 12:47:10	120220	12022020	124710	81.59	12.418812	-57.245028	81.63	-0.590	-0.120	0.180	81.60	-1.70	0.80	 	 	 	 	 	 	 	 	 	 	 	 	 	 	 	 	 	 	1581511630	0.61	1.13
12/02/2020 12:47:11	120220	12022020	124711	81.67	12.418810	-57.245025	81.73	-0.050	-0.690	0.750	81.68	-2.20	1.50	 	 	 	 	 	 	 	 	 	 	 	 	 	 	 	 	 	 	1581511631	0.68	1.26
12/02/2020 12:47:12	120220	12022020	124712	81.79	12.418807	-57.245023	81.88	0.530	-1.000	1.430	81.82	-2.40	2.10	 	 	 	 	 	 	 	 	 	 	 	 	 	 	 	 	 	 	1581511632	0.90	1.67
12/02/2020 12:47:13	120220	12022020	124713	81.85	12.418803	-57.245022	81.92	0.670	-0.950	2.020	81.82	-2.10	2.60	 	 	 	 	 	 	 	 	 	 	 	 	 	 	 	 	 	 	1581511633	0.94	1.74
12/02/2020 12:47:14	120220	12022020	124714	81.60	12.418798	-57.245022	81.63	0.210	-0.440	2.490	81.52	-1.50	3.00	 	 	 	 	 	 	 	 	 	 	 	 	 	 	 	 	 	 	1581511634	0.85	1.57
12/02/2020 12:47:15	120220	12022020	124715	81.21	12.418797	-57.245023	81.24	-0.420	0.160	2.670	81.14	-1.00	3.00	 	 	 	 	 	 	 	 	 	 	 	 	 	 	 	 	 	 	1581511635	0.72	1.33
12/02/2020 12:47:16	120220	12022020	124716	80.90	12.418795	-57.245025	80.94	-0.670	0.450	2.510	80.85	-0.90	2.80	 	 	 	 	 	 	 	 	 	 	 	 	 	 	 	 	 	 	1581511636	0.44	0.81
12/02/2020 12:47:17	120220	12022020	124717	80.72	12.418797	-57.245027	80.77	-0.480	0.330	2.070	80.72	-1.10	2.20	 	 	 	 	 	 	 	 	 	 	 	 	 	 	 	 	 	 	1581511637	0.32	0.59
12/02/2020 12:47:18	120220	12022020	124718	80.81	12.418800	-57.245027	80.88	-0.140	0.030	1.110	80.87	-1.40	1.00	 	 	 	 	 	 	 	 	 	 	 	 	 	 	 	 	 	 	1581511638	0.80	1.48
12/02/2020 12:47:19	120220	12022020	124719	81.14	12.418807	-57.245027	81.19	0.080	-0.220	-0.080	81.20	-1.70	0.00	 	 	 	 	 	 	 	 	 	 	 	 	 	 	 	 	 	 	1581511639	1.32	2.44
12/02/2020 12:47:20	120220	12022020	124720	81.31	12.418812	-57.245027	81.30	0.170	-0.470	-0.680	81.29	-1.90	-0.20	 	 	 	 	 	 	 	 	 	 	 	 	 	 	 	 	 	 	1581511640	1.17	2.17
12/02/2020 12:47:21	120220	12022020	124721	81.06	12.418813	-57.245027	81.00	0.240	-0.770	-0.330	80.97	-2.20	0.40	 	 	 	 	 	 	 	 	 	 	 	 	 	 	 	 	 	 	1581511641	0.30	0.56
12/02/2020 12:47:22	120220	12022020	124722	80.65	12.418810	-57.245023	80.64	0.370	-0.970	0.510	80.60	-2.20	1.20	 	 	 	 	 	 	 	 	 	 	 	 	 	 	 	 	 	 	1581511642	0.80	1.48
12/02/2020 12:47:23	120220	12022020	124723	80.52	12.418807	-57.245022	80.58	0.480	-0.660	1.140	80.55	-1.70	1.70	 	 	 	 	 	 	 	 	 	 	 	 	 	 	 	 	 	 	1581511643	0.96	1.78
12/02/2020 12:47:24	120220	12022020	124724	80.72	12.418803	-57.245022	80.80	0.380	0.140	1.420	80.78	-0.90	1.90	 	 	 	 	 	 	 	 	 	 	 	 	 	 	 	 	 	 	1581511644	0.54	1.00
12/02/2020 12:47:25	120220	12022020	124725	80.91	12.418802	-57.245025	80.96	0.050	0.750	1.620	80.91	-0.60	2.20	 	 	 	 	 	 	 	 	 	 	 	 	 	 	 	 	 	 	1581511645	0.69	1.28
12/02/2020 12:47:26	120220	12022020	124726	80.74	12.418802	-57.245027	80.76	-0.300	0.600	2.080	80.74	-0.60	2.40	 	 	 	 	 	 	 	 	 	 	 	 	 	 	 	 	 	 	1581511646	0.44	0.81
12/02/2020 12:47:27	120220	12022020	124727	80.44	12.418800	-57.245023	80.48	-0.450	-0.030	2.600	80.40	-1.60	3.10	 	 	 	 	 	 	 	 	 	 	 	 	 	 	 	 	 	 	1581511647	0.60	1.11
12/02/2020 12:47:28	120220	12022020	124728	80.37	12.418798	-57.245022	80.46	-0.420	-0.430	2.830	80.38	-1.80	3.20	 	 	 	 	 	 	 	 	 	 	 	 	 	 	 	 	 	 	1581511648	0.74	1.37
12/02/2020 12:47:29	120220	12022020	124729	80.49	12.418797	-57.245020	80.59	-0.300	-0.420	2.710	80.51	-1.70	3.00	 	 	 	 	 	 	 	 	 	 	 	 	 	 	 	 	 	 	1581511649	0.34	0.63
12/02/2020 12:47:30	120220	12022020	124730	80.58	12.418795	-57.245022	80.66	-0.140	-0.360	2.260	80.58	-1.70	2.50	 	 	 	 	 	 	 	 	 	 	 	 	 	 	 	 	 	 	1581511650	0.25	0.46
12/02/2020 12:47:31	120220	12022020	124731	80.49	12.418797	-57.245022	80.53	0.080	-0.480	1.780	80.45	-1.90	2.00	 	 	 	 	 	 	 	 	 	 	 	 	 	 	 	 	 	 	1581511651	0.22	0.41
12/02/2020 12:47:32	120220	12022020	124732	80.29	12.418798	-57.245022	80.32	0.280	-0.590	1.400	80.26	-1.90	1.60	 	 	 	 	 	 	 	 	 	 	 	 	 	 	 	 	 	 	1581511652	0.32	0.59
12/02/2020 12:47:33	120220	12022020	124733	80.22	12.418800	-57.245020	80.27	0.370	-0.430	0.880	80.24	-1.60	1.00	 	 	 	 	 	 	 	 	 	 	 	 	 	 	 	 	 	 	1581511653	0.45	0.83
12/02/2020 12:47:34	120220	12022020	124734	80.41	12.418803	-57.245022	80.48	0.320	-0.140	0.090	80.48	-1.40	0.20	 	 	 	 	 	 	 	 	 	 	 	 	 	 	 	 	 	 	1581511654	0.86	1.59
12/02/2020 12:47:35	120220	12022020	124735	80.62	12.418808	-57.245023	80.62	0.170	-0.020	-0.500	80.62	-1.40	-0.10	 	 	 	 	 	 	 	 	 	 	 	 	 	 	 	 	 	 	1581511655	1.20	2.22
12/02/2020 12:47:36	120220	12022020	124736	80.57	12.418813	-57.245023	80.57	-0.000	-0.050	-0.490	80.56	-1.40	0.10	 	 	 	 	 	 	 	 	 	 	 	 	 	 	 	 	 	 	1581511656	0.82	1.52
12/02/2020 12:47:37	120220	12022020	124737	80.52	12.418813	-57.245022	80.54	-0.150	-0.030	0.080	80.52	-1.30	0.90	 	 	 	 	 	 	 	 	 	 	 	 	 	 	 	 	 	 	1581511657	0.20	0.37
12/02/2020 12:47:38	120220	12022020	124738	80.46	12.418808	-57.245022	80.48	-0.240	0.120	1.090	80.43	-1.10	2.00	 	 	 	 	 	 	 	 	 	 	 	 	 	 	 	 	 	 	1581511658	0.85	1.57
12/02/2020 12:47:39	120220	12022020	124739	80.28	12.418803	-57.245022	80.32	-0.290	0.260	2.160	80.25	-1.10	2.90	 	 	 	 	 	 	 	 	 	 	 	 	 	 	 	 	 	 	1581511659	1.28	2.37
12/02/2020 12:47:40	120220	12022020	124740	80.16	12.418797	-57.245022	80.22	-0.300	0.130	2.800	80.16	-1.20	3.10	 	 	 	 	 	 	 	 	 	 	 	 	 	 	 	 	 	 	1581511660	1.16	2.15
12/02/2020 12:47:41	120220	12022020	124741	80.17	12.418795	-57.245020	80.26	-0.200	-0.290	2.890	80.20	-1.80	3.20	 	 	 	 	 	 	 	 	 	 	 	 	 	 	 	 	 	 	1581511661	0.64	1.19
12/02/2020 12:47:42	120220	12022020	124742	80.35	12.418795	-57.245018	80.45	0.090	-0.790	2.570	80.40	-2.30	2.80	 	 	 	 	 	 	 	 	 	 	 	 	 	 	 	 	 	 	1581511662	0.33	0.61
12/02/2020 12:47:43	120220	12022020	124743	80.56	12.418797	-57.245017	80.63	0.380	-1.050	2.170	80.58	-2.40	2.50	 	 	 	 	 	 	 	 	 	 	 	 	 	 	 	 	 	 	1581511663	0.59	1.09
12/02/2020 12:47:44	120220	12022020	124744	80.55	12.418798	-57.245015	80.58	0.450	-0.890	1.850	80.52	-2.10	2.20	 	 	 	 	 	 	 	 	 	 	 	 	 	 	 	 	 	 	1581511664	0.55	1.02
12/02/2020 12:47:45	120220	12022020	124745	80.37	12.418802	-57.245017	80.39	0.310	-0.410	1.520	80.34	-1.60	1.80	 	 	 	 	 	 	 	 	 	 	 	 	 	 	 	 	 	 	1581511665	0.45	0.83
12/02/2020 12:47:46	120220	12022020	124746	80.33	12.418803	-57.245017	80.37	0.100	0.090	0.970	80.35	-1.10	1.10	 	 	 	 	 	 	 	 	 	 	 	 	 	 	 	 	 	 	1581511666	0.54	1.00
12/02/2020 12:47:47	120220	12022020	124747	80.50	12.418807	-57.245018	80.54	-0.160	0.610	0.310	80.54	-0.50	0.50	 	 	 	 	 	 	 	 	 	 	 	 	 	 	 	 	 	 	1581511667	0.66	1.22
12/02/2020 12:47:48	120220	12022020	124748	80.61	12.418808	-57.245020	80.61	-0.450	1.050	-0.050	80.60	-0.20	0.40	 	 	 	 	 	 	 	 	 	 	 	 	 	 	 	 	 	 	1581511668	0.66	1.22
12/02/2020 12:47:49	120220	12022020	124749	80.42	12.418808	-57.245023	80.38	-0.660	1.000	0.110	80.34	-0.60	0.70	 	 	 	 	 	 	 	 	 	 	 	 	 	 	 	 	 	 	1581511669	0.54	1.00
12/02/2020 12:47:50	120220	12022020	124750	80.02	12.418808	-57.245023	79.98	-0.570	0.200	0.510	79.94	-1.70	1.10	 	 	 	 	 	 	 	 	 	 	 	 	 	 	 	 	 	 	1581511670	0.15	0.28
12/02/2020 12:47:51	120220	12022020	124751	79.78	12.418808	-57.245022	79.81	-0.180	-1.080	0.760	79.78	-2.90	1.30	 	 	 	 	 	 	 	 	 	 	 	 	 	 	 	 	 	 	1581511671	0.60	1.11
12/02/2020 12:47:52	120220	12022020	124752	79.89	12.418810	-57.245017	79.97	0.290	-1.990	0.860	79.89	-3.20	1.30	 	 	 	 	 	 	 	 	 	 	 	 	 	 	 	 	 	 	1581511672	1.06	1.96
12/02/2020 12:47:53	120220	12022020	124753	80.17	12.418810	-57.245013	80.27	0.600	-1.880	1.080	80.23	-2.90	1.70	 	 	 	 	 	 	 	 	 	 	 	 	 	 	 	 	 	 	1581511673	0.69	1.28
12/02/2020 12:47:54	120220	12022020	124754	80.41	12.418808	-57.245013	80.49	0.650	-0.870	1.540	80.41	-2.50	1.80	 	 	 	 	 	 	 	 	 	 	 	 	 	 	 	 	 	 	1581511674	0.53	0.98
12/02/2020 12:47:55	120220	12022020	124755	80.38	12.418803	-57.245017	80.43	0.470	0.340	2.210	80.34	-0.60	2.90	 	 	 	 	 	 	 	 	 	 	 	 	 	 	 	 	 	 	1581511675	1.21	2.24
12/02/2020 12:47:56	120220	12022020	124756	80.07	12.418798	-57.245018	80.12	0.130	1.090	2.700	80.01	-0.20	3.20	 	 	 	 	 	 	 	 	 	 	 	 	 	 	 	 	 	 	1581511676	1.15	2.13
12/02/2020 12:47:57	120220	12022020	124757	79.81	12.418797	-57.245018	79.88	-0.240	1.100	2.580	79.78	-0.40	2.80	 	 	 	 	 	 	 	 	 	 	 	 	 	 	 	 	 	 	1581511677	0.28	0.52
12/02/2020 12:47:58	120220	12022020	124758	79.86	12.418800	-57.245018	79.96	-0.460	0.580	1.870	79.92	-1.10	1.90	 	 	 	 	 	 	 	 	 	 	 	 	 	 	 	 	 	 	1581511678	0.79	1.46
12/02/2020 12:47:59	120220	12022020	124759	80.20	12.418807	-57.245017	80.29	-0.490	-0.050	0.990	80.27	-1.60	1.10	 	 	 	 	 	 	 	 	 	 	 	 	 	 	 	 	 	 	1581511679	1.23	2.28
12/02/2020 12:48:00	120220	12022020	124800	80.42	12.418810	-57.245015	80.47	-0.460	-0.400	0.400	80.43	-1.80	0.70	 	 	 	 	 	 	 	 	 	 	 	 	 	 	 	 	 	 	1581511680	0.92	1.70
12/02/2020 12:48:01	120220	12022020	124801	80.33	12.418812	-57.245017	80.34	-0.460	-0.490	0.230	80.28	-1.90	0.70	 	 	 	 	 	 	 	 	 	 	 	 	 	 	 	 	 	 	1581511681	0.40	0.74
12/02/2020 12:48:02	120220	12022020	124802	80.02	12.418812	-57.245018	80.01	-0.410	-0.550	0.350	79.94	-1.90	0.90	1017.00	26.40	26.50	20.40	20.40	269.0	69.0	69.0	421.0	26.9	348.00	11.90	68.00	11.60	25253	11305.0	27.6	27.5	1581511682	0.29	0.54
12/02/2020 12:48:03	120220	12022020	124803	79.69	12.418810	-57.245018	79.71	-0.150	-0.660	0.550	79.64	-2.10	1.00	 	 	 	 	 	 	 	 	 	 	 	 	 	 	 	 	 	 	1581511683	0.32	0.59
12/02/2020 12:48:04	120220	12022020	124804	79.54	12.418810	-57.245018	79.58	0.330	-0.820	0.700	79.54	-2.20	1.20	 	 	 	 	 	 	 	 	 	 	 	 	 	 	 	 	 	 	1581511684	0.17	0.31
12/02/2020 12:48:05	120220	12022020	124805	79.61	12.418810	-57.245017	79.68	0.770	-0.990	0.760	79.65	-2.30	1.20	 	 	 	 	 	 	 	 	 	 	 	 	 	 	 	 	 	 	1581511685	0.39	0.72
12/02/2020 12:48:06	120220	12022020	124806	79.88	12.418813	-57.245015	79.98	0.840	-0.840	0.690	79.95	-2.00	1.10	 	 	 	 	 	 	 	 	 	 	 	 	 	 	 	 	 	 	1581511686	0.64	1.19
12/02/2020 12:48:07	120220	12022020	124807	80.22	12.418813	-57.245013	80.30	0.540	-0.210	0.720	80.26	-1.20	1.30	 	 	 	 	 	 	 	 	 	 	 	 	 	 	 	 	 	 	1581511687	0.31	0.57
12/02/2020 12:48:08	120220	12022020	124808	80.32	12.418812	-57.245015	80.36	0.140	0.580	1.170	80.30	-0.50	1.90	 	 	 	 	 	 	 	 	 	 	 	 	 	 	 	 	 	 	1581511688	0.47	0.87
12/02/2020 12:48:09	120220	12022020	124809	80.12	12.418808	-57.245015	80.16	-0.120	1.030	1.810	80.07	-0.30	2.40	 	 	 	 	 	 	 	 	 	 	 	 	 	 	 	 	 	 	1581511689	1.00	1.85
12/02/2020 12:48:10	120220	12022020	124810	79.84	12.418805	-57.245017	79.87	-0.310	0.920	2.220	79.78	-0.60	2.70	 	 	 	 	 	 	 	 	 	 	 	 	 	 	 	 	 	 	1581511690	0.71	1.31
12/02/2020 12:48:11	120220	12022020	124811	79.56	12.418803	-57.245015	79.59	-0.530	0.520	2.360	79.50	-1.00	2.80	 	 	 	 	 	 	 	 	 	 	 	 	 	 	 	 	 	 	1581511691	0.17	0.31
12/02/2020 12:48:12	120220	12022020	124812	79.37	12.418805	-57.245015	79.43	-0.730	0.040	2.220	79.35	-1.50	2.50	 	 	 	 	 	 	 	 	 	 	 	 	 	 	 	 	 	 	1581511692	0.14	0.26
12/02/2020 12:48:13	120220	12022020	124813	79.34	12.418805	-57.245017	79.42	-0.620	-0.640	1.800	79.35	-2.30	2.00	 	 	 	 	 	 	 	 	 	 	 	 	 	 	 	 	 	 	1581511693	0.31	0.57
12/02/2020 12:48:14	120220	12022020	124814	79.46	12.418808	-57.245015	79.54	-0.060	-1.530	1.190	79.50	-3.20	1.40	 	 	 	 	 	 	 	 	 	 	 	 	 	 	 	 	 	 	1581511694	0.65	1.20
12/02/2020 12:48:15	120220	12022020	124815	79.71	12.418812	-57.245012	79.79	0.640	-2.060	0.600	79.76	-3.30	0.90	 	 	 	 	 	 	 	 	 	 	 	 	 	 	 	 	 	 	1581511695	1.11	2.06
12/02/2020 12:48:16	120220	12022020	124816	79.97	12.418815	-57.245010	80.04	0.900	-1.520	0.380	80.01	-2.30	0.90	 	 	 	 	 	 	 	 	 	 	 	 	 	 	 	 	 	 	1581511696	0.86	1.59
12/02/2020 12:48:17	120220	12022020	124817	80.05	12.418815	-57.245012	80.07	0.490	0.060	0.650	80.02	-0.60	1.30	 	 	 	 	 	 	 	 	 	 	 	 	 	 	 	 	 	 	1581511697	0.42	0.78
12/02/2020 12:48:18	120220	12022020	124818	79.79	12.418812	-57.245018	79.79	-0.240	1.620	1.250	79.79	-0.00	1.50	 	 	 	 	 	 	 	 	 	 	 	 	 	 	 	 	 	 	1581511698	1.57	2.91
12/02/2020 12:48:19	120220	12022020	124819	79.42	12.418807	-57.245023	79.44	-0.730	2.050	1.690	79.36	0.40	2.20	 	 	 	 	 	 	 	 	 	 	 	 	 	 	 	 	 	 	1581511699	1.54	2.85
12/02/2020 12:48:20	120220	12022020	124820	79.22	12.418805	-57.245025	79.27	-0.670	1.050	1.710	79.21	-1.00	2.10	 	 	 	 	 	 	 	 	 	 	 	 	 	 	 	 	 	 	1581511700	0.40	0.74
12/02/2020 12:48:21	120220	12022020	124821	79.19	12.418807	-57.245020	79.25	-0.160	-0.660	1.500	79.18	-2.70	1.90	 	 	 	 	 	 	 	 	 	 	 	 	 	 	 	 	 	 	1581511701	0.87	1.61
12/02/2020 12:48:22	120220	12022020	124822	79.16	12.418808	-57.245015	79.22	0.410	-2.000	1.400	79.15	-3.60	1.80	 	 	 	 	 	 	 	 	 	 	 	 	 	 	 	 	 	 	1581511702	1.31	2.43
12/02/2020 12:48:23	120220	12022020	124823	79.15	12.418810	-57.245012	79.22	0.690	-2.130	1.430	79.15	-3.20	1.90	 	 	 	 	 	 	 	 	 	 	 	 	 	 	 	 	 	 	1581511703	0.86	1.59
12/02/2020 12:48:24	120220	12022020	124824	79.10	12.418810	-57.245012	79.14	0.580	-1.150	1.550	79.06	-2.00	2.10	 	 	 	 	 	 	 	 	 	 	 	 	 	 	 	 	 	 	1581511704	0.22	0.41
12/02/2020 12:48:25	120220	12022020	124825	78.86	12.418808	-57.245017	78.90	0.220	0.100	1.740	78.81	-0.80	2.20	 	 	 	 	 	 	 	 	 	 	 	 	 	 	 	 	 	 	1581511705	0.96	1.78
12/02/2020 12:48:26	120220	12022020	124826	78.64	12.418808	-57.245022	78.69	-0.220	1.000	1.630	78.61	-0.10	1.90	 	 	 	 	 	 	 	 	 	 	 	 	 	 	 	 	 	 	1581511706	0.96	1.78
12/02/2020 12:48:27	120220	12022020	124827	78.58	12.418810	-57.245025	78.64	-0.510	1.360	1.190	78.59	-0.00	1.40	 	 	 	 	 	 	 	 	 	 	 	 	 	 	 	 	 	 	1581511707	0.86	1.59
12/02/2020 12:48:28	120220	12022020	124828	78.71	12.418813	-57.245027	78.79	-0.550	1.100	0.660	78.76	-0.50	0.90	 	 	 	 	 	 	 	 	 	 	 	 	 	 	 	 	 	 	1581511708	1.00	1.85
12/02/2020 12:48:29	120220	12022020	124829	78.97	12.418817	-57.245028	79.03	-0.410	0.220	0.290	79.02	-1.60	0.70	 	 	 	 	 	 	 	 	 	 	 	 	 	 	 	 	 	 	1581511709	0.79	1.46
12/02/2020 12:48:30	120220	12022020	124830	79.18	12.418818	-57.245025	79.22	-0.180	-0.970	0.360	79.18	-2.00	0.70	 	 	 	 	 	 	 	 	 	 	 	 	 	 	 	 	 	 	1581511710	0.49	0.91
12/02/2020 12:48:31	120220	12022020	124831	79.21	12.418815	-57.245022	79.23	0.100	-1.900	0.840	79.20	-3.40	1.50	 	 	 	 	 	 	 	 	 	 	 	 	 	 	 	 	 	 	1581511711	1.11	2.06
12/02/2020 12:48:32	120220	12022020	124832	79.02	12.418810	-57.245018	79.02	0.380	-1.910	1.470	78.94	-2.90	2.20	 	 	 	 	 	 	 	 	 	 	 	 	 	 	 	 	 	 	1581511712	1.36	2.52
12/02/2020 12:48:33	120220	12022020	124833	78.48	12.418805	-57.245018	78.46	0.540	-0.910	2.230	78.36	-1.70	2.90	 	 	 	 	 	 	 	 	 	 	 	 	 	 	 	 	 	 	1581511713	1.17	2.17
12/02/2020 12:48:34	120220	12022020	124834	77.81	12.418800	-57.245022	77.79	0.480	0.370	2.690	77.68	-0.60	3.10	 	 	 	 	 	 	 	 	 	 	 	 	 	 	 	 	 	 	1581511714	1.11	2.06
12/02/2020 12:48:35	120220	12022020	124835	77.41	12.418802	-57.245025	77.46	0.190	1.140	2.350	77.39	-0.10	2.40	 	 	 	 	 	 	 	 	 	 	 	 	 	 	 	 	 	 	1581511715	0.89	1.65
12/02/2020 12:48:36	120220	12022020	124836	77.59	12.418807	-57.245028	77.70	-0.200	1.170	1.300	77.70	-0.40	1.20	 	 	 	 	 	 	 	 	 	 	 	 	 	 	 	 	 	 	1581511716	1.49	2.76
12/02/2020 12:48:37	120220	12022020	124837	78.23	12.418815	-57.245030	78.36	-0.440	0.600	0.080	78.38	-1.10	0.10	 	 	 	 	 	 	 	 	 	 	 	 	 	 	 	 	 	 	1581511717	1.86	3.44
12/02/2020 12:48:38	120220	12022020	124838	78.89	12.418822	-57.245030	78.96	-0.390	-0.210	-0.650	78.99	-1.80	-0.30	 	 	 	 	 	 	 	 	 	 	 	 	 	 	 	 	 	 	1581511718	1.38	2.56
12/02/2020 12:48:39	120220	12022020	124839	79.22	12.418823	-57.245028	79.23	-0.190	-0.790	-0.690	79.23	-2.20	-0.00	 	 	 	 	 	 	 	 	 	 	 	 	 	 	 	 	 	 	1581511719	0.53	0.98
12/02/2020 12:48:40	120220	12022020	124840	79.06	12.418822	-57.245027	79.02	-0.040	-0.980	0.110	78.97	-2.30	1.10	 	 	 	 	 	 	 	 	 	 	 	 	 	 	 	 	 	 	1581511720	0.67	1.24
12/02/2020 12:48:41	120220	12022020	124841	78.56	12.418813	-57.245027	78.53	0.140	-1.040	1.430	78.46	-2.40	2.40	 	 	 	 	 	 	 	 	 	 	 	 	 	 	 	 	 	 	1581511721	1.54	2.85
12/02/2020 12:48:42	120220	12022020	124842	78.16	12.418805	-57.245023	78.18	0.440	-1.080	2.530	78.16	-2.40	2.70	 	 	 	 	 	 	 	 	 	 	 	 	 	 	 	 	 	 	1581511722	1.86	3.44
12/02/2020 12:48:43	120220	12022020	124843	78.03	12.418800	-57.245022	78.10	0.650	-0.740	2.930	78.03	-1.70	3.30	 	 	 	 	 	 	 	 	 	 	 	 	 	 	 	 	 	 	1581511723	1.28	2.37
12/02/2020 12:48:44	120220	12022020	124844	78.17	12.418800	-57.245022	78.27	0.510	0.180	2.520	78.17	-1.40	3.10	 	 	 	 	 	 	 	 	 	 	 	 	 	 	 	 	 	 	1581511724	0.05	0.09
12/02/2020 12:48:45	120220	12022020	124845	78.46	12.418805	-57.245027	78.55	-0.040	1.180	1.580	78.52	0.10	1.60	 	 	 	 	 	 	 	 	 	 	 	 	 	 	 	 	 	 	1581511725	1.40	2.59
12/02/2020 12:48:46	120220	12022020	124846	78.72	12.418812	-57.245032	78.78	-0.720	1.570	0.600	78.76	0.10	0.70	 	 	 	 	 	 	 	 	 	 	 	 	 	 	 	 	 	 	1581511726	1.88	3.48
12/02/2020 12:48:47	120220	12022020	124847	78.84	12.418817	-57.245035	78.88	-1.110	1.060	0.020	78.85	-0.70	0.30	 	 	 	 	 	 	 	 	 	 	 	 	 	 	 	 	 	 	1581511727	1.28	2.37
12/02/2020 12:48:48	120220	12022020	124848	78.91	12.418818	-57.245035	78.95	-0.910	-0.090	-0.180	78.93	-2.00	0.20	 	 	 	 	 	 	 	 	 	 	 	 	 	 	 	 	 	 	1581511728	0.30	0.56
12/02/2020 12:48:49	120220	12022020	124849	79.02	12.418818	-57.245032	79.07	-0.160	-1.480	-0.140	79.04	-3.30	0.40	 	 	 	 	 	 	 	 	 	 	 	 	 	 	 	 	 	 	1581511729	0.65	1.20
12/02/2020 12:48:50	120220	12022020	124850	79.04	12.418817	-57.245027	79.08	0.700	-2.480	0.260	79.03	-3.90	0.90	 	 	 	 	 	 	 	 	 	 	 	 	 	 	 	 	 	 	1581511730	1.02	1.89
12/02/2020 12:48:51	120220	12022020	124851	78.92	12.418815	-57.245023	78.95	1.170	-2.410	0.870	78.89	-3.30	1.50	 	 	 	 	 	 	 	 	 	 	 	 	 	 	 	 	 	 	1581511731	1.00	1.85
12/02/2020 12:48:52	120220	12022020	124852	78.83	12.418812	-57.245022	78.88	1.010	-1.060	1.540	78.81	-1.60	2.30	 	 	 	 	 	 	 	 	 	 	 	 	 	 	 	 	 	 	1581511732	0.68	1.26
12/02/2020 12:48:53	120220	12022020	124853	78.67	12.418807	-57.245025	78.72	0.330	0.940	2.340	78.62	0.30	3.00	 	 	 	 	 	 	 	 	 	 	 	 	 	 	 	 	 	 	1581511733	1.37	2.54
12/02/2020 12:48:54	120220	12022020	124854	78.40	12.418802	-57.245032	78.46	-0.450	2.360	2.820	78.40	0.80	3.20	 	 	 	 	 	 	 	 	 	 	 	 	 	 	 	 	 	 	1581511734	1.82	3.37
12/02/2020 12:48:55	120220	12022020	124855	78.28	12.418800	-57.245037	78.37	-0.810	2.180	2.610	78.28	0.30	2.80	 	 	 	 	 	 	 	 	 	 	 	 	 	 	 	 	 	 	1581511735	1.02	1.89
12/02/2020 12:48:56	120220	12022020	124856	78.49	12.418805	-57.245037	78.64	-0.530	0.600	1.780	78.59	-1.50	1.70	 	 	 	 	 	 	 	 	 	 	 	 	 	 	 	 	 	 	1581511736	1.04	1.93
12/02/2020 12:48:57	120220	12022020	124857	79.09	12.418813	-57.245032	79.23	0.000	-1.090	0.660	79.22	-2.80	0.70	 	 	 	 	 	 	 	 	 	 	 	 	 	 	 	 	 	 	1581511737	1.99	3.69
12/02/2020 12:48:58	120220	12022020	124858	79.63	12.418820	-57.245028	79.71	0.270	-1.780	0.010	79.68	-3.00	0.50	 	 	 	 	 	 	 	 	 	 	 	 	 	 	 	 	 	 	1581511738	1.52	2.82
12/02/2020 12:48:59	120220	12022020	124859	79.62	12.418818	-57.245028	79.62	0.140	-1.360	0.460	79.54	-2.30	1.40	 	 	 	 	 	 	 	 	 	 	 	 	 	 	 	 	 	 	1581511739	0.13	0.24
12/02/2020 12:49:00	120220	12022020	124900	79.06	12.418812	-57.245032	79.03	-0.130	-0.460	1.660	78.92	-1.50	2.60	 	 	 	 	 	 	 	 	 	 	 	 	 	 	 	 	 	 	1581511740	1.61	2.98
12/02/2020 12:49:01	120220	12022020	124901	78.37	12.418805	-57.245035	78.36	-0.250	0.120	2.630	78.25	-1.20	3.20	 	 	 	 	 	 	 	 	 	 	 	 	 	 	 	 	 	 	1581511741	1.87	3.46
12/02/2020 12:49:02	120220	12022020	124902	77.93	12.418800	-57.245037	77.99	-0.100	-0.030	2.810	77.88	-1.60	3.10	1017.00	26.40	26.50	20.50	20.50	257.0	69.0	70.0	418.0	26.9	349.00	11.90	68.00	11.40	25001	11525.0	27.5	27.5	1581511742	0.91	1.69
12/02/2020 12:49:03	120220	12022020	124903	77.83	12.418802	-57.245035	77.92	0.240	-0.670	2.290	77.85	-2.20	2.40	 	 	 	 	 	 	 	 	 	 	 	 	 	 	 	 	 	 	1581511743	0.56	1.04
12/02/2020 12:49:04	120220	12022020	124904	78.03	12.418807	-57.245030	78.13	0.520	-1.000	1.440	78.10	-2.20	1.50	 	 	 	 	 	 	 	 	 	 	 	 	 	 	 	 	 	 	1581511744	1.25	2.31
12/02/2020 12:49:05	120220	12022020	124905	78.39	12.418810	-57.245028	78.47	0.540	-0.440	0.570	78.46	-1.30	0.70	 	 	 	 	 	 	 	 	 	 	 	 	 	 	 	 	 	 	1581511745	1.05	1.94
12/02/2020 12:49:06	120220	12022020	124906	78.70	12.418813	-57.245033	78.73	0.240	0.670	-0.050	78.70	-0.90	0.50	 	 	 	 	 	 	 	 	 	 	 	 	 	 	 	 	 	 	1581511746	1.04	1.93
12/02/2020 12:49:07	120220	12022020	124907	78.84	12.418817	-57.245038	78.83	-0.200	1.460	-0.280	78.85	0.20	0.20	 	 	 	 	 	 	 	 	 	 	 	 	 	 	 	 	 	 	1581511747	1.29	2.39
12/02/2020 12:49:08	120220	12022020	124908	78.75	12.418815	-57.245043	78.70	-0.530	1.410	-0.070	78.70	-0.20	0.50	 	 	 	 	 	 	 	 	 	 	 	 	 	 	 	 	 	 	1581511748	0.87	1.61
12/02/2020 12:49:09	120220	12022020	124909	78.44	12.418813	-57.245043	78.40	-0.620	0.550	0.370	78.38	-1.30	1.00	 	 	 	 	 	 	 	 	 	 	 	 	 	 	 	 	 	 	1581511749	0.42	0.78
12/02/2020 12:49:10	120220	12022020	124910	78.17	12.418812	-57.245042	78.16	-0.390	-0.760	0.900	78.14	-2.70	1.60	 	 	 	 	 	 	 	 	 	 	 	 	 	 	 	 	 	 	1581511750	0.55	1.02
12/02/2020 12:49:11	120220	12022020	124911	78.04	12.418810	-57.245037	78.06	0.060	-2.060	1.460	78.03	-3.80	2.10	 	 	 	 	 	 	 	 	 	 	 	 	 	 	 	 	 	 	1581511751	0.90	1.67
12/02/2020 12:49:12	120220	12022020	124912	78.04	12.418808	-57.245032	78.08	0.580	-2.710	2.010	78.04	-4.00	2.60	 	 	 	 	 	 	 	 	 	 	 	 	 	 	 	 	 	 	1581511752	1.11	2.06
12/02/2020 12:49:13	120220	12022020	124913	78.04	12.418807	-57.245028	78.10	0.930	-2.160	2.490	78.04	-2.90	3.00	 	 	 	 	 	 	 	 	 	 	 	 	 	 	 	 	 	 	1581511753	0.95	1.76
12/02/2020 12:49:14	120220	12022020	124914	78.08	12.418803	-57.245030	78.16	0.820	-0.470	2.560	78.11	-0.90	2.80	 	 	 	 	 	 	 	 	 	 	 	 	 	 	 	 	 	 	1581511754	0.55	1.02
12/02/2020 12:49:15	120220	12022020	124915	78.23	12.418803	-57.245035	78.32	0.170	1.570	2.070	78.28	0.90	2.20	 	 	 	 	 	 	 	 	 	 	 	 	 	 	 	 	 	 	1581511755	1.21	2.24
12/02/2020 12:49:16	120220	12022020	124916	78.42	12.418803	-57.245043	78.49	-0.640	2.790	1.330	78.45	1.50	1.50	 	 	 	 	 	 	 	 	 	 	 	 	 	 	 	 	 	 	1581511756	1.67	3.09
12/02/2020 12:49:17	120220	12022020	124917	78.53	12.418805	-57.245048	78.58	-1.070	2.390	0.730	78.55	0.40	1.00	 	 	 	 	 	 	 	 	 	 	 	 	 	 	 	 	 	 	1581511757	1.14	2.11
12/02/2020 12:49:18	120220	12022020	124918	78.64	12.418808	-57.245047	78.70	-0.850	0.500	0.310	78.67	-1.80	0.60	 	 	 	 	 	 	 	 	 	 	 	 	 	 	 	 	 	 	1581511758	0.59	1.09
12/02/2020 12:49:19	120220	12022020	124919	78.79	12.418812	-57.245040	78.83	-0.140	-1.740	-0.090	78.81	-3.80	0.20	 	 	 	 	 	 	 	 	 	 	 	 	 	 	 	 	 	 	1581511759	1.49	2.76
12/02/2020 12:49:20	120220	12022020	124920	78.84	12.418815	-57.245033	78.86	0.610	-2.910	-0.190	78.84	-4.10	0.20	 	 	 	 	 	 	 	 	 	 	 	 	 	 	 	 	 	 	1581511760	1.58	2.93
12/02/2020 12:49:21	120220	12022020	124921	78.71	12.418815	-57.245032	78.73	0.970	-2.340	0.270	78.67	-3.00	1.00	 	 	 	 	 	 	 	 	 	 	 	 	 	 	 	 	 	 	1581511761	0.51	0.94
12/02/2020 12:49:22	120220	12022020	124922	78.48	12.418812	-57.245035	78.50	0.730	-0.670	1.140	78.44	-1.30	2.00	 	 	 	 	 	 	 	 	 	 	 	 	 	 	 	 	 	 	1581511762	0.93	1.72
12/02/2020 12:49:23	120220	12022020	124923	78.26	12.418807	-57.245040	78.31	0.100	0.850	2.040	78.24	-0.20	2.70	 	 	 	 	 	 	 	 	 	 	 	 	 	 	 	 	 	 	1581511763	1.64	3.04
12/02/2020 12:49:24	120220	12022020	124924	78.26	12.418803	-57.245045	78.37	-0.440	1.290	2.470	78.30	-0.20	2.90	 	 	 	 	 	 	 	 	 	 	 	 	 	 	 	 	 	 	1581511764	1.21	2.24
12/02/2020 12:49:25	120220	12022020	124925	78.57	12.418802	-57.245043	78.72	-0.540	0.740	2.370	78.65	-0.90	2.70	 	 	 	 	 	 	 	 	 	 	 	 	 	 	 	 	 	 	1581511765	0.29	0.54
12/02/2020 12:49:26	120220	12022020	124926	78.94	12.418803	-57.245040	79.07	-0.310	-0.000	2.160	79.00	-1.60	2.50	 	 	 	 	 	 	 	 	 	 	 	 	 	 	 	 	 	 	1581511766	0.79	1.46
12/02/2020 12:49:27	120220	12022020	124927	79.10	12.418803	-57.245037	79.16	-0.060	-0.430	2.000	79.08	-1.90	2.40	 	 	 	 	 	 	 	 	 	 	 	 	 	 	 	 	 	 	1581511767	0.62	1.15
12/02/2020 12:49:28	120220	12022020	124928	78.86	12.418802	-57.245037	78.86	0.090	-0.600	1.940	78.77	-1.90	2.40	 	 	 	 	 	 	 	 	 	 	 	 	 	 	 	 	 	 	1581511768	0.37	0.69
12/02/2020 12:49:29	120220	12022020	124929	78.42	12.418802	-57.245035	78.43	0.160	-0.500	1.850	78.35	-1.70	2.10	 	 	 	 	 	 	 	 	 	 	 	 	 	 	 	 	 	 	1581511769	0.17	0.31
12/02/2020 12:49:30	120220	12022020	124930	78.29	12.418803	-57.245037	78.37	0.150	-0.160	1.320	78.33	-1.40	1.40	 	 	 	 	 	 	 	 	 	 	 	 	 	 	 	 	 	 	1581511770	0.47	0.87
12/02/2020 12:49:31	120220	12022020	124931	78.62	12.418808	-57.245040	78.70	0.120	0.010	0.500	78.70	-1.40	0.60	 	 	 	 	 	 	 	 	 	 	 	 	 	 	 	 	 	 	1581511771	1.13	2.09
12/02/2020 12:49:32	120220	12022020	124932	78.98	12.418813	-57.245040	79.03	0.200	-0.310	-0.090	78.98	-1.50	0.40	 	 	 	 	 	 	 	 	 	 	 	 	 	 	 	 	 	 	1581511772	1.16	2.15
12/02/2020 12:49:33	120220	12022020	124933	79.05	12.418817	-57.245038	79.05	0.340	-0.830	-0.100	79.03	-2.30	0.50	 	 	 	 	 	 	 	 	 	 	 	 	 	 	 	 	 	 	1581511773	0.79	1.46
12/02/2020 12:49:34	120220	12022020	124934	78.80	12.418815	-57.245035	78.80	0.290	-0.920	0.420	78.80	-2.30	0.70	 	 	 	 	 	 	 	 	 	 	 	 	 	 	 	 	 	 	1581511774	0.84	1.56
12/02/2020 12:49:35	120220	12022020	124935	78.64	12.418812	-57.245033	78.70	-0.000	-0.350	0.990	78.66	-1.30	1.50	 	 	 	 	 	 	 	 	 	 	 	 	 	 	 	 	 	 	1581511775	0.90	1.67
12/02/2020 12:49:36	120220	12022020	124936	78.85	12.418808	-57.245033	78.94	-0.370	0.580	1.280	78.92	-0.40	1.80	 	 	 	 	 	 	 	 	 	 	 	 	 	 	 	 	 	 	1581511776	0.85	1.57
12/02/2020 12:49:37	120220	12022020	124937	79.04	12.418805	-57.245038	79.09	-0.590	1.250	1.570	79.04	-0.10	2.20	 	 	 	 	 	 	 	 	 	 	 	 	 	 	 	 	 	 	1581511777	0.92	1.70
12/02/2020 12:49:38	120220	12022020	124938	78.92	12.418803	-57.245040	78.96	-0.570	1.040	1.980	78.88	-0.70	2.50	 	 	 	 	 	 	 	 	 	 	 	 	 	 	 	 	 	 	1581511778	0.66	1.22
12/02/2020 12:49:39	120220	12022020	124939	78.76	12.418803	-57.245038	78.83	-0.300	-0.150	2.200	78.75	-2.10	2.60	 	 	 	 	 	 	 	 	 	 	 	 	 	 	 	 	 	 	1581511779	0.43	0.80
12/02/2020 12:49:40	120220	12022020	124940	78.92	12.418803	-57.245033	79.05	0.160	-1.590	2.010	79.00	-3.30	2.30	 	 	 	 	 	 	 	 	 	 	 	 	 	 	 	 	 	 	1581511780	1.15	2.13
12/02/2020 12:49:41	120220	12022020	124941	79.40	12.418805	-57.245027	79.53	0.640	-2.150	1.580	79.49	-3.30	1.90	 	 	 	 	 	 	 	 	 	 	 	 	 	 	 	 	 	 	1581511781	1.28	2.37
12/02/2020 12:49:42	120220	12022020	124942	79.66	12.418805	-57.245025	79.71	0.780	-1.300	1.320	79.65	-2.00	1.70	 	 	 	 	 	 	 	 	 	 	 	 	 	 	 	 	 	 	1581511782	0.43	0.80
12/02/2020 12:49:43	120220	12022020	124943	79.42	12.418807	-57.245030	79.41	0.360	0.270	1.440	79.33	-0.50	2.00	 	 	 	 	 	 	 	 	 	 	 	 	 	 	 	 	 	 	1581511783	0.81	1.50
12/02/2020 12:49:44	120220	12022020	124944	79.02	12.418805	-57.245035	79.03	-0.320	1.400	1.710	78.96	0.20	2.10	 	 	 	 	 	 	 	 	 	 	 	 	 	 	 	 	 	 	1581511784	1.26	2.33
12/02/2020 12:49:45	120220	12022020	124945	78.93	12.418803	-57.245038	78.99	-0.740	1.400	1.550	78.95	-0.30	1.80	 	 	 	 	 	 	 	 	 	 	 	 	 	 	 	 	 	 	1581511785	0.72	1.33
12/02/2020 12:49:46	120220	12022020	124946	79.16	12.418807	-57.245038	79.23	-0.600	0.360	0.990	79.21	-1.60	1.20	 	 	 	 	 	 	 	 	 	 	 	 	 	 	 	 	 	 	1581511786	0.56	1.04
12/02/2020 12:49:47	120220	12022020	124947	79.39	12.418810	-57.245033	79.44	-0.050	-1.020	0.600	79.42	-2.80	1.00	 	 	 	 	 	 	 	 	 	 	 	 	 	 	 	 	 	 	1581511787	1.23	2.28
12/02/2020 12:49:48	120220	12022020	124948	79.46	12.418812	-57.245028	79.50	0.400	-1.640	0.620	79.46	-2.90	1.10	 	 	 	 	 	 	 	 	 	 	 	 	 	 	 	 	 	 	1581511788	1.24	2.30
12/02/2020 12:49:49	120220	12022020	124949	79.39	12.418810	-57.245027	79.41	0.400	-1.070	0.890	79.37	-2.00	1.50	 	 	 	 	 	 	 	 	 	 	 	 	 	 	 	 	 	 	1581511789	0.47	0.87
12/02/2020 12:49:50	120220	12022020	124950	79.20	12.418808	-57.245028	79.21	0.100	-0.070	1.280	79.15	-1.10	1.90	 	 	 	 	 	 	 	 	 	 	 	 	 	 	 	 	 	 	1581511790	0.78	1.44
12/02/2020 12:49:51	120220	12022020	124951	78.88	12.418805	-57.245032	78.89	-0.130	0.480	1.730	78.82	-0.80	2.30	 	 	 	 	 	 	 	 	 	 	 	 	 	 	 	 	 	 	1581511791	0.91	1.69
12/02/2020 12:49:52	120220	12022020	124952	78.66	12.418803	-57.245032	78.70	-0.090	0.430	1.920	78.66	-1.00	2.30	 	 	 	 	 	 	 	 	 	 	 	 	 	 	 	 	 	 	1581511792	0.34	0.63
12/02/2020 12:49:53	120220	12022020	124953	78.82	12.418805	-57.245030	78.92	0.040	0.170	1.610	78.90	-1.30	1.80	 	 	 	 	 	 	 	 	 	 	 	 	 	 	 	 	 	 	1581511793	0.42	0.78
12/02/2020 12:49:54	120220	12022020	124954	79.23	12.418810	-57.245030	79.31	0.050	-0.150	1.040	79.32	-1.60	1.30	 	 	 	 	 	 	 	 	 	 	 	 	 	 	 	 	 	 	1581511794	0.88	1.63
12/02/2020 12:49:55	120220	12022020	124955	79.57	12.418813	-57.245030	79.62	-0.080	-0.420	0.610	79.62	-1.80	1.00	 	 	 	 	 	 	 	 	 	 	 	 	 	 	 	 	 	 	1581511795	0.88	1.63
12/02/2020 12:49:56	120220	12022020	124956	79.74	12.418815	-57.245028	79.77	-0.250	-0.390	0.660	79.74	-1.80	1.00	 	 	 	 	 	 	 	 	 	 	 	 	 	 	 	 	 	 	1581511796	0.23	0.43
12/02/2020 12:49:57	120220	12022020	124957	79.66	12.418812	-57.245030	79.67	-0.330	-0.150	1.270	79.61	-1.50	2.10	 	 	 	 	 	 	 	 	 	 	 	 	 	 	 	 	 	 	1581511797	0.74	1.37
12/02/2020 12:49:58	120220	12022020	124958	79.29	12.418805	-57.245030	79.29	-0.180	-0.180	2.110	79.29	-1.50	2.30	 	 	 	 	 	 	 	 	 	 	 	 	 	 	 	 	 	 	1581511798	1.31	2.43
12/02/2020 12:49:59	120220	12022020	124959	78.93	12.418800	-57.245028	78.95	0.220	-0.650	2.460	78.89	-2.20	2.80	 	 	 	 	 	 	 	 	 	 	 	 	 	 	 	 	 	 	1581511799	1.04	1.93
12/02/2020 12:50:00	120220	12022020	125000	78.92	12.418802	-57.245025	78.99	0.640	-1.060	2.070	78.96	-2.40	2.20	 	 	 	 	 	 	 	 	 	 	 	 	 	 	 	 	 	 	1581511800	0.77	1.43
12/02/2020 12:50:01	120220	12022020	125001	79.14	12.418807	-57.245022	79.20	0.690	-0.730	1.420	79.18	-1.70	1.60	 	 	 	 	 	 	 	 	 	 	 	 	 	 	 	 	 	 	1581511801	1.13	2.09
12/02/2020 12:50:02	120220	12022020	125002	79.28	12.418810	-57.245023	79.32	0.170	0.320	0.930	79.31	-0.60	1.20	1017.00	26.50	26.60	20.70	20.70	265.0	70.0	70.0	417.0	26.9	347.00	11.10	65.00	10.70	25647	10019.0	27.5	27.5	1581511802	1.05	1.94
12/02/2020 12:50:03	120220	12022020	125003	79.45	12.418812	-57.245030	79.50	-0.620	1.260	0.660	79.50	0.00	1.00	 	 	 	 	 	 	 	 	 	 	 	 	 	 	 	 	 	 	1581511803	1.18	2.19
12/02/2020 12:50:04	120220	12022020	125004	79.73	12.418812	-57.245033	79.79	-1.130	1.350	0.480	79.79	-0.30	0.90	 	 	 	 	 	 	 	 	 	 	 	 	 	 	 	 	 	 	1581511804	0.96	1.78
12/02/2020 12:50:05	120220	12022020	125005	79.99	12.418812	-57.245035	80.03	-1.000	0.500	0.540	80.01	-1.40	1.10	 	 	 	 	 	 	 	 	 	 	 	 	 	 	 	 	 	 	1581511805	0.23	0.43
12/02/2020 12:50:06	120220	12022020	125006	80.01	12.418810	-57.245032	80.03	-0.300	-0.780	0.970	79.99	-2.60	1.60	 	 	 	 	 	 	 	 	 	 	 	 	 	 	 	 	 	 	1581511806	0.75	1.39
12/02/2020 12:50:07	120220	12022020	125007	79.86	12.418807	-57.245027	79.88	0.560	-1.760	1.450	79.83	-3.30	2.00	 	 	 	 	 	 	 	 	 	 	 	 	 	 	 	 	 	 	1581511807	1.18	2.19
12/02/2020 12:50:08	120220	12022020	125008	79.73	12.418805	-57.245023	79.78	1.100	-1.950	1.850	79.72	-3.10	2.40	 	 	 	 	 	 	 	 	 	 	 	 	 	 	 	 	 	 	1581511808	0.88	1.63
12/02/2020 12:50:09	120220	12022020	125009	79.72	12.418805	-57.245023	79.78	1.120	-1.360	2.170	79.73	-2.30	2.70	 	 	 	 	 	 	 	 	 	 	 	 	 	 	 	 	 	 	1581511809	0.24	0.44
12/02/2020 12:50:10	120220	12022020	125010	79.81	12.418805	-57.245025	79.87	0.690	-0.340	2.220	79.81	-2.00	2.70	 	 	 	 	 	 	 	 	 	 	 	 	 	 	 	 	 	 	1581511810	0.33	0.61
12/02/2020 12:50:11	120220	12022020	125011	79.96	12.418805	-57.245027	80.03	0.060	0.800	1.990	80.00	-0.10	2.30	 	 	 	 	 	 	 	 	 	 	 	 	 	 	 	 	 	 	1581511811	0.62	1.15
12/02/2020 12:50:12	120220	12022020	125012	80.10	12.418805	-57.245030	80.15	-0.570	1.690	1.680	80.12	0.50	2.00	 	 	 	 	 	 	 	 	 	 	 	 	 	 	 	 	 	 	1581511812	0.79	1.46
12/02/2020 12:50:13	120220	12022020	125013	80.17	12.418805	-57.245035	80.21	-0.990	1.840	1.400	80.17	0.20	1.70	 	 	 	 	 	 	 	 	 	 	 	 	 	 	 	 	 	 	1581511813	0.74	1.37
12/02/2020 12:50:14	120220	12022020	125014	80.16	12.418807	-57.245037	80.19	-1.020	1.010	1.150	80.16	-0.90	1.50	 	 	 	 	 	 	 	 	 	 	 	 	 	 	 	 	 	 	1581511814	0.39	0.72
12/02/2020 12:50:15	120220	12022020	125015	80.23	12.418808	-57.245033	80.28	-0.600	-0.580	0.840	80.27	-2.70	1.10	 	 	 	 	 	 	 	 	 	 	 	 	 	 	 	 	 	 	1581511815	0.59	1.09
12/02/2020 12:50:16	120220	12022020	125016	80.50	12.418812	-57.245030	80.57	0.110	-2.190	0.470	80.56	-4.00	0.80	 	 	 	 	 	 	 	 	 	 	 	 	 	 	 	 	 	 	1581511816	1.17	2.17
12/02/2020 12:50:17	120220	12022020	125017	80.76	12.418813	-57.245023	80.80	0.690	-2.760	0.310	80.78	-3.90	0.80	 	 	 	 	 	 	 	 	 	 	 	 	 	 	 	 	 	 	1581511817	1.21	2.24
12/02/2020 12:50:18	120220	12022020	125018	80.85	12.418813	-57.245023	80.88	0.730	-1.660	0.550	80.85	-2.20	1.20	 	 	 	 	 	 	 	 	 	 	 	 	 	 	 	 	 	 	1581511818	0.28	0.52
12/02/2020 12:50:19	120220	12022020	125019	80.78	12.418810	-57.245028	80.80	0.280	0.320	1.170	80.74	-0.30	1.90	 	 	 	 	 	 	 	 	 	 	 	 	 	 	 	 	 	 	1581511819	1.36	2.52
12/02/2020 12:50:20	120220	12022020	125020	80.52	12.418805	-57.245035	80.53	-0.200	1.770	1.840	80.45	0.60	2.40	 	 	 	 	 	 	 	 	 	 	 	 	 	 	 	 	 	 	1581511820	1.96	3.63
12/02/2020 12:50:21	120220	12022020	125021	80.20	12.418802	-57.245040	80.20	-0.320	1.810	2.040	80.15	0.10	2.40	 	 	 	 	 	 	 	 	 	 	 	 	 	 	 	 	 	 	1581511821	1.11	2.06
12/02/2020 12:50:22	120220	12022020	125022	79.99	12.418803	-57.245038	80.02	-0.030	0.620	1.680	79.99	-0.40	2.20	 	 	 	 	 	 	 	 	 	 	 	 	 	 	 	 	 	 	1581511822	0.44	0.81
12/02/2020 12:50:23	120220	12022020	125023	79.99	12.418808	-57.245033	80.04	0.320	-0.890	1.150	80.01	-2.70	1.40	 	 	 	 	 	 	 	 	 	 	 	 	 	 	 	 	 	 	1581511823	1.50	2.78
12/02/2020 12:50:24	120220	12022020	125024	80.15	12.418813	-57.245030	80.21	0.350	-1.750	0.850	80.15	-3.00	1.30	 	 	 	 	 	 	 	 	 	 	 	 	 	 	 	 	 	 	1581511824	1.49	2.76
12/02/2020 12:50:25	120220	12022020	125025	80.38	12.418817	-57.245028	80.44	0.030	-1.480	0.730	80.41	-2.50	1.10	 	 	 	 	 	 	 	 	 	 	 	 	 	 	 	 	 	 	1581511825	0.60	1.11
12/02/2020 12:50:26	120220	12022020	125026	80.59	12.418815	-57.245030	80.64	-0.300	-0.480	0.750	80.62	-1.40	1.20	 	 	 	 	 	 	 	 	 	 	 	 	 	 	 	 	 	 	1581511826	0.61	1.13
12/02/2020 12:50:27	120220	12022020	125027	80.77	12.418813	-57.245035	80.82	-0.380	0.500	0.880	80.79	-0.60	1.40	 	 	 	 	 	 	 	 	 	 	 	 	 	 	 	 	 	 	1581511827	1.09	2.02
12/02/2020 12:50:28	120220	12022020	125028	80.83	12.418810	-57.245038	80.86	-0.250	0.940	1.150	80.82	-0.40	1.70	 	 	 	 	 	 	 	 	 	 	 	 	 	 	 	 	 	 	1581511828	1.04	1.93
12/02/2020 12:50:29	120220	12022020	125029	80.70	12.418807	-57.245040	80.70	-0.090	0.770	1.560	80.65	-0.80	2.10	 	 	 	 	 	 	 	 	 	 	 	 	 	 	 	 	 	 	1581511829	0.81	1.50
12/02/2020 12:50:30	120220	12022020	125030	80.43	12.418803	-57.245038	80.44	0.040	0.120	1.860	80.37	-1.60	2.30	 	 	 	 	 	 	 	 	 	 	 	 	 	 	 	 	 	 	1581511830	0.52	0.96
12/02/2020 12:50:31	120220	12022020	125031	80.17	12.418805	-57.245035	80.19	0.060	-0.640	1.870	80.13	-2.20	2.20	 	 	 	 	 	 	 	 	 	 	 	 	 	 	 	 	 	 	1581511831	0.49	0.91
12/02/2020 12:50:32	120220	12022020	125032	80.04	12.418807	-57.245033	80.08	0.060	-1.130	1.660	80.04	-2.60	2.00	 	 	 	 	 	 	 	 	 	 	 	 	 	 	 	 	 	 	1581511832	0.68	1.26
12/02/2020 12:50:33	120220	12022020	125033	80.07	12.418810	-57.245033	80.12	0.180	-1.290	1.400	80.08	-2.60	1.70	 	 	 	 	 	 	 	 	 	 	 	 	 	 	 	 	 	 	1581511833	0.66	1.22
12/02/2020 12:50:34	120220	12022020	125034	80.15	12.418812	-57.245033	80.20	0.450	-1.110	1.150	80.17	-2.30	1.40	 	 	 	 	 	 	 	 	 	 	 	 	 	 	 	 	 	 	1581511834	0.54	1.00
12/02/2020 12:50:35	120220	12022020	125035	80.33	12.418815	-57.245032	80.39	0.620	-0.540	0.770	80.39	-1.50	1.00	 	 	 	 	 	 	 	 	 	 	 	 	 	 	 	 	 	 	1581511835	0.50	0.93
12/02/2020 12:50:36	120220	12022020	125036	80.73	12.418817	-57.245033	80.81	0.340	0.510	0.400	80.82	-0.40	0.80	 	 	 	 	 	 	 	 	 	 	 	 	 	 	 	 	 	 	1581511836	0.54	1.00
12/02/2020 12:50:37	120220	12022020	125037	81.13	12.418817	-57.245038	81.18	-0.360	1.580	0.470	81.17	0.50	1.10	 	 	 	 	 	 	 	 	 	 	 	 	 	 	 	 	 	 	1581511837	0.86	1.59
12/02/2020 12:50:38	120220	12022020	125038	81.17	12.418812	-57.245042	81.17	-1.010	1.850	1.000	81.12	0.20	1.70	 	 	 	 	 	 	 	 	 	 	 	 	 	 	 	 	 	 	1581511838	1.30	2.41
12/02/2020 12:50:39	120220	12022020	125039	80.84	12.418807	-57.245043	80.83	-1.090	0.820	1.620	80.77	-1.20	2.20	 	 	 	 	 	 	 	 	 	 	 	 	 	 	 	 	 	 	1581511839	1.04	1.93
12/02/2020 12:50:40	120220	12022020	125040	80.49	12.418805	-57.245038	80.51	-0.560	-0.970	1.940	80.45	-3.00	2.40	 	 	 	 	 	 	 	 	 	 	 	 	 	 	 	 	 	 	1581511840	0.99	1.83
12/02/2020 12:50:41	120220	12022020	125041	80.35	12.418807	-57.245033	80.41	0.220	-2.350	1.930	80.36	-3.90	2.30	 	 	 	 	 	 	 	 	 	 	 	 	 	 	 	 	 	 	1581511841	1.36	2.52
12/02/2020 12:50:42	120220	12022020	125042	80.40	12.418808	-57.245028	80.47	0.840	-2.480	1.710	80.43	-3.50	2.00	 	 	 	 	 	 	 	 	 	 	 	 	 	 	 	 	 	 	1581511842	1.00	1.85
12/02/2020 12:50:43	120220	12022020	125043	80.55	12.418812	-57.245030	80.61	1.090	-1.530	1.430	80.59	-2.30	1.80	 	 	 	 	 	 	 	 	 	 	 	 	 	 	 	 	 	 	1581511843	0.64	1.19
12/02/2020 12:50:44	120220	12022020	125044	80.81	12.418813	-57.245033	80.89	0.860	-0.100	1.210	80.88	-0.90	1.60	 	 	 	 	 	 	 	 	 	 	 	 	 	 	 	 	 	 	1581511844	0.77	1.43
12/02/2020 12:50:45	120220	12022020	125045	81.18	12.418813	-57.245037	81.27	0.290	1.170	1.130	81.25	0.20	1.60	 	 	 	 	 	 	 	 	 	 	 	 	 	 	 	 	 	 	1581511845	0.84	1.56
12/02/2020 12:50:46	120220	12022020	125046	81.38	12.418812	-57.245040	81.41	-0.390	1.840	1.280	81.38	0.40	1.60	 	 	 	 	 	 	 	 	 	 	 	 	 	 	 	 	 	 	1581511846	0.77	1.43
12/02/2020 12:50:47	120220	12022020	125047	81.17	12.418808	-57.245042	81.17	-0.880	1.600	1.510	81.09	-0.10	2.00	 	 	 	 	 	 	 	 	 	 	 	 	 	 	 	 	 	 	1581511847	0.65	1.20
12/02/2020 12:50:48	120220	12022020	125048	80.73	12.418807	-57.245040	80.72	-0.950	0.490	1.620	80.64	-1.40	2.00	 	 	 	 	 	 	 	 	 	 	 	 	 	 	 	 	 	 	1581511848	0.58	1.07
12/02/2020 12:50:49	120220	12022020	125049	80.42	12.418807	-57.245035	80.45	-0.570	-0.910	1.510	80.41	-2.70	1.80	 	 	 	 	 	 	 	 	 	 	 	 	 	 	 	 	 	 	1581511849	0.89	1.65
12/02/2020 12:50:50	120220	12022020	125050	80.48	12.418808	-57.245032	80.55	0.020	-1.770	1.190	80.52	-3.20	1.40	 	 	 	 	 	 	 	 	 	 	 	 	 	 	 	 	 	 	1581511850	0.99	1.83
12/02/2020 12:50:51	120220	12022020	125051	80.76	12.418812	-57.245030	80.83	0.470	-1.700	0.720	80.81	-2.80	0.90	 	 	 	 	 	 	 	 	 	 	 	 	 	 	 	 	 	 	1581511851	0.80	1.48
12/02/2020 12:50:52	120220	12022020	125052	80.98	12.418815	-57.245032	81.00	0.570	-0.930	0.290	80.99	-1.90	0.60	 	 	 	 	 	 	 	 	 	 	 	 	 	 	 	 	 	 	1581511852	0.79	1.46
12/02/2020 12:50:53	120220	12022020	125053	80.94	12.418817	-57.245035	80.94	0.400	-0.030	0.290	80.90	-1.10	0.90	 	 	 	 	 	 	 	 	 	 	 	 	 	 	 	 	 	 	1581511853	0.77	1.43
12/02/2020 12:50:54	120220	12022020	125054	80.69	12.418815	-57.245037	80.68	0.150	0.390	0.760	80.63	-0.90	1.40	 	 	 	 	 	 	 	 	 	 	 	 	 	 	 	 	 	 	1581511854	0.53	0.98
12/02/2020 12:50:55	120220	12022020	125055	80.46	12.418812	-57.245035	80.49	-0.050	0.320	1.290	80.44	-1.10	1.90	 	 	 	 	 	 	 	 	 	 	 	 	 	 	 	 	 	 	1581511855	0.85	1.57
12/02/2020 12:50:56	120220	12022020	125056	80.43	12.418808	-57.245033	80.51	-0.210	0.260	1.600	80.46	-1.00	2.00	 	 	 	 	 	 	 	 	 	 	 	 	 	 	 	 	 	 	1581511856	0.87	1.61
12/02/2020 12:50:57	120220	12022020	125057	80.64	12.418807	-57.245032	80.73	-0.360	0.440	1.600	80.70	-0.80	2.00	 	 	 	 	 	 	 	 	 	 	 	 	 	 	 	 	 	 	1581511857	0.30	0.56
12/02/2020 12:50:58	120220	12022020	125058	80.94	12.418807	-57.245035	81.02	-0.390	0.470	1.420	80.99	-1.00	1.80	 	 	 	 	 	 	 	 	 	 	 	 	 	 	 	 	 	 	1581511858	0.41	0.76
12/02/2020 12:50:59	120220	12022020	125059	81.11	12.418808	-57.245035	81.16	-0.190	-0.070	1.290	81.11	-1.80	1.70	 	 	 	 	 	 	 	 	 	 	 	 	 	 	 	 	 	 	1581511859	0.27	0.50
12/02/2020 12:51:00	120220	12022020	125100	81.05	12.418808	-57.245033	81.01	0.190	-0.980	1.500	81.00	-2.10	1.80	 	 	 	 	 	 	 	 	 	 	 	 	 	 	 	 	 	 	1581511860	0.52	0.96
12/02/2020 12:51:01	120220	12022020	125101	80.61	12.418805	-57.245028	80.60	0.520	-1.540	2.020	80.52	-2.80	2.60	 	 	 	 	 	 	 	 	 	 	 	 	 	 	 	 	 	 	1581511861	1.07	1.98
12/02/2020 12:51:02	120220	12022020	125102	80.19	12.418803	-57.245025	80.21	0.590	-1.210	2.390	80.14	-2.20	2.80	1017.00	26.40	26.50	20.80	20.90	301.0	71.0	71.0	416.0	27.0	350.00	11.60	70.00	11.20	27625	9388.0	27.5	27.5	1581511862	0.85	1.57
12/02/2020 12:51:03	120220	12022020	125103	80.12	12.418803	-57.245027	80.20	0.360	-0.250	2.060	80.18	-1.20	2.10	 	 	 	 	 	 	 	 	 	 	 	 	 	 	 	 	 	 	1581511863	0.23	0.43
12/02/2020 12:51:04	120220	12022020	125104	80.63	12.418807	-57.245030	80.77	-0.060	0.630	1.160	80.79	-0.50	1.20	 	 	 	 	 	 	 	 	 	 	 	 	 	 	 	 	 	 	1581511864	1.10	2.04
12/02/2020 12:51:05	120220	12022020	125105	81.38	12.418810	-57.245033	81.47	-0.440	1.020	0.400	81.49	-0.30	0.70	 	 	 	 	 	 	 	 	 	 	 	 	 	 	 	 	 	 	1581511865	1.19	2.20
12/02/2020 12:51:06	120220	12022020	125106	81.77	12.418812	-57.245035	81.78	-0.560	0.910	0.200	81.78	-0.70	0.70	 	 	 	 	 	 	 	 	 	 	 	 	 	 	 	 	 	 	1581511866	0.42	0.78
12/02/2020 12:51:07	120220	12022020	125107	81.66	12.418810	-57.245035	81.61	-0.300	0.130	0.440	81.59	-1.70	1.00	 	 	 	 	 	 	 	 	 	 	 	 	 	 	 	 	 	 	1581511867	0.40	0.74
12/02/2020 12:51:08	120220	12022020	125108	81.22	12.418808	-57.245030	81.16	0.170	-1.010	0.870	81.12	-2.70	1.50	 	 	 	 	 	 	 	 	 	 	 	 	 	 	 	 	 	 	1581511868	0.97	1.80
12/02/2020 12:51:09	120220	12022020	125109	80.75	12.418807	-57.245025	80.73	0.490	-1.690	1.380	80.70	-3.00	2.00	 	 	 	 	 	 	 	 	 	 	 	 	 	 	 	 	 	 	1581511869	1.23	2.28
12/02/2020 12:51:10	120220	12022020	125110	80.73	12.418807	-57.245022	80.80	0.400	-1.230	1.830	80.80	-2.10	2.40	 	 	 	 	 	 	 	 	 	 	 	 	 	 	 	 	 	 	1581511870	0.65	1.20
12/02/2020 12:51:11	120220	12022020	125111	81.26	12.418805	-57.245023	81.40	0.040	-0.020	2.040	81.40	-0.90	2.40	 	 	 	 	 	 	 	 	 	 	 	 	 	 	 	 	 	 	1581511871	0.65	1.20
12/02/2020 12:51:12	120220	12022020	125112	81.84	12.418802	-57.245030	82.09	-0.220	0.900	1.970	81.96	-0.60	2.40	 	 	 	 	 	 	 	 	 	 	 	 	 	 	 	 	 	 	1581511872	1.17	2.17
12/02/2020 12:51:13	120220	12022020	125113	82.35	12.418802	-57.245032	82.41	-0.190	0.910	1.790	82.37	-0.60	2.20	 	 	 	 	 	 	 	 	 	 	 	 	 	 	 	 	 	 	1581511873	0.65	1.20
12/02/2020 12:51:14	120220	12022020	125114	82.27	12.418802	-57.245030	82.29	-0.070	0.320	1.760	82.27	-0.90	2.20	 	 	 	 	 	 	 	 	 	 	 	 	 	 	 	 	 	 	1581511874	0.29	0.54
12/02/2020 12:51:15	120220	12022020	125115	82.00	12.418800	-57.245028	82.02	-0.110	-0.280	1.950	81.96	-1.80	2.50	 	 	 	 	 	 	 	 	 	 	 	 	 	 	 	 	 	 	1581511875	0.59	1.09
12/02/2020 12:51:16	120220	12022020	125116	81.88	12.418800	-57.245027	81.95	-0.230	-0.780	2.120	81.89	-2.30	2.50	 	 	 	 	 	 	 	 	 	 	 	 	 	 	 	 	 	 	1581511876	0.40	0.74
12/02/2020 12:51:17	120220	12022020	125117	82.04	12.418800	-57.245025	82.14	-0.110	-1.290	1.950	82.09	-2.70	2.20	 	 	 	 	 	 	 	 	 	 	 	 	 	 	 	 	 	 	1581511877	0.33	0.61
12/02/2020 12:51:18	120220	12022020	125118	82.29	12.418800	-57.245022	82.37	0.330	-1.380	1.590	82.33	-2.50	1.90	 	 	 	 	 	 	 	 	 	 	 	 	 	 	 	 	 	 	1581511878	0.55	1.02
12/02/2020 12:51:19	120220	12022020	125119	82.39	12.418802	-57.245022	82.41	0.640	-0.590	1.170	82.38	-1.40	1.40	 	 	 	 	 	 	 	 	 	 	 	 	 	 	 	 	 	 	1581511879	0.29	0.54
12/02/2020 12:51:20	120220	12022020	125120	82.34	12.418803	-57.245025	82.35	0.430	0.720	0.670	82.34	-0.20	0.90	 	 	 	 	 	 	 	 	 	 	 	 	 	 	 	 	 	 	1581511880	0.85	1.57
12/02/2020 12:51:21	120220	12022020	125121	82.41	12.418807	-57.245030	82.43	-0.160	1.510	0.210	82.44	0.10	0.50	 	 	 	 	 	 	 	 	 	 	 	 	 	 	 	 	 	 	1581511881	1.44	2.67
12/02/2020 12:51:22	120220	12022020	125122	82.59	12.418810	-57.245033	82.60	-0.570	1.020	-0.050	82.61	-0.90	0.40	 	 	 	 	 	 	 	 	 	 	 	 	 	 	 	 	 	 	1581511882	0.97	1.80
12/02/2020 12:51:23	120220	12022020	125123	82.56	12.418812	-57.245030	82.53	-0.470	-0.410	0.170	82.51	-2.30	0.80	 	 	 	 	 	 	 	 	 	 	 	 	 	 	 	 	 	 	1581511883	0.70	1.30
12/02/2020 12:51:24	120220	12022020	125124	82.27	12.418812	-57.245023	82.25	-0.090	-1.530	0.770	82.21	-3.00	1.50	 	 	 	 	 	 	 	 	 	 	 	 	 	 	 	 	 	 	1581511884	1.41	2.61
12/02/2020 12:51:25	120220	12022020	125125	82.05	12.418808	-57.245020	82.08	0.160	-1.460	1.380	82.03	-2.50	2.00	 	 	 	 	 	 	 	 	 	 	 	 	 	 	 	 	 	 	1581511885	1.01	1.87
12/02/2020 12:51:26	120220	12022020	125126	82.07	12.418805	-57.245022	82.15	0.100	-0.520	1.840	82.11	-1.40	2.40	 	 	 	 	 	 	 	 	 	 	 	 	 	 	 	 	 	 	1581511886	0.75	1.39
12/02/2020 12:51:27	120220	12022020	125127	82.35	12.418802	-57.245027	82.46	-0.140	0.470	2.050	82.41	-0.60	2.50	 	 	 	 	 	 	 	 	 	 	 	 	 	 	 	 	 	 	1581511887	1.14	2.11
12/02/2020 12:51:28	120220	12022020	125128	82.60	12.418800	-57.245030	82.68	-0.280	0.740	1.980	82.62	-0.80	2.30	 	 	 	 	 	 	 	 	 	 	 	 	 	 	 	 	 	 	1581511888	0.93	1.72
12/02/2020 12:51:29	120220	12022020	125129	82.53	12.418798	-57.245030	82.56	-0.100	0.160	1.820	82.47	-1.50	2.20	 	 	 	 	 	 	 	 	 	 	 	 	 	 	 	 	 	 	1581511889	0.16	0.30
12/02/2020 12:51:30	120220	12022020	125130	82.20	12.418800	-57.245025	82.21	0.300	-0.700	1.620	82.13	-2.30	1.90	 	 	 	 	 	 	 	 	 	 	 	 	 	 	 	 	 	 	1581511890	0.83	1.54
12/02/2020 12:51:31	120220	12022020	125131	81.90	12.418802	-57.245022	81.92	0.570	-1.070	1.350	81.86	-2.30	1.70	 	 	 	 	 	 	 	 	 	 	 	 	 	 	 	 	 	 	1581511891	1.04	1.93
12/02/2020 12:51:32	120220	12022020	125132	81.82	12.418807	-57.245022	81.87	0.410	-0.550	1.020	81.84	-1.50	1.30	 	 	 	 	 	 	 	 	 	 	 	 	 	 	 	 	 	 	1581511892	0.87	1.61
12/02/2020 12:51:33	120220	12022020	125133	82.04	12.418810	-57.245025	82.12	-0.130	0.440	0.570	82.10	-0.60	0.80	 	 	 	 	 	 	 	 	 	 	 	 	 	 	 	 	 	 	1581511893	1.10	2.04
12/02/2020 12:51:34	120220	12022020	125134	82.28	12.418812	-57.245030	82.32	-0.630	0.940	0.240	82.30	-0.50	0.60	 	 	 	 	 	 	 	 	 	 	 	 	 	 	 	 	 	 	1581511894	1.15	2.13
12/02/2020 12:51:35	120220	12022020	125135	82.33	12.418812	-57.245032	82.35	-0.660	0.440	0.210	82.32	-1.30	0.70	 	 	 	 	 	 	 	 	 	 	 	 	 	 	 	 	 	 	1581511895	0.37	0.69
12/02/2020 12:51:36	120220	12022020	125136	82.25	12.418810	-57.245028	82.27	-0.200	-0.620	0.490	82.23	-2.40	1.10	 	 	 	 	 	 	 	 	 	 	 	 	 	 	 	 	 	 	1581511896	0.76	1.41
12/02/2020 12:51:37	120220	12022020	125137	82.13	12.418807	-57.245023	82.17	0.340	-1.370	1.060	82.11	-2.70	1.70	 	 	 	 	 	 	 	 	 	 	 	 	 	 	 	 	 	 	1581511897	1.21	2.24
12/02/2020 12:51:38	120220	12022020	125138	82.05	12.418805	-57.245020	82.11	0.490	-1.180	1.640	82.05	-2.20	2.20	 	 	 	 	 	 	 	 	 	 	 	 	 	 	 	 	 	 	1581511898	0.86	1.59
12/02/2020 12:51:39	120220	12022020	125139	82.05	12.418803	-57.245022	82.09	0.210	-0.290	1.860	82.04	-1.20	2.30	 	 	 	 	 	 	 	 	 	 	 	 	 	 	 	 	 	 	1581511899	0.51	0.94
12/02/2020 12:51:40	120220	12022020	125140	81.99	12.418802	-57.245025	82.02	-0.140	0.530	1.820	81.96	-0.60	2.20	 	 	 	 	 	 	 	 	 	 	 	 	 	 	 	 	 	 	1581511900	0.81	1.50
12/02/2020 12:51:41	120220	12022020	125141	81.92	12.418802	-57.245028	81.98	-0.280	0.910	1.730	81.93	-0.40	2.10	 	 	 	 	 	 	 	 	 	 	 	 	 	 	 	 	 	 	1581511901	0.60	1.11
12/02/2020 12:51:42	120220	12022020	125142	82.03	12.418802	-57.245028	82.12	-0.220	0.690	1.530	82.07	-0.90	1.80	 	 	 	 	 	 	 	 	 	 	 	 	 	 	 	 	 	 	1581511902	0.23	0.43
12/02/2020 12:51:43	120220	12022020	125143	82.22	12.418803	-57.245028	82.30	-0.090	-0.040	1.230	82.25	-1.70	1.50	 	 	 	 	 	 	 	 	 	 	 	 	 	 	 	 	 	 	1581511903	0.26	0.48
12/02/2020 12:51:44	120220	12022020	125144	82.30	12.418805	-57.245027	82.35	-0.030	-0.790	0.960	82.29	-2.30	1.30	 	 	 	 	 	 	 	 	 	 	 	 	 	 	 	 	 	 	1581511904	0.68	1.26
12/02/2020 12:51:45	120220	12022020	125145	82.23	12.418807	-57.245025	82.26	-0.060	-1.040	0.920	82.21	-2.30	1.40	 	 	 	 	 	 	 	 	 	 	 	 	 	 	 	 	 	 	1581511905	0.57	1.06
12/02/2020 12:51:46	120220	12022020	125146	82.10	12.418807	-57.245025	82.12	-0.030	-0.880	1.120	82.07	-2.10	1.70	 	 	 	 	 	 	 	 	 	 	 	 	 	 	 	 	 	 	1581511906	0.11	0.20
12/02/2020 12:51:47	120220	12022020	125147	81.96	12.418805	-57.245025	81.98	0.190	-0.770	1.350	81.94	-2.10	1.80	 	 	 	 	 	 	 	 	 	 	 	 	 	 	 	 	 	 	1581511907	0.46	0.85
12/02/2020 12:51:48	120220	12022020	125148	81.88	12.418803	-57.245023	81.91	0.440	-0.590	1.370	81.87	-1.70	1.70	 	 	 	 	 	 	 	 	 	 	 	 	 	 	 	 	 	 	1581511908	0.41	0.76
12/02/2020 12:51:49	120220	12022020	125149	81.89	12.418805	-57.245023	81.92	0.390	0.060	1.100	81.90	-0.90	1.40	 	 	 	 	 	 	 	 	 	 	 	 	 	 	 	 	 	 	1581511909	0.33	0.61
12/02/2020 12:51:50	120220	12022020	125150	82.03	12.418808	-57.245025	82.07	-0.010	0.910	0.840	82.03	-0.60	1.30	 	 	 	 	 	 	 	 	 	 	 	 	 	 	 	 	 	 	1581511910	0.85	1.57
12/02/2020 12:51:51	120220	12022020	125151	82.21	12.418808	-57.245030	82.25	-0.380	1.160	0.700	82.24	-0.40	1.10	 	 	 	 	 	 	 	 	 	 	 	 	 	 	 	 	 	 	1581511911	0.91	1.69
12/02/2020 12:51:52	120220	12022020	125152	82.37	12.418810	-57.245030	82.41	-0.340	0.410	0.700	82.39	-1.40	1.20	 	 	 	 	 	 	 	 	 	 	 	 	 	 	 	 	 	 	1581511912	0.17	0.31
12/02/2020 12:51:53	120220	12022020	125153	82.39	12.418810	-57.245027	82.42	0.010	-0.750	0.950	82.38	-2.40	1.50	 	 	 	 	 	 	 	 	 	 	 	 	 	 	 	 	 	 	1581511913	0.82	1.52
12/02/2020 12:51:54	120220	12022020	125154	82.34	12.418808	-57.245022	82.38	0.200	-1.260	1.390	82.33	-2.50	2.00	 	 	 	 	 	 	 	 	 	 	 	 	 	 	 	 	 	 	1581511914	1.01	1.87
12/02/2020 12:51:55	120220	12022020	125155	82.28	12.418807	-57.245022	82.33	0.030	-0.830	1.870	82.25	-1.80	2.50	 	 	 	 	 	 	 	 	 	 	 	 	 	 	 	 	 	 	1581511915	0.53	0.98
12/02/2020 12:51:56	120220	12022020	125156	82.13	12.418803	-57.245025	82.18	-0.270	-0.100	2.300	82.10	-1.20	2.80	 	 	 	 	 	 	 	 	 	 	 	 	 	 	 	 	 	 	1581511916	1.05	1.94
12/02/2020 12:51:57	120220	12022020	125157	81.93	12.418800	-57.245027	81.99	-0.360	0.260	2.480	81.89	-1.10	2.90	 	 	 	 	 	 	 	 	 	 	 	 	 	 	 	 	 	 	1581511917	0.96	1.78
12/02/2020 12:51:58	120220	12022020	125158	81.73	12.418798	-57.245028	81.79	-0.120	0.050	2.320	81.71	-1.50	2.60	 	 	 	 	 	 	 	 	 	 	 	 	 	 	 	 	 	 	1581511918	0.24	0.44
12/02/2020 12:51:59	120220	12022020	125159	81.65	12.418802	-57.245027	81.72	0.310	-0.490	1.860	81.65	-2.00	2.00	 	 	 	 	 	 	 	 	 	 	 	 	 	 	 	 	 	 	1581511919	0.65	1.20
12/02/2020 12:52:00	120220	12022020	125200	81.71	12.418807	-57.245023	81.80	0.690	-0.970	1.170	81.75	-2.40	1.30	 	 	 	 	 	 	 	 	 	 	 	 	 	 	 	 	 	 	1581511920	1.26	2.33
12/02/2020 12:52:01	120220	12022020	125201	81.93	12.418812	-57.245022	82.01	0.750	-0.980	0.410	81.98	-2.10	0.60	 	 	 	 	 	 	 	 	 	 	 	 	 	 	 	 	 	 	1581511921	1.41	2.61
12/02/2020 12:52:02	120220	12022020	125202	82.13	12.418817	-57.245020	82.23	0.370	-0.290	0.040	82.17	-1.80	0.50	1017.00	26.40	26.40	20.60	20.60	482.0	70.0	70.0	413.0	27.1	351.00	11.30	73.00	11.00	35054	10328.0	27.5	27.5	1581511922	0.88	1.63
12/02/2020 12:52:03	120220	12022020	125203	82.28	12.418817	-57.245023	82.33	-0.310	0.870	0.300	82.28	-0.00	1.00	 	 	 	 	 	 	 	 	 	 	 	 	 	 	 	 	 	 	1581511923	0.59	1.09
12/02/2020 12:52:04	120220	12022020	125204	82.29	12.418812	-57.245028	82.35	-0.940	1.800	0.900	82.29	0.30	1.20	 	 	 	 	 	 	 	 	 	 	 	 	 	 	 	 	 	 	1581511924	1.38	2.56
12/02/2020 12:52:05	120220	12022020	125205	82.28	12.418807	-57.245033	82.32	-1.200	1.670	1.430	82.25	-0.10	2.00	 	 	 	 	 	 	 	 	 	 	 	 	 	 	 	 	 	 	1581511925	1.46	2.70
12/02/2020 12:52:06	120220	12022020	125206	82.02	12.418803	-57.245032	82.03	-0.900	0.250	1.860	81.94	-1.90	2.40	 	 	 	 	 	 	 	 	 	 	 	 	 	 	 	 	 	 	1581511926	0.88	1.63
12/02/2020 12:52:07	120220	12022020	125207	81.61	12.418802	-57.245027	81.62	-0.140	-1.700	2.140	81.54	-3.70	2.60	 	 	 	 	 	 	 	 	 	 	 	 	 	 	 	 	 	 	1581511927	1.18	2.19
12/02/2020 12:52:08	120220	12022020	125208	81.33	12.418802	-57.245020	81.37	0.800	-3.060	2.140	81.30	-4.50	2.50	 	 	 	 	 	 	 	 	 	 	 	 	 	 	 	 	 	 	1581511928	1.50	2.78
12/02/2020 12:52:09	120220	12022020	125209	81.24	12.418805	-57.245015	81.30	1.500	-2.960	1.900	81.24	-3.70	2.20	 	 	 	 	 	 	 	 	 	 	 	 	 	 	 	 	 	 	1581511929	1.24	2.30
12/02/2020 12:52:10	120220	12022020	125210	81.34	12.418810	-57.245015	81.40	1.480	-1.230	1.490	81.38	-1.60	1.70	 	 	 	 	 	 	 	 	 	 	 	 	 	 	 	 	 	 	1581511930	0.83	1.54
12/02/2020 12:52:11	120220	12022020	125211	81.61	12.418813	-57.245022	81.68	0.630	1.160	1.000	81.68	0.60	1.30	 	 	 	 	 	 	 	 	 	 	 	 	 	 	 	 	 	 	1581511931	1.55	2.87
12/02/2020 12:52:12	120220	12022020	125212	81.98	12.418813	-57.245032	82.05	-0.600	2.770	0.680	82.05	1.60	1.10	 	 	 	 	 	 	 	 	 	 	 	 	 	 	 	 	 	 	1581511932	1.86	3.44
12/02/2020 12:52:13	120220	12022020	125213	82.28	12.418812	-57.245037	82.34	-1.470	2.820	0.690	82.30	1.10	1.20	 	 	 	 	 	 	 	 	 	 	 	 	 	 	 	 	 	 	1581511933	1.14	2.11
12/02/2020 12:52:14	120220	12022020	125214	82.32	12.418808	-57.245035	82.36	-1.520	1.440	0.960	82.29	-0.70	1.50	 	 	 	 	 	 	 	 	 	 	 	 	 	 	 	 	 	 	1581511934	0.75	1.39
12/02/2020 12:52:15	120220	12022020	125215	82.11	12.418805	-57.245030	82.13	-0.820	-0.650	1.320	82.05	-2.80	1.90	 	 	 	 	 	 	 	 	 	 	 	 	 	 	 	 	 	 	1581511935	1.18	2.19
12/02/2020 12:52:16	120220	12022020	125216	81.83	12.418805	-57.245023	81.86	0.100	-2.420	1.620	81.79	-4.10	2.20	 	 	 	 	 	 	 	 	 	 	 	 	 	 	 	 	 	 	1581511936	1.43	2.65
12/02/2020 12:52:17	120220	12022020	125217	81.63	12.418803	-57.245018	81.68	0.780	-2.970	1.900	81.61	-4.00	2.40	 	 	 	 	 	 	 	 	 	 	 	 	 	 	 	 	 	 	1581511937	1.05	1.94
12/02/2020 12:52:18	120220	12022020	125218	81.54	12.418803	-57.245018	81.60	0.980	-2.000	2.100	81.54	-2.60	2.50	 	 	 	 	 	 	 	 	 	 	 	 	 	 	 	 	 	 	1581511938	0.24	0.44
12/02/2020 12:52:19	120220	12022020	125219	81.53	12.418802	-57.245023	81.59	0.770	-0.330	2.020	81.52	-1.00	2.30	 	 	 	 	 	 	 	 	 	 	 	 	 	 	 	 	 	 	1581511939	0.96	1.78
12/02/2020 12:52:20	120220	12022020	125220	81.47	12.418803	-57.245028	81.51	0.400	0.930	1.690	81.45	-0.20	1.90	 	 	 	 	 	 	 	 	 	 	 	 	 	 	 	 	 	 	1581511940	1.16	2.15
12/02/2020 12:52:21	120220	12022020	125221	81.41	12.418805	-57.245032	81.46	0.050	1.270	1.090	81.43	-0.10	1.20	 	 	 	 	 	 	 	 	 	 	 	 	 	 	 	 	 	 	1581511941	0.78	1.44
12/02/2020 12:52:22	120220	12022020	125222	81.55	12.418810	-57.245030	81.61	-0.240	0.950	0.230	81.59	-0.60	0.30	 	 	 	 	 	 	 	 	 	 	 	 	 	 	 	 	 	 	1581511942	1.06	1.96
12/02/2020 12:52:23	120220	12022020	125223	81.76	12.418817	-57.245028	81.79	-0.450	0.390	-0.410	81.79	-1.20	-0.10	 	 	 	 	 	 	 	 	 	 	 	 	 	 	 	 	 	 	1581511943	1.25	2.31
12/02/2020 12:52:24	120220	12022020	125224	81.91	12.418818	-57.245027	81.94	-0.480	-0.190	-0.440	81.94	-1.70	0.10	 	 	 	 	 	 	 	 	 	 	 	 	 	 	 	 	 	 	1581511944	0.69	1.28
12/02/2020 12:52:25	120220	12022020	125225	82.10	12.418817	-57.245025	82.15	-0.290	-0.650	-0.040	82.13	-2.10	0.60	 	 	 	 	 	 	 	 	 	 	 	 	 	 	 	 	 	 	1581511945	0.48	0.89
12/02/2020 12:52:26	120220	12022020	125226	82.18	12.418813	-57.245023	82.18	-0.000	-0.890	0.580	82.17	-2.20	0.80	 	 	 	 	 	 	 	 	 	 	 	 	 	 	 	 	 	 	1581511946	0.99	1.83
12/02/2020 12:52:27	120220	12022020	125227	81.82	12.418808	-57.245023	81.78	0.180	-0.810	1.330	81.71	-2.00	2.10	 	 	 	 	 	 	 	 	 	 	 	 	 	 	 	 	 	 	1581511947	1.15	2.13
12/02/2020 12:52:28	120220	12022020	125228	81.24	12.418803	-57.245023	81.23	0.150	-0.480	2.040	81.24	-1.90	2.30	 	 	 	 	 	 	 	 	 	 	 	 	 	 	 	 	 	 	1581511948	0.95	1.76
12/02/2020 12:52:29	120220	12022020	125229	80.98	12.418800	-57.245023	81.04	-0.000	-0.030	2.440	80.99	-1.20	2.90	 	 	 	 	 	 	 	 	 	 	 	 	 	 	 	 	 	 	1581511949	0.57	1.06
12/02/2020 12:52:30	120220	12022020	125230	81.17	12.418800	-57.245025	81.25	-0.070	0.250	2.210	81.17	-1.10	2.80	 	 	 	 	 	 	 	 	 	 	 	 	 	 	 	 	 	 	1581511950	0.31	0.57
12/02/2020 12:52:31	120220	12022020	125231	81.45	12.418803	-57.245027	81.50	0.050	0.260	1.420	81.50	-1.20	1.50	 	 	 	 	 	 	 	 	 	 	 	 	 	 	 	 	 	 	1581511951	0.72	1.33
12/02/2020 12:52:32	120220	12022020	125232	81.60	12.418808	-57.245027	81.60	0.290	-0.040	0.600	81.60	-1.60	0.80	 	 	 	 	 	 	 	 	 	 	 	 	 	 	 	 	 	 	1581511952	1.25	2.31
12/02/2020 12:52:33	120220	12022020	125233	81.56	12.418815	-57.245027	81.55	0.510	-0.690	0.190	81.54	-2.30	0.60	 	 	 	 	 	 	 	 	 	 	 	 	 	 	 	 	 	 	1581511953	1.17	2.17
12/02/2020 12:52:34	120220	12022020	125234	81.45	12.418817	-57.245022	81.44	0.550	-1.330	0.250	81.44	-2.70	0.80	 	 	 	 	 	 	 	 	 	 	 	 	 	 	 	 	 	 	1581511954	1.04	1.93
12/02/2020 12:52:35	120220	12022020	125235	81.52	12.418817	-57.245018	81.55	0.230	-1.050	0.460	81.55	-1.90	1.00	 	 	 	 	 	 	 	 	 	 	 	 	 	 	 	 	 	 	1581511955	0.88	1.63
12/02/2020 12:52:36	120220	12022020	125236	81.69	12.418815	-57.245020	81.73	-0.310	0.290	0.750	81.72	-0.40	1.30	 	 	 	 	 	 	 	 	 	 	 	 	 	 	 	 	 	 	1581511956	0.63	1.17
12/02/2020 12:52:37	120220	12022020	125237	81.78	12.418810	-57.245025	81.80	-0.710	1.560	1.140	81.78	0.40	1.70	 	 	 	 	 	 	 	 	 	 	 	 	 	 	 	 	 	 	1581511957	1.65	3.06
12/02/2020 12:52:38	120220	12022020	125238	81.71	12.418807	-57.245030	81.71	-0.650	1.530	1.450	81.68	-0.20	1.90	 	 	 	 	 	 	 	 	 	 	 	 	 	 	 	 	 	 	1581511958	1.34	2.48
12/02/2020 12:52:39	120220	12022020	125239	81.54	12.418807	-57.245030	81.55	-0.190	0.220	1.560	81.50	-1.80	2.00	 	 	 	 	 	 	 	 	 	 	 	 	 	 	 	 	 	 	1581511959	0.23	0.43
12/02/2020 12:52:40	120220	12022020	125240	81.44	12.418808	-57.245025	81.45	0.260	-1.200	1.500	81.43	-2.20	2.00	 	 	 	 	 	 	 	 	 	 	 	 	 	 	 	 	 	 	1581511960	1.20	2.22
12/02/2020 12:52:41	120220	12022020	125241	81.49	12.418810	-57.245020	81.53	0.400	-1.760	1.380	81.51	-3.00	1.80	 	 	 	 	 	 	 	 	 	 	 	 	 	 	 	 	 	 	1581511961	1.07	1.98
12/02/2020 12:52:42	120220	12022020	125242	81.68	12.418812	-57.245020	81.71	0.250	-1.340	1.300	81.71	-2.30	1.70	 	 	 	 	 	 	 	 	 	 	 	 	 	 	 	 	 	 	1581511962	0.33	0.61
12/02/2020 12:52:43	120220	12022020	125243	81.84	12.418812	-57.245023	81.89	0.070	-0.530	1.360	81.86	-1.60	1.90	 	 	 	 	 	 	 	 	 	 	 	 	 	 	 	 	 	 	1581511963	0.62	1.15
12/02/2020 12:52:44	120220	12022020	125244	81.85	12.418810	-57.245025	81.88	0.040	0.080	1.570	81.83	-1.10	2.10	 	 	 	 	 	 	 	 	 	 	 	 	 	 	 	 	 	 	1581511964	0.70	1.30
12/02/2020 12:52:45	120220	12022020	125245	81.72	12.418808	-57.245027	81.75	0.020	0.410	1.660	81.71	-0.80	2.00	 	 	 	 	 	 	 	 	 	 	 	 	 	 	 	 	 	 	1581511965	0.42	0.78
12/02/2020 12:52:46	120220	12022020	125246	81.66	12.418808	-57.245027	81.68	-0.140	0.650	1.380	81.65	-0.60	1.60	 	 	 	 	 	 	 	 	 	 	 	 	 	 	 	 	 	 	1581511966	0.08	0.15
12/02/2020 12:52:47	120220	12022020	125247	81.61	12.418810	-57.245028	81.61	-0.330	0.690	0.990	81.60	-0.80	1.30	 	 	 	 	 	 	 	 	 	 	 	 	 	 	 	 	 	 	1581511967	0.40	0.74
12/02/2020 12:52:48	120220	12022020	125248	81.51	12.418812	-57.245028	81.50	-0.260	0.210	0.820	81.49	-1.50	1.20	 	 	 	 	 	 	 	 	 	 	 	 	 	 	 	 	 	 	1581511968	0.43	0.80
12/02/2020 12:52:49	120220	12022020	125249	81.44	12.418813	-57.245027	81.45	0.140	-0.710	0.750	81.44	-2.40	1.10	 	 	 	 	 	 	 	 	 	 	 	 	 	 	 	 	 	 	1581511969	0.56	1.04
12/02/2020 12:52:50	120220	12022020	125250	81.50	12.418815	-57.245023	81.55	0.560	-1.430	0.610	81.54	-2.80	1.00	 	 	 	 	 	 	 	 	 	 	 	 	 	 	 	 	 	 	1581511970	0.94	1.74
12/02/2020 12:52:51	120220	12022020	125251	81.68	12.418817	-57.245020	81.72	0.610	-1.290	0.480	81.69	-2.30	0.90	 	 	 	 	 	 	 	 	 	 	 	 	 	 	 	 	 	 	1581511971	0.66	1.22
12/02/2020 12:52:52	120220	12022020	125252	81.69	12.418817	-57.245022	81.68	0.250	-0.280	0.610	81.67	-1.90	1.00	 	 	 	 	 	 	 	 	 	 	 	 	 	 	 	 	 	 	1581511972	0.26	0.48
12/02/2020 12:52:53	120220	12022020	125253	81.45	12.418815	-57.245027	81.47	-0.230	0.870	1.060	81.40	-0.20	1.70	 	 	 	 	 	 	 	 	 	 	 	 	 	 	 	 	 	 	1581511973	1.03	1.91
12/02/2020 12:52:54	120220	12022020	125254	81.22	12.418813	-57.245032	81.26	-0.460	1.130	1.690	81.22	-0.20	2.00	 	 	 	 	 	 	 	 	 	 	 	 	 	 	 	 	 	 	1581511974	1.04	1.93
12/02/2020 12:52:55	120220	12022020	125255	81.16	12.418810	-57.245030	81.25	-0.360	0.250	2.150	81.17	-1.60	2.60	 	 	 	 	 	 	 	 	 	 	 	 	 	 	 	 	 	 	1581511975	0.55	1.02
12/02/2020 12:52:56	120220	12022020	125256	81.22	12.418810	-57.245025	81.30	-0.210	-0.750	2.200	81.23	-2.20	2.50	 	 	 	 	 	 	 	 	 	 	 	 	 	 	 	 	 	 	1581511976	1.10	2.04
12/02/2020 12:52:57	120220	12022020	125257	81.22	12.418810	-57.245022	81.28	-0.230	-0.860	2.000	81.21	-2.00	2.30	 	 	 	 	 	 	 	 	 	 	 	 	 	 	 	 	 	 	1581511977	0.74	1.37
12/02/2020 12:52:58	120220	12022020	125258	81.12	12.418810	-57.245023	81.15	-0.310	-0.290	1.870	81.09	-1.40	2.30	 	 	 	 	 	 	 	 	 	 	 	 	 	 	 	 	 	 	1581511978	0.36	0.67
12/02/2020 12:52:59	120220	12022020	125259	80.95	12.418808	-57.245027	80.98	-0.130	-0.030	1.750	80.92	-1.50	2.10	 	 	 	 	 	 	 	 	 	 	 	 	 	 	 	 	 	 	1581511979	0.79	1.46
12/02/2020 12:53:00	120220	12022020	125300	80.85	12.418810	-57.245027	80.87	0.350	-0.450	1.340	80.84	-2.00	1.50	 	 	 	 	 	 	 	 	 	 	 	 	 	 	 	 	 	 	1581511980	0.24	0.44
12/02/2020 12:53:01	120220	12022020	125301	80.85	12.418813	-57.245025	80.86	0.760	-0.810	0.710	80.85	-2.10	0.90	 	 	 	 	 	 	 	 	 	 	 	 	 	 	 	 	 	 	1581511981	1.06	1.96
12/02/2020 12:53:02	120220	12022020	125302	80.85	12.418818	-57.245023	80.84	0.660	-0.480	0.250	80.84	-1.50	0.60	1017.00	26.40	26.50	20.50	20.60	669.0	70.0	70.0	412.0	27.3	353.00	10.40	74.00	9.90	41885	11425.0	27.5	27.5	1581511982	1.09	2.02
12/02/2020 12:53:03	120220	12022020	125303	80.82	12.418822	-57.245025	80.82	0.130	0.210	0.110	80.83	-0.90	0.50	 	 	 	 	 	 	 	 	 	 	 	 	 	 	 	 	 	 	1581511983	0.74	1.37
12/02/2020 12:53:04	120220	12022020	125304	80.87	12.418822	-57.245028	80.87	-0.330	0.550	0.110	80.88	-0.80	0.60	 	 	 	 	 	 	 	 	 	 	 	 	 	 	 	 	 	 	1581511984	0.60	1.11
12/02/2020 12:53:05	120220	12022020	125305	80.87	12.418822	-57.245028	80.85	-0.450	0.360	0.280	80.83	-1.20	0.90	 	 	 	 	 	 	 	 	 	 	 	 	 	 	 	 	 	 	1581511985	0.15	0.28
12/02/2020 12:53:06	120220	12022020	125306	80.59	12.418820	-57.245027	80.56	-0.360	-0.050	0.780	80.51	-1.50	1.50	 	 	 	 	 	 	 	 	 	 	 	 	 	 	 	 	 	 	1581511986	0.43	0.80
12/02/2020 12:53:07	120220	12022020	125307	80.24	12.418818	-57.245025	80.28	-0.320	-0.260	1.410	80.22	-1.60	2.00	 	 	 	 	 	 	 	 	 	 	 	 	 	 	 	 	 	 	1581511987	0.56	1.04
12/02/2020 12:53:08	120220	12022020	125308	80.32	12.418817	-57.245025	80.42	-0.340	-0.270	1.760	80.39	-1.60	2.20	 	 	 	 	 	 	 	 	 	 	 	 	 	 	 	 	 	 	1581511988	0.39	0.72
12/02/2020 12:53:09	120220	12022020	125309	80.72	12.418815	-57.245027	80.82	-0.190	-0.430	1.770	80.78	-1.90	2.20	 	 	 	 	 	 	 	 	 	 	 	 	 	 	 	 	 	 	1581511989	0.40	0.74
12/02/2020 12:53:10	120220	12022020	125310	80.84	12.418813	-57.245025	80.87	0.270	-0.850	1.870	80.80	-2.30	2.40	 	 	 	 	 	 	 	 	 	 	 	 	 	 	 	 	 	 	1581511990	0.36	0.67
12/02/2020 12:53:11	120220	12022020	125311	80.62	12.418812	-57.245022	80.64	0.750	-1.050	2.080	80.58	-2.30	2.60	 	 	 	 	 	 	 	 	 	 	 	 	 	 	 	 	 	 	1581511991	0.70	1.30
12/02/2020 12:53:12	120220	12022020	125312	80.52	12.418812	-57.245020	80.57	0.730	-0.550	2.190	80.53	-1.50	2.60	 	 	 	 	 	 	 	 	 	 	 	 	 	 	 	 	 	 	1581511992	0.42	0.78
12/02/2020 12:53:13	120220	12022020	125313	80.65	12.418812	-57.245023	80.71	0.110	0.500	2.050	80.67	-0.40	2.40	 	 	 	 	 	 	 	 	 	 	 	 	 	 	 	 	 	 	1581511993	0.48	0.89
12/02/2020 12:53:14	120220	12022020	125314	80.74	12.418813	-57.245028	80.79	-0.660	1.360	1.720	80.75	0.10	2.00	 	 	 	 	 	 	 	 	 	 	 	 	 	 	 	 	 	 	1581511994	1.17	2.17
12/02/2020 12:53:15	120220	12022020	125315	80.75	12.418813	-57.245033	80.77	-0.970	1.130	1.220	80.74	-0.70	1.40	 	 	 	 	 	 	 	 	 	 	 	 	 	 	 	 	 	 	1581511995	0.96	1.78
12/02/2020 12:53:16	120220	12022020	125316	80.65	12.418815	-57.245032	80.64	-0.600	-0.230	0.590	80.65	-1.20	1.20	 	 	 	 	 	 	 	 	 	 	 	 	 	 	 	 	 	 	1581511996	0.44	0.81
12/02/2020 12:53:17	120220	12022020	125317	80.48	12.418818	-57.245027	80.47	0.140	-1.670	0.130	80.46	-3.30	0.40	 	 	 	 	 	 	 	 	 	 	 	 	 	 	 	 	 	 	1581511997	1.39	2.57
12/02/2020 12:53:18	120220	12022020	125318	80.46	12.418822	-57.245022	80.48	0.640	-2.000	-0.080	80.46	-3.40	0.40	 	 	 	 	 	 	 	 	 	 	 	 	 	 	 	 	 	 	1581511998	1.32	2.44
12/02/2020 12:53:19	120220	12022020	125319	80.70	12.418825	-57.245022	80.74	0.600	-1.040	-0.130	80.77	-1.80	0.30	 	 	 	 	 	 	 	 	 	 	 	 	 	 	 	 	 	 	1581511999	0.46	0.85
12/02/2020 12:53:20	120220	12022020	125320	81.10	12.418825	-57.245027	81.16	0.180	0.240	-0.090	81.17	-0.70	0.40	 	 	 	 	 	 	 	 	 	 	 	 	 	 	 	 	 	 	1581512000	1.02	1.89
12/02/2020 12:53:21	120220	12022020	125321	81.36	12.418822	-57.245030	81.37	-0.230	0.920	0.240	81.37	-0.30	0.90	 	 	 	 	 	 	 	 	 	 	 	 	 	 	 	 	 	 	1581512001	1.02	1.89
12/02/2020 12:53:22	120220	12022020	125322	81.17	12.418818	-57.245032	81.14	-0.390	0.960	1.010	81.08	-0.50	1.80	 	 	 	 	 	 	 	 	 	 	 	 	 	 	 	 	 	 	1581512002	0.90	1.67
12/02/2020 12:53:23	120220	12022020	125323	80.72	12.418813	-57.245030	80.72	-0.330	0.610	1.890	80.65	-0.90	2.60	 	 	 	 	 	 	 	 	 	 	 	 	 	 	 	 	 	 	1581512003	1.22	2.26
12/02/2020 12:53:24	120220	12022020	125324	80.53	12.418810	-57.245028	80.60	-0.230	0.110	2.380	80.54	-1.40	2.90	 	 	 	 	 	 	 	 	 	 	 	 	 	 	 	 	 	 	1581512004	0.86	1.59
12/02/2020 12:53:25	120220	12022020	125325	80.68	12.418808	-57.245028	80.77	-0.250	-0.410	2.390	80.73	-1.90	2.70	 	 	 	 	 	 	 	 	 	 	 	 	 	 	 	 	 	 	1581512005	0.21	0.39
12/02/2020 12:53:26	120220	12022020	125326	80.96	12.418810	-57.245028	81.04	-0.220	-0.900	2.060	81.01	-2.40	2.30	 	 	 	 	 	 	 	 	 	 	 	 	 	 	 	 	 	 	1581512006	0.27	0.50
12/02/2020 12:53:27	120220	12022020	125327	81.16	12.418812	-57.245027	81.22	0.100	-1.350	1.620	81.18	-2.80	1.90	 	 	 	 	 	 	 	 	 	 	 	 	 	 	 	 	 	 	1581512007	0.38	0.70
12/02/2020 12:53:28	120220	12022020	125328	81.13	12.418813	-57.245025	81.14	0.630	-1.450	1.340	81.10	-2.70	1.70	 	 	 	 	 	 	 	 	 	 	 	 	 	 	 	 	 	 	1581512008	0.46	0.85
12/02/2020 12:53:29	120220	12022020	125329	80.91	12.418813	-57.245025	80.90	0.920	-0.970	1.200	80.87	-1.90	1.50	 	 	 	 	 	 	 	 	 	 	 	 	 	 	 	 	 	 	1581512009	0.36	0.67
12/02/2020 12:53:30	120220	12022020	125330	80.87	12.418815	-57.245025	80.90	0.640	0.080	0.950	80.90	-0.70	1.20	 	 	 	 	 	 	 	 	 	 	 	 	 	 	 	 	 	 	1581512010	0.42	0.78
12/02/2020 12:53:31	120220	12022020	125331	81.12	12.418817	-57.245030	81.17	-0.110	1.250	0.640	81.19	0.20	1.00	 	 	 	 	 	 	 	 	 	 	 	 	 	 	 	 	 	 	1581512011	0.92	1.70
12/02/2020 12:53:32	120220	12022020	125332	81.38	12.418818	-57.245035	81.44	-0.830	1.760	0.570	81.40	0.30	1.10	 	 	 	 	 	 	 	 	 	 	 	 	 	 	 	 	 	 	1581512012	1.08	2.00
12/02/2020 12:53:33	120220	12022020	125333	81.43	12.418817	-57.245037	81.48	-1.010	1.170	0.760	81.43	-0.70	1.30	 	 	 	 	 	 	 	 	 	 	 	 	 	 	 	 	 	 	1581512013	0.57	1.06
12/02/2020 12:53:34	120220	12022020	125334	81.33	12.418815	-57.245035	81.35	-0.580	-0.290	1.000	81.29	-2.30	1.60	 	 	 	 	 	 	 	 	 	 	 	 	 	 	 	 	 	 	1581512014	0.61	1.13
12/02/2020 12:53:35	120220	12022020	125335	81.04	12.418813	-57.245028	81.06	0.070	-1.610	1.460	80.98	-3.20	2.10	 	 	 	 	 	 	 	 	 	 	 	 	 	 	 	 	 	 	1581512015	1.21	2.24
12/02/2020 12:53:36	120220	12022020	125336	80.77	12.418812	-57.245025	80.81	0.430	-1.870	1.910	80.74	-2.90	2.40	 	 	 	 	 	 	 	 	 	 	 	 	 	 	 	 	 	 	1581512016	1.02	1.89
12/02/2020 12:53:37	120220	12022020	125337	80.78	12.418808	-57.245027	80.86	0.370	-1.030	1.960	80.83	-1.90	2.30	 	 	 	 	 	 	 	 	 	 	 	 	 	 	 	 	 	 	1581512017	0.46	0.85
12/02/2020 12:53:38	120220	12022020	125338	81.05	12.418810	-57.245032	81.13	0.230	-0.060	1.650	81.11	-1.20	1.90	 	 	 	 	 	 	 	 	 	 	 	 	 	 	 	 	 	 	1581512018	1.07	1.98
12/02/2020 12:53:39	120220	12022020	125339	81.29	12.418812	-57.245035	81.35	0.270	0.280	1.300	81.33	-1.10	1.60	 	 	 	 	 	 	 	 	 	 	 	 	 	 	 	 	 	 	1581512019	0.96	1.78
12/02/2020 12:53:40	120220	12022020	125340	81.37	12.418815	-57.245035	81.39	0.380	0.010	1.050	81.35	-1.50	1.40	 	 	 	 	 	 	 	 	 	 	 	 	 	 	 	 	 	 	1581512020	0.66	1.22
12/02/2020 12:53:41	120220	12022020	125341	81.29	12.418817	-57.245032	81.33	0.230	-0.270	0.960	81.29	-1.60	1.40	 	 	 	 	 	 	 	 	 	 	 	 	 	 	 	 	 	 	1581512021	0.80	1.48
12/02/2020 12:53:42	120220	12022020	125342	81.40	12.418817	-57.245030	81.49	-0.210	0.020	1.020	81.40	-1.50	1.40	 	 	 	 	 	 	 	 	 	 	 	 	 	 	 	 	 	 	1581512022	0.41	0.76
12/02/2020 12:53:43	120220	12022020	125343	81.74	12.418813	-57.245032	81.83	-0.670	0.810	1.160	81.80	-0.30	1.70	 	 	 	 	 	 	 	 	 	 	 	 	 	 	 	 	 	 	1581512023	0.79	1.46
12/02/2020 12:53:44	120220	12022020	125344	81.89	12.418810	-57.245037	81.93	-0.830	1.240	1.430	81.88	-0.10	1.80	 	 	 	 	 	 	 	 	 	 	 	 	 	 	 	 	 	 	1581512024	1.42	2.63
12/02/2020 12:53:45	120220	12022020	125345	81.63	12.418805	-57.245040	81.64	-0.510	0.460	1.770	81.56	-1.50	2.30	 	 	 	 	 	 	 	 	 	 	 	 	 	 	 	 	 	 	1581512025	0.97	1.80
12/02/2020 12:53:46	120220	12022020	125346	81.24	12.418805	-57.245037	81.25	0.180	-1.220	1.890	81.18	-3.20	2.30	 	 	 	 	 	 	 	 	 	 	 	 	 	 	 	 	 	 	1581512026	0.73	1.35
12/02/2020 12:53:47	120220	12022020	125347	80.96	12.418807	-57.245030	80.99	0.780	-2.480	1.700	80.93	-3.90	2.00	 	 	 	 	 	 	 	 	 	 	 	 	 	 	 	 	 	 	1581512027	1.50	2.78
12/02/2020 12:53:48	120220	12022020	125348	80.90	12.418810	-57.245025	80.96	0.900	-2.100	1.380	80.93	-2.80	1.70	 	 	 	 	 	 	 	 	 	 	 	 	 	 	 	 	 	 	1581512028	1.19	2.20
12/02/2020 12:53:49	120220	12022020	125349	81.22	12.418813	-57.245028	81.33	0.490	-0.300	0.990	81.34	-0.80	1.20	 	 	 	 	 	 	 	 	 	 	 	 	 	 	 	 	 	 	1581512029	0.99	1.83
12/02/2020 12:53:50	120220	12022020	125350	81.93	12.418815	-57.245037	82.06	-0.140	1.530	0.520	82.08	0.60	0.80	 	 	 	 	 	 	 	 	 	 	 	 	 	 	 	 	 	 	1581512030	1.90	3.52
12/02/2020 12:53:51	120220	12022020	125351	82.55	12.418815	-57.245045	82.62	-0.560	1.940	0.260	82.61	0.20	0.80	 	 	 	 	 	 	 	 	 	 	 	 	 	 	 	 	 	 	1581512031	1.58	2.93
12/02/2020 12:53:52	120220	12022020	125352	82.56	12.418813	-57.245045	82.55	-0.450	0.700	0.670	82.49	-1.40	1.40	 	 	 	 	 	 	 	 	 	 	 	 	 	 	 	 	 	 	1581512032	0.29	0.54
12/02/2020 12:53:53	120220	12022020	125353	82.05	12.418810	-57.245038	82.01	0.040	-1.040	1.560	81.92	-2.90	2.40	 	 	 	 	 	 	 	 	 	 	 	 	 	 	 	 	 	 	1581512033	1.75	3.24
12/02/2020 12:53:54	120220	12022020	125354	81.46	12.418805	-57.245030	81.47	0.450	-1.850	2.500	81.37	-3.10	3.20	 	 	 	 	 	 	 	 	 	 	 	 	 	 	 	 	 	 	1581512034	2.05	3.80
12/02/2020 12:53:55	120220	12022020	125355	81.10	12.418800	-57.245027	81.16	0.410	-1.240	3.090	81.07	-2.00	3.50	 	 	 	 	 	 	 	 	 	 	 	 	 	 	 	 	 	 	1581512035	1.22	2.26
12/02/2020 12:53:56	120220	12022020	125356	81.15	12.418797	-57.245032	81.25	-0.010	0.120	2.850	81.22	-0.70	2.90	 	 	 	 	 	 	 	 	 	 	 	 	 	 	 	 	 	 	1581512036	0.99	1.83
12/02/2020 12:53:57	120220	12022020	125357	81.71	12.418800	-57.245038	81.84	-0.480	1.160	1.710	81.85	-0.00	1.50	 	 	 	 	 	 	 	 	 	 	 	 	 	 	 	 	 	 	1581512037	1.64	3.04
12/02/2020 12:53:58	120220	12022020	125358	82.40	12.418805	-57.245045	82.48	-0.670	1.180	0.340	82.40	-0.10	1.10	 	 	 	 	 	 	 	 	 	 	 	 	 	 	 	 	 	 	1581512038	1.82	3.37
12/02/2020 12:53:59	120220	12022020	125359	82.68	12.418812	-57.245045	82.67	-0.380	0.040	-0.360	82.67	-1.90	0.10	 	 	 	 	 	 	 	 	 	 	 	 	 	 	 	 	 	 	1581512039	1.28	2.37
12/02/2020 12:54:00	120220	12022020	125400	82.50	12.418813	-57.245040	82.48	0.230	-1.460	-0.250	82.44	-3.20	0.40	 	 	 	 	 	 	 	 	 	 	 	 	 	 	 	 	 	 	1581512040	1.11	2.06
12/02/2020 12:54:01	120220	12022020	125401	82.16	12.418812	-57.245035	82.13	0.770	-2.130	0.280	82.08	-3.30	1.00	 	 	 	 	 	 	 	 	 	 	 	 	 	 	 	 	 	 	1581512041	1.42	2.63
12/02/2020 12:54:02	120220	12022020	125402	81.73	12.418808	-57.245032	81.71	0.860	-1.440	0.970	81.65	-2.20	1.60	1017.00	26.50	26.50	20.90	20.90	676.0	71.0	71.0	412.0	27.5	349.00	10.60	70.00	10.20	42729	10668.0	27.5	27.5	1581512042	1.03	1.91
12/02/2020 12:54:03	120220	12022020	125403	81.34	12.418803	-57.245035	81.34	0.450	0.150	1.410	81.28	-0.50	1.90	 	 	 	 	 	 	 	 	 	 	 	 	 	 	 	 	 	 	1581512043	1.01	1.87
12/02/2020 12:54:04	120220	12022020	125404	81.16	12.418803	-57.245042	81.20	-0.220	1.550	1.350	81.17	0.50	1.60	 	 	 	 	 	 	 	 	 	 	 	 	 	 	 	 	 	 	1581512044	1.44	2.67
12/02/2020 12:54:05	120220	12022020	125405	81.37	12.418805	-57.245047	81.47	-0.730	1.810	0.850	81.45	0.20	1.00	 	 	 	 	 	 	 	 	 	 	 	 	 	 	 	 	 	 	1581512045	1.35	2.50
12/02/2020 12:54:06	120220	12022020	125406	81.75	12.418810	-57.245048	81.94	-0.830	0.830	0.280	81.85	-0.20	0.80	 	 	 	 	 	 	 	 	 	 	 	 	 	 	 	 	 	 	1581512046	0.94	1.74
12/02/2020 12:54:07	120220	12022020	125407	82.20	12.418812	-57.245045	82.25	-0.480	-0.740	0.070	82.23	-2.70	0.60	 	 	 	 	 	 	 	 	 	 	 	 	 	 	 	 	 	 	1581512047	0.91	1.69
12/02/2020 12:54:08	120220	12022020	125408	82.29	12.418812	-57.245040	82.33	0.120	-1.910	0.350	82.29	-3.10	0.70	 	 	 	 	 	 	 	 	 	 	 	 	 	 	 	 	 	 	1581512048	1.19	2.20
12/02/2020 12:54:09	120220	12022020	125409	82.33	12.418808	-57.245037	82.39	0.560	-1.900	0.910	82.34	-2.90	1.60	 	 	 	 	 	 	 	 	 	 	 	 	 	 	 	 	 	 	1581512049	1.03	1.91
12/02/2020 12:54:10	120220	12022020	125410	82.32	12.418803	-57.245037	82.37	0.620	-0.980	1.640	82.29	-1.90	2.40	 	 	 	 	 	 	 	 	 	 	 	 	 	 	 	 	 	 	1581512050	1.05	1.94
12/02/2020 12:54:11	120220	12022020	125411	82.10	12.418798	-57.245040	82.13	0.470	0.040	2.430	82.02	-1.00	3.10	 	 	 	 	 	 	 	 	 	 	 	 	 	 	 	 	 	 	1581512051	1.39	2.57
12/02/2020 12:54:12	120220	12022020	125412	81.61	12.418793	-57.245042	81.63	0.250	0.760	2.950	81.50	-0.40	3.40	 	 	 	 	 	 	 	 	 	 	 	 	 	 	 	 	 	 	1581512052	1.19	2.20
12/02/2020 12:54:13	120220	12022020	125413	81.15	12.418792	-57.245043	81.18	-0.080	1.080	2.750	81.09	-0.30	2.80	 	 	 	 	 	 	 	 	 	 	 	 	 	 	 	 	 	 	1581512053	0.41	0.76
12/02/2020 12:54:14	120220	12022020	125414	81.09	12.418795	-57.245045	81.18	-0.470	0.900	1.760	81.15	-0.70	1.70	 	 	 	 	 	 	 	 	 	 	 	 	 	 	 	 	 	 	1581512054	0.91	1.69
12/02/2020 12:54:15	120220	12022020	125415	81.49	12.418803	-57.245045	81.58	-0.720	0.270	0.510	81.59	-1.40	0.50	 	 	 	 	 	 	 	 	 	 	 	 	 	 	 	 	 	 	1581512055	1.68	3.11
12/02/2020 12:54:16	120220	12022020	125416	81.95	12.418810	-57.245045	82.01	-0.570	-0.510	-0.370	82.01	-2.20	-0.10	 	 	 	 	 	 	 	 	 	 	 	 	 	 	 	 	 	 	1581512056	1.51	2.80
12/02/2020 12:54:17	120220	12022020	125417	82.09	12.418813	-57.245043	82.10	-0.020	-1.220	-0.580	82.08	-2.80	-0.10	 	 	 	 	 	 	 	 	 	 	 	 	 	 	 	 	 	 	1581512057	0.78	1.44
12/02/2020 12:54:18	120220	12022020	125418	82.00	12.418813	-57.245042	81.96	0.610	-1.610	-0.400	81.95	-2.90	-0.10	 	 	 	 	 	 	 	 	 	 	 	 	 	 	 	 	 	 	1581512058	0.47	0.87
12/02/2020 12:54:19	120220	12022020	125419	81.73	12.418812	-57.245040	81.74	0.880	-1.370	0.130	81.68	-2.40	0.90	 	 	 	 	 	 	 	 	 	 	 	 	 	 	 	 	 	 	1581512059	0.51	0.94
12/02/2020 12:54:20	120220	12022020	125420	81.60	12.418810	-57.245040	81.67	0.650	-0.560	0.940	81.60	-2.10	1.10	 	 	 	 	 	 	 	 	 	 	 	 	 	 	 	 	 	 	1581512060	0.62	1.15
12/02/2020 12:54:21	120220	12022020	125421	81.78	12.418805	-57.245040	81.93	0.140	0.440	1.730	81.86	-0.50	2.40	 	 	 	 	 	 	 	 	 	 	 	 	 	 	 	 	 	 	1581512061	0.98	1.81
12/02/2020 12:54:22	120220	12022020	125422	82.16	12.418800	-57.245042	82.29	-0.330	1.190	2.400	82.21	-0.00	3.00	 	 	 	 	 	 	 	 	 	 	 	 	 	 	 	 	 	 	1581512062	1.29	2.39
12/02/2020 12:54:23	120220	12022020	125423	82.26	12.418793	-57.245043	82.35	-0.540	1.270	2.970	82.23	-0.30	3.50	 	 	 	 	 	 	 	 	 	 	 	 	 	 	 	 	 	 	1581512063	1.36	2.52
12/02/2020 12:54:24	120220	12022020	125424	81.99	12.418788	-57.245042	82.06	-0.470	0.680	3.250	81.91	-1.00	3.60	 	 	 	 	 	 	 	 	 	 	 	 	 	 	 	 	 	 	1581512064	1.05	1.94
12/02/2020 12:54:25	120220	12022020	125425	81.61	12.418787	-57.245040	81.66	-0.270	-0.160	2.970	81.54	-1.80	3.10	 	 	 	 	 	 	 	 	 	 	 	 	 	 	 	 	 	 	1581512065	0.56	1.04
12/02/2020 12:54:26	120220	12022020	125426	81.34	12.418792	-57.245038	81.39	0.010	-0.950	2.140	81.31	-2.50	2.10	 	 	 	 	 	 	 	 	 	 	 	 	 	 	 	 	 	 	1581512066	0.94	1.74
12/02/2020 12:54:27	120220	12022020	125427	81.26	12.418800	-57.245037	81.32	0.330	-1.480	1.150	81.27	-2.90	1.20	 	 	 	 	 	 	 	 	 	 	 	 	 	 	 	 	 	 	1581512067	1.68	3.11
12/02/2020 12:54:28	120220	12022020	125428	81.40	12.418808	-57.245037	81.49	0.550	-1.420	0.280	81.47	-2.50	0.40	 	 	 	 	 	 	 	 	 	 	 	 	 	 	 	 	 	 	1581512068	1.84	3.41
12/02/2020 12:54:29	120220	12022020	125429	81.89	12.418813	-57.245037	82.01	0.410	-0.680	-0.400	82.02	-1.60	-0.20	 	 	 	 	 	 	 	 	 	 	 	 	 	 	 	 	 	 	1581512069	1.34	2.48
12/02/2020 12:54:30	120220	12022020	125430	82.55	12.418815	-57.245040	82.65	-0.060	0.310	-0.640	82.66	-0.70	-0.10	 	 	 	 	 	 	 	 	 	 	 	 	 	 	 	 	 	 	1581512070	0.71	1.31
12/02/2020 12:54:31	120220	12022020	125431	82.85	12.418812	-57.245043	82.87	-0.430	0.830	-0.040	82.83	-0.50	0.90	 	 	 	 	 	 	 	 	 	 	 	 	 	 	 	 	 	 	1581512071	1.02	1.89
12/02/2020 12:54:32	120220	12022020	125432	82.60	12.418803	-57.245042	82.45	-0.370	0.570	1.320	82.49	-0.60	1.40	 	 	 	 	 	 	 	 	 	 	 	 	 	 	 	 	 	 	1581512072	1.70	3.15
12/02/2020 12:54:33	120220	12022020	125433	81.76	12.418795	-57.245038	81.73	-0.050	-0.130	2.710	81.62	-1.70	3.50	 	 	 	 	 	 	 	 	 	 	 	 	 	 	 	 	 	 	1581512073	2.06	3.82
12/02/2020 12:54:34	120220	12022020	125434	81.28	12.418788	-57.245033	81.23	0.170	-0.730	3.420	81.19	-1.90	3.70	 	 	 	 	 	 	 	 	 	 	 	 	 	 	 	 	 	 	1581512074	1.65	3.06
12/02/2020 12:54:35	120220	12022020	125435	80.93	12.418788	-57.245030	80.99	0.230	-0.820	3.410	80.91	-2.00	3.60	 	 	 	 	 	 	 	 	 	 	 	 	 	 	 	 	 	 	1581512075	0.76	1.41
12/02/2020 12:54:36	120220	12022020	125436	80.98	12.418790	-57.245030	81.07	0.310	-0.380	2.760	81.03	-1.50	2.70	 	 	 	 	 	 	 	 	 	 	 	 	 	 	 	 	 	 	1581512076	0.58	1.07
12/02/2020 12:54:37	120220	12022020	125437	81.39	12.418797	-57.245032	81.49	0.380	0.130	1.600	81.51	-1.10	1.50	 	 	 	 	 	 	 	 	 	 	 	 	 	 	 	 	 	 	1581512077	1.51	2.80
12/02/2020 12:54:38	120220	12022020	125438	82.05	12.418807	-57.245035	82.14	0.170	0.360	0.270	82.19	-1.00	0.20	 	 	 	 	 	 	 	 	 	 	 	 	 	 	 	 	 	 	1581512078	1.98	3.67
12/02/2020 12:54:39	120220	12022020	125439	82.63	12.418813	-57.245037	82.67	-0.330	0.290	-0.580	82.70	-1.10	-0.20	 	 	 	 	 	 	 	 	 	 	 	 	 	 	 	 	 	 	1581512079	1.50	2.78
12/02/2020 12:54:40	120220	12022020	125440	82.74	12.418813	-57.245037	82.70	-0.760	0.010	-0.360	82.68	-1.50	0.50	 	 	 	 	 	 	 	 	 	 	 	 	 	 	 	 	 	 	1581512080	0.19	0.35
12/02/2020 12:54:41	120220	12022020	125441	82.24	12.418807	-57.245033	82.17	-0.760	-0.350	0.850	82.08	-1.80	1.80	 	 	 	 	 	 	 	 	 	 	 	 	 	 	 	 	 	 	1581512081	1.48	2.74
12/02/2020 12:54:42	120220	12022020	125442	81.44	12.418797	-57.245032	81.39	-0.340	-0.740	2.200	81.28	-2.20	3.00	 	 	 	 	 	 	 	 	 	 	 	 	 	 	 	 	 	 	1581512082	2.27	4.20
12/02/2020 12:54:43	120220	12022020	125443	80.76	12.418790	-57.245028	80.77	0.190	-0.930	2.980	80.66	-2.20	3.50	 	 	 	 	 	 	 	 	 	 	 	 	 	 	 	 	 	 	1581512083	1.69	3.13
12/02/2020 12:54:44	120220	12022020	125444	80.40	12.418788	-57.245027	80.44	0.530	-0.800	2.940	80.37	-2.00	3.10	 	 	 	 	 	 	 	 	 	 	 	 	 	 	 	 	 	 	1581512084	0.50	0.93
12/02/2020 12:54:45	120220	12022020	125445	80.43	12.418792	-57.245027	80.52	0.660	-0.550	2.140	80.50	-1.80	2.10	 	 	 	 	 	 	 	 	 	 	 	 	 	 	 	 	 	 	1581512085	0.90	1.67
12/02/2020 12:54:46	120220	12022020	125446	80.97	12.418800	-57.245027	81.10	0.660	-0.320	0.910	80.97	-1.70	1.60	 	 	 	 	 	 	 	 	 	 	 	 	 	 	 	 	 	 	1581512086	1.72	3.19
12/02/2020 12:54:47	120220	12022020	125447	81.73	12.418808	-57.245027	81.81	0.420	0.110	-0.100	81.84	-1.00	0.10	 	 	 	 	 	 	 	 	 	 	 	 	 	 	 	 	 	 	1581512087	1.73	3.20
12/02/2020 12:54:48	120220	12022020	125448	82.11	12.418812	-57.245028	82.12	-0.130	0.770	-0.410	82.11	-0.30	0.10	 	 	 	 	 	 	 	 	 	 	 	 	 	 	 	 	 	 	1581512088	0.90	1.67
12/02/2020 12:54:49	120220	12022020	125449	81.88	12.418810	-57.245030	81.83	-0.760	1.250	0.110	81.78	-0.10	0.90	 	 	 	 	 	 	 	 	 	 	 	 	 	 	 	 	 	 	1581512089	0.70	1.30
12/02/2020 12:54:50	120220	12022020	125450	81.26	12.418803	-57.245032	81.21	-1.070	0.920	1.080	81.11	-0.80	1.90	 	 	 	 	 	 	 	 	 	 	 	 	 	 	 	 	 	 	1581512090	1.42	2.63
12/02/2020 12:54:51	120220	12022020	125451	80.56	12.418798	-57.245030	80.54	-0.800	-0.270	2.010	80.43	-2.10	2.70	 	 	 	 	 	 	 	 	 	 	 	 	 	 	 	 	 	 	1581512091	1.43	2.65
12/02/2020 12:54:52	120220	12022020	125452	80.06	12.418795	-57.245025	80.09	-0.100	-1.480	2.520	80.01	-3.10	3.00	 	 	 	 	 	 	 	 	 	 	 	 	 	 	 	 	 	 	1581512092	1.22	2.26
12/02/2020 12:54:53	120220	12022020	125453	80.02	12.418797	-57.245022	80.10	0.590	-1.920	2.430	80.07	-3.10	2.70	 	 	 	 	 	 	 	 	 	 	 	 	 	 	 	 	 	 	1581512093	0.90	1.67
12/02/2020 12:54:54	120220	12022020	125454	80.32	12.418798	-57.245020	80.40	0.840	-1.480	1.990	80.38	-2.50	2.20	 	 	 	 	 	 	 	 	 	 	 	 	 	 	 	 	 	 	1581512094	0.69	1.28
12/02/2020 12:54:55	120220	12022020	125455	80.44	12.418802	-57.245022	80.45	0.610	-0.630	1.650	80.41	-1.60	2.00	 	 	 	 	 	 	 	 	 	 	 	 	 	 	 	 	 	 	1581512095	0.55	1.02
12/02/2020 12:54:56	120220	12022020	125456	80.24	12.418802	-57.245023	80.11	0.280	0.140	1.560	80.16	-1.40	2.00	 	 	 	 	 	 	 	 	 	 	 	 	 	 	 	 	 	 	1581512096	0.34	0.63
12/02/2020 12:54:57	120220	12022020	125457	79.71	12.418802	-57.245025	79.69	0.040	0.800	1.400	79.64	-0.30	1.60	 	 	 	 	 	 	 	 	 	 	 	 	 	 	 	 	 	 	1581512097	0.13	0.24
12/02/2020 12:54:58	120220	12022020	125458	79.55	12.418803	-57.245025	79.61	-0.250	1.300	0.880	79.56	-0.10	1.50	 	 	 	 	 	 	 	 	 	 	 	 	 	 	 	 	 	 	1581512098	0.50	0.93
12/02/2020 12:54:59	120220	12022020	125459	79.82	12.418807	-57.245028	79.92	-0.650	1.300	0.120	79.89	-0.20	0.30	 	 	 	 	 	 	 	 	 	 	 	 	 	 	 	 	 	 	1581512099	0.87	1.61
12/02/2020 12:55:00	120220	12022020	125500	80.12	12.418810	-57.245030	80.19	-0.910	0.560	-0.250	80.15	-1.30	0.30	 	 	 	 	 	 	 	 	 	 	 	 	 	 	 	 	 	 	1581512100	0.67	1.24
12/02/2020 12:55:01	120220	12022020	125501	80.12	12.418808	-57.245027	80.15	-0.720	-0.720	0.200	80.08	-2.50	1.00	 	 	 	 	 	 	 	 	 	 	 	 	 	 	 	 	 	 	1581512101	0.48	0.89
12/02/2020 12:55:02	120220	12022020	125502	79.78	12.418805	-57.245022	79.77	-0.120	-1.740	1.060	79.67	-3.20	1.80	1017.00	26.40	26.50	20.90	20.90	728.0	71.0	71.0	414.0	27.6	348.00	11.30	68.00	10.80	44875	11276.0	27.6	27.5	1581512102	1.39	2.57
12/02/2020 12:55:03	120220	12022020	125503	79.19	12.418800	-57.245018	79.16	0.450	-1.780	1.830	79.05	-2.80	2.50	 	 	 	 	 	 	 	 	 	 	 	 	 	 	 	 	 	 	1581512103	1.27	2.35
12/02/2020 12:55:04	120220	12022020	125504	78.48	12.418797	-57.245018	78.47	0.680	-0.980	2.420	78.36	-1.90	3.00	 	 	 	 	 	 	 	 	 	 	 	 	 	 	 	 	 	 	1581512104	0.78	1.44
12/02/2020 12:55:05	120220	12022020	125505	78.06	12.418795	-57.245022	78.13	0.630	-0.220	2.650	78.05	-1.40	3.00	 	 	 	 	 	 	 	 	 	 	 	 	 	 	 	 	 	 	1581512105	0.66	1.22
12/02/2020 12:55:06	120220	12022020	125506	78.27	12.418797	-57.245023	78.42	0.560	-0.080	2.350	78.38	-1.40	2.50	 	 	 	 	 	 	 	 	 	 	 	 	 	 	 	 	 	 	1581512106	0.41	0.76
12/02/2020 12:55:07	120220	12022020	125507	78.88	12.418802	-57.245022	79.03	0.500	-0.150	1.590	79.01	-1.40	1.70	 	 	 	 	 	 	 	 	 	 	 	 	 	 	 	 	 	 	1581512107	1.12	2.07
12/02/2020 12:55:08	120220	12022020	125508	79.44	12.418807	-57.245020	79.55	0.240	0.220	0.790	79.52	-0.80	1.00	 	 	 	 	 	 	 	 	 	 	 	 	 	 	 	 	 	 	1581512108	1.22	2.26
12/02/2020 12:55:09	120220	12022020	125509	79.66	12.418808	-57.245022	79.71	-0.300	0.890	0.430	79.66	-0.20	0.90	 	 	 	 	 	 	 	 	 	 	 	 	 	 	 	 	 	 	1581512109	0.67	1.24
12/02/2020 12:55:10	120220	12022020	125510	79.57	12.418808	-57.245025	79.54	-0.850	1.270	0.760	79.51	-0.10	1.00	 	 	 	 	 	 	 	 	 	 	 	 	 	 	 	 	 	 	1581512110	0.76	1.41
12/02/2020 12:55:11	120220	12022020	125511	79.13	12.418803	-57.245027	79.17	-1.040	0.930	1.500	79.04	-0.80	2.20	 	 	 	 	 	 	 	 	 	 	 	 	 	 	 	 	 	 	1581512111	1.06	1.96
12/02/2020 12:55:12	120220	12022020	125512	78.71	12.418798	-57.245025	78.76	-0.690	-0.120	1.980	78.65	-2.00	2.40	 	 	 	 	 	 	 	 	 	 	 	 	 	 	 	 	 	 	1581512112	0.92	1.70
12/02/2020 12:55:13	120220	12022020	125513	78.54	12.418798	-57.245022	78.64	-0.100	-1.430	1.920	78.55	-3.10	2.20	 	 	 	 	 	 	 	 	 	 	 	 	 	 	 	 	 	 	1581512113	0.80	1.48
12/02/2020 12:55:14	120220	12022020	125514	78.66	12.418800	-57.245017	78.78	0.330	-2.120	1.620	78.70	-3.40	1.90	 	 	 	 	 	 	 	 	 	 	 	 	 	 	 	 	 	 	1581512114	0.94	1.74
12/02/2020 12:55:15	120220	12022020	125515	78.79	12.418802	-57.245017	78.88	0.460	-1.680	1.310	78.79	-2.50	1.60	 	 	 	 	 	 	 	 	 	 	 	 	 	 	 	 	 	 	1581512115	0.44	0.81
12/02/2020 12:55:16	120220	12022020	125516	78.72	12.418803	-57.245020	78.76	0.390	-0.410	0.970	78.68	-1.20	1.30	 	 	 	 	 	 	 	 	 	 	 	 	 	 	 	 	 	 	1581512116	0.78	1.44
12/02/2020 12:55:17	120220	12022020	125517	78.53	12.418805	-57.245025	78.55	0.350	0.560	0.630	78.49	-0.70	0.90	 	 	 	 	 	 	 	 	 	 	 	 	 	 	 	 	 	 	1581512117	1.33	2.46
12/02/2020 12:55:18	120220	12022020	125518	78.42	12.418810	-57.245028	78.47	0.470	0.560	0.370	78.42	-0.90	0.80	 	 	 	 	 	 	 	 	 	 	 	 	 	 	 	 	 	 	1581512118	0.94	1.74
12/02/2020 12:55:19	120220	12022020	125519	78.50	12.418813	-57.245025	78.58	0.530	0.130	0.310	78.54	-1.30	0.80	 	 	 	 	 	 	 	 	 	 	 	 	 	 	 	 	 	 	1581512119	0.88	1.63
12/02/2020 12:55:20	120220	12022020	125520	78.71	12.418815	-57.245022	78.79	0.250	0.020	0.380	78.76	-1.20	0.90	 	 	 	 	 	 	 	 	 	 	 	 	 	 	 	 	 	 	1581512120	0.75	1.39
12/02/2020 12:55:21	120220	12022020	125521	78.89	12.418813	-57.245022	78.96	-0.360	0.290	0.590	78.92	-0.90	1.20	 	 	 	 	 	 	 	 	 	 	 	 	 	 	 	 	 	 	1581512121	0.17	0.31
12/02/2020 12:55:22	120220	12022020	125522	78.94	12.418810	-57.245023	78.99	-0.960	0.560	1.080	78.93	-0.80	1.40	 	 	 	 	 	 	 	 	 	 	 	 	 	 	 	 	 	 	1581512122	0.79	1.46
12/02/2020 12:55:23	120220	12022020	125523	78.76	12.418805	-57.245025	78.81	-1.160	0.490	1.740	78.71	-1.00	2.40	 	 	 	 	 	 	 	 	 	 	 	 	 	 	 	 	 	 	1581512123	1.18	2.19
12/02/2020 12:55:24	120220	12022020	125524	78.56	12.418800	-57.245027	78.57	-0.750	-0.080	2.220	78.51	-1.20	2.50	 	 	 	 	 	 	 	 	 	 	 	 	 	 	 	 	 	 	1581512124	0.98	1.81
12/02/2020 12:55:25	120220	12022020	125525	78.27	12.418800	-57.245025	78.35	0.040	-0.880	2.360	78.23	-2.50	2.70	 	 	 	 	 	 	 	 	 	 	 	 	 	 	 	 	 	 	1581512125	0.38	0.70
12/02/2020 12:55:26	120220	12022020	125526	78.15	12.418802	-57.245023	78.25	0.720	-1.460	2.200	78.15	-2.90	2.50	 	 	 	 	 	 	 	 	 	 	 	 	 	 	 	 	 	 	1581512126	0.56	1.04
12/02/2020 12:55:27	120220	12022020	125527	78.16	12.418803	-57.245022	78.25	0.930	-1.460	1.930	78.17	-2.60	2.20	 	 	 	 	 	 	 	 	 	 	 	 	 	 	 	 	 	 	1581512127	0.65	1.20
12/02/2020 12:55:28	120220	12022020	125528	78.18	12.418807	-57.245022	78.28	0.710	-0.890	1.590	78.20	-1.90	1.80	 	 	 	 	 	 	 	 	 	 	 	 	 	 	 	 	 	 	1581512128	0.58	1.07
12/02/2020 12:55:29	120220	12022020	125529	78.27	12.418808	-57.245025	78.36	0.290	-0.040	1.150	78.30	-1.00	1.40	 	 	 	 	 	 	 	 	 	 	 	 	 	 	 	 	 	 	1581512129	0.70	1.30
12/02/2020 12:55:30	120220	12022020	125530	78.40	12.418810	-57.245027	78.48	-0.120	0.750	0.750	78.42	-0.40	1.10	 	 	 	 	 	 	 	 	 	 	 	 	 	 	 	 	 	 	1581512130	0.69	1.28
12/02/2020 12:55:31	120220	12022020	125531	78.45	12.418812	-57.245030	78.50	-0.410	1.160	0.530	78.44	-0.20	0.90	 	 	 	 	 	 	 	 	 	 	 	 	 	 	 	 	 	 	1581512131	0.52	0.96
12/02/2020 12:55:32	120220	12022020	125532	78.31	12.418810	-57.245030	78.33	-0.560	0.980	0.570	78.26	-0.60	1.00	 	 	 	 	 	 	 	 	 	 	 	 	 	 	 	 	 	 	1581512132	0.29	0.54
12/02/2020 12:55:33	120220	12022020	125533	77.96	12.418808	-57.245030	77.95	-0.490	0.220	0.750	77.88	-1.50	1.20	 	 	 	 	 	 	 	 	 	 	 	 	 	 	 	 	 	 	1581512133	0.34	0.63
12/02/2020 12:55:34	120220	12022020	125534	77.57	12.418808	-57.245028	77.58	-0.150	-0.850	0.850	77.51	-2.50	1.20	 	 	 	 	 	 	 	 	 	 	 	 	 	 	 	 	 	 	1581512134	0.54	1.00
12/02/2020 12:55:35	120220	12022020	125535	77.44	12.418812	-57.245025	77.48	0.310	-1.550	0.650	77.46	-2.90	0.90	 	 	 	 	 	 	 	 	 	 	 	 	 	 	 	 	 	 	1581512135	0.98	1.81
12/02/2020 12:55:36	120220	12022020	125536	77.72	12.418817	-57.245023	77.83	0.560	-1.240	0.390	77.82	-2.20	0.80	 	 	 	 	 	 	 	 	 	 	 	 	 	 	 	 	 	 	1581512136	1.02	1.89
12/02/2020 12:55:37	120220	12022020	125537	78.23	12.418818	-57.245027	78.34	0.410	-0.260	0.440	78.32	-1.20	1.00	 	 	 	 	 	 	 	 	 	 	 	 	 	 	 	 	 	 	1581512137	0.75	1.39
12/02/2020 12:55:38	120220	12022020	125538	78.52	12.418817	-57.245030	78.59	-0.030	0.570	0.920	78.53	-0.60	1.60	 	 	 	 	 	 	 	 	 	 	 	 	 	 	 	 	 	 	1581512138	0.98	1.81
12/02/2020 12:55:39	120220	12022020	125539	78.36	12.418810	-57.245032	78.37	-0.450	0.740	1.720	78.27	-0.70	2.50	 	 	 	 	 	 	 	 	 	 	 	 	 	 	 	 	 	 	1581512139	1.38	2.56
12/02/2020 12:55:40	120220	12022020	125540	77.86	12.418803	-57.245030	77.86	-0.600	0.340	2.500	77.74	-1.20	3.10	 	 	 	 	 	 	 	 	 	 	 	 	 	 	 	 	 	 	1581512140	1.52	2.82
12/02/2020 12:55:41	120220	12022020	125541	77.36	12.418798	-57.245027	77.40	-0.450	-0.210	2.870	77.29	-1.70	3.20	 	 	 	 	 	 	 	 	 	 	 	 	 	 	 	 	 	 	1581512141	1.04	1.93
12/02/2020 12:55:42	120220	12022020	125542	77.20	12.418800	-57.245027	77.29	-0.160	-0.600	2.570	77.22	-2.00	2.70	 	 	 	 	 	 	 	 	 	 	 	 	 	 	 	 	 	 	1581512142	0.36	0.67
12/02/2020 12:55:43	120220	12022020	125543	77.43	12.418803	-57.245027	77.54	0.200	-0.840	1.730	77.49	-2.20	1.80	 	 	 	 	 	 	 	 	 	 	 	 	 	 	 	 	 	 	1581512143	0.83	1.54
12/02/2020 12:55:44	120220	12022020	125544	77.73	12.418808	-57.245027	77.81	0.540	-0.890	0.810	77.77	-2.20	0.90	 	 	 	 	 	 	 	 	 	 	 	 	 	 	 	 	 	 	1581512144	1.19	2.20
12/02/2020 12:55:45	120220	12022020	125545	77.80	12.418813	-57.245027	77.82	0.770	-0.700	0.230	77.77	-1.90	0.60	 	 	 	 	 	 	 	 	 	 	 	 	 	 	 	 	 	 	1581512145	1.12	2.07
12/02/2020 12:55:46	120220	12022020	125546	77.61	12.418818	-57.245027	77.62	0.770	-0.250	0.150	77.57	-1.40	0.60	 	 	 	 	 	 	 	 	 	 	 	 	 	 	 	 	 	 	1581512146	0.78	1.44
12/02/2020 12:55:47	120220	12022020	125547	77.55	12.418818	-57.245028	77.61	0.460	0.280	0.300	77.57	-0.90	0.80	 	 	 	 	 	 	 	 	 	 	 	 	 	 	 	 	 	 	1581512147	0.30	0.56
12/02/2020 12:55:48	120220	12022020	125548	77.68	12.418818	-57.245028	77.79	-0.080	0.690	0.560	77.71	-0.70	0.90	 	 	 	 	 	 	 	 	 	 	 	 	 	 	 	 	 	 	1581512148	0.27	0.50
12/02/2020 12:55:49	120220	12022020	125549	77.73	12.418815	-57.245028	77.79	-0.650	0.820	0.980	77.71	-0.60	1.60	 	 	 	 	 	 	 	 	 	 	 	 	 	 	 	 	 	 	1581512149	0.65	1.20
12/02/2020 12:55:50	120220	12022020	125550	77.54	12.418812	-57.245030	77.58	-0.970	0.550	1.520	77.50	-1.00	2.10	 	 	 	 	 	 	 	 	 	 	 	 	 	 	 	 	 	 	1581512150	0.77	1.43
12/02/2020 12:55:51	120220	12022020	125551	77.32	12.418808	-57.245028	77.39	-0.890	-0.060	2.010	77.29	-1.70	2.50	 	 	 	 	 	 	 	 	 	 	 	 	 	 	 	 	 	 	1581512151	0.77	1.43
12/02/2020 12:55:52	120220	12022020	125552	77.23	12.418805	-57.245027	77.33	-0.440	-0.790	2.230	77.23	-2.40	2.60	 	 	 	 	 	 	 	 	 	 	 	 	 	 	 	 	 	 	1581512152	0.64	1.19
12/02/2020 12:55:53	120220	12022020	125553	77.29	12.418805	-57.245023	77.40	0.160	-1.380	2.120	77.31	-2.80	2.40	 	 	 	 	 	 	 	 	 	 	 	 	 	 	 	 	 	 	1581512153	0.52	0.96
12/02/2020 12:55:54	120220	12022020	125554	77.32	12.418807	-57.245022	77.41	0.690	-1.530	1.810	77.32	-2.80	2.10	 	 	 	 	 	 	 	 	 	 	 	 	 	 	 	 	 	 	1581512154	0.53	0.98
12/02/2020 12:55:55	120220	12022020	125555	77.28	12.418808	-57.245022	77.36	1.000	-1.190	1.410	77.28	-2.30	1.70	 	 	 	 	 	 	 	 	 	 	 	 	 	 	 	 	 	 	1581512155	0.57	1.06
12/02/2020 12:55:56	120220	12022020	125556	77.32	12.418812	-57.245022	77.42	1.030	-0.490	1.000	77.34	-1.40	1.30	 	 	 	 	 	 	 	 	 	 	 	 	 	 	 	 	 	 	1581512156	0.69	1.28
12/02/2020 12:55:57	120220	12022020	125557	77.47	12.418815	-57.245022	77.56	0.630	0.500	0.760	77.50	-0.40	1.10	 	 	 	 	 	 	 	 	 	 	 	 	 	 	 	 	 	 	1581512157	0.63	1.17
12/02/2020 12:55:58	120220	12022020	125558	77.55	12.418817	-57.245025	77.62	-0.210	1.590	0.690	77.54	0.60	1.10	 	 	 	 	 	 	 	 	 	 	 	 	 	 	 	 	 	 	1581512158	0.63	1.17
12/02/2020 12:55:59	120220	12022020	125559	77.44	12.418815	-57.245030	77.49	-1.130	2.180	0.660	77.41	0.80	1.00	 	 	 	 	 	 	 	 	 	 	 	 	 	 	 	 	 	 	1581512159	0.98	1.81
12/02/2020 12:56:00	120220	12022020	125600	77.34	12.418813	-57.245033	77.37	-1.600	1.620	0.540	77.33	0.50	1.00	 	 	 	 	 	 	 	 	 	 	 	 	 	 	 	 	 	 	1581512160	0.79	1.46
12/02/2020 12:56:01	120220	12022020	125601	77.22	12.418813	-57.245032	77.25	-1.270	-0.150	0.480	77.19	-2.40	0.90	 	 	 	 	 	 	 	 	 	 	 	 	 	 	 	 	 	 	1581512161	0.17	0.31
12/02/2020 12:56:02	120220	12022020	125602	77.05	12.418817	-57.245027	77.08	-0.300	-2.250	0.490	77.02	-4.20	0.90	1017.10	26.40	26.50	20.80	20.90	715.0	71.0	71.0	413.0	27.7	352.00	11.40	70.00	11.10	44665	10289.0	27.5	27.5	1581512162	1.24	2.30
12/02/2020 12:56:03	120220	12022020	125603	76.99	12.418818	-57.245020	77.06	0.750	-3.450	0.570	77.00	-4.80	1.10	 	 	 	 	 	 	 	 	 	 	 	 	 	 	 	 	 	 	1581512163	1.55	2.87
12/02/2020 12:56:04	120220	12022020	125604	77.16	12.418818	-57.245015	77.27	1.380	-3.080	0.810	77.22	-3.80	1.40	 	 	 	 	 	 	 	 	 	 	 	 	 	 	 	 	 	 	1581512164	0.93	1.72
12/02/2020 12:56:05	120220	12022020	125605	77.50	12.418817	-57.245015	77.62	1.400	-1.330	1.110	77.56	-1.70	1.60	 	 	 	 	 	 	 	 	 	 	 	 	 	 	 	 	 	 	1581512165	0.51	0.94
12/02/2020 12:56:06	120220	12022020	125606	77.69	12.418813	-57.245018	77.77	0.850	1.070	1.260	77.69	0.60	1.70	 	 	 	 	 	 	 	 	 	 	 	 	 	 	 	 	 	 	1581512166	1.16	2.15
12/02/2020 12:56:07	120220	12022020	125607	77.59	12.418810	-57.245025	77.62	-0.030	2.940	1.230	77.56	2.00	1.60	 	 	 	 	 	 	 	 	 	 	 	 	 	 	 	 	 	 	1581512167	1.48	2.74
12/02/2020 12:56:08	120220	12022020	125608	77.44	12.418810	-57.245032	77.46	-0.930	3.420	1.060	77.42	1.80	1.40	 	 	 	 	 	 	 	 	 	 	 	 	 	 	 	 	 	 	1581512168	1.19	2.20
12/02/2020 12:56:09	120220	12022020	125609	77.37	12.418812	-57.245033	77.41	-1.500	2.390	0.900	77.38	0.30	1.20	 	 	 	 	 	 	 	 	 	 	 	 	 	 	 	 	 	 	1581512169	0.65	1.20
12/02/2020 12:56:10	120220	12022020	125610	77.44	12.418815	-57.245032	77.48	-1.440	0.130	0.680	77.45	-2.30	1.00	 	 	 	 	 	 	 	 	 	 	 	 	 	 	 	 	 	 	1581512170	0.68	1.26
12/02/2020 12:56:11	120220	12022020	125611	77.48	12.418818	-57.245027	77.51	-0.610	-2.560	0.600	77.48	-4.80	1.10	 	 	 	 	 	 	 	 	 	 	 	 	 	 	 	 	 	 	1581512171	1.36	2.52
12/02/2020 12:56:12	120220	12022020	125612	77.44	12.418822	-57.245020	77.46	0.590	-4.260	0.890	77.43	-5.30	1.20	 	 	 	 	 	 	 	 	 	 	 	 	 	 	 	 	 	 	1581512172	1.72	3.19
12/02/2020 12:56:13	120220	12022020	125613	77.39	12.418820	-57.245015	77.47	1.440	-3.830	1.510	77.40	-4.30	2.20	 	 	 	 	 	 	 	 	 	 	 	 	 	 	 	 	 	 	1581512173	1.14	2.11
12/02/2020 12:56:14	120220	12022020	125614	77.49	12.418815	-57.245015	77.61	1.470	-1.630	2.190	77.49	-3.50	2.40	 	 	 	 	 	 	 	 	 	 	 	 	 	 	 	 	 	 	1581512174	1.14	2.11
12/02/2020 12:56:15	120220	12022020	125615	77.75	12.418808	-57.245022	77.88	0.810	0.850	2.570	77.80	0.30	3.00	 	 	 	 	 	 	 	 	 	 	 	 	 	 	 	 	 	 	1581512175	1.86	3.44
12/02/2020 12:56:16	120220	12022020	125616	78.00	12.418803	-57.245027	78.12	-0.090	2.490	2.420	78.04	1.50	2.60	 	 	 	 	 	 	 	 	 	 	 	 	 	 	 	 	 	 	1581512176	1.47	2.72
12/02/2020 12:56:17	120220	12022020	125617	78.16	12.418805	-57.245030	78.25	-0.800	2.890	1.730	78.17	1.30	1.80	 	 	 	 	 	 	 	 	 	 	 	 	 	 	 	 	 	 	1581512177	0.76	1.41
12/02/2020 12:56:18	120220	12022020	125618	78.21	12.418810	-57.245032	78.26	-1.040	2.030	0.750	78.21	0.10	0.80	 	 	 	 	 	 	 	 	 	 	 	 	 	 	 	 	 	 	1581512178	1.00	1.85
12/02/2020 12:56:19	120220	12022020	125619	78.16	12.418815	-57.245030	78.19	-0.770	0.390	-0.150	78.15	-1.60	-0.00	 	 	 	 	 	 	 	 	 	 	 	 	 	 	 	 	 	 	1581512179	1.40	2.59
12/02/2020 12:56:20	120220	12022020	125620	78.13	12.418822	-57.245025	78.16	-0.270	-1.270	-0.750	78.14	-3.10	-0.50	 	 	 	 	 	 	 	 	 	 	 	 	 	 	 	 	 	 	1581512180	1.41	2.61
12/02/2020 12:56:21	120220	12022020	125621	78.17	12.418825	-57.245022	78.21	0.160	-2.270	-0.980	78.18	-3.70	-0.50	 	 	 	 	 	 	 	 	 	 	 	 	 	 	 	 	 	 	1581512181	1.04	1.93
12/02/2020 12:56:22	120220	12022020	125622	78.28	12.418827	-57.245022	78.33	0.430	-2.320	-0.880	78.31	-3.40	-0.30	 	 	 	 	 	 	 	 	 	 	 	 	 	 	 	 	 	 	1581512182	0.43	0.80
12/02/2020 12:56:23	120220	12022020	125623	78.43	12.418825	-57.245022	78.48	0.660	-1.700	-0.400	78.45	-2.60	0.30	 	 	 	 	 	 	 	 	 	 	 	 	 	 	 	 	 	 	1581512183	0.15	0.28
12/02/2020 12:56:24	120220	12022020	125624	78.49	12.418823	-57.245022	78.54	0.760	-0.700	0.390	78.49	-1.60	1.10	 	 	 	 	 	 	 	 	 	 	 	 	 	 	 	 	 	 	1581512184	0.67	1.24
12/02/2020 12:56:25	120220	12022020	125625	78.48	12.418818	-57.245022	78.53	0.550	0.320	1.200	78.48	-0.60	1.90	 	 	 	 	 	 	 	 	 	 	 	 	 	 	 	 	 	 	1581512185	0.94	1.74
12/02/2020 12:56:26	120220	12022020	125626	78.56	12.418813	-57.245022	78.66	0.060	1.080	1.880	78.60	-0.00	2.50	 	 	 	 	 	 	 	 	 	 	 	 	 	 	 	 	 	 	1581512186	0.91	1.69
12/02/2020 12:56:27	120220	12022020	125627	78.73	12.418810	-57.245022	78.84	-0.420	1.430	2.540	78.76	0.10	3.20	 	 	 	 	 	 	 	 	 	 	 	 	 	 	 	 	 	 	1581512187	0.89	1.65
12/02/2020 12:56:28	120220	12022020	125628	78.79	12.418805	-57.245022	78.89	-0.630	1.200	3.110	78.79	-0.40	3.60	 	 	 	 	 	 	 	 	 	 	 	 	 	 	 	 	 	 	1581512188	1.00	1.85
12/02/2020 12:56:29	120220	12022020	125629	78.78	12.418802	-57.245020	78.89	-0.530	0.460	3.220	78.78	-1.30	3.50	 	 	 	 	 	 	 	 	 	 	 	 	 	 	 	 	 	 	1581512189	0.89	1.65
12/02/2020 12:56:30	120220	12022020	125630	78.79	12.418802	-57.245018	78.88	-0.160	-0.560	2.800	78.79	-2.30	2.90	 	 	 	 	 	 	 	 	 	 	 	 	 	 	 	 	 	 	1581512190	0.53	0.98
12/02/2020 12:56:31	120220	12022020	125631	78.77	12.418805	-57.245015	78.84	0.250	-1.420	2.130	78.75	-2.90	2.30	 	 	 	 	 	 	 	 	 	 	 	 	 	 	 	 	 	 	1581512191	0.88	1.63
12/02/2020 12:56:32	120220	12022020	125632	78.58	12.418810	-57.245013	78.61	0.440	-1.620	1.530	78.53	-2.80	1.80	 	 	 	 	 	 	 	 	 	 	 	 	 	 	 	 	 	 	1581512192	1.14	2.11
12/02/2020 12:56:33	120220	12022020	125633	78.31	12.418813	-57.245013	78.33	0.330	-1.050	1.060	78.26	-2.00	1.30	 	 	 	 	 	 	 	 	 	 	 	 	 	 	 	 	 	 	1581512193	0.97	1.80
12/02/2020 12:56:34	120220	12022020	125634	78.20	12.418817	-57.245017	78.26	0.130	-0.160	0.530	78.22	-1.20	0.70	 	 	 	 	 	 	 	 	 	 	 	 	 	 	 	 	 	 	1581512194	0.95	1.76
12/02/2020 12:56:35	120220	12022020	125635	78.45	12.418820	-57.245020	78.54	0.140	0.250	-0.080	78.54	-1.10	0.10	 	 	 	 	 	 	 	 	 	 	 	 	 	 	 	 	 	 	1581512195	0.86	1.59
12/02/2020 12:56:36	120220	12022020	125636	78.83	12.418823	-57.245020	79.03	0.330	-0.030	-0.550	78.94	-1.20	-0.10	 	 	 	 	 	 	 	 	 	 	 	 	 	 	 	 	 	 	1581512196	0.70	1.30
12/02/2020 12:56:37	120220	12022020	125637	79.25	12.418825	-57.245015	79.29	0.410	-0.400	-0.480	79.26	-1.70	0.20	 	 	 	 	 	 	 	 	 	 	 	 	 	 	 	 	 	 	1581512197	0.99	1.83
12/02/2020 12:56:38	120220	12022020	125638	79.16	12.418823	-57.245012	79.08	0.200	-0.140	0.250	79.09	-1.60	0.40	 	 	 	 	 	 	 	 	 	 	 	 	 	 	 	 	 	 	1581512198	0.81	1.50
12/02/2020 12:56:39	120220	12022020	125639	78.61	12.418818	-57.245012	78.61	-0.200	0.700	1.380	78.52	-0.20	2.30	 	 	 	 	 	 	 	 	 	 	 	 	 	 	 	 	 	 	1581512199	1.11	2.06
12/02/2020 12:56:40	120220	12022020	125640	78.20	12.418812	-57.245015	78.26	-0.620	1.410	2.470	78.15	0.20	3.20	 	 	 	 	 	 	 	 	 	 	 	 	 	 	 	 	 	 	1581512200	1.62	3.00
12/02/2020 12:56:41	120220	12022020	125641	78.10	12.418807	-57.245018	78.20	-0.890	1.250	3.110	78.11	-0.40	3.60	 	 	 	 	 	 	 	 	 	 	 	 	 	 	 	 	 	 	1581512201	1.33	2.46
12/02/2020 12:56:42	120220	12022020	125642	78.22	12.418805	-57.245018	78.33	-0.760	0.000	3.190	78.25	-2.00	3.50	 	 	 	 	 	 	 	 	 	 	 	 	 	 	 	 	 	 	1581512202	0.46	0.85
12/02/2020 12:56:43	120220	12022020	125643	78.28	12.418805	-57.245015	78.36	-0.160	-1.900	2.930	78.27	-3.90	3.20	 	 	 	 	 	 	 	 	 	 	 	 	 	 	 	 	 	 	1581512203	0.88	1.63
12/02/2020 12:56:44	120220	12022020	125644	78.18	12.418808	-57.245007	78.24	0.620	-3.230	2.620	78.15	-4.60	2.90	 	 	 	 	 	 	 	 	 	 	 	 	 	 	 	 	 	 	1581512204	1.64	3.04
12/02/2020 12:56:45	120220	12022020	125645	78.00	12.418808	-57.245002	78.06	1.150	-2.840	2.320	77.96	-3.40	2.50	 	 	 	 	 	 	 	 	 	 	 	 	 	 	 	 	 	 	1581512205	1.22	2.26
12/02/2020 12:56:46	120220	12022020	125646	77.89	12.418810	-57.245003	77.97	1.170	-0.810	1.670	77.89	-1.10	1.70	 	 	 	 	 	 	 	 	 	 	 	 	 	 	 	 	 	 	1581512206	0.35	0.65
12/02/2020 12:56:47	120220	12022020	125647	77.99	12.418813	-57.245012	78.08	0.680	1.540	0.550	78.04	0.90	0.40	 	 	 	 	 	 	 	 	 	 	 	 	 	 	 	 	 	 	1581512207	1.92	3.56
12/02/2020 12:56:48	120220	12022020	125648	78.31	12.418820	-57.245020	78.39	-0.110	2.770	-0.680	78.39	1.50	-0.70	 	 	 	 	 	 	 	 	 	 	 	 	 	 	 	 	 	 	1581512208	2.50	4.63
12/02/2020 12:56:49	120220	12022020	125649	78.73	12.418827	-57.245025	78.78	-0.840	2.400	-1.520	78.79	0.60	-1.20	 	 	 	 	 	 	 	 	 	 	 	 	 	 	 	 	 	 	1581512209	1.80	3.33
12/02/2020 12:56:50	120220	12022020	125650	78.88	12.418830	-57.245025	78.87	-1.160	0.940	-1.500	78.88	0.00	-1.20	 	 	 	 	 	 	 	 	 	 	 	 	 	 	 	 	 	 	1581512210	0.55	1.02
12/02/2020 12:56:51	120220	12022020	125651	78.43	12.418827	-57.245020	78.36	-0.980	-0.740	-0.630	78.28	-2.60	0.30	 	 	 	 	 	 	 	 	 	 	 	 	 	 	 	 	 	 	1581512211	1.19	2.20
12/02/2020 12:56:52	120220	12022020	125652	77.70	12.418820	-57.245015	77.69	-0.480	-1.980	0.560	77.60	-3.60	1.40	 	 	 	 	 	 	 	 	 	 	 	 	 	 	 	 	 	 	1581512212	1.64	3.04
12/02/2020 12:56:53	120220	12022020	125653	77.36	12.418815	-57.245012	77.44	0.070	-2.450	1.490	77.35	-3.70	2.10	 	 	 	 	 	 	 	 	 	 	 	 	 	 	 	 	 	 	1581512213	1.38	2.56
12/02/2020 12:56:54	120220	12022020	125654	77.49	12.418810	-57.245012	77.64	0.490	-2.090	1.930	77.56	-3.00	2.40	 	 	 	 	 	 	 	 	 	 	 	 	 	 	 	 	 	 	1581512214	0.83	1.54
12/02/2020 12:56:55	120220	12022020	125655	77.90	12.418808	-57.245013	78.06	0.690	-1.070	1.920	78.00	-1.90	2.20	 	 	 	 	 	 	 	 	 	 	 	 	 	 	 	 	 	 	1581512215	0.47	0.87
12/02/2020 12:56:56	120220	12022020	125656	78.36	12.418810	-57.245017	78.51	0.690	0.130	1.650	78.44	-0.80	1.90	 	 	 	 	 	 	 	 	 	 	 	 	 	 	 	 	 	 	1581512216	0.73	1.35
12/02/2020 12:56:57	120220	12022020	125657	78.73	12.418812	-57.245020	78.85	0.510	0.990	1.320	78.79	-0.10	1.60	 	 	 	 	 	 	 	 	 	 	 	 	 	 	 	 	 	 	1581512217	0.82	1.52
12/02/2020 12:56:58	120220	12022020	125658	78.91	12.418813	-57.245022	78.97	0.180	1.310	1.130	78.91	-0.00	1.60	 	 	 	 	 	 	 	 	 	 	 	 	 	 	 	 	 	 	1581512218	0.41	0.76
12/02/2020 12:56:59	120220	12022020	125659	78.76	12.418812	-57.245022	78.76	-0.190	1.070	1.300	78.69	-0.40	1.90	 	 	 	 	 	 	 	 	 	 	 	 	 	 	 	 	 	 	1581512219	0.16	0.30
12/02/2020 12:57:00	120220	12022020	125700	78.40	12.418810	-57.245020	78.40	-0.480	0.500	1.710	78.33	-1.00	2.20	 	 	 	 	 	 	 	 	 	 	 	 	 	 	 	 	 	 	1581512220	0.59	1.09
12/02/2020 12:57:01	120220	12022020	125701	78.15	12.418808	-57.245018	78.18	-0.610	-0.070	1.890	78.11	-1.60	2.30	 	 	 	 	 	 	 	 	 	 	 	 	 	 	 	 	 	 	1581512221	0.51	0.94
12/02/2020 12:57:02	120220	12022020	125702	78.07	12.418808	-57.245018	78.11	-0.570	-0.500	1.680	78.06	-1.70	2.20	1017.10	26.40	26.50	20.90	20.90	589.0	71.0	71.0	409.0	27.8	357.00	10.50	75.00	9.90	40354	9044.0	27.5	27.5	1581512222	0.13	0.24
12/02/2020 12:57:03	120220	12022020	125703	78.09	12.418812	-57.245020	78.14	-0.370	-0.850	1.200	78.11	-2.30	1.40	 	 	 	 	 	 	 	 	 	 	 	 	 	 	 	 	 	 	1581512223	0.69	1.28
12/02/2020 12:57:04	120220	12022020	125704	78.15	12.418815	-57.245022	78.22	0.020	-1.230	0.690	78.17	-2.40	1.20	 	 	 	 	 	 	 	 	 	 	 	 	 	 	 	 	 	 	1581512224	0.88	1.63
12/02/2020 12:57:05	120220	12022020	125705	78.33	12.418818	-57.245022	78.40	0.490	-1.510	0.390	78.38	-2.80	0.80	 	 	 	 	 	 	 	 	 	 	 	 	 	 	 	 	 	 	1581512225	0.69	1.28
12/02/2020 12:57:06	120220	12022020	125706	78.60	12.418820	-57.245020	78.68	0.850	-1.450	0.370	78.65	-2.60	0.90	 	 	 	 	 	 	 	 	 	 	 	 	 	 	 	 	 	 	1581512226	0.49	0.91
12/02/2020 12:57:07	120220	12022020	125707	78.81	12.418818	-57.245017	78.88	0.840	-0.860	0.680	78.83	-1.70	1.30	 	 	 	 	 	 	 	 	 	 	 	 	 	 	 	 	 	 	1581512227	0.49	0.91
12/02/2020 12:57:08	120220	12022020	125708	78.89	12.418817	-57.245017	78.96	0.340	0.430	1.090	78.90	-0.20	1.60	 	 	 	 	 	 	 	 	 	 	 	 	 	 	 	 	 	 	1581512228	0.49	0.91
12/02/2020 12:57:09	120220	12022020	125709	78.96	12.418813	-57.245022	79.03	-0.420	2.040	1.380	78.98	1.20	1.80	 	 	 	 	 	 	 	 	 	 	 	 	 	 	 	 	 	 	1581512229	1.15	2.13
12/02/2020 12:57:10	120220	12022020	125710	78.97	12.418810	-57.245028	79.01	-1.020	2.860	1.530	78.95	1.40	2.00	 	 	 	 	 	 	 	 	 	 	 	 	 	 	 	 	 	 	1581512230	1.68	3.11
12/02/2020 12:57:11	120220	12022020	125711	78.80	12.418808	-57.245033	78.81	-1.090	1.780	1.600	78.75	-0.50	2.00	 	 	 	 	 	 	 	 	 	 	 	 	 	 	 	 	 	 	1581512231	1.02	1.89
12/02/2020 12:57:12	120220	12022020	125712	78.59	12.418810	-57.245030	78.62	-0.580	-0.910	1.480	78.57	-3.30	1.80	 	 	 	 	 	 	 	 	 	 	 	 	 	 	 	 	 	 	1581512232	0.76	1.41
12/02/2020 12:57:13	120220	12022020	125713	78.62	12.418813	-57.245020	78.71	0.140	-3.310	1.140	78.67	-5.00	1.40	 	 	 	 	 	 	 	 	 	 	 	 	 	 	 	 	 	 	1581512233	2.13	3.94
12/02/2020 12:57:14	120220	12022020	125714	78.92	12.418818	-57.245013	79.02	0.560	-3.440	0.860	78.99	-4.10	1.20	 	 	 	 	 	 	 	 	 	 	 	 	 	 	 	 	 	 	1581512234	1.64	3.04
12/02/2020 12:57:15	120220	12022020	125715	79.24	12.418818	-57.245018	79.35	0.510	-1.480	0.810	79.31	-1.80	1.20	 	 	 	 	 	 	 	 	 	 	 	 	 	 	 	 	 	 	1581512235	0.77	1.43
12/02/2020 12:57:16	120220	12022020	125716	79.55	12.418817	-57.245028	79.67	0.210	0.700	0.870	79.61	-0.00	1.30	 	 	 	 	 	 	 	 	 	 	 	 	 	 	 	 	 	 	1581512236	2.16	4.00
12/02/2020 12:57:17	120220	12022020	125717	79.89	12.418815	-57.245035	80.00	-0.000	1.610	0.900	79.95	0.20	1.30	 	 	 	 	 	 	 	 	 	 	 	 	 	 	 	 	 	 	1581512237	1.75	3.24
12/02/2020 12:57:18	120220	12022020	125718	80.08	12.418813	-57.245037	80.15	-0.010	1.140	0.920	80.08	-0.50	1.40	 	 	 	 	 	 	 	 	 	 	 	 	 	 	 	 	 	 	1581512238	0.43	0.80
12/02/2020 12:57:19	120220	12022020	125719	79.90	12.418812	-57.245033	79.92	0.080	0.170	1.110	79.83	-1.50	1.70	 	 	 	 	 	 	 	 	 	 	 	 	 	 	 	 	 	 	1581512239	0.83	1.54
12/02/2020 12:57:20	120220	12022020	125720	79.46	12.418812	-57.245028	79.47	0.130	-0.570	1.520	79.38	-2.00	2.10	 	 	 	 	 	 	 	 	 	 	 	 	 	 	 	 	 	 	1581512240	0.89	1.65
12/02/2020 12:57:21	120220	12022020	125721	79.14	12.418812	-57.245027	79.20	0.060	-0.750	1.830	79.12	-1.90	2.20	 	 	 	 	 	 	 	 	 	 	 	 	 	 	 	 	 	 	1581512241	0.45	0.83
12/02/2020 12:57:22	120220	12022020	125722	79.29	12.418812	-57.245028	79.42	-0.120	-0.390	1.610	79.39	-1.40	1.80	 	 	 	 	 	 	 	 	 	 	 	 	 	 	 	 	 	 	1581512242	0.30	0.56
12/02/2020 12:57:23	120220	12022020	125723	79.90	12.418813	-57.245032	80.04	-0.350	0.150	0.960	80.04	-1.00	1.10	 	 	 	 	 	 	 	 	 	 	 	 	 	 	 	 	 	 	1581512243	0.96	1.78
12/02/2020 12:57:24	120220	12022020	125724	80.46	12.418817	-57.245037	80.56	-0.540	0.410	0.380	80.53	-0.90	0.70	 	 	 	 	 	 	 	 	 	 	 	 	 	 	 	 	 	 	1581512244	1.11	2.06
12/02/2020 12:57:25	120220	12022020	125725	80.60	12.418818	-57.245038	80.64	-0.530	0.170	0.290	80.58	-1.40	0.80	 	 	 	 	 	 	 	 	 	 	 	 	 	 	 	 	 	 	1581512245	0.67	1.24
12/02/2020 12:57:26	120220	12022020	125726	80.43	12.418818	-57.245038	80.46	-0.220	-0.560	0.580	80.38	-2.20	1.10	 	 	 	 	 	 	 	 	 	 	 	 	 	 	 	 	 	 	1581512246	0.08	0.15
12/02/2020 12:57:27	120220	12022020	125727	80.21	12.418817	-57.245035	80.25	0.350	-1.420	0.940	80.17	-2.90	1.50	 	 	 	 	 	 	 	 	 	 	 	 	 	 	 	 	 	 	1581512247	0.82	1.52
12/02/2020 12:57:28	120220	12022020	125728	80.03	12.418813	-57.245032	80.08	0.830	-1.560	1.220	80.00	-2.50	1.70	 	 	 	 	 	 	 	 	 	 	 	 	 	 	 	 	 	 	1581512248	1.08	2.00
12/02/2020 12:57:29	120220	12022020	125729	79.89	12.418812	-57.245030	79.95	0.800	-0.520	1.400	79.87	-1.20	1.80	 	 	 	 	 	 	 	 	 	 	 	 	 	 	 	 	 	 	1581512249	0.40	0.74
12/02/2020 12:57:30	120220	12022020	125730	79.84	12.418812	-57.245035	79.91	0.210	0.810	1.430	79.84	-0.10	1.70	 	 	 	 	 	 	 	 	 	 	 	 	 	 	 	 	 	 	1581512250	1.05	1.94
12/02/2020 12:57:31	120220	12022020	125731	79.93	12.418812	-57.245042	79.98	-0.500	1.340	1.120	79.95	-0.10	1.30	 	 	 	 	 	 	 	 	 	 	 	 	 	 	 	 	 	 	1581512251	1.22	2.26
12/02/2020 12:57:32	120220	12022020	125732	80.01	12.418815	-57.245043	80.04	-0.780	0.830	0.650	80.01	-0.80	0.90	 	 	 	 	 	 	 	 	 	 	 	 	 	 	 	 	 	 	1581512252	0.78	1.44
12/02/2020 12:57:33	120220	12022020	125733	80.01	12.418818	-57.245042	80.03	-0.440	-0.100	0.230	80.02	-1.70	0.50	 	 	 	 	 	 	 	 	 	 	 	 	 	 	 	 	 	 	1581512253	0.83	1.54
12/02/2020 12:57:34	120220	12022020	125734	80.04	12.418822	-57.245038	80.07	0.150	-0.820	-0.080	80.05	-2.30	0.30	 	 	 	 	 	 	 	 	 	 	 	 	 	 	 	 	 	 	1581512254	0.89	1.65
12/02/2020 12:57:35	120220	12022020	125735	80.15	12.418823	-57.245038	80.20	0.510	-1.060	-0.080	80.18	-2.30	0.40	 	 	 	 	 	 	 	 	 	 	 	 	 	 	 	 	 	 	1581512255	0.61	1.13
12/02/2020 12:57:36	120220	12022020	125736	80.38	12.418823	-57.245038	80.47	0.390	-0.870	0.300	80.44	-2.00	0.90	 	 	 	 	 	 	 	 	 	 	 	 	 	 	 	 	 	 	1581512256	0.07	0.13
12/02/2020 12:57:37	120220	12022020	125737	80.66	12.418822	-57.245038	80.74	-0.030	-0.370	0.910	80.70	-1.40	1.60	 	 	 	 	 	 	 	 	 	 	 	 	 	 	 	 	 	 	1581512257	0.70	1.30
12/02/2020 12:57:38	120220	12022020	125738	80.68	12.418815	-57.245040	80.73	-0.360	0.150	1.650	80.63	-1.00	2.30	 	 	 	 	 	 	 	 	 	 	 	 	 	 	 	 	 	 	1581512258	1.32	2.44
12/02/2020 12:57:39	120220	12022020	125739	80.28	12.418808	-57.245042	80.29	-0.340	0.410	2.230	80.17	-0.90	2.70	 	 	 	 	 	 	 	 	 	 	 	 	 	 	 	 	 	 	1581512259	1.38	2.56
12/02/2020 12:57:40	120220	12022020	125740	79.74	12.418807	-57.245042	79.75	-0.030	0.340	2.370	79.74	-0.90	2.80	 	 	 	 	 	 	 	 	 	 	 	 	 	 	 	 	 	 	1581512260	0.58	1.07
12/02/2020 12:57:41	120220	12022020	125741	79.46	12.418808	-57.245042	79.54	0.260	-0.030	2.090	79.46	-1.50	2.30	 	 	 	 	 	 	 	 	 	 	 	 	 	 	 	 	 	 	1581512261	0.54	1.00
12/02/2020 12:57:42	120220	12022020	125742	79.70	12.418815	-57.245042	79.83	0.340	-0.620	1.410	79.79	-2.20	1.50	 	 	 	 	 	 	 	 	 	 	 	 	 	 	 	 	 	 	1581512262	1.26	2.33
12/02/2020 12:57:43	120220	12022020	125743	80.31	12.418822	-57.245040	80.43	0.240	-1.120	0.540	80.42	-2.40	0.70	 	 	 	 	 	 	 	 	 	 	 	 	 	 	 	 	 	 	1581512263	1.44	2.67
12/02/2020 12:57:44	120220	12022020	125744	80.83	12.418825	-57.245038	80.90	0.100	-0.960	0.060	80.89	-1.90	0.40	 	 	 	 	 	 	 	 	 	 	 	 	 	 	 	 	 	 	1581512264	0.93	1.72
12/02/2020 12:57:45	120220	12022020	125745	81.00	12.418825	-57.245040	81.02	-0.070	-0.020	0.170	80.99	-0.90	0.80	 	 	 	 	 	 	 	 	 	 	 	 	 	 	 	 	 	 	1581512265	0.24	0.44
12/02/2020 12:57:46	120220	12022020	125746	80.78	12.418822	-57.245043	80.77	-0.320	0.980	0.670	80.70	-0.10	1.30	 	 	 	 	 	 	 	 	 	 	 	 	 	 	 	 	 	 	1581512266	1.10	2.04
12/02/2020 12:57:47	120220	12022020	125747	80.37	12.418817	-57.245047	80.35	-0.540	1.230	1.200	80.28	-0.30	1.80	 	 	 	 	 	 	 	 	 	 	 	 	 	 	 	 	 	 	1581512267	1.16	2.15
12/02/2020 12:57:48	120220	12022020	125748	80.02	12.418815	-57.245047	80.04	-0.490	0.460	1.500	79.96	-1.30	2.00	 	 	 	 	 	 	 	 	 	 	 	 	 	 	 	 	 	 	1581512268	0.53	0.98
12/02/2020 12:57:49	120220	12022020	125749	79.77	12.418815	-57.245043	79.81	-0.060	-0.820	1.580	79.73	-2.60	1.90	 	 	 	 	 	 	 	 	 	 	 	 	 	 	 	 	 	 	1581512269	0.72	1.33
12/02/2020 12:57:50	120220	12022020	125750	79.70	12.418818	-57.245038	79.76	0.510	-1.760	1.350	79.72	-3.10	1.60	 	 	 	 	 	 	 	 	 	 	 	 	 	 	 	 	 	 	1581512270	1.26	2.33
12/02/2020 12:57:51	120220	12022020	125751	79.95	12.418823	-57.245037	80.06	0.750	-1.670	0.950	80.04	-2.60	1.20	 	 	 	 	 	 	 	 	 	 	 	 	 	 	 	 	 	 	1581512271	1.20	2.22
12/02/2020 12:57:52	120220	12022020	125752	80.32	12.418827	-57.245038	80.51	0.480	-0.700	0.560	80.41	-2.30	1.00	 	 	 	 	 	 	 	 	 	 	 	 	 	 	 	 	 	 	1581512272	0.92	1.70
12/02/2020 12:57:53	120220	12022020	125753	80.84	12.418828	-57.245043	80.92	-0.010	0.460	0.430	80.91	-0.40	0.90	 	 	 	 	 	 	 	 	 	 	 	 	 	 	 	 	 	 	1581512273	1.05	1.94
12/02/2020 12:57:54	120220	12022020	125754	81.08	12.418828	-57.245047	81.18	-0.360	1.170	0.640	81.12	-0.20	1.00	 	 	 	 	 	 	 	 	 	 	 	 	 	 	 	 	 	 	1581512274	0.90	1.67
12/02/2020 12:57:55	120220	12022020	125755	81.07	12.418823	-57.245048	81.11	-0.500	1.190	1.150	81.02	-0.30	1.80	 	 	 	 	 	 	 	 	 	 	 	 	 	 	 	 	 	 	1581512275	0.85	1.57
12/02/2020 12:57:56	120220	12022020	125756	80.67	12.418818	-57.245047	80.69	-0.530	0.690	1.900	80.57	-0.90	2.60	 	 	 	 	 	 	 	 	 	 	 	 	 	 	 	 	 	 	1581512276	1.14	2.11
12/02/2020 12:57:57	120220	12022020	125757	80.18	12.418815	-57.245045	80.22	-0.440	-0.230	2.490	80.10	-2.00	3.00	 	 	 	 	 	 	 	 	 	 	 	 	 	 	 	 	 	 	1581512277	1.03	1.91
12/02/2020 12:57:58	120220	12022020	125758	79.90	12.418813	-57.245042	79.98	-0.120	-1.400	2.510	79.89	-3.10	2.70	 	 	 	 	 	 	 	 	 	 	 	 	 	 	 	 	 	 	1581512278	0.70	1.30
12/02/2020 12:57:59	120220	12022020	125759	79.94	12.418818	-57.245037	80.04	0.470	-2.260	1.880	79.98	-3.60	1.90	 	 	 	 	 	 	 	 	 	 	 	 	 	 	 	 	 	 	1581512279	1.19	2.20
12/02/2020 12:58:00	120220	12022020	125800	80.27	12.418825	-57.245035	80.38	0.990	-1.930	0.900	80.38	-2.70	0.90	 	 	 	 	 	 	 	 	 	 	 	 	 	 	 	 	 	 	1581512280	1.61	2.98
12/02/2020 12:58:01	120220	12022020	125801	80.81	12.418832	-57.245037	80.90	0.910	-0.290	0.050	80.91	-0.80	0.30	 	 	 	 	 	 	 	 	 	 	 	 	 	 	 	 	 	 	1581512281	1.55	2.87
12/02/2020 12:58:02	120220	12022020	125802	81.21	12.418835	-57.245045	81.25	0.170	1.610	-0.140	81.24	0.80	0.40	1017.10	26.50	26.50	21.10	21.10	666.0	72.0	72.0	406.0	27.9	354.00	9.60	74.00	9.20	43233	9893.0	27.6	27.5	1581512282	1.78	3.30
12/02/2020 12:58:03	120220	12022020	125803	81.25	12.418833	-57.245052	81.27	-0.740	2.420	0.400	81.22	1.00	1.10	 	 	 	 	 	 	 	 	 	 	 	 	 	 	 	 	 	 	1581512283	1.65	3.06
12/02/2020 12:58:04	120220	12022020	125804	81.02	12.418827	-57.245053	81.04	-1.140	1.580	1.220	80.95	-0.50	2.00	 	 	 	 	 	 	 	 	 	 	 	 	 	 	 	 	 	 	1581512284	1.27	2.35
12/02/2020 12:58:05	120220	12022020	125805	80.60	12.418822	-57.245048	80.61	-0.800	-0.450	2.020	80.50	-2.60	2.70	 	 	 	 	 	 	 	 	 	 	 	 	 	 	 	 	 	 	1581512285	1.61	2.98
12/02/2020 12:58:06	120220	12022020	125806	80.09	12.418818	-57.245040	80.12	-0.020	-2.390	2.530	80.01	-4.10	3.00	 	 	 	 	 	 	 	 	 	 	 	 	 	 	 	 	 	 	1581512286	2.01	3.72
12/02/2020 12:58:07	120220	12022020	125807	79.83	12.418820	-57.245033	79.91	0.630	-2.800	2.480	79.83	-3.70	2.70	 	 	 	 	 	 	 	 	 	 	 	 	 	 	 	 	 	 	1581512287	1.44	2.67
12/02/2020 12:58:08	120220	12022020	125808	79.97	12.418823	-57.245035	80.08	0.720	-1.360	2.020	80.04	-1.80	2.20	 	 	 	 	 	 	 	 	 	 	 	 	 	 	 	 	 	 	1581512288	0.66	1.22
12/02/2020 12:58:09	120220	12022020	125809	80.37	12.418825	-57.245043	80.48	0.320	0.640	1.330	80.46	-0.10	1.50	 	 	 	 	 	 	 	 	 	 	 	 	 	 	 	 	 	 	1581512289	1.86	3.44
12/02/2020 12:58:10	120220	12022020	125810	80.78	12.418827	-57.245052	80.85	-0.160	1.640	0.670	80.84	0.30	0.90	 	 	 	 	 	 	 	 	 	 	 	 	 	 	 	 	 	 	1581512290	1.88	3.48
12/02/2020 12:58:11	120220	12022020	125811	80.98	12.418828	-57.245053	81.02	-0.310	1.130	0.210	80.98	-0.70	0.50	 	 	 	 	 	 	 	 	 	 	 	 	 	 	 	 	 	 	1581512291	0.64	1.19
12/02/2020 12:58:12	120220	12022020	125812	80.83	12.418830	-57.245050	80.83	-0.090	-0.200	0.150	80.76	-2.00	0.60	 	 	 	 	 	 	 	 	 	 	 	 	 	 	 	 	 	 	1581512292	0.91	1.69
12/02/2020 12:58:13	120220	12022020	125813	80.44	12.418830	-57.245043	80.42	0.250	-1.170	0.350	80.35	-2.50	0.80	 	 	 	 	 	 	 	 	 	 	 	 	 	 	 	 	 	 	1581512293	1.41	2.61
12/02/2020 12:58:14	120220	12022020	125814	80.14	12.418830	-57.245040	80.17	0.340	-1.070	0.550	80.12	-2.10	1.00	 	 	 	 	 	 	 	 	 	 	 	 	 	 	 	 	 	 	1581512294	0.71	1.31
12/02/2020 12:58:15	120220	12022020	125815	80.17	12.418830	-57.245042	80.26	0.050	-0.310	0.690	80.22	-1.30	1.10	 	 	 	 	 	 	 	 	 	 	 	 	 	 	 	 	 	 	1581512295	0.51	0.94
12/02/2020 12:58:16	120220	12022020	125816	80.37	12.418832	-57.245047	80.51	-0.370	0.320	0.760	80.42	-1.10	1.20	 	 	 	 	 	 	 	 	 	 	 	 	 	 	 	 	 	 	1581512296	0.91	1.69
12/02/2020 12:58:17	120220	12022020	125817	80.60	12.418830	-57.245048	80.67	-0.560	0.490	0.940	80.61	-0.90	1.50	 	 	 	 	 	 	 	 	 	 	 	 	 	 	 	 	 	 	1581512297	0.61	1.13
12/02/2020 12:58:18	120220	12022020	125818	80.62	12.418827	-57.245048	80.68	-0.350	0.240	1.270	80.62	-0.90	1.60	 	 	 	 	 	 	 	 	 	 	 	 	 	 	 	 	 	 	1581512298	0.64	1.19
12/02/2020 12:58:19	120220	12022020	125819	80.60	12.418823	-57.245047	80.67	0.100	-0.320	1.670	80.59	-1.80	2.20	 	 	 	 	 	 	 	 	 	 	 	 	 	 	 	 	 	 	1581512299	0.91	1.69
12/02/2020 12:58:20	120220	12022020	125820	80.54	12.418820	-57.245043	80.61	0.420	-0.840	2.040	80.52	-2.20	2.50	 	 	 	 	 	 	 	 	 	 	 	 	 	 	 	 	 	 	1581512300	0.88	1.63
12/02/2020 12:58:21	120220	12022020	125821	80.46	12.418820	-57.245042	80.55	0.430	-0.960	2.150	80.45	-2.20	2.50	 	 	 	 	 	 	 	 	 	 	 	 	 	 	 	 	 	 	1581512301	0.57	1.06
12/02/2020 12:58:22	120220	12022020	125822	80.44	12.418822	-57.245042	80.51	0.260	-0.710	1.900	80.45	-1.80	2.10	 	 	 	 	 	 	 	 	 	 	 	 	 	 	 	 	 	 	1581512302	0.31	0.57
12/02/2020 12:58:23	120220	12022020	125823	80.55	12.418823	-57.245042	80.63	0.110	-0.240	1.430	80.59	-1.30	1.70	 	 	 	 	 	 	 	 	 	 	 	 	 	 	 	 	 	 	1581512303	0.63	1.17
12/02/2020 12:58:24	120220	12022020	125824	80.72	12.418827	-57.245043	80.78	-0.020	0.280	1.020	80.74	-0.80	1.30	 	 	 	 	 	 	 	 	 	 	 	 	 	 	 	 	 	 	1581512304	0.65	1.20
12/02/2020 12:58:25	120220	12022020	125825	80.77	12.418827	-57.245045	80.81	-0.200	0.670	0.880	80.76	-0.50	1.30	 	 	 	 	 	 	 	 	 	 	 	 	 	 	 	 	 	 	1581512305	0.38	0.70
12/02/2020 12:58:26	120220	12022020	125826	80.68	12.418827	-57.245047	80.71	-0.430	0.870	0.900	80.66	-0.40	1.30	 	 	 	 	 	 	 	 	 	 	 	 	 	 	 	 	 	 	1581512306	0.36	0.67
12/02/2020 12:58:27	120220	12022020	125827	80.54	12.418825	-57.245047	80.55	-0.540	0.640	0.910	80.51	-0.90	1.30	 	 	 	 	 	 	 	 	 	 	 	 	 	 	 	 	 	 	1581512307	0.41	0.76
12/02/2020 12:58:28	120220	12022020	125828	80.43	12.418825	-57.245047	80.46	-0.370	-0.230	0.910	80.41	-2.00	1.30	 	 	 	 	 	 	 	 	 	 	 	 	 	 	 	 	 	 	1581512308	0.07	0.13
12/02/2020 12:58:29	120220	12022020	125829	80.39	12.418825	-57.245043	80.42	0.070	-1.420	0.900	80.38	-3.10	1.30	 	 	 	 	 	 	 	 	 	 	 	 	 	 	 	 	 	 	1581512309	0.74	1.37
12/02/2020 12:58:30	120220	12022020	125830	80.38	12.418827	-57.245038	80.41	0.620	-2.140	0.890	80.38	-3.30	1.30	 	 	 	 	 	 	 	 	 	 	 	 	 	 	 	 	 	 	1581512310	1.14	2.11
12/02/2020 12:58:31	120220	12022020	125831	80.41	12.418830	-57.245035	80.44	0.960	-1.730	0.980	80.41	-2.50	1.50	 	 	 	 	 	 	 	 	 	 	 	 	 	 	 	 	 	 	1581512311	0.87	1.61
12/02/2020 12:58:32	120220	12022020	125832	80.40	12.418830	-57.245037	80.42	0.760	-0.320	1.270	80.39	-0.90	1.80	 	 	 	 	 	 	 	 	 	 	 	 	 	 	 	 	 	 	1581512312	0.19	0.35
12/02/2020 12:58:33	120220	12022020	125833	80.35	12.418827	-57.245040	80.38	0.060	1.200	1.670	80.35	0.30	2.20	 	 	 	 	 	 	 	 	 	 	 	 	 	 	 	 	 	 	1581512313	1.08	2.00
12/02/2020 12:58:34	120220	12022020	125834	80.36	12.418823	-57.245045	80.42	-0.670	1.960	1.920	80.38	0.70	2.30	 	 	 	 	 	 	 	 	 	 	 	 	 	 	 	 	 	 	1581512314	1.24	2.30
12/02/2020 12:58:35	120220	12022020	125835	80.51	12.418822	-57.245047	80.59	-0.980	1.710	1.880	80.56	0.00	2.20	 	 	 	 	 	 	 	 	 	 	 	 	 	 	 	 	 	 	1581512315	0.63	1.17
12/02/2020 12:58:36	120220	12022020	125836	80.74	12.418822	-57.245047	80.80	-0.800	0.640	1.610	80.78	-1.30	1.90	 	 	 	 	 	 	 	 	 	 	 	 	 	 	 	 	 	 	1581512316	0.17	0.31
12/02/2020 12:58:37	120220	12022020	125837	80.85	12.418823	-57.245043	80.87	-0.340	-0.910	1.300	80.84	-2.90	1.70	 	 	 	 	 	 	 	 	 	 	 	 	 	 	 	 	 	 	1581512317	0.73	1.35
12/02/2020 12:58:38	120220	12022020	125838	80.63	12.418825	-57.245038	80.60	0.200	-2.350	1.310	80.54	-4.00	1.80	 	 	 	 	 	 	 	 	 	 	 	 	 	 	 	 	 	 	1581512318	1.13	2.09
12/02/2020 12:58:39	120220	12022020	125839	80.11	12.418823	-57.245032	80.07	0.680	-2.800	1.650	80.00	-3.80	2.20	 	 	 	 	 	 	 	 	 	 	 	 	 	 	 	 	 	 	1581512319	1.23	2.28
12/02/2020 12:58:40	120220	12022020	125840	79.74	12.418823	-57.245030	79.77	0.920	-1.740	1.790	79.73	-2.20	2.10	 	 	 	 	 	 	 	 	 	 	 	 	 	 	 	 	 	 	1581512320	0.64	1.19
12/02/2020 12:58:41	120220	12022020	125841	79.86	12.418822	-57.245033	79.95	0.670	0.390	1.470	79.94	-0.00	1.60	 	 	 	 	 	 	 	 	 	 	 	 	 	 	 	 	 	 	1581512321	0.76	1.41
12/02/2020 12:58:42	120220	12022020	125842	80.29	12.418823	-57.245042	80.38	-0.060	2.160	0.820	80.29	0.50	1.40	 	 	 	 	 	 	 	 	 	 	 	 	 	 	 	 	 	 	1581512322	1.80	3.33
12/02/2020 12:58:43	120220	12022020	125843	80.61	12.418827	-57.245048	80.64	-0.760	2.230	0.300	80.63	0.40	0.70	 	 	 	 	 	 	 	 	 	 	 	 	 	 	 	 	 	 	1581512323	1.51	2.80
12/02/2020 12:58:44	120220	12022020	125844	80.57	12.418830	-57.245047	80.57	-0.910	0.750	0.300	80.57	-0.10	0.70	 	 	 	 	 	 	 	 	 	 	 	 	 	 	 	 	 	 	1581512324	0.52	0.96
12/02/2020 12:58:45	120220	12022020	125845	80.42	12.418828	-57.245040	80.43	-0.510	-1.090	0.580	80.40	-2.90	1.10	 	 	 	 	 	 	 	 	 	 	 	 	 	 	 	 	 	 	1581512325	1.56	2.89
12/02/2020 12:58:46	120220	12022020	125846	80.40	12.418825	-57.245032	80.43	0.090	-2.050	0.870	80.41	-3.40	1.40	 	 	 	 	 	 	 	 	 	 	 	 	 	 	 	 	 	 	1581512326	1.69	3.13
12/02/2020 12:58:47	120220	12022020	125847	80.43	12.418823	-57.245028	80.46	0.480	-1.750	1.210	80.43	-2.60	1.80	 	 	 	 	 	 	 	 	 	 	 	 	 	 	 	 	 	 	1581512327	0.93	1.72
12/02/2020 12:58:48	120220	12022020	125848	80.47	12.418820	-57.245030	80.52	0.500	-0.620	1.440	80.49	-1.40	1.90	 	 	 	 	 	 	 	 	 	 	 	 	 	 	 	 	 	 	1581512328	0.67	1.24
12/02/2020 12:58:49	120220	12022020	125849	80.64	12.418818	-57.245035	80.70	0.260	0.490	1.370	80.68	-0.60	1.70	 	 	 	 	 	 	 	 	 	 	 	 	 	 	 	 	 	 	1581512329	0.94	1.74
12/02/2020 12:58:50	120220	12022020	125850	80.82	12.418820	-57.245038	80.85	0.040	0.870	1.190	80.84	-0.60	1.60	 	 	 	 	 	 	 	 	 	 	 	 	 	 	 	 	 	 	1581512330	0.76	1.41
12/02/2020 12:58:51	120220	12022020	125851	80.82	12.418820	-57.245038	80.81	0.010	0.370	1.220	80.79	-1.30	1.70	 	 	 	 	 	 	 	 	 	 	 	 	 	 	 	 	 	 	1581512331	0.22	0.41
12/02/2020 12:58:52	120220	12022020	125852	80.59	12.418820	-57.245033	80.56	0.090	-0.370	1.450	80.52	-1.80	2.00	 	 	 	 	 	 	 	 	 	 	 	 	 	 	 	 	 	 	1581512332	0.88	1.63
12/02/2020 12:58:53	120220	12022020	125853	80.32	12.418822	-57.245030	80.33	-0.010	-0.570	1.670	80.30	-1.80	2.10	 	 	 	 	 	 	 	 	 	 	 	 	 	 	 	 	 	 	1581512333	0.85	1.57
12/02/2020 12:58:54	120220	12022020	125854	80.38	12.418822	-57.245030	80.45	-0.310	-0.190	1.620	80.45	-1.30	1.90	 	 	 	 	 	 	 	 	 	 	 	 	 	 	 	 	 	 	1581512334	0.09	0.17
12/02/2020 12:58:55	120220	12022020	125855	80.83	12.418822	-57.245032	80.91	-0.500	0.190	1.300	80.93	-1.10	1.60	 	 	 	 	 	 	 	 	 	 	 	 	 	 	 	 	 	 	1581512335	0.53	0.98
12/02/2020 12:58:56	120220	12022020	125856	81.30	12.418820	-57.245033	81.36	-0.280	0.000	1.050	81.37	-1.60	1.40	 	 	 	 	 	 	 	 	 	 	 	 	 	 	 	 	 	 	1581512336	0.37	0.69
12/02/2020 12:58:57	120220	12022020	125857	81.48	12.418818	-57.245032	81.50	0.230	-0.710	1.100	81.47	-2.30	1.60	 	 	 	 	 	 	 	 	 	 	 	 	 	 	 	 	 	 	1581512337	0.53	0.98
12/02/2020 12:58:58	120220	12022020	125858	81.32	12.418818	-57.245027	81.31	0.590	-1.190	1.400	81.27	-2.40	1.90	 	 	 	 	 	 	 	 	 	 	 	 	 	 	 	 	 	 	1581512338	1.09	2.02
12/02/2020 12:58:59	120220	12022020	125859	81.06	12.418817	-57.245023	81.06	0.440	-0.690	1.710	81.01	-1.50	2.20	 	 	 	 	 	 	 	 	 	 	 	 	 	 	 	 	 	 	1581512339	0.73	1.35
12/02/2020 12:59:00	120220	12022020	125900	80.83	12.418815	-57.245025	80.83	-0.090	0.500	1.930	80.79	-0.40	2.40	 	 	 	 	 	 	 	 	 	 	 	 	 	 	 	 	 	 	1581512340	0.53	0.98
12/02/2020 12:59:01	120220	12022020	125901	80.61	12.418813	-57.245030	80.60	-0.500	1.150	1.880	80.56	-0.30	2.20	 	 	 	 	 	 	 	 	 	 	 	 	 	 	 	 	 	 	1581512341	1.05	1.94
12/02/2020 12:59:02	120220	12022020	125902	80.46	12.418815	-57.245032	80.45	-0.380	0.520	1.500	80.46	-1.30	1.70	1017.20	26.50	26.60	21.30	21.30	690.0	73.0	73.0	412.0	28.0	349.00	10.60	69.00	10.20	44548	9897.0	27.5	27.5	1581512342	0.35	0.65
12/02/2020 12:59:03	120220	12022020	125903	80.62	12.418818	-57.245027	80.68	0.120	-0.740	0.770	80.70	-2.40	0.90	 	 	 	 	 	 	 	 	 	 	 	 	 	 	 	 	 	 	1581512343	1.24	2.30
12/02/2020 12:59:04	120220	12022020	125904	81.07	12.418823	-57.245022	81.13	0.540	-1.310	0.040	81.15	-2.50	0.30	 	 	 	 	 	 	 	 	 	 	 	 	 	 	 	 	 	 	1581512344	1.66	3.07
12/02/2020 12:59:05	120220	12022020	125905	81.38	12.418827	-57.245020	81.38	0.510	-0.760	-0.180	81.39	-1.70	0.40	 	 	 	 	 	 	 	 	 	 	 	 	 	 	 	 	 	 	1581512345	0.81	1.50
12/02/2020 12:59:06	120220	12022020	125906	81.34	12.418827	-57.245023	81.31	0.080	0.180	0.270	81.29	-0.80	1.00	 	 	 	 	 	 	 	 	 	 	 	 	 	 	 	 	 	 	1581512346	0.68	1.26
12/02/2020 12:59:07	120220	12022020	125907	81.02	12.418822	-57.245027	81.00	-0.390	0.650	1.020	80.94	-0.60	1.70	 	 	 	 	 	 	 	 	 	 	 	 	 	 	 	 	 	 	1581512347	1.11	2.06
12/02/2020 12:59:08	120220	12022020	125908	80.61	12.418818	-57.245027	80.59	-0.630	0.550	1.600	80.61	-0.70	1.90	 	 	 	 	 	 	 	 	 	 	 	 	 	 	 	 	 	 	1581512348	0.93	1.72
12/02/2020 12:59:09	120220	12022020	125909	80.29	12.418815	-57.245027	80.32	-0.450	0.030	1.900	80.26	-1.60	2.40	 	 	 	 	 	 	 	 	 	 	 	 	 	 	 	 	 	 	1581512349	0.57	1.06
12/02/2020 12:59:10	120220	12022020	125910	80.23	12.418815	-57.245023	80.30	0.080	-0.720	1.950	80.26	-2.30	2.40	 	 	 	 	 	 	 	 	 	 	 	 	 	 	 	 	 	 	1581512350	0.53	0.98
12/02/2020 12:59:11	120220	12022020	125911	80.39	12.418817	-57.245020	80.46	0.660	-1.380	1.890	80.43	-2.80	2.30	 	 	 	 	 	 	 	 	 	 	 	 	 	 	 	 	 	 	1581512351	0.80	1.48
12/02/2020 12:59:12	120220	12022020	125912	80.63	12.418818	-57.245017	80.71	0.840	-1.470	1.710	80.68	-2.50	2.00	 	 	 	 	 	 	 	 	 	 	 	 	 	 	 	 	 	 	1581512352	0.89	1.65
12/02/2020 12:59:13	120220	12022020	125913	80.83	12.418820	-57.245015	80.87	0.440	-0.610	1.390	80.84	-1.30	1.70	 	 	 	 	 	 	 	 	 	 	 	 	 	 	 	 	 	 	1581512353	0.35	0.65
12/02/2020 12:59:14	120220	12022020	125914	80.74	12.418818	-57.245018	80.72	-0.240	0.860	1.270	80.68	0.10	1.70	 	 	 	 	 	 	 	 	 	 	 	 	 	 	 	 	 	 	1581512354	0.72	1.33
12/02/2020 12:59:15	120220	12022020	125915	80.38	12.418817	-57.245025	80.35	-0.700	1.900	1.340	80.31	0.60	1.80	 	 	 	 	 	 	 	 	 	 	 	 	 	 	 	 	 	 	1581512355	1.39	2.57
12/02/2020 12:59:16	120220	12022020	125916	80.04	12.418817	-57.245028	80.04	-0.670	1.510	1.360	80.00	-0.30	1.70	 	 	 	 	 	 	 	 	 	 	 	 	 	 	 	 	 	 	1581512356	0.83	1.54
12/02/2020 12:59:17	120220	12022020	125917	79.96	12.418818	-57.245027	80.01	-0.300	-0.070	0.960	79.99	-2.10	1.10	 	 	 	 	 	 	 	 	 	 	 	 	 	 	 	 	 	 	1581512357	0.63	1.17
12/02/2020 12:59:18	120220	12022020	125918	80.18	12.418823	-57.245022	80.25	0.070	-1.600	0.330	80.24	-3.20	0.60	 	 	 	 	 	 	 	 	 	 	 	 	 	 	 	 	 	 	1581512358	1.65	3.06
12/02/2020 12:59:19	120220	12022020	125919	80.42	12.418828	-57.245017	80.46	0.190	-2.030	0.100	80.44	-3.10	0.60	 	 	 	 	 	 	 	 	 	 	 	 	 	 	 	 	 	 	1581512359	1.29	2.39
12/02/2020 12:59:20	120220	12022020	125920	80.44	12.418828	-57.245017	80.44	0.120	-1.360	0.590	80.43	-2.90	0.80	 	 	 	 	 	 	 	 	 	 	 	 	 	 	 	 	 	 	1581512360	0.09	0.17
12/02/2020 12:59:21	120220	12022020	125921	80.17	12.418823	-57.245020	80.18	0.080	-0.220	1.410	80.11	-1.10	2.10	 	 	 	 	 	 	 	 	 	 	 	 	 	 	 	 	 	 	1581512361	1.27	2.35
12/02/2020 12:59:22	120220	12022020	125922	79.94	12.418817	-57.245023	79.99	0.130	0.660	1.800	79.93	-0.50	2.20	 	 	 	 	 	 	 	 	 	 	 	 	 	 	 	 	 	 	1581512362	1.41	2.61
12/02/2020 12:59:23	120220	12022020	125923	79.99	12.418815	-57.245025	80.09	0.250	0.770	1.660	80.02	-0.70	2.00	 	 	 	 	 	 	 	 	 	 	 	 	 	 	 	 	 	 	1581512363	0.59	1.09
12/02/2020 12:59:24	120220	12022020	125924	80.23	12.418818	-57.245025	80.33	0.330	0.130	1.330	80.29	-1.50	1.60	 	 	 	 	 	 	 	 	 	 	 	 	 	 	 	 	 	 	1581512364	0.54	1.00
12/02/2020 12:59:25	120220	12022020	125925	80.48	12.418822	-57.245022	80.57	0.290	-0.630	1.090	80.52	-2.10	1.50	 	 	 	 	 	 	 	 	 	 	 	 	 	 	 	 	 	 	1581512365	1.12	2.07
12/02/2020 12:59:26	120220	12022020	125926	80.64	12.418825	-57.245018	80.71	0.120	-0.770	1.120	80.66	-1.90	1.70	 	 	 	 	 	 	 	 	 	 	 	 	 	 	 	 	 	 	1581512366	0.90	1.67
12/02/2020 12:59:27	120220	12022020	125927	80.66	12.418825	-57.245018	80.70	-0.150	-0.210	1.460	80.63	-1.20	2.10	 	 	 	 	 	 	 	 	 	 	 	 	 	 	 	 	 	 	1581512367	0.07	0.13
12/02/2020 12:59:28	120220	12022020	125928	80.46	12.418822	-57.245022	80.50	-0.430	0.510	1.960	80.40	-0.60	2.60	 	 	 	 	 	 	 	 	 	 	 	 	 	 	 	 	 	 	1581512368	1.00	1.85
12/02/2020 12:59:29	120220	12022020	125929	80.09	12.418817	-57.245025	80.10	-0.590	0.720	2.400	80.00	-0.70	2.90	 	 	 	 	 	 	 	 	 	 	 	 	 	 	 	 	 	 	1581512369	1.26	2.33
12/02/2020 12:59:30	120220	12022020	125930	79.77	12.418813	-57.245025	79.83	-0.480	0.190	2.490	79.76	-1.50	2.80	 	 	 	 	 	 	 	 	 	 	 	 	 	 	 	 	 	 	1581512370	0.65	1.20
12/02/2020 12:59:31	120220	12022020	125931	79.96	12.418815	-57.245023	80.10	-0.160	-0.670	1.900	80.06	-2.30	2.00	 	 	 	 	 	 	 	 	 	 	 	 	 	 	 	 	 	 	1581512371	0.49	0.91
12/02/2020 12:59:32	120220	12022020	125932	80.49	12.418820	-57.245022	80.58	0.140	-1.220	1.060	80.49	-2.40	1.70	 	 	 	 	 	 	 	 	 	 	 	 	 	 	 	 	 	 	1581512372	1.13	2.09
12/02/2020 12:59:33	120220	12022020	125933	80.62	12.418825	-57.245022	80.64	0.340	-1.310	0.670	80.59	-2.50	1.10	 	 	 	 	 	 	 	 	 	 	 	 	 	 	 	 	 	 	1581512373	1.06	1.96
12/02/2020 12:59:34	120220	12022020	125934	80.35	12.418827	-57.245022	80.36	0.510	-0.970	0.770	80.35	-2.40	1.20	 	 	 	 	 	 	 	 	 	 	 	 	 	 	 	 	 	 	1581512374	0.43	0.80
12/02/2020 12:59:35	120220	12022020	125935	80.08	12.418827	-57.245022	80.11	0.650	-0.320	0.930	80.04	-1.30	1.40	 	 	 	 	 	 	 	 	 	 	 	 	 	 	 	 	 	 	1581512375	0.11	0.20
12/02/2020 12:59:36	120220	12022020	125936	79.92	12.418825	-57.245023	79.97	0.550	0.470	1.080	79.90	-0.60	1.50	 	 	 	 	 	 	 	 	 	 	 	 	 	 	 	 	 	 	1581512376	0.29	0.54
12/02/2020 12:59:37	120220	12022020	125937	79.89	12.418825	-57.245025	79.95	0.030	1.050	1.130	79.89	-0.20	1.60	 	 	 	 	 	 	 	 	 	 	 	 	 	 	 	 	 	 	1581512377	0.39	0.72
12/02/2020 12:59:38	120220	12022020	125938	79.92	12.418825	-57.245027	79.99	-0.690	1.110	1.150	79.93	-0.30	1.60	 	 	 	 	 	 	 	 	 	 	 	 	 	 	 	 	 	 	1581512378	0.45	0.83
12/02/2020 12:59:39	120220	12022020	125939	80.00	12.418825	-57.245027	80.08	-1.120	0.640	1.230	80.02	-1.00	1.70	 	 	 	 	 	 	 	 	 	 	 	 	 	 	 	 	 	 	1581512379	0.16	0.30
12/02/2020 12:59:40	120220	12022020	125940	80.07	12.418823	-57.245027	80.13	-0.950	-0.170	1.440	80.06	-1.80	2.00	 	 	 	 	 	 	 	 	 	 	 	 	 	 	 	 	 	 	1581512380	0.47	0.87
12/02/2020 12:59:41	120220	12022020	125941	79.93	12.418820	-57.245023	79.96	-0.300	-1.020	1.680	79.87	-2.60	2.10	 	 	 	 	 	 	 	 	 	 	 	 	 	 	 	 	 	 	1581512381	0.84	1.56
12/02/2020 12:59:42	120220	12022020	125942	79.67	12.418820	-57.245022	79.69	0.370	-1.470	1.690	79.62	-2.80	2.10	 	 	 	 	 	 	 	 	 	 	 	 	 	 	 	 	 	 	1581512382	0.61	1.13
12/02/2020 12:59:43	120220	12022020	125943	79.53	12.418820	-57.245020	79.57	0.620	-1.230	1.560	79.53	-2.30	2.00	 	 	 	 	 	 	 	 	 	 	 	 	 	 	 	 	 	 	1581512383	0.32	0.59
12/02/2020 12:59:44	120220	12022020	125944	79.58	12.418822	-57.245023	79.65	0.470	-0.560	1.540	79.61	-1.60	2.00	 	 	 	 	 	 	 	 	 	 	 	 	 	 	 	 	 	 	1581512384	0.49	0.91
12/02/2020 12:59:45	120220	12022020	125945	79.68	12.418822	-57.245025	79.73	0.330	-0.170	1.460	79.70	-1.50	1.80	 	 	 	 	 	 	 	 	 	 	 	 	 	 	 	 	 	 	1581512385	0.49	0.91
12/02/2020 12:59:46	120220	12022020	125946	79.72	12.418825	-57.245025	79.77	0.450	-0.240	1.160	79.73	-1.60	1.40	 	 	 	 	 	 	 	 	 	 	 	 	 	 	 	 	 	 	1581512386	0.42	0.78
12/02/2020 12:59:47	120220	12022020	125947	79.80	12.418828	-57.245022	79.85	0.550	-0.120	0.770	79.83	-1.20	1.10	 	 	 	 	 	 	 	 	 	 	 	 	 	 	 	 	 	 	1581512387	0.95	1.76
12/02/2020 12:59:48	120220	12022020	125948	79.95	12.418830	-57.245022	80.01	0.250	0.560	0.660	79.98	-0.40	1.20	 	 	 	 	 	 	 	 	 	 	 	 	 	 	 	 	 	 	1581512388	0.57	1.06
12/02/2020 12:59:49	120220	12022020	125949	80.04	12.418830	-57.245025	80.10	-0.450	1.250	1.020	80.05	0.00	1.60	 	 	 	 	 	 	 	 	 	 	 	 	 	 	 	 	 	 	1581512389	0.66	1.22
12/02/2020 12:59:50	120220	12022020	125950	80.07	12.418825	-57.245028	80.15	-1.120	1.300	1.460	80.09	-0.30	2.00	 	 	 	 	 	 	 	 	 	 	 	 	 	 	 	 	 	 	1581512390	1.07	1.98
12/02/2020 12:59:51	120220	12022020	125951	80.17	12.418822	-57.245028	80.26	-1.250	0.450	1.650	80.20	-1.40	2.10	 	 	 	 	 	 	 	 	 	 	 	 	 	 	 	 	 	 	1581512391	0.93	1.72
12/02/2020 12:59:52	120220	12022020	125952	80.26	12.418818	-57.245025	80.33	-0.640	-0.950	1.760	80.26	-2.80	2.20	 	 	 	 	 	 	 	 	 	 	 	 	 	 	 	 	 	 	1581512392	0.79	1.46
12/02/2020 12:59:53	120220	12022020	125953	80.20	12.418818	-57.245022	80.25	0.260	-1.950	1.870	80.17	-3.40	2.30	 	 	 	 	 	 	 	 	 	 	 	 	 	 	 	 	 	 	1581512393	1.04	1.93
12/02/2020 12:59:54	120220	12022020	125954	80.05	12.418818	-57.245018	80.11	0.810	-1.960	1.950	80.02	-3.00	2.40	 	 	 	 	 	 	 	 	 	 	 	 	 	 	 	 	 	 	1581512394	0.62	1.15
12/02/2020 12:59:55	120220	12022020	125955	79.96	12.418818	-57.245018	80.03	0.790	-1.270	1.960	79.96	-2.20	2.40	 	 	 	 	 	 	 	 	 	 	 	 	 	 	 	 	 	 	1581512395	0.11	0.20
12/02/2020 12:59:56	120220	12022020	125956	80.00	12.418818	-57.245020	80.07	0.510	-0.400	1.790	80.01	-1.40	2.10	 	 	 	 	 	 	 	 	 	 	 	 	 	 	 	 	 	 	1581512396	0.39	0.72
12/02/2020 12:59:57	120220	12022020	125957	80.06	12.418820	-57.245022	80.11	0.240	0.480	1.290	80.08	-0.50	1.40	 	 	 	 	 	 	 	 	 	 	 	 	 	 	 	 	 	 	1581512397	0.51	0.94
12/02/2020 12:59:58	120220	12022020	125958	80.20	12.418825	-57.245025	80.25	0.040	1.230	0.520	80.24	0.10	0.60	 	 	 	 	 	 	 	 	 	 	 	 	 	 	 	 	 	 	1581512398	1.04	1.93
12/02/2020 12:59:59	120220	12022020	125959	80.48	12.418830	-57.245027	80.52	-0.190	1.470	-0.130	80.52	0.00	0.20	 	 	 	 	 	 	 	 	 	 	 	 	 	 	 	 	 	 	1581512399	1.22	2.26
12/02/2020 13:00:00	120220	12022020	130000	80.62	12.418832	-57.245028	80.62	-0.460	0.950	-0.150	80.61	-0.80	0.50	 	 	 	 	 	 	 	 	 	 	 	 	 	 	 	 	 	 	1581512400	0.46	0.85
12/02/2020 13:00:01	120220	12022020	130001	80.41	12.418828	-57.245027	80.40	-0.620	-0.140	0.510	80.35	-2.00	1.30	 	 	 	 	 	 	 	 	 	 	 	 	 	 	 	 	 	 	1581512401	0.80	1.48
12/02/2020 13:00:02	120220	12022020	130002	80.12	12.418823	-57.245022	80.15	-0.460	-1.320	1.260	80.09	-3.00	1.90	1017.10	26.40	26.40	20.80	20.90	704.0	71.0	71.0	414.0	28.1	349.00	11.40	69.00	11.00	45497	11456.0	27.5	27.5	1581512402	1.50	2.78
12/02/2020 13:00:03	120220	12022020	130003	80.06	12.418820	-57.245017	80.12	-0.070	-1.940	1.580	80.06	-3.20	2.10	 	 	 	 	 	 	 	 	 	 	 	 	 	 	 	 	 	 	1581512403	1.24	2.30
12/02/2020 13:00:04	120220	12022020	130004	80.11	12.418820	-57.245015	80.17	0.270	-1.480	1.620	80.12	-2.40	2.00	 	 	 	 	 	 	 	 	 	 	 	 	 	 	 	 	 	 	1581512404	0.44	0.81
12/02/2020 13:00:05	120220	12022020	130005	80.13	12.418820	-57.245017	80.18	0.340	-0.360	1.530	80.13	-1.30	1.90	 	 	 	 	 	 	 	 	 	 	 	 	 	 	 	 	 	 	1581512405	0.58	1.07
12/02/2020 13:00:06	120220	12022020	130006	80.10	12.418820	-57.245022	80.14	0.230	0.510	1.430	80.10	-0.70	1.80	 	 	 	 	 	 	 	 	 	 	 	 	 	 	 	 	 	 	1581512406	0.93	1.72
12/02/2020 13:00:07	120220	12022020	130007	80.12	12.418820	-57.245023	80.18	0.150	0.690	1.220	80.15	-0.70	1.50	 	 	 	 	 	 	 	 	 	 	 	 	 	 	 	 	 	 	1581512407	0.48	0.89
12/02/2020 13:00:08	120220	12022020	130008	80.23	12.418822	-57.245023	80.29	0.130	0.420	0.960	80.25	-1.10	1.30	 	 	 	 	 	 	 	 	 	 	 	 	 	 	 	 	 	 	1581512408	0.38	0.70
12/02/2020 13:00:09	120220	12022020	130009	80.28	12.418823	-57.245022	80.31	0.080	0.010	0.860	80.27	-1.50	1.30	 	 	 	 	 	 	 	 	 	 	 	 	 	 	 	 	 	 	1581512409	0.57	1.06
12/02/2020 13:00:10	120220	12022020	130010	80.15	12.418823	-57.245018	80.17	-0.040	-0.370	1.030	80.15	-1.60	1.40	 	 	 	 	 	 	 	 	 	 	 	 	 	 	 	 	 	 	1581512410	0.50	0.93
12/02/2020 13:00:11	120220	12022020	130011	79.92	12.418822	-57.245017	79.95	-0.190	-0.440	1.360	79.87	-1.70	1.90	 	 	 	 	 	 	 	 	 	 	 	 	 	 	 	 	 	 	1581512411	0.52	0.96
12/02/2020 13:00:12	120220	12022020	130012	79.74	12.418818	-57.245017	79.79	-0.270	-0.210	1.530	79.72	-1.50	1.90	 	 	 	 	 	 	 	 	 	 	 	 	 	 	 	 	 	 	1581512412	0.52	0.96
12/02/2020 13:00:13	120220	12022020	130013	79.70	12.418818	-57.245018	79.76	-0.190	-0.110	1.360	79.71	-1.50	1.70	 	 	 	 	 	 	 	 	 	 	 	 	 	 	 	 	 	 	1581512413	0.41	0.76
12/02/2020 13:00:14	120220	12022020	130014	79.79	12.418820	-57.245020	79.86	0.070	-0.340	1.070	79.82	-1.80	1.40	 	 	 	 	 	 	 	 	 	 	 	 	 	 	 	 	 	 	1581512414	0.44	0.81
12/02/2020 13:00:15	120220	12022020	130015	79.97	12.418823	-57.245018	80.05	0.330	-0.620	0.870	80.01	-2.00	1.30	 	 	 	 	 	 	 	 	 	 	 	 	 	 	 	 	 	 	1581512415	0.61	1.13
12/02/2020 13:00:16	120220	12022020	130016	80.13	12.418823	-57.245017	80.19	0.410	-0.710	0.850	80.15	-2.00	1.30	 	 	 	 	 	 	 	 	 	 	 	 	 	 	 	 	 	 	1581512416	0.46	0.85
12/02/2020 13:00:17	120220	12022020	130017	80.14	12.418823	-57.245015	80.17	0.260	-0.500	1.040	80.11	-1.60	1.60	 	 	 	 	 	 	 	 	 	 	 	 	 	 	 	 	 	 	1581512417	0.36	0.67
12/02/2020 13:00:18	120220	12022020	130018	79.93	12.418820	-57.245015	79.97	-0.110	0.080	1.460	79.89	-1.00	2.00	 	 	 	 	 	 	 	 	 	 	 	 	 	 	 	 	 	 	1581512418	0.61	1.13
12/02/2020 13:00:19	120220	12022020	130019	79.77	12.418817	-57.245017	79.84	-0.500	0.750	1.710	79.76	-0.40	2.10	 	 	 	 	 	 	 	 	 	 	 	 	 	 	 	 	 	 	1581512419	0.90	1.67
12/02/2020 13:00:20	120220	12022020	130020	79.76	12.418815	-57.245018	79.84	-0.580	0.930	1.570	79.76	-0.60	1.90	 	 	 	 	 	 	 	 	 	 	 	 	 	 	 	 	 	 	1581512420	0.72	1.33
12/02/2020 13:00:21	120220	12022020	130021	79.71	12.418817	-57.245020	79.76	-0.260	0.350	1.320	79.69	-1.40	1.60	 	 	 	 	 	 	 	 	 	 	 	 	 	 	 	 	 	 	1581512421	0.35	0.65
12/02/2020 13:00:22	120220	12022020	130022	79.71	12.418820	-57.245018	79.80	0.180	-0.590	0.940	79.72	-1.70	1.50	 	 	 	 	 	 	 	 	 	 	 	 	 	 	 	 	 	 	1581512422	0.89	1.65
12/02/2020 13:00:23	120220	12022020	130023	79.92	12.418823	-57.245015	79.99	0.360	-1.270	0.610	79.95	-2.70	1.00	 	 	 	 	 	 	 	 	 	 	 	 	 	 	 	 	 	 	1581512423	1.08	2.00
12/02/2020 13:00:24	120220	12022020	130024	80.01	12.418825	-57.245013	80.07	0.310	-1.390	0.740	80.01	-2.70	1.10	 	 	 	 	 	 	 	 	 	 	 	 	 	 	 	 	 	 	1581512424	0.49	0.91
12/02/2020 13:00:25	120220	12022020	130025	79.88	12.418823	-57.245012	79.93	0.280	-1.040	1.290	79.84	-2.10	2.00	 	 	 	 	 	 	 	 	 	 	 	 	 	 	 	 	 	 	1581512425	0.58	1.07
12/02/2020 13:00:26	120220	12022020	130026	79.76	12.418818	-57.245012	79.84	0.350	-0.420	1.750	79.77	-1.50	2.30	 	 	 	 	 	 	 	 	 	 	 	 	 	 	 	 	 	 	1581512426	0.85	1.57
12/02/2020 13:00:27	120220	12022020	130027	79.94	12.418817	-57.245012	80.06	0.290	0.290	1.830	80.01	-0.80	2.20	 	 	 	 	 	 	 	 	 	 	 	 	 	 	 	 	 	 	1581512427	0.51	0.94
12/02/2020 13:00:28	120220	12022020	130028	80.28	12.418815	-57.245013	80.39	-0.030	0.930	1.720	80.33	-0.20	2.10	 	 	 	 	 	 	 	 	 	 	 	 	 	 	 	 	 	 	1581512428	0.29	0.54
12/02/2020 13:00:29	120220	12022020	130029	80.46	12.418815	-57.245015	80.53	-0.490	1.270	1.560	80.48	-0.10	1.90	 	 	 	 	 	 	 	 	 	 	 	 	 	 	 	 	 	 	1581512429	0.45	0.83
12/02/2020 13:00:30	120220	12022020	130030	80.48	12.418815	-57.245017	80.52	-0.770	1.030	1.350	80.48	-0.60	1.70	 	 	 	 	 	 	 	 	 	 	 	 	 	 	 	 	 	 	1581512430	0.42	0.78
12/02/2020 13:00:31	120220	12022020	130031	80.50	12.418817	-57.245017	80.53	-0.700	0.220	1.090	80.50	-1.60	1.50	 	 	 	 	 	 	 	 	 	 	 	 	 	 	 	 	 	 	1581512431	0.25	0.46
12/02/2020 13:00:32	120220	12022020	130032	80.49	12.418818	-57.245015	80.50	-0.310	-0.950	1.010	80.48	-2.80	1.50	 	 	 	 	 	 	 	 	 	 	 	 	 	 	 	 	 	 	1581512432	0.48	0.89
12/02/2020 13:00:33	120220	12022020	130033	80.34	12.418820	-57.245012	80.35	0.210	-2.040	1.200	80.29	-3.60	1.70	 	 	 	 	 	 	 	 	 	 	 	 	 	 	 	 	 	 	1581512433	0.83	1.54
12/02/2020 13:00:34	120220	12022020	130034	80.10	12.418820	-57.245007	80.13	0.630	-2.360	1.400	80.07	-3.50	1.90	 	 	 	 	 	 	 	 	 	 	 	 	 	 	 	 	 	 	1581512434	0.91	1.69
12/02/2020 13:00:35	120220	12022020	130035	80.04	12.418818	-57.245005	80.12	0.830	-1.560	1.430	80.06	-2.30	1.80	 	 	 	 	 	 	 	 	 	 	 	 	 	 	 	 	 	 	1581512435	0.47	0.87
12/02/2020 13:00:36	120220	12022020	130036	80.23	12.418817	-57.245008	80.34	0.770	-0.010	1.340	80.28	-0.70	1.70	 	 	 	 	 	 	 	 	 	 	 	 	 	 	 	 	 	 	1581512436	0.52	0.96
12/02/2020 13:00:37	120220	12022020	130037	80.49	12.418817	-57.245012	80.58	0.400	1.340	1.240	80.53	0.30	1.60	 	 	 	 	 	 	 	 	 	 	 	 	 	 	 	 	 	 	1581512437	0.93	1.72
12/02/2020 13:00:38	120220	12022020	130038	80.61	12.418817	-57.245015	80.66	-0.190	1.790	1.010	80.61	0.30	1.30	 	 	 	 	 	 	 	 	 	 	 	 	 	 	 	 	 	 	1581512438	0.64	1.19
12/02/2020 13:00:39	120220	12022020	130039	80.52	12.418818	-57.245015	80.54	-0.770	1.370	0.760	80.48	-0.30	1.20	 	 	 	 	 	 	 	 	 	 	 	 	 	 	 	 	 	 	1581512439	0.39	0.72
12/02/2020 13:00:40	120220	12022020	130040	80.30	12.418820	-57.245013	80.32	-0.990	0.500	0.720	80.26	-1.20	1.20	 	 	 	 	 	 	 	 	 	 	 	 	 	 	 	 	 	 	1581512440	0.49	0.91
12/02/2020 13:00:41	120220	12022020	130041	80.19	12.418822	-57.245012	80.24	-0.760	-0.450	0.770	80.21	-2.20	1.20	 	 	 	 	 	 	 	 	 	 	 	 	 	 	 	 	 	 	1581512441	0.46	0.85
12/02/2020 13:00:42	120220	12022020	130042	80.38	12.418823	-57.245010	80.48	-0.290	-1.270	0.780	80.44	-2.80	1.30	 	 	 	 	 	 	 	 	 	 	 	 	 	 	 	 	 	 	1581512442	0.40	0.74
12/02/2020 13:00:43	120220	12022020	130043	80.63	12.418822	-57.245010	80.71	0.130	-1.610	0.970	80.66	-2.90	1.60	 	 	 	 	 	 	 	 	 	 	 	 	 	 	 	 	 	 	1581512443	0.32	0.59
12/02/2020 13:00:44	120220	12022020	130044	80.67	12.418818	-57.245008	80.73	0.370	-1.350	1.390	80.64	-2.50	2.00	 	 	 	 	 	 	 	 	 	 	 	 	 	 	 	 	 	 	1581512444	0.76	1.41
12/02/2020 13:00:45	120220	12022020	130045	80.43	12.418813	-57.245008	80.47	0.550	-0.930	1.920	80.35	-2.10	2.50	 	 	 	 	 	 	 	 	 	 	 	 	 	 	 	 	 	 	1581512445	1.12	2.07
12/02/2020 13:00:46	120220	12022020	130046	79.99	12.418810	-57.245008	80.01	0.760	-0.580	2.260	79.89	-1.80	2.70	 	 	 	 	 	 	 	 	 	 	 	 	 	 	 	 	 	 	1581512446	0.89	1.65
12/02/2020 13:00:47	120220	12022020	130047	79.58	12.418810	-57.245007	79.62	0.740	-0.050	2.170	79.53	-1.10	2.40	 	 	 	 	 	 	 	 	 	 	 	 	 	 	 	 	 	 	1581512447	0.38	0.70
12/02/2020 13:00:48	120220	12022020	130048	79.45	12.418812	-57.245007	79.54	0.270	0.810	1.630	79.46	-0.80	2.20	 	 	 	 	 	 	 	 	 	 	 	 	 	 	 	 	 	 	1581512448	0.66	1.22
12/02/2020 13:00:49	120220	12022020	130049	79.78	12.418817	-57.245010	79.90	-0.460	1.450	0.740	79.88	0.10	0.80	 	 	 	 	 	 	 	 	 	 	 	 	 	 	 	 	 	 	1581512449	1.30	2.41
12/02/2020 13:00:50	120220	12022020	130050	80.34	12.418823	-57.245013	80.43	-0.970	1.240	-0.190	80.43	-0.40	-0.00	 	 	 	 	 	 	 	 	 	 	 	 	 	 	 	 	 	 	1581512450	1.42	2.63
12/02/2020 13:00:51	120220	12022020	130051	80.74	12.418827	-57.245013	80.79	-0.940	0.390	-0.660	80.78	-1.40	-0.20	 	 	 	 	 	 	 	 	 	 	 	 	 	 	 	 	 	 	1581512451	0.94	1.74
12/02/2020 13:00:52	120220	12022020	130052	80.84	12.418828	-57.245012	80.86	-0.490	-0.460	-0.400	80.82	-2.10	0.40	 	 	 	 	 	 	 	 	 	 	 	 	 	 	 	 	 	 	1581512452	0.40	0.74
12/02/2020 13:00:53	120220	12022020	130053	80.65	12.418823	-57.245010	80.67	0.100	-1.150	0.520	80.59	-2.80	1.40	 	 	 	 	 	 	 	 	 	 	 	 	 	 	 	 	 	 	1581512453	0.92	1.70
12/02/2020 13:00:54	120220	12022020	130054	80.35	12.418817	-57.245008	80.40	0.600	-1.820	1.620	80.31	-3.40	2.40	 	 	 	 	 	 	 	 	 	 	 	 	 	 	 	 	 	 	1581512454	1.47	2.72
12/02/2020 13:00:55	120220	12022020	130055	80.20	12.418812	-57.245003	80.27	0.830	-2.100	2.350	80.18	-3.30	3.00	 	 	 	 	 	 	 	 	 	 	 	 	 	 	 	 	 	 	1581512455	1.49	2.76
12/02/2020 13:00:56	120220	12022020	130056	80.05	12.418808	-57.245000	80.11	0.660	-1.220	2.780	80.01	-1.90	3.30	 	 	 	 	 	 	 	 	 	 	 	 	 	 	 	 	 	 	1581512456	0.94	1.74
12/02/2020 13:00:57	120220	12022020	130057	79.86	12.418807	-57.245003	79.94	0.110	0.600	2.960	79.84	-0.10	3.40	 	 	 	 	 	 	 	 	 	 	 	 	 	 	 	 	 	 	1581512457	0.65	1.20
12/02/2020 13:00:58	120220	12022020	130058	79.93	12.418807	-57.245010	80.06	-0.550	2.080	2.640	80.00	0.90	2.70	 	 	 	 	 	 	 	 	 	 	 	 	 	 	 	 	 	 	1581512458	1.46	2.70
12/02/2020 13:00:59	120220	12022020	130059	80.43	12.418808	-57.245015	80.57	-0.860	2.160	1.530	80.55	0.30	1.40	 	 	 	 	 	 	 	 	 	 	 	 	 	 	 	 	 	 	1581512459	1.35	2.50
12/02/2020 13:01:00	120220	12022020	130100	81.00	12.418815	-57.245017	81.09	-0.560	0.720	0.100	81.00	-0.20	0.90	 	 	 	 	 	 	 	 	 	 	 	 	 	 	 	 	 	 	1581512460	1.40	2.59
12/02/2020 13:01:01	120220	12022020	130101	81.30	12.418823	-57.245012	81.34	0.190	-1.210	-0.790	81.33	-3.20	-0.40	 	 	 	 	 	 	 	 	 	 	 	 	 	 	 	 	 	 	1581512461	1.92	3.56
12/02/2020 13:01:02	120220	12022020	130102	81.32	12.418827	-57.245007	81.32	0.800	-2.260	-0.810	81.29	-3.60	-0.10	1017.10	26.40	26.50	20.90	21.00	643.0	71.0	71.0	413.0	28.1	349.00	11.70	69.00	11.30	43523	10655.0	27.5	27.5	1581512462	1.62	3.00
12/02/2020 13:01:03	120220	12022020	130103	81.09	12.418827	-57.245003	81.06	0.800	-1.810	-0.120	81.02	-2.70	0.70	 	 	 	 	 	 	 	 	 	 	 	 	 	 	 	 	 	 	1581512463	0.55	1.02
12/02/2020 13:01:04	120220	12022020	130104	80.70	12.418822	-57.245007	80.69	0.260	-0.520	0.840	80.62	-1.40	1.60	 	 	 	 	 	 	 	 	 	 	 	 	 	 	 	 	 	 	1581512464	1.21	2.24
12/02/2020 13:01:05	120220	12022020	130105	80.39	12.418815	-57.245010	80.42	-0.380	0.610	1.550	80.35	-0.50	2.10	 	 	 	 	 	 	 	 	 	 	 	 	 	 	 	 	 	 	1581512465	1.55	2.87
12/02/2020 13:01:06	120220	12022020	130106	80.32	12.418812	-57.245013	80.39	-0.690	1.020	1.730	80.35	-0.40	2.10	 	 	 	 	 	 	 	 	 	 	 	 	 	 	 	 	 	 	1581512466	0.99	1.83
12/02/2020 13:01:07	120220	12022020	130107	80.55	12.418812	-57.245015	80.65	-0.510	0.670	1.520	80.62	-1.00	1.90	 	 	 	 	 	 	 	 	 	 	 	 	 	 	 	 	 	 	1581512467	0.13	0.24
12/02/2020 13:01:08	120220	12022020	130108	80.95	12.418815	-57.245013	81.08	-0.030	-0.030	1.260	81.05	-1.70	1.60	 	 	 	 	 	 	 	 	 	 	 	 	 	 	 	 	 	 	1581512468	0.60	1.11
12/02/2020 13:01:09	120220	12022020	130109	81.42	12.418817	-57.245010	81.52	0.390	-0.600	0.980	81.50	-2.10	1.30	 	 	 	 	 	 	 	 	 	 	 	 	 	 	 	 	 	 	1581512469	0.72	1.33
12/02/2020 13:01:10	120220	12022020	130110	81.68	12.418818	-57.245010	81.73	0.510	-0.800	0.850	81.68	-2.10	1.30	 	 	 	 	 	 	 	 	 	 	 	 	 	 	 	 	 	 	1581512470	0.45	0.83
12/02/2020 13:01:11	120220	12022020	130111	81.54	12.418818	-57.245010	81.55	0.410	-0.620	1.100	81.46	-1.90	1.70	 	 	 	 	 	 	 	 	 	 	 	 	 	 	 	 	 	 	1581512471	0.09	0.17
12/02/2020 13:01:12	120220	12022020	130112	81.20	12.418817	-57.245012	81.13	0.290	-0.370	1.610	81.12	-1.80	1.90	 	 	 	 	 	 	 	 	 	 	 	 	 	 	 	 	 	 	1581512472	0.48	0.89
12/02/2020 13:01:13	120220	12022020	130113	80.87	12.418815	-57.245012	80.94	0.170	-0.250	1.960	80.87	-1.60	2.40	 	 	 	 	 	 	 	 	 	 	 	 	 	 	 	 	 	 	1581512473	0.37	0.69
12/02/2020 13:01:14	120220	12022020	130114	80.99	12.418813	-57.245012	81.17	-0.070	-0.130	1.930	81.05	-1.50	2.40	 	 	 	 	 	 	 	 	 	 	 	 	 	 	 	 	 	 	1581512474	0.23	0.43
12/02/2020 13:01:15	120220	12022020	130115	81.37	12.418813	-57.245012	81.45	-0.390	0.100	1.670	81.41	-1.20	2.00	 	 	 	 	 	 	 	 	 	 	 	 	 	 	 	 	 	 	1581512475	0.11	0.20
12/02/2020 13:01:16	120220	12022020	130116	81.46	12.418813	-57.245012	81.49	-0.580	0.340	1.410	81.44	-1.00	1.80	 	 	 	 	 	 	 	 	 	 	 	 	 	 	 	 	 	 	1581512476	0.24	0.44
12/02/2020 13:01:17	120220	12022020	130117	81.27	12.418813	-57.245013	81.25	-0.510	0.470	1.210	81.21	-0.90	1.60	 	 	 	 	 	 	 	 	 	 	 	 	 	 	 	 	 	 	1581512477	0.34	0.63
12/02/2020 13:01:18	120220	12022020	130118	80.99	12.418815	-57.245015	80.97	-0.300	0.310	0.940	80.95	-1.30	1.20	 	 	 	 	 	 	 	 	 	 	 	 	 	 	 	 	 	 	1581512478	0.48	0.89
12/02/2020 13:01:19	120220	12022020	130119	80.96	12.418818	-57.245017	80.99	-0.060	-0.230	0.460	81.00	-1.90	0.70	 	 	 	 	 	 	 	 	 	 	 	 	 	 	 	 	 	 	1581512479	0.67	1.24
12/02/2020 13:01:20	120220	12022020	130120	81.21	12.418822	-57.245015	81.25	0.260	-0.960	0.090	81.27	-2.60	0.50	 	 	 	 	 	 	 	 	 	 	 	 	 	 	 	 	 	 	1581512480	0.72	1.33
12/02/2020 13:01:21	120220	12022020	130121	81.45	12.418823	-57.245013	81.47	0.680	-1.480	0.100	81.48	-2.90	0.60	 	 	 	 	 	 	 	 	 	 	 	 	 	 	 	 	 	 	1581512481	0.62	1.15
12/02/2020 13:01:22	120220	12022020	130122	81.54	12.418825	-57.245012	81.54	0.960	-1.350	0.280	81.54	-2.50	0.80	 	 	 	 	 	 	 	 	 	 	 	 	 	 	 	 	 	 	1581512482	0.48	0.89
12/02/2020 13:01:23	120220	12022020	130123	81.55	12.418825	-57.245012	81.56	0.870	-0.520	0.580	81.55	-1.40	1.20	 	 	 	 	 	 	 	 	 	 	 	 	 	 	 	 	 	 	1581512483	0.08	0.15
12/02/2020 13:01:24	120220	12022020	130124	81.56	12.418823	-57.245013	81.59	0.340	0.560	1.200	81.56	-0.50	2.00	 	 	 	 	 	 	 	 	 	 	 	 	 	 	 	 	 	 	1581512484	0.62	1.15
12/02/2020 13:01:25	120220	12022020	130125	81.56	12.418818	-57.245017	81.60	-0.340	1.160	2.060	81.55	-0.20	2.80	 	 	 	 	 	 	 	 	 	 	 	 	 	 	 	 	 	 	1581512485	1.15	2.13
12/02/2020 13:01:26	120220	12022020	130126	81.45	12.418812	-57.245017	81.49	-0.800	0.960	2.780	81.40	-0.70	3.40	 	 	 	 	 	 	 	 	 	 	 	 	 	 	 	 	 	 	1581512486	1.30	2.41
12/02/2020 13:01:27	120220	12022020	130127	81.19	12.418808	-57.245015	81.22	-0.880	0.340	3.110	81.15	-1.30	3.50	 	 	 	 	 	 	 	 	 	 	 	 	 	 	 	 	 	 	1581512487	1.07	1.98
12/02/2020 13:01:28	120220	12022020	130128	80.96	12.418807	-57.245013	80.99	-0.710	-0.100	3.000	80.93	-1.60	3.30	 	 	 	 	 	 	 	 	 	 	 	 	 	 	 	 	 	 	1581512488	0.53	0.98
12/02/2020 13:01:29	120220	12022020	130129	80.88	12.418808	-57.245013	80.92	-0.450	-0.280	2.520	80.89	-1.70	2.60	 	 	 	 	 	 	 	 	 	 	 	 	 	 	 	 	 	 	1581512489	0.26	0.48
12/02/2020 13:01:30	120220	12022020	130130	81.06	12.418812	-57.245017	81.12	-0.130	-0.520	1.570	81.14	-2.10	1.50	 	 	 	 	 	 	 	 	 	 	 	 	 	 	 	 	 	 	1581512490	0.93	1.72
12/02/2020 13:01:31	120220	12022020	130131	81.49	12.418817	-57.245017	81.52	0.310	-1.020	0.350	81.57	-2.60	0.40	 	 	 	 	 	 	 	 	 	 	 	 	 	 	 	 	 	 	1581512491	1.36	2.52
12/02/2020 13:01:32	120220	12022020	130132	81.81	12.418823	-57.245017	81.79	0.780	-1.500	-0.600	81.84	-3.00	-0.30	 	 	 	 	 	 	 	 	 	 	 	 	 	 	 	 	 	 	1581512492	1.45	2.69
12/02/2020 13:01:33	120220	12022020	130133	81.77	12.418828	-57.245015	81.69	1.030	-1.490	-0.770	81.71	-2.60	-0.20	 	 	 	 	 	 	 	 	 	 	 	 	 	 	 	 	 	 	1581512493	0.98	1.81
12/02/2020 13:01:34	120220	12022020	130134	81.39	12.418828	-57.245013	81.31	0.910	-0.740	-0.160	81.30	-1.70	0.60	 	 	 	 	 	 	 	 	 	 	 	 	 	 	 	 	 	 	1581512494	0.28	0.52
12/02/2020 13:01:35	120220	12022020	130135	81.01	12.418825	-57.245015	80.97	0.450	0.400	0.680	80.95	-0.60	1.40	 	 	 	 	 	 	 	 	 	 	 	 	 	 	 	 	 	 	1581512495	0.70	1.30
12/02/2020 13:01:36	120220	12022020	130136	80.88	12.418822	-57.245017	80.89	-0.230	1.350	1.310	80.87	-0.20	1.60	 	 	 	 	 	 	 	 	 	 	 	 	 	 	 	 	 	 	1581512496	0.93	1.72
12/02/2020 13:01:37	120220	12022020	130137	80.94	12.418818	-57.245020	80.98	-0.930	1.650	1.700	80.96	0.20	2.20	 	 	 	 	 	 	 	 	 	 	 	 	 	 	 	 	 	 	1581512497	0.79	1.46
12/02/2020 13:01:38	120220	12022020	130138	81.05	12.418815	-57.245020	81.14	-1.360	1.220	1.910	81.08	-0.00	2.30	 	 	 	 	 	 	 	 	 	 	 	 	 	 	 	 	 	 	1581512498	0.61	1.13
12/02/2020 13:01:39	120220	12022020	130139	81.28	12.418813	-57.245020	81.35	-1.220	0.270	1.960	81.32	-1.60	2.40	 	 	 	 	 	 	 	 	 	 	 	 	 	 	 	 	 	 	1581512499	0.52	0.96
12/02/2020 13:01:40	120220	12022020	130140	81.46	12.418812	-57.245017	81.53	-0.500	-0.840	1.900	81.49	-2.60	2.30	 	 	 	 	 	 	 	 	 	 	 	 	 	 	 	 	 	 	1581512500	0.52	0.96
12/02/2020 13:01:41	120220	12022020	130141	81.48	12.418812	-57.245015	81.51	0.420	-1.700	1.850	81.45	-3.30	2.30	 	 	 	 	 	 	 	 	 	 	 	 	 	 	 	 	 	 	1581512501	0.53	0.98
12/02/2020 13:01:42	120220	12022020	130142	81.23	12.418812	-57.245013	81.23	1.030	-1.950	1.860	81.17	-3.20	2.30	 	 	 	 	 	 	 	 	 	 	 	 	 	 	 	 	 	 	1581512502	0.44	0.81
12/02/2020 13:01:43	120220	12022020	130143	80.93	12.418813	-57.245012	80.94	1.090	-1.510	1.770	80.89	-2.60	2.10	 	 	 	 	 	 	 	 	 	 	 	 	 	 	 	 	 	 	1581512503	0.31	0.57
12/02/2020 13:01:44	120220	12022020	130144	80.82	12.418815	-57.245013	80.84	0.790	-0.680	1.530	80.82	-1.70	1.80	 	 	 	 	 	 	 	 	 	 	 	 	 	 	 	 	 	 	1581512504	0.51	0.94
12/02/2020 13:01:45	120220	12022020	130145	80.83	12.418818	-57.245015	80.86	0.440	0.230	1.130	80.85	-0.80	1.40	 	 	 	 	 	 	 	 	 	 	 	 	 	 	 	 	 	 	1581512505	0.59	1.09
12/02/2020 13:01:46	120220	12022020	130146	80.99	12.418820	-57.245017	81.03	0.060	1.030	0.550	81.05	-0.10	0.80	 	 	 	 	 	 	 	 	 	 	 	 	 	 	 	 	 	 	1581512506	0.71	1.31
12/02/2020 13:01:47	120220	12022020	130147	81.30	12.418823	-57.245018	81.34	-0.400	1.510	0.090	81.36	0.20	0.50	 	 	 	 	 	 	 	 	 	 	 	 	 	 	 	 	 	 	1581512507	0.87	1.61
12/02/2020 13:01:48	120220	12022020	130148	81.50	12.418825	-57.245020	81.52	-0.870	1.380	0.140	81.52	0.10	0.50	 	 	 	 	 	 	 	 	 	 	 	 	 	 	 	 	 	 	1581512508	0.49	0.91
12/02/2020 13:01:49	120220	12022020	130149	81.44	12.418823	-57.245020	81.41	-1.110	0.540	0.640	81.38	-1.30	1.30	 	 	 	 	 	 	 	 	 	 	 	 	 	 	 	 	 	 	1581512509	0.50	0.93
12/02/2020 13:01:50	120220	12022020	130150	81.09	12.418818	-57.245018	81.06	-0.920	-0.710	1.310	81.09	-1.80	1.60	 	 	 	 	 	 	 	 	 	 	 	 	 	 	 	 	 	 	1581512510	1.16	2.15
12/02/2020 13:01:51	120220	12022020	130151	80.71	12.418813	-57.245013	80.70	-0.310	-1.840	1.840	80.64	-3.50	2.40	 	 	 	 	 	 	 	 	 	 	 	 	 	 	 	 	 	 	1581512511	1.39	2.57
12/02/2020 13:01:52	120220	12022020	130152	80.46	12.418812	-57.245008	80.50	0.460	-2.170	2.100	80.44	-3.30	2.50	 	 	 	 	 	 	 	 	 	 	 	 	 	 	 	 	 	 	1581512512	1.06	1.96
12/02/2020 13:01:53	120220	12022020	130153	80.43	12.418810	-57.245008	80.49	0.950	-1.390	2.020	80.44	-2.20	2.30	 	 	 	 	 	 	 	 	 	 	 	 	 	 	 	 	 	 	1581512513	0.21	0.39
12/02/2020 13:01:54	120220	12022020	130154	80.60	12.418812	-57.245012	80.67	0.940	-0.120	1.580	80.65	-1.10	1.70	 	 	 	 	 	 	 	 	 	 	 	 	 	 	 	 	 	 	1581512514	0.81	1.50
12/02/2020 13:01:55	120220	12022020	130155	80.88	12.418815	-57.245017	80.95	0.550	0.720	0.890	80.94	-0.50	1.00	 	 	 	 	 	 	 	 	 	 	 	 	 	 	 	 	 	 	1581512515	1.18	2.19
12/02/2020 13:01:56	120220	12022020	130156	81.09	12.418820	-57.245018	81.11	0.070	0.890	0.350	81.10	-0.60	0.70	 	 	 	 	 	 	 	 	 	 	 	 	 	 	 	 	 	 	1581512516	0.95	1.76
12/02/2020 13:01:57	120220	12022020	130157	81.04	12.418822	-57.245017	81.04	-0.270	0.600	0.300	81.00	-1.00	0.80	 	 	 	 	 	 	 	 	 	 	 	 	 	 	 	 	 	 	1581512517	0.53	0.98
12/02/2020 13:01:58	120220	12022020	130158	80.82	12.418822	-57.245015	80.82	-0.390	0.140	0.590	80.76	-1.40	1.20	 	 	 	 	 	 	 	 	 	 	 	 	 	 	 	 	 	 	1581512518	0.43	0.80
12/02/2020 13:01:59	120220	12022020	130159	80.51	12.418820	-57.245013	80.52	-0.410	-0.170	1.060	80.44	-1.60	1.70	 	 	 	 	 	 	 	 	 	 	 	 	 	 	 	 	 	 	1581512519	0.55	1.02
12/02/2020 13:02:00	120220	12022020	130200	80.23	12.418818	-57.245012	80.27	-0.460	-0.160	1.480	80.20	-1.50	2.00	 	 	 	 	 	 	 	 	 	 	 	 	 	 	 	 	 	 	1581512520	0.53	0.98
12/02/2020 13:02:01	120220	12022020	130201	80.11	12.418817	-57.245013	80.17	-0.480	-0.190	1.740	80.10	-1.70	2.20	 	 	 	 	 	 	 	 	 	 	 	 	 	 	 	 	 	 	1581512521	0.54	1.00
12/02/2020 13:02:02	120220	12022020	130202	80.16	12.418815	-57.245013	80.25	-0.240	-0.640	1.840	80.16	-1.90	2.30	1017.10	26.40	26.40	20.80	20.80	658.0	71.0	71.0	409.0	28.2	348.00	10.90	69.00	10.60	44305	9731.0	27.6	27.6	1581512522	0.27	0.50
12/02/2020 13:02:03	120220	12022020	130203	80.39	12.418815	-57.245012	80.51	0.270	-1.240	1.750	80.45	-2.70	2.10	 	 	 	 	 	 	 	 	 	 	 	 	 	 	 	 	 	 	1581512523	0.57	1.06
12/02/2020 13:02:04	120220	12022020	130204	80.59	12.418815	-57.245007	80.66	0.720	-1.310	1.580	80.59	-2.70	2.00	 	 	 	 	 	 	 	 	 	 	 	 	 	 	 	 	 	 	1581512524	0.77	1.43
12/02/2020 13:02:05	120220	12022020	130205	80.49	12.418815	-57.245007	80.51	0.780	-0.590	1.420	80.44	-1.50	1.80	 	 	 	 	 	 	 	 	 	 	 	 	 	 	 	 	 	 	1581512525	0.24	0.44
12/02/2020 13:02:06	120220	12022020	130206	80.24	12.418815	-57.245008	80.27	0.350	0.500	1.260	80.20	-0.50	1.60	 	 	 	 	 	 	 	 	 	 	 	 	 	 	 	 	 	 	1581512526	0.53	0.98
12/02/2020 13:02:07	120220	12022020	130207	80.07	12.418817	-57.245013	80.10	-0.260	1.250	1.080	80.05	-0.10	1.40	 	 	 	 	 	 	 	 	 	 	 	 	 	 	 	 	 	 	1581512527	0.98	1.81
12/02/2020 13:02:08	120220	12022020	130208	79.95	12.418818	-57.245015	79.97	-0.570	1.070	0.960	79.93	-0.70	1.40	 	 	 	 	 	 	 	 	 	 	 	 	 	 	 	 	 	 	1581512528	0.75	1.39
12/02/2020 13:02:09	120220	12022020	130209	79.85	12.418822	-57.245015	79.89	-0.420	0.070	0.900	79.85	-1.80	1.20	 	 	 	 	 	 	 	 	 	 	 	 	 	 	 	 	 	 	1581512529	0.54	1.00
12/02/2020 13:02:10	120220	12022020	130210	79.96	12.418823	-57.245010	80.02	-0.060	-0.970	0.620	80.01	-2.60	0.90	 	 	 	 	 	 	 	 	 	 	 	 	 	 	 	 	 	 	1581512530	1.06	1.96
12/02/2020 13:02:11	120220	12022020	130211	80.20	12.418825	-57.245007	80.24	0.180	-1.270	0.420	80.22	-2.50	0.90	 	 	 	 	 	 	 	 	 	 	 	 	 	 	 	 	 	 	1581512531	0.86	1.59
12/02/2020 13:02:12	120220	12022020	130212	80.22	12.418825	-57.245007	80.24	0.150	-0.790	0.690	80.20	-1.90	1.30	 	 	 	 	 	 	 	 	 	 	 	 	 	 	 	 	 	 	1581512532	0.08	0.15
12/02/2020 13:02:13	120220	12022020	130213	80.16	12.418822	-57.245008	80.20	-0.010	-0.140	1.260	80.16	-1.30	1.90	 	 	 	 	 	 	 	 	 	 	 	 	 	 	 	 	 	 	1581512533	0.85	1.57
12/02/2020 13:02:14	120220	12022020	130214	80.19	12.418818	-57.245010	80.26	-0.130	0.250	1.720	80.20	-1.20	2.00	 	 	 	 	 	 	 	 	 	 	 	 	 	 	 	 	 	 	1581512534	0.95	1.76
12/02/2020 13:02:15	120220	12022020	130215	80.15	12.418815	-57.245012	80.17	-0.130	0.260	1.930	80.11	-1.20	2.40	 	 	 	 	 	 	 	 	 	 	 	 	 	 	 	 	 	 	1581512535	0.63	1.17
12/02/2020 13:02:16	120220	12022020	130216	79.86	12.418815	-57.245010	79.85	-0.020	-0.010	1.940	79.79	-1.50	2.30	 	 	 	 	 	 	 	 	 	 	 	 	 	 	 	 	 	 	1581512536	0.26	0.48
12/02/2020 13:02:17	120220	12022020	130217	79.62	12.418817	-57.245008	79.67	0.110	-0.290	1.770	79.62	-1.70	2.10	 	 	 	 	 	 	 	 	 	 	 	 	 	 	 	 	 	 	1581512537	0.47	0.87
12/02/2020 13:02:18	120220	12022020	130218	79.77	12.418818	-57.245008	79.85	0.180	-0.460	1.390	79.83	-1.90	1.60	 	 	 	 	 	 	 	 	 	 	 	 	 	 	 	 	 	 	1581512538	0.61	1.13
12/02/2020 13:02:19	120220	12022020	130219	80.12	12.418822	-57.245007	80.19	0.210	-0.580	0.980	80.18	-1.90	1.30	 	 	 	 	 	 	 	 	 	 	 	 	 	 	 	 	 	 	1581512539	0.70	1.30
12/02/2020 13:02:20	120220	12022020	130220	80.31	12.418825	-57.245007	80.35	0.240	-0.460	0.680	80.32	-1.70	1.00	 	 	 	 	 	 	 	 	 	 	 	 	 	 	 	 	 	 	1581512540	0.62	1.15
12/02/2020 13:02:21	120220	12022020	130221	80.24	12.418827	-57.245008	80.25	0.240	-0.140	0.520	80.21	-1.40	0.90	 	 	 	 	 	 	 	 	 	 	 	 	 	 	 	 	 	 	1581512541	0.41	0.76
12/02/2020 13:02:22	120220	12022020	130222	80.13	12.418827	-57.245008	80.16	0.120	0.120	0.560	80.13	-1.20	1.10	 	 	 	 	 	 	 	 	 	 	 	 	 	 	 	 	 	 	1581512542	0.20	0.37
12/02/2020 13:02:23	120220	12022020	130223	80.10	12.418827	-57.245008	80.13	-0.190	0.220	0.980	80.09	-1.10	1.70	 	 	 	 	 	 	 	 	 	 	 	 	 	 	 	 	 	 	1581512543	0.30	0.56
12/02/2020 13:02:24	120220	12022020	130224	80.04	12.418823	-57.245008	80.08	-0.570	0.270	1.590	80.03	-1.10	2.20	 	 	 	 	 	 	 	 	 	 	 	 	 	 	 	 	 	 	1581512544	0.74	1.37
12/02/2020 13:02:25	120220	12022020	130225	80.07	12.418820	-57.245008	80.14	-0.740	0.260	1.810	80.11	-1.20	2.10	 	 	 	 	 	 	 	 	 	 	 	 	 	 	 	 	 	 	1581512545	0.71	1.31
12/02/2020 13:02:26	120220	12022020	130226	80.22	12.418818	-57.245010	80.31	-0.430	-0.050	1.480	80.26	-1.30	2.00	 	 	 	 	 	 	 	 	 	 	 	 	 	 	 	 	 	 	1581512546	0.28	0.52
12/02/2020 13:02:27	120220	12022020	130227	80.34	12.418822	-57.245010	80.36	0.250	-0.710	1.050	80.33	-2.30	1.40	 	 	 	 	 	 	 	 	 	 	 	 	 	 	 	 	 	 	1581512547	0.49	0.91
12/02/2020 13:02:28	120220	12022020	130228	80.20	12.418823	-57.245007	80.19	0.810	-1.250	1.000	80.20	-2.50	1.40	 	 	 	 	 	 	 	 	 	 	 	 	 	 	 	 	 	 	1581512548	0.78	1.44
12/02/2020 13:02:29	120220	12022020	130229	79.92	12.418825	-57.245005	79.92	0.880	-1.280	1.320	79.87	-2.40	1.90	 	 	 	 	 	 	 	 	 	 	 	 	 	 	 	 	 	 	1581512549	0.60	1.11
12/02/2020 13:02:30	120220	12022020	130230	79.78	12.418825	-57.245003	79.82	0.430	-0.620	1.570	79.79	-1.50	1.90	 	 	 	 	 	 	 	 	 	 	 	 	 	 	 	 	 	 	1581512550	0.20	0.37
12/02/2020 13:02:31	120220	12022020	130231	79.99	12.418825	-57.245007	80.07	-0.180	0.490	1.310	80.07	-0.50	1.50	 	 	 	 	 	 	 	 	 	 	 	 	 	 	 	 	 	 	1581512551	0.51	0.94
12/02/2020 13:02:32	120220	12022020	130232	80.39	12.418825	-57.245010	80.45	-0.590	1.250	0.830	80.46	-0.10	1.10	 	 	 	 	 	 	 	 	 	 	 	 	 	 	 	 	 	 	1581512552	1.04	1.93
12/02/2020 13:02:33	120220	12022020	130233	80.58	12.418827	-57.245013	80.59	-0.620	1.040	0.650	80.58	-0.70	1.10	 	 	 	 	 	 	 	 	 	 	 	 	 	 	 	 	 	 	1581512553	0.74	1.37
12/02/2020 13:02:34	120220	12022020	130234	80.49	12.418828	-57.245013	80.47	-0.370	0.070	0.880	80.45	-1.70	1.40	 	 	 	 	 	 	 	 	 	 	 	 	 	 	 	 	 	 	1581512554	0.30	0.56
12/02/2020 13:02:35	120220	12022020	130235	80.33	12.418827	-57.245008	80.33	0.010	-0.900	1.210	80.31	-2.50	1.70	 	 	 	 	 	 	 	 	 	 	 	 	 	 	 	 	 	 	1581512555	0.85	1.57
12/02/2020 13:02:36	120220	12022020	130236	80.28	12.418825	-57.245005	80.29	0.320	-1.270	1.420	80.29	-2.60	1.90	 	 	 	 	 	 	 	 	 	 	 	 	 	 	 	 	 	 	1581512556	0.79	1.46
12/02/2020 13:02:37	120220	12022020	130237	80.31	12.418823	-57.245005	80.33	0.360	-0.940	1.570	80.31	-2.00	2.00	 	 	 	 	 	 	 	 	 	 	 	 	 	 	 	 	 	 	1581512557	0.48	0.89
12/02/2020 13:02:38	120220	12022020	130238	80.29	12.418822	-57.245007	80.31	0.070	-0.240	1.670	80.27	-1.30	2.10	 	 	 	 	 	 	 	 	 	 	 	 	 	 	 	 	 	 	1581512558	0.54	1.00
12/02/2020 13:02:39	120220	12022020	130239	80.20	12.418822	-57.245010	80.20	-0.320	0.320	1.590	80.17	-1.00	1.90	 	 	 	 	 	 	 	 	 	 	 	 	 	 	 	 	 	 	1581512559	0.68	1.26
12/02/2020 13:02:40	120220	12022020	130240	80.06	12.418822	-57.245012	80.02	-0.410	0.380	1.300	80.02	-1.00	1.80	 	 	 	 	 	 	 	 	 	 	 	 	 	 	 	 	 	 	1581512560	0.57	1.06
12/02/2020 13:02:41	120220	12022020	130241	79.92	12.418825	-57.245012	79.94	-0.080	0.020	0.720	79.93	-1.50	0.80	 	 	 	 	 	 	 	 	 	 	 	 	 	 	 	 	 	 	1581512561	0.73	1.35
12/02/2020 13:02:42	120220	12022020	130242	80.09	12.418832	-57.245010	80.12	0.340	-0.400	-0.010	80.13	-1.90	0.20	 	 	 	 	 	 	 	 	 	 	 	 	 	 	 	 	 	 	1581512562	1.20	2.22
12/02/2020 13:02:43	120220	12022020	130243	80.33	12.418835	-57.245010	80.36	0.470	-0.520	-0.350	80.37	-1.90	0.10	 	 	 	 	 	 	 	 	 	 	 	 	 	 	 	 	 	 	1581512563	1.05	1.94
12/02/2020 13:02:44	120220	12022020	130244	80.37	12.418837	-57.245010	80.37	0.250	-0.370	0.010	80.34	-1.60	0.70	 	 	 	 	 	 	 	 	 	 	 	 	 	 	 	 	 	 	1581512564	0.21	0.39
12/02/2020 13:02:45	120220	12022020	130245	80.20	12.418833	-57.245010	80.20	-0.120	-0.130	0.770	80.16	-1.40	1.50	 	 	 	 	 	 	 	 	 	 	 	 	 	 	 	 	 	 	1581512565	0.64	1.19
12/02/2020 13:02:46	120220	12022020	130246	80.09	12.418828	-57.245010	80.14	-0.390	-0.030	1.410	80.09	-1.40	2.00	 	 	 	 	 	 	 	 	 	 	 	 	 	 	 	 	 	 	1581512566	1.00	1.85
12/02/2020 13:02:47	120220	12022020	130247	80.15	12.418825	-57.245010	80.24	-0.400	-0.140	1.780	80.18	-1.50	2.30	 	 	 	 	 	 	 	 	 	 	 	 	 	 	 	 	 	 	1581512567	0.87	1.61
12/02/2020 13:02:48	120220	12022020	130248	80.28	12.418823	-57.245008	80.36	-0.240	-0.140	1.900	80.29	-1.40	2.30	 	 	 	 	 	 	 	 	 	 	 	 	 	 	 	 	 	 	1581512568	0.60	1.11
12/02/2020 13:02:49	120220	12022020	130249	80.24	12.418822	-57.245008	80.29	-0.070	0.070	1.860	80.20	-1.20	2.30	 	 	 	 	 	 	 	 	 	 	 	 	 	 	 	 	 	 	1581512569	0.21	0.39
12/02/2020 13:02:50	120220	12022020	130250	79.98	12.418822	-57.245010	80.02	0.010	0.280	1.790	79.93	-1.10	2.10	 	 	 	 	 	 	 	 	 	 	 	 	 	 	 	 	 	 	1581512570	0.39	0.72
12/02/2020 13:02:51	120220	12022020	130251	79.78	12.418823	-57.245012	79.84	0.080	0.070	1.540	79.78	-1.50	1.80	 	 	 	 	 	 	 	 	 	 	 	 	 	 	 	 	 	 	1581512571	0.45	0.83
12/02/2020 13:02:52	120220	12022020	130252	79.84	12.418825	-57.245012	79.92	0.240	-0.620	1.000	79.84	-1.80	1.60	 	 	 	 	 	 	 	 	 	 	 	 	 	 	 	 	 	 	1581512572	0.53	0.98
12/02/2020 13:02:53	120220	12022020	130253	79.97	12.418830	-57.245008	80.02	0.440	-1.350	0.430	79.98	-2.90	0.70	 	 	 	 	 	 	 	 	 	 	 	 	 	 	 	 	 	 	1581512573	1.08	2.00
12/02/2020 13:02:54	120220	12022020	130254	79.96	12.418835	-57.245005	79.97	0.490	-1.520	0.090	79.94	-2.90	0.60	 	 	 	 	 	 	 	 	 	 	 	 	 	 	 	 	 	 	1581512574	1.21	2.24
12/02/2020 13:02:55	120220	12022020	130255	79.83	12.418837	-57.245005	79.87	0.230	-0.760	0.220	79.82	-1.60	0.90	 	 	 	 	 	 	 	 	 	 	 	 	 	 	 	 	 	 	1581512575	0.63	1.17
12/02/2020 13:02:56	120220	12022020	130256	79.78	12.418835	-57.245007	79.84	-0.290	0.720	0.870	79.78	-0.00	1.60	 	 	 	 	 	 	 	 	 	 	 	 	 	 	 	 	 	 	1581512576	0.73	1.35
12/02/2020 13:02:57	120220	12022020	130257	79.83	12.418828	-57.245012	79.92	-0.820	2.040	1.560	79.85	0.90	2.20	 	 	 	 	 	 	 	 	 	 	 	 	 	 	 	 	 	 	1581512577	1.85	3.43
12/02/2020 13:02:58	120220	12022020	130258	79.92	12.418822	-57.245018	80.00	-1.000	2.080	1.890	79.93	0.20	2.30	 	 	 	 	 	 	 	 	 	 	 	 	 	 	 	 	 	 	1581512578	1.71	3.17
12/02/2020 13:02:59	120220	12022020	130259	79.92	12.418820	-57.245018	79.99	-0.660	0.570	1.850	79.91	-1.70	2.20	 	 	 	 	 	 	 	 	 	 	 	 	 	 	 	 	 	 	1581512579	0.38	0.70
12/02/2020 13:03:00	120220	12022020	130300	79.90	12.418822	-57.245013	79.99	0.080	-1.600	1.570	79.91	-3.70	1.90	 	 	 	 	 	 	 	 	 	 	 	 	 	 	 	 	 	 	1581512580	1.20	2.22
12/02/2020 13:03:01	120220	12022020	130301	79.93	12.418825	-57.245005	80.00	0.850	-2.940	1.310	79.92	-4.40	1.70	 	 	 	 	 	 	 	 	 	 	 	 	 	 	 	 	 	 	1581512581	1.67	3.09
12/02/2020 13:03:02	120220	12022020	130302	79.79	12.418827	-57.245002	79.85	1.200	-2.650	1.370	79.74	-3.50	1.90	1017.10	26.50	26.50	21.20	21.20	590.0	72.0	72.0	406.0	28.2	353.00	10.20	73.00	9.90	41971	9728.0	27.5	27.5	1581512582	0.87	1.61
12/02/2020 13:03:03	120220	12022020	130303	79.49	12.418827	-57.245003	79.52	0.960	-1.150	1.560	79.42	-1.80	2.00	 	 	 	 	 	 	 	 	 	 	 	 	 	 	 	 	 	 	1581512583	0.36	0.67
12/02/2020 13:03:04	120220	12022020	130304	79.17	12.418825	-57.245008	79.23	0.250	0.630	1.370	79.14	-0.10	1.50	 	 	 	 	 	 	 	 	 	 	 	 	 	 	 	 	 	 	1581512584	1.03	1.91
12/02/2020 13:03:05	120220	12022020	130305	79.11	12.418828	-57.245013	79.19	-0.550	1.940	0.620	79.13	0.80	0.70	 	 	 	 	 	 	 	 	 	 	 	 	 	 	 	 	 	 	1581512585	1.33	2.46
12/02/2020 13:03:06	120220	12022020	130306	79.36	12.418832	-57.245018	79.47	-1.050	2.270	-0.260	79.45	0.70	-0.10	 	 	 	 	 	 	 	 	 	 	 	 	 	 	 	 	 	 	1581512586	1.40	2.59
12/02/2020 13:03:07	120220	12022020	130307	79.85	12.418835	-57.245020	79.96	-1.030	1.410	-0.770	79.94	-0.60	-0.40	 	 	 	 	 	 	 	 	 	 	 	 	 	 	 	 	 	 	1581512587	0.81	1.50
12/02/2020 13:03:08	120220	12022020	130308	80.17	12.418835	-57.245018	80.21	-0.590	-0.300	-0.610	80.17	-2.40	0.10	 	 	 	 	 	 	 	 	 	 	 	 	 	 	 	 	 	 	1581512588	0.68	1.26
12/02/2020 13:03:09	120220	12022020	130309	80.01	12.418832	-57.245012	80.03	0.000	-1.920	0.050	79.95	-3.60	0.80	 	 	 	 	 	 	 	 	 	 	 	 	 	 	 	 	 	 	1581512589	1.55	2.87
12/02/2020 13:03:10	120220	12022020	130310	79.70	12.418828	-57.245005	79.73	0.470	-2.360	0.670	79.65	-3.50	1.30	 	 	 	 	 	 	 	 	 	 	 	 	 	 	 	 	 	 	1581512590	1.39	2.57
12/02/2020 13:03:11	120220	12022020	130311	79.51	12.418827	-57.245005	79.56	0.670	-1.520	1.190	79.48	-2.30	1.90	 	 	 	 	 	 	 	 	 	 	 	 	 	 	 	 	 	 	1581512591	0.50	0.93
12/02/2020 13:03:12	120220	12022020	130312	79.33	12.418825	-57.245010	79.40	0.510	-0.110	1.860	79.30	-0.90	2.60	 	 	 	 	 	 	 	 	 	 	 	 	 	 	 	 	 	 	1581512592	0.96	1.78
12/02/2020 13:03:13	120220	12022020	130313	79.22	12.418822	-57.245015	79.33	0.060	1.010	2.410	79.22	-0.20	2.90	 	 	 	 	 	 	 	 	 	 	 	 	 	 	 	 	 	 	1581512593	1.20	2.22
12/02/2020 13:03:14	120220	12022020	130314	79.26	12.418820	-57.245018	79.38	-0.320	1.150	2.390	79.28	-0.50	2.60	 	 	 	 	 	 	 	 	 	 	 	 	 	 	 	 	 	 	1581512594	0.75	1.39
12/02/2020 13:03:15	120220	12022020	130315	79.35	12.418822	-57.245017	79.45	-0.260	0.360	1.850	79.37	-1.50	2.00	 	 	 	 	 	 	 	 	 	 	 	 	 	 	 	 	 	 	1581512595	0.37	0.69
12/02/2020 13:03:16	120220	12022020	130316	79.43	12.418827	-57.245013	79.54	0.200	-0.710	1.060	79.45	-1.90	1.70	 	 	 	 	 	 	 	 	 	 	 	 	 	 	 	 	 	 	1581512596	1.19	2.20
12/02/2020 13:03:17	120220	12022020	130317	79.56	12.418832	-57.245010	79.65	0.610	-1.200	0.460	79.60	-2.50	0.80	 	 	 	 	 	 	 	 	 	 	 	 	 	 	 	 	 	 	1581512597	1.31	2.43
12/02/2020 13:03:18	120220	12022020	130318	79.70	12.418833	-57.245008	79.83	0.440	-0.690	0.250	79.74	-2.30	0.70	 	 	 	 	 	 	 	 	 	 	 	 	 	 	 	 	 	 	1581512598	0.62	1.15
12/02/2020 13:03:19	120220	12022020	130319	79.98	12.418833	-57.245012	80.06	-0.280	0.310	0.340	80.01	-0.70	0.90	 	 	 	 	 	 	 	 	 	 	 	 	 	 	 	 	 	 	1581512599	0.76	1.41
12/02/2020 13:03:20	120220	12022020	130320	80.07	12.418830	-57.245017	80.14	-0.900	0.860	0.550	80.06	-0.60	1.10	 	 	 	 	 	 	 	 	 	 	 	 	 	 	 	 	 	 	1581512600	1.22	2.26
12/02/2020 13:03:21	120220	12022020	130321	79.92	12.418827	-57.245018	79.95	-0.790	0.380	0.820	79.85	-1.40	1.40	 	 	 	 	 	 	 	 	 	 	 	 	 	 	 	 	 	 	1581512601	0.82	1.52
12/02/2020 13:03:22	120220	12022020	130322	79.54	12.418825	-57.245015	79.55	-0.020	-0.710	1.210	79.44	-2.40	1.80	 	 	 	 	 	 	 	 	 	 	 	 	 	 	 	 	 	 	1581512602	0.93	1.72
12/02/2020 13:03:23	120220	12022020	130323	79.16	12.418823	-57.245010	79.21	0.760	-1.350	1.510	79.11	-2.70	1.90	 	 	 	 	 	 	 	 	 	 	 	 	 	 	 	 	 	 	1581512603	1.23	2.28
12/02/2020 13:03:24	120220	12022020	130324	79.07	12.418825	-57.245007	79.17	0.990	-0.990	1.360	79.10	-2.00	1.60	 	 	 	 	 	 	 	 	 	 	 	 	 	 	 	 	 	 	1581512604	0.56	1.04
12/02/2020 13:03:25	120220	12022020	130325	79.32	12.418828	-57.245010	79.45	0.630	-0.020	0.850	79.40	-1.00	1.10	 	 	 	 	 	 	 	 	 	 	 	 	 	 	 	 	 	 	1581512605	1.08	2.00
12/02/2020 13:03:26	120220	12022020	130326	79.83	12.418833	-57.245015	79.97	-0.020	0.870	0.390	79.94	-0.30	0.80	 	 	 	 	 	 	 	 	 	 	 	 	 	 	 	 	 	 	1581512606	1.49	2.76
12/02/2020 13:03:27	120220	12022020	130327	80.32	12.418835	-57.245020	80.41	-0.620	1.120	0.400	80.38	-0.40	1.00	 	 	 	 	 	 	 	 	 	 	 	 	 	 	 	 	 	 	1581512607	0.96	1.78
12/02/2020 13:03:28	120220	12022020	130328	80.41	12.418832	-57.245020	80.43	-0.810	0.470	0.960	80.37	-1.40	1.70	 	 	 	 	 	 	 	 	 	 	 	 	 	 	 	 	 	 	1581512608	0.73	1.35
12/02/2020 13:03:29	120220	12022020	130329	80.07	12.418827	-57.245017	80.07	-0.460	-0.730	1.630	79.98	-2.50	2.30	 	 	 	 	 	 	 	 	 	 	 	 	 	 	 	 	 	 	1581512609	1.43	2.65
12/02/2020 13:03:30	120220	12022020	130330	79.63	12.418823	-57.245012	79.66	0.140	-1.460	2.060	79.63	-2.70	2.40	 	 	 	 	 	 	 	 	 	 	 	 	 	 	 	 	 	 	1581512610	1.39	2.57
12/02/2020 13:03:31	120220	12022020	130331	79.45	12.418822	-57.245010	79.55	0.500	-1.160	2.210	79.47	-2.20	2.60	 	 	 	 	 	 	 	 	 	 	 	 	 	 	 	 	 	 	1581512611	0.49	0.91
12/02/2020 13:03:32	120220	12022020	130332	79.72	12.418822	-57.245012	79.85	0.430	-0.380	1.980	79.80	-1.50	2.20	 	 	 	 	 	 	 	 	 	 	 	 	 	 	 	 	 	 	1581512612	0.57	1.06
12/02/2020 13:03:33	120220	12022020	130333	80.15	12.418822	-57.245015	80.24	0.230	0.010	1.480	80.20	-1.40	1.70	 	 	 	 	 	 	 	 	 	 	 	 	 	 	 	 	 	 	1581512613	0.78	1.44
12/02/2020 13:03:34	120220	12022020	130334	80.27	12.418823	-57.245017	80.30	0.230	-0.180	1.110	80.25	-1.70	1.40	 	 	 	 	 	 	 	 	 	 	 	 	 	 	 	 	 	 	1581512614	0.29	0.54
12/02/2020 13:03:35	120220	12022020	130335	80.07	12.418825	-57.245013	80.07	0.390	-0.370	0.880	80.02	-1.70	1.20	 	 	 	 	 	 	 	 	 	 	 	 	 	 	 	 	 	 	1581512615	0.70	1.30
12/02/2020 13:03:36	120220	12022020	130336	79.85	12.418827	-57.245012	79.87	0.390	0.060	0.720	79.82	-1.00	1.10	 	 	 	 	 	 	 	 	 	 	 	 	 	 	 	 	 	 	1581512616	0.55	1.02
12/02/2020 13:03:37	120220	12022020	130337	79.81	12.418828	-57.245013	79.87	0.030	0.840	0.660	79.83	-0.30	1.10	 	 	 	 	 	 	 	 	 	 	 	 	 	 	 	 	 	 	1581512617	0.61	1.13
12/02/2020 13:03:38	120220	12022020	130338	80.01	12.418828	-57.245018	80.08	-0.480	1.120	0.590	80.06	-0.40	1.00	 	 	 	 	 	 	 	 	 	 	 	 	 	 	 	 	 	 	1581512618	0.98	1.81
12/02/2020 13:03:39	120220	12022020	130339	80.31	12.418830	-57.245020	80.38	-0.750	0.480	0.460	80.37	-1.30	0.90	 	 	 	 	 	 	 	 	 	 	 	 	 	 	 	 	 	 	1581512619	0.51	0.94
12/02/2020 13:03:40	120220	12022020	130340	80.53	12.418830	-57.245018	80.58	-0.540	-0.670	0.570	80.55	-2.50	1.10	 	 	 	 	 	 	 	 	 	 	 	 	 	 	 	 	 	 	1581512620	0.38	0.70
12/02/2020 13:03:41	120220	12022020	130341	80.55	12.418828	-57.245015	80.58	-0.040	-1.520	1.020	80.54	-3.00	1.70	 	 	 	 	 	 	 	 	 	 	 	 	 	 	 	 	 	 	1581512621	0.86	1.59
12/02/2020 13:03:42	120220	12022020	130342	80.50	12.418825	-57.245012	80.54	0.350	-1.540	1.650	80.49	-3.00	1.90	 	 	 	 	 	 	 	 	 	 	 	 	 	 	 	 	 	 	1581512622	1.01	1.87
12/02/2020 13:03:43	120220	12022020	130343	80.49	12.418820	-57.245012	80.58	0.390	-0.730	2.220	80.50	-1.70	2.80	 	 	 	 	 	 	 	 	 	 	 	 	 	 	 	 	 	 	1581512623	1.13	2.09
12/02/2020 13:03:44	120220	12022020	130344	80.56	12.418815	-57.245015	80.66	0.230	0.140	2.480	80.57	-1.40	2.90	 	 	 	 	 	 	 	 	 	 	 	 	 	 	 	 	 	 	1581512624	1.28	2.37
12/02/2020 13:03:45	120220	12022020	130345	80.51	12.418813	-57.245018	80.58	0.150	0.310	2.340	80.49	-1.20	2.60	 	 	 	 	 	 	 	 	 	 	 	 	 	 	 	 	 	 	1581512625	0.67	1.24
12/02/2020 13:03:46	120220	12022020	130346	80.37	12.418815	-57.245017	80.43	0.280	-0.100	1.770	80.35	-1.60	1.90	 	 	 	 	 	 	 	 	 	 	 	 	 	 	 	 	 	 	1581512626	0.49	0.91
12/02/2020 13:03:47	120220	12022020	130347	80.33	12.418820	-57.245013	80.40	0.430	-0.360	0.980	80.34	-1.70	1.10	 	 	 	 	 	 	 	 	 	 	 	 	 	 	 	 	 	 	1581512627	1.23	2.28
12/02/2020 13:03:48	120220	12022020	130348	80.39	12.418825	-57.245013	80.43	0.270	0.000	0.400	80.39	-1.10	0.70	 	 	 	 	 	 	 	 	 	 	 	 	 	 	 	 	 	 	1581512628	1.15	2.13
12/02/2020 13:03:49	120220	12022020	130349	80.47	12.418828	-57.245015	80.53	-0.230	0.630	0.130	80.50	-0.60	0.50	 	 	 	 	 	 	 	 	 	 	 	 	 	 	 	 	 	 	1581512629	0.88	1.63
12/02/2020 13:03:50	120220	12022020	130350	80.70	12.418828	-57.245020	80.78	-0.660	0.820	-0.100	80.77	-0.70	0.20	 	 	 	 	 	 	 	 	 	 	 	 	 	 	 	 	 	 	1581512630	0.88	1.63
12/02/2020 13:03:51	120220	12022020	130351	81.01	12.418830	-57.245022	81.08	-0.620	0.300	-0.240	81.05	-1.40	0.30	 	 	 	 	 	 	 	 	 	 	 	 	 	 	 	 	 	 	1581512631	0.43	0.80
12/02/2020 13:03:52	120220	12022020	130352	81.09	12.418828	-57.245020	81.11	-0.160	-0.670	0.150	81.06	-2.40	0.90	 	 	 	 	 	 	 	 	 	 	 	 	 	 	 	 	 	 	1581512632	0.36	0.67
12/02/2020 13:03:53	120220	12022020	130353	80.88	12.418825	-57.245017	80.92	0.300	-1.410	1.120	80.83	-2.90	2.00	 	 	 	 	 	 	 	 	 	 	 	 	 	 	 	 	 	 	1581512633	1.06	1.96
12/02/2020 13:03:54	120220	12022020	130354	80.65	12.418820	-57.245013	80.72	0.350	-1.340	2.180	80.61	-2.40	2.90	 	 	 	 	 	 	 	 	 	 	 	 	 	 	 	 	 	 	1581512634	1.28	2.37
12/02/2020 13:03:55	120220	12022020	130355	80.56	12.418815	-57.245013	80.68	0.040	-0.530	2.820	80.57	-1.50	3.30	 	 	 	 	 	 	 	 	 	 	 	 	 	 	 	 	 	 	1581512635	1.15	2.13
12/02/2020 13:03:56	120220	12022020	130356	80.72	12.418812	-57.245017	80.86	-0.170	0.240	2.870	80.72	-1.30	3.30	 	 	 	 	 	 	 	 	 	 	 	 	 	 	 	 	 	 	1581512636	1.07	1.98
12/02/2020 13:03:57	120220	12022020	130357	80.91	12.418810	-57.245020	81.03	0.020	0.330	2.610	80.94	-1.20	2.90	 	 	 	 	 	 	 	 	 	 	 	 	 	 	 	 	 	 	1581512637	0.57	1.06
12/02/2020 13:03:58	120220	12022020	130358	80.94	12.418812	-57.245018	81.02	0.420	-0.120	2.270	80.93	-1.60	2.50	 	 	 	 	 	 	 	 	 	 	 	 	 	 	 	 	 	 	1581512638	0.33	0.61
12/02/2020 13:03:59	120220	12022020	130359	80.85	12.418813	-57.245015	80.90	0.490	-0.300	1.800	80.83	-1.50	2.00	 	 	 	 	 	 	 	 	 	 	 	 	 	 	 	 	 	 	1581512639	0.83	1.54
12/02/2020 13:04:00	120220	12022020	130400	80.81	12.418817	-57.245015	80.85	0.010	0.240	1.090	80.82	-0.80	1.20	 	 	 	 	 	 	 	 	 	 	 	 	 	 	 	 	 	 	1581512640	0.72	1.33
12/02/2020 13:04:01	120220	12022020	130401	80.87	12.418820	-57.245020	80.89	-0.670	0.910	0.290	80.88	-0.40	0.50	 	 	 	 	 	 	 	 	 	 	 	 	 	 	 	 	 	 	1581512641	1.30	2.41
12/02/2020 13:04:02	120220	12022020	130402	80.91	12.418823	-57.245025	80.92	-0.880	0.740	-0.300	80.92	-1.00	0.00	1017.20	26.50	26.60	21.20	21.20	606.0	72.0	72.0	402.0	28.2	354.00	10.40	73.00	9.90	42837	10009.0	27.6	27.5	1581512642	1.36	2.52
12/02/2020 13:04:03	120220	12022020	130403	80.96	12.418827	-57.245025	80.98	-0.330	-0.490	-0.530	80.98	-2.50	-0.10	 	 	 	 	 	 	 	 	 	 	 	 	 	 	 	 	 	 	1581512643	0.68	1.26
12/02/2020 13:04:04	120220	12022020	130404	81.10	12.418828	-57.245022	81.14	0.490	-1.780	-0.470	81.13	-3.30	0.10	 	 	 	 	 	 	 	 	 	 	 	 	 	 	 	 	 	 	1581512644	1.13	2.09
12/02/2020 13:04:05	120220	12022020	130405	81.28	12.418830	-57.245017	81.34	0.840	-1.820	-0.130	81.31	-2.80	0.50	 	 	 	 	 	 	 	 	 	 	 	 	 	 	 	 	 	 	1581512645	0.98	1.81
12/02/2020 13:04:06	120220	12022020	130406	81.38	12.418827	-57.245018	81.43	0.480	-0.550	0.510	81.39	-2.30	0.80	 	 	 	 	 	 	 	 	 	 	 	 	 	 	 	 	 	 	1581512646	0.59	1.09
12/02/2020 13:04:07	120220	12022020	130407	81.26	12.418822	-57.245023	81.27	-0.120	0.690	1.420	81.19	-0.50	2.20	 	 	 	 	 	 	 	 	 	 	 	 	 	 	 	 	 	 	1581512647	1.70	3.15
12/02/2020 13:04:08	120220	12022020	130408	80.96	12.418815	-57.245027	80.99	-0.330	0.750	2.300	80.96	-0.50	2.50	 	 	 	 	 	 	 	 	 	 	 	 	 	 	 	 	 	 	1581512648	1.58	2.93
12/02/2020 13:04:09	120220	12022020	130409	80.87	12.418810	-57.245023	80.95	-0.150	0.060	2.720	80.88	-1.50	3.20	 	 	 	 	 	 	 	 	 	 	 	 	 	 	 	 	 	 	1581512649	1.17	2.17
12/02/2020 13:04:10	120220	12022020	130410	80.99	12.418808	-57.245020	81.09	-0.030	-0.270	2.660	81.02	-1.50	2.90	 	 	 	 	 	 	 	 	 	 	 	 	 	 	 	 	 	 	1581512650	0.92	1.70
12/02/2020 13:04:11	120220	12022020	130411	81.12	12.418810	-57.245020	81.20	-0.270	0.160	2.140	81.14	-0.90	2.30	 	 	 	 	 	 	 	 	 	 	 	 	 	 	 	 	 	 	1581512651	0.21	0.39
12/02/2020 13:04:12	120220	12022020	130412	81.21	12.418813	-57.245025	81.25	-0.670	0.760	1.330	81.22	-0.60	1.40	 	 	 	 	 	 	 	 	 	 	 	 	 	 	 	 	 	 	1581512652	1.29	2.39
12/02/2020 13:04:13	120220	12022020	130413	81.32	12.418817	-57.245032	81.35	-0.760	0.610	0.470	81.35	-1.10	0.60	 	 	 	 	 	 	 	 	 	 	 	 	 	 	 	 	 	 	1581512653	1.63	3.02
12/02/2020 13:04:14	120220	12022020	130414	81.56	12.418822	-57.245033	81.60	-0.320	-0.490	-0.320	81.61	-2.40	-0.10	 	 	 	 	 	 	 	 	 	 	 	 	 	 	 	 	 	 	1581512654	1.17	2.17
12/02/2020 13:04:15	120220	12022020	130415	81.77	12.418827	-57.245030	81.78	0.450	-1.820	-0.710	81.77	-3.50	-0.20	 	 	 	 	 	 	 	 	 	 	 	 	 	 	 	 	 	 	1581512655	1.05	1.94
12/02/2020 13:04:16	120220	12022020	130416	81.60	12.418827	-57.245025	81.55	1.070	-2.230	-0.340	81.50	-3.40	0.40	 	 	 	 	 	 	 	 	 	 	 	 	 	 	 	 	 	 	1581512656	1.06	1.96
12/02/2020 13:04:17	120220	12022020	130417	81.03	12.418823	-57.245023	80.97	1.120	-1.290	0.540	80.90	-2.10	1.30	 	 	 	 	 	 	 	 	 	 	 	 	 	 	 	 	 	 	1581512657	0.78	1.44
12/02/2020 13:04:18	120220	12022020	130418	80.52	12.418820	-57.245027	80.52	0.540	0.250	1.270	80.48	-0.60	1.80	 	 	 	 	 	 	 	 	 	 	 	 	 	 	 	 	 	 	1581512658	1.10	2.04
12/02/2020 13:04:19	120220	12022020	130419	80.57	12.418817	-57.245033	80.67	-0.270	1.410	1.430	80.66	0.30	1.80	 	 	 	 	 	 	 	 	 	 	 	 	 	 	 	 	 	 	1581512659	1.25	2.31
12/02/2020 13:04:20	120220	12022020	130420	81.06	12.418817	-57.245037	81.16	-0.860	1.720	1.280	81.06	0.40	1.70	 	 	 	 	 	 	 	 	 	 	 	 	 	 	 	 	 	 	1581512660	0.91	1.69
12/02/2020 13:04:21	120220	12022020	130421	81.43	12.418817	-57.245038	81.50	-0.940	1.130	1.300	81.48	-0.70	1.80	 	 	 	 	 	 	 	 	 	 	 	 	 	 	 	 	 	 	1581512661	0.32	0.59
12/02/2020 13:04:22	120220	12022020	130422	81.64	12.418817	-57.245037	81.70	-0.600	-0.020	1.420	81.67	-1.90	1.90	 	 	 	 	 	 	 	 	 	 	 	 	 	 	 	 	 	 	1581512662	0.36	0.67
12/02/2020 13:04:23	120220	12022020	130423	81.76	12.418817	-57.245033	81.80	-0.120	-1.060	1.530	81.77	-2.70	2.00	 	 	 	 	 	 	 	 	 	 	 	 	 	 	 	 	 	 	1581512663	0.68	1.26
12/02/2020 13:04:24	120220	12022020	130424	81.74	12.418815	-57.245032	81.77	0.230	-1.450	1.750	81.72	-2.70	2.30	 	 	 	 	 	 	 	 	 	 	 	 	 	 	 	 	 	 	1581512664	0.52	0.96
12/02/2020 13:04:25	120220	12022020	130425	81.52	12.418812	-57.245033	81.53	0.380	-1.120	2.090	81.45	-2.20	2.70	 	 	 	 	 	 	 	 	 	 	 	 	 	 	 	 	 	 	1581512665	0.47	0.87
12/02/2020 13:04:26	120220	12022020	130426	81.15	12.418810	-57.245035	81.15	0.380	-0.510	2.360	81.07	-1.70	2.80	 	 	 	 	 	 	 	 	 	 	 	 	 	 	 	 	 	 	1581512666	0.70	1.30
12/02/2020 13:04:27	120220	12022020	130427	80.84	12.418810	-57.245038	80.88	0.330	-0.060	2.220	80.82	-1.30	2.40	 	 	 	 	 	 	 	 	 	 	 	 	 	 	 	 	 	 	1581512667	0.58	1.07
12/02/2020 13:04:28	120220	12022020	130428	80.87	12.418813	-57.245040	80.94	0.260	0.080	1.560	80.91	-1.30	1.60	 	 	 	 	 	 	 	 	 	 	 	 	 	 	 	 	 	 	1581512668	0.56	1.04
12/02/2020 13:04:29	120220	12022020	130429	81.19	12.418817	-57.245040	81.26	0.200	-0.090	0.660	81.28	-1.60	0.80	 	 	 	 	 	 	 	 	 	 	 	 	 	 	 	 	 	 	1581512669	0.89	1.65
12/02/2020 13:04:30	120220	12022020	130430	81.56	12.418822	-57.245038	81.58	0.140	-0.390	-0.070	81.61	-1.80	0.20	 	 	 	 	 	 	 	 	 	 	 	 	 	 	 	 	 	 	1581512670	1.07	1.98
12/02/2020 13:04:31	120220	12022020	130431	81.66	12.418825	-57.245037	81.64	0.020	-0.350	-0.210	81.63	-1.50	0.40	 	 	 	 	 	 	 	 	 	 	 	 	 	 	 	 	 	 	1581512671	0.72	1.33
12/02/2020 13:04:32	120220	12022020	130432	81.45	12.418823	-57.245037	81.42	-0.230	0.230	0.270	81.45	-1.30	0.60	 	 	 	 	 	 	 	 	 	 	 	 	 	 	 	 	 	 	1581512672	0.29	0.54
12/02/2020 13:04:33	120220	12022020	130433	81.13	12.418818	-57.245040	81.11	-0.490	0.900	0.880	81.06	-0.40	1.50	 	 	 	 	 	 	 	 	 	 	 	 	 	 	 	 	 	 	1581512673	1.07	1.98
12/02/2020 13:04:34	120220	12022020	130434	80.87	12.418815	-57.245043	80.89	-0.580	1.030	1.320	80.87	-0.30	1.70	 	 	 	 	 	 	 	 	 	 	 	 	 	 	 	 	 	 	1581512674	1.02	1.89
12/02/2020 13:04:35	120220	12022020	130435	80.85	12.418815	-57.245045	80.90	-0.460	0.400	1.510	80.87	-1.40	2.00	 	 	 	 	 	 	 	 	 	 	 	 	 	 	 	 	 	 	1581512675	0.36	0.67
12/02/2020 13:04:36	120220	12022020	130436	81.01	12.418817	-57.245043	81.07	-0.130	-0.680	1.570	81.05	-2.50	2.00	 	 	 	 	 	 	 	 	 	 	 	 	 	 	 	 	 	 	1581512676	0.33	0.61
12/02/2020 13:04:37	120220	12022020	130437	81.18	12.418817	-57.245040	81.21	0.340	-1.690	1.550	81.19	-3.40	2.00	 	 	 	 	 	 	 	 	 	 	 	 	 	 	 	 	 	 	1581512677	0.69	1.28
12/02/2020 13:04:38	120220	12022020	130438	81.16	12.418818	-57.245037	81.17	0.860	-2.240	1.660	81.12	-3.60	2.20	 	 	 	 	 	 	 	 	 	 	 	 	 	 	 	 	 	 	1581512678	0.79	1.46
12/02/2020 13:04:39	120220	12022020	130439	80.92	12.418817	-57.245033	80.94	1.150	-1.870	2.090	80.87	-2.80	2.70	 	 	 	 	 	 	 	 	 	 	 	 	 	 	 	 	 	 	1581512679	0.72	1.33
12/02/2020 13:04:40	120220	12022020	130440	80.67	12.418813	-57.245033	80.72	0.920	-0.470	2.520	80.64	-1.10	3.00	 	 	 	 	 	 	 	 	 	 	 	 	 	 	 	 	 	 	1581512680	0.57	1.06
12/02/2020 13:04:41	120220	12022020	130441	80.59	12.418812	-57.245037	80.66	0.180	1.330	2.410	80.60	0.50	2.60	 	 	 	 	 	 	 	 	 	 	 	 	 	 	 	 	 	 	1581512681	0.98	1.81
12/02/2020 13:04:42	120220	12022020	130442	80.71	12.418812	-57.245043	80.79	-0.780	2.500	1.550	80.77	1.20	1.50	 	 	 	 	 	 	 	 	 	 	 	 	 	 	 	 	 	 	1581512682	1.31	2.43
12/02/2020 13:04:43	120220	12022020	130443	81.02	12.418815	-57.245048	81.10	-1.540	2.430	0.370	81.10	0.70	0.40	 	 	 	 	 	 	 	 	 	 	 	 	 	 	 	 	 	 	1581512683	1.38	2.56
12/02/2020 13:04:44	120220	12022020	130444	81.35	12.418820	-57.245050	81.40	-1.730	1.170	-0.480	81.39	-1.00	-0.20	 	 	 	 	 	 	 	 	 	 	 	 	 	 	 	 	 	 	1581512684	1.10	2.04
12/02/2020 13:04:45	120220	12022020	130445	81.41	12.418823	-57.245047	81.41	-1.130	-0.870	-0.670	81.39	-3.10	-0.20	 	 	 	 	 	 	 	 	 	 	 	 	 	 	 	 	 	 	1581512685	0.73	1.35
12/02/2020 13:04:46	120220	12022020	130446	81.21	12.418823	-57.245042	81.19	0.090	-2.780	-0.480	81.16	-4.60	0.10	 	 	 	 	 	 	 	 	 	 	 	 	 	 	 	 	 	 	1581512686	1.25	2.31
12/02/2020 13:04:47	120220	12022020	130447	80.98	12.418823	-57.245035	80.99	1.250	-3.440	-0.150	80.95	-4.50	0.50	 	 	 	 	 	 	 	 	 	 	 	 	 	 	 	 	 	 	1581512687	1.27	2.35
12/02/2020 13:04:48	120220	12022020	130448	80.90	12.418823	-57.245033	80.94	1.680	-2.420	0.440	80.90	-3.00	1.20	 	 	 	 	 	 	 	 	 	 	 	 	 	 	 	 	 	 	1581512688	0.41	0.76
12/02/2020 13:04:49	120220	12022020	130449	80.92	12.418820	-57.245037	80.99	1.300	-0.520	1.350	80.92	-1.10	2.20	 	 	 	 	 	 	 	 	 	 	 	 	 	 	 	 	 	 	1581512689	0.92	1.70
12/02/2020 13:04:50	120220	12022020	130450	80.97	12.418815	-57.245040	81.07	0.540	1.180	2.160	81.00	0.30	2.70	 	 	 	 	 	 	 	 	 	 	 	 	 	 	 	 	 	 	1581512690	1.43	2.65
12/02/2020 13:04:51	120220	12022020	130451	81.27	12.418812	-57.245043	81.41	-0.230	2.190	2.340	81.36	1.00	2.70	 	 	 	 	 	 	 	 	 	 	 	 	 	 	 	 	 	 	1581512691	0.97	1.80
12/02/2020 13:04:52	120220	12022020	130452	81.72	12.418810	-57.245045	81.83	-0.840	2.460	2.090	81.79	0.90	2.40	 	 	 	 	 	 	 	 	 	 	 	 	 	 	 	 	 	 	1581512692	0.45	0.83
12/02/2020 13:04:53	120220	12022020	130453	81.90	12.418810	-57.245047	81.95	-1.180	1.800	1.860	81.90	-0.20	2.20	 	 	 	 	 	 	 	 	 	 	 	 	 	 	 	 	 	 	1581512693	0.27	0.50
12/02/2020 13:04:54	120220	12022020	130454	81.79	12.418810	-57.245045	81.82	-1.120	0.170	1.730	81.76	-2.00	2.10	 	 	 	 	 	 	 	 	 	 	 	 	 	 	 	 	 	 	1581512694	0.25	0.46
12/02/2020 13:04:55	120220	12022020	130455	81.67	12.418812	-57.245040	81.72	-0.680	-1.690	1.580	81.66	-3.60	2.00	 	 	 	 	 	 	 	 	 	 	 	 	 	 	 	 	 	 	1581512695	0.99	1.83
12/02/2020 13:04:56	120220	12022020	130456	81.66	12.418812	-57.245035	81.72	-0.030	-2.700	1.470	81.66	-3.90	1.90	 	 	 	 	 	 	 	 	 	 	 	 	 	 	 	 	 	 	1581512696	1.11	2.06
12/02/2020 13:04:57	120220	12022020	130457	81.67	12.418812	-57.245033	81.73	0.610	-2.510	1.380	81.67	-3.60	1.70	 	 	 	 	 	 	 	 	 	 	 	 	 	 	 	 	 	 	1581512697	0.38	0.70
12/02/2020 13:04:58	120220	12022020	130458	81.65	12.418812	-57.245035	81.70	1.030	-1.670	1.170	81.65	-3.30	1.70	 	 	 	 	 	 	 	 	 	 	 	 	 	 	 	 	 	 	1581512698	0.29	0.54
12/02/2020 13:04:59	120220	12022020	130459	81.65	12.418812	-57.245037	81.69	0.990	-0.490	0.900	81.65	-1.30	1.20	 	 	 	 	 	 	 	 	 	 	 	 	 	 	 	 	 	 	1581512699	0.28	0.52
12/02/2020 13:05:00	120220	12022020	130500	81.69	12.418813	-57.245038	81.73	0.490	0.880	0.670	81.70	-0.00	1.00	 	 	 	 	 	 	 	 	 	 	 	 	 	 	 	 	 	 	1581512700	0.53	0.98
12/02/2020 13:05:01	120220	12022020	130501	81.75	12.418813	-57.245042	81.77	-0.120	1.900	0.450	81.76	0.70	0.80	 	 	 	 	 	 	 	 	 	 	 	 	 	 	 	 	 	 	1581512701	0.73	1.35
12/02/2020 13:05:02	120220	12022020	130502	81.77	12.418815	-57.245043	81.76	-0.490	1.910	0.200	81.77	0.20	0.50	1017.10	26.40	26.50	20.60	20.70	634.0	70.0	70.0	400.0	28.3	350.00	12.00	71.00	11.60	44239	9744.0	27.6	27.5	1581512702	0.59	1.09
12/02/2020 13:05:03	120220	12022020	130503	81.72	12.418818	-57.245042	81.71	-0.480	0.800	0.020	81.71	-1.20	0.50	 	 	 	 	 	 	 	 	 	 	 	 	 	 	 	 	 	 	1581512703	0.59	1.09
12/02/2020 13:05:04	120220	12022020	130504	81.67	12.418820	-57.245037	81.68	-0.230	-0.670	0.160	81.67	-2.50	0.70	 	 	 	 	 	 	 	 	 	 	 	 	 	 	 	 	 	 	1581512704	1.19	2.20
12/02/2020 13:05:05	120220	12022020	130505	81.76	12.418820	-57.245032	81.81	-0.070	-1.320	0.580	81.80	-2.60	1.20	 	 	 	 	 	 	 	 	 	 	 	 	 	 	 	 	 	 	1581512705	1.11	2.06
12/02/2020 13:05:06	120220	12022020	130506	81.99	12.418817	-57.245032	82.06	-0.200	-0.850	1.080	82.04	-1.90	1.70	 	 	 	 	 	 	 	 	 	 	 	 	 	 	 	 	 	 	1581512706	0.67	1.24
12/02/2020 13:05:07	120220	12022020	130507	82.13	12.418812	-57.245037	82.19	-0.410	-0.130	1.550	82.13	-1.40	2.10	 	 	 	 	 	 	 	 	 	 	 	 	 	 	 	 	 	 	1581512707	1.41	2.61
12/02/2020 13:05:08	120220	12022020	130508	82.07	12.418808	-57.245040	82.09	-0.320	-0.180	1.920	82.04	-1.80	2.50	 	 	 	 	 	 	 	 	 	 	 	 	 	 	 	 	 	 	1581512708	1.22	2.26
12/02/2020 13:05:09	120220	12022020	130509	81.82	12.418805	-57.245038	81.83	0.240	-1.080	2.290	81.74	-2.90	2.90	 	 	 	 	 	 	 	 	 	 	 	 	 	 	 	 	 	 	1581512709	0.69	1.28
12/02/2020 13:05:10	120220	12022020	130510	81.40	12.418803	-57.245032	81.41	1.010	-1.890	2.680	81.40	-3.10	3.00	 	 	 	 	 	 	 	 	 	 	 	 	 	 	 	 	 	 	1581512710	1.47	2.72
12/02/2020 13:05:11	120220	12022020	130511	81.13	12.418805	-57.245025	81.20	1.360	-1.500	2.720	81.12	-2.20	3.00	 	 	 	 	 	 	 	 	 	 	 	 	 	 	 	 	 	 	1581512711	1.39	2.57
12/02/2020 13:05:12	120220	12022020	130512	81.27	12.418805	-57.245023	81.37	0.820	0.290	2.130	81.27	-1.60	2.80	 	 	 	 	 	 	 	 	 	 	 	 	 	 	 	 	 	 	1581512712	0.29	0.54
12/02/2020 13:05:13	120220	12022020	130513	81.72	12.418808	-57.245032	81.82	-0.310	2.280	1.140	81.82	1.40	1.20	 	 	 	 	 	 	 	 	 	 	 	 	 	 	 	 	 	 	1581512713	1.68	3.11
12/02/2020 13:05:14	120220	12022020	130514	82.19	12.418812	-57.245040	82.26	-1.300	3.030	0.360	82.27	1.40	0.60	 	 	 	 	 	 	 	 	 	 	 	 	 	 	 	 	 	 	1581512714	2.05	3.80
12/02/2020 13:05:15	120220	12022020	130515	82.41	12.418813	-57.245045	82.41	-1.530	1.890	0.020	82.41	-0.40	0.40	 	 	 	 	 	 	 	 	 	 	 	 	 	 	 	 	 	 	1581512715	0.89	1.65
12/02/2020 13:05:16	120220	12022020	130516	82.29	12.418813	-57.245042	82.25	-0.930	-0.450	-0.030	82.24	-2.80	0.40	 	 	 	 	 	 	 	 	 	 	 	 	 	 	 	 	 	 	1581512716	0.77	1.43
12/02/2020 13:05:17	120220	12022020	130517	82.06	12.418813	-57.245033	82.05	0.060	-2.490	0.080	82.04	-4.30	0.60	 	 	 	 	 	 	 	 	 	 	 	 	 	 	 	 	 	 	1581512717	1.57	2.91
12/02/2020 13:05:18	120220	12022020	130518	82.01	12.418813	-57.245028	82.02	0.880	-3.150	0.370	82.01	-4.40	1.00	 	 	 	 	 	 	 	 	 	 	 	 	 	 	 	 	 	 	1581512718	1.13	2.09
12/02/2020 13:05:19	120220	12022020	130519	82.00	12.418813	-57.245028	82.02	1.210	-2.500	0.930	81.99	-3.40	1.60	 	 	 	 	 	 	 	 	 	 	 	 	 	 	 	 	 	 	1581512719	0.20	0.37
12/02/2020 13:05:20	120220	12022020	130520	81.95	12.418810	-57.245030	81.97	1.030	-1.210	1.620	81.93	-2.00	2.30	 	 	 	 	 	 	 	 	 	 	 	 	 	 	 	 	 	 	1581512720	0.65	1.20
12/02/2020 13:05:21	120220	12022020	130521	81.89	12.418807	-57.245032	81.94	0.510	0.340	2.160	81.88	-0.40	2.70	 	 	 	 	 	 	 	 	 	 	 	 	 	 	 	 	 	 	1581512721	0.92	1.70
12/02/2020 13:05:22	120220	12022020	130522	81.88	12.418803	-57.245035	81.95	-0.140	1.730	2.400	81.88	0.10	2.80	 	 	 	 	 	 	 	 	 	 	 	 	 	 	 	 	 	 	1581512722	0.94	1.74
12/02/2020 13:05:23	120220	12022020	130523	82.08	12.418802	-57.245038	82.17	-0.740	2.380	2.160	82.15	0.90	2.40	 	 	 	 	 	 	 	 	 	 	 	 	 	 	 	 	 	 	1581512723	0.75	1.39
12/02/2020 13:05:24	120220	12022020	130524	82.46	12.418802	-57.245040	82.55	-1.080	2.000	1.610	82.46	0.80	2.20	 	 	 	 	 	 	 	 	 	 	 	 	 	 	 	 	 	 	1581512724	0.39	0.72
12/02/2020 13:05:25	120220	12022020	130525	82.81	12.418803	-57.245040	82.86	-0.990	0.760	1.090	82.85	-1.30	1.40	 	 	 	 	 	 	 	 	 	 	 	 	 	 	 	 	 	 	1581512725	0.31	0.57
12/02/2020 13:05:26	120220	12022020	130526	82.88	12.418805	-57.245037	82.87	-0.440	-1.000	0.870	82.84	-3.10	1.30	 	 	 	 	 	 	 	 	 	 	 	 	 	 	 	 	 	 	1581512726	0.64	1.19
12/02/2020 13:05:27	120220	12022020	130527	82.55	12.418805	-57.245032	82.50	0.310	-2.650	1.010	82.45	-4.40	1.60	 	 	 	 	 	 	 	 	 	 	 	 	 	 	 	 	 	 	1581512727	1.15	2.13
12/02/2020 13:05:28	120220	12022020	130528	82.02	12.418805	-57.245025	81.98	0.830	-3.070	1.410	81.93	-4.10	2.00	 	 	 	 	 	 	 	 	 	 	 	 	 	 	 	 	 	 	1581512728	1.26	2.33
12/02/2020 13:05:29	120220	12022020	130529	81.62	12.418803	-57.245023	81.63	0.910	-1.800	1.670	81.59	-2.40	2.10	 	 	 	 	 	 	 	 	 	 	 	 	 	 	 	 	 	 	1581512729	0.44	0.81
12/02/2020 13:05:30	120220	12022020	130530	81.62	12.418802	-57.245030	81.70	0.650	0.170	1.520	81.68	-0.50	1.80	 	 	 	 	 	 	 	 	 	 	 	 	 	 	 	 	 	 	1581512730	1.09	2.02
12/02/2020 13:05:31	120220	12022020	130531	81.99	12.418803	-57.245035	82.07	0.300	1.480	1.090	82.07	0.30	1.40	 	 	 	 	 	 	 	 	 	 	 	 	 	 	 	 	 	 	1581512731	1.43	2.65
12/02/2020 13:05:32	120220	12022020	130532	82.28	12.418807	-57.245038	82.30	-0.000	1.600	0.750	82.29	0.00	1.10	 	 	 	 	 	 	 	 	 	 	 	 	 	 	 	 	 	 	1581512732	0.76	1.41
12/02/2020 13:05:33	120220	12022020	130533	82.23	12.418808	-57.245037	82.20	-0.290	1.040	0.730	82.17	-0.60	1.20	 	 	 	 	 	 	 	 	 	 	 	 	 	 	 	 	 	 	1581512733	0.52	0.96
12/02/2020 13:05:34	120220	12022020	130534	81.96	12.418807	-57.245033	81.94	-0.570	0.370	0.910	81.91	-1.30	1.40	 	 	 	 	 	 	 	 	 	 	 	 	 	 	 	 	 	 	1581512734	0.64	1.19
12/02/2020 13:05:35	120220	12022020	130535	81.77	12.418805	-57.245032	81.78	-0.640	-0.370	1.110	81.75	-2.10	1.60	 	 	 	 	 	 	 	 	 	 	 	 	 	 	 	 	 	 	1581512735	0.54	1.00
12/02/2020 13:05:36	120220	12022020	130536	81.72	12.418803	-57.245030	81.75	-0.360	-1.180	1.410	81.71	-2.80	2.00	 	 	 	 	 	 	 	 	 	 	 	 	 	 	 	 	 	 	1581512736	0.56	1.04
12/02/2020 13:05:37	120220	12022020	130537	81.72	12.418802	-57.245027	81.78	0.110	-1.660	1.680	81.73	-3.00	2.10	 	 	 	 	 	 	 	 	 	 	 	 	 	 	 	 	 	 	1581512737	0.81	1.50
12/02/2020 13:05:38	120220	12022020	130538	81.80	12.418800	-57.245023	81.86	0.460	-1.360	1.650	81.82	-2.40	2.00	 	 	 	 	 	 	 	 	 	 	 	 	 	 	 	 	 	 	1581512738	0.57	1.06
12/02/2020 13:05:39	120220	12022020	130539	81.87	12.418800	-57.245025	81.92	0.500	-0.440	1.410	81.87	-1.40	1.80	 	 	 	 	 	 	 	 	 	 	 	 	 	 	 	 	 	 	1581512739	0.21	0.39
12/02/2020 13:05:40	120220	12022020	130540	81.73	12.418800	-57.245028	81.72	0.310	0.530	1.380	81.67	-0.60	1.90	 	 	 	 	 	 	 	 	 	 	 	 	 	 	 	 	 	 	1581512740	0.67	1.24
12/02/2020 13:05:41	120220	12022020	130541	81.33	12.418800	-57.245030	81.30	0.090	0.860	1.600	81.24	-0.60	2.10	 	 	 	 	 	 	 	 	 	 	 	 	 	 	 	 	 	 	1581512741	0.49	0.91
12/02/2020 13:05:42	120220	12022020	130542	80.95	12.418800	-57.245030	80.95	-0.010	0.400	1.640	80.91	-1.30	2.00	 	 	 	 	 	 	 	 	 	 	 	 	 	 	 	 	 	 	1581512742	0.23	0.43
12/02/2020 13:05:43	120220	12022020	130543	80.87	12.418802	-57.245025	80.91	-0.000	-0.280	1.290	80.90	-1.80	1.50	 	 	 	 	 	 	 	 	 	 	 	 	 	 	 	 	 	 	1581512743	0.95	1.76
12/02/2020 13:05:44	120220	12022020	130544	81.14	12.418807	-57.245023	81.21	-0.080	-0.430	0.760	81.23	-1.70	1.00	 	 	 	 	 	 	 	 	 	 	 	 	 	 	 	 	 	 	1581512744	1.11	2.06
12/02/2020 13:05:45	120220	12022020	130545	81.63	12.418810	-57.245023	81.71	-0.260	-0.180	0.350	81.73	-1.50	0.70	 	 	 	 	 	 	 	 	 	 	 	 	 	 	 	 	 	 	1581512745	0.78	1.44
12/02/2020 13:05:46	120220	12022020	130546	82.06	12.418810	-57.245025	82.12	-0.340	-0.060	0.430	82.06	-1.50	0.80	 	 	 	 	 	 	 	 	 	 	 	 	 	 	 	 	 	 	1581512746	0.46	0.85
12/02/2020 13:05:47	120220	12022020	130547	82.15	12.418807	-57.245025	82.16	-0.190	-0.260	1.170	82.11	-1.80	2.00	 	 	 	 	 	 	 	 	 	 	 	 	 	 	 	 	 	 	1581512747	0.69	1.28
12/02/2020 13:05:48	120220	12022020	130548	81.87	12.418802	-57.245023	81.88	0.050	-0.460	2.200	81.87	-1.80	2.40	 	 	 	 	 	 	 	 	 	 	 	 	 	 	 	 	 	 	1581512748	1.42	2.63
12/02/2020 13:05:49	120220	12022020	130549	81.49	12.418795	-57.245020	81.53	0.170	-0.460	2.920	81.43	-1.80	3.50	 	 	 	 	 	 	 	 	 	 	 	 	 	 	 	 	 	 	1581512749	1.47	2.72
12/02/2020 13:05:50	120220	12022020	130550	81.22	12.418792	-57.245020	81.28	0.150	-0.400	3.030	81.18	-1.80	3.40	 	 	 	 	 	 	 	 	 	 	 	 	 	 	 	 	 	 	1581512750	0.79	1.46
12/02/2020 13:05:51	120220	12022020	130551	81.00	12.418792	-57.245018	81.05	0.160	-0.430	2.700	80.96	-1.90	2.90	 	 	 	 	 	 	 	 	 	 	 	 	 	 	 	 	 	 	1581512751	0.25	0.46
12/02/2020 13:05:52	120220	12022020	130552	80.89	12.418797	-57.245018	80.98	0.300	-0.500	2.030	80.91	-1.90	2.10	 	 	 	 	 	 	 	 	 	 	 	 	 	 	 	 	 	 	1581512752	0.97	1.80
12/02/2020 13:05:53	120220	12022020	130553	81.10	12.418803	-57.245017	81.21	0.420	-0.380	1.040	81.18	-1.60	1.00	 	 	 	 	 	 	 	 	 	 	 	 	 	 	 	 	 	 	1581512753	1.44	2.67
12/02/2020 13:05:54	120220	12022020	130554	81.62	12.418810	-57.245017	81.74	0.270	0.050	-0.100	81.74	-1.10	-0.10	 	 	 	 	 	 	 	 	 	 	 	 	 	 	 	 	 	 	1581512754	1.55	2.87
12/02/2020 13:05:55	120220	12022020	130555	82.18	12.418817	-57.245018	82.23	-0.210	0.690	-0.930	82.26	-0.50	-0.60	 	 	 	 	 	 	 	 	 	 	 	 	 	 	 	 	 	 	1581512755	1.25	2.31
12/02/2020 13:05:56	120220	12022020	130556	82.38	12.418818	-57.245022	82.37	-0.740	1.080	-0.920	82.35	-0.40	-0.20	 	 	 	 	 	 	 	 	 	 	 	 	 	 	 	 	 	 	1581512756	0.73	1.35
12/02/2020 13:05:57	120220	12022020	130557	82.05	12.418815	-57.245023	82.00	-0.940	0.730	0.030	81.94	-1.00	1.00	 	 	 	 	 	 	 	 	 	 	 	 	 	 	 	 	 	 	1581512757	0.79	1.46
12/02/2020 13:05:58	120220	12022020	130558	81.53	12.418808	-57.245020	81.53	-0.670	-0.330	1.190	81.45	-2.20	2.00	 	 	 	 	 	 	 	 	 	 	 	 	 	 	 	 	 	 	1581512758	1.41	2.61
12/02/2020 13:05:59	120220	12022020	130559	81.33	12.418803	-57.245015	81.41	-0.060	-1.500	1.850	81.33	-3.20	2.40	 	 	 	 	 	 	 	 	 	 	 	 	 	 	 	 	 	 	1581512759	1.41	2.61
12/02/2020 13:06:00	120220	12022020	130600	81.39	12.418803	-57.245010	81.49	0.540	-2.020	2.140	81.41	-3.30	2.70	 	 	 	 	 	 	 	 	 	 	 	 	 	 	 	 	 	 	1581512760	1.06	1.96
12/02/2020 13:06:01	120220	12022020	130601	81.40	12.418803	-57.245008	81.48	0.840	-1.610	2.290	81.39	-2.60	2.70	 	 	 	 	 	 	 	 	 	 	 	 	 	 	 	 	 	 	1581512761	0.50	0.93
12/02/2020 13:06:02	120220	12022020	130602	81.35	12.418803	-57.245008	81.45	0.750	-0.580	2.270	81.35	-2.20	2.70	1017.10	26.50	26.60	20.10	20.20	635.0	68.0	68.0	398.0	28.3	351.00	12.30	73.00	11.80	44459	10130.0	27.6	27.5	1581512762	0.10	0.19
12/02/2020 13:06:03	120220	12022020	130603	81.41	12.418802	-57.245010	81.52	0.350	0.560	2.150	81.43	-0.40	2.50	 	 	 	 	 	 	 	 	 	 	 	 	 	 	 	 	 	 	1581512763	0.40	0.74
12/02/2020 13:06:04	120220	12022020	130604	81.48	12.418802	-57.245013	81.56	-0.230	1.410	1.920	81.49	0.20	2.20	 	 	 	 	 	 	 	 	 	 	 	 	 	 	 	 	 	 	1581512764	0.47	0.87
12/02/2020 13:06:05	120220	12022020	130605	81.50	12.418803	-57.245015	81.56	-0.770	1.670	1.340	81.51	0.10	1.40	 	 	 	 	 	 	 	 	 	 	 	 	 	 	 	 	 	 	1581512765	0.53	0.98
12/02/2020 13:06:06	120220	12022020	130606	81.55	12.418807	-57.245017	81.59	-1.010	1.180	0.360	81.56	-0.60	0.40	 	 	 	 	 	 	 	 	 	 	 	 	 	 	 	 	 	 	1581512766	0.91	1.69
12/02/2020 13:06:07	120220	12022020	130607	81.59	12.418813	-57.245017	81.59	-0.810	0.010	-0.580	81.59	-2.00	-0.40	 	 	 	 	 	 	 	 	 	 	 	 	 	 	 	 	 	 	1581512767	1.35	2.50
12/02/2020 13:06:08	120220	12022020	130608	81.51	12.418818	-57.245013	81.49	-0.200	-1.350	-0.980	81.48	-3.20	-0.50	 	 	 	 	 	 	 	 	 	 	 	 	 	 	 	 	 	 	1581512768	1.29	2.39
12/02/2020 13:06:09	120220	12022020	130609	81.38	12.418820	-57.245010	81.37	0.520	-2.110	-0.820	81.36	-3.50	-0.20	 	 	 	 	 	 	 	 	 	 	 	 	 	 	 	 	 	 	1581512769	0.94	1.74
12/02/2020 13:06:10	120220	12022020	130610	81.34	12.418820	-57.245008	81.36	0.940	-1.880	-0.340	81.34	-2.90	0.40	 	 	 	 	 	 	 	 	 	 	 	 	 	 	 	 	 	 	1581512770	0.42	0.78
12/02/2020 13:06:11	120220	12022020	130611	81.30	12.418818	-57.245008	81.31	0.800	-0.940	0.430	81.27	-1.90	1.20	 	 	 	 	 	 	 	 	 	 	 	 	 	 	 	 	 	 	1581512771	0.56	1.04
12/02/2020 13:06:12	120220	12022020	130612	81.11	12.418813	-57.245012	81.04	0.290	-0.010	1.340	81.04	-1.60	1.50	 	 	 	 	 	 	 	 	 	 	 	 	 	 	 	 	 	 	1581512772	1.04	1.93
12/02/2020 13:06:13	120220	12022020	130613	80.67	12.418808	-57.245012	80.69	-0.140	0.470	2.150	80.60	-0.80	2.80	 	 	 	 	 	 	 	 	 	 	 	 	 	 	 	 	 	 	1581512773	1.06	1.96
12/02/2020 13:06:14	120220	12022020	130614	80.45	12.418805	-57.245010	80.52	-0.370	0.760	2.620	80.45	-0.70	3.00	 	 	 	 	 	 	 	 	 	 	 	 	 	 	 	 	 	 	1581512774	0.90	1.67
12/02/2020 13:06:15	120220	12022020	130615	80.63	12.418803	-57.245008	80.76	-0.610	1.150	2.620	80.71	-0.10	2.90	 	 	 	 	 	 	 	 	 	 	 	 	 	 	 	 	 	 	1581512775	0.41	0.76
12/02/2020 13:06:16	120220	12022020	130616	81.17	12.418803	-57.245010	81.32	-0.900	1.330	2.130	81.29	-0.20	2.30	 	 	 	 	 	 	 	 	 	 	 	 	 	 	 	 	 	 	1581512776	0.51	0.94
12/02/2020 13:06:17	120220	12022020	130617	81.69	12.418803	-57.245015	81.77	-0.920	0.810	1.420	81.74	-1.00	1.60	 	 	 	 	 	 	 	 	 	 	 	 	 	 	 	 	 	 	1581512777	0.76	1.41
12/02/2020 13:06:18	120220	12022020	130618	81.59	12.418805	-57.245015	81.54	-0.370	-0.470	1.090	81.46	-2.40	1.50	 	 	 	 	 	 	 	 	 	 	 	 	 	 	 	 	 	 	1581512778	0.33	0.61
12/02/2020 13:06:19	120220	12022020	130619	80.78	12.418807	-57.245012	80.71	0.520	-1.820	1.190	80.61	-3.60	1.70	 	 	 	 	 	 	 	 	 	 	 	 	 	 	 	 	 	 	1581512779	0.78	1.44
12/02/2020 13:06:20	120220	12022020	130620	80.16	12.418810	-57.245007	80.19	1.170	-2.390	1.210	80.13	-3.70	1.60	 	 	 	 	 	 	 	 	 	 	 	 	 	 	 	 	 	 	1581512780	1.00	1.85
12/02/2020 13:06:21	120220	12022020	130621	80.23	12.418813	-57.245007	80.33	1.190	-1.840	1.120	80.30	-2.70	1.50	 	 	 	 	 	 	 	 	 	 	 	 	 	 	 	 	 	 	1581512781	0.64	1.19
12/02/2020 13:06:22	120220	12022020	130622	80.57	12.418813	-57.245008	80.65	0.620	-0.530	1.000	80.63	-1.40	1.40	 	 	 	 	 	 	 	 	 	 	 	 	 	 	 	 	 	 	1581512782	0.59	1.09
12/02/2020 13:06:23	120220	12022020	130623	80.78	12.418813	-57.245013	80.83	-0.090	0.680	0.810	80.80	-0.40	1.10	 	 	 	 	 	 	 	 	 	 	 	 	 	 	 	 	 	 	1581512783	0.90	1.67
12/02/2020 13:06:24	120220	12022020	130624	80.82	12.418813	-57.245017	80.85	-0.560	1.260	0.610	80.81	-0.10	1.10	 	 	 	 	 	 	 	 	 	 	 	 	 	 	 	 	 	 	1581512784	0.61	1.13
12/02/2020 13:06:25	120220	12022020	130625	80.69	12.418813	-57.245017	80.70	-0.640	1.160	0.740	80.65	-0.40	1.30	 	 	 	 	 	 	 	 	 	 	 	 	 	 	 	 	 	 	1581512785	0.08	0.15
12/02/2020 13:06:26	120220	12022020	130626	80.52	12.418812	-57.245015	80.57	-0.450	0.690	1.100	80.51	-0.90	1.60	 	 	 	 	 	 	 	 	 	 	 	 	 	 	 	 	 	 	1581512786	0.51	0.94
12/02/2020 13:06:27	120220	12022020	130627	80.54	12.418810	-57.245013	80.60	-0.250	0.200	1.350	80.54	-1.30	1.80	 	 	 	 	 	 	 	 	 	 	 	 	 	 	 	 	 	 	1581512787	0.57	1.06
12/02/2020 13:06:28	120220	12022020	130628	80.55	12.418808	-57.245013	80.61	-0.230	-0.160	1.450	80.54	-1.70	1.90	 	 	 	 	 	 	 	 	 	 	 	 	 	 	 	 	 	 	1581512788	0.34	0.63
12/02/2020 13:06:29	120220	12022020	130629	80.44	12.418808	-57.245013	80.47	-0.260	-0.500	1.440	80.40	-2.10	1.90	 	 	 	 	 	 	 	 	 	 	 	 	 	 	 	 	 	 	1581512789	0.28	0.52
12/02/2020 13:06:30	120220	12022020	130630	80.22	12.418808	-57.245013	80.24	-0.070	-0.970	1.420	80.17	-2.50	1.80	 	 	 	 	 	 	 	 	 	 	 	 	 	 	 	 	 	 	1581512790	0.11	0.20
12/02/2020 13:06:31	120220	12022020	130631	80.06	12.418808	-57.245013	80.10	0.350	-1.370	1.350	80.05	-2.80	1.70	 	 	 	 	 	 	 	 	 	 	 	 	 	 	 	 	 	 	1581512791	0.33	0.61
12/02/2020 13:06:32	120220	12022020	130632	80.08	12.418812	-57.245012	80.13	0.720	-1.350	1.190	80.10	-2.50	1.50	 	 	 	 	 	 	 	 	 	 	 	 	 	 	 	 	 	 	1581512792	0.54	1.00
12/02/2020 13:06:33	120220	12022020	130633	80.20	12.418813	-57.245012	80.26	0.760	-0.750	0.960	80.23	-1.80	1.30	 	 	 	 	 	 	 	 	 	 	 	 	 	 	 	 	 	 	1581512793	0.50	0.93
12/02/2020 13:06:34	120220	12022020	130634	80.34	12.418815	-57.245013	80.40	0.410	0.160	0.670	80.37	-0.90	1.00	 	 	 	 	 	 	 	 	 	 	 	 	 	 	 	 	 	 	1581512794	0.62	1.15
12/02/2020 13:06:35	120220	12022020	130635	80.45	12.418817	-57.245017	80.51	-0.120	0.830	0.610	80.47	-0.40	1.20	 	 	 	 	 	 	 	 	 	 	 	 	 	 	 	 	 	 	1581512795	0.63	1.17
12/02/2020 13:06:36	120220	12022020	130636	80.52	12.418815	-57.245017	80.58	-0.540	0.990	1.040	80.54	-0.50	1.70	 	 	 	 	 	 	 	 	 	 	 	 	 	 	 	 	 	 	1581512796	0.41	0.76
12/02/2020 13:06:37	120220	12022020	130637	80.59	12.418812	-57.245017	80.66	-0.610	0.680	1.580	80.59	-0.90	2.20	 	 	 	 	 	 	 	 	 	 	 	 	 	 	 	 	 	 	1581512797	0.87	1.61
12/02/2020 13:06:38	120220	12022020	130638	80.55	12.418808	-57.245015	80.61	-0.390	0.000	1.860	80.55	-1.20	2.30	 	 	 	 	 	 	 	 	 	 	 	 	 	 	 	 	 	 	1581512798	0.88	1.63
12/02/2020 13:06:39	120220	12022020	130639	80.41	12.418807	-57.245012	80.47	-0.080	-0.650	1.850	80.39	-2.20	2.30	 	 	 	 	 	 	 	 	 	 	 	 	 	 	 	 	 	 	1581512799	0.70	1.30
12/02/2020 13:06:40	120220	12022020	130640	80.27	12.418805	-57.245010	80.32	0.150	-0.890	1.820	80.24	-2.20	2.30	 	 	 	 	 	 	 	 	 	 	 	 	 	 	 	 	 	 	1581512800	0.40	0.74
12/02/2020 13:06:41	120220	12022020	130641	80.10	12.418805	-57.245010	80.15	0.210	-0.710	1.900	80.07	-1.90	2.30	 	 	 	 	 	 	 	 	 	 	 	 	 	 	 	 	 	 	1581512801	0.04	0.07
12/02/2020 13:06:42	120220	12022020	130642	80.06	12.418807	-57.245012	80.14	0.140	-0.290	1.720	80.09	-1.50	2.00	 	 	 	 	 	 	 	 	 	 	 	 	 	 	 	 	 	 	1581512802	0.51	0.94
12/02/2020 13:06:43	120220	12022020	130643	80.29	12.418812	-57.245015	80.38	0.030	-0.030	1.120	80.35	-1.40	1.30	 	 	 	 	 	 	 	 	 	 	 	 	 	 	 	 	 	 	1581512803	1.04	1.93
12/02/2020 13:06:44	120220	12022020	130644	80.55	12.418817	-57.245017	80.61	0.030	-0.160	0.490	80.59	-1.70	0.80	 	 	 	 	 	 	 	 	 	 	 	 	 	 	 	 	 	 	1581512804	1.12	2.07
12/02/2020 13:06:45	120220	12022020	130645	80.61	12.418820	-57.245017	80.63	0.220	-0.540	0.230	80.59	-2.00	0.70	 	 	 	 	 	 	 	 	 	 	 	 	 	 	 	 	 	 	1581512805	0.74	1.37
12/02/2020 13:06:46	120220	12022020	130646	80.49	12.418820	-57.245013	80.52	0.410	-0.780	0.460	80.46	-2.10	1.10	 	 	 	 	 	 	 	 	 	 	 	 	 	 	 	 	 	 	1581512806	0.60	1.11
12/02/2020 13:06:47	120220	12022020	130647	80.37	12.418817	-57.245010	80.42	0.330	-0.540	1.030	80.35	-1.60	1.70	 	 	 	 	 	 	 	 	 	 	 	 	 	 	 	 	 	 	1581512807	0.74	1.37
12/02/2020 13:06:48	120220	12022020	130648	80.27	12.418813	-57.245010	80.32	-0.080	0.210	1.690	80.24	-0.80	2.30	 	 	 	 	 	 	 	 	 	 	 	 	 	 	 	 	 	 	1581512808	1.00	1.85
12/02/2020 13:06:49	120220	12022020	130649	80.12	12.418808	-57.245013	80.17	-0.600	1.070	1.950	80.09	-0.10	2.30	 	 	 	 	 	 	 	 	 	 	 	 	 	 	 	 	 	 	1581512809	1.20	2.22
12/02/2020 13:06:50	120220	12022020	130650	80.02	12.418807	-57.245017	80.09	-0.840	1.300	1.570	80.02	-0.00	2.20	 	 	 	 	 	 	 	 	 	 	 	 	 	 	 	 	 	 	1581512810	0.96	1.78
12/02/2020 13:06:51	120220	12022020	130651	80.07	12.418808	-57.245020	80.14	-0.570	0.470	0.760	80.09	-1.40	0.90	 	 	 	 	 	 	 	 	 	 	 	 	 	 	 	 	 	 	1581512811	0.77	1.43
12/02/2020 13:06:52	120220	12022020	130652	80.16	12.418815	-57.245017	80.21	0.010	-0.900	0.080	80.16	-1.90	0.60	 	 	 	 	 	 	 	 	 	 	 	 	 	 	 	 	 	 	1581512812	1.33	2.46
12/02/2020 13:06:53	120220	12022020	130653	80.22	12.418820	-57.245013	80.26	0.490	-1.800	-0.170	80.23	-3.20	0.30	 	 	 	 	 	 	 	 	 	 	 	 	 	 	 	 	 	 	1581512813	1.44	2.67
12/02/2020 13:06:54	120220	12022020	130654	80.26	12.418823	-57.245012	80.30	0.630	-1.690	-0.100	80.27	-2.80	0.40	 	 	 	 	 	 	 	 	 	 	 	 	 	 	 	 	 	 	1581512814	0.71	1.31
12/02/2020 13:06:55	120220	12022020	130655	80.27	12.418823	-57.245013	80.30	0.500	-0.920	0.160	80.27	-1.90	0.80	 	 	 	 	 	 	 	 	 	 	 	 	 	 	 	 	 	 	1581512815	0.30	0.56
12/02/2020 13:06:56	120220	12022020	130656	80.21	12.418822	-57.245015	80.24	0.260	-0.120	0.660	80.19	-1.20	1.40	 	 	 	 	 	 	 	 	 	 	 	 	 	 	 	 	 	 	1581512816	0.61	1.13
12/02/2020 13:06:57	120220	12022020	130657	80.10	12.418818	-57.245017	80.15	-0.040	0.610	1.370	80.07	-0.50	2.10	 	 	 	 	 	 	 	 	 	 	 	 	 	 	 	 	 	 	1581512817	0.73	1.35
12/02/2020 13:06:58	120220	12022020	130658	79.97	12.418813	-57.245018	80.05	-0.360	1.170	2.090	79.95	-0.10	2.70	 	 	 	 	 	 	 	 	 	 	 	 	 	 	 	 	 	 	1581512818	0.94	1.74
12/02/2020 13:06:59	120220	12022020	130659	79.96	12.418810	-57.245018	80.07	-0.590	1.210	2.470	79.97	-0.40	2.90	 	 	 	 	 	 	 	 	 	 	 	 	 	 	 	 	 	 	1581512819	0.95	1.76
12/02/2020 13:07:00	120220	12022020	130700	80.02	12.418807	-57.245020	80.13	-0.560	0.490	2.490	80.03	-1.30	2.80	 	 	 	 	 	 	 	 	 	 	 	 	 	 	 	 	 	 	1581512820	0.50	0.93
12/02/2020 13:07:01	120220	12022020	130701	80.04	12.418808	-57.245017	80.13	-0.160	-0.740	2.260	80.03	-2.60	2.50	 	 	 	 	 	 	 	 	 	 	 	 	 	 	 	 	 	 	1581512821	0.49	0.91
12/02/2020 13:07:02	120220	12022020	130702	80.02	12.418810	-57.245013	80.11	0.360	-1.640	1.800	80.02	-2.90	2.30	1017.20	26.50	26.60	20.20	20.30	639.0	68.0	68.0	396.0	28.3	353.00	11.70	73.00	11.40	44746	10743.0	27.6	27.5	1581512822	0.97	1.80
12/02/2020 13:07:03	120220	12022020	130703	80.04	12.418813	-57.245010	80.14	0.620	-1.550	1.340	80.05	-2.60	1.60	 	 	 	 	 	 	 	 	 	 	 	 	 	 	 	 	 	 	1581512823	0.81	1.50
12/02/2020 13:07:04	120220	12022020	130704	80.07	12.418815	-57.245013	80.15	0.480	-0.690	1.100	80.07	-2.30	1.60	 	 	 	 	 	 	 	 	 	 	 	 	 	 	 	 	 	 	1581512824	0.64	1.19
12/02/2020 13:07:05	120220	12022020	130705	79.99	12.418817	-57.245017	80.05	0.130	0.250	0.940	79.97	-0.80	1.30	 	 	 	 	 	 	 	 	 	 	 	 	 	 	 	 	 	 	1581512825	0.90	1.67
12/02/2020 13:07:06	120220	12022020	130706	79.85	12.418818	-57.245020	79.89	-0.140	0.730	0.580	79.82	-0.60	0.90	 	 	 	 	 	 	 	 	 	 	 	 	 	 	 	 	 	 	1581512826	0.83	1.54
12/02/2020 13:07:07	120220	12022020	130707	79.62	12.418820	-57.245022	79.66	-0.170	0.540	0.220	79.58	-1.10	0.60	 	 	 	 	 	 	 	 	 	 	 	 	 	 	 	 	 	 	1581512827	0.61	1.13
12/02/2020 13:07:08	120220	12022020	130708	79.44	12.418823	-57.245020	79.49	-0.020	-0.150	0.090	79.42	-1.80	0.60	 	 	 	 	 	 	 	 	 	 	 	 	 	 	 	 	 	 	1581512828	0.63	1.17
12/02/2020 13:07:09	120220	12022020	130709	79.40	12.418823	-57.245017	79.48	0.130	-0.700	0.300	79.42	-2.10	0.90	 	 	 	 	 	 	 	 	 	 	 	 	 	 	 	 	 	 	1581512829	0.84	1.56
12/02/2020 13:07:10	120220	12022020	130710	79.56	12.418823	-57.245013	79.67	0.080	-0.560	0.620	79.61	-1.70	1.10	 	 	 	 	 	 	 	 	 	 	 	 	 	 	 	 	 	 	1581512830	0.47	0.87
12/02/2020 13:07:11	120220	12022020	130711	79.82	12.418823	-57.245017	79.92	-0.170	0.090	0.740	79.85	-1.00	1.20	 	 	 	 	 	 	 	 	 	 	 	 	 	 	 	 	 	 	1581512831	0.46	0.85
12/02/2020 13:07:12	120220	12022020	130712	79.88	12.418822	-57.245020	79.94	-0.410	0.500	0.820	79.85	-0.90	1.40	 	 	 	 	 	 	 	 	 	 	 	 	 	 	 	 	 	 	1581512832	0.87	1.61
12/02/2020 13:07:13	120220	12022020	130713	79.59	12.418818	-57.245022	79.63	-0.420	0.200	1.300	79.50	-1.40	2.00	 	 	 	 	 	 	 	 	 	 	 	 	 	 	 	 	 	 	1581512833	0.57	1.06
12/02/2020 13:07:14	120220	12022020	130714	79.20	12.418815	-57.245020	79.30	-0.110	-0.560	2.060	79.15	-2.20	2.70	 	 	 	 	 	 	 	 	 	 	 	 	 	 	 	 	 	 	1581512834	0.87	1.61
12/02/2020 13:07:15	120220	12022020	130715	79.09	12.418812	-57.245015	79.23	0.330	-1.160	2.480	79.10	-2.60	2.90	 	 	 	 	 	 	 	 	 	 	 	 	 	 	 	 	 	 	1581512835	1.13	2.09
12/02/2020 13:07:16	120220	12022020	130716	79.11	12.418812	-57.245012	79.25	0.580	-1.170	2.320	79.10	-2.30	2.50	 	 	 	 	 	 	 	 	 	 	 	 	 	 	 	 	 	 	1581512836	0.67	1.24
12/02/2020 13:07:17	120220	12022020	130717	78.98	12.418813	-57.245012	79.07	0.500	-0.570	1.750	78.93	-1.60	1.90	 	 	 	 	 	 	 	 	 	 	 	 	 	 	 	 	 	 	1581512837	0.47	0.87
12/02/2020 13:07:18	120220	12022020	130718	78.76	12.418818	-57.245015	78.84	0.200	0.280	1.080	78.73	-0.80	1.20	 	 	 	 	 	 	 	 	 	 	 	 	 	 	 	 	 	 	1581512838	1.18	2.19
12/02/2020 13:07:19	120220	12022020	130719	78.71	12.418823	-57.245018	78.81	-0.070	0.870	0.480	78.72	-0.40	0.70	 	 	 	 	 	 	 	 	 	 	 	 	 	 	 	 	 	 	1581512839	1.33	2.46
12/02/2020 13:07:20	120220	12022020	130720	78.78	12.418827	-57.245022	78.89	-0.300	0.980	0.100	78.81	-0.50	0.40	 	 	 	 	 	 	 	 	 	 	 	 	 	 	 	 	 	 	1581512840	1.02	1.89
12/02/2020 13:07:21	120220	12022020	130721	78.91	12.418828	-57.245023	79.01	-0.530	0.640	-0.030	78.94	-1.00	0.40	 	 	 	 	 	 	 	 	 	 	 	 	 	 	 	 	 	 	1581512841	0.49	0.91
12/02/2020 13:07:22	120220	12022020	130722	79.01	12.418828	-57.245022	79.11	-0.620	-0.170	0.020	79.01	-1.90	0.50	 	 	 	 	 	 	 	 	 	 	 	 	 	 	 	 	 	 	1581512842	0.11	0.20
12/02/2020 13:07:23	120220	12022020	130723	79.00	12.418827	-57.245020	79.09	-0.390	-1.200	0.290	78.99	-2.90	0.90	 	 	 	 	 	 	 	 	 	 	 	 	 	 	 	 	 	 	1581512843	0.70	1.30
12/02/2020 13:07:24	120220	12022020	130724	78.84	12.418823	-57.245015	78.93	0.100	-1.790	0.980	78.78	-3.10	1.70	 	 	 	 	 	 	 	 	 	 	 	 	 	 	 	 	 	 	1581512844	1.18	2.19
12/02/2020 13:07:25	120220	12022020	130725	78.51	12.418820	-57.245012	78.60	0.520	-1.410	1.750	78.43	-2.30	2.40	 	 	 	 	 	 	 	 	 	 	 	 	 	 	 	 	 	 	1581512845	1.12	2.07
12/02/2020 13:07:26	120220	12022020	130726	78.21	12.418817	-57.245013	78.23	0.570	-0.310	2.200	78.14	-1.90	2.50	 	 	 	 	 	 	 	 	 	 	 	 	 	 	 	 	 	 	1581512846	0.75	1.39
12/02/2020 13:07:27	120220	12022020	130727	77.88	12.418815	-57.245017	77.99	0.280	0.620	2.200	77.84	-0.50	2.50	 	 	 	 	 	 	 	 	 	 	 	 	 	 	 	 	 	 	1581512847	0.78	1.44
12/02/2020 13:07:28	120220	12022020	130728	77.82	12.418815	-57.245018	77.97	-0.060	0.860	1.750	77.82	-0.50	2.30	 	 	 	 	 	 	 	 	 	 	 	 	 	 	 	 	 	 	1581512848	0.56	1.04
12/02/2020 13:07:29	120220	12022020	130729	78.03	12.418820	-57.245018	78.17	-0.200	0.540	0.960	78.08	-1.00	1.10	 	 	 	 	 	 	 	 	 	 	 	 	 	 	 	 	 	 	1581512849	0.86	1.59
12/02/2020 13:07:30	120220	12022020	130730	78.32	12.418825	-57.245018	78.47	-0.120	0.060	0.270	78.38	-1.50	0.50	 	 	 	 	 	 	 	 	 	 	 	 	 	 	 	 	 	 	1581512850	1.22	2.26
12/02/2020 13:07:31	120220	12022020	130731	78.54	12.418830	-57.245017	78.65	-0.030	-0.350	-0.100	78.56	-1.80	0.30	 	 	 	 	 	 	 	 	 	 	 	 	 	 	 	 	 	 	1581512851	0.93	1.72
12/02/2020 13:07:32	120220	12022020	130732	78.53	12.418830	-57.245017	78.60	-0.060	-0.580	-0.050	78.49	-1.90	0.50	 	 	 	 	 	 	 	 	 	 	 	 	 	 	 	 	 	 	1581512852	0.32	0.59
12/02/2020 13:07:33	120220	12022020	130733	78.27	12.418828	-57.245015	78.33	-0.200	-0.520	0.460	78.19	-1.80	1.20	 	 	 	 	 	 	 	 	 	 	 	 	 	 	 	 	 	 	1581512853	0.52	0.96
12/02/2020 13:07:34	120220	12022020	130734	77.89	12.418823	-57.245015	77.97	-0.350	-0.270	1.240	77.82	-1.50	1.90	 	 	 	 	 	 	 	 	 	 	 	 	 	 	 	 	 	 	1581512854	0.96	1.78
12/02/2020 13:07:35	120220	12022020	130735	77.67	12.418820	-57.245015	77.81	-0.380	-0.120	1.780	77.67	-1.50	2.30	 	 	 	 	 	 	 	 	 	 	 	 	 	 	 	 	 	 	1581512855	0.98	1.81
12/02/2020 13:07:36	120220	12022020	130736	77.77	12.418817	-57.245015	77.94	-0.190	-0.250	1.810	77.82	-1.70	2.10	 	 	 	 	 	 	 	 	 	 	 	 	 	 	 	 	 	 	1581512856	0.44	0.81
12/02/2020 13:07:37	120220	12022020	130737	78.05	12.418818	-57.245015	78.22	0.140	-0.420	1.510	78.11	-1.80	1.80	 	 	 	 	 	 	 	 	 	 	 	 	 	 	 	 	 	 	1581512857	0.31	0.57
12/02/2020 13:07:38	120220	12022020	130738	78.36	12.418820	-57.245013	78.52	0.440	-0.550	1.210	78.42	-1.90	1.60	 	 	 	 	 	 	 	 	 	 	 	 	 	 	 	 	 	 	1581512858	0.49	0.91
12/02/2020 13:07:39	120220	12022020	130739	78.52	12.418822	-57.245012	78.63	0.570	-0.540	1.220	78.51	-1.80	1.80	 	 	 	 	 	 	 	 	 	 	 	 	 	 	 	 	 	 	1581512859	0.41	0.76
12/02/2020 13:07:40	120220	12022020	130740	78.38	12.418820	-57.245010	78.36	0.480	-0.300	1.570	78.31	-1.70	1.90	 	 	 	 	 	 	 	 	 	 	 	 	 	 	 	 	 	 	1581512860	0.40	0.74
12/02/2020 13:07:41	120220	12022020	130741	77.83	12.418818	-57.245008	77.87	0.240	0.070	1.850	77.73	-1.10	2.30	 	 	 	 	 	 	 	 	 	 	 	 	 	 	 	 	 	 	1581512861	0.41	0.76
12/02/2020 13:07:42	120220	12022020	130742	77.49	12.418818	-57.245010	77.59	-0.050	0.430	1.680	77.48	-0.80	1.90	 	 	 	 	 	 	 	 	 	 	 	 	 	 	 	 	 	 	1581512862	0.10	0.19
12/02/2020 13:07:43	120220	12022020	130743	77.53	12.418820	-57.245012	77.64	-0.370	0.670	1.160	77.56	-0.70	1.30	 	 	 	 	 	 	 	 	 	 	 	 	 	 	 	 	 	 	1581512863	0.59	1.09
12/02/2020 13:07:44	120220	12022020	130744	77.81	12.418825	-57.245013	77.96	-0.680	0.630	0.540	77.90	-0.90	0.70	 	 	 	 	 	 	 	 	 	 	 	 	 	 	 	 	 	 	1581512864	0.95	1.76
12/02/2020 13:07:45	120220	12022020	130745	78.25	12.418828	-57.245015	78.39	-0.850	0.170	0.010	78.34	-1.50	0.30	 	 	 	 	 	 	 	 	 	 	 	 	 	 	 	 	 	 	1581512865	0.80	1.48
12/02/2020 13:07:46	120220	12022020	130746	78.54	12.418828	-57.245013	78.64	-0.670	-0.670	-0.070	78.56	-2.40	0.50	 	 	 	 	 	 	 	 	 	 	 	 	 	 	 	 	 	 	1581512866	0.25	0.46
12/02/2020 13:07:47	120220	12022020	130747	78.48	12.418825	-57.245010	78.53	-0.070	-1.510	0.350	78.42	-3.10	1.00	 	 	 	 	 	 	 	 	 	 	 	 	 	 	 	 	 	 	1581512867	1.02	1.89
12/02/2020 13:07:48	120220	12022020	130748	78.18	12.418822	-57.245005	78.24	0.730	-1.960	1.010	78.12	-3.30	1.70	 	 	 	 	 	 	 	 	 	 	 	 	 	 	 	 	 	 	1581512868	1.44	2.67
12/02/2020 13:07:49	120220	12022020	130749	77.91	12.418817	-57.245000	77.99	1.180	-1.580	1.610	77.87	-2.40	2.20	 	 	 	 	 	 	 	 	 	 	 	 	 	 	 	 	 	 	1581512869	1.21	2.24
12/02/2020 13:07:50	120220	12022020	130750	77.74	12.418815	-57.244998	77.84	0.850	-0.150	1.910	77.72	-0.80	2.30	 	 	 	 	 	 	 	 	 	 	 	 	 	 	 	 	 	 	1581512870	0.52	0.96
12/02/2020 13:07:51	120220	12022020	130751	77.68	12.418813	-57.245003	77.79	-0.040	1.550	1.830	77.68	0.70	2.10	 	 	 	 	 	 	 	 	 	 	 	 	 	 	 	 	 	 	1581512871	1.03	1.91
12/02/2020 13:07:52	120220	12022020	130752	77.73	12.418813	-57.245010	77.83	-0.790	2.340	1.400	77.73	0.90	2.00	 	 	 	 	 	 	 	 	 	 	 	 	 	 	 	 	 	 	1581512872	1.38	2.56
12/02/2020 13:07:53	120220	12022020	130753	77.93	12.418817	-57.245013	78.04	-0.870	1.560	0.580	78.00	-0.50	0.60	 	 	 	 	 	 	 	 	 	 	 	 	 	 	 	 	 	 	1581512873	1.00	1.85
12/02/2020 13:07:54	120220	12022020	130754	78.32	12.418823	-57.245012	78.42	-0.400	-0.190	-0.320	78.32	-1.10	0.30	 	 	 	 	 	 	 	 	 	 	 	 	 	 	 	 	 	 	1581512874	1.53	2.83
12/02/2020 13:07:55	120220	12022020	130755	78.66	12.418830	-57.245007	78.72	0.100	-1.640	-0.720	78.68	-3.30	-0.20	 	 	 	 	 	 	 	 	 	 	 	 	 	 	 	 	 	 	1581512875	1.66	3.07
12/02/2020 13:07:56	120220	12022020	130756	78.56	12.418830	-57.245002	78.57	0.210	-1.970	-0.200	78.50	-3.10	0.70	 	 	 	 	 	 	 	 	 	 	 	 	 	 	 	 	 	 	1581512876	0.81	1.50
12/02/2020 13:07:57	120220	12022020	130757	78.09	12.418825	-57.245002	78.09	0.000	-1.370	0.880	77.99	-2.40	1.70	 	 	 	 	 	 	 	 	 	 	 	 	 	 	 	 	 	 	1581512877	1.14	2.11
12/02/2020 13:07:58	120220	12022020	130758	77.72	12.418817	-57.245003	77.77	-0.130	-0.600	1.640	77.70	-1.70	2.10	 	 	 	 	 	 	 	 	 	 	 	 	 	 	 	 	 	 	1581512878	1.62	3.00
12/02/2020 13:07:59	120220	12022020	130759	77.75	12.418813	-57.245005	77.83	0.050	-0.050	1.670	77.79	-1.20	2.00	 	 	 	 	 	 	 	 	 	 	 	 	 	 	 	 	 	 	1581512879	0.96	1.78
12/02/2020 13:08:00	120220	12022020	130800	77.99	12.418812	-57.245005	78.08	0.330	0.290	1.360	78.03	-1.00	1.70	 	 	 	 	 	 	 	 	 	 	 	 	 	 	 	 	 	 	1581512880	0.06	0.11
12/02/2020 13:08:01	120220	12022020	130801	78.21	12.418815	-57.245005	78.30	0.440	0.450	1.060	78.25	-0.90	1.40	 	 	 	 	 	 	 	 	 	 	 	 	 	 	 	 	 	 	1581512881	0.41	0.76
12/02/2020 13:08:02	120220	12022020	130802	78.39	12.418817	-57.245005	78.48	0.360	0.320	0.810	78.43	-1.20	1.20	1017.20	26.50	26.60	20.40	20.40	641.0	68.0	69.0	396.0	28.4	351.00	11.10	70.00	10.70	45016	10759.0	27.6	27.5	1581512882	0.50	0.93
12/02/2020 13:08:03	120220	12022020	130803	78.50	12.418818	-57.245003	78.56	0.200	-0.030	0.730	78.49	-1.50	1.20	 	 	 	 	 	 	 	 	 	 	 	 	 	 	 	 	 	 	1581512883	0.53	0.98
12/02/2020 13:08:04	120220	12022020	130804	78.42	12.418820	-57.245002	78.47	-0.080	-0.160	0.900	78.39	-1.40	1.40	 	 	 	 	 	 	 	 	 	 	 	 	 	 	 	 	 	 	1581512884	0.43	0.80
12/02/2020 13:08:05	120220	12022020	130805	78.30	12.418817	-57.245002	78.37	-0.500	0.130	1.200	78.28	-1.00	1.80	 	 	 	 	 	 	 	 	 	 	 	 	 	 	 	 	 	 	1581512885	0.41	0.76
12/02/2020 13:08:06	120220	12022020	130806	78.22	12.418813	-57.245003	78.29	-0.800	0.500	1.520	78.22	-0.90	1.90	 	 	 	 	 	 	 	 	 	 	 	 	 	 	 	 	 	 	1581512886	0.90	1.67
12/02/2020 13:08:07	120220	12022020	130807	78.08	12.418812	-57.245007	78.14	-0.650	0.350	1.770	78.05	-1.30	2.20	 	 	 	 	 	 	 	 	 	 	 	 	 	 	 	 	 	 	1581512887	0.92	1.70
12/02/2020 13:08:08	120220	12022020	130808	77.95	12.418810	-57.245008	78.02	0.030	-0.700	1.720	77.94	-2.60	2.00	 	 	 	 	 	 	 	 	 	 	 	 	 	 	 	 	 	 	1581512888	0.13	0.24
12/02/2020 13:08:09	120220	12022020	130809	78.02	12.418813	-57.245003	78.11	0.860	-1.990	1.310	78.06	-3.60	1.60	 	 	 	 	 	 	 	 	 	 	 	 	 	 	 	 	 	 	1581512889	1.09	2.02
12/02/2020 13:08:10	120220	12022020	130810	78.26	12.418817	-57.244998	78.36	1.240	-2.230	0.950	78.32	-3.20	1.30	 	 	 	 	 	 	 	 	 	 	 	 	 	 	 	 	 	 	1581512890	1.42	2.63
12/02/2020 13:08:11	120220	12022020	130811	78.49	12.418818	-57.244997	78.58	0.860	-0.970	0.920	78.52	-1.50	1.40	 	 	 	 	 	 	 	 	 	 	 	 	 	 	 	 	 	 	1581512891	0.35	0.65
12/02/2020 13:08:12	120220	12022020	130812	78.54	12.418817	-57.245002	78.60	0.000	0.910	1.080	78.53	0.20	1.60	 	 	 	 	 	 	 	 	 	 	 	 	 	 	 	 	 	 	1581512892	1.10	2.04
12/02/2020 13:08:13	120220	12022020	130813	78.43	12.418815	-57.245008	78.48	-0.750	2.080	1.170	78.40	0.80	1.60	 	 	 	 	 	 	 	 	 	 	 	 	 	 	 	 	 	 	1581512893	1.52	2.82
12/02/2020 13:08:14	120220	12022020	130814	78.37	12.418813	-57.245013	78.45	-1.050	1.900	1.070	78.38	0.10	1.40	 	 	 	 	 	 	 	 	 	 	 	 	 	 	 	 	 	 	1581512894	0.86	1.59
12/02/2020 13:08:15	120220	12022020	130815	78.39	12.418813	-57.245012	78.47	-0.820	0.570	0.980	78.39	-1.50	1.40	 	 	 	 	 	 	 	 	 	 	 	 	 	 	 	 	 	 	1581512895	0.20	0.37
12/02/2020 13:08:16	120220	12022020	130816	78.35	12.418813	-57.245007	78.42	-0.210	-1.020	1.120	78.33	-2.80	1.60	 	 	 	 	 	 	 	 	 	 	 	 	 	 	 	 	 	 	1581512896	1.00	1.85
12/02/2020 13:08:17	120220	12022020	130817	78.25	12.418813	-57.245002	78.34	0.350	-1.820	1.360	78.23	-3.10	1.80	 	 	 	 	 	 	 	 	 	 	 	 	 	 	 	 	 	 	1581512897	1.10	2.04
12/02/2020 13:08:18	120220	12022020	130818	78.21	12.418812	-57.245002	78.30	0.480	-1.430	1.450	78.21	-2.40	1.90	 	 	 	 	 	 	 	 	 	 	 	 	 	 	 	 	 	 	1581512898	0.37	0.69
12/02/2020 13:08:19	120220	12022020	130819	78.21	12.418810	-57.245005	78.29	0.240	-0.500	1.390	78.20	-1.50	1.80	 	 	 	 	 	 	 	 	 	 	 	 	 	 	 	 	 	 	1581512899	0.79	1.46
12/02/2020 13:08:20	120220	12022020	130820	78.11	12.418810	-57.245008	78.16	0.030	0.030	1.350	78.07	-1.30	1.80	 	 	 	 	 	 	 	 	 	 	 	 	 	 	 	 	 	 	1581512900	0.92	1.70
12/02/2020 13:08:21	120220	12022020	130821	77.92	12.418812	-57.245010	77.97	0.100	0.050	1.230	77.90	-1.40	1.60	 	 	 	 	 	 	 	 	 	 	 	 	 	 	 	 	 	 	1581512901	0.40	0.74
12/02/2020 13:08:22	120220	12022020	130822	77.93	12.418815	-57.245010	78.02	0.370	-0.100	0.930	77.96	-1.50	1.20	 	 	 	 	 	 	 	 	 	 	 	 	 	 	 	 	 	 	1581512902	0.76	1.41
12/02/2020 13:08:23	120220	12022020	130823	78.18	12.418818	-57.245010	78.30	0.600	-0.290	0.640	78.26	-1.70	1.00	 	 	 	 	 	 	 	 	 	 	 	 	 	 	 	 	 	 	1581512903	0.79	1.46
12/02/2020 13:08:24	120220	12022020	130824	78.53	12.418820	-57.245008	78.64	0.610	-0.410	0.530	78.59	-1.80	1.00	 	 	 	 	 	 	 	 	 	 	 	 	 	 	 	 	 	 	1581512904	0.39	0.72
12/02/2020 13:08:25	120220	12022020	130825	78.68	12.418818	-57.245007	78.76	0.320	-0.300	0.850	78.67	-1.50	1.50	 	 	 	 	 	 	 	 	 	 	 	 	 	 	 	 	 	 	1581512905	0.52	0.96
12/02/2020 13:08:26	120220	12022020	130826	78.41	12.418813	-57.245005	78.44	-0.250	0.280	1.590	78.30	-0.70	2.30	 	 	 	 	 	 	 	 	 	 	 	 	 	 	 	 	 	 	1581512906	1.07	1.98
12/02/2020 13:08:27	120220	12022020	130827	77.82	12.418807	-57.245007	77.85	-0.950	1.070	2.170	77.70	-0.10	2.60	 	 	 	 	 	 	 	 	 	 	 	 	 	 	 	 	 	 	1581512907	1.38	2.56
12/02/2020 13:08:28	120220	12022020	130828	77.37	12.418805	-57.245012	77.45	-1.420	1.350	2.050	77.34	-0.20	2.20	 	 	 	 	 	 	 	 	 	 	 	 	 	 	 	 	 	 	1581512908	1.16	2.15
12/02/2020 13:08:29	120220	12022020	130829	77.42	12.418807	-57.245017	77.55	-1.270	0.660	1.250	77.49	-1.30	1.30	 	 	 	 	 	 	 	 	 	 	 	 	 	 	 	 	 	 	1581512909	1.00	1.85
12/02/2020 13:08:30	120220	12022020	130830	77.76	12.418813	-57.245017	77.98	-0.470	-0.840	0.230	77.85	-1.80	0.90	 	 	 	 	 	 	 	 	 	 	 	 	 	 	 	 	 	 	1581512910	1.33	2.46
12/02/2020 13:08:31	120220	12022020	130831	78.21	12.418818	-57.245013	78.28	0.590	-2.390	-0.380	78.24	-4.10	0.00	 	 	 	 	 	 	 	 	 	 	 	 	 	 	 	 	 	 	1581512911	1.48	2.74
12/02/2020 13:08:32	120220	12022020	130832	78.21	12.418822	-57.245008	78.23	1.360	-2.880	-0.280	78.21	-4.20	0.10	 	 	 	 	 	 	 	 	 	 	 	 	 	 	 	 	 	 	1581512912	1.24	2.30
12/02/2020 13:08:33	120220	12022020	130833	77.90	12.418820	-57.245005	77.92	1.540	-1.830	0.390	77.83	-2.40	1.20	 	 	 	 	 	 	 	 	 	 	 	 	 	 	 	 	 	 	1581512913	0.59	1.09
12/02/2020 13:08:34	120220	12022020	130834	77.57	12.418815	-57.245008	77.62	1.080	0.100	1.200	77.51	-0.40	1.90	 	 	 	 	 	 	 	 	 	 	 	 	 	 	 	 	 	 	1581512914	1.08	2.00
12/02/2020 13:08:35	120220	12022020	130835	77.37	12.418812	-57.245013	77.46	0.200	1.870	1.860	77.36	1.00	2.40	 	 	 	 	 	 	 	 	 	 	 	 	 	 	 	 	 	 	1581512915	1.49	2.76
12/02/2020 13:08:36	120220	12022020	130836	77.42	12.418808	-57.245018	77.54	-0.760	2.630	2.140	77.45	1.20	2.50	 	 	 	 	 	 	 	 	 	 	 	 	 	 	 	 	 	 	1581512916	1.30	2.41
12/02/2020 13:08:37	120220	12022020	130837	77.60	12.418807	-57.245022	77.71	-1.400	1.940	2.000	77.64	-0.00	2.30	 	 	 	 	 	 	 	 	 	 	 	 	 	 	 	 	 	 	1581512917	0.57	1.06
12/02/2020 13:08:38	120220	12022020	130838	77.71	12.418807	-57.245020	77.79	-1.390	0.200	1.660	77.71	-1.90	1.90	 	 	 	 	 	 	 	 	 	 	 	 	 	 	 	 	 	 	1581512918	0.46	0.85
12/02/2020 13:08:39	120220	12022020	130839	77.72	12.418808	-57.245015	77.80	-0.650	-1.600	1.350	77.72	-3.50	1.70	 	 	 	 	 	 	 	 	 	 	 	 	 	 	 	 	 	 	1581512919	1.10	2.04
12/02/2020 13:08:40	120220	12022020	130840	77.74	12.418810	-57.245010	77.83	0.470	-2.540	1.210	77.75	-3.90	1.60	 	 	 	 	 	 	 	 	 	 	 	 	 	 	 	 	 	 	1581512920	1.06	1.96
12/02/2020 13:08:41	120220	12022020	130841	77.86	12.418812	-57.245008	77.96	1.210	-2.130	1.180	77.89	-2.90	1.60	 	 	 	 	 	 	 	 	 	 	 	 	 	 	 	 	 	 	1581512921	0.49	0.91
12/02/2020 13:08:42	120220	12022020	130842	77.98	12.418813	-57.245012	78.07	1.040	-0.620	1.140	77.98	-2.40	1.60	 	 	 	 	 	 	 	 	 	 	 	 	 	 	 	 	 	 	1581512922	0.69	1.28
12/02/2020 13:08:43	120220	12022020	130843	77.97	12.418812	-57.245018	78.04	0.230	0.900	1.170	77.95	-0.10	1.70	 	 	 	 	 	 	 	 	 	 	 	 	 	 	 	 	 	 	1581512923	1.47	2.72
12/02/2020 13:08:44	120220	12022020	130844	77.90	12.418810	-57.245023	77.96	-0.420	1.430	1.290	77.88	0.10	1.70	 	 	 	 	 	 	 	 	 	 	 	 	 	 	 	 	 	 	1581512924	1.25	2.31
12/02/2020 13:08:45	120220	12022020	130845	77.88	12.418810	-57.245025	77.97	-0.440	0.720	1.330	77.89	-1.10	1.70	 	 	 	 	 	 	 	 	 	 	 	 	 	 	 	 	 	 	1581512925	0.19	0.35
12/02/2020 13:08:46	120220	12022020	130846	77.99	12.418810	-57.245020	78.09	-0.040	-0.510	1.230	78.01	-2.20	1.60	 	 	 	 	 	 	 	 	 	 	 	 	 	 	 	 	 	 	1581512926	0.96	1.78
12/02/2020 13:08:47	120220	12022020	130847	78.17	12.418812	-57.245015	78.29	0.270	-1.150	1.060	78.21	-2.40	1.40	 	 	 	 	 	 	 	 	 	 	 	 	 	 	 	 	 	 	1581512927	1.14	2.11
12/02/2020 13:08:48	120220	12022020	130848	78.31	12.418813	-57.245013	78.41	0.230	-0.800	0.990	78.31	-1.80	1.50	 	 	 	 	 	 	 	 	 	 	 	 	 	 	 	 	 	 	1581512928	0.30	0.56
12/02/2020 13:08:49	120220	12022020	130849	78.29	12.418812	-57.245017	78.38	-0.040	-0.050	1.150	78.27	-1.10	1.70	 	 	 	 	 	 	 	 	 	 	 	 	 	 	 	 	 	 	1581512929	0.63	1.17
12/02/2020 13:08:50	120220	12022020	130850	78.20	12.418810	-57.245020	78.30	-0.240	0.440	1.370	78.18	-0.90	1.80	 	 	 	 	 	 	 	 	 	 	 	 	 	 	 	 	 	 	1581512930	0.82	1.52
12/02/2020 13:08:51	120220	12022020	130851	78.18	12.418808	-57.245022	78.28	-0.240	0.390	1.450	78.18	-1.10	1.90	 	 	 	 	 	 	 	 	 	 	 	 	 	 	 	 	 	 	1581512931	0.46	0.85
12/02/2020 13:08:52	120220	12022020	130852	78.15	12.418808	-57.245020	78.25	-0.080	-0.070	1.380	78.14	-1.60	1.70	 	 	 	 	 	 	 	 	 	 	 	 	 	 	 	 	 	 	1581512932	0.17	0.31
12/02/2020 13:08:53	120220	12022020	130853	78.09	12.418810	-57.245018	78.18	0.140	-0.570	1.110	78.10	-2.00	1.40	 	 	 	 	 	 	 	 	 	 	 	 	 	 	 	 	 	 	1581512933	0.52	0.96
12/02/2020 13:08:54	120220	12022020	130854	78.24	12.418813	-57.245018	78.37	0.310	-0.740	0.640	78.31	-2.00	0.90	 	 	 	 	 	 	 	 	 	 	 	 	 	 	 	 	 	 	1581512934	0.92	1.70
12/02/2020 13:08:55	120220	12022020	130855	78.67	12.418818	-57.245018	78.83	0.340	-0.560	0.320	78.78	-1.80	0.70	 	 	 	 	 	 	 	 	 	 	 	 	 	 	 	 	 	 	1581512935	0.98	1.81
12/02/2020 13:08:56	120220	12022020	130856	79.14	12.418820	-57.245020	79.27	0.210	-0.220	0.360	79.20	-1.40	0.90	 	 	 	 	 	 	 	 	 	 	 	 	 	 	 	 	 	 	1581512936	0.42	0.78
12/02/2020 13:08:57	120220	12022020	130857	79.24	12.418817	-57.245020	79.31	-0.040	0.160	0.880	79.20	-1.10	1.60	 	 	 	 	 	 	 	 	 	 	 	 	 	 	 	 	 	 	1581512937	0.64	1.19
12/02/2020 13:08:58	120220	12022020	130858	78.82	12.418812	-57.245022	78.84	-0.240	0.310	1.790	78.69	-1.10	2.60	 	 	 	 	 	 	 	 	 	 	 	 	 	 	 	 	 	 	1581512938	1.26	2.33
12/02/2020 13:08:59	120220	12022020	130859	78.12	12.418805	-57.245020	78.14	-0.280	0.090	2.590	77.99	-1.40	3.20	 	 	 	 	 	 	 	 	 	 	 	 	 	 	 	 	 	 	1581512939	1.25	2.31
12/02/2020 13:09:00	120220	12022020	130900	77.67	12.418803	-57.245018	77.76	-0.170	-0.290	2.680	77.65	-1.80	2.90	 	 	 	 	 	 	 	 	 	 	 	 	 	 	 	 	 	 	1581512940	0.68	1.26
12/02/2020 13:09:01	120220	12022020	130901	77.85	12.418807	-57.245017	78.01	0.010	-0.660	2.020	77.96	-2.10	2.10	 	 	 	 	 	 	 	 	 	 	 	 	 	 	 	 	 	 	1581512941	0.65	1.20
12/02/2020 13:09:02	120220	12022020	130902	78.51	12.418812	-57.245015	78.68	0.220	-0.890	1.150	78.66	-2.30	1.30	1017.30	26.60	26.60	20.80	20.80	646.0	70.0	70.0	395.0	28.4	353.00	10.50	70.00	10.10	45338	12106.0	27.5	27.5	1581512942	1.24	2.30
12/02/2020 13:09:03	120220	12022020	130903	79.09	12.418817	-57.245015	79.21	0.390	-0.790	0.590	79.16	-1.90	0.90	 	 	 	 	 	 	 	 	 	 	 	 	 	 	 	 	 	 	1581512943	1.12	2.07
12/02/2020 13:09:04	120220	12022020	130904	79.27	12.418818	-57.245015	79.33	0.320	-0.110	0.420	79.26	-1.10	0.90	 	 	 	 	 	 	 	 	 	 	 	 	 	 	 	 	 	 	1581512944	0.45	0.83
12/02/2020 13:09:05	120220	12022020	130905	79.12	12.418818	-57.245017	79.18	-0.060	0.840	0.650	79.06	-0.20	1.30	 	 	 	 	 	 	 	 	 	 	 	 	 	 	 	 	 	 	1581512945	0.60	1.11
12/02/2020 13:09:06	120220	12022020	130906	78.85	12.418815	-57.245022	78.83	-0.490	1.290	1.260	78.77	-0.10	1.50	 	 	 	 	 	 	 	 	 	 	 	 	 	 	 	 	 	 	1581512946	1.11	2.06
12/02/2020 13:09:07	120220	12022020	130907	78.37	12.418810	-57.245023	78.44	-0.610	0.780	1.930	78.29	-1.00	2.50	 	 	 	 	 	 	 	 	 	 	 	 	 	 	 	 	 	 	1581512947	0.88	1.63
12/02/2020 13:09:08	120220	12022020	130908	78.11	12.418810	-57.245020	78.23	-0.260	-0.500	2.190	78.11	-1.50	2.60	 	 	 	 	 	 	 	 	 	 	 	 	 	 	 	 	 	 	1581512948	0.53	0.98
12/02/2020 13:09:09	120220	12022020	130909	78.20	12.418812	-57.245017	78.36	0.280	-1.840	1.860	78.25	-3.50	2.10	 	 	 	 	 	 	 	 	 	 	 	 	 	 	 	 	 	 	1581512949	1.16	2.15
12/02/2020 13:09:10	120220	12022020	130910	78.51	12.418817	-57.245012	78.67	0.680	-2.410	1.350	78.51	-3.70	1.90	 	 	 	 	 	 	 	 	 	 	 	 	 	 	 	 	 	 	1581512950	1.45	2.69
12/02/2020 13:09:11	120220	12022020	130911	78.67	12.418820	-57.245008	78.78	0.750	-1.730	1.220	78.67	-2.50	1.70	 	 	 	 	 	 	 	 	 	 	 	 	 	 	 	 	 	 	1581512951	0.80	1.48
12/02/2020 13:09:12	120220	12022020	130912	78.61	12.418818	-57.245010	78.71	0.450	-0.050	1.380	78.59	-0.60	1.80	 	 	 	 	 	 	 	 	 	 	 	 	 	 	 	 	 	 	1581512952	0.44	0.81
12/02/2020 13:09:13	120220	12022020	130913	78.57	12.418817	-57.245017	78.70	-0.090	1.730	1.280	78.59	0.90	1.50	 	 	 	 	 	 	 	 	 	 	 	 	 	 	 	 	 	 	1581512953	1.29	2.39
12/02/2020 13:09:14	120220	12022020	130914	78.71	12.418817	-57.245023	78.82	-0.670	2.520	0.780	78.74	1.00	1.00	 	 	 	 	 	 	 	 	 	 	 	 	 	 	 	 	 	 	1581512954	1.38	2.56
12/02/2020 13:09:15	120220	12022020	130915	78.81	12.418818	-57.245027	78.90	-1.030	1.810	0.360	78.79	-0.20	0.80	 	 	 	 	 	 	 	 	 	 	 	 	 	 	 	 	 	 	1581512955	0.77	1.43
12/02/2020 13:09:16	120220	12022020	130916	78.62	12.418820	-57.245023	78.66	-0.980	0.060	0.490	78.55	-2.10	1.10	 	 	 	 	 	 	 	 	 	 	 	 	 	 	 	 	 	 	1581512956	0.56	1.04
12/02/2020 13:09:17	120220	12022020	130917	78.25	12.418818	-57.245018	78.30	-0.500	-1.740	0.790	78.18	-3.60	1.30	 	 	 	 	 	 	 	 	 	 	 	 	 	 	 	 	 	 	1581512957	1.22	2.26
12/02/2020 13:09:18	120220	12022020	130918	78.00	12.418820	-57.245013	78.08	0.220	-2.650	0.880	77.98	-4.00	1.30	 	 	 	 	 	 	 	 	 	 	 	 	 	 	 	 	 	 	1581512958	1.05	1.94
12/02/2020 13:09:19	120220	12022020	130919	78.01	12.418822	-57.245012	78.13	0.860	-2.330	0.780	78.06	-3.30	1.10	 	 	 	 	 	 	 	 	 	 	 	 	 	 	 	 	 	 	1581512959	0.64	1.19
12/02/2020 13:09:20	120220	12022020	130920	78.42	12.418827	-57.245015	78.59	1.110	-1.260	0.620	78.42	-2.90	1.10	 	 	 	 	 	 	 	 	 	 	 	 	 	 	 	 	 	 	1581512960	0.94	1.74
12/02/2020 13:09:21	120220	12022020	130921	79.01	12.418828	-57.245018	79.16	0.860	0.020	0.740	79.10	-0.80	1.40	 	 	 	 	 	 	 	 	 	 	 	 	 	 	 	 	 	 	1581512961	0.80	1.48
12/02/2020 13:09:22	120220	12022020	130922	79.22	12.418825	-57.245020	79.32	0.200	1.230	1.440	79.22	-0.40	1.70	 	 	 	 	 	 	 	 	 	 	 	 	 	 	 	 	 	 	1581512962	0.83	1.54
12/02/2020 13:09:23	120220	12022020	130923	78.96	12.418818	-57.245022	79.05	-0.580	1.880	2.340	78.89	0.50	3.00	 	 	 	 	 	 	 	 	 	 	 	 	 	 	 	 	 	 	1581512963	1.55	2.87
12/02/2020 13:09:24	120220	12022020	130924	78.56	12.418812	-57.245023	78.66	-1.080	1.630	2.790	78.50	-0.10	3.10	 	 	 	 	 	 	 	 	 	 	 	 	 	 	 	 	 	 	1581512964	1.43	2.65
12/02/2020 13:09:25	120220	12022020	130925	78.31	12.418810	-57.245022	78.41	-1.000	0.540	2.410	78.29	-1.40	2.50	 	 	 	 	 	 	 	 	 	 	 	 	 	 	 	 	 	 	1581512965	0.44	0.81
12/02/2020 13:09:26	120220	12022020	130926	78.36	12.418813	-57.245018	78.52	-0.440	-0.960	1.520	78.42	-2.80	1.60	 	 	 	 	 	 	 	 	 	 	 	 	 	 	 	 	 	 	1581512966	1.08	2.00
12/02/2020 13:09:27	120220	12022020	130927	78.66	12.418820	-57.245015	78.81	0.210	-1.980	0.620	78.73	-3.40	0.70	 	 	 	 	 	 	 	 	 	 	 	 	 	 	 	 	 	 	1581512967	1.66	3.07
12/02/2020 13:09:28	120220	12022020	130928	78.92	12.418827	-57.245013	79.01	0.550	-1.850	-0.100	78.95	-2.90	0.10	 	 	 	 	 	 	 	 	 	 	 	 	 	 	 	 	 	 	1581512968	1.34	2.48
12/02/2020 13:09:29	120220	12022020	130929	79.03	12.418830	-57.245017	79.09	0.520	-0.900	-0.600	79.03	-1.80	-0.30	 	 	 	 	 	 	 	 	 	 	 	 	 	 	 	 	 	 	1581512969	1.04	1.93
12/02/2020 13:09:30	120220	12022020	130930	79.01	12.418833	-57.245022	79.06	0.300	0.050	-0.610	78.99	-1.00	0.00	 	 	 	 	 	 	 	 	 	 	 	 	 	 	 	 	 	 	1581512970	0.97	1.80
12/02/2020 13:09:31	120220	12022020	130931	78.91	12.418832	-57.245023	78.98	0.070	0.570	0.020	78.89	-0.70	0.80	 	 	 	 	 	 	 	 	 	 	 	 	 	 	 	 	 	 	1581512971	0.53	0.98
12/02/2020 13:09:32	120220	12022020	130932	78.93	12.418828	-57.245023	79.06	-0.060	0.700	0.850	78.93	-0.70	1.10	 	 	 	 	 	 	 	 	 	 	 	 	 	 	 	 	 	 	1581512972	0.72	1.33
12/02/2020 13:09:33	120220	12022020	130933	79.05	12.418825	-57.245022	79.18	-0.110	0.490	1.570	79.06	-1.00	2.30	 	 	 	 	 	 	 	 	 	 	 	 	 	 	 	 	 	 	1581512973	0.80	1.48
12/02/2020 13:09:34	120220	12022020	130934	79.00	12.418822	-57.245020	79.11	-0.080	-0.070	2.230	79.00	-1.30	2.50	 	 	 	 	 	 	 	 	 	 	 	 	 	 	 	 	 	 	1581512974	0.77	1.43
12/02/2020 13:09:35	120220	12022020	130935	78.82	12.418818	-57.245017	78.96	-0.030	-0.670	2.860	78.79	-2.20	3.40	 	 	 	 	 	 	 	 	 	 	 	 	 	 	 	 	 	 	1581512975	0.98	1.81
12/02/2020 13:09:36	120220	12022020	130936	78.80	12.418815	-57.245013	78.98	-0.040	-0.900	3.190	78.82	-2.20	3.60	 	 	 	 	 	 	 	 	 	 	 	 	 	 	 	 	 	 	1581512976	1.02	1.89
12/02/2020 13:09:37	120220	12022020	130937	78.93	12.418813	-57.245012	79.11	-0.090	-0.590	3.000	78.95	-1.70	3.20	 	 	 	 	 	 	 	 	 	 	 	 	 	 	 	 	 	 	1581512977	0.59	1.09
12/02/2020 13:09:38	120220	12022020	130938	79.00	12.418813	-57.245013	79.15	-0.130	0.090	2.340	79.00	-1.00	2.40	 	 	 	 	 	 	 	 	 	 	 	 	 	 	 	 	 	 	1581512978	0.49	0.91
12/02/2020 13:09:39	120220	12022020	130939	79.01	12.418817	-57.245018	79.16	-0.060	0.480	1.380	79.03	-0.90	1.40	 	 	 	 	 	 	 	 	 	 	 	 	 	 	 	 	 	 	1581512979	1.17	2.17
12/02/2020 13:09:40	120220	12022020	130940	79.15	12.418823	-57.245020	79.30	0.040	0.240	0.280	79.20	-1.30	0.30	 	 	 	 	 	 	 	 	 	 	 	 	 	 	 	 	 	 	1581512980	1.30	2.41
12/02/2020 13:09:41	120220	12022020	130941	79.36	12.418828	-57.245020	79.48	0.120	-0.370	-0.590	79.38	-1.90	-0.30	 	 	 	 	 	 	 	 	 	 	 	 	 	 	 	 	 	 	1581512981	1.22	2.26
12/02/2020 13:09:42	120220	12022020	130942	79.37	12.418832	-57.245017	79.45	0.190	-0.830	-0.810	79.35	-2.20	-0.30	 	 	 	 	 	 	 	 	 	 	 	 	 	 	 	 	 	 	1581512982	0.94	1.74
12/02/2020 13:09:43	120220	12022020	130943	79.22	12.418833	-57.245015	79.29	0.290	-0.760	-0.520	79.18	-1.90	0.10	 	 	 	 	 	 	 	 	 	 	 	 	 	 	 	 	 	 	1581512983	0.43	0.80
12/02/2020 13:09:44	120220	12022020	130944	79.05	12.418832	-57.245015	79.13	0.310	-0.290	-0.080	79.03	-1.50	0.50	 	 	 	 	 	 	 	 	 	 	 	 	 	 	 	 	 	 	1581512984	0.36	0.67
12/02/2020 13:09:45	120220	12022020	130945	79.03	12.418830	-57.245017	79.15	0.220	-0.020	0.300	79.05	-1.40	0.90	 	 	 	 	 	 	 	 	 	 	 	 	 	 	 	 	 	 	1581512985	0.38	0.70
12/02/2020 13:09:46	120220	12022020	130946	79.19	12.418828	-57.245015	79.34	0.060	-0.180	0.790	79.23	-1.60	1.50	 	 	 	 	 	 	 	 	 	 	 	 	 	 	 	 	 	 	1581512986	0.19	0.35
12/02/2020 13:09:47	120220	12022020	130947	79.41	12.418827	-57.245013	79.59	-0.200	-0.180	1.530	79.46	-1.40	2.20	 	 	 	 	 	 	 	 	 	 	 	 	 	 	 	 	 	 	1581512987	0.71	1.31
12/02/2020 13:09:48	120220	12022020	130948	79.69	12.418823	-57.245012	79.90	-0.570	0.360	2.240	79.74	-0.70	2.90	 	 	 	 	 	 	 	 	 	 	 	 	 	 	 	 	 	 	1581512988	0.98	1.81
12/02/2020 13:09:49	120220	12022020	130949	79.93	12.418817	-57.245015	80.12	-0.850	0.960	2.750	79.96	-0.30	3.30	 	 	 	 	 	 	 	 	 	 	 	 	 	 	 	 	 	 	1581512989	1.47	2.72
12/02/2020 13:09:50	120220	12022020	130950	80.01	12.418810	-57.245017	80.18	-0.780	0.760	2.980	80.01	-1.00	3.40	 	 	 	 	 	 	 	 	 	 	 	 	 	 	 	 	 	 	1581512990	1.49	2.76
12/02/2020 13:09:51	120220	12022020	130951	79.92	12.418805	-57.245017	80.04	-0.220	-0.410	2.910	79.87	-2.40	3.20	 	 	 	 	 	 	 	 	 	 	 	 	 	 	 	 	 	 	1581512991	0.88	1.63
12/02/2020 13:09:52	120220	12022020	130952	79.63	12.418807	-57.245010	79.73	0.610	-1.810	2.620	79.56	-3.50	2.80	 	 	 	 	 	 	 	 	 	 	 	 	 	 	 	 	 	 	1581512992	1.16	2.15
12/02/2020 13:09:53	120220	12022020	130953	79.33	12.418810	-57.245005	79.46	1.280	-2.390	1.950	79.31	-3.50	1.90	 	 	 	 	 	 	 	 	 	 	 	 	 	 	 	 	 	 	1581512993	1.60	2.96
12/02/2020 13:09:54	120220	12022020	130954	79.43	12.418818	-57.245003	79.60	1.360	-1.560	0.860	79.51	-2.20	0.80	 	 	 	 	 	 	 	 	 	 	 	 	 	 	 	 	 	 	1581512994	1.88	3.48
12/02/2020 13:09:55	120220	12022020	130955	79.98	12.418827	-57.245007	80.18	0.780	0.220	-0.090	80.12	-0.40	0.10	 	 	 	 	 	 	 	 	 	 	 	 	 	 	 	 	 	 	1581512995	2.03	3.76
12/02/2020 13:09:56	120220	12022020	130956	80.68	12.418832	-57.245015	80.86	-0.110	1.810	-0.420	80.80	0.80	0.10	 	 	 	 	 	 	 	 	 	 	 	 	 	 	 	 	 	 	1581512996	1.79	3.32
12/02/2020 13:09:57	120220	12022020	130957	81.16	12.418830	-57.245020	81.29	-0.880	2.230	0.010	81.21	0.60	0.80	 	 	 	 	 	 	 	 	 	 	 	 	 	 	 	 	 	 	1581512997	1.15	2.13
12/02/2020 13:09:58	120220	12022020	130958	81.28	12.418825	-57.245020	81.39	-1.280	1.370	0.930	81.27	-0.60	1.70	 	 	 	 	 	 	 	 	 	 	 	 	 	 	 	 	 	 	1581512998	1.11	2.06
12/02/2020 13:09:59	120220	12022020	130959	81.17	12.418818	-57.245015	81.29	-1.280	-0.180	1.890	81.13	-2.20	2.70	 	 	 	 	 	 	 	 	 	 	 	 	 	 	 	 	 	 	1581512999	1.82	3.37
12/02/2020 13:10:00	120220	12022020	131000	80.88	12.418810	-57.245010	81.01	-0.890	-1.700	2.820	80.81	-3.50	3.60	 	 	 	 	 	 	 	 	 	 	 	 	 	 	 	 	 	 	1581513000	2.26	4.19
12/02/2020 13:10:01	120220	12022020	131001	80.48	12.418802	-57.245003	80.59	-0.180	-2.480	3.640	80.40	-3.80	4.20	 	 	 	 	 	 	 	 	 	 	 	 	 	 	 	 	 	 	1581513001	2.22	4.11
12/02/2020 13:10:02	120220	12022020	131002	80.13	12.418795	-57.245000	80.28	0.610	-2.040	3.770	80.09	-2.90	3.90	1017.30	26.50	26.50	20.60	20.70	652.0	70.0	70.0	395.0	28.5	352.00	11.00	71.00	10.40	45768	11344.0	27.6	27.5	1581513002	1.30	2.41
12/02/2020 13:10:03	120220	12022020	131003	80.00	12.418797	-57.245002	80.16	1.070	-0.650	2.860	80.01	-1.40	2.60	 	 	 	 	 	 	 	 	 	 	 	 	 	 	 	 	 	 	1581513003	0.56	1.04
12/02/2020 13:10:04	120220	12022020	131004	80.22	12.418805	-57.245008	80.38	1.000	0.680	0.900	80.31	-0.40	0.40	 	 	 	 	 	 	 	 	 	 	 	 	 	 	 	 	 	 	1581513004	2.23	4.13
12/02/2020 13:10:05	120220	12022020	131005	80.76	12.418818	-57.245015	80.90	0.600	1.090	-1.360	80.88	-0.40	-1.60	 	 	 	 	 	 	 	 	 	 	 	 	 	 	 	 	 	 	1581513005	3.21	5.94
12/02/2020 13:10:06	120220	12022020	131006	81.28	12.418832	-57.245017	81.36	0.120	0.560	-2.610	81.35	-1.10	-2.20	 	 	 	 	 	 	 	 	 	 	 	 	 	 	 	 	 	 	1581513006	2.71	5.02
12/02/2020 13:10:07	120220	12022020	131007	81.50	12.418835	-57.245013	81.52	-0.260	-0.110	-2.330	81.50	-1.60	-1.50	 	 	 	 	 	 	 	 	 	 	 	 	 	 	 	 	 	 	1581513007	1.12	2.07
12/02/2020 13:10:08	120220	12022020	131008	81.34	12.418830	-57.245008	81.31	-0.410	-0.380	-1.060	81.26	-1.70	0.00	 	 	 	 	 	 	 	 	 	 	 	 	 	 	 	 	 	 	1581513008	1.33	2.46
12/02/2020 13:10:09	120220	12022020	131009	80.76	12.418820	-57.245008	80.70	-0.350	-0.340	0.630	80.61	-1.60	1.70	 	 	 	 	 	 	 	 	 	 	 	 	 	 	 	 	 	 	1581513009	2.00	3.70
12/02/2020 13:10:10	120220	12022020	131010	80.06	12.418812	-57.245007	80.07	-0.300	-0.240	2.120	80.06	-1.60	2.20	 	 	 	 	 	 	 	 	 	 	 	 	 	 	 	 	 	 	1581513010	1.92	3.56
12/02/2020 13:10:11	120220	12022020	131011	79.76	12.418805	-57.245007	79.87	-0.370	-0.120	3.080	79.77	-1.40	3.70	 	 	 	 	 	 	 	 	 	 	 	 	 	 	 	 	 	 	1581513011	1.37	2.54
12/02/2020 13:10:12	120220	12022020	131012	80.03	12.418802	-57.245007	80.21	-0.450	-0.030	3.480	80.12	-1.40	3.90	 	 	 	 	 	 	 	 	 	 	 	 	 	 	 	 	 	 	1581513012	0.84	1.56
12/02/2020 13:10:13	120220	12022020	131013	80.58	12.418800	-57.245008	80.77	-0.400	-0.150	3.350	80.67	-1.60	3.60	 	 	 	 	 	 	 	 	 	 	 	 	 	 	 	 	 	 	1581513013	0.42	0.78
12/02/2020 13:10:14	120220	12022020	131014	80.96	12.418800	-57.245008	81.09	-0.190	-0.470	2.850	80.99	-1.90	3.00	 	 	 	 	 	 	 	 	 	 	 	 	 	 	 	 	 	 	1581513014	0.06	0.11
12/02/2020 13:10:15	120220	12022020	131015	80.98	12.418800	-57.245007	81.05	0.120	-0.730	2.230	80.95	-2.20	2.40	 	 	 	 	 	 	 	 	 	 	 	 	 	 	 	 	 	 	1581513015	0.32	0.59
12/02/2020 13:10:16	120220	12022020	131016	80.83	12.418803	-57.245005	80.90	0.500	-0.860	1.530	80.80	-2.20	1.60	 	 	 	 	 	 	 	 	 	 	 	 	 	 	 	 	 	 	1581513016	0.47	0.87
12/02/2020 13:10:17	120220	12022020	131017	80.73	12.418807	-57.245005	80.80	0.830	-0.820	0.700	80.72	-2.10	0.80	 	 	 	 	 	 	 	 	 	 	 	 	 	 	 	 	 	 	1581513017	0.79	1.46
12/02/2020 13:10:18	120220	12022020	131018	80.66	12.418812	-57.245005	80.71	0.900	-0.420	-0.160	80.64	-1.50	-0.00	 	 	 	 	 	 	 	 	 	 	 	 	 	 	 	 	 	 	1581513018	1.24	2.30
12/02/2020 13:10:19	120220	12022020	131019	80.59	12.418818	-57.245005	80.62	0.520	0.450	-0.760	80.57	-0.50	-0.40	 	 	 	 	 	 	 	 	 	 	 	 	 	 	 	 	 	 	1581513019	1.43	2.65
12/02/2020 13:10:20	120220	12022020	131020	80.54	12.418822	-57.245010	80.59	-0.260	1.410	-0.860	80.55	0.30	-0.40	 	 	 	 	 	 	 	 	 	 	 	 	 	 	 	 	 	 	1581513020	1.28	2.37
12/02/2020 13:10:21	120220	12022020	131021	80.67	12.418823	-57.245015	80.75	-1.050	1.710	-0.650	80.73	0.10	-0.10	 	 	 	 	 	 	 	 	 	 	 	 	 	 	 	 	 	 	1581513021	1.13	2.09
12/02/2020 13:10:22	120220	12022020	131022	80.93	12.418820	-57.245018	81.08	-1.270	0.670	-0.210	80.99	-0.30	0.10	 	 	 	 	 	 	 	 	 	 	 	 	 	 	 	 	 	 	1581513022	0.69	1.28
12/02/2020 13:10:23	120220	12022020	131023	81.18	12.418817	-57.245013	81.25	-0.650	-1.380	0.710	81.18	-3.50	1.70	 	 	 	 	 	 	 	 	 	 	 	 	 	 	 	 	 	 	1581513023	1.25	2.31
12/02/2020 13:10:24	120220	12022020	131024	81.04	12.418810	-57.245005	81.10	0.410	-2.910	2.060	81.04	-4.00	2.10	 	 	 	 	 	 	 	 	 	 	 	 	 	 	 	 	 	 	1581513024	2.38	4.41
12/02/2020 13:10:25	120220	12022020	131025	80.77	12.418803	-57.244998	80.86	1.050	-2.520	3.300	80.74	-3.20	4.00	 	 	 	 	 	 	 	 	 	 	 	 	 	 	 	 	 	 	1581513025	2.06	3.82
12/02/2020 13:10:26	120220	12022020	131026	80.69	12.418797	-57.245000	80.81	0.820	-0.530	3.910	80.70	-1.00	4.30	 	 	 	 	 	 	 	 	 	 	 	 	 	 	 	 	 	 	1581513026	1.40	2.59
12/02/2020 13:10:27	120220	12022020	131027	80.83	12.418793	-57.245008	80.97	0.000	1.530	3.670	80.88	0.70	3.70	 	 	 	 	 	 	 	 	 	 	 	 	 	 	 	 	 	 	1581513027	2.01	3.72
12/02/2020 13:10:28	120220	12022020	131028	81.10	12.418793	-57.245018	81.23	-0.700	2.380	2.660	81.16	0.90	2.50	 	 	 	 	 	 	 	 	 	 	 	 	 	 	 	 	 	 	1581513028	1.89	3.50
12/02/2020 13:10:29	120220	12022020	131029	81.42	12.418798	-57.245022	81.53	-0.770	1.710	1.320	81.48	-0.30	1.20	 	 	 	 	 	 	 	 	 	 	 	 	 	 	 	 	 	 	1581513029	1.43	2.65
12/02/2020 13:10:30	120220	12022020	131030	81.62	12.418807	-57.245022	81.66	-0.260	-0.000	0.120	81.63	-2.20	0.20	 	 	 	 	 	 	 	 	 	 	 	 	 	 	 	 	 	 	1581513030	1.64	3.04
12/02/2020 13:10:31	120220	12022020	131031	81.60	12.418813	-57.245017	81.60	0.390	-1.910	-0.760	81.59	-3.80	-0.60	 	 	 	 	 	 	 	 	 	 	 	 	 	 	 	 	 	 	1581513031	1.92	3.56
12/02/2020 13:10:32	120220	12022020	131032	81.50	12.418820	-57.245012	81.49	0.760	-2.870	-1.170	81.49	-4.10	-0.70	 	 	 	 	 	 	 	 	 	 	 	 	 	 	 	 	 	 	1581513032	1.69	3.13
12/02/2020 13:10:33	120220	12022020	131033	81.52	12.418820	-57.245008	81.55	0.690	-2.110	-0.890	81.55	-2.70	-0.20	 	 	 	 	 	 	 	 	 	 	 	 	 	 	 	 	 	 	1581513033	0.54	1.00
12/02/2020 13:10:34	120220	12022020	131034	81.69	12.418817	-57.245013	81.74	0.280	-0.110	-0.060	81.73	-0.60	0.80	 	 	 	 	 	 	 	 	 	 	 	 	 	 	 	 	 	 	1581513034	1.18	2.19
12/02/2020 13:10:35	120220	12022020	131035	81.84	12.418810	-57.245022	81.90	-0.240	1.800	1.070	81.85	0.90	1.90	 	 	 	 	 	 	 	 	 	 	 	 	 	 	 	 	 	 	1581513035	2.26	4.19
12/02/2020 13:10:36	120220	12022020	131036	81.87	12.418803	-57.245028	81.93	-0.660	2.410	1.990	81.87	0.80	2.70	 	 	 	 	 	 	 	 	 	 	 	 	 	 	 	 	 	 	1581513036	2.05	3.80
12/02/2020 13:10:37	120220	12022020	131037	81.78	12.418800	-57.245030	81.85	-0.740	1.470	2.590	81.74	-0.60	3.20	 	 	 	 	 	 	 	 	 	 	 	 	 	 	 	 	 	 	1581513037	0.96	1.78
12/02/2020 13:10:38	120220	12022020	131038	81.62	12.418797	-57.245027	81.72	-0.390	-0.340	2.920	81.61	-2.50	3.30	 	 	 	 	 	 	 	 	 	 	 	 	 	 	 	 	 	 	1581513038	0.83	1.54
12/02/2020 13:10:39	120220	12022020	131039	81.68	12.418797	-57.245020	81.82	0.230	-2.060	2.860	81.72	-3.90	3.20	 	 	 	 	 	 	 	 	 	 	 	 	 	 	 	 	 	 	1581513039	1.23	2.28
12/02/2020 13:10:40	120220	12022020	131040	81.88	12.418797	-57.245015	82.02	0.760	-2.750	2.640	81.91	-3.90	2.90	 	 	 	 	 	 	 	 	 	 	 	 	 	 	 	 	 	 	1581513040	1.09	2.02
12/02/2020 13:10:41	120220	12022020	131041	81.99	12.418798	-57.245015	82.10	0.870	-1.930	2.310	82.00	-2.60	2.50	 	 	 	 	 	 	 	 	 	 	 	 	 	 	 	 	 	 	1581513041	0.24	0.44
12/02/2020 13:10:42	120220	12022020	131042	81.96	12.418800	-57.245018	82.03	0.500	-0.200	1.750	81.94	-0.90	1.90	 	 	 	 	 	 	 	 	 	 	 	 	 	 	 	 	 	 	1581513042	1.03	1.91
12/02/2020 13:10:43	120220	12022020	131043	81.83	12.418802	-57.245027	81.87	-0.090	1.270	0.910	81.80	0.20	0.90	 	 	 	 	 	 	 	 	 	 	 	 	 	 	 	 	 	 	1581513043	1.74	3.22
12/02/2020 13:10:44	120220	12022020	131044	81.75	12.418807	-57.245032	81.79	-0.560	1.780	-0.110	81.76	0.40	-0.10	 	 	 	 	 	 	 	 	 	 	 	 	 	 	 	 	 	 	1581513044	1.56	2.89
12/02/2020 13:10:45	120220	12022020	131045	81.85	12.418812	-57.245035	81.91	-0.770	1.450	-1.020	81.89	-0.20	-0.80	 	 	 	 	 	 	 	 	 	 	 	 	 	 	 	 	 	 	1581513045	1.19	2.20
12/02/2020 13:10:46	120220	12022020	131046	82.04	12.418815	-57.245035	82.17	-0.690	0.590	-1.480	82.10	-0.50	-1.00	 	 	 	 	 	 	 	 	 	 	 	 	 	 	 	 	 	 	1581513046	0.78	1.44
12/02/2020 13:10:47	120220	12022020	131047	82.33	12.418817	-57.245033	82.38	-0.330	-0.540	-1.230	82.36	-2.40	-0.50	 	 	 	 	 	 	 	 	 	 	 	 	 	 	 	 	 	 	1581513047	0.32	0.59
12/02/2020 13:10:48	120220	12022020	131048	82.40	12.418815	-57.245032	82.43	0.240	-1.580	-0.490	82.39	-3.20	0.30	 	 	 	 	 	 	 	 	 	 	 	 	 	 	 	 	 	 	1581513048	0.64	1.19
12/02/2020 13:10:49	120220	12022020	131049	82.31	12.418812	-57.245028	82.34	0.700	-2.020	0.420	82.27	-3.30	1.30	 	 	 	 	 	 	 	 	 	 	 	 	 	 	 	 	 	 	1581513049	0.99	1.83
12/02/2020 13:10:50	120220	12022020	131050	82.06	12.418807	-57.245027	82.11	0.830	-1.620	1.490	82.01	-2.60	2.40	 	 	 	 	 	 	 	 	 	 	 	 	 	 	 	 	 	 	1581513050	0.99	1.83
12/02/2020 13:10:51	120220	12022020	131051	81.91	12.418802	-57.245028	82.02	0.630	-0.650	2.550	81.93	-1.60	3.30	 	 	 	 	 	 	 	 	 	 	 	 	 	 	 	 	 	 	1581513051	1.03	1.91
12/02/2020 13:10:52	120220	12022020	131052	82.06	12.418798	-57.245030	82.21	0.280	0.390	3.250	82.12	-0.60	3.80	 	 	 	 	 	 	 	 	 	 	 	 	 	 	 	 	 	 	1581513052	1.09	2.02
12/02/2020 13:10:53	120220	12022020	131053	82.34	12.418795	-57.245033	82.49	-0.060	1.100	3.400	82.39	-0.10	3.70	 	 	 	 	 	 	 	 	 	 	 	 	 	 	 	 	 	 	1581513053	0.89	1.65
12/02/2020 13:10:54	120220	12022020	131054	82.55	12.418793	-57.245035	82.66	-0.320	1.300	2.970	82.57	-0.10	3.10	 	 	 	 	 	 	 	 	 	 	 	 	 	 	 	 	 	 	1581513054	0.48	0.89
12/02/2020 13:10:55	120220	12022020	131055	82.62	12.418793	-57.245035	82.70	-0.480	0.970	2.200	82.62	-0.60	2.30	 	 	 	 	 	 	 	 	 	 	 	 	 	 	 	 	 	 	1581513055	0.31	0.57
12/02/2020 13:10:56	120220	12022020	131056	82.60	12.418797	-57.245037	82.67	-0.510	0.340	1.320	82.60	-1.30	1.40	 	 	 	 	 	 	 	 	 	 	 	 	 	 	 	 	 	 	1581513056	0.60	1.11
12/02/2020 13:10:57	120220	12022020	131057	82.66	12.418802	-57.245037	82.73	-0.350	-0.500	0.380	82.68	-2.20	0.50	 	 	 	 	 	 	 	 	 	 	 	 	 	 	 	 	 	 	1581513057	0.87	1.61
12/02/2020 13:10:58	120220	12022020	131058	82.77	12.418805	-57.245035	82.83	-0.000	-1.410	-0.380	82.78	-2.60	0.20	 	 	 	 	 	 	 	 	 	 	 	 	 	 	 	 	 	 	1581513058	1.04	1.93
12/02/2020 13:10:59	120220	12022020	131059	82.79	12.418810	-57.245033	82.80	0.300	-1.770	-0.690	82.77	-2.90	-0.20	 	 	 	 	 	 	 	 	 	 	 	 	 	 	 	 	 	 	1581513059	0.96	1.78
12/02/2020 13:11:00	120220	12022020	131100	82.62	12.418812	-57.245033	82.60	0.330	-1.150	-0.570	82.56	-2.10	0.00	 	 	 	 	 	 	 	 	 	 	 	 	 	 	 	 	 	 	1581513060	0.40	0.74
12/02/2020 13:11:01	120220	12022020	131101	82.35	12.418812	-57.245035	82.35	0.180	-0.150	-0.150	82.31	-1.20	0.50	 	 	 	 	 	 	 	 	 	 	 	 	 	 	 	 	 	 	1581513061	0.66	1.22
12/02/2020 13:11:02	120220	12022020	131102	82.25	12.418808	-57.245038	82.31	0.130	0.390	0.340	82.25	-1.00	0.70	1017.20	26.50	26.60	20.80	20.80	658.0	70.0	70.0	395.0	28.5	359.00	10.30	80.00	9.70	46115	11072.0	27.6	27.6	1581513062	0.79	1.46
12/02/2020 13:11:03	120220	12022020	131103	82.42	12.418807	-57.245038	82.51	0.280	0.320	0.790	82.46	-1.10	1.40	 	 	 	 	 	 	 	 	 	 	 	 	 	 	 	 	 	 	1581513063	0.49	0.91
12/02/2020 13:11:04	120220	12022020	131104	82.62	12.418805	-57.245035	82.73	0.390	0.090	1.280	82.65	-1.30	1.90	 	 	 	 	 	 	 	 	 	 	 	 	 	 	 	 	 	 	1581513064	0.73	1.35
12/02/2020 13:11:05	120220	12022020	131105	82.66	12.418802	-57.245033	82.75	0.220	0.150	1.830	82.65	-1.10	2.40	 	 	 	 	 	 	 	 	 	 	 	 	 	 	 	 	 	 	1581513065	0.68	1.26
12/02/2020 13:11:06	120220	12022020	131106	82.61	12.418800	-57.245033	82.71	-0.200	0.460	2.290	82.60	-0.80	2.80	 	 	 	 	 	 	 	 	 	 	 	 	 	 	 	 	 	 	1581513066	0.59	1.09
12/02/2020 13:11:07	120220	12022020	131107	82.59	12.418797	-57.245035	82.70	-0.600	0.620	2.510	82.59	-0.80	2.90	 	 	 	 	 	 	 	 	 	 	 	 	 	 	 	 	 	 	1581513067	0.71	1.31
12/02/2020 13:11:08	120220	12022020	131108	82.58	12.418795	-57.245037	82.69	-0.680	0.190	2.420	82.57	-1.50	2.70	 	 	 	 	 	 	 	 	 	 	 	 	 	 	 	 	 	 	1581513068	0.46	0.85
12/02/2020 13:11:09	120220	12022020	131109	82.50	12.418797	-57.245037	82.56	-0.300	-0.790	2.040	82.47	-2.60	2.20	 	 	 	 	 	 	 	 	 	 	 	 	 	 	 	 	 	 	1581513069	0.24	0.44
12/02/2020 13:11:10	120220	12022020	131110	82.35	12.418798	-57.245033	82.38	0.360	-1.750	1.500	82.31	-3.30	1.80	 	 	 	 	 	 	 	 	 	 	 	 	 	 	 	 	 	 	1581513070	0.94	1.74
12/02/2020 13:11:11	120220	12022020	131111	82.13	12.418802	-57.245028	82.16	0.860	-1.870	1.110	82.09	-2.90	1.40	 	 	 	 	 	 	 	 	 	 	 	 	 	 	 	 	 	 	1581513071	1.09	2.02
12/02/2020 13:11:12	120220	12022020	131112	82.01	12.418805	-57.245027	82.06	0.830	-0.880	0.750	82.01	-1.60	0.90	 	 	 	 	 	 	 	 	 	 	 	 	 	 	 	 	 	 	1581513072	0.62	1.15
12/02/2020 13:11:13	120220	12022020	131113	82.15	12.418807	-57.245032	82.21	0.290	0.610	0.090	82.21	-0.20	0.20	 	 	 	 	 	 	 	 	 	 	 	 	 	 	 	 	 	 	1581513073	0.99	1.83
12/02/2020 13:11:14	120220	12022020	131114	82.46	12.418812	-57.245037	82.51	-0.350	1.560	-0.590	82.46	0.10	-0.00	 	 	 	 	 	 	 	 	 	 	 	 	 	 	 	 	 	 	1581513074	1.58	2.93
12/02/2020 13:11:15	120220	12022020	131115	82.62	12.418817	-57.245040	82.62	-0.730	1.410	-0.680	82.61	-0.30	-0.10	 	 	 	 	 	 	 	 	 	 	 	 	 	 	 	 	 	 	1581513075	1.12	2.07
12/02/2020 13:11:16	120220	12022020	131116	82.47	12.418815	-57.245038	82.47	-0.730	0.490	-0.080	82.43	-1.30	0.70	 	 	 	 	 	 	 	 	 	 	 	 	 	 	 	 	 	 	1581513076	0.31	0.57
12/02/2020 13:11:17	120220	12022020	131117	82.23	12.418812	-57.245035	82.27	-0.430	-0.560	0.790	82.19	-2.30	1.60	 	 	 	 	 	 	 	 	 	 	 	 	 	 	 	 	 	 	1581513077	1.22	2.26
12/02/2020 13:11:18	120220	12022020	131118	82.10	12.418807	-57.245032	82.17	-0.030	-1.330	1.550	82.09	-2.80	2.20	 	 	 	 	 	 	 	 	 	 	 	 	 	 	 	 	 	 	1581513078	1.43	2.65
12/02/2020 13:11:19	120220	12022020	131119	82.11	12.418802	-57.245028	82.20	0.280	-1.500	2.050	82.13	-2.70	2.60	 	 	 	 	 	 	 	 	 	 	 	 	 	 	 	 	 	 	1581513079	1.11	2.06
12/02/2020 13:11:20	120220	12022020	131120	82.20	12.418800	-57.245028	82.31	0.390	-1.010	2.240	82.22	-2.00	2.60	 	 	 	 	 	 	 	 	 	 	 	 	 	 	 	 	 	 	1581513080	0.44	0.81
12/02/2020 13:11:21	120220	12022020	131121	82.28	12.418800	-57.245030	82.37	0.400	-0.320	2.070	82.29	-1.40	2.40	 	 	 	 	 	 	 	 	 	 	 	 	 	 	 	 	 	 	1581513081	0.47	0.87
12/02/2020 13:11:22	120220	12022020	131122	82.26	12.418803	-57.245032	82.31	0.340	0.210	1.670	82.24	-1.00	1.90	 	 	 	 	 	 	 	 	 	 	 	 	 	 	 	 	 	 	1581513082	0.84	1.56
12/02/2020 13:11:23	120220	12022020	131123	82.18	12.418808	-57.245033	82.24	0.230	0.480	1.240	82.18	-0.90	1.50	 	 	 	 	 	 	 	 	 	 	 	 	 	 	 	 	 	 	1581513083	0.91	1.69
12/02/2020 13:11:24	120220	12022020	131124	82.23	12.418812	-57.245033	82.31	0.060	0.350	0.860	82.26	-1.10	1.20	 	 	 	 	 	 	 	 	 	 	 	 	 	 	 	 	 	 	1581513084	0.64	1.19
12/02/2020 13:11:25	120220	12022020	131125	82.37	12.418813	-57.245032	82.44	-0.130	-0.020	0.620	82.39	-1.50	1.00	 	 	 	 	 	 	 	 	 	 	 	 	 	 	 	 	 	 	1581513085	0.52	0.96
12/02/2020 13:11:26	120220	12022020	131126	82.37	12.418813	-57.245028	82.40	-0.340	-0.180	0.660	82.37	-1.50	1.10	 	 	 	 	 	 	 	 	 	 	 	 	 	 	 	 	 	 	1581513086	0.44	0.81
12/02/2020 13:11:27	120220	12022020	131127	82.15	12.418812	-57.245028	82.17	-0.470	-0.070	0.880	82.10	-1.30	1.30	 	 	 	 	 	 	 	 	 	 	 	 	 	 	 	 	 	 	1581513087	0.32	0.59
12/02/2020 13:11:28	120220	12022020	131128	81.93	12.418810	-57.245030	81.97	-0.470	0.010	0.820	81.90	-1.40	1.20	 	 	 	 	 	 	 	 	 	 	 	 	 	 	 	 	 	 	1581513088	0.27	0.50
12/02/2020 13:11:29	120220	12022020	131129	81.83	12.418812	-57.245030	81.88	-0.340	-0.140	0.550	81.83	-1.60	0.90	 	 	 	 	 	 	 	 	 	 	 	 	 	 	 	 	 	 	1581513089	0.36	0.67
12/02/2020 13:11:30	120220	12022020	131130	81.87	12.418815	-57.245030	81.94	-0.170	-0.390	0.340	81.89	-1.80	0.70	 	 	 	 	 	 	 	 	 	 	 	 	 	 	 	 	 	 	1581513090	0.60	1.11
12/02/2020 13:11:31	120220	12022020	131131	82.05	12.418817	-57.245030	82.13	0.030	-0.690	0.360	82.08	-2.10	0.90	 	 	 	 	 	 	 	 	 	 	 	 	 	 	 	 	 	 	1581513091	0.45	0.83
12/02/2020 13:11:32	120220	12022020	131132	82.13	12.418817	-57.245028	82.19	0.300	-0.950	0.730	82.11	-2.30	1.40	 	 	 	 	 	 	 	 	 	 	 	 	 	 	 	 	 	 	1581513092	0.39	0.72
12/02/2020 13:11:33	120220	12022020	131133	81.95	12.418815	-57.245025	82.00	0.520	-0.820	1.170	81.92	-1.90	1.70	 	 	 	 	 	 	 	 	 	 	 	 	 	 	 	 	 	 	1581513093	0.62	1.15
12/02/2020 13:11:34	120220	12022020	131134	81.90	12.418813	-57.245025	82.00	0.530	-0.170	1.380	81.94	-1.20	1.80	 	 	 	 	 	 	 	 	 	 	 	 	 	 	 	 	 	 	1581513094	0.36	0.67
12/02/2020 13:11:35	120220	12022020	131135	82.15	12.418812	-57.245027	82.27	0.350	0.530	1.480	82.20	-0.60	2.00	 	 	 	 	 	 	 	 	 	 	 	 	 	 	 	 	 	 	1581513095	0.47	0.87
12/02/2020 13:11:36	120220	12022020	131136	82.23	12.418810	-57.245028	82.28	0.050	0.790	1.720	82.18	-0.60	2.20	 	 	 	 	 	 	 	 	 	 	 	 	 	 	 	 	 	 	1581513096	0.53	0.98
12/02/2020 13:11:37	120220	12022020	131137	81.82	12.418810	-57.245028	81.82	-0.220	0.470	1.870	81.71	-1.10	2.30	 	 	 	 	 	 	 	 	 	 	 	 	 	 	 	 	 	 	1581513097	0.15	0.28
12/02/2020 13:11:38	120220	12022020	131138	81.28	12.418812	-57.245027	81.30	-0.380	-0.120	1.650	81.21	-1.70	1.90	 	 	 	 	 	 	 	 	 	 	 	 	 	 	 	 	 	 	1581513098	0.56	1.04
12/02/2020 13:11:39	120220	12022020	131139	81.08	12.418817	-57.245025	81.17	-0.340	-0.630	1.030	81.10	-2.10	1.10	 	 	 	 	 	 	 	 	 	 	 	 	 	 	 	 	 	 	1581513099	1.03	1.91
12/02/2020 13:11:40	120220	12022020	131140	81.35	12.418822	-57.245023	81.47	-0.140	-0.900	0.240	81.43	-2.20	0.40	 	 	 	 	 	 	 	 	 	 	 	 	 	 	 	 	 	 	1581513100	1.26	2.33
12/02/2020 13:11:41	120220	12022020	131141	81.81	12.418827	-57.245023	81.93	0.030	-0.820	-0.330	81.89	-2.00	0.00	 	 	 	 	 	 	 	 	 	 	 	 	 	 	 	 	 	 	1581513101	1.10	2.04
12/02/2020 13:11:42	120220	12022020	131142	82.19	12.418828	-57.245023	82.28	-0.010	-0.400	-0.460	82.26	-1.50	0.00	 	 	 	 	 	 	 	 	 	 	 	 	 	 	 	 	 	 	1581513102	0.46	0.85
12/02/2020 13:11:43	120220	12022020	131143	82.39	12.418827	-57.245023	82.45	-0.160	0.040	-0.180	82.40	-1.20	0.50	 	 	 	 	 	 	 	 	 	 	 	 	 	 	 	 	 	 	1581513103	0.41	0.76
12/02/2020 13:11:44	120220	12022020	131144	82.30	12.418823	-57.245025	82.34	-0.190	0.240	0.500	82.24	-1.10	1.30	 	 	 	 	 	 	 	 	 	 	 	 	 	 	 	 	 	 	1581513104	1.02	1.89
12/02/2020 13:11:45	120220	12022020	131145	81.91	12.418817	-57.245023	81.94	-0.040	0.150	1.460	81.81	-1.20	2.30	 	 	 	 	 	 	 	 	 	 	 	 	 	 	 	 	 	 	1581513105	1.25	2.31
12/02/2020 13:11:46	120220	12022020	131146	81.43	12.418813	-57.245022	81.49	0.060	0.050	2.300	81.35	-1.20	2.90	 	 	 	 	 	 	 	 	 	 	 	 	 	 	 	 	 	 	1581513106	1.06	1.96
12/02/2020 13:11:47	120220	12022020	131147	81.21	12.418812	-57.245020	81.31	-0.030	0.160	2.510	81.21	-1.10	2.80	 	 	 	 	 	 	 	 	 	 	 	 	 	 	 	 	 	 	1581513107	0.37	0.69
12/02/2020 13:11:48	120220	12022020	131148	81.30	12.418813	-57.245022	81.43	-0.170	0.110	2.000	81.35	-1.40	2.10	 	 	 	 	 	 	 	 	 	 	 	 	 	 	 	 	 	 	1581513108	0.53	0.98
12/02/2020 13:11:49	120220	12022020	131149	81.51	12.418817	-57.245023	81.63	-0.100	-0.440	1.270	81.55	-2.10	1.40	 	 	 	 	 	 	 	 	 	 	 	 	 	 	 	 	 	 	1581513109	0.94	1.74
12/02/2020 13:11:50	120220	12022020	131150	81.61	12.418822	-57.245020	81.70	0.270	-1.280	0.760	81.61	-2.40	1.30	 	 	 	 	 	 	 	 	 	 	 	 	 	 	 	 	 	 	1581513110	1.03	1.91
12/02/2020 13:11:51	120220	12022020	131151	81.52	12.418823	-57.245015	81.58	0.740	-1.670	0.490	81.48	-2.80	0.80	 	 	 	 	 	 	 	 	 	 	 	 	 	 	 	 	 	 	1581513111	1.17	2.17
12/02/2020 13:11:52	120220	12022020	131152	81.33	12.418827	-57.245012	81.39	0.890	-1.010	0.250	81.30	-1.80	0.60	 	 	 	 	 	 	 	 	 	 	 	 	 	 	 	 	 	 	1581513112	0.86	1.59
12/02/2020 13:11:53	120220	12022020	131153	81.36	12.418830	-57.245015	81.48	0.430	0.420	-0.040	81.41	-0.30	0.30	 	 	 	 	 	 	 	 	 	 	 	 	 	 	 	 	 	 	1581513113	0.86	1.59
12/02/2020 13:11:54	120220	12022020	131154	81.73	12.418832	-57.245020	81.87	-0.490	1.640	-0.130	81.82	0.50	0.40	 	 	 	 	 	 	 	 	 	 	 	 	 	 	 	 	 	 	1581513114	1.19	2.20
12/02/2020 13:11:55	120220	12022020	131155	82.07	12.418830	-57.245023	82.18	-1.350	1.930	0.320	82.10	0.40	1.10	 	 	 	 	 	 	 	 	 	 	 	 	 	 	 	 	 	 	1581513115	1.04	1.93
12/02/2020 13:11:56	120220	12022020	131156	82.09	12.418822	-57.245025	82.17	-1.620	1.170	1.120	82.06	-0.70	1.90	 	 	 	 	 	 	 	 	 	 	 	 	 	 	 	 	 	 	1581513116	1.58	2.93
12/02/2020 13:11:57	120220	12022020	131157	81.84	12.418815	-57.245022	81.91	-1.060	-0.270	1.780	81.78	-2.20	2.40	 	 	 	 	 	 	 	 	 	 	 	 	 	 	 	 	 	 	1581513117	1.84	3.41
12/02/2020 13:11:58	120220	12022020	131158	81.50	12.418810	-57.245017	81.56	0.050	-1.750	2.070	81.43	-3.50	2.50	 	 	 	 	 	 	 	 	 	 	 	 	 	 	 	 	 	 	1581513118	1.44	2.67
12/02/2020 13:11:59	120220	12022020	131159	81.13	12.418812	-57.245012	81.20	1.070	-2.510	2.120	81.06	-3.80	2.50	 	 	 	 	 	 	 	 	 	 	 	 	 	 	 	 	 	 	1581513119	1.04	1.93
12/02/2020 13:12:00	120220	12022020	131200	80.86	12.418815	-57.245008	80.95	1.430	-2.190	1.980	80.83	-3.10	2.30	 	 	 	 	 	 	 	 	 	 	 	 	 	 	 	 	 	 	1581513120	1.01	1.87
12/02/2020 13:12:01	120220	12022020	131201	80.87	12.418820	-57.245010	81.00	1.040	-0.960	1.580	80.91	-1.70	1.70	 	 	 	 	 	 	 	 	 	 	 	 	 	 	 	 	 	 	1581513121	1.00	1.85
12/02/2020 13:12:02	120220	12022020	131202	81.13	12.418823	-57.245013	81.39	0.370	0.490	0.840	81.22	-1.20	1.50	1017.30	26.50	26.50	20.80	20.90	643.0	71.0	71.0	396.0	28.6	358.00	9.80	80.00	9.40	45584	11162.0	27.6	27.5	1581513122	1.18	2.19
12/02/2020 13:12:03	120220	12022020	131203	81.78	12.418827	-57.245018	81.95	-0.110	1.370	0.150	81.89	0.10	0.40	 	 	 	 	 	 	 	 	 	 	 	 	 	 	 	 	 	 	1581513123	1.09	2.02
12/02/2020 13:12:04	120220	12022020	131204	82.18	12.418828	-57.245018	82.28	-0.340	1.530	0.030	82.18	0.20	0.40	 	 	 	 	 	 	 	 	 	 	 	 	 	 	 	 	 	 	1581513124	0.34	0.63
12/02/2020 13:12:05	120220	12022020	131205	82.16	12.418827	-57.245018	82.22	-0.610	1.310	0.460	82.11	-0.20	1.10	 	 	 	 	 	 	 	 	 	 	 	 	 	 	 	 	 	 	1581513125	0.54	1.00
12/02/2020 13:12:06	120220	12022020	131206	81.86	12.418822	-57.245017	81.92	-0.960	0.780	0.960	81.79	-0.90	1.50	 	 	 	 	 	 	 	 	 	 	 	 	 	 	 	 	 	 	1581513126	1.01	1.87
12/02/2020 13:12:07	120220	12022020	131207	81.51	12.418817	-57.245015	81.58	-1.080	-0.180	1.290	81.44	-2.00	1.80	 	 	 	 	 	 	 	 	 	 	 	 	 	 	 	 	 	 	1581513127	0.92	1.70
12/02/2020 13:12:08	120220	12022020	131208	81.16	12.418815	-57.245013	81.22	-0.680	-1.390	1.470	81.09	-3.10	1.90	 	 	 	 	 	 	 	 	 	 	 	 	 	 	 	 	 	 	1581513128	0.68	1.26
12/02/2020 13:12:09	120220	12022020	131209	80.89	12.418815	-57.245010	80.98	0.140	-2.140	1.440	80.87	-3.50	1.70	 	 	 	 	 	 	 	 	 	 	 	 	 	 	 	 	 	 	1581513129	0.77	1.43
12/02/2020 13:12:10	120220	12022020	131210	80.90	12.418817	-57.245008	81.02	0.920	-2.020	1.060	80.94	-3.00	1.20	 	 	 	 	 	 	 	 	 	 	 	 	 	 	 	 	 	 	1581513130	0.67	1.24
12/02/2020 13:12:11	120220	12022020	131211	81.12	12.418822	-57.245008	81.24	1.260	-1.200	0.440	81.17	-2.10	0.60	 	 	 	 	 	 	 	 	 	 	 	 	 	 	 	 	 	 	1581513131	1.00	1.85
12/02/2020 13:12:12	120220	12022020	131212	81.34	12.418827	-57.245012	81.45	1.080	-0.140	-0.030	81.38	-1.00	0.30	 	 	 	 	 	 	 	 	 	 	 	 	 	 	 	 	 	 	1581513132	1.24	2.30
12/02/2020 13:12:13	120220	12022020	131213	81.49	12.418830	-57.245013	81.59	0.530	0.790	-0.050	81.51	-0.30	0.50	 	 	 	 	 	 	 	 	 	 	 	 	 	 	 	 	 	 	1581513133	0.74	1.37
12/02/2020 13:12:14	120220	12022020	131214	81.51	12.418828	-57.245013	81.60	-0.130	1.270	0.370	81.49	0.00	1.10	 	 	 	 	 	 	 	 	 	 	 	 	 	 	 	 	 	 	1581513134	0.40	0.74
12/02/2020 13:12:15	120220	12022020	131215	81.31	12.418823	-57.245013	81.37	-0.680	1.300	1.110	81.25	-0.10	1.80	 	 	 	 	 	 	 	 	 	 	 	 	 	 	 	 	 	 	1581513135	1.09	2.02
12/02/2020 13:12:16	120220	12022020	131216	81.06	12.418817	-57.245012	81.15	-1.010	1.100	1.750	81.03	-0.40	2.30	 	 	 	 	 	 	 	 	 	 	 	 	 	 	 	 	 	 	1581513136	1.22	2.26
12/02/2020 13:12:17	120220	12022020	131217	81.04	12.418815	-57.245013	81.17	-1.060	0.590	1.920	81.06	-1.10	2.30	 	 	 	 	 	 	 	 	 	 	 	 	 	 	 	 	 	 	1581513137	0.71	1.31
12/02/2020 13:12:18	120220	12022020	131218	81.19	12.418813	-57.245013	81.31	-0.770	-0.460	1.690	81.19	-1.50	2.20	 	 	 	 	 	 	 	 	 	 	 	 	 	 	 	 	 	 	1581513138	0.06	0.11
12/02/2020 13:12:19	120220	12022020	131219	81.20	12.418817	-57.245012	81.28	-0.100	-1.780	1.430	81.16	-3.50	1.80	 	 	 	 	 	 	 	 	 	 	 	 	 	 	 	 	 	 	1581513139	0.59	1.09
12/02/2020 13:12:20	120220	12022020	131220	80.91	12.418818	-57.245007	80.97	0.780	-2.630	1.370	80.83	-3.90	1.80	 	 	 	 	 	 	 	 	 	 	 	 	 	 	 	 	 	 	1581513140	0.99	1.83
12/02/2020 13:12:21	120220	12022020	131221	80.56	12.418820	-57.245003	80.65	1.450	-2.310	1.410	80.52	-3.10	1.80	 	 	 	 	 	 	 	 	 	 	 	 	 	 	 	 	 	 	1581513141	0.81	1.50
12/02/2020 13:12:22	120220	12022020	131222	80.57	12.418820	-57.245003	80.73	1.510	-0.890	1.150	80.63	-1.50	1.40	 	 	 	 	 	 	 	 	 	 	 	 	 	 	 	 	 	 	1581513142	0.17	0.31
12/02/2020 13:12:23	120220	12022020	131223	80.94	12.418822	-57.245007	81.09	0.830	0.880	0.590	81.01	0.20	0.80	 	 	 	 	 	 	 	 	 	 	 	 	 	 	 	 	 	 	1581513143	0.88	1.63
12/02/2020 13:12:24	120220	12022020	131224	81.17	12.418823	-57.245012	81.25	-0.260	2.160	0.170	81.17	1.10	0.60	 	 	 	 	 	 	 	 	 	 	 	 	 	 	 	 	 	 	1581513144	1.25	2.31
12/02/2020 13:12:25	120220	12022020	131225	81.12	12.418825	-57.245017	81.19	-1.160	2.390	0.110	81.11	0.80	0.60	 	 	 	 	 	 	 	 	 	 	 	 	 	 	 	 	 	 	1581513145	0.91	1.69
12/02/2020 13:12:26	120220	12022020	131226	81.10	12.418825	-57.245018	81.23	-1.420	1.470	0.140	81.12	0.50	0.60	 	 	 	 	 	 	 	 	 	 	 	 	 	 	 	 	 	 	1581513146	0.20	0.37
12/02/2020 13:12:27	120220	12022020	131227	81.30	12.418825	-57.245015	81.42	-1.010	-0.230	0.130	81.34	-2.30	0.60	 	 	 	 	 	 	 	 	 	 	 	 	 	 	 	 	 	 	1581513147	0.57	1.06
12/02/2020 13:12:28	120220	12022020	131228	81.32	12.418823	-57.245010	81.39	-0.170	-1.940	0.430	81.32	-2.90	0.70	 	 	 	 	 	 	 	 	 	 	 	 	 	 	 	 	 	 	1581513148	1.10	2.04
12/02/2020 13:12:29	120220	12022020	131229	81.01	12.418822	-57.245003	81.08	0.660	-2.800	1.120	80.95	-4.00	1.90	 	 	 	 	 	 	 	 	 	 	 	 	 	 	 	 	 	 	1581513149	1.29	2.39
12/02/2020 13:12:30	120220	12022020	131230	80.80	12.418818	-57.245002	80.92	1.000	-2.180	1.830	80.80	-2.80	2.50	 	 	 	 	 	 	 	 	 	 	 	 	 	 	 	 	 	 	1581513150	0.91	1.69
12/02/2020 13:12:31	120220	12022020	131231	80.93	12.418815	-57.245003	81.10	0.700	-0.510	2.220	80.98	-1.10	2.70	 	 	 	 	 	 	 	 	 	 	 	 	 	 	 	 	 	 	1581513151	0.92	1.70
12/02/2020 13:12:32	120220	12022020	131232	81.23	12.418812	-57.245010	81.40	0.140	1.040	2.190	81.29	0.10	2.50	 	 	 	 	 	 	 	 	 	 	 	 	 	 	 	 	 	 	1581513152	1.44	2.67
12/02/2020 13:12:33	120220	12022020	131233	81.50	12.418812	-57.245015	81.63	-0.160	1.630	1.740	81.54	0.30	1.90	 	 	 	 	 	 	 	 	 	 	 	 	 	 	 	 	 	 	1581513153	1.01	1.87
12/02/2020 13:12:34	120220	12022020	131234	81.63	12.418815	-57.245015	81.73	-0.080	1.180	1.020	81.65	-0.50	1.20	 	 	 	 	 	 	 	 	 	 	 	 	 	 	 	 	 	 	1581513154	0.76	1.41
12/02/2020 13:12:35	120220	12022020	131235	81.66	12.418822	-57.245013	81.74	0.130	0.100	0.320	81.66	-1.70	0.50	 	 	 	 	 	 	 	 	 	 	 	 	 	 	 	 	 	 	1581513155	1.35	2.50
12/02/2020 13:12:36	120220	12022020	131236	81.67	12.418825	-57.245010	81.76	0.120	-0.860	-0.080	81.69	-2.40	0.30	 	 	 	 	 	 	 	 	 	 	 	 	 	 	 	 	 	 	1581513156	1.30	2.41
12/02/2020 13:12:37	120220	12022020	131237	81.81	12.418827	-57.245007	81.93	-0.100	-1.270	-0.080	81.86	-2.60	0.40	 	 	 	 	 	 	 	 	 	 	 	 	 	 	 	 	 	 	1581513157	0.61	1.13
12/02/2020 13:12:38	120220	12022020	131238	82.02	12.418825	-57.245005	82.19	-0.190	-1.280	0.160	82.07	-2.60	0.50	 	 	 	 	 	 	 	 	 	 	 	 	 	 	 	 	 	 	1581513158	0.57	1.06
12/02/2020 13:12:39	120220	12022020	131239	82.08	12.418822	-57.245005	82.14	0.060	-0.930	0.610	82.04	-1.90	1.20	 	 	 	 	 	 	 	 	 	 	 	 	 	 	 	 	 	 	1581513159	0.75	1.39
12/02/2020 13:12:40	120220	12022020	131240	81.87	12.418818	-57.245005	81.90	0.260	-0.030	0.970	81.83	-1.60	1.30	 	 	 	 	 	 	 	 	 	 	 	 	 	 	 	 	 	 	1581513160	0.57	1.06
12/02/2020 13:12:41	120220	12022020	131241	81.77	12.418817	-57.245008	81.89	0.060	1.080	1.090	81.79	0.10	1.50	 	 	 	 	 	 	 	 	 	 	 	 	 	 	 	 	 	 	1581513161	0.73	1.35
12/02/2020 13:12:42	120220	12022020	131242	81.95	12.418817	-57.245013	82.09	-0.400	1.560	1.170	81.99	0.10	1.70	 	 	 	 	 	 	 	 	 	 	 	 	 	 	 	 	 	 	1581513162	1.03	1.91
12/02/2020 13:12:43	120220	12022020	131243	82.11	12.418817	-57.245015	82.24	-0.690	0.950	1.420	82.13	-0.90	2.00	 	 	 	 	 	 	 	 	 	 	 	 	 	 	 	 	 	 	1581513163	0.56	1.04
12/02/2020 13:12:44	120220	12022020	131244	82.13	12.418813	-57.245013	82.26	-0.440	-0.490	1.720	82.13	-2.40	2.20	 	 	 	 	 	 	 	 	 	 	 	 	 	 	 	 	 	 	1581513164	0.66	1.22
12/02/2020 13:12:45	120220	12022020	131245	82.12	12.418812	-57.245008	82.24	0.300	-1.880	1.860	82.12	-3.50	2.30	 	 	 	 	 	 	 	 	 	 	 	 	 	 	 	 	 	 	1581513165	1.19	2.20
12/02/2020 13:12:46	120220	12022020	131246	82.13	12.418812	-57.245003	82.25	1.070	-2.380	1.840	82.12	-3.50	2.30	 	 	 	 	 	 	 	 	 	 	 	 	 	 	 	 	 	 	1581513166	1.06	1.96
12/02/2020 13:12:47	120220	12022020	131247	82.06	12.418813	-57.245000	82.15	1.290	-1.760	1.830	82.03	-2.60	2.30	 	 	 	 	 	 	 	 	 	 	 	 	 	 	 	 	 	 	1581513167	0.47	0.87
12/02/2020 13:12:48	120220	12022020	131248	81.88	12.418813	-57.245002	81.96	0.780	-0.360	1.800	81.84	-1.00	2.20	 	 	 	 	 	 	 	 	 	 	 	 	 	 	 	 	 	 	1581513168	0.34	0.63
12/02/2020 13:12:49	120220	12022020	131249	81.74	12.418813	-57.245007	81.83	-0.140	1.210	1.640	81.73	0.40	2.00	 	 	 	 	 	 	 	 	 	 	 	 	 	 	 	 	 	 	1581513169	0.94	1.74
12/02/2020 13:12:50	120220	12022020	131250	81.73	12.418815	-57.245012	81.83	-0.970	2.170	1.320	81.74	0.90	1.60	 	 	 	 	 	 	 	 	 	 	 	 	 	 	 	 	 	 	1581513170	1.18	2.19
12/02/2020 13:12:51	120220	12022020	131251	81.84	12.418815	-57.245017	81.94	-1.280	1.920	0.860	81.87	0.10	1.10	 	 	 	 	 	 	 	 	 	 	 	 	 	 	 	 	 	 	1581513171	0.79	1.46
12/02/2020 13:12:52	120220	12022020	131252	81.96	12.418817	-57.245015	82.09	-0.920	0.560	0.360	82.00	-0.40	0.90	 	 	 	 	 	 	 	 	 	 	 	 	 	 	 	 	 	 	1581513172	0.29	0.54
12/02/2020 13:12:53	120220	12022020	131253	82.10	12.418818	-57.245012	82.16	-0.210	-0.970	0.030	82.09	-2.70	0.40	 	 	 	 	 	 	 	 	 	 	 	 	 	 	 	 	 	 	1581513173	0.93	1.72
12/02/2020 13:12:54	120220	12022020	131254	81.99	12.418818	-57.245008	82.01	0.380	-1.810	0.020	81.99	-3.00	0.40	 	 	 	 	 	 	 	 	 	 	 	 	 	 	 	 	 	 	1581513174	0.79	1.46
12/02/2020 13:12:55	120220	12022020	131255	81.73	12.418818	-57.245007	81.76	0.640	-1.840	0.280	81.68	-3.00	0.90	 	 	 	 	 	 	 	 	 	 	 	 	 	 	 	 	 	 	1581513175	0.16	0.30
12/02/2020 13:12:56	120220	12022020	131256	81.51	12.418818	-57.245008	81.56	0.720	-1.410	0.630	81.48	-2.50	1.20	 	 	 	 	 	 	 	 	 	 	 	 	 	 	 	 	 	 	1581513176	0.24	0.44
12/02/2020 13:12:57	120220	12022020	131257	81.44	12.418818	-57.245008	81.53	0.720	-0.810	0.970	81.45	-1.90	1.50	 	 	 	 	 	 	 	 	 	 	 	 	 	 	 	 	 	 	1581513177	0.20	0.37
12/02/2020 13:12:58	120220	12022020	131258	81.61	12.418818	-57.245008	81.73	0.550	-0.070	1.300	81.66	-1.00	1.80	 	 	 	 	 	 	 	 	 	 	 	 	 	 	 	 	 	 	1581513178	0.09	0.17
12/02/2020 13:12:59	120220	12022020	131259	81.88	12.418817	-57.245010	82.02	0.090	0.870	1.540	81.93	-0.10	2.00	 	 	 	 	 	 	 	 	 	 	 	 	 	 	 	 	 	 	1581513179	0.51	0.94
12/02/2020 13:13:00	120220	12022020	131300	82.00	12.418813	-57.245013	82.10	-0.470	1.630	1.740	81.99	0.40	2.20	 	 	 	 	 	 	 	 	 	 	 	 	 	 	 	 	 	 	1581513180	0.93	1.72
12/02/2020 13:13:01	120220	12022020	131301	81.89	12.418810	-57.245015	81.98	-0.800	1.590	1.880	81.86	-0.00	2.30	 	 	 	 	 	 	 	 	 	 	 	 	 	 	 	 	 	 	1581513181	0.89	1.65
12/02/2020 13:13:02	120220	12022020	131302	81.78	12.418808	-57.245017	81.89	-0.740	0.570	1.760	81.78	-1.30	2.10	1017.30	26.50	26.60	21.10	21.10	667.0	72.0	72.0	398.0	28.6	353.00	10.30	74.00	9.90	46789	9721.0	27.5	27.5	1581513182	0.34	0.63
12/02/2020 13:13:03	120220	12022020	131303	81.84	12.418808	-57.245013	81.97	-0.400	-0.900	1.370	81.87	-2.70	1.60	 	 	 	 	 	 	 	 	 	 	 	 	 	 	 	 	 	 	1581513183	0.68	1.26
12/02/2020 13:13:04	120220	12022020	131304	81.92	12.418810	-57.245008	82.01	-0.020	-1.930	0.950	81.91	-3.40	1.30	 	 	 	 	 	 	 	 	 	 	 	 	 	 	 	 	 	 	1581513184	1.01	1.87
12/02/2020 13:13:05	120220	12022020	131305	81.80	12.418813	-57.245007	81.85	0.240	-1.890	0.700	81.75	-2.90	1.10	 	 	 	 	 	 	 	 	 	 	 	 	 	 	 	 	 	 	1581513185	0.67	1.24
12/02/2020 13:13:06	120220	12022020	131306	81.54	12.418815	-57.245008	81.58	0.350	-0.950	0.540	81.49	-1.80	0.90	 	 	 	 	 	 	 	 	 	 	 	 	 	 	 	 	 	 	1581513186	0.65	1.20
12/02/2020 13:13:07	120220	12022020	131307	81.39	12.418817	-57.245013	81.45	0.350	0.140	0.250	81.39	-0.90	0.50	 	 	 	 	 	 	 	 	 	 	 	 	 	 	 	 	 	 	1581513187	1.09	2.02
12/02/2020 13:13:08	120220	12022020	131308	81.52	12.418820	-57.245018	81.62	0.360	0.670	-0.170	81.57	-0.70	0.10	 	 	 	 	 	 	 	 	 	 	 	 	 	 	 	 	 	 	1581513188	1.06	1.96
12/02/2020 13:13:09	120220	12022020	131309	81.83	12.418823	-57.245018	81.93	0.290	0.500	-0.400	81.89	-1.00	0.10	 	 	 	 	 	 	 	 	 	 	 	 	 	 	 	 	 	 	1581513189	0.70	1.30
12/02/2020 13:13:10	120220	12022020	131310	82.11	12.418825	-57.245017	82.20	0.010	0.090	-0.120	82.15	-1.30	0.60	 	 	 	 	 	 	 	 	 	 	 	 	 	 	 	 	 	 	1581513190	0.52	0.96
12/02/2020 13:13:11	120220	12022020	131311	82.27	12.418822	-57.245013	82.36	-0.430	-0.030	0.660	82.29	-1.30	1.50	 	 	 	 	 	 	 	 	 	 	 	 	 	 	 	 	 	 	1581513191	0.89	1.65
12/02/2020 13:13:12	120220	12022020	131312	82.28	12.418813	-57.245013	82.37	-0.680	0.150	1.610	82.26	-1.20	2.40	 	 	 	 	 	 	 	 	 	 	 	 	 	 	 	 	 	 	1581513192	1.58	2.93
12/02/2020 13:13:13	120220	12022020	131313	82.07	12.418807	-57.245015	82.15	-0.460	0.010	2.400	82.01	-1.50	3.10	 	 	 	 	 	 	 	 	 	 	 	 	 	 	 	 	 	 	1581513193	1.62	3.00
12/02/2020 13:13:14	120220	12022020	131314	81.67	12.418802	-57.245015	81.74	0.100	-0.590	2.860	81.57	-2.20	3.40	 	 	 	 	 	 	 	 	 	 	 	 	 	 	 	 	 	 	1581513194	1.00	1.85
12/02/2020 13:13:15	120220	12022020	131315	81.22	12.418800	-57.245012	81.31	0.570	-1.150	2.860	81.15	-2.50	3.20	 	 	 	 	 	 	 	 	 	 	 	 	 	 	 	 	 	 	1581513195	0.65	1.20
12/02/2020 13:13:16	120220	12022020	131316	80.96	12.418803	-57.245010	81.07	0.630	-1.090	2.420	80.94	-2.20	2.60	 	 	 	 	 	 	 	 	 	 	 	 	 	 	 	 	 	 	1581513196	0.77	1.43
12/02/2020 13:13:17	120220	12022020	131317	80.98	12.418808	-57.245010	81.11	0.300	-0.370	1.670	81.01	-1.30	1.70	 	 	 	 	 	 	 	 	 	 	 	 	 	 	 	 	 	 	1581513197	1.14	2.11
12/02/2020 13:13:18	120220	12022020	131318	81.30	12.418815	-57.245015	81.46	-0.170	0.530	0.660	81.30	-1.00	1.40	 	 	 	 	 	 	 	 	 	 	 	 	 	 	 	 	 	 	1581513198	1.54	2.85
12/02/2020 13:13:19	120220	12022020	131319	81.92	12.418820	-57.245020	82.07	-0.470	1.030	-0.500	82.04	-0.30	-0.40	 	 	 	 	 	 	 	 	 	 	 	 	 	 	 	 	 	 	1581513199	1.58	2.93
12/02/2020 13:13:20	120220	12022020	131320	82.43	12.418825	-57.245023	82.52	-0.450	0.660	-1.190	82.47	-1.10	-0.70	 	 	 	 	 	 	 	 	 	 	 	 	 	 	 	 	 	 	1581513200	1.10	2.04
12/02/2020 13:13:21	120220	12022020	131321	82.37	12.418825	-57.245020	82.38	-0.190	-0.430	-0.870	82.29	-2.20	-0.10	 	 	 	 	 	 	 	 	 	 	 	 	 	 	 	 	 	 	1581513201	0.45	0.83
12/02/2020 13:13:22	120220	12022020	131322	81.90	12.418822	-57.245015	81.94	0.060	-1.300	0.120	81.82	-2.70	1.00	 	 	 	 	 	 	 	 	 	 	 	 	 	 	 	 	 	 	1581513202	1.36	2.52
12/02/2020 13:13:23	120220	12022020	131323	81.65	12.418817	-57.245012	81.75	0.140	-1.160	1.140	81.63	-2.10	1.90	 	 	 	 	 	 	 	 	 	 	 	 	 	 	 	 	 	 	1581513203	1.53	2.83
12/02/2020 13:13:24	120220	12022020	131324	81.65	12.418808	-57.245013	81.78	0.050	-0.230	1.930	81.65	-1.20	2.60	 	 	 	 	 	 	 	 	 	 	 	 	 	 	 	 	 	 	1581513204	1.49	2.76
12/02/2020 13:13:25	120220	12022020	131325	81.57	12.418803	-57.245017	81.68	0.010	0.540	2.390	81.53	-0.70	2.90	 	 	 	 	 	 	 	 	 	 	 	 	 	 	 	 	 	 	1581513205	1.48	2.74
12/02/2020 13:13:26	120220	12022020	131326	81.31	12.418802	-57.245020	81.40	0.140	0.440	2.370	81.25	-1.10	2.70	 	 	 	 	 	 	 	 	 	 	 	 	 	 	 	 	 	 	1581513206	0.65	1.20
12/02/2020 13:13:27	120220	12022020	131327	81.11	12.418805	-57.245018	81.23	0.300	-0.220	1.900	81.11	-1.80	2.10	 	 	 	 	 	 	 	 	 	 	 	 	 	 	 	 	 	 	1581513207	0.73	1.35
12/02/2020 13:13:28	120220	12022020	131328	81.29	12.418812	-57.245017	81.47	0.210	-0.690	1.190	81.39	-2.10	1.40	 	 	 	 	 	 	 	 	 	 	 	 	 	 	 	 	 	 	1581513208	1.36	2.52
12/02/2020 13:13:29	120220	12022020	131329	81.83	12.418817	-57.245017	82.00	-0.130	-0.610	0.570	81.95	-1.80	0.80	 	 	 	 	 	 	 	 	 	 	 	 	 	 	 	 	 	 	1581513209	1.10	2.04
12/02/2020 13:13:30	120220	12022020	131330	82.32	12.418818	-57.245018	82.46	-0.460	-0.130	0.310	82.32	-1.60	0.80	 	 	 	 	 	 	 	 	 	 	 	 	 	 	 	 	 	 	1581513210	0.55	1.02
12/02/2020 13:13:31	120220	12022020	131331	82.57	12.418815	-57.245020	82.66	-0.490	0.290	0.400	82.58	-1.00	0.90	 	 	 	 	 	 	 	 	 	 	 	 	 	 	 	 	 	 	1581513211	0.75	1.39
12/02/2020 13:13:32	120220	12022020	131332	82.47	12.418812	-57.245022	82.53	-0.180	0.270	0.720	82.43	-1.20	1.30	 	 	 	 	 	 	 	 	 	 	 	 	 	 	 	 	 	 	1581513212	0.98	1.81
12/02/2020 13:13:33	120220	12022020	131333	82.17	12.418808	-57.245022	82.22	0.250	-0.120	1.110	82.10	-1.60	1.70	 	 	 	 	 	 	 	 	 	 	 	 	 	 	 	 	 	 	1581513213	0.76	1.41
12/02/2020 13:13:34	120220	12022020	131334	81.88	12.418807	-57.245018	81.95	0.470	-0.480	1.420	81.83	-1.90	2.00	 	 	 	 	 	 	 	 	 	 	 	 	 	 	 	 	 	 	1581513214	0.48	0.89
12/02/2020 13:13:35	120220	12022020	131335	81.75	12.418808	-57.245018	81.87	0.310	-0.590	1.590	81.76	-1.90	2.00	 	 	 	 	 	 	 	 	 	 	 	 	 	 	 	 	 	 	1581513215	0.30	0.56
12/02/2020 13:13:36	120220	12022020	131336	81.87	12.418810	-57.245018	82.02	-0.100	-0.410	1.520	81.92	-1.60	1.90	 	 	 	 	 	 	 	 	 	 	 	 	 	 	 	 	 	 	1581513216	0.31	0.57
12/02/2020 13:13:37	120220	12022020	131337	82.18	12.418810	-57.245020	82.35	-0.410	-0.110	1.260	82.26	-1.40	1.60	 	 	 	 	 	 	 	 	 	 	 	 	 	 	 	 	 	 	1581513217	0.40	0.74
12/02/2020 13:13:38	120220	12022020	131338	82.55	12.418810	-57.245022	82.71	-0.370	-0.010	0.970	82.61	-1.40	1.40	 	 	 	 	 	 	 	 	 	 	 	 	 	 	 	 	 	 	1581513218	0.40	0.74
12/02/2020 13:13:39	120220	12022020	131339	82.70	12.418808	-57.245023	82.81	-0.070	-0.100	0.970	82.69	-1.50	1.50	 	 	 	 	 	 	 	 	 	 	 	 	 	 	 	 	 	 	1581513219	0.14	0.26
12/02/2020 13:13:40	120220	12022020	131340	82.51	12.418808	-57.245022	82.59	0.200	-0.130	1.230	82.45	-1.40	1.80	 	 	 	 	 	 	 	 	 	 	 	 	 	 	 	 	 	 	1581513220	0.30	0.56
12/02/2020 13:13:41	120220	12022020	131341	82.16	12.418807	-57.245022	82.22	0.230	-0.050	1.420	82.08	-1.40	1.80	 	 	 	 	 	 	 	 	 	 	 	 	 	 	 	 	 	 	1581513221	0.30	0.56
12/02/2020 13:13:42	120220	12022020	131342	81.90	12.418807	-57.245022	81.99	0.130	-0.160	1.260	81.88	-1.60	1.50	 	 	 	 	 	 	 	 	 	 	 	 	 	 	 	 	 	 	1581513222	0.11	0.20
12/02/2020 13:13:43	120220	12022020	131343	81.96	12.418808	-57.245022	82.09	0.070	-0.540	0.830	82.01	-2.00	1.10	 	 	 	 	 	 	 	 	 	 	 	 	 	 	 	 	 	 	1581513223	0.56	1.04
12/02/2020 13:13:44	120220	12022020	131344	82.24	12.418813	-57.245020	82.48	0.060	-0.690	0.480	82.33	-2.00	1.00	 	 	 	 	 	 	 	 	 	 	 	 	 	 	 	 	 	 	1581513224	0.95	1.76
12/02/2020 13:13:45	120220	12022020	131345	82.79	12.418815	-57.245020	82.92	-0.050	-0.170	0.290	82.86	-1.20	0.70	 	 	 	 	 	 	 	 	 	 	 	 	 	 	 	 	 	 	1581513225	0.57	1.06
12/02/2020 13:13:46	120220	12022020	131346	83.01	12.418815	-57.245023	83.08	-0.250	0.490	0.310	83.01	-1.00	0.70	 	 	 	 	 	 	 	 	 	 	 	 	 	 	 	 	 	 	1581513226	0.71	1.31
12/02/2020 13:13:47	120220	12022020	131347	82.76	12.418812	-57.245027	82.78	-0.350	0.510	0.750	82.66	-1.00	1.50	 	 	 	 	 	 	 	 	 	 	 	 	 	 	 	 	 	 	1581513227	0.87	1.61
12/02/2020 13:13:48	120220	12022020	131348	82.24	12.418808	-57.245027	82.28	-0.230	-0.130	1.490	82.15	-1.80	2.20	 	 	 	 	 	 	 	 	 	 	 	 	 	 	 	 	 	 	1581513228	1.01	1.87
12/02/2020 13:13:49	120220	12022020	131349	81.94	12.418803	-57.245022	82.05	0.040	-0.780	1.920	81.93	-2.20	2.30	 	 	 	 	 	 	 	 	 	 	 	 	 	 	 	 	 	 	1581513229	1.21	2.24
12/02/2020 13:13:50	120220	12022020	131350	82.10	12.418803	-57.245020	82.26	0.220	-0.820	1.660	82.17	-2.00	1.90	 	 	 	 	 	 	 	 	 	 	 	 	 	 	 	 	 	 	1581513230	0.53	0.98
12/02/2020 13:13:51	120220	12022020	131351	82.51	12.418807	-57.245022	82.67	0.120	-0.300	1.000	82.60	-1.40	1.20	 	 	 	 	 	 	 	 	 	 	 	 	 	 	 	 	 	 	1581513231	0.82	1.52
12/02/2020 13:13:52	120220	12022020	131352	82.78	12.418812	-57.245025	82.87	-0.200	0.240	0.510	82.78	-1.00	0.90	 	 	 	 	 	 	 	 	 	 	 	 	 	 	 	 	 	 	1581513232	1.23	2.28
12/02/2020 13:13:53	120220	12022020	131353	82.64	12.418813	-57.245028	82.68	-0.370	0.250	0.430	82.57	-1.30	0.90	 	 	 	 	 	 	 	 	 	 	 	 	 	 	 	 	 	 	1581513233	0.78	1.44
12/02/2020 13:13:54	120220	12022020	131354	82.28	12.418813	-57.245028	82.32	-0.150	-0.320	0.540	82.21	-2.00	1.00	 	 	 	 	 	 	 	 	 	 	 	 	 	 	 	 	 	 	1581513234	0.05	0.09
12/02/2020 13:13:55	120220	12022020	131355	82.10	12.418813	-57.245025	82.21	0.340	-0.940	0.620	82.12	-2.40	1.10	 	 	 	 	 	 	 	 	 	 	 	 	 	 	 	 	 	 	1581513235	0.70	1.30
12/02/2020 13:13:56	120220	12022020	131356	82.32	12.418813	-57.245022	82.47	0.650	-0.950	0.720	82.39	-2.00	1.20	 	 	 	 	 	 	 	 	 	 	 	 	 	 	 	 	 	 	1581513236	0.75	1.39
12/02/2020 13:13:57	120220	12022020	131357	82.61	12.418812	-57.245022	82.73	0.420	-0.150	0.880	82.64	-1.10	1.30	 	 	 	 	 	 	 	 	 	 	 	 	 	 	 	 	 	 	1581513237	0.40	0.74
12/02/2020 13:13:58	120220	12022020	131358	82.67	12.418808	-57.245025	82.75	-0.200	0.830	0.880	82.65	-0.30	1.20	 	 	 	 	 	 	 	 	 	 	 	 	 	 	 	 	 	 	1581513238	0.95	1.76
12/02/2020 13:13:59	120220	12022020	131359	82.43	12.418807	-57.245030	82.47	-0.690	1.190	0.750	82.34	-0.30	1.20	 	 	 	 	 	 	 	 	 	 	 	 	 	 	 	 	 	 	1581513239	1.03	1.91
12/02/2020 13:14:00	120220	12022020	131400	81.99	12.418808	-57.245032	82.04	-0.660	0.580	0.770	81.91	-1.20	1.20	 	 	 	 	 	 	 	 	 	 	 	 	 	 	 	 	 	 	1581513240	0.50	0.93
12/02/2020 13:14:01	120220	12022020	131401	81.74	12.418812	-57.245030	81.85	-0.170	-0.630	0.820	81.74	-2.40	1.20	 	 	 	 	 	 	 	 	 	 	 	 	 	 	 	 	 	 	1581513241	0.68	1.26
12/02/2020 13:14:02	120220	12022020	131402	81.93	12.418813	-57.245025	82.09	0.320	-1.480	0.650	82.00	-2.90	1.00	1017.30	26.50	26.50	21.10	21.20	724.0	72.0	72.0	404.0	28.7	346.00	10.60	68.00	10.20	48883	10081.0	27.5	27.5	1581513242	1.06	1.96
12/02/2020 13:14:03	120220	12022020	131403	82.26	12.418815	-57.245023	82.39	0.450	-1.290	0.520	82.30	-2.30	1.00	 	 	 	 	 	 	 	 	 	 	 	 	 	 	 	 	 	 	1581513243	0.52	0.96
12/02/2020 13:14:04	120220	12022020	131404	82.34	12.418815	-57.245027	82.43	0.230	-0.470	0.680	82.32	-1.50	1.30	 	 	 	 	 	 	 	 	 	 	 	 	 	 	 	 	 	 	1581513244	0.53	0.98
12/02/2020 13:14:05	120220	12022020	131405	82.13	12.418812	-57.245030	82.20	-0.020	0.070	1.150	82.06	-1.20	1.80	 	 	 	 	 	 	 	 	 	 	 	 	 	 	 	 	 	 	1581513245	1.01	1.87
12/02/2020 13:14:06	120220	12022020	131406	81.84	12.418807	-57.245030	81.83	-0.060	0.030	1.750	81.76	-1.30	2.00	 	 	 	 	 	 	 	 	 	 	 	 	 	 	 	 	 	 	1581513246	0.91	1.69
12/02/2020 13:14:07	120220	12022020	131407	81.44	12.418803	-57.245027	81.57	-0.010	-0.070	2.060	81.42	-1.30	2.40	 	 	 	 	 	 	 	 	 	 	 	 	 	 	 	 	 	 	1581513247	0.82	1.52
12/02/2020 13:14:08	120220	12022020	131408	81.46	12.418803	-57.245025	81.69	-0.060	0.290	1.800	81.50	-1.20	2.30	 	 	 	 	 	 	 	 	 	 	 	 	 	 	 	 	 	 	1581513248	0.23	0.43
12/02/2020 13:14:09	120220	12022020	131409	81.88	12.418807	-57.245028	82.04	-0.230	0.760	1.130	81.95	-0.50	1.30	 	 	 	 	 	 	 	 	 	 	 	 	 	 	 	 	 	 	1581513249	0.76	1.41
12/02/2020 13:14:10	120220	12022020	131410	82.20	12.418810	-57.245032	82.34	-0.350	0.630	0.440	82.24	-1.00	0.70	 	 	 	 	 	 	 	 	 	 	 	 	 	 	 	 	 	 	1581513250	1.03	1.91
12/02/2020 13:14:11	120220	12022020	131411	82.33	12.418812	-57.245033	82.43	-0.260	-0.210	0.110	82.33	-2.00	0.60	 	 	 	 	 	 	 	 	 	 	 	 	 	 	 	 	 	 	1581513251	0.50	0.93
12/02/2020 13:14:12	120220	12022020	131412	82.23	12.418812	-57.245030	82.32	0.050	-1.210	0.300	82.19	-2.80	0.90	 	 	 	 	 	 	 	 	 	 	 	 	 	 	 	 	 	 	1581513252	0.64	1.19
12/02/2020 13:14:13	120220	12022020	131413	81.95	12.418808	-57.245025	82.03	0.380	-1.570	0.800	81.88	-2.80	1.40	 	 	 	 	 	 	 	 	 	 	 	 	 	 	 	 	 	 	1581513253	1.02	1.89
12/02/2020 13:14:14	120220	12022020	131414	81.67	12.418807	-57.245025	81.77	0.470	-1.020	1.170	81.62	-2.00	1.70	 	 	 	 	 	 	 	 	 	 	 	 	 	 	 	 	 	 	1581513254	0.62	1.15
12/02/2020 13:14:15	120220	12022020	131415	81.50	12.418805	-57.245027	81.61	0.280	-0.070	1.340	81.48	-1.10	1.80	 	 	 	 	 	 	 	 	 	 	 	 	 	 	 	 	 	 	1581513255	0.58	1.07
12/02/2020 13:14:16	120220	12022020	131416	81.37	12.418805	-57.245030	81.49	-0.000	0.540	1.470	81.35	-0.70	1.90	 	 	 	 	 	 	 	 	 	 	 	 	 	 	 	 	 	 	1581513256	0.73	1.35
12/02/2020 13:14:17	120220	12022020	131417	81.33	12.418805	-57.245032	81.47	-0.200	0.500	1.420	81.35	-1.00	1.70	 	 	 	 	 	 	 	 	 	 	 	 	 	 	 	 	 	 	1581513257	0.22	0.41
12/02/2020 13:14:18	120220	12022020	131418	81.47	12.418807	-57.245030	81.62	-0.230	0.170	1.120	81.51	-1.20	1.40	 	 	 	 	 	 	 	 	 	 	 	 	 	 	 	 	 	 	1581513258	0.36	0.67
12/02/2020 13:14:19	120220	12022020	131419	81.73	12.418807	-57.245028	81.90	-0.240	0.030	0.820	81.80	-1.30	1.20	 	 	 	 	 	 	 	 	 	 	 	 	 	 	 	 	 	 	1581513259	0.43	0.80
12/02/2020 13:14:20	120220	12022020	131420	82.14	12.418807	-57.245028	82.32	-0.280	0.040	0.720	82.14	-1.30	1.10	 	 	 	 	 	 	 	 	 	 	 	 	 	 	 	 	 	 	1581513260	0.06	0.11
12/02/2020 13:14:21	120220	12022020	131421	82.46	12.418805	-57.245028	82.60	-0.220	-0.190	0.910	82.47	-1.70	1.50	 	 	 	 	 	 	 	 	 	 	 	 	 	 	 	 	 	 	1581513261	0.55	1.02
12/02/2020 13:14:22	120220	12022020	131422	82.32	12.418800	-57.245028	82.38	0.060	-0.640	1.420	82.32	-1.90	1.70	 	 	 	 	 	 	 	 	 	 	 	 	 	 	 	 	 	 	1581513262	0.88	1.63
12/02/2020 13:14:23	120220	12022020	131423	81.69	12.418797	-57.245025	81.74	0.360	-0.710	1.970	81.56	-1.90	2.50	 	 	 	 	 	 	 	 	 	 	 	 	 	 	 	 	 	 	1581513263	0.91	1.69
12/02/2020 13:14:24	120220	12022020	131424	81.14	12.418795	-57.245025	81.25	0.400	-0.240	2.140	81.09	-1.30	2.50	 	 	 	 	 	 	 	 	 	 	 	 	 	 	 	 	 	 	1581513264	0.36	0.67
12/02/2020 13:14:25	120220	12022020	131425	81.07	12.418797	-57.245028	81.24	0.190	0.180	1.800	81.11	-1.10	2.00	 	 	 	 	 	 	 	 	 	 	 	 	 	 	 	 	 	 	1581513265	0.66	1.22
12/02/2020 13:14:26	120220	12022020	131426	81.33	12.418800	-57.245030	81.50	0.010	-0.040	1.280	81.39	-1.60	1.50	 	 	 	 	 	 	 	 	 	 	 	 	 	 	 	 	 	 	1581513266	0.88	1.63
12/02/2020 13:14:27	120220	12022020	131427	81.63	12.418805	-57.245030	81.80	0.050	-0.740	0.800	81.70	-2.30	1.00	 	 	 	 	 	 	 	 	 	 	 	 	 	 	 	 	 	 	1581513267	0.92	1.70
12/02/2020 13:14:28	120220	12022020	131428	81.94	12.418807	-57.245025	82.10	0.170	-1.120	0.440	82.00	-2.40	0.80	 	 	 	 	 	 	 	 	 	 	 	 	 	 	 	 	 	 	1581513268	1.05	1.94
12/02/2020 13:14:29	120220	12022020	131429	82.18	12.418808	-57.245023	82.32	0.190	-0.660	0.420	82.20	-1.60	1.00	 	 	 	 	 	 	 	 	 	 	 	 	 	 	 	 	 	 	1581513269	0.48	0.89
12/02/2020 13:14:30	120220	12022020	131430	82.14	12.418805	-57.245025	82.23	0.060	0.290	0.850	82.08	-0.70	1.50	 	 	 	 	 	 	 	 	 	 	 	 	 	 	 	 	 	 	1581513270	0.75	1.39
12/02/2020 13:14:31	120220	12022020	131431	81.80	12.418798	-57.245027	81.90	-0.180	1.010	1.490	81.73	-0.30	2.10	 	 	 	 	 	 	 	 	 	 	 	 	 	 	 	 	 	 	1581513271	1.25	2.31
12/02/2020 13:14:32	120220	12022020	131432	81.62	12.418795	-57.245028	81.79	-0.440	0.970	1.730	81.62	-0.30	2.10	 	 	 	 	 	 	 	 	 	 	 	 	 	 	 	 	 	 	1581513272	0.92	1.70
12/02/2020 13:14:33	120220	12022020	131433	81.88	12.418795	-57.245028	82.09	-0.580	0.400	1.490	81.96	-1.20	1.80	 	 	 	 	 	 	 	 	 	 	 	 	 	 	 	 	 	 	1581513273	0.15	0.28
12/02/2020 13:14:34	120220	12022020	131434	82.26	12.418797	-57.245027	82.45	-0.480	-0.240	1.140	82.26	-1.40	1.60	 	 	 	 	 	 	 	 	 	 	 	 	 	 	 	 	 	 	1581513274	0.57	1.06
12/02/2020 13:14:35	120220	12022020	131435	82.47	12.418800	-57.245027	82.61	-0.130	-0.760	0.860	82.49	-2.30	1.20	 	 	 	 	 	 	 	 	 	 	 	 	 	 	 	 	 	 	1581513275	0.73	1.35
12/02/2020 13:14:36	120220	12022020	131436	82.56	12.418803	-57.245027	82.70	0.390	-1.120	0.690	82.57	-2.60	1.10	 	 	 	 	 	 	 	 	 	 	 	 	 	 	 	 	 	 	1581513276	0.57	1.06
12/02/2020 13:14:37	120220	12022020	131437	82.61	12.418803	-57.245025	82.75	0.860	-1.400	0.760	82.61	-2.80	1.40	 	 	 	 	 	 	 	 	 	 	 	 	 	 	 	 	 	 	1581513277	0.25	0.46
12/02/2020 13:14:38	120220	12022020	131438	82.45	12.418802	-57.245023	82.55	1.000	-1.380	1.340	82.39	-2.50	2.10	 	 	 	 	 	 	 	 	 	 	 	 	 	 	 	 	 	 	1581513278	0.74	1.37
12/02/2020 13:14:39	120220	12022020	131439	82.14	12.418797	-57.245020	82.27	0.590	-0.600	2.010	82.10	-1.40	2.50	 	 	 	 	 	 	 	 	 	 	 	 	 	 	 	 	 	 	1581513279	1.03	1.91
12/02/2020 13:14:40	120220	12022020	131440	82.10	12.418795	-57.245023	82.28	-0.240	0.780	2.010	82.13	-0.00	2.20	 	 	 	 	 	 	 	 	 	 	 	 	 	 	 	 	 	 	1581513280	0.72	1.33
12/02/2020 13:14:41	120220	12022020	131441	82.38	12.418795	-57.245028	82.57	-1.060	1.860	1.280	82.46	0.70	1.30	 	 	 	 	 	 	 	 	 	 	 	 	 	 	 	 	 	 	1581513281	1.34	2.48
12/02/2020 13:14:42	120220	12022020	131442	82.74	12.418800	-57.245035	82.92	-1.310	1.810	0.420	82.81	0.10	0.60	 	 	 	 	 	 	 	 	 	 	 	 	 	 	 	 	 	 	1581513282	1.44	2.67
12/02/2020 13:14:43	120220	12022020	131443	83.06	12.418803	-57.245035	83.21	-0.770	0.480	-0.100	83.12	-1.60	0.20	 	 	 	 	 	 	 	 	 	 	 	 	 	 	 	 	 	 	1581513283	0.71	1.31
12/02/2020 13:14:44	120220	12022020	131444	83.33	12.418805	-57.245030	83.46	0.150	-1.280	-0.300	83.36	-3.20	0.10	 	 	 	 	 	 	 	 	 	 	 	 	 	 	 	 	 	 	1581513284	1.08	2.00
12/02/2020 13:14:45	120220	12022020	131445	83.40	12.418805	-57.245025	83.48	0.770	-2.230	-0.180	83.37	-3.50	0.40	 	 	 	 	 	 	 	 	 	 	 	 	 	 	 	 	 	 	1581513285	1.29	2.39
12/02/2020 13:14:46	120220	12022020	131446	83.11	12.418803	-57.245022	83.16	0.750	-1.730	0.340	83.11	-3.30	0.60	 	 	 	 	 	 	 	 	 	 	 	 	 	 	 	 	 	 	1581513286	0.49	0.91
12/02/2020 13:14:47	120220	12022020	131447	82.73	12.418802	-57.245027	82.81	0.340	-0.370	1.010	82.69	-1.20	1.60	 	 	 	 	 	 	 	 	 	 	 	 	 	 	 	 	 	 	1581513287	0.98	1.81
12/02/2020 13:14:48	120220	12022020	131448	82.69	12.418798	-57.245033	82.84	-0.020	0.700	1.410	82.73	-0.50	1.90	 	 	 	 	 	 	 	 	 	 	 	 	 	 	 	 	 	 	1581513288	1.40	2.59
12/02/2020 13:14:49	120220	12022020	131449	82.99	12.418798	-57.245037	83.16	-0.110	0.810	1.430	83.07	-0.70	1.80	 	 	 	 	 	 	 	 	 	 	 	 	 	 	 	 	 	 	1581513289	0.80	1.48
12/02/2020 13:14:50	120220	12022020	131450	83.36	12.418800	-57.245035	83.53	-0.050	0.220	1.250	83.43	-1.40	1.60	 	 	 	 	 	 	 	 	 	 	 	 	 	 	 	 	 	 	1581513290	0.35	0.65
12/02/2020 13:14:51	120220	12022020	131451	83.61	12.418802	-57.245033	83.76	-0.050	-0.300	1.170	83.64	-1.70	1.60	 	 	 	 	 	 	 	 	 	 	 	 	 	 	 	 	 	 	1581513291	0.67	1.24
12/02/2020 13:14:52	120220	12022020	131452	83.77	12.418800	-57.245032	83.92	-0.180	-0.260	1.310	83.80	-1.50	1.80	 	 	 	 	 	 	 	 	 	 	 	 	 	 	 	 	 	 	1581513292	0.36	0.67
12/02/2020 13:14:53	120220	12022020	131453	83.88	12.418797	-57.245033	84.03	-0.280	0.010	1.610	83.89	-1.30	2.10	 	 	 	 	 	 	 	 	 	 	 	 	 	 	 	 	 	 	1581513293	0.74	1.37
12/02/2020 13:14:54	120220	12022020	131454	83.90	12.418795	-57.245035	84.02	-0.210	-0.060	1.810	83.89	-1.50	2.20	 	 	 	 	 	 	 	 	 	 	 	 	 	 	 	 	 	 	1581513294	0.79	1.46
12/02/2020 13:14:55	120220	12022020	131455	83.81	12.418793	-57.245035	83.90	0.010	-0.470	1.640	83.78	-1.90	1.90	 	 	 	 	 	 	 	 	 	 	 	 	 	 	 	 	 	 	1581513295	0.10	0.19
12/02/2020 13:14:56	120220	12022020	131456	83.72	12.418797	-57.245035	83.80	0.230	-0.740	1.130	83.71	-2.00	1.70	 	 	 	 	 	 	 	 	 	 	 	 	 	 	 	 	 	 	1581513296	0.58	1.07
12/02/2020 13:14:57	120220	12022020	131457	83.80	12.418800	-57.245035	83.92	0.350	-0.660	0.530	83.85	-1.80	0.80	 	 	 	 	 	 	 	 	 	 	 	 	 	 	 	 	 	 	1581513297	0.86	1.59
12/02/2020 13:14:58	120220	12022020	131458	84.11	12.418803	-57.245035	84.24	0.320	-0.250	0.160	84.11	-1.70	0.60	 	 	 	 	 	 	 	 	 	 	 	 	 	 	 	 	 	 	1581513298	0.72	1.33
12/02/2020 13:14:59	120220	12022020	131459	84.45	12.418805	-57.245037	84.57	0.170	0.150	0.060	84.50	-1.10	0.50	 	 	 	 	 	 	 	 	 	 	 	 	 	 	 	 	 	 	1581513299	0.53	0.98
12/02/2020 13:15:00	120220	12022020	131500	84.63	12.418805	-57.245038	84.72	-0.050	0.310	0.190	84.64	-1.00	0.70	 	 	 	 	 	 	 	 	 	 	 	 	 	 	 	 	 	 	1581513300	0.35	0.65
12/02/2020 13:15:01	120220	12022020	131501	84.56	12.418803	-57.245040	84.62	-0.260	0.360	0.600	84.52	-1.00	1.20	 	 	 	 	 	 	 	 	 	 	 	 	 	 	 	 	 	 	1581513301	0.29	0.54
12/02/2020 13:15:02	120220	12022020	131502	84.33	12.418802	-57.245042	84.38	-0.320	0.220	1.090	84.27	-1.30	1.70	1017.30	26.50	26.60	21.20	21.30	745.0	72.0	72.0	409.0	28.7	346.00	10.30	68.00	10.00	50041	9550.0	27.6	27.5	1581513302	0.50	0.93
12/02/2020 13:15:03	120220	12022020	131503	84.11	12.418800	-57.245042	84.19	-0.080	-0.410	1.420	84.09	-2.10	1.90	 	 	 	 	 	 	 	 	 	 	 	 	 	 	 	 	 	 	1581513303	0.27	0.50
12/02/2020 13:15:04	120220	12022020	131504	84.18	12.418802	-57.245038	84.32	0.310	-1.210	1.490	84.24	-2.70	1.90	 	 	 	 	 	 	 	 	 	 	 	 	 	 	 	 	 	 	1581513304	0.64	1.19
12/02/2020 13:15:05	120220	12022020	131505	84.60	12.418802	-57.245035	84.77	0.400	-1.260	1.510	84.71	-2.30	1.90	 	 	 	 	 	 	 	 	 	 	 	 	 	 	 	 	 	 	1581513305	0.80	1.48
12/02/2020 13:15:06	120220	12022020	131506	85.05	12.418802	-57.245035	85.19	0.020	-0.300	1.530	85.12	-1.10	1.90	 	 	 	 	 	 	 	 	 	 	 	 	 	 	 	 	 	 	1581513306	0.23	0.43
12/02/2020 13:15:07	120220	12022020	131507	85.34	12.418800	-57.245040	85.46	-0.500	0.950	1.410	85.39	-0.10	1.70	 	 	 	 	 	 	 	 	 	 	 	 	 	 	 	 	 	 	1581513307	1.22	2.26
12/02/2020 13:15:08	120220	12022020	131508	85.52	12.418798	-57.245047	85.60	-0.700	1.400	1.100	85.53	-0.10	1.40	 	 	 	 	 	 	 	 	 	 	 	 	 	 	 	 	 	 	1581513308	1.35	2.50
12/02/2020 13:15:09	120220	12022020	131509	85.45	12.418797	-57.245048	85.48	-0.340	0.580	0.900	85.39	-1.40	1.30	 	 	 	 	 	 	 	 	 	 	 	 	 	 	 	 	 	 	1581513309	0.39	0.72
12/02/2020 13:15:10	120220	12022020	131510	85.08	12.418797	-57.245043	85.09	0.310	-0.900	0.940	85.08	-1.90	1.30	 	 	 	 	 	 	 	 	 	 	 	 	 	 	 	 	 	 	1581513310	0.86	1.59
12/02/2020 13:15:11	120220	12022020	131511	84.72	12.418798	-57.245038	84.75	0.750	-1.890	0.940	84.67	-3.30	1.30	 	 	 	 	 	 	 	 	 	 	 	 	 	 	 	 	 	 	1581513311	1.37	2.54
12/02/2020 13:15:12	120220	12022020	131512	84.68	12.418803	-57.245035	84.77	0.690	-1.600	0.710	84.73	-2.40	0.90	 	 	 	 	 	 	 	 	 	 	 	 	 	 	 	 	 	 	1581513312	1.01	1.87
12/02/2020 13:15:13	120220	12022020	131513	85.18	12.418807	-57.245037	85.32	0.280	-0.260	0.150	85.32	-1.00	0.30	 	 	 	 	 	 	 	 	 	 	 	 	 	 	 	 	 	 	1581513313	1.08	2.00
12/02/2020 13:15:14	120220	12022020	131514	86.00	12.418812	-57.245043	86.15	-0.160	1.070	-0.390	86.16	0.00	-0.00	 	 	 	 	 	 	 	 	 	 	 	 	 	 	 	 	 	 	1581513314	1.70	3.15
12/02/2020 13:15:15	120220	12022020	131515	86.64	12.418813	-57.245050	86.73	-0.400	1.380	-0.280	86.72	-0.20	0.40	 	 	 	 	 	 	 	 	 	 	 	 	 	 	 	 	 	 	1581513315	1.20	2.22
12/02/2020 13:15:16	120220	12022020	131516	86.76	12.418810	-57.245050	86.79	-0.470	0.580	0.660	86.72	-1.20	1.60	 	 	 	 	 	 	 	 	 	 	 	 	 	 	 	 	 	 	1581513316	0.68	1.26
12/02/2020 13:15:17	120220	12022020	131517	86.42	12.418802	-57.245045	86.45	-0.460	-0.510	2.070	86.33	-2.10	3.00	 	 	 	 	 	 	 	 	 	 	 	 	 	 	 	 	 	 	1581513317	1.97	3.65
12/02/2020 13:15:18	120220	12022020	131518	86.02	12.418793	-57.245040	86.09	-0.320	-1.030	3.260	85.97	-2.40	3.90	 	 	 	 	 	 	 	 	 	 	 	 	 	 	 	 	 	 	1581513318	2.13	3.94
12/02/2020 13:15:19	120220	12022020	131519	85.92	12.418787	-57.245040	86.05	0.030	-0.980	3.590	85.95	-2.20	3.90	 	 	 	 	 	 	 	 	 	 	 	 	 	 	 	 	 	 	1581513319	1.24	2.30
12/02/2020 13:15:20	120220	12022020	131520	86.14	12.418787	-57.245040	86.28	0.460	-0.820	3.070	86.20	-2.10	3.10	 	 	 	 	 	 	 	 	 	 	 	 	 	 	 	 	 	 	1581513320	0.18	0.33
12/02/2020 13:15:21	120220	12022020	131521	86.49	12.418792	-57.245040	86.60	0.690	-0.680	2.100	86.56	-1.90	2.10	 	 	 	 	 	 	 	 	 	 	 	 	 	 	 	 	 	 	1581513321	0.86	1.59
12/02/2020 13:15:22	120220	12022020	131522	86.83	12.418797	-57.245040	86.91	0.460	-0.220	1.160	86.83	-1.70	1.80	 	 	 	 	 	 	 	 	 	 	 	 	 	 	 	 	 	 	1581513322	1.22	2.26
12/02/2020 13:15:23	120220	12022020	131523	87.00	12.418802	-57.245040	87.03	-0.080	0.500	0.510	87.00	-0.60	0.70	 	 	 	 	 	 	 	 	 	 	 	 	 	 	 	 	 	 	1581513323	0.97	1.80
12/02/2020 13:15:24	120220	12022020	131524	86.94	12.418803	-57.245043	86.94	-0.420	0.830	0.100	86.94	-0.50	0.60	 	 	 	 	 	 	 	 	 	 	 	 	 	 	 	 	 	 	1581513324	0.83	1.54
12/02/2020 13:15:25	120220	12022020	131525	86.84	12.418807	-57.245043	86.85	-0.320	0.490	-0.230	86.84	-1.10	0.10	 	 	 	 	 	 	 	 	 	 	 	 	 	 	 	 	 	 	1581513325	0.54	1.00
12/02/2020 13:15:26	120220	12022020	131526	86.88	12.418810	-57.245042	86.91	-0.060	-0.060	-0.510	86.90	-1.60	-0.10	 	 	 	 	 	 	 	 	 	 	 	 	 	 	 	 	 	 	1581513326	0.77	1.43
12/02/2020 13:15:27	120220	12022020	131527	87.03	12.418812	-57.245040	87.07	0.010	-0.390	-0.410	87.07	-1.80	0.20	 	 	 	 	 	 	 	 	 	 	 	 	 	 	 	 	 	 	1581513327	0.66	1.22
12/02/2020 13:15:28	120220	12022020	131528	87.21	12.418810	-57.245038	87.27	-0.120	-0.570	0.260	87.25	-2.00	1.00	 	 	 	 	 	 	 	 	 	 	 	 	 	 	 	 	 	 	1581513328	0.22	0.41
12/02/2020 13:15:29	120220	12022020	131529	87.44	12.418807	-57.245038	87.52	-0.190	-0.750	1.090	87.48	-2.20	1.80	 	 	 	 	 	 	 	 	 	 	 	 	 	 	 	 	 	 	1581513329	0.91	1.69
12/02/2020 13:15:30	120220	12022020	131530	87.62	12.418802	-57.245037	87.71	-0.080	-0.870	1.860	87.63	-2.20	2.60	 	 	 	 	 	 	 	 	 	 	 	 	 	 	 	 	 	 	1581513330	1.27	2.35
12/02/2020 13:15:31	120220	12022020	131531	87.55	12.418795	-57.245035	87.61	0.070	-0.660	2.630	87.50	-1.80	3.30	 	 	 	 	 	 	 	 	 	 	 	 	 	 	 	 	 	 	1581513331	1.43	2.65
12/02/2020 13:15:32	120220	12022020	131532	87.25	12.418788	-57.245033	87.32	0.150	-0.100	3.280	87.19	-1.20	3.80	 	 	 	 	 	 	 	 	 	 	 	 	 	 	 	 	 	 	1581513332	1.28	2.37
12/02/2020 13:15:33	120220	12022020	131533	87.01	12.418785	-57.245035	87.10	0.160	0.300	3.410	86.98	-1.00	3.70	 	 	 	 	 	 	 	 	 	 	 	 	 	 	 	 	 	 	1581513333	0.73	1.35
12/02/2020 13:15:34	120220	12022020	131534	86.96	12.418787	-57.245033	87.06	0.170	0.210	2.770	86.98	-1.30	2.70	 	 	 	 	 	 	 	 	 	 	 	 	 	 	 	 	 	 	1581513334	0.37	0.69
12/02/2020 13:15:35	120220	12022020	131535	87.16	12.418793	-57.245032	87.26	0.160	-0.070	1.530	87.23	-1.40	1.40	 	 	 	 	 	 	 	 	 	 	 	 	 	 	 	 	 	 	1581513335	1.49	2.76
12/02/2020 13:15:36	120220	12022020	131536	87.57	12.418802	-57.245030	87.66	0.090	0.020	0.220	87.57	-1.40	0.90	 	 	 	 	 	 	 	 	 	 	 	 	 	 	 	 	 	 	1581513336	1.85	3.43
12/02/2020 13:15:37	120220	12022020	131537	88.06	12.418808	-57.245030	88.13	-0.060	0.350	-0.600	88.14	-0.90	-0.30	 	 	 	 	 	 	 	 	 	 	 	 	 	 	 	 	 	 	1581513337	1.44	2.67
12/02/2020 13:15:38	120220	12022020	131538	88.40	12.418810	-57.245032	88.43	-0.210	0.390	-0.710	88.44	-1.10	-0.20	 	 	 	 	 	 	 	 	 	 	 	 	 	 	 	 	 	 	1581513338	0.66	1.22
12/02/2020 13:15:39	120220	12022020	131539	88.50	12.418810	-57.245032	88.52	-0.200	-0.190	-0.430	88.49	-1.90	0.20	 	 	 	 	 	 	 	 	 	 	 	 	 	 	 	 	 	 	1581513339	0.21	0.39
12/02/2020 13:15:40	120220	12022020	131540	88.33	12.418807	-57.245027	88.33	-0.020	-1.150	0.290	88.25	-2.80	1.20	 	 	 	 	 	 	 	 	 	 	 	 	 	 	 	 	 	 	1581513340	1.00	1.85
12/02/2020 13:15:41	120220	12022020	131541	87.90	12.418802	-57.245022	87.91	0.170	-1.660	1.580	87.80	-2.90	2.50	 	 	 	 	 	 	 	 	 	 	 	 	 	 	 	 	 	 	1581513341	1.70	3.15
12/02/2020 13:15:42	120220	12022020	131542	87.51	12.418795	-57.245017	87.59	0.210	-1.130	2.790	87.47	-2.00	3.50	 	 	 	 	 	 	 	 	 	 	 	 	 	 	 	 	 	 	1581513342	1.73	3.20
12/02/2020 13:15:43	120220	12022020	131543	87.52	12.418790	-57.245017	87.67	0.100	-0.030	3.160	87.58	-1.00	3.40	 	 	 	 	 	 	 	 	 	 	 	 	 	 	 	 	 	 	1581513343	1.14	2.11
12/02/2020 13:15:44	120220	12022020	131544	87.95	12.418790	-57.245020	88.12	-0.030	0.770	2.660	88.06	-0.50	2.80	 	 	 	 	 	 	 	 	 	 	 	 	 	 	 	 	 	 	1581513344	0.47	0.87
12/02/2020 13:15:45	120220	12022020	131545	88.49	12.418793	-57.245020	88.63	-0.130	0.900	1.940	88.59	-0.50	2.10	 	 	 	 	 	 	 	 	 	 	 	 	 	 	 	 	 	 	1581513345	0.73	1.35
12/02/2020 13:15:46	120220	12022020	131546	88.91	12.418797	-57.245018	89.01	-0.260	0.710	1.280	88.97	-0.70	1.40	 	 	 	 	 	 	 	 	 	 	 	 	 	 	 	 	 	 	1581513346	0.88	1.63
12/02/2020 13:15:47	120220	12022020	131547	89.11	12.418798	-57.245017	89.17	-0.400	0.440	0.740	89.13	-1.10	1.00	 	 	 	 	 	 	 	 	 	 	 	 	 	 	 	 	 	 	1581513347	0.69	1.28
12/02/2020 13:15:48	120220	12022020	131548	89.12	12.418800	-57.245015	89.15	-0.390	-0.150	0.530	89.12	-1.30	0.90	 	 	 	 	 	 	 	 	 	 	 	 	 	 	 	 	 	 	1581513348	0.43	0.80
12/02/2020 13:15:49	120220	12022020	131549	88.94	12.418800	-57.245012	88.97	-0.080	-1.080	0.730	88.89	-2.80	1.30	 	 	 	 	 	 	 	 	 	 	 	 	 	 	 	 	 	 	1581513349	0.73	1.35
12/02/2020 13:15:50	120220	12022020	131550	88.66	12.418798	-57.245005	88.70	0.400	-1.720	1.040	88.61	-3.00	1.50	 	 	 	 	 	 	 	 	 	 	 	 	 	 	 	 	 	 	1581513350	1.21	2.24
12/02/2020 13:15:51	120220	12022020	131551	88.49	12.418797	-57.245002	88.56	0.730	-1.380	1.170	88.48	-2.30	1.60	 	 	 	 	 	 	 	 	 	 	 	 	 	 	 	 	 	 	1581513351	0.91	1.69
12/02/2020 13:15:52	120220	12022020	131552	88.55	12.418798	-57.245002	88.64	0.650	-0.330	1.110	88.58	-1.30	1.50	 	 	 	 	 	 	 	 	 	 	 	 	 	 	 	 	 	 	1581513352	0.29	0.54
12/02/2020 13:15:53	120220	12022020	131553	88.72	12.418800	-57.245002	88.81	0.270	0.400	1.040	88.75	-0.90	1.50	 	 	 	 	 	 	 	 	 	 	 	 	 	 	 	 	 	 	1581513353	0.46	0.85
12/02/2020 13:15:54	120220	12022020	131554	88.86	12.418800	-57.245000	88.95	-0.110	0.420	1.120	88.88	-1.00	1.60	 	 	 	 	 	 	 	 	 	 	 	 	 	 	 	 	 	 	1581513354	0.36	0.67
12/02/2020 13:15:55	120220	12022020	131555	89.02	12.418800	-57.244997	89.15	-0.400	0.330	1.300	89.08	-1.00	1.80	 	 	 	 	 	 	 	 	 	 	 	 	 	 	 	 	 	 	1581513355	0.99	1.83
12/02/2020 13:15:56	120220	12022020	131556	89.40	12.418798	-57.244993	89.57	-0.640	0.600	1.460	89.50	-0.60	1.90	 	 	 	 	 	 	 	 	 	 	 	 	 	 	 	 	 	 	1581513356	0.82	1.52
12/02/2020 13:15:57	120220	12022020	131557	89.80	12.418793	-57.244993	89.93	-0.750	0.930	1.670	89.83	-0.40	2.20	 	 	 	 	 	 	 	 	 	 	 	 	 	 	 	 	 	 	1581513357	0.81	1.50
12/02/2020 13:15:58	120220	12022020	131558	89.74	12.418790	-57.244995	89.80	-0.520	0.580	1.990	89.67	-1.20	2.50	 	 	 	 	 	 	 	 	 	 	 	 	 	 	 	 	 	 	1581513358	0.94	1.74
12/02/2020 13:15:59	120220	12022020	131559	89.22	12.418787	-57.244992	89.25	0.080	-0.640	2.320	89.10	-2.50	2.80	 	 	 	 	 	 	 	 	 	 	 	 	 	 	 	 	 	 	1581513359	0.82	1.52
12/02/2020 13:16:00	120220	12022020	131600	88.75	12.418788	-57.244983	88.84	0.630	-1.840	2.400	88.75	-3.00	2.80	 	 	 	 	 	 	 	 	 	 	 	 	 	 	 	 	 	 	1581513360	1.60	2.96
12/02/2020 13:16:01	120220	12022020	131601	88.85	12.418792	-57.244977	89.03	0.770	-2.080	2.060	88.95	-3.20	2.20	 	 	 	 	 	 	 	 	 	 	 	 	 	 	 	 	 	 	1581513361	1.69	3.13
12/02/2020 13:16:02	120220	12022020	131602	89.50	12.418795	-57.244973	89.70	0.460	-1.170	1.470	89.50	-2.80	2.00	1017.30	26.40	26.50	20.90	20.90	729.0	71.0	71.0	407.0	28.7	340.00	12.30	66.00	11.80	49257	10695.0	27.6	27.5	1581513362	1.05	1.94
12/02/2020 13:16:03	120220	12022020	131603	90.13	12.418797	-57.244975	90.27	0.030	0.170	1.150	90.19	-0.80	1.60	 	 	 	 	 	 	 	 	 	 	 	 	 	 	 	 	 	 	1581513363	0.48	0.89
12/02/2020 13:16:04	120220	12022020	131604	90.27	12.418795	-57.244977	90.35	-0.240	0.980	1.230	90.26	-0.30	1.70	 	 	 	 	 	 	 	 	 	 	 	 	 	 	 	 	 	 	1581513364	0.53	0.98
12/02/2020 13:16:05	120220	12022020	131605	90.21	12.418792	-57.244975	90.30	-0.340	1.100	1.370	90.20	-0.30	1.80	 	 	 	 	 	 	 	 	 	 	 	 	 	 	 	 	 	 	1581513365	0.70	1.30
12/02/2020 13:16:06	120220	12022020	131606	90.21	12.418790	-57.244972	90.29	-0.380	0.850	1.490	90.21	-0.70	1.90	 	 	 	 	 	 	 	 	 	 	 	 	 	 	 	 	 	 	1581513366	0.90	1.67
12/02/2020 13:16:07	120220	12022020	131607	90.18	12.418788	-57.244968	90.25	-0.380	0.350	1.580	90.17	-1.30	2.00	 	 	 	 	 	 	 	 	 	 	 	 	 	 	 	 	 	 	1581513367	0.88	1.63
12/02/2020 13:16:08	120220	12022020	131608	90.06	12.418788	-57.244965	90.11	-0.260	-0.360	1.510	90.02	-2.00	1.90	 	 	 	 	 	 	 	 	 	 	 	 	 	 	 	 	 	 	1581513368	0.86	1.59
12/02/2020 13:16:09	120220	12022020	131609	89.82	12.418788	-57.244960	89.85	0.010	-1.030	1.430	89.76	-2.50	1.80	 	 	 	 	 	 	 	 	 	 	 	 	 	 	 	 	 	 	1581513369	1.05	1.94
12/02/2020 13:16:10	120220	12022020	131610	89.68	12.418790	-57.244955	89.75	0.320	-1.250	1.350	89.69	-2.50	1.70	 	 	 	 	 	 	 	 	 	 	 	 	 	 	 	 	 	 	1581513370	1.06	1.96
12/02/2020 13:16:11	120220	12022020	131611	89.95	12.418793	-57.244952	90.07	0.510	-0.970	1.090	90.04	-2.10	1.40	 	 	 	 	 	 	 	 	 	 	 	 	 	 	 	 	 	 	1581513371	0.76	1.41
12/02/2020 13:16:12	120220	12022020	131612	90.45	12.418795	-57.244950	90.57	0.480	-0.510	0.820	90.54	-1.70	1.20	 	 	 	 	 	 	 	 	 	 	 	 	 	 	 	 	 	 	1581513372	0.59	1.09
12/02/2020 13:16:13	120220	12022020	131613	90.85	12.418797	-57.244948	90.94	0.250	-0.040	0.740	90.90	-1.20	1.20	 	 	 	 	 	 	 	 	 	 	 	 	 	 	 	 	 	 	1581513373	0.50	0.93
12/02/2020 13:16:14	120220	12022020	131614	90.98	12.418795	-57.244947	91.04	-0.150	0.430	1.020	90.98	-1.00	1.30	 	 	 	 	 	 	 	 	 	 	 	 	 	 	 	 	 	 	1581513374	0.51	0.94
12/02/2020 13:16:15	120220	12022020	131615	90.84	12.418792	-57.244943	90.87	-0.510	0.670	1.680	90.78	-0.70	2.40	 	 	 	 	 	 	 	 	 	 	 	 	 	 	 	 	 	 	1581513375	0.88	1.63
12/02/2020 13:16:16	120220	12022020	131616	90.52	12.418785	-57.244942	90.56	-0.590	0.380	2.450	90.46	-1.20	3.10	 	 	 	 	 	 	 	 	 	 	 	 	 	 	 	 	 	 	1581513376	1.43	2.65
12/02/2020 13:16:17	120220	12022020	131617	90.19	12.418780	-57.244937	90.25	-0.320	-0.250	2.900	90.13	-1.80	3.30	 	 	 	 	 	 	 	 	 	 	 	 	 	 	 	 	 	 	1581513377	1.64	3.04
12/02/2020 13:16:18	120220	12022020	131618	89.92	12.418778	-57.244930	90.00	0.010	-0.630	2.770	89.89	-2.00	2.90	 	 	 	 	 	 	 	 	 	 	 	 	 	 	 	 	 	 	1581513378	1.31	2.43
12/02/2020 13:16:19	120220	12022020	131619	89.89	12.418782	-57.244927	89.99	0.160	-0.510	2.020	89.92	-1.70	2.00	 	 	 	 	 	 	 	 	 	 	 	 	 	 	 	 	 	 	1581513379	1.07	1.98
12/02/2020 13:16:20	120220	12022020	131620	90.18	12.418787	-57.244925	90.30	0.120	-0.120	0.970	90.27	-1.40	1.00	 	 	 	 	 	 	 	 	 	 	 	 	 	 	 	 	 	 	1581513380	1.38	2.56
12/02/2020 13:16:21	120220	12022020	131621	90.57	12.418793	-57.244923	90.66	0.080	-0.010	0.110	90.63	-1.50	0.30	 	 	 	 	 	 	 	 	 	 	 	 	 	 	 	 	 	 	1581513381	1.40	2.59
12/02/2020 13:16:22	120220	12022020	131622	90.79	12.418797	-57.244920	90.83	0.150	-0.450	-0.180	90.80	-2.00	0.30	 	 	 	 	 	 	 	 	 	 	 	 	 	 	 	 	 	 	1581513382	1.11	2.06
12/02/2020 13:16:23	120220	12022020	131623	90.82	12.418797	-57.244913	90.85	0.280	-0.930	0.130	90.81	-2.30	0.80	 	 	 	 	 	 	 	 	 	 	 	 	 	 	 	 	 	 	1581513383	1.44	2.67
12/02/2020 13:16:24	120220	12022020	131624	90.69	12.418793	-57.244907	90.70	0.350	-0.850	0.880	90.64	-1.90	1.60	 	 	 	 	 	 	 	 	 	 	 	 	 	 	 	 	 	 	1581513384	1.63	3.02
12/02/2020 13:16:25	120220	12022020	131625	90.37	12.418788	-57.244902	90.37	0.180	-0.110	1.680	90.29	-1.00	2.40	 	 	 	 	 	 	 	 	 	 	 	 	 	 	 	 	 	 	1581513385	1.29	2.39
12/02/2020 13:16:26	120220	12022020	131626	89.95	12.418785	-57.244902	89.96	-0.250	0.830	2.240	89.95	-0.70	2.50	 	 	 	 	 	 	 	 	 	 	 	 	 	 	 	 	 	 	1581513386	0.78	1.44
12/02/2020 13:16:27	120220	12022020	131627	89.63	12.418783	-57.244902	89.67	-0.690	1.230	2.420	89.60	-0.20	2.80	 	 	 	 	 	 	 	 	 	 	 	 	 	 	 	 	 	 	1581513387	0.34	0.63
12/02/2020 13:16:28	120220	12022020	131628	89.65	12.418783	-57.244900	89.74	-0.770	0.740	2.180	89.70	-1.00	2.40	 	 	 	 	 	 	 	 	 	 	 	 	 	 	 	 	 	 	1581513388	0.42	0.78
12/02/2020 13:16:29	120220	12022020	131629	90.04	12.418787	-57.244895	90.15	-0.410	-0.350	1.580	90.14	-2.20	1.70	 	 	 	 	 	 	 	 	 	 	 	 	 	 	 	 	 	 	1581513389	1.27	2.35
12/02/2020 13:16:30	120220	12022020	131630	90.46	12.418788	-57.244887	90.52	0.170	-1.440	1.030	90.49	-3.00	1.30	 	 	 	 	 	 	 	 	 	 	 	 	 	 	 	 	 	 	1581513390	1.78	3.30
12/02/2020 13:16:31	120220	12022020	131631	90.49	12.418790	-57.244878	90.50	0.690	-1.880	0.900	90.46	-3.10	1.30	 	 	 	 	 	 	 	 	 	 	 	 	 	 	 	 	 	 	1581513391	1.72	3.19
12/02/2020 13:16:32	120220	12022020	131632	90.34	12.418790	-57.244873	90.35	0.840	-1.330	1.070	90.30	-2.20	1.60	 	 	 	 	 	 	 	 	 	 	 	 	 	 	 	 	 	 	1581513392	1.18	2.19
12/02/2020 13:16:33	120220	12022020	131633	90.17	12.418790	-57.244872	90.19	0.510	-0.120	1.490	90.14	-1.00	2.10	 	 	 	 	 	 	 	 	 	 	 	 	 	 	 	 	 	 	1581513393	0.47	0.87
12/02/2020 13:16:34	120220	12022020	131634	90.02	12.418787	-57.244872	90.06	-0.080	0.930	1.890	90.01	-0.20	2.40	 	 	 	 	 	 	 	 	 	 	 	 	 	 	 	 	 	 	1581513394	0.50	0.93
12/02/2020 13:16:35	120220	12022020	131635	89.98	12.418785	-57.244872	90.03	-0.460	1.110	2.020	89.99	-0.40	2.40	 	 	 	 	 	 	 	 	 	 	 	 	 	 	 	 	 	 	1581513395	0.38	0.70
12/02/2020 13:16:36	120220	12022020	131636	90.04	12.418787	-57.244867	90.08	-0.400	0.500	1.760	90.06	-1.10	2.00	 	 	 	 	 	 	 	 	 	 	 	 	 	 	 	 	 	 	1581513396	1.07	1.98
12/02/2020 13:16:37	120220	12022020	131637	90.13	12.418788	-57.244858	90.16	-0.130	-0.040	1.250	90.14	-1.50	1.50	 	 	 	 	 	 	 	 	 	 	 	 	 	 	 	 	 	 	1581513397	1.62	3.00
12/02/2020 13:16:38	120220	12022020	131638	90.17	12.418792	-57.244853	90.19	-0.050	-0.140	1.000	90.17	-1.50	1.40	 	 	 	 	 	 	 	 	 	 	 	 	 	 	 	 	 	 	1581513398	1.28	2.37
12/02/2020 13:16:39	120220	12022020	131639	90.17	12.418792	-57.244850	90.19	-0.210	-0.210	1.150	90.17	-1.70	1.60	 	 	 	 	 	 	 	 	 	 	 	 	 	 	 	 	 	 	1581513399	0.62	1.15
12/02/2020 13:16:40	120220	12022020	131640	90.24	12.418790	-57.244848	90.29	-0.310	-0.540	1.220	90.27	-2.10	1.50	 	 	 	 	 	 	 	 	 	 	 	 	 	 	 	 	 	 	1581513400	0.71	1.31
12/02/2020 13:16:41	120220	12022020	131641	90.39	12.418790	-57.244843	90.42	-0.080	-0.990	1.010	90.40	-2.50	1.40	 	 	 	 	 	 	 	 	 	 	 	 	 	 	 	 	 	 	1581513401	1.08	2.00
12/02/2020 13:16:42	120220	12022020	131642	90.40	12.418790	-57.244837	90.41	0.340	-1.230	1.060	90.38	-2.50	1.60	 	 	 	 	 	 	 	 	 	 	 	 	 	 	 	 	 	 	1581513402	1.39	2.57
12/02/2020 13:16:43	120220	12022020	131643	90.23	12.418790	-57.244830	90.24	0.580	-0.990	1.580	90.18	-2.10	2.20	 	 	 	 	 	 	 	 	 	 	 	 	 	 	 	 	 	 	1581513403	1.30	2.41
12/02/2020 13:16:44	120220	12022020	131644	90.00	12.418788	-57.244825	90.02	0.440	-0.280	2.110	89.97	-1.30	2.60	 	 	 	 	 	 	 	 	 	 	 	 	 	 	 	 	 	 	1581513404	1.02	1.89
12/02/2020 13:16:45	120220	12022020	131645	89.94	12.418787	-57.244823	90.01	0.120	0.610	2.110	89.97	-0.40	2.30	 	 	 	 	 	 	 	 	 	 	 	 	 	 	 	 	 	 	1581513405	0.62	1.15
12/02/2020 13:16:46	120220	12022020	131646	90.19	12.418788	-57.244822	90.27	-0.140	1.150	1.590	90.26	-0.20	1.80	 	 	 	 	 	 	 	 	 	 	 	 	 	 	 	 	 	 	1581513406	0.42	0.78
12/02/2020 13:16:47	120220	12022020	131647	90.49	12.418790	-57.244818	90.54	-0.270	1.010	1.120	90.52	-0.50	1.50	 	 	 	 	 	 	 	 	 	 	 	 	 	 	 	 	 	 	1581513407	0.85	1.57
12/02/2020 13:16:48	120220	12022020	131648	90.53	12.418792	-57.244812	90.54	-0.360	0.400	1.080	90.49	-1.20	1.60	 	 	 	 	 	 	 	 	 	 	 	 	 	 	 	 	 	 	1581513408	1.19	2.20
12/02/2020 13:16:49	120220	12022020	131649	90.30	12.418790	-57.244807	90.30	-0.440	-0.310	1.230	90.24	-1.90	1.70	 	 	 	 	 	 	 	 	 	 	 	 	 	 	 	 	 	 	1581513409	1.35	2.50
12/02/2020 13:16:50	120220	12022020	131650	90.06	12.418790	-57.244800	90.08	-0.380	-0.980	1.250	90.06	-2.20	1.70	 	 	 	 	 	 	 	 	 	 	 	 	 	 	 	 	 	 	1581513410	1.34	2.48
12/02/2020 13:16:51	120220	12022020	131651	90.00	12.418790	-57.244793	90.04	-0.070	-1.430	1.190	90.01	-2.80	1.60	 	 	 	 	 	 	 	 	 	 	 	 	 	 	 	 	 	 	1581513411	1.40	2.59
12/02/2020 13:16:52	120220	12022020	131652	90.08	12.418790	-57.244787	90.13	0.380	-1.370	1.150	90.08	-2.80	1.60	 	 	 	 	 	 	 	 	 	 	 	 	 	 	 	 	 	 	1581513412	1.34	2.48
12/02/2020 13:16:53	120220	12022020	131653	90.13	12.418790	-57.244782	90.17	0.670	-0.760	1.170	90.14	-1.70	1.60	 	 	 	 	 	 	 	 	 	 	 	 	 	 	 	 	 	 	1581513413	1.05	1.94
12/02/2020 13:16:54	120220	12022020	131654	90.15	12.418792	-57.244778	90.18	0.560	0.200	1.250	90.15	-0.70	1.70	 	 	 	 	 	 	 	 	 	 	 	 	 	 	 	 	 	 	1581513414	0.70	1.30
12/02/2020 13:16:55	120220	12022020	131655	90.16	12.418792	-57.244777	90.18	0.140	1.040	1.330	90.15	-0.20	1.80	 	 	 	 	 	 	 	 	 	 	 	 	 	 	 	 	 	 	1581513415	0.42	0.78
12/02/2020 13:16:56	120220	12022020	131656	90.09	12.418792	-57.244773	90.10	-0.300	1.100	1.380	90.08	-0.50	1.80	 	 	 	 	 	 	 	 	 	 	 	 	 	 	 	 	 	 	1581513416	0.58	1.07
12/02/2020 13:16:57	120220	12022020	131657	90.08	12.418792	-57.244768	90.10	-0.490	0.250	1.390	90.09	-1.60	1.80	 	 	 	 	 	 	 	 	 	 	 	 	 	 	 	 	 	 	1581513417	1.33	2.46
12/02/2020 13:16:58	120220	12022020	131658	90.12	12.418792	-57.244758	90.13	-0.330	-0.830	1.490	90.11	-2.50	2.00	 	 	 	 	 	 	 	 	 	 	 	 	 	 	 	 	 	 	1581513418	2.06	3.82
12/02/2020 13:16:59	120220	12022020	131659	89.97	12.418790	-57.244748	89.96	0.060	-1.370	1.860	89.91	-2.60	2.40	 	 	 	 	 	 	 	 	 	 	 	 	 	 	 	 	 	 	1581513419	2.16	4.00
12/02/2020 13:17:00	120220	12022020	131700	89.70	12.418787	-57.244740	89.71	0.400	-0.950	2.090	89.67	-1.90	2.40	 	 	 	 	 	 	 	 	 	 	 	 	 	 	 	 	 	 	1581513420	1.69	3.13
12/02/2020 13:17:01	120220	12022020	131701	89.69	12.418785	-57.244737	89.75	0.350	0.140	1.720	89.75	-0.80	1.90	 	 	 	 	 	 	 	 	 	 	 	 	 	 	 	 	 	 	1581513421	0.71	1.31
12/02/2020 13:17:02	120220	12022020	131702	89.97	12.418788	-57.244737	90.14	-0.080	1.050	1.090	90.06	-0.50	1.60	1017.20	26.50	26.60	20.50	20.60	733.0	70.0	69.0	408.0	28.8	338.00	11.90	67.00	11.50	49470	10365.0	27.6	27.6	1581513422	0.68	1.26
12/02/2020 13:17:03	120220	12022020	131703	90.39	12.418793	-57.244735	90.42	-0.520	0.920	0.790	90.41	-0.80	1.20	 	 	 	 	 	 	 	 	 	 	 	 	 	 	 	 	 	 	1581513423	0.86	1.59
12/02/2020 13:17:04	120220	12022020	131704	90.34	12.418793	-57.244730	90.33	-0.590	-0.180	0.890	90.34	-1.20	1.30	 	 	 	 	 	 	 	 	 	 	 	 	 	 	 	 	 	 	1581513424	1.37	2.54
12/02/2020 13:17:05	120220	12022020	131705	90.04	12.418793	-57.244718	90.03	-0.170	-1.450	1.130	89.98	-3.10	1.70	 	 	 	 	 	 	 	 	 	 	 	 	 	 	 	 	 	 	1581513425	2.28	4.22
12/02/2020 13:17:06	120220	12022020	131706	89.82	12.418792	-57.244707	89.86	0.450	-1.950	1.450	89.81	-3.10	2.00	 	 	 	 	 	 	 	 	 	 	 	 	 	 	 	 	 	 	1581513426	2.48	4.59
12/02/2020 13:17:07	120220	12022020	131707	89.86	12.418788	-57.244698	89.94	0.860	-1.250	1.810	89.89	-2.10	2.30	 	 	 	 	 	 	 	 	 	 	 	 	 	 	 	 	 	 	1581513427	1.90	3.52
12/02/2020 13:17:08	120220	12022020	131708	90.02	12.418785	-57.244695	90.11	0.800	0.130	1.990	90.05	-0.70	2.40	 	 	 	 	 	 	 	 	 	 	 	 	 	 	 	 	 	 	1581513428	1.03	1.91
12/02/2020 13:17:09	120220	12022020	131709	90.16	12.418785	-57.244693	90.23	0.300	1.230	1.730	90.19	0.10	1.90	 	 	 	 	 	 	 	 	 	 	 	 	 	 	 	 	 	 	1581513429	0.27	0.50
12/02/2020 13:17:10	120220	12022020	131710	90.32	12.418788	-57.244692	90.40	-0.350	1.510	0.980	90.37	0.00	1.00	 	 	 	 	 	 	 	 	 	 	 	 	 	 	 	 	 	 	1581513430	0.92	1.70
12/02/2020 13:17:11	120220	12022020	131711	90.53	12.418795	-57.244685	90.58	-0.790	0.960	0.200	90.56	-0.80	0.40	 	 	 	 	 	 	 	 	 	 	 	 	 	 	 	 	 	 	1581513431	1.66	3.07
12/02/2020 13:17:12	120220	12022020	131712	90.58	12.418798	-57.244678	90.61	-0.720	-0.120	-0.030	90.57	-1.90	0.50	 	 	 	 	 	 	 	 	 	 	 	 	 	 	 	 	 	 	1581513432	1.87	3.46
12/02/2020 13:17:13	120220	12022020	131713	90.48	12.418798	-57.244668	90.53	-0.280	-1.210	0.280	90.47	-2.80	0.90	 	 	 	 	 	 	 	 	 	 	 	 	 	 	 	 	 	 	1581513433	2.08	3.85
12/02/2020 13:17:14	120220	12022020	131714	90.49	12.418795	-57.244658	90.57	0.100	-1.560	0.820	90.52	-2.80	1.40	 	 	 	 	 	 	 	 	 	 	 	 	 	 	 	 	 	 	1581513434	2.10	3.89
12/02/2020 13:17:15	120220	12022020	131715	90.64	12.418792	-57.244652	90.74	0.190	-1.030	1.300	90.67	-2.00	1.90	 	 	 	 	 	 	 	 	 	 	 	 	 	 	 	 	 	 	1581513435	1.50	2.78
12/02/2020 13:17:16	120220	12022020	131716	90.71	12.418788	-57.244650	90.79	0.190	-0.280	1.650	90.71	-1.80	2.00	 	 	 	 	 	 	 	 	 	 	 	 	 	 	 	 	 	 	1581513436	0.96	1.78
12/02/2020 13:17:17	120220	12022020	131717	90.62	12.418787	-57.244645	90.68	0.300	0.040	1.910	90.59	-1.40	2.40	 	 	 	 	 	 	 	 	 	 	 	 	 	 	 	 	 	 	1581513437	0.95	1.76
12/02/2020 13:17:18	120220	12022020	131718	90.52	12.418785	-57.244638	90.59	0.450	-0.190	2.030	90.51	-1.70	2.40	 	 	 	 	 	 	 	 	 	 	 	 	 	 	 	 	 	 	1581513438	1.59	2.94
12/02/2020 13:17:19	120220	12022020	131719	90.53	12.418785	-57.244628	90.62	0.490	-0.490	1.970	90.55	-1.80	2.30	 	 	 	 	 	 	 	 	 	 	 	 	 	 	 	 	 	 	1581513439	2.16	4.00
12/02/2020 13:17:20	120220	12022020	131720	90.60	12.418785	-57.244618	90.68	0.310	-0.140	1.630	90.60	-1.20	1.80	 	 	 	 	 	 	 	 	 	 	 	 	 	 	 	 	 	 	1581513440	1.99	3.69
12/02/2020 13:17:21	120220	12022020	131721	90.57	12.418788	-57.244613	90.61	-0.060	0.720	1.100	90.55	-0.30	1.30	 	 	 	 	 	 	 	 	 	 	 	 	 	 	 	 	 	 	1581513441	1.31	2.43
12/02/2020 13:17:22	120220	12022020	131722	90.52	12.418793	-57.244610	90.56	-0.450	1.250	0.480	90.52	-0.20	0.70	 	 	 	 	 	 	 	 	 	 	 	 	 	 	 	 	 	 	1581513442	1.17	2.17
12/02/2020 13:17:23	120220	12022020	131723	90.60	12.418797	-57.244607	90.66	-0.590	0.810	-0.040	90.64	-1.00	0.20	 	 	 	 	 	 	 	 	 	 	 	 	 	 	 	 	 	 	1581513443	1.30	2.41
12/02/2020 13:17:24	120220	12022020	131724	90.80	12.418800	-57.244598	90.87	-0.410	-0.320	-0.230	90.84	-2.10	0.30	 	 	 	 	 	 	 	 	 	 	 	 	 	 	 	 	 	 	1581513444	1.89	3.50
12/02/2020 13:17:25	120220	12022020	131725	90.92	12.418800	-57.244587	90.97	-0.140	-1.220	0.110	90.91	-2.70	0.80	 	 	 	 	 	 	 	 	 	 	 	 	 	 	 	 	 	 	1581513445	2.28	4.22
12/02/2020 13:17:26	120220	12022020	131726	90.72	12.418795	-57.244578	90.74	0.030	-1.320	0.840	90.65	-2.50	1.60	 	 	 	 	 	 	 	 	 	 	 	 	 	 	 	 	 	 	1581513446	2.04	3.78
12/02/2020 13:17:27	120220	12022020	131727	90.35	12.418790	-57.244572	90.38	0.200	-0.950	1.490	90.29	-2.20	2.00	 	 	 	 	 	 	 	 	 	 	 	 	 	 	 	 	 	 	1581513447	1.58	2.93
12/02/2020 13:17:28	120220	12022020	131728	90.09	12.418788	-57.244567	90.14	0.500	-0.840	1.730	90.09	-2.20	2.10	 	 	 	 	 	 	 	 	 	 	 	 	 	 	 	 	 	 	1581513448	1.34	2.48
12/02/2020 13:17:29	120220	12022020	131729	89.87	12.418788	-57.244558	89.92	0.770	-0.920	1.820	89.83	-2.20	2.30	 	 	 	 	 	 	 	 	 	 	 	 	 	 	 	 	 	 	1581513449	1.93	3.57
12/02/2020 13:17:30	120220	12022020	131730	89.70	12.418788	-57.244547	89.77	0.630	-0.490	1.870	89.69	-1.40	2.30	 	 	 	 	 	 	 	 	 	 	 	 	 	 	 	 	 	 	1581513450	2.25	4.17
12/02/2020 13:17:31	120220	12022020	131731	89.73	12.418790	-57.244540	89.81	-0.010	0.700	1.760	89.75	-0.10	2.10	 	 	 	 	 	 	 	 	 	 	 	 	 	 	 	 	 	 	1581513451	1.54	2.85
12/02/2020 13:17:32	120220	12022020	131732	89.82	12.418788	-57.244537	89.90	-0.810	1.870	1.420	89.85	0.80	1.60	 	 	 	 	 	 	 	 	 	 	 	 	 	 	 	 	 	 	1581513452	0.58	1.07
12/02/2020 13:17:33	120220	12022020	131733	89.93	12.418790	-57.244535	90.00	-1.290	2.210	0.810	89.96	0.60	0.90	 	 	 	 	 	 	 	 	 	 	 	 	 	 	 	 	 	 	1581513453	0.51	0.94
12/02/2020 13:17:34	120220	12022020	131734	90.09	12.418792	-57.244530	90.14	-1.130	1.350	0.150	90.13	-0.70	0.30	 	 	 	 	 	 	 	 	 	 	 	 	 	 	 	 	 	 	1581513454	1.17	2.17
12/02/2020 13:17:35	120220	12022020	131735	90.29	12.418797	-57.244522	90.34	-0.360	-0.490	-0.340	90.32	-2.70	0.00	 	 	 	 	 	 	 	 	 	 	 	 	 	 	 	 	 	 	1581513455	2.09	3.87
12/02/2020 13:17:36	120220	12022020	131736	90.35	12.418800	-57.244508	90.35	0.580	-2.500	-0.360	90.30	-4.40	0.30	 	 	 	 	 	 	 	 	 	 	 	 	 	 	 	 	 	 	1581513456	2.88	5.33
12/02/2020 13:17:37	120220	12022020	131737	89.95	12.418800	-57.244493	89.91	1.230	-3.550	0.340	89.82	-4.80	1.20	 	 	 	 	 	 	 	 	 	 	 	 	 	 	 	 	 	 	1581513457	3.08	5.70
12/02/2020 13:17:38	120220	12022020	131738	89.29	12.418795	-57.244482	89.28	1.330	-2.850	1.500	89.18	-3.40	2.30	 	 	 	 	 	 	 	 	 	 	 	 	 	 	 	 	 	 	1581513458	2.63	4.87
12/02/2020 13:17:39	120220	12022020	131739	88.93	12.418790	-57.244475	89.03	0.910	-0.580	2.290	88.93	-0.80	2.80	 	 	 	 	 	 	 	 	 	 	 	 	 	 	 	 	 	 	1581513459	1.71	3.17
12/02/2020 13:17:40	120220	12022020	131740	89.14	12.418787	-57.244475	89.30	0.130	1.860	2.250	89.14	0.00	2.70	 	 	 	 	 	 	 	 	 	 	 	 	 	 	 	 	 	 	1581513460	0.53	0.98
12/02/2020 13:17:41	120220	12022020	131741	89.65	12.418790	-57.244477	89.79	-0.710	2.930	1.600	89.75	1.50	1.70	 	 	 	 	 	 	 	 	 	 	 	 	 	 	 	 	 	 	1581513461	0.36	0.67
12/02/2020 13:17:42	120220	12022020	131742	89.96	12.418792	-57.244470	90.01	-1.220	2.300	1.070	89.97	0.40	1.30	 	 	 	 	 	 	 	 	 	 	 	 	 	 	 	 	 	 	1581513462	1.38	2.56
12/02/2020 13:17:43	120220	12022020	131743	90.00	12.418793	-57.244458	90.04	-1.310	0.850	0.750	90.01	-1.10	1.00	 	 	 	 	 	 	 	 	 	 	 	 	 	 	 	 	 	 	1581513463	2.35	4.35
12/02/2020 13:17:44	120220	12022020	131744	90.15	12.418793	-57.244448	90.22	-1.030	-0.470	0.400	90.20	-2.30	0.70	 	 	 	 	 	 	 	 	 	 	 	 	 	 	 	 	 	 	1581513464	2.41	4.46
12/02/2020 13:17:45	120220	12022020	131745	90.40	12.418793	-57.244438	90.47	-0.390	-1.450	0.250	90.43	-3.10	0.70	 	 	 	 	 	 	 	 	 	 	 	 	 	 	 	 	 	 	1581513465	1.94	3.59
12/02/2020 13:17:46	120220	12022020	131746	90.44	12.418792	-57.244430	90.47	0.520	-2.160	0.570	90.40	-3.70	1.20	 	 	 	 	 	 	 	 	 	 	 	 	 	 	 	 	 	 	1581513466	1.79	3.32
12/02/2020 13:17:47	120220	12022020	131747	90.13	12.418790	-57.244420	90.15	1.380	-2.450	1.270	90.04	-3.70	2.00	 	 	 	 	 	 	 	 	 	 	 	 	 	 	 	 	 	 	1581513467	2.12	3.93
12/02/2020 13:17:48	120220	12022020	131748	89.67	12.418787	-57.244410	89.70	1.800	-2.140	2.060	89.57	-3.10	2.70	 	 	 	 	 	 	 	 	 	 	 	 	 	 	 	 	 	 	1581513468	2.37	4.39
12/02/2020 13:17:49	120220	12022020	131749	89.30	12.418783	-57.244400	89.37	1.500	-0.880	2.560	89.26	-1.40	2.90	 	 	 	 	 	 	 	 	 	 	 	 	 	 	 	 	 	 	1581513469	2.20	4.07
12/02/2020 13:17:50	120220	12022020	131750	89.28	12.418783	-57.244395	89.41	0.500	1.300	2.210	89.34	0.90	2.20	 	 	 	 	 	 	 	 	 	 	 	 	 	 	 	 	 	 	1581513470	1.16	2.15
12/02/2020 13:17:51	120220	12022020	131751	89.74	12.418788	-57.244395	89.90	-0.800	3.330	1.060	89.87	2.40	0.90	 	 	 	 	 	 	 	 	 	 	 	 	 	 	 	 	 	 	1581513471	1.16	2.15
12/02/2020 13:17:52	120220	12022020	131752	90.31	12.418797	-57.244395	90.56	-1.770	3.650	-0.190	90.45	2.40	0.50	 	 	 	 	 	 	 	 	 	 	 	 	 	 	 	 	 	 	1581513472	1.80	3.33
12/02/2020 13:17:53	120220	12022020	131753	90.99	12.418803	-57.244390	91.05	-1.860	1.610	-0.920	91.06	-1.10	-0.60	 	 	 	 	 	 	 	 	 	 	 	 	 	 	 	 	 	 	1581513473	1.74	3.22
12/02/2020 13:17:54	120220	12022020	131754	91.09	12.418803	-57.244375	91.09	-1.050	-1.740	-0.780	91.09	-2.30	-0.50	 	 	 	 	 	 	 	 	 	 	 	 	 	 	 	 	 	 	1581513474	3.15	5.83
12/02/2020 13:17:55	120220	12022020	131755	90.64	12.418797	-57.244357	90.59	0.190	-4.280	0.200	90.51	-5.90	1.10	 	 	 	 	 	 	 	 	 	 	 	 	 	 	 	 	 	 	1581513475	4.31	7.98
12/02/2020 13:17:56	120220	12022020	131756	90.00	12.418788	-57.244340	90.00	1.190	-4.170	1.360	89.91	-4.60	2.10	 	 	 	 	 	 	 	 	 	 	 	 	 	 	 	 	 	 	1581513476	3.81	7.06
12/02/2020 13:17:57	120220	12022020	131757	89.68	12.418782	-57.244335	89.75	1.390	-1.580	2.020	89.67	-1.60	2.50	 	 	 	 	 	 	 	 	 	 	 	 	 	 	 	 	 	 	1581513477	1.75	3.24
12/02/2020 13:17:58	120220	12022020	131758	89.71	12.418780	-57.244340	89.81	0.810	1.360	1.980	89.75	0.80	2.20	 	 	 	 	 	 	 	 	 	 	 	 	 	 	 	 	 	 	1581513478	0.91	1.69
12/02/2020 13:17:59	120220	12022020	131759	89.97	12.418782	-57.244342	90.08	0.030	2.570	1.330	90.06	1.00	1.40	 	 	 	 	 	 	 	 	 	 	 	 	 	 	 	 	 	 	1581513479	0.95	1.76
12/02/2020 13:18:00	120220	12022020	131800	90.37	12.418788	-57.244337	90.45	-0.340	1.600	0.470	90.45	-0.50	0.60	 	 	 	 	 	 	 	 	 	 	 	 	 	 	 	 	 	 	1581513480	1.89	3.50
12/02/2020 13:18:01	120220	12022020	131801	90.62	12.418795	-57.244322	90.65	-0.170	-0.210	-0.010	90.63	-2.10	0.40	 	 	 	 	 	 	 	 	 	 	 	 	 	 	 	 	 	 	1581513481	3.36	6.22
12/02/2020 13:18:02	120220	12022020	131802	90.58	12.418797	-57.244307	90.58	0.130	-1.130	0.070	90.54	-2.40	0.60	1017.20	26.60	26.60	20.80	20.80	712.0	70.0	70.0	409.0	28.8	346.00	11.90	75.00	11.00	48924	9599.0	27.6	27.6	1581513482	3.37	6.24
12/02/2020 13:18:03	120220	12022020	131803	90.45	12.418795	-57.244297	90.48	0.070	-0.610	0.540	90.44	-1.50	1.20	 	 	 	 	 	 	 	 	 	 	 	 	 	 	 	 	 	 	1581513483	2.04	3.78
12/02/2020 13:18:04	120220	12022020	131804	90.58	12.418792	-57.244293	90.69	-0.360	0.460	1.270	90.64	-0.60	2.00	 	 	 	 	 	 	 	 	 	 	 	 	 	 	 	 	 	 	1581513484	0.92	1.70
12/02/2020 13:18:05	120220	12022020	131805	90.95	12.418787	-57.244293	91.09	-0.710	0.760	1.970	91.02	-0.80	2.60	 	 	 	 	 	 	 	 	 	 	 	 	 	 	 	 	 	 	1581513485	1.12	2.07
12/02/2020 13:18:06	120220	12022020	131806	91.14	12.418782	-57.244288	91.23	-0.520	-0.150	2.430	91.14	-1.20	2.70	 	 	 	 	 	 	 	 	 	 	 	 	 	 	 	 	 	 	1581513486	1.52	2.82
12/02/2020 13:18:07	120220	12022020	131807	90.99	12.418778	-57.244277	91.06	0.170	-1.580	2.680	90.95	-3.40	3.20	 	 	 	 	 	 	 	 	 	 	 	 	 	 	 	 	 	 	1581513487	2.56	4.74
12/02/2020 13:18:08	120220	12022020	131808	90.73	12.418777	-57.244262	90.81	0.850	-2.310	2.930	90.69	-3.50	3.40	 	 	 	 	 	 	 	 	 	 	 	 	 	 	 	 	 	 	1581513488	3.05	5.65
12/02/2020 13:18:09	120220	12022020	131809	90.53	12.418775	-57.244250	90.63	1.080	-1.650	3.100	90.51	-2.40	3.40	 	 	 	 	 	 	 	 	 	 	 	 	 	 	 	 	 	 	1581513489	2.48	4.59
12/02/2020 13:18:10	120220	12022020	131810	90.47	12.418773	-57.244245	90.58	0.820	-0.020	2.700	90.49	-0.70	2.70	 	 	 	 	 	 	 	 	 	 	 	 	 	 	 	 	 	 	1581513490	1.29	2.39
12/02/2020 13:18:11	120220	12022020	131811	90.62	12.418777	-57.244242	90.73	0.310	1.430	1.590	90.68	0.40	1.40	 	 	 	 	 	 	 	 	 	 	 	 	 	 	 	 	 	 	1581513491	0.92	1.70
12/02/2020 13:18:12	120220	12022020	131812	90.88	12.418785	-57.244238	90.96	-0.190	1.870	0.250	90.93	0.40	0.20	 	 	 	 	 	 	 	 	 	 	 	 	 	 	 	 	 	 	1581513492	1.82	3.37
12/02/2020 13:18:13	120220	12022020	131813	91.11	12.418793	-57.244232	91.17	-0.520	1.380	-0.760	91.15	-0.30	-0.60	 	 	 	 	 	 	 	 	 	 	 	 	 	 	 	 	 	 	1581513493	2.30	4.26
12/02/2020 13:18:14	120220	12022020	131814	91.26	12.418798	-57.244222	91.29	-0.590	0.390	-1.310	91.27	-1.40	-0.90	 	 	 	 	 	 	 	 	 	 	 	 	 	 	 	 	 	 	1581513494	2.31	4.28
12/02/2020 13:18:15	120220	12022020	131815	91.28	12.418800	-57.244212	91.30	-0.460	-0.740	-1.270	91.26	-2.50	-0.70	 	 	 	 	 	 	 	 	 	 	 	 	 	 	 	 	 	 	1581513495	2.24	4.15
12/02/2020 13:18:16	120220	12022020	131816	91.21	12.418797	-57.244200	91.23	-0.230	-1.610	-0.580	91.19	-2.80	-0.40	 	 	 	 	 	 	 	 	 	 	 	 	 	 	 	 	 	 	1581513496	2.34	4.33
12/02/2020 13:18:17	120220	12022020	131817	90.96	12.418792	-57.244190	91.00	-0.010	-1.770	0.560	90.90	-3.00	1.40	 	 	 	 	 	 	 	 	 	 	 	 	 	 	 	 	 	 	1581513497	2.36	4.37
12/02/2020 13:18:18	120220	12022020	131818	90.65	12.418785	-57.244183	90.73	0.200	-1.270	1.600	90.65	-2.80	1.80	 	 	 	 	 	 	 	 	 	 	 	 	 	 	 	 	 	 	1581513498	2.07	3.83
12/02/2020 13:18:19	120220	12022020	131819	90.53	12.418782	-57.244177	90.65	0.440	-0.530	2.140	90.54	-1.60	2.60	 	 	 	 	 	 	 	 	 	 	 	 	 	 	 	 	 	 	1581513499	1.61	2.98
12/02/2020 13:18:20	120220	12022020	131820	90.55	12.418778	-57.244170	90.66	0.620	0.030	2.320	90.55	-1.20	2.80	 	 	 	 	 	 	 	 	 	 	 	 	 	 	 	 	 	 	1581513500	1.47	2.72
12/02/2020 13:18:21	120220	12022020	131821	90.46	12.418778	-57.244162	90.55	0.590	0.270	2.420	90.43	-1.00	2.80	 	 	 	 	 	 	 	 	 	 	 	 	 	 	 	 	 	 	1581513501	1.83	3.39
12/02/2020 13:18:22	120220	12022020	131822	90.34	12.418778	-57.244152	90.45	0.220	0.460	2.300	90.34	-0.80	2.50	 	 	 	 	 	 	 	 	 	 	 	 	 	 	 	 	 	 	1581513502	2.14	3.96
12/02/2020 13:18:23	120220	12022020	131823	90.47	12.418782	-57.244143	90.61	-0.370	0.700	1.680	90.53	-0.60	1.70	 	 	 	 	 	 	 	 	 	 	 	 	 	 	 	 	 	 	1581513503	1.94	3.59
12/02/2020 13:18:24	120220	12022020	131824	90.80	12.418783	-57.244135	90.92	-0.740	0.790	0.800	90.86	-0.70	0.90	 	 	 	 	 	 	 	 	 	 	 	 	 	 	 	 	 	 	1581513504	1.70	3.15
12/02/2020 13:18:25	120220	12022020	131825	91.04	12.418787	-57.244128	91.12	-0.640	0.520	0.130	91.06	-1.10	0.40	 	 	 	 	 	 	 	 	 	 	 	 	 	 	 	 	 	 	1581513505	1.75	3.24
12/02/2020 13:18:26	120220	12022020	131826	91.07	12.418790	-57.244118	91.13	-0.260	-0.040	-0.060	91.05	-1.70	0.40	 	 	 	 	 	 	 	 	 	 	 	 	 	 	 	 	 	 	1581513506	1.92	3.56
12/02/2020 13:18:27	120220	12022020	131827	90.92	12.418792	-57.244110	90.96	0.030	-0.800	0.090	90.87	-2.50	0.60	 	 	 	 	 	 	 	 	 	 	 	 	 	 	 	 	 	 	1581513507	2.08	3.85
12/02/2020 13:18:28	120220	12022020	131828	90.66	12.418790	-57.244098	90.71	0.110	-1.420	0.460	90.59	-2.90	1.10	 	 	 	 	 	 	 	 	 	 	 	 	 	 	 	 	 	 	1581513508	2.27	4.20
12/02/2020 13:18:29	120220	12022020	131829	90.31	12.418788	-57.244088	90.36	0.110	-1.480	1.080	90.23	-2.70	1.80	 	 	 	 	 	 	 	 	 	 	 	 	 	 	 	 	 	 	1581513509	2.30	4.26
12/02/2020 13:18:30	120220	12022020	131830	89.97	12.418785	-57.244080	90.06	0.190	-0.920	1.670	89.97	-2.40	2.00	 	 	 	 	 	 	 	 	 	 	 	 	 	 	 	 	 	 	1581513510	1.99	3.69
12/02/2020 13:18:31	120220	12022020	131831	89.90	12.418782	-57.244072	90.03	0.360	-0.290	1.830	89.92	-1.50	2.20	 	 	 	 	 	 	 	 	 	 	 	 	 	 	 	 	 	 	1581513511	1.69	3.13
12/02/2020 13:18:32	120220	12022020	131832	90.04	12.418782	-57.244063	90.18	0.470	0.090	1.630	90.04	-1.40	2.10	 	 	 	 	 	 	 	 	 	 	 	 	 	 	 	 	 	 	1581513512	1.86	3.44
12/02/2020 13:18:33	120220	12022020	131833	90.19	12.418785	-57.244052	90.31	0.300	0.310	1.340	90.23	-0.90	1.60	 	 	 	 	 	 	 	 	 	 	 	 	 	 	 	 	 	 	1581513513	2.23	4.13
12/02/2020 13:18:34	120220	12022020	131834	90.42	12.418787	-57.244042	90.55	-0.130	0.720	1.000	90.47	-0.40	1.30	 	 	 	 	 	 	 	 	 	 	 	 	 	 	 	 	 	 	1581513514	2.18	4.04
12/02/2020 13:18:35	120220	12022020	131835	90.63	12.418788	-57.244035	90.72	-0.580	1.250	0.740	90.64	-0.10	1.10	 	 	 	 	 	 	 	 	 	 	 	 	 	 	 	 	 	 	1581513515	1.56	2.89
12/02/2020 13:18:36	120220	12022020	131836	90.60	12.418787	-57.244030	90.66	-0.760	1.130	0.840	90.56	-0.60	1.40	 	 	 	 	 	 	 	 	 	 	 	 	 	 	 	 	 	 	1581513516	1.20	2.22
12/02/2020 13:18:37	120220	12022020	131837	90.29	12.418785	-57.244020	90.33	-0.510	-0.030	1.250	90.20	-2.00	1.80	 	 	 	 	 	 	 	 	 	 	 	 	 	 	 	 	 	 	1581513517	1.94	3.59
12/02/2020 13:18:38	120220	12022020	131838	89.89	12.418783	-57.244007	89.94	0.000	-1.500	1.520	89.81	-3.30	2.00	 	 	 	 	 	 	 	 	 	 	 	 	 	 	 	 	 	 	1581513518	2.91	5.39
12/02/2020 13:18:39	120220	12022020	131839	89.54	12.418783	-57.243992	89.61	0.480	-2.180	1.590	89.49	-3.50	2.00	 	 	 	 	 	 	 	 	 	 	 	 	 	 	 	 	 	 	1581513519	3.08	5.70
12/02/2020 13:18:40	120220	12022020	131840	89.39	12.418787	-57.243982	89.50	0.670	-1.710	1.540	89.40	-2.70	1.90	 	 	 	 	 	 	 	 	 	 	 	 	 	 	 	 	 	 	1581513520	2.45	4.54
12/02/2020 13:18:41	120220	12022020	131841	89.59	12.418788	-57.243973	89.75	0.480	-0.540	1.350	89.67	-1.40	1.60	 	 	 	 	 	 	 	 	 	 	 	 	 	 	 	 	 	 	1581513521	1.65	3.06
12/02/2020 13:18:42	120220	12022020	131842	89.93	12.418790	-57.243968	90.17	0.030	0.640	1.040	90.02	-1.00	1.50	 	 	 	 	 	 	 	 	 	 	 	 	 	 	 	 	 	 	1581513522	1.24	2.30
12/02/2020 13:18:43	120220	12022020	131843	90.33	12.418790	-57.243962	90.43	-0.420	1.220	0.790	90.35	-0.20	1.20	 	 	 	 	 	 	 	 	 	 	 	 	 	 	 	 	 	 	1581513523	1.36	2.52
12/02/2020 13:18:44	120220	12022020	131844	90.25	12.418790	-57.243952	90.30	-0.650	0.940	0.990	90.25	-0.30	1.30	 	 	 	 	 	 	 	 	 	 	 	 	 	 	 	 	 	 	1581513524	1.93	3.57
12/02/2020 13:18:45	120220	12022020	131845	89.73	12.418785	-57.243940	89.76	-0.530	0.060	1.680	89.61	-1.70	2.40	 	 	 	 	 	 	 	 	 	 	 	 	 	 	 	 	 	 	1581513525	2.81	5.20
12/02/2020 13:18:46	120220	12022020	131846	89.19	12.418780	-57.243925	89.27	-0.180	-0.690	2.130	89.14	-2.20	2.50	 	 	 	 	 	 	 	 	 	 	 	 	 	 	 	 	 	 	1581513526	3.29	6.09
12/02/2020 13:18:47	120220	12022020	131847	89.14	12.418778	-57.243913	89.29	0.180	-0.720	1.730	89.20	-1.90	1.80	 	 	 	 	 	 	 	 	 	 	 	 	 	 	 	 	 	 	1581513527	2.67	4.94
12/02/2020 13:18:48	120220	12022020	131848	89.49	12.418785	-57.243903	89.62	0.340	-0.300	0.710	89.56	-1.50	0.70	 	 	 	 	 	 	 	 	 	 	 	 	 	 	 	 	 	 	1581513528	2.12	3.93
12/02/2020 13:18:49	120220	12022020	131849	89.74	12.418793	-57.243897	89.81	0.330	-0.050	-0.200	89.75	-1.50	0.00	 	 	 	 	 	 	 	 	 	 	 	 	 	 	 	 	 	 	1581513529	2.34	4.33
12/02/2020 13:18:50	120220	12022020	131850	89.64	12.418800	-57.243888	89.67	0.270	-0.290	-0.430	89.59	-1.90	0.10	 	 	 	 	 	 	 	 	 	 	 	 	 	 	 	 	 	 	1581513530	2.42	4.48
12/02/2020 13:18:51	120220	12022020	131851	89.39	12.418802	-57.243877	89.44	0.140	-0.670	0.030	89.35	-2.10	0.80	 	 	 	 	 	 	 	 	 	 	 	 	 	 	 	 	 	 	1581513531	2.60	4.82
12/02/2020 13:18:52	120220	12022020	131852	89.30	12.418798	-57.243863	89.40	-0.110	-0.660	0.820	89.30	-1.90	1.60	 	 	 	 	 	 	 	 	 	 	 	 	 	 	 	 	 	 	1581513532	2.73	5.06
12/02/2020 13:18:53	120220	12022020	131853	89.31	12.418793	-57.243853	89.43	-0.340	-0.270	1.570	89.31	-1.40	2.20	 	 	 	 	 	 	 	 	 	 	 	 	 	 	 	 	 	 	1581513533	2.60	4.82
12/02/2020 13:18:54	120220	12022020	131854	89.31	12.418787	-57.243843	89.43	-0.380	0.210	1.940	89.32	-1.10	2.40	 	 	 	 	 	 	 	 	 	 	 	 	 	 	 	 	 	 	1581513534	2.29	4.24
12/02/2020 13:18:55	120220	12022020	131855	89.34	12.418785	-57.243835	89.44	-0.200	0.370	1.870	89.33	-1.10	2.20	 	 	 	 	 	 	 	 	 	 	 	 	 	 	 	 	 	 	1581513535	1.96	3.63
12/02/2020 13:18:56	120220	12022020	131856	89.25	12.418787	-57.243825	89.28	0.020	0.040	1.680	89.22	-1.20	2.10	 	 	 	 	 	 	 	 	 	 	 	 	 	 	 	 	 	 	1581513536	2.25	4.17
12/02/2020 13:18:57	120220	12022020	131857	88.96	12.418788	-57.243812	89.03	0.070	-0.460	1.450	88.92	-1.90	1.80	 	 	 	 	 	 	 	 	 	 	 	 	 	 	 	 	 	 	1581513537	2.77	5.13
12/02/2020 13:18:58	120220	12022020	131858	88.87	12.418792	-57.243798	88.98	-0.130	-0.450	1.230	88.89	-1.70	1.60	 	 	 	 	 	 	 	 	 	 	 	 	 	 	 	 	 	 	1581513538	2.73	5.06
12/02/2020 13:18:59	120220	12022020	131859	89.09	12.418792	-57.243790	89.23	-0.400	0.090	1.020	89.16	-1.10	1.30	 	 	 	 	 	 	 	 	 	 	 	 	 	 	 	 	 	 	1581513539	1.93	3.57
12/02/2020 13:19:00	120220	12022020	131900	89.54	12.418792	-57.243783	89.68	-0.420	0.510	0.510	89.64	-0.90	0.70	 	 	 	 	 	 	 	 	 	 	 	 	 	 	 	 	 	 	1581513540	1.37	2.54
12/02/2020 13:19:01	120220	12022020	131901	89.93	12.418793	-57.243775	90.02	-0.050	0.100	-0.040	89.97	-1.70	0.30	 	 	 	 	 	 	 	 	 	 	 	 	 	 	 	 	 	 	1581513541	1.63	3.02
12/02/2020 13:19:02	120220	12022020	131902	89.85	12.418795	-57.243763	89.87	0.630	-1.050	-0.050	89.78	-2.90	0.50	1017.30	26.50	26.50	20.70	20.80	693.0	70.0	70.0	403.0	28.8	351.00	12.30	80.00	11.30	48067	10384.0	27.6	27.6	1581513542	2.62	4.85
12/02/2020 13:19:03	120220	12022020	131903	89.37	12.418797	-57.243747	89.38	1.060	-1.840	0.460	89.26	-3.10	1.20	 	 	 	 	 	 	 	 	 	 	 	 	 	 	 	 	 	 	1581513543	3.43	6.35
12/02/2020 13:19:04	120220	12022020	131904	88.98	12.418797	-57.243733	89.05	0.680	-1.020	1.190	88.94	-1.70	1.90	 	 	 	 	 	 	 	 	 	 	 	 	 	 	 	 	 	 	1581513544	2.88	5.33
12/02/2020 13:19:05	120220	12022020	131905	89.00	12.418795	-57.243728	89.15	-0.380	0.930	1.830	89.06	0.20	2.40	 	 	 	 	 	 	 	 	 	 	 	 	 	 	 	 	 	 	1581513545	1.08	2.00
12/02/2020 13:19:06	120220	12022020	131906	89.40	12.418792	-57.243730	89.59	-1.270	2.240	2.140	89.50	0.80	2.60	 	 	 	 	 	 	 	 	 	 	 	 	 	 	 	 	 	 	1581513546	0.69	1.28
12/02/2020 13:19:07	120220	12022020	131907	89.82	12.418788	-57.243725	90.00	-1.200	1.370	2.210	89.89	-0.90	2.60	 	 	 	 	 	 	 	 	 	 	 	 	 	 	 	 	 	 	1581513547	1.00	1.85
12/02/2020 13:19:08	120220	12022020	131908	89.99	12.418787	-57.243712	90.14	-0.290	-1.010	2.240	90.01	-1.80	2.60	 	 	 	 	 	 	 	 	 	 	 	 	 	 	 	 	 	 	1581513548	3.10	5.74
12/02/2020 13:19:09	120220	12022020	131909	90.04	12.418785	-57.243692	90.17	0.560	-2.640	2.270	90.04	-4.00	2.70	 	 	 	 	 	 	 	 	 	 	 	 	 	 	 	 	 	 	1581513549	4.26	7.89
12/02/2020 13:19:10	120220	12022020	131910	90.06	12.418783	-57.243677	90.19	0.720	-2.040	2.330	90.07	-2.70	2.70	 	 	 	 	 	 	 	 	 	 	 	 	 	 	 	 	 	 	1581513550	3.02	5.59
12/02/2020 13:19:11	120220	12022020	131911	90.10	12.418780	-57.243673	90.23	0.300	-0.000	2.170	90.11	-0.60	2.40	 	 	 	 	 	 	 	 	 	 	 	 	 	 	 	 	 	 	1581513551	0.82	1.52
12/02/2020 13:19:12	120220	12022020	131912	90.12	12.418782	-57.243675	90.22	-0.200	1.650	1.530	90.12	0.50	1.50	 	 	 	 	 	 	 	 	 	 	 	 	 	 	 	 	 	 	1581513552	0.38	0.70
12/02/2020 13:19:13	120220	12022020	131913	90.10	12.418787	-57.243673	90.17	-0.480	1.820	0.500	90.10	0.00	0.50	 	 	 	 	 	 	 	 	 	 	 	 	 	 	 	 	 	 	1581513553	1.06	1.96
12/02/2020 13:19:14	120220	12022020	131914	90.15	12.418793	-57.243665	90.22	-0.390	0.610	-0.480	90.18	-1.50	-0.40	 	 	 	 	 	 	 	 	 	 	 	 	 	 	 	 	 	 	1581513554	2.31	4.28
12/02/2020 13:19:15	120220	12022020	131915	90.35	12.418800	-57.243652	90.41	-0.040	-1.080	-1.250	90.38	-3.00	-1.00	 	 	 	 	 	 	 	 	 	 	 	 	 	 	 	 	 	 	1581513555	3.15	5.83
12/02/2020 13:19:16	120220	12022020	131916	90.40	12.418803	-57.243637	90.42	0.310	-2.090	-1.410	90.36	-3.50	-0.80	 	 	 	 	 	 	 	 	 	 	 	 	 	 	 	 	 	 	1581513556	3.22	5.96
12/02/2020 13:19:17	120220	12022020	131917	90.12	12.418803	-57.243627	90.11	0.390	-1.640	-0.730	90.03	-2.50	0.10	 	 	 	 	 	 	 	 	 	 	 	 	 	 	 	 	 	 	1581513557	2.23	4.13
12/02/2020 13:19:18	120220	12022020	131918	89.69	12.418798	-57.243622	89.72	0.170	-0.170	0.330	89.62	-1.00	1.10	 	 	 	 	 	 	 	 	 	 	 	 	 	 	 	 	 	 	1581513558	1.20	2.22
12/02/2020 13:19:19	120220	12022020	131919	89.47	12.418795	-57.243622	89.57	-0.150	1.050	1.190	89.47	-0.20	1.80	 	 	 	 	 	 	 	 	 	 	 	 	 	 	 	 	 	 	1581513559	1.00	1.85
12/02/2020 13:19:20	120220	12022020	131920	89.63	12.418792	-57.243618	89.77	-0.310	0.980	1.580	89.63	-0.30	1.90	 	 	 	 	 	 	 	 	 	 	 	 	 	 	 	 	 	 	1581513560	1.01	1.87
12/02/2020 13:19:21	120220	12022020	131921	89.96	12.418790	-57.243608	90.11	-0.250	-0.080	1.860	90.02	-1.90	2.40	 	 	 	 	 	 	 	 	 	 	 	 	 	 	 	 	 	 	1581513561	2.15	3.98
12/02/2020 13:19:22	120220	12022020	131922	90.17	12.418785	-57.243595	90.30	-0.120	-0.920	2.380	90.17	-2.20	2.60	 	 	 	 	 	 	 	 	 	 	 	 	 	 	 	 	 	 	1581513562	2.90	5.37
12/02/2020 13:19:23	120220	12022020	131923	90.03	12.418780	-57.243585	90.11	0.020	-0.770	2.780	89.96	-1.90	3.20	 	 	 	 	 	 	 	 	 	 	 	 	 	 	 	 	 	 	1581513563	2.47	4.57
12/02/2020 13:19:24	120220	12022020	131924	89.54	12.418777	-57.243580	89.58	0.210	-0.110	2.700	89.42	-1.30	2.90	 	 	 	 	 	 	 	 	 	 	 	 	 	 	 	 	 	 	1581513564	1.30	2.41
12/02/2020 13:19:25	120220	12022020	131925	88.98	12.418778	-57.243577	89.01	0.450	0.240	2.090	88.88	-1.20	2.10	 	 	 	 	 	 	 	 	 	 	 	 	 	 	 	 	 	 	1581513565	0.92	1.70
12/02/2020 13:19:26	120220	12022020	131926	88.62	12.418785	-57.243570	88.67	0.510	0.130	1.120	88.59	-1.30	1.10	 	 	 	 	 	 	 	 	 	 	 	 	 	 	 	 	 	 	1581513566	1.98	3.67
12/02/2020 13:19:27	120220	12022020	131927	88.66	12.418793	-57.243562	88.75	0.130	0.090	0.010	88.71	-1.20	0.00	 	 	 	 	 	 	 	 	 	 	 	 	 	 	 	 	 	 	1581513567	2.58	4.78
12/02/2020 13:19:28	120220	12022020	131928	89.01	12.418802	-57.243557	89.11	-0.570	0.340	-0.840	89.09	-1.00	-0.60	 	 	 	 	 	 	 	 	 	 	 	 	 	 	 	 	 	 	1581513568	2.09	3.87
12/02/2020 13:19:29	120220	12022020	131929	89.38	12.418805	-57.243553	89.46	-0.990	0.260	-1.050	89.42	-1.40	-0.50	 	 	 	 	 	 	 	 	 	 	 	 	 	 	 	 	 	 	1581513569	1.12	2.07
12/02/2020 13:19:30	120220	12022020	131930	89.43	12.418805	-57.243547	89.46	-0.560	-0.780	-0.490	89.39	-2.80	0.30	 	 	 	 	 	 	 	 	 	 	 	 	 	 	 	 	 	 	1581513570	1.34	2.48
12/02/2020 13:19:31	120220	12022020	131931	89.07	12.418798	-57.243535	89.09	0.560	-2.240	0.560	88.97	-4.00	1.50	 	 	 	 	 	 	 	 	 	 	 	 	 	 	 	 	 	 	1581513571	2.90	5.37
12/02/2020 13:19:32	120220	12022020	131932	88.56	12.418790	-57.243520	88.63	1.430	-2.480	1.840	88.56	-4.00	1.90	 	 	 	 	 	 	 	 	 	 	 	 	 	 	 	 	 	 	1581513572	3.59	6.65
12/02/2020 13:19:33	120220	12022020	131933	88.35	12.418783	-57.243510	88.51	1.100	-0.600	2.890	88.37	-0.80	3.50	 	 	 	 	 	 	 	 	 	 	 	 	 	 	 	 	 	 	1581513573	2.39	4.43
12/02/2020 13:19:34	120220	12022020	131934	88.62	12.418780	-57.243513	88.82	-0.210	2.160	3.190	88.62	0.10	3.60	 	 	 	 	 	 	 	 	 	 	 	 	 	 	 	 	 	 	1581513574	1.03	1.91
12/02/2020 13:19:35	120220	12022020	131935	89.11	12.418780	-57.243520	89.30	-1.460	3.780	2.530	89.22	2.40	2.50	 	 	 	 	 	 	 	 	 	 	 	 	 	 	 	 	 	 	1581513575	1.40	2.59
12/02/2020 13:19:36	120220	12022020	131936	89.62	12.418785	-57.243522	89.76	-1.730	3.080	1.330	89.70	0.70	1.20	 	 	 	 	 	 	 	 	 	 	 	 	 	 	 	 	 	 	1581513576	1.26	2.33
12/02/2020 13:19:37	120220	12022020	131937	89.95	12.418792	-57.243515	90.03	-0.870	0.220	0.220	89.97	-2.60	0.30	 	 	 	 	 	 	 	 	 	 	 	 	 	 	 	 	 	 	1581513577	2.08	3.85
12/02/2020 13:19:38	120220	12022020	131938	89.91	12.418797	-57.243498	89.92	0.510	-3.190	-0.390	89.85	-5.60	-0.10	 	 	 	 	 	 	 	 	 	 	 	 	 	 	 	 	 	 	1581513578	3.44	6.37
12/02/2020 13:19:39	120220	12022020	131939	89.51	12.418798	-57.243482	89.50	1.550	-5.000	-0.500	89.42	-6.20	-0.00	 	 	 	 	 	 	 	 	 	 	 	 	 	 	 	 	 	 	1581513579	3.74	6.93
12/02/2020 13:19:40	120220	12022020	131940	89.17	12.418798	-57.243470	89.19	1.620	-3.750	-0.320	89.13	-3.90	0.20	 	 	 	 	 	 	 	 	 	 	 	 	 	 	 	 	 	 	1581513580	2.32	4.30
12/02/2020 13:19:41	120220	12022020	131941	89.13	12.418798	-57.243472	89.20	0.790	-0.310	-0.090	89.15	-0.20	0.40	 	 	 	 	 	 	 	 	 	 	 	 	 	 	 	 	 	 	1581513581	0.25	0.46
12/02/2020 13:19:42	120220	12022020	131942	89.39	12.418798	-57.243480	89.51	-0.400	2.990	0.040	89.47	2.40	0.40	 	 	 	 	 	 	 	 	 	 	 	 	 	 	 	 	 	 	1581513582	1.86	3.44
12/02/2020 13:19:43	120220	12022020	131943	89.81	12.418800	-57.243487	89.93	-1.300	4.140	0.030	89.89	2.40	0.40	 	 	 	 	 	 	 	 	 	 	 	 	 	 	 	 	 	 	1581513583	1.48	2.74
12/02/2020 13:19:44	120220	12022020	131944	90.15	12.418800	-57.243485	90.25	-1.420	2.650	0.120	90.20	0.10	0.60	 	 	 	 	 	 	 	 	 	 	 	 	 	 	 	 	 	 	1581513584	0.51	0.94
12/02/2020 13:19:45	120220	12022020	131945	90.26	12.418797	-57.243473	90.32	-0.760	-0.250	0.510	90.24	-2.80	1.20	 	 	 	 	 	 	 	 	 	 	 	 	 	 	 	 	 	 	1581513585	2.57	4.76
12/02/2020 13:19:46	120220	12022020	131946	90.02	12.418792	-57.243457	90.04	0.260	-2.780	1.270	89.93	-4.70	2.00	 	 	 	 	 	 	 	 	 	 	 	 	 	 	 	 	 	 	1581513586	3.46	6.41
12/02/2020 13:19:47	120220	12022020	131947	89.61	12.418787	-57.243445	89.67	1.040	-3.470	2.050	89.55	-4.50	2.60	 	 	 	 	 	 	 	 	 	 	 	 	 	 	 	 	 	 	1581513587	2.94	5.44
12/02/2020 13:19:48	120220	12022020	131948	89.43	12.418783	-57.243440	89.54	1.090	-2.070	2.300	89.43	-2.50	2.60	 	 	 	 	 	 	 	 	 	 	 	 	 	 	 	 	 	 	1581513588	1.18	2.19
12/02/2020 13:19:49	120220	12022020	131949	89.51	12.418783	-57.243443	89.63	0.390	0.290	1.820	89.54	-0.20	1.90	 	 	 	 	 	 	 	 	 	 	 	 	 	 	 	 	 	 	1581513589	0.75	1.39
12/02/2020 13:19:50	120220	12022020	131950	89.68	12.418788	-57.243450	89.76	-0.500	2.060	0.870	89.70	0.90	0.90	 	 	 	 	 	 	 	 	 	 	 	 	 	 	 	 	 	 	1581513590	1.66	3.07
12/02/2020 13:19:51	120220	12022020	131951	89.74	12.418795	-57.243452	89.79	-0.860	2.030	-0.060	89.74	0.00	0.00	 	 	 	 	 	 	 	 	 	 	 	 	 	 	 	 	 	 	1581513591	1.30	2.41
12/02/2020 13:19:52	120220	12022020	131952	89.65	12.418798	-57.243445	89.67	-0.410	0.160	-0.700	89.63	-2.20	-0.50	 	 	 	 	 	 	 	 	 	 	 	 	 	 	 	 	 	 	1581513592	1.65	3.06
12/02/2020 13:19:53	120220	12022020	131953	89.53	12.418802	-57.243432	89.56	0.420	-1.880	-1.010	89.51	-3.70	-0.60	 	 	 	 	 	 	 	 	 	 	 	 	 	 	 	 	 	 	1581513593	3.04	5.63
12/02/2020 13:19:54	120220	12022020	131954	89.46	12.418802	-57.243418	89.50	0.900	-2.250	-0.910	89.46	-3.20	-0.40	 	 	 	 	 	 	 	 	 	 	 	 	 	 	 	 	 	 	1581513594	2.78	5.15
12/02/2020 13:19:55	120220	12022020	131955	89.45	12.418802	-57.243413	89.49	0.670	-0.750	-0.570	89.44	-1.30	0.00	 	 	 	 	 	 	 	 	 	 	 	 	 	 	 	 	 	 	1581513595	0.85	1.57
12/02/2020 13:19:56	120220	12022020	131956	89.43	12.418800	-57.243418	89.49	-0.030	1.150	-0.130	89.43	-0.60	0.20	 	 	 	 	 	 	 	 	 	 	 	 	 	 	 	 	 	 	1581513596	0.87	1.61
12/02/2020 13:19:57	120220	12022020	131957	89.45	12.418798	-57.243422	89.53	-0.590	1.820	0.470	89.45	0.20	1.20	 	 	 	 	 	 	 	 	 	 	 	 	 	 	 	 	 	 	1581513597	0.98	1.81
12/02/2020 13:19:58	120220	12022020	131958	89.43	12.418793	-57.243420	89.52	-0.560	0.800	1.340	89.43	-0.20	1.50	 	 	 	 	 	 	 	 	 	 	 	 	 	 	 	 	 	 	1581513598	1.01	1.87
12/02/2020 13:19:59	120220	12022020	131959	89.38	12.418790	-57.243410	89.48	-0.010	-0.870	2.120	89.37	-2.80	2.70	 	 	 	 	 	 	 	 	 	 	 	 	 	 	 	 	 	 	1581513599	2.32	4.30
12/02/2020 13:20:00	120220	12022020	132000	89.37	12.418787	-57.243398	89.49	0.580	-1.760	2.560	89.37	-3.10	3.00	 	 	 	 	 	 	 	 	 	 	 	 	 	 	 	 	 	 	1581513600	2.45	4.54
12/02/2020 13:20:01	120220	12022020	132001	89.35	12.418787	-57.243392	89.47	0.720	-1.320	2.750	89.34	-2.30	3.20	 	 	 	 	 	 	 	 	 	 	 	 	 	 	 	 	 	 	1581513601	1.43	2.65
12/02/2020 13:20:02	120220	12022020	132002	89.27	12.418787	-57.243390	89.37	0.360	-0.160	2.700	89.25	-1.10	3.00	1017.30	26.40	26.50	20.30	20.30	476.0	68.0	69.0	399.0	28.7	352.00	11.90	80.00	10.90	39225	11122.0	27.5	27.5	1581513602	0.22	0.41
12/02/2020 13:20:03	120220	12022020	132003	89.21	12.418788	-57.243392	89.31	-0.150	0.710	2.270	89.22	-0.60	2.40	 	 	 	 	 	 	 	 	 	 	 	 	 	 	 	 	 	 	1581513603	0.35	0.65
12/02/2020 13:20:04	120220	12022020	132004	89.29	12.418790	-57.243390	89.39	-0.490	0.850	1.580	89.33	-0.70	1.70	 	 	 	 	 	 	 	 	 	 	 	 	 	 	 	 	 	 	1581513604	0.74	1.37
12/02/2020 13:20:05	120220	12022020	132005	89.54	12.418793	-57.243385	89.65	-0.510	0.420	0.870	89.61	-1.30	1.00	 	 	 	 	 	 	 	 	 	 	 	 	 	 	 	 	 	 	1581513605	1.12	2.07
12/02/2020 13:20:06	120220	12022020	132006	89.89	12.418795	-57.243378	89.98	-0.180	-0.410	0.120	89.95	-2.20	0.30	 	 	 	 	 	 	 	 	 	 	 	 	 	 	 	 	 	 	1581513606	1.40	2.59
12/02/2020 13:20:07	120220	12022020	132007	90.02	12.418797	-57.243372	90.04	0.460	-1.310	-0.310	89.98	-3.00	0.10	 	 	 	 	 	 	 	 	 	 	 	 	 	 	 	 	 	 	1581513607	1.77	3.28
12/02/2020 13:20:08	120220	12022020	132008	89.62	12.418798	-57.243362	89.59	1.050	-1.660	-0.060	89.50	-2.90	0.60	 	 	 	 	 	 	 	 	 	 	 	 	 	 	 	 	 	 	1581513608	2.00	3.70
12/02/2020 13:20:09	120220	12022020	132009	89.11	12.418798	-57.243355	89.13	1.030	-0.800	0.530	89.06	-1.50	1.20	 	 	 	 	 	 	 	 	 	 	 	 	 	 	 	 	 	 	1581513609	1.46	2.70
12/02/2020 13:20:10	120220	12022020	132010	89.08	12.418798	-57.243353	89.21	0.280	0.880	0.960	89.08	-0.90	1.30	 	 	 	 	 	 	 	 	 	 	 	 	 	 	 	 	 	 	1581513610	0.17	0.31
12/02/2020 13:20:11	120220	12022020	132011	89.59	12.418800	-57.243357	89.79	-0.700	2.070	1.070	89.74	0.80	1.50	 	 	 	 	 	 	 	 	 	 	 	 	 	 	 	 	 	 	1581513611	0.69	1.28
12/02/2020 13:20:12	120220	12022020	132012	90.35	12.418800	-57.243358	90.53	-1.250	1.810	1.070	90.35	0.60	1.50	 	 	 	 	 	 	 	 	 	 	 	 	 	 	 	 	 	 	1581513612	0.27	0.50
12/02/2020 13:20:13	120220	12022020	132013	90.93	12.418798	-57.243353	91.07	-0.990	0.130	1.240	91.00	-2.10	1.80	 	 	 	 	 	 	 	 	 	 	 	 	 	 	 	 	 	 	1581513613	1.16	2.15
12/02/2020 13:20:14	120220	12022020	132014	91.06	12.418793	-57.243342	91.13	-0.100	-1.890	1.760	91.02	-3.90	2.50	 	 	 	 	 	 	 	 	 	 	 	 	 	 	 	 	 	 	1581513614	2.52	4.67
12/02/2020 13:20:15	120220	12022020	132015	90.73	12.418788	-57.243330	90.78	0.830	-2.890	2.510	90.63	-4.20	3.10	 	 	 	 	 	 	 	 	 	 	 	 	 	 	 	 	 	 	1581513615	2.91	5.39
12/02/2020 13:20:16	120220	12022020	132016	90.24	12.418783	-57.243322	90.30	1.170	-2.200	2.940	90.15	-2.90	3.30	 	 	 	 	 	 	 	 	 	 	 	 	 	 	 	 	 	 	1581513616	1.96	3.63
12/02/2020 13:20:17	120220	12022020	132017	89.87	12.418783	-57.243320	89.96	0.800	-0.380	2.730	89.82	-1.00	2.80	 	 	 	 	 	 	 	 	 	 	 	 	 	 	 	 	 	 	1581513617	0.40	0.74
12/02/2020 13:20:18	120220	12022020	132018	89.80	12.418785	-57.243322	89.93	0.070	1.300	1.840	89.85	0.30	1.70	 	 	 	 	 	 	 	 	 	 	 	 	 	 	 	 	 	 	1581513618	0.77	1.43
12/02/2020 13:20:19	120220	12022020	132019	90.21	12.418792	-57.243322	90.36	-0.570	1.980	0.420	90.34	0.50	0.20	 	 	 	 	 	 	 	 	 	 	 	 	 	 	 	 	 	 	1581513619	1.27	2.35
12/02/2020 13:20:20	120220	12022020	132020	90.89	12.418798	-57.243318	91.00	-0.800	1.560	-1.060	91.01	-0.30	-1.10	 	 	 	 	 	 	 	 	 	 	 	 	 	 	 	 	 	 	1581513620	1.69	3.13
12/02/2020 13:20:21	120220	12022020	132021	91.26	12.418805	-57.243312	91.27	-0.500	0.330	-1.910	91.25	-1.70	-1.60	 	 	 	 	 	 	 	 	 	 	 	 	 	 	 	 	 	 	1581513621	1.97	3.65
12/02/2020 13:20:22	120220	12022020	132022	91.07	12.418807	-57.243302	90.91	0.090	-1.060	-1.810	90.97	-2.20	-1.50	 	 	 	 	 	 	 	 	 	 	 	 	 	 	 	 	 	 	1581513622	2.13	3.94
12/02/2020 13:20:23	120220	12022020	132023	90.45	12.418807	-57.243292	90.45	0.510	-1.670	-1.070	90.39	-3.00	-0.30	 	 	 	 	 	 	 	 	 	 	 	 	 	 	 	 	 	 	1581513623	2.07	3.83
12/02/2020 13:20:24	120220	12022020	132024	90.30	12.418803	-57.243285	90.39	0.430	-1.230	-0.010	90.30	-2.80	0.10	 	 	 	 	 	 	 	 	 	 	 	 	 	 	 	 	 	 	1581513624	1.35	2.50
12/02/2020 13:20:25	120220	12022020	132025	90.48	12.418800	-57.243285	90.61	0.030	-0.410	1.160	90.52	-1.60	2.00	 	 	 	 	 	 	 	 	 	 	 	 	 	 	 	 	 	 	1581513625	1.00	1.85
12/02/2020 13:20:26	120220	12022020	132026	90.65	12.418793	-57.243283	90.81	-0.220	0.010	2.250	90.68	-1.40	3.00	 	 	 	 	 	 	 	 	 	 	 	 	 	 	 	 	 	 	1581513626	1.34	2.48
12/02/2020 13:20:27	120220	12022020	132027	90.82	12.418787	-57.243278	90.99	-0.110	0.050	3.020	90.85	-1.40	3.60	 	 	 	 	 	 	 	 	 	 	 	 	 	 	 	 	 	 	1581513627	1.80	3.33
12/02/2020 13:20:28	120220	12022020	132028	90.93	12.418780	-57.243272	91.09	0.100	0.070	3.510	90.93	-1.40	3.80	 	 	 	 	 	 	 	 	 	 	 	 	 	 	 	 	 	 	1581513628	1.94	3.59
12/02/2020 13:20:29	120220	12022020	132029	90.86	12.418775	-57.243265	90.99	0.060	0.230	3.670	90.82	-1.10	4.00	 	 	 	 	 	 	 	 	 	 	 	 	 	 	 	 	 	 	1581513629	1.65	3.06
12/02/2020 13:20:30	120220	12022020	132030	90.66	12.418773	-57.243260	90.77	-0.240	0.410	3.190	90.62	-1.00	3.10	 	 	 	 	 	 	 	 	 	 	 	 	 	 	 	 	 	 	1581513630	1.06	1.96
12/02/2020 13:20:31	120220	12022020	132031	90.54	12.418777	-57.243257	90.62	-0.440	0.360	1.950	90.52	-1.20	1.80	 	 	 	 	 	 	 	 	 	 	 	 	 	 	 	 	 	 	1581513631	1.09	2.02
12/02/2020 13:20:32	120220	12022020	132032	90.42	12.418785	-57.243252	90.45	-0.210	-0.140	0.530	90.37	-1.90	0.40	 	 	 	 	 	 	 	 	 	 	 	 	 	 	 	 	 	 	1581513632	1.91	3.54
12/02/2020 13:20:33	120220	12022020	132033	90.19	12.418793	-57.243245	90.18	0.370	-0.900	-0.680	90.14	-2.50	-0.70	 	 	 	 	 	 	 	 	 	 	 	 	 	 	 	 	 	 	1581513633	2.39	4.43
12/02/2020 13:20:34	120220	12022020	132034	90.02	12.418802	-57.243237	90.04	0.810	-1.320	-1.630	90.02	-2.70	-1.50	 	 	 	 	 	 	 	 	 	 	 	 	 	 	 	 	 	 	1581513634	2.58	4.78
12/02/2020 13:20:35	120220	12022020	132035	90.18	12.418808	-57.243228	90.25	0.640	-0.910	-2.090	90.26	-1.90	-1.70	 	 	 	 	 	 	 	 	 	 	 	 	 	 	 	 	 	 	1581513635	2.11	3.91
12/02/2020 13:20:36	120220	12022020	132036	90.64	12.418810	-57.243225	90.73	-0.110	0.180	-1.840	90.74	-0.80	-1.10	 	 	 	 	 	 	 	 	 	 	 	 	 	 	 	 	 	 	1581513636	0.88	1.63
12/02/2020 13:20:37	120220	12022020	132037	91.08	12.418807	-57.243225	91.16	-0.840	1.090	-0.810	91.12	-0.30	0.20	 	 	 	 	 	 	 	 	 	 	 	 	 	 	 	 	 	 	1581513637	0.72	1.33
12/02/2020 13:20:38	120220	12022020	132038	91.15	12.418798	-57.243223	91.21	-0.960	0.920	0.890	91.12	-0.90	2.10	 	 	 	 	 	 	 	 	 	 	 	 	 	 	 	 	 	 	1581513638	1.77	3.28
12/02/2020 13:20:39	120220	12022020	132039	90.91	12.418787	-57.243217	91.00	-0.370	-0.140	2.790	90.85	-2.00	3.90	 	 	 	 	 	 	 	 	 	 	 	 	 	 	 	 	 	 	1581513639	2.84	5.26
12/02/2020 13:20:40	120220	12022020	132040	90.59	12.418775	-57.243205	90.71	0.380	-1.050	4.460	90.53	-2.60	5.30	 	 	 	 	 	 	 	 	 	 	 	 	 	 	 	 	 	 	1581513640	3.30	6.11
12/02/2020 13:20:41	120220	12022020	132041	90.36	12.418767	-57.243197	90.53	0.640	-1.050	5.420	90.34	-2.20	5.90	 	 	 	 	 	 	 	 	 	 	 	 	 	 	 	 	 	 	1581513641	2.64	4.89
12/02/2020 13:20:42	120220	12022020	132042	90.35	12.418763	-57.243192	90.53	0.300	-0.350	5.290	90.37	-1.40	5.30	 	 	 	 	 	 	 	 	 	 	 	 	 	 	 	 	 	 	1581513642	1.20	2.22
12/02/2020 13:20:43	120220	12022020	132043	90.47	12.418767	-57.243190	90.63	-0.220	0.340	4.040	90.51	-0.90	3.70	 	 	 	 	 	 	 	 	 	 	 	 	 	 	 	 	 	 	1581513643	0.70	1.30
12/02/2020 13:20:44	120220	12022020	132044	90.67	12.418775	-57.243187	90.79	-0.450	0.490	2.090	90.73	-1.00	1.60	 	 	 	 	 	 	 	 	 	 	 	 	 	 	 	 	 	 	1581513644	1.83	3.39
12/02/2020 13:20:45	120220	12022020	132045	90.98	12.418785	-57.243182	91.05	-0.250	0.120	-0.030	91.04	-1.50	-0.40	 	 	 	 	 	 	 	 	 	 	 	 	 	 	 	 	 	 	1581513645	2.52	4.67
12/02/2020 13:20:46	120220	12022020	132046	91.23	12.418795	-57.243175	91.27	0.130	-0.480	-1.860	91.26	-1.70	-1.10	 	 	 	 	 	 	 	 	 	 	 	 	 	 	 	 	 	 	1581513646	2.78	5.15
12/02/2020 13:20:47	120220	12022020	132047	91.22	12.418803	-57.243165	91.13	0.400	-1.030	-2.890	91.15	-2.60	-2.60	 	 	 	 	 	 	 	 	 	 	 	 	 	 	 	 	 	 	1581513647	2.60	4.82
12/02/2020 13:20:48	120220	12022020	132048	90.73	12.418808	-57.243157	90.61	0.390	-1.140	-2.870	90.73	-2.60	-2.50	 	 	 	 	 	 	 	 	 	 	 	 	 	 	 	 	 	 	1581513648	2.07	3.83
12/02/2020 13:20:49	120220	12022020	132049	90.29	12.418807	-57.243150	90.25	0.030	-0.450	-2.020	90.25	-1.40	-1.10	 	 	 	 	 	 	 	 	 	 	 	 	 	 	 	 	 	 	1581513649	1.46	2.70
12/02/2020 13:20:50	120220	12022020	132050	90.30	12.418802	-57.243147	90.35	-0.450	0.660	-0.740	90.35	-0.40	0.20	 	 	 	 	 	 	 	 	 	 	 	 	 	 	 	 	 	 	1581513650	1.29	2.39
12/02/2020 13:20:51	120220	12022020	132051	90.67	12.418793	-57.243147	90.77	-0.680	1.290	0.590	90.74	-0.20	1.50	 	 	 	 	 	 	 	 	 	 	 	 	 	 	 	 	 	 	1581513651	1.70	3.15
12/02/2020 13:20:52	120220	12022020	132052	90.88	12.418787	-57.243142	90.96	-0.430	0.810	2.000	90.87	-1.10	2.90	 	 	 	 	 	 	 	 	 	 	 	 	 	 	 	 	 	 	1581513652	1.86	3.44
12/02/2020 13:20:53	120220	12022020	132053	90.76	12.418778	-57.243133	90.86	0.080	-0.380	3.270	90.74	-2.20	4.00	 	 	 	 	 	 	 	 	 	 	 	 	 	 	 	 	 	 	1581513653	2.45	4.54
12/02/2020 13:20:54	120220	12022020	132054	90.66	12.418773	-57.243123	90.79	0.310	-1.120	4.150	90.66	-2.50	4.80	 	 	 	 	 	 	 	 	 	 	 	 	 	 	 	 	 	 	1581513654	2.60	4.82
12/02/2020 13:20:55	120220	12022020	132055	90.69	12.418768	-57.243115	90.85	0.130	-0.950	4.670	90.70	-2.10	5.10	 	 	 	 	 	 	 	 	 	 	 	 	 	 	 	 	 	 	1581513655	1.93	3.57
12/02/2020 13:20:56	120220	12022020	132056	90.73	12.418765	-57.243112	90.86	-0.120	-0.430	4.490	90.73	-1.70	4.60	 	 	 	 	 	 	 	 	 	 	 	 	 	 	 	 	 	 	1581513656	1.14	2.11
12/02/2020 13:20:57	120220	12022020	132057	90.67	12.418763	-57.243108	90.74	0.010	-0.360	3.540	90.63	-1.90	3.40	 	 	 	 	 	 	 	 	 	 	 	 	 	 	 	 	 	 	1581513657	0.81	1.50
12/02/2020 13:20:58	120220	12022020	132058	90.41	12.418768	-57.243100	90.43	0.420	-0.660	2.170	90.34	-2.10	2.00	 	 	 	 	 	 	 	 	 	 	 	 	 	 	 	 	 	 	1581513658	1.81	3.35
12/02/2020 13:20:59	120220	12022020	132059	90.13	12.418775	-57.243090	90.14	0.570	-0.580	0.650	90.09	-1.70	0.40	 	 	 	 	 	 	 	 	 	 	 	 	 	 	 	 	 	 	1581513659	2.53	4.69
12/02/2020 13:21:00	120220	12022020	132100	90.02	12.418783	-57.243083	90.01	0.150	0.190	-0.920	90.02	-1.50	-0.10	 	 	 	 	 	 	 	 	 	 	 	 	 	 	 	 	 	 	1581513660	2.34	4.33
12/02/2020 13:21:01	120220	12022020	132101	90.02	12.418792	-57.243080	90.01	-0.530	1.050	-2.120	90.03	-0.20	-2.00	 	 	 	 	 	 	 	 	 	 	 	 	 	 	 	 	 	 	1581513661	1.87	3.46
12/02/2020 13:21:02	120220	12022020	132102	90.14	12.418797	-57.243078	90.14	-0.980	1.380	-2.670	90.17	-0.20	-2.30	1017.40	26.50	26.50	20.30	20.30	571.0	68.0	68.0	399.0	28.6	347.00	12.00	76.00	11.20	42453	10992.0	27.5	27.5	1581513662	1.19	2.20
12/02/2020 13:21:03	120220	12022020	132103	90.30	12.418797	-57.243075	90.31	-0.870	0.820	-2.420	90.32	-1.10	-1.70	 	 	 	 	 	 	 	 	 	 	 	 	 	 	 	 	 	 	1581513663	0.93	1.72
12/02/2020 13:21:04	120220	12022020	132104	90.35	12.418795	-57.243067	90.36	-0.260	-0.570	-1.480	90.34	-2.70	-0.60	 	 	 	 	 	 	 	 	 	 	 	 	 	 	 	 	 	 	1581513664	1.82	3.37
12/02/2020 13:21:05	120220	12022020	132105	90.26	12.418788	-57.243053	90.30	0.490	-2.070	-0.140	90.24	-3.90	0.90	 	 	 	 	 	 	 	 	 	 	 	 	 	 	 	 	 	 	1581513665	2.85	5.28
12/02/2020 13:21:06	120220	12022020	132106	90.10	12.418780	-57.243042	90.15	0.950	-2.590	1.560	90.05	-3.80	2.70	 	 	 	 	 	 	 	 	 	 	 	 	 	 	 	 	 	 	1581513666	3.22	5.96
12/02/2020 13:21:07	120220	12022020	132107	89.81	12.418770	-57.243032	89.89	0.940	-1.680	3.470	89.73	-2.40	4.50	 	 	 	 	 	 	 	 	 	 	 	 	 	 	 	 	 	 	1581513667	2.91	5.39
12/02/2020 13:21:08	120220	12022020	132108	89.48	12.418760	-57.243028	89.60	0.450	0.160	4.830	89.44	-0.50	5.40	 	 	 	 	 	 	 	 	 	 	 	 	 	 	 	 	 	 	1581513668	2.36	4.37
12/02/2020 13:21:09	120220	12022020	132109	89.47	12.418755	-57.243028	89.66	-0.330	1.940	4.740	89.53	1.00	4.60	 	 	 	 	 	 	 	 	 	 	 	 	 	 	 	 	 	 	1581513669	1.20	2.22
12/02/2020 13:21:10	120220	12022020	132110	89.91	12.418757	-57.243028	90.08	-1.020	2.670	3.130	90.02	1.10	2.70	 	 	 	 	 	 	 	 	 	 	 	 	 	 	 	 	 	 	1581513670	0.46	0.85
12/02/2020 13:21:11	120220	12022020	132111	90.39	12.418765	-57.243025	90.49	-1.150	1.870	1.080	90.46	-0.30	0.80	 	 	 	 	 	 	 	 	 	 	 	 	 	 	 	 	 	 	1581513671	1.90	3.52
12/02/2020 13:21:12	120220	12022020	132112	90.56	12.418773	-57.243015	90.56	-0.660	-0.060	-0.430	90.54	-2.40	-0.50	 	 	 	 	 	 	 	 	 	 	 	 	 	 	 	 	 	 	1581513672	2.70	5.00
12/02/2020 13:21:13	120220	12022020	132113	90.33	12.418778	-57.243002	90.28	0.080	-2.050	-1.270	90.25	-4.00	-1.10	 	 	 	 	 	 	 	 	 	 	 	 	 	 	 	 	 	 	1581513673	3.09	5.72
12/02/2020 13:21:14	120220	12022020	132114	89.97	12.418783	-57.242988	89.93	0.630	-3.030	-1.750	89.97	-4.30	-1.30	 	 	 	 	 	 	 	 	 	 	 	 	 	 	 	 	 	 	1581513674	2.93	5.43
12/02/2020 13:21:15	120220	12022020	132115	89.84	12.418787	-57.242978	89.84	0.800	-2.540	-1.820	89.85	-3.40	-1.30	 	 	 	 	 	 	 	 	 	 	 	 	 	 	 	 	 	 	1581513675	2.11	3.91
12/02/2020 13:21:16	120220	12022020	132116	89.95	12.418785	-57.242975	89.99	0.630	-0.880	-1.250	89.98	-1.50	-0.50	 	 	 	 	 	 	 	 	 	 	 	 	 	 	 	 	 	 	1581513676	1.00	1.85
12/02/2020 13:21:17	120220	12022020	132117	90.13	12.418782	-57.242973	90.19	0.260	0.930	-0.130	90.16	0.00	0.80	 	 	 	 	 	 	 	 	 	 	 	 	 	 	 	 	 	 	1581513677	0.93	1.72
12/02/2020 13:21:18	120220	12022020	132118	90.26	12.418775	-57.242972	90.36	-0.130	1.860	1.210	90.29	0.40	2.10	 	 	 	 	 	 	 	 	 	 	 	 	 	 	 	 	 	 	1581513678	1.37	2.54
12/02/2020 13:21:19	120220	12022020	132119	90.37	12.418768	-57.242965	90.49	-0.390	1.600	2.370	90.40	-0.20	3.10	 	 	 	 	 	 	 	 	 	 	 	 	 	 	 	 	 	 	1581513679	1.94	3.59
12/02/2020 13:21:20	120220	12022020	132120	90.56	12.418762	-57.242957	90.71	-0.470	0.700	3.090	90.62	-1.10	3.60	 	 	 	 	 	 	 	 	 	 	 	 	 	 	 	 	 	 	1581513680	2.52	4.67
12/02/2020 13:21:21	120220	12022020	132121	90.83	12.418757	-57.242945	90.97	-0.350	-0.180	3.450	90.87	-1.90	3.90	 	 	 	 	 	 	 	 	 	 	 	 	 	 	 	 	 	 	1581513681	2.47	4.57
12/02/2020 13:21:22	120220	12022020	132122	90.95	12.418753	-57.242937	91.06	-0.070	-0.830	3.560	90.95	-2.50	3.90	 	 	 	 	 	 	 	 	 	 	 	 	 	 	 	 	 	 	1581513682	2.03	3.76
12/02/2020 13:21:23	120220	12022020	132123	90.88	12.418753	-57.242928	90.96	0.280	-1.300	3.230	90.86	-2.80	3.30	 	 	 	 	 	 	 	 	 	 	 	 	 	 	 	 	 	 	1581513683	1.77	3.28
12/02/2020 13:21:24	120220	12022020	132124	90.69	12.418757	-57.242920	90.73	0.500	-1.380	2.420	90.64	-2.60	2.40	 	 	 	 	 	 	 	 	 	 	 	 	 	 	 	 	 	 	1581513684	1.99	3.69
12/02/2020 13:21:25	120220	12022020	132125	90.37	12.418762	-57.242912	90.36	0.430	-0.860	1.440	90.29	-2.00	1.40	 	 	 	 	 	 	 	 	 	 	 	 	 	 	 	 	 	 	1581513685	2.02	3.74
12/02/2020 13:21:26	120220	12022020	132126	90.00	12.418768	-57.242905	89.97	0.150	-0.090	0.490	90.00	-1.70	1.10	 	 	 	 	 	 	 	 	 	 	 	 	 	 	 	 	 	 	1581513686	1.74	3.22
12/02/2020 13:21:27	120220	12022020	132127	89.76	12.418773	-57.242900	89.76	-0.170	0.440	-0.420	89.75	-0.90	-0.40	 	 	 	 	 	 	 	 	 	 	 	 	 	 	 	 	 	 	1581513687	1.57	2.91
12/02/2020 13:21:28	120220	12022020	132128	89.84	12.418777	-57.242893	89.87	-0.350	0.490	-1.250	89.89	-1.00	-1.20	 	 	 	 	 	 	 	 	 	 	 	 	 	 	 	 	 	 	1581513688	1.67	3.09
12/02/2020 13:21:29	120220	12022020	132129	90.14	12.418777	-57.242883	90.18	-0.350	0.210	-1.890	90.21	-1.30	-1.70	 	 	 	 	 	 	 	 	 	 	 	 	 	 	 	 	 	 	1581513689	1.97	3.65
12/02/2020 13:21:30	120220	12022020	132130	90.39	12.418778	-57.242873	90.40	-0.270	-0.010	-2.020	90.40	-1.40	-1.50	 	 	 	 	 	 	 	 	 	 	 	 	 	 	 	 	 	 	1581513690	2.08	3.85
12/02/2020 13:21:31	120220	12022020	132131	90.32	12.418777	-57.242865	90.30	-0.240	-0.020	-1.400	90.26	-1.40	-0.60	 	 	 	 	 	 	 	 	 	 	 	 	 	 	 	 	 	 	1581513691	1.84	3.41
12/02/2020 13:21:32	120220	12022020	132132	89.88	12.418772	-57.242858	89.84	-0.180	-0.100	-0.100	89.75	-1.60	0.90	 	 	 	 	 	 	 	 	 	 	 	 	 	 	 	 	 	 	1581513692	1.77	3.28
12/02/2020 13:21:33	120220	12022020	132133	89.13	12.418765	-57.242850	89.11	0.090	-0.490	1.590	88.97	-2.10	2.60	 	 	 	 	 	 	 	 	 	 	 	 	 	 	 	 	 	 	1581513693	2.36	4.37
12/02/2020 13:21:34	120220	12022020	132134	88.44	12.418757	-57.242838	88.49	0.520	-0.810	2.890	88.35	-2.20	3.50	 	 	 	 	 	 	 	 	 	 	 	 	 	 	 	 	 	 	1581513694	2.83	5.24
12/02/2020 13:21:35	120220	12022020	132135	88.16	12.418753	-57.242828	88.28	0.770	-0.620	3.270	88.15	-1.80	3.60	 	 	 	 	 	 	 	 	 	 	 	 	 	 	 	 	 	 	1581513695	2.34	4.33
12/02/2020 13:21:36	120220	12022020	132136	88.22	12.418753	-57.242822	88.36	0.630	-0.150	2.960	88.26	-1.40	3.10	 	 	 	 	 	 	 	 	 	 	 	 	 	 	 	 	 	 	1581513696	1.61	2.98
12/02/2020 13:21:37	120220	12022020	132137	88.41	12.418757	-57.242815	88.54	0.200	0.080	2.330	88.44	-1.40	2.40	 	 	 	 	 	 	 	 	 	 	 	 	 	 	 	 	 	 	1581513697	1.59	2.94
12/02/2020 13:21:38	120220	12022020	132138	88.45	12.418758	-57.242805	88.45	-0.190	-0.080	1.750	88.41	-1.40	2.20	 	 	 	 	 	 	 	 	 	 	 	 	 	 	 	 	 	 	1581513698	1.93	3.57
12/02/2020 13:21:39	120220	12022020	132139	87.97	12.418760	-57.242795	87.97	-0.410	-0.240	1.410	87.87	-1.60	1.70	 	 	 	 	 	 	 	 	 	 	 	 	 	 	 	 	 	 	1581513699	2.29	4.24
12/02/2020 13:21:40	120220	12022020	132140	87.44	12.418762	-57.242785	87.46	-0.600	0.010	1.320	87.36	-1.20	1.70	 	 	 	 	 	 	 	 	 	 	 	 	 	 	 	 	 	 	1581513700	2.13	3.94
12/02/2020 13:21:41	120220	12022020	132141	87.17	12.418758	-57.242777	87.23	-0.750	0.400	1.250	87.15	-0.90	1.50	 	 	 	 	 	 	 	 	 	 	 	 	 	 	 	 	 	 	1581513701	1.66	3.07
12/02/2020 13:21:42	120220	12022020	132142	87.17	12.418757	-57.242770	87.24	-0.630	0.420	0.860	87.18	-1.10	1.00	 	 	 	 	 	 	 	 	 	 	 	 	 	 	 	 	 	 	1581513702	1.53	2.83
12/02/2020 13:21:43	120220	12022020	132143	87.23	12.418757	-57.242762	87.29	-0.110	-0.090	0.340	87.23	-1.80	0.50	 	 	 	 	 	 	 	 	 	 	 	 	 	 	 	 	 	 	1581513703	1.84	3.41
12/02/2020 13:21:44	120220	12022020	132144	87.17	12.418760	-57.242750	87.20	0.610	-0.900	-0.030	87.13	-2.60	0.30	 	 	 	 	 	 	 	 	 	 	 	 	 	 	 	 	 	 	1581513704	2.51	4.65
12/02/2020 13:21:45	120220	12022020	132145	86.94	12.418763	-57.242737	86.97	1.110	-1.460	0.080	86.89	-2.90	0.70	 	 	 	 	 	 	 	 	 	 	 	 	 	 	 	 	 	 	1581513705	2.88	5.33
12/02/2020 13:21:46	120220	12022020	132146	86.75	12.418765	-57.242725	86.83	1.110	-1.210	0.660	86.74	-2.30	1.30	 	 	 	 	 	 	 	 	 	 	 	 	 	 	 	 	 	 	1581513706	2.62	4.85
12/02/2020 13:21:47	120220	12022020	132147	86.79	12.418765	-57.242717	86.92	0.610	-0.230	1.370	86.83	-1.20	2.00	 	 	 	 	 	 	 	 	 	 	 	 	 	 	 	 	 	 	1581513707	1.86	3.44
12/02/2020 13:21:48	120220	12022020	132148	87.00	12.418763	-57.242710	87.26	-0.170	0.900	1.890	87.07	-0.80	2.20	 	 	 	 	 	 	 	 	 	 	 	 	 	 	 	 	 	 	1581513708	1.33	2.46
12/02/2020 13:21:49	120220	12022020	132149	87.53	12.418760	-57.242705	87.74	-0.950	1.700	2.150	87.63	0.40	2.60	 	 	 	 	 	 	 	 	 	 	 	 	 	 	 	 	 	 	1581513709	1.22	2.26
12/02/2020 13:21:50	120220	12022020	132150	88.00	12.418757	-57.242700	88.20	-1.370	1.590	2.400	88.00	0.30	2.70	 	 	 	 	 	 	 	 	 	 	 	 	 	 	 	 	 	 	1581513710	1.27	2.35
12/02/2020 13:21:51	120220	12022020	132151	88.26	12.418753	-57.242690	88.42	-1.050	0.050	2.770	88.28	-2.30	3.20	 	 	 	 	 	 	 	 	 	 	 	 	 	 	 	 	 	 	1581513711	2.05	3.80
12/02/2020 13:21:52	120220	12022020	132152	88.25	12.418750	-57.242675	88.37	-0.010	-2.180	2.970	88.25	-3.10	3.30	 	 	 	 	 	 	 	 	 	 	 	 	 	 	 	 	 	 	1581513712	3.49	6.46
12/02/2020 13:21:53	120220	12022020	132153	88.09	12.418748	-57.242655	88.22	1.030	-3.190	2.950	88.09	-4.30	3.20	 	 	 	 	 	 	 	 	 	 	 	 	 	 	 	 	 	 	1581513713	4.10	7.59
12/02/2020 13:21:54	120220	12022020	132154	88.21	12.418748	-57.242642	88.37	1.300	-1.890	2.570	88.28	-2.30	2.70	 	 	 	 	 	 	 	 	 	 	 	 	 	 	 	 	 	 	1581513714	2.78	5.15
12/02/2020 13:21:55	120220	12022020	132155	88.65	12.418752	-57.242638	88.81	0.670	0.600	1.790	88.74	0.10	1.80	 	 	 	 	 	 	 	 	 	 	 	 	 	 	 	 	 	 	1581513715	0.86	1.59
12/02/2020 13:21:56	120220	12022020	132156	89.07	12.418757	-57.242640	89.18	-0.330	2.450	0.770	89.13	1.30	0.70	 	 	 	 	 	 	 	 	 	 	 	 	 	 	 	 	 	 	1581513716	1.07	1.98
12/02/2020 13:21:57	120220	12022020	132157	89.30	12.418763	-57.242638	89.36	-1.030	2.610	-0.320	89.32	0.70	-0.30	 	 	 	 	 	 	 	 	 	 	 	 	 	 	 	 	 	 	1581513717	1.50	2.78
12/02/2020 13:21:58	120220	12022020	132158	89.38	12.418770	-57.242628	89.41	-0.970	1.130	-1.180	89.39	-1.20	-1.00	 	 	 	 	 	 	 	 	 	 	 	 	 	 	 	 	 	 	1581513718	2.43	4.50
12/02/2020 13:21:59	120220	12022020	132159	89.39	12.418775	-57.242613	89.41	-0.280	-1.090	-1.640	89.39	-3.30	-1.30	 	 	 	 	 	 	 	 	 	 	 	 	 	 	 	 	 	 	1581513719	3.42	6.33
12/02/2020 13:22:00	120220	12022020	132200	89.34	12.418777	-57.242597	89.37	0.430	-2.740	-1.520	89.32	-4.40	-1.00	 	 	 	 	 	 	 	 	 	 	 	 	 	 	 	 	 	 	1581513720	3.74	6.93
12/02/2020 13:22:01	120220	12022020	132201	89.24	12.418777	-57.242582	89.27	0.700	-2.860	-0.950	89.22	-3.80	-0.30	 	 	 	 	 	 	 	 	 	 	 	 	 	 	 	 	 	 	1581513721	3.17	5.87
12/02/2020 13:22:02	120220	12022020	132202	89.13	12.418772	-57.242572	89.15	0.520	-1.510	-0.160	89.10	-3.30	-0.00	1017.40	26.50	26.60	20.50	20.50	520.0	69.0	69.0	399.0	28.5	350.00	11.90	78.00	10.90	41128	10791.0	27.5	27.5	1581513722	2.12	3.93
12/02/2020 13:22:03	120220	12022020	132203	89.07	12.418767	-57.242567	89.16	0.120	0.400	0.680	89.08	-0.30	1.40	 	 	 	 	 	 	 	 	 	 	 	 	 	 	 	 	 	 	1581513723	1.51	2.80
12/02/2020 13:22:04	120220	12022020	132204	89.15	12.418760	-57.242563	89.26	-0.320	1.830	1.450	89.16	0.20	1.60	 	 	 	 	 	 	 	 	 	 	 	 	 	 	 	 	 	 	1581513724	1.51	2.80
12/02/2020 13:22:05	120220	12022020	132205	89.02	12.418755	-57.242558	89.08	-0.650	2.070	2.020	88.95	0.40	2.50	 	 	 	 	 	 	 	 	 	 	 	 	 	 	 	 	 	 	1581513725	1.72	3.19
12/02/2020 13:22:06	120220	12022020	132206	88.51	12.418752	-57.242548	88.53	-0.730	1.160	2.290	88.40	-0.80	2.60	 	 	 	 	 	 	 	 	 	 	 	 	 	 	 	 	 	 	1581513726	2.25	4.17
12/02/2020 13:22:07	120220	12022020	132207	88.00	12.418752	-57.242533	88.05	-0.500	-0.220	2.200	87.94	-2.10	2.40	 	 	 	 	 	 	 	 	 	 	 	 	 	 	 	 	 	 	1581513727	2.89	5.35
12/02/2020 13:22:08	120220	12022020	132208	87.86	12.418753	-57.242520	87.95	-0.020	-1.390	1.770	87.87	-3.10	1.90	 	 	 	 	 	 	 	 	 	 	 	 	 	 	 	 	 	 	1581513728	2.99	5.54
12/02/2020 13:22:09	120220	12022020	132209	87.91	12.418755	-57.242507	87.98	0.590	-2.010	1.200	87.91	-3.40	1.40	 	 	 	 	 	 	 	 	 	 	 	 	 	 	 	 	 	 	1581513729	2.81	5.20
12/02/2020 13:22:10	120220	12022020	132210	87.74	12.418758	-57.242495	87.75	1.000	-1.820	0.780	87.66	-2.90	1.10	 	 	 	 	 	 	 	 	 	 	 	 	 	 	 	 	 	 	1581513730	2.60	4.82
12/02/2020 13:22:11	120220	12022020	132211	87.19	12.418762	-57.242485	87.15	0.880	-0.690	0.730	87.05	-1.50	1.20	 	 	 	 	 	 	 	 	 	 	 	 	 	 	 	 	 	 	1581513731	2.05	3.80
12/02/2020 13:22:12	120220	12022020	132212	86.43	12.418762	-57.242480	86.39	0.270	0.790	0.880	86.28	-0.20	1.30	 	 	 	 	 	 	 	 	 	 	 	 	 	 	 	 	 	 	1581513732	1.24	2.30
12/02/2020 13:22:13	120220	12022020	132213	85.77	12.418762	-57.242475	85.77	-0.380	1.410	0.960	85.66	-0.10	1.30	 	 	 	 	 	 	 	 	 	 	 	 	 	 	 	 	 	 	1581513733	1.13	2.09
12/02/2020 13:22:14	120220	12022020	132214	85.40	12.418762	-57.242465	85.46	-0.560	0.740	0.810	85.37	-1.10	1.10	 	 	 	 	 	 	 	 	 	 	 	 	 	 	 	 	 	 	1581513734	2.10	3.89
12/02/2020 13:22:15	120220	12022020	132215	85.40	12.418763	-57.242450	85.50	-0.310	-0.290	0.480	85.42	-1.90	0.70	 	 	 	 	 	 	 	 	 	 	 	 	 	 	 	 	 	 	1581513735	3.22	5.96
12/02/2020 13:22:16	120220	12022020	132216	85.52	12.418767	-57.242435	85.62	-0.040	-0.660	0.220	85.52	-2.00	0.60	 	 	 	 	 	 	 	 	 	 	 	 	 	 	 	 	 	 	1581513736	3.16	5.85
12/02/2020 13:22:17	120220	12022020	132217	85.45	12.418767	-57.242423	85.53	0.010	-0.350	0.360	85.41	-1.60	0.90	 	 	 	 	 	 	 	 	 	 	 	 	 	 	 	 	 	 	1581513737	2.25	4.17
12/02/2020 13:22:18	120220	12022020	132218	85.18	12.418765	-57.242417	85.26	-0.110	-0.040	1.000	85.12	-1.40	1.70	 	 	 	 	 	 	 	 	 	 	 	 	 	 	 	 	 	 	1581513738	1.75	3.24
12/02/2020 13:22:19	120220	12022020	132219	84.80	12.418762	-57.242407	84.89	-0.190	-0.170	1.850	84.71	-1.70	2.50	 	 	 	 	 	 	 	 	 	 	 	 	 	 	 	 	 	 	1581513739	2.14	3.96
12/02/2020 13:22:20	120220	12022020	132220	84.36	12.418757	-57.242395	84.47	-0.050	-0.560	2.560	84.27	-2.10	3.10	 	 	 	 	 	 	 	 	 	 	 	 	 	 	 	 	 	 	1581513740	2.71	5.02
12/02/2020 13:22:21	120220	12022020	132221	84.02	12.418757	-57.242382	84.17	0.240	-0.690	2.830	83.99	-2.00	3.10	 	 	 	 	 	 	 	 	 	 	 	 	 	 	 	 	 	 	1581513741	2.80	5.19
12/02/2020 13:22:22	120220	12022020	132222	84.03	12.418758	-57.242370	84.24	0.460	-0.410	2.580	84.08	-1.70	2.70	 	 	 	 	 	 	 	 	 	 	 	 	 	 	 	 	 	 	1581513742	2.44	4.52
12/02/2020 13:22:23	120220	12022020	132223	84.42	12.418763	-57.242360	84.66	0.540	-0.130	2.030	84.52	-1.50	2.10	 	 	 	 	 	 	 	 	 	 	 	 	 	 	 	 	 	 	1581513743	2.21	4.09
12/02/2020 13:22:24	120220	12022020	132224	84.90	12.418767	-57.242350	85.11	0.460	-0.060	1.410	84.96	-1.40	1.60	 	 	 	 	 	 	 	 	 	 	 	 	 	 	 	 	 	 	1581513744	2.33	4.32
12/02/2020 13:22:25	120220	12022020	132225	85.02	12.418770	-57.242340	85.14	0.160	0.010	1.000	84.97	-1.30	1.30	 	 	 	 	 	 	 	 	 	 	 	 	 	 	 	 	 	 	1581513745	2.47	4.57
12/02/2020 13:22:26	120220	12022020	132226	84.67	12.418773	-57.242328	84.76	-0.280	0.190	1.030	84.58	-1.10	1.50	 	 	 	 	 	 	 	 	 	 	 	 	 	 	 	 	 	 	1581513746	2.32	4.30
12/02/2020 13:22:27	120220	12022020	132227	84.32	12.418773	-57.242318	84.46	-0.580	0.320	1.190	84.29	-1.10	1.50	 	 	 	 	 	 	 	 	 	 	 	 	 	 	 	 	 	 	1581513747	2.07	3.83
12/02/2020 13:22:28	120220	12022020	132228	84.34	12.418775	-57.242310	84.59	-0.560	0.220	0.970	84.39	-1.10	1.40	 	 	 	 	 	 	 	 	 	 	 	 	 	 	 	 	 	 	1581513748	2.05	3.80
12/02/2020 13:22:29	120220	12022020	132229	84.92	12.418780	-57.242300	85.14	-0.250	-0.200	0.300	85.05	-1.90	0.40	 	 	 	 	 	 	 	 	 	 	 	 	 	 	 	 	 	 	1581513749	2.30	4.26
12/02/2020 13:22:30	120220	12022020	132230	85.55	12.418785	-57.242288	85.76	0.180	-0.890	-0.210	85.64	-2.50	0.20	 	 	 	 	 	 	 	 	 	 	 	 	 	 	 	 	 	 	1581513750	2.76	5.11
12/02/2020 13:22:31	120220	12022020	132231	85.94	12.418788	-57.242273	86.12	0.460	-1.290	0.040	85.98	-2.60	0.70	 	 	 	 	 	 	 	 	 	 	 	 	 	 	 	 	 	 	1581513751	3.06	5.67
12/02/2020 13:22:32	120220	12022020	132232	86.08	12.418788	-57.242262	86.26	0.290	-0.710	0.960	86.09	-1.60	1.80	 	 	 	 	 	 	 	 	 	 	 	 	 	 	 	 	 	 	1581513752	2.65	4.91
12/02/2020 13:22:33	120220	12022020	132233	86.16	12.418783	-57.242253	86.37	-0.220	0.530	1.990	86.18	-0.50	2.70	 	 	 	 	 	 	 	 	 	 	 	 	 	 	 	 	 	 	1581513753	1.83	3.39
12/02/2020 13:22:34	120220	12022020	132234	86.33	12.418778	-57.242248	86.57	-0.590	1.220	2.750	86.38	-0.20	3.30	 	 	 	 	 	 	 	 	 	 	 	 	 	 	 	 	 	 	1581513754	1.49	2.76
12/02/2020 13:22:35	120220	12022020	132235	86.62	12.418775	-57.242240	86.86	-0.430	0.700	3.000	86.68	-1.20	3.30	 	 	 	 	 	 	 	 	 	 	 	 	 	 	 	 	 	 	1581513755	1.87	3.46
12/02/2020 13:22:36	120220	12022020	132236	86.85	12.418775	-57.242227	87.06	0.210	-0.600	2.770	86.88	-2.50	2.90	 	 	 	 	 	 	 	 	 	 	 	 	 	 	 	 	 	 	1581513756	2.91	5.39
12/02/2020 13:22:37	120220	12022020	132237	86.97	12.418780	-57.242210	87.17	0.850	-1.600	2.210	87.01	-3.10	2.30	 	 	 	 	 	 	 	 	 	 	 	 	 	 	 	 	 	 	1581513757	3.66	6.78
12/02/2020 13:22:38	120220	12022020	132238	87.22	12.418790	-57.242197	87.56	0.950	-1.410	1.400	87.33	-2.90	2.00	 	 	 	 	 	 	 	 	 	 	 	 	 	 	 	 	 	 	1581513758	3.51	6.50
12/02/2020 13:22:39	120220	12022020	132239	88.08	12.418798	-57.242188	88.35	0.380	-0.220	0.680	88.27	-1.10	0.90	 	 	 	 	 	 	 	 	 	 	 	 	 	 	 	 	 	 	1581513759	2.57	4.76
12/02/2020 13:22:40	120220	12022020	132240	89.01	12.418803	-57.242183	89.26	-0.460	0.940	0.340	89.01	-0.70	0.80	 	 	 	 	 	 	 	 	 	 	 	 	 	 	 	 	 	 	1581513760	1.45	2.69
12/02/2020 13:22:41	120220	12022020	132241	89.62	12.418802	-57.242177	89.79	-0.990	1.270	0.480	89.67	-0.30	1.00	 	 	 	 	 	 	 	 	 	 	 	 	 	 	 	 	 	 	1581513761	1.25	2.31
12/02/2020 13:22:42	120220	12022020	132242	89.70	12.418798	-57.242167	89.82	-0.890	0.530	0.810	89.68	-1.30	1.30	 	 	 	 	 	 	 	 	 	 	 	 	 	 	 	 	 	 	1581513762	2.30	4.26
12/02/2020 13:22:43	120220	12022020	132243	89.57	12.418795	-57.242152	89.70	-0.350	-0.640	1.060	89.54	-2.40	1.50	 	 	 	 	 	 	 	 	 	 	 	 	 	 	 	 	 	 	1581513763	3.21	5.94
12/02/2020 13:22:44	120220	12022020	132244	89.45	12.418795	-57.242137	89.58	0.120	-1.270	1.260	89.43	-2.60	1.60	 	 	 	 	 	 	 	 	 	 	 	 	 	 	 	 	 	 	1581513764	3.34	6.19
12/02/2020 13:22:45	120220	12022020	132245	89.53	12.418797	-57.242123	89.70	0.290	-0.970	1.040	89.59	-2.10	1.10	 	 	 	 	 	 	 	 	 	 	 	 	 	 	 	 	 	 	1581513765	2.62	4.85
12/02/2020 13:22:46	120220	12022020	132246	89.98	12.418800	-57.242115	90.16	0.340	-0.320	0.190	90.09	-1.50	0.20	 	 	 	 	 	 	 	 	 	 	 	 	 	 	 	 	 	 	1581513766	2.03	3.76
12/02/2020 13:22:47	120220	12022020	132247	90.36	12.418807	-57.242107	90.47	0.490	-0.100	-0.580	90.39	-1.50	-0.30	 	 	 	 	 	 	 	 	 	 	 	 	 	 	 	 	 	 	1581513767	2.41	4.46
12/02/2020 13:22:48	120220	12022020	132248	90.30	12.418813	-57.242095	90.36	0.580	-0.140	-0.590	90.26	-1.40	-0.00	 	 	 	 	 	 	 	 	 	 	 	 	 	 	 	 	 	 	1581513768	2.89	5.35
12/02/2020 13:22:49	120220	12022020	132249	90.12	12.418815	-57.242082	90.21	0.190	0.220	-0.030	90.10	-0.90	0.70	 	 	 	 	 	 	 	 	 	 	 	 	 	 	 	 	 	 	1581513769	2.67	4.94
12/02/2020 13:22:50	120220	12022020	132250	90.09	12.418812	-57.242073	90.25	-0.540	0.680	0.790	90.11	-0.80	1.00	 	 	 	 	 	 	 	 	 	 	 	 	 	 	 	 	 	 	1581513770	2.00	3.70
12/02/2020 13:22:51	120220	12022020	132251	90.26	12.418807	-57.242065	90.42	-0.970	0.470	1.640	90.29	-1.20	2.30	 	 	 	 	 	 	 	 	 	 	 	 	 	 	 	 	 	 	1581513771	2.25	4.17
12/02/2020 13:22:52	120220	12022020	132252	90.32	12.418798	-57.242052	90.41	-0.640	-0.470	2.420	90.30	-1.60	2.60	 	 	 	 	 	 	 	 	 	 	 	 	 	 	 	 	 	 	1581513772	3.05	5.65
12/02/2020 13:22:53	120220	12022020	132253	89.92	12.418792	-57.242037	89.98	0.050	-1.220	2.960	89.80	-2.60	3.40	 	 	 	 	 	 	 	 	 	 	 	 	 	 	 	 	 	 	1581513773	3.64	6.74
12/02/2020 13:22:54	120220	12022020	132254	89.32	12.418788	-57.242022	89.38	0.440	-0.990	3.020	89.32	-2.50	3.40	 	 	 	 	 	 	 	 	 	 	 	 	 	 	 	 	 	 	1581513774	3.12	5.78
12/02/2020 13:22:55	120220	12022020	132255	88.87	12.418790	-57.242012	88.94	0.370	-0.060	2.570	88.81	-1.10	2.60	 	 	 	 	 	 	 	 	 	 	 	 	 	 	 	 	 	 	1581513775	1.93	3.57
12/02/2020 13:22:56	120220	12022020	132256	88.65	12.418795	-57.242005	88.73	0.170	0.440	1.590	88.63	-1.00	1.50	 	 	 	 	 	 	 	 	 	 	 	 	 	 	 	 	 	 	1581513776	1.80	3.33
12/02/2020 13:22:57	120220	12022020	132257	88.62	12.418803	-57.241995	88.66	0.160	0.030	0.300	88.61	-1.60	0.30	 	 	 	 	 	 	 	 	 	 	 	 	 	 	 	 	 	 	1581513777	2.85	5.28
12/02/2020 13:22:58	120220	12022020	132258	88.52	12.418812	-57.241980	88.55	0.240	-0.630	-0.520	88.50	-2.10	-0.30	 	 	 	 	 	 	 	 	 	 	 	 	 	 	 	 	 	 	1581513778	3.66	6.78
12/02/2020 13:22:59	120220	12022020	132259	88.44	12.418817	-57.241965	88.49	0.160	-0.600	-0.660	88.44	-1.70	-0.20	 	 	 	 	 	 	 	 	 	 	 	 	 	 	 	 	 	 	1581513779	3.35	6.20
12/02/2020 13:23:00	120220	12022020	132300	88.45	12.418817	-57.241955	88.50	-0.110	0.180	-0.370	88.44	-0.90	0.30	 	 	 	 	 	 	 	 	 	 	 	 	 	 	 	 	 	 	1581513780	2.28	4.22
12/02/2020 13:23:01	120220	12022020	132301	88.33	12.418813	-57.241947	88.38	-0.350	0.740	0.390	88.29	-0.70	1.20	 	 	 	 	 	 	 	 	 	 	 	 	 	 	 	 	 	 	1581513781	1.72	3.19
12/02/2020 13:23:02	120220	12022020	132302	88.15	12.418808	-57.241937	88.25	-0.430	0.480	1.460	88.14	-1.20	2.30	1017.30	26.50	26.60	20.60	20.60	711.0	70.0	70.0	400.0	28.6	351.00	11.70	78.00	10.50	49073	10942.0	27.5	27.5	1581513782	2.34	4.33
12/02/2020 13:23:03	120220	12022020	132303	88.18	12.418802	-57.241923	88.32	-0.440	-0.280	2.500	88.20	-2.00	3.20	 	 	 	 	 	 	 	 	 	 	 	 	 	 	 	 	 	 	1581513783	3.12	5.78
12/02/2020 13:23:04	120220	12022020	132304	88.25	12.418797	-57.241908	88.38	-0.330	-0.950	3.280	88.24	-2.50	3.90	 	 	 	 	 	 	 	 	 	 	 	 	 	 	 	 	 	 	1581513784	3.39	6.28
12/02/2020 13:23:05	120220	12022020	132305	88.02	12.418792	-57.241895	88.10	0.040	-1.110	3.790	87.94	-2.40	4.20	 	 	 	 	 	 	 	 	 	 	 	 	 	 	 	 	 	 	1581513785	3.17	5.87
12/02/2020 13:23:06	120220	12022020	132306	87.63	12.418788	-57.241883	87.73	0.570	-0.740	3.800	87.63	-2.20	4.20	 	 	 	 	 	 	 	 	 	 	 	 	 	 	 	 	 	 	1581513786	2.60	4.82
12/02/2020 13:23:07	120220	12022020	132307	87.65	12.418792	-57.241872	87.82	0.890	-0.250	3.150	87.71	-1.40	3.10	 	 	 	 	 	 	 	 	 	 	 	 	 	 	 	 	 	 	1581513787	2.31	4.28
12/02/2020 13:23:08	120220	12022020	132308	88.11	12.418798	-57.241862	88.28	0.690	0.140	2.040	88.21	-1.10	1.90	 	 	 	 	 	 	 	 	 	 	 	 	 	 	 	 	 	 	1581513788	2.70	5.00
12/02/2020 13:23:09	120220	12022020	132309	88.68	12.418808	-57.241852	88.80	0.020	0.450	0.550	88.79	-0.90	0.30	 	 	 	 	 	 	 	 	 	 	 	 	 	 	 	 	 	 	1581513789	3.06	5.67
12/02/2020 13:23:10	120220	12022020	132310	89.20	12.418818	-57.241840	89.29	-0.630	0.520	-0.810	89.30	-1.00	-0.80	 	 	 	 	 	 	 	 	 	 	 	 	 	 	 	 	 	 	1581513790	3.03	5.61
12/02/2020 13:23:11	120220	12022020	132311	89.62	12.418825	-57.241830	89.67	-0.800	0.090	-1.370	89.67	-1.60	-0.90	 	 	 	 	 	 	 	 	 	 	 	 	 	 	 	 	 	 	1581513791	2.72	5.04
12/02/2020 13:23:12	120220	12022020	132312	89.77	12.418825	-57.241815	89.80	-0.450	-0.560	-0.880	89.76	-2.10	-0.10	 	 	 	 	 	 	 	 	 	 	 	 	 	 	 	 	 	 	1581513792	2.92	5.41
12/02/2020 13:23:13	120220	12022020	132313	89.70	12.418820	-57.241802	89.76	0.040	-0.820	0.130	89.69	-2.10	0.90	 	 	 	 	 	 	 	 	 	 	 	 	 	 	 	 	 	 	1581513793	3.22	5.96
12/02/2020 13:23:14	120220	12022020	132314	89.75	12.418815	-57.241788	89.87	0.260	-0.450	0.940	89.80	-1.60	1.50	 	 	 	 	 	 	 	 	 	 	 	 	 	 	 	 	 	 	1581513794	2.78	5.15
12/02/2020 13:23:15	120220	12022020	132315	90.17	12.418813	-57.241780	90.35	0.100	0.080	1.310	90.29	-1.20	1.80	 	 	 	 	 	 	 	 	 	 	 	 	 	 	 	 	 	 	1581513795	2.05	3.80
12/02/2020 13:23:16	120220	12022020	132316	90.62	12.418813	-57.241770	90.88	-0.160	0.170	1.740	90.71	-1.20	2.00	 	 	 	 	 	 	 	 	 	 	 	 	 	 	 	 	 	 	1581513796	2.00	3.70
12/02/2020 13:23:17	120220	12022020	132317	90.99	12.418810	-57.241758	91.14	-0.190	-0.220	2.360	91.03	-1.80	2.90	 	 	 	 	 	 	 	 	 	 	 	 	 	 	 	 	 	 	1581513797	2.58	4.78
12/02/2020 13:23:18	120220	12022020	132318	91.24	12.418808	-57.241743	91.41	0.050	-0.600	2.550	91.24	-1.90	2.90	 	 	 	 	 	 	 	 	 	 	 	 	 	 	 	 	 	 	1581513798	3.05	5.65
12/02/2020 13:23:19	120220	12022020	132319	91.73	12.418810	-57.241730	91.93	0.300	-0.580	2.170	91.84	-1.80	2.30	 	 	 	 	 	 	 	 	 	 	 	 	 	 	 	 	 	 	1581513799	3.00	5.56
12/02/2020 13:23:20	120220	12022020	132320	92.27	12.418815	-57.241718	92.44	0.280	-0.220	1.710	92.35	-1.40	1.90	 	 	 	 	 	 	 	 	 	 	 	 	 	 	 	 	 	 	1581513800	2.68	4.96
12/02/2020 13:23:21	120220	12022020	132321	92.62	12.418817	-57.241707	92.76	-0.000	0.170	1.330	92.67	-1.10	1.60	 	 	 	 	 	 	 	 	 	 	 	 	 	 	 	 	 	 	1581513801	2.30	4.26
12/02/2020 13:23:22	120220	12022020	132322	92.80	12.418818	-57.241697	92.91	-0.220	0.240	0.940	92.81	-1.20	1.20	 	 	 	 	 	 	 	 	 	 	 	 	 	 	 	 	 	 	1581513802	2.31	4.28
12/02/2020 13:23:23	120220	12022020	132323	92.77	12.418818	-57.241683	92.83	-0.170	-0.050	0.570	92.74	-1.60	0.80	 	 	 	 	 	 	 	 	 	 	 	 	 	 	 	 	 	 	1581513803	2.72	5.04
12/02/2020 13:23:24	120220	12022020	132324	92.60	12.418820	-57.241668	92.66	0.090	-0.490	0.220	92.58	-2.00	0.40	 	 	 	 	 	 	 	 	 	 	 	 	 	 	 	 	 	 	1581513804	3.15	5.83
12/02/2020 13:23:25	120220	12022020	132325	92.54	12.418823	-57.241653	92.61	0.320	-0.720	-0.280	92.54	-2.00	-0.10	 	 	 	 	 	 	 	 	 	 	 	 	 	 	 	 	 	 	1581513805	3.36	6.22
12/02/2020 13:23:26	120220	12022020	132326	92.61	12.418828	-57.241638	92.68	0.230	-0.370	-0.770	92.64	-1.40	-0.50	 	 	 	 	 	 	 	 	 	 	 	 	 	 	 	 	 	 	1581513806	3.14	5.82
12/02/2020 13:23:27	120220	12022020	132327	92.84	12.418832	-57.241628	92.94	-0.260	0.430	-0.990	92.91	-0.70	-0.50	 	 	 	 	 	 	 	 	 	 	 	 	 	 	 	 	 	 	1581513807	2.39	4.43
12/02/2020 13:23:28	120220	12022020	132328	93.13	12.418832	-57.241620	93.21	-0.810	0.880	-0.630	93.16	-0.60	0.10	 	 	 	 	 	 	 	 	 	 	 	 	 	 	 	 	 	 	1581513808	1.73	3.20
12/02/2020 13:23:29	120220	12022020	132329	93.23	12.418828	-57.241610	93.29	-0.850	0.320	0.170	93.21	-1.50	0.90	 	 	 	 	 	 	 	 	 	 	 	 	 	 	 	 	 	 	1581513809	2.28	4.22
12/02/2020 13:23:30	120220	12022020	132330	93.00	12.418822	-57.241595	93.03	-0.200	-0.950	1.060	93.00	-2.00	1.20	 	 	 	 	 	 	 	 	 	 	 	 	 	 	 	 	 	 	1581513810	3.55	6.57
12/02/2020 13:23:31	120220	12022020	132331	92.42	12.418813	-57.241577	92.43	0.620	-1.740	2.030	92.28	-3.00	2.80	 	 	 	 	 	 	 	 	 	 	 	 	 	 	 	 	 	 	1581513811	4.20	7.78
12/02/2020 13:23:32	120220	12022020	132332	91.71	12.418808	-57.241560	91.75	0.960	-1.270	2.920	91.71	-2.80	3.10	 	 	 	 	 	 	 	 	 	 	 	 	 	 	 	 	 	 	1581513812	3.62	6.70
12/02/2020 13:23:33	120220	12022020	132333	91.10	12.418803	-57.241550	91.18	0.620	-0.000	3.150	91.02	-0.90	3.30	 	 	 	 	 	 	 	 	 	 	 	 	 	 	 	 	 	 	1581513813	2.27	4.20
12/02/2020 13:23:34	120220	12022020	132334	90.75	12.418807	-57.241543	90.83	-0.020	0.980	2.360	90.71	-0.30	2.20	 	 	 	 	 	 	 	 	 	 	 	 	 	 	 	 	 	 	1581513814	1.61	2.98
12/02/2020 13:23:35	120220	12022020	132335	90.62	12.418813	-57.241533	90.68	-0.360	0.980	0.980	90.59	-0.60	0.80	 	 	 	 	 	 	 	 	 	 	 	 	 	 	 	 	 	 	1581513815	2.50	4.63
12/02/2020 13:23:36	120220	12022020	132336	90.50	12.418820	-57.241518	90.53	-0.280	0.280	-0.210	90.47	-1.40	-0.10	 	 	 	 	 	 	 	 	 	 	 	 	 	 	 	 	 	 	1581513816	3.45	6.39
12/02/2020 13:23:37	120220	12022020	132337	90.29	12.418827	-57.241503	90.27	-0.160	-0.330	-0.870	90.21	-1.80	-0.60	 	 	 	 	 	 	 	 	 	 	 	 	 	 	 	 	 	 	1581513817	3.59	6.65
12/02/2020 13:23:38	120220	12022020	132338	89.76	12.418828	-57.241488	89.70	-0.250	-0.530	-0.920	89.62	-1.90	-0.40	 	 	 	 	 	 	 	 	 	 	 	 	 	 	 	 	 	 	1581513818	3.03	5.61
12/02/2020 13:23:39	120220	12022020	132339	88.94	12.418825	-57.241477	88.86	-0.360	-0.510	-0.360	88.76	-1.90	0.40	 	 	 	 	 	 	 	 	 	 	 	 	 	 	 	 	 	 	1581513819	2.57	4.76
12/02/2020 13:23:40	120220	12022020	132340	88.08	12.418820	-57.241465	88.07	-0.160	-0.620	0.480	87.95	-2.10	1.10	 	 	 	 	 	 	 	 	 	 	 	 	 	 	 	 	 	 	1581513820	2.77	5.13
12/02/2020 13:23:41	120220	12022020	132341	87.55	12.418815	-57.241452	87.60	0.330	-0.870	1.040	87.48	-2.30	1.50	 	 	 	 	 	 	 	 	 	 	 	 	 	 	 	 	 	 	1581513821	3.13	5.80
12/02/2020 13:23:42	120220	12022020	132342	87.35	12.418813	-57.241435	87.41	0.700	-0.750	1.210	87.33	-2.20	1.60	 	 	 	 	 	 	 	 	 	 	 	 	 	 	 	 	 	 	1581513822	3.26	6.04
12/02/2020 13:23:43	120220	12022020	132343	87.23	12.418815	-57.241423	87.29	0.510	0.080	1.230	87.19	-0.80	1.80	 	 	 	 	 	 	 	 	 	 	 	 	 	 	 	 	 	 	1581513823	2.77	5.13
12/02/2020 13:23:44	120220	12022020	132344	86.94	12.418817	-57.241413	86.99	-0.150	1.090	1.760	86.94	-0.50	2.00	 	 	 	 	 	 	 	 	 	 	 	 	 	 	 	 	 	 	1581513824	1.89	3.50
12/02/2020 13:23:45	120220	12022020	132345	86.47	12.418812	-57.241405	86.53	-0.680	1.250	2.650	86.38	-0.50	3.30	 	 	 	 	 	 	 	 	 	 	 	 	 	 	 	 	 	 	1581513825	1.88	3.48
12/02/2020 13:23:46	120220	12022020	132346	85.97	12.418808	-57.241393	86.04	-0.510	0.060	3.300	85.88	-2.00	3.80	 	 	 	 	 	 	 	 	 	 	 	 	 	 	 	 	 	 	1581513826	2.90	5.37
12/02/2020 13:23:47	120220	12022020	132347	85.50	12.418807	-57.241373	85.59	0.190	-1.490	3.520	85.42	-3.20	3.90	 	 	 	 	 	 	 	 	 	 	 	 	 	 	 	 	 	 	1581513827	4.08	7.56
12/02/2020 13:23:48	120220	12022020	132348	85.17	12.418808	-57.241353	85.29	0.770	-1.950	3.350	85.14	-3.00	3.60	 	 	 	 	 	 	 	 	 	 	 	 	 	 	 	 	 	 	1581513828	4.19	7.76
12/02/2020 13:23:49	120220	12022020	132349	85.12	12.418810	-57.241340	85.26	0.770	-0.920	2.940	85.14	-1.60	3.10	 	 	 	 	 	 	 	 	 	 	 	 	 	 	 	 	 	 	1581513829	2.95	5.46
12/02/2020 13:23:50	120220	12022020	132350	85.30	12.418813	-57.241333	85.46	0.230	0.610	2.300	85.35	-0.30	2.40	 	 	 	 	 	 	 	 	 	 	 	 	 	 	 	 	 	 	1581513830	1.64	3.04
12/02/2020 13:23:51	120220	12022020	132351	85.58	12.418818	-57.241327	85.72	-0.440	1.310	1.450	85.64	-0.20	1.50	 	 	 	 	 	 	 	 	 	 	 	 	 	 	 	 	 	 	1581513831	1.53	2.83
12/02/2020 13:23:52	120220	12022020	132352	85.79	12.418823	-57.241317	85.90	-0.700	0.650	0.640	85.81	-1.20	0.80	 	 	 	 	 	 	 	 	 	 	 	 	 	 	 	 	 	 	1581513832	2.46	4.56
12/02/2020 13:23:53	120220	12022020	132353	85.83	12.418827	-57.241300	85.91	-0.470	-0.500	0.190	85.82	-2.20	0.50	 	 	 	 	 	 	 	 	 	 	 	 	 	 	 	 	 	 	1581513833	3.59	6.65
12/02/2020 13:23:54	120220	12022020	132354	85.72	12.418828	-57.241283	85.78	-0.010	-1.030	0.140	85.68	-2.40	0.60	 	 	 	 	 	 	 	 	 	 	 	 	 	 	 	 	 	 	1581513834	3.66	6.78
12/02/2020 13:23:55	120220	12022020	132355	85.49	12.418828	-57.241270	85.53	0.400	-0.850	0.420	85.42	-2.00	0.90	 	 	 	 	 	 	 	 	 	 	 	 	 	 	 	 	 	 	1581513835	2.91	5.39
12/02/2020 13:23:56	120220	12022020	132356	85.28	12.418830	-57.241258	85.38	0.540	-0.340	0.640	85.28	-1.90	1.00	 	 	 	 	 	 	 	 	 	 	 	 	 	 	 	 	 	 	1581513836	2.39	4.43
12/02/2020 13:23:57	120220	12022020	132357	85.50	12.418833	-57.241248	85.68	0.270	0.310	0.600	85.60	-0.80	1.00	 	 	 	 	 	 	 	 	 	 	 	 	 	 	 	 	 	 	1581513837	2.30	4.26
12/02/2020 13:23:58	120220	12022020	132358	86.14	12.418838	-57.241238	86.37	-0.320	0.790	0.690	86.28	-0.60	1.30	 	 	 	 	 	 	 	 	 	 	 	 	 	 	 	 	 	 	1581513838	2.07	3.83
12/02/2020 13:23:59	120220	12022020	132359	86.81	12.418837	-57.241230	87.03	-0.800	0.560	1.260	86.92	-1.20	2.00	 	 	 	 	 	 	 	 	 	 	 	 	 	 	 	 	 	 	1581513839	2.01	3.72
12/02/2020 13:24:00	120220	12022020	132400	87.19	12.418832	-57.241217	87.38	-0.660	-0.470	2.130	87.23	-2.30	2.90	 	 	 	 	 	 	 	 	 	 	 	 	 	 	 	 	 	 	1581513840	3.00	5.56
12/02/2020 13:24:01	120220	12022020	132401	87.30	12.418825	-57.241200	87.48	0.210	-1.480	2.860	87.31	-3.00	3.50	 	 	 	 	 	 	 	 	 	 	 	 	 	 	 	 	 	 	1581513841	3.85	7.13
12/02/2020 13:24:02	120220	12022020	132402	87.33	12.418823	-57.241183	87.51	1.230	-1.700	3.280	87.35	-2.90	3.80	1017.40	26.50	26.50	20.70	20.80	740.0	70.0	70.0	402.0	28.6	350.00	12.10	78.00	10.70	50696	9853.0	27.5	27.5	1581513842	3.61	6.69
12/02/2020 13:24:03	120220	12022020	132403	87.47	12.418823	-57.241168	87.67	1.580	-1.030	3.390	87.51	-2.00	3.70	 	 	 	 	 	 	 	 	 	 	 	 	 	 	 	 	 	 	1581513843	2.91	5.39
12/02/2020 13:24:04	120220	12022020	132404	87.74	12.418828	-57.241158	87.94	0.880	0.180	3.140	87.81	-0.70	3.30	 	 	 	 	 	 	 	 	 	 	 	 	 	 	 	 	 	 	1581513844	2.33	4.32
12/02/2020 13:24:05	120220	12022020	132405	88.18	12.418833	-57.241152	88.40	-0.480	1.390	2.350	88.31	0.40	2.30	 	 	 	 	 	 	 	 	 	 	 	 	 	 	 	 	 	 	1581513845	2.02	3.74
12/02/2020 13:24:06	120220	12022020	132406	88.96	12.418840	-57.241145	89.19	-1.620	2.030	1.150	89.15	0.60	1.10	 	 	 	 	 	 	 	 	 	 	 	 	 	 	 	 	 	 	1581513846	1.91	3.54
12/02/2020 13:24:07	120220	12022020	132407	89.86	12.418845	-57.241137	90.05	-1.850	1.540	0.080	90.02	-0.40	0.20	 	 	 	 	 	 	 	 	 	 	 	 	 	 	 	 	 	 	1581513847	2.04	3.78
12/02/2020 13:24:08	120220	12022020	132408	90.42	12.418847	-57.241123	90.52	-1.120	-0.020	-0.400	90.42	-1.00	0.10	 	 	 	 	 	 	 	 	 	 	 	 	 	 	 	 	 	 	1581513848	2.83	5.24
12/02/2020 13:24:09	120220	12022020	132409	90.58	12.418848	-57.241105	90.65	0.020	-1.720	-0.530	90.58	-2.70	-0.10	 	 	 	 	 	 	 	 	 	 	 	 	 	 	 	 	 	 	1581513849	3.72	6.89
12/02/2020 13:24:10	120220	12022020	132410	90.68	12.418848	-57.241088	90.76	0.970	-2.580	-0.630	90.71	-4.00	-0.20	 	 	 	 	 	 	 	 	 	 	 	 	 	 	 	 	 	 	1581513850	3.76	6.96
12/02/2020 13:24:11	120220	12022020	132411	90.85	12.418850	-57.241073	90.93	1.460	-2.330	-0.560	90.88	-3.30	-0.10	 	 	 	 	 	 	 	 	 	 	 	 	 	 	 	 	 	 	1581513851	3.19	5.91
12/02/2020 13:24:12	120220	12022020	132412	91.01	12.418853	-57.241062	91.10	1.440	-1.240	-0.320	91.04	-2.00	0.30	 	 	 	 	 	 	 	 	 	 	 	 	 	 	 	 	 	 	1581513852	2.64	4.89
12/02/2020 13:24:13	120220	12022020	132413	91.16	12.418855	-57.241050	91.25	0.820	0.360	0.150	91.19	-0.30	0.80	 	 	 	 	 	 	 	 	 	 	 	 	 	 	 	 	 	 	1581513853	2.21	4.09
12/02/2020 13:24:14	120220	12022020	132414	91.30	12.418855	-57.241043	91.41	-0.290	1.970	0.870	91.34	1.00	1.60	 	 	 	 	 	 	 	 	 	 	 	 	 	 	 	 	 	 	1581513854	1.62	3.00
12/02/2020 13:24:15	120220	12022020	132415	91.47	12.418852	-57.241037	91.60	-1.360	2.710	1.590	91.51	1.20	2.20	 	 	 	 	 	 	 	 	 	 	 	 	 	 	 	 	 	 	1581513855	1.57	2.91
12/02/2020 13:24:16	120220	12022020	132416	91.64	12.418847	-57.241027	91.77	-1.690	1.910	2.080	91.67	-0.20	2.60	 	 	 	 	 	 	 	 	 	 	 	 	 	 	 	 	 	 	1581513856	2.26	4.19
12/02/2020 13:24:17	120220	12022020	132417	91.76	12.418843	-57.241012	91.88	-1.100	0.020	2.240	91.77	-2.10	2.60	 	 	 	 	 	 	 	 	 	 	 	 	 	 	 	 	 	 	1581513857	3.35	6.20
12/02/2020 13:24:18	120220	12022020	132418	91.76	12.418842	-57.240993	91.85	-0.100	-1.730	2.180	91.76	-2.70	2.60	 	 	 	 	 	 	 	 	 	 	 	 	 	 	 	 	 	 	1581513858	3.94	7.30
12/02/2020 13:24:19	120220	12022020	132419	91.57	12.418843	-57.240977	91.62	0.750	-2.600	1.970	91.57	-4.00	2.30	 	 	 	 	 	 	 	 	 	 	 	 	 	 	 	 	 	 	1581513859	3.63	6.72
12/02/2020 13:24:20	120220	12022020	132420	91.31	12.418845	-57.240962	91.27	1.190	-2.530	1.700	91.24	-4.00	2.20	 	 	 	 	 	 	 	 	 	 	 	 	 	 	 	 	 	 	1581513860	3.07	5.69
12/02/2020 13:24:21	120220	12022020	132421	90.90	12.418847	-57.240948	90.92	1.240	-1.680	1.310	90.84	-2.50	1.50	 	 	 	 	 	 	 	 	 	 	 	 	 	 	 	 	 	 	1581513861	2.77	5.13
12/02/2020 13:24:22	120220	12022020	132422	90.67	12.418850	-57.240937	90.65	0.890	-0.060	0.720	90.62	-1.90	1.30	 	 	 	 	 	 	 	 	 	 	 	 	 	 	 	 	 	 	1581513862	2.47	4.57
12/02/2020 13:24:23	120220	12022020	132423	90.46	12.418853	-57.240930	90.46	0.140	1.840	-0.110	90.43	1.00	-0.00	 	 	 	 	 	 	 	 	 	 	 	 	 	 	 	 	 	 	1581513863	1.88	3.48
12/02/2020 13:24:24	120220	12022020	132424	90.28	12.418858	-57.240923	90.24	-0.710	2.800	-0.830	90.22	1.30	-0.50	 	 	 	 	 	 	 	 	 	 	 	 	 	 	 	 	 	 	1581513864	1.66	3.07
12/02/2020 13:24:25	120220	12022020	132425	89.90	12.418863	-57.240913	89.84	-1.160	1.960	-1.030	89.80	-0.20	-0.60	 	 	 	 	 	 	 	 	 	 	 	 	 	 	 	 	 	 	1581513865	2.19	4.06
12/02/2020 13:24:26	120220	12022020	132426	89.46	12.418863	-57.240897	89.42	-1.010	-0.150	-0.830	89.38	-2.40	-0.30	 	 	 	 	 	 	 	 	 	 	 	 	 	 	 	 	 	 	1581513866	3.51	6.50
12/02/2020 13:24:27	120220	12022020	132427	89.14	12.418862	-57.240877	89.12	-0.470	-2.050	-0.340	89.08	-3.80	0.30	 	 	 	 	 	 	 	 	 	 	 	 	 	 	 	 	 	 	1581513867	4.39	8.13
12/02/2020 13:24:28	120220	12022020	132428	88.86	12.418858	-57.240858	88.86	0.070	-2.510	0.370	88.81	-3.60	1.10	 	 	 	 	 	 	 	 	 	 	 	 	 	 	 	 	 	 	1581513868	3.95	7.32
12/02/2020 13:24:29	120220	12022020	132429	88.56	12.418853	-57.240847	88.57	0.390	-1.560	1.210	88.50	-2.40	2.00	 	 	 	 	 	 	 	 	 	 	 	 	 	 	 	 	 	 	1581513869	2.71	5.02
12/02/2020 13:24:30	120220	12022020	132430	88.29	12.418850	-57.240838	88.33	0.500	-0.220	2.020	88.29	-1.20	2.70	 	 	 	 	 	 	 	 	 	 	 	 	 	 	 	 	 	 	1581513870	1.90	3.52
12/02/2020 13:24:31	120220	12022020	132431	88.17	12.418847	-57.240830	88.23	0.450	0.650	2.630	88.17	-0.90	2.90	 	 	 	 	 	 	 	 	 	 	 	 	 	 	 	 	 	 	1581513871	1.90	3.52
12/02/2020 13:24:32	120220	12022020	132432	88.06	12.418843	-57.240820	88.07	0.380	0.750	2.920	88.03	-0.60	3.30	 	 	 	 	 	 	 	 	 	 	 	 	 	 	 	 	 	 	1581513872	2.43	4.50
12/02/2020 13:24:33	120220	12022020	132433	87.76	12.418845	-57.240805	87.78	0.460	0.140	2.830	87.76	-1.00	3.30	 	 	 	 	 	 	 	 	 	 	 	 	 	 	 	 	 	 	1581513873	3.07	5.69
12/02/2020 13:24:34	120220	12022020	132434	87.52	12.418848	-57.240787	87.55	0.760	-0.730	2.400	87.52	-1.90	2.90	 	 	 	 	 	 	 	 	 	 	 	 	 	 	 	 	 	 	1581513874	3.76	6.96
12/02/2020 13:24:35	120220	12022020	132435	87.48	12.418853	-57.240770	87.53	0.890	-0.960	1.830	87.50	-2.10	2.00	 	 	 	 	 	 	 	 	 	 	 	 	 	 	 	 	 	 	1581513875	4.02	7.45
12/02/2020 13:24:36	120220	12022020	132436	87.59	12.418860	-57.240755	87.64	0.310	0.050	1.270	87.62	-0.70	1.50	 	 	 	 	 	 	 	 	 	 	 	 	 	 	 	 	 	 	1581513876	3.13	5.80
12/02/2020 13:24:37	120220	12022020	132437	87.81	12.418865	-57.240750	87.86	-0.890	1.500	0.720	87.87	0.50	1.00	 	 	 	 	 	 	 	 	 	 	 	 	 	 	 	 	 	 	1581513877	1.71	3.17
12/02/2020 13:24:38	120220	12022020	132438	88.11	12.418867	-57.240745	88.15	-1.880	1.910	0.370	88.15	0.20	0.70	 	 	 	 	 	 	 	 	 	 	 	 	 	 	 	 	 	 	1581513878	1.04	1.93
12/02/2020 13:24:39	120220	12022020	132439	88.29	12.418867	-57.240735	88.31	-1.800	0.520	0.350	88.30	-1.80	0.90	 	 	 	 	 	 	 	 	 	 	 	 	 	 	 	 	 	 	1581513879	2.04	3.78
12/02/2020 13:24:40	120220	12022020	132440	88.29	12.418865	-57.240717	88.31	-0.580	-1.760	0.620	88.29	-3.90	1.20	 	 	 	 	 	 	 	 	 	 	 	 	 	 	 	 	 	 	1581513880	3.87	7.17
12/02/2020 13:24:41	120220	12022020	132441	88.31	12.418862	-57.240695	88.37	0.950	-3.140	0.950	88.34	-4.50	1.50	 	 	 	 	 	 	 	 	 	 	 	 	 	 	 	 	 	 	1581513881	4.63	8.57
12/02/2020 13:24:42	120220	12022020	132442	88.53	12.418862	-57.240678	88.61	1.830	-2.640	1.110	88.53	-4.30	1.50	 	 	 	 	 	 	 	 	 	 	 	 	 	 	 	 	 	 	1581513882	3.66	6.78
12/02/2020 13:24:43	120220	12022020	132443	88.85	12.418863	-57.240668	88.91	1.700	-0.840	1.190	88.85	-1.40	1.60	 	 	 	 	 	 	 	 	 	 	 	 	 	 	 	 	 	 	1581513883	2.16	4.00
12/02/2020 13:24:44	120220	12022020	132444	89.12	12.418867	-57.240662	89.19	0.840	1.130	1.280	89.12	-0.70	1.70	 	 	 	 	 	 	 	 	 	 	 	 	 	 	 	 	 	 	1581513884	1.48	2.74
12/02/2020 13:24:45	120220	12022020	132445	89.49	12.418870	-57.240657	89.59	-0.290	2.510	1.470	89.49	0.90	1.80	 	 	 	 	 	 	 	 	 	 	 	 	 	 	 	 	 	 	1581513885	1.32	2.44
12/02/2020 13:24:46	120220	12022020	132446	90.06	12.418872	-57.240650	90.18	-1.100	2.730	1.610	90.06	1.40	2.00	 	 	 	 	 	 	 	 	 	 	 	 	 	 	 	 	 	 	1581513886	1.48	2.74
12/02/2020 13:24:47	120220	12022020	132447	90.70	12.418872	-57.240638	90.79	-1.170	1.420	1.670	90.70	0.50	2.10	 	 	 	 	 	 	 	 	 	 	 	 	 	 	 	 	 	 	1581513887	2.25	4.17
12/02/2020 13:24:48	120220	12022020	132448	91.08	12.418873	-57.240623	91.14	-0.540	-0.980	1.810	91.13	-3.30	2.30	 	 	 	 	 	 	 	 	 	 	 	 	 	 	 	 	 	 	1581513888	3.48	6.44
12/02/2020 13:24:49	120220	12022020	132449	91.29	12.418873	-57.240602	91.36	0.200	-3.050	2.150	91.29	-4.80	2.70	 	 	 	 	 	 	 	 	 	 	 	 	 	 	 	 	 	 	1581513889	4.40	8.15
12/02/2020 13:24:50	120220	12022020	132450	91.67	12.418872	-57.240583	91.79	0.550	-3.310	2.520	91.67	-4.80	2.90	 	 	 	 	 	 	 	 	 	 	 	 	 	 	 	 	 	 	1581513890	3.97	7.35
12/02/2020 13:24:51	120220	12022020	132451	92.30	12.418868	-57.240573	92.44	0.520	-1.630	2.540	92.30	-2.10	2.80	 	 	 	 	 	 	 	 	 	 	 	 	 	 	 	 	 	 	1581513891	2.36	4.37
12/02/2020 13:24:52	120220	12022020	132452	92.91	12.418868	-57.240568	93.01	0.450	0.540	2.090	92.91	-1.30	2.60	 	 	 	 	 	 	 	 	 	 	 	 	 	 	 	 	 	 	1581513892	0.87	1.61
12/02/2020 13:24:53	120220	12022020	132453	93.35	12.418872	-57.240563	93.40	0.360	1.840	1.210	93.35	0.60	1.20	 	 	 	 	 	 	 	 	 	 	 	 	 	 	 	 	 	 	1581513893	1.35	2.50
12/02/2020 13:24:54	120220	12022020	132454	93.71	12.418878	-57.240553	93.74	0.020	1.880	0.260	93.71	0.60	0.90	 	 	 	 	 	 	 	 	 	 	 	 	 	 	 	 	 	 	1581513894	2.57	4.76
12/02/2020 13:24:55	120220	12022020	132455	94.08	12.418885	-57.240540	94.09	-0.480	0.950	-0.470	94.08	-0.90	-0.30	 	 	 	 	 	 	 	 	 	 	 	 	 	 	 	 	 	 	1581513895	3.28	6.07
12/02/2020 13:24:56	120220	12022020	132456	94.46	12.418890	-57.240523	94.47	-0.750	-0.330	-0.990	94.46	-1.40	-0.50	 	 	 	 	 	 	 	 	 	 	 	 	 	 	 	 	 	 	1581513896	3.55	6.57
12/02/2020 13:24:57	120220	12022020	132457	94.79	12.418893	-57.240507	94.79	-0.490	-1.440	-1.230	94.79	-3.10	-0.80	 	 	 	 	 	 	 	 	 	 	 	 	 	 	 	 	 	 	1581513897	3.55	6.57
12/02/2020 13:24:58	120220	12022020	132458	95.10	12.418893	-57.240492	95.12	0.100	-1.850	-1.070	95.10	-3.20	-0.70	 	 	 	 	 	 	 	 	 	 	 	 	 	 	 	 	 	 	1581513898	3.35	6.20
12/02/2020 13:24:59	120220	12022020	132459	95.51	12.418892	-57.240478	95.54	0.480	-1.260	-0.490	95.51	-2.90	-0.30	 	 	 	 	 	 	 	 	 	 	 	 	 	 	 	 	 	 	1581513899	2.75	5.09
12/02/2020 13:25:00	120220	12022020	132500	95.86	12.418887	-57.240470	95.88	0.360	-0.060	0.300	95.86	-1.70	0.50	 	 	 	 	 	 	 	 	 	 	 	 	 	 	 	 	 	 	1581513900	2.08	3.85
12/02/2020 13:25:01	120220	12022020	132501	95.87	12.418882	-57.240463	95.87	-0.020	0.810	1.200	95.87	-0.70	1.40	 	 	 	 	 	 	 	 	 	 	 	 	 	 	 	 	 	 	1581513901	1.89	3.50
12/02/2020 13:25:02	120220	12022020	132502	95.56	12.418875	-57.240453	95.54	-0.240	0.780	2.090	95.56	-0.50	2.30	1017.40	26.50	26.60	20.70	20.80	748.0	70.0	70.0	404.0	28.7	343.00	11.60	71.00	10.30	51465	10429.0	27.5	27.5	1581513902	2.37	4.39
12/02/2020 13:25:03	120220	12022020	132503	95.21	12.418872	-57.240440	95.22	-0.110	0.180	2.620	95.21	-1.00	2.90	 	 	 	 	 	 	 	 	 	 	 	 	 	 	 	 	 	 	1581513903	3.08	5.70
12/02/2020 13:25:04	120220	12022020	132504	95.15	12.418870	-57.240423	95.19	0.220	-0.520	2.430	95.15	-1.70	2.90	 	 	 	 	 	 	 	 	 	 	 	 	 	 	 	 	 	 	1581513904	3.37	6.24
12/02/2020 13:25:05	120220	12022020	132505	95.16	12.418872	-57.240408	95.16	0.450	-0.950	1.710	95.16	-2.30	2.30	 	 	 	 	 	 	 	 	 	 	 	 	 	 	 	 	 	 	1581513905	3.40	6.30
12/02/2020 13:25:06	120220	12022020	132506	94.92	12.418877	-57.240393	94.88	0.400	-0.880	1.060	94.92	-2.30	1.60	 	 	 	 	 	 	 	 	 	 	 	 	 	 	 	 	 	 	1581513906	3.23	5.98
12/02/2020 13:25:07	120220	12022020	132507	94.66	12.418880	-57.240382	94.65	0.090	-0.270	0.580	94.66	-1.90	1.10	 	 	 	 	 	 	 	 	 	 	 	 	 	 	 	 	 	 	1581513907	2.74	5.07
12/02/2020 13:25:08	120220	12022020	132508	94.74	12.418882	-57.240372	94.80	-0.410	0.660	-0.070	94.79	-0.90	0.50	 	 	 	 	 	 	 	 	 	 	 	 	 	 	 	 	 	 	1581513908	2.17	4.02
12/02/2020 13:25:09	120220	12022020	132509	95.00	12.418883	-57.240363	94.97	-0.870	1.110	-0.530	95.00	-0.30	-0.10	 	 	 	 	 	 	 	 	 	 	 	 	 	 	 	 	 	 	1581513909	1.78	3.30
12/02/2020 13:25:10	120220	12022020	132510	94.79	12.418882	-57.240352	94.68	-0.970	0.510	-0.240	94.79	-0.60	0.00	 	 	 	 	 	 	 	 	 	 	 	 	 	 	 	 	 	 	1581513910	2.22	4.11
12/02/2020 13:25:11	120220	12022020	132511	94.08	12.418875	-57.240337	93.95	-0.540	-0.800	0.750	94.08	-1.90	0.90	 	 	 	 	 	 	 	 	 	 	 	 	 	 	 	 	 	 	1581513911	3.52	6.52
12/02/2020 13:25:12	120220	12022020	132512	93.21	12.418865	-57.240320	93.10	0.200	-1.760	1.650	93.21	-3.00	1.90	 	 	 	 	 	 	 	 	 	 	 	 	 	 	 	 	 	 	1581513912	4.28	7.93
12/02/2020 13:25:13	120220	12022020	132513	92.44	12.418858	-57.240303	92.37	0.850	-1.570	1.950	92.44	-3.10	2.30	 	 	 	 	 	 	 	 	 	 	 	 	 	 	 	 	 	 	1581513913	3.67	6.80
12/02/2020 13:25:14	120220	12022020	132514	91.94	12.418858	-57.240292	91.90	1.040	-0.330	1.760	91.94	-2.10	2.20	 	 	 	 	 	 	 	 	 	 	 	 	 	 	 	 	 	 	1581513914	2.43	4.50
12/02/2020 13:25:15	120220	12022020	132515	91.62	12.418863	-57.240283	91.58	0.690	0.870	1.500	91.62	-0.80	2.00	 	 	 	 	 	 	 	 	 	 	 	 	 	 	 	 	 	 	1581513915	1.88	3.48
12/02/2020 13:25:16	120220	12022020	132516	91.34	12.418867	-57.240275	91.31	0.080	0.990	1.300	91.34	-0.30	1.80	 	 	 	 	 	 	 	 	 	 	 	 	 	 	 	 	 	 	1581513916	2.16	4.00
12/02/2020 13:25:17	120220	12022020	132517	91.24	12.418870	-57.240260	91.25	-0.420	0.260	1.050	91.24	-1.00	1.50	 	 	 	 	 	 	 	 	 	 	 	 	 	 	 	 	 	 	1581513917	3.11	5.76
12/02/2020 13:25:18	120220	12022020	132518	91.34	12.418868	-57.240243	91.36	-0.610	-0.230	1.040	91.34	-1.60	1.40	 	 	 	 	 	 	 	 	 	 	 	 	 	 	 	 	 	 	1581513918	3.53	6.54
12/02/2020 13:25:19	120220	12022020	132519	91.31	12.418865	-57.240230	91.32	-0.520	-0.190	1.510	91.31	-1.60	2.20	 	 	 	 	 	 	 	 	 	 	 	 	 	 	 	 	 	 	1581513919	2.98	5.52
12/02/2020 13:25:20	120220	12022020	132520	91.07	12.418858	-57.240218	91.07	-0.250	-0.360	2.270	91.07	-1.70	2.50	 	 	 	 	 	 	 	 	 	 	 	 	 	 	 	 	 	 	1581513920	2.80	5.19
12/02/2020 13:25:21	120220	12022020	132521	90.62	12.418852	-57.240205	90.59	0.140	-1.020	2.980	90.62	-2.30	3.20	 	 	 	 	 	 	 	 	 	 	 	 	 	 	 	 	 	 	1581513921	3.40	6.30
12/02/2020 13:25:22	120220	12022020	132522	89.88	12.418845	-57.240187	89.83	0.490	-1.420	3.410	89.88	-2.80	3.70	 	 	 	 	 	 	 	 	 	 	 	 	 	 	 	 	 	 	1581513922	3.86	7.15
12/02/2020 13:25:23	120220	12022020	132523	89.28	12.418843	-57.240172	89.30	0.580	-0.800	3.230	89.28	-2.50	3.70	 	 	 	 	 	 	 	 	 	 	 	 	 	 	 	 	 	 	1581513923	3.38	6.26
12/02/2020 13:25:24	120220	12022020	132524	89.40	12.418848	-57.240162	89.50	0.210	0.680	2.230	89.40	-1.10	2.90	 	 	 	 	 	 	 	 	 	 	 	 	 	 	 	 	 	 	1581513924	2.42	4.48
12/02/2020 13:25:25	120220	12022020	132525	90.08	12.418857	-57.240155	90.19	-0.330	1.660	0.880	90.08	0.10	1.60	 	 	 	 	 	 	 	 	 	 	 	 	 	 	 	 	 	 	1581513925	2.21	4.09
12/02/2020 13:25:26	120220	12022020	132526	90.68	12.418865	-57.240145	90.72	-0.510	1.010	-0.030	90.68	-0.10	0.50	 	 	 	 	 	 	 	 	 	 	 	 	 	 	 	 	 	 	1581513926	2.60	4.82
12/02/2020 13:25:27	120220	12022020	132527	90.91	12.418868	-57.240128	90.91	-0.210	-0.750	-0.300	90.91	-1.70	0.10	 	 	 	 	 	 	 	 	 	 	 	 	 	 	 	 	 	 	1581513927	3.80	7.04
12/02/2020 13:25:28	120220	12022020	132528	90.93	12.418868	-57.240107	90.96	0.080	-1.840	0.040	90.93	-3.10	0.30	 	 	 	 	 	 	 	 	 	 	 	 	 	 	 	 	 	 	1581513928	4.52	8.37
12/02/2020 13:25:29	120220	12022020	132529	91.08	12.418863	-57.240090	91.17	-0.010	-1.230	0.840	91.08	-2.90	1.00	 	 	 	 	 	 	 	 	 	 	 	 	 	 	 	 	 	 	1581513929	3.55	6.57
12/02/2020 13:25:30	120220	12022020	132530	91.46	12.418857	-57.240083	91.59	-0.290	0.280	1.670	91.46	-1.50	1.90	 	 	 	 	 	 	 	 	 	 	 	 	 	 	 	 	 	 	1581513930	2.11	3.91
12/02/2020 13:25:31	120220	12022020	132531	91.90	12.418852	-57.240078	92.01	-0.340	0.980	2.270	91.90	-0.50	2.50	 	 	 	 	 	 	 	 	 	 	 	 	 	 	 	 	 	 	1581513931	1.53	2.83
12/02/2020 13:25:32	120220	12022020	132532	92.12	12.418848	-57.240067	92.19	0.080	0.110	2.660	92.12	-1.00	3.00	 	 	 	 	 	 	 	 	 	 	 	 	 	 	 	 	 	 	1581513932	2.46	4.56
12/02/2020 13:25:33	120220	12022020	132533	92.02	12.418845	-57.240047	92.08	0.670	-1.230	3.070	92.02	-2.90	3.60	 	 	 	 	 	 	 	 	 	 	 	 	 	 	 	 	 	 	1581513933	4.09	7.57
12/02/2020 13:25:34	120220	12022020	132534	91.99	12.418843	-57.240027	92.09	0.870	-1.450	3.140	91.99	-2.90	3.60	 	 	 	 	 	 	 	 	 	 	 	 	 	 	 	 	 	 	1581513934	4.31	7.98
12/02/2020 13:25:35	120220	12022020	132535	92.42	12.418845	-57.240013	92.58	0.430	-0.270	2.530	92.42	-2.00	3.10	 	 	 	 	 	 	 	 	 	 	 	 	 	 	 	 	 	 	1581513935	2.96	5.48
12/02/2020 13:25:36	120220	12022020	132536	93.23	12.418852	-57.240007	93.39	-0.370	1.200	1.500	93.23	-0.50	2.20	 	 	 	 	 	 	 	 	 	 	 	 	 	 	 	 	 	 	1581513936	2.00	3.70
12/02/2020 13:25:37	120220	12022020	132537	94.07	12.418858	-57.240000	94.17	-1.030	1.680	0.560	94.07	0.30	1.20	 	 	 	 	 	 	 	 	 	 	 	 	 	 	 	 	 	 	1581513937	1.93	3.57
12/02/2020 13:25:38	120220	12022020	132538	94.60	12.418860	-57.239988	94.64	-1.110	0.740	0.020	94.60	-0.30	0.50	 	 	 	 	 	 	 	 	 	 	 	 	 	 	 	 	 	 	1581513938	2.45	4.54
12/02/2020 13:25:39	120220	12022020	132539	94.77	12.418858	-57.239970	94.78	-0.500	-0.960	-0.150	94.77	-1.90	0.30	 	 	 	 	 	 	 	 	 	 	 	 	 	 	 	 	 	 	1581513939	3.72	6.89
12/02/2020 13:25:40	120220	12022020	132540	94.69	12.418855	-57.239950	94.66	0.410	-2.180	-0.080	94.69	-3.40	0.30	 	 	 	 	 	 	 	 	 	 	 	 	 	 	 	 	 	 	1581513940	4.39	8.13
12/02/2020 13:25:41	120220	12022020	132541	94.49	12.418852	-57.239932	94.46	1.010	-2.050	0.110	94.49	-3.60	0.50	 	 	 	 	 	 	 	 	 	 	 	 	 	 	 	 	 	 	1581513941	3.89	7.20
12/02/2020 13:25:42	120220	12022020	132542	94.37	12.418850	-57.239920	94.36	0.860	-0.680	0.270	94.37	-2.50	0.70	 	 	 	 	 	 	 	 	 	 	 	 	 	 	 	 	 	 	1581513942	2.66	4.93
12/02/2020 13:25:43	120220	12022020	132543	94.36	12.418852	-57.239912	94.36	0.080	0.940	0.250	94.36	-0.80	0.70	 	 	 	 	 	 	 	 	 	 	 	 	 	 	 	 	 	 	1581513943	1.66	3.07
12/02/2020 13:25:44	120220	12022020	132544	94.40	12.418853	-57.239905	94.39	-0.810	1.810	0.240	94.40	0.30	0.60	 	 	 	 	 	 	 	 	 	 	 	 	 	 	 	 	 	 	1581513944	1.56	2.89
12/02/2020 13:25:45	120220	12022020	132545	94.33	12.418852	-57.239895	94.31	-1.240	1.490	0.490	94.33	-0.40	1.00	 	 	 	 	 	 	 	 	 	 	 	 	 	 	 	 	 	 	1581513945	2.19	4.06
12/02/2020 13:25:46	120220	12022020	132546	94.15	12.418847	-57.239880	94.13	-0.870	0.070	0.830	94.15	-0.90	1.10	 	 	 	 	 	 	 	 	 	 	 	 	 	 	 	 	 	 	1581513946	3.32	6.15
12/02/2020 13:25:47	120220	12022020	132547	93.91	12.418842	-57.239860	93.88	0.010	-1.540	1.070	93.91	-3.30	1.50	 	 	 	 	 	 	 	 	 	 	 	 	 	 	 	 	 	 	1581513947	4.29	7.95
12/02/2020 13:25:48	120220	12022020	132548	93.61	12.418837	-57.239840	93.58	0.760	-2.090	1.190	93.61	-3.50	1.60	 	 	 	 	 	 	 	 	 	 	 	 	 	 	 	 	 	 	1581513948	4.25	7.87
12/02/2020 13:25:49	120220	12022020	132549	93.16	12.418837	-57.239825	93.12	0.940	-1.350	1.180	93.16	-3.00	1.60	 	 	 	 	 	 	 	 	 	 	 	 	 	 	 	 	 	 	1581513949	3.07	5.69
12/02/2020 13:25:50	120220	12022020	132550	92.72	12.418837	-57.239817	92.69	0.600	-0.200	0.930	92.72	-1.90	1.40	 	 	 	 	 	 	 	 	 	 	 	 	 	 	 	 	 	 	1581513950	2.11	3.91
12/02/2020 13:25:51	120220	12022020	132551	92.39	12.418840	-57.239807	92.35	0.070	0.640	0.650	92.39	-0.90	1.10	 	 	 	 	 	 	 	 	 	 	 	 	 	 	 	 	 	 	1581513951	2.08	3.85
12/02/2020 13:25:52	120220	12022020	132552	91.90	12.418838	-57.239795	91.82	-0.340	1.050	0.760	91.90	-0.40	1.10	 	 	 	 	 	 	 	 	 	 	 	 	 	 	 	 	 	 	1581513952	2.38	4.41
12/02/2020 13:25:53	120220	12022020	132553	91.18	12.418835	-57.239783	91.08	-0.500	1.000	0.980	91.18	-0.40	1.30	 	 	 	 	 	 	 	 	 	 	 	 	 	 	 	 	 	 	1581513953	2.77	5.13
12/02/2020 13:25:54	120220	12022020	132554	90.41	12.418832	-57.239768	90.32	-0.420	0.380	0.970	90.41	-0.80	1.40	 	 	 	 	 	 	 	 	 	 	 	 	 	 	 	 	 	 	1581513954	3.04	5.63
12/02/2020 13:25:55	120220	12022020	132555	89.79	12.418832	-57.239752	89.74	-0.230	-0.460	0.830	89.79	-1.70	1.30	 	 	 	 	 	 	 	 	 	 	 	 	 	 	 	 	 	 	1581513955	3.40	6.30
12/02/2020 13:25:56	120220	12022020	132556	89.47	12.418833	-57.239737	89.45	-0.070	-1.060	0.720	89.47	-2.40	1.10	 	 	 	 	 	 	 	 	 	 	 	 	 	 	 	 	 	 	1581513956	3.51	6.50
12/02/2020 13:25:57	120220	12022020	132557	89.24	12.418835	-57.239722	89.21	0.040	-1.160	0.780	89.24	-2.60	1.10	 	 	 	 	 	 	 	 	 	 	 	 	 	 	 	 	 	 	1581513957	3.18	5.89
12/02/2020 13:25:58	120220	12022020	132558	88.81	12.418832	-57.239708	88.77	0.140	-0.800	1.240	88.81	-2.30	1.50	 	 	 	 	 	 	 	 	 	 	 	 	 	 	 	 	 	 	1581513958	2.83	5.24
12/02/2020 13:25:59	120220	12022020	132559	88.14	12.418828	-57.239695	88.08	0.220	-0.250	2.080	88.14	-1.80	2.30	 	 	 	 	 	 	 	 	 	 	 	 	 	 	 	 	 	 	1581513959	2.85	5.28
12/02/2020 13:26:00	120220	12022020	132600	87.41	12.418822	-57.239682	87.39	0.260	0.030	2.940	87.41	-1.40	3.10	 	 	 	 	 	 	 	 	 	 	 	 	 	 	 	 	 	 	1581513960	3.11	5.76
12/02/2020 13:26:01	120220	12022020	132601	86.83	12.418817	-57.239667	86.86	0.300	-0.070	3.280	86.83	-1.40	3.70	 	 	 	 	 	 	 	 	 	 	 	 	 	 	 	 	 	 	1581513961	3.45	6.39
12/02/2020 13:26:02	120220	12022020	132602	86.71	12.418815	-57.239650	86.80	0.300	-0.090	2.850	86.71	-1.50	3.40	1017.30	26.50	26.60	20.90	21.00	696.0	71.0	71.0	405.0	28.7	342.00	11.20	71.00	9.80	49357	10176.0	27.5	27.5	1581513962	3.55	6.57
12/02/2020 13:26:03	120220	12022020	132603	86.88	12.418820	-57.239635	86.96	0.180	0.270	2.020	86.88	-1.30	2.60	 	 	 	 	 	 	 	 	 	 	 	 	 	 	 	 	 	 	1581513963	3.20	5.93
12/02/2020 13:26:04	120220	12022020	132604	86.87	12.418825	-57.239623	86.88	-0.040	0.660	1.240	86.87	-0.80	1.80	 	 	 	 	 	 	 	 	 	 	 	 	 	 	 	 	 	 	1581513964	2.81	5.20
12/02/2020 13:26:05	120220	12022020	132605	86.57	12.418832	-57.239612	86.56	-0.170	0.510	0.670	86.57	-0.80	1.20	 	 	 	 	 	 	 	 	 	 	 	 	 	 	 	 	 	 	1581513965	2.79	5.17
12/02/2020 13:26:06	120220	12022020	132606	86.35	12.418837	-57.239597	86.39	-0.120	-0.360	0.230	86.35	-1.50	0.70	 	 	 	 	 	 	 	 	 	 	 	 	 	 	 	 	 	 	1581513966	3.29	6.09
12/02/2020 13:26:07	120220	12022020	132607	86.48	12.418840	-57.239578	86.60	-0.020	-1.220	0.060	86.48	-2.50	0.50	 	 	 	 	 	 	 	 	 	 	 	 	 	 	 	 	 	 	1581513967	3.90	7.22
12/02/2020 13:26:08	120220	12022020	132608	86.93	12.418840	-57.239562	87.08	-0.090	-1.180	0.160	86.93	-2.70	0.50	 	 	 	 	 	 	 	 	 	 	 	 	 	 	 	 	 	 	1581513968	3.68	6.82
12/02/2020 13:26:09	120220	12022020	132609	87.39	12.418838	-57.239548	87.53	-0.280	-0.390	0.600	87.39	-2.00	0.90	 	 	 	 	 	 	 	 	 	 	 	 	 	 	 	 	 	 	1581513969	2.70	5.00
12/02/2020 13:26:10	120220	12022020	132610	87.53	12.418835	-57.239538	87.65	-0.360	0.220	1.390	87.53	-1.30	1.60	 	 	 	 	 	 	 	 	 	 	 	 	 	 	 	 	 	 	1581513970	2.29	4.24
12/02/2020 13:26:11	120220	12022020	132611	87.39	12.418830	-57.239527	87.51	-0.240	0.300	2.320	87.39	-1.20	3.00	 	 	 	 	 	 	 	 	 	 	 	 	 	 	 	 	 	 	1581513971	2.81	5.20
12/02/2020 13:26:12	120220	12022020	132612	87.30	12.418825	-57.239512	87.48	0.050	0.010	3.000	87.30	-1.30	3.30	 	 	 	 	 	 	 	 	 	 	 	 	 	 	 	 	 	 	1581513972	3.31	6.13
12/02/2020 13:26:13	120220	12022020	132613	87.52	12.418825	-57.239495	87.72	0.370	-0.390	3.190	87.52	-1.70	3.60	 	 	 	 	 	 	 	 	 	 	 	 	 	 	 	 	 	 	1581513973	3.44	6.37
12/02/2020 13:26:14	120220	12022020	132614	87.94	12.418827	-57.239478	88.16	0.540	-0.600	2.770	87.94	-2.00	3.30	 	 	 	 	 	 	 	 	 	 	 	 	 	 	 	 	 	 	1581513974	3.49	6.46
12/02/2020 13:26:15	120220	12022020	132615	88.61	12.418832	-57.239463	88.84	0.390	-0.280	1.910	88.61	-1.80	2.50	 	 	 	 	 	 	 	 	 	 	 	 	 	 	 	 	 	 	1581513975	3.38	6.26
12/02/2020 13:26:16	120220	12022020	132616	89.31	12.418838	-57.239452	89.50	-0.070	0.430	1.210	89.31	-1.20	1.80	 	 	 	 	 	 	 	 	 	 	 	 	 	 	 	 	 	 	1581513976	2.83	5.24
12/02/2020 13:26:17	120220	12022020	132617	89.79	12.418843	-57.239443	89.94	-0.570	0.730	0.880	89.79	-0.70	1.30	 	 	 	 	 	 	 	 	 	 	 	 	 	 	 	 	 	 	1581513977	2.26	4.19
12/02/2020 13:26:18	120220	12022020	132618	90.15	12.418845	-57.239430	90.29	-0.590	-0.010	0.630	90.15	-1.20	1.10	 	 	 	 	 	 	 	 	 	 	 	 	 	 	 	 	 	 	1581513978	2.71	5.02
12/02/2020 13:26:19	120220	12022020	132619	90.48	12.418847	-57.239412	90.62	-0.060	-1.220	0.420	90.48	-2.40	0.90	 	 	 	 	 	 	 	 	 	 	 	 	 	 	 	 	 	 	1581513979	3.90	7.22
12/02/2020 13:26:20	120220	12022020	132620	90.87	12.418848	-57.239392	91.02	0.390	-1.460	0.380	90.87	-3.00	0.80	 	 	 	 	 	 	 	 	 	 	 	 	 	 	 	 	 	 	1581513980	4.31	7.98
12/02/2020 13:26:21	120220	12022020	132621	91.29	12.418850	-57.239377	91.42	0.250	-0.310	0.500	91.29	-2.10	0.90	 	 	 	 	 	 	 	 	 	 	 	 	 	 	 	 	 	 	1581513981	3.00	5.56
12/02/2020 13:26:22	120220	12022020	132622	91.52	12.418850	-57.239370	91.62	-0.250	0.890	0.730	91.52	-0.70	1.10	 	 	 	 	 	 	 	 	 	 	 	 	 	 	 	 	 	 	1581513982	1.69	3.13
12/02/2020 13:26:23	120220	12022020	132623	91.73	12.418850	-57.239360	91.85	-0.560	0.930	0.800	91.73	-0.70	1.10	 	 	 	 	 	 	 	 	 	 	 	 	 	 	 	 	 	 	1581513983	2.05	3.80
12/02/2020 13:26:24	120220	12022020	132624	92.20	12.418850	-57.239343	92.35	-0.530	0.090	0.640	92.20	-1.10	1.10	 	 	 	 	 	 	 	 	 	 	 	 	 	 	 	 	 	 	1581513984	3.33	6.17
12/02/2020 13:26:25	120220	12022020	132625	92.65	12.418850	-57.239325	92.75	-0.250	-0.710	0.530	92.65	-1.90	0.90	 	 	 	 	 	 	 	 	 	 	 	 	 	 	 	 	 	 	1581513985	3.90	7.22
12/02/2020 13:26:26	120220	12022020	132626	92.73	12.418848	-57.239308	92.77	0.160	-1.080	0.550	92.73	-2.40	0.90	 	 	 	 	 	 	 	 	 	 	 	 	 	 	 	 	 	 	1581513986	3.67	6.80
12/02/2020 13:26:27	120220	12022020	132627	92.52	12.418848	-57.239292	92.54	0.570	-0.940	0.470	92.52	-2.40	0.90	 	 	 	 	 	 	 	 	 	 	 	 	 	 	 	 	 	 	1581513987	3.36	6.22
12/02/2020 13:26:28	120220	12022020	132628	92.30	12.418852	-57.239278	92.31	0.640	-0.260	0.290	92.30	-1.90	0.70	 	 	 	 	 	 	 	 	 	 	 	 	 	 	 	 	 	 	1581513988	3.13	5.80
12/02/2020 13:26:29	120220	12022020	132629	92.25	12.418855	-57.239265	92.28	0.200	0.560	0.240	92.25	-1.00	0.60	 	 	 	 	 	 	 	 	 	 	 	 	 	 	 	 	 	 	1581513989	2.67	4.94
12/02/2020 13:26:30	120220	12022020	132630	92.40	12.418857	-57.239253	92.47	-0.420	0.730	0.360	92.40	-0.60	0.70	 	 	 	 	 	 	 	 	 	 	 	 	 	 	 	 	 	 	1581513990	2.46	4.56
12/02/2020 13:26:31	120220	12022020	132631	92.60	12.418857	-57.239240	92.64	-0.650	0.060	0.550	92.60	-1.10	0.90	 	 	 	 	 	 	 	 	 	 	 	 	 	 	 	 	 	 	1581513991	3.12	5.78
12/02/2020 13:26:32	120220	12022020	132632	92.46	12.418853	-57.239222	92.45	-0.340	-0.740	1.040	92.46	-2.00	1.30	 	 	 	 	 	 	 	 	 	 	 	 	 	 	 	 	 	 	1581513992	3.97	7.35
12/02/2020 13:26:33	120220	12022020	132633	91.96	12.418848	-57.239203	91.93	0.080	-0.850	1.740	91.96	-2.30	1.90	 	 	 	 	 	 	 	 	 	 	 	 	 	 	 	 	 	 	1581513993	3.98	7.37
12/02/2020 13:26:34	120220	12022020	132634	91.37	12.418843	-57.239188	91.37	0.210	-0.280	2.400	91.37	-1.80	2.70	 	 	 	 	 	 	 	 	 	 	 	 	 	 	 	 	 	 	1581513994	3.26	6.04
12/02/2020 13:26:35	120220	12022020	132635	90.99	12.418838	-57.239177	91.03	0.150	0.180	2.600	90.99	-1.20	2.90	 	 	 	 	 	 	 	 	 	 	 	 	 	 	 	 	 	 	1581513995	2.71	5.02
12/02/2020 13:26:36	120220	12022020	132636	90.70	12.418838	-57.239163	90.72	0.140	0.070	2.240	90.70	-1.20	2.80	 	 	 	 	 	 	 	 	 	 	 	 	 	 	 	 	 	 	1581513996	2.88	5.33
12/02/2020 13:26:37	120220	12022020	132637	90.37	12.418842	-57.239147	90.37	0.200	-0.380	1.500	90.37	-1.90	1.60	 	 	 	 	 	 	 	 	 	 	 	 	 	 	 	 	 	 	1581513997	3.64	6.74
12/02/2020 13:26:38	120220	12022020	132638	90.11	12.418848	-57.239128	90.12	0.140	-0.610	0.770	90.11	-2.00	1.30	 	 	 	 	 	 	 	 	 	 	 	 	 	 	 	 	 	 	1581513998	4.04	7.48
12/02/2020 13:26:39	120220	12022020	132639	89.98	12.418852	-57.239112	90.01	-0.160	-0.210	0.330	89.98	-1.70	0.80	 	 	 	 	 	 	 	 	 	 	 	 	 	 	 	 	 	 	1581513999	3.62	6.70
12/02/2020 13:26:40	120220	12022020	132640	89.94	12.418853	-57.239098	89.98	-0.540	0.530	0.330	89.94	-1.00	0.70	 	 	 	 	 	 	 	 	 	 	 	 	 	 	 	 	 	 	1581514000	2.70	5.00
12/02/2020 13:26:41	120220	12022020	132641	89.90	12.418850	-57.239087	89.93	-0.620	0.810	0.720	89.90	-0.60	1.00	 	 	 	 	 	 	 	 	 	 	 	 	 	 	 	 	 	 	1581514001	2.41	4.46
12/02/2020 13:26:42	120220	12022020	132642	89.71	12.418847	-57.239073	89.73	-0.200	0.110	1.270	89.71	-1.00	1.50	 	 	 	 	 	 	 	 	 	 	 	 	 	 	 	 	 	 	1581514002	3.01	5.57
12/02/2020 13:26:43	120220	12022020	132643	89.37	12.418845	-57.239053	89.38	0.610	-1.280	1.790	89.37	-2.30	2.10	 	 	 	 	 	 	 	 	 	 	 	 	 	 	 	 	 	 	1581514003	4.10	7.59
12/02/2020 13:26:44	120220	12022020	132644	89.18	12.418845	-57.239032	89.25	1.280	-2.120	2.270	89.18	-3.40	2.50	 	 	 	 	 	 	 	 	 	 	 	 	 	 	 	 	 	 	1581514004	4.84	8.96
12/02/2020 13:26:45	120220	12022020	132645	89.39	12.418845	-57.239012	89.53	1.140	-1.330	2.760	89.39	-3.00	3.10	 	 	 	 	 	 	 	 	 	 	 	 	 	 	 	 	 	 	1581514005	4.18	7.74
12/02/2020 13:26:46	120220	12022020	132646	89.98	12.418843	-57.239000	90.18	0.160	0.560	3.010	89.98	-1.30	3.40	 	 	 	 	 	 	 	 	 	 	 	 	 	 	 	 	 	 	1581514006	2.43	4.50
12/02/2020 13:26:47	120220	12022020	132647	90.74	12.418843	-57.238993	90.92	-1.010	2.150	2.890	90.74	0.50	3.30	 	 	 	 	 	 	 	 	 	 	 	 	 	 	 	 	 	 	1581514007	1.33	2.46
12/02/2020 13:26:48	120220	12022020	132648	91.36	12.418842	-57.238987	91.49	-1.540	2.180	2.570	91.36	1.00	3.00	 	 	 	 	 	 	 	 	 	 	 	 	 	 	 	 	 	 	1581514008	1.67	3.09
12/02/2020 13:26:49	120220	12022020	132649	91.61	12.418840	-57.238972	91.67	-1.080	0.480	2.260	91.61	-0.40	2.70	 	 	 	 	 	 	 	 	 	 	 	 	 	 	 	 	 	 	1581514009	3.19	5.91
12/02/2020 13:26:50	120220	12022020	132650	91.58	12.418838	-57.238948	91.62	-0.030	-1.710	2.000	91.58	-2.60	2.50	 	 	 	 	 	 	 	 	 	 	 	 	 	 	 	 	 	 	1581514010	4.74	8.78
12/02/2020 13:26:51	120220	12022020	132651	91.58	12.418840	-57.238925	91.65	0.840	-2.710	1.550	91.58	-4.00	2.10	 	 	 	 	 	 	 	 	 	 	 	 	 	 	 	 	 	 	1581514011	4.99	9.24
12/02/2020 13:26:52	120220	12022020	132652	91.92	12.418847	-57.238907	92.03	1.020	-1.850	0.750	91.92	-3.60	1.40	 	 	 	 	 	 	 	 	 	 	 	 	 	 	 	 	 	 	1581514012	3.90	7.22
12/02/2020 13:26:53	120220	12022020	132653	92.66	12.418853	-57.238897	92.80	0.580	-0.130	-0.000	92.66	-1.90	0.60	 	 	 	 	 	 	 	 	 	 	 	 	 	 	 	 	 	 	1581514013	2.70	5.00
12/02/2020 13:26:54	120220	12022020	132654	93.58	12.418858	-57.238888	93.72	-0.000	1.110	-0.200	93.58	-0.50	0.20	 	 	 	 	 	 	 	 	 	 	 	 	 	 	 	 	 	 	1581514014	2.07	3.83
12/02/2020 13:26:55	120220	12022020	132655	94.41	12.418858	-57.238877	94.53	-0.360	1.290	0.110	94.41	-0.00	0.40	 	 	 	 	 	 	 	 	 	 	 	 	 	 	 	 	 	 	1581514015	2.48	4.59
12/02/2020 13:26:56	120220	12022020	132656	94.97	12.418855	-57.238862	95.05	-0.360	0.690	0.770	94.97	-0.50	1.00	 	 	 	 	 	 	 	 	 	 	 	 	 	 	 	 	 	 	1581514016	3.38	6.26
12/02/2020 13:26:57	120220	12022020	132657	95.24	12.418850	-57.238843	95.32	-0.100	-0.200	1.670	95.24	-1.40	1.80	 	 	 	 	 	 	 	 	 	 	 	 	 	 	 	 	 	 	1581514017	3.99	7.39
12/02/2020 13:26:58	120220	12022020	132658	95.39	12.418843	-57.238825	95.51	0.130	-0.840	2.570	95.39	-2.10	2.80	 	 	 	 	 	 	 	 	 	 	 	 	 	 	 	 	 	 	1581514018	4.09	7.57
12/02/2020 13:26:59	120220	12022020	132659	95.64	12.418838	-57.238808	95.79	0.160	-0.970	3.050	95.64	-2.30	3.50	 	 	 	 	 	 	 	 	 	 	 	 	 	 	 	 	 	 	1581514019	3.73	6.91
12/02/2020 13:27:00	120220	12022020	132700	95.97	12.418837	-57.238793	96.11	0.060	-0.660	2.930	95.97	-2.10	3.40	 	 	 	 	 	 	 	 	 	 	 	 	 	 	 	 	 	 	1581514020	3.22	5.96
12/02/2020 13:27:01	120220	12022020	132701	96.27	12.418837	-57.238778	96.40	-0.020	-0.200	2.290	96.27	-1.40	2.30	 	 	 	 	 	 	 	 	 	 	 	 	 	 	 	 	 	 	1581514021	2.99	5.54
12/02/2020 13:27:02	120220	12022020	132702	96.59	12.418842	-57.238763	96.70	-0.130	0.180	1.270	96.59	-1.30	1.90	1017.40	26.60	26.70	21.20	21.30	681.0	72.0	72.0	403.0	28.7	343.00	11.40	71.00	9.80	49440	9771.0	27.5	27.5	1581514022	3.20	5.93
12/02/2020 13:27:03	120220	12022020	132703	96.95	12.418847	-57.238748	97.03	-0.300	0.270	0.140	96.95	-1.10	0.80	 	 	 	 	 	 	 	 	 	 	 	 	 	 	 	 	 	 	1581514023	3.43	6.35
12/02/2020 13:27:04	120220	12022020	132704	97.16	12.418850	-57.238732	97.21	-0.340	-0.110	-0.730	97.19	-1.40	-0.10	 	 	 	 	 	 	 	 	 	 	 	 	 	 	 	 	 	 	1581514024	3.62	6.70
12/02/2020 13:27:05	120220	12022020	132705	97.22	12.418852	-57.238713	97.21	-0.060	-0.660	-1.230	97.22	-1.90	-0.70	 	 	 	 	 	 	 	 	 	 	 	 	 	 	 	 	 	 	1581514025	3.96	7.33
12/02/2020 13:27:06	120220	12022020	132706	97.18	12.418850	-57.238693	97.16	0.370	-0.850	-1.400	97.18	-2.20	-1.00	 	 	 	 	 	 	 	 	 	 	 	 	 	 	 	 	 	 	1581514026	4.11	7.61
12/02/2020 13:27:07	120220	12022020	132707	96.98	12.418848	-57.238677	96.92	0.520	-0.350	-1.250	96.98	-1.90	-0.90	 	 	 	 	 	 	 	 	 	 	 	 	 	 	 	 	 	 	1581514027	3.69	6.83
12/02/2020 13:27:08	120220	12022020	132708	96.50	12.418847	-57.238663	96.41	0.270	0.430	-0.810	96.50	-1.10	-0.50	 	 	 	 	 	 	 	 	 	 	 	 	 	 	 	 	 	 	1581514028	2.88	5.33
12/02/2020 13:27:09	120220	12022020	132709	95.91	12.418845	-57.238652	95.83	-0.040	0.730	-0.230	95.91	-0.60	0.00	 	 	 	 	 	 	 	 	 	 	 	 	 	 	 	 	 	 	1581514029	2.58	4.78
12/02/2020 13:27:10	120220	12022020	132710	95.54	12.418843	-57.238637	95.54	-0.160	0.330	0.270	95.54	-0.90	0.60	 	 	 	 	 	 	 	 	 	 	 	 	 	 	 	 	 	 	1581514030	3.17	5.87
12/02/2020 13:27:11	120220	12022020	132711	95.57	12.418842	-57.238618	95.60	-0.140	-0.330	0.760	95.57	-1.50	1.00	 	 	 	 	 	 	 	 	 	 	 	 	 	 	 	 	 	 	1581514031	3.76	6.96
12/02/2020 13:27:12	120220	12022020	132712	95.52	12.418837	-57.238600	95.51	-0.120	-0.860	1.460	95.52	-2.10	1.70	 	 	 	 	 	 	 	 	 	 	 	 	 	 	 	 	 	 	1581514032	3.93	7.28
12/02/2020 13:27:13	120220	12022020	132713	95.07	12.418830	-57.238583	95.02	-0.120	-0.980	2.320	95.07	-2.20	3.00	 	 	 	 	 	 	 	 	 	 	 	 	 	 	 	 	 	 	1581514033	3.95	7.32
12/02/2020 13:27:14	120220	12022020	132714	94.32	12.418822	-57.238568	94.27	-0.130	-0.570	3.110	94.32	-2.10	3.30	 	 	 	 	 	 	 	 	 	 	 	 	 	 	 	 	 	 	1581514034	3.75	6.95
12/02/2020 13:27:15	120220	12022020	132715	93.52	12.418813	-57.238555	93.47	-0.140	0.030	3.510	93.52	-1.50	3.80	 	 	 	 	 	 	 	 	 	 	 	 	 	 	 	 	 	 	1581514035	3.28	6.07
12/02/2020 13:27:16	120220	12022020	132716	92.65	12.418810	-57.238540	92.59	0.020	0.130	3.300	92.65	-1.20	3.80	 	 	 	 	 	 	 	 	 	 	 	 	 	 	 	 	 	 	1581514036	3.04	5.63
12/02/2020 13:27:17	120220	12022020	132717	91.82	12.418810	-57.238523	91.79	0.420	-0.340	2.330	91.82	-1.60	3.00	 	 	 	 	 	 	 	 	 	 	 	 	 	 	 	 	 	 	1581514037	3.75	6.95
12/02/2020 13:27:18	120220	12022020	132718	91.40	12.418817	-57.238502	91.40	0.640	-0.460	0.860	91.40	-1.90	1.60	 	 	 	 	 	 	 	 	 	 	 	 	 	 	 	 	 	 	1581514038	4.56	8.45
12/02/2020 13:27:19	120220	12022020	132719	91.34	12.418825	-57.238485	91.32	0.280	0.280	-0.530	91.34	-1.30	0.20	 	 	 	 	 	 	 	 	 	 	 	 	 	 	 	 	 	 	1581514039	3.97	7.35
12/02/2020 13:27:20	120220	12022020	132720	91.22	12.418832	-57.238475	91.14	-0.460	1.180	-1.360	91.22	-0.40	-0.80	 	 	 	 	 	 	 	 	 	 	 	 	 	 	 	 	 	 	1581514040	2.72	5.04
12/02/2020 13:27:21	120220	12022020	132721	90.71	12.418833	-57.238463	90.58	-0.940	1.100	-1.250	90.71	-0.10	-1.00	 	 	 	 	 	 	 	 	 	 	 	 	 	 	 	 	 	 	1581514041	2.19	4.06
12/02/2020 13:27:22	120220	12022020	132722	89.87	12.418830	-57.238448	89.74	-0.660	-0.320	-0.320	89.87	-1.30	-0.20	 	 	 	 	 	 	 	 	 	 	 	 	 	 	 	 	 	 	1581514042	3.32	6.15
12/02/2020 13:27:23	120220	12022020	132723	89.12	12.418823	-57.238427	89.06	0.270	-2.070	0.900	89.12	-3.10	1.00	 	 	 	 	 	 	 	 	 	 	 	 	 	 	 	 	 	 	1581514043	4.89	9.06
12/02/2020 13:27:24	120220	12022020	132724	88.64	12.418815	-57.238403	88.64	1.120	-2.680	2.040	88.64	-4.00	2.20	 	 	 	 	 	 	 	 	 	 	 	 	 	 	 	 	 	 	1581514044	5.29	9.80
12/02/2020 13:27:25	120220	12022020	132725	88.27	12.418808	-57.238385	88.29	1.200	-1.520	2.810	88.27	-2.10	3.30	 	 	 	 	 	 	 	 	 	 	 	 	 	 	 	 	 	 	1581514045	4.19	7.76
12/02/2020 13:27:26	120220	12022020	132726	88.05	12.418807	-57.238373	88.06	0.470	0.670	3.020	88.01	-1.20	3.40	 	 	 	 	 	 	 	 	 	 	 	 	 	 	 	 	 	 	1581514046	2.41	4.46
12/02/2020 13:27:27	120220	12022020	132727	87.87	12.418807	-57.238367	87.93	-0.530	2.350	2.880	87.87	1.20	3.10	 	 	 	 	 	 	 	 	 	 	 	 	 	 	 	 	 	 	1581514047	1.39	2.57
12/02/2020 13:27:28	120220	12022020	132728	87.86	12.418808	-57.238358	87.93	-1.150	2.330	2.460	87.86	1.10	3.00	 	 	 	 	 	 	 	 	 	 	 	 	 	 	 	 	 	 	1581514048	1.94	3.59
12/02/2020 13:27:29	120220	12022020	132729	87.92	12.418812	-57.238342	87.99	-1.010	0.710	1.930	87.92	-0.20	2.40	 	 	 	 	 	 	 	 	 	 	 	 	 	 	 	 	 	 	1581514049	3.49	6.46
12/02/2020 13:27:30	120220	12022020	132730	87.95	12.418812	-57.238320	87.99	-0.330	-1.190	1.490	87.95	-2.10	2.00	 	 	 	 	 	 	 	 	 	 	 	 	 	 	 	 	 	 	1581514050	4.66	8.63
12/02/2020 13:27:31	120220	12022020	132731	87.85	12.418813	-57.238298	87.89	0.370	-2.150	1.250	87.85	-3.40	1.70	 	 	 	 	 	 	 	 	 	 	 	 	 	 	 	 	 	 	1581514051	4.61	8.54
12/02/2020 13:27:32	120220	12022020	132732	87.69	12.418813	-57.238280	87.74	0.750	-1.840	1.180	87.69	-3.40	1.60	 	 	 	 	 	 	 	 	 	 	 	 	 	 	 	 	 	 	1581514052	3.62	6.70
12/02/2020 13:27:33	120220	12022020	132733	87.66	12.418815	-57.238268	87.74	0.690	-0.790	1.130	87.66	-2.40	1.50	 	 	 	 	 	 	 	 	 	 	 	 	 	 	 	 	 	 	1581514053	2.66	4.93
12/02/2020 13:27:34	120220	12022020	132734	87.82	12.418818	-57.238258	87.92	0.260	0.310	1.140	87.82	-1.30	1.50	 	 	 	 	 	 	 	 	 	 	 	 	 	 	 	 	 	 	1581514054	2.25	4.17
12/02/2020 13:27:35	120220	12022020	132735	88.09	12.418820	-57.238247	88.21	-0.220	0.690	1.230	88.09	-0.70	1.60	 	 	 	 	 	 	 	 	 	 	 	 	 	 	 	 	 	 	1581514055	2.38	4.41
12/02/2020 13:27:36	120220	12022020	132736	88.46	12.418820	-57.238232	88.59	-0.290	0.280	1.330	88.46	-1.00	1.70	 	 	 	 	 	 	 	 	 	 	 	 	 	 	 	 	 	 	1581514056	3.23	5.98
12/02/2020 13:27:37	120220	12022020	132737	88.83	12.418818	-57.238213	88.96	-0.030	0.080	1.430	88.83	-1.20	1.90	 	 	 	 	 	 	 	 	 	 	 	 	 	 	 	 	 	 	1581514057	3.86	7.15
12/02/2020 13:27:38	120220	12022020	132738	89.09	12.418818	-57.238198	89.28	0.160	0.370	1.600	89.15	-1.10	1.90	 	 	 	 	 	 	 	 	 	 	 	 	 	 	 	 	 	 	1581514058	3.24	6.00
12/02/2020 13:27:39	120220	12022020	132739	89.39	12.418818	-57.238185	89.50	0.110	0.350	1.840	89.39	-0.90	2.20	 	 	 	 	 	 	 	 	 	 	 	 	 	 	 	 	 	 	1581514059	2.63	4.87
12/02/2020 13:27:40	120220	12022020	132740	89.51	12.418820	-57.238172	89.62	0.040	-0.490	1.990	89.51	-1.60	2.40	 	 	 	 	 	 	 	 	 	 	 	 	 	 	 	 	 	 	1581514060	3.11	5.76
12/02/2020 13:27:41	120220	12022020	132741	89.70	12.418822	-57.238152	89.85	0.160	-1.540	2.000	89.70	-2.70	2.40	 	 	 	 	 	 	 	 	 	 	 	 	 	 	 	 	 	 	1581514061	4.08	7.56
12/02/2020 13:27:42	120220	12022020	132742	90.17	12.418823	-57.238132	90.36	0.220	-1.550	1.970	90.17	-3.00	2.40	 	 	 	 	 	 	 	 	 	 	 	 	 	 	 	 	 	 	1581514062	4.26	7.89
12/02/2020 13:27:43	120220	12022020	132743	90.98	12.418823	-57.238117	91.22	-0.110	-0.190	1.830	90.98	-2.00	2.30	 	 	 	 	 	 	 	 	 	 	 	 	 	 	 	 	 	 	1581514063	3.02	5.59
12/02/2020 13:27:44	120220	12022020	132744	91.99	12.418823	-57.238110	92.23	-0.610	1.410	1.440	91.99	-0.30	1.90	 	 	 	 	 	 	 	 	 	 	 	 	 	 	 	 	 	 	1581514064	1.64	3.04
12/02/2020 13:27:45	120220	12022020	132745	92.71	12.418822	-57.238102	92.83	-0.740	1.640	1.010	92.71	0.40	1.50	 	 	 	 	 	 	 	 	 	 	 	 	 	 	 	 	 	 	1581514065	1.60	2.96
12/02/2020 13:27:46	120220	12022020	132746	92.70	12.418823	-57.238087	92.73	-0.260	0.240	0.940	92.70	-0.70	1.30	 	 	 	 	 	 	 	 	 	 	 	 	 	 	 	 	 	 	1581514066	3.25	6.02
12/02/2020 13:27:47	120220	12022020	132747	92.37	12.418823	-57.238065	92.40	0.390	-1.310	0.940	92.37	-2.40	1.40	 	 	 	 	 	 	 	 	 	 	 	 	 	 	 	 	 	 	1581514067	4.74	8.78
12/02/2020 13:27:48	120220	12022020	132748	92.36	12.418827	-57.238043	92.46	0.700	-1.780	0.540	92.36	-3.10	1.10	 	 	 	 	 	 	 	 	 	 	 	 	 	 	 	 	 	 	1581514068	4.65	8.61
12/02/2020 13:27:49	120220	12022020	132749	92.84	12.418833	-57.238027	93.00	0.610	-1.170	-0.150	92.84	-2.20	-0.00	 	 	 	 	 	 	 	 	 	 	 	 	 	 	 	 	 	 	1581514069	3.68	6.82
12/02/2020 13:27:50	120220	12022020	132750	93.55	12.418838	-57.238013	93.70	0.390	-0.260	-0.680	93.55	-1.80	-0.20	 	 	 	 	 	 	 	 	 	 	 	 	 	 	 	 	 	 	1581514070	2.92	5.41
12/02/2020 13:27:51	120220	12022020	132751	94.05	12.418840	-57.238000	94.12	0.110	0.420	-0.670	94.05	-1.10	-0.30	 	 	 	 	 	 	 	 	 	 	 	 	 	 	 	 	 	 	1581514071	2.76	5.11
12/02/2020 13:27:52	120220	12022020	132752	94.13	12.418837	-57.237987	94.12	-0.330	0.770	-0.180	94.11	-0.70	0.10	 	 	 	 	 	 	 	 	 	 	 	 	 	 	 	 	 	 	1581514072	3.00	5.56
12/02/2020 13:27:53	120220	12022020	132753	93.80	12.418832	-57.237972	93.79	-0.830	0.760	0.760	93.80	-0.60	0.90	 	 	 	 	 	 	 	 	 	 	 	 	 	 	 	 	 	 	1581514073	3.37	6.24
12/02/2020 13:27:54	120220	12022020	132754	93.31	12.418822	-57.237957	93.32	-1.030	0.440	1.810	93.31	-0.80	2.00	 	 	 	 	 	 	 	 	 	 	 	 	 	 	 	 	 	 	1581514074	3.75	6.95
12/02/2020 13:27:55	120220	12022020	132755	92.80	12.418815	-57.237940	92.83	-0.630	-0.210	2.330	92.80	-1.40	2.70	 	 	 	 	 	 	 	 	 	 	 	 	 	 	 	 	 	 	1581514075	3.75	6.95
12/02/2020 13:27:56	120220	12022020	132756	92.44	12.418813	-57.237923	92.50	0.160	-1.060	2.040	92.44	-2.20	2.60	 	 	 	 	 	 	 	 	 	 	 	 	 	 	 	 	 	 	1581514076	3.85	7.13
12/02/2020 13:27:57	120220	12022020	132757	92.34	12.418817	-57.237903	92.40	0.770	-1.500	1.370	92.34	-2.80	1.90	 	 	 	 	 	 	 	 	 	 	 	 	 	 	 	 	 	 	1581514077	4.21	7.80
12/02/2020 13:27:58	120220	12022020	132758	92.24	12.418820	-57.237885	92.27	0.760	-0.930	0.840	92.24	-2.50	1.30	 	 	 	 	 	 	 	 	 	 	 	 	 	 	 	 	 	 	1581514078	3.75	6.95
12/02/2020 13:27:59	120220	12022020	132759	91.91	12.418820	-57.237873	91.88	0.300	0.170	0.510	91.91	-1.50	1.00	 	 	 	 	 	 	 	 	 	 	 	 	 	 	 	 	 	 	1581514079	2.68	4.96
12/02/2020 13:28:00	120220	12022020	132800	91.21	12.418820	-57.237862	91.14	-0.030	0.650	0.340	91.21	-0.70	0.80	 	 	 	 	 	 	 	 	 	 	 	 	 	 	 	 	 	 	1581514080	2.41	4.46
12/02/2020 13:28:01	120220	12022020	132801	90.43	12.418822	-57.237847	90.37	0.040	0.260	0.180	90.43	-1.00	0.60	 	 	 	 	 	 	 	 	 	 	 	 	 	 	 	 	 	 	1581514081	3.35	6.20
12/02/2020 13:28:02	120220	12022020	132802	89.81	12.418823	-57.237827	89.78	0.180	-0.240	0.200	89.81	-1.50	0.60	1017.30	26.60	26.70	21.10	21.10	716.0	71.0	71.0	399.0	28.8	345.00	11.90	74.00	10.30	50870	8945.0	27.5	27.5	1581514082	4.14	7.67
12/02/2020 13:28:03	120220	12022020	132803	89.44	12.418823	-57.237808	89.44	-0.010	-0.170	0.310	89.44	-1.40	0.80	 	 	 	 	 	 	 	 	 	 	 	 	 	 	 	 	 	 	1581514083	3.96	7.33
12/02/2020 13:28:04	120220	12022020	132804	89.17	12.418822	-57.237793	89.18	-0.540	0.340	0.540	89.17	-1.20	0.80	 	 	 	 	 	 	 	 	 	 	 	 	 	 	 	 	 	 	1581514084	3.14	5.82
12/02/2020 13:28:05	120220	12022020	132805	88.79	12.418817	-57.237780	88.78	-0.910	0.420	1.110	88.79	-0.90	1.30	 	 	 	 	 	 	 	 	 	 	 	 	 	 	 	 	 	 	1581514085	2.83	5.24
12/02/2020 13:28:06	120220	12022020	132806	88.19	12.418810	-57.237765	88.17	-0.610	-0.380	2.020	88.19	-1.50	2.20	 	 	 	 	 	 	 	 	 	 	 	 	 	 	 	 	 	 	1581514086	3.66	6.78
12/02/2020 13:28:07	120220	12022020	132807	87.49	12.418803	-57.237743	87.50	0.140	-1.200	2.740	87.49	-2.40	3.00	 	 	 	 	 	 	 	 	 	 	 	 	 	 	 	 	 	 	1581514087	4.58	8.48
12/02/2020 13:28:08	120220	12022020	132808	86.90	12.418800	-57.237723	86.94	0.760	-1.230	3.110	86.90	-2.70	3.40	 	 	 	 	 	 	 	 	 	 	 	 	 	 	 	 	 	 	1581514088	4.33	8.02
12/02/2020 13:28:09	120220	12022020	132809	86.53	12.418800	-57.237707	86.61	0.930	-0.660	3.150	86.53	-2.20	3.50	 	 	 	 	 	 	 	 	 	 	 	 	 	 	 	 	 	 	1581514089	3.51	6.50
12/02/2020 13:28:10	120220	12022020	132810	86.35	12.418800	-57.237692	86.44	0.660	0.050	2.970	86.35	-1.50	3.40	 	 	 	 	 	 	 	 	 	 	 	 	 	 	 	 	 	 	1581514090	3.19	5.91
12/02/2020 13:28:11	120220	12022020	132811	86.30	12.418802	-57.237677	86.40	0.070	0.770	2.570	86.30	-0.80	3.10	 	 	 	 	 	 	 	 	 	 	 	 	 	 	 	 	 	 	1581514091	3.12	5.78
12/02/2020 13:28:12	120220	12022020	132812	86.27	12.418805	-57.237663	86.34	-0.540	1.110	1.990	86.27	-0.30	2.50	 	 	 	 	 	 	 	 	 	 	 	 	 	 	 	 	 	 	1581514092	2.97	5.50
12/02/2020 13:28:13	120220	12022020	132813	86.10	12.418808	-57.237648	86.15	-0.750	0.670	1.410	86.10	-0.50	2.00	 	 	 	 	 	 	 	 	 	 	 	 	 	 	 	 	 	 	1581514093	3.18	5.89
12/02/2020 13:28:14	120220	12022020	132814	85.95	12.418812	-57.237630	86.02	-0.320	-0.510	0.940	85.95	-1.60	1.50	 	 	 	 	 	 	 	 	 	 	 	 	 	 	 	 	 	 	1581514094	3.94	7.30
12/02/2020 13:28:15	120220	12022020	132815	86.01	12.418815	-57.237608	86.10	0.400	-1.540	0.570	86.01	-3.10	0.90	 	 	 	 	 	 	 	 	 	 	 	 	 	 	 	 	 	 	1581514095	4.63	8.57
12/02/2020 13:28:16	120220	12022020	132816	86.15	12.418820	-57.237588	86.26	0.730	-1.520	0.460	86.15	-3.00	0.90	 	 	 	 	 	 	 	 	 	 	 	 	 	 	 	 	 	 	1581514096	4.39	8.13
12/02/2020 13:28:17	120220	12022020	132817	86.39	12.418822	-57.237573	86.54	0.380	-0.590	0.850	86.39	-1.60	1.60	 	 	 	 	 	 	 	 	 	 	 	 	 	 	 	 	 	 	1581514097	3.29	6.09
12/02/2020 13:28:18	120220	12022020	132818	86.81	12.418818	-57.237562	87.00	-0.270	0.320	1.680	86.81	-1.20	1.90	 	 	 	 	 	 	 	 	 	 	 	 	 	 	 	 	 	 	1581514098	2.62	4.85
12/02/2020 13:28:19	120220	12022020	132819	87.20	12.418813	-57.237548	87.40	-0.610	0.670	2.510	87.20	-0.80	2.70	 	 	 	 	 	 	 	 	 	 	 	 	 	 	 	 	 	 	1581514099	3.13	5.80
12/02/2020 13:28:20	120220	12022020	132820	87.47	12.418807	-57.237532	87.66	-0.480	0.600	2.950	87.47	-0.70	3.30	 	 	 	 	 	 	 	 	 	 	 	 	 	 	 	 	 	 	1581514100	3.62	6.70
12/02/2020 13:28:21	120220	12022020	132821	87.71	12.418805	-57.237515	87.89	-0.120	0.390	3.140	87.71	-0.90	3.50	 	 	 	 	 	 	 	 	 	 	 	 	 	 	 	 	 	 	1581514101	3.62	6.70
12/02/2020 13:28:22	120220	12022020	132822	88.03	12.418807	-57.237498	88.22	0.180	-0.030	3.000	88.03	-1.30	3.50	 	 	 	 	 	 	 	 	 	 	 	 	 	 	 	 	 	 	1581514102	3.51	6.50
12/02/2020 13:28:23	120220	12022020	132823	88.53	12.418810	-57.237482	88.73	0.320	-0.670	2.390	88.53	-1.90	3.00	 	 	 	 	 	 	 	 	 	 	 	 	 	 	 	 	 	 	1581514103	3.75	6.95
12/02/2020 13:28:24	120220	12022020	132824	89.11	12.418817	-57.237463	89.29	0.360	-1.160	1.740	89.11	-2.50	2.30	 	 	 	 	 	 	 	 	 	 	 	 	 	 	 	 	 	 	1581514104	4.04	7.48
12/02/2020 13:28:25	120220	12022020	132825	89.65	12.418820	-57.237445	89.81	0.370	-1.110	1.330	89.65	-2.60	1.80	 	 	 	 	 	 	 	 	 	 	 	 	 	 	 	 	 	 	1581514105	3.86	7.15
12/02/2020 13:28:26	120220	12022020	132826	90.12	12.418823	-57.237430	90.26	0.320	-0.520	1.000	90.12	-2.10	1.50	 	 	 	 	 	 	 	 	 	 	 	 	 	 	 	 	 	 	1581514106	3.40	6.30
12/02/2020 13:28:27	120220	12022020	132827	90.58	12.418827	-57.237415	90.74	0.130	0.160	0.690	90.58	-1.00	1.00	 	 	 	 	 	 	 	 	 	 	 	 	 	 	 	 	 	 	1581514107	3.13	5.80
12/02/2020 13:28:28	120220	12022020	132828	91.03	12.418830	-57.237400	91.31	-0.190	0.550	0.580	91.15	-0.90	1.00	 	 	 	 	 	 	 	 	 	 	 	 	 	 	 	 	 	 	1581514108	3.18	5.89
12/02/2020 13:28:29	120220	12022020	132829	91.74	12.418832	-57.237385	91.91	-0.480	0.560	0.700	91.74	-0.80	1.10	 	 	 	 	 	 	 	 	 	 	 	 	 	 	 	 	 	 	1581514109	3.35	6.20
12/02/2020 13:28:30	120220	12022020	132830	92.37	12.418830	-57.237367	92.54	-0.570	0.220	0.760	92.37	-1.10	1.20	 	 	 	 	 	 	 	 	 	 	 	 	 	 	 	 	 	 	1581514110	3.59	6.65
12/02/2020 13:28:31	120220	12022020	132831	92.99	12.418830	-57.237348	93.15	-0.410	-0.250	0.710	92.99	-1.50	1.10	 	 	 	 	 	 	 	 	 	 	 	 	 	 	 	 	 	 	1581514111	3.88	7.19
12/02/2020 13:28:32	120220	12022020	132832	93.48	12.418830	-57.237330	93.61	-0.220	-0.520	0.840	93.48	-1.90	1.20	 	 	 	 	 	 	 	 	 	 	 	 	 	 	 	 	 	 	1581514112	3.92	7.26
12/02/2020 13:28:33	120220	12022020	132833	93.76	12.418827	-57.237313	93.87	-0.080	-0.600	1.190	93.76	-2.00	1.50	 	 	 	 	 	 	 	 	 	 	 	 	 	 	 	 	 	 	1581514113	3.70	6.85
12/02/2020 13:28:34	120220	12022020	132834	93.93	12.418823	-57.237297	94.02	0.120	-0.630	1.310	93.93	-2.00	1.70	 	 	 	 	 	 	 	 	 	 	 	 	 	 	 	 	 	 	1581514114	3.64	6.74
12/02/2020 13:28:35	120220	12022020	132835	94.01	12.418823	-57.237278	94.08	0.450	-0.620	1.050	94.01	-2.00	1.60	 	 	 	 	 	 	 	 	 	 	 	 	 	 	 	 	 	 	1581514115	3.77	6.98
12/02/2020 13:28:36	120220	12022020	132836	94.04	12.418828	-57.237260	94.10	0.700	-0.430	0.510	94.04	-1.90	1.10	 	 	 	 	 	 	 	 	 	 	 	 	 	 	 	 	 	 	1581514116	4.02	7.45
12/02/2020 13:28:37	120220	12022020	132837	94.25	12.418833	-57.237242	94.32	0.550	0.060	-0.060	94.25	-1.50	0.50	 	 	 	 	 	 	 	 	 	 	 	 	 	 	 	 	 	 	1581514117	4.04	7.48
12/02/2020 13:28:38	120220	12022020	132838	94.60	12.418838	-57.237225	94.66	-0.120	0.750	-0.310	94.60	-0.80	0.10	 	 	 	 	 	 	 	 	 	 	 	 	 	 	 	 	 	 	1581514118	3.53	6.54
12/02/2020 13:28:39	120220	12022020	132839	94.87	12.418838	-57.237212	94.90	-1.030	1.090	-0.210	94.87	-0.40	0.30	 	 	 	 	 	 	 	 	 	 	 	 	 	 	 	 	 	 	1581514119	2.92	5.41
12/02/2020 13:28:40	120220	12022020	132840	94.86	12.418833	-57.237197	94.83	-1.440	0.400	0.130	94.86	-0.70	0.40	 	 	 	 	 	 	 	 	 	 	 	 	 	 	 	 	 	 	1581514120	3.24	6.00
12/02/2020 13:28:41	120220	12022020	132841	94.44	12.418825	-57.237177	94.36	-0.690	-1.230	0.730	94.44	-2.20	1.00	 	 	 	 	 	 	 	 	 	 	 	 	 	 	 	 	 	 	1581514121	4.50	8.33
12/02/2020 13:28:42	120220	12022020	132842	93.62	12.418817	-57.237152	93.51	0.790	-2.410	1.530	93.62	-3.60	1.70	 	 	 	 	 	 	 	 	 	 	 	 	 	 	 	 	 	 	1581514122	5.50	10.19
12/02/2020 13:28:43	120220	12022020	132843	92.77	12.418813	-57.237130	92.72	1.680	-1.810	1.930	92.77	-3.50	2.30	 	 	 	 	 	 	 	 	 	 	 	 	 	 	 	 	 	 	1581514123	4.89	9.06
12/02/2020 13:28:44	120220	12022020	132844	92.38	12.418815	-57.237115	92.41	1.110	0.200	1.690	92.38	-1.70	2.20	 	 	 	 	 	 	 	 	 	 	 	 	 	 	 	 	 	 	1581514124	3.08	5.70
12/02/2020 13:28:45	120220	12022020	132845	92.48	12.418818	-57.237107	92.55	-0.350	1.970	1.200	92.48	0.20	1.70	 	 	 	 	 	 	 	 	 	 	 	 	 	 	 	 	 	 	1581514125	1.95	3.61
12/02/2020 13:28:46	120220	12022020	132846	92.70	12.418820	-57.237097	92.75	-1.480	2.240	0.890	92.70	0.90	1.40	 	 	 	 	 	 	 	 	 	 	 	 	 	 	 	 	 	 	1581514126	2.07	3.83
12/02/2020 13:28:47	120220	12022020	132847	92.78	12.418818	-57.237082	92.79	-1.510	0.940	0.730	92.78	-0.00	1.20	 	 	 	 	 	 	 	 	 	 	 	 	 	 	 	 	 	 	1581514127	3.48	6.44
12/02/2020 13:28:48	120220	12022020	132848	92.53	12.418813	-57.237058	92.47	-0.580	-0.970	0.850	92.53	-1.90	1.20	 	 	 	 	 	 	 	 	 	 	 	 	 	 	 	 	 	 	1581514128	4.85	8.98
12/02/2020 13:28:49	120220	12022020	132849	91.71	12.418807	-57.237035	91.59	0.590	-2.200	1.570	91.71	-3.40	1.70	 	 	 	 	 	 	 	 	 	 	 	 	 	 	 	 	 	 	1581514129	5.29	9.80
12/02/2020 13:28:50	120220	12022020	132850	90.56	12.418800	-57.237013	90.45	1.220	-2.050	2.430	90.56	-3.60	2.70	 	 	 	 	 	 	 	 	 	 	 	 	 	 	 	 	 	 	1581514130	4.62	8.56
12/02/2020 13:28:51	120220	12022020	132851	89.71	12.418798	-57.236998	89.69	0.940	-0.760	2.750	89.71	-2.50	3.10	 	 	 	 	 	 	 	 	 	 	 	 	 	 	 	 	 	 	1581514131	3.42	6.33
12/02/2020 13:28:52	120220	12022020	132852	89.57	12.418798	-57.236987	89.65	0.100	0.810	2.420	89.57	-0.90	3.00	 	 	 	 	 	 	 	 	 	 	 	 	 	 	 	 	 	 	1581514132	2.37	4.39
12/02/2020 13:28:53	120220	12022020	132853	89.97	12.418802	-57.236977	90.07	-0.560	1.480	1.740	89.97	-0.10	1.90	 	 	 	 	 	 	 	 	 	 	 	 	 	 	 	 	 	 	1581514133	2.28	4.22
12/02/2020 13:28:54	120220	12022020	132854	90.31	12.418803	-57.236960	90.35	-0.420	0.630	1.170	90.31	-0.40	1.70	 	 	 	 	 	 	 	 	 	 	 	 	 	 	 	 	 	 	1581514134	3.31	6.13
12/02/2020 13:28:55	120220	12022020	132855	90.19	12.418803	-57.236938	90.17	0.230	-0.790	1.110	90.19	-1.90	1.50	 	 	 	 	 	 	 	 	 	 	 	 	 	 	 	 	 	 	1581514135	4.83	8.95
12/02/2020 13:28:56	120220	12022020	132856	89.82	12.418802	-57.236913	89.85	0.560	-1.270	1.670	89.82	-2.70	1.90	 	 	 	 	 	 	 	 	 	 	 	 	 	 	 	 	 	 	1581514136	5.14	9.52
12/02/2020 13:28:57	120220	12022020	132857	89.76	12.418797	-57.236897	89.86	0.150	-0.340	2.370	89.76	-2.00	2.60	 	 	 	 	 	 	 	 	 	 	 	 	 	 	 	 	 	 	1581514137	3.93	7.28
12/02/2020 13:28:58	120220	12022020	132858	90.11	12.418792	-57.236885	90.26	-0.630	0.990	2.640	90.11	-0.70	3.00	 	 	 	 	 	 	 	 	 	 	 	 	 	 	 	 	 	 	1581514138	2.37	4.39
12/02/2020 13:28:59	120220	12022020	132859	90.65	12.418788	-57.236877	90.79	-0.990	1.230	2.330	90.65	-0.10	2.80	 	 	 	 	 	 	 	 	 	 	 	 	 	 	 	 	 	 	1581514139	1.91	3.54
12/02/2020 13:29:00	120220	12022020	132900	91.02	12.418788	-57.236862	91.10	-0.400	-0.110	2.110	91.02	-1.00	2.50	 	 	 	 	 	 	 	 	 	 	 	 	 	 	 	 	 	 	1581514140	3.18	5.89
12/02/2020 13:29:01	120220	12022020	132901	90.96	12.418788	-57.236838	91.00	0.760	-1.960	2.410	90.96	-2.90	2.70	 	 	 	 	 	 	 	 	 	 	 	 	 	 	 	 	 	 	1581514141	4.89	9.06
12/02/2020 13:29:02	120220	12022020	132902	90.83	12.418785	-57.236813	90.91	1.540	-2.530	2.700	90.83	-3.90	3.10	1017.40	26.50	26.60	20.90	21.00	714.0	71.0	71.0	397.0	28.8	344.00	12.70	72.00	10.90	50862	10076.0	27.5	27.5	1581514142	5.34	9.89
12/02/2020 13:29:03	120220	12022020	132903	91.06	12.418785	-57.236795	91.19	1.210	-1.020	2.600	91.06	-2.90	3.10	 	 	 	 	 	 	 	 	 	 	 	 	 	 	 	 	 	 	1581514143	3.90	7.22
12/02/2020 13:29:04	120220	12022020	132904	91.67	12.418787	-57.236787	91.83	-0.000	1.390	2.220	91.67	-0.50	2.70	 	 	 	 	 	 	 	 	 	 	 	 	 	 	 	 	 	 	1581514144	1.83	3.39
12/02/2020 13:29:05	120220	12022020	132905	92.46	12.418788	-57.236782	92.61	-1.230	2.770	1.720	92.46	1.30	1.90	 	 	 	 	 	 	 	 	 	 	 	 	 	 	 	 	 	 	1581514145	1.09	2.02
12/02/2020 13:29:06	120220	12022020	132906	93.02	12.418788	-57.236772	93.23	-1.540	1.950	1.120	93.13	1.00	1.70	 	 	 	 	 	 	 	 	 	 	 	 	 	 	 	 	 	 	1581514146	2.15	3.98
12/02/2020 13:29:07	120220	12022020	132907	93.47	12.418788	-57.236752	93.50	-0.760	-0.420	0.590	93.47	-2.80	0.90	 	 	 	 	 	 	 	 	 	 	 	 	 	 	 	 	 	 	1581514147	4.31	7.98
12/02/2020 13:29:08	120220	12022020	132908	93.51	12.418788	-57.236725	93.51	0.340	-2.400	0.460	93.51	-3.40	0.90	 	 	 	 	 	 	 	 	 	 	 	 	 	 	 	 	 	 	1581514148	5.49	10.17
12/02/2020 13:29:09	120220	12022020	132909	93.49	12.418788	-57.236703	93.52	0.930	-2.700	0.570	93.49	-4.20	1.00	 	 	 	 	 	 	 	 	 	 	 	 	 	 	 	 	 	 	1581514149	4.78	8.85
12/02/2020 13:29:10	120220	12022020	132910	93.78	12.418788	-57.236687	93.86	0.860	-1.490	0.400	93.78	-3.20	0.90	 	 	 	 	 	 	 	 	 	 	 	 	 	 	 	 	 	 	1581514150	3.26	6.04
12/02/2020 13:29:11	120220	12022020	132911	94.43	12.418788	-57.236677	94.53	0.410	0.230	0.040	94.43	-1.60	0.50	 	 	 	 	 	 	 	 	 	 	 	 	 	 	 	 	 	 	1581514151	2.27	4.20
12/02/2020 13:29:12	120220	12022020	132912	94.97	12.418788	-57.236667	95.00	-0.090	1.430	-0.020	94.97	-0.20	0.40	 	 	 	 	 	 	 	 	 	 	 	 	 	 	 	 	 	 	1581514152	2.10	3.89
12/02/2020 13:29:13	120220	12022020	132913	94.88	12.418785	-57.236653	94.80	-0.380	1.530	0.460	94.88	0.20	0.70	 	 	 	 	 	 	 	 	 	 	 	 	 	 	 	 	 	 	1581514153	2.82	5.22
12/02/2020 13:29:14	120220	12022020	132914	94.22	12.418780	-57.236637	94.12	-0.480	0.810	1.110	94.22	-0.40	1.40	 	 	 	 	 	 	 	 	 	 	 	 	 	 	 	 	 	 	1581514154	3.86	7.15
12/02/2020 13:29:15	120220	12022020	132915	93.75	12.418775	-57.236617	93.74	-0.550	0.020	1.510	93.75	-1.20	1.90	 	 	 	 	 	 	 	 	 	 	 	 	 	 	 	 	 	 	1581514155	4.19	7.76
12/02/2020 13:29:16	120220	12022020	132916	93.79	12.418773	-57.236600	93.82	-0.540	-0.560	1.520	93.79	-1.80	2.00	 	 	 	 	 	 	 	 	 	 	 	 	 	 	 	 	 	 	1581514156	3.76	6.96
12/02/2020 13:29:17	120220	12022020	132917	93.90	12.418772	-57.236583	93.89	-0.190	-1.180	1.240	93.90	-2.40	1.70	 	 	 	 	 	 	 	 	 	 	 	 	 	 	 	 	 	 	1581514157	3.48	6.44
12/02/2020 13:29:18	120220	12022020	132918	93.72	12.418770	-57.236565	93.56	0.540	-1.810	1.090	93.63	-3.10	1.50	 	 	 	 	 	 	 	 	 	 	 	 	 	 	 	 	 	 	1581514158	3.86	7.15
12/02/2020 13:29:19	120220	12022020	132919	93.08	12.418768	-57.236545	93.01	1.150	-1.770	1.240	93.08	-2.80	1.70	 	 	 	 	 	 	 	 	 	 	 	 	 	 	 	 	 	 	1581514159	4.26	7.89
12/02/2020 13:29:20	120220	12022020	132920	92.58	12.418767	-57.236528	92.52	1.090	-0.600	1.340	92.58	-2.30	1.80	 	 	 	 	 	 	 	 	 	 	 	 	 	 	 	 	 	 	1581514160	3.72	6.89
12/02/2020 13:29:21	120220	12022020	132921	92.16	12.418765	-57.236515	92.09	0.330	1.080	1.220	92.16	-0.70	1.70	 	 	 	 	 	 	 	 	 	 	 	 	 	 	 	 	 	 	1581514161	2.60	4.82
12/02/2020 13:29:22	120220	12022020	132922	91.60	12.418763	-57.236505	91.52	-0.560	2.060	1.090	91.60	0.50	1.50	 	 	 	 	 	 	 	 	 	 	 	 	 	 	 	 	 	 	1581514162	2.06	3.82
12/02/2020 13:29:23	120220	12022020	132923	91.01	12.418763	-57.236493	90.93	-0.960	1.580	0.950	91.01	0.40	1.40	 	 	 	 	 	 	 	 	 	 	 	 	 	 	 	 	 	 	1581514163	2.77	5.13
12/02/2020 13:29:24	120220	12022020	132924	90.57	12.418762	-57.236473	90.51	-0.740	0.120	0.580	90.57	-0.90	1.10	 	 	 	 	 	 	 	 	 	 	 	 	 	 	 	 	 	 	1581514164	4.07	7.54
12/02/2020 13:29:25	120220	12022020	132925	90.19	12.418762	-57.236452	90.13	-0.220	-1.190	0.320	90.19	-2.30	0.80	 	 	 	 	 	 	 	 	 	 	 	 	 	 	 	 	 	 	1581514165	4.68	8.67
12/02/2020 13:29:26	120220	12022020	132926	89.72	12.418762	-57.236432	89.64	0.210	-1.620	0.580	89.72	-3.00	0.90	 	 	 	 	 	 	 	 	 	 	 	 	 	 	 	 	 	 	1581514166	4.25	7.87
12/02/2020 13:29:27	120220	12022020	132927	89.08	12.418757	-57.236415	89.00	0.410	-1.320	1.270	89.08	-2.80	1.50	 	 	 	 	 	 	 	 	 	 	 	 	 	 	 	 	 	 	1581514167	3.49	6.46
12/02/2020 13:29:28	120220	12022020	132928	88.29	12.418752	-57.236400	88.20	0.510	-0.840	2.030	88.29	-2.30	2.30	 	 	 	 	 	 	 	 	 	 	 	 	 	 	 	 	 	 	1581514168	3.27	6.06
12/02/2020 13:29:29	120220	12022020	132929	87.47	12.418747	-57.236385	87.44	0.540	-0.320	2.680	87.47	-1.80	2.90	 	 	 	 	 	 	 	 	 	 	 	 	 	 	 	 	 	 	1581514169	3.56	6.59
12/02/2020 13:29:30	120220	12022020	132930	87.08	12.418743	-57.236368	87.13	0.280	0.410	3.030	87.08	-1.20	3.40	 	 	 	 	 	 	 	 	 	 	 	 	 	 	 	 	 	 	1581514170	3.60	6.67
12/02/2020 13:29:31	120220	12022020	132931	87.07	12.418742	-57.236353	87.14	-0.280	1.090	2.970	87.07	-0.40	3.40	 	 	 	 	 	 	 	 	 	 	 	 	 	 	 	 	 	 	1581514171	3.17	5.87
12/02/2020 13:29:32	120220	12022020	132932	87.08	12.418740	-57.236338	87.11	-0.720	1.090	2.450	87.08	-0.20	3.00	 	 	 	 	 	 	 	 	 	 	 	 	 	 	 	 	 	 	1581514172	2.95	5.46
12/02/2020 13:29:33	120220	12022020	132933	86.89	12.418743	-57.236322	86.90	-0.540	0.110	1.880	86.89	-1.00	2.40	 	 	 	 	 	 	 	 	 	 	 	 	 	 	 	 	 	 	1581514173	3.61	6.69
12/02/2020 13:29:34	120220	12022020	132934	86.65	12.418747	-57.236302	86.67	0.140	-1.100	1.630	86.65	-2.30	2.10	 	 	 	 	 	 	 	 	 	 	 	 	 	 	 	 	 	 	1581514174	4.53	8.39
12/02/2020 13:29:35	120220	12022020	132935	86.49	12.418748	-57.236280	86.53	0.680	-1.480	1.600	86.49	-2.90	2.00	 	 	 	 	 	 	 	 	 	 	 	 	 	 	 	 	 	 	1581514175	4.59	8.50
12/02/2020 13:29:36	120220	12022020	132936	86.47	12.418750	-57.236262	86.53	0.630	-0.830	1.470	86.47	-2.40	1.90	 	 	 	 	 	 	 	 	 	 	 	 	 	 	 	 	 	 	1581514176	3.66	6.78
12/02/2020 13:29:37	120220	12022020	132937	86.61	12.418750	-57.236248	86.71	0.200	0.100	1.260	86.61	-1.50	1.70	 	 	 	 	 	 	 	 	 	 	 	 	 	 	 	 	 	 	1581514177	2.76	5.11
12/02/2020 13:29:38	120220	12022020	132938	86.94	12.418752	-57.236237	87.08	-0.070	0.440	1.180	86.94	-1.00	1.60	 	 	 	 	 	 	 	 	 	 	 	 	 	 	 	 	 	 	1581514178	2.77	5.13
12/02/2020 13:29:39	120220	12022020	132939	87.36	12.418753	-57.236220	87.49	-0.050	0.100	1.290	87.36	-1.20	1.70	 	 	 	 	 	 	 	 	 	 	 	 	 	 	 	 	 	 	1581514179	3.54	6.56
12/02/2020 13:29:40	120220	12022020	132940	87.60	12.418753	-57.236200	87.71	-0.030	-0.220	1.600	87.60	-1.60	1.90	 	 	 	 	 	 	 	 	 	 	 	 	 	 	 	 	 	 	1581514180	4.10	7.59
12/02/2020 13:29:41	120220	12022020	132941	87.64	12.418752	-57.236182	87.75	-0.260	-0.030	2.010	87.64	-1.50	2.30	 	 	 	 	 	 	 	 	 	 	 	 	 	 	 	 	 	 	1581514181	3.78	7.00
12/02/2020 13:29:42	120220	12022020	132942	87.72	12.418750	-57.236168	87.87	-0.550	0.270	2.330	87.72	-1.20	2.70	 	 	 	 	 	 	 	 	 	 	 	 	 	 	 	 	 	 	1581514182	3.10	5.74
12/02/2020 13:29:43	120220	12022020	132943	88.02	12.418748	-57.236153	88.20	-0.490	-0.060	2.480	88.02	-1.80	2.90	 	 	 	 	 	 	 	 	 	 	 	 	 	 	 	 	 	 	1581514183	3.12	5.78
12/02/2020 13:29:44	120220	12022020	132944	88.40	12.418748	-57.236133	88.59	-0.000	-0.930	2.440	88.40	-2.10	2.90	 	 	 	 	 	 	 	 	 	 	 	 	 	 	 	 	 	 	1581514184	4.00	7.41
12/02/2020 13:29:45	120220	12022020	132945	88.91	12.418750	-57.236112	89.11	0.500	-1.320	2.030	88.91	-2.70	2.60	 	 	 	 	 	 	 	 	 	 	 	 	 	 	 	 	 	 	1581514185	4.58	8.48
12/02/2020 13:29:46	120220	12022020	132946	89.53	12.418753	-57.236093	89.72	0.610	-0.580	1.430	89.53	-2.20	2.00	 	 	 	 	 	 	 	 	 	 	 	 	 	 	 	 	 	 	1581514186	3.95	7.32
12/02/2020 13:29:47	120220	12022020	132947	90.15	12.418758	-57.236082	90.30	0.310	0.630	0.870	90.15	-1.10	1.40	 	 	 	 	 	 	 	 	 	 	 	 	 	 	 	 	 	 	1581514187	2.84	5.26
12/02/2020 13:29:48	120220	12022020	132948	90.49	12.418762	-57.236070	90.58	-0.080	1.000	0.590	90.49	-0.40	1.10	 	 	 	 	 	 	 	 	 	 	 	 	 	 	 	 	 	 	1581514188	2.59	4.80
12/02/2020 13:29:49	120220	12022020	132949	90.53	12.418763	-57.236052	90.59	-0.190	0.230	0.450	90.53	-0.90	0.90	 	 	 	 	 	 	 	 	 	 	 	 	 	 	 	 	 	 	1581514189	3.60	6.67
12/02/2020 13:29:50	120220	12022020	132950	90.48	12.418765	-57.236030	90.54	-0.060	-0.760	0.390	90.48	-2.00	0.80	 	 	 	 	 	 	 	 	 	 	 	 	 	 	 	 	 	 	1581514190	4.66	8.63
12/02/2020 13:29:51	120220	12022020	132951	90.45	12.418767	-57.236008	90.52	0.070	-0.890	0.440	90.45	-2.40	0.90	 	 	 	 	 	 	 	 	 	 	 	 	 	 	 	 	 	 	1581514191	4.57	8.46
12/02/2020 13:29:52	120220	12022020	132952	90.63	12.418767	-57.235992	90.73	0.010	-0.310	0.280	90.63	-1.90	0.80	 	 	 	 	 	 	 	 	 	 	 	 	 	 	 	 	 	 	1581514192	3.55	6.57
12/02/2020 13:29:53	120220	12022020	132953	90.92	12.418768	-57.235978	91.00	-0.130	-0.060	0.030	90.92	-1.50	0.50	 	 	 	 	 	 	 	 	 	 	 	 	 	 	 	 	 	 	1581514193	3.07	5.69
12/02/2020 13:29:54	120220	12022020	132954	90.95	12.418768	-57.235960	90.98	-0.160	-0.470	0.110	90.95	-1.80	0.50	 	 	 	 	 	 	 	 	 	 	 	 	 	 	 	 	 	 	1581514194	3.77	6.98
12/02/2020 13:29:55	120220	12022020	132955	90.71	12.418767	-57.235938	90.74	-0.210	-0.560	0.570	90.71	-1.70	1.20	 	 	 	 	 	 	 	 	 	 	 	 	 	 	 	 	 	 	1581514195	4.48	8.30
12/02/2020 13:29:56	120220	12022020	132956	90.52	12.418762	-57.235920	90.54	-0.430	0.250	1.020	90.49	-1.40	1.30	 	 	 	 	 	 	 	 	 	 	 	 	 	 	 	 	 	 	1581514196	3.88	7.19
12/02/2020 13:29:57	120220	12022020	132957	90.35	12.418758	-57.235908	90.41	-0.570	0.970	1.130	90.35	-0.50	1.50	 	 	 	 	 	 	 	 	 	 	 	 	 	 	 	 	 	 	1581514197	2.82	5.22
12/02/2020 13:29:58	120220	12022020	132958	90.06	12.418758	-57.235893	90.07	-0.240	0.480	1.100	90.06	-0.70	1.50	 	 	 	 	 	 	 	 	 	 	 	 	 	 	 	 	 	 	1581514198	3.11	5.76
12/02/2020 13:29:59	120220	12022020	132959	89.56	12.418758	-57.235872	89.56	0.380	-0.700	1.250	89.56	-1.80	1.60	 	 	 	 	 	 	 	 	 	 	 	 	 	 	 	 	 	 	1581514199	4.50	8.33
12/02/2020 13:30:00	120220	12022020	133000	89.03	12.418758	-57.235848	89.06	0.730	-1.360	1.450	89.03	-2.70	1.80	 	 	 	 	 	 	 	 	 	 	 	 	 	 	 	 	 	 	1581514200	4.97	9.20
12/02/2020 13:30:01	120220	12022020	133001	88.68	12.418758	-57.235828	88.72	0.580	-1.040	1.410	88.68	-2.60	1.90	 	 	 	 	 	 	 	 	 	 	 	 	 	 	 	 	 	 	1581514201	4.24	7.85
12/02/2020 13:30:02	120220	12022020	133002	88.55	12.418760	-57.235812	88.63	0.110	-0.140	1.210	88.55	-1.80	1.70	1017.20	26.50	26.60	20.50	20.60	711.0	69.0	69.0	396.0	28.8	342.00	13.10	69.00	11.40	50857	11293.0	27.6	27.5	1581514202	3.40	6.30
12/02/2020 13:30:03	120220	12022020	133003	88.59	12.418760	-57.235798	88.68	-0.350	0.620	1.150	88.59	-0.90	1.60	 	 	 	 	 	 	 	 	 	 	 	 	 	 	 	 	 	 	1581514203	3.03	5.61
12/02/2020 13:30:04	120220	12022020	133004	88.51	12.418758	-57.235782	88.55	-0.550	0.620	1.350	88.51	-0.70	1.70	 	 	 	 	 	 	 	 	 	 	 	 	 	 	 	 	 	 	1581514204	3.33	6.17
12/02/2020 13:30:05	120220	12022020	133005	88.11	12.418755	-57.235763	88.12	-0.350	-0.110	1.810	88.11	-1.30	2.10	 	 	 	 	 	 	 	 	 	 	 	 	 	 	 	 	 	 	1581514205	4.18	7.74
12/02/2020 13:30:06	120220	12022020	133006	87.51	12.418752	-57.235740	87.54	0.110	-0.790	2.460	87.51	-2.10	2.70	 	 	 	 	 	 	 	 	 	 	 	 	 	 	 	 	 	 	1581514206	4.85	8.98
12/02/2020 13:30:07	120220	12022020	133007	87.13	12.418750	-57.235718	87.22	0.440	-0.700	2.830	87.13	-2.20	3.20	 	 	 	 	 	 	 	 	 	 	 	 	 	 	 	 	 	 	1581514207	4.65	8.61
12/02/2020 13:30:08	120220	12022020	133008	87.14	12.418750	-57.235700	87.29	0.320	-0.070	2.760	87.14	-1.60	3.20	 	 	 	 	 	 	 	 	 	 	 	 	 	 	 	 	 	 	1581514208	3.77	6.98
12/02/2020 13:30:09	120220	12022020	133009	87.44	12.418752	-57.235685	87.62	-0.070	0.300	2.490	87.44	-1.20	3.00	 	 	 	 	 	 	 	 	 	 	 	 	 	 	 	 	 	 	1581514209	3.29	6.09
12/02/2020 13:30:10	120220	12022020	133010	87.80	12.418753	-57.235668	87.95	-0.300	0.050	2.250	87.80	-1.30	2.70	 	 	 	 	 	 	 	 	 	 	 	 	 	 	 	 	 	 	1581514210	3.64	6.74
12/02/2020 13:30:11	120220	12022020	133011	87.96	12.418755	-57.235647	88.06	-0.100	-0.530	2.120	87.96	-1.80	2.60	 	 	 	 	 	 	 	 	 	 	 	 	 	 	 	 	 	 	1581514211	4.30	7.96
12/02/2020 13:30:12	120220	12022020	133012	87.88	12.418755	-57.235625	87.99	0.210	-0.630	2.090	87.88	-2.10	2.50	 	 	 	 	 	 	 	 	 	 	 	 	 	 	 	 	 	 	1581514212	4.58	8.48
12/02/2020 13:30:13	120220	12022020	133013	88.12	12.418757	-57.235607	88.29	0.130	-0.010	1.960	88.12	-1.60	2.40	 	 	 	 	 	 	 	 	 	 	 	 	 	 	 	 	 	 	1581514213	3.92	7.26
12/02/2020 13:30:14	120220	12022020	133014	88.80	12.418758	-57.235593	89.01	-0.260	0.500	1.750	88.80	-1.00	2.20	 	 	 	 	 	 	 	 	 	 	 	 	 	 	 	 	 	 	1581514214	3.11	5.76
12/02/2020 13:30:15	120220	12022020	133015	89.53	12.418758	-57.235577	89.71	-0.460	0.180	1.550	89.53	-1.10	2.00	 	 	 	 	 	 	 	 	 	 	 	 	 	 	 	 	 	 	1581514215	3.32	6.15
12/02/2020 13:30:16	120220	12022020	133016	89.91	12.418758	-57.235557	90.04	-0.110	-0.700	1.590	89.91	-1.90	2.00	 	 	 	 	 	 	 	 	 	 	 	 	 	 	 	 	 	 	1581514216	4.26	7.89
12/02/2020 13:30:17	120220	12022020	133017	90.03	12.418758	-57.235533	90.14	0.510	-1.260	1.760	90.03	-2.60	2.10	 	 	 	 	 	 	 	 	 	 	 	 	 	 	 	 	 	 	1581514217	4.83	8.95
12/02/2020 13:30:18	120220	12022020	133018	90.12	12.418760	-57.235512	90.26	0.760	-0.900	1.920	90.12	-2.50	2.30	 	 	 	 	 	 	 	 	 	 	 	 	 	 	 	 	 	 	1581514218	4.53	8.39
12/02/2020 13:30:19	120220	12022020	133019	90.47	12.418762	-57.235495	90.66	0.310	0.030	2.000	90.47	-1.10	2.40	 	 	 	 	 	 	 	 	 	 	 	 	 	 	 	 	 	 	1581514219	3.65	6.76
12/02/2020 13:30:20	120220	12022020	133020	91.17	12.418762	-57.235480	91.39	-0.410	0.660	1.740	91.17	-0.90	2.30	 	 	 	 	 	 	 	 	 	 	 	 	 	 	 	 	 	 	1581514220	3.17	5.87
12/02/2020 13:30:21	120220	12022020	133021	92.03	12.418763	-57.235463	92.22	-0.730	0.540	1.070	92.03	-1.10	1.20	 	 	 	 	 	 	 	 	 	 	 	 	 	 	 	 	 	 	1581514221	3.62	6.70
12/02/2020 13:30:22	120220	12022020	133022	92.70	12.418765	-57.235443	92.83	-0.510	0.130	0.510	92.70	-1.20	1.00	 	 	 	 	 	 	 	 	 	 	 	 	 	 	 	 	 	 	1581514222	4.36	8.07
12/02/2020 13:30:23	120220	12022020	133023	93.04	12.418767	-57.235422	93.11	-0.140	-0.130	0.250	93.04	-1.50	0.70	 	 	 	 	 	 	 	 	 	 	 	 	 	 	 	 	 	 	1581514223	4.42	8.19
12/02/2020 13:30:24	120220	12022020	133024	93.16	12.418767	-57.235402	93.20	0.090	-0.350	0.170	93.16	-1.70	0.60	 	 	 	 	 	 	 	 	 	 	 	 	 	 	 	 	 	 	1581514224	4.16	7.70
12/02/2020 13:30:25	120220	12022020	133025	93.19	12.418767	-57.235382	93.21	0.150	-0.650	0.150	93.19	-2.00	0.60	 	 	 	 	 	 	 	 	 	 	 	 	 	 	 	 	 	 	1581514225	4.20	7.78
12/02/2020 13:30:26	120220	12022020	133026	93.12	12.418767	-57.235362	93.12	0.180	-0.820	0.260	93.12	-2.20	0.70	 	 	 	 	 	 	 	 	 	 	 	 	 	 	 	 	 	 	1581514226	4.37	8.09
12/02/2020 13:30:27	120220	12022020	133027	92.98	12.418767	-57.235342	92.99	0.140	-0.560	0.430	92.98	-2.10	0.80	 	 	 	 	 	 	 	 	 	 	 	 	 	 	 	 	 	 	1581514227	4.29	7.95
12/02/2020 13:30:28	120220	12022020	133028	92.88	12.418765	-57.235323	92.90	-0.040	0.030	0.500	92.88	-1.50	0.90	 	 	 	 	 	 	 	 	 	 	 	 	 	 	 	 	 	 	1581514228	3.83	7.09
12/02/2020 13:30:29	120220	12022020	133029	92.84	12.418763	-57.235307	92.85	-0.220	0.350	0.520	92.84	-1.10	0.90	 	 	 	 	 	 	 	 	 	 	 	 	 	 	 	 	 	 	1581514229	3.60	6.67
12/02/2020 13:30:30	120220	12022020	133030	92.76	12.418763	-57.235287	92.76	-0.230	0.120	0.630	92.76	-1.20	1.00	 	 	 	 	 	 	 	 	 	 	 	 	 	 	 	 	 	 	1581514230	4.02	7.45
12/02/2020 13:30:31	120220	12022020	133031	92.48	12.418762	-57.235267	92.42	-0.060	-0.370	0.800	92.48	-1.70	1.20	 	 	 	 	 	 	 	 	 	 	 	 	 	 	 	 	 	 	1581514231	4.54	8.41
12/02/2020 13:30:32	120220	12022020	133032	91.97	12.418760	-57.235243	91.91	0.150	-0.720	1.000	91.97	-2.10	1.40	 	 	 	 	 	 	 	 	 	 	 	 	 	 	 	 	 	 	1581514232	4.79	8.87
12/02/2020 13:30:33	120220	12022020	133033	91.45	12.418757	-57.235222	91.41	0.120	-0.440	1.360	91.45	-2.00	1.70	 	 	 	 	 	 	 	 	 	 	 	 	 	 	 	 	 	 	1581514233	4.63	8.57
12/02/2020 13:30:34	120220	12022020	133034	91.09	12.418753	-57.235203	91.10	-0.190	0.300	1.560	91.09	-1.30	1.90	 	 	 	 	 	 	 	 	 	 	 	 	 	 	 	 	 	 	1581514234	3.81	7.06
12/02/2020 13:30:35	120220	12022020	133035	90.87	12.418752	-57.235188	90.87	-0.440	0.640	1.420	90.87	-0.80	1.90	 	 	 	 	 	 	 	 	 	 	 	 	 	 	 	 	 	 	1581514235	3.29	6.09
12/02/2020 13:30:36	120220	12022020	133036	90.47	12.418750	-57.235170	90.44	-0.240	0.150	1.190	90.47	-1.10	1.60	 	 	 	 	 	 	 	 	 	 	 	 	 	 	 	 	 	 	1581514236	3.84	7.11
12/02/2020 13:30:37	120220	12022020	133037	89.86	12.418752	-57.235148	89.82	0.250	-0.620	1.150	89.86	-1.90	1.50	 	 	 	 	 	 	 	 	 	 	 	 	 	 	 	 	 	 	1581514237	4.71	8.72
12/02/2020 13:30:38	120220	12022020	133038	89.16	12.418752	-57.235125	89.13	0.640	-1.120	1.440	89.16	-2.40	1.80	 	 	 	 	 	 	 	 	 	 	 	 	 	 	 	 	 	 	1581514238	4.92	9.11
12/02/2020 13:30:39	120220	12022020	133039	88.58	12.418750	-57.235102	88.61	0.620	-1.100	1.750	88.58	-2.60	2.10	 	 	 	 	 	 	 	 	 	 	 	 	 	 	 	 	 	 	1581514239	4.78	8.85
12/02/2020 13:30:40	120220	12022020	133040	88.31	12.418748	-57.235082	88.37	0.190	-0.470	1.850	88.31	-2.10	2.30	 	 	 	 	 	 	 	 	 	 	 	 	 	 	 	 	 	 	1581514240	4.35	8.06
12/02/2020 13:30:41	120220	12022020	133041	88.11	12.418747	-57.235065	88.16	-0.340	0.580	1.850	88.11	-1.10	2.30	 	 	 	 	 	 	 	 	 	 	 	 	 	 	 	 	 	 	1581514241	3.68	6.82
12/02/2020 13:30:42	120220	12022020	133042	87.87	12.418747	-57.235050	87.93	-0.660	1.390	1.830	87.87	-0.20	2.30	 	 	 	 	 	 	 	 	 	 	 	 	 	 	 	 	 	 	1581514242	3.19	5.91
12/02/2020 13:30:43	120220	12022020	133043	87.78	12.418747	-57.235033	87.88	-0.670	1.070	1.720	87.78	-0.20	2.20	 	 	 	 	 	 	 	 	 	 	 	 	 	 	 	 	 	 	1581514243	3.47	6.43
12/02/2020 13:30:44	120220	12022020	133044	87.82	12.418747	-57.235012	87.91	-0.420	-0.220	1.720	87.82	-1.30	2.10	 	 	 	 	 	 	 	 	 	 	 	 	 	 	 	 	 	 	1581514244	4.61	8.54
12/02/2020 13:30:45	120220	12022020	133045	87.64	12.418745	-57.234985	87.69	-0.010	-1.520	1.970	87.64	-3.20	2.50	 	 	 	 	 	 	 	 	 	 	 	 	 	 	 	 	 	 	1581514245	5.37	9.95
12/02/2020 13:30:46	120220	12022020	133046	87.14	12.418742	-57.234960	87.18	0.490	-1.930	2.270	87.14	-3.40	2.60	 	 	 	 	 	 	 	 	 	 	 	 	 	 	 	 	 	 	1581514246	5.29	9.80
12/02/2020 13:30:47	120220	12022020	133047	86.79	12.418743	-57.234940	86.89	0.790	-1.100	2.420	86.79	-2.00	2.90	 	 	 	 	 	 	 	 	 	 	 	 	 	 	 	 	 	 	1581514247	4.41	8.17
12/02/2020 13:30:48	120220	12022020	133048	86.92	12.418745	-57.234925	87.10	0.580	0.230	2.370	86.92	-1.50	2.80	 	 	 	 	 	 	 	 	 	 	 	 	 	 	 	 	 	 	1581514248	3.33	6.17
12/02/2020 13:30:49	120220	12022020	133049	87.45	12.418750	-57.234910	87.64	0.120	0.910	1.940	87.45	-0.60	2.50	 	 	 	 	 	 	 	 	 	 	 	 	 	 	 	 	 	 	1581514249	3.06	5.67
12/02/2020 13:30:50	120220	12022020	133050	87.98	12.418753	-57.234893	88.12	-0.110	0.500	1.490	87.98	-0.80	2.00	 	 	 	 	 	 	 	 	 	 	 	 	 	 	 	 	 	 	1581514250	3.87	7.17
12/02/2020 13:30:51	120220	12022020	133051	88.33	12.418755	-57.234870	88.46	0.030	-0.350	1.280	88.33	-1.60	1.70	 	 	 	 	 	 	 	 	 	 	 	 	 	 	 	 	 	 	1581514251	4.90	9.07
12/02/2020 13:30:52	120220	12022020	133052	88.67	12.418755	-57.234845	88.81	0.220	-0.690	1.350	88.67	-2.10	1.70	 	 	 	 	 	 	 	 	 	 	 	 	 	 	 	 	 	 	1581514252	5.10	9.45
12/02/2020 13:30:53	120220	12022020	133053	88.88	12.418755	-57.234825	89.01	0.030	-0.320	1.700	88.88	-1.90	2.00	 	 	 	 	 	 	 	 	 	 	 	 	 	 	 	 	 	 	1581514253	4.38	8.11
12/02/2020 13:30:54	120220	12022020	133054	88.98	12.418753	-57.234808	89.13	-0.510	0.320	1.920	88.98	-1.30	2.30	 	 	 	 	 	 	 	 	 	 	 	 	 	 	 	 	 	 	1581514254	3.60	6.67
12/02/2020 13:30:55	120220	12022020	133055	89.26	12.418753	-57.234792	89.45	-0.930	0.560	1.620	89.26	-0.90	2.20	 	 	 	 	 	 	 	 	 	 	 	 	 	 	 	 	 	 	1581514255	3.35	6.20
12/02/2020 13:30:56	120220	12022020	133056	89.71	12.418757	-57.234773	89.90	-0.770	0.140	1.040	89.71	-1.10	1.60	 	 	 	 	 	 	 	 	 	 	 	 	 	 	 	 	 	 	1581514256	3.89	7.20
12/02/2020 13:30:57	120220	12022020	133057	90.04	12.418760	-57.234752	90.19	-0.140	-0.480	0.710	90.04	-1.80	1.20	 	 	 	 	 	 	 	 	 	 	 	 	 	 	 	 	 	 	1581514257	4.57	8.46
12/02/2020 13:30:58	120220	12022020	133058	90.40	12.418762	-57.234730	90.57	0.460	-0.940	0.440	90.40	-2.30	1.00	 	 	 	 	 	 	 	 	 	 	 	 	 	 	 	 	 	 	1581514258	4.73	8.76
12/02/2020 13:30:59	120220	12022020	133059	91.01	12.418765	-57.234708	91.17	0.700	-1.130	-0.110	91.01	-2.50	0.50	 	 	 	 	 	 	 	 	 	 	 	 	 	 	 	 	 	 	1581514259	4.65	8.61
12/02/2020 13:31:00	120220	12022020	133100	91.47	12.418767	-57.234687	91.56	0.610	-0.850	-0.480	91.47	-2.40	-0.00	 	 	 	 	 	 	 	 	 	 	 	 	 	 	 	 	 	 	1581514260	4.52	8.37
12/02/2020 13:31:01	120220	12022020	133101	91.40	12.418770	-57.234668	91.39	0.320	-0.050	-0.160	91.40	-1.70	0.10	 	 	 	 	 	 	 	 	 	 	 	 	 	 	 	 	 	 	1581514261	4.04	7.48
12/02/2020 13:31:02	120220	12022020	133102	90.84	12.418768	-57.234652	90.83	-0.010	0.580	0.640	90.84	-0.90	0.90	1017.30	26.60	26.60	20.30	20.40	720.0	68.0	68.0	396.0	28.7	344.00	13.60	71.00	11.60	51184	11875.0	27.6	27.5	1581514262	3.54	6.56
12/02/2020 13:31:03	120220	12022020	133103	90.29	12.418765	-57.234632	90.32	-0.130	0.290	1.160	90.29	-1.00	1.50	 	 	 	 	 	 	 	 	 	 	 	 	 	 	 	 	 	 	1581514263	4.04	7.48
12/02/2020 13:31:04	120220	12022020	133104	90.17	12.418763	-57.234608	90.28	-0.050	-0.460	1.080	90.17	-1.70	1.50	 	 	 	 	 	 	 	 	 	 	 	 	 	 	 	 	 	 	1581514264	5.09	9.43
12/02/2020 13:31:05	120220	12022020	133105	90.37	12.418765	-57.234583	90.49	-0.060	-0.510	0.810	90.37	-2.00	1.30	 	 	 	 	 	 	 	 	 	 	 	 	 	 	 	 	 	 	1581514265	5.25	9.72
12/02/2020 13:31:06	120220	12022020	133106	90.47	12.418765	-57.234563	90.53	-0.310	0.290	0.500	90.47	-1.40	1.00	 	 	 	 	 	 	 	 	 	 	 	 	 	 	 	 	 	 	1581514266	4.12	7.63
12/02/2020 13:31:07	120220	12022020	133107	90.28	12.418767	-57.234548	90.31	-0.640	1.000	0.250	90.28	-0.50	0.70	 	 	 	 	 	 	 	 	 	 	 	 	 	 	 	 	 	 	1581514267	3.22	5.96
12/02/2020 13:31:08	120220	12022020	133108	90.02	12.418768	-57.234533	89.97	-0.840	0.960	0.200	89.95	-0.40	0.60	 	 	 	 	 	 	 	 	 	 	 	 	 	 	 	 	 	 	1581514268	3.36	6.22
12/02/2020 13:31:09	120220	12022020	133109	89.71	12.418768	-57.234513	89.74	-0.720	0.100	0.330	89.71	-1.80	0.90	 	 	 	 	 	 	 	 	 	 	 	 	 	 	 	 	 	 	1581514269	4.00	7.41
12/02/2020 13:31:10	120220	12022020	133110	89.36	12.418767	-57.234492	89.36	-0.180	-1.300	0.760	89.36	-2.40	1.00	 	 	 	 	 	 	 	 	 	 	 	 	 	 	 	 	 	 	1581514270	4.79	8.87
12/02/2020 13:31:11	120220	12022020	133111	88.62	12.418762	-57.234465	88.58	0.740	-2.570	1.510	88.62	-3.70	1.70	 	 	 	 	 	 	 	 	 	 	 	 	 	 	 	 	 	 	1581514271	5.53	10.24
12/02/2020 13:31:12	120220	12022020	133112	87.71	12.418758	-57.234438	87.69	1.570	-2.650	2.140	87.71	-4.20	2.40	 	 	 	 	 	 	 	 	 	 	 	 	 	 	 	 	 	 	1581514272	5.69	10.54
12/02/2020 13:31:13	120220	12022020	133113	87.14	12.418757	-57.234417	87.21	1.540	-0.960	2.530	87.14	-2.90	2.90	 	 	 	 	 	 	 	 	 	 	 	 	 	 	 	 	 	 	1581514273	4.66	8.63
12/02/2020 13:31:14	120220	12022020	133114	87.08	12.418757	-57.234403	87.21	0.450	1.540	2.610	87.08	-0.50	3.00	 	 	 	 	 	 	 	 	 	 	 	 	 	 	 	 	 	 	1581514274	2.93	5.43
12/02/2020 13:31:15	120220	12022020	133115	87.31	12.418758	-57.234393	87.45	-1.010	3.070	2.350	87.31	1.40	2.80	 	 	 	 	 	 	 	 	 	 	 	 	 	 	 	 	 	 	1581514275	2.14	3.96
12/02/2020 13:31:16	120220	12022020	133116	87.56	12.418760	-57.234380	87.68	-1.790	2.590	1.870	87.56	1.50	2.40	 	 	 	 	 	 	 	 	 	 	 	 	 	 	 	 	 	 	1581514276	2.99	5.54
12/02/2020 13:31:17	120220	12022020	133117	87.67	12.418762	-57.234357	87.74	-1.290	0.380	1.410	87.67	-0.40	1.90	 	 	 	 	 	 	 	 	 	 	 	 	 	 	 	 	 	 	1581514277	4.73	8.76
12/02/2020 13:31:18	120220	12022020	133118	87.57	12.418762	-57.234328	87.63	0.030	-2.030	1.240	87.57	-2.90	1.70	 	 	 	 	 	 	 	 	 	 	 	 	 	 	 	 	 	 	1581514278	6.10	11.30
12/02/2020 13:31:19	120220	12022020	133119	87.56	12.418763	-57.234300	87.67	1.080	-2.940	1.200	87.56	-4.30	1.60	 	 	 	 	 	 	 	 	 	 	 	 	 	 	 	 	 	 	1581514279	5.96	11.04
12/02/2020 13:31:20	120220	12022020	133120	87.88	12.418767	-57.234278	88.03	1.190	-2.020	1.240	87.88	-3.80	1.60	 	 	 	 	 	 	 	 	 	 	 	 	 	 	 	 	 	 	1581514280	4.43	8.20
12/02/2020 13:31:21	120220	12022020	133121	88.41	12.418768	-57.234265	88.59	0.550	-0.290	1.460	88.41	-2.10	1.80	 	 	 	 	 	 	 	 	 	 	 	 	 	 	 	 	 	 	1581514281	2.96	5.48
12/02/2020 13:31:22	120220	12022020	133122	88.87	12.418767	-57.234253	89.02	-0.210	1.100	1.860	88.87	-0.60	2.20	 	 	 	 	 	 	 	 	 	 	 	 	 	 	 	 	 	 	1581514282	2.59	4.80
12/02/2020 13:31:23	120220	12022020	133123	89.10	12.418765	-57.234238	89.23	-0.490	1.310	2.200	89.10	-0.40	2.70	 	 	 	 	 	 	 	 	 	 	 	 	 	 	 	 	 	 	1581514283	3.23	5.98
12/02/2020 13:31:24	120220	12022020	133124	89.14	12.418762	-57.234217	89.26	-0.210	0.510	2.500	89.14	-0.70	2.80	 	 	 	 	 	 	 	 	 	 	 	 	 	 	 	 	 	 	1581514284	4.45	8.24
12/02/2020 13:31:25	120220	12022020	133125	89.19	12.418762	-57.234193	89.35	0.090	-0.270	2.560	89.19	-1.50	3.00	 	 	 	 	 	 	 	 	 	 	 	 	 	 	 	 	 	 	1581514285	5.15	9.54
12/02/2020 13:31:26	120220	12022020	133126	89.52	12.418765	-57.234170	89.71	0.010	-0.450	1.990	89.52	-1.90	2.60	 	 	 	 	 	 	 	 	 	 	 	 	 	 	 	 	 	 	1581514286	4.72	8.74
12/02/2020 13:31:27	120220	12022020	133127	90.11	12.418770	-57.234152	90.30	-0.290	-0.390	1.180	90.11	-1.80	1.80	 	 	 	 	 	 	 	 	 	 	 	 	 	 	 	 	 	 	1581514287	4.09	7.57
12/02/2020 13:31:28	120220	12022020	133128	90.64	12.418773	-57.234133	90.80	-0.330	-0.540	0.780	90.64	-1.90	1.30	 	 	 	 	 	 	 	 	 	 	 	 	 	 	 	 	 	 	1581514288	3.96	7.33
12/02/2020 13:31:29	120220	12022020	133129	91.00	12.418775	-57.234113	91.12	0.060	-0.700	0.490	91.00	-2.10	1.00	 	 	 	 	 	 	 	 	 	 	 	 	 	 	 	 	 	 	1581514289	4.36	8.07
12/02/2020 13:31:30	120220	12022020	133130	91.23	12.418777	-57.234092	91.32	0.550	-0.520	0.010	91.23	-2.00	0.60	 	 	 	 	 	 	 	 	 	 	 	 	 	 	 	 	 	 	1581514290	4.46	8.26
12/02/2020 13:31:31	120220	12022020	133131	91.36	12.418780	-57.234072	91.43	0.740	-0.170	-0.470	91.36	-1.70	0.00	 	 	 	 	 	 	 	 	 	 	 	 	 	 	 	 	 	 	1581514291	4.28	7.93
12/02/2020 13:31:32	120220	12022020	133132	91.43	12.418785	-57.234053	91.49	0.560	0.010	-0.540	91.43	-1.40	-0.10	 	 	 	 	 	 	 	 	 	 	 	 	 	 	 	 	 	 	1581514292	4.20	7.78
12/02/2020 13:31:33	120220	12022020	133133	91.52	12.418788	-57.234033	91.57	0.160	-0.130	-0.310	91.52	-1.50	0.00	 	 	 	 	 	 	 	 	 	 	 	 	 	 	 	 	 	 	1581514293	4.37	8.09
12/02/2020 13:31:34	120220	12022020	133134	91.45	12.418787	-57.234012	91.47	-0.230	-0.190	0.200	91.45	-1.60	0.50	 	 	 	 	 	 	 	 	 	 	 	 	 	 	 	 	 	 	1581514294	4.58	8.48
12/02/2020 13:31:35	120220	12022020	133135	91.14	12.418783	-57.233990	91.16	-0.450	0.050	0.990	91.14	-1.40	1.20	 	 	 	 	 	 	 	 	 	 	 	 	 	 	 	 	 	 	1581514295	4.44	8.22
12/02/2020 13:31:36	120220	12022020	133136	90.86	12.418777	-57.233972	90.86	-0.450	0.330	1.570	90.80	-1.10	1.90	 	 	 	 	 	 	 	 	 	 	 	 	 	 	 	 	 	 	1581514296	4.25	7.87
12/02/2020 13:31:37	120220	12022020	133137	90.62	12.418773	-57.233952	90.69	-0.380	0.330	1.660	90.62	-1.10	2.00	 	 	 	 	 	 	 	 	 	 	 	 	 	 	 	 	 	 	1581514297	4.17	7.72
12/02/2020 13:31:38	120220	12022020	133138	90.43	12.418773	-57.233932	90.50	-0.420	0.140	1.450	90.43	-1.20	1.90	 	 	 	 	 	 	 	 	 	 	 	 	 	 	 	 	 	 	1581514298	4.23	7.83
12/02/2020 13:31:39	120220	12022020	133139	90.28	12.418775	-57.233912	90.34	-0.430	-0.230	1.070	90.28	-1.50	1.60	 	 	 	 	 	 	 	 	 	 	 	 	 	 	 	 	 	 	1581514299	4.22	7.82
12/02/2020 13:31:40	120220	12022020	133140	90.18	12.418777	-57.233892	90.22	-0.040	-0.990	0.630	90.18	-2.20	1.20	 	 	 	 	 	 	 	 	 	 	 	 	 	 	 	 	 	 	1581514300	4.43	8.20
12/02/2020 13:31:41	120220	12022020	133141	89.87	12.418778	-57.233867	89.86	0.700	-1.750	0.530	89.87	-3.00	0.90	 	 	 	 	 	 	 	 	 	 	 	 	 	 	 	 	 	 	1581514301	5.12	9.48
12/02/2020 13:31:42	120220	12022020	133142	89.07	12.418777	-57.233842	89.00	1.190	-1.520	0.960	89.07	-3.10	1.30	 	 	 	 	 	 	 	 	 	 	 	 	 	 	 	 	 	 	1581514302	5.29	9.80
12/02/2020 13:31:43	120220	12022020	133143	88.14	12.418777	-57.233822	88.12	1.010	-0.220	1.380	88.14	-2.00	1.70	 	 	 	 	 	 	 	 	 	 	 	 	 	 	 	 	 	 	1581514303	4.32	8.00
12/02/2020 13:31:44	120220	12022020	133144	87.77	12.418778	-57.233807	87.85	0.340	1.060	1.160	87.77	-0.60	1.70	 	 	 	 	 	 	 	 	 	 	 	 	 	 	 	 	 	 	1581514304	3.41	6.32
12/02/2020 13:31:45	120220	12022020	133145	88.07	12.418783	-57.233790	88.19	-0.270	1.410	0.580	88.07	0.00	1.10	 	 	 	 	 	 	 	 	 	 	 	 	 	 	 	 	 	 	1581514305	3.72	6.89
12/02/2020 13:31:46	120220	12022020	133146	88.52	12.418788	-57.233768	88.62	-0.590	0.960	0.460	88.52	-0.30	0.90	 	 	 	 	 	 	 	 	 	 	 	 	 	 	 	 	 	 	1581514306	4.47	8.28
12/02/2020 13:31:47	120220	12022020	133147	88.72	12.418788	-57.233747	88.77	-0.800	0.290	0.870	88.72	-0.90	1.20	 	 	 	 	 	 	 	 	 	 	 	 	 	 	 	 	 	 	1581514307	4.83	8.95
12/02/2020 13:31:48	120220	12022020	133148	88.57	12.418785	-57.233723	88.58	-0.920	-0.240	1.560	88.57	-1.50	1.80	 	 	 	 	 	 	 	 	 	 	 	 	 	 	 	 	 	 	1581514308	4.70	8.70
12/02/2020 13:31:49	120220	12022020	133149	88.17	12.418780	-57.233703	88.21	-0.730	-0.580	2.470	88.17	-1.90	2.70	 	 	 	 	 	 	 	 	 	 	 	 	 	 	 	 	 	 	1581514309	4.47	8.28
12/02/2020 13:31:50	120220	12022020	133150	87.93	12.418775	-57.233683	88.03	-0.140	-1.040	3.100	87.93	-2.30	3.40	 	 	 	 	 	 	 	 	 	 	 	 	 	 	 	 	 	 	1581514310	4.33	8.02
12/02/2020 13:31:51	120220	12022020	133151	88.11	12.418775	-57.233662	88.26	0.670	-1.720	3.110	88.11	-2.90	3.60	 	 	 	 	 	 	 	 	 	 	 	 	 	 	 	 	 	 	1581514311	4.63	8.57
12/02/2020 13:31:52	120220	12022020	133152	88.30	12.418778	-57.233637	88.41	1.310	-2.110	2.780	88.30	-3.50	3.30	 	 	 	 	 	 	 	 	 	 	 	 	 	 	 	 	 	 	1581514312	5.21	9.65
12/02/2020 13:31:53	120220	12022020	133153	88.36	12.418783	-57.233613	88.49	1.410	-1.390	2.350	88.36	-3.10	2.90	 	 	 	 	 	 	 	 	 	 	 	 	 	 	 	 	 	 	1581514313	5.31	9.83
12/02/2020 13:31:54	120220	12022020	133154	88.75	12.418790	-57.233593	88.94	0.720	0.700	1.790	88.75	-1.30	2.40	 	 	 	 	 	 	 	 	 	 	 	 	 	 	 	 	 	 	1581514314	4.26	7.89
12/02/2020 13:31:55	120220	12022020	133155	89.53	12.418795	-57.233582	89.76	-0.570	2.920	1.050	89.53	1.10	1.70	 	 	 	 	 	 	 	 	 	 	 	 	 	 	 	 	 	 	1581514315	2.72	5.04
12/02/2020 13:31:56	120220	12022020	133156	90.48	12.418800	-57.233572	90.67	-1.660	3.420	0.200	90.48	2.10	0.80	 	 	 	 	 	 	 	 	 	 	 	 	 	 	 	 	 	 	1581514316	2.40	4.44
12/02/2020 13:31:57	120220	12022020	133157	91.18	12.418803	-57.233553	91.30	-1.640	1.470	-0.400	91.18	0.70	0.10	 	 	 	 	 	 	 	 	 	 	 	 	 	 	 	 	 	 	1581514317	3.80	7.04
12/02/2020 13:31:58	120220	12022020	133158	91.45	12.418805	-57.233527	91.50	-0.440	-1.760	-0.510	91.45	-2.40	-0.10	 	 	 	 	 	 	 	 	 	 	 	 	 	 	 	 	 	 	1581514318	5.90	10.93
12/02/2020 13:31:59	120220	12022020	133159	91.31	12.418807	-57.233493	91.34	0.900	-4.090	-0.010	91.31	-5.70	0.70	 	 	 	 	 	 	 	 	 	 	 	 	 	 	 	 	 	 	1581514319	6.90	12.78
12/02/2020 13:32:00	120220	12022020	133200	91.14	12.418807	-57.233465	91.21	1.280	-3.730	0.730	91.14	-5.40	1.00	 	 	 	 	 	 	 	 	 	 	 	 	 	 	 	 	 	 	1581514320	5.91	10.95
12/02/2020 13:32:01	120220	12022020	133201	91.28	12.418803	-57.233450	91.43	0.620	-1.080	1.180	91.28	-3.20	1.50	 	 	 	 	 	 	 	 	 	 	 	 	 	 	 	 	 	 	1581514321	3.51	6.50
12/02/2020 13:32:02	120220	12022020	133202	91.86	12.418802	-57.233442	92.03	-0.270	1.800	1.070	91.86	-0.20	1.50	1017.20	26.50	26.60	20.20	20.20	730.0	68.0	68.0	397.0	28.7	349.00	13.40	76.00	11.20	51677	12287.0	27.6	27.5	1581514322	1.77	3.28
12/02/2020 13:32:03	120220	12022020	133203	92.52	12.418803	-57.233432	92.64	-0.670	2.880	0.660	92.52	1.40	1.20	 	 	 	 	 	 	 	 	 	 	 	 	 	 	 	 	 	 	1581514323	2.05	3.80
12/02/2020 13:32:04	120220	12022020	133204	92.94	12.418805	-57.233412	93.01	-0.550	1.850	0.260	92.94	0.80	0.80	 	 	 	 	 	 	 	 	 	 	 	 	 	 	 	 	 	 	1581514324	4.03	7.46
12/02/2020 13:32:05	120220	12022020	133205	92.98	12.418807	-57.233387	92.98	-0.310	0.020	0.110	92.98	-0.90	0.50	 	 	 	 	 	 	 	 	 	 	 	 	 	 	 	 	 	 	1581514325	5.61	10.39
12/02/2020 13:32:06	120220	12022020	133206	92.71	12.418805	-57.233358	92.69	-0.150	-1.400	0.270	92.71	-2.50	0.60	 	 	 	 	 	 	 	 	 	 	 	 	 	 	 	 	 	 	1581514326	5.73	10.61
12/02/2020 13:32:07	120220	12022020	133207	92.48	12.418803	-57.233335	92.48	0.070	-1.790	0.410	92.48	-3.20	0.80	 	 	 	 	 	 	 	 	 	 	 	 	 	 	 	 	 	 	1581514327	5.03	9.32
12/02/2020 13:32:08	120220	12022020	133208	92.30	12.418803	-57.233315	92.28	0.370	-1.240	0.440	92.30	-2.80	0.90	 	 	 	 	 	 	 	 	 	 	 	 	 	 	 	 	 	 	1581514328	4.15	7.69
12/02/2020 13:32:09	120220	12022020	133209	92.00	12.418803	-57.233298	91.97	0.500	-0.280	0.460	92.00	-1.90	0.90	 	 	 	 	 	 	 	 	 	 	 	 	 	 	 	 	 	 	1581514329	3.54	6.56
12/02/2020 13:32:10	120220	12022020	133210	91.70	12.418805	-57.233282	91.67	0.310	0.360	0.520	91.70	-1.10	0.90	 	 	 	 	 	 	 	 	 	 	 	 	 	 	 	 	 	 	1581514330	3.47	6.43
12/02/2020 13:32:11	120220	12022020	133211	91.36	12.418805	-57.233263	91.33	-0.030	0.450	0.660	91.36	-0.90	1.00	 	 	 	 	 	 	 	 	 	 	 	 	 	 	 	 	 	 	1581514331	3.89	7.20
12/02/2020 13:32:12	120220	12022020	133212	91.05	12.418803	-57.233243	91.04	-0.250	0.210	0.740	91.05	-1.10	1.10	 	 	 	 	 	 	 	 	 	 	 	 	 	 	 	 	 	 	1581514332	4.35	8.06
12/02/2020 13:32:13	120220	12022020	133213	90.78	12.418803	-57.233222	90.75	-0.170	-0.260	0.870	90.78	-1.90	1.40	 	 	 	 	 	 	 	 	 	 	 	 	 	 	 	 	 	 	1581514333	4.60	8.52
12/02/2020 13:32:14	120220	12022020	133214	90.36	12.418800	-57.233198	90.32	0.160	-0.740	1.120	90.36	-2.00	1.50	 	 	 	 	 	 	 	 	 	 	 	 	 	 	 	 	 	 	1581514334	4.83	8.95
12/02/2020 13:32:15	120220	12022020	133215	89.79	12.418798	-57.233175	89.76	0.450	-0.840	1.360	89.79	-2.30	1.70	 	 	 	 	 	 	 	 	 	 	 	 	 	 	 	 	 	 	1581514335	4.90	9.07
12/02/2020 13:32:16	120220	12022020	133216	89.38	12.418798	-57.233155	89.42	0.310	-0.240	1.540	89.38	-1.90	1.90	 	 	 	 	 	 	 	 	 	 	 	 	 	 	 	 	 	 	1581514336	4.48	8.30
12/02/2020 13:32:17	120220	12022020	133217	89.22	12.418797	-57.233137	89.30	-0.250	0.730	1.800	89.22	-0.90	2.10	 	 	 	 	 	 	 	 	 	 	 	 	 	 	 	 	 	 	1581514337	3.64	6.74
12/02/2020 13:32:18	120220	12022020	133218	89.09	12.418795	-57.233122	89.15	-0.710	1.140	1.950	89.09	-0.30	2.30	 	 	 	 	 	 	 	 	 	 	 	 	 	 	 	 	 	 	1581514338	3.26	6.04
12/02/2020 13:32:19	120220	12022020	133219	88.72	12.418792	-57.233103	88.74	-0.550	0.330	1.950	88.72	-0.80	2.40	 	 	 	 	 	 	 	 	 	 	 	 	 	 	 	 	 	 	1581514339	3.95	7.32
12/02/2020 13:32:20	120220	12022020	133220	88.19	12.418792	-57.233078	88.24	0.150	-1.100	2.080	88.19	-2.10	2.40	 	 	 	 	 	 	 	 	 	 	 	 	 	 	 	 	 	 	1581514340	5.20	9.63
12/02/2020 13:32:21	120220	12022020	133221	87.78	12.418792	-57.233052	87.86	0.830	-1.990	2.250	87.78	-3.30	2.60	 	 	 	 	 	 	 	 	 	 	 	 	 	 	 	 	 	 	1581514341	5.71	10.57
12/02/2020 13:32:22	120220	12022020	133222	87.61	12.418795	-57.233028	87.73	0.990	-1.640	2.090	87.61	-3.20	2.60	 	 	 	 	 	 	 	 	 	 	 	 	 	 	 	 	 	 	1581514342	5.15	9.54
12/02/2020 13:32:23	120220	12022020	133223	87.76	12.418798	-57.233010	87.93	0.530	-0.200	1.700	87.76	-2.00	2.20	 	 	 	 	 	 	 	 	 	 	 	 	 	 	 	 	 	 	1581514343	4.00	7.41
12/02/2020 13:32:24	120220	12022020	133224	88.19	12.418802	-57.232995	88.38	-0.140	1.210	1.480	88.19	-0.50	1.90	 	 	 	 	 	 	 	 	 	 	 	 	 	 	 	 	 	 	1581514344	3.01	5.57
12/02/2020 13:32:25	120220	12022020	133225	88.59	12.418802	-57.232980	88.76	-0.520	1.490	1.490	88.59	-0.20	2.00	 	 	 	 	 	 	 	 	 	 	 	 	 	 	 	 	 	 	1581514345	3.20	5.93
12/02/2020 13:32:26	120220	12022020	133226	88.73	12.418800	-57.232960	88.85	-0.510	0.670	1.630	88.73	-0.50	2.00	 	 	 	 	 	 	 	 	 	 	 	 	 	 	 	 	 	 	1581514346	4.35	8.06
12/02/2020 13:32:27	120220	12022020	133227	88.70	12.418800	-57.232935	88.84	-0.430	-0.340	1.800	88.70	-2.00	2.30	 	 	 	 	 	 	 	 	 	 	 	 	 	 	 	 	 	 	1581514347	5.12	9.48
12/02/2020 13:32:28	120220	12022020	133228	88.78	12.418800	-57.232912	89.00	-0.420	-0.900	2.000	88.83	-2.20	2.40	 	 	 	 	 	 	 	 	 	 	 	 	 	 	 	 	 	 	1581514348	4.89	9.06
12/02/2020 13:32:29	120220	12022020	133229	89.13	12.418798	-57.232892	89.31	-0.270	-0.960	2.120	89.13	-2.40	2.50	 	 	 	 	 	 	 	 	 	 	 	 	 	 	 	 	 	 	1581514349	4.31	7.98
12/02/2020 13:32:30	120220	12022020	133230	89.38	12.418797	-57.232873	89.52	0.160	-0.830	2.110	89.38	-2.30	2.50	 	 	 	 	 	 	 	 	 	 	 	 	 	 	 	 	 	 	1581514350	4.01	7.43
12/02/2020 13:32:31	120220	12022020	133231	89.41	12.418798	-57.232853	89.53	0.690	-0.720	2.020	89.41	-2.20	2.50	 	 	 	 	 	 	 	 	 	 	 	 	 	 	 	 	 	 	1581514351	4.15	7.69
12/02/2020 13:32:32	120220	12022020	133232	89.50	12.418802	-57.232833	89.66	0.980	-0.560	1.600	89.50	-2.00	2.20	 	 	 	 	 	 	 	 	 	 	 	 	 	 	 	 	 	 	1581514352	4.48	8.30
12/02/2020 13:32:33	120220	12022020	133233	90.13	12.418808	-57.232812	90.36	0.800	-0.170	0.720	90.13	-1.70	1.40	 	 	 	 	 	 	 	 	 	 	 	 	 	 	 	 	 	 	1581514353	4.66	8.63
12/02/2020 13:32:34	120220	12022020	133234	91.19	12.418815	-57.232792	91.40	0.230	0.440	-0.090	91.19	-1.10	0.50	 	 	 	 	 	 	 	 	 	 	 	 	 	 	 	 	 	 	1581514354	4.35	8.06
12/02/2020 13:32:35	120220	12022020	133235	91.88	12.418818	-57.232775	91.98	-0.390	0.800	-0.290	91.88	-0.70	0.10	 	 	 	 	 	 	 	 	 	 	 	 	 	 	 	 	 	 	1581514355	3.83	7.09
12/02/2020 13:32:36	120220	12022020	133236	91.89	12.418817	-57.232755	91.93	-0.730	0.540	0.140	91.89	-0.80	0.40	 	 	 	 	 	 	 	 	 	 	 	 	 	 	 	 	 	 	1581514356	4.01	7.43
12/02/2020 13:32:37	120220	12022020	133237	91.57	12.418813	-57.232733	91.60	-0.760	-0.050	0.770	91.57	-1.30	1.00	 	 	 	 	 	 	 	 	 	 	 	 	 	 	 	 	 	 	1581514357	4.61	8.54
12/02/2020 13:32:38	120220	12022020	133238	91.30	12.418810	-57.232712	91.28	-0.640	-0.500	1.340	91.24	-1.80	1.60	 	 	 	 	 	 	 	 	 	 	 	 	 	 	 	 	 	 	1581514358	4.72	8.74
12/02/2020 13:32:39	120220	12022020	133239	91.07	12.418808	-57.232690	91.16	-0.410	-0.820	1.540	91.07	-2.20	2.00	 	 	 	 	 	 	 	 	 	 	 	 	 	 	 	 	 	 	1581514359	4.50	8.33
12/02/2020 13:32:40	120220	12022020	133240	91.21	12.418808	-57.232670	91.34	-0.030	-1.040	1.180	91.21	-2.40	1.70	 	 	 	 	 	 	 	 	 	 	 	 	 	 	 	 	 	 	1581514360	4.50	8.33
12/02/2020 13:32:41	120220	12022020	133241	91.62	12.418810	-57.232648	91.72	0.410	-1.000	0.590	91.62	-2.40	1.20	 	 	 	 	 	 	 	 	 	 	 	 	 	 	 	 	 	 	1581514361	4.62	8.56
12/02/2020 13:32:42	120220	12022020	133242	91.86	12.418812	-57.232627	91.90	0.690	-0.590	0.190	91.86	-2.10	0.70	 	 	 	 	 	 	 	 	 	 	 	 	 	 	 	 	 	 	1581514362	4.54	8.41
12/02/2020 13:32:43	120220	12022020	133243	91.64	12.418813	-57.232607	91.61	0.590	0.120	0.120	91.64	-1.50	0.50	 	 	 	 	 	 	 	 	 	 	 	 	 	 	 	 	 	 	1581514363	4.23	7.83
12/02/2020 13:32:44	120220	12022020	133244	91.02	12.418813	-57.232588	90.96	0.150	0.780	0.420	91.02	-0.80	0.80	 	 	 	 	 	 	 	 	 	 	 	 	 	 	 	 	 	 	1581514364	3.88	7.19
12/02/2020 13:32:45	120220	12022020	133245	90.44	12.418813	-57.232570	90.41	-0.370	1.140	0.720	90.44	-0.30	1.10	 	 	 	 	 	 	 	 	 	 	 	 	 	 	 	 	 	 	1581514365	3.83	7.09
12/02/2020 13:32:46	120220	12022020	133246	90.19	12.418815	-57.232552	90.21	-0.700	0.900	0.800	90.19	-0.40	1.20	 	 	 	 	 	 	 	 	 	 	 	 	 	 	 	 	 	 	1581514366	3.92	7.26
12/02/2020 13:32:47	120220	12022020	133247	90.20	12.418817	-57.232530	90.25	-0.620	-0.150	0.700	90.20	-1.30	1.10	 	 	 	 	 	 	 	 	 	 	 	 	 	 	 	 	 	 	1581514367	4.40	8.15
12/02/2020 13:32:48	120220	12022020	133248	90.18	12.418817	-57.232507	90.19	-0.140	-1.490	0.900	90.18	-2.60	1.20	 	 	 	 	 	 	 	 	 	 	 	 	 	 	 	 	 	 	1581514368	5.19	9.61
12/02/2020 13:32:49	120220	12022020	133249	89.74	12.418815	-57.232480	89.71	0.430	-2.120	1.740	89.74	-3.50	1.90	 	 	 	 	 	 	 	 	 	 	 	 	 	 	 	 	 	 	1581514369	5.50	10.19
12/02/2020 13:32:50	120220	12022020	133250	89.07	12.418810	-57.232457	89.06	0.680	-1.630	2.650	89.07	-3.20	2.90	 	 	 	 	 	 	 	 	 	 	 	 	 	 	 	 	 	 	1581514370	5.01	9.28
12/02/2020 13:32:51	120220	12022020	133251	88.61	12.418807	-57.232438	88.67	0.520	-0.410	3.040	88.61	-1.30	3.40	 	 	 	 	 	 	 	 	 	 	 	 	 	 	 	 	 	 	1581514371	4.11	7.61
12/02/2020 13:32:52	120220	12022020	133252	88.52	12.418805	-57.232420	88.67	0.130	0.820	2.870	88.54	-0.90	3.40	 	 	 	 	 	 	 	 	 	 	 	 	 	 	 	 	 	 	1581514372	3.60	6.67
12/02/2020 13:32:53	120220	12022020	133253	88.91	12.418808	-57.232403	89.09	-0.440	1.730	2.180	88.91	0.10	2.80	 	 	 	 	 	 	 	 	 	 	 	 	 	 	 	 	 	 	1581514373	3.60	6.67
12/02/2020 13:32:54	120220	12022020	133254	89.50	12.418813	-57.232388	89.64	-1.020	1.830	1.070	89.50	0.50	1.80	 	 	 	 	 	 	 	 	 	 	 	 	 	 	 	 	 	 	1581514374	3.63	6.72
12/02/2020 13:32:55	120220	12022020	133255	89.71	12.418818	-57.232368	89.74	-1.070	0.580	0.290	89.71	-0.40	0.90	 	 	 	 	 	 	 	 	 	 	 	 	 	 	 	 	 	 	1581514375	4.16	7.70
12/02/2020 13:32:56	120220	12022020	133256	89.48	12.418822	-57.232343	89.48	-0.260	-1.590	0.110	89.48	-2.50	0.60	 	 	 	 	 	 	 	 	 	 	 	 	 	 	 	 	 	 	1581514376	5.37	9.95
12/02/2020 13:32:57	120220	12022020	133257	89.28	12.418823	-57.232315	89.33	0.770	-2.770	0.100	89.28	-4.10	0.50	 	 	 	 	 	 	 	 	 	 	 	 	 	 	 	 	 	 	1581514377	6.16	11.41
12/02/2020 13:32:58	120220	12022020	133258	89.43	12.418825	-57.232292	89.53	1.050	-1.890	0.060	89.43	-3.70	0.50	 	 	 	 	 	 	 	 	 	 	 	 	 	 	 	 	 	 	1581514378	4.95	9.17
12/02/2020 13:32:59	120220	12022020	133259	89.79	12.418827	-57.232277	89.90	0.460	0.100	0.190	89.79	-1.80	0.60	 	 	 	 	 	 	 	 	 	 	 	 	 	 	 	 	 	 	1581514379	2.96	5.48
12/02/2020 13:33:00	120220	12022020	133300	90.16	12.418828	-57.232267	90.28	-0.330	1.550	0.670	90.16	-0.10	1.00	 	 	 	 	 	 	 	 	 	 	 	 	 	 	 	 	 	 	1581514380	2.11	3.91
12/02/2020 13:33:01	120220	12022020	133301	90.48	12.418827	-57.232253	90.60	-0.630	1.470	1.290	90.48	0.20	1.60	 	 	 	 	 	 	 	 	 	 	 	 	 	 	 	 	 	 	1581514381	2.95	5.46
12/02/2020 13:33:02	120220	12022020	133302	90.64	12.418823	-57.232232	90.73	-0.330	0.140	1.900	90.64	-0.90	2.20	1017.10	26.60	26.60	20.40	20.50	728.0	69.0	69.0	400.0	28.7	350.00	13.20	78.00	11.10	51810	9950.0	27.6	27.6	1581514382	4.53	8.39
12/02/2020 13:33:03	120220	12022020	133303	90.60	12.418820	-57.232207	90.71	0.110	-1.270	2.480	90.60	-3.00	3.10	 	 	 	 	 	 	 	 	 	 	 	 	 	 	 	 	 	 	1581514383	5.60	10.37
12/02/2020 13:33:04	120220	12022020	133304	90.74	12.418817	-57.232182	90.92	0.220	-1.540	2.770	90.74	-3.00	3.20	 	 	 	 	 	 	 	 	 	 	 	 	 	 	 	 	 	 	1581514384	5.34	9.89
12/02/2020 13:33:05	120220	12022020	133305	91.26	12.418817	-57.232163	91.49	-0.020	-0.390	2.520	91.26	-2.10	3.10	 	 	 	 	 	 	 	 	 	 	 	 	 	 	 	 	 	 	1581514385	3.83	7.09
12/02/2020 13:33:06	120220	12022020	133306	91.87	12.418817	-57.232152	92.03	-0.310	0.930	1.820	91.87	-0.70	2.40	 	 	 	 	 	 	 	 	 	 	 	 	 	 	 	 	 	 	1581514386	2.41	4.46
12/02/2020 13:33:07	120220	12022020	133307	92.06	12.418820	-57.232138	92.13	-0.280	1.000	1.120	92.06	-0.30	1.70	 	 	 	 	 	 	 	 	 	 	 	 	 	 	 	 	 	 	1581514387	2.69	4.98
12/02/2020 13:33:08	120220	12022020	133308	91.82	12.418823	-57.232120	91.84	0.080	-0.130	0.690	91.82	-1.20	1.20	 	 	 	 	 	 	 	 	 	 	 	 	 	 	 	 	 	 	1581514388	4.17	7.72
12/02/2020 13:33:09	120220	12022020	133309	91.57	12.418827	-57.232095	91.63	0.500	-1.310	0.290	91.57	-2.50	0.90	 	 	 	 	 	 	 	 	 	 	 	 	 	 	 	 	 	 	1581514389	5.21	9.65
12/02/2020 13:33:10	120220	12022020	133310	91.70	12.418830	-57.232072	91.78	0.610	-1.500	-0.310	91.70	-3.00	0.30	 	 	 	 	 	 	 	 	 	 	 	 	 	 	 	 	 	 	1581514390	5.09	9.43
12/02/2020 13:33:11	120220	12022020	133311	92.09	12.418835	-57.232053	92.16	0.280	-0.650	-0.730	92.09	-2.30	-0.20	 	 	 	 	 	 	 	 	 	 	 	 	 	 	 	 	 	 	1581514391	4.07	7.54
12/02/2020 13:33:12	120220	12022020	133312	92.40	12.418835	-57.232038	92.42	-0.260	0.400	-0.380	92.40	-1.20	-0.10	 	 	 	 	 	 	 	 	 	 	 	 	 	 	 	 	 	 	1581514392	3.06	5.67
12/02/2020 13:33:13	120220	12022020	133313	92.42	12.418832	-57.232025	92.43	-0.650	0.950	0.580	92.42	-0.50	0.80	 	 	 	 	 	 	 	 	 	 	 	 	 	 	 	 	 	 	1581514393	3.11	5.76
12/02/2020 13:33:14	120220	12022020	133314	92.26	12.418825	-57.232008	92.28	-0.690	0.810	1.540	92.26	-0.50	1.80	 	 	 	 	 	 	 	 	 	 	 	 	 	 	 	 	 	 	1581514394	3.77	6.98
12/02/2020 13:33:15	120220	12022020	133315	92.04	12.418818	-57.231988	92.07	-0.390	0.020	2.210	92.04	-1.80	2.80	 	 	 	 	 	 	 	 	 	 	 	 	 	 	 	 	 	 	1581514395	4.24	7.85
12/02/2020 13:33:16	120220	12022020	133316	91.77	12.418815	-57.231967	91.83	0.110	-0.970	2.680	91.77	-2.20	3.00	 	 	 	 	 	 	 	 	 	 	 	 	 	 	 	 	 	 	1581514396	4.69	8.69
12/02/2020 13:33:17	120220	12022020	133317	91.70	12.418813	-57.231945	91.79	0.590	-1.470	2.770	91.70	-2.80	3.10	 	 	 	 	 	 	 	 	 	 	 	 	 	 	 	 	 	 	1581514397	4.77	8.83
12/02/2020 13:33:18	120220	12022020	133318	91.86	12.418813	-57.231923	91.96	0.760	-1.130	2.330	91.86	-2.70	2.90	 	 	 	 	 	 	 	 	 	 	 	 	 	 	 	 	 	 	1581514398	4.32	8.00
12/02/2020 13:33:19	120220	12022020	133319	92.05	12.418817	-57.231907	92.11	0.500	-0.220	1.690	92.05	-1.90	2.30	 	 	 	 	 	 	 	 	 	 	 	 	 	 	 	 	 	 	1581514399	3.66	6.78
12/02/2020 13:33:20	120220	12022020	133320	91.96	12.418818	-57.231892	91.96	0.050	0.630	1.400	91.96	-1.00	1.90	 	 	 	 	 	 	 	 	 	 	 	 	 	 	 	 	 	 	1581514400	3.22	5.96
12/02/2020 13:33:21	120220	12022020	133321	91.59	12.418818	-57.231877	91.57	-0.340	0.940	1.360	91.59	-0.50	1.80	 	 	 	 	 	 	 	 	 	 	 	 	 	 	 	 	 	 	1581514401	3.34	6.19
12/02/2020 13:33:22	120220	12022020	133322	91.29	12.418818	-57.231858	91.30	-0.590	0.700	1.090	91.29	-0.60	1.60	 	 	 	 	 	 	 	 	 	 	 	 	 	 	 	 	 	 	1581514402	3.76	6.96
12/02/2020 13:33:23	120220	12022020	133323	91.29	12.418820	-57.231838	91.32	-0.640	0.090	0.580	91.29	-1.20	1.20	 	 	 	 	 	 	 	 	 	 	 	 	 	 	 	 	 	 	1581514403	4.12	7.63
12/02/2020 13:33:24	120220	12022020	133324	91.38	12.418822	-57.231818	91.39	-0.390	-0.640	0.300	91.38	-1.90	0.80	 	 	 	 	 	 	 	 	 	 	 	 	 	 	 	 	 	 	1581514404	4.27	7.91
12/02/2020 13:33:25	120220	12022020	133325	91.23	12.418822	-57.231798	91.19	0.210	-1.340	0.410	91.23	-2.60	0.80	 	 	 	 	 	 	 	 	 	 	 	 	 	 	 	 	 	 	1581514405	4.39	8.13
12/02/2020 13:33:26	120220	12022020	133326	90.91	12.418822	-57.231777	90.89	0.840	-1.640	0.690	90.91	-3.00	1.00	 	 	 	 	 	 	 	 	 	 	 	 	 	 	 	 	 	 	1581514406	4.56	8.45
12/02/2020 13:33:27	120220	12022020	133327	90.74	12.418822	-57.231755	90.79	0.990	-1.090	1.200	90.74	-2.70	1.50	 	 	 	 	 	 	 	 	 	 	 	 	 	 	 	 	 	 	1581514407	4.41	8.17
12/02/2020 13:33:28	120220	12022020	133328	90.85	12.418818	-57.231738	91.02	0.450	0.350	1.730	90.91	-1.40	2.10	 	 	 	 	 	 	 	 	 	 	 	 	 	 	 	 	 	 	1581514408	3.62	6.70
12/02/2020 13:33:29	120220	12022020	133329	91.34	12.418815	-57.231727	91.46	-0.450	1.720	1.890	91.34	0.10	2.30	 	 	 	 	 	 	 	 	 	 	 	 	 	 	 	 	 	 	1581514409	2.62	4.85
12/02/2020 13:33:30	120220	12022020	133330	91.59	12.418813	-57.231715	91.65	-1.020	1.690	1.880	91.59	0.40	2.30	 	 	 	 	 	 	 	 	 	 	 	 	 	 	 	 	 	 	1581514410	2.65	4.91
12/02/2020 13:33:31	120220	12022020	133331	91.40	12.418812	-57.231695	91.43	-0.820	0.060	2.120	91.40	-0.90	2.50	 	 	 	 	 	 	 	 	 	 	 	 	 	 	 	 	 	 	1581514411	4.16	7.70
12/02/2020 13:33:32	120220	12022020	133332	91.10	12.418808	-57.231668	91.16	-0.060	-1.660	2.370	91.10	-2.70	2.80	 	 	 	 	 	 	 	 	 	 	 	 	 	 	 	 	 	 	1581514412	5.66	10.48
12/02/2020 13:33:33	120220	12022020	133333	90.97	12.418807	-57.231643	91.04	0.550	-1.890	2.250	90.97	-3.40	2.70	 	 	 	 	 	 	 	 	 	 	 	 	 	 	 	 	 	 	1581514413	5.34	9.89
12/02/2020 13:33:34	120220	12022020	133334	90.98	12.418807	-57.231625	91.05	0.590	-0.840	1.660	90.98	-2.50	2.30	 	 	 	 	 	 	 	 	 	 	 	 	 	 	 	 	 	 	1581514414	3.78	7.00
12/02/2020 13:33:35	120220	12022020	133335	91.09	12.418812	-57.231612	91.17	0.240	0.320	0.970	91.09	-1.30	1.60	 	 	 	 	 	 	 	 	 	 	 	 	 	 	 	 	 	 	1581514415	2.96	5.48
12/02/2020 13:33:36	120220	12022020	133336	91.26	12.418815	-57.231597	91.31	-0.090	0.720	0.530	91.26	-0.70	1.00	 	 	 	 	 	 	 	 	 	 	 	 	 	 	 	 	 	 	1581514416	3.14	5.82
12/02/2020 13:33:37	120220	12022020	133337	91.22	12.418817	-57.231578	91.22	-0.200	0.460	0.410	91.22	-0.90	0.90	 	 	 	 	 	 	 	 	 	 	 	 	 	 	 	 	 	 	1581514417	3.95	7.32
12/02/2020 13:33:38	120220	12022020	133338	91.04	12.418817	-57.231558	91.05	-0.210	0.080	0.380	91.04	-1.20	0.80	 	 	 	 	 	 	 	 	 	 	 	 	 	 	 	 	 	 	1581514418	4.41	8.17
12/02/2020 13:33:39	120220	12022020	133339	91.01	12.418817	-57.231537	91.03	-0.140	-0.350	0.390	91.01	-1.90	0.90	 	 	 	 	 	 	 	 	 	 	 	 	 	 	 	 	 	 	1581514419	4.35	8.06
12/02/2020 13:33:40	120220	12022020	133340	91.04	12.418817	-57.231517	91.06	0.150	-0.900	0.660	91.04	-2.10	1.00	 	 	 	 	 	 	 	 	 	 	 	 	 	 	 	 	 	 	1581514420	4.43	8.20
12/02/2020 13:33:41	120220	12022020	133341	91.01	12.418815	-57.231493	91.04	0.530	-1.220	1.160	91.01	-2.50	1.80	 	 	 	 	 	 	 	 	 	 	 	 	 	 	 	 	 	 	1581514421	4.79	8.87
12/02/2020 13:33:42	120220	12022020	133342	91.01	12.418813	-57.231472	91.07	0.570	-0.640	1.630	91.01	-2.20	1.90	 	 	 	 	 	 	 	 	 	 	 	 	 	 	 	 	 	 	1581514422	4.61	8.54
12/02/2020 13:33:43	120220	12022020	133343	91.10	12.418810	-57.231455	91.20	0.110	0.490	2.020	91.10	-1.20	2.30	 	 	 	 	 	 	 	 	 	 	 	 	 	 	 	 	 	 	1581514423	3.61	6.69
12/02/2020 13:33:44	120220	12022020	133344	91.28	12.418807	-57.231442	91.40	-0.490	1.070	2.300	91.28	-0.40	2.70	 	 	 	 	 	 	 	 	 	 	 	 	 	 	 	 	 	 	1581514424	3.08	5.70
12/02/2020 13:33:45	120220	12022020	133345	91.44	12.418805	-57.231423	91.55	-0.700	0.570	2.320	91.44	-0.60	2.70	 	 	 	 	 	 	 	 	 	 	 	 	 	 	 	 	 	 	1581514425	3.79	7.02
12/02/2020 13:33:46	120220	12022020	133346	91.36	12.418803	-57.231400	91.42	-0.440	-0.380	2.200	91.36	-1.50	2.60	 	 	 	 	 	 	 	 	 	 	 	 	 	 	 	 	 	 	1581514426	4.85	8.98
12/02/2020 13:33:47	120220	12022020	133347	91.06	12.418802	-57.231377	91.12	-0.030	-0.850	1.980	91.06	-2.20	2.50	 	 	 	 	 	 	 	 	 	 	 	 	 	 	 	 	 	 	1581514427	5.10	9.45
12/02/2020 13:33:48	120220	12022020	133348	90.92	12.418802	-57.231355	91.00	0.170	-0.560	1.500	90.92	-2.10	2.10	 	 	 	 	 	 	 	 	 	 	 	 	 	 	 	 	 	 	1581514428	4.42	8.19
12/02/2020 13:33:49	120220	12022020	133349	91.00	12.418805	-57.231338	91.08	0.150	-0.140	0.770	91.00	-1.60	1.40	 	 	 	 	 	 	 	 	 	 	 	 	 	 	 	 	 	 	1581514429	3.73	6.91
12/02/2020 13:33:50	120220	12022020	133350	91.12	12.418810	-57.231320	91.15	0.170	-0.270	-0.010	91.12	-1.60	0.60	 	 	 	 	 	 	 	 	 	 	 	 	 	 	 	 	 	 	1581514430	3.95	7.32
12/02/2020 13:33:51	120220	12022020	133351	90.99	12.418813	-57.231298	90.98	0.420	-0.790	-0.230	90.99	-2.10	0.20	 	 	 	 	 	 	 	 	 	 	 	 	 	 	 	 	 	 	1581514431	4.68	8.67
12/02/2020 13:33:52	120220	12022020	133352	90.73	12.418813	-57.231273	90.73	0.630	-0.950	0.070	90.73	-2.40	0.40	 	 	 	 	 	 	 	 	 	 	 	 	 	 	 	 	 	 	1581514432	5.14	9.52
12/02/2020 13:33:53	120220	12022020	133353	90.69	12.418813	-57.231252	90.73	0.410	-0.370	0.530	90.69	-1.40	1.20	 	 	 	 	 	 	 	 	 	 	 	 	 	 	 	 	 	 	1581514433	4.75	8.80
12/02/2020 13:33:54	120220	12022020	133354	90.82	12.418810	-57.231233	90.88	-0.200	0.550	1.110	90.82	-1.00	1.40	 	 	 	 	 	 	 	 	 	 	 	 	 	 	 	 	 	 	1581514434	4.00	7.41
12/02/2020 13:33:55	120220	12022020	133355	90.84	12.418805	-57.231217	90.88	-0.800	1.200	1.960	90.84	-0.30	2.10	 	 	 	 	 	 	 	 	 	 	 	 	 	 	 	 	 	 	1581514435	3.72	6.89
12/02/2020 13:33:56	120220	12022020	133356	90.70	12.418798	-57.231198	90.78	-0.970	1.140	2.720	90.70	-0.10	3.00	 	 	 	 	 	 	 	 	 	 	 	 	 	 	 	 	 	 	1581514436	4.04	7.48
12/02/2020 13:33:57	120220	12022020	133357	90.82	12.418793	-57.231178	90.97	-0.570	0.150	2.760	90.82	-0.90	3.20	 	 	 	 	 	 	 	 	 	 	 	 	 	 	 	 	 	 	1581514437	4.55	8.43
12/02/2020 13:33:58	120220	12022020	133358	91.12	12.418792	-57.231153	91.23	0.150	-1.250	2.370	91.12	-2.30	2.90	 	 	 	 	 	 	 	 	 	 	 	 	 	 	 	 	 	 	1581514438	5.29	9.80
12/02/2020 13:33:59	120220	12022020	133359	90.95	12.418792	-57.231127	90.97	0.750	-2.030	2.080	90.95	-3.30	2.50	 	 	 	 	 	 	 	 	 	 	 	 	 	 	 	 	 	 	1581514439	5.64	10.45
12/02/2020 13:34:00	120220	12022020	133400	90.37	12.418795	-57.231102	90.38	0.910	-1.450	1.850	90.37	-3.10	2.30	 	 	 	 	 	 	 	 	 	 	 	 	 	 	 	 	 	 	1581514440	5.05	9.35
12/02/2020 13:34:01	120220	12022020	133401	90.00	12.418798	-57.231085	90.04	0.530	0.070	1.410	90.00	-1.70	2.00	 	 	 	 	 	 	 	 	 	 	 	 	 	 	 	 	 	 	1581514441	3.85	7.13
12/02/2020 13:34:02	120220	12022020	133402	89.94	12.418803	-57.231070	90.00	-0.130	1.140	0.840	89.94	-0.40	1.40	1017.20	26.50	26.60	20.50	20.50	742.0	69.0	69.0	401.0	28.7	346.00	13.60	74.00	11.50	52161	10139.0	27.6	27.5	1581514442	3.25	6.02
12/02/2020 13:34:03	120220	12022020	133403	90.20	12.418807	-57.231052	90.28	-0.640	0.940	0.150	90.20	-0.30	0.70	 	 	 	 	 	 	 	 	 	 	 	 	 	 	 	 	 	 	1581514443	3.91	7.24
12/02/2020 13:34:04	120220	12022020	133404	90.57	12.418808	-57.231028	90.62	-0.730	-0.060	-0.200	90.57	-1.20	0.20	 	 	 	 	 	 	 	 	 	 	 	 	 	 	 	 	 	 	1581514444	5.10	9.45
12/02/2020 13:34:05	120220	12022020	133405	90.60	12.418807	-57.231002	90.60	-0.410	-0.930	0.210	90.60	-2.50	0.90	 	 	 	 	 	 	 	 	 	 	 	 	 	 	 	 	 	 	1581514445	5.66	10.48
12/02/2020 13:34:06	120220	12022020	133406	90.29	12.418800	-57.230975	90.27	0.090	-1.200	1.040	90.29	-2.60	1.20	 	 	 	 	 	 	 	 	 	 	 	 	 	 	 	 	 	 	1581514446	5.54	10.26
12/02/2020 13:34:07	120220	12022020	133407	89.92	12.418793	-57.230953	89.93	0.520	-0.770	1.750	89.92	-1.80	2.30	 	 	 	 	 	 	 	 	 	 	 	 	 	 	 	 	 	 	1581514447	5.04	9.33
12/02/2020 13:34:08	120220	12022020	133408	89.68	12.418792	-57.230932	89.72	0.560	0.200	2.040	89.68	-1.40	2.40	 	 	 	 	 	 	 	 	 	 	 	 	 	 	 	 	 	 	1581514448	4.30	7.96
12/02/2020 13:34:09	120220	12022020	133409	89.63	12.418792	-57.230915	89.70	0.190	0.970	1.740	89.63	-0.50	2.30	 	 	 	 	 	 	 	 	 	 	 	 	 	 	 	 	 	 	1581514449	3.77	6.98
12/02/2020 13:34:10	120220	12022020	133410	89.81	12.418798	-57.230895	89.91	-0.330	0.930	1.150	89.81	-0.40	1.70	 	 	 	 	 	 	 	 	 	 	 	 	 	 	 	 	 	 	1581514450	4.21	7.80
12/02/2020 13:34:11	120220	12022020	133411	90.19	12.418802	-57.230873	90.29	-0.670	0.270	0.900	90.19	-0.90	1.30	 	 	 	 	 	 	 	 	 	 	 	 	 	 	 	 	 	 	1581514451	4.81	8.91
12/02/2020 13:34:12	120220	12022020	133412	90.45	12.418802	-57.230850	90.50	-0.530	-0.650	1.080	90.45	-1.80	1.40	 	 	 	 	 	 	 	 	 	 	 	 	 	 	 	 	 	 	1581514452	5.05	9.35
12/02/2020 13:34:13	120220	12022020	133413	90.32	12.418798	-57.230823	90.37	0.140	-1.610	1.550	90.32	-2.80	1.80	 	 	 	 	 	 	 	 	 	 	 	 	 	 	 	 	 	 	1581514453	5.46	10.11
12/02/2020 13:34:14	120220	12022020	133414	90.13	12.418795	-57.230797	90.19	0.810	-1.770	2.000	90.13	-3.20	2.30	 	 	 	 	 	 	 	 	 	 	 	 	 	 	 	 	 	 	1581514454	5.70	10.56
12/02/2020 13:34:15	120220	12022020	133415	90.04	12.418792	-57.230773	90.14	0.870	-0.940	2.370	90.04	-2.60	2.70	 	 	 	 	 	 	 	 	 	 	 	 	 	 	 	 	 	 	1581514455	5.00	9.26
12/02/2020 13:34:16	120220	12022020	133416	89.99	12.418790	-57.230753	90.10	0.340	0.230	2.530	89.99	-1.40	2.90	 	 	 	 	 	 	 	 	 	 	 	 	 	 	 	 	 	 	1581514456	4.20	7.78
12/02/2020 13:34:17	120220	12022020	133417	89.92	12.418788	-57.230735	90.01	-0.290	1.050	2.260	89.92	-0.50	2.80	 	 	 	 	 	 	 	 	 	 	 	 	 	 	 	 	 	 	1581514457	4.02	7.45
12/02/2020 13:34:18	120220	12022020	133418	89.97	12.418792	-57.230713	90.07	-0.630	1.170	1.580	89.97	-0.20	2.20	 	 	 	 	 	 	 	 	 	 	 	 	 	 	 	 	 	 	1581514458	4.46	8.26
12/02/2020 13:34:19	120220	12022020	133419	90.19	12.418797	-57.230690	90.28	-0.560	0.490	0.730	90.19	-0.70	1.40	 	 	 	 	 	 	 	 	 	 	 	 	 	 	 	 	 	 	1581514459	5.12	9.48
12/02/2020 13:34:20	120220	12022020	133420	90.45	12.418802	-57.230663	90.52	-0.220	-0.580	0.060	90.45	-1.70	0.60	 	 	 	 	 	 	 	 	 	 	 	 	 	 	 	 	 	 	1581514460	5.79	10.72
12/02/2020 13:34:21	120220	12022020	133421	90.58	12.418803	-57.230635	90.64	0.080	-1.120	-0.080	90.58	-2.50	0.30	 	 	 	 	 	 	 	 	 	 	 	 	 	 	 	 	 	 	1581514461	5.95	11.02
12/02/2020 13:34:22	120220	12022020	133422	90.69	12.418802	-57.230610	90.75	0.140	-0.640	0.070	90.69	-2.20	0.40	 	 	 	 	 	 	 	 	 	 	 	 	 	 	 	 	 	 	1581514462	5.20	9.63
12/02/2020 13:34:23	120220	12022020	133423	90.87	12.418802	-57.230592	90.92	-0.010	0.120	0.240	90.87	-1.40	0.60	 	 	 	 	 	 	 	 	 	 	 	 	 	 	 	 	 	 	1581514463	4.19	7.76
12/02/2020 13:34:24	120220	12022020	133424	90.83	12.418800	-57.230570	90.84	-0.060	0.100	0.790	90.83	-1.20	1.00	 	 	 	 	 	 	 	 	 	 	 	 	 	 	 	 	 	 	1581514464	4.26	7.89
12/02/2020 13:34:25	120220	12022020	133425	90.49	12.418795	-57.230545	90.51	0.140	-0.610	1.550	90.49	-1.80	1.80	 	 	 	 	 	 	 	 	 	 	 	 	 	 	 	 	 	 	1581514465	5.45	10.09
12/02/2020 13:34:26	120220	12022020	133426	90.17	12.418792	-57.230517	90.21	0.410	-1.150	2.040	90.17	-2.50	2.40	 	 	 	 	 	 	 	 	 	 	 	 	 	 	 	 	 	 	1581514466	6.18	11.45
12/02/2020 13:34:27	120220	12022020	133427	89.92	12.418790	-57.230488	89.98	0.470	-0.760	2.120	89.92	-2.30	2.50	 	 	 	 	 	 	 	 	 	 	 	 	 	 	 	 	 	 	1581514467	5.91	10.95
12/02/2020 13:34:28	120220	12022020	133428	89.90	12.418790	-57.230465	90.01	0.090	0.510	1.890	89.90	-1.20	2.40	 	 	 	 	 	 	 	 	 	 	 	 	 	 	 	 	 	 	1581514468	4.84	8.96
12/02/2020 13:34:29	120220	12022020	133429	90.18	12.418793	-57.230447	90.30	-0.570	1.500	1.380	90.18	0.10	1.60	 	 	 	 	 	 	 	 	 	 	 	 	 	 	 	 	 	 	1581514469	3.94	7.30
12/02/2020 13:34:30	120220	12022020	133430	90.49	12.418795	-57.230427	90.56	-0.960	1.110	0.900	90.49	-0.00	1.40	 	 	 	 	 	 	 	 	 	 	 	 	 	 	 	 	 	 	1581514470	4.33	8.02
12/02/2020 13:34:31	120220	12022020	133431	90.53	12.418793	-57.230400	90.57	-0.580	-0.520	0.920	90.53	-1.50	1.30	 	 	 	 	 	 	 	 	 	 	 	 	 	 	 	 	 	 	1581514471	5.82	10.78
12/02/2020 13:34:32	120220	12022020	133432	90.40	12.418792	-57.230367	90.43	0.400	-2.060	1.120	90.40	-3.10	1.50	 	 	 	 	 	 	 	 	 	 	 	 	 	 	 	 	 	 	1581514472	7.01	12.98
12/02/2020 13:34:33	120220	12022020	133433	90.19	12.418788	-57.230333	90.20	1.180	-2.240	1.270	90.19	-3.70	1.70	 	 	 	 	 	 	 	 	 	 	 	 	 	 	 	 	 	 	1581514473	6.89	12.76
12/02/2020 13:34:34	120220	12022020	133434	89.93	12.418788	-57.230308	89.96	1.040	-0.760	1.400	89.93	-2.60	1.80	 	 	 	 	 	 	 	 	 	 	 	 	 	 	 	 	 	 	1581514474	5.48	10.15
12/02/2020 13:34:35	120220	12022020	133435	89.86	12.418792	-57.230290	89.93	0.070	1.280	1.370	89.86	-0.60	1.80	 	 	 	 	 	 	 	 	 	 	 	 	 	 	 	 	 	 	1581514475	3.94	7.30
12/02/2020 13:34:36	120220	12022020	133436	90.23	12.418793	-57.230273	90.34	-0.990	2.330	1.000	90.23	0.80	1.50	 	 	 	 	 	 	 	 	 	 	 	 	 	 	 	 	 	 	1581514476	3.53	6.54
12/02/2020 13:34:37	120220	12022020	133437	90.80	12.418795	-57.230252	90.88	-1.340	1.590	0.520	90.80	0.50	1.00	 	 	 	 	 	 	 	 	 	 	 	 	 	 	 	 	 	 	1581514477	4.53	8.39
12/02/2020 13:34:38	120220	12022020	133438	91.10	12.418793	-57.230222	91.13	-0.680	-0.540	0.500	91.10	-1.40	0.90	 	 	 	 	 	 	 	 	 	 	 	 	 	 	 	 	 	 	1581514478	6.25	11.58
12/02/2020 13:34:39	120220	12022020	133439	90.89	12.418790	-57.230187	90.87	0.390	-2.290	1.040	90.89	-3.40	1.30	 	 	 	 	 	 	 	 	 	 	 	 	 	 	 	 	 	 	1581514479	7.54	13.96
12/02/2020 13:34:40	120220	12022020	133440	90.56	12.418785	-57.230155	90.58	0.850	-2.060	1.450	90.56	-3.70	1.80	 	 	 	 	 	 	 	 	 	 	 	 	 	 	 	 	 	 	1581514480	6.80	12.59
12/02/2020 13:34:41	120220	12022020	133441	90.51	12.418785	-57.230132	90.57	0.370	-0.460	1.420	90.51	-2.30	1.90	 	 	 	 	 	 	 	 	 	 	 	 	 	 	 	 	 	 	1581514481	4.73	8.76
12/02/2020 13:34:42	120220	12022020	133442	90.62	12.418785	-57.230115	90.66	-0.280	0.750	1.200	90.62	-0.80	1.70	 	 	 	 	 	 	 	 	 	 	 	 	 	 	 	 	 	 	1581514482	3.77	6.98
12/02/2020 13:34:43	120220	12022020	133443	90.54	12.418785	-57.230092	90.54	-0.190	0.530	1.140	90.54	-1.20	1.50	 	 	 	 	 	 	 	 	 	 	 	 	 	 	 	 	 	 	1581514483	4.70	8.70
12/02/2020 13:34:44	120220	12022020	133444	90.30	12.418785	-57.230062	90.33	0.470	-0.370	1.060	90.30	-1.60	1.50	 	 	 	 	 	 	 	 	 	 	 	 	 	 	 	 	 	 	1581514484	6.43	11.91
12/02/2020 13:34:45	120220	12022020	133445	90.41	12.418788	-57.230028	90.49	0.790	-0.610	0.850	90.41	-2.00	1.30	 	 	 	 	 	 	 	 	 	 	 	 	 	 	 	 	 	 	1581514485	6.90	12.78
12/02/2020 13:34:46	120220	12022020	133446	90.76	12.418790	-57.230002	90.86	0.250	0.160	0.860	90.76	-1.50	1.20	 	 	 	 	 	 	 	 	 	 	 	 	 	 	 	 	 	 	1581514486	5.80	10.74
12/02/2020 13:34:47	120220	12022020	133447	90.92	12.418787	-57.229980	90.98	-0.670	1.100	1.330	90.92	-0.50	1.60	 	 	 	 	 	 	 	 	 	 	 	 	 	 	 	 	 	 	1581514487	4.55	8.43
12/02/2020 13:34:48	120220	12022020	133448	90.74	12.418783	-57.229960	90.78	-1.120	1.140	1.980	90.74	-0.10	2.30	 	 	 	 	 	 	 	 	 	 	 	 	 	 	 	 	 	 	1581514488	4.49	8.32
12/02/2020 13:34:49	120220	12022020	133449	90.54	12.418778	-57.229933	90.62	-0.660	-0.180	2.290	90.54	-1.20	2.70	 	 	 	 	 	 	 	 	 	 	 	 	 	 	 	 	 	 	1581514489	5.61	10.39
12/02/2020 13:34:50	120220	12022020	133450	90.34	12.418775	-57.229900	90.40	0.240	-1.800	2.360	90.34	-2.80	2.80	 	 	 	 	 	 	 	 	 	 	 	 	 	 	 	 	 	 	1581514490	6.99	12.95
12/02/2020 13:34:51	120220	12022020	133451	90.13	12.418775	-57.229867	90.21	0.860	-2.350	2.220	90.13	-3.70	2.70	 	 	 	 	 	 	 	 	 	 	 	 	 	 	 	 	 	 	1581514491	7.16	13.26
12/02/2020 13:34:52	120220	12022020	133452	90.12	12.418775	-57.229838	90.22	0.890	-1.370	1.850	90.12	-3.10	2.40	 	 	 	 	 	 	 	 	 	 	 	 	 	 	 	 	 	 	1581514492	6.09	11.28
12/02/2020 13:34:53	120220	12022020	133453	90.17	12.418778	-57.229815	90.24	0.490	0.350	1.440	90.17	-1.50	2.00	 	 	 	 	 	 	 	 	 	 	 	 	 	 	 	 	 	 	1581514493	4.80	8.89
12/02/2020 13:34:54	120220	12022020	133454	90.09	12.418780	-57.229795	90.12	-0.080	1.580	1.150	90.09	-0.00	1.60	 	 	 	 	 	 	 	 	 	 	 	 	 	 	 	 	 	 	1581514494	4.37	8.09
12/02/2020 13:34:55	120220	12022020	133455	89.96	12.418780	-57.229772	89.98	-0.540	1.610	0.850	89.96	-0.10	1.10	 	 	 	 	 	 	 	 	 	 	 	 	 	 	 	 	 	 	1581514495	4.95	9.17
12/02/2020 13:34:56	120220	12022020	133456	89.91	12.418782	-57.229743	89.92	-0.570	0.540	0.510	89.90	-0.50	1.00	 	 	 	 	 	 	 	 	 	 	 	 	 	 	 	 	 	 	1581514496	6.07	11.24
12/02/2020 13:34:57	120220	12022020	133457	89.85	12.418783	-57.229710	89.86	-0.220	-0.780	0.430	89.85	-2.60	0.90	 	 	 	 	 	 	 	 	 	 	 	 	 	 	 	 	 	 	1581514497	6.90	12.78
12/02/2020 13:34:58	120220	12022020	133458	89.83	12.418785	-57.229677	89.87	0.220	-1.640	0.630	89.84	-2.90	1.00	 	 	 	 	 	 	 	 	 	 	 	 	 	 	 	 	 	 	1581514498	6.96	12.89
12/02/2020 13:34:59	120220	12022020	133459	89.93	12.418785	-57.229647	89.98	0.530	-1.720	1.010	89.93	-3.20	1.30	 	 	 	 	 	 	 	 	 	 	 	 	 	 	 	 	 	 	1581514499	6.56	12.15
12/02/2020 13:35:00	120220	12022020	133500	89.97	12.418782	-57.229618	90.01	0.580	-0.930	1.620	89.97	-2.60	1.90	 	 	 	 	 	 	 	 	 	 	 	 	 	 	 	 	 	 	1581514500	5.99	11.09
12/02/2020 13:35:01	120220	12022020	133501	89.99	12.418778	-57.229593	90.06	0.290	0.340	2.180	89.99	-1.40	2.50	 	 	 	 	 	 	 	 	 	 	 	 	 	 	 	 	 	 	1581514501	5.40	10.00
12/02/2020 13:35:02	120220	12022020	133502	90.04	12.418775	-57.229570	90.11	-0.230	1.340	2.450	90.04	-0.20	2.80	1017.20	26.50	26.50	20.60	20.60	427.0	70.0	70.0	403.0	28.6	345.00	14.00	72.00	11.40	37363	9134.0	27.6	27.5	1581514502	4.97	9.20
12/02/2020 13:35:03	120220	12022020	133503	89.98	12.418773	-57.229545	90.03	-0.590	1.290	2.420	89.98	0.00	2.90	 	 	 	 	 	 	 	 	 	 	 	 	 	 	 	 	 	 	1581514503	5.23	9.69
12/02/2020 13:35:04	120220	12022020	133504	89.92	12.418773	-57.229515	89.99	-0.470	0.180	2.050	89.92	-0.90	2.60	 	 	 	 	 	 	 	 	 	 	 	 	 	 	 	 	 	 	1581514504	6.31	11.69
12/02/2020 13:35:05	120220	12022020	133505	89.92	12.418775	-57.229480	89.98	-0.030	-1.090	1.580	89.92	-2.20	2.10	 	 	 	 	 	 	 	 	 	 	 	 	 	 	 	 	 	 	1581514505	7.22	13.37
12/02/2020 13:35:06	120220	12022020	133506	89.79	12.418778	-57.229447	89.75	0.390	-1.630	1.060	89.73	-3.00	1.60	 	 	 	 	 	 	 	 	 	 	 	 	 	 	 	 	 	 	1581514506	7.20	13.33
12/02/2020 13:35:07	120220	12022020	133507	89.44	12.418783	-57.229417	89.47	0.490	-1.230	0.600	89.44	-2.80	1.10	 	 	 	 	 	 	 	 	 	 	 	 	 	 	 	 	 	 	1581514507	6.56	12.15
12/02/2020 13:35:08	120220	12022020	133508	89.39	12.418787	-57.229388	89.50	0.250	-0.340	0.410	89.42	-2.00	0.90	 	 	 	 	 	 	 	 	 	 	 	 	 	 	 	 	 	 	1581514508	5.77	10.69
12/02/2020 13:35:09	120220	12022020	133509	89.79	12.418788	-57.229363	89.91	-0.010	0.270	0.320	89.79	-1.20	0.80	 	 	 	 	 	 	 	 	 	 	 	 	 	 	 	 	 	 	1581514509	5.51	10.20
12/02/2020 13:35:10	120220	12022020	133510	90.23	12.418787	-57.229333	90.32	-0.130	0.330	0.410	90.23	-1.10	0.80	 	 	 	 	 	 	 	 	 	 	 	 	 	 	 	 	 	 	1581514510	6.11	11.32
12/02/2020 13:35:11	120220	12022020	133511	90.29	12.418783	-57.229303	90.31	-0.190	0.210	0.970	90.29	-1.20	1.20	 	 	 	 	 	 	 	 	 	 	 	 	 	 	 	 	 	 	1581514511	6.66	12.33
12/02/2020 13:35:12	120220	12022020	133512	89.89	12.418778	-57.229272	89.87	-0.180	0.200	1.870	89.89	-1.20	2.10	 	 	 	 	 	 	 	 	 	 	 	 	 	 	 	 	 	 	1581514512	6.70	12.41
12/02/2020 13:35:13	120220	12022020	133513	89.39	12.418775	-57.229242	89.42	-0.100	0.330	2.470	89.39	-1.10	2.80	 	 	 	 	 	 	 	 	 	 	 	 	 	 	 	 	 	 	1581514513	6.40	11.85
12/02/2020 13:35:14	120220	12022020	133514	89.36	12.418777	-57.229212	89.47	-0.080	0.240	2.210	89.36	-1.10	2.80	 	 	 	 	 	 	 	 	 	 	 	 	 	 	 	 	 	 	1581514514	6.19	11.46
12/02/2020 13:35:15	120220	12022020	133515	89.69	12.418782	-57.229182	89.80	-0.100	-0.350	1.540	89.69	-1.50	2.10	 	 	 	 	 	 	 	 	 	 	 	 	 	 	 	 	 	 	1581514515	6.47	11.98
12/02/2020 13:35:16	120220	12022020	133516	89.92	12.418785	-57.229150	89.99	0.030	-1.170	1.190	89.92	-2.40	1.70	 	 	 	 	 	 	 	 	 	 	 	 	 	 	 	 	 	 	1581514516	6.95	12.87
12/02/2020 13:35:17	120220	12022020	133517	89.91	12.418785	-57.229115	89.94	0.340	-1.610	1.260	89.91	-3.00	1.60	 	 	 	 	 	 	 	 	 	 	 	 	 	 	 	 	 	 	1581514517	7.26	13.45
12/02/2020 13:35:18	120220	12022020	133518	89.64	12.418783	-57.229082	89.65	0.480	-1.070	1.620	89.64	-2.70	1.90	 	 	 	 	 	 	 	 	 	 	 	 	 	 	 	 	 	 	1581514518	7.07	13.09
12/02/2020 13:35:19	120220	12022020	133519	89.35	12.418782	-57.229053	89.39	0.120	0.280	1.860	89.35	-0.60	2.30	 	 	 	 	 	 	 	 	 	 	 	 	 	 	 	 	 	 	1581514519	6.16	11.41
12/02/2020 13:35:20	120220	12022020	133520	89.30	12.418780	-57.229027	89.37	-0.420	1.210	1.660	89.30	-0.30	2.20	 	 	 	 	 	 	 	 	 	 	 	 	 	 	 	 	 	 	1581514520	5.42	10.04
12/02/2020 13:35:21	120220	12022020	133521	89.43	12.418782	-57.228998	89.50	-0.500	0.730	1.240	89.43	-1.10	1.50	 	 	 	 	 	 	 	 	 	 	 	 	 	 	 	 	 	 	1581514521	6.07	11.24
12/02/2020 13:35:22	120220	12022020	133522	89.61	12.418785	-57.228963	89.65	-0.080	-0.460	0.840	89.61	-1.60	1.40	 	 	 	 	 	 	 	 	 	 	 	 	 	 	 	 	 	 	1581514522	7.61	14.09
12/02/2020 13:35:23	120220	12022020	133523	89.79	12.418790	-57.228925	89.83	0.310	-0.960	0.560	89.79	-2.30	1.00	 	 	 	 	 	 	 	 	 	 	 	 	 	 	 	 	 	 	1581514523	7.97	14.76
12/02/2020 13:35:24	120220	12022020	133524	89.97	12.418792	-57.228892	90.01	0.270	-0.530	0.560	89.97	-2.10	0.90	 	 	 	 	 	 	 	 	 	 	 	 	 	 	 	 	 	 	1581514524	6.97	12.91
12/02/2020 13:35:25	120220	12022020	133525	90.05	12.418793	-57.228863	90.09	-0.060	0.040	1.040	90.05	-1.40	1.30	 	 	 	 	 	 	 	 	 	 	 	 	 	 	 	 	 	 	1581514525	6.12	11.33
12/02/2020 13:35:26	120220	12022020	133526	89.95	12.418790	-57.228833	89.99	-0.330	0.070	1.680	89.95	-1.30	2.00	 	 	 	 	 	 	 	 	 	 	 	 	 	 	 	 	 	 	1581514526	6.30	11.67
12/02/2020 13:35:27	120220	12022020	133527	90.00	12.418787	-57.228800	90.10	-0.350	-0.260	1.960	90.00	-1.50	2.30	 	 	 	 	 	 	 	 	 	 	 	 	 	 	 	 	 	 	1581514527	7.00	12.96
12/02/2020 13:35:28	120220	12022020	133528	90.32	12.418787	-57.228767	90.43	-0.230	-0.440	1.930	90.32	-1.80	2.40	 	 	 	 	 	 	 	 	 	 	 	 	 	 	 	 	 	 	1581514528	7.25	13.43
12/02/2020 13:35:29	120220	12022020	133529	90.63	12.418785	-57.228733	90.71	-0.050	-0.340	1.870	90.63	-1.80	2.30	 	 	 	 	 	 	 	 	 	 	 	 	 	 	 	 	 	 	1581514529	6.95	12.87
12/02/2020 13:35:30	120220	12022020	133530	90.62	12.418785	-57.228702	90.63	0.210	-0.270	1.960	90.62	-1.60	2.30	 	 	 	 	 	 	 	 	 	 	 	 	 	 	 	 	 	 	1581514530	6.76	12.52
12/02/2020 13:35:31	120220	12022020	133531	90.24	12.418785	-57.228668	90.25	0.480	-0.520	1.950	90.24	-1.80	2.40	 	 	 	 	 	 	 	 	 	 	 	 	 	 	 	 	 	 	1581514531	7.07	13.09
12/02/2020 13:35:32	120220	12022020	133532	90.09	12.418788	-57.228632	90.17	0.510	-0.680	1.500	90.09	-2.10	2.00	 	 	 	 	 	 	 	 	 	 	 	 	 	 	 	 	 	 	1581514532	7.62	14.11
12/02/2020 13:35:33	120220	12022020	133533	90.35	12.418793	-57.228597	90.45	0.140	-0.280	1.020	90.35	-1.40	1.30	 	 	 	 	 	 	 	 	 	 	 	 	 	 	 	 	 	 	1581514533	7.45	13.80
12/02/2020 13:35:34	120220	12022020	133534	90.68	12.418795	-57.228567	90.75	-0.390	0.450	0.630	90.68	-1.10	1.10	 	 	 	 	 	 	 	 	 	 	 	 	 	 	 	 	 	 	1581514534	6.64	12.30
12/02/2020 13:35:35	120220	12022020	133535	90.92	12.418795	-57.228537	90.99	-0.590	0.770	0.290	90.92	-0.60	0.80	 	 	 	 	 	 	 	 	 	 	 	 	 	 	 	 	 	 	1581514535	6.33	11.72
12/02/2020 13:35:36	120220	12022020	133536	91.07	12.418795	-57.228503	91.10	-0.310	0.180	0.230	91.07	-1.00	0.60	 	 	 	 	 	 	 	 	 	 	 	 	 	 	 	 	 	 	1581514536	6.91	12.80
12/02/2020 13:35:37	120220	12022020	133537	90.92	12.418795	-57.228467	90.92	0.040	-0.710	0.640	90.92	-1.90	0.90	 	 	 	 	 	 	 	 	 	 	 	 	 	 	 	 	 	 	1581514537	7.90	14.63
12/02/2020 13:35:38	120220	12022020	133538	90.63	12.418792	-57.228428	90.63	-0.000	-0.930	1.100	90.63	-2.30	1.40	 	 	 	 	 	 	 	 	 	 	 	 	 	 	 	 	 	 	1581514538	7.97	14.76
12/02/2020 13:35:39	120220	12022020	133539	90.35	12.418790	-57.228395	90.37	-0.240	-0.420	1.490	90.35	-1.90	1.80	 	 	 	 	 	 	 	 	 	 	 	 	 	 	 	 	 	 	1581514539	7.01	12.98
12/02/2020 13:35:40	120220	12022020	133540	90.16	12.418790	-57.228365	90.21	-0.190	-0.110	1.780	90.16	-1.50	2.10	 	 	 	 	 	 	 	 	 	 	 	 	 	 	 	 	 	 	1581514540	6.47	11.98
12/02/2020 13:35:41	120220	12022020	133541	90.14	12.418788	-57.228330	90.21	0.220	-0.400	1.880	90.14	-1.70	2.30	 	 	 	 	 	 	 	 	 	 	 	 	 	 	 	 	 	 	1581514541	7.14	13.22
12/02/2020 13:35:42	120220	12022020	133542	90.17	12.418788	-57.228293	90.26	0.450	-0.590	1.850	90.17	-2.00	2.30	 	 	 	 	 	 	 	 	 	 	 	 	 	 	 	 	 	 	1581514542	7.86	14.56
12/02/2020 13:35:43	120220	12022020	133543	90.20	12.418788	-57.228258	90.28	0.180	-0.220	1.800	90.20	-1.70	2.20	 	 	 	 	 	 	 	 	 	 	 	 	 	 	 	 	 	 	1581514543	7.54	13.96
12/02/2020 13:35:44	120220	12022020	133544	90.17	12.418787	-57.228225	90.23	-0.290	0.330	1.850	90.17	-1.20	2.20	 	 	 	 	 	 	 	 	 	 	 	 	 	 	 	 	 	 	1581514544	6.84	12.67
12/02/2020 13:35:45	120220	12022020	133545	90.03	12.418787	-57.228193	90.07	-0.380	0.290	1.910	90.03	-1.30	2.30	 	 	 	 	 	 	 	 	 	 	 	 	 	 	 	 	 	 	1581514545	6.76	12.52
12/02/2020 13:35:46	120220	12022020	133546	89.94	12.418788	-57.228158	90.02	-0.070	-0.320	1.820	89.94	-1.50	2.30	 	 	 	 	 	 	 	 	 	 	 	 	 	 	 	 	 	 	1581514546	7.61	14.09
12/02/2020 13:35:47	120220	12022020	133547	90.09	12.418790	-57.228120	90.20	0.170	-0.620	1.620	90.09	-1.90	2.00	 	 	 	 	 	 	 	 	 	 	 	 	 	 	 	 	 	 	1581514547	8.10	15.00
12/02/2020 13:35:48	120220	12022020	133548	90.35	12.418790	-57.228083	90.44	-0.000	-0.200	1.520	90.35	-1.70	1.90	 	 	 	 	 	 	 	 	 	 	 	 	 	 	 	 	 	 	1581514548	7.49	13.87
12/02/2020 13:35:49	120220	12022020	133549	90.58	12.418790	-57.228052	90.68	-0.310	0.260	1.560	90.58	-1.20	2.00	 	 	 	 	 	 	 	 	 	 	 	 	 	 	 	 	 	 	1581514549	6.69	12.39
12/02/2020 13:35:50	120220	12022020	133550	90.87	12.418790	-57.228020	90.98	-0.230	0.050	1.370	90.87	-1.20	1.90	 	 	 	 	 	 	 	 	 	 	 	 	 	 	 	 	 	 	1581514550	6.86	12.70
12/02/2020 13:35:51	120220	12022020	133551	91.18	12.418792	-57.227983	91.29	0.280	-0.670	1.050	91.18	-1.90	1.50	 	 	 	 	 	 	 	 	 	 	 	 	 	 	 	 	 	 	1581514551	7.74	14.33
12/02/2020 13:35:52	120220	12022020	133552	91.37	12.418795	-57.227943	91.45	0.640	-1.100	0.980	91.37	-2.40	1.40	 	 	 	 	 	 	 	 	 	 	 	 	 	 	 	 	 	 	1581514552	8.32	15.41
12/02/2020 13:35:53	120220	12022020	133553	91.43	12.418795	-57.227907	91.49	0.370	-0.630	1.150	91.43	-2.20	1.50	 	 	 	 	 	 	 	 	 	 	 	 	 	 	 	 	 	 	1581514553	7.81	14.46
12/02/2020 13:35:54	120220	12022020	133554	91.43	12.418793	-57.227875	91.51	-0.250	0.270	1.320	91.43	-1.30	1.70	 	 	 	 	 	 	 	 	 	 	 	 	 	 	 	 	 	 	1581514554	6.81	12.61
12/02/2020 13:35:55	120220	12022020	133555	91.41	12.418792	-57.227843	91.49	-0.530	0.510	1.390	91.41	-0.80	1.80	 	 	 	 	 	 	 	 	 	 	 	 	 	 	 	 	 	 	1581514555	6.63	12.28
12/02/2020 13:35:56	120220	12022020	133556	91.45	12.418792	-57.227808	91.54	-0.390	-0.040	1.210	91.45	-1.30	1.70	 	 	 	 	 	 	 	 	 	 	 	 	 	 	 	 	 	 	1581514556	7.59	14.06
12/02/2020 13:35:57	120220	12022020	133557	91.52	12.418793	-57.227768	91.60	-0.150	-0.580	0.900	91.52	-1.90	1.40	 	 	 	 	 	 	 	 	 	 	 	 	 	 	 	 	 	 	1581514557	8.32	15.41
12/02/2020 13:35:58	120220	12022020	133558	91.53	12.418793	-57.227730	91.61	-0.070	-0.470	0.800	91.53	-1.90	1.20	 	 	 	 	 	 	 	 	 	 	 	 	 	 	 	 	 	 	1581514558	8.04	14.89
12/02/2020 13:35:59	120220	12022020	133559	91.47	12.418792	-57.227695	91.50	-0.070	-0.150	0.950	91.44	-1.60	1.30	 	 	 	 	 	 	 	 	 	 	 	 	 	 	 	 	 	 	1581514559	7.31	13.54
12/02/2020 13:36:00	120220	12022020	133600	91.20	12.418788	-57.227662	91.24	0.100	-0.270	1.070	91.20	-1.60	1.50	 	 	 	 	 	 	 	 	 	 	 	 	 	 	 	 	 	 	1581514560	7.36	13.63
12/02/2020 13:36:01	120220	12022020	133601	91.06	12.418788	-57.227623	91.12	0.370	-0.520	0.970	91.05	-1.90	1.40	 	 	 	 	 	 	 	 	 	 	 	 	 	 	 	 	 	 	1581514561	8.00	14.82
12/02/2020 13:36:02	120220	12022020	133602	91.08	12.418788	-57.227585	91.13	0.410	-0.280	0.810	91.08	-1.80	1.30	1017.20	26.50	26.60	20.30	20.40	193.0	68.0	68.0	405.0	28.3	344.00	14.90	69.00	11.50	26809	11082.0	27.5	27.5	1581514562	8.04	14.89
12/02/2020 13:36:03	120220	12022020	133603	90.90	12.418790	-57.227550	90.89	0.090	0.320	0.820	90.90	-1.20	1.20	 	 	 	 	 	 	 	 	 	 	 	 	 	 	 	 	 	 	1581514563	7.36	13.63
12/02/2020 13:36:04	120220	12022020	133604	90.45	12.418788	-57.227517	90.43	-0.370	0.520	1.050	90.45	-0.80	1.40	 	 	 	 	 	 	 	 	 	 	 	 	 	 	 	 	 	 	1581514564	7.04	13.04
12/02/2020 13:36:05	120220	12022020	133605	90.04	12.418788	-57.227482	90.06	-0.490	-0.100	1.360	90.04	-1.30	1.70	 	 	 	 	 	 	 	 	 	 	 	 	 	 	 	 	 	 	1581514565	7.57	14.02
12/02/2020 13:36:06	120220	12022020	133606	89.91	12.418787	-57.227442	89.98	-0.030	-1.020	1.570	89.91	-2.20	1.90	 	 	 	 	 	 	 	 	 	 	 	 	 	 	 	 	 	 	1581514566	8.43	15.61
12/02/2020 13:36:07	120220	12022020	133607	90.04	12.418785	-57.227400	90.15	0.520	-1.220	1.690	90.04	-2.70	2.10	 	 	 	 	 	 	 	 	 	 	 	 	 	 	 	 	 	 	1581514567	8.71	16.13
12/02/2020 13:36:08	120220	12022020	133608	90.24	12.418785	-57.227363	90.34	0.420	-0.430	1.790	90.24	-2.10	2.20	 	 	 	 	 	 	 	 	 	 	 	 	 	 	 	 	 	 	1581514568	7.80	14.45
12/02/2020 13:36:09	120220	12022020	133609	90.14	12.418783	-57.227332	90.19	-0.190	0.420	2.110	90.14	-1.10	2.40	 	 	 	 	 	 	 	 	 	 	 	 	 	 	 	 	 	 	1581514569	6.80	12.59
12/02/2020 13:36:10	120220	12022020	133610	89.75	12.418780	-57.227298	89.81	-0.530	0.340	2.680	89.75	-0.90	3.00	 	 	 	 	 	 	 	 	 	 	 	 	 	 	 	 	 	 	1581514570	7.04	13.04
12/02/2020 13:36:11	120220	12022020	133611	89.50	12.418777	-57.227258	89.60	-0.200	-0.530	2.980	89.50	-2.20	3.30	 	 	 	 	 	 	 	 	 	 	 	 	 	 	 	 	 	 	1581514571	8.29	15.35
12/02/2020 13:36:12	120220	12022020	133612	89.59	12.418777	-57.227217	89.75	0.370	-1.010	2.520	89.59	-2.40	3.10	 	 	 	 	 	 	 	 	 	 	 	 	 	 	 	 	 	 	1581514572	8.96	16.59
12/02/2020 13:36:13	120220	12022020	133613	90.02	12.418782	-57.227177	90.20	0.530	-0.500	1.630	90.02	-2.10	2.30	 	 	 	 	 	 	 	 	 	 	 	 	 	 	 	 	 	 	1581514573	8.34	15.45
12/02/2020 13:36:14	120220	12022020	133614	90.55	12.418787	-57.227143	90.71	0.140	0.460	1.010	90.55	-1.10	1.60	 	 	 	 	 	 	 	 	 	 	 	 	 	 	 	 	 	 	1581514574	7.25	13.43
12/02/2020 13:36:15	120220	12022020	133615	91.04	12.418790	-57.227112	91.16	-0.430	0.920	0.720	91.04	-0.50	1.20	 	 	 	 	 	 	 	 	 	 	 	 	 	 	 	 	 	 	1581514575	6.81	12.61
12/02/2020 13:36:16	120220	12022020	133616	91.25	12.418792	-57.227077	91.34	-0.640	0.420	0.780	91.25	-0.80	1.20	 	 	 	 	 	 	 	 	 	 	 	 	 	 	 	 	 	 	1581514576	7.37	13.65
12/02/2020 13:36:17	120220	12022020	133617	91.24	12.418790	-57.227037	91.33	-0.250	-0.710	0.930	91.24	-1.80	1.30	 	 	 	 	 	 	 	 	 	 	 	 	 	 	 	 	 	 	1581514577	8.36	15.48
12/02/2020 13:36:18	120220	12022020	133618	91.43	12.418790	-57.226995	91.57	0.440	-1.540	0.760	91.43	-2.80	1.30	 	 	 	 	 	 	 	 	 	 	 	 	 	 	 	 	 	 	1581514578	8.95	16.58
12/02/2020 13:36:19	120220	12022020	133619	91.80	12.418792	-57.226955	92.02	0.790	-1.310	0.410	91.90	-2.80	0.90	 	 	 	 	 	 	 	 	 	 	 	 	 	 	 	 	 	 	1581514579	8.57	15.87
12/02/2020 13:36:20	120220	12022020	133620	92.22	12.418793	-57.226918	92.34	0.480	-0.260	0.130	92.27	-1.90	0.60	 	 	 	 	 	 	 	 	 	 	 	 	 	 	 	 	 	 	1581514580	7.50	13.89
12/02/2020 13:36:21	120220	12022020	133621	92.30	12.418795	-57.226887	92.32	-0.200	0.620	-0.010	92.30	-0.90	0.40	 	 	 	 	 	 	 	 	 	 	 	 	 	 	 	 	 	 	1581514581	6.90	12.78
12/02/2020 13:36:22	120220	12022020	133622	92.06	12.418795	-57.226852	92.08	-0.660	0.660	0.100	92.06	-0.70	0.50	 	 	 	 	 	 	 	 	 	 	 	 	 	 	 	 	 	 	1581514582	7.22	13.37
12/02/2020 13:36:23	120220	12022020	133623	91.86	12.418793	-57.226813	91.87	-0.660	0.010	0.300	91.82	-1.60	0.80	 	 	 	 	 	 	 	 	 	 	 	 	 	 	 	 	 	 	1581514583	8.14	15.08
12/02/2020 13:36:24	120220	12022020	133624	91.63	12.418790	-57.226773	91.62	-0.380	-0.520	0.360	91.57	-1.80	0.80	 	 	 	 	 	 	 	 	 	 	 	 	 	 	 	 	 	 	1581514584	8.65	16.02
12/02/2020 13:36:25	120220	12022020	133625	91.26	12.418788	-57.226733	91.19	-0.050	-0.680	0.390	91.17	-2.00	0.80	 	 	 	 	 	 	 	 	 	 	 	 	 	 	 	 	 	 	1581514585	8.36	15.48
12/02/2020 13:36:26	120220	12022020	133626	90.74	12.418787	-57.226695	90.69	0.310	-0.710	0.410	90.65	-2.10	0.80	 	 	 	 	 	 	 	 	 	 	 	 	 	 	 	 	 	 	1581514586	8.11	15.02
12/02/2020 13:36:27	120220	12022020	133627	90.41	12.418788	-57.226657	90.44	0.630	-0.610	0.300	90.39	-2.00	0.70	 	 	 	 	 	 	 	 	 	 	 	 	 	 	 	 	 	 	1581514587	8.17	15.13
12/02/2020 13:36:28	120220	12022020	133628	90.28	12.418790	-57.226618	90.33	0.630	-0.240	0.330	90.28	-1.70	0.70	 	 	 	 	 	 	 	 	 	 	 	 	 	 	 	 	 	 	1581514588	8.14	15.08
12/02/2020 13:36:29	120220	12022020	133629	89.98	12.418790	-57.226582	89.98	0.150	0.370	0.750	89.98	-1.20	1.00	 	 	 	 	 	 	 	 	 	 	 	 	 	 	 	 	 	 	1581514589	7.74	14.33
12/02/2020 13:36:30	120220	12022020	133630	89.47	12.418787	-57.226547	89.29	-0.520	0.750	1.730	89.31	-0.70	1.90	 	 	 	 	 	 	 	 	 	 	 	 	 	 	 	 	 	 	1581514590	7.38	13.67
12/02/2020 13:36:31	120220	12022020	133631	88.74	12.418780	-57.226510	88.70	-0.740	0.380	2.810	88.63	-0.80	3.00	 	 	 	 	 	 	 	 	 	 	 	 	 	 	 	 	 	 	1581514591	7.70	14.26
12/02/2020 13:36:32	120220	12022020	133632	88.47	12.418775	-57.226470	88.61	-0.260	-0.710	3.430	88.47	-1.80	3.70	 	 	 	 	 	 	 	 	 	 	 	 	 	 	 	 	 	 	1581514592	8.51	15.76
12/02/2020 13:36:33	120220	12022020	133633	88.42	12.418772	-57.226427	88.52	0.430	-1.630	3.800	88.40	-2.90	4.10	 	 	 	 	 	 	 	 	 	 	 	 	 	 	 	 	 	 	1581514593	9.23	17.09
12/02/2020 13:36:34	120220	12022020	133634	88.24	12.418770	-57.226385	88.37	0.640	-1.330	3.950	88.24	-2.90	4.40	 	 	 	 	 	 	 	 	 	 	 	 	 	 	 	 	 	 	1581514594	8.86	16.41
12/02/2020 13:36:35	120220	12022020	133635	88.14	12.418770	-57.226350	88.28	0.260	-0.000	3.820	88.13	-0.80	4.10	 	 	 	 	 	 	 	 	 	 	 	 	 	 	 	 	 	 	1581514595	7.45	13.80
12/02/2020 13:36:36	120220	12022020	133636	88.17	12.418773	-57.226318	88.36	-0.260	1.090	3.230	88.19	-0.50	3.90	 	 	 	 	 	 	 	 	 	 	 	 	 	 	 	 	 	 	1581514596	6.55	12.13
12/02/2020 13:36:37	120220	12022020	133637	88.40	12.418780	-57.226287	88.61	-0.340	0.870	2.090	88.45	-1.00	2.00	 	 	 	 	 	 	 	 	 	 	 	 	 	 	 	 	 	 	1581514597	7.11	13.17
12/02/2020 13:36:38	120220	12022020	133638	88.76	12.418790	-57.226247	89.01	0.100	-0.490	0.810	88.85	-1.50	1.50	 	 	 	 	 	 	 	 	 	 	 	 	 	 	 	 	 	 	1581514598	8.65	16.02
12/02/2020 13:36:39	120220	12022020	133639	89.30	12.418800	-57.226202	89.59	0.620	-1.740	-0.070	89.42	-2.90	0.50	 	 	 	 	 	 	 	 	 	 	 	 	 	 	 	 	 	 	1581514599	9.66	17.89
12/02/2020 13:36:40	120220	12022020	133640	89.92	12.418805	-57.226158	90.18	0.710	-1.490	-0.370	90.04	-3.10	0.10	 	 	 	 	 	 	 	 	 	 	 	 	 	 	 	 	 	 	1581514600	9.18	17.00
12/02/2020 13:36:41	120220	12022020	133641	90.50	12.418808	-57.226123	90.75	0.140	0.400	-0.230	90.61	-1.50	0.10	 	 	 	 	 	 	 	 	 	 	 	 	 	 	 	 	 	 	1581514601	7.35	13.61
12/02/2020 13:36:42	120220	12022020	133642	91.03	12.418808	-57.226097	91.28	-0.840	1.950	0.250	91.14	0.30	0.60	 	 	 	 	 	 	 	 	 	 	 	 	 	 	 	 	 	 	1581514602	5.75	10.65
12/02/2020 13:36:43	120220	12022020	133643	91.53	12.418805	-57.226067	91.75	-1.450	1.440	0.860	91.62	0.40	1.20	 	 	 	 	 	 	 	 	 	 	 	 	 	 	 	 	 	 	1581514603	6.42	11.89
12/02/2020 13:36:44	120220	12022020	133644	91.87	12.418800	-57.226027	92.01	-1.020	-0.710	1.210	91.91	-1.50	1.60	 	 	 	 	 	 	 	 	 	 	 	 	 	 	 	 	 	 	1581514604	8.55	15.83
12/02/2020 13:36:45	120220	12022020	133645	91.92	12.418797	-57.225980	91.95	0.350	-2.490	1.370	91.89	-3.50	1.80	 	 	 	 	 	 	 	 	 	 	 	 	 	 	 	 	 	 	1581514605	9.93	18.39
12/02/2020 13:36:46	120220	12022020	133646	91.80	12.418797	-57.225935	91.95	1.570	-2.430	1.390	91.82	-4.00	1.80	 	 	 	 	 	 	 	 	 	 	 	 	 	 	 	 	 	 	1581514606	9.39	17.39
12/02/2020 13:36:47	120220	12022020	133647	92.16	12.418800	-57.225898	92.52	1.540	-0.790	1.160	92.31	-2.60	1.70	 	 	 	 	 	 	 	 	 	 	 	 	 	 	 	 	 	 	1581514607	7.72	14.30
12/02/2020 13:36:48	120220	12022020	133648	92.93	12.418803	-57.225868	93.23	0.350	1.150	0.740	93.07	-0.60	1.30	 	 	 	 	 	 	 	 	 	 	 	 	 	 	 	 	 	 	1581514608	6.31	11.69
12/02/2020 13:36:49	120220	12022020	133649	93.24	12.418803	-57.225840	93.18	-0.920	2.140	0.470	93.19	0.70	0.90	 	 	 	 	 	 	 	 	 	 	 	 	 	 	 	 	 	 	1581514609	6.01	11.13
12/02/2020 13:36:50	120220	12022020	133650	92.64	12.418802	-57.225807	92.40	-1.260	1.380	0.580	92.48	0.40	1.00	 	 	 	 	 	 	 	 	 	 	 	 	 	 	 	 	 	 	1581514610	7.00	12.96
12/02/2020 13:36:51	120220	12022020	133651	91.82	12.418800	-57.225765	91.84	-0.630	-0.590	0.540	91.82	-1.50	1.00	 	 	 	 	 	 	 	 	 	 	 	 	 	 	 	 	 	 	1581514611	8.79	16.28
12/02/2020 13:36:52	120220	12022020	133652	91.70	12.418800	-57.225720	91.75	0.120	-1.910	0.030	91.70	-3.10	0.60	 	 	 	 	 	 	 	 	 	 	 	 	 	 	 	 	 	 	1581514612	9.66	17.89
12/02/2020 13:36:53	120220	12022020	133653	91.64	12.418802	-57.225680	91.56	0.300	-1.580	-0.630	91.58	-3.20	-0.10	 	 	 	 	 	 	 	 	 	 	 	 	 	 	 	 	 	 	1581514613	8.52	15.78
12/02/2020 13:36:54	120220	12022020	133654	91.15	12.418803	-57.225647	90.92	0.080	-0.300	-0.730	91.01	-2.00	-0.30	 	 	 	 	 	 	 	 	 	 	 	 	 	 	 	 	 	 	1581514614	6.87	12.72
12/02/2020 13:36:55	120220	12022020	133655	90.47	12.418802	-57.225618	90.28	-0.020	0.450	-0.380	90.35	-1.00	-0.10	 	 	 	 	 	 	 	 	 	 	 	 	 	 	 	 	 	 	1581514615	6.33	11.72
12/02/2020 13:36:56	120220	12022020	133656	89.75	12.418798	-57.225583	89.66	0.290	0.020	0.200	89.75	-1.20	0.50	 	 	 	 	 	 	 	 	 	 	 	 	 	 	 	 	 	 	1581514616	7.41	13.72
12/02/2020 13:36:57	120220	12022020	133657	89.25	12.418795	-57.225542	89.08	0.580	-0.600	0.680	89.14	-1.90	1.00	 	 	 	 	 	 	 	 	 	 	 	 	 	 	 	 	 	 	1581514617	8.67	16.06
12/02/2020 13:36:58	120220	12022020	133658	88.80	12.418795	-57.225502	88.71	0.390	-0.410	1.250	88.73	-1.90	1.50	 	 	 	 	 	 	 	 	 	 	 	 	 	 	 	 	 	 	1581514618	8.50	15.74
12/02/2020 13:36:59	120220	12022020	133659	88.51	12.418792	-57.225467	88.45	-0.240	0.480	2.280	88.45	-0.60	3.20	 	 	 	 	 	 	 	 	 	 	 	 	 	 	 	 	 	 	1581514619	7.38	13.67
12/02/2020 13:37:00	120220	12022020	133700	88.19	12.418785	-57.225435	88.12	-0.760	0.860	3.390	88.12	-0.50	3.60	 	 	 	 	 	 	 	 	 	 	 	 	 	 	 	 	 	 	1581514620	6.83	12.65
12/02/2020 13:37:01	120220	12022020	133701	87.84	12.418780	-57.225400	87.83	-0.640	0.070	3.950	87.78	-1.10	4.30	 	 	 	 	 	 	 	 	 	 	 	 	 	 	 	 	 	 	1581514621	7.60	14.08
12/02/2020 13:37:02	120220	12022020	133702	87.54	12.418778	-57.225358	87.55	0.090	-1.230	4.330	87.50	-2.40	4.70	1017.20	26.60	26.60	20.50	20.60	364.0	69.0	69.0	408.0	28.2	348.00	15.00	75.00	11.10	34580	9653.0	27.6	27.5	1581514622	8.89	16.46
12/02/2020 13:37:03	120220	12022020	133703	87.39	12.418780	-57.225317	87.49	0.610	-1.330	4.380	87.39	-2.80	4.80	 	 	 	 	 	 	 	 	 	 	 	 	 	 	 	 	 	 	1581514623	8.81	16.32
12/02/2020 13:37:04	120220	12022020	133704	87.57	12.418782	-57.225280	87.76	0.600	-0.430	3.880	87.63	-2.10	4.50	 	 	 	 	 	 	 	 	 	 	 	 	 	 	 	 	 	 	1581514624	7.51	13.91
12/02/2020 13:37:05	120220	12022020	133705	87.91	12.418787	-57.225248	88.09	0.270	0.380	3.090	87.98	-1.10	3.70	 	 	 	 	 	 	 	 	 	 	 	 	 	 	 	 	 	 	1581514625	6.69	12.39
12/02/2020 13:37:06	120220	12022020	133706	88.26	12.418792	-57.225217	88.41	0.060	0.400	2.290	88.33	-0.90	2.90	 	 	 	 	 	 	 	 	 	 	 	 	 	 	 	 	 	 	1581514626	7.04	13.04
12/02/2020 13:37:07	120220	12022020	133707	88.63	12.418798	-57.225180	88.78	0.090	-0.180	1.310	88.72	-1.40	2.00	 	 	 	 	 	 	 	 	 	 	 	 	 	 	 	 	 	 	1581514627	7.94	14.70
12/02/2020 13:37:08	120220	12022020	133708	89.09	12.418807	-57.225140	89.27	0.270	-0.750	0.320	89.20	-2.00	1.00	 	 	 	 	 	 	 	 	 	 	 	 	 	 	 	 	 	 	1581514628	8.48	15.70
12/02/2020 13:37:09	120220	12022020	133709	89.61	12.418813	-57.225102	89.73	0.350	-0.880	-0.210	89.70	-2.30	0.30	 	 	 	 	 	 	 	 	 	 	 	 	 	 	 	 	 	 	1581514629	8.38	15.52
12/02/2020 13:37:10	120220	12022020	133710	89.98	12.418817	-57.225063	90.07	0.090	-0.420	-0.360	90.05	-1.90	0.10	 	 	 	 	 	 	 	 	 	 	 	 	 	 	 	 	 	 	1581514630	7.85	14.54
12/02/2020 13:37:11	120220	12022020	133711	90.40	12.418820	-57.225030	90.58	-0.430	0.340	-0.420	90.51	-1.20	0.00	 	 	 	 	 	 	 	 	 	 	 	 	 	 	 	 	 	 	1581514631	7.24	13.41
12/02/2020 13:37:12	120220	12022020	133712	91.08	12.418822	-57.224997	91.34	-0.830	0.820	-0.440	91.25	-0.60	0.00	 	 	 	 	 	 	 	 	 	 	 	 	 	 	 	 	 	 	1581514632	6.88	12.74
12/02/2020 13:37:13	120220	12022020	133713	91.84	12.418822	-57.224963	92.03	-0.730	0.420	-0.370	91.96	-1.40	0.20	 	 	 	 	 	 	 	 	 	 	 	 	 	 	 	 	 	 	1581514633	7.22	13.37
12/02/2020 13:37:14	120220	12022020	133714	92.29	12.418820	-57.224923	92.36	-0.210	-0.660	0.050	92.33	-1.80	0.40	 	 	 	 	 	 	 	 	 	 	 	 	 	 	 	 	 	 	1581514634	8.27	15.32
12/02/2020 13:37:15	120220	12022020	133715	92.36	12.418815	-57.224883	92.37	0.290	-1.350	0.710	92.35	-2.60	1.00	 	 	 	 	 	 	 	 	 	 	 	 	 	 	 	 	 	 	1581514635	8.85	16.39
12/02/2020 13:37:16	120220	12022020	133716	92.27	12.418812	-57.224843	92.31	0.490	-1.010	1.210	92.26	-2.50	1.50	 	 	 	 	 	 	 	 	 	 	 	 	 	 	 	 	 	 	1581514636	8.23	15.24
12/02/2020 13:37:17	120220	12022020	133717	92.29	12.418812	-57.224810	92.38	0.420	-0.210	1.250	92.30	-1.80	1.70	 	 	 	 	 	 	 	 	 	 	 	 	 	 	 	 	 	 	1581514637	7.23	13.39
12/02/2020 13:37:18	120220	12022020	133718	92.43	12.418813	-57.224777	92.49	0.250	0.220	0.710	92.43	-1.20	1.30	 	 	 	 	 	 	 	 	 	 	 	 	 	 	 	 	 	 	1581514638	7.11	13.17
12/02/2020 13:37:19	120220	12022020	133719	92.40	12.418817	-57.224740	92.34	0.220	-0.050	0.110	92.35	-1.30	0.60	 	 	 	 	 	 	 	 	 	 	 	 	 	 	 	 	 	 	1581514639	7.73	14.32
12/02/2020 13:37:20	120220	12022020	133720	91.97	12.418818	-57.224700	91.85	0.320	-0.420	0.030	91.87	-1.80	0.50	 	 	 	 	 	 	 	 	 	 	 	 	 	 	 	 	 	 	1581514640	8.49	15.72
12/02/2020 13:37:21	120220	12022020	133721	91.57	12.418818	-57.224660	91.55	0.130	-0.020	0.020	91.52	-1.60	0.50	 	 	 	 	 	 	 	 	 	 	 	 	 	 	 	 	 	 	1581514641	8.30	15.37
12/02/2020 13:37:22	120220	12022020	133722	91.44	12.418818	-57.224627	91.46	-0.390	0.660	-0.010	91.43	-0.80	0.40	 	 	 	 	 	 	 	 	 	 	 	 	 	 	 	 	 	 	1581514642	7.19	13.32
12/02/2020 13:37:23	120220	12022020	133723	91.29	12.418818	-57.224593	91.20	-0.960	0.680	0.280	91.22	-0.60	0.60	 	 	 	 	 	 	 	 	 	 	 	 	 	 	 	 	 	 	1581514643	6.84	12.67
12/02/2020 13:37:24	120220	12022020	133724	90.81	12.418815	-57.224557	90.72	-0.800	-0.470	1.070	90.71	-1.50	1.30	 	 	 	 	 	 	 	 	 	 	 	 	 	 	 	 	 	 	1581514644	7.85	14.54
12/02/2020 13:37:25	120220	12022020	133725	90.48	12.418810	-57.224515	90.58	-0.100	-1.740	1.780	90.47	-3.30	2.40	 	 	 	 	 	 	 	 	 	 	 	 	 	 	 	 	 	 	1581514645	9.11	16.87
12/02/2020 13:37:26	120220	12022020	133726	90.49	12.418803	-57.224472	90.57	0.580	-1.780	2.350	90.48	-3.30	2.60	 	 	 	 	 	 	 	 	 	 	 	 	 	 	 	 	 	 	1581514646	9.13	16.91
12/02/2020 13:37:27	120220	12022020	133727	90.25	12.418797	-57.224435	90.16	0.790	-0.530	2.750	90.15	-1.30	3.20	 	 	 	 	 	 	 	 	 	 	 	 	 	 	 	 	 	 	1581514647	7.79	14.43
12/02/2020 13:37:28	120220	12022020	133728	89.55	12.418795	-57.224403	89.45	0.590	0.680	2.820	89.42	-0.90	3.30	 	 	 	 	 	 	 	 	 	 	 	 	 	 	 	 	 	 	1581514648	6.70	12.41
12/02/2020 13:37:29	120220	12022020	133729	89.11	12.418800	-57.224370	89.25	0.150	1.010	2.230	89.12	-0.40	2.80	 	 	 	 	 	 	 	 	 	 	 	 	 	 	 	 	 	 	1581514649	7.15	13.24
12/02/2020 13:37:30	120220	12022020	133730	89.45	12.418808	-57.224333	89.76	-0.330	0.530	1.310	89.59	-0.70	2.00	 	 	 	 	 	 	 	 	 	 	 	 	 	 	 	 	 	 	1581514650	8.02	14.85
12/02/2020 13:37:31	120220	12022020	133731	90.11	12.418815	-57.224293	90.31	-0.530	-0.400	0.730	90.20	-1.50	1.20	 	 	 	 	 	 	 	 	 	 	 	 	 	 	 	 	 	 	1581514651	8.48	15.70
12/02/2020 13:37:32	120220	12022020	133732	90.40	12.418815	-57.224252	90.50	-0.340	-1.070	0.890	90.42	-2.30	1.20	 	 	 	 	 	 	 	 	 	 	 	 	 	 	 	 	 	 	1581514652	8.71	16.13
12/02/2020 13:37:33	120220	12022020	133733	90.45	12.418812	-57.224213	90.54	-0.030	-1.000	1.530	90.46	-2.40	1.80	 	 	 	 	 	 	 	 	 	 	 	 	 	 	 	 	 	 	1581514653	8.37	15.50
12/02/2020 13:37:34	120220	12022020	133734	90.52	12.418807	-57.224177	90.65	0.160	-0.390	2.190	90.55	-1.90	2.50	 	 	 	 	 	 	 	 	 	 	 	 	 	 	 	 	 	 	1581514654	7.71	14.28
12/02/2020 13:37:35	120220	12022020	133735	90.85	12.418803	-57.224142	90.97	0.150	0.270	2.280	90.85	-1.20	2.70	 	 	 	 	 	 	 	 	 	 	 	 	 	 	 	 	 	 	1581514655	7.28	13.48
12/02/2020 13:37:36	120220	12022020	133736	91.19	12.418805	-57.224108	91.42	0.030	0.450	1.800	91.28	-0.90	2.40	 	 	 	 	 	 	 	 	 	 	 	 	 	 	 	 	 	 	1581514656	7.30	13.52
12/02/2020 13:37:37	120220	12022020	133737	91.67	12.418810	-57.224070	91.91	0.010	-0.210	1.140	91.77	-1.30	1.70	 	 	 	 	 	 	 	 	 	 	 	 	 	 	 	 	 	 	1581514657	7.98	14.78
12/02/2020 13:37:38	120220	12022020	133738	92.13	12.418815	-57.224028	92.29	0.140	-0.940	0.770	92.18	-2.20	1.30	 	 	 	 	 	 	 	 	 	 	 	 	 	 	 	 	 	 	1581514658	8.82	16.33
12/02/2020 13:37:39	120220	12022020	133739	92.29	12.418815	-57.223988	92.37	0.160	-0.790	0.570	92.30	-2.30	1.10	 	 	 	 	 	 	 	 	 	 	 	 	 	 	 	 	 	 	1581514659	8.58	15.89
12/02/2020 13:37:40	120220	12022020	133740	92.41	12.418817	-57.223952	92.50	0.100	-0.210	0.190	92.41	-1.70	0.70	 	 	 	 	 	 	 	 	 	 	 	 	 	 	 	 	 	 	1581514660	7.65	14.17
12/02/2020 13:37:41	120220	12022020	133741	92.60	12.418820	-57.223917	92.75	0.140	-0.070	-0.130	92.65	-1.40	0.30	 	 	 	 	 	 	 	 	 	 	 	 	 	 	 	 	 	 	1581514661	7.57	14.02
12/02/2020 13:37:42	120220	12022020	133742	92.82	12.418820	-57.223878	92.89	0.190	-0.230	-0.210	92.84	-1.50	0.20	 	 	 	 	 	 	 	 	 	 	 	 	 	 	 	 	 	 	1581514662	8.24	15.26
12/02/2020 13:37:43	120220	12022020	133743	92.77	12.418818	-57.223838	92.79	0.040	-0.210	-0.060	92.73	-1.60	0.30	 	 	 	 	 	 	 	 	 	 	 	 	 	 	 	 	 	 	1581514663	8.44	15.63
12/02/2020 13:37:44	120220	12022020	133744	92.53	12.418817	-57.223800	92.52	-0.400	0.200	0.350	92.48	-1.30	0.70	 	 	 	 	 	 	 	 	 	 	 	 	 	 	 	 	 	 	1581514664	8.02	14.85
12/02/2020 13:37:45	120220	12022020	133745	92.38	12.418815	-57.223765	92.49	-0.740	0.470	0.620	92.40	-0.90	1.00	 	 	 	 	 	 	 	 	 	 	 	 	 	 	 	 	 	 	1581514665	7.52	13.93
12/02/2020 13:37:46	120220	12022020	133746	92.54	12.418813	-57.223728	92.70	-0.640	0.070	0.620	92.59	-1.10	1.00	 	 	 	 	 	 	 	 	 	 	 	 	 	 	 	 	 	 	1581514666	7.70	14.26
12/02/2020 13:37:47	120220	12022020	133747	92.65	12.418810	-57.223688	92.69	-0.040	-0.820	0.900	92.63	-2.00	1.20	 	 	 	 	 	 	 	 	 	 	 	 	 	 	 	 	 	 	1581514667	8.51	15.76
12/02/2020 13:37:48	120220	12022020	133748	92.38	12.418807	-57.223645	92.33	0.610	-1.440	1.590	92.29	-2.70	1.80	 	 	 	 	 	 	 	 	 	 	 	 	 	 	 	 	 	 	1581514668	9.07	16.80
12/02/2020 13:37:49	120220	12022020	133749	91.98	12.418802	-57.223603	92.02	0.800	-1.110	2.180	91.93	-2.00	2.70	 	 	 	 	 	 	 	 	 	 	 	 	 	 	 	 	 	 	1581514669	8.81	16.32
12/02/2020 13:37:50	120220	12022020	133750	91.79	12.418798	-57.223567	91.88	0.420	0.060	2.460	91.76	-1.60	2.80	 	 	 	 	 	 	 	 	 	 	 	 	 	 	 	 	 	 	1581514670	7.76	14.37
12/02/2020 13:37:51	120220	12022020	133751	91.67	12.418797	-57.223535	91.74	-0.120	0.930	2.430	91.63	-0.50	2.90	 	 	 	 	 	 	 	 	 	 	 	 	 	 	 	 	 	 	1581514671	6.94	12.85
12/02/2020 13:37:52	120220	12022020	133752	91.47	12.418798	-57.223498	91.53	-0.320	0.600	2.130	91.44	-0.60	2.60	 	 	 	 	 	 	 	 	 	 	 	 	 	 	 	 	 	 	1581514672	7.58	14.04
12/02/2020 13:37:53	120220	12022020	133753	91.38	12.418800	-57.223457	91.51	-0.160	-0.340	1.700	91.39	-1.50	2.20	 	 	 	 	 	 	 	 	 	 	 	 	 	 	 	 	 	 	1581514673	8.86	16.41
12/02/2020 13:37:54	120220	12022020	133754	91.42	12.418802	-57.223413	91.51	0.050	-0.800	1.420	91.41	-2.10	1.90	 	 	 	 	 	 	 	 	 	 	 	 	 	 	 	 	 	 	1581514674	9.17	16.98
12/02/2020 13:37:55	120220	12022020	133755	91.32	12.418802	-57.223373	91.38	0.070	-0.730	1.390	91.29	-2.10	1.80	 	 	 	 	 	 	 	 	 	 	 	 	 	 	 	 	 	 	1581514675	8.44	15.63
12/02/2020 13:37:56	120220	12022020	133756	91.21	12.418802	-57.223335	91.35	0.000	-0.630	1.430	91.22	-2.00	1.80	 	 	 	 	 	 	 	 	 	 	 	 	 	 	 	 	 	 	1581514676	8.08	14.96
12/02/2020 13:37:57	120220	12022020	133757	91.32	12.418800	-57.223297	91.45	-0.060	-0.410	1.370	91.32	-1.90	1.80	 	 	 	 	 	 	 	 	 	 	 	 	 	 	 	 	 	 	1581514677	8.29	15.35
12/02/2020 13:37:58	120220	12022020	133758	91.41	12.418798	-57.223258	91.54	-0.260	0.280	1.220	91.42	-1.30	1.60	 	 	 	 	 	 	 	 	 	 	 	 	 	 	 	 	 	 	1581514678	8.07	14.95
12/02/2020 13:37:59	120220	12022020	133759	91.43	12.418798	-57.223222	91.55	-0.470	0.750	1.230	91.42	-0.70	1.60	 	 	 	 	 	 	 	 	 	 	 	 	 	 	 	 	 	 	1581514679	7.48	13.85
12/02/2020 13:38:00	120220	12022020	133800	91.44	12.418798	-57.223185	91.57	-0.350	0.250	1.140	91.45	-1.00	1.60	 	 	 	 	 	 	 	 	 	 	 	 	 	 	 	 	 	 	1581514680	7.87	14.58
12/02/2020 13:38:01	120220	12022020	133801	91.43	12.418798	-57.223142	91.52	0.300	-1.130	1.010	91.41	-2.20	1.40	 	 	 	 	 	 	 	 	 	 	 	 	 	 	 	 	 	 	1581514681	9.11	16.87
12/02/2020 13:38:02	120220	12022020	133802	91.38	12.418800	-57.223097	91.51	0.850	-1.640	0.950	91.38	-3.00	1.40	1017.20	26.60	26.70	20.30	20.40	619.0	68.0	68.0	407.0	28.2	344.00	15.80	70.00	11.90	46993	11564.0	27.5	27.5	1581514682	9.72	18.00
12/02/2020 13:38:03	120220	12022020	133803	91.52	12.418802	-57.223055	91.70	0.710	-0.660	0.800	91.56	-2.40	1.20	 	 	 	 	 	 	 	 	 	 	 	 	 	 	 	 	 	 	1581514683	8.73	16.17
12/02/2020 13:38:04	120220	12022020	133804	91.67	12.418802	-57.223022	91.79	0.000	0.590	0.810	91.67	-0.90	1.20	 	 	 	 	 	 	 	 	 	 	 	 	 	 	 	 	 	 	1581514684	7.18	13.30
12/02/2020 13:38:05	120220	12022020	133805	91.58	12.418800	-57.222988	91.67	-0.740	1.110	1.140	91.54	-0.30	1.50	 	 	 	 	 	 	 	 	 	 	 	 	 	 	 	 	 	 	1581514685	7.04	13.04
12/02/2020 13:38:06	120220	12022020	133806	91.38	12.418797	-57.222948	91.47	-0.780	0.350	1.620	91.35	-0.80	1.90	 	 	 	 	 	 	 	 	 	 	 	 	 	 	 	 	 	 	1581514686	8.25	15.28
12/02/2020 13:38:07	120220	12022020	133807	91.23	12.418793	-57.222905	91.33	-0.300	-0.530	1.780	91.20	-1.70	2.20	 	 	 	 	 	 	 	 	 	 	 	 	 	 	 	 	 	 	1581514687	9.21	17.06
12/02/2020 13:38:08	120220	12022020	133808	91.16	12.418793	-57.222863	91.29	0.130	-0.980	1.670	91.15	-2.30	2.10	 	 	 	 	 	 	 	 	 	 	 	 	 	 	 	 	 	 	1581514688	9.06	16.78
12/02/2020 13:38:09	120220	12022020	133809	91.16	12.418793	-57.222822	91.28	0.310	-0.990	1.610	91.16	-2.40	2.00	 	 	 	 	 	 	 	 	 	 	 	 	 	 	 	 	 	 	1581514689	8.63	15.98
12/02/2020 13:38:10	120220	12022020	133810	91.14	12.418793	-57.222782	91.24	0.390	-0.800	1.620	91.13	-2.20	2.00	 	 	 	 	 	 	 	 	 	 	 	 	 	 	 	 	 	 	1581514690	8.37	15.50
12/02/2020 13:38:11	120220	12022020	133811	91.07	12.418793	-57.222743	91.16	0.410	-0.510	1.590	91.05	-1.90	2.00	 	 	 	 	 	 	 	 	 	 	 	 	 	 	 	 	 	 	1581514691	8.39	15.54
12/02/2020 13:38:12	120220	12022020	133812	90.93	12.418793	-57.222703	91.02	0.210	-0.090	1.630	90.90	-1.50	2.00	 	 	 	 	 	 	 	 	 	 	 	 	 	 	 	 	 	 	1581514692	8.35	15.46
12/02/2020 13:38:13	120220	12022020	133813	90.79	12.418793	-57.222663	90.91	-0.200	0.230	1.600	90.78	-1.20	2.00	 	 	 	 	 	 	 	 	 	 	 	 	 	 	 	 	 	 	1581514693	8.26	15.30
12/02/2020 13:38:14	120220	12022020	133814	90.84	12.418793	-57.222625	91.00	-0.440	0.280	1.480	90.86	-1.10	1.90	 	 	 	 	 	 	 	 	 	 	 	 	 	 	 	 	 	 	1581514694	8.38	15.52
12/02/2020 13:38:15	120220	12022020	133815	90.87	12.418792	-57.222583	90.97	-0.410	0.180	1.500	90.86	-1.20	1.90	 	 	 	 	 	 	 	 	 	 	 	 	 	 	 	 	 	 	1581514695	8.58	15.89
12/02/2020 13:38:16	120220	12022020	133816	90.86	12.418792	-57.222543	91.01	-0.290	0.110	1.340	90.87	-1.20	1.80	 	 	 	 	 	 	 	 	 	 	 	 	 	 	 	 	 	 	1581514696	8.61	15.95
12/02/2020 13:38:17	120220	12022020	133817	91.01	12.418793	-57.222503	91.20	-0.220	-0.120	1.190	91.05	-1.70	1.60	 	 	 	 	 	 	 	 	 	 	 	 	 	 	 	 	 	 	1581514697	8.42	15.59
12/02/2020 13:38:18	120220	12022020	133818	91.15	12.418793	-57.222463	91.26	-0.030	-0.680	1.280	91.14	-1.90	1.70	 	 	 	 	 	 	 	 	 	 	 	 	 	 	 	 	 	 	1581514698	8.60	15.93
12/02/2020 13:38:19	120220	12022020	133819	90.93	12.418792	-57.222420	90.89	0.490	-1.460	1.630	90.85	-2.70	2.00	 	 	 	 	 	 	 	 	 	 	 	 	 	 	 	 	 	 	1581514699	9.18	17.00
12/02/2020 13:38:20	120220	12022020	133820	90.50	12.418790	-57.222375	90.53	0.920	-1.550	2.090	90.44	-3.00	2.40	 	 	 	 	 	 	 	 	 	 	 	 	 	 	 	 	 	 	1581514700	9.40	17.41
12/02/2020 13:38:21	120220	12022020	133821	90.42	12.418790	-57.222333	90.63	0.750	-0.610	2.370	90.48	-2.20	2.80	 	 	 	 	 	 	 	 	 	 	 	 	 	 	 	 	 	 	1581514701	8.90	16.48
12/02/2020 13:38:22	120220	12022020	133822	90.88	12.418788	-57.222298	91.22	-0.320	1.340	2.050	91.01	-0.50	2.60	 	 	 	 	 	 	 	 	 	 	 	 	 	 	 	 	 	 	1581514702	7.45	13.80
12/02/2020 13:38:23	120220	12022020	133823	91.45	12.418788	-57.222267	91.64	-1.250	2.120	1.520	91.52	0.70	2.00	 	 	 	 	 	 	 	 	 	 	 	 	 	 	 	 	 	 	1581514703	6.65	12.32
12/02/2020 13:38:24	120220	12022020	133824	91.58	12.418790	-57.222228	91.66	-1.250	0.750	1.190	91.58	-0.10	1.70	 	 	 	 	 	 	 	 	 	 	 	 	 	 	 	 	 	 	1581514704	7.86	14.56
12/02/2020 13:38:25	120220	12022020	133825	91.41	12.418788	-57.222182	91.43	-0.210	-1.470	1.120	91.35	-2.50	1.50	 	 	 	 	 	 	 	 	 	 	 	 	 	 	 	 	 	 	1581514705	10.06	18.63
12/02/2020 13:38:26	120220	12022020	133826	91.23	12.418788	-57.222130	91.33	1.040	-2.850	0.990	91.23	-4.20	1.40	 	 	 	 	 	 	 	 	 	 	 	 	 	 	 	 	 	 	1581514706	10.93	20.24
12/02/2020 13:38:27	120220	12022020	133827	91.35	12.418790	-57.222085	91.49	1.210	-1.880	0.860	91.38	-3.50	1.30	 	 	 	 	 	 	 	 	 	 	 	 	 	 	 	 	 	 	1581514707	9.32	17.26
12/02/2020 13:38:28	120220	12022020	133828	91.48	12.418790	-57.222052	91.59	0.320	0.270	1.040	91.48	-1.40	1.40	 	 	 	 	 	 	 	 	 	 	 	 	 	 	 	 	 	 	1581514708	7.10	13.15
12/02/2020 13:38:29	120220	12022020	133829	91.41	12.418788	-57.222022	91.49	-0.630	1.700	1.410	91.38	0.20	1.80	 	 	 	 	 	 	 	 	 	 	 	 	 	 	 	 	 	 	1581514709	6.48	12.00
12/02/2020 13:38:30	120220	12022020	133830	91.31	12.418785	-57.221985	91.44	-0.790	1.350	1.480	91.32	0.10	1.90	 	 	 	 	 	 	 	 	 	 	 	 	 	 	 	 	 	 	1581514710	7.78	14.41
12/02/2020 13:38:31	120220	12022020	133831	91.45	12.418785	-57.221940	91.62	-0.370	0.050	1.310	91.49	-1.20	1.80	 	 	 	 	 	 	 	 	 	 	 	 	 	 	 	 	 	 	1581514711	9.48	17.56
12/02/2020 13:38:32	120220	12022020	133832	91.71	12.418785	-57.221893	91.87	-0.080	-0.840	1.090	91.75	-2.10	1.50	 	 	 	 	 	 	 	 	 	 	 	 	 	 	 	 	 	 	1581514712	9.75	18.06
12/02/2020 13:38:33	120220	12022020	133833	91.86	12.418783	-57.221852	91.98	-0.210	-0.930	1.050	91.86	-2.30	1.40	 	 	 	 	 	 	 	 	 	 	 	 	 	 	 	 	 	 	1581514713	8.85	16.39
12/02/2020 13:38:34	120220	12022020	133834	91.73	12.418780	-57.221813	91.78	-0.420	-0.540	1.520	91.66	-2.00	1.80	 	 	 	 	 	 	 	 	 	 	 	 	 	 	 	 	 	 	1581514714	8.10	15.00
12/02/2020 13:38:35	120220	12022020	133835	91.26	12.418772	-57.221777	91.26	-0.230	-0.230	2.050	91.14	-1.60	2.40	 	 	 	 	 	 	 	 	 	 	 	 	 	 	 	 	 	 	1581514715	7.95	14.72
12/02/2020 13:38:36	120220	12022020	133836	90.66	12.418770	-57.221738	90.66	0.420	-0.320	2.010	90.54	-1.70	2.50	 	 	 	 	 	 	 	 	 	 	 	 	 	 	 	 	 	 	1581514716	8.30	15.37
12/02/2020 13:38:37	120220	12022020	133837	90.21	12.418773	-57.221695	90.28	1.060	-0.740	1.500	90.17	-2.00	2.00	 	 	 	 	 	 	 	 	 	 	 	 	 	 	 	 	 	 	1581514717	8.93	16.54
12/02/2020 13:38:38	120220	12022020	133838	90.18	12.418780	-57.221652	90.34	1.270	-1.230	0.780	90.24	-2.60	1.30	 	 	 	 	 	 	 	 	 	 	 	 	 	 	 	 	 	 	1581514718	9.51	17.61
12/02/2020 13:38:39	120220	12022020	133839	90.52	12.418787	-57.221607	90.68	0.840	-0.950	0.330	90.58	-2.50	0.80	 	 	 	 	 	 	 	 	 	 	 	 	 	 	 	 	 	 	1581514719	9.50	17.59
12/02/2020 13:38:40	120220	12022020	133840	90.74	12.418787	-57.221567	90.86	-0.170	0.410	0.800	90.76	-1.20	1.10	 	 	 	 	 	 	 	 	 	 	 	 	 	 	 	 	 	 	1581514720	8.29	15.35
12/02/2020 13:38:41	120220	12022020	133841	90.84	12.418780	-57.221533	90.96	-1.320	1.850	1.840	90.86	0.80	2.70	 	 	 	 	 	 	 	 	 	 	 	 	 	 	 	 	 	 	1581514721	7.23	13.39
12/02/2020 13:38:42	120220	12022020	133842	90.89	12.418770	-57.221500	90.99	-1.920	2.110	2.760	90.88	0.80	3.10	 	 	 	 	 	 	 	 	 	 	 	 	 	 	 	 	 	 	1581514722	7.36	13.63
12/02/2020 13:38:43	120220	12022020	133843	90.75	12.418762	-57.221462	90.80	-1.380	0.380	3.290	90.69	-0.60	3.60	 	 	 	 	 	 	 	 	 	 	 	 	 	 	 	 	 	 	1581514723	8.54	15.82
12/02/2020 13:38:44	120220	12022020	133844	90.41	12.418757	-57.221412	90.44	0.140	-2.390	3.450	90.33	-3.40	3.90	 	 	 	 	 	 	 	 	 	 	 	 	 	 	 	 	 	 	1581514724	10.51	19.46
12/02/2020 13:38:45	120220	12022020	133845	90.04	12.418757	-57.221358	90.15	1.500	-3.560	3.290	90.02	-5.00	3.80	 	 	 	 	 	 	 	 	 	 	 	 	 	 	 	 	 	 	1581514725	11.12	20.59
12/02/2020 13:38:46	120220	12022020	133846	90.18	12.418760	-57.221317	90.31	1.670	-1.680	2.690	90.18	-3.50	3.20	 	 	 	 	 	 	 	 	 	 	 	 	 	 	 	 	 	 	1581514726	8.90	16.48
12/02/2020 13:38:47	120220	12022020	133847	90.47	12.418765	-57.221288	90.65	0.690	1.310	1.920	90.54	-0.50	2.40	 	 	 	 	 	 	 	 	 	 	 	 	 	 	 	 	 	 	1581514727	6.07	11.24
12/02/2020 13:38:48	120220	12022020	133848	90.71	12.418768	-57.221262	90.80	-0.410	2.510	1.250	90.72	1.10	1.80	 	 	 	 	 	 	 	 	 	 	 	 	 	 	 	 	 	 	1581514728	5.82	10.78
12/02/2020 13:38:49	120220	12022020	133849	90.70	12.418772	-57.221223	90.74	-0.720	1.090	0.630	90.69	0.00	1.10	 	 	 	 	 	 	 	 	 	 	 	 	 	 	 	 	 	 	1581514729	8.20	15.19
12/02/2020 13:38:50	120220	12022020	133850	90.64	12.418775	-57.221173	90.66	-0.330	-1.040	0.310	90.62	-2.20	0.70	 	 	 	 	 	 	 	 	 	 	 	 	 	 	 	 	 	 	1581514730	10.40	19.26
12/02/2020 13:38:51	120220	12022020	133851	90.51	12.418775	-57.221125	90.53	0.100	-1.930	0.460	90.48	-3.30	0.90	 	 	 	 	 	 	 	 	 	 	 	 	 	 	 	 	 	 	1581514731	10.30	19.08
12/02/2020 13:38:52	120220	12022020	133852	90.39	12.418773	-57.221083	90.44	0.110	-1.270	0.660	90.39	-2.80	1.10	 	 	 	 	 	 	 	 	 	 	 	 	 	 	 	 	 	 	1581514732	8.68	16.08
12/02/2020 13:38:53	120220	12022020	133853	90.47	12.418772	-57.221048	90.58	-0.130	-0.080	0.710	90.51	-1.00	1.20	 	 	 	 	 	 	 	 	 	 	 	 	 	 	 	 	 	 	1581514733	7.43	13.76
12/02/2020 13:38:54	120220	12022020	133854	90.74	12.418768	-57.221013	90.87	-0.250	0.590	0.860	90.80	-0.80	1.20	 	 	 	 	 	 	 	 	 	 	 	 	 	 	 	 	 	 	1581514734	7.41	13.72
12/02/2020 13:38:55	120220	12022020	133855	90.96	12.418767	-57.220975	91.03	-0.090	0.440	1.020	90.97	-0.90	1.40	 	 	 	 	 	 	 	 	 	 	 	 	 	 	 	 	 	 	1581514735	8.20	15.19
12/02/2020 13:38:56	120220	12022020	133856	90.89	12.418763	-57.220933	90.91	0.160	-0.060	1.230	90.86	-1.40	1.60	 	 	 	 	 	 	 	 	 	 	 	 	 	 	 	 	 	 	1581514736	8.93	16.54
12/02/2020 13:38:57	120220	12022020	133857	90.72	12.418763	-57.220892	90.74	0.120	-0.150	1.580	90.68	-1.50	1.90	 	 	 	 	 	 	 	 	 	 	 	 	 	 	 	 	 	 	1581514737	8.90	16.48
12/02/2020 13:38:58	120220	12022020	133858	90.48	12.418762	-57.220852	90.50	-0.170	-0.170	2.080	90.42	-1.50	2.40	 	 	 	 	 	 	 	 	 	 	 	 	 	 	 	 	 	 	1581514738	8.20	15.19
12/02/2020 13:38:59	120220	12022020	133859	90.13	12.418758	-57.220813	90.14	-0.160	-0.730	2.530	90.06	-2.00	2.90	 	 	 	 	 	 	 	 	 	 	 	 	 	 	 	 	 	 	1581514739	8.42	15.59
12/02/2020 13:39:00	120220	12022020	133900	89.86	12.418757	-57.220768	89.93	0.360	-1.330	2.640	89.83	-2.60	3.10	 	 	 	 	 	 	 	 	 	 	 	 	 	 	 	 	 	 	1581514740	9.24	17.11
12/02/2020 13:39:01	120220	12022020	133901	89.77	12.418755	-57.220725	89.87	0.850	-1.190	2.370	89.76	-2.60	2.80	 	 	 	 	 	 	 	 	 	 	 	 	 	 	 	 	 	 	1581514741	9.20	17.04
12/02/2020 13:39:02	120220	12022020	133902	89.73	12.418757	-57.220685	89.83	0.790	-0.300	2.060	89.73	-1.80	2.50	1017.10	26.60	26.70	20.00	20.10	780.0	66.0	67.0	404.0	28.3	345.00	16.10	71.00	11.90	54277	8491.0	27.5	27.5	1581514742	8.43	15.61
12/02/2020 13:39:03	120220	12022020	133903	89.69	12.418758	-57.220648	89.75	0.150	0.790	1.850	89.67	-0.70	2.30	 	 	 	 	 	 	 	 	 	 	 	 	 	 	 	 	 	 	1581514743	7.74	14.33
12/02/2020 13:39:04	120220	12022020	133904	89.54	12.418760	-57.220613	89.57	-0.630	1.240	1.720	89.50	-0.10	2.20	 	 	 	 	 	 	 	 	 	 	 	 	 	 	 	 	 	 	1581514744	7.59	14.06
12/02/2020 13:39:05	120220	12022020	133905	89.35	12.418760	-57.220573	89.41	-0.930	0.530	1.600	89.33	-1.50	1.90	 	 	 	 	 	 	 	 	 	 	 	 	 	 	 	 	 	 	1581514745	8.37	15.50
12/02/2020 13:39:06	120220	12022020	133906	89.34	12.418762	-57.220528	89.42	-0.600	-0.750	1.340	89.34	-1.90	1.80	 	 	 	 	 	 	 	 	 	 	 	 	 	 	 	 	 	 	1581514746	9.42	17.45
12/02/2020 13:39:07	120220	12022020	133907	89.35	12.418762	-57.220483	89.41	0.010	-1.620	1.220	89.33	-3.00	1.70	 	 	 	 	 	 	 	 	 	 	 	 	 	 	 	 	 	 	1581514747	9.70	17.96
12/02/2020 13:39:08	120220	12022020	133908	89.09	12.418760	-57.220440	89.17	0.450	-1.510	1.470	89.09	-2.90	1.80	 	 	 	 	 	 	 	 	 	 	 	 	 	 	 	 	 	 	1581514748	9.19	17.02
12/02/2020 13:39:09	120220	12022020	133909	88.78	12.418758	-57.220400	88.79	0.410	-0.480	1.860	88.72	-2.00	2.20	 	 	 	 	 	 	 	 	 	 	 	 	 	 	 	 	 	 	1581514749	8.33	15.43
12/02/2020 13:39:10	120220	12022020	133910	88.53	12.418758	-57.220365	88.61	0.060	0.620	1.850	88.52	-0.90	2.30	 	 	 	 	 	 	 	 	 	 	 	 	 	 	 	 	 	 	1581514750	7.59	14.06
12/02/2020 13:39:11	120220	12022020	133911	88.65	12.418762	-57.220327	88.79	-0.080	0.780	1.430	88.71	-0.50	1.90	 	 	 	 	 	 	 	 	 	 	 	 	 	 	 	 	 	 	1581514751	7.85	14.54
12/02/2020 13:39:12	120220	12022020	133912	88.97	12.418765	-57.220285	89.10	0.200	0.020	0.980	89.02	-1.20	1.50	 	 	 	 	 	 	 	 	 	 	 	 	 	 	 	 	 	 	1581514752	9.02	16.71
12/02/2020 13:39:13	120220	12022020	133913	89.19	12.418768	-57.220240	89.25	0.440	-0.610	0.770	89.21	-1.90	1.20	 	 	 	 	 	 	 	 	 	 	 	 	 	 	 	 	 	 	1581514753	9.64	17.85
12/02/2020 13:39:14	120220	12022020	133914	89.20	12.418770	-57.220197	89.24	0.220	-0.560	1.080	89.18	-2.00	1.40	 	 	 	 	 	 	 	 	 	 	 	 	 	 	 	 	 	 	1581514754	9.07	16.80
12/02/2020 13:39:15	120220	12022020	133915	89.10	12.418768	-57.220157	89.16	-0.330	-0.170	1.640	89.09	-1.60	2.00	 	 	 	 	 	 	 	 	 	 	 	 	 	 	 	 	 	 	1581514755	8.29	15.35
12/02/2020 13:39:16	120220	12022020	133916	89.08	12.418767	-57.220118	89.17	-0.700	0.060	1.910	89.09	-1.30	2.30	 	 	 	 	 	 	 	 	 	 	 	 	 	 	 	 	 	 	1581514756	8.07	14.95
12/02/2020 13:39:17	120220	12022020	133917	89.07	12.418767	-57.220078	89.13	-0.440	-0.290	1.910	89.06	-1.60	2.30	 	 	 	 	 	 	 	 	 	 	 	 	 	 	 	 	 	 	1581514757	8.43	15.61
12/02/2020 13:39:18	120220	12022020	133918	89.03	12.418768	-57.220035	89.12	0.220	-0.930	1.860	89.03	-2.20	2.30	 	 	 	 	 	 	 	 	 	 	 	 	 	 	 	 	 	 	1581514758	9.29	17.21
12/02/2020 13:39:19	120220	12022020	133919	89.14	12.418770	-57.219990	89.28	0.560	-1.040	1.740	89.19	-2.40	2.20	 	 	 	 	 	 	 	 	 	 	 	 	 	 	 	 	 	 	1581514759	9.44	17.48
12/02/2020 13:39:20	120220	12022020	133920	89.41	12.418772	-57.219948	89.55	0.400	-0.540	1.470	89.46	-2.00	1.90	 	 	 	 	 	 	 	 	 	 	 	 	 	 	 	 	 	 	1581514760	8.78	16.26
12/02/2020 13:39:21	120220	12022020	133921	89.58	12.418773	-57.219910	89.67	0.100	0.090	1.280	89.59	-1.40	1.70	 	 	 	 	 	 	 	 	 	 	 	 	 	 	 	 	 	 	1581514761	8.28	15.33
12/02/2020 13:39:22	120220	12022020	133922	89.55	12.418773	-57.219870	89.60	-0.100	0.460	1.160	89.53	-0.90	1.60	 	 	 	 	 	 	 	 	 	 	 	 	 	 	 	 	 	 	1581514762	8.35	15.46
12/02/2020 13:39:23	120220	12022020	133923	89.52	12.418777	-57.219830	89.58	-0.300	0.610	0.900	89.52	-0.80	1.40	 	 	 	 	 	 	 	 	 	 	 	 	 	 	 	 	 	 	1581514763	8.57	15.87
12/02/2020 13:39:24	120220	12022020	133924	89.56	12.418778	-57.219790	89.61	-0.480	0.460	0.600	89.56	-0.90	1.10	 	 	 	 	 	 	 	 	 	 	 	 	 	 	 	 	 	 	1581514764	8.56	15.85
12/02/2020 13:39:25	120220	12022020	133925	89.59	12.418782	-57.219748	89.66	-0.470	-0.240	0.360	89.61	-1.50	0.80	 	 	 	 	 	 	 	 	 	 	 	 	 	 	 	 	 	 	1581514765	8.86	16.41
12/02/2020 13:39:26	120220	12022020	133926	89.64	12.418783	-57.219703	89.69	-0.150	-1.160	0.290	89.64	-2.40	0.70	 	 	 	 	 	 	 	 	 	 	 	 	 	 	 	 	 	 	1581514766	9.39	17.39
12/02/2020 13:39:27	120220	12022020	133927	89.65	12.418785	-57.219658	89.69	0.390	-1.620	0.450	89.64	-3.00	0.80	 	 	 	 	 	 	 	 	 	 	 	 	 	 	 	 	 	 	1581514767	9.55	17.69
12/02/2020 13:39:28	120220	12022020	133928	89.53	12.418785	-57.219615	89.54	0.800	-1.230	0.960	89.48	-2.70	1.30	 	 	 	 	 	 	 	 	 	 	 	 	 	 	 	 	 	 	1581514768	9.16	16.96
12/02/2020 13:39:29	120220	12022020	133929	89.35	12.418783	-57.219575	89.43	0.650	-0.100	1.530	89.35	-1.70	1.90	 	 	 	 	 	 	 	 	 	 	 	 	 	 	 	 	 	 	1581514769	8.47	15.69
12/02/2020 13:39:30	120220	12022020	133930	89.51	12.418782	-57.219538	89.62	-0.050	0.980	1.840	89.51	-0.50	2.20	 	 	 	 	 	 	 	 	 	 	 	 	 	 	 	 	 	 	1581514770	7.84	14.52
12/02/2020 13:39:31	120220	12022020	133931	89.70	12.418780	-57.219500	89.83	-0.770	1.110	2.180	89.73	-0.20	2.50	 	 	 	 	 	 	 	 	 	 	 	 	 	 	 	 	 	 	1581514771	7.99	14.80
12/02/2020 13:39:32	120220	12022020	133932	89.65	12.418777	-57.219457	89.71	-0.830	0.060	2.510	89.62	-1.10	2.90	 	 	 	 	 	 	 	 	 	 	 	 	 	 	 	 	 	 	1581514772	9.10	16.85
12/02/2020 13:39:33	120220	12022020	133933	89.43	12.418775	-57.219410	89.50	-0.210	-1.090	2.470	89.40	-2.30	2.90	 	 	 	 	 	 	 	 	 	 	 	 	 	 	 	 	 	 	1581514773	10.08	18.67
12/02/2020 13:39:34	120220	12022020	133934	89.33	12.418777	-57.219363	89.46	0.390	-1.320	2.250	89.34	-2.70	2.70	 	 	 	 	 	 	 	 	 	 	 	 	 	 	 	 	 	 	1581514774	9.83	18.21
12/02/2020 13:39:35	120220	12022020	133935	89.49	12.418780	-57.219322	89.66	0.470	-0.620	1.720	89.55	-2.10	2.20	 	 	 	 	 	 	 	 	 	 	 	 	 	 	 	 	 	 	1581514775	8.70	16.11
12/02/2020 13:39:36	120220	12022020	133936	89.84	12.418785	-57.219285	89.98	0.170	0.190	0.930	89.90	-1.30	1.50	 	 	 	 	 	 	 	 	 	 	 	 	 	 	 	 	 	 	1581514776	7.94	14.70
12/02/2020 13:39:37	120220	12022020	133937	89.97	12.418790	-57.219247	90.00	0.020	0.140	0.670	89.94	-1.20	1.10	 	 	 	 	 	 	 	 	 	 	 	 	 	 	 	 	 	 	1581514777	8.25	15.28
12/02/2020 13:39:38	120220	12022020	133938	89.72	12.418790	-57.219202	89.72	0.120	-0.660	1.000	89.66	-1.90	1.40	 	 	 	 	 	 	 	 	 	 	 	 	 	 	 	 	 	 	1581514778	9.50	17.59
12/02/2020 13:39:39	120220	12022020	133939	89.51	12.418790	-57.219153	89.58	0.040	-0.850	1.260	89.50	-2.30	1.60	 	 	 	 	 	 	 	 	 	 	 	 	 	 	 	 	 	 	1581514779	9.95	18.43
12/02/2020 13:39:40	120220	12022020	133940	89.60	12.418790	-57.219113	89.76	-0.370	0.120	1.330	89.66	-1.40	1.70	 	 	 	 	 	 	 	 	 	 	 	 	 	 	 	 	 	 	1581514780	8.78	16.26
12/02/2020 13:39:41	120220	12022020	133941	89.98	12.418790	-57.219077	90.17	-0.760	1.100	1.250	90.07	-0.40	1.70	 	 	 	 	 	 	 	 	 	 	 	 	 	 	 	 	 	 	1581514781	7.52	13.93
12/02/2020 13:39:42	120220	12022020	133942	90.43	12.418788	-57.219040	90.61	-0.680	0.700	1.170	90.52	-0.50	1.60	 	 	 	 	 	 	 	 	 	 	 	 	 	 	 	 	 	 	1581514782	7.99	14.80
12/02/2020 13:39:43	120220	12022020	133943	90.72	12.418787	-57.218993	90.78	-0.050	-0.830	1.330	90.71	-2.90	1.90	 	 	 	 	 	 	 	 	 	 	 	 	 	 	 	 	 	 	1581514783	9.57	17.72
12/02/2020 13:39:44	120220	12022020	133944	90.48	12.418783	-57.218945	90.44	0.740	-1.940	1.650	90.39	-3.20	2.00	 	 	 	 	 	 	 	 	 	 	 	 	 	 	 	 	 	 	1581514784	10.50	19.45
12/02/2020 13:39:45	120220	12022020	133945	90.06	12.418785	-57.218898	90.07	1.030	-1.380	1.710	90.00	-2.90	2.10	 	 	 	 	 	 	 	 	 	 	 	 	 	 	 	 	 	 	1581514785	9.60	17.78
12/02/2020 13:39:46	120220	12022020	133946	89.85	12.418788	-57.218862	89.94	0.660	-0.020	1.640	89.85	-1.60	2.10	 	 	 	 	 	 	 	 	 	 	 	 	 	 	 	 	 	 	1581514786	7.96	14.74
12/02/2020 13:39:47	120220	12022020	133947	89.92	12.418792	-57.218825	90.07	0.050	0.740	1.380	89.97	-0.70	1.80	 	 	 	 	 	 	 	 	 	 	 	 	 	 	 	 	 	 	1581514787	7.74	14.33
12/02/2020 13:39:48	120220	12022020	133948	90.28	12.418797	-57.218785	90.47	-0.470	0.750	0.970	90.37	-0.60	1.40	 	 	 	 	 	 	 	 	 	 	 	 	 	 	 	 	 	 	1581514788	8.53	15.80
12/02/2020 13:39:49	120220	12022020	133949	90.69	12.418798	-57.218742	90.82	-0.710	0.170	0.840	90.73	-1.10	1.20	 	 	 	 	 	 	 	 	 	 	 	 	 	 	 	 	 	 	1581514789	9.06	16.78
12/02/2020 13:39:50	120220	12022020	133950	90.75	12.418795	-57.218697	90.80	-0.620	-0.680	1.340	90.71	-1.90	1.60	 	 	 	 	 	 	 	 	 	 	 	 	 	 	 	 	 	 	1581514790	9.55	17.69
12/02/2020 13:39:51	120220	12022020	133951	90.45	12.418788	-57.218652	90.46	-0.250	-1.180	2.140	90.36	-2.50	2.40	 	 	 	 	 	 	 	 	 	 	 	 	 	 	 	 	 	 	1581514791	9.75	18.06
12/02/2020 13:39:52	120220	12022020	133952	90.01	12.418782	-57.218608	90.03	0.150	-0.960	2.620	89.92	-2.40	3.00	 	 	 	 	 	 	 	 	 	 	 	 	 	 	 	 	 	 	1581514792	9.37	17.35
12/02/2020 13:39:53	120220	12022020	133953	89.67	12.418782	-57.218567	89.73	0.220	-0.200	2.380	89.62	-1.70	2.90	 	 	 	 	 	 	 	 	 	 	 	 	 	 	 	 	 	 	1581514793	8.64	16.00
12/02/2020 13:39:54	120220	12022020	133954	89.61	12.418785	-57.218528	89.72	-0.010	0.360	1.440	89.63	-1.00	2.00	 	 	 	 	 	 	 	 	 	 	 	 	 	 	 	 	 	 	1581514794	8.26	15.30
12/02/2020 13:39:55	120220	12022020	133955	89.81	12.418793	-57.218487	89.93	-0.130	0.270	0.330	89.87	-1.30	0.30	 	 	 	 	 	 	 	 	 	 	 	 	 	 	 	 	 	 	1581514795	8.73	16.17
12/02/2020 13:39:56	120220	12022020	133956	90.06	12.418800	-57.218443	90.12	0.080	-0.260	-0.420	90.09	-1.50	0.10	 	 	 	 	 	 	 	 	 	 	 	 	 	 	 	 	 	 	1581514796	9.40	17.41
12/02/2020 13:39:57	120220	12022020	133957	90.14	12.418805	-57.218398	90.18	0.420	-0.670	-0.540	90.15	-2.00	0.00	 	 	 	 	 	 	 	 	 	 	 	 	 	 	 	 	 	 	1581514797	9.63	17.83
12/02/2020 13:39:58	120220	12022020	133958	90.23	12.418807	-57.218355	90.31	0.490	-0.550	-0.210	90.26	-2.00	0.10	 	 	 	 	 	 	 	 	 	 	 	 	 	 	 	 	 	 	1581514798	9.29	17.21
12/02/2020 13:39:59	120220	12022020	133959	90.46	12.418805	-57.218313	90.56	0.120	-0.070	0.400	90.49	-1.50	0.70	 	 	 	 	 	 	 	 	 	 	 	 	 	 	 	 	 	 	1581514799	8.65	16.02
12/02/2020 13:40:00	120220	12022020	134000	90.45	12.418800	-57.218273	90.45	-0.390	0.140	1.440	90.39	-1.20	1.70	 	 	 	 	 	 	 	 	 	 	 	 	 	 	 	 	 	 	1581514800	8.42	15.59
12/02/2020 13:40:01	120220	12022020	134001	90.10	12.418793	-57.218232	90.15	-0.520	-0.360	2.530	90.05	-1.60	2.80	 	 	 	 	 	 	 	 	 	 	 	 	 	 	 	 	 	 	1581514801	9.05	16.76
12/02/2020 13:40:02	120220	12022020	134002	89.98	12.418788	-57.218185	90.11	-0.200	-0.920	2.930	90.00	-2.20	3.30	1017.10	26.70	26.70	20.00	20.00	766.0	66.0	66.0	400.0	28.4	348.00	16.50	73.00	12.10	54067	8628.0	27.5	27.5	1581514802	9.78	18.11
12/02/2020 13:40:03	120220	12022020	134003	90.20	12.418788	-57.218142	90.32	0.190	-0.660	2.720	90.20	-2.10	3.20	 	 	 	 	 	 	 	 	 	 	 	 	 	 	 	 	 	 	1581514803	9.44	17.48
12/02/2020 13:40:04	120220	12022020	134004	90.36	12.418792	-57.218100	90.49	0.340	-0.080	2.320	90.39	-1.50	2.80	 	 	 	 	 	 	 	 	 	 	 	 	 	 	 	 	 	 	1581514804	8.64	16.00
12/02/2020 13:40:05	120220	12022020	134005	90.52	12.418795	-57.218058	90.67	0.190	0.020	1.920	90.57	-1.30	2.40	 	 	 	 	 	 	 	 	 	 	 	 	 	 	 	 	 	 	1581514805	8.73	16.17
12/02/2020 13:40:06	120220	12022020	134006	90.78	12.418797	-57.218015	90.94	-0.040	-0.300	1.500	90.83	-1.60	2.00	 	 	 	 	 	 	 	 	 	 	 	 	 	 	 	 	 	 	1581514806	9.31	17.24
12/02/2020 13:40:07	120220	12022020	134007	90.95	12.418797	-57.217970	91.04	-0.090	-0.410	1.100	90.95	-1.80	1.60	 	 	 	 	 	 	 	 	 	 	 	 	 	 	 	 	 	 	1581514807	9.49	17.58
12/02/2020 13:40:08	120220	12022020	134008	90.92	12.418798	-57.217927	91.01	-0.010	-0.080	0.760	90.92	-1.50	1.20	 	 	 	 	 	 	 	 	 	 	 	 	 	 	 	 	 	 	1581514808	9.11	16.87
12/02/2020 13:40:09	120220	12022020	134009	90.99	12.418802	-57.217887	91.11	0.000	0.270	0.290	91.03	-1.10	0.80	 	 	 	 	 	 	 	 	 	 	 	 	 	 	 	 	 	 	1581514809	8.68	16.08
12/02/2020 13:40:10	120220	12022020	134010	91.15	12.418805	-57.217845	91.24	-0.050	0.210	-0.090	91.18	-1.10	0.40	 	 	 	 	 	 	 	 	 	 	 	 	 	 	 	 	 	 	1581514810	8.78	16.26
12/02/2020 13:40:11	120220	12022020	134011	91.25	12.418807	-57.217802	91.32	-0.070	-0.330	-0.090	91.26	-1.60	0.30	 	 	 	 	 	 	 	 	 	 	 	 	 	 	 	 	 	 	1581514811	9.18	17.00
12/02/2020 13:40:12	120220	12022020	134012	91.21	12.418807	-57.217755	91.25	0.000	-1.080	0.220	91.19	-2.30	0.60	 	 	 	 	 	 	 	 	 	 	 	 	 	 	 	 	 	 	1581514812	9.71	17.98
12/02/2020 13:40:13	120220	12022020	134013	91.04	12.418805	-57.217708	91.07	0.150	-1.310	0.680	90.99	-2.70	1.00	 	 	 	 	 	 	 	 	 	 	 	 	 	 	 	 	 	 	1581514813	9.80	18.15
12/02/2020 13:40:14	120220	12022020	134014	90.84	12.418802	-57.217665	90.91	0.270	-0.790	1.280	90.80	-2.30	1.60	 	 	 	 	 	 	 	 	 	 	 	 	 	 	 	 	 	 	1581514814	9.26	17.15
12/02/2020 13:40:15	120220	12022020	134015	90.76	12.418798	-57.217623	90.91	0.180	0.080	1.680	90.78	-1.40	2.00	 	 	 	 	 	 	 	 	 	 	 	 	 	 	 	 	 	 	1581514815	8.74	16.19
12/02/2020 13:40:16	120220	12022020	134016	90.95	12.418797	-57.217583	91.14	-0.140	0.620	1.610	91.00	-0.80	2.00	 	 	 	 	 	 	 	 	 	 	 	 	 	 	 	 	 	 	1581514816	8.51	15.76
12/02/2020 13:40:17	120220	12022020	134017	91.12	12.418797	-57.217542	91.26	-0.370	0.270	1.660	91.13	-1.00	2.00	 	 	 	 	 	 	 	 	 	 	 	 	 	 	 	 	 	 	1581514817	9.06	16.78
12/02/2020 13:40:18	120220	12022020	134018	91.09	12.418795	-57.217495	91.23	-0.410	-0.210	1.860	91.08	-1.50	2.20	 	 	 	 	 	 	 	 	 	 	 	 	 	 	 	 	 	 	1581514818	9.86	18.26
12/02/2020 13:40:19	120220	12022020	134019	91.06	12.418792	-57.217450	91.20	-0.390	-0.090	1.860	91.06	-1.50	2.30	 	 	 	 	 	 	 	 	 	 	 	 	 	 	 	 	 	 	1581514819	9.36	17.33
12/02/2020 13:40:20	120220	12022020	134020	91.00	12.418792	-57.217408	91.12	-0.120	-0.190	1.650	90.97	-1.50	2.10	 	 	 	 	 	 	 	 	 	 	 	 	 	 	 	 	 	 	1581514820	8.75	16.21
12/02/2020 13:40:21	120220	12022020	134021	90.86	12.418793	-57.217363	90.97	0.530	-0.880	1.280	90.84	-2.10	1.80	 	 	 	 	 	 	 	 	 	 	 	 	 	 	 	 	 	 	1581514821	9.44	17.48
12/02/2020 13:40:22	120220	12022020	134022	90.84	12.418797	-57.217317	90.98	1.050	-1.310	0.850	90.86	-2.70	1.30	 	 	 	 	 	 	 	 	 	 	 	 	 	 	 	 	 	 	1581514822	10.11	18.72
12/02/2020 13:40:23	120220	12022020	134023	91.07	12.418802	-57.217270	91.25	0.930	-0.890	0.560	91.13	-2.40	1.00	 	 	 	 	 	 	 	 	 	 	 	 	 	 	 	 	 	 	1581514823	9.67	17.91
12/02/2020 13:40:24	120220	12022020	134024	91.35	12.418803	-57.217230	91.49	0.170	0.240	0.540	91.37	-1.30	0.90	 	 	 	 	 	 	 	 	 	 	 	 	 	 	 	 	 	 	1581514824	8.65	16.02
12/02/2020 13:40:25	120220	12022020	134025	91.29	12.418802	-57.217192	91.38	-0.730	1.120	0.960	91.29	-0.30	1.30	 	 	 	 	 	 	 	 	 	 	 	 	 	 	 	 	 	 	1581514825	8.00	14.82
12/02/2020 13:40:26	120220	12022020	134026	91.09	12.418798	-57.217152	91.15	-1.150	0.830	1.650	91.05	-0.40	2.00	 	 	 	 	 	 	 	 	 	 	 	 	 	 	 	 	 	 	1581514826	8.52	15.78
12/02/2020 13:40:27	120220	12022020	134027	90.97	12.418793	-57.217105	91.09	-0.830	-0.480	2.040	90.97	-1.60	2.40	 	 	 	 	 	 	 	 	 	 	 	 	 	 	 	 	 	 	1581514827	9.86	18.26
12/02/2020 13:40:28	120220	12022020	134028	91.04	12.418790	-57.217055	91.20	-0.080	-1.530	2.110	91.07	-2.80	2.50	 	 	 	 	 	 	 	 	 	 	 	 	 	 	 	 	 	 	1581514828	10.58	19.59
12/02/2020 13:40:29	120220	12022020	134029	91.18	12.418788	-57.217008	91.31	0.430	-1.310	2.120	91.20	-2.80	2.50	 	 	 	 	 	 	 	 	 	 	 	 	 	 	 	 	 	 	1581514829	9.94	18.41
12/02/2020 13:40:30	120220	12022020	134030	91.18	12.418787	-57.216967	91.28	0.410	-0.480	2.090	91.18	-1.90	2.50	 	 	 	 	 	 	 	 	 	 	 	 	 	 	 	 	 	 	1581514830	8.68	16.08
12/02/2020 13:40:31	120220	12022020	134031	91.06	12.418787	-57.216927	91.13	0.240	-0.020	1.920	91.04	-1.40	2.40	 	 	 	 	 	 	 	 	 	 	 	 	 	 	 	 	 	 	1581514831	8.57	15.87
12/02/2020 13:40:32	120220	12022020	134032	91.04	12.418788	-57.216883	91.15	0.220	0.110	1.380	91.06	-1.30	1.90	 	 	 	 	 	 	 	 	 	 	 	 	 	 	 	 	 	 	1581514832	9.21	17.06
12/02/2020 13:40:33	120220	12022020	134033	91.16	12.418793	-57.216838	91.26	0.160	0.270	0.610	91.19	-1.00	0.70	 	 	 	 	 	 	 	 	 	 	 	 	 	 	 	 	 	 	1581514833	9.41	17.43
12/02/2020 13:40:34	120220	12022020	134034	91.31	12.418798	-57.216797	91.40	-0.060	0.360	0.000	91.35	-1.00	0.50	 	 	 	 	 	 	 	 	 	 	 	 	 	 	 	 	 	 	1581514834	9.18	17.00
12/02/2020 13:40:35	120220	12022020	134035	91.41	12.418800	-57.216753	91.44	-0.220	0.130	-0.040	91.40	-1.20	0.40	 	 	 	 	 	 	 	 	 	 	 	 	 	 	 	 	 	 	1581514835	9.10	16.85
12/02/2020 13:40:36	120220	12022020	134036	91.26	12.418800	-57.216708	91.28	-0.130	-0.480	0.340	91.23	-1.70	0.70	 	 	 	 	 	 	 	 	 	 	 	 	 	 	 	 	 	 	1581514836	9.40	17.41
12/02/2020 13:40:37	120220	12022020	134037	91.19	12.418798	-57.216662	91.29	0.060	-1.100	0.720	91.21	-2.40	1.10	 	 	 	 	 	 	 	 	 	 	 	 	 	 	 	 	 	 	1581514837	9.88	18.30
12/02/2020 13:40:38	120220	12022020	134038	91.34	12.418795	-57.216617	91.47	0.070	-1.050	1.230	91.38	-2.50	1.60	 	 	 	 	 	 	 	 	 	 	 	 	 	 	 	 	 	 	1581514838	9.72	18.00
12/02/2020 13:40:39	120220	12022020	134039	91.42	12.418792	-57.216573	91.51	-0.100	-0.380	1.930	91.40	-1.80	2.20	 	 	 	 	 	 	 	 	 	 	 	 	 	 	 	 	 	 	1581514839	8.97	16.61
12/02/2020 13:40:40	120220	12022020	134040	91.22	12.418785	-57.216533	91.29	-0.170	0.080	2.560	91.17	-1.30	2.90	 	 	 	 	 	 	 	 	 	 	 	 	 	 	 	 	 	 	1581514840	8.68	16.08
12/02/2020 13:40:41	120220	12022020	134041	91.02	12.418782	-57.216490	91.12	-0.000	-0.060	2.800	90.99	-1.40	3.20	 	 	 	 	 	 	 	 	 	 	 	 	 	 	 	 	 	 	1581514841	9.18	17.00
12/02/2020 13:40:42	120220	12022020	134042	90.95	12.418782	-57.216443	91.06	0.320	-0.560	2.420	90.94	-1.80	2.90	 	 	 	 	 	 	 	 	 	 	 	 	 	 	 	 	 	 	1581514842	9.83	18.21
12/02/2020 13:40:43	120220	12022020	134043	90.95	12.418785	-57.216395	91.05	0.540	-0.790	1.720	90.94	-2.10	2.20	 	 	 	 	 	 	 	 	 	 	 	 	 	 	 	 	 	 	1581514843	10.15	18.80
12/02/2020 13:40:44	120220	12022020	134044	90.94	12.418788	-57.216350	91.06	0.290	-0.250	1.320	90.95	-1.70	1.80	 	 	 	 	 	 	 	 	 	 	 	 	 	 	 	 	 	 	1581514844	9.65	17.87
12/02/2020 13:40:45	120220	12022020	134045	91.05	12.418790	-57.216308	91.22	-0.430	0.620	0.940	91.10	-0.50	1.10	 	 	 	 	 	 	 	 	 	 	 	 	 	 	 	 	 	 	1581514845	8.66	16.04
12/02/2020 13:40:46	120220	12022020	134046	91.36	12.418790	-57.216268	91.53	-1.040	0.900	0.530	91.42	-0.50	1.00	 	 	 	 	 	 	 	 	 	 	 	 	 	 	 	 	 	 	1581514846	8.44	15.63
12/02/2020 13:40:47	120220	12022020	134047	91.54	12.418790	-57.216227	91.62	-1.060	0.410	0.480	91.54	-1.40	1.00	 	 	 	 	 	 	 	 	 	 	 	 	 	 	 	 	 	 	1581514847	9.11	16.87
12/02/2020 13:40:48	120220	12022020	134048	91.45	12.418787	-57.216180	91.49	-0.450	-0.520	0.620	91.41	-1.70	1.00	 	 	 	 	 	 	 	 	 	 	 	 	 	 	 	 	 	 	1581514848	9.69	17.95
12/02/2020 13:40:49	120220	12022020	134049	91.28	12.418785	-57.216132	91.33	0.560	-1.530	0.650	91.25	-2.80	1.10	 	 	 	 	 	 	 	 	 	 	 	 	 	 	 	 	 	 	1581514849	10.12	18.74
12/02/2020 13:40:50	120220	12022020	134050	91.20	12.418787	-57.216083	91.28	1.380	-1.940	0.590	91.19	-3.30	1.00	 	 	 	 	 	 	 	 	 	 	 	 	 	 	 	 	 	 	1581514850	10.29	19.06
12/02/2020 13:40:51	120220	12022020	134051	91.17	12.418790	-57.216038	91.24	1.390	-1.330	0.780	91.15	-2.80	1.10	 	 	 	 	 	 	 	 	 	 	 	 	 	 	 	 	 	 	1581514851	9.75	18.06
12/02/2020 13:40:52	120220	12022020	134052	91.14	12.418788	-57.215995	91.24	0.490	0.060	1.270	91.14	-1.50	1.60	 	 	 	 	 	 	 	 	 	 	 	 	 	 	 	 	 	 	1581514852	8.86	16.41
12/02/2020 13:40:53	120220	12022020	134053	91.17	12.418785	-57.215957	91.27	-0.760	1.420	1.930	91.16	-0.10	2.20	 	 	 	 	 	 	 	 	 	 	 	 	 	 	 	 	 	 	1581514853	8.18	15.15
12/02/2020 13:40:54	120220	12022020	134054	91.04	12.418778	-57.215918	91.09	-1.490	1.680	2.500	91.00	0.40	2.90	 	 	 	 	 	 	 	 	 	 	 	 	 	 	 	 	 	 	1581514854	8.38	15.52
12/02/2020 13:40:55	120220	12022020	134055	90.82	12.418773	-57.215873	90.89	-1.220	0.630	2.520	90.80	-0.60	2.90	 	 	 	 	 	 	 	 	 	 	 	 	 	 	 	 	 	 	1581514855	9.53	17.65
12/02/2020 13:40:56	120220	12022020	134056	90.84	12.418773	-57.215823	90.99	-0.320	-0.790	2.160	90.87	-2.00	2.60	 	 	 	 	 	 	 	 	 	 	 	 	 	 	 	 	 	 	1581514856	10.46	19.37
12/02/2020 13:40:57	120220	12022020	134057	91.03	12.418775	-57.215773	91.15	0.550	-1.870	1.760	91.04	-3.10	2.20	 	 	 	 	 	 	 	 	 	 	 	 	 	 	 	 	 	 	1581514857	10.51	19.46
12/02/2020 13:40:58	120220	12022020	134058	90.98	12.418777	-57.215725	91.00	1.020	-2.280	1.460	90.94	-3.60	1.90	 	 	 	 	 	 	 	 	 	 	 	 	 	 	 	 	 	 	1581514858	10.30	19.08
12/02/2020 13:40:59	120220	12022020	134059	90.70	12.418777	-57.215678	90.71	0.970	-1.390	1.490	90.64	-3.00	1.90	 	 	 	 	 	 	 	 	 	 	 	 	 	 	 	 	 	 	1581514859	9.79	18.13
12/02/2020 13:41:00	120220	12022020	134100	90.43	12.418777	-57.215638	90.50	0.420	0.500	1.610	90.41	-1.20	2.00	 	 	 	 	 	 	 	 	 	 	 	 	 	 	 	 	 	 	1581514860	8.51	15.76
12/02/2020 13:41:01	120220	12022020	134101	90.40	12.418777	-57.215602	90.52	-0.410	1.930	1.270	90.42	0.40	1.80	 	 	 	 	 	 	 	 	 	 	 	 	 	 	 	 	 	 	1581514861	7.76	14.37
12/02/2020 13:41:02	120220	12022020	134102	90.65	12.418780	-57.215563	90.79	-1.100	1.920	0.610	90.72	0.60	1.10	1017.20	26.60	26.70	19.60	19.70	758.0	65.0	65.0	398.0	28.4	346.00	16.60	71.00	12.00	53953	12158.0	27.5	27.5	1581514862	8.35	15.46
12/02/2020 13:41:03	120220	12022020	134103	91.00	12.418782	-57.215517	91.13	-1.040	0.330	0.220	91.07	-0.70	0.70	 	 	 	 	 	 	 	 	 	 	 	 	 	 	 	 	 	 	1581514863	9.63	17.83
12/02/2020 13:41:04	120220	12022020	134104	91.25	12.418782	-57.215465	91.31	-0.130	-1.810	0.050	91.26	-2.90	0.50	 	 	 	 	 	 	 	 	 	 	 	 	 	 	 	 	 	 	1581514864	10.99	20.35
12/02/2020 13:41:05	120220	12022020	134105	91.09	12.418782	-57.215412	91.06	0.890	-2.780	0.410	91.02	-4.10	0.70	 	 	 	 	 	 	 	 	 	 	 	 	 	 	 	 	 	 	1581514865	11.28	20.89
12/02/2020 13:41:06	120220	12022020	134106	90.68	12.418778	-57.215367	90.65	1.080	-1.530	1.070	90.60	-3.20	1.40	 	 	 	 	 	 	 	 	 	 	 	 	 	 	 	 	 	 	1581514866	9.68	17.93
12/02/2020 13:41:07	120220	12022020	134107	90.43	12.418778	-57.215330	90.49	0.410	0.550	1.310	90.42	-1.10	1.70	 	 	 	 	 	 	 	 	 	 	 	 	 	 	 	 	 	 	1581514867	7.61	14.09
12/02/2020 13:41:08	120220	12022020	134108	90.48	12.418780	-57.215295	90.60	-0.300	1.310	1.140	90.52	-0.10	1.60	 	 	 	 	 	 	 	 	 	 	 	 	 	 	 	 	 	 	1581514868	7.52	13.93
12/02/2020 13:41:09	120220	12022020	134109	90.67	12.418780	-57.215250	90.72	-0.400	0.400	1.170	90.67	-1.50	1.70	 	 	 	 	 	 	 	 	 	 	 	 	 	 	 	 	 	 	1581514869	9.41	17.43
12/02/2020 13:41:10	120220	12022020	134110	90.56	12.418777	-57.215200	90.58	-0.270	-0.480	1.440	90.52	-1.80	1.80	 	 	 	 	 	 	 	 	 	 	 	 	 	 	 	 	 	 	1581514870	10.68	19.78
12/02/2020 13:41:11	120220	12022020	134111	90.31	12.418775	-57.215153	90.33	-0.370	-0.360	1.630	90.26	-1.80	2.00	 	 	 	 	 	 	 	 	 	 	 	 	 	 	 	 	 	 	1581514871	9.87	18.28
12/02/2020 13:41:12	120220	12022020	134112	90.07	12.418773	-57.215112	90.14	-0.560	0.150	1.800	90.04	-1.30	2.20	 	 	 	 	 	 	 	 	 	 	 	 	 	 	 	 	 	 	1581514872	8.62	15.96
12/02/2020 13:41:13	120220	12022020	134113	90.10	12.418772	-57.215072	90.25	-0.390	-0.210	1.670	90.14	-1.50	2.10	 	 	 	 	 	 	 	 	 	 	 	 	 	 	 	 	 	 	1581514873	8.64	16.00
12/02/2020 13:41:14	120220	12022020	134114	90.37	12.418773	-57.215025	90.47	0.260	-1.300	1.250	90.37	-2.50	1.70	 	 	 	 	 	 	 	 	 	 	 	 	 	 	 	 	 	 	1581514874	9.95	18.43
12/02/2020 13:41:15	120220	12022020	134115	90.28	12.418775	-57.214975	90.31	0.820	-1.420	1.160	90.23	-2.90	1.60	 	 	 	 	 	 	 	 	 	 	 	 	 	 	 	 	 	 	1581514875	10.51	19.46
12/02/2020 13:41:16	120220	12022020	134116	89.96	12.418777	-57.214932	89.96	0.720	0.110	1.150	89.89	-1.50	1.60	 	 	 	 	 	 	 	 	 	 	 	 	 	 	 	 	 	 	1581514876	8.93	16.54
12/02/2020 13:41:17	120220	12022020	134117	89.68	12.418780	-57.214898	89.71	0.130	1.390	1.010	89.65	-0.10	1.50	 	 	 	 	 	 	 	 	 	 	 	 	 	 	 	 	 	 	1581514877	7.41	13.72
12/02/2020 13:41:18	120220	12022020	134118	89.65	12.418785	-57.214858	89.72	-0.080	0.510	0.660	89.68	-0.60	1.20	 	 	 	 	 	 	 	 	 	 	 	 	 	 	 	 	 	 	1581514878	8.42	15.59
12/02/2020 13:41:19	120220	12022020	134119	89.76	12.418790	-57.214807	89.82	0.390	-1.600	0.530	89.79	-2.70	1.00	 	 	 	 	 	 	 	 	 	 	 	 	 	 	 	 	 	 	1581514879	10.94	20.26
12/02/2020 13:41:20	120220	12022020	134120	89.96	12.418792	-57.214753	90.07	0.490	-1.610	0.970	90.01	-3.10	1.30	 	 	 	 	 	 	 	 	 	 	 	 	 	 	 	 	 	 	1581514880	11.23	20.80
12/02/2020 13:41:21	120220	12022020	134121	90.19	12.418788	-57.214715	90.34	-0.340	0.430	1.910	90.24	-1.30	2.20	 	 	 	 	 	 	 	 	 	 	 	 	 	 	 	 	 	 	1581514881	8.15	15.09
12/02/2020 13:41:22	120220	12022020	134122	90.46	12.418782	-57.214685	90.63	-1.380	1.790	2.780	90.51	0.40	3.10	 	 	 	 	 	 	 	 	 	 	 	 	 	 	 	 	 	 	1581514882	6.60	12.22
12/02/2020 13:41:23	120220	12022020	134123	90.72	12.418777	-57.214647	90.86	-1.310	0.570	2.970	90.76	-2.00	3.30	 	 	 	 	 	 	 	 	 	 	 	 	 	 	 	 	 	 	1581514883	8.14	15.08
12/02/2020 13:41:24	120220	12022020	134124	90.74	12.418775	-57.214595	90.78	-0.050	-1.780	2.880	90.70	-2.90	3.30	 	 	 	 	 	 	 	 	 	 	 	 	 	 	 	 	 	 	1581514884	10.83	20.06
12/02/2020 13:41:25	120220	12022020	134125	90.53	12.418777	-57.214542	90.61	1.180	-2.630	2.640	90.52	-4.00	3.10	 	 	 	 	 	 	 	 	 	 	 	 	 	 	 	 	 	 	1581514885	11.32	20.96
12/02/2020 13:41:26	120220	12022020	134126	90.67	12.418778	-57.214498	90.85	1.320	-1.120	2.190	90.74	-2.80	2.70	 	 	 	 	 	 	 	 	 	 	 	 	 	 	 	 	 	 	1581514886	9.30	17.22
12/02/2020 13:41:27	120220	12022020	134127	91.20	12.418783	-57.214465	91.42	0.450	1.240	1.380	91.32	-0.40	1.90	 	 	 	 	 	 	 	 	 	 	 	 	 	 	 	 	 	 	1581514887	7.03	13.02
12/02/2020 13:41:28	120220	12022020	134128	91.69	12.418787	-57.214433	91.77	-0.470	2.300	0.330	91.74	0.90	0.90	 	 	 	 	 	 	 	 	 	 	 	 	 	 	 	 	 	 	1581514888	6.75	12.50
12/02/2020 13:41:29	120220	12022020	134129	91.82	12.418793	-57.214393	91.83	-0.680	1.270	-0.540	91.82	0.10	0.00	 	 	 	 	 	 	 	 	 	 	 	 	 	 	 	 	 	 	1581514889	8.48	15.70
12/02/2020 13:41:30	120220	12022020	134130	91.89	12.418798	-57.214345	91.93	-0.290	-0.750	-0.960	91.92	-1.80	-0.50	 	 	 	 	 	 	 	 	 	 	 	 	 	 	 	 	 	 	1581514890	10.28	19.04
12/02/2020 13:41:31	120220	12022020	134131	92.07	12.418802	-57.214295	92.07	0.130	-2.150	-1.000	92.07	-3.40	-0.60	 	 	 	 	 	 	 	 	 	 	 	 	 	 	 	 	 	 	1581514891	10.60	19.63
12/02/2020 13:41:32	120220	12022020	134132	91.99	12.418798	-57.214250	91.94	0.170	-2.010	-0.540	91.93	-3.50	-0.20	 	 	 	 	 	 	 	 	 	 	 	 	 	 	 	 	 	 	1581514892	9.60	17.78
12/02/2020 13:41:33	120220	12022020	134133	91.60	12.418793	-57.214212	91.52	-0.060	-0.730	0.390	91.50	-2.30	0.70	 	 	 	 	 	 	 	 	 	 	 	 	 	 	 	 	 	 	1581514893	8.22	15.22
12/02/2020 13:41:34	120220	12022020	134134	91.10	12.418787	-57.214175	91.06	-0.160	0.350	1.420	91.01	-1.10	1.70	 	 	 	 	 	 	 	 	 	 	 	 	 	 	 	 	 	 	1581514894	7.70	14.26
12/02/2020 13:41:35	120220	12022020	134135	90.82	12.418782	-57.214137	90.90	0.010	0.470	1.850	90.82	-1.10	2.20	 	 	 	 	 	 	 	 	 	 	 	 	 	 	 	 	 	 	1581514895	8.45	15.65
12/02/2020 13:41:36	120220	12022020	134136	91.02	12.418782	-57.214092	91.18	0.280	-0.040	1.580	91.08	-1.30	2.10	 	 	 	 	 	 	 	 	 	 	 	 	 	 	 	 	 	 	1581514896	9.42	17.45
12/02/2020 13:41:37	120220	12022020	134137	91.26	12.418782	-57.214045	91.35	0.350	-0.350	1.300	91.28	-1.70	1.70	 	 	 	 	 	 	 	 	 	 	 	 	 	 	 	 	 	 	1581514897	9.73	18.02
12/02/2020 13:41:38	120220	12022020	134138	91.18	12.418782	-57.214002	91.19	0.050	-0.020	1.330	91.14	-1.50	1.70	 	 	 	 	 	 	 	 	 	 	 	 	 	 	 	 	 	 	1581514898	9.16	16.96
12/02/2020 13:41:39	120220	12022020	134139	90.90	12.418782	-57.213963	90.91	-0.420	0.550	1.590	90.85	-0.90	2.00	 	 	 	 	 	 	 	 	 	 	 	 	 	 	 	 	 	 	1581514899	8.27	15.32
12/02/2020 13:41:40	120220	12022020	134140	90.71	12.418780	-57.213925	90.75	-0.500	0.380	1.680	90.69	-0.90	2.10	 	 	 	 	 	 	 	 	 	 	 	 	 	 	 	 	 	 	1581514900	8.18	15.15
12/02/2020 13:41:41	120220	12022020	134141	90.59	12.418780	-57.213880	90.61	0.030	-0.640	1.490	90.57	-1.90	2.00	 	 	 	 	 	 	 	 	 	 	 	 	 	 	 	 	 	 	1581514901	9.23	17.09
12/02/2020 13:41:42	120220	12022020	134142	90.46	12.418783	-57.213833	90.48	0.660	-1.420	1.290	90.43	-2.70	1.70	 	 	 	 	 	 	 	 	 	 	 	 	 	 	 	 	 	 	1581514902	10.01	18.54
12/02/2020 13:41:43	120220	12022020	134143	90.37	12.418785	-57.213788	90.41	0.770	-1.220	1.380	90.36	-2.70	1.80	 	 	 	 	 	 	 	 	 	 	 	 	 	 	 	 	 	 	1581514903	9.47	17.54
12/02/2020 13:41:44	120220	12022020	134144	90.30	12.418783	-57.213748	90.34	0.310	-0.380	1.610	90.28	-1.90	2.00	 	 	 	 	 	 	 	 	 	 	 	 	 	 	 	 	 	 	1581514904	8.46	15.67
12/02/2020 13:41:45	120220	12022020	134145	90.21	12.418783	-57.213710	90.27	-0.190	0.240	1.770	90.20	-1.20	2.20	 	 	 	 	 	 	 	 	 	 	 	 	 	 	 	 	 	 	1581514905	8.16	15.11
12/02/2020 13:41:46	120220	12022020	134146	90.13	12.418783	-57.213668	90.17	-0.310	0.280	1.930	90.11	-1.10	2.30	 	 	 	 	 	 	 	 	 	 	 	 	 	 	 	 	 	 	1581514906	8.73	16.17
12/02/2020 13:41:47	120220	12022020	134147	90.19	12.418783	-57.213625	90.31	-0.270	0.210	1.800	90.24	-1.20	2.30	 	 	 	 	 	 	 	 	 	 	 	 	 	 	 	 	 	 	1581514907	9.24	17.11
12/02/2020 13:41:48	120220	12022020	134148	90.58	12.418785	-57.213582	90.76	-0.230	0.010	1.530	90.69	-1.30	2.00	 	 	 	 	 	 	 	 	 	 	 	 	 	 	 	 	 	 	1581514908	9.05	16.76
12/02/2020 13:41:49	120220	12022020	134149	91.08	12.418785	-57.213538	91.23	-0.070	-0.580	1.390	91.16	-1.90	1.80	 	 	 	 	 	 	 	 	 	 	 	 	 	 	 	 	 	 	1581514909	9.20	17.04
12/02/2020 13:41:50	120220	12022020	134150	91.33	12.418783	-57.213493	91.40	0.260	-1.110	1.330	91.33	-2.50	1.80	 	 	 	 	 	 	 	 	 	 	 	 	 	 	 	 	 	 	1581514910	9.71	17.98
12/02/2020 13:41:51	120220	12022020	134151	91.23	12.418782	-57.213448	91.27	0.410	-0.680	1.300	91.21	-2.20	1.70	 	 	 	 	 	 	 	 	 	 	 	 	 	 	 	 	 	 	1581514911	9.45	17.50
12/02/2020 13:41:52	120220	12022020	134152	91.19	12.418783	-57.213410	91.27	0.080	0.550	1.100	91.20	-1.00	1.60	 	 	 	 	 	 	 	 	 	 	 	 	 	 	 	 	 	 	1581514912	8.22	15.22
12/02/2020 13:41:53	120220	12022020	134153	91.47	12.418787	-57.213373	91.52	-0.420	1.060	0.530	91.47	-0.30	1.10	 	 	 	 	 	 	 	 	 	 	 	 	 	 	 	 	 	 	1581514913	7.63	14.13
12/02/2020 13:41:54	120220	12022020	134154	91.73	12.418792	-57.213332	91.77	-0.350	-0.120	-0.180	91.75	-1.30	0.30	 	 	 	 	 	 	 	 	 	 	 	 	 	 	 	 	 	 	1581514914	8.85	16.39
12/02/2020 13:41:55	120220	12022020	134155	91.73	12.418795	-57.213282	91.72	0.270	-1.700	-0.310	91.71	-2.90	0.10	 	 	 	 	 	 	 	 	 	 	 	 	 	 	 	 	 	 	1581514915	10.60	19.63
12/02/2020 13:41:56	120220	12022020	134156	91.60	12.418793	-57.213232	91.59	0.670	-1.770	0.060	91.58	-3.30	0.40	 	 	 	 	 	 	 	 	 	 	 	 	 	 	 	 	 	 	1581514916	10.40	19.26
12/02/2020 13:41:57	120220	12022020	134157	91.56	12.418792	-57.213192	91.57	0.420	-0.370	0.560	91.56	-2.00	0.90	 	 	 	 	 	 	 	 	 	 	 	 	 	 	 	 	 	 	1581514917	8.56	15.85
12/02/2020 13:41:58	120220	12022020	134158	91.56	12.418790	-57.213157	91.59	-0.180	0.820	0.980	91.57	-0.70	1.40	 	 	 	 	 	 	 	 	 	 	 	 	 	 	 	 	 	 	1581514918	7.54	13.96
12/02/2020 13:41:59	120220	12022020	134159	91.67	12.418788	-57.213117	91.75	-0.650	0.920	1.230	91.71	-0.40	1.60	 	 	 	 	 	 	 	 	 	 	 	 	 	 	 	 	 	 	1581514919	8.29	15.35
12/02/2020 13:42:00	120220	12022020	134200	91.87	12.418785	-57.213073	91.94	-0.870	0.430	1.480	91.90	-0.90	1.90	 	 	 	 	 	 	 	 	 	 	 	 	 	 	 	 	 	 	1581514920	9.14	16.93
12/02/2020 13:42:01	120220	12022020	134201	91.95	12.418782	-57.213030	91.93	-0.690	-0.350	1.730	91.93	-1.60	2.10	 	 	 	 	 	 	 	 	 	 	 	 	 	 	 	 	 	 	1581514921	9.41	17.43
12/02/2020 13:42:02	120220	12022020	134202	91.80	12.418777	-57.212983	91.77	-0.010	-1.160	1.980	91.77	-2.40	2.40	1017.10	26.70	26.80	20.00	20.10	758.0	66.0	66.0	397.0	28.4	349.00	15.10	75.00	10.60	54286	6348.0	27.5	27.5	1581514922	9.71	17.98
12/02/2020 13:42:03	120220	12022020	134203	91.61	12.418772	-57.212938	91.58	0.810	-1.530	1.990	91.57	-2.90	2.40	 	 	 	 	 	 	 	 	 	 	 	 	 	 	 	 	 	 	1581514923	9.73	18.02
12/02/2020 13:42:04	120220	12022020	134204	91.38	12.418773	-57.212893	91.36	1.300	-1.220	1.430	91.36	-2.70	2.00	 	 	 	 	 	 	 	 	 	 	 	 	 	 	 	 	 	 	1581514924	9.47	17.54
12/02/2020 13:42:05	120220	12022020	134205	91.39	12.418780	-57.212852	91.43	0.960	0.050	0.540	91.43	-1.60	1.10	 	 	 	 	 	 	 	 	 	 	 	 	 	 	 	 	 	 	1581514925	8.97	16.61
12/02/2020 13:42:06	120220	12022020	134206	91.62	12.418787	-57.212815	91.68	-0.240	1.630	0.160	91.68	0.00	0.60	 	 	 	 	 	 	 	 	 	 	 	 	 	 	 	 	 	 	1581514926	7.71	14.28
12/02/2020 13:42:07	120220	12022020	134207	91.82	12.418788	-57.212782	91.81	-1.430	1.860	0.350	91.82	0.60	0.70	 	 	 	 	 	 	 	 	 	 	 	 	 	 	 	 	 	 	1581514927	7.35	13.61
12/02/2020 13:42:08	120220	12022020	134208	91.63	12.418783	-57.212738	91.52	-1.520	0.080	0.880	91.53	-1.00	1.20	 	 	 	 	 	 	 	 	 	 	 	 	 	 	 	 	 	 	1581514928	9.01	16.69
12/02/2020 13:42:09	120220	12022020	134209	91.17	12.418777	-57.212687	91.12	-0.430	-2.220	1.430	91.10	-3.30	1.80	 	 	 	 	 	 	 	 	 	 	 	 	 	 	 	 	 	 	1581514929	10.97	20.32
12/02/2020 13:42:10	120220	12022020	134210	90.97	12.418772	-57.212635	91.01	0.910	-3.030	1.760	90.97	-4.40	2.10	 	 	 	 	 	 	 	 	 	 	 	 	 	 	 	 	 	 	1581514930	11.02	20.41
12/02/2020 13:42:11	120220	12022020	134211	91.01	12.418770	-57.212592	91.05	1.360	-1.720	1.700	91.01	-2.00	1.90	 	 	 	 	 	 	 	 	 	 	 	 	 	 	 	 	 	 	1581514931	9.34	17.30
12/02/2020 13:42:12	120220	12022020	134212	91.03	12.418770	-57.212555	91.05	0.630	0.570	1.270	91.02	-1.20	1.70	 	 	 	 	 	 	 	 	 	 	 	 	 	 	 	 	 	 	1581514932	7.52	13.93
12/02/2020 13:42:13	120220	12022020	134213	90.96	12.418772	-57.212523	90.96	-0.520	2.090	1.060	90.95	0.80	1.50	 	 	 	 	 	 	 	 	 	 	 	 	 	 	 	 	 	 	1581514933	6.99	12.95
12/02/2020 13:42:14	120220	12022020	134214	90.90	12.418772	-57.212485	90.91	-1.120	1.900	0.960	90.89	0.60	1.40	 	 	 	 	 	 	 	 	 	 	 	 	 	 	 	 	 	 	1581514934	8.02	14.85
12/02/2020 13:42:15	120220	12022020	134215	90.90	12.418772	-57.212440	90.90	-0.880	0.520	0.710	90.90	-0.70	1.20	 	 	 	 	 	 	 	 	 	 	 	 	 	 	 	 	 	 	1581514935	9.49	17.58
12/02/2020 13:42:16	120220	12022020	134216	90.78	12.418773	-57.212392	90.79	-0.100	-1.030	0.570	90.78	-2.20	1.00	 	 	 	 	 	 	 	 	 	 	 	 	 	 	 	 	 	 	1581514936	10.20	18.89
12/02/2020 13:42:17	120220	12022020	134217	90.67	12.418773	-57.212343	90.67	0.640	-1.890	0.670	90.64	-3.20	1.10	 	 	 	 	 	 	 	 	 	 	 	 	 	 	 	 	 	 	1581514937	10.09	18.69
12/02/2020 13:42:18	120220	12022020	134218	90.60	12.418773	-57.212300	90.64	0.860	-1.630	0.980	90.60	-3.10	1.30	 	 	 	 	 	 	 	 	 	 	 	 	 	 	 	 	 	 	1581514938	9.30	17.22
12/02/2020 13:42:19	120220	12022020	134219	90.53	12.418772	-57.212260	90.54	0.600	-0.790	1.500	90.49	-2.30	1.80	 	 	 	 	 	 	 	 	 	 	 	 	 	 	 	 	 	 	1581514939	8.41	15.58
12/02/2020 13:42:20	120220	12022020	134220	90.26	12.418768	-57.212222	90.27	0.200	0.050	2.080	90.20	-1.50	2.40	 	 	 	 	 	 	 	 	 	 	 	 	 	 	 	 	 	 	1581514940	8.31	15.39
12/02/2020 13:42:21	120220	12022020	134221	89.99	12.418767	-57.212182	90.04	-0.180	0.670	2.270	89.96	-0.80	2.70	 	 	 	 	 	 	 	 	 	 	 	 	 	 	 	 	 	 	1581514941	8.46	15.67
12/02/2020 13:42:22	120220	12022020	134222	89.90	12.418767	-57.212140	90.00	-0.420	0.690	2.210	89.91	-0.70	2.60	 	 	 	 	 	 	 	 	 	 	 	 	 	 	 	 	 	 	1581514942	8.71	16.13
12/02/2020 13:42:23	120220	12022020	134223	90.03	12.418767	-57.212097	90.16	-0.480	0.100	2.070	90.07	-1.20	2.50	 	 	 	 	 	 	 	 	 	 	 	 	 	 	 	 	 	 	1581514943	9.26	17.15
12/02/2020 13:42:24	120220	12022020	134224	90.24	12.418767	-57.212050	90.36	-0.260	-0.800	1.830	90.28	-2.10	2.30	 	 	 	 	 	 	 	 	 	 	 	 	 	 	 	 	 	 	1581514944	9.71	17.98
12/02/2020 13:42:25	120220	12022020	134225	90.42	12.418768	-57.212003	90.53	0.080	-1.120	1.540	90.46	-2.50	2.00	 	 	 	 	 	 	 	 	 	 	 	 	 	 	 	 	 	 	1581514945	9.91	18.35
12/02/2020 13:42:26	120220	12022020	134226	90.57	12.418768	-57.211960	90.64	0.170	-0.350	1.290	90.58	-1.90	1.70	 	 	 	 	 	 	 	 	 	 	 	 	 	 	 	 	 	 	1581514946	8.97	16.61
12/02/2020 13:42:27	120220	12022020	134227	90.57	12.418770	-57.211923	90.60	0.060	0.270	1.180	90.56	-1.20	1.50	 	 	 	 	 	 	 	 	 	 	 	 	 	 	 	 	 	 	1581514947	8.04	14.89
12/02/2020 13:42:28	120220	12022020	134228	90.55	12.418772	-57.211882	90.59	0.130	-0.090	0.850	90.56	-1.40	1.40	 	 	 	 	 	 	 	 	 	 	 	 	 	 	 	 	 	 	1581514948	8.74	16.19
12/02/2020 13:42:29	120220	12022020	134229	90.58	12.418775	-57.211835	90.61	0.310	-0.580	0.460	90.59	-2.00	0.90	 	 	 	 	 	 	 	 	 	 	 	 	 	 	 	 	 	 	1581514949	9.77	18.09
12/02/2020 13:42:30	120220	12022020	134230	90.71	12.418777	-57.211790	90.78	0.230	-0.370	0.270	90.76	-1.80	0.70	 	 	 	 	 	 	 	 	 	 	 	 	 	 	 	 	 	 	1581514950	9.42	17.45
12/02/2020 13:42:31	120220	12022020	134231	90.96	12.418778	-57.211750	90.99	-0.050	0.010	0.170	90.98	-1.40	0.60	 	 	 	 	 	 	 	 	 	 	 	 	 	 	 	 	 	 	1581514951	8.59	15.91
12/02/2020 13:42:32	120220	12022020	134232	90.82	12.418777	-57.211708	90.73	-0.050	-0.290	0.520	90.73	-1.60	0.90	 	 	 	 	 	 	 	 	 	 	 	 	 	 	 	 	 	 	1581514952	8.83	16.35
12/02/2020 13:42:33	120220	12022020	134233	90.19	12.418775	-57.211662	90.22	0.160	-0.750	1.180	90.19	-2.10	1.50	 	 	 	 	 	 	 	 	 	 	 	 	 	 	 	 	 	 	1581514953	9.74	18.04
12/02/2020 13:42:34	120220	12022020	134234	90.09	12.418775	-57.211617	90.21	0.120	-0.450	1.590	90.14	-2.00	2.00	 	 	 	 	 	 	 	 	 	 	 	 	 	 	 	 	 	 	1581514954	9.56	17.71
12/02/2020 13:42:35	120220	12022020	134235	90.57	12.418773	-57.211577	90.80	-0.250	0.220	1.670	90.71	-1.30	2.10	 	 	 	 	 	 	 	 	 	 	 	 	 	 	 	 	 	 	1581514955	8.55	15.83
12/02/2020 13:42:36	120220	12022020	134236	91.20	12.418772	-57.211537	91.32	-0.510	0.220	1.740	91.26	-1.10	2.10	 	 	 	 	 	 	 	 	 	 	 	 	 	 	 	 	 	 	1581514956	8.47	15.69
12/02/2020 13:42:37	120220	12022020	134237	91.21	12.418767	-57.211492	91.18	-0.310	-0.580	2.150	91.13	-1.90	2.50	 	 	 	 	 	 	 	 	 	 	 	 	 	 	 	 	 	 	1581514957	9.54	17.67
12/02/2020 13:42:38	120220	12022020	134238	90.70	12.418762	-57.211443	90.66	0.130	-0.990	2.660	90.59	-2.40	3.00	 	 	 	 	 	 	 	 	 	 	 	 	 	 	 	 	 	 	1581514958	10.25	18.98
12/02/2020 13:42:39	120220	12022020	134239	90.29	12.418758	-57.211400	90.33	0.340	-0.330	2.620	90.25	-1.90	3.10	 	 	 	 	 	 	 	 	 	 	 	 	 	 	 	 	 	 	1581514959	9.36	17.33
12/02/2020 13:42:40	120220	12022020	134240	90.25	12.418760	-57.211360	90.34	0.210	0.500	1.750	90.27	-1.00	2.30	 	 	 	 	 	 	 	 	 	 	 	 	 	 	 	 	 	 	1581514960	8.28	15.33
12/02/2020 13:42:41	120220	12022020	134241	90.40	12.418768	-57.211320	90.46	-0.020	0.500	0.420	90.43	-0.90	1.00	 	 	 	 	 	 	 	 	 	 	 	 	 	 	 	 	 	 	1581514961	8.58	15.89
12/02/2020 13:42:42	120220	12022020	134242	90.49	12.418777	-57.211277	90.49	-0.050	-0.470	-0.550	90.48	-1.70	-0.00	 	 	 	 	 	 	 	 	 	 	 	 	 	 	 	 	 	 	1581514962	9.60	17.78
12/02/2020 13:42:43	120220	12022020	134243	90.43	12.418782	-57.211227	90.43	0.190	-1.540	-0.780	90.42	-2.80	-0.40	 	 	 	 	 	 	 	 	 	 	 	 	 	 	 	 	 	 	1581514963	10.43	19.32
12/02/2020 13:42:44	120220	12022020	134244	90.29	12.418780	-57.211178	90.26	0.300	-1.370	-0.350	90.24	-2.90	-0.00	 	 	 	 	 	 	 	 	 	 	 	 	 	 	 	 	 	 	1581514964	10.21	18.91
12/02/2020 13:42:45	120220	12022020	134245	90.01	12.418775	-57.211138	90.00	-0.060	0.110	0.310	89.96	-1.60	0.60	 	 	 	 	 	 	 	 	 	 	 	 	 	 	 	 	 	 	1581514965	8.67	16.06
12/02/2020 13:42:46	120220	12022020	134246	89.84	12.418772	-57.211103	89.90	-0.670	1.400	0.900	89.84	-0.10	1.20	 	 	 	 	 	 	 	 	 	 	 	 	 	 	 	 	 	 	1581514966	7.53	13.95
12/02/2020 13:42:47	120220	12022020	134247	89.86	12.418770	-57.211065	89.92	-0.800	1.030	1.380	89.86	-0.20	1.70	 	 	 	 	 	 	 	 	 	 	 	 	 	 	 	 	 	 	1581514967	8.12	15.04
12/02/2020 13:42:48	120220	12022020	134248	89.73	12.418767	-57.211017	89.75	-0.180	-0.730	1.880	89.67	-1.90	2.20	 	 	 	 	 	 	 	 	 	 	 	 	 	 	 	 	 	 	1581514968	10.07	18.65
12/02/2020 13:42:49	120220	12022020	134249	89.57	12.418767	-57.210965	89.68	0.530	-1.910	2.230	89.58	-3.20	2.60	 	 	 	 	 	 	 	 	 	 	 	 	 	 	 	 	 	 	1581514969	11.06	20.48
12/02/2020 13:42:50	120220	12022020	134250	89.79	12.418767	-57.210918	90.00	0.640	-1.410	2.410	89.87	-3.00	2.80	 	 	 	 	 	 	 	 	 	 	 	 	 	 	 	 	 	 	1581514970	9.88	18.30
12/02/2020 13:42:51	120220	12022020	134251	90.28	12.418765	-57.210880	90.47	0.190	-0.020	2.380	90.37	-1.60	2.80	 	 	 	 	 	 	 	 	 	 	 	 	 	 	 	 	 	 	1581514971	8.11	15.02
12/02/2020 13:42:52	120220	12022020	134252	90.59	12.418763	-57.210843	90.68	-0.150	0.700	2.290	90.61	-0.80	2.70	 	 	 	 	 	 	 	 	 	 	 	 	 	 	 	 	 	 	1581514972	7.76	14.37
12/02/2020 13:42:53	120220	12022020	134253	90.56	12.418763	-57.210800	90.56	-0.070	0.470	2.090	90.52	-0.90	2.60	 	 	 	 	 	 	 	 	 	 	 	 	 	 	 	 	 	 	1581514973	8.88	16.45
12/02/2020 13:42:54	120220	12022020	134254	90.37	12.418767	-57.210755	90.38	0.080	0.060	1.680	90.35	-1.30	2.20	 	 	 	 	 	 	 	 	 	 	 	 	 	 	 	 	 	 	1581514974	9.62	17.82
12/02/2020 13:42:55	120220	12022020	134255	90.34	12.418770	-57.210710	90.40	-0.030	-0.300	1.160	90.37	-1.70	1.70	 	 	 	 	 	 	 	 	 	 	 	 	 	 	 	 	 	 	1581514975	9.51	17.61
12/02/2020 13:42:56	120220	12022020	134256	90.54	12.418773	-57.210667	90.62	-0.300	-0.630	0.610	90.59	-2.00	1.10	 	 	 	 	 	 	 	 	 	 	 	 	 	 	 	 	 	 	1581514976	9.39	17.39
12/02/2020 13:42:57	120220	12022020	134257	90.74	12.418775	-57.210622	90.78	-0.430	-0.710	0.270	90.76	-2.10	0.70	 	 	 	 	 	 	 	 	 	 	 	 	 	 	 	 	 	 	1581514977	9.28	17.19
12/02/2020 13:42:58	120220	12022020	134258	90.81	12.418775	-57.210578	90.81	-0.150	-0.760	0.200	90.79	-2.20	0.60	 	 	 	 	 	 	 	 	 	 	 	 	 	 	 	 	 	 	1581514978	9.13	16.91
12/02/2020 13:42:59	120220	12022020	134259	90.60	12.418773	-57.210535	90.53	0.390	-0.900	0.500	90.52	-2.30	0.90	 	 	 	 	 	 	 	 	 	 	 	 	 	 	 	 	 	 	1581514979	9.47	17.54
12/02/2020 13:43:00	120220	12022020	134300	90.08	12.418772	-57.210488	90.11	0.650	-0.530	0.860	90.08	-2.10	1.30	 	 	 	 	 	 	 	 	 	 	 	 	 	 	 	 	 	 	1581514980	9.65	17.87
12/02/2020 13:43:01	120220	12022020	134301	89.98	12.418772	-57.210447	90.07	0.210	0.640	0.940	90.01	-1.00	1.40	 	 	 	 	 	 	 	 	 	 	 	 	 	 	 	 	 	 	1581514981	8.78	16.26
12/02/2020 13:43:02	120220	12022020	134302	90.33	12.418773	-57.210410	90.53	-0.660	1.430	0.830	90.45	-0.00	1.30	1017.20	26.70	26.70	20.10	20.10	762.0	67.0	67.0	397.0	28.4	352.00	15.10	79.00	10.50	54630	5990.0	27.5	27.5	1581514982	7.85	14.54
12/02/2020 13:43:03	120220	12022020	134303	90.94	12.418773	-57.210370	91.10	-1.080	0.690	0.680	91.05	-1.60	1.20	 	 	 	 	 	 	 	 	 	 	 	 	 	 	 	 	 	 	1581514983	8.49	15.72
12/02/2020 13:43:04	120220	12022020	134304	91.24	12.418770	-57.210322	91.23	-0.530	-1.100	0.950	91.20	-2.30	1.30	 	 	 	 	 	 	 	 	 	 	 	 	 	 	 	 	 	 	1581514984	10.15	18.80
12/02/2020 13:43:05	120220	12022020	134305	90.70	12.418763	-57.210270	90.54	0.480	-2.170	1.820	90.52	-3.40	2.60	 	 	 	 	 	 	 	 	 	 	 	 	 	 	 	 	 	 	1581514985	10.98	20.33
12/02/2020 13:43:06	120220	12022020	134306	89.81	12.418760	-57.210225	89.71	1.090	-1.440	2.290	89.68	-3.00	2.70	 	 	 	 	 	 	 	 	 	 	 	 	 	 	 	 	 	 	1581514986	9.82	18.19
12/02/2020 13:43:07	120220	12022020	134307	89.33	12.418762	-57.210187	89.37	0.940	0.040	1.890	89.30	-1.60	2.40	 	 	 	 	 	 	 	 	 	 	 	 	 	 	 	 	 	 	1581514987	8.12	15.04
12/02/2020 13:43:08	120220	12022020	134308	89.31	12.418770	-57.210148	89.39	0.350	0.660	1.000	89.33	-0.80	1.60	 	 	 	 	 	 	 	 	 	 	 	 	 	 	 	 	 	 	1581514988	8.17	15.13
12/02/2020 13:43:09	120220	12022020	134309	89.40	12.418777	-57.210105	89.44	-0.250	0.280	0.330	89.41	-1.10	0.80	 	 	 	 	 	 	 	 	 	 	 	 	 	 	 	 	 	 	1581514989	9.34	17.30
12/02/2020 13:43:10	120220	12022020	134310	89.36	12.418780	-57.210058	89.37	-0.680	-0.090	0.330	89.34	-1.50	0.70	 	 	 	 	 	 	 	 	 	 	 	 	 	 	 	 	 	 	1581514990	9.93	18.39
12/02/2020 13:43:11	120220	12022020	134311	89.23	12.418778	-57.210013	89.24	-0.930	0.220	0.940	89.20	-1.30	1.20	 	 	 	 	 	 	 	 	 	 	 	 	 	 	 	 	 	 	1581514991	9.32	17.26
12/02/2020 13:43:12	120220	12022020	134312	89.15	12.418772	-57.209973	89.21	-0.830	0.320	1.680	89.15	-1.10	2.00	 	 	 	 	 	 	 	 	 	 	 	 	 	 	 	 	 	 	1581514992	8.61	15.95
12/02/2020 13:43:13	120220	12022020	134313	89.19	12.418767	-57.209930	89.25	-0.100	-0.730	2.060	89.19	-1.90	2.40	 	 	 	 	 	 	 	 	 	 	 	 	 	 	 	 	 	 	1581514993	9.24	17.11
12/02/2020 13:43:14	120220	12022020	134314	89.14	12.418765	-57.209880	89.17	0.920	-1.960	2.350	89.12	-3.30	2.70	 	 	 	 	 	 	 	 	 	 	 	 	 	 	 	 	 	 	1581514994	10.61	19.65
12/02/2020 13:43:15	120220	12022020	134315	89.02	12.418767	-57.209832	89.06	1.200	-1.460	2.400	89.00	-1.90	2.70	 	 	 	 	 	 	 	 	 	 	 	 	 	 	 	 	 	 	1581514995	10.34	19.15
12/02/2020 13:43:16	120220	12022020	134316	89.01	12.418770	-57.209793	89.06	0.330	0.560	2.050	89.02	-1.20	2.50	 	 	 	 	 	 	 	 	 	 	 	 	 	 	 	 	 	 	1581514996	8.14	15.08
12/02/2020 13:43:17	120220	12022020	134317	89.12	12.418775	-57.209760	89.18	-0.920	2.050	1.460	89.14	0.50	1.50	 	 	 	 	 	 	 	 	 	 	 	 	 	 	 	 	 	 	1581514997	6.88	12.74
12/02/2020 13:43:18	120220	12022020	134318	89.29	12.418782	-57.209723	89.35	-1.190	1.330	0.670	89.33	0.10	1.20	 	 	 	 	 	 	 	 	 	 	 	 	 	 	 	 	 	 	1581514998	7.98	14.78
12/02/2020 13:43:19	120220	12022020	134319	89.53	12.418788	-57.209675	89.58	-0.320	-0.720	0.050	89.58	-1.80	0.60	 	 	 	 	 	 	 	 	 	 	 	 	 	 	 	 	 	 	1581514999	10.32	19.11
12/02/2020 13:43:20	120220	12022020	134320	89.85	12.418792	-57.209623	89.92	0.710	-2.140	-0.200	89.92	-3.40	0.20	 	 	 	 	 	 	 	 	 	 	 	 	 	 	 	 	 	 	1581515000	11.02	20.41
12/02/2020 13:43:21	120220	12022020	134321	90.09	12.418793	-57.209575	90.11	1.080	-2.140	0.210	90.10	-3.60	0.50	 	 	 	 	 	 	 	 	 	 	 	 	 	 	 	 	 	 	1581515001	10.01	18.54
12/02/2020 13:43:22	120220	12022020	134322	89.95	12.418790	-57.209533	89.96	0.680	-1.010	1.150	89.95	-2.60	1.40	 	 	 	 	 	 	 	 	 	 	 	 	 	 	 	 	 	 	1581515002	8.79	16.28
12/02/2020 13:43:23	120220	12022020	134323	89.68	12.418785	-57.209497	89.67	0.000	0.570	1.840	89.63	-1.10	2.20	 	 	 	 	 	 	 	 	 	 	 	 	 	 	 	 	 	 	1581515003	8.01	14.83
12/02/2020 13:43:24	120220	12022020	134324	89.61	12.418785	-57.209460	89.70	-0.630	1.860	1.670	89.65	0.30	2.20	 	 	 	 	 	 	 	 	 	 	 	 	 	 	 	 	 	 	1581515004	7.66	14.19
12/02/2020 13:43:25	120220	12022020	134325	90.02	12.418790	-57.209423	90.17	-1.010	1.930	0.920	90.13	0.60	1.50	 	 	 	 	 	 	 	 	 	 	 	 	 	 	 	 	 	 	1581515005	7.97	14.76
12/02/2020 13:43:26	120220	12022020	134326	90.59	12.418797	-57.209380	90.72	-0.860	0.310	0.130	90.71	-0.80	0.60	 	 	 	 	 	 	 	 	 	 	 	 	 	 	 	 	 	 	1581515006	9.19	17.02
12/02/2020 13:43:27	120220	12022020	134327	91.04	12.418798	-57.209330	91.06	-0.180	-1.960	-0.210	91.08	-3.10	0.20	 	 	 	 	 	 	 	 	 	 	 	 	 	 	 	 	 	 	1581515007	10.66	19.74
12/02/2020 13:43:28	120220	12022020	134328	90.97	12.418798	-57.209278	90.83	0.710	-3.070	0.140	90.88	-4.40	0.50	 	 	 	 	 	 	 	 	 	 	 	 	 	 	 	 	 	 	1581515008	10.92	20.22
12/02/2020 13:43:29	120220	12022020	134329	90.36	12.418795	-57.209232	90.18	1.280	-2.290	0.610	90.23	-3.90	1.00	 	 	 	 	 	 	 	 	 	 	 	 	 	 	 	 	 	 	1581515009	9.68	17.93
12/02/2020 13:43:30	120220	12022020	134330	90.05	12.418797	-57.209193	90.10	0.980	0.020	0.790	90.09	-1.80	1.20	 	 	 	 	 	 	 	 	 	 	 	 	 	 	 	 	 	 	1581515010	8.09	14.98
12/02/2020 13:43:31	120220	12022020	134331	90.55	12.418798	-57.209162	90.72	-0.150	2.320	0.570	90.70	0.60	1.00	 	 	 	 	 	 	 	 	 	 	 	 	 	 	 	 	 	 	1581515011	6.73	12.46
12/02/2020 13:43:32	120220	12022020	134332	91.29	12.418802	-57.209130	91.39	-1.260	2.670	0.200	91.40	1.40	0.60	 	 	 	 	 	 	 	 	 	 	 	 	 	 	 	 	 	 	1581515012	6.96	12.89
12/02/2020 13:43:33	120220	12022020	134333	91.54	12.418802	-57.209087	91.50	-1.300	0.570	0.370	91.52	-0.50	0.70	 	 	 	 	 	 	 	 	 	 	 	 	 	 	 	 	 	 	1581515013	9.10	16.85
12/02/2020 13:43:34	120220	12022020	134334	91.29	12.418797	-57.209033	91.22	-0.410	-1.850	0.950	91.21	-3.00	1.30	 	 	 	 	 	 	 	 	 	 	 	 	 	 	 	 	 	 	1581515014	11.16	20.67
12/02/2020 13:43:35	120220	12022020	134335	91.02	12.418793	-57.208983	91.02	0.460	-2.550	1.330	90.99	-4.00	1.70	 	 	 	 	 	 	 	 	 	 	 	 	 	 	 	 	 	 	1581515015	10.69	19.80
12/02/2020 13:43:36	120220	12022020	134336	91.04	12.418792	-57.208942	91.11	0.750	-1.490	1.320	91.07	-3.10	1.80	 	 	 	 	 	 	 	 	 	 	 	 	 	 	 	 	 	 	1581515016	8.69	16.09
12/02/2020 13:43:37	120220	12022020	134337	91.25	12.418793	-57.208907	91.33	0.710	-0.190	1.070	91.29	-1.80	1.50	 	 	 	 	 	 	 	 	 	 	 	 	 	 	 	 	 	 	1581515017	7.48	13.85
12/02/2020 13:43:38	120220	12022020	134338	91.37	12.418795	-57.208868	91.39	0.690	0.210	0.950	91.36	-1.20	1.40	 	 	 	 	 	 	 	 	 	 	 	 	 	 	 	 	 	 	1581515018	8.13	15.06
12/02/2020 13:43:39	120220	12022020	134339	91.30	12.418797	-57.208825	91.32	0.380	0.380	0.920	91.29	-0.80	1.30	 	 	 	 	 	 	 	 	 	 	 	 	 	 	 	 	 	 	1581515019	9.16	16.96
12/02/2020 13:43:40	120220	12022020	134340	91.34	12.418797	-57.208783	91.41	-0.380	0.930	0.890	91.38	-0.60	1.30	 	 	 	 	 	 	 	 	 	 	 	 	 	 	 	 	 	 	1581515020	8.75	16.21
12/02/2020 13:43:41	120220	12022020	134341	91.60	12.418797	-57.208747	91.71	-1.100	1.210	0.880	91.67	-0.20	1.30	 	 	 	 	 	 	 	 	 	 	 	 	 	 	 	 	 	 	1581515021	7.92	14.67
12/02/2020 13:43:42	120220	12022020	134342	91.80	12.418795	-57.208707	91.83	-1.010	0.110	1.050	91.81	-1.10	1.40	 	 	 	 	 	 	 	 	 	 	 	 	 	 	 	 	 	 	1581515022	8.39	15.54
12/02/2020 13:43:43	120220	12022020	134343	91.75	12.418792	-57.208658	91.73	-0.040	-1.820	1.320	91.70	-3.00	1.70	 	 	 	 	 	 	 	 	 	 	 	 	 	 	 	 	 	 	1581515023	10.10	18.71
12/02/2020 13:43:44	120220	12022020	134344	91.21	12.418788	-57.208608	91.23	0.910	-2.520	1.930	91.21	-4.00	2.20	 	 	 	 	 	 	 	 	 	 	 	 	 	 	 	 	 	 	1581515024	10.56	19.56
12/02/2020 13:43:45	120220	12022020	134345	90.69	12.418785	-57.208567	90.62	1.050	-1.390	2.390	90.58	-3.10	2.80	 	 	 	 	 	 	 	 	 	 	 	 	 	 	 	 	 	 	1581515025	9.08	16.82
12/02/2020 13:43:46	120220	12022020	134346	90.40	12.418785	-57.208530	90.48	0.360	0.530	1.970	90.43	-1.20	2.50	 	 	 	 	 	 	 	 	 	 	 	 	 	 	 	 	 	 	1581515026	7.51	13.91
12/02/2020 13:43:47	120220	12022020	134347	90.81	12.418790	-57.208497	90.99	-0.440	1.580	0.940	90.95	0.10	1.50	 	 	 	 	 	 	 	 	 	 	 	 	 	 	 	 	 	 	1581515027	7.25	13.43
12/02/2020 13:43:48	120220	12022020	134348	91.47	12.418795	-57.208457	91.57	-0.590	0.950	0.230	91.56	-0.30	0.70	 	 	 	 	 	 	 	 	 	 	 	 	 	 	 	 	 	 	1581515028	8.42	15.59
12/02/2020 13:43:49	120220	12022020	134349	91.73	12.418797	-57.208410	91.72	-0.010	-0.550	0.070	91.72	-1.80	0.50	 	 	 	 	 	 	 	 	 	 	 	 	 	 	 	 	 	 	1581515029	9.98	18.48
12/02/2020 13:43:50	120220	12022020	134350	91.60	12.418797	-57.208362	91.53	0.600	-1.260	0.340	91.54	-2.70	0.70	 	 	 	 	 	 	 	 	 	 	 	 	 	 	 	 	 	 	1581515030	10.31	19.09
12/02/2020 13:43:51	120220	12022020	134351	91.33	12.418793	-57.208318	91.29	0.550	-0.780	0.970	91.29	-1.80	1.60	 	 	 	 	 	 	 	 	 	 	 	 	 	 	 	 	 	 	1581515031	9.12	16.89
12/02/2020 13:43:52	120220	12022020	134352	91.24	12.418790	-57.208280	91.27	-0.060	-0.050	1.430	91.24	-1.60	1.80	 	 	 	 	 	 	 	 	 	 	 	 	 	 	 	 	 	 	1581515032	8.12	15.04
12/02/2020 13:43:53	120220	12022020	134353	91.25	12.418788	-57.208242	91.28	-0.590	0.300	1.600	91.25	-1.10	2.00	 	 	 	 	 	 	 	 	 	 	 	 	 	 	 	 	 	 	1581515033	8.14	15.08
12/02/2020 13:43:54	120220	12022020	134354	91.28	12.418788	-57.208202	91.33	-0.570	0.180	1.550	91.30	-1.20	2.00	 	 	 	 	 	 	 	 	 	 	 	 	 	 	 	 	 	 	1581515034	8.57	15.87
12/02/2020 13:43:55	120220	12022020	134355	91.38	12.418790	-57.208158	91.43	-0.020	-0.450	1.360	91.40	-1.80	1.80	 	 	 	 	 	 	 	 	 	 	 	 	 	 	 	 	 	 	1581515035	9.14	16.93
12/02/2020 13:43:56	120220	12022020	134356	91.41	12.418790	-57.208112	91.43	0.550	-1.090	1.370	91.41	-2.50	1.80	 	 	 	 	 	 	 	 	 	 	 	 	 	 	 	 	 	 	1581515036	9.71	17.98
12/02/2020 13:43:57	120220	12022020	134357	91.39	12.418788	-57.208067	91.39	0.610	-0.990	1.460	91.37	-2.50	1.80	 	 	 	 	 	 	 	 	 	 	 	 	 	 	 	 	 	 	1581515037	9.55	17.69
12/02/2020 13:43:58	120220	12022020	134358	91.24	12.418787	-57.208025	91.20	0.140	-0.210	1.530	91.19	-1.80	1.90	 	 	 	 	 	 	 	 	 	 	 	 	 	 	 	 	 	 	1581515038	8.70	16.11
12/02/2020 13:43:59	120220	12022020	134359	91.00	12.418787	-57.207987	90.97	-0.360	0.460	1.370	90.97	-1.00	1.80	 	 	 	 	 	 	 	 	 	 	 	 	 	 	 	 	 	 	1581515039	8.15	15.09
12/02/2020 13:44:00	120220	12022020	134400	90.95	12.418788	-57.207947	90.99	-0.410	0.400	0.860	90.98	-1.00	1.40	 	 	 	 	 	 	 	 	 	 	 	 	 	 	 	 	 	 	1581515040	8.58	15.89
12/02/2020 13:44:01	120220	12022020	134401	91.18	12.418792	-57.207902	91.24	-0.080	-0.150	0.270	91.23	-1.50	0.80	 	 	 	 	 	 	 	 	 	 	 	 	 	 	 	 	 	 	1581515041	9.36	17.33
12/02/2020 13:44:02	120220	12022020	134402	91.26	12.418795	-57.207857	91.21	0.280	-0.580	0.120	91.24	-2.00	0.50	1017.20	26.70	26.80	20.30	20.40	764.0	68.0	68.0	397.0	28.5	352.00	15.20	79.00	10.70	54934	18023.0	27.5	27.5	1581515042	9.67	17.91
12/02/2020 13:44:03	120220	12022020	134403	91.03	12.418797	-57.207813	90.93	0.380	-0.540	0.260	90.96	-2.00	0.60	 	 	 	 	 	 	 	 	 	 	 	 	 	 	 	 	 	 	1581515043	9.29	17.21
12/02/2020 13:44:04	120220	12022020	134404	90.73	12.418797	-57.207772	90.71	0.270	-0.380	0.710	90.70	-1.80	1.00	 	 	 	 	 	 	 	 	 	 	 	 	 	 	 	 	 	 	1581515044	8.81	16.32
12/02/2020 13:44:05	120220	12022020	134405	90.81	12.418795	-57.207728	90.94	0.120	-0.510	1.050	90.90	-1.90	1.50	 	 	 	 	 	 	 	 	 	 	 	 	 	 	 	 	 	 	1581515045	9.03	16.72
12/02/2020 13:44:06	120220	12022020	134406	91.27	12.418793	-57.207685	91.39	-0.130	-0.370	1.170	91.35	-1.90	1.60	 	 	 	 	 	 	 	 	 	 	 	 	 	 	 	 	 	 	1581515046	9.31	17.24
12/02/2020 13:44:07	120220	12022020	134407	91.58	12.418792	-57.207643	91.64	-0.530	0.320	1.480	91.59	-0.80	2.10	 	 	 	 	 	 	 	 	 	 	 	 	 	 	 	 	 	 	1581515047	8.72	16.15
12/02/2020 13:44:08	120220	12022020	134408	91.51	12.418787	-57.207605	91.49	-0.810	0.780	1.970	91.46	-0.70	2.30	 	 	 	 	 	 	 	 	 	 	 	 	 	 	 	 	 	 	1581515048	8.09	14.98
12/02/2020 13:44:09	120220	12022020	134409	91.19	12.418783	-57.207565	91.15	-0.460	0.080	2.310	91.13	-1.20	2.70	 	 	 	 	 	 	 	 	 	 	 	 	 	 	 	 	 	 	1581515049	8.59	15.91
12/02/2020 13:44:10	120220	12022020	134410	90.81	12.418782	-57.207517	90.77	0.620	-1.610	2.270	90.73	-2.80	2.70	 	 	 	 	 	 	 	 	 	 	 	 	 	 	 	 	 	 	1581515050	10.08	18.67
12/02/2020 13:44:11	120220	12022020	134411	90.58	12.418787	-57.207465	90.65	1.390	-2.220	1.840	90.60	-3.70	2.30	 	 	 	 	 	 	 	 	 	 	 	 	 	 	 	 	 	 	1581515051	11.02	20.41
12/02/2020 13:44:12	120220	12022020	134412	90.84	12.418790	-57.207422	90.99	0.900	-0.570	1.560	90.94	-2.40	2.00	 	 	 	 	 	 	 	 	 	 	 	 	 	 	 	 	 	 	1581515052	9.21	17.06
12/02/2020 13:44:13	120220	12022020	134413	91.45	12.418792	-57.207390	91.63	-0.470	1.640	1.300	91.59	-0.10	1.80	 	 	 	 	 	 	 	 	 	 	 	 	 	 	 	 	 	 	1581515053	6.85	12.69
12/02/2020 13:44:14	120220	12022020	134414	92.10	12.418792	-57.207357	92.22	-1.300	2.020	0.930	92.20	0.70	1.40	 	 	 	 	 	 	 	 	 	 	 	 	 	 	 	 	 	 	1581515054	6.79	12.58
12/02/2020 13:44:15	120220	12022020	134415	92.44	12.418792	-57.207313	92.46	-0.780	0.230	0.860	92.46	-0.90	1.20	 	 	 	 	 	 	 	 	 	 	 	 	 	 	 	 	 	 	1581515055	9.16	16.96
12/02/2020 13:44:16	120220	12022020	134416	92.38	12.418790	-57.207262	92.34	0.260	-1.620	1.160	92.34	-2.90	1.50	 	 	 	 	 	 	 	 	 	 	 	 	 	 	 	 	 	 	1581515056	10.91	20.21
12/02/2020 13:44:17	120220	12022020	134417	92.04	12.418787	-57.207213	91.98	0.680	-1.920	1.560	91.96	-3.40	1.90	 	 	 	 	 	 	 	 	 	 	 	 	 	 	 	 	 	 	1581515057	10.32	19.11
12/02/2020 13:44:18	120220	12022020	134418	91.74	12.418783	-57.207173	91.79	0.230	-0.780	1.800	91.73	-2.40	2.20	 	 	 	 	 	 	 	 	 	 	 	 	 	 	 	 	 	 	1581515058	8.56	15.85
12/02/2020 13:44:19	120220	12022020	134419	91.92	12.418782	-57.207138	92.09	-0.420	0.560	1.440	92.02	-1.00	1.90	 	 	 	 	 	 	 	 	 	 	 	 	 	 	 	 	 	 	1581515059	7.43	13.76
12/02/2020 13:44:20	120220	12022020	134420	92.42	12.418783	-57.207102	92.53	-0.520	0.800	0.650	92.48	-0.60	1.20	 	 	 	 	 	 	 	 	 	 	 	 	 	 	 	 	 	 	1581515060	7.80	14.45
12/02/2020 13:44:21	120220	12022020	134421	92.62	12.418785	-57.207058	92.62	-0.010	-0.060	0.070	92.61	-1.40	0.50	 	 	 	 	 	 	 	 	 	 	 	 	 	 	 	 	 	 	1581515061	9.21	17.06
12/02/2020 13:44:22	120220	12022020	134422	92.39	12.418787	-57.207010	92.30	0.570	-0.940	0.170	92.31	-2.30	0.50	 	 	 	 	 	 	 	 	 	 	 	 	 	 	 	 	 	 	1581515062	10.09	18.69
12/02/2020 13:44:23	120220	12022020	134423	92.09	12.418787	-57.206965	92.06	0.640	-0.910	0.490	92.06	-2.40	0.80	 	 	 	 	 	 	 	 	 	 	 	 	 	 	 	 	 	 	1581515063	9.66	17.89
12/02/2020 13:44:24	120220	12022020	134424	92.02	12.418785	-57.206923	92.07	0.110	-0.250	0.840	92.03	-1.80	1.20	 	 	 	 	 	 	 	 	 	 	 	 	 	 	 	 	 	 	1581515064	8.64	16.00
12/02/2020 13:44:25	120220	12022020	134425	92.12	12.418780	-57.206885	92.16	-0.530	0.220	1.240	92.13	-1.30	1.60	 	 	 	 	 	 	 	 	 	 	 	 	 	 	 	 	 	 	1581515065	8.27	15.32
12/02/2020 13:44:26	120220	12022020	134426	92.01	12.418775	-57.206843	91.98	-0.730	0.300	1.900	91.95	-1.20	2.20	 	 	 	 	 	 	 	 	 	 	 	 	 	 	 	 	 	 	1581515066	8.69	16.09
12/02/2020 13:44:27	120220	12022020	134427	91.67	12.418768	-57.206802	91.65	-0.440	0.230	2.430	91.60	-1.20	2.80	 	 	 	 	 	 	 	 	 	 	 	 	 	 	 	 	 	 	1581515067	9.04	16.74
12/02/2020 13:44:28	120220	12022020	134428	91.41	12.418765	-57.206760	91.41	0.030	-0.140	2.590	91.36	-1.50	3.00	 	 	 	 	 	 	 	 	 	 	 	 	 	 	 	 	 	 	1581515068	9.00	16.67
12/02/2020 13:44:29	120220	12022020	134429	91.21	12.418763	-57.206715	91.24	0.500	-1.020	2.340	91.19	-2.30	2.80	 	 	 	 	 	 	 	 	 	 	 	 	 	 	 	 	 	 	1581515069	9.46	17.52
12/02/2020 13:44:30	120220	12022020	134430	91.17	12.418767	-57.206667	91.23	0.790	-1.620	1.750	91.18	-3.00	2.20	 	 	 	 	 	 	 	 	 	 	 	 	 	 	 	 	 	 	1581515070	10.05	18.61
12/02/2020 13:44:31	120220	12022020	134431	91.23	12.418770	-57.206622	91.30	0.650	-1.180	1.370	91.25	-2.00	1.70	 	 	 	 	 	 	 	 	 	 	 	 	 	 	 	 	 	 	1581515071	9.61	17.80
12/02/2020 13:44:32	120220	12022020	134432	91.34	12.418770	-57.206582	91.43	0.010	0.250	1.320	91.37	-1.40	1.70	 	 	 	 	 	 	 	 	 	 	 	 	 	 	 	 	 	 	1581515072	8.50	15.74
12/02/2020 13:44:33	120220	12022020	134433	91.43	12.418767	-57.206547	91.48	-0.890	1.800	1.320	91.43	0.20	1.70	 	 	 	 	 	 	 	 	 	 	 	 	 	 	 	 	 	 	1581515073	7.43	13.76
12/02/2020 13:44:34	120220	12022020	134434	91.32	12.418765	-57.206512	91.28	-1.370	1.840	1.450	91.27	0.50	1.80	 	 	 	 	 	 	 	 	 	 	 	 	 	 	 	 	 	 	1581515074	7.45	13.80
12/02/2020 13:44:35	120220	12022020	134435	91.01	12.418763	-57.206467	90.96	-0.770	-0.300	1.500	90.95	-1.30	1.90	 	 	 	 	 	 	 	 	 	 	 	 	 	 	 	 	 	 	1581515075	9.35	17.32
12/02/2020 13:44:36	120220	12022020	134436	90.86	12.418763	-57.206413	90.88	0.500	-2.630	1.250	90.85	-3.80	1.70	 	 	 	 	 	 	 	 	 	 	 	 	 	 	 	 	 	 	1581515076	11.35	21.02
12/02/2020 13:44:37	120220	12022020	134437	90.86	12.418763	-57.206362	90.89	1.500	-2.970	1.110	90.86	-4.50	1.50	 	 	 	 	 	 	 	 	 	 	 	 	 	 	 	 	 	 	1581515077	10.94	20.26
12/02/2020 13:44:38	120220	12022020	134438	90.76	12.418765	-57.206320	90.74	1.420	-1.060	1.010	90.73	-2.90	1.40	 	 	 	 	 	 	 	 	 	 	 	 	 	 	 	 	 	 	1581515078	8.80	16.30
12/02/2020 13:44:39	120220	12022020	134439	90.78	12.418767	-57.206288	90.82	0.200	1.570	1.100	90.78	-0.20	1.50	 	 	 	 	 	 	 	 	 	 	 	 	 	 	 	 	 	 	1581515079	6.90	12.78
12/02/2020 13:44:40	120220	12022020	134440	91.20	12.418767	-57.206257	91.42	-1.340	2.940	1.300	91.35	1.40	1.70	 	 	 	 	 	 	 	 	 	 	 	 	 	 	 	 	 	 	1581515080	6.40	11.85
12/02/2020 13:44:41	120220	12022020	134441	91.92	12.418762	-57.206220	92.09	-2.000	1.920	1.400	92.04	0.80	1.80	 	 	 	 	 	 	 	 	 	 	 	 	 	 	 	 	 	 	1581515081	7.78	14.41
12/02/2020 13:44:42	120220	12022020	134442	92.21	12.418757	-57.206173	92.17	-1.010	-1.120	1.720	92.16	-2.10	2.00	 	 	 	 	 	 	 	 	 	 	 	 	 	 	 	 	 	 	1581515082	10.17	18.83
12/02/2020 13:44:43	120220	12022020	134443	91.72	12.418748	-57.206118	91.63	0.700	-3.430	2.530	91.60	-4.90	3.20	 	 	 	 	 	 	 	 	 	 	 	 	 	 	 	 	 	 	1581515083	11.83	21.91
12/02/2020 13:44:44	120220	12022020	134444	91.30	12.418743	-57.206070	91.33	1.500	-2.760	2.880	91.28	-4.40	3.30	 	 	 	 	 	 	 	 	 	 	 	 	 	 	 	 	 	 	1581515084	10.27	19.02
12/02/2020 13:44:45	120220	12022020	134445	91.42	12.418743	-57.206035	91.55	0.910	-0.010	2.360	91.48	-1.90	2.90	 	 	 	 	 	 	 	 	 	 	 	 	 	 	 	 	 	 	1581515085	7.20	13.33
12/02/2020 13:44:46	120220	12022020	134446	91.76	12.418747	-57.206008	91.82	-0.210	2.070	1.340	91.81	0.50	1.90	 	 	 	 	 	 	 	 	 	 	 	 	 	 	 	 	 	 	1581515086	5.84	10.82
12/02/2020 13:44:47	120220	12022020	134447	91.93	12.418752	-57.205973	91.92	-0.670	1.600	0.250	91.95	0.40	0.80	 	 	 	 	 	 	 	 	 	 	 	 	 	 	 	 	 	 	1581515087	7.42	13.74
12/02/2020 13:44:48	120220	12022020	134448	91.96	12.418757	-57.205925	91.93	-0.260	-0.400	-0.460	91.95	-1.50	0.00	 	 	 	 	 	 	 	 	 	 	 	 	 	 	 	 	 	 	1581515088	10.08	18.67
12/02/2020 13:44:49	120220	12022020	134449	91.97	12.418758	-57.205875	91.97	0.210	-1.430	-0.740	91.99	-2.80	-0.30	 	 	 	 	 	 	 	 	 	 	 	 	 	 	 	 	 	 	1581515089	10.73	19.87
12/02/2020 13:44:50	120220	12022020	134450	92.07	12.418758	-57.205833	92.07	0.050	-0.750	-0.590	92.08	-2.30	-0.20	 	 	 	 	 	 	 	 	 	 	 	 	 	 	 	 	 	 	1581515090	8.94	16.56
12/02/2020 13:44:51	120220	12022020	134451	92.06	12.418753	-57.205798	92.04	-0.500	0.180	0.190	92.03	-1.30	0.40	 	 	 	 	 	 	 	 	 	 	 	 	 	 	 	 	 	 	1581515091	7.39	13.69
12/02/2020 13:44:52	120220	12022020	134452	91.77	12.418743	-57.205762	91.69	-0.630	0.030	1.280	91.68	-1.30	1.50	 	 	 	 	 	 	 	 	 	 	 	 	 	 	 	 	 	 	1581515092	7.99	14.80
12/02/2020 13:44:53	120220	12022020	134453	91.26	12.418733	-57.205718	91.19	-0.040	-0.730	2.140	91.15	-2.10	2.40	 	 	 	 	 	 	 	 	 	 	 	 	 	 	 	 	 	 	1581515093	9.39	17.39
12/02/2020 13:44:54	120220	12022020	134454	90.67	12.418728	-57.205673	90.62	0.600	-0.820	2.690	90.55	-2.30	3.00	 	 	 	 	 	 	 	 	 	 	 	 	 	 	 	 	 	 	1581515094	9.70	17.96
12/02/2020 13:44:55	120220	12022020	134455	90.21	12.418725	-57.205632	90.22	0.540	0.010	2.580	90.15	-1.00	2.80	 	 	 	 	 	 	 	 	 	 	 	 	 	 	 	 	 	 	1581515095	8.54	15.82
12/02/2020 13:44:56	120220	12022020	134456	90.02	12.418728	-57.205597	90.08	0.010	0.610	2.060	90.02	-0.80	2.50	 	 	 	 	 	 	 	 	 	 	 	 	 	 	 	 	 	 	1581515096	7.66	14.19
12/02/2020 13:44:57	120220	12022020	134457	90.01	12.418732	-57.205557	90.04	-0.170	0.030	1.510	90.00	-1.90	1.80	 	 	 	 	 	 	 	 	 	 	 	 	 	 	 	 	 	 	1581515097	8.28	15.33
12/02/2020 13:44:58	120220	12022020	134458	89.82	12.418733	-57.205512	89.78	0.100	-0.840	1.340	89.75	-2.20	1.80	 	 	 	 	 	 	 	 	 	 	 	 	 	 	 	 	 	 	1581515098	9.60	17.78
12/02/2020 13:44:59	120220	12022020	134459	89.44	12.418733	-57.205468	89.38	0.240	-0.660	1.410	89.36	-2.20	1.80	 	 	 	 	 	 	 	 	 	 	 	 	 	 	 	 	 	 	1581515099	9.29	17.21
12/02/2020 13:45:00	120220	12022020	134500	89.08	12.418732	-57.205430	89.04	0.070	0.000	1.560	89.02	-1.50	1.90	 	 	 	 	 	 	 	 	 	 	 	 	 	 	 	 	 	 	1581515100	8.07	14.95
12/02/2020 13:45:01	120220	12022020	134501	88.84	12.418732	-57.205392	88.88	-0.060	0.100	1.690	88.84	-1.30	2.10	 	 	 	 	 	 	 	 	 	 	 	 	 	 	 	 	 	 	1581515101	7.98	14.78
12/02/2020 13:45:02	120220	12022020	134502	88.88	12.418732	-57.205350	88.93	0.030	-0.430	1.760	88.90	-1.70	2.20	1017.10	26.60	26.70	20.00	20.10	768.0	67.0	67.0	396.0	28.5	349.00	15.80	77.00	11.40	55151	10356.0	27.5	27.5	1581515102	8.84	16.37
12/02/2020 13:45:03	120220	12022020	134503	88.88	12.418732	-57.205305	88.87	0.150	-0.910	1.870	88.85	-2.30	2.30	 	 	 	 	 	 	 	 	 	 	 	 	 	 	 	 	 	 	1581515103	9.43	17.46
12/02/2020 13:45:04	120220	12022020	134504	88.60	12.418730	-57.205262	88.54	0.090	-0.780	2.190	88.52	-2.30	2.50	 	 	 	 	 	 	 	 	 	 	 	 	 	 	 	 	 	 	1581515104	9.15	16.95
12/02/2020 13:45:05	120220	12022020	134505	88.20	12.418728	-57.205222	88.18	-0.160	-0.060	2.490	88.14	-1.60	2.90	 	 	 	 	 	 	 	 	 	 	 	 	 	 	 	 	 	 	1581515105	8.46	15.67
12/02/2020 13:45:06	120220	12022020	134506	88.08	12.418728	-57.205185	88.18	-0.370	0.660	2.180	88.12	-0.80	2.70	 	 	 	 	 	 	 	 	 	 	 	 	 	 	 	 	 	 	1581515106	7.91	14.65
12/02/2020 13:45:07	120220	12022020	134507	88.42	12.418733	-57.205147	88.59	-0.280	0.510	1.320	88.52	-0.80	1.90	 	 	 	 	 	 	 	 	 	 	 	 	 	 	 	 	 	 	1581515107	8.13	15.06
12/02/2020 13:45:08	120220	12022020	134508	88.91	12.418740	-57.205103	89.05	0.130	-0.570	0.650	89.00	-1.80	1.10	 	 	 	 	 	 	 	 	 	 	 	 	 	 	 	 	 	 	1581515108	9.27	17.17
12/02/2020 13:45:09	120220	12022020	134509	89.13	12.418742	-57.205057	89.13	0.490	-1.300	0.680	89.12	-2.70	1.00	 	 	 	 	 	 	 	 	 	 	 	 	 	 	 	 	 	 	1581515109	9.94	18.41
12/02/2020 13:45:10	120220	12022020	134510	88.91	12.418742	-57.205013	88.83	0.450	-0.660	1.110	88.83	-2.20	1.40	 	 	 	 	 	 	 	 	 	 	 	 	 	 	 	 	 	 	1581515110	9.09	16.83
12/02/2020 13:45:11	120220	12022020	134511	88.53	12.418740	-57.204977	88.51	0.080	0.450	1.450	88.49	-1.10	1.80	 	 	 	 	 	 	 	 	 	 	 	 	 	 	 	 	 	 	1581515111	7.61	14.09
12/02/2020 13:45:12	120220	12022020	134512	88.49	12.418742	-57.204942	88.57	-0.170	0.560	1.250	88.53	-0.80	1.70	 	 	 	 	 	 	 	 	 	 	 	 	 	 	 	 	 	 	1581515112	7.72	14.30
12/02/2020 13:45:13	120220	12022020	134513	88.75	12.418747	-57.204898	88.83	-0.070	-0.320	0.690	88.81	-1.60	1.20	 	 	 	 	 	 	 	 	 	 	 	 	 	 	 	 	 	 	1581515113	9.02	16.71
12/02/2020 13:45:14	120220	12022020	134514	88.88	12.418752	-57.204852	88.88	0.090	-1.020	0.580	88.86	-2.40	1.00	 	 	 	 	 	 	 	 	 	 	 	 	 	 	 	 	 	 	1581515114	9.81	18.17
12/02/2020 13:45:15	120220	12022020	134515	88.78	12.418753	-57.204808	88.77	-0.100	-0.730	1.000	88.76	-2.20	1.30	 	 	 	 	 	 	 	 	 	 	 	 	 	 	 	 	 	 	1581515115	9.18	17.00
12/02/2020 13:45:16	120220	12022020	134516	88.75	12.418752	-57.204770	88.81	-0.470	-0.060	1.350	88.78	-1.60	1.70	 	 	 	 	 	 	 	 	 	 	 	 	 	 	 	 	 	 	1581515116	8.17	15.13
12/02/2020 13:45:17	120220	12022020	134517	88.86	12.418748	-57.204732	88.89	-0.440	0.060	1.420	88.86	-1.30	1.80	 	 	 	 	 	 	 	 	 	 	 	 	 	 	 	 	 	 	1581515117	8.15	15.09
12/02/2020 13:45:18	120220	12022020	134518	88.91	12.418748	-57.204688	88.93	0.040	-0.440	1.370	88.92	-1.80	1.80	 	 	 	 	 	 	 	 	 	 	 	 	 	 	 	 	 	 	1581515118	9.09	16.83
12/02/2020 13:45:19	120220	12022020	134519	88.96	12.418750	-57.204643	88.94	0.370	-0.580	1.270	88.96	-2.00	1.70	 	 	 	 	 	 	 	 	 	 	 	 	 	 	 	 	 	 	1581515119	9.55	17.69
12/02/2020 13:45:20	120220	12022020	134520	88.88	12.418753	-57.204602	88.81	0.200	0.060	1.170	88.84	-1.50	1.60	 	 	 	 	 	 	 	 	 	 	 	 	 	 	 	 	 	 	1581515120	8.77	16.24
12/02/2020 13:45:21	120220	12022020	134521	88.56	12.418755	-57.204565	88.46	-0.250	0.590	1.220	88.48	-0.80	1.60	 	 	 	 	 	 	 	 	 	 	 	 	 	 	 	 	 	 	1581515121	7.94	14.70
12/02/2020 13:45:22	120220	12022020	134522	88.40	12.418758	-57.204525	88.45	-0.420	0.120	0.940	88.44	-1.20	1.40	 	 	 	 	 	 	 	 	 	 	 	 	 	 	 	 	 	 	1581515122	8.46	15.67
12/02/2020 13:45:23	120220	12022020	134523	88.76	12.418763	-57.204480	88.83	-0.100	-0.670	0.410	88.84	-2.00	0.90	 	 	 	 	 	 	 	 	 	 	 	 	 	 	 	 	 	 	1581515123	9.45	17.50
12/02/2020 13:45:24	120220	12022020	134524	89.00	12.418767	-57.204437	88.95	0.480	-1.060	0.320	88.98	-2.40	0.70	 	 	 	 	 	 	 	 	 	 	 	 	 	 	 	 	 	 	1581515124	9.41	17.43
12/02/2020 13:45:25	120220	12022020	134525	88.73	12.418767	-57.204392	88.62	0.890	-1.150	0.730	88.64	-2.60	1.10	 	 	 	 	 	 	 	 	 	 	 	 	 	 	 	 	 	 	1581515125	9.24	17.11
12/02/2020 13:45:26	120220	12022020	134526	88.37	12.418767	-57.204350	88.36	0.570	-0.520	1.530	88.34	-2.10	1.80	 	 	 	 	 	 	 	 	 	 	 	 	 	 	 	 	 	 	1581515126	9.02	16.71
12/02/2020 13:45:27	120220	12022020	134527	88.36	12.418765	-57.204312	88.46	-0.340	0.630	2.130	88.40	-1.00	2.50	 	 	 	 	 	 	 	 	 	 	 	 	 	 	 	 	 	 	1581515127	8.10	15.00
12/02/2020 13:45:28	120220	12022020	134528	88.56	12.418763	-57.204275	88.62	-1.070	1.200	2.180	88.57	-0.20	2.60	 	 	 	 	 	 	 	 	 	 	 	 	 	 	 	 	 	 	1581515128	7.60	14.08
12/02/2020 13:45:29	120220	12022020	134529	88.57	12.418763	-57.204235	88.65	-0.930	0.420	2.060	88.59	-0.80	2.50	 	 	 	 	 	 	 	 	 	 	 	 	 	 	 	 	 	 	1581515129	8.52	15.78
12/02/2020 13:45:30	120220	12022020	134530	88.82	12.418765	-57.204188	88.98	-0.050	-1.060	1.660	88.91	-2.30	2.10	 	 	 	 	 	 	 	 	 	 	 	 	 	 	 	 	 	 	1581515130	9.92	18.37
12/02/2020 13:45:31	120220	12022020	134531	89.22	12.418768	-57.204140	89.32	0.710	-1.790	1.240	89.27	-3.20	1.70	 	 	 	 	 	 	 	 	 	 	 	 	 	 	 	 	 	 	1581515131	10.30	19.08
12/02/2020 13:45:32	120220	12022020	134532	89.33	12.418772	-57.204097	89.34	0.630	-0.940	0.930	89.31	-2.60	1.40	 	 	 	 	 	 	 	 	 	 	 	 	 	 	 	 	 	 	1581515132	9.16	16.96
12/02/2020 13:45:33	120220	12022020	134533	89.14	12.418773	-57.204060	89.08	-0.160	0.610	0.840	89.09	-0.40	1.30	 	 	 	 	 	 	 	 	 	 	 	 	 	 	 	 	 	 	1581515133	7.52	13.93
12/02/2020 13:45:34	120220	12022020	134534	88.87	12.418777	-57.204027	88.85	-0.730	1.120	0.770	88.84	-0.30	1.20	 	 	 	 	 	 	 	 	 	 	 	 	 	 	 	 	 	 	1581515134	7.31	13.54
12/02/2020 13:45:35	120220	12022020	134535	88.84	12.418780	-57.203985	88.87	-0.370	0.090	0.320	88.86	-1.10	0.80	 	 	 	 	 	 	 	 	 	 	 	 	 	 	 	 	 	 	1581515135	8.86	16.41
12/02/2020 13:45:36	120220	12022020	134536	88.97	12.418785	-57.203937	89.00	0.460	-1.150	-0.150	89.01	-2.50	0.30	 	 	 	 	 	 	 	 	 	 	 	 	 	 	 	 	 	 	1581515136	10.32	19.11
12/02/2020 13:45:37	120220	12022020	134537	89.24	12.418792	-57.203890	89.29	0.730	-1.100	-0.270	89.30	-2.60	0.10	 	 	 	 	 	 	 	 	 	 	 	 	 	 	 	 	 	 	1581515137	9.95	18.43
12/02/2020 13:45:38	120220	12022020	134538	89.50	12.418792	-57.203850	89.52	0.150	-0.060	0.380	89.52	-1.70	0.70	 	 	 	 	 	 	 	 	 	 	 	 	 	 	 	 	 	 	1581515138	8.24	15.26
12/02/2020 13:45:39	120220	12022020	134539	89.45	12.418788	-57.203815	89.46	-0.580	0.520	1.510	89.45	-0.90	1.80	 	 	 	 	 	 	 	 	 	 	 	 	 	 	 	 	 	 	1581515139	7.59	14.06
12/02/2020 13:45:40	120220	12022020	134540	89.31	12.418782	-57.203775	89.33	-0.590	-0.000	2.300	89.29	-1.30	2.70	 	 	 	 	 	 	 	 	 	 	 	 	 	 	 	 	 	 	1581515140	8.66	16.04
12/02/2020 13:45:41	120220	12022020	134541	89.31	12.418780	-57.203728	89.38	0.030	-0.660	2.410	89.34	-2.00	2.80	 	 	 	 	 	 	 	 	 	 	 	 	 	 	 	 	 	 	1581515141	9.66	17.89
12/02/2020 13:45:42	120220	12022020	134542	89.47	12.418783	-57.203683	89.56	0.490	-0.660	2.290	89.51	-2.10	2.70	 	 	 	 	 	 	 	 	 	 	 	 	 	 	 	 	 	 	1581515142	9.40	17.41
12/02/2020 13:45:43	120220	12022020	134543	89.70	12.418787	-57.203643	89.80	0.370	-0.250	2.010	89.76	-1.70	2.50	 	 	 	 	 	 	 	 	 	 	 	 	 	 	 	 	 	 	1581515143	8.64	16.00
12/02/2020 13:45:44	120220	12022020	134544	89.95	12.418788	-57.203603	90.01	-0.050	-0.010	1.620	89.97	-1.40	2.10	 	 	 	 	 	 	 	 	 	 	 	 	 	 	 	 	 	 	1581515144	8.38	15.52
12/02/2020 13:45:45	120220	12022020	134545	90.02	12.418790	-57.203563	90.03	-0.270	-0.120	1.320	90.02	-1.70	1.50	 	 	 	 	 	 	 	 	 	 	 	 	 	 	 	 	 	 	1581515145	8.71	16.13
12/02/2020 13:45:46	120220	12022020	134546	89.96	12.418792	-57.203520	89.91	-0.100	-0.330	0.890	89.93	-1.70	1.40	 	 	 	 	 	 	 	 	 	 	 	 	 	 	 	 	 	 	1581515146	9.09	16.83
12/02/2020 13:45:47	120220	12022020	134547	89.84	12.418797	-57.203477	89.79	0.190	-0.410	0.460	89.82	-1.80	0.70	 	 	 	 	 	 	 	 	 	 	 	 	 	 	 	 	 	 	1581515147	9.18	17.00
12/02/2020 13:45:48	120220	12022020	134548	89.86	12.418800	-57.203433	89.85	0.230	-0.200	0.100	89.88	-1.70	0.60	 	 	 	 	 	 	 	 	 	 	 	 	 	 	 	 	 	 	1581515148	9.00	16.67
12/02/2020 13:45:49	120220	12022020	134549	89.99	12.418805	-57.203393	89.97	-0.040	0.070	-0.120	90.01	-1.40	0.30	 	 	 	 	 	 	 	 	 	 	 	 	 	 	 	 	 	 	1581515149	8.56	15.85
12/02/2020 13:45:50	120220	12022020	134550	90.09	12.418807	-57.203353	90.07	-0.200	-0.310	-0.050	90.11	-1.60	0.40	 	 	 	 	 	 	 	 	 	 	 	 	 	 	 	 	 	 	1581515150	8.69	16.09
12/02/2020 13:45:51	120220	12022020	134551	90.13	12.418807	-57.203307	90.11	-0.000	-1.020	0.340	90.13	-2.40	0.70	 	 	 	 	 	 	 	 	 	 	 	 	 	 	 	 	 	 	1581515151	9.60	17.78
12/02/2020 13:45:52	120220	12022020	134552	90.11	12.418805	-57.203262	90.12	0.160	-0.850	0.970	90.12	-2.40	1.30	 	 	 	 	 	 	 	 	 	 	 	 	 	 	 	 	 	 	1581515152	9.71	17.98
12/02/2020 13:45:53	120220	12022020	134553	90.18	12.418800	-57.203222	90.19	-0.050	0.140	1.590	90.19	-1.40	1.90	 	 	 	 	 	 	 	 	 	 	 	 	 	 	 	 	 	 	1581515153	8.55	15.83
12/02/2020 13:45:54	120220	12022020	134554	90.20	12.418797	-57.203183	90.19	-0.360	0.740	1.980	90.18	-0.70	2.30	 	 	 	 	 	 	 	 	 	 	 	 	 	 	 	 	 	 	1581515154	7.92	14.67
12/02/2020 13:45:55	120220	12022020	134555	90.08	12.418797	-57.203143	90.04	-0.280	0.250	2.050	90.04	-1.10	2.50	 	 	 	 	 	 	 	 	 	 	 	 	 	 	 	 	 	 	1581515155	8.62	15.96
12/02/2020 13:45:56	120220	12022020	134556	89.89	12.418798	-57.203097	89.85	0.250	-0.770	1.910	89.86	-2.10	2.40	 	 	 	 	 	 	 	 	 	 	 	 	 	 	 	 	 	 	1581515156	9.82	18.19
12/02/2020 13:45:57	120220	12022020	134557	89.84	12.418803	-57.203048	89.86	0.700	-1.250	1.690	89.88	-2.70	2.20	 	 	 	 	 	 	 	 	 	 	 	 	 	 	 	 	 	 	1581515157	10.10	18.71
12/02/2020 13:45:58	120220	12022020	134558	90.24	12.418807	-57.203005	90.36	0.570	-0.860	1.290	90.36	-2.40	1.80	 	 	 	 	 	 	 	 	 	 	 	 	 	 	 	 	 	 	1581515158	9.38	17.37
12/02/2020 13:45:59	120220	12022020	134559	90.86	12.418808	-57.202965	90.96	-0.050	-0.020	1.090	90.97	-1.60	1.50	 	 	 	 	 	 	 	 	 	 	 	 	 	 	 	 	 	 	1581515159	8.47	15.69
12/02/2020 13:46:00	120220	12022020	134600	91.19	12.418808	-57.202927	91.17	-0.710	0.830	1.390	91.20	-0.70	1.80	 	 	 	 	 	 	 	 	 	 	 	 	 	 	 	 	 	 	1581515160	8.04	14.89
12/02/2020 13:46:01	120220	12022020	134601	91.12	12.418805	-57.202888	91.08	-0.960	1.090	1.640	91.12	-0.30	2.00	 	 	 	 	 	 	 	 	 	 	 	 	 	 	 	 	 	 	1581515161	8.02	14.85
12/02/2020 13:46:02	120220	12022020	134602	90.97	12.418803	-57.202848	90.88	-0.490	0.050	1.580	90.92	-1.20	2.00	1017.20	26.60	26.60	19.60	19.70	652.0	65.0	65.0	397.0	28.5	352.00	16.30	78.00	11.80	50597	13894.0	27.5	27.5	1581515162	8.79	16.28
12/02/2020 13:46:03	120220	12022020	134603	90.72	12.418805	-57.202798	90.63	0.450	-1.670	1.440	90.67	-2.90	1.90	 	 	 	 	 	 	 	 	 	 	 	 	 	 	 	 	 	 	1581515163	10.30	19.08
12/02/2020 13:46:04	120220	12022020	134604	90.63	12.418808	-57.202748	90.64	1.060	-2.240	0.940	90.67	-3.70	1.50	 	 	 	 	 	 	 	 	 	 	 	 	 	 	 	 	 	 	1581515164	10.77	19.95
12/02/2020 13:46:05	120220	12022020	134605	91.00	12.418813	-57.202705	91.10	0.790	-0.930	0.540	91.11	-2.60	1.00	 	 	 	 	 	 	 	 	 	 	 	 	 	 	 	 	 	 	1581515165	9.19	17.02
12/02/2020 13:46:06	120220	12022020	134606	91.59	12.418815	-57.202670	91.69	-0.080	0.840	0.660	91.69	-0.80	1.10	 	 	 	 	 	 	 	 	 	 	 	 	 	 	 	 	 	 	1581515166	7.40	13.70
12/02/2020 13:46:07	120220	12022020	134607	91.92	12.418813	-57.202635	91.92	-0.760	1.480	1.040	91.94	0.00	1.40	 	 	 	 	 	 	 	 	 	 	 	 	 	 	 	 	 	 	1581515167	7.45	13.80
12/02/2020 13:46:08	120220	12022020	134608	91.96	12.418810	-57.202593	91.94	-0.860	0.900	1.390	91.95	-0.40	1.80	 	 	 	 	 	 	 	 	 	 	 	 	 	 	 	 	 	 	1581515168	8.77	16.24
12/02/2020 13:46:09	120220	12022020	134609	91.91	12.418807	-57.202548	91.91	-0.520	-0.150	1.830	91.90	-1.40	2.20	 	 	 	 	 	 	 	 	 	 	 	 	 	 	 	 	 	 	1581515169	9.61	17.80
12/02/2020 13:46:10	120220	12022020	134610	91.92	12.418805	-57.202502	91.96	0.080	-1.330	1.960	91.93	-2.60	2.40	 	 	 	 	 	 	 	 	 	 	 	 	 	 	 	 	 	 	1581515170	9.84	18.22
12/02/2020 13:46:11	120220	12022020	134611	91.97	12.418803	-57.202453	91.98	0.670	-2.140	1.780	91.97	-3.50	2.10	 	 	 	 	 	 	 	 	 	 	 	 	 	 	 	 	 	 	1581515171	10.05	18.61
12/02/2020 13:46:12	120220	12022020	134612	91.91	12.418803	-57.202408	91.89	0.890	-1.660	1.630	91.89	-3.20	2.10	 	 	 	 	 	 	 	 	 	 	 	 	 	 	 	 	 	 	1581515172	9.70	17.96
12/02/2020 13:46:13	120220	12022020	134613	91.82	12.418803	-57.202368	91.81	0.500	0.160	1.390	91.81	-1.60	1.90	 	 	 	 	 	 	 	 	 	 	 	 	 	 	 	 	 	 	1581515173	8.36	15.48
12/02/2020 13:46:14	120220	12022020	134614	91.84	12.418807	-57.202335	91.85	-0.350	1.900	0.880	91.86	0.30	1.40	 	 	 	 	 	 	 	 	 	 	 	 	 	 	 	 	 	 	1581515174	7.23	13.39
12/02/2020 13:46:15	120220	12022020	134615	92.09	12.418810	-57.202298	92.13	-1.160	2.100	0.110	92.15	0.80	0.70	 	 	 	 	 	 	 	 	 	 	 	 	 	 	 	 	 	 	1581515175	7.60	14.08
12/02/2020 13:46:16	120220	12022020	134616	92.40	12.418812	-57.202257	92.40	-1.210	0.470	-0.400	92.43	-0.60	0.10	 	 	 	 	 	 	 	 	 	 	 	 	 	 	 	 	 	 	1581515176	9.05	16.76
12/02/2020 13:46:17	120220	12022020	134617	92.41	12.418812	-57.202205	92.30	-0.160	-1.990	-0.360	92.36	-3.00	0.00	 	 	 	 	 	 	 	 	 	 	 	 	 	 	 	 	 	 	1581515177	10.65	19.72
12/02/2020 13:46:18	120220	12022020	134618	92.06	12.418808	-57.202152	91.91	1.250	-3.200	0.080	91.96	-4.60	0.40	 	 	 	 	 	 	 	 	 	 	 	 	 	 	 	 	 	 	1581515178	11.23	20.80
12/02/2020 13:46:19	120220	12022020	134619	91.64	12.418807	-57.202107	91.56	1.590	-1.820	0.780	91.58	-3.60	1.10	 	 	 	 	 	 	 	 	 	 	 	 	 	 	 	 	 	 	1581515179	9.57	17.72
12/02/2020 13:46:20	120220	12022020	134620	91.54	12.418805	-57.202073	91.59	0.490	0.720	1.410	91.58	-1.00	1.80	 	 	 	 	 	 	 	 	 	 	 	 	 	 	 	 	 	 	1581515180	7.19	13.32
12/02/2020 13:46:21	120220	12022020	134621	91.86	12.418802	-57.202042	91.96	-1.030	2.170	1.820	91.95	0.70	2.20	 	 	 	 	 	 	 	 	 	 	 	 	 	 	 	 	 	 	1581515181	6.62	12.26
12/02/2020 13:46:22	120220	12022020	134622	92.26	12.418798	-57.202005	92.31	-1.620	1.670	2.110	92.30	0.40	2.50	 	 	 	 	 	 	 	 	 	 	 	 	 	 	 	 	 	 	1581515182	8.01	14.83
12/02/2020 13:46:23	120220	12022020	134623	92.37	12.418793	-57.201958	92.37	-0.900	-0.140	2.360	92.37	-2.50	2.90	 	 	 	 	 	 	 	 	 	 	 	 	 	 	 	 	 	 	1581515183	9.86	18.26
12/02/2020 13:46:24	120220	12022020	134624	92.32	12.418788	-57.201907	92.31	0.390	-1.780	2.530	92.30	-3.00	2.90	 	 	 	 	 	 	 	 	 	 	 	 	 	 	 	 	 	 	1581515184	10.76	19.93
12/02/2020 13:46:25	120220	12022020	134625	92.16	12.418785	-57.201858	92.15	1.280	-2.180	2.510	92.13	-3.60	2.90	 	 	 	 	 	 	 	 	 	 	 	 	 	 	 	 	 	 	1581515185	10.29	19.06
12/02/2020 13:46:26	120220	12022020	134626	91.95	12.418785	-57.201817	91.93	1.200	-1.120	2.030	91.92	-2.70	2.50	 	 	 	 	 	 	 	 	 	 	 	 	 	 	 	 	 	 	1581515186	9.03	16.72
12/02/2020 13:46:27	120220	12022020	134627	91.77	12.418788	-57.201778	91.76	0.350	0.470	1.290	91.75	-1.20	1.80	 	 	 	 	 	 	 	 	 	 	 	 	 	 	 	 	 	 	1581515187	7.88	14.59
12/02/2020 13:46:28	120220	12022020	134628	91.87	12.418795	-57.201743	91.96	-0.630	1.510	0.290	91.97	-0.00	0.90	 	 	 	 	 	 	 	 	 	 	 	 	 	 	 	 	 	 	1581515188	7.70	14.26
12/02/2020 13:46:29	120220	12022020	134629	92.46	12.418800	-57.201705	92.55	-1.190	1.560	-0.520	92.57	0.20	0.00	 	 	 	 	 	 	 	 	 	 	 	 	 	 	 	 	 	 	1581515189	8.18	15.15
12/02/2020 13:46:30	120220	12022020	134630	92.82	12.418800	-57.201663	92.80	-0.920	0.320	-0.600	92.82	-0.80	-0.20	 	 	 	 	 	 	 	 	 	 	 	 	 	 	 	 	 	 	1581515190	8.91	16.50
12/02/2020 13:46:31	120220	12022020	134631	92.60	12.418795	-57.201613	92.47	0.030	-1.650	-0.150	92.50	-2.80	0.20	 	 	 	 	 	 	 	 	 	 	 	 	 	 	 	 	 	 	1581515191	10.29	19.06
12/02/2020 13:46:32	120220	12022020	134632	92.14	12.418790	-57.201563	92.08	0.860	-2.500	0.580	92.08	-3.90	0.90	 	 	 	 	 	 	 	 	 	 	 	 	 	 	 	 	 	 	1581515192	10.72	19.85
12/02/2020 13:46:33	120220	12022020	134633	92.00	12.418785	-57.201520	92.04	0.970	-1.400	1.070	92.02	-3.00	1.50	 	 	 	 	 	 	 	 	 	 	 	 	 	 	 	 	 	 	1581515193	9.15	16.95
12/02/2020 13:46:34	120220	12022020	134634	92.13	12.418783	-57.201485	92.17	0.510	0.230	1.190	92.15	-1.40	1.60	 	 	 	 	 	 	 	 	 	 	 	 	 	 	 	 	 	 	1581515194	7.47	13.83
12/02/2020 13:46:35	120220	12022020	134635	92.15	12.418783	-57.201448	92.16	0.120	0.830	1.360	92.14	-0.80	1.90	 	 	 	 	 	 	 	 	 	 	 	 	 	 	 	 	 	 	1581515195	7.68	14.22
12/02/2020 13:46:36	120220	12022020	134636	92.07	12.418782	-57.201407	92.08	0.050	0.400	1.680	92.06	-0.90	2.10	 	 	 	 	 	 	 	 	 	 	 	 	 	 	 	 	 	 	1581515196	9.12	16.89
12/02/2020 13:46:37	120220	12022020	134637	92.07	12.418778	-57.201360	92.11	-0.040	0.070	1.890	92.07	-1.40	2.40	 	 	 	 	 	 	 	 	 	 	 	 	 	 	 	 	 	 	1581515197	9.72	18.00
12/02/2020 13:46:38	120220	12022020	134638	92.11	12.418777	-57.201317	92.16	-0.360	0.020	1.950	92.12	-1.40	2.40	 	 	 	 	 	 	 	 	 	 	 	 	 	 	 	 	 	 	1581515198	9.10	16.85
12/02/2020 13:46:39	120220	12022020	134639	92.12	12.418773	-57.201275	92.15	-0.650	-0.190	1.920	92.11	-1.60	2.40	 	 	 	 	 	 	 	 	 	 	 	 	 	 	 	 	 	 	1581515199	8.82	16.33
12/02/2020 13:46:40	120220	12022020	134640	92.04	12.418772	-57.201233	92.07	-0.590	-0.500	1.920	92.02	-1.90	2.30	 	 	 	 	 	 	 	 	 	 	 	 	 	 	 	 	 	 	1581515200	9.04	16.74
12/02/2020 13:46:41	120220	12022020	134641	91.93	12.418767	-57.201190	91.95	-0.160	-0.730	1.870	91.90	-2.10	2.30	 	 	 	 	 	 	 	 	 	 	 	 	 	 	 	 	 	 	1581515201	9.20	17.04
12/02/2020 13:46:42	120220	12022020	134642	91.74	12.418765	-57.201147	91.72	0.370	-0.610	1.590	91.68	-2.10	2.10	 	 	 	 	 	 	 	 	 	 	 	 	 	 	 	 	 	 	1581515202	9.09	16.83
12/02/2020 13:46:43	120220	12022020	134643	91.42	12.418765	-57.201105	91.37	0.690	-0.360	1.000	91.35	-1.80	1.50	 	 	 	 	 	 	 	 	 	 	 	 	 	 	 	 	 	 	1581515203	8.79	16.28
12/02/2020 13:46:44	120220	12022020	134644	91.12	12.418770	-57.201063	91.08	0.740	-0.440	0.460	91.07	-1.80	0.90	 	 	 	 	 	 	 	 	 	 	 	 	 	 	 	 	 	 	1581515204	9.02	16.71
12/02/2020 13:46:45	120220	12022020	134645	90.84	12.418775	-57.201018	90.85	0.510	-0.490	0.250	90.84	-1.90	0.70	 	 	 	 	 	 	 	 	 	 	 	 	 	 	 	 	 	 	1581515205	9.44	17.48
12/02/2020 13:46:46	120220	12022020	134646	90.70	12.418777	-57.200975	90.68	0.110	-0.140	0.230	90.68	-1.60	0.70	 	 	 	 	 	 	 	 	 	 	 	 	 	 	 	 	 	 	1581515206	9.14	16.93
12/02/2020 13:46:47	120220	12022020	134647	90.64	12.418777	-57.200933	90.64	-0.120	0.100	0.540	90.63	-1.30	0.90	 	 	 	 	 	 	 	 	 	 	 	 	 	 	 	 	 	 	1581515207	8.77	16.24
12/02/2020 13:46:48	120220	12022020	134648	90.64	12.418773	-57.200890	90.69	-0.090	-0.070	1.270	90.65	-1.40	1.60	 	 	 	 	 	 	 	 	 	 	 	 	 	 	 	 	 	 	1581515208	9.13	16.91
12/02/2020 13:46:49	120220	12022020	134649	90.74	12.418767	-57.200847	90.81	-0.150	-0.130	1.960	90.76	-1.60	2.30	 	 	 	 	 	 	 	 	 	 	 	 	 	 	 	 	 	 	1581515209	9.49	17.58
12/02/2020 13:46:50	120220	12022020	134650	90.81	12.418762	-57.200803	90.84	-0.490	0.270	2.430	90.80	-1.20	2.80	 	 	 	 	 	 	 	 	 	 	 	 	 	 	 	 	 	 	1581515210	8.94	16.56
12/02/2020 13:46:51	120220	12022020	134651	90.72	12.418758	-57.200765	90.71	-0.810	0.480	2.750	90.69	-0.90	3.10	 	 	 	 	 	 	 	 	 	 	 	 	 	 	 	 	 	 	1581515211	8.32	15.41
12/02/2020 13:46:52	120220	12022020	134652	90.52	12.418757	-57.200723	90.51	-0.470	-0.470	2.760	90.49	-1.70	3.20	 	 	 	 	 	 	 	 	 	 	 	 	 	 	 	 	 	 	1581515212	8.81	16.32
12/02/2020 13:46:53	120220	12022020	134653	90.43	12.418758	-57.200673	90.45	0.560	-2.100	2.230	90.45	-3.30	2.70	 	 	 	 	 	 	 	 	 	 	 	 	 	 	 	 	 	 	1581515213	10.44	19.33
12/02/2020 13:46:54	120220	12022020	134654	90.53	12.418763	-57.200622	90.52	1.380	-2.370	1.520	90.54	-3.90	2.00	 	 	 	 	 	 	 	 	 	 	 	 	 	 	 	 	 	 	1581515214	10.98	20.33
12/02/2020 13:46:55	120220	12022020	134655	90.59	12.418768	-57.200580	90.56	1.070	-0.460	1.030	90.60	-2.30	1.50	 	 	 	 	 	 	 	 	 	 	 	 	 	 	 	 	 	 	1581515215	9.10	16.85
12/02/2020 13:46:56	120220	12022020	134656	90.64	12.418770	-57.200547	90.61	-0.190	1.980	0.670	90.65	0.20	1.10	 	 	 	 	 	 	 	 	 	 	 	 	 	 	 	 	 	 	1581515216	6.91	12.80
12/02/2020 13:46:57	120220	12022020	134657	90.77	12.418772	-57.200515	90.78	-1.410	2.920	0.280	90.81	1.50	0.80	 	 	 	 	 	 	 	 	 	 	 	 	 	 	 	 	 	 	1581515217	6.71	12.43
12/02/2020 13:46:58	120220	12022020	134658	91.03	12.418775	-57.200475	91.05	-1.620	1.610	-0.170	91.08	0.50	0.30	 	 	 	 	 	 	 	 	 	 	 	 	 	 	 	 	 	 	1581515218	8.31	15.39
12/02/2020 13:46:59	120220	12022020	134659	91.17	12.418775	-57.200427	91.09	-0.670	-1.210	-0.390	91.13	-2.20	0.00	 	 	 	 	 	 	 	 	 	 	 	 	 	 	 	 	 	 	1581515219	10.36	19.19
12/02/2020 13:47:00	120220	12022020	134700	90.81	12.418775	-57.200372	90.67	0.780	-3.670	0.060	90.71	-4.80	0.40	 	 	 	 	 	 	 	 	 	 	 	 	 	 	 	 	 	 	1581515220	11.57	21.43
12/02/2020 13:47:01	120220	12022020	134701	90.42	12.418772	-57.200322	90.38	1.590	-3.520	0.700	90.39	-5.10	1.00	 	 	 	 	 	 	 	 	 	 	 	 	 	 	 	 	 	 	1581515221	10.82	20.04
12/02/2020 13:47:02	120220	12022020	134702	90.43	12.418772	-57.200283	90.46	1.140	-0.800	1.050	90.46	-2.70	1.40	1017.20	26.70	26.70	19.90	20.00	684.0	66.0	66.0	400.0	28.5	350.00	15.60	77.00	11.00	51944	13439.0	27.5	27.5	1581515222	8.06	14.93
12/02/2020 13:47:03	120220	12022020	134703	90.63	12.418772	-57.200253	90.69	-0.140	2.010	1.250	90.67	0.30	1.60	 	 	 	 	 	 	 	 	 	 	 	 	 	 	 	 	 	 	1581515223	6.12	11.33
12/02/2020 13:47:04	120220	12022020	134704	90.87	12.418770	-57.200222	90.97	-1.250	2.930	1.470	90.93	1.50	1.90	 	 	 	 	 	 	 	 	 	 	 	 	 	 	 	 	 	 	1581515224	6.67	12.35
12/02/2020 13:47:05	120220	12022020	134705	91.17	12.418765	-57.200182	91.23	-1.390	1.640	1.640	91.20	0.50	2.00	 	 	 	 	 	 	 	 	 	 	 	 	 	 	 	 	 	 	1581515225	8.67	16.06
12/02/2020 13:47:06	120220	12022020	134706	91.11	12.418762	-57.200133	91.05	-0.670	-0.500	1.840	91.05	-1.60	2.20	 	 	 	 	 	 	 	 	 	 	 	 	 	 	 	 	 	 	1581515226	10.41	19.28
12/02/2020 13:47:07	120220	12022020	134707	90.68	12.418760	-57.200083	90.68	0.180	-1.900	1.950	90.68	-3.20	2.30	 	 	 	 	 	 	 	 	 	 	 	 	 	 	 	 	 	 	1581515227	10.55	19.54
12/02/2020 13:47:08	120220	12022020	134708	90.47	12.418760	-57.200038	90.46	0.610	-1.920	1.990	90.43	-3.40	2.40	 	 	 	 	 	 	 	 	 	 	 	 	 	 	 	 	 	 	1581515228	9.47	17.54
12/02/2020 13:47:09	120220	12022020	134709	90.31	12.418760	-57.199998	90.28	0.630	-1.140	1.830	90.28	-2.70	2.30	 	 	 	 	 	 	 	 	 	 	 	 	 	 	 	 	 	 	1581515229	8.31	15.39
12/02/2020 13:47:10	120220	12022020	134710	90.16	12.418763	-57.199960	90.11	0.580	-0.450	1.380	90.14	-1.90	1.90	 	 	 	 	 	 	 	 	 	 	 	 	 	 	 	 	 	 	1581515230	8.14	15.08
12/02/2020 13:47:11	120220	12022020	134711	90.06	12.418767	-57.199920	89.98	0.600	0.010	0.980	90.03	-1.50	1.40	 	 	 	 	 	 	 	 	 	 	 	 	 	 	 	 	 	 	1581515231	8.61	15.95
12/02/2020 13:47:12	120220	12022020	134712	89.88	12.418770	-57.199878	89.80	0.510	0.330	0.920	89.85	-1.10	1.30	 	 	 	 	 	 	 	 	 	 	 	 	 	 	 	 	 	 	1581515232	8.89	16.46
12/02/2020 13:47:13	120220	12022020	134713	89.79	12.418772	-57.199835	89.76	0.040	0.540	0.880	89.80	-0.80	1.30	 	 	 	 	 	 	 	 	 	 	 	 	 	 	 	 	 	 	1581515233	8.91	16.50
12/02/2020 13:47:14	120220	12022020	134714	89.86	12.418772	-57.199795	89.85	-0.800	0.720	0.980	89.87	-0.70	1.40	 	 	 	 	 	 	 	 	 	 	 	 	 	 	 	 	 	 	1581515234	8.72	16.15
12/02/2020 13:47:15	120220	12022020	134715	89.94	12.418770	-57.199755	89.92	-1.420	0.520	1.290	89.95	-0.80	1.70	 	 	 	 	 	 	 	 	 	 	 	 	 	 	 	 	 	 	1581515235	8.44	15.63
12/02/2020 13:47:16	120220	12022020	134716	90.03	12.418767	-57.199713	90.03	-1.060	-0.440	1.460	90.06	-1.70	1.90	 	 	 	 	 	 	 	 	 	 	 	 	 	 	 	 	 	 	1581515236	8.87	16.43
12/02/2020 13:47:17	120220	12022020	134717	90.09	12.418765	-57.199667	90.06	0.220	-1.820	1.640	90.08	-3.10	2.00	 	 	 	 	 	 	 	 	 	 	 	 	 	 	 	 	 	 	1581515237	9.87	18.28
12/02/2020 13:47:18	120220	12022020	134718	90.01	12.418763	-57.199617	89.96	1.290	-2.270	1.750	89.98	-3.70	2.10	 	 	 	 	 	 	 	 	 	 	 	 	 	 	 	 	 	 	1581515238	10.29	19.06
12/02/2020 13:47:19	120220	12022020	134719	89.87	12.418765	-57.199573	89.82	1.230	-1.070	1.640	89.85	-2.70	2.10	 	 	 	 	 	 	 	 	 	 	 	 	 	 	 	 	 	 	1581515239	9.13	16.91
12/02/2020 13:47:20	120220	12022020	134720	89.78	12.418768	-57.199538	89.74	0.310	0.980	1.290	89.77	-0.80	1.80	 	 	 	 	 	 	 	 	 	 	 	 	 	 	 	 	 	 	1581515240	7.48	13.85
12/02/2020 13:47:21	120220	12022020	134721	89.79	12.418773	-57.199507	89.81	-0.620	2.200	0.790	89.82	0.70	1.30	 	 	 	 	 	 	 	 	 	 	 	 	 	 	 	 	 	 	1581515241	6.98	12.93
12/02/2020 13:47:22	120220	12022020	134722	90.02	12.418778	-57.199468	90.05	-0.900	1.540	0.200	90.06	0.30	0.70	 	 	 	 	 	 	 	 	 	 	 	 	 	 	 	 	 	 	1581515242	8.14	15.08
12/02/2020 13:47:23	120220	12022020	134723	90.13	12.418782	-57.199422	90.10	-0.450	-0.420	-0.040	90.12	-1.50	0.40	 	 	 	 	 	 	 	 	 	 	 	 	 	 	 	 	 	 	1581515243	9.83	18.21
12/02/2020 13:47:24	120220	12022020	134724	90.02	12.418782	-57.199372	89.99	0.350	-2.190	0.170	90.01	-3.40	0.50	 	 	 	 	 	 	 	 	 	 	 	 	 	 	 	 	 	 	1581515244	10.73	19.87
12/02/2020 13:47:25	120220	12022020	134725	90.10	12.418782	-57.199323	90.14	0.800	-2.170	0.610	90.14	-3.70	0.90	 	 	 	 	 	 	 	 	 	 	 	 	 	 	 	 	 	 	1581515245	10.15	18.80
12/02/2020 13:47:26	120220	12022020	134726	90.25	12.418778	-57.199285	90.26	0.470	-0.580	1.240	90.27	-2.20	1.60	 	 	 	 	 	 	 	 	 	 	 	 	 	 	 	 	 	 	1581515246	8.11	15.02
12/02/2020 13:47:27	120220	12022020	134727	90.20	12.418777	-57.199252	90.17	-0.220	0.730	1.800	90.17	-0.50	2.40	 	 	 	 	 	 	 	 	 	 	 	 	 	 	 	 	 	 	1581515247	7.09	13.13
12/02/2020 13:47:28	120220	12022020	134728	90.08	12.418775	-57.199213	90.12	-0.580	0.840	1.960	90.09	-0.50	2.40	 	 	 	 	 	 	 	 	 	 	 	 	 	 	 	 	 	 	1581515248	7.96	14.74
12/02/2020 13:47:29	120220	12022020	134729	90.36	12.418775	-57.199170	90.39	-0.450	0.360	1.750	90.36	-1.00	2.20	 	 	 	 	 	 	 	 	 	 	 	 	 	 	 	 	 	 	1581515249	9.09	16.83
12/02/2020 13:47:30	120220	12022020	134730	90.61	12.418777	-57.199127	90.69	-0.150	-0.220	1.390	90.67	-1.60	1.90	 	 	 	 	 	 	 	 	 	 	 	 	 	 	 	 	 	 	1581515250	9.36	17.33
12/02/2020 13:47:31	120220	12022020	134731	90.76	12.418778	-57.199082	90.76	0.060	-0.760	1.110	90.76	-2.10	1.50	 	 	 	 	 	 	 	 	 	 	 	 	 	 	 	 	 	 	1581515251	9.32	17.26
12/02/2020 13:47:32	120220	12022020	134732	90.61	12.418780	-57.199038	90.52	0.260	-0.980	1.130	90.53	-2.40	1.50	 	 	 	 	 	 	 	 	 	 	 	 	 	 	 	 	 	 	1581515252	9.21	17.06
12/02/2020 13:47:33	120220	12022020	134733	90.15	12.418780	-57.198997	90.05	0.480	-0.730	1.240	90.07	-2.20	1.70	 	 	 	 	 	 	 	 	 	 	 	 	 	 	 	 	 	 	1581515253	8.93	16.54
12/02/2020 13:47:34	120220	12022020	134734	89.93	12.418783	-57.198955	89.95	0.510	-0.270	0.990	89.95	-1.80	1.50	 	 	 	 	 	 	 	 	 	 	 	 	 	 	 	 	 	 	1581515254	8.74	16.19
12/02/2020 13:47:35	120220	12022020	134735	90.21	12.418787	-57.198915	90.31	0.110	0.220	0.610	90.30	-1.30	1.10	 	 	 	 	 	 	 	 	 	 	 	 	 	 	 	 	 	 	1581515255	8.58	15.89
12/02/2020 13:47:36	120220	12022020	134736	90.66	12.418788	-57.198875	90.72	-0.440	0.450	0.390	90.73	-1.00	0.80	 	 	 	 	 	 	 	 	 	 	 	 	 	 	 	 	 	 	1581515256	8.42	15.59
12/02/2020 13:47:37	120220	12022020	134737	90.86	12.418788	-57.198833	90.84	-0.620	0.140	0.530	90.85	-1.20	0.90	 	 	 	 	 	 	 	 	 	 	 	 	 	 	 	 	 	 	1581515257	8.68	16.08
12/02/2020 13:47:38	120220	12022020	134738	90.76	12.418787	-57.198790	90.72	-0.250	-0.440	1.060	90.73	-1.80	1.40	 	 	 	 	 	 	 	 	 	 	 	 	 	 	 	 	 	 	1581515258	9.27	17.17
12/02/2020 13:47:39	120220	12022020	134739	90.63	12.418783	-57.198745	90.61	0.260	-0.830	1.600	90.62	-2.20	2.00	 	 	 	 	 	 	 	 	 	 	 	 	 	 	 	 	 	 	1581515259	9.48	17.56
12/02/2020 13:47:40	120220	12022020	134740	90.61	12.418782	-57.198702	90.62	0.530	-0.990	1.660	90.62	-2.40	2.10	 	 	 	 	 	 	 	 	 	 	 	 	 	 	 	 	 	 	1581515260	9.23	17.09
12/02/2020 13:47:41	120220	12022020	134741	90.64	12.418782	-57.198658	90.64	0.530	-0.890	1.470	90.65	-2.30	1.90	 	 	 	 	 	 	 	 	 	 	 	 	 	 	 	 	 	 	1581515261	9.19	17.02
12/02/2020 13:47:42	120220	12022020	134742	90.67	12.418785	-57.198617	90.64	0.120	0.010	1.320	90.67	-1.60	1.80	 	 	 	 	 	 	 	 	 	 	 	 	 	 	 	 	 	 	1581515262	8.89	16.46
12/02/2020 13:47:43	120220	12022020	134743	90.76	12.418787	-57.198580	90.77	-0.690	1.320	0.980	90.80	-0.30	1.50	 	 	 	 	 	 	 	 	 	 	 	 	 	 	 	 	 	 	1581515263	7.78	14.41
12/02/2020 13:47:44	120220	12022020	134744	91.03	12.418788	-57.198545	91.06	-1.210	1.520	0.490	91.09	0.20	1.00	 	 	 	 	 	 	 	 	 	 	 	 	 	 	 	 	 	 	1581515264	7.48	13.85
12/02/2020 13:47:45	120220	12022020	134745	91.25	12.418790	-57.198502	91.22	-0.700	-0.210	0.160	91.26	-1.30	0.60	 	 	 	 	 	 	 	 	 	 	 	 	 	 	 	 	 	 	1581515265	8.96	16.59
12/02/2020 13:47:46	120220	12022020	134746	91.17	12.418792	-57.198450	91.10	0.620	-2.450	0.270	91.13	-3.60	0.60	 	 	 	 	 	 	 	 	 	 	 	 	 	 	 	 	 	 	1581515266	10.96	20.30
12/02/2020 13:47:47	120220	12022020	134747	90.98	12.418792	-57.198398	90.93	1.470	-2.780	0.720	90.95	-4.30	1.10	 	 	 	 	 	 	 	 	 	 	 	 	 	 	 	 	 	 	1581515267	11.00	20.37
12/02/2020 13:47:48	120220	12022020	134748	90.84	12.418788	-57.198357	90.81	1.020	-0.760	1.290	90.83	-2.50	1.60	 	 	 	 	 	 	 	 	 	 	 	 	 	 	 	 	 	 	1581515268	8.62	15.96
12/02/2020 13:47:49	120220	12022020	134749	90.84	12.418787	-57.198327	90.84	-0.270	1.710	1.440	90.85	0.00	1.90	 	 	 	 	 	 	 	 	 	 	 	 	 	 	 	 	 	 	1581515269	6.55	12.13
12/02/2020 13:47:50	120220	12022020	134750	90.98	12.418787	-57.198295	91.04	-1.170	2.340	1.190	91.03	1.00	1.70	 	 	 	 	 	 	 	 	 	 	 	 	 	 	 	 	 	 	1581515270	6.73	12.46
12/02/2020 13:47:51	120220	12022020	134751	91.29	12.418788	-57.198253	91.29	-1.090	0.910	0.970	91.29	-0.20	1.40	 	 	 	 	 	 	 	 	 	 	 	 	 	 	 	 	 	 	1581515271	8.88	16.45
12/02/2020 13:47:52	120220	12022020	134752	91.51	12.418790	-57.198203	91.55	-0.390	-1.050	0.670	91.56	-2.20	1.10	 	 	 	 	 	 	 	 	 	 	 	 	 	 	 	 	 	 	1581515272	10.49	19.43
12/02/2020 13:47:53	120220	12022020	134753	91.62	12.418788	-57.198153	91.58	0.290	-2.000	0.700	91.60	-3.30	1.10	 	 	 	 	 	 	 	 	 	 	 	 	 	 	 	 	 	 	1581515273	10.40	19.26
12/02/2020 13:47:54	120220	12022020	134754	91.41	12.418787	-57.198112	91.32	0.580	-1.390	1.140	91.35	-2.90	1.50	 	 	 	 	 	 	 	 	 	 	 	 	 	 	 	 	 	 	1581515274	9.09	16.83
12/02/2020 13:47:55	120220	12022020	134755	91.12	12.418785	-57.198075	91.06	0.450	-0.050	1.220	91.07	-1.60	1.70	 	 	 	 	 	 	 	 	 	 	 	 	 	 	 	 	 	 	1581515275	7.70	14.26
12/02/2020 13:47:56	120220	12022020	134756	91.01	12.418788	-57.198038	91.02	0.120	0.710	0.850	91.03	-0.70	1.30	 	 	 	 	 	 	 	 	 	 	 	 	 	 	 	 	 	 	1581515276	7.57	14.02
12/02/2020 13:47:57	120220	12022020	134757	91.18	12.418793	-57.198000	91.22	-0.170	0.420	0.530	91.23	-0.90	1.00	 	 	 	 	 	 	 	 	 	 	 	 	 	 	 	 	 	 	1581515277	8.45	15.65
12/02/2020 13:47:58	120220	12022020	134758	91.40	12.418795	-57.197955	91.40	-0.160	-0.650	0.450	91.41	-1.90	0.90	 	 	 	 	 	 	 	 	 	 	 	 	 	 	 	 	 	 	1581515278	9.49	17.58
12/02/2020 13:47:59	120220	12022020	134759	91.38	12.418792	-57.197907	91.33	-0.030	-1.270	0.740	91.36	-2.60	1.10	 	 	 	 	 	 	 	 	 	 	 	 	 	 	 	 	 	 	1581515279	10.10	18.71
12/02/2020 13:48:00	120220	12022020	134800	91.26	12.418788	-57.197863	91.21	-0.090	-0.540	1.140	91.23	-2.10	1.50	 	 	 	 	 	 	 	 	 	 	 	 	 	 	 	 	 	 	1581515280	9.15	16.95
12/02/2020 13:48:01	120220	12022020	134801	91.14	12.418785	-57.197827	91.11	-0.290	0.710	1.330	91.12	-0.80	1.70	 	 	 	 	 	 	 	 	 	 	 	 	 	 	 	 	 	 	1581515281	7.65	14.17
12/02/2020 13:48:02	120220	12022020	134802	91.10	12.418785	-57.197792	91.09	-0.250	0.810	1.170	91.10	-0.50	1.60	1017.30	26.60	26.70	20.40	20.40	800.0	68.0	68.0	401.0	28.5	351.00	15.30	78.00	10.80	56891	18499.0	27.5	27.5	1581515282	7.58	14.04
12/02/2020 13:48:03	120220	12022020	134803	91.10	12.418787	-57.197748	91.08	0.210	-0.550	0.850	91.10	-2.70	1.20	 	 	 	 	 	 	 	 	 	 	 	 	 	 	 	 	 	 	1581515283	9.23	17.09
12/02/2020 13:48:04	120220	12022020	134804	91.06	12.418790	-57.197698	91.05	0.700	-1.710	0.730	91.06	-3.00	1.20	 	 	 	 	 	 	 	 	 	 	 	 	 	 	 	 	 	 	1581515284	10.57	19.58
12/02/2020 13:48:05	120220	12022020	134805	91.09	12.418792	-57.197652	91.10	0.620	-1.090	0.760	91.10	-2.70	1.20	 	 	 	 	 	 	 	 	 	 	 	 	 	 	 	 	 	 	1581515285	9.66	17.89
12/02/2020 13:48:06	120220	12022020	134806	91.20	12.418792	-57.197617	91.25	-0.090	0.490	0.890	91.24	-1.10	1.30	 	 	 	 	 	 	 	 	 	 	 	 	 	 	 	 	 	 	1581515286	7.67	14.20
12/02/2020 13:48:07	120220	12022020	134807	91.43	12.418792	-57.197582	91.51	-0.830	1.330	1.170	91.49	-0.10	1.50	 	 	 	 	 	 	 	 	 	 	 	 	 	 	 	 	 	 	1581515287	7.13	13.20
12/02/2020 13:48:08	120220	12022020	134808	91.69	12.418788	-57.197543	91.74	-0.900	0.710	1.440	91.73	-0.50	1.80	 	 	 	 	 	 	 	 	 	 	 	 	 	 	 	 	 	 	1581515288	8.21	15.20
12/02/2020 13:48:09	120220	12022020	134809	91.72	12.418785	-57.197498	91.73	-0.200	-0.780	1.670	91.70	-1.90	2.00	 	 	 	 	 	 	 	 	 	 	 	 	 	 	 	 	 	 	1581515289	9.67	17.91
12/02/2020 13:48:10	120220	12022020	134810	91.54	12.418782	-57.197450	91.51	0.670	-1.830	1.910	91.48	-3.10	2.30	 	 	 	 	 	 	 	 	 	 	 	 	 	 	 	 	 	 	1581515290	10.33	19.13
12/02/2020 13:48:11	120220	12022020	134811	91.26	12.418782	-57.197403	91.25	0.940	-1.420	1.960	91.22	-3.00	2.40	 	 	 	 	 	 	 	 	 	 	 	 	 	 	 	 	 	 	1581515291	9.60	17.78
12/02/2020 13:48:12	120220	12022020	134812	91.15	12.418785	-57.197365	91.20	0.430	-0.050	1.470	91.18	-1.60	2.00	 	 	 	 	 	 	 	 	 	 	 	 	 	 	 	 	 	 	1581515292	8.08	14.96
12/02/2020 13:48:13	120220	12022020	134813	91.43	12.418790	-57.197330	91.47	-0.370	0.960	0.880	91.43	-0.50	1.40	 	 	 	 	 	 	 	 	 	 	 	 	 	 	 	 	 	 	1581515293	7.51	13.91
12/02/2020 13:48:14	120220	12022020	134814	91.72	12.418792	-57.197293	91.82	-0.760	0.870	0.510	91.79	-0.40	1.00	 	 	 	 	 	 	 	 	 	 	 	 	 	 	 	 	 	 	1581515294	8.03	14.87
12/02/2020 13:48:15	120220	12022020	134815	92.08	12.418792	-57.197250	92.14	-0.370	-0.160	0.160	92.13	-2.10	0.60	 	 	 	 	 	 	 	 	 	 	 	 	 	 	 	 	 	 	1581515295	9.19	17.02
12/02/2020 13:48:16	120220	12022020	134816	92.12	12.418790	-57.197202	92.06	0.360	-1.080	0.230	92.07	-2.40	0.60	 	 	 	 	 	 	 	 	 	 	 	 	 	 	 	 	 	 	1581515296	10.00	18.52
12/02/2020 13:48:17	120220	12022020	134817	91.75	12.418788	-57.197157	91.65	0.590	-1.060	0.640	91.67	-2.10	1.30	 	 	 	 	 	 	 	 	 	 	 	 	 	 	 	 	 	 	1581515297	9.50	17.59
12/02/2020 13:48:18	120220	12022020	134818	91.28	12.418787	-57.197117	91.20	0.230	-0.410	1.110	91.21	-1.90	1.50	 	 	 	 	 	 	 	 	 	 	 	 	 	 	 	 	 	 	1581515298	8.43	15.61
12/02/2020 13:48:19	120220	12022020	134819	90.99	12.418787	-57.197078	91.00	-0.180	0.110	1.350	90.98	-1.30	1.80	 	 	 	 	 	 	 	 	 	 	 	 	 	 	 	 	 	 	1581515299	8.06	14.93
12/02/2020 13:48:20	120220	12022020	134820	91.08	12.418788	-57.197038	91.18	-0.240	0.120	1.250	91.14	-1.30	1.70	 	 	 	 	 	 	 	 	 	 	 	 	 	 	 	 	 	 	1581515300	8.56	15.85
12/02/2020 13:48:21	120220	12022020	134821	91.40	12.418788	-57.196997	91.50	-0.140	0.060	1.110	91.46	-1.30	1.60	 	 	 	 	 	 	 	 	 	 	 	 	 	 	 	 	 	 	1581515301	9.03	16.72
12/02/2020 13:48:22	120220	12022020	134822	91.62	12.418787	-57.196953	91.65	-0.120	0.030	0.980	91.63	-1.40	1.40	 	 	 	 	 	 	 	 	 	 	 	 	 	 	 	 	 	 	1581515302	8.85	16.39
12/02/2020 13:48:23	120220	12022020	134823	91.62	12.418787	-57.196913	91.61	-0.050	-0.190	1.090	91.60	-1.50	1.50	 	 	 	 	 	 	 	 	 	 	 	 	 	 	 	 	 	 	1581515303	8.72	16.15
12/02/2020 13:48:24	120220	12022020	134824	91.43	12.418785	-57.196870	91.41	0.270	-0.770	1.430	91.39	-2.00	1.80	 	 	 	 	 	 	 	 	 	 	 	 	 	 	 	 	 	 	1581515304	9.07	16.80
12/02/2020 13:48:25	120220	12022020	134825	91.28	12.418785	-57.196825	91.30	0.530	-1.180	1.500	91.27	-2.50	1.90	 	 	 	 	 	 	 	 	 	 	 	 	 	 	 	 	 	 	1581515305	9.60	17.78
12/02/2020 13:48:26	120220	12022020	134826	91.26	12.418787	-57.196780	91.29	0.340	-0.690	1.340	91.26	-2.20	1.80	 	 	 	 	 	 	 	 	 	 	 	 	 	 	 	 	 	 	1581515306	9.24	17.11
12/02/2020 13:48:27	120220	12022020	134827	91.23	12.418787	-57.196743	91.25	-0.290	0.570	1.190	91.21	-1.00	1.60	 	 	 	 	 	 	 	 	 	 	 	 	 	 	 	 	 	 	1581515307	8.06	14.93
12/02/2020 13:48:28	120220	12022020	134828	91.14	12.418788	-57.196708	91.17	-0.850	1.380	1.120	91.14	-0.00	1.60	 	 	 	 	 	 	 	 	 	 	 	 	 	 	 	 	 	 	1581515308	7.38	13.67
12/02/2020 13:48:29	120220	12022020	134829	91.21	12.418790	-57.196668	91.29	-0.760	0.580	0.810	91.25	-0.60	1.30	 	 	 	 	 	 	 	 	 	 	 	 	 	 	 	 	 	 	1581515309	8.20	15.19
12/02/2020 13:48:30	120220	12022020	134830	91.41	12.418792	-57.196622	91.45	0.080	-1.490	0.520	91.42	-2.50	1.00	 	 	 	 	 	 	 	 	 	 	 	 	 	 	 	 	 	 	1581515310	10.08	18.67
12/02/2020 13:48:31	120220	12022020	134831	91.38	12.418793	-57.196568	91.39	1.040	-2.860	0.710	91.35	-4.10	1.10	 	 	 	 	 	 	 	 	 	 	 	 	 	 	 	 	 	 	1581515311	11.14	20.63
12/02/2020 13:48:32	120220	12022020	134832	91.24	12.418792	-57.196522	91.28	1.220	-1.710	1.260	91.23	-3.40	1.60	 	 	 	 	 	 	 	 	 	 	 	 	 	 	 	 	 	 	1581515312	9.90	18.33
12/02/2020 13:48:33	120220	12022020	134833	91.34	12.418788	-57.196488	91.48	0.320	1.180	1.670	91.40	-0.60	2.10	 	 	 	 	 	 	 	 	 	 	 	 	 	 	 	 	 	 	1581515313	7.13	13.20
12/02/2020 13:48:34	120220	12022020	134834	91.69	12.418787	-57.196462	91.83	-0.980	3.060	1.630	91.76	1.50	2.10	 	 	 	 	 	 	 	 	 	 	 	 	 	 	 	 	 	 	1581515314	5.80	10.74
12/02/2020 13:48:35	120220	12022020	134835	92.00	12.418787	-57.196427	92.11	-1.480	2.080	1.270	92.05	1.00	1.80	 	 	 	 	 	 	 	 	 	 	 	 	 	 	 	 	 	 	1581515315	7.33	13.58
12/02/2020 13:48:36	120220	12022020	134836	92.19	12.418788	-57.196378	92.25	-0.710	-0.810	0.910	92.21	-1.70	1.40	 	 	 	 	 	 	 	 	 	 	 	 	 	 	 	 	 	 	1581515316	10.18	18.85
12/02/2020 13:48:37	120220	12022020	134837	92.19	12.418788	-57.196325	92.17	0.560	-2.880	0.860	92.15	-4.10	1.30	 	 	 	 	 	 	 	 	 	 	 	 	 	 	 	 	 	 	1581515317	11.37	21.06
12/02/2020 13:48:38	120220	12022020	134838	92.00	12.418790	-57.196278	91.99	1.170	-2.580	1.070	91.97	-4.10	1.50	 	 	 	 	 	 	 	 	 	 	 	 	 	 	 	 	 	 	1581515318	9.87	18.28
12/02/2020 13:48:39	120220	12022020	134839	91.90	12.418790	-57.196242	91.94	0.770	-0.870	1.340	91.91	-2.50	1.70	 	 	 	 	 	 	 	 	 	 	 	 	 	 	 	 	 	 	1581515319	7.67	14.20
12/02/2020 13:48:40	120220	12022020	134840	91.98	12.418788	-57.196208	92.04	0.010	0.440	1.530	92.01	-1.10	1.90	 	 	 	 	 	 	 	 	 	 	 	 	 	 	 	 	 	 	1581515320	7.06	13.08
12/02/2020 13:48:41	120220	12022020	134841	92.13	12.418787	-57.196170	92.21	-0.430	0.810	1.530	92.18	-0.50	1.90	 	 	 	 	 	 	 	 	 	 	 	 	 	 	 	 	 	 	1581515321	8.12	15.04
12/02/2020 13:48:42	120220	12022020	134842	92.39	12.418785	-57.196128	92.48	-0.720	1.150	1.380	92.44	-0.30	1.80	 	 	 	 	 	 	 	 	 	 	 	 	 	 	 	 	 	 	1581515322	8.79	16.28
12/02/2020 13:48:43	120220	12022020	134843	92.65	12.418783	-57.196090	92.71	-0.990	1.330	1.200	92.68	-0.00	1.60	 	 	 	 	 	 	 	 	 	 	 	 	 	 	 	 	 	 	1581515323	8.21	15.20
12/02/2020 13:48:44	120220	12022020	134844	92.65	12.418780	-57.196050	92.59	-0.860	0.380	1.080	92.60	-0.80	1.50	 	 	 	 	 	 	 	 	 	 	 	 	 	 	 	 	 	 	1581515324	8.27	15.32
12/02/2020 13:48:45	120220	12022020	134845	92.30	12.418780	-57.196005	92.21	0.150	-1.780	1.000	92.21	-2.80	1.40	 	 	 	 	 	 	 	 	 	 	 	 	 	 	 	 	 	 	1581515325	9.67	17.91
12/02/2020 13:48:46	120220	12022020	134846	91.96	12.418780	-57.195953	91.95	1.460	-3.270	0.820	91.94	-4.60	1.30	 	 	 	 	 	 	 	 	 	 	 	 	 	 	 	 	 	 	1581515326	11.00	20.37
12/02/2020 13:48:47	120220	12022020	134847	91.96	12.418783	-57.195907	92.01	1.780	-1.980	0.530	91.99	-3.70	1.00	 	 	 	 	 	 	 	 	 	 	 	 	 	 	 	 	 	 	1581515327	9.76	18.08
12/02/2020 13:48:48	120220	12022020	134848	92.25	12.418787	-57.195875	92.36	0.660	1.190	0.420	92.34	-0.70	0.80	 	 	 	 	 	 	 	 	 	 	 	 	 	 	 	 	 	 	1581515328	6.78	12.56
12/02/2020 13:48:49	120220	12022020	134849	92.73	12.418787	-57.195850	92.83	-1.030	3.310	0.480	92.81	1.80	0.90	 	 	 	 	 	 	 	 	 	 	 	 	 	 	 	 	 	 	1581515329	5.23	9.69
12/02/2020 13:48:50	120220	12022020	134850	93.06	12.418785	-57.195817	93.09	-1.920	2.300	0.820	93.08	1.20	1.20	 	 	 	 	 	 	 	 	 	 	 	 	 	 	 	 	 	 	1581515330	6.91	12.80
12/02/2020 13:48:51	120220	12022020	134851	92.92	12.418777	-57.195770	92.83	-1.300	-1.000	1.690	92.82	-3.90	2.60	 	 	 	 	 	 	 	 	 	 	 	 	 	 	 	 	 	 	1581515331	10.16	18.82
12/02/2020 13:48:52	120220	12022020	134852	92.35	12.418767	-57.195715	92.26	0.130	-3.410	2.620	92.23	-4.60	2.90	 	 	 	 	 	 	 	 	 	 	 	 	 	 	 	 	 	 	1581515332	11.81	21.87
12/02/2020 13:48:53	120220	12022020	134853	91.85	12.418758	-57.195668	91.84	1.050	-2.780	3.090	91.79	-3.00	3.50	 	 	 	 	 	 	 	 	 	 	 	 	 	 	 	 	 	 	1581515333	9.98	18.48
12/02/2020 13:48:54	120220	12022020	134854	91.59	12.418755	-57.195635	91.59	0.880	-0.260	2.860	91.55	-2.10	3.30	 	 	 	 	 	 	 	 	 	 	 	 	 	 	 	 	 	 	1581515334	6.97	12.91
12/02/2020 13:48:55	120220	12022020	134855	91.43	12.418757	-57.195608	91.44	0.150	1.690	1.940	91.42	0.10	2.50	 	 	 	 	 	 	 	 	 	 	 	 	 	 	 	 	 	 	1581515335	5.89	10.91
12/02/2020 13:48:56	120220	12022020	134856	91.45	12.418765	-57.195573	91.48	-0.310	1.730	0.540	91.48	0.40	1.20	 	 	 	 	 	 	 	 	 	 	 	 	 	 	 	 	 	 	1581515336	7.26	13.45
12/02/2020 13:48:57	120220	12022020	134857	91.63	12.418773	-57.195532	91.64	-0.200	0.340	-0.680	91.68	-0.80	-0.10	 	 	 	 	 	 	 	 	 	 	 	 	 	 	 	 	 	 	1581515337	9.16	16.96
12/02/2020 13:48:58	120220	12022020	134858	91.85	12.418778	-57.195485	91.83	0.210	-1.200	-1.340	91.88	-2.40	-0.90	 	 	 	 	 	 	 	 	 	 	 	 	 	 	 	 	 	 	1581515338	9.99	18.50
12/02/2020 13:48:59	120220	12022020	134859	91.96	12.418780	-57.195440	91.91	0.510	-1.850	-1.090	91.95	-3.20	-0.80	 	 	 	 	 	 	 	 	 	 	 	 	 	 	 	 	 	 	1581515339	9.64	17.85
12/02/2020 13:49:00	120220	12022020	134900	91.75	12.418775	-57.195398	91.64	0.400	-1.160	0.010	91.67	-2.80	0.20	 	 	 	 	 	 	 	 	 	 	 	 	 	 	 	 	 	 	1581515340	8.71	16.13
12/02/2020 13:49:01	120220	12022020	134901	91.30	12.418767	-57.195363	91.20	-0.120	0.340	1.190	91.21	-1.30	1.40	 	 	 	 	 	 	 	 	 	 	 	 	 	 	 	 	 	 	1581515341	7.52	13.93
12/02/2020 13:49:02	120220	12022020	134902	90.96	12.418760	-57.195332	90.95	-0.740	1.380	2.130	90.93	-0.10	2.40	1017.30	26.60	26.60	19.90	19.90	720.0	66.0	66.0	403.0	28.5	348.00	15.60	75.00	11.20	53393	17057.0	27.5	27.5	1581515342	6.96	12.89
12/02/2020 13:49:03	120220	12022020	134903	90.91	12.418757	-57.195295	90.96	-0.890	0.920	2.580	90.92	-0.30	3.00	 	 	 	 	 	 	 	 	 	 	 	 	 	 	 	 	 	 	1581515343	7.68	14.22
12/02/2020 13:49:04	120220	12022020	134904	90.95	12.418753	-57.195252	90.98	-0.310	-0.790	2.530	90.95	-1.90	3.00	 	 	 	 	 	 	 	 	 	 	 	 	 	 	 	 	 	 	1581515344	9.25	17.13
12/02/2020 13:49:05	120220	12022020	134905	90.93	12.418753	-57.195203	90.98	0.690	-2.260	2.380	90.94	-3.70	2.70	 	 	 	 	 	 	 	 	 	 	 	 	 	 	 	 	 	 	1581515345	10.33	19.13
12/02/2020 13:49:06	120220	12022020	134906	91.06	12.418753	-57.195157	91.16	1.240	-1.840	2.220	91.10	-3.40	2.70	 	 	 	 	 	 	 	 	 	 	 	 	 	 	 	 	 	 	1581515346	9.70	17.96
12/02/2020 13:49:07	120220	12022020	134907	91.29	12.418755	-57.195122	91.35	0.770	0.140	1.940	91.32	-0.30	2.20	 	 	 	 	 	 	 	 	 	 	 	 	 	 	 	 	 	 	1581515347	7.56	14.00
12/02/2020 13:49:08	120220	12022020	134908	91.24	12.418755	-57.195092	91.15	-0.270	1.700	1.610	91.17	0.20	2.10	 	 	 	 	 	 	 	 	 	 	 	 	 	 	 	 	 	 	1581515348	6.35	11.76
12/02/2020 13:49:09	120220	12022020	134909	90.70	12.418757	-57.195057	90.56	-0.890	1.540	1.350	90.59	0.30	1.80	 	 	 	 	 	 	 	 	 	 	 	 	 	 	 	 	 	 	1581515349	7.27	13.46
12/02/2020 13:49:10	120220	12022020	134910	90.28	12.418758	-57.195013	90.25	-0.620	0.120	0.790	90.25	-1.10	1.30	 	 	 	 	 	 	 	 	 	 	 	 	 	 	 	 	 	 	1581515350	9.06	16.78
12/02/2020 13:49:11	120220	12022020	134911	90.44	12.418763	-57.194968	90.53	0.110	-1.220	-0.120	90.53	-2.50	0.50	 	 	 	 	 	 	 	 	 	 	 	 	 	 	 	 	 	 	1581515351	9.83	18.21
12/02/2020 13:49:12	120220	12022020	134912	90.85	12.418768	-57.194923	90.86	0.670	-1.750	-0.670	90.89	-3.10	-0.20	 	 	 	 	 	 	 	 	 	 	 	 	 	 	 	 	 	 	1581515352	9.49	17.58
12/02/2020 13:49:13	120220	12022020	134913	90.82	12.418770	-57.194882	90.72	0.690	-1.200	-0.290	90.76	-2.80	0.00	 	 	 	 	 	 	 	 	 	 	 	 	 	 	 	 	 	 	1581515353	8.63	15.98
12/02/2020 13:49:14	120220	12022020	134914	90.48	12.418767	-57.194847	90.38	0.150	0.010	0.670	90.41	-1.60	0.90	 	 	 	 	 	 	 	 	 	 	 	 	 	 	 	 	 	 	1581515354	7.63	14.13
12/02/2020 13:49:15	120220	12022020	134915	90.19	12.418763	-57.194812	90.15	-0.400	0.780	1.470	90.15	-0.70	1.80	 	 	 	 	 	 	 	 	 	 	 	 	 	 	 	 	 	 	1581515355	7.27	13.46
12/02/2020 13:49:16	120220	12022020	134916	90.09	12.418760	-57.194773	90.14	-0.390	0.370	1.910	90.12	-0.90	2.30	 	 	 	 	 	 	 	 	 	 	 	 	 	 	 	 	 	 	1581515356	8.09	14.98
12/02/2020 13:49:17	120220	12022020	134917	90.29	12.418758	-57.194730	90.38	0.020	-0.500	2.200	90.33	-1.80	2.60	 	 	 	 	 	 	 	 	 	 	 	 	 	 	 	 	 	 	1581515357	9.29	17.21
12/02/2020 13:49:18	120220	12022020	134918	90.39	12.418757	-57.194685	90.40	0.230	-0.790	2.400	90.36	-2.20	2.80	 	 	 	 	 	 	 	 	 	 	 	 	 	 	 	 	 	 	1581515358	9.39	17.39
12/02/2020 13:49:19	120220	12022020	134919	90.12	12.418755	-57.194645	90.07	-0.040	-0.280	2.540	90.04	-1.80	2.90	 	 	 	 	 	 	 	 	 	 	 	 	 	 	 	 	 	 	1581515359	8.48	15.70
12/02/2020 13:49:20	120220	12022020	134920	89.69	12.418753	-57.194608	89.66	-0.460	0.280	2.580	89.63	-1.20	3.00	 	 	 	 	 	 	 	 	 	 	 	 	 	 	 	 	 	 	1581515360	7.72	14.30
12/02/2020 13:49:21	120220	12022020	134921	89.48	12.418755	-57.194572	89.52	-0.390	0.000	2.000	89.48	-1.30	2.60	 	 	 	 	 	 	 	 	 	 	 	 	 	 	 	 	 	 	1581515361	8.06	14.93
12/02/2020 13:49:22	120220	12022020	134922	89.59	12.418762	-57.194528	89.65	0.250	-0.760	0.960	89.63	-2.10	1.60	 	 	 	 	 	 	 	 	 	 	 	 	 	 	 	 	 	 	1581515362	9.18	17.00
12/02/2020 13:49:23	120220	12022020	134923	89.82	12.418768	-57.194483	89.87	0.800	-0.980	0.060	89.88	-2.40	0.60	 	 	 	 	 	 	 	 	 	 	 	 	 	 	 	 	 	 	1581515363	9.54	17.67
12/02/2020 13:49:24	120220	12022020	134924	90.04	12.418773	-57.194443	90.04	0.610	-0.270	-0.320	90.06	-1.80	0.10	 	 	 	 	 	 	 	 	 	 	 	 	 	 	 	 	 	 	1581515364	8.65	16.02
12/02/2020 13:49:25	120220	12022020	134925	90.02	12.418775	-57.194407	89.96	-0.170	0.660	-0.030	89.98	-0.90	0.30	 	 	 	 	 	 	 	 	 	 	 	 	 	 	 	 	 	 	1581515365	7.54	13.96
12/02/2020 13:49:26	120220	12022020	134926	89.89	12.418775	-57.194372	89.88	-0.720	0.880	0.460	89.87	-0.50	0.80	 	 	 	 	 	 	 	 	 	 	 	 	 	 	 	 	 	 	1581515366	7.43	13.76
12/02/2020 13:49:27	120220	12022020	134927	89.88	12.418773	-57.194332	89.89	-0.420	-0.010	0.790	89.87	-1.20	1.20	 	 	 	 	 	 	 	 	 	 	 	 	 	 	 	 	 	 	1581515367	8.41	15.58
12/02/2020 13:49:28	120220	12022020	134928	89.79	12.418773	-57.194287	89.78	0.420	-1.290	1.170	89.75	-2.50	1.50	 	 	 	 	 	 	 	 	 	 	 	 	 	 	 	 	 	 	1581515368	9.56	17.71
12/02/2020 13:49:29	120220	12022020	134929	89.62	12.418773	-57.194240	89.63	0.930	-1.760	1.680	89.60	-3.20	2.00	 	 	 	 	 	 	 	 	 	 	 	 	 	 	 	 	 	 	1581515369	9.78	18.11
12/02/2020 13:49:30	120220	12022020	134930	89.59	12.418773	-57.194200	89.68	0.580	-0.880	2.170	89.62	-2.50	2.50	 	 	 	 	 	 	 	 	 	 	 	 	 	 	 	 	 	 	1581515370	8.68	16.08
12/02/2020 13:49:31	120220	12022020	134931	89.78	12.418772	-57.194165	89.89	-0.270	0.500	2.430	89.82	-0.50	2.90	 	 	 	 	 	 	 	 	 	 	 	 	 	 	 	 	 	 	1581515371	7.37	13.65
12/02/2020 13:49:32	120220	12022020	134932	89.90	12.418770	-57.194130	89.96	-0.900	1.100	2.500	89.90	-0.30	2.90	 	 	 	 	 	 	 	 	 	 	 	 	 	 	 	 	 	 	1581515372	7.30	13.52
12/02/2020 13:49:33	120220	12022020	134933	89.82	12.418768	-57.194092	89.85	-1.000	0.800	2.480	89.80	-0.50	2.90	 	 	 	 	 	 	 	 	 	 	 	 	 	 	 	 	 	 	1581515373	8.30	15.37
12/02/2020 13:49:34	120220	12022020	134934	89.76	12.418768	-57.194050	89.83	-0.720	0.200	2.050	89.78	-1.10	2.60	 	 	 	 	 	 	 	 	 	 	 	 	 	 	 	 	 	 	1581515374	8.83	16.35
12/02/2020 13:49:35	120220	12022020	134935	89.95	12.418772	-57.194007	90.05	-0.100	-0.770	1.100	90.01	-2.00	1.70	 	 	 	 	 	 	 	 	 	 	 	 	 	 	 	 	 	 	1581515375	8.93	16.54
12/02/2020 13:49:36	120220	12022020	134936	90.19	12.418778	-57.193962	90.21	0.730	-1.920	0.300	90.20	-3.20	0.80	 	 	 	 	 	 	 	 	 	 	 	 	 	 	 	 	 	 	1581515376	9.64	17.85
12/02/2020 13:49:37	120220	12022020	134937	90.14	12.418783	-57.193917	90.09	1.150	-1.980	-0.090	90.10	-3.50	0.40	 	 	 	 	 	 	 	 	 	 	 	 	 	 	 	 	 	 	1581515377	9.78	18.11
12/02/2020 13:49:38	120220	12022020	134938	89.87	12.418787	-57.193877	89.78	0.830	-0.620	0.010	89.80	-2.30	0.40	 	 	 	 	 	 	 	 	 	 	 	 	 	 	 	 	 	 	1581515378	8.46	15.67
12/02/2020 13:49:39	120220	12022020	134939	89.56	12.418788	-57.193843	89.52	0.060	1.230	0.490	89.53	-0.40	0.80	 	 	 	 	 	 	 	 	 	 	 	 	 	 	 	 	 	 	1581515379	7.10	13.15
12/02/2020 13:49:40	120220	12022020	134940	89.57	12.418788	-57.193810	89.62	-0.670	2.230	0.690	89.62	0.80	1.10	 	 	 	 	 	 	 	 	 	 	 	 	 	 	 	 	 	 	1581515380	6.81	12.61
12/02/2020 13:49:41	120220	12022020	134941	89.88	12.418790	-57.193773	89.97	-0.910	1.430	0.520	89.95	0.20	1.00	 	 	 	 	 	 	 	 	 	 	 	 	 	 	 	 	 	 	1581515381	7.83	14.50
12/02/2020 13:49:42	120220	12022020	134942	90.14	12.418793	-57.193728	90.18	-0.520	-0.630	0.610	90.16	-1.70	1.00	 	 	 	 	 	 	 	 	 	 	 	 	 	 	 	 	 	 	1581515382	9.53	17.65
12/02/2020 13:49:43	120220	12022020	134943	90.15	12.418793	-57.193680	90.15	0.170	-2.430	1.180	90.13	-4.20	2.00	 	 	 	 	 	 	 	 	 	 	 	 	 	 	 	 	 	 	1581515383	10.35	19.17
12/02/2020 13:49:44	120220	12022020	134944	89.99	12.418790	-57.193633	90.00	0.660	-2.760	2.060	89.96	-4.20	2.30	 	 	 	 	 	 	 	 	 	 	 	 	 	 	 	 	 	 	1581515384	9.86	18.26
12/02/2020 13:49:45	120220	12022020	134945	89.89	12.418787	-57.193593	89.94	0.600	-1.390	2.650	89.89	-3.10	3.00	 	 	 	 	 	 	 	 	 	 	 	 	 	 	 	 	 	 	1581515385	8.50	15.74
12/02/2020 13:49:46	120220	12022020	134946	89.97	12.418785	-57.193560	90.06	-0.040	0.680	2.640	90.00	-1.00	3.10	 	 	 	 	 	 	 	 	 	 	 	 	 	 	 	 	 	 	1581515386	7.13	13.20
12/02/2020 13:49:47	120220	12022020	134947	90.17	12.418785	-57.193527	90.25	-0.760	1.970	2.180	90.20	0.40	2.70	 	 	 	 	 	 	 	 	 	 	 	 	 	 	 	 	 	 	1581515387	6.80	12.59
12/02/2020 13:49:48	120220	12022020	134948	90.36	12.418788	-57.193490	90.44	-0.880	1.600	1.360	90.40	0.30	1.90	 	 	 	 	 	 	 	 	 	 	 	 	 	 	 	 	 	 	1581515388	7.80	14.45
12/02/2020 13:49:49	120220	12022020	134949	90.63	12.418795	-57.193447	90.74	-0.360	0.190	0.290	90.72	-1.00	0.90	 	 	 	 	 	 	 	 	 	 	 	 	 	 	 	 	 	 	1581515389	9.40	17.41
12/02/2020 13:49:50	120220	12022020	134950	91.12	12.418802	-57.193400	91.21	0.260	-1.050	-0.740	91.21	-2.30	-0.20	 	 	 	 	 	 	 	 	 	 	 	 	 	 	 	 	 	 	1581515390	9.96	18.45
12/02/2020 13:49:51	120220	12022020	134951	91.46	12.418808	-57.193357	91.47	0.470	-1.410	-1.200	91.49	-2.80	-0.80	 	 	 	 	 	 	 	 	 	 	 	 	 	 	 	 	 	 	1581515391	9.34	17.30
12/02/2020 13:49:52	120220	12022020	134952	91.45	12.418812	-57.193317	91.38	0.320	-1.100	-0.950	91.41	-2.60	-0.60	 	 	 	 	 	 	 	 	 	 	 	 	 	 	 	 	 	 	1581515392	8.33	15.43
12/02/2020 13:49:53	120220	12022020	134953	91.22	12.418812	-57.193280	91.14	0.200	-0.810	-0.160	91.17	-2.20	0.10	 	 	 	 	 	 	 	 	 	 	 	 	 	 	 	 	 	 	1581515393	8.02	14.85
12/02/2020 13:49:54	120220	12022020	134954	91.04	12.418808	-57.193238	91.03	0.330	-0.790	0.660	91.02	-2.20	1.00	 	 	 	 	 	 	 	 	 	 	 	 	 	 	 	 	 	 	1581515394	8.63	15.98
12/02/2020 13:49:55	120220	12022020	134955	91.03	12.418805	-57.193195	91.09	0.410	-0.490	1.230	91.05	-2.00	1.60	 	 	 	 	 	 	 	 	 	 	 	 	 	 	 	 	 	 	1581515395	9.09	16.83
12/02/2020 13:49:56	120220	12022020	134956	91.15	12.418802	-57.193155	91.24	0.040	0.510	1.750	91.19	-1.10	2.10	 	 	 	 	 	 	 	 	 	 	 	 	 	 	 	 	 	 	1581515396	8.51	15.76
12/02/2020 13:49:57	120220	12022020	134957	91.40	12.418798	-57.193120	91.52	-0.710	1.530	2.140	91.46	0.20	2.60	 	 	 	 	 	 	 	 	 	 	 	 	 	 	 	 	 	 	1581515397	7.58	14.04
12/02/2020 13:49:58	120220	12022020	134958	91.71	12.418797	-57.193085	91.84	-1.250	1.370	2.100	91.77	0.10	2.50	 	 	 	 	 	 	 	 	 	 	 	 	 	 	 	 	 	 	1581515398	7.57	14.02
12/02/2020 13:49:59	120220	12022020	134959	91.99	12.418797	-57.193042	92.07	-0.970	-0.220	1.720	92.02	-1.40	2.20	 	 	 	 	 	 	 	 	 	 	 	 	 	 	 	 	 	 	1581515399	8.91	16.50
12/02/2020 13:50:00	120220	12022020	135000	91.97	12.418797	-57.192993	91.93	0.010	-1.840	1.460	91.92	-3.10	1.90	 	 	 	 	 	 	 	 	 	 	 	 	 	 	 	 	 	 	1581515400	10.16	18.82
12/02/2020 13:50:01	120220	12022020	135001	91.60	12.418798	-57.192948	91.51	0.980	-2.100	1.150	91.52	-3.60	1.60	 	 	 	 	 	 	 	 	 	 	 	 	 	 	 	 	 	 	1581515401	9.79	18.13
12/02/2020 13:50:02	120220	12022020	135002	91.24	12.418802	-57.192908	91.20	1.290	-1.080	0.650	91.20	-2.70	1.10	1017.40	26.60	26.60	20.20	20.20	674.0	67.0	68.0	406.0	28.5	349.00	15.20	75.00	10.90	51768	17600.0	27.5	27.5	1581515402	8.47	15.69
12/02/2020 13:50:03	120220	12022020	135003	91.23	12.418808	-57.192872	91.28	0.890	0.050	0.040	91.28	-1.50	0.50	 	 	 	 	 	 	 	 	 	 	 	 	 	 	 	 	 	 	1581515403	7.71	14.28
12/02/2020 13:50:04	120220	12022020	135004	91.53	12.418813	-57.192835	91.58	0.220	0.440	-0.310	91.59	-1.00	0.10	 	 	 	 	 	 	 	 	 	 	 	 	 	 	 	 	 	 	1581515404	8.04	14.89
12/02/2020 13:50:05	120220	12022020	135005	91.75	12.418813	-57.192793	91.74	-0.300	0.310	-0.210	91.75	-1.10	0.10	 	 	 	 	 	 	 	 	 	 	 	 	 	 	 	 	 	 	1581515405	8.84	16.37
12/02/2020 13:50:06	120220	12022020	135006	91.70	12.418812	-57.192750	91.68	-0.630	0.320	0.380	91.69	-1.10	0.70	 	 	 	 	 	 	 	 	 	 	 	 	 	 	 	 	 	 	1581515406	9.05	16.76
12/02/2020 13:50:07	120220	12022020	135007	91.69	12.418808	-57.192710	91.77	-0.910	0.620	1.220	91.73	-0.90	1.50	 	 	 	 	 	 	 	 	 	 	 	 	 	 	 	 	 	 	1581515407	8.54	15.82
12/02/2020 13:50:08	120220	12022020	135008	91.97	12.418803	-57.192672	92.10	-1.030	0.620	1.830	92.04	-0.80	2.10	 	 	 	 	 	 	 	 	 	 	 	 	 	 	 	 	 	 	1581515408	8.07	14.95
12/02/2020 13:50:09	120220	12022020	135009	92.23	12.418798	-57.192632	92.28	-0.610	-0.450	2.250	92.23	-1.70	2.60	 	 	 	 	 	 	 	 	 	 	 	 	 	 	 	 	 	 	1581515409	8.53	15.80
12/02/2020 13:50:10	120220	12022020	135010	92.01	12.418793	-57.192585	91.94	0.470	-2.260	2.690	91.91	-3.40	3.00	 	 	 	 	 	 	 	 	 	 	 	 	 	 	 	 	 	 	1581515410	9.96	18.45
12/02/2020 13:50:11	120220	12022020	135011	91.56	12.418790	-57.192535	91.60	1.550	-2.910	2.700	91.53	-4.40	3.10	 	 	 	 	 	 	 	 	 	 	 	 	 	 	 	 	 	 	1581515411	10.69	19.80
12/02/2020 13:50:12	120220	12022020	135012	91.67	12.418793	-57.192492	91.82	1.540	-1.060	1.990	91.75	-2.90	2.50	 	 	 	 	 	 	 	 	 	 	 	 	 	 	 	 	 	 	1581515412	9.14	16.93
12/02/2020 13:50:13	120220	12022020	135013	92.14	12.418800	-57.192460	92.27	0.290	1.810	0.960	92.23	-0.00	1.50	 	 	 	 	 	 	 	 	 	 	 	 	 	 	 	 	 	 	1581515413	6.65	12.32
12/02/2020 13:50:14	120220	12022020	135014	92.50	12.418805	-57.192433	92.54	-1.160	3.130	0.140	92.54	1.60	0.60	 	 	 	 	 	 	 	 	 	 	 	 	 	 	 	 	 	 	1581515414	5.98	11.07
12/02/2020 13:50:15	120220	12022020	135015	92.62	12.418807	-57.192395	92.60	-1.430	1.530	-0.340	92.62	0.50	0.10	 	 	 	 	 	 	 	 	 	 	 	 	 	 	 	 	 	 	1581515415	7.89	14.61
12/02/2020 13:50:16	120220	12022020	135016	92.52	12.418807	-57.192345	92.47	-0.480	-1.400	-0.480	92.48	-2.40	-0.10	 	 	 	 	 	 	 	 	 	 	 	 	 	 	 	 	 	 	1581515416	10.66	19.74
12/02/2020 13:50:17	120220	12022020	135017	92.38	12.418805	-57.192292	92.38	0.500	-2.830	-0.370	92.38	-4.20	-0.00	 	 	 	 	 	 	 	 	 	 	 	 	 	 	 	 	 	 	1581515417	11.10	20.56
12/02/2020 13:50:18	120220	12022020	135018	92.45	12.418803	-57.192250	92.51	0.610	-1.770	0.000	92.49	-3.50	0.30	 	 	 	 	 	 	 	 	 	 	 	 	 	 	 	 	 	 	1581515418	8.94	16.56
12/02/2020 13:50:19	120220	12022020	135019	92.74	12.418800	-57.192218	92.82	-0.010	0.340	0.560	92.80	-1.40	0.90	 	 	 	 	 	 	 	 	 	 	 	 	 	 	 	 	 	 	1581515419	6.63	12.28
12/02/2020 13:50:20	120220	12022020	135020	92.87	12.418793	-57.192188	92.87	-0.450	1.290	1.280	92.86	-0.20	1.50	 	 	 	 	 	 	 	 	 	 	 	 	 	 	 	 	 	 	1581515420	6.44	11.93
12/02/2020 13:50:21	120220	12022020	135021	92.67	12.418788	-57.192152	92.63	-0.110	0.460	1.970	92.60	-1.70	2.60	 	 	 	 	 	 	 	 	 	 	 	 	 	 	 	 	 	 	1581515421	8.19	15.17
12/02/2020 13:50:22	120220	12022020	135022	92.30	12.418785	-57.192105	92.25	0.600	-0.960	2.420	92.23	-2.20	2.70	 	 	 	 	 	 	 	 	 	 	 	 	 	 	 	 	 	 	1581515422	9.86	18.26
12/02/2020 13:50:23	120220	12022020	135023	92.08	12.418783	-57.192057	92.15	0.900	-1.430	2.530	92.09	-2.90	2.90	 	 	 	 	 	 	 	 	 	 	 	 	 	 	 	 	 	 	1581515423	9.99	18.50
12/02/2020 13:50:24	120220	12022020	135024	92.31	12.418783	-57.192017	92.50	0.440	-0.650	2.430	92.40	-2.30	2.80	 	 	 	 	 	 	 	 	 	 	 	 	 	 	 	 	 	 	1581515424	8.65	16.02
12/02/2020 13:50:25	120220	12022020	135025	92.82	12.418782	-57.191982	93.01	-0.400	0.560	2.160	92.91	-1.10	2.60	 	 	 	 	 	 	 	 	 	 	 	 	 	 	 	 	 	 	1581515425	7.40	13.70
12/02/2020 13:50:26	120220	12022020	135026	93.13	12.418780	-57.191947	93.20	-0.880	1.180	1.910	93.14	-0.30	2.30	 	 	 	 	 	 	 	 	 	 	 	 	 	 	 	 	 	 	1581515426	7.20	13.33
12/02/2020 13:50:27	120220	12022020	135027	92.99	12.418777	-57.191910	92.96	-0.720	0.720	1.810	92.92	-0.60	2.20	 	 	 	 	 	 	 	 	 	 	 	 	 	 	 	 	 	 	1581515427	7.99	14.80
12/02/2020 13:50:28	120220	12022020	135028	92.60	12.418775	-57.191867	92.59	-0.160	-0.510	1.740	92.55	-1.80	2.20	 	 	 	 	 	 	 	 	 	 	 	 	 	 	 	 	 	 	1581515428	9.11	16.87
12/02/2020 13:50:29	120220	12022020	135029	92.52	12.418775	-57.191820	92.59	0.340	-1.600	1.290	92.54	-2.90	1.80	 	 	 	 	 	 	 	 	 	 	 	 	 	 	 	 	 	 	1581515429	9.68	17.93
12/02/2020 13:50:30	120220	12022020	135030	92.68	12.418775	-57.191777	92.74	0.640	-1.820	0.860	92.71	-3.30	1.30	 	 	 	 	 	 	 	 	 	 	 	 	 	 	 	 	 	 	1581515430	9.37	17.35
12/02/2020 13:50:31	120220	12022020	135031	92.70	12.418775	-57.191737	92.71	0.740	-1.090	0.760	92.68	-2.70	1.20	 	 	 	 	 	 	 	 	 	 	 	 	 	 	 	 	 	 	1581515431	8.54	15.82
12/02/2020 13:50:32	120220	12022020	135032	92.54	12.418775	-57.191698	92.53	0.620	0.100	0.750	92.51	-1.50	1.10	 	 	 	 	 	 	 	 	 	 	 	 	 	 	 	 	 	 	1581515432	7.91	14.65
12/02/2020 13:50:33	120220	12022020	135033	92.49	12.418773	-57.191663	92.54	0.140	1.170	0.900	92.51	-0.10	1.30	 	 	 	 	 	 	 	 	 	 	 	 	 	 	 	 	 	 	1581515433	7.59	14.06
12/02/2020 13:50:34	120220	12022020	135034	92.66	12.418772	-57.191627	92.73	-0.500	1.340	0.990	92.70	-0.10	1.40	 	 	 	 	 	 	 	 	 	 	 	 	 	 	 	 	 	 	1581515434	7.75	14.35
12/02/2020 13:50:35	120220	12022020	135035	92.62	12.418768	-57.191585	92.56	-0.900	0.430	1.260	92.55	-0.90	1.60	 	 	 	 	 	 	 	 	 	 	 	 	 	 	 	 	 	 	1581515435	8.66	16.04
12/02/2020 13:50:36	120220	12022020	135036	92.27	12.418763	-57.191542	92.22	-0.920	-0.620	1.760	92.21	-1.90	2.10	 	 	 	 	 	 	 	 	 	 	 	 	 	 	 	 	 	 	1581515436	9.41	17.43
12/02/2020 13:50:37	120220	12022020	135037	92.08	12.418757	-57.191498	92.11	-0.470	-1.250	1.990	92.08	-2.60	2.40	 	 	 	 	 	 	 	 	 	 	 	 	 	 	 	 	 	 	1581515437	9.18	17.00
12/02/2020 13:50:38	120220	12022020	135038	92.04	12.418753	-57.191457	92.03	0.380	-1.520	2.080	91.99	-2.90	2.40	 	 	 	 	 	 	 	 	 	 	 	 	 	 	 	 	 	 	1581515438	8.83	16.35
12/02/2020 13:50:39	120220	12022020	135039	91.71	12.418752	-57.191415	91.65	1.090	-1.310	2.130	91.63	-2.80	2.50	 	 	 	 	 	 	 	 	 	 	 	 	 	 	 	 	 	 	1581515439	8.83	16.35
12/02/2020 13:50:40	120220	12022020	135040	91.32	12.418752	-57.191375	91.27	1.150	-0.640	1.990	91.25	-2.20	2.40	 	 	 	 	 	 	 	 	 	 	 	 	 	 	 	 	 	 	1581515440	8.57	15.87
12/02/2020 13:50:41	120220	12022020	135041	91.01	12.418752	-57.191335	90.99	0.600	0.180	1.910	90.96	-1.40	2.30	 	 	 	 	 	 	 	 	 	 	 	 	 	 	 	 	 	 	1581515441	8.32	15.41
12/02/2020 13:50:42	120220	12022020	135042	90.84	12.418752	-57.191297	90.87	-0.230	1.010	1.740	90.82	-0.50	2.20	 	 	 	 	 	 	 	 	 	 	 	 	 	 	 	 	 	 	1581515442	8.13	15.06
12/02/2020 13:50:43	120220	12022020	135043	90.84	12.418752	-57.191258	90.93	-0.970	1.420	1.410	90.87	-0.10	1.80	 	 	 	 	 	 	 	 	 	 	 	 	 	 	 	 	 	 	1581515443	7.89	14.61
12/02/2020 13:50:44	120220	12022020	135044	90.99	12.418752	-57.191220	91.07	-1.170	0.850	1.060	91.02	-0.50	1.50	 	 	 	 	 	 	 	 	 	 	 	 	 	 	 	 	 	 	1581515444	8.22	15.22
12/02/2020 13:50:45	120220	12022020	135045	91.04	12.418752	-57.191177	91.06	-0.650	-0.480	0.990	91.02	-1.70	1.40	 	 	 	 	 	 	 	 	 	 	 	 	 	 	 	 	 	 	1581515445	9.10	16.85
12/02/2020 13:50:46	120220	12022020	135046	90.83	12.418750	-57.191132	90.80	0.210	-1.800	1.260	90.77	-3.10	1.60	 	 	 	 	 	 	 	 	 	 	 	 	 	 	 	 	 	 	1581515446	9.79	18.13
12/02/2020 13:50:47	120220	12022020	135047	90.50	12.418748	-57.191085	90.49	0.760	-2.300	1.900	90.45	-3.60	2.70	 	 	 	 	 	 	 	 	 	 	 	 	 	 	 	 	 	 	1581515447	9.73	18.02
12/02/2020 13:50:48	120220	12022020	135048	90.23	12.418742	-57.191042	90.26	0.770	-1.740	2.590	90.19	-3.30	2.90	 	 	 	 	 	 	 	 	 	 	 	 	 	 	 	 	 	 	1581515448	9.09	16.83
12/02/2020 13:50:49	120220	12022020	135049	90.07	12.418737	-57.191003	90.09	0.500	-0.210	2.930	90.03	-1.90	3.30	 	 	 	 	 	 	 	 	 	 	 	 	 	 	 	 	 	 	1581515449	8.29	15.35
12/02/2020 13:50:50	120220	12022020	135050	89.83	12.418735	-57.190968	89.83	0.090	1.530	2.610	89.78	-0.20	3.10	 	 	 	 	 	 	 	 	 	 	 	 	 	 	 	 	 	 	1581515450	7.43	13.76
12/02/2020 13:50:51	120220	12022020	135051	89.73	12.418740	-57.190933	89.79	-0.500	2.280	1.600	89.75	0.80	2.20	 	 	 	 	 	 	 	 	 	 	 	 	 	 	 	 	 	 	1581515451	7.36	13.63
12/02/2020 13:50:52	120220	12022020	135052	90.01	12.418748	-57.190895	90.15	-0.900	1.190	0.450	90.10	0.00	1.00	 	 	 	 	 	 	 	 	 	 	 	 	 	 	 	 	 	 	1581515452	8.39	15.54
12/02/2020 13:50:53	120220	12022020	135053	90.48	12.418755	-57.190848	90.55	-0.580	-1.160	-0.400	90.54	-2.20	0.10	 	 	 	 	 	 	 	 	 	 	 	 	 	 	 	 	 	 	1581515453	10.05	18.61
12/02/2020 13:50:54	120220	12022020	135054	90.52	12.418757	-57.190797	90.43	0.270	-2.820	-0.340	90.46	-4.10	-0.00	 	 	 	 	 	 	 	 	 	 	 	 	 	 	 	 	 	 	1581515454	10.78	19.96
12/02/2020 13:50:55	120220	12022020	135055	90.06	12.418753	-57.190752	89.92	0.930	-2.600	0.480	89.94	-4.20	0.70	 	 	 	 	 	 	 	 	 	 	 	 	 	 	 	 	 	 	1581515455	9.85	18.24
12/02/2020 13:50:56	120220	12022020	135056	89.51	12.418747	-57.190713	89.43	0.730	-0.550	1.530	89.42	-2.40	1.80	 	 	 	 	 	 	 	 	 	 	 	 	 	 	 	 	 	 	1581515456	8.14	15.08
12/02/2020 13:50:57	120220	12022020	135057	89.24	12.418742	-57.190682	89.25	-0.240	1.760	1.930	89.23	0.00	2.30	 	 	 	 	 	 	 	 	 	 	 	 	 	 	 	 	 	 	1581515457	6.52	12.08
12/02/2020 13:50:58	120220	12022020	135058	89.34	12.418743	-57.190652	89.43	-1.070	2.310	1.460	89.39	0.90	1.90	 	 	 	 	 	 	 	 	 	 	 	 	 	 	 	 	 	 	1581515458	6.54	12.11
12/02/2020 13:50:59	120220	12022020	135059	89.57	12.418748	-57.190610	89.63	-0.840	0.360	0.820	89.59	-0.70	1.30	 	 	 	 	 	 	 	 	 	 	 	 	 	 	 	 	 	 	1581515459	8.80	16.30
12/02/2020 13:51:00	120220	12022020	135100	89.64	12.418752	-57.190558	89.69	-0.010	-1.850	0.770	89.64	-3.10	1.10	 	 	 	 	 	 	 	 	 	 	 	 	 	 	 	 	 	 	1581515460	10.98	20.33
12/02/2020 13:51:01	120220	12022020	135101	89.65	12.418750	-57.190510	89.69	0.340	-1.870	1.070	89.65	-3.50	1.40	 	 	 	 	 	 	 	 	 	 	 	 	 	 	 	 	 	 	1581515461	10.17	18.83
12/02/2020 13:51:02	120220	12022020	135102	89.63	12.418747	-57.190475	89.65	-0.050	-0.130	1.500	89.62	-1.90	1.80	1017.20	26.50	26.60	19.80	19.90	739.0	66.0	66.0	408.0	28.5	346.00	15.90	72.00	11.70	54931	11960.0	27.5	27.5	1581515462	7.53	13.95
12/02/2020 13:51:03	120220	12022020	135103	89.51	12.418743	-57.190445	89.51	-0.460	1.080	1.940	89.46	-0.50	2.30	 	 	 	 	 	 	 	 	 	 	 	 	 	 	 	 	 	 	1581515463	6.26	11.59
12/02/2020 13:51:04	120220	12022020	135104	89.29	12.418742	-57.190410	89.28	-0.190	0.480	1.950	89.24	-0.80	2.40	 	 	 	 	 	 	 	 	 	 	 	 	 	 	 	 	 	 	1581515464	7.61	14.09
12/02/2020 13:51:05	120220	12022020	135105	89.15	12.418745	-57.190365	89.19	0.600	-0.980	1.500	89.15	-2.20	2.00	 	 	 	 	 	 	 	 	 	 	 	 	 	 	 	 	 	 	1581515465	9.49	17.58
12/02/2020 13:51:06	120220	12022020	135106	89.21	12.418752	-57.190318	89.28	1.290	-1.830	1.050	89.23	-3.20	1.50	 	 	 	 	 	 	 	 	 	 	 	 	 	 	 	 	 	 	1581515466	10.09	18.69
12/02/2020 13:51:07	120220	12022020	135107	89.33	12.418757	-57.190275	89.42	1.170	-1.130	0.850	89.36	-2.80	1.30	 	 	 	 	 	 	 	 	 	 	 	 	 	 	 	 	 	 	1581515467	9.20	17.04
12/02/2020 13:51:08	120220	12022020	135108	89.55	12.418758	-57.190240	89.68	0.040	0.710	0.920	89.61	-1.00	1.30	 	 	 	 	 	 	 	 	 	 	 	 	 	 	 	 	 	 	1581515468	7.44	13.78
12/02/2020 13:51:09	120220	12022020	135109	89.85	12.418758	-57.190210	89.98	-1.400	2.190	1.310	89.90	0.60	1.60	 	 	 	 	 	 	 	 	 	 	 	 	 	 	 	 	 	 	1581515469	6.29	11.65
12/02/2020 13:51:10	120220	12022020	135110	90.01	12.418753	-57.190177	90.09	-1.960	1.820	1.930	90.00	0.50	2.20	 	 	 	 	 	 	 	 	 	 	 	 	 	 	 	 	 	 	1581515470	6.90	12.78
12/02/2020 13:51:11	120220	12022020	135111	89.86	12.418748	-57.190135	89.89	-1.060	-0.370	2.380	89.80	-3.00	2.80	 	 	 	 	 	 	 	 	 	 	 	 	 	 	 	 	 	 	1581515471	8.98	16.63
12/02/2020 13:51:12	120220	12022020	135112	89.62	12.418747	-57.190085	89.71	0.460	-2.540	2.420	89.61	-3.70	2.80	 	 	 	 	 	 	 	 	 	 	 	 	 	 	 	 	 	 	1581515472	10.47	19.39
12/02/2020 13:51:13	120220	12022020	135113	89.64	12.418747	-57.190038	89.76	1.440	-2.960	2.390	89.65	-4.50	2.80	 	 	 	 	 	 	 	 	 	 	 	 	 	 	 	 	 	 	1581515473	10.04	18.59
12/02/2020 13:51:14	120220	12022020	135114	89.79	12.418748	-57.190000	89.90	1.240	-1.320	2.080	89.81	-3.10	2.50	 	 	 	 	 	 	 	 	 	 	 	 	 	 	 	 	 	 	1581515474	8.18	15.15
12/02/2020 13:51:15	120220	12022020	135115	89.91	12.418752	-57.189968	89.95	0.270	0.950	1.270	89.92	-0.80	1.80	 	 	 	 	 	 	 	 	 	 	 	 	 	 	 	 	 	 	1581515475	6.49	12.02
12/02/2020 13:51:16	120220	12022020	135116	89.84	12.418757	-57.189938	89.82	-0.570	2.090	0.560	89.79	0.60	1.00	 	 	 	 	 	 	 	 	 	 	 	 	 	 	 	 	 	 	1581515476	6.42	11.89
12/02/2020 13:51:17	120220	12022020	135117	89.57	12.418760	-57.189902	89.54	-0.670	1.470	0.180	89.52	0.20	0.60	 	 	 	 	 	 	 	 	 	 	 	 	 	 	 	 	 	 	1581515477	7.79	14.43
12/02/2020 13:51:18	120220	12022020	135118	89.52	12.418763	-57.189858	89.58	-0.280	0.040	-0.400	89.55	-1.20	0.10	 	 	 	 	 	 	 	 	 	 	 	 	 	 	 	 	 	 	1581515478	9.27	17.17
12/02/2020 13:51:19	120220	12022020	135119	89.67	12.418768	-57.189813	89.70	0.100	-1.220	-0.790	89.68	-2.50	-0.40	 	 	 	 	 	 	 	 	 	 	 	 	 	 	 	 	 	 	1581515479	9.55	17.69
12/02/2020 13:51:20	120220	12022020	135120	89.59	12.418770	-57.189770	89.55	0.240	-1.730	-0.340	89.53	-3.20	-0.10	 	 	 	 	 	 	 	 	 	 	 	 	 	 	 	 	 	 	1581515480	9.13	16.91
12/02/2020 13:51:21	120220	12022020	135121	89.28	12.418768	-57.189730	89.25	0.140	-1.250	0.750	89.21	-2.80	1.00	 	 	 	 	 	 	 	 	 	 	 	 	 	 	 	 	 	 	1581515481	8.41	15.58
12/02/2020 13:51:22	120220	12022020	135122	89.01	12.418763	-57.189695	89.09	0.020	-0.290	1.800	89.00	-1.90	2.10	 	 	 	 	 	 	 	 	 	 	 	 	 	 	 	 	 	 	1581515482	7.71	14.28
12/02/2020 13:51:23	120220	12022020	135123	89.08	12.418758	-57.189658	89.24	0.010	0.370	2.360	89.14	-1.00	2.90	 	 	 	 	 	 	 	 	 	 	 	 	 	 	 	 	 	 	1581515483	7.64	14.15
12/02/2020 13:51:24	120220	12022020	135124	89.39	12.418757	-57.189620	89.55	0.030	0.460	2.590	89.44	-1.00	2.90	 	 	 	 	 	 	 	 	 	 	 	 	 	 	 	 	 	 	1581515484	8.06	14.93
12/02/2020 13:51:25	120220	12022020	135125	89.56	12.418755	-57.189580	89.61	0.060	0.020	2.720	89.54	-1.40	3.10	 	 	 	 	 	 	 	 	 	 	 	 	 	 	 	 	 	 	1581515485	8.58	15.89
12/02/2020 13:51:26	120220	12022020	135126	89.28	12.418755	-57.189537	89.23	0.100	-0.530	2.860	89.19	-1.90	3.20	 	 	 	 	 	 	 	 	 	 	 	 	 	 	 	 	 	 	1581515486	9.04	16.74
12/02/2020 13:51:27	120220	12022020	135127	88.82	12.418755	-57.189495	88.81	0.100	-0.590	2.890	88.76	-2.10	3.30	 	 	 	 	 	 	 	 	 	 	 	 	 	 	 	 	 	 	1581515487	8.91	16.50
12/02/2020 13:51:28	120220	12022020	135128	88.76	12.418757	-57.189457	88.85	0.040	-0.120	2.330	88.80	-1.70	2.90	 	 	 	 	 	 	 	 	 	 	 	 	 	 	 	 	 	 	1581515488	8.25	15.28
12/02/2020 13:51:29	120220	12022020	135129	89.03	12.418763	-57.189420	89.10	0.020	0.120	1.060	89.08	-1.30	1.70	 	 	 	 	 	 	 	 	 	 	 	 	 	 	 	 	 	 	1581515489	7.89	14.61
12/02/2020 13:51:30	120220	12022020	135130	89.22	12.418773	-57.189380	89.26	0.160	-0.320	-0.070	89.25	-1.70	0.50	 	 	 	 	 	 	 	 	 	 	 	 	 	 	 	 	 	 	1581515490	8.61	15.95
12/02/2020 13:51:31	120220	12022020	135131	89.34	12.418780	-57.189337	89.37	0.260	-0.690	-0.250	89.35	-2.10	0.10	 	 	 	 	 	 	 	 	 	 	 	 	 	 	 	 	 	 	1581515491	9.16	16.96
12/02/2020 13:51:32	120220	12022020	135132	89.34	12.418780	-57.189297	89.35	0.100	-0.420	0.190	89.32	-1.90	0.50	 	 	 	 	 	 	 	 	 	 	 	 	 	 	 	 	 	 	1581515492	8.66	16.04
12/02/2020 13:51:33	120220	12022020	135133	89.24	12.418777	-57.189258	89.28	-0.200	-0.140	0.750	89.23	-1.60	1.10	 	 	 	 	 	 	 	 	 	 	 	 	 	 	 	 	 	 	1581515493	8.10	15.00
12/02/2020 13:51:34	120220	12022020	135134	89.21	12.418775	-57.189218	89.30	-0.340	-0.270	1.150	89.23	-1.70	1.50	 	 	 	 	 	 	 	 	 	 	 	 	 	 	 	 	 	 	1581515494	8.38	15.52
12/02/2020 13:51:35	120220	12022020	135135	89.42	12.418775	-57.189177	89.58	-0.200	-0.560	1.290	89.50	-2.10	1.80	 	 	 	 	 	 	 	 	 	 	 	 	 	 	 	 	 	 	1581515495	8.87	16.43
12/02/2020 13:51:36	120220	12022020	135136	89.81	12.418775	-57.189133	89.99	0.060	-0.560	1.390	89.90	-2.00	1.80	 	 	 	 	 	 	 	 	 	 	 	 	 	 	 	 	 	 	1581515496	8.91	16.50
12/02/2020 13:51:37	120220	12022020	135137	90.10	12.418777	-57.189093	90.20	0.280	-0.320	1.500	90.10	-1.60	2.00	 	 	 	 	 	 	 	 	 	 	 	 	 	 	 	 	 	 	1581515497	8.60	15.93
12/02/2020 13:51:38	120220	12022020	135138	89.97	12.418775	-57.189053	90.00	0.320	-0.000	1.850	89.92	-1.50	2.20	 	 	 	 	 	 	 	 	 	 	 	 	 	 	 	 	 	 	1581515498	8.52	15.78
12/02/2020 13:51:39	120220	12022020	135139	89.66	12.418773	-57.189013	89.72	0.080	0.410	2.130	89.62	-1.10	2.50	 	 	 	 	 	 	 	 	 	 	 	 	 	 	 	 	 	 	1581515499	8.42	15.59
12/02/2020 13:51:40	120220	12022020	135140	89.59	12.418775	-57.188975	89.71	-0.320	0.680	1.770	89.62	-0.80	2.30	 	 	 	 	 	 	 	 	 	 	 	 	 	 	 	 	 	 	1581515500	8.13	15.06
12/02/2020 13:51:41	120220	12022020	135141	89.88	12.418780	-57.188937	90.06	-0.580	0.380	0.980	89.97	-1.00	1.50	 	 	 	 	 	 	 	 	 	 	 	 	 	 	 	 	 	 	1581515501	8.34	15.45
12/02/2020 13:51:42	120220	12022020	135142	90.28	12.418785	-57.188895	90.40	-0.490	-0.540	0.420	90.33	-1.80	0.90	 	 	 	 	 	 	 	 	 	 	 	 	 	 	 	 	 	 	1581515502	8.86	16.41
12/02/2020 13:51:43	120220	12022020	135143	90.37	12.418787	-57.188850	90.38	0.140	-1.710	0.450	90.33	-3.00	0.80	 	 	 	 	 	 	 	 	 	 	 	 	 	 	 	 	 	 	1581515503	9.41	17.43
12/02/2020 13:51:44	120220	12022020	135144	90.04	12.418787	-57.188803	90.01	1.040	-2.370	0.930	89.96	-3.80	1.30	 	 	 	 	 	 	 	 	 	 	 	 	 	 	 	 	 	 	1581515504	9.87	18.28
12/02/2020 13:51:45	120220	12022020	135145	89.70	12.418787	-57.188758	89.74	1.330	-1.600	1.370	89.66	-3.30	1.70	 	 	 	 	 	 	 	 	 	 	 	 	 	 	 	 	 	 	1581515505	9.48	17.56
12/02/2020 13:51:46	120220	12022020	135146	89.71	12.418787	-57.188722	89.89	0.430	0.610	1.700	89.77	-1.20	2.10	 	 	 	 	 	 	 	 	 	 	 	 	 	 	 	 	 	 	1581515506	7.93	14.69
12/02/2020 13:51:47	120220	12022020	135147	90.19	12.418785	-57.188690	90.44	-1.160	2.700	1.760	90.32	1.00	2.20	 	 	 	 	 	 	 	 	 	 	 	 	 	 	 	 	 	 	1581515507	6.40	11.85
12/02/2020 13:51:48	120220	12022020	135148	90.82	12.418783	-57.188658	91.02	-2.170	2.790	1.510	90.92	1.50	1.90	 	 	 	 	 	 	 	 	 	 	 	 	 	 	 	 	 	 	1581515508	6.68	12.37
12/02/2020 13:51:49	120220	12022020	135149	91.12	12.418782	-57.188617	91.20	-1.650	0.410	1.320	91.13	-0.60	1.70	 	 	 	 	 	 	 	 	 	 	 	 	 	 	 	 	 	 	1581515509	8.89	16.46
12/02/2020 13:51:50	120220	12022020	135150	91.10	12.418778	-57.188565	91.17	-0.040	-2.330	1.240	91.08	-3.40	1.60	 	 	 	 	 	 	 	 	 	 	 	 	 	 	 	 	 	 	1581515510	11.02	20.41
12/02/2020 13:51:51	120220	12022020	135151	91.06	12.418778	-57.188515	91.11	1.250	-2.990	0.980	91.07	-4.50	1.40	 	 	 	 	 	 	 	 	 	 	 	 	 	 	 	 	 	 	1581515511	10.62	19.67
12/02/2020 13:51:52	120220	12022020	135152	91.07	12.418782	-57.188477	91.09	1.360	-1.510	0.500	91.06	-3.20	1.00	 	 	 	 	 	 	 	 	 	 	 	 	 	 	 	 	 	 	1581515512	8.22	15.22
12/02/2020 13:51:53	120220	12022020	135153	90.88	12.418788	-57.188443	90.84	0.750	0.060	0.300	90.81	-1.50	0.70	 	 	 	 	 	 	 	 	 	 	 	 	 	 	 	 	 	 	1581515513	6.84	12.67
12/02/2020 13:51:54	120220	12022020	135154	90.60	12.418792	-57.188408	90.64	0.290	0.440	0.350	90.59	-1.00	0.80	 	 	 	 	 	 	 	 	 	 	 	 	 	 	 	 	 	 	1581515514	7.63	14.13
12/02/2020 13:51:55	120220	12022020	135155	90.74	12.418792	-57.188365	90.87	0.100	0.350	0.280	90.81	-1.10	0.70	 	 	 	 	 	 	 	 	 	 	 	 	 	 	 	 	 	 	1581515515	8.99	16.65
12/02/2020 13:51:56	120220	12022020	135156	91.08	12.418792	-57.188323	91.18	-0.240	0.700	0.260	91.13	-0.80	0.60	 	 	 	 	 	 	 	 	 	 	 	 	 	 	 	 	 	 	1581515516	8.89	16.46
12/02/2020 13:51:57	120220	12022020	135157	91.20	12.418790	-57.188287	91.24	-0.870	1.210	0.710	91.19	-0.30	1.00	 	 	 	 	 	 	 	 	 	 	 	 	 	 	 	 	 	 	1581515517	7.93	14.69
12/02/2020 13:51:58	120220	12022020	135158	91.07	12.418785	-57.188250	91.08	-1.330	0.890	1.560	91.02	-0.40	1.80	 	 	 	 	 	 	 	 	 	 	 	 	 	 	 	 	 	 	1581515518	7.71	14.28
12/02/2020 13:51:59	120220	12022020	135159	90.78	12.418780	-57.188210	90.81	-1.050	-0.650	2.290	90.71	-1.80	2.60	 	 	 	 	 	 	 	 	 	 	 	 	 	 	 	 	 	 	1581515519	8.74	16.19
12/02/2020 13:52:00	120220	12022020	135200	90.54	12.418775	-57.188162	90.60	-0.010	-2.430	2.670	90.51	-3.60	3.00	 	 	 	 	 	 	 	 	 	 	 	 	 	 	 	 	 	 	1581515520	9.97	18.46
12/02/2020 13:52:01	120220	12022020	135201	90.37	12.418773	-57.188115	90.41	1.170	-2.950	2.860	90.31	-3.90	3.20	 	 	 	 	 	 	 	 	 	 	 	 	 	 	 	 	 	 	1581515521	10.12	18.74
12/02/2020 13:52:02	120220	12022020	135202	90.14	12.418773	-57.188073	90.22	1.610	-1.480	2.750	90.12	-3.20	3.20	1017.20	26.60	26.70	19.90	19.90	874.0	66.0	66.0	408.0	28.6	347.00	14.90	71.00	10.70	60220	13237.0	27.5	27.5	1581515522	8.85	16.39
12/02/2020 13:52:03	120220	12022020	135203	90.20	12.418777	-57.188040	90.40	0.940	1.020	2.150	90.26	-0.80	2.70	 	 	 	 	 	 	 	 	 	 	 	 	 	 	 	 	 	 	1581515523	7.00	12.96
12/02/2020 13:52:04	120220	12022020	135204	90.63	12.418782	-57.188010	90.82	-0.280	2.580	1.120	90.72	1.00	1.70	 	 	 	 	 	 	 	 	 	 	 	 	 	 	 	 	 	 	1581515524	6.38	11.82
12/02/2020 13:52:05	120220	12022020	135205	91.06	12.418790	-57.187975	91.16	-1.130	2.060	0.160	91.10	0.80	0.70	 	 	 	 	 	 	 	 	 	 	 	 	 	 	 	 	 	 	1581515525	7.61	14.09
12/02/2020 13:52:06	120220	12022020	135206	91.17	12.418793	-57.187932	91.17	-1.240	0.280	-0.260	91.15	-0.90	0.20	 	 	 	 	 	 	 	 	 	 	 	 	 	 	 	 	 	 	1581515526	9.27	17.17
12/02/2020 13:52:07	120220	12022020	135207	91.01	12.418793	-57.187885	90.99	-0.700	-1.610	-0.160	90.97	-2.80	0.20	 	 	 	 	 	 	 	 	 	 	 	 	 	 	 	 	 	 	1581515527	9.91	18.35
12/02/2020 13:52:08	120220	12022020	135208	90.87	12.418790	-57.187838	90.90	0.190	-2.740	-0.000	90.86	-4.10	0.40	 	 	 	 	 	 	 	 	 	 	 	 	 	 	 	 	 	 	1581515528	9.85	18.24
12/02/2020 13:52:09	120220	12022020	135209	90.85	12.418788	-57.187795	90.89	0.930	-2.270	0.110	90.86	-3.90	0.50	 	 	 	 	 	 	 	 	 	 	 	 	 	 	 	 	 	 	1581515529	9.13	16.91
12/02/2020 13:52:10	120220	12022020	135210	90.88	12.418788	-57.187758	90.91	0.960	-0.430	0.260	90.88	-2.20	0.60	 	 	 	 	 	 	 	 	 	 	 	 	 	 	 	 	 	 	1581515530	7.71	14.28
12/02/2020 13:52:11	120220	12022020	135211	90.90	12.418790	-57.187727	90.93	0.290	1.280	0.590	90.90	-0.40	0.90	 	 	 	 	 	 	 	 	 	 	 	 	 	 	 	 	 	 	1581515531	6.78	12.56
12/02/2020 13:52:12	120220	12022020	135212	90.84	12.418788	-57.187692	90.86	-0.390	1.610	1.010	90.82	0.20	1.40	 	 	 	 	 	 	 	 	 	 	 	 	 	 	 	 	 	 	1581515532	7.26	13.45
12/02/2020 13:52:13	120220	12022020	135213	90.86	12.418788	-57.187650	90.96	-0.440	0.570	1.170	90.90	-1.60	1.70	 	 	 	 	 	 	 	 	 	 	 	 	 	 	 	 	 	 	1581515533	8.75	16.21
12/02/2020 13:52:14	120220	12022020	135214	91.11	12.418788	-57.187603	91.25	-0.020	-0.720	1.390	91.17	-2.00	1.70	 	 	 	 	 	 	 	 	 	 	 	 	 	 	 	 	 	 	1581515534	9.77	18.09
12/02/2020 13:52:15	120220	12022020	135215	91.33	12.418787	-57.187558	91.43	0.230	-1.220	1.580	91.35	-2.70	1.90	 	 	 	 	 	 	 	 	 	 	 	 	 	 	 	 	 	 	1581515535	9.54	17.67
12/02/2020 13:52:16	120220	12022020	135216	91.32	12.418785	-57.187518	91.40	0.040	-0.750	1.730	91.29	-2.30	2.10	 	 	 	 	 	 	 	 	 	 	 	 	 	 	 	 	 	 	1581515536	8.46	15.67
12/02/2020 13:52:17	120220	12022020	135217	91.17	12.418783	-57.187483	91.25	-0.270	0.040	2.050	91.13	-1.50	2.40	 	 	 	 	 	 	 	 	 	 	 	 	 	 	 	 	 	 	1581515537	7.55	13.98
12/02/2020 13:52:18	120220	12022020	135218	91.02	12.418782	-57.187447	91.12	-0.240	0.170	2.140	90.99	-1.20	2.50	 	 	 	 	 	 	 	 	 	 	 	 	 	 	 	 	 	 	1581515538	7.64	14.15
12/02/2020 13:52:19	120220	12022020	135219	90.98	12.418783	-57.187407	91.12	0.080	-0.430	1.830	91.00	-1.80	2.30	 	 	 	 	 	 	 	 	 	 	 	 	 	 	 	 	 	 	1581515539	8.74	16.19
12/02/2020 13:52:20	120220	12022020	135220	91.04	12.418783	-57.187362	91.15	0.280	-0.840	1.590	91.05	-2.30	2.00	 	 	 	 	 	 	 	 	 	 	 	 	 	 	 	 	 	 	1581515540	9.26	17.15
12/02/2020 13:52:21	120220	12022020	135221	91.04	12.418783	-57.187320	91.12	0.300	-0.700	1.320	91.03	-2.20	1.80	 	 	 	 	 	 	 	 	 	 	 	 	 	 	 	 	 	 	1581515541	8.82	16.33
12/02/2020 13:52:22	120220	12022020	135222	90.91	12.418785	-57.187280	90.95	0.420	-0.410	0.970	90.87	-1.90	1.40	 	 	 	 	 	 	 	 	 	 	 	 	 	 	 	 	 	 	1581515542	8.40	15.56
12/02/2020 13:52:23	120220	12022020	135223	90.80	12.418788	-57.187240	90.89	0.480	-0.030	0.620	90.81	-1.60	1.10	 	 	 	 	 	 	 	 	 	 	 	 	 	 	 	 	 	 	1581515543	8.64	16.00
12/02/2020 13:52:24	120220	12022020	135224	91.02	12.418792	-57.187202	91.19	-0.010	0.690	0.430	91.10	-0.90	0.90	 	 	 	 	 	 	 	 	 	 	 	 	 	 	 	 	 	 	1581515544	8.31	15.39
12/02/2020 13:52:25	120220	12022020	135225	91.47	12.418795	-57.187165	91.65	-0.810	1.190	0.450	91.57	-0.40	1.00	 	 	 	 	 	 	 	 	 	 	 	 	 	 	 	 	 	 	1581515545	7.56	14.00
12/02/2020 13:52:26	120220	12022020	135226	91.87	12.418793	-57.187128	92.00	-1.070	0.570	0.720	91.94	-0.70	1.10	 	 	 	 	 	 	 	 	 	 	 	 	 	 	 	 	 	 	1581515546	7.75	14.35
12/02/2020 13:52:27	120220	12022020	135227	92.09	12.418788	-57.187085	92.14	-0.310	-1.210	1.160	92.09	-3.50	1.90	 	 	 	 	 	 	 	 	 	 	 	 	 	 	 	 	 	 	1581515547	9.19	17.02
12/02/2020 13:52:28	120220	12022020	135228	91.90	12.418782	-57.187037	91.90	0.800	-2.510	1.950	91.82	-3.90	2.20	 	 	 	 	 	 	 	 	 	 	 	 	 	 	 	 	 	 	1581515548	10.33	19.13
12/02/2020 13:52:29	120220	12022020	135229	91.50	12.418777	-57.186993	91.51	1.220	-1.890	2.310	91.44	-3.60	2.70	 	 	 	 	 	 	 	 	 	 	 	 	 	 	 	 	 	 	1581515549	9.44	17.48
12/02/2020 13:52:30	120220	12022020	135230	91.25	12.418777	-57.186957	91.30	0.690	-0.010	2.020	91.22	-1.80	2.50	 	 	 	 	 	 	 	 	 	 	 	 	 	 	 	 	 	 	1581515550	7.46	13.82
12/02/2020 13:52:31	120220	12022020	135231	91.18	12.418778	-57.186925	91.24	-0.110	1.280	1.440	91.19	-0.30	1.90	 	 	 	 	 	 	 	 	 	 	 	 	 	 	 	 	 	 	1581515551	6.85	12.69
12/02/2020 13:52:32	120220	12022020	135232	91.34	12.418783	-57.186888	91.45	-0.610	1.350	0.510	91.41	-0.10	1.10	 	 	 	 	 	 	 	 	 	 	 	 	 	 	 	 	 	 	1581515552	7.93	14.69
12/02/2020 13:52:33	120220	12022020	135233	91.73	12.418790	-57.186847	91.83	-0.690	0.710	-0.380	91.80	-0.60	0.10	 	 	 	 	 	 	 	 	 	 	 	 	 	 	 	 	 	 	1581515553	8.85	16.39
12/02/2020 13:52:34	120220	12022020	135234	92.01	12.418793	-57.186803	92.04	-0.290	-0.440	-0.500	92.03	-1.70	-0.10	 	 	 	 	 	 	 	 	 	 	 	 	 	 	 	 	 	 	1581515554	9.15	16.95
12/02/2020 13:52:35	120220	12022020	135235	92.02	12.418792	-57.186758	92.00	0.380	-1.510	-0.040	91.98	-2.90	0.30	 	 	 	 	 	 	 	 	 	 	 	 	 	 	 	 	 	 	1581515555	9.57	17.72
12/02/2020 13:52:36	120220	12022020	135236	91.80	12.418787	-57.186715	91.77	0.680	-1.510	0.610	91.75	-3.00	0.90	 	 	 	 	 	 	 	 	 	 	 	 	 	 	 	 	 	 	1581515556	9.33	17.28
12/02/2020 13:52:37	120220	12022020	135237	91.56	12.418783	-57.186675	91.57	0.330	-0.540	1.360	91.52	-2.20	1.60	 	 	 	 	 	 	 	 	 	 	 	 	 	 	 	 	 	 	1581515557	8.13	15.06
12/02/2020 13:52:38	120220	12022020	135238	91.40	12.418778	-57.186642	91.45	-0.260	0.420	2.080	91.37	-1.20	2.40	 	 	 	 	 	 	 	 	 	 	 	 	 	 	 	 	 	 	1581515558	7.43	13.76
12/02/2020 13:52:39	120220	12022020	135239	91.19	12.418775	-57.186605	91.21	-0.520	0.640	2.530	91.13	-0.80	2.90	 	 	 	 	 	 	 	 	 	 	 	 	 	 	 	 	 	 	1581515559	7.83	14.50
12/02/2020 13:52:40	120220	12022020	135240	91.00	12.418772	-57.186563	91.07	-0.290	0.130	2.540	90.99	-1.20	3.00	 	 	 	 	 	 	 	 	 	 	 	 	 	 	 	 	 	 	1581515560	8.64	16.00
12/02/2020 13:52:41	120220	12022020	135241	91.04	12.418773	-57.186520	91.14	0.200	-0.660	2.280	91.07	-2.00	2.70	 	 	 	 	 	 	 	 	 	 	 	 	 	 	 	 	 	 	1581515561	9.29	17.21
12/02/2020 13:52:42	120220	12022020	135242	91.21	12.418775	-57.186475	91.30	0.520	-1.030	1.830	91.24	-2.50	2.30	 	 	 	 	 	 	 	 	 	 	 	 	 	 	 	 	 	 	1581515562	9.40	17.41
12/02/2020 13:52:43	120220	12022020	135243	91.25	12.418777	-57.186433	91.30	0.380	-0.600	1.560	91.24	-2.20	2.00	 	 	 	 	 	 	 	 	 	 	 	 	 	 	 	 	 	 	1581515563	8.80	16.30
12/02/2020 13:52:44	120220	12022020	135244	91.22	12.418777	-57.186395	91.33	-0.060	0.170	1.530	91.24	-1.40	1.90	 	 	 	 	 	 	 	 	 	 	 	 	 	 	 	 	 	 	1581515564	7.99	14.80
12/02/2020 13:52:45	120220	12022020	135245	91.35	12.418777	-57.186358	91.42	-0.400	0.490	1.340	91.36	-1.00	1.80	 	 	 	 	 	 	 	 	 	 	 	 	 	 	 	 	 	 	1581515565	7.85	14.54
12/02/2020 13:52:46	120220	12022020	135246	91.28	12.418777	-57.186318	91.27	-0.280	0.050	1.060	91.23	-1.30	1.50	 	 	 	 	 	 	 	 	 	 	 	 	 	 	 	 	 	 	1581515566	8.42	15.59
12/02/2020 13:52:47	120220	12022020	135247	90.95	12.418778	-57.186275	90.91	0.290	-0.850	0.970	90.87	-2.20	1.40	 	 	 	 	 	 	 	 	 	 	 	 	 	 	 	 	 	 	1581515567	9.30	17.22
12/02/2020 13:52:48	120220	12022020	135248	90.72	12.418778	-57.186230	90.78	0.700	-1.060	1.000	90.73	-2.60	1.40	 	 	 	 	 	 	 	 	 	 	 	 	 	 	 	 	 	 	1581515568	9.64	17.85
12/02/2020 13:52:49	120220	12022020	135249	90.92	12.418782	-57.186188	91.07	0.420	-0.390	0.860	91.01	-2.00	1.30	 	 	 	 	 	 	 	 	 	 	 	 	 	 	 	 	 	 	1581515569	8.67	16.06
12/02/2020 13:52:50	120220	12022020	135250	91.39	12.418783	-57.186152	91.54	-0.310	0.270	0.790	91.48	-1.30	1.20	 	 	 	 	 	 	 	 	 	 	 	 	 	 	 	 	 	 	1581515570	7.85	14.54
12/02/2020 13:52:51	120220	12022020	135251	91.73	12.418780	-57.186113	91.79	-0.760	0.300	1.330	91.75	-1.10	1.60	 	 	 	 	 	 	 	 	 	 	 	 	 	 	 	 	 	 	1581515571	8.12	15.04
12/02/2020 13:52:52	120220	12022020	135252	91.63	12.418773	-57.186072	91.61	-0.550	-0.240	2.150	91.57	-1.60	2.50	 	 	 	 	 	 	 	 	 	 	 	 	 	 	 	 	 	 	1581515572	8.96	16.59
12/02/2020 13:52:53	120220	12022020	135253	91.29	12.418767	-57.186027	91.30	0.060	-0.730	2.500	91.24	-2.20	2.90	 	 	 	 	 	 	 	 	 	 	 	 	 	 	 	 	 	 	1581515573	9.50	17.59
12/02/2020 13:52:54	120220	12022020	135254	91.17	12.418767	-57.185983	91.29	0.320	-0.310	2.340	91.19	-1.90	2.80	 	 	 	 	 	 	 	 	 	 	 	 	 	 	 	 	 	 	1581515574	9.08	16.82
12/02/2020 13:52:55	120220	12022020	135255	91.46	12.418768	-57.185947	91.66	-0.030	0.470	1.870	91.55	-1.10	2.40	 	 	 	 	 	 	 	 	 	 	 	 	 	 	 	 	 	 	1581515575	7.89	14.61
12/02/2020 13:52:56	120220	12022020	135256	91.93	12.418770	-57.185910	92.07	-0.390	0.220	1.180	91.99	-1.10	1.70	 	 	 	 	 	 	 	 	 	 	 	 	 	 	 	 	 	 	1581515576	7.84	14.52
12/02/2020 13:52:57	120220	12022020	135257	92.07	12.418770	-57.185865	92.11	-0.050	-1.070	0.770	92.04	-2.40	1.20	 	 	 	 	 	 	 	 	 	 	 	 	 	 	 	 	 	 	1581515577	9.31	17.24
12/02/2020 13:52:58	120220	12022020	135258	91.82	12.418768	-57.185817	91.80	0.680	-1.690	0.610	91.75	-3.20	1.10	 	 	 	 	 	 	 	 	 	 	 	 	 	 	 	 	 	 	1581515578	10.17	18.83
12/02/2020 13:52:59	120220	12022020	135259	91.50	12.418770	-57.185773	91.50	1.010	-0.980	0.450	91.46	-2.60	0.90	 	 	 	 	 	 	 	 	 	 	 	 	 	 	 	 	 	 	1581515579	9.14	16.93
12/02/2020 13:53:00	120220	12022020	135300	91.40	12.418773	-57.185737	91.46	0.500	0.360	0.090	91.42	-1.30	0.60	 	 	 	 	 	 	 	 	 	 	 	 	 	 	 	 	 	 	1581515580	8.00	14.82
12/02/2020 13:53:01	120220	12022020	135301	91.54	12.418777	-57.185702	91.62	-0.540	1.340	-0.090	91.58	-0.20	0.30	 	 	 	 	 	 	 	 	 	 	 	 	 	 	 	 	 	 	1581515581	7.50	13.89
12/02/2020 13:53:02	120220	12022020	135302	91.65	12.418775	-57.185663	91.71	-1.230	1.140	0.340	91.65	-0.20	0.70	1017.30	26.60	26.60	20.00	20.10	629.0	67.0	67.0	409.0	28.5	343.00	15.90	68.00	11.80	49595	9380.0	27.5	27.5	1581515582	7.88	14.59
12/02/2020 13:53:03	120220	12022020	135303	91.58	12.418768	-57.185620	91.63	-0.940	-0.190	1.190	91.55	-2.40	1.90	 	 	 	 	 	 	 	 	 	 	 	 	 	 	 	 	 	 	1581515583	9.22	17.08
12/02/2020 13:53:04	120220	12022020	135304	91.47	12.418762	-57.185573	91.55	-0.020	-1.440	1.800	91.46	-2.80	2.10	 	 	 	 	 	 	 	 	 	 	 	 	 	 	 	 	 	 	1581515584	10.15	18.80
12/02/2020 13:53:05	120220	12022020	135305	91.41	12.418757	-57.185527	91.49	0.710	-1.760	2.220	91.39	-3.30	2.60	 	 	 	 	 	 	 	 	 	 	 	 	 	 	 	 	 	 	1581515585	9.79	18.13
12/02/2020 13:53:06	120220	12022020	135306	91.26	12.418753	-57.185485	91.32	0.750	-1.070	2.460	91.22	-2.70	2.80	 	 	 	 	 	 	 	 	 	 	 	 	 	 	 	 	 	 	1581515586	8.82	16.33
12/02/2020 13:53:07	120220	12022020	135307	91.03	12.418752	-57.185448	91.08	0.160	0.190	2.490	90.98	-1.50	2.90	 	 	 	 	 	 	 	 	 	 	 	 	 	 	 	 	 	 	1581515587	7.92	14.67
12/02/2020 13:53:08	120220	12022020	135308	90.85	12.418752	-57.185413	90.91	-0.510	1.140	2.170	90.82	-0.40	2.70	 	 	 	 	 	 	 	 	 	 	 	 	 	 	 	 	 	 	1581515588	7.51	13.91
12/02/2020 13:53:09	120220	12022020	135309	90.78	12.418753	-57.185375	90.82	-0.640	1.030	1.630	90.76	-0.40	2.10	 	 	 	 	 	 	 	 	 	 	 	 	 	 	 	 	 	 	1581515589	8.01	14.83
12/02/2020 13:53:10	120220	12022020	135310	90.65	12.418755	-57.185332	90.64	-0.170	-0.000	1.170	90.60	-1.30	1.70	 	 	 	 	 	 	 	 	 	 	 	 	 	 	 	 	 	 	1581515590	9.15	16.95
12/02/2020 13:53:11	120220	12022020	135311	90.39	12.418758	-57.185285	90.36	0.350	-1.110	0.840	90.33	-2.40	1.30	 	 	 	 	 	 	 	 	 	 	 	 	 	 	 	 	 	 	1581515591	9.85	18.24
12/02/2020 13:53:12	120220	12022020	135312	90.17	12.418760	-57.185240	90.22	0.510	-1.660	0.900	90.16	-3.10	1.30	 	 	 	 	 	 	 	 	 	 	 	 	 	 	 	 	 	 	1581515592	9.72	18.00
12/02/2020 13:53:13	120220	12022020	135313	90.27	12.418760	-57.185197	90.40	0.300	-1.230	1.230	90.31	-2.80	1.60	 	 	 	 	 	 	 	 	 	 	 	 	 	 	 	 	 	 	1581515593	9.10	16.85
12/02/2020 13:53:14	120220	12022020	135314	90.52	12.418757	-57.185158	90.67	-0.100	-0.030	1.630	90.57	-1.70	2.00	 	 	 	 	 	 	 	 	 	 	 	 	 	 	 	 	 	 	1581515594	8.16	15.11
12/02/2020 13:53:15	120220	12022020	135315	90.70	12.418752	-57.185122	90.81	-0.370	0.880	2.050	90.71	-0.50	2.70	 	 	 	 	 	 	 	 	 	 	 	 	 	 	 	 	 	 	1581515595	7.60	14.08
12/02/2020 13:53:16	120220	12022020	135316	90.68	12.418748	-57.185083	90.77	-0.320	0.760	2.330	90.66	-0.70	2.70	 	 	 	 	 	 	 	 	 	 	 	 	 	 	 	 	 	 	1581515596	8.26	15.30
12/02/2020 13:53:17	120220	12022020	135317	90.67	12.418747	-57.185040	90.77	-0.120	0.010	2.230	90.68	-1.80	2.60	 	 	 	 	 	 	 	 	 	 	 	 	 	 	 	 	 	 	1581515597	9.24	17.11
12/02/2020 13:53:18	120220	12022020	135318	90.66	12.418748	-57.184995	90.71	-0.000	-0.620	2.050	90.63	-2.00	2.50	 	 	 	 	 	 	 	 	 	 	 	 	 	 	 	 	 	 	1581515598	9.48	17.56
12/02/2020 13:53:19	120220	12022020	135319	90.42	12.418750	-57.184952	90.44	0.040	-1.070	1.950	90.37	-2.50	2.40	 	 	 	 	 	 	 	 	 	 	 	 	 	 	 	 	 	 	1581515599	9.23	17.09
12/02/2020 13:53:20	120220	12022020	135320	90.31	12.418752	-57.184907	90.42	0.100	-1.110	1.570	90.34	-2.60	2.10	 	 	 	 	 	 	 	 	 	 	 	 	 	 	 	 	 	 	1581515600	9.25	17.13
12/02/2020 13:53:21	120220	12022020	135321	90.56	12.418753	-57.184867	90.70	0.060	-0.280	1.090	90.62	-1.90	1.60	 	 	 	 	 	 	 	 	 	 	 	 	 	 	 	 	 	 	1581515601	8.74	16.19
12/02/2020 13:53:22	120220	12022020	135322	90.78	12.418753	-57.184828	90.86	-0.040	0.560	0.660	90.79	-1.00	1.10	 	 	 	 	 	 	 	 	 	 	 	 	 	 	 	 	 	 	1581515602	7.85	14.54
12/02/2020 13:53:23	120220	12022020	135323	90.64	12.418755	-57.184790	90.60	0.100	0.240	0.590	90.56	-1.10	1.00	 	 	 	 	 	 	 	 	 	 	 	 	 	 	 	 	 	 	1581515603	8.27	15.32
12/02/2020 13:53:24	120220	12022020	135324	90.27	12.418757	-57.184743	90.26	0.380	-0.690	0.800	90.21	-2.10	1.20	 	 	 	 	 	 	 	 	 	 	 	 	 	 	 	 	 	 	1581515604	9.72	18.00
12/02/2020 13:53:25	120220	12022020	135325	90.12	12.418757	-57.184697	90.20	0.230	-0.690	1.130	90.14	-2.20	1.50	 	 	 	 	 	 	 	 	 	 	 	 	 	 	 	 	 	 	1581515605	9.81	18.17
12/02/2020 13:53:26	120220	12022020	135326	90.29	12.418753	-57.184658	90.41	-0.440	0.170	1.450	90.34	-1.40	1.80	 	 	 	 	 	 	 	 	 	 	 	 	 	 	 	 	 	 	1581515606	8.39	15.54
12/02/2020 13:53:27	120220	12022020	135327	90.48	12.418750	-57.184622	90.58	-0.970	0.550	1.810	90.49	-0.90	2.20	 	 	 	 	 	 	 	 	 	 	 	 	 	 	 	 	 	 	1581515607	7.74	14.33
12/02/2020 13:53:28	120220	12022020	135328	90.39	12.418745	-57.184582	90.39	-0.700	-0.140	2.280	90.32	-1.50	2.60	 	 	 	 	 	 	 	 	 	 	 	 	 	 	 	 	 	 	1581515608	8.62	15.96
12/02/2020 13:53:29	120220	12022020	135329	89.97	12.418742	-57.184535	89.96	0.310	-1.320	2.620	89.89	-2.60	3.00	 	 	 	 	 	 	 	 	 	 	 	 	 	 	 	 	 	 	1581515609	9.87	18.28
12/02/2020 13:53:30	120220	12022020	135330	89.77	12.418740	-57.184487	89.91	1.170	-1.670	2.490	89.79	-3.20	3.00	 	 	 	 	 	 	 	 	 	 	 	 	 	 	 	 	 	 	1581515610	10.23	18.95
12/02/2020 13:53:31	120220	12022020	135331	90.03	12.418743	-57.184443	90.22	0.960	-0.440	2.080	90.10	-2.10	2.60	 	 	 	 	 	 	 	 	 	 	 	 	 	 	 	 	 	 	1581515611	9.00	16.67
12/02/2020 13:53:32	120220	12022020	135332	90.30	12.418745	-57.184408	90.37	-0.150	1.220	1.500	90.31	-0.40	2.00	 	 	 	 	 	 	 	 	 	 	 	 	 	 	 	 	 	 	1581515612	7.32	13.56
12/02/2020 13:53:33	120220	12022020	135333	90.16	12.418747	-57.184375	90.13	-1.050	1.560	1.100	90.09	0.20	1.60	 	 	 	 	 	 	 	 	 	 	 	 	 	 	 	 	 	 	1581515613	7.20	13.33
12/02/2020 13:53:34	120220	12022020	135334	89.78	12.418748	-57.184333	89.75	-0.890	0.140	1.000	89.70	-1.00	1.40	 	 	 	 	 	 	 	 	 	 	 	 	 	 	 	 	 	 	1581515614	8.93	16.54
12/02/2020 13:53:35	120220	12022020	135335	89.53	12.418748	-57.184283	89.57	-0.030	-1.420	0.890	89.52	-2.70	1.40	 	 	 	 	 	 	 	 	 	 	 	 	 	 	 	 	 	 	1581515615	10.48	19.41
12/02/2020 13:53:36	120220	12022020	135336	89.56	12.418750	-57.184235	89.59	0.530	-1.630	0.640	89.56	-3.10	1.10	 	 	 	 	 	 	 	 	 	 	 	 	 	 	 	 	 	 	1581515616	10.04	18.59
12/02/2020 13:53:37	120220	12022020	135337	89.45	12.418752	-57.184195	89.40	0.300	-0.680	0.860	89.38	-2.30	1.20	 	 	 	 	 	 	 	 	 	 	 	 	 	 	 	 	 	 	1581515617	8.47	15.69
12/02/2020 13:53:38	120220	12022020	135338	89.04	12.418748	-57.184160	89.00	-0.270	0.120	1.650	88.97	-1.40	2.00	 	 	 	 	 	 	 	 	 	 	 	 	 	 	 	 	 	 	1581515618	7.73	14.32
12/02/2020 13:53:39	120220	12022020	135339	88.84	12.418743	-57.184120	88.90	-0.370	0.040	2.140	88.84	-1.40	2.50	 	 	 	 	 	 	 	 	 	 	 	 	 	 	 	 	 	 	1581515619	8.46	15.67
12/02/2020 13:53:40	120220	12022020	135340	88.87	12.418742	-57.184075	88.90	0.210	-0.370	2.180	88.87	-1.80	2.60	 	 	 	 	 	 	 	 	 	 	 	 	 	 	 	 	 	 	1581515620	9.41	17.43
12/02/2020 13:53:41	120220	12022020	135341	88.90	12.418742	-57.184030	88.95	0.690	-0.140	2.110	88.92	-1.30	2.50	 	 	 	 	 	 	 	 	 	 	 	 	 	 	 	 	 	 	1581515621	9.43	17.46
12/02/2020 13:53:42	120220	12022020	135342	89.05	12.418745	-57.183990	89.13	0.400	0.450	2.080	89.09	-1.10	2.50	 	 	 	 	 	 	 	 	 	 	 	 	 	 	 	 	 	 	1581515622	8.44	15.63
12/02/2020 13:53:43	120220	12022020	135343	89.25	12.418745	-57.183952	89.31	-0.350	0.490	2.150	89.27	-0.90	2.60	 	 	 	 	 	 	 	 	 	 	 	 	 	 	 	 	 	 	1581515623	8.08	14.96
12/02/2020 13:53:44	120220	12022020	135344	89.15	12.418743	-57.183912	89.11	-0.790	-0.180	2.520	89.08	-1.50	2.90	 	 	 	 	 	 	 	 	 	 	 	 	 	 	 	 	 	 	1581515624	8.72	16.15
12/02/2020 13:53:45	120220	12022020	135345	88.67	12.418742	-57.183867	88.59	-0.470	-1.090	2.850	88.57	-2.40	3.30	 	 	 	 	 	 	 	 	 	 	 	 	 	 	 	 	 	 	1581515625	9.42	17.45
12/02/2020 13:53:46	120220	12022020	135346	88.28	12.418742	-57.183822	88.28	0.250	-1.510	2.690	88.25	-2.90	3.20	 	 	 	 	 	 	 	 	 	 	 	 	 	 	 	 	 	 	1581515626	9.68	17.93
12/02/2020 13:53:47	120220	12022020	135347	88.28	12.418745	-57.183778	88.34	0.620	-1.050	2.090	88.31	-2.60	2.60	 	 	 	 	 	 	 	 	 	 	 	 	 	 	 	 	 	 	1581515627	9.16	16.96
12/02/2020 13:53:48	120220	12022020	135348	88.49	12.418750	-57.183738	88.56	0.400	-0.210	1.340	88.55	-1.80	1.90	 	 	 	 	 	 	 	 	 	 	 	 	 	 	 	 	 	 	1581515628	8.44	15.63
12/02/2020 13:53:49	120220	12022020	135349	88.81	12.418755	-57.183700	88.92	-0.020	0.400	0.690	88.89	-1.10	1.20	 	 	 	 	 	 	 	 	 	 	 	 	 	 	 	 	 	 	1581515629	8.27	15.32
12/02/2020 13:53:50	120220	12022020	135350	89.17	12.418758	-57.183660	89.25	-0.270	0.690	0.520	89.21	-0.80	0.90	 	 	 	 	 	 	 	 	 	 	 	 	 	 	 	 	 	 	1581515630	8.47	15.69
12/02/2020 13:53:51	120220	12022020	135351	89.19	12.418757	-57.183618	89.13	-0.270	0.400	1.000	89.13	-1.00	1.30	 	 	 	 	 	 	 	 	 	 	 	 	 	 	 	 	 	 	1581515631	8.73	16.17
12/02/2020 13:53:52	120220	12022020	135352	88.82	12.418753	-57.183573	88.78	-0.090	-0.310	1.530	88.76	-1.70	1.90	 	 	 	 	 	 	 	 	 	 	 	 	 	 	 	 	 	 	1581515632	9.39	17.39
12/02/2020 13:53:53	120220	12022020	135353	88.74	12.418753	-57.183528	88.87	0.080	-0.800	1.610	88.80	-2.30	1.90	 	 	 	 	 	 	 	 	 	 	 	 	 	 	 	 	 	 	1581515633	9.55	17.69
12/02/2020 13:53:54	120220	12022020	135354	89.18	12.418755	-57.183485	89.35	0.180	-0.820	1.360	89.28	-2.30	1.80	 	 	 	 	 	 	 	 	 	 	 	 	 	 	 	 	 	 	1581515634	9.11	16.87
12/02/2020 13:53:55	120220	12022020	135355	89.48	12.418758	-57.183445	89.52	0.210	-0.540	1.290	89.48	-2.00	1.70	 	 	 	 	 	 	 	 	 	 	 	 	 	 	 	 	 	 	1581515635	8.71	16.13
12/02/2020 13:53:56	120220	12022020	135356	89.32	12.418760	-57.183405	89.30	0.060	-0.080	1.610	89.26	-1.60	2.00	 	 	 	 	 	 	 	 	 	 	 	 	 	 	 	 	 	 	1581515636	8.52	15.78
12/02/2020 13:53:57	120220	12022020	135357	89.05	12.418760	-57.183365	89.09	-0.160	0.050	1.960	89.02	-1.40	2.40	 	 	 	 	 	 	 	 	 	 	 	 	 	 	 	 	 	 	1581515637	8.43	15.61
12/02/2020 13:53:58	120220	12022020	135358	88.99	12.418758	-57.183322	89.06	-0.110	-0.500	2.120	89.00	-1.80	2.50	 	 	 	 	 	 	 	 	 	 	 	 	 	 	 	 	 	 	1581515638	9.07	16.80
12/02/2020 13:53:59	120220	12022020	135359	89.01	12.418758	-57.183275	89.04	0.200	-1.050	2.040	89.00	-2.40	2.50	 	 	 	 	 	 	 	 	 	 	 	 	 	 	 	 	 	 	1581515639	9.83	18.21
12/02/2020 13:54:00	120220	12022020	135400	88.91	12.418760	-57.183230	88.90	0.330	-0.790	1.760	88.88	-2.30	2.20	 	 	 	 	 	 	 	 	 	 	 	 	 	 	 	 	 	 	1581515640	9.62	17.82
12/02/2020 13:54:01	120220	12022020	135401	88.80	12.418762	-57.183188	88.83	-0.020	0.220	1.710	88.80	-1.40	2.10	 	 	 	 	 	 	 	 	 	 	 	 	 	 	 	 	 	 	1581515641	8.68	16.08
12/02/2020 13:54:02	120220	12022020	135402	88.83	12.418763	-57.183152	88.88	-0.690	1.180	1.870	88.84	-0.40	2.30	1017.30	26.60	26.60	20.10	20.20	723.0	67.0	67.0	408.0	28.5	344.00	15.60	67.00	11.30	53697	12950.0	27.5	27.5	1581515642	7.88	14.59
12/02/2020 13:54:03	120220	12022020	135403	88.92	12.418762	-57.183113	88.99	-1.100	1.220	1.700	88.95	-0.20	2.20	 	 	 	 	 	 	 	 	 	 	 	 	 	 	 	 	 	 	1581515643	7.93	14.69
12/02/2020 13:54:04	120220	12022020	135404	88.96	12.418763	-57.183072	88.98	-0.620	-0.230	1.430	88.94	-1.40	1.90	 	 	 	 	 	 	 	 	 	 	 	 	 	 	 	 	 	 	1581515644	8.99	16.65
12/02/2020 13:54:05	120220	12022020	135405	88.87	12.418767	-57.183022	88.91	0.660	-2.220	1.290	88.87	-4.10	1.70	 	 	 	 	 	 	 	 	 	 	 	 	 	 	 	 	 	 	1581515645	10.63	19.69
12/02/2020 13:54:06	120220	12022020	135406	88.98	12.418768	-57.182970	89.06	1.600	-2.630	1.210	89.02	-4.10	1.70	 	 	 	 	 	 	 	 	 	 	 	 	 	 	 	 	 	 	1581515646	10.84	20.08
12/02/2020 13:54:07	120220	12022020	135407	89.15	12.418770	-57.182928	89.19	1.320	-0.930	1.180	89.17	-1.20	1.60	 	 	 	 	 	 	 	 	 	 	 	 	 	 	 	 	 	 	1581515647	8.83	16.35
12/02/2020 13:54:08	120220	12022020	135408	89.14	12.418772	-57.182895	89.12	0.160	1.290	1.160	89.12	-0.40	1.60	 	 	 	 	 	 	 	 	 	 	 	 	 	 	 	 	 	 	1581515648	6.97	12.91
12/02/2020 13:54:09	120220	12022020	135409	89.02	12.418775	-57.182863	89.02	-0.940	2.320	1.220	89.00	0.80	1.70	 	 	 	 	 	 	 	 	 	 	 	 	 	 	 	 	 	 	1581515649	6.93	12.83
12/02/2020 13:54:10	120220	12022020	135410	89.01	12.418778	-57.182823	89.08	-1.380	1.480	1.290	89.04	0.30	1.70	 	 	 	 	 	 	 	 	 	 	 	 	 	 	 	 	 	 	1581515650	8.32	15.41
12/02/2020 13:54:11	120220	12022020	135411	89.24	12.418780	-57.182777	89.36	-1.080	-0.560	1.180	89.30	-1.70	1.60	 	 	 	 	 	 	 	 	 	 	 	 	 	 	 	 	 	 	1581515651	9.95	18.43
12/02/2020 13:54:12	120220	12022020	135412	89.47	12.418780	-57.182727	89.55	-0.300	-2.270	1.440	89.49	-3.50	1.80	 	 	 	 	 	 	 	 	 	 	 	 	 	 	 	 	 	 	1581515652	10.69	19.80
12/02/2020 13:54:13	120220	12022020	135413	89.45	12.418775	-57.182678	89.48	0.470	-2.510	2.040	89.41	-4.00	2.40	 	 	 	 	 	 	 	 	 	 	 	 	 	 	 	 	 	 	1581515653	10.10	18.71
12/02/2020 13:54:14	120220	12022020	135414	89.31	12.418772	-57.182637	89.37	0.750	-1.260	2.210	89.31	-2.90	2.70	 	 	 	 	 	 	 	 	 	 	 	 	 	 	 	 	 	 	1581515654	8.79	16.28
12/02/2020 13:54:15	120220	12022020	135415	89.36	12.418773	-57.182602	89.44	0.400	0.570	1.870	89.40	-1.10	2.40	 	 	 	 	 	 	 	 	 	 	 	 	 	 	 	 	 	 	1581515655	7.56	14.00
12/02/2020 13:54:16	120220	12022020	135416	89.55	12.418777	-57.182567	89.63	-0.180	1.630	1.310	89.59	0.10	1.90	 	 	 	 	 	 	 	 	 	 	 	 	 	 	 	 	 	 	1581515656	7.32	13.56
12/02/2020 13:54:17	120220	12022020	135417	89.80	12.418782	-57.182527	89.90	-0.370	1.080	0.540	89.86	-0.20	1.10	 	 	 	 	 	 	 	 	 	 	 	 	 	 	 	 	 	 	1581515657	8.41	15.58
12/02/2020 13:54:18	120220	12022020	135418	90.09	12.418788	-57.182480	90.16	-0.070	-0.330	-0.150	90.14	-1.60	0.40	 	 	 	 	 	 	 	 	 	 	 	 	 	 	 	 	 	 	1581515658	9.94	18.41
12/02/2020 13:54:19	120220	12022020	135419	90.27	12.418792	-57.182433	90.29	0.330	-1.220	-0.190	90.29	-2.60	0.20	 	 	 	 	 	 	 	 	 	 	 	 	 	 	 	 	 	 	1581515659	10.21	18.91
12/02/2020 13:54:20	120220	12022020	135420	90.31	12.418792	-57.182388	90.30	0.480	-1.110	0.130	90.30	-2.60	0.50	 	 	 	 	 	 	 	 	 	 	 	 	 	 	 	 	 	 	1581515660	9.26	17.15
12/02/2020 13:54:21	120220	12022020	135421	90.20	12.418792	-57.182348	90.21	0.280	-0.610	0.540	90.19	-2.10	0.90	 	 	 	 	 	 	 	 	 	 	 	 	 	 	 	 	 	 	1581515661	8.46	15.67
12/02/2020 13:54:22	120220	12022020	135422	90.14	12.418792	-57.182308	90.20	-0.140	-0.130	1.280	90.14	-1.60	1.60	 	 	 	 	 	 	 	 	 	 	 	 	 	 	 	 	 	 	1581515662	8.39	15.54
12/02/2020 13:54:23	120220	12022020	135423	90.19	12.418787	-57.182268	90.27	-0.460	0.150	2.090	90.20	-1.30	2.40	 	 	 	 	 	 	 	 	 	 	 	 	 	 	 	 	 	 	1581515663	8.52	15.78
12/02/2020 13:54:24	120220	12022020	135424	90.26	12.418782	-57.182227	90.35	-0.360	0.030	2.500	90.28	-1.40	2.90	 	 	 	 	 	 	 	 	 	 	 	 	 	 	 	 	 	 	1581515664	8.86	16.41
12/02/2020 13:54:25	120220	12022020	135425	90.35	12.418778	-57.182183	90.44	-0.060	-0.310	2.610	90.36	-1.70	3.00	 	 	 	 	 	 	 	 	 	 	 	 	 	 	 	 	 	 	1581515665	9.27	17.17
12/02/2020 13:54:26	120220	12022020	135426	90.39	12.418778	-57.182138	90.46	0.110	-0.560	2.570	90.39	-2.00	3.00	 	 	 	 	 	 	 	 	 	 	 	 	 	 	 	 	 	 	1581515666	9.40	17.41
12/02/2020 13:54:27	120220	12022020	135427	90.37	12.418778	-57.182097	90.42	0.040	-0.490	2.310	90.36	-1.90	2.80	 	 	 	 	 	 	 	 	 	 	 	 	 	 	 	 	 	 	1581515667	9.12	16.89
12/02/2020 13:54:28	120220	12022020	135428	90.29	12.418782	-57.182055	90.29	0.010	-0.240	1.900	90.25	-1.70	2.40	 	 	 	 	 	 	 	 	 	 	 	 	 	 	 	 	 	 	1581515668	8.73	16.17
12/02/2020 13:54:29	120220	12022020	135429	90.18	12.418785	-57.182013	90.21	0.190	-0.200	1.430	90.18	-1.60	1.90	 	 	 	 	 	 	 	 	 	 	 	 	 	 	 	 	 	 	1581515669	8.80	16.30
12/02/2020 13:54:30	120220	12022020	135430	90.18	12.418788	-57.181970	90.20	0.410	-0.420	1.030	90.17	-1.80	1.50	 	 	 	 	 	 	 	 	 	 	 	 	 	 	 	 	 	 	1581515670	9.18	17.00
12/02/2020 13:54:31	120220	12022020	135431	90.12	12.418790	-57.181925	90.13	0.470	-0.590	0.930	90.10	-2.00	1.40	 	 	 	 	 	 	 	 	 	 	 	 	 	 	 	 	 	 	1581515671	9.48	17.56
12/02/2020 13:54:32	120220	12022020	135432	90.16	12.418790	-57.181882	90.23	0.230	-0.200	0.960	90.19	-1.70	1.40	 	 	 	 	 	 	 	 	 	 	 	 	 	 	 	 	 	 	1581515672	9.22	17.08
12/02/2020 13:54:33	120220	12022020	135433	90.40	12.418790	-57.181842	90.50	-0.270	0.640	1.010	90.45	-0.90	1.40	 	 	 	 	 	 	 	 	 	 	 	 	 	 	 	 	 	 	1581515673	8.42	15.59
12/02/2020 13:54:34	120220	12022020	135434	90.69	12.418788	-57.181805	90.80	-0.800	1.090	1.100	90.74	-0.30	1.50	 	 	 	 	 	 	 	 	 	 	 	 	 	 	 	 	 	 	1581515674	7.89	14.61
12/02/2020 13:54:35	120220	12022020	135435	90.90	12.418788	-57.181765	90.96	-0.850	0.310	1.290	90.91	-0.90	1.70	 	 	 	 	 	 	 	 	 	 	 	 	 	 	 	 	 	 	1581515675	8.38	15.52
12/02/2020 13:54:36	120220	12022020	135436	90.90	12.418788	-57.181718	90.93	-0.020	-1.650	1.590	90.88	-2.70	2.00	 	 	 	 	 	 	 	 	 	 	 	 	 	 	 	 	 	 	1581515676	9.87	18.28
12/02/2020 13:54:37	120220	12022020	135437	90.80	12.418787	-57.181667	90.89	1.010	-2.760	2.020	90.78	-4.10	2.40	 	 	 	 	 	 	 	 	 	 	 	 	 	 	 	 	 	 	1581515677	11.01	20.39
12/02/2020 13:54:38	120220	12022020	135438	90.68	12.418783	-57.181620	90.78	1.180	-1.740	2.600	90.67	-3.40	3.00	 	 	 	 	 	 	 	 	 	 	 	 	 	 	 	 	 	 	1581515678	9.69	17.95
12/02/2020 13:54:39	120220	12022020	135439	90.67	12.418780	-57.181583	90.81	0.370	0.370	2.700	90.68	-1.30	3.20	 	 	 	 	 	 	 	 	 	 	 	 	 	 	 	 	 	 	1581515679	7.71	14.28
12/02/2020 13:54:40	120220	12022020	135440	90.82	12.418778	-57.181550	91.00	-0.570	1.800	2.060	90.88	0.30	2.60	 	 	 	 	 	 	 	 	 	 	 	 	 	 	 	 	 	 	1581515680	7.09	13.13
12/02/2020 13:54:41	120220	12022020	135441	91.19	12.418782	-57.181513	91.37	-0.880	1.830	1.160	91.27	0.50	1.70	 	 	 	 	 	 	 	 	 	 	 	 	 	 	 	 	 	 	1581515681	8.03	14.87
12/02/2020 13:54:42	120220	12022020	135442	91.57	12.418787	-57.181468	91.68	-0.520	0.670	0.210	91.62	-0.50	0.80	 	 	 	 	 	 	 	 	 	 	 	 	 	 	 	 	 	 	1581515682	9.29	17.21
12/02/2020 13:54:43	120220	12022020	135443	91.69	12.418792	-57.181422	91.73	-0.010	-0.840	-0.350	91.68	-2.80	0.10	 	 	 	 	 	 	 	 	 	 	 	 	 	 	 	 	 	 	1581515683	10.14	18.78
12/02/2020 13:54:44	120220	12022020	135444	91.54	12.418793	-57.181373	91.53	0.280	-1.840	-0.120	91.49	-3.10	0.30	 	 	 	 	 	 	 	 	 	 	 	 	 	 	 	 	 	 	1581515684	10.05	18.61
12/02/2020 13:54:45	120220	12022020	135445	91.31	12.418790	-57.181328	91.33	0.340	-1.910	0.380	91.28	-3.30	0.80	 	 	 	 	 	 	 	 	 	 	 	 	 	 	 	 	 	 	1581515685	9.48	17.56
12/02/2020 13:54:46	120220	12022020	135446	91.23	12.418787	-57.181287	91.28	0.400	-1.350	0.730	91.23	-2.90	1.10	 	 	 	 	 	 	 	 	 	 	 	 	 	 	 	 	 	 	1581515686	8.83	16.35
12/02/2020 13:54:47	120220	12022020	135447	91.29	12.418783	-57.181247	91.38	0.540	-0.510	1.020	91.31	-2.10	1.40	 	 	 	 	 	 	 	 	 	 	 	 	 	 	 	 	 	 	1581515687	8.69	16.09
12/02/2020 13:54:48	120220	12022020	135448	91.31	12.418782	-57.181207	91.36	0.270	0.880	1.470	91.29	-0.80	1.80	 	 	 	 	 	 	 	 	 	 	 	 	 	 	 	 	 	 	1581515688	8.50	15.74
12/02/2020 13:54:49	120220	12022020	135449	91.19	12.418778	-57.181170	91.21	-0.640	2.220	1.680	91.15	0.70	2.10	 	 	 	 	 	 	 	 	 	 	 	 	 	 	 	 	 	 	1581515689	7.54	13.96
12/02/2020 13:54:50	120220	12022020	135450	90.93	12.418778	-57.181135	90.94	-1.450	1.930	1.600	90.86	0.70	2.00	 	 	 	 	 	 	 	 	 	 	 	 	 	 	 	 	 	 	1581515690	7.50	13.89
12/02/2020 13:54:51	120220	12022020	135451	90.56	12.418778	-57.181092	90.55	-1.080	-0.600	1.620	90.48	-1.50	2.10	 	 	 	 	 	 	 	 	 	 	 	 	 	 	 	 	 	 	1581515691	9.37	17.35
12/02/2020 13:54:52	120220	12022020	135452	90.32	12.418778	-57.181037	90.38	0.310	-3.160	1.520	90.31	-4.30	2.00	 	 	 	 	 	 	 	 	 	 	 	 	 	 	 	 	 	 	1581515692	11.49	21.28
12/02/2020 13:54:53	120220	12022020	135453	90.34	12.418778	-57.180985	90.43	1.530	-3.300	1.490	90.35	-4.80	1.90	 	 	 	 	 	 	 	 	 	 	 	 	 	 	 	 	 	 	1581515693	10.81	20.02
12/02/2020 13:54:54	120220	12022020	135454	90.32	12.418777	-57.180947	90.39	1.650	-1.280	1.760	90.30	-3.00	2.10	 	 	 	 	 	 	 	 	 	 	 	 	 	 	 	 	 	 	1581515694	8.35	15.46
12/02/2020 13:54:55	120220	12022020	135455	90.17	12.418775	-57.180913	90.22	0.780	1.090	2.150	90.13	0.60	2.60	 	 	 	 	 	 	 	 	 	 	 	 	 	 	 	 	 	 	1581515695	6.87	12.72
12/02/2020 13:54:56	120220	12022020	135456	90.10	12.418775	-57.180882	90.21	-0.580	2.600	2.120	90.12	1.00	2.60	 	 	 	 	 	 	 	 	 	 	 	 	 	 	 	 	 	 	1581515696	6.88	12.74
12/02/2020 13:54:57	120220	12022020	135457	90.25	12.418777	-57.180845	90.40	-1.650	2.520	1.730	90.29	0.30	2.00	 	 	 	 	 	 	 	 	 	 	 	 	 	 	 	 	 	 	1581515697	7.51	13.91
12/02/2020 13:54:58	120220	12022020	135458	90.43	12.418778	-57.180803	90.54	-1.590	0.560	1.400	90.44	-0.50	1.90	 	 	 	 	 	 	 	 	 	 	 	 	 	 	 	 	 	 	1581515698	8.88	16.45
12/02/2020 13:54:59	120220	12022020	135459	90.40	12.418778	-57.180753	90.47	-0.390	-2.130	1.260	90.37	-3.20	1.70	 	 	 	 	 	 	 	 	 	 	 	 	 	 	 	 	 	 	1581515699	10.57	19.58
12/02/2020 13:55:00	120220	12022020	135500	90.24	12.418778	-57.180702	90.31	0.990	-3.380	1.230	90.21	-4.70	1.70	 	 	 	 	 	 	 	 	 	 	 	 	 	 	 	 	 	 	1581515700	10.89	20.17
12/02/2020 13:55:01	120220	12022020	135501	90.18	12.418780	-57.180658	90.29	1.410	-2.230	1.350	90.19	-3.90	1.80	 	 	 	 	 	 	 	 	 	 	 	 	 	 	 	 	 	 	1581515701	9.15	16.95
12/02/2020 13:55:02	120220	12022020	135502	90.32	12.418780	-57.180625	90.50	0.700	0.050	1.500	90.37	-1.70	1.90	1017.20	26.60	26.60	20.10	20.20	557.0	67.0	67.0	408.0	28.4	345.00	16.10	69.00	11.80	46260	12090.0	27.5	27.5	1581515702	7.10	13.15
12/02/2020 13:55:03	120220	12022020	135503	90.62	12.418780	-57.180593	90.78	-0.340	1.470	1.580	90.67	-0.10	2.00	 	 	 	 	 	 	 	 	 	 	 	 	 	 	 	 	 	 	1581515703	6.72	12.45
12/02/2020 13:55:04	120220	12022020	135504	90.73	12.418777	-57.180555	90.81	-0.940	1.480	1.790	90.70	0.10	2.20	 	 	 	 	 	 	 	 	 	 	 	 	 	 	 	 	 	 	1581515704	8.01	14.83
12/02/2020 13:55:05	120220	12022020	135505	90.55	12.418773	-57.180512	90.59	-0.810	0.610	1.830	90.50	-0.70	2.30	 	 	 	 	 	 	 	 	 	 	 	 	 	 	 	 	 	 	1581515705	9.18	17.00
12/02/2020 13:55:06	120220	12022020	135506	90.39	12.418773	-57.180467	90.49	-0.110	-0.400	1.440	90.39	-1.70	2.00	 	 	 	 	 	 	 	 	 	 	 	 	 	 	 	 	 	 	1581515706	9.63	17.83
12/02/2020 13:55:07	120220	12022020	135507	90.54	12.418778	-57.180422	90.69	0.640	-1.110	0.810	90.60	-2.40	1.30	 	 	 	 	 	 	 	 	 	 	 	 	 	 	 	 	 	 	1581515707	9.57	17.72
12/02/2020 13:55:08	120220	12022020	135508	90.82	12.418783	-57.180378	90.93	0.910	-1.240	0.380	90.87	-2.70	0.90	 	 	 	 	 	 	 	 	 	 	 	 	 	 	 	 	 	 	1581515708	9.31	17.24
12/02/2020 13:55:09	120220	12022020	135509	91.00	12.418787	-57.180337	91.07	0.530	-0.750	0.280	91.01	-2.20	0.70	 	 	 	 	 	 	 	 	 	 	 	 	 	 	 	 	 	 	1581515709	8.65	16.02
12/02/2020 13:55:10	120220	12022020	135510	90.99	12.418787	-57.180298	91.03	-0.150	-0.080	0.810	90.97	-1.60	1.10	 	 	 	 	 	 	 	 	 	 	 	 	 	 	 	 	 	 	1581515710	8.16	15.11
12/02/2020 13:55:11	120220	12022020	135511	90.79	12.418780	-57.180260	90.80	-0.670	0.520	1.730	90.74	-1.00	2.00	 	 	 	 	 	 	 	 	 	 	 	 	 	 	 	 	 	 	1581515711	8.17	15.13
12/02/2020 13:55:12	120220	12022020	135512	90.48	12.418773	-57.180222	90.47	-0.640	0.610	2.210	90.41	-0.80	2.60	 	 	 	 	 	 	 	 	 	 	 	 	 	 	 	 	 	 	1581515712	8.25	15.28
12/02/2020 13:55:13	120220	12022020	135513	90.10	12.418772	-57.180180	90.10	-0.110	-0.270	2.180	90.03	-1.50	2.60	 	 	 	 	 	 	 	 	 	 	 	 	 	 	 	 	 	 	1581515713	8.95	16.58
12/02/2020 13:55:14	120220	12022020	135514	90.00	12.418775	-57.180133	90.10	0.370	-1.320	1.890	90.04	-2.60	2.40	 	 	 	 	 	 	 	 	 	 	 	 	 	 	 	 	 	 	1581515714	9.92	18.37
12/02/2020 13:55:15	120220	12022020	135515	90.30	12.418777	-57.180087	90.42	0.490	-1.550	1.680	90.37	-3.00	2.10	 	 	 	 	 	 	 	 	 	 	 	 	 	 	 	 	 	 	1581515715	9.77	18.09
12/02/2020 13:55:16	120220	12022020	135516	90.54	12.418777	-57.180045	90.58	0.340	-0.660	1.690	90.54	-2.20	2.10	 	 	 	 	 	 	 	 	 	 	 	 	 	 	 	 	 	 	1581515716	8.73	16.17
12/02/2020 13:55:17	120220	12022020	135517	90.46	12.418775	-57.180008	90.47	0.180	0.360	1.860	90.42	-1.20	2.30	 	 	 	 	 	 	 	 	 	 	 	 	 	 	 	 	 	 	1581515717	7.93	14.69
12/02/2020 13:55:18	120220	12022020	135518	90.35	12.418773	-57.179968	90.43	0.150	0.600	1.870	90.35	-0.80	2.30	 	 	 	 	 	 	 	 	 	 	 	 	 	 	 	 	 	 	1581515718	8.29	15.35
12/02/2020 13:55:19	120220	12022020	135519	90.44	12.418775	-57.179927	90.56	0.030	0.430	1.430	90.48	-1.00	2.00	 	 	 	 	 	 	 	 	 	 	 	 	 	 	 	 	 	 	1581515719	9.09	16.83
12/02/2020 13:55:20	120220	12022020	135520	90.70	12.418780	-57.179883	90.83	-0.360	0.500	0.680	90.76	-0.90	1.20	 	 	 	 	 	 	 	 	 	 	 	 	 	 	 	 	 	 	1581515720	8.96	16.59
12/02/2020 13:55:21	120220	12022020	135521	90.98	12.418783	-57.179845	91.09	-0.740	0.450	0.210	91.03	-0.90	0.70	 	 	 	 	 	 	 	 	 	 	 	 	 	 	 	 	 	 	1581515721	8.34	15.45
12/02/2020 13:55:22	120220	12022020	135522	91.14	12.418785	-57.179805	91.20	-0.600	-0.470	0.240	91.15	-1.70	0.70	 	 	 	 	 	 	 	 	 	 	 	 	 	 	 	 	 	 	1581515722	8.54	15.82
12/02/2020 13:55:23	120220	12022020	135523	91.06	12.418782	-57.179758	91.05	0.160	-1.980	0.570	91.02	-3.20	0.90	 	 	 	 	 	 	 	 	 	 	 	 	 	 	 	 	 	 	1581515723	9.78	18.11
12/02/2020 13:55:24	120220	12022020	135524	90.82	12.418780	-57.179708	90.85	0.960	-2.610	0.990	90.79	-4.10	1.40	 	 	 	 	 	 	 	 	 	 	 	 	 	 	 	 	 	 	1581515724	10.43	19.32
12/02/2020 13:55:25	120220	12022020	135525	90.74	12.418777	-57.179665	90.83	1.010	-1.170	1.270	90.75	-2.90	1.70	 	 	 	 	 	 	 	 	 	 	 	 	 	 	 	 	 	 	1581515725	9.19	17.02
12/02/2020 13:55:26	120220	12022020	135526	90.85	12.418777	-57.179632	90.97	0.250	1.220	1.220	90.88	-0.50	1.70	 	 	 	 	 	 	 	 	 	 	 	 	 	 	 	 	 	 	1581515726	7.05	13.06
12/02/2020 13:55:27	120220	12022020	135527	91.00	12.418778	-57.179600	91.11	-0.540	2.140	1.010	91.03	0.70	1.50	 	 	 	 	 	 	 	 	 	 	 	 	 	 	 	 	 	 	1581515727	6.67	12.35
12/02/2020 13:55:28	120220	12022020	135528	91.08	12.418778	-57.179560	91.14	-0.740	0.900	0.900	91.07	-0.30	1.30	 	 	 	 	 	 	 	 	 	 	 	 	 	 	 	 	 	 	1581515728	8.74	16.19
12/02/2020 13:55:29	120220	12022020	135529	90.98	12.418777	-57.179510	91.02	-0.760	-0.440	1.010	90.96	-1.70	1.40	 	 	 	 	 	 	 	 	 	 	 	 	 	 	 	 	 	 	1581515729	10.30	19.08
12/02/2020 13:55:30	120220	12022020	135530	90.87	12.418775	-57.179467	90.93	-0.710	-0.780	1.100	90.87	-2.20	1.50	 	 	 	 	 	 	 	 	 	 	 	 	 	 	 	 	 	 	1581515730	9.40	17.41
12/02/2020 13:55:31	120220	12022020	135531	90.87	12.418773	-57.179428	90.95	-0.220	-0.810	1.110	90.87	-2.20	1.50	 	 	 	 	 	 	 	 	 	 	 	 	 	 	 	 	 	 	1581515731	8.19	15.17
12/02/2020 13:55:32	120220	12022020	135532	90.79	12.418773	-57.179387	90.82	0.920	-1.540	1.240	90.75	-2.90	1.70	 	 	 	 	 	 	 	 	 	 	 	 	 	 	 	 	 	 	1581515732	8.73	16.17
12/02/2020 13:55:33	120220	12022020	135533	90.69	12.418773	-57.179340	90.77	1.530	-1.540	1.330	90.70	-2.40	1.90	 	 	 	 	 	 	 	 	 	 	 	 	 	 	 	 	 	 	1581515733	9.71	17.98
12/02/2020 13:55:34	120220	12022020	135534	90.81	12.418775	-57.179300	90.94	0.850	-0.120	1.630	90.85	-1.80	2.00	 	 	 	 	 	 	 	 	 	 	 	 	 	 	 	 	 	 	1581515734	8.44	15.63
12/02/2020 13:55:35	120220	12022020	135535	91.03	12.418772	-57.179268	91.12	-0.570	1.600	2.210	91.06	-0.00	2.50	 	 	 	 	 	 	 	 	 	 	 	 	 	 	 	 	 	 	1581515735	6.87	12.72
12/02/2020 13:55:36	120220	12022020	135536	91.08	12.418765	-57.179237	91.14	-1.460	1.870	2.680	91.08	0.50	3.10	 	 	 	 	 	 	 	 	 	 	 	 	 	 	 	 	 	 	1581515736	7.00	12.96
12/02/2020 13:55:37	120220	12022020	135537	91.06	12.418762	-57.179195	91.13	-1.150	0.540	2.520	91.06	-0.60	3.00	 	 	 	 	 	 	 	 	 	 	 	 	 	 	 	 	 	 	1581515737	8.63	15.98
12/02/2020 13:55:38	120220	12022020	135538	91.11	12.418762	-57.179148	91.18	-0.080	-1.040	1.990	91.12	-2.30	2.50	 	 	 	 	 	 	 	 	 	 	 	 	 	 	 	 	 	 	1581515738	9.82	18.19
12/02/2020 13:55:39	120220	12022020	135539	91.10	12.418763	-57.179103	91.12	0.870	-1.960	1.450	91.08	-3.30	2.00	 	 	 	 	 	 	 	 	 	 	 	 	 	 	 	 	 	 	1581515739	9.69	17.95
12/02/2020 13:55:40	120220	12022020	135540	90.90	12.418767	-57.179060	90.87	1.170	-2.040	1.110	90.85	-3.50	1.60	 	 	 	 	 	 	 	 	 	 	 	 	 	 	 	 	 	 	1581515740	9.20	17.04
12/02/2020 13:55:41	120220	12022020	135541	90.68	12.418768	-57.179018	90.70	0.780	-1.100	0.980	90.67	-2.70	1.40	 	 	 	 	 	 	 	 	 	 	 	 	 	 	 	 	 	 	1581515741	8.59	15.91
12/02/2020 13:55:42	120220	12022020	135542	90.74	12.418770	-57.178983	90.84	0.030	0.490	0.850	90.79	-1.20	1.30	 	 	 	 	 	 	 	 	 	 	 	 	 	 	 	 	 	 	1581515742	7.66	14.19
12/02/2020 13:55:43	120220	12022020	135543	91.04	12.418770	-57.178948	91.15	-0.560	1.530	0.710	91.10	0.00	1.20	 	 	 	 	 	 	 	 	 	 	 	 	 	 	 	 	 	 	1581515743	7.20	13.33
12/02/2020 13:55:44	120220	12022020	135544	91.17	12.418768	-57.178910	91.17	-0.630	1.060	0.840	91.15	-0.20	1.20	 	 	 	 	 	 	 	 	 	 	 	 	 	 	 	 	 	 	1581515744	8.10	15.00
12/02/2020 13:55:45	120220	12022020	135545	91.02	12.418767	-57.178865	90.99	-0.460	-0.090	1.210	90.98	-1.90	1.90	 	 	 	 	 	 	 	 	 	 	 	 	 	 	 	 	 	 	1581515745	9.55	17.69
12/02/2020 13:55:46	120220	12022020	135546	90.90	12.418763	-57.178820	90.94	-0.490	-0.650	1.600	90.90	-2.00	2.00	 	 	 	 	 	 	 	 	 	 	 	 	 	 	 	 	 	 	1581515746	9.51	17.61
12/02/2020 13:55:47	120220	12022020	135547	90.97	12.418758	-57.178780	91.03	-0.530	-0.570	1.670	90.99	-2.00	2.10	 	 	 	 	 	 	 	 	 	 	 	 	 	 	 	 	 	 	1581515747	8.55	15.83
12/02/2020 13:55:48	120220	12022020	135548	91.01	12.418757	-57.178742	91.02	-0.210	-0.620	1.640	90.99	-2.00	2.10	 	 	 	 	 	 	 	 	 	 	 	 	 	 	 	 	 	 	1581515748	8.14	15.08
12/02/2020 13:55:49	120220	12022020	135549	90.85	12.418753	-57.178702	90.84	0.490	-1.050	1.720	90.80	-2.40	2.10	 	 	 	 	 	 	 	 	 	 	 	 	 	 	 	 	 	 	1581515749	8.74	16.19
12/02/2020 13:55:50	120220	12022020	135550	90.62	12.418753	-57.178657	90.62	1.090	-1.180	1.550	90.58	-2.60	2.00	 	 	 	 	 	 	 	 	 	 	 	 	 	 	 	 	 	 	1581515750	9.23	17.09
12/02/2020 13:55:51	120220	12022020	135551	90.40	12.418757	-57.178615	90.40	1.060	-0.440	1.220	90.35	-2.00	1.70	 	 	 	 	 	 	 	 	 	 	 	 	 	 	 	 	 	 	1581515751	8.81	16.32
12/02/2020 13:55:52	120220	12022020	135552	90.15	12.418760	-57.178578	90.14	0.370	0.610	1.050	90.11	-1.00	1.50	 	 	 	 	 	 	 	 	 	 	 	 	 	 	 	 	 	 	1581515752	7.93	14.69
12/02/2020 13:55:53	120220	12022020	135553	90.00	12.418762	-57.178542	90.04	-0.440	0.900	0.980	90.00	-0.50	1.40	 	 	 	 	 	 	 	 	 	 	 	 	 	 	 	 	 	 	1581515753	7.78	14.41
12/02/2020 13:55:54	120220	12022020	135554	90.07	12.418762	-57.178500	90.14	-0.700	0.220	0.920	90.08	-1.10	1.30	 	 	 	 	 	 	 	 	 	 	 	 	 	 	 	 	 	 	1581515754	8.70	16.11
12/02/2020 13:55:55	120220	12022020	135555	90.06	12.418760	-57.178455	90.07	-0.410	-0.510	1.160	90.02	-1.90	1.50	 	 	 	 	 	 	 	 	 	 	 	 	 	 	 	 	 	 	1581515755	9.50	17.59
12/02/2020 13:55:56	120220	12022020	135556	89.79	12.418757	-57.178412	89.77	-0.060	-0.710	1.560	89.73	-2.10	1.90	 	 	 	 	 	 	 	 	 	 	 	 	 	 	 	 	 	 	1581515756	9.19	17.02
12/02/2020 13:55:57	120220	12022020	135557	89.47	12.418755	-57.178372	89.47	0.060	-0.770	1.920	89.42	-2.20	2.30	 	 	 	 	 	 	 	 	 	 	 	 	 	 	 	 	 	 	1581515757	8.71	16.13
12/02/2020 13:55:58	120220	12022020	135558	89.32	12.418753	-57.178328	89.39	0.010	-0.820	2.160	89.33	-2.30	2.60	 	 	 	 	 	 	 	 	 	 	 	 	 	 	 	 	 	 	1581515758	8.86	16.41
12/02/2020 13:55:59	120220	12022020	135559	89.47	12.418753	-57.178287	89.59	-0.100	-0.480	2.120	89.52	-2.00	2.60	 	 	 	 	 	 	 	 	 	 	 	 	 	 	 	 	 	 	1581515759	8.80	16.30
12/02/2020 13:56:00	120220	12022020	135600	89.63	12.418753	-57.178248	89.68	0.020	0.030	2.090	89.63	-1.40	2.50	 	 	 	 	 	 	 	 	 	 	 	 	 	 	 	 	 	 	1581515760	8.36	15.48
12/02/2020 13:56:01	120220	12022020	135601	89.52	12.418752	-57.178208	89.55	0.390	0.110	2.140	89.50	-1.30	2.60	 	 	 	 	 	 	 	 	 	 	 	 	 	 	 	 	 	 	1581515761	8.49	15.72
12/02/2020 13:56:02	120220	12022020	135602	89.45	12.418753	-57.178165	89.53	0.610	-0.160	1.880	89.46	-1.50	2.40	1017.30	26.60	26.70	20.60	20.60	566.0	69.0	69.0	407.0	28.3	350.00	14.80	76.00	10.50	47206	17536.0	27.5	27.5	1581515762	9.09	16.83
12/02/2020 13:56:03	120220	12022020	135603	89.59	12.418758	-57.178122	89.69	0.320	-0.210	1.260	89.64	-1.70	1.80	 	 	 	 	 	 	 	 	 	 	 	 	 	 	 	 	 	 	1581515763	9.26	17.15
12/02/2020 13:56:04	120220	12022020	135604	89.81	12.418765	-57.178080	89.86	-0.360	0.250	0.700	89.84	-1.30	1.20	 	 	 	 	 	 	 	 	 	 	 	 	 	 	 	 	 	 	1581515764	8.69	16.09
12/02/2020 13:56:05	120220	12022020	135605	89.92	12.418768	-57.178043	89.95	-0.920	0.510	0.600	89.93	-0.90	1.00	 	 	 	 	 	 	 	 	 	 	 	 	 	 	 	 	 	 	1581515765	7.98	14.78
12/02/2020 13:56:06	120220	12022020	135606	90.02	12.418768	-57.178003	90.11	-0.910	-0.120	0.770	90.07	-1.40	1.20	 	 	 	 	 	 	 	 	 	 	 	 	 	 	 	 	 	 	1581515766	8.48	15.70
12/02/2020 13:56:07	120220	12022020	135607	90.35	12.418767	-57.177958	90.46	-0.330	-1.170	0.690	90.42	-2.40	1.10	 	 	 	 	 	 	 	 	 	 	 	 	 	 	 	 	 	 	1581515767	9.51	17.61
12/02/2020 13:56:08	120220	12022020	135608	90.49	12.418765	-57.177912	90.49	0.460	-1.790	0.790	90.45	-3.10	1.20	 	 	 	 	 	 	 	 	 	 	 	 	 	 	 	 	 	 	1581515768	9.80	18.15
12/02/2020 13:56:09	120220	12022020	135609	90.07	12.418763	-57.177867	90.00	1.030	-1.530	1.150	89.96	-3.00	1.50	 	 	 	 	 	 	 	 	 	 	 	 	 	 	 	 	 	 	1581515769	9.43	17.46
12/02/2020 13:56:10	120220	12022020	135610	89.76	12.418763	-57.177827	89.85	0.990	-0.280	1.100	89.78	-1.90	1.60	 	 	 	 	 	 	 	 	 	 	 	 	 	 	 	 	 	 	1581515770	8.73	16.17
12/02/2020 13:56:11	120220	12022020	135611	90.07	12.418768	-57.177790	90.25	0.170	1.330	0.770	90.17	0.40	1.00	 	 	 	 	 	 	 	 	 	 	 	 	 	 	 	 	 	 	1581515771	7.70	14.26
12/02/2020 13:56:12	120220	12022020	135612	90.52	12.418772	-57.177755	90.60	-0.860	1.860	0.470	90.56	0.50	0.90	 	 	 	 	 	 	 	 	 	 	 	 	 	 	 	 	 	 	1581515772	7.40	13.70
12/02/2020 13:56:13	120220	12022020	135613	90.54	12.418773	-57.177713	90.54	-1.170	0.620	0.610	90.51	-0.50	1.00	 	 	 	 	 	 	 	 	 	 	 	 	 	 	 	 	 	 	1581515773	8.67	16.06
12/02/2020 13:56:14	120220	12022020	135614	90.42	12.418770	-57.177667	90.46	-0.660	-0.990	1.030	90.41	-2.20	1.40	 	 	 	 	 	 	 	 	 	 	 	 	 	 	 	 	 	 	1581515774	10.19	18.87
12/02/2020 13:56:15	120220	12022020	135615	90.46	12.418767	-57.177618	90.55	0.240	-1.860	1.370	90.48	-3.20	1.80	 	 	 	 	 	 	 	 	 	 	 	 	 	 	 	 	 	 	1581515775	10.09	18.69
12/02/2020 13:56:16	120220	12022020	135616	90.48	12.418765	-57.177573	90.52	0.920	-1.820	1.560	90.46	-3.30	2.00	 	 	 	 	 	 	 	 	 	 	 	 	 	 	 	 	 	 	1581515776	9.38	17.37
12/02/2020 13:56:17	120220	12022020	135617	90.32	12.418765	-57.177533	90.35	0.900	-0.790	1.660	90.29	-2.40	2.10	 	 	 	 	 	 	 	 	 	 	 	 	 	 	 	 	 	 	1581515777	8.66	16.04
12/02/2020 13:56:18	120220	12022020	135618	90.20	12.418767	-57.177495	90.29	0.160	0.630	1.770	90.19	-1.00	2.20	 	 	 	 	 	 	 	 	 	 	 	 	 	 	 	 	 	 	1581515778	7.85	14.54
12/02/2020 13:56:19	120220	12022020	135619	90.28	12.418767	-57.177460	90.41	-0.840	1.530	1.740	90.32	0.00	2.20	 	 	 	 	 	 	 	 	 	 	 	 	 	 	 	 	 	 	1581515779	7.61	14.09
12/02/2020 13:56:20	120220	12022020	135620	90.45	12.418765	-57.177422	90.53	-1.410	1.320	1.480	90.46	0.00	1.90	 	 	 	 	 	 	 	 	 	 	 	 	 	 	 	 	 	 	1581515780	8.03	14.87
12/02/2020 13:56:21	120220	12022020	135621	90.40	12.418765	-57.177378	90.40	-0.850	-0.290	1.170	90.36	-1.40	1.60	 	 	 	 	 	 	 	 	 	 	 	 	 	 	 	 	 	 	1581515781	9.10	16.85
12/02/2020 13:56:22	120220	12022020	135622	90.12	12.418765	-57.177328	90.10	0.680	-2.290	1.020	90.06	-3.50	1.50	 	 	 	 	 	 	 	 	 	 	 	 	 	 	 	 	 	 	1581515782	10.64	19.71
12/02/2020 13:56:23	120220	12022020	135623	89.88	12.418768	-57.177278	89.92	1.680	-2.410	0.980	89.87	-3.00	1.40	 	 	 	 	 	 	 	 	 	 	 	 	 	 	 	 	 	 	1581515783	10.73	19.87
12/02/2020 13:56:24	120220	12022020	135624	89.93	12.418770	-57.177238	90.02	1.130	-0.430	1.010	89.96	-2.20	1.40	 	 	 	 	 	 	 	 	 	 	 	 	 	 	 	 	 	 	1581515784	8.33	15.43
12/02/2020 13:56:25	120220	12022020	135625	90.10	12.418772	-57.177208	90.21	-0.370	1.570	1.340	90.14	-0.10	1.70	 	 	 	 	 	 	 	 	 	 	 	 	 	 	 	 	 	 	1581515785	6.49	12.02
12/02/2020 13:56:26	120220	12022020	135626	90.26	12.418768	-57.177175	90.39	-1.320	1.780	1.710	90.29	0.50	2.10	 	 	 	 	 	 	 	 	 	 	 	 	 	 	 	 	 	 	1581515786	7.02	13.00
12/02/2020 13:56:27	120220	12022020	135627	90.40	12.418765	-57.177132	90.51	-0.880	0.220	1.900	90.42	-0.90	2.30	 	 	 	 	 	 	 	 	 	 	 	 	 	 	 	 	 	 	1581515787	9.07	16.80
12/02/2020 13:56:28	120220	12022020	135628	90.40	12.418763	-57.177082	90.43	0.280	-1.360	2.240	90.36	-2.60	2.60	 	 	 	 	 	 	 	 	 	 	 	 	 	 	 	 	 	 	1581515788	10.53	19.50
12/02/2020 13:56:29	120220	12022020	135629	90.22	12.418762	-57.177035	90.28	0.860	-1.500	2.550	90.19	-3.00	2.90	 	 	 	 	 	 	 	 	 	 	 	 	 	 	 	 	 	 	1581515789	9.94	18.41
12/02/2020 13:56:30	120220	12022020	135630	90.12	12.418762	-57.176997	90.18	0.490	-0.530	2.560	90.11	-2.10	3.00	 	 	 	 	 	 	 	 	 	 	 	 	 	 	 	 	 	 	1581515790	8.26	15.30
12/02/2020 13:56:31	120220	12022020	135631	90.09	12.418763	-57.176960	90.16	-0.140	0.260	2.280	90.08	-1.20	2.80	 	 	 	 	 	 	 	 	 	 	 	 	 	 	 	 	 	 	1581515791	7.51	13.91
12/02/2020 13:56:32	120220	12022020	135632	90.10	12.418765	-57.176922	90.17	-0.330	0.220	1.760	90.12	-1.20	2.30	 	 	 	 	 	 	 	 	 	 	 	 	 	 	 	 	 	 	1581515792	8.19	15.17
12/02/2020 13:56:33	120220	12022020	135633	90.19	12.418768	-57.176878	90.24	-0.200	-0.150	1.020	90.21	-1.50	1.60	 	 	 	 	 	 	 	 	 	 	 	 	 	 	 	 	 	 	1581515793	9.07	16.80
12/02/2020 13:56:34	120220	12022020	135634	90.29	12.418773	-57.176837	90.34	-0.100	-0.220	0.420	90.31	-1.60	0.90	 	 	 	 	 	 	 	 	 	 	 	 	 	 	 	 	 	 	1581515794	9.10	16.85
12/02/2020 13:56:35	120220	12022020	135635	90.39	12.418775	-57.176795	90.40	-0.100	-0.180	0.120	90.38	-1.70	0.60	 	 	 	 	 	 	 	 	 	 	 	 	 	 	 	 	 	 	1581515795	8.61	15.95
12/02/2020 13:56:36	120220	12022020	135636	90.25	12.418775	-57.176755	90.20	0.020	-0.500	0.190	90.19	-1.90	0.60	 	 	 	 	 	 	 	 	 	 	 	 	 	 	 	 	 	 	1581515796	8.70	16.11
12/02/2020 13:56:37	120220	12022020	135637	89.93	12.418775	-57.176710	89.92	0.310	-0.860	0.520	89.89	-2.30	1.10	 	 	 	 	 	 	 	 	 	 	 	 	 	 	 	 	 	 	1581515797	9.24	17.11
12/02/2020 13:56:38	120220	12022020	135638	89.76	12.418775	-57.176667	89.81	0.510	-0.720	0.840	89.76	-2.20	1.20	 	 	 	 	 	 	 	 	 	 	 	 	 	 	 	 	 	 	1581515798	9.16	16.96
12/02/2020 13:56:39	120220	12022020	135639	89.86	12.418775	-57.176627	89.94	0.280	-0.050	1.030	89.90	-1.60	1.40	 	 	 	 	 	 	 	 	 	 	 	 	 	 	 	 	 	 	1581515799	8.62	15.96
12/02/2020 13:56:40	120220	12022020	135640	90.07	12.418773	-57.176588	90.17	-0.270	0.610	1.270	90.12	-0.90	1.70	 	 	 	 	 	 	 	 	 	 	 	 	 	 	 	 	 	 	1581515800	8.01	14.83
12/02/2020 13:56:41	120220	12022020	135641	90.19	12.418773	-57.176550	90.27	-0.510	0.450	1.710	90.19	-0.90	2.10	 	 	 	 	 	 	 	 	 	 	 	 	 	 	 	 	 	 	1581515801	8.20	15.19
12/02/2020 13:56:42	120220	12022020	135642	90.14	12.418770	-57.176507	90.24	-0.120	-0.470	2.130	90.14	-1.70	2.50	 	 	 	 	 	 	 	 	 	 	 	 	 	 	 	 	 	 	1581515802	9.25	17.13
12/02/2020 13:56:43	120220	12022020	135643	90.16	12.418770	-57.176460	90.30	0.410	-1.190	2.340	90.18	-2.50	2.70	 	 	 	 	 	 	 	 	 	 	 	 	 	 	 	 	 	 	1581515803	9.90	18.33
12/02/2020 13:56:44	120220	12022020	135644	90.32	12.418770	-57.176415	90.48	0.460	-1.010	2.380	90.37	-2.50	2.80	 	 	 	 	 	 	 	 	 	 	 	 	 	 	 	 	 	 	1581515804	9.42	17.45
12/02/2020 13:56:45	120220	12022020	135645	90.54	12.418770	-57.176375	90.68	-0.030	-0.030	2.070	90.58	-1.60	2.60	 	 	 	 	 	 	 	 	 	 	 	 	 	 	 	 	 	 	1581515805	8.37	15.50
12/02/2020 13:56:46	120220	12022020	135646	90.68	12.418770	-57.176340	90.74	-0.530	0.890	1.520	90.68	-0.60	2.00	 	 	 	 	 	 	 	 	 	 	 	 	 	 	 	 	 	 	1581515806	7.60	14.08
12/02/2020 13:56:47	120220	12022020	135647	90.63	12.418773	-57.176302	90.62	-0.480	0.630	1.130	90.59	-0.70	1.60	 	 	 	 	 	 	 	 	 	 	 	 	 	 	 	 	 	 	1581515807	8.00	14.82
12/02/2020 13:56:48	120220	12022020	135648	90.46	12.418775	-57.176257	90.48	0.210	-0.850	0.760	90.45	-2.00	1.30	 	 	 	 	 	 	 	 	 	 	 	 	 	 	 	 	 	 	1581515808	9.54	17.67
12/02/2020 13:56:49	120220	12022020	135649	90.47	12.418778	-57.176207	90.52	0.800	-1.760	0.180	90.49	-3.10	0.70	 	 	 	 	 	 	 	 	 	 	 	 	 	 	 	 	 	 	1581515809	10.64	19.71
12/02/2020 13:56:50	120220	12022020	135650	90.56	12.418782	-57.176162	90.58	0.540	-0.880	-0.040	90.57	-2.50	0.40	 	 	 	 	 	 	 	 	 	 	 	 	 	 	 	 	 	 	1581515810	9.33	17.28
12/02/2020 13:56:51	120220	12022020	135651	90.55	12.418783	-57.176127	90.56	-0.330	0.730	0.300	90.54	-0.90	0.70	 	 	 	 	 	 	 	 	 	 	 	 	 	 	 	 	 	 	1581515811	7.41	13.72
12/02/2020 13:56:52	120220	12022020	135652	90.50	12.418780	-57.176093	90.55	-0.890	1.270	0.770	90.50	-0.10	1.10	 	 	 	 	 	 	 	 	 	 	 	 	 	 	 	 	 	 	1581515812	7.18	13.30
12/02/2020 13:56:53	120220	12022020	135653	90.48	12.418778	-57.176052	90.53	-0.610	0.240	1.120	90.48	-0.90	1.50	 	 	 	 	 	 	 	 	 	 	 	 	 	 	 	 	 	 	1581515813	8.71	16.13
12/02/2020 13:56:54	120220	12022020	135654	90.47	12.418775	-57.176005	90.53	0.220	-1.230	1.440	90.45	-2.40	1.80	 	 	 	 	 	 	 	 	 	 	 	 	 	 	 	 	 	 	1581515814	10.16	18.82
12/02/2020 13:56:55	120220	12022020	135655	90.38	12.418773	-57.175955	90.46	0.830	-1.700	1.770	90.38	-3.10	2.10	 	 	 	 	 	 	 	 	 	 	 	 	 	 	 	 	 	 	1581515815	10.23	18.95
12/02/2020 13:56:56	120220	12022020	135656	90.41	12.418772	-57.175913	90.50	0.710	-0.790	2.030	90.42	-2.40	2.40	 	 	 	 	 	 	 	 	 	 	 	 	 	 	 	 	 	 	1581515816	8.92	16.52
12/02/2020 13:56:57	120220	12022020	135657	90.41	12.418772	-57.175877	90.50	0.060	0.480	2.340	90.40	-1.10	2.70	 	 	 	 	 	 	 	 	 	 	 	 	 	 	 	 	 	 	1581515817	7.67	14.20
12/02/2020 13:56:58	120220	12022020	135658	90.41	12.418770	-57.175842	90.53	-0.560	1.090	2.330	90.42	-0.40	2.80	 	 	 	 	 	 	 	 	 	 	 	 	 	 	 	 	 	 	1581515818	7.64	14.15
12/02/2020 13:56:59	120220	12022020	135659	90.51	12.418770	-57.175802	90.62	-0.680	0.640	1.930	90.53	-0.70	2.40	 	 	 	 	 	 	 	 	 	 	 	 	 	 	 	 	 	 	1581515819	8.41	15.58
12/02/2020 13:57:00	120220	12022020	135700	90.52	12.418773	-57.175757	90.55	-0.320	-0.450	1.520	90.49	-1.70	2.00	 	 	 	 	 	 	 	 	 	 	 	 	 	 	 	 	 	 	1581515820	9.47	17.54
12/02/2020 13:57:01	120220	12022020	135701	90.31	12.418777	-57.175710	90.32	0.080	-1.240	1.230	90.26	-2.60	1.70	 	 	 	 	 	 	 	 	 	 	 	 	 	 	 	 	 	 	1581515821	9.84	18.22
12/02/2020 13:57:02	120220	12022020	135702	90.15	12.418780	-57.175667	90.23	0.250	-1.260	0.890	90.17	-2.70	1.40	1017.30	26.60	26.70	20.70	20.70	901.0	70.0	69.0	406.0	28.5	347.00	15.10	71.00	10.80	62386	7131.0	27.5	27.5	1581515822	9.33	17.28
12/02/2020 13:57:03	120220	12022020	135703	90.41	12.418782	-57.175625	90.55	0.250	-0.830	0.600	90.48	-2.30	1.10	 	 	 	 	 	 	 	 	 	 	 	 	 	 	 	 	 	 	1581515823	8.69	16.09
12/02/2020 13:57:04	120220	12022020	135704	90.70	12.418782	-57.175585	90.79	0.240	-0.360	0.810	90.72	-1.80	1.20	 	 	 	 	 	 	 	 	 	 	 	 	 	 	 	 	 	 	1581515824	8.54	15.82
12/02/2020 13:57:05	120220	12022020	135705	90.66	12.418778	-57.175543	90.68	0.200	0.050	1.140	90.62	-1.40	1.50	 	 	 	 	 	 	 	 	 	 	 	 	 	 	 	 	 	 	1581515825	8.78	16.26
12/02/2020 13:57:06	120220	12022020	135706	90.39	12.418777	-57.175502	90.37	0.080	0.380	1.440	90.32	-1.10	1.80	 	 	 	 	 	 	 	 	 	 	 	 	 	 	 	 	 	 	1581515826	8.79	16.28
12/02/2020 13:57:07	120220	12022020	135707	90.17	12.418777	-57.175460	90.25	-0.080	0.430	1.580	90.17	-1.00	2.00	 	 	 	 	 	 	 	 	 	 	 	 	 	 	 	 	 	 	1581515827	8.82	16.33
12/02/2020 13:57:08	120220	12022020	135708	90.42	12.418778	-57.175418	90.62	-0.250	0.290	1.100	90.53	-1.10	1.60	 	 	 	 	 	 	 	 	 	 	 	 	 	 	 	 	 	 	1581515828	8.94	16.56
12/02/2020 13:57:09	120220	12022020	135709	90.99	12.418783	-57.175377	91.17	-0.270	-0.090	0.550	91.09	-1.40	1.00	 	 	 	 	 	 	 	 	 	 	 	 	 	 	 	 	 	 	1581515829	8.97	16.61
12/02/2020 13:57:10	120220	12022020	135710	91.30	12.418785	-57.175332	91.37	-0.040	-0.760	0.550	91.31	-2.10	1.00	 	 	 	 	 	 	 	 	 	 	 	 	 	 	 	 	 	 	1581515830	9.24	17.11
12/02/2020 13:57:11	120220	12022020	135711	91.21	12.418783	-57.175287	91.24	0.190	-1.180	1.060	91.18	-2.60	1.40	 	 	 	 	 	 	 	 	 	 	 	 	 	 	 	 	 	 	1581515831	9.58	17.74
12/02/2020 13:57:12	120220	12022020	135712	91.03	12.418780	-57.175243	91.09	-0.040	-0.770	1.900	91.01	-2.30	2.20	 	 	 	 	 	 	 	 	 	 	 	 	 	 	 	 	 	 	1581515832	9.12	16.89
12/02/2020 13:57:13	120220	12022020	135713	90.98	12.418775	-57.175205	91.10	-0.500	-0.040	2.260	90.99	-1.30	2.60	 	 	 	 	 	 	 	 	 	 	 	 	 	 	 	 	 	 	1581515833	8.25	15.28
12/02/2020 13:57:14	120220	12022020	135714	91.04	12.418773	-57.175167	91.14	-0.410	-0.050	2.030	91.04	-1.40	2.50	 	 	 	 	 	 	 	 	 	 	 	 	 	 	 	 	 	 	1581515834	8.27	15.32
12/02/2020 13:57:15	120220	12022020	135715	91.02	12.418773	-57.175122	91.08	0.440	-0.850	1.770	91.01	-2.10	2.30	 	 	 	 	 	 	 	 	 	 	 	 	 	 	 	 	 	 	1581515835	9.55	17.69
12/02/2020 13:57:16	120220	12022020	135716	91.10	12.418775	-57.175073	91.25	1.040	-0.900	1.420	91.17	-2.40	1.90	 	 	 	 	 	 	 	 	 	 	 	 	 	 	 	 	 	 	1581515836	10.22	18.93
12/02/2020 13:57:17	120220	12022020	135717	91.48	12.418778	-57.175030	91.64	0.600	0.260	0.910	91.56	-1.40	1.40	 	 	 	 	 	 	 	 	 	 	 	 	 	 	 	 	 	 	1581515837	8.88	16.45
12/02/2020 13:57:18	120220	12022020	135718	91.75	12.418782	-57.174995	91.81	-0.480	1.430	0.580	91.76	-0.10	1.00	 	 	 	 	 	 	 	 	 	 	 	 	 	 	 	 	 	 	1581515838	7.43	13.76
12/02/2020 13:57:19	120220	12022020	135719	91.58	12.418782	-57.174960	91.54	-1.050	1.090	0.690	91.51	-0.20	1.10	 	 	 	 	 	 	 	 	 	 	 	 	 	 	 	 	 	 	1581515839	7.71	14.28
12/02/2020 13:57:20	120220	12022020	135720	91.27	12.418780	-57.174913	91.30	-0.580	-0.640	0.780	91.25	-1.80	1.20	 	 	 	 	 	 	 	 	 	 	 	 	 	 	 	 	 	 	1581515840	9.54	17.67
12/02/2020 13:57:21	120220	12022020	135721	91.37	12.418778	-57.174863	91.49	0.190	-1.800	0.690	91.43	-3.10	1.10	 	 	 	 	 	 	 	 	 	 	 	 	 	 	 	 	 	 	1581515841	10.63	19.69
12/02/2020 13:57:22	120220	12022020	135722	91.65	12.418778	-57.174820	91.76	0.300	-1.140	0.600	91.71	-2.70	1.00	 	 	 	 	 	 	 	 	 	 	 	 	 	 	 	 	 	 	1581515842	9.28	17.19
12/02/2020 13:57:23	120220	12022020	135723	91.80	12.418777	-57.174785	91.82	-0.230	0.250	0.590	91.78	-1.30	1.00	 	 	 	 	 	 	 	 	 	 	 	 	 	 	 	 	 	 	1581515843	7.34	13.59
12/02/2020 13:57:24	120220	12022020	135724	91.55	12.418775	-57.174750	91.51	-0.420	0.310	1.000	91.47	-1.00	1.40	 	 	 	 	 	 	 	 	 	 	 	 	 	 	 	 	 	 	1581515844	7.33	13.58
12/02/2020 13:57:25	120220	12022020	135725	91.15	12.418772	-57.174707	91.15	0.190	-1.000	1.510	91.08	-2.20	1.90	 	 	 	 	 	 	 	 	 	 	 	 	 	 	 	 	 	 	1581515845	9.45	17.50
12/02/2020 13:57:26	120220	12022020	135726	90.90	12.418768	-57.174657	90.95	0.810	-1.500	1.740	90.87	-3.00	2.20	 	 	 	 	 	 	 	 	 	 	 	 	 	 	 	 	 	 	1581515846	10.58	19.59
12/02/2020 13:57:27	120220	12022020	135727	90.91	12.418768	-57.174613	91.02	0.570	-0.130	1.660	90.94	-0.50	2.00	 	 	 	 	 	 	 	 	 	 	 	 	 	 	 	 	 	 	1581515847	9.00	16.67
12/02/2020 13:57:28	120220	12022020	135728	91.17	12.418768	-57.174582	91.30	-0.390	1.750	1.390	91.23	0.10	1.90	 	 	 	 	 	 	 	 	 	 	 	 	 	 	 	 	 	 	1581515848	6.85	12.69
12/02/2020 13:57:29	120220	12022020	135729	91.47	12.418768	-57.174550	91.56	-1.130	1.960	1.080	91.50	0.70	1.60	 	 	 	 	 	 	 	 	 	 	 	 	 	 	 	 	 	 	1581515849	6.73	12.46
12/02/2020 13:57:30	120220	12022020	135730	91.49	12.418768	-57.174508	91.49	-0.850	0.040	1.040	91.45	-1.00	1.50	 	 	 	 	 	 	 	 	 	 	 	 	 	 	 	 	 	 	1581515850	8.80	16.30
12/02/2020 13:57:31	120220	12022020	135731	91.18	12.418767	-57.174457	91.15	0.100	-2.090	1.360	91.10	-3.30	1.70	 	 	 	 	 	 	 	 	 	 	 	 	 	 	 	 	 	 	1581515851	10.67	19.76
12/02/2020 13:57:32	120220	12022020	135732	90.85	12.418763	-57.174408	90.87	0.840	-2.480	1.700	90.81	-4.00	2.10	 	 	 	 	 	 	 	 	 	 	 	 	 	 	 	 	 	 	1581515852	10.29	19.06
12/02/2020 13:57:33	120220	12022020	135733	90.75	12.418762	-57.174370	90.84	0.840	-1.090	1.850	90.76	-2.80	2.30	 	 	 	 	 	 	 	 	 	 	 	 	 	 	 	 	 	 	1581515853	8.29	15.35
12/02/2020 13:57:34	120220	12022020	135734	90.86	12.418762	-57.174337	90.96	0.350	0.510	1.680	90.90	-1.10	2.20	 	 	 	 	 	 	 	 	 	 	 	 	 	 	 	 	 	 	1581515854	6.94	12.85
12/02/2020 13:57:35	120220	12022020	135735	91.00	12.418763	-57.174302	91.07	-0.090	1.010	1.340	91.00	-0.40	1.80	 	 	 	 	 	 	 	 	 	 	 	 	 	 	 	 	 	 	1581515855	7.39	13.69
12/02/2020 13:57:36	120220	12022020	135736	90.90	12.418765	-57.174262	90.92	-0.300	0.570	1.270	90.86	-0.80	1.70	 	 	 	 	 	 	 	 	 	 	 	 	 	 	 	 	 	 	1581515856	8.66	16.04
12/02/2020 13:57:37	120220	12022020	135737	90.65	12.418763	-57.174217	90.67	-0.420	-0.090	1.500	90.60	-1.40	1.90	 	 	 	 	 	 	 	 	 	 	 	 	 	 	 	 	 	 	1581515857	9.24	17.11
12/02/2020 13:57:38	120220	12022020	135738	90.46	12.418762	-57.174173	90.53	-0.500	-0.500	1.640	90.45	-1.90	2.10	 	 	 	 	 	 	 	 	 	 	 	 	 	 	 	 	 	 	1581515858	9.15	16.95
12/02/2020 13:57:39	120220	12022020	135739	90.45	12.418758	-57.174133	90.55	-0.380	-0.540	1.610	90.46	-2.00	2.10	 	 	 	 	 	 	 	 	 	 	 	 	 	 	 	 	 	 	1581515859	8.71	16.13
12/02/2020 13:57:40	120220	12022020	135740	90.53	12.418757	-57.174093	90.61	0.080	-0.660	1.510	90.55	-2.00	2.00	 	 	 	 	 	 	 	 	 	 	 	 	 	 	 	 	 	 	1581515860	8.45	15.65
12/02/2020 13:57:41	120220	12022020	135741	90.57	12.418757	-57.174050	90.63	0.770	-1.070	1.450	90.56	-2.40	1.90	 	 	 	 	 	 	 	 	 	 	 	 	 	 	 	 	 	 	1581515861	9.01	16.69
12/02/2020 13:57:42	120220	12022020	135742	90.52	12.418757	-57.174007	90.56	0.970	-0.780	1.460	90.51	-2.30	1.90	 	 	 	 	 	 	 	 	 	 	 	 	 	 	 	 	 	 	1581515862	9.25	17.13
12/02/2020 13:57:43	120220	12022020	135743	90.42	12.418757	-57.173968	90.45	0.350	0.440	1.510	90.40	-1.20	1.90	 	 	 	 	 	 	 	 	 	 	 	 	 	 	 	 	 	 	1581515863	8.14	15.08
12/02/2020 13:57:44	120220	12022020	135744	90.30	12.418758	-57.173935	90.34	-0.580	1.400	1.380	90.28	-0.10	1.90	 	 	 	 	 	 	 	 	 	 	 	 	 	 	 	 	 	 	1581515864	7.14	13.22
12/02/2020 13:57:45	120220	12022020	135745	90.20	12.418762	-57.173898	90.22	-0.860	0.710	1.160	90.17	-0.50	1.60	 	 	 	 	 	 	 	 	 	 	 	 	 	 	 	 	 	 	1581515865	7.76	14.37
12/02/2020 13:57:46	120220	12022020	135746	90.09	12.418763	-57.173852	90.14	-0.310	-1.190	1.170	90.08	-2.30	1.60	 	 	 	 	 	 	 	 	 	 	 	 	 	 	 	 	 	 	1581515866	9.75	18.06
12/02/2020 13:57:47	120220	12022020	135747	90.12	12.418762	-57.173802	90.20	0.260	-2.120	1.600	90.13	-3.50	2.00	 	 	 	 	 	 	 	 	 	 	 	 	 	 	 	 	 	 	1581515867	10.52	19.48
12/02/2020 13:57:48	120220	12022020	135748	90.19	12.418755	-57.173760	90.26	0.190	-0.900	2.000	90.20	-2.60	2.40	 	 	 	 	 	 	 	 	 	 	 	 	 	 	 	 	 	 	1581515868	8.91	16.50
12/02/2020 13:57:49	120220	12022020	135749	90.08	12.418750	-57.173728	90.05	-0.260	0.800	2.230	90.01	-0.80	2.60	 	 	 	 	 	 	 	 	 	 	 	 	 	 	 	 	 	 	1581515869	6.78	12.56
12/02/2020 13:57:50	120220	12022020	135750	89.61	12.418748	-57.173695	89.56	-0.170	0.700	2.320	89.50	-0.60	2.80	 	 	 	 	 	 	 	 	 	 	 	 	 	 	 	 	 	 	1581515870	7.16	13.26
12/02/2020 13:57:51	120220	12022020	135751	89.19	12.418752	-57.173650	89.24	0.580	-0.740	1.830	89.16	-2.50	1.90	 	 	 	 	 	 	 	 	 	 	 	 	 	 	 	 	 	 	1581515871	9.58	17.74
12/02/2020 13:57:52	120220	12022020	135752	89.37	12.418760	-57.173602	89.58	0.870	-0.920	1.020	89.48	-2.40	1.60	 	 	 	 	 	 	 	 	 	 	 	 	 	 	 	 	 	 	1581515872	10.32	19.11
12/02/2020 13:57:53	120220	12022020	135753	90.03	12.418767	-57.173563	90.25	0.170	0.240	0.630	90.16	-1.40	1.10	 	 	 	 	 	 	 	 	 	 	 	 	 	 	 	 	 	 	1581515873	8.21	15.20
12/02/2020 13:57:54	120220	12022020	135754	90.58	12.418767	-57.173532	90.69	-0.890	1.060	1.040	90.63	-0.40	1.40	 	 	 	 	 	 	 	 	 	 	 	 	 	 	 	 	 	 	1581515874	6.79	12.58
12/02/2020 13:57:55	120220	12022020	135755	90.64	12.418758	-57.173495	90.70	-1.090	0.350	2.050	90.62	-0.90	2.30	 	 	 	 	 	 	 	 	 	 	 	 	 	 	 	 	 	 	1581515875	7.82	14.48
12/02/2020 13:57:56	120220	12022020	135756	90.47	12.418748	-57.173452	90.53	-0.130	-1.120	2.850	90.43	-2.30	3.20	 	 	 	 	 	 	 	 	 	 	 	 	 	 	 	 	 	 	1581515876	9.60	17.78
12/02/2020 13:57:57	120220	12022020	135757	90.29	12.418743	-57.173405	90.34	0.930	-1.650	3.110	90.25	-3.10	3.60	 	 	 	 	 	 	 	 	 	 	 	 	 	 	 	 	 	 	1581515877	9.89	18.32
12/02/2020 13:57:58	120220	12022020	135758	90.21	12.418745	-57.173365	90.31	0.930	-0.660	2.650	90.22	-2.30	3.20	 	 	 	 	 	 	 	 	 	 	 	 	 	 	 	 	 	 	1581515878	8.49	15.72
12/02/2020 13:57:59	120220	12022020	135759	90.25	12.418750	-57.173332	90.29	-0.020	0.640	1.840	90.25	-0.90	2.40	 	 	 	 	 	 	 	 	 	 	 	 	 	 	 	 	 	 	1581515879	7.07	13.09
12/02/2020 13:58:00	120220	12022020	135800	90.23	12.418755	-57.173298	90.26	-0.760	0.670	1.090	90.22	-0.60	1.60	 	 	 	 	 	 	 	 	 	 	 	 	 	 	 	 	 	 	1581515880	7.22	13.37
12/02/2020 13:58:01	120220	12022020	135801	90.21	12.418758	-57.173257	90.26	-0.510	-0.550	0.470	90.22	-1.80	1.00	 	 	 	 	 	 	 	 	 	 	 	 	 	 	 	 	 	 	1581515881	8.92	16.52
12/02/2020 13:58:02	120220	12022020	135802	90.24	12.418760	-57.173208	90.28	0.270	-1.270	0.050	90.24	-2.70	0.50	1017.20	26.50	26.60	20.10	20.10	841.0	67.0	67.0	402.0	28.5	347.00	15.70	72.00	11.40	60100	11361.0	27.5	27.5	1581515882	9.89	18.32
12/02/2020 13:58:03	120220	12022020	135803	90.19	12.418760	-57.173167	90.19	0.580	-0.580	-0.090	90.17	-1.40	0.40	 	 	 	 	 	 	 	 	 	 	 	 	 	 	 	 	 	 	1581515883	8.86	16.41
12/02/2020 13:58:04	120220	12022020	135804	90.02	12.418760	-57.173132	89.99	0.080	0.580	0.170	89.97	-1.00	0.50	 	 	 	 	 	 	 	 	 	 	 	 	 	 	 	 	 	 	1581515884	7.35	13.61
12/02/2020 13:58:05	120220	12022020	135805	89.78	12.418758	-57.173098	89.77	-0.570	0.780	0.690	89.74	-0.60	1.10	 	 	 	 	 	 	 	 	 	 	 	 	 	 	 	 	 	 	1581515885	7.22	13.37
12/02/2020 13:58:06	120220	12022020	135806	89.64	12.418757	-57.173058	89.69	-0.570	-0.230	1.100	89.64	-1.50	1.50	 	 	 	 	 	 	 	 	 	 	 	 	 	 	 	 	 	 	1581515886	8.53	15.80
12/02/2020 13:58:07	120220	12022020	135807	89.61	12.418755	-57.173013	89.66	0.050	-1.110	1.550	89.59	-2.40	1.90	 	 	 	 	 	 	 	 	 	 	 	 	 	 	 	 	 	 	1581515887	9.61	17.80
12/02/2020 13:58:08	120220	12022020	135808	89.47	12.418752	-57.172970	89.51	0.570	-0.860	2.000	89.44	-2.40	2.40	 	 	 	 	 	 	 	 	 	 	 	 	 	 	 	 	 	 	1581515888	9.04	16.74
12/02/2020 13:58:09	120220	12022020	135809	89.33	12.418752	-57.172933	89.36	0.560	-0.070	2.150	89.30	-1.60	2.60	 	 	 	 	 	 	 	 	 	 	 	 	 	 	 	 	 	 	1581515889	7.78	14.41
12/02/2020 13:58:10	120220	12022020	135810	89.22	12.418753	-57.172897	89.28	0.270	0.150	2.200	89.19	-1.20	2.60	 	 	 	 	 	 	 	 	 	 	 	 	 	 	 	 	 	 	1581515890	7.64	14.15
12/02/2020 13:58:11	120220	12022020	135811	89.08	12.418755	-57.172857	89.14	0.020	-0.230	2.390	89.04	-1.60	2.80	 	 	 	 	 	 	 	 	 	 	 	 	 	 	 	 	 	 	1581515891	8.49	15.72
12/02/2020 13:58:12	120220	12022020	135812	88.95	12.418755	-57.172815	89.00	-0.210	-0.420	2.380	88.92	-1.80	2.80	 	 	 	 	 	 	 	 	 	 	 	 	 	 	 	 	 	 	1581515892	8.99	16.65
12/02/2020 13:58:13	120220	12022020	135813	88.83	12.418755	-57.172775	88.89	-0.440	-0.170	2.330	88.81	-1.60	2.80	 	 	 	 	 	 	 	 	 	 	 	 	 	 	 	 	 	 	1581515893	8.46	15.67
12/02/2020 13:58:14	120220	12022020	135814	88.80	12.418755	-57.172737	88.87	-0.430	-0.040	2.240	88.80	-1.40	2.70	 	 	 	 	 	 	 	 	 	 	 	 	 	 	 	 	 	 	1581515894	8.01	14.83
12/02/2020 13:58:15	120220	12022020	135815	88.80	12.418755	-57.172697	88.84	-0.040	-0.400	1.860	88.79	-1.70	2.40	 	 	 	 	 	 	 	 	 	 	 	 	 	 	 	 	 	 	1581515895	8.46	15.67
12/02/2020 13:58:16	120220	12022020	135816	88.79	12.418760	-57.172655	88.86	0.340	-0.660	1.200	88.81	-2.10	1.70	 	 	 	 	 	 	 	 	 	 	 	 	 	 	 	 	 	 	1581515896	9.01	16.69
12/02/2020 13:58:17	120220	12022020	135817	88.97	12.418765	-57.172613	89.03	0.340	-0.330	0.750	89.01	-1.50	1.10	 	 	 	 	 	 	 	 	 	 	 	 	 	 	 	 	 	 	1581515897	8.73	16.17
12/02/2020 13:58:18	120220	12022020	135818	89.12	12.418768	-57.172575	89.13	0.070	0.070	0.680	89.12	-1.40	1.10	 	 	 	 	 	 	 	 	 	 	 	 	 	 	 	 	 	 	1581515898	7.97	14.76
12/02/2020 13:58:19	120220	12022020	135819	89.05	12.418770	-57.172537	89.04	0.060	-0.270	0.640	89.03	-1.60	1.10	 	 	 	 	 	 	 	 	 	 	 	 	 	 	 	 	 	 	1581515899	8.23	15.24
12/02/2020 13:58:20	120220	12022020	135820	89.08	12.418773	-57.172493	89.15	0.410	-0.890	0.600	89.13	-2.20	1.00	 	 	 	 	 	 	 	 	 	 	 	 	 	 	 	 	 	 	1581515900	9.30	17.22
12/02/2020 13:58:21	120220	12022020	135821	89.40	12.418775	-57.172450	89.52	0.480	-0.550	0.800	89.48	-2.10	1.20	 	 	 	 	 	 	 	 	 	 	 	 	 	 	 	 	 	 	1581515901	9.20	17.04
12/02/2020 13:58:22	120220	12022020	135822	89.78	12.418775	-57.172412	89.87	-0.060	0.470	0.910	89.84	-1.10	1.30	 	 	 	 	 	 	 	 	 	 	 	 	 	 	 	 	 	 	1581515902	7.92	14.67
12/02/2020 13:58:23	120220	12022020	135823	89.94	12.418775	-57.172378	89.97	-0.790	1.050	1.120	89.93	-0.40	1.50	 	 	 	 	 	 	 	 	 	 	 	 	 	 	 	 	 	 	1581515903	7.30	13.52
12/02/2020 13:58:24	120220	12022020	135824	89.89	12.418773	-57.172340	89.93	-1.000	0.420	1.500	89.87	-0.80	1.90	 	 	 	 	 	 	 	 	 	 	 	 	 	 	 	 	 	 	1581515904	7.99	14.80
12/02/2020 13:58:25	120220	12022020	135825	89.86	12.418773	-57.172295	89.93	-0.480	-0.930	1.640	89.87	-2.20	2.10	 	 	 	 	 	 	 	 	 	 	 	 	 	 	 	 	 	 	1581515905	9.30	17.22
12/02/2020 13:58:26	120220	12022020	135826	89.95	12.418773	-57.172250	90.04	0.240	-1.630	1.510	89.98	-3.00	1.90	 	 	 	 	 	 	 	 	 	 	 	 	 	 	 	 	 	 	1581515906	9.77	18.09
12/02/2020 13:58:27	120220	12022020	135827	90.09	12.418775	-57.172208	90.15	0.620	-1.200	1.370	90.10	-2.70	1.80	 	 	 	 	 	 	 	 	 	 	 	 	 	 	 	 	 	 	1581515907	8.82	16.33
12/02/2020 13:58:28	120220	12022020	135828	90.02	12.418775	-57.172170	89.99	0.660	-0.520	1.360	89.96	-2.00	1.80	 	 	 	 	 	 	 	 	 	 	 	 	 	 	 	 	 	 	1581515908	7.99	14.80
12/02/2020 13:58:29	120220	12022020	135829	89.68	12.418777	-57.172132	89.66	0.630	-0.120	1.310	89.62	-1.60	1.80	 	 	 	 	 	 	 	 	 	 	 	 	 	 	 	 	 	 	1581515909	8.28	15.33
12/02/2020 13:58:30	120220	12022020	135830	89.50	12.418782	-57.172090	89.58	0.420	0.340	0.910	89.52	-1.20	1.40	 	 	 	 	 	 	 	 	 	 	 	 	 	 	 	 	 	 	1581515910	8.66	16.04
12/02/2020 13:58:31	120220	12022020	135831	89.87	12.418788	-57.172052	90.04	-0.110	0.740	0.180	89.98	-0.70	0.70	 	 	 	 	 	 	 	 	 	 	 	 	 	 	 	 	 	 	1581515911	8.42	15.59
12/02/2020 13:58:32	120220	12022020	135832	90.43	12.418793	-57.172012	90.53	-0.650	0.570	-0.050	90.49	-0.80	0.40	 	 	 	 	 	 	 	 	 	 	 	 	 	 	 	 	 	 	1581515912	8.32	15.41
12/02/2020 13:58:33	120220	12022020	135833	90.58	12.418792	-57.171970	90.60	-0.770	-0.230	0.550	90.57	-1.50	0.90	 	 	 	 	 	 	 	 	 	 	 	 	 	 	 	 	 	 	1581515913	8.84	16.37
12/02/2020 13:58:34	120220	12022020	135834	90.45	12.418787	-57.171925	90.49	-0.500	-1.000	1.340	90.43	-2.30	1.70	 	 	 	 	 	 	 	 	 	 	 	 	 	 	 	 	 	 	1581515914	9.50	17.59
12/02/2020 13:58:35	120220	12022020	135835	90.35	12.418780	-57.171882	90.43	-0.200	-1.070	1.850	90.34	-2.50	2.20	 	 	 	 	 	 	 	 	 	 	 	 	 	 	 	 	 	 	1581515915	9.25	17.13
12/02/2020 13:58:36	120220	12022020	135836	90.30	12.418777	-57.171842	90.39	0.000	-0.540	2.020	90.29	-2.00	2.40	 	 	 	 	 	 	 	 	 	 	 	 	 	 	 	 	 	 	1581515916	8.45	15.65
12/02/2020 13:58:37	120220	12022020	135837	90.35	12.418777	-57.171805	90.48	0.230	-0.050	1.720	90.39	-1.50	2.20	 	 	 	 	 	 	 	 	 	 	 	 	 	 	 	 	 	 	1581515917	8.00	14.82
12/02/2020 13:58:38	120220	12022020	135838	90.57	12.418782	-57.171765	90.68	0.500	-0.090	1.020	90.60	-1.50	1.50	 	 	 	 	 	 	 	 	 	 	 	 	 	 	 	 	 	 	1581515918	8.45	15.65
12/02/2020 13:58:39	120220	12022020	135839	90.65	12.418787	-57.171722	90.72	0.520	-0.230	0.470	90.65	-1.60	1.00	 	 	 	 	 	 	 	 	 	 	 	 	 	 	 	 	 	 	1581515919	9.12	16.89
12/02/2020 13:58:40	120220	12022020	135840	90.60	12.418792	-57.171680	90.65	0.190	-0.100	0.300	90.59	-1.50	0.70	 	 	 	 	 	 	 	 	 	 	 	 	 	 	 	 	 	 	1581515920	8.90	16.48
12/02/2020 13:58:41	120220	12022020	135841	90.52	12.418795	-57.171640	90.57	-0.210	-0.100	0.420	90.51	-1.50	0.80	 	 	 	 	 	 	 	 	 	 	 	 	 	 	 	 	 	 	1581515921	8.54	15.82
12/02/2020 13:58:42	120220	12022020	135842	90.48	12.418795	-57.171598	90.55	-0.380	-0.380	0.610	90.49	-1.70	1.00	 	 	 	 	 	 	 	 	 	 	 	 	 	 	 	 	 	 	1581515922	8.83	16.35
12/02/2020 13:58:43	120220	12022020	135843	90.62	12.418793	-57.171555	90.75	-0.270	-0.710	0.850	90.67	-2.10	1.20	 	 	 	 	 	 	 	 	 	 	 	 	 	 	 	 	 	 	1581515923	9.14	16.93
12/02/2020 13:58:44	120220	12022020	135844	90.81	12.418790	-57.171512	90.90	-0.130	-0.610	1.300	90.82	-2.10	1.60	 	 	 	 	 	 	 	 	 	 	 	 	 	 	 	 	 	 	1581515924	9.11	16.87
12/02/2020 13:58:45	120220	12022020	135845	90.76	12.418785	-57.171472	90.79	-0.140	-0.060	1.770	90.73	-1.60	2.10	 	 	 	 	 	 	 	 	 	 	 	 	 	 	 	 	 	 	1581515925	8.60	15.93
12/02/2020 13:58:46	120220	12022020	135846	90.54	12.418782	-57.171433	90.57	-0.120	0.210	2.120	90.49	-1.20	2.50	 	 	 	 	 	 	 	 	 	 	 	 	 	 	 	 	 	 	1581515926	8.26	15.30
12/02/2020 13:58:47	120220	12022020	135847	90.36	12.418782	-57.171390	90.45	0.140	-0.080	1.990	90.35	-1.40	2.50	 	 	 	 	 	 	 	 	 	 	 	 	 	 	 	 	 	 	1581515927	8.85	16.39
12/02/2020 13:58:48	120220	12022020	135848	90.49	12.418785	-57.171347	90.64	0.350	-0.380	1.340	90.56	-1.70	1.90	 	 	 	 	 	 	 	 	 	 	 	 	 	 	 	 	 	 	1581515928	9.33	17.28
12/02/2020 13:58:49	120220	12022020	135849	90.87	12.418792	-57.171303	91.03	0.270	-0.510	0.640	90.96	-1.90	1.10	 	 	 	 	 	 	 	 	 	 	 	 	 	 	 	 	 	 	1581515929	9.23	17.09
12/02/2020 13:58:50	120220	12022020	135850	91.28	12.418795	-57.171262	91.42	-0.020	-0.260	0.450	91.34	-1.70	0.90	 	 	 	 	 	 	 	 	 	 	 	 	 	 	 	 	 	 	1581515930	8.89	16.46
12/02/2020 13:58:51	120220	12022020	135851	91.51	12.418797	-57.171222	91.57	-0.320	0.160	0.670	91.52	-1.30	1.00	 	 	 	 	 	 	 	 	 	 	 	 	 	 	 	 	 	 	1581515931	8.31	15.39
12/02/2020 13:58:52	120220	12022020	135852	91.38	12.418793	-57.171183	91.38	-0.350	0.120	1.110	91.32	-1.20	1.50	 	 	 	 	 	 	 	 	 	 	 	 	 	 	 	 	 	 	1581515932	8.34	15.45
12/02/2020 13:58:53	120220	12022020	135853	91.06	12.418788	-57.171140	91.06	0.010	-0.580	1.600	90.99	-2.40	2.20	 	 	 	 	 	 	 	 	 	 	 	 	 	 	 	 	 	 	1581515933	9.06	16.78
12/02/2020 13:58:54	120220	12022020	135854	90.85	12.418787	-57.171095	90.92	0.520	-1.300	1.790	90.84	-2.60	2.20	 	 	 	 	 	 	 	 	 	 	 	 	 	 	 	 	 	 	1581515934	9.77	18.09
12/02/2020 13:58:55	120220	12022020	135855	90.87	12.418788	-57.171048	90.99	0.730	-1.280	1.570	90.89	-2.70	2.00	 	 	 	 	 	 	 	 	 	 	 	 	 	 	 	 	 	 	1581515935	9.67	17.91
12/02/2020 13:58:56	120220	12022020	135856	91.08	12.418792	-57.171007	91.23	0.310	-0.390	1.250	91.14	-1.90	1.70	 	 	 	 	 	 	 	 	 	 	 	 	 	 	 	 	 	 	1581515936	8.94	16.56
12/02/2020 13:58:57	120220	12022020	135857	91.36	12.418792	-57.170968	91.54	-0.570	0.920	1.260	91.42	-0.70	1.70	 	 	 	 	 	 	 	 	 	 	 	 	 	 	 	 	 	 	1581515937	7.99	14.80
12/02/2020 13:58:58	120220	12022020	135858	91.69	12.418790	-57.170933	91.90	-1.300	1.670	1.460	91.76	0.30	1.90	 	 	 	 	 	 	 	 	 	 	 	 	 	 	 	 	 	 	1581515938	7.51	13.91
12/02/2020 13:58:59	120220	12022020	135859	91.95	12.418785	-57.170895	92.09	-1.150	0.750	1.560	91.96	-0.40	2.00	 	 	 	 	 	 	 	 	 	 	 	 	 	 	 	 	 	 	1581515939	8.28	15.33
12/02/2020 13:59:00	120220	12022020	135900	91.83	12.418782	-57.170847	91.86	0.020	-1.430	1.540	91.77	-2.50	1.90	 	 	 	 	 	 	 	 	 	 	 	 	 	 	 	 	 	 	1581515940	10.18	18.85
12/02/2020 13:59:01	120220	12022020	135901	91.46	12.418780	-57.170793	91.47	1.290	-2.650	1.690	91.38	-4.00	2.10	 	 	 	 	 	 	 	 	 	 	 	 	 	 	 	 	 	 	1581515941	11.16	20.67
12/02/2020 13:59:02	120220	12022020	135902	91.24	12.418782	-57.170748	91.34	1.520	-1.480	1.580	91.25	-3.10	2.10	1017.20	26.60	26.60	20.30	20.40	823.0	68.0	68.0	400.0	28.5	347.00	15.40	72.00	11.10	59366	17004.0	27.5	27.5	1581515942	9.63	17.83
12/02/2020 13:59:03	120220	12022020	135903	91.47	12.418783	-57.170713	91.68	0.500	0.840	1.040	91.57	-0.80	1.50	 	 	 	 	 	 	 	 	 	 	 	 	 	 	 	 	 	 	1581515943	7.23	13.39
12/02/2020 13:59:04	120220	12022020	135904	91.97	12.418788	-57.170683	92.15	-0.800	2.010	0.600	92.07	0.60	1.10	 	 	 	 	 	 	 	 	 	 	 	 	 	 	 	 	 	 	1581515944	6.54	12.11
12/02/2020 13:59:05	120220	12022020	135905	92.32	12.418788	-57.170645	92.43	-1.220	1.160	0.570	92.35	0.00	1.00	 	 	 	 	 	 	 	 	 	 	 	 	 	 	 	 	 	 	1581515945	8.07	14.95
12/02/2020 13:59:06	120220	12022020	135906	92.23	12.418787	-57.170598	92.20	-0.600	-0.680	1.060	92.14	-1.80	1.40	 	 	 	 	 	 	 	 	 	 	 	 	 	 	 	 	 	 	1581515946	9.95	18.43
12/02/2020 13:59:07	120220	12022020	135907	91.75	12.418780	-57.170548	91.72	0.260	-1.970	1.790	91.67	-3.50	2.50	 	 	 	 	 	 	 	 	 	 	 	 	 	 	 	 	 	 	1581515947	10.60	19.63
12/02/2020 13:59:08	120220	12022020	135908	91.38	12.418773	-57.170502	91.41	0.630	-1.940	2.320	91.34	-3.40	2.70	 	 	 	 	 	 	 	 	 	 	 	 	 	 	 	 	 	 	1581515948	9.80	18.15
12/02/2020 13:59:09	120220	12022020	135909	91.33	12.418770	-57.170462	91.45	0.390	-0.840	2.360	91.35	-2.40	2.80	 	 	 	 	 	 	 	 	 	 	 	 	 	 	 	 	 	 	1581515949	8.52	15.78
12/02/2020 13:59:10	120220	12022020	135910	91.54	12.418768	-57.170425	91.71	0.010	0.470	1.910	91.61	-1.10	2.40	 	 	 	 	 	 	 	 	 	 	 	 	 	 	 	 	 	 	1581515950	7.74	14.33
12/02/2020 13:59:11	120220	12022020	135911	91.86	12.418770	-57.170388	91.99	-0.180	1.170	1.300	91.90	-0.20	1.80	 	 	 	 	 	 	 	 	 	 	 	 	 	 	 	 	 	 	1581515951	7.81	14.46
12/02/2020 13:59:12	120220	12022020	135912	91.97	12.418772	-57.170348	92.04	-0.120	0.780	0.820	91.97	-0.50	1.30	 	 	 	 	 	 	 	 	 	 	 	 	 	 	 	 	 	 	1581515952	8.61	15.95
12/02/2020 13:59:13	120220	12022020	135913	91.95	12.418773	-57.170303	92.00	-0.030	-0.190	0.510	91.94	-1.40	1.00	 	 	 	 	 	 	 	 	 	 	 	 	 	 	 	 	 	 	1581515953	9.59	17.76
12/02/2020 13:59:14	120220	12022020	135914	91.92	12.418772	-57.170257	91.98	-0.070	-0.670	0.480	91.92	-2.00	0.90	 	 	 	 	 	 	 	 	 	 	 	 	 	 	 	 	 	 	1581515954	9.63	17.83
12/02/2020 13:59:15	120220	12022020	135915	91.88	12.418772	-57.170217	91.90	-0.150	-0.500	0.460	91.85	-1.90	0.90	 	 	 	 	 	 	 	 	 	 	 	 	 	 	 	 	 	 	1581515955	8.69	16.09
12/02/2020 13:59:16	120220	12022020	135916	91.63	12.418772	-57.170177	91.60	0.000	-0.570	0.660	91.56	-1.90	1.00	 	 	 	 	 	 	 	 	 	 	 	 	 	 	 	 	 	 	1581515956	8.31	15.39
12/02/2020 13:59:17	120220	12022020	135917	91.26	12.418770	-57.170133	91.27	0.340	-1.090	1.300	91.20	-2.40	1.60	 	 	 	 	 	 	 	 	 	 	 	 	 	 	 	 	 	 	1581515957	9.09	16.83
12/02/2020 13:59:18	120220	12022020	135918	91.09	12.418763	-57.170088	91.18	0.560	-1.340	2.090	91.08	-2.70	2.40	 	 	 	 	 	 	 	 	 	 	 	 	 	 	 	 	 	 	1581515958	9.75	18.06
12/02/2020 13:59:19	120220	12022020	135919	91.04	12.418757	-57.170045	91.14	0.460	-0.740	2.500	91.02	-2.20	2.90	 	 	 	 	 	 	 	 	 	 	 	 	 	 	 	 	 	 	1581515959	9.35	17.32
12/02/2020 13:59:20	120220	12022020	135920	90.92	12.418753	-57.170005	90.97	0.090	0.410	2.300	90.90	-1.10	2.80	 	 	 	 	 	 	 	 	 	 	 	 	 	 	 	 	 	 	1581515960	8.40	15.56
12/02/2020 13:59:21	120220	12022020	135921	90.90	12.418755	-57.169968	91.02	-0.430	1.410	1.790	90.93	-0.10	2.30	 	 	 	 	 	 	 	 	 	 	 	 	 	 	 	 	 	 	1581515961	7.87	14.58
12/02/2020 13:59:22	120220	12022020	135922	91.08	12.418757	-57.169930	91.19	-0.860	1.510	1.330	91.11	0.20	1.80	 	 	 	 	 	 	 	 	 	 	 	 	 	 	 	 	 	 	1581515962	7.97	14.76
12/02/2020 13:59:23	120220	12022020	135923	91.13	12.418758	-57.169888	91.16	-0.890	0.460	0.990	91.10	-0.70	1.50	 	 	 	 	 	 	 	 	 	 	 	 	 	 	 	 	 	 	1581515963	8.79	16.28
12/02/2020 13:59:24	120220	12022020	135924	90.90	12.418757	-57.169843	90.87	-0.400	-1.080	1.020	90.82	-2.20	1.40	 	 	 	 	 	 	 	 	 	 	 	 	 	 	 	 	 	 	1581515964	9.73	18.02
12/02/2020 13:59:25	120220	12022020	135925	90.49	12.418753	-57.169795	90.49	0.470	-2.330	1.370	90.43	-3.50	1.80	 	 	 	 	 	 	 	 	 	 	 	 	 	 	 	 	 	 	1581515965	10.07	18.65
12/02/2020 13:59:26	120220	12022020	135926	90.25	12.418752	-57.169748	90.29	1.350	-2.680	1.420	90.22	-4.10	1.90	 	 	 	 	 	 	 	 	 	 	 	 	 	 	 	 	 	 	1581515966	9.93	18.39
12/02/2020 13:59:27	120220	12022020	135927	90.13	12.418753	-57.169705	90.19	1.580	-1.350	1.300	90.12	-3.00	1.70	 	 	 	 	 	 	 	 	 	 	 	 	 	 	 	 	 	 	1581515967	9.25	17.13
12/02/2020 13:59:28	120220	12022020	135928	90.17	12.418757	-57.169668	90.28	0.640	1.220	1.280	90.20	-0.50	1.70	 	 	 	 	 	 	 	 	 	 	 	 	 	 	 	 	 	 	1581515968	7.49	13.87
12/02/2020 13:59:29	120220	12022020	135929	90.40	12.418757	-57.169638	90.54	-0.980	2.940	1.470	90.45	1.40	1.90	 	 	 	 	 	 	 	 	 	 	 	 	 	 	 	 	 	 	1581515969	6.35	11.76
12/02/2020 13:59:30	120220	12022020	135930	90.59	12.418755	-57.169603	90.71	-1.990	2.090	1.770	90.61	1.00	2.20	 	 	 	 	 	 	 	 	 	 	 	 	 	 	 	 	 	 	1581515970	7.45	13.80
12/02/2020 13:59:31	120220	12022020	135931	90.60	12.418750	-57.169557	90.65	-1.500	-0.670	2.100	90.56	-3.30	2.80	 	 	 	 	 	 	 	 	 	 	 	 	 	 	 	 	 	 	1581515971	10.09	18.69
12/02/2020 13:59:32	120220	12022020	135932	90.29	12.418745	-57.169503	90.31	-0.100	-2.720	2.620	90.21	-3.90	3.00	 	 	 	 	 	 	 	 	 	 	 	 	 	 	 	 	 	 	1581515972	11.37	21.06
12/02/2020 13:59:33	120220	12022020	135933	89.90	12.418740	-57.169455	89.95	1.060	-2.650	2.920	89.85	-4.10	3.30	 	 	 	 	 	 	 	 	 	 	 	 	 	 	 	 	 	 	1581515973	10.09	18.69
12/02/2020 13:59:34	120220	12022020	135934	89.74	12.418738	-57.169417	89.84	1.290	-1.080	2.590	89.74	-2.70	3.10	 	 	 	 	 	 	 	 	 	 	 	 	 	 	 	 	 	 	1581515974	8.12	15.04
12/02/2020 13:59:35	120220	12022020	135935	89.81	12.418743	-57.169382	89.93	0.790	0.410	1.760	89.84	-1.10	2.30	 	 	 	 	 	 	 	 	 	 	 	 	 	 	 	 	 	 	1581515975	7.34	13.59
12/02/2020 13:59:36	120220	12022020	135936	89.89	12.418750	-57.169345	89.99	0.110	1.020	0.830	89.91	-0.40	1.40	 	 	 	 	 	 	 	 	 	 	 	 	 	 	 	 	 	 	1581515976	7.99	14.80
12/02/2020 13:59:37	120220	12022020	135937	90.08	12.418757	-57.169305	90.21	-0.440	1.080	0.120	90.14	-0.30	0.70	 	 	 	 	 	 	 	 	 	 	 	 	 	 	 	 	 	 	1581515977	8.72	16.15
12/02/2020 13:59:38	120220	12022020	135938	90.42	12.418762	-57.169263	90.54	-0.690	0.750	-0.370	90.48	-0.50	0.10	 	 	 	 	 	 	 	 	 	 	 	 	 	 	 	 	 	 	1581515978	8.73	16.17
12/02/2020 13:59:39	120220	12022020	135939	90.56	12.418762	-57.169222	90.56	-0.520	-0.240	-0.350	90.53	-1.40	0.00	 	 	 	 	 	 	 	 	 	 	 	 	 	 	 	 	 	 	1581515979	8.99	16.65
12/02/2020 13:59:40	120220	12022020	135940	90.27	12.418760	-57.169175	90.20	-0.100	-1.450	0.350	90.18	-2.70	0.70	 	 	 	 	 	 	 	 	 	 	 	 	 	 	 	 	 	 	1581515980	9.71	17.98
12/02/2020 13:59:41	120220	12022020	135941	89.73	12.418755	-57.169128	89.60	0.310	-2.000	1.230	89.60	-3.30	1.50	 	 	 	 	 	 	 	 	 	 	 	 	 	 	 	 	 	 	1581515981	9.83	18.21
12/02/2020 13:59:42	120220	12022020	135942	89.14	12.418752	-57.169085	89.09	0.600	-1.460	2.060	89.06	-3.00	2.40	 	 	 	 	 	 	 	 	 	 	 	 	 	 	 	 	 	 	1581515982	9.25	17.13
12/02/2020 13:59:43	120220	12022020	135943	88.85	12.418748	-57.169045	88.91	0.590	-0.170	2.430	88.85	-0.90	2.70	 	 	 	 	 	 	 	 	 	 	 	 	 	 	 	 	 	 	1581515983	8.40	15.56
12/02/2020 13:59:44	120220	12022020	135944	89.03	12.418748	-57.169008	89.18	0.130	1.020	2.040	89.11	-0.50	2.50	 	 	 	 	 	 	 	 	 	 	 	 	 	 	 	 	 	 	1581515984	7.86	14.56
12/02/2020 13:59:45	120220	12022020	135945	89.43	12.418752	-57.168970	89.55	-0.480	1.390	1.490	89.50	0.00	2.00	 	 	 	 	 	 	 	 	 	 	 	 	 	 	 	 	 	 	1581515985	8.00	14.82
12/02/2020 13:59:46	120220	12022020	135946	89.71	12.418755	-57.168930	89.79	-0.800	0.700	1.160	89.74	-0.50	1.60	 	 	 	 	 	 	 	 	 	 	 	 	 	 	 	 	 	 	1581515986	8.70	16.11
12/02/2020 13:59:47	120220	12022020	135947	89.82	12.418755	-57.168883	89.89	-0.560	-0.660	1.060	89.82	-1.80	1.50	 	 	 	 	 	 	 	 	 	 	 	 	 	 	 	 	 	 	1581515987	9.61	17.80
12/02/2020 13:59:48	120220	12022020	135948	89.75	12.418753	-57.168837	89.75	0.090	-1.670	1.330	89.69	-2.90	1.70	 	 	 	 	 	 	 	 	 	 	 	 	 	 	 	 	 	 	1581515988	10.08	18.67
12/02/2020 13:59:49	120220	12022020	135949	89.35	12.418752	-57.168792	89.28	0.680	-1.540	1.570	89.23	-3.00	2.00	 	 	 	 	 	 	 	 	 	 	 	 	 	 	 	 	 	 	1581515989	9.55	17.69
12/02/2020 13:59:50	120220	12022020	135950	88.66	12.418753	-57.168752	88.56	0.820	-0.610	1.520	88.52	-2.10	2.00	 	 	 	 	 	 	 	 	 	 	 	 	 	 	 	 	 	 	1581515990	8.53	15.80
12/02/2020 13:59:51	120220	12022020	135951	88.22	12.418758	-57.168713	88.27	0.460	0.220	1.220	88.22	-1.20	1.70	 	 	 	 	 	 	 	 	 	 	 	 	 	 	 	 	 	 	1581515991	8.18	15.15
12/02/2020 13:59:52	120220	12022020	135952	88.56	12.418765	-57.168673	88.76	-0.080	0.450	0.560	88.70	-0.90	1.10	 	 	 	 	 	 	 	 	 	 	 	 	 	 	 	 	 	 	1581515992	8.53	15.80
12/02/2020 13:59:53	120220	12022020	135953	89.33	12.418772	-57.168630	89.51	-0.460	0.240	0.090	89.46	-1.10	0.50	 	 	 	 	 	 	 	 	 	 	 	 	 	 	 	 	 	 	1581515993	9.05	16.76
12/02/2020 13:59:54	120220	12022020	135954	89.76	12.418770	-57.168587	89.81	-0.580	-0.010	0.600	89.77	-1.30	0.90	 	 	 	 	 	 	 	 	 	 	 	 	 	 	 	 	 	 	1581515994	9.22	17.08
12/02/2020 13:59:55	120220	12022020	135955	89.65	12.418763	-57.168543	89.65	-0.440	-0.310	1.770	89.59	-1.90	2.80	 	 	 	 	 	 	 	 	 	 	 	 	 	 	 	 	 	 	1581515995	9.23	17.09
12/02/2020 13:59:56	120220	12022020	135956	89.30	12.418757	-57.168500	89.28	-0.030	-0.780	2.920	89.22	-2.10	3.20	 	 	 	 	 	 	 	 	 	 	 	 	 	 	 	 	 	 	1581515996	9.41	17.43
12/02/2020 13:59:57	120220	12022020	135957	88.89	12.418753	-57.168455	88.94	0.410	-1.050	3.440	88.85	-2.30	3.70	 	 	 	 	 	 	 	 	 	 	 	 	 	 	 	 	 	 	1581515997	9.57	17.72
12/02/2020 13:59:58	120220	12022020	135958	88.92	12.418755	-57.168412	89.08	0.570	-0.720	2.810	89.00	-2.20	3.40	 	 	 	 	 	 	 	 	 	 	 	 	 	 	 	 	 	 	1581515998	9.29	17.21
12/02/2020 13:59:59	120220	12022020	135959	89.49	12.418763	-57.168370	89.72	0.330	0.140	1.560	89.63	-1.40	2.20	 	 	 	 	 	 	 	 	 	 	 	 	 	 	 	 	 	 	1581515999	8.76	16.22
12/02/2020 14:00:00	120220	12022020	140000	90.24	12.418772	-57.168333	90.43	-0.230	1.000	0.440	90.38	-0.40	1.00	 	 	 	 	 	 	 	 	 	 	 	 	 	 	 	 	 	 	1581516000	8.16	15.11
12/02/2020 14:00:01	120220	12022020	140001	90.77	12.418778	-57.168295	90.82	-0.650	0.750	-0.230	90.81	-0.50	0.30	 	 	 	 	 	 	 	 	 	 	 	 	 	 	 	 	 	 	1581516001	8.14	15.08
12/02/2020 14:00:02	120220	12022020	140002	90.73	12.418780	-57.168250	90.67	-0.300	-0.930	-0.240	90.67	-2.00	0.20	1017.20	26.50	26.60	20.20	20.20	853.0	68.0	68.0	401.0	28.5	347.00	15.90	73.00	11.50	60791	8487.0	27.5	27.5	1581516002	9.49	17.58
12/02/2020 14:00:03	120220	12022020	140003	90.37	12.418778	-57.168198	90.32	0.590	-2.360	0.070	90.30	-3.60	0.40	 	 	 	 	 	 	 	 	 	 	 	 	 	 	 	 	 	 	1581516003	10.98	20.33
12/02/2020 14:00:04	120220	12022020	140004	90.13	12.418778	-57.168150	90.14	0.860	-1.630	0.410	90.11	-3.20	0.80	 	 	 	 	 	 	 	 	 	 	 	 	 	 	 	 	 	 	1581516004	10.11	18.72
12/02/2020 14:00:05	120220	12022020	140005	90.15	12.418778	-57.168113	90.22	0.110	0.410	0.450	90.18	-1.30	0.90	 	 	 	 	 	 	 	 	 	 	 	 	 	 	 	 	 	 	1581516005	7.82	14.48
12/02/2020 14:00:06	120220	12022020	140006	90.43	12.418780	-57.168080	90.55	-0.930	1.790	0.380	90.51	0.30	0.80	 	 	 	 	 	 	 	 	 	 	 	 	 	 	 	 	 	 	1581516006	6.93	12.83
12/02/2020 14:00:07	120220	12022020	140007	90.86	12.418780	-57.168043	90.97	-1.260	1.450	0.380	90.93	0.20	0.80	 	 	 	 	 	 	 	 	 	 	 	 	 	 	 	 	 	 	1581516007	7.92	14.67
12/02/2020 14:00:08	120220	12022020	140008	91.15	12.418777	-57.167997	91.20	-0.620	-0.260	0.590	91.17	-1.40	1.00	 	 	 	 	 	 	 	 	 	 	 	 	 	 	 	 	 	 	1581516008	9.71	17.98
12/02/2020 14:00:09	120220	12022020	140009	91.06	12.418773	-57.167947	91.04	0.400	-1.720	1.070	91.00	-3.00	1.40	 	 	 	 	 	 	 	 	 	 	 	 	 	 	 	 	 	 	1581516009	10.75	19.91
12/02/2020 14:00:10	120220	12022020	140010	90.73	12.418770	-57.167900	90.72	1.000	-1.570	1.340	90.68	-3.10	1.70	 	 	 	 	 	 	 	 	 	 	 	 	 	 	 	 	 	 	1581516010	9.92	18.37
12/02/2020 14:00:11	120220	12022020	140011	90.60	12.418772	-57.167860	90.68	0.770	-0.370	1.240	90.61	-2.00	1.70	 	 	 	 	 	 	 	 	 	 	 	 	 	 	 	 	 	 	1581516011	8.20	15.19
12/02/2020 14:00:12	120220	12022020	140012	90.70	12.418775	-57.167825	90.78	0.120	0.430	1.080	90.71	-1.00	1.50	 	 	 	 	 	 	 	 	 	 	 	 	 	 	 	 	 	 	1581516012	7.62	14.11
12/02/2020 14:00:13	120220	12022020	140013	90.65	12.418777	-57.167785	90.66	-0.280	0.170	1.130	90.60	-1.20	1.50	 	 	 	 	 	 	 	 	 	 	 	 	 	 	 	 	 	 	1581516013	8.43	15.61
12/02/2020 14:00:14	120220	12022020	140014	90.33	12.418777	-57.167740	90.31	-0.230	-0.430	1.450	90.26	-1.80	1.80	 	 	 	 	 	 	 	 	 	 	 	 	 	 	 	 	 	 	1581516014	9.56	17.71
12/02/2020 14:00:15	120220	12022020	140015	90.04	12.418773	-57.167695	90.10	-0.060	-0.560	1.930	90.01	-2.00	2.30	 	 	 	 	 	 	 	 	 	 	 	 	 	 	 	 	 	 	1581516015	9.60	17.78
12/02/2020 14:00:16	120220	12022020	140016	90.01	12.418772	-57.167652	90.13	-0.020	-0.360	2.020	90.04	-1.80	2.50	 	 	 	 	 	 	 	 	 	 	 	 	 	 	 	 	 	 	1581516016	9.02	16.71
12/02/2020 14:00:17	120220	12022020	140017	90.18	12.418772	-57.167610	90.30	-0.040	-0.290	1.730	90.21	-1.70	2.20	 	 	 	 	 	 	 	 	 	 	 	 	 	 	 	 	 	 	1581516017	8.83	16.35
12/02/2020 14:00:18	120220	12022020	140018	90.26	12.418773	-57.167567	90.36	-0.100	-0.330	1.670	90.26	-1.70	2.10	 	 	 	 	 	 	 	 	 	 	 	 	 	 	 	 	 	 	1581516018	9.14	16.93
12/02/2020 14:00:19	120220	12022020	140019	90.29	12.418772	-57.167525	90.41	-0.290	-0.100	1.740	90.30	-1.50	2.20	 	 	 	 	 	 	 	 	 	 	 	 	 	 	 	 	 	 	1581516019	9.08	16.82
12/02/2020 14:00:20	120220	12022020	140020	90.40	12.418770	-57.167483	90.52	-0.390	0.260	1.570	90.43	-1.20	2.00	 	 	 	 	 	 	 	 	 	 	 	 	 	 	 	 	 	 	1581516020	8.61	15.95
12/02/2020 14:00:21	120220	12022020	140021	90.43	12.418772	-57.167443	90.51	-0.110	0.170	1.430	90.42	-1.20	1.90	 	 	 	 	 	 	 	 	 	 	 	 	 	 	 	 	 	 	1581516021	8.57	15.87
12/02/2020 14:00:22	120220	12022020	140022	90.40	12.418773	-57.167400	90.48	0.320	-0.330	1.120	90.40	-1.60	1.60	 	 	 	 	 	 	 	 	 	 	 	 	 	 	 	 	 	 	1581516022	9.23	17.09
12/02/2020 14:00:23	120220	12022020	140023	90.43	12.418777	-57.167355	90.53	0.540	-0.690	0.780	90.45	-2.00	1.30	 	 	 	 	 	 	 	 	 	 	 	 	 	 	 	 	 	 	1581516023	9.49	17.58
12/02/2020 14:00:24	120220	12022020	140024	90.56	12.418780	-57.167312	90.66	0.500	-0.760	0.640	90.58	-2.10	1.10	 	 	 	 	 	 	 	 	 	 	 	 	 	 	 	 	 	 	1581516024	9.18	17.00
12/02/2020 14:00:25	120220	12022020	140025	90.66	12.418783	-57.167268	90.73	0.380	-0.810	0.710	90.66	-2.20	1.10	 	 	 	 	 	 	 	 	 	 	 	 	 	 	 	 	 	 	1581516025	9.05	16.76
12/02/2020 14:00:26	120220	12022020	140026	90.70	12.418783	-57.167225	90.80	0.160	-0.610	1.010	90.73	-2.10	1.40	 	 	 	 	 	 	 	 	 	 	 	 	 	 	 	 	 	 	1581516026	9.25	17.13
12/02/2020 14:00:27	120220	12022020	140027	90.87	12.418782	-57.167183	91.00	-0.220	0.010	1.480	90.92	-1.50	1.80	 	 	 	 	 	 	 	 	 	 	 	 	 	 	 	 	 	 	1581516027	8.86	16.41
12/02/2020 14:00:28	120220	12022020	140028	91.07	12.418777	-57.167143	91.17	-0.580	0.540	1.900	91.08	-0.90	2.30	 	 	 	 	 	 	 	 	 	 	 	 	 	 	 	 	 	 	1581516028	8.47	15.69
12/02/2020 14:00:29	120220	12022020	140029	91.06	12.418773	-57.167102	91.11	-0.610	0.390	2.190	91.04	-0.90	2.60	 	 	 	 	 	 	 	 	 	 	 	 	 	 	 	 	 	 	1581516029	8.72	16.15
12/02/2020 14:00:30	120220	12022020	140030	90.99	12.418772	-57.167057	91.08	-0.190	-0.500	2.070	91.00	-1.70	2.50	 	 	 	 	 	 	 	 	 	 	 	 	 	 	 	 	 	 	1581516030	9.48	17.56
12/02/2020 14:00:31	120220	12022020	140031	91.02	12.418772	-57.167008	91.09	0.390	-1.360	1.680	91.02	-2.70	2.20	 	 	 	 	 	 	 	 	 	 	 	 	 	 	 	 	 	 	1581516031	10.28	19.04
12/02/2020 14:00:32	120220	12022020	140032	91.04	12.418775	-57.166962	91.13	0.500	-0.940	1.090	91.07	-2.50	1.60	 	 	 	 	 	 	 	 	 	 	 	 	 	 	 	 	 	 	1581516032	9.93	18.39
12/02/2020 14:00:33	120220	12022020	140033	91.19	12.418778	-57.166923	91.29	-0.050	0.490	0.400	91.24	-1.10	0.90	 	 	 	 	 	 	 	 	 	 	 	 	 	 	 	 	 	 	1581516033	8.29	15.35
12/02/2020 14:00:34	120220	12022020	140034	91.45	12.418782	-57.166888	91.53	-0.710	1.440	-0.100	91.49	-0.00	0.40	 	 	 	 	 	 	 	 	 	 	 	 	 	 	 	 	 	 	1581516034	7.41	13.72
12/02/2020 14:00:35	120220	12022020	140035	91.63	12.418783	-57.166848	91.69	-0.740	0.770	-0.270	91.64	-0.40	0.20	 	 	 	 	 	 	 	 	 	 	 	 	 	 	 	 	 	 	1581516035	8.21	15.20
12/02/2020 14:00:36	120220	12022020	140036	91.55	12.418783	-57.166802	91.51	0.070	-1.200	-0.020	91.48	-2.30	0.30	 	 	 	 	 	 	 	 	 	 	 	 	 	 	 	 	 	 	1581516036	10.02	18.56
12/02/2020 14:00:37	120220	12022020	140037	91.06	12.418780	-57.166748	91.01	1.050	-2.650	0.750	90.96	-3.90	1.00	 	 	 	 	 	 	 	 	 	 	 	 	 	 	 	 	 	 	1581516037	11.21	20.76
12/02/2020 14:00:38	120220	12022020	140038	90.64	12.418777	-57.166702	90.69	1.200	-1.760	1.490	90.60	-3.40	1.80	 	 	 	 	 	 	 	 	 	 	 	 	 	 	 	 	 	 	1581516038	10.11	18.72
12/02/2020 14:00:39	120220	12022020	140039	90.70	12.418773	-57.166665	90.90	0.310	0.640	1.750	90.78	-1.10	2.20	 	 	 	 	 	 	 	 	 	 	 	 	 	 	 	 	 	 	1581516039	7.57	14.02
12/02/2020 14:00:40	120220	12022020	140040	91.11	12.418773	-57.166635	91.28	-0.810	2.190	1.710	91.18	0.70	2.10	 	 	 	 	 	 	 	 	 	 	 	 	 	 	 	 	 	 	1581516040	6.43	11.91
12/02/2020 14:00:41	120220	12022020	140041	91.28	12.418772	-57.166598	91.38	-1.290	1.620	1.900	91.27	0.40	2.30	 	 	 	 	 	 	 	 	 	 	 	 	 	 	 	 	 	 	1581516041	7.83	14.50
12/02/2020 14:00:42	120220	12022020	140042	91.22	12.418768	-57.166552	91.32	-0.910	-0.320	2.030	91.21	-1.40	2.40	 	 	 	 	 	 	 	 	 	 	 	 	 	 	 	 	 	 	1581516042	9.89	18.32
12/02/2020 14:00:43	120220	12022020	140043	91.19	12.418767	-57.166500	91.29	-0.000	-2.010	1.980	91.18	-3.20	2.40	 	 	 	 	 	 	 	 	 	 	 	 	 	 	 	 	 	 	1581516043	10.77	19.95
12/02/2020 14:00:44	120220	12022020	140044	91.10	12.418765	-57.166452	91.17	0.820	-2.380	2.070	91.08	-3.80	2.50	 	 	 	 	 	 	 	 	 	 	 	 	 	 	 	 	 	 	1581516044	10.19	18.87
12/02/2020 14:00:45	120220	12022020	140045	91.02	12.418763	-57.166410	91.13	0.990	-1.290	1.970	91.02	-2.90	2.40	 	 	 	 	 	 	 	 	 	 	 	 	 	 	 	 	 	 	1581516045	8.98	16.63
12/02/2020 14:00:46	120220	12022020	140046	91.07	12.418765	-57.166373	91.16	0.440	0.370	1.520	91.08	-1.20	2.00	 	 	 	 	 	 	 	 	 	 	 	 	 	 	 	 	 	 	1581516046	7.81	14.46
12/02/2020 14:00:47	120220	12022020	140047	91.07	12.418767	-57.166337	91.16	-0.310	1.520	1.090	91.06	0.30	1.40	 	 	 	 	 	 	 	 	 	 	 	 	 	 	 	 	 	 	1581516047	7.57	14.02
12/02/2020 14:00:48	120220	12022020	140048	91.02	12.418768	-57.166298	91.12	-0.770	1.660	0.740	91.03	0.30	1.20	 	 	 	 	 	 	 	 	 	 	 	 	 	 	 	 	 	 	1581516048	8.11	15.02
12/02/2020 14:00:49	120220	12022020	140049	91.13	12.418772	-57.166257	91.26	-0.620	0.620	0.150	91.17	-0.50	0.70	 	 	 	 	 	 	 	 	 	 	 	 	 	 	 	 	 	 	1581516049	8.89	16.46
12/02/2020 14:00:50	120220	12022020	140050	91.32	12.418775	-57.166210	91.38	0.130	-1.280	-0.290	91.33	-2.40	0.20	 	 	 	 	 	 	 	 	 	 	 	 	 	 	 	 	 	 	1581516050	10.03	18.58
12/02/2020 14:00:51	120220	12022020	140051	91.23	12.418777	-57.166158	91.21	0.900	-2.680	0.070	91.17	-3.90	0.40	 	 	 	 	 	 	 	 	 	 	 	 	 	 	 	 	 	 	1581516051	10.76	19.93
12/02/2020 14:00:52	120220	12022020	140052	90.88	12.418773	-57.166112	90.87	0.920	-2.090	0.960	90.82	-3.70	1.30	 	 	 	 	 	 	 	 	 	 	 	 	 	 	 	 	 	 	1581516052	9.99	18.50
12/02/2020 14:00:53	120220	12022020	140053	90.69	12.418768	-57.166075	90.78	0.080	0.210	1.750	90.69	-1.50	2.10	 	 	 	 	 	 	 	 	 	 	 	 	 	 	 	 	 	 	1581516053	7.86	14.56
12/02/2020 14:00:54	120220	12022020	140054	90.77	12.418763	-57.166045	90.89	-0.930	1.980	2.240	90.80	0.40	2.60	 	 	 	 	 	 	 	 	 	 	 	 	 	 	 	 	 	 	1581516054	6.54	12.11
12/02/2020 14:00:55	120220	12022020	140055	90.91	12.418760	-57.166008	91.05	-1.180	1.490	2.280	90.95	0.30	2.70	 	 	 	 	 	 	 	 	 	 	 	 	 	 	 	 	 	 	1581516055	7.73	14.32
12/02/2020 14:00:56	120220	12022020	140056	91.01	12.418758	-57.165960	91.11	-0.410	-0.560	2.080	91.01	-1.60	2.50	 	 	 	 	 	 	 	 	 	 	 	 	 	 	 	 	 	 	1581516056	10.10	18.71
12/02/2020 14:00:57	120220	12022020	140057	90.93	12.418758	-57.165908	91.03	0.500	-1.660	1.920	90.92	-3.00	2.40	 	 	 	 	 	 	 	 	 	 	 	 	 	 	 	 	 	 	1581516057	11.06	20.48
12/02/2020 14:00:58	120220	12022020	140058	90.87	12.418758	-57.165863	90.97	0.630	-0.930	1.750	90.86	-2.50	2.20	 	 	 	 	 	 	 	 	 	 	 	 	 	 	 	 	 	 	1581516058	9.26	17.15
12/02/2020 14:00:59	120220	12022020	140059	90.86	12.418760	-57.165828	90.96	0.120	0.230	1.460	90.86	-1.30	1.90	 	 	 	 	 	 	 	 	 	 	 	 	 	 	 	 	 	 	1581516059	7.52	13.93
12/02/2020 14:01:00	120220	12022020	140100	90.87	12.418762	-57.165792	90.97	-0.190	0.350	1.000	90.88	-1.00	1.50	 	 	 	 	 	 	 	 	 	 	 	 	 	 	 	 	 	 	1581516060	7.74	14.33
12/02/2020 14:01:01	120220	12022020	140101	90.90	12.418763	-57.165748	90.98	0.020	-0.420	0.620	90.90	-1.70	1.10	 	 	 	 	 	 	 	 	 	 	 	 	 	 	 	 	 	 	1581516061	9.12	16.89
12/02/2020 14:01:02	120220	12022020	140102	90.91	12.418763	-57.165702	90.97	0.420	-1.040	0.340	90.91	-2.40	0.80	1017.20	26.50	26.60	20.10	20.10	919.0	67.0	67.0	406.0	28.6	348.00	15.50	74.00	11.10	63859	14170.0	27.5	27.5	1581516062	9.92	18.37
12/02/2020 14:01:03	120220	12022020	140103	90.81	12.418765	-57.165657	90.81	0.470	-0.670	0.310	90.78	-2.20	0.70	 	 	 	 	 	 	 	 	 	 	 	 	 	 	 	 	 	 	1581516063	9.40	17.41
12/02/2020 14:01:04	120220	12022020	140104	90.58	12.418765	-57.165618	90.56	0.020	0.320	0.500	90.53	-1.20	0.90	 	 	 	 	 	 	 	 	 	 	 	 	 	 	 	 	 	 	1581516064	8.22	15.22
12/02/2020 14:01:05	120220	12022020	140105	90.41	12.418767	-57.165582	90.43	-0.520	0.940	0.590	90.40	-0.50	1.00	 	 	 	 	 	 	 	 	 	 	 	 	 	 	 	 	 	 	1581516065	7.74	14.33
12/02/2020 14:01:06	120220	12022020	140106	90.46	12.418768	-57.165543	90.54	-0.640	0.540	0.590	90.50	-0.70	1.00	 	 	 	 	 	 	 	 	 	 	 	 	 	 	 	 	 	 	1581516066	8.29	15.35
12/02/2020 14:01:07	120220	12022020	140107	90.73	12.418767	-57.165498	90.81	-0.220	-0.820	0.820	90.76	-2.00	1.20	 	 	 	 	 	 	 	 	 	 	 	 	 	 	 	 	 	 	1581516067	9.47	17.54
12/02/2020 14:01:08	120220	12022020	140108	90.65	12.418762	-57.165448	90.60	0.340	-1.950	1.510	90.57	-3.20	1.80	 	 	 	 	 	 	 	 	 	 	 	 	 	 	 	 	 	 	1581516068	10.41	19.28
12/02/2020 14:01:09	120220	12022020	140109	90.10	12.418757	-57.165402	90.02	0.480	-1.630	2.150	89.98	-3.10	2.50	 	 	 	 	 	 	 	 	 	 	 	 	 	 	 	 	 	 	1581516069	9.91	18.35
12/02/2020 14:01:10	120220	12022020	140110	89.55	12.418753	-57.165363	89.55	0.150	-0.080	2.540	89.48	-1.70	2.90	 	 	 	 	 	 	 	 	 	 	 	 	 	 	 	 	 	 	1581516070	8.26	15.30
12/02/2020 14:01:11	120220	12022020	140111	89.37	12.418752	-57.165328	89.47	-0.220	1.160	2.260	89.40	-0.30	2.80	 	 	 	 	 	 	 	 	 	 	 	 	 	 	 	 	 	 	1581516071	7.34	13.59
12/02/2020 14:01:12	120220	12022020	140112	89.68	12.418757	-57.165292	89.86	-0.290	1.180	1.190	89.78	-0.10	1.80	 	 	 	 	 	 	 	 	 	 	 	 	 	 	 	 	 	 	1581516072	8.10	15.00
12/02/2020 14:01:13	120220	12022020	140113	90.23	12.418765	-57.165248	90.37	-0.230	0.480	0.080	90.31	-0.80	0.60	 	 	 	 	 	 	 	 	 	 	 	 	 	 	 	 	 	 	1581516073	9.24	17.11
12/02/2020 14:01:14	120220	12022020	140114	90.48	12.418770	-57.165203	90.49	-0.080	-0.460	-0.060	90.46	-1.70	0.30	 	 	 	 	 	 	 	 	 	 	 	 	 	 	 	 	 	 	1581516074	9.46	17.52
12/02/2020 14:01:15	120220	12022020	140115	90.18	12.418768	-57.165158	90.08	0.190	-1.300	0.480	90.07	-2.60	0.80	 	 	 	 	 	 	 	 	 	 	 	 	 	 	 	 	 	 	1581516075	9.49	17.58
12/02/2020 14:01:16	120220	12022020	140116	89.63	12.418767	-57.165113	89.55	0.560	-1.720	1.010	89.53	-3.00	1.40	 	 	 	 	 	 	 	 	 	 	 	 	 	 	 	 	 	 	1581516076	9.46	17.52
12/02/2020 14:01:17	120220	12022020	140117	89.28	12.418767	-57.165070	89.33	0.790	-1.370	1.280	89.26	-2.80	1.70	 	 	 	 	 	 	 	 	 	 	 	 	 	 	 	 	 	 	1581516077	9.26	17.15
12/02/2020 14:01:18	120220	12022020	140118	89.47	12.418768	-57.165030	89.66	0.440	-0.080	1.270	89.57	-1.70	1.70	 	 	 	 	 	 	 	 	 	 	 	 	 	 	 	 	 	 	1581516078	8.55	15.83
12/02/2020 14:01:19	120220	12022020	140119	90.06	12.418770	-57.164993	90.27	-0.460	1.260	1.130	90.19	-0.30	1.60	 	 	 	 	 	 	 	 	 	 	 	 	 	 	 	 	 	 	1581516079	7.53	13.95
12/02/2020 14:01:20	120220	12022020	140120	90.59	12.418770	-57.164958	90.73	-1.150	1.290	1.140	90.65	0.00	1.50	 	 	 	 	 	 	 	 	 	 	 	 	 	 	 	 	 	 	1581516080	7.70	14.26
12/02/2020 14:01:21	120220	12022020	140121	90.75	12.418768	-57.164915	90.80	-0.860	-0.070	1.440	90.74	-1.20	1.80	 	 	 	 	 	 	 	 	 	 	 	 	 	 	 	 	 	 	1581516081	9.18	17.00
12/02/2020 14:01:22	120220	12022020	140122	90.57	12.418763	-57.164865	90.58	0.050	-1.440	1.890	90.51	-2.70	2.20	 	 	 	 	 	 	 	 	 	 	 	 	 	 	 	 	 	 	1581516082	10.46	19.37
12/02/2020 14:01:23	120220	12022020	140123	90.26	12.418762	-57.164818	90.33	0.650	-1.660	2.100	90.23	-2.70	2.40	 	 	 	 	 	 	 	 	 	 	 	 	 	 	 	 	 	 	1581516083	10.04	18.59
12/02/2020 14:01:24	120220	12022020	140124	90.20	12.418762	-57.164777	90.33	0.570	-0.750	1.600	90.23	-2.30	2.10	 	 	 	 	 	 	 	 	 	 	 	 	 	 	 	 	 	 	1581516084	8.75	16.21
12/02/2020 14:01:25	120220	12022020	140125	90.42	12.418767	-57.164740	90.57	0.180	0.370	0.740	90.49	-0.70	0.70	 	 	 	 	 	 	 	 	 	 	 	 	 	 	 	 	 	 	1581516085	7.90	14.63
12/02/2020 14:01:26	120220	12022020	140126	90.91	12.418773	-57.164702	91.08	-0.120	0.810	-0.160	91.01	-0.60	0.40	 	 	 	 	 	 	 	 	 	 	 	 	 	 	 	 	 	 	1581516086	8.13	15.06
12/02/2020 14:01:27	120220	12022020	140127	91.33	12.418778	-57.164660	91.39	-0.220	0.550	-0.560	91.36	-0.80	-0.10	 	 	 	 	 	 	 	 	 	 	 	 	 	 	 	 	 	 	1581516087	8.76	16.22
12/02/2020 14:01:28	120220	12022020	140128	91.25	12.418778	-57.164617	91.21	-0.130	-0.080	-0.340	91.17	-1.40	0.00	 	 	 	 	 	 	 	 	 	 	 	 	 	 	 	 	 	 	1581516088	9.15	16.95
12/02/2020 14:01:29	120220	12022020	140129	90.81	12.418777	-57.164572	90.76	0.090	-0.750	0.330	90.72	-2.00	0.60	 	 	 	 	 	 	 	 	 	 	 	 	 	 	 	 	 	 	1581516089	9.42	17.45
12/02/2020 14:01:30	120220	12022020	140130	90.44	12.418773	-57.164528	90.47	0.210	-1.060	1.000	90.40	-2.40	1.30	 	 	 	 	 	 	 	 	 	 	 	 	 	 	 	 	 	 	1581516090	9.32	17.26
12/02/2020 14:01:31	120220	12022020	140131	90.31	12.418772	-57.164485	90.38	0.200	-1.200	1.390	90.30	-2.60	1.80	 	 	 	 	 	 	 	 	 	 	 	 	 	 	 	 	 	 	1581516091	9.11	16.87
12/02/2020 14:01:32	120220	12022020	140132	90.30	12.418770	-57.164442	90.37	0.180	-1.090	1.730	90.30	-2.50	2.10	 	 	 	 	 	 	 	 	 	 	 	 	 	 	 	 	 	 	1581516092	9.25	17.13
12/02/2020 14:01:33	120220	12022020	140133	90.29	12.418768	-57.164398	90.39	0.100	-0.210	2.220	90.30	-1.80	2.60	 	 	 	 	 	 	 	 	 	 	 	 	 	 	 	 	 	 	1581516093	9.05	16.76
12/02/2020 14:01:34	120220	12022020	140134	90.40	12.418765	-57.164360	90.55	-0.220	0.930	2.430	90.45	-0.60	2.80	 	 	 	 	 	 	 	 	 	 	 	 	 	 	 	 	 	 	1581516094	8.17	15.13
12/02/2020 14:01:35	120220	12022020	140135	90.63	12.418762	-57.164322	90.74	-0.580	1.160	2.240	90.65	-0.60	2.60	 	 	 	 	 	 	 	 	 	 	 	 	 	 	 	 	 	 	1581516095	8.05	14.91
12/02/2020 14:01:36	120220	12022020	140136	90.57	12.418762	-57.164280	90.59	-0.570	0.290	2.070	90.51	-0.90	2.50	 	 	 	 	 	 	 	 	 	 	 	 	 	 	 	 	 	 	1581516096	9.02	16.71
12/02/2020 14:01:37	120220	12022020	140137	90.31	12.418763	-57.164233	90.34	-0.110	-0.760	1.730	90.28	-2.50	1.90	 	 	 	 	 	 	 	 	 	 	 	 	 	 	 	 	 	 	1581516097	9.91	18.35
12/02/2020 14:01:38	120220	12022020	140138	90.18	12.418767	-57.164187	90.23	0.480	-1.370	1.240	90.18	-2.70	1.70	 	 	 	 	 	 	 	 	 	 	 	 	 	 	 	 	 	 	1581516098	9.86	18.26
12/02/2020 14:01:39	120220	12022020	140139	90.15	12.418772	-57.164142	90.20	0.870	-1.370	0.740	90.16	-2.80	1.30	 	 	 	 	 	 	 	 	 	 	 	 	 	 	 	 	 	 	1581516099	9.49	17.58
12/02/2020 14:01:40	120220	12022020	140140	90.25	12.418777	-57.164098	90.32	0.790	-0.710	0.240	90.30	-2.20	0.70	 	 	 	 	 	 	 	 	 	 	 	 	 	 	 	 	 	 	1581516100	9.04	16.74
12/02/2020 14:01:41	120220	12022020	140141	90.57	12.418780	-57.164060	90.67	0.300	0.210	0.110	90.64	-1.30	0.50	 	 	 	 	 	 	 	 	 	 	 	 	 	 	 	 	 	 	1581516101	8.45	15.65
12/02/2020 14:01:42	120220	12022020	140142	90.92	12.418780	-57.164020	91.00	-0.320	0.750	0.540	90.97	-0.70	0.90	 	 	 	 	 	 	 	 	 	 	 	 	 	 	 	 	 	 	1581516102	8.32	15.41
12/02/2020 14:01:43	120220	12022020	140143	90.98	12.418777	-57.163978	90.99	-0.780	0.660	1.210	90.95	-0.70	1.50	 	 	 	 	 	 	 	 	 	 	 	 	 	 	 	 	 	 	1581516103	8.73	16.17
12/02/2020 14:01:44	120220	12022020	140144	90.75	12.418772	-57.163935	90.76	-0.870	0.110	1.870	90.70	-1.20	2.20	 	 	 	 	 	 	 	 	 	 	 	 	 	 	 	 	 	 	1581516104	9.25	17.13
12/02/2020 14:01:45	120220	12022020	140145	90.52	12.418767	-57.163890	90.56	-0.540	-0.710	2.460	90.48	-1.90	2.80	 	 	 	 	 	 	 	 	 	 	 	 	 	 	 	 	 	 	1581516105	9.55	17.69
12/02/2020 14:01:46	120220	12022020	140146	90.40	12.418765	-57.163843	90.50	0.160	-1.610	2.560	90.41	-2.90	3.00	 	 	 	 	 	 	 	 	 	 	 	 	 	 	 	 	 	 	1581516106	9.91	18.35
12/02/2020 14:01:47	120220	12022020	140147	90.55	12.418765	-57.163795	90.73	0.740	-1.770	2.020	90.62	-3.20	2.50	 	 	 	 	 	 	 	 	 	 	 	 	 	 	 	 	 	 	1581516107	10.11	18.72
12/02/2020 14:01:48	120220	12022020	140148	90.86	12.418768	-57.163752	91.01	0.700	-0.640	1.540	90.90	-2.20	2.00	 	 	 	 	 	 	 	 	 	 	 	 	 	 	 	 	 	 	1581516108	9.24	17.11
12/02/2020 14:01:49	120220	12022020	140149	90.93	12.418768	-57.163715	90.99	0.080	0.970	1.400	90.90	-0.60	1.80	 	 	 	 	 	 	 	 	 	 	 	 	 	 	 	 	 	 	1581516109	7.89	14.61
12/02/2020 14:01:50	120220	12022020	140150	90.71	12.418770	-57.163678	90.75	-0.520	1.650	1.260	90.67	0.30	1.70	 	 	 	 	 	 	 	 	 	 	 	 	 	 	 	 	 	 	1581516110	7.64	14.15
12/02/2020 14:01:51	120220	12022020	140151	90.56	12.418772	-57.163637	90.64	-0.500	0.680	0.680	90.56	-0.50	1.20	 	 	 	 	 	 	 	 	 	 	 	 	 	 	 	 	 	 	1581516111	8.88	16.45
12/02/2020 14:01:52	120220	12022020	140152	90.66	12.418778	-57.163588	90.78	0.070	-0.970	-0.070	90.71	-2.10	0.50	 	 	 	 	 	 	 	 	 	 	 	 	 	 	 	 	 	 	1581516112	10.48	19.41
12/02/2020 14:01:53	120220	12022020	140153	90.95	12.418783	-57.163538	91.07	0.550	-1.540	-0.410	91.01	-2.90	0.10	 	 	 	 	 	 	 	 	 	 	 	 	 	 	 	 	 	 	1581516113	10.60	19.63
12/02/2020 14:01:54	120220	12022020	140154	91.21	12.418783	-57.163495	91.30	0.330	-0.680	-0.150	91.23	-2.20	0.20	 	 	 	 	 	 	 	 	 	 	 	 	 	 	 	 	 	 	1581516114	9.00	16.67
12/02/2020 14:01:55	120220	12022020	140155	91.17	12.418780	-57.163458	91.16	-0.340	0.280	0.700	91.10	-1.20	1.00	 	 	 	 	 	 	 	 	 	 	 	 	 	 	 	 	 	 	1581516115	7.72	14.30
12/02/2020 14:01:56	120220	12022020	140156	90.65	12.418773	-57.163420	90.57	-0.580	-0.010	1.850	90.51	-1.20	2.10	 	 	 	 	 	 	 	 	 	 	 	 	 	 	 	 	 	 	1581516116	8.30	15.37
12/02/2020 14:01:57	120220	12022020	140157	90.00	12.418768	-57.163373	90.00	0.080	-1.210	2.550	89.91	-2.40	2.90	 	 	 	 	 	 	 	 	 	 	 	 	 	 	 	 	 	 	1581516117	10.03	18.58
12/02/2020 14:01:58	120220	12022020	140158	89.82	12.418768	-57.163323	89.99	0.760	-1.380	2.510	89.87	-2.80	3.00	 	 	 	 	 	 	 	 	 	 	 	 	 	 	 	 	 	 	1581516118	10.62	19.67
12/02/2020 14:01:59	120220	12022020	140159	90.24	12.418772	-57.163280	90.47	0.470	0.010	2.000	90.35	-0.50	2.20	 	 	 	 	 	 	 	 	 	 	 	 	 	 	 	 	 	 	1581516119	9.02	16.71
12/02/2020 14:02:00	120220	12022020	140200	90.76	12.418773	-57.163245	90.94	-0.640	1.370	1.690	90.84	-0.10	2.10	 	 	 	 	 	 	 	 	 	 	 	 	 	 	 	 	 	 	1581516120	7.41	13.72
12/02/2020 14:02:01	120220	12022020	140201	90.99	12.418772	-57.163208	91.09	-1.400	1.050	1.770	91.01	-0.20	2.20	 	 	 	 	 	 	 	 	 	 	 	 	 	 	 	 	 	 	1581516121	7.89	14.61
12/02/2020 14:02:02	120220	12022020	140202	91.03	12.418767	-57.163162	91.11	-0.960	-0.480	1.650	91.03	-1.60	2.10	1017.20	26.60	26.60	20.30	20.40	731.0	68.0	68.0	414.0	28.6	349.00	15.10	74.00	10.60	54896	12417.0	27.5	27.5	1581516122	9.80	18.15
12/02/2020 14:02:03	120220	12022020	140203	90.95	12.418763	-57.163112	90.97	0.220	-1.430	1.370	90.90	-2.70	1.80	 	 	 	 	 	 	 	 	 	 	 	 	 	 	 	 	 	 	1581516123	10.52	19.48
12/02/2020 14:02:04	120220	12022020	140204	90.57	12.418765	-57.163067	90.54	1.120	-1.160	1.140	90.48	-2.60	1.60	 	 	 	 	 	 	 	 	 	 	 	 	 	 	 	 	 	 	1581516124	9.58	17.74
12/02/2020 14:02:05	120220	12022020	140205	90.20	12.418768	-57.163027	90.24	1.140	-0.360	0.730	90.18	-1.80	1.30	 	 	 	 	 	 	 	 	 	 	 	 	 	 	 	 	 	 	1581516125	8.56	15.85
12/02/2020 14:02:06	120220	12022020	140206	90.24	12.418775	-57.162987	90.37	0.570	0.050	0.150	90.30	-1.30	0.70	 	 	 	 	 	 	 	 	 	 	 	 	 	 	 	 	 	 	1581516126	8.47	15.69
12/02/2020 14:02:07	120220	12022020	140207	90.59	12.418782	-57.162945	90.73	-0.030	0.100	-0.160	90.67	-1.30	0.30	 	 	 	 	 	 	 	 	 	 	 	 	 	 	 	 	 	 	1581516127	9.00	16.67
12/02/2020 14:02:08	120220	12022020	140208	90.93	12.418783	-57.162902	91.00	-0.390	0.200	0.030	90.95	-1.20	0.40	 	 	 	 	 	 	 	 	 	 	 	 	 	 	 	 	 	 	1581516128	9.06	16.78
12/02/2020 14:02:09	120220	12022020	140209	90.83	12.418780	-57.162860	90.80	-0.470	-0.020	1.000	90.74	-1.30	1.20	 	 	 	 	 	 	 	 	 	 	 	 	 	 	 	 	 	 	1581516129	8.93	16.54
12/02/2020 14:02:10	120220	12022020	140210	90.40	12.418773	-57.162815	90.44	-0.400	-0.570	2.400	90.34	-1.90	2.60	 	 	 	 	 	 	 	 	 	 	 	 	 	 	 	 	 	 	1581516130	9.57	17.72
12/02/2020 14:02:11	120220	12022020	140211	90.25	12.418763	-57.162770	90.41	-0.390	-0.820	3.330	90.27	-2.20	3.70	 	 	 	 	 	 	 	 	 	 	 	 	 	 	 	 	 	 	1581516131	9.76	18.08
12/02/2020 14:02:12	120220	12022020	140212	90.40	12.418758	-57.162727	90.58	-0.330	-0.730	3.590	90.43	-2.10	4.00	 	 	 	 	 	 	 	 	 	 	 	 	 	 	 	 	 	 	1581516132	9.24	17.11
12/02/2020 14:02:13	120220	12022020	140213	90.45	12.418753	-57.162683	90.55	0.030	-0.700	3.580	90.41	-2.10	4.00	 	 	 	 	 	 	 	 	 	 	 	 	 	 	 	 	 	 	1581516133	9.11	16.87
12/02/2020 14:02:14	120220	12022020	140214	90.23	12.418753	-57.162638	90.32	0.490	-0.630	3.140	90.19	-2.00	3.70	 	 	 	 	 	 	 	 	 	 	 	 	 	 	 	 	 	 	1581516134	9.47	17.54
12/02/2020 14:02:15	120220	12022020	140215	90.18	12.418758	-57.162595	90.33	0.570	-0.070	2.090	90.20	-1.50	2.70	 	 	 	 	 	 	 	 	 	 	 	 	 	 	 	 	 	 	1581516135	9.37	17.35
12/02/2020 14:02:16	120220	12022020	140216	90.48	12.418765	-57.162555	90.67	0.200	0.860	0.780	90.57	-0.60	1.40	 	 	 	 	 	 	 	 	 	 	 	 	 	 	 	 	 	 	1581516136	8.69	16.09
12/02/2020 14:02:17	120220	12022020	140217	90.96	12.418773	-57.162517	91.10	-0.220	1.130	-0.490	91.04	-0.20	0.10	 	 	 	 	 	 	 	 	 	 	 	 	 	 	 	 	 	 	1581516137	8.28	15.33
12/02/2020 14:02:18	120220	12022020	140218	91.25	12.418780	-57.162473	91.30	-0.190	0.000	-1.280	91.26	-1.10	-0.80	 	 	 	 	 	 	 	 	 	 	 	 	 	 	 	 	 	 	1581516138	9.19	17.02
12/02/2020 14:02:19	120220	12022020	140219	91.13	12.418783	-57.162423	91.08	0.220	-1.470	-1.080	91.06	-2.60	-0.70	 	 	 	 	 	 	 	 	 	 	 	 	 	 	 	 	 	 	1581516139	10.45	19.35
12/02/2020 14:02:20	120220	12022020	140220	90.76	12.418782	-57.162375	90.74	0.460	-1.640	-0.340	90.70	-3.10	-0.00	 	 	 	 	 	 	 	 	 	 	 	 	 	 	 	 	 	 	1581516140	10.33	19.13
12/02/2020 14:02:21	120220	12022020	140221	90.63	12.418778	-57.162333	90.71	0.080	-0.450	0.540	90.64	-2.00	0.80	 	 	 	 	 	 	 	 	 	 	 	 	 	 	 	 	 	 	1581516141	8.72	16.15
12/02/2020 14:02:22	120220	12022020	140222	90.80	12.418773	-57.162298	90.92	-0.590	0.550	1.350	90.84	-0.90	1.70	 	 	 	 	 	 	 	 	 	 	 	 	 	 	 	 	 	 	1581516142	7.70	14.26
12/02/2020 14:02:23	120220	12022020	140223	90.91	12.418768	-57.162258	91.00	-0.690	0.110	2.070	90.91	-1.10	2.40	 	 	 	 	 	 	 	 	 	 	 	 	 	 	 	 	 	 	1581516143	8.49	15.72
12/02/2020 14:02:24	120220	12022020	140224	90.88	12.418762	-57.162210	90.97	0.020	-1.210	2.690	90.86	-2.40	3.00	 	 	 	 	 	 	 	 	 	 	 	 	 	 	 	 	 	 	1581516144	10.35	19.17
12/02/2020 14:02:25	120220	12022020	140225	90.71	12.418757	-57.162158	90.79	0.510	-1.220	3.080	90.68	-2.70	3.50	 	 	 	 	 	 	 	 	 	 	 	 	 	 	 	 	 	 	1581516145	10.78	19.96
12/02/2020 14:02:26	120220	12022020	140226	90.56	12.418753	-57.162117	90.64	0.120	0.240	2.800	90.53	-1.40	3.30	 	 	 	 	 	 	 	 	 	 	 	 	 	 	 	 	 	 	1581516146	8.81	16.32
12/02/2020 14:02:27	120220	12022020	140227	90.42	12.418755	-57.162083	90.48	-0.660	1.570	1.950	90.40	0.20	1.80	 	 	 	 	 	 	 	 	 	 	 	 	 	 	 	 	 	 	1581516147	7.32	13.56
12/02/2020 14:02:28	120220	12022020	140228	90.30	12.418760	-57.162045	90.35	-0.780	1.120	0.820	90.29	-0.00	1.40	 	 	 	 	 	 	 	 	 	 	 	 	 	 	 	 	 	 	1581516148	8.01	14.83
12/02/2020 14:02:29	120220	12022020	140229	90.31	12.418768	-57.161998	90.40	0.030	-0.760	-0.380	90.35	-1.80	0.20	 	 	 	 	 	 	 	 	 	 	 	 	 	 	 	 	 	 	1581516149	10.09	18.69
12/02/2020 14:02:30	120220	12022020	140230	90.55	12.418775	-57.161947	90.64	1.010	-2.040	-1.250	90.61	-3.30	-0.70	 	 	 	 	 	 	 	 	 	 	 	 	 	 	 	 	 	 	1581516150	11.15	20.65
12/02/2020 14:02:31	120220	12022020	140231	90.77	12.418780	-57.161900	90.79	1.170	-1.380	-1.350	90.79	-2.90	-1.00	 	 	 	 	 	 	 	 	 	 	 	 	 	 	 	 	 	 	1581516151	9.82	18.19
12/02/2020 14:02:32	120220	12022020	140232	90.72	12.418780	-57.161863	90.68	0.360	0.330	-0.480	90.68	-1.30	-0.20	 	 	 	 	 	 	 	 	 	 	 	 	 	 	 	 	 	 	1581516152	7.74	14.33
12/02/2020 14:02:33	120220	12022020	140233	90.46	12.418775	-57.161830	90.43	-0.740	1.330	0.970	90.41	-0.10	1.20	 	 	 	 	 	 	 	 	 	 	 	 	 	 	 	 	 	 	1581516153	7.21	13.35
12/02/2020 14:02:34	120220	12022020	140234	90.26	12.418767	-57.161790	90.31	-1.270	0.840	2.210	90.24	-0.30	2.50	 	 	 	 	 	 	 	 	 	 	 	 	 	 	 	 	 	 	1581516154	8.39	15.54
12/02/2020 14:02:35	120220	12022020	140235	90.14	12.418758	-57.161745	90.21	-0.810	-0.740	3.000	90.11	-1.80	3.30	 	 	 	 	 	 	 	 	 	 	 	 	 	 	 	 	 	 	1581516155	9.83	18.21
12/02/2020 14:02:36	120220	12022020	140236	89.92	12.418753	-57.161695	89.98	0.310	-2.150	3.520	89.86	-3.40	3.90	 	 	 	 	 	 	 	 	 	 	 	 	 	 	 	 	 	 	1581516156	10.73	19.87
12/02/2020 14:02:37	120220	12022020	140237	89.71	12.418752	-57.161645	89.83	1.040	-1.920	3.650	89.71	-3.40	4.10	 	 	 	 	 	 	 	 	 	 	 	 	 	 	 	 	 	 	1581516157	10.26	19.00
12/02/2020 14:02:38	120220	12022020	140238	89.85	12.418753	-57.161607	90.03	0.730	-0.140	3.060	89.91	-1.80	3.60	 	 	 	 	 	 	 	 	 	 	 	 	 	 	 	 	 	 	1581516158	8.39	15.54
12/02/2020 14:02:39	120220	12022020	140239	90.15	12.418758	-57.161572	90.28	-0.180	1.380	2.070	90.19	-0.10	2.60	 	 	 	 	 	 	 	 	 	 	 	 	 	 	 	 	 	 	1581516159	7.19	13.32
12/02/2020 14:02:40	120220	12022020	140240	90.24	12.418762	-57.161535	90.27	-0.690	1.230	1.220	90.23	0.00	1.80	 	 	 	 	 	 	 	 	 	 	 	 	 	 	 	 	 	 	1581516160	7.98	14.78
12/02/2020 14:02:41	120220	12022020	140241	90.18	12.418767	-57.161488	90.23	-0.460	0.070	0.330	90.20	-1.10	0.90	 	 	 	 	 	 	 	 	 	 	 	 	 	 	 	 	 	 	1581516161	9.71	17.98
12/02/2020 14:02:42	120220	12022020	140242	90.34	12.418770	-57.161442	90.40	0.040	-0.710	-0.480	90.38	-2.00	0.10	 	 	 	 	 	 	 	 	 	 	 	 	 	 	 	 	 	 	1581516162	10.13	18.76
12/02/2020 14:02:43	120220	12022020	140243	90.57	12.418775	-57.161397	90.60	0.420	-0.960	-0.800	90.60	-2.30	-0.30	 	 	 	 	 	 	 	 	 	 	 	 	 	 	 	 	 	 	1581516163	9.38	17.37
12/02/2020 14:02:44	120220	12022020	140244	90.65	12.418777	-57.161355	90.66	0.560	-1.010	-0.780	90.66	-2.40	-0.40	 	 	 	 	 	 	 	 	 	 	 	 	 	 	 	 	 	 	1581516164	9.10	16.85
12/02/2020 14:02:45	120220	12022020	140245	90.65	12.418778	-57.161312	90.66	0.350	-0.550	-0.230	90.65	-2.00	0.10	 	 	 	 	 	 	 	 	 	 	 	 	 	 	 	 	 	 	1581516165	8.95	16.58
12/02/2020 14:02:46	120220	12022020	140246	90.65	12.418773	-57.161272	90.70	-0.120	0.230	0.870	90.66	-1.20	1.10	 	 	 	 	 	 	 	 	 	 	 	 	 	 	 	 	 	 	1581516166	8.38	15.52
12/02/2020 14:02:47	120220	12022020	140247	90.69	12.418767	-57.161233	90.77	-0.470	0.620	1.900	90.69	-0.70	2.20	 	 	 	 	 	 	 	 	 	 	 	 	 	 	 	 	 	 	1581516167	8.30	15.37
12/02/2020 14:02:48	120220	12022020	140248	90.70	12.418762	-57.161192	90.79	-0.460	0.250	2.550	90.70	-1.00	2.90	 	 	 	 	 	 	 	 	 	 	 	 	 	 	 	 	 	 	1581516168	8.83	16.35
12/02/2020 14:02:49	120220	12022020	140249	90.70	12.418757	-57.161147	90.77	-0.140	-0.690	2.890	90.68	-1.90	3.30	 	 	 	 	 	 	 	 	 	 	 	 	 	 	 	 	 	 	1581516169	9.56	17.71
12/02/2020 14:02:50	120220	12022020	140250	90.60	12.418757	-57.161100	90.66	0.370	-1.500	2.930	90.57	-2.80	3.40	 	 	 	 	 	 	 	 	 	 	 	 	 	 	 	 	 	 	1581516170	10.00	18.52
12/02/2020 14:02:51	120220	12022020	140251	90.52	12.418757	-57.161053	90.62	0.770	-1.450	2.730	90.53	-2.90	3.20	 	 	 	 	 	 	 	 	 	 	 	 	 	 	 	 	 	 	1581516171	9.82	18.19
12/02/2020 14:02:52	120220	12022020	140252	90.57	12.418758	-57.161012	90.66	0.640	-0.430	2.380	90.58	-2.00	2.90	 	 	 	 	 	 	 	 	 	 	 	 	 	 	 	 	 	 	1581516172	9.00	16.67
12/02/2020 14:02:53	120220	12022020	140253	90.51	12.418758	-57.160973	90.54	-0.050	0.810	1.800	90.47	-0.70	2.30	 	 	 	 	 	 	 	 	 	 	 	 	 	 	 	 	 	 	1581516173	8.10	15.00
12/02/2020 14:02:54	120220	12022020	140254	90.24	12.418762	-57.160935	90.24	-0.750	1.320	1.040	90.19	-0.00	1.60	 	 	 	 	 	 	 	 	 	 	 	 	 	 	 	 	 	 	1581516174	8.06	14.93
12/02/2020 14:02:55	120220	12022020	140255	90.02	12.418767	-57.160893	90.07	-0.890	0.790	0.210	90.01	-0.40	0.80	 	 	 	 	 	 	 	 	 	 	 	 	 	 	 	 	 	 	1581516175	8.83	16.35
12/02/2020 14:02:56	120220	12022020	140256	90.16	12.418772	-57.160847	90.28	-0.420	-0.390	-0.540	90.23	-1.50	0.00	 	 	 	 	 	 	 	 	 	 	 	 	 	 	 	 	 	 	1581516176	9.77	18.09
12/02/2020 14:02:57	120220	12022020	140257	90.44	12.418775	-57.160800	90.49	0.150	-1.360	-0.920	90.46	-2.50	-0.40	 	 	 	 	 	 	 	 	 	 	 	 	 	 	 	 	 	 	1581516177	10.11	18.72
12/02/2020 14:02:58	120220	12022020	140258	90.31	12.418775	-57.160753	90.25	0.490	-1.600	-0.490	90.22	-2.90	-0.20	 	 	 	 	 	 	 	 	 	 	 	 	 	 	 	 	 	 	1581516178	9.69	17.95
12/02/2020 14:02:59	120220	12022020	140259	89.81	12.418770	-57.160710	89.76	0.600	-1.110	0.650	89.71	-2.50	0.90	 	 	 	 	 	 	 	 	 	 	 	 	 	 	 	 	 	 	1581516179	9.13	16.91
12/02/2020 14:03:00	120220	12022020	140300	89.50	12.418765	-57.160670	89.56	0.500	-0.230	1.550	89.49	-1.70	1.90	 	 	 	 	 	 	 	 	 	 	 	 	 	 	 	 	 	 	1581516180	8.71	16.13
12/02/2020 14:03:01	120220	12022020	140301	89.54	12.418763	-57.160630	89.66	0.190	0.600	1.920	89.58	-0.80	2.30	 	 	 	 	 	 	 	 	 	 	 	 	 	 	 	 	 	 	1581516181	8.46	15.67
12/02/2020 14:03:02	120220	12022020	140302	89.70	12.418765	-57.160590	89.81	-0.200	0.800	2.110	89.72	-0.50	2.50	1017.20	26.50	26.50	20.40	20.40	628.0	69.0	69.0	419.0	28.5	348.00	15.40	73.00	10.80	50181	9676.0	27.5	27.5	1581516182	8.55	15.83
12/02/2020 14:03:03	120220	12022020	140303	89.79	12.418765	-57.160547	89.91	-0.420	0.170	2.410	89.80	-1.00	2.80	 	 	 	 	 	 	 	 	 	 	 	 	 	 	 	 	 	 	1581516183	9.22	17.08
12/02/2020 14:03:04	120220	12022020	140304	89.86	12.418762	-57.160500	89.99	-0.380	-0.550	2.630	89.87	-1.80	3.00	 	 	 	 	 	 	 	 	 	 	 	 	 	 	 	 	 	 	1581516184	9.84	18.22
12/02/2020 14:03:05	120220	12022020	140305	89.91	12.418762	-57.160453	90.02	-0.180	-0.740	2.590	89.92	-2.00	3.00	 	 	 	 	 	 	 	 	 	 	 	 	 	 	 	 	 	 	1581516185	9.61	17.80
12/02/2020 14:03:06	120220	12022020	140306	89.85	12.418762	-57.160412	89.91	0.070	-0.740	2.490	89.81	-2.00	2.90	 	 	 	 	 	 	 	 	 	 	 	 	 	 	 	 	 	 	1581516186	9.10	16.85
12/02/2020 14:03:07	120220	12022020	140307	89.63	12.418762	-57.160367	89.66	0.270	-0.830	2.300	89.58	-2.10	2.80	 	 	 	 	 	 	 	 	 	 	 	 	 	 	 	 	 	 	1581516187	9.28	17.19
12/02/2020 14:03:08	120220	12022020	140308	89.50	12.418765	-57.160322	89.60	0.280	-0.600	1.720	89.51	-2.00	2.30	 	 	 	 	 	 	 	 	 	 	 	 	 	 	 	 	 	 	1581516188	9.46	17.52
12/02/2020 14:03:09	120220	12022020	140309	89.72	12.418770	-57.160280	89.88	0.120	0.090	0.900	89.80	-1.30	1.50	 	 	 	 	 	 	 	 	 	 	 	 	 	 	 	 	 	 	1581516189	9.03	16.72
12/02/2020 14:03:10	120220	12022020	140310	90.13	12.418775	-57.160240	90.24	0.010	0.450	0.140	90.19	-0.80	0.70	 	 	 	 	 	 	 	 	 	 	 	 	 	 	 	 	 	 	1581516190	8.60	15.93
12/02/2020 14:03:11	120220	12022020	140311	90.31	12.418780	-57.160195	90.31	0.190	-0.210	-0.190	90.30	-1.40	0.30	 	 	 	 	 	 	 	 	 	 	 	 	 	 	 	 	 	 	1581516191	9.33	17.28
12/02/2020 14:03:12	120220	12022020	140312	90.17	12.418782	-57.160147	90.18	0.250	-0.760	0.160	90.15	-2.00	0.50	 	 	 	 	 	 	 	 	 	 	 	 	 	 	 	 	 	 	1581516192	10.39	19.24
12/02/2020 14:03:13	120220	12022020	140313	90.23	12.418780	-57.160102	90.33	-0.300	-0.040	0.820	90.28	-1.50	1.20	 	 	 	 	 	 	 	 	 	 	 	 	 	 	 	 	 	 	1581516193	9.47	17.54
12/02/2020 14:03:14	120220	12022020	140314	90.65	12.418777	-57.160065	90.86	-1.120	1.160	1.380	90.77	-0.30	1.80	 	 	 	 	 	 	 	 	 	 	 	 	 	 	 	 	 	 	1581516194	7.81	14.46
12/02/2020 14:03:15	120220	12022020	140315	91.19	12.418772	-57.160030	91.35	-1.280	1.020	1.730	91.26	-1.10	2.30	 	 	 	 	 	 	 	 	 	 	 	 	 	 	 	 	 	 	1581516195	7.60	14.08
12/02/2020 14:03:16	120220	12022020	140316	91.41	12.418768	-57.159985	91.48	-0.240	-1.060	1.880	91.40	-2.00	2.30	 	 	 	 	 	 	 	 	 	 	 	 	 	 	 	 	 	 	1581516196	9.49	17.58
12/02/2020 14:03:17	120220	12022020	140317	91.21	12.418765	-57.159930	91.23	1.330	-3.170	2.190	91.14	-4.50	2.80	 	 	 	 	 	 	 	 	 	 	 	 	 	 	 	 	 	 	1581516197	11.53	21.35
12/02/2020 14:03:18	120220	12022020	140318	90.82	12.418765	-57.159878	90.89	1.990	-2.630	2.340	90.78	-4.20	2.80	 	 	 	 	 	 	 	 	 	 	 	 	 	 	 	 	 	 	1581516198	11.06	20.48
12/02/2020 14:03:19	120220	12022020	140319	90.77	12.418767	-57.159840	90.93	1.080	0.310	1.930	90.81	-1.50	2.50	 	 	 	 	 	 	 	 	 	 	 	 	 	 	 	 	 	 	1581516199	8.01	14.83
12/02/2020 14:03:20	120220	12022020	140320	91.20	12.418772	-57.159812	91.44	-0.640	2.760	1.070	91.32	1.20	1.60	 	 	 	 	 	 	 	 	 	 	 	 	 	 	 	 	 	 	1581516200	6.10	11.30
12/02/2020 14:03:21	120220	12022020	140321	91.78	12.418775	-57.159778	91.96	-1.780	2.740	0.390	91.86	1.60	0.90	 	 	 	 	 	 	 	 	 	 	 	 	 	 	 	 	 	 	1581516201	7.08	13.11
12/02/2020 14:03:22	120220	12022020	140322	91.97	12.418775	-57.159733	92.02	-1.570	0.600	0.130	91.95	-0.30	0.60	 	 	 	 	 	 	 	 	 	 	 	 	 	 	 	 	 	 	1581516202	9.42	17.45
12/02/2020 14:03:23	120220	12022020	140323	91.70	12.418772	-57.159682	91.68	-0.390	-1.690	0.300	91.61	-2.70	0.70	 	 	 	 	 	 	 	 	 	 	 	 	 	 	 	 	 	 	1581516203	11.03	20.43
12/02/2020 14:03:24	120220	12022020	140324	91.28	12.418768	-57.159632	91.31	0.650	-2.550	0.680	91.22	-3.80	1.10	 	 	 	 	 	 	 	 	 	 	 	 	 	 	 	 	 	 	1581516204	10.58	19.59
12/02/2020 14:03:25	120220	12022020	140325	91.08	12.418765	-57.159588	91.16	0.930	-1.990	0.800	91.07	-3.40	1.30	 	 	 	 	 	 	 	 	 	 	 	 	 	 	 	 	 	 	1581516205	9.11	16.87
12/02/2020 14:03:26	120220	12022020	140326	91.03	12.418765	-57.159550	91.12	0.650	-0.790	0.960	91.02	-2.20	1.40	 	 	 	 	 	 	 	 	 	 	 	 	 	 	 	 	 	 	1581516206	8.11	15.02
12/02/2020 14:03:27	120220	12022020	140327	90.92	12.418763	-57.159512	90.98	0.280	0.290	1.410	90.88	-1.10	1.80	 	 	 	 	 	 	 	 	 	 	 	 	 	 	 	 	 	 	1581516207	8.03	14.87
12/02/2020 14:03:28	120220	12022020	140328	90.76	12.418762	-57.159473	90.86	-0.140	1.140	1.670	90.75	-0.20	2.10	 	 	 	 	 	 	 	 	 	 	 	 	 	 	 	 	 	 	1581516208	8.36	15.48
12/02/2020 14:03:29	120220	12022020	140329	90.76	12.418760	-57.159433	90.90	-0.630	1.500	1.570	90.79	0.20	2.00	 	 	 	 	 	 	 	 	 	 	 	 	 	 	 	 	 	 	1581516209	8.31	15.39
12/02/2020 14:03:30	120220	12022020	140330	90.86	12.418758	-57.159393	91.00	-0.870	0.930	1.550	90.88	-0.20	2.00	 	 	 	 	 	 	 	 	 	 	 	 	 	 	 	 	 	 	1581516210	8.63	15.98
12/02/2020 14:03:31	120220	12022020	140331	90.98	12.418757	-57.159348	91.12	-0.550	-0.450	1.520	91.01	-1.50	2.00	 	 	 	 	 	 	 	 	 	 	 	 	 	 	 	 	 	 	1581516211	9.40	17.41
12/02/2020 14:03:32	120220	12022020	140332	90.98	12.418757	-57.159300	91.03	0.350	-1.920	1.550	90.92	-3.00	2.00	 	 	 	 	 	 	 	 	 	 	 	 	 	 	 	 	 	 	1581516212	10.11	18.72
12/02/2020 14:03:33	120220	12022020	140333	90.57	12.418757	-57.159252	90.56	1.200	-2.310	1.930	90.46	-3.60	2.30	 	 	 	 	 	 	 	 	 	 	 	 	 	 	 	 	 	 	1581516213	10.16	18.82
12/02/2020 14:03:34	120220	12022020	140334	90.10	12.418757	-57.159210	90.17	1.340	-1.260	2.190	90.06	-2.70	2.60	 	 	 	 	 	 	 	 	 	 	 	 	 	 	 	 	 	 	1581516214	9.01	16.69
12/02/2020 14:03:35	120220	12022020	140335	90.09	12.418757	-57.159173	90.29	0.680	0.220	1.910	90.15	-1.30	2.40	 	 	 	 	 	 	 	 	 	 	 	 	 	 	 	 	 	 	1581516215	7.89	14.61
12/02/2020 14:03:36	120220	12022020	140336	90.43	12.418760	-57.159135	90.62	-0.290	0.970	1.420	90.49	-0.40	1.90	 	 	 	 	 	 	 	 	 	 	 	 	 	 	 	 	 	 	1581516216	7.95	14.72
12/02/2020 14:03:37	120220	12022020	140337	90.60	12.418762	-57.159093	90.72	-1.080	1.130	1.240	90.60	-0.20	1.70	 	 	 	 	 	 	 	 	 	 	 	 	 	 	 	 	 	 	1581516217	8.66	16.04
12/02/2020 14:03:38	120220	12022020	140338	90.52	12.418758	-57.159053	90.60	-1.390	0.970	1.410	90.48	-0.30	1.80	 	 	 	 	 	 	 	 	 	 	 	 	 	 	 	 	 	 	1581516218	8.79	16.28
12/02/2020 14:03:39	120220	12022020	140339	90.36	12.418755	-57.159010	90.43	-0.960	0.020	1.560	90.32	-2.00	2.00	 	 	 	 	 	 	 	 	 	 	 	 	 	 	 	 	 	 	1581516219	9.04	16.74
12/02/2020 14:03:40	120220	12022020	140340	90.16	12.418753	-57.158963	90.21	0.040	-1.420	1.520	90.12	-2.50	2.00	 	 	 	 	 	 	 	 	 	 	 	 	 	 	 	 	 	 	1581516220	9.87	18.28
12/02/2020 14:03:41	120220	12022020	140341	89.95	12.418753	-57.158915	90.03	1.110	-2.440	1.330	89.92	-3.70	1.80	 	 	 	 	 	 	 	 	 	 	 	 	 	 	 	 	 	 	1581516221	10.39	19.24
12/02/2020 14:03:42	120220	12022020	140342	90.02	12.418757	-57.158867	90.19	1.460	-1.730	1.100	90.07	-3.30	1.60	 	 	 	 	 	 	 	 	 	 	 	 	 	 	 	 	 	 	1581516222	9.94	18.41
12/02/2020 14:03:43	120220	12022020	140343	90.40	12.418760	-57.158830	90.61	0.780	0.440	1.170	90.48	-1.20	1.60	 	 	 	 	 	 	 	 	 	 	 	 	 	 	 	 	 	 	1581516223	7.92	14.67
12/02/2020 14:03:44	120220	12022020	140344	90.83	12.418758	-57.158798	91.01	-0.350	2.000	1.440	90.88	0.50	1.80	 	 	 	 	 	 	 	 	 	 	 	 	 	 	 	 	 	 	1581516224	6.68	12.37
12/02/2020 14:03:45	120220	12022020	140345	90.99	12.418757	-57.158762	91.10	-0.860	1.470	1.770	90.97	0.30	2.10	 	 	 	 	 	 	 	 	 	 	 	 	 	 	 	 	 	 	1581516225	7.81	14.46
12/02/2020 14:03:46	120220	12022020	140346	90.77	12.418753	-57.158715	90.82	-0.470	-0.320	2.180	90.70	-1.40	2.50	 	 	 	 	 	 	 	 	 	 	 	 	 	 	 	 	 	 	1581516226	9.94	18.41
12/02/2020 14:03:47	120220	12022020	140347	90.47	12.418752	-57.158665	90.55	0.080	-1.460	2.440	90.42	-2.70	2.90	 	 	 	 	 	 	 	 	 	 	 	 	 	 	 	 	 	 	1581516227	10.58	19.59
12/02/2020 14:03:48	120220	12022020	140348	90.36	12.418750	-57.158620	90.51	0.230	-1.290	2.440	90.37	-2.70	2.90	 	 	 	 	 	 	 	 	 	 	 	 	 	 	 	 	 	 	1581516228	9.38	17.37
12/02/2020 14:03:49	120220	12022020	140349	90.54	12.418752	-57.158582	90.72	0.130	-0.620	1.990	90.60	-2.00	2.50	 	 	 	 	 	 	 	 	 	 	 	 	 	 	 	 	 	 	1581516229	8.14	15.08
12/02/2020 14:03:50	120220	12022020	140350	90.76	12.418753	-57.158542	90.87	0.180	-0.530	1.410	90.78	-1.80	1.90	 	 	 	 	 	 	 	 	 	 	 	 	 	 	 	 	 	 	1581516230	8.35	15.46
12/02/2020 14:03:51	120220	12022020	140351	90.73	12.418755	-57.158498	90.79	0.300	-0.680	1.140	90.70	-2.00	1.60	 	 	 	 	 	 	 	 	 	 	 	 	 	 	 	 	 	 	1581516231	9.35	17.32
12/02/2020 14:03:52	120220	12022020	140352	90.57	12.418753	-57.158453	90.61	0.130	-0.190	1.120	90.53	-1.60	1.60	 	 	 	 	 	 	 	 	 	 	 	 	 	 	 	 	 	 	1581516232	9.34	17.30
12/02/2020 14:03:53	120220	12022020	140353	90.37	12.418752	-57.158415	90.39	-0.270	0.820	1.020	90.32	-0.70	1.50	 	 	 	 	 	 	 	 	 	 	 	 	 	 	 	 	 	 	1581516233	8.35	15.46
12/02/2020 14:03:54	120220	12022020	140354	90.11	12.418752	-57.158377	90.12	-0.530	1.250	0.760	90.07	-0.10	1.30	 	 	 	 	 	 	 	 	 	 	 	 	 	 	 	 	 	 	1581516234	7.86	14.56
12/02/2020 14:03:55	120220	12022020	140355	90.03	12.418755	-57.158337	90.13	-0.450	0.460	0.310	90.06	-1.60	0.50	 	 	 	 	 	 	 	 	 	 	 	 	 	 	 	 	 	 	1581516235	8.64	16.00
12/02/2020 14:03:56	120220	12022020	140356	90.26	12.418758	-57.158290	90.36	-0.030	-1.020	0.020	90.30	-2.10	0.50	 	 	 	 	 	 	 	 	 	 	 	 	 	 	 	 	 	 	1581516236	9.82	18.19
12/02/2020 14:03:57	120220	12022020	140357	90.22	12.418758	-57.158242	90.20	0.420	-1.860	0.390	90.15	-3.10	0.70	 	 	 	 	 	 	 	 	 	 	 	 	 	 	 	 	 	 	1581516237	10.19	18.87
12/02/2020 14:03:58	120220	12022020	140358	89.80	12.418757	-57.158198	89.77	0.620	-1.570	1.080	89.70	-3.00	1.40	 	 	 	 	 	 	 	 	 	 	 	 	 	 	 	 	 	 	1581516238	9.41	17.43
12/02/2020 14:03:59	120220	12022020	140359	89.44	12.418753	-57.158157	89.51	0.510	-0.620	1.810	89.41	-2.10	2.20	 	 	 	 	 	 	 	 	 	 	 	 	 	 	 	 	 	 	1581516239	8.56	15.85
12/02/2020 14:04:00	120220	12022020	140400	89.42	12.418750	-57.158118	89.57	0.200	0.340	2.150	89.45	-1.10	2.60	 	 	 	 	 	 	 	 	 	 	 	 	 	 	 	 	 	 	1581516240	8.21	15.20
12/02/2020 14:04:01	120220	12022020	140401	89.58	12.418750	-57.158078	89.71	-0.170	0.870	2.130	89.59	-0.50	2.60	 	 	 	 	 	 	 	 	 	 	 	 	 	 	 	 	 	 	1581516241	8.36	15.48
12/02/2020 14:04:02	120220	12022020	140402	89.57	12.418750	-57.158038	89.64	-0.520	0.890	2.110	89.54	-0.40	2.60	1017.20	26.50	26.60	20.60	20.70	643.0	70.0	70.0	424.0	28.5	347.00	15.10	72.00	10.70	50564	14477.0	27.5	27.5	1581516242	8.69	16.09
12/02/2020 14:04:03	120220	12022020	140403	89.38	12.418750	-57.157995	89.46	-0.700	0.360	2.160	89.35	-0.90	2.60	 	 	 	 	 	 	 	 	 	 	 	 	 	 	 	 	 	 	1581516243	9.00	16.67
12/02/2020 14:04:04	120220	12022020	140404	89.40	12.418750	-57.157950	89.57	-0.590	-0.530	2.020	89.45	-1.70	2.50	 	 	 	 	 	 	 	 	 	 	 	 	 	 	 	 	 	 	1581516244	9.44	17.48
12/02/2020 14:04:05	120220	12022020	140405	89.67	12.418750	-57.157905	89.82	-0.190	-1.240	1.590	89.71	-2.50	2.10	 	 	 	 	 	 	 	 	 	 	 	 	 	 	 	 	 	 	1581516245	9.64	17.85
12/02/2020 14:04:06	120220	12022020	140406	89.75	12.418752	-57.157860	89.78	0.380	-1.450	1.250	89.71	-2.80	1.70	 	 	 	 	 	 	 	 	 	 	 	 	 	 	 	 	 	 	1581516246	9.42	17.45
12/02/2020 14:04:07	120220	12022020	140407	89.41	12.418753	-57.157817	89.36	0.880	-1.180	1.240	89.32	-2.20	1.70	 	 	 	 	 	 	 	 	 	 	 	 	 	 	 	 	 	 	1581516247	9.16	16.96
12/02/2020 14:04:08	120220	12022020	140408	89.01	12.418757	-57.157775	89.03	0.990	-0.510	1.160	88.97	-1.90	1.60	 	 	 	 	 	 	 	 	 	 	 	 	 	 	 	 	 	 	1581516248	8.90	16.48
12/02/2020 14:04:09	120220	12022020	140409	88.97	12.418762	-57.157735	89.08	0.570	0.380	0.860	89.01	-1.10	1.40	 	 	 	 	 	 	 	 	 	 	 	 	 	 	 	 	 	 	1581516249	8.67	16.06
12/02/2020 14:04:10	120220	12022020	140410	89.30	12.418765	-57.157695	89.45	-0.360	1.210	0.520	89.40	-0.20	1.00	 	 	 	 	 	 	 	 	 	 	 	 	 	 	 	 	 	 	1581516250	8.39	15.54
12/02/2020 14:04:11	120220	12022020	140411	89.74	12.418767	-57.157657	89.85	-1.270	1.280	0.370	89.81	0.00	0.80	 	 	 	 	 	 	 	 	 	 	 	 	 	 	 	 	 	 	1581516251	8.21	15.20
12/02/2020 14:04:12	120220	12022020	140412	89.92	12.418765	-57.157613	89.95	-1.310	0.070	0.730	89.92	-1.00	1.10	 	 	 	 	 	 	 	 	 	 	 	 	 	 	 	 	 	 	1581516252	8.97	16.61
12/02/2020 14:04:13	120220	12022020	140413	89.85	12.418762	-57.157565	89.87	-0.290	-1.620	1.340	89.82	-2.70	1.70	 	 	 	 	 	 	 	 	 	 	 	 	 	 	 	 	 	 	1581516253	10.34	19.15
12/02/2020 14:04:14	120220	12022020	140414	89.64	12.418758	-57.157515	89.65	0.920	-2.320	1.940	89.58	-3.60	2.30	 	 	 	 	 	 	 	 	 	 	 	 	 	 	 	 	 	 	1581516254	10.59	19.61
12/02/2020 14:04:15	120220	12022020	140415	89.39	12.418757	-57.157470	89.44	1.320	-1.470	2.210	89.36	-3.00	2.60	 	 	 	 	 	 	 	 	 	 	 	 	 	 	 	 	 	 	1581516255	9.50	17.59
12/02/2020 14:04:16	120220	12022020	140416	89.38	12.418758	-57.157432	89.51	0.630	0.270	2.050	89.42	-1.30	2.50	 	 	 	 	 	 	 	 	 	 	 	 	 	 	 	 	 	 	1581516256	8.08	14.96
12/02/2020 14:04:17	120220	12022020	140417	89.70	12.418762	-57.157397	89.89	-0.560	1.680	1.630	89.80	0.20	2.10	 	 	 	 	 	 	 	 	 	 	 	 	 	 	 	 	 	 	1581516257	7.38	13.67
12/02/2020 14:04:18	120220	12022020	140418	90.14	12.418763	-57.157360	90.29	-1.450	1.880	1.210	90.20	0.60	1.70	 	 	 	 	 	 	 	 	 	 	 	 	 	 	 	 	 	 	1581516258	7.76	14.37
12/02/2020 14:04:19	120220	12022020	140419	90.34	12.418763	-57.157318	90.40	-1.350	0.570	0.950	90.34	-0.50	1.40	 	 	 	 	 	 	 	 	 	 	 	 	 	 	 	 	 	 	1581516259	8.88	16.45
12/02/2020 14:04:20	120220	12022020	140420	90.29	12.418763	-57.157270	90.30	-0.190	-1.580	0.790	90.26	-2.60	1.30	 	 	 	 	 	 	 	 	 	 	 	 	 	 	 	 	 	 	1581516260	10.34	19.15
12/02/2020 14:04:21	120220	12022020	140421	90.00	12.418763	-57.157218	89.95	1.240	-2.960	0.820	89.92	-4.20	1.30	 	 	 	 	 	 	 	 	 	 	 	 	 	 	 	 	 	 	1581516261	11.01	20.39
12/02/2020 14:04:22	120220	12022020	140422	89.68	12.418765	-57.157170	89.71	1.770	-2.170	0.720	89.67	-3.80	1.20	 	 	 	 	 	 	 	 	 	 	 	 	 	 	 	 	 	 	1581516262	10.12	18.74
12/02/2020 14:04:23	120220	12022020	140423	89.82	12.418770	-57.157133	89.99	0.890	0.360	0.650	89.92	-1.40	1.10	 	 	 	 	 	 	 	 	 	 	 	 	 	 	 	 	 	 	1581516263	7.82	14.48
12/02/2020 14:04:24	120220	12022020	140424	90.46	12.418773	-57.157103	90.72	-0.740	2.440	0.890	90.63	0.90	1.30	 	 	 	 	 	 	 	 	 	 	 	 	 	 	 	 	 	 	1581516264	6.35	11.76
12/02/2020 14:04:25	120220	12022020	140425	91.20	12.418768	-57.157070	91.39	-1.810	2.340	1.370	91.31	1.20	1.70	 	 	 	 	 	 	 	 	 	 	 	 	 	 	 	 	 	 	1581516265	7.18	13.30
12/02/2020 14:04:26	120220	12022020	140426	91.47	12.418762	-57.157025	91.51	-1.430	0.200	2.020	91.44	-0.70	2.40	 	 	 	 	 	 	 	 	 	 	 	 	 	 	 	 	 	 	1581516266	9.53	17.65
12/02/2020 14:04:27	120220	12022020	140427	91.06	12.418752	-57.156973	90.98	0.010	-2.160	2.850	90.92	-3.20	3.20	 	 	 	 	 	 	 	 	 	 	 	 	 	 	 	 	 	 	1581516267	11.22	20.78
12/02/2020 14:04:28	120220	12022020	140428	90.43	12.418747	-57.156922	90.46	1.270	-2.830	3.180	90.36	-4.20	3.60	 	 	 	 	 	 	 	 	 	 	 	 	 	 	 	 	 	 	1581516268	10.92	20.22
12/02/2020 14:04:29	120220	12022020	140429	90.41	12.418748	-57.156880	90.60	1.340	-1.350	2.370	90.49	-3.00	3.00	 	 	 	 	 	 	 	 	 	 	 	 	 	 	 	 	 	 	1581516269	8.92	16.52
12/02/2020 14:04:30	120220	12022020	140430	90.95	12.418755	-57.156847	91.16	0.400	0.700	1.020	91.07	-0.90	1.70	 	 	 	 	 	 	 	 	 	 	 	 	 	 	 	 	 	 	1581516270	7.17	13.28
12/02/2020 14:04:31	120220	12022020	140431	91.42	12.418763	-57.156813	91.51	-0.540	1.530	0.170	91.47	-0.00	0.50	 	 	 	 	 	 	 	 	 	 	 	 	 	 	 	 	 	 	1581516271	7.19	13.32
12/02/2020 14:04:32	120220	12022020	140432	91.48	12.418765	-57.156772	91.49	-0.760	0.860	0.000	91.46	-0.30	0.50	 	 	 	 	 	 	 	 	 	 	 	 	 	 	 	 	 	 	1581516272	8.60	15.93
12/02/2020 14:04:33	120220	12022020	140433	91.28	12.418762	-57.156727	91.25	-0.570	-0.080	0.260	91.21	-1.30	0.70	 	 	 	 	 	 	 	 	 	 	 	 	 	 	 	 	 	 	1581516273	9.77	18.09
12/02/2020 14:04:34	120220	12022020	140434	90.92	12.418757	-57.156682	90.89	-0.360	-0.570	0.770	90.85	-1.80	1.20	 	 	 	 	 	 	 	 	 	 	 	 	 	 	 	 	 	 	1581516274	9.43	17.46
12/02/2020 14:04:35	120220	12022020	140435	90.63	12.418752	-57.156640	90.65	-0.010	-0.930	0.970	90.59	-2.20	1.40	 	 	 	 	 	 	 	 	 	 	 	 	 	 	 	 	 	 	1581516275	8.88	16.45
12/02/2020 14:04:36	120220	12022020	140436	90.54	12.418752	-57.156597	90.62	0.630	-1.340	0.910	90.55	-2.60	1.40	 	 	 	 	 	 	 	 	 	 	 	 	 	 	 	 	 	 	1581516276	9.08	16.82
12/02/2020 14:04:37	120220	12022020	140437	90.59	12.418752	-57.156553	90.68	1.150	-1.400	1.000	90.60	-2.80	1.40	 	 	 	 	 	 	 	 	 	 	 	 	 	 	 	 	 	 	1581516277	9.41	17.43
12/02/2020 14:04:38	120220	12022020	140438	90.65	12.418752	-57.156510	90.74	0.860	-0.430	1.430	90.67	-2.00	1.80	 	 	 	 	 	 	 	 	 	 	 	 	 	 	 	 	 	 	1581516278	9.05	16.76
12/02/2020 14:04:39	120220	12022020	140439	90.70	12.418750	-57.156473	90.78	-0.250	1.180	2.050	90.70	-0.40	2.40	 	 	 	 	 	 	 	 	 	 	 	 	 	 	 	 	 	 	1581516279	7.69	14.24
12/02/2020 14:04:40	120220	12022020	140440	90.61	12.418743	-57.156440	90.65	-1.300	1.960	2.640	90.56	0.60	3.00	 	 	 	 	 	 	 	 	 	 	 	 	 	 	 	 	 	 	1581516280	7.13	13.20
12/02/2020 14:04:41	120220	12022020	140441	90.25	12.418738	-57.156402	90.24	-1.260	0.750	3.040	90.15	-0.30	3.50	 	 	 	 	 	 	 	 	 	 	 	 	 	 	 	 	 	 	1581516281	8.30	15.37
12/02/2020 14:04:42	120220	12022020	140442	89.80	12.418735	-57.156353	89.85	-0.150	-1.450	2.950	89.74	-2.50	3.40	 	 	 	 	 	 	 	 	 	 	 	 	 	 	 	 	 	 	1581516282	10.32	19.11
12/02/2020 14:04:43	120220	12022020	140443	89.70	12.418737	-57.156302	89.82	0.980	-2.500	2.400	89.71	-3.60	2.50	 	 	 	 	 	 	 	 	 	 	 	 	 	 	 	 	 	 	1581516283	10.81	20.02
12/02/2020 14:04:44	120220	12022020	140444	89.85	12.418738	-57.156258	89.98	1.200	-1.590	1.790	89.89	-3.10	2.30	 	 	 	 	 	 	 	 	 	 	 	 	 	 	 	 	 	 	1581516284	9.22	17.08
12/02/2020 14:04:45	120220	12022020	140445	89.99	12.418742	-57.156223	90.06	0.550	0.100	1.380	89.99	-0.60	1.70	 	 	 	 	 	 	 	 	 	 	 	 	 	 	 	 	 	 	1581516285	7.49	13.87
12/02/2020 14:04:46	120220	12022020	140446	89.90	12.418743	-57.156188	89.91	-0.250	1.140	1.190	89.85	-0.30	1.70	 	 	 	 	 	 	 	 	 	 	 	 	 	 	 	 	 	 	1581516286	7.24	13.41
12/02/2020 14:04:47	120220	12022020	140447	89.67	12.418743	-57.156150	89.70	-0.570	0.970	1.000	89.63	-0.30	1.50	 	 	 	 	 	 	 	 	 	 	 	 	 	 	 	 	 	 	1581516287	8.20	15.19
12/02/2020 14:04:48	120220	12022020	140448	89.56	12.418745	-57.156105	89.61	-0.290	0.000	0.720	89.54	-1.20	1.20	 	 	 	 	 	 	 	 	 	 	 	 	 	 	 	 	 	 	1581516288	9.37	17.35
12/02/2020 14:04:49	120220	12022020	140449	89.56	12.418747	-57.156060	89.63	0.060	-0.630	0.380	89.58	-1.90	0.90	 	 	 	 	 	 	 	 	 	 	 	 	 	 	 	 	 	 	1581516289	9.79	18.13
12/02/2020 14:04:50	120220	12022020	140450	89.65	12.418748	-57.156017	89.70	0.020	-0.540	0.380	89.66	-1.90	0.80	 	 	 	 	 	 	 	 	 	 	 	 	 	 	 	 	 	 	1581516290	9.00	16.67
12/02/2020 14:04:51	120220	12022020	140451	89.64	12.418748	-57.155978	89.68	-0.220	-0.360	0.920	89.63	-1.70	1.30	 	 	 	 	 	 	 	 	 	 	 	 	 	 	 	 	 	 	1581516291	8.26	15.30
12/02/2020 14:04:52	120220	12022020	140452	89.51	12.418745	-57.155938	89.53	-0.230	-0.520	1.460	89.47	-1.80	1.80	 	 	 	 	 	 	 	 	 	 	 	 	 	 	 	 	 	 	1581516292	8.55	15.83
12/02/2020 14:04:53	120220	12022020	140453	89.33	12.418742	-57.155895	89.36	0.120	-0.720	1.780	89.30	-2.00	2.20	 	 	 	 	 	 	 	 	 	 	 	 	 	 	 	 	 	 	1581516293	8.99	16.65
12/02/2020 14:04:54	120220	12022020	140454	89.22	12.418740	-57.155852	89.29	0.590	-0.790	2.030	89.22	-2.10	2.40	 	 	 	 	 	 	 	 	 	 	 	 	 	 	 	 	 	 	1581516294	9.13	16.91
12/02/2020 14:04:55	120220	12022020	140455	89.26	12.418740	-57.155808	89.36	0.720	-0.640	2.080	89.29	-1.80	2.40	 	 	 	 	 	 	 	 	 	 	 	 	 	 	 	 	 	 	1581516295	9.14	16.93
12/02/2020 14:04:56	120220	12022020	140456	89.29	12.418742	-57.155767	89.31	0.280	-0.190	1.880	89.25	-1.60	2.40	 	 	 	 	 	 	 	 	 	 	 	 	 	 	 	 	 	 	1581516296	8.91	16.50
12/02/2020 14:04:57	120220	12022020	140457	88.96	12.418742	-57.155727	88.92	-0.400	0.490	1.910	88.87	-0.50	2.40	 	 	 	 	 	 	 	 	 	 	 	 	 	 	 	 	 	 	1581516297	8.47	15.69
12/02/2020 14:04:58	120220	12022020	140458	88.59	12.418742	-57.155688	88.63	-0.800	0.990	1.850	88.56	-0.40	2.40	 	 	 	 	 	 	 	 	 	 	 	 	 	 	 	 	 	 	1581516298	8.16	15.11
12/02/2020 14:04:59	120220	12022020	140459	88.65	12.418745	-57.155648	88.77	-0.660	0.560	1.170	88.71	-0.60	1.80	 	 	 	 	 	 	 	 	 	 	 	 	 	 	 	 	 	 	1581516299	8.42	15.59
12/02/2020 14:05:00	120220	12022020	140500	88.97	12.418750	-57.155603	89.04	-0.100	-0.680	0.200	89.02	-1.80	0.80	 	 	 	 	 	 	 	 	 	 	 	 	 	 	 	 	 	 	1581516300	9.51	17.61
12/02/2020 14:05:01	120220	12022020	140501	89.01	12.418755	-57.155557	88.96	0.460	-1.600	-0.160	88.96	-2.80	0.30	 	 	 	 	 	 	 	 	 	 	 	 	 	 	 	 	 	 	1581516301	10.09	18.69
12/02/2020 14:05:02	120220	12022020	140502	88.65	12.418757	-57.155512	88.55	0.730	-1.530	0.180	88.56	-2.90	0.60	1017.20	26.50	26.60	20.50	20.60	553.0	69.0	69.0	427.0	28.4	348.00	15.40	73.00	11.00	45900	9708.0	27.5	27.5	1581516302	9.52	17.63
12/02/2020 14:05:03	120220	12022020	140503	88.29	12.418758	-57.155470	88.28	0.590	-0.540	0.540	88.27	-2.10	1.00	 	 	 	 	 	 	 	 	 	 	 	 	 	 	 	 	 	 	1581516303	8.66	16.04
12/02/2020 14:05:04	120220	12022020	140504	88.41	12.418760	-57.155433	88.54	0.030	0.850	0.710	88.50	-0.70	1.10	 	 	 	 	 	 	 	 	 	 	 	 	 	 	 	 	 	 	1581516304	7.83	14.50
12/02/2020 14:05:05	120220	12022020	140505	88.91	12.418760	-57.155397	89.06	-0.640	1.450	0.990	89.02	0.10	1.40	 	 	 	 	 	 	 	 	 	 	 	 	 	 	 	 	 	 	1581516305	7.52	13.93
12/02/2020 14:05:06	120220	12022020	140506	89.31	12.418757	-57.155357	89.36	-0.830	0.450	1.530	89.33	-0.70	1.90	 	 	 	 	 	 	 	 	 	 	 	 	 	 	 	 	 	 	1581516306	8.54	15.82
12/02/2020 14:05:07	120220	12022020	140507	89.13	12.418753	-57.155308	89.05	-0.260	-1.430	2.360	89.02	-2.50	2.70	 	 	 	 	 	 	 	 	 	 	 	 	 	 	 	 	 	 	1581516307	10.23	18.95
12/02/2020 14:05:08	120220	12022020	140508	88.53	12.418748	-57.155258	88.51	0.540	-2.290	3.280	88.44	-3.60	3.60	 	 	 	 	 	 	 	 	 	 	 	 	 	 	 	 	 	 	1581516308	10.81	20.02
12/02/2020 14:05:09	120220	12022020	140509	88.27	12.418747	-57.155213	88.41	0.790	-1.290	3.500	88.30	-2.90	4.00	 	 	 	 	 	 	 	 	 	 	 	 	 	 	 	 	 	 	1581516309	9.38	17.37
12/02/2020 14:05:10	120220	12022020	140510	88.59	12.418750	-57.155177	88.79	0.320	0.450	2.730	88.68	-1.10	3.30	 	 	 	 	 	 	 	 	 	 	 	 	 	 	 	 	 	 	1581516310	7.63	14.13
12/02/2020 14:05:11	120220	12022020	140511	89.03	12.418755	-57.155143	89.18	-0.390	1.370	1.620	89.10	-0.00	2.20	 	 	 	 	 	 	 	 	 	 	 	 	 	 	 	 	 	 	1581516311	7.44	13.78
12/02/2020 14:05:12	120220	12022020	140512	89.33	12.418762	-57.155103	89.42	-0.740	0.960	0.720	89.37	-0.30	1.30	 	 	 	 	 	 	 	 	 	 	 	 	 	 	 	 	 	 	1581516312	8.51	15.76
12/02/2020 14:05:13	120220	12022020	140513	89.43	12.418767	-57.155058	89.45	-0.540	-0.220	0.170	89.42	-1.40	0.70	 	 	 	 	 	 	 	 	 	 	 	 	 	 	 	 	 	 	1581516313	9.62	17.82
12/02/2020 14:05:14	120220	12022020	140514	89.29	12.418768	-57.155010	89.26	0.080	-1.310	-0.140	89.25	-2.50	0.40	 	 	 	 	 	 	 	 	 	 	 	 	 	 	 	 	 	 	1581516314	10.09	18.69
12/02/2020 14:05:15	120220	12022020	140515	89.19	12.418772	-57.154963	89.25	0.670	-1.570	-0.360	89.22	-3.00	0.10	 	 	 	 	 	 	 	 	 	 	 	 	 	 	 	 	 	 	1581516315	9.90	18.33
12/02/2020 14:05:16	120220	12022020	140516	89.42	12.418775	-57.154922	89.52	0.690	-0.630	-0.380	89.48	-2.20	0.10	 	 	 	 	 	 	 	 	 	 	 	 	 	 	 	 	 	 	1581516316	8.95	16.58
12/02/2020 14:05:17	120220	12022020	140517	89.70	12.418777	-57.154885	89.77	0.050	0.650	-0.060	89.74	-0.90	0.30	 	 	 	 	 	 	 	 	 	 	 	 	 	 	 	 	 	 	1581516317	7.75	14.35
12/02/2020 14:05:18	120220	12022020	140518	89.70	12.418775	-57.154848	89.68	-0.640	0.970	0.740	89.66	-0.30	1.10	 	 	 	 	 	 	 	 	 	 	 	 	 	 	 	 	 	 	1581516318	7.66	14.19
12/02/2020 14:05:19	120220	12022020	140519	89.42	12.418770	-57.154805	89.41	-0.640	-0.070	1.580	89.36	-1.20	1.90	 	 	 	 	 	 	 	 	 	 	 	 	 	 	 	 	 	 	1581516319	9.03	16.72
12/02/2020 14:05:20	120220	12022020	140520	89.22	12.418767	-57.154757	89.27	-0.070	-1.330	2.230	89.20	-2.50	2.60	 	 	 	 	 	 	 	 	 	 	 	 	 	 	 	 	 	 	1581516320	10.34	19.15
12/02/2020 14:05:21	120220	12022020	140521	89.22	12.418763	-57.154710	89.35	0.300	-1.380	2.620	89.25	-2.80	3.00	 	 	 	 	 	 	 	 	 	 	 	 	 	 	 	 	 	 	1581516321	10.13	18.76
12/02/2020 14:05:22	120220	12022020	140522	89.42	12.418763	-57.154668	89.56	0.100	-0.270	2.450	89.46	-1.80	2.90	 	 	 	 	 	 	 	 	 	 	 	 	 	 	 	 	 	 	1581516322	8.60	15.93
12/02/2020 14:05:23	120220	12022020	140523	89.53	12.418763	-57.154632	89.61	-0.250	0.530	2.170	89.53	-0.90	2.60	 	 	 	 	 	 	 	 	 	 	 	 	 	 	 	 	 	 	1581516323	7.70	14.26
12/02/2020 14:05:24	120220	12022020	140524	89.41	12.418763	-57.154592	89.42	-0.080	0.050	1.960	89.36	-1.20	2.50	 	 	 	 	 	 	 	 	 	 	 	 	 	 	 	 	 	 	1581516324	8.66	16.04
12/02/2020 14:05:25	120220	12022020	140525	89.18	12.418765	-57.154543	89.21	0.380	-0.540	1.250	89.15	-1.80	1.90	 	 	 	 	 	 	 	 	 	 	 	 	 	 	 	 	 	 	1581516325	10.01	18.54
12/02/2020 14:05:26	120220	12022020	140526	89.20	12.418773	-57.154500	89.28	0.500	-0.110	0.290	89.23	-1.60	0.90	 	 	 	 	 	 	 	 	 	 	 	 	 	 	 	 	 	 	1581516326	9.52	17.63
12/02/2020 14:05:27	120220	12022020	140527	89.37	12.418782	-57.154462	89.43	0.130	0.550	-0.320	89.41	-0.90	0.20	 	 	 	 	 	 	 	 	 	 	 	 	 	 	 	 	 	 	1581516327	8.30	15.37
12/02/2020 14:05:28	120220	12022020	140528	89.54	12.418787	-57.154422	89.59	-0.290	0.180	-0.650	89.57	-1.00	-0.20	 	 	 	 	 	 	 	 	 	 	 	 	 	 	 	 	 	 	1581516328	8.36	15.48
12/02/2020 14:05:29	120220	12022020	140529	89.67	12.418788	-57.154377	89.68	-0.450	-0.910	-0.300	89.67	-2.10	0.00	 	 	 	 	 	 	 	 	 	 	 	 	 	 	 	 	 	 	1581516329	9.56	17.71
12/02/2020 14:05:30	120220	12022020	140530	89.60	12.418783	-57.154330	89.60	-0.390	-1.320	0.720	89.57	-2.70	1.00	 	 	 	 	 	 	 	 	 	 	 	 	 	 	 	 	 	 	1581516330	9.96	18.45
12/02/2020 14:05:31	120220	12022020	140531	89.43	12.418777	-57.154288	89.45	-0.150	-0.800	1.710	89.40	-2.20	2.00	 	 	 	 	 	 	 	 	 	 	 	 	 	 	 	 	 	 	1581516331	9.07	16.80
12/02/2020 14:05:32	120220	12022020	140532	89.26	12.418770	-57.154248	89.28	0.330	-0.460	2.400	89.22	-1.80	2.80	 	 	 	 	 	 	 	 	 	 	 	 	 	 	 	 	 	 	1581516332	8.53	15.80
12/02/2020 14:05:33	120220	12022020	140533	89.03	12.418768	-57.154203	89.06	0.790	-0.570	2.660	88.99	-1.80	3.00	 	 	 	 	 	 	 	 	 	 	 	 	 	 	 	 	 	 	1581516333	9.27	17.17
12/02/2020 14:05:34	120220	12022020	140534	88.95	12.418770	-57.154158	89.05	0.630	-0.180	2.270	88.97	-1.60	2.80	 	 	 	 	 	 	 	 	 	 	 	 	 	 	 	 	 	 	1581516334	9.54	17.67
12/02/2020 14:05:35	120220	12022020	140535	89.23	12.418777	-57.154118	89.40	-0.230	0.980	1.600	89.32	-0.60	2.20	 	 	 	 	 	 	 	 	 	 	 	 	 	 	 	 	 	 	1581516335	8.57	15.87
12/02/2020 14:05:36	120220	12022020	140536	89.77	12.418782	-57.154083	89.93	-1.200	1.780	0.930	89.86	0.40	1.50	 	 	 	 	 	 	 	 	 	 	 	 	 	 	 	 	 	 	1581516336	7.56	14.00
12/02/2020 14:05:37	120220	12022020	140537	90.13	12.418785	-57.154045	90.20	-1.420	0.930	0.420	90.16	-0.20	0.90	 	 	 	 	 	 	 	 	 	 	 	 	 	 	 	 	 	 	1581516337	8.05	14.91
12/02/2020 14:05:38	120220	12022020	140538	90.15	12.418787	-57.153998	90.15	-0.430	-1.550	0.370	90.12	-2.50	0.80	 	 	 	 	 	 	 	 	 	 	 	 	 	 	 	 	 	 	1581516338	9.92	18.37
12/02/2020 14:05:39	120220	12022020	140539	89.96	12.418785	-57.153943	89.96	1.090	-3.490	0.530	89.92	-4.70	1.00	 	 	 	 	 	 	 	 	 	 	 	 	 	 	 	 	 	 	1581516339	11.52	21.34
12/02/2020 14:05:40	120220	12022020	140540	89.85	12.418785	-57.153895	89.91	1.790	-2.600	0.450	89.86	-4.30	0.90	 	 	 	 	 	 	 	 	 	 	 	 	 	 	 	 	 	 	1581516340	10.41	19.28
12/02/2020 14:05:41	120220	12022020	140541	89.98	12.418787	-57.153860	90.09	1.020	0.510	0.340	90.03	-1.40	0.80	 	 	 	 	 	 	 	 	 	 	 	 	 	 	 	 	 	 	1581516341	7.37	13.65
12/02/2020 14:05:42	120220	12022020	140542	90.24	12.418790	-57.153833	90.34	-0.560	3.070	0.390	90.29	1.50	0.80	 	 	 	 	 	 	 	 	 	 	 	 	 	 	 	 	 	 	1581516342	5.61	10.39
12/02/2020 14:05:43	120220	12022020	140543	90.46	12.418792	-57.153802	90.53	-1.620	2.840	0.360	90.48	1.70	0.80	 	 	 	 	 	 	 	 	 	 	 	 	 	 	 	 	 	 	1581516343	6.63	12.28
12/02/2020 14:05:44	120220	12022020	140544	90.52	12.418793	-57.153757	90.57	-1.300	-0.090	0.400	90.52	-1.00	0.80	 	 	 	 	 	 	 	 	 	 	 	 	 	 	 	 	 	 	1581516344	9.61	17.80
12/02/2020 14:05:45	120220	12022020	140545	90.53	12.418790	-57.153702	90.62	-0.230	-2.740	0.640	90.54	-3.90	1.10	 	 	 	 	 	 	 	 	 	 	 	 	 	 	 	 	 	 	1581516345	11.69	21.65
12/02/2020 14:05:46	120220	12022020	140546	90.60	12.418787	-57.153653	90.70	0.500	-2.720	0.790	90.62	-4.20	1.20	 	 	 	 	 	 	 	 	 	 	 	 	 	 	 	 	 	 	1581516346	10.35	19.17
12/02/2020 14:05:47	120220	12022020	140547	90.68	12.418785	-57.153618	90.73	0.510	-0.710	0.710	90.67	-2.40	1.20	 	 	 	 	 	 	 	 	 	 	 	 	 	 	 	 	 	 	1581516347	7.44	13.78
12/02/2020 14:05:48	120220	12022020	140548	90.47	12.418787	-57.153588	90.44	0.260	0.830	0.710	90.40	-0.70	1.20	 	 	 	 	 	 	 	 	 	 	 	 	 	 	 	 	 	 	1581516348	6.34	11.74
12/02/2020 14:05:49	120220	12022020	140549	90.15	12.418788	-57.153552	90.18	0.140	0.800	0.670	90.13	-0.50	1.10	 	 	 	 	 	 	 	 	 	 	 	 	 	 	 	 	 	 	1581516349	7.69	14.24
12/02/2020 14:05:50	120220	12022020	140550	90.21	12.418790	-57.153508	90.32	0.060	0.020	0.510	90.26	-1.20	1.00	 	 	 	 	 	 	 	 	 	 	 	 	 	 	 	 	 	 	1581516350	9.21	17.06
12/02/2020 14:05:51	120220	12022020	140551	90.44	12.418792	-57.153463	90.52	-0.030	-0.490	0.430	90.47	-1.80	0.90	 	 	 	 	 	 	 	 	 	 	 	 	 	 	 	 	 	 	1581516351	9.41	17.43
12/02/2020 14:05:52	120220	12022020	140552	90.52	12.418792	-57.153422	90.55	-0.030	-0.370	0.460	90.51	-1.80	0.90	 	 	 	 	 	 	 	 	 	 	 	 	 	 	 	 	 	 	1581516352	8.80	16.30
12/02/2020 14:05:53	120220	12022020	140553	90.44	12.418793	-57.153383	90.46	-0.010	0.070	0.740	90.42	-1.40	1.10	 	 	 	 	 	 	 	 	 	 	 	 	 	 	 	 	 	 	1581516353	8.14	15.08
12/02/2020 14:05:54	120220	12022020	140554	90.42	12.418792	-57.153345	90.51	-0.060	0.190	1.280	90.45	-1.20	1.60	 	 	 	 	 	 	 	 	 	 	 	 	 	 	 	 	 	 	1581516354	7.92	14.67
12/02/2020 14:05:55	120220	12022020	140555	90.68	12.418790	-57.153307	90.82	-0.040	-0.360	1.590	90.75	-1.60	2.00	 	 	 	 	 	 	 	 	 	 	 	 	 	 	 	 	 	 	1581516355	8.45	15.65
12/02/2020 14:05:56	120220	12022020	140556	90.88	12.418787	-57.153263	90.92	0.150	-1.050	1.900	90.86	-2.30	2.30	 	 	 	 	 	 	 	 	 	 	 	 	 	 	 	 	 	 	1581516356	9.16	16.96
12/02/2020 14:05:57	120220	12022020	140557	90.66	12.418782	-57.153218	90.66	0.320	-1.160	2.360	90.59	-2.50	2.70	 	 	 	 	 	 	 	 	 	 	 	 	 	 	 	 	 	 	1581516357	9.26	17.15
12/02/2020 14:05:58	120220	12022020	140558	90.31	12.418780	-57.153178	90.32	0.300	-0.570	2.440	90.25	-2.00	2.90	 	 	 	 	 	 	 	 	 	 	 	 	 	 	 	 	 	 	1581516358	8.63	15.98
12/02/2020 14:05:59	120220	12022020	140559	90.10	12.418782	-57.153140	90.15	0.160	0.270	1.950	90.09	-1.20	2.50	 	 	 	 	 	 	 	 	 	 	 	 	 	 	 	 	 	 	1581516359	8.02	14.85
12/02/2020 14:06:00	120220	12022020	140600	90.16	12.418788	-57.153103	90.25	-0.010	0.710	0.910	90.20	-0.70	1.50	 	 	 	 	 	 	 	 	 	 	 	 	 	 	 	 	 	 	1581516360	8.04	14.89
12/02/2020 14:06:01	120220	12022020	140601	90.43	12.418797	-57.153063	90.52	-0.080	0.300	-0.240	90.49	-1.00	0.40	 	 	 	 	 	 	 	 	 	 	 	 	 	 	 	 	 	 	1581516361	8.65	16.02
12/02/2020 14:06:02	120220	12022020	140602	90.75	12.418803	-57.153018	90.82	-0.020	-0.540	-0.900	90.82	-1.80	-0.40	1017.30	26.50	26.60	20.60	20.60	576.0	69.0	69.0	428.0	28.4	353.00	14.90	80.00	10.40	46976	14019.0	27.5	27.5	1581516362	9.41	17.43
12/02/2020 14:06:03	120220	12022020	140603	91.06	12.418805	-57.152973	91.12	-0.010	-0.940	-0.920	91.11	-2.30	-0.50	 	 	 	 	 	 	 	 	 	 	 	 	 	 	 	 	 	 	1581516363	9.50	17.59
12/02/2020 14:06:04	120220	12022020	140604	91.23	12.418802	-57.152933	91.26	-0.170	-0.600	-0.320	91.24	-2.00	0.00	 	 	 	 	 	 	 	 	 	 	 	 	 	 	 	 	 	 	1581516364	8.79	16.28
12/02/2020 14:06:05	120220	12022020	140605	91.18	12.418797	-57.152895	91.16	-0.290	0.020	0.590	91.14	-1.40	0.90	 	 	 	 	 	 	 	 	 	 	 	 	 	 	 	 	 	 	1581516365	8.12	15.04
12/02/2020 14:06:06	120220	12022020	140606	90.95	12.418790	-57.152857	90.91	-0.110	0.170	1.380	90.88	-1.20	1.70	 	 	 	 	 	 	 	 	 	 	 	 	 	 	 	 	 	 	1581516366	8.14	15.08
12/02/2020 14:06:07	120220	12022020	140607	90.68	12.418788	-57.152815	90.69	0.300	-0.330	1.810	90.64	-1.60	2.20	 	 	 	 	 	 	 	 	 	 	 	 	 	 	 	 	 	 	1581516367	8.83	16.35
12/02/2020 14:06:08	120220	12022020	140608	90.70	12.418790	-57.152770	90.82	0.540	-0.830	1.660	90.76	-2.10	2.20	 	 	 	 	 	 	 	 	 	 	 	 	 	 	 	 	 	 	1581516368	9.49	17.58
12/02/2020 14:06:09	120220	12022020	140609	91.10	12.418792	-57.152727	91.26	0.370	-0.760	1.370	91.20	-2.20	1.80	 	 	 	 	 	 	 	 	 	 	 	 	 	 	 	 	 	 	1581516369	9.25	17.13
12/02/2020 14:06:10	120220	12022020	140610	91.50	12.418792	-57.152687	91.61	-0.050	-0.130	1.420	91.56	-1.60	1.80	 	 	 	 	 	 	 	 	 	 	 	 	 	 	 	 	 	 	1581516370	8.51	15.76
12/02/2020 14:06:11	120220	12022020	140611	91.65	12.418790	-57.152648	91.69	-0.320	0.530	1.540	91.64	-0.90	2.00	 	 	 	 	 	 	 	 	 	 	 	 	 	 	 	 	 	 	1581516371	8.02	14.85
12/02/2020 14:06:12	120220	12022020	140612	91.57	12.418788	-57.152610	91.56	-0.220	0.490	1.400	91.53	-0.80	1.90	 	 	 	 	 	 	 	 	 	 	 	 	 	 	 	 	 	 	1581516372	8.22	15.22
12/02/2020 14:06:13	120220	12022020	140613	91.39	12.418788	-57.152567	91.39	0.020	-0.200	1.150	91.37	-1.50	1.60	 	 	 	 	 	 	 	 	 	 	 	 	 	 	 	 	 	 	1581516373	9.05	16.76
12/02/2020 14:06:14	120220	12022020	140614	91.37	12.418792	-57.152522	91.40	0.190	-0.970	0.690	91.38	-2.20	1.20	 	 	 	 	 	 	 	 	 	 	 	 	 	 	 	 	 	 	1581516374	9.53	17.65
12/02/2020 14:06:15	120220	12022020	140615	91.41	12.418795	-57.152477	91.39	0.310	-1.330	0.320	91.38	-2.70	0.80	 	 	 	 	 	 	 	 	 	 	 	 	 	 	 	 	 	 	1581516375	9.53	17.65
12/02/2020 14:06:16	120220	12022020	140616	91.25	12.418797	-57.152433	91.26	0.210	-0.820	0.450	91.24	-2.30	0.90	 	 	 	 	 	 	 	 	 	 	 	 	 	 	 	 	 	 	1581516376	9.17	16.98
12/02/2020 14:06:17	120220	12022020	140617	91.31	12.418793	-57.152395	91.39	-0.250	0.290	0.780	91.36	-1.20	1.20	 	 	 	 	 	 	 	 	 	 	 	 	 	 	 	 	 	 	1581516377	8.19	15.17
12/02/2020 14:06:18	120220	12022020	140618	91.60	12.418790	-57.152358	91.69	-0.630	0.800	0.970	91.64	-0.60	1.40	 	 	 	 	 	 	 	 	 	 	 	 	 	 	 	 	 	 	1581516378	7.81	14.46
12/02/2020 14:06:19	120220	12022020	140619	91.67	12.418787	-57.152317	91.66	-0.460	0.260	1.290	91.63	-1.00	1.70	 	 	 	 	 	 	 	 	 	 	 	 	 	 	 	 	 	 	1581516379	8.75	16.21
12/02/2020 14:06:20	120220	12022020	140620	91.45	12.418782	-57.152272	91.43	-0.010	-0.450	1.440	91.41	-1.70	1.90	 	 	 	 	 	 	 	 	 	 	 	 	 	 	 	 	 	 	1581516380	9.66	17.89
12/02/2020 14:06:21	120220	12022020	140621	91.38	12.418782	-57.152227	91.44	0.310	-0.700	1.260	91.41	-2.10	1.70	 	 	 	 	 	 	 	 	 	 	 	 	 	 	 	 	 	 	1581516381	9.48	17.56
12/02/2020 14:06:22	120220	12022020	140622	91.56	12.418783	-57.152185	91.63	0.300	-0.360	1.100	91.59	-1.80	1.60	 	 	 	 	 	 	 	 	 	 	 	 	 	 	 	 	 	 	1581516382	8.83	16.35
12/02/2020 14:06:23	120220	12022020	140623	91.71	12.418785	-57.152145	91.76	0.050	0.000	0.990	91.73	-1.40	1.40	 	 	 	 	 	 	 	 	 	 	 	 	 	 	 	 	 	 	1581516383	8.27	15.32
12/02/2020 14:06:24	120220	12022020	140624	91.71	12.418785	-57.152105	91.69	-0.070	-0.250	0.860	91.69	-1.50	1.30	 	 	 	 	 	 	 	 	 	 	 	 	 	 	 	 	 	 	1581516384	8.55	15.83
12/02/2020 14:06:25	120220	12022020	140625	91.54	12.418785	-57.152060	91.50	0.220	-1.000	0.940	91.49	-2.30	1.40	 	 	 	 	 	 	 	 	 	 	 	 	 	 	 	 	 	 	1581516385	9.41	17.43
12/02/2020 14:06:26	120220	12022020	140626	91.28	12.418783	-57.152013	91.26	0.590	-1.310	1.150	91.24	-2.70	1.60	 	 	 	 	 	 	 	 	 	 	 	 	 	 	 	 	 	 	1581516386	9.91	18.35
12/02/2020 14:06:27	120220	12022020	140627	91.12	12.418782	-57.151970	91.12	0.490	-0.640	1.030	91.09	-2.20	1.50	 	 	 	 	 	 	 	 	 	 	 	 	 	 	 	 	 	 	1581516387	9.27	17.17
12/02/2020 14:06:28	120220	12022020	140628	90.99	12.418783	-57.151930	90.99	-0.070	0.530	0.800	90.97	-1.00	1.30	 	 	 	 	 	 	 	 	 	 	 	 	 	 	 	 	 	 	1581516388	8.31	15.39
12/02/2020 14:06:29	120220	12022020	140629	90.88	12.418785	-57.151893	90.92	-0.720	1.280	0.710	90.89	-0.10	1.20	 	 	 	 	 	 	 	 	 	 	 	 	 	 	 	 	 	 	1581516389	7.93	14.69
12/02/2020 14:06:30	120220	12022020	140630	91.06	12.418783	-57.151853	91.20	-1.030	0.960	0.540	91.15	-0.30	1.00	 	 	 	 	 	 	 	 	 	 	 	 	 	 	 	 	 	 	1581516390	8.45	15.65
12/02/2020 14:06:31	120220	12022020	140631	91.53	12.418782	-57.151808	91.67	-0.770	-0.260	0.350	91.63	-1.40	0.80	 	 	 	 	 	 	 	 	 	 	 	 	 	 	 	 	 	 	1581516391	9.43	17.46
12/02/2020 14:06:32	120220	12022020	140632	91.82	12.418780	-57.151760	91.85	-0.060	-1.510	0.500	91.82	-2.70	0.90	 	 	 	 	 	 	 	 	 	 	 	 	 	 	 	 	 	 	1581516392	10.11	18.72
12/02/2020 14:06:33	120220	12022020	140633	91.64	12.418777	-57.151713	91.59	0.580	-1.800	1.040	91.57	-3.20	1.40	 	 	 	 	 	 	 	 	 	 	 	 	 	 	 	 	 	 	1581516393	10.02	18.56
12/02/2020 14:06:34	120220	12022020	140634	91.28	12.418773	-57.151672	91.25	0.700	-0.870	1.530	91.22	-2.40	1.90	 	 	 	 	 	 	 	 	 	 	 	 	 	 	 	 	 	 	1581516394	8.97	16.61
12/02/2020 14:06:35	120220	12022020	140635	91.08	12.418772	-57.151633	91.11	0.400	0.380	1.610	91.07	-1.10	2.10	 	 	 	 	 	 	 	 	 	 	 	 	 	 	 	 	 	 	1581516395	7.91	14.65
12/02/2020 14:06:36	120220	12022020	140636	91.09	12.418773	-57.151597	91.14	0.090	0.780	1.320	91.10	-0.60	1.80	 	 	 	 	 	 	 	 	 	 	 	 	 	 	 	 	 	 	1581516396	8.01	14.83
12/02/2020 14:06:37	120220	12022020	140637	91.09	12.418777	-57.151553	91.10	-0.050	0.130	0.900	91.08	-1.10	1.40	 	 	 	 	 	 	 	 	 	 	 	 	 	 	 	 	 	 	1581516397	9.17	16.98
12/02/2020 14:06:38	120220	12022020	140638	91.05	12.418780	-57.151505	91.07	-0.060	-0.730	0.710	91.05	-2.00	1.20	 	 	 	 	 	 	 	 	 	 	 	 	 	 	 	 	 	 	1581516398	10.02	18.56
12/02/2020 14:06:39	120220	12022020	140639	91.08	12.418780	-57.151458	91.14	-0.070	-0.900	0.820	91.10	-2.30	1.30	 	 	 	 	 	 	 	 	 	 	 	 	 	 	 	 	 	 	1581516399	9.90	18.33
12/02/2020 14:06:40	120220	12022020	140640	91.21	12.418777	-57.151417	91.25	-0.230	-0.290	0.790	91.23	-1.80	1.20	 	 	 	 	 	 	 	 	 	 	 	 	 	 	 	 	 	 	1581516400	9.01	16.69
12/02/2020 14:06:41	120220	12022020	140641	91.19	12.418777	-57.151377	91.20	-0.500	0.320	0.880	91.17	-1.10	1.30	 	 	 	 	 	 	 	 	 	 	 	 	 	 	 	 	 	 	1581516401	8.35	15.46
12/02/2020 14:06:42	120220	12022020	140642	91.10	12.418773	-57.151337	91.14	-0.730	0.500	1.300	91.10	-0.80	1.70	 	 	 	 	 	 	 	 	 	 	 	 	 	 	 	 	 	 	1581516402	8.51	15.76
12/02/2020 14:06:43	120220	12022020	140643	91.14	12.418770	-57.151295	91.22	-0.600	0.040	1.600	91.16	-1.20	2.00	 	 	 	 	 	 	 	 	 	 	 	 	 	 	 	 	 	 	1581516403	8.84	16.37
12/02/2020 14:06:44	120220	12022020	140644	91.14	12.418767	-57.151248	91.16	0.230	-1.240	1.670	91.11	-2.40	2.10	 	 	 	 	 	 	 	 	 	 	 	 	 	 	 	 	 	 	1581516404	9.67	17.91
12/02/2020 14:06:45	120220	12022020	140645	90.88	12.418765	-57.151198	90.85	1.300	-2.150	1.730	90.81	-3.50	2.20	 	 	 	 	 	 	 	 	 	 	 	 	 	 	 	 	 	 	1581516405	10.70	19.82
12/02/2020 14:06:46	120220	12022020	140646	90.58	12.418767	-57.151152	90.60	1.560	-1.140	1.730	90.54	-2.70	2.20	 	 	 	 	 	 	 	 	 	 	 	 	 	 	 	 	 	 	1581516406	9.96	18.45
12/02/2020 14:06:47	120220	12022020	140647	90.60	12.418768	-57.151115	90.75	0.550	1.100	1.480	90.68	-0.60	2.00	 	 	 	 	 	 	 	 	 	 	 	 	 	 	 	 	 	 	1581516407	7.78	14.41
12/02/2020 14:06:48	120220	12022020	140648	91.05	12.418772	-57.151083	91.22	-1.030	2.570	1.040	91.14	1.10	1.50	 	 	 	 	 	 	 	 	 	 	 	 	 	 	 	 	 	 	1581516408	6.66	12.33
12/02/2020 14:06:49	120220	12022020	140649	91.40	12.418773	-57.151048	91.48	-1.930	1.920	0.820	91.43	0.80	1.30	 	 	 	 	 	 	 	 	 	 	 	 	 	 	 	 	 	 	1581516409	7.56	14.00
12/02/2020 14:06:50	120220	12022020	140650	91.43	12.418772	-57.151002	91.43	-1.350	-0.720	0.850	91.40	-1.60	1.30	 	 	 	 	 	 	 	 	 	 	 	 	 	 	 	 	 	 	1581516410	9.72	18.00
12/02/2020 14:06:51	120220	12022020	140651	91.16	12.418768	-57.150947	91.12	0.300	-3.380	1.120	91.09	-4.40	1.50	 	 	 	 	 	 	 	 	 	 	 	 	 	 	 	 	 	 	1581516411	11.51	21.32
12/02/2020 14:06:52	120220	12022020	140652	90.84	12.418765	-57.150895	90.84	1.620	-3.830	1.480	90.79	-5.30	1.90	 	 	 	 	 	 	 	 	 	 	 	 	 	 	 	 	 	 	1581516412	11.18	20.71
12/02/2020 14:06:53	120220	12022020	140653	90.67	12.418762	-57.150853	90.71	1.580	-1.680	1.530	90.66	-3.50	2.00	 	 	 	 	 	 	 	 	 	 	 	 	 	 	 	 	 	 	1581516413	8.88	16.45
12/02/2020 14:06:54	120220	12022020	140654	90.64	12.418762	-57.150822	90.68	0.340	1.500	1.010	90.64	-0.30	1.50	 	 	 	 	 	 	 	 	 	 	 	 	 	 	 	 	 	 	1581516414	6.70	12.41
12/02/2020 14:06:55	120220	12022020	140655	90.73	12.418765	-57.150793	90.81	-1.270	3.940	0.300	90.78	2.30	0.80	 	 	 	 	 	 	 	 	 	 	 	 	 	 	 	 	 	 	1581516415	5.98	11.07
12/02/2020 14:06:56	120220	12022020	140656	91.06	12.418768	-57.150762	91.16	-2.240	3.930	-0.390	91.14	2.80	0.20	 	 	 	 	 	 	 	 	 	 	 	 	 	 	 	 	 	 	1581516416	6.57	12.17
12/02/2020 14:06:57	120220	12022020	140657	91.41	12.418773	-57.150720	91.46	-1.610	0.500	-0.970	91.45	-0.20	-0.50	 	 	 	 	 	 	 	 	 	 	 	 	 	 	 	 	 	 	1581516417	9.04	16.74
12/02/2020 14:06:58	120220	12022020	140658	91.43	12.418773	-57.150662	91.41	0.290	-3.970	-1.010	91.40	-4.80	-0.60	 	 	 	 	 	 	 	 	 	 	 	 	 	 	 	 	 	 	1581516418	12.15	22.50
12/02/2020 14:06:59	120220	12022020	140659	91.24	12.418772	-57.150603	91.21	1.760	-5.190	-0.360	91.19	-6.60	-0.10	 	 	 	 	 	 	 	 	 	 	 	 	 	 	 	 	 	 	1581516419	12.24	22.67
12/02/2020 14:07:00	120220	12022020	140700	91.03	12.418768	-57.150565	91.05	1.610	-2.160	0.730	91.01	-4.10	1.00	 	 	 	 	 	 	 	 	 	 	 	 	 	 	 	 	 	 	1581516420	8.32	15.41
12/02/2020 14:07:01	120220	12022020	140701	91.02	12.418762	-57.150543	91.13	0.150	2.060	1.590	91.05	2.00	2.20	 	 	 	 	 	 	 	 	 	 	 	 	 	 	 	 	 	 	1581516421	4.85	8.98
12/02/2020 14:07:02	120220	12022020	140702	91.24	12.418757	-57.150522	91.37	-1.220	3.870	1.860	91.29	2.50	2.30	1017.20	26.50	26.60	20.10	20.20	513.0	68.0	68.0	431.0	28.3	353.00	14.90	81.00	10.30	43321	13135.0	27.5	27.5	1581516422	4.71	8.72
12/02/2020 14:07:03	120220	12022020	140703	91.45	12.418753	-57.150487	91.54	-1.250	2.000	1.700	91.47	1.10	2.20	 	 	 	 	 	 	 	 	 	 	 	 	 	 	 	 	 	 	1581516423	7.54	13.96
12/02/2020 14:07:04	120220	12022020	140704	91.49	12.418753	-57.150435	91.55	-0.090	-1.360	1.480	91.48	-2.30	1.90	 	 	 	 	 	 	 	 	 	 	 	 	 	 	 	 	 	 	1581516424	10.94	20.26
12/02/2020 14:07:05	120220	12022020	140705	91.51	12.418755	-57.150380	91.61	0.880	-2.750	1.460	91.53	-4.10	1.90	 	 	 	 	 	 	 	 	 	 	 	 	 	 	 	 	 	 	1581516425	11.28	20.89
12/02/2020 14:07:06	120220	12022020	140706	91.67	12.418753	-57.150342	91.80	0.680	-1.360	1.610	91.73	-3.00	2.00	 	 	 	 	 	 	 	 	 	 	 	 	 	 	 	 	 	 	1581516426	8.42	15.59
12/02/2020 14:07:07	120220	12022020	140707	91.95	12.418752	-57.150313	92.07	-0.280	0.800	1.580	92.01	-0.80	2.00	 	 	 	 	 	 	 	 	 	 	 	 	 	 	 	 	 	 	1581516427	5.86	10.85
12/02/2020 14:07:08	120220	12022020	140708	92.14	12.418750	-57.150287	92.19	-0.820	1.430	1.350	92.15	0.10	1.80	 	 	 	 	 	 	 	 	 	 	 	 	 	 	 	 	 	 	1581516428	5.83	10.80
12/02/2020 14:07:09	120220	12022020	140709	92.15	12.418750	-57.150248	92.16	-0.210	-0.050	1.030	92.13	-1.10	1.50	 	 	 	 	 	 	 	 	 	 	 	 	 	 	 	 	 	 	1581516429	7.99	14.80
12/02/2020 14:07:10	120220	12022020	140710	91.98	12.418748	-57.150200	91.96	0.900	-1.830	0.800	91.93	-3.00	1.30	 	 	 	 	 	 	 	 	 	 	 	 	 	 	 	 	 	 	1581516430	10.09	18.69
12/02/2020 14:07:11	120220	12022020	140711	91.71	12.418748	-57.150155	91.69	1.240	-1.590	0.670	91.67	-3.10	1.10	 	 	 	 	 	 	 	 	 	 	 	 	 	 	 	 	 	 	1581516431	9.65	17.87
12/02/2020 14:07:12	120220	12022020	140712	91.48	12.418747	-57.150122	91.46	0.390	0.450	0.580	91.44	-1.20	1.00	 	 	 	 	 	 	 	 	 	 	 	 	 	 	 	 	 	 	1581516432	7.10	13.15
12/02/2020 14:07:13	120220	12022020	140713	91.29	12.418748	-57.150095	91.27	-0.840	2.020	0.440	91.26	0.60	0.80	 	 	 	 	 	 	 	 	 	 	 	 	 	 	 	 	 	 	1581516433	5.51	10.20
12/02/2020 14:07:14	120220	12022020	140714	91.18	12.418748	-57.150063	91.19	-1.250	1.370	0.240	91.18	0.20	0.70	 	 	 	 	 	 	 	 	 	 	 	 	 	 	 	 	 	 	1581516434	6.60	12.22
12/02/2020 14:07:15	120220	12022020	140715	91.18	12.418747	-57.150022	91.21	-0.540	-0.760	0.070	91.19	-1.80	0.50	 	 	 	 	 	 	 	 	 	 	 	 	 	 	 	 	 	 	1581516435	8.99	16.65
12/02/2020 14:07:16	120220	12022020	140716	91.19	12.418745	-57.149973	91.18	0.540	-2.250	0.220	91.16	-3.50	0.60	 	 	 	 	 	 	 	 	 	 	 	 	 	 	 	 	 	 	1581516436	9.99	18.50
12/02/2020 14:07:17	120220	12022020	140717	90.92	12.418742	-57.149932	90.86	1.090	-1.930	0.860	90.84	-3.40	1.20	 	 	 	 	 	 	 	 	 	 	 	 	 	 	 	 	 	 	1581516437	8.86	16.41
12/02/2020 14:07:18	120220	12022020	140718	90.43	12.418737	-57.149898	90.36	0.900	-0.450	1.500	90.32	-2.00	1.80	 	 	 	 	 	 	 	 	 	 	 	 	 	 	 	 	 	 	1581516438	7.16	13.26
12/02/2020 14:07:19	120220	12022020	140719	89.94	12.418735	-57.149868	89.91	0.390	0.730	1.760	89.86	-0.80	2.20	 	 	 	 	 	 	 	 	 	 	 	 	 	 	 	 	 	 	1581516439	6.54	12.11
12/02/2020 14:07:20	120220	12022020	140720	89.68	12.418735	-57.149833	89.71	-0.070	1.030	1.680	89.67	-0.30	2.10	 	 	 	 	 	 	 	 	 	 	 	 	 	 	 	 	 	 	1581516440	7.23	13.39
12/02/2020 14:07:21	120220	12022020	140721	89.64	12.418737	-57.149797	89.69	-0.320	0.580	1.450	89.64	-0.70	1.90	 	 	 	 	 	 	 	 	 	 	 	 	 	 	 	 	 	 	1581516441	8.02	14.85
12/02/2020 14:07:22	120220	12022020	140722	89.62	12.418738	-57.149755	89.67	-0.380	-0.090	1.350	89.62	-1.40	1.80	 	 	 	 	 	 	 	 	 	 	 	 	 	 	 	 	 	 	1581516442	8.52	15.78
12/02/2020 14:07:23	120220	12022020	140723	89.63	12.418738	-57.149717	89.69	-0.410	-0.370	1.490	89.64	-1.70	1.90	 	 	 	 	 	 	 	 	 	 	 	 	 	 	 	 	 	 	1581516443	8.34	15.45
12/02/2020 14:07:24	120220	12022020	140724	89.65	12.418737	-57.149680	89.70	-0.300	-0.520	1.790	89.64	-1.80	2.20	 	 	 	 	 	 	 	 	 	 	 	 	 	 	 	 	 	 	1581516444	7.81	14.46
12/02/2020 14:07:25	120220	12022020	140725	89.53	12.418733	-57.149642	89.53	0.160	-0.990	2.110	89.47	-2.30	2.50	 	 	 	 	 	 	 	 	 	 	 	 	 	 	 	 	 	 	1581516445	8.02	14.85
12/02/2020 14:07:26	120220	12022020	140726	89.23	12.418732	-57.149600	89.23	0.780	-1.410	2.310	89.17	-2.70	2.70	 	 	 	 	 	 	 	 	 	 	 	 	 	 	 	 	 	 	1581516446	8.67	16.06
12/02/2020 14:07:27	120220	12022020	140727	89.10	12.418732	-57.149560	89.18	1.020	-1.050	2.040	89.11	-2.50	2.50	 	 	 	 	 	 	 	 	 	 	 	 	 	 	 	 	 	 	1581516447	8.62	15.96
12/02/2020 14:07:28	120220	12022020	140728	89.23	12.418735	-57.149523	89.32	0.620	0.110	1.530	89.26	-1.40	2.00	 	 	 	 	 	 	 	 	 	 	 	 	 	 	 	 	 	 	1581516448	7.71	14.28
12/02/2020 14:07:29	120220	12022020	140729	89.36	12.418738	-57.149490	89.41	-0.170	1.240	1.010	89.38	-0.20	1.50	 	 	 	 	 	 	 	 	 	 	 	 	 	 	 	 	 	 	1581516449	6.96	12.89
12/02/2020 14:07:30	120220	12022020	140730	89.49	12.418743	-57.149457	89.56	-0.780	1.410	0.290	89.54	0.10	0.80	 	 	 	 	 	 	 	 	 	 	 	 	 	 	 	 	 	 	1581516450	7.18	13.30
12/02/2020 14:07:31	120220	12022020	140731	89.79	12.418748	-57.149420	89.86	-0.880	0.540	-0.310	89.85	-0.60	0.20	 	 	 	 	 	 	 	 	 	 	 	 	 	 	 	 	 	 	1581516451	8.11	15.02
12/02/2020 14:07:32	120220	12022020	140732	89.97	12.418750	-57.149377	89.98	-0.390	-0.960	-0.290	89.97	-2.10	0.10	 	 	 	 	 	 	 	 	 	 	 	 	 	 	 	 	 	 	1581516452	8.89	16.46
12/02/2020 14:07:33	120220	12022020	140733	89.85	12.418748	-57.149332	89.81	0.450	-2.240	0.020	89.80	-3.40	0.40	 	 	 	 	 	 	 	 	 	 	 	 	 	 	 	 	 	 	1581516453	9.51	17.61
12/02/2020 14:07:34	120220	12022020	140734	89.62	12.418747	-57.149288	89.61	1.030	-2.180	0.460	89.58	-3.60	0.80	 	 	 	 	 	 	 	 	 	 	 	 	 	 	 	 	 	 	1581516454	9.27	17.17
12/02/2020 14:07:35	120220	12022020	140735	89.50	12.418745	-57.149252	89.53	0.830	-0.570	0.890	89.49	-2.20	1.30	 	 	 	 	 	 	 	 	 	 	 	 	 	 	 	 	 	 	1581516455	7.85	14.54
12/02/2020 14:07:36	120220	12022020	140736	89.56	12.418745	-57.149222	89.65	-0.070	1.500	1.050	89.59	-0.10	1.50	 	 	 	 	 	 	 	 	 	 	 	 	 	 	 	 	 	 	1581516456	6.44	11.93
12/02/2020 14:07:37	120220	12022020	140737	89.80	12.418745	-57.149192	89.92	-1.040	2.390	1.070	89.86	1.00	1.50	 	 	 	 	 	 	 	 	 	 	 	 	 	 	 	 	 	 	1581516457	6.16	11.41
12/02/2020 14:07:38	120220	12022020	140738	90.08	12.418745	-57.149157	90.18	-1.190	1.030	1.150	90.12	-0.00	1.60	 	 	 	 	 	 	 	 	 	 	 	 	 	 	 	 	 	 	1581516458	7.57	14.02
12/02/2020 14:07:39	120220	12022020	140739	90.07	12.418743	-57.149110	90.05	-0.310	-1.540	1.320	90.01	-2.60	1.70	 	 	 	 	 	 	 	 	 	 	 	 	 	 	 	 	 	 	1581516459	9.85	18.24
12/02/2020 14:07:40	120220	12022020	140740	89.62	12.418742	-57.149060	89.57	0.750	-2.850	1.770	89.52	-4.20	2.10	 	 	 	 	 	 	 	 	 	 	 	 	 	 	 	 	 	 	1581516460	10.53	19.50
12/02/2020 14:07:41	120220	12022020	140741	89.19	12.418738	-57.149018	89.24	1.100	-1.880	2.160	89.16	-3.50	2.50	 	 	 	 	 	 	 	 	 	 	 	 	 	 	 	 	 	 	1581516461	8.83	16.35
12/02/2020 14:07:42	120220	12022020	140742	89.24	12.418738	-57.148987	89.40	0.520	0.390	1.850	89.31	-1.30	2.40	 	 	 	 	 	 	 	 	 	 	 	 	 	 	 	 	 	 	1581516462	6.67	12.35
12/02/2020 14:07:43	120220	12022020	140743	89.66	12.418742	-57.148958	89.80	-0.430	1.980	0.990	89.74	0.50	1.50	 	 	 	 	 	 	 	 	 	 	 	 	 	 	 	 	 	 	1581516463	5.85	10.83
12/02/2020 14:07:44	120220	12022020	140744	89.86	12.418747	-57.148927	89.88	-0.870	1.530	0.290	89.85	0.40	0.80	 	 	 	 	 	 	 	 	 	 	 	 	 	 	 	 	 	 	1581516464	7.02	13.00
12/02/2020 14:07:45	120220	12022020	140745	89.64	12.418748	-57.148883	89.60	-0.380	-0.490	0.160	89.57	-1.50	0.60	 	 	 	 	 	 	 	 	 	 	 	 	 	 	 	 	 	 	1581516465	9.08	16.82
12/02/2020 14:07:46	120220	12022020	140746	89.29	12.418750	-57.148835	89.26	0.540	-2.090	0.320	89.22	-3.30	0.70	 	 	 	 	 	 	 	 	 	 	 	 	 	 	 	 	 	 	1581516466	10.22	18.93
12/02/2020 14:07:47	120220	12022020	140747	89.02	12.418750	-57.148790	89.04	0.870	-1.910	0.520	88.99	-3.40	0.90	 	 	 	 	 	 	 	 	 	 	 	 	 	 	 	 	 	 	1581516467	9.35	17.32
12/02/2020 14:07:48	120220	12022020	140748	88.93	12.418750	-57.148755	89.00	0.270	-0.350	0.650	88.93	-2.00	1.00	 	 	 	 	 	 	 	 	 	 	 	 	 	 	 	 	 	 	1581516468	7.50	13.89
12/02/2020 14:07:49	120220	12022020	140749	89.02	12.418750	-57.148725	89.12	-0.650	1.250	0.840	89.06	-0.30	1.20	 	 	 	 	 	 	 	 	 	 	 	 	 	 	 	 	 	 	1581516469	6.41	11.87
12/02/2020 14:07:50	120220	12022020	140750	89.25	12.418750	-57.148693	89.37	-0.990	1.540	0.960	89.30	0.20	1.40	 	 	 	 	 	 	 	 	 	 	 	 	 	 	 	 	 	 	1581516470	6.71	12.43
12/02/2020 14:07:51	120220	12022020	140751	89.51	12.418748	-57.148653	89.59	-0.490	0.190	1.170	89.53	-0.90	1.50	 	 	 	 	 	 	 	 	 	 	 	 	 	 	 	 	 	 	1581516471	8.31	15.39
12/02/2020 14:07:52	120220	12022020	140752	89.52	12.418747	-57.148607	89.52	0.290	-1.510	1.680	89.48	-2.70	2.00	 	 	 	 	 	 	 	 	 	 	 	 	 	 	 	 	 	 	1581516472	9.83	18.21
12/02/2020 14:07:53	120220	12022020	140753	89.20	12.418743	-57.148562	89.16	0.640	-1.840	2.210	89.12	-3.30	2.50	 	 	 	 	 	 	 	 	 	 	 	 	 	 	 	 	 	 	1581516473	9.70	17.96
12/02/2020 14:07:54	120220	12022020	140754	88.71	12.418740	-57.148523	88.67	0.330	-0.660	2.590	88.62	-2.30	3.00	 	 	 	 	 	 	 	 	 	 	 	 	 	 	 	 	 	 	1581516474	8.00	14.82
12/02/2020 14:07:55	120220	12022020	140755	88.36	12.418740	-57.148492	88.40	-0.140	0.680	2.410	88.34	-0.90	2.90	 	 	 	 	 	 	 	 	 	 	 	 	 	 	 	 	 	 	1581516475	6.76	12.52
12/02/2020 14:07:56	120220	12022020	140756	88.47	12.418745	-57.148458	88.59	-0.300	1.060	1.370	88.53	-0.30	2.00	 	 	 	 	 	 	 	 	 	 	 	 	 	 	 	 	 	 	1581516476	7.12	13.19
12/02/2020 14:07:57	120220	12022020	140757	88.77	12.418753	-57.148420	88.84	-0.200	0.560	0.240	88.81	-0.70	0.80	 	 	 	 	 	 	 	 	 	 	 	 	 	 	 	 	 	 	1581516477	8.24	15.26
12/02/2020 14:07:58	120220	12022020	140758	88.90	12.418760	-57.148380	88.91	-0.080	-0.390	-0.390	88.90	-1.60	0.10	 	 	 	 	 	 	 	 	 	 	 	 	 	 	 	 	 	 	1581516478	8.80	16.30
12/02/2020 14:07:59	120220	12022020	140759	88.92	12.418765	-57.148337	88.95	0.120	-1.430	-0.530	88.93	-2.70	-0.10	 	 	 	 	 	 	 	 	 	 	 	 	 	 	 	 	 	 	1581516479	9.07	16.80
12/02/2020 14:08:00	120220	12022020	140800	88.87	12.418765	-57.148293	88.83	0.390	-1.840	-0.120	88.82	-3.20	0.20	 	 	 	 	 	 	 	 	 	 	 	 	 	 	 	 	 	 	1581516480	9.18	17.00
12/02/2020 14:08:01	120220	12022020	140801	88.60	12.418763	-57.148253	88.58	0.440	-1.070	0.550	88.55	-2.60	0.90	 	 	 	 	 	 	 	 	 	 	 	 	 	 	 	 	 	 	1581516481	8.58	15.89
12/02/2020 14:08:02	120220	12022020	140802	88.51	12.418762	-57.148217	88.60	0.080	0.500	1.080	88.54	-1.10	1.40	1017.30	26.50	26.60	20.30	20.40	531.0	68.0	68.0	434.0	28.3	353.00	14.30	80.00	10.20	43992	13634.0	27.5	27.5	1581516482	7.43	13.76
12/02/2020 14:08:03	120220	12022020	140803	88.75	12.418760	-57.148185	88.87	-0.450	1.630	1.510	88.80	0.20	1.90	 	 	 	 	 	 	 	 	 	 	 	 	 	 	 	 	 	 	1581516483	6.75	12.50
12/02/2020 14:08:04	120220	12022020	140804	88.85	12.418758	-57.148150	88.89	-0.650	1.200	1.860	88.83	-0.00	2.20	 	 	 	 	 	 	 	 	 	 	 	 	 	 	 	 	 	 	1581516484	7.45	13.80
12/02/2020 14:08:05	120220	12022020	140805	88.74	12.418758	-57.148108	88.78	-0.360	-0.400	1.880	88.73	-2.50	2.30	 	 	 	 	 	 	 	 	 	 	 	 	 	 	 	 	 	 	1581516485	9.05	16.76
12/02/2020 14:08:06	120220	12022020	140806	88.84	12.418760	-57.148062	88.97	0.160	-1.690	1.830	88.90	-2.90	2.30	 	 	 	 	 	 	 	 	 	 	 	 	 	 	 	 	 	 	1581516486	9.81	18.17
12/02/2020 14:08:07	120220	12022020	140807	89.23	12.418762	-57.148018	89.39	0.550	-1.720	1.630	89.31	-3.10	2.10	 	 	 	 	 	 	 	 	 	 	 	 	 	 	 	 	 	 	1581516487	9.17	16.98
12/02/2020 14:08:08	120220	12022020	140808	89.61	12.418765	-57.147980	89.71	0.510	-0.710	1.250	89.65	-2.30	1.70	 	 	 	 	 	 	 	 	 	 	 	 	 	 	 	 	 	 	1581516488	7.97	14.76
12/02/2020 14:08:09	120220	12022020	140809	89.69	12.418768	-57.147947	89.70	0.050	0.510	1.150	89.66	-1.00	1.60	 	 	 	 	 	 	 	 	 	 	 	 	 	 	 	 	 	 	1581516489	7.22	13.37
12/02/2020 14:08:10	120220	12022020	140810	89.42	12.418768	-57.147912	89.37	-0.470	1.010	1.280	89.34	-0.40	1.70	 	 	 	 	 	 	 	 	 	 	 	 	 	 	 	 	 	 	1581516490	7.23	13.39
12/02/2020 14:08:11	120220	12022020	140811	89.13	12.418770	-57.147873	89.17	-0.600	0.440	1.090	89.12	-0.80	1.60	 	 	 	 	 	 	 	 	 	 	 	 	 	 	 	 	 	 	1581516491	8.10	15.00
12/02/2020 14:08:12	120220	12022020	140812	89.29	12.418772	-57.147830	89.40	-0.260	-0.500	0.540	89.35	-1.80	1.00	 	 	 	 	 	 	 	 	 	 	 	 	 	 	 	 	 	 	1581516492	9.10	16.85
12/02/2020 14:08:13	120220	12022020	140813	89.57	12.418775	-57.147787	89.62	0.280	-1.240	0.170	89.59	-2.50	0.60	 	 	 	 	 	 	 	 	 	 	 	 	 	 	 	 	 	 	1581516493	9.20	17.04
12/02/2020 14:08:14	120220	12022020	140814	89.56	12.418777	-57.147745	89.54	0.690	-1.550	0.210	89.52	-2.90	0.60	 	 	 	 	 	 	 	 	 	 	 	 	 	 	 	 	 	 	1581516494	9.13	16.91
12/02/2020 14:08:15	120220	12022020	140815	89.38	12.418778	-57.147703	89.39	0.550	-0.700	0.700	89.35	-2.30	1.00	 	 	 	 	 	 	 	 	 	 	 	 	 	 	 	 	 	 	1581516495	8.73	16.17
12/02/2020 14:08:16	120220	12022020	140816	89.36	12.418777	-57.147668	89.45	-0.160	0.960	1.080	89.40	-0.70	1.50	 	 	 	 	 	 	 	 	 	 	 	 	 	 	 	 	 	 	1581516496	7.29	13.50
12/02/2020 14:08:17	120220	12022020	140817	89.63	12.418777	-57.147637	89.77	-0.820	1.780	1.060	89.71	0.40	1.50	 	 	 	 	 	 	 	 	 	 	 	 	 	 	 	 	 	 	1581516497	6.57	12.17
12/02/2020 14:08:18	120220	12022020	140818	89.96	12.418777	-57.147600	90.05	-0.750	0.700	1.110	89.99	-0.40	1.50	 	 	 	 	 	 	 	 	 	 	 	 	 	 	 	 	 	 	1581516498	7.83	14.50
12/02/2020 14:08:19	120220	12022020	140819	89.96	12.418777	-57.147555	89.96	-0.050	-1.220	1.340	89.92	-2.30	1.70	 	 	 	 	 	 	 	 	 	 	 	 	 	 	 	 	 	 	1581516499	9.72	18.00
12/02/2020 14:08:20	120220	12022020	140820	89.70	12.418777	-57.147507	89.71	0.590	-2.190	1.680	89.66	-3.50	2.00	 	 	 	 	 	 	 	 	 	 	 	 	 	 	 	 	 	 	1581516500	10.11	18.72
12/02/2020 14:08:21	120220	12022020	140821	89.58	12.418777	-57.147465	89.67	0.630	-1.430	1.890	89.59	-3.00	2.30	 	 	 	 	 	 	 	 	 	 	 	 	 	 	 	 	 	 	1581516501	8.77	16.24
12/02/2020 14:08:22	120220	12022020	140822	89.68	12.418777	-57.147432	89.77	0.150	0.130	1.750	89.70	-1.50	2.20	 	 	 	 	 	 	 	 	 	 	 	 	 	 	 	 	 	 	1581516502	7.21	13.35
12/02/2020 14:08:23	120220	12022020	140823	89.75	12.418778	-57.147398	89.82	-0.420	1.070	1.420	89.77	-0.40	1.90	 	 	 	 	 	 	 	 	 	 	 	 	 	 	 	 	 	 	1581516503	6.92	12.82
12/02/2020 14:08:24	120220	12022020	140824	89.82	12.418782	-57.147362	89.90	-0.650	0.760	1.030	89.84	-0.50	1.50	 	 	 	 	 	 	 	 	 	 	 	 	 	 	 	 	 	 	1581516504	7.89	14.61
12/02/2020 14:08:25	120220	12022020	140825	89.96	12.418782	-57.147318	90.05	-0.390	-0.280	0.760	90.01	-1.50	1.20	 	 	 	 	 	 	 	 	 	 	 	 	 	 	 	 	 	 	1581516505	9.07	16.80
12/02/2020 14:08:26	120220	12022020	140826	90.20	12.418783	-57.147273	90.30	0.000	-0.830	0.540	90.25	-2.20	1.00	 	 	 	 	 	 	 	 	 	 	 	 	 	 	 	 	 	 	1581516506	9.45	17.50
12/02/2020 14:08:27	120220	12022020	140827	90.40	12.418785	-57.147233	90.42	0.090	-0.580	0.270	90.40	-2.00	0.70	 	 	 	 	 	 	 	 	 	 	 	 	 	 	 	 	 	 	1581516507	8.59	15.91
12/02/2020 14:08:28	120220	12022020	140828	90.24	12.418785	-57.147195	90.15	0.010	-0.210	0.430	90.15	-1.60	0.80	 	 	 	 	 	 	 	 	 	 	 	 	 	 	 	 	 	 	1581516508	7.88	14.59
12/02/2020 14:08:29	120220	12022020	140829	89.75	12.418785	-57.147157	89.65	0.120	-0.260	0.860	89.65	-1.60	1.20	 	 	 	 	 	 	 	 	 	 	 	 	 	 	 	 	 	 	1581516509	8.09	14.98
12/02/2020 14:08:30	120220	12022020	140830	89.49	12.418788	-57.147117	89.55	0.440	-0.620	0.780	89.52	-1.90	1.30	 	 	 	 	 	 	 	 	 	 	 	 	 	 	 	 	 	 	1581516510	8.74	16.19
12/02/2020 14:08:31	120220	12022020	140831	89.88	12.418793	-57.147073	90.04	0.600	-0.730	0.300	90.00	-2.10	0.80	 	 	 	 	 	 	 	 	 	 	 	 	 	 	 	 	 	 	1581516511	9.08	16.82
12/02/2020 14:08:32	120220	12022020	140832	90.49	12.418797	-57.147033	90.62	0.310	-0.280	0.160	90.60	-1.70	0.60	 	 	 	 	 	 	 	 	 	 	 	 	 	 	 	 	 	 	1581516512	8.63	15.98
12/02/2020 14:08:33	120220	12022020	140833	90.82	12.418795	-57.146995	90.84	-0.260	0.260	0.710	90.83	-1.20	1.00	 	 	 	 	 	 	 	 	 	 	 	 	 	 	 	 	 	 	1581516513	7.98	14.78
12/02/2020 14:08:34	120220	12022020	140834	90.70	12.418790	-57.146957	90.65	-0.650	0.320	1.680	90.64	-1.00	1.90	 	 	 	 	 	 	 	 	 	 	 	 	 	 	 	 	 	 	1581516514	8.21	15.20
12/02/2020 14:08:35	120220	12022020	140835	90.37	12.418782	-57.146915	90.35	-0.570	-0.030	2.340	90.32	-1.30	2.70	 	 	 	 	 	 	 	 	 	 	 	 	 	 	 	 	 	 	1581516515	8.85	16.39
12/02/2020 14:08:36	120220	12022020	140836	90.16	12.418780	-57.146873	90.18	-0.230	-0.260	2.330	90.15	-1.60	2.80	 	 	 	 	 	 	 	 	 	 	 	 	 	 	 	 	 	 	1581516516	8.96	16.59
12/02/2020 14:08:37	120220	12022020	140837	90.22	12.418783	-57.146832	90.31	0.010	-0.410	1.800	90.27	-1.70	2.30	 	 	 	 	 	 	 	 	 	 	 	 	 	 	 	 	 	 	1581516517	8.70	16.11
12/02/2020 14:08:38	120220	12022020	140838	90.53	12.418788	-57.146792	90.62	0.110	-0.690	1.030	90.59	-2.00	1.60	 	 	 	 	 	 	 	 	 	 	 	 	 	 	 	 	 	 	1581516518	8.73	16.17
12/02/2020 14:08:39	120220	12022020	140839	90.74	12.418792	-57.146748	90.76	0.170	-0.710	0.500	90.75	-2.10	1.00	 	 	 	 	 	 	 	 	 	 	 	 	 	 	 	 	 	 	1581516519	8.92	16.52
12/02/2020 14:08:40	120220	12022020	140840	90.79	12.418795	-57.146708	90.81	0.180	-0.230	0.400	90.80	-1.70	0.80	 	 	 	 	 	 	 	 	 	 	 	 	 	 	 	 	 	 	1581516520	8.52	15.78
12/02/2020 14:08:41	120220	12022020	140841	90.84	12.418795	-57.146670	90.85	0.180	-0.010	0.410	90.84	-1.40	0.80	 	 	 	 	 	 	 	 	 	 	 	 	 	 	 	 	 	 	1581516521	8.18	15.15
12/02/2020 14:08:42	120220	12022020	140842	90.74	12.418793	-57.146628	90.70	0.290	-0.470	0.460	90.70	-1.70	0.90	 	 	 	 	 	 	 	 	 	 	 	 	 	 	 	 	 	 	1581516522	8.79	16.28
12/02/2020 14:08:43	120220	12022020	140843	90.55	12.418793	-57.146583	90.56	0.450	-0.930	0.460	90.54	-2.30	0.90	 	 	 	 	 	 	 	 	 	 	 	 	 	 	 	 	 	 	1581516523	9.56	17.71
12/02/2020 14:08:44	120220	12022020	140844	90.66	12.418797	-57.146540	90.76	0.360	-0.470	0.320	90.72	-2.00	0.80	 	 	 	 	 	 	 	 	 	 	 	 	 	 	 	 	 	 	1581516524	9.24	17.11
12/02/2020 14:08:45	120220	12022020	140845	91.04	12.418798	-57.146502	91.14	-0.130	0.610	0.340	91.10	-0.90	0.70	 	 	 	 	 	 	 	 	 	 	 	 	 	 	 	 	 	 	1581516525	8.12	15.04
12/02/2020 14:08:46	120220	12022020	140846	91.20	12.418797	-57.146465	91.21	-0.750	1.160	0.780	91.19	-0.20	1.10	 	 	 	 	 	 	 	 	 	 	 	 	 	 	 	 	 	 	1581516526	7.59	14.06
12/02/2020 14:08:47	120220	12022020	140847	91.06	12.418793	-57.146427	91.08	-0.970	0.580	1.300	91.03	-0.60	1.60	 	 	 	 	 	 	 	 	 	 	 	 	 	 	 	 	 	 	1581516527	8.31	15.39
12/02/2020 14:08:48	120220	12022020	140848	91.07	12.418790	-57.146382	91.17	-0.550	-0.670	1.490	91.10	-1.80	1.90	 	 	 	 	 	 	 	 	 	 	 	 	 	 	 	 	 	 	1581516528	9.40	17.41
12/02/2020 14:08:49	120220	12022020	140849	91.19	12.418788	-57.146335	91.26	0.190	-1.710	1.660	91.19	-2.90	2.00	 	 	 	 	 	 	 	 	 	 	 	 	 	 	 	 	 	 	1581516529	9.86	18.26
12/02/2020 14:08:50	120220	12022020	140850	91.03	12.418787	-57.146290	91.03	0.720	-1.920	1.880	90.97	-3.30	2.30	 	 	 	 	 	 	 	 	 	 	 	 	 	 	 	 	 	 	1581516530	9.59	17.76
12/02/2020 14:08:51	120220	12022020	140851	90.74	12.418787	-57.146248	90.76	0.780	-1.160	1.900	90.70	-2.70	2.30	 	 	 	 	 	 	 	 	 	 	 	 	 	 	 	 	 	 	1581516531	8.93	16.54
12/02/2020 14:08:52	120220	12022020	140852	90.65	12.418787	-57.146208	90.73	0.480	0.160	1.600	90.67	-1.40	2.10	 	 	 	 	 	 	 	 	 	 	 	 	 	 	 	 	 	 	1581516532	8.20	15.19
12/02/2020 14:08:53	120220	12022020	140853	90.85	12.418790	-57.146172	90.97	-0.010	1.170	0.970	90.91	-0.30	1.50	 	 	 	 	 	 	 	 	 	 	 	 	 	 	 	 	 	 	1581516533	7.89	14.61
12/02/2020 14:08:54	120220	12022020	140854	91.12	12.418795	-57.146132	91.19	-0.540	1.230	0.300	91.15	-0.10	0.80	 	 	 	 	 	 	 	 	 	 	 	 	 	 	 	 	 	 	1581516534	8.38	15.52
12/02/2020 14:08:55	120220	12022020	140855	91.15	12.418797	-57.146090	91.15	-0.850	0.550	-0.010	91.13	-0.70	0.40	 	 	 	 	 	 	 	 	 	 	 	 	 	 	 	 	 	 	1581516535	9.03	16.72
12/02/2020 14:08:56	120220	12022020	140856	91.01	12.418798	-57.146045	91.01	-0.600	-0.470	0.110	90.98	-1.70	0.50	 	 	 	 	 	 	 	 	 	 	 	 	 	 	 	 	 	 	1581516536	9.39	17.39
12/02/2020 14:08:57	120220	12022020	140857	90.98	12.418797	-57.146000	91.04	0.190	-1.450	0.210	91.01	-2.70	0.60	 	 	 	 	 	 	 	 	 	 	 	 	 	 	 	 	 	 	1581516537	9.70	17.96
12/02/2020 14:08:58	120220	12022020	140858	90.99	12.418795	-57.145953	91.00	0.820	-1.680	0.330	90.97	-3.10	0.70	 	 	 	 	 	 	 	 	 	 	 	 	 	 	 	 	 	 	1581516538	9.71	17.98
12/02/2020 14:08:59	120220	12022020	140859	90.78	12.418795	-57.145912	90.77	0.710	-0.900	0.660	90.73	-2.40	1.00	 	 	 	 	 	 	 	 	 	 	 	 	 	 	 	 	 	 	1581516539	8.91	16.50
12/02/2020 14:09:00	120220	12022020	140900	90.66	12.418795	-57.145873	90.74	-0.030	0.430	1.050	90.68	-1.10	1.40	 	 	 	 	 	 	 	 	 	 	 	 	 	 	 	 	 	 	1581516540	7.92	14.67
12/02/2020 14:09:01	120220	12022020	140901	90.90	12.418795	-57.145838	91.05	-0.750	1.130	1.290	90.97	-0.20	1.70	 	 	 	 	 	 	 	 	 	 	 	 	 	 	 	 	 	 	1581516541	7.51	13.91
12/02/2020 14:09:02	120220	12022020	140902	91.24	12.418793	-57.145798	91.36	-0.670	0.150	1.290	91.28	-1.00	1.70	1017.30	26.60	26.60	20.60	20.60	583.0	69.0	69.0	437.0	28.3	350.00	14.30	75.00	10.00	46486	11556.0	27.5	27.5	1581516542	8.57	15.87
12/02/2020 14:09:03	120220	12022020	140903	91.25	12.418790	-57.145748	91.26	0.260	-1.580	1.560	91.19	-2.70	1.90	 	 	 	 	 	 	 	 	 	 	 	 	 	 	 	 	 	 	1581516543	10.51	19.46
12/02/2020 14:09:04	120220	12022020	140904	90.96	12.418788	-57.145697	90.97	0.940	-1.570	1.900	90.90	-3.10	2.30	 	 	 	 	 	 	 	 	 	 	 	 	 	 	 	 	 	 	1581516544	10.78	19.96
12/02/2020 14:09:05	120220	12022020	140905	90.76	12.418787	-57.145658	90.85	0.470	0.390	2.040	90.76	-1.30	2.40	 	 	 	 	 	 	 	 	 	 	 	 	 	 	 	 	 	 	1581516545	8.31	15.39
12/02/2020 14:09:06	120220	12022020	140906	90.84	12.418788	-57.145627	90.98	-0.770	1.980	1.760	90.88	0.50	2.20	 	 	 	 	 	 	 	 	 	 	 	 	 	 	 	 	 	 	1581516546	6.50	12.04
12/02/2020 14:09:07	120220	12022020	140907	91.13	12.418792	-57.145592	91.29	-1.450	1.330	0.910	91.20	0.20	1.50	 	 	 	 	 	 	 	 	 	 	 	 	 	 	 	 	 	 	1581516547	7.45	13.80
12/02/2020 14:09:08	120220	12022020	140908	91.50	12.418795	-57.145547	91.62	-0.940	-0.640	0.170	91.55	-1.70	0.70	 	 	 	 	 	 	 	 	 	 	 	 	 	 	 	 	 	 	1581516548	9.80	18.15
12/02/2020 14:09:09	120220	12022020	140909	91.65	12.418795	-57.145497	91.70	0.210	-2.080	-0.020	91.65	-3.30	0.40	 	 	 	 	 	 	 	 	 	 	 	 	 	 	 	 	 	 	1581516549	10.53	19.50
12/02/2020 14:09:10	120220	12022020	140910	91.49	12.418793	-57.145450	91.45	1.130	-2.230	0.120	91.41	-3.60	0.50	 	 	 	 	 	 	 	 	 	 	 	 	 	 	 	 	 	 	1581516550	9.78	18.11
12/02/2020 14:09:11	120220	12022020	140911	91.07	12.418792	-57.145408	91.04	1.320	-1.230	0.480	90.99	-2.80	0.80	 	 	 	 	 	 	 	 	 	 	 	 	 	 	 	 	 	 	1581516551	8.67	16.06
12/02/2020 14:09:12	120220	12022020	140912	90.86	12.418792	-57.145372	90.93	0.830	0.200	0.530	90.87	-1.40	1.00	 	 	 	 	 	 	 	 	 	 	 	 	 	 	 	 	 	 	1581516552	7.88	14.59
12/02/2020 14:09:13	120220	12022020	140913	91.08	12.418797	-57.145335	91.20	0.100	1.210	0.080	91.14	-0.30	0.60	 	 	 	 	 	 	 	 	 	 	 	 	 	 	 	 	 	 	1581516553	7.79	14.43
12/02/2020 14:09:14	120220	12022020	140914	91.35	12.418802	-57.145297	91.47	-0.640	1.450	-0.080	91.41	0.10	0.30	 	 	 	 	 	 	 	 	 	 	 	 	 	 	 	 	 	 	1581516554	8.34	15.45
12/02/2020 14:09:15	120220	12022020	140915	91.62	12.418802	-57.145255	91.75	-1.260	1.000	0.400	91.67	-0.20	0.70	 	 	 	 	 	 	 	 	 	 	 	 	 	 	 	 	 	 	1581516555	8.65	16.02
12/02/2020 14:09:16	120220	12022020	140916	91.85	12.418797	-57.145212	91.97	-1.280	-0.350	1.100	91.88	-1.40	1.40	 	 	 	 	 	 	 	 	 	 	 	 	 	 	 	 	 	 	1581516556	9.14	16.93
12/02/2020 14:09:17	120220	12022020	140917	91.87	12.418787	-57.145165	91.92	-0.330	-2.240	1.930	91.82	-3.30	2.20	 	 	 	 	 	 	 	 	 	 	 	 	 	 	 	 	 	 	1581516557	10.20	18.89
12/02/2020 14:09:18	120220	12022020	140918	91.60	12.418778	-57.145115	91.67	1.050	-2.910	2.470	91.56	-4.30	2.80	 	 	 	 	 	 	 	 	 	 	 	 	 	 	 	 	 	 	1581516558	10.80	20.00
12/02/2020 14:09:19	120220	12022020	140919	91.46	12.418777	-57.145072	91.57	1.450	-1.050	2.210	91.46	-0.90	2.20	 	 	 	 	 	 	 	 	 	 	 	 	 	 	 	 	 	 	1581516559	9.08	16.82
12/02/2020 14:09:20	120220	12022020	140920	91.43	12.418780	-57.145040	91.51	0.470	1.680	1.380	91.42	-0.00	1.90	 	 	 	 	 	 	 	 	 	 	 	 	 	 	 	 	 	 	1581516560	6.60	12.22
12/02/2020 14:09:21	120220	12022020	140921	91.35	12.418787	-57.145012	91.41	-0.860	2.730	0.350	91.34	1.40	0.90	 	 	 	 	 	 	 	 	 	 	 	 	 	 	 	 	 	 	1581516561	6.33	11.72
12/02/2020 14:09:22	120220	12022020	140922	91.40	12.418793	-57.144973	91.51	-1.220	1.270	-0.650	91.45	0.30	-0.10	 	 	 	 	 	 	 	 	 	 	 	 	 	 	 	 	 	 	1581516562	8.32	15.41
12/02/2020 14:09:23	120220	12022020	140923	91.65	12.418798	-57.144923	91.74	-0.360	-1.160	-1.410	91.69	-2.10	-0.90	 	 	 	 	 	 	 	 	 	 	 	 	 	 	 	 	 	 	1581516563	10.46	19.37
12/02/2020 14:09:24	120220	12022020	140924	91.70	12.418800	-57.144873	91.69	0.790	-2.650	-1.510	91.66	-3.80	-1.10	 	 	 	 	 	 	 	 	 	 	 	 	 	 	 	 	 	 	1581516564	10.77	19.95
12/02/2020 14:09:25	120220	12022020	140925	91.39	12.418798	-57.144827	91.34	1.280	-2.450	-0.680	91.31	-3.90	-0.40	 	 	 	 	 	 	 	 	 	 	 	 	 	 	 	 	 	 	1581516565	9.59	17.76
12/02/2020 14:09:26	120220	12022020	140926	90.98	12.418793	-57.144788	90.99	0.880	-0.890	0.540	90.92	-2.50	0.80	 	 	 	 	 	 	 	 	 	 	 	 	 	 	 	 	 	 	1581516566	8.20	15.19
12/02/2020 14:09:27	120220	12022020	140927	90.91	12.418788	-57.144755	91.06	-0.110	1.060	1.430	90.96	-0.50	1.70	 	 	 	 	 	 	 	 	 	 	 	 	 	 	 	 	 	 	1581516567	7.23	13.39
12/02/2020 14:09:28	120220	12022020	140928	91.20	12.418783	-57.144722	91.39	-1.110	2.130	2.010	91.26	0.70	2.30	 	 	 	 	 	 	 	 	 	 	 	 	 	 	 	 	 	 	1581516568	6.96	12.89
12/02/2020 14:09:29	120220	12022020	140929	91.42	12.418778	-57.144685	91.57	-1.310	1.310	2.480	91.44	0.20	2.80	 	 	 	 	 	 	 	 	 	 	 	 	 	 	 	 	 	 	1581516569	7.99	14.80
12/02/2020 14:09:30	120220	12022020	140930	91.53	12.418775	-57.144638	91.68	-0.540	-0.680	2.710	91.55	-1.70	3.10	 	 	 	 	 	 	 	 	 	 	 	 	 	 	 	 	 	 	1581516570	9.89	18.32
12/02/2020 14:09:31	120220	12022020	140931	91.62	12.418770	-57.144588	91.77	0.410	-1.800	2.670	91.63	-3.10	2.90	 	 	 	 	 	 	 	 	 	 	 	 	 	 	 	 	 	 	1581516571	10.49	19.43
12/02/2020 14:09:32	120220	12022020	140932	91.65	12.418770	-57.144547	91.75	0.770	-1.340	2.280	91.64	-2.80	2.70	 	 	 	 	 	 	 	 	 	 	 	 	 	 	 	 	 	 	1581516572	9.09	16.83
12/02/2020 14:09:33	120220	12022020	140933	91.44	12.418773	-57.144510	91.46	0.570	-0.320	1.800	91.37	-1.80	2.30	 	 	 	 	 	 	 	 	 	 	 	 	 	 	 	 	 	 	1581516573	7.67	14.20
12/02/2020 14:09:34	120220	12022020	140934	91.08	12.418777	-57.144473	91.13	0.420	-0.020	1.160	91.03	-1.30	1.70	 	 	 	 	 	 	 	 	 	 	 	 	 	 	 	 	 	 	1581516574	7.82	14.48
12/02/2020 14:09:35	120220	12022020	140935	90.98	12.418783	-57.144432	91.07	0.430	-0.310	0.290	90.99	-1.60	0.90	 	 	 	 	 	 	 	 	 	 	 	 	 	 	 	 	 	 	1581516575	9.02	16.71
12/02/2020 14:09:36	120220	12022020	140936	91.17	12.418788	-57.144387	91.28	0.250	-0.320	-0.510	91.22	-1.70	0.00	 	 	 	 	 	 	 	 	 	 	 	 	 	 	 	 	 	 	1581516576	9.37	17.35
12/02/2020 14:09:37	120220	12022020	140937	91.38	12.418792	-57.144347	91.46	-0.220	0.230	-0.610	91.41	-1.20	-0.20	 	 	 	 	 	 	 	 	 	 	 	 	 	 	 	 	 	 	1581516577	8.66	16.04
12/02/2020 14:09:38	120220	12022020	140938	91.43	12.418788	-57.144308	91.47	-0.640	0.730	-0.030	91.42	-0.60	0.30	 	 	 	 	 	 	 	 	 	 	 	 	 	 	 	 	 	 	1581516578	7.93	14.69
12/02/2020 14:09:39	120220	12022020	140939	91.41	12.418785	-57.144270	91.51	-0.700	0.450	0.490	91.43	-0.80	0.80	 	 	 	 	 	 	 	 	 	 	 	 	 	 	 	 	 	 	1581516579	8.21	15.20
12/02/2020 14:09:40	120220	12022020	140940	91.62	12.418782	-57.144227	91.75	-0.340	-0.480	0.760	91.67	-1.70	1.10	 	 	 	 	 	 	 	 	 	 	 	 	 	 	 	 	 	 	1581516580	9.01	16.69
12/02/2020 14:09:41	120220	12022020	140941	91.66	12.418778	-57.144182	91.69	0.240	-1.380	1.400	91.61	-2.60	1.70	 	 	 	 	 	 	 	 	 	 	 	 	 	 	 	 	 	 	1581516581	9.60	17.78
12/02/2020 14:09:42	120220	12022020	140942	91.30	12.418773	-57.144137	91.27	0.670	-1.530	1.940	91.20	-2.90	2.30	 	 	 	 	 	 	 	 	 	 	 	 	 	 	 	 	 	 	1581516582	9.48	17.56
12/02/2020 14:09:43	120220	12022020	140943	90.87	12.418772	-57.144097	90.91	0.810	-0.830	2.020	90.82	-2.30	2.40	 	 	 	 	 	 	 	 	 	 	 	 	 	 	 	 	 	 	1581516583	8.73	16.17
12/02/2020 14:09:44	120220	12022020	140944	90.83	12.418773	-57.144058	90.98	0.690	0.150	1.650	90.88	-1.30	2.10	 	 	 	 	 	 	 	 	 	 	 	 	 	 	 	 	 	 	1581516584	8.09	14.98
12/02/2020 14:09:45	120220	12022020	140945	91.18	12.418777	-57.144020	91.30	0.350	0.600	0.790	91.24	-0.80	0.80	 	 	 	 	 	 	 	 	 	 	 	 	 	 	 	 	 	 	1581516585	8.18	15.15
12/02/2020 14:09:46	120220	12022020	140946	91.37	12.418782	-57.143978	91.41	-0.100	0.450	0.160	91.37	-0.90	0.60	 	 	 	 	 	 	 	 	 	 	 	 	 	 	 	 	 	 	1581516586	8.81	16.32
12/02/2020 14:09:47	120220	12022020	140947	91.38	12.418783	-57.143935	91.41	-0.520	0.300	0.140	91.38	-1.00	0.50	 	 	 	 	 	 	 	 	 	 	 	 	 	 	 	 	 	 	1581516587	9.07	16.80
12/02/2020 14:09:48	120220	12022020	140948	91.37	12.418783	-57.143895	91.38	-0.750	0.160	0.270	91.35	-1.10	0.60	 	 	 	 	 	 	 	 	 	 	 	 	 	 	 	 	 	 	1581516588	8.60	15.93
12/02/2020 14:09:49	120220	12022020	140949	91.14	12.418782	-57.143853	91.12	-0.610	-0.560	0.690	91.08	-1.70	1.00	 	 	 	 	 	 	 	 	 	 	 	 	 	 	 	 	 	 	1581516589	8.77	16.24
12/02/2020 14:09:50	120220	12022020	140950	90.81	12.418778	-57.143808	90.79	-0.110	-1.620	1.310	90.74	-2.80	1.60	 	 	 	 	 	 	 	 	 	 	 	 	 	 	 	 	 	 	1581516590	9.61	17.80
12/02/2020 14:09:51	120220	12022020	140951	90.45	12.418773	-57.143760	90.41	0.450	-1.880	1.810	90.37	-3.30	2.10	 	 	 	 	 	 	 	 	 	 	 	 	 	 	 	 	 	 	1581516591	10.00	18.52
12/02/2020 14:09:52	120220	12022020	140952	90.13	12.418770	-57.143718	90.17	0.630	-0.680	2.050	90.10	-2.20	2.40	 	 	 	 	 	 	 	 	 	 	 	 	 	 	 	 	 	 	1581516592	8.99	16.65
12/02/2020 14:09:53	120220	12022020	140953	90.17	12.418770	-57.143682	90.29	0.300	0.920	1.930	90.22	-0.60	2.40	 	 	 	 	 	 	 	 	 	 	 	 	 	 	 	 	 	 	1581516593	7.57	14.02
12/02/2020 14:09:54	120220	12022020	140954	90.52	12.418772	-57.143647	90.67	-0.090	1.330	1.380	90.60	0.00	1.90	 	 	 	 	 	 	 	 	 	 	 	 	 	 	 	 	 	 	1581516594	7.59	14.06
12/02/2020 14:09:55	120220	12022020	140955	90.92	12.418775	-57.143603	91.05	-0.090	0.360	0.680	90.99	-0.80	1.20	 	 	 	 	 	 	 	 	 	 	 	 	 	 	 	 	 	 	1581516595	9.03	16.72
12/02/2020 14:09:56	120220	12022020	140956	91.16	12.418777	-57.143557	91.22	0.190	-0.750	0.450	91.17	-2.00	0.80	 	 	 	 	 	 	 	 	 	 	 	 	 	 	 	 	 	 	1581516596	10.10	18.71
12/02/2020 14:09:57	120220	12022020	140957	91.12	12.418778	-57.143510	91.14	0.240	-0.840	0.590	91.09	-2.20	1.00	 	 	 	 	 	 	 	 	 	 	 	 	 	 	 	 	 	 	1581516597	9.66	17.89
12/02/2020 14:09:58	120220	12022020	140958	91.05	12.418777	-57.143472	91.11	-0.110	-0.210	0.670	91.05	-1.60	1.10	 	 	 	 	 	 	 	 	 	 	 	 	 	 	 	 	 	 	1581516598	8.34	15.45
12/02/2020 14:09:59	120220	12022020	140959	91.10	12.418778	-57.143433	91.16	-0.430	-0.020	0.690	91.10	-1.30	1.10	 	 	 	 	 	 	 	 	 	 	 	 	 	 	 	 	 	 	1581516599	7.92	14.67
12/02/2020 14:10:00	120220	12022020	141000	91.00	12.418778	-57.143392	91.02	-0.370	-0.510	0.950	90.97	-1.80	1.30	 	 	 	 	 	 	 	 	 	 	 	 	 	 	 	 	 	 	1581516600	8.79	16.28
12/02/2020 14:10:01	120220	12022020	141001	90.84	12.418778	-57.143347	90.89	-0.010	-1.000	1.220	90.82	-2.30	1.60	 	 	 	 	 	 	 	 	 	 	 	 	 	 	 	 	 	 	1581516601	9.52	17.63
12/02/2020 14:10:02	120220	12022020	141002	90.81	12.418777	-57.143302	90.91	0.320	-1.030	1.400	90.83	-2.40	1.80	1017.40	26.60	26.60	20.70	20.80	649.0	70.0	70.0	438.0	28.4	351.00	14.60	79.00	10.10	49862	12819.0	27.5	27.5	1581516602	9.47	17.54
12/02/2020 14:10:03	120220	12022020	141003	91.02	12.418775	-57.143260	91.21	0.330	-0.560	1.380	91.11	-2.00	1.80	 	 	 	 	 	 	 	 	 	 	 	 	 	 	 	 	 	 	1581516603	9.11	16.87
12/02/2020 14:10:04	120220	12022020	141004	91.48	12.418772	-57.143218	91.66	0.010	0.080	1.440	91.56	-1.40	1.80	 	 	 	 	 	 	 	 	 	 	 	 	 	 	 	 	 	 	1581516604	8.65	16.02
12/02/2020 14:10:05	120220	12022020	141005	91.60	12.418768	-57.143178	91.63	-0.340	0.590	1.650	91.56	-0.80	2.00	 	 	 	 	 	 	 	 	 	 	 	 	 	 	 	 	 	 	1581516605	8.50	15.74
12/02/2020 14:10:06	120220	12022020	141006	91.26	12.418767	-57.143138	91.25	-0.470	0.780	1.630	91.18	-0.60	2.00	 	 	 	 	 	 	 	 	 	 	 	 	 	 	 	 	 	 	1581516606	8.61	15.95
12/02/2020 14:10:07	120220	12022020	141007	90.96	12.418768	-57.143097	91.01	-0.270	0.340	1.300	90.93	-0.90	1.80	 	 	 	 	 	 	 	 	 	 	 	 	 	 	 	 	 	 	1581516607	8.83	16.35
12/02/2020 14:10:08	120220	12022020	141008	90.96	12.418772	-57.143050	91.08	0.210	-0.610	0.690	91.00	-1.80	1.20	 	 	 	 	 	 	 	 	 	 	 	 	 	 	 	 	 	 	1581516608	9.59	17.76
12/02/2020 14:10:09	120220	12022020	141009	91.19	12.418775	-57.143005	91.28	0.500	-1.070	0.060	91.23	-2.40	0.50	 	 	 	 	 	 	 	 	 	 	 	 	 	 	 	 	 	 	1581516609	9.88	18.30
12/02/2020 14:10:10	120220	12022020	141010	91.23	12.418778	-57.142962	91.22	0.240	-0.800	-0.070	91.19	-2.20	0.30	 	 	 	 	 	 	 	 	 	 	 	 	 	 	 	 	 	 	1581516610	9.10	16.85
12/02/2020 14:10:11	120220	12022020	141011	90.97	12.418778	-57.142922	90.97	-0.230	-0.340	0.440	90.93	-1.70	0.70	 	 	 	 	 	 	 	 	 	 	 	 	 	 	 	 	 	 	1581516611	8.41	15.58
12/02/2020 14:10:12	120220	12022020	141012	90.83	12.418773	-57.142882	90.89	-0.290	-0.270	0.880	90.82	-1.60	1.20	 	 	 	 	 	 	 	 	 	 	 	 	 	 	 	 	 	 	1581516612	8.59	15.91
12/02/2020 14:10:13	120220	12022020	141013	90.83	12.418772	-57.142838	90.90	0.090	-0.520	1.070	90.83	-1.80	1.40	 	 	 	 	 	 	 	 	 	 	 	 	 	 	 	 	 	 	1581516613	9.23	17.09
12/02/2020 14:10:14	120220	12022020	141014	90.81	12.418770	-57.142792	90.88	0.380	-0.540	1.250	90.80	-1.90	1.60	 	 	 	 	 	 	 	 	 	 	 	 	 	 	 	 	 	 	1581516614	9.58	17.74
12/02/2020 14:10:15	120220	12022020	141015	90.75	12.418768	-57.142748	90.81	0.160	-0.050	1.460	90.73	-1.50	1.80	 	 	 	 	 	 	 	 	 	 	 	 	 	 	 	 	 	 	1581516615	9.14	16.93
12/02/2020 14:10:16	120220	12022020	141016	90.60	12.418767	-57.142708	90.65	-0.390	0.470	1.720	90.57	-0.90	2.10	 	 	 	 	 	 	 	 	 	 	 	 	 	 	 	 	 	 	1581516616	8.50	15.74
12/02/2020 14:10:17	120220	12022020	141017	90.47	12.418767	-57.142668	90.57	-0.670	0.320	1.890	90.47	-1.00	2.30	 	 	 	 	 	 	 	 	 	 	 	 	 	 	 	 	 	 	1581516617	8.61	15.95
12/02/2020 14:10:18	120220	12022020	141018	90.50	12.418765	-57.142623	90.60	-0.290	-0.470	1.710	90.51	-1.70	2.10	 	 	 	 	 	 	 	 	 	 	 	 	 	 	 	 	 	 	1581516618	9.45	17.50
12/02/2020 14:10:19	120220	12022020	141019	90.50	12.418767	-57.142577	90.57	0.330	-0.970	1.470	90.49	-2.30	1.90	 	 	 	 	 	 	 	 	 	 	 	 	 	 	 	 	 	 	1581516619	10.01	18.54
12/02/2020 14:10:20	120220	12022020	141020	90.47	12.418768	-57.142532	90.53	0.540	-0.620	1.410	90.46	-2.10	1.80	 	 	 	 	 	 	 	 	 	 	 	 	 	 	 	 	 	 	1581516620	9.45	17.50
12/02/2020 14:10:21	120220	12022020	141021	90.47	12.418768	-57.142492	90.54	0.190	0.120	1.250	90.47	-1.30	1.70	 	 	 	 	 	 	 	 	 	 	 	 	 	 	 	 	 	 	1581516621	8.49	15.72
12/02/2020 14:10:22	120220	12022020	141022	90.49	12.418770	-57.142452	90.56	-0.240	0.370	0.920	90.49	-1.00	1.40	 	 	 	 	 	 	 	 	 	 	 	 	 	 	 	 	 	 	1581516622	8.25	15.28
12/02/2020 14:10:23	120220	12022020	141023	90.54	12.418773	-57.142410	90.62	-0.210	-0.270	0.700	90.56	-1.50	1.10	 	 	 	 	 	 	 	 	 	 	 	 	 	 	 	 	 	 	1581516623	9.01	16.69
12/02/2020 14:10:24	120220	12022020	141024	90.58	12.418773	-57.142363	90.64	0.050	-0.980	0.690	90.58	-2.30	1.10	 	 	 	 	 	 	 	 	 	 	 	 	 	 	 	 	 	 	1581516624	9.97	18.46
12/02/2020 14:10:25	120220	12022020	141025	90.57	12.418773	-57.142317	90.61	0.060	-0.890	0.800	90.56	-2.30	1.20	 	 	 	 	 	 	 	 	 	 	 	 	 	 	 	 	 	 	1581516625	9.71	17.98
12/02/2020 14:10:26	120220	12022020	141026	90.52	12.418770	-57.142275	90.57	-0.200	-0.130	1.060	90.51	-1.60	1.40	 	 	 	 	 	 	 	 	 	 	 	 	 	 	 	 	 	 	1581516626	8.79	16.28
12/02/2020 14:10:27	120220	12022020	141027	90.57	12.418768	-57.142237	90.66	-0.450	0.560	1.100	90.60	-0.90	1.50	 	 	 	 	 	 	 	 	 	 	 	 	 	 	 	 	 	 	1581516627	8.26	15.30
12/02/2020 14:10:28	120220	12022020	141028	90.68	12.418770	-57.142195	90.73	-0.400	0.300	0.940	90.68	-0.90	1.40	 	 	 	 	 	 	 	 	 	 	 	 	 	 	 	 	 	 	1581516628	8.57	15.87
12/02/2020 14:10:29	120220	12022020	141029	90.60	12.418772	-57.142148	90.64	0.080	-0.900	0.860	90.59	-2.10	1.30	 	 	 	 	 	 	 	 	 	 	 	 	 	 	 	 	 	 	1581516629	9.82	18.19
12/02/2020 14:10:30	120220	12022020	141030	90.67	12.418773	-57.142098	90.77	0.710	-1.610	0.770	90.71	-2.90	1.20	 	 	 	 	 	 	 	 	 	 	 	 	 	 	 	 	 	 	1581516630	10.62	19.67
12/02/2020 14:10:31	120220	12022020	141031	90.85	12.418773	-57.142053	90.90	0.920	-0.930	0.870	90.86	-2.40	1.20	 	 	 	 	 	 	 	 	 	 	 	 	 	 	 	 	 	 	1581516631	9.70	17.96
12/02/2020 14:10:32	120220	12022020	141032	90.76	12.418772	-57.142013	90.77	0.450	0.470	1.230	90.73	-1.10	1.60	 	 	 	 	 	 	 	 	 	 	 	 	 	 	 	 	 	 	1581516632	8.37	15.50
12/02/2020 14:10:33	120220	12022020	141033	90.65	12.418772	-57.141977	90.72	-0.560	1.670	1.420	90.65	0.20	1.80	 	 	 	 	 	 	 	 	 	 	 	 	 	 	 	 	 	 	1581516633	7.79	14.43
12/02/2020 14:10:34	120220	12022020	141034	90.70	12.418770	-57.141940	90.78	-1.450	1.620	1.350	90.71	0.40	1.80	 	 	 	 	 	 	 	 	 	 	 	 	 	 	 	 	 	 	1581516634	7.91	14.65
12/02/2020 14:10:35	120220	12022020	141035	90.69	12.418770	-57.141895	90.72	-1.380	-0.110	1.360	90.65	-2.60	1.80	 	 	 	 	 	 	 	 	 	 	 	 	 	 	 	 	 	 	1581516635	9.22	17.08
12/02/2020 14:10:36	120220	12022020	141036	90.47	12.418770	-57.141845	90.48	-0.230	-2.260	1.390	90.43	-3.30	1.80	 	 	 	 	 	 	 	 	 	 	 	 	 	 	 	 	 	 	1581516636	10.83	20.06
12/02/2020 14:10:37	120220	12022020	141037	90.32	12.418768	-57.141792	90.37	1.180	-3.050	1.380	90.30	-4.40	1.80	 	 	 	 	 	 	 	 	 	 	 	 	 	 	 	 	 	 	1581516637	10.97	20.32
12/02/2020 14:10:38	120220	12022020	141038	90.26	12.418768	-57.141747	90.33	1.760	-2.010	1.620	90.25	-3.60	2.00	 	 	 	 	 	 	 	 	 	 	 	 	 	 	 	 	 	 	1581516638	9.64	17.85
12/02/2020 14:10:39	120220	12022020	141039	90.22	12.418767	-57.141708	90.29	1.070	0.030	1.620	90.22	-1.70	2.00	 	 	 	 	 	 	 	 	 	 	 	 	 	 	 	 	 	 	1581516639	8.24	15.26
12/02/2020 14:10:40	120220	12022020	141040	90.26	12.418768	-57.141673	90.38	-0.420	2.060	1.420	90.30	0.40	1.90	 	 	 	 	 	 	 	 	 	 	 	 	 	 	 	 	 	 	1581516640	7.46	13.82
12/02/2020 14:10:41	120220	12022020	141041	90.47	12.418768	-57.141638	90.62	-1.780	3.160	1.160	90.53	1.70	1.60	 	 	 	 	 	 	 	 	 	 	 	 	 	 	 	 	 	 	1581516641	7.23	13.39
12/02/2020 14:10:42	120220	12022020	141042	90.79	12.418770	-57.141602	90.91	-2.020	2.050	0.600	90.84	1.00	1.10	 	 	 	 	 	 	 	 	 	 	 	 	 	 	 	 	 	 	1581516642	7.95	14.72
12/02/2020 14:10:43	120220	12022020	141043	90.95	12.418773	-57.141552	91.00	-0.710	-1.380	0.050	90.95	-2.20	0.50	 	 	 	 	 	 	 	 	 	 	 	 	 	 	 	 	 	 	1581516643	10.34	19.15
12/02/2020 14:10:44	120220	12022020	141044	90.78	12.418775	-57.141493	90.78	1.070	-4.200	0.110	90.73	-5.30	0.50	 	 	 	 	 	 	 	 	 	 	 	 	 	 	 	 	 	 	1581516644	12.39	22.95
12/02/2020 14:10:45	120220	12022020	141045	90.67	12.418775	-57.141442	90.76	1.730	-3.430	0.300	90.69	-5.10	0.70	 	 	 	 	 	 	 	 	 	 	 	 	 	 	 	 	 	 	1581516645	10.80	20.00
12/02/2020 14:10:46	120220	12022020	141046	90.89	12.418775	-57.141408	91.06	0.890	-0.000	0.590	90.97	-1.90	0.90	 	 	 	 	 	 	 	 	 	 	 	 	 	 	 	 	 	 	1581516646	7.06	13.08
12/02/2020 14:10:47	120220	12022020	141047	91.25	12.418772	-57.141383	91.38	-0.450	2.670	1.190	91.29	1.10	1.50	 	 	 	 	 	 	 	 	 	 	 	 	 	 	 	 	 	 	1581516647	5.25	9.72
12/02/2020 14:10:48	120220	12022020	141048	91.27	12.418767	-57.141352	91.32	-1.080	2.620	1.940	91.23	1.40	2.20	 	 	 	 	 	 	 	 	 	 	 	 	 	 	 	 	 	 	1581516648	6.95	12.87
12/02/2020 14:10:49	120220	12022020	141049	90.98	12.418760	-57.141307	91.02	-0.750	0.620	2.410	90.92	-0.40	2.80	 	 	 	 	 	 	 	 	 	 	 	 	 	 	 	 	 	 	1581516649	9.64	17.85
12/02/2020 14:10:50	120220	12022020	141050	90.74	12.418758	-57.141255	90.85	-0.050	-1.360	2.530	90.73	-2.50	2.90	 	 	 	 	 	 	 	 	 	 	 	 	 	 	 	 	 	 	1581516650	10.80	20.00
12/02/2020 14:10:51	120220	12022020	141051	90.85	12.418758	-57.141208	91.03	0.330	-1.940	2.100	90.91	-3.30	2.60	 	 	 	 	 	 	 	 	 	 	 	 	 	 	 	 	 	 	1581516651	10.07	18.65
12/02/2020 14:10:52	120220	12022020	141052	91.23	12.418762	-57.141168	91.43	0.240	-1.020	1.430	91.32	-2.60	1.90	 	 	 	 	 	 	 	 	 	 	 	 	 	 	 	 	 	 	1581516652	8.39	15.54
12/02/2020 14:10:53	120220	12022020	141053	91.64	12.418763	-57.141135	91.79	0.070	0.130	0.890	91.70	-1.30	1.40	 	 	 	 	 	 	 	 	 	 	 	 	 	 	 	 	 	 	1581516653	7.17	13.28
12/02/2020 14:10:54	120220	12022020	141054	91.77	12.418763	-57.141098	91.80	0.200	0.210	0.690	91.74	-1.10	1.10	 	 	 	 	 	 	 	 	 	 	 	 	 	 	 	 	 	 	1581516654	7.61	14.09
12/02/2020 14:10:55	120220	12022020	141055	91.42	12.418762	-57.141055	91.34	0.610	-0.760	0.900	91.30	-1.90	1.30	 	 	 	 	 	 	 	 	 	 	 	 	 	 	 	 	 	 	1581516655	9.13	16.91
12/02/2020 14:10:56	120220	12022020	141056	90.81	12.418762	-57.141007	90.75	0.760	-1.300	1.090	90.70	-2.70	1.50	 	 	 	 	 	 	 	 	 	 	 	 	 	 	 	 	 	 	1581516656	10.15	18.80
12/02/2020 14:10:57	120220	12022020	141057	90.43	12.418762	-57.140965	90.50	0.180	-0.220	1.360	90.42	-1.80	1.70	 	 	 	 	 	 	 	 	 	 	 	 	 	 	 	 	 	 	1581516657	9.04	16.74
12/02/2020 14:10:58	120220	12022020	141058	90.58	12.418760	-57.140930	90.78	-0.780	1.300	1.300	90.68	-0.20	1.80	 	 	 	 	 	 	 	 	 	 	 	 	 	 	 	 	 	 	1581516658	7.21	13.35
12/02/2020 14:10:59	120220	12022020	141059	91.12	12.418760	-57.140897	91.32	-1.220	1.380	0.800	91.22	0.10	1.30	 	 	 	 	 	 	 	 	 	 	 	 	 	 	 	 	 	 	1581516659	7.19	13.32
12/02/2020 14:11:00	120220	12022020	141100	91.43	12.418760	-57.140853	91.50	-0.760	0.020	0.730	91.43	-1.10	1.10	 	 	 	 	 	 	 	 	 	 	 	 	 	 	 	 	 	 	1581516660	8.95	16.58
12/02/2020 14:11:01	120220	12022020	141101	91.26	12.418755	-57.140807	91.26	0.110	-1.290	1.190	91.20	-2.50	1.50	 	 	 	 	 	 	 	 	 	 	 	 	 	 	 	 	 	 	1581516661	10.08	18.67
12/02/2020 14:11:02	120220	12022020	141102	90.92	12.418750	-57.140762	90.90	0.870	-1.630	1.390	90.84	-3.00	1.80	1017.30	26.60	26.60	20.60	20.70	611.0	69.0	69.0	437.0	28.4	351.00	14.60	78.00	10.10	48228	19394.0	27.5	27.5	1581516662	9.60	17.78
12/02/2020 14:11:03	120220	12022020	141103	90.48	12.418750	-57.140720	90.45	1.290	-1.110	1.430	90.39	-2.60	1.80	 	 	 	 	 	 	 	 	 	 	 	 	 	 	 	 	 	 	1581516663	8.66	16.04
12/02/2020 14:11:04	120220	12022020	141104	90.07	12.418752	-57.140682	90.09	1.200	-0.320	1.350	90.02	-1.80	1.80	 	 	 	 	 	 	 	 	 	 	 	 	 	 	 	 	 	 	1581516664	8.26	15.30
12/02/2020 14:11:05	120220	12022020	141105	90.00	12.418755	-57.140643	90.10	0.490	0.450	1.060	90.02	-1.00	1.50	 	 	 	 	 	 	 	 	 	 	 	 	 	 	 	 	 	 	1581516665	8.20	15.19
12/02/2020 14:11:06	120220	12022020	141106	90.18	12.418758	-57.140605	90.30	-0.500	0.940	0.910	90.23	-0.40	1.30	 	 	 	 	 	 	 	 	 	 	 	 	 	 	 	 	 	 	1581516666	8.06	14.93
12/02/2020 14:11:07	120220	12022020	141107	90.41	12.418757	-57.140567	90.54	-1.190	0.810	1.170	90.46	-0.50	1.50	 	 	 	 	 	 	 	 	 	 	 	 	 	 	 	 	 	 	1581516667	8.22	15.22
12/02/2020 14:11:08	120220	12022020	141108	90.56	12.418753	-57.140525	90.62	-1.260	0.050	1.620	90.54	-1.20	1.90	 	 	 	 	 	 	 	 	 	 	 	 	 	 	 	 	 	 	1581516668	8.82	16.33
12/02/2020 14:11:09	120220	12022020	141109	90.33	12.418745	-57.140480	90.31	-0.660	-0.940	2.270	90.24	-2.10	2.60	 	 	 	 	 	 	 	 	 	 	 	 	 	 	 	 	 	 	1581516669	9.39	17.39
12/02/2020 14:11:10	120220	12022020	141110	89.84	12.418738	-57.140435	89.83	0.390	-1.700	2.740	89.75	-2.90	3.10	 	 	 	 	 	 	 	 	 	 	 	 	 	 	 	 	 	 	1581516670	9.61	17.80
12/02/2020 14:11:11	120220	12022020	141111	89.57	12.418738	-57.140390	89.68	1.310	-1.810	2.450	89.58	-3.20	2.90	 	 	 	 	 	 	 	 	 	 	 	 	 	 	 	 	 	 	1581516671	9.50	17.59
12/02/2020 14:11:12	120220	12022020	141112	89.74	12.418742	-57.140348	89.86	1.370	-0.910	1.630	89.79	-2.40	2.20	 	 	 	 	 	 	 	 	 	 	 	 	 	 	 	 	 	 	1581516672	9.01	16.69
12/02/2020 14:11:13	120220	12022020	141113	89.90	12.418748	-57.140312	89.93	0.490	0.680	0.900	89.90	-0.90	1.40	 	 	 	 	 	 	 	 	 	 	 	 	 	 	 	 	 	 	1581516673	8.01	14.83
12/02/2020 14:11:14	120220	12022020	141114	89.83	12.418753	-57.140277	89.83	-0.710	1.990	0.390	89.81	0.50	0.90	 	 	 	 	 	 	 	 	 	 	 	 	 	 	 	 	 	 	1581516674	7.25	13.43
12/02/2020 14:11:15	120220	12022020	141115	89.74	12.418757	-57.140242	89.76	-1.280	1.670	0.040	89.73	0.50	0.50	 	 	 	 	 	 	 	 	 	 	 	 	 	 	 	 	 	 	1581516675	7.58	14.04
12/02/2020 14:11:16	120220	12022020	141116	89.72	12.418758	-57.140197	89.77	-0.670	-0.440	-0.080	89.73	-1.40	0.30	 	 	 	 	 	 	 	 	 	 	 	 	 	 	 	 	 	 	1581516676	9.41	17.43
12/02/2020 14:11:17	120220	12022020	141117	89.82	12.418760	-57.140145	89.89	0.580	-2.440	-0.130	89.85	-3.60	0.30	 	 	 	 	 	 	 	 	 	 	 	 	 	 	 	 	 	 	1581516677	10.96	20.30
12/02/2020 14:11:18	120220	12022020	141118	89.87	12.418760	-57.140097	89.86	1.260	-2.360	0.230	89.83	-3.90	0.50	 	 	 	 	 	 	 	 	 	 	 	 	 	 	 	 	 	 	1581516678	10.32	19.11
12/02/2020 14:11:19	120220	12022020	141119	89.56	12.418757	-57.140058	89.51	0.720	-0.350	1.250	89.47	-2.10	1.50	 	 	 	 	 	 	 	 	 	 	 	 	 	 	 	 	 	 	1581516679	8.03	14.87
12/02/2020 14:11:20	120220	12022020	141120	89.14	12.418752	-57.140028	89.15	-0.550	1.760	2.120	89.08	0.20	2.40	 	 	 	 	 	 	 	 	 	 	 	 	 	 	 	 	 	 	1581516680	6.37	11.80
12/02/2020 14:11:21	120220	12022020	141121	89.02	12.418750	-57.139997	89.14	-1.420	2.050	2.130	89.04	0.80	2.60	 	 	 	 	 	 	 	 	 	 	 	 	 	 	 	 	 	 	1581516681	6.67	12.35
12/02/2020 14:11:22	120220	12022020	141122	89.26	12.418752	-57.139955	89.42	-0.910	-0.030	1.590	89.33	-1.00	2.10	 	 	 	 	 	 	 	 	 	 	 	 	 	 	 	 	 	 	1581516682	8.79	16.28
12/02/2020 14:11:23	120220	12022020	141123	89.52	12.418755	-57.139903	89.62	0.440	-2.300	1.150	89.55	-4.00	1.40	 	 	 	 	 	 	 	 	 	 	 	 	 	 	 	 	 	 	1581516683	11.03	20.43
12/02/2020 14:11:24	120220	12022020	141124	89.58	12.418757	-57.139855	89.62	1.210	-2.210	1.040	89.56	-3.80	1.40	 	 	 	 	 	 	 	 	 	 	 	 	 	 	 	 	 	 	1581516684	10.36	19.19
12/02/2020 14:11:25	120220	12022020	141125	89.42	12.418757	-57.139818	89.43	0.690	-0.100	1.200	89.38	-0.40	1.70	 	 	 	 	 	 	 	 	 	 	 	 	 	 	 	 	 	 	1581516685	7.55	13.98
12/02/2020 14:11:26	120220	12022020	141126	89.17	12.418758	-57.139790	89.17	-0.420	1.680	1.260	89.12	0.10	1.70	 	 	 	 	 	 	 	 	 	 	 	 	 	 	 	 	 	 	1581516686	5.96	11.04
12/02/2020 14:11:27	120220	12022020	141127	88.93	12.418760	-57.139757	88.92	-0.850	1.290	0.940	88.88	0.10	1.40	 	 	 	 	 	 	 	 	 	 	 	 	 	 	 	 	 	 	1581516687	6.99	12.95
12/02/2020 14:11:28	120220	12022020	141128	88.76	12.418765	-57.139713	88.80	-0.160	-0.610	0.450	88.76	-1.70	0.90	 	 	 	 	 	 	 	 	 	 	 	 	 	 	 	 	 	 	1581516688	9.48	17.56
12/02/2020 14:11:29	120220	12022020	141129	88.88	12.418772	-57.139663	88.98	0.740	-1.770	0.090	88.93	-3.10	0.50	 	 	 	 	 	 	 	 	 	 	 	 	 	 	 	 	 	 	1581516689	10.46	19.37
12/02/2020 14:11:30	120220	12022020	141130	89.23	12.418777	-57.139620	89.35	0.870	-1.320	0.150	89.30	-2.80	0.50	 	 	 	 	 	 	 	 	 	 	 	 	 	 	 	 	 	 	1581516690	9.20	17.04
12/02/2020 14:11:31	120220	12022020	141131	89.57	12.418775	-57.139585	89.66	0.050	-0.070	0.630	89.61	-1.60	0.90	 	 	 	 	 	 	 	 	 	 	 	 	 	 	 	 	 	 	1581516691	7.57	14.02
12/02/2020 14:11:32	120220	12022020	141132	89.69	12.418772	-57.139552	89.73	-0.920	0.720	1.440	89.69	-0.70	1.70	 	 	 	 	 	 	 	 	 	 	 	 	 	 	 	 	 	 	1581516692	7.18	13.30
12/02/2020 14:11:33	120220	12022020	141133	89.56	12.418765	-57.139513	89.59	-1.080	0.620	2.210	89.52	-0.70	2.50	 	 	 	 	 	 	 	 	 	 	 	 	 	 	 	 	 	 	1581516693	7.95	14.72
12/02/2020 14:11:34	120220	12022020	141134	89.41	12.418760	-57.139473	89.48	-0.330	0.080	2.510	89.41	-1.20	2.90	 	 	 	 	 	 	 	 	 	 	 	 	 	 	 	 	 	 	1581516694	8.76	16.22
12/02/2020 14:11:35	120220	12022020	141135	89.47	12.418760	-57.139430	89.58	0.510	-0.340	2.210	89.52	-1.70	2.70	 	 	 	 	 	 	 	 	 	 	 	 	 	 	 	 	 	 	1581516695	8.92	16.52
12/02/2020 14:11:36	120220	12022020	141136	89.73	12.418765	-57.139390	89.83	0.790	-0.650	1.560	89.78	-2.00	2.00	 	 	 	 	 	 	 	 	 	 	 	 	 	 	 	 	 	 	1581516696	8.66	16.04
12/02/2020 14:11:37	120220	12022020	141137	89.97	12.418770	-57.139350	90.04	0.610	-0.930	1.060	90.01	-2.30	1.50	 	 	 	 	 	 	 	 	 	 	 	 	 	 	 	 	 	 	1581516697	8.61	15.95
12/02/2020 14:11:38	120220	12022020	141138	90.06	12.418773	-57.139308	90.04	0.410	-0.890	0.780	90.04	-2.30	1.20	 	 	 	 	 	 	 	 	 	 	 	 	 	 	 	 	 	 	1581516698	8.62	15.96
12/02/2020 14:11:39	120220	12022020	141139	89.89	12.418778	-57.139270	89.84	0.260	-0.410	0.710	89.85	-1.90	1.10	 	 	 	 	 	 	 	 	 	 	 	 	 	 	 	 	 	 	1581516699	8.39	15.54
12/02/2020 14:11:40	120220	12022020	141140	89.81	12.418782	-57.139232	89.83	-0.090	0.240	0.650	89.84	-1.20	1.10	 	 	 	 	 	 	 	 	 	 	 	 	 	 	 	 	 	 	1581516700	8.07	14.95
12/02/2020 14:11:41	120220	12022020	141141	90.04	12.418782	-57.139193	90.13	-0.590	0.540	0.820	90.12	-0.80	1.20	 	 	 	 	 	 	 	 	 	 	 	 	 	 	 	 	 	 	1581516701	7.95	14.72
12/02/2020 14:11:42	120220	12022020	141142	90.42	12.418777	-57.139155	90.52	-0.850	0.200	1.130	90.49	-1.10	1.50	 	 	 	 	 	 	 	 	 	 	 	 	 	 	 	 	 	 	1581516702	8.35	15.46
12/02/2020 14:11:43	120220	12022020	141143	90.62	12.418773	-57.139112	90.65	-0.600	-0.500	1.480	90.62	-1.80	1.80	 	 	 	 	 	 	 	 	 	 	 	 	 	 	 	 	 	 	1581516703	9.01	16.69
12/02/2020 14:11:44	120220	12022020	141144	90.50	12.418768	-57.139068	90.46	0.010	-0.950	1.800	90.44	-2.30	2.10	 	 	 	 	 	 	 	 	 	 	 	 	 	 	 	 	 	 	1581516704	9.22	17.08
12/02/2020 14:11:45	120220	12022020	141145	90.17	12.418767	-57.139027	90.12	0.590	-0.890	1.950	90.10	-2.30	2.30	 	 	 	 	 	 	 	 	 	 	 	 	 	 	 	 	 	 	1581516705	8.89	16.46
12/02/2020 14:11:46	120220	12022020	141146	89.98	12.418768	-57.138987	90.03	0.800	-0.490	1.650	90.00	-1.90	2.10	 	 	 	 	 	 	 	 	 	 	 	 	 	 	 	 	 	 	1581516706	8.56	15.85
12/02/2020 14:11:47	120220	12022020	141147	90.20	12.418773	-57.138947	90.31	0.510	0.130	1.000	90.28	-1.30	1.50	 	 	 	 	 	 	 	 	 	 	 	 	 	 	 	 	 	 	1581516707	8.27	15.32
12/02/2020 14:11:48	120220	12022020	141148	90.52	12.418778	-57.138910	90.57	0.040	0.530	0.370	90.56	-0.90	0.90	 	 	 	 	 	 	 	 	 	 	 	 	 	 	 	 	 	 	1581516708	8.08	14.96
12/02/2020 14:11:49	120220	12022020	141149	90.64	12.418782	-57.138870	90.63	-0.260	0.420	0.160	90.64	-0.90	0.60	 	 	 	 	 	 	 	 	 	 	 	 	 	 	 	 	 	 	1581516709	8.40	15.56
12/02/2020 14:11:50	120220	12022020	141150	90.63	12.418783	-57.138828	90.64	-0.360	0.000	0.290	90.64	-1.30	0.70	 	 	 	 	 	 	 	 	 	 	 	 	 	 	 	 	 	 	1581516710	8.77	16.24
12/02/2020 14:11:51	120220	12022020	141151	90.67	12.418782	-57.138787	90.69	-0.340	-0.620	0.560	90.68	-1.90	0.90	 	 	 	 	 	 	 	 	 	 	 	 	 	 	 	 	 	 	1581516711	8.94	16.56
12/02/2020 14:11:52	120220	12022020	141152	90.68	12.418780	-57.138743	90.70	-0.180	-1.230	1.090	90.67	-2.50	1.40	 	 	 	 	 	 	 	 	 	 	 	 	 	 	 	 	 	 	1581516712	9.21	17.06
12/02/2020 14:11:53	120220	12022020	141153	90.63	12.418775	-57.138700	90.65	0.060	-1.260	1.650	90.60	-2.70	1.90	 	 	 	 	 	 	 	 	 	 	 	 	 	 	 	 	 	 	1581516713	9.24	17.11
12/02/2020 14:11:54	120220	12022020	141154	90.44	12.418770	-57.138658	90.42	0.270	-0.700	2.150	90.37	-2.20	2.50	 	 	 	 	 	 	 	 	 	 	 	 	 	 	 	 	 	 	1581516714	8.73	16.17
12/02/2020 14:11:55	120220	12022020	141155	90.19	12.418767	-57.138618	90.23	0.330	0.050	2.220	90.17	-1.50	2.60	 	 	 	 	 	 	 	 	 	 	 	 	 	 	 	 	 	 	1581516715	8.38	15.52
12/02/2020 14:11:56	120220	12022020	141156	90.24	12.418768	-57.138580	90.34	0.120	0.670	1.710	90.28	-0.80	2.20	 	 	 	 	 	 	 	 	 	 	 	 	 	 	 	 	 	 	1581516716	8.27	15.32
12/02/2020 14:11:57	120220	12022020	141157	90.46	12.418773	-57.138540	90.56	-0.240	0.810	0.880	90.51	-0.60	1.40	 	 	 	 	 	 	 	 	 	 	 	 	 	 	 	 	 	 	1581516717	8.38	15.52
12/02/2020 14:11:58	120220	12022020	141158	90.60	12.418778	-57.138498	90.63	-0.450	0.170	0.240	90.60	-1.10	0.70	 	 	 	 	 	 	 	 	 	 	 	 	 	 	 	 	 	 	1581516718	8.83	16.35
12/02/2020 14:11:59	120220	12022020	141159	90.51	12.418780	-57.138453	90.51	-0.290	-0.930	0.320	90.48	-2.20	0.70	 	 	 	 	 	 	 	 	 	 	 	 	 	 	 	 	 	 	1581516719	9.54	17.67
12/02/2020 14:12:00	120220	12022020	141200	90.36	12.418778	-57.138407	90.37	0.070	-1.450	0.620	90.34	-2.80	1.00	 	 	 	 	 	 	 	 	 	 	 	 	 	 	 	 	 	 	1581516720	9.88	18.30
12/02/2020 14:12:01	120220	12022020	141201	90.25	12.418777	-57.138365	90.27	0.270	-0.860	0.710	90.24	-2.40	1.10	 	 	 	 	 	 	 	 	 	 	 	 	 	 	 	 	 	 	1581516721	9.04	16.74
12/02/2020 14:12:02	120220	12022020	141202	90.19	12.418777	-57.138327	90.25	0.200	0.040	0.800	90.20	-1.50	1.20	1017.20	26.60	26.60	20.50	20.60	578.0	69.0	69.0	436.0	28.4	349.00	15.00	75.00	10.70	46502	6858.0	27.5	27.4	1581516722	8.06	14.93
12/02/2020 14:12:03	120220	12022020	141203	90.32	12.418775	-57.138288	90.43	0.000	0.420	1.060	90.36	-1.00	1.40	 	 	 	 	 	 	 	 	 	 	 	 	 	 	 	 	 	 	1581516723	8.14	15.08
12/02/2020 14:12:04	120220	12022020	141204	90.50	12.418775	-57.138247	90.57	-0.140	0.230	1.250	90.51	-1.10	1.60	 	 	 	 	 	 	 	 	 	 	 	 	 	 	 	 	 	 	1581516724	8.72	16.15
12/02/2020 14:12:05	120220	12022020	141205	90.45	12.418773	-57.138203	90.50	-0.110	-0.230	1.440	90.43	-1.50	1.80	 	 	 	 	 	 	 	 	 	 	 	 	 	 	 	 	 	 	1581516725	9.20	17.04
12/02/2020 14:12:06	120220	12022020	141206	90.42	12.418773	-57.138158	90.49	-0.050	-0.480	1.670	90.42	-1.80	2.00	 	 	 	 	 	 	 	 	 	 	 	 	 	 	 	 	 	 	1581516726	9.34	17.30
12/02/2020 14:12:07	120220	12022020	141207	90.41	12.418772	-57.138117	90.46	-0.060	-0.430	1.880	90.39	-1.80	2.20	 	 	 	 	 	 	 	 	 	 	 	 	 	 	 	 	 	 	1581516727	8.96	16.59
12/02/2020 14:12:08	120220	12022020	141208	90.28	12.418772	-57.138075	90.31	0.050	-0.610	1.930	90.24	-1.90	2.30	 	 	 	 	 	 	 	 	 	 	 	 	 	 	 	 	 	 	1581516728	8.77	16.24
12/02/2020 14:12:09	120220	12022020	141209	90.20	12.418772	-57.138030	90.30	0.370	-0.930	1.600	90.23	-2.30	2.10	 	 	 	 	 	 	 	 	 	 	 	 	 	 	 	 	 	 	1581516729	9.34	17.30
12/02/2020 14:12:10	120220	12022020	141210	90.49	12.418775	-57.137987	90.65	0.450	-0.590	1.020	90.58	-2.10	1.50	 	 	 	 	 	 	 	 	 	 	 	 	 	 	 	 	 	 	1581516730	9.43	17.46
12/02/2020 14:12:11	120220	12022020	141211	90.87	12.418777	-57.137947	90.96	-0.050	0.410	0.790	90.91	-1.10	1.20	 	 	 	 	 	 	 	 	 	 	 	 	 	 	 	 	 	 	1581516731	8.48	15.70
12/02/2020 14:12:12	120220	12022020	141212	90.90	12.418777	-57.137910	90.89	-0.720	0.950	0.970	90.86	-0.40	1.30	 	 	 	 	 	 	 	 	 	 	 	 	 	 	 	 	 	 	1581516732	7.84	14.52
12/02/2020 14:12:13	120220	12022020	141213	90.60	12.418773	-57.137868	90.58	-0.800	0.170	1.130	90.54	-1.00	1.50	 	 	 	 	 	 	 	 	 	 	 	 	 	 	 	 	 	 	1581516733	8.67	16.06
12/02/2020 14:12:14	120220	12022020	141214	90.35	12.418773	-57.137820	90.37	-0.250	-0.960	1.140	90.33	-2.20	1.60	 	 	 	 	 	 	 	 	 	 	 	 	 	 	 	 	 	 	1581516734	10.05	18.61
12/02/2020 14:12:15	120220	12022020	141215	90.34	12.418773	-57.137773	90.42	0.270	-1.120	0.930	90.37	-2.50	1.40	 	 	 	 	 	 	 	 	 	 	 	 	 	 	 	 	 	 	1581516735	9.92	18.37
12/02/2020 14:12:16	120220	12022020	141216	90.60	12.418777	-57.137732	90.71	0.370	-0.600	0.530	90.66	-2.10	1.00	 	 	 	 	 	 	 	 	 	 	 	 	 	 	 	 	 	 	1581516736	8.84	16.37
12/02/2020 14:12:17	120220	12022020	141217	90.88	12.418778	-57.137692	90.96	0.220	-0.230	0.490	90.92	-1.60	0.90	 	 	 	 	 	 	 	 	 	 	 	 	 	 	 	 	 	 	1581516737	8.50	15.74
12/02/2020 14:12:18	120220	12022020	141218	90.99	12.418777	-57.137650	91.04	0.070	-0.080	0.840	90.99	-1.50	1.20	 	 	 	 	 	 	 	 	 	 	 	 	 	 	 	 	 	 	1581516738	8.85	16.39
12/02/2020 14:12:19	120220	12022020	141219	91.01	12.418773	-57.137608	91.06	-0.030	0.120	1.070	91.01	-1.30	1.40	 	 	 	 	 	 	 	 	 	 	 	 	 	 	 	 	 	 	1581516739	8.96	16.59
12/02/2020 14:12:20	120220	12022020	141220	90.97	12.418772	-57.137567	90.99	-0.030	0.240	1.240	90.94	-1.10	1.60	 	 	 	 	 	 	 	 	 	 	 	 	 	 	 	 	 	 	1581516740	8.79	16.28
12/02/2020 14:12:21	120220	12022020	141221	90.82	12.418772	-57.137523	90.84	0.050	-0.030	1.390	90.79	-1.30	1.80	 	 	 	 	 	 	 	 	 	 	 	 	 	 	 	 	 	 	1581516741	8.97	16.61
12/02/2020 14:12:22	120220	12022020	141222	90.71	12.418772	-57.137478	90.74	0.120	-0.700	1.520	90.69	-2.00	1.90	 	 	 	 	 	 	 	 	 	 	 	 	 	 	 	 	 	 	1581516742	9.44	17.48
12/02/2020 14:12:23	120220	12022020	141223	90.55	12.418772	-57.137433	90.57	0.110	-1.210	1.660	90.51	-2.60	2.00	 	 	 	 	 	 	 	 	 	 	 	 	 	 	 	 	 	 	1581516743	9.81	18.17
12/02/2020 14:12:24	120220	12022020	141224	90.39	12.418772	-57.137388	90.45	-0.000	-0.860	1.580	90.39	-2.30	2.00	 	 	 	 	 	 	 	 	 	 	 	 	 	 	 	 	 	 	1581516744	9.49	17.58
12/02/2020 14:12:25	120220	12022020	141225	90.49	12.418772	-57.137347	90.63	-0.280	0.140	1.370	90.55	-1.40	1.80	 	 	 	 	 	 	 	 	 	 	 	 	 	 	 	 	 	 	1581516745	8.58	15.89
12/02/2020 14:12:26	120220	12022020	141226	90.78	12.418772	-57.137308	90.88	-0.630	0.760	1.280	90.81	-0.70	1.70	 	 	 	 	 	 	 	 	 	 	 	 	 	 	 	 	 	 	1581516746	8.09	14.98
12/02/2020 14:12:27	120220	12022020	141227	90.81	12.418768	-57.137268	90.82	-0.620	0.270	1.400	90.77	-1.00	1.80	 	 	 	 	 	 	 	 	 	 	 	 	 	 	 	 	 	 	1581516747	8.75	16.21
12/02/2020 14:12:28	120220	12022020	141228	90.48	12.418765	-57.137220	90.44	-0.130	-0.730	1.670	90.40	-2.00	2.00	 	 	 	 	 	 	 	 	 	 	 	 	 	 	 	 	 	 	1581516748	10.00	18.52
12/02/2020 14:12:29	120220	12022020	141229	90.12	12.418763	-57.137172	90.14	0.370	-1.070	1.810	90.08	-2.40	2.20	 	 	 	 	 	 	 	 	 	 	 	 	 	 	 	 	 	 	1581516749	10.12	18.74
12/02/2020 14:12:30	120220	12022020	141230	90.04	12.418765	-57.137128	90.13	0.590	-0.720	1.540	90.07	-2.20	2.00	 	 	 	 	 	 	 	 	 	 	 	 	 	 	 	 	 	 	1581516750	9.31	17.24
12/02/2020 14:12:31	120220	12022020	141231	90.28	12.418768	-57.137087	90.40	0.550	-0.090	1.020	90.35	-1.60	1.50	 	 	 	 	 	 	 	 	 	 	 	 	 	 	 	 	 	 	1581516751	8.82	16.33
12/02/2020 14:12:32	120220	12022020	141232	90.67	12.418772	-57.137047	90.79	0.190	0.470	0.500	90.74	-1.00	1.00	 	 	 	 	 	 	 	 	 	 	 	 	 	 	 	 	 	 	1581516752	8.66	16.04
12/02/2020 14:12:33	120220	12022020	141233	90.93	12.418775	-57.137005	90.97	-0.390	0.570	0.530	90.94	-0.80	0.90	 	 	 	 	 	 	 	 	 	 	 	 	 	 	 	 	 	 	1581516753	8.62	15.96
12/02/2020 14:12:34	120220	12022020	141234	90.78	12.418773	-57.136963	90.74	-0.760	0.100	1.140	90.71	-1.20	1.40	 	 	 	 	 	 	 	 	 	 	 	 	 	 	 	 	 	 	1581516754	9.00	16.67
12/02/2020 14:12:35	120220	12022020	141235	90.31	12.418768	-57.136918	90.24	-0.600	-0.700	1.880	90.20	-1.90	2.20	 	 	 	 	 	 	 	 	 	 	 	 	 	 	 	 	 	 	1581516755	9.52	17.63
12/02/2020 14:12:36	120220	12022020	141236	89.87	12.418763	-57.136872	89.91	0.080	-1.600	2.350	89.84	-2.90	2.70	 	 	 	 	 	 	 	 	 	 	 	 	 	 	 	 	 	 	1581516756	9.97	18.46
12/02/2020 14:12:37	120220	12022020	141237	89.89	12.418762	-57.136823	90.02	0.790	-1.860	2.190	89.92	-3.30	2.60	 	 	 	 	 	 	 	 	 	 	 	 	 	 	 	 	 	 	1581516757	10.24	18.96
12/02/2020 14:12:38	120220	12022020	141238	90.07	12.418763	-57.136778	90.16	0.790	-0.840	1.710	90.09	-2.40	2.20	 	 	 	 	 	 	 	 	 	 	 	 	 	 	 	 	 	 	1581516758	9.54	17.67
12/02/2020 14:12:39	120220	12022020	141239	90.08	12.418765	-57.136738	90.11	0.020	0.880	1.310	90.06	-0.70	1.80	 	 	 	 	 	 	 	 	 	 	 	 	 	 	 	 	 	 	1581516759	8.19	15.17
12/02/2020 14:12:40	120220	12022020	141240	89.97	12.418768	-57.136703	89.98	-0.860	1.960	0.970	89.95	0.50	1.40	 	 	 	 	 	 	 	 	 	 	 	 	 	 	 	 	 	 	1581516760	7.58	14.04
12/02/2020 14:12:41	120220	12022020	141241	89.93	12.418772	-57.136663	90.00	-1.090	1.320	0.640	89.96	0.20	1.10	 	 	 	 	 	 	 	 	 	 	 	 	 	 	 	 	 	 	1581516761	8.38	15.52
12/02/2020 14:12:42	120220	12022020	141242	90.10	12.418773	-57.136615	90.19	-0.440	-0.720	0.350	90.14	-1.80	0.80	 	 	 	 	 	 	 	 	 	 	 	 	 	 	 	 	 	 	1581516762	10.19	18.87
12/02/2020 14:12:43	120220	12022020	141243	90.18	12.418773	-57.136562	90.19	0.560	-2.290	0.350	90.16	-3.50	0.70	 	 	 	 	 	 	 	 	 	 	 	 	 	 	 	 	 	 	1581516763	11.24	20.82
12/02/2020 14:12:44	120220	12022020	141244	90.02	12.418773	-57.136513	90.03	0.960	-1.810	0.770	90.00	-3.40	1.10	 	 	 	 	 	 	 	 	 	 	 	 	 	 	 	 	 	 	1581516764	10.23	18.95
12/02/2020 14:12:45	120220	12022020	141245	89.97	12.418772	-57.136477	90.04	0.370	0.260	1.350	90.00	-1.40	1.70	 	 	 	 	 	 	 	 	 	 	 	 	 	 	 	 	 	 	1581516765	7.95	14.72
12/02/2020 14:12:46	120220	12022020	141246	90.08	12.418770	-57.136445	90.15	-0.640	1.820	1.720	90.09	0.30	2.10	 	 	 	 	 	 	 	 	 	 	 	 	 	 	 	 	 	 	1581516766	6.63	12.28
12/02/2020 14:12:47	120220	12022020	141247	90.06	12.418770	-57.136408	90.10	-0.990	1.050	1.780	90.04	-0.10	2.20	 	 	 	 	 	 	 	 	 	 	 	 	 	 	 	 	 	 	1581516767	7.77	14.39
12/02/2020 14:12:48	120220	12022020	141248	89.94	12.418770	-57.136358	89.98	-0.310	-1.300	1.800	89.92	-2.30	2.20	 	 	 	 	 	 	 	 	 	 	 	 	 	 	 	 	 	 	1581516768	10.41	19.28
12/02/2020 14:12:49	120220	12022020	141249	89.91	12.418768	-57.136305	89.99	0.570	-2.570	1.870	89.91	-3.90	2.30	 	 	 	 	 	 	 	 	 	 	 	 	 	 	 	 	 	 	1581516769	11.45	21.21
12/02/2020 14:12:50	120220	12022020	141250	90.00	12.418768	-57.136258	90.10	0.810	-1.510	1.680	90.03	-3.10	2.10	 	 	 	 	 	 	 	 	 	 	 	 	 	 	 	 	 	 	1581516770	9.68	17.93
12/02/2020 14:12:51	120220	12022020	141251	90.07	12.418770	-57.136223	90.10	0.320	0.470	1.290	90.06	-1.20	1.80	 	 	 	 	 	 	 	 	 	 	 	 	 	 	 	 	 	 	1581516771	7.48	13.85
12/02/2020 14:12:52	120220	12022020	141252	90.04	12.418772	-57.136188	90.09	-0.320	1.390	1.000	90.05	-0.00	1.40	 	 	 	 	 	 	 	 	 	 	 	 	 	 	 	 	 	 	1581516772	7.29	13.50
12/02/2020 14:12:53	120220	12022020	141253	90.14	12.418772	-57.136148	90.23	-0.650	0.870	0.710	90.18	-0.40	1.20	 	 	 	 	 	 	 	 	 	 	 	 	 	 	 	 	 	 	1581516773	8.70	16.11
12/02/2020 14:12:54	120220	12022020	141254	90.35	12.418773	-57.136102	90.40	-0.520	-0.060	0.330	90.37	-1.30	0.80	 	 	 	 	 	 	 	 	 	 	 	 	 	 	 	 	 	 	1581516774	9.83	18.21
12/02/2020 14:12:55	120220	12022020	141255	90.35	12.418775	-57.136055	90.35	-0.120	-0.480	0.220	90.33	-1.80	0.60	 	 	 	 	 	 	 	 	 	 	 	 	 	 	 	 	 	 	1581516775	9.65	17.87
12/02/2020 14:12:56	120220	12022020	141256	90.24	12.418775	-57.136013	90.27	0.290	-0.640	0.270	90.24	-2.00	0.70	 	 	 	 	 	 	 	 	 	 	 	 	 	 	 	 	 	 	1581516776	9.01	16.69
12/02/2020 14:12:57	120220	12022020	141257	90.35	12.418778	-57.135970	90.43	0.600	-0.970	0.180	90.40	-2.30	0.60	 	 	 	 	 	 	 	 	 	 	 	 	 	 	 	 	 	 	1581516777	9.00	16.67
12/02/2020 14:12:58	120220	12022020	141258	90.54	12.418782	-57.135927	90.57	0.800	-1.340	0.280	90.54	-2.70	0.60	 	 	 	 	 	 	 	 	 	 	 	 	 	 	 	 	 	 	1581516778	9.42	17.45
12/02/2020 14:12:59	120220	12022020	141259	90.39	12.418780	-57.135882	90.37	0.660	-0.990	1.000	90.34	-2.50	1.30	 	 	 	 	 	 	 	 	 	 	 	 	 	 	 	 	 	 	1581516779	9.57	17.72
12/02/2020 14:13:00	120220	12022020	141300	90.14	12.418777	-57.135840	90.17	-0.000	0.250	1.790	90.12	-1.30	2.10	 	 	 	 	 	 	 	 	 	 	 	 	 	 	 	 	 	 	1581516780	8.67	16.06
12/02/2020 14:13:01	120220	12022020	141301	90.06	12.418772	-57.135803	90.12	-0.770	1.280	2.300	90.05	-0.20	2.60	 	 	 	 	 	 	 	 	 	 	 	 	 	 	 	 	 	 	1581516781	7.85	14.54
12/02/2020 14:13:02	120220	12022020	141302	90.02	12.418768	-57.135763	90.11	-1.020	1.010	2.470	90.02	-0.20	2.90	1017.30	26.60	26.60	20.50	20.60	516.0	69.0	69.0	436.0	28.3	346.00	14.80	70.00	10.30	43224	11113.0	27.5	27.4	1581516782	8.35	15.46
12/02/2020 14:13:03	120220	12022020	141303	90.08	12.418767	-57.135718	90.21	-0.540	-0.400	2.030	90.12	-2.40	2.10	 	 	 	 	 	 	 	 	 	 	 	 	 	 	 	 	 	 	1581516783	9.70	17.96
12/02/2020 14:13:04	120220	12022020	141304	90.30	12.418768	-57.135668	90.42	0.270	-1.500	1.360	90.34	-2.80	1.90	 	 	 	 	 	 	 	 	 	 	 	 	 	 	 	 	 	 	1581516784	10.57	19.58
12/02/2020 14:13:05	120220	12022020	141305	90.47	12.418773	-57.135622	90.54	0.740	-1.230	0.850	90.49	-2.70	1.30	 	 	 	 	 	 	 	 	 	 	 	 	 	 	 	 	 	 	1581516785	9.85	18.24
12/02/2020 14:13:06	120220	12022020	141306	90.46	12.418777	-57.135582	90.47	0.570	-0.210	0.580	90.44	-1.70	1.00	 	 	 	 	 	 	 	 	 	 	 	 	 	 	 	 	 	 	1581516786	8.44	15.63
12/02/2020 14:13:07	120220	12022020	141307	90.26	12.418777	-57.135543	90.24	0.130	0.290	0.680	90.21	-1.10	1.10	 	 	 	 	 	 	 	 	 	 	 	 	 	 	 	 	 	 	1581516787	8.10	15.00
12/02/2020 14:13:08	120220	12022020	141308	90.02	12.418778	-57.135502	90.01	-0.030	-0.100	0.680	89.98	-1.40	1.10	 	 	 	 	 	 	 	 	 	 	 	 	 	 	 	 	 	 	1581516788	8.95	16.58
12/02/2020 14:13:09	120220	12022020	141309	89.94	12.418780	-57.135455	90.00	0.220	-0.700	0.430	89.96	-2.00	0.90	 	 	 	 	 	 	 	 	 	 	 	 	 	 	 	 	 	 	1581516789	9.89	18.32
12/02/2020 14:13:10	120220	12022020	141310	90.14	12.418783	-57.135408	90.25	0.340	-0.500	0.410	90.20	-2.00	0.80	 	 	 	 	 	 	 	 	 	 	 	 	 	 	 	 	 	 	1581516790	9.84	18.22
12/02/2020 14:13:11	120220	12022020	141311	90.53	12.418783	-57.135367	90.65	-0.070	0.360	0.510	90.61	-1.20	0.90	 	 	 	 	 	 	 	 	 	 	 	 	 	 	 	 	 	 	1581516791	8.67	16.06
12/02/2020 14:13:12	120220	12022020	141312	90.74	12.418782	-57.135328	90.75	-0.610	0.740	0.930	90.72	-0.60	1.20	 	 	 	 	 	 	 	 	 	 	 	 	 	 	 	 	 	 	1581516792	8.04	14.89
12/02/2020 14:13:13	120220	12022020	141313	90.47	12.418778	-57.135287	90.44	-0.500	-0.250	1.700	90.40	-1.40	2.00	 	 	 	 	 	 	 	 	 	 	 	 	 	 	 	 	 	 	1581516793	8.95	16.58
12/02/2020 14:13:14	120220	12022020	141314	90.19	12.418773	-57.135237	90.26	0.210	-1.650	2.040	90.18	-2.90	2.40	 	 	 	 	 	 	 	 	 	 	 	 	 	 	 	 	 	 	1581516794	10.61	19.65
12/02/2020 14:13:15	120220	12022020	141315	90.32	12.418773	-57.135187	90.49	0.570	-1.500	1.880	90.40	-3.00	2.30	 	 	 	 	 	 	 	 	 	 	 	 	 	 	 	 	 	 	1581516795	10.47	19.39
12/02/2020 14:13:16	120220	12022020	141316	90.84	12.418775	-57.135148	91.05	0.130	0.200	1.500	90.96	-1.50	2.00	 	 	 	 	 	 	 	 	 	 	 	 	 	 	 	 	 	 	1581516796	8.41	15.58
12/02/2020 14:13:17	120220	12022020	141317	91.30	12.418775	-57.135115	91.41	-0.630	1.570	1.190	91.34	0.10	1.60	 	 	 	 	 	 	 	 	 	 	 	 	 	 	 	 	 	 	1581516797	6.98	12.93
12/02/2020 14:13:18	120220	12022020	141318	91.29	12.418773	-57.135077	91.28	-0.820	1.020	1.110	91.24	-0.20	1.50	 	 	 	 	 	 	 	 	 	 	 	 	 	 	 	 	 	 	1581516798	7.90	14.63
12/02/2020 14:13:19	120220	12022020	141319	90.98	12.418772	-57.135030	90.96	-0.110	-0.980	0.950	90.93	-2.10	1.40	 	 	 	 	 	 	 	 	 	 	 	 	 	 	 	 	 	 	1581516799	10.07	18.65
12/02/2020 14:13:20	120220	12022020	141320	90.78	12.418773	-57.134977	90.82	0.830	-2.120	0.570	90.78	-3.50	1.10	 	 	 	 	 	 	 	 	 	 	 	 	 	 	 	 	 	 	1581516800	11.18	20.71
12/02/2020 14:13:21	120220	12022020	141321	90.92	12.418777	-57.134932	91.04	0.990	-1.100	0.140	90.99	-2.70	0.60	 	 	 	 	 	 	 	 	 	 	 	 	 	 	 	 	 	 	1581516801	9.63	17.83
12/02/2020 14:13:22	120220	12022020	141322	91.37	12.418780	-57.134897	91.51	0.280	0.560	-0.130	91.46	-1.00	0.30	 	 	 	 	 	 	 	 	 	 	 	 	 	 	 	 	 	 	1581516802	7.45	13.80
12/02/2020 14:13:23	120220	12022020	141323	91.70	12.418780	-57.134862	91.76	-0.440	0.890	0.080	91.72	-0.40	0.40	 	 	 	 	 	 	 	 	 	 	 	 	 	 	 	 	 	 	1581516803	7.39	13.69
12/02/2020 14:13:24	120220	12022020	141324	91.63	12.418775	-57.134818	91.62	-0.360	-0.240	0.810	91.58	-1.40	1.10	 	 	 	 	 	 	 	 	 	 	 	 	 	 	 	 	 	 	1581516804	9.19	17.02
12/02/2020 14:13:25	120220	12022020	141325	91.28	12.418768	-57.134768	91.27	0.240	-1.240	1.600	91.21	-2.60	1.90	 	 	 	 	 	 	 	 	 	 	 	 	 	 	 	 	 	 	1581516805	10.59	19.61
12/02/2020 14:13:26	120220	12022020	141326	91.06	12.418765	-57.134722	91.12	0.370	-0.730	2.140	91.04	-2.30	2.50	 	 	 	 	 	 	 	 	 	 	 	 	 	 	 	 	 	 	1581516806	9.86	18.26
12/02/2020 14:13:27	120220	12022020	141327	91.01	12.418760	-57.134683	91.10	-0.280	0.580	2.550	91.01	-1.00	2.90	 	 	 	 	 	 	 	 	 	 	 	 	 	 	 	 	 	 	1581516807	8.06	14.93
12/02/2020 14:13:28	120220	12022020	141328	91.07	12.418757	-57.134648	91.18	-0.960	1.140	2.480	91.09	-0.20	2.90	 	 	 	 	 	 	 	 	 	 	 	 	 	 	 	 	 	 	1581516808	7.41	13.72
12/02/2020 14:13:29	120220	12022020	141329	91.17	12.418757	-57.134608	91.28	-0.730	0.220	1.900	91.20	-1.00	2.40	 	 	 	 	 	 	 	 	 	 	 	 	 	 	 	 	 	 	1581516809	8.49	15.72
12/02/2020 14:13:30	120220	12022020	141330	91.24	12.418757	-57.134562	91.28	0.270	-1.330	1.460	91.21	-2.50	1.90	 	 	 	 	 	 	 	 	 	 	 	 	 	 	 	 	 	 	1581516810	10.06	18.63
12/02/2020 14:13:31	120220	12022020	141331	90.92	12.418755	-57.134512	90.88	1.010	-1.920	1.310	90.84	-3.30	1.80	 	 	 	 	 	 	 	 	 	 	 	 	 	 	 	 	 	 	1581516811	10.47	19.39
12/02/2020 14:13:32	120220	12022020	141332	90.51	12.418755	-57.134468	90.47	0.750	-0.720	0.980	90.44	-2.40	1.50	 	 	 	 	 	 	 	 	 	 	 	 	 	 	 	 	 	 	1581516812	9.03	16.72
12/02/2020 14:13:33	120220	12022020	141333	90.25	12.418758	-57.134435	90.24	-0.170	1.190	0.640	90.22	-0.40	1.10	 	 	 	 	 	 	 	 	 	 	 	 	 	 	 	 	 	 	1581516813	7.07	13.09
12/02/2020 14:13:34	120220	12022020	141334	90.17	12.418760	-57.134403	90.20	-0.740	1.640	0.230	90.18	0.30	0.70	 	 	 	 	 	 	 	 	 	 	 	 	 	 	 	 	 	 	1581516814	6.81	12.61
12/02/2020 14:13:35	120220	12022020	141335	90.18	12.418763	-57.134362	90.21	-0.320	-0.180	-0.120	90.19	-1.20	0.30	 	 	 	 	 	 	 	 	 	 	 	 	 	 	 	 	 	 	1581516815	8.89	16.46
12/02/2020 14:13:36	120220	12022020	141336	90.26	12.418765	-57.134310	90.29	0.580	-2.230	-0.050	90.26	-3.40	0.30	 	 	 	 	 	 	 	 	 	 	 	 	 	 	 	 	 	 	1581516816	11.01	20.39
12/02/2020 14:13:37	120220	12022020	141337	90.21	12.418763	-57.134260	90.21	0.930	-2.270	0.650	90.18	-3.80	0.90	 	 	 	 	 	 	 	 	 	 	 	 	 	 	 	 	 	 	1581516817	10.59	19.61
12/02/2020 14:13:38	120220	12022020	141338	90.03	12.418758	-57.134220	90.05	0.250	-0.250	1.530	90.00	-2.00	1.80	 	 	 	 	 	 	 	 	 	 	 	 	 	 	 	 	 	 	1581516818	8.25	15.28
12/02/2020 14:13:39	120220	12022020	141339	90.01	12.418752	-57.134192	90.15	-0.940	2.040	2.240	90.06	0.40	2.60	 	 	 	 	 	 	 	 	 	 	 	 	 	 	 	 	 	 	1581516819	6.45	11.95
12/02/2020 14:13:40	120220	12022020	141340	90.35	12.418747	-57.134160	90.53	-1.700	2.630	2.380	90.43	1.30	2.80	 	 	 	 	 	 	 	 	 	 	 	 	 	 	 	 	 	 	1581516820	6.49	12.02
12/02/2020 14:13:41	120220	12022020	141341	90.68	12.418745	-57.134122	90.80	-1.210	0.700	1.960	90.72	-2.20	2.20	 	 	 	 	 	 	 	 	 	 	 	 	 	 	 	 	 	 	1581516821	8.36	15.48
12/02/2020 14:13:42	120220	12022020	141342	90.68	12.418745	-57.134070	90.68	0.380	-2.220	1.660	90.62	-3.20	2.10	 	 	 	 	 	 	 	 	 	 	 	 	 	 	 	 	 	 	1581516822	10.74	19.89
12/02/2020 14:13:43	120220	12022020	141343	90.33	12.418747	-57.134017	90.33	1.820	-3.450	1.650	90.28	-4.80	2.10	 	 	 	 	 	 	 	 	 	 	 	 	 	 	 	 	 	 	1581516823	11.24	20.82
12/02/2020 14:13:44	120220	12022020	141344	90.15	12.418748	-57.133973	90.23	1.870	-1.850	1.560	90.15	-3.60	2.00	 	 	 	 	 	 	 	 	 	 	 	 	 	 	 	 	 	 	1581516824	9.13	16.91
12/02/2020 14:13:45	120220	12022020	141345	90.32	12.418752	-57.133943	90.46	0.530	1.030	1.380	90.39	-0.80	1.80	 	 	 	 	 	 	 	 	 	 	 	 	 	 	 	 	 	 	1581516825	6.45	11.95
12/02/2020 14:13:46	120220	12022020	141346	90.71	12.418752	-57.133917	90.85	-1.080	2.830	1.050	90.79	1.30	1.50	 	 	 	 	 	 	 	 	 	 	 	 	 	 	 	 	 	 	1581516826	5.63	10.43
12/02/2020 14:13:47	120220	12022020	141347	91.01	12.418752	-57.133883	91.11	-1.720	2.150	0.780	91.04	1.00	1.20	 	 	 	 	 	 	 	 	 	 	 	 	 	 	 	 	 	 	1581516827	7.05	13.06
12/02/2020 14:13:48	120220	12022020	141348	91.18	12.418750	-57.133838	91.26	-1.070	-0.320	0.640	91.20	-1.30	1.10	 	 	 	 	 	 	 	 	 	 	 	 	 	 	 	 	 	 	1581516828	9.54	17.67
12/02/2020 14:13:49	120220	12022020	141349	91.24	12.418748	-57.133788	91.25	0.120	-2.410	0.720	91.20	-3.50	1.10	 	 	 	 	 	 	 	 	 	 	 	 	 	 	 	 	 	 	1581516829	10.74	19.89
12/02/2020 14:13:50	120220	12022020	141350	90.91	12.418743	-57.133742	90.83	0.920	-2.730	1.080	90.80	-4.20	1.40	 	 	 	 	 	 	 	 	 	 	 	 	 	 	 	 	 	 	1581516830	9.91	18.35
12/02/2020 14:13:51	120220	12022020	141351	90.31	12.418742	-57.133703	90.22	1.010	-1.350	1.280	90.19	-3.00	1.70	 	 	 	 	 	 	 	 	 	 	 	 	 	 	 	 	 	 	1581516831	8.20	15.19
12/02/2020 14:13:52	120220	12022020	141352	89.85	12.418742	-57.133670	89.87	0.580	0.560	1.070	89.82	-1.10	1.50	 	 	 	 	 	 	 	 	 	 	 	 	 	 	 	 	 	 	1581516832	6.93	12.83
12/02/2020 14:13:53	120220	12022020	141353	89.92	12.418745	-57.133637	90.05	-0.010	1.620	0.480	90.00	0.20	1.00	 	 	 	 	 	 	 	 	 	 	 	 	 	 	 	 	 	 	1581516833	6.93	12.83
12/02/2020 14:13:54	120220	12022020	141354	90.35	12.418748	-57.133600	90.48	-0.440	1.260	-0.180	90.43	0.00	0.30	 	 	 	 	 	 	 	 	 	 	 	 	 	 	 	 	 	 	1581516834	7.96	14.74
12/02/2020 14:13:55	120220	12022020	141355	90.60	12.418750	-57.133557	90.61	-0.560	0.200	-0.160	90.59	-1.00	0.20	 	 	 	 	 	 	 	 	 	 	 	 	 	 	 	 	 	 	1581516835	9.06	16.78
12/02/2020 14:13:56	120220	12022020	141356	90.35	12.418745	-57.133513	90.25	-0.310	-0.670	0.590	90.24	-1.90	0.90	 	 	 	 	 	 	 	 	 	 	 	 	 	 	 	 	 	 	1581516836	9.24	17.11
12/02/2020 14:13:57	120220	12022020	141357	89.72	12.418740	-57.133472	89.64	0.240	-1.270	1.470	89.60	-2.60	1.80	 	 	 	 	 	 	 	 	 	 	 	 	 	 	 	 	 	 	1581516837	8.98	16.63
12/02/2020 14:13:58	120220	12022020	141358	89.22	12.418737	-57.133430	89.23	0.700	-1.460	2.050	89.17	-2.80	2.40	 	 	 	 	 	 	 	 	 	 	 	 	 	 	 	 	 	 	1581516838	8.90	16.48
12/02/2020 14:13:59	120220	12022020	141359	89.07	12.418737	-57.133388	89.16	0.700	-0.940	2.180	89.08	-2.40	2.60	 	 	 	 	 	 	 	 	 	 	 	 	 	 	 	 	 	 	1581516839	8.55	15.83
12/02/2020 14:14:00	120220	12022020	141400	89.21	12.418737	-57.133352	89.33	0.220	0.050	2.120	89.24	-1.50	2.50	 	 	 	 	 	 	 	 	 	 	 	 	 	 	 	 	 	 	1581516840	7.88	14.59
12/02/2020 14:14:01	120220	12022020	141401	89.31	12.418737	-57.133315	89.37	-0.320	0.710	2.120	89.29	-0.70	2.50	 	 	 	 	 	 	 	 	 	 	 	 	 	 	 	 	 	 	1581516841	7.57	14.02
12/02/2020 14:14:02	120220	12022020	141402	89.13	12.418735	-57.133277	89.16	-0.470	0.490	2.220	89.08	-0.80	2.60	1017.30	26.60	26.60	20.60	20.70	547.0	69.0	70.0	438.0	28.3	349.00	15.10	75.00	10.70	44800	14089.0	27.4	27.4	1581516842	8.14	15.08
12/02/2020 14:14:03	120220	12022020	141403	88.86	12.418733	-57.133235	88.88	-0.210	-0.300	2.250	88.81	-1.50	2.70	 	 	 	 	 	 	 	 	 	 	 	 	 	 	 	 	 	 	1581516843	9.09	16.83
12/02/2020 14:14:04	120220	12022020	141404	88.67	12.418733	-57.133190	88.75	0.180	-0.910	1.990	88.67	-2.20	2.50	 	 	 	 	 	 	 	 	 	 	 	 	 	 	 	 	 	 	1581516844	9.46	17.52
12/02/2020 14:14:05	120220	12022020	141405	88.81	12.418737	-57.133147	88.95	0.380	-0.770	1.340	88.87	-2.20	1.90	 	 	 	 	 	 	 	 	 	 	 	 	 	 	 	 	 	 	1581516845	9.05	16.76
12/02/2020 14:14:06	120220	12022020	141406	89.07	12.418742	-57.133108	89.15	0.310	-0.110	0.700	89.09	-1.60	1.20	 	 	 	 	 	 	 	 	 	 	 	 	 	 	 	 	 	 	1581516846	8.26	15.30
12/02/2020 14:14:07	120220	12022020	141407	89.08	12.418745	-57.133072	89.10	0.090	0.330	0.490	89.07	-1.10	0.90	 	 	 	 	 	 	 	 	 	 	 	 	 	 	 	 	 	 	1581516847	7.91	14.65
12/02/2020 14:14:08	120220	12022020	141408	89.00	12.418745	-57.133032	89.02	-0.090	0.120	0.670	88.97	-1.20	1.00	 	 	 	 	 	 	 	 	 	 	 	 	 	 	 	 	 	 	1581516848	8.33	15.43
12/02/2020 14:14:09	120220	12022020	141409	88.89	12.418743	-57.132988	88.92	-0.050	-0.540	1.050	88.87	-1.80	1.40	 	 	 	 	 	 	 	 	 	 	 	 	 	 	 	 	 	 	1581516849	9.02	16.71
12/02/2020 14:14:10	120220	12022020	141410	88.84	12.418743	-57.132945	88.93	0.090	-0.930	1.200	88.86	-2.30	1.60	 	 	 	 	 	 	 	 	 	 	 	 	 	 	 	 	 	 	1581516850	9.36	17.33
12/02/2020 14:14:11	120220	12022020	141411	89.06	12.418745	-57.132903	89.19	0.030	-0.520	1.090	89.13	-2.00	1.50	 	 	 	 	 	 	 	 	 	 	 	 	 	 	 	 	 	 	1581516851	8.87	16.43
12/02/2020 14:14:12	120220	12022020	141412	89.37	12.418747	-57.132865	89.47	-0.230	0.320	1.200	89.41	-1.20	1.60	 	 	 	 	 	 	 	 	 	 	 	 	 	 	 	 	 	 	1581516852	7.90	14.63
12/02/2020 14:14:13	120220	12022020	141413	89.42	12.418743	-57.132828	89.43	-0.360	0.490	1.710	89.38	-0.90	2.00	 	 	 	 	 	 	 	 	 	 	 	 	 	 	 	 	 	 	1581516853	7.74	14.33
12/02/2020 14:14:14	120220	12022020	141414	89.20	12.418740	-57.132787	89.23	-0.130	-0.350	2.150	89.16	-1.60	2.50	 	 	 	 	 	 	 	 	 	 	 	 	 	 	 	 	 	 	1581516854	8.87	16.43
12/02/2020 14:14:15	120220	12022020	141415	89.08	12.418737	-57.132740	89.14	0.260	-1.200	2.150	89.07	-2.50	2.60	 	 	 	 	 	 	 	 	 	 	 	 	 	 	 	 	 	 	1581516855	9.80	18.15
12/02/2020 14:14:16	120220	12022020	141416	89.06	12.418738	-57.132695	89.14	0.500	-1.180	1.880	89.07	-2.60	2.40	 	 	 	 	 	 	 	 	 	 	 	 	 	 	 	 	 	 	1581516856	9.48	17.56
12/02/2020 14:14:17	120220	12022020	141417	89.12	12.418740	-57.132655	89.18	0.430	-0.420	1.270	89.13	-2.00	1.80	 	 	 	 	 	 	 	 	 	 	 	 	 	 	 	 	 	 	1581516857	8.59	15.91
12/02/2020 14:14:18	120220	12022020	141418	89.15	12.418747	-57.132618	89.19	0.090	0.480	0.530	89.16	-1.00	1.10	 	 	 	 	 	 	 	 	 	 	 	 	 	 	 	 	 	 	1581516858	8.05	14.91
12/02/2020 14:14:19	120220	12022020	141419	89.18	12.418752	-57.132580	89.22	-0.350	0.940	0.110	89.20	-0.50	0.60	 	 	 	 	 	 	 	 	 	 	 	 	 	 	 	 	 	 	1581516859	8.00	14.82
12/02/2020 14:14:20	120220	12022020	141420	89.31	12.418755	-57.132540	89.35	-0.530	0.460	0.040	89.33	-0.80	0.50	 	 	 	 	 	 	 	 	 	 	 	 	 	 	 	 	 	 	1581516860	8.47	15.69
12/02/2020 14:14:21	120220	12022020	141421	89.31	12.418755	-57.132495	89.29	-0.270	-0.720	0.290	89.28	-1.90	0.70	 	 	 	 	 	 	 	 	 	 	 	 	 	 	 	 	 	 	1581516861	9.44	17.48
12/02/2020 14:14:22	120220	12022020	141422	89.02	12.418752	-57.132448	88.96	0.150	-1.550	0.820	88.94	-2.90	1.10	 	 	 	 	 	 	 	 	 	 	 	 	 	 	 	 	 	 	1581516862	10.00	18.52
12/02/2020 14:14:23	120220	12022020	141423	88.74	12.418748	-57.132403	88.77	0.330	-1.180	1.450	88.72	-2.70	1.80	 	 	 	 	 	 	 	 	 	 	 	 	 	 	 	 	 	 	1581516863	9.39	17.39
12/02/2020 14:14:24	120220	12022020	141424	88.83	12.418747	-57.132365	88.94	0.080	0.020	1.730	88.87	-1.60	2.10	 	 	 	 	 	 	 	 	 	 	 	 	 	 	 	 	 	 	1581516864	8.14	15.08
12/02/2020 14:14:25	120220	12022020	141425	89.03	12.418745	-57.132330	89.08	-0.330	0.760	1.610	89.03	-0.70	2.00	 	 	 	 	 	 	 	 	 	 	 	 	 	 	 	 	 	 	1581516865	7.56	14.00
12/02/2020 14:14:26	120220	12022020	141426	88.87	12.418745	-57.132290	88.83	-0.400	0.260	1.710	88.80	-1.00	2.10	 	 	 	 	 	 	 	 	 	 	 	 	 	 	 	 	 	 	1581516866	8.45	15.65
12/02/2020 14:14:27	120220	12022020	141427	88.53	12.418745	-57.132245	88.52	-0.170	-0.490	1.920	88.48	-1.80	2.30	 	 	 	 	 	 	 	 	 	 	 	 	 	 	 	 	 	 	1581516867	9.66	17.89
12/02/2020 14:14:28	120220	12022020	141428	88.38	12.418745	-57.132200	88.43	0.010	-0.540	1.780	88.38	-2.00	2.30	 	 	 	 	 	 	 	 	 	 	 	 	 	 	 	 	 	 	1581516868	9.42	17.45
12/02/2020 14:14:29	120220	12022020	141429	88.39	12.418748	-57.132158	88.43	0.030	-0.310	1.430	88.39	-1.70	1.90	 	 	 	 	 	 	 	 	 	 	 	 	 	 	 	 	 	 	1581516869	8.59	15.91
12/02/2020 14:14:30	120220	12022020	141430	88.36	12.418752	-57.132118	88.39	0.090	-0.400	1.210	88.36	-1.80	1.70	 	 	 	 	 	 	 	 	 	 	 	 	 	 	 	 	 	 	1581516870	8.64	16.00
12/02/2020 14:14:31	120220	12022020	141431	88.41	12.418753	-57.132075	88.50	0.230	-0.610	1.060	88.46	-2.00	1.50	 	 	 	 	 	 	 	 	 	 	 	 	 	 	 	 	 	 	1581516871	9.16	16.96
12/02/2020 14:14:32	120220	12022020	141432	88.72	12.418755	-57.132032	88.84	0.370	-0.620	0.960	88.79	-2.00	1.40	 	 	 	 	 	 	 	 	 	 	 	 	 	 	 	 	 	 	1581516872	9.16	16.96
12/02/2020 14:14:33	120220	12022020	141433	88.97	12.418755	-57.131988	88.99	0.410	-0.370	1.200	88.96	-1.80	1.60	 	 	 	 	 	 	 	 	 	 	 	 	 	 	 	 	 	 	1581516873	9.01	16.69
12/02/2020 14:14:34	120220	12022020	141434	88.77	12.418753	-57.131948	88.70	0.190	0.200	1.610	88.69	-1.30	2.00	 	 	 	 	 	 	 	 	 	 	 	 	 	 	 	 	 	 	1581516874	8.73	16.17
12/02/2020 14:14:35	120220	12022020	141435	88.31	12.418753	-57.131908	88.27	-0.220	0.560	1.810	88.24	-0.90	2.20	 	 	 	 	 	 	 	 	 	 	 	 	 	 	 	 	 	 	1581516875	8.38	15.52
12/02/2020 14:14:36	120220	12022020	141436	88.15	12.418757	-57.131867	88.24	-0.570	0.250	1.560	88.19	-1.10	2.10	 	 	 	 	 	 	 	 	 	 	 	 	 	 	 	 	 	 	1581516876	8.71	16.13
12/02/2020 14:14:37	120220	12022020	141437	88.51	12.418762	-57.131823	88.67	-0.670	-0.520	0.990	88.62	-1.80	1.50	 	 	 	 	 	 	 	 	 	 	 	 	 	 	 	 	 	 	1581516877	9.37	17.35
12/02/2020 14:14:38	120220	12022020	141438	89.07	12.418765	-57.131778	89.19	-0.540	-1.080	0.620	89.15	-2.40	1.10	 	 	 	 	 	 	 	 	 	 	 	 	 	 	 	 	 	 	1581516878	9.66	17.89
12/02/2020 14:14:39	120220	12022020	141439	89.28	12.418762	-57.131733	89.26	-0.270	-1.010	0.920	89.25	-2.50	1.30	 	 	 	 	 	 	 	 	 	 	 	 	 	 	 	 	 	 	1581516879	9.31	17.24
12/02/2020 14:14:40	120220	12022020	141440	88.92	12.418758	-57.131692	88.82	0.120	-0.490	1.470	88.81	-2.00	1.80	 	 	 	 	 	 	 	 	 	 	 	 	 	 	 	 	 	 	1581516880	8.89	16.46
12/02/2020 14:14:41	120220	12022020	141441	88.52	12.418757	-57.131652	88.54	0.380	0.100	1.530	88.51	-1.40	2.00	 	 	 	 	 	 	 	 	 	 	 	 	 	 	 	 	 	 	1581516881	8.63	15.98
12/02/2020 14:14:42	120220	12022020	141442	88.64	12.418760	-57.131610	88.77	0.380	0.340	1.060	88.72	-1.10	1.60	 	 	 	 	 	 	 	 	 	 	 	 	 	 	 	 	 	 	1581516882	8.68	16.08
12/02/2020 14:14:43	120220	12022020	141443	89.11	12.418767	-57.131568	89.25	0.250	-0.040	0.370	89.22	-1.80	0.60	 	 	 	 	 	 	 	 	 	 	 	 	 	 	 	 	 	 	1581516883	9.06	16.78
12/02/2020 14:14:44	120220	12022020	141444	89.48	12.418772	-57.131522	89.50	0.210	-0.620	0.140	89.49	-2.00	0.60	 	 	 	 	 	 	 	 	 	 	 	 	 	 	 	 	 	 	1581516884	9.67	17.91
12/02/2020 14:14:45	120220	12022020	141445	89.37	12.418773	-57.131477	89.33	0.130	-0.640	0.610	89.32	-2.10	0.90	 	 	 	 	 	 	 	 	 	 	 	 	 	 	 	 	 	 	1581516885	9.62	17.82
12/02/2020 14:14:46	120220	12022020	141446	89.15	12.418772	-57.131435	89.16	-0.230	-0.100	1.250	89.13	-1.60	1.60	 	 	 	 	 	 	 	 	 	 	 	 	 	 	 	 	 	 	1581516886	8.92	16.52
12/02/2020 14:14:47	120220	12022020	141447	89.11	12.418768	-57.131395	89.19	-0.690	0.380	1.770	89.13	-1.10	2.10	 	 	 	 	 	 	 	 	 	 	 	 	 	 	 	 	 	 	1581516887	8.40	15.56
12/02/2020 14:14:48	120220	12022020	141448	89.37	12.418767	-57.131355	89.53	-0.770	0.230	1.740	89.46	-1.10	2.20	 	 	 	 	 	 	 	 	 	 	 	 	 	 	 	 	 	 	1581516888	8.56	15.85
12/02/2020 14:14:49	120220	12022020	141449	89.81	12.418767	-57.131310	89.94	-0.240	-0.730	1.360	89.89	-1.90	1.80	 	 	 	 	 	 	 	 	 	 	 	 	 	 	 	 	 	 	1581516889	9.34	17.30
12/02/2020 14:14:50	120220	12022020	141450	89.97	12.418768	-57.131262	89.98	0.570	-1.700	1.450	89.93	-3.00	1.80	 	 	 	 	 	 	 	 	 	 	 	 	 	 	 	 	 	 	1581516890	10.29	19.06
12/02/2020 14:14:51	120220	12022020	141451	89.68	12.418767	-57.131213	89.66	0.840	-1.240	1.690	89.62	-2.80	2.10	 	 	 	 	 	 	 	 	 	 	 	 	 	 	 	 	 	 	1581516891	10.15	18.80
12/02/2020 14:14:52	120220	12022020	141452	89.47	12.418767	-57.131175	89.51	0.160	0.590	1.470	89.46	-1.10	1.90	 	 	 	 	 	 	 	 	 	 	 	 	 	 	 	 	 	 	1581516892	8.27	15.32
12/02/2020 14:14:53	120220	12022020	141453	89.51	12.418770	-57.131142	89.57	-0.810	1.710	0.980	89.53	0.30	1.50	 	 	 	 	 	 	 	 	 	 	 	 	 	 	 	 	 	 	1581516893	7.10	13.15
12/02/2020 14:14:54	120220	12022020	141454	89.62	12.418773	-57.131102	89.67	-0.970	0.790	0.470	89.64	-0.40	1.00	 	 	 	 	 	 	 	 	 	 	 	 	 	 	 	 	 	 	1581516894	8.37	15.50
12/02/2020 14:14:55	120220	12022020	141455	89.74	12.418777	-57.131052	89.80	-0.230	-0.960	0.050	89.76	-2.10	0.50	 	 	 	 	 	 	 	 	 	 	 	 	 	 	 	 	 	 	1581516895	10.42	19.30
12/02/2020 14:14:56	120220	12022020	141456	89.89	12.418778	-57.131002	89.94	0.630	-1.800	-0.050	89.91	-3.10	0.30	 	 	 	 	 	 	 	 	 	 	 	 	 	 	 	 	 	 	1581516896	10.67	19.76
12/02/2020 14:14:57	120220	12022020	141457	89.93	12.418778	-57.130957	89.94	0.880	-1.340	0.400	89.91	-2.90	0.70	 	 	 	 	 	 	 	 	 	 	 	 	 	 	 	 	 	 	1581516897	9.53	17.65
12/02/2020 14:14:58	120220	12022020	141458	89.74	12.418775	-57.130917	89.70	0.460	-0.260	1.130	89.68	-1.80	1.40	 	 	 	 	 	 	 	 	 	 	 	 	 	 	 	 	 	 	1581516898	8.41	15.58
12/02/2020 14:14:59	120220	12022020	141459	89.36	12.418772	-57.130878	89.35	-0.140	0.490	1.760	89.30	-1.00	2.10	 	 	 	 	 	 	 	 	 	 	 	 	 	 	 	 	 	 	1581516899	8.19	15.17
12/02/2020 14:15:00	120220	12022020	141500	89.19	12.418772	-57.130838	89.29	-0.540	0.800	1.960	89.21	-0.60	2.40	 	 	 	 	 	 	 	 	 	 	 	 	 	 	 	 	 	 	1581516900	8.64	16.00
12/02/2020 14:15:01	120220	12022020	141501	89.44	12.418773	-57.130797	89.60	-0.660	0.650	1.810	89.52	-0.70	2.30	 	 	 	 	 	 	 	 	 	 	 	 	 	 	 	 	 	 	1581516901	8.83	16.35
12/02/2020 14:15:02	120220	12022020	141502	89.74	12.418773	-57.130752	89.83	-0.310	-0.380	1.670	89.76	-1.60	2.10	1017.40	26.60	26.60	20.30	20.40	583.0	68.0	68.0	438.0	28.3	348.00	14.90	71.00	10.40	46768	12031.0	27.4	27.4	1581516902	9.29	17.21
12/02/2020 14:15:03	120220	12022020	141503	89.80	12.418772	-57.130703	89.88	0.300	-1.630	1.730	89.81	-2.90	2.10	 	 	 	 	 	 	 	 	 	 	 	 	 	 	 	 	 	 	1581516903	10.33	19.13
12/02/2020 14:15:04	120220	12022020	141504	89.89	12.418770	-57.130655	90.00	0.640	-1.720	1.770	89.92	-3.20	2.20	 	 	 	 	 	 	 	 	 	 	 	 	 	 	 	 	 	 	1581516904	10.33	19.13
12/02/2020 14:15:05	120220	12022020	141505	90.01	12.418770	-57.130613	90.08	0.460	-0.370	1.570	90.01	-2.00	2.00	 	 	 	 	 	 	 	 	 	 	 	 	 	 	 	 	 	 	1581516905	8.82	16.33
12/02/2020 14:15:06	120220	12022020	141506	89.96	12.418772	-57.130577	89.98	-0.000	1.150	1.250	89.93	-0.40	1.70	 	 	 	 	 	 	 	 	 	 	 	 	 	 	 	 	 	 	1581516906	7.50	13.89
12/02/2020 14:15:07	120220	12022020	141507	89.88	12.418777	-57.130540	89.94	-0.400	1.450	0.790	89.89	0.10	1.30	 	 	 	 	 	 	 	 	 	 	 	 	 	 	 	 	 	 	1581516907	7.82	14.48
12/02/2020 14:15:08	120220	12022020	141508	90.04	12.418782	-57.130497	90.16	-0.550	0.410	0.160	90.10	-0.80	0.70	 	 	 	 	 	 	 	 	 	 	 	 	 	 	 	 	 	 	1581516908	9.15	16.95
12/02/2020 14:15:09	120220	12022020	141509	90.38	12.418785	-57.130450	90.48	-0.330	-1.170	-0.290	90.43	-2.30	0.20	 	 	 	 	 	 	 	 	 	 	 	 	 	 	 	 	 	 	1581516909	10.18	18.85
12/02/2020 14:15:10	120220	12022020	141510	90.49	12.418787	-57.130400	90.48	0.220	-2.230	-0.070	90.46	-3.50	0.30	 	 	 	 	 	 	 	 	 	 	 	 	 	 	 	 	 	 	1581516910	10.49	19.43
12/02/2020 14:15:11	120220	12022020	141511	90.20	12.418782	-57.130353	90.16	0.650	-1.830	0.690	90.13	-3.40	1.00	 	 	 	 	 	 	 	 	 	 	 	 	 	 	 	 	 	 	1581516911	9.92	18.37
12/02/2020 14:15:12	120220	12022020	141512	89.85	12.418777	-57.130313	89.87	0.470	-0.180	1.360	89.82	-1.90	1.70	 	 	 	 	 	 	 	 	 	 	 	 	 	 	 	 	 	 	1581516912	8.52	15.78
12/02/2020 14:15:13	120220	12022020	141513	89.84	12.418775	-57.130278	89.95	-0.200	1.350	1.470	89.88	-0.20	1.90	 	 	 	 	 	 	 	 	 	 	 	 	 	 	 	 	 	 	1581516913	7.52	13.93
12/02/2020 14:15:14	120220	12022020	141514	90.09	12.418775	-57.130240	90.20	-0.720	1.450	1.230	90.14	0.10	1.70	 	 	 	 	 	 	 	 	 	 	 	 	 	 	 	 	 	 	1581516914	7.96	14.74
12/02/2020 14:15:15	120220	12022020	141515	90.30	12.418777	-57.130195	90.40	-0.630	0.310	0.970	90.33	-0.90	1.40	 	 	 	 	 	 	 	 	 	 	 	 	 	 	 	 	 	 	1581516915	9.45	17.50
12/02/2020 14:15:16	120220	12022020	141516	90.47	12.418777	-57.130147	90.56	-0.060	-0.820	0.680	90.51	-2.10	1.10	 	 	 	 	 	 	 	 	 	 	 	 	 	 	 	 	 	 	1581516916	10.26	19.00
12/02/2020 14:15:17	120220	12022020	141517	90.59	12.418778	-57.130100	90.64	0.560	-1.310	0.700	90.59	-2.70	1.10	 	 	 	 	 	 	 	 	 	 	 	 	 	 	 	 	 	 	1581516917	9.88	18.30
12/02/2020 14:15:18	120220	12022020	141518	90.56	12.418780	-57.130055	90.61	0.880	-1.360	0.930	90.54	-2.80	1.30	 	 	 	 	 	 	 	 	 	 	 	 	 	 	 	 	 	 	1581516918	9.36	17.33
12/02/2020 14:15:19	120220	12022020	141519	90.57	12.418778	-57.130012	90.65	0.660	-0.880	1.320	90.57	-2.40	1.70	 	 	 	 	 	 	 	 	 	 	 	 	 	 	 	 	 	 	1581516919	9.25	17.13
12/02/2020 14:15:20	120220	12022020	141520	90.61	12.418775	-57.129972	90.70	-0.110	0.300	1.730	90.62	-1.30	2.10	 	 	 	 	 	 	 	 	 	 	 	 	 	 	 	 	 	 	1581516920	8.63	15.98
12/02/2020 14:15:21	120220	12022020	141521	90.62	12.418772	-57.129935	90.67	-0.920	1.450	1.730	90.60	-0.10	2.20	 	 	 	 	 	 	 	 	 	 	 	 	 	 	 	 	 	 	1581516921	7.76	14.37
12/02/2020 14:15:22	120220	12022020	141522	90.49	12.418772	-57.129897	90.51	-1.060	1.230	1.520	90.46	-0.00	2.00	 	 	 	 	 	 	 	 	 	 	 	 	 	 	 	 	 	 	1581516922	7.93	14.69
12/02/2020 14:15:23	120220	12022020	141523	90.32	12.418773	-57.129852	90.35	-0.320	-0.520	1.430	90.29	-1.60	1.80	 	 	 	 	 	 	 	 	 	 	 	 	 	 	 	 	 	 	1581516923	9.63	17.83
12/02/2020 14:15:24	120220	12022020	141524	90.11	12.418773	-57.129800	90.11	0.600	-2.260	1.310	90.07	-3.50	1.80	 	 	 	 	 	 	 	 	 	 	 	 	 	 	 	 	 	 	1581516924	11.00	20.37
12/02/2020 14:15:25	120220	12022020	141525	89.89	12.418773	-57.129748	89.89	1.020	-2.490	1.100	89.85	-4.00	1.50	 	 	 	 	 	 	 	 	 	 	 	 	 	 	 	 	 	 	1581516925	10.68	19.78
12/02/2020 14:15:26	120220	12022020	141526	89.82	12.418775	-57.129707	89.93	0.680	-0.740	1.070	89.86	-2.50	1.50	 	 	 	 	 	 	 	 	 	 	 	 	 	 	 	 	 	 	1581516926	9.00	16.67
12/02/2020 14:15:27	120220	12022020	141527	90.17	12.418775	-57.129673	90.34	-0.120	1.530	0.920	90.27	-0.20	1.40	 	 	 	 	 	 	 	 	 	 	 	 	 	 	 	 	 	 	1581516927	7.13	13.20
12/02/2020 14:15:28	120220	12022020	141528	90.68	12.418775	-57.129640	90.83	-0.750	2.300	0.680	90.76	0.90	1.10	 	 	 	 	 	 	 	 	 	 	 	 	 	 	 	 	 	 	1581516928	7.03	13.02
12/02/2020 14:15:29	120220	12022020	141529	90.92	12.418775	-57.129598	90.96	-0.670	0.950	0.810	90.91	-0.20	1.20	 	 	 	 	 	 	 	 	 	 	 	 	 	 	 	 	 	 	1581516929	8.81	16.32
12/02/2020 14:15:30	120220	12022020	141530	90.70	12.418772	-57.129547	90.67	-0.070	-1.150	1.310	90.62	-2.30	1.70	 	 	 	 	 	 	 	 	 	 	 	 	 	 	 	 	 	 	1581516930	10.69	19.80
12/02/2020 14:15:31	120220	12022020	141531	90.35	12.418768	-57.129497	90.37	0.460	-2.210	1.660	90.30	-3.50	2.00	 	 	 	 	 	 	 	 	 	 	 	 	 	 	 	 	 	 	1581516931	10.84	20.08
12/02/2020 14:15:32	120220	12022020	141532	90.25	12.418767	-57.129452	90.34	0.590	-1.630	1.650	90.26	-3.20	2.10	 	 	 	 	 	 	 	 	 	 	 	 	 	 	 	 	 	 	1581516932	9.46	17.52
12/02/2020 14:15:33	120220	12022020	141533	90.39	12.418768	-57.129413	90.49	0.390	-0.160	1.370	90.43	-0.90	1.50	 	 	 	 	 	 	 	 	 	 	 	 	 	 	 	 	 	 	1581516933	7.98	14.78
12/02/2020 14:15:34	120220	12022020	141534	90.59	12.418772	-57.129378	90.67	0.020	0.850	0.890	90.63	-0.60	1.40	 	 	 	 	 	 	 	 	 	 	 	 	 	 	 	 	 	 	1581516934	7.62	14.11
12/02/2020 14:15:35	120220	12022020	141535	90.71	12.418773	-57.129338	90.76	-0.360	0.760	0.770	90.71	-1.10	1.30	 	 	 	 	 	 	 	 	 	 	 	 	 	 	 	 	 	 	1581516935	8.41	15.58
12/02/2020 14:15:36	120220	12022020	141536	90.65	12.418772	-57.129293	90.66	-0.470	-0.170	0.950	90.63	-1.40	1.30	 	 	 	 	 	 	 	 	 	 	 	 	 	 	 	 	 	 	1581516936	9.43	17.46
12/02/2020 14:15:37	120220	12022020	141537	90.39	12.418768	-57.129247	90.36	-0.160	-1.120	1.220	90.31	-2.40	1.60	 	 	 	 	 	 	 	 	 	 	 	 	 	 	 	 	 	 	1581516937	10.10	18.71
12/02/2020 14:15:38	120220	12022020	141538	90.08	12.418765	-57.129198	90.10	0.260	-1.350	1.560	90.04	-2.80	1.90	 	 	 	 	 	 	 	 	 	 	 	 	 	 	 	 	 	 	1581516938	10.01	18.54
12/02/2020 14:15:39	120220	12022020	141539	89.97	12.418763	-57.129155	90.02	0.390	-0.640	1.530	89.97	-2.20	2.00	 	 	 	 	 	 	 	 	 	 	 	 	 	 	 	 	 	 	1581516939	9.19	17.02
12/02/2020 14:15:40	120220	12022020	141540	89.91	12.418763	-57.129117	89.91	0.170	0.440	1.240	89.87	-1.10	1.70	 	 	 	 	 	 	 	 	 	 	 	 	 	 	 	 	 	 	1581516940	8.25	15.28
12/02/2020 14:15:41	120220	12022020	141541	89.73	12.418767	-57.129078	89.75	-0.020	0.740	1.060	89.71	-0.60	1.50	 	 	 	 	 	 	 	 	 	 	 	 	 	 	 	 	 	 	1581516941	8.16	15.11
12/02/2020 14:15:42	120220	12022020	141542	89.81	12.418768	-57.129033	89.92	0.050	-0.030	0.790	89.86	-1.30	1.30	 	 	 	 	 	 	 	 	 	 	 	 	 	 	 	 	 	 	1581516942	9.29	17.21
12/02/2020 14:15:43	120220	12022020	141543	90.07	12.418770	-57.128987	90.16	0.040	-0.640	0.660	90.11	-2.00	1.10	 	 	 	 	 	 	 	 	 	 	 	 	 	 	 	 	 	 	1581516943	10.08	18.67
12/02/2020 14:15:44	120220	12022020	141544	90.15	12.418768	-57.128942	90.18	-0.280	-0.250	0.850	90.14	-1.70	1.20	 	 	 	 	 	 	 	 	 	 	 	 	 	 	 	 	 	 	1581516944	9.28	17.19
12/02/2020 14:15:45	120220	12022020	141545	89.94	12.418767	-57.128903	89.90	-0.630	0.320	1.260	89.87	-1.10	1.60	 	 	 	 	 	 	 	 	 	 	 	 	 	 	 	 	 	 	1581516945	8.10	15.00
12/02/2020 14:15:46	120220	12022020	141546	89.59	12.418763	-57.128863	89.59	-0.330	-0.420	1.630	89.54	-1.60	2.00	 	 	 	 	 	 	 	 	 	 	 	 	 	 	 	 	 	 	1581516946	8.50	15.74
12/02/2020 14:15:47	120220	12022020	141547	89.45	12.418762	-57.128815	89.51	0.670	-1.940	1.600	89.46	-3.20	2.00	 	 	 	 	 	 	 	 	 	 	 	 	 	 	 	 	 	 	1581516947	10.37	19.21
12/02/2020 14:15:48	120220	12022020	141548	89.47	12.418763	-57.128763	89.53	1.180	-1.650	1.180	89.48	-3.20	1.70	 	 	 	 	 	 	 	 	 	 	 	 	 	 	 	 	 	 	1581516948	10.81	20.02
12/02/2020 14:15:49	120220	12022020	141549	89.59	12.418768	-57.128725	89.61	0.400	0.750	0.710	89.60	-1.10	1.20	 	 	 	 	 	 	 	 	 	 	 	 	 	 	 	 	 	 	1581516949	8.16	15.11
12/02/2020 14:15:50	120220	12022020	141550	89.61	12.418772	-57.128697	89.63	-1.050	2.790	0.810	89.61	1.20	1.20	 	 	 	 	 	 	 	 	 	 	 	 	 	 	 	 	 	 	1581516950	6.04	11.19
12/02/2020 14:15:51	120220	12022020	141551	89.60	12.418770	-57.128665	89.64	-1.540	1.810	1.170	89.60	0.80	1.50	 	 	 	 	 	 	 	 	 	 	 	 	 	 	 	 	 	 	1581516951	6.96	12.89
12/02/2020 14:15:52	120220	12022020	141552	89.62	12.418768	-57.128615	89.67	-0.420	-1.520	1.140	89.62	-2.40	1.60	 	 	 	 	 	 	 	 	 	 	 	 	 	 	 	 	 	 	1581516952	10.44	19.33
12/02/2020 14:15:53	120220	12022020	141553	89.64	12.418770	-57.128558	89.70	0.960	-3.500	1.240	89.64	-4.80	1.60	 	 	 	 	 	 	 	 	 	 	 	 	 	 	 	 	 	 	1581516953	12.04	22.30
12/02/2020 14:15:54	120220	12022020	141554	89.64	12.418768	-57.128512	89.71	1.240	-2.340	1.810	89.64	-4.10	2.10	 	 	 	 	 	 	 	 	 	 	 	 	 	 	 	 	 	 	1581516954	9.83	18.21
12/02/2020 14:15:55	120220	12022020	141555	89.63	12.418765	-57.128480	89.70	0.290	0.560	2.290	89.62	-1.20	2.70	 	 	 	 	 	 	 	 	 	 	 	 	 	 	 	 	 	 	1581516955	6.74	12.48
12/02/2020 14:15:56	120220	12022020	141556	89.61	12.418763	-57.128453	89.68	-0.820	2.410	2.190	89.61	0.90	2.70	 	 	 	 	 	 	 	 	 	 	 	 	 	 	 	 	 	 	1581516956	5.72	10.59
12/02/2020 14:15:57	120220	12022020	141557	89.67	12.418765	-57.128418	89.77	-1.080	1.950	1.430	89.70	0.70	2.00	 	 	 	 	 	 	 	 	 	 	 	 	 	 	 	 	 	 	1581516957	7.31	13.54
12/02/2020 14:15:58	120220	12022020	141558	89.86	12.418770	-57.128373	89.95	-0.400	0.040	0.500	89.90	-1.10	1.10	 	 	 	 	 	 	 	 	 	 	 	 	 	 	 	 	 	 	1581516958	9.55	17.69
12/02/2020 14:15:59	120220	12022020	141559	90.02	12.418775	-57.128325	90.05	0.400	-1.480	-0.190	90.03	-2.70	0.30	 	 	 	 	 	 	 	 	 	 	 	 	 	 	 	 	 	 	1581516959	10.39	19.24
12/02/2020 14:16:00	120220	12022020	141600	90.00	12.418778	-57.128280	89.98	0.650	-1.740	-0.500	89.97	-3.20	-0.10	 	 	 	 	 	 	 	 	 	 	 	 	 	 	 	 	 	 	1581516960	9.45	17.50
12/02/2020 14:16:01	120220	12022020	141601	89.85	12.418780	-57.128242	89.84	0.500	-1.220	-0.360	89.82	-2.70	0.00	 	 	 	 	 	 	 	 	 	 	 	 	 	 	 	 	 	 	1581516961	8.29	15.35
12/02/2020 14:16:02	120220	12022020	141602	89.79	12.418782	-57.128203	89.82	0.340	-0.570	-0.050	89.79	-2.10	0.30	1017.30	26.60	26.60	20.70	20.70	554.0	70.0	70.0	437.0	28.2	345.00	14.60	69.00	10.20	45409	14006.0	27.4	27.4	1581516962	7.99	14.80
12/02/2020 14:16:03	120220	12022020	141603	89.84	12.418782	-57.128165	89.90	0.180	-0.010	0.300	89.87	-1.50	0.70	 	 	 	 	 	 	 	 	 	 	 	 	 	 	 	 	 	 	1581516963	8.21	15.20
12/02/2020 14:16:04	120220	12022020	141604	90.01	12.418780	-57.128125	90.10	-0.180	0.550	0.900	90.05	-0.90	1.20	 	 	 	 	 	 	 	 	 	 	 	 	 	 	 	 	 	 	1581516964	8.28	15.33
12/02/2020 14:16:05	120220	12022020	141605	90.15	12.418777	-57.128087	90.21	-0.620	0.980	1.770	90.15	-0.50	2.00	 	 	 	 	 	 	 	 	 	 	 	 	 	 	 	 	 	 	1581516965	8.13	15.06
12/02/2020 14:16:06	120220	12022020	141606	90.04	12.418770	-57.128048	90.07	-0.830	0.770	2.540	90.00	-0.50	2.80	 	 	 	 	 	 	 	 	 	 	 	 	 	 	 	 	 	 	1581516966	8.24	15.26
12/02/2020 14:16:07	120220	12022020	141607	89.78	12.418763	-57.128007	89.79	-0.500	-0.420	2.960	89.71	-1.60	3.30	 	 	 	 	 	 	 	 	 	 	 	 	 	 	 	 	 	 	1581516967	8.93	16.54
12/02/2020 14:16:08	120220	12022020	141608	89.41	12.418762	-57.127960	89.42	0.340	-1.800	3.010	89.34	-3.00	3.40	 	 	 	 	 	 	 	 	 	 	 	 	 	 	 	 	 	 	1581516968	9.95	18.43
12/02/2020 14:16:09	120220	12022020	141609	89.21	12.418763	-57.127913	89.30	1.030	-1.850	2.440	89.22	-3.30	3.00	 	 	 	 	 	 	 	 	 	 	 	 	 	 	 	 	 	 	1581516969	9.82	18.19
12/02/2020 14:16:10	120220	12022020	141610	89.36	12.418770	-57.127875	89.48	1.060	-0.620	1.430	89.41	-2.20	2.00	 	 	 	 	 	 	 	 	 	 	 	 	 	 	 	 	 	 	1581516970	8.39	15.54
12/02/2020 14:16:11	120220	12022020	141611	89.61	12.418777	-57.127840	89.69	0.560	0.470	0.530	89.65	-1.00	1.00	 	 	 	 	 	 	 	 	 	 	 	 	 	 	 	 	 	 	1581516971	7.56	14.00
12/02/2020 14:16:12	120220	12022020	141612	89.78	12.418782	-57.127802	89.87	-0.010	0.620	0.060	89.82	-0.70	0.50	 	 	 	 	 	 	 	 	 	 	 	 	 	 	 	 	 	 	1581516972	8.09	14.98
12/02/2020 14:16:13	120220	12022020	141613	90.03	12.418783	-57.127758	90.12	-0.410	0.310	-0.010	90.08	-1.00	0.40	 	 	 	 	 	 	 	 	 	 	 	 	 	 	 	 	 	 	1581516973	8.96	16.59
12/02/2020 14:16:14	120220	12022020	141614	90.18	12.418782	-57.127717	90.22	-0.730	0.310	0.310	90.18	-1.10	0.60	 	 	 	 	 	 	 	 	 	 	 	 	 	 	 	 	 	 	1581516974	8.99	16.65
12/02/2020 14:16:15	120220	12022020	141615	90.03	12.418778	-57.127677	90.00	-0.970	0.560	0.910	89.96	-0.90	1.20	 	 	 	 	 	 	 	 	 	 	 	 	 	 	 	 	 	 	1581516975	8.24	15.26
12/02/2020 14:16:16	120220	12022020	141616	89.63	12.418775	-57.127640	89.59	-0.820	0.150	1.440	89.54	-1.10	1.80	 	 	 	 	 	 	 	 	 	 	 	 	 	 	 	 	 	 	1581516976	8.01	14.83
12/02/2020 14:16:17	120220	12022020	141617	89.32	12.418773	-57.127597	89.36	0.070	-1.410	1.540	89.30	-2.50	1.90	 	 	 	 	 	 	 	 	 	 	 	 	 	 	 	 	 	 	1581516977	9.00	16.67
12/02/2020 14:16:18	120220	12022020	141618	89.28	12.418777	-57.127548	89.37	1.330	-2.960	1.460	89.30	-4.20	1.90	 	 	 	 	 	 	 	 	 	 	 	 	 	 	 	 	 	 	1581516978	10.49	19.43
12/02/2020 14:16:19	120220	12022020	141619	89.48	12.418780	-57.127498	89.61	1.860	-2.510	1.360	89.54	-4.10	1.80	 	 	 	 	 	 	 	 	 	 	 	 	 	 	 	 	 	 	1581516979	10.36	19.19
12/02/2020 14:16:20	120220	12022020	141620	89.79	12.418782	-57.127460	89.93	0.930	0.140	1.500	89.85	-1.70	1.90	 	 	 	 	 	 	 	 	 	 	 	 	 	 	 	 	 	 	1581516980	8.06	14.93
12/02/2020 14:16:21	120220	12022020	141621	90.06	12.418780	-57.127432	90.17	-0.860	2.900	1.940	90.09	1.20	2.30	 	 	 	 	 	 	 	 	 	 	 	 	 	 	 	 	 	 	1581516981	5.98	11.07
12/02/2020 14:16:22	120220	12022020	141622	90.16	12.418775	-57.127403	90.25	-2.100	3.620	2.300	90.17	2.30	2.70	 	 	 	 	 	 	 	 	 	 	 	 	 	 	 	 	 	 	1581516982	6.11	11.32
12/02/2020 14:16:23	120220	12022020	141623	90.18	12.418772	-57.127365	90.25	-1.690	1.430	2.090	90.18	0.50	2.50	 	 	 	 	 	 	 	 	 	 	 	 	 	 	 	 	 	 	1581516983	8.18	15.15
12/02/2020 14:16:24	120220	12022020	141624	90.17	12.418772	-57.127315	90.22	-0.040	-1.920	1.520	90.17	-2.90	2.00	 	 	 	 	 	 	 	 	 	 	 	 	 	 	 	 	 	 	1581516984	10.82	20.04
12/02/2020 14:16:25	120220	12022020	141625	90.18	12.418777	-57.127262	90.23	1.380	-3.540	1.090	90.18	-4.80	1.50	 	 	 	 	 	 	 	 	 	 	 	 	 	 	 	 	 	 	1581516985	11.22	20.78
12/02/2020 14:16:26	120220	12022020	141626	90.25	12.418780	-57.127218	90.31	1.520	-2.420	0.820	90.26	-4.10	1.30	 	 	 	 	 	 	 	 	 	 	 	 	 	 	 	 	 	 	1581516986	8.98	16.63
12/02/2020 14:16:27	120220	12022020	141627	90.32	12.418783	-57.127188	90.35	0.630	-0.130	0.590	90.32	-1.80	1.00	 	 	 	 	 	 	 	 	 	 	 	 	 	 	 	 	 	 	1581516987	6.67	12.35
12/02/2020 14:16:28	120220	12022020	141628	90.32	12.418787	-57.127158	90.34	-0.340	1.350	0.580	90.31	-0.20	1.00	 	 	 	 	 	 	 	 	 	 	 	 	 	 	 	 	 	 	1581516988	6.32	11.70
12/02/2020 14:16:29	120220	12022020	141629	90.33	12.418787	-57.127122	90.40	-0.760	1.290	0.770	90.35	-0.00	1.10	 	 	 	 	 	 	 	 	 	 	 	 	 	 	 	 	 	 	1581516989	7.60	14.08
12/02/2020 14:16:30	120220	12022020	141630	90.47	12.418785	-57.127080	90.55	-0.650	0.250	0.790	90.51	-1.00	1.20	 	 	 	 	 	 	 	 	 	 	 	 	 	 	 	 	 	 	1581516990	9.04	16.74
12/02/2020 14:16:31	120220	12022020	141631	90.59	12.418782	-57.127033	90.63	-0.260	-0.720	0.900	90.59	-2.00	1.20	 	 	 	 	 	 	 	 	 	 	 	 	 	 	 	 	 	 	1581516991	9.58	17.74
12/02/2020 14:16:32	120220	12022020	141632	90.45	12.418778	-57.126990	90.41	0.120	-0.960	1.380	90.38	-2.40	1.70	 	 	 	 	 	 	 	 	 	 	 	 	 	 	 	 	 	 	1581516992	9.23	17.09
12/02/2020 14:16:33	120220	12022020	141633	90.14	12.418775	-57.126950	90.14	0.270	-0.490	1.590	90.10	-2.00	2.00	 	 	 	 	 	 	 	 	 	 	 	 	 	 	 	 	 	 	1581516993	8.44	15.63
12/02/2020 14:16:34	120220	12022020	141634	90.11	12.418777	-57.126913	90.20	0.050	0.290	1.280	90.15	-1.20	1.70	 	 	 	 	 	 	 	 	 	 	 	 	 	 	 	 	 	 	1581516994	7.81	14.46
12/02/2020 14:16:35	120220	12022020	141635	90.40	12.418780	-57.126878	90.53	-0.270	0.580	0.920	90.48	-0.80	1.40	 	 	 	 	 	 	 	 	 	 	 	 	 	 	 	 	 	 	1581516995	7.55	13.98
12/02/2020 14:16:36	120220	12022020	141636	90.72	12.418782	-57.126838	90.77	-0.100	-0.260	0.630	90.74	-1.50	1.10	 	 	 	 	 	 	 	 	 	 	 	 	 	 	 	 	 	 	1581516996	8.24	15.26
12/02/2020 14:16:37	120220	12022020	141637	90.64	12.418783	-57.126793	90.60	0.650	-1.630	0.740	90.58	-2.80	1.10	 	 	 	 	 	 	 	 	 	 	 	 	 	 	 	 	 	 	1581516997	9.61	17.80
12/02/2020 14:16:38	120220	12022020	141638	90.35	12.418783	-57.126747	90.36	1.230	-1.970	1.130	90.32	-3.40	1.50	 	 	 	 	 	 	 	 	 	 	 	 	 	 	 	 	 	 	1581516998	10.06	18.63
12/02/2020 14:16:39	120220	12022020	141639	90.36	12.418782	-57.126705	90.48	0.820	-0.500	1.620	90.40	-2.20	1.90	 	 	 	 	 	 	 	 	 	 	 	 	 	 	 	 	 	 	1581516999	8.67	16.06
12/02/2020 14:16:40	120220	12022020	141640	90.59	12.418778	-57.126673	90.71	-0.460	1.540	2.070	90.63	-0.10	2.40	 	 	 	 	 	 	 	 	 	 	 	 	 	 	 	 	 	 	1581517000	6.78	12.56
12/02/2020 14:16:41	120220	12022020	141641	90.67	12.418775	-57.126642	90.74	-1.610	2.210	2.280	90.66	0.90	2.60	 	 	 	 	 	 	 	 	 	 	 	 	 	 	 	 	 	 	1581517001	6.52	12.08
12/02/2020 14:16:42	120220	12022020	141642	90.62	12.418772	-57.126603	90.72	-1.660	0.920	2.110	90.64	-0.20	2.50	 	 	 	 	 	 	 	 	 	 	 	 	 	 	 	 	 	 	1581517002	8.17	15.13
12/02/2020 14:16:43	120220	12022020	141643	90.82	12.418772	-57.126557	90.99	-0.710	-1.070	1.710	90.90	-2.20	2.20	 	 	 	 	 	 	 	 	 	 	 	 	 	 	 	 	 	 	1581517003	9.89	18.32
12/02/2020 14:16:44	120220	12022020	141644	91.23	12.418770	-57.126510	91.37	0.420	-2.230	1.040	91.30	-3.50	1.50	 	 	 	 	 	 	 	 	 	 	 	 	 	 	 	 	 	 	1581517004	10.06	18.63
12/02/2020 14:16:45	120220	12022020	141645	91.41	12.418772	-57.126467	91.41	1.110	-2.000	0.400	91.38	-3.50	0.90	 	 	 	 	 	 	 	 	 	 	 	 	 	 	 	 	 	 	1581517005	9.03	16.72
12/02/2020 14:16:46	120220	12022020	141646	91.06	12.418772	-57.126430	90.95	1.300	-0.890	0.230	90.95	-2.40	0.60	 	 	 	 	 	 	 	 	 	 	 	 	 	 	 	 	 	 	1581517006	7.93	14.69
12/02/2020 14:16:47	120220	12022020	141647	90.57	12.418775	-57.126393	90.51	1.080	0.290	-0.030	90.50	-1.30	0.40	 	 	 	 	 	 	 	 	 	 	 	 	 	 	 	 	 	 	1581517007	7.62	14.11
12/02/2020 14:16:48	120220	12022020	141648	90.46	12.418782	-57.126357	90.55	0.470	1.120	-0.480	90.51	-0.40	-0.00	 	 	 	 	 	 	 	 	 	 	 	 	 	 	 	 	 	 	1581517008	7.86	14.56
12/02/2020 14:16:49	120220	12022020	141649	90.86	12.418787	-57.126318	91.00	-0.360	1.200	-0.690	90.96	-0.20	-0.30	 	 	 	 	 	 	 	 	 	 	 	 	 	 	 	 	 	 	1581517009	8.07	14.95
12/02/2020 14:16:50	120220	12022020	141650	91.17	12.418787	-57.126278	91.18	-0.970	0.480	-0.310	91.16	-0.80	-0.00	 	 	 	 	 	 	 	 	 	 	 	 	 	 	 	 	 	 	1581517010	8.55	15.83
12/02/2020 14:16:51	120220	12022020	141651	90.89	12.418780	-57.126235	90.82	-1.070	-0.610	0.910	90.80	-1.80	1.10	 	 	 	 	 	 	 	 	 	 	 	 	 	 	 	 	 	 	1581517011	9.22	17.08
12/02/2020 14:16:52	120220	12022020	141652	90.42	12.418768	-57.126192	90.41	-0.620	-1.420	2.320	90.34	-2.70	2.50	 	 	 	 	 	 	 	 	 	 	 	 	 	 	 	 	 	 	1581517012	9.70	17.96
12/02/2020 14:16:53	120220	12022020	141653	90.15	12.418758	-57.126148	90.22	0.050	-1.420	3.070	90.13	-2.80	3.40	 	 	 	 	 	 	 	 	 	 	 	 	 	 	 	 	 	 	1581517013	9.24	17.11
12/02/2020 14:16:54	120220	12022020	141654	90.07	12.418755	-57.126110	90.14	0.570	-0.930	3.010	90.06	-2.40	3.50	 	 	 	 	 	 	 	 	 	 	 	 	 	 	 	 	 	 	1581517014	8.40	15.56
12/02/2020 14:16:55	120220	12022020	141655	90.07	12.418755	-57.126070	90.16	0.700	-0.360	2.520	90.08	-1.80	3.00	 	 	 	 	 	 	 	 	 	 	 	 	 	 	 	 	 	 	1581517015	8.31	15.39
12/02/2020 14:16:56	120220	12022020	141656	90.12	12.418758	-57.126030	90.17	0.380	0.340	1.990	90.11	-1.20	2.50	 	 	 	 	 	 	 	 	 	 	 	 	 	 	 	 	 	 	1581517016	8.28	15.33
12/02/2020 14:16:57	120220	12022020	141657	90.01	12.418760	-57.125993	89.99	-0.130	0.960	1.320	89.96	-0.50	1.80	 	 	 	 	 	 	 	 	 	 	 	 	 	 	 	 	 	 	1581517017	7.95	14.72
12/02/2020 14:16:58	120220	12022020	141658	89.71	12.418765	-57.125955	89.69	-0.340	0.720	0.660	89.67	-0.60	1.20	 	 	 	 	 	 	 	 	 	 	 	 	 	 	 	 	 	 	1581517018	8.11	15.02
12/02/2020 14:16:59	120220	12022020	141659	89.62	12.418770	-57.125912	89.67	-0.120	-0.320	0.100	89.63	-1.50	0.60	 	 	 	 	 	 	 	 	 	 	 	 	 	 	 	 	 	 	1581517019	9.10	16.85
12/02/2020 14:17:00	120220	12022020	141700	89.76	12.418773	-57.125867	89.83	0.180	-1.180	-0.180	89.80	-2.50	0.30	 	 	 	 	 	 	 	 	 	 	 	 	 	 	 	 	 	 	1581517020	9.61	17.80
12/02/2020 14:17:01	120220	12022020	141701	89.90	12.418773	-57.125823	89.92	0.290	-1.350	0.030	89.90	-2.50	0.80	 	 	 	 	 	 	 	 	 	 	 	 	 	 	 	 	 	 	1581517021	9.19	17.02
12/02/2020 14:17:02	120220	12022020	141702	89.76	12.418770	-57.125783	89.73	0.110	-0.750	0.870	89.70	-2.30	1.10	1017.30	26.60	26.60	20.80	20.80	565.0	70.0	70.0	437.0	28.2	350.00	14.90	76.00	10.60	46047	4767.0	27.4	27.4	1581517022	8.67	16.06
12/02/2020 14:17:03	120220	12022020	141703	89.49	12.418765	-57.125745	89.51	-0.240	0.290	1.820	89.45	-1.20	2.10	 	 	 	 	 	 	 	 	 	 	 	 	 	 	 	 	 	 	1581517023	7.98	14.78
12/02/2020 14:17:04	120220	12022020	141704	89.37	12.418760	-57.125710	89.45	-0.340	0.650	2.300	89.38	-0.70	2.70	 	 	 	 	 	 	 	 	 	 	 	 	 	 	 	 	 	 	1581517024	7.70	14.26
12/02/2020 14:17:05	120220	12022020	141705	89.45	12.418760	-57.125668	89.55	0.070	-0.200	2.240	89.47	-1.40	2.70	 	 	 	 	 	 	 	 	 	 	 	 	 	 	 	 	 	 	1581517025	8.78	16.26
12/02/2020 14:17:06	120220	12022020	141706	89.55	12.418760	-57.125620	89.65	0.460	-0.930	2.000	89.57	-2.30	2.50	 	 	 	 	 	 	 	 	 	 	 	 	 	 	 	 	 	 	1581517026	9.95	18.43
12/02/2020 14:17:07	120220	12022020	141707	89.77	12.418762	-57.125577	89.91	0.150	-0.240	1.600	89.84	-1.80	2.10	 	 	 	 	 	 	 	 	 	 	 	 	 	 	 	 	 	 	1581517027	9.15	16.95
12/02/2020 14:17:08	120220	12022020	141708	90.14	12.418765	-57.125543	90.29	-0.670	1.100	1.160	90.23	-0.40	1.60	 	 	 	 	 	 	 	 	 	 	 	 	 	 	 	 	 	 	1581517028	7.28	13.48
12/02/2020 14:17:09	120220	12022020	141709	90.49	12.418765	-57.125510	90.59	-1.060	1.110	0.720	90.54	-0.10	1.20	 	 	 	 	 	 	 	 	 	 	 	 	 	 	 	 	 	 	1581517029	6.85	12.69
12/02/2020 14:17:10	120220	12022020	141710	90.62	12.418767	-57.125468	90.63	-0.120	-1.110	0.290	90.59	-2.10	0.80	 	 	 	 	 	 	 	 	 	 	 	 	 	 	 	 	 	 	1581517030	8.85	16.39
12/02/2020 14:17:11	120220	12022020	141711	90.30	12.418767	-57.125415	90.22	1.390	-3.110	0.290	90.19	-4.30	0.70	 	 	 	 	 	 	 	 	 	 	 	 	 	 	 	 	 	 	1581517031	11.23	20.80
12/02/2020 14:17:12	120220	12022020	141712	89.86	12.418768	-57.125368	89.84	1.700	-2.050	0.400	89.81	-3.70	0.80	 	 	 	 	 	 	 	 	 	 	 	 	 	 	 	 	 	 	1581517032	10.16	18.82
12/02/2020 14:17:13	120220	12022020	141713	89.75	12.418770	-57.125337	89.84	0.360	1.130	0.500	89.78	1.20	0.90	 	 	 	 	 	 	 	 	 	 	 	 	 	 	 	 	 	 	1581517033	6.73	12.46
12/02/2020 14:17:14	120220	12022020	141714	90.05	12.418772	-57.125313	90.21	-1.480	3.350	0.480	90.14	1.80	0.90	 	 	 	 	 	 	 	 	 	 	 	 	 	 	 	 	 	 	1581517034	4.94	9.15
12/02/2020 14:17:15	120220	12022020	141715	90.47	12.418772	-57.125282	90.60	-2.100	2.300	0.500	90.53	1.30	0.90	 	 	 	 	 	 	 	 	 	 	 	 	 	 	 	 	 	 	1581517035	6.53	12.09
12/02/2020 14:17:16	120220	12022020	141716	90.66	12.418768	-57.125235	90.73	-1.050	-0.990	0.810	90.67	-1.90	1.20	 	 	 	 	 	 	 	 	 	 	 	 	 	 	 	 	 	 	1581517036	10.01	18.54
12/02/2020 14:17:17	120220	12022020	141717	90.54	12.418762	-57.125180	90.57	0.460	-3.110	1.420	90.49	-4.30	1.80	 	 	 	 	 	 	 	 	 	 	 	 	 	 	 	 	 	 	1581517037	11.42	21.15
12/02/2020 14:17:18	120220	12022020	141718	90.31	12.418757	-57.125137	90.34	1.190	-2.500	1.730	90.26	-4.10	2.10	 	 	 	 	 	 	 	 	 	 	 	 	 	 	 	 	 	 	1581517038	9.45	17.50
12/02/2020 14:17:19	120220	12022020	141719	90.10	12.418755	-57.125105	90.11	0.920	-0.340	1.500	90.06	-2.00	2.00	 	 	 	 	 	 	 	 	 	 	 	 	 	 	 	 	 	 	1581517039	6.82	12.63
12/02/2020 14:17:20	120220	12022020	141720	89.97	12.418758	-57.125075	90.03	0.240	1.320	0.960	89.98	-0.20	1.50	 	 	 	 	 	 	 	 	 	 	 	 	 	 	 	 	 	 	1581517040	6.10	11.30
12/02/2020 14:17:21	120220	12022020	141721	90.09	12.418763	-57.125042	90.18	-0.350	1.540	0.280	90.13	0.20	0.80	 	 	 	 	 	 	 	 	 	 	 	 	 	 	 	 	 	 	1581517041	7.13	13.20
12/02/2020 14:17:22	120220	12022020	141722	90.29	12.418768	-57.125003	90.35	-0.620	0.700	-0.220	90.31	-0.50	0.20	 	 	 	 	 	 	 	 	 	 	 	 	 	 	 	 	 	 	1581517042	8.36	15.48
12/02/2020 14:17:23	120220	12022020	141723	90.25	12.418770	-57.124962	90.21	-0.460	-0.420	-0.130	90.20	-1.60	0.20	 	 	 	 	 	 	 	 	 	 	 	 	 	 	 	 	 	 	1581517043	8.90	16.48
12/02/2020 14:17:24	120220	12022020	141724	89.81	12.418768	-57.124918	89.72	0.070	-1.340	0.560	89.70	-2.60	0.90	 	 	 	 	 	 	 	 	 	 	 	 	 	 	 	 	 	 	1581517044	8.98	16.63
12/02/2020 14:17:25	120220	12022020	141725	89.32	12.418765	-57.124877	89.33	0.620	-1.760	1.210	89.28	-3.10	1.60	 	 	 	 	 	 	 	 	 	 	 	 	 	 	 	 	 	 	1581517045	8.97	16.61
12/02/2020 14:17:26	120220	12022020	141726	89.35	12.418763	-57.124835	89.51	0.700	-1.300	1.500	89.41	-2.80	1.90	 	 	 	 	 	 	 	 	 	 	 	 	 	 	 	 	 	 	1581517046	8.61	15.95
12/02/2020 14:17:27	120220	12022020	141727	89.74	12.418763	-57.124798	89.91	0.270	-0.190	1.830	89.81	-1.70	2.20	 	 	 	 	 	 	 	 	 	 	 	 	 	 	 	 	 	 	1581517047	7.76	14.37
12/02/2020 14:17:28	120220	12022020	141728	89.97	12.418760	-57.124765	90.07	-0.250	0.800	2.240	89.98	-0.70	2.60	 	 	 	 	 	 	 	 	 	 	 	 	 	 	 	 	 	 	1581517048	7.27	13.46
12/02/2020 14:17:29	120220	12022020	141729	89.94	12.418755	-57.124728	90.02	-0.430	0.930	2.560	89.92	-0.40	2.90	 	 	 	 	 	 	 	 	 	 	 	 	 	 	 	 	 	 	1581517049	7.70	14.26
12/02/2020 14:17:30	120220	12022020	141730	89.97	12.418753	-57.124688	90.11	-0.380	0.520	2.490	90.01	-0.80	3.00	 	 	 	 	 	 	 	 	 	 	 	 	 	 	 	 	 	 	1581517050	8.52	15.78
12/02/2020 14:17:31	120220	12022020	141731	90.21	12.418753	-57.124647	90.34	-0.350	0.080	1.880	90.26	-1.20	2.40	 	 	 	 	 	 	 	 	 	 	 	 	 	 	 	 	 	 	1581517051	8.63	15.98
12/02/2020 14:17:32	120220	12022020	141732	90.34	12.418757	-57.124608	90.39	-0.210	-0.390	1.210	90.33	-1.70	1.70	 	 	 	 	 	 	 	 	 	 	 	 	 	 	 	 	 	 	1581517052	8.40	15.56
12/02/2020 14:17:33	120220	12022020	141733	90.24	12.418760	-57.124567	90.26	0.280	-1.100	0.630	90.21	-2.30	1.20	 	 	 	 	 	 	 	 	 	 	 	 	 	 	 	 	 	 	1581517053	8.58	15.89
12/02/2020 14:17:34	120220	12022020	141734	90.12	12.418765	-57.124525	90.17	0.790	-1.460	0.140	90.12	-2.80	0.70	 	 	 	 	 	 	 	 	 	 	 	 	 	 	 	 	 	 	1581517054	9.11	16.87
12/02/2020 14:17:35	120220	12022020	141735	90.25	12.418770	-57.124485	90.34	0.620	-0.700	-0.240	90.30	-2.20	0.30	 	 	 	 	 	 	 	 	 	 	 	 	 	 	 	 	 	 	1581517055	8.51	15.76
12/02/2020 14:17:36	120220	12022020	141736	90.55	12.418773	-57.124450	90.63	-0.070	0.450	-0.360	90.60	-1.00	0.10	 	 	 	 	 	 	 	 	 	 	 	 	 	 	 	 	 	 	1581517056	7.23	13.39
12/02/2020 14:17:37	120220	12022020	141737	90.64	12.418770	-57.124417	90.64	-0.460	0.520	0.250	90.62	-1.30	1.20	 	 	 	 	 	 	 	 	 	 	 	 	 	 	 	 	 	 	1581517057	7.27	13.46
12/02/2020 14:17:38	120220	12022020	141738	90.48	12.418763	-57.124375	90.50	-0.120	-0.570	1.150	90.45	-1.70	1.50	 	 	 	 	 	 	 	 	 	 	 	 	 	 	 	 	 	 	1581517058	8.98	16.63
12/02/2020 14:17:39	120220	12022020	141739	90.32	12.418758	-57.124328	90.35	0.410	-1.220	1.640	90.29	-2.50	2.00	 	 	 	 	 	 	 	 	 	 	 	 	 	 	 	 	 	 	1581517059	9.92	18.37
12/02/2020 14:17:40	120220	12022020	141740	90.13	12.418755	-57.124285	90.15	0.420	-0.410	1.850	90.09	-2.00	2.30	 	 	 	 	 	 	 	 	 	 	 	 	 	 	 	 	 	 	1581517060	8.90	16.48
12/02/2020 14:17:41	120220	12022020	141741	89.93	12.418755	-57.124252	89.96	-0.170	0.990	1.960	89.90	-0.50	2.40	 	 	 	 	 	 	 	 	 	 	 	 	 	 	 	 	 	 	1581517061	7.18	13.30
12/02/2020 14:17:42	120220	12022020	141742	89.86	12.418757	-57.124218	89.93	-0.730	1.310	1.720	89.87	0.00	2.20	 	 	 	 	 	 	 	 	 	 	 	 	 	 	 	 	 	 	1581517062	6.90	12.78
12/02/2020 14:17:43	120220	12022020	141743	90.02	12.418760	-57.124180	90.15	-0.600	-0.050	1.170	90.08	-1.10	1.70	 	 	 	 	 	 	 	 	 	 	 	 	 	 	 	 	 	 	1581517063	8.37	15.50
12/02/2020 14:17:44	120220	12022020	141744	90.25	12.418762	-57.124132	90.32	0.070	-1.640	0.740	90.26	-2.80	1.20	 	 	 	 	 	 	 	 	 	 	 	 	 	 	 	 	 	 	1581517064	9.96	18.45
12/02/2020 14:17:45	120220	12022020	141745	90.21	12.418762	-57.124087	90.21	0.530	-1.640	0.600	90.17	-3.10	1.00	 	 	 	 	 	 	 	 	 	 	 	 	 	 	 	 	 	 	1581517065	9.60	17.78
12/02/2020 14:17:46	120220	12022020	141746	89.93	12.418762	-57.124050	89.88	0.360	-0.210	0.940	89.85	-1.80	1.30	 	 	 	 	 	 	 	 	 	 	 	 	 	 	 	 	 	 	1581517066	7.67	14.20
12/02/2020 14:17:47	120220	12022020	141747	89.57	12.418758	-57.124020	89.54	-0.150	0.850	1.340	89.50	-0.60	1.70	 	 	 	 	 	 	 	 	 	 	 	 	 	 	 	 	 	 	1581517067	6.67	12.35
12/02/2020 14:17:48	120220	12022020	141748	89.20	12.418758	-57.123983	89.15	-0.370	0.440	1.500	89.12	-0.80	1.90	 	 	 	 	 	 	 	 	 	 	 	 	 	 	 	 	 	 	1581517068	7.60	14.08
12/02/2020 14:17:49	120220	12022020	141749	88.79	12.418758	-57.123940	88.75	-0.110	-0.660	1.540	88.72	-1.80	2.00	 	 	 	 	 	 	 	 	 	 	 	 	 	 	 	 	 	 	1581517069	9.19	17.02
12/02/2020 14:17:50	120220	12022020	141750	88.52	12.418762	-57.123895	88.57	0.320	-1.220	1.520	88.51	-2.50	2.00	 	 	 	 	 	 	 	 	 	 	 	 	 	 	 	 	 	 	1581517070	9.53	17.65
12/02/2020 14:17:51	120220	12022020	141751	88.62	12.418763	-57.123853	88.75	0.540	-0.950	1.480	88.68	-2.30	1.90	 	 	 	 	 	 	 	 	 	 	 	 	 	 	 	 	 	 	1581517071	8.82	16.33
12/02/2020 14:17:52	120220	12022020	141752	88.93	12.418765	-57.123815	89.07	0.370	-0.280	1.490	89.00	-1.70	1.90	 	 	 	 	 	 	 	 	 	 	 	 	 	 	 	 	 	 	1581517072	8.16	15.11
12/02/2020 14:17:53	120220	12022020	141753	89.25	12.418765	-57.123777	89.38	-0.150	0.430	1.470	89.31	-1.00	1.90	 	 	 	 	 	 	 	 	 	 	 	 	 	 	 	 	 	 	1581517073	7.92	14.67
12/02/2020 14:17:54	120220	12022020	141754	89.55	12.418763	-57.123740	89.68	-0.650	0.960	1.640	89.60	-0.40	2.00	 	 	 	 	 	 	 	 	 	 	 	 	 	 	 	 	 	 	1581517074	7.75	14.35
12/02/2020 14:17:55	120220	12022020	141755	89.73	12.418762	-57.123703	89.81	-0.700	0.760	1.900	89.74	-0.50	2.30	 	 	 	 	 	 	 	 	 	 	 	 	 	 	 	 	 	 	1581517075	7.82	14.48
12/02/2020 14:17:56	120220	12022020	141756	89.75	12.418762	-57.123662	89.80	-0.220	-0.330	1.930	89.74	-1.50	2.40	 	 	 	 	 	 	 	 	 	 	 	 	 	 	 	 	 	 	1581517076	8.75	16.21
12/02/2020 14:17:57	120220	12022020	141757	89.66	12.418763	-57.123617	89.69	0.300	-1.350	1.880	89.63	-2.60	2.30	 	 	 	 	 	 	 	 	 	 	 	 	 	 	 	 	 	 	1581517077	9.50	17.59
12/02/2020 14:17:58	120220	12022020	141758	89.54	12.418765	-57.123573	89.59	0.500	-1.390	1.740	89.54	-2.80	2.20	 	 	 	 	 	 	 	 	 	 	 	 	 	 	 	 	 	 	1581517078	9.12	16.89
12/02/2020 14:17:59	120220	12022020	141759	89.61	12.418768	-57.123537	89.71	0.400	-0.660	1.280	89.65	-2.10	1.80	 	 	 	 	 	 	 	 	 	 	 	 	 	 	 	 	 	 	1581517079	8.09	14.98
12/02/2020 14:18:00	120220	12022020	141800	89.93	12.418772	-57.123500	90.04	0.270	-0.180	0.560	90.00	-1.50	1.10	 	 	 	 	 	 	 	 	 	 	 	 	 	 	 	 	 	 	1581517080	7.80	14.45
12/02/2020 14:18:01	120220	12022020	141801	90.19	12.418777	-57.123460	90.23	0.140	-0.160	0.120	90.21	-1.50	0.60	 	 	 	 	 	 	 	 	 	 	 	 	 	 	 	 	 	 	1581517081	8.51	15.76
12/02/2020 14:18:02	120220	12022020	141802	90.22	12.418778	-57.123418	90.23	-0.140	0.020	0.030	90.21	-1.40	0.50	1017.20	26.50	26.60	20.50	20.60	569.0	69.0	69.0	438.0	28.2	350.00	15.20	76.00	10.90	46172	13329.0	27.4	27.4	1581517082	8.81	16.32
12/02/2020 14:18:03	120220	12022020	141803	90.17	12.418778	-57.123378	90.19	-0.520	0.390	0.220	90.17	-0.90	0.90	 	 	 	 	 	 	 	 	 	 	 	 	 	 	 	 	 	 	1581517083	8.39	15.54
12/02/2020 14:18:04	120220	12022020	141804	90.20	12.418777	-57.123340	90.26	-0.720	0.450	0.630	90.22	-0.90	1.00	 	 	 	 	 	 	 	 	 	 	 	 	 	 	 	 	 	 	1581517084	8.16	15.11
12/02/2020 14:18:05	120220	12022020	141805	90.27	12.418773	-57.123298	90.31	-0.530	-0.040	0.990	90.27	-1.30	1.40	 	 	 	 	 	 	 	 	 	 	 	 	 	 	 	 	 	 	1581517085	8.57	15.87
12/02/2020 14:18:06	120220	12022020	141806	90.20	12.418772	-57.123255	90.20	0.020	-0.800	1.100	90.17	-2.00	1.50	 	 	 	 	 	 	 	 	 	 	 	 	 	 	 	 	 	 	1581517086	9.15	16.95
12/02/2020 14:18:07	120220	12022020	141807	90.10	12.418772	-57.123212	90.13	0.500	-1.030	1.250	90.09	-2.40	1.70	 	 	 	 	 	 	 	 	 	 	 	 	 	 	 	 	 	 	1581517087	9.31	17.24
12/02/2020 14:18:08	120220	12022020	141808	90.16	12.418772	-57.123170	90.24	0.560	-0.630	1.450	90.19	-2.00	1.90	 	 	 	 	 	 	 	 	 	 	 	 	 	 	 	 	 	 	1581517088	8.64	16.00
12/02/2020 14:18:09	120220	12022020	141809	90.30	12.418772	-57.123132	90.35	0.280	-0.120	1.390	90.31	-1.50	1.90	 	 	 	 	 	 	 	 	 	 	 	 	 	 	 	 	 	 	1581517089	8.11	15.02
12/02/2020 14:18:10	120220	12022020	141810	90.26	12.418775	-57.123093	90.24	-0.040	0.170	1.340	90.21	-1.20	1.80	 	 	 	 	 	 	 	 	 	 	 	 	 	 	 	 	 	 	1581517090	8.18	15.15
12/02/2020 14:18:11	120220	12022020	141811	90.01	12.418775	-57.123053	89.99	-0.160	0.020	1.480	89.96	-1.30	1.90	 	 	 	 	 	 	 	 	 	 	 	 	 	 	 	 	 	 	1581517091	8.53	15.80
12/02/2020 14:18:12	120220	12022020	141812	89.90	12.418775	-57.123010	89.97	-0.070	-0.390	1.570	89.91	-1.70	2.00	 	 	 	 	 	 	 	 	 	 	 	 	 	 	 	 	 	 	1581517092	9.05	16.76
12/02/2020 14:18:13	120220	12022020	141813	90.09	12.418775	-57.122967	90.22	-0.020	-0.540	1.450	90.16	-1.90	1.90	 	 	 	 	 	 	 	 	 	 	 	 	 	 	 	 	 	 	1581517093	9.18	17.00
12/02/2020 14:18:14	120220	12022020	141814	90.38	12.418775	-57.122925	90.46	-0.210	-0.240	1.230	90.41	-1.60	1.70	 	 	 	 	 	 	 	 	 	 	 	 	 	 	 	 	 	 	1581517094	8.71	16.13
12/02/2020 14:18:15	120220	12022020	141815	90.43	12.418773	-57.122887	90.42	-0.510	0.100	1.280	90.40	-1.30	1.70	 	 	 	 	 	 	 	 	 	 	 	 	 	 	 	 	 	 	1581517095	8.22	15.22
12/02/2020 14:18:16	120220	12022020	141816	90.15	12.418772	-57.122847	90.10	-0.480	-0.070	1.590	90.08	-1.30	2.00	 	 	 	 	 	 	 	 	 	 	 	 	 	 	 	 	 	 	1581517096	8.40	15.56
12/02/2020 14:18:17	120220	12022020	141817	89.85	12.418770	-57.122805	89.85	0.050	-0.660	1.480	89.82	-1.90	2.00	 	 	 	 	 	 	 	 	 	 	 	 	 	 	 	 	 	 	1581517097	9.11	16.87
12/02/2020 14:18:18	120220	12022020	141818	89.84	12.418773	-57.122760	89.89	0.690	-1.100	0.890	89.86	-2.40	1.40	 	 	 	 	 	 	 	 	 	 	 	 	 	 	 	 	 	 	1581517098	9.55	17.69
12/02/2020 14:18:19	120220	12022020	141819	90.03	12.418780	-57.122715	90.10	0.940	-0.930	0.410	90.08	-2.30	0.90	 	 	 	 	 	 	 	 	 	 	 	 	 	 	 	 	 	 	1581517099	9.46	17.52
12/02/2020 14:18:20	120220	12022020	141820	90.28	12.418783	-57.122673	90.33	0.570	-0.070	0.330	90.31	-1.60	0.80	 	 	 	 	 	 	 	 	 	 	 	 	 	 	 	 	 	 	1581517100	8.74	16.19
12/02/2020 14:18:21	120220	12022020	141821	90.37	12.418783	-57.122637	90.38	-0.230	0.910	0.730	90.36	-0.60	1.10	 	 	 	 	 	 	 	 	 	 	 	 	 	 	 	 	 	 	1581517101	7.97	14.76
12/02/2020 14:18:22	120220	12022020	141822	90.29	12.418782	-57.122598	90.30	-1.020	1.370	1.410	90.27	-0.00	1.70	 	 	 	 	 	 	 	 	 	 	 	 	 	 	 	 	 	 	1581517102	7.85	14.54
12/02/2020 14:18:23	120220	12022020	141823	90.24	12.418777	-57.122560	90.30	-1.310	0.950	1.870	90.24	-0.30	2.20	 	 	 	 	 	 	 	 	 	 	 	 	 	 	 	 	 	 	1581517103	8.22	15.22
12/02/2020 14:18:24	120220	12022020	141824	90.26	12.418773	-57.122517	90.31	-0.740	-0.660	2.190	90.25	-1.70	2.60	 	 	 	 	 	 	 	 	 	 	 	 	 	 	 	 	 	 	1581517104	9.08	16.82
12/02/2020 14:18:25	120220	12022020	141825	90.20	12.418772	-57.122468	90.26	0.410	-2.580	2.340	90.20	-3.70	2.80	 	 	 	 	 	 	 	 	 	 	 	 	 	 	 	 	 	 	1581517105	10.41	19.28
12/02/2020 14:18:26	120220	12022020	141826	90.20	12.418770	-57.122418	90.25	1.250	-2.970	2.350	90.19	-4.40	2.80	 	 	 	 	 	 	 	 	 	 	 	 	 	 	 	 	 	 	1581517106	10.57	19.58
12/02/2020 14:18:27	120220	12022020	141827	90.09	12.418770	-57.122377	90.08	1.210	-1.140	2.330	90.04	-2.80	2.80	 	 	 	 	 	 	 	 	 	 	 	 	 	 	 	 	 	 	1581517107	8.80	16.30
12/02/2020 14:18:28	120220	12022020	141828	89.76	12.418770	-57.122343	89.70	0.450	1.210	1.900	89.68	-0.40	2.40	 	 	 	 	 	 	 	 	 	 	 	 	 	 	 	 	 	 	1581517108	6.92	12.82
12/02/2020 14:18:29	120220	12022020	141829	89.50	12.418777	-57.122310	89.53	-0.410	2.160	0.920	89.51	0.80	1.50	 	 	 	 	 	 	 	 	 	 	 	 	 	 	 	 	 	 	1581517109	7.24	13.41
12/02/2020 14:18:30	120220	12022020	141830	89.82	12.418787	-57.122270	90.00	-1.080	1.690	-0.330	89.96	0.50	0.30	 	 	 	 	 	 	 	 	 	 	 	 	 	 	 	 	 	 	1581517110	8.74	16.19
12/02/2020 14:18:31	120220	12022020	141831	90.60	12.418795	-57.122227	90.77	-1.340	0.520	-1.310	90.75	-0.60	-0.80	 	 	 	 	 	 	 	 	 	 	 	 	 	 	 	 	 	 	1581517111	9.39	17.39
12/02/2020 14:18:32	120220	12022020	141832	91.18	12.418797	-57.122182	91.22	-0.900	-1.070	-1.370	91.23	-2.20	-1.00	 	 	 	 	 	 	 	 	 	 	 	 	 	 	 	 	 	 	1581517112	9.58	17.74
12/02/2020 14:18:33	120220	12022020	141833	91.13	12.418792	-57.122133	91.02	0.150	-2.540	-0.460	91.04	-3.70	-0.20	 	 	 	 	 	 	 	 	 	 	 	 	 	 	 	 	 	 	1581517113	10.10	18.71
12/02/2020 14:18:34	120220	12022020	141834	90.56	12.418783	-57.122087	90.44	1.140	-2.680	0.550	90.44	-4.10	0.90	 	 	 	 	 	 	 	 	 	 	 	 	 	 	 	 	 	 	1581517114	10.15	18.80
12/02/2020 14:18:35	120220	12022020	141835	90.07	12.418780	-57.122045	90.06	1.370	-1.060	1.060	90.03	-2.70	1.40	 	 	 	 	 	 	 	 	 	 	 	 	 	 	 	 	 	 	1581517115	8.67	16.06
12/02/2020 14:18:36	120220	12022020	141836	90.05	12.418782	-57.122012	90.16	0.810	0.840	1.070	90.10	-0.80	1.50	 	 	 	 	 	 	 	 	 	 	 	 	 	 	 	 	 	 	1581517116	7.26	13.45
12/02/2020 14:18:37	120220	12022020	141837	90.47	12.418787	-57.121975	90.64	-0.140	1.640	0.710	90.58	0.20	1.20	 	 	 	 	 	 	 	 	 	 	 	 	 	 	 	 	 	 	1581517117	7.59	14.06
12/02/2020 14:18:38	120220	12022020	141838	91.02	12.418788	-57.121935	91.15	-1.120	1.480	0.670	91.10	0.20	1.10	 	 	 	 	 	 	 	 	 	 	 	 	 	 	 	 	 	 	1581517118	8.51	15.76
12/02/2020 14:18:39	120220	12022020	141839	91.32	12.418785	-57.121893	91.39	-1.610	0.790	1.250	91.35	-0.40	1.60	 	 	 	 	 	 	 	 	 	 	 	 	 	 	 	 	 	 	1581517119	8.90	16.48
12/02/2020 14:18:40	120220	12022020	141840	91.32	12.418777	-57.121850	91.34	-1.100	-0.410	1.860	91.29	-1.50	2.20	 	 	 	 	 	 	 	 	 	 	 	 	 	 	 	 	 	 	1581517120	9.16	16.96
12/02/2020 14:18:41	120220	12022020	141841	91.14	12.418772	-57.121805	91.16	0.270	-2.010	2.130	91.10	-3.10	2.50	 	 	 	 	 	 	 	 	 	 	 	 	 	 	 	 	 	 	1581517121	9.82	18.19
12/02/2020 14:18:42	120220	12022020	141842	90.97	12.418770	-57.121757	91.02	1.390	-2.520	2.080	90.95	-3.90	2.50	 	 	 	 	 	 	 	 	 	 	 	 	 	 	 	 	 	 	1581517122	10.28	19.04
12/02/2020 14:18:43	120220	12022020	141843	90.97	12.418772	-57.121715	91.05	1.290	-1.100	1.710	90.99	-2.80	2.20	 	 	 	 	 	 	 	 	 	 	 	 	 	 	 	 	 	 	1581517123	8.83	16.35
12/02/2020 14:18:44	120220	12022020	141844	91.09	12.418777	-57.121682	91.18	0.210	0.810	1.200	91.12	-0.80	1.70	 	 	 	 	 	 	 	 	 	 	 	 	 	 	 	 	 	 	1581517124	7.06	13.08
12/02/2020 14:18:45	120220	12022020	141845	91.22	12.418780	-57.121648	91.28	-0.620	1.290	0.890	91.24	-0.00	1.40	 	 	 	 	 	 	 	 	 	 	 	 	 	 	 	 	 	 	1581517125	7.12	13.19
12/02/2020 14:18:46	120220	12022020	141846	91.20	12.418778	-57.121605	91.20	-0.460	0.250	0.760	91.18	-0.90	1.20	 	 	 	 	 	 	 	 	 	 	 	 	 	 	 	 	 	 	1581517126	9.00	16.67
12/02/2020 14:18:47	120220	12022020	141847	90.96	12.418777	-57.121557	90.93	0.150	-0.660	0.780	90.90	-1.90	1.20	 	 	 	 	 	 	 	 	 	 	 	 	 	 	 	 	 	 	1581517127	10.18	18.85
12/02/2020 14:18:48	120220	12022020	141848	90.74	12.418775	-57.121512	90.76	0.390	-0.500	0.770	90.73	-2.00	1.20	 	 	 	 	 	 	 	 	 	 	 	 	 	 	 	 	 	 	1581517128	9.47	17.54
12/02/2020 14:18:49	120220	12022020	141849	90.86	12.418775	-57.121473	90.97	0.010	0.350	0.540	90.92	-1.20	1.00	 	 	 	 	 	 	 	 	 	 	 	 	 	 	 	 	 	 	1581517129	8.13	15.06
12/02/2020 14:18:50	120220	12022020	141850	91.18	12.418777	-57.121438	91.26	-0.580	0.710	0.450	91.23	-0.60	0.90	 	 	 	 	 	 	 	 	 	 	 	 	 	 	 	 	 	 	1581517130	7.52	13.93
12/02/2020 14:18:51	120220	12022020	141851	91.24	12.418775	-57.121398	91.22	-0.630	-0.150	0.760	91.20	-1.30	1.10	 	 	 	 	 	 	 	 	 	 	 	 	 	 	 	 	 	 	1581517131	8.28	15.33
12/02/2020 14:18:52	120220	12022020	141852	90.90	12.418772	-57.121353	90.82	0.090	-1.540	1.460	90.79	-2.70	1.80	 	 	 	 	 	 	 	 	 	 	 	 	 	 	 	 	 	 	1581517132	9.71	17.98
12/02/2020 14:18:53	120220	12022020	141853	90.46	12.418768	-57.121305	90.45	0.940	-1.980	2.080	90.41	-3.40	2.40	 	 	 	 	 	 	 	 	 	 	 	 	 	 	 	 	 	 	1581517133	10.14	18.78
12/02/2020 14:18:54	120220	12022020	141854	90.34	12.418765	-57.121263	90.42	1.040	-0.890	2.240	90.36	-2.50	2.70	 	 	 	 	 	 	 	 	 	 	 	 	 	 	 	 	 	 	1581517134	8.89	16.46
12/02/2020 14:18:55	120220	12022020	141855	90.48	12.418767	-57.121228	90.56	0.360	0.580	2.020	90.51	-1.00	2.50	 	 	 	 	 	 	 	 	 	 	 	 	 	 	 	 	 	 	1581517135	7.49	13.87
12/02/2020 14:18:56	120220	12022020	141856	90.54	12.418767	-57.121193	90.58	-0.360	1.170	1.760	90.54	-0.20	2.20	 	 	 	 	 	 	 	 	 	 	 	 	 	 	 	 	 	 	1581517136	7.48	13.85
12/02/2020 14:18:57	120220	12022020	141857	90.61	12.418768	-57.121152	90.69	-0.650	0.700	1.520	90.64	-0.60	2.00	 	 	 	 	 	 	 	 	 	 	 	 	 	 	 	 	 	 	1581517137	8.59	15.91
12/02/2020 14:18:58	120220	12022020	141858	90.75	12.418768	-57.121108	90.80	-0.580	-0.160	1.340	90.76	-1.40	1.80	 	 	 	 	 	 	 	 	 	 	 	 	 	 	 	 	 	 	1581517138	9.40	17.41
12/02/2020 14:18:59	120220	12022020	141859	90.69	12.418767	-57.121063	90.67	-0.360	-0.780	1.300	90.65	-2.10	1.70	 	 	 	 	 	 	 	 	 	 	 	 	 	 	 	 	 	 	1581517139	9.46	17.52
12/02/2020 14:19:00	120220	12022020	141900	90.45	12.418765	-57.121020	90.45	-0.120	-0.930	1.330	90.42	-2.30	1.80	 	 	 	 	 	 	 	 	 	 	 	 	 	 	 	 	 	 	1581517140	9.11	16.87
12/02/2020 14:19:01	120220	12022020	141901	90.41	12.418765	-57.120978	90.47	0.110	-0.700	1.040	90.44	-2.10	1.50	 	 	 	 	 	 	 	 	 	 	 	 	 	 	 	 	 	 	1581517141	8.67	16.06
12/02/2020 14:19:02	120220	12022020	141902	90.62	12.418767	-57.120938	90.67	0.430	-0.410	0.520	90.65	-1.80	1.00	1017.30	26.50	26.60	20.40	20.50	620.0	69.0	69.0	437.0	28.2	347.00	15.30	71.00	10.90	49097	12625.0	27.4	27.4	1581517142	8.46	15.67
12/02/2020 14:19:03	120220	12022020	141903	90.64	12.418768	-57.120898	90.58	0.900	-0.400	0.450	90.59	-1.80	0.90	 	 	 	 	 	 	 	 	 	 	 	 	 	 	 	 	 	 	1581517143	8.69	16.09
12/02/2020 14:19:04	120220	12022020	141904	90.32	12.418770	-57.120855	90.28	1.160	-0.490	0.760	90.28	-1.90	1.20	 	 	 	 	 	 	 	 	 	 	 	 	 	 	 	 	 	 	1581517144	9.20	17.04
12/02/2020 14:19:05	120220	12022020	141905	90.25	12.418770	-57.120812	90.32	0.730	-0.120	1.100	90.29	-1.60	1.50	 	 	 	 	 	 	 	 	 	 	 	 	 	 	 	 	 	 	1581517145	9.19	17.02
12/02/2020 14:19:06	120220	12022020	141906	90.53	12.418770	-57.120772	90.66	-0.280	0.570	1.420	90.61	-0.90	1.80	 	 	 	 	 	 	 	 	 	 	 	 	 	 	 	 	 	 	1581517146	8.39	15.54
12/02/2020 14:19:07	120220	12022020	141907	90.87	12.418767	-57.120733	90.99	-1.150	0.920	1.670	90.93	-0.50	2.10	 	 	 	 	 	 	 	 	 	 	 	 	 	 	 	 	 	 	1581517147	7.95	14.72
12/02/2020 14:19:08	120220	12022020	141908	91.10	12.418765	-57.120693	91.19	-1.290	0.500	1.950	91.13	-0.80	2.30	 	 	 	 	 	 	 	 	 	 	 	 	 	 	 	 	 	 	1581517148	8.36	15.48
12/02/2020 14:19:09	120220	12022020	141909	91.19	12.418760	-57.120650	91.26	-0.710	-0.660	2.360	91.19	-1.80	2.70	 	 	 	 	 	 	 	 	 	 	 	 	 	 	 	 	 	 	1581517149	9.22	17.08
12/02/2020 14:19:10	120220	12022020	141910	91.10	12.418753	-57.120603	91.10	0.160	-1.890	2.630	91.04	-3.10	3.00	 	 	 	 	 	 	 	 	 	 	 	 	 	 	 	 	 	 	1581517150	10.01	18.54
12/02/2020 14:19:11	120220	12022020	141911	90.73	12.418750	-57.120557	90.68	0.770	-2.150	2.490	90.63	-3.60	3.00	 	 	 	 	 	 	 	 	 	 	 	 	 	 	 	 	 	 	1581517151	10.06	18.63
12/02/2020 14:19:12	120220	12022020	141912	90.29	12.418752	-57.120513	90.25	0.790	-0.920	1.930	90.21	-2.60	2.50	 	 	 	 	 	 	 	 	 	 	 	 	 	 	 	 	 	 	1581517152	9.02	16.71
12/02/2020 14:19:13	120220	12022020	141913	90.03	12.418757	-57.120477	90.03	0.340	0.790	1.060	90.01	-0.80	1.60	 	 	 	 	 	 	 	 	 	 	 	 	 	 	 	 	 	 	1581517153	7.75	14.35
12/02/2020 14:19:14	120220	12022020	141914	90.02	12.418763	-57.120442	90.04	-0.120	1.450	-0.100	90.04	0.10	0.50	 	 	 	 	 	 	 	 	 	 	 	 	 	 	 	 	 	 	1581517154	7.75	14.35
12/02/2020 14:19:15	120220	12022020	141915	90.17	12.418770	-57.120400	90.20	-0.280	0.800	-1.020	90.20	-0.40	-0.50	 	 	 	 	 	 	 	 	 	 	 	 	 	 	 	 	 	 	1581517155	8.99	16.65
12/02/2020 14:19:16	120220	12022020	141916	90.40	12.418773	-57.120353	90.43	-0.150	-0.200	-1.370	90.45	-1.40	-0.90	 	 	 	 	 	 	 	 	 	 	 	 	 	 	 	 	 	 	1581517156	9.87	18.28
12/02/2020 14:19:17	120220	12022020	141917	90.53	12.418773	-57.120307	90.50	0.030	-0.710	-1.090	90.53	-2.00	-0.80	 	 	 	 	 	 	 	 	 	 	 	 	 	 	 	 	 	 	1581517157	9.71	17.98
12/02/2020 14:19:18	120220	12022020	141918	90.35	12.418770	-57.120265	90.25	0.070	-0.720	0.070	90.27	-2.10	0.30	 	 	 	 	 	 	 	 	 	 	 	 	 	 	 	 	 	 	1581517158	9.03	16.72
12/02/2020 14:19:19	120220	12022020	141919	89.84	12.418763	-57.120223	89.72	0.050	-0.730	1.790	89.70	-2.10	1.90	 	 	 	 	 	 	 	 	 	 	 	 	 	 	 	 	 	 	1581517159	8.78	16.26
12/02/2020 14:19:20	120220	12022020	141920	89.20	12.418755	-57.120182	89.15	0.100	-0.900	3.230	89.11	-2.20	3.50	 	 	 	 	 	 	 	 	 	 	 	 	 	 	 	 	 	 	1581517160	9.17	16.98
12/02/2020 14:19:21	120220	12022020	141921	88.93	12.418750	-57.120137	89.04	0.060	-0.670	3.900	88.95	-2.10	4.20	 	 	 	 	 	 	 	 	 	 	 	 	 	 	 	 	 	 	1581517161	9.40	17.41
12/02/2020 14:19:22	120220	12022020	141922	89.19	12.418747	-57.120095	89.37	-0.220	0.120	4.040	89.27	-1.40	4.50	 	 	 	 	 	 	 	 	 	 	 	 	 	 	 	 	 	 	1581517162	8.77	16.24
12/02/2020 14:19:23	120220	12022020	141923	89.57	12.418745	-57.120057	89.70	-0.510	0.550	3.640	89.62	-0.80	4.10	 	 	 	 	 	 	 	 	 	 	 	 	 	 	 	 	 	 	1581517163	8.19	15.17
12/02/2020 14:19:24	120220	12022020	141924	89.73	12.418745	-57.120015	89.80	-0.360	0.000	2.850	89.74	-1.20	3.40	 	 	 	 	 	 	 	 	 	 	 	 	 	 	 	 	 	 	1581517164	8.82	16.33
12/02/2020 14:19:25	120220	12022020	141925	89.80	12.418750	-57.119968	89.85	0.240	-0.860	1.920	89.80	-2.10	2.50	 	 	 	 	 	 	 	 	 	 	 	 	 	 	 	 	 	 	1581517165	9.89	18.32
12/02/2020 14:19:26	120220	12022020	141926	89.77	12.418755	-57.119922	89.74	0.740	-1.090	1.110	89.73	-2.50	1.60	 	 	 	 	 	 	 	 	 	 	 	 	 	 	 	 	 	 	1581517166	10.04	18.59
12/02/2020 14:19:27	120220	12022020	141927	89.44	12.418760	-57.119878	89.34	0.640	-0.420	0.550	89.35	-1.90	1.10	 	 	 	 	 	 	 	 	 	 	 	 	 	 	 	 	 	 	1581517167	9.25	17.13
12/02/2020 14:19:28	120220	12022020	141928	89.06	12.418765	-57.119838	89.02	-0.070	0.560	0.120	89.02	-0.90	0.60	 	 	 	 	 	 	 	 	 	 	 	 	 	 	 	 	 	 	1581517168	8.38	15.52
12/02/2020 14:19:29	120220	12022020	141929	89.14	12.418768	-57.119800	89.26	-0.760	0.970	-0.420	89.23	-0.40	0.10	 	 	 	 	 	 	 	 	 	 	 	 	 	 	 	 	 	 	1581517169	8.11	15.02
12/02/2020 14:19:30	120220	12022020	141930	89.68	12.418773	-57.119758	89.83	-0.730	0.160	-0.910	89.80	-1.00	-0.40	 	 	 	 	 	 	 	 	 	 	 	 	 	 	 	 	 	 	1581517170	8.81	16.32
12/02/2020 14:19:31	120220	12022020	141931	90.17	12.418777	-57.119710	90.25	0.110	-1.430	-0.740	90.23	-3.20	0.10	 	 	 	 	 	 	 	 	 	 	 	 	 	 	 	 	 	 	1581517171	10.20	18.89
12/02/2020 14:19:32	120220	12022020	141932	90.37	12.418773	-57.119660	90.39	0.760	-1.750	0.330	90.36	-3.20	0.50	 	 	 	 	 	 	 	 	 	 	 	 	 	 	 	 	 	 	1581517172	10.75	19.91
12/02/2020 14:19:33	120220	12022020	141933	90.24	12.418765	-57.119618	90.23	0.370	-0.150	1.800	90.19	-1.80	2.00	 	 	 	 	 	 	 	 	 	 	 	 	 	 	 	 	 	 	1581517173	8.94	16.56
12/02/2020 14:19:34	120220	12022020	141934	89.95	12.418757	-57.119587	89.93	-0.680	1.580	2.780	89.88	0.10	3.10	 	 	 	 	 	 	 	 	 	 	 	 	 	 	 	 	 	 	1581517174	7.04	13.04
12/02/2020 14:19:35	120220	12022020	141935	89.58	12.418753	-57.119552	89.56	-1.090	1.090	2.970	89.51	0.00	3.40	 	 	 	 	 	 	 	 	 	 	 	 	 	 	 	 	 	 	1581517175	7.37	13.65
12/02/2020 14:19:36	120220	12022020	141936	89.29	12.418755	-57.119503	89.31	-0.120	-1.470	2.550	89.25	-2.40	3.10	 	 	 	 	 	 	 	 	 	 	 	 	 	 	 	 	 	 	1581517176	10.20	18.89
12/02/2020 14:19:37	120220	12022020	141937	89.30	12.418760	-57.119447	89.43	1.000	-2.660	1.700	89.37	-4.00	2.30	 	 	 	 	 	 	 	 	 	 	 	 	 	 	 	 	 	 	1581517177	11.84	21.93
12/02/2020 14:19:38	120220	12022020	141938	89.73	12.418765	-57.119403	89.86	0.850	-0.830	0.800	89.82	-2.60	1.40	 	 	 	 	 	 	 	 	 	 	 	 	 	 	 	 	 	 	1581517178	9.35	17.32
12/02/2020 14:19:39	120220	12022020	141939	90.11	12.418770	-57.119375	90.14	-0.510	1.980	0.240	90.14	0.20	0.70	 	 	 	 	 	 	 	 	 	 	 	 	 	 	 	 	 	 	1581517179	6.22	11.52
12/02/2020 14:19:40	120220	12022020	141940	90.09	12.418772	-57.119348	90.03	-1.640	2.770	0.140	90.04	1.50	0.60	 	 	 	 	 	 	 	 	 	 	 	 	 	 	 	 	 	 	1581517180	5.68	10.52
12/02/2020 14:19:41	120220	12022020	141941	89.78	12.418770	-57.119308	89.70	-1.180	0.360	0.230	89.70	-0.50	0.60	 	 	 	 	 	 	 	 	 	 	 	 	 	 	 	 	 	 	1581517181	8.38	15.52
12/02/2020 14:19:42	120220	12022020	141942	89.51	12.418770	-57.119253	89.48	0.460	-2.880	0.230	89.47	-3.90	0.70	 	 	 	 	 	 	 	 	 	 	 	 	 	 	 	 	 	 	1581517182	11.48	21.26
12/02/2020 14:19:43	120220	12022020	141943	89.39	12.418772	-57.119200	89.40	1.550	-3.320	0.260	89.39	-3.60	0.80	 	 	 	 	 	 	 	 	 	 	 	 	 	 	 	 	 	 	1581517183	11.43	21.17
12/02/2020 14:19:44	120220	12022020	141944	89.39	12.418773	-57.119163	89.41	1.090	-0.630	0.510	89.40	-2.50	0.90	 	 	 	 	 	 	 	 	 	 	 	 	 	 	 	 	 	 	1581517184	7.84	14.52
12/02/2020 14:19:45	120220	12022020	141945	89.51	12.418773	-57.119138	89.58	-0.320	2.380	0.990	89.54	1.60	1.60	 	 	 	 	 	 	 	 	 	 	 	 	 	 	 	 	 	 	1581517185	5.08	9.41
12/02/2020 14:19:46	120220	12022020	141946	89.73	12.418772	-57.119112	89.79	-1.240	2.770	1.350	89.76	1.60	1.70	 	 	 	 	 	 	 	 	 	 	 	 	 	 	 	 	 	 	1581517186	5.61	10.39
12/02/2020 14:19:47	120220	12022020	141947	89.82	12.418770	-57.119072	89.85	-0.830	0.400	1.460	89.82	-0.50	1.90	 	 	 	 	 	 	 	 	 	 	 	 	 	 	 	 	 	 	1581517187	8.69	16.09
12/02/2020 14:19:48	120220	12022020	141948	89.81	12.418768	-57.119020	89.85	0.170	-1.970	1.530	89.81	-3.10	1.90	 	 	 	 	 	 	 	 	 	 	 	 	 	 	 	 	 	 	1581517188	10.88	20.15
12/02/2020 14:19:49	120220	12022020	141949	89.85	12.418768	-57.118973	89.92	0.620	-2.220	1.770	89.87	-3.70	2.10	 	 	 	 	 	 	 	 	 	 	 	 	 	 	 	 	 	 	1581517189	9.85	18.24
12/02/2020 14:19:50	120220	12022020	141950	89.98	12.418767	-57.118938	90.06	0.240	-0.680	1.910	90.02	-2.30	2.30	 	 	 	 	 	 	 	 	 	 	 	 	 	 	 	 	 	 	1581517190	7.44	13.78
12/02/2020 14:19:51	120220	12022020	141951	90.08	12.418765	-57.118908	90.09	-0.320	0.680	1.800	90.07	-0.80	2.20	 	 	 	 	 	 	 	 	 	 	 	 	 	 	 	 	 	 	1581517191	6.13	11.35
12/02/2020 14:19:52	120220	12022020	141952	89.85	12.418765	-57.118875	89.79	-0.250	0.360	1.780	89.78	-0.90	2.20	 	 	 	 	 	 	 	 	 	 	 	 	 	 	 	 	 	 	1581517192	7.23	13.39
12/02/2020 14:19:53	120220	12022020	141953	89.65	12.418763	-57.118832	89.71	0.240	-0.580	1.430	89.68	-1.90	1.90	 	 	 	 	 	 	 	 	 	 	 	 	 	 	 	 	 	 	1581517193	9.19	17.02
12/02/2020 14:19:54	120220	12022020	141954	89.87	12.418767	-57.118788	89.93	0.450	-0.320	0.650	89.92	-1.80	1.20	 	 	 	 	 	 	 	 	 	 	 	 	 	 	 	 	 	 	1581517194	9.09	16.83
12/02/2020 14:19:55	120220	12022020	141955	89.98	12.418773	-57.118753	89.91	0.130	0.500	0.000	89.95	-0.90	0.50	 	 	 	 	 	 	 	 	 	 	 	 	 	 	 	 	 	 	1581517195	7.44	13.78
12/02/2020 14:19:56	120220	12022020	141956	89.65	12.418777	-57.118720	89.54	-0.140	0.130	-0.170	89.57	-1.10	0.30	 	 	 	 	 	 	 	 	 	 	 	 	 	 	 	 	 	 	1581517196	7.33	13.58
12/02/2020 14:19:57	120220	12022020	141957	89.46	12.418778	-57.118677	89.50	0.060	-1.140	-0.120	89.49	-2.30	0.30	 	 	 	 	 	 	 	 	 	 	 	 	 	 	 	 	 	 	1581517197	8.96	16.59
12/02/2020 14:19:58	120220	12022020	141958	89.87	12.418778	-57.118632	90.02	0.340	-1.260	0.140	89.98	-2.70	0.50	 	 	 	 	 	 	 	 	 	 	 	 	 	 	 	 	 	 	1581517198	9.50	17.59
12/02/2020 14:19:59	120220	12022020	141959	90.35	12.418773	-57.118595	90.38	0.160	0.110	0.660	90.37	-1.50	1.00	 	 	 	 	 	 	 	 	 	 	 	 	 	 	 	 	 	 	1581517199	7.83	14.50
12/02/2020 14:20:00	120220	12022020	142000	90.13	12.418767	-57.118565	89.97	-0.290	1.210	1.540	89.98	-0.20	1.80	 	 	 	 	 	 	 	 	 	 	 	 	 	 	 	 	 	 	1581517200	6.54	12.11
12/02/2020 14:20:01	120220	12022020	142001	89.21	12.418762	-57.118532	89.02	-0.280	0.620	2.600	89.01	-0.50	2.90	 	 	 	 	 	 	 	 	 	 	 	 	 	 	 	 	 	 	1581517201	7.31	13.54
12/02/2020 14:20:02	120220	12022020	142002	88.50	12.418760	-57.118487	88.52	0.440	-1.080	2.770	88.46	-2.20	3.20	1017.30	26.60	26.60	20.40	20.50	684.0	69.0	69.0	437.0	28.3	345.00	14.60	69.00	10.30	52284	20000.0	27.5	27.4	1581517202	9.21	17.06
12/02/2020 14:20:03	120220	12022020	142003	88.64	12.418765	-57.118440	88.80	1.010	-1.790	2.070	88.73	-3.10	2.60	 	 	 	 	 	 	 	 	 	 	 	 	 	 	 	 	 	 	1581517203	9.95	18.43
12/02/2020 14:20:04	120220	12022020	142004	89.13	12.418772	-57.118402	89.27	0.670	-0.740	1.420	89.22	-2.30	1.90	 	 	 	 	 	 	 	 	 	 	 	 	 	 	 	 	 	 	1581517204	8.41	15.58
12/02/2020 14:20:05	120220	12022020	142005	89.43	12.418775	-57.118370	89.50	-0.380	0.750	1.400	89.46	-0.80	1.80	 	 	 	 	 	 	 	 	 	 	 	 	 	 	 	 	 	 	1581517205	6.60	12.22
12/02/2020 14:20:06	120220	12022020	142006	89.51	12.418772	-57.118340	89.53	-1.250	1.180	1.860	89.49	-0.20	2.20	 	 	 	 	 	 	 	 	 	 	 	 	 	 	 	 	 	 	1581517206	6.62	12.26
12/02/2020 14:20:07	120220	12022020	142007	89.32	12.418765	-57.118302	89.31	-1.080	0.140	2.330	89.27	-1.00	2.70	 	 	 	 	 	 	 	 	 	 	 	 	 	 	 	 	 	 	1581517207	8.05	14.91
12/02/2020 14:20:08	120220	12022020	142008	89.06	12.418760	-57.118257	89.07	0.030	-1.420	2.380	89.02	-2.60	2.80	 	 	 	 	 	 	 	 	 	 	 	 	 	 	 	 	 	 	1581517208	9.52	17.63
12/02/2020 14:20:09	120220	12022020	142009	88.90	12.418762	-57.118212	88.95	1.000	-1.730	1.960	88.90	-3.10	2.50	 	 	 	 	 	 	 	 	 	 	 	 	 	 	 	 	 	 	1581517209	9.64	17.85
12/02/2020 14:20:10	120220	12022020	142010	88.98	12.418767	-57.118173	89.06	0.950	-0.400	1.120	89.02	-2.00	1.70	 	 	 	 	 	 	 	 	 	 	 	 	 	 	 	 	 	 	1581517210	8.05	14.91
12/02/2020 14:20:11	120220	12022020	142011	89.26	12.418773	-57.118143	89.36	0.060	1.290	0.260	89.34	-0.30	0.80	 	 	 	 	 	 	 	 	 	 	 	 	 	 	 	 	 	 	1581517211	6.53	12.09
12/02/2020 14:20:12	120220	12022020	142012	89.61	12.418780	-57.118115	89.67	-0.700	1.580	-0.130	89.65	0.30	0.30	 	 	 	 	 	 	 	 	 	 	 	 	 	 	 	 	 	 	1581517212	6.39	11.83
12/02/2020 14:20:13	120220	12022020	142013	89.71	12.418782	-57.118075	89.70	-0.430	-0.390	-0.060	89.70	-1.40	0.30	 	 	 	 	 	 	 	 	 	 	 	 	 	 	 	 	 	 	1581517213	8.18	15.15
12/02/2020 14:20:14	120220	12022020	142014	89.57	12.418782	-57.118027	89.54	0.470	-2.510	0.330	89.53	-3.70	0.70	 	 	 	 	 	 	 	 	 	 	 	 	 	 	 	 	 	 	1581517214	10.51	19.46
12/02/2020 14:20:15	120220	12022020	142015	89.39	12.418778	-57.117980	89.41	0.800	-1.990	0.880	89.38	-3.60	1.20	 	 	 	 	 	 	 	 	 	 	 	 	 	 	 	 	 	 	1581517215	9.74	18.04
12/02/2020 14:20:16	120220	12022020	142016	89.45	12.418775	-57.117948	89.53	0.160	0.590	1.100	89.49	-1.20	1.50	 	 	 	 	 	 	 	 	 	 	 	 	 	 	 	 	 	 	1581517216	6.62	12.26
12/02/2020 14:20:17	120220	12022020	142017	89.70	12.418775	-57.117925	89.79	-0.760	2.450	0.880	89.75	1.00	1.40	 	 	 	 	 	 	 	 	 	 	 	 	 	 	 	 	 	 	1581517217	4.90	9.07
12/02/2020 14:20:18	120220	12022020	142018	89.94	12.418777	-57.117895	90.00	-1.020	1.750	0.560	89.97	0.60	1.00	 	 	 	 	 	 	 	 	 	 	 	 	 	 	 	 	 	 	1581517218	6.38	11.82
12/02/2020 14:20:19	120220	12022020	142019	90.07	12.418778	-57.117853	90.11	-0.450	-0.660	0.400	90.09	-1.60	0.80	 	 	 	 	 	 	 	 	 	 	 	 	 	 	 	 	 	 	1581517219	8.97	16.61
12/02/2020 14:20:20	120220	12022020	142020	90.20	12.418778	-57.117805	90.25	0.480	-2.740	0.380	90.23	-3.90	0.80	 	 	 	 	 	 	 	 	 	 	 	 	 	 	 	 	 	 	1581517220	10.15	18.80
12/02/2020 14:20:21	120220	12022020	142021	90.23	12.418778	-57.117760	90.23	1.090	-2.740	0.630	90.21	-4.20	1.00	 	 	 	 	 	 	 	 	 	 	 	 	 	 	 	 	 	 	1581517221	9.43	17.46
12/02/2020 14:20:22	120220	12022020	142022	90.15	12.418777	-57.117727	90.16	0.770	-0.610	0.900	90.15	-2.30	1.30	 	 	 	 	 	 	 	 	 	 	 	 	 	 	 	 	 	 	1581517222	7.25	13.43
12/02/2020 14:20:23	120220	12022020	142023	90.13	12.418775	-57.117700	90.16	-0.250	1.650	1.140	90.13	0.00	1.50	 	 	 	 	 	 	 	 	 	 	 	 	 	 	 	 	 	 	1581517223	5.51	10.20
12/02/2020 14:20:24	120220	12022020	142024	90.10	12.418773	-57.117672	90.12	-0.970	2.100	1.320	90.09	0.80	1.70	 	 	 	 	 	 	 	 	 	 	 	 	 	 	 	 	 	 	1581517224	5.98	11.07
12/02/2020 14:20:25	120220	12022020	142025	90.00	12.418773	-57.117635	89.99	-0.750	0.810	1.310	89.97	-0.30	1.70	 	 	 	 	 	 	 	 	 	 	 	 	 	 	 	 	 	 	1581517225	7.96	14.74
12/02/2020 14:20:26	120220	12022020	142026	89.86	12.418773	-57.117590	89.89	0.040	-0.810	1.240	89.86	-1.90	1.70	 	 	 	 	 	 	 	 	 	 	 	 	 	 	 	 	 	 	1581517226	9.28	17.19
12/02/2020 14:20:27	120220	12022020	142027	89.94	12.418775	-57.117547	90.03	0.620	-1.630	1.210	89.99	-2.90	1.60	 	 	 	 	 	 	 	 	 	 	 	 	 	 	 	 	 	 	1581517227	9.15	16.95
12/02/2020 14:20:28	120220	12022020	142028	90.26	12.418777	-57.117508	90.39	0.620	-1.370	1.310	90.34	-2.80	1.70	 	 	 	 	 	 	 	 	 	 	 	 	 	 	 	 	 	 	1581517228	8.13	15.06
12/02/2020 14:20:29	120220	12022020	142029	90.58	12.418775	-57.117475	90.64	0.250	-0.490	1.630	90.60	-2.00	2.00	 	 	 	 	 	 	 	 	 	 	 	 	 	 	 	 	 	 	1581517229	7.18	13.30
12/02/2020 14:20:30	120220	12022020	142030	90.41	12.418770	-57.117442	90.32	-0.070	0.220	2.220	90.30	-1.20	2.50	 	 	 	 	 	 	 	 	 	 	 	 	 	 	 	 	 	 	1581517230	7.02	13.00
12/02/2020 14:20:31	120220	12022020	142031	89.76	12.418765	-57.117407	89.67	-0.120	0.410	2.620	89.64	-0.90	3.00	 	 	 	 	 	 	 	 	 	 	 	 	 	 	 	 	 	 	1581517231	7.55	13.98
12/02/2020 14:20:32	120220	12022020	142032	89.41	12.418765	-57.117368	89.49	0.070	0.160	2.180	89.43	-1.10	2.70	 	 	 	 	 	 	 	 	 	 	 	 	 	 	 	 	 	 	1581517232	8.03	14.87
12/02/2020 14:20:33	120220	12022020	142033	89.74	12.418770	-57.117328	89.90	0.320	-0.370	1.150	89.85	-2.00	1.10	 	 	 	 	 	 	 	 	 	 	 	 	 	 	 	 	 	 	1581517233	8.39	15.54
12/02/2020 14:20:34	120220	12022020	142034	90.16	12.418777	-57.117288	90.22	0.390	-0.780	0.200	90.20	-2.10	0.70	 	 	 	 	 	 	 	 	 	 	 	 	 	 	 	 	 	 	1581517234	8.66	16.04
12/02/2020 14:20:35	120220	12022020	142035	90.23	12.418780	-57.117250	90.21	0.020	-0.400	-0.140	90.22	-1.90	0.30	 	 	 	 	 	 	 	 	 	 	 	 	 	 	 	 	 	 	1581517235	8.34	15.45
12/02/2020 14:20:36	120220	12022020	142036	90.16	12.418782	-57.117215	90.16	-0.760	0.620	0.360	90.15	-0.90	0.70	 	 	 	 	 	 	 	 	 	 	 	 	 	 	 	 	 	 	1581517236	7.15	13.24
12/02/2020 14:20:37	120220	12022020	142037	90.15	12.418775	-57.117185	90.18	-1.260	0.900	1.220	90.15	-0.40	1.50	 	 	 	 	 	 	 	 	 	 	 	 	 	 	 	 	 	 	1581517237	6.69	12.39
12/02/2020 14:20:38	120220	12022020	142038	90.12	12.418768	-57.117147	90.15	-0.630	-0.540	1.780	90.11	-1.60	2.10	 	 	 	 	 	 	 	 	 	 	 	 	 	 	 	 	 	 	1581517238	8.01	14.83
12/02/2020 14:20:39	120220	12022020	142039	90.00	12.418765	-57.117100	89.98	0.800	-2.240	2.090	89.95	-3.40	2.40	 	 	 	 	 	 	 	 	 	 	 	 	 	 	 	 	 	 	1581517239	9.85	18.24
12/02/2020 14:20:40	120220	12022020	142040	89.78	12.418763	-57.117055	89.79	1.610	-2.040	2.270	89.75	-3.60	2.70	 	 	 	 	 	 	 	 	 	 	 	 	 	 	 	 	 	 	1581517240	9.62	17.82
12/02/2020 14:20:41	120220	12022020	142041	89.69	12.418765	-57.117020	89.73	1.030	0.030	2.110	89.68	-1.70	2.60	 	 	 	 	 	 	 	 	 	 	 	 	 	 	 	 	 	 	1581517241	7.34	13.59
12/02/2020 14:20:42	120220	12022020	142042	89.75	12.418768	-57.116993	89.85	-0.330	2.080	1.700	89.80	0.50	2.20	 	 	 	 	 	 	 	 	 	 	 	 	 	 	 	 	 	 	1581517242	5.66	10.48
12/02/2020 14:20:43	120220	12022020	142043	90.07	12.418772	-57.116965	90.19	-1.200	2.210	1.090	90.14	1.00	1.60	 	 	 	 	 	 	 	 	 	 	 	 	 	 	 	 	 	 	1581517243	6.07	11.24
12/02/2020 14:20:44	120220	12022020	142044	90.37	12.418773	-57.116927	90.43	-0.910	0.240	0.580	90.40	-0.80	1.00	 	 	 	 	 	 	 	 	 	 	 	 	 	 	 	 	 	 	1581517244	8.22	15.22
12/02/2020 14:20:45	120220	12022020	142045	90.35	12.418773	-57.116880	90.32	-0.010	-1.830	0.540	90.31	-3.00	0.90	 	 	 	 	 	 	 	 	 	 	 	 	 	 	 	 	 	 	1581517245	10.00	18.52
12/02/2020 14:20:46	120220	12022020	142046	90.17	12.418772	-57.116835	90.16	0.480	-1.900	0.870	90.14	-3.30	1.20	 	 	 	 	 	 	 	 	 	 	 	 	 	 	 	 	 	 	1581517246	9.28	17.19
12/02/2020 14:20:47	120220	12022020	142047	90.02	12.418770	-57.116802	90.01	0.280	-0.520	1.240	89.98	-2.10	1.60	 	 	 	 	 	 	 	 	 	 	 	 	 	 	 	 	 	 	1581517247	7.00	12.96
12/02/2020 14:20:48	120220	12022020	142048	89.86	12.418768	-57.116773	89.87	0.040	0.170	1.430	89.84	-1.20	1.80	 	 	 	 	 	 	 	 	 	 	 	 	 	 	 	 	 	 	1581517248	6.21	11.50
12/02/2020 14:20:49	120220	12022020	142049	89.75	12.418770	-57.116737	89.77	0.290	-0.420	1.290	89.74	-1.70	1.70	 	 	 	 	 	 	 	 	 	 	 	 	 	 	 	 	 	 	1581517249	7.83	14.50
12/02/2020 14:20:50	120220	12022020	142050	89.73	12.418772	-57.116693	89.79	0.500	-0.740	1.140	89.75	-2.10	1.60	 	 	 	 	 	 	 	 	 	 	 	 	 	 	 	 	 	 	1581517250	9.01	16.69
12/02/2020 14:20:51	120220	12022020	142051	89.94	12.418773	-57.116655	90.06	0.170	-0.060	1.160	90.01	-1.60	1.60	 	 	 	 	 	 	 	 	 	 	 	 	 	 	 	 	 	 	1581517251	8.20	15.19
12/02/2020 14:20:52	120220	12022020	142052	90.28	12.418772	-57.116622	90.37	-0.560	0.930	1.440	90.32	-0.60	1.80	 	 	 	 	 	 	 	 	 	 	 	 	 	 	 	 	 	 	1581517252	7.00	12.96
12/02/2020 14:20:53	120220	12022020	142053	90.37	12.418768	-57.116590	90.40	-1.160	1.260	1.870	90.36	-0.10	2.20	 	 	 	 	 	 	 	 	 	 	 	 	 	 	 	 	 	 	1581517253	6.89	12.76
12/02/2020 14:20:54	120220	12022020	142054	90.21	12.418763	-57.116553	90.20	-1.120	0.490	2.030	90.16	-0.70	2.40	 	 	 	 	 	 	 	 	 	 	 	 	 	 	 	 	 	 	1581517254	7.58	14.04
12/02/2020 14:20:55	120220	12022020	142055	89.90	12.418762	-57.116513	89.88	-0.180	-1.120	1.830	89.84	-2.20	2.30	 	 	 	 	 	 	 	 	 	 	 	 	 	 	 	 	 	 	1581517255	8.64	16.00
12/02/2020 14:20:56	120220	12022020	142056	89.64	12.418763	-57.116468	89.64	1.130	-2.340	1.460	89.61	-3.60	1.90	 	 	 	 	 	 	 	 	 	 	 	 	 	 	 	 	 	 	1581517256	9.47	17.54
12/02/2020 14:20:57	120220	12022020	142057	89.53	12.418768	-57.116425	89.56	1.760	-2.100	0.970	89.52	-3.60	1.50	 	 	 	 	 	 	 	 	 	 	 	 	 	 	 	 	 	 	1581517257	9.04	16.74
12/02/2020 14:20:58	120220	12022020	142058	89.61	12.418773	-57.116390	89.68	1.140	-0.440	0.500	89.65	-2.10	1.00	 	 	 	 	 	 	 	 	 	 	 	 	 	 	 	 	 	 	1581517258	7.67	14.20
12/02/2020 14:20:59	120220	12022020	142059	89.86	12.418777	-57.116360	89.95	-0.280	1.610	0.430	89.92	0.00	0.80	 	 	 	 	 	 	 	 	 	 	 	 	 	 	 	 	 	 	1581517259	6.30	11.67
12/02/2020 14:21:00	120220	12022020	142100	90.08	12.418775	-57.116332	90.14	-1.460	2.580	0.790	90.11	1.20	1.10	 	 	 	 	 	 	 	 	 	 	 	 	 	 	 	 	 	 	1581517260	5.99	11.09
12/02/2020 14:21:01	120220	12022020	142101	90.16	12.418772	-57.116298	90.21	-1.520	1.320	1.210	90.17	0.30	1.60	 	 	 	 	 	 	 	 	 	 	 	 	 	 	 	 	 	 	1581517261	7.30	13.52
12/02/2020 14:21:02	120220	12022020	142102	90.19	12.418770	-57.116252	90.23	-0.490	-1.360	1.470	90.18	-2.30	1.80	1017.30	26.60	26.60	20.40	20.50	566.0	69.0	69.0	438.0	28.3	344.00	14.40	68.00	10.50	46061	13962.0	27.5	27.4	1581517262	9.56	17.71
12/02/2020 14:21:03	120220	12022020	142103	90.07	12.418768	-57.116203	90.07	0.650	-3.000	1.860	90.02	-4.20	2.20	 	 	 	 	 	 	 	 	 	 	 	 	 	 	 	 	 	 	1581517263	10.46	19.37
12/02/2020 14:21:04	120220	12022020	142104	89.74	12.418765	-57.116162	89.71	0.980	-2.070	2.380	89.65	-3.70	2.70	 	 	 	 	 	 	 	 	 	 	 	 	 	 	 	 	 	 	1581517264	8.88	16.45
12/02/2020 14:21:05	120220	12022020	142105	89.32	12.418763	-57.116132	89.33	0.360	0.340	2.650	89.26	-1.40	3.10	 	 	 	 	 	 	 	 	 	 	 	 	 	 	 	 	 	 	1581517265	6.41	11.87
12/02/2020 14:21:06	120220	12022020	142106	89.25	12.418763	-57.116105	89.37	-0.520	1.860	1.990	89.30	0.40	2.60	 	 	 	 	 	 	 	 	 	 	 	 	 	 	 	 	 	 	1581517266	5.55	10.28
12/02/2020 14:21:07	120220	12022020	142107	89.65	12.418770	-57.116072	89.82	-0.720	1.190	0.640	89.75	0.10	1.30	 	 	 	 	 	 	 	 	 	 	 	 	 	 	 	 	 	 	1581517267	7.08	13.11
12/02/2020 14:21:08	120220	12022020	142108	90.03	12.418777	-57.116028	90.06	-0.010	-0.780	-0.180	90.04	-1.80	0.30	 	 	 	 	 	 	 	 	 	 	 	 	 	 	 	 	 	 	1581517268	9.40	17.41
12/02/2020 14:21:09	120220	12022020	142109	89.95	12.418782	-57.115980	89.92	0.760	-1.860	-0.170	89.91	-3.10	0.20	 	 	 	 	 	 	 	 	 	 	 	 	 	 	 	 	 	 	1581517269	10.09	18.69
12/02/2020 14:21:10	120220	12022020	142110	89.78	12.418780	-57.115940	89.77	0.720	-1.040	0.360	89.75	-2.60	0.70	 	 	 	 	 	 	 	 	 	 	 	 	 	 	 	 	 	 	1581517270	8.58	15.89
12/02/2020 14:21:11	120220	12022020	142111	89.67	12.418777	-57.115908	89.68	-0.100	0.640	1.240	89.65	-0.90	1.50	 	 	 	 	 	 	 	 	 	 	 	 	 	 	 	 	 	 	1581517271	6.66	12.33
12/02/2020 14:21:12	120220	12022020	142112	89.56	12.418772	-57.115880	89.59	-0.870	1.410	1.920	89.54	0.10	2.30	 	 	 	 	 	 	 	 	 	 	 	 	 	 	 	 	 	 	1581517272	6.25	11.58
12/02/2020 14:21:13	120220	12022020	142113	89.56	12.418770	-57.115845	89.63	-0.850	0.660	1.970	89.58	-0.50	2.40	 	 	 	 	 	 	 	 	 	 	 	 	 	 	 	 	 	 	1581517273	7.42	13.74
12/02/2020 14:21:14	120220	12022020	142114	89.73	12.418772	-57.115802	89.82	-0.120	-0.770	1.840	89.76	-1.90	2.30	 	 	 	 	 	 	 	 	 	 	 	 	 	 	 	 	 	 	1581517274	8.89	16.46
12/02/2020 14:21:15	120220	12022020	142115	89.95	12.418773	-57.115758	90.07	0.640	-1.620	1.840	90.01	-2.90	2.30	 	 	 	 	 	 	 	 	 	 	 	 	 	 	 	 	 	 	1581517275	9.23	17.09
12/02/2020 14:21:16	120220	12022020	142116	90.16	12.418775	-57.115718	90.24	0.840	-1.500	1.840	90.18	-2.90	2.20	 	 	 	 	 	 	 	 	 	 	 	 	 	 	 	 	 	 	1581517276	8.49	15.72
12/02/2020 14:21:17	120220	12022020	142117	90.10	12.418773	-57.115682	90.10	0.480	-0.770	1.950	90.05	-2.20	2.30	 	 	 	 	 	 	 	 	 	 	 	 	 	 	 	 	 	 	1581517277	7.74	14.33
12/02/2020 14:21:18	120220	12022020	142118	89.86	12.418773	-57.115647	89.90	-0.060	0.200	2.130	89.82	-1.30	2.50	 	 	 	 	 	 	 	 	 	 	 	 	 	 	 	 	 	 	1581517278	7.44	13.78
12/02/2020 14:21:19	120220	12022020	142119	89.82	12.418772	-57.115612	89.92	-0.420	0.910	1.870	89.85	-0.50	2.40	 	 	 	 	 	 	 	 	 	 	 	 	 	 	 	 	 	 	1581517279	7.28	13.48
12/02/2020 14:21:20	120220	12022020	142120	89.95	12.418773	-57.115577	90.02	-0.420	0.740	1.170	89.97	-0.50	1.70	 	 	 	 	 	 	 	 	 	 	 	 	 	 	 	 	 	 	1581517280	7.70	14.26
12/02/2020 14:21:21	120220	12022020	142121	89.87	12.418777	-57.115535	89.85	-0.190	0.010	0.660	89.82	-1.20	1.10	 	 	 	 	 	 	 	 	 	 	 	 	 	 	 	 	 	 	1581517281	8.58	15.89
12/02/2020 14:21:22	120220	12022020	142122	89.60	12.418782	-57.115493	89.59	-0.010	-0.590	0.350	89.56	-1.90	0.80	 	 	 	 	 	 	 	 	 	 	 	 	 	 	 	 	 	 	1581517282	8.85	16.39
12/02/2020 14:21:23	120220	12022020	142123	89.67	12.418785	-57.115453	89.82	0.030	-0.850	0.020	89.76	-2.20	0.30	 	 	 	 	 	 	 	 	 	 	 	 	 	 	 	 	 	 	1581517283	8.58	15.89
12/02/2020 14:21:24	120220	12022020	142124	90.30	12.418787	-57.115415	90.51	0.030	-0.690	-0.170	90.45	-2.10	0.30	 	 	 	 	 	 	 	 	 	 	 	 	 	 	 	 	 	 	1581517284	8.20	15.19
12/02/2020 14:21:25	120220	12022020	142125	90.85	12.418785	-57.115378	90.90	0.080	-0.260	0.180	90.87	-1.70	0.50	 	 	 	 	 	 	 	 	 	 	 	 	 	 	 	 	 	 	1581517285	7.84	14.52
12/02/2020 14:21:26	120220	12022020	142126	90.65	12.418780	-57.115342	90.56	0.170	-0.030	1.250	90.54	-1.40	1.50	 	 	 	 	 	 	 	 	 	 	 	 	 	 	 	 	 	 	1581517286	7.80	14.45
12/02/2020 14:21:27	120220	12022020	142127	90.09	12.418775	-57.115302	90.07	0.240	-0.150	2.340	90.01	-1.50	2.60	 	 	 	 	 	 	 	 	 	 	 	 	 	 	 	 	 	 	1581517287	8.25	15.28
12/02/2020 14:21:28	120220	12022020	142128	89.82	12.418772	-57.115262	89.89	0.200	-0.300	2.770	89.81	-1.60	3.20	 	 	 	 	 	 	 	 	 	 	 	 	 	 	 	 	 	 	1581517288	8.54	15.82
12/02/2020 14:21:29	120220	12022020	142129	89.86	12.418773	-57.115222	89.97	0.060	-0.280	2.600	89.90	-1.60	3.10	 	 	 	 	 	 	 	 	 	 	 	 	 	 	 	 	 	 	1581517289	8.41	15.58
12/02/2020 14:21:30	120220	12022020	142130	90.06	12.418777	-57.115183	90.19	-0.150	-0.230	2.150	90.11	-1.60	2.70	 	 	 	 	 	 	 	 	 	 	 	 	 	 	 	 	 	 	1581517290	8.25	15.28
12/02/2020 14:21:31	120220	12022020	142131	90.35	12.418778	-57.115145	90.50	-0.340	-0.170	1.710	90.43	-1.50	2.20	 	 	 	 	 	 	 	 	 	 	 	 	 	 	 	 	 	 	1581517291	8.22	15.22
12/02/2020 14:21:32	120220	12022020	142132	90.69	12.418778	-57.115107	90.77	-0.310	-0.200	1.320	90.73	-1.50	1.80	 	 	 	 	 	 	 	 	 	 	 	 	 	 	 	 	 	 	1581517292	8.17	15.13
12/02/2020 14:21:33	120220	12022020	142133	90.58	12.418777	-57.115065	90.50	0.070	-0.550	1.310	90.48	-1.80	1.70	 	 	 	 	 	 	 	 	 	 	 	 	 	 	 	 	 	 	1581517293	8.49	15.72
12/02/2020 14:21:34	120220	12022020	142134	90.07	12.418777	-57.115023	90.02	0.420	-0.700	1.350	89.99	-2.10	1.80	 	 	 	 	 	 	 	 	 	 	 	 	 	 	 	 	 	 	1581517294	8.92	16.52
12/02/2020 14:21:35	120220	12022020	142135	89.86	12.418778	-57.114983	89.92	0.350	-0.350	1.120	89.88	-1.80	1.60	 	 	 	 	 	 	 	 	 	 	 	 	 	 	 	 	 	 	1581517295	8.60	15.93
12/02/2020 14:21:36	120220	12022020	142136	90.07	12.418782	-57.114945	90.20	-0.120	0.190	0.680	90.15	-1.20	1.20	 	 	 	 	 	 	 	 	 	 	 	 	 	 	 	 	 	 	1581517296	8.07	14.95
12/02/2020 14:21:37	120220	12022020	142137	90.47	12.418785	-57.114908	90.58	-0.610	0.540	0.230	90.54	-0.90	0.70	 	 	 	 	 	 	 	 	 	 	 	 	 	 	 	 	 	 	1581517297	7.87	14.58
12/02/2020 14:21:38	120220	12022020	142138	90.69	12.418785	-57.114870	90.71	-0.730	0.390	0.410	90.69	-0.90	0.80	 	 	 	 	 	 	 	 	 	 	 	 	 	 	 	 	 	 	1581517298	8.03	14.87
12/02/2020 14:21:39	120220	12022020	142139	90.53	12.418782	-57.114828	90.50	-0.380	-0.340	1.120	90.48	-1.50	1.40	 	 	 	 	 	 	 	 	 	 	 	 	 	 	 	 	 	 	1581517299	8.64	16.00
12/02/2020 14:21:40	120220	12022020	142140	90.38	12.418777	-57.114785	90.42	0.270	-1.210	1.490	90.38	-2.40	1.90	 	 	 	 	 	 	 	 	 	 	 	 	 	 	 	 	 	 	1581517300	9.27	17.17
12/02/2020 14:21:41	120220	12022020	142141	90.42	12.418775	-57.114742	90.49	0.820	-1.660	1.720	90.44	-2.90	2.10	 	 	 	 	 	 	 	 	 	 	 	 	 	 	 	 	 	 	1581517301	9.40	17.41
12/02/2020 14:21:42	120220	12022020	142142	90.48	12.418773	-57.114698	90.53	0.850	-1.030	1.930	90.48	-2.50	2.30	 	 	 	 	 	 	 	 	 	 	 	 	 	 	 	 	 	 	1581517302	8.95	16.58
12/02/2020 14:21:43	120220	12022020	142143	90.38	12.418773	-57.114662	90.37	0.280	0.530	1.820	90.33	-1.00	2.30	 	 	 	 	 	 	 	 	 	 	 	 	 	 	 	 	 	 	1581517303	7.71	14.28
12/02/2020 14:21:44	120220	12022020	142144	90.08	12.418777	-57.114630	90.08	-0.500	1.780	1.550	90.03	0.40	2.00	 	 	 	 	 	 	 	 	 	 	 	 	 	 	 	 	 	 	1581517304	6.89	12.76
12/02/2020 14:21:45	120220	12022020	142145	90.06	12.418782	-57.114595	90.17	-0.920	1.440	1.010	90.11	0.30	1.50	 	 	 	 	 	 	 	 	 	 	 	 	 	 	 	 	 	 	1581517305	7.54	13.96
12/02/2020 14:21:46	120220	12022020	142146	90.39	12.418785	-57.114552	90.51	-0.640	-0.530	0.520	90.46	-1.50	1.00	 	 	 	 	 	 	 	 	 	 	 	 	 	 	 	 	 	 	1581517306	9.17	16.98
12/02/2020 14:21:47	120220	12022020	142147	90.57	12.418783	-57.114500	90.60	0.100	-2.490	0.470	90.57	-3.60	0.90	 	 	 	 	 	 	 	 	 	 	 	 	 	 	 	 	 	 	1581517307	10.63	19.69
12/02/2020 14:21:48	120220	12022020	142148	90.43	12.418780	-57.114453	90.40	0.570	-2.290	0.910	90.37	-3.80	1.20	 	 	 	 	 	 	 	 	 	 	 	 	 	 	 	 	 	 	1581517308	10.12	18.74
12/02/2020 14:21:49	120220	12022020	142149	90.10	12.418775	-57.114417	90.06	0.290	-0.170	1.600	90.03	-1.80	1.90	 	 	 	 	 	 	 	 	 	 	 	 	 	 	 	 	 	 	1581517309	7.66	14.19
12/02/2020 14:21:50	120220	12022020	142150	89.76	12.418772	-57.114388	89.76	-0.390	1.730	1.940	89.71	0.20	2.40	 	 	 	 	 	 	 	 	 	 	 	 	 	 	 	 	 	 	1581517310	6.14	11.37
12/02/2020 14:21:51	120220	12022020	142151	89.53	12.418772	-57.114357	89.56	-0.770	1.820	1.600	89.51	0.60	2.10	 	 	 	 	 	 	 	 	 	 	 	 	 	 	 	 	 	 	1581517311	6.83	12.65
12/02/2020 14:21:52	120220	12022020	142152	89.52	12.418778	-57.114315	89.60	-0.410	0.110	0.840	89.54	-0.90	1.40	 	 	 	 	 	 	 	 	 	 	 	 	 	 	 	 	 	 	1581517312	8.81	16.32
12/02/2020 14:21:53	120220	12022020	142153	89.74	12.418785	-57.114267	89.86	0.380	-1.880	0.100	89.81	-2.90	0.60	 	 	 	 	 	 	 	 	 	 	 	 	 	 	 	 	 	 	1581517313	10.41	19.28
12/02/2020 14:21:54	120220	12022020	142154	90.06	12.418790	-57.114218	90.14	0.830	-2.350	0.070	90.10	-3.70	0.50	 	 	 	 	 	 	 	 	 	 	 	 	 	 	 	 	 	 	1581517314	10.13	18.76
12/02/2020 14:21:55	120220	12022020	142155	90.22	12.418788	-57.114178	90.27	0.610	-1.050	0.770	90.24	-2.60	1.10	 	 	 	 	 	 	 	 	 	 	 	 	 	 	 	 	 	 	1581517315	8.34	15.45
12/02/2020 14:21:56	120220	12022020	142156	90.24	12.418783	-57.114147	90.28	0.010	0.650	1.530	90.23	-0.90	1.80	 	 	 	 	 	 	 	 	 	 	 	 	 	 	 	 	 	 	1581517316	6.90	12.78
12/02/2020 14:21:57	120220	12022020	142157	90.08	12.418780	-57.114113	90.06	-0.520	1.370	2.150	90.01	0.00	2.50	 	 	 	 	 	 	 	 	 	 	 	 	 	 	 	 	 	 	1581517317	7.02	13.00
12/02/2020 14:21:58	120220	12022020	142158	89.79	12.418778	-57.114075	89.83	-0.620	0.810	2.460	89.76	-0.40	2.90	 	 	 	 	 	 	 	 	 	 	 	 	 	 	 	 	 	 	1581517318	8.19	15.17
12/02/2020 14:21:59	120220	12022020	142159	89.86	12.418778	-57.114032	90.02	-0.360	-0.230	2.240	89.93	-1.40	2.70	 	 	 	 	 	 	 	 	 	 	 	 	 	 	 	 	 	 	1581517319	9.22	17.08
12/02/2020 14:22:00	120220	12022020	142200	90.26	12.418780	-57.113987	90.42	-0.080	-0.970	1.760	90.34	-2.20	2.30	 	 	 	 	 	 	 	 	 	 	 	 	 	 	 	 	 	 	1581517320	9.35	17.32
12/02/2020 14:22:01	120220	12022020	142201	90.53	12.418782	-57.113945	90.60	0.040	-0.990	1.270	90.54	-2.30	1.80	 	 	 	 	 	 	 	 	 	 	 	 	 	 	 	 	 	 	1581517321	8.81	16.32
12/02/2020 14:22:02	120220	12022020	142202	90.53	12.418783	-57.113907	90.56	0.130	-0.560	0.950	90.52	-1.90	1.40	1017.30	26.60	26.60	20.40	20.40	557.0	68.0	68.0	437.0	28.2	345.00	14.80	69.00	10.70	45998	11291.0	27.5	27.4	1581517322	8.09	14.98
12/02/2020 14:22:03	120220	12022020	142203	90.49	12.418785	-57.113870	90.53	0.270	-0.340	0.850	90.48	-1.70	1.30	 	 	 	 	 	 	 	 	 	 	 	 	 	 	 	 	 	 	1581517323	8.00	14.82
12/02/2020 14:22:04	120220	12022020	142204	90.47	12.418787	-57.113830	90.50	0.370	-0.260	0.470	90.47	-1.60	1.00	 	 	 	 	 	 	 	 	 	 	 	 	 	 	 	 	 	 	1581517324	8.46	15.67
12/02/2020 14:22:05	120220	12022020	142205	90.40	12.418790	-57.113790	90.35	0.310	0.000	-0.040	90.35	-1.40	0.50	 	 	 	 	 	 	 	 	 	 	 	 	 	 	 	 	 	 	1581517325	8.49	15.72
12/02/2020 14:22:06	120220	12022020	142206	90.16	12.418795	-57.113750	90.12	0.200	0.070	-0.100	90.12	-1.20	0.30	 	 	 	 	 	 	 	 	 	 	 	 	 	 	 	 	 	 	1581517326	8.35	15.46
12/02/2020 14:22:07	120220	12022020	142207	90.17	12.418798	-57.113708	90.26	0.140	-0.340	-0.130	90.23	-1.60	0.30	 	 	 	 	 	 	 	 	 	 	 	 	 	 	 	 	 	 	1581517327	8.74	16.19
12/02/2020 14:22:08	120220	12022020	142208	90.64	12.418800	-57.113665	90.77	-0.030	-0.670	-0.120	90.74	-2.00	0.30	 	 	 	 	 	 	 	 	 	 	 	 	 	 	 	 	 	 	1581517328	9.23	17.09
12/02/2020 14:22:09	120220	12022020	142209	90.98	12.418798	-57.113623	91.00	-0.400	-0.340	0.640	90.98	-1.70	0.90	 	 	 	 	 	 	 	 	 	 	 	 	 	 	 	 	 	 	1581517329	8.82	16.33
12/02/2020 14:22:10	120220	12022020	142210	90.79	12.418790	-57.113587	90.73	-0.690	0.360	1.890	90.70	-1.10	2.10	 	 	 	 	 	 	 	 	 	 	 	 	 	 	 	 	 	 	1581517330	8.12	15.04
12/02/2020 14:22:11	120220	12022020	142211	90.39	12.418782	-57.113550	90.38	-0.600	0.600	2.800	90.32	-0.70	3.10	 	 	 	 	 	 	 	 	 	 	 	 	 	 	 	 	 	 	1581517331	7.91	14.65
12/02/2020 14:22:12	120220	12022020	142212	90.12	12.418778	-57.113510	90.15	-0.030	-0.220	3.020	90.08	-1.30	3.50	 	 	 	 	 	 	 	 	 	 	 	 	 	 	 	 	 	 	1581517332	8.54	15.82
12/02/2020 14:22:13	120220	12022020	142213	90.09	12.418780	-57.113463	90.22	0.630	-1.340	2.430	90.13	-2.90	2.50	 	 	 	 	 	 	 	 	 	 	 	 	 	 	 	 	 	 	1581517333	9.69	17.95
12/02/2020 14:22:14	120220	12022020	142214	90.42	12.418785	-57.113418	90.57	0.790	-1.420	1.650	90.50	-2.80	2.20	 	 	 	 	 	 	 	 	 	 	 	 	 	 	 	 	 	 	1581517334	9.75	18.06
12/02/2020 14:22:15	120220	12022020	142215	90.73	12.418790	-57.113378	90.80	0.320	-0.170	1.120	90.75	-1.70	1.60	 	 	 	 	 	 	 	 	 	 	 	 	 	 	 	 	 	 	1581517335	8.29	15.35
12/02/2020 14:22:16	120220	12022020	142216	90.72	12.418792	-57.113345	90.70	-0.320	0.980	0.710	90.69	-0.40	1.20	 	 	 	 	 	 	 	 	 	 	 	 	 	 	 	 	 	 	1581517336	7.12	13.19
12/02/2020 14:22:17	120220	12022020	142217	90.48	12.418795	-57.113308	90.43	-0.430	0.580	0.360	90.42	-0.60	0.90	 	 	 	 	 	 	 	 	 	 	 	 	 	 	 	 	 	 	1581517337	7.78	14.41
12/02/2020 14:22:18	120220	12022020	142218	90.25	12.418798	-57.113263	90.26	0.010	-0.800	0.100	90.24	-1.90	0.60	 	 	 	 	 	 	 	 	 	 	 	 	 	 	 	 	 	 	1581517338	9.62	17.82
12/02/2020 14:22:19	120220	12022020	142219	90.34	12.418802	-57.113215	90.44	0.370	-1.330	-0.030	90.41	-2.70	0.40	 	 	 	 	 	 	 	 	 	 	 	 	 	 	 	 	 	 	1581517339	10.15	18.80
12/02/2020 14:22:20	120220	12022020	142220	90.77	12.418802	-57.113173	90.89	0.250	-0.400	-0.090	90.86	-1.90	0.40	 	 	 	 	 	 	 	 	 	 	 	 	 	 	 	 	 	 	1581517340	8.74	16.19
12/02/2020 14:22:21	120220	12022020	142221	91.12	12.418802	-57.113138	91.17	-0.180	0.560	0.380	91.15	-0.80	0.70	 	 	 	 	 	 	 	 	 	 	 	 	 	 	 	 	 	 	1581517341	7.44	13.78
12/02/2020 14:22:22	120220	12022020	142222	91.12	12.418795	-57.113102	91.12	-0.450	0.320	1.410	91.09	-0.90	1.70	 	 	 	 	 	 	 	 	 	 	 	 	 	 	 	 	 	 	1581517342	8.05	14.91
12/02/2020 14:22:23	120220	12022020	142223	90.95	12.418788	-57.113057	90.95	-0.270	-0.590	2.250	90.91	-1.80	2.60	 	 	 	 	 	 	 	 	 	 	 	 	 	 	 	 	 	 	1581517343	9.41	17.43
12/02/2020 14:22:24	120220	12022020	142224	90.77	12.418785	-57.113012	90.82	0.120	-0.900	2.560	90.76	-2.20	3.00	 	 	 	 	 	 	 	 	 	 	 	 	 	 	 	 	 	 	1581517344	9.66	17.89
12/02/2020 14:22:25	120220	12022020	142225	90.83	12.418785	-57.112970	90.95	0.360	-0.460	2.340	90.87	-1.80	2.80	 	 	 	 	 	 	 	 	 	 	 	 	 	 	 	 	 	 	1581517345	8.75	16.21
12/02/2020 14:22:26	120220	12022020	142226	91.08	12.418787	-57.112932	91.20	0.360	-0.040	1.910	91.13	-1.40	2.40	 	 	 	 	 	 	 	 	 	 	 	 	 	 	 	 	 	 	1581517346	8.25	15.28
12/02/2020 14:22:27	120220	12022020	142227	91.23	12.418790	-57.112892	91.30	0.090	0.100	1.490	91.24	-1.20	2.00	 	 	 	 	 	 	 	 	 	 	 	 	 	 	 	 	 	 	1581517347	8.51	15.76
12/02/2020 14:22:28	120220	12022020	142228	91.24	12.418792	-57.112850	91.30	-0.310	0.050	1.270	91.24	-1.20	1.70	 	 	 	 	 	 	 	 	 	 	 	 	 	 	 	 	 	 	1581517348	8.67	16.06
12/02/2020 14:22:29	120220	12022020	142229	91.29	12.418792	-57.112808	91.35	-0.490	-0.160	1.070	91.29	-1.40	1.60	 	 	 	 	 	 	 	 	 	 	 	 	 	 	 	 	 	 	1581517349	8.73	16.17
12/02/2020 14:22:30	120220	12022020	142230	91.27	12.418790	-57.112767	91.30	-0.200	-0.500	0.790	91.26	-1.70	1.30	 	 	 	 	 	 	 	 	 	 	 	 	 	 	 	 	 	 	1581517350	8.88	16.45
12/02/2020 14:22:31	120220	12022020	142231	91.21	12.418792	-57.112723	91.24	0.310	-0.910	0.530	91.20	-2.10	1.00	 	 	 	 	 	 	 	 	 	 	 	 	 	 	 	 	 	 	1581517351	9.19	17.02
12/02/2020 14:22:32	120220	12022020	142232	91.08	12.418793	-57.112680	91.08	0.620	-1.160	0.620	91.04	-2.40	1.10	 	 	 	 	 	 	 	 	 	 	 	 	 	 	 	 	 	 	1581517352	9.40	17.41
12/02/2020 14:22:33	120220	12022020	142233	90.88	12.418793	-57.112635	90.93	0.510	-0.740	0.750	90.88	-2.20	1.20	 	 	 	 	 	 	 	 	 	 	 	 	 	 	 	 	 	 	1581517353	9.25	17.13
12/02/2020 14:22:34	120220	12022020	142234	91.02	12.418793	-57.112595	91.17	-0.020	0.450	0.910	91.09	-1.10	1.30	 	 	 	 	 	 	 	 	 	 	 	 	 	 	 	 	 	 	1581517354	8.45	15.65
12/02/2020 14:22:35	120220	12022020	142235	91.47	12.418792	-57.112560	91.64	-0.680	1.420	1.260	91.56	0.00	1.70	 	 	 	 	 	 	 	 	 	 	 	 	 	 	 	 	 	 	1581517355	7.62	14.11
12/02/2020 14:22:36	120220	12022020	142236	91.79	12.418787	-57.112522	91.89	-0.910	1.040	1.590	91.81	-0.10	2.00	 	 	 	 	 	 	 	 	 	 	 	 	 	 	 	 	 	 	1581517356	8.05	14.91
12/02/2020 14:22:37	120220	12022020	142237	91.73	12.418782	-57.112477	91.75	-0.430	-0.530	1.950	91.67	-2.60	2.60	 	 	 	 	 	 	 	 	 	 	 	 	 	 	 	 	 	 	1581517357	9.48	17.56
12/02/2020 14:22:38	120220	12022020	142238	91.41	12.418777	-57.112428	91.44	0.430	-1.900	2.260	91.35	-3.10	2.70	 	 	 	 	 	 	 	 	 	 	 	 	 	 	 	 	 	 	1581517358	10.50	19.45
12/02/2020 14:22:39	120220	12022020	142239	91.21	12.418777	-57.112380	91.31	0.890	-1.780	2.090	91.20	-3.20	2.60	 	 	 	 	 	 	 	 	 	 	 	 	 	 	 	 	 	 	1581517359	9.94	18.41
12/02/2020 14:22:40	120220	12022020	142240	91.25	12.418778	-57.112342	91.38	0.540	-0.480	1.620	91.27	-2.00	2.10	 	 	 	 	 	 	 	 	 	 	 	 	 	 	 	 	 	 	1581517360	8.39	15.54
12/02/2020 14:22:41	120220	12022020	142241	91.40	12.418782	-57.112305	91.53	-0.180	0.680	1.230	91.43	-0.70	1.70	 	 	 	 	 	 	 	 	 	 	 	 	 	 	 	 	 	 	1581517361	7.53	13.95
12/02/2020 14:22:42	120220	12022020	142242	91.53	12.418782	-57.112268	91.64	-0.520	0.800	1.000	91.56	-0.50	1.50	 	 	 	 	 	 	 	 	 	 	 	 	 	 	 	 	 	 	1581517362	8.05	14.91
12/02/2020 14:22:43	120220	12022020	142243	91.58	12.418780	-57.112223	91.65	-0.250	0.060	0.810	91.57	-1.10	1.30	 	 	 	 	 	 	 	 	 	 	 	 	 	 	 	 	 	 	1581517363	9.24	17.11
12/02/2020 14:22:44	120220	12022020	142244	91.42	12.418778	-57.112177	91.44	0.240	-0.660	0.770	91.37	-1.90	1.20	 	 	 	 	 	 	 	 	 	 	 	 	 	 	 	 	 	 	1581517364	9.90	18.33
12/02/2020 14:22:45	120220	12022020	142245	91.12	12.418778	-57.112132	91.14	0.370	-0.660	1.020	91.06	-2.00	1.40	 	 	 	 	 	 	 	 	 	 	 	 	 	 	 	 	 	 	1581517365	9.55	17.69
12/02/2020 14:22:46	120220	12022020	142246	90.88	12.418777	-57.112092	90.96	-0.020	-0.140	1.250	90.87	-1.50	1.70	 	 	 	 	 	 	 	 	 	 	 	 	 	 	 	 	 	 	1581517366	8.58	15.89
12/02/2020 14:22:47	120220	12022020	142247	90.91	12.418777	-57.112052	91.05	-0.430	-0.050	1.180	90.95	-1.30	1.60	 	 	 	 	 	 	 	 	 	 	 	 	 	 	 	 	 	 	1581517367	8.27	15.32
12/02/2020 14:22:48	120220	12022020	142248	91.11	12.418775	-57.112010	91.24	-0.340	-0.570	1.300	91.13	-1.80	1.70	 	 	 	 	 	 	 	 	 	 	 	 	 	 	 	 	 	 	1581517368	9.07	16.80
12/02/2020 14:22:49	120220	12022020	142249	91.07	12.418772	-57.111963	91.12	0.060	-0.870	1.690	91.02	-2.20	2.10	 	 	 	 	 	 	 	 	 	 	 	 	 	 	 	 	 	 	1581517369	9.68	17.93
12/02/2020 14:22:50	120220	12022020	142250	90.81	12.418767	-57.111920	90.85	0.260	-0.460	1.970	90.75	-1.80	2.40	 	 	 	 	 	 	 	 	 	 	 	 	 	 	 	 	 	 	1581517370	9.32	17.26
12/02/2020 14:22:51	120220	12022020	142251	90.57	12.418765	-57.111880	90.65	0.120	0.210	2.140	90.54	-1.20	2.60	 	 	 	 	 	 	 	 	 	 	 	 	 	 	 	 	 	 	1581517371	8.51	15.76
12/02/2020 14:22:52	120220	12022020	142252	90.51	12.418763	-57.111840	90.65	-0.060	0.340	1.950	90.53	-0.90	2.50	 	 	 	 	 	 	 	 	 	 	 	 	 	 	 	 	 	 	1581517372	8.42	15.59
12/02/2020 14:22:53	120220	12022020	142253	90.68	12.418767	-57.111797	90.81	0.060	-0.200	1.360	90.71	-1.40	1.90	 	 	 	 	 	 	 	 	 	 	 	 	 	 	 	 	 	 	1581517373	9.16	16.96
12/02/2020 14:22:54	120220	12022020	142254	90.75	12.418768	-57.111750	90.85	0.350	-0.570	0.920	90.76	-1.90	1.40	 	 	 	 	 	 	 	 	 	 	 	 	 	 	 	 	 	 	1581517374	9.78	18.11
12/02/2020 14:22:55	120220	12022020	142255	90.86	12.418772	-57.111707	90.97	0.260	-0.120	0.710	90.88	-1.50	1.20	 	 	 	 	 	 	 	 	 	 	 	 	 	 	 	 	 	 	1581517375	9.20	17.04
12/02/2020 14:22:56	120220	12022020	142256	91.00	12.418773	-57.111668	91.10	-0.280	0.410	0.820	91.02	-0.90	1.20	 	 	 	 	 	 	 	 	 	 	 	 	 	 	 	 	 	 	1581517376	8.17	15.13
12/02/2020 14:22:57	120220	12022020	142257	91.01	12.418772	-57.111628	91.06	-0.660	0.080	1.160	90.98	-1.10	1.60	 	 	 	 	 	 	 	 	 	 	 	 	 	 	 	 	 	 	1581517377	8.26	15.30
12/02/2020 14:22:58	120220	12022020	142258	90.82	12.418768	-57.111585	90.84	-0.230	-1.180	1.520	90.76	-2.20	1.90	 	 	 	 	 	 	 	 	 	 	 	 	 	 	 	 	 	 	1581517378	9.46	17.52
12/02/2020 14:22:59	120220	12022020	142259	90.48	12.418763	-57.111535	90.52	0.680	-2.200	1.850	90.43	-3.40	2.30	 	 	 	 	 	 	 	 	 	 	 	 	 	 	 	 	 	 	1581517379	10.55	19.54
12/02/2020 14:23:00	120220	12022020	142300	90.36	12.418762	-57.111487	90.47	1.010	-1.510	1.890	90.37	-3.00	2.30	 	 	 	 	 	 	 	 	 	 	 	 	 	 	 	 	 	 	1581517380	10.16	18.82
12/02/2020 14:23:01	120220	12022020	142301	90.56	12.418763	-57.111448	90.73	0.270	0.760	1.560	90.63	-0.90	2.10	 	 	 	 	 	 	 	 	 	 	 	 	 	 	 	 	 	 	1581517381	8.06	14.93
12/02/2020 14:23:02	120220	12022020	142302	90.90	12.418765	-57.111418	91.02	-0.940	2.530	0.990	90.95	1.10	1.50	1017.40	26.60	26.60	20.50	20.60	575.0	69.0	69.0	436.0	28.2	345.00	14.90	70.00	10.60	47327	11834.0	27.5	27.5	1581517382	6.54	12.11
12/02/2020 14:23:03	120220	12022020	142303	91.03	12.418768	-57.111382	91.10	-1.410	1.830	0.620	91.03	0.80	1.10	 	 	 	 	 	 	 	 	 	 	 	 	 	 	 	 	 	 	1581517383	7.50	13.89
12/02/2020 14:23:04	120220	12022020	142304	91.01	12.418768	-57.111335	91.08	-0.750	-0.660	0.530	91.01	-1.60	1.00	 	 	 	 	 	 	 	 	 	 	 	 	 	 	 	 	 	 	1581517384	10.13	18.76
12/02/2020 14:23:05	120220	12022020	142305	91.11	12.418767	-57.111282	91.19	0.270	-2.380	0.480	91.12	-3.50	0.90	 	 	 	 	 	 	 	 	 	 	 	 	 	 	 	 	 	 	1581517385	11.29	20.91
12/02/2020 14:23:06	120220	12022020	142306	91.07	12.418763	-57.111235	91.09	0.800	-2.110	0.710	91.03	-3.60	1.10	 	 	 	 	 	 	 	 	 	 	 	 	 	 	 	 	 	 	1581517386	9.90	18.33
12/02/2020 14:23:07	120220	12022020	142307	90.75	12.418758	-57.111197	90.72	0.710	-0.620	0.940	90.67	-2.20	1.40	 	 	 	 	 	 	 	 	 	 	 	 	 	 	 	 	 	 	1581517387	8.03	14.87
12/02/2020 14:23:08	120220	12022020	142308	90.44	12.418760	-57.111162	90.48	0.390	0.700	0.670	90.42	-0.80	1.20	 	 	 	 	 	 	 	 	 	 	 	 	 	 	 	 	 	 	1581517388	7.34	13.59
12/02/2020 14:23:09	120220	12022020	142309	90.47	12.418763	-57.111125	90.57	0.050	1.020	0.260	90.50	-0.30	0.80	 	 	 	 	 	 	 	 	 	 	 	 	 	 	 	 	 	 	1581517389	7.97	14.76
12/02/2020 14:23:10	120220	12022020	142310	90.62	12.418767	-57.111082	90.69	-0.220	0.370	0.160	90.64	-0.80	0.60	 	 	 	 	 	 	 	 	 	 	 	 	 	 	 	 	 	 	1581517390	8.96	16.59
12/02/2020 14:23:11	120220	12022020	142311	90.55	12.418767	-57.111037	90.54	-0.360	-0.610	0.470	90.49	-1.80	0.80	 	 	 	 	 	 	 	 	 	 	 	 	 	 	 	 	 	 	1581517391	9.68	17.93
12/02/2020 14:23:12	120220	12022020	142312	90.17	12.418763	-57.110990	90.13	-0.280	-1.130	1.310	90.07	-2.40	1.60	 	 	 	 	 	 	 	 	 	 	 	 	 	 	 	 	 	 	1581517392	9.75	18.06
12/02/2020 14:23:13	120220	12022020	142313	89.70	12.418757	-57.110947	89.71	-0.030	-0.930	2.220	89.63	-2.30	2.50	 	 	 	 	 	 	 	 	 	 	 	 	 	 	 	 	 	 	1581517393	9.25	17.13
12/02/2020 14:23:14	120220	12022020	142314	89.52	12.418752	-57.110907	89.65	0.210	-0.380	2.520	89.54	-1.80	2.90	 	 	 	 	 	 	 	 	 	 	 	 	 	 	 	 	 	 	1581517394	8.71	16.13
12/02/2020 14:23:15	120220	12022020	142315	89.76	12.418752	-57.110865	89.94	0.290	0.050	2.350	89.83	-1.30	2.80	 	 	 	 	 	 	 	 	 	 	 	 	 	 	 	 	 	 	1581517395	8.55	15.83
12/02/2020 14:23:16	120220	12022020	142316	90.01	12.418752	-57.110825	90.09	0.160	0.190	2.120	90.01	-1.10	2.60	 	 	 	 	 	 	 	 	 	 	 	 	 	 	 	 	 	 	1581517396	8.74	16.19
12/02/2020 14:23:17	120220	12022020	142317	89.87	12.418752	-57.110782	89.86	-0.050	-0.040	1.960	89.81	-1.30	2.40	 	 	 	 	 	 	 	 	 	 	 	 	 	 	 	 	 	 	1581517397	9.01	16.69
12/02/2020 14:23:18	120220	12022020	142318	89.53	12.418752	-57.110738	89.53	-0.150	-0.430	1.870	89.47	-1.70	2.30	 	 	 	 	 	 	 	 	 	 	 	 	 	 	 	 	 	 	1581517398	9.34	17.30
12/02/2020 14:23:19	120220	12022020	142319	89.22	12.418753	-57.110693	89.23	-0.060	-0.470	1.690	89.18	-1.80	2.20	 	 	 	 	 	 	 	 	 	 	 	 	 	 	 	 	 	 	1581517399	9.36	17.33
12/02/2020 14:23:20	120220	12022020	142320	89.09	12.418757	-57.110652	89.18	0.060	-0.140	1.030	89.12	-1.50	1.60	 	 	 	 	 	 	 	 	 	 	 	 	 	 	 	 	 	 	1581517400	8.94	16.56
12/02/2020 14:23:21	120220	12022020	142321	89.35	12.418762	-57.110610	89.50	0.020	0.090	0.330	89.43	-1.20	0.90	 	 	 	 	 	 	 	 	 	 	 	 	 	 	 	 	 	 	1581517401	8.71	16.13
12/02/2020 14:23:22	120220	12022020	142322	89.77	12.418765	-57.110568	89.89	-0.130	-0.110	0.200	89.84	-1.40	0.60	 	 	 	 	 	 	 	 	 	 	 	 	 	 	 	 	 	 	1581517402	8.79	16.28
12/02/2020 14:23:23	120220	12022020	142323	89.97	12.418763	-57.110525	90.02	-0.140	-0.570	0.530	89.97	-1.80	0.90	 	 	 	 	 	 	 	 	 	 	 	 	 	 	 	 	 	 	1581517403	9.27	17.17
12/02/2020 14:23:24	120220	12022020	142324	89.84	12.418760	-57.110480	89.83	0.070	-0.790	1.240	89.78	-2.10	1.60	 	 	 	 	 	 	 	 	 	 	 	 	 	 	 	 	 	 	1581517404	9.49	17.58
12/02/2020 14:23:25	120220	12022020	142325	89.52	12.418757	-57.110437	89.56	0.260	-0.530	2.020	89.48	-1.90	2.40	 	 	 	 	 	 	 	 	 	 	 	 	 	 	 	 	 	 	1581517405	9.20	17.04
12/02/2020 14:23:26	120220	12022020	142326	89.51	12.418755	-57.110397	89.67	0.230	-0.080	2.160	89.56	-1.40	2.60	 	 	 	 	 	 	 	 	 	 	 	 	 	 	 	 	 	 	1581517406	8.70	16.11
12/02/2020 14:23:27	120220	12022020	142327	89.89	12.418757	-57.110355	90.07	0.170	-0.120	1.740	89.97	-1.40	2.30	 	 	 	 	 	 	 	 	 	 	 	 	 	 	 	 	 	 	1581517407	8.65	16.02
12/02/2020 14:23:28	120220	12022020	142328	90.15	12.418760	-57.110310	90.22	0.320	-0.720	1.490	90.14	-1.90	1.90	 	 	 	 	 	 	 	 	 	 	 	 	 	 	 	 	 	 	1581517408	9.48	17.56
12/02/2020 14:23:29	120220	12022020	142329	89.96	12.418760	-57.110263	89.95	0.460	-1.000	1.610	89.89	-2.30	2.00	 	 	 	 	 	 	 	 	 	 	 	 	 	 	 	 	 	 	1581517409	10.07	18.65
12/02/2020 14:23:30	120220	12022020	142330	89.68	12.418758	-57.110218	89.75	0.130	-0.120	1.520	89.66	-1.60	2.00	 	 	 	 	 	 	 	 	 	 	 	 	 	 	 	 	 	 	1581517410	9.44	17.48
12/02/2020 14:23:31	120220	12022020	142331	89.76	12.418762	-57.110180	89.93	-0.700	1.340	1.130	89.82	-0.10	1.70	 	 	 	 	 	 	 	 	 	 	 	 	 	 	 	 	 	 	1581517411	7.92	14.67
12/02/2020 14:23:32	120220	12022020	142332	90.18	12.418763	-57.110145	90.36	-1.340	1.640	0.600	90.26	0.40	1.10	 	 	 	 	 	 	 	 	 	 	 	 	 	 	 	 	 	 	1581517412	7.39	13.69
12/02/2020 14:23:33	120220	12022020	142333	90.47	12.418765	-57.110103	90.57	-1.050	0.040	0.260	90.49	-0.90	0.70	 	 	 	 	 	 	 	 	 	 	 	 	 	 	 	 	 	 	1581517413	8.92	16.52
12/02/2020 14:23:34	120220	12022020	142334	90.37	12.418763	-57.110053	90.36	-0.000	-2.080	0.460	90.29	-3.10	0.80	 	 	 	 	 	 	 	 	 	 	 	 	 	 	 	 	 	 	1581517414	10.75	19.91
12/02/2020 14:23:35	120220	12022020	142335	89.83	12.418760	-57.110000	89.78	1.080	-2.920	1.170	89.70	-4.20	1.50	 	 	 	 	 	 	 	 	 	 	 	 	 	 	 	 	 	 	1581517415	11.02	20.41
12/02/2020 14:23:36	120220	12022020	142336	89.40	12.418757	-57.109955	89.49	1.290	-1.490	1.480	89.39	-3.10	1.90	 	 	 	 	 	 	 	 	 	 	 	 	 	 	 	 	 	 	1581517416	9.52	17.63
12/02/2020 14:23:37	120220	12022020	142337	89.56	12.418758	-57.109922	89.76	0.460	1.030	1.200	89.64	-0.60	1.70	 	 	 	 	 	 	 	 	 	 	 	 	 	 	 	 	 	 	1581517417	7.26	13.45
12/02/2020 14:23:38	120220	12022020	142338	90.03	12.418760	-57.109890	90.22	-0.620	2.390	0.700	90.11	1.00	1.20	 	 	 	 	 	 	 	 	 	 	 	 	 	 	 	 	 	 	1581517418	6.60	12.22
12/02/2020 14:23:39	120220	12022020	142339	90.34	12.418763	-57.109852	90.45	-0.950	1.440	0.500	90.36	0.40	0.90	 	 	 	 	 	 	 	 	 	 	 	 	 	 	 	 	 	 	1581517419	8.15	15.09
12/02/2020 14:23:40	120220	12022020	142340	90.29	12.418760	-57.109803	90.31	-0.380	-0.730	0.760	90.23	-1.70	1.10	 	 	 	 	 	 	 	 	 	 	 	 	 	 	 	 	 	 	1581517420	10.40	19.26
12/02/2020 14:23:41	120220	12022020	142341	89.81	12.418757	-57.109752	89.76	0.320	-1.930	1.360	89.68	-3.10	1.70	 	 	 	 	 	 	 	 	 	 	 	 	 	 	 	 	 	 	1581517421	10.92	20.22
12/02/2020 14:23:42	120220	12022020	142342	89.19	12.418755	-57.109707	89.19	0.540	-1.550	1.790	89.09	-3.00	2.20	 	 	 	 	 	 	 	 	 	 	 	 	 	 	 	 	 	 	1581517422	9.49	17.58
12/02/2020 14:23:43	120220	12022020	142343	88.93	12.418757	-57.109668	89.09	0.220	-0.510	1.690	88.96	-1.90	2.20	 	 	 	 	 	 	 	 	 	 	 	 	 	 	 	 	 	 	1581517423	8.19	15.17
12/02/2020 14:23:44	120220	12022020	142344	89.20	12.418758	-57.109630	89.39	-0.200	0.060	1.520	89.26	-1.30	2.00	 	 	 	 	 	 	 	 	 	 	 	 	 	 	 	 	 	 	1581517424	8.05	14.91
12/02/2020 14:23:45	120220	12022020	142345	89.36	12.418757	-57.109588	89.45	-0.340	0.060	1.690	89.35	-1.20	2.10	 	 	 	 	 	 	 	 	 	 	 	 	 	 	 	 	 	 	1581517425	8.85	16.39
12/02/2020 14:23:46	120220	12022020	142346	89.21	12.418755	-57.109543	89.30	-0.290	0.230	1.920	89.19	-1.10	2.30	 	 	 	 	 	 	 	 	 	 	 	 	 	 	 	 	 	 	1581517426	9.30	17.22
12/02/2020 14:23:47	120220	12022020	142347	89.21	12.418752	-57.109502	89.36	-0.330	0.630	2.140	89.23	-0.70	2.50	 	 	 	 	 	 	 	 	 	 	 	 	 	 	 	 	 	 	1581517427	8.76	16.22
12/02/2020 14:23:48	120220	12022020	142348	89.37	12.418750	-57.109462	89.54	-0.310	0.300	2.250	89.41	-0.90	2.70	 	 	 	 	 	 	 	 	 	 	 	 	 	 	 	 	 	 	1581517428	8.45	15.65
12/02/2020 14:23:49	120220	12022020	142349	89.43	12.418750	-57.109417	89.52	0.160	-1.110	2.150	89.40	-2.20	2.60	 	 	 	 	 	 	 	 	 	 	 	 	 	 	 	 	 	 	1581517429	9.51	17.61
12/02/2020 14:23:50	120220	12022020	142350	89.12	12.418752	-57.109367	89.14	0.820	-1.990	2.050	89.04	-3.30	2.50	 	 	 	 	 	 	 	 	 	 	 	 	 	 	 	 	 	 	1581517430	10.63	19.69
12/02/2020 14:23:51	120220	12022020	142351	88.77	12.418755	-57.109322	88.86	0.940	-0.940	1.950	88.74	-2.50	2.40	 	 	 	 	 	 	 	 	 	 	 	 	 	 	 	 	 	 	1581517431	9.52	17.63
12/02/2020 14:23:52	120220	12022020	142352	88.83	12.418758	-57.109287	89.04	0.330	0.800	1.520	88.91	-0.70	2.10	 	 	 	 	 	 	 	 	 	 	 	 	 	 	 	 	 	 	1581517432	7.63	14.13
12/02/2020 14:23:53	120220	12022020	142353	89.30	12.418763	-57.109252	89.51	-0.540	1.480	0.890	89.40	0.20	1.40	 	 	 	 	 	 	 	 	 	 	 	 	 	 	 	 	 	 	1581517433	7.37	13.65
12/02/2020 14:23:54	120220	12022020	142354	89.66	12.418765	-57.109212	89.78	-0.870	0.440	0.570	89.69	-0.60	1.00	 	 	 	 	 	 	 	 	 	 	 	 	 	 	 	 	 	 	1581517434	8.64	16.00
12/02/2020 14:23:55	120220	12022020	142355	89.65	12.418767	-57.109162	89.72	-0.340	-1.300	0.710	89.63	-3.10	1.30	 	 	 	 	 	 	 	 	 	 	 	 	 	 	 	 	 	 	1581517435	10.36	19.19
12/02/2020 14:23:56	120220	12022020	142356	89.57	12.418763	-57.109112	89.68	0.420	-1.880	1.080	89.57	-3.20	1.50	 	 	 	 	 	 	 	 	 	 	 	 	 	 	 	 	 	 	1581517436	10.60	19.63
12/02/2020 14:23:57	120220	12022020	142357	89.66	12.418762	-57.109068	89.84	0.640	-0.940	1.360	89.71	-2.40	1.80	 	 	 	 	 	 	 	 	 	 	 	 	 	 	 	 	 	 	1581517437	9.19	17.02
12/02/2020 14:23:58	120220	12022020	142358	89.96	12.418760	-57.109032	90.15	0.140	0.460	1.270	90.02	-1.00	1.70	 	 	 	 	 	 	 	 	 	 	 	 	 	 	 	 	 	 	1581517438	7.82	14.48
12/02/2020 14:23:59	120220	12022020	142359	90.18	12.418762	-57.108995	90.28	-0.490	0.920	1.090	90.18	-0.40	1.50	 	 	 	 	 	 	 	 	 	 	 	 	 	 	 	 	 	 	1581517439	7.71	14.28
12/02/2020 14:24:00	120220	12022020	142400	90.04	12.418762	-57.108953	90.07	-0.570	0.170	1.100	89.98	-1.00	1.50	 	 	 	 	 	 	 	 	 	 	 	 	 	 	 	 	 	 	1581517440	8.96	16.59
12/02/2020 14:24:01	120220	12022020	142401	89.72	12.418763	-57.108905	89.75	-0.120	-0.690	1.170	89.65	-1.90	1.60	 	 	 	 	 	 	 	 	 	 	 	 	 	 	 	 	 	 	1581517441	10.00	18.52
12/02/2020 14:24:02	120220	12022020	142402	89.49	12.418765	-57.108858	89.58	0.380	-0.910	1.080	89.48	-2.20	1.60	1017.40	26.60	26.70	20.70	20.70	595.0	70.0	70.0	435.0	28.2	344.00	14.50	66.00	10.10	48308	10393.0	27.5	27.5	1581517442	9.79	18.13
12/02/2020 14:24:03	120220	12022020	142403	89.54	12.418767	-57.108817	89.68	0.570	-0.750	0.850	89.57	-2.10	1.30	 	 	 	 	 	 	 	 	 	 	 	 	 	 	 	 	 	 	1581517443	9.15	16.95
12/02/2020 14:24:04	120220	12022020	142404	89.67	12.418768	-57.108773	89.79	0.410	-0.500	0.800	89.68	-1.80	1.20	 	 	 	 	 	 	 	 	 	 	 	 	 	 	 	 	 	 	1581517444	9.04	16.74
12/02/2020 14:24:05	120220	12022020	142405	89.68	12.418767	-57.108732	89.75	-0.010	0.090	1.040	89.65	-1.30	1.40	 	 	 	 	 	 	 	 	 	 	 	 	 	 	 	 	 	 	1581517445	8.95	16.58
12/02/2020 14:24:06	120220	12022020	142406	89.53	12.418765	-57.108692	89.60	-0.470	0.760	1.440	89.50	-0.60	1.80	 	 	 	 	 	 	 	 	 	 	 	 	 	 	 	 	 	 	1581517446	8.46	15.67
12/02/2020 14:24:07	120220	12022020	142407	89.39	12.418762	-57.108652	89.49	-0.710	0.820	1.820	89.37	-0.40	2.20	 	 	 	 	 	 	 	 	 	 	 	 	 	 	 	 	 	 	1581517447	8.39	15.54
12/02/2020 14:24:08	120220	12022020	142408	89.28	12.418762	-57.108608	89.38	-0.510	-0.040	1.980	89.25	-1.10	2.40	 	 	 	 	 	 	 	 	 	 	 	 	 	 	 	 	 	 	1581517448	9.01	16.69
12/02/2020 14:24:09	120220	12022020	142409	89.19	12.418762	-57.108562	89.31	0.130	-1.350	1.910	89.19	-2.40	2.40	 	 	 	 	 	 	 	 	 	 	 	 	 	 	 	 	 	 	1581517449	9.95	18.43
12/02/2020 14:24:10	120220	12022020	142410	89.15	12.418763	-57.108512	89.26	0.800	-2.140	1.950	89.14	-3.40	2.40	 	 	 	 	 	 	 	 	 	 	 	 	 	 	 	 	 	 	1581517450	10.42	19.30
12/02/2020 14:24:11	120220	12022020	142411	89.05	12.418762	-57.108467	89.17	0.930	-1.580	2.070	89.04	-3.00	2.50	 	 	 	 	 	 	 	 	 	 	 	 	 	 	 	 	 	 	1581517451	9.80	18.15
12/02/2020 14:24:12	120220	12022020	142412	89.07	12.418763	-57.108427	89.21	0.400	0.120	1.810	89.09	-1.50	2.30	 	 	 	 	 	 	 	 	 	 	 	 	 	 	 	 	 	 	1581517452	8.37	15.50
12/02/2020 14:24:13	120220	12022020	142413	89.18	12.418767	-57.108392	89.30	-0.280	1.510	1.350	89.19	0.10	1.90	 	 	 	 	 	 	 	 	 	 	 	 	 	 	 	 	 	 	1581517453	7.45	13.80
12/02/2020 14:24:14	120220	12022020	142414	89.18	12.418770	-57.108353	89.27	-0.500	1.210	1.040	89.17	0.10	1.50	 	 	 	 	 	 	 	 	 	 	 	 	 	 	 	 	 	 	1581517454	8.25	15.28
12/02/2020 14:24:15	120220	12022020	142415	89.11	12.418772	-57.108305	89.22	-0.400	0.000	0.970	89.11	-1.10	1.40	 	 	 	 	 	 	 	 	 	 	 	 	 	 	 	 	 	 	1581517455	9.99	18.50
12/02/2020 14:24:16	120220	12022020	142416	89.17	12.418773	-57.108257	89.31	-0.450	-0.570	0.770	89.20	-1.80	1.30	 	 	 	 	 	 	 	 	 	 	 	 	 	 	 	 	 	 	1581517456	10.13	18.76
12/02/2020 14:24:17	120220	12022020	142417	89.35	12.418775	-57.108215	89.49	-0.540	-0.370	0.560	89.39	-1.70	1.00	 	 	 	 	 	 	 	 	 	 	 	 	 	 	 	 	 	 	1581517457	8.92	16.52
12/02/2020 14:24:18	120220	12022020	142418	89.57	12.418778	-57.108175	89.73	-0.190	-0.660	0.480	89.62	-1.80	0.90	 	 	 	 	 	 	 	 	 	 	 	 	 	 	 	 	 	 	1581517458	8.42	15.59
12/02/2020 14:24:19	120220	12022020	142419	89.84	12.418778	-57.108130	89.99	0.620	-1.600	0.560	89.88	-2.80	1.00	 	 	 	 	 	 	 	 	 	 	 	 	 	 	 	 	 	 	1581517459	9.58	17.74
12/02/2020 14:24:20	120220	12022020	142420	89.92	12.418778	-57.108082	90.01	1.110	-1.660	1.140	89.90	-3.00	1.50	 	 	 	 	 	 	 	 	 	 	 	 	 	 	 	 	 	 	1581517460	10.25	18.98
12/02/2020 14:24:21	120220	12022020	142421	89.74	12.418775	-57.108040	89.79	0.690	-0.180	1.840	89.69	-1.80	2.20	 	 	 	 	 	 	 	 	 	 	 	 	 	 	 	 	 	 	1581517461	8.99	16.65
12/02/2020 14:24:22	120220	12022020	142422	89.47	12.418772	-57.108005	89.54	-0.390	1.550	2.180	89.43	0.10	2.60	 	 	 	 	 	 	 	 	 	 	 	 	 	 	 	 	 	 	1581517462	7.40	13.70
12/02/2020 14:24:23	120220	12022020	142423	89.39	12.418772	-57.107970	89.53	-1.160	1.830	2.000	89.41	0.60	2.50	 	 	 	 	 	 	 	 	 	 	 	 	 	 	 	 	 	 	1581517463	7.44	13.78
12/02/2020 14:24:24	120220	12022020	142424	89.58	12.418775	-57.107927	89.75	-0.970	0.480	1.280	89.63	-0.50	1.90	 	 	 	 	 	 	 	 	 	 	 	 	 	 	 	 	 	 	1581517464	9.06	16.78
12/02/2020 14:24:25	120220	12022020	142425	89.82	12.418782	-57.107877	89.95	-0.020	-1.310	0.510	89.86	-2.40	1.00	 	 	 	 	 	 	 	 	 	 	 	 	 	 	 	 	 	 	1581517465	10.47	19.39
12/02/2020 14:24:26	120220	12022020	142426	89.91	12.418787	-57.107827	89.98	0.850	-2.260	0.370	89.90	-3.50	0.80	 	 	 	 	 	 	 	 	 	 	 	 	 	 	 	 	 	 	1581517466	10.61	19.65
12/02/2020 14:24:27	120220	12022020	142427	89.81	12.418787	-57.107782	89.87	0.920	-1.740	0.850	89.78	-3.20	1.20	 	 	 	 	 	 	 	 	 	 	 	 	 	 	 	 	 	 	1581517467	9.60	17.78
12/02/2020 14:24:28	120220	12022020	142428	89.71	12.418785	-57.107743	89.82	0.270	-0.200	1.280	89.71	-1.70	1.70	 	 	 	 	 	 	 	 	 	 	 	 	 	 	 	 	 	 	1581517468	8.25	15.28
12/02/2020 14:24:29	120220	12022020	142429	89.75	12.418783	-57.107708	89.89	-0.460	1.330	1.300	89.78	-0.10	1.80	 	 	 	 	 	 	 	 	 	 	 	 	 	 	 	 	 	 	1581517469	7.41	13.72
12/02/2020 14:24:30	120220	12022020	142430	89.95	12.418785	-57.107672	90.12	-0.700	1.620	1.090	90.01	0.40	1.60	 	 	 	 	 	 	 	 	 	 	 	 	 	 	 	 	 	 	1581517470	7.67	14.20
12/02/2020 14:24:31	120220	12022020	142431	90.19	12.418787	-57.107628	90.32	-0.290	0.250	0.930	90.21	-0.80	1.40	 	 	 	 	 	 	 	 	 	 	 	 	 	 	 	 	 	 	1581517471	9.11	16.87
12/02/2020 14:24:32	120220	12022020	142432	90.18	12.418788	-57.107578	90.27	0.400	-1.540	1.060	90.17	-2.60	1.50	 	 	 	 	 	 	 	 	 	 	 	 	 	 	 	 	 	 	1581517472	10.71	19.83
12/02/2020 14:24:33	120220	12022020	142433	90.14	12.418788	-57.107528	90.26	0.520	-1.610	1.320	90.14	-3.00	1.70	 	 	 	 	 	 	 	 	 	 	 	 	 	 	 	 	 	 	1581517473	10.43	19.32
12/02/2020 14:24:34	120220	12022020	142434	90.18	12.418787	-57.107490	90.30	-0.060	-0.140	1.500	90.18	-1.70	1.90	 	 	 	 	 	 	 	 	 	 	 	 	 	 	 	 	 	 	1581517474	8.24	15.26
12/02/2020 14:24:35	120220	12022020	142435	90.17	12.418787	-57.107457	90.28	-0.660	0.950	1.510	90.16	-0.40	2.00	 	 	 	 	 	 	 	 	 	 	 	 	 	 	 	 	 	 	1581517475	6.98	12.93
12/02/2020 14:24:36	120220	12022020	142436	90.21	12.418787	-57.107418	90.38	-0.510	0.360	1.280	90.25	-0.80	1.80	 	 	 	 	 	 	 	 	 	 	 	 	 	 	 	 	 	 	1581517476	8.06	14.93
12/02/2020 14:24:37	120220	12022020	142437	90.43	12.418788	-57.107372	90.58	0.220	-0.970	0.960	90.47	-2.10	1.40	 	 	 	 	 	 	 	 	 	 	 	 	 	 	 	 	 	 	1581517477	9.92	18.37
12/02/2020 14:24:38	120220	12022020	142438	90.47	12.418790	-57.107323	90.53	0.700	-1.430	0.850	90.43	-2.70	1.30	 	 	 	 	 	 	 	 	 	 	 	 	 	 	 	 	 	 	1581517478	10.30	19.08
12/02/2020 14:24:39	120220	12022020	142439	90.25	12.418792	-57.107280	90.28	0.480	-0.710	0.990	90.20	-2.20	1.40	 	 	 	 	 	 	 	 	 	 	 	 	 	 	 	 	 	 	1581517479	9.06	16.78
12/02/2020 14:24:40	120220	12022020	142440	90.11	12.418792	-57.107242	90.23	-0.060	0.280	1.000	90.13	-1.10	1.50	 	 	 	 	 	 	 	 	 	 	 	 	 	 	 	 	 	 	1581517480	8.01	14.83
12/02/2020 14:24:41	120220	12022020	142441	90.31	12.418793	-57.107203	90.48	-0.270	0.650	0.770	90.37	-0.70	1.20	 	 	 	 	 	 	 	 	 	 	 	 	 	 	 	 	 	 	1581517481	8.09	14.98
12/02/2020 14:24:42	120220	12022020	142442	90.58	12.418795	-57.107162	90.72	-0.080	0.260	0.590	90.62	-1.00	1.00	 	 	 	 	 	 	 	 	 	 	 	 	 	 	 	 	 	 	1581517482	8.93	16.54
12/02/2020 14:24:43	120220	12022020	142443	90.66	12.418798	-57.107117	90.73	0.080	-0.340	0.570	90.64	-1.80	1.20	 	 	 	 	 	 	 	 	 	 	 	 	 	 	 	 	 	 	1581517483	9.51	17.61
12/02/2020 14:24:44	120220	12022020	142444	90.51	12.418798	-57.107072	90.57	-0.050	-0.460	1.060	90.47	-1.80	1.40	 	 	 	 	 	 	 	 	 	 	 	 	 	 	 	 	 	 	1581517484	9.39	17.39
12/02/2020 14:24:45	120220	12022020	142445	90.35	12.418795	-57.107032	90.46	-0.390	-0.020	1.670	90.34	-1.20	2.20	 	 	 	 	 	 	 	 	 	 	 	 	 	 	 	 	 	 	1581517485	8.62	15.96
12/02/2020 14:24:46	120220	12022020	142446	90.42	12.418792	-57.106993	90.60	-0.490	0.090	1.730	90.47	-1.20	2.20	 	 	 	 	 	 	 	 	 	 	 	 	 	 	 	 	 	 	1581517486	8.19	15.17
12/02/2020 14:24:47	120220	12022020	142447	90.65	12.418792	-57.106952	90.80	-0.030	-0.590	1.470	90.68	-1.80	1.90	 	 	 	 	 	 	 	 	 	 	 	 	 	 	 	 	 	 	1581517487	8.90	16.48
12/02/2020 14:24:48	120220	12022020	142448	90.64	12.418792	-57.106905	90.68	0.620	-1.200	1.300	90.58	-2.40	1.80	 	 	 	 	 	 	 	 	 	 	 	 	 	 	 	 	 	 	1581517488	9.72	18.00
12/02/2020 14:24:49	120220	12022020	142449	90.25	12.418795	-57.106860	90.23	0.960	-1.280	1.280	90.15	-2.60	1.70	 	 	 	 	 	 	 	 	 	 	 	 	 	 	 	 	 	 	1581517489	9.51	17.61
12/02/2020 14:24:50	120220	12022020	142450	89.82	12.418798	-57.106817	89.87	0.830	-1.000	1.270	89.78	-2.40	1.70	 	 	 	 	 	 	 	 	 	 	 	 	 	 	 	 	 	 	1581517490	9.23	17.09
12/02/2020 14:24:51	120220	12022020	142451	89.84	12.418802	-57.106773	90.03	0.240	-0.130	1.060	89.92	-1.60	1.50	 	 	 	 	 	 	 	 	 	 	 	 	 	 	 	 	 	 	1581517491	9.07	16.80
12/02/2020 14:24:52	120220	12022020	142452	90.36	12.418803	-57.106735	90.59	-0.640	1.190	0.650	90.48	-0.30	1.20	 	 	 	 	 	 	 	 	 	 	 	 	 	 	 	 	 	 	1581517492	8.27	15.32
12/02/2020 14:24:53	120220	12022020	142453	90.85	12.418803	-57.106698	91.00	-1.320	1.880	0.490	90.91	0.60	0.90	 	 	 	 	 	 	 	 	 	 	 	 	 	 	 	 	 	 	1581517493	7.68	14.22
12/02/2020 14:24:54	120220	12022020	142454	90.98	12.418802	-57.106658	91.08	-1.220	0.970	0.770	90.98	-0.10	1.10	 	 	 	 	 	 	 	 	 	 	 	 	 	 	 	 	 	 	1581517494	8.45	15.65
12/02/2020 14:24:55	120220	12022020	142455	90.91	12.418800	-57.106610	90.99	-0.310	-1.100	1.200	90.87	-2.10	1.60	 	 	 	 	 	 	 	 	 	 	 	 	 	 	 	 	 	 	1581517495	10.08	18.67
12/02/2020 14:24:56	120220	12022020	142456	90.72	12.418798	-57.106558	90.81	0.730	-2.550	1.690	90.69	-3.70	2.10	 	 	 	 	 	 	 	 	 	 	 	 	 	 	 	 	 	 	1581517496	11.00	20.37
12/02/2020 14:24:57	120220	12022020	142457	90.66	12.418798	-57.106512	90.82	1.040	-1.930	1.830	90.68	-3.40	2.30	 	 	 	 	 	 	 	 	 	 	 	 	 	 	 	 	 	 	1581517497	9.93	18.39
12/02/2020 14:24:58	120220	12022020	142458	90.86	12.418798	-57.106475	91.06	0.590	-0.090	1.720	90.91	-1.70	2.20	 	 	 	 	 	 	 	 	 	 	 	 	 	 	 	 	 	 	1581517498	7.82	14.48
12/02/2020 14:24:59	120220	12022020	142459	91.10	12.418800	-57.106440	91.25	0.190	0.860	1.660	91.12	-0.50	2.10	 	 	 	 	 	 	 	 	 	 	 	 	 	 	 	 	 	 	1581517499	7.28	13.48
12/02/2020 14:25:00	120220	12022020	142500	91.14	12.418800	-57.106398	91.28	0.340	0.350	1.470	91.15	-0.80	2.00	 	 	 	 	 	 	 	 	 	 	 	 	 	 	 	 	 	 	1581517500	8.89	16.46
12/02/2020 14:25:01	120220	12022020	142501	91.34	12.418803	-57.106350	91.55	0.260	0.150	0.980	91.42	-1.20	1.50	 	 	 	 	 	 	 	 	 	 	 	 	 	 	 	 	 	 	1581517501	10.08	18.67
12/02/2020 14:25:02	120220	12022020	142502	91.84	12.418807	-57.106308	92.08	-0.510	0.790	0.530	91.96	-0.60	1.00	1017.40	26.60	26.60	20.80	20.80	597.0	70.0	70.0	434.0	28.2	345.00	14.40	68.00	10.00	48581	11152.0	27.5	27.5	1581517502	8.85	16.39
12/02/2020 14:25:03	120220	12022020	142503	92.28	12.418808	-57.106272	92.42	-1.370	0.750	0.380	92.32	-0.40	0.80	 	 	 	 	 	 	 	 	 	 	 	 	 	 	 	 	 	 	1581517503	7.72	14.30
12/02/2020 14:25:04	120220	12022020	142504	92.32	12.418805	-57.106230	92.38	-1.130	-1.060	0.590	92.28	-2.00	1.00	 	 	 	 	 	 	 	 	 	 	 	 	 	 	 	 	 	 	1581517504	8.91	16.50
12/02/2020 14:25:05	120220	12022020	142505	91.99	12.418800	-57.106178	92.00	0.250	-2.920	1.030	91.90	-4.00	1.40	 	 	 	 	 	 	 	 	 	 	 	 	 	 	 	 	 	 	1581517505	11.04	20.45
12/02/2020 14:25:06	120220	12022020	142506	91.63	12.418795	-57.106128	91.71	1.350	-2.280	1.170	91.60	-3.80	1.60	 	 	 	 	 	 	 	 	 	 	 	 	 	 	 	 	 	 	1581517506	10.56	19.56
12/02/2020 14:25:07	120220	12022020	142507	91.70	12.418795	-57.106092	91.88	1.090	0.290	0.970	91.76	0.20	1.30	 	 	 	 	 	 	 	 	 	 	 	 	 	 	 	 	 	 	1581517507	7.76	14.37
12/02/2020 14:25:08	120220	12022020	142508	92.11	12.418798	-57.106063	92.30	-0.100	2.190	0.630	92.20	0.70	1.10	 	 	 	 	 	 	 	 	 	 	 	 	 	 	 	 	 	 	1581517508	6.26	11.59
12/02/2020 14:25:09	120220	12022020	142509	92.49	12.418798	-57.106028	92.64	-0.980	1.890	0.360	92.54	0.80	0.80	 	 	 	 	 	 	 	 	 	 	 	 	 	 	 	 	 	 	1581517509	7.42	13.74
12/02/2020 14:25:10	120220	12022020	142510	92.60	12.418798	-57.105982	92.67	-0.810	0.060	0.440	92.59	-0.90	0.90	 	 	 	 	 	 	 	 	 	 	 	 	 	 	 	 	 	 	1581517510	9.53	17.65
12/02/2020 14:25:11	120220	12022020	142511	92.41	12.418795	-57.105932	92.43	0.080	-1.560	0.820	92.35	-2.70	1.20	 	 	 	 	 	 	 	 	 	 	 	 	 	 	 	 	 	 	1581517511	10.59	19.61
12/02/2020 14:25:12	120220	12022020	142512	92.08	12.418792	-57.105885	92.11	0.780	-1.890	1.280	92.02	-3.20	1.70	 	 	 	 	 	 	 	 	 	 	 	 	 	 	 	 	 	 	1581517512	9.97	18.46
12/02/2020 14:25:13	120220	12022020	142513	91.84	12.418790	-57.105845	91.92	0.660	-1.020	1.640	91.81	-2.50	2.00	 	 	 	 	 	 	 	 	 	 	 	 	 	 	 	 	 	 	1581517513	8.66	16.04
12/02/2020 14:25:14	120220	12022020	142514	91.79	12.418787	-57.105808	91.90	-0.090	0.330	1.920	91.79	-1.20	2.30	 	 	 	 	 	 	 	 	 	 	 	 	 	 	 	 	 	 	1581517514	7.67	14.20
12/02/2020 14:25:15	120220	12022020	142515	91.84	12.418783	-57.105773	91.95	-0.760	1.090	2.040	91.84	-0.20	2.50	 	 	 	 	 	 	 	 	 	 	 	 	 	 	 	 	 	 	1581517515	7.39	13.69
12/02/2020 14:25:16	120220	12022020	142516	91.81	12.418780	-57.105733	91.88	-0.580	0.260	1.940	91.78	-0.80	2.40	 	 	 	 	 	 	 	 	 	 	 	 	 	 	 	 	 	 	1581517516	8.38	15.52
12/02/2020 14:25:17	120220	12022020	142517	91.63	12.418778	-57.105687	91.68	0.370	-1.330	1.690	91.58	-2.40	2.20	 	 	 	 	 	 	 	 	 	 	 	 	 	 	 	 	 	 	1581517517	10.18	18.85
12/02/2020 14:25:18	120220	12022020	142518	91.40	12.418778	-57.105637	91.46	0.940	-1.440	1.490	91.37	-2.80	2.00	 	 	 	 	 	 	 	 	 	 	 	 	 	 	 	 	 	 	1581517518	10.57	19.58
12/02/2020 14:25:19	120220	12022020	142519	91.40	12.418780	-57.105597	91.52	0.300	0.250	1.270	91.43	-0.10	1.60	 	 	 	 	 	 	 	 	 	 	 	 	 	 	 	 	 	 	1581517519	8.32	15.41
12/02/2020 14:25:20	120220	12022020	142520	91.68	12.418782	-57.105565	91.85	-0.960	1.760	1.010	91.76	0.30	1.50	 	 	 	 	 	 	 	 	 	 	 	 	 	 	 	 	 	 	1581517520	6.52	12.08
12/02/2020 14:25:21	120220	12022020	142521	92.07	12.418780	-57.105532	92.21	-1.390	1.210	0.860	92.12	0.20	1.30	 	 	 	 	 	 	 	 	 	 	 	 	 	 	 	 	 	 	1581517521	7.10	13.15
12/02/2020 14:25:22	120220	12022020	142522	92.19	12.418775	-57.105487	92.23	-0.140	-1.410	0.840	92.16	-2.30	1.30	 	 	 	 	 	 	 	 	 	 	 	 	 	 	 	 	 	 	1581517522	9.66	17.89
12/02/2020 14:25:23	120220	12022020	142523	91.87	12.418772	-57.105432	91.86	1.480	-2.940	1.060	91.80	-4.20	1.50	 	 	 	 	 	 	 	 	 	 	 	 	 	 	 	 	 	 	1581517523	11.54	21.37
12/02/2020 14:25:24	120220	12022020	142524	91.59	12.418772	-57.105388	91.64	1.600	-1.270	1.200	91.57	-3.00	1.60	 	 	 	 	 	 	 	 	 	 	 	 	 	 	 	 	 	 	1581517524	9.39	17.39
12/02/2020 14:25:25	120220	12022020	142525	91.58	12.418773	-57.105360	91.67	0.110	1.750	1.150	91.60	0.00	1.60	 	 	 	 	 	 	 	 	 	 	 	 	 	 	 	 	 	 	1581517525	6.00	11.11
12/02/2020 14:25:26	120220	12022020	142526	91.76	12.418775	-57.105335	91.88	-1.420	2.850	1.030	91.81	1.60	1.50	 	 	 	 	 	 	 	 	 	 	 	 	 	 	 	 	 	 	1581517526	5.11	9.46
12/02/2020 14:25:27	120220	12022020	142527	91.97	12.418775	-57.105298	92.08	-1.310	0.560	0.960	92.00	-0.20	1.40	 	 	 	 	 	 	 	 	 	 	 	 	 	 	 	 	 	 	1581517527	7.78	14.41
12/02/2020 14:25:28	120220	12022020	142528	91.98	12.418772	-57.105247	92.00	0.090	-2.510	1.200	91.93	-3.40	1.60	 	 	 	 	 	 	 	 	 	 	 	 	 	 	 	 	 	 	1581517528	11.07	20.50
12/02/2020 14:25:29	120220	12022020	142529	91.62	12.418767	-57.105195	91.60	1.060	-2.970	1.760	91.53	-4.40	2.10	 	 	 	 	 	 	 	 	 	 	 	 	 	 	 	 	 	 	1581517529	10.89	20.17
12/02/2020 14:25:30	120220	12022020	142530	91.24	12.418760	-57.105158	91.28	0.680	-0.690	2.220	91.19	-2.40	2.60	 	 	 	 	 	 	 	 	 	 	 	 	 	 	 	 	 	 	1581517530	7.74	14.33
12/02/2020 14:25:31	120220	12022020	142531	91.15	12.418757	-57.105133	91.28	-0.490	1.940	2.110	91.18	0.40	2.60	 	 	 	 	 	 	 	 	 	 	 	 	 	 	 	 	 	 	1581517531	5.26	9.74
12/02/2020 14:25:32	120220	12022020	142532	91.39	12.418758	-57.105108	91.53	-1.150	2.390	1.350	91.46	1.20	1.90	 	 	 	 	 	 	 	 	 	 	 	 	 	 	 	 	 	 	1581517532	5.57	10.32
12/02/2020 14:25:33	120220	12022020	142533	91.63	12.418762	-57.105070	91.69	-0.650	0.460	0.360	91.64	-2.10	0.50	 	 	 	 	 	 	 	 	 	 	 	 	 	 	 	 	 	 	1581517533	8.13	15.06
12/02/2020 14:25:34	120220	12022020	142534	91.55	12.418765	-57.105022	91.52	0.530	-1.860	-0.220	91.50	-2.90	0.30	 	 	 	 	 	 	 	 	 	 	 	 	 	 	 	 	 	 	1581517534	10.23	18.95
12/02/2020 14:25:35	120220	12022020	142535	91.29	12.418767	-57.104975	91.26	1.270	-2.300	-0.270	91.25	-3.00	0.30	 	 	 	 	 	 	 	 	 	 	 	 	 	 	 	 	 	 	1581517535	9.92	18.37
12/02/2020 14:25:36	120220	12022020	142536	91.13	12.418767	-57.104938	91.16	0.900	-0.760	0.100	91.13	-2.30	0.50	 	 	 	 	 	 	 	 	 	 	 	 	 	 	 	 	 	 	1581517536	7.66	14.19
12/02/2020 14:25:37	120220	12022020	142537	91.21	12.418767	-57.104910	91.28	-0.120	0.940	0.620	91.25	-0.50	1.00	 	 	 	 	 	 	 	 	 	 	 	 	 	 	 	 	 	 	1581517537	6.01	11.13
12/02/2020 14:25:38	120220	12022020	142538	91.30	12.418763	-57.104880	91.32	-0.800	1.160	1.320	91.28	-0.10	1.60	 	 	 	 	 	 	 	 	 	 	 	 	 	 	 	 	 	 	1581517538	6.45	11.95
12/02/2020 14:25:39	120220	12022020	142539	91.03	12.418757	-57.104840	91.00	-0.640	-0.040	2.340	90.93	-1.10	2.60	 	 	 	 	 	 	 	 	 	 	 	 	 	 	 	 	 	 	1581517539	8.32	15.41
12/02/2020 14:25:40	120220	12022020	142540	90.57	12.418748	-57.104795	90.58	-0.030	-1.210	3.290	90.50	-2.40	3.60	 	 	 	 	 	 	 	 	 	 	 	 	 	 	 	 	 	 	1581517540	9.59	17.76
12/02/2020 14:25:41	120220	12022020	142541	90.31	12.418743	-57.104753	90.38	0.360	-1.220	3.620	90.29	-2.60	4.00	 	 	 	 	 	 	 	 	 	 	 	 	 	 	 	 	 	 	1581517541	9.07	16.80
12/02/2020 14:25:42	120220	12022020	142542	90.27	12.418740	-57.104717	90.38	0.370	-0.420	3.280	90.28	-1.80	3.80	 	 	 	 	 	 	 	 	 	 	 	 	 	 	 	 	 	 	1581517542	7.71	14.28
12/02/2020 14:25:43	120220	12022020	142543	90.40	12.418742	-57.104683	90.51	0.270	0.160	2.460	90.43	-1.20	3.00	 	 	 	 	 	 	 	 	 	 	 	 	 	 	 	 	 	 	1581517543	7.26	13.45
12/02/2020 14:25:44	120220	12022020	142544	90.55	12.418747	-57.104645	90.61	0.270	0.190	1.540	90.57	-1.10	2.10	 	 	 	 	 	 	 	 	 	 	 	 	 	 	 	 	 	 	1581517544	7.88	14.59
12/02/2020 14:25:45	120220	12022020	142545	90.50	12.418752	-57.104607	90.49	0.230	0.120	0.860	90.46	-1.20	1.40	 	 	 	 	 	 	 	 	 	 	 	 	 	 	 	 	 	 	1581517545	8.37	15.50
12/02/2020 14:25:46	120220	12022020	142546	90.25	12.418755	-57.104568	90.21	-0.000	0.250	0.390	90.20	-1.10	0.90	 	 	 	 	 	 	 	 	 	 	 	 	 	 	 	 	 	 	1581517546	8.16	15.11
12/02/2020 14:25:47	120220	12022020	142547	90.06	12.418758	-57.104532	90.08	-0.280	0.240	-0.030	90.06	-1.00	0.50	 	 	 	 	 	 	 	 	 	 	 	 	 	 	 	 	 	 	1581517547	7.76	14.37
12/02/2020 14:25:48	120220	12022020	142548	90.17	12.418763	-57.104493	90.23	-0.280	-0.360	-0.380	90.20	-1.50	0.10	 	 	 	 	 	 	 	 	 	 	 	 	 	 	 	 	 	 	1581517548	8.04	14.89
12/02/2020 14:25:49	120220	12022020	142549	90.31	12.418765	-57.104452	90.33	0.000	-1.210	-0.290	90.31	-2.40	0.10	 	 	 	 	 	 	 	 	 	 	 	 	 	 	 	 	 	 	1581517549	8.75	16.21
12/02/2020 14:25:50	120220	12022020	142550	90.19	12.418762	-57.104410	90.14	0.230	-1.450	0.500	90.13	-2.70	0.80	 	 	 	 	 	 	 	 	 	 	 	 	 	 	 	 	 	 	1581517550	8.95	16.58
12/02/2020 14:25:51	120220	12022020	142551	89.79	12.418753	-57.104370	89.73	0.280	-0.950	1.690	89.69	-2.30	1.90	 	 	 	 	 	 	 	 	 	 	 	 	 	 	 	 	 	 	1581517551	8.43	15.61
12/02/2020 14:25:52	120220	12022020	142552	89.33	12.418747	-57.104333	89.33	0.320	-0.200	2.540	89.26	-1.60	2.90	 	 	 	 	 	 	 	 	 	 	 	 	 	 	 	 	 	 	1581517552	7.96	14.74
12/02/2020 14:25:53	120220	12022020	142553	89.19	12.418745	-57.104297	89.31	0.240	0.450	2.620	89.22	-0.90	3.10	 	 	 	 	 	 	 	 	 	 	 	 	 	 	 	 	 	 	1581517553	7.94	14.70
12/02/2020 14:25:54	120220	12022020	142554	89.47	12.418748	-57.104258	89.64	-0.200	0.930	2.140	89.56	-0.40	2.70	 	 	 	 	 	 	 	 	 	 	 	 	 	 	 	 	 	 	1581517554	7.95	14.72
12/02/2020 14:25:55	120220	12022020	142555	89.86	12.418752	-57.104222	89.97	-0.730	0.980	1.670	89.91	-0.30	2.20	 	 	 	 	 	 	 	 	 	 	 	 	 	 	 	 	 	 	1581517555	7.80	14.45
12/02/2020 14:25:56	120220	12022020	142556	89.91	12.418752	-57.104183	89.91	-0.710	0.190	1.630	89.87	-0.90	2.10	 	 	 	 	 	 	 	 	 	 	 	 	 	 	 	 	 	 	1581517556	8.10	15.00
12/02/2020 14:25:57	120220	12022020	142557	89.61	12.418750	-57.104140	89.56	0.190	-1.270	1.640	89.53	-2.30	2.10	 	 	 	 	 	 	 	 	 	 	 	 	 	 	 	 	 	 	1581517557	9.08	16.82
12/02/2020 14:25:58	120220	12022020	142558	89.25	12.418752	-57.104095	89.25	1.270	-2.210	1.370	89.20	-3.40	1.90	 	 	 	 	 	 	 	 	 	 	 	 	 	 	 	 	 	 	1581517558	9.82	18.19
12/02/2020 14:25:59	120220	12022020	142559	89.25	12.418758	-57.104052	89.41	1.320	-1.330	1.070	89.34	-2.90	1.60	 	 	 	 	 	 	 	 	 	 	 	 	 	 	 	 	 	 	1581517559	9.15	16.95
12/02/2020 14:26:00	120220	12022020	142600	89.85	12.418760	-57.104018	90.09	0.010	0.880	0.990	90.00	-0.80	1.40	 	 	 	 	 	 	 	 	 	 	 	 	 	 	 	 	 	 	1581517560	6.93	12.83
12/02/2020 14:26:01	120220	12022020	142601	90.59	12.418758	-57.103992	90.75	-1.640	2.380	1.250	90.68	1.00	1.60	 	 	 	 	 	 	 	 	 	 	 	 	 	 	 	 	 	 	1581517561	5.68	10.52
12/02/2020 14:26:02	120220	12022020	142602	90.81	12.418752	-57.103960	90.84	-1.980	1.370	1.950	90.79	0.40	2.30	1017.40	26.60	26.70	21.00	21.00	544.0	71.0	71.0	436.0	28.2	342.00	14.00	66.00	10.00	45647	15686.0	27.5	27.5	1581517562	6.95	12.87
12/02/2020 14:26:03	120220	12022020	142603	90.59	12.418743	-57.103915	90.60	-0.590	-1.340	2.410	90.53	-2.20	2.80	 	 	 	 	 	 	 	 	 	 	 	 	 	 	 	 	 	 	1581517563	9.81	18.17
12/02/2020 14:26:04	120220	12022020	142604	90.36	12.418738	-57.103863	90.44	1.040	-2.840	2.480	90.35	-4.00	3.00	 	 	 	 	 	 	 	 	 	 	 	 	 	 	 	 	 	 	1581517564	10.81	20.02
12/02/2020 14:26:05	120220	12022020	142605	90.48	12.418738	-57.103822	90.62	1.440	-1.820	1.770	90.54	-3.40	2.40	 	 	 	 	 	 	 	 	 	 	 	 	 	 	 	 	 	 	1581517565	8.91	16.50
12/02/2020 14:26:06	120220	12022020	142606	90.78	12.418745	-57.103792	90.88	0.560	0.530	0.550	90.82	-1.10	1.20	 	 	 	 	 	 	 	 	 	 	 	 	 	 	 	 	 	 	1581517566	6.48	12.00
12/02/2020 14:26:07	120220	12022020	142607	90.90	12.418753	-57.103765	90.90	-0.480	1.890	-0.340	90.88	0.50	0.20	 	 	 	 	 	 	 	 	 	 	 	 	 	 	 	 	 	 	1581517567	5.86	10.85
12/02/2020 14:26:08	120220	12022020	142608	90.78	12.418758	-57.103730	90.75	-0.710	1.040	-0.580	90.74	0.00	-0.10	 	 	 	 	 	 	 	 	 	 	 	 	 	 	 	 	 	 	1581517568	7.29	13.50
12/02/2020 14:26:09	120220	12022020	142609	90.62	12.418758	-57.103685	90.63	-0.200	-0.820	-0.460	90.60	-1.90	-0.00	 	 	 	 	 	 	 	 	 	 	 	 	 	 	 	 	 	 	1581517569	9.48	17.56
12/02/2020 14:26:10	120220	12022020	142610	90.61	12.418757	-57.103640	90.67	0.230	-1.550	-0.030	90.62	-2.80	0.30	 	 	 	 	 	 	 	 	 	 	 	 	 	 	 	 	 	 	1581517570	9.84	18.22
12/02/2020 14:26:11	120220	12022020	142611	90.71	12.418750	-57.103602	90.79	0.030	-0.620	0.640	90.74	-1.20	1.40	 	 	 	 	 	 	 	 	 	 	 	 	 	 	 	 	 	 	1581517571	8.15	15.09
12/02/2020 14:26:12	120220	12022020	142612	90.76	12.418743	-57.103570	90.79	-0.460	0.550	1.250	90.74	-0.80	1.60	 	 	 	 	 	 	 	 	 	 	 	 	 	 	 	 	 	 	1581517572	6.67	12.35
12/02/2020 14:26:13	120220	12022020	142613	90.51	12.418738	-57.103538	90.49	-0.510	0.560	1.830	90.43	-0.60	2.20	 	 	 	 	 	 	 	 	 	 	 	 	 	 	 	 	 	 	1581517573	6.98	12.93
12/02/2020 14:26:14	120220	12022020	142614	90.02	12.418733	-57.103498	90.00	-0.050	-0.160	2.410	89.93	-1.30	2.80	 	 	 	 	 	 	 	 	 	 	 	 	 	 	 	 	 	 	1581517574	8.33	15.43
12/02/2020 14:26:15	120220	12022020	142615	89.59	12.418732	-57.103458	89.63	0.390	-0.680	2.640	89.54	-1.90	3.10	 	 	 	 	 	 	 	 	 	 	 	 	 	 	 	 	 	 	1581517575	8.69	16.09
12/02/2020 14:26:16	120220	12022020	142616	89.43	12.418732	-57.103418	89.49	0.490	-0.850	2.350	89.41	-2.10	2.90	 	 	 	 	 	 	 	 	 	 	 	 	 	 	 	 	 	 	1581517576	8.31	15.39
12/02/2020 14:26:17	120220	12022020	142617	89.31	12.418735	-57.103380	89.37	0.400	-0.810	1.990	89.29	-2.10	2.50	 	 	 	 	 	 	 	 	 	 	 	 	 	 	 	 	 	 	1581517577	8.15	15.09
12/02/2020 14:26:18	120220	12022020	142618	89.23	12.418737	-57.103342	89.30	0.180	-0.430	1.740	89.23	-1.80	2.20	 	 	 	 	 	 	 	 	 	 	 	 	 	 	 	 	 	 	1581517578	8.09	14.98
12/02/2020 14:26:19	120220	12022020	142619	89.20	12.418737	-57.103305	89.26	-0.090	0.130	1.620	89.19	-1.20	2.10	 	 	 	 	 	 	 	 	 	 	 	 	 	 	 	 	 	 	1581517579	7.72	14.30
12/02/2020 14:26:20	120220	12022020	142620	89.10	12.418737	-57.103268	89.13	-0.230	0.330	1.670	89.07	-0.90	2.10	 	 	 	 	 	 	 	 	 	 	 	 	 	 	 	 	 	 	1581517580	7.66	14.19
12/02/2020 14:26:21	120220	12022020	142621	88.86	12.418735	-57.103230	88.84	-0.130	-0.010	1.780	88.79	-1.20	2.20	 	 	 	 	 	 	 	 	 	 	 	 	 	 	 	 	 	 	1581517581	8.21	15.20
12/02/2020 14:26:22	120220	12022020	142622	88.47	12.418735	-57.103190	88.46	0.030	-0.390	1.760	88.40	-1.60	2.20	 	 	 	 	 	 	 	 	 	 	 	 	 	 	 	 	 	 	1581517582	8.62	15.96
12/02/2020 14:26:23	120220	12022020	142623	88.24	12.418737	-57.103150	88.32	0.100	-0.440	1.500	88.25	-1.70	2.00	 	 	 	 	 	 	 	 	 	 	 	 	 	 	 	 	 	 	1581517583	8.47	15.69
12/02/2020 14:26:24	120220	12022020	142624	88.42	12.418740	-57.103112	88.57	-0.040	-0.190	1.190	88.49	-1.50	1.70	 	 	 	 	 	 	 	 	 	 	 	 	 	 	 	 	 	 	1581517584	8.13	15.06
12/02/2020 14:26:25	120220	12022020	142625	88.69	12.418742	-57.103073	88.77	-0.270	-0.030	1.150	88.70	-1.30	1.60	 	 	 	 	 	 	 	 	 	 	 	 	 	 	 	 	 	 	1581517585	7.78	14.41
12/02/2020 14:26:26	120220	12022020	142626	88.63	12.418740	-57.103037	88.65	-0.220	-0.280	1.500	88.59	-1.50	1.90	 	 	 	 	 	 	 	 	 	 	 	 	 	 	 	 	 	 	1581517586	8.06	14.93
12/02/2020 14:26:27	120220	12022020	142627	88.42	12.418738	-57.102995	88.46	0.210	-0.660	1.850	88.39	-1.90	2.30	 	 	 	 	 	 	 	 	 	 	 	 	 	 	 	 	 	 	1581517587	8.65	16.02
12/02/2020 14:26:28	120220	12022020	142628	88.30	12.418738	-57.102953	88.39	0.560	-0.590	1.920	88.30	-1.90	2.40	 	 	 	 	 	 	 	 	 	 	 	 	 	 	 	 	 	 	1581517588	8.71	16.13
12/02/2020 14:26:29	120220	12022020	142629	88.40	12.418740	-57.102917	88.53	0.270	0.060	1.590	88.45	-1.30	2.10	 	 	 	 	 	 	 	 	 	 	 	 	 	 	 	 	 	 	1581517589	8.07	14.95
12/02/2020 14:26:30	120220	12022020	142630	88.63	12.418745	-57.102882	88.77	-0.480	0.600	1.430	88.68	-0.70	1.90	 	 	 	 	 	 	 	 	 	 	 	 	 	 	 	 	 	 	1581517590	7.36	13.63
12/02/2020 14:26:31	120220	12022020	142631	88.81	12.418745	-57.102845	88.88	-0.860	0.260	1.510	88.81	-0.90	1.90	 	 	 	 	 	 	 	 	 	 	 	 	 	 	 	 	 	 	1581517591	7.60	14.08
12/02/2020 14:26:32	120220	12022020	142632	88.76	12.418743	-57.102803	88.78	-0.400	-0.790	1.570	88.73	-1.90	2.00	 	 	 	 	 	 	 	 	 	 	 	 	 	 	 	 	 	 	1581517592	8.71	16.13
12/02/2020 14:26:33	120220	12022020	142633	88.56	12.418743	-57.102760	88.60	0.500	-1.610	1.660	88.53	-2.80	2.10	 	 	 	 	 	 	 	 	 	 	 	 	 	 	 	 	 	 	1581517593	9.45	17.50
12/02/2020 14:26:34	120220	12022020	142634	88.50	12.418743	-57.102717	88.59	1.070	-1.410	1.560	88.51	-2.80	2.00	 	 	 	 	 	 	 	 	 	 	 	 	 	 	 	 	 	 	1581517594	9.14	16.93
12/02/2020 14:26:35	120220	12022020	142635	88.63	12.418747	-57.102678	88.74	0.840	-0.240	1.000	88.67	-1.70	1.50	 	 	 	 	 	 	 	 	 	 	 	 	 	 	 	 	 	 	1581517595	8.03	14.87
12/02/2020 14:26:36	120220	12022020	142636	88.74	12.418753	-57.102645	88.80	0.070	0.920	0.550	88.74	-0.50	1.00	 	 	 	 	 	 	 	 	 	 	 	 	 	 	 	 	 	 	1581517596	7.25	13.43
12/02/2020 14:26:37	120220	12022020	142637	88.74	12.418757	-57.102610	88.81	-0.640	1.270	0.490	88.74	0.00	0.90	 	 	 	 	 	 	 	 	 	 	 	 	 	 	 	 	 	 	1581517597	7.46	13.82
12/02/2020 14:26:38	120220	12022020	142638	88.85	12.418757	-57.102572	88.96	-1.010	0.880	0.530	88.89	-0.30	1.00	 	 	 	 	 	 	 	 	 	 	 	 	 	 	 	 	 	 	1581517598	8.16	15.11
12/02/2020 14:26:39	120220	12022020	142639	89.02	12.418757	-57.102530	89.11	-0.940	0.020	0.740	89.03	-1.10	1.10	 	 	 	 	 	 	 	 	 	 	 	 	 	 	 	 	 	 	1581517599	8.58	15.89
12/02/2020 14:26:40	120220	12022020	142640	88.96	12.418755	-57.102488	88.97	-0.510	-0.970	1.130	88.91	-2.10	1.50	 	 	 	 	 	 	 	 	 	 	 	 	 	 	 	 	 	 	1581517600	8.89	16.46
12/02/2020 14:26:41	120220	12022020	142641	88.59	12.418752	-57.102445	88.58	0.210	-1.860	1.680	88.51	-3.00	2.00	 	 	 	 	 	 	 	 	 	 	 	 	 	 	 	 	 	 	1581517601	9.06	16.78
12/02/2020 14:26:42	120220	12022020	142642	88.20	12.418750	-57.102402	88.24	0.910	-2.110	2.170	88.14	-3.40	2.50	 	 	 	 	 	 	 	 	 	 	 	 	 	 	 	 	 	 	1581517602	9.28	17.19
12/02/2020 14:26:43	120220	12022020	142643	88.02	12.418750	-57.102360	88.12	1.070	-1.040	2.160	88.02	-2.50	2.60	 	 	 	 	 	 	 	 	 	 	 	 	 	 	 	 	 	 	1581517603	8.66	16.04
12/02/2020 14:26:44	120220	12022020	142644	88.09	12.418753	-57.102325	88.22	0.590	0.630	1.550	88.13	-0.90	2.10	 	 	 	 	 	 	 	 	 	 	 	 	 	 	 	 	 	 	1581517604	7.41	13.72
12/02/2020 14:26:45	120220	12022020	142645	88.26	12.418760	-57.102292	88.35	-0.130	1.610	0.840	88.28	0.30	1.40	 	 	 	 	 	 	 	 	 	 	 	 	 	 	 	 	 	 	1581517605	7.20	13.33
12/02/2020 14:26:46	120220	12022020	142646	88.32	12.418765	-57.102255	88.38	-0.750	1.530	0.520	88.32	0.30	1.00	 	 	 	 	 	 	 	 	 	 	 	 	 	 	 	 	 	 	1581517606	7.92	14.67
12/02/2020 14:26:47	120220	12022020	142647	88.33	12.418767	-57.102215	88.39	-1.060	0.580	0.450	88.33	-0.50	0.90	 	 	 	 	 	 	 	 	 	 	 	 	 	 	 	 	 	 	1581517607	8.59	15.91
12/02/2020 14:26:48	120220	12022020	142648	88.33	12.418768	-57.102172	88.38	-0.800	-0.920	0.570	88.32	-1.90	1.00	 	 	 	 	 	 	 	 	 	 	 	 	 	 	 	 	 	 	1581517608	9.21	17.06
12/02/2020 14:26:49	120220	12022020	142649	88.15	12.418767	-57.102125	88.14	-0.020	-2.110	1.190	88.08	-3.20	1.50	 	 	 	 	 	 	 	 	 	 	 	 	 	 	 	 	 	 	1581517609	9.70	17.96
12/02/2020 14:26:50	120220	12022020	142650	87.73	12.418765	-57.102080	87.73	0.800	-2.170	1.840	87.65	-3.50	2.20	 	 	 	 	 	 	 	 	 	 	 	 	 	 	 	 	 	 	1581517610	9.40	17.41
12/02/2020 14:26:51	120220	12022020	142651	87.48	12.418765	-57.102042	87.61	1.120	-1.060	1.940	87.50	-2.50	2.40	 	 	 	 	 	 	 	 	 	 	 	 	 	 	 	 	 	 	1581517611	8.39	15.54
12/02/2020 14:26:52	120220	12022020	142652	87.84	12.418770	-57.102005	88.11	0.630	0.660	1.620	87.98	-0.90	2.10	 	 	 	 	 	 	 	 	 	 	 	 	 	 	 	 	 	 	1581517612	7.51	13.91
12/02/2020 14:26:53	120220	12022020	142653	88.56	12.418773	-57.101973	88.77	-0.370	1.830	1.260	88.67	0.50	1.70	 	 	 	 	 	 	 	 	 	 	 	 	 	 	 	 	 	 	1581517613	6.94	12.85
12/02/2020 14:26:54	120220	12022020	142654	88.90	12.418775	-57.101937	88.96	-1.020	1.340	1.180	88.89	0.30	1.60	 	 	 	 	 	 	 	 	 	 	 	 	 	 	 	 	 	 	1581517614	7.58	14.04
12/02/2020 14:26:55	120220	12022020	142655	88.68	12.418775	-57.101893	88.69	-0.730	-0.530	1.530	88.62	-1.50	1.90	 	 	 	 	 	 	 	 	 	 	 	 	 	 	 	 	 	 	1581517615	9.37	17.35
12/02/2020 14:26:56	120220	12022020	142656	88.44	12.418773	-57.101843	88.53	0.030	-1.890	1.740	88.44	-3.00	2.20	 	 	 	 	 	 	 	 	 	 	 	 	 	 	 	 	 	 	1581517616	10.42	19.30
12/02/2020 14:26:57	120220	12022020	142657	88.56	12.418775	-57.101800	88.73	0.520	-1.660	1.440	88.62	-3.10	1.90	 	 	 	 	 	 	 	 	 	 	 	 	 	 	 	 	 	 	1581517617	9.39	17.39
12/02/2020 14:26:58	120220	12022020	142658	88.90	12.418780	-57.101762	89.07	0.480	-0.410	0.990	88.97	-1.90	1.50	 	 	 	 	 	 	 	 	 	 	 	 	 	 	 	 	 	 	1581517618	7.82	14.48
12/02/2020 14:26:59	120220	12022020	142659	89.19	12.418783	-57.101728	89.32	0.220	0.540	0.710	89.24	-0.80	1.20	 	 	 	 	 	 	 	 	 	 	 	 	 	 	 	 	 	 	1581517619	7.26	13.45
12/02/2020 14:27:00	120220	12022020	142700	89.41	12.418788	-57.101692	89.54	0.010	0.580	0.480	89.46	-0.70	1.00	 	 	 	 	 	 	 	 	 	 	 	 	 	 	 	 	 	 	1581517620	7.92	14.67
12/02/2020 14:27:01	120220	12022020	142701	89.60	12.418790	-57.101648	89.68	-0.000	-0.180	0.420	89.62	-1.80	1.00	 	 	 	 	 	 	 	 	 	 	 	 	 	 	 	 	 	 	1581517621	8.91	16.50
12/02/2020 14:27:02	120220	12022020	142702	89.65	12.418790	-57.101603	89.73	-0.030	-0.760	0.790	89.66	-2.00	1.10	1017.40	26.60	26.70	20.80	20.80	543.0	70.0	70.0	437.0	28.2	346.00	13.90	69.00	9.80	45595	17315.0	27.5	27.5	1581517622	9.55	17.69
12/02/2020 14:27:03	120220	12022020	142703	89.75	12.418788	-57.101562	89.89	-0.270	-0.350	1.190	89.80	-1.70	1.60	 	 	 	 	 	 	 	 	 	 	 	 	 	 	 	 	 	 	1581517623	8.92	16.52
12/02/2020 14:27:04	120220	12022020	142704	89.99	12.418787	-57.101525	90.11	-0.520	0.370	1.170	90.02	-1.00	1.60	 	 	 	 	 	 	 	 	 	 	 	 	 	 	 	 	 	 	1581517624	7.72	14.30
12/02/2020 14:27:05	120220	12022020	142705	89.97	12.418787	-57.101488	89.96	-0.280	0.110	1.210	89.90	-1.00	1.60	 	 	 	 	 	 	 	 	 	 	 	 	 	 	 	 	 	 	1581517625	7.80	14.45
12/02/2020 14:27:06	120220	12022020	142706	89.54	12.418787	-57.101445	89.53	0.410	-1.000	1.510	89.46	-2.10	1.90	 	 	 	 	 	 	 	 	 	 	 	 	 	 	 	 	 	 	1581517626	9.25	17.13
12/02/2020 14:27:07	120220	12022020	142707	89.38	12.418790	-57.101397	89.52	0.870	-1.580	1.420	89.42	-2.80	1.90	 	 	 	 	 	 	 	 	 	 	 	 	 	 	 	 	 	 	1581517627	10.01	18.54
12/02/2020 14:27:08	120220	12022020	142708	89.76	12.418793	-57.101355	89.98	0.610	-0.720	1.130	89.87	-2.20	1.60	 	 	 	 	 	 	 	 	 	 	 	 	 	 	 	 	 	 	1581517628	9.07	16.80
12/02/2020 14:27:09	120220	12022020	142709	90.25	12.418795	-57.101320	90.40	-0.210	0.760	1.090	90.31	-0.70	1.50	 	 	 	 	 	 	 	 	 	 	 	 	 	 	 	 	 	 	1581517629	7.50	13.89
12/02/2020 14:27:10	120220	12022020	142710	90.48	12.418793	-57.101285	90.61	-0.990	1.490	1.310	90.52	0.20	1.70	 	 	 	 	 	 	 	 	 	 	 	 	 	 	 	 	 	 	1581517630	7.20	13.33
12/02/2020 14:27:11	120220	12022020	142711	90.68	12.418788	-57.101247	90.80	-1.160	1.020	1.560	90.71	-0.10	2.00	 	 	 	 	 	 	 	 	 	 	 	 	 	 	 	 	 	 	1581517631	8.09	14.98
12/02/2020 14:27:12	120220	12022020	142712	90.73	12.418785	-57.101205	90.77	-0.510	-0.350	1.700	90.69	-1.40	2.10	 	 	 	 	 	 	 	 	 	 	 	 	 	 	 	 	 	 	1581517632	9.13	16.91
12/02/2020 14:27:13	120220	12022020	142713	90.44	12.418783	-57.101157	90.43	0.670	-1.900	1.670	90.36	-3.00	2.10	 	 	 	 	 	 	 	 	 	 	 	 	 	 	 	 	 	 	1581517633	9.94	18.41
12/02/2020 14:27:14	120220	12022020	142714	90.15	12.418787	-57.101110	90.22	1.440	-2.200	1.360	90.13	-3.50	1.90	 	 	 	 	 	 	 	 	 	 	 	 	 	 	 	 	 	 	1581517634	10.09	18.69
12/02/2020 14:27:15	120220	12022020	142715	90.20	12.418792	-57.101068	90.32	1.140	-0.840	0.970	90.24	-1.20	1.30	 	 	 	 	 	 	 	 	 	 	 	 	 	 	 	 	 	 	1581517635	8.64	16.00
12/02/2020 14:27:16	120220	12022020	142716	90.46	12.418797	-57.101035	90.58	0.140	0.770	0.780	90.51	-0.70	1.20	 	 	 	 	 	 	 	 	 	 	 	 	 	 	 	 	 	 	1581517636	7.19	13.32
12/02/2020 14:27:17	120220	12022020	142717	90.69	12.418798	-57.101002	90.80	-0.640	1.270	0.820	90.73	0.00	1.20	 	 	 	 	 	 	 	 	 	 	 	 	 	 	 	 	 	 	1581517637	7.32	13.56
12/02/2020 14:27:18	120220	12022020	142718	90.80	12.418797	-57.100960	90.86	-0.790	0.520	1.080	90.79	-0.60	1.40	 	 	 	 	 	 	 	 	 	 	 	 	 	 	 	 	 	 	1581517638	8.68	16.08
12/02/2020 14:27:19	120220	12022020	142719	90.63	12.418793	-57.100913	90.65	-0.560	-0.540	1.700	90.58	-1.70	2.00	 	 	 	 	 	 	 	 	 	 	 	 	 	 	 	 	 	 	1581517639	9.74	18.04
12/02/2020 14:27:20	120220	12022020	142720	90.35	12.418788	-57.100868	90.40	-0.270	-0.980	2.190	90.31	-2.20	2.60	 	 	 	 	 	 	 	 	 	 	 	 	 	 	 	 	 	 	1581517640	9.64	17.85
12/02/2020 14:27:21	120220	12022020	142721	90.28	12.418785	-57.100827	90.41	-0.020	-0.740	2.150	90.31	-2.10	2.60	 	 	 	 	 	 	 	 	 	 	 	 	 	 	 	 	 	 	1581517641	8.82	16.33
12/02/2020 14:27:22	120220	12022020	142722	90.45	12.418785	-57.100787	90.58	0.220	-0.430	1.770	90.49	-1.80	2.30	 	 	 	 	 	 	 	 	 	 	 	 	 	 	 	 	 	 	1581517642	8.36	15.48
12/02/2020 14:27:23	120220	12022020	142723	90.58	12.418787	-57.100747	90.65	0.250	-0.120	1.450	90.58	-1.50	1.90	 	 	 	 	 	 	 	 	 	 	 	 	 	 	 	 	 	 	1581517643	8.57	15.87
12/02/2020 14:27:24	120220	12022020	142724	90.47	12.418788	-57.100707	90.45	0.050	0.300	1.100	90.41	-1.10	1.60	 	 	 	 	 	 	 	 	 	 	 	 	 	 	 	 	 	 	1581517644	8.40	15.56
12/02/2020 14:27:25	120220	12022020	142725	90.14	12.418792	-57.100668	90.10	0.000	0.300	0.650	90.08	-0.90	1.20	 	 	 	 	 	 	 	 	 	 	 	 	 	 	 	 	 	 	1581517645	8.24	15.26
12/02/2020 14:27:26	120220	12022020	142726	89.90	12.418797	-57.100627	89.91	0.460	-0.630	0.140	89.88	-1.80	0.70	 	 	 	 	 	 	 	 	 	 	 	 	 	 	 	 	 	 	1581517646	9.00	16.67
12/02/2020 14:27:27	120220	12022020	142727	89.90	12.418803	-57.100578	89.99	0.870	-1.440	-0.340	89.94	-2.70	0.20	 	 	 	 	 	 	 	 	 	 	 	 	 	 	 	 	 	 	1581517647	10.11	18.72
12/02/2020 14:27:28	120220	12022020	142728	90.19	12.418808	-57.100535	90.32	0.420	-0.880	-0.200	90.26	-2.30	0.20	 	 	 	 	 	 	 	 	 	 	 	 	 	 	 	 	 	 	1581517648	9.47	17.54
12/02/2020 14:27:29	120220	12022020	142729	90.57	12.418807	-57.100498	90.68	-0.730	0.690	0.730	90.63	-0.90	1.00	 	 	 	 	 	 	 	 	 	 	 	 	 	 	 	 	 	 	1581517649	7.66	14.19
12/02/2020 14:27:30	120220	12022020	142730	90.79	12.418797	-57.100467	90.88	-1.590	1.610	2.000	90.80	0.30	2.30	 	 	 	 	 	 	 	 	 	 	 	 	 	 	 	 	 	 	1581517650	7.07	13.09
12/02/2020 14:27:31	120220	12022020	142731	90.84	12.418787	-57.100428	90.93	-1.300	0.730	3.010	90.85	-0.30	3.30	 	 	 	 	 	 	 	 	 	 	 	 	 	 	 	 	 	 	1581517651	8.20	15.19
12/02/2020 14:27:32	120220	12022020	142732	90.79	12.418780	-57.100382	90.83	0.080	-1.320	3.380	90.75	-2.30	3.80	 	 	 	 	 	 	 	 	 	 	 	 	 	 	 	 	 	 	1581517652	10.01	18.54
12/02/2020 14:27:33	120220	12022020	142733	90.50	12.418778	-57.100330	90.52	1.450	-2.610	3.260	90.44	-3.80	3.80	 	 	 	 	 	 	 	 	 	 	 	 	 	 	 	 	 	 	1581517653	10.84	20.08
12/02/2020 14:27:34	120220	12022020	142734	90.32	12.418783	-57.100285	90.44	1.720	-1.760	2.490	90.35	-3.30	3.10	 	 	 	 	 	 	 	 	 	 	 	 	 	 	 	 	 	 	1581517654	9.75	18.06
12/02/2020 14:27:35	120220	12022020	142735	90.64	12.418793	-57.100250	90.83	0.790	0.530	1.090	90.75	-1.10	1.80	 	 	 	 	 	 	 	 	 	 	 	 	 	 	 	 	 	 	1581517655	7.72	14.30
12/02/2020 14:27:36	120220	12022020	142736	91.21	12.418803	-57.100220	91.36	-0.530	2.140	-0.250	91.32	0.70	0.40	 	 	 	 	 	 	 	 	 	 	 	 	 	 	 	 	 	 	1581517656	6.74	12.48
12/02/2020 14:27:37	120220	12022020	142737	91.69	12.418808	-57.100185	91.79	-1.340	1.870	-0.810	91.76	0.70	-0.30	 	 	 	 	 	 	 	 	 	 	 	 	 	 	 	 	 	 	1581517657	7.52	13.93
12/02/2020 14:27:38	120220	12022020	142738	91.95	12.418807	-57.100142	91.97	-1.270	0.270	-0.790	91.96	-0.80	-0.40	 	 	 	 	 	 	 	 	 	 	 	 	 	 	 	 	 	 	1581517658	9.15	16.95
12/02/2020 14:27:39	120220	12022020	142739	91.87	12.418802	-57.100093	91.81	-0.580	-1.420	-0.260	91.80	-3.30	0.60	 	 	 	 	 	 	 	 	 	 	 	 	 	 	 	 	 	 	1581517659	10.06	18.63
12/02/2020 14:27:40	120220	12022020	142740	91.38	12.418795	-57.100047	91.27	0.230	-2.170	0.570	91.26	-3.50	0.90	 	 	 	 	 	 	 	 	 	 	 	 	 	 	 	 	 	 	1581517660	9.91	18.35
12/02/2020 14:27:41	120220	12022020	142741	90.80	12.418792	-57.100005	90.75	0.720	-1.590	1.020	90.73	-3.00	1.40	 	 	 	 	 	 	 	 	 	 	 	 	 	 	 	 	 	 	1581517661	8.84	16.37
12/02/2020 14:27:42	120220	12022020	142742	90.57	12.418792	-57.099968	90.61	0.830	-0.550	0.950	90.57	-2.00	1.40	 	 	 	 	 	 	 	 	 	 	 	 	 	 	 	 	 	 	1581517662	7.83	14.50
12/02/2020 14:27:43	120220	12022020	142743	90.67	12.418797	-57.099932	90.76	0.650	0.070	0.680	90.70	-1.30	1.20	 	 	 	 	 	 	 	 	 	 	 	 	 	 	 	 	 	 	1581517663	8.07	14.95
12/02/2020 14:27:44	120220	12022020	142744	90.81	12.418800	-57.099890	90.87	0.190	0.470	0.740	90.82	-0.90	1.10	 	 	 	 	 	 	 	 	 	 	 	 	 	 	 	 	 	 	1581517664	8.60	15.93
12/02/2020 14:27:45	120220	12022020	142745	90.87	12.418800	-57.099850	90.97	-0.390	0.730	1.130	90.90	-0.60	1.50	 	 	 	 	 	 	 	 	 	 	 	 	 	 	 	 	 	 	1581517665	8.53	15.80
12/02/2020 14:27:46	120220	12022020	142746	91.05	12.418795	-57.099810	91.17	-0.730	0.540	1.610	91.08	-0.70	2.00	 	 	 	 	 	 	 	 	 	 	 	 	 	 	 	 	 	 	1581517666	8.58	15.89
12/02/2020 14:27:47	120220	12022020	142747	91.12	12.418790	-57.099767	91.16	-0.560	-0.180	2.280	91.08	-1.40	2.60	 	 	 	 	 	 	 	 	 	 	 	 	 	 	 	 	 	 	1581517667	9.06	16.78
12/02/2020 14:27:48	120220	12022020	142748	90.76	12.418783	-57.099723	90.71	-0.090	-0.880	2.850	90.65	-2.10	3.20	 	 	 	 	 	 	 	 	 	 	 	 	 	 	 	 	 	 	1581517668	9.52	17.63
12/02/2020 14:27:49	120220	12022020	142749	90.21	12.418780	-57.099678	90.19	0.290	-0.970	2.780	90.12	-2.30	3.30	 	 	 	 	 	 	 	 	 	 	 	 	 	 	 	 	 	 	1581517669	9.25	17.13
12/02/2020 14:27:50	120220	12022020	142750	89.97	12.418783	-57.099638	90.06	0.390	-0.330	2.030	89.99	-1.70	2.60	 	 	 	 	 	 	 	 	 	 	 	 	 	 	 	 	 	 	1581517670	8.53	15.80
12/02/2020 14:27:51	120220	12022020	142751	90.25	12.418793	-57.099602	90.41	0.250	0.220	0.830	90.34	-1.20	0.70	 	 	 	 	 	 	 	 	 	 	 	 	 	 	 	 	 	 	1581517671	8.12	15.04
12/02/2020 14:27:52	120220	12022020	142752	90.62	12.418802	-57.099562	90.68	0.140	-0.210	-0.050	90.65	-1.40	0.50	 	 	 	 	 	 	 	 	 	 	 	 	 	 	 	 	 	 	1581517672	8.54	15.82
12/02/2020 14:27:53	120220	12022020	142753	90.59	12.418803	-57.099517	90.57	0.360	-1.420	0.100	90.55	-2.60	0.50	 	 	 	 	 	 	 	 	 	 	 	 	 	 	 	 	 	 	1581517673	9.65	17.87
12/02/2020 14:27:54	120220	12022020	142754	90.39	12.418802	-57.099467	90.41	0.710	-1.670	0.640	90.36	-3.10	1.00	 	 	 	 	 	 	 	 	 	 	 	 	 	 	 	 	 	 	1581517674	10.37	19.21
12/02/2020 14:27:55	120220	12022020	142755	90.39	12.418798	-57.099427	90.48	0.370	0.210	1.080	90.41	-1.50	1.50	 	 	 	 	 	 	 	 	 	 	 	 	 	 	 	 	 	 	1581517675	8.80	16.30
12/02/2020 14:27:56	120220	12022020	142756	90.47	12.418797	-57.099395	90.55	-0.750	2.280	1.470	90.48	0.70	1.80	 	 	 	 	 	 	 	 	 	 	 	 	 	 	 	 	 	 	1581517676	6.47	11.98
12/02/2020 14:27:57	120220	12022020	142757	90.40	12.418795	-57.099365	90.45	-1.610	2.090	1.800	90.37	1.00	2.20	 	 	 	 	 	 	 	 	 	 	 	 	 	 	 	 	 	 	1581517677	6.59	12.20
12/02/2020 14:27:58	120220	12022020	142758	90.30	12.418793	-57.099320	90.38	-1.030	-0.750	1.760	90.29	-1.60	2.20	 	 	 	 	 	 	 	 	 	 	 	 	 	 	 	 	 	 	1581517678	9.28	17.19
12/02/2020 14:27:59	120220	12022020	142759	90.36	12.418795	-57.099265	90.47	0.450	-3.280	1.660	90.38	-4.40	2.10	 	 	 	 	 	 	 	 	 	 	 	 	 	 	 	 	 	 	1581517679	11.66	21.59
12/02/2020 14:28:00	120220	12022020	142800	90.48	12.418797	-57.099215	90.61	1.290	-2.880	1.680	90.52	-4.40	2.10	 	 	 	 	 	 	 	 	 	 	 	 	 	 	 	 	 	 	1581517680	10.48	19.41
12/02/2020 14:28:01	120220	12022020	142801	90.63	12.418797	-57.099180	90.74	0.820	-0.320	1.570	90.66	-2.10	2.00	 	 	 	 	 	 	 	 	 	 	 	 	 	 	 	 	 	 	1581517681	7.42	13.74
12/02/2020 14:28:02	120220	12022020	142802	90.79	12.418797	-57.099153	90.91	-0.290	2.020	1.360	90.82	0.40	1.80	1017.40	26.70	26.70	21.20	21.20	572.0	72.0	72.0	437.0	28.2	350.00	14.20	76.00	9.80	47073	11500.0	27.5	27.5	1581517682	5.80	10.74
12/02/2020 14:28:03	120220	12022020	142803	90.97	12.418798	-57.099122	91.09	-0.950	2.430	1.100	91.01	0.50	1.40	 	 	 	 	 	 	 	 	 	 	 	 	 	 	 	 	 	 	1581517683	6.58	12.19
12/02/2020 14:28:04	120220	12022020	142804	91.09	12.418798	-57.099082	91.17	-0.730	0.970	0.730	91.10	-0.10	1.20	 	 	 	 	 	 	 	 	 	 	 	 	 	 	 	 	 	 	1581517684	8.55	15.83
12/02/2020 14:28:05	120220	12022020	142805	91.07	12.418803	-57.099035	91.11	0.060	-1.020	0.190	91.06	-3.10	0.50	 	 	 	 	 	 	 	 	 	 	 	 	 	 	 	 	 	 	1581517685	10.03	18.58
12/02/2020 14:28:06	120220	12022020	142806	90.99	12.418807	-57.098987	91.05	0.820	-2.230	-0.050	90.99	-3.50	0.40	 	 	 	 	 	 	 	 	 	 	 	 	 	 	 	 	 	 	1581517686	10.09	18.69
12/02/2020 14:28:07	120220	12022020	142807	90.99	12.418810	-57.098943	91.07	1.070	-2.190	0.060	91.00	-3.60	0.50	 	 	 	 	 	 	 	 	 	 	 	 	 	 	 	 	 	 	1581517687	9.24	17.11
12/02/2020 14:28:08	120220	12022020	142808	91.02	12.418812	-57.098905	91.09	0.600	-0.890	0.300	91.02	-2.50	0.70	 	 	 	 	 	 	 	 	 	 	 	 	 	 	 	 	 	 	1581517688	8.20	15.19
12/02/2020 14:28:09	120220	12022020	142809	91.01	12.418810	-57.098872	91.08	-0.330	0.960	0.650	91.01	-0.70	1.00	 	 	 	 	 	 	 	 	 	 	 	 	 	 	 	 	 	 	1581517689	7.06	13.08
12/02/2020 14:28:10	120220	12022020	142810	91.09	12.418808	-57.098840	91.25	-1.130	1.980	1.110	91.15	0.60	1.50	 	 	 	 	 	 	 	 	 	 	 	 	 	 	 	 	 	 	1581517690	6.72	12.45
12/02/2020 14:28:11	120220	12022020	142811	91.52	12.418803	-57.098803	91.75	-1.160	1.160	1.240	91.63	0.10	1.70	 	 	 	 	 	 	 	 	 	 	 	 	 	 	 	 	 	 	1581517691	7.77	14.39
12/02/2020 14:28:12	120220	12022020	142812	91.88	12.418802	-57.098757	91.95	-0.310	-0.920	1.320	91.86	-1.90	1.70	 	 	 	 	 	 	 	 	 	 	 	 	 	 	 	 	 	 	1581517692	9.64	17.85
12/02/2020 14:28:13	120220	12022020	142813	91.43	12.418798	-57.098707	91.31	0.750	-2.490	1.900	91.26	-3.70	2.20	 	 	 	 	 	 	 	 	 	 	 	 	 	 	 	 	 	 	1581517693	10.60	19.63
12/02/2020 14:28:14	120220	12022020	142814	90.58	12.418797	-57.098662	90.53	1.130	-2.160	2.440	90.45	-3.70	2.80	 	 	 	 	 	 	 	 	 	 	 	 	 	 	 	 	 	 	1581517694	9.78	18.11
12/02/2020 14:28:15	120220	12022020	142815	90.25	12.418797	-57.098623	90.41	0.570	-0.150	2.160	90.29	-1.80	2.70	 	 	 	 	 	 	 	 	 	 	 	 	 	 	 	 	 	 	1581517695	7.82	14.48
12/02/2020 14:28:16	120220	12022020	142816	90.75	12.418803	-57.098593	91.04	-0.390	1.770	1.110	90.92	0.20	1.70	 	 	 	 	 	 	 	 	 	 	 	 	 	 	 	 	 	 	1581517696	6.48	12.00
12/02/2020 14:28:17	120220	12022020	142817	91.54	12.418808	-57.098562	91.75	-0.960	2.010	0.090	91.66	0.70	0.60	 	 	 	 	 	 	 	 	 	 	 	 	 	 	 	 	 	 	1581517697	7.01	12.98
12/02/2020 14:28:18	120220	12022020	142818	91.97	12.418812	-57.098520	92.04	-0.730	0.700	-0.240	91.99	-0.40	0.20	 	 	 	 	 	 	 	 	 	 	 	 	 	 	 	 	 	 	1581517698	8.61	15.95
12/02/2020 14:28:19	120220	12022020	142819	91.85	12.418810	-57.098475	91.80	0.080	-1.040	0.130	91.76	-2.10	0.50	 	 	 	 	 	 	 	 	 	 	 	 	 	 	 	 	 	 	1581517699	9.73	18.02
12/02/2020 14:28:20	120220	12022020	142820	91.28	12.418807	-57.098428	91.21	0.860	-2.250	0.880	91.14	-3.50	1.20	 	 	 	 	 	 	 	 	 	 	 	 	 	 	 	 	 	 	1581517700	9.93	18.39
12/02/2020 14:28:21	120220	12022020	142821	90.76	12.418805	-57.098383	90.81	1.010	-2.180	1.420	90.72	-3.60	1.80	 	 	 	 	 	 	 	 	 	 	 	 	 	 	 	 	 	 	1581517701	9.41	17.43
12/02/2020 14:28:22	120220	12022020	142822	90.83	12.418805	-57.098345	91.05	0.420	-0.760	1.580	90.92	-2.40	2.00	 	 	 	 	 	 	 	 	 	 	 	 	 	 	 	 	 	 	1581517702	8.20	15.19
12/02/2020 14:28:23	120220	12022020	142823	91.48	12.418805	-57.098312	91.78	-0.400	1.150	1.650	91.64	-0.50	2.00	 	 	 	 	 	 	 	 	 	 	 	 	 	 	 	 	 	 	1581517703	6.91	12.80
12/02/2020 14:28:24	120220	12022020	142824	92.08	12.418802	-57.098280	92.25	-0.810	1.880	1.780	92.14	0.60	2.20	 	 	 	 	 	 	 	 	 	 	 	 	 	 	 	 	 	 	1581517704	6.71	12.43
12/02/2020 14:28:25	120220	12022020	142825	92.18	12.418798	-57.098240	92.25	-0.400	0.550	1.740	92.17	-0.50	2.20	 	 	 	 	 	 	 	 	 	 	 	 	 	 	 	 	 	 	1581517705	8.35	15.46
12/02/2020 14:28:26	120220	12022020	142826	92.16	12.418798	-57.098192	92.29	0.360	-1.360	1.630	92.19	-2.50	2.10	 	 	 	 	 	 	 	 	 	 	 	 	 	 	 	 	 	 	1581517706	10.36	19.19
12/02/2020 14:28:27	120220	12022020	142827	92.32	12.418798	-57.098143	92.47	0.550	-1.540	1.320	92.37	-3.00	1.80	 	 	 	 	 	 	 	 	 	 	 	 	 	 	 	 	 	 	1581517707	10.16	18.82
12/02/2020 14:28:28	120220	12022020	142828	92.52	12.418800	-57.098107	92.60	-0.020	-0.220	0.690	92.54	-1.80	1.20	 	 	 	 	 	 	 	 	 	 	 	 	 	 	 	 	 	 	1581517708	7.90	14.63
12/02/2020 14:28:29	120220	12022020	142829	92.45	12.418803	-57.098075	92.45	-0.530	0.620	0.320	92.40	-0.70	0.80	 	 	 	 	 	 	 	 	 	 	 	 	 	 	 	 	 	 	1581517709	6.80	12.59
12/02/2020 14:28:30	120220	12022020	142830	92.24	12.418803	-57.098037	92.27	-0.260	-0.040	0.250	92.21	-1.20	0.70	 	 	 	 	 	 	 	 	 	 	 	 	 	 	 	 	 	 	1581517710	8.04	14.89
12/02/2020 14:28:31	120220	12022020	142831	92.22	12.418803	-57.097990	92.30	0.410	-0.970	-0.010	92.24	-2.20	0.50	 	 	 	 	 	 	 	 	 	 	 	 	 	 	 	 	 	 	1581517711	9.65	17.87
12/02/2020 14:28:32	120220	12022020	142832	92.36	12.418805	-57.097947	92.44	0.730	-0.880	-0.210	92.40	-2.30	0.20	 	 	 	 	 	 	 	 	 	 	 	 	 	 	 	 	 	 	1581517712	9.43	17.46
12/02/2020 14:28:33	120220	12022020	142833	92.51	12.418805	-57.097908	92.59	0.420	0.290	0.010	92.54	-1.30	0.40	 	 	 	 	 	 	 	 	 	 	 	 	 	 	 	 	 	 	1581517713	8.04	14.89
12/02/2020 14:28:34	120220	12022020	142834	92.62	12.418803	-57.097875	92.69	-0.350	1.250	0.430	92.63	-0.20	0.80	 	 	 	 	 	 	 	 	 	 	 	 	 	 	 	 	 	 	1581517714	6.98	12.93
12/02/2020 14:28:35	120220	12022020	142835	92.58	12.418800	-57.097840	92.59	-0.990	0.830	0.990	92.53	-0.30	1.30	 	 	 	 	 	 	 	 	 	 	 	 	 	 	 	 	 	 	1581517715	7.45	13.80
12/02/2020 14:28:36	120220	12022020	142836	92.22	12.418795	-57.097797	92.16	-0.820	-0.860	1.740	92.11	-1.90	2.00	 	 	 	 	 	 	 	 	 	 	 	 	 	 	 	 	 	 	1581517716	9.03	16.72
12/02/2020 14:28:37	120220	12022020	142837	91.71	12.418788	-57.097750	91.75	0.020	-2.160	2.360	91.66	-3.40	2.70	 	 	 	 	 	 	 	 	 	 	 	 	 	 	 	 	 	 	1581517717	10.22	18.93
12/02/2020 14:28:38	120220	12022020	142838	91.60	12.418785	-57.097705	91.73	0.700	-1.820	2.480	91.63	-3.30	2.90	 	 	 	 	 	 	 	 	 	 	 	 	 	 	 	 	 	 	1581517718	9.42	17.45
12/02/2020 14:28:39	120220	12022020	142839	91.78	12.418783	-57.097668	91.90	0.740	-0.470	2.360	91.81	-2.00	2.80	 	 	 	 	 	 	 	 	 	 	 	 	 	 	 	 	 	 	1581517719	7.83	14.50
12/02/2020 14:28:40	120220	12022020	142840	91.73	12.418782	-57.097633	91.71	0.420	0.590	2.220	91.65	-0.90	2.70	 	 	 	 	 	 	 	 	 	 	 	 	 	 	 	 	 	 	1581517720	7.28	13.48
12/02/2020 14:28:41	120220	12022020	142841	91.26	12.418783	-57.097597	91.21	0.110	0.930	1.900	91.16	-0.40	2.40	 	 	 	 	 	 	 	 	 	 	 	 	 	 	 	 	 	 	1581517721	7.93	14.69
12/02/2020 14:28:42	120220	12022020	142842	90.88	12.418787	-57.097555	90.92	-0.110	0.780	1.260	90.87	-0.50	1.80	 	 	 	 	 	 	 	 	 	 	 	 	 	 	 	 	 	 	1581517722	8.61	15.95
12/02/2020 14:28:43	120220	12022020	142843	91.04	12.418793	-57.097515	91.22	-0.320	0.290	0.520	91.14	-1.00	1.10	 	 	 	 	 	 	 	 	 	 	 	 	 	 	 	 	 	 	1581517723	8.86	16.41
12/02/2020 14:28:44	120220	12022020	142844	91.67	12.418795	-57.097472	91.87	-0.470	-0.420	-0.010	91.79	-1.60	0.50	 	 	 	 	 	 	 	 	 	 	 	 	 	 	 	 	 	 	1581517724	8.89	16.46
12/02/2020 14:28:45	120220	12022020	142845	92.16	12.418793	-57.097430	92.24	-0.320	-1.060	0.020	92.20	-2.30	0.40	 	 	 	 	 	 	 	 	 	 	 	 	 	 	 	 	 	 	1581517725	8.91	16.50
12/02/2020 14:28:46	120220	12022020	142846	92.08	12.418790	-57.097388	92.05	0.260	-1.310	0.760	92.01	-2.60	1.10	 	 	 	 	 	 	 	 	 	 	 	 	 	 	 	 	 	 	1581517726	8.91	16.50
12/02/2020 14:28:47	120220	12022020	142847	91.60	12.418785	-57.097347	91.55	0.750	-0.970	1.680	91.49	-2.40	2.00	 	 	 	 	 	 	 	 	 	 	 	 	 	 	 	 	 	 	1581517727	8.71	16.13
12/02/2020 14:28:48	120220	12022020	142848	91.17	12.418782	-57.097308	91.21	0.600	-0.260	2.290	91.13	-1.70	2.70	 	 	 	 	 	 	 	 	 	 	 	 	 	 	 	 	 	 	1581517728	8.32	15.41
12/02/2020 14:28:49	120220	12022020	142849	91.21	12.418780	-57.097270	91.42	-0.070	0.430	2.410	91.30	-1.00	2.90	 	 	 	 	 	 	 	 	 	 	 	 	 	 	 	 	 	 	1581517729	8.02	14.85
12/02/2020 14:28:50	120220	12022020	142850	91.81	12.418780	-57.097233	92.07	-0.690	0.790	2.070	91.96	-0.60	2.60	 	 	 	 	 	 	 	 	 	 	 	 	 	 	 	 	 	 	1581517730	7.92	14.67
12/02/2020 14:28:51	120220	12022020	142851	92.41	12.418780	-57.097193	92.56	-0.750	0.420	1.500	92.48	-0.80	2.00	 	 	 	 	 	 	 	 	 	 	 	 	 	 	 	 	 	 	1581517731	8.21	15.20
12/02/2020 14:28:52	120220	12022020	142852	92.58	12.418780	-57.097150	92.61	-0.200	-0.710	1.190	92.55	-1.90	1.60	 	 	 	 	 	 	 	 	 	 	 	 	 	 	 	 	 	 	1581517732	9.11	16.87
12/02/2020 14:28:53	120220	12022020	142853	92.31	12.418778	-57.097103	92.26	0.470	-1.700	1.400	92.22	-3.10	1.90	 	 	 	 	 	 	 	 	 	 	 	 	 	 	 	 	 	 	1581517733	9.92	18.37
12/02/2020 14:28:54	120220	12022020	142854	91.87	12.418775	-57.097058	91.85	0.690	-1.500	1.510	91.80	-3.00	2.00	 	 	 	 	 	 	 	 	 	 	 	 	 	 	 	 	 	 	1581517734	9.63	17.83
12/02/2020 14:28:55	120220	12022020	142855	91.73	12.418775	-57.097018	91.80	0.280	-0.050	0.960	91.75	-0.50	1.00	 	 	 	 	 	 	 	 	 	 	 	 	 	 	 	 	 	 	1581517735	8.31	15.39
12/02/2020 14:28:56	120220	12022020	142856	91.95	12.418780	-57.096985	92.04	-0.420	1.560	0.090	92.00	0.00	0.70	 	 	 	 	 	 	 	 	 	 	 	 	 	 	 	 	 	 	1581517736	7.12	13.19
12/02/2020 14:28:57	120220	12022020	142857	92.20	12.418785	-57.096952	92.24	-0.740	1.630	-0.430	92.23	0.40	0.00	 	 	 	 	 	 	 	 	 	 	 	 	 	 	 	 	 	 	1581517737	7.21	13.35
12/02/2020 14:28:58	120220	12022020	142858	92.24	12.418785	-57.096910	92.23	-0.340	-0.110	-0.420	92.22	-1.10	-0.00	 	 	 	 	 	 	 	 	 	 	 	 	 	 	 	 	 	 	1581517738	9.02	16.71
12/02/2020 14:28:59	120220	12022020	142859	92.11	12.418785	-57.096860	92.08	0.300	-1.970	-0.050	92.07	-3.10	0.30	 	 	 	 	 	 	 	 	 	 	 	 	 	 	 	 	 	 	1581517739	10.57	19.58
12/02/2020 14:29:00	120220	12022020	142900	91.87	12.418778	-57.096812	91.85	0.520	-2.130	0.870	91.82	-3.60	1.10	 	 	 	 	 	 	 	 	 	 	 	 	 	 	 	 	 	 	1581517740	10.22	18.93
12/02/2020 14:29:01	120220	12022020	142901	91.61	12.418770	-57.096773	91.61	0.090	-0.470	1.890	91.56	-2.10	2.20	 	 	 	 	 	 	 	 	 	 	 	 	 	 	 	 	 	 	1581517741	8.30	15.37
12/02/2020 14:29:02	120220	12022020	142902	91.35	12.418763	-57.096742	91.35	-0.480	1.230	2.440	91.29	-0.30	2.80	1017.40	26.60	26.60	21.10	21.10	530.0	71.0	71.0	436.0	28.2	348.00	14.30	75.00	10.10	44815	13932.0	27.5	27.5	1581517742	6.74	12.48
12/02/2020 14:29:03	120220	12022020	142903	91.04	12.418760	-57.096708	91.03	-0.530	1.250	2.320	90.98	0.00	2.80	 	 	 	 	 	 	 	 	 	 	 	 	 	 	 	 	 	 	1581517743	7.20	13.33
12/02/2020 14:29:04	120220	12022020	142904	90.80	12.418762	-57.096665	90.82	-0.080	-0.050	1.740	90.78	-1.20	2.30	 	 	 	 	 	 	 	 	 	 	 	 	 	 	 	 	 	 	1581517744	9.09	16.83
12/02/2020 14:29:05	120220	12022020	142905	90.81	12.418767	-57.096617	90.91	0.400	-1.340	1.090	90.85	-2.50	1.60	 	 	 	 	 	 	 	 	 	 	 	 	 	 	 	 	 	 	1581517745	10.12	18.74
12/02/2020 14:29:06	120220	12022020	142906	91.09	12.418772	-57.096572	91.20	0.480	-1.550	0.620	91.15	-2.90	1.10	 	 	 	 	 	 	 	 	 	 	 	 	 	 	 	 	 	 	1581517746	9.73	18.02
12/02/2020 14:29:07	120220	12022020	142907	91.28	12.418772	-57.096532	91.32	0.130	-0.690	0.680	91.29	-2.20	1.10	 	 	 	 	 	 	 	 	 	 	 	 	 	 	 	 	 	 	1581517747	8.46	15.67
12/02/2020 14:29:08	120220	12022020	142908	91.18	12.418768	-57.096497	91.18	-0.270	0.400	1.370	91.14	-1.10	1.70	 	 	 	 	 	 	 	 	 	 	 	 	 	 	 	 	 	 	1581517748	7.62	14.11
12/02/2020 14:29:09	120220	12022020	142909	90.97	12.418762	-57.096460	90.97	-0.290	0.740	2.000	90.92	-0.60	2.40	 	 	 	 	 	 	 	 	 	 	 	 	 	 	 	 	 	 	1581517749	7.75	14.35
12/02/2020 14:29:10	120220	12022020	142910	90.71	12.418758	-57.096418	90.71	0.160	0.040	2.110	90.66	-1.20	2.60	 	 	 	 	 	 	 	 	 	 	 	 	 	 	 	 	 	 	1581517750	8.72	16.15
12/02/2020 14:29:11	120220	12022020	142911	90.51	12.418762	-57.096373	90.54	0.470	-0.710	1.760	90.48	-2.00	2.30	 	 	 	 	 	 	 	 	 	 	 	 	 	 	 	 	 	 	1581517751	9.68	17.93
12/02/2020 14:29:12	120220	12022020	142912	90.50	12.418767	-57.096328	90.60	0.270	-0.750	1.540	90.53	-2.10	2.00	 	 	 	 	 	 	 	 	 	 	 	 	 	 	 	 	 	 	1581517752	9.35	17.32
12/02/2020 14:29:13	120220	12022020	142913	90.71	12.418768	-57.096290	90.86	-0.270	-0.160	1.640	90.77	-1.60	2.00	 	 	 	 	 	 	 	 	 	 	 	 	 	 	 	 	 	 	1581517753	8.41	15.58
12/02/2020 14:29:14	120220	12022020	142914	90.96	12.418765	-57.096252	91.06	-0.720	0.350	1.770	90.98	-1.00	2.20	 	 	 	 	 	 	 	 	 	 	 	 	 	 	 	 	 	 	1581517754	7.80	14.45
12/02/2020 14:29:15	120220	12022020	142915	90.95	12.418762	-57.096213	90.98	-0.600	-0.040	1.880	90.92	-1.30	2.30	 	 	 	 	 	 	 	 	 	 	 	 	 	 	 	 	 	 	1581517755	8.26	15.30
12/02/2020 14:29:16	120220	12022020	142916	90.78	12.418758	-57.096170	90.83	-0.010	-0.720	1.910	90.76	-2.00	2.30	 	 	 	 	 	 	 	 	 	 	 	 	 	 	 	 	 	 	1581517756	9.33	17.28
12/02/2020 14:29:17	120220	12022020	142917	90.73	12.418758	-57.096125	90.82	0.500	-0.850	1.690	90.75	-2.20	2.20	 	 	 	 	 	 	 	 	 	 	 	 	 	 	 	 	 	 	1581517757	9.31	17.24
12/02/2020 14:29:18	120220	12022020	142918	90.84	12.418760	-57.096083	90.93	0.630	-0.650	1.130	90.87	-2.00	1.70	 	 	 	 	 	 	 	 	 	 	 	 	 	 	 	 	 	 	1581517758	8.78	16.26
12/02/2020 14:29:19	120220	12022020	142919	90.99	12.418763	-57.096043	91.08	0.350	-0.240	0.640	91.02	-1.60	1.10	 	 	 	 	 	 	 	 	 	 	 	 	 	 	 	 	 	 	1581517759	8.68	16.08
12/02/2020 14:29:20	120220	12022020	142920	91.08	12.418767	-57.096003	91.12	-0.150	0.400	0.430	91.08	-1.00	0.90	 	 	 	 	 	 	 	 	 	 	 	 	 	 	 	 	 	 	1581517760	8.30	15.37
12/02/2020 14:29:21	120220	12022020	142921	90.95	12.418767	-57.095967	90.91	-0.430	0.630	0.360	90.89	-0.70	0.80	 	 	 	 	 	 	 	 	 	 	 	 	 	 	 	 	 	 	1581517761	8.01	14.83
12/02/2020 14:29:22	120220	12022020	142922	90.60	12.418768	-57.095925	90.56	-0.280	0.040	0.460	90.53	-1.20	0.90	 	 	 	 	 	 	 	 	 	 	 	 	 	 	 	 	 	 	1581517762	8.65	16.02
12/02/2020 14:29:23	120220	12022020	142923	90.37	12.418770	-57.095880	90.42	0.050	-0.800	0.580	90.37	-2.00	1.00	 	 	 	 	 	 	 	 	 	 	 	 	 	 	 	 	 	 	1581517763	9.46	17.52
12/02/2020 14:29:24	120220	12022020	142924	90.47	12.418770	-57.095835	90.56	0.260	-1.210	0.700	90.50	-2.50	1.10	 	 	 	 	 	 	 	 	 	 	 	 	 	 	 	 	 	 	1581517764	9.52	17.63
12/02/2020 14:29:25	120220	12022020	142925	90.60	12.418768	-57.095792	90.66	0.180	-1.010	1.170	90.60	-2.40	1.50	 	 	 	 	 	 	 	 	 	 	 	 	 	 	 	 	 	 	1581517765	9.12	16.89
12/02/2020 14:29:26	120220	12022020	142926	90.49	12.418763	-57.095752	90.51	-0.130	-0.320	1.840	90.44	-1.80	2.20	 	 	 	 	 	 	 	 	 	 	 	 	 	 	 	 	 	 	1581517766	8.64	16.00
12/02/2020 14:29:27	120220	12022020	142927	90.21	12.418758	-57.095713	90.23	-0.360	0.410	2.290	90.16	-1.00	2.70	 	 	 	 	 	 	 	 	 	 	 	 	 	 	 	 	 	 	1581517767	8.26	15.30
12/02/2020 14:29:28	120220	12022020	142928	90.00	12.418757	-57.095673	90.05	-0.250	0.610	2.330	89.97	-0.70	2.80	 	 	 	 	 	 	 	 	 	 	 	 	 	 	 	 	 	 	1581517768	8.29	15.35
12/02/2020 14:29:29	120220	12022020	142929	89.98	12.418758	-57.095632	90.09	0.170	0.020	1.850	90.01	-1.20	2.40	 	 	 	 	 	 	 	 	 	 	 	 	 	 	 	 	 	 	1581517769	8.96	16.59
12/02/2020 14:29:30	120220	12022020	142930	90.09	12.418762	-57.095585	90.12	0.530	-0.780	1.240	90.07	-2.00	1.70	 	 	 	 	 	 	 	 	 	 	 	 	 	 	 	 	 	 	1581517770	9.76	18.08
12/02/2020 14:29:31	120220	12022020	142931	89.86	12.418765	-57.095540	89.84	0.330	-0.750	1.040	89.80	-2.20	1.50	 	 	 	 	 	 	 	 	 	 	 	 	 	 	 	 	 	 	1581517771	9.68	17.93
12/02/2020 14:29:32	120220	12022020	142932	89.62	12.418767	-57.095500	89.69	-0.490	0.310	1.190	89.62	-1.20	1.60	 	 	 	 	 	 	 	 	 	 	 	 	 	 	 	 	 	 	1581517772	8.35	15.46
12/02/2020 14:29:33	120220	12022020	142933	89.78	12.418767	-57.095467	89.93	-1.250	1.230	1.240	89.85	-0.20	1.70	 	 	 	 	 	 	 	 	 	 	 	 	 	 	 	 	 	 	1581517773	7.13	13.20
12/02/2020 14:29:34	120220	12022020	142934	90.12	12.418767	-57.095430	90.22	-0.940	0.300	1.000	90.16	-0.80	1.50	 	 	 	 	 	 	 	 	 	 	 	 	 	 	 	 	 	 	1581517774	7.68	14.22
12/02/2020 14:29:35	120220	12022020	142935	90.18	12.418767	-57.095382	90.18	0.540	-2.130	0.890	90.14	-3.10	1.30	 	 	 	 	 	 	 	 	 	 	 	 	 	 	 	 	 	 	1581517775	10.13	18.76
12/02/2020 14:29:36	120220	12022020	142936	89.94	12.418767	-57.095328	89.96	1.680	-3.030	1.160	89.90	-4.40	1.50	 	 	 	 	 	 	 	 	 	 	 	 	 	 	 	 	 	 	1581517776	11.43	21.17
12/02/2020 14:29:37	120220	12022020	142937	89.93	12.418768	-57.095285	90.07	1.300	-0.970	1.380	90.00	-2.80	1.80	 	 	 	 	 	 	 	 	 	 	 	 	 	 	 	 	 	 	1581517777	9.04	16.74
12/02/2020 14:29:38	120220	12022020	142938	90.35	12.418770	-57.095257	90.57	-0.240	2.110	1.240	90.47	0.30	1.70	 	 	 	 	 	 	 	 	 	 	 	 	 	 	 	 	 	 	1581517778	6.04	11.19
12/02/2020 14:29:39	120220	12022020	142939	90.91	12.418772	-57.095230	91.08	-1.440	3.070	0.930	90.99	1.80	1.40	 	 	 	 	 	 	 	 	 	 	 	 	 	 	 	 	 	 	1581517779	5.55	10.28
12/02/2020 14:29:40	120220	12022020	142940	91.09	12.418772	-57.095192	91.13	-1.240	1.020	0.900	91.07	0.10	1.30	 	 	 	 	 	 	 	 	 	 	 	 	 	 	 	 	 	 	1581517780	8.30	15.37
12/02/2020 14:29:41	120220	12022020	142941	90.82	12.418768	-57.095140	90.83	-0.180	-1.670	1.090	90.76	-2.70	1.50	 	 	 	 	 	 	 	 	 	 	 	 	 	 	 	 	 	 	1581517781	10.94	20.26
12/02/2020 14:29:42	120220	12022020	142942	90.64	12.418767	-57.095090	90.72	0.640	-2.460	1.040	90.64	-3.80	1.50	 	 	 	 	 	 	 	 	 	 	 	 	 	 	 	 	 	 	1581517782	10.68	19.78
12/02/2020 14:29:43	120220	12022020	142943	90.75	12.418768	-57.095050	90.89	0.580	-0.980	0.780	90.80	-2.60	1.30	 	 	 	 	 	 	 	 	 	 	 	 	 	 	 	 	 	 	1581517783	8.20	15.19
12/02/2020 14:29:44	120220	12022020	142944	91.00	12.418770	-57.095022	91.12	-0.080	0.750	0.500	91.04	-0.80	1.00	 	 	 	 	 	 	 	 	 	 	 	 	 	 	 	 	 	 	1581517784	6.25	11.58
12/02/2020 14:29:45	120220	12022020	142945	91.13	12.418772	-57.094990	91.19	-0.590	0.980	0.560	91.12	-0.90	1.30	 	 	 	 	 	 	 	 	 	 	 	 	 	 	 	 	 	 	1581517785	6.74	12.48
12/02/2020 14:29:46	120220	12022020	142946	90.91	12.418770	-57.094948	90.89	-0.470	-0.130	1.140	90.83	-1.30	1.50	 	 	 	 	 	 	 	 	 	 	 	 	 	 	 	 	 	 	1581517786	8.58	15.89
12/02/2020 14:29:47	120220	12022020	142947	90.41	12.418765	-57.094903	90.38	0.140	-1.290	1.660	90.30	-2.50	2.00	 	 	 	 	 	 	 	 	 	 	 	 	 	 	 	 	 	 	1581517787	9.74	18.04
12/02/2020 14:29:48	120220	12022020	142948	89.93	12.418762	-57.094858	89.95	0.790	-1.620	1.860	89.86	-3.00	2.30	 	 	 	 	 	 	 	 	 	 	 	 	 	 	 	 	 	 	1581517788	9.55	17.69
12/02/2020 14:29:49	120220	12022020	142949	89.72	12.418763	-57.094817	89.83	0.960	-0.730	1.700	89.73	-2.30	2.20	 	 	 	 	 	 	 	 	 	 	 	 	 	 	 	 	 	 	1581517789	8.71	16.13
12/02/2020 14:29:50	120220	12022020	142950	89.91	12.418767	-57.094782	90.09	0.350	0.810	1.280	89.99	-0.80	1.80	 	 	 	 	 	 	 	 	 	 	 	 	 	 	 	 	 	 	1581517790	7.44	13.78
12/02/2020 14:29:51	120220	12022020	142951	90.25	12.418768	-57.094750	90.37	-0.570	1.580	0.990	90.29	0.20	1.40	 	 	 	 	 	 	 	 	 	 	 	 	 	 	 	 	 	 	1581517791	6.87	12.72
12/02/2020 14:29:52	120220	12022020	142952	90.23	12.418768	-57.094712	90.24	-0.960	0.850	1.230	90.17	-0.30	1.60	 	 	 	 	 	 	 	 	 	 	 	 	 	 	 	 	 	 	1581517792	7.82	14.48
12/02/2020 14:29:53	120220	12022020	142953	89.91	12.418767	-57.094668	89.93	-0.600	-0.650	1.570	89.85	-1.80	2.00	 	 	 	 	 	 	 	 	 	 	 	 	 	 	 	 	 	 	1581517793	9.26	17.15
12/02/2020 14:29:54	120220	12022020	142954	89.67	12.418765	-57.094622	89.74	0.220	-1.870	1.750	89.65	-3.10	2.20	 	 	 	 	 	 	 	 	 	 	 	 	 	 	 	 	 	 	1581517794	9.75	18.06
12/02/2020 14:29:55	120220	12022020	142955	89.67	12.418767	-57.094578	89.81	0.960	-2.060	1.790	89.70	-3.50	2.20	 	 	 	 	 	 	 	 	 	 	 	 	 	 	 	 	 	 	1581517795	9.47	17.54
12/02/2020 14:29:56	120220	12022020	142956	89.94	12.418768	-57.094537	90.13	0.920	-0.850	1.810	90.01	-2.50	2.20	 	 	 	 	 	 	 	 	 	 	 	 	 	 	 	 	 	 	1581517796	8.51	15.76
12/02/2020 14:29:57	120220	12022020	142957	90.26	12.418768	-57.094503	90.44	-0.060	1.050	2.080	90.32	-0.60	2.50	 	 	 	 	 	 	 	 	 	 	 	 	 	 	 	 	 	 	1581517797	7.05	13.06
12/02/2020 14:29:58	120220	12022020	142958	90.46	12.418763	-57.094473	90.58	-1.140	2.220	2.330	90.47	0.80	2.70	 	 	 	 	 	 	 	 	 	 	 	 	 	 	 	 	 	 	1581517798	6.46	11.96
12/02/2020 14:29:59	120220	12022020	142959	90.46	12.418760	-57.094440	90.53	-1.250	1.540	2.130	90.44	0.40	2.60	 	 	 	 	 	 	 	 	 	 	 	 	 	 	 	 	 	 	1581517799	7.26	13.45
12/02/2020 14:30:00	120220	12022020	143000	90.34	12.418762	-57.094395	90.39	-0.120	-0.900	1.600	90.30	-1.80	2.10	 	 	 	 	 	 	 	 	 	 	 	 	 	 	 	 	 	 	1581517800	9.27	17.17
12/02/2020 14:30:01	120220	12022020	143001	90.24	12.418767	-57.094345	90.32	1.290	-3.110	1.060	90.24	-4.20	1.60	 	 	 	 	 	 	 	 	 	 	 	 	 	 	 	 	 	 	1581517801	10.93	20.24
12/02/2020 14:30:02	120220	12022020	143002	90.38	12.418773	-57.094297	90.52	1.690	-2.820	0.700	90.44	-4.40	1.20	1017.40	26.50	26.60	20.90	21.00	567.0	71.0	71.0	436.0	28.2	349.00	14.40	74.00	10.10	46157	6564.0	27.5	27.4	1581517802	10.22	18.93
12/02/2020 14:30:03	120220	12022020	143003	90.75	12.418775	-57.094262	90.91	0.760	-0.120	0.550	90.84	-2.00	1.00	 	 	 	 	 	 	 	 	 	 	 	 	 	 	 	 	 	 	1581517803	7.35	13.61
12/02/2020 14:30:04	120220	12022020	143004	91.12	12.418777	-57.094237	91.21	-0.690	2.450	0.670	91.16	0.80	1.10	 	 	 	 	 	 	 	 	 	 	 	 	 	 	 	 	 	 	1581517804	5.25	9.72
12/02/2020 14:30:05	120220	12022020	143005	91.14	12.418773	-57.094208	91.17	-1.430	2.630	1.080	91.11	1.40	1.50	 	 	 	 	 	 	 	 	 	 	 	 	 	 	 	 	 	 	1581517805	6.06	11.22
12/02/2020 14:30:06	120220	12022020	143006	91.03	12.418770	-57.094167	91.13	-0.950	0.510	1.300	91.04	-0.50	1.70	 	 	 	 	 	 	 	 	 	 	 	 	 	 	 	 	 	 	1581517806	8.69	16.09
12/02/2020 14:30:07	120220	12022020	143007	91.17	12.418768	-57.094118	91.31	0.070	-1.760	1.180	91.21	-2.80	1.60	 	 	 	 	 	 	 	 	 	 	 	 	 	 	 	 	 	 	1581517807	10.44	19.33
12/02/2020 14:30:08	120220	12022020	143008	91.32	12.418768	-57.094072	91.38	0.670	-2.440	1.120	91.31	-3.80	1.50	 	 	 	 	 	 	 	 	 	 	 	 	 	 	 	 	 	 	1581517808	9.92	18.37
12/02/2020 14:30:09	120220	12022020	143009	91.15	12.418765	-57.094033	91.12	0.500	-1.320	1.340	91.07	-2.90	1.70	 	 	 	 	 	 	 	 	 	 	 	 	 	 	 	 	 	 	1581517809	8.12	15.04
12/02/2020 14:30:10	120220	12022020	143010	90.65	12.418763	-57.094002	90.59	-0.020	0.380	1.490	90.55	-1.20	1.90	 	 	 	 	 	 	 	 	 	 	 	 	 	 	 	 	 	 	1581517810	6.64	12.30
12/02/2020 14:30:11	120220	12022020	143011	90.13	12.418763	-57.093970	90.09	-0.240	1.150	1.200	90.05	-0.20	1.70	 	 	 	 	 	 	 	 	 	 	 	 	 	 	 	 	 	 	1581517811	6.65	12.32
12/02/2020 14:30:12	120220	12022020	143012	89.97	12.418768	-57.093933	90.08	-0.120	0.740	0.450	90.02	-0.50	1.00	 	 	 	 	 	 	 	 	 	 	 	 	 	 	 	 	 	 	1581517812	7.96	14.74
12/02/2020 14:30:13	120220	12022020	143013	90.33	12.418775	-57.093892	90.47	0.070	-0.110	-0.460	90.41	-1.30	0.10	 	 	 	 	 	 	 	 	 	 	 	 	 	 	 	 	 	 	1581517813	8.90	16.48
12/02/2020 14:30:14	120220	12022020	143014	90.55	12.418780	-57.093848	90.54	0.240	-0.880	-0.790	90.52	-2.10	-0.40	 	 	 	 	 	 	 	 	 	 	 	 	 	 	 	 	 	 	1581517814	8.93	16.54
12/02/2020 14:30:15	120220	12022020	143015	90.13	12.418780	-57.093807	90.00	0.490	-1.540	-0.030	89.98	-2.80	0.20	 	 	 	 	 	 	 	 	 	 	 	 	 	 	 	 	 	 	1581517815	8.87	16.43
12/02/2020 14:30:16	120220	12022020	143016	89.42	12.418773	-57.093765	89.39	0.710	-1.570	1.250	89.32	-3.00	1.50	 	 	 	 	 	 	 	 	 	 	 	 	 	 	 	 	 	 	1581517816	9.07	16.80
12/02/2020 14:30:17	120220	12022020	143017	89.24	12.418768	-57.093725	89.42	0.490	-0.360	1.970	89.30	-2.00	2.30	 	 	 	 	 	 	 	 	 	 	 	 	 	 	 	 	 	 	1581517817	8.44	15.63
12/02/2020 14:30:18	120220	12022020	143018	89.65	12.418767	-57.093692	89.87	-0.410	1.450	2.020	89.75	-0.10	2.50	 	 	 	 	 	 	 	 	 	 	 	 	 	 	 	 	 	 	1581517818	6.90	12.78
12/02/2020 14:30:19	120220	12022020	143019	89.96	12.418765	-57.093663	90.06	-1.310	2.180	2.060	89.96	0.80	2.50	 	 	 	 	 	 	 	 	 	 	 	 	 	 	 	 	 	 	1581517819	6.31	11.69
12/02/2020 14:30:20	120220	12022020	143020	89.84	12.418763	-57.093627	89.87	-1.200	0.790	2.210	89.79	-0.30	2.60	 	 	 	 	 	 	 	 	 	 	 	 	 	 	 	 	 	 	1581517820	7.65	14.17
12/02/2020 14:30:21	120220	12022020	143021	89.61	12.418762	-57.093580	89.67	-0.030	-1.530	2.160	89.58	-2.60	2.60	 	 	 	 	 	 	 	 	 	 	 	 	 	 	 	 	 	 	1581517821	9.80	18.15
12/02/2020 14:30:22	120220	12022020	143022	89.61	12.418765	-57.093532	89.73	1.030	-2.500	1.830	89.63	-3.80	2.30	 	 	 	 	 	 	 	 	 	 	 	 	 	 	 	 	 	 	1581517822	10.22	18.93
12/02/2020 14:30:23	120220	12022020	143023	89.78	12.418768	-57.093492	89.89	1.100	-1.530	1.360	89.80	-3.10	1.90	 	 	 	 	 	 	 	 	 	 	 	 	 	 	 	 	 	 	1581517823	8.42	15.59
12/02/2020 14:30:24	120220	12022020	143024	89.81	12.418772	-57.093460	89.86	0.440	-0.030	1.190	89.79	-1.60	1.60	 	 	 	 	 	 	 	 	 	 	 	 	 	 	 	 	 	 	1581517824	6.80	12.59
12/02/2020 14:30:25	120220	12022020	143025	89.68	12.418773	-57.093427	89.74	-0.170	0.540	1.280	89.66	-0.90	1.70	 	 	 	 	 	 	 	 	 	 	 	 	 	 	 	 	 	 	1581517825	7.00	12.96
12/02/2020 14:30:26	120220	12022020	143026	89.68	12.418773	-57.093388	89.78	-0.390	0.460	1.260	89.70	-0.90	1.70	 	 	 	 	 	 	 	 	 	 	 	 	 	 	 	 	 	 	1581517826	8.19	15.17
12/02/2020 14:30:27	120220	12022020	143027	89.80	12.418773	-57.093348	89.88	-0.230	0.190	1.120	89.81	-1.10	1.60	 	 	 	 	 	 	 	 	 	 	 	 	 	 	 	 	 	 	1581517827	8.57	15.87
12/02/2020 14:30:28	120220	12022020	143028	89.78	12.418773	-57.093307	89.80	0.090	-0.170	1.030	89.75	-1.50	1.50	 	 	 	 	 	 	 	 	 	 	 	 	 	 	 	 	 	 	1581517828	8.65	16.02
12/02/2020 14:30:29	120220	12022020	143029	89.64	12.418775	-57.093267	89.71	0.180	-0.250	0.970	89.63	-1.60	1.40	 	 	 	 	 	 	 	 	 	 	 	 	 	 	 	 	 	 	1581517829	8.63	15.98
12/02/2020 14:30:30	120220	12022020	143030	89.77	12.418778	-57.093228	89.94	-0.110	-0.020	0.870	89.84	-1.40	1.30	 	 	 	 	 	 	 	 	 	 	 	 	 	 	 	 	 	 	1581517830	8.15	15.09
12/02/2020 14:30:31	120220	12022020	143031	90.18	12.418780	-57.093192	90.36	-0.500	0.050	0.750	90.26	-1.30	1.20	 	 	 	 	 	 	 	 	 	 	 	 	 	 	 	 	 	 	1581517831	7.77	14.39
12/02/2020 14:30:32	120220	12022020	143032	90.47	12.418780	-57.093153	90.59	-0.460	-0.350	0.850	90.49	-1.60	1.20	 	 	 	 	 	 	 	 	 	 	 	 	 	 	 	 	 	 	1581517832	8.00	14.82
12/02/2020 14:30:33	120220	12022020	143033	90.43	12.418777	-57.093112	90.48	0.230	-1.110	1.230	90.39	-2.70	1.90	 	 	 	 	 	 	 	 	 	 	 	 	 	 	 	 	 	 	1581517833	8.72	16.15
12/02/2020 14:30:34	120220	12022020	143034	90.17	12.418775	-57.093068	90.21	0.890	-1.320	1.560	90.12	-2.70	2.00	 	 	 	 	 	 	 	 	 	 	 	 	 	 	 	 	 	 	1581517834	9.22	17.08
12/02/2020 14:30:35	120220	12022020	143035	90.03	12.418777	-57.093028	90.13	0.680	-0.400	1.590	90.03	-1.10	1.90	 	 	 	 	 	 	 	 	 	 	 	 	 	 	 	 	 	 	1581517835	8.40	15.56
12/02/2020 14:30:36	120220	12022020	143036	90.14	12.418778	-57.092995	90.29	-0.240	0.790	1.330	90.18	-0.70	1.80	 	 	 	 	 	 	 	 	 	 	 	 	 	 	 	 	 	 	1581517836	7.19	13.32
12/02/2020 14:30:37	120220	12022020	143037	90.38	12.418780	-57.092962	90.51	-0.990	1.030	1.130	90.42	-0.30	1.60	 	 	 	 	 	 	 	 	 	 	 	 	 	 	 	 	 	 	1581517837	7.15	13.24
12/02/2020 14:30:38	120220	12022020	143038	90.41	12.418780	-57.092922	90.44	-0.830	-0.070	1.160	90.36	-1.20	1.60	 	 	 	 	 	 	 	 	 	 	 	 	 	 	 	 	 	 	1581517838	8.38	15.52
12/02/2020 14:30:39	120220	12022020	143039	90.07	12.418778	-57.092875	90.06	0.120	-1.450	1.240	89.99	-2.60	1.70	 	 	 	 	 	 	 	 	 	 	 	 	 	 	 	 	 	 	1581517839	9.77	18.09
12/02/2020 14:30:40	120220	12022020	143040	89.80	12.418780	-57.092830	89.88	0.930	-1.540	1.110	89.80	-3.00	1.60	 	 	 	 	 	 	 	 	 	 	 	 	 	 	 	 	 	 	1581517840	9.72	18.00
12/02/2020 14:30:41	120220	12022020	143041	89.96	12.418783	-57.092790	90.11	0.810	-0.370	0.740	90.03	-1.90	1.20	 	 	 	 	 	 	 	 	 	 	 	 	 	 	 	 	 	 	1581517841	8.25	15.28
12/02/2020 14:30:42	120220	12022020	143042	90.33	12.418787	-57.092757	90.47	-0.080	0.850	0.530	90.39	-0.70	1.00	 	 	 	 	 	 	 	 	 	 	 	 	 	 	 	 	 	 	1581517842	7.11	13.17
12/02/2020 14:30:43	120220	12022020	143043	90.53	12.418787	-57.092722	90.62	-0.840	1.150	0.750	90.54	-0.20	1.10	 	 	 	 	 	 	 	 	 	 	 	 	 	 	 	 	 	 	1581517843	7.26	13.45
12/02/2020 14:30:44	120220	12022020	143044	90.52	12.418783	-57.092683	90.60	-0.770	0.400	1.160	90.51	-0.80	1.50	 	 	 	 	 	 	 	 	 	 	 	 	 	 	 	 	 	 	1581517844	8.25	15.28
12/02/2020 14:30:45	120220	12022020	143045	90.42	12.418782	-57.092640	90.49	-0.110	-0.810	1.620	90.39	-2.00	2.00	 	 	 	 	 	 	 	 	 	 	 	 	 	 	 	 	 	 	1581517845	9.27	17.17
12/02/2020 14:30:46	120220	12022020	143046	90.26	12.418780	-57.092595	90.32	0.450	-1.520	1.940	90.23	-2.80	2.30	 	 	 	 	 	 	 	 	 	 	 	 	 	 	 	 	 	 	1581517846	9.51	17.61
12/02/2020 14:30:47	120220	12022020	143047	90.08	12.418778	-57.092553	90.15	0.510	-1.120	2.060	90.05	-2.60	2.50	 	 	 	 	 	 	 	 	 	 	 	 	 	 	 	 	 	 	1581517847	8.81	16.32
12/02/2020 14:30:48	120220	12022020	143048	90.06	12.418778	-57.092517	90.19	0.180	-0.020	1.900	90.08	-1.50	2.40	 	 	 	 	 	 	 	 	 	 	 	 	 	 	 	 	 	 	1581517848	7.68	14.22
12/02/2020 14:30:49	120220	12022020	143049	90.23	12.418780	-57.092482	90.34	-0.070	0.420	1.480	90.26	-0.90	2.00	 	 	 	 	 	 	 	 	 	 	 	 	 	 	 	 	 	 	1581517849	7.33	13.58
12/02/2020 14:30:50	120220	12022020	143050	90.22	12.418785	-57.092442	90.24	0.060	-0.220	1.240	90.17	-1.40	1.70	 	 	 	 	 	 	 	 	 	 	 	 	 	 	 	 	 	 	1581517850	8.53	15.80
12/02/2020 14:30:51	120220	12022020	143051	89.91	12.418787	-57.092397	89.92	0.220	-0.810	1.350	89.85	-2.10	1.80	 	 	 	 	 	 	 	 	 	 	 	 	 	 	 	 	 	 	1581517851	9.57	17.72
12/02/2020 14:30:52	120220	12022020	143052	89.81	12.418787	-57.092353	89.96	0.030	-0.480	1.370	89.85	-1.90	1.80	 	 	 	 	 	 	 	 	 	 	 	 	 	 	 	 	 	 	1581517852	9.13	16.91
12/02/2020 14:30:53	120220	12022020	143053	90.12	12.418787	-57.092315	90.31	-0.450	0.360	1.350	90.20	-1.10	1.80	 	 	 	 	 	 	 	 	 	 	 	 	 	 	 	 	 	 	1581517853	8.01	14.83
12/02/2020 14:30:54	120220	12022020	143054	90.55	12.418785	-57.092280	90.74	-0.710	0.670	1.160	90.64	-0.70	1.60	 	 	 	 	 	 	 	 	 	 	 	 	 	 	 	 	 	 	1581517854	7.67	14.20
12/02/2020 14:30:55	120220	12022020	143055	90.95	12.418787	-57.092240	91.14	-0.370	0.110	0.790	91.03	-1.10	1.30	 	 	 	 	 	 	 	 	 	 	 	 	 	 	 	 	 	 	1581517855	8.43	15.61
12/02/2020 14:30:56	120220	12022020	143056	91.34	12.418788	-57.092197	91.49	0.200	-0.620	0.660	91.40	-1.90	1.10	 	 	 	 	 	 	 	 	 	 	 	 	 	 	 	 	 	 	1581517856	9.21	17.06
12/02/2020 14:30:57	120220	12022020	143057	91.41	12.418787	-57.092153	91.42	0.440	-0.930	0.930	91.35	-2.20	1.50	 	 	 	 	 	 	 	 	 	 	 	 	 	 	 	 	 	 	1581517857	9.14	16.93
12/02/2020 14:30:58	120220	12022020	143058	90.97	12.418787	-57.092112	90.92	0.270	-0.700	1.240	90.85	-2.10	1.60	 	 	 	 	 	 	 	 	 	 	 	 	 	 	 	 	 	 	1581517858	8.61	15.95
12/02/2020 14:30:59	120220	12022020	143059	90.47	12.418787	-57.092073	90.46	0.060	-0.300	1.330	90.40	-1.70	1.80	 	 	 	 	 	 	 	 	 	 	 	 	 	 	 	 	 	 	1581517859	8.17	15.13
12/02/2020 14:31:00	120220	12022020	143100	90.27	12.418790	-57.092033	90.36	0.160	-0.310	0.960	90.28	-1.60	1.50	 	 	 	 	 	 	 	 	 	 	 	 	 	 	 	 	 	 	1581517860	8.37	15.50
12/02/2020 14:31:01	120220	12022020	143101	90.45	12.418795	-57.091992	90.63	0.440	-0.580	0.380	90.53	-1.90	0.90	 	 	 	 	 	 	 	 	 	 	 	 	 	 	 	 	 	 	1581517861	9.10	16.85
12/02/2020 14:31:02	120220	12022020	143102	90.91	12.418798	-57.091947	91.08	0.350	-0.420	0.020	90.99	-1.80	0.50	1017.30	26.50	26.60	20.80	20.90	436.0	70.0	71.0	437.0	28.1	349.00	14.40	75.00	10.30	38456	7282.0	27.5	27.5	1581517862	9.29	17.21
12/02/2020 14:31:03	120220	12022020	143103	91.28	12.418798	-57.091907	91.39	-0.350	0.410	0.340	91.31	-1.10	0.70	 	 	 	 	 	 	 	 	 	 	 	 	 	 	 	 	 	 	1581517863	8.48	15.70
12/02/2020 14:31:04	120220	12022020	143104	91.35	12.418793	-57.091872	91.40	-1.140	1.150	1.210	91.32	-0.30	1.50	 	 	 	 	 	 	 	 	 	 	 	 	 	 	 	 	 	 	1581517864	7.67	14.20
12/02/2020 14:31:05	120220	12022020	143105	91.10	12.418785	-57.091835	91.11	-1.160	0.700	1.990	91.02	-0.50	2.30	 	 	 	 	 	 	 	 	 	 	 	 	 	 	 	 	 	 	1581517865	7.91	14.65
12/02/2020 14:31:06	120220	12022020	143106	90.65	12.418780	-57.091792	90.66	-0.100	-1.060	2.390	90.56	-2.10	2.80	 	 	 	 	 	 	 	 	 	 	 	 	 	 	 	 	 	 	1581517866	9.39	17.39
12/02/2020 14:31:07	120220	12022020	143107	90.27	12.418780	-57.091740	90.36	1.130	-2.350	2.340	90.24	-3.60	2.80	 	 	 	 	 	 	 	 	 	 	 	 	 	 	 	 	 	 	1581517867	10.60	19.63
12/02/2020 14:31:08	120220	12022020	143108	90.31	12.418785	-57.091695	90.49	1.350	-1.580	1.830	90.37	-3.20	2.40	 	 	 	 	 	 	 	 	 	 	 	 	 	 	 	 	 	 	1581517868	9.72	18.00
12/02/2020 14:31:09	120220	12022020	143109	90.67	12.418790	-57.091660	90.86	0.360	0.510	1.280	90.75	-1.20	1.80	 	 	 	 	 	 	 	 	 	 	 	 	 	 	 	 	 	 	1581517869	7.49	13.87
12/02/2020 14:31:10	120220	12022020	143110	90.98	12.418792	-57.091630	91.11	-0.860	1.780	1.120	91.02	0.30	1.60	 	 	 	 	 	 	 	 	 	 	 	 	 	 	 	 	 	 	1581517870	6.48	12.00
12/02/2020 14:31:11	120220	12022020	143111	91.12	12.418792	-57.091593	91.24	-1.220	1.230	1.100	91.15	0.10	1.60	 	 	 	 	 	 	 	 	 	 	 	 	 	 	 	 	 	 	1581517871	7.78	14.41
12/02/2020 14:31:12	120220	12022020	143112	91.34	12.418790	-57.091548	91.51	-0.720	-0.090	0.850	91.41	-1.20	1.30	 	 	 	 	 	 	 	 	 	 	 	 	 	 	 	 	 	 	1581517872	9.49	17.58
12/02/2020 14:31:13	120220	12022020	143113	91.65	12.418790	-57.091502	91.77	-0.000	-1.060	0.720	91.68	-2.30	1.20	 	 	 	 	 	 	 	 	 	 	 	 	 	 	 	 	 	 	1581517873	9.71	17.98
12/02/2020 14:31:14	120220	12022020	143114	91.61	12.418790	-57.091458	91.58	0.480	-1.520	1.030	91.53	-2.80	1.40	 	 	 	 	 	 	 	 	 	 	 	 	 	 	 	 	 	 	1581517874	9.16	16.96
12/02/2020 14:31:15	120220	12022020	143115	91.02	12.418787	-57.091417	90.92	0.700	-1.610	1.510	90.87	-3.00	1.90	 	 	 	 	 	 	 	 	 	 	 	 	 	 	 	 	 	 	1581517875	8.95	16.58
12/02/2020 14:31:16	120220	12022020	143116	90.43	12.418787	-57.091375	90.44	0.730	-1.130	1.710	90.37	-2.60	2.10	 	 	 	 	 	 	 	 	 	 	 	 	 	 	 	 	 	 	1581517876	8.89	16.46
12/02/2020 14:31:17	120220	12022020	143117	90.30	12.418787	-57.091333	90.42	0.500	-0.000	1.480	90.33	-1.50	2.00	 	 	 	 	 	 	 	 	 	 	 	 	 	 	 	 	 	 	1581517877	8.48	15.70
12/02/2020 14:31:18	120220	12022020	143118	90.58	12.418790	-57.091297	90.74	-0.080	1.250	0.750	90.65	-0.30	1.30	 	 	 	 	 	 	 	 	 	 	 	 	 	 	 	 	 	 	1581517878	7.87	14.58
12/02/2020 14:31:19	120220	12022020	143119	90.91	12.418793	-57.091260	91.03	-0.810	1.800	0.020	90.96	0.40	0.50	 	 	 	 	 	 	 	 	 	 	 	 	 	 	 	 	 	 	1581517879	7.74	14.33
12/02/2020 14:31:20	120220	12022020	143120	91.08	12.418797	-57.091222	91.18	-1.160	1.100	-0.060	91.10	-0.10	0.40	 	 	 	 	 	 	 	 	 	 	 	 	 	 	 	 	 	 	1581517880	8.24	15.26
12/02/2020 14:31:21	120220	12022020	143121	91.18	12.418795	-57.091178	91.25	-0.620	-0.750	0.290	91.18	-1.80	0.70	 	 	 	 	 	 	 	 	 	 	 	 	 	 	 	 	 	 	1581517881	9.34	17.30
12/02/2020 14:31:22	120220	12022020	143122	91.03	12.418792	-57.091128	91.04	0.470	-2.540	0.950	90.96	-3.70	1.30	 	 	 	 	 	 	 	 	 	 	 	 	 	 	 	 	 	 	1581517882	10.45	19.35
12/02/2020 14:31:23	120220	12022020	143123	90.63	12.418787	-57.091080	90.61	1.060	-2.630	1.670	90.53	-4.10	2.00	 	 	 	 	 	 	 	 	 	 	 	 	 	 	 	 	 	 	1581517883	10.19	18.87
12/02/2020 14:31:24	120220	12022020	143124	90.19	12.418783	-57.091040	90.21	0.750	-0.940	2.180	90.12	-2.60	2.60	 	 	 	 	 	 	 	 	 	 	 	 	 	 	 	 	 	 	1581517884	8.40	15.56
12/02/2020 14:31:25	120220	12022020	143125	89.96	12.418783	-57.091008	90.07	0.020	1.130	2.270	89.96	0.40	2.50	 	 	 	 	 	 	 	 	 	 	 	 	 	 	 	 	 	 	1581517885	6.87	12.72
12/02/2020 14:31:26	120220	12022020	143126	90.08	12.418785	-57.090975	90.22	-0.440	1.870	1.760	90.13	0.50	2.30	 	 	 	 	 	 	 	 	 	 	 	 	 	 	 	 	 	 	1581517886	7.01	12.98
12/02/2020 14:31:27	120220	12022020	143127	90.31	12.418790	-57.090935	90.44	-0.350	0.860	0.980	90.36	-0.30	1.50	 	 	 	 	 	 	 	 	 	 	 	 	 	 	 	 	 	 	1581517887	8.67	16.06
12/02/2020 14:31:28	120220	12022020	143128	90.58	12.418795	-57.090887	90.75	-0.120	-0.450	0.540	90.67	-1.70	1.00	 	 	 	 	 	 	 	 	 	 	 	 	 	 	 	 	 	 	1581517888	10.17	18.83
12/02/2020 14:31:29	120220	12022020	143129	91.03	12.418797	-57.090842	91.18	-0.260	-0.730	0.410	91.10	-2.10	0.90	 	 	 	 	 	 	 	 	 	 	 	 	 	 	 	 	 	 	1581517889	9.49	17.58
12/02/2020 14:31:30	120220	12022020	143130	91.24	12.418797	-57.090803	91.28	-0.500	-0.640	0.630	91.22	-2.00	1.00	 	 	 	 	 	 	 	 	 	 	 	 	 	 	 	 	 	 	1581517890	8.18	15.15
12/02/2020 14:31:31	120220	12022020	143131	90.96	12.418793	-57.090763	90.94	-0.060	-1.130	1.260	90.87	-2.40	1.60	 	 	 	 	 	 	 	 	 	 	 	 	 	 	 	 	 	 	1581517891	8.30	15.37
12/02/2020 14:31:32	120220	12022020	143132	90.64	12.418790	-57.090720	90.73	0.900	-1.450	1.600	90.63	-2.80	2.00	 	 	 	 	 	 	 	 	 	 	 	 	 	 	 	 	 	 	1581517892	9.36	17.33
12/02/2020 14:31:33	120220	12022020	143133	90.79	12.418792	-57.090677	90.97	1.300	-0.730	1.600	90.86	-2.20	2.10	 	 	 	 	 	 	 	 	 	 	 	 	 	 	 	 	 	 	1581517893	9.09	16.83
12/02/2020 14:31:34	120220	12022020	143134	91.14	12.418793	-57.090638	91.31	0.600	0.440	1.500	91.20	-1.00	1.90	 	 	 	 	 	 	 	 	 	 	 	 	 	 	 	 	 	 	1581517894	8.00	14.82
12/02/2020 14:31:35	120220	12022020	143135	91.33	12.418792	-57.090603	91.44	-0.630	1.210	1.520	91.34	-0.20	1.90	 	 	 	 	 	 	 	 	 	 	 	 	 	 	 	 	 	 	1581517895	7.57	14.02
12/02/2020 14:31:36	120220	12022020	143136	91.33	12.418790	-57.090567	91.41	-1.390	1.290	1.540	91.32	0.00	2.00	 	 	 	 	 	 	 	 	 	 	 	 	 	 	 	 	 	 	1581517896	7.86	14.56
12/02/2020 14:31:37	120220	12022020	143137	91.29	12.418790	-57.090527	91.39	-1.190	0.550	1.380	91.30	-0.60	1.90	 	 	 	 	 	 	 	 	 	 	 	 	 	 	 	 	 	 	1581517897	8.40	15.56
12/02/2020 14:31:38	120220	12022020	143138	91.32	12.418790	-57.090483	91.42	-0.410	-0.700	1.150	91.32	-1.80	1.60	 	 	 	 	 	 	 	 	 	 	 	 	 	 	 	 	 	 	1581517898	9.16	16.96
12/02/2020 14:31:39	120220	12022020	143139	91.35	12.418792	-57.090438	91.44	0.320	-1.800	0.920	91.35	-3.00	1.40	 	 	 	 	 	 	 	 	 	 	 	 	 	 	 	 	 	 	1581517899	9.60	17.78
12/02/2020 14:31:40	120220	12022020	143140	91.29	12.418790	-57.090393	91.35	0.750	-2.250	1.070	91.26	-3.50	1.50	 	 	 	 	 	 	 	 	 	 	 	 	 	 	 	 	 	 	1581517900	9.44	17.48
12/02/2020 14:31:41	120220	12022020	143141	91.12	12.418787	-57.090350	91.15	1.050	-1.750	1.400	91.07	-3.20	1.80	 	 	 	 	 	 	 	 	 	 	 	 	 	 	 	 	 	 	1581517901	9.03	16.72
12/02/2020 14:31:42	120220	12022020	143142	90.88	12.418785	-57.090310	90.92	1.100	-0.260	1.390	90.84	-1.90	1.90	 	 	 	 	 	 	 	 	 	 	 	 	 	 	 	 	 	 	1581517902	8.37	15.50
12/02/2020 14:31:43	120220	12022020	143143	90.74	12.418787	-57.090275	90.80	0.550	1.610	0.930	90.73	0.00	1.50	 	 	 	 	 	 	 	 	 	 	 	 	 	 	 	 	 	 	1581517903	7.43	13.76
12/02/2020 14:31:44	120220	12022020	143144	90.74	12.418793	-57.090242	90.82	-0.370	2.390	0.250	90.75	1.10	0.80	 	 	 	 	 	 	 	 	 	 	 	 	 	 	 	 	 	 	1581517904	7.18	13.30
12/02/2020 14:31:45	120220	12022020	143145	90.88	12.418800	-57.090203	90.99	-1.010	1.300	-0.320	90.93	0.20	0.20	 	 	 	 	 	 	 	 	 	 	 	 	 	 	 	 	 	 	1581517905	8.30	15.37
12/02/2020 14:31:46	120220	12022020	143146	91.10	12.418803	-57.090157	91.19	-1.090	-0.730	-0.270	91.13	-1.80	0.10	 	 	 	 	 	 	 	 	 	 	 	 	 	 	 	 	 	 	1581517906	9.78	18.11
12/02/2020 14:31:47	120220	12022020	143147	91.12	12.418800	-57.090110	91.15	-0.710	-2.200	0.390	91.08	-3.40	0.70	 	 	 	 	 	 	 	 	 	 	 	 	 	 	 	 	 	 	1581517907	10.18	18.85
12/02/2020 14:31:48	120220	12022020	143148	90.79	12.418792	-57.090065	90.76	-0.040	-2.400	1.420	90.69	-3.70	1.70	 	 	 	 	 	 	 	 	 	 	 	 	 	 	 	 	 	 	1581517908	9.52	17.63
12/02/2020 14:31:49	120220	12022020	143149	90.29	12.418783	-57.090025	90.28	0.720	-1.620	2.460	90.20	-3.10	2.80	 	 	 	 	 	 	 	 	 	 	 	 	 	 	 	 	 	 	1581517909	8.70	16.11
12/02/2020 14:31:50	120220	12022020	143150	89.94	12.418778	-57.089987	90.04	1.150	-0.380	2.750	89.92	-1.90	3.20	 	 	 	 	 	 	 	 	 	 	 	 	 	 	 	 	 	 	1581517910	8.21	15.20
12/02/2020 14:31:51	120220	12022020	143151	90.03	12.418780	-57.089948	90.22	0.850	0.790	2.080	90.09	-0.70	2.60	 	 	 	 	 	 	 	 	 	 	 	 	 	 	 	 	 	 	1581517911	7.97	14.76
12/02/2020 14:31:52	120220	12022020	143152	90.47	12.418787	-57.089912	90.69	-0.080	1.470	1.160	90.57	0.10	1.70	 	 	 	 	 	 	 	 	 	 	 	 	 	 	 	 	 	 	1581517912	8.07	14.95
12/02/2020 14:31:53	120220	12022020	143153	90.97	12.418792	-57.089873	91.13	-1.060	1.500	0.500	91.05	0.20	1.00	 	 	 	 	 	 	 	 	 	 	 	 	 	 	 	 	 	 	1581517913	8.13	15.06
12/02/2020 14:31:54	120220	12022020	143154	91.25	12.418793	-57.089833	91.36	-1.360	0.710	0.270	91.28	-0.40	0.70	 	 	 	 	 	 	 	 	 	 	 	 	 	 	 	 	 	 	1581517914	8.36	15.48
12/02/2020 14:31:55	120220	12022020	143155	91.35	12.418793	-57.089790	91.44	-0.540	-1.010	0.310	91.35	-2.00	0.70	 	 	 	 	 	 	 	 	 	 	 	 	 	 	 	 	 	 	1581517915	9.16	16.96
12/02/2020 14:31:56	120220	12022020	143156	91.26	12.418792	-57.089742	91.28	0.790	-2.620	0.570	91.20	-3.70	0.90	 	 	 	 	 	 	 	 	 	 	 	 	 	 	 	 	 	 	1581517916	10.22	18.93
12/02/2020 14:31:57	120220	12022020	143157	90.95	12.418792	-57.089695	90.96	1.500	-2.520	1.020	90.88	-4.00	1.40	 	 	 	 	 	 	 	 	 	 	 	 	 	 	 	 	 	 	1581517917	9.97	18.46
12/02/2020 14:31:58	120220	12022020	143158	90.73	12.418792	-57.089657	90.80	1.100	-0.670	1.240	90.73	-2.30	1.70	 	 	 	 	 	 	 	 	 	 	 	 	 	 	 	 	 	 	1581517918	8.16	15.11
12/02/2020 14:31:59	120220	12022020	143159	90.90	12.418793	-57.089623	91.09	0.080	1.190	1.090	90.98	-0.30	1.60	 	 	 	 	 	 	 	 	 	 	 	 	 	 	 	 	 	 	1581517919	6.76	12.52
12/02/2020 14:32:00	120220	12022020	143200	91.33	12.418797	-57.089590	91.47	-0.620	1.360	0.960	91.39	0.10	1.40	 	 	 	 	 	 	 	 	 	 	 	 	 	 	 	 	 	 	1581517920	7.38	13.67
12/02/2020 14:32:01	120220	12022020	143201	91.50	12.418793	-57.089545	91.61	-0.660	0.270	1.180	91.53	-0.90	1.60	 	 	 	 	 	 	 	 	 	 	 	 	 	 	 	 	 	 	1581517921	9.33	17.28
12/02/2020 14:32:02	120220	12022020	143202	91.68	12.418790	-57.089498	91.80	-0.720	-0.020	1.510	91.71	-1.40	1.90	1017.30	26.50	26.60	20.80	20.80	402.0	70.0	70.0	438.0	28.1	346.00	14.40	71.00	10.10	35898	14197.0	27.5	27.5	1581517922	9.92	18.37
12/02/2020 14:32:03	120220	12022020	143203	91.82	12.418785	-57.089460	91.91	-1.030	0.550	1.620	91.84	-0.90	2.10	 	 	 	 	 	 	 	 	 	 	 	 	 	 	 	 	 	 	1581517923	8.25	15.28
12/02/2020 14:32:04	120220	12022020	143204	91.81	12.418782	-57.089425	91.83	-1.010	0.500	1.360	91.77	-0.70	1.90	 	 	 	 	 	 	 	 	 	 	 	 	 	 	 	 	 	 	1581517924	7.27	13.46
12/02/2020 14:32:05	120220	12022020	143205	91.60	12.418783	-57.089385	91.61	0.020	-1.200	0.910	91.56	-2.20	1.40	 	 	 	 	 	 	 	 	 	 	 	 	 	 	 	 	 	 	1581517925	8.53	15.80
12/02/2020 14:32:06	120220	12022020	143206	91.42	12.418787	-57.089335	91.44	1.450	-2.890	0.550	91.39	-4.10	1.00	 	 	 	 	 	 	 	 	 	 	 	 	 	 	 	 	 	 	1581517926	10.55	19.54
12/02/2020 14:32:07	120220	12022020	143207	91.32	12.418790	-57.089288	91.37	1.850	-2.070	0.200	91.32	-3.70	0.70	 	 	 	 	 	 	 	 	 	 	 	 	 	 	 	 	 	 	1581517927	10.02	18.56
12/02/2020 14:32:08	120220	12022020	143208	91.37	12.418793	-57.089255	91.42	0.830	0.670	-0.030	91.39	-1.10	0.40	 	 	 	 	 	 	 	 	 	 	 	 	 	 	 	 	 	 	1581517928	7.18	13.30
12/02/2020 14:32:09	120220	12022020	143209	91.48	12.418795	-57.089228	91.55	-0.720	2.650	0.160	91.51	1.20	0.50	 	 	 	 	 	 	 	 	 	 	 	 	 	 	 	 	 	 	1581517929	5.57	10.32
12/02/2020 14:32:10	120220	12022020	143210	91.55	12.418793	-57.089195	91.60	-1.450	2.080	0.680	91.54	1.00	1.00	 	 	 	 	 	 	 	 	 	 	 	 	 	 	 	 	 	 	1581517930	6.88	12.74
12/02/2020 14:32:11	120220	12022020	143211	91.40	12.418788	-57.089150	91.40	-0.830	-0.340	1.290	91.34	-1.30	1.60	 	 	 	 	 	 	 	 	 	 	 	 	 	 	 	 	 	 	1581517931	9.52	17.63
12/02/2020 14:32:12	120220	12022020	143212	91.06	12.418785	-57.089100	91.06	0.310	-2.140	1.960	90.99	-3.30	2.30	 	 	 	 	 	 	 	 	 	 	 	 	 	 	 	 	 	 	1581517932	10.80	20.00
12/02/2020 14:32:13	120220	12022020	143213	90.85	12.418782	-57.089055	90.93	0.810	-1.950	2.580	90.84	-3.40	2.90	 	 	 	 	 	 	 	 	 	 	 	 	 	 	 	 	 	 	1581517933	9.52	17.63
12/02/2020 14:32:14	120220	12022020	143214	90.87	12.418778	-57.089020	91.00	0.400	-0.670	2.990	90.88	-2.20	3.40	 	 	 	 	 	 	 	 	 	 	 	 	 	 	 	 	 	 	1581517934	7.54	13.96
12/02/2020 14:32:15	120220	12022020	143215	90.89	12.418775	-57.088987	90.99	-0.210	0.200	3.120	90.87	-1.20	3.50	 	 	 	 	 	 	 	 	 	 	 	 	 	 	 	 	 	 	1581517935	7.05	13.06
12/02/2020 14:32:16	120220	12022020	143216	90.76	12.418773	-57.088948	90.86	-0.400	0.410	2.920	90.74	-0.90	3.40	 	 	 	 	 	 	 	 	 	 	 	 	 	 	 	 	 	 	1581517936	7.94	14.70
12/02/2020 14:32:17	120220	12022020	143217	90.74	12.418775	-57.088908	90.86	-0.220	0.460	2.210	90.75	-0.90	2.80	 	 	 	 	 	 	 	 	 	 	 	 	 	 	 	 	 	 	1581517937	8.49	15.72
12/02/2020 14:32:18	120220	12022020	143218	90.87	12.418778	-57.088868	90.98	0.040	0.320	1.280	90.90	-1.00	1.90	 	 	 	 	 	 	 	 	 	 	 	 	 	 	 	 	 	 	1581517938	8.43	15.61
12/02/2020 14:32:19	120220	12022020	143219	90.93	12.418783	-57.088828	91.00	0.330	-0.350	0.400	90.93	-1.50	1.00	 	 	 	 	 	 	 	 	 	 	 	 	 	 	 	 	 	 	1581517939	8.72	16.15
12/02/2020 14:32:20	120220	12022020	143220	90.99	12.418790	-57.088783	91.08	0.510	-1.040	-0.360	91.02	-2.30	0.20	 	 	 	 	 	 	 	 	 	 	 	 	 	 	 	 	 	 	1581517940	9.33	17.28
12/02/2020 14:32:21	120220	12022020	143221	91.10	12.418793	-57.088742	91.17	0.450	-0.990	-0.530	91.12	-2.40	-0.10	 	 	 	 	 	 	 	 	 	 	 	 	 	 	 	 	 	 	1581517941	9.05	16.76
12/02/2020 14:32:22	120220	12022020	143222	91.15	12.418793	-57.088703	91.20	0.190	-0.130	-0.180	91.15	-1.60	0.20	 	 	 	 	 	 	 	 	 	 	 	 	 	 	 	 	 	 	1581517942	8.09	14.98
12/02/2020 14:32:23	120220	12022020	143223	91.09	12.418792	-57.088668	91.14	-0.130	0.740	0.390	91.08	-0.70	0.70	 	 	 	 	 	 	 	 	 	 	 	 	 	 	 	 	 	 	1581517943	7.34	13.59
12/02/2020 14:32:24	120220	12022020	143224	91.02	12.418790	-57.088632	91.09	-0.280	0.560	1.020	91.01	-0.70	1.40	 	 	 	 	 	 	 	 	 	 	 	 	 	 	 	 	 	 	1581517944	7.64	14.15
12/02/2020 14:32:25	120220	12022020	143225	90.99	12.418787	-57.088590	91.09	-0.050	-0.850	1.510	90.99	-1.90	1.90	 	 	 	 	 	 	 	 	 	 	 	 	 	 	 	 	 	 	1581517945	9.00	16.67
12/02/2020 14:32:26	120220	12022020	143226	91.03	12.418787	-57.088542	91.17	0.310	-1.960	1.890	91.05	-3.20	2.30	 	 	 	 	 	 	 	 	 	 	 	 	 	 	 	 	 	 	1581517946	10.21	18.91
12/02/2020 14:32:27	120220	12022020	143227	91.17	12.418783	-57.088497	91.34	0.270	-1.220	2.530	91.21	-2.80	2.80	 	 	 	 	 	 	 	 	 	 	 	 	 	 	 	 	 	 	1581517947	9.44	17.48
12/02/2020 14:32:28	120220	12022020	143228	91.33	12.418777	-57.088463	91.47	-0.310	0.750	3.020	91.34	-0.90	3.40	 	 	 	 	 	 	 	 	 	 	 	 	 	 	 	 	 	 	1581517948	7.37	13.65
12/02/2020 14:32:29	120220	12022020	143229	91.31	12.418772	-57.088433	91.38	-0.810	1.810	2.920	91.28	0.40	3.40	 	 	 	 	 	 	 	 	 	 	 	 	 	 	 	 	 	 	1581517949	6.44	11.93
12/02/2020 14:32:30	120220	12022020	143230	91.14	12.418773	-57.088395	91.22	-0.550	0.820	2.190	91.13	-0.30	2.80	 	 	 	 	 	 	 	 	 	 	 	 	 	 	 	 	 	 	1581517950	7.86	14.56
12/02/2020 14:32:31	120220	12022020	143231	91.13	12.418778	-57.088348	91.21	0.210	-0.930	1.100	91.14	-2.00	1.70	 	 	 	 	 	 	 	 	 	 	 	 	 	 	 	 	 	 	1581517951	9.92	18.37
12/02/2020 14:32:32	120220	12022020	143232	91.16	12.418785	-57.088302	91.21	0.730	-1.750	0.220	91.15	-3.10	0.80	 	 	 	 	 	 	 	 	 	 	 	 	 	 	 	 	 	 	1581517952	10.20	18.89
12/02/2020 14:32:33	120220	12022020	143233	91.05	12.418790	-57.088260	91.03	0.670	-1.320	-0.120	91.01	-2.80	0.30	 	 	 	 	 	 	 	 	 	 	 	 	 	 	 	 	 	 	1581517953	8.86	16.41
12/02/2020 14:32:34	120220	12022020	143234	90.84	12.418792	-57.088222	90.86	0.320	-0.430	-0.080	90.82	-1.90	0.40	 	 	 	 	 	 	 	 	 	 	 	 	 	 	 	 	 	 	1581517954	7.86	14.56
12/02/2020 14:32:35	120220	12022020	143235	90.90	12.418792	-57.088185	91.02	-0.060	0.340	-0.040	90.95	-1.10	0.40	 	 	 	 	 	 	 	 	 	 	 	 	 	 	 	 	 	 	1581517955	7.81	14.46
12/02/2020 14:32:36	120220	12022020	143236	91.18	12.418792	-57.088148	91.33	-0.440	0.870	0.110	91.24	-0.60	0.50	 	 	 	 	 	 	 	 	 	 	 	 	 	 	 	 	 	 	1581517956	7.96	14.74
12/02/2020 14:32:37	120220	12022020	143237	91.42	12.418790	-57.088110	91.55	-0.670	0.840	0.510	91.45	-0.90	1.30	 	 	 	 	 	 	 	 	 	 	 	 	 	 	 	 	 	 	1581517957	8.02	14.85
12/02/2020 14:32:38	120220	12022020	143238	91.43	12.418785	-57.088070	91.50	-0.400	-0.110	1.240	91.40	-1.30	1.50	 	 	 	 	 	 	 	 	 	 	 	 	 	 	 	 	 	 	1581517958	8.58	15.89
12/02/2020 14:32:39	120220	12022020	143239	91.19	12.418780	-57.088023	91.22	0.390	-1.590	2.120	91.11	-2.70	2.40	 	 	 	 	 	 	 	 	 	 	 	 	 	 	 	 	 	 	1581517959	9.69	17.95
12/02/2020 14:32:40	120220	12022020	143240	90.78	12.418777	-57.087977	90.86	1.020	-2.130	2.910	90.72	-3.50	3.20	 	 	 	 	 	 	 	 	 	 	 	 	 	 	 	 	 	 	1581517960	10.18	18.85
12/02/2020 14:32:41	120220	12022020	143241	90.58	12.418773	-57.087935	90.74	0.750	-0.790	3.140	90.58	-2.40	3.60	 	 	 	 	 	 	 	 	 	 	 	 	 	 	 	 	 	 	1581517961	8.86	16.41
12/02/2020 14:32:42	120220	12022020	143242	90.74	12.418775	-57.087902	90.98	-0.330	1.300	2.820	90.81	-0.30	3.30	 	 	 	 	 	 	 	 	 	 	 	 	 	 	 	 	 	 	1581517962	6.85	12.69
12/02/2020 14:32:43	120220	12022020	143243	91.20	12.418777	-57.087872	91.43	-1.330	2.100	1.990	91.30	0.80	2.60	 	 	 	 	 	 	 	 	 	 	 	 	 	 	 	 	 	 	1581517963	6.43	11.91
12/02/2020 14:32:44	120220	12022020	143244	91.58	12.418780	-57.087833	91.72	-1.310	0.840	1.070	91.62	-0.20	1.60	 	 	 	 	 	 	 	 	 	 	 	 	 	 	 	 	 	 	1581517964	8.07	14.95
12/02/2020 14:32:45	120220	12022020	143245	91.62	12.418782	-57.087787	91.66	-0.290	-1.240	0.520	91.58	-2.30	1.00	 	 	 	 	 	 	 	 	 	 	 	 	 	 	 	 	 	 	1581517965	10.02	18.56
12/02/2020 14:32:46	120220	12022020	143246	91.38	12.418782	-57.087737	91.39	0.870	-2.470	0.320	91.33	-3.70	0.80	 	 	 	 	 	 	 	 	 	 	 	 	 	 	 	 	 	 	1581517966	10.45	19.35
12/02/2020 14:32:47	120220	12022020	143247	91.20	12.418782	-57.087692	91.25	1.260	-1.970	0.200	91.19	-3.50	0.60	 	 	 	 	 	 	 	 	 	 	 	 	 	 	 	 	 	 	1581517967	9.43	17.46
12/02/2020 14:32:48	120220	12022020	143248	91.24	12.418785	-57.087655	91.32	0.680	-0.120	0.110	91.26	-1.80	0.60	 	 	 	 	 	 	 	 	 	 	 	 	 	 	 	 	 	 	1581517968	7.72	14.30
12/02/2020 14:32:49	120220	12022020	143249	91.37	12.418787	-57.087625	91.45	-0.290	1.630	0.140	91.38	0.10	0.60	 	 	 	 	 	 	 	 	 	 	 	 	 	 	 	 	 	 	1581517969	6.60	12.22
12/02/2020 14:32:50	120220	12022020	143250	91.39	12.418788	-57.087592	91.45	-0.880	1.890	0.380	91.38	0.60	0.80	 	 	 	 	 	 	 	 	 	 	 	 	 	 	 	 	 	 	1581517970	7.00	12.96
12/02/2020 14:32:51	120220	12022020	143251	91.39	12.418787	-57.087550	91.49	-0.740	0.520	0.740	91.41	-1.70	1.40	 	 	 	 	 	 	 	 	 	 	 	 	 	 	 	 	 	 	1581517971	8.67	16.06
12/02/2020 14:32:52	120220	12022020	143252	91.52	12.418783	-57.087503	91.66	-0.140	-1.250	1.180	91.56	-2.40	1.50	 	 	 	 	 	 	 	 	 	 	 	 	 	 	 	 	 	 	1581517972	10.01	18.54
12/02/2020 14:32:53	120220	12022020	143253	91.62	12.418778	-57.087457	91.71	0.390	-2.110	1.610	91.60	-3.40	2.00	 	 	 	 	 	 	 	 	 	 	 	 	 	 	 	 	 	 	1581517973	10.00	18.52
12/02/2020 14:32:54	120220	12022020	143254	91.42	12.418775	-57.087413	91.45	0.500	-1.540	1.960	91.36	-3.00	2.30	 	 	 	 	 	 	 	 	 	 	 	 	 	 	 	 	 	 	1581517974	8.96	16.59
12/02/2020 14:32:55	120220	12022020	143255	91.16	12.418773	-57.087378	91.22	0.150	-0.050	2.150	91.13	-1.60	2.60	 	 	 	 	 	 	 	 	 	 	 	 	 	 	 	 	 	 	1581517975	7.65	14.17
12/02/2020 14:32:56	120220	12022020	143256	91.12	12.418772	-57.087345	91.20	-0.360	1.140	2.090	91.12	-0.30	2.50	 	 	 	 	 	 	 	 	 	 	 	 	 	 	 	 	 	 	1581517976	7.01	12.98
12/02/2020 14:32:57	120220	12022020	143257	91.10	12.418773	-57.087308	91.15	-0.480	0.940	1.620	91.08	-0.30	2.20	 	 	 	 	 	 	 	 	 	 	 	 	 	 	 	 	 	 	1581517977	7.62	14.11
12/02/2020 14:32:58	120220	12022020	143258	90.99	12.418777	-57.087265	91.01	-0.040	-0.380	0.920	90.97	-1.50	1.50	 	 	 	 	 	 	 	 	 	 	 	 	 	 	 	 	 	 	1581517978	9.24	17.11
12/02/2020 14:32:59	120220	12022020	143259	90.93	12.418780	-57.087217	90.98	0.410	-1.140	0.480	90.94	-2.40	1.00	 	 	 	 	 	 	 	 	 	 	 	 	 	 	 	 	 	 	1581517979	10.08	18.67
12/02/2020 14:33:00	120220	12022020	143300	91.04	12.418783	-57.087175	91.14	0.300	-0.590	0.300	91.08	-2.10	0.70	 	 	 	 	 	 	 	 	 	 	 	 	 	 	 	 	 	 	1581517980	8.87	16.43
12/02/2020 14:33:01	120220	12022020	143301	91.25	12.418783	-57.087140	91.34	-0.200	0.200	0.360	91.28	-1.20	0.80	 	 	 	 	 	 	 	 	 	 	 	 	 	 	 	 	 	 	1581517981	7.53	13.95
12/02/2020 14:33:02	120220	12022020	143302	91.28	12.418780	-57.087103	91.30	-0.410	0.150	0.810	91.24	-1.10	1.10	1017.30	26.50	26.50	20.70	20.80	400.0	70.0	70.0	439.0	28.0	349.00	14.00	75.00	9.80	35227	8743.0	27.5	27.5	1581517982	7.72	14.30
12/02/2020 14:33:03	120220	12022020	143303	90.97	12.418777	-57.087062	90.96	-0.040	-0.550	1.390	90.90	-2.20	2.00	 	 	 	 	 	 	 	 	 	 	 	 	 	 	 	 	 	 	1581517983	8.89	16.46
12/02/2020 14:33:04	120220	12022020	143304	90.76	12.418775	-57.087017	90.84	0.510	-0.990	1.630	90.75	-2.30	2.00	 	 	 	 	 	 	 	 	 	 	 	 	 	 	 	 	 	 	1581517984	9.43	17.46
12/02/2020 14:33:05	120220	12022020	143305	90.79	12.418775	-57.086975	90.89	0.710	-0.860	1.870	90.80	-2.00	2.40	 	 	 	 	 	 	 	 	 	 	 	 	 	 	 	 	 	 	1581517985	9.03	16.72
12/02/2020 14:33:06	120220	12022020	143306	90.80	12.418775	-57.086933	90.91	0.370	-0.340	2.010	90.81	-1.80	2.40	 	 	 	 	 	 	 	 	 	 	 	 	 	 	 	 	 	 	1581517986	8.57	15.87
12/02/2020 14:33:07	120220	12022020	143307	90.86	12.418775	-57.086895	90.99	-0.350	0.370	1.910	90.89	-1.10	2.40	 	 	 	 	 	 	 	 	 	 	 	 	 	 	 	 	 	 	1581517987	8.21	15.20
12/02/2020 14:33:08	120220	12022020	143308	91.10	12.418775	-57.086858	91.27	-0.930	0.910	1.830	91.17	-0.50	2.30	 	 	 	 	 	 	 	 	 	 	 	 	 	 	 	 	 	 	1581517988	7.89	14.61
12/02/2020 14:33:09	120220	12022020	143309	91.40	12.418772	-57.086820	91.54	-0.890	0.730	1.730	91.43	-0.50	2.20	 	 	 	 	 	 	 	 	 	 	 	 	 	 	 	 	 	 	1581517989	8.13	15.06
12/02/2020 14:33:10	120220	12022020	143310	91.42	12.418770	-57.086777	91.45	-0.340	-0.150	1.490	91.37	-1.30	2.00	 	 	 	 	 	 	 	 	 	 	 	 	 	 	 	 	 	 	1581517990	8.90	16.48
12/02/2020 14:33:11	120220	12022020	143311	91.11	12.418770	-57.086732	91.10	0.380	-1.160	1.160	91.03	-2.40	1.60	 	 	 	 	 	 	 	 	 	 	 	 	 	 	 	 	 	 	1581517991	9.48	17.56
12/02/2020 14:33:12	120220	12022020	143312	90.80	12.418773	-57.086687	90.84	0.900	-1.540	0.790	90.78	-2.90	1.30	 	 	 	 	 	 	 	 	 	 	 	 	 	 	 	 	 	 	1581517992	9.55	17.69
12/02/2020 14:33:13	120220	12022020	143313	90.86	12.418778	-57.086645	90.99	0.930	-0.920	0.260	90.92	-2.40	0.80	 	 	 	 	 	 	 	 	 	 	 	 	 	 	 	 	 	 	1581517993	8.87	16.43
12/02/2020 14:33:14	120220	12022020	143314	91.20	12.418783	-57.086608	91.31	0.420	-0.060	-0.190	91.26	-1.50	0.30	 	 	 	 	 	 	 	 	 	 	 	 	 	 	 	 	 	 	1581517994	8.05	14.91
12/02/2020 14:33:15	120220	12022020	143315	91.30	12.418785	-57.086570	91.31	-0.220	0.240	0.150	91.26	-1.10	0.50	 	 	 	 	 	 	 	 	 	 	 	 	 	 	 	 	 	 	1581517995	8.10	15.00
12/02/2020 14:33:16	120220	12022020	143316	90.99	12.418780	-57.086528	90.97	-0.620	0.030	1.140	90.91	-1.30	1.40	 	 	 	 	 	 	 	 	 	 	 	 	 	 	 	 	 	 	1581517996	8.88	16.45
12/02/2020 14:33:17	120220	12022020	143317	90.60	12.418773	-57.086485	90.61	-0.670	-0.170	2.110	90.53	-1.50	2.40	 	 	 	 	 	 	 	 	 	 	 	 	 	 	 	 	 	 	1581517997	9.33	17.28
12/02/2020 14:33:18	120220	12022020	143318	90.36	12.418767	-57.086442	90.47	-0.460	-0.100	2.530	90.36	-1.50	2.90	 	 	 	 	 	 	 	 	 	 	 	 	 	 	 	 	 	 	1581517998	9.11	16.87
12/02/2020 14:33:19	120220	12022020	143319	90.48	12.418767	-57.086400	90.64	-0.250	0.090	2.260	90.52	-1.30	2.80	 	 	 	 	 	 	 	 	 	 	 	 	 	 	 	 	 	 	1581517999	8.70	16.11
12/02/2020 14:33:20	120220	12022020	143320	90.73	12.418767	-57.086360	90.84	-0.100	-0.040	1.840	90.76	-1.30	2.30	 	 	 	 	 	 	 	 	 	 	 	 	 	 	 	 	 	 	1581518000	8.56	15.85
12/02/2020 14:33:21	120220	12022020	143321	90.76	12.418768	-57.086318	90.79	0.210	-0.610	1.720	90.73	-1.80	2.20	 	 	 	 	 	 	 	 	 	 	 	 	 	 	 	 	 	 	1581518001	8.96	16.59
12/02/2020 14:33:22	120220	12022020	143322	90.57	12.418768	-57.086273	90.59	0.720	-1.100	1.620	90.53	-2.40	2.10	 	 	 	 	 	 	 	 	 	 	 	 	 	 	 	 	 	 	1581518002	9.46	17.52
12/02/2020 14:33:23	120220	12022020	143323	90.35	12.418772	-57.086228	90.36	1.010	-0.930	1.440	90.30	-2.30	1.90	 	 	 	 	 	 	 	 	 	 	 	 	 	 	 	 	 	 	1581518003	9.38	17.37
12/02/2020 14:33:24	120220	12022020	143324	90.19	12.418775	-57.086187	90.27	0.610	-0.090	1.180	90.20	-1.60	1.70	 	 	 	 	 	 	 	 	 	 	 	 	 	 	 	 	 	 	1581518004	8.77	16.24
12/02/2020 14:33:25	120220	12022020	143325	90.39	12.418778	-57.086150	90.54	-0.320	0.830	1.000	90.46	-0.60	1.50	 	 	 	 	 	 	 	 	 	 	 	 	 	 	 	 	 	 	1581518005	8.01	14.83
12/02/2020 14:33:26	120220	12022020	143326	90.80	12.418780	-57.086112	90.96	-1.060	0.970	0.970	90.88	-0.30	1.40	 	 	 	 	 	 	 	 	 	 	 	 	 	 	 	 	 	 	1581518006	7.88	14.59
12/02/2020 14:33:27	120220	12022020	143327	91.04	12.418777	-57.086070	91.10	-0.970	-0.030	1.250	91.04	-1.20	1.60	 	 	 	 	 	 	 	 	 	 	 	 	 	 	 	 	 	 	1581518007	8.81	16.32
12/02/2020 14:33:28	120220	12022020	143328	90.78	12.418773	-57.086023	90.74	-0.150	-1.530	1.850	90.68	-2.70	2.20	 	 	 	 	 	 	 	 	 	 	 	 	 	 	 	 	 	 	1581518008	10.04	18.59
12/02/2020 14:33:29	120220	12022020	143329	90.37	12.418772	-57.085973	90.45	0.620	-2.230	2.360	90.35	-3.60	2.70	 	 	 	 	 	 	 	 	 	 	 	 	 	 	 	 	 	 	1581518009	10.55	19.54
12/02/2020 14:33:30	120220	12022020	143330	90.57	12.418768	-57.085928	90.83	0.550	-0.980	2.540	90.68	-2.60	3.00	 	 	 	 	 	 	 	 	 	 	 	 	 	 	 	 	 	 	1581518010	9.43	17.46
12/02/2020 14:33:31	120220	12022020	143331	91.26	12.418767	-57.085895	91.53	-0.280	1.300	2.000	91.39	-0.40	2.50	 	 	 	 	 	 	 	 	 	 	 	 	 	 	 	 	 	 	1581518011	7.18	13.30
12/02/2020 14:33:32	120220	12022020	143332	91.75	12.418767	-57.085865	91.85	-0.960	2.390	1.140	91.78	1.00	1.70	 	 	 	 	 	 	 	 	 	 	 	 	 	 	 	 	 	 	1581518012	6.37	11.80
12/02/2020 14:33:33	120220	12022020	143333	91.71	12.418770	-57.085827	91.69	-0.490	0.850	0.450	91.65	-0.10	1.00	 	 	 	 	 	 	 	 	 	 	 	 	 	 	 	 	 	 	1581518013	8.10	15.00
12/02/2020 14:33:34	120220	12022020	143334	91.38	12.418775	-57.085775	91.37	0.890	-2.000	-0.050	91.33	-2.90	0.50	 	 	 	 	 	 	 	 	 	 	 	 	 	 	 	 	 	 	1581518014	10.91	20.21
12/02/2020 14:33:35	120220	12022020	143335	91.40	12.418782	-57.085720	91.55	1.690	-3.080	-0.530	91.49	-4.50	-0.00	 	 	 	 	 	 	 	 	 	 	 	 	 	 	 	 	 	 	1581518015	11.67	21.61
12/02/2020 14:33:36	120220	12022020	143336	91.96	12.418785	-57.085678	92.17	0.960	-1.150	-0.260	92.09	-2.90	0.10	 	 	 	 	 	 	 	 	 	 	 	 	 	 	 	 	 	 	1581518016	8.98	16.63
12/02/2020 14:33:37	120220	12022020	143337	92.61	12.418782	-57.085650	92.80	-0.770	1.840	0.860	92.71	0.10	1.10	 	 	 	 	 	 	 	 	 	 	 	 	 	 	 	 	 	 	1581518017	5.91	10.95
12/02/2020 14:33:38	120220	12022020	143338	92.88	12.418770	-57.085625	92.94	-2.010	2.940	2.290	92.87	1.60	2.50	 	 	 	 	 	 	 	 	 	 	 	 	 	 	 	 	 	 	1581518018	5.69	10.54
12/02/2020 14:33:39	120220	12022020	143339	92.70	12.418758	-57.085590	92.71	-1.660	1.040	3.320	92.64	0.10	3.60	 	 	 	 	 	 	 	 	 	 	 	 	 	 	 	 	 	 	1581518019	8.15	15.09
12/02/2020 14:33:40	120220	12022020	143340	92.46	12.418750	-57.085540	92.52	-0.240	-1.810	3.850	92.43	-2.80	4.30	 	 	 	 	 	 	 	 	 	 	 	 	 	 	 	 	 	 	1581518020	10.72	19.85
12/02/2020 14:33:41	120220	12022020	143341	92.32	12.418745	-57.085488	92.38	0.960	-2.960	3.730	92.30	-3.90	3.80	 	 	 	 	 	 	 	 	 	 	 	 	 	 	 	 	 	 	1581518021	10.85	20.09
12/02/2020 14:33:42	120220	12022020	143342	92.22	12.418745	-57.085448	92.25	1.100	-1.620	2.820	92.19	-3.30	3.40	 	 	 	 	 	 	 	 	 	 	 	 	 	 	 	 	 	 	1581518022	8.58	15.89
12/02/2020 14:33:43	120220	12022020	143343	91.96	12.418748	-57.085417	91.91	0.510	0.400	1.710	91.89	-1.20	2.30	 	 	 	 	 	 	 	 	 	 	 	 	 	 	 	 	 	 	1581518023	6.49	12.02
12/02/2020 14:33:44	120220	12022020	143344	91.55	12.418755	-57.085387	91.50	0.110	1.100	0.540	91.49	-0.30	1.20	 	 	 	 	 	 	 	 	 	 	 	 	 	 	 	 	 	 	1581518024	6.70	12.41
12/02/2020 14:33:45	120220	12022020	143345	91.40	12.418762	-57.085347	91.42	0.120	0.520	-0.920	91.42	-0.70	-0.20	 	 	 	 	 	 	 	 	 	 	 	 	 	 	 	 	 	 	1581518025	8.51	15.76
12/02/2020 14:33:46	120220	12022020	143346	91.52	12.418772	-57.085303	91.53	0.070	0.080	-2.000	91.54	-1.20	-1.40	 	 	 	 	 	 	 	 	 	 	 	 	 	 	 	 	 	 	1581518026	9.31	17.24
12/02/2020 14:33:47	120220	12022020	143347	91.49	12.418775	-57.085265	91.45	-0.340	0.140	-1.970	91.46	-1.20	-1.60	 	 	 	 	 	 	 	 	 	 	 	 	 	 	 	 	 	 	1581518027	8.33	15.43
12/02/2020 14:33:48	120220	12022020	143348	91.21	12.418772	-57.085228	91.16	-0.740	-0.000	-0.910	91.14	-1.30	-0.70	 	 	 	 	 	 	 	 	 	 	 	 	 	 	 	 	 	 	1581518028	7.61	14.09
12/02/2020 14:33:49	120220	12022020	143349	90.81	12.418763	-57.085190	90.80	-0.620	-0.780	0.530	90.74	-2.00	0.80	 	 	 	 	 	 	 	 	 	 	 	 	 	 	 	 	 	 	1581518029	8.28	15.33
12/02/2020 14:33:50	120220	12022020	143350	90.53	12.418753	-57.085148	90.59	-0.030	-1.420	1.900	90.48	-2.70	2.20	 	 	 	 	 	 	 	 	 	 	 	 	 	 	 	 	 	 	1581518030	9.08	16.82
12/02/2020 14:33:51	120220	12022020	143351	90.30	12.418743	-57.085108	90.35	0.530	-1.180	3.030	90.24	-2.60	3.30	 	 	 	 	 	 	 	 	 	 	 	 	 	 	 	 	 	 	1581518031	8.76	16.22
12/02/2020 14:33:52	120220	12022020	143352	89.89	12.418738	-57.085072	89.89	0.650	-0.320	3.600	89.78	-1.80	4.00	 	 	 	 	 	 	 	 	 	 	 	 	 	 	 	 	 	 	1581518032	7.78	14.41
12/02/2020 14:33:53	120220	12022020	143353	89.36	12.418738	-57.085037	89.38	0.400	0.390	3.720	89.27	-0.90	4.10	 	 	 	 	 	 	 	 	 	 	 	 	 	 	 	 	 	 	1581518033	7.35	13.61
12/02/2020 14:33:54	120220	12022020	143354	89.12	12.418740	-57.085000	89.25	0.060	0.380	3.380	89.12	-0.90	3.90	 	 	 	 	 	 	 	 	 	 	 	 	 	 	 	 	 	 	1581518034	7.75	14.35
12/02/2020 14:33:55	120220	12022020	143355	89.28	12.418743	-57.084962	89.45	-0.180	-0.100	2.420	89.28	-1.40	3.10	 	 	 	 	 	 	 	 	 	 	 	 	 	 	 	 	 	 	1581518035	8.47	15.69
12/02/2020 14:33:56	120220	12022020	143356	89.56	12.418750	-57.084920	89.68	-0.290	-0.320	1.310	89.58	-1.70	1.90	 	 	 	 	 	 	 	 	 	 	 	 	 	 	 	 	 	 	1581518036	8.62	15.96
12/02/2020 14:33:57	120220	12022020	143357	89.58	12.418753	-57.084883	89.63	-0.300	0.030	0.790	89.55	-1.40	1.30	 	 	 	 	 	 	 	 	 	 	 	 	 	 	 	 	 	 	1581518037	8.02	14.85
12/02/2020 14:33:58	120220	12022020	143358	89.32	12.418755	-57.084848	89.33	-0.230	0.310	0.630	89.25	-1.00	1.10	 	 	 	 	 	 	 	 	 	 	 	 	 	 	 	 	 	 	1581518038	7.35	13.61
12/02/2020 14:33:59	120220	12022020	143359	88.97	12.418757	-57.084812	88.99	0.100	-0.270	0.480	88.91	-1.50	1.00	 	 	 	 	 	 	 	 	 	 	 	 	 	 	 	 	 	 	1581518039	7.69	14.24
12/02/2020 14:34:00	120220	12022020	143400	88.75	12.418762	-57.084770	88.83	0.670	-1.340	0.330	88.74	-2.50	0.80	 	 	 	 	 	 	 	 	 	 	 	 	 	 	 	 	 	 	1581518040	8.78	16.26
12/02/2020 14:34:01	120220	12022020	143401	88.89	12.418765	-57.084727	89.05	1.020	-1.650	0.140	88.96	-3.00	0.60	 	 	 	 	 	 	 	 	 	 	 	 	 	 	 	 	 	 	1581518041	9.24	17.11
12/02/2020 14:34:02	120220	12022020	143402	89.23	12.418768	-57.084688	89.39	0.630	-0.580	0.200	89.30	-2.20	0.60	1017.20	26.50	26.60	21.00	21.00	401.0	71.0	71.0	439.0	28.0	349.00	14.20	74.00	9.90	35262	11348.0	27.5	27.5	1581518042	8.17	15.13
12/02/2020 14:34:03	120220	12022020	143403	89.51	12.418768	-57.084657	89.64	-0.360	0.930	0.730	89.54	-0.60	1.10	 	 	 	 	 	 	 	 	 	 	 	 	 	 	 	 	 	 	1581518043	6.71	12.43
12/02/2020 14:34:04	120220	12022020	143404	89.60	12.418767	-57.084627	89.70	-1.170	1.600	1.520	89.60	0.20	1.90	 	 	 	 	 	 	 	 	 	 	 	 	 	 	 	 	 	 	1581518044	6.46	11.96
12/02/2020 14:34:05	120220	12022020	143405	89.55	12.418762	-57.084592	89.64	-1.130	0.910	2.140	89.53	-0.30	2.50	 	 	 	 	 	 	 	 	 	 	 	 	 	 	 	 	 	 	1581518045	7.44	13.78
12/02/2020 14:34:06	120220	12022020	143406	89.51	12.418760	-57.084550	89.64	-0.290	-0.650	2.410	89.53	-1.80	2.80	 	 	 	 	 	 	 	 	 	 	 	 	 	 	 	 	 	 	1581518046	8.72	16.15
12/02/2020 14:34:07	120220	12022020	143407	89.63	12.418760	-57.084507	89.77	0.650	-1.970	2.370	89.67	-3.20	2.80	 	 	 	 	 	 	 	 	 	 	 	 	 	 	 	 	 	 	1581518047	9.35	17.32
12/02/2020 14:34:08	120220	12022020	143408	89.74	12.418763	-57.084463	89.84	0.980	-2.030	2.080	89.75	-3.50	2.60	 	 	 	 	 	 	 	 	 	 	 	 	 	 	 	 	 	 	1581518048	8.98	16.63
12/02/2020 14:34:09	120220	12022020	143409	89.71	12.418767	-57.084428	89.76	0.480	-0.710	1.780	89.70	-2.30	2.30	 	 	 	 	 	 	 	 	 	 	 	 	 	 	 	 	 	 	1581518049	7.62	14.11
12/02/2020 14:34:10	120220	12022020	143410	89.67	12.418770	-57.084398	89.75	-0.330	0.910	1.410	89.69	-0.70	1.90	 	 	 	 	 	 	 	 	 	 	 	 	 	 	 	 	 	 	1581518050	6.37	11.80
12/02/2020 14:34:11	120220	12022020	143411	89.85	12.418772	-57.084367	89.97	-0.710	1.500	0.710	89.91	0.10	1.30	 	 	 	 	 	 	 	 	 	 	 	 	 	 	 	 	 	 	1581518051	6.45	11.95
12/02/2020 14:34:12	120220	12022020	143412	90.12	12.418777	-57.084332	90.19	-0.390	0.750	-0.140	90.15	-0.40	0.40	 	 	 	 	 	 	 	 	 	 	 	 	 	 	 	 	 	 	1581518052	7.71	14.28
12/02/2020 14:34:13	120220	12022020	143413	90.18	12.418782	-57.084290	90.19	0.180	-0.410	-0.680	90.16	-1.60	-0.20	 	 	 	 	 	 	 	 	 	 	 	 	 	 	 	 	 	 	1581518053	8.87	16.43
12/02/2020 14:34:14	120220	12022020	143414	90.02	12.418787	-57.084248	89.99	0.440	-1.120	-0.650	89.97	-2.40	-0.20	 	 	 	 	 	 	 	 	 	 	 	 	 	 	 	 	 	 	1581518054	8.82	16.33
12/02/2020 14:34:15	120220	12022020	143415	89.84	12.418788	-57.084210	89.89	0.230	-1.080	-0.210	89.82	-2.50	0.20	 	 	 	 	 	 	 	 	 	 	 	 	 	 	 	 	 	 	1581518055	8.16	15.11
12/02/2020 14:34:16	120220	12022020	143416	89.83	12.418787	-57.084175	89.93	-0.170	-0.520	0.460	89.84	-2.00	0.80	 	 	 	 	 	 	 	 	 	 	 	 	 	 	 	 	 	 	1581518056	7.38	13.67
12/02/2020 14:34:17	120220	12022020	143417	89.86	12.418785	-57.084142	89.95	-0.270	-0.040	1.210	89.86	-1.50	1.60	 	 	 	 	 	 	 	 	 	 	 	 	 	 	 	 	 	 	1581518057	7.05	13.06
12/02/2020 14:34:18	120220	12022020	143418	89.83	12.418782	-57.084107	89.94	0.040	0.040	1.870	89.83	-1.30	2.20	 	 	 	 	 	 	 	 	 	 	 	 	 	 	 	 	 	 	1581518058	7.42	13.74
12/02/2020 14:34:19	120220	12022020	143419	89.89	12.418782	-57.084068	90.03	0.390	-0.250	2.180	89.91	-1.60	2.60	 	 	 	 	 	 	 	 	 	 	 	 	 	 	 	 	 	 	1581518059	7.94	14.70
12/02/2020 14:34:20	120220	12022020	143420	90.01	12.418780	-57.084030	90.15	0.380	-0.550	2.380	90.03	-1.90	2.80	 	 	 	 	 	 	 	 	 	 	 	 	 	 	 	 	 	 	1581518060	8.31	15.39
12/02/2020 14:34:21	120220	12022020	143421	90.06	12.418780	-57.083992	90.18	-0.090	-0.280	2.610	90.06	-1.70	3.00	 	 	 	 	 	 	 	 	 	 	 	 	 	 	 	 	 	 	1581518061	8.07	14.95
12/02/2020 14:34:22	120220	12022020	143422	90.08	12.418778	-57.083957	90.17	-0.670	0.430	2.360	90.07	-1.10	2.90	 	 	 	 	 	 	 	 	 	 	 	 	 	 	 	 	 	 	1581518062	7.19	13.32
12/02/2020 14:34:23	120220	12022020	143423	90.08	12.418782	-57.083925	90.17	-0.880	0.660	1.650	90.09	-0.70	2.20	 	 	 	 	 	 	 	 	 	 	 	 	 	 	 	 	 	 	1581518063	6.84	12.67
12/02/2020 14:34:24	120220	12022020	143424	90.11	12.418787	-57.083890	90.16	-0.460	-0.150	0.930	90.10	-1.30	1.50	 	 	 	 	 	 	 	 	 	 	 	 	 	 	 	 	 	 	1581518064	7.57	14.02
12/02/2020 14:34:25	120220	12022020	143425	89.97	12.418790	-57.083848	89.97	0.490	-1.600	0.350	89.92	-2.80	0.90	 	 	 	 	 	 	 	 	 	 	 	 	 	 	 	 	 	 	1581518065	8.77	16.24
12/02/2020 14:34:26	120220	12022020	143426	89.70	12.418795	-57.083803	89.71	1.300	-2.030	-0.170	89.67	-3.50	0.40	 	 	 	 	 	 	 	 	 	 	 	 	 	 	 	 	 	 	1581518066	9.39	17.39
12/02/2020 14:34:27	120220	12022020	143427	89.68	12.418802	-57.083767	89.78	1.150	-0.350	-0.610	89.72	-2.10	-0.10	 	 	 	 	 	 	 	 	 	 	 	 	 	 	 	 	 	 	1581518067	7.97	14.76
12/02/2020 14:34:28	120220	12022020	143428	90.05	12.418807	-57.083740	90.24	-0.030	1.810	-0.660	90.17	0.20	-0.20	 	 	 	 	 	 	 	 	 	 	 	 	 	 	 	 	 	 	1581518068	5.77	10.69
12/02/2020 14:34:29	120220	12022020	143429	90.63	12.418808	-57.083713	90.81	-1.270	2.190	-0.100	90.72	0.90	0.20	 	 	 	 	 	 	 	 	 	 	 	 	 	 	 	 	 	 	1581518069	5.52	10.22
12/02/2020 14:34:30	120220	12022020	143430	90.89	12.418802	-57.083678	90.96	-1.520	0.450	1.090	90.87	-0.60	1.40	 	 	 	 	 	 	 	 	 	 	 	 	 	 	 	 	 	 	1581518070	7.57	14.02
12/02/2020 14:34:31	120220	12022020	143431	90.60	12.418793	-57.083635	90.61	-0.520	-1.880	2.430	90.60	-2.90	2.70	 	 	 	 	 	 	 	 	 	 	 	 	 	 	 	 	 	 	1581518071	9.50	17.59
12/02/2020 14:34:32	120220	12022020	143432	90.03	12.418787	-57.083590	90.09	0.790	-2.810	3.710	89.93	-4.20	4.00	 	 	 	 	 	 	 	 	 	 	 	 	 	 	 	 	 	 	1581518072	9.64	17.85
12/02/2020 14:34:33	120220	12022020	143433	89.78	12.418782	-57.083552	90.00	1.300	-1.890	4.340	89.79	-3.50	4.80	 	 	 	 	 	 	 	 	 	 	 	 	 	 	 	 	 	 	1581518073	8.02	14.85
12/02/2020 14:34:34	120220	12022020	143434	90.03	12.418782	-57.083522	90.30	0.840	-0.210	3.980	90.11	-1.80	4.60	 	 	 	 	 	 	 	 	 	 	 	 	 	 	 	 	 	 	1581518074	6.47	11.98
12/02/2020 14:34:35	120220	12022020	143435	90.45	12.418785	-57.083492	90.65	0.100	1.030	2.870	90.51	-0.50	3.50	 	 	 	 	 	 	 	 	 	 	 	 	 	 	 	 	 	 	1581518075	6.24	11.56
12/02/2020 14:34:36	120220	12022020	143436	90.73	12.418792	-57.083460	90.86	-0.330	1.500	1.490	90.78	0.10	2.20	 	 	 	 	 	 	 	 	 	 	 	 	 	 	 	 	 	 	1581518076	7.00	12.96
12/02/2020 14:34:37	120220	12022020	143437	90.85	12.418802	-57.083425	90.89	-0.530	1.170	0.300	90.84	-0.10	0.90	 	 	 	 	 	 	 	 	 	 	 	 	 	 	 	 	 	 	1581518077	7.65	14.17
12/02/2020 14:34:38	120220	12022020	143438	90.72	12.418808	-57.083387	90.74	-0.570	0.030	-0.330	90.69	-1.10	0.20	 	 	 	 	 	 	 	 	 	 	 	 	 	 	 	 	 	 	1581518078	8.09	14.98
12/02/2020 14:34:39	120220	12022020	143439	90.67	12.418810	-57.083347	90.77	-0.420	-1.200	-0.620	90.69	-2.40	-0.10	 	 	 	 	 	 	 	 	 	 	 	 	 	 	 	 	 	 	1581518079	8.53	15.80
12/02/2020 14:34:40	120220	12022020	143440	90.81	12.418810	-57.083307	90.94	-0.090	-1.620	-0.790	90.85	-3.00	-0.30	 	 	 	 	 	 	 	 	 	 	 	 	 	 	 	 	 	 	1581518080	8.35	15.46
12/02/2020 14:34:41	120220	12022020	143441	90.97	12.418810	-57.083272	91.08	0.230	-1.080	-0.720	90.99	-2.60	-0.30	 	 	 	 	 	 	 	 	 	 	 	 	 	 	 	 	 	 	1581518081	7.50	13.89
12/02/2020 14:34:42	120220	12022020	143442	91.08	12.418810	-57.083240	91.17	0.340	-0.140	-0.210	91.09	-1.60	0.20	 	 	 	 	 	 	 	 	 	 	 	 	 	 	 	 	 	 	1581518082	6.75	12.50
12/02/2020 14:34:43	120220	12022020	143443	91.07	12.418808	-57.083208	91.15	0.270	0.370	0.710	91.06	-1.00	1.00	 	 	 	 	 	 	 	 	 	 	 	 	 	 	 	 	 	 	1581518083	6.63	12.28
12/02/2020 14:34:44	120220	12022020	143444	90.97	12.418805	-57.083173	91.06	0.300	0.030	1.630	90.95	-1.20	2.00	 	 	 	 	 	 	 	 	 	 	 	 	 	 	 	 	 	 	1581518084	7.34	13.59
12/02/2020 14:34:45	120220	12022020	143445	90.88	12.418802	-57.083135	90.98	0.390	-0.580	2.300	90.88	-1.90	2.70	 	 	 	 	 	 	 	 	 	 	 	 	 	 	 	 	 	 	1581518085	8.23	15.24
12/02/2020 14:34:46	120220	12022020	143446	90.86	12.418800	-57.083097	90.99	0.230	-0.630	2.730	90.87	-2.00	3.10	 	 	 	 	 	 	 	 	 	 	 	 	 	 	 	 	 	 	1581518086	8.21	15.20
12/02/2020 14:34:47	120220	12022020	143447	90.96	12.418800	-57.083062	91.09	-0.240	-0.170	2.930	90.98	-1.60	3.40	 	 	 	 	 	 	 	 	 	 	 	 	 	 	 	 	 	 	1581518087	7.49	13.87
12/02/2020 14:34:48	120220	12022020	143448	91.02	12.418798	-57.083028	91.13	-0.720	0.320	2.890	91.02	-1.10	3.40	 	 	 	 	 	 	 	 	 	 	 	 	 	 	 	 	 	 	1581518088	6.98	12.93
12/02/2020 14:34:49	120220	12022020	143449	91.06	12.418798	-57.082995	91.17	-0.800	0.350	2.540	91.09	-1.00	3.10	 	 	 	 	 	 	 	 	 	 	 	 	 	 	 	 	 	 	1581518089	7.04	13.04
12/02/2020 14:34:50	120220	12022020	143450	91.25	12.418800	-57.082958	91.36	-0.330	-0.170	1.750	91.30	-1.40	2.30	 	 	 	 	 	 	 	 	 	 	 	 	 	 	 	 	 	 	1581518090	7.62	14.11
12/02/2020 14:34:51	120220	12022020	143451	91.43	12.418803	-57.082920	91.49	0.340	-0.840	0.880	91.45	-2.10	1.50	 	 	 	 	 	 	 	 	 	 	 	 	 	 	 	 	 	 	1581518091	8.22	15.22
12/02/2020 14:34:52	120220	12022020	143452	91.41	12.418807	-57.082882	91.38	0.670	-0.990	0.320	91.38	-2.40	0.90	 	 	 	 	 	 	 	 	 	 	 	 	 	 	 	 	 	 	1581518092	8.27	15.32
12/02/2020 14:34:53	120220	12022020	143453	91.23	12.418810	-57.082845	91.19	0.490	-0.380	-0.070	91.19	-1.90	0.50	 	 	 	 	 	 	 	 	 	 	 	 	 	 	 	 	 	 	1581518093	7.55	13.98
12/02/2020 14:34:54	120220	12022020	143454	91.12	12.418815	-57.082813	91.12	0.080	0.420	-0.560	91.12	-1.00	-0.00	 	 	 	 	 	 	 	 	 	 	 	 	 	 	 	 	 	 	1581518094	6.83	12.65
12/02/2020 14:34:55	120220	12022020	143455	91.19	12.418820	-57.082782	91.24	-0.230	0.480	-0.710	91.23	-0.80	-0.30	 	 	 	 	 	 	 	 	 	 	 	 	 	 	 	 	 	 	1581518095	6.91	12.80
12/02/2020 14:34:56	120220	12022020	143456	91.37	12.418822	-57.082745	91.46	-0.290	-0.220	-0.360	91.42	-1.40	0.00	 	 	 	 	 	 	 	 	 	 	 	 	 	 	 	 	 	 	1581518096	7.73	14.32
12/02/2020 14:34:57	120220	12022020	143457	91.63	12.418818	-57.082705	91.76	-0.240	-0.810	0.240	91.68	-2.10	0.60	 	 	 	 	 	 	 	 	 	 	 	 	 	 	 	 	 	 	1581518097	8.29	15.35
12/02/2020 14:34:58	120220	12022020	143458	91.75	12.418813	-57.082668	91.82	-0.170	-0.780	1.190	91.73	-2.10	1.50	 	 	 	 	 	 	 	 	 	 	 	 	 	 	 	 	 	 	1581518098	7.94	14.70
12/02/2020 14:34:59	120220	12022020	143459	91.44	12.418807	-57.082633	91.44	-0.010	-0.500	2.370	91.35	-1.90	2.70	 	 	 	 	 	 	 	 	 	 	 	 	 	 	 	 	 	 	1581518099	7.42	13.74
12/02/2020 14:35:00	120220	12022020	143500	91.03	12.418802	-57.082598	91.08	0.290	-0.430	3.060	90.98	-1.80	3.50	 	 	 	 	 	 	 	 	 	 	 	 	 	 	 	 	 	 	1581518100	7.49	13.87
12/02/2020 14:35:01	120220	12022020	143501	90.96	12.418800	-57.082562	91.09	0.510	-0.360	2.970	90.98	-1.70	3.50	 	 	 	 	 	 	 	 	 	 	 	 	 	 	 	 	 	 	1581518101	7.83	14.50
12/02/2020 14:35:02	120220	12022020	143502	91.20	12.418803	-57.082525	91.39	0.270	0.110	2.360	91.28	-1.30	2.90	1017.30	26.50	26.50	20.80	20.80	415.0	70.0	71.0	438.0	27.9	348.00	14.10	74.00	10.30	36423	14422.0	27.5	27.5	1581518102	7.73	14.32
12/02/2020 14:35:03	120220	12022020	143503	91.63	12.418808	-57.082492	91.81	-0.380	0.710	1.550	91.72	-0.70	2.10	 	 	 	 	 	 	 	 	 	 	 	 	 	 	 	 	 	 	1581518103	7.11	13.17
12/02/2020 14:35:04	120220	12022020	143504	91.99	12.418812	-57.082460	92.09	-0.900	0.600	0.780	92.03	-0.60	1.40	 	 	 	 	 	 	 	 	 	 	 	 	 	 	 	 	 	 	1581518104	6.91	12.80
12/02/2020 14:35:05	120220	12022020	143505	92.03	12.418813	-57.082423	92.02	-0.660	-0.490	0.420	91.98	-1.60	0.90	 	 	 	 	 	 	 	 	 	 	 	 	 	 	 	 	 	 	1581518105	7.75	14.35
12/02/2020 14:35:06	120220	12022020	143506	91.70	12.418813	-57.082382	91.65	0.230	-1.540	0.450	91.63	-2.70	0.90	 	 	 	 	 	 	 	 	 	 	 	 	 	 	 	 	 	 	1581518106	8.77	16.24
12/02/2020 14:35:07	120220	12022020	143507	91.44	12.418815	-57.082342	91.47	0.940	-1.420	0.250	91.42	-2.80	0.80	 	 	 	 	 	 	 	 	 	 	 	 	 	 	 	 	 	 	1581518107	8.48	15.70
12/02/2020 14:35:08	120220	12022020	143508	91.49	12.418818	-57.082307	91.56	0.810	-0.260	-0.080	91.53	-1.80	0.40	 	 	 	 	 	 	 	 	 	 	 	 	 	 	 	 	 	 	1581518108	7.29	13.50
12/02/2020 14:35:09	120220	12022020	143509	91.68	12.418822	-57.082277	91.78	-0.000	0.910	0.060	91.68	-0.50	0.50	 	 	 	 	 	 	 	 	 	 	 	 	 	 	 	 	 	 	1581518109	6.37	11.80
12/02/2020 14:35:10	120220	12022020	143510	91.86	12.418820	-57.082247	91.95	-0.750	1.060	0.550	91.89	-0.20	0.90	 	 	 	 	 	 	 	 	 	 	 	 	 	 	 	 	 	 	1581518110	6.47	11.98
12/02/2020 14:35:11	120220	12022020	143511	92.01	12.418818	-57.082210	92.08	-0.790	0.010	1.050	92.02	-1.10	1.40	 	 	 	 	 	 	 	 	 	 	 	 	 	 	 	 	 	 	1581518111	7.63	14.13
12/02/2020 14:35:12	120220	12022020	143512	91.99	12.418813	-57.082170	92.05	-0.210	-1.180	1.740	91.97	-2.30	2.10	 	 	 	 	 	 	 	 	 	 	 	 	 	 	 	 	 	 	1581518112	8.74	16.19
12/02/2020 14:35:13	120220	12022020	143513	91.94	12.418808	-57.082128	92.05	0.340	-1.350	2.290	91.96	-2.70	2.70	 	 	 	 	 	 	 	 	 	 	 	 	 	 	 	 	 	 	1581518113	8.57	15.87
12/02/2020 14:35:14	120220	12022020	143514	92.08	12.418805	-57.082095	92.20	0.410	-0.600	2.420	92.12	-2.00	2.90	 	 	 	 	 	 	 	 	 	 	 	 	 	 	 	 	 	 	1581518114	7.37	13.65
12/02/2020 14:35:15	120220	12022020	143515	92.20	12.418805	-57.082063	92.26	0.110	0.070	2.240	92.20	-1.30	2.70	 	 	 	 	 	 	 	 	 	 	 	 	 	 	 	 	 	 	1581518115	6.71	12.43
12/02/2020 14:35:16	120220	12022020	143516	92.08	12.418807	-57.082028	92.06	-0.130	0.140	1.910	92.02	-1.10	2.40	 	 	 	 	 	 	 	 	 	 	 	 	 	 	 	 	 	 	1581518116	7.19	13.32
12/02/2020 14:35:17	120220	12022020	143517	91.79	12.418808	-57.081992	91.78	-0.140	0.020	1.370	91.74	-1.30	1.90	 	 	 	 	 	 	 	 	 	 	 	 	 	 	 	 	 	 	1581518117	7.79	14.43
12/02/2020 14:35:18	120220	12022020	143518	91.70	12.418812	-57.081955	91.77	-0.020	0.070	0.610	91.73	-1.20	1.20	 	 	 	 	 	 	 	 	 	 	 	 	 	 	 	 	 	 	1581518118	7.76	14.37
12/02/2020 14:35:19	120220	12022020	143519	91.96	12.418818	-57.081920	92.06	0.130	-0.040	-0.290	92.04	-1.30	0.30	 	 	 	 	 	 	 	 	 	 	 	 	 	 	 	 	 	 	1581518119	7.60	14.08
12/02/2020 14:35:20	120220	12022020	143520	92.35	12.418823	-57.081883	92.42	0.200	-0.420	-0.890	92.42	-1.60	-0.40	 	 	 	 	 	 	 	 	 	 	 	 	 	 	 	 	 	 	1581518120	7.86	14.56
12/02/2020 14:35:21	120220	12022020	143521	92.53	12.418825	-57.081845	92.53	0.130	-0.810	-0.600	92.53	-2.00	-0.20	 	 	 	 	 	 	 	 	 	 	 	 	 	 	 	 	 	 	1581518121	7.97	14.76
12/02/2020 14:35:22	120220	12022020	143522	92.35	12.418820	-57.081808	92.30	0.080	-0.970	0.400	92.29	-2.20	0.70	 	 	 	 	 	 	 	 	 	 	 	 	 	 	 	 	 	 	1581518122	7.99	14.80
12/02/2020 14:35:23	120220	12022020	143523	92.02	12.418812	-57.081772	92.00	0.090	-0.500	1.410	91.97	-1.90	1.70	 	 	 	 	 	 	 	 	 	 	 	 	 	 	 	 	 	 	1581518123	7.84	14.52
12/02/2020 14:35:24	120220	12022020	143524	91.80	12.418807	-57.081738	91.84	0.040	0.350	1.950	91.79	-1.00	2.40	 	 	 	 	 	 	 	 	 	 	 	 	 	 	 	 	 	 	1581518124	7.08	13.11
12/02/2020 14:35:25	120220	12022020	143525	91.82	12.418807	-57.081707	91.90	-0.120	0.710	2.020	91.85	-0.60	2.50	 	 	 	 	 	 	 	 	 	 	 	 	 	 	 	 	 	 	1581518125	6.79	12.58
12/02/2020 14:35:26	120220	12022020	143526	92.01	12.418808	-57.081672	92.10	-0.380	0.440	1.780	92.06	-0.80	2.30	 	 	 	 	 	 	 	 	 	 	 	 	 	 	 	 	 	 	1581518126	7.39	13.69
12/02/2020 14:35:27	120220	12022020	143527	92.21	12.418810	-57.081635	92.27	-0.630	-0.170	1.580	92.24	-1.30	2.10	 	 	 	 	 	 	 	 	 	 	 	 	 	 	 	 	 	 	1581518127	7.73	14.32
12/02/2020 14:35:28	120220	12022020	143528	92.26	12.418808	-57.081597	92.29	-0.470	-1.000	1.670	92.26	-2.10	2.10	 	 	 	 	 	 	 	 	 	 	 	 	 	 	 	 	 	 	1581518128	8.01	14.83
12/02/2020 14:35:29	120220	12022020	143529	92.21	12.418803	-57.081558	92.22	0.180	-1.490	1.730	92.18	-2.70	2.20	 	 	 	 	 	 	 	 	 	 	 	 	 	 	 	 	 	 	1581518129	8.28	15.33
12/02/2020 14:35:30	120220	12022020	143530	92.07	12.418802	-57.081520	92.06	0.920	-1.290	1.580	92.03	-2.60	2.10	 	 	 	 	 	 	 	 	 	 	 	 	 	 	 	 	 	 	1581518130	7.96	14.74
12/02/2020 14:35:31	120220	12022020	143531	91.92	12.418803	-57.081485	91.94	1.190	-0.600	1.210	91.91	-2.00	1.70	 	 	 	 	 	 	 	 	 	 	 	 	 	 	 	 	 	 	1581518131	7.60	14.08
12/02/2020 14:35:32	120220	12022020	143532	92.07	12.418808	-57.081450	92.20	0.580	0.550	0.640	92.14	-0.90	1.20	 	 	 	 	 	 	 	 	 	 	 	 	 	 	 	 	 	 	1581518132	7.27	13.46
12/02/2020 14:35:33	120220	12022020	143533	92.55	12.418813	-57.081420	92.71	-0.550	1.570	0.230	92.55	0.20	0.70	 	 	 	 	 	 	 	 	 	 	 	 	 	 	 	 	 	 	1581518133	6.51	12.06
12/02/2020 14:35:34	120220	12022020	143534	92.99	12.418813	-57.081390	93.06	-1.270	1.490	0.300	93.04	0.30	0.70	 	 	 	 	 	 	 	 	 	 	 	 	 	 	 	 	 	 	1581518134	6.43	11.91
12/02/2020 14:35:35	120220	12022020	143535	92.97	12.418810	-57.081353	92.94	-0.940	0.140	0.830	92.97	-0.90	1.20	 	 	 	 	 	 	 	 	 	 	 	 	 	 	 	 	 	 	1581518135	7.57	14.02
12/02/2020 14:35:36	120220	12022020	143536	92.69	12.418805	-57.081313	92.69	-0.010	-1.500	1.400	92.65	-2.60	1.80	 	 	 	 	 	 	 	 	 	 	 	 	 	 	 	 	 	 	1581518136	8.74	16.19
12/02/2020 14:35:37	120220	12022020	143537	92.58	12.418802	-57.081272	92.61	0.660	-2.360	1.920	92.57	-3.60	2.30	 	 	 	 	 	 	 	 	 	 	 	 	 	 	 	 	 	 	1581518137	8.83	16.35
12/02/2020 14:35:38	120220	12022020	143538	92.55	12.418797	-57.081233	92.55	0.660	-1.910	2.290	92.54	-3.30	2.70	 	 	 	 	 	 	 	 	 	 	 	 	 	 	 	 	 	 	1581518138	8.02	14.85
12/02/2020 14:35:39	120220	12022020	143539	92.49	12.418795	-57.081202	92.49	0.180	-0.370	2.270	92.48	-1.90	2.80	 	 	 	 	 	 	 	 	 	 	 	 	 	 	 	 	 	 	1581518139	6.84	12.67
12/02/2020 14:35:40	120220	12022020	143540	92.51	12.418793	-57.081173	92.56	-0.340	1.250	1.860	92.54	-0.20	2.40	 	 	 	 	 	 	 	 	 	 	 	 	 	 	 	 	 	 	1581518140	5.99	11.09
12/02/2020 14:35:41	120220	12022020	143541	92.71	12.418795	-57.081143	92.76	-0.560	1.690	1.220	92.76	0.40	1.80	 	 	 	 	 	 	 	 	 	 	 	 	 	 	 	 	 	 	1581518141	6.20	11.48
12/02/2020 14:35:42	120220	12022020	143542	92.91	12.418797	-57.081108	92.91	-0.290	0.630	0.530	92.93	-0.40	1.10	 	 	 	 	 	 	 	 	 	 	 	 	 	 	 	 	 	 	1581518142	7.52	13.93
12/02/2020 14:35:43	120220	12022020	143543	92.92	12.418798	-57.081067	92.86	0.240	-0.810	-0.060	92.90	-1.90	0.50	 	 	 	 	 	 	 	 	 	 	 	 	 	 	 	 	 	 	1581518143	8.77	16.24
12/02/2020 14:35:44	120220	12022020	143544	92.80	12.418802	-57.081027	92.75	0.580	-1.320	-0.320	92.79	-2.60	0.20	 	 	 	 	 	 	 	 	 	 	 	 	 	 	 	 	 	 	1581518144	8.64	16.00
12/02/2020 14:35:45	120220	12022020	143545	92.74	12.418803	-57.080990	92.71	0.450	-0.870	-0.140	92.73	-2.20	0.30	 	 	 	 	 	 	 	 	 	 	 	 	 	 	 	 	 	 	1581518145	7.47	13.83
12/02/2020 14:35:46	120220	12022020	143546	92.72	12.418802	-57.080958	92.72	0.010	-0.200	0.330	92.72	-1.60	0.70	 	 	 	 	 	 	 	 	 	 	 	 	 	 	 	 	 	 	1581518146	6.72	12.45
12/02/2020 14:35:47	120220	12022020	143547	92.75	12.418798	-57.080927	92.80	-0.460	0.170	0.860	92.76	-1.10	1.20	 	 	 	 	 	 	 	 	 	 	 	 	 	 	 	 	 	 	1581518147	6.79	12.58
12/02/2020 14:35:48	120220	12022020	143548	92.80	12.418793	-57.080893	92.83	-0.610	0.020	1.480	92.79	-1.20	1.80	 	 	 	 	 	 	 	 	 	 	 	 	 	 	 	 	 	 	1581518148	7.24	13.41
12/02/2020 14:35:49	120220	12022020	143549	92.65	12.418787	-57.080857	92.63	-0.300	-0.540	2.280	92.60	-1.70	2.60	 	 	 	 	 	 	 	 	 	 	 	 	 	 	 	 	 	 	1581518149	7.89	14.61
12/02/2020 14:35:50	120220	12022020	143550	92.34	12.418780	-57.080818	92.31	0.250	-0.810	2.730	92.26	-2.10	3.20	 	 	 	 	 	 	 	 	 	 	 	 	 	 	 	 	 	 	1581518150	8.21	15.20
12/02/2020 14:35:51	120220	12022020	143551	92.02	12.418777	-57.080782	92.01	0.560	-0.370	2.690	91.98	-1.80	3.20	 	 	 	 	 	 	 	 	 	 	 	 	 	 	 	 	 	 	1581518151	7.70	14.26
12/02/2020 14:35:52	120220	12022020	143552	91.94	12.418778	-57.080750	91.98	0.300	0.470	2.250	91.96	-0.90	2.80	 	 	 	 	 	 	 	 	 	 	 	 	 	 	 	 	 	 	1581518152	6.92	12.82
12/02/2020 14:35:53	120220	12022020	143553	92.10	12.418782	-57.080718	92.16	-0.230	0.730	1.510	92.15	-0.50	2.10	 	 	 	 	 	 	 	 	 	 	 	 	 	 	 	 	 	 	1581518153	6.58	12.19
12/02/2020 14:35:54	120220	12022020	143554	92.26	12.418783	-57.080683	92.23	-0.390	-0.100	0.760	92.25	-1.20	1.30	 	 	 	 	 	 	 	 	 	 	 	 	 	 	 	 	 	 	1581518154	7.31	13.54
12/02/2020 14:35:55	120220	12022020	143555	92.07	12.418785	-57.080643	92.00	0.080	-1.330	0.460	92.01	-2.50	1.00	 	 	 	 	 	 	 	 	 	 	 	 	 	 	 	 	 	 	1581518155	8.50	15.74
12/02/2020 14:35:56	120220	12022020	143556	91.85	12.418787	-57.080602	91.83	0.670	-1.660	0.310	91.82	-3.00	0.80	 	 	 	 	 	 	 	 	 	 	 	 	 	 	 	 	 	 	1581518156	8.73	16.17
12/02/2020 14:35:57	120220	12022020	143557	91.74	12.418788	-57.080567	91.73	0.700	-0.730	0.320	91.73	-2.20	0.80	 	 	 	 	 	 	 	 	 	 	 	 	 	 	 	 	 	 	1581518157	7.64	14.15
12/02/2020 14:35:58	120220	12022020	143558	91.70	12.418788	-57.080537	91.73	0.090	0.640	0.610	91.71	-0.80	1.00	 	 	 	 	 	 	 	 	 	 	 	 	 	 	 	 	 	 	1581518158	6.41	11.87
12/02/2020 14:35:59	120220	12022020	143559	91.84	12.418787	-57.080507	91.92	-0.610	1.280	0.950	91.89	-0.00	1.40	 	 	 	 	 	 	 	 	 	 	 	 	 	 	 	 	 	 	1581518159	6.19	11.46
12/02/2020 14:36:00	120220	12022020	143600	92.11	12.418783	-57.080473	92.20	-0.910	0.880	1.190	92.16	-0.30	1.60	 	 	 	 	 	 	 	 	 	 	 	 	 	 	 	 	 	 	1581518160	7.08	13.11
12/02/2020 14:36:01	120220	12022020	143601	92.26	12.418778	-57.080437	92.29	-0.850	0.030	1.580	92.25	-1.10	2.00	 	 	 	 	 	 	 	 	 	 	 	 	 	 	 	 	 	 	1581518161	7.84	14.52
12/02/2020 14:36:02	120220	12022020	143602	92.09	12.418773	-57.080400	92.07	-0.430	-0.890	1.950	92.02	-2.00	2.40	1017.20	26.50	26.60	21.10	21.10	473.0	71.0	71.0	437.0	27.9	347.00	13.80	74.00	10.00	40380	9351.0	27.5	27.5	1581518162	7.94	14.70
12/02/2020 14:36:03	120220	12022020	143603	91.64	12.418770	-57.080362	91.56	0.380	-1.730	2.180	91.52	-2.90	2.60	 	 	 	 	 	 	 	 	 	 	 	 	 	 	 	 	 	 	1581518163	8.02	14.85
12/02/2020 14:36:04	120220	12022020	143604	91.08	12.418770	-57.080323	91.02	1.160	-1.990	2.290	90.98	-3.30	2.80	 	 	 	 	 	 	 	 	 	 	 	 	 	 	 	 	 	 	1581518164	8.24	15.26
12/02/2020 14:36:05	120220	12022020	143605	90.80	12.418772	-57.080287	90.87	1.240	-1.100	2.050	90.80	-2.60	2.60	 	 	 	 	 	 	 	 	 	 	 	 	 	 	 	 	 	 	1581518165	7.79	14.43
12/02/2020 14:36:06	120220	12022020	143606	90.95	12.418775	-57.080255	91.08	0.550	0.560	1.350	91.02	-1.00	1.90	 	 	 	 	 	 	 	 	 	 	 	 	 	 	 	 	 	 	1581518166	6.69	12.39
12/02/2020 14:36:07	120220	12022020	143607	91.36	12.418780	-57.080227	91.51	-0.420	1.890	0.550	91.46	0.50	1.10	 	 	 	 	 	 	 	 	 	 	 	 	 	 	 	 	 	 	1581518167	6.05	11.20
12/02/2020 14:36:08	120220	12022020	143608	91.80	12.418783	-57.080197	91.91	-1.090	1.890	0.090	91.87	0.70	0.60	 	 	 	 	 	 	 	 	 	 	 	 	 	 	 	 	 	 	1581518168	6.38	11.82
12/02/2020 14:36:09	120220	12022020	143609	92.00	12.418782	-57.080160	92.05	-1.040	0.440	0.130	92.01	-0.60	0.60	 	 	 	 	 	 	 	 	 	 	 	 	 	 	 	 	 	 	1581518169	7.55	13.98
12/02/2020 14:36:10	120220	12022020	143610	91.92	12.418778	-57.080120	91.91	-0.340	-1.480	0.410	91.87	-2.50	0.80	 	 	 	 	 	 	 	 	 	 	 	 	 	 	 	 	 	 	1581518170	8.78	16.26
12/02/2020 14:36:11	120220	12022020	143611	91.62	12.418775	-57.080077	91.58	0.440	-2.460	0.950	91.53	-3.70	1.30	 	 	 	 	 	 	 	 	 	 	 	 	 	 	 	 	 	 	1581518171	8.93	16.54
12/02/2020 14:36:12	120220	12022020	143612	91.20	12.418772	-57.080040	91.18	0.730	-1.840	1.470	91.13	-3.30	1.90	 	 	 	 	 	 	 	 	 	 	 	 	 	 	 	 	 	 	1581518172	7.84	14.52
12/02/2020 14:36:13	120220	12022020	143613	90.93	12.418772	-57.080010	90.99	0.450	-0.110	1.510	90.92	-1.70	2.00	 	 	 	 	 	 	 	 	 	 	 	 	 	 	 	 	 	 	1581518173	6.35	11.76
12/02/2020 14:36:14	120220	12022020	143614	90.99	12.418773	-57.079983	91.10	-0.100	1.280	1.160	91.03	-0.20	1.70	 	 	 	 	 	 	 	 	 	 	 	 	 	 	 	 	 	 	1581518174	5.70	10.56
12/02/2020 14:36:15	120220	12022020	143615	91.24	12.418775	-57.079953	91.35	-0.490	1.210	0.850	91.30	0.00	1.30	 	 	 	 	 	 	 	 	 	 	 	 	 	 	 	 	 	 	1581518175	6.43	11.91
12/02/2020 14:36:16	120220	12022020	143616	91.40	12.418775	-57.079915	91.41	-0.410	-0.110	0.890	91.38	-1.20	1.30	 	 	 	 	 	 	 	 	 	 	 	 	 	 	 	 	 	 	1581518176	7.91	14.65
12/02/2020 14:36:17	120220	12022020	143617	91.19	12.418772	-57.079873	91.12	0.090	-1.340	1.190	91.12	-2.50	1.60	 	 	 	 	 	 	 	 	 	 	 	 	 	 	 	 	 	 	1581518177	8.89	16.46
12/02/2020 14:36:18	120220	12022020	143618	90.85	12.418770	-57.079833	90.82	0.580	-1.390	1.520	90.79	-2.80	1.90	 	 	 	 	 	 	 	 	 	 	 	 	 	 	 	 	 	 	1581518178	8.38	15.52
12/02/2020 14:36:19	120220	12022020	143619	90.67	12.418770	-57.079800	90.70	0.610	-0.440	1.710	90.65	-1.90	2.20	 	 	 	 	 	 	 	 	 	 	 	 	 	 	 	 	 	 	1581518179	7.15	13.24
12/02/2020 14:36:20	120220	12022020	143620	90.73	12.418770	-57.079770	90.82	0.120	0.710	1.600	90.78	-0.70	2.10	 	 	 	 	 	 	 	 	 	 	 	 	 	 	 	 	 	 	1581518180	6.30	11.67
12/02/2020 14:36:21	120220	12022020	143621	91.03	12.418772	-57.079742	91.15	-0.500	1.190	1.230	91.10	-0.10	1.80	 	 	 	 	 	 	 	 	 	 	 	 	 	 	 	 	 	 	1581518181	6.22	11.52
12/02/2020 14:36:22	120220	12022020	143622	91.26	12.418773	-57.079708	91.30	-0.710	0.430	1.060	91.28	-0.70	1.50	 	 	 	 	 	 	 	 	 	 	 	 	 	 	 	 	 	 	1581518182	6.92	12.82
12/02/2020 14:36:23	120220	12022020	143623	91.18	12.418772	-57.079670	91.13	-0.190	-1.090	1.290	91.12	-2.20	1.70	 	 	 	 	 	 	 	 	 	 	 	 	 	 	 	 	 	 	1581518183	8.21	15.20
12/02/2020 14:36:24	120220	12022020	143624	90.85	12.418770	-57.079628	90.79	0.650	-1.980	1.670	90.78	-3.20	2.10	 	 	 	 	 	 	 	 	 	 	 	 	 	 	 	 	 	 	1581518184	8.81	16.32
12/02/2020 14:36:25	120220	12022020	143625	90.57	12.418768	-57.079590	90.58	0.970	-1.410	1.800	90.57	-2.90	2.30	 	 	 	 	 	 	 	 	 	 	 	 	 	 	 	 	 	 	1581518185	8.00	14.82
12/02/2020 14:36:26	120220	12022020	143626	90.64	12.418770	-57.079560	90.73	0.410	0.100	1.620	90.70	-1.40	2.10	 	 	 	 	 	 	 	 	 	 	 	 	 	 	 	 	 	 	1581518186	6.58	12.19
12/02/2020 14:36:27	120220	12022020	143627	91.10	12.418772	-57.079532	91.25	-0.480	1.290	1.130	91.20	-0.10	1.70	 	 	 	 	 	 	 	 	 	 	 	 	 	 	 	 	 	 	1581518187	5.80	10.74
12/02/2020 14:36:28	120220	12022020	143628	91.49	12.418772	-57.079502	91.53	-0.890	1.260	0.760	91.51	0.00	1.30	 	 	 	 	 	 	 	 	 	 	 	 	 	 	 	 	 	 	1581518188	6.30	11.67
12/02/2020 14:36:29	120220	12022020	143629	91.37	12.418772	-57.079467	91.31	-0.540	0.050	0.900	91.30	-1.00	1.30	 	 	 	 	 	 	 	 	 	 	 	 	 	 	 	 	 	 	1581518189	7.54	13.96
12/02/2020 14:36:30	120220	12022020	143630	90.97	12.418772	-57.079425	90.94	0.200	-1.400	1.220	90.90	-2.50	1.60	 	 	 	 	 	 	 	 	 	 	 	 	 	 	 	 	 	 	1581518190	8.63	15.98
12/02/2020 14:36:31	120220	12022020	143631	90.80	12.418770	-57.079385	90.89	0.640	-1.700	1.250	90.81	-3.00	1.70	 	 	 	 	 	 	 	 	 	 	 	 	 	 	 	 	 	 	1581518191	8.58	15.89
12/02/2020 14:36:32	120220	12022020	143632	91.01	12.418772	-57.079352	91.17	0.430	-0.730	1.130	91.08	-2.20	1.60	 	 	 	 	 	 	 	 	 	 	 	 	 	 	 	 	 	 	1581518192	7.18	13.30
12/02/2020 14:36:33	120220	12022020	143633	91.32	12.418772	-57.079322	91.44	-0.070	0.340	1.080	91.37	-1.10	1.50	 	 	 	 	 	 	 	 	 	 	 	 	 	 	 	 	 	 	1581518193	6.11	11.32
12/02/2020 14:36:34	120220	12022020	143634	91.49	12.418772	-57.079292	91.56	-0.240	0.650	1.140	91.51	-0.60	1.60	 	 	 	 	 	 	 	 	 	 	 	 	 	 	 	 	 	 	1581518194	6.45	11.95
12/02/2020 14:36:35	120220	12022020	143635	91.54	12.418770	-57.079257	91.55	-0.020	0.330	1.290	91.53	-0.90	1.70	 	 	 	 	 	 	 	 	 	 	 	 	 	 	 	 	 	 	1581518195	7.32	13.56
12/02/2020 14:36:36	120220	12022020	143636	91.42	12.418768	-57.079220	91.40	0.190	-0.150	1.520	91.38	-1.40	1.90	 	 	 	 	 	 	 	 	 	 	 	 	 	 	 	 	 	 	1581518196	7.76	14.37
12/02/2020 14:36:37	120220	12022020	143637	91.25	12.418767	-57.079183	91.26	0.080	-0.520	1.660	91.23	-1.80	2.10	 	 	 	 	 	 	 	 	 	 	 	 	 	 	 	 	 	 	1581518197	7.68	14.22
12/02/2020 14:36:38	120220	12022020	143638	91.14	12.418767	-57.079148	91.13	-0.220	-0.550	1.760	91.12	-1.90	2.20	 	 	 	 	 	 	 	 	 	 	 	 	 	 	 	 	 	 	1581518198	7.38	13.67
12/02/2020 14:36:39	120220	12022020	143639	91.00	12.418767	-57.079115	90.98	-0.390	-0.360	1.750	90.97	-1.70	2.20	 	 	 	 	 	 	 	 	 	 	 	 	 	 	 	 	 	 	1581518199	7.05	13.06
12/02/2020 14:36:40	120220	12022020	143640	90.88	12.418767	-57.079083	90.89	-0.180	-0.380	1.530	90.87	-1.60	2.00	 	 	 	 	 	 	 	 	 	 	 	 	 	 	 	 	 	 	1581518200	7.04	13.04
12/02/2020 14:36:41	120220	12022020	143641	90.83	12.418767	-57.079047	90.85	0.310	-0.670	1.350	90.82	-1.90	1.80	 	 	 	 	 	 	 	 	 	 	 	 	 	 	 	 	 	 	1581518201	7.54	13.96
12/02/2020 14:36:42	120220	12022020	143642	90.82	12.418767	-57.079010	90.89	0.570	-0.620	1.170	90.85	-2.00	1.70	 	 	 	 	 	 	 	 	 	 	 	 	 	 	 	 	 	 	1581518202	7.82	14.48
12/02/2020 14:36:43	120220	12022020	143643	90.97	12.418770	-57.078975	91.02	0.210	0.050	0.810	90.99	-1.40	1.30	 	 	 	 	 	 	 	 	 	 	 	 	 	 	 	 	 	 	1581518203	7.26	13.45
12/02/2020 14:36:44	120220	12022020	143644	91.01	12.418772	-57.078945	91.02	-0.460	0.700	0.770	90.98	-0.70	1.20	 	 	 	 	 	 	 	 	 	 	 	 	 	 	 	 	 	 	1581518204	6.46	11.96
12/02/2020 14:36:45	120220	12022020	143645	90.81	12.418768	-57.078913	90.80	-0.650	0.430	1.120	90.76	-0.70	1.50	 	 	 	 	 	 	 	 	 	 	 	 	 	 	 	 	 	 	1581518205	6.61	12.24
12/02/2020 14:36:46	120220	12022020	143646	90.58	12.418767	-57.078877	90.61	0.000	-0.720	1.390	90.55	-1.80	1.80	 	 	 	 	 	 	 	 	 	 	 	 	 	 	 	 	 	 	1581518206	7.84	14.52
12/02/2020 14:36:47	120220	12022020	143647	90.53	12.418765	-57.078837	90.66	0.720	-1.230	1.320	90.56	-2.50	1.80	 	 	 	 	 	 	 	 	 	 	 	 	 	 	 	 	 	 	1581518207	8.59	15.91
12/02/2020 14:36:48	120220	12022020	143648	90.76	12.418768	-57.078802	90.92	0.600	-0.380	1.100	90.82	-1.80	1.60	 	 	 	 	 	 	 	 	 	 	 	 	 	 	 	 	 	 	1581518208	7.43	13.76
12/02/2020 14:36:49	120220	12022020	143649	91.03	12.418772	-57.078773	91.16	-0.270	0.790	1.180	91.07	-0.60	1.60	 	 	 	 	 	 	 	 	 	 	 	 	 	 	 	 	 	 	1581518209	5.87	10.87
12/02/2020 14:36:50	120220	12022020	143650	91.12	12.418770	-57.078747	91.16	-0.880	0.790	1.670	91.10	-0.40	2.00	 	 	 	 	 	 	 	 	 	 	 	 	 	 	 	 	 	 	1581518210	5.80	10.74
12/02/2020 14:36:51	120220	12022020	143651	90.97	12.418765	-57.078712	91.00	-0.500	-0.510	2.240	90.93	-1.60	2.60	 	 	 	 	 	 	 	 	 	 	 	 	 	 	 	 	 	 	1581518211	7.40	13.70
12/02/2020 14:36:52	120220	12022020	143652	90.76	12.418762	-57.078670	90.78	0.450	-1.720	2.490	90.73	-2.90	2.90	 	 	 	 	 	 	 	 	 	 	 	 	 	 	 	 	 	 	1581518212	8.62	15.96
12/02/2020 14:36:53	120220	12022020	143653	90.56	12.418762	-57.078632	90.59	0.980	-1.610	2.570	90.52	-3.00	3.00	 	 	 	 	 	 	 	 	 	 	 	 	 	 	 	 	 	 	1581518213	8.23	15.24
12/02/2020 14:36:54	120220	12022020	143654	90.46	12.418762	-57.078600	90.53	0.530	-0.290	2.490	90.46	-1.80	3.00	 	 	 	 	 	 	 	 	 	 	 	 	 	 	 	 	 	 	1581518214	6.79	12.58
12/02/2020 14:36:55	120220	12022020	143655	90.63	12.418763	-57.078573	90.76	-0.470	1.030	2.020	90.70	-0.40	2.60	 	 	 	 	 	 	 	 	 	 	 	 	 	 	 	 	 	 	1581518215	5.74	10.63
12/02/2020 14:36:56	120220	12022020	143656	91.07	12.418765	-57.078545	91.21	-1.160	1.380	1.190	91.18	0.10	1.80	 	 	 	 	 	 	 	 	 	 	 	 	 	 	 	 	 	 	1581518216	5.96	11.04
12/02/2020 14:36:57	120220	12022020	143657	91.47	12.418768	-57.078512	91.52	-0.940	0.700	0.440	91.51	-0.50	1.00	 	 	 	 	 	 	 	 	 	 	 	 	 	 	 	 	 	 	1581518217	6.90	12.78
12/02/2020 14:36:58	120220	12022020	143658	91.45	12.418770	-57.078475	91.39	0.080	-0.670	0.210	91.39	-1.80	0.70	 	 	 	 	 	 	 	 	 	 	 	 	 	 	 	 	 	 	1581518218	7.83	14.50
12/02/2020 14:36:59	120220	12022020	143659	91.10	12.418770	-57.078435	91.02	1.100	-1.760	0.230	91.02	-3.00	0.70	 	 	 	 	 	 	 	 	 	 	 	 	 	 	 	 	 	 	1581518219	8.43	15.61
12/02/2020 14:37:00	120220	12022020	143700	90.79	12.418772	-57.078397	90.80	1.250	-1.610	0.410	90.76	-3.00	0.80	 	 	 	 	 	 	 	 	 	 	 	 	 	 	 	 	 	 	1581518220	8.00	14.82
12/02/2020 14:37:01	120220	12022020	143701	90.82	12.418773	-57.078367	90.96	0.320	-0.240	0.830	90.88	-1.80	1.20	 	 	 	 	 	 	 	 	 	 	 	 	 	 	 	 	 	 	1581518221	6.63	12.28
12/02/2020 14:37:02	120220	12022020	143702	91.18	12.418772	-57.078340	91.34	-0.930	1.230	1.330	91.26	-0.30	1.70	1017.30	26.50	26.50	20.90	20.90	517.0	71.0	71.0	436.0	27.9	344.00	14.20	70.00	10.70	43472	11740.0	27.5	27.5	1581518222	5.43	10.06
12/02/2020 14:37:03	120220	12022020	143703	91.49	12.418767	-57.078313	91.61	-1.370	1.430	1.820	91.53	0.20	2.20	 	 	 	 	 	 	 	 	 	 	 	 	 	 	 	 	 	 	1581518223	5.69	10.54
12/02/2020 14:37:04	120220	12022020	143704	91.69	12.418760	-57.078280	91.81	-0.670	0.210	2.070	91.74	-0.90	2.50	 	 	 	 	 	 	 	 	 	 	 	 	 	 	 	 	 	 	1581518224	7.26	13.45
12/02/2020 14:37:05	120220	12022020	143705	91.92	12.418757	-57.078240	92.00	0.440	-1.160	2.080	91.95	-2.30	2.60	 	 	 	 	 	 	 	 	 	 	 	 	 	 	 	 	 	 	1581518225	8.35	15.46
12/02/2020 14:37:06	120220	12022020	143706	91.91	12.418757	-57.078202	91.85	1.040	-1.650	2.000	91.85	-2.90	2.50	 	 	 	 	 	 	 	 	 	 	 	 	 	 	 	 	 	 	1581518226	8.12	15.04
12/02/2020 14:37:07	120220	12022020	143707	91.43	12.418758	-57.078168	91.29	0.790	-1.040	1.930	91.31	-2.50	2.40	 	 	 	 	 	 	 	 	 	 	 	 	 	 	 	 	 	 	1581518227	7.16	13.26
12/02/2020 14:37:08	120220	12022020	143708	90.87	12.418760	-57.078138	90.78	0.010	0.150	1.710	90.80	-1.40	2.20	 	 	 	 	 	 	 	 	 	 	 	 	 	 	 	 	 	 	1581518228	6.23	11.54
12/02/2020 14:37:09	120220	12022020	143709	90.73	12.418763	-57.078112	90.77	-0.610	0.870	1.040	90.76	-0.50	1.60	 	 	 	 	 	 	 	 	 	 	 	 	 	 	 	 	 	 	1581518229	5.94	11.00
12/02/2020 14:37:10	120220	12022020	143710	90.97	12.418767	-57.078080	91.03	-0.670	0.580	0.230	91.02	-0.60	0.80	 	 	 	 	 	 	 	 	 	 	 	 	 	 	 	 	 	 	1581518230	6.66	12.33
12/02/2020 14:37:11	120220	12022020	143711	91.10	12.418768	-57.078043	91.07	-0.250	-0.380	-0.170	91.08	-1.50	0.30	 	 	 	 	 	 	 	 	 	 	 	 	 	 	 	 	 	 	1581518231	7.63	14.13
12/02/2020 14:37:12	120220	12022020	143712	90.78	12.418768	-57.078005	90.67	0.270	-1.130	0.050	90.67	-2.40	0.40	 	 	 	 	 	 	 	 	 	 	 	 	 	 	 	 	 	 	1581518232	8.10	15.00
12/02/2020 14:37:13	120220	12022020	143713	90.38	12.418767	-57.077970	90.40	0.430	-0.900	0.560	90.35	-2.30	0.90	 	 	 	 	 	 	 	 	 	 	 	 	 	 	 	 	 	 	1581518233	7.68	14.22
12/02/2020 14:37:14	120220	12022020	143714	90.37	12.418765	-57.077938	90.49	0.100	0.160	1.260	90.41	-1.30	1.60	 	 	 	 	 	 	 	 	 	 	 	 	 	 	 	 	 	 	1581518234	6.51	12.06
12/02/2020 14:37:15	120220	12022020	143715	90.53	12.418760	-57.077912	90.64	-0.380	0.930	1.830	90.53	-0.40	2.20	 	 	 	 	 	 	 	 	 	 	 	 	 	 	 	 	 	 	1581518235	5.78	10.70
12/02/2020 14:37:16	120220	12022020	143716	90.61	12.418758	-57.077882	90.72	-0.470	0.530	2.000	90.62	-0.70	2.40	 	 	 	 	 	 	 	 	 	 	 	 	 	 	 	 	 	 	1581518236	6.34	11.74
12/02/2020 14:37:17	120220	12022020	143717	90.55	12.418757	-57.077847	90.60	-0.040	-0.590	2.280	90.51	-1.70	2.70	 	 	 	 	 	 	 	 	 	 	 	 	 	 	 	 	 	 	1581518237	7.58	14.04
12/02/2020 14:37:18	120220	12022020	143718	90.29	12.418755	-57.077808	90.31	0.480	-1.280	2.730	90.22	-2.50	3.10	 	 	 	 	 	 	 	 	 	 	 	 	 	 	 	 	 	 	1581518238	8.04	14.89
12/02/2020 14:37:19	120220	12022020	143719	89.98	12.418755	-57.077772	90.00	0.680	-1.190	2.810	89.92	-2.60	3.30	 	 	 	 	 	 	 	 	 	 	 	 	 	 	 	 	 	 	1581518239	7.48	13.85
12/02/2020 14:37:20	120220	12022020	143720	89.80	12.418755	-57.077740	89.86	0.450	-0.580	2.520	89.79	-2.00	3.00	 	 	 	 	 	 	 	 	 	 	 	 	 	 	 	 	 	 	1581518240	6.87	12.72
12/02/2020 14:37:21	120220	12022020	143721	89.87	12.418758	-57.077710	89.98	-0.030	0.260	2.000	89.91	-1.20	2.60	 	 	 	 	 	 	 	 	 	 	 	 	 	 	 	 	 	 	1581518241	6.49	12.02
12/02/2020 14:37:22	120220	12022020	143722	90.07	12.418760	-57.077680	90.15	-0.470	0.860	1.270	90.10	-0.50	1.90	 	 	 	 	 	 	 	 	 	 	 	 	 	 	 	 	 	 	1581518242	6.26	11.59
12/02/2020 14:37:23	120220	12022020	143723	90.23	12.418765	-57.077650	90.29	-0.610	0.760	0.540	90.25	-0.50	1.10	 	 	 	 	 	 	 	 	 	 	 	 	 	 	 	 	 	 	1581518243	6.53	12.09
12/02/2020 14:37:24	120220	12022020	143724	90.35	12.418768	-57.077615	90.40	-0.340	-0.150	0.130	90.37	-1.30	0.60	 	 	 	 	 	 	 	 	 	 	 	 	 	 	 	 	 	 	1581518244	7.23	13.39
12/02/2020 14:37:25	120220	12022020	143725	90.35	12.418770	-57.077578	90.34	0.150	-1.270	0.170	90.32	-2.50	0.60	 	 	 	 	 	 	 	 	 	 	 	 	 	 	 	 	 	 	1581518245	7.98	14.78
12/02/2020 14:37:26	120220	12022020	143726	90.12	12.418768	-57.077540	90.09	0.580	-1.700	0.510	90.06	-3.00	0.90	 	 	 	 	 	 	 	 	 	 	 	 	 	 	 	 	 	 	1581518246	8.06	14.93
12/02/2020 14:37:27	120220	12022020	143727	89.91	12.418767	-57.077505	89.94	0.720	-1.000	0.690	89.90	-2.50	1.10	 	 	 	 	 	 	 	 	 	 	 	 	 	 	 	 	 	 	1581518247	7.32	13.56
12/02/2020 14:37:28	120220	12022020	143728	89.97	12.418770	-57.077475	90.07	0.330	0.340	0.810	90.01	-1.20	1.30	 	 	 	 	 	 	 	 	 	 	 	 	 	 	 	 	 	 	1581518248	6.27	11.61
12/02/2020 14:37:29	120220	12022020	143729	90.20	12.418770	-57.077448	90.33	-0.480	1.370	1.010	90.26	-0.10	1.40	 	 	 	 	 	 	 	 	 	 	 	 	 	 	 	 	 	 	1581518249	5.76	10.67
12/02/2020 14:37:30	120220	12022020	143730	90.50	12.418768	-57.077420	90.63	-1.090	1.290	1.270	90.57	0.00	1.70	 	 	 	 	 	 	 	 	 	 	 	 	 	 	 	 	 	 	1581518250	6.07	11.24
12/02/2020 14:37:31	120220	12022020	143731	90.78	12.418765	-57.077385	90.87	-0.820	-0.030	1.450	90.81	-1.10	1.90	 	 	 	 	 	 	 	 	 	 	 	 	 	 	 	 	 	 	1581518251	7.23	13.39
12/02/2020 14:37:32	120220	12022020	143732	90.78	12.418763	-57.077347	90.81	0.130	-1.480	1.820	90.74	-2.60	2.20	 	 	 	 	 	 	 	 	 	 	 	 	 	 	 	 	 	 	1581518252	8.31	15.39
12/02/2020 14:37:33	120220	12022020	143733	90.52	12.418760	-57.077307	90.53	0.880	-1.860	2.270	90.46	-3.20	2.70	 	 	 	 	 	 	 	 	 	 	 	 	 	 	 	 	 	 	1581518253	8.18	15.15
12/02/2020 14:37:34	120220	12022020	143734	90.24	12.418758	-57.077273	90.24	0.900	-1.110	2.530	90.18	-2.60	3.00	 	 	 	 	 	 	 	 	 	 	 	 	 	 	 	 	 	 	1581518254	7.06	13.08
12/02/2020 14:37:35	120220	12022020	143735	89.96	12.418758	-57.077245	89.98	0.410	-0.050	2.460	89.91	-1.50	3.00	 	 	 	 	 	 	 	 	 	 	 	 	 	 	 	 	 	 	1581518255	6.18	11.45
12/02/2020 14:37:36	120220	12022020	143736	89.81	12.418762	-57.077215	89.88	-0.170	0.730	1.890	89.81	-0.70	2.50	 	 	 	 	 	 	 	 	 	 	 	 	 	 	 	 	 	 	1581518256	6.21	11.50
12/02/2020 14:37:37	120220	12022020	143737	89.95	12.418767	-57.077185	90.08	-0.570	1.020	0.930	90.02	-0.30	1.60	 	 	 	 	 	 	 	 	 	 	 	 	 	 	 	 	 	 	1581518257	6.49	12.02
12/02/2020 14:37:38	120220	12022020	143738	90.34	12.418773	-57.077153	90.49	-0.680	0.620	0.070	90.43	-0.60	0.70	 	 	 	 	 	 	 	 	 	 	 	 	 	 	 	 	 	 	1581518258	6.83	12.65
12/02/2020 14:37:39	120220	12022020	143739	90.73	12.418777	-57.077120	90.80	-0.450	-0.300	-0.320	90.73	-1.50	0.20	 	 	 	 	 	 	 	 	 	 	 	 	 	 	 	 	 	 	1581518259	7.23	13.39
12/02/2020 14:37:40	120220	12022020	143740	90.71	12.418775	-57.077083	90.65	0.090	-1.360	-0.050	90.64	-2.50	0.30	 	 	 	 	 	 	 	 	 	 	 	 	 	 	 	 	 	 	1581518260	7.57	14.02
12/02/2020 14:37:41	120220	12022020	143741	90.18	12.418772	-57.077047	90.08	0.690	-1.930	0.770	90.06	-3.20	1.10	 	 	 	 	 	 	 	 	 	 	 	 	 	 	 	 	 	 	1581518261	7.78	14.41
12/02/2020 14:37:42	120220	12022020	143742	89.65	12.418767	-57.077013	89.64	0.840	-1.250	1.490	89.59	-2.80	1.90	 	 	 	 	 	 	 	 	 	 	 	 	 	 	 	 	 	 	1581518262	7.33	13.58
12/02/2020 14:37:43	120220	12022020	143743	89.52	12.418765	-57.076985	89.61	0.290	0.550	1.760	89.54	-1.10	2.20	 	 	 	 	 	 	 	 	 	 	 	 	 	 	 	 	 	 	1581518263	5.90	10.93
12/02/2020 14:37:44	120220	12022020	143744	89.82	12.418767	-57.076963	90.00	-0.620	2.000	1.560	89.92	0.50	2.10	 	 	 	 	 	 	 	 	 	 	 	 	 	 	 	 	 	 	1581518264	4.74	8.78
12/02/2020 14:37:45	120220	12022020	143745	90.33	12.418770	-57.076938	90.47	-1.190	1.700	1.220	90.41	0.50	1.70	 	 	 	 	 	 	 	 	 	 	 	 	 	 	 	 	 	 	1581518265	5.26	9.74
12/02/2020 14:37:46	120220	12022020	143746	90.58	12.418770	-57.076905	90.59	-0.880	-0.280	1.140	90.56	-1.30	1.60	 	 	 	 	 	 	 	 	 	 	 	 	 	 	 	 	 	 	1581518266	6.98	12.93
12/02/2020 14:37:47	120220	12022020	143747	90.26	12.418768	-57.076865	90.16	0.130	-2.370	1.530	90.14	-3.40	1.90	 	 	 	 	 	 	 	 	 	 	 	 	 	 	 	 	 	 	1581518267	8.46	15.67
12/02/2020 14:37:48	120220	12022020	143748	89.62	12.418763	-57.076827	89.55	1.080	-2.710	2.080	89.51	-4.10	2.50	 	 	 	 	 	 	 	 	 	 	 	 	 	 	 	 	 	 	1581518268	8.20	15.19
12/02/2020 14:37:49	120220	12022020	143749	89.31	12.418762	-57.076797	89.40	1.240	-1.190	2.120	89.32	-2.80	2.60	 	 	 	 	 	 	 	 	 	 	 	 	 	 	 	 	 	 	1581518269	6.27	11.61
12/02/2020 14:37:50	120220	12022020	143750	89.61	12.418765	-57.076775	89.79	0.570	0.790	1.520	89.70	-0.80	2.10	 	 	 	 	 	 	 	 	 	 	 	 	 	 	 	 	 	 	1581518270	4.74	8.78
12/02/2020 14:37:51	120220	12022020	143751	90.08	12.418770	-57.076753	90.22	-0.440	1.920	0.830	90.17	0.50	1.40	 	 	 	 	 	 	 	 	 	 	 	 	 	 	 	 	 	 	1581518271	4.65	8.61
12/02/2020 14:37:52	120220	12022020	143752	90.37	12.418773	-57.076728	90.41	-1.080	1.610	0.420	90.38	0.40	0.90	 	 	 	 	 	 	 	 	 	 	 	 	 	 	 	 	 	 	1581518272	5.37	9.95
12/02/2020 14:37:53	120220	12022020	143753	90.25	12.418773	-57.076697	90.18	-0.820	-0.110	0.360	90.18	-1.20	0.80	 	 	 	 	 	 	 	 	 	 	 	 	 	 	 	 	 	 	1581518273	6.64	12.30
12/02/2020 14:37:54	120220	12022020	143754	89.78	12.418773	-57.076660	89.72	0.030	-1.840	0.670	89.70	-3.00	1.10	 	 	 	 	 	 	 	 	 	 	 	 	 	 	 	 	 	 	1581518274	7.84	14.52
12/02/2020 14:37:55	120220	12022020	143755	89.47	12.418772	-57.076625	89.52	0.550	-2.020	1.090	89.46	-3.40	1.50	 	 	 	 	 	 	 	 	 	 	 	 	 	 	 	 	 	 	1581518275	7.39	13.69
12/02/2020 14:37:56	120220	12022020	143756	89.61	12.418770	-57.076598	89.77	0.370	-0.770	1.410	89.68	-2.40	1.80	 	 	 	 	 	 	 	 	 	 	 	 	 	 	 	 	 	 	1581518276	5.62	10.41
12/02/2020 14:37:57	120220	12022020	143757	90.01	12.418768	-57.076577	90.16	-0.080	0.420	1.640	90.08	-1.10	2.10	 	 	 	 	 	 	 	 	 	 	 	 	 	 	 	 	 	 	1581518277	4.54	8.41
12/02/2020 14:37:58	120220	12022020	143758	90.25	12.418765	-57.076552	90.32	-0.150	0.550	1.840	90.27	-0.80	2.30	 	 	 	 	 	 	 	 	 	 	 	 	 	 	 	 	 	 	1581518278	5.14	9.52
12/02/2020 14:37:59	120220	12022020	143759	90.29	12.418763	-57.076523	90.32	0.090	0.060	2.020	90.27	-1.20	2.40	 	 	 	 	 	 	 	 	 	 	 	 	 	 	 	 	 	 	1581518279	6.27	11.61
12/02/2020 14:38:00	120220	12022020	143800	90.08	12.418762	-57.076492	90.06	0.310	-0.230	2.320	90.01	-1.60	2.70	 	 	 	 	 	 	 	 	 	 	 	 	 	 	 	 	 	 	1581518280	6.51	12.06
12/02/2020 14:38:01	120220	12022020	143801	89.67	12.418760	-57.076463	89.64	0.320	-0.140	2.360	89.58	-1.50	2.80	 	 	 	 	 	 	 	 	 	 	 	 	 	 	 	 	 	 	1581518281	6.02	11.15
12/02/2020 14:38:02	120220	12022020	143802	89.39	12.418763	-57.076437	89.45	0.130	-0.010	1.870	89.39	-1.40	2.40	1017.20	26.40	26.40	20.60	20.70	600.0	70.0	70.0	434.0	28.0	342.00	14.00	67.00	10.80	48787	12519.0	27.5	27.5	1581518282	5.58	10.33
12/02/2020 14:38:03	120220	12022020	143803	89.56	12.418768	-57.076410	89.70	-0.070	-0.260	1.180	89.64	-1.60	1.70	 	 	 	 	 	 	 	 	 	 	 	 	 	 	 	 	 	 	1581518283	5.71	10.57
12/02/2020 14:38:04	120220	12022020	143804	89.98	12.418772	-57.076382	90.12	-0.240	-0.600	0.730	90.06	-1.90	1.30	 	 	 	 	 	 	 	 	 	 	 	 	 	 	 	 	 	 	1581518284	6.06	11.22
12/02/2020 14:38:05	120220	12022020	143805	90.30	12.418772	-57.076355	90.37	-0.400	-0.490	0.520	90.30	-1.90	1.00	 	 	 	 	 	 	 	 	 	 	 	 	 	 	 	 	 	 	1581518285	5.84	10.82
12/02/2020 14:38:06	120220	12022020	143806	90.24	12.418770	-57.076330	90.19	-0.380	-0.140	0.750	90.16	-1.60	1.10	 	 	 	 	 	 	 	 	 	 	 	 	 	 	 	 	 	 	1581518286	5.27	9.76
12/02/2020 14:38:07	120220	12022020	143807	89.61	12.418767	-57.076305	89.46	0.000	-0.230	1.490	89.45	-1.50	1.80	 	 	 	 	 	 	 	 	 	 	 	 	 	 	 	 	 	 	1581518287	5.30	9.82
12/02/2020 14:38:08	120220	12022020	143808	88.83	12.418762	-57.076277	88.80	0.580	-0.710	2.040	88.73	-2.00	2.50	 	 	 	 	 	 	 	 	 	 	 	 	 	 	 	 	 	 	1581518288	6.06	11.22
12/02/2020 14:38:09	120220	12022020	143809	88.71	12.418762	-57.076247	88.88	0.840	-0.760	1.790	88.78	-2.20	2.30	 	 	 	 	 	 	 	 	 	 	 	 	 	 	 	 	 	 	1581518289	6.29	11.65
12/02/2020 14:38:10	120220	12022020	143810	89.15	12.418767	-57.076222	89.36	0.440	-0.060	1.210	89.25	-1.60	1.80	 	 	 	 	 	 	 	 	 	 	 	 	 	 	 	 	 	 	1581518290	5.56	10.30
12/02/2020 14:38:11	120220	12022020	143811	89.50	12.418770	-57.076198	89.57	-0.290	0.630	0.930	89.51	-0.80	1.40	 	 	 	 	 	 	 	 	 	 	 	 	 	 	 	 	 	 	1581518291	4.71	8.72
12/02/2020 14:38:12	120220	12022020	143812	89.39	12.418770	-57.076177	89.37	-0.750	0.600	1.190	89.32	-0.70	1.60	 	 	 	 	 	 	 	 	 	 	 	 	 	 	 	 	 	 	1581518292	4.85	8.98
12/02/2020 14:38:13	120220	12022020	143813	89.02	12.418767	-57.076150	89.03	-0.730	0.060	1.700	88.96	-1.20	2.10	 	 	 	 	 	 	 	 	 	 	 	 	 	 	 	 	 	 	1581518293	5.67	10.50
12/02/2020 14:38:14	120220	12022020	143814	88.85	12.418763	-57.076122	88.96	-0.460	-0.450	1.960	88.85	-1.80	2.40	 	 	 	 	 	 	 	 	 	 	 	 	 	 	 	 	 	 	1581518294	5.89	10.91
12/02/2020 14:38:15	120220	12022020	143815	88.97	12.418762	-57.076095	89.10	-0.020	-0.740	1.800	89.00	-2.10	2.30	 	 	 	 	 	 	 	 	 	 	 	 	 	 	 	 	 	 	1581518295	5.56	10.30
12/02/2020 14:38:16	120220	12022020	143816	89.07	12.418763	-57.076070	89.14	0.570	-0.930	1.540	89.06	-2.30	2.00	 	 	 	 	 	 	 	 	 	 	 	 	 	 	 	 	 	 	1581518296	5.33	9.87
12/02/2020 14:38:17	120220	12022020	143817	88.95	12.418765	-57.076045	88.98	1.060	-0.980	1.390	88.91	-2.40	1.90	 	 	 	 	 	 	 	 	 	 	 	 	 	 	 	 	 	 	1581518297	5.54	10.26
12/02/2020 14:38:18	120220	12022020	143818	88.75	12.418768	-57.076018	88.78	0.930	-0.530	1.390	88.72	-2.00	1.80	 	 	 	 	 	 	 	 	 	 	 	 	 	 	 	 	 	 	1581518298	5.52	10.22
12/02/2020 14:38:19	120220	12022020	143819	88.65	12.418770	-57.075995	88.74	0.160	0.350	1.660	88.66	-1.20	2.10	 	 	 	 	 	 	 	 	 	 	 	 	 	 	 	 	 	 	1581518299	4.82	8.93
12/02/2020 14:38:20	120220	12022020	143820	88.76	12.418768	-57.075975	88.86	-0.700	0.940	1.910	88.79	-0.50	2.40	 	 	 	 	 	 	 	 	 	 	 	 	 	 	 	 	 	 	1581518300	4.31	7.98
12/02/2020 14:38:21	120220	12022020	143821	88.82	12.418767	-57.075953	88.87	-0.950	0.480	2.020	88.79	-0.80	2.50	 	 	 	 	 	 	 	 	 	 	 	 	 	 	 	 	 	 	1581518301	4.78	8.85
12/02/2020 14:38:22	120220	12022020	143822	88.67	12.418765	-57.075925	88.73	-0.570	-0.460	1.990	88.65	-1.70	2.50	 	 	 	 	 	 	 	 	 	 	 	 	 	 	 	 	 	 	1581518302	5.88	10.89
12/02/2020 14:38:23	120220	12022020	143823	88.75	12.418767	-57.075897	88.94	-0.190	-0.700	1.850	88.83	-2.10	2.30	 	 	 	 	 	 	 	 	 	 	 	 	 	 	 	 	 	 	1581518303	5.95	11.02
12/02/2020 14:38:24	120220	12022020	143824	89.23	12.418765	-57.075873	89.46	-0.190	-0.190	1.770	89.34	-1.70	2.20	 	 	 	 	 	 	 	 	 	 	 	 	 	 	 	 	 	 	1581518304	4.82	8.93
12/02/2020 14:38:25	120220	12022020	143825	89.67	12.418763	-57.075855	89.78	-0.300	-0.000	1.690	89.70	-1.40	2.10	 	 	 	 	 	 	 	 	 	 	 	 	 	 	 	 	 	 	1581518305	4.18	7.74
12/02/2020 14:38:26	120220	12022020	143826	89.52	12.418760	-57.075832	89.47	0.080	-0.750	1.750	89.42	-2.00	2.20	 	 	 	 	 	 	 	 	 	 	 	 	 	 	 	 	 	 	1581518306	4.98	9.22
12/02/2020 14:38:27	120220	12022020	143827	88.89	12.418758	-57.075802	88.79	0.880	-1.530	1.830	88.75	-2.80	2.30	 	 	 	 	 	 	 	 	 	 	 	 	 	 	 	 	 	 	1581518307	6.15	11.39
12/02/2020 14:38:28	120220	12022020	143828	88.31	12.418760	-57.075773	88.31	1.320	-1.100	1.640	88.25	-2.60	2.20	 	 	 	 	 	 	 	 	 	 	 	 	 	 	 	 	 	 	1581518308	6.00	11.11
12/02/2020 14:38:29	120220	12022020	143829	88.35	12.418767	-57.075753	88.53	0.760	0.530	0.860	88.44	-1.10	1.50	 	 	 	 	 	 	 	 	 	 	 	 	 	 	 	 	 	 	1581518309	4.64	8.59
12/02/2020 14:38:30	120220	12022020	143830	89.02	12.418775	-57.075738	89.23	-0.500	1.940	-0.070	89.17	0.40	0.50	 	 	 	 	 	 	 	 	 	 	 	 	 	 	 	 	 	 	1581518310	3.56	6.59
12/02/2020 14:38:31	120220	12022020	143831	89.72	12.418778	-57.075722	89.84	-1.460	1.730	-0.340	89.81	0.50	0.10	 	 	 	 	 	 	 	 	 	 	 	 	 	 	 	 	 	 	1581518311	3.57	6.61
12/02/2020 14:38:32	120220	12022020	143832	90.03	12.418777	-57.075697	90.07	-1.280	-0.300	0.190	90.04	-1.30	0.50	 	 	 	 	 	 	 	 	 	 	 	 	 	 	 	 	 	 	1581518312	5.28	9.78
12/02/2020 14:38:33	120220	12022020	143833	90.00	12.418767	-57.075665	89.98	-0.240	-2.370	1.210	89.93	-3.50	1.50	 	 	 	 	 	 	 	 	 	 	 	 	 	 	 	 	 	 	1581518313	7.16	13.26
12/02/2020 14:38:34	120220	12022020	143834	89.54	12.418757	-57.075633	89.48	0.670	-2.490	2.290	89.42	-4.00	2.60	 	 	 	 	 	 	 	 	 	 	 	 	 	 	 	 	 	 	1581518314	6.85	12.69
12/02/2020 14:38:35	120220	12022020	143835	88.90	12.418750	-57.075613	88.83	0.790	-0.770	2.690	88.77	-2.50	3.10	 	 	 	 	 	 	 	 	 	 	 	 	 	 	 	 	 	 	1581518315	4.54	8.41
12/02/2020 14:38:36	120220	12022020	143836	88.37	12.418750	-57.075600	88.37	0.320	0.960	2.140	88.32	-0.60	2.70	 	 	 	 	 	 	 	 	 	 	 	 	 	 	 	 	 	 	1581518316	2.90	5.37
12/02/2020 14:38:37	120220	12022020	143837	88.28	12.418758	-57.075583	88.36	-0.190	1.350	0.910	88.31	0.00	1.60	 	 	 	 	 	 	 	 	 	 	 	 	 	 	 	 	 	 	1581518317	3.81	7.06
12/02/2020 14:38:38	120220	12022020	143838	88.59	12.418768	-57.075562	88.75	-0.450	0.600	-0.320	88.70	-0.60	0.30	 	 	 	 	 	 	 	 	 	 	 	 	 	 	 	 	 	 	1581518318	5.22	9.67
12/02/2020 14:38:39	120220	12022020	143839	89.11	12.418775	-57.075535	89.21	-0.440	-0.310	-1.090	89.11	-1.60	-0.60	 	 	 	 	 	 	 	 	 	 	 	 	 	 	 	 	 	 	1581518319	5.67	10.50
12/02/2020 14:38:40	120220	12022020	143840	89.26	12.418775	-57.075510	89.20	-0.220	-0.860	-0.900	89.20	-2.20	-0.50	 	 	 	 	 	 	 	 	 	 	 	 	 	 	 	 	 	 	1581518320	5.37	9.95
12/02/2020 14:38:41	120220	12022020	143841	88.75	12.418772	-57.075487	88.61	0.120	-1.020	0.250	88.61	-2.40	0.50	 	 	 	 	 	 	 	 	 	 	 	 	 	 	 	 	 	 	1581518321	5.12	9.48
12/02/2020 14:38:42	120220	12022020	143842	88.12	12.418765	-57.075463	88.09	0.380	-0.730	1.460	88.03	-2.20	1.80	 	 	 	 	 	 	 	 	 	 	 	 	 	 	 	 	 	 	1581518322	4.95	9.17
12/02/2020 14:38:43	120220	12022020	143843	87.96	12.418762	-57.075443	88.08	0.350	-0.140	2.150	87.98	-1.60	2.50	 	 	 	 	 	 	 	 	 	 	 	 	 	 	 	 	 	 	1581518323	4.50	8.33
12/02/2020 14:38:44	120220	12022020	143844	88.23	12.418760	-57.075423	88.40	0.080	0.330	2.350	88.30	-1.10	2.80	 	 	 	 	 	 	 	 	 	 	 	 	 	 	 	 	 	 	1581518324	4.16	7.70
12/02/2020 14:38:45	120220	12022020	143845	88.57	12.418760	-57.075403	88.72	-0.220	0.470	2.340	88.62	-0.90	2.80	 	 	 	 	 	 	 	 	 	 	 	 	 	 	 	 	 	 	1581518325	4.31	7.98
12/02/2020 14:38:46	120220	12022020	143846	88.75	12.418760	-57.075382	88.86	-0.400	0.330	2.370	88.76	-1.00	2.80	 	 	 	 	 	 	 	 	 	 	 	 	 	 	 	 	 	 	1581518326	4.54	8.41
12/02/2020 14:38:47	120220	12022020	143847	88.68	12.418758	-57.075358	88.72	-0.260	-0.270	2.520	88.63	-1.50	2.90	 	 	 	 	 	 	 	 	 	 	 	 	 	 	 	 	 	 	1581518327	4.75	8.80
12/02/2020 14:38:48	120220	12022020	143848	88.36	12.418757	-57.075333	88.36	0.290	-1.200	2.610	88.29	-2.40	3.10	 	 	 	 	 	 	 	 	 	 	 	 	 	 	 	 	 	 	1581518328	5.37	9.95
12/02/2020 14:38:49	120220	12022020	143849	87.98	12.418758	-57.075307	88.00	0.850	-1.490	2.340	87.92	-2.90	2.90	 	 	 	 	 	 	 	 	 	 	 	 	 	 	 	 	 	 	1581518329	5.76	10.67
12/02/2020 14:38:50	120220	12022020	143850	87.81	12.418763	-57.075283	87.91	0.810	-0.490	1.600	87.82	-2.10	2.20	 	 	 	 	 	 	 	 	 	 	 	 	 	 	 	 	 	 	1581518330	4.97	9.20
12/02/2020 14:38:51	120220	12022020	143851	87.96	12.418770	-57.075267	88.08	0.100	0.890	0.680	88.02	-0.70	1.30	 	 	 	 	 	 	 	 	 	 	 	 	 	 	 	 	 	 	1581518331	3.89	7.20
12/02/2020 14:38:52	120220	12022020	143852	88.35	12.418777	-57.075250	88.52	-0.720	1.370	-0.140	88.45	0.00	0.40	 	 	 	 	 	 	 	 	 	 	 	 	 	 	 	 	 	 	1581518332	3.71	6.87
12/02/2020 14:38:53	120220	12022020	143853	88.84	12.418782	-57.075230	88.96	-1.010	0.480	-0.530	88.84	-0.70	-0.00	 	 	 	 	 	 	 	 	 	 	 	 	 	 	 	 	 	 	1581518333	4.51	8.35
12/02/2020 14:38:54	120220	12022020	143854	89.04	12.418780	-57.075202	89.07	-0.550	-1.090	-0.140	89.03	-2.20	0.20	 	 	 	 	 	 	 	 	 	 	 	 	 	 	 	 	 	 	1581518334	5.79	10.72
12/02/2020 14:38:55	120220	12022020	143855	88.88	12.418775	-57.075172	88.89	0.240	-1.920	0.700	88.88	-3.20	1.00	 	 	 	 	 	 	 	 	 	 	 	 	 	 	 	 	 	 	1581518335	6.39	11.83
12/02/2020 14:38:56	120220	12022020	143856	88.62	12.418770	-57.075147	88.65	0.640	-1.130	1.520	88.58	-2.70	1.90	 	 	 	 	 	 	 	 	 	 	 	 	 	 	 	 	 	 	1581518336	5.39	9.98
12/02/2020 14:38:57	120220	12022020	143857	88.41	12.418767	-57.075130	88.47	0.400	0.490	1.960	88.39	-1.10	2.40	 	 	 	 	 	 	 	 	 	 	 	 	 	 	 	 	 	 	1581518337	3.70	6.85
12/02/2020 14:38:58	120220	12022020	143858	88.39	12.418768	-57.075115	88.48	-0.070	1.340	1.930	88.41	-0.10	2.40	 	 	 	 	 	 	 	 	 	 	 	 	 	 	 	 	 	 	1581518338	3.15	5.83
12/02/2020 14:38:59	120220	12022020	143859	88.48	12.418770	-57.075095	88.55	-0.210	0.700	1.720	88.49	-0.50	2.20	 	 	 	 	 	 	 	 	 	 	 	 	 	 	 	 	 	 	1581518339	4.31	7.98
12/02/2020 14:39:00	120220	12022020	143900	88.47	12.418773	-57.075068	88.51	0.060	-0.650	1.590	88.46	-1.80	2.10	 	 	 	 	 	 	 	 	 	 	 	 	 	 	 	 	 	 	1581518340	5.73	10.61
12/02/2020 14:39:01	120220	12022020	143901	88.39	12.418777	-57.075040	88.45	0.410	-1.450	1.560	88.39	-2.80	2.00	 	 	 	 	 	 	 	 	 	 	 	 	 	 	 	 	 	 	1581518341	6.14	11.37
12/02/2020 14:39:02	120220	12022020	143902	88.45	12.418777	-57.075015	88.58	0.430	-1.000	1.560	88.50	-2.50	2.00	1017.30	26.40	26.50	20.70	20.80	653.0	71.0	71.0	432.0	28.0	341.00	12.80	65.00	10.30	52111	12200.0	27.5	27.5	1581518342	5.28	9.78
12/02/2020 14:39:03	120220	12022020	143903	88.70	12.418778	-57.074995	88.84	0.060	0.030	1.540	88.75	-1.50	2.00	 	 	 	 	 	 	 	 	 	 	 	 	 	 	 	 	 	 	1581518343	4.04	7.48
12/02/2020 14:39:04	120220	12022020	143904	88.90	12.418778	-57.074977	88.99	-0.340	0.510	1.540	88.92	-0.90	2.00	 	 	 	 	 	 	 	 	 	 	 	 	 	 	 	 	 	 	1581518344	3.77	6.98
12/02/2020 14:39:05	120220	12022020	143905	88.98	12.418780	-57.074955	89.06	-0.390	0.080	1.510	89.00	-1.20	2.00	 	 	 	 	 	 	 	 	 	 	 	 	 	 	 	 	 	 	1581518345	4.63	8.57
12/02/2020 14:39:06	120220	12022020	143906	89.08	12.418780	-57.074928	89.17	-0.110	-0.580	1.470	89.10	-1.90	1.90	 	 	 	 	 	 	 	 	 	 	 	 	 	 	 	 	 	 	1581518346	5.56	10.30
12/02/2020 14:39:07	120220	12022020	143907	89.15	12.418778	-57.074903	89.23	0.090	-0.570	1.580	89.16	-2.00	2.00	 	 	 	 	 	 	 	 	 	 	 	 	 	 	 	 	 	 	1581518347	5.56	10.30
12/02/2020 14:39:08	120220	12022020	143908	89.15	12.418778	-57.074882	89.23	-0.090	0.210	1.610	89.15	-1.30	2.10	 	 	 	 	 	 	 	 	 	 	 	 	 	 	 	 	 	 	1581518348	4.64	8.59
12/02/2020 14:39:09	120220	12022020	143909	89.13	12.418778	-57.074863	89.22	-0.500	0.960	1.400	89.14	-0.50	1.90	 	 	 	 	 	 	 	 	 	 	 	 	 	 	 	 	 	 	1581518349	3.79	7.02
12/02/2020 14:39:10	120220	12022020	143910	89.18	12.418782	-57.074845	89.25	-0.590	0.620	1.070	89.18	-0.60	1.60	 	 	 	 	 	 	 	 	 	 	 	 	 	 	 	 	 	 	1581518350	3.97	7.35
12/02/2020 14:39:11	120220	12022020	143911	89.14	12.418783	-57.074820	89.16	0.010	-0.860	0.860	89.11	-2.00	1.40	 	 	 	 	 	 	 	 	 	 	 	 	 	 	 	 	 	 	1581518351	5.33	9.87
12/02/2020 14:39:12	120220	12022020	143912	89.02	12.418787	-57.074788	89.08	1.000	-2.240	0.650	89.02	-3.50	1.20	 	 	 	 	 	 	 	 	 	 	 	 	 	 	 	 	 	 	1581518352	6.50	12.04
12/02/2020 14:39:13	120220	12022020	143913	89.14	12.418792	-57.074760	89.26	1.520	-2.110	0.400	89.19	-3.60	0.90	 	 	 	 	 	 	 	 	 	 	 	 	 	 	 	 	 	 	1581518353	6.30	11.67
12/02/2020 14:39:14	120220	12022020	143914	89.44	12.418795	-57.074738	89.59	0.950	-0.250	0.550	89.52	-2.00	1.00	 	 	 	 	 	 	 	 	 	 	 	 	 	 	 	 	 	 	1581518354	4.67	8.65
12/02/2020 14:39:15	120220	12022020	143915	89.82	12.418795	-57.074723	89.96	-0.440	2.010	1.090	89.89	0.30	1.50	 	 	 	 	 	 	 	 	 	 	 	 	 	 	 	 	 	 	1581518355	2.88	5.33
12/02/2020 14:39:16	120220	12022020	143916	90.12	12.418790	-57.074712	90.22	-1.650	2.830	1.830	90.16	1.40	2.20	 	 	 	 	 	 	 	 	 	 	 	 	 	 	 	 	 	 	1581518356	2.77	5.13
12/02/2020 14:39:17	120220	12022020	143917	90.25	12.418785	-57.074692	90.31	-1.710	1.410	2.400	90.25	0.40	2.80	 	 	 	 	 	 	 	 	 	 	 	 	 	 	 	 	 	 	1581518357	4.37	8.09
12/02/2020 14:39:18	120220	12022020	143918	90.18	12.418780	-57.074662	90.18	-0.610	-1.300	2.830	90.13	-2.30	3.20	 	 	 	 	 	 	 	 	 	 	 	 	 	 	 	 	 	 	1581518358	6.38	11.82
12/02/2020 14:39:19	120220	12022020	143919	89.88	12.418777	-57.074628	89.89	0.650	-3.130	3.170	89.82	-4.40	3.60	 	 	 	 	 	 	 	 	 	 	 	 	 	 	 	 	 	 	1581518359	7.24	13.41
12/02/2020 14:39:20	120220	12022020	143920	89.66	12.418777	-57.074600	89.73	1.040	-2.480	3.110	89.65	-4.10	3.60	 	 	 	 	 	 	 	 	 	 	 	 	 	 	 	 	 	 	1581518360	5.93	10.98
12/02/2020 14:39:21	120220	12022020	143921	89.71	12.418778	-57.074583	89.82	0.540	-0.200	2.490	89.74	-1.90	3.10	 	 	 	 	 	 	 	 	 	 	 	 	 	 	 	 	 	 	1581518361	3.52	6.52
12/02/2020 14:39:22	120220	12022020	143922	89.91	12.418783	-57.074572	89.99	-0.020	1.470	1.360	89.95	-0.10	2.00	 	 	 	 	 	 	 	 	 	 	 	 	 	 	 	 	 	 	1581518362	2.70	5.00
12/02/2020 14:39:23	120220	12022020	143923	90.12	12.418792	-57.074553	90.16	-0.060	1.300	0.060	90.15	0.00	0.70	 	 	 	 	 	 	 	 	 	 	 	 	 	 	 	 	 	 	1581518363	4.17	7.72
12/02/2020 14:39:24	120220	12022020	143924	90.32	12.418802	-57.074527	90.36	0.250	0.010	-0.940	90.37	-1.20	-0.30	 	 	 	 	 	 	 	 	 	 	 	 	 	 	 	 	 	 	1581518364	5.96	11.04
12/02/2020 14:39:25	120220	12022020	143925	90.53	12.418807	-57.074498	90.54	0.330	-0.900	-1.200	90.56	-2.20	-0.70	 	 	 	 	 	 	 	 	 	 	 	 	 	 	 	 	 	 	1581518365	6.38	11.82
12/02/2020 14:39:26	120220	12022020	143926	90.60	12.418805	-57.074472	90.57	-0.060	-0.540	-0.650	90.58	-2.00	-0.30	 	 	 	 	 	 	 	 	 	 	 	 	 	 	 	 	 	 	1581518366	5.30	9.82
12/02/2020 14:39:27	120220	12022020	143927	90.48	12.418800	-57.074455	90.48	-0.600	0.530	0.270	90.46	-1.00	0.60	 	 	 	 	 	 	 	 	 	 	 	 	 	 	 	 	 	 	1581518367	3.94	7.30
12/02/2020 14:39:28	120220	12022020	143928	90.38	12.418795	-57.074438	90.42	-0.790	0.830	1.140	90.37	-0.50	1.50	 	 	 	 	 	 	 	 	 	 	 	 	 	 	 	 	 	 	1581518368	3.55	6.57
12/02/2020 14:39:29	120220	12022020	143929	90.31	12.418790	-57.074417	90.36	-0.410	-0.140	1.870	90.30	-1.30	2.20	 	 	 	 	 	 	 	 	 	 	 	 	 	 	 	 	 	 	1581518369	4.63	8.57
12/02/2020 14:39:30	120220	12022020	143930	90.24	12.418788	-57.074390	90.30	0.220	-1.310	2.380	90.23	-2.50	2.80	 	 	 	 	 	 	 	 	 	 	 	 	 	 	 	 	 	 	1581518370	5.82	10.78
12/02/2020 14:39:31	120220	12022020	143931	90.23	12.418787	-57.074363	90.31	0.690	-1.600	2.620	90.23	-3.00	3.10	 	 	 	 	 	 	 	 	 	 	 	 	 	 	 	 	 	 	1581518371	5.71	10.57
12/02/2020 14:39:32	120220	12022020	143932	90.33	12.418788	-57.074340	90.45	0.830	-1.040	2.640	90.37	-2.50	3.10	 	 	 	 	 	 	 	 	 	 	 	 	 	 	 	 	 	 	1581518372	4.90	9.07
12/02/2020 14:39:33	120220	12022020	143933	90.51	12.418788	-57.074318	90.57	0.610	-0.230	2.590	90.52	-1.70	3.10	 	 	 	 	 	 	 	 	 	 	 	 	 	 	 	 	 	 	1581518373	4.42	8.19
12/02/2020 14:39:34	120220	12022020	143934	90.46	12.418788	-57.074298	90.46	0.080	0.570	2.430	90.43	-0.90	2.90	 	 	 	 	 	 	 	 	 	 	 	 	 	 	 	 	 	 	1581518374	4.42	8.19
12/02/2020 14:39:35	120220	12022020	143935	90.33	12.418790	-57.074277	90.34	-0.560	1.200	1.960	90.32	-0.20	2.50	 	 	 	 	 	 	 	 	 	 	 	 	 	 	 	 	 	 	1581518375	4.33	8.02
12/02/2020 14:39:36	120220	12022020	143936	90.43	12.418792	-57.074257	90.53	-0.940	1.210	1.200	90.49	-0.10	1.80	 	 	 	 	 	 	 	 	 	 	 	 	 	 	 	 	 	 	1581518376	4.33	8.02
12/02/2020 14:39:37	120220	12022020	143937	90.76	12.418795	-57.074235	90.81	-0.740	0.310	0.370	90.81	-0.90	1.00	 	 	 	 	 	 	 	 	 	 	 	 	 	 	 	 	 	 	1581518377	4.85	8.98
12/02/2020 14:39:38	120220	12022020	143938	90.83	12.418798	-57.074207	90.78	0.050	-1.230	-0.140	90.79	-2.30	0.40	 	 	 	 	 	 	 	 	 	 	 	 	 	 	 	 	 	 	1581518378	5.77	10.69
12/02/2020 14:39:39	120220	12022020	143939	90.52	12.418800	-57.074177	90.45	0.910	-2.240	-0.120	90.45	-3.50	0.30	 	 	 	 	 	 	 	 	 	 	 	 	 	 	 	 	 	 	1581518379	6.44	11.93
12/02/2020 14:39:40	120220	12022020	143940	90.29	12.418803	-57.074150	90.34	1.120	-1.530	0.290	90.29	-3.10	0.70	 	 	 	 	 	 	 	 	 	 	 	 	 	 	 	 	 	 	1581518380	5.68	10.52
12/02/2020 14:39:41	120220	12022020	143941	90.54	12.418802	-57.074132	90.77	0.450	0.410	0.980	90.65	-1.30	1.40	 	 	 	 	 	 	 	 	 	 	 	 	 	 	 	 	 	 	1581518381	3.87	7.17
12/02/2020 14:39:42	120220	12022020	143942	91.17	12.418798	-57.074118	91.40	-0.590	1.910	1.660	91.29	0.40	2.00	 	 	 	 	 	 	 	 	 	 	 	 	 	 	 	 	 	 	1581518382	2.96	5.48
12/02/2020 14:39:43	120220	12022020	143943	91.57	12.418793	-57.074102	91.64	-1.160	1.610	2.200	91.57	0.40	2.60	 	 	 	 	 	 	 	 	 	 	 	 	 	 	 	 	 	 	1581518383	3.71	6.87
12/02/2020 14:39:44	120220	12022020	143944	91.42	12.418788	-57.074075	91.40	-0.690	-0.390	2.710	91.35	-1.40	3.10	 	 	 	 	 	 	 	 	 	 	 	 	 	 	 	 	 	 	1581518384	5.59	10.35
12/02/2020 14:39:45	120220	12022020	143945	91.07	12.418785	-57.074042	91.09	0.490	-2.400	3.090	91.07	-3.50	3.50	 	 	 	 	 	 	 	 	 	 	 	 	 	 	 	 	 	 	1581518385	7.09	13.13
12/02/2020 14:39:46	120220	12022020	143946	91.01	12.418783	-57.074010	91.13	1.350	-2.630	2.930	91.05	-4.10	3.50	 	 	 	 	 	 	 	 	 	 	 	 	 	 	 	 	 	 	1581518386	6.76	12.52
12/02/2020 14:39:47	120220	12022020	143947	91.34	12.418787	-57.073987	91.49	1.090	-0.780	2.070	91.42	-2.50	2.70	 	 	 	 	 	 	 	 	 	 	 	 	 	 	 	 	 	 	1581518387	4.86	9.00
12/02/2020 14:39:48	120220	12022020	143948	91.76	12.418792	-57.073973	91.87	-0.120	1.670	1.020	91.84	-0.00	1.70	 	 	 	 	 	 	 	 	 	 	 	 	 	 	 	 	 	 	1581518388	3.11	5.76
12/02/2020 14:39:49	120220	12022020	143949	92.02	12.418797	-57.073962	92.01	-1.360	2.920	0.130	92.03	1.50	0.70	 	 	 	 	 	 	 	 	 	 	 	 	 	 	 	 	 	 	1581518389	2.72	5.04
12/02/2020 14:39:50	120220	12022020	143950	92.02	12.418798	-57.073943	91.91	-1.710	2.110	-0.500	91.99	1.00	0.10	 	 	 	 	 	 	 	 	 	 	 	 	 	 	 	 	 	 	1581518390	3.84	7.11
12/02/2020 14:39:51	120220	12022020	143951	91.81	12.418800	-57.073917	91.67	-0.910	-0.340	-0.730	91.75	-1.20	-0.20	 	 	 	 	 	 	 	 	 	 	 	 	 	 	 	 	 	 	1581518391	5.67	10.50
12/02/2020 14:39:52	120220	12022020	143952	91.54	12.418802	-57.073883	91.47	0.480	-2.870	-0.690	91.51	-3.90	-0.20	 	 	 	 	 	 	 	 	 	 	 	 	 	 	 	 	 	 	1581518392	6.98	12.93
12/02/2020 14:39:53	120220	12022020	143953	91.46	12.418802	-57.073852	91.44	1.470	-3.780	-0.600	91.46	-5.10	-0.10	 	 	 	 	 	 	 	 	 	 	 	 	 	 	 	 	 	 	1581518393	6.88	12.74
12/02/2020 14:39:54	120220	12022020	143954	91.47	12.418802	-57.073827	91.46	1.490	-2.390	-0.080	91.47	-4.00	0.30	 	 	 	 	 	 	 	 	 	 	 	 	 	 	 	 	 	 	1581518394	5.34	9.89
12/02/2020 14:39:55	120220	12022020	143955	91.44	12.418798	-57.073810	91.43	0.660	0.380	1.040	91.43	-1.40	1.30	 	 	 	 	 	 	 	 	 	 	 	 	 	 	 	 	 	 	1581518395	3.53	6.54
12/02/2020 14:39:56	120220	12022020	143956	91.39	12.418793	-57.073798	91.40	-0.450	2.790	2.110	91.38	1.20	2.40	 	 	 	 	 	 	 	 	 	 	 	 	 	 	 	 	 	 	1581518396	2.89	5.35
12/02/2020 14:39:57	120220	12022020	143957	91.36	12.418787	-57.073783	91.39	-1.270	3.350	2.670	91.36	2.10	3.10	 	 	 	 	 	 	 	 	 	 	 	 	 	 	 	 	 	 	1581518397	3.28	6.07
12/02/2020 14:39:58	120220	12022020	143958	91.37	12.418783	-57.073760	91.40	-1.370	1.660	2.770	91.38	0.70	3.20	 	 	 	 	 	 	 	 	 	 	 	 	 	 	 	 	 	 	1581518398	4.80	8.89
12/02/2020 14:39:59	120220	12022020	143959	91.48	12.418782	-57.073730	91.52	-0.720	-1.070	2.600	91.50	-2.00	3.10	 	 	 	 	 	 	 	 	 	 	 	 	 	 	 	 	 	 	1581518399	6.53	12.09
12/02/2020 14:40:00	120220	12022020	144000	91.48	12.418780	-57.073697	91.45	0.230	-2.840	2.450	91.45	-4.00	2.90	 	 	 	 	 	 	 	 	 	 	 	 	 	 	 	 	 	 	1581518400	6.99	12.95
12/02/2020 14:40:01	120220	12022020	144001	91.21	12.418780	-57.073670	91.13	0.890	-2.530	2.290	91.13	-4.00	2.80	 	 	 	 	 	 	 	 	 	 	 	 	 	 	 	 	 	 	1581518401	5.67	10.50
12/02/2020 14:40:02	120220	12022020	144002	90.73	12.418780	-57.073652	90.62	1.010	-1.060	2.050	90.62	-2.60	2.60	1017.20	26.40	26.40	20.80	20.90	797.0	71.0	71.0	431.0	28.1	341.00	13.10	67.00	10.80	60479	10344.0	27.5	27.5	1581518402	3.95	7.32
12/02/2020 14:40:03	120220	12022020	144003	90.19	12.418785	-57.073635	90.09	0.690	0.200	1.490	90.10	-1.30	2.10	 	 	 	 	 	 	 	 	 	 	 	 	 	 	 	 	 	 	1581518403	3.66	6.78
12/02/2020 14:40:04	120220	12022020	144004	89.91	12.418792	-57.073615	89.89	0.150	0.730	0.580	89.90	-0.60	1.20	 	 	 	 	 	 	 	 	 	 	 	 	 	 	 	 	 	 	1581518404	4.52	8.37
12/02/2020 14:40:05	120220	12022020	144005	90.01	12.418800	-57.073592	90.06	-0.320	0.740	-0.210	90.07	-0.60	0.40	 	 	 	 	 	 	 	 	 	 	 	 	 	 	 	 	 	 	1581518405	5.14	9.52
12/02/2020 14:40:06	120220	12022020	144006	90.41	12.418803	-57.073567	90.50	-0.450	0.400	-0.700	90.51	-0.90	-0.20	 	 	 	 	 	 	 	 	 	 	 	 	 	 	 	 	 	 	1581518406	5.30	9.82
12/02/2020 14:40:07	120220	12022020	144007	90.91	12.418805	-57.073540	90.99	-0.210	-0.130	-0.700	90.91	-1.40	-0.30	 	 	 	 	 	 	 	 	 	 	 	 	 	 	 	 	 	 	1581518407	5.46	10.11
12/02/2020 14:40:08	120220	12022020	144008	91.14	12.418800	-57.073515	91.13	0.090	-0.470	-0.000	91.13	-1.80	0.30	 	 	 	 	 	 	 	 	 	 	 	 	 	 	 	 	 	 	1581518408	5.55	10.28
12/02/2020 14:40:09	120220	12022020	144009	90.93	12.418795	-57.073490	90.89	0.180	-0.420	1.200	90.93	-1.80	1.50	 	 	 	 	 	 	 	 	 	 	 	 	 	 	 	 	 	 	1581518409	5.28	9.78
12/02/2020 14:40:10	120220	12022020	144010	90.49	12.418788	-57.073468	90.47	0.090	-0.160	2.360	90.42	-1.50	2.70	 	 	 	 	 	 	 	 	 	 	 	 	 	 	 	 	 	 	1581518410	4.91	9.09
12/02/2020 14:40:11	120220	12022020	144011	90.19	12.418785	-57.073447	90.21	-0.090	0.020	2.910	90.15	-1.30	3.30	 	 	 	 	 	 	 	 	 	 	 	 	 	 	 	 	 	 	1581518411	4.67	8.65
12/02/2020 14:40:12	120220	12022020	144012	90.04	12.418785	-57.073423	90.08	-0.200	-0.120	2.990	90.03	-1.40	3.50	 	 	 	 	 	 	 	 	 	 	 	 	 	 	 	 	 	 	1581518412	4.79	8.87
12/02/2020 14:40:13	120220	12022020	144013	90.08	12.418787	-57.073398	90.17	-0.120	-0.550	2.640	90.13	-1.80	3.20	 	 	 	 	 	 	 	 	 	 	 	 	 	 	 	 	 	 	1581518413	5.22	9.67
12/02/2020 14:40:14	120220	12022020	144014	90.46	12.418790	-57.073373	90.63	0.110	-0.900	1.870	90.56	-2.20	2.50	 	 	 	 	 	 	 	 	 	 	 	 	 	 	 	 	 	 	1581518414	5.60	10.37
12/02/2020 14:40:15	120220	12022020	144015	90.96	12.418793	-57.073347	91.08	0.270	-0.710	1.080	91.04	-2.10	1.70	 	 	 	 	 	 	 	 	 	 	 	 	 	 	 	 	 	 	1581518415	5.52	10.22
12/02/2020 14:40:16	120220	12022020	144016	91.19	12.418797	-57.073323	91.20	0.160	-0.020	0.680	91.18	-1.50	1.20	 	 	 	 	 	 	 	 	 	 	 	 	 	 	 	 	 	 	1581518416	4.89	9.06
12/02/2020 14:40:17	120220	12022020	144017	90.99	12.418797	-57.073303	90.91	-0.100	0.480	0.660	90.92	-0.90	1.10	 	 	 	 	 	 	 	 	 	 	 	 	 	 	 	 	 	 	1581518417	4.48	8.30
12/02/2020 14:40:18	120220	12022020	144018	90.60	12.418797	-57.073280	90.52	-0.150	0.330	0.630	90.53	-0.90	1.10	 	 	 	 	 	 	 	 	 	 	 	 	 	 	 	 	 	 	1581518418	4.85	8.98
12/02/2020 14:40:19	120220	12022020	144019	90.29	12.418798	-57.073253	90.24	0.190	-0.250	0.470	90.24	-1.50	1.00	 	 	 	 	 	 	 	 	 	 	 	 	 	 	 	 	 	 	1581518419	5.54	10.26
12/02/2020 14:40:20	120220	12022020	144020	90.13	12.418803	-57.073227	90.19	0.600	-0.670	0.220	90.15	-2.00	0.80	 	 	 	 	 	 	 	 	 	 	 	 	 	 	 	 	 	 	1581518420	5.98	11.07
12/02/2020 14:40:21	120220	12022020	144021	90.32	12.418808	-57.073200	90.45	0.510	-0.520	-0.060	90.32	-1.90	0.40	 	 	 	 	 	 	 	 	 	 	 	 	 	 	 	 	 	 	1581518421	5.73	10.61
12/02/2020 14:40:22	120220	12022020	144022	90.65	12.418812	-57.073177	90.80	-0.160	0.030	0.290	90.73	-1.40	0.70	 	 	 	 	 	 	 	 	 	 	 	 	 	 	 	 	 	 	1581518422	4.92	9.11
12/02/2020 14:40:23	120220	12022020	144023	91.05	12.418808	-57.073155	91.25	-0.900	0.530	1.220	91.13	-0.90	1.50	 	 	 	 	 	 	 	 	 	 	 	 	 	 	 	 	 	 	1581518423	4.45	8.24
12/02/2020 14:40:24	120220	12022020	144024	91.42	12.418800	-57.073135	91.56	-1.060	0.410	2.220	91.46	-0.80	2.50	 	 	 	 	 	 	 	 	 	 	 	 	 	 	 	 	 	 	1581518424	4.75	8.80
12/02/2020 14:40:25	120220	12022020	144025	91.46	12.418792	-57.073110	91.52	-0.310	-0.650	3.100	91.43	-1.80	3.40	 	 	 	 	 	 	 	 	 	 	 	 	 	 	 	 	 	 	1581518425	5.66	10.48
12/02/2020 14:40:26	120220	12022020	144026	91.20	12.418785	-57.073078	91.23	0.770	-1.740	3.720	91.13	-3.00	4.10	 	 	 	 	 	 	 	 	 	 	 	 	 	 	 	 	 	 	1581518426	6.70	12.41
12/02/2020 14:40:27	120220	12022020	144027	90.90	12.418782	-57.073048	90.98	1.100	-1.360	3.670	90.88	-2.90	4.20	 	 	 	 	 	 	 	 	 	 	 	 	 	 	 	 	 	 	1581518427	6.32	11.70
12/02/2020 14:40:28	120220	12022020	144028	90.88	12.418785	-57.073027	91.01	0.390	0.440	2.610	90.92	-1.20	3.30	 	 	 	 	 	 	 	 	 	 	 	 	 	 	 	 	 	 	1581518428	4.57	8.46
12/02/2020 14:40:29	120220	12022020	144029	91.14	12.418793	-57.073013	91.24	-0.640	2.020	0.870	91.21	0.50	1.60	 	 	 	 	 	 	 	 	 	 	 	 	 	 	 	 	 	 	1581518429	3.59	6.65
12/02/2020 14:40:30	120220	12022020	144030	91.43	12.418805	-57.072995	91.45	-0.990	1.670	-0.680	91.47	0.50	0.00	 	 	 	 	 	 	 	 	 	 	 	 	 	 	 	 	 	 	1581518430	4.33	8.02
12/02/2020 14:40:31	120220	12022020	144031	91.48	12.418813	-57.072967	91.44	-0.420	-0.460	-1.560	91.47	-1.40	-1.00	 	 	 	 	 	 	 	 	 	 	 	 	 	 	 	 	 	 	1581518431	6.12	11.33
12/02/2020 14:40:32	120220	12022020	144032	91.42	12.418817	-57.072933	91.41	0.360	-2.370	-1.870	91.42	-3.50	-1.40	 	 	 	 	 	 	 	 	 	 	 	 	 	 	 	 	 	 	1581518432	7.38	13.67
12/02/2020 14:40:33	120220	12022020	144033	91.42	12.418818	-57.072902	91.45	0.640	-2.440	-1.300	91.42	-3.90	-0.90	 	 	 	 	 	 	 	 	 	 	 	 	 	 	 	 	 	 	1581518433	6.62	12.26
12/02/2020 14:40:34	120220	12022020	144034	91.52	12.418813	-57.072880	91.61	0.270	-0.800	0.010	91.56	-2.40	0.30	 	 	 	 	 	 	 	 	 	 	 	 	 	 	 	 	 	 	1581518434	4.79	8.87
12/02/2020 14:40:35	120220	12022020	144035	91.76	12.418803	-57.072863	91.89	-0.270	1.020	1.420	91.76	-0.50	1.70	 	 	 	 	 	 	 	 	 	 	 	 	 	 	 	 	 	 	1581518435	3.89	7.20
12/02/2020 14:40:36	120220	12022020	144036	92.01	12.418795	-57.072847	92.13	-0.460	1.690	2.420	92.05	0.30	2.80	 	 	 	 	 	 	 	 	 	 	 	 	 	 	 	 	 	 	1581518436	4.08	7.56
12/02/2020 14:40:37	120220	12022020	144037	92.23	12.418790	-57.072823	92.37	-0.300	1.030	2.880	92.27	-0.10	3.30	 	 	 	 	 	 	 	 	 	 	 	 	 	 	 	 	 	 	1581518437	5.06	9.37
12/02/2020 14:40:38	120220	12022020	144038	92.43	12.418788	-57.072795	92.53	-0.070	-0.180	3.080	92.46	-1.30	3.50	 	 	 	 	 	 	 	 	 	 	 	 	 	 	 	 	 	 	1581518438	5.96	11.04
12/02/2020 14:40:39	120220	12022020	144039	92.43	12.418787	-57.072767	92.43	0.090	-1.120	3.210	92.39	-2.30	3.70	 	 	 	 	 	 	 	 	 	 	 	 	 	 	 	 	 	 	1581518439	6.06	11.22
12/02/2020 14:40:40	120220	12022020	144040	92.13	12.418785	-57.072740	92.09	0.270	-1.300	3.100	92.06	-2.60	3.60	 	 	 	 	 	 	 	 	 	 	 	 	 	 	 	 	 	 	1581518440	5.66	10.48
12/02/2020 14:40:41	120220	12022020	144041	91.87	12.418787	-57.072715	91.85	0.440	-0.800	2.440	91.85	-2.20	3.10	 	 	 	 	 	 	 	 	 	 	 	 	 	 	 	 	 	 	1581518441	5.10	9.45
12/02/2020 14:40:42	120220	12022020	144042	91.90	12.418793	-57.072693	91.91	0.390	-0.110	1.320	91.93	-1.50	2.00	 	 	 	 	 	 	 	 	 	 	 	 	 	 	 	 	 	 	1581518442	4.85	8.98
12/02/2020 14:40:43	120220	12022020	144043	92.13	12.418800	-57.072672	92.13	0.020	0.280	0.170	92.18	-1.10	0.80	 	 	 	 	 	 	 	 	 	 	 	 	 	 	 	 	 	 	1581518443	4.97	9.20
12/02/2020 14:40:44	120220	12022020	144044	92.27	12.418807	-57.072647	92.21	-0.360	0.110	-0.410	92.27	-1.20	0.10	 	 	 	 	 	 	 	 	 	 	 	 	 	 	 	 	 	 	1581518444	5.22	9.67
12/02/2020 14:40:45	120220	12022020	144045	92.21	12.418807	-57.072620	92.16	-0.440	-0.290	-0.390	92.20	-1.60	0.10	 	 	 	 	 	 	 	 	 	 	 	 	 	 	 	 	 	 	1581518445	5.61	10.39
12/02/2020 14:40:46	120220	12022020	144046	92.20	12.418803	-57.072593	92.21	-0.310	-0.220	-0.050	92.21	-1.60	0.40	 	 	 	 	 	 	 	 	 	 	 	 	 	 	 	 	 	 	1581518446	5.67	10.50
12/02/2020 14:40:47	120220	12022020	144047	92.27	12.418798	-57.072570	92.27	-0.200	0.040	0.460	92.27	-1.30	0.90	 	 	 	 	 	 	 	 	 	 	 	 	 	 	 	 	 	 	1581518447	5.09	9.43
12/02/2020 14:40:48	120220	12022020	144048	92.23	12.418793	-57.072547	92.21	-0.050	-0.210	1.010	92.21	-1.50	1.40	 	 	 	 	 	 	 	 	 	 	 	 	 	 	 	 	 	 	1581518448	5.12	9.48
12/02/2020 14:40:49	120220	12022020	144049	91.99	12.418790	-57.072520	91.92	0.190	-0.760	1.580	91.93	-2.00	2.00	 	 	 	 	 	 	 	 	 	 	 	 	 	 	 	 	 	 	1581518449	5.84	10.82
12/02/2020 14:40:50	120220	12022020	144050	91.65	12.418787	-57.072492	91.62	0.350	-0.730	1.940	91.60	-2.10	2.40	 	 	 	 	 	 	 	 	 	 	 	 	 	 	 	 	 	 	1581518450	5.97	11.06
12/02/2020 14:40:51	120220	12022020	144051	91.50	12.418787	-57.072467	91.50	0.310	-0.160	1.920	91.49	-1.60	2.40	 	 	 	 	 	 	 	 	 	 	 	 	 	 	 	 	 	 	1581518451	5.22	9.67
12/02/2020 14:40:52	120220	12022020	144052	91.45	12.418790	-57.072443	91.44	0.190	0.270	1.770	91.44	-1.10	2.30	 	 	 	 	 	 	 	 	 	 	 	 	 	 	 	 	 	 	1581518452	4.86	9.00
12/02/2020 14:40:53	120220	12022020	144053	91.41	12.418792	-57.072418	91.44	0.020	0.330	1.520	91.42	-1.00	2.10	 	 	 	 	 	 	 	 	 	 	 	 	 	 	 	 	 	 	1581518453	5.20	9.63
12/02/2020 14:40:54	120220	12022020	144054	91.65	12.418795	-57.072393	91.77	-0.240	0.200	1.190	91.75	-1.10	1.70	 	 	 	 	 	 	 	 	 	 	 	 	 	 	 	 	 	 	1581518454	5.48	10.15
12/02/2020 14:40:55	120220	12022020	144055	92.10	12.418793	-57.072367	92.18	-0.460	-0.150	1.270	92.16	-1.40	1.70	 	 	 	 	 	 	 	 	 	 	 	 	 	 	 	 	 	 	1581518455	5.51	10.20
12/02/2020 14:40:56	120220	12022020	144056	92.18	12.418788	-57.072340	92.13	-0.390	-0.540	1.840	92.12	-1.80	2.20	 	 	 	 	 	 	 	 	 	 	 	 	 	 	 	 	 	 	1581518456	5.76	10.67
12/02/2020 14:40:57	120220	12022020	144057	91.71	12.418780	-57.072313	91.59	0.040	-0.700	2.380	91.71	-2.00	2.80	 	 	 	 	 	 	 	 	 	 	 	 	 	 	 	 	 	 	1581518457	5.85	10.83
12/02/2020 14:40:58	120220	12022020	144058	91.17	12.418778	-57.072288	91.10	0.520	-0.620	2.430	91.09	-2.00	3.00	 	 	 	 	 	 	 	 	 	 	 	 	 	 	 	 	 	 	1581518458	5.56	10.30
12/02/2020 14:40:59	120220	12022020	144059	90.91	12.418782	-57.072262	90.90	0.630	-0.550	1.970	90.91	-1.90	2.60	 	 	 	 	 	 	 	 	 	 	 	 	 	 	 	 	 	 	1581518459	5.53	10.24
12/02/2020 14:41:00	120220	12022020	144100	90.97	12.418787	-57.072235	91.01	0.280	-0.470	1.140	91.01	-1.80	1.80	 	 	 	 	 	 	 	 	 	 	 	 	 	 	 	 	 	 	1581518460	5.80	10.74
12/02/2020 14:41:01	120220	12022020	144101	91.30	12.418793	-57.072208	91.39	-0.270	-0.020	0.420	91.40	-1.50	1.00	 	 	 	 	 	 	 	 	 	 	 	 	 	 	 	 	 	 	1581518461	5.70	10.56
12/02/2020 14:41:02	120220	12022020	144102	91.88	12.418793	-57.072185	92.01	-0.670	0.660	-0.010	92.00	-0.80	0.50	1017.30	26.40	26.40	20.80	20.90	592.0	71.0	71.0	431.0	28.1	343.00	13.00	70.00	10.40	49430	9845.0	27.5	27.5	1581518462	5.05	9.35
12/02/2020 14:41:03	120220	12022020	144103	92.42	12.418792	-57.072162	92.44	-0.670	0.800	-0.030	92.47	-0.50	0.40	 	 	 	 	 	 	 	 	 	 	 	 	 	 	 	 	 	 	1581518463	4.82	8.93
12/02/2020 14:41:04	120220	12022020	144104	92.40	12.418788	-57.072137	92.28	-0.250	0.020	0.620	92.31	-1.20	1.00	 	 	 	 	 	 	 	 	 	 	 	 	 	 	 	 	 	 	1581518464	5.52	10.22
12/02/2020 14:41:05	120220	12022020	144105	91.76	12.418783	-57.072107	91.59	0.310	-1.130	1.670	91.60	-2.30	2.00	 	 	 	 	 	 	 	 	 	 	 	 	 	 	 	 	 	 	1581518465	6.52	12.08
12/02/2020 14:41:06	120220	12022020	144106	91.24	12.418780	-57.072075	91.25	0.520	-1.390	2.430	91.21	-2.80	2.80	 	 	 	 	 	 	 	 	 	 	 	 	 	 	 	 	 	 	1581518466	6.65	12.32
12/02/2020 14:41:07	120220	12022020	144107	91.46	12.418778	-57.072050	91.67	0.240	-0.490	2.640	91.59	-2.00	3.10	 	 	 	 	 	 	 	 	 	 	 	 	 	 	 	 	 	 	1581518467	5.42	10.04
12/02/2020 14:41:08	120220	12022020	144108	92.13	12.418777	-57.072028	92.29	-0.120	0.440	2.400	92.24	-1.00	2.90	 	 	 	 	 	 	 	 	 	 	 	 	 	 	 	 	 	 	1581518468	4.34	8.04
12/02/2020 14:41:09	120220	12022020	144109	92.46	12.418777	-57.072007	92.51	-0.070	0.370	2.040	92.48	-0.90	2.60	 	 	 	 	 	 	 	 	 	 	 	 	 	 	 	 	 	 	1581518469	4.79	8.87
12/02/2020 14:41:10	120220	12022020	144110	92.53	12.418777	-57.071978	92.56	0.230	-0.250	1.780	92.54	-1.50	2.30	 	 	 	 	 	 	 	 	 	 	 	 	 	 	 	 	 	 	1581518470	5.99	11.09
12/02/2020 14:41:11	120220	12022020	144111	92.60	12.418777	-57.071948	92.61	0.250	-0.560	1.660	92.60	-1.90	2.20	 	 	 	 	 	 	 	 	 	 	 	 	 	 	 	 	 	 	1581518471	6.23	11.54
12/02/2020 14:41:12	120220	12022020	144112	92.55	12.418775	-57.071922	92.50	-0.100	-0.370	1.600	92.51	-1.80	2.10	 	 	 	 	 	 	 	 	 	 	 	 	 	 	 	 	 	 	1581518472	5.65	10.46
12/02/2020 14:41:13	120220	12022020	144113	92.18	12.418773	-57.071897	92.04	-0.440	0.020	1.580	92.07	-1.40	2.10	 	 	 	 	 	 	 	 	 	 	 	 	 	 	 	 	 	 	1581518473	5.13	9.50
12/02/2020 14:41:14	120220	12022020	144114	91.65	12.418773	-57.071873	91.57	-0.470	0.290	1.290	91.59	-1.10	1.90	 	 	 	 	 	 	 	 	 	 	 	 	 	 	 	 	 	 	1581518474	5.04	9.33
12/02/2020 14:41:15	120220	12022020	144115	91.59	12.418777	-57.071848	91.65	-0.310	0.120	0.610	91.65	-1.20	1.20	 	 	 	 	 	 	 	 	 	 	 	 	 	 	 	 	 	 	1581518475	5.31	9.83
12/02/2020 14:41:16	120220	12022020	144116	92.08	12.418780	-57.071822	92.19	-0.080	-0.500	-0.260	92.20	-1.70	0.40	 	 	 	 	 	 	 	 	 	 	 	 	 	 	 	 	 	 	1581518476	5.82	10.78
12/02/2020 14:41:17	120220	12022020	144117	92.59	12.418782	-57.071792	92.59	0.150	-1.080	-0.680	92.63	-2.30	-0.20	 	 	 	 	 	 	 	 	 	 	 	 	 	 	 	 	 	 	1581518477	6.16	11.41
12/02/2020 14:41:18	120220	12022020	144118	92.54	12.418780	-57.071763	92.41	0.430	-1.220	-0.200	92.46	-2.60	0.20	 	 	 	 	 	 	 	 	 	 	 	 	 	 	 	 	 	 	1581518478	6.08	11.26
12/02/2020 14:41:19	120220	12022020	144119	91.95	12.418773	-57.071737	91.75	0.610	-0.630	0.970	91.79	-2.10	1.30	 	 	 	 	 	 	 	 	 	 	 	 	 	 	 	 	 	 	1581518479	5.81	10.76
12/02/2020 14:41:20	120220	12022020	144120	91.25	12.418768	-57.071713	91.14	0.380	0.520	1.960	91.14	-1.00	2.30	 	 	 	 	 	 	 	 	 	 	 	 	 	 	 	 	 	 	1581518480	5.08	9.41
12/02/2020 14:41:21	120220	12022020	144121	90.93	12.418767	-57.071692	90.91	-0.240	1.340	2.060	90.93	-0.10	2.60	 	 	 	 	 	 	 	 	 	 	 	 	 	 	 	 	 	 	1581518481	4.45	8.24
12/02/2020 14:41:22	120220	12022020	144122	91.02	12.418768	-57.071670	91.04	-0.830	1.100	1.650	91.04	-0.20	2.20	 	 	 	 	 	 	 	 	 	 	 	 	 	 	 	 	 	 	1581518482	4.80	8.89
12/02/2020 14:41:23	120220	12022020	144123	91.16	12.418768	-57.071643	91.18	-0.930	-0.030	1.490	91.16	-1.20	2.00	 	 	 	 	 	 	 	 	 	 	 	 	 	 	 	 	 	 	1581518483	5.70	10.56
12/02/2020 14:41:24	120220	12022020	144124	91.16	12.418767	-57.071612	91.13	-0.440	-1.330	1.600	91.13	-2.50	2.00	 	 	 	 	 	 	 	 	 	 	 	 	 	 	 	 	 	 	1581518484	6.40	11.85
12/02/2020 14:41:25	120220	12022020	144125	90.91	12.418763	-57.071582	90.84	0.350	-1.950	1.770	90.91	-3.30	2.20	 	 	 	 	 	 	 	 	 	 	 	 	 	 	 	 	 	 	1581518485	6.53	12.09
12/02/2020 14:41:26	120220	12022020	144126	90.52	12.418762	-57.071553	90.47	0.860	-1.400	1.920	90.46	-2.90	2.40	 	 	 	 	 	 	 	 	 	 	 	 	 	 	 	 	 	 	1581518486	5.85	10.83
12/02/2020 14:41:27	120220	12022020	144127	90.28	12.418760	-57.071532	90.28	0.710	-0.180	1.960	90.26	-1.70	2.40	 	 	 	 	 	 	 	 	 	 	 	 	 	 	 	 	 	 	1581518487	4.82	8.93
12/02/2020 14:41:28	120220	12022020	144128	90.28	12.418762	-57.071510	90.30	0.170	0.660	1.810	90.29	-0.80	2.30	 	 	 	 	 	 	 	 	 	 	 	 	 	 	 	 	 	 	1581518488	4.45	8.24
12/02/2020 14:41:29	120220	12022020	144129	90.28	12.418763	-57.071487	90.28	-0.260	0.730	1.630	90.27	-0.60	2.20	 	 	 	 	 	 	 	 	 	 	 	 	 	 	 	 	 	 	1581518489	5.06	9.37
12/02/2020 14:41:30	120220	12022020	144130	90.29	12.418763	-57.071460	90.32	-0.510	0.550	1.400	90.31	-0.80	1.90	 	 	 	 	 	 	 	 	 	 	 	 	 	 	 	 	 	 	1581518490	5.71	10.57
12/02/2020 14:41:31	120220	12022020	144131	90.43	12.418765	-57.071433	90.47	-0.670	0.430	1.290	90.46	-0.90	1.80	 	 	 	 	 	 	 	 	 	 	 	 	 	 	 	 	 	 	1581518491	5.50	10.19
12/02/2020 14:41:32	120220	12022020	144132	90.51	12.418763	-57.071408	90.49	-0.580	0.010	1.340	90.49	-1.20	1.80	 	 	 	 	 	 	 	 	 	 	 	 	 	 	 	 	 	 	1581518492	5.20	9.63
12/02/2020 14:41:33	120220	12022020	144133	90.28	12.418762	-57.071382	90.21	-0.000	-1.000	1.530	90.20	-2.20	2.00	 	 	 	 	 	 	 	 	 	 	 	 	 	 	 	 	 	 	1581518493	5.63	10.43
12/02/2020 14:41:34	120220	12022020	144134	89.97	12.418762	-57.071352	90.00	0.810	-1.810	1.500	89.97	-3.10	2.00	 	 	 	 	 	 	 	 	 	 	 	 	 	 	 	 	 	 	1581518494	6.40	11.85
12/02/2020 14:41:35	120220	12022020	144135	90.16	12.418765	-57.071323	90.31	1.130	-1.380	1.230	90.26	-2.90	1.80	 	 	 	 	 	 	 	 	 	 	 	 	 	 	 	 	 	 	1581518495	6.16	11.41
12/02/2020 14:41:36	120220	12022020	144136	90.69	12.418767	-57.071300	90.82	0.580	0.000	0.930	90.79	-1.60	1.40	 	 	 	 	 	 	 	 	 	 	 	 	 	 	 	 	 	 	1581518496	4.81	8.91
12/02/2020 14:41:37	120220	12022020	144137	90.96	12.418768	-57.071282	90.92	-0.320	1.120	0.880	90.93	-0.40	1.30	 	 	 	 	 	 	 	 	 	 	 	 	 	 	 	 	 	 	1581518497	4.05	7.50
12/02/2020 14:41:38	120220	12022020	144138	90.70	12.418767	-57.071260	90.62	-0.870	1.280	1.170	90.64	-0.00	1.60	 	 	 	 	 	 	 	 	 	 	 	 	 	 	 	 	 	 	1581518498	4.53	8.39
12/02/2020 14:41:39	120220	12022020	144139	90.47	12.418765	-57.071235	90.49	-0.830	0.580	1.450	90.46	-0.60	1.90	 	 	 	 	 	 	 	 	 	 	 	 	 	 	 	 	 	 	1581518499	5.41	10.02
12/02/2020 14:41:40	120220	12022020	144140	90.58	12.418763	-57.071205	90.68	-0.380	-0.570	1.500	90.63	-1.70	2.00	 	 	 	 	 	 	 	 	 	 	 	 	 	 	 	 	 	 	1581518500	6.02	11.15
12/02/2020 14:41:41	120220	12022020	144141	90.85	12.418763	-57.071177	90.90	0.200	-1.610	1.240	90.88	-2.80	1.70	 	 	 	 	 	 	 	 	 	 	 	 	 	 	 	 	 	 	1581518501	6.28	11.63
12/02/2020 14:41:42	120220	12022020	144142	90.82	12.418763	-57.071147	90.75	0.660	-1.840	1.260	90.76	-3.20	1.70	 	 	 	 	 	 	 	 	 	 	 	 	 	 	 	 	 	 	1581518502	6.24	11.56
12/02/2020 14:41:43	120220	12022020	144143	90.40	12.418762	-57.071122	90.29	0.640	-0.760	1.510	90.30	-2.30	2.00	 	 	 	 	 	 	 	 	 	 	 	 	 	 	 	 	 	 	1581518503	5.44	10.07
12/02/2020 14:41:44	120220	12022020	144144	89.97	12.418762	-57.071102	89.93	0.120	0.820	1.520	89.92	-0.80	2.00	 	 	 	 	 	 	 	 	 	 	 	 	 	 	 	 	 	 	1581518504	4.19	7.76
12/02/2020 14:41:45	120220	12022020	144145	89.95	12.418765	-57.071082	90.00	-0.410	1.440	1.150	90.00	0.10	1.70	 	 	 	 	 	 	 	 	 	 	 	 	 	 	 	 	 	 	1581518505	4.00	7.41
12/02/2020 14:41:46	120220	12022020	144146	90.23	12.418768	-57.071058	90.25	-0.470	0.640	0.720	90.28	-0.50	1.30	 	 	 	 	 	 	 	 	 	 	 	 	 	 	 	 	 	 	1581518506	5.18	9.59
12/02/2020 14:41:47	120220	12022020	144147	90.32	12.418772	-57.071028	90.27	-0.140	-0.700	0.570	90.30	-1.90	1.10	 	 	 	 	 	 	 	 	 	 	 	 	 	 	 	 	 	 	1581518507	6.42	11.89
12/02/2020 14:41:48	120220	12022020	144148	90.19	12.418772	-57.070997	90.15	0.150	-1.260	0.730	90.16	-2.60	1.20	 	 	 	 	 	 	 	 	 	 	 	 	 	 	 	 	 	 	1581518508	6.54	12.11
12/02/2020 14:41:49	120220	12022020	144149	90.09	12.418768	-57.070972	90.10	0.110	-0.610	1.210	90.07	-2.10	1.60	 	 	 	 	 	 	 	 	 	 	 	 	 	 	 	 	 	 	1581518509	5.38	9.96
12/02/2020 14:41:50	120220	12022020	144150	90.01	12.418765	-57.070952	90.02	-0.140	0.160	1.760	89.98	-1.20	2.20	 	 	 	 	 	 	 	 	 	 	 	 	 	 	 	 	 	 	1581518510	4.30	7.96
12/02/2020 14:41:51	120220	12022020	144151	89.89	12.418763	-57.070930	89.92	-0.190	0.090	2.010	89.87	-1.20	2.50	 	 	 	 	 	 	 	 	 	 	 	 	 	 	 	 	 	 	1581518511	4.63	8.57
12/02/2020 14:41:52	120220	12022020	144152	89.80	12.418763	-57.070903	89.81	0.150	-0.490	2.050	89.78	-1.70	2.50	 	 	 	 	 	 	 	 	 	 	 	 	 	 	 	 	 	 	1581518512	5.63	10.43
12/02/2020 14:41:53	120220	12022020	144153	89.67	12.418765	-57.070875	89.69	0.630	-0.750	1.990	89.65	-2.10	2.50	 	 	 	 	 	 	 	 	 	 	 	 	 	 	 	 	 	 	1581518513	6.04	11.19
12/02/2020 14:41:54	120220	12022020	144154	89.66	12.418768	-57.070848	89.73	0.740	-0.480	1.810	89.68	-1.90	2.30	 	 	 	 	 	 	 	 	 	 	 	 	 	 	 	 	 	 	1581518514	5.62	10.41
12/02/2020 14:41:55	120220	12022020	144155	89.84	12.418772	-57.070825	89.92	0.270	0.010	1.560	89.89	-1.40	2.10	 	 	 	 	 	 	 	 	 	 	 	 	 	 	 	 	 	 	1581518515	5.11	9.46
12/02/2020 14:41:56	120220	12022020	144156	90.09	12.418773	-57.070802	90.19	-0.510	0.410	1.270	90.15	-1.00	1.80	 	 	 	 	 	 	 	 	 	 	 	 	 	 	 	 	 	 	1581518516	4.85	8.98
12/02/2020 14:41:57	120220	12022020	144157	90.38	12.418773	-57.070778	90.46	-1.040	0.570	1.140	90.43	-0.80	1.60	 	 	 	 	 	 	 	 	 	 	 	 	 	 	 	 	 	 	1581518517	4.83	8.95
12/02/2020 14:41:58	120220	12022020	144158	90.58	12.418772	-57.070755	90.60	-0.890	0.350	1.180	90.59	-0.90	1.60	 	 	 	 	 	 	 	 	 	 	 	 	 	 	 	 	 	 	1581518518	4.99	9.24
12/02/2020 14:41:59	120220	12022020	144159	90.48	12.418770	-57.070730	90.43	-0.090	-0.440	1.320	90.42	-1.60	1.80	 	 	 	 	 	 	 	 	 	 	 	 	 	 	 	 	 	 	1581518519	5.42	10.04
12/02/2020 14:42:00	120220	12022020	144200	90.20	12.418770	-57.070700	90.20	0.750	-1.370	1.400	90.18	-2.60	1.90	 	 	 	 	 	 	 	 	 	 	 	 	 	 	 	 	 	 	1581518520	6.14	11.37
12/02/2020 14:42:01	120220	12022020	144201	90.30	12.418772	-57.070672	90.43	1.010	-1.470	1.150	90.30	-2.80	1.70	 	 	 	 	 	 	 	 	 	 	 	 	 	 	 	 	 	 	1581518521	6.23	11.54
12/02/2020 14:42:02	120220	12022020	144202	90.75	12.418775	-57.070647	90.87	0.560	-0.470	0.800	90.84	-2.00	1.30	1017.30	26.40	26.50	21.10	21.10	559.0	72.0	72.0	429.0	28.1	344.00	12.30	70.00	9.60	48259	10479.0	27.5	27.5	1581518522	5.20	9.63
12/02/2020 14:42:03	120220	12022020	144203	91.04	12.418778	-57.070627	91.05	-0.110	0.700	0.740	91.05	-0.80	1.20	 	 	 	 	 	 	 	 	 	 	 	 	 	 	 	 	 	 	1581518523	4.14	7.67
12/02/2020 14:42:04	120220	12022020	144204	91.00	12.418778	-57.070607	90.96	-0.450	0.940	0.960	90.97	-0.30	1.40	 	 	 	 	 	 	 	 	 	 	 	 	 	 	 	 	 	 	1581518524	4.29	7.95
12/02/2020 14:42:05	120220	12022020	144205	90.80	12.418777	-57.070582	90.77	-0.310	0.150	1.300	90.75	-1.00	1.70	 	 	 	 	 	 	 	 	 	 	 	 	 	 	 	 	 	 	1581518525	5.43	10.06
12/02/2020 14:42:06	120220	12022020	144206	90.63	12.418775	-57.070552	90.67	-0.070	-0.700	1.630	90.62	-1.90	2.10	 	 	 	 	 	 	 	 	 	 	 	 	 	 	 	 	 	 	1581518526	6.31	11.69
12/02/2020 14:42:07	120220	12022020	144207	90.75	12.418773	-57.070523	90.88	-0.110	-0.680	1.730	90.81	-2.10	2.20	 	 	 	 	 	 	 	 	 	 	 	 	 	 	 	 	 	 	1581518527	6.00	11.11
12/02/2020 14:42:08	120220	12022020	144208	91.13	12.418772	-57.070500	91.26	-0.430	0.170	1.540	91.20	-1.30	2.00	 	 	 	 	 	 	 	 	 	 	 	 	 	 	 	 	 	 	1581518528	4.76	8.82
12/02/2020 14:42:09	120220	12022020	144209	91.41	12.418772	-57.070482	91.46	-0.640	0.770	1.290	91.43	-0.60	1.80	 	 	 	 	 	 	 	 	 	 	 	 	 	 	 	 	 	 	1581518529	3.92	7.26
12/02/2020 14:42:10	120220	12022020	144210	91.38	12.418772	-57.070462	91.35	-0.280	0.140	1.100	91.35	-1.00	1.60	 	 	 	 	 	 	 	 	 	 	 	 	 	 	 	 	 	 	1581518530	4.49	8.32
12/02/2020 14:42:11	120220	12022020	144211	91.09	12.418772	-57.070432	91.01	0.720	-1.470	0.980	91.01	-2.50	1.50	 	 	 	 	 	 	 	 	 	 	 	 	 	 	 	 	 	 	1581518531	6.03	11.17
12/02/2020 14:42:12	120220	12022020	144212	90.65	12.418775	-57.070398	90.60	1.590	-2.400	1.050	90.58	-3.70	1.50	 	 	 	 	 	 	 	 	 	 	 	 	 	 	 	 	 	 	1581518532	7.07	13.09
12/02/2020 14:42:13	120220	12022020	144213	90.43	12.418777	-57.070370	90.49	1.360	-1.340	1.060	90.43	-2.90	1.60	 	 	 	 	 	 	 	 	 	 	 	 	 	 	 	 	 	 	1581518533	6.10	11.30
12/02/2020 14:42:14	120220	12022020	144214	90.67	12.418778	-57.070352	90.83	0.030	1.000	0.900	90.78	-0.70	1.40	 	 	 	 	 	 	 	 	 	 	 	 	 	 	 	 	 	 	1581518534	3.94	7.30
12/02/2020 14:42:15	120220	12022020	144215	91.32	12.418780	-57.070338	91.48	-1.450	2.730	0.840	91.32	1.20	1.30	 	 	 	 	 	 	 	 	 	 	 	 	 	 	 	 	 	 	1581518535	2.75	5.09
12/02/2020 14:42:16	120220	12022020	144216	91.96	12.418778	-57.070323	92.06	-2.080	2.560	1.190	92.04	1.40	1.60	 	 	 	 	 	 	 	 	 	 	 	 	 	 	 	 	 	 	1581518536	3.46	6.41
12/02/2020 14:42:17	120220	12022020	144217	92.20	12.418772	-57.070298	92.17	-1.470	0.510	1.680	92.18	-0.40	2.10	 	 	 	 	 	 	 	 	 	 	 	 	 	 	 	 	 	 	1581518537	5.38	9.96
12/02/2020 14:42:18	120220	12022020	144218	91.87	12.418763	-57.070267	91.74	-0.050	-2.050	2.300	91.75	-3.00	2.70	 	 	 	 	 	 	 	 	 	 	 	 	 	 	 	 	 	 	1581518538	6.91	12.80
12/02/2020 14:42:19	120220	12022020	144219	91.29	12.418758	-57.070233	91.21	1.380	-3.530	2.860	91.20	-4.70	3.30	 	 	 	 	 	 	 	 	 	 	 	 	 	 	 	 	 	 	1581518539	7.11	13.17
12/02/2020 14:42:20	120220	12022020	144220	91.02	12.418758	-57.070205	91.06	2.090	-2.920	2.690	91.02	-4.40	3.30	 	 	 	 	 	 	 	 	 	 	 	 	 	 	 	 	 	 	1581518540	5.99	11.09
12/02/2020 14:42:21	120220	12022020	144221	91.25	12.418763	-57.070185	91.37	1.670	-0.690	1.630	91.34	-2.40	2.30	 	 	 	 	 	 	 	 	 	 	 	 	 	 	 	 	 	 	1581518541	4.45	8.24
12/02/2020 14:42:22	120220	12022020	144222	91.80	12.418773	-57.070170	91.94	0.330	1.810	0.510	91.93	0.10	1.10	 	 	 	 	 	 	 	 	 	 	 	 	 	 	 	 	 	 	1581518542	3.62	6.70
12/02/2020 14:42:23	120220	12022020	144223	92.35	12.418778	-57.070157	92.39	-1.210	3.170	0.070	92.42	1.70	0.60	 	 	 	 	 	 	 	 	 	 	 	 	 	 	 	 	 	 	1581518543	3.07	5.69
12/02/2020 14:42:24	120220	12022020	144224	92.51	12.418775	-57.070138	92.39	-2.030	2.590	0.330	92.47	1.50	0.70	 	 	 	 	 	 	 	 	 	 	 	 	 	 	 	 	 	 	1581518544	3.84	7.11
12/02/2020 14:42:25	120220	12022020	144225	92.13	12.418768	-57.070112	91.92	-1.600	0.180	0.930	92.00	-0.70	1.30	 	 	 	 	 	 	 	 	 	 	 	 	 	 	 	 	 	 	1581518545	5.68	10.52
12/02/2020 14:42:26	120220	12022020	144226	91.47	12.418760	-57.070080	91.33	-0.310	-2.440	1.550	91.36	-3.40	2.00	 	 	 	 	 	 	 	 	 	 	 	 	 	 	 	 	 	 	1581518546	7.14	13.22
12/02/2020 14:42:27	120220	12022020	144227	91.07	12.418755	-57.070048	91.06	0.920	-3.280	1.640	91.04	-4.60	2.10	 	 	 	 	 	 	 	 	 	 	 	 	 	 	 	 	 	 	1581518547	6.83	12.65
12/02/2020 14:42:28	120220	12022020	144228	91.10	12.418757	-57.070025	91.16	1.350	-1.960	1.100	91.13	-3.60	1.70	 	 	 	 	 	 	 	 	 	 	 	 	 	 	 	 	 	 	1581518548	4.83	8.95
12/02/2020 14:42:29	120220	12022020	144229	91.28	12.418763	-57.070010	91.32	0.950	0.000	0.420	91.30	-1.60	1.00	 	 	 	 	 	 	 	 	 	 	 	 	 	 	 	 	 	 	1581518549	3.41	6.32
12/02/2020 14:42:30	120220	12022020	144230	91.32	12.418767	-57.069995	91.32	0.280	1.000	0.270	91.30	-0.40	0.70	 	 	 	 	 	 	 	 	 	 	 	 	 	 	 	 	 	 	1581518550	3.45	6.39
12/02/2020 14:42:31	120220	12022020	144231	91.11	12.418767	-57.069972	91.04	-0.140	0.850	0.730	91.04	-0.40	1.10	 	 	 	 	 	 	 	 	 	 	 	 	 	 	 	 	 	 	1581518551	4.63	8.57
12/02/2020 14:42:32	120220	12022020	144232	90.82	12.418760	-57.069947	90.77	-0.230	0.480	1.270	90.78	-0.80	1.70	 	 	 	 	 	 	 	 	 	 	 	 	 	 	 	 	 	 	1581518552	5.61	10.39
12/02/2020 14:42:33	120220	12022020	144233	90.61	12.418757	-57.069922	90.59	-0.260	0.500	1.780	90.57	-0.80	2.20	 	 	 	 	 	 	 	 	 	 	 	 	 	 	 	 	 	 	1581518553	5.28	9.78
12/02/2020 14:42:34	120220	12022020	144234	90.43	12.418752	-57.069900	90.42	-0.410	0.520	2.000	90.40	-0.80	2.50	 	 	 	 	 	 	 	 	 	 	 	 	 	 	 	 	 	 	1581518554	4.50	8.33
12/02/2020 14:42:35	120220	12022020	144235	90.28	12.418752	-57.069880	90.23	-0.430	-0.150	1.810	90.24	-1.30	2.30	 	 	 	 	 	 	 	 	 	 	 	 	 	 	 	 	 	 	1581518555	4.46	8.26
12/02/2020 14:42:36	120220	12022020	144236	90.00	12.418752	-57.069855	89.90	-0.040	-1.360	1.740	89.92	-2.50	2.20	 	 	 	 	 	 	 	 	 	 	 	 	 	 	 	 	 	 	1581518556	5.33	9.87
12/02/2020 14:42:37	120220	12022020	144237	89.59	12.418753	-57.069827	89.53	0.550	-2.080	1.870	89.52	-3.30	2.30	 	 	 	 	 	 	 	 	 	 	 	 	 	 	 	 	 	 	1581518557	5.92	10.96
12/02/2020 14:42:38	120220	12022020	144238	89.29	12.418753	-57.069800	89.28	0.820	-1.570	1.900	89.26	-3.00	2.40	 	 	 	 	 	 	 	 	 	 	 	 	 	 	 	 	 	 	1581518558	5.44	10.07
12/02/2020 14:42:39	120220	12022020	144239	89.30	12.418753	-57.069780	89.39	0.440	0.050	1.640	89.30	-1.50	2.20	 	 	 	 	 	 	 	 	 	 	 	 	 	 	 	 	 	 	1581518559	4.25	7.87
12/02/2020 14:42:40	120220	12022020	144240	89.62	12.418755	-57.069765	89.72	-0.350	1.680	1.180	89.69	0.20	1.70	 	 	 	 	 	 	 	 	 	 	 	 	 	 	 	 	 	 	1581518560	3.18	5.89
12/02/2020 14:42:41	120220	12022020	144241	89.92	12.418757	-57.069750	89.95	-0.840	1.930	0.890	89.96	0.70	1.40	 	 	 	 	 	 	 	 	 	 	 	 	 	 	 	 	 	 	1581518561	3.27	6.06
12/02/2020 14:42:42	120220	12022020	144242	90.04	12.418757	-57.069727	90.02	-0.480	0.310	0.730	90.04	-0.70	1.20	 	 	 	 	 	 	 	 	 	 	 	 	 	 	 	 	 	 	1581518562	4.86	9.00
12/02/2020 14:42:43	120220	12022020	144243	90.02	12.418757	-57.069697	90.00	0.370	-1.650	0.670	90.01	-2.70	1.10	 	 	 	 	 	 	 	 	 	 	 	 	 	 	 	 	 	 	1581518563	6.55	12.13
12/02/2020 14:42:44	120220	12022020	144244	89.99	12.418757	-57.069667	90.00	0.900	-2.150	0.870	89.99	-3.50	1.30	 	 	 	 	 	 	 	 	 	 	 	 	 	 	 	 	 	 	1581518564	6.37	11.80
12/02/2020 14:42:45	120220	12022020	144245	90.04	12.418757	-57.069645	90.08	0.740	-0.900	1.110	90.06	-2.50	1.60	 	 	 	 	 	 	 	 	 	 	 	 	 	 	 	 	 	 	1581518565	4.57	8.46
12/02/2020 14:42:46	120220	12022020	144246	90.15	12.418757	-57.069630	90.19	0.160	0.780	1.130	90.17	-0.80	1.60	 	 	 	 	 	 	 	 	 	 	 	 	 	 	 	 	 	 	1581518566	3.05	5.65
12/02/2020 14:42:47	120220	12022020	144247	90.25	12.418758	-57.069615	90.27	-0.350	1.460	0.950	90.25	0.10	1.50	 	 	 	 	 	 	 	 	 	 	 	 	 	 	 	 	 	 	1581518567	3.09	5.72
12/02/2020 14:42:48	120220	12022020	144248	90.24	12.418760	-57.069595	90.24	-0.520	0.770	0.870	90.23	-0.40	1.30	 	 	 	 	 	 	 	 	 	 	 	 	 	 	 	 	 	 	1581518568	4.28	7.93
12/02/2020 14:42:49	120220	12022020	144249	90.20	12.418760	-57.069570	90.21	-0.330	-0.720	0.930	90.21	-1.80	1.40	 	 	 	 	 	 	 	 	 	 	 	 	 	 	 	 	 	 	1581518569	5.51	10.20
12/02/2020 14:42:50	120220	12022020	144250	90.23	12.418760	-57.069542	90.27	0.070	-1.760	0.970	90.24	-3.00	1.40	 	 	 	 	 	 	 	 	 	 	 	 	 	 	 	 	 	 	1581518570	6.00	11.11
12/02/2020 14:42:51	120220	12022020	144251	90.25	12.418758	-57.069515	90.27	0.470	-1.510	1.090	90.25	-2.90	1.50	 	 	 	 	 	 	 	 	 	 	 	 	 	 	 	 	 	 	1581518571	5.35	9.91
12/02/2020 14:42:52	120220	12022020	144252	90.19	12.418757	-57.069495	90.19	0.500	-0.360	1.350	90.17	-1.90	1.80	 	 	 	 	 	 	 	 	 	 	 	 	 	 	 	 	 	 	1581518572	4.23	7.83
12/02/2020 14:42:53	120220	12022020	144253	90.03	12.418755	-57.069478	90.01	0.020	0.670	1.660	90.03	-0.80	2.10	 	 	 	 	 	 	 	 	 	 	 	 	 	 	 	 	 	 	1581518573	3.72	6.89
12/02/2020 14:42:54	120220	12022020	144254	89.82	12.418753	-57.069460	89.79	-0.610	0.940	1.780	89.78	-0.40	2.30	 	 	 	 	 	 	 	 	 	 	 	 	 	 	 	 	 	 	1581518574	4.04	7.48
12/02/2020 14:42:55	120220	12022020	144255	89.63	12.418752	-57.069438	89.61	-0.820	0.740	1.580	89.61	-0.50	2.10	 	 	 	 	 	 	 	 	 	 	 	 	 	 	 	 	 	 	1581518575	4.57	8.46
12/02/2020 14:42:56	120220	12022020	144256	89.56	12.418753	-57.069415	89.54	-0.360	0.210	1.100	89.56	-1.00	1.70	 	 	 	 	 	 	 	 	 	 	 	 	 	 	 	 	 	 	1581518576	4.76	8.82
12/02/2020 14:42:57	120220	12022020	144257	89.61	12.418758	-57.069392	89.60	0.490	-0.770	0.500	89.63	-1.90	1.10	 	 	 	 	 	 	 	 	 	 	 	 	 	 	 	 	 	 	1581518577	5.16	9.56
12/02/2020 14:42:58	120220	12022020	144258	89.63	12.418763	-57.069365	89.59	1.090	-1.660	0.220	89.61	-2.90	0.70	 	 	 	 	 	 	 	 	 	 	 	 	 	 	 	 	 	 	1581518578	5.72	10.59
12/02/2020 14:42:59	120220	12022020	144259	89.45	12.418765	-57.069338	89.40	0.960	-1.500	0.480	89.40	-2.90	0.90	 	 	 	 	 	 	 	 	 	 	 	 	 	 	 	 	 	 	1581518579	5.48	10.15
12/02/2020 14:43:00	120220	12022020	144300	89.15	12.418763	-57.069318	89.12	0.250	-0.120	1.040	89.09	-1.70	1.40	 	 	 	 	 	 	 	 	 	 	 	 	 	 	 	 	 	 	1581518580	4.21	7.80
12/02/2020 14:43:01	120220	12022020	144301	88.80	12.418762	-57.069305	88.77	-0.500	1.200	1.700	88.74	-0.20	2.10	 	 	 	 	 	 	 	 	 	 	 	 	 	 	 	 	 	 	1581518581	3.10	5.74
12/02/2020 14:43:02	120220	12022020	144302	88.61	12.418760	-57.069287	88.66	-0.810	1.150	2.070	88.62	-0.10	2.50	1017.40	26.40	26.50	20.90	21.00	562.0	72.0	71.0	426.0	28.1	344.00	12.10	70.00	9.70	48689	11657.0	27.5	27.5	1581518582	3.65	6.76
12/02/2020 14:43:03	120220	12022020	144303	88.73	12.418758	-57.069263	88.80	-0.690	0.070	2.190	88.73	-1.10	2.60	 	 	 	 	 	 	 	 	 	 	 	 	 	 	 	 	 	 	1581518583	5.14	9.52
12/02/2020 14:43:04	120220	12022020	144304	88.81	12.418757	-57.069237	88.79	-0.450	-0.760	2.200	88.79	-2.00	2.70	 	 	 	 	 	 	 	 	 	 	 	 	 	 	 	 	 	 	1581518584	5.73	10.61
12/02/2020 14:43:05	120220	12022020	144305	88.58	12.418755	-57.069212	88.49	-0.250	-0.770	2.200	88.58	-2.10	2.70	 	 	 	 	 	 	 	 	 	 	 	 	 	 	 	 	 	 	1581518585	5.04	9.33
12/02/2020 14:43:06	120220	12022020	144306	88.17	12.418757	-57.069192	88.08	-0.060	-0.440	2.280	88.09	-1.80	2.70	 	 	 	 	 	 	 	 	 	 	 	 	 	 	 	 	 	 	1581518586	4.21	7.80
12/02/2020 14:43:07	120220	12022020	144307	87.89	12.418757	-57.069173	87.87	0.270	-0.360	1.930	87.88	-1.70	2.50	 	 	 	 	 	 	 	 	 	 	 	 	 	 	 	 	 	 	1581518587	4.18	7.74
12/02/2020 14:43:08	120220	12022020	144308	87.97	12.418763	-57.069150	88.02	0.660	-0.480	1.000	88.03	-1.80	1.60	 	 	 	 	 	 	 	 	 	 	 	 	 	 	 	 	 	 	1581518588	4.78	8.85
12/02/2020 14:43:09	120220	12022020	144309	88.28	12.418772	-57.069128	88.33	0.820	-0.450	0.110	88.34	-1.80	0.70	 	 	 	 	 	 	 	 	 	 	 	 	 	 	 	 	 	 	1581518589	5.09	9.43
12/02/2020 14:43:10	120220	12022020	144310	88.50	12.418777	-57.069107	88.48	0.610	-0.240	-0.220	88.51	-1.60	0.30	 	 	 	 	 	 	 	 	 	 	 	 	 	 	 	 	 	 	1581518590	4.83	8.95
12/02/2020 14:43:11	120220	12022020	144311	88.42	12.418780	-57.069085	88.33	0.120	0.030	0.070	88.37	-1.30	0.50	 	 	 	 	 	 	 	 	 	 	 	 	 	 	 	 	 	 	1581518591	4.56	8.45
12/02/2020 14:43:12	120220	12022020	144312	88.14	12.418780	-57.069063	88.09	-0.480	0.340	0.700	88.09	-1.00	1.10	 	 	 	 	 	 	 	 	 	 	 	 	 	 	 	 	 	 	1581518592	4.42	8.19
12/02/2020 14:43:13	120220	12022020	144313	88.00	12.418777	-57.069043	88.03	-0.880	0.490	1.330	88.00	-0.90	1.70	 	 	 	 	 	 	 	 	 	 	 	 	 	 	 	 	 	 	1581518593	4.32	8.00
12/02/2020 14:43:14	120220	12022020	144314	88.11	12.418775	-57.069023	88.21	-0.870	0.320	1.780	88.17	-1.00	2.20	 	 	 	 	 	 	 	 	 	 	 	 	 	 	 	 	 	 	1581518594	4.43	8.20
12/02/2020 14:43:15	120220	12022020	144315	88.47	12.418775	-57.069000	88.63	-0.470	-0.190	1.760	88.56	-1.40	2.20	 	 	 	 	 	 	 	 	 	 	 	 	 	 	 	 	 	 	1581518595	4.62	8.56
12/02/2020 14:43:16	120220	12022020	144316	88.83	12.418777	-57.068977	88.88	0.130	-0.930	1.590	88.86	-2.10	2.00	 	 	 	 	 	 	 	 	 	 	 	 	 	 	 	 	 	 	1581518596	5.00	9.26
12/02/2020 14:43:17	120220	12022020	144317	88.79	12.418778	-57.068952	88.76	0.560	-1.410	1.930	88.75	-2.70	2.30	 	 	 	 	 	 	 	 	 	 	 	 	 	 	 	 	 	 	1581518597	5.35	9.91
12/02/2020 14:43:18	120220	12022020	144318	88.58	12.418778	-57.068928	88.59	0.520	-1.020	2.380	88.56	-2.50	2.80	 	 	 	 	 	 	 	 	 	 	 	 	 	 	 	 	 	 	1581518598	5.07	9.39
12/02/2020 14:43:19	120220	12022020	144319	88.52	12.418777	-57.068908	88.55	0.170	-0.020	2.290	88.53	-1.50	2.80	 	 	 	 	 	 	 	 	 	 	 	 	 	 	 	 	 	 	1581518599	4.22	7.82
12/02/2020 14:43:20	120220	12022020	144320	88.58	12.418778	-57.068890	88.61	-0.030	0.700	1.620	88.60	-0.70	2.20	 	 	 	 	 	 	 	 	 	 	 	 	 	 	 	 	 	 	1581518600	3.77	6.98
12/02/2020 14:43:21	120220	12022020	144321	88.71	12.418785	-57.068870	88.73	0.110	0.580	0.740	88.76	-0.70	1.30	 	 	 	 	 	 	 	 	 	 	 	 	 	 	 	 	 	 	1581518601	4.49	8.32
12/02/2020 14:43:22	120220	12022020	144322	89.06	12.418795	-57.068847	89.13	0.290	0.020	-0.220	89.17	-1.20	0.40	 	 	 	 	 	 	 	 	 	 	 	 	 	 	 	 	 	 	1581518602	5.43	10.06
12/02/2020 14:43:23	120220	12022020	144323	89.52	12.418802	-57.068822	89.52	0.110	-0.320	-0.810	89.58	-1.60	-0.30	 	 	 	 	 	 	 	 	 	 	 	 	 	 	 	 	 	 	1581518603	5.45	10.09
12/02/2020 14:43:24	120220	12022020	144324	89.64	12.418805	-57.068800	89.58	-0.340	-0.350	-0.590	89.63	-1.70	-0.20	 	 	 	 	 	 	 	 	 	 	 	 	 	 	 	 	 	 	1581518604	4.77	8.83
12/02/2020 14:43:25	120220	12022020	144325	89.52	12.418803	-57.068778	89.48	-0.630	-0.370	0.140	89.51	-1.70	0.50	 	 	 	 	 	 	 	 	 	 	 	 	 	 	 	 	 	 	1581518605	4.48	8.30
12/02/2020 14:43:26	120220	12022020	144326	89.48	12.418800	-57.068757	89.46	-0.470	-0.550	0.850	89.48	-1.80	1.20	 	 	 	 	 	 	 	 	 	 	 	 	 	 	 	 	 	 	1581518606	4.68	8.67
12/02/2020 14:43:27	120220	12022020	144327	89.49	12.418798	-57.068733	89.52	-0.080	-0.740	1.480	89.49	-2.00	1.80	 	 	 	 	 	 	 	 	 	 	 	 	 	 	 	 	 	 	1581518607	4.99	9.24
12/02/2020 14:43:28	120220	12022020	144328	89.59	12.418795	-57.068710	89.65	0.040	-0.480	1.990	89.62	-1.90	2.40	 	 	 	 	 	 	 	 	 	 	 	 	 	 	 	 	 	 	1581518608	5.00	9.26
12/02/2020 14:43:29	120220	12022020	144329	89.71	12.418793	-57.068688	89.78	-0.150	0.210	2.270	89.74	-1.20	2.70	 	 	 	 	 	 	 	 	 	 	 	 	 	 	 	 	 	 	1581518609	4.41	8.17
12/02/2020 14:43:30	120220	12022020	144330	89.81	12.418792	-57.068670	89.83	-0.230	0.600	2.230	89.82	-0.70	2.70	 	 	 	 	 	 	 	 	 	 	 	 	 	 	 	 	 	 	1581518610	4.00	7.41
12/02/2020 14:43:31	120220	12022020	144331	89.86	12.418793	-57.068648	89.89	0.120	0.190	1.860	89.88	-1.00	2.40	 	 	 	 	 	 	 	 	 	 	 	 	 	 	 	 	 	 	1581518611	4.54	8.41
12/02/2020 14:43:32	120220	12022020	144332	90.02	12.418798	-57.068623	90.09	0.550	-0.520	1.190	90.07	-1.70	1.80	 	 	 	 	 	 	 	 	 	 	 	 	 	 	 	 	 	 	1581518612	5.44	10.07
12/02/2020 14:43:33	120220	12022020	144333	90.30	12.418807	-57.068598	90.36	0.660	-0.780	0.430	90.36	-2.10	1.00	 	 	 	 	 	 	 	 	 	 	 	 	 	 	 	 	 	 	1581518613	5.58	10.33
12/02/2020 14:43:34	120220	12022020	144334	90.51	12.418812	-57.068575	90.52	0.360	-0.490	0.010	90.53	-1.90	0.50	 	 	 	 	 	 	 	 	 	 	 	 	 	 	 	 	 	 	1581518614	4.91	9.09
12/02/2020 14:43:35	120220	12022020	144335	90.60	12.418815	-57.068555	90.64	-0.140	-0.080	0.040	90.63	-1.40	0.50	 	 	 	 	 	 	 	 	 	 	 	 	 	 	 	 	 	 	1581518615	4.32	8.00
12/02/2020 14:43:36	120220	12022020	144336	90.83	12.418815	-57.068535	90.92	-0.620	0.230	0.320	90.89	-1.10	0.70	 	 	 	 	 	 	 	 	 	 	 	 	 	 	 	 	 	 	1581518616	4.29	7.95
12/02/2020 14:43:37	120220	12022020	144337	91.06	12.418812	-57.068515	91.08	-0.790	0.220	0.790	91.07	-1.10	1.10	 	 	 	 	 	 	 	 	 	 	 	 	 	 	 	 	 	 	1581518617	4.41	8.17
12/02/2020 14:43:38	120220	12022020	144338	90.99	12.418810	-57.068492	90.97	-0.440	-0.400	1.360	90.95	-1.60	1.70	 	 	 	 	 	 	 	 	 	 	 	 	 	 	 	 	 	 	1581518618	4.80	8.89
12/02/2020 14:43:39	120220	12022020	144339	90.77	12.418807	-57.068465	90.78	0.310	-1.370	1.790	90.77	-2.60	2.20	 	 	 	 	 	 	 	 	 	 	 	 	 	 	 	 	 	 	1581518619	5.65	10.46
12/02/2020 14:43:40	120220	12022020	144340	90.71	12.418807	-57.068437	90.82	0.880	-1.540	1.930	90.75	-2.90	2.40	 	 	 	 	 	 	 	 	 	 	 	 	 	 	 	 	 	 	1581518620	6.03	11.17
12/02/2020 14:43:41	120220	12022020	144341	91.07	12.418807	-57.068413	91.27	0.610	-0.090	1.610	91.19	-1.70	2.10	 	 	 	 	 	 	 	 	 	 	 	 	 	 	 	 	 	 	1581518621	4.94	9.15
12/02/2020 14:43:42	120220	12022020	144342	91.71	12.418810	-57.068400	91.89	-0.460	2.030	0.980	91.84	0.40	1.50	 	 	 	 	 	 	 	 	 	 	 	 	 	 	 	 	 	 	1581518622	3.08	5.70
12/02/2020 14:43:43	120220	12022020	144343	92.27	12.418815	-57.068390	92.36	-1.540	2.920	0.390	92.35	1.60	0.90	 	 	 	 	 	 	 	 	 	 	 	 	 	 	 	 	 	 	1581518623	2.43	4.50
12/02/2020 14:43:44	120220	12022020	144344	92.55	12.418818	-57.068372	92.53	-1.590	1.330	-0.010	92.56	0.40	0.50	 	 	 	 	 	 	 	 	 	 	 	 	 	 	 	 	 	 	1581518624	3.61	6.69
12/02/2020 14:43:45	120220	12022020	144345	92.42	12.418818	-57.068343	92.30	-0.310	-2.040	0.050	92.35	-2.80	0.50	 	 	 	 	 	 	 	 	 	 	 	 	 	 	 	 	 	 	1581518625	6.03	11.17
12/02/2020 14:43:46	120220	12022020	144346	92.03	12.418815	-57.068308	91.95	1.420	-4.550	0.390	91.97	-5.60	0.80	 	 	 	 	 	 	 	 	 	 	 	 	 	 	 	 	 	 	1581518626	7.58	14.04
12/02/2020 14:43:47	120220	12022020	144347	91.86	12.418813	-57.068278	91.87	2.210	-3.710	0.490	91.86	-5.40	0.90	 	 	 	 	 	 	 	 	 	 	 	 	 	 	 	 	 	 	1581518627	6.38	11.82
12/02/2020 14:43:48	120220	12022020	144348	91.97	12.418817	-57.068263	92.01	1.430	-0.240	0.380	92.02	-2.20	0.90	 	 	 	 	 	 	 	 	 	 	 	 	 	 	 	 	 	 	1581518628	3.15	5.83
12/02/2020 14:43:49	120220	12022020	144349	92.27	12.418820	-57.068258	92.35	-0.360	3.180	0.320	92.36	1.40	0.80	 	 	 	 	 	 	 	 	 	 	 	 	 	 	 	 	 	 	1581518629	1.35	2.50
12/02/2020 14:43:50	120220	12022020	144350	92.66	12.418822	-57.068252	92.72	-1.970	4.380	0.370	92.73	3.00	0.80	 	 	 	 	 	 	 	 	 	 	 	 	 	 	 	 	 	 	1581518630	1.40	2.59
12/02/2020 14:43:51	120220	12022020	144351	92.92	12.418820	-57.068237	92.94	-2.250	2.630	0.550	92.96	1.70	1.00	 	 	 	 	 	 	 	 	 	 	 	 	 	 	 	 	 	 	1581518631	3.42	6.33
12/02/2020 14:43:52	120220	12022020	144352	93.03	12.418817	-57.068208	93.02	-1.100	-0.800	0.830	93.03	-1.60	1.20	 	 	 	 	 	 	 	 	 	 	 	 	 	 	 	 	 	 	1581518632	5.93	10.98
12/02/2020 14:43:53	120220	12022020	144353	92.92	12.418812	-57.068177	92.87	0.510	-3.590	1.320	92.86	-4.60	1.70	 	 	 	 	 	 	 	 	 	 	 	 	 	 	 	 	 	 	1581518633	6.93	12.83
12/02/2020 14:43:54	120220	12022020	144354	92.59	12.418808	-57.068148	92.54	1.430	-3.940	1.780	92.52	-5.40	2.20	 	 	 	 	 	 	 	 	 	 	 	 	 	 	 	 	 	 	1581518634	5.91	10.95
12/02/2020 14:43:55	120220	12022020	144355	92.35	12.418807	-57.068132	92.37	1.300	-1.940	2.010	92.35	-3.60	2.40	 	 	 	 	 	 	 	 	 	 	 	 	 	 	 	 	 	 	1581518635	3.63	6.72
12/02/2020 14:43:56	120220	12022020	144356	92.42	12.418808	-57.068122	92.51	0.590	0.690	1.810	92.47	-1.00	2.30	 	 	 	 	 	 	 	 	 	 	 	 	 	 	 	 	 	 	1581518636	1.99	3.69
12/02/2020 14:43:57	120220	12022020	144357	92.78	12.418812	-57.068112	92.87	-0.110	2.270	1.260	92.86	0.80	1.80	 	 	 	 	 	 	 	 	 	 	 	 	 	 	 	 	 	 	1581518637	2.11	3.91
12/02/2020 14:43:58	120220	12022020	144358	93.09	12.418815	-57.068097	93.09	-0.510	2.060	0.630	93.12	0.90	1.20	 	 	 	 	 	 	 	 	 	 	 	 	 	 	 	 	 	 	1581518638	3.41	6.32
12/02/2020 14:43:59	120220	12022020	144359	93.01	12.418817	-57.068075	92.89	-0.620	0.810	0.350	92.94	-0.30	0.80	 	 	 	 	 	 	 	 	 	 	 	 	 	 	 	 	 	 	1581518639	4.74	8.78
12/02/2020 14:44:00	120220	12022020	144400	92.56	12.418815	-57.068050	92.41	-0.460	-0.450	0.600	92.46	-1.60	1.00	 	 	 	 	 	 	 	 	 	 	 	 	 	 	 	 	 	 	1581518640	5.10	9.45
12/02/2020 14:44:01	120220	12022020	144401	92.18	12.418813	-57.068028	92.13	-0.040	-1.260	0.790	92.14	-2.50	1.20	 	 	 	 	 	 	 	 	 	 	 	 	 	 	 	 	 	 	1581518641	4.76	8.82
12/02/2020 14:44:02	120220	12022020	144402	92.20	12.418815	-57.068007	92.26	0.430	-1.520	0.500	92.25	-2.80	1.00	1017.30	26.50	26.50	21.10	21.20	991.0	72.0	72.0	423.0	28.3	344.00	11.40	70.00	9.20	70532	11998.0	27.5	27.5	1581518642	4.38	8.11
12/02/2020 14:44:03	120220	12022020	144403	92.60	12.418818	-57.067988	92.71	0.670	-1.230	0.030	92.70	-2.60	0.50	 	 	 	 	 	 	 	 	 	 	 	 	 	 	 	 	 	 	1581518643	4.17	7.72
12/02/2020 14:44:04	120220	12022020	144404	93.04	12.418820	-57.067970	93.09	0.620	-0.610	0.080	93.09	-2.00	0.50	 	 	 	 	 	 	 	 	 	 	 	 	 	 	 	 	 	 	1581518644	3.80	7.04
12/02/2020 14:44:05	120220	12022020	144405	93.14	12.418818	-57.067953	93.13	0.460	-0.110	0.910	93.12	-1.50	1.20	 	 	 	 	 	 	 	 	 	 	 	 	 	 	 	 	 	 	1581518645	3.73	6.91
12/02/2020 14:44:06	120220	12022020	144406	92.93	12.418812	-57.067933	92.90	0.280	0.280	1.930	92.88	-1.10	2.20	 	 	 	 	 	 	 	 	 	 	 	 	 	 	 	 	 	 	1581518646	4.19	7.76
12/02/2020 14:44:07	120220	12022020	144407	92.64	12.418807	-57.067915	92.62	-0.050	0.810	2.620	92.58	-0.60	3.00	 	 	 	 	 	 	 	 	 	 	 	 	 	 	 	 	 	 	1581518647	4.11	7.61
12/02/2020 14:44:08	120220	12022020	144408	92.39	12.418803	-57.067898	92.42	-0.550	1.150	2.910	92.36	-0.20	3.30	 	 	 	 	 	 	 	 	 	 	 	 	 	 	 	 	 	 	1581518648	3.60	6.67
12/02/2020 14:44:09	120220	12022020	144409	92.27	12.418802	-57.067882	92.33	-0.820	0.640	2.780	92.26	-0.50	3.30	 	 	 	 	 	 	 	 	 	 	 	 	 	 	 	 	 	 	1581518649	3.64	6.74
12/02/2020 14:44:10	120220	12022020	144410	92.29	12.418805	-57.067860	92.36	-0.450	-0.760	2.050	92.31	-1.80	2.70	 	 	 	 	 	 	 	 	 	 	 	 	 	 	 	 	 	 	1581518650	4.58	8.48
12/02/2020 14:44:11	120220	12022020	144411	92.37	12.418808	-57.067833	92.42	0.390	-1.990	1.210	92.38	-3.20	1.80	 	 	 	 	 	 	 	 	 	 	 	 	 	 	 	 	 	 	1581518651	5.53	10.24
12/02/2020 14:44:12	120220	12022020	144412	92.45	12.418813	-57.067810	92.50	1.020	-1.910	0.750	92.48	-3.30	1.30	 	 	 	 	 	 	 	 	 	 	 	 	 	 	 	 	 	 	1581518652	5.23	9.69
12/02/2020 14:44:13	120220	12022020	144413	92.62	12.418815	-57.067792	92.70	0.930	-0.640	0.640	92.66	-2.20	1.10	 	 	 	 	 	 	 	 	 	 	 	 	 	 	 	 	 	 	1581518653	3.88	7.19
12/02/2020 14:44:14	120220	12022020	144414	92.82	12.418813	-57.067777	92.86	0.330	0.620	0.660	92.84	-0.90	1.10	 	 	 	 	 	 	 	 	 	 	 	 	 	 	 	 	 	 	1581518654	2.95	5.46
12/02/2020 14:44:15	120220	12022020	144415	92.81	12.418812	-57.067762	92.79	-0.200	1.010	0.840	92.77	-0.30	1.30	 	 	 	 	 	 	 	 	 	 	 	 	 	 	 	 	 	 	1581518655	3.32	6.15
12/02/2020 14:44:16	120220	12022020	144416	92.60	12.418810	-57.067742	92.56	-0.340	0.730	0.940	92.56	-0.50	1.40	 	 	 	 	 	 	 	 	 	 	 	 	 	 	 	 	 	 	1581518656	4.20	7.78
12/02/2020 14:44:17	120220	12022020	144417	92.43	12.418810	-57.067720	92.41	-0.210	0.300	0.940	92.41	-0.90	1.40	 	 	 	 	 	 	 	 	 	 	 	 	 	 	 	 	 	 	1581518657	4.54	8.41
12/02/2020 14:44:18	120220	12022020	144418	92.38	12.418812	-57.067700	92.40	-0.080	-0.190	1.000	92.39	-1.40	1.50	 	 	 	 	 	 	 	 	 	 	 	 	 	 	 	 	 	 	1581518658	4.51	8.35
12/02/2020 14:44:19	120220	12022020	144419	92.53	12.418813	-57.067678	92.62	-0.150	-0.590	0.910	92.59	-1.90	1.40	 	 	 	 	 	 	 	 	 	 	 	 	 	 	 	 	 	 	1581518659	4.47	8.28
12/02/2020 14:44:20	120220	12022020	144420	92.91	12.418813	-57.067658	93.02	-0.320	-0.790	0.910	92.98	-2.10	1.30	 	 	 	 	 	 	 	 	 	 	 	 	 	 	 	 	 	 	1581518660	4.26	7.89
12/02/2020 14:44:21	120220	12022020	144421	93.13	12.418812	-57.067638	93.17	-0.240	-0.920	1.480	93.13	-2.20	1.80	 	 	 	 	 	 	 	 	 	 	 	 	 	 	 	 	 	 	1581518661	4.17	7.72
12/02/2020 14:44:22	120220	12022020	144422	92.93	12.418805	-57.067618	92.89	0.250	-1.000	2.320	92.86	-2.30	2.70	 	 	 	 	 	 	 	 	 	 	 	 	 	 	 	 	 	 	1581518662	4.54	8.41
12/02/2020 14:44:23	120220	12022020	144423	92.55	12.418798	-57.067597	92.53	0.720	-0.670	2.790	92.48	-2.10	3.20	 	 	 	 	 	 	 	 	 	 	 	 	 	 	 	 	 	 	1581518663	4.66	8.63
12/02/2020 14:44:24	120220	12022020	144424	92.26	12.418797	-57.067577	92.26	0.680	0.120	2.660	92.23	-1.40	3.20	 	 	 	 	 	 	 	 	 	 	 	 	 	 	 	 	 	 	1581518664	4.18	7.74
12/02/2020 14:44:25	120220	12022020	144425	92.20	12.418798	-57.067560	92.29	0.120	0.950	2.080	92.24	-0.50	2.70	 	 	 	 	 	 	 	 	 	 	 	 	 	 	 	 	 	 	1581518665	3.69	6.83
12/02/2020 14:44:26	120220	12022020	144426	92.59	12.418802	-57.067543	92.75	-0.520	1.310	1.200	92.70	-0.00	1.80	 	 	 	 	 	 	 	 	 	 	 	 	 	 	 	 	 	 	1581518666	3.55	6.57
12/02/2020 14:44:27	120220	12022020	144427	93.12	12.418807	-57.067525	93.18	-0.650	0.610	0.220	93.19	-0.50	0.80	 	 	 	 	 	 	 	 	 	 	 	 	 	 	 	 	 	 	1581518667	3.95	7.32
12/02/2020 14:44:28	120220	12022020	144428	93.23	12.418810	-57.067502	93.13	-0.140	-0.930	-0.320	93.18	-2.00	0.20	 	 	 	 	 	 	 	 	 	 	 	 	 	 	 	 	 	 	1581518668	5.08	9.41
12/02/2020 14:44:29	120220	12022020	144429	92.90	12.418812	-57.067475	92.79	0.400	-1.900	-0.080	92.82	-3.10	0.30	 	 	 	 	 	 	 	 	 	 	 	 	 	 	 	 	 	 	1581518669	5.66	10.48
12/02/2020 14:44:30	120220	12022020	144430	92.64	12.418810	-57.067452	92.66	0.450	-1.520	0.640	92.64	-3.00	1.00	 	 	 	 	 	 	 	 	 	 	 	 	 	 	 	 	 	 	1581518670	4.83	8.95
12/02/2020 14:44:31	120220	12022020	144431	92.77	12.418805	-57.067435	92.87	0.120	-0.280	1.330	92.77	-1.80	1.70	 	 	 	 	 	 	 	 	 	 	 	 	 	 	 	 	 	 	1581518671	3.72	6.89
12/02/2020 14:44:32	120220	12022020	144432	92.94	12.418798	-57.067422	92.99	-0.130	0.560	1.870	92.94	-0.80	2.30	 	 	 	 	 	 	 	 	 	 	 	 	 	 	 	 	 	 	1581518672	3.31	6.13
12/02/2020 14:44:33	120220	12022020	144433	92.80	12.418793	-57.067403	92.75	-0.090	0.510	2.420	92.74	-0.80	2.80	 	 	 	 	 	 	 	 	 	 	 	 	 	 	 	 	 	 	1581518673	4.01	7.43
12/02/2020 14:44:34	120220	12022020	144434	92.47	12.418790	-57.067380	92.42	0.080	0.010	2.680	92.41	-1.20	3.10	 	 	 	 	 	 	 	 	 	 	 	 	 	 	 	 	 	 	1581518674	4.92	9.11
12/02/2020 14:44:35	120220	12022020	144435	92.28	12.418788	-57.067357	92.31	0.050	-0.060	2.590	92.28	-1.40	3.10	 	 	 	 	 	 	 	 	 	 	 	 	 	 	 	 	 	 	1581518675	4.89	9.06
12/02/2020 14:44:36	120220	12022020	144436	92.43	12.418790	-57.067337	92.51	-0.270	0.310	2.030	92.49	-1.10	2.60	 	 	 	 	 	 	 	 	 	 	 	 	 	 	 	 	 	 	1581518676	4.12	7.63
12/02/2020 14:44:37	120220	12022020	144437	92.79	12.418793	-57.067320	92.86	-0.600	0.370	1.240	92.86	-0.90	1.80	 	 	 	 	 	 	 	 	 	 	 	 	 	 	 	 	 	 	1581518677	3.68	6.82
12/02/2020 14:44:38	120220	12022020	144438	93.02	12.418793	-57.067300	93.01	-0.520	-0.410	0.710	93.03	-1.60	1.20	 	 	 	 	 	 	 	 	 	 	 	 	 	 	 	 	 	 	1581518678	4.13	7.65
12/02/2020 14:44:39	120220	12022020	144439	92.90	12.418792	-57.067277	92.78	0.120	-1.580	0.670	92.82	-2.70	1.10	 	 	 	 	 	 	 	 	 	 	 	 	 	 	 	 	 	 	1581518679	5.15	9.54
12/02/2020 14:44:40	120220	12022020	144440	92.41	12.418788	-57.067250	92.27	0.760	-1.870	1.090	92.29	-3.20	1.50	 	 	 	 	 	 	 	 	 	 	 	 	 	 	 	 	 	 	1581518680	5.58	10.33
12/02/2020 14:44:41	120220	12022020	144441	91.85	12.418787	-57.067230	91.77	0.720	-0.690	1.450	91.76	-2.30	1.90	 	 	 	 	 	 	 	 	 	 	 	 	 	 	 	 	 	 	1581518681	4.52	8.37
12/02/2020 14:44:42	120220	12022020	144442	91.58	12.418785	-57.067215	91.58	0.050	0.920	1.230	91.57	-0.60	1.80	 	 	 	 	 	 	 	 	 	 	 	 	 	 	 	 	 	 	1581518682	3.12	5.78
12/02/2020 14:44:43	120220	12022020	144443	91.67	12.418788	-57.067200	91.71	-0.660	1.680	0.570	91.67	0.30	1.20	 	 	 	 	 	 	 	 	 	 	 	 	 	 	 	 	 	 	1581518683	3.07	5.69
12/02/2020 14:44:44	120220	12022020	144444	91.90	12.418792	-57.067182	91.95	-0.990	1.340	0.130	91.96	0.10	0.70	 	 	 	 	 	 	 	 	 	 	 	 	 	 	 	 	 	 	1581518684	3.92	7.26
12/02/2020 14:44:45	120220	12022020	144445	92.19	12.418792	-57.067160	92.25	-0.840	0.240	-0.050	92.19	-0.90	0.40	 	 	 	 	 	 	 	 	 	 	 	 	 	 	 	 	 	 	1581518685	4.63	8.57
12/02/2020 14:44:46	120220	12022020	144446	92.43	12.418790	-57.067137	92.42	-0.270	-1.160	0.160	92.44	-2.30	0.60	 	 	 	 	 	 	 	 	 	 	 	 	 	 	 	 	 	 	1581518686	5.12	9.48
12/02/2020 14:44:47	120220	12022020	144447	92.27	12.418785	-57.067110	92.15	0.480	-2.230	0.980	92.18	-3.40	1.30	 	 	 	 	 	 	 	 	 	 	 	 	 	 	 	 	 	 	1581518687	5.41	10.02
12/02/2020 14:44:48	120220	12022020	144448	91.64	12.418780	-57.067087	91.49	1.090	-2.310	2.040	91.49	-3.70	2.30	 	 	 	 	 	 	 	 	 	 	 	 	 	 	 	 	 	 	1581518688	5.33	9.87
12/02/2020 14:44:49	120220	12022020	144449	90.96	12.418775	-57.067065	90.89	1.180	-1.160	2.880	90.86	-2.70	3.20	 	 	 	 	 	 	 	 	 	 	 	 	 	 	 	 	 	 	1581518689	4.62	8.56
12/02/2020 14:44:50	120220	12022020	144450	90.64	12.418772	-57.067048	90.72	0.620	0.650	3.170	90.65	-1.00	3.60	 	 	 	 	 	 	 	 	 	 	 	 	 	 	 	 	 	 	1581518690	3.59	6.65
12/02/2020 14:44:51	120220	12022020	144451	90.92	12.418772	-57.067035	91.13	-0.390	2.190	2.660	91.06	0.70	3.30	 	 	 	 	 	 	 	 	 	 	 	 	 	 	 	 	 	 	1581518691	2.96	5.48
12/02/2020 14:44:52	120220	12022020	144452	91.66	12.418775	-57.067020	91.85	-1.350	2.570	1.470	91.81	1.30	2.10	 	 	 	 	 	 	 	 	 	 	 	 	 	 	 	 	 	 	1581518692	3.11	5.76
12/02/2020 14:44:53	120220	12022020	144453	92.19	12.418778	-57.067002	92.19	-1.610	1.440	0.530	92.21	0.20	1.00	 	 	 	 	 	 	 	 	 	 	 	 	 	 	 	 	 	 	1581518693	4.05	7.50
12/02/2020 14:44:54	120220	12022020	144454	92.08	12.418780	-57.066975	91.95	-0.800	-1.220	0.300	91.99	-2.20	0.80	 	 	 	 	 	 	 	 	 	 	 	 	 	 	 	 	 	 	1581518694	5.50	10.19
12/02/2020 14:44:55	120220	12022020	144455	91.59	12.418777	-57.066945	91.46	0.490	-3.040	0.530	91.48	-4.20	1.00	 	 	 	 	 	 	 	 	 	 	 	 	 	 	 	 	 	 	1581518695	6.34	11.74
12/02/2020 14:44:56	120220	12022020	144456	91.13	12.418777	-57.066918	91.06	1.320	-2.930	0.690	91.08	-4.40	1.10	 	 	 	 	 	 	 	 	 	 	 	 	 	 	 	 	 	 	1581518696	5.56	10.30
12/02/2020 14:44:57	120220	12022020	144457	91.02	12.418777	-57.066900	91.06	1.010	-0.990	0.830	91.04	-2.70	1.30	 	 	 	 	 	 	 	 	 	 	 	 	 	 	 	 	 	 	1581518697	3.87	7.17
12/02/2020 14:44:58	120220	12022020	144458	91.22	12.418775	-57.066890	91.27	-0.100	1.400	0.980	91.26	-0.30	1.40	 	 	 	 	 	 	 	 	 	 	 	 	 	 	 	 	 	 	1581518698	2.35	4.35
12/02/2020 14:44:59	120220	12022020	144459	91.43	12.418773	-57.066878	91.42	-0.990	2.500	1.080	91.45	1.10	1.50	 	 	 	 	 	 	 	 	 	 	 	 	 	 	 	 	 	 	1581518699	2.27	4.20
12/02/2020 14:45:00	120220	12022020	144500	91.42	12.418770	-57.066862	91.35	-0.820	1.370	1.230	91.39	0.30	1.70	 	 	 	 	 	 	 	 	 	 	 	 	 	 	 	 	 	 	1581518700	3.75	6.95
12/02/2020 14:45:01	120220	12022020	144501	91.19	12.418768	-57.066833	91.11	0.220	-1.030	1.550	91.13	-2.00	2.00	 	 	 	 	 	 	 	 	 	 	 	 	 	 	 	 	 	 	1581518701	5.97	11.06
12/02/2020 14:45:02	120220	12022020	144502	90.95	12.418767	-57.066802	90.92	1.010	-2.350	1.830	90.92	-3.60	2.30	1017.30	26.50	26.50	21.00	21.10	918.0	72.0	72.0	425.0	28.5	340.00	11.80	68.00	9.70	65809	12518.0	27.5	27.5	1581518702	6.68	12.37
12/02/2020 14:45:03	120220	12022020	144503	90.95	12.418767	-57.066778	91.00	0.790	-1.380	1.730	90.99	-3.00	2.20	 	 	 	 	 	 	 	 	 	 	 	 	 	 	 	 	 	 	1581518703	4.94	9.15
12/02/2020 14:45:04	120220	12022020	144504	91.24	12.418768	-57.066767	91.33	-0.160	0.720	1.450	91.31	-0.90	2.00	 	 	 	 	 	 	 	 	 	 	 	 	 	 	 	 	 	 	1581518704	2.60	4.82
12/02/2020 14:45:05	120220	12022020	144505	91.52	12.418768	-57.066757	91.54	-0.980	1.840	1.400	91.54	0.40	1.90	 	 	 	 	 	 	 	 	 	 	 	 	 	 	 	 	 	 	1581518705	1.91	3.54
12/02/2020 14:45:06	120220	12022020	144506	91.45	12.418765	-57.066742	91.37	-1.040	1.060	1.640	91.38	-0.10	2.10	 	 	 	 	 	 	 	 	 	 	 	 	 	 	 	 	 	 	1581518706	3.36	6.22
12/02/2020 14:45:07	120220	12022020	144507	91.07	12.418762	-57.066717	90.99	-0.460	-0.690	1.880	90.99	-1.80	2.30	 	 	 	 	 	 	 	 	 	 	 	 	 	 	 	 	 	 	1581518707	5.26	9.74
12/02/2020 14:45:08	120220	12022020	144508	90.76	12.418758	-57.066690	90.75	0.200	-1.780	1.890	90.74	-3.00	2.40	 	 	 	 	 	 	 	 	 	 	 	 	 	 	 	 	 	 	1581518708	5.80	10.74
12/02/2020 14:45:09	120220	12022020	144509	90.69	12.418757	-57.066667	90.70	0.500	-1.470	1.710	90.68	-2.90	2.20	 	 	 	 	 	 	 	 	 	 	 	 	 	 	 	 	 	 	1581518709	4.71	8.72
12/02/2020 14:45:10	120220	12022020	144510	90.64	12.418757	-57.066652	90.62	0.500	-0.580	1.380	90.63	-2.00	1.90	 	 	 	 	 	 	 	 	 	 	 	 	 	 	 	 	 	 	1581518710	3.47	6.43
12/02/2020 14:45:11	120220	12022020	144511	90.54	12.418758	-57.066635	90.48	0.580	-0.080	0.940	90.50	-1.50	1.50	 	 	 	 	 	 	 	 	 	 	 	 	 	 	 	 	 	 	1581518711	3.44	6.37
12/02/2020 14:45:12	120220	12022020	144512	90.29	12.418762	-57.066615	90.17	0.770	0.030	0.600	90.22	-1.30	1.10	 	 	 	 	 	 	 	 	 	 	 	 	 	 	 	 	 	 	1581518712	4.24	7.85
12/02/2020 14:45:13	120220	12022020	144513	89.99	12.418767	-57.066593	89.92	0.640	0.280	0.390	89.96	-1.10	0.90	 	 	 	 	 	 	 	 	 	 	 	 	 	 	 	 	 	 	1581518713	4.63	8.57
12/02/2020 14:45:14	120220	12022020	144514	90.01	12.418770	-57.066575	90.02	0.040	0.670	0.340	90.07	-0.70	0.80	 	 	 	 	 	 	 	 	 	 	 	 	 	 	 	 	 	 	1581518714	4.15	7.69
12/02/2020 14:45:15	120220	12022020	144515	90.45	12.418770	-57.066557	90.58	-0.930	0.860	0.620	90.57	-0.50	1.00	 	 	 	 	 	 	 	 	 	 	 	 	 	 	 	 	 	 	1581518715	3.67	6.80
12/02/2020 14:45:16	120220	12022020	144516	90.97	12.418765	-57.066540	91.03	-1.460	0.650	1.320	91.03	-0.60	1.70	 	 	 	 	 	 	 	 	 	 	 	 	 	 	 	 	 	 	1581518716	3.86	7.15
12/02/2020 14:45:17	120220	12022020	144517	91.08	12.418757	-57.066522	91.06	-1.230	-0.070	2.270	91.04	-1.20	2.60	 	 	 	 	 	 	 	 	 	 	 	 	 	 	 	 	 	 	1581518717	4.36	8.07
12/02/2020 14:45:18	120220	12022020	144518	90.72	12.418747	-57.066500	90.66	-0.160	-1.380	3.160	90.61	-2.50	3.50	 	 	 	 	 	 	 	 	 	 	 	 	 	 	 	 	 	 	1581518718	5.03	9.32
12/02/2020 14:45:19	120220	12022020	144519	90.16	12.418740	-57.066473	90.12	1.090	-2.430	3.680	90.06	-3.70	4.10	 	 	 	 	 	 	 	 	 	 	 	 	 	 	 	 	 	 	1581518719	5.60	10.37
12/02/2020 14:45:20	120220	12022020	144520	89.81	12.418738	-57.066450	89.85	1.570	-1.970	3.410	89.78	-3.50	4.00	 	 	 	 	 	 	 	 	 	 	 	 	 	 	 	 	 	 	1581518720	5.16	9.56
12/02/2020 14:45:21	120220	12022020	144521	89.80	12.418743	-57.066433	89.86	0.970	-0.090	2.400	89.80	-1.70	3.10	 	 	 	 	 	 	 	 	 	 	 	 	 	 	 	 	 	 	1581518721	3.69	6.83
12/02/2020 14:45:22	120220	12022020	144522	89.94	12.418752	-57.066422	89.95	0.010	1.620	1.110	89.97	0.20	1.70	 	 	 	 	 	 	 	 	 	 	 	 	 	 	 	 	 	 	1581518722	2.83	5.24
12/02/2020 14:45:23	120220	12022020	144523	90.08	12.418762	-57.066410	90.03	-0.690	2.100	-0.400	90.11	0.80	0.20	 	 	 	 	 	 	 	 	 	 	 	 	 	 	 	 	 	 	1581518723	3.31	6.13
12/02/2020 14:45:24	120220	12022020	144524	90.29	12.418768	-57.066390	90.27	-0.690	0.810	-1.660	90.35	-0.30	-1.00	 	 	 	 	 	 	 	 	 	 	 	 	 	 	 	 	 	 	1581518724	4.64	8.59
12/02/2020 14:45:25	120220	12022020	144525	90.62	12.418773	-57.066363	90.61	-0.380	-0.660	-1.970	90.69	-1.80	-1.50	 	 	 	 	 	 	 	 	 	 	 	 	 	 	 	 	 	 	1581518725	5.47	10.13
12/02/2020 14:45:26	120220	12022020	144526	90.84	12.418770	-57.066340	90.77	-0.220	-1.220	-1.500	90.84	-2.50	-1.10	 	 	 	 	 	 	 	 	 	 	 	 	 	 	 	 	 	 	1581518726	5.07	9.39
12/02/2020 14:45:27	120220	12022020	144527	90.69	12.418765	-57.066322	90.55	-0.160	-1.060	-0.330	90.60	-2.40	-0.10	 	 	 	 	 	 	 	 	 	 	 	 	 	 	 	 	 	 	1581518727	4.14	7.67
12/02/2020 14:45:28	120220	12022020	144528	90.22	12.418757	-57.066305	90.10	0.040	-0.900	1.010	90.12	-2.20	1.30	 	 	 	 	 	 	 	 	 	 	 	 	 	 	 	 	 	 	1581518728	3.94	7.30
12/02/2020 14:45:29	120220	12022020	144529	89.76	12.418748	-57.066285	89.71	0.430	-0.820	2.250	89.68	-2.20	2.50	 	 	 	 	 	 	 	 	 	 	 	 	 	 	 	 	 	 	1581518729	4.39	8.13
12/02/2020 14:45:30	120220	12022020	144530	89.46	12.418743	-57.066265	89.48	0.660	-0.270	2.910	89.43	-1.70	3.30	 	 	 	 	 	 	 	 	 	 	 	 	 	 	 	 	 	 	1581518730	4.37	8.09
12/02/2020 14:45:31	120220	12022020	144531	89.46	12.418745	-57.066248	89.55	0.410	0.730	2.740	89.50	-0.70	3.30	 	 	 	 	 	 	 	 	 	 	 	 	 	 	 	 	 	 	1581518731	3.57	6.61
12/02/2020 14:45:32	120220	12022020	144532	89.73	12.418748	-57.066233	89.78	-0.030	1.280	2.180	89.79	-0.10	2.70	 	 	 	 	 	 	 	 	 	 	 	 	 	 	 	 	 	 	1581518732	3.15	5.83
12/02/2020 14:45:33	120220	12022020	144533	89.94	12.418752	-57.066217	89.94	-0.350	0.590	1.560	89.94	-0.60	2.10	 	 	 	 	 	 	 	 	 	 	 	 	 	 	 	 	 	 	1581518733	3.72	6.89
12/02/2020 14:45:34	120220	12022020	144534	89.89	12.418752	-57.066193	89.83	-0.200	-0.830	1.300	89.84	-2.10	1.80	 	 	 	 	 	 	 	 	 	 	 	 	 	 	 	 	 	 	1581518734	4.99	9.24
12/02/2020 14:45:35	120220	12022020	144535	89.59	12.418752	-57.066167	89.52	0.170	-1.940	1.240	89.52	-3.20	1.70	 	 	 	 	 	 	 	 	 	 	 	 	 	 	 	 	 	 	1581518735	5.66	10.48
12/02/2020 14:45:36	120220	12022020	144536	89.28	12.418752	-57.066143	89.23	0.330	-1.420	1.240	89.24	-2.80	1.70	 	 	 	 	 	 	 	 	 	 	 	 	 	 	 	 	 	 	1581518736	4.68	8.67
12/02/2020 14:45:37	120220	12022020	144537	89.21	12.418752	-57.066130	89.21	-0.020	0.350	1.040	89.24	-1.10	1.50	 	 	 	 	 	 	 	 	 	 	 	 	 	 	 	 	 	 	1581518737	2.91	5.39
12/02/2020 14:45:38	120220	12022020	144538	89.50	12.418753	-57.066122	89.52	-0.660	1.760	0.590	89.58	0.40	1.10	 	 	 	 	 	 	 	 	 	 	 	 	 	 	 	 	 	 	1581518738	1.98	3.67
12/02/2020 14:45:39	120220	12022020	144539	89.84	12.418753	-57.066108	89.82	-0.890	1.350	0.240	89.87	0.10	0.70	 	 	 	 	 	 	 	 	 	 	 	 	 	 	 	 	 	 	1581518739	2.84	5.26
12/02/2020 14:45:40	120220	12022020	144540	89.86	12.418753	-57.066085	89.79	-0.230	-0.840	0.330	89.81	-2.00	0.80	 	 	 	 	 	 	 	 	 	 	 	 	 	 	 	 	 	 	1581518740	4.94	9.15
12/02/2020 14:45:41	120220	12022020	144541	89.57	12.418752	-57.066053	89.49	0.860	-2.750	0.790	89.50	-4.00	1.20	 	 	 	 	 	 	 	 	 	 	 	 	 	 	 	 	 	 	1581518741	6.46	11.96
12/02/2020 14:45:42	120220	12022020	144542	89.34	12.418752	-57.066028	89.30	1.360	-2.210	1.220	89.32	-3.60	1.70	 	 	 	 	 	 	 	 	 	 	 	 	 	 	 	 	 	 	1581518742	5.30	9.82
12/02/2020 14:45:43	120220	12022020	144543	89.41	12.418752	-57.066017	89.45	0.810	0.210	1.400	89.41	-1.20	1.90	 	 	 	 	 	 	 	 	 	 	 	 	 	 	 	 	 	 	1581518743	2.62	4.85
12/02/2020 14:45:44	120220	12022020	144544	89.81	12.418753	-57.066010	89.93	-0.450	2.350	1.320	89.92	0.90	1.80	 	 	 	 	 	 	 	 	 	 	 	 	 	 	 	 	 	 	1581518744	1.37	2.54
12/02/2020 14:45:45	120220	12022020	144545	90.39	12.418753	-57.066000	90.44	-1.210	2.350	1.260	90.51	1.10	1.70	 	 	 	 	 	 	 	 	 	 	 	 	 	 	 	 	 	 	1581518745	2.30	4.26
12/02/2020 14:45:46	120220	12022020	144546	90.85	12.418752	-57.065980	90.88	-1.200	0.500	1.480	90.89	-0.50	1.90	 	 	 	 	 	 	 	 	 	 	 	 	 	 	 	 	 	 	1581518746	4.24	7.85
12/02/2020 14:45:47	120220	12022020	144547	90.84	12.418745	-57.065953	90.78	-0.520	-1.400	1.900	90.76	-2.60	2.30	 	 	 	 	 	 	 	 	 	 	 	 	 	 	 	 	 	 	1581518747	5.55	10.28
12/02/2020 14:45:48	120220	12022020	144548	90.29	12.418740	-57.065928	90.12	0.530	-2.610	2.460	90.15	-3.90	2.90	 	 	 	 	 	 	 	 	 	 	 	 	 	 	 	 	 	 	1581518748	5.55	10.28
12/02/2020 14:45:49	120220	12022020	144549	89.58	12.418737	-57.065908	89.52	1.020	-2.110	2.630	89.47	-3.50	3.10	 	 	 	 	 	 	 	 	 	 	 	 	 	 	 	 	 	 	1581518749	4.37	8.09
12/02/2020 14:45:50	120220	12022020	144550	89.20	12.418740	-57.065893	89.20	0.840	-0.400	2.170	89.19	-2.00	2.80	 	 	 	 	 	 	 	 	 	 	 	 	 	 	 	 	 	 	1581518750	3.07	5.69
12/02/2020 14:45:51	120220	12022020	144551	89.34	12.418745	-57.065882	89.40	0.270	0.830	1.240	89.43	-0.60	1.80	 	 	 	 	 	 	 	 	 	 	 	 	 	 	 	 	 	 	1581518751	2.81	5.20
12/02/2020 14:45:52	120220	12022020	144552	89.84	12.418752	-57.065867	89.87	-0.340	1.370	0.030	89.94	0.00	0.60	 	 	 	 	 	 	 	 	 	 	 	 	 	 	 	 	 	 	1581518752	3.34	6.19
12/02/2020 14:45:53	120220	12022020	144553	90.19	12.418757	-57.065850	90.16	-0.510	0.930	-0.620	90.21	-0.30	-0.10	 	 	 	 	 	 	 	 	 	 	 	 	 	 	 	 	 	 	1581518753	3.96	7.33
12/02/2020 14:45:54	120220	12022020	144554	90.15	12.418758	-57.065827	90.09	-0.270	-0.030	-0.580	90.12	-1.30	-0.10	 	 	 	 	 	 	 	 	 	 	 	 	 	 	 	 	 	 	1581518754	4.64	8.59
12/02/2020 14:45:55	120220	12022020	144555	89.97	12.418757	-57.065805	89.91	-0.010	-0.590	-0.030	89.93	-1.90	0.40	 	 	 	 	 	 	 	 	 	 	 	 	 	 	 	 	 	 	1581518755	4.70	8.70
12/02/2020 14:45:56	120220	12022020	144556	89.80	12.418753	-57.065787	89.77	-0.030	-0.520	0.800	89.78	-1.80	1.20	 	 	 	 	 	 	 	 	 	 	 	 	 	 	 	 	 	 	1581518756	3.96	7.33
12/02/2020 14:45:57	120220	12022020	144557	89.76	12.418750	-57.065770	89.78	-0.190	-0.430	1.540	89.77	-1.70	2.00	 	 	 	 	 	 	 	 	 	 	 	 	 	 	 	 	 	 	1581518757	3.51	6.50
12/02/2020 14:45:58	120220	12022020	144558	89.85	12.418745	-57.065753	89.86	-0.130	-0.680	1.960	89.85	-1.90	2.40	 	 	 	 	 	 	 	 	 	 	 	 	 	 	 	 	 	 	1581518758	3.83	7.09
12/02/2020 14:45:59	120220	12022020	144559	89.71	12.418742	-57.065733	89.66	0.270	-0.980	2.450	89.71	-2.30	2.90	 	 	 	 	 	 	 	 	 	 	 	 	 	 	 	 	 	 	1581518759	4.36	8.07
12/02/2020 14:46:00	120220	12022020	144600	89.24	12.418738	-57.065712	89.21	0.650	-0.810	2.980	89.17	-2.10	3.40	 	 	 	 	 	 	 	 	 	 	 	 	 	 	 	 	 	 	1581518760	4.45	8.24
12/02/2020 14:46:01	120220	12022020	144601	89.02	12.418738	-57.065693	89.03	0.610	-0.110	2.900	89.04	-1.40	3.40	 	 	 	 	 	 	 	 	 	 	 	 	 	 	 	 	 	 	1581518761	3.93	7.28
12/02/2020 14:46:02	120220	12022020	144602	89.34	12.418742	-57.065677	89.40	0.150	0.650	2.000	89.42	-0.70	2.50	1017.30	26.50	26.60	20.80	20.90	492.0	70.0	70.0	428.0	28.4	344.00	12.20	71.00	10.20	44322	11257.0	27.5	27.5	1581518762	3.51	6.50
12/02/2020 14:46:03	120220	12022020	144603	89.76	12.418747	-57.065662	89.77	-0.440	1.050	0.950	89.81	-0.20	1.50	 	 	 	 	 	 	 	 	 	 	 	 	 	 	 	 	 	 	1581518763	3.55	6.57
12/02/2020 14:46:04	120220	12022020	144604	89.82	12.418753	-57.065645	89.75	-0.780	0.780	0.370	89.78	-0.50	0.90	 	 	 	 	 	 	 	 	 	 	 	 	 	 	 	 	 	 	1581518764	3.75	6.95
12/02/2020 14:46:05	120220	12022020	144605	89.60	12.418757	-57.065625	89.51	-0.690	-0.070	0.110	89.56	-1.30	0.60	 	 	 	 	 	 	 	 	 	 	 	 	 	 	 	 	 	 	1581518765	4.19	7.76
12/02/2020 14:46:06	120220	12022020	144606	89.47	12.418757	-57.065603	89.43	-0.210	-1.110	0.050	89.47	-2.30	0.50	 	 	 	 	 	 	 	 	 	 	 	 	 	 	 	 	 	 	1581518766	4.62	8.56
12/02/2020 14:46:07	120220	12022020	144607	89.47	12.418757	-57.065580	89.44	0.450	-1.800	0.350	89.46	-3.10	0.80	 	 	 	 	 	 	 	 	 	 	 	 	 	 	 	 	 	 	1581518767	4.82	8.93
12/02/2020 14:46:08	120220	12022020	144608	89.39	12.418753	-57.065558	89.34	0.950	-1.710	0.810	89.36	-3.00	1.20	 	 	 	 	 	 	 	 	 	 	 	 	 	 	 	 	 	 	1581518768	4.65	8.61
12/02/2020 14:46:09	120220	12022020	144609	89.29	12.418753	-57.065540	89.29	0.950	-0.690	1.030	89.30	-2.00	1.50	 	 	 	 	 	 	 	 	 	 	 	 	 	 	 	 	 	 	1581518769	4.03	7.46
12/02/2020 14:46:10	120220	12022020	144610	89.41	12.418753	-57.065525	89.49	0.280	0.950	1.270	89.48	-0.40	1.70	 	 	 	 	 	 	 	 	 	 	 	 	 	 	 	 	 	 	1581518770	3.05	5.65
12/02/2020 14:46:11	120220	12022020	144611	89.87	12.418753	-57.065513	89.99	-0.640	2.120	1.580	89.87	0.80	2.00	 	 	 	 	 	 	 	 	 	 	 	 	 	 	 	 	 	 	1581518771	2.39	4.43
12/02/2020 14:46:12	120220	12022020	144612	90.48	12.418752	-57.065500	90.56	-1.110	1.760	1.640	90.57	0.50	2.10	 	 	 	 	 	 	 	 	 	 	 	 	 	 	 	 	 	 	1581518772	3.01	5.57
12/02/2020 14:46:13	120220	12022020	144613	90.67	12.418750	-57.065478	90.65	-0.820	0.000	1.700	90.63	-1.20	2.10	 	 	 	 	 	 	 	 	 	 	 	 	 	 	 	 	 	 	1581518773	4.52	8.37
12/02/2020 14:46:14	120220	12022020	144614	90.27	12.418748	-57.065452	90.23	-0.050	-1.780	2.200	90.17	-3.00	2.60	 	 	 	 	 	 	 	 	 	 	 	 	 	 	 	 	 	 	1581518774	5.54	10.26
12/02/2020 14:46:15	120220	12022020	144615	89.76	12.418745	-57.065428	89.78	0.640	-2.370	2.780	89.70	-3.60	3.20	 	 	 	 	 	 	 	 	 	 	 	 	 	 	 	 	 	 	1581518775	5.21	9.65
12/02/2020 14:46:16	120220	12022020	144616	89.71	12.418745	-57.065408	89.80	0.810	-1.610	2.630	89.76	-2.90	3.10	 	 	 	 	 	 	 	 	 	 	 	 	 	 	 	 	 	 	1581518776	3.99	7.39
12/02/2020 14:46:17	120220	12022020	144617	90.10	12.418748	-57.065395	90.19	0.470	-0.300	1.640	90.20	-1.60	2.20	 	 	 	 	 	 	 	 	 	 	 	 	 	 	 	 	 	 	1581518777	3.18	5.89
12/02/2020 14:46:18	120220	12022020	144618	90.49	12.418755	-57.065380	90.50	0.020	0.670	0.490	90.53	-0.70	1.00	 	 	 	 	 	 	 	 	 	 	 	 	 	 	 	 	 	 	1581518778	3.32	6.15
12/02/2020 14:46:19	120220	12022020	144619	90.59	12.418760	-57.065363	90.54	-0.280	0.950	-0.140	90.60	-0.30	0.40	 	 	 	 	 	 	 	 	 	 	 	 	 	 	 	 	 	 	1581518779	3.81	7.06
12/02/2020 14:46:20	120220	12022020	144620	90.64	12.418762	-57.065343	90.60	-0.470	0.800	-0.310	90.67	-0.50	0.20	 	 	 	 	 	 	 	 	 	 	 	 	 	 	 	 	 	 	1581518780	4.20	7.78
12/02/2020 14:46:21	120220	12022020	144621	90.72	12.418762	-57.065323	90.67	-0.560	0.490	-0.260	90.72	-0.80	0.20	 	 	 	 	 	 	 	 	 	 	 	 	 	 	 	 	 	 	1581518781	4.17	7.72
12/02/2020 14:46:22	120220	12022020	144622	90.59	12.418760	-57.065303	90.52	-0.440	-0.080	0.130	90.53	-1.30	0.50	 	 	 	 	 	 	 	 	 	 	 	 	 	 	 	 	 	 	1581518782	4.13	7.65
12/02/2020 14:46:23	120220	12022020	144623	90.25	12.418758	-57.065283	90.19	-0.040	-0.850	0.810	90.19	-2.10	1.20	 	 	 	 	 	 	 	 	 	 	 	 	 	 	 	 	 	 	1581518783	4.45	8.24
12/02/2020 14:46:24	120220	12022020	144624	90.04	12.418755	-57.065260	90.05	0.440	-1.350	1.320	90.04	-2.60	1.70	 	 	 	 	 	 	 	 	 	 	 	 	 	 	 	 	 	 	1581518784	4.69	8.69
12/02/2020 14:46:25	120220	12022020	144625	90.19	12.418753	-57.065240	90.26	0.720	-1.260	1.540	90.19	-2.50	2.00	 	 	 	 	 	 	 	 	 	 	 	 	 	 	 	 	 	 	1581518785	4.42	8.19
12/02/2020 14:46:26	120220	12022020	144626	90.35	12.418753	-57.065222	90.39	0.600	-0.640	1.830	90.35	-2.00	2.20	 	 	 	 	 	 	 	 	 	 	 	 	 	 	 	 	 	 	1581518786	3.99	7.39
12/02/2020 14:46:27	120220	12022020	144627	90.23	12.418752	-57.065203	90.26	0.090	0.290	2.140	90.19	-1.10	2.60	 	 	 	 	 	 	 	 	 	 	 	 	 	 	 	 	 	 	1581518787	3.63	6.72
12/02/2020 14:46:28	120220	12022020	144628	90.03	12.418752	-57.065188	90.06	-0.620	1.170	2.190	90.02	-0.20	2.60	 	 	 	 	 	 	 	 	 	 	 	 	 	 	 	 	 	 	1581518788	3.27	6.06
12/02/2020 14:46:29	120220	12022020	144629	90.06	12.418752	-57.065173	90.11	-1.000	1.300	1.780	90.10	0.00	2.30	 	 	 	 	 	 	 	 	 	 	 	 	 	 	 	 	 	 	1581518789	3.28	6.07
12/02/2020 14:46:30	120220	12022020	144630	90.25	12.418753	-57.065153	90.28	-0.590	0.180	1.120	90.28	-1.00	1.60	 	 	 	 	 	 	 	 	 	 	 	 	 	 	 	 	 	 	1581518790	4.21	7.80
12/02/2020 14:46:31	120220	12022020	144631	90.31	12.418755	-57.065127	90.28	0.350	-1.410	0.700	90.29	-2.60	1.20	 	 	 	 	 	 	 	 	 	 	 	 	 	 	 	 	 	 	1581518791	5.46	10.11
12/02/2020 14:46:32	120220	12022020	144632	90.11	12.418758	-57.065102	90.05	0.990	-2.050	0.680	90.04	-3.30	1.10	 	 	 	 	 	 	 	 	 	 	 	 	 	 	 	 	 	 	1581518792	5.57	10.32
12/02/2020 14:46:33	120220	12022020	144633	89.76	12.418758	-57.065080	89.72	0.820	-1.150	0.740	89.69	-2.50	1.20	 	 	 	 	 	 	 	 	 	 	 	 	 	 	 	 	 	 	1581518793	4.28	7.93
12/02/2020 14:46:34	120220	12022020	144634	89.48	12.418760	-57.065067	89.45	0.090	0.390	0.840	89.44	-1.00	1.30	 	 	 	 	 	 	 	 	 	 	 	 	 	 	 	 	 	 	1581518794	2.96	5.48
12/02/2020 14:46:35	120220	12022020	144635	89.42	12.418762	-57.065053	89.43	-0.590	1.330	0.940	89.45	0.00	1.40	 	 	 	 	 	 	 	 	 	 	 	 	 	 	 	 	 	 	1581518795	2.74	5.07
12/02/2020 14:46:36	120220	12022020	144636	89.70	12.418763	-57.065037	89.76	-0.800	1.080	0.850	89.79	-0.20	1.30	 	 	 	 	 	 	 	 	 	 	 	 	 	 	 	 	 	 	1581518796	3.68	6.82
12/02/2020 14:46:37	120220	12022020	144637	90.19	12.418763	-57.065015	90.26	-0.570	0.200	0.670	90.19	-1.00	1.10	 	 	 	 	 	 	 	 	 	 	 	 	 	 	 	 	 	 	1581518797	4.67	8.65
12/02/2020 14:46:38	120220	12022020	144638	90.56	12.418762	-57.064992	90.58	-0.200	-0.530	0.780	90.59	-1.80	1.20	 	 	 	 	 	 	 	 	 	 	 	 	 	 	 	 	 	 	1581518798	4.79	8.87
12/02/2020 14:46:39	120220	12022020	144639	90.50	12.418760	-57.064972	90.46	0.150	-0.960	1.270	90.43	-2.20	1.70	 	 	 	 	 	 	 	 	 	 	 	 	 	 	 	 	 	 	1581518799	4.41	8.17
12/02/2020 14:46:40	120220	12022020	144640	89.96	12.418757	-57.064952	89.88	0.520	-1.260	2.030	89.82	-2.50	2.40	 	 	 	 	 	 	 	 	 	 	 	 	 	 	 	 	 	 	1581518800	4.30	7.96
12/02/2020 14:46:41	120220	12022020	144641	89.41	12.418757	-57.064930	89.40	0.820	-1.320	2.500	89.35	-2.60	2.90	 	 	 	 	 	 	 	 	 	 	 	 	 	 	 	 	 	 	1581518801	4.55	8.43
12/02/2020 14:46:42	120220	12022020	144642	89.42	12.418758	-57.064908	89.51	0.680	-0.530	2.260	89.50	-1.90	2.70	 	 	 	 	 	 	 	 	 	 	 	 	 	 	 	 	 	 	1581518802	4.38	8.11
12/02/2020 14:46:43	120220	12022020	144643	89.96	12.418762	-57.064893	90.08	-0.030	0.910	1.480	90.10	-0.50	2.00	 	 	 	 	 	 	 	 	 	 	 	 	 	 	 	 	 	 	1581518803	3.35	6.20
12/02/2020 14:46:44	120220	12022020	144644	90.58	12.418767	-57.064880	90.65	-0.840	1.690	0.680	90.68	0.40	1.20	 	 	 	 	 	 	 	 	 	 	 	 	 	 	 	 	 	 	1581518804	2.91	5.39
12/02/2020 14:46:45	120220	12022020	144645	90.86	12.418770	-57.064863	90.86	-1.030	0.980	0.340	90.87	-0.30	0.80	 	 	 	 	 	 	 	 	 	 	 	 	 	 	 	 	 	 	1581518805	3.71	6.87
12/02/2020 14:46:46	120220	12022020	144646	90.80	12.418770	-57.064838	90.76	-0.430	-0.610	0.340	90.75	-1.80	0.80	 	 	 	 	 	 	 	 	 	 	 	 	 	 	 	 	 	 	1581518806	5.11	9.46
12/02/2020 14:46:47	120220	12022020	144647	90.54	12.418770	-57.064813	90.50	0.390	-1.660	0.650	90.54	-2.90	1.10	 	 	 	 	 	 	 	 	 	 	 	 	 	 	 	 	 	 	1581518807	5.51	10.20
12/02/2020 14:46:48	120220	12022020	144648	90.36	12.418770	-57.064792	90.37	0.830	-1.560	1.090	90.34	-2.90	1.50	 	 	 	 	 	 	 	 	 	 	 	 	 	 	 	 	 	 	1581518808	4.66	8.63
12/02/2020 14:46:49	120220	12022020	144649	90.35	12.418768	-57.064773	90.38	0.790	-0.760	1.280	90.36	-2.10	1.70	 	 	 	 	 	 	 	 	 	 	 	 	 	 	 	 	 	 	1581518809	3.74	6.93
12/02/2020 14:46:50	120220	12022020	144650	90.51	12.418770	-57.064757	90.57	0.400	0.130	1.190	90.57	-1.20	1.60	 	 	 	 	 	 	 	 	 	 	 	 	 	 	 	 	 	 	1581518810	3.50	6.48
12/02/2020 14:46:51	120220	12022020	144651	90.88	12.418772	-57.064740	90.96	-0.220	0.810	1.010	90.96	-0.50	1.50	 	 	 	 	 	 	 	 	 	 	 	 	 	 	 	 	 	 	1581518811	3.58	6.63
12/02/2020 14:46:52	120220	12022020	144652	91.24	12.418772	-57.064723	91.29	-0.790	1.020	1.000	91.28	-0.30	1.40	 	 	 	 	 	 	 	 	 	 	 	 	 	 	 	 	 	 	1581518812	3.63	6.72
12/02/2020 14:46:53	120220	12022020	144653	91.30	12.418770	-57.064703	91.31	-0.890	0.520	1.180	91.29	-0.70	1.60	 	 	 	 	 	 	 	 	 	 	 	 	 	 	 	 	 	 	1581518813	4.02	7.45
12/02/2020 14:46:54	120220	12022020	144654	91.20	12.418768	-57.064682	91.23	-0.390	-0.520	1.300	91.18	-1.80	1.70	 	 	 	 	 	 	 	 	 	 	 	 	 	 	 	 	 	 	1581518814	4.73	8.76
12/02/2020 14:46:55	120220	12022020	144655	91.03	12.418767	-57.064657	91.06	0.350	-1.400	1.370	90.99	-2.70	1.80	 	 	 	 	 	 	 	 	 	 	 	 	 	 	 	 	 	 	1581518815	5.14	9.52
12/02/2020 14:46:56	120220	12022020	144656	90.90	12.418768	-57.064635	90.97	0.740	-1.360	1.310	90.90	-2.70	1.80	 	 	 	 	 	 	 	 	 	 	 	 	 	 	 	 	 	 	1581518816	4.83	8.95
12/02/2020 14:46:57	120220	12022020	144657	91.06	12.418772	-57.064617	91.17	0.530	-0.370	0.900	91.13	-1.70	1.40	 	 	 	 	 	 	 	 	 	 	 	 	 	 	 	 	 	 	1581518817	3.87	7.17
12/02/2020 14:46:58	120220	12022020	144658	91.38	12.418775	-57.064602	91.45	0.060	0.590	0.390	91.43	-0.70	0.90	 	 	 	 	 	 	 	 	 	 	 	 	 	 	 	 	 	 	1581518818	3.23	5.98
12/02/2020 14:46:59	120220	12022020	144659	91.46	12.418778	-57.064585	91.46	-0.160	0.600	0.390	91.43	-0.70	0.80	 	 	 	 	 	 	 	 	 	 	 	 	 	 	 	 	 	 	1581518819	3.65	6.76
12/02/2020 14:47:00	120220	12022020	144700	91.25	12.418777	-57.064563	91.26	-0.110	-0.060	0.840	91.20	-1.30	1.20	 	 	 	 	 	 	 	 	 	 	 	 	 	 	 	 	 	 	1581518820	4.69	8.69
12/02/2020 14:47:01	120220	12022020	144701	91.07	12.418773	-57.064538	91.11	-0.030	-0.500	1.280	91.06	-1.80	1.70	 	 	 	 	 	 	 	 	 	 	 	 	 	 	 	 	 	 	1581518821	5.03	9.32
12/02/2020 14:47:02	120220	12022020	144702	91.12	12.418772	-57.064518	91.19	-0.050	-0.490	1.410	91.15	-1.80	1.80	1017.20	26.60	26.70	21.00	21.10	484.0	71.0	71.0	432.0	28.3	348.00	12.20	76.00	10.10	43504	11594.0	27.5	27.5	1581518822	4.50	8.33
12/02/2020 14:47:03	120220	12022020	144703	91.33	12.418772	-57.064498	91.41	-0.110	-0.210	1.310	91.33	-1.50	1.70	 	 	 	 	 	 	 	 	 	 	 	 	 	 	 	 	 	 	1581518823	4.04	7.48
12/02/2020 14:47:04	120220	12022020	144704	91.47	12.418772	-57.064480	91.51	-0.200	0.160	1.310	91.47	-1.10	1.70	 	 	 	 	 	 	 	 	 	 	 	 	 	 	 	 	 	 	1581518824	3.80	7.04
12/02/2020 14:47:05	120220	12022020	144705	91.35	12.418772	-57.064463	91.37	-0.320	0.290	1.510	91.30	-1.00	1.90	 	 	 	 	 	 	 	 	 	 	 	 	 	 	 	 	 	 	1581518825	3.70	6.85
12/02/2020 14:47:06	120220	12022020	144706	91.18	12.418772	-57.064443	91.22	-0.290	-0.230	1.460	91.17	-1.50	1.90	 	 	 	 	 	 	 	 	 	 	 	 	 	 	 	 	 	 	1581518826	4.16	7.70
12/02/2020 14:47:07	120220	12022020	144707	91.11	12.418772	-57.064420	91.16	0.020	-1.130	1.310	91.09	-2.40	1.70	 	 	 	 	 	 	 	 	 	 	 	 	 	 	 	 	 	 	1581518827	5.02	9.30
12/02/2020 14:47:08	120220	12022020	144708	91.02	12.418772	-57.064395	91.06	0.490	-1.470	1.270	91.00	-2.80	1.70	 	 	 	 	 	 	 	 	 	 	 	 	 	 	 	 	 	 	1581518828	5.30	9.82
12/02/2020 14:47:09	120220	12022020	144709	90.95	12.418772	-57.064373	90.99	0.790	-0.750	0.970	90.95	-2.10	1.40	 	 	 	 	 	 	 	 	 	 	 	 	 	 	 	 	 	 	1581518829	4.53	8.39
12/02/2020 14:47:10	120220	12022020	144710	90.95	12.418775	-57.064357	90.98	0.650	0.480	0.360	90.95	-0.90	0.80	 	 	 	 	 	 	 	 	 	 	 	 	 	 	 	 	 	 	1581518830	3.64	6.74
12/02/2020 14:47:11	120220	12022020	144711	91.05	12.418782	-57.064342	91.09	0.080	1.280	-0.140	91.08	-0.00	0.30	 	 	 	 	 	 	 	 	 	 	 	 	 	 	 	 	 	 	1581518831	3.52	6.52
12/02/2020 14:47:12	120220	12022020	144712	91.25	12.418787	-57.064323	91.30	-0.630	1.210	-0.240	91.30	-0.10	0.20	 	 	 	 	 	 	 	 	 	 	 	 	 	 	 	 	 	 	1581518832	3.87	7.17
12/02/2020 14:47:13	120220	12022020	144713	91.48	12.418787	-57.064303	91.53	-1.160	0.580	0.050	91.48	-0.70	0.50	 	 	 	 	 	 	 	 	 	 	 	 	 	 	 	 	 	 	1581518833	4.30	7.96
12/02/2020 14:47:14	120220	12022020	144714	91.57	12.418782	-57.064282	91.57	-1.160	-0.470	0.720	91.54	-1.70	1.10	 	 	 	 	 	 	 	 	 	 	 	 	 	 	 	 	 	 	1581518834	4.64	8.59
12/02/2020 14:47:15	120220	12022020	144715	91.30	12.418773	-57.064258	91.29	-0.410	-1.730	1.670	91.30	-2.90	2.00	 	 	 	 	 	 	 	 	 	 	 	 	 	 	 	 	 	 	1581518835	5.24	9.70
12/02/2020 14:47:16	120220	12022020	144716	90.87	12.418767	-57.064233	90.89	0.710	-2.290	2.420	90.81	-3.50	2.80	 	 	 	 	 	 	 	 	 	 	 	 	 	 	 	 	 	 	1581518836	5.46	10.11
12/02/2020 14:47:17	120220	12022020	144717	90.69	12.418765	-57.064212	90.77	1.380	-1.560	2.450	90.69	-2.90	2.90	 	 	 	 	 	 	 	 	 	 	 	 	 	 	 	 	 	 	1581518837	4.62	8.56
12/02/2020 14:47:18	120220	12022020	144718	90.79	12.418770	-57.064195	90.90	1.120	-0.060	1.960	90.81	-1.40	2.40	 	 	 	 	 	 	 	 	 	 	 	 	 	 	 	 	 	 	1581518838	3.63	6.72
12/02/2020 14:47:19	120220	12022020	144719	90.81	12.418775	-57.064180	90.88	0.170	1.160	1.500	90.80	-0.20	2.00	 	 	 	 	 	 	 	 	 	 	 	 	 	 	 	 	 	 	1581518839	3.40	6.30
12/02/2020 14:47:20	120220	12022020	144720	90.80	12.418778	-57.064163	90.88	-0.810	1.530	1.040	90.83	0.30	1.50	 	 	 	 	 	 	 	 	 	 	 	 	 	 	 	 	 	 	1581518840	3.75	6.95
12/02/2020 14:47:21	120220	12022020	144721	91.03	12.418782	-57.064143	91.12	-1.270	1.140	0.480	91.11	-0.10	0.90	 	 	 	 	 	 	 	 	 	 	 	 	 	 	 	 	 	 	1581518841	4.27	7.91
12/02/2020 14:47:22	120220	12022020	144722	91.41	12.418783	-57.064120	91.48	-1.030	0.270	0.100	91.47	-0.90	0.50	 	 	 	 	 	 	 	 	 	 	 	 	 	 	 	 	 	 	1581518842	4.64	8.59
12/02/2020 14:47:23	120220	12022020	144723	91.65	12.418782	-57.064097	91.69	-0.310	-0.780	0.040	91.67	-2.00	0.50	 	 	 	 	 	 	 	 	 	 	 	 	 	 	 	 	 	 	1581518843	4.92	9.11
12/02/2020 14:47:24	120220	12022020	144724	91.58	12.418780	-57.064073	91.58	0.480	-1.530	0.480	91.53	-2.80	0.90	 	 	 	 	 	 	 	 	 	 	 	 	 	 	 	 	 	 	1581518844	5.05	9.35
12/02/2020 14:47:25	120220	12022020	144725	91.29	12.418777	-57.064052	91.30	0.920	-1.490	1.050	91.23	-2.80	1.50	 	 	 	 	 	 	 	 	 	 	 	 	 	 	 	 	 	 	1581518845	4.73	8.76
12/02/2020 14:47:26	120220	12022020	144726	90.98	12.418777	-57.064033	91.00	0.870	-0.780	1.370	90.92	-2.10	1.80	 	 	 	 	 	 	 	 	 	 	 	 	 	 	 	 	 	 	1581518846	3.98	7.37
12/02/2020 14:47:27	120220	12022020	144727	90.71	12.418778	-57.064015	90.76	0.550	-0.160	1.470	90.69	-1.50	1.90	 	 	 	 	 	 	 	 	 	 	 	 	 	 	 	 	 	 	1581518847	3.76	6.96
12/02/2020 14:47:28	120220	12022020	144728	90.73	12.418782	-57.063995	90.80	0.230	0.140	1.290	90.78	-1.10	1.70	 	 	 	 	 	 	 	 	 	 	 	 	 	 	 	 	 	 	1581518848	4.22	7.82
12/02/2020 14:47:29	120220	12022020	144729	91.10	12.418785	-57.063975	91.22	-0.080	0.320	0.970	91.20	-1.00	1.40	 	 	 	 	 	 	 	 	 	 	 	 	 	 	 	 	 	 	1581518849	4.58	8.48
12/02/2020 14:47:30	120220	12022020	144730	91.59	12.418787	-57.063953	91.68	-0.550	0.620	0.760	91.67	-0.70	1.20	 	 	 	 	 	 	 	 	 	 	 	 	 	 	 	 	 	 	1581518850	4.36	8.07
12/02/2020 14:47:31	120220	12022020	144731	91.81	12.418783	-57.063935	91.83	-1.090	0.840	1.020	91.81	-0.40	1.40	 	 	 	 	 	 	 	 	 	 	 	 	 	 	 	 	 	 	1581518851	3.99	7.39
12/02/2020 14:47:32	120220	12022020	144732	91.69	12.418778	-57.063917	91.69	-1.270	0.550	1.640	91.64	-0.70	2.00	 	 	 	 	 	 	 	 	 	 	 	 	 	 	 	 	 	 	1581518852	4.08	7.56
12/02/2020 14:47:33	120220	12022020	144733	91.37	12.418773	-57.063895	91.37	-0.850	-0.300	2.090	91.30	-1.50	2.50	 	 	 	 	 	 	 	 	 	 	 	 	 	 	 	 	 	 	1581518853	4.58	8.48
12/02/2020 14:47:34	120220	12022020	144734	91.00	12.418770	-57.063872	91.02	0.080	-1.320	2.120	90.94	-2.50	2.60	 	 	 	 	 	 	 	 	 	 	 	 	 	 	 	 	 	 	1581518854	5.04	9.33
12/02/2020 14:47:35	120220	12022020	144735	90.83	12.418772	-57.063847	90.89	1.130	-2.000	1.700	90.83	-3.30	2.20	 	 	 	 	 	 	 	 	 	 	 	 	 	 	 	 	 	 	1581518855	5.29	9.80
12/02/2020 14:47:36	120220	12022020	144736	90.91	12.418778	-57.063823	90.98	1.750	-1.730	1.030	90.94	-3.00	1.50	 	 	 	 	 	 	 	 	 	 	 	 	 	 	 	 	 	 	1581518856	5.17	9.57
12/02/2020 14:47:37	120220	12022020	144737	91.04	12.418785	-57.063803	91.09	1.470	-0.340	0.300	91.08	-1.70	0.80	 	 	 	 	 	 	 	 	 	 	 	 	 	 	 	 	 	 	1581518857	4.36	8.07
12/02/2020 14:47:38	120220	12022020	144738	91.22	12.418792	-57.063790	91.24	0.370	1.370	-0.200	91.25	0.00	0.30	 	 	 	 	 	 	 	 	 	 	 	 	 	 	 	 	 	 	1581518858	3.33	6.17
12/02/2020 14:47:39	120220	12022020	144739	91.37	12.418793	-57.063775	91.38	-0.830	2.080	-0.150	91.40	0.80	0.30	 	 	 	 	 	 	 	 	 	 	 	 	 	 	 	 	 	 	1581518859	3.00	5.56
12/02/2020 14:47:40	120220	12022020	144740	91.43	12.418792	-57.063757	91.45	-1.340	1.200	0.310	91.43	-0.00	0.70	 	 	 	 	 	 	 	 	 	 	 	 	 	 	 	 	 	 	1581518860	4.12	7.63
12/02/2020 14:47:41	120220	12022020	144741	91.38	12.418787	-57.063730	91.38	-1.060	-0.530	0.980	91.36	-1.70	1.40	 	 	 	 	 	 	 	 	 	 	 	 	 	 	 	 	 	 	1581518861	5.54	10.26
12/02/2020 14:47:42	120220	12022020	144742	91.29	12.418782	-57.063703	91.34	-0.530	-1.620	1.720	91.29	-2.90	2.10	 	 	 	 	 	 	 	 	 	 	 	 	 	 	 	 	 	 	1581518862	5.84	10.82
12/02/2020 14:47:43	120220	12022020	144743	91.36	12.418775	-57.063682	91.46	-0.230	-1.350	2.230	91.39	-2.70	2.60	 	 	 	 	 	 	 	 	 	 	 	 	 	 	 	 	 	 	1581518863	4.76	8.82
12/02/2020 14:47:44	120220	12022020	144744	91.49	12.418772	-57.063665	91.58	-0.090	-0.390	2.380	91.49	-1.70	2.80	 	 	 	 	 	 	 	 	 	 	 	 	 	 	 	 	 	 	1581518864	3.42	6.33
12/02/2020 14:47:45	120220	12022020	144745	91.32	12.418770	-57.063650	91.33	0.320	-0.060	2.350	91.23	-1.30	2.80	 	 	 	 	 	 	 	 	 	 	 	 	 	 	 	 	 	 	1581518865	3.33	6.17
12/02/2020 14:47:46	120220	12022020	144746	90.90	12.418772	-57.063628	90.89	1.010	-0.580	1.980	90.82	-1.80	2.40	 	 	 	 	 	 	 	 	 	 	 	 	 	 	 	 	 	 	1581518866	4.64	8.59
12/02/2020 14:47:47	120220	12022020	144747	90.74	12.418778	-57.063602	90.80	1.410	-0.970	1.320	90.76	-2.20	1.80	 	 	 	 	 	 	 	 	 	 	 	 	 	 	 	 	 	 	1581518867	5.63	10.43
12/02/2020 14:47:48	120220	12022020	144748	90.97	12.418785	-57.063578	91.08	1.040	-0.340	0.740	91.04	-1.70	1.20	 	 	 	 	 	 	 	 	 	 	 	 	 	 	 	 	 	 	1581518868	5.10	9.45
12/02/2020 14:47:49	120220	12022020	144749	91.37	12.418788	-57.063562	91.49	-0.010	0.920	0.350	91.46	-0.40	0.80	 	 	 	 	 	 	 	 	 	 	 	 	 	 	 	 	 	 	1581518869	3.67	6.80
12/02/2020 14:47:50	120220	12022020	144750	91.81	12.418790	-57.063548	91.93	-1.080	1.720	0.250	91.91	0.40	0.70	 	 	 	 	 	 	 	 	 	 	 	 	 	 	 	 	 	 	1581518870	2.94	5.44
12/02/2020 14:47:51	120220	12022020	144751	92.22	12.418787	-57.063532	92.31	-1.470	1.360	0.470	92.29	0.10	0.90	 	 	 	 	 	 	 	 	 	 	 	 	 	 	 	 	 	 	1581518871	3.48	6.44
12/02/2020 14:47:52	120220	12022020	144752	92.43	12.418782	-57.063510	92.48	-0.950	-0.170	0.970	92.44	-1.40	1.40	 	 	 	 	 	 	 	 	 	 	 	 	 	 	 	 	 	 	1581518872	4.67	8.65
12/02/2020 14:47:53	120220	12022020	144753	92.29	12.418777	-57.063483	92.30	0.110	-2.010	1.690	92.29	-3.20	2.10	 	 	 	 	 	 	 	 	 	 	 	 	 	 	 	 	 	 	1581518873	5.72	10.59
12/02/2020 14:47:54	120220	12022020	144754	91.84	12.418772	-57.063457	91.85	0.930	-2.870	2.440	91.74	-4.10	2.80	 	 	 	 	 	 	 	 	 	 	 	 	 	 	 	 	 	 	1581518874	5.89	10.91
12/02/2020 14:47:55	120220	12022020	144755	91.45	12.418768	-57.063435	91.52	1.020	-1.940	2.930	91.42	-3.30	3.30	 	 	 	 	 	 	 	 	 	 	 	 	 	 	 	 	 	 	1581518875	4.79	8.87
12/02/2020 14:47:56	120220	12022020	144756	91.45	12.418768	-57.063420	91.56	0.500	0.210	2.660	91.48	-1.20	3.10	 	 	 	 	 	 	 	 	 	 	 	 	 	 	 	 	 	 	1581518876	3.16	5.85
12/02/2020 14:47:57	120220	12022020	144757	91.70	12.418772	-57.063408	91.78	-0.150	2.050	1.670	91.75	0.70	2.20	 	 	 	 	 	 	 	 	 	 	 	 	 	 	 	 	 	 	1581518877	2.53	4.69
12/02/2020 14:47:58	120220	12022020	144758	91.97	12.418778	-57.063393	92.00	-0.540	2.280	0.380	92.02	1.00	0.90	 	 	 	 	 	 	 	 	 	 	 	 	 	 	 	 	 	 	1581518878	3.49	6.46
12/02/2020 14:47:59	120220	12022020	144759	92.18	12.418785	-57.063372	92.16	-0.610	0.870	-0.660	92.20	-0.30	-0.20	 	 	 	 	 	 	 	 	 	 	 	 	 	 	 	 	 	 	1581518879	4.95	9.17
12/02/2020 14:48:00	120220	12022020	144800	92.27	12.418788	-57.063343	92.24	-0.460	-0.970	-0.970	92.28	-2.20	-0.50	 	 	 	 	 	 	 	 	 	 	 	 	 	 	 	 	 	 	1581518880	5.75	10.65
12/02/2020 14:48:01	120220	12022020	144801	92.27	12.418783	-57.063318	92.24	-0.150	-1.990	-0.650	92.25	-3.20	-0.20	 	 	 	 	 	 	 	 	 	 	 	 	 	 	 	 	 	 	1581518881	5.52	10.22
12/02/2020 14:48:02	120220	12022020	144802	92.09	12.418778	-57.063297	92.05	0.360	-1.870	0.010	92.02	-3.20	0.40	1017.30	26.50	26.60	20.20	20.30	482.0	68.0	68.0	435.0	28.3	347.00	13.20	76.00	11.10	43225	11970.0	27.5	27.5	1581518882	4.70	8.70
12/02/2020 14:48:03	120220	12022020	144803	91.60	12.418773	-57.063278	91.53	0.830	-0.980	0.750	91.47	-2.30	1.10	 	 	 	 	 	 	 	 	 	 	 	 	 	 	 	 	 	 	1581518883	3.99	7.39
12/02/2020 14:48:04	120220	12022020	144804	90.99	12.418770	-57.063262	90.94	0.870	0.140	1.280	90.89	-1.20	1.70	 	 	 	 	 	 	 	 	 	 	 	 	 	 	 	 	 	 	1581518884	3.53	6.54
12/02/2020 14:48:05	120220	12022020	144805	90.68	12.418772	-57.063245	90.70	0.420	0.890	1.490	90.68	-0.40	1.90	 	 	 	 	 	 	 	 	 	 	 	 	 	 	 	 	 	 	1581518885	3.52	6.52
12/02/2020 14:48:06	120220	12022020	144806	90.79	12.418775	-57.063227	90.85	-0.160	0.810	1.520	90.84	-0.40	1.90	 	 	 	 	 	 	 	 	 	 	 	 	 	 	 	 	 	 	1581518886	4.05	7.50
12/02/2020 14:48:07	120220	12022020	144807	91.02	12.418777	-57.063203	91.09	-0.560	0.180	1.540	91.06	-1.10	2.00	 	 	 	 	 	 	 	 	 	 	 	 	 	 	 	 	 	 	1581518887	4.73	8.76
12/02/2020 14:48:08	120220	12022020	144808	91.19	12.418775	-57.063182	91.26	-0.700	-0.360	1.750	91.21	-1.60	2.10	 	 	 	 	 	 	 	 	 	 	 	 	 	 	 	 	 	 	1581518888	4.89	9.06
12/02/2020 14:48:09	120220	12022020	144809	91.21	12.418768	-57.063160	91.26	-0.550	-0.640	2.270	91.20	-1.90	2.70	 	 	 	 	 	 	 	 	 	 	 	 	 	 	 	 	 	 	1581518889	4.75	8.80
12/02/2020 14:48:10	120220	12022020	144810	91.12	12.418762	-57.063138	91.17	-0.150	-0.670	2.710	91.08	-1.90	3.10	 	 	 	 	 	 	 	 	 	 	 	 	 	 	 	 	 	 	1581518890	4.63	8.57
12/02/2020 14:48:11	120220	12022020	144811	90.94	12.418757	-57.063118	90.99	0.240	-0.460	2.720	90.90	-1.80	3.10	 	 	 	 	 	 	 	 	 	 	 	 	 	 	 	 	 	 	1581518891	4.32	8.00
12/02/2020 14:48:12	120220	12022020	144812	90.75	12.418758	-57.063100	90.78	0.360	-0.170	2.250	90.71	-1.50	2.70	 	 	 	 	 	 	 	 	 	 	 	 	 	 	 	 	 	 	1581518892	4.11	7.61
12/02/2020 14:48:13	120220	12022020	144813	90.54	12.418762	-57.063080	90.54	0.240	0.010	1.540	90.49	-1.30	2.00	 	 	 	 	 	 	 	 	 	 	 	 	 	 	 	 	 	 	1581518893	4.16	7.70
12/02/2020 14:48:14	120220	12022020	144814	90.31	12.418767	-57.063060	90.31	0.130	-0.090	0.750	90.29	-1.30	1.20	 	 	 	 	 	 	 	 	 	 	 	 	 	 	 	 	 	 	1581518894	4.45	8.24
12/02/2020 14:48:15	120220	12022020	144815	90.32	12.418775	-57.063038	90.34	0.210	-0.330	-0.230	90.36	-1.60	0.30	 	 	 	 	 	 	 	 	 	 	 	 	 	 	 	 	 	 	1581518895	4.88	9.04
12/02/2020 14:48:16	120220	12022020	144816	90.60	12.418782	-57.063015	90.63	0.320	-0.420	-1.010	90.68	-1.70	-0.50	 	 	 	 	 	 	 	 	 	 	 	 	 	 	 	 	 	 	1581518896	4.99	9.24
12/02/2020 14:48:17	120220	12022020	144817	90.96	12.418787	-57.062995	90.96	0.210	-0.200	-1.140	91.02	-1.50	-0.70	 	 	 	 	 	 	 	 	 	 	 	 	 	 	 	 	 	 	1581518897	4.52	8.37
12/02/2020 14:48:18	120220	12022020	144818	91.21	12.418785	-57.062975	91.18	-0.130	0.060	-0.500	91.23	-1.20	-0.10	 	 	 	 	 	 	 	 	 	 	 	 	 	 	 	 	 	 	1581518898	4.11	7.61
12/02/2020 14:48:19	120220	12022020	144819	91.25	12.418778	-57.062955	91.22	-0.430	0.060	0.700	91.24	-1.20	1.10	 	 	 	 	 	 	 	 	 	 	 	 	 	 	 	 	 	 	1581518899	4.41	8.17
12/02/2020 14:48:20	120220	12022020	144820	91.09	12.418770	-57.062935	91.08	-0.510	-0.130	2.060	91.04	-1.40	2.40	 	 	 	 	 	 	 	 	 	 	 	 	 	 	 	 	 	 	1581518900	4.90	9.07
12/02/2020 14:48:21	120220	12022020	144821	90.81	12.418760	-57.062913	90.81	-0.270	-0.340	3.170	90.74	-1.60	3.50	 	 	 	 	 	 	 	 	 	 	 	 	 	 	 	 	 	 	1581518901	4.91	9.09
12/02/2020 14:48:22	120220	12022020	144822	90.48	12.418755	-57.062892	90.49	0.270	-0.690	3.600	90.42	-1.90	4.00	 	 	 	 	 	 	 	 	 	 	 	 	 	 	 	 	 	 	1581518902	4.79	8.87
12/02/2020 14:48:23	120220	12022020	144823	90.25	12.418757	-57.062867	90.30	0.810	-0.980	3.190	90.25	-2.20	3.70	 	 	 	 	 	 	 	 	 	 	 	 	 	 	 	 	 	 	1581518903	5.04	9.33
12/02/2020 14:48:24	120220	12022020	144824	90.43	12.418763	-57.062845	90.54	0.760	-0.510	2.210	90.51	-1.80	2.70	 	 	 	 	 	 	 	 	 	 	 	 	 	 	 	 	 	 	1581518904	5.06	9.37
12/02/2020 14:48:25	120220	12022020	144825	90.88	12.418770	-57.062827	90.99	-0.030	0.710	1.330	90.99	-0.60	1.80	 	 	 	 	 	 	 	 	 	 	 	 	 	 	 	 	 	 	1581518905	3.99	7.39
12/02/2020 14:48:26	120220	12022020	144826	91.35	12.418773	-57.062813	91.41	-0.950	1.610	0.630	91.42	0.30	1.10	 	 	 	 	 	 	 	 	 	 	 	 	 	 	 	 	 	 	1581518906	3.00	5.56
12/02/2020 14:48:27	120220	12022020	144827	91.58	12.418775	-57.062797	91.55	-1.160	1.090	0.110	91.57	-0.10	0.60	 	 	 	 	 	 	 	 	 	 	 	 	 	 	 	 	 	 	1581518907	3.50	6.48
12/02/2020 14:48:28	120220	12022020	144828	91.38	12.418773	-57.062772	91.29	-0.390	-0.810	0.060	91.30	-2.00	0.50	 	 	 	 	 	 	 	 	 	 	 	 	 	 	 	 	 	 	1581518908	5.15	9.54
12/02/2020 14:48:29	120220	12022020	144829	90.88	12.418770	-57.062742	90.79	0.800	-2.620	0.470	90.88	-3.80	0.90	 	 	 	 	 	 	 	 	 	 	 	 	 	 	 	 	 	 	1581518909	6.39	11.83
12/02/2020 14:48:30	120220	12022020	144830	90.47	12.418770	-57.062713	90.44	1.390	-2.550	0.780	90.43	-3.90	1.20	 	 	 	 	 	 	 	 	 	 	 	 	 	 	 	 	 	 	1581518910	5.88	10.89
12/02/2020 14:48:31	120220	12022020	144831	90.44	12.418772	-57.062697	90.47	0.790	-0.380	0.840	90.47	-1.80	1.30	 	 	 	 	 	 	 	 	 	 	 	 	 	 	 	 	 	 	1581518911	3.69	6.83
12/02/2020 14:48:32	120220	12022020	144832	90.71	12.418772	-57.062688	90.78	-0.560	2.040	0.840	90.78	0.70	1.30	 	 	 	 	 	 	 	 	 	 	 	 	 	 	 	 	 	 	1581518912	1.90	3.52
12/02/2020 14:48:33	120220	12022020	144833	91.14	12.418772	-57.062678	91.23	-1.520	2.690	0.950	91.23	1.40	1.40	 	 	 	 	 	 	 	 	 	 	 	 	 	 	 	 	 	 	1581518913	2.20	4.07
12/02/2020 14:48:34	120220	12022020	144834	91.48	12.418767	-57.062657	91.53	-1.210	0.960	1.100	91.51	-0.20	1.50	 	 	 	 	 	 	 	 	 	 	 	 	 	 	 	 	 	 	1581518914	4.36	8.07
12/02/2020 14:48:35	120220	12022020	144835	91.40	12.418763	-57.062628	91.39	-0.000	-1.510	1.460	91.33	-2.70	1.90	 	 	 	 	 	 	 	 	 	 	 	 	 	 	 	 	 	 	1581518915	6.38	11.82
12/02/2020 14:48:36	120220	12022020	144836	90.99	12.418760	-57.062598	91.00	0.920	-2.550	2.020	90.91	-3.80	2.40	 	 	 	 	 	 	 	 	 	 	 	 	 	 	 	 	 	 	1581518916	6.32	11.70
12/02/2020 14:48:37	120220	12022020	144837	90.68	12.418757	-57.062577	90.73	0.870	-1.540	2.410	90.65	-2.90	2.80	 	 	 	 	 	 	 	 	 	 	 	 	 	 	 	 	 	 	1581518917	4.34	8.04
12/02/2020 14:48:38	120220	12022020	144838	90.66	12.418757	-57.062565	90.74	0.200	0.240	2.270	90.68	-1.10	2.70	 	 	 	 	 	 	 	 	 	 	 	 	 	 	 	 	 	 	1581518918	2.58	4.78
12/02/2020 14:48:39	120220	12022020	144839	90.82	12.418758	-57.062553	90.93	-0.310	1.290	1.680	90.86	-0.00	2.20	 	 	 	 	 	 	 	 	 	 	 	 	 	 	 	 	 	 	1581518919	2.52	4.67
12/02/2020 14:48:40	120220	12022020	144840	90.93	12.418762	-57.062537	90.97	-0.300	1.050	1.040	90.93	-0.20	1.50	 	 	 	 	 	 	 	 	 	 	 	 	 	 	 	 	 	 	1581518920	3.72	6.89
12/02/2020 14:48:41	120220	12022020	144841	90.87	12.418765	-57.062513	90.88	-0.070	0.110	0.620	90.87	-1.10	1.10	 	 	 	 	 	 	 	 	 	 	 	 	 	 	 	 	 	 	1581518921	4.85	8.98
12/02/2020 14:48:42	120220	12022020	144842	90.74	12.418765	-57.062490	90.74	0.040	-0.680	0.460	90.72	-1.90	0.90	 	 	 	 	 	 	 	 	 	 	 	 	 	 	 	 	 	 	1581518922	4.97	9.20
12/02/2020 14:48:43	120220	12022020	144843	90.63	12.418767	-57.062468	90.63	0.050	-0.990	0.490	90.63	-2.30	0.90	 	 	 	 	 	 	 	 	 	 	 	 	 	 	 	 	 	 	1581518923	4.50	8.33
12/02/2020 14:48:44	120220	12022020	144844	90.42	12.418767	-57.062450	90.40	0.090	-0.950	0.720	90.37	-2.20	1.10	 	 	 	 	 	 	 	 	 	 	 	 	 	 	 	 	 	 	1581518924	4.13	7.65
12/02/2020 14:48:45	120220	12022020	144845	90.19	12.418765	-57.062430	90.18	0.150	-0.700	1.060	90.17	-2.00	1.50	 	 	 	 	 	 	 	 	 	 	 	 	 	 	 	 	 	 	1581518925	4.06	7.52
12/02/2020 14:48:46	120220	12022020	144846	90.24	12.418763	-57.062410	90.28	0.130	-0.260	1.370	90.29	-1.60	1.80	 	 	 	 	 	 	 	 	 	 	 	 	 	 	 	 	 	 	1581518926	4.10	7.59
12/02/2020 14:48:47	120220	12022020	144847	90.52	12.418760	-57.062392	90.58	-0.090	0.360	1.680	90.58	-1.00	2.10	 	 	 	 	 	 	 	 	 	 	 	 	 	 	 	 	 	 	1581518927	3.95	7.32
12/02/2020 14:48:48	120220	12022020	144848	90.70	12.418757	-57.062375	90.72	-0.400	0.890	1.830	90.70	-0.40	2.20	 	 	 	 	 	 	 	 	 	 	 	 	 	 	 	 	 	 	1581518928	3.63	6.72
12/02/2020 14:48:49	120220	12022020	144849	90.58	12.418755	-57.062358	90.56	-0.450	0.810	1.750	90.53	-0.40	2.20	 	 	 	 	 	 	 	 	 	 	 	 	 	 	 	 	 	 	1581518929	3.61	6.69
12/02/2020 14:48:50	120220	12022020	144850	90.25	12.418757	-57.062338	90.21	0.010	-0.220	1.540	90.18	-1.40	2.00	 	 	 	 	 	 	 	 	 	 	 	 	 	 	 	 	 	 	1581518930	4.37	8.09
12/02/2020 14:48:51	120220	12022020	144851	89.96	12.418760	-57.062313	89.97	0.640	-1.430	1.230	89.94	-2.70	1.70	 	 	 	 	 	 	 	 	 	 	 	 	 	 	 	 	 	 	1581518931	5.42	10.04
12/02/2020 14:48:52	120220	12022020	144852	90.06	12.418765	-57.062288	90.12	0.740	-1.520	0.800	90.13	-2.80	1.30	 	 	 	 	 	 	 	 	 	 	 	 	 	 	 	 	 	 	1581518932	5.20	9.63
12/02/2020 14:48:53	120220	12022020	144853	90.52	12.418768	-57.062272	90.60	0.210	-0.390	0.420	90.52	-1.70	0.90	 	 	 	 	 	 	 	 	 	 	 	 	 	 	 	 	 	 	1581518933	3.73	6.91
12/02/2020 14:48:54	120220	12022020	144854	90.92	12.418770	-57.062258	90.95	-0.400	0.810	0.470	90.96	-0.50	0.90	 	 	 	 	 	 	 	 	 	 	 	 	 	 	 	 	 	 	1581518934	2.71	5.02
12/02/2020 14:48:55	120220	12022020	144855	90.95	12.418768	-57.062243	90.92	-0.630	1.020	1.000	90.95	-0.30	1.40	 	 	 	 	 	 	 	 	 	 	 	 	 	 	 	 	 	 	1581518935	3.15	5.83
12/02/2020 14:48:56	120220	12022020	144856	90.64	12.418763	-57.062223	90.60	-0.460	0.080	1.760	90.57	-1.10	2.10	 	 	 	 	 	 	 	 	 	 	 	 	 	 	 	 	 	 	1581518936	4.48	8.30
12/02/2020 14:48:57	120220	12022020	144857	90.31	12.418758	-57.062198	90.33	-0.150	-1.140	2.320	90.28	-2.40	2.70	 	 	 	 	 	 	 	 	 	 	 	 	 	 	 	 	 	 	1581518937	5.48	10.15
12/02/2020 14:48:58	120220	12022020	144858	90.26	12.418755	-57.062173	90.33	0.050	-1.420	2.310	90.28	-2.70	2.70	 	 	 	 	 	 	 	 	 	 	 	 	 	 	 	 	 	 	1581518938	5.21	9.65
12/02/2020 14:48:59	120220	12022020	144859	90.39	12.418755	-57.062155	90.45	0.060	-0.390	1.740	90.42	-1.80	2.20	 	 	 	 	 	 	 	 	 	 	 	 	 	 	 	 	 	 	1581518939	3.82	7.07
12/02/2020 14:49:00	120220	12022020	144900	90.53	12.418760	-57.062143	90.56	0.030	0.780	0.910	90.56	-0.60	1.40	 	 	 	 	 	 	 	 	 	 	 	 	 	 	 	 	 	 	1581518940	2.90	5.37
12/02/2020 14:49:01	120220	12022020	144901	90.65	12.418765	-57.062127	90.65	0.110	0.850	0.130	90.67	-0.40	0.60	 	 	 	 	 	 	 	 	 	 	 	 	 	 	 	 	 	 	1581518941	3.44	6.37
12/02/2020 14:49:02	120220	12022020	144902	90.78	12.418770	-57.062107	90.79	0.270	-0.090	-0.440	90.81	-1.30	0.00	1017.20	26.70	26.70	20.60	20.60	520.0	69.0	69.0	434.0	28.3	349.00	12.10	77.00	10.00	45527	12380.0	27.5	27.5	1581518942	4.64	8.59
12/02/2020 14:49:03	120220	12022020	144903	90.97	12.418775	-57.062082	90.97	0.350	-1.000	-0.780	90.99	-2.30	-0.30	 	 	 	 	 	 	 	 	 	 	 	 	 	 	 	 	 	 	1581518943	5.23	9.69
12/02/2020 14:49:04	120220	12022020	144904	90.93	12.418775	-57.062058	90.88	0.240	-1.170	-0.460	90.88	-2.50	-0.10	 	 	 	 	 	 	 	 	 	 	 	 	 	 	 	 	 	 	1581518944	4.78	8.85
12/02/2020 14:49:05	120220	12022020	144905	90.56	12.418773	-57.062040	90.49	-0.040	-0.550	0.410	90.46	-1.90	0.80	 	 	 	 	 	 	 	 	 	 	 	 	 	 	 	 	 	 	1581518945	4.00	7.41
12/02/2020 14:49:06	120220	12022020	144906	90.15	12.418768	-57.062023	90.14	-0.360	0.320	1.310	90.10	-1.00	1.70	 	 	 	 	 	 	 	 	 	 	 	 	 	 	 	 	 	 	1581518946	3.51	6.50
12/02/2020 14:49:07	120220	12022020	144907	90.01	12.418765	-57.062008	90.08	-0.490	0.650	1.900	90.02	-0.60	2.30	 	 	 	 	 	 	 	 	 	 	 	 	 	 	 	 	 	 	1581518947	3.53	6.54
12/02/2020 14:49:08	120220	12022020	144908	90.14	12.418762	-57.061988	90.23	-0.300	0.250	2.130	90.18	-1.00	2.50	 	 	 	 	 	 	 	 	 	 	 	 	 	 	 	 	 	 	1581518948	4.11	7.61
12/02/2020 14:49:09	120220	12022020	144909	90.40	12.418762	-57.061967	90.48	0.110	-0.520	2.010	90.44	-1.80	2.40	 	 	 	 	 	 	 	 	 	 	 	 	 	 	 	 	 	 	1581518949	4.77	8.83
12/02/2020 14:49:10	120220	12022020	144910	90.58	12.418763	-57.061943	90.63	0.450	-0.950	1.770	90.60	-2.20	2.20	 	 	 	 	 	 	 	 	 	 	 	 	 	 	 	 	 	 	1581518950	4.96	9.19
12/02/2020 14:49:11	120220	12022020	144911	90.57	12.418763	-57.061922	90.58	0.430	-0.670	1.740	90.53	-2.00	2.20	 	 	 	 	 	 	 	 	 	 	 	 	 	 	 	 	 	 	1581518951	4.42	8.19
12/02/2020 14:49:12	120220	12022020	144912	90.31	12.418763	-57.061905	90.31	0.060	0.000	1.900	90.24	-1.30	2.30	 	 	 	 	 	 	 	 	 	 	 	 	 	 	 	 	 	 	1581518952	3.72	6.89
12/02/2020 14:49:13	120220	12022020	144913	90.01	12.418763	-57.061888	90.04	-0.330	0.460	1.780	89.97	-0.80	2.20	 	 	 	 	 	 	 	 	 	 	 	 	 	 	 	 	 	 	1581518953	3.50	6.48
12/02/2020 14:49:14	120220	12022020	144914	89.91	12.418767	-57.061870	89.95	-0.410	0.340	1.130	89.91	-0.90	1.60	 	 	 	 	 	 	 	 	 	 	 	 	 	 	 	 	 	 	1581518954	3.90	7.22
12/02/2020 14:49:15	120220	12022020	144915	89.94	12.418772	-57.061848	89.96	-0.050	-0.240	0.370	89.96	-1.50	0.90	 	 	 	 	 	 	 	 	 	 	 	 	 	 	 	 	 	 	1581518955	4.61	8.54
12/02/2020 14:49:16	120220	12022020	144916	90.11	12.418778	-57.061825	90.13	0.450	-0.800	-0.220	90.16	-2.10	0.30	 	 	 	 	 	 	 	 	 	 	 	 	 	 	 	 	 	 	1581518956	5.01	9.28
12/02/2020 14:49:17	120220	12022020	144917	90.37	12.418782	-57.061803	90.35	0.590	-0.930	-0.480	90.42	-2.20	-0.00	 	 	 	 	 	 	 	 	 	 	 	 	 	 	 	 	 	 	1581518957	4.84	8.96
12/02/2020 14:49:18	120220	12022020	144918	90.57	12.418785	-57.061783	90.54	0.200	-0.530	-0.250	90.60	-1.80	0.20	 	 	 	 	 	 	 	 	 	 	 	 	 	 	 	 	 	 	1581518958	4.27	7.91
12/02/2020 14:49:19	120220	12022020	144919	90.67	12.418782	-57.061765	90.63	-0.430	0.110	0.590	90.67	-1.20	1.00	 	 	 	 	 	 	 	 	 	 	 	 	 	 	 	 	 	 	1581518959	3.76	6.96
12/02/2020 14:49:20	120220	12022020	144920	90.59	12.418775	-57.061748	90.56	-0.820	0.640	1.830	90.56	-0.70	2.20	 	 	 	 	 	 	 	 	 	 	 	 	 	 	 	 	 	 	1581518960	3.83	7.09
12/02/2020 14:49:21	120220	12022020	144921	90.42	12.418768	-57.061730	90.42	-0.770	0.710	2.790	90.39	-0.60	3.20	 	 	 	 	 	 	 	 	 	 	 	 	 	 	 	 	 	 	1581518961	4.09	7.57
12/02/2020 14:49:22	120220	12022020	144922	90.30	12.418763	-57.061710	90.32	-0.210	-0.010	2.950	90.30	-1.20	3.40	 	 	 	 	 	 	 	 	 	 	 	 	 	 	 	 	 	 	1581518962	4.40	8.15
12/02/2020 14:49:23	120220	12022020	144923	90.32	12.418767	-57.061687	90.37	0.610	-1.130	2.470	90.34	-2.40	2.90	 	 	 	 	 	 	 	 	 	 	 	 	 	 	 	 	 	 	1581518963	5.19	9.61
12/02/2020 14:49:24	120220	12022020	144924	90.53	12.418773	-57.061660	90.64	1.030	-1.520	1.700	90.62	-2.80	2.20	 	 	 	 	 	 	 	 	 	 	 	 	 	 	 	 	 	 	1581518964	5.57	10.32
12/02/2020 14:49:25	120220	12022020	144925	91.05	12.418780	-57.061640	91.17	0.580	-0.550	0.900	91.17	-1.90	1.40	 	 	 	 	 	 	 	 	 	 	 	 	 	 	 	 	 	 	1581518965	4.49	8.32
12/02/2020 14:49:26	120220	12022020	144926	91.58	12.418785	-57.061627	91.64	-0.400	0.830	0.470	91.65	-0.50	0.90	 	 	 	 	 	 	 	 	 	 	 	 	 	 	 	 	 	 	1581518966	2.98	5.52
12/02/2020 14:49:27	120220	12022020	144927	91.73	12.418783	-57.061613	91.73	-1.100	1.310	0.550	91.70	0.00	1.00	 	 	 	 	 	 	 	 	 	 	 	 	 	 	 	 	 	 	1581518967	2.86	5.30
12/02/2020 14:49:28	120220	12022020	144928	91.48	12.418780	-57.061595	91.45	-1.000	0.580	0.810	91.42	-0.70	1.20	 	 	 	 	 	 	 	 	 	 	 	 	 	 	 	 	 	 	1581518968	4.03	7.46
12/02/2020 14:49:29	120220	12022020	144929	91.20	12.418778	-57.061570	91.19	-0.180	-0.740	0.960	91.17	-2.00	1.40	 	 	 	 	 	 	 	 	 	 	 	 	 	 	 	 	 	 	1581518969	5.10	9.45
12/02/2020 14:49:30	120220	12022020	144930	91.09	12.418778	-57.061545	91.10	0.750	-1.720	0.970	91.09	-3.00	1.40	 	 	 	 	 	 	 	 	 	 	 	 	 	 	 	 	 	 	1581518970	5.46	10.11
12/02/2020 14:49:31	120220	12022020	144931	91.09	12.418782	-57.061522	91.12	1.170	-1.760	0.770	91.10	-3.10	1.20	 	 	 	 	 	 	 	 	 	 	 	 	 	 	 	 	 	 	1581518971	5.08	9.41
12/02/2020 14:49:32	120220	12022020	144932	91.17	12.418787	-57.061502	91.23	0.820	-0.790	0.520	91.20	-2.10	1.00	 	 	 	 	 	 	 	 	 	 	 	 	 	 	 	 	 	 	1581518972	4.32	8.00
12/02/2020 14:49:33	120220	12022020	144933	91.36	12.418788	-57.061485	91.43	-0.040	0.590	0.670	91.41	-0.80	1.10	 	 	 	 	 	 	 	 	 	 	 	 	 	 	 	 	 	 	1581518973	3.36	6.22
12/02/2020 14:49:34	120220	12022020	144934	91.62	12.418787	-57.061472	91.69	-0.790	1.510	1.090	91.68	0.20	1.50	 	 	 	 	 	 	 	 	 	 	 	 	 	 	 	 	 	 	1581518974	3.10	5.74
12/02/2020 14:49:35	120220	12022020	144935	91.96	12.418783	-57.061453	92.05	-0.920	1.400	1.380	92.03	0.10	1.80	 	 	 	 	 	 	 	 	 	 	 	 	 	 	 	 	 	 	1581518975	3.71	6.87
12/02/2020 14:49:36	120220	12022020	144936	92.25	12.418780	-57.061432	92.29	-0.510	0.420	1.510	92.26	-0.80	1.90	 	 	 	 	 	 	 	 	 	 	 	 	 	 	 	 	 	 	1581518976	4.62	8.56
12/02/2020 14:49:37	120220	12022020	144937	92.08	12.418777	-57.061408	92.05	-0.070	-0.680	1.820	91.99	-1.90	2.20	 	 	 	 	 	 	 	 	 	 	 	 	 	 	 	 	 	 	1581518977	5.11	9.46
12/02/2020 14:49:38	120220	12022020	144938	91.52	12.418775	-57.061385	91.48	0.110	-1.170	2.170	91.40	-2.40	2.60	 	 	 	 	 	 	 	 	 	 	 	 	 	 	 	 	 	 	1581518978	4.81	8.91
12/02/2020 14:49:39	120220	12022020	144939	91.07	12.418775	-57.061367	91.09	0.130	-0.960	1.980	91.03	-2.30	2.40	 	 	 	 	 	 	 	 	 	 	 	 	 	 	 	 	 	 	1581518979	4.07	7.54
12/02/2020 14:49:40	120220	12022020	144940	91.04	12.418780	-57.061348	91.08	0.210	-0.690	1.280	91.07	-2.00	1.80	 	 	 	 	 	 	 	 	 	 	 	 	 	 	 	 	 	 	1581518980	3.86	7.15
12/02/2020 14:49:41	120220	12022020	144941	91.17	12.418785	-57.061330	91.19	0.400	-0.750	0.670	91.18	-2.00	1.10	 	 	 	 	 	 	 	 	 	 	 	 	 	 	 	 	 	 	1581518981	4.32	8.00
12/02/2020 14:49:42	120220	12022020	144942	91.08	12.418788	-57.061307	91.03	0.590	-0.910	0.420	91.02	-2.20	0.90	 	 	 	 	 	 	 	 	 	 	 	 	 	 	 	 	 	 	1581518982	4.81	8.91
12/02/2020 14:49:43	120220	12022020	144943	90.68	12.418790	-57.061283	90.59	0.600	-0.600	0.470	90.59	-1.90	0.90	 	 	 	 	 	 	 	 	 	 	 	 	 	 	 	 	 	 	1581518983	4.85	8.98
12/02/2020 14:49:44	120220	12022020	144944	90.42	12.418792	-57.061263	90.42	0.220	0.480	0.560	90.44	-0.90	1.00	 	 	 	 	 	 	 	 	 	 	 	 	 	 	 	 	 	 	1581518984	4.18	7.74
12/02/2020 14:49:45	120220	12022020	144945	90.80	12.418792	-57.061248	90.89	-0.520	1.710	0.720	90.80	0.40	1.10	 	 	 	 	 	 	 	 	 	 	 	 	 	 	 	 	 	 	1581518985	3.20	5.93
12/02/2020 14:49:46	120220	12022020	144946	91.58	12.418790	-57.061235	91.69	-1.170	1.950	0.900	91.72	0.70	1.30	 	 	 	 	 	 	 	 	 	 	 	 	 	 	 	 	 	 	1581518986	3.04	5.63
12/02/2020 14:49:47	120220	12022020	144947	92.13	12.418787	-57.061215	92.15	-1.120	0.690	1.130	92.17	-0.50	1.50	 	 	 	 	 	 	 	 	 	 	 	 	 	 	 	 	 	 	1581518987	4.06	7.52
12/02/2020 14:49:48	120220	12022020	144948	92.12	12.418783	-57.061190	92.08	-0.270	-1.260	1.670	92.04	-2.40	2.10	 	 	 	 	 	 	 	 	 	 	 	 	 	 	 	 	 	 	1581518988	5.39	9.98
12/02/2020 14:49:49	120220	12022020	144949	91.54	12.418778	-57.061163	91.47	0.750	-2.510	2.700	91.39	-3.70	3.10	 	 	 	 	 	 	 	 	 	 	 	 	 	 	 	 	 	 	1581518989	5.71	10.57
12/02/2020 14:49:50	120220	12022020	144950	90.91	12.418775	-57.061140	90.91	1.240	-2.370	3.480	90.84	-3.70	3.90	 	 	 	 	 	 	 	 	 	 	 	 	 	 	 	 	 	 	1581518990	4.95	9.17
12/02/2020 14:49:51	120220	12022020	144951	90.79	12.418777	-57.061122	90.87	1.020	-1.180	3.240	90.83	-2.50	3.70	 	 	 	 	 	 	 	 	 	 	 	 	 	 	 	 	 	 	1581518991	3.91	7.24
12/02/2020 14:49:52	120220	12022020	144952	91.12	12.418782	-57.061107	91.21	0.410	0.340	2.160	91.21	-1.00	2.70	 	 	 	 	 	 	 	 	 	 	 	 	 	 	 	 	 	 	1581518992	3.55	6.57
12/02/2020 14:49:53	120220	12022020	144953	91.68	12.418788	-57.061092	91.76	-0.320	1.650	0.840	91.80	0.30	1.30	 	 	 	 	 	 	 	 	 	 	 	 	 	 	 	 	 	 	1581518993	3.60	6.67
12/02/2020 14:49:54	120220	12022020	144954	92.26	12.418795	-57.061075	92.30	-0.880	1.930	-0.250	92.36	0.60	0.30	 	 	 	 	 	 	 	 	 	 	 	 	 	 	 	 	 	 	1581518994	3.70	6.85
12/02/2020 14:49:55	120220	12022020	144955	92.67	12.418798	-57.061053	92.66	-0.930	0.850	-0.880	92.72	-0.40	-0.40	 	 	 	 	 	 	 	 	 	 	 	 	 	 	 	 	 	 	1581518995	4.50	8.33
12/02/2020 14:49:56	120220	12022020	144956	92.70	12.418798	-57.061028	92.61	-0.460	-0.760	-0.880	92.65	-2.00	-0.40	 	 	 	 	 	 	 	 	 	 	 	 	 	 	 	 	 	 	1581518996	5.47	10.13
12/02/2020 14:49:57	120220	12022020	144957	92.32	12.418795	-57.061002	92.21	0.120	-1.680	-0.250	92.23	-2.90	0.20	 	 	 	 	 	 	 	 	 	 	 	 	 	 	 	 	 	 	1581518997	5.48	10.15
12/02/2020 14:49:58	120220	12022020	144958	91.91	12.418792	-57.060982	91.87	0.430	-1.380	0.650	91.87	-2.70	1.00	 	 	 	 	 	 	 	 	 	 	 	 	 	 	 	 	 	 	1581518998	4.53	8.39
12/02/2020 14:49:59	120220	12022020	144959	91.88	12.418788	-57.060965	91.91	0.400	-0.380	1.200	91.92	-1.70	1.60	 	 	 	 	 	 	 	 	 	 	 	 	 	 	 	 	 	 	1581518999	3.44	6.37
12/02/2020 14:50:00	120220	12022020	145000	92.16	12.418787	-57.060950	92.21	0.310	0.110	1.310	92.21	-1.20	1.70	 	 	 	 	 	 	 	 	 	 	 	 	 	 	 	 	 	 	1581519000	3.31	6.13
12/02/2020 14:50:01	120220	12022020	145001	92.30	12.418787	-57.060928	92.30	0.360	-0.330	1.510	92.28	-1.60	1.90	 	 	 	 	 	 	 	 	 	 	 	 	 	 	 	 	 	 	1581519001	4.46	8.26
12/02/2020 14:50:02	120220	12022020	145002	92.13	12.418785	-57.060903	92.12	0.320	-0.530	1.830	92.09	-1.80	2.20	1017.30	26.60	26.70	20.60	20.70	512.0	69.0	69.0	431.0	28.3	349.00	13.20	78.00	11.00	45802	11182.0	27.5	27.5	1581519002	5.24	9.70
12/02/2020 14:50:03	120220	12022020	145003	91.98	12.418783	-57.060883	91.99	-0.060	0.370	1.990	91.97	-1.00	2.40	 	 	 	 	 	 	 	 	 	 	 	 	 	 	 	 	 	 	1581519003	4.27	7.91
12/02/2020 14:50:04	120220	12022020	145004	91.97	12.418783	-57.060870	92.00	-0.590	1.400	1.940	91.98	0.10	2.40	 	 	 	 	 	 	 	 	 	 	 	 	 	 	 	 	 	 	1581519004	2.89	5.35
12/02/2020 14:50:05	120220	12022020	145005	92.06	12.418783	-57.060855	92.10	-0.730	1.020	1.680	92.08	-0.20	2.10	 	 	 	 	 	 	 	 	 	 	 	 	 	 	 	 	 	 	1581519005	3.18	5.89
12/02/2020 14:50:06	120220	12022020	145006	92.09	12.418785	-57.060832	92.10	-0.200	-0.870	1.430	92.07	-2.00	1.90	 	 	 	 	 	 	 	 	 	 	 	 	 	 	 	 	 	 	1581519006	4.97	9.20
12/02/2020 14:50:07	120220	12022020	145007	91.85	12.418783	-57.060802	91.80	0.610	-2.500	1.370	91.76	-3.70	1.80	 	 	 	 	 	 	 	 	 	 	 	 	 	 	 	 	 	 	1581519007	6.23	11.54
12/02/2020 14:50:08	120220	12022020	145008	91.43	12.418782	-57.060777	91.39	1.000	-2.160	1.410	91.35	-3.50	1.80	 	 	 	 	 	 	 	 	 	 	 	 	 	 	 	 	 	 	1581519008	5.39	9.98
12/02/2020 14:50:09	120220	12022020	145009	91.15	12.418785	-57.060762	91.14	0.610	-0.050	1.320	91.13	-1.40	1.80	 	 	 	 	 	 	 	 	 	 	 	 	 	 	 	 	 	 	1581519009	3.25	6.02
12/02/2020 14:50:10	120220	12022020	145010	91.21	12.418787	-57.060752	91.26	-0.340	1.990	1.050	91.26	0.60	1.50	 	 	 	 	 	 	 	 	 	 	 	 	 	 	 	 	 	 	1581519010	1.96	3.63
12/02/2020 14:50:11	120220	12022020	145011	91.56	12.418790	-57.060740	91.59	-1.130	2.200	0.680	91.63	1.00	1.10	 	 	 	 	 	 	 	 	 	 	 	 	 	 	 	 	 	 	1581519011	2.50	4.63
12/02/2020 14:50:12	120220	12022020	145012	91.87	12.418790	-57.060720	91.89	-1.110	0.430	0.450	91.91	-0.70	0.90	 	 	 	 	 	 	 	 	 	 	 	 	 	 	 	 	 	 	1581519012	4.45	8.24
12/02/2020 14:50:13	120220	12022020	145013	91.92	12.418787	-57.060692	91.90	-0.300	-1.720	0.660	91.89	-2.90	1.10	 	 	 	 	 	 	 	 	 	 	 	 	 	 	 	 	 	 	1581519013	6.03	11.17
12/02/2020 14:50:14	120220	12022020	145014	91.70	12.418783	-57.060665	91.69	0.670	-2.450	1.190	91.65	-3.70	1.60	 	 	 	 	 	 	 	 	 	 	 	 	 	 	 	 	 	 	1581519014	5.81	10.76
12/02/2020 14:50:15	120220	12022020	145015	91.50	12.418778	-57.060645	91.52	1.090	-1.370	1.730	91.48	-2.70	2.10	 	 	 	 	 	 	 	 	 	 	 	 	 	 	 	 	 	 	1581519015	4.14	7.67
12/02/2020 14:50:16	120220	12022020	145016	91.47	12.418777	-57.060633	91.51	0.790	0.360	1.960	91.47	-1.00	2.40	 	 	 	 	 	 	 	 	 	 	 	 	 	 	 	 	 	 	1581519016	2.65	4.91
12/02/2020 14:50:17	120220	12022020	145017	91.44	12.418780	-57.060620	91.44	0.110	1.370	1.680	91.42	0.10	2.10	 	 	 	 	 	 	 	 	 	 	 	 	 	 	 	 	 	 	1581519017	2.62	4.85
12/02/2020 14:50:18	120220	12022020	145018	91.32	12.418785	-57.060603	91.30	-0.510	1.170	1.120	91.30	-0.10	1.60	 	 	 	 	 	 	 	 	 	 	 	 	 	 	 	 	 	 	1581519018	3.68	6.82
12/02/2020 14:50:19	120220	12022020	145019	91.21	12.418788	-57.060583	91.18	-0.740	0.190	0.720	91.20	-1.00	1.20	 	 	 	 	 	 	 	 	 	 	 	 	 	 	 	 	 	 	1581519019	4.56	8.45
12/02/2020 14:50:20	120220	12022020	145020	91.23	12.418790	-57.060560	91.25	-0.510	-0.870	0.590	91.27	-2.10	1.00	 	 	 	 	 	 	 	 	 	 	 	 	 	 	 	 	 	 	1581519020	4.91	9.09
12/02/2020 14:50:21	120220	12022020	145021	91.51	12.418790	-57.060537	91.55	-0.030	-1.520	0.460	91.51	-2.80	0.90	 	 	 	 	 	 	 	 	 	 	 	 	 	 	 	 	 	 	1581519021	4.79	8.87
12/02/2020 14:50:22	120220	12022020	145022	91.79	12.418788	-57.060515	91.83	0.420	-1.590	0.440	91.82	-2.90	0.90	 	 	 	 	 	 	 	 	 	 	 	 	 	 	 	 	 	 	1581519022	4.56	8.45
12/02/2020 14:50:23	120220	12022020	145023	91.87	12.418787	-57.060495	91.88	0.550	-0.870	0.780	91.86	-2.20	1.20	 	 	 	 	 	 	 	 	 	 	 	 	 	 	 	 	 	 	1581519023	4.21	7.80
12/02/2020 14:50:24	120220	12022020	145024	91.72	12.418783	-57.060480	91.70	0.190	0.620	1.440	91.67	-0.70	1.80	 	 	 	 	 	 	 	 	 	 	 	 	 	 	 	 	 	 	1581519024	3.44	6.37
12/02/2020 14:50:25	120220	12022020	145025	91.39	12.418780	-57.060468	91.35	-0.400	1.850	1.870	91.31	0.50	2.30	 	 	 	 	 	 	 	 	 	 	 	 	 	 	 	 	 	 	1581519025	2.67	4.94
12/02/2020 14:50:26	120220	12022020	145026	91.09	12.418780	-57.060453	91.07	-0.650	1.660	1.670	91.06	0.40	2.10	 	 	 	 	 	 	 	 	 	 	 	 	 	 	 	 	 	 	1581519026	3.05	5.65
12/02/2020 14:50:27	120220	12022020	145027	91.02	12.418783	-57.060432	91.01	-0.200	-0.070	1.170	91.03	-1.20	1.60	 	 	 	 	 	 	 	 	 	 	 	 	 	 	 	 	 	 	1581519027	4.65	8.61
12/02/2020 14:50:28	120220	12022020	145028	91.05	12.418788	-57.060403	91.07	0.580	-2.060	0.710	91.07	-3.20	1.20	 	 	 	 	 	 	 	 	 	 	 	 	 	 	 	 	 	 	1581519028	5.95	11.02
12/02/2020 14:50:29	120220	12022020	145029	91.14	12.418792	-57.060378	91.18	0.890	-2.450	0.350	91.17	-3.70	0.80	 	 	 	 	 	 	 	 	 	 	 	 	 	 	 	 	 	 	1581519029	5.62	10.41
12/02/2020 14:50:30	120220	12022020	145030	91.35	12.418793	-57.060362	91.44	0.430	-0.840	0.440	91.41	-2.20	0.80	 	 	 	 	 	 	 	 	 	 	 	 	 	 	 	 	 	 	1581519030	3.52	6.52
12/02/2020 14:50:31	120220	12022020	145031	91.58	12.418793	-57.060352	91.63	-0.320	1.020	0.900	91.59	-0.30	1.30	 	 	 	 	 	 	 	 	 	 	 	 	 	 	 	 	 	 	1581519031	1.91	3.54
12/02/2020 14:50:32	120220	12022020	145032	91.55	12.418790	-57.060340	91.56	-0.680	1.350	1.510	91.51	0.10	1.90	 	 	 	 	 	 	 	 	 	 	 	 	 	 	 	 	 	 	1581519032	2.60	4.82
12/02/2020 14:50:33	120220	12022020	145033	91.31	12.418785	-57.060320	91.31	-0.490	0.300	2.080	91.26	-0.90	2.50	 	 	 	 	 	 	 	 	 	 	 	 	 	 	 	 	 	 	1581519033	4.50	8.33
12/02/2020 14:50:34	120220	12022020	145034	91.09	12.418782	-57.060295	91.13	-0.160	-0.660	2.510	91.07	-1.90	2.90	 	 	 	 	 	 	 	 	 	 	 	 	 	 	 	 	 	 	1581519034	5.32	9.85
12/02/2020 14:50:35	120220	12022020	145035	91.05	12.418778	-57.060273	91.11	-0.020	-0.780	2.540	91.05	-2.10	3.00	 	 	 	 	 	 	 	 	 	 	 	 	 	 	 	 	 	 	1581519035	4.58	8.48
12/02/2020 14:50:36	120220	12022020	145036	91.14	12.418778	-57.060257	91.21	0.010	-0.400	2.080	91.18	-1.70	2.50	 	 	 	 	 	 	 	 	 	 	 	 	 	 	 	 	 	 	1581519036	3.58	6.63
12/02/2020 14:50:37	120220	12022020	145037	91.32	12.418782	-57.060240	91.35	0.250	-0.240	1.310	91.35	-1.50	1.80	 	 	 	 	 	 	 	 	 	 	 	 	 	 	 	 	 	 	1581519037	3.52	6.52
12/02/2020 14:50:38	120220	12022020	145038	91.46	12.418787	-57.060222	91.45	0.630	-0.280	0.480	91.46	-1.50	1.00	 	 	 	 	 	 	 	 	 	 	 	 	 	 	 	 	 	 	1581519038	4.16	7.70
12/02/2020 14:50:39	120220	12022020	145039	91.42	12.418793	-57.060202	91.37	0.750	-0.120	-0.030	91.41	-1.40	0.40	 	 	 	 	 	 	 	 	 	 	 	 	 	 	 	 	 	 	1581519039	4.31	7.98
12/02/2020 14:50:40	120220	12022020	145040	91.34	12.418798	-57.060185	91.30	0.430	0.200	0.030	91.33	-1.10	0.40	 	 	 	 	 	 	 	 	 	 	 	 	 	 	 	 	 	 	1581519040	3.82	7.07
12/02/2020 14:50:41	120220	12022020	145041	91.35	12.418798	-57.060167	91.33	-0.120	0.160	0.380	91.37	-1.10	0.80	 	 	 	 	 	 	 	 	 	 	 	 	 	 	 	 	 	 	1581519041	3.60	6.67
12/02/2020 14:50:42	120220	12022020	145042	91.44	12.418795	-57.060148	91.43	-0.420	-0.470	0.770	91.46	-1.70	1.20	 	 	 	 	 	 	 	 	 	 	 	 	 	 	 	 	 	 	1581519042	4.20	7.78
12/02/2020 14:50:43	120220	12022020	145043	91.46	12.418792	-57.060125	91.45	-0.310	-1.010	1.280	91.45	-2.30	1.70	 	 	 	 	 	 	 	 	 	 	 	 	 	 	 	 	 	 	1581519043	4.81	8.91
12/02/2020 14:50:44	120220	12022020	145044	91.32	12.418787	-57.060105	91.31	-0.140	-0.730	1.890	91.28	-2.00	2.30	 	 	 	 	 	 	 	 	 	 	 	 	 	 	 	 	 	 	1581519044	4.46	8.26
12/02/2020 14:50:45	120220	12022020	145045	91.19	12.418785	-57.060088	91.22	-0.330	0.250	2.300	91.19	-1.10	2.70	 	 	 	 	 	 	 	 	 	 	 	 	 	 	 	 	 	 	1581519045	3.50	6.48
12/02/2020 14:50:46	120220	12022020	145046	91.37	12.418783	-57.060075	91.47	-0.750	1.070	2.210	91.45	-0.20	2.60	 	 	 	 	 	 	 	 	 	 	 	 	 	 	 	 	 	 	1581519046	2.82	5.22
12/02/2020 14:50:47	120220	12022020	145047	91.80	12.418783	-57.060060	91.89	-0.810	0.770	1.770	91.87	-0.50	2.20	 	 	 	 	 	 	 	 	 	 	 	 	 	 	 	 	 	 	1581519047	3.21	5.94
12/02/2020 14:50:48	120220	12022020	145048	91.97	12.418782	-57.060038	91.97	-0.060	-0.660	1.370	91.95	-1.80	1.80	 	 	 	 	 	 	 	 	 	 	 	 	 	 	 	 	 	 	1581519048	4.57	8.46
12/02/2020 14:50:49	120220	12022020	145049	91.70	12.418783	-57.060012	91.63	1.060	-1.940	1.170	91.62	-3.20	1.60	 	 	 	 	 	 	 	 	 	 	 	 	 	 	 	 	 	 	1581519049	5.60	10.37
12/02/2020 14:50:50	120220	12022020	145050	91.33	12.418785	-57.059987	91.30	1.590	-1.800	0.930	91.30	-3.10	1.40	 	 	 	 	 	 	 	 	 	 	 	 	 	 	 	 	 	 	1581519050	5.15	9.54
12/02/2020 14:50:51	120220	12022020	145051	91.40	12.418790	-57.059970	91.45	1.030	-0.290	0.610	91.47	-1.70	1.10	 	 	 	 	 	 	 	 	 	 	 	 	 	 	 	 	 	 	1581519051	3.70	6.85
12/02/2020 14:50:52	120220	12022020	145052	91.91	12.418793	-57.059960	91.99	-0.210	1.380	0.420	92.03	0.00	0.90	 	 	 	 	 	 	 	 	 	 	 	 	 	 	 	 	 	 	1581519052	2.45	4.54
12/02/2020 14:50:53	120220	12022020	145053	92.46	12.418793	-57.059948	92.52	-1.170	1.980	0.560	92.55	0.70	1.00	 	 	 	 	 	 	 	 	 	 	 	 	 	 	 	 	 	 	1581519053	2.44	4.52
12/02/2020 14:50:54	120220	12022020	145054	92.75	12.418788	-57.059932	92.75	-1.140	1.190	1.040	92.75	-0.00	1.40	 	 	 	 	 	 	 	 	 	 	 	 	 	 	 	 	 	 	1581519054	3.67	6.80
12/02/2020 14:50:55	120220	12022020	145055	92.62	12.418785	-57.059908	92.59	-0.330	-0.440	1.810	92.57	-1.60	2.20	 	 	 	 	 	 	 	 	 	 	 	 	 	 	 	 	 	 	1581519055	4.87	9.02
12/02/2020 14:50:56	120220	12022020	145056	92.41	12.418780	-57.059883	92.42	0.410	-1.870	2.470	92.39	-3.10	2.90	 	 	 	 	 	 	 	 	 	 	 	 	 	 	 	 	 	 	1581519056	5.35	9.91
12/02/2020 14:50:57	120220	12022020	145057	92.37	12.418777	-57.059860	92.44	0.540	-2.300	2.980	92.38	-3.60	3.40	 	 	 	 	 	 	 	 	 	 	 	 	 	 	 	 	 	 	1581519057	4.94	9.15
12/02/2020 14:50:58	120220	12022020	145058	92.42	12.418770	-57.059842	92.50	0.220	-1.540	3.330	92.43	-2.90	3.70	 	 	 	 	 	 	 	 	 	 	 	 	 	 	 	 	 	 	1581519058	4.09	7.57
12/02/2020 14:50:59	120220	12022020	145059	92.44	12.418767	-57.059827	92.50	-0.010	-0.160	3.050	92.43	-1.50	3.50	 	 	 	 	 	 	 	 	 	 	 	 	 	 	 	 	 	 	1581519059	3.23	5.98
12/02/2020 14:51:00	120220	12022020	145100	92.36	12.418768	-57.059813	92.37	0.070	0.950	1.980	92.34	-0.40	2.50	 	 	 	 	 	 	 	 	 	 	 	 	 	 	 	 	 	 	1581519060	3.07	5.69
12/02/2020 14:51:01	120220	12022020	145101	92.34	12.418775	-57.059797	92.34	0.160	1.310	0.560	92.36	0.00	1.10	 	 	 	 	 	 	 	 	 	 	 	 	 	 	 	 	 	 	1581519061	3.92	7.26
12/02/2020 14:51:02	120220	12022020	145102	92.52	12.418783	-57.059777	92.53	-0.050	1.020	-0.530	92.57	-0.20	-0.00	1017.30	26.60	26.60	20.30	20.40	638.0	68.0	68.0	425.0	28.3	345.00	13.50	74.00	11.50	53249	10945.0	27.5	27.5	1581519062	4.43	8.20
12/02/2020 14:51:03	120220	12022020	145103	92.81	12.418788	-57.059757	92.80	-0.460	0.430	-1.120	92.87	-0.80	-0.70	 	 	 	 	 	 	 	 	 	 	 	 	 	 	 	 	 	 	1581519063	4.33	8.02
12/02/2020 14:51:04	120220	12022020	145104	93.01	12.418788	-57.059737	92.96	-0.650	-0.140	-1.230	93.01	-1.40	-0.80	 	 	 	 	 	 	 	 	 	 	 	 	 	 	 	 	 	 	1581519064	4.10	7.59
12/02/2020 14:51:05	120220	12022020	145105	92.85	12.418785	-57.059718	92.76	-0.300	-0.770	-0.690	92.77	-2.00	-0.30	 	 	 	 	 	 	 	 	 	 	 	 	 	 	 	 	 	 	1581519065	3.99	7.39
12/02/2020 14:51:06	120220	12022020	145106	92.32	12.418780	-57.059698	92.21	0.470	-1.640	0.440	92.19	-2.90	0.80	 	 	 	 	 	 	 	 	 	 	 	 	 	 	 	 	 	 	1581519066	4.43	8.20
12/02/2020 14:51:07	120220	12022020	145107	91.72	12.418773	-57.059675	91.68	1.050	-2.180	1.740	91.63	-3.40	2.10	 	 	 	 	 	 	 	 	 	 	 	 	 	 	 	 	 	 	1581519067	5.05	9.35
12/02/2020 14:51:08	120220	12022020	145108	91.42	12.418767	-57.059653	91.48	0.900	-1.440	2.680	91.42	-2.80	3.10	 	 	 	 	 	 	 	 	 	 	 	 	 	 	 	 	 	 	1581519068	4.65	8.61
12/02/2020 14:51:09	120220	12022020	145109	91.56	12.418763	-57.059640	91.66	0.100	0.380	2.940	91.62	-1.00	3.30	 	 	 	 	 	 	 	 	 	 	 	 	 	 	 	 	 	 	1581519069	3.23	5.98
12/02/2020 14:51:10	120220	12022020	145110	91.85	12.418762	-57.059628	91.94	-0.740	1.810	2.730	91.90	0.50	3.10	 	 	 	 	 	 	 	 	 	 	 	 	 	 	 	 	 	 	1581519070	2.44	4.52
12/02/2020 14:51:11	120220	12022020	145111	91.96	12.418760	-57.059613	92.01	-1.100	1.820	2.500	91.95	0.60	2.90	 	 	 	 	 	 	 	 	 	 	 	 	 	 	 	 	 	 	1581519071	3.21	5.94
12/02/2020 14:51:12	120220	12022020	145112	91.83	12.418758	-57.059592	91.83	-0.850	0.610	2.330	91.78	-0.60	2.70	 	 	 	 	 	 	 	 	 	 	 	 	 	 	 	 	 	 	1581519072	4.54	8.41
12/02/2020 14:51:13	120220	12022020	145113	91.54	12.418757	-57.059567	91.52	-0.270	-0.850	2.050	91.47	-2.00	2.50	 	 	 	 	 	 	 	 	 	 	 	 	 	 	 	 	 	 	1581519073	5.31	9.83
12/02/2020 14:51:14	120220	12022020	145114	91.24	12.418757	-57.059542	91.23	0.280	-1.530	1.500	91.21	-2.80	2.00	 	 	 	 	 	 	 	 	 	 	 	 	 	 	 	 	 	 	1581519074	5.09	9.43
12/02/2020 14:51:15	120220	12022020	145115	91.21	12.418760	-57.059523	91.24	0.530	-1.060	0.740	91.25	-2.40	1.20	 	 	 	 	 	 	 	 	 	 	 	 	 	 	 	 	 	 	1581519075	4.09	7.57
12/02/2020 14:51:16	120220	12022020	145116	91.40	12.418763	-57.059508	91.39	0.500	-0.130	0.120	91.42	-1.40	0.60	 	 	 	 	 	 	 	 	 	 	 	 	 	 	 	 	 	 	1581519076	3.20	5.93
12/02/2020 14:51:17	120220	12022020	145117	91.38	12.418767	-57.059493	91.32	0.400	0.300	-0.030	91.34	-1.00	0.40	 	 	 	 	 	 	 	 	 	 	 	 	 	 	 	 	 	 	1581519077	3.19	5.91
12/02/2020 14:51:18	120220	12022020	145118	91.07	12.418768	-57.059475	91.00	0.290	0.040	0.290	91.01	-1.20	0.70	 	 	 	 	 	 	 	 	 	 	 	 	 	 	 	 	 	 	1581519078	3.92	7.26
12/02/2020 14:51:19	120220	12022020	145119	90.85	12.418768	-57.059453	90.83	0.110	-0.560	0.760	90.84	-1.80	1.20	 	 	 	 	 	 	 	 	 	 	 	 	 	 	 	 	 	 	1581519079	4.57	8.46
12/02/2020 14:51:20	120220	12022020	145120	90.81	12.418765	-57.059432	90.80	-0.090	-0.990	1.420	90.79	-2.20	1.80	 	 	 	 	 	 	 	 	 	 	 	 	 	 	 	 	 	 	1581519080	4.86	9.00
12/02/2020 14:51:21	120220	12022020	145121	90.65	12.418757	-57.059410	90.63	-0.210	-0.770	2.310	90.59	-2.10	2.70	 	 	 	 	 	 	 	 	 	 	 	 	 	 	 	 	 	 	1581519081	4.74	8.78
12/02/2020 14:51:22	120220	12022020	145122	90.40	12.418750	-57.059392	90.40	-0.230	0.060	2.840	90.36	-1.20	3.20	 	 	 	 	 	 	 	 	 	 	 	 	 	 	 	 	 	 	1581519082	4.12	7.63
12/02/2020 14:51:23	120220	12022020	145123	90.32	12.418747	-57.059377	90.37	-0.240	0.790	2.610	90.34	-0.50	3.10	 	 	 	 	 	 	 	 	 	 	 	 	 	 	 	 	 	 	1581519083	3.41	6.32
12/02/2020 14:51:24	120220	12022020	145124	90.51	12.418750	-57.059358	90.56	-0.270	0.810	1.790	90.56	-0.40	2.30	 	 	 	 	 	 	 	 	 	 	 	 	 	 	 	 	 	 	1581519084	3.69	6.83
12/02/2020 14:51:25	120220	12022020	145125	90.73	12.418753	-57.059338	90.76	-0.230	0.210	0.890	90.73	-1.00	1.40	 	 	 	 	 	 	 	 	 	 	 	 	 	 	 	 	 	 	1581519085	4.38	8.11
12/02/2020 14:51:26	120220	12022020	145126	90.78	12.418758	-57.059317	90.75	-0.060	-0.500	0.240	90.76	-1.70	0.70	 	 	 	 	 	 	 	 	 	 	 	 	 	 	 	 	 	 	1581519086	4.72	8.74
12/02/2020 14:51:27	120220	12022020	145127	90.60	12.418762	-57.059295	90.56	0.200	-0.850	-0.070	90.56	-2.10	0.40	 	 	 	 	 	 	 	 	 	 	 	 	 	 	 	 	 	 	1581519087	4.59	8.50
12/02/2020 14:51:28	120220	12022020	145128	90.35	12.418763	-57.059277	90.30	0.300	-0.700	-0.050	90.30	-2.00	0.40	 	 	 	 	 	 	 	 	 	 	 	 	 	 	 	 	 	 	1581519088	4.12	7.63
12/02/2020 14:51:29	120220	12022020	145129	90.17	12.418765	-57.059258	90.15	0.160	-0.380	0.320	90.15	-1.60	0.70	 	 	 	 	 	 	 	 	 	 	 	 	 	 	 	 	 	 	1581519089	3.70	6.85
12/02/2020 14:51:30	120220	12022020	145130	90.12	12.418762	-57.059240	90.12	0.030	-0.390	0.910	90.10	-1.60	1.30	 	 	 	 	 	 	 	 	 	 	 	 	 	 	 	 	 	 	1581519090	3.92	7.26
12/02/2020 14:51:31	120220	12022020	145131	90.01	12.418758	-57.059218	90.02	0.120	-0.760	1.510	89.98	-2.00	1.90	 	 	 	 	 	 	 	 	 	 	 	 	 	 	 	 	 	 	1581519091	4.61	8.54
12/02/2020 14:51:32	120220	12022020	145132	89.85	12.418753	-57.059195	89.85	0.320	-0.790	1.980	89.82	-2.10	2.40	 	 	 	 	 	 	 	 	 	 	 	 	 	 	 	 	 	 	1581519092	4.95	9.17
12/02/2020 14:51:33	120220	12022020	145133	89.76	12.418752	-57.059175	89.79	0.260	-0.070	2.310	89.75	-1.40	2.70	 	 	 	 	 	 	 	 	 	 	 	 	 	 	 	 	 	 	1581519093	4.33	8.02
12/02/2020 14:51:34	120220	12022020	145134	89.77	12.418750	-57.059158	89.82	-0.210	0.890	2.380	89.79	-0.40	2.80	 	 	 	 	 	 	 	 	 	 	 	 	 	 	 	 	 	 	1581519094	3.49	6.46
12/02/2020 14:51:35	120220	12022020	145135	89.87	12.418750	-57.059143	89.92	-0.730	1.260	2.060	89.90	0.00	2.50	 	 	 	 	 	 	 	 	 	 	 	 	 	 	 	 	 	 	1581519095	3.31	6.13
12/02/2020 14:51:36	120220	12022020	145136	89.98	12.418753	-57.059125	90.00	-0.900	0.690	1.470	90.00	-0.50	1.90	 	 	 	 	 	 	 	 	 	 	 	 	 	 	 	 	 	 	1581519096	3.95	7.32
12/02/2020 14:51:37	120220	12022020	145137	89.98	12.418755	-57.059102	89.96	-0.630	-0.330	1.050	89.96	-1.50	1.50	 	 	 	 	 	 	 	 	 	 	 	 	 	 	 	 	 	 	1581519097	4.74	8.78
12/02/2020 14:51:38	120220	12022020	145138	89.82	12.418757	-57.059080	89.81	-0.110	-1.080	0.890	89.79	-2.30	1.30	 	 	 	 	 	 	 	 	 	 	 	 	 	 	 	 	 	 	1581519098	4.83	8.95
12/02/2020 14:51:39	120220	12022020	145139	89.70	12.418758	-57.059058	89.68	0.440	-1.470	0.640	89.69	-2.70	1.10	 	 	 	 	 	 	 	 	 	 	 	 	 	 	 	 	 	 	1581519099	4.55	8.43
12/02/2020 14:51:40	120220	12022020	145140	89.69	12.418762	-57.059037	89.69	0.850	-1.580	0.330	89.70	-2.80	0.80	 	 	 	 	 	 	 	 	 	 	 	 	 	 	 	 	 	 	1581519100	4.58	8.48
12/02/2020 14:51:41	120220	12022020	145141	89.75	12.418763	-57.059015	89.76	0.880	-1.070	0.260	89.77	-2.40	0.70	 	 	 	 	 	 	 	 	 	 	 	 	 	 	 	 	 	 	1581519101	4.49	8.32
12/02/2020 14:51:42	120220	12022020	145142	89.82	12.418765	-57.058997	89.83	0.550	0.020	0.550	89.83	-1.30	1.00	 	 	 	 	 	 	 	 	 	 	 	 	 	 	 	 	 	 	1581519102	3.89	7.20
12/02/2020 14:51:43	120220	12022020	145143	89.80	12.418763	-57.058980	89.80	-0.020	1.180	1.100	89.78	-0.10	1.50	 	 	 	 	 	 	 	 	 	 	 	 	 	 	 	 	 	 	1581519103	3.48	6.44
12/02/2020 14:51:44	120220	12022020	145144	89.64	12.418760	-57.058965	89.62	-0.620	1.740	1.650	89.59	0.50	2.00	 	 	 	 	 	 	 	 	 	 	 	 	 	 	 	 	 	 	1581519104	3.43	6.35
12/02/2020 14:51:45	120220	12022020	145145	89.42	12.418758	-57.058947	89.40	-0.930	1.140	1.870	89.39	-0.10	2.30	 	 	 	 	 	 	 	 	 	 	 	 	 	 	 	 	 	 	1581519105	3.96	7.33
12/02/2020 14:51:46	120220	12022020	145146	89.34	12.418758	-57.058923	89.35	-0.730	-0.340	1.760	89.34	-1.50	2.20	 	 	 	 	 	 	 	 	 	 	 	 	 	 	 	 	 	 	1581519106	4.98	9.22
12/02/2020 14:51:47	120220	12022020	145147	89.46	12.418760	-57.058897	89.52	-0.290	-1.490	1.630	89.51	-2.70	2.10	 	 	 	 	 	 	 	 	 	 	 	 	 	 	 	 	 	 	1581519107	5.45	10.09
12/02/2020 14:51:48	120220	12022020	145148	89.80	12.418762	-57.058875	89.89	0.030	-1.580	1.280	89.89	-2.90	1.70	 	 	 	 	 	 	 	 	 	 	 	 	 	 	 	 	 	 	1581519108	4.71	8.72
12/02/2020 14:51:49	120220	12022020	145149	90.17	12.418762	-57.058857	90.21	0.240	-0.990	0.850	90.20	-2.30	1.30	 	 	 	 	 	 	 	 	 	 	 	 	 	 	 	 	 	 	1581519109	3.76	6.96
12/02/2020 14:51:50	120220	12022020	145150	90.11	12.418763	-57.058840	90.07	0.560	-0.610	0.860	90.03	-1.90	1.30	 	 	 	 	 	 	 	 	 	 	 	 	 	 	 	 	 	 	1581519110	3.67	6.80
12/02/2020 14:51:51	120220	12022020	145151	89.56	12.418763	-57.058818	89.49	0.890	-0.590	1.330	89.45	-1.80	1.70	 	 	 	 	 	 	 	 	 	 	 	 	 	 	 	 	 	 	1581519111	4.48	8.30
12/02/2020 14:51:52	120220	12022020	145152	89.06	12.418763	-57.058795	89.05	0.770	-0.120	1.570	89.01	-1.40	2.00	 	 	 	 	 	 	 	 	 	 	 	 	 	 	 	 	 	 	1581519112	4.80	8.89
12/02/2020 14:51:53	120220	12022020	145153	89.09	12.418767	-57.058778	89.17	-0.010	1.150	1.260	89.18	-0.20	1.70	 	 	 	 	 	 	 	 	 	 	 	 	 	 	 	 	 	 	1581519113	3.91	7.24
12/02/2020 14:51:54	120220	12022020	145154	89.67	12.418770	-57.058765	89.75	-1.030	2.220	0.790	89.81	0.90	1.30	 	 	 	 	 	 	 	 	 	 	 	 	 	 	 	 	 	 	1581519114	2.87	5.32
12/02/2020 14:51:55	120220	12022020	145155	90.29	12.418772	-57.058750	90.33	-1.440	1.510	0.560	90.37	0.30	1.00	 	 	 	 	 	 	 	 	 	 	 	 	 	 	 	 	 	 	1581519115	3.16	5.85
12/02/2020 14:51:56	120220	12022020	145156	90.57	12.418772	-57.058725	90.57	-0.690	-1.070	0.570	90.58	-2.20	1.00	 	 	 	 	 	 	 	 	 	 	 	 	 	 	 	 	 	 	1581519116	5.21	9.65
12/02/2020 14:51:57	120220	12022020	145157	90.45	12.418768	-57.058693	90.39	0.630	-3.350	0.970	90.39	-4.50	1.40	 	 	 	 	 	 	 	 	 	 	 	 	 	 	 	 	 	 	1581519117	6.78	12.56
12/02/2020 14:51:58	120220	12022020	145158	90.17	12.418767	-57.058667	90.13	1.410	-3.090	1.510	90.13	-4.40	1.90	 	 	 	 	 	 	 	 	 	 	 	 	 	 	 	 	 	 	1581519118	5.79	10.72
12/02/2020 14:51:59	120220	12022020	145159	90.09	12.418767	-57.058652	90.12	1.070	-0.560	1.760	90.11	-2.00	2.20	 	 	 	 	 	 	 	 	 	 	 	 	 	 	 	 	 	 	1581519119	3.12	5.78
12/02/2020 14:52:00	120220	12022020	145200	90.32	12.418767	-57.058643	90.39	0.030	1.850	1.610	90.40	0.50	2.10	 	 	 	 	 	 	 	 	 	 	 	 	 	 	 	 	 	 	1581519120	1.67	3.09
12/02/2020 14:52:01	120220	12022020	145201	90.67	12.418770	-57.058632	90.71	-0.910	2.410	1.220	90.72	1.10	1.70	 	 	 	 	 	 	 	 	 	 	 	 	 	 	 	 	 	 	1581519121	2.59	4.80
12/02/2020 14:52:02	120220	12022020	145202	90.81	12.418770	-57.058612	90.80	-1.190	1.300	0.940	90.80	0.10	1.40	1017.20	26.70	26.70	20.20	20.30	955.0	67.0	67.0	419.0	28.4	348.00	13.10	76.00	11.00	69521	13196.0	27.5	27.5	1581519122	4.33	8.02
12/02/2020 14:52:03	120220	12022020	145203	90.69	12.418770	-57.058585	90.64	-0.740	-0.300	0.840	90.64	-1.50	1.30	 	 	 	 	 	 	 	 	 	 	 	 	 	 	 	 	 	 	1581519123	5.34	9.89
12/02/2020 14:52:04	120220	12022020	145204	90.47	12.418772	-57.058560	90.44	0.060	-1.540	0.800	90.44	-2.80	1.30	 	 	 	 	 	 	 	 	 	 	 	 	 	 	 	 	 	 	1581519124	5.38	9.96
12/02/2020 14:52:05	120220	12022020	145205	90.46	12.418773	-57.058537	90.48	0.610	-1.910	0.670	90.50	-3.20	1.10	 	 	 	 	 	 	 	 	 	 	 	 	 	 	 	 	 	 	1581519125	4.96	9.19
12/02/2020 14:52:06	120220	12022020	145206	90.83	12.418775	-57.058518	90.91	0.600	-1.150	0.580	90.95	-2.50	1.00	 	 	 	 	 	 	 	 	 	 	 	 	 	 	 	 	 	 	1581519126	4.12	7.63
12/02/2020 14:52:07	120220	12022020	145207	91.41	12.418773	-57.058503	91.48	0.200	0.220	0.830	91.51	-1.10	1.20	 	 	 	 	 	 	 	 	 	 	 	 	 	 	 	 	 	 	1581519127	3.06	5.67
12/02/2020 14:52:08	120220	12022020	145208	91.63	12.418770	-57.058490	91.60	-0.140	1.090	1.450	91.59	-0.20	1.80	 	 	 	 	 	 	 	 	 	 	 	 	 	 	 	 	 	 	1581519128	2.86	5.30
12/02/2020 14:52:09	120220	12022020	145209	91.22	12.418767	-57.058473	91.14	-0.030	0.620	2.100	91.10	-0.60	2.50	 	 	 	 	 	 	 	 	 	 	 	 	 	 	 	 	 	 	1581519129	3.78	7.00
12/02/2020 14:52:10	120220	12022020	145210	90.68	12.418767	-57.058448	90.63	0.490	-0.780	2.340	90.59	-2.00	2.80	 	 	 	 	 	 	 	 	 	 	 	 	 	 	 	 	 	 	1581519130	5.19	9.61
12/02/2020 14:52:11	120220	12022020	145211	90.41	12.418768	-57.058420	90.43	0.870	-1.730	2.290	90.40	-3.00	2.70	 	 	 	 	 	 	 	 	 	 	 	 	 	 	 	 	 	 	1581519131	5.85	10.83
12/02/2020 14:52:12	120220	12022020	145212	90.53	12.418772	-57.058397	90.61	0.540	-1.080	1.950	90.60	-2.40	2.40	 	 	 	 	 	 	 	 	 	 	 	 	 	 	 	 	 	 	1581519132	4.95	9.17
12/02/2020 14:52:13	120220	12022020	145213	91.09	12.418773	-57.058383	91.23	-0.410	0.840	1.240	91.25	-0.60	1.70	 	 	 	 	 	 	 	 	 	 	 	 	 	 	 	 	 	 	1581519133	3.08	5.70
12/02/2020 14:52:14	120220	12022020	145214	91.94	12.418777	-57.058373	92.06	-1.350	2.340	0.380	92.09	1.00	0.90	 	 	 	 	 	 	 	 	 	 	 	 	 	 	 	 	 	 	1581519134	2.04	3.78
12/02/2020 14:52:15	120220	12022020	145215	92.48	12.418778	-57.058362	92.50	-1.630	1.950	0.010	92.48	0.70	0.50	 	 	 	 	 	 	 	 	 	 	 	 	 	 	 	 	 	 	1581519135	2.73	5.06
12/02/2020 14:52:16	120220	12022020	145216	92.40	12.418773	-57.058338	92.36	-0.890	-0.360	0.290	92.33	-1.50	0.70	 	 	 	 	 	 	 	 	 	 	 	 	 	 	 	 	 	 	1581519136	4.75	8.80
12/02/2020 14:52:17	120220	12022020	145217	91.95	12.418768	-57.058308	91.88	0.600	-2.980	0.760	91.85	-4.10	1.20	 	 	 	 	 	 	 	 	 	 	 	 	 	 	 	 	 	 	1581519137	6.47	11.98
12/02/2020 14:52:18	120220	12022020	145218	91.46	12.418767	-57.058280	91.44	1.860	-3.600	1.050	91.38	-4.90	1.50	 	 	 	 	 	 	 	 	 	 	 	 	 	 	 	 	 	 	1581519138	6.24	11.56
12/02/2020 14:52:19	120220	12022020	145219	91.25	12.418768	-57.058262	91.27	1.820	-1.470	0.980	91.25	-2.90	1.40	 	 	 	 	 	 	 	 	 	 	 	 	 	 	 	 	 	 	1581519139	3.90	7.22
12/02/2020 14:52:20	120220	12022020	145220	91.36	12.418773	-57.058253	91.41	0.490	1.590	0.810	91.42	0.10	1.30	 	 	 	 	 	 	 	 	 	 	 	 	 	 	 	 	 	 	1581519140	1.76	3.26
12/02/2020 14:52:21	120220	12022020	145221	91.63	12.418775	-57.058248	91.67	-1.010	3.120	0.590	91.69	1.80	1.00	 	 	 	 	 	 	 	 	 	 	 	 	 	 	 	 	 	 	1581519141	1.35	2.50
12/02/2020 14:52:22	120220	12022020	145222	91.88	12.418775	-57.058233	91.90	-1.530	2.220	0.360	91.92	1.00	0.80	 	 	 	 	 	 	 	 	 	 	 	 	 	 	 	 	 	 	1581519142	3.19	5.91
12/02/2020 14:52:23	120220	12022020	145223	92.02	12.418773	-57.058208	92.02	-0.940	0.000	0.400	92.02	-1.20	0.80	 	 	 	 	 	 	 	 	 	 	 	 	 	 	 	 	 	 	1581519143	5.22	9.67
12/02/2020 14:52:24	120220	12022020	145224	91.97	12.418770	-57.058180	91.96	0.020	-1.930	0.880	91.95	-3.10	1.30	 	 	 	 	 	 	 	 	 	 	 	 	 	 	 	 	 	 	1581519144	5.81	10.76
12/02/2020 14:52:25	120220	12022020	145225	91.85	12.418767	-57.058157	91.84	0.600	-2.470	1.440	91.82	-3.80	1.80	 	 	 	 	 	 	 	 	 	 	 	 	 	 	 	 	 	 	1581519145	5.09	9.43
12/02/2020 14:52:26	120220	12022020	145226	91.67	12.418762	-57.058140	91.65	0.630	-1.560	1.900	91.62	-2.90	2.30	 	 	 	 	 	 	 	 	 	 	 	 	 	 	 	 	 	 	1581519146	3.74	6.93
12/02/2020 14:52:27	120220	12022020	145227	91.36	12.418758	-57.058128	91.33	0.390	-0.040	2.310	91.29	-1.40	2.70	 	 	 	 	 	 	 	 	 	 	 	 	 	 	 	 	 	 	1581519147	2.79	5.17
12/02/2020 14:52:28	120220	12022020	145228	91.08	12.418757	-57.058115	91.08	0.190	1.020	2.260	91.06	-0.30	2.70	 	 	 	 	 	 	 	 	 	 	 	 	 	 	 	 	 	 	1581519148	2.66	4.93
12/02/2020 14:52:29	120220	12022020	145229	91.04	12.418758	-57.058098	91.05	0.100	1.030	1.530	91.04	-0.20	2.00	 	 	 	 	 	 	 	 	 	 	 	 	 	 	 	 	 	 	1581519149	3.46	6.41
12/02/2020 14:52:30	120220	12022020	145230	91.03	12.418765	-57.058078	91.01	0.110	0.240	0.610	91.02	-1.00	1.10	 	 	 	 	 	 	 	 	 	 	 	 	 	 	 	 	 	 	1581519150	4.56	8.45
12/02/2020 14:52:31	120220	12022020	145231	91.03	12.418772	-57.058057	91.02	0.110	-0.530	-0.030	91.06	-1.80	0.40	 	 	 	 	 	 	 	 	 	 	 	 	 	 	 	 	 	 	1581519151	4.96	9.19
12/02/2020 14:52:32	120220	12022020	145232	91.21	12.418775	-57.058035	91.22	-0.020	-0.690	-0.290	91.25	-2.00	0.20	 	 	 	 	 	 	 	 	 	 	 	 	 	 	 	 	 	 	1581519152	4.41	8.17
12/02/2020 14:52:33	120220	12022020	145233	91.35	12.418775	-57.058018	91.32	-0.290	-0.470	-0.020	91.35	-1.80	0.40	 	 	 	 	 	 	 	 	 	 	 	 	 	 	 	 	 	 	1581519153	3.69	6.83
12/02/2020 14:52:34	120220	12022020	145234	91.31	12.418770	-57.058002	91.28	-0.530	-0.190	0.580	91.29	-1.50	1.00	 	 	 	 	 	 	 	 	 	 	 	 	 	 	 	 	 	 	1581519154	3.61	6.69
12/02/2020 14:52:35	120220	12022020	145235	91.21	12.418765	-57.057985	91.19	-0.510	0.020	1.380	91.19	-1.30	1.80	 	 	 	 	 	 	 	 	 	 	 	 	 	 	 	 	 	 	1581519155	3.77	6.98
12/02/2020 14:52:36	120220	12022020	145236	91.10	12.418758	-57.057967	91.08	-0.040	-0.080	2.030	91.07	-1.40	2.40	 	 	 	 	 	 	 	 	 	 	 	 	 	 	 	 	 	 	1581519156	3.90	7.22
12/02/2020 14:52:37	120220	12022020	145237	90.89	12.418757	-57.057947	90.87	0.770	-0.640	2.290	90.85	-1.90	2.70	 	 	 	 	 	 	 	 	 	 	 	 	 	 	 	 	 	 	1581519157	4.26	7.89
12/02/2020 14:52:38	120220	12022020	145238	90.75	12.418758	-57.057925	90.77	1.370	-1.210	2.090	90.75	-2.50	2.50	 	 	 	 	 	 	 	 	 	 	 	 	 	 	 	 	 	 	1581519158	4.91	9.09
12/02/2020 14:52:39	120220	12022020	145239	90.87	12.418762	-57.057902	90.95	1.190	-0.910	1.680	90.87	-2.20	2.10	 	 	 	 	 	 	 	 	 	 	 	 	 	 	 	 	 	 	1581519159	4.81	8.91
12/02/2020 14:52:40	120220	12022020	145240	91.24	12.418765	-57.057885	91.32	0.210	0.400	1.250	91.31	-1.00	1.70	 	 	 	 	 	 	 	 	 	 	 	 	 	 	 	 	 	 	1581519160	3.55	6.57
12/02/2020 14:52:41	120220	12022020	145241	91.57	12.418767	-57.057873	91.61	-0.990	1.780	0.960	91.61	0.40	1.40	 	 	 	 	 	 	 	 	 	 	 	 	 	 	 	 	 	 	1581519161	2.42	4.48
12/02/2020 14:52:42	120220	12022020	145242	91.69	12.418767	-57.057863	91.71	-1.690	2.040	0.930	91.70	0.80	1.40	 	 	 	 	 	 	 	 	 	 	 	 	 	 	 	 	 	 	1581519162	2.39	4.43
12/02/2020 14:52:43	120220	12022020	145243	91.67	12.418765	-57.057845	91.67	-1.390	0.600	1.000	91.66	-0.60	1.40	 	 	 	 	 	 	 	 	 	 	 	 	 	 	 	 	 	 	1581519163	3.71	6.87
12/02/2020 14:52:44	120220	12022020	145244	91.59	12.418763	-57.057820	91.57	-0.320	-1.620	1.070	91.58	-2.80	1.50	 	 	 	 	 	 	 	 	 	 	 	 	 	 	 	 	 	 	1581519164	5.27	9.76
12/02/2020 14:52:45	120220	12022020	145245	91.50	12.418760	-57.057793	91.47	0.850	-2.980	1.160	91.47	-4.20	1.60	 	 	 	 	 	 	 	 	 	 	 	 	 	 	 	 	 	 	1581519165	5.68	10.52
12/02/2020 14:52:46	120220	12022020	145246	91.28	12.418760	-57.057772	91.22	1.500	-2.500	1.220	91.20	-3.90	1.60	 	 	 	 	 	 	 	 	 	 	 	 	 	 	 	 	 	 	1581519166	4.59	8.50
12/02/2020 14:52:47	120220	12022020	145247	90.83	12.418760	-57.057757	90.75	1.400	-0.820	1.350	90.73	-2.20	1.80	 	 	 	 	 	 	 	 	 	 	 	 	 	 	 	 	 	 	1581519167	3.16	5.85
12/02/2020 14:52:48	120220	12022020	145248	90.43	12.418762	-57.057745	90.40	0.700	0.820	1.400	90.39	-0.50	1.80	 	 	 	 	 	 	 	 	 	 	 	 	 	 	 	 	 	 	1581519168	2.68	4.96
12/02/2020 14:52:49	120220	12022020	145249	90.41	12.418765	-57.057730	90.43	-0.180	1.720	1.070	90.46	0.40	1.50	 	 	 	 	 	 	 	 	 	 	 	 	 	 	 	 	 	 	1581519169	3.07	5.69
12/02/2020 14:52:50	120220	12022020	145250	90.69	12.418768	-57.057713	90.73	-0.830	1.840	0.570	90.76	0.60	1.00	 	 	 	 	 	 	 	 	 	 	 	 	 	 	 	 	 	 	1581519170	3.65	6.76
12/02/2020 14:52:51	120220	12022020	145251	91.01	12.418772	-57.057695	91.02	-1.120	1.290	0.270	91.06	0.00	0.70	 	 	 	 	 	 	 	 	 	 	 	 	 	 	 	 	 	 	1581519171	3.93	7.28
12/02/2020 14:52:52	120220	12022020	145252	91.22	12.418770	-57.057675	91.22	-1.030	0.100	0.370	91.24	-1.10	0.80	 	 	 	 	 	 	 	 	 	 	 	 	 	 	 	 	 	 	1581519172	4.19	7.76
12/02/2020 14:52:53	120220	12022020	145253	91.25	12.418767	-57.057653	91.22	-0.520	-1.380	0.840	91.22	-2.60	1.20	 	 	 	 	 	 	 	 	 	 	 	 	 	 	 	 	 	 	1581519173	4.69	8.69
12/02/2020 14:52:54	120220	12022020	145254	90.95	12.418762	-57.057630	90.89	0.240	-2.320	1.630	90.85	-3.60	2.00	 	 	 	 	 	 	 	 	 	 	 	 	 	 	 	 	 	 	1581519174	4.99	9.24
12/02/2020 14:52:55	120220	12022020	145255	90.40	12.418757	-57.057610	90.34	0.800	-2.030	2.360	90.30	-3.30	2.70	 	 	 	 	 	 	 	 	 	 	 	 	 	 	 	 	 	 	1581519175	4.45	8.24
12/02/2020 14:52:56	120220	12022020	145256	89.98	12.418753	-57.057593	89.97	0.910	-0.840	2.480	89.93	-2.20	2.90	 	 	 	 	 	 	 	 	 	 	 	 	 	 	 	 	 	 	1581519176	3.43	6.35
12/02/2020 14:52:57	120220	12022020	145257	89.87	12.418757	-57.057580	89.90	0.660	0.310	1.810	89.89	-1.00	2.30	 	 	 	 	 	 	 	 	 	 	 	 	 	 	 	 	 	 	1581519177	3.15	5.83
12/02/2020 14:52:58	120220	12022020	145258	90.00	12.418765	-57.057563	90.03	0.270	0.910	0.900	90.04	-0.40	1.40	 	 	 	 	 	 	 	 	 	 	 	 	 	 	 	 	 	 	1581519178	3.79	7.02
12/02/2020 14:52:59	120220	12022020	145259	90.19	12.418770	-57.057545	90.19	-0.210	1.110	0.220	90.22	-0.20	0.70	 	 	 	 	 	 	 	 	 	 	 	 	 	 	 	 	 	 	1581519179	4.10	7.59
12/02/2020 14:53:00	120220	12022020	145300	90.31	12.418773	-57.057527	90.30	-0.630	0.850	-0.160	90.31	-0.40	0.30	 	 	 	 	 	 	 	 	 	 	 	 	 	 	 	 	 	 	1581519180	4.01	7.43
12/02/2020 14:53:01	120220	12022020	145301	90.30	12.418773	-57.057507	90.28	-0.730	0.050	-0.170	90.29	-1.20	0.20	 	 	 	 	 	 	 	 	 	 	 	 	 	 	 	 	 	 	1581519181	4.26	7.89
12/02/2020 14:53:02	120220	12022020	145302	90.24	12.418772	-57.057485	90.24	-0.460	-0.760	0.170	90.23	-2.00	0.60	1017.10	26.70	26.70	20.20	20.30	905.0	67.0	67.0	420.0	28.6	348.00	13.00	77.00	11.00	66266	11569.0	27.5	27.5	1581519182	4.56	8.45
12/02/2020 14:53:03	120220	12022020	145303	90.25	12.418770	-57.057463	90.28	0.010	-1.200	0.700	90.27	-2.50	1.10	 	 	 	 	 	 	 	 	 	 	 	 	 	 	 	 	 	 	1581519183	4.38	8.11
12/02/2020 14:53:04	120220	12022020	145304	90.36	12.418768	-57.057445	90.39	0.510	-1.310	1.080	90.39	-2.60	1.50	 	 	 	 	 	 	 	 	 	 	 	 	 	 	 	 	 	 	1581519184	4.21	7.80
12/02/2020 14:53:05	120220	12022020	145305	90.39	12.418767	-57.057425	90.38	0.800	-1.020	1.490	90.39	-2.30	1.90	 	 	 	 	 	 	 	 	 	 	 	 	 	 	 	 	 	 	1581519185	4.19	7.76
12/02/2020 14:53:06	120220	12022020	145306	90.34	12.418767	-57.057407	90.37	0.550	-0.080	1.930	90.36	-1.40	2.30	 	 	 	 	 	 	 	 	 	 	 	 	 	 	 	 	 	 	1581519186	3.87	7.17
12/02/2020 14:53:07	120220	12022020	145307	90.54	12.418767	-57.057392	90.62	-0.230	1.070	2.250	90.60	-0.30	2.60	 	 	 	 	 	 	 	 	 	 	 	 	 	 	 	 	 	 	1581519187	3.11	5.76
12/02/2020 14:53:08	120220	12022020	145308	90.84	12.418765	-57.057377	90.91	-1.000	1.420	2.380	90.88	0.10	2.80	 	 	 	 	 	 	 	 	 	 	 	 	 	 	 	 	 	 	1581519188	2.98	5.52
12/02/2020 14:53:09	120220	12022020	145309	90.95	12.418763	-57.057360	90.98	-1.070	0.530	2.270	90.93	-0.70	2.70	 	 	 	 	 	 	 	 	 	 	 	 	 	 	 	 	 	 	1581519189	3.88	7.19
12/02/2020 14:53:10	120220	12022020	145310	90.73	12.418762	-57.057335	90.71	-0.210	-1.090	2.140	90.66	-2.30	2.50	 	 	 	 	 	 	 	 	 	 	 	 	 	 	 	 	 	 	1581519190	5.07	9.39
12/02/2020 14:53:11	120220	12022020	145311	90.37	12.418762	-57.057308	90.36	0.880	-2.140	2.010	90.31	-3.40	2.40	 	 	 	 	 	 	 	 	 	 	 	 	 	 	 	 	 	 	1581519191	5.62	10.41
12/02/2020 14:53:12	120220	12022020	145312	90.25	12.418765	-57.057287	90.30	1.250	-1.640	1.580	90.28	-3.00	2.00	 	 	 	 	 	 	 	 	 	 	 	 	 	 	 	 	 	 	1581519192	4.81	8.91
12/02/2020 14:53:13	120220	12022020	145313	90.52	12.418770	-57.057272	90.61	0.650	0.010	0.810	90.60	-1.40	1.30	 	 	 	 	 	 	 	 	 	 	 	 	 	 	 	 	 	 	1581519193	3.40	6.30
12/02/2020 14:53:14	120220	12022020	145314	91.02	12.418777	-57.057260	91.10	-0.370	1.470	0.020	91.13	0.10	0.50	 	 	 	 	 	 	 	 	 	 	 	 	 	 	 	 	 	 	1581519194	2.74	5.07
12/02/2020 14:53:15	120220	12022020	145315	91.56	12.418782	-57.057247	91.62	-1.000	1.640	-0.440	91.65	0.40	0.00	 	 	 	 	 	 	 	 	 	 	 	 	 	 	 	 	 	 	1581519195	2.98	5.52
12/02/2020 14:53:16	120220	12022020	145316	91.82	12.418780	-57.057227	91.82	-0.850	0.430	-0.250	91.80	-0.80	0.10	 	 	 	 	 	 	 	 	 	 	 	 	 	 	 	 	 	 	1581519196	4.26	7.89
12/02/2020 14:53:17	120220	12022020	145317	91.53	12.418775	-57.057202	91.46	-0.200	-1.030	0.480	91.43	-2.30	0.90	 	 	 	 	 	 	 	 	 	 	 	 	 	 	 	 	 	 	1581519197	5.38	9.96
12/02/2020 14:53:18	120220	12022020	145318	91.06	12.418772	-57.057178	91.01	0.340	-1.610	1.200	90.99	-2.90	1.60	 	 	 	 	 	 	 	 	 	 	 	 	 	 	 	 	 	 	1581519198	5.15	9.54
12/02/2020 14:53:19	120220	12022020	145319	90.84	12.418770	-57.057158	90.85	0.430	-1.170	1.580	90.82	-2.50	2.00	 	 	 	 	 	 	 	 	 	 	 	 	 	 	 	 	 	 	1581519199	4.08	7.56
12/02/2020 14:53:20	120220	12022020	145320	90.79	12.418770	-57.057143	90.83	0.190	-0.340	1.690	90.80	-1.70	2.10	 	 	 	 	 	 	 	 	 	 	 	 	 	 	 	 	 	 	1581519200	3.34	6.19
12/02/2020 14:53:21	120220	12022020	145321	90.88	12.418772	-57.057127	90.93	-0.120	0.300	1.680	90.92	-1.00	2.10	 	 	 	 	 	 	 	 	 	 	 	 	 	 	 	 	 	 	1581519201	3.36	6.22
12/02/2020 14:53:22	120220	12022020	145322	91.14	12.418772	-57.057110	91.19	-0.350	0.570	1.560	91.20	-0.70	2.00	 	 	 	 	 	 	 	 	 	 	 	 	 	 	 	 	 	 	1581519202	3.70	6.85
12/02/2020 14:53:23	120220	12022020	145323	91.37	12.418770	-57.057090	91.38	-0.420	0.450	1.350	91.38	-0.80	1.80	 	 	 	 	 	 	 	 	 	 	 	 	 	 	 	 	 	 	1581519203	4.00	7.41
12/02/2020 14:53:24	120220	12022020	145324	91.34	12.418768	-57.057070	91.30	-0.250	0.040	1.230	91.31	-1.20	1.60	 	 	 	 	 	 	 	 	 	 	 	 	 	 	 	 	 	 	1581519204	4.25	7.87
12/02/2020 14:53:25	120220	12022020	145325	91.15	12.418768	-57.057050	91.10	0.220	-0.560	1.110	91.11	-1.80	1.50	 	 	 	 	 	 	 	 	 	 	 	 	 	 	 	 	 	 	1581519205	4.48	8.30
12/02/2020 14:53:26	120220	12022020	145326	90.98	12.418770	-57.057027	90.96	0.750	-0.970	0.850	90.97	-2.30	1.30	 	 	 	 	 	 	 	 	 	 	 	 	 	 	 	 	 	 	1581519206	4.73	8.76
12/02/2020 14:53:27	120220	12022020	145327	90.98	12.418775	-57.057007	90.98	0.740	-0.630	0.540	91.00	-2.00	1.00	 	 	 	 	 	 	 	 	 	 	 	 	 	 	 	 	 	 	1581519207	4.47	8.28
12/02/2020 14:53:28	120220	12022020	145328	91.08	12.418780	-57.056990	91.08	0.120	0.140	0.460	91.10	-1.20	0.90	 	 	 	 	 	 	 	 	 	 	 	 	 	 	 	 	 	 	1581519208	3.57	6.61
12/02/2020 14:53:29	120220	12022020	145329	91.11	12.418780	-57.056975	91.09	-0.520	0.420	0.630	91.10	-0.90	1.00	 	 	 	 	 	 	 	 	 	 	 	 	 	 	 	 	 	 	1581519209	3.28	6.07
12/02/2020 14:53:30	120220	12022020	145330	91.02	12.418778	-57.056955	91.00	-0.560	-0.010	1.000	91.00	-1.30	1.40	 	 	 	 	 	 	 	 	 	 	 	 	 	 	 	 	 	 	1581519210	4.10	7.59
12/02/2020 14:53:31	120220	12022020	145331	91.01	12.418775	-57.056933	91.03	-0.100	-0.550	1.390	91.03	-1.80	1.80	 	 	 	 	 	 	 	 	 	 	 	 	 	 	 	 	 	 	1581519211	4.79	8.87
12/02/2020 14:53:32	120220	12022020	145332	91.19	12.418773	-57.056912	91.24	0.260	-0.650	1.610	91.23	-2.00	2.00	 	 	 	 	 	 	 	 	 	 	 	 	 	 	 	 	 	 	1581519212	4.65	8.61
12/02/2020 14:53:33	120220	12022020	145333	91.40	12.418772	-57.056892	91.44	0.130	-0.350	1.690	91.42	-1.70	2.10	 	 	 	 	 	 	 	 	 	 	 	 	 	 	 	 	 	 	1581519213	4.07	7.54
12/02/2020 14:53:34	120220	12022020	145334	91.45	12.418770	-57.056875	91.46	-0.260	0.070	1.830	91.43	-1.30	2.20	 	 	 	 	 	 	 	 	 	 	 	 	 	 	 	 	 	 	1581519214	3.71	6.87
12/02/2020 14:53:35	120220	12022020	145335	91.28	12.418768	-57.056857	91.27	-0.490	0.360	2.000	91.23	-1.00	2.40	 	 	 	 	 	 	 	 	 	 	 	 	 	 	 	 	 	 	1581519215	3.72	6.89
12/02/2020 14:53:36	120220	12022020	145336	91.06	12.418767	-57.056838	91.04	-0.410	0.420	1.820	91.03	-0.90	2.20	 	 	 	 	 	 	 	 	 	 	 	 	 	 	 	 	 	 	1581519216	3.82	7.07
12/02/2020 14:53:37	120220	12022020	145337	90.97	12.418768	-57.056820	90.97	-0.030	0.050	1.190	90.98	-1.20	1.70	 	 	 	 	 	 	 	 	 	 	 	 	 	 	 	 	 	 	1581519217	4.11	7.61
12/02/2020 14:53:38	120220	12022020	145338	91.02	12.418775	-57.056798	91.04	0.490	-0.830	0.430	91.04	-2.10	0.90	 	 	 	 	 	 	 	 	 	 	 	 	 	 	 	 	 	 	1581519218	4.81	8.91
12/02/2020 14:53:39	120220	12022020	145339	91.18	12.418782	-57.056773	91.18	0.880	-1.620	-0.150	91.23	-2.90	0.30	 	 	 	 	 	 	 	 	 	 	 	 	 	 	 	 	 	 	1581519219	5.38	9.96
12/02/2020 14:53:40	120220	12022020	145340	91.42	12.418785	-57.056750	91.45	0.840	-1.370	-0.160	91.47	-2.70	0.20	 	 	 	 	 	 	 	 	 	 	 	 	 	 	 	 	 	 	1581519220	4.96	9.19
12/02/2020 14:53:41	120220	12022020	145341	91.59	12.418783	-57.056733	91.58	0.280	0.040	0.440	91.60	-1.40	0.80	 	 	 	 	 	 	 	 	 	 	 	 	 	 	 	 	 	 	1581519221	3.68	6.82
12/02/2020 14:53:42	120220	12022020	145342	91.51	12.418778	-57.056720	91.46	-0.530	1.470	1.340	91.45	0.10	1.70	 	 	 	 	 	 	 	 	 	 	 	 	 	 	 	 	 	 	1581519222	2.87	5.32
12/02/2020 14:53:43	120220	12022020	145343	91.12	12.418773	-57.056707	91.10	-1.140	1.730	2.140	91.04	0.40	2.50	 	 	 	 	 	 	 	 	 	 	 	 	 	 	 	 	 	 	1581519223	3.21	5.94
12/02/2020 14:53:44	120220	12022020	145344	90.85	12.418768	-57.056687	90.89	-1.180	0.680	2.560	90.84	-0.50	3.00	 	 	 	 	 	 	 	 	 	 	 	 	 	 	 	 	 	 	1581519224	4.31	7.98
12/02/2020 14:53:45	120220	12022020	145345	90.92	12.418767	-57.056662	91.00	-0.570	-0.770	2.510	90.97	-2.00	2.90	 	 	 	 	 	 	 	 	 	 	 	 	 	 	 	 	 	 	1581519225	5.12	9.48
12/02/2020 14:53:46	120220	12022020	145346	91.20	12.418768	-57.056638	91.29	0.380	-1.840	2.070	91.25	-3.10	2.50	 	 	 	 	 	 	 	 	 	 	 	 	 	 	 	 	 	 	1581519226	5.16	9.56
12/02/2020 14:53:47	120220	12022020	145347	91.40	12.418770	-57.056615	91.44	1.200	-2.150	1.620	91.41	-3.40	2.10	 	 	 	 	 	 	 	 	 	 	 	 	 	 	 	 	 	 	1581519227	4.93	9.13
12/02/2020 14:53:48	120220	12022020	145348	91.35	12.418773	-57.056593	91.36	1.420	-1.600	1.520	91.31	-2.90	1.90	 	 	 	 	 	 	 	 	 	 	 	 	 	 	 	 	 	 	1581519228	4.55	8.43
12/02/2020 14:53:49	120220	12022020	145349	91.18	12.418773	-57.056575	91.20	0.840	-0.180	1.620	91.16	-1.60	2.00	 	 	 	 	 	 	 	 	 	 	 	 	 	 	 	 	 	 	1581519229	3.92	7.26
12/02/2020 14:53:50	120220	12022020	145350	91.14	12.418773	-57.056560	91.18	-0.270	1.630	1.550	91.14	0.20	2.00	 	 	 	 	 	 	 	 	 	 	 	 	 	 	 	 	 	 	1581519230	2.96	5.48
12/02/2020 14:53:51	120220	12022020	145351	91.19	12.418775	-57.056548	91.22	-1.340	2.750	1.250	91.20	1.40	1.70	 	 	 	 	 	 	 	 	 	 	 	 	 	 	 	 	 	 	1581519231	2.47	4.57
12/02/2020 14:53:52	120220	12022020	145352	91.29	12.418777	-57.056533	91.33	-1.680	2.100	0.760	91.31	0.90	1.20	 	 	 	 	 	 	 	 	 	 	 	 	 	 	 	 	 	 	1581519232	3.14	5.82
12/02/2020 14:53:53	120220	12022020	145353	91.38	12.418778	-57.056512	91.38	-0.970	-0.280	0.240	91.38	-1.40	0.70	 	 	 	 	 	 	 	 	 	 	 	 	 	 	 	 	 	 	1581519233	4.89	9.06
12/02/2020 14:53:54	120220	12022020	145354	91.38	12.418780	-57.056482	91.37	0.290	-2.800	-0.030	91.37	-4.00	0.40	 	 	 	 	 	 	 	 	 	 	 	 	 	 	 	 	 	 	1581519234	6.23	11.54
12/02/2020 14:53:55	120220	12022020	145355	91.32	12.418780	-57.056453	91.32	1.220	-3.560	0.150	91.32	-4.80	0.60	 	 	 	 	 	 	 	 	 	 	 	 	 	 	 	 	 	 	1581519235	5.90	10.93
12/02/2020 14:53:56	120220	12022020	145356	91.26	12.418778	-57.056435	91.28	1.240	-2.060	0.650	91.26	-3.50	1.00	 	 	 	 	 	 	 	 	 	 	 	 	 	 	 	 	 	 	1581519236	4.03	7.46
12/02/2020 14:53:57	120220	12022020	145357	91.30	12.418777	-57.056423	91.33	0.540	0.330	1.170	91.31	-1.10	1.60	 	 	 	 	 	 	 	 	 	 	 	 	 	 	 	 	 	 	1581519237	2.37	4.39
12/02/2020 14:53:58	120220	12022020	145358	91.38	12.418773	-57.056413	91.41	-0.220	1.970	1.410	91.40	0.60	1.80	 	 	 	 	 	 	 	 	 	 	 	 	 	 	 	 	 	 	1581519238	2.20	4.07
12/02/2020 14:53:59	120220	12022020	145359	91.42	12.418773	-57.056398	91.44	-0.540	2.040	1.470	91.42	0.80	1.90	 	 	 	 	 	 	 	 	 	 	 	 	 	 	 	 	 	 	1581519239	3.27	6.06
12/02/2020 14:54:00	120220	12022020	145400	91.36	12.418773	-57.056377	91.38	-0.440	0.950	1.590	91.35	-0.30	2.00	 	 	 	 	 	 	 	 	 	 	 	 	 	 	 	 	 	 	1581519240	4.65	8.61
12/02/2020 14:54:01	120220	12022020	145401	91.33	12.418773	-57.056352	91.36	-0.270	-0.240	1.620	91.34	-1.50	2.00	 	 	 	 	 	 	 	 	 	 	 	 	 	 	 	 	 	 	1581519241	5.10	9.45
12/02/2020 14:54:02	120220	12022020	145402	91.40	12.418773	-57.056330	91.45	-0.240	-0.910	1.440	91.41	-2.20	1.90	1017.20	26.70	26.80	20.30	20.30	855.0	67.0	67.0	420.0	28.7	344.00	13.00	73.00	11.00	63947	13467.0	27.5	27.5	1581519242	4.64	8.59
12/02/2020 14:54:03	120220	12022020	145403	91.47	12.418775	-57.056312	91.49	-0.240	-1.080	1.310	91.48	-2.40	1.70	 	 	 	 	 	 	 	 	 	 	 	 	 	 	 	 	 	 	1581519243	4.03	7.46
12/02/2020 14:54:04	120220	12022020	145404	91.45	12.418775	-57.056293	91.45	-0.120	-1.010	1.460	91.42	-2.30	1.90	 	 	 	 	 	 	 	 	 	 	 	 	 	 	 	 	 	 	1581519244	3.80	7.04
12/02/2020 14:54:05	120220	12022020	145405	91.24	12.418772	-57.056275	91.21	0.110	-0.830	1.880	91.17	-2.10	2.30	 	 	 	 	 	 	 	 	 	 	 	 	 	 	 	 	 	 	1581519245	3.91	7.24
12/02/2020 14:54:06	120220	12022020	145406	90.90	12.418768	-57.056257	90.88	0.380	-0.620	2.000	90.83	-1.90	2.40	 	 	 	 	 	 	 	 	 	 	 	 	 	 	 	 	 	 	1581519246	4.05	7.50
12/02/2020 14:54:07	120220	12022020	145407	90.62	12.418770	-57.056237	90.63	0.640	-0.380	1.600	90.59	-1.70	2.00	 	 	 	 	 	 	 	 	 	 	 	 	 	 	 	 	 	 	1581519247	4.21	7.80
12/02/2020 14:54:08	120220	12022020	145408	90.58	12.418775	-57.056217	90.62	0.740	-0.070	0.870	90.61	-1.40	1.30	 	 	 	 	 	 	 	 	 	 	 	 	 	 	 	 	 	 	1581519248	4.41	8.17
12/02/2020 14:54:09	120220	12022020	145409	90.82	12.418782	-57.056197	90.87	0.530	0.230	0.100	90.90	-1.10	0.60	 	 	 	 	 	 	 	 	 	 	 	 	 	 	 	 	 	 	1581519249	4.49	8.32
12/02/2020 14:54:10	120220	12022020	145410	91.36	12.418787	-57.056177	91.43	-0.110	0.730	-0.300	91.50	-0.60	0.10	 	 	 	 	 	 	 	 	 	 	 	 	 	 	 	 	 	 	1581519250	4.21	7.80
12/02/2020 14:54:11	120220	12022020	145411	92.10	12.418787	-57.056162	92.16	-0.950	1.260	-0.150	92.23	-0.10	0.30	 	 	 	 	 	 	 	 	 	 	 	 	 	 	 	 	 	 	1581519251	3.36	6.22
12/02/2020 14:54:12	120220	12022020	145412	92.53	12.418782	-57.056147	92.52	-1.380	1.040	0.600	92.54	-0.20	1.00	 	 	 	 	 	 	 	 	 	 	 	 	 	 	 	 	 	 	1581519252	3.31	6.13
12/02/2020 14:54:13	120220	12022020	145413	92.34	12.418773	-57.056127	92.29	-0.920	-0.360	1.760	92.24	-1.60	2.10	 	 	 	 	 	 	 	 	 	 	 	 	 	 	 	 	 	 	1581519253	4.47	8.28
12/02/2020 14:54:14	120220	12022020	145414	91.76	12.418765	-57.056102	91.73	0.230	-2.110	2.880	91.64	-3.30	3.20	 	 	 	 	 	 	 	 	 	 	 	 	 	 	 	 	 	 	1581519254	5.63	10.43
12/02/2020 14:54:15	120220	12022020	145415	91.28	12.418760	-57.056075	91.33	1.270	-2.810	3.420	91.23	-4.10	3.80	 	 	 	 	 	 	 	 	 	 	 	 	 	 	 	 	 	 	1581519255	5.65	10.46
12/02/2020 14:54:16	120220	12022020	145416	91.23	12.418762	-57.056055	91.34	1.470	-1.760	3.130	91.27	-3.10	3.60	 	 	 	 	 	 	 	 	 	 	 	 	 	 	 	 	 	 	1581519256	4.45	8.24
12/02/2020 14:54:17	120220	12022020	145417	91.53	12.418768	-57.056040	91.65	0.720	0.310	2.140	91.61	-1.10	2.60	 	 	 	 	 	 	 	 	 	 	 	 	 	 	 	 	 	 	1581519257	3.19	5.91
12/02/2020 14:54:18	120220	12022020	145418	91.96	12.418775	-57.056030	92.05	-0.430	2.020	0.830	92.05	0.60	1.30	 	 	 	 	 	 	 	 	 	 	 	 	 	 	 	 	 	 	1581519258	2.80	5.19
12/02/2020 14:54:19	120220	12022020	145419	92.42	12.418780	-57.056015	92.48	-1.280	2.470	-0.330	92.42	1.20	0.10	 	 	 	 	 	 	 	 	 	 	 	 	 	 	 	 	 	 	1581519259	3.13	5.80
12/02/2020 14:54:20	120220	12022020	145420	92.68	12.418783	-57.055997	92.68	-1.370	1.300	-0.880	92.69	0.10	-0.40	 	 	 	 	 	 	 	 	 	 	 	 	 	 	 	 	 	 	1581519260	4.03	7.46
12/02/2020 14:54:21	120220	12022020	145421	92.61	12.418782	-57.055972	92.57	-0.620	-0.960	-0.850	92.57	-2.10	-0.40	 	 	 	 	 	 	 	 	 	 	 	 	 	 	 	 	 	 	1581519261	5.36	9.93
12/02/2020 14:54:22	120220	12022020	145422	92.34	12.418777	-57.055943	92.29	0.520	-2.750	-0.550	92.28	-4.00	-0.10	 	 	 	 	 	 	 	 	 	 	 	 	 	 	 	 	 	 	1581519262	6.13	11.35
12/02/2020 14:54:23	120220	12022020	145423	92.00	12.418775	-57.055918	91.94	1.280	-2.520	-0.140	91.93	-3.90	0.30	 	 	 	 	 	 	 	 	 	 	 	 	 	 	 	 	 	 	1581519263	5.16	9.56
12/02/2020 14:54:24	120220	12022020	145424	91.69	12.418773	-57.055903	91.63	1.150	-0.640	0.180	91.64	-2.10	0.60	 	 	 	 	 	 	 	 	 	 	 	 	 	 	 	 	 	 	1581519264	3.16	5.85
12/02/2020 14:54:25	120220	12022020	145425	91.47	12.418775	-57.055893	91.42	0.330	1.080	0.500	91.43	-0.30	0.90	 	 	 	 	 	 	 	 	 	 	 	 	 	 	 	 	 	 	1581519265	2.23	4.13
12/02/2020 14:54:26	120220	12022020	145426	91.38	12.418777	-57.055880	91.38	-0.590	1.580	0.940	91.40	0.30	1.30	 	 	 	 	 	 	 	 	 	 	 	 	 	 	 	 	 	 	1581519266	2.93	5.43
12/02/2020 14:54:27	120220	12022020	145427	91.60	12.418773	-57.055860	91.66	-1.190	1.230	1.390	91.67	-0.00	1.80	 	 	 	 	 	 	 	 	 	 	 	 	 	 	 	 	 	 	1581519267	3.99	7.39
12/02/2020 14:54:28	120220	12022020	145428	91.90	12.418768	-57.055842	91.93	-1.210	0.550	1.890	91.92	-0.70	2.30	 	 	 	 	 	 	 	 	 	 	 	 	 	 	 	 	 	 	1581519268	4.31	7.98
12/02/2020 14:54:29	120220	12022020	145429	91.80	12.418762	-57.055820	91.78	-0.560	-0.650	2.640	91.72	-1.90	3.00	 	 	 	 	 	 	 	 	 	 	 	 	 	 	 	 	 	 	1581519269	4.62	8.56
12/02/2020 14:54:30	120220	12022020	145430	91.27	12.418755	-57.055797	91.24	0.550	-2.060	3.380	91.14	-3.30	3.70	 	 	 	 	 	 	 	 	 	 	 	 	 	 	 	 	 	 	1581519270	5.28	9.78
12/02/2020 14:54:31	120220	12022020	145431	90.69	12.418752	-57.055772	90.71	1.490	-2.530	3.670	90.69	-3.80	4.10	 	 	 	 	 	 	 	 	 	 	 	 	 	 	 	 	 	 	1581519271	5.42	10.04
12/02/2020 14:54:32	120220	12022020	145432	90.46	12.418752	-57.055750	90.55	1.570	-1.370	3.220	90.48	-2.80	3.70	 	 	 	 	 	 	 	 	 	 	 	 	 	 	 	 	 	 	1581519272	4.38	8.11
12/02/2020 14:54:33	120220	12022020	145433	90.72	12.418758	-57.055737	90.83	0.710	0.690	2.140	90.81	-0.70	2.60	 	 	 	 	 	 	 	 	 	 	 	 	 	 	 	 	 	 	1581519273	3.07	5.69
12/02/2020 14:54:34	120220	12022020	145434	91.30	12.418765	-57.055727	91.38	-0.490	2.200	0.780	91.41	0.80	1.30	 	 	 	 	 	 	 	 	 	 	 	 	 	 	 	 	 	 	1581519274	2.72	5.04
12/02/2020 14:54:35	120220	12022020	145435	91.79	12.418772	-57.055712	91.81	-1.200	2.090	-0.280	91.84	0.80	0.20	 	 	 	 	 	 	 	 	 	 	 	 	 	 	 	 	 	 	1581519275	3.27	6.06
12/02/2020 14:54:36	120220	12022020	145436	91.82	12.418773	-57.055692	91.77	-1.060	0.480	-0.620	91.78	-0.70	-0.20	 	 	 	 	 	 	 	 	 	 	 	 	 	 	 	 	 	 	1581519276	4.59	8.50
12/02/2020 14:54:37	120220	12022020	145437	91.57	12.418773	-57.055665	91.50	-0.480	-1.140	-0.420	91.51	-2.40	-0.00	 	 	 	 	 	 	 	 	 	 	 	 	 	 	 	 	 	 	1581519277	5.47	10.13
12/02/2020 14:54:38	120220	12022020	145438	91.43	12.418770	-57.055642	91.44	-0.090	-1.590	0.120	91.45	-2.90	0.50	 	 	 	 	 	 	 	 	 	 	 	 	 	 	 	 	 	 	1581519278	4.84	8.96
12/02/2020 14:54:39	120220	12022020	145439	91.71	12.418765	-57.055625	91.78	0.000	-1.200	0.700	91.81	-2.50	1.10	 	 	 	 	 	 	 	 	 	 	 	 	 	 	 	 	 	 	1581519279	3.69	6.83
12/02/2020 14:54:40	120220	12022020	145440	92.21	12.418762	-57.055610	92.29	0.260	-0.990	1.040	92.30	-2.30	1.40	 	 	 	 	 	 	 	 	 	 	 	 	 	 	 	 	 	 	1581519280	3.50	6.48
12/02/2020 14:54:41	120220	12022020	145441	92.48	12.418758	-57.055590	92.49	0.870	-1.060	1.330	92.48	-2.40	1.70	 	 	 	 	 	 	 	 	 	 	 	 	 	 	 	 	 	 	1581519281	4.27	7.91
12/02/2020 14:54:42	120220	12022020	145442	92.36	12.418757	-57.055568	92.33	1.270	-0.590	1.740	92.31	-1.90	2.10	 	 	 	 	 	 	 	 	 	 	 	 	 	 	 	 	 	 	1581519282	4.53	8.39
12/02/2020 14:54:43	120220	12022020	145443	92.09	12.418757	-57.055550	92.08	0.930	0.480	2.170	92.04	-0.90	2.60	 	 	 	 	 	 	 	 	 	 	 	 	 	 	 	 	 	 	1581519283	3.84	7.11
12/02/2020 14:54:44	120220	12022020	145444	91.99	12.418755	-57.055535	92.05	-0.110	1.550	2.360	92.00	0.20	2.80	 	 	 	 	 	 	 	 	 	 	 	 	 	 	 	 	 	 	1581519284	3.17	5.87
12/02/2020 14:54:45	120220	12022020	145445	92.14	12.418755	-57.055522	92.21	-1.180	1.910	2.200	92.14	0.60	2.60	 	 	 	 	 	 	 	 	 	 	 	 	 	 	 	 	 	 	1581519285	3.00	5.56
12/02/2020 14:54:46	120220	12022020	145446	92.32	12.418755	-57.055505	92.39	-1.550	1.150	1.690	92.35	-0.10	2.10	 	 	 	 	 	 	 	 	 	 	 	 	 	 	 	 	 	 	1581519286	3.52	6.52
12/02/2020 14:54:47	120220	12022020	145447	92.50	12.418755	-57.055483	92.55	-0.900	-0.580	0.910	92.53	-1.80	1.40	 	 	 	 	 	 	 	 	 	 	 	 	 	 	 	 	 	 	1581519287	4.52	8.37
12/02/2020 14:54:48	120220	12022020	145448	92.55	12.418755	-57.055457	92.53	0.370	-2.420	0.390	92.51	-3.60	0.80	 	 	 	 	 	 	 	 	 	 	 	 	 	 	 	 	 	 	1581519288	5.37	9.95
12/02/2020 14:54:49	120220	12022020	145449	92.24	12.418755	-57.055432	92.17	1.310	-3.070	0.530	92.15	-4.40	0.90	 	 	 	 	 	 	 	 	 	 	 	 	 	 	 	 	 	 	1581519289	5.45	10.09
12/02/2020 14:54:50	120220	12022020	145450	91.77	12.418753	-57.055412	91.72	1.200	-1.740	0.940	91.69	-3.20	1.30	 	 	 	 	 	 	 	 	 	 	 	 	 	 	 	 	 	 	1581519290	4.17	7.72
12/02/2020 14:54:51	120220	12022020	145451	91.41	12.418752	-57.055400	91.37	0.310	0.600	1.050	91.35	-0.90	1.50	 	 	 	 	 	 	 	 	 	 	 	 	 	 	 	 	 	 	1581519291	2.49	4.61
12/02/2020 14:54:52	120220	12022020	145452	91.21	12.418752	-57.055392	91.19	-0.500	2.200	0.780	91.19	0.80	1.20	 	 	 	 	 	 	 	 	 	 	 	 	 	 	 	 	 	 	1581519292	2.04	3.78
12/02/2020 14:54:53	120220	12022020	145453	91.15	12.418753	-57.055377	91.14	-0.720	2.080	0.450	91.14	0.80	0.90	 	 	 	 	 	 	 	 	 	 	 	 	 	 	 	 	 	 	1581519293	3.22	5.96
12/02/2020 14:54:54	120220	12022020	145454	91.16	12.418755	-57.055353	91.16	-0.530	0.770	0.270	91.18	-0.50	0.70	 	 	 	 	 	 	 	 	 	 	 	 	 	 	 	 	 	 	1581519294	4.66	8.63
12/02/2020 14:54:55	120220	12022020	145455	91.25	12.418755	-57.055330	91.23	-0.300	-0.580	0.250	91.25	-1.80	0.60	 	 	 	 	 	 	 	 	 	 	 	 	 	 	 	 	 	 	1581519295	5.10	9.45
12/02/2020 14:54:56	120220	12022020	145456	91.19	12.418753	-57.055308	91.13	-0.130	-1.290	0.670	91.13	-2.60	1.00	 	 	 	 	 	 	 	 	 	 	 	 	 	 	 	 	 	 	1581519296	4.60	8.52
12/02/2020 14:54:57	120220	12022020	145457	90.75	12.418748	-57.055290	90.67	0.140	-1.510	1.560	90.63	-2.80	1.90	 	 	 	 	 	 	 	 	 	 	 	 	 	 	 	 	 	 	1581519297	4.12	7.63
12/02/2020 14:54:58	120220	12022020	145458	90.20	12.418743	-57.055270	90.17	0.560	-1.480	2.430	90.13	-2.80	2.80	 	 	 	 	 	 	 	 	 	 	 	 	 	 	 	 	 	 	1581519298	4.14	7.67
12/02/2020 14:54:59	120220	12022020	145459	89.96	12.418740	-57.055252	90.02	0.830	-1.080	2.760	89.96	-2.40	3.10	 	 	 	 	 	 	 	 	 	 	 	 	 	 	 	 	 	 	1581519299	4.18	7.74
12/02/2020 14:55:00	120220	12022020	145500	90.06	12.418740	-57.055233	90.13	0.680	-0.200	2.540	90.09	-1.60	3.00	 	 	 	 	 	 	 	 	 	 	 	 	 	 	 	 	 	 	1581519300	3.88	7.19
12/02/2020 14:55:01	120220	12022020	145501	90.19	12.418742	-57.055217	90.24	0.130	0.890	2.090	90.21	-0.50	2.50	 	 	 	 	 	 	 	 	 	 	 	 	 	 	 	 	 	 	1581519301	3.40	6.30
12/02/2020 14:55:02	120220	12022020	145502	90.20	12.418745	-57.055202	90.21	-0.470	1.610	1.600	90.19	0.30	2.00	1017.10	26.70	26.70	19.80	19.90	708.0	66.0	66.0	420.0	28.6	345.00	13.60	74.00	11.60	57938	10433.0	27.5	27.5	1581519302	3.17	5.87
12/02/2020 14:55:03	120220	12022020	145503	90.18	12.418748	-57.055187	90.18	-0.790	1.350	1.100	90.19	0.10	1.50	 	 	 	 	 	 	 	 	 	 	 	 	 	 	 	 	 	 	1581519303	3.53	6.54
12/02/2020 14:55:04	120220	12022020	145504	90.23	12.418750	-57.055165	90.21	-0.710	0.180	0.630	90.24	-1.00	1.10	 	 	 	 	 	 	 	 	 	 	 	 	 	 	 	 	 	 	1581519304	4.37	8.09
12/02/2020 14:55:05	120220	12022020	145505	90.24	12.418752	-57.055142	90.22	-0.320	-1.200	0.350	90.24	-2.40	0.80	 	 	 	 	 	 	 	 	 	 	 	 	 	 	 	 	 	 	1581519305	4.94	9.15
12/02/2020 14:55:06	120220	12022020	145506	90.28	12.418752	-57.055118	90.27	0.220	-2.000	0.340	90.29	-3.30	0.70	 	 	 	 	 	 	 	 	 	 	 	 	 	 	 	 	 	 	1581519306	4.97	9.20
12/02/2020 14:55:07	120220	12022020	145507	90.40	12.418750	-57.055098	90.42	0.640	-1.690	0.490	90.43	-3.00	0.90	 	 	 	 	 	 	 	 	 	 	 	 	 	 	 	 	 	 	1581519307	4.33	8.02
12/02/2020 14:55:08	120220	12022020	145508	90.48	12.418750	-57.055082	90.46	0.740	-0.660	0.580	90.47	-2.00	1.00	 	 	 	 	 	 	 	 	 	 	 	 	 	 	 	 	 	 	1581519308	3.43	6.35
12/02/2020 14:55:09	120220	12022020	145509	90.31	12.418750	-57.055067	90.25	0.490	0.270	0.730	90.24	-1.10	1.10	 	 	 	 	 	 	 	 	 	 	 	 	 	 	 	 	 	 	1581519309	3.19	5.91
12/02/2020 14:55:10	120220	12022020	145510	89.95	12.418750	-57.055050	89.91	0.030	0.740	1.110	89.90	-0.60	1.50	 	 	 	 	 	 	 	 	 	 	 	 	 	 	 	 	 	 	1581519310	3.65	6.76
12/02/2020 14:55:11	120220	12022020	145511	89.81	12.418750	-57.055032	89.84	-0.520	0.990	1.450	89.84	-0.30	1.80	 	 	 	 	 	 	 	 	 	 	 	 	 	 	 	 	 	 	1581519311	3.93	7.28
12/02/2020 14:55:12	120220	12022020	145512	90.09	12.418748	-57.055013	90.15	-0.940	0.930	1.440	90.18	-0.40	1.90	 	 	 	 	 	 	 	 	 	 	 	 	 	 	 	 	 	 	1581519312	3.82	7.07
12/02/2020 14:55:13	120220	12022020	145513	90.56	12.418748	-57.054995	90.61	-0.910	0.350	1.080	90.64	-0.90	1.50	 	 	 	 	 	 	 	 	 	 	 	 	 	 	 	 	 	 	1581519313	3.91	7.24
12/02/2020 14:55:14	120220	12022020	145514	90.81	12.418748	-57.054973	90.80	-0.360	-0.680	0.890	90.81	-1.90	1.30	 	 	 	 	 	 	 	 	 	 	 	 	 	 	 	 	 	 	1581519314	4.39	8.13
12/02/2020 14:55:15	120220	12022020	145515	90.62	12.418748	-57.054952	90.53	0.430	-1.710	1.100	90.53	-2.90	1.50	 	 	 	 	 	 	 	 	 	 	 	 	 	 	 	 	 	 	1581519315	4.85	8.98
12/02/2020 14:55:16	120220	12022020	145516	90.21	12.418748	-57.054928	90.16	1.030	-2.070	1.540	90.15	-3.40	1.90	 	 	 	 	 	 	 	 	 	 	 	 	 	 	 	 	 	 	1581519316	4.95	9.17
12/02/2020 14:55:17	120220	12022020	145517	89.97	12.418747	-57.054907	89.96	1.090	-1.270	1.930	89.95	-2.60	2.30	 	 	 	 	 	 	 	 	 	 	 	 	 	 	 	 	 	 	1581519317	4.39	8.13
12/02/2020 14:55:18	120220	12022020	145518	89.88	12.418747	-57.054892	89.88	0.530	0.430	1.840	89.86	-1.00	2.30	 	 	 	 	 	 	 	 	 	 	 	 	 	 	 	 	 	 	1581519318	3.24	6.00
12/02/2020 14:55:19	120220	12022020	145519	89.78	12.418750	-57.054880	89.76	-0.290	1.850	1.350	89.76	0.50	1.80	 	 	 	 	 	 	 	 	 	 	 	 	 	 	 	 	 	 	1581519319	2.64	4.89
12/02/2020 14:55:20	120220	12022020	145520	89.71	12.418753	-57.054865	89.67	-0.870	1.950	0.750	89.70	0.70	1.20	 	 	 	 	 	 	 	 	 	 	 	 	 	 	 	 	 	 	1581519320	3.14	5.82
12/02/2020 14:55:21	120220	12022020	145521	89.73	12.418757	-57.054845	89.69	-0.850	0.630	0.220	89.73	-0.60	0.70	 	 	 	 	 	 	 	 	 	 	 	 	 	 	 	 	 	 	1581519321	4.37	8.09
12/02/2020 14:55:22	120220	12022020	145522	89.94	12.418760	-57.054820	89.94	-0.360	-1.200	-0.190	90.00	-2.40	0.20	 	 	 	 	 	 	 	 	 	 	 	 	 	 	 	 	 	 	1581519322	5.42	10.04
12/02/2020 14:55:23	120220	12022020	145523	90.24	12.418762	-57.054793	90.22	0.190	-2.370	-0.290	90.28	-3.60	0.10	 	 	 	 	 	 	 	 	 	 	 	 	 	 	 	 	 	 	1581519323	5.54	10.26
12/02/2020 14:55:24	120220	12022020	145524	90.28	12.418760	-57.054770	90.23	0.450	-2.050	0.230	90.25	-3.40	0.60	 	 	 	 	 	 	 	 	 	 	 	 	 	 	 	 	 	 	1581519324	4.73	8.76
12/02/2020 14:55:25	120220	12022020	145525	89.99	12.418755	-57.054755	89.92	0.310	-0.500	1.250	89.90	-1.90	1.60	 	 	 	 	 	 	 	 	 	 	 	 	 	 	 	 	 	 	1581519325	3.52	6.52
12/02/2020 14:55:26	120220	12022020	145526	89.57	12.418750	-57.054742	89.54	-0.050	1.040	2.130	89.51	-0.30	2.50	 	 	 	 	 	 	 	 	 	 	 	 	 	 	 	 	 	 	1581519326	2.85	5.28
12/02/2020 14:55:27	120220	12022020	145527	89.40	12.418748	-57.054728	89.42	-0.390	1.600	2.280	89.41	0.30	2.70	 	 	 	 	 	 	 	 	 	 	 	 	 	 	 	 	 	 	1581519327	3.07	5.69
12/02/2020 14:55:28	120220	12022020	145528	89.54	12.418752	-57.054708	89.57	-0.500	0.990	1.860	89.59	-0.30	2.30	 	 	 	 	 	 	 	 	 	 	 	 	 	 	 	 	 	 	1581519328	4.05	7.50
12/02/2020 14:55:29	120220	12022020	145529	89.74	12.418757	-57.054687	89.73	-0.260	-0.240	1.350	89.75	-1.50	1.80	 	 	 	 	 	 	 	 	 	 	 	 	 	 	 	 	 	 	1581519329	4.88	9.04
12/02/2020 14:55:30	120220	12022020	145530	89.78	12.418758	-57.054662	89.75	0.280	-1.410	0.990	89.77	-2.70	1.40	 	 	 	 	 	 	 	 	 	 	 	 	 	 	 	 	 	 	1581519330	5.18	9.59
12/02/2020 14:55:31	120220	12022020	145531	89.75	12.418762	-57.054638	89.74	0.820	-1.900	0.840	89.75	-3.20	1.20	 	 	 	 	 	 	 	 	 	 	 	 	 	 	 	 	 	 	1581519331	5.10	9.45
12/02/2020 14:55:32	120220	12022020	145532	89.71	12.418763	-57.054617	89.70	0.790	-1.180	0.950	89.70	-2.50	1.30	 	 	 	 	 	 	 	 	 	 	 	 	 	 	 	 	 	 	1581519332	4.39	8.13
12/02/2020 14:55:33	120220	12022020	145533	89.74	12.418763	-57.054603	89.76	0.040	0.460	1.020	89.78	-0.90	1.40	 	 	 	 	 	 	 	 	 	 	 	 	 	 	 	 	 	 	1581519333	3.13	5.80
12/02/2020 14:55:34	120220	12022020	145534	89.97	12.418763	-57.054592	90.01	-0.920	1.840	0.860	90.04	0.50	1.30	 	 	 	 	 	 	 	 	 	 	 	 	 	 	 	 	 	 	1581519334	2.33	4.32
12/02/2020 14:55:35	120220	12022020	145535	90.32	12.418765	-57.054578	90.35	-1.320	1.810	0.600	90.32	0.50	1.00	 	 	 	 	 	 	 	 	 	 	 	 	 	 	 	 	 	 	1581519335	2.81	5.20
12/02/2020 14:55:36	120220	12022020	145536	90.63	12.418765	-57.054558	90.64	-0.730	0.040	0.500	90.67	-1.10	0.90	 	 	 	 	 	 	 	 	 	 	 	 	 	 	 	 	 	 	1581519336	4.35	8.06
12/02/2020 14:55:37	120220	12022020	145537	90.73	12.418767	-57.054530	90.70	0.570	-2.370	0.600	90.70	-3.50	1.00	 	 	 	 	 	 	 	 	 	 	 	 	 	 	 	 	 	 	1581519337	5.99	11.09
12/02/2020 14:55:38	120220	12022020	145538	90.38	12.418767	-57.054500	90.30	1.680	-3.400	1.010	90.29	-4.70	1.40	 	 	 	 	 	 	 	 	 	 	 	 	 	 	 	 	 	 	1581519338	6.33	11.72
12/02/2020 14:55:39	120220	12022020	145539	90.04	12.418768	-57.054478	90.03	1.650	-1.740	1.530	90.04	-3.20	1.90	 	 	 	 	 	 	 	 	 	 	 	 	 	 	 	 	 	 	1581519339	4.60	8.52
12/02/2020 14:55:40	120220	12022020	145540	90.35	12.418768	-57.054468	90.48	0.290	1.500	2.080	90.50	0.00	2.50	 	 	 	 	 	 	 	 	 	 	 	 	 	 	 	 	 	 	1581519340	1.98	3.67
12/02/2020 14:55:41	120220	12022020	145541	91.29	12.418767	-57.054465	91.48	-1.560	3.870	2.350	91.50	2.50	2.70	 	 	 	 	 	 	 	 	 	 	 	 	 	 	 	 	 	 	1581519341	0.85	1.57
12/02/2020 14:55:42	120220	12022020	145542	92.26	12.418763	-57.054457	92.41	-2.580	3.540	2.210	92.41	2.30	2.60	 	 	 	 	 	 	 	 	 	 	 	 	 	 	 	 	 	 	1581519342	1.98	3.67
12/02/2020 14:55:43	120220	12022020	145543	92.80	12.418758	-57.054435	92.85	-1.880	0.430	1.840	92.82	-0.70	2.30	 	 	 	 	 	 	 	 	 	 	 	 	 	 	 	 	 	 	1581519343	4.58	8.48
12/02/2020 14:55:44	120220	12022020	145544	92.65	12.418755	-57.054403	92.60	0.040	-3.200	1.810	92.56	-4.30	2.20	 	 	 	 	 	 	 	 	 	 	 	 	 	 	 	 	 	 	1581519344	6.73	12.46
12/02/2020 14:55:45	120220	12022020	145545	92.26	12.418752	-57.054373	92.26	1.780	-4.630	1.880	92.22	-5.90	2.30	 	 	 	 	 	 	 	 	 	 	 	 	 	 	 	 	 	 	1581519345	6.46	11.96
12/02/2020 14:55:46	120220	12022020	145546	92.23	12.418753	-57.054353	92.28	2.230	-3.040	1.470	92.27	-4.50	1.90	 	 	 	 	 	 	 	 	 	 	 	 	 	 	 	 	 	 	1581519346	4.08	7.56
12/02/2020 14:55:47	120220	12022020	145547	92.49	12.418760	-57.054345	92.52	1.430	-0.140	0.600	92.54	-1.60	1.10	 	 	 	 	 	 	 	 	 	 	 	 	 	 	 	 	 	 	1581519347	2.28	4.22
12/02/2020 14:55:48	120220	12022020	145548	92.70	12.418767	-57.054337	92.68	0.150	2.220	-0.160	92.71	0.80	0.30	 	 	 	 	 	 	 	 	 	 	 	 	 	 	 	 	 	 	1581519348	2.23	4.13
12/02/2020 14:55:49	120220	12022020	145549	92.71	12.418772	-57.054327	92.68	-0.990	3.270	-0.480	92.71	1.90	-0.10	 	 	 	 	 	 	 	 	 	 	 	 	 	 	 	 	 	 	1581519349	2.49	4.61
12/02/2020 14:55:50	120220	12022020	145550	92.71	12.418772	-57.054312	92.69	-1.510	2.720	-0.540	92.72	1.50	-0.10	 	 	 	 	 	 	 	 	 	 	 	 	 	 	 	 	 	 	1581519350	3.24	6.00
12/02/2020 14:55:51	120220	12022020	145551	92.86	12.418772	-57.054290	92.90	-1.320	0.730	-0.540	92.92	-0.40	-0.10	 	 	 	 	 	 	 	 	 	 	 	 	 	 	 	 	 	 	1581519351	4.34	8.04
12/02/2020 14:55:52	120220	12022020	145552	93.08	12.418768	-57.054265	93.10	-0.600	-1.880	-0.260	93.09	-3.00	0.10	 	 	 	 	 	 	 	 	 	 	 	 	 	 	 	 	 	 	1581519352	5.34	9.89
12/02/2020 14:55:53	120220	12022020	145553	92.88	12.418760	-57.054240	92.81	0.340	-3.570	0.730	92.76	-4.80	1.00	 	 	 	 	 	 	 	 	 	 	 	 	 	 	 	 	 	 	1581519353	5.71	10.57
12/02/2020 14:55:54	120220	12022020	145554	92.16	12.418752	-57.054218	92.06	1.080	-3.110	1.930	91.99	-4.50	2.30	 	 	 	 	 	 	 	 	 	 	 	 	 	 	 	 	 	 	1581519354	4.77	8.83
12/02/2020 14:55:55	120220	12022020	145555	91.31	12.418747	-57.054207	91.24	1.210	-0.950	2.740	91.15	-2.40	3.10	 	 	 	 	 	 	 	 	 	 	 	 	 	 	 	 	 	 	1581519355	2.94	5.44
12/02/2020 14:55:56	120220	12022020	145556	90.73	12.418745	-57.054198	90.72	0.710	1.210	2.760	90.68	-0.20	3.20	 	 	 	 	 	 	 	 	 	 	 	 	 	 	 	 	 	 	1581519356	1.86	3.44
12/02/2020 14:55:57	120220	12022020	145557	90.72	12.418748	-57.054187	90.78	-0.140	2.150	1.870	90.79	0.80	2.30	 	 	 	 	 	 	 	 	 	 	 	 	 	 	 	 	 	 	1581519357	2.56	4.74
12/02/2020 14:55:58	120220	12022020	145558	91.13	12.418755	-57.054170	91.19	-0.870	1.780	0.580	91.21	0.50	1.00	 	 	 	 	 	 	 	 	 	 	 	 	 	 	 	 	 	 	1581519358	3.72	6.89
12/02/2020 14:55:59	120220	12022020	145559	91.43	12.418760	-57.054150	91.41	-0.970	0.520	-0.400	91.43	-0.70	0.00	 	 	 	 	 	 	 	 	 	 	 	 	 	 	 	 	 	 	1581519359	4.35	8.06
12/02/2020 14:56:00	120220	12022020	145600	91.35	12.418760	-57.054127	91.26	-0.320	-1.050	-0.740	91.29	-2.30	-0.30	 	 	 	 	 	 	 	 	 	 	 	 	 	 	 	 	 	 	1581519360	4.80	8.89
12/02/2020 14:56:01	120220	12022020	145601	90.93	12.418760	-57.054103	90.83	0.580	-2.010	-0.460	90.84	-3.30	-0.10	 	 	 	 	 	 	 	 	 	 	 	 	 	 	 	 	 	 	1581519361	4.92	9.11
12/02/2020 14:56:02	120220	12022020	145602	90.55	12.418758	-57.054085	90.50	1.020	-1.660	0.070	90.52	-3.00	0.40	1017.10	26.70	26.80	20.10	20.10	877.0	67.0	67.0	419.0	28.7	349.00	12.70	77.00	10.70	66513	10805.0	27.5	27.5	1581519362	4.12	7.63
12/02/2020 14:56:03	120220	12022020	145603	90.49	12.418758	-57.054070	90.51	0.790	-0.400	0.760	90.51	-1.80	1.10	 	 	 	 	 	 	 	 	 	 	 	 	 	 	 	 	 	 	1581519363	2.90	5.37
12/02/2020 14:56:04	120220	12022020	145604	90.63	12.418757	-57.054060	90.68	0.200	0.700	1.510	90.65	-0.70	1.90	 	 	 	 	 	 	 	 	 	 	 	 	 	 	 	 	 	 	1581519364	2.44	4.52
12/02/2020 14:56:05	120220	12022020	145605	90.68	12.418753	-57.054045	90.70	-0.220	0.770	2.170	90.65	-0.50	2.50	 	 	 	 	 	 	 	 	 	 	 	 	 	 	 	 	 	 	1581519365	3.11	5.76
12/02/2020 14:56:06	120220	12022020	145606	90.45	12.418748	-57.054025	90.45	-0.250	-0.040	2.770	90.40	-1.30	3.10	 	 	 	 	 	 	 	 	 	 	 	 	 	 	 	 	 	 	1581519366	4.34	8.04
12/02/2020 14:56:07	120220	12022020	145607	90.26	12.418743	-57.054002	90.32	-0.090	-0.630	3.220	90.28	-1.90	3.60	 	 	 	 	 	 	 	 	 	 	 	 	 	 	 	 	 	 	1581519367	4.92	9.11
12/02/2020 14:56:08	120220	12022020	145608	90.52	12.418742	-57.053983	90.65	-0.060	-0.330	3.080	90.63	-1.70	3.50	 	 	 	 	 	 	 	 	 	 	 	 	 	 	 	 	 	 	1581519368	4.11	7.61
12/02/2020 14:56:09	120220	12022020	145609	91.15	12.418742	-57.053968	91.28	-0.280	0.310	2.220	91.27	-1.00	2.70	 	 	 	 	 	 	 	 	 	 	 	 	 	 	 	 	 	 	1581519369	3.02	5.59
12/02/2020 14:56:10	120220	12022020	145610	91.52	12.418745	-57.053955	91.54	-0.470	0.520	1.160	91.52	-0.80	1.60	 	 	 	 	 	 	 	 	 	 	 	 	 	 	 	 	 	 	1581519370	2.97	5.50
12/02/2020 14:56:11	120220	12022020	145611	91.35	12.418750	-57.053938	91.28	-0.330	0.160	0.450	91.35	-1.10	0.90	 	 	 	 	 	 	 	 	 	 	 	 	 	 	 	 	 	 	1581519371	3.55	6.57
12/02/2020 14:56:12	120220	12022020	145612	91.03	12.418753	-57.053920	90.96	0.210	-0.610	-0.060	90.98	-1.90	0.40	 	 	 	 	 	 	 	 	 	 	 	 	 	 	 	 	 	 	1581519372	4.06	7.52
12/02/2020 14:56:13	120220	12022020	145613	90.81	12.418758	-57.053898	90.75	0.970	-1.490	-0.540	90.81	-2.70	-0.10	 	 	 	 	 	 	 	 	 	 	 	 	 	 	 	 	 	 	1581519373	4.59	8.50
12/02/2020 14:56:14	120220	12022020	145614	90.74	12.418763	-57.053877	90.70	1.390	-1.810	-0.890	90.75	-3.10	-0.50	 	 	 	 	 	 	 	 	 	 	 	 	 	 	 	 	 	 	1581519374	4.88	9.04
12/02/2020 14:56:15	120220	12022020	145615	90.86	12.418767	-57.053857	90.86	0.980	-0.900	-0.760	90.91	-2.30	-0.40	 	 	 	 	 	 	 	 	 	 	 	 	 	 	 	 	 	 	1581519375	4.17	7.72
12/02/2020 14:56:16	120220	12022020	145616	91.12	12.418767	-57.053845	91.17	-0.120	0.860	0.040	91.19	-0.50	0.40	 	 	 	 	 	 	 	 	 	 	 	 	 	 	 	 	 	 	1581519376	2.69	4.98
12/02/2020 14:56:17	120220	12022020	145617	91.51	12.418760	-57.053835	91.59	-1.220	2.120	1.200	91.59	0.80	1.50	 	 	 	 	 	 	 	 	 	 	 	 	 	 	 	 	 	 	1581519377	2.41	4.46
12/02/2020 14:56:18	120220	12022020	145618	91.86	12.418750	-57.053822	91.93	-1.510	1.750	2.240	91.89	0.50	2.60	 	 	 	 	 	 	 	 	 	 	 	 	 	 	 	 	 	 	1581519378	3.47	6.43
12/02/2020 14:56:19	120220	12022020	145619	91.81	12.418740	-57.053802	91.83	-0.800	0.040	3.220	91.73	-1.10	3.50	 	 	 	 	 	 	 	 	 	 	 	 	 	 	 	 	 	 	1581519379	4.80	8.89
12/02/2020 14:56:20	120220	12022020	145620	91.31	12.418733	-57.053777	91.32	0.220	-1.520	4.020	91.19	-2.70	4.40	 	 	 	 	 	 	 	 	 	 	 	 	 	 	 	 	 	 	1581519380	5.42	10.04
12/02/2020 14:56:21	120220	12022020	145621	90.86	12.418732	-57.053755	90.94	0.800	-1.840	4.120	90.82	-3.10	4.50	 	 	 	 	 	 	 	 	 	 	 	 	 	 	 	 	 	 	1581519381	4.63	8.57
12/02/2020 14:56:22	120220	12022020	145622	90.84	12.418733	-57.053740	90.96	0.750	-1.040	3.350	90.87	-2.40	3.80	 	 	 	 	 	 	 	 	 	 	 	 	 	 	 	 	 	 	1581519382	3.39	6.28
12/02/2020 14:56:23	120220	12022020	145623	91.06	12.418740	-57.053727	91.15	0.330	0.010	2.010	91.06	-1.30	2.50	 	 	 	 	 	 	 	 	 	 	 	 	 	 	 	 	 	 	1581519383	2.88	5.33
12/02/2020 14:56:24	120220	12022020	145624	91.19	12.418747	-57.053713	91.18	-0.070	0.430	0.570	91.18	-0.90	1.10	 	 	 	 	 	 	 	 	 	 	 	 	 	 	 	 	 	 	1581519384	3.21	5.94
12/02/2020 14:56:25	120220	12022020	145625	90.97	12.418752	-57.053695	90.89	-0.100	-0.010	-0.510	90.97	-1.30	-0.00	 	 	 	 	 	 	 	 	 	 	 	 	 	 	 	 	 	 	1581519385	4.01	7.43
12/02/2020 14:56:26	120220	12022020	145626	90.44	12.418755	-57.053673	90.31	0.170	-0.640	-1.020	90.31	-1.90	-0.60	 	 	 	 	 	 	 	 	 	 	 	 	 	 	 	 	 	 	1581519386	4.70	8.70
12/02/2020 14:56:27	120220	12022020	145627	89.75	12.418758	-57.053652	89.63	0.280	-0.530	-1.010	89.64	-1.90	-0.60	 	 	 	 	 	 	 	 	 	 	 	 	 	 	 	 	 	 	1581519387	4.51	8.35
12/02/2020 14:56:28	120220	12022020	145628	89.40	12.418762	-57.053637	89.38	-0.170	0.450	-0.840	89.42	-0.90	-0.40	 	 	 	 	 	 	 	 	 	 	 	 	 	 	 	 	 	 	1581519388	3.43	6.35
12/02/2020 14:56:29	120220	12022020	145629	89.80	12.418762	-57.053625	89.87	-0.900	1.270	-0.680	89.96	-0.00	-0.30	 	 	 	 	 	 	 	 	 	 	 	 	 	 	 	 	 	 	1581519389	2.49	4.61
12/02/2020 14:56:30	120220	12022020	145630	90.58	12.418758	-57.053610	90.64	-1.110	0.780	-0.220	90.69	-0.40	0.10	 	 	 	 	 	 	 	 	 	 	 	 	 	 	 	 	 	 	1581519390	3.05	5.65
12/02/2020 14:56:31	120220	12022020	145631	90.88	12.418750	-57.053588	90.88	-0.400	-0.860	0.990	90.86	-2.00	1.30	 	 	 	 	 	 	 	 	 	 	 	 	 	 	 	 	 	 	1581519391	4.85	8.98
12/02/2020 14:56:32	120220	12022020	145632	90.56	12.418740	-57.053563	90.52	0.610	-2.050	2.630	90.45	-3.30	2.90	 	 	 	 	 	 	 	 	 	 	 	 	 	 	 	 	 	 	1581519392	5.84	10.82
12/02/2020 14:56:33	120220	12022020	145633	89.91	12.418730	-57.053542	89.88	1.130	-1.710	3.950	89.77	-3.00	4.30	 	 	 	 	 	 	 	 	 	 	 	 	 	 	 	 	 	 	1581519393	4.96	9.19
12/02/2020 14:56:34	120220	12022020	145634	89.24	12.418727	-57.053528	89.23	0.860	-0.130	4.430	89.13	-1.50	4.80	 	 	 	 	 	 	 	 	 	 	 	 	 	 	 	 	 	 	1581519394	3.15	5.83
12/02/2020 14:56:35	120220	12022020	145635	88.93	12.418728	-57.053518	88.99	0.130	1.340	3.740	88.95	-0.00	4.20	 	 	 	 	 	 	 	 	 	 	 	 	 	 	 	 	 	 	1581519395	2.20	4.07
12/02/2020 14:56:36	120220	12022020	145636	89.17	12.418737	-57.053505	89.25	-0.430	1.430	2.060	89.25	0.20	2.60	 	 	 	 	 	 	 	 	 	 	 	 	 	 	 	 	 	 	1581519396	3.28	6.07
12/02/2020 14:56:37	120220	12022020	145637	89.60	12.418750	-57.053485	89.60	-0.510	0.290	0.240	89.68	-0.90	0.80	 	 	 	 	 	 	 	 	 	 	 	 	 	 	 	 	 	 	1581519397	4.83	8.95
12/02/2020 14:56:38	120220	12022020	145638	89.90	12.418758	-57.053463	89.84	-0.330	-0.870	-0.900	89.93	-2.10	-0.40	 	 	 	 	 	 	 	 	 	 	 	 	 	 	 	 	 	 	1581519398	5.26	9.74
12/02/2020 14:56:39	120220	12022020	145639	89.90	12.418762	-57.053442	89.82	-0.230	-1.320	-1.150	89.87	-2.60	-0.70	 	 	 	 	 	 	 	 	 	 	 	 	 	 	 	 	 	 	1581519399	4.54	8.41
12/02/2020 14:56:40	120220	12022020	145640	89.67	12.418758	-57.053423	89.59	-0.210	-1.200	-0.740	89.61	-2.50	-0.40	 	 	 	 	 	 	 	 	 	 	 	 	 	 	 	 	 	 	1581519400	3.86	7.15
12/02/2020 14:56:41	120220	12022020	145641	89.37	12.418755	-57.053407	89.31	-0.100	-0.800	0.040	89.31	-2.10	0.40	 	 	 	 	 	 	 	 	 	 	 	 	 	 	 	 	 	 	1581519401	3.78	7.00
12/02/2020 14:56:42	120220	12022020	145642	89.18	12.418750	-57.053390	89.16	0.100	-0.060	0.760	89.17	-1.40	1.10	 	 	 	 	 	 	 	 	 	 	 	 	 	 	 	 	 	 	1581519402	3.65	6.76
12/02/2020 14:56:43	120220	12022020	145643	89.19	12.418748	-57.053375	89.20	0.200	0.660	1.150	89.21	-0.70	1.60	 	 	 	 	 	 	 	 	 	 	 	 	 	 	 	 	 	 	1581519403	3.22	5.96
12/02/2020 14:56:44	120220	12022020	145644	89.26	12.418748	-57.053358	89.25	0.170	0.790	1.250	89.28	-0.50	1.70	 	 	 	 	 	 	 	 	 	 	 	 	 	 	 	 	 	 	1581519404	3.36	6.22
12/02/2020 14:56:45	120220	12022020	145645	89.36	12.418752	-57.053340	89.36	0.090	0.240	1.070	89.40	-1.00	1.50	 	 	 	 	 	 	 	 	 	 	 	 	 	 	 	 	 	 	1581519405	4.04	7.48
12/02/2020 14:56:46	120220	12022020	145646	89.65	12.418755	-57.053318	89.68	0.050	-0.530	0.950	89.72	-1.80	1.40	 	 	 	 	 	 	 	 	 	 	 	 	 	 	 	 	 	 	1581519406	4.55	8.43
12/02/2020 14:56:47	120220	12022020	145647	89.97	12.418755	-57.053297	90.01	0.020	-0.720	1.100	90.03	-2.00	1.50	 	 	 	 	 	 	 	 	 	 	 	 	 	 	 	 	 	 	1581519407	4.41	8.17
12/02/2020 14:56:48	120220	12022020	145648	90.19	12.418755	-57.053282	90.20	-0.190	-0.110	1.170	90.20	-1.50	1.60	 	 	 	 	 	 	 	 	 	 	 	 	 	 	 	 	 	 	1581519408	3.47	6.43
12/02/2020 14:56:49	120220	12022020	145649	90.15	12.418755	-57.053268	90.12	-0.480	0.460	1.210	90.11	-0.90	1.60	 	 	 	 	 	 	 	 	 	 	 	 	 	 	 	 	 	 	1581519409	2.71	5.02
12/02/2020 14:56:50	120220	12022020	145650	89.84	12.418755	-57.053253	89.79	-0.470	0.070	1.440	89.77	-1.20	1.80	 	 	 	 	 	 	 	 	 	 	 	 	 	 	 	 	 	 	1581519410	3.19	5.91
12/02/2020 14:56:51	120220	12022020	145651	89.45	12.418753	-57.053232	89.40	-0.020	-1.080	1.790	89.39	-2.30	2.20	 	 	 	 	 	 	 	 	 	 	 	 	 	 	 	 	 	 	1581519411	4.51	8.35
12/02/2020 14:56:52	120220	12022020	145652	89.20	12.418752	-57.053208	89.19	0.540	-1.890	1.760	89.18	-3.10	2.20	 	 	 	 	 	 	 	 	 	 	 	 	 	 	 	 	 	 	1581519412	5.12	9.48
12/02/2020 14:56:53	120220	12022020	145653	89.16	12.418755	-57.053185	89.16	0.810	-1.620	1.210	89.18	-2.90	1.70	 	 	 	 	 	 	 	 	 	 	 	 	 	 	 	 	 	 	1581519413	4.72	8.74
12/02/2020 14:56:54	120220	12022020	145654	89.31	12.418760	-57.053168	89.31	0.520	-0.210	0.620	89.36	-1.60	1.10	 	 	 	 	 	 	 	 	 	 	 	 	 	 	 	 	 	 	1581519414	3.81	7.06
12/02/2020 14:56:55	120220	12022020	145655	89.65	12.418765	-57.053157	89.68	-0.250	1.540	0.290	89.73	0.20	0.70	 	 	 	 	 	 	 	 	 	 	 	 	 	 	 	 	 	 	1581519415	2.72	5.04
12/02/2020 14:56:56	120220	12022020	145656	90.02	12.418767	-57.053145	90.02	-1.050	2.430	0.280	90.07	1.10	0.70	 	 	 	 	 	 	 	 	 	 	 	 	 	 	 	 	 	 	1581519416	2.37	4.39
12/02/2020 14:56:57	120220	12022020	145657	90.13	12.418767	-57.053130	90.09	-1.380	1.870	0.620	90.10	0.60	1.00	 	 	 	 	 	 	 	 	 	 	 	 	 	 	 	 	 	 	1581519417	3.13	5.80
12/02/2020 14:56:58	120220	12022020	145658	89.96	12.418763	-57.053110	89.91	-0.930	0.040	1.060	89.91	-1.10	1.40	 	 	 	 	 	 	 	 	 	 	 	 	 	 	 	 	 	 	1581519418	4.37	8.09
12/02/2020 14:56:59	120220	12022020	145659	89.80	12.418762	-57.053085	89.78	0.100	-2.100	1.300	89.78	-3.30	1.70	 	 	 	 	 	 	 	 	 	 	 	 	 	 	 	 	 	 	1581519419	5.31	9.83
12/02/2020 14:57:00	120220	12022020	145700	89.78	12.418762	-57.053060	89.79	1.110	-3.300	1.490	89.79	-4.50	1.90	 	 	 	 	 	 	 	 	 	 	 	 	 	 	 	 	 	 	1581519420	5.40	10.00
12/02/2020 14:57:01	120220	12022020	145701	89.79	12.418763	-57.053038	89.79	1.490	-2.670	1.740	89.79	-4.00	2.10	 	 	 	 	 	 	 	 	 	 	 	 	 	 	 	 	 	 	1581519421	4.48	8.30
12/02/2020 14:57:02	120220	12022020	145702	89.68	12.418763	-57.053025	89.67	1.060	-0.600	1.840	89.65	-2.00	2.30	1017.30	26.70	26.80	20.60	20.70	1056.0	69.0	69.0	419.0	28.9	349.00	11.80	77.00	9.80	75023	11990.0	27.5	27.5	1581519422	2.95	5.46
12/02/2020 14:57:03	120220	12022020	145703	89.54	12.418765	-57.053015	89.55	0.190	1.590	1.580	89.53	0.20	2.00	 	 	 	 	 	 	 	 	 	 	 	 	 	 	 	 	 	 	1581519423	2.11	3.91
12/02/2020 14:57:04	120220	12022020	145704	89.58	12.418770	-57.053003	89.59	-0.650	2.590	0.990	89.61	1.30	1.50	 	 	 	 	 	 	 	 	 	 	 	 	 	 	 	 	 	 	1581519424	2.51	4.65
12/02/2020 14:57:05	120220	12022020	145705	89.80	12.418775	-57.052987	89.81	-1.130	1.900	0.300	89.86	0.70	0.80	 	 	 	 	 	 	 	 	 	 	 	 	 	 	 	 	 	 	1581519425	3.73	6.91
12/02/2020 14:57:06	120220	12022020	145706	90.09	12.418780	-57.052963	90.09	-1.190	0.170	-0.200	90.15	-1.00	0.20	 	 	 	 	 	 	 	 	 	 	 	 	 	 	 	 	 	 	1581519426	4.91	9.09
12/02/2020 14:57:07	120220	12022020	145707	90.36	12.418782	-57.052940	90.35	-0.940	-1.280	-0.300	90.41	-2.50	0.10	 	 	 	 	 	 	 	 	 	 	 	 	 	 	 	 	 	 	1581519427	5.17	9.57
12/02/2020 14:57:08	120220	12022020	145708	90.52	12.418780	-57.052918	90.50	-0.450	-1.640	0.100	90.53	-2.90	0.50	 	 	 	 	 	 	 	 	 	 	 	 	 	 	 	 	 	 	1581519428	4.36	8.07
12/02/2020 14:57:09	120220	12022020	145709	90.45	12.418775	-57.052903	90.38	0.250	-1.370	0.790	90.39	-2.70	1.20	 	 	 	 	 	 	 	 	 	 	 	 	 	 	 	 	 	 	1581519429	3.59	6.65
12/02/2020 14:57:10	120220	12022020	145710	90.12	12.418772	-57.052887	90.05	1.040	-1.150	1.450	90.03	-2.40	1.80	 	 	 	 	 	 	 	 	 	 	 	 	 	 	 	 	 	 	1581519430	3.63	6.72
12/02/2020 14:57:11	120220	12022020	145711	89.78	12.418772	-57.052867	89.77	1.480	-0.900	1.830	89.75	-2.20	2.20	 	 	 	 	 	 	 	 	 	 	 	 	 	 	 	 	 	 	1581519431	4.09	7.57
12/02/2020 14:57:12	120220	12022020	145712	89.87	12.418775	-57.052847	89.94	1.190	-0.260	1.680	89.95	-1.60	2.10	 	 	 	 	 	 	 	 	 	 	 	 	 	 	 	 	 	 	1581519432	4.17	7.72
12/02/2020 14:57:13	120220	12022020	145713	90.36	12.418782	-57.052830	90.44	0.270	0.750	1.150	90.47	-0.60	1.60	 	 	 	 	 	 	 	 	 	 	 	 	 	 	 	 	 	 	1581519433	3.72	6.89
12/02/2020 14:57:14	120220	12022020	145714	90.95	12.418787	-57.052817	91.01	-0.790	1.660	0.630	91.06	0.30	1.10	 	 	 	 	 	 	 	 	 	 	 	 	 	 	 	 	 	 	1581519434	3.17	5.87
12/02/2020 14:57:15	120220	12022020	145715	91.43	12.418787	-57.052802	91.46	-1.410	1.800	0.470	91.43	0.50	0.90	 	 	 	 	 	 	 	 	 	 	 	 	 	 	 	 	 	 	1581519435	3.00	5.56
12/02/2020 14:57:16	120220	12022020	145716	91.61	12.418787	-57.052785	91.61	-1.290	0.740	0.740	91.61	-0.50	1.10	 	 	 	 	 	 	 	 	 	 	 	 	 	 	 	 	 	 	1581519436	3.69	6.83
12/02/2020 14:57:17	120220	12022020	145717	91.52	12.418783	-57.052762	91.51	-0.570	-1.150	1.170	91.49	-2.30	1.60	 	 	 	 	 	 	 	 	 	 	 	 	 	 	 	 	 	 	1581519437	4.83	8.95
12/02/2020 14:57:18	120220	12022020	145718	91.38	12.418782	-57.052737	91.38	0.300	-2.670	1.470	91.36	-3.90	1.90	 	 	 	 	 	 	 	 	 	 	 	 	 	 	 	 	 	 	1581519438	5.46	10.11
12/02/2020 14:57:19	120220	12022020	145719	91.33	12.418782	-57.052713	91.35	0.840	-2.650	1.650	91.34	-4.00	2.10	 	 	 	 	 	 	 	 	 	 	 	 	 	 	 	 	 	 	1581519439	4.93	9.13
12/02/2020 14:57:20	120220	12022020	145720	91.40	12.418782	-57.052697	91.42	0.850	-1.090	1.570	91.43	-2.50	2.00	 	 	 	 	 	 	 	 	 	 	 	 	 	 	 	 	 	 	1581519440	3.48	6.44
12/02/2020 14:57:21	120220	12022020	145721	91.59	12.418783	-57.052685	91.62	0.510	0.780	1.160	91.64	-0.60	1.60	 	 	 	 	 	 	 	 	 	 	 	 	 	 	 	 	 	 	1581519441	2.54	4.70
12/02/2020 14:57:22	120220	12022020	145722	91.86	12.418787	-57.052672	91.88	0.060	1.820	0.580	91.91	0.50	1.00	 	 	 	 	 	 	 	 	 	 	 	 	 	 	 	 	 	 	1581519442	2.81	5.20
12/02/2020 14:57:23	120220	12022020	145723	92.09	12.418792	-57.052655	92.10	-0.220	1.530	0.060	92.14	0.30	0.50	 	 	 	 	 	 	 	 	 	 	 	 	 	 	 	 	 	 	1581519443	3.70	6.85
12/02/2020 14:57:24	120220	12022020	145724	92.30	12.418793	-57.052633	92.28	-0.150	0.280	-0.310	92.32	-1.00	0.10	 	 	 	 	 	 	 	 	 	 	 	 	 	 	 	 	 	 	1581519444	4.74	8.78
12/02/2020 14:57:25	120220	12022020	145725	92.29	12.418797	-57.052608	92.23	0.120	-0.930	-0.330	92.26	-2.20	0.10	 	 	 	 	 	 	 	 	 	 	 	 	 	 	 	 	 	 	1581519445	5.22	9.67
12/02/2020 14:57:26	120220	12022020	145726	92.10	12.418800	-57.052587	92.06	0.160	-1.170	-0.010	92.08	-2.50	0.40	 	 	 	 	 	 	 	 	 	 	 	 	 	 	 	 	 	 	1581519446	4.68	8.67
12/02/2020 14:57:27	120220	12022020	145727	92.11	12.418798	-57.052570	92.15	-0.190	-0.530	0.630	92.15	-1.90	1.00	 	 	 	 	 	 	 	 	 	 	 	 	 	 	 	 	 	 	1581519447	3.48	6.44
12/02/2020 14:57:28	120220	12022020	145728	92.48	12.418795	-57.052557	92.58	-0.560	0.090	1.330	92.58	-1.20	1.70	 	 	 	 	 	 	 	 	 	 	 	 	 	 	 	 	 	 	1581519448	2.97	5.50
12/02/2020 14:57:29	120220	12022020	145729	92.96	12.418790	-57.052540	93.04	-0.500	-0.070	1.890	93.01	-1.40	2.30	 	 	 	 	 	 	 	 	 	 	 	 	 	 	 	 	 	 	1581519449	3.52	6.52
12/02/2020 14:57:30	120220	12022020	145730	93.03	12.418785	-57.052520	93.04	0.030	-0.790	2.480	92.98	-2.10	2.90	 	 	 	 	 	 	 	 	 	 	 	 	 	 	 	 	 	 	1581519450	4.61	8.54
12/02/2020 14:57:31	120220	12022020	145731	92.57	12.418778	-57.052497	92.53	0.570	-1.180	3.120	92.44	-2.50	3.50	 	 	 	 	 	 	 	 	 	 	 	 	 	 	 	 	 	 	1581519451	5.04	9.33
12/02/2020 14:57:32	120220	12022020	145732	91.92	12.418775	-57.052475	91.89	0.730	-0.800	3.330	91.81	-2.10	3.70	 	 	 	 	 	 	 	 	 	 	 	 	 	 	 	 	 	 	1581519452	4.51	8.35
12/02/2020 14:57:33	120220	12022020	145733	91.58	12.418778	-57.052457	91.62	0.490	0.110	2.520	91.60	-1.30	3.00	 	 	 	 	 	 	 	 	 	 	 	 	 	 	 	 	 	 	1581519453	3.83	7.09
12/02/2020 14:57:34	120220	12022020	145734	91.95	12.418787	-57.052442	92.05	0.070	0.950	0.780	92.09	-0.40	1.30	 	 	 	 	 	 	 	 	 	 	 	 	 	 	 	 	 	 	1581519454	3.92	7.26
12/02/2020 14:57:35	120220	12022020	145735	92.71	12.418798	-57.052425	92.80	-0.330	1.140	-0.890	92.86	-0.20	-0.40	 	 	 	 	 	 	 	 	 	 	 	 	 	 	 	 	 	 	1581519455	4.31	7.98
12/02/2020 14:57:36	120220	12022020	145736	93.25	12.418805	-57.052405	93.25	-0.580	0.680	-1.590	93.29	-0.60	-1.10	 	 	 	 	 	 	 	 	 	 	 	 	 	 	 	 	 	 	1581519456	4.28	7.93
12/02/2020 14:57:37	120220	12022020	145737	93.26	12.418805	-57.052385	93.19	-0.600	0.010	-1.280	93.21	-1.30	-0.90	 	 	 	 	 	 	 	 	 	 	 	 	 	 	 	 	 	 	1581519457	4.21	7.80
12/02/2020 14:57:38	120220	12022020	145738	92.86	12.418802	-57.052367	92.76	-0.310	-0.700	-0.290	92.75	-2.00	0.10	 	 	 	 	 	 	 	 	 	 	 	 	 	 	 	 	 	 	1581519458	4.21	7.80
12/02/2020 14:57:39	120220	12022020	145739	92.26	12.418795	-57.052347	92.19	0.310	-1.620	0.980	92.14	-2.90	1.30	 	 	 	 	 	 	 	 	 	 	 	 	 	 	 	 	 	 	1581519459	4.52	8.37
12/02/2020 14:57:40	120220	12022020	145740	91.76	12.418790	-57.052322	91.77	0.960	-2.290	2.090	91.71	-3.60	2.40	 	 	 	 	 	 	 	 	 	 	 	 	 	 	 	 	 	 	1581519460	5.08	9.41
12/02/2020 14:57:41	120220	12022020	145741	91.64	12.418787	-57.052300	91.72	1.080	-1.720	2.620	91.66	-3.10	3.00	 	 	 	 	 	 	 	 	 	 	 	 	 	 	 	 	 	 	1581519461	4.91	9.09
12/02/2020 14:57:42	120220	12022020	145742	91.88	12.418787	-57.052283	91.99	0.470	0.160	2.480	91.96	-1.30	2.90	 	 	 	 	 	 	 	 	 	 	 	 	 	 	 	 	 	 	1581519462	3.48	6.44
12/02/2020 14:57:43	120220	12022020	145743	92.30	12.418788	-57.052272	92.40	-0.400	1.890	1.940	92.40	0.50	2.40	 	 	 	 	 	 	 	 	 	 	 	 	 	 	 	 	 	 	1581519463	2.48	4.59
12/02/2020 14:57:44	120220	12022020	145744	92.71	12.418792	-57.052258	92.79	-0.970	2.200	1.320	92.77	0.90	1.80	 	 	 	 	 	 	 	 	 	 	 	 	 	 	 	 	 	 	1581519464	2.99	5.54
12/02/2020 14:57:45	120220	12022020	145745	92.93	12.418793	-57.052238	92.96	-0.970	1.020	0.840	92.94	-0.20	1.30	 	 	 	 	 	 	 	 	 	 	 	 	 	 	 	 	 	 	1581519465	4.28	7.93
12/02/2020 14:57:46	120220	12022020	145746	92.88	12.418792	-57.052213	92.86	-0.500	-0.570	0.620	92.84	-1.80	1.00	 	 	 	 	 	 	 	 	 	 	 	 	 	 	 	 	 	 	1581519466	5.23	9.69
12/02/2020 14:57:47	120220	12022020	145747	92.59	12.418790	-57.052188	92.53	0.140	-1.490	0.660	92.51	-2.80	1.10	 	 	 	 	 	 	 	 	 	 	 	 	 	 	 	 	 	 	1581519467	5.11	9.46
12/02/2020 14:57:48	120220	12022020	145748	92.20	12.418790	-57.052168	92.16	0.560	-1.430	0.630	92.13	-2.80	1.10	 	 	 	 	 	 	 	 	 	 	 	 	 	 	 	 	 	 	1581519468	4.30	7.96
12/02/2020 14:57:49	120220	12022020	145749	91.96	12.418793	-57.052152	91.95	0.560	-0.840	0.470	91.94	-2.20	0.90	 	 	 	 	 	 	 	 	 	 	 	 	 	 	 	 	 	 	1581519469	3.67	6.80
12/02/2020 14:57:50	120220	12022020	145750	91.97	12.418797	-57.052135	92.01	0.250	-0.280	0.340	92.02	-1.60	0.80	 	 	 	 	 	 	 	 	 	 	 	 	 	 	 	 	 	 	1581519470	3.54	6.56
12/02/2020 14:57:51	120220	12022020	145751	92.27	12.418798	-57.052117	92.34	-0.030	-0.020	0.310	92.27	-1.40	0.70	 	 	 	 	 	 	 	 	 	 	 	 	 	 	 	 	 	 	1581519471	3.79	7.02
12/02/2020 14:57:52	120220	12022020	145752	92.58	12.418798	-57.052097	92.61	0.010	-0.090	0.520	92.62	-1.40	0.90	 	 	 	 	 	 	 	 	 	 	 	 	 	 	 	 	 	 	1581519472	4.17	7.72
12/02/2020 14:57:53	120220	12022020	145753	92.56	12.418793	-57.052075	92.54	0.390	-0.390	1.080	92.51	-1.70	1.40	 	 	 	 	 	 	 	 	 	 	 	 	 	 	 	 	 	 	1581519473	4.63	8.57
12/02/2020 14:57:54	120220	12022020	145754	92.24	12.418790	-57.052053	92.22	0.720	-0.520	1.750	92.19	-1.90	2.10	 	 	 	 	 	 	 	 	 	 	 	 	 	 	 	 	 	 	1581519474	4.94	9.15
12/02/2020 14:57:55	120220	12022020	145755	92.07	12.418787	-57.052032	92.09	0.530	0.000	1.980	92.08	-1.40	2.40	 	 	 	 	 	 	 	 	 	 	 	 	 	 	 	 	 	 	1581519475	4.50	8.33
12/02/2020 14:57:56	120220	12022020	145756	92.28	12.418790	-57.052015	92.35	-0.350	1.050	1.810	92.36	-0.40	2.20	 	 	 	 	 	 	 	 	 	 	 	 	 	 	 	 	 	 	1581519476	3.50	6.48
12/02/2020 14:57:57	120220	12022020	145757	92.73	12.418792	-57.052003	92.81	-1.460	1.760	1.600	92.82	0.40	2.00	 	 	 	 	 	 	 	 	 	 	 	 	 	 	 	 	 	 	1581519477	2.73	5.06
12/02/2020 14:57:58	120220	12022020	145758	93.07	12.418790	-57.051988	93.11	-1.900	1.150	1.420	93.10	-0.10	1.90	 	 	 	 	 	 	 	 	 	 	 	 	 	 	 	 	 	 	1581519478	3.04	5.63
12/02/2020 14:57:59	120220	12022020	145759	93.18	12.418787	-57.051967	93.19	-1.040	-0.910	1.110	93.18	-2.10	1.50	 	 	 	 	 	 	 	 	 	 	 	 	 	 	 	 	 	 	1581519479	4.58	8.48
12/02/2020 14:58:00	120220	12022020	145800	93.15	12.418785	-57.051938	93.14	0.670	-3.030	0.830	93.13	-4.30	1.30	 	 	 	 	 	 	 	 	 	 	 	 	 	 	 	 	 	 	1581519480	5.96	11.04
12/02/2020 14:58:01	120220	12022020	145801	92.97	12.418785	-57.051912	92.93	1.950	-3.420	0.770	92.92	-4.80	1.20	 	 	 	 	 	 	 	 	 	 	 	 	 	 	 	 	 	 	1581519481	5.79	10.72
12/02/2020 14:58:02	120220	12022020	145802	92.69	12.418785	-57.051892	92.64	1.900	-1.650	0.570	92.64	-3.10	1.00	1017.10	26.60	26.70	20.10	20.10	908.0	67.0	67.0	421.0	29.0	348.00	13.10	77.00	11.10	66919	11579.0	27.5	27.5	1581519482	4.06	7.52
12/02/2020 14:58:03	120220	12022020	145803	92.49	12.418790	-57.051882	92.47	0.760	1.020	0.190	92.49	-0.50	0.60	 	 	 	 	 	 	 	 	 	 	 	 	 	 	 	 	 	 	1581519483	2.51	4.65
12/02/2020 14:58:04	120220	12022020	145804	92.64	12.418793	-57.051872	92.68	-0.650	3.020	-0.160	92.71	1.60	0.30	 	 	 	 	 	 	 	 	 	 	 	 	 	 	 	 	 	 	1581519484	2.05	3.80
12/02/2020 14:58:05	120220	12022020	145805	93.01	12.418797	-57.051860	93.05	-1.600	3.300	-0.160	93.01	2.00	0.30	 	 	 	 	 	 	 	 	 	 	 	 	 	 	 	 	 	 	1581519485	2.57	4.76
12/02/2020 14:58:06	120220	12022020	145806	93.18	12.418793	-57.051842	93.18	-1.710	1.680	0.170	93.17	0.50	0.60	 	 	 	 	 	 	 	 	 	 	 	 	 	 	 	 	 	 	1581519486	3.99	7.39
12/02/2020 14:58:07	120220	12022020	145807	93.04	12.418790	-57.051817	93.04	-1.030	-0.940	0.520	93.01	-2.10	0.90	 	 	 	 	 	 	 	 	 	 	 	 	 	 	 	 	 	 	1581519487	5.36	9.93
12/02/2020 14:58:08	120220	12022020	145808	92.85	12.418785	-57.051790	92.87	0.080	-3.190	1.000	92.83	-4.40	1.40	 	 	 	 	 	 	 	 	 	 	 	 	 	 	 	 	 	 	1581519488	5.89	10.91
12/02/2020 14:58:09	120220	12022020	145809	92.80	12.418780	-57.051765	92.84	1.210	-3.750	1.550	92.79	-5.10	1.90	 	 	 	 	 	 	 	 	 	 	 	 	 	 	 	 	 	 	1581519489	5.33	9.87
12/02/2020 14:58:10	120220	12022020	145810	92.75	12.418777	-57.051747	92.79	1.760	-2.370	1.900	92.73	-3.80	2.30	 	 	 	 	 	 	 	 	 	 	 	 	 	 	 	 	 	 	1581519490	3.91	7.24
12/02/2020 14:58:11	120220	12022020	145811	92.60	12.418777	-57.051733	92.61	1.350	0.110	1.710	92.55	-1.40	2.10	 	 	 	 	 	 	 	 	 	 	 	 	 	 	 	 	 	 	1581519491	2.59	4.80
12/02/2020 14:58:12	120220	12022020	145812	92.33	12.418780	-57.051725	92.32	0.190	2.360	1.200	92.27	0.90	1.70	 	 	 	 	 	 	 	 	 	 	 	 	 	 	 	 	 	 	1581519492	2.06	3.82
12/02/2020 14:58:13	120220	12022020	145813	92.08	12.418783	-57.051713	92.07	-1.040	3.210	0.700	92.04	1.90	1.10	 	 	 	 	 	 	 	 	 	 	 	 	 	 	 	 	 	 	1581519493	2.40	4.44
12/02/2020 14:58:14	120220	12022020	145814	91.99	12.418785	-57.051698	92.01	-1.530	2.100	0.180	92.01	0.90	0.60	 	 	 	 	 	 	 	 	 	 	 	 	 	 	 	 	 	 	1581519494	3.48	6.44
12/02/2020 14:58:15	120220	12022020	145815	92.06	12.418787	-57.051673	92.05	-1.000	-0.550	-0.350	92.06	-1.70	0.10	 	 	 	 	 	 	 	 	 	 	 	 	 	 	 	 	 	 	1581519495	5.13	9.50
12/02/2020 14:58:16	120220	12022020	145816	91.92	12.418787	-57.051645	91.83	0.060	-3.090	-0.430	91.84	-4.30	-0.00	 	 	 	 	 	 	 	 	 	 	 	 	 	 	 	 	 	 	1581519496	6.18	11.45
12/02/2020 14:58:17	120220	12022020	145817	91.38	12.418785	-57.051618	91.28	0.810	-3.500	0.210	91.27	-4.90	0.60	 	 	 	 	 	 	 	 	 	 	 	 	 	 	 	 	 	 	1581519497	5.60	10.37
12/02/2020 14:58:18	120220	12022020	145818	90.90	12.418780	-57.051603	90.88	0.800	-1.450	1.170	90.85	-2.90	1.50	 	 	 	 	 	 	 	 	 	 	 	 	 	 	 	 	 	 	1581519498	3.35	6.20
12/02/2020 14:58:19	120220	12022020	145819	90.90	12.418777	-57.051597	90.96	0.210	1.290	1.770	90.96	-0.20	2.20	 	 	 	 	 	 	 	 	 	 	 	 	 	 	 	 	 	 	1581519499	1.55	2.87
12/02/2020 14:58:20	120220	12022020	145820	91.33	12.418775	-57.051590	91.41	-0.380	2.650	1.770	91.43	1.30	2.20	 	 	 	 	 	 	 	 	 	 	 	 	 	 	 	 	 	 	1581519500	1.35	2.50
12/02/2020 14:58:21	120220	12022020	145821	91.71	12.418777	-57.051575	91.75	-0.410	1.620	1.530	91.74	0.40	1.90	 	 	 	 	 	 	 	 	 	 	 	 	 	 	 	 	 	 	1581519501	3.11	5.76
12/02/2020 14:58:22	120220	12022020	145822	91.67	12.418777	-57.051550	91.63	0.180	-0.800	1.590	91.61	-2.00	2.00	 	 	 	 	 	 	 	 	 	 	 	 	 	 	 	 	 	 	1581519502	5.31	9.83
12/02/2020 14:58:23	120220	12022020	145823	91.34	12.418775	-57.051522	91.30	0.770	-2.470	2.050	91.26	-3.70	2.40	 	 	 	 	 	 	 	 	 	 	 	 	 	 	 	 	 	 	1581519503	6.00	11.11
12/02/2020 14:58:24	120220	12022020	145824	91.06	12.418772	-57.051500	91.06	0.830	-2.160	2.460	91.02	-3.50	2.90	 	 	 	 	 	 	 	 	 	 	 	 	 	 	 	 	 	 	1581519504	4.71	8.72
12/02/2020 14:58:25	120220	12022020	145825	90.95	12.418772	-57.051487	90.97	0.350	-0.510	2.390	90.94	-1.90	2.80	 	 	 	 	 	 	 	 	 	 	 	 	 	 	 	 	 	 	1581519505	2.86	5.30
12/02/2020 14:58:26	120220	12022020	145826	91.02	12.418773	-57.051477	91.06	-0.380	1.200	1.810	91.06	-0.20	2.30	 	 	 	 	 	 	 	 	 	 	 	 	 	 	 	 	 	 	1581519506	2.14	3.96
12/02/2020 14:58:27	120220	12022020	145827	91.30	12.418777	-57.051467	91.36	-1.030	2.120	0.940	91.38	0.80	1.40	 	 	 	 	 	 	 	 	 	 	 	 	 	 	 	 	 	 	1581519507	2.38	4.41
12/02/2020 14:58:28	120220	12022020	145828	91.70	12.418782	-57.051453	91.72	-1.220	1.620	-0.050	91.76	0.40	0.40	 	 	 	 	 	 	 	 	 	 	 	 	 	 	 	 	 	 	1581519508	3.07	5.69
12/02/2020 14:58:29	120220	12022020	145829	91.93	12.418787	-57.051433	91.92	-0.640	-0.360	-0.800	91.97	-1.60	-0.30	 	 	 	 	 	 	 	 	 	 	 	 	 	 	 	 	 	 	1581519509	4.35	8.06
12/02/2020 14:58:30	120220	12022020	145830	92.11	12.418788	-57.051407	92.10	0.490	-2.580	-1.090	92.15	-3.80	-0.70	 	 	 	 	 	 	 	 	 	 	 	 	 	 	 	 	 	 	1581519510	5.59	10.35
12/02/2020 14:58:31	120220	12022020	145831	92.22	12.418787	-57.051380	92.17	1.380	-3.170	-0.790	92.20	-4.50	-0.40	 	 	 	 	 	 	 	 	 	 	 	 	 	 	 	 	 	 	1581519511	5.47	10.13
12/02/2020 14:58:32	120220	12022020	145832	91.95	12.418783	-57.051363	91.84	1.330	-1.530	-0.040	91.85	-3.00	0.30	 	 	 	 	 	 	 	 	 	 	 	 	 	 	 	 	 	 	1581519512	3.70	6.85
12/02/2020 14:58:33	120220	12022020	145833	91.38	12.418778	-57.051355	91.28	0.470	0.870	0.710	91.26	-0.60	1.10	 	 	 	 	 	 	 	 	 	 	 	 	 	 	 	 	 	 	1581519513	2.03	3.76
12/02/2020 14:58:34	120220	12022020	145834	90.87	12.418778	-57.051347	90.82	-0.470	2.360	1.130	90.81	1.00	1.50	 	 	 	 	 	 	 	 	 	 	 	 	 	 	 	 	 	 	1581519514	1.76	3.26
12/02/2020 14:58:35	120220	12022020	145835	90.71	12.418780	-57.051333	90.74	-0.910	2.280	1.140	90.74	1.00	1.60	 	 	 	 	 	 	 	 	 	 	 	 	 	 	 	 	 	 	1581519515	2.84	5.26
12/02/2020 14:58:36	120220	12022020	145836	91.01	12.418783	-57.051313	91.08	-0.730	0.830	0.770	91.10	-0.40	1.20	 	 	 	 	 	 	 	 	 	 	 	 	 	 	 	 	 	 	1581519516	4.15	7.69
12/02/2020 14:58:37	120220	12022020	145837	91.40	12.418787	-57.051290	91.42	-0.180	-1.170	0.400	91.44	-2.40	0.80	 	 	 	 	 	 	 	 	 	 	 	 	 	 	 	 	 	 	1581519517	5.03	9.32
12/02/2020 14:58:38	120220	12022020	145838	91.41	12.418787	-57.051265	91.36	0.330	-2.510	0.650	91.35	-3.80	1.00	 	 	 	 	 	 	 	 	 	 	 	 	 	 	 	 	 	 	1581519518	5.16	9.56
12/02/2020 14:58:39	120220	12022020	145839	90.95	12.418780	-57.051245	90.89	0.550	-2.280	1.730	90.82	-3.60	2.10	 	 	 	 	 	 	 	 	 	 	 	 	 	 	 	 	 	 	1581519519	4.46	8.26
12/02/2020 14:58:40	120220	12022020	145840	90.38	12.418773	-57.051232	90.35	0.440	-0.690	2.800	90.29	-2.10	3.20	 	 	 	 	 	 	 	 	 	 	 	 	 	 	 	 	 	 	1581519520	3.36	6.22
12/02/2020 14:58:41	120220	12022020	145841	90.00	12.418768	-57.051222	90.00	0.110	1.020	3.110	90.00	-0.40	3.50	 	 	 	 	 	 	 	 	 	 	 	 	 	 	 	 	 	 	1581519521	2.24	4.15
12/02/2020 14:58:42	120220	12022020	145842	89.78	12.418770	-57.051210	89.77	-0.210	1.470	2.530	89.75	0.20	3.00	 	 	 	 	 	 	 	 	 	 	 	 	 	 	 	 	 	 	1581519522	2.51	4.65
12/02/2020 14:58:43	120220	12022020	145843	89.74	12.418777	-57.051192	89.74	-0.290	0.510	1.390	89.74	-0.70	1.90	 	 	 	 	 	 	 	 	 	 	 	 	 	 	 	 	 	 	1581519523	4.16	7.70
12/02/2020 14:58:44	120220	12022020	145844	89.90	12.418783	-57.051168	89.89	-0.150	-0.800	0.330	89.93	-2.10	0.80	 	 	 	 	 	 	 	 	 	 	 	 	 	 	 	 	 	 	1581519524	5.19	9.61
12/02/2020 14:58:45	120220	12022020	145845	89.98	12.418788	-57.051147	89.94	0.060	-1.230	-0.280	89.97	-2.60	0.20	 	 	 	 	 	 	 	 	 	 	 	 	 	 	 	 	 	 	1581519525	4.85	8.98
12/02/2020 14:58:46	120220	12022020	145846	89.89	12.418792	-57.051130	89.84	0.170	-0.560	-0.600	89.86	-1.90	-0.20	 	 	 	 	 	 	 	 	 	 	 	 	 	 	 	 	 	 	1581519526	3.64	6.74
12/02/2020 14:58:47	120220	12022020	145847	89.85	12.418793	-57.051117	89.83	0.080	0.420	-0.660	89.87	-0.90	-0.30	 	 	 	 	 	 	 	 	 	 	 	 	 	 	 	 	 	 	1581519527	2.73	5.06
12/02/2020 14:58:48	120220	12022020	145848	90.07	12.418795	-57.051103	90.10	-0.080	0.730	-0.310	90.14	-0.60	0.10	 	 	 	 	 	 	 	 	 	 	 	 	 	 	 	 	 	 	1581519528	2.74	5.07
12/02/2020 14:58:49	120220	12022020	145849	90.35	12.418793	-57.051087	90.37	-0.080	0.130	0.450	90.37	-1.10	0.80	 	 	 	 	 	 	 	 	 	 	 	 	 	 	 	 	 	 	1581519529	3.58	6.63
12/02/2020 14:58:50	120220	12022020	145850	90.29	12.418790	-57.051067	90.25	0.160	-0.880	1.520	90.23	-2.20	1.90	 	 	 	 	 	 	 	 	 	 	 	 	 	 	 	 	 	 	1581519530	4.47	8.28
12/02/2020 14:58:51	120220	12022020	145851	89.97	12.418785	-57.051045	89.96	0.510	-1.480	2.610	89.93	-2.80	3.00	 	 	 	 	 	 	 	 	 	 	 	 	 	 	 	 	 	 	1581519531	4.73	8.76
12/02/2020 14:58:52	120220	12022020	145852	89.89	12.418782	-57.051025	89.94	0.660	-1.230	3.240	89.91	-2.60	3.60	 	 	 	 	 	 	 	 	 	 	 	 	 	 	 	 	 	 	1581519532	4.23	7.83
12/02/2020 14:58:53	120220	12022020	145853	90.19	12.418782	-57.051008	90.28	0.340	-0.220	3.270	90.29	-1.60	3.70	 	 	 	 	 	 	 	 	 	 	 	 	 	 	 	 	 	 	1581519533	3.39	6.28
12/02/2020 14:58:54	120220	12022020	145854	90.75	12.418783	-57.050995	90.87	-0.380	0.950	2.810	90.87	-0.40	3.20	 	 	 	 	 	 	 	 	 	 	 	 	 	 	 	 	 	 	1581519534	2.73	5.06
12/02/2020 14:58:55	120220	12022020	145855	91.35	12.418785	-57.050983	91.43	-1.120	1.580	2.110	91.35	0.20	2.50	 	 	 	 	 	 	 	 	 	 	 	 	 	 	 	 	 	 	1581519535	2.63	4.87
12/02/2020 14:58:56	120220	12022020	145856	91.54	12.418787	-57.050968	91.50	-1.360	1.130	1.560	91.51	-0.10	2.00	 	 	 	 	 	 	 	 	 	 	 	 	 	 	 	 	 	 	1581519536	3.19	5.91
12/02/2020 14:58:57	120220	12022020	145857	91.21	12.418787	-57.050948	91.12	-0.830	-0.270	1.110	91.14	-1.50	1.60	 	 	 	 	 	 	 	 	 	 	 	 	 	 	 	 	 	 	1581519537	4.23	7.83
12/02/2020 14:58:58	120220	12022020	145858	90.97	12.418788	-57.050925	90.94	0.200	-1.730	0.300	90.99	-3.00	0.80	 	 	 	 	 	 	 	 	 	 	 	 	 	 	 	 	 	 	1581519538	5.04	9.33
12/02/2020 14:58:59	120220	12022020	145859	91.32	12.418797	-57.050902	91.36	1.110	-2.270	-0.880	91.45	-3.60	-0.40	 	 	 	 	 	 	 	 	 	 	 	 	 	 	 	 	 	 	1581519539	5.11	9.46
12/02/2020 14:59:00	120220	12022020	145900	91.97	12.418805	-57.050883	91.99	1.410	-1.590	-1.900	92.08	-3.00	-1.40	 	 	 	 	 	 	 	 	 	 	 	 	 	 	 	 	 	 	1581519540	4.45	8.24
12/02/2020 14:59:01	120220	12022020	145901	92.29	12.418812	-57.050868	92.21	1.030	-0.120	-2.180	92.29	-1.50	-1.80	 	 	 	 	 	 	 	 	 	 	 	 	 	 	 	 	 	 	1581519541	3.43	6.35
12/02/2020 14:59:02	120220	12022020	145902	92.13	12.418813	-57.050855	92.03	0.190	1.250	-1.430	92.07	-0.10	-1.10	1017.10	26.60	26.70	19.80	19.90	536.0	66.0	66.0	425.0	28.8	348.00	12.30	77.00	10.40	47646	16028.0	27.5	27.5	1581519542	2.65	4.91
12/02/2020 14:59:03	120220	12022020	145903	91.84	12.418808	-57.050842	91.79	-0.630	1.710	0.170	91.80	0.40	0.50	 	 	 	 	 	 	 	 	 	 	 	 	 	 	 	 	 	 	1581519543	3.00	5.56
12/02/2020 14:59:04	120220	12022020	145904	91.74	12.418800	-57.050825	91.77	-0.990	1.120	1.760	91.75	-0.10	2.10	 	 	 	 	 	 	 	 	 	 	 	 	 	 	 	 	 	 	1581519544	4.05	7.50
12/02/2020 14:59:05	120220	12022020	145905	91.87	12.418793	-57.050805	91.93	-0.800	-0.140	2.780	91.91	-1.40	3.10	 	 	 	 	 	 	 	 	 	 	 	 	 	 	 	 	 	 	1581519545	4.65	8.61
12/02/2020 14:59:06	120220	12022020	145906	92.02	12.418788	-57.050782	92.07	-0.360	-1.280	3.430	92.03	-2.50	3.80	 	 	 	 	 	 	 	 	 	 	 	 	 	 	 	 	 	 	1581519546	4.86	9.00
12/02/2020 14:59:07	120220	12022020	145907	91.95	12.418783	-57.050762	91.98	-0.040	-1.640	3.990	91.90	-2.90	4.30	 	 	 	 	 	 	 	 	 	 	 	 	 	 	 	 	 	 	1581519547	4.51	8.35
12/02/2020 14:59:08	120220	12022020	145908	91.62	12.418778	-57.050743	91.65	0.070	-1.180	4.330	91.54	-2.50	4.70	 	 	 	 	 	 	 	 	 	 	 	 	 	 	 	 	 	 	1581519548	3.81	7.06
12/02/2020 14:59:09	120220	12022020	145909	91.20	12.418777	-57.050728	91.23	0.150	-0.440	4.100	91.12	-1.80	4.50	 	 	 	 	 	 	 	 	 	 	 	 	 	 	 	 	 	 	1581519549	3.33	6.17
12/02/2020 14:59:10	120220	12022020	145910	90.83	12.418778	-57.050712	90.86	0.350	0.060	2.990	90.79	-1.30	3.50	 	 	 	 	 	 	 	 	 	 	 	 	 	 	 	 	 	 	1581519550	3.49	6.46
12/02/2020 14:59:11	120220	12022020	145911	90.76	12.418787	-57.050693	90.80	0.580	0.200	1.050	90.80	-1.10	1.60	 	 	 	 	 	 	 	 	 	 	 	 	 	 	 	 	 	 	1581519551	4.35	8.06
12/02/2020 14:59:12	120220	12022020	145912	91.07	12.418800	-57.050673	91.09	0.570	0.190	-1.040	91.16	-1.10	-0.50	 	 	 	 	 	 	 	 	 	 	 	 	 	 	 	 	 	 	1581519552	5.12	9.48
12/02/2020 14:59:13	120220	12022020	145913	91.48	12.418813	-57.050653	91.46	0.160	0.290	-2.480	91.56	-1.00	-2.00	 	 	 	 	 	 	 	 	 	 	 	 	 	 	 	 	 	 	1581519553	4.97	9.20
12/02/2020 14:59:14	120220	12022020	145914	91.76	12.418822	-57.050637	91.69	-0.500	0.600	-2.830	91.78	-0.70	-2.40	 	 	 	 	 	 	 	 	 	 	 	 	 	 	 	 	 	 	1581519554	3.94	7.30
12/02/2020 14:59:15	120220	12022020	145915	91.74	12.418820	-57.050622	91.63	-0.960	0.580	-2.010	91.69	-0.70	-1.70	 	 	 	 	 	 	 	 	 	 	 	 	 	 	 	 	 	 	1581519555	3.24	6.00
12/02/2020 14:59:16	120220	12022020	145916	91.41	12.418813	-57.050603	91.32	-0.820	-0.340	-0.390	91.34	-1.60	-0.10	 	 	 	 	 	 	 	 	 	 	 	 	 	 	 	 	 	 	1581519556	4.08	7.56
12/02/2020 14:59:17	120220	12022020	145917	91.12	12.418803	-57.050582	91.10	-0.180	-1.640	1.320	91.10	-2.90	1.60	 	 	 	 	 	 	 	 	 	 	 	 	 	 	 	 	 	 	1581519557	5.26	9.74
12/02/2020 14:59:18	120220	12022020	145918	91.20	12.418795	-57.050557	91.28	0.520	-2.200	2.570	91.26	-3.50	2.90	 	 	 	 	 	 	 	 	 	 	 	 	 	 	 	 	 	 	1581519558	5.38	9.96
12/02/2020 14:59:19	120220	12022020	145919	91.56	12.418790	-57.050537	91.67	0.810	-1.290	3.220	91.64	-2.70	3.60	 	 	 	 	 	 	 	 	 	 	 	 	 	 	 	 	 	 	1581519559	4.34	8.04
12/02/2020 14:59:20	120220	12022020	145920	91.92	12.418788	-57.050523	92.00	0.450	0.520	3.330	91.96	-0.90	3.70	 	 	 	 	 	 	 	 	 	 	 	 	 	 	 	 	 	 	1581519560	2.86	5.30
12/02/2020 14:59:21	120220	12022020	145921	91.96	12.418788	-57.050513	91.97	-0.200	1.760	3.080	91.92	0.40	3.50	 	 	 	 	 	 	 	 	 	 	 	 	 	 	 	 	 	 	1581519561	2.35	4.35
12/02/2020 14:59:22	120220	12022020	145922	91.63	12.418792	-57.050497	91.61	-0.520	1.450	2.540	91.56	0.20	3.00	 	 	 	 	 	 	 	 	 	 	 	 	 	 	 	 	 	 	1581519562	3.38	6.26
12/02/2020 14:59:23	120220	12022020	145923	91.42	12.418798	-57.050475	91.44	-0.350	0.140	1.530	91.44	-1.10	2.00	 	 	 	 	 	 	 	 	 	 	 	 	 	 	 	 	 	 	1581519563	4.91	9.09
12/02/2020 14:59:24	120220	12022020	145924	91.73	12.418805	-57.050450	91.79	-0.030	-1.050	0.130	91.84	-2.30	0.60	 	 	 	 	 	 	 	 	 	 	 	 	 	 	 	 	 	 	1581519564	5.50	10.19
12/02/2020 14:59:25	120220	12022020	145925	92.27	12.418813	-57.050428	92.29	0.020	-1.350	-1.040	92.35	-2.70	-0.60	 	 	 	 	 	 	 	 	 	 	 	 	 	 	 	 	 	 	1581519565	4.96	9.19
12/02/2020 14:59:26	120220	12022020	145926	92.47	12.418817	-57.050410	92.41	-0.280	-0.740	-1.370	92.45	-2.10	-0.90	 	 	 	 	 	 	 	 	 	 	 	 	 	 	 	 	 	 	1581519566	3.75	6.95
12/02/2020 14:59:27	120220	12022020	145927	92.23	12.418815	-57.050397	92.13	-0.550	0.070	-0.810	92.15	-1.30	-0.40	 	 	 	 	 	 	 	 	 	 	 	 	 	 	 	 	 	 	1581519567	2.89	5.35
12/02/2020 14:59:28	120220	12022020	145928	91.80	12.418810	-57.050382	91.71	-0.240	0.090	0.120	91.72	-1.20	0.50	 	 	 	 	 	 	 	 	 	 	 	 	 	 	 	 	 	 	1581519568	3.32	6.15
12/02/2020 14:59:29	120220	12022020	145929	91.45	12.418807	-57.050360	91.44	0.680	-0.760	0.910	91.42	-2.00	1.30	 	 	 	 	 	 	 	 	 	 	 	 	 	 	 	 	 	 	1581519569	4.57	8.46
12/02/2020 14:59:30	120220	12022020	145930	91.52	12.418807	-57.050335	91.59	1.310	-1.190	1.150	91.60	-2.50	1.60	 	 	 	 	 	 	 	 	 	 	 	 	 	 	 	 	 	 	1581519570	5.33	9.87
12/02/2020 14:59:31	120220	12022020	145931	92.09	12.418808	-57.050315	92.23	0.810	-0.210	1.130	92.09	-1.60	1.50	 	 	 	 	 	 	 	 	 	 	 	 	 	 	 	 	 	 	1581519571	4.27	7.91
12/02/2020 14:59:32	120220	12022020	145932	92.74	12.418810	-57.050303	92.85	-0.510	1.450	1.290	92.84	0.00	1.70	 	 	 	 	 	 	 	 	 	 	 	 	 	 	 	 	 	 	1581519572	2.44	4.52
12/02/2020 14:59:33	120220	12022020	145933	93.00	12.418808	-57.050295	93.03	-1.510	2.120	1.840	92.99	0.80	2.20	 	 	 	 	 	 	 	 	 	 	 	 	 	 	 	 	 	 	1581519573	1.96	3.63
12/02/2020 14:59:34	120220	12022020	145934	92.82	12.418803	-57.050280	92.83	-1.420	1.040	2.470	92.76	-0.20	2.80	 	 	 	 	 	 	 	 	 	 	 	 	 	 	 	 	 	 	1581519574	3.39	6.28
12/02/2020 14:59:35	120220	12022020	145935	92.48	12.418798	-57.050257	92.51	-0.460	-1.030	2.850	92.43	-2.20	3.20	 	 	 	 	 	 	 	 	 	 	 	 	 	 	 	 	 	 	1581519575	4.95	9.17
12/02/2020 14:59:36	120220	12022020	145936	92.42	12.418797	-57.050232	92.50	0.610	-2.640	2.650	92.46	-3.90	3.10	 	 	 	 	 	 	 	 	 	 	 	 	 	 	 	 	 	 	1581519576	5.50	10.19
12/02/2020 14:59:37	120220	12022020	145937	92.70	12.418800	-57.050208	92.79	1.110	-2.670	1.960	92.77	-4.00	2.40	 	 	 	 	 	 	 	 	 	 	 	 	 	 	 	 	 	 	1581519577	4.83	8.95
12/02/2020 14:59:38	120220	12022020	145938	92.94	12.418803	-57.050192	92.98	0.880	-1.220	1.160	92.96	-2.70	1.60	 	 	 	 	 	 	 	 	 	 	 	 	 	 	 	 	 	 	1581519578	3.49	6.46
12/02/2020 14:59:39	120220	12022020	145939	92.95	12.418808	-57.050182	92.96	0.260	0.670	0.510	92.94	-0.80	1.00	 	 	 	 	 	 	 	 	 	 	 	 	 	 	 	 	 	 	1581519579	2.60	4.82
12/02/2020 14:59:40	120220	12022020	145940	92.91	12.418812	-57.050170	92.93	-0.370	1.900	-0.080	92.92	0.50	0.40	 	 	 	 	 	 	 	 	 	 	 	 	 	 	 	 	 	 	1581519580	2.52	4.67
12/02/2020 14:59:41	120220	12022020	145941	92.96	12.418815	-57.050155	92.97	-0.720	1.860	-0.570	92.98	0.50	-0.10	 	 	 	 	 	 	 	 	 	 	 	 	 	 	 	 	 	 	1581519581	3.24	6.00
12/02/2020 14:59:42	120220	12022020	145942	93.09	12.418817	-57.050135	93.11	-0.710	0.870	-0.840	93.13	-0.40	-0.40	 	 	 	 	 	 	 	 	 	 	 	 	 	 	 	 	 	 	1581519582	4.15	7.69
12/02/2020 14:59:43	120220	12022020	145943	93.26	12.418818	-57.050113	93.27	-0.430	-0.340	-0.900	93.29	-1.60	-0.50	 	 	 	 	 	 	 	 	 	 	 	 	 	 	 	 	 	 	1581519583	4.51	8.35
12/02/2020 14:59:44	120220	12022020	145944	93.33	12.418818	-57.050093	93.32	0.040	-1.330	-0.660	93.33	-2.60	-0.30	 	 	 	 	 	 	 	 	 	 	 	 	 	 	 	 	 	 	1581519584	4.42	8.19
12/02/2020 14:59:45	120220	12022020	145945	93.21	12.418817	-57.050073	93.18	0.590	-1.830	0.080	93.21	-3.20	0.40	 	 	 	 	 	 	 	 	 	 	 	 	 	 	 	 	 	 	1581519585	4.21	7.80
12/02/2020 14:59:46	120220	12022020	145946	93.00	12.418813	-57.050055	93.00	0.920	-1.680	1.160	92.96	-3.00	1.50	 	 	 	 	 	 	 	 	 	 	 	 	 	 	 	 	 	 	1581519586	4.05	7.50
12/02/2020 14:59:47	120220	12022020	145947	92.82	12.418808	-57.050037	92.86	0.770	-0.920	2.260	92.80	-2.30	2.60	 	 	 	 	 	 	 	 	 	 	 	 	 	 	 	 	 	 	1581519587	3.82	7.07
12/02/2020 14:59:48	120220	12022020	145948	92.76	12.418803	-57.050022	92.84	0.180	0.220	2.920	92.76	-1.20	3.30	 	 	 	 	 	 	 	 	 	 	 	 	 	 	 	 	 	 	1581519588	3.43	6.35
12/02/2020 14:59:49	120220	12022020	145949	92.77	12.418800	-57.050008	92.84	-0.500	1.250	2.990	92.77	-0.20	3.40	 	 	 	 	 	 	 	 	 	 	 	 	 	 	 	 	 	 	1581519589	3.02	5.59
12/02/2020 14:59:50	120220	12022020	145950	92.75	12.418800	-57.049993	92.81	-0.940	1.580	2.570	92.76	0.20	3.00	 	 	 	 	 	 	 	 	 	 	 	 	 	 	 	 	 	 	1581519590	3.14	5.82
12/02/2020 14:59:51	120220	12022020	145951	92.85	12.418802	-57.049975	92.91	-1.030	1.020	1.820	92.89	-0.30	2.30	 	 	 	 	 	 	 	 	 	 	 	 	 	 	 	 	 	 	1581519591	3.75	6.95
12/02/2020 14:59:52	120220	12022020	145952	93.00	12.418803	-57.049955	93.02	-0.710	-0.210	1.050	93.01	-1.50	1.50	 	 	 	 	 	 	 	 	 	 	 	 	 	 	 	 	 	 	1581519592	4.34	8.04
12/02/2020 14:59:53	120220	12022020	145953	92.93	12.418805	-57.049932	92.90	0.050	-1.650	0.450	92.88	-2.90	0.90	 	 	 	 	 	 	 	 	 	 	 	 	 	 	 	 	 	 	1581519593	4.87	9.02
12/02/2020 14:59:54	120220	12022020	145954	92.73	12.418808	-57.049908	92.71	0.970	-2.310	-0.050	92.71	-3.60	0.40	 	 	 	 	 	 	 	 	 	 	 	 	 	 	 	 	 	 	1581519594	5.10	9.45
12/02/2020 14:59:55	120220	12022020	145955	92.80	12.418813	-57.049888	92.82	1.340	-1.350	-0.560	92.85	-2.80	-0.10	 	 	 	 	 	 	 	 	 	 	 	 	 	 	 	 	 	 	1581519595	4.28	7.93
12/02/2020 14:59:56	120220	12022020	145956	93.13	12.418817	-57.049875	93.17	0.840	0.390	-0.630	93.20	-1.00	-0.20	 	 	 	 	 	 	 	 	 	 	 	 	 	 	 	 	 	 	1581519596	2.85	5.28
12/02/2020 14:59:57	120220	12022020	145957	93.38	12.418818	-57.049865	93.41	-0.060	1.450	0.030	93.40	0.10	0.40	 	 	 	 	 	 	 	 	 	 	 	 	 	 	 	 	 	 	1581519597	2.30	4.26
12/02/2020 14:59:58	120220	12022020	145958	93.37	12.418813	-57.049850	93.40	-0.650	1.210	1.060	93.35	-0.10	1.40	 	 	 	 	 	 	 	 	 	 	 	 	 	 	 	 	 	 	1581519598	3.34	6.19
12/02/2020 14:59:59	120220	12022020	145959	93.25	12.418807	-57.049828	93.28	-0.640	0.060	2.040	93.22	-1.20	2.40	 	 	 	 	 	 	 	 	 	 	 	 	 	 	 	 	 	 	1581519599	4.62	8.56
12/02/2020 15:00:00	120220	12022020	150000	93.08	12.418800	-57.049805	93.11	-0.230	-1.020	2.890	93.04	-2.30	3.30	 	 	 	 	 	 	 	 	 	 	 	 	 	 	 	 	 	 	1581519600	5.15	9.54
12/02/2020 15:00:01	120220	12022020	150001	92.85	12.418793	-57.049785	92.88	0.170	-1.350	3.390	92.80	-2.70	3.80	 	 	 	 	 	 	 	 	 	 	 	 	 	 	 	 	 	 	1581519601	4.68	8.67
12/02/2020 15:00:02	120220	12022020	150002	92.63	12.418793	-57.049767	92.67	0.320	-0.940	3.290	92.60	-2.30	3.70	1017.10	26.60	26.70	20.00	20.10	527.0	67.0	67.0	429.0	28.7	346.00	12.10	76.00	10.10	46932	14959.0	27.5	27.5	1581519602	3.89	7.20
12/02/2020 15:00:03	120220	12022020	150003	92.68	12.418795	-57.049750	92.78	0.190	-0.190	2.590	92.74	-1.60	3.10	 	 	 	 	 	 	 	 	 	 	 	 	 	 	 	 	 	 	1581519603	3.48	6.44
12/02/2020 15:00:04	120220	12022020	150004	93.11	12.418800	-57.049733	93.22	-0.120	0.410	1.440	93.21	-1.00	1.90	 	 	 	 	 	 	 	 	 	 	 	 	 	 	 	 	 	 	1581519604	3.47	6.43
12/02/2020 15:00:05	120220	12022020	150005	93.53	12.418805	-57.049717	93.56	-0.350	0.590	0.270	93.57	-0.80	0.70	 	 	 	 	 	 	 	 	 	 	 	 	 	 	 	 	 	 	1581519605	3.71	6.87
12/02/2020 15:00:06	120220	12022020	150006	93.53	12.418807	-57.049698	93.50	-0.330	0.380	-0.320	93.48	-0.90	0.10	 	 	 	 	 	 	 	 	 	 	 	 	 	 	 	 	 	 	1581519606	3.93	7.28
12/02/2020 15:00:07	120220	12022020	150007	93.22	12.418808	-57.049678	93.17	-0.050	-0.160	-0.400	93.15	-1.50	0.00	 	 	 	 	 	 	 	 	 	 	 	 	 	 	 	 	 	 	1581519607	4.19	7.76
12/02/2020 15:00:08	120220	12022020	150008	92.98	12.418807	-57.049658	92.96	0.310	-0.820	-0.410	92.96	-2.10	0.00	 	 	 	 	 	 	 	 	 	 	 	 	 	 	 	 	 	 	1581519608	4.48	8.30
12/02/2020 15:00:09	120220	12022020	150009	92.93	12.418808	-57.049637	92.92	0.510	-1.070	-0.520	92.93	-2.40	-0.10	 	 	 	 	 	 	 	 	 	 	 	 	 	 	 	 	 	 	1581519609	4.54	8.41
12/02/2020 15:00:10	120220	12022020	150010	92.91	12.418810	-57.049617	92.89	0.410	-0.620	-0.300	92.90	-2.00	0.10	 	 	 	 	 	 	 	 	 	 	 	 	 	 	 	 	 	 	1581519610	4.02	7.45
12/02/2020 15:00:11	120220	12022020	150011	92.80	12.418810	-57.049602	92.79	0.130	0.150	0.380	92.77	-1.20	0.80	 	 	 	 	 	 	 	 	 	 	 	 	 	 	 	 	 	 	1581519611	3.35	6.20
12/02/2020 15:00:12	120220	12022020	150012	92.65	12.418807	-57.049587	92.68	-0.140	0.610	1.140	92.64	-0.70	1.50	 	 	 	 	 	 	 	 	 	 	 	 	 	 	 	 	 	 	1581519612	3.29	6.09
12/02/2020 15:00:13	120220	12022020	150013	92.64	12.418803	-57.049568	92.68	-0.210	0.350	1.700	92.65	-0.90	2.10	 	 	 	 	 	 	 	 	 	 	 	 	 	 	 	 	 	 	1581519613	3.85	7.13
12/02/2020 15:00:14	120220	12022020	150014	92.68	12.418800	-57.049547	92.73	-0.060	-0.460	2.210	92.68	-1.70	2.60	 	 	 	 	 	 	 	 	 	 	 	 	 	 	 	 	 	 	1581519614	4.61	8.54
12/02/2020 15:00:15	120220	12022020	150015	92.60	12.418795	-57.049523	92.64	0.130	-1.150	2.630	92.58	-2.40	3.00	 	 	 	 	 	 	 	 	 	 	 	 	 	 	 	 	 	 	1581519615	4.99	9.24
12/02/2020 15:00:16	120220	12022020	150016	92.46	12.418793	-57.049502	92.50	0.210	-1.070	2.670	92.44	-2.40	3.10	 	 	 	 	 	 	 	 	 	 	 	 	 	 	 	 	 	 	1581519616	4.64	8.59
12/02/2020 15:00:17	120220	12022020	150017	92.38	12.418792	-57.049483	92.42	0.100	-0.260	2.370	92.37	-1.60	2.80	 	 	 	 	 	 	 	 	 	 	 	 	 	 	 	 	 	 	1581519617	3.80	7.04
12/02/2020 15:00:18	120220	12022020	150018	92.32	12.418793	-57.049468	92.33	-0.130	0.610	1.950	92.31	-0.80	2.40	 	 	 	 	 	 	 	 	 	 	 	 	 	 	 	 	 	 	1581519618	3.31	6.13
12/02/2020 15:00:19	120220	12022020	150019	92.25	12.418795	-57.049452	92.24	-0.430	1.010	1.380	92.24	-0.30	1.80	 	 	 	 	 	 	 	 	 	 	 	 	 	 	 	 	 	 	1581519619	3.46	6.41
12/02/2020 15:00:20	120220	12022020	150020	92.20	12.418798	-57.049433	92.19	-0.620	0.850	0.530	92.20	-0.50	1.00	 	 	 	 	 	 	 	 	 	 	 	 	 	 	 	 	 	 	1581519620	3.85	7.13
12/02/2020 15:00:21	120220	12022020	150021	92.18	12.418803	-57.049415	92.15	-0.500	0.210	-0.210	92.18	-1.10	0.30	 	 	 	 	 	 	 	 	 	 	 	 	 	 	 	 	 	 	1581519621	4.25	7.87
12/02/2020 15:00:22	120220	12022020	150022	92.14	12.418808	-57.049393	92.11	-0.030	-0.760	-0.520	92.14	-2.00	-0.10	 	 	 	 	 	 	 	 	 	 	 	 	 	 	 	 	 	 	1581519622	4.56	8.45
12/02/2020 15:00:23	120220	12022020	150023	92.18	12.418810	-57.049370	92.17	0.590	-1.710	-0.680	92.20	-3.00	-0.20	 	 	 	 	 	 	 	 	 	 	 	 	 	 	 	 	 	 	1581519623	4.86	9.00
12/02/2020 15:00:24	120220	12022020	150024	92.26	12.418812	-57.049347	92.24	1.050	-2.130	-0.600	92.27	-3.40	-0.20	 	 	 	 	 	 	 	 	 	 	 	 	 	 	 	 	 	 	1581519624	4.97	9.20
12/02/2020 15:00:25	120220	12022020	150025	92.24	12.418812	-57.049325	92.21	1.100	-1.640	0.170	92.21	-3.00	0.50	 	 	 	 	 	 	 	 	 	 	 	 	 	 	 	 	 	 	1581519625	4.65	8.61
12/02/2020 15:00:26	120220	12022020	150026	92.12	12.418807	-57.049307	92.12	0.550	-0.220	1.410	92.09	-1.60	1.80	 	 	 	 	 	 	 	 	 	 	 	 	 	 	 	 	 	 	1581519626	4.07	7.54
12/02/2020 15:00:27	120220	12022020	150027	92.10	12.418800	-57.049292	92.16	-0.480	1.680	2.370	92.13	0.30	2.70	 	 	 	 	 	 	 	 	 	 	 	 	 	 	 	 	 	 	1581519627	3.28	6.07
12/02/2020 15:00:28	120220	12022020	150028	92.31	12.418795	-57.049282	92.39	-1.420	2.910	2.660	92.37	1.60	3.10	 	 	 	 	 	 	 	 	 	 	 	 	 	 	 	 	 	 	1581519628	2.65	4.91
12/02/2020 15:00:29	120220	12022020	150029	92.61	12.418793	-57.049267	92.68	-1.720	2.400	2.360	92.67	1.20	2.80	 	 	 	 	 	 	 	 	 	 	 	 	 	 	 	 	 	 	1581519629	3.12	5.78
12/02/2020 15:00:30	120220	12022020	150030	92.80	12.418795	-57.049243	92.82	-1.180	0.160	1.820	92.80	-1.00	2.30	 	 	 	 	 	 	 	 	 	 	 	 	 	 	 	 	 	 	1581519630	4.68	8.67
12/02/2020 15:00:31	120220	12022020	150031	92.71	12.418797	-57.049215	92.69	-0.070	-2.500	1.360	92.67	-3.70	1.80	 	 	 	 	 	 	 	 	 	 	 	 	 	 	 	 	 	 	1581519631	6.05	11.20
12/02/2020 15:00:32	120220	12022020	150032	92.55	12.418798	-57.049187	92.56	1.000	-3.700	0.940	92.54	-5.00	1.40	 	 	 	 	 	 	 	 	 	 	 	 	 	 	 	 	 	 	1581519632	6.08	11.26
12/02/2020 15:00:33	120220	12022020	150033	92.55	12.418800	-57.049165	92.56	1.480	-2.580	0.480	92.55	-4.00	0.90	 	 	 	 	 	 	 	 	 	 	 	 	 	 	 	 	 	 	1581519633	4.47	8.28
12/02/2020 15:00:34	120220	12022020	150034	92.47	12.418805	-57.049153	92.43	1.240	-0.350	0.160	92.42	-1.80	0.60	 	 	 	 	 	 	 	 	 	 	 	 	 	 	 	 	 	 	1581519634	2.87	5.32
12/02/2020 15:00:35	120220	12022020	150035	92.23	12.418808	-57.049142	92.19	0.560	1.390	0.040	92.23	-0.00	0.50	 	 	 	 	 	 	 	 	 	 	 	 	 	 	 	 	 	 	1581519635	2.61	4.83
12/02/2020 15:00:36	120220	12022020	150036	92.09	12.418810	-57.049125	92.09	-0.170	1.930	0.150	92.09	0.60	0.60	 	 	 	 	 	 	 	 	 	 	 	 	 	 	 	 	 	 	1581519636	3.38	6.26
12/02/2020 15:00:37	120220	12022020	150037	92.21	12.418810	-57.049105	92.25	-0.670	1.400	0.290	92.26	0.10	0.70	 	 	 	 	 	 	 	 	 	 	 	 	 	 	 	 	 	 	1581519637	4.32	8.00
12/02/2020 15:00:38	120220	12022020	150038	92.46	12.418810	-57.049082	92.49	-0.850	0.300	0.470	92.50	-1.00	0.90	 	 	 	 	 	 	 	 	 	 	 	 	 	 	 	 	 	 	1581519638	4.87	9.02
12/02/2020 15:00:39	120220	12022020	150039	92.59	12.418808	-57.049058	92.60	-0.790	-0.720	0.900	92.60	-2.00	1.30	 	 	 	 	 	 	 	 	 	 	 	 	 	 	 	 	 	 	1581519639	5.00	9.26
12/02/2020 15:00:40	120220	12022020	150040	92.51	12.418802	-57.049037	92.50	-0.580	-1.130	1.680	92.46	-2.40	2.00	 	 	 	 	 	 	 	 	 	 	 	 	 	 	 	 	 	 	1581519640	4.68	8.67
12/02/2020 15:00:41	120220	12022020	150041	92.21	12.418795	-57.049018	92.20	-0.250	-0.980	2.430	92.14	-2.30	2.80	 	 	 	 	 	 	 	 	 	 	 	 	 	 	 	 	 	 	1581519641	4.15	7.69
12/02/2020 15:00:42	120220	12022020	150042	91.87	12.418792	-57.049000	91.87	0.220	-0.720	2.680	91.82	-2.00	3.10	 	 	 	 	 	 	 	 	 	 	 	 	 	 	 	 	 	 	1581519642	3.81	7.06
12/02/2020 15:00:43	120220	12022020	150043	91.74	12.418793	-57.048982	91.77	0.740	-0.760	2.360	91.74	-2.10	2.80	 	 	 	 	 	 	 	 	 	 	 	 	 	 	 	 	 	 	1581519643	4.17	7.72
12/02/2020 15:00:44	120220	12022020	150044	91.76	12.418797	-57.048958	91.78	0.960	-0.830	1.730	91.77	-2.20	2.20	 	 	 	 	 	 	 	 	 	 	 	 	 	 	 	 	 	 	1581519644	4.83	8.95
12/02/2020 15:00:45	120220	12022020	150045	91.81	12.418802	-57.048937	91.81	0.580	-0.230	0.860	91.83	-1.60	1.30	 	 	 	 	 	 	 	 	 	 	 	 	 	 	 	 	 	 	1581519645	4.74	8.78
12/02/2020 15:00:46	120220	12022020	150046	91.97	12.418808	-57.048920	91.98	-0.240	0.990	0.010	92.03	-0.40	0.50	 	 	 	 	 	 	 	 	 	 	 	 	 	 	 	 	 	 	1581519646	3.82	7.07
12/02/2020 15:00:47	120220	12022020	150047	92.32	12.418813	-57.048907	92.35	-0.960	1.730	-0.470	92.40	0.40	-0.00	 	 	 	 	 	 	 	 	 	 	 	 	 	 	 	 	 	 	1581519647	3.01	5.57
12/02/2020 15:00:48	120220	12022020	150048	92.58	12.418812	-57.048890	92.56	-1.000	1.030	-0.450	92.59	-0.20	-0.00	 	 	 	 	 	 	 	 	 	 	 	 	 	 	 	 	 	 	1581519648	3.55	6.57
12/02/2020 15:00:49	120220	12022020	150049	92.49	12.418808	-57.048867	92.42	-0.230	-0.770	0.010	92.43	-2.00	0.40	 	 	 	 	 	 	 	 	 	 	 	 	 	 	 	 	 	 	1581519649	5.07	9.39
12/02/2020 15:00:50	120220	12022020	150050	92.13	12.418805	-57.048838	92.07	0.760	-2.130	0.630	92.06	-3.40	1.00	 	 	 	 	 	 	 	 	 	 	 	 	 	 	 	 	 	 	1581519650	5.84	10.82
12/02/2020 15:00:51	120220	12022020	150051	91.87	12.418805	-57.048815	91.86	1.120	-1.930	1.240	91.85	-3.30	1.60	 	 	 	 	 	 	 	 	 	 	 	 	 	 	 	 	 	 	1581519651	4.97	9.20
12/02/2020 15:00:52	120220	12022020	150052	91.98	12.418805	-57.048798	92.07	0.640	-0.600	1.770	92.07	-2.00	2.20	 	 	 	 	 	 	 	 	 	 	 	 	 	 	 	 	 	 	1581519652	3.48	6.44
12/02/2020 15:00:53	120220	12022020	150053	92.56	12.418803	-57.048785	92.69	-0.160	0.740	2.030	92.69	-0.70	2.40	 	 	 	 	 	 	 	 	 	 	 	 	 	 	 	 	 	 	1581519653	2.79	5.17
12/02/2020 15:00:54	120220	12022020	150054	93.03	12.418802	-57.048770	93.08	-0.630	1.160	2.280	93.05	-0.20	2.70	 	 	 	 	 	 	 	 	 	 	 	 	 	 	 	 	 	 	1581519654	3.18	5.89
12/02/2020 15:00:55	120220	12022020	150055	92.89	12.418798	-57.048750	92.87	-0.590	0.500	2.560	92.82	-0.80	3.00	 	 	 	 	 	 	 	 	 	 	 	 	 	 	 	 	 	 	1581519655	4.33	8.02
12/02/2020 15:00:56	120220	12022020	150056	92.64	12.418795	-57.048727	92.67	-0.330	-0.370	2.570	92.63	-1.70	3.00	 	 	 	 	 	 	 	 	 	 	 	 	 	 	 	 	 	 	1581519656	5.14	9.52
12/02/2020 15:00:57	120220	12022020	150057	92.80	12.418795	-57.048703	92.90	-0.120	-0.580	2.160	92.88	-1.90	2.60	 	 	 	 	 	 	 	 	 	 	 	 	 	 	 	 	 	 	1581519657	4.80	8.89
12/02/2020 15:00:58	120220	12022020	150058	93.22	12.418795	-57.048685	93.29	-0.000	-0.200	1.310	93.29	-1.50	1.80	 	 	 	 	 	 	 	 	 	 	 	 	 	 	 	 	 	 	1581519658	3.87	7.17
12/02/2020 15:00:59	120220	12022020	150059	93.36	12.418800	-57.048668	93.33	0.190	-0.150	0.380	93.36	-1.40	0.90	 	 	 	 	 	 	 	 	 	 	 	 	 	 	 	 	 	 	1581519659	3.71	6.87
12/02/2020 15:01:00	120220	12022020	150100	93.00	12.418805	-57.048647	92.91	0.570	-0.790	-0.170	92.91	-2.10	0.30	 	 	 	 	 	 	 	 	 	 	 	 	 	 	 	 	 	 	1581519660	4.57	8.46
12/02/2020 15:01:01	120220	12022020	150101	92.67	12.418808	-57.048622	92.64	0.760	-1.190	-0.350	92.66	-2.50	0.10	 	 	 	 	 	 	 	 	 	 	 	 	 	 	 	 	 	 	1581519661	5.29	9.80
12/02/2020 15:01:02	120220	12022020	150102	92.86	12.418810	-57.048602	92.90	0.400	-0.400	-0.380	92.95	-1.80	0.10	1017.10	26.70	26.70	20.40	20.50	543.0	68.0	68.0	433.0	28.7	347.00	11.90	77.00	9.80	47250	11833.0	27.5	27.5	1581519662	4.52	8.37
12/02/2020 15:01:03	120220	12022020	150103	93.40	12.418810	-57.048587	93.45	-0.370	0.930	-0.340	93.50	-0.50	0.10	 	 	 	 	 	 	 	 	 	 	 	 	 	 	 	 	 	 	1581519663	3.09	5.72
12/02/2020 15:01:04	120220	12022020	150104	93.75	12.418807	-57.048573	93.74	-0.890	1.380	0.050	93.76	0.10	0.40	 	 	 	 	 	 	 	 	 	 	 	 	 	 	 	 	 	 	1581519664	2.84	5.26
12/02/2020 15:01:05	120220	12022020	150105	93.63	12.418802	-57.048555	93.61	-0.640	0.340	0.900	93.58	-0.90	1.30	 	 	 	 	 	 	 	 	 	 	 	 	 	 	 	 	 	 	1581519665	4.21	7.80
12/02/2020 15:01:06	120220	12022020	150106	93.35	12.418795	-57.048528	93.36	0.090	-1.180	1.870	93.30	-2.40	2.20	 	 	 	 	 	 	 	 	 	 	 	 	 	 	 	 	 	 	1581519666	5.63	10.43
12/02/2020 15:01:07	120220	12022020	150107	93.22	12.418790	-57.048502	93.29	0.610	-1.800	2.590	93.22	-3.10	3.00	 	 	 	 	 	 	 	 	 	 	 	 	 	 	 	 	 	 	1581519667	5.62	10.41
12/02/2020 15:01:08	120220	12022020	150108	93.25	12.418785	-57.048482	93.31	0.570	-1.130	2.820	93.25	-2.50	3.30	 	 	 	 	 	 	 	 	 	 	 	 	 	 	 	 	 	 	1581519668	4.43	8.20
12/02/2020 15:01:09	120220	12022020	150109	93.26	12.418785	-57.048467	93.32	0.140	0.160	2.580	93.26	-1.20	3.00	 	 	 	 	 	 	 	 	 	 	 	 	 	 	 	 	 	 	1581519669	3.30	6.11
12/02/2020 15:01:10	120220	12022020	150110	93.27	12.418785	-57.048452	93.30	-0.300	1.040	1.940	93.27	-0.30	2.40	 	 	 	 	 	 	 	 	 	 	 	 	 	 	 	 	 	 	1581519670	3.07	5.69
12/02/2020 15:01:11	120220	12022020	150111	93.24	12.418787	-57.048433	93.22	-0.360	0.800	1.090	93.24	-0.50	1.60	 	 	 	 	 	 	 	 	 	 	 	 	 	 	 	 	 	 	1581519671	3.87	7.17
12/02/2020 15:01:12	120220	12022020	150112	93.15	12.418792	-57.048410	93.12	-0.020	-0.160	0.110	93.13	-1.40	0.60	 	 	 	 	 	 	 	 	 	 	 	 	 	 	 	 	 	 	1581519672	5.06	9.37
12/02/2020 15:01:13	120220	12022020	150113	93.05	12.418798	-57.048385	93.01	0.330	-0.900	-0.720	93.04	-2.20	-0.20	 	 	 	 	 	 	 	 	 	 	 	 	 	 	 	 	 	 	1581519673	5.49	10.17
12/02/2020 15:01:14	120220	12022020	150114	92.98	12.418802	-57.048362	92.93	0.330	-0.800	-0.960	92.98	-2.10	-0.50	 	 	 	 	 	 	 	 	 	 	 	 	 	 	 	 	 	 	1581519674	4.86	9.00
12/02/2020 15:01:15	120220	12022020	150115	93.07	12.418802	-57.048345	93.05	-0.120	0.050	-0.570	93.10	-1.30	-0.10	 	 	 	 	 	 	 	 	 	 	 	 	 	 	 	 	 	 	1581519675	3.75	6.95
12/02/2020 15:01:16	120220	12022020	150116	93.25	12.418797	-57.048330	93.24	-0.660	0.770	0.220	93.27	-0.60	0.60	 	 	 	 	 	 	 	 	 	 	 	 	 	 	 	 	 	 	1581519676	3.23	5.98
12/02/2020 15:01:17	120220	12022020	150117	93.23	12.418790	-57.048313	93.18	-0.730	0.390	1.150	93.18	-0.90	1.50	 	 	 	 	 	 	 	 	 	 	 	 	 	 	 	 	 	 	1581519677	3.84	7.11
12/02/2020 15:01:18	120220	12022020	150118	92.77	12.418782	-57.048290	92.68	-0.120	-1.040	2.190	92.63	-2.30	2.60	 	 	 	 	 	 	 	 	 	 	 	 	 	 	 	 	 	 	1581519678	5.26	9.74
12/02/2020 15:01:19	120220	12022020	150119	92.04	12.418773	-57.048262	91.99	0.780	-2.130	3.160	91.92	-3.40	3.50	 	 	 	 	 	 	 	 	 	 	 	 	 	 	 	 	 	 	1581519679	6.12	11.33
12/02/2020 15:01:20	120220	12022020	150120	91.64	12.418770	-57.048237	91.68	1.290	-1.670	3.350	91.64	-3.00	3.80	 	 	 	 	 	 	 	 	 	 	 	 	 	 	 	 	 	 	1581519680	5.41	10.02
12/02/2020 15:01:21	120220	12022020	150121	91.84	12.418773	-57.048220	91.92	0.920	0.180	2.470	91.92	-1.20	3.00	 	 	 	 	 	 	 	 	 	 	 	 	 	 	 	 	 	 	1581519681	3.77	6.98
12/02/2020 15:01:22	120220	12022020	150122	92.33	12.418782	-57.048207	92.39	-0.160	1.990	1.110	92.42	0.60	1.60	 	 	 	 	 	 	 	 	 	 	 	 	 	 	 	 	 	 	1581519682	3.05	5.65
12/02/2020 15:01:23	120220	12022020	150123	92.67	12.418788	-57.048195	92.65	-1.240	2.350	0.080	92.70	1.00	0.60	 	 	 	 	 	 	 	 	 	 	 	 	 	 	 	 	 	 	1581519683	3.14	5.82
12/02/2020 15:01:24	120220	12022020	150124	92.68	12.418790	-57.048175	92.62	-1.540	0.940	-0.410	92.65	-0.30	0.10	 	 	 	 	 	 	 	 	 	 	 	 	 	 	 	 	 	 	1581519684	4.19	7.76
12/02/2020 15:01:25	120220	12022020	150125	92.43	12.418787	-57.048148	92.34	-0.860	-1.200	-0.420	92.43	-2.40	0.00	 	 	 	 	 	 	 	 	 	 	 	 	 	 	 	 	 	 	1581519685	5.56	10.30
12/02/2020 15:01:26	120220	12022020	150126	92.01	12.418783	-57.048122	91.92	0.250	-2.600	-0.130	91.93	-3.90	0.30	 	 	 	 	 	 	 	 	 	 	 	 	 	 	 	 	 	 	1581519686	5.88	10.89
12/02/2020 15:01:27	120220	12022020	150127	91.59	12.418780	-57.048098	91.53	0.960	-2.360	0.230	91.53	-3.70	0.70	 	 	 	 	 	 	 	 	 	 	 	 	 	 	 	 	 	 	1581519687	4.90	9.07
12/02/2020 15:01:28	120220	12022020	150128	91.31	12.418778	-57.048082	91.29	0.910	-0.940	0.480	91.26	-2.40	0.90	 	 	 	 	 	 	 	 	 	 	 	 	 	 	 	 	 	 	1581519688	3.47	6.43
12/02/2020 15:01:29	120220	12022020	150129	91.15	12.418780	-57.048068	91.15	0.420	0.470	0.550	91.14	-0.90	1.00	 	 	 	 	 	 	 	 	 	 	 	 	 	 	 	 	 	 	1581519689	2.91	5.39
12/02/2020 15:01:30	120220	12022020	150130	91.17	12.418782	-57.048052	91.17	-0.070	1.160	0.590	91.18	-0.20	1.00	 	 	 	 	 	 	 	 	 	 	 	 	 	 	 	 	 	 	1581519690	3.39	6.28
12/02/2020 15:01:31	120220	12022020	150131	91.30	12.418782	-57.048033	91.30	-0.390	1.200	0.690	91.33	-0.10	1.10	 	 	 	 	 	 	 	 	 	 	 	 	 	 	 	 	 	 	1581519691	4.00	7.41
12/02/2020 15:01:32	120220	12022020	150132	91.45	12.418780	-57.048013	91.45	-0.510	0.780	0.950	91.47	-0.50	1.40	 	 	 	 	 	 	 	 	 	 	 	 	 	 	 	 	 	 	1581519692	4.24	7.85
12/02/2020 15:01:33	120220	12022020	150133	91.45	12.418778	-57.047992	91.43	-0.330	-0.050	1.430	91.42	-1.30	1.80	 	 	 	 	 	 	 	 	 	 	 	 	 	 	 	 	 	 	1581519693	4.45	8.24
12/02/2020 15:01:34	120220	12022020	150134	91.29	12.418775	-57.047970	91.27	0.040	-0.970	1.810	91.26	-2.30	2.20	 	 	 	 	 	 	 	 	 	 	 	 	 	 	 	 	 	 	1581519694	4.77	8.83
12/02/2020 15:01:35	120220	12022020	150135	91.22	12.418775	-57.047947	91.24	0.280	-1.360	1.970	91.23	-2.70	2.40	 	 	 	 	 	 	 	 	 	 	 	 	 	 	 	 	 	 	1581519695	4.66	8.63
12/02/2020 15:01:36	120220	12022020	150136	91.24	12.418773	-57.047928	91.26	0.220	-1.000	2.250	91.23	-2.30	2.70	 	 	 	 	 	 	 	 	 	 	 	 	 	 	 	 	 	 	1581519696	4.04	7.48
12/02/2020 15:01:37	120220	12022020	150137	91.09	12.418770	-57.047912	91.08	0.050	-0.340	2.470	91.04	-1.70	2.90	 	 	 	 	 	 	 	 	 	 	 	 	 	 	 	 	 	 	1581519697	3.48	6.44
12/02/2020 15:01:38	120220	12022020	150138	90.78	12.418768	-57.047895	90.74	0.090	-0.090	2.260	90.71	-1.40	2.70	 	 	 	 	 	 	 	 	 	 	 	 	 	 	 	 	 	 	1581519698	3.58	6.63
12/02/2020 15:01:39	120220	12022020	150139	90.45	12.418772	-57.047875	90.40	0.350	-0.390	1.710	90.40	-1.70	2.20	 	 	 	 	 	 	 	 	 	 	 	 	 	 	 	 	 	 	1581519699	4.45	8.24
12/02/2020 15:01:40	120220	12022020	150140	90.30	12.418777	-57.047852	90.29	0.330	-0.350	1.030	90.32	-1.70	1.50	 	 	 	 	 	 	 	 	 	 	 	 	 	 	 	 	 	 	1581519700	4.94	9.15
12/02/2020 15:01:41	120220	12022020	150141	90.54	12.418782	-57.047833	90.56	-0.270	0.630	0.350	90.63	-0.80	0.80	 	 	 	 	 	 	 	 	 	 	 	 	 	 	 	 	 	 	1581519701	3.97	7.35
12/02/2020 15:01:42	120220	12022020	150142	91.03	12.418783	-57.047822	91.03	-1.030	1.700	-0.220	91.13	0.30	0.30	 	 	 	 	 	 	 	 	 	 	 	 	 	 	 	 	 	 	1581519702	2.64	4.89
12/02/2020 15:01:43	120220	12022020	150143	91.41	12.418785	-57.047808	91.37	-1.140	1.340	-0.430	91.46	0.10	0.00	 	 	 	 	 	 	 	 	 	 	 	 	 	 	 	 	 	 	1581519703	2.70	5.00
12/02/2020 15:01:44	120220	12022020	150144	91.49	12.418783	-57.047787	91.42	-0.250	-0.800	-0.260	91.47	-2.00	0.20	 	 	 	 	 	 	 	 	 	 	 	 	 	 	 	 	 	 	1581519704	4.52	8.37
12/02/2020 15:01:45	120220	12022020	150145	91.29	12.418782	-57.047758	91.22	0.930	-2.830	0.250	91.23	-4.10	0.70	 	 	 	 	 	 	 	 	 	 	 	 	 	 	 	 	 	 	1581519705	6.12	11.33
12/02/2020 15:01:46	120220	12022020	150146	90.95	12.418778	-57.047733	90.89	1.320	-2.660	1.050	90.87	-4.00	1.40	 	 	 	 	 	 	 	 	 	 	 	 	 	 	 	 	 	 	1581519706	5.27	9.76
12/02/2020 15:01:47	120220	12022020	150147	90.63	12.418777	-57.047720	90.58	0.710	-0.550	1.750	90.63	-2.00	2.20	 	 	 	 	 	 	 	 	 	 	 	 	 	 	 	 	 	 	1581519707	2.91	5.39
12/02/2020 15:01:48	120220	12022020	150148	90.52	12.418777	-57.047713	90.52	-0.200	1.590	1.850	90.55	0.20	2.30	 	 	 	 	 	 	 	 	 	 	 	 	 	 	 	 	 	 	1581519708	1.53	2.83
12/02/2020 15:01:49	120220	12022020	150149	90.80	12.418778	-57.047703	90.84	-0.690	2.180	1.310	90.80	0.80	1.80	 	 	 	 	 	 	 	 	 	 	 	 	 	 	 	 	 	 	1581519709	2.24	4.15
12/02/2020 15:01:50	120220	12022020	150150	91.19	12.418782	-57.047685	91.18	-0.630	1.100	0.740	91.24	-0.20	1.20	 	 	 	 	 	 	 	 	 	 	 	 	 	 	 	 	 	 	1581519710	3.87	7.17
12/02/2020 15:01:51	120220	12022020	150151	91.28	12.418783	-57.047662	91.22	-0.280	-0.590	0.500	91.26	-1.90	0.90	 	 	 	 	 	 	 	 	 	 	 	 	 	 	 	 	 	 	1581519711	4.99	9.24
12/02/2020 15:01:52	120220	12022020	150152	91.09	12.418782	-57.047637	91.02	0.030	-1.690	0.570	91.04	-3.00	1.00	 	 	 	 	 	 	 	 	 	 	 	 	 	 	 	 	 	 	1581519712	5.02	9.30
12/02/2020 15:01:53	120220	12022020	150153	90.78	12.418780	-57.047618	90.71	0.130	-1.570	0.840	90.71	-2.90	1.20	 	 	 	 	 	 	 	 	 	 	 	 	 	 	 	 	 	 	1581519713	4.17	7.72
12/02/2020 15:01:54	120220	12022020	150154	90.60	12.418778	-57.047603	90.60	0.000	-0.520	1.040	90.62	-1.90	1.50	 	 	 	 	 	 	 	 	 	 	 	 	 	 	 	 	 	 	1581519714	3.03	5.61
12/02/2020 15:01:55	120220	12022020	150155	90.77	12.418778	-57.047592	90.80	-0.210	0.590	1.030	90.82	-0.80	1.50	 	 	 	 	 	 	 	 	 	 	 	 	 	 	 	 	 	 	1581519715	2.39	4.43
12/02/2020 15:01:56	120220	12022020	150156	90.99	12.418778	-57.047580	90.98	-0.240	0.930	0.890	91.02	-0.40	1.30	 	 	 	 	 	 	 	 	 	 	 	 	 	 	 	 	 	 	1581519716	2.60	4.82
12/02/2020 15:01:57	120220	12022020	150157	90.97	12.418780	-57.047563	90.88	0.110	0.210	0.720	90.92	-1.10	1.20	 	 	 	 	 	 	 	 	 	 	 	 	 	 	 	 	 	 	1581519717	3.59	6.65
12/02/2020 15:01:58	120220	12022020	150158	90.63	12.418782	-57.047542	90.52	0.650	-0.890	0.760	90.55	-2.20	1.20	 	 	 	 	 	 	 	 	 	 	 	 	 	 	 	 	 	 	1581519718	4.59	8.50
12/02/2020 15:01:59	120220	12022020	150159	90.34	12.418785	-57.047520	90.30	0.910	-1.370	1.000	90.32	-2.70	1.40	 	 	 	 	 	 	 	 	 	 	 	 	 	 	 	 	 	 	1581519719	4.65	8.61
12/02/2020 15:02:00	120220	12022020	150200	90.46	12.418785	-57.047502	90.50	0.620	-0.900	1.170	90.54	-2.30	1.60	 	 	 	 	 	 	 	 	 	 	 	 	 	 	 	 	 	 	1581519720	3.84	7.11
12/02/2020 15:02:01	120220	12022020	150201	90.91	12.418785	-57.047488	90.96	-0.040	0.080	1.230	90.91	-1.30	1.70	 	 	 	 	 	 	 	 	 	 	 	 	 	 	 	 	 	 	1581519721	2.96	5.48
12/02/2020 15:02:02	120220	12022020	150202	91.25	12.418785	-57.047475	91.26	-0.690	0.930	1.350	91.29	-0.50	1.80	1017.00	26.60	26.70	20.50	20.50	564.0	68.0	69.0	436.0	28.7	353.00	12.30	84.00	10.30	48097	10535.0	27.5	27.4	1581519722	2.60	4.82
12/02/2020 15:02:03	120220	12022020	150203	91.38	12.418782	-57.047462	91.38	-0.980	1.130	1.490	91.40	-0.20	1.90	 	 	 	 	 	 	 	 	 	 	 	 	 	 	 	 	 	 	1581519723	2.82	5.22
12/02/2020 15:02:04	120220	12022020	150204	91.34	12.418780	-57.047447	91.30	-0.750	0.430	1.670	91.29	-0.90	2.10	 	 	 	 	 	 	 	 	 	 	 	 	 	 	 	 	 	 	1581519724	3.45	6.39
12/02/2020 15:02:05	120220	12022020	150205	91.02	12.418777	-57.047427	90.96	-0.040	-0.880	1.900	90.94	-2.10	2.30	 	 	 	 	 	 	 	 	 	 	 	 	 	 	 	 	 	 	1581519725	4.29	7.95
12/02/2020 15:02:06	120220	12022020	150206	90.70	12.418777	-57.047403	90.67	0.690	-1.790	1.840	90.67	-3.10	2.30	 	 	 	 	 	 	 	 	 	 	 	 	 	 	 	 	 	 	1581519726	4.75	8.80
12/02/2020 15:02:07	120220	12022020	150207	90.77	12.418780	-57.047383	90.81	0.860	-1.350	1.240	90.84	-2.70	1.70	 	 	 	 	 	 	 	 	 	 	 	 	 	 	 	 	 	 	1581519727	4.16	7.70
12/02/2020 15:02:08	120220	12022020	150208	91.21	12.418787	-57.047372	91.28	0.300	0.100	0.550	91.32	-1.30	1.00	 	 	 	 	 	 	 	 	 	 	 	 	 	 	 	 	 	 	1581519728	2.86	5.30
12/02/2020 15:02:09	120220	12022020	150209	91.68	12.418790	-57.047363	91.69	-0.460	1.130	0.300	91.74	-0.20	0.70	 	 	 	 	 	 	 	 	 	 	 	 	 	 	 	 	 	 	1581519729	2.05	3.80
12/02/2020 15:02:10	120220	12022020	150210	91.84	12.418788	-57.047350	91.80	-0.630	0.770	0.580	91.82	-0.50	1.00	 	 	 	 	 	 	 	 	 	 	 	 	 	 	 	 	 	 	1581519730	2.77	5.13
12/02/2020 15:02:11	120220	12022020	150211	91.63	12.418785	-57.047330	91.58	-0.030	-0.510	1.060	91.57	-1.80	1.50	 	 	 	 	 	 	 	 	 	 	 	 	 	 	 	 	 	 	1581519731	4.32	8.00
12/02/2020 15:02:12	120220	12022020	150212	91.35	12.418783	-57.047307	91.31	0.680	-1.320	1.380	91.30	-2.60	1.80	 	 	 	 	 	 	 	 	 	 	 	 	 	 	 	 	 	 	1581519732	4.82	8.93
12/02/2020 15:02:13	120220	12022020	150213	91.23	12.418783	-57.047288	91.24	0.780	-0.990	1.690	91.23	-2.40	2.10	 	 	 	 	 	 	 	 	 	 	 	 	 	 	 	 	 	 	1581519733	3.94	7.30
12/02/2020 15:02:14	120220	12022020	150214	91.34	12.418783	-57.047275	91.39	0.220	0.040	1.910	91.39	-1.40	2.30	 	 	 	 	 	 	 	 	 	 	 	 	 	 	 	 	 	 	1581519734	2.74	5.07
12/02/2020 15:02:15	120220	12022020	150215	91.67	12.418783	-57.047265	91.71	-0.420	0.840	1.770	91.67	-0.50	2.20	 	 	 	 	 	 	 	 	 	 	 	 	 	 	 	 	 	 	1581519735	2.25	4.17
12/02/2020 15:02:16	120220	12022020	150216	91.92	12.418783	-57.047252	91.92	-0.570	0.710	1.500	91.94	-0.60	1.90	 	 	 	 	 	 	 	 	 	 	 	 	 	 	 	 	 	 	1581519736	2.81	5.20
12/02/2020 15:02:17	120220	12022020	150217	91.92	12.418785	-57.047233	91.89	-0.300	-0.090	1.380	91.90	-1.40	1.80	 	 	 	 	 	 	 	 	 	 	 	 	 	 	 	 	 	 	1581519737	3.81	7.06
12/02/2020 15:02:18	120220	12022020	150218	91.85	12.418785	-57.047213	91.84	-0.110	-0.730	1.320	91.85	-2.00	1.80	 	 	 	 	 	 	 	 	 	 	 	 	 	 	 	 	 	 	1581519738	4.10	7.59
12/02/2020 15:02:19	120220	12022020	150219	91.91	12.418785	-57.047197	91.92	-0.170	-0.770	1.220	91.93	-2.10	1.70	 	 	 	 	 	 	 	 	 	 	 	 	 	 	 	 	 	 	1581519739	3.58	6.63
12/02/2020 15:02:20	120220	12022020	150220	92.03	12.418783	-57.047183	92.04	-0.200	-0.450	1.080	92.04	-1.80	1.50	 	 	 	 	 	 	 	 	 	 	 	 	 	 	 	 	 	 	1581519740	2.99	5.54
12/02/2020 15:02:21	120220	12022020	150221	92.04	12.418782	-57.047170	92.02	0.080	-0.270	1.010	92.02	-1.60	1.40	 	 	 	 	 	 	 	 	 	 	 	 	 	 	 	 	 	 	1581519741	2.94	5.44
12/02/2020 15:02:22	120220	12022020	150222	91.87	12.418782	-57.047153	91.84	0.530	-0.340	0.850	91.83	-1.70	1.30	 	 	 	 	 	 	 	 	 	 	 	 	 	 	 	 	 	 	1581519742	3.36	6.22
12/02/2020 15:02:23	120220	12022020	150223	91.66	12.418785	-57.047137	91.61	0.760	-0.420	0.550	91.62	-1.80	1.00	 	 	 	 	 	 	 	 	 	 	 	 	 	 	 	 	 	 	1581519743	3.73	6.91
12/02/2020 15:02:24	120220	12022020	150224	91.53	12.418790	-57.047120	91.50	0.560	-0.330	0.390	91.52	-1.70	0.80	 	 	 	 	 	 	 	 	 	 	 	 	 	 	 	 	 	 	1581519744	3.70	6.85
12/02/2020 15:02:25	120220	12022020	150225	91.59	12.418792	-57.047103	91.58	0.120	-0.090	0.350	91.63	-1.40	0.80	 	 	 	 	 	 	 	 	 	 	 	 	 	 	 	 	 	 	1581519745	3.42	6.33
12/02/2020 15:02:26	120220	12022020	150226	91.85	12.418793	-57.047088	91.87	-0.340	0.280	0.330	91.92	-1.10	0.80	 	 	 	 	 	 	 	 	 	 	 	 	 	 	 	 	 	 	1581519746	3.19	5.91
12/02/2020 15:02:27	120220	12022020	150227	92.21	12.418792	-57.047075	92.25	-0.790	0.760	0.640	92.29	-0.60	1.00	 	 	 	 	 	 	 	 	 	 	 	 	 	 	 	 	 	 	1581519747	2.85	5.28
12/02/2020 15:02:28	120220	12022020	150228	92.64	12.418787	-57.047063	92.70	-1.050	0.950	1.240	92.71	-0.40	1.60	 	 	 	 	 	 	 	 	 	 	 	 	 	 	 	 	 	 	1581519748	2.70	5.00
12/02/2020 15:02:29	120220	12022020	150229	92.94	12.418780	-57.047050	92.97	-0.760	0.200	1.860	92.94	-1.10	2.20	 	 	 	 	 	 	 	 	 	 	 	 	 	 	 	 	 	 	1581519749	3.17	5.87
12/02/2020 15:02:30	120220	12022020	150230	92.71	12.418773	-57.047032	92.65	0.110	-1.390	2.540	92.58	-2.60	2.90	 	 	 	 	 	 	 	 	 	 	 	 	 	 	 	 	 	 	1581519750	4.19	7.76
12/02/2020 15:02:31	120220	12022020	150231	91.99	12.418768	-57.047008	91.93	0.950	-2.490	3.170	91.85	-3.80	3.60	 	 	 	 	 	 	 	 	 	 	 	 	 	 	 	 	 	 	1581519751	4.87	9.02
12/02/2020 15:02:32	120220	12022020	150232	91.53	12.418767	-57.046990	91.56	1.140	-1.970	3.300	91.52	-3.40	3.70	 	 	 	 	 	 	 	 	 	 	 	 	 	 	 	 	 	 	1581519752	4.13	7.65
12/02/2020 15:02:33	120220	12022020	150233	91.68	12.418770	-57.046978	91.76	0.570	-0.070	2.710	91.76	-1.50	3.20	 	 	 	 	 	 	 	 	 	 	 	 	 	 	 	 	 	 	1581519753	2.51	4.65
12/02/2020 15:02:34	120220	12022020	150234	92.21	12.418775	-57.046972	92.30	-0.320	1.770	1.460	92.34	0.30	2.00	 	 	 	 	 	 	 	 	 	 	 	 	 	 	 	 	 	 	1581519754	1.81	3.35
12/02/2020 15:02:35	120220	12022020	150235	92.81	12.418782	-57.046962	92.84	-0.890	2.200	-0.010	92.90	0.90	0.50	 	 	 	 	 	 	 	 	 	 	 	 	 	 	 	 	 	 	1581519755	2.34	4.33
12/02/2020 15:02:36	120220	12022020	150236	93.10	12.418787	-57.046947	93.06	-0.780	0.950	-0.920	93.10	-0.30	-0.50	 	 	 	 	 	 	 	 	 	 	 	 	 	 	 	 	 	 	1581519756	3.48	6.44
12/02/2020 15:02:37	120220	12022020	150237	93.00	12.418787	-57.046925	92.92	-0.180	-0.850	-1.080	92.96	-2.10	-0.70	 	 	 	 	 	 	 	 	 	 	 	 	 	 	 	 	 	 	1581519757	4.55	8.43
12/02/2020 15:02:38	120220	12022020	150238	92.81	12.418787	-57.046903	92.76	0.380	-1.800	-0.860	92.79	-3.10	-0.40	 	 	 	 	 	 	 	 	 	 	 	 	 	 	 	 	 	 	1581519758	4.48	8.30
12/02/2020 15:02:39	120220	12022020	150239	92.73	12.418783	-57.046888	92.70	0.460	-1.500	-0.380	92.71	-2.90	0.00	 	 	 	 	 	 	 	 	 	 	 	 	 	 	 	 	 	 	1581519759	3.40	6.30
12/02/2020 15:02:40	120220	12022020	150240	92.65	12.418782	-57.046877	92.64	0.100	-0.550	0.330	92.63	-1.90	0.70	 	 	 	 	 	 	 	 	 	 	 	 	 	 	 	 	 	 	1581519760	2.41	4.46
12/02/2020 15:02:41	120220	12022020	150241	92.50	12.418777	-57.046867	92.49	-0.250	0.180	1.220	92.46	-1.20	1.60	 	 	 	 	 	 	 	 	 	 	 	 	 	 	 	 	 	 	1581519761	2.32	4.30
12/02/2020 15:02:42	120220	12022020	150242	92.34	12.418772	-57.046855	92.35	-0.270	0.350	1.960	92.32	-1.00	2.30	 	 	 	 	 	 	 	 	 	 	 	 	 	 	 	 	 	 	1581519762	2.91	5.39
12/02/2020 15:02:43	120220	12022020	150243	92.22	12.418767	-57.046838	92.23	-0.010	0.110	2.360	92.19	-1.20	2.70	 	 	 	 	 	 	 	 	 	 	 	 	 	 	 	 	 	 	1581519763	3.43	6.35
12/02/2020 15:02:44	120220	12022020	150244	92.06	12.418765	-57.046822	92.09	0.170	-0.120	2.470	92.04	-1.50	2.90	 	 	 	 	 	 	 	 	 	 	 	 	 	 	 	 	 	 	1581519764	3.61	6.69
12/02/2020 15:02:45	120220	12022020	150245	92.08	12.418765	-57.046807	92.13	-0.000	-0.050	2.260	92.10	-1.40	2.70	 	 	 	 	 	 	 	 	 	 	 	 	 	 	 	 	 	 	1581519765	3.28	6.07
12/02/2020 15:02:46	120220	12022020	150246	92.29	12.418767	-57.046793	92.36	-0.290	0.050	1.860	92.35	-1.30	2.30	 	 	 	 	 	 	 	 	 	 	 	 	 	 	 	 	 	 	1581519766	2.79	5.17
12/02/2020 15:02:47	120220	12022020	150247	92.51	12.418767	-57.046780	92.54	-0.240	-0.090	1.410	92.53	-1.40	1.90	 	 	 	 	 	 	 	 	 	 	 	 	 	 	 	 	 	 	1581519767	2.80	5.19
12/02/2020 15:02:48	120220	12022020	150248	92.44	12.418768	-57.046765	92.39	0.190	-0.440	1.050	92.37	-1.80	1.50	 	 	 	 	 	 	 	 	 	 	 	 	 	 	 	 	 	 	1581519768	3.18	5.89
12/02/2020 15:02:49	120220	12022020	150249	92.02	12.418770	-57.046748	91.94	0.540	-0.640	0.870	91.92	-2.00	1.30	 	 	 	 	 	 	 	 	 	 	 	 	 	 	 	 	 	 	1581519769	3.42	6.33
12/02/2020 15:02:50	120220	12022020	150250	91.55	12.418770	-57.046733	91.49	0.460	-0.500	0.840	91.47	-1.90	1.30	 	 	 	 	 	 	 	 	 	 	 	 	 	 	 	 	 	 	1581519770	3.18	5.89
12/02/2020 15:02:51	120220	12022020	150251	91.26	12.418772	-57.046720	91.22	0.040	-0.240	0.770	91.26	-1.60	1.20	 	 	 	 	 	 	 	 	 	 	 	 	 	 	 	 	 	 	1581519771	2.87	5.32
12/02/2020 15:02:52	120220	12022020	150252	91.24	12.418773	-57.046707	91.23	-0.320	-0.190	0.550	91.26	-1.50	1.00	 	 	 	 	 	 	 	 	 	 	 	 	 	 	 	 	 	 	1581519772	2.92	5.41
12/02/2020 15:02:53	120220	12022020	150253	91.45	12.418775	-57.046692	91.47	-0.350	-0.280	0.300	91.45	-1.60	0.70	 	 	 	 	 	 	 	 	 	 	 	 	 	 	 	 	 	 	1581519773	3.23	5.98
12/02/2020 15:02:54	120220	12022020	150254	91.77	12.418775	-57.046677	91.77	-0.120	-0.070	0.180	91.82	-1.40	0.60	 	 	 	 	 	 	 	 	 	 	 	 	 	 	 	 	 	 	1581519774	3.20	5.93
12/02/2020 15:02:55	120220	12022020	150255	91.91	12.418773	-57.046663	91.88	0.060	0.360	0.320	91.90	-1.00	0.70	 	 	 	 	 	 	 	 	 	 	 	 	 	 	 	 	 	 	1581519775	2.74	5.07
12/02/2020 15:02:56	120220	12022020	150256	91.70	12.418772	-57.046652	91.63	0.050	0.460	0.730	91.63	-0.90	1.10	 	 	 	 	 	 	 	 	 	 	 	 	 	 	 	 	 	 	1581519776	2.62	4.85
12/02/2020 15:02:57	120220	12022020	150257	91.34	12.418768	-57.046637	91.28	-0.030	0.020	1.380	91.26	-1.30	1.70	 	 	 	 	 	 	 	 	 	 	 	 	 	 	 	 	 	 	1581519777	3.08	5.70
12/02/2020 15:02:58	120220	12022020	150258	91.06	12.418765	-57.046620	91.05	-0.020	-0.640	1.910	91.03	-2.00	2.30	 	 	 	 	 	 	 	 	 	 	 	 	 	 	 	 	 	 	1581519778	3.53	6.54
12/02/2020 15:02:59	120220	12022020	150259	90.99	12.418763	-57.046603	90.99	0.060	-1.080	1.960	90.98	-2.40	2.40	 	 	 	 	 	 	 	 	 	 	 	 	 	 	 	 	 	 	1581519779	3.55	6.57
12/02/2020 15:03:00	120220	12022020	150300	90.93	12.418765	-57.046588	90.91	0.120	-1.060	1.870	90.90	-2.40	2.30	 	 	 	 	 	 	 	 	 	 	 	 	 	 	 	 	 	 	1581519780	3.36	6.22
12/02/2020 15:03:01	120220	12022020	150301	90.76	12.418765	-57.046573	90.73	0.080	-0.490	1.880	90.72	-1.90	2.30	 	 	 	 	 	 	 	 	 	 	 	 	 	 	 	 	 	 	1581519781	2.98	5.52
12/02/2020 15:03:02	120220	12022020	150302	90.59	12.418765	-57.046562	90.58	-0.030	0.320	1.850	90.57	-1.10	2.30	1017.10	26.70	26.70	20.30	20.40	533.0	68.0	68.0	437.0	28.7	352.00	12.50	82.00	10.80	45997	11574.0	27.5	27.5	1581519782	2.51	4.65
12/02/2020 15:03:03	120220	12022020	150303	90.58	12.418763	-57.046550	90.60	-0.080	0.770	1.510	90.58	-0.60	2.00	 	 	 	 	 	 	 	 	 	 	 	 	 	 	 	 	 	 	1581519783	2.40	4.44
12/02/2020 15:03:04	120220	12022020	150304	90.70	12.418767	-57.046537	90.68	-0.050	0.580	0.910	90.71	-0.80	1.40	 	 	 	 	 	 	 	 	 	 	 	 	 	 	 	 	 	 	1581519784	2.89	5.35
12/02/2020 15:03:05	120220	12022020	150305	90.73	12.418772	-57.046522	90.68	-0.040	0.030	0.280	90.73	-1.30	0.70	 	 	 	 	 	 	 	 	 	 	 	 	 	 	 	 	 	 	1581519785	3.47	6.43
12/02/2020 15:03:06	120220	12022020	150306	90.73	12.418777	-57.046505	90.69	-0.120	-0.490	-0.150	90.73	-1.80	0.30	 	 	 	 	 	 	 	 	 	 	 	 	 	 	 	 	 	 	1581519786	3.51	6.50
12/02/2020 15:03:07	120220	12022020	150307	90.67	12.418777	-57.046490	90.63	-0.130	-0.910	-0.040	90.64	-2.30	0.40	 	 	 	 	 	 	 	 	 	 	 	 	 	 	 	 	 	 	1581519787	3.29	6.09
12/02/2020 15:03:08	120220	12022020	150308	90.51	12.418775	-57.046475	90.50	0.060	-1.110	0.550	90.48	-2.40	0.90	 	 	 	 	 	 	 	 	 	 	 	 	 	 	 	 	 	 	1581519788	3.33	6.17
12/02/2020 15:03:09	120220	12022020	150309	90.43	12.418772	-57.046458	90.44	0.390	-0.960	1.030	90.42	-2.30	1.40	 	 	 	 	 	 	 	 	 	 	 	 	 	 	 	 	 	 	1581519789	3.34	6.19
12/02/2020 15:03:10	120220	12022020	150310	90.32	12.418768	-57.046445	90.32	0.640	-0.480	1.260	90.29	-1.80	1.70	 	 	 	 	 	 	 	 	 	 	 	 	 	 	 	 	 	 	1581519790	3.10	5.74
12/02/2020 15:03:11	120220	12022020	150311	90.10	12.418768	-57.046432	90.10	0.530	0.220	1.390	90.07	-1.20	1.80	 	 	 	 	 	 	 	 	 	 	 	 	 	 	 	 	 	 	1581519791	2.88	5.33
12/02/2020 15:03:12	120220	12022020	150312	90.14	12.418772	-57.046420	90.20	-0.130	1.020	1.400	90.20	-0.40	1.80	 	 	 	 	 	 	 	 	 	 	 	 	 	 	 	 	 	 	1581519792	2.60	4.82
12/02/2020 15:03:13	120220	12022020	150313	90.53	12.418773	-57.046408	90.62	-1.000	1.420	1.320	90.63	0.10	1.70	 	 	 	 	 	 	 	 	 	 	 	 	 	 	 	 	 	 	1581519793	2.16	4.00
12/02/2020 15:03:14	120220	12022020	150314	90.89	12.418772	-57.046398	90.92	-1.420	0.890	1.290	90.93	-0.40	1.70	 	 	 	 	 	 	 	 	 	 	 	 	 	 	 	 	 	 	1581519794	2.41	4.46
12/02/2020 15:03:15	120220	12022020	150315	90.96	12.418770	-57.046382	90.96	-0.990	-0.490	1.410	90.95	-1.70	1.80	 	 	 	 	 	 	 	 	 	 	 	 	 	 	 	 	 	 	1581519795	3.38	6.26
12/02/2020 15:03:16	120220	12022020	150316	90.88	12.418765	-57.046363	90.87	0.000	-1.780	1.600	90.86	-3.00	2.00	 	 	 	 	 	 	 	 	 	 	 	 	 	 	 	 	 	 	1581519796	4.10	7.59
12/02/2020 15:03:17	120220	12022020	150317	90.69	12.418763	-57.046345	90.67	0.900	-2.120	1.770	90.63	-3.40	2.20	 	 	 	 	 	 	 	 	 	 	 	 	 	 	 	 	 	 	1581519797	3.79	7.02
12/02/2020 15:03:18	120220	12022020	150318	90.32	12.418763	-57.046332	90.29	1.270	-1.580	1.730	90.25	-2.90	2.20	 	 	 	 	 	 	 	 	 	 	 	 	 	 	 	 	 	 	1581519798	3.02	5.59
12/02/2020 15:03:19	120220	12022020	150319	90.08	12.418767	-57.046318	90.08	1.080	-0.640	1.250	90.08	-2.00	1.70	 	 	 	 	 	 	 	 	 	 	 	 	 	 	 	 	 	 	1581519799	2.78	5.15
12/02/2020 15:03:20	120220	12022020	150320	90.24	12.418773	-57.046307	90.28	0.600	0.390	0.530	90.31	-1.00	1.00	 	 	 	 	 	 	 	 	 	 	 	 	 	 	 	 	 	 	1581519800	2.89	5.35
12/02/2020 15:03:21	120220	12022020	150321	90.60	12.418778	-57.046295	90.62	0.020	1.310	-0.040	90.67	-0.10	0.40	 	 	 	 	 	 	 	 	 	 	 	 	 	 	 	 	 	 	1581519801	2.75	5.09
12/02/2020 15:03:22	120220	12022020	150322	90.93	12.418782	-57.046283	90.93	-0.640	1.770	-0.400	90.99	0.40	0.00	 	 	 	 	 	 	 	 	 	 	 	 	 	 	 	 	 	 	1581519802	2.53	4.69
12/02/2020 15:03:23	120220	12022020	150323	91.18	12.418783	-57.046272	91.15	-1.220	1.570	-0.380	91.21	0.30	0.00	 	 	 	 	 	 	 	 	 	 	 	 	 	 	 	 	 	 	1581519803	2.49	4.61
12/02/2020 15:03:24	120220	12022020	150324	91.19	12.418780	-57.046258	91.12	-1.340	0.590	0.200	91.15	-0.60	0.60	 	 	 	 	 	 	 	 	 	 	 	 	 	 	 	 	 	 	1581519804	2.79	5.17
12/02/2020 15:03:25	120220	12022020	150325	90.92	12.418775	-57.046242	90.84	-0.750	-1.010	1.110	90.85	-2.20	1.50	 	 	 	 	 	 	 	 	 	 	 	 	 	 	 	 	 	 	1581519805	3.50	6.48
12/02/2020 15:03:26	120220	12022020	150326	90.63	12.418770	-57.046223	90.61	0.260	-2.540	1.880	90.60	-3.80	2.20	 	 	 	 	 	 	 	 	 	 	 	 	 	 	 	 	 	 	1581519806	4.11	7.61
12/02/2020 15:03:27	120220	12022020	150327	90.62	12.418768	-57.046205	90.66	1.000	-2.900	2.260	90.62	-4.20	2.70	 	 	 	 	 	 	 	 	 	 	 	 	 	 	 	 	 	 	1581519807	4.01	7.43
12/02/2020 15:03:28	120220	12022020	150328	90.84	12.418767	-57.046192	90.92	0.990	-1.690	2.280	90.89	-3.10	2.70	 	 	 	 	 	 	 	 	 	 	 	 	 	 	 	 	 	 	1581519808	2.90	5.37
12/02/2020 15:03:29	120220	12022020	150329	90.97	12.418767	-57.046183	90.99	0.410	0.260	2.070	90.95	-1.20	2.50	 	 	 	 	 	 	 	 	 	 	 	 	 	 	 	 	 	 	1581519809	1.65	3.06
12/02/2020 15:03:30	120220	12022020	150330	90.75	12.418768	-57.046177	90.71	-0.140	1.620	1.630	90.69	0.20	2.10	 	 	 	 	 	 	 	 	 	 	 	 	 	 	 	 	 	 	1581519810	1.52	2.82
12/02/2020 15:03:31	120220	12022020	150331	90.47	12.418772	-57.046165	90.43	-0.230	1.720	0.760	90.45	0.40	1.20	 	 	 	 	 	 	 	 	 	 	 	 	 	 	 	 	 	 	1581519811	2.58	4.78
12/02/2020 15:03:32	120220	12022020	150332	90.49	12.418778	-57.046148	90.47	-0.010	0.890	-0.290	90.52	-0.40	0.20	 	 	 	 	 	 	 	 	 	 	 	 	 	 	 	 	 	 	1581519812	3.81	7.06
12/02/2020 15:03:33	120220	12022020	150333	90.74	12.418787	-57.046130	90.72	0.050	-0.020	-1.060	90.80	-1.30	-0.60	 	 	 	 	 	 	 	 	 	 	 	 	 	 	 	 	 	 	1581519813	4.12	7.63
12/02/2020 15:03:34	120220	12022020	150334	91.01	12.418792	-57.046115	90.98	-0.230	-0.420	-1.290	91.05	-1.70	-0.90	 	 	 	 	 	 	 	 	 	 	 	 	 	 	 	 	 	 	1581519814	3.40	6.30
12/02/2020 15:03:35	120220	12022020	150335	91.10	12.418792	-57.046103	91.05	-0.560	-0.410	-0.880	91.09	-1.70	-0.50	 	 	 	 	 	 	 	 	 	 	 	 	 	 	 	 	 	 	1581519815	2.41	4.46
12/02/2020 15:03:36	120220	12022020	150336	90.92	12.418788	-57.046093	90.87	-0.500	-0.630	0.100	90.86	-1.90	0.40	 	 	 	 	 	 	 	 	 	 	 	 	 	 	 	 	 	 	1581519816	2.36	4.37
12/02/2020 15:03:37	120220	12022020	150337	90.65	12.418783	-57.046080	90.66	0.030	-1.290	1.270	90.62	-2.50	1.60	 	 	 	 	 	 	 	 	 	 	 	 	 	 	 	 	 	 	1581519817	3.24	6.00
12/02/2020 15:03:38	120220	12022020	150338	90.49	12.418777	-57.046062	90.53	0.590	-1.750	2.280	90.47	-3.00	2.60	 	 	 	 	 	 	 	 	 	 	 	 	 	 	 	 	 	 	1581519818	3.86	7.15
12/02/2020 15:03:39	120220	12022020	150339	90.45	12.418772	-57.046047	90.51	0.710	-1.280	2.910	90.46	-2.60	3.30	 	 	 	 	 	 	 	 	 	 	 	 	 	 	 	 	 	 	1581519819	3.54	6.56
12/02/2020 15:03:40	120220	12022020	150340	90.59	12.418768	-57.046035	90.67	0.330	0.160	2.850	90.64	-1.20	3.30	 	 	 	 	 	 	 	 	 	 	 	 	 	 	 	 	 	 	1581519820	2.42	4.48
12/02/2020 15:03:41	120220	12022020	150341	90.84	12.418770	-57.046028	90.89	-0.200	1.680	2.130	90.84	0.30	2.60	 	 	 	 	 	 	 	 	 	 	 	 	 	 	 	 	 	 	1581519821	1.45	2.69
12/02/2020 15:03:42	120220	12022020	150342	90.96	12.418777	-57.046022	90.95	-0.530	2.040	1.180	90.95	0.70	1.60	 	 	 	 	 	 	 	 	 	 	 	 	 	 	 	 	 	 	1581519822	1.92	3.56
12/02/2020 15:03:43	120220	12022020	150343	90.85	12.418782	-57.046008	90.78	-0.460	0.900	0.280	90.85	-0.30	0.80	 	 	 	 	 	 	 	 	 	 	 	 	 	 	 	 	 	 	1581519823	3.12	5.78
12/02/2020 15:03:44	120220	12022020	150344	90.71	12.418788	-57.045988	90.65	-0.120	-0.820	-0.490	90.71	-2.00	-0.00	 	 	 	 	 	 	 	 	 	 	 	 	 	 	 	 	 	 	1581519824	4.16	7.70
12/02/2020 15:03:45	120220	12022020	150345	90.77	12.418795	-57.045970	90.75	0.260	-1.900	-1.070	90.80	-3.20	-0.60	 	 	 	 	 	 	 	 	 	 	 	 	 	 	 	 	 	 	1581519825	4.19	7.76
12/02/2020 15:03:46	120220	12022020	150346	91.02	12.418800	-57.045955	91.06	0.510	-1.680	-1.280	91.10	-3.00	-0.90	 	 	 	 	 	 	 	 	 	 	 	 	 	 	 	 	 	 	1581519826	3.25	6.02
12/02/2020 15:03:47	120220	12022020	150347	91.48	12.418800	-57.045947	91.54	0.430	-0.550	-0.870	91.57	-1.90	-0.50	 	 	 	 	 	 	 	 	 	 	 	 	 	 	 	 	 	 	1581519827	1.94	3.59
12/02/2020 15:03:48	120220	12022020	150348	91.79	12.418797	-57.045940	91.79	0.170	0.260	0.130	91.79	-1.10	0.50	 	 	 	 	 	 	 	 	 	 	 	 	 	 	 	 	 	 	1581519828	1.78	3.30
12/02/2020 15:03:49	120220	12022020	150349	91.60	12.418788	-57.045928	91.54	0.080	-0.030	1.330	91.52	-1.30	1.70	 	 	 	 	 	 	 	 	 	 	 	 	 	 	 	 	 	 	1581519829	2.97	5.50
12/02/2020 15:03:50	120220	12022020	150350	91.17	12.418782	-57.045910	91.13	0.160	-0.600	2.370	91.09	-1.90	2.70	 	 	 	 	 	 	 	 	 	 	 	 	 	 	 	 	 	 	1581519830	3.95	7.32
12/02/2020 15:03:51	120220	12022020	150351	90.98	12.418777	-57.045895	91.04	0.070	-0.180	2.970	91.01	-1.50	3.40	 	 	 	 	 	 	 	 	 	 	 	 	 	 	 	 	 	 	1581519831	3.47	6.43
12/02/2020 15:03:52	120220	12022020	150352	91.33	12.418777	-57.045885	91.45	-0.350	0.980	2.720	91.46	-0.40	3.20	 	 	 	 	 	 	 	 	 	 	 	 	 	 	 	 	 	 	1581519832	1.89	3.50
12/02/2020 15:03:53	120220	12022020	150353	91.98	12.418780	-57.045880	92.08	-0.740	1.400	1.670	92.10	0.10	2.20	 	 	 	 	 	 	 	 	 	 	 	 	 	 	 	 	 	 	1581519833	1.46	2.70
12/02/2020 15:03:54	120220	12022020	150354	92.41	12.418785	-57.045868	92.40	-0.550	0.280	0.570	92.43	-1.00	1.00	 	 	 	 	 	 	 	 	 	 	 	 	 	 	 	 	 	 	1581519834	2.74	5.07
12/02/2020 15:03:55	120220	12022020	150355	92.32	12.418790	-57.045848	92.25	0.110	-1.420	0.110	92.32	-2.70	0.50	 	 	 	 	 	 	 	 	 	 	 	 	 	 	 	 	 	 	1581519835	4.06	7.52
12/02/2020 15:03:56	120220	12022020	150356	91.92	12.418790	-57.045830	91.85	0.660	-2.130	0.200	91.85	-3.40	0.60	 	 	 	 	 	 	 	 	 	 	 	 	 	 	 	 	 	 	1581519836	4.06	7.52
12/02/2020 15:03:57	120220	12022020	150357	91.62	12.418790	-57.045817	91.61	0.730	-1.290	0.260	91.62	-2.70	0.70	 	 	 	 	 	 	 	 	 	 	 	 	 	 	 	 	 	 	1581519837	2.75	5.09
12/02/2020 15:03:58	120220	12022020	150358	91.85	12.418792	-57.045810	91.92	0.340	0.260	-0.080	91.97	-1.10	0.40	 	 	 	 	 	 	 	 	 	 	 	 	 	 	 	 	 	 	1581519838	1.52	2.82
12/02/2020 15:03:59	120220	12022020	150359	92.49	12.418795	-57.045805	92.57	-0.200	1.270	-0.540	92.63	-0.10	-0.10	 	 	 	 	 	 	 	 	 	 	 	 	 	 	 	 	 	 	1581519839	1.40	2.59
12/02/2020 15:04:00	120220	12022020	150400	93.03	12.418797	-57.045795	93.04	-0.500	0.960	-0.620	93.09	-0.30	-0.20	 	 	 	 	 	 	 	 	 	 	 	 	 	 	 	 	 	 	1581519840	2.09	3.87
12/02/2020 15:04:01	120220	12022020	150401	93.06	12.418793	-57.045778	93.00	-0.350	-0.320	0.050	92.99	-1.60	0.40	 	 	 	 	 	 	 	 	 	 	 	 	 	 	 	 	 	 	1581519841	3.33	6.17
12/02/2020 15:04:02	120220	12022020	150402	92.60	12.418787	-57.045760	92.54	0.030	-1.360	1.300	92.49	-2.60	1.60	1017.30	26.70	26.70	20.50	20.50	512.0	68.0	68.0	437.0	28.6	356.00	12.00	86.00	10.50	44730	10822.0	27.5	27.5	1581519842	4.20	7.78
12/02/2020 15:04:03	120220	12022020	150403	92.13	12.418780	-57.045745	92.12	0.210	-1.120	2.400	92.07	-2.50	2.80	 	 	 	 	 	 	 	 	 	 	 	 	 	 	 	 	 	 	1581519843	3.62	6.70
12/02/2020 15:04:04	120220	12022020	150404	92.01	12.418775	-57.045737	92.09	0.030	0.050	2.740	92.04	-1.30	3.20	 	 	 	 	 	 	 	 	 	 	 	 	 	 	 	 	 	 	1581519844	2.04	3.78
12/02/2020 15:04:05	120220	12022020	150405	92.33	12.418777	-57.045732	92.44	-0.180	0.870	2.120	92.42	-0.50	2.60	 	 	 	 	 	 	 	 	 	 	 	 	 	 	 	 	 	 	1581519845	1.25	2.31
12/02/2020 15:04:06	120220	12022020	150406	92.74	12.418782	-57.045722	92.79	-0.010	0.410	1.080	92.79	-0.90	1.60	 	 	 	 	 	 	 	 	 	 	 	 	 	 	 	 	 	 	1581519846	2.39	4.43
12/02/2020 15:04:07	120220	12022020	150407	92.85	12.418788	-57.045705	92.85	0.420	-0.850	0.410	92.84	-2.10	0.90	 	 	 	 	 	 	 	 	 	 	 	 	 	 	 	 	 	 	1581519847	3.79	7.02
12/02/2020 15:04:08	120220	12022020	150408	92.79	12.418790	-57.045685	92.79	0.500	-1.430	0.290	92.79	-2.80	0.70	 	 	 	 	 	 	 	 	 	 	 	 	 	 	 	 	 	 	1581519848	3.99	7.39
12/02/2020 15:04:09	120220	12022020	150409	92.80	12.418788	-57.045673	92.81	-0.000	-0.660	0.580	92.82	-2.10	1.00	 	 	 	 	 	 	 	 	 	 	 	 	 	 	 	 	 	 	1581519849	2.75	5.09
12/02/2020 15:04:10	120220	12022020	150410	92.92	12.418785	-57.045667	92.93	-0.640	0.770	0.870	92.94	-0.60	1.30	 	 	 	 	 	 	 	 	 	 	 	 	 	 	 	 	 	 	1581519850	1.56	2.89
12/02/2020 15:04:11	120220	12022020	150411	93.05	12.418782	-57.045663	93.06	-0.850	1.580	0.900	93.08	0.20	1.30	 	 	 	 	 	 	 	 	 	 	 	 	 	 	 	 	 	 	1581519851	1.10	2.04
12/02/2020 15:04:12	120220	12022020	150412	93.16	12.418780	-57.045653	93.16	-0.480	1.050	0.700	93.17	-0.20	1.10	 	 	 	 	 	 	 	 	 	 	 	 	 	 	 	 	 	 	1581519852	1.82	3.37
12/02/2020 15:04:13	120220	12022020	150413	93.09	12.418782	-57.045640	93.04	0.190	-0.490	0.620	93.04	-1.70	1.00	 	 	 	 	 	 	 	 	 	 	 	 	 	 	 	 	 	 	1581519853	3.10	5.74
12/02/2020 15:04:14	120220	12022020	150414	92.80	12.418783	-57.045622	92.75	0.750	-2.020	0.750	92.74	-3.30	1.20	 	 	 	 	 	 	 	 	 	 	 	 	 	 	 	 	 	 	1581519854	3.83	7.09
12/02/2020 15:04:15	120220	12022020	150415	92.58	12.418783	-57.045603	92.57	0.960	-2.500	0.880	92.57	-3.80	1.30	 	 	 	 	 	 	 	 	 	 	 	 	 	 	 	 	 	 	1581519855	3.68	6.82
12/02/2020 15:04:16	120220	12022020	150416	92.57	12.418785	-57.045592	92.59	0.790	-1.530	0.990	92.58	-2.90	1.40	 	 	 	 	 	 	 	 	 	 	 	 	 	 	 	 	 	 	1581519856	2.65	4.91
12/02/2020 15:04:17	120220	12022020	150417	92.62	12.418783	-57.045583	92.63	0.310	0.200	1.170	92.62	-1.20	1.60	 	 	 	 	 	 	 	 	 	 	 	 	 	 	 	 	 	 	1581519857	1.57	2.91
12/02/2020 15:04:18	120220	12022020	150418	92.64	12.418782	-57.045578	92.68	-0.350	1.690	1.360	92.66	0.30	1.80	 	 	 	 	 	 	 	 	 	 	 	 	 	 	 	 	 	 	1581519858	1.23	2.28
12/02/2020 15:04:19	120220	12022020	150419	92.79	12.418780	-57.045572	92.84	-0.910	2.210	1.300	92.79	0.90	1.70	 	 	 	 	 	 	 	 	 	 	 	 	 	 	 	 	 	 	1581519859	1.50	2.78
12/02/2020 15:04:20	120220	12022020	150420	93.03	12.418780	-57.045562	93.08	-1.110	1.580	0.990	93.07	0.30	1.40	 	 	 	 	 	 	 	 	 	 	 	 	 	 	 	 	 	 	1581519860	2.16	4.00
12/02/2020 15:04:21	120220	12022020	150421	93.09	12.418780	-57.045547	93.09	-0.840	0.020	0.840	93.06	-1.20	1.30	 	 	 	 	 	 	 	 	 	 	 	 	 	 	 	 	 	 	1581519861	2.94	5.44
12/02/2020 15:04:22	120220	12022020	150422	92.80	12.418778	-57.045530	92.76	-0.180	-1.760	1.030	92.72	-3.00	1.40	 	 	 	 	 	 	 	 	 	 	 	 	 	 	 	 	 	 	1581519862	3.59	6.65
12/02/2020 15:04:23	120220	12022020	150423	92.30	12.418775	-57.045513	92.24	0.570	-2.690	1.350	92.19	-4.00	1.80	 	 	 	 	 	 	 	 	 	 	 	 	 	 	 	 	 	 	1581519863	3.66	6.78
12/02/2020 15:04:24	120220	12022020	150424	91.76	12.418773	-57.045500	91.72	1.060	-2.150	1.490	91.67	-3.50	1.90	 	 	 	 	 	 	 	 	 	 	 	 	 	 	 	 	 	 	1581519864	2.79	5.17
12/02/2020 15:04:25	120220	12022020	150425	91.47	12.418775	-57.045492	91.51	1.030	-0.670	1.250	91.47	-2.10	1.70	 	 	 	 	 	 	 	 	 	 	 	 	 	 	 	 	 	 	1581519865	1.80	3.33
12/02/2020 15:04:26	120220	12022020	150426	91.68	12.418780	-57.045487	91.75	0.490	0.800	0.680	91.77	-0.60	1.10	 	 	 	 	 	 	 	 	 	 	 	 	 	 	 	 	 	 	1581519866	1.59	2.94
12/02/2020 15:04:27	120220	12022020	150427	92.09	12.418783	-57.045478	92.11	-0.170	1.460	0.200	92.14	0.10	0.70	 	 	 	 	 	 	 	 	 	 	 	 	 	 	 	 	 	 	1581519867	1.77	3.28
12/02/2020 15:04:28	120220	12022020	150428	92.10	12.418783	-57.045467	92.04	-0.660	1.200	0.220	92.05	-0.10	0.60	 	 	 	 	 	 	 	 	 	 	 	 	 	 	 	 	 	 	1581519868	2.43	4.50
12/02/2020 15:04:29	120220	12022020	150429	91.77	12.418782	-57.045453	91.69	-0.900	0.610	0.600	91.70	-0.70	1.00	 	 	 	 	 	 	 	 	 	 	 	 	 	 	 	 	 	 	1581519869	2.92	5.41
12/02/2020 15:04:30	120220	12022020	150430	91.50	12.418778	-57.045440	91.46	-0.860	0.060	1.100	91.47	-1.20	1.50	 	 	 	 	 	 	 	 	 	 	 	 	 	 	 	 	 	 	1581519870	2.71	5.02
12/02/2020 15:04:31	120220	12022020	150431	91.42	12.418775	-57.045430	91.40	-0.430	-0.680	1.500	91.42	-2.00	1.90	 	 	 	 	 	 	 	 	 	 	 	 	 	 	 	 	 	 	1581519871	2.52	4.67
12/02/2020 15:04:32	120220	12022020	150432	91.32	12.418772	-57.045415	91.30	0.330	-1.630	1.780	91.29	-2.90	2.20	 	 	 	 	 	 	 	 	 	 	 	 	 	 	 	 	 	 	1581519872	2.97	5.50
12/02/2020 15:04:33	120220	12022020	150433	91.18	12.418770	-57.045400	91.16	0.870	-1.930	1.930	91.18	-3.30	2.30	 	 	 	 	 	 	 	 	 	 	 	 	 	 	 	 	 	 	1581519873	3.26	6.04
12/02/2020 15:04:34	120220	12022020	150434	91.07	12.418770	-57.045388	91.07	0.800	-1.060	1.980	91.06	-2.40	2.40	 	 	 	 	 	 	 	 	 	 	 	 	 	 	 	 	 	 	1581519874	2.53	4.69
12/02/2020 15:04:35	120220	12022020	150435	90.93	12.418770	-57.045382	90.90	0.300	0.380	1.910	90.88	-1.00	2.30	 	 	 	 	 	 	 	 	 	 	 	 	 	 	 	 	 	 	1581519875	1.48	2.74
12/02/2020 15:04:36	120220	12022020	150436	90.69	12.418770	-57.045375	90.65	-0.130	1.370	1.600	90.65	0.00	2.10	 	 	 	 	 	 	 	 	 	 	 	 	 	 	 	 	 	 	1581519876	1.27	2.35
12/02/2020 15:04:37	120220	12022020	150437	90.63	12.418773	-57.045367	90.61	-0.260	1.340	0.970	90.65	0.00	1.40	 	 	 	 	 	 	 	 	 	 	 	 	 	 	 	 	 	 	1581519877	2.02	3.74
12/02/2020 15:04:38	120220	12022020	150438	90.83	12.418778	-57.045353	90.82	-0.230	0.360	0.220	90.87	-0.90	0.70	 	 	 	 	 	 	 	 	 	 	 	 	 	 	 	 	 	 	1581519878	2.98	5.52
12/02/2020 15:04:39	120220	12022020	150439	90.99	12.418783	-57.045337	90.95	-0.180	-0.970	-0.210	90.99	-2.20	0.20	 	 	 	 	 	 	 	 	 	 	 	 	 	 	 	 	 	 	1581519879	3.50	6.48
12/02/2020 15:04:40	120220	12022020	150440	90.84	12.418782	-57.045322	90.77	-0.140	-1.630	-0.010	90.77	-2.90	0.40	 	 	 	 	 	 	 	 	 	 	 	 	 	 	 	 	 	 	1581519880	3.45	6.39
12/02/2020 15:04:41	120220	12022020	150441	90.41	12.418780	-57.045310	90.33	-0.110	-0.900	0.500	90.30	-2.30	0.90	 	 	 	 	 	 	 	 	 	 	 	 	 	 	 	 	 	 	1581519881	2.48	4.59
12/02/2020 15:04:42	120220	12022020	150442	89.93	12.418778	-57.045305	89.90	-0.160	0.410	0.970	89.87	-1.00	1.40	 	 	 	 	 	 	 	 	 	 	 	 	 	 	 	 	 	 	1581519882	1.19	2.20
12/02/2020 15:04:43	120220	12022020	150443	89.79	12.418777	-57.045298	89.81	-0.210	0.880	1.160	89.81	-0.40	1.60	 	 	 	 	 	 	 	 	 	 	 	 	 	 	 	 	 	 	1581519883	1.15	2.13
12/02/2020 15:04:44	120220	12022020	150444	90.04	12.418777	-57.045288	90.11	-0.090	0.130	1.070	90.12	-1.10	1.50	 	 	 	 	 	 	 	 	 	 	 	 	 	 	 	 	 	 	1581519884	2.29	4.24
12/02/2020 15:04:45	120220	12022020	150445	90.32	12.418775	-57.045272	90.33	0.260	-1.070	1.060	90.32	-2.30	1.50	 	 	 	 	 	 	 	 	 	 	 	 	 	 	 	 	 	 	1581519885	3.37	6.24
12/02/2020 15:04:46	120220	12022020	150446	90.06	12.418775	-57.045255	89.98	0.690	-1.620	1.460	89.94	-2.90	1.80	 	 	 	 	 	 	 	 	 	 	 	 	 	 	 	 	 	 	1581519886	3.56	6.59
12/02/2020 15:04:47	120220	12022020	150447	89.40	12.418773	-57.045243	89.32	0.810	-0.920	1.860	89.29	-2.30	2.30	 	 	 	 	 	 	 	 	 	 	 	 	 	 	 	 	 	 	1581519887	2.76	5.11
12/02/2020 15:04:48	120220	12022020	150448	89.03	12.418775	-57.045235	89.04	0.270	0.620	1.950	89.04	-0.80	2.40	 	 	 	 	 	 	 	 	 	 	 	 	 	 	 	 	 	 	1581519888	1.55	2.87
12/02/2020 15:04:49	120220	12022020	150449	89.35	12.418778	-57.045232	89.45	-0.660	1.860	1.770	89.48	0.50	2.20	 	 	 	 	 	 	 	 	 	 	 	 	 	 	 	 	 	 	1581519889	0.88	1.63
12/02/2020 15:04:50	120220	12022020	150450	90.07	12.418778	-57.045227	90.18	-1.240	1.700	1.460	90.21	0.40	1.90	 	 	 	 	 	 	 	 	 	 	 	 	 	 	 	 	 	 	1581519890	1.11	2.06
12/02/2020 15:04:51	120220	12022020	150451	90.57	12.418778	-57.045215	90.59	-0.870	-0.060	1.200	90.61	-1.20	1.60	 	 	 	 	 	 	 	 	 	 	 	 	 	 	 	 	 	 	1581519891	2.58	4.78
12/02/2020 15:04:52	120220	12022020	150452	90.50	12.418775	-57.045197	90.46	0.170	-2.160	1.280	90.42	-3.40	1.70	 	 	 	 	 	 	 	 	 	 	 	 	 	 	 	 	 	 	1581519892	4.02	7.45
12/02/2020 15:04:53	120220	12022020	150453	89.99	12.418773	-57.045177	89.94	1.050	-2.810	1.760	89.87	-4.10	2.10	 	 	 	 	 	 	 	 	 	 	 	 	 	 	 	 	 	 	1581519893	3.98	7.37
12/02/2020 15:04:54	120220	12022020	150454	89.51	12.418772	-57.045167	89.52	1.100	-1.510	2.160	89.46	-2.90	2.60	 	 	 	 	 	 	 	 	 	 	 	 	 	 	 	 	 	 	1581519894	2.33	4.32
12/02/2020 15:04:55	120220	12022020	150455	89.52	12.418773	-57.045163	89.59	0.380	0.550	1.950	89.59	-0.90	2.40	 	 	 	 	 	 	 	 	 	 	 	 	 	 	 	 	 	 	1581519895	0.78	1.44
12/02/2020 15:04:56	120220	12022020	150456	90.00	12.418777	-57.045160	90.09	-0.480	1.860	1.120	90.12	0.50	1.60	 	 	 	 	 	 	 	 	 	 	 	 	 	 	 	 	 	 	1581519896	1.01	1.87
12/02/2020 15:04:57	120220	12022020	150457	90.56	12.418782	-57.045153	90.61	-0.890	1.750	0.270	90.66	0.40	0.70	 	 	 	 	 	 	 	 	 	 	 	 	 	 	 	 	 	 	1581519897	1.78	3.30
12/02/2020 15:04:58	120220	12022020	150458	90.96	12.418785	-57.045142	90.95	-0.700	0.580	-0.230	91.01	-0.70	0.20	 	 	 	 	 	 	 	 	 	 	 	 	 	 	 	 	 	 	1581519898	2.70	5.00
12/02/2020 15:04:59	120220	12022020	150459	91.04	12.418785	-57.045125	90.99	-0.160	-0.870	-0.290	91.03	-2.10	0.10	 	 	 	 	 	 	 	 	 	 	 	 	 	 	 	 	 	 	1581519899	3.28	6.07
12/02/2020 15:05:00	120220	12022020	150500	90.84	12.418783	-57.045110	90.77	0.320	-1.790	0.010	90.78	-3.10	0.40	 	 	 	 	 	 	 	 	 	 	 	 	 	 	 	 	 	 	1581519900	3.28	6.07
12/02/2020 15:05:01	120220	12022020	150501	90.51	12.418782	-57.045098	90.46	0.530	-1.710	0.520	90.45	-3.10	0.90	 	 	 	 	 	 	 	 	 	 	 	 	 	 	 	 	 	 	1581519901	2.66	4.93
12/02/2020 15:05:02	120220	12022020	150502	90.34	12.418782	-57.045088	90.35	0.450	-0.810	0.900	90.35	-2.20	1.30	1017.20	26.70	26.80	20.90	20.90	511.0	70.0	70.0	437.0	28.6	352.00	11.30	83.00	10.00	44676	13372.0	27.5	27.5	1581519902	1.90	3.52
12/02/2020 15:05:03	120220	12022020	150503	90.55	12.418783	-57.045082	90.63	0.100	0.380	1.030	90.64	-1.00	1.40	 	 	 	 	 	 	 	 	 	 	 	 	 	 	 	 	 	 	1581519903	1.38	2.56
12/02/2020 15:05:04	120220	12022020	150504	91.03	12.418782	-57.045077	91.11	-0.370	1.190	1.090	91.13	-0.20	1.50	 	 	 	 	 	 	 	 	 	 	 	 	 	 	 	 	 	 	1581519904	1.22	2.26
12/02/2020 15:05:05	120220	12022020	150505	91.40	12.418780	-57.045068	91.44	-0.600	1.110	1.260	91.44	-0.20	1.70	 	 	 	 	 	 	 	 	 	 	 	 	 	 	 	 	 	 	1581519905	1.70	3.15
12/02/2020 15:05:06	120220	12022020	150506	91.51	12.418778	-57.045057	91.51	-0.370	0.250	1.440	91.51	-1.00	1.80	 	 	 	 	 	 	 	 	 	 	 	 	 	 	 	 	 	 	1581519906	2.52	4.67
12/02/2020 15:05:07	120220	12022020	150507	91.52	12.418777	-57.045043	91.50	0.130	-0.800	1.490	91.51	-2.10	1.90	 	 	 	 	 	 	 	 	 	 	 	 	 	 	 	 	 	 	1581519907	3.00	5.56
12/02/2020 15:05:08	120220	12022020	150508	91.44	12.418777	-57.045028	91.40	0.560	-1.540	1.610	91.39	-2.80	2.00	 	 	 	 	 	 	 	 	 	 	 	 	 	 	 	 	 	 	1581519908	3.07	5.69
12/02/2020 15:05:09	120220	12022020	150509	91.11	12.418775	-57.045015	91.06	0.570	-1.350	1.870	91.03	-2.70	2.30	 	 	 	 	 	 	 	 	 	 	 	 	 	 	 	 	 	 	1581519909	2.72	5.04
12/02/2020 15:05:10	120220	12022020	150510	90.71	12.418775	-57.045007	90.68	0.140	-0.220	1.860	90.65	-1.60	2.30	 	 	 	 	 	 	 	 	 	 	 	 	 	 	 	 	 	 	1581519910	1.71	3.17
12/02/2020 15:05:11	120220	12022020	150511	90.56	12.418778	-57.045003	90.56	-0.350	0.940	1.270	90.57	-0.50	1.80	 	 	 	 	 	 	 	 	 	 	 	 	 	 	 	 	 	 	1581519911	1.09	2.02
12/02/2020 15:05:12	120220	12022020	150512	90.75	12.418783	-57.044997	90.77	-0.510	1.080	0.220	90.82	-0.30	0.70	 	 	 	 	 	 	 	 	 	 	 	 	 	 	 	 	 	 	1581519912	1.77	3.28
12/02/2020 15:05:13	120220	12022020	150513	91.15	12.418790	-57.044985	91.16	-0.250	0.180	-0.820	91.24	-1.10	-0.30	 	 	 	 	 	 	 	 	 	 	 	 	 	 	 	 	 	 	1581519913	2.81	5.20
12/02/2020 15:05:14	120220	12022020	150514	91.49	12.418793	-57.044970	91.44	0.140	-0.850	-1.290	91.52	-2.20	-0.90	 	 	 	 	 	 	 	 	 	 	 	 	 	 	 	 	 	 	1581519914	3.30	6.11
12/02/2020 15:05:15	120220	12022020	150515	91.42	12.418793	-57.044957	91.33	0.350	-1.270	-0.940	91.36	-2.60	-0.60	 	 	 	 	 	 	 	 	 	 	 	 	 	 	 	 	 	 	1581519915	2.95	5.46
12/02/2020 15:05:16	120220	12022020	150516	91.07	12.418792	-57.044945	91.00	0.310	-0.920	-0.130	91.01	-2.30	0.20	 	 	 	 	 	 	 	 	 	 	 	 	 	 	 	 	 	 	1581519916	2.36	4.37
12/02/2020 15:05:17	120220	12022020	150517	90.81	12.418788	-57.044937	90.80	0.080	-0.200	0.730	90.79	-1.60	1.10	 	 	 	 	 	 	 	 	 	 	 	 	 	 	 	 	 	 	1581519917	1.88	3.48
12/02/2020 15:05:18	120220	12022020	150518	90.73	12.418785	-57.044930	90.77	-0.200	0.380	1.580	90.74	-1.00	1.90	 	 	 	 	 	 	 	 	 	 	 	 	 	 	 	 	 	 	1581519918	1.82	3.37
12/02/2020 15:05:19	120220	12022020	150519	90.80	12.418780	-57.044922	90.86	-0.360	0.580	2.220	90.82	-0.80	2.60	 	 	 	 	 	 	 	 	 	 	 	 	 	 	 	 	 	 	1581519919	2.07	3.83
12/02/2020 15:05:20	120220	12022020	150520	90.84	12.418775	-57.044912	90.87	-0.250	0.350	2.510	90.83	-1.00	2.90	 	 	 	 	 	 	 	 	 	 	 	 	 	 	 	 	 	 	1581519920	2.25	4.17
12/02/2020 15:05:21	120220	12022020	150521	90.78	12.418775	-57.044900	90.82	0.080	-0.160	2.450	90.78	-1.50	2.90	 	 	 	 	 	 	 	 	 	 	 	 	 	 	 	 	 	 	1581519921	2.49	4.61
12/02/2020 15:05:22	120220	12022020	150522	90.80	12.418778	-57.044887	90.83	0.320	-0.630	2.080	90.81	-2.00	2.50	 	 	 	 	 	 	 	 	 	 	 	 	 	 	 	 	 	 	1581519922	2.77	5.13
12/02/2020 15:05:23	120220	12022020	150523	90.92	12.418783	-57.044875	90.96	0.260	-0.740	1.700	90.92	-2.10	2.10	 	 	 	 	 	 	 	 	 	 	 	 	 	 	 	 	 	 	1581519923	2.67	4.94
12/02/2020 15:05:24	120220	12022020	150524	91.05	12.418785	-57.044865	91.09	-0.030	-0.380	1.400	91.08	-1.80	1.80	 	 	 	 	 	 	 	 	 	 	 	 	 	 	 	 	 	 	1581519924	2.12	3.93
12/02/2020 15:05:25	120220	12022020	150525	91.19	12.418787	-57.044858	91.24	-0.300	0.170	1.140	91.21	-1.20	1.60	 	 	 	 	 	 	 	 	 	 	 	 	 	 	 	 	 	 	1581519925	1.54	2.85
12/02/2020 15:05:26	120220	12022020	150526	91.21	12.418787	-57.044850	91.21	-0.280	0.230	1.070	91.18	-1.10	1.50	 	 	 	 	 	 	 	 	 	 	 	 	 	 	 	 	 	 	1581519926	1.60	2.96
12/02/2020 15:05:27	120220	12022020	150527	90.97	12.418785	-57.044838	90.93	0.030	-0.420	1.190	90.90	-1.70	1.60	 	 	 	 	 	 	 	 	 	 	 	 	 	 	 	 	 	 	1581519927	2.44	4.52
12/02/2020 15:05:28	120220	12022020	150528	90.66	12.418783	-57.044825	90.65	0.370	-1.090	1.110	90.63	-2.40	1.50	 	 	 	 	 	 	 	 	 	 	 	 	 	 	 	 	 	 	1581519928	3.11	5.76
12/02/2020 15:05:29	120220	12022020	150529	90.70	12.418787	-57.044810	90.76	0.510	-1.010	0.620	90.76	-2.40	1.10	 	 	 	 	 	 	 	 	 	 	 	 	 	 	 	 	 	 	1581519929	2.97	5.50
12/02/2020 15:05:30	120220	12022020	150530	91.10	12.418792	-57.044802	91.17	0.320	-0.100	0.110	91.20	-1.50	0.60	 	 	 	 	 	 	 	 	 	 	 	 	 	 	 	 	 	 	1581519930	2.27	4.20
12/02/2020 15:05:31	120220	12022020	150531	91.54	12.418795	-57.044795	91.57	-0.140	0.900	-0.080	91.61	-0.50	0.30	 	 	 	 	 	 	 	 	 	 	 	 	 	 	 	 	 	 	1581519931	1.52	2.82
12/02/2020 15:05:32	120220	12022020	150532	91.80	12.418797	-57.044788	91.79	-0.560	1.260	-0.010	91.82	-0.10	0.40	 	 	 	 	 	 	 	 	 	 	 	 	 	 	 	 	 	 	1581519932	1.29	2.39
12/02/2020 15:05:33	120220	12022020	150533	91.85	12.418795	-57.044780	91.83	-0.600	0.700	0.330	91.84	-0.60	0.70	 	 	 	 	 	 	 	 	 	 	 	 	 	 	 	 	 	 	1581519933	1.93	3.57
12/02/2020 15:05:34	120220	12022020	150534	91.74	12.418792	-57.044767	91.71	-0.180	-0.520	1.020	91.70	-1.80	1.40	 	 	 	 	 	 	 	 	 	 	 	 	 	 	 	 	 	 	1581519934	2.79	5.17
12/02/2020 15:05:35	120220	12022020	150535	91.57	12.418788	-57.044752	91.57	0.380	-1.630	1.710	91.57	-2.90	2.10	 	 	 	 	 	 	 	 	 	 	 	 	 	 	 	 	 	 	1581519935	3.35	6.20
12/02/2020 15:05:36	120220	12022020	150536	91.42	12.418787	-57.044738	91.44	0.550	-1.650	2.040	91.40	-3.00	2.40	 	 	 	 	 	 	 	 	 	 	 	 	 	 	 	 	 	 	1581519936	2.98	5.52
12/02/2020 15:05:37	120220	12022020	150537	91.29	12.418787	-57.044730	91.30	0.150	-0.540	2.130	91.27	-2.00	2.50	 	 	 	 	 	 	 	 	 	 	 	 	 	 	 	 	 	 	1581519937	1.81	3.35
12/02/2020 15:05:38	120220	12022020	150538	91.24	12.418787	-57.044725	91.27	-0.400	0.660	2.060	91.25	-0.70	2.50	 	 	 	 	 	 	 	 	 	 	 	 	 	 	 	 	 	 	1581519938	0.95	1.76
12/02/2020 15:05:39	120220	12022020	150539	91.31	12.418787	-57.044718	91.35	-0.550	0.810	1.690	91.34	-0.50	2.10	 	 	 	 	 	 	 	 	 	 	 	 	 	 	 	 	 	 	1581519939	1.36	2.52
12/02/2020 15:05:40	120220	12022020	150540	91.50	12.418788	-57.044707	91.53	-0.100	-0.100	0.980	91.54	-1.40	1.40	 	 	 	 	 	 	 	 	 	 	 	 	 	 	 	 	 	 	1581519940	2.73	5.06
12/02/2020 15:05:41	120220	12022020	150541	91.70	12.418793	-57.044688	91.71	0.550	-0.970	0.200	91.74	-2.30	0.70	 	 	 	 	 	 	 	 	 	 	 	 	 	 	 	 	 	 	1581519941	3.66	6.78
12/02/2020 15:05:42	120220	12022020	150542	91.88	12.418797	-57.044673	91.89	0.810	-0.850	-0.230	91.91	-2.20	0.20	 	 	 	 	 	 	 	 	 	 	 	 	 	 	 	 	 	 	1581519942	3.28	6.07
12/02/2020 15:05:43	120220	12022020	150543	92.00	12.418798	-57.044665	91.99	0.400	0.190	-0.100	92.01	-1.20	0.30	 	 	 	 	 	 	 	 	 	 	 	 	 	 	 	 	 	 	1581519943	1.98	3.67
12/02/2020 15:05:44	120220	12022020	150544	91.97	12.418798	-57.044660	91.95	-0.460	1.230	0.380	91.95	-0.20	0.80	 	 	 	 	 	 	 	 	 	 	 	 	 	 	 	 	 	 	1581519944	1.07	1.98
12/02/2020 15:05:45	120220	12022020	150545	91.84	12.418797	-57.044653	91.81	-1.160	1.330	0.950	91.81	0.00	1.30	 	 	 	 	 	 	 	 	 	 	 	 	 	 	 	 	 	 	1581519945	1.27	2.35
12/02/2020 15:05:46	120220	12022020	150546	91.69	12.418795	-57.044643	91.66	-1.090	0.140	1.530	91.65	-1.10	1.90	 	 	 	 	 	 	 	 	 	 	 	 	 	 	 	 	 	 	1581519946	2.32	4.30
12/02/2020 15:05:47	120220	12022020	150547	91.51	12.418792	-57.044627	91.49	-0.200	-1.680	1.980	91.47	-2.90	2.40	 	 	 	 	 	 	 	 	 	 	 	 	 	 	 	 	 	 	1581519947	3.61	6.69
12/02/2020 15:05:48	120220	12022020	150548	91.37	12.418790	-57.044607	91.40	0.850	-2.680	2.080	91.37	-4.00	2.50	 	 	 	 	 	 	 	 	 	 	 	 	 	 	 	 	 	 	1581519948	4.04	7.48
12/02/2020 15:05:49	120220	12022020	150549	91.49	12.418790	-57.044593	91.56	1.270	-1.920	1.890	91.54	-3.30	2.30	 	 	 	 	 	 	 	 	 	 	 	 	 	 	 	 	 	 	1581519949	3.06	5.67
12/02/2020 15:05:50	120220	12022020	150550	91.87	12.418792	-57.044587	91.96	0.800	0.080	1.510	91.96	-1.40	1.90	 	 	 	 	 	 	 	 	 	 	 	 	 	 	 	 	 	 	1581519950	1.50	2.78
12/02/2020 15:05:51	120220	12022020	150551	92.27	12.418795	-57.044583	92.32	-0.140	1.860	1.050	92.32	0.40	1.50	 	 	 	 	 	 	 	 	 	 	 	 	 	 	 	 	 	 	1581519951	0.95	1.76
12/02/2020 15:05:52	120220	12022020	150552	92.40	12.418798	-57.044577	92.37	-0.910	2.270	0.650	92.37	0.90	1.10	 	 	 	 	 	 	 	 	 	 	 	 	 	 	 	 	 	 	1581519952	1.45	2.69
12/02/2020 15:05:53	120220	12022020	150553	92.20	12.418802	-57.044565	92.14	-1.080	1.250	0.470	92.15	0.00	0.90	 	 	 	 	 	 	 	 	 	 	 	 	 	 	 	 	 	 	1581519953	2.53	4.69
12/02/2020 15:05:54	120220	12022020	150554	91.97	12.418802	-57.044550	91.93	-0.660	-0.390	0.520	91.95	-1.60	0.90	 	 	 	 	 	 	 	 	 	 	 	 	 	 	 	 	 	 	1581519954	3.43	6.35
12/02/2020 15:05:55	120220	12022020	150555	91.96	12.418802	-57.044532	91.98	0.080	-1.740	0.460	91.99	-3.00	0.90	 	 	 	 	 	 	 	 	 	 	 	 	 	 	 	 	 	 	1581519955	3.62	6.70
12/02/2020 15:05:56	120220	12022020	150556	92.14	12.418802	-57.044517	92.18	0.760	-2.210	0.220	92.19	-3.50	0.60	 	 	 	 	 	 	 	 	 	 	 	 	 	 	 	 	 	 	1581519956	3.25	6.02
12/02/2020 15:05:57	120220	12022020	150557	92.31	12.418805	-57.044505	92.34	1.000	-1.700	0.090	92.32	-3.10	0.50	 	 	 	 	 	 	 	 	 	 	 	 	 	 	 	 	 	 	1581519957	2.68	4.96
12/02/2020 15:05:58	120220	12022020	150558	92.29	12.418805	-57.044495	92.28	0.620	-0.540	0.450	92.25	-1.90	0.80	 	 	 	 	 	 	 	 	 	 	 	 	 	 	 	 	 	 	1581519958	2.02	3.74
12/02/2020 15:05:59	120220	12022020	150559	92.04	12.418803	-57.044487	92.02	-0.080	0.660	1.110	91.99	-0.70	1.50	 	 	 	 	 	 	 	 	 	 	 	 	 	 	 	 	 	 	1581519959	1.76	3.26
12/02/2020 15:06:00	120220	12022020	150600	91.79	12.418800	-57.044478	91.78	-0.610	1.480	1.500	91.76	0.10	1.90	 	 	 	 	 	 	 	 	 	 	 	 	 	 	 	 	 	 	1581519960	1.89	3.50
12/02/2020 15:06:01	120220	12022020	150601	91.75	12.418800	-57.044468	91.78	-0.760	1.640	1.440	91.78	0.30	1.90	 	 	 	 	 	 	 	 	 	 	 	 	 	 	 	 	 	 	1581519961	2.09	3.87
12/02/2020 15:06:02	120220	12022020	150602	91.97	12.418803	-57.044457	92.01	-0.590	0.860	1.100	92.02	-0.40	1.50	1017.10	26.70	26.70	20.90	20.90	531.0	70.0	70.0	437.0	28.6	353.00	11.40	84.00	10.20	45814	10684.0	27.5	27.5	1581519962	2.63	4.87
12/02/2020 15:06:03	120220	12022020	150603	92.23	12.418805	-57.044440	92.26	-0.200	-0.650	0.700	92.27	-1.90	1.10	 	 	 	 	 	 	 	 	 	 	 	 	 	 	 	 	 	 	1581519963	3.38	6.26
12/02/2020 15:06:04	120220	12022020	150604	92.50	12.418808	-57.044422	92.55	0.260	-1.940	0.450	92.55	-3.20	0.90	 	 	 	 	 	 	 	 	 	 	 	 	 	 	 	 	 	 	1581519964	3.93	7.28
12/02/2020 15:06:05	120220	12022020	150605	92.71	12.418808	-57.044407	92.73	0.540	-1.990	0.690	92.72	-3.30	1.10	 	 	 	 	 	 	 	 	 	 	 	 	 	 	 	 	 	 	1581519965	3.38	6.26
12/02/2020 15:06:06	120220	12022020	150606	92.58	12.418803	-57.044395	92.55	0.530	-1.000	1.460	92.49	-2.40	1.80	 	 	 	 	 	 	 	 	 	 	 	 	 	 	 	 	 	 	1581519966	2.38	4.41
12/02/2020 15:06:07	120220	12022020	150607	92.03	12.418798	-57.044387	91.98	0.410	0.080	2.170	91.91	-1.30	2.50	 	 	 	 	 	 	 	 	 	 	 	 	 	 	 	 	 	 	1581519967	2.04	3.78
12/02/2020 15:06:08	120220	12022020	150608	91.56	12.418798	-57.044377	91.57	0.260	0.730	2.110	91.52	-0.60	2.50	 	 	 	 	 	 	 	 	 	 	 	 	 	 	 	 	 	 	1581519968	2.17	4.02
12/02/2020 15:06:09	120220	12022020	150609	91.57	12.418803	-57.044365	91.64	-0.050	1.070	1.420	91.63	-0.30	1.90	 	 	 	 	 	 	 	 	 	 	 	 	 	 	 	 	 	 	1581519969	2.73	5.06
12/02/2020 15:06:10	120220	12022020	150610	91.98	12.418810	-57.044353	92.07	-0.500	0.960	0.450	92.09	-0.40	0.90	 	 	 	 	 	 	 	 	 	 	 	 	 	 	 	 	 	 	1581519970	2.87	5.32
12/02/2020 15:06:11	120220	12022020	150611	92.51	12.418817	-57.044340	92.55	-0.650	0.040	-0.520	92.51	-1.20	-0.10	 	 	 	 	 	 	 	 	 	 	 	 	 	 	 	 	 	 	1581519971	3.10	5.74
12/02/2020 15:06:12	120220	12022020	150612	92.84	12.418818	-57.044323	92.84	-0.160	-1.370	-0.930	92.88	-2.60	-0.50	 	 	 	 	 	 	 	 	 	 	 	 	 	 	 	 	 	 	1581519972	3.80	7.04
12/02/2020 15:06:13	120220	12022020	150613	93.01	12.418818	-57.044303	93.00	0.510	-1.840	-0.690	93.01	-3.20	-0.30	 	 	 	 	 	 	 	 	 	 	 	 	 	 	 	 	 	 	1581519973	4.01	7.43
12/02/2020 15:06:14	120220	12022020	150614	93.14	12.418817	-57.044292	93.14	0.660	-0.830	0.030	93.15	-2.20	0.40	 	 	 	 	 	 	 	 	 	 	 	 	 	 	 	 	 	 	1581519974	2.66	4.93
12/02/2020 15:06:15	120220	12022020	150615	93.18	12.418813	-57.044285	93.18	0.210	0.470	1.010	93.17	-0.90	1.40	 	 	 	 	 	 	 	 	 	 	 	 	 	 	 	 	 	 	1581519975	1.57	2.91
12/02/2020 15:06:16	120220	12022020	150616	93.08	12.418810	-57.044277	93.09	-0.310	0.880	1.930	93.05	-0.40	2.30	 	 	 	 	 	 	 	 	 	 	 	 	 	 	 	 	 	 	1581519976	1.85	3.43
12/02/2020 15:06:17	120220	12022020	150617	92.98	12.418807	-57.044263	93.03	-0.480	0.420	2.470	92.98	-0.90	2.90	 	 	 	 	 	 	 	 	 	 	 	 	 	 	 	 	 	 	1581519977	2.88	5.33
12/02/2020 15:06:18	120220	12022020	150618	93.07	12.418805	-57.044248	93.16	-0.360	-0.150	2.530	93.11	-1.40	2.90	 	 	 	 	 	 	 	 	 	 	 	 	 	 	 	 	 	 	1581519978	3.39	6.28
12/02/2020 15:06:19	120220	12022020	150619	93.32	12.418805	-57.044233	93.43	-0.150	-0.420	2.250	93.38	-1.70	2.70	 	 	 	 	 	 	 	 	 	 	 	 	 	 	 	 	 	 	1581519979	3.12	5.78
12/02/2020 15:06:20	120220	12022020	150620	93.58	12.418805	-57.044220	93.66	0.060	-0.530	1.830	93.62	-1.90	2.30	 	 	 	 	 	 	 	 	 	 	 	 	 	 	 	 	 	 	1581519980	2.80	5.19
12/02/2020 15:06:21	120220	12022020	150621	93.82	12.418807	-57.044207	93.90	0.250	-0.520	1.190	93.88	-1.90	1.60	 	 	 	 	 	 	 	 	 	 	 	 	 	 	 	 	 	 	1581519981	2.80	5.19
12/02/2020 15:06:22	120220	12022020	150622	94.06	12.418810	-57.044193	94.10	0.350	-0.330	0.390	94.08	-1.70	0.80	 	 	 	 	 	 	 	 	 	 	 	 	 	 	 	 	 	 	1581519982	2.82	5.22
12/02/2020 15:06:23	120220	12022020	150623	94.01	12.418813	-57.044182	93.97	0.310	-0.190	-0.100	93.95	-1.50	0.30	 	 	 	 	 	 	 	 	 	 	 	 	 	 	 	 	 	 	1581519983	2.78	5.15
12/02/2020 15:06:24	120220	12022020	150624	93.58	12.418817	-57.044168	93.49	0.230	-0.310	-0.100	93.47	-1.60	0.30	 	 	 	 	 	 	 	 	 	 	 	 	 	 	 	 	 	 	1581519984	2.92	5.41
12/02/2020 15:06:25	120220	12022020	150625	93.10	12.418818	-57.044152	93.06	0.210	-0.510	-0.010	93.10	-1.80	0.40	 	 	 	 	 	 	 	 	 	 	 	 	 	 	 	 	 	 	1581519985	3.28	6.07
12/02/2020 15:06:26	120220	12022020	150626	93.07	12.418822	-57.044137	93.12	0.180	-0.410	-0.130	93.13	-1.80	0.30	 	 	 	 	 	 	 	 	 	 	 	 	 	 	 	 	 	 	1581519986	3.36	6.22
12/02/2020 15:06:27	120220	12022020	150627	93.51	12.418823	-57.044123	93.59	-0.100	0.100	-0.180	93.62	-1.30	0.20	 	 	 	 	 	 	 	 	 	 	 	 	 	 	 	 	 	 	1581519987	2.93	5.43
12/02/2020 15:06:28	120220	12022020	150628	94.05	12.418822	-57.044112	94.14	-0.590	0.740	0.090	94.15	-0.60	0.50	 	 	 	 	 	 	 	 	 	 	 	 	 	 	 	 	 	 	1581519988	2.34	4.33
12/02/2020 15:06:29	120220	12022020	150629	94.42	12.418817	-57.044102	94.48	-0.920	0.950	0.630	94.46	-0.40	1.00	 	 	 	 	 	 	 	 	 	 	 	 	 	 	 	 	 	 	1581519989	2.29	4.24
12/02/2020 15:06:30	120220	12022020	150630	94.47	12.418810	-57.044090	94.51	-0.660	0.270	1.330	94.44	-1.00	1.70	 	 	 	 	 	 	 	 	 	 	 	 	 	 	 	 	 	 	1581519990	2.94	5.44
12/02/2020 15:06:31	120220	12022020	150631	94.21	12.418803	-57.044073	94.22	0.100	-0.890	2.090	94.11	-2.10	2.40	 	 	 	 	 	 	 	 	 	 	 	 	 	 	 	 	 	 	1581519991	3.84	7.11
12/02/2020 15:06:32	120220	12022020	150632	93.66	12.418798	-57.044055	93.67	0.800	-1.570	2.620	93.55	-2.80	3.00	 	 	 	 	 	 	 	 	 	 	 	 	 	 	 	 	 	 	1581519992	3.99	7.39
12/02/2020 15:06:33	120220	12022020	150633	93.18	12.418800	-57.044040	93.22	0.990	-1.240	2.480	93.12	-2.60	2.90	 	 	 	 	 	 	 	 	 	 	 	 	 	 	 	 	 	 	1581519993	3.26	6.04
12/02/2020 15:06:34	120220	12022020	150634	93.10	12.418805	-57.044028	93.19	0.640	-0.320	1.620	93.14	-1.70	2.10	 	 	 	 	 	 	 	 	 	 	 	 	 	 	 	 	 	 	1581519994	2.75	5.09
12/02/2020 15:06:35	120220	12022020	150635	93.42	12.418813	-57.044017	93.50	0.140	0.320	0.420	93.49	-1.00	0.90	 	 	 	 	 	 	 	 	 	 	 	 	 	 	 	 	 	 	1581519995	2.81	5.20
12/02/2020 15:06:36	120220	12022020	150636	93.61	12.418818	-57.044003	93.60	-0.220	0.300	-0.370	93.59	-1.00	0.10	 	 	 	 	 	 	 	 	 	 	 	 	 	 	 	 	 	 	1581519996	3.16	5.85
12/02/2020 15:06:37	120220	12022020	150637	93.46	12.418820	-57.043987	93.43	-0.510	0.180	-0.520	93.43	-1.10	-0.10	 	 	 	 	 	 	 	 	 	 	 	 	 	 	 	 	 	 	1581519997	3.46	6.41
12/02/2020 15:06:38	120220	12022020	150638	93.37	12.418818	-57.043972	93.37	-0.790	0.400	-0.260	93.37	-0.90	0.10	 	 	 	 	 	 	 	 	 	 	 	 	 	 	 	 	 	 	1581519998	3.06	5.67
12/02/2020 15:06:39	120220	12022020	150639	93.42	12.418813	-57.043962	93.43	-0.820	0.540	0.240	93.43	-0.80	0.60	 	 	 	 	 	 	 	 	 	 	 	 	 	 	 	 	 	 	1581519999	2.57	4.76
12/02/2020 15:06:40	120220	12022020	150640	93.33	12.418810	-57.043948	93.32	-0.310	-0.180	1.000	93.28	-1.40	1.40	 	 	 	 	 	 	 	 	 	 	 	 	 	 	 	 	 	 	1581520000	2.92	5.41
12/02/2020 15:06:41	120220	12022020	150641	93.07	12.418805	-57.043930	93.09	0.410	-1.350	1.770	93.03	-2.60	2.10	 	 	 	 	 	 	 	 	 	 	 	 	 	 	 	 	 	 	1581520001	4.04	7.48
12/02/2020 15:06:42	120220	12022020	150642	92.99	12.418802	-57.043910	93.07	0.730	-1.530	2.310	93.01	-2.90	2.70	 	 	 	 	 	 	 	 	 	 	 	 	 	 	 	 	 	 	1581520002	4.18	7.74
12/02/2020 15:06:43	120220	12022020	150643	93.18	12.418798	-57.043898	93.29	0.510	-0.290	2.400	93.23	-1.70	2.80	 	 	 	 	 	 	 	 	 	 	 	 	 	 	 	 	 	 	1581520003	2.71	5.02
12/02/2020 15:06:44	120220	12022020	150644	93.39	12.418798	-57.043892	93.46	0.140	1.110	2.030	93.41	-0.30	2.50	 	 	 	 	 	 	 	 	 	 	 	 	 	 	 	 	 	 	1581520004	1.37	2.54
12/02/2020 15:06:45	120220	12022020	150645	93.43	12.418803	-57.043882	93.47	0.030	1.170	1.400	93.43	-0.10	1.80	 	 	 	 	 	 	 	 	 	 	 	 	 	 	 	 	 	 	1581520005	2.11	3.91
12/02/2020 15:06:46	120220	12022020	150646	93.47	12.418808	-57.043865	93.51	0.180	-0.080	0.660	93.48	-1.30	1.10	 	 	 	 	 	 	 	 	 	 	 	 	 	 	 	 	 	 	1581520006	3.70	6.85
12/02/2020 15:06:47	120220	12022020	150647	93.49	12.418813	-57.043845	93.50	0.270	-1.370	0.210	93.47	-2.60	0.60	 	 	 	 	 	 	 	 	 	 	 	 	 	 	 	 	 	 	1581520007	4.51	8.35
12/02/2020 15:06:48	120220	12022020	150648	93.29	12.418813	-57.043825	93.26	0.070	-1.690	0.320	93.24	-3.00	0.70	 	 	 	 	 	 	 	 	 	 	 	 	 	 	 	 	 	 	1581520008	4.03	7.46
12/02/2020 15:06:49	120220	12022020	150649	93.09	12.418812	-57.043812	93.11	-0.360	-0.820	0.690	93.09	-2.20	1.10	 	 	 	 	 	 	 	 	 	 	 	 	 	 	 	 	 	 	1581520009	3.01	5.57
12/02/2020 15:06:50	120220	12022020	150650	93.21	12.418807	-57.043803	93.26	-0.740	0.490	0.910	93.26	-0.90	1.30	 	 	 	 	 	 	 	 	 	 	 	 	 	 	 	 	 	 	1581520010	2.12	3.93
12/02/2020 15:06:51	120220	12022020	150651	93.44	12.418803	-57.043793	93.49	-0.740	1.200	1.000	93.48	-0.10	1.40	 	 	 	 	 	 	 	 	 	 	 	 	 	 	 	 	 	 	1581520011	2.01	3.72
12/02/2020 15:06:52	120220	12022020	150652	93.53	12.418802	-57.043782	93.57	-0.360	0.850	1.070	93.54	-0.40	1.50	 	 	 	 	 	 	 	 	 	 	 	 	 	 	 	 	 	 	1581520012	2.78	5.15
12/02/2020 15:06:53	120220	12022020	150653	93.49	12.418800	-57.043763	93.50	0.150	-0.180	1.010	93.47	-1.40	1.40	 	 	 	 	 	 	 	 	 	 	 	 	 	 	 	 	 	 	1581520013	3.70	6.85
12/02/2020 15:06:54	120220	12022020	150654	93.33	12.418800	-57.043743	93.32	0.560	-1.100	0.910	93.29	-2.40	1.30	 	 	 	 	 	 	 	 	 	 	 	 	 	 	 	 	 	 	1581520014	4.09	7.57
12/02/2020 15:06:55	120220	12022020	150655	93.20	12.418802	-57.043727	93.21	0.710	-1.210	0.670	93.20	-2.50	1.10	 	 	 	 	 	 	 	 	 	 	 	 	 	 	 	 	 	 	1581520015	3.77	6.98
12/02/2020 15:06:56	120220	12022020	150656	93.30	12.418807	-57.043713	93.34	0.480	-0.510	0.420	93.33	-1.90	0.90	 	 	 	 	 	 	 	 	 	 	 	 	 	 	 	 	 	 	1581520016	2.96	5.48
12/02/2020 15:06:57	120220	12022020	150657	93.51	12.418808	-57.043703	93.54	-0.060	0.360	0.450	93.54	-1.00	0.90	 	 	 	 	 	 	 	 	 	 	 	 	 	 	 	 	 	 	1581520017	2.21	4.09
12/02/2020 15:06:58	120220	12022020	150658	93.59	12.418807	-57.043692	93.60	-0.580	0.770	0.740	93.58	-0.60	1.10	 	 	 	 	 	 	 	 	 	 	 	 	 	 	 	 	 	 	1581520018	2.22	4.11
12/02/2020 15:06:59	120220	12022020	150659	93.38	12.418802	-57.043680	93.35	-0.730	0.500	1.240	93.30	-0.80	1.60	 	 	 	 	 	 	 	 	 	 	 	 	 	 	 	 	 	 	1581520019	2.89	5.35
12/02/2020 15:07:00	120220	12022020	150700	92.89	12.418795	-57.043663	92.85	-0.410	-0.430	1.930	92.77	-1.70	2.30	 	 	 	 	 	 	 	 	 	 	 	 	 	 	 	 	 	 	1581520020	3.62	6.70
12/02/2020 15:07:01	120220	12022020	150701	92.34	12.418790	-57.043643	92.33	0.150	-1.530	2.500	92.34	-2.80	2.90	 	 	 	 	 	 	 	 	 	 	 	 	 	 	 	 	 	 	1581520021	4.27	7.91
12/02/2020 15:07:02	120220	12022020	150702	91.97	12.418788	-57.043623	92.00	0.580	-1.890	2.450	91.94	-3.20	2.90	1017.10	26.70	26.70	20.90	20.90	547.0	70.0	70.0	438.0	28.6	350.00	12.80	82.00	11.30	46539	11077.0	27.5	27.5	1581520022	4.32	8.00
12/02/2020 15:07:03	120220	12022020	150703	91.92	12.418790	-57.043607	91.98	0.580	-0.940	1.910	91.96	-2.30	2.40	 	 	 	 	 	 	 	 	 	 	 	 	 	 	 	 	 	 	1581520023	3.49	6.46
12/02/2020 15:07:04	120220	12022020	150704	92.20	12.418793	-57.043597	92.29	0.210	0.780	1.160	92.28	-0.70	1.60	 	 	 	 	 	 	 	 	 	 	 	 	 	 	 	 	 	 	1581520024	2.27	4.20
12/02/2020 15:07:05	120220	12022020	150705	92.59	12.418797	-57.043590	92.64	-0.230	1.970	0.450	92.65	0.60	0.90	 	 	 	 	 	 	 	 	 	 	 	 	 	 	 	 	 	 	1581520025	1.76	3.26
12/02/2020 15:07:06	120220	12022020	150706	92.75	12.418798	-57.043578	92.74	-0.450	1.680	0.060	92.74	0.40	0.50	 	 	 	 	 	 	 	 	 	 	 	 	 	 	 	 	 	 	1581520026	2.46	4.56
12/02/2020 15:07:07	120220	12022020	150707	92.59	12.418800	-57.043560	92.53	-0.450	0.350	0.070	92.53	-0.90	0.50	 	 	 	 	 	 	 	 	 	 	 	 	 	 	 	 	 	 	1581520027	3.66	6.78
12/02/2020 15:07:08	120220	12022020	150708	92.20	12.418798	-57.043542	92.13	-0.340	-0.990	0.510	92.10	-2.20	0.90	 	 	 	 	 	 	 	 	 	 	 	 	 	 	 	 	 	 	1581520028	4.08	7.56
12/02/2020 15:07:09	120220	12022020	150709	91.78	12.418795	-57.043523	91.77	-0.060	-1.870	1.220	91.72	-3.10	1.60	 	 	 	 	 	 	 	 	 	 	 	 	 	 	 	 	 	 	1581520029	3.89	7.20
12/02/2020 15:07:10	120220	12022020	150710	91.63	12.418792	-57.043507	91.69	0.400	-2.180	1.770	91.64	-3.50	2.20	 	 	 	 	 	 	 	 	 	 	 	 	 	 	 	 	 	 	1581520030	3.75	6.95
12/02/2020 15:07:11	120220	12022020	150711	91.70	12.418788	-57.043490	91.78	0.710	-1.590	1.990	91.71	-3.00	2.40	 	 	 	 	 	 	 	 	 	 	 	 	 	 	 	 	 	 	1581520031	3.47	6.43
12/02/2020 15:07:12	120220	12022020	150712	91.69	12.418788	-57.043477	91.73	0.510	-0.150	1.910	91.67	-1.60	2.30	 	 	 	 	 	 	 	 	 	 	 	 	 	 	 	 	 	 	1581520032	2.71	5.02
12/02/2020 15:07:13	120220	12022020	150713	91.53	12.418788	-57.043467	91.54	-0.110	1.320	1.680	91.53	-0.10	2.10	 	 	 	 	 	 	 	 	 	 	 	 	 	 	 	 	 	 	1581520033	2.10	3.89
12/02/2020 15:07:14	120220	12022020	150714	91.44	12.418790	-57.043457	91.47	-0.640	1.840	1.330	91.44	0.50	1.80	 	 	 	 	 	 	 	 	 	 	 	 	 	 	 	 	 	 	1581520034	2.29	4.24
12/02/2020 15:07:15	120220	12022020	150715	91.57	12.418792	-57.043442	91.64	-0.620	1.060	0.730	91.63	-0.20	1.20	 	 	 	 	 	 	 	 	 	 	 	 	 	 	 	 	 	 	1581520035	3.27	6.06
12/02/2020 15:07:16	120220	12022020	150716	91.91	12.418795	-57.043422	91.95	-0.170	-0.330	0.080	91.97	-1.60	0.50	 	 	 	 	 	 	 	 	 	 	 	 	 	 	 	 	 	 	1581520036	4.31	7.98
12/02/2020 15:07:17	120220	12022020	150717	92.06	12.418798	-57.043400	92.03	0.240	-1.310	-0.200	92.05	-2.60	0.20	 	 	 	 	 	 	 	 	 	 	 	 	 	 	 	 	 	 	1581520037	4.41	8.17
12/02/2020 15:07:18	120220	12022020	150718	91.88	12.418798	-57.043383	91.82	0.300	-1.440	0.080	91.81	-2.80	0.50	 	 	 	 	 	 	 	 	 	 	 	 	 	 	 	 	 	 	1581520038	3.70	6.85
12/02/2020 15:07:19	120220	12022020	150719	91.49	12.418795	-57.043370	91.44	0.110	-0.870	0.820	91.41	-2.20	1.20	 	 	 	 	 	 	 	 	 	 	 	 	 	 	 	 	 	 	1581520039	3.00	5.56
12/02/2020 15:07:20	120220	12022020	150720	91.14	12.418792	-57.043357	91.14	-0.070	-0.070	1.500	91.10	-1.40	1.90	 	 	 	 	 	 	 	 	 	 	 	 	 	 	 	 	 	 	1581520040	2.76	5.11
12/02/2020 15:07:21	120220	12022020	150721	90.99	12.418790	-57.043345	91.02	-0.160	0.560	1.780	90.97	-0.80	2.20	 	 	 	 	 	 	 	 	 	 	 	 	 	 	 	 	 	 	1581520041	2.69	4.98
12/02/2020 15:07:22	120220	12022020	150722	90.98	12.418790	-57.043330	91.02	-0.180	0.650	1.720	90.99	-0.70	2.10	 	 	 	 	 	 	 	 	 	 	 	 	 	 	 	 	 	 	1581520042	2.95	5.46
12/02/2020 15:07:23	120220	12022020	150723	91.12	12.418793	-57.043315	91.17	-0.070	0.060	1.320	91.15	-1.20	1.80	 	 	 	 	 	 	 	 	 	 	 	 	 	 	 	 	 	 	1581520043	3.50	6.48
12/02/2020 15:07:24	120220	12022020	150724	91.28	12.418795	-57.043295	91.30	0.240	-0.890	0.940	91.29	-2.20	1.40	 	 	 	 	 	 	 	 	 	 	 	 	 	 	 	 	 	 	1581520044	4.16	7.70
12/02/2020 15:07:25	120220	12022020	150725	91.31	12.418795	-57.043275	91.32	0.610	-1.370	0.920	91.30	-2.70	1.30	 	 	 	 	 	 	 	 	 	 	 	 	 	 	 	 	 	 	1581520045	4.33	8.02
12/02/2020 15:07:26	120220	12022020	150726	91.23	12.418795	-57.043257	91.24	0.680	-0.780	1.180	91.21	-2.10	1.60	 	 	 	 	 	 	 	 	 	 	 	 	 	 	 	 	 	 	1581520046	3.67	6.80
12/02/2020 15:07:27	120220	12022020	150727	91.17	12.418795	-57.043245	91.21	0.220	0.510	1.330	91.18	-0.90	1.80	 	 	 	 	 	 	 	 	 	 	 	 	 	 	 	 	 	 	1581520047	2.57	4.76
12/02/2020 15:07:28	120220	12022020	150728	91.28	12.418795	-57.043235	91.32	-0.540	1.370	1.160	91.30	0.00	1.60	 	 	 	 	 	 	 	 	 	 	 	 	 	 	 	 	 	 	1581520048	2.07	3.83
12/02/2020 15:07:29	120220	12022020	150729	91.26	12.418795	-57.043222	91.26	-0.960	0.930	1.120	91.21	-0.30	1.50	 	 	 	 	 	 	 	 	 	 	 	 	 	 	 	 	 	 	1581520049	2.75	5.09
12/02/2020 15:07:30	120220	12022020	150730	90.95	12.418795	-57.043203	90.94	-0.620	-0.450	1.360	90.88	-1.70	1.80	 	 	 	 	 	 	 	 	 	 	 	 	 	 	 	 	 	 	1581520050	4.08	7.56
12/02/2020 15:07:31	120220	12022020	150731	90.78	12.418795	-57.043180	90.83	0.140	-1.580	1.290	90.80	-2.80	1.70	 	 	 	 	 	 	 	 	 	 	 	 	 	 	 	 	 	 	1581520051	4.70	8.70
12/02/2020 15:07:32	120220	12022020	150732	91.07	12.418798	-57.043162	91.17	0.620	-1.630	0.920	91.16	-2.90	1.40	 	 	 	 	 	 	 	 	 	 	 	 	 	 	 	 	 	 	1581520052	4.23	7.83
12/02/2020 15:07:33	120220	12022020	150733	91.53	12.418800	-57.043147	91.63	0.500	-0.750	0.810	91.61	-2.10	1.20	 	 	 	 	 	 	 	 	 	 	 	 	 	 	 	 	 	 	1581520053	3.17	5.87
12/02/2020 15:07:34	120220	12022020	150734	91.85	12.418798	-57.043135	91.91	0.060	0.350	0.970	91.88	-1.00	1.40	 	 	 	 	 	 	 	 	 	 	 	 	 	 	 	 	 	 	1581520054	2.54	4.70
12/02/2020 15:07:35	120220	12022020	150735	91.92	12.418795	-57.043122	91.95	-0.250	1.050	1.170	91.91	-0.30	1.60	 	 	 	 	 	 	 	 	 	 	 	 	 	 	 	 	 	 	1581520055	2.62	4.85
12/02/2020 15:07:36	120220	12022020	150736	91.84	12.418795	-57.043108	91.86	-0.260	0.970	1.330	91.82	-0.30	1.70	 	 	 	 	 	 	 	 	 	 	 	 	 	 	 	 	 	 	1581520056	3.07	5.69
12/02/2020 15:07:37	120220	12022020	150737	91.85	12.418795	-57.043090	91.91	-0.190	0.200	1.410	91.87	-1.10	1.80	 	 	 	 	 	 	 	 	 	 	 	 	 	 	 	 	 	 	1581520057	3.77	6.98
12/02/2020 15:07:38	120220	12022020	150738	91.92	12.418797	-57.043070	91.97	-0.160	-0.700	1.440	91.91	-2.00	1.90	 	 	 	 	 	 	 	 	 	 	 	 	 	 	 	 	 	 	1581520058	4.10	7.59
12/02/2020 15:07:39	120220	12022020	150739	91.79	12.418795	-57.043052	91.79	-0.050	-1.280	1.460	91.79	-2.60	1.90	 	 	 	 	 	 	 	 	 	 	 	 	 	 	 	 	 	 	1581520059	4.02	7.45
12/02/2020 15:07:40	120220	12022020	150740	91.52	12.418795	-57.043033	91.55	0.260	-1.380	1.470	91.49	-2.70	1.90	 	 	 	 	 	 	 	 	 	 	 	 	 	 	 	 	 	 	1581520060	3.87	7.17
12/02/2020 15:07:41	120220	12022020	150741	91.49	12.418797	-57.043017	91.55	0.580	-0.890	1.310	91.52	-2.20	1.80	 	 	 	 	 	 	 	 	 	 	 	 	 	 	 	 	 	 	1581520061	3.64	6.74
12/02/2020 15:07:42	120220	12022020	150742	91.74	12.418798	-57.043000	91.82	0.570	-0.010	0.910	91.81	-1.40	1.40	 	 	 	 	 	 	 	 	 	 	 	 	 	 	 	 	 	 	1581520062	3.24	6.00
12/02/2020 15:07:43	120220	12022020	150743	92.15	12.418802	-57.042987	92.24	0.160	0.770	0.380	92.24	-0.60	0.80	 	 	 	 	 	 	 	 	 	 	 	 	 	 	 	 	 	 	1581520063	3.05	5.65
12/02/2020 15:07:44	120220	12022020	150744	92.50	12.418803	-57.042972	92.53	-0.410	0.980	0.290	92.53	-0.30	0.70	 	 	 	 	 	 	 	 	 	 	 	 	 	 	 	 	 	 	1581520064	3.11	5.76
12/02/2020 15:07:45	120220	12022020	150745	92.50	12.418800	-57.042955	92.48	-0.720	0.590	0.730	92.46	-0.70	1.10	 	 	 	 	 	 	 	 	 	 	 	 	 	 	 	 	 	 	1581520065	3.54	6.56
12/02/2020 15:07:46	120220	12022020	150746	92.26	12.418797	-57.042937	92.24	-0.630	-0.040	1.200	92.21	-1.30	1.60	 	 	 	 	 	 	 	 	 	 	 	 	 	 	 	 	 	 	1581520066	3.92	7.26
12/02/2020 15:07:47	120220	12022020	150747	92.04	12.418793	-57.042918	92.04	-0.230	-0.670	1.480	92.01	-2.00	1.90	 	 	 	 	 	 	 	 	 	 	 	 	 	 	 	 	 	 	1581520067	3.95	7.32
12/02/2020 15:07:48	120220	12022020	150748	91.81	12.418793	-57.042900	91.81	0.210	-1.080	1.750	91.76	-2.40	2.20	 	 	 	 	 	 	 	 	 	 	 	 	 	 	 	 	 	 	1581520068	3.92	7.26
12/02/2020 15:07:49	120220	12022020	150749	91.58	12.418793	-57.042882	91.60	0.460	-1.130	1.840	91.56	-2.40	2.30	 	 	 	 	 	 	 	 	 	 	 	 	 	 	 	 	 	 	1581520069	3.84	7.11
12/02/2020 15:07:50	120220	12022020	150750	91.59	12.418795	-57.042865	91.66	0.430	-0.800	1.570	91.63	-2.10	2.00	 	 	 	 	 	 	 	 	 	 	 	 	 	 	 	 	 	 	1581520070	3.68	6.82
12/02/2020 15:07:51	120220	12022020	150751	91.85	12.418797	-57.042848	91.94	0.280	-0.290	1.020	91.92	-1.60	1.50	 	 	 	 	 	 	 	 	 	 	 	 	 	 	 	 	 	 	1581520071	3.50	6.48
12/02/2020 15:07:52	120220	12022020	150752	92.14	12.418798	-57.042832	92.19	0.180	0.080	0.590	92.17	-1.20	1.00	 	 	 	 	 	 	 	 	 	 	 	 	 	 	 	 	 	 	1581520072	3.54	6.56
12/02/2020 15:07:53	120220	12022020	150753	92.19	12.418800	-57.042815	92.19	0.090	0.300	0.660	92.17	-1.00	1.10	 	 	 	 	 	 	 	 	 	 	 	 	 	 	 	 	 	 	1581520073	3.72	6.89
12/02/2020 15:07:54	120220	12022020	150754	92.08	12.418798	-57.042797	92.09	-0.160	0.570	0.970	92.06	-0.80	1.40	 	 	 	 	 	 	 	 	 	 	 	 	 	 	 	 	 	 	1581520074	3.69	6.83
12/02/2020 15:07:55	120220	12022020	150755	91.96	12.418795	-57.042780	91.98	-0.530	0.720	1.280	91.93	-0.60	1.70	 	 	 	 	 	 	 	 	 	 	 	 	 	 	 	 	 	 	1581520075	3.42	6.33
12/02/2020 15:07:56	120220	12022020	150756	91.78	12.418793	-57.042765	91.79	-0.670	0.330	1.510	91.74	-0.90	1.90	 	 	 	 	 	 	 	 	 	 	 	 	 	 	 	 	 	 	1581520076	3.53	6.54
12/02/2020 15:07:57	120220	12022020	150757	91.58	12.418792	-57.042745	91.60	-0.280	-0.610	1.580	91.55	-1.80	2.00	 	 	 	 	 	 	 	 	 	 	 	 	 	 	 	 	 	 	1581520077	4.06	7.52
12/02/2020 15:07:58	120220	12022020	150758	91.56	12.418793	-57.042723	91.63	0.380	-1.400	1.390	91.60	-2.70	1.80	 	 	 	 	 	 	 	 	 	 	 	 	 	 	 	 	 	 	1581520078	4.60	8.52
12/02/2020 15:07:59	120220	12022020	150759	91.84	12.418797	-57.042703	91.92	0.700	-1.260	1.010	91.91	-2.60	1.50	 	 	 	 	 	 	 	 	 	 	 	 	 	 	 	 	 	 	1581520079	4.35	8.06
12/02/2020 15:08:00	120220	12022020	150800	92.14	12.418800	-57.042688	92.20	0.410	-0.340	0.610	92.18	-1.70	1.00	 	 	 	 	 	 	 	 	 	 	 	 	 	 	 	 	 	 	1581520080	3.41	6.32
12/02/2020 15:08:01	120220	12022020	150801	92.24	12.418803	-57.042675	92.26	-0.160	0.390	0.720	92.24	-1.00	1.10	 	 	 	 	 	 	 	 	 	 	 	 	 	 	 	 	 	 	1581520081	2.86	5.30
12/02/2020 15:08:02	120220	12022020	150802	92.17	12.418800	-57.042658	92.19	-0.440	0.280	1.420	92.14	-1.00	1.80	1017.20	26.60	26.70	20.40	20.50	557.0	68.0	68.0	438.0	28.6	349.00	13.30	80.00	11.50	46842	11096.0	27.6	27.5	1581520082	3.44	6.37
12/02/2020 15:08:03	120220	12022020	150803	92.04	12.418793	-57.042638	92.07	-0.210	-0.340	2.100	92.04	-1.60	2.50	 	 	 	 	 	 	 	 	 	 	 	 	 	 	 	 	 	 	1581520083	4.55	8.43
12/02/2020 15:08:04	120220	12022020	150804	91.98	12.418788	-57.042617	92.04	0.290	-0.690	2.130	91.98	-2.00	2.60	 	 	 	 	 	 	 	 	 	 	 	 	 	 	 	 	 	 	1581520084	4.76	8.82
12/02/2020 15:08:05	120220	12022020	150805	92.03	12.418790	-57.042597	92.08	0.570	-0.270	1.560	92.04	-1.60	2.00	 	 	 	 	 	 	 	 	 	 	 	 	 	 	 	 	 	 	1581520085	4.12	7.63
12/02/2020 15:08:06	120220	12022020	150806	92.06	12.418795	-57.042582	92.08	0.260	0.490	1.020	92.06	-0.90	1.50	 	 	 	 	 	 	 	 	 	 	 	 	 	 	 	 	 	 	1581520086	3.47	6.43
12/02/2020 15:08:07	120220	12022020	150807	92.06	12.418800	-57.042567	92.07	-0.430	0.760	0.810	92.06	-0.60	1.20	 	 	 	 	 	 	 	 	 	 	 	 	 	 	 	 	 	 	1581520087	3.15	5.83
12/02/2020 15:08:08	120220	12022020	150808	92.05	12.418800	-57.042550	92.06	-0.870	0.260	0.740	92.04	-1.00	1.20	 	 	 	 	 	 	 	 	 	 	 	 	 	 	 	 	 	 	1581520088	3.61	6.69
12/02/2020 15:08:09	120220	12022020	150809	92.02	12.418798	-57.042530	92.03	-0.680	-0.530	0.650	92.01	-1.80	1.10	 	 	 	 	 	 	 	 	 	 	 	 	 	 	 	 	 	 	1581520089	4.27	7.91
12/02/2020 15:08:10	120220	12022020	150810	91.96	12.418798	-57.042508	91.98	-0.070	-1.030	0.600	91.96	-2.30	1.00	 	 	 	 	 	 	 	 	 	 	 	 	 	 	 	 	 	 	1581520090	4.36	8.07
12/02/2020 15:08:11	120220	12022020	150811	92.01	12.418798	-57.042490	92.05	0.520	-1.090	0.580	92.04	-2.40	1.00	 	 	 	 	 	 	 	 	 	 	 	 	 	 	 	 	 	 	1581520091	4.05	7.50
12/02/2020 15:08:12	120220	12022020	150812	92.16	12.418798	-57.042472	92.19	0.820	-0.950	0.680	92.18	-2.30	1.10	 	 	 	 	 	 	 	 	 	 	 	 	 	 	 	 	 	 	1581520092	3.89	7.20
12/02/2020 15:08:13	120220	12022020	150813	92.19	12.418798	-57.042453	92.20	0.720	-0.620	1.030	92.17	-2.00	1.40	 	 	 	 	 	 	 	 	 	 	 	 	 	 	 	 	 	 	1581520093	3.96	7.33
12/02/2020 15:08:14	120220	12022020	150814	92.03	12.418798	-57.042435	92.04	0.250	0.040	1.470	91.99	-1.30	1.90	 	 	 	 	 	 	 	 	 	 	 	 	 	 	 	 	 	 	1581520094	3.84	7.11
12/02/2020 15:08:15	120220	12022020	150815	91.83	12.418795	-57.042418	91.84	-0.350	0.820	1.840	91.79	-0.50	2.20	 	 	 	 	 	 	 	 	 	 	 	 	 	 	 	 	 	 	1581520095	3.46	6.41
12/02/2020 15:08:16	120220	12022020	150816	91.69	12.418793	-57.042403	91.73	-0.720	1.220	2.000	91.68	-0.10	2.40	 	 	 	 	 	 	 	 	 	 	 	 	 	 	 	 	 	 	1581520096	3.31	6.13
12/02/2020 15:08:17	120220	12022020	150817	91.67	12.418792	-57.042387	91.74	-0.680	0.960	1.770	91.68	-0.30	2.20	 	 	 	 	 	 	 	 	 	 	 	 	 	 	 	 	 	 	1581520097	3.55	6.57
12/02/2020 15:08:18	120220	12022020	150818	91.70	12.418795	-57.042367	91.74	-0.320	0.030	1.180	91.70	-1.20	1.60	 	 	 	 	 	 	 	 	 	 	 	 	 	 	 	 	 	 	1581520098	4.11	7.61
12/02/2020 15:08:19	120220	12022020	150819	91.72	12.418800	-57.042345	91.74	0.140	-1.250	0.650	91.73	-2.50	1.10	 	 	 	 	 	 	 	 	 	 	 	 	 	 	 	 	 	 	1581520099	4.80	8.89
12/02/2020 15:08:20	120220	12022020	150820	91.79	12.418803	-57.042322	91.84	0.470	-2.170	0.530	91.81	-3.40	0.90	 	 	 	 	 	 	 	 	 	 	 	 	 	 	 	 	 	 	1581520100	5.05	9.35
12/02/2020 15:08:21	120220	12022020	150821	91.92	12.418802	-57.042300	92.00	0.580	-2.100	0.800	91.95	-3.40	1.20	 	 	 	 	 	 	 	 	 	 	 	 	 	 	 	 	 	 	1581520101	4.65	8.61
12/02/2020 15:08:22	120220	12022020	150822	92.04	12.418798	-57.042282	92.12	0.510	-0.860	1.060	92.06	-2.30	1.50	 	 	 	 	 	 	 	 	 	 	 	 	 	 	 	 	 	 	1581520102	3.86	7.15
12/02/2020 15:08:23	120220	12022020	150823	92.12	12.418797	-57.042268	92.17	0.220	0.960	1.070	92.12	-0.50	1.50	 	 	 	 	 	 	 	 	 	 	 	 	 	 	 	 	 	 	1581520103	2.84	5.26
12/02/2020 15:08:24	120220	12022020	150824	92.08	12.418798	-57.042257	92.11	-0.240	2.130	1.000	92.07	0.80	1.40	 	 	 	 	 	 	 	 	 	 	 	 	 	 	 	 	 	 	1581520104	2.54	4.70
12/02/2020 15:08:25	120220	12022020	150825	91.99	12.418800	-57.042240	92.02	-0.640	1.860	0.820	91.98	0.60	1.30	 	 	 	 	 	 	 	 	 	 	 	 	 	 	 	 	 	 	1581520105	3.33	6.17
12/02/2020 15:08:26	120220	12022020	150826	92.01	12.418803	-57.042220	92.05	-0.710	0.370	0.550	92.04	-0.90	1.00	 	 	 	 	 	 	 	 	 	 	 	 	 	 	 	 	 	 	1581520106	4.50	8.33
12/02/2020 15:08:27	120220	12022020	150827	92.25	12.418807	-57.042195	92.31	-0.380	-1.460	0.300	92.32	-2.70	0.70	 	 	 	 	 	 	 	 	 	 	 	 	 	 	 	 	 	 	1581520107	5.30	9.82
12/02/2020 15:08:28	120220	12022020	150828	92.48	12.418807	-57.042170	92.49	0.170	-2.460	0.400	92.48	-3.70	0.80	 	 	 	 	 	 	 	 	 	 	 	 	 	 	 	 	 	 	1581520108	5.28	9.78
12/02/2020 15:08:29	120220	12022020	150829	92.37	12.418805	-57.042148	92.34	0.610	-1.990	0.880	92.31	-3.40	1.30	 	 	 	 	 	 	 	 	 	 	 	 	 	 	 	 	 	 	1581520109	4.35	8.06
12/02/2020 15:08:30	120220	12022020	150830	92.01	12.418802	-57.042133	91.98	0.710	-0.560	1.520	91.93	-2.00	1.90	 	 	 	 	 	 	 	 	 	 	 	 	 	 	 	 	 	 	1581520110	3.21	5.94
12/02/2020 15:08:31	120220	12022020	150831	91.61	12.418798	-57.042120	91.62	0.480	0.680	2.090	91.56	-0.70	2.50	 	 	 	 	 	 	 	 	 	 	 	 	 	 	 	 	 	 	1581520111	2.87	5.32
12/02/2020 15:08:32	120220	12022020	150832	91.49	12.418798	-57.042105	91.57	0.080	1.050	2.080	91.53	-0.30	2.50	 	 	 	 	 	 	 	 	 	 	 	 	 	 	 	 	 	 	1581520112	3.46	6.41
12/02/2020 15:08:33	120220	12022020	150833	91.91	12.418802	-57.042085	92.04	-0.380	0.800	1.260	92.04	-0.50	1.70	 	 	 	 	 	 	 	 	 	 	 	 	 	 	 	 	 	 	1581520113	4.29	7.95
12/02/2020 15:08:34	120220	12022020	150834	92.58	12.418807	-57.042063	92.70	-0.720	0.390	0.390	92.70	-0.90	0.90	 	 	 	 	 	 	 	 	 	 	 	 	 	 	 	 	 	 	1581520114	4.48	8.30
12/02/2020 15:08:35	120220	12022020	150835	93.02	12.418808	-57.042045	93.05	-0.760	0.000	0.180	93.04	-1.30	0.60	 	 	 	 	 	 	 	 	 	 	 	 	 	 	 	 	 	 	1581520115	4.14	7.67
12/02/2020 15:08:36	120220	12022020	150836	92.91	12.418805	-57.042025	92.86	-0.400	-0.470	0.650	92.83	-1.80	1.00	 	 	 	 	 	 	 	 	 	 	 	 	 	 	 	 	 	 	1581520116	4.01	7.43
12/02/2020 15:08:37	120220	12022020	150837	92.41	12.418803	-57.042005	92.34	0.240	-1.120	1.250	92.30	-2.40	1.60	 	 	 	 	 	 	 	 	 	 	 	 	 	 	 	 	 	 	1581520117	4.28	7.93
12/02/2020 15:08:38	120220	12022020	150838	91.87	12.418802	-57.041983	91.84	0.770	-1.550	1.660	91.80	-2.80	2.10	 	 	 	 	 	 	 	 	 	 	 	 	 	 	 	 	 	 	1581520118	4.65	8.61
12/02/2020 15:08:39	120220	12022020	150839	91.68	12.418803	-57.041962	91.74	0.850	-1.220	1.800	91.70	-2.60	2.20	 	 	 	 	 	 	 	 	 	 	 	 	 	 	 	 	 	 	1581520119	4.54	8.41
12/02/2020 15:08:40	120220	12022020	150840	92.04	12.418805	-57.041945	92.18	0.420	-0.020	1.540	92.17	-1.40	2.00	 	 	 	 	 	 	 	 	 	 	 	 	 	 	 	 	 	 	1581520120	3.72	6.89
12/02/2020 15:08:41	120220	12022020	150841	92.71	12.418808	-57.041932	92.86	-0.230	1.300	1.020	92.71	-0.10	1.50	 	 	 	 	 	 	 	 	 	 	 	 	 	 	 	 	 	 	1581520121	2.89	5.35
12/02/2020 15:08:42	120220	12022020	150842	93.22	12.418812	-57.041917	93.29	-0.640	1.470	0.610	93.27	0.20	1.00	 	 	 	 	 	 	 	 	 	 	 	 	 	 	 	 	 	 	1581520122	3.06	5.67
12/02/2020 15:08:43	120220	12022020	150843	93.32	12.418812	-57.041897	93.33	-0.550	0.270	0.660	93.30	-1.00	1.10	 	 	 	 	 	 	 	 	 	 	 	 	 	 	 	 	 	 	1581520123	4.34	8.04
12/02/2020 15:08:44	120220	12022020	150844	93.15	12.418807	-57.041872	93.16	-0.130	-1.190	1.110	93.12	-2.40	1.50	 	 	 	 	 	 	 	 	 	 	 	 	 	 	 	 	 	 	1581520124	5.43	10.06
12/02/2020 15:08:45	120220	12022020	150845	92.99	12.418803	-57.041847	93.00	0.280	-1.680	1.570	92.96	-3.00	2.00	 	 	 	 	 	 	 	 	 	 	 	 	 	 	 	 	 	 	1581520125	5.24	9.70
12/02/2020 15:08:46	120220	12022020	150846	92.87	12.418802	-57.041827	92.90	0.370	-0.960	1.760	92.87	-2.30	2.20	 	 	 	 	 	 	 	 	 	 	 	 	 	 	 	 	 	 	1581520126	4.10	7.59
12/02/2020 15:08:47	120220	12022020	150847	92.89	12.418802	-57.041813	92.94	0.130	0.230	1.510	92.92	-1.10	2.00	 	 	 	 	 	 	 	 	 	 	 	 	 	 	 	 	 	 	1581520127	3.10	5.74
12/02/2020 15:08:48	120220	12022020	150848	93.07	12.418805	-57.041798	93.12	-0.100	0.900	0.830	93.12	-0.40	1.30	 	 	 	 	 	 	 	 	 	 	 	 	 	 	 	 	 	 	1581520128	3.07	5.69
12/02/2020 15:08:49	120220	12022020	150849	93.32	12.418810	-57.041780	93.36	-0.080	0.610	0.090	93.37	-0.70	0.60	 	 	 	 	 	 	 	 	 	 	 	 	 	 	 	 	 	 	1581520129	3.97	7.35
12/02/2020 15:08:50	120220	12022020	150850	93.54	12.418815	-57.041758	93.54	0.010	-0.140	-0.280	93.55	-1.40	0.20	 	 	 	 	 	 	 	 	 	 	 	 	 	 	 	 	 	 	1581520130	4.67	8.65
12/02/2020 15:08:51	120220	12022020	150851	93.54	12.418817	-57.041737	93.51	0.010	-0.840	-0.150	93.52	-2.10	0.30	 	 	 	 	 	 	 	 	 	 	 	 	 	 	 	 	 	 	1581520131	4.75	8.80
12/02/2020 15:08:52	120220	12022020	150852	93.33	12.418813	-57.041715	93.28	-0.000	-1.180	0.400	93.28	-2.50	0.80	 	 	 	 	 	 	 	 	 	 	 	 	 	 	 	 	 	 	1581520132	4.64	8.59
12/02/2020 15:08:53	120220	12022020	150853	93.03	12.418807	-57.041693	92.99	0.080	-1.000	1.100	92.96	-2.30	1.50	 	 	 	 	 	 	 	 	 	 	 	 	 	 	 	 	 	 	1581520133	4.50	8.33
12/02/2020 15:08:54	120220	12022020	150854	92.75	12.418803	-57.041675	92.74	0.220	-0.310	1.530	92.73	-1.70	1.90	 	 	 	 	 	 	 	 	 	 	 	 	 	 	 	 	 	 	1581520134	4.06	7.52
12/02/2020 15:08:55	120220	12022020	150855	92.73	12.418802	-57.041658	92.78	0.190	0.570	1.440	92.76	-0.80	1.90	 	 	 	 	 	 	 	 	 	 	 	 	 	 	 	 	 	 	1581520135	3.50	6.48
12/02/2020 15:08:56	120220	12022020	150856	93.03	12.418805	-57.041643	93.09	-0.050	1.070	0.930	93.10	-0.30	1.40	 	 	 	 	 	 	 	 	 	 	 	 	 	 	 	 	 	 	1581520136	3.38	6.26
12/02/2020 15:08:57	120220	12022020	150857	93.36	12.418808	-57.041625	93.41	-0.220	0.650	0.360	93.41	-0.60	0.80	 	 	 	 	 	 	 	 	 	 	 	 	 	 	 	 	 	 	1581520137	3.86	7.15
12/02/2020 15:08:58	120220	12022020	150858	93.52	12.418810	-57.041603	93.52	-0.080	-0.580	0.140	93.52	-1.80	0.60	 	 	 	 	 	 	 	 	 	 	 	 	 	 	 	 	 	 	1581520138	4.73	8.76
12/02/2020 15:08:59	120220	12022020	150859	93.36	12.418808	-57.041578	93.33	0.210	-1.640	0.640	93.29	-2.90	1.00	 	 	 	 	 	 	 	 	 	 	 	 	 	 	 	 	 	 	1581520139	5.39	9.98
12/02/2020 15:09:00	120220	12022020	150900	93.02	12.418803	-57.041555	92.99	0.260	-1.400	1.410	92.96	-2.80	1.80	 	 	 	 	 	 	 	 	 	 	 	 	 	 	 	 	 	 	1581520140	4.93	9.13
12/02/2020 15:09:01	120220	12022020	150901	92.81	12.418800	-57.041538	92.82	-0.070	-0.030	1.780	92.80	-1.40	2.20	 	 	 	 	 	 	 	 	 	 	 	 	 	 	 	 	 	 	1581520141	3.42	6.33
12/02/2020 15:09:02	120220	12022020	150902	92.81	12.418800	-57.041527	92.84	-0.410	1.000	1.660	92.82	-0.30	2.10	1017.10	26.60	26.70	20.30	20.40	489.0	68.0	68.0	439.0	28.5	349.00	13.70	79.00	11.70	42636	11520.0	27.5	27.5	1581520142	2.58	4.78
12/02/2020 15:09:03	120220	12022020	150903	92.83	12.418800	-57.041510	92.83	-0.310	0.570	1.370	92.82	-0.70	1.80	 	 	 	 	 	 	 	 	 	 	 	 	 	 	 	 	 	 	1581520143	3.51	6.50
12/02/2020 15:09:04	120220	12022020	150904	92.85	12.418802	-57.041487	92.87	0.210	-0.730	1.010	92.87	-2.00	1.50	 	 	 	 	 	 	 	 	 	 	 	 	 	 	 	 	 	 	1581520144	5.17	9.57
12/02/2020 15:09:05	120220	12022020	150905	93.11	12.418803	-57.041460	93.17	0.560	-1.180	0.640	93.20	-2.50	1.10	 	 	 	 	 	 	 	 	 	 	 	 	 	 	 	 	 	 	1581520145	5.52	10.22
12/02/2020 15:09:06	120220	12022020	150906	93.54	12.418805	-57.041440	93.58	0.290	-0.210	0.430	93.62	-1.60	0.90	 	 	 	 	 	 	 	 	 	 	 	 	 	 	 	 	 	 	1581520146	4.04	7.48
12/02/2020 15:09:07	120220	12022020	150907	93.75	12.418805	-57.041428	93.74	-0.390	1.080	0.490	93.75	-0.30	0.90	 	 	 	 	 	 	 	 	 	 	 	 	 	 	 	 	 	 	1581520147	2.60	4.82
12/02/2020 15:09:08	120220	12022020	150908	93.60	12.418803	-57.041417	93.57	-0.850	1.390	0.740	93.55	0.10	1.20	 	 	 	 	 	 	 	 	 	 	 	 	 	 	 	 	 	 	1581520148	2.61	4.83
12/02/2020 15:09:09	120220	12022020	150909	93.32	12.418802	-57.041398	93.28	-0.540	0.190	1.050	93.26	-1.00	1.50	 	 	 	 	 	 	 	 	 	 	 	 	 	 	 	 	 	 	1581520149	3.84	7.11
12/02/2020 15:09:10	120220	12022020	150910	93.05	12.418800	-57.041372	93.02	0.390	-1.800	1.290	93.01	-3.00	1.70	 	 	 	 	 	 	 	 	 	 	 	 	 	 	 	 	 	 	1581520150	5.40	10.00
12/02/2020 15:09:11	120220	12022020	150911	92.86	12.418802	-57.041345	92.85	1.210	-2.970	1.320	92.84	-4.20	1.80	 	 	 	 	 	 	 	 	 	 	 	 	 	 	 	 	 	 	1581520151	5.97	11.06
12/02/2020 15:09:12	120220	12022020	150912	92.81	12.418802	-57.041322	92.84	1.180	-2.120	1.320	92.82	-3.50	1.70	 	 	 	 	 	 	 	 	 	 	 	 	 	 	 	 	 	 	1581520152	4.93	9.13
12/02/2020 15:09:13	120220	12022020	150913	92.93	12.418802	-57.041307	93.00	0.240	0.260	1.600	92.98	-1.20	2.00	 	 	 	 	 	 	 	 	 	 	 	 	 	 	 	 	 	 	1581520153	2.97	5.50
12/02/2020 15:09:14	120220	12022020	150914	93.27	12.418798	-57.041298	93.38	-1.060	2.640	1.820	93.37	1.20	2.20	 	 	 	 	 	 	 	 	 	 	 	 	 	 	 	 	 	 	1581520154	1.87	3.46
12/02/2020 15:09:15	120220	12022020	150915	93.80	12.418795	-57.041290	93.93	-2.010	3.590	1.570	93.92	2.30	2.00	 	 	 	 	 	 	 	 	 	 	 	 	 	 	 	 	 	 	1581520155	1.92	3.56
12/02/2020 15:09:16	120220	12022020	150916	94.30	12.418793	-57.041275	94.39	-1.960	2.290	1.070	94.36	1.10	1.50	 	 	 	 	 	 	 	 	 	 	 	 	 	 	 	 	 	 	1581520156	3.14	5.82
12/02/2020 15:09:17	120220	12022020	150917	94.35	12.418792	-57.041252	94.34	-0.700	-0.890	0.850	94.28	-2.00	1.30	 	 	 	 	 	 	 	 	 	 	 	 	 	 	 	 	 	 	1581520157	5.15	9.54
12/02/2020 15:09:18	120220	12022020	150918	93.81	12.418788	-57.041220	93.73	1.180	-3.940	0.940	93.67	-5.10	1.40	 	 	 	 	 	 	 	 	 	 	 	 	 	 	 	 	 	 	1581520158	6.62	12.26
12/02/2020 15:09:19	120220	12022020	150919	93.23	12.418788	-57.041192	93.22	2.480	-4.420	0.860	93.23	-5.80	1.30	 	 	 	 	 	 	 	 	 	 	 	 	 	 	 	 	 	 	1581520159	6.07	11.24
12/02/2020 15:09:20	120220	12022020	150920	93.16	12.418795	-57.041175	93.24	2.250	-1.840	0.550	93.21	-3.30	1.00	 	 	 	 	 	 	 	 	 	 	 	 	 	 	 	 	 	 	1581520160	3.62	6.70
12/02/2020 15:09:21	120220	12022020	150921	93.57	12.418800	-57.041170	93.67	0.660	1.610	0.270	93.67	0.10	0.70	 	 	 	 	 	 	 	 	 	 	 	 	 	 	 	 	 	 	1581520161	1.67	3.09
12/02/2020 15:09:22	120220	12022020	150922	94.05	12.418802	-57.041167	94.12	-1.170	3.470	0.370	94.11	2.10	0.80	 	 	 	 	 	 	 	 	 	 	 	 	 	 	 	 	 	 	1581520162	0.98	1.81
12/02/2020 15:09:23	120220	12022020	150923	94.19	12.418797	-57.041153	94.21	-2.130	2.940	1.090	94.16	1.70	1.50	 	 	 	 	 	 	 	 	 	 	 	 	 	 	 	 	 	 	1581520163	3.00	5.56
12/02/2020 15:09:24	120220	12022020	150924	93.96	12.418785	-57.041132	93.99	-1.860	0.930	1.990	93.90	-0.30	2.40	 	 	 	 	 	 	 	 	 	 	 	 	 	 	 	 	 	 	1581520164	5.16	9.56
12/02/2020 15:09:25	120220	12022020	150925	93.71	12.418773	-57.041107	93.77	-0.760	-1.250	2.550	93.67	-2.40	3.00	 	 	 	 	 	 	 	 	 	 	 	 	 	 	 	 	 	 	1581520165	5.66	10.48
12/02/2020 15:09:26	120220	12022020	150926	93.55	12.418768	-57.041083	93.60	0.460	-2.660	2.690	93.51	-3.90	3.10	 	 	 	 	 	 	 	 	 	 	 	 	 	 	 	 	 	 	1581520166	5.13	9.50
12/02/2020 15:09:27	120220	12022020	150927	93.28	12.418767	-57.041063	93.29	1.240	-2.750	2.420	93.20	-4.10	2.90	 	 	 	 	 	 	 	 	 	 	 	 	 	 	 	 	 	 	1581520167	4.31	7.98
12/02/2020 15:09:28	120220	12022020	150928	92.91	12.418770	-57.041048	92.90	1.330	-1.450	1.740	92.84	-2.80	2.20	 	 	 	 	 	 	 	 	 	 	 	 	 	 	 	 	 	 	1581520168	3.46	6.41
12/02/2020 15:09:29	120220	12022020	150929	92.68	12.418775	-57.041037	92.69	0.830	0.520	0.850	92.66	-0.90	1.30	 	 	 	 	 	 	 	 	 	 	 	 	 	 	 	 	 	 	1581520169	2.65	4.91
12/02/2020 15:09:30	120220	12022020	150930	92.65	12.418780	-57.041025	92.65	0.130	1.720	0.100	92.65	0.40	0.60	 	 	 	 	 	 	 	 	 	 	 	 	 	 	 	 	 	 	1581520170	2.50	4.63
12/02/2020 15:09:31	120220	12022020	150931	92.65	12.418783	-57.041010	92.64	-0.340	1.450	-0.330	92.65	0.20	0.10	 	 	 	 	 	 	 	 	 	 	 	 	 	 	 	 	 	 	1581520171	3.37	6.24
12/02/2020 15:09:32	120220	12022020	150932	92.64	12.418785	-57.040990	92.63	-0.480	0.470	-0.440	92.64	-0.80	-0.00	 	 	 	 	 	 	 	 	 	 	 	 	 	 	 	 	 	 	1581520172	4.40	8.15
12/02/2020 15:09:33	120220	12022020	150933	92.57	12.418783	-57.040968	92.56	-0.430	-0.330	-0.050	92.57	-1.60	0.30	 	 	 	 	 	 	 	 	 	 	 	 	 	 	 	 	 	 	1581520173	4.43	8.20
12/02/2020 15:09:34	120220	12022020	150934	92.36	12.418778	-57.040950	92.37	-0.300	-0.770	0.950	92.30	-2.10	1.30	 	 	 	 	 	 	 	 	 	 	 	 	 	 	 	 	 	 	1581520174	4.08	7.56
12/02/2020 15:09:35	120220	12022020	150935	92.01	12.418770	-57.040933	92.02	-0.070	-0.980	2.170	91.93	-2.30	2.50	 	 	 	 	 	 	 	 	 	 	 	 	 	 	 	 	 	 	1581520175	4.10	7.59
12/02/2020 15:09:36	120220	12022020	150936	91.63	12.418762	-57.040915	91.65	0.300	-1.020	2.960	91.56	-2.30	3.30	 	 	 	 	 	 	 	 	 	 	 	 	 	 	 	 	 	 	1581520176	4.00	7.41
12/02/2020 15:09:37	120220	12022020	150937	91.32	12.418758	-57.040898	91.37	0.730	-0.940	3.150	91.29	-2.30	3.60	 	 	 	 	 	 	 	 	 	 	 	 	 	 	 	 	 	 	1581520177	3.82	7.07
12/02/2020 15:09:38	120220	12022020	150938	91.27	12.418760	-57.040880	91.35	0.920	-0.640	2.790	91.30	-2.00	3.20	 	 	 	 	 	 	 	 	 	 	 	 	 	 	 	 	 	 	1581520178	3.96	7.33
12/02/2020 15:09:39	120220	12022020	150939	91.51	12.418765	-57.040862	91.59	0.530	0.160	2.040	91.58	-1.20	2.50	 	 	 	 	 	 	 	 	 	 	 	 	 	 	 	 	 	 	1581520179	3.77	6.98
12/02/2020 15:09:40	120220	12022020	150940	91.82	12.418768	-57.040848	91.90	-0.220	1.010	1.350	91.87	-0.30	1.80	 	 	 	 	 	 	 	 	 	 	 	 	 	 	 	 	 	 	1581520180	3.09	5.72
12/02/2020 15:09:41	120220	12022020	150941	91.96	12.418770	-57.040833	91.98	-0.690	1.030	0.990	91.95	-0.30	1.40	 	 	 	 	 	 	 	 	 	 	 	 	 	 	 	 	 	 	1581520181	3.01	5.57
12/02/2020 15:09:42	120220	12022020	150942	91.85	12.418770	-57.040815	91.85	-0.460	0.030	0.850	91.81	-1.20	1.30	 	 	 	 	 	 	 	 	 	 	 	 	 	 	 	 	 	 	1581520182	4.02	7.45
12/02/2020 15:09:43	120220	12022020	150943	91.64	12.418770	-57.040792	91.65	0.080	-0.890	0.790	91.64	-2.20	1.20	 	 	 	 	 	 	 	 	 	 	 	 	 	 	 	 	 	 	1581520183	4.81	8.91
12/02/2020 15:09:44	120220	12022020	150944	91.52	12.418768	-57.040772	91.54	0.300	-0.880	0.750	91.51	-2.20	1.20	 	 	 	 	 	 	 	 	 	 	 	 	 	 	 	 	 	 	1581520184	4.26	7.89
12/02/2020 15:09:45	120220	12022020	150945	91.48	12.418768	-57.040757	91.52	0.090	-0.350	0.800	91.48	-1.70	1.20	 	 	 	 	 	 	 	 	 	 	 	 	 	 	 	 	 	 	1581520185	3.23	5.98
12/02/2020 15:09:46	120220	12022020	150946	91.43	12.418768	-57.040742	91.46	-0.070	-0.240	0.960	91.41	-1.50	1.40	 	 	 	 	 	 	 	 	 	 	 	 	 	 	 	 	 	 	1581520186	3.12	5.78
12/02/2020 15:09:47	120220	12022020	150947	91.39	12.418768	-57.040723	91.44	0.160	-0.650	0.910	91.40	-1.90	1.40	 	 	 	 	 	 	 	 	 	 	 	 	 	 	 	 	 	 	1581520187	4.01	7.43
12/02/2020 15:09:48	120220	12022020	150948	91.47	12.418768	-57.040702	91.52	0.440	-0.670	0.800	91.48	-2.00	1.20	 	 	 	 	 	 	 	 	 	 	 	 	 	 	 	 	 	 	1581520188	4.46	8.26
12/02/2020 15:09:49	120220	12022020	150949	91.53	12.418768	-57.040685	91.58	0.260	0.090	0.980	91.54	-1.30	1.40	 	 	 	 	 	 	 	 	 	 	 	 	 	 	 	 	 	 	1581520189	3.75	6.95
12/02/2020 15:09:50	120220	12022020	150950	91.59	12.418767	-57.040672	91.64	-0.340	0.990	1.260	91.60	-0.40	1.70	 	 	 	 	 	 	 	 	 	 	 	 	 	 	 	 	 	 	1581520190	2.85	5.28
12/02/2020 15:09:51	120220	12022020	150951	91.64	12.418765	-57.040658	91.69	-0.790	1.060	1.380	91.64	-0.30	1.80	 	 	 	 	 	 	 	 	 	 	 	 	 	 	 	 	 	 	1581520191	2.89	5.35
12/02/2020 15:09:52	120220	12022020	150952	91.51	12.418762	-57.040640	91.52	-0.550	-0.060	1.570	91.44	-1.30	2.00	 	 	 	 	 	 	 	 	 	 	 	 	 	 	 	 	 	 	1581520192	3.90	7.22
12/02/2020 15:09:53	120220	12022020	150953	91.12	12.418760	-57.040615	91.13	0.280	-1.550	1.840	91.04	-2.80	2.20	 	 	 	 	 	 	 	 	 	 	 	 	 	 	 	 	 	 	1581520193	5.04	9.33
12/02/2020 15:09:54	120220	12022020	150954	90.82	12.418758	-57.040592	90.86	0.990	-2.090	1.800	90.80	-3.40	2.20	 	 	 	 	 	 	 	 	 	 	 	 	 	 	 	 	 	 	1581520194	5.18	9.59
12/02/2020 15:09:55	120220	12022020	150955	90.81	12.418762	-57.040573	90.86	0.960	-1.040	1.420	90.83	-2.50	1.90	 	 	 	 	 	 	 	 	 	 	 	 	 	 	 	 	 	 	1581520195	3.96	7.33
12/02/2020 15:09:56	120220	12022020	150956	90.95	12.418765	-57.040562	91.01	0.230	0.740	1.020	90.98	-0.70	1.50	 	 	 	 	 	 	 	 	 	 	 	 	 	 	 	 	 	 	1581520196	2.58	4.78
12/02/2020 15:09:57	120220	12022020	150957	91.07	12.418767	-57.040550	91.10	-0.640	1.800	0.900	91.07	0.40	1.30	 	 	 	 	 	 	 	 	 	 	 	 	 	 	 	 	 	 	1581520197	2.21	4.09
12/02/2020 15:09:58	120220	12022020	150958	91.12	12.418767	-57.040537	91.13	-1.130	1.500	0.910	91.11	0.20	1.30	 	 	 	 	 	 	 	 	 	 	 	 	 	 	 	 	 	 	1581520198	3.07	5.69
12/02/2020 15:09:59	120220	12022020	150959	91.02	12.418765	-57.040517	91.02	-0.930	0.060	1.000	90.98	-1.20	1.40	 	 	 	 	 	 	 	 	 	 	 	 	 	 	 	 	 	 	1581520199	4.28	7.93
12/02/2020 15:10:00	120220	12022020	151000	90.80	12.418763	-57.040492	90.80	-0.190	-1.660	1.200	90.75	-2.90	1.60	 	 	 	 	 	 	 	 	 	 	 	 	 	 	 	 	 	 	1581520200	5.17	9.57
12/02/2020 15:10:01	120220	12022020	151001	90.62	12.418760	-57.040467	90.65	0.590	-2.420	1.400	90.59	-3.80	1.80	 	 	 	 	 	 	 	 	 	 	 	 	 	 	 	 	 	 	1581520201	5.22	9.67
12/02/2020 15:10:02	120220	12022020	151002	90.58	12.418760	-57.040448	90.62	0.810	-1.550	1.430	90.58	-3.00	1.90	1017.10	26.60	26.70	20.10	20.10	437.0	67.0	67.0	439.0	28.4	348.00	14.00	78.00	12.10	39260	10518.0	27.5	27.5	1581520202	4.08	7.56
12/02/2020 15:10:03	120220	12022020	151003	90.62	12.418760	-57.040435	90.64	0.420	0.180	1.230	90.61	-1.30	1.70	 	 	 	 	 	 	 	 	 	 	 	 	 	 	 	 	 	 	1581520203	2.61	4.83
12/02/2020 15:10:04	120220	12022020	151004	90.54	12.418763	-57.040425	90.53	-0.150	1.320	0.990	90.51	-0.10	1.40	 	 	 	 	 	 	 	 	 	 	 	 	 	 	 	 	 	 	1581520204	2.38	4.41
12/02/2020 15:10:05	120220	12022020	151005	90.35	12.418765	-57.040410	90.36	-0.440	1.280	0.830	90.33	-0.10	1.30	 	 	 	 	 	 	 	 	 	 	 	 	 	 	 	 	 	 	1581520205	3.27	6.06
12/02/2020 15:10:06	120220	12022020	151006	90.41	12.418765	-57.040390	90.47	-0.370	0.570	0.540	90.46	-0.70	1.00	 	 	 	 	 	 	 	 	 	 	 	 	 	 	 	 	 	 	1581520206	4.22	7.82
12/02/2020 15:10:07	120220	12022020	151007	90.72	12.418767	-57.040368	90.78	-0.130	-0.220	0.320	90.72	-1.50	0.80	 	 	 	 	 	 	 	 	 	 	 	 	 	 	 	 	 	 	1581520207	4.42	8.19
12/02/2020 15:10:08	120220	12022020	151008	90.84	12.418768	-57.040348	90.84	0.100	-0.920	0.360	90.80	-2.20	0.80	 	 	 	 	 	 	 	 	 	 	 	 	 	 	 	 	 	 	1581520208	4.26	7.89
12/02/2020 15:10:09	120220	12022020	151009	90.56	12.418770	-57.040328	90.53	0.220	-1.280	0.650	90.56	-2.60	1.10	 	 	 	 	 	 	 	 	 	 	 	 	 	 	 	 	 	 	1581520209	4.22	7.82
12/02/2020 15:10:10	120220	12022020	151010	90.28	12.418770	-57.040310	90.31	0.160	-1.030	1.140	90.26	-2.40	1.50	 	 	 	 	 	 	 	 	 	 	 	 	 	 	 	 	 	 	1581520210	3.89	7.20
12/02/2020 15:10:11	120220	12022020	151011	90.34	12.418768	-57.040293	90.43	-0.000	-0.370	1.730	90.39	-1.80	2.10	 	 	 	 	 	 	 	 	 	 	 	 	 	 	 	 	 	 	1581520211	3.46	6.41
12/02/2020 15:10:12	120220	12022020	151012	90.60	12.418765	-57.040278	90.71	-0.200	0.340	2.090	90.65	-1.00	2.50	 	 	 	 	 	 	 	 	 	 	 	 	 	 	 	 	 	 	1581520212	3.25	6.02
12/02/2020 15:10:13	120220	12022020	151013	90.81	12.418763	-57.040263	90.88	-0.340	0.640	1.960	90.82	-0.70	2.40	 	 	 	 	 	 	 	 	 	 	 	 	 	 	 	 	 	 	1581520213	3.31	6.13
12/02/2020 15:10:14	120220	12022020	151014	90.78	12.418763	-57.040245	90.82	-0.310	0.280	1.710	90.74	-1.00	2.10	 	 	 	 	 	 	 	 	 	 	 	 	 	 	 	 	 	 	1581520214	3.75	6.95
12/02/2020 15:10:15	120220	12022020	151015	90.53	12.418763	-57.040225	90.55	0.010	-0.610	1.810	90.47	-1.90	2.20	 	 	 	 	 	 	 	 	 	 	 	 	 	 	 	 	 	 	1581520215	4.48	8.30
12/02/2020 15:10:16	120220	12022020	151016	90.29	12.418762	-57.040202	90.33	0.430	-1.170	1.810	90.25	-2.50	2.20	 	 	 	 	 	 	 	 	 	 	 	 	 	 	 	 	 	 	1581520216	4.92	9.11
12/02/2020 15:10:17	120220	12022020	151017	90.23	12.418765	-57.040180	90.29	0.500	-0.700	1.190	90.25	-2.10	1.70	 	 	 	 	 	 	 	 	 	 	 	 	 	 	 	 	 	 	1581520217	4.36	8.07
12/02/2020 15:10:18	120220	12022020	151018	90.48	12.418772	-57.040165	90.57	0.080	0.430	0.280	90.56	-1.00	0.70	 	 	 	 	 	 	 	 	 	 	 	 	 	 	 	 	 	 	1581520218	3.46	6.41
12/02/2020 15:10:19	120220	12022020	151019	90.90	12.418777	-57.040153	90.98	-0.440	1.130	-0.120	90.98	-0.30	0.30	 	 	 	 	 	 	 	 	 	 	 	 	 	 	 	 	 	 	1581520219	2.85	5.28
12/02/2020 15:10:20	120220	12022020	151020	91.26	12.418778	-57.040138	91.34	-0.520	0.770	-0.040	91.31	-0.60	0.40	 	 	 	 	 	 	 	 	 	 	 	 	 	 	 	 	 	 	1581520220	3.23	5.98
12/02/2020 15:10:21	120220	12022020	151021	91.30	12.418778	-57.040118	91.31	-0.080	-0.460	0.430	91.30	-1.70	0.80	 	 	 	 	 	 	 	 	 	 	 	 	 	 	 	 	 	 	1581520221	4.31	7.98
12/02/2020 15:10:22	120220	12022020	151022	90.90	12.418775	-57.040093	90.89	0.410	-1.630	1.330	90.80	-2.90	1.70	 	 	 	 	 	 	 	 	 	 	 	 	 	 	 	 	 	 	1581520222	5.07	9.39
12/02/2020 15:10:23	120220	12022020	151023	90.53	12.418772	-57.040072	90.60	0.480	-1.790	2.330	90.50	-3.20	2.70	 	 	 	 	 	 	 	 	 	 	 	 	 	 	 	 	 	 	1581520223	4.90	9.07
12/02/2020 15:10:24	120220	12022020	151024	90.52	12.418767	-57.040053	90.63	0.070	-0.750	2.980	90.55	-2.20	3.40	 	 	 	 	 	 	 	 	 	 	 	 	 	 	 	 	 	 	1581520224	3.85	7.13
12/02/2020 15:10:25	120220	12022020	151025	90.73	12.418763	-57.040042	90.84	-0.430	0.640	2.920	90.78	-0.80	3.40	 	 	 	 	 	 	 	 	 	 	 	 	 	 	 	 	 	 	1581520225	2.76	5.11
12/02/2020 15:10:26	120220	12022020	151026	90.96	12.418765	-57.040028	91.04	-0.620	1.170	2.280	90.99	-0.20	2.70	 	 	 	 	 	 	 	 	 	 	 	 	 	 	 	 	 	 	1581520226	2.78	5.15
12/02/2020 15:10:27	120220	12022020	151027	91.12	12.418768	-57.040008	91.18	-0.370	0.550	1.420	91.15	-0.80	1.90	 	 	 	 	 	 	 	 	 	 	 	 	 	 	 	 	 	 	1581520227	4.00	7.41
12/02/2020 15:10:28	120220	12022020	151028	91.25	12.418772	-57.039987	91.30	0.060	-0.420	0.610	91.28	-1.70	1.10	 	 	 	 	 	 	 	 	 	 	 	 	 	 	 	 	 	 	1581520228	4.94	9.15
12/02/2020 15:10:29	120220	12022020	151029	91.36	12.418777	-57.039963	91.38	0.310	-0.850	-0.070	91.37	-2.20	0.40	 	 	 	 	 	 	 	 	 	 	 	 	 	 	 	 	 	 	1581520229	4.86	9.00
12/02/2020 15:10:30	120220	12022020	151030	91.42	12.418780	-57.039945	91.44	0.270	-0.540	-0.530	91.42	-1.90	-0.10	 	 	 	 	 	 	 	 	 	 	 	 	 	 	 	 	 	 	1581520230	4.09	7.57
12/02/2020 15:10:31	120220	12022020	151031	91.37	12.418783	-57.039928	91.38	0.070	-0.000	-0.510	91.35	-1.40	-0.10	 	 	 	 	 	 	 	 	 	 	 	 	 	 	 	 	 	 	1581520231	3.40	6.30
12/02/2020 15:10:32	120220	12022020	151032	91.30	12.418783	-57.039913	91.36	-0.130	0.270	-0.040	91.31	-1.10	0.40	 	 	 	 	 	 	 	 	 	 	 	 	 	 	 	 	 	 	1581520232	3.32	6.15
12/02/2020 15:10:33	120220	12022020	151033	91.47	12.418782	-57.039897	91.57	-0.230	0.090	0.410	91.52	-1.20	0.80	 	 	 	 	 	 	 	 	 	 	 	 	 	 	 	 	 	 	1581520233	3.69	6.83
12/02/2020 15:10:34	120220	12022020	151034	91.67	12.418778	-57.039877	91.75	-0.100	-0.500	0.840	91.67	-1.80	1.20	 	 	 	 	 	 	 	 	 	 	 	 	 	 	 	 	 	 	1581520234	4.22	7.82
12/02/2020 15:10:35	120220	12022020	151035	91.56	12.418777	-57.039855	91.60	0.240	-1.050	1.500	91.51	-2.40	1.90	 	 	 	 	 	 	 	 	 	 	 	 	 	 	 	 	 	 	1581520235	4.62	8.56
12/02/2020 15:10:36	120220	12022020	151036	91.29	12.418773	-57.039833	91.35	0.510	-1.100	2.280	91.25	-2.50	2.70	 	 	 	 	 	 	 	 	 	 	 	 	 	 	 	 	 	 	1581520236	4.55	8.43
12/02/2020 15:10:37	120220	12022020	151037	91.20	12.418772	-57.039815	91.31	0.420	-0.540	2.840	91.21	-1.90	3.20	 	 	 	 	 	 	 	 	 	 	 	 	 	 	 	 	 	 	1581520237	4.06	7.52
12/02/2020 15:10:38	120220	12022020	151038	91.34	12.418770	-57.039798	91.48	-0.040	0.280	2.840	91.38	-1.10	3.30	 	 	 	 	 	 	 	 	 	 	 	 	 	 	 	 	 	 	1581520238	3.54	6.56
12/02/2020 15:10:39	120220	12022020	151039	91.54	12.418770	-57.039782	91.67	-0.600	0.880	2.360	91.58	-0.50	2.80	 	 	 	 	 	 	 	 	 	 	 	 	 	 	 	 	 	 	1581520239	3.41	6.32
12/02/2020 15:10:40	120220	12022020	151040	91.72	12.418770	-57.039765	91.83	-0.910	1.050	1.720	91.75	-0.30	2.20	 	 	 	 	 	 	 	 	 	 	 	 	 	 	 	 	 	 	1581520240	3.60	6.67
12/02/2020 15:10:41	120220	12022020	151041	91.85	12.418772	-57.039747	91.93	-0.810	0.750	1.020	91.86	-0.60	1.50	 	 	 	 	 	 	 	 	 	 	 	 	 	 	 	 	 	 	1581520241	3.79	7.02
12/02/2020 15:10:42	120220	12022020	151042	91.87	12.418775	-57.039727	91.91	-0.290	-0.120	0.250	91.86	-1.40	0.70	 	 	 	 	 	 	 	 	 	 	 	 	 	 	 	 	 	 	1581520242	4.20	7.78
12/02/2020 15:10:43	120220	12022020	151043	91.87	12.418782	-57.039705	91.92	0.420	-1.250	-0.490	91.87	-2.50	-0.00	 	 	 	 	 	 	 	 	 	 	 	 	 	 	 	 	 	 	1581520243	4.84	8.96
12/02/2020 15:10:44	120220	12022020	151044	91.97	12.418787	-57.039682	92.04	0.920	-1.970	-0.980	91.99	-3.30	-0.50	 	 	 	 	 	 	 	 	 	 	 	 	 	 	 	 	 	 	1581520244	5.09	9.43
12/02/2020 15:10:45	120220	12022020	151045	92.03	12.418790	-57.039660	92.06	0.910	-1.800	-0.800	92.01	-3.20	-0.40	 	 	 	 	 	 	 	 	 	 	 	 	 	 	 	 	 	 	1581520245	4.62	8.56
12/02/2020 15:10:46	120220	12022020	151046	91.75	12.418787	-57.039642	91.76	0.440	-0.800	0.150	91.66	-2.20	0.50	 	 	 	 	 	 	 	 	 	 	 	 	 	 	 	 	 	 	1581520246	3.88	7.19
12/02/2020 15:10:47	120220	12022020	151047	91.30	12.418782	-57.039627	91.35	-0.170	0.670	1.240	91.24	-0.80	1.60	 	 	 	 	 	 	 	 	 	 	 	 	 	 	 	 	 	 	1581520247	3.42	6.33
12/02/2020 15:10:48	120220	12022020	151048	91.18	12.418777	-57.039613	91.31	-0.540	1.810	1.820	91.21	0.40	2.20	 	 	 	 	 	 	 	 	 	 	 	 	 	 	 	 	 	 	1581520248	3.04	5.63
12/02/2020 15:10:49	120220	12022020	151049	91.48	12.418777	-57.039597	91.62	-0.530	1.630	1.830	91.54	0.30	2.30	 	 	 	 	 	 	 	 	 	 	 	 	 	 	 	 	 	 	1581520249	3.42	6.33
12/02/2020 15:10:50	120220	12022020	151050	91.79	12.418777	-57.039575	91.89	-0.340	0.240	1.750	91.82	-1.00	2.20	 	 	 	 	 	 	 	 	 	 	 	 	 	 	 	 	 	 	1581520250	4.68	8.67
12/02/2020 15:10:51	120220	12022020	151051	91.85	12.418777	-57.039548	91.91	-0.250	-1.180	1.860	91.82	-2.50	2.30	 	 	 	 	 	 	 	 	 	 	 	 	 	 	 	 	 	 	1581520251	5.35	9.91
12/02/2020 15:10:52	120220	12022020	151052	91.65	12.418773	-57.039527	91.68	-0.190	-1.640	2.120	91.59	-3.00	2.50	 	 	 	 	 	 	 	 	 	 	 	 	 	 	 	 	 	 	1581520252	4.88	9.04
12/02/2020 15:10:53	120220	12022020	151053	91.36	12.418772	-57.039508	91.39	0.030	-1.120	2.190	91.32	-2.50	2.60	 	 	 	 	 	 	 	 	 	 	 	 	 	 	 	 	 	 	1581520253	3.87	7.17
12/02/2020 15:10:54	120220	12022020	151054	91.27	12.418773	-57.039492	91.33	0.310	-0.300	1.810	91.28	-1.70	2.30	 	 	 	 	 	 	 	 	 	 	 	 	 	 	 	 	 	 	1581520254	3.33	6.17
12/02/2020 15:10:55	120220	12022020	151055	91.37	12.418777	-57.039477	91.43	0.420	0.210	1.090	91.40	-1.10	1.60	 	 	 	 	 	 	 	 	 	 	 	 	 	 	 	 	 	 	1581520255	3.50	6.48
12/02/2020 15:10:56	120220	12022020	151056	91.45	12.418780	-57.039457	91.47	0.350	0.110	0.400	91.45	-1.20	0.90	 	 	 	 	 	 	 	 	 	 	 	 	 	 	 	 	 	 	1581520256	4.08	7.56
12/02/2020 15:10:57	120220	12022020	151057	91.48	12.418785	-57.039435	91.51	0.190	-0.260	-0.030	91.48	-1.60	0.40	 	 	 	 	 	 	 	 	 	 	 	 	 	 	 	 	 	 	1581520257	4.65	8.61
12/02/2020 15:10:58	120220	12022020	151058	91.46	12.418787	-57.039413	91.47	-0.060	-0.300	-0.050	91.43	-1.60	0.40	 	 	 	 	 	 	 	 	 	 	 	 	 	 	 	 	 	 	1581520258	4.62	8.56
12/02/2020 15:10:59	120220	12022020	151059	91.32	12.418787	-57.039395	91.35	-0.360	0.180	0.210	91.32	-1.20	0.60	 	 	 	 	 	 	 	 	 	 	 	 	 	 	 	 	 	 	1581520259	3.95	7.32
12/02/2020 15:11:00	120220	12022020	151100	91.21	12.418787	-57.039378	91.25	-0.500	0.540	0.460	91.19	-0.80	0.90	 	 	 	 	 	 	 	 	 	 	 	 	 	 	 	 	 	 	1581520260	3.45	6.39
12/02/2020 15:11:01	120220	12022020	151101	91.19	12.418787	-57.039362	91.25	-0.260	0.200	0.620	91.20	-1.10	1.00	 	 	 	 	 	 	 	 	 	 	 	 	 	 	 	 	 	 	1581520261	3.79	7.02
12/02/2020 15:11:02	120220	12022020	151102	91.29	12.418788	-57.039340	91.38	0.220	-0.630	0.860	91.32	-1.90	1.30	1017.10	26.60	26.70	20.10	20.10	421.0	67.0	67.0	439.0	28.4	351.00	13.60	80.00	11.50	38150	10511.0	27.5	27.4	1581520262	4.60	8.52
12/02/2020 15:11:03	120220	12022020	151103	91.51	12.418788	-57.039317	91.62	0.510	-1.230	1.140	91.56	-2.50	1.50	 	 	 	 	 	 	 	 	 	 	 	 	 	 	 	 	 	 	1581520263	4.93	9.13
12/02/2020 15:11:04	120220	12022020	151104	91.70	12.418787	-57.039295	91.80	0.350	-1.020	1.510	91.72	-2.40	1.90	 	 	 	 	 	 	 	 	 	 	 	 	 	 	 	 	 	 	1581520264	4.55	8.43
12/02/2020 15:11:05	120220	12022020	151105	91.71	12.418782	-57.039278	91.78	-0.120	-0.060	2.040	91.69	-1.50	2.40	 	 	 	 	 	 	 	 	 	 	 	 	 	 	 	 	 	 	1581520265	3.72	6.89
12/02/2020 15:11:06	120220	12022020	151106	91.57	12.418778	-57.039263	91.63	-0.460	0.800	2.380	91.54	-0.60	2.80	 	 	 	 	 	 	 	 	 	 	 	 	 	 	 	 	 	 	1581520266	3.18	5.89
12/02/2020 15:11:07	120220	12022020	151107	91.48	12.418777	-57.039247	91.54	-0.350	0.700	2.080	91.47	-0.60	2.50	 	 	 	 	 	 	 	 	 	 	 	 	 	 	 	 	 	 	1581520267	3.50	6.48
12/02/2020 15:11:08	120220	12022020	151108	91.43	12.418782	-57.039225	91.48	0.200	-0.430	1.390	91.42	-1.70	1.90	 	 	 	 	 	 	 	 	 	 	 	 	 	 	 	 	 	 	1581520268	4.79	8.87
12/02/2020 15:11:09	120220	12022020	151109	91.41	12.418788	-57.039198	91.46	0.690	-1.460	0.750	91.43	-2.70	1.20	 	 	 	 	 	 	 	 	 	 	 	 	 	 	 	 	 	 	1581520269	5.79	10.72
12/02/2020 15:11:10	120220	12022020	151110	91.51	12.418793	-57.039173	91.57	0.560	-1.170	0.340	91.54	-2.50	0.80	 	 	 	 	 	 	 	 	 	 	 	 	 	 	 	 	 	 	1581520270	5.18	9.59
12/02/2020 15:11:11	120220	12022020	151111	91.72	12.418797	-57.039158	91.81	-0.170	0.420	0.070	91.72	-1.00	0.50	 	 	 	 	 	 	 	 	 	 	 	 	 	 	 	 	 	 	1581520271	3.40	6.30
12/02/2020 15:11:12	120220	12022020	151112	92.08	12.418798	-57.039148	92.18	-0.920	1.930	-0.040	92.15	0.60	0.40	 	 	 	 	 	 	 	 	 	 	 	 	 	 	 	 	 	 	1581520272	2.17	4.02
12/02/2020 15:11:13	120220	12022020	151113	92.40	12.418798	-57.039135	92.46	-1.130	1.720	0.240	92.43	0.50	0.60	 	 	 	 	 	 	 	 	 	 	 	 	 	 	 	 	 	 	1581520273	2.61	4.83
12/02/2020 15:11:14	120220	12022020	151114	92.43	12.418795	-57.039113	92.46	-0.510	-0.470	0.700	92.41	-1.60	1.10	 	 	 	 	 	 	 	 	 	 	 	 	 	 	 	 	 	 	1581520274	4.65	8.61
12/02/2020 15:11:15	120220	12022020	151115	92.29	12.418792	-57.039083	92.32	0.520	-2.840	1.150	92.26	-4.00	1.50	 	 	 	 	 	 	 	 	 	 	 	 	 	 	 	 	 	 	1581520275	6.39	11.83
12/02/2020 15:11:16	120220	12022020	151116	92.14	12.418788	-57.039055	92.18	1.220	-3.300	1.740	92.12	-4.60	2.10	 	 	 	 	 	 	 	 	 	 	 	 	 	 	 	 	 	 	1581520276	6.06	11.22
12/02/2020 15:11:17	120220	12022020	151117	92.06	12.418785	-57.039037	92.10	1.090	-1.360	2.180	92.06	-2.80	2.60	 	 	 	 	 	 	 	 	 	 	 	 	 	 	 	 	 	 	1581520277	3.91	7.24
12/02/2020 15:11:18	120220	12022020	151118	92.18	12.418785	-57.039028	92.26	0.230	1.450	2.030	92.24	-0.00	2.50	 	 	 	 	 	 	 	 	 	 	 	 	 	 	 	 	 	 	1581520278	1.89	3.50
12/02/2020 15:11:19	120220	12022020	151119	92.49	12.418788	-57.039020	92.56	-0.700	3.090	1.190	92.55	1.70	1.70	 	 	 	 	 	 	 	 	 	 	 	 	 	 	 	 	 	 	1581520279	1.68	3.11
12/02/2020 15:11:20	120220	12022020	151120	92.73	12.418793	-57.039007	92.76	-1.060	2.460	0.190	92.75	1.20	0.70	 	 	 	 	 	 	 	 	 	 	 	 	 	 	 	 	 	 	1581520280	3.25	6.02
12/02/2020 15:11:21	120220	12022020	151121	92.73	12.418798	-57.038983	92.71	-0.730	0.240	-0.450	92.70	-0.90	0.00	 	 	 	 	 	 	 	 	 	 	 	 	 	 	 	 	 	 	1581520281	5.07	9.39
12/02/2020 15:11:22	120220	12022020	151122	92.48	12.418800	-57.038955	92.46	-0.040	-2.060	-0.530	92.42	-3.30	-0.10	 	 	 	 	 	 	 	 	 	 	 	 	 	 	 	 	 	 	1581520282	5.87	10.87
12/02/2020 15:11:23	120220	12022020	151123	92.27	12.418800	-57.038930	92.30	0.540	-3.130	-0.390	92.27	-4.40	0.00	 	 	 	 	 	 	 	 	 	 	 	 	 	 	 	 	 	 	1581520283	5.53	10.24
12/02/2020 15:11:24	120220	12022020	151124	92.45	12.418800	-57.038908	92.54	0.760	-2.390	-0.190	92.52	-3.80	0.20	 	 	 	 	 	 	 	 	 	 	 	 	 	 	 	 	 	 	1581520284	4.35	8.06
12/02/2020 15:11:25	120220	12022020	151125	92.85	12.418798	-57.038895	92.97	0.490	-0.320	0.220	92.93	-1.80	0.60	 	 	 	 	 	 	 	 	 	 	 	 	 	 	 	 	 	 	1581520285	2.85	5.28
12/02/2020 15:11:26	120220	12022020	151126	93.18	12.418795	-57.038887	93.26	-0.070	1.600	0.800	93.21	0.20	1.20	 	 	 	 	 	 	 	 	 	 	 	 	 	 	 	 	 	 	1581520286	2.06	3.82
12/02/2020 15:11:27	120220	12022020	151127	93.14	12.418792	-57.038875	93.17	-0.490	2.040	1.530	93.08	0.70	1.90	 	 	 	 	 	 	 	 	 	 	 	 	 	 	 	 	 	 	1581520287	2.63	4.87
12/02/2020 15:11:28	120220	12022020	151128	92.72	12.418787	-57.038855	92.74	-0.400	0.850	2.330	92.61	-0.40	2.70	 	 	 	 	 	 	 	 	 	 	 	 	 	 	 	 	 	 	1581520288	4.19	7.76
12/02/2020 15:11:29	120220	12022020	151129	92.25	12.418783	-57.038830	92.31	-0.000	-0.720	2.890	92.20	-2.00	3.30	 	 	 	 	 	 	 	 	 	 	 	 	 	 	 	 	 	 	1581520289	5.39	9.98
12/02/2020 15:11:30	120220	12022020	151130	92.16	12.418782	-57.038805	92.28	0.260	-1.380	2.910	92.21	-2.70	3.30	 	 	 	 	 	 	 	 	 	 	 	 	 	 	 	 	 	 	1581520290	5.11	9.46
12/02/2020 15:11:31	120220	12022020	151131	92.52	12.418783	-57.038787	92.65	0.220	-0.960	2.450	92.62	-2.30	2.90	 	 	 	 	 	 	 	 	 	 	 	 	 	 	 	 	 	 	1581520291	3.92	7.26
12/02/2020 15:11:32	120220	12022020	151132	92.94	12.418785	-57.038773	93.02	0.090	-0.330	1.760	92.99	-1.70	2.20	 	 	 	 	 	 	 	 	 	 	 	 	 	 	 	 	 	 	1581520292	3.10	5.74
12/02/2020 15:11:33	120220	12022020	151133	93.02	12.418788	-57.038757	93.02	0.080	-0.120	1.120	93.00	-1.40	1.60	 	 	 	 	 	 	 	 	 	 	 	 	 	 	 	 	 	 	1581520293	3.41	6.32
12/02/2020 15:11:34	120220	12022020	151134	92.85	12.418790	-57.038738	92.82	0.180	-0.170	0.700	92.80	-1.50	1.10	 	 	 	 	 	 	 	 	 	 	 	 	 	 	 	 	 	 	1581520294	3.97	7.35
12/02/2020 15:11:35	120220	12022020	151135	92.65	12.418793	-57.038718	92.65	0.230	-0.200	0.510	92.63	-1.50	0.90	 	 	 	 	 	 	 	 	 	 	 	 	 	 	 	 	 	 	1581520295	4.16	7.70
12/02/2020 15:11:36	120220	12022020	151136	92.56	12.418793	-57.038700	92.57	0.080	-0.070	0.380	92.55	-1.40	0.80	 	 	 	 	 	 	 	 	 	 	 	 	 	 	 	 	 	 	1581520296	4.03	7.46
12/02/2020 15:11:37	120220	12022020	151137	92.48	12.418793	-57.038682	92.49	-0.160	0.070	0.310	92.46	-1.30	0.70	 	 	 	 	 	 	 	 	 	 	 	 	 	 	 	 	 	 	1581520297	3.84	7.11
12/02/2020 15:11:38	120220	12022020	151138	92.37	12.418795	-57.038663	92.41	-0.290	0.040	0.310	92.36	-1.30	0.70	 	 	 	 	 	 	 	 	 	 	 	 	 	 	 	 	 	 	1581520298	3.86	7.15
12/02/2020 15:11:39	120220	12022020	151139	92.40	12.418795	-57.038643	92.49	-0.190	-0.230	0.350	92.43	-1.50	0.80	 	 	 	 	 	 	 	 	 	 	 	 	 	 	 	 	 	 	1581520299	4.10	7.59
12/02/2020 15:11:40	120220	12022020	151140	92.60	12.418795	-57.038623	92.70	0.040	-0.450	0.500	92.65	-1.80	0.90	 	 	 	 	 	 	 	 	 	 	 	 	 	 	 	 	 	 	1581520300	4.30	7.96
12/02/2020 15:11:41	120220	12022020	151141	92.75	12.418792	-57.038603	92.82	0.180	-0.370	0.860	92.75	-1.70	1.20	 	 	 	 	 	 	 	 	 	 	 	 	 	 	 	 	 	 	1581520301	4.15	7.69
12/02/2020 15:11:42	120220	12022020	151142	92.61	12.418790	-57.038587	92.63	0.130	-0.140	1.430	92.54	-1.50	1.80	 	 	 	 	 	 	 	 	 	 	 	 	 	 	 	 	 	 	1581520302	3.81	7.06
12/02/2020 15:11:43	120220	12022020	151143	92.15	12.418787	-57.038568	92.15	0.060	-0.090	2.100	92.05	-1.40	2.50	 	 	 	 	 	 	 	 	 	 	 	 	 	 	 	 	 	 	1581520303	3.81	7.06
12/02/2020 15:11:44	120220	12022020	151144	91.80	12.418783	-57.038548	91.87	0.080	-0.190	2.370	91.78	-1.50	2.80	 	 	 	 	 	 	 	 	 	 	 	 	 	 	 	 	 	 	1581520304	4.10	7.59
12/02/2020 15:11:45	120220	12022020	151145	91.90	12.418783	-57.038530	92.04	0.200	-0.350	2.100	91.96	-1.70	2.50	 	 	 	 	 	 	 	 	 	 	 	 	 	 	 	 	 	 	1581520305	4.20	7.78
12/02/2020 15:11:46	120220	12022020	151146	92.15	12.418785	-57.038508	92.23	0.340	-0.530	1.630	92.18	-1.80	2.10	 	 	 	 	 	 	 	 	 	 	 	 	 	 	 	 	 	 	1581520306	4.35	8.06
12/02/2020 15:11:47	120220	12022020	151147	92.14	12.418788	-57.038488	92.16	0.310	-0.430	1.230	92.10	-1.80	1.70	 	 	 	 	 	 	 	 	 	 	 	 	 	 	 	 	 	 	1581520307	4.39	8.13
12/02/2020 15:11:48	120220	12022020	151148	91.96	12.418790	-57.038470	92.00	-0.080	0.230	1.160	91.93	-1.20	1.60	 	 	 	 	 	 	 	 	 	 	 	 	 	 	 	 	 	 	1581520308	3.88	7.19
12/02/2020 15:11:49	120220	12022020	151149	91.87	12.418790	-57.038455	91.95	-0.690	0.910	1.290	91.87	-0.50	1.70	 	 	 	 	 	 	 	 	 	 	 	 	 	 	 	 	 	 	1581520309	3.13	5.80
12/02/2020 15:11:50	120220	12022020	151150	91.93	12.418790	-57.038440	92.02	-0.940	0.650	1.220	91.95	-0.60	1.60	 	 	 	 	 	 	 	 	 	 	 	 	 	 	 	 	 	 	1581520310	3.26	6.04
12/02/2020 15:11:51	120220	12022020	151151	91.87	12.418788	-57.038418	91.92	-0.430	-0.790	1.130	91.82	-2.00	1.50	 	 	 	 	 	 	 	 	 	 	 	 	 	 	 	 	 	 	1581520311	4.52	8.37
12/02/2020 15:11:52	120220	12022020	151152	91.53	12.418788	-57.038392	91.58	0.510	-2.170	1.340	91.46	-3.40	1.70	 	 	 	 	 	 	 	 	 	 	 	 	 	 	 	 	 	 	1581520312	5.68	10.52
12/02/2020 15:11:53	120220	12022020	151153	91.26	12.418788	-57.038367	91.33	1.140	-2.140	1.590	91.24	-3.50	2.00	 	 	 	 	 	 	 	 	 	 	 	 	 	 	 	 	 	 	1581520313	5.40	10.00
12/02/2020 15:11:54	120220	12022020	151154	91.37	12.418788	-57.038348	91.50	0.930	-0.490	1.620	91.45	-1.90	2.10	 	 	 	 	 	 	 	 	 	 	 	 	 	 	 	 	 	 	1581520314	3.84	7.11
12/02/2020 15:11:55	120220	12022020	151155	91.87	12.418790	-57.038337	92.04	0.050	1.600	1.330	91.99	0.10	1.80	 	 	 	 	 	 	 	 	 	 	 	 	 	 	 	 	 	 	1581520315	2.37	4.39
12/02/2020 15:11:56	120220	12022020	151156	92.45	12.418792	-57.038327	92.59	-0.840	2.500	0.990	92.55	1.10	1.40	 	 	 	 	 	 	 	 	 	 	 	 	 	 	 	 	 	 	1581520316	2.23	4.13
12/02/2020 15:11:57	120220	12022020	151157	92.82	12.418792	-57.038310	92.88	-1.090	1.550	0.840	92.84	0.30	1.30	 	 	 	 	 	 	 	 	 	 	 	 	 	 	 	 	 	 	1581520317	3.53	6.54
12/02/2020 15:11:58	120220	12022020	151158	92.73	12.418788	-57.038285	92.71	-0.610	-0.510	1.060	92.64	-1.70	1.50	 	 	 	 	 	 	 	 	 	 	 	 	 	 	 	 	 	 	1581520318	5.13	9.50
12/02/2020 15:11:59	120220	12022020	151159	92.25	12.418787	-57.038258	92.24	0.140	-2.130	1.450	92.17	-3.40	1.90	 	 	 	 	 	 	 	 	 	 	 	 	 	 	 	 	 	 	1581520319	5.71	10.57
12/02/2020 15:12:00	120220	12022020	151200	92.06	12.418787	-57.038235	92.12	0.570	-2.160	1.460	92.08	-3.50	1.90	 	 	 	 	 	 	 	 	 	 	 	 	 	 	 	 	 	 	1581520320	4.87	9.02
12/02/2020 15:12:01	120220	12022020	151201	92.34	12.418790	-57.038220	92.44	0.460	-1.020	1.190	92.34	-2.40	1.60	 	 	 	 	 	 	 	 	 	 	 	 	 	 	 	 	 	 	1581520321	3.43	6.35
12/02/2020 15:12:02	120220	12022020	151202	92.64	12.418792	-57.038207	92.72	0.130	-0.030	1.040	92.67	-1.40	1.50	1017.20	26.60	26.70	20.30	20.40	437.0	68.0	68.0	439.0	28.3	348.00	12.40	78.00	10.40	39195	10572.0	27.5	27.4	1581520322	2.92	5.41
12/02/2020 15:12:03	120220	12022020	151203	92.71	12.418792	-57.038188	92.75	-0.030	0.160	0.950	92.71	-1.20	1.40	 	 	 	 	 	 	 	 	 	 	 	 	 	 	 	 	 	 	1581520323	3.66	6.78
12/02/2020 15:12:04	120220	12022020	151204	92.59	12.418790	-57.038167	92.62	0.040	0.070	1.020	92.55	-1.30	1.40	 	 	 	 	 	 	 	 	 	 	 	 	 	 	 	 	 	 	1581520324	4.54	8.41
12/02/2020 15:12:05	120220	12022020	151205	92.40	12.418788	-57.038147	92.45	0.110	0.260	1.230	92.38	-1.10	1.60	 	 	 	 	 	 	 	 	 	 	 	 	 	 	 	 	 	 	1581520325	4.49	8.32
12/02/2020 15:12:06	120220	12022020	151206	92.38	12.418788	-57.038127	92.45	-0.050	0.520	1.200	92.40	-0.80	1.60	 	 	 	 	 	 	 	 	 	 	 	 	 	 	 	 	 	 	1581520326	4.01	7.43
12/02/2020 15:12:07	120220	12022020	151207	92.48	12.418788	-57.038108	92.55	-0.350	0.470	0.870	92.49	-0.90	1.30	 	 	 	 	 	 	 	 	 	 	 	 	 	 	 	 	 	 	1581520327	3.91	7.24
12/02/2020 15:12:08	120220	12022020	151208	92.48	12.418790	-57.038090	92.53	-0.560	0.170	0.710	92.46	-1.20	1.10	 	 	 	 	 	 	 	 	 	 	 	 	 	 	 	 	 	 	1581520328	4.11	7.61
12/02/2020 15:12:09	120220	12022020	151209	92.30	12.418790	-57.038070	92.32	-0.520	-0.160	0.830	92.25	-1.50	1.20	 	 	 	 	 	 	 	 	 	 	 	 	 	 	 	 	 	 	1581520329	4.14	7.67
12/02/2020 15:12:10	120220	12022020	151210	92.06	12.418788	-57.038050	92.10	-0.190	-0.600	0.890	92.03	-1.90	1.30	 	 	 	 	 	 	 	 	 	 	 	 	 	 	 	 	 	 	1581520330	4.15	7.69
12/02/2020 15:12:11	120220	12022020	151211	92.01	12.418788	-57.038030	92.07	0.310	-1.090	0.720	92.02	-2.40	1.20	 	 	 	 	 	 	 	 	 	 	 	 	 	 	 	 	 	 	1581520331	4.40	8.15
12/02/2020 15:12:12	120220	12022020	151212	92.03	12.418790	-57.038008	92.09	0.750	-1.270	0.630	92.02	-2.60	1.10	 	 	 	 	 	 	 	 	 	 	 	 	 	 	 	 	 	 	1581520332	4.55	8.43
12/02/2020 15:12:13	120220	12022020	151213	91.88	12.418792	-57.037987	91.89	0.870	-1.000	0.750	91.82	-2.40	1.20	 	 	 	 	 	 	 	 	 	 	 	 	 	 	 	 	 	 	1581520333	4.39	8.13
12/02/2020 15:12:14	120220	12022020	151214	91.54	12.418793	-57.037968	91.55	0.580	-0.420	1.020	91.47	-1.80	1.40	 	 	 	 	 	 	 	 	 	 	 	 	 	 	 	 	 	 	1581520334	4.14	7.67
12/02/2020 15:12:15	120220	12022020	151215	91.28	12.418792	-57.037948	91.35	-0.030	0.250	1.430	91.26	-1.10	1.80	 	 	 	 	 	 	 	 	 	 	 	 	 	 	 	 	 	 	1581520335	4.02	7.45
12/02/2020 15:12:16	120220	12022020	151216	91.36	12.418788	-57.037930	91.51	-0.700	0.920	1.840	91.42	-0.50	2.20	 	 	 	 	 	 	 	 	 	 	 	 	 	 	 	 	 	 	1581520336	3.96	7.33
12/02/2020 15:12:17	120220	12022020	151217	91.76	12.418785	-57.037913	91.93	-1.170	1.430	1.980	91.84	0.10	2.40	 	 	 	 	 	 	 	 	 	 	 	 	 	 	 	 	 	 	1581520337	3.69	6.83
12/02/2020 15:12:18	120220	12022020	151218	92.03	12.418783	-57.037897	92.12	-1.120	1.130	1.870	92.04	-0.20	2.30	 	 	 	 	 	 	 	 	 	 	 	 	 	 	 	 	 	 	1581520338	3.63	6.72
12/02/2020 15:12:19	120220	12022020	151219	91.97	12.418782	-57.037875	92.02	-0.460	-0.220	1.720	91.93	-1.50	2.10	 	 	 	 	 	 	 	 	 	 	 	 	 	 	 	 	 	 	1581520339	4.53	8.39
12/02/2020 15:12:20	120220	12022020	151220	91.80	12.418782	-57.037850	91.84	0.450	-1.710	1.570	91.76	-3.00	2.00	 	 	 	 	 	 	 	 	 	 	 	 	 	 	 	 	 	 	1581520340	5.39	9.98
12/02/2020 15:12:21	120220	12022020	151221	91.63	12.418783	-57.037825	91.66	1.130	-2.290	1.400	91.60	-3.60	1.80	 	 	 	 	 	 	 	 	 	 	 	 	 	 	 	 	 	 	1581520341	5.31	9.83
12/02/2020 15:12:22	120220	12022020	151222	91.48	12.418788	-57.037803	91.51	1.280	-1.640	1.080	91.47	-3.00	1.50	 	 	 	 	 	 	 	 	 	 	 	 	 	 	 	 	 	 	1581520342	4.58	8.48
12/02/2020 15:12:23	120220	12022020	151223	91.57	12.418793	-57.037787	91.64	0.750	-0.090	0.570	91.62	-1.50	1.00	 	 	 	 	 	 	 	 	 	 	 	 	 	 	 	 	 	 	1581520343	3.80	7.04
12/02/2020 15:12:24	120220	12022020	151224	91.97	12.418798	-57.037772	92.10	-0.240	1.350	0.130	92.09	-0.10	0.60	 	 	 	 	 	 	 	 	 	 	 	 	 	 	 	 	 	 	1581520344	3.12	5.78
12/02/2020 15:12:25	120220	12022020	151225	92.47	12.418800	-57.037757	92.57	-1.080	1.740	0.200	92.54	0.40	0.60	 	 	 	 	 	 	 	 	 	 	 	 	 	 	 	 	 	 	1581520345	3.23	5.98
12/02/2020 15:12:26	120220	12022020	151226	92.65	12.418795	-57.037738	92.69	-1.270	1.020	0.810	92.64	-0.30	1.20	 	 	 	 	 	 	 	 	 	 	 	 	 	 	 	 	 	 	1581520346	4.23	7.83
12/02/2020 15:12:27	120220	12022020	151227	92.50	12.418790	-57.037715	92.53	-0.650	-0.370	1.430	92.45	-1.60	1.80	 	 	 	 	 	 	 	 	 	 	 	 	 	 	 	 	 	 	1581520347	5.07	9.39
12/02/2020 15:12:28	120220	12022020	151228	92.29	12.418787	-57.037688	92.33	0.410	-1.780	1.720	92.25	-3.00	2.10	 	 	 	 	 	 	 	 	 	 	 	 	 	 	 	 	 	 	1581520348	5.50	10.19
12/02/2020 15:12:29	120220	12022020	151229	92.20	12.418785	-57.037663	92.26	1.110	-2.200	1.850	92.20	-3.50	2.30	 	 	 	 	 	 	 	 	 	 	 	 	 	 	 	 	 	 	1581520349	5.46	10.11
12/02/2020 15:12:30	120220	12022020	151230	92.24	12.418785	-57.037642	92.31	0.870	-1.060	1.920	92.26	-2.50	2.40	 	 	 	 	 	 	 	 	 	 	 	 	 	 	 	 	 	 	1581520350	4.35	8.06
12/02/2020 15:12:31	120220	12022020	151231	92.32	12.418787	-57.037628	92.37	-0.060	0.820	1.790	92.33	-0.60	2.20	 	 	 	 	 	 	 	 	 	 	 	 	 	 	 	 	 	 	1581520351	2.84	5.26
12/02/2020 15:12:32	120220	12022020	151232	92.33	12.418788	-57.037617	92.35	-0.920	2.020	1.360	92.31	0.60	1.80	 	 	 	 	 	 	 	 	 	 	 	 	 	 	 	 	 	 	1581520352	2.46	4.56
12/02/2020 15:12:33	120220	12022020	151233	92.24	12.418792	-57.037602	92.25	-0.980	1.490	0.790	92.21	0.20	1.30	 	 	 	 	 	 	 	 	 	 	 	 	 	 	 	 	 	 	1581520353	3.41	6.32
12/02/2020 15:12:34	120220	12022020	151234	92.23	12.418795	-57.037577	92.27	-0.200	-0.420	0.080	92.26	-1.60	0.60	 	 	 	 	 	 	 	 	 	 	 	 	 	 	 	 	 	 	1581520354	5.20	9.63
12/02/2020 15:12:35	120220	12022020	151235	92.47	12.418798	-57.037548	92.54	0.660	-1.990	-0.490	92.52	-3.30	-0.00	 	 	 	 	 	 	 	 	 	 	 	 	 	 	 	 	 	 	1581520355	6.07	11.24
12/02/2020 15:12:36	120220	12022020	151236	92.66	12.418800	-57.037525	92.71	0.830	-2.000	-0.520	92.68	-3.40	-0.10	 	 	 	 	 	 	 	 	 	 	 	 	 	 	 	 	 	 	1581520356	5.11	9.46
12/02/2020 15:12:37	120220	12022020	151237	92.55	12.418800	-57.037508	92.56	0.290	-0.690	0.020	92.48	-2.10	0.40	 	 	 	 	 	 	 	 	 	 	 	 	 	 	 	 	 	 	1581520357	3.41	6.32
12/02/2020 15:12:38	120220	12022020	151238	92.14	12.418797	-57.037497	92.14	-0.360	0.660	0.860	92.04	-0.70	1.20	 	 	 	 	 	 	 	 	 	 	 	 	 	 	 	 	 	 	1581520358	2.63	4.87
12/02/2020 15:12:39	120220	12022020	151239	91.72	12.418793	-57.037482	91.76	-0.550	1.030	1.540	91.66	-0.30	1.90	 	 	 	 	 	 	 	 	 	 	 	 	 	 	 	 	 	 	1581520359	3.21	5.94
12/02/2020 15:12:40	120220	12022020	151240	91.54	12.418790	-57.037462	91.63	-0.240	0.430	1.850	91.54	-0.90	2.30	 	 	 	 	 	 	 	 	 	 	 	 	 	 	 	 	 	 	1581520360	4.34	8.04
12/02/2020 15:12:41	120220	12022020	151241	91.65	12.418788	-57.037438	91.76	0.120	-0.230	1.740	91.69	-1.50	2.20	 	 	 	 	 	 	 	 	 	 	 	 	 	 	 	 	 	 	1581520361	4.91	9.09
12/02/2020 15:12:42	120220	12022020	151242	91.93	12.418792	-57.037417	92.02	0.160	-0.300	1.290	91.98	-1.70	1.80	 	 	 	 	 	 	 	 	 	 	 	 	 	 	 	 	 	 	1581520362	4.48	8.30
12/02/2020 15:12:43	120220	12022020	151243	92.15	12.418797	-57.037400	92.19	-0.070	-0.070	0.760	92.15	-1.40	1.20	 	 	 	 	 	 	 	 	 	 	 	 	 	 	 	 	 	 	1581520363	3.76	6.96
12/02/2020 15:12:44	120220	12022020	151244	92.06	12.418800	-57.037383	92.07	-0.200	-0.240	0.670	92.01	-1.50	1.10	 	 	 	 	 	 	 	 	 	 	 	 	 	 	 	 	 	 	1581520364	3.63	6.72
12/02/2020 15:12:45	120220	12022020	151245	91.80	12.418800	-57.037363	91.83	-0.000	-0.780	1.080	91.75	-2.10	1.50	 	 	 	 	 	 	 	 	 	 	 	 	 	 	 	 	 	 	1581520365	4.22	7.82
12/02/2020 15:12:46	120220	12022020	151246	91.60	12.418797	-57.037342	91.64	0.390	-1.020	1.510	91.57	-2.40	1.90	 	 	 	 	 	 	 	 	 	 	 	 	 	 	 	 	 	 	1581520366	4.59	8.50
12/02/2020 15:12:47	120220	12022020	151247	91.51	12.418795	-57.037322	91.56	0.620	-0.690	1.530	91.50	-2.10	2.00	 	 	 	 	 	 	 	 	 	 	 	 	 	 	 	 	 	 	1581520367	4.19	7.76
12/02/2020 15:12:48	120220	12022020	151248	91.52	12.418797	-57.037305	91.59	0.500	-0.210	1.300	91.54	-1.60	1.70	 	 	 	 	 	 	 	 	 	 	 	 	 	 	 	 	 	 	1581520368	3.88	7.19
12/02/2020 15:12:49	120220	12022020	151249	91.68	12.418800	-57.037287	91.77	0.040	0.220	1.130	91.73	-1.10	1.60	 	 	 	 	 	 	 	 	 	 	 	 	 	 	 	 	 	 	1581520369	3.94	7.30
12/02/2020 15:12:50	120220	12022020	151250	91.96	12.418802	-57.037268	92.06	-0.540	0.700	0.990	92.02	-0.70	1.40	 	 	 	 	 	 	 	 	 	 	 	 	 	 	 	 	 	 	1581520370	3.74	6.93
12/02/2020 15:12:51	120220	12022020	151251	92.25	12.418802	-57.037252	92.35	-0.860	0.980	0.810	92.30	-0.40	1.20	 	 	 	 	 	 	 	 	 	 	 	 	 	 	 	 	 	 	1581520371	3.42	6.33
12/02/2020 15:12:52	120220	12022020	151252	92.43	12.418803	-57.037235	92.50	-0.620	0.530	0.730	92.44	-0.80	1.20	 	 	 	 	 	 	 	 	 	 	 	 	 	 	 	 	 	 	1581520372	3.62	6.70
12/02/2020 15:12:53	120220	12022020	151253	92.39	12.418803	-57.037213	92.44	0.080	-0.640	0.920	92.36	-1.90	1.30	 	 	 	 	 	 	 	 	 	 	 	 	 	 	 	 	 	 	1581520373	4.47	8.28
12/02/2020 15:12:54	120220	12022020	151254	92.23	12.418803	-57.037190	92.26	0.720	-1.760	1.150	92.20	-3.00	1.60	 	 	 	 	 	 	 	 	 	 	 	 	 	 	 	 	 	 	1581520374	5.14	9.52
12/02/2020 15:12:55	120220	12022020	151255	92.16	12.418803	-57.037167	92.23	0.910	-1.940	1.240	92.17	-3.30	1.70	 	 	 	 	 	 	 	 	 	 	 	 	 	 	 	 	 	 	1581520375	4.99	9.24
12/02/2020 15:12:56	120220	12022020	151256	92.25	12.418805	-57.037147	92.33	0.590	-0.860	1.190	92.28	-2.30	1.60	 	 	 	 	 	 	 	 	 	 	 	 	 	 	 	 	 	 	1581520376	4.01	7.43
12/02/2020 15:12:57	120220	12022020	151257	92.46	12.418807	-57.037133	92.57	-0.040	0.760	1.090	92.53	-0.70	1.50	 	 	 	 	 	 	 	 	 	 	 	 	 	 	 	 	 	 	1581520377	2.92	5.41
12/02/2020 15:12:58	120220	12022020	151258	92.88	12.418808	-57.037122	93.00	-0.630	1.700	0.900	92.99	0.30	1.40	 	 	 	 	 	 	 	 	 	 	 	 	 	 	 	 	 	 	1581520378	2.64	4.89
12/02/2020 15:12:59	120220	12022020	151259	93.34	12.418808	-57.037105	93.41	-0.740	1.220	0.570	93.40	-0.00	1.00	 	 	 	 	 	 	 	 	 	 	 	 	 	 	 	 	 	 	1581520379	3.49	6.46
12/02/2020 15:13:00	120220	12022020	151300	93.46	12.418808	-57.037082	93.44	-0.220	-0.340	0.410	93.42	-1.60	0.80	 	 	 	 	 	 	 	 	 	 	 	 	 	 	 	 	 	 	1581520380	4.86	9.00
12/02/2020 15:13:01	120220	12022020	151301	93.13	12.418807	-57.037055	93.09	0.500	-1.710	0.690	93.04	-3.00	1.10	 	 	 	 	 	 	 	 	 	 	 	 	 	 	 	 	 	 	1581520381	5.62	10.41
12/02/2020 15:13:02	120220	12022020	151302	92.79	12.418807	-57.037032	92.78	0.790	-1.710	0.970	92.75	-3.10	1.40	1017.20	26.60	26.60	20.40	20.40	476.0	68.0	68.0	439.0	28.3	351.00	13.20	82.00	11.10	41684	10950.0	27.5	27.4	1581520382	5.05	9.35
12/02/2020 15:13:03	120220	12022020	151303	92.84	12.418808	-57.037015	92.91	0.380	-0.340	0.790	92.91	-1.80	1.30	 	 	 	 	 	 	 	 	 	 	 	 	 	 	 	 	 	 	1581520383	3.52	6.52
12/02/2020 15:13:04	120220	12022020	151304	93.32	12.418812	-57.037003	93.42	-0.390	1.060	0.250	93.43	-0.30	0.70	 	 	 	 	 	 	 	 	 	 	 	 	 	 	 	 	 	 	1581520384	2.54	4.70
12/02/2020 15:13:05	120220	12022020	151305	93.75	12.418813	-57.036990	93.80	-0.840	1.110	0.070	93.79	-0.20	0.50	 	 	 	 	 	 	 	 	 	 	 	 	 	 	 	 	 	 	1581520385	2.94	5.44
12/02/2020 15:13:06	120220	12022020	151306	93.74	12.418812	-57.036968	93.72	-0.560	-0.190	0.610	93.69	-1.40	1.00	 	 	 	 	 	 	 	 	 	 	 	 	 	 	 	 	 	 	1581520386	4.51	8.35
12/02/2020 15:13:07	120220	12022020	151307	93.35	12.418805	-57.036942	93.30	0.200	-1.420	1.410	93.26	-2.70	1.80	 	 	 	 	 	 	 	 	 	 	 	 	 	 	 	 	 	 	1581520387	5.62	10.41
12/02/2020 15:13:08	120220	12022020	151308	92.87	12.418802	-57.036918	92.84	0.830	-1.410	1.990	92.80	-2.80	2.40	 	 	 	 	 	 	 	 	 	 	 	 	 	 	 	 	 	 	1581520388	5.07	9.39
12/02/2020 15:13:09	120220	12022020	151309	92.68	12.418800	-57.036900	92.71	0.860	-0.410	2.120	92.69	-1.80	2.60	 	 	 	 	 	 	 	 	 	 	 	 	 	 	 	 	 	 	1581520389	3.80	7.04
12/02/2020 15:13:10	120220	12022020	151310	92.91	12.418803	-57.036885	93.03	0.240	0.580	1.910	93.01	-0.80	2.40	 	 	 	 	 	 	 	 	 	 	 	 	 	 	 	 	 	 	1581520390	3.22	5.96
12/02/2020 15:13:11	120220	12022020	151311	93.40	12.418803	-57.036870	93.52	-0.620	1.020	1.740	93.48	-0.30	2.20	 	 	 	 	 	 	 	 	 	 	 	 	 	 	 	 	 	 	1581520391	3.28	6.07
12/02/2020 15:13:12	120220	12022020	151312	93.61	12.418802	-57.036853	93.66	-1.070	0.720	1.850	93.59	-0.60	2.30	 	 	 	 	 	 	 	 	 	 	 	 	 	 	 	 	 	 	1581520392	3.69	6.83
12/02/2020 15:13:13	120220	12022020	151313	93.32	12.418797	-57.036832	93.32	-0.680	-0.220	2.070	93.23	-1.50	2.50	 	 	 	 	 	 	 	 	 	 	 	 	 	 	 	 	 	 	1581520393	4.44	8.22
12/02/2020 15:13:14	120220	12022020	151314	92.88	12.418793	-57.036808	92.88	0.310	-1.270	1.990	92.80	-2.50	2.40	 	 	 	 	 	 	 	 	 	 	 	 	 	 	 	 	 	 	1581520394	5.00	9.26
12/02/2020 15:13:15	120220	12022020	151315	92.68	12.418797	-57.036785	92.74	1.120	-1.590	1.500	92.68	-2.90	2.00	 	 	 	 	 	 	 	 	 	 	 	 	 	 	 	 	 	 	1581520395	5.05	9.35
12/02/2020 15:13:16	120220	12022020	151316	92.98	12.418802	-57.036765	93.10	1.090	-0.860	0.760	93.09	-2.20	1.20	 	 	 	 	 	 	 	 	 	 	 	 	 	 	 	 	 	 	1581520396	4.40	8.15
12/02/2020 15:13:17	120220	12022020	151317	93.50	12.418808	-57.036750	93.60	0.280	0.210	0.120	93.60	-1.20	0.60	 	 	 	 	 	 	 	 	 	 	 	 	 	 	 	 	 	 	1581520397	3.52	6.52
12/02/2020 15:13:18	120220	12022020	151318	93.86	12.418810	-57.036733	93.89	-0.580	0.720	0.010	93.88	-0.60	0.40	 	 	 	 	 	 	 	 	 	 	 	 	 	 	 	 	 	 	1581520398	3.32	6.15
12/02/2020 15:13:19	120220	12022020	151319	93.79	12.418805	-57.036715	93.77	-0.820	0.480	0.590	93.74	-0.80	1.00	 	 	 	 	 	 	 	 	 	 	 	 	 	 	 	 	 	 	1581520399	4.07	7.54
12/02/2020 15:13:20	120220	12022020	151320	93.42	12.418798	-57.036693	93.40	-0.390	-0.090	1.350	93.34	-1.40	1.70	 	 	 	 	 	 	 	 	 	 	 	 	 	 	 	 	 	 	1581520400	4.81	8.91
12/02/2020 15:13:21	120220	12022020	151321	93.08	12.418793	-57.036672	93.10	0.220	-0.470	1.810	93.04	-1.80	2.20	 	 	 	 	 	 	 	 	 	 	 	 	 	 	 	 	 	 	1581520401	4.87	9.02
12/02/2020 15:13:22	120220	12022020	151322	93.08	12.418793	-57.036650	93.17	0.350	-0.290	1.660	93.13	-1.60	2.10	 	 	 	 	 	 	 	 	 	 	 	 	 	 	 	 	 	 	1581520402	4.37	8.09
12/02/2020 15:13:23	120220	12022020	151323	93.46	12.418795	-57.036633	93.57	-0.050	0.100	1.150	93.54	-1.20	1.60	 	 	 	 	 	 	 	 	 	 	 	 	 	 	 	 	 	 	1581520403	3.69	6.83
12/02/2020 15:13:24	120220	12022020	151324	93.81	12.418798	-57.036617	93.87	-0.410	0.060	0.850	93.85	-1.20	1.30	 	 	 	 	 	 	 	 	 	 	 	 	 	 	 	 	 	 	1581520404	3.59	6.65
12/02/2020 15:13:25	120220	12022020	151325	93.84	12.418798	-57.036597	93.87	-0.230	-0.490	0.930	93.82	-1.80	1.40	 	 	 	 	 	 	 	 	 	 	 	 	 	 	 	 	 	 	1581520405	4.16	7.70
12/02/2020 15:13:26	120220	12022020	151326	93.76	12.418795	-57.036575	93.79	0.310	-1.020	1.020	93.75	-2.30	1.40	 	 	 	 	 	 	 	 	 	 	 	 	 	 	 	 	 	 	1581520406	4.74	8.78
12/02/2020 15:13:27	120220	12022020	151327	93.71	12.418793	-57.036552	93.74	0.650	-1.000	1.220	93.69	-2.30	1.60	 	 	 	 	 	 	 	 	 	 	 	 	 	 	 	 	 	 	1581520407	4.72	8.74
12/02/2020 15:13:28	120220	12022020	151328	93.58	12.418790	-57.036533	93.59	0.460	-0.390	1.490	93.54	-1.70	1.90	 	 	 	 	 	 	 	 	 	 	 	 	 	 	 	 	 	 	1581520408	4.13	7.65
12/02/2020 15:13:29	120220	12022020	151329	93.37	12.418788	-57.036515	93.37	0.010	0.270	1.570	93.32	-1.10	2.00	 	 	 	 	 	 	 	 	 	 	 	 	 	 	 	 	 	 	1581520409	3.69	6.83
12/02/2020 15:13:30	120220	12022020	151330	93.23	12.418788	-57.036498	93.25	-0.320	0.660	1.260	93.22	-0.70	1.70	 	 	 	 	 	 	 	 	 	 	 	 	 	 	 	 	 	 	1581520410	3.73	6.91
12/02/2020 15:13:31	120220	12022020	151331	93.36	12.418792	-57.036480	93.44	-0.400	0.760	0.630	93.42	-0.60	1.10	 	 	 	 	 	 	 	 	 	 	 	 	 	 	 	 	 	 	1581520411	3.91	7.24
12/02/2020 15:13:32	120220	12022020	151332	93.68	12.418795	-57.036460	93.72	-0.280	0.340	-0.040	93.72	-0.90	0.40	 	 	 	 	 	 	 	 	 	 	 	 	 	 	 	 	 	 	1581520412	4.17	7.72
12/02/2020 15:13:33	120220	12022020	151333	93.69	12.418798	-57.036438	93.66	-0.080	-0.550	-0.280	93.64	-1.80	0.20	 	 	 	 	 	 	 	 	 	 	 	 	 	 	 	 	 	 	1581520413	4.65	8.61
12/02/2020 15:13:34	120220	12022020	151334	93.33	12.418797	-57.036415	93.30	-0.030	-1.220	0.150	93.25	-2.50	0.50	 	 	 	 	 	 	 	 	 	 	 	 	 	 	 	 	 	 	1581520414	4.91	9.09
12/02/2020 15:13:35	120220	12022020	151335	92.97	12.418792	-57.036393	92.98	-0.090	-1.190	0.920	92.92	-2.50	1.30	 	 	 	 	 	 	 	 	 	 	 	 	 	 	 	 	 	 	1581520415	4.59	8.50
12/02/2020 15:13:36	120220	12022020	151336	92.78	12.418787	-57.036375	92.81	-0.010	-0.610	1.460	92.74	-2.00	1.90	 	 	 	 	 	 	 	 	 	 	 	 	 	 	 	 	 	 	1581520416	4.09	7.57
12/02/2020 15:13:37	120220	12022020	151337	92.60	12.418782	-57.036358	92.63	0.270	-0.040	1.710	92.57	-1.40	2.10	 	 	 	 	 	 	 	 	 	 	 	 	 	 	 	 	 	 	1581520417	3.79	7.02
12/02/2020 15:13:38	120220	12022020	151338	92.48	12.418782	-57.036338	92.53	0.480	0.140	1.620	92.47	-1.20	2.10	 	 	 	 	 	 	 	 	 	 	 	 	 	 	 	 	 	 	1581520418	4.07	7.54
12/02/2020 15:13:39	120220	12022020	151339	92.46	12.418782	-57.036318	92.53	0.320	0.070	1.380	92.47	-1.20	1.80	 	 	 	 	 	 	 	 	 	 	 	 	 	 	 	 	 	 	1581520419	4.46	8.26
12/02/2020 15:13:40	120220	12022020	151340	92.48	12.418783	-57.036297	92.54	-0.110	0.110	1.300	92.48	-1.20	1.70	 	 	 	 	 	 	 	 	 	 	 	 	 	 	 	 	 	 	1581520420	4.38	8.11
12/02/2020 15:13:41	120220	12022020	151341	92.45	12.418783	-57.036278	92.50	-0.390	0.190	1.340	92.45	-1.10	1.80	 	 	 	 	 	 	 	 	 	 	 	 	 	 	 	 	 	 	1581520421	4.08	7.56
12/02/2020 15:13:42	120220	12022020	151342	92.44	12.418782	-57.036258	92.51	-0.340	0.130	1.290	92.45	-1.20	1.70	 	 	 	 	 	 	 	 	 	 	 	 	 	 	 	 	 	 	1581520422	4.09	7.57
12/02/2020 15:13:43	120220	12022020	151343	92.45	12.418780	-57.036238	92.49	-0.190	-0.060	1.250	92.43	-1.40	1.70	 	 	 	 	 	 	 	 	 	 	 	 	 	 	 	 	 	 	1581520423	4.24	7.85
12/02/2020 15:13:44	120220	12022020	151344	92.30	12.418780	-57.036218	92.34	-0.130	-0.350	1.370	92.25	-1.60	1.80	 	 	 	 	 	 	 	 	 	 	 	 	 	 	 	 	 	 	1581520424	4.31	7.98
12/02/2020 15:13:45	120220	12022020	151345	92.03	12.418778	-57.036198	92.05	-0.070	-0.650	1.580	91.97	-1.90	2.00	 	 	 	 	 	 	 	 	 	 	 	 	 	 	 	 	 	 	1581520425	4.36	8.07
12/02/2020 15:13:46	120220	12022020	151346	91.80	12.418778	-57.036177	91.85	0.130	-0.930	1.590	91.78	-2.20	2.00	 	 	 	 	 	 	 	 	 	 	 	 	 	 	 	 	 	 	1581520426	4.47	8.28
12/02/2020 15:13:47	120220	12022020	151347	91.85	12.418780	-57.036155	91.96	0.380	-1.060	1.240	91.90	-2.40	1.70	 	 	 	 	 	 	 	 	 	 	 	 	 	 	 	 	 	 	1581520427	4.68	8.67
12/02/2020 15:13:48	120220	12022020	151348	92.08	12.418783	-57.036132	92.18	0.490	-0.830	0.860	92.11	-2.20	1.30	 	 	 	 	 	 	 	 	 	 	 	 	 	 	 	 	 	 	1581520428	4.69	8.69
12/02/2020 15:13:49	120220	12022020	151349	92.12	12.418783	-57.036112	92.17	0.290	-0.040	0.880	92.10	-1.40	1.30	 	 	 	 	 	 	 	 	 	 	 	 	 	 	 	 	 	 	1581520429	4.29	7.95
12/02/2020 15:13:50	120220	12022020	151350	91.95	12.418780	-57.036095	91.99	-0.210	1.070	1.220	91.91	-0.30	1.60	 	 	 	 	 	 	 	 	 	 	 	 	 	 	 	 	 	 	1581520430	3.64	6.74
12/02/2020 15:13:51	120220	12022020	151351	91.79	12.418778	-57.036080	91.85	-0.720	1.670	1.390	91.79	0.30	1.80	 	 	 	 	 	 	 	 	 	 	 	 	 	 	 	 	 	 	1581520431	3.28	6.07
12/02/2020 15:13:52	120220	12022020	151352	91.88	12.418778	-57.036062	91.97	-0.860	1.060	1.050	91.93	-0.20	1.50	 	 	 	 	 	 	 	 	 	 	 	 	 	 	 	 	 	 	1581520432	3.78	7.00
12/02/2020 15:13:53	120220	12022020	151353	92.02	12.418780	-57.036038	92.06	-0.450	-0.590	0.600	92.01	-1.80	1.10	 	 	 	 	 	 	 	 	 	 	 	 	 	 	 	 	 	 	1581520433	4.98	9.22
12/02/2020 15:13:54	120220	12022020	151354	91.82	12.418782	-57.036012	91.82	0.270	-2.150	0.580	91.75	-3.40	1.00	 	 	 	 	 	 	 	 	 	 	 	 	 	 	 	 	 	 	1581520434	5.79	10.72
12/02/2020 15:13:55	120220	12022020	151355	91.52	12.418782	-57.035985	91.53	0.750	-2.410	0.870	91.47	-3.70	1.30	 	 	 	 	 	 	 	 	 	 	 	 	 	 	 	 	 	 	1581520435	5.45	10.09
12/02/2020 15:13:56	120220	12022020	151356	91.34	12.418782	-57.035967	91.37	0.730	-1.150	1.020	91.32	-2.60	1.50	 	 	 	 	 	 	 	 	 	 	 	 	 	 	 	 	 	 	1581520436	4.09	7.57
12/02/2020 15:13:57	120220	12022020	151357	91.28	12.418782	-57.035952	91.33	0.350	0.550	0.910	91.28	-0.90	1.40	 	 	 	 	 	 	 	 	 	 	 	 	 	 	 	 	 	 	1581520437	2.95	5.46
12/02/2020 15:13:58	120220	12022020	151358	91.31	12.418783	-57.035938	91.39	-0.060	1.330	0.690	91.34	-0.00	1.10	 	 	 	 	 	 	 	 	 	 	 	 	 	 	 	 	 	 	1581520438	3.14	5.82
12/02/2020 15:13:59	120220	12022020	151359	91.42	12.418785	-57.035917	91.49	-0.300	0.890	0.750	91.43	-0.40	1.20	 	 	 	 	 	 	 	 	 	 	 	 	 	 	 	 	 	 	1581520439	4.28	7.93
12/02/2020 15:14:00	120220	12022020	151400	91.42	12.418783	-57.035893	91.50	-0.380	0.110	1.080	91.41	-1.20	1.50	 	 	 	 	 	 	 	 	 	 	 	 	 	 	 	 	 	 	1581520440	5.13	9.50
12/02/2020 15:14:01	120220	12022020	151401	91.35	12.418783	-57.035870	91.44	-0.470	-0.190	1.320	91.34	-1.50	1.70	 	 	 	 	 	 	 	 	 	 	 	 	 	 	 	 	 	 	1581520441	4.85	8.98
12/02/2020 15:14:02	120220	12022020	151402	91.31	12.418782	-57.035852	91.41	-0.570	-0.190	1.570	91.30	-1.50	2.00	1017.10	26.70	26.70	20.40	20.50	559.0	68.0	68.0	439.0	28.3	350.00	12.70	81.00	10.60	46453	11122.0	27.4	27.4	1581520442	4.10	7.59
12/02/2020 15:14:03	120220	12022020	151403	91.22	12.418778	-57.035832	91.31	-0.430	-0.520	1.970	91.19	-1.80	2.40	 	 	 	 	 	 	 	 	 	 	 	 	 	 	 	 	 	 	1581520443	4.09	7.57
12/02/2020 15:14:04	120220	12022020	151404	90.96	12.418775	-57.035810	91.02	0.020	-1.120	2.360	90.88	-2.40	2.80	 	 	 	 	 	 	 	 	 	 	 	 	 	 	 	 	 	 	1581520444	4.72	8.74
12/02/2020 15:14:05	120220	12022020	151405	90.62	12.418773	-57.035787	90.68	0.520	-1.310	2.270	90.62	-2.60	2.70	 	 	 	 	 	 	 	 	 	 	 	 	 	 	 	 	 	 	1581520445	4.98	9.22
12/02/2020 15:14:06	120220	12022020	151406	90.48	12.418777	-57.035765	90.58	0.770	-0.750	1.660	90.49	-2.10	2.10	 	 	 	 	 	 	 	 	 	 	 	 	 	 	 	 	 	 	1581520446	4.54	8.41
12/02/2020 15:14:07	120220	12022020	151407	90.60	12.418783	-57.035747	90.71	0.680	0.110	0.910	90.65	-1.30	1.40	 	 	 	 	 	 	 	 	 	 	 	 	 	 	 	 	 	 	1581520447	4.13	7.65
12/02/2020 15:14:08	120220	12022020	151408	90.91	12.418790	-57.035728	91.03	0.270	0.700	0.270	90.97	-0.70	0.70	 	 	 	 	 	 	 	 	 	 	 	 	 	 	 	 	 	 	1581520448	4.10	7.59
12/02/2020 15:14:09	120220	12022020	151409	91.28	12.418793	-57.035708	91.40	-0.290	0.740	-0.120	91.35	-0.60	0.30	 	 	 	 	 	 	 	 	 	 	 	 	 	 	 	 	 	 	1581520449	4.23	7.83
12/02/2020 15:14:10	120220	12022020	151410	91.50	12.418793	-57.035687	91.59	-0.680	0.300	0.050	91.50	-1.00	0.40	 	 	 	 	 	 	 	 	 	 	 	 	 	 	 	 	 	 	1581520450	4.53	8.39
12/02/2020 15:14:11	120220	12022020	151411	91.35	12.418790	-57.035665	91.41	-0.660	-0.160	0.740	91.29	-1.50	1.10	 	 	 	 	 	 	 	 	 	 	 	 	 	 	 	 	 	 	1581520451	4.78	8.85
12/02/2020 15:14:12	120220	12022020	151412	91.08	12.418785	-57.035643	91.17	-0.320	-0.350	1.350	91.04	-1.70	1.70	 	 	 	 	 	 	 	 	 	 	 	 	 	 	 	 	 	 	1581520452	4.58	8.48
12/02/2020 15:14:13	120220	12022020	151413	90.91	12.418785	-57.035623	91.01	0.130	-0.600	1.600	90.90	-1.90	2.00	 	 	 	 	 	 	 	 	 	 	 	 	 	 	 	 	 	 	1581520453	4.35	8.06
12/02/2020 15:14:14	120220	12022020	151414	90.93	12.418787	-57.035602	91.06	0.420	-0.990	1.560	90.96	-2.30	2.00	 	 	 	 	 	 	 	 	 	 	 	 	 	 	 	 	 	 	1581520454	4.67	8.65
12/02/2020 15:14:15	120220	12022020	151415	91.15	12.418790	-57.035578	91.30	0.400	-1.170	1.460	91.21	-2.50	1.90	 	 	 	 	 	 	 	 	 	 	 	 	 	 	 	 	 	 	1581520455	4.90	9.07
12/02/2020 15:14:16	120220	12022020	151416	91.48	12.418790	-57.035557	91.61	0.160	-0.850	1.440	91.54	-2.20	1.90	 	 	 	 	 	 	 	 	 	 	 	 	 	 	 	 	 	 	1581520456	4.66	8.63
12/02/2020 15:14:17	120220	12022020	151417	91.67	12.418788	-57.035537	91.76	-0.080	-0.040	1.520	91.68	-1.40	1.90	 	 	 	 	 	 	 	 	 	 	 	 	 	 	 	 	 	 	1581520457	4.29	7.95
12/02/2020 15:14:18	120220	12022020	151418	91.64	12.418787	-57.035518	91.70	-0.280	0.930	1.540	91.62	-0.50	2.00	 	 	 	 	 	 	 	 	 	 	 	 	 	 	 	 	 	 	1581520458	3.89	7.20
12/02/2020 15:14:19	120220	12022020	151419	91.48	12.418787	-57.035500	91.52	-0.430	1.400	1.370	91.43	0.00	1.80	 	 	 	 	 	 	 	 	 	 	 	 	 	 	 	 	 	 	1581520459	3.65	6.76
12/02/2020 15:14:20	120220	12022020	151420	91.35	12.418790	-57.035482	91.41	-0.330	0.790	0.880	91.35	-0.50	1.30	 	 	 	 	 	 	 	 	 	 	 	 	 	 	 	 	 	 	1581520460	4.25	7.87
12/02/2020 15:14:21	120220	12022020	151421	91.53	12.418795	-57.035457	91.64	0.040	-0.590	0.130	91.59	-1.90	0.60	 	 	 	 	 	 	 	 	 	 	 	 	 	 	 	 	 	 	1581520461	5.39	9.98
12/02/2020 15:14:22	120220	12022020	151422	91.85	12.418802	-57.035430	91.94	0.460	-1.740	-0.420	91.89	-3.00	0.00	 	 	 	 	 	 	 	 	 	 	 	 	 	 	 	 	 	 	1581520462	5.85	10.83
12/02/2020 15:14:23	120220	12022020	151423	91.92	12.418805	-57.035405	91.96	0.600	-1.840	-0.380	91.90	-3.20	0.00	 	 	 	 	 	 	 	 	 	 	 	 	 	 	 	 	 	 	1581520463	5.31	9.83
12/02/2020 15:14:24	120220	12022020	151424	91.70	12.418805	-57.035385	91.73	0.310	-0.770	0.330	91.64	-2.20	0.70	 	 	 	 	 	 	 	 	 	 	 	 	 	 	 	 	 	 	1581520464	4.17	7.72
12/02/2020 15:14:25	120220	12022020	151425	91.48	12.418800	-57.035370	91.57	-0.160	0.550	1.260	91.47	-0.90	1.60	 	 	 	 	 	 	 	 	 	 	 	 	 	 	 	 	 	 	1581520465	3.41	6.32
12/02/2020 15:14:26	120220	12022020	151426	91.60	12.418795	-57.035353	91.77	-0.420	1.130	1.690	91.68	-0.20	2.10	 	 	 	 	 	 	 	 	 	 	 	 	 	 	 	 	 	 	1581520466	3.61	6.69
12/02/2020 15:14:27	120220	12022020	151427	91.98	12.418795	-57.035332	92.12	-0.340	0.690	1.660	92.04	-0.60	2.10	 	 	 	 	 	 	 	 	 	 	 	 	 	 	 	 	 	 	1581520467	4.36	8.07
12/02/2020 15:14:28	120220	12022020	151428	92.05	12.418795	-57.035307	92.09	-0.050	-0.360	1.680	91.99	-1.70	2.10	 	 	 	 	 	 	 	 	 	 	 	 	 	 	 	 	 	 	1581520468	5.26	9.74
12/02/2020 15:14:29	120220	12022020	151429	91.70	12.418797	-57.035282	91.74	0.090	-1.070	1.960	91.63	-2.40	2.40	 	 	 	 	 	 	 	 	 	 	 	 	 	 	 	 	 	 	1581520469	5.57	10.32
12/02/2020 15:14:30	120220	12022020	151430	91.56	12.418797	-57.035258	91.70	-0.070	-0.750	2.110	91.60	-2.10	2.50	 	 	 	 	 	 	 	 	 	 	 	 	 	 	 	 	 	 	1581520470	4.79	8.87
12/02/2020 15:14:31	120220	12022020	151431	91.91	12.418797	-57.035240	92.07	-0.270	-0.030	1.800	91.91	-1.40	2.30	 	 	 	 	 	 	 	 	 	 	 	 	 	 	 	 	 	 	1581520471	3.74	6.93
12/02/2020 15:14:32	120220	12022020	151432	92.24	12.418798	-57.035223	92.34	-0.170	0.140	1.260	92.28	-1.20	1.70	 	 	 	 	 	 	 	 	 	 	 	 	 	 	 	 	 	 	1581520472	3.84	7.11
12/02/2020 15:14:33	120220	12022020	151433	92.31	12.418802	-57.035200	92.37	0.190	-0.200	0.870	92.31	-1.50	1.30	 	 	 	 	 	 	 	 	 	 	 	 	 	 	 	 	 	 	1581520473	4.67	8.65
12/02/2020 15:14:34	120220	12022020	151434	92.16	12.418803	-57.035177	92.18	0.550	-0.490	0.690	92.12	-1.80	1.10	 	 	 	 	 	 	 	 	 	 	 	 	 	 	 	 	 	 	1581520474	5.09	9.43
12/02/2020 15:14:35	120220	12022020	151435	91.98	12.418805	-57.035153	92.02	0.640	-0.410	0.520	91.97	-1.80	1.00	 	 	 	 	 	 	 	 	 	 	 	 	 	 	 	 	 	 	1581520475	4.88	9.04
12/02/2020 15:14:36	120220	12022020	151436	92.04	12.418810	-57.035133	92.13	0.370	-0.170	0.280	92.09	-1.50	0.70	 	 	 	 	 	 	 	 	 	 	 	 	 	 	 	 	 	 	1581520476	4.56	8.45
12/02/2020 15:14:37	120220	12022020	151437	92.37	12.418813	-57.035112	92.48	-0.130	0.040	0.200	92.45	-1.30	0.60	 	 	 	 	 	 	 	 	 	 	 	 	 	 	 	 	 	 	1581520477	4.44	8.22
12/02/2020 15:14:38	120220	12022020	151438	92.71	12.418813	-57.035092	92.80	-0.620	0.240	0.420	92.76	-1.10	0.80	 	 	 	 	 	 	 	 	 	 	 	 	 	 	 	 	 	 	1581520478	4.28	7.93
12/02/2020 15:14:39	120220	12022020	151439	92.80	12.418810	-57.035072	92.85	-0.800	0.280	0.910	92.77	-1.10	1.30	 	 	 	 	 	 	 	 	 	 	 	 	 	 	 	 	 	 	1581520479	4.20	7.78
12/02/2020 15:14:40	120220	12022020	151440	92.67	12.418807	-57.035052	92.74	-0.490	-0.160	1.510	92.65	-1.50	1.90	 	 	 	 	 	 	 	 	 	 	 	 	 	 	 	 	 	 	1581520480	4.51	8.35
12/02/2020 15:14:41	120220	12022020	151441	92.68	12.418803	-57.035027	92.79	0.190	-0.960	1.860	92.70	-2.30	2.30	 	 	 	 	 	 	 	 	 	 	 	 	 	 	 	 	 	 	1581520481	5.13	9.50
12/02/2020 15:14:42	120220	12022020	151442	92.81	12.418802	-57.035002	92.90	0.740	-1.440	1.850	92.82	-2.80	2.30	 	 	 	 	 	 	 	 	 	 	 	 	 	 	 	 	 	 	1581520482	5.48	10.15
12/02/2020 15:14:43	120220	12022020	151443	92.81	12.418803	-57.034978	92.85	0.750	-0.950	1.680	92.79	-2.30	2.10	 	 	 	 	 	 	 	 	 	 	 	 	 	 	 	 	 	 	1581520483	5.01	9.28
12/02/2020 15:14:44	120220	12022020	151444	92.69	12.418807	-57.034958	92.74	0.230	0.380	1.380	92.68	-1.00	1.80	 	 	 	 	 	 	 	 	 	 	 	 	 	 	 	 	 	 	1581520484	3.95	7.32
12/02/2020 15:14:45	120220	12022020	151445	92.77	12.418810	-57.034943	92.85	-0.430	1.410	0.780	92.82	0.00	1.30	 	 	 	 	 	 	 	 	 	 	 	 	 	 	 	 	 	 	1581520485	3.37	6.24
12/02/2020 15:14:46	120220	12022020	151446	93.13	12.418815	-57.034925	93.20	-0.700	1.100	0.050	93.20	-0.20	0.50	 	 	 	 	 	 	 	 	 	 	 	 	 	 	 	 	 	 	1581520486	4.03	7.46
12/02/2020 15:14:47	120220	12022020	151447	93.41	12.418818	-57.034900	93.43	-0.440	-0.210	-0.400	93.42	-1.50	0.10	 	 	 	 	 	 	 	 	 	 	 	 	 	 	 	 	 	 	1581520487	5.28	9.78
12/02/2020 15:14:48	120220	12022020	151448	93.32	12.418820	-57.034873	93.30	0.080	-1.400	-0.190	93.27	-2.70	0.20	 	 	 	 	 	 	 	 	 	 	 	 	 	 	 	 	 	 	1581520488	5.86	10.85
12/02/2020 15:14:49	120220	12022020	151449	93.02	12.418817	-57.034848	93.02	0.440	-1.520	0.500	92.97	-2.90	0.90	 	 	 	 	 	 	 	 	 	 	 	 	 	 	 	 	 	 	1581520489	5.35	9.91
12/02/2020 15:14:50	120220	12022020	151450	92.85	12.418813	-57.034828	92.90	0.430	-0.630	1.050	92.85	-2.00	1.50	 	 	 	 	 	 	 	 	 	 	 	 	 	 	 	 	 	 	1581520490	4.30	7.96
12/02/2020 15:14:51	120220	12022020	151451	92.98	12.418812	-57.034812	93.07	0.050	0.540	1.230	93.03	-0.90	1.70	 	 	 	 	 	 	 	 	 	 	 	 	 	 	 	 	 	 	1581520491	3.45	6.39
12/02/2020 15:14:52	120220	12022020	151452	93.27	12.418812	-57.034795	93.35	-0.380	1.040	1.290	93.33	-0.30	1.70	 	 	 	 	 	 	 	 	 	 	 	 	 	 	 	 	 	 	1581520492	3.42	6.33
12/02/2020 15:14:53	120220	12022020	151453	93.49	12.418813	-57.034775	93.54	-0.440	0.350	1.210	93.52	-0.90	1.70	 	 	 	 	 	 	 	 	 	 	 	 	 	 	 	 	 	 	1581520493	4.28	7.93
12/02/2020 15:14:54	120220	12022020	151454	93.47	12.418815	-57.034748	93.47	0.040	-1.080	1.170	93.43	-2.30	1.60	 	 	 	 	 	 	 	 	 	 	 	 	 	 	 	 	 	 	1581520494	5.56	10.30
12/02/2020 15:14:55	120220	12022020	151455	93.21	12.418815	-57.034720	93.22	0.640	-1.960	1.480	93.21	-3.30	1.90	 	 	 	 	 	 	 	 	 	 	 	 	 	 	 	 	 	 	1581520495	6.08	11.26
12/02/2020 15:14:56	120220	12022020	151456	93.23	12.418813	-57.034695	93.31	0.750	-1.250	1.660	93.29	-2.60	2.10	 	 	 	 	 	 	 	 	 	 	 	 	 	 	 	 	 	 	1581520496	5.25	9.72
12/02/2020 15:14:57	120220	12022020	151457	93.67	12.418812	-57.034678	93.78	0.130	0.630	1.450	93.77	-0.80	1.90	 	 	 	 	 	 	 	 	 	 	 	 	 	 	 	 	 	 	1581520497	3.46	6.41
12/02/2020 15:14:58	120220	12022020	151458	94.07	12.418813	-57.034667	94.12	-0.770	1.960	1.070	94.10	0.60	1.50	 	 	 	 	 	 	 	 	 	 	 	 	 	 	 	 	 	 	1581520498	2.58	4.78
12/02/2020 15:14:59	120220	12022020	151459	94.11	12.418815	-57.034650	94.12	-1.180	1.560	0.750	94.10	0.30	1.20	 	 	 	 	 	 	 	 	 	 	 	 	 	 	 	 	 	 	1581520499	3.52	6.52
12/02/2020 15:15:00	120220	12022020	151500	93.96	12.418817	-57.034625	93.95	-0.770	-0.140	0.590	93.93	-1.40	1.00	 	 	 	 	 	 	 	 	 	 	 	 	 	 	 	 	 	 	1581520500	5.20	9.63
12/02/2020 15:15:01	120220	12022020	151501	93.86	12.418815	-57.034597	93.87	0.100	-1.690	0.450	93.87	-3.00	0.90	 	 	 	 	 	 	 	 	 	 	 	 	 	 	 	 	 	 	1581520501	6.01	11.13
12/02/2020 15:15:02	120220	12022020	151502	94.05	12.418817	-57.034572	94.09	0.760	-2.090	0.060	94.11	-3.40	0.50	1017.10	26.60	26.70	20.70	20.80	547.0	69.0	70.0	440.0	28.4	352.00	13.20	82.00	10.90	45733	11342.0	27.4	27.4	1581520502	5.53	10.24
12/02/2020 15:15:03	120220	12022020	151503	94.36	12.418820	-57.034550	94.38	0.880	-1.270	-0.300	94.41	-2.70	0.20	 	 	 	 	 	 	 	 	 	 	 	 	 	 	 	 	 	 	1581520503	4.41	8.17
12/02/2020 15:15:04	120220	12022020	151504	94.45	12.418822	-57.034533	94.42	0.560	-0.010	-0.190	94.43	-1.40	0.20	 	 	 	 	 	 	 	 	 	 	 	 	 	 	 	 	 	 	1581520504	3.54	6.56
12/02/2020 15:15:05	120220	12022020	151505	94.26	12.418822	-57.034517	94.21	0.080	0.830	0.390	94.21	-0.50	0.80	 	 	 	 	 	 	 	 	 	 	 	 	 	 	 	 	 	 	1581520505	3.50	6.48
12/02/2020 15:15:06	120220	12022020	151506	94.11	12.418818	-57.034498	94.11	-0.260	0.920	0.880	94.10	-0.40	1.30	 	 	 	 	 	 	 	 	 	 	 	 	 	 	 	 	 	 	1581520506	4.11	7.61
12/02/2020 15:15:07	120220	12022020	151507	94.15	12.418817	-57.034477	94.16	-0.300	0.370	1.130	94.16	-0.90	1.60	 	 	 	 	 	 	 	 	 	 	 	 	 	 	 	 	 	 	1581520507	4.72	8.74
12/02/2020 15:15:08	120220	12022020	151508	94.19	12.418815	-57.034452	94.19	-0.170	-0.330	1.240	94.19	-1.60	1.70	 	 	 	 	 	 	 	 	 	 	 	 	 	 	 	 	 	 	1581520508	5.08	9.41
12/02/2020 15:15:09	120220	12022020	151509	94.27	12.418815	-57.034428	94.29	-0.110	-0.680	1.240	94.27	-2.00	1.70	 	 	 	 	 	 	 	 	 	 	 	 	 	 	 	 	 	 	1581520509	4.98	9.22
12/02/2020 15:15:10	120220	12022020	151510	94.42	12.418815	-57.034407	94.45	-0.200	-0.540	1.390	94.44	-1.90	1.80	 	 	 	 	 	 	 	 	 	 	 	 	 	 	 	 	 	 	1581520510	4.47	8.28
12/02/2020 15:15:11	120220	12022020	151511	94.44	12.418813	-57.034388	94.46	-0.290	-0.120	1.710	94.42	-1.50	2.10	 	 	 	 	 	 	 	 	 	 	 	 	 	 	 	 	 	 	1581520511	4.00	7.41
12/02/2020 15:15:12	120220	12022020	151512	94.34	12.418810	-57.034370	94.36	-0.230	0.030	1.800	94.32	-1.30	2.20	 	 	 	 	 	 	 	 	 	 	 	 	 	 	 	 	 	 	1581520512	3.94	7.30
12/02/2020 15:15:13	120220	12022020	151513	94.18	12.418810	-57.034348	94.19	0.090	-0.510	1.640	94.13	-1.80	2.10	 	 	 	 	 	 	 	 	 	 	 	 	 	 	 	 	 	 	1581520513	4.53	8.39
12/02/2020 15:15:14	120220	12022020	151514	93.87	12.418808	-57.034323	93.85	0.570	-1.340	1.480	93.79	-2.60	1.90	 	 	 	 	 	 	 	 	 	 	 	 	 	 	 	 	 	 	1581520514	5.45	10.09
12/02/2020 15:15:15	120220	12022020	151515	93.51	12.418810	-57.034297	93.48	0.870	-1.300	1.200	93.44	-2.70	1.70	 	 	 	 	 	 	 	 	 	 	 	 	 	 	 	 	 	 	1581520515	5.61	10.39
12/02/2020 15:15:16	120220	12022020	151516	93.32	12.418813	-57.034275	93.32	0.640	0.020	0.630	93.32	-1.40	1.10	 	 	 	 	 	 	 	 	 	 	 	 	 	 	 	 	 	 	1581520516	4.51	8.35
12/02/2020 15:15:17	120220	12022020	151517	93.52	12.418820	-57.034260	93.57	-0.080	1.540	-0.160	93.61	0.10	0.30	 	 	 	 	 	 	 	 	 	 	 	 	 	 	 	 	 	 	1581520517	3.46	6.41
12/02/2020 15:15:18	120220	12022020	151518	94.07	12.418825	-57.034245	94.16	-0.840	2.010	-0.820	94.21	0.70	-0.40	 	 	 	 	 	 	 	 	 	 	 	 	 	 	 	 	 	 	1581520518	3.40	6.30
12/02/2020 15:15:19	120220	12022020	151519	94.68	12.418827	-57.034225	94.73	-1.130	1.030	-0.920	94.76	-0.20	-0.50	 	 	 	 	 	 	 	 	 	 	 	 	 	 	 	 	 	 	1581520519	4.18	7.74
12/02/2020 15:15:20	120220	12022020	151520	94.82	12.418823	-57.034200	94.77	-0.680	-0.920	-0.270	94.75	-2.10	0.10	 	 	 	 	 	 	 	 	 	 	 	 	 	 	 	 	 	 	1581520520	5.35	9.91
12/02/2020 15:15:21	120220	12022020	151521	94.20	12.418817	-57.034172	94.08	0.340	-2.670	1.030	94.20	-3.90	1.40	 	 	 	 	 	 	 	 	 	 	 	 	 	 	 	 	 	 	1581520521	6.16	11.41
12/02/2020 15:15:22	120220	12022020	151522	93.44	12.418810	-57.034145	93.42	1.240	-2.890	2.200	93.38	-4.20	2.60	 	 	 	 	 	 	 	 	 	 	 	 	 	 	 	 	 	 	1581520522	5.92	10.96
12/02/2020 15:15:23	120220	12022020	151523	93.46	12.418807	-57.034125	93.57	1.270	-1.330	2.820	93.46	-2.80	3.20	 	 	 	 	 	 	 	 	 	 	 	 	 	 	 	 	 	 	1581520523	4.36	8.07
12/02/2020 15:15:24	120220	12022020	151524	94.01	12.418805	-57.034110	94.13	0.430	0.670	2.880	94.10	-0.80	3.30	 	 	 	 	 	 	 	 	 	 	 	 	 	 	 	 	 	 	1581520524	3.02	5.59
12/02/2020 15:15:25	120220	12022020	151525	94.42	12.418805	-57.034095	94.51	-0.580	1.880	2.480	94.46	0.50	2.90	 	 	 	 	 	 	 	 	 	 	 	 	 	 	 	 	 	 	1581520525	3.05	5.65
12/02/2020 15:15:26	120220	12022020	151526	94.49	12.418805	-57.034078	94.52	-1.140	2.060	1.920	94.47	0.70	2.40	 	 	 	 	 	 	 	 	 	 	 	 	 	 	 	 	 	 	1581520526	3.82	7.07
12/02/2020 15:15:27	120220	12022020	151527	94.40	12.418807	-57.034057	94.44	-1.020	1.270	1.280	94.40	0.00	1.80	 	 	 	 	 	 	 	 	 	 	 	 	 	 	 	 	 	 	1581520527	4.51	8.35
12/02/2020 15:15:28	120220	12022020	151528	94.45	12.418808	-57.034032	94.49	-0.420	-0.280	0.460	94.47	-1.50	1.00	 	 	 	 	 	 	 	 	 	 	 	 	 	 	 	 	 	 	1581520528	5.23	9.69
12/02/2020 15:15:29	120220	12022020	151529	94.53	12.418812	-57.034005	94.54	0.260	-1.810	-0.350	94.53	-3.10	0.20	 	 	 	 	 	 	 	 	 	 	 	 	 	 	 	 	 	 	1581520529	5.77	10.69
12/02/2020 15:15:30	120220	12022020	151530	94.51	12.418817	-57.033978	94.48	0.700	-2.330	-0.830	94.49	-3.70	-0.40	 	 	 	 	 	 	 	 	 	 	 	 	 	 	 	 	 	 	1581520530	5.57	10.32
12/02/2020 15:15:31	120220	12022020	151531	94.44	12.418818	-57.033957	94.42	0.760	-1.540	-0.920	94.44	-2.90	-0.50	 	 	 	 	 	 	 	 	 	 	 	 	 	 	 	 	 	 	1581520531	4.55	8.43
12/02/2020 15:15:32	120220	12022020	151532	94.43	12.418820	-57.033940	94.42	0.540	-0.190	-0.720	94.43	-1.60	-0.30	 	 	 	 	 	 	 	 	 	 	 	 	 	 	 	 	 	 	1581520532	3.53	6.54
12/02/2020 15:15:33	120220	12022020	151533	94.40	12.418818	-57.033923	94.38	0.300	0.580	-0.220	94.38	-0.80	0.20	 	 	 	 	 	 	 	 	 	 	 	 	 	 	 	 	 	 	1581520533	3.55	6.57
12/02/2020 15:15:34	120220	12022020	151534	94.34	12.418817	-57.033903	94.34	0.080	0.530	0.580	94.33	-0.80	1.00	 	 	 	 	 	 	 	 	 	 	 	 	 	 	 	 	 	 	1581520534	4.49	8.32
12/02/2020 15:15:35	120220	12022020	151535	94.31	12.418812	-57.033878	94.35	-0.220	0.250	1.510	94.31	-1.10	1.90	 	 	 	 	 	 	 	 	 	 	 	 	 	 	 	 	 	 	1581520535	5.15	9.54
12/02/2020 15:15:36	120220	12022020	151536	94.33	12.418805	-57.033857	94.40	-0.580	0.280	2.210	94.35	-1.10	2.60	 	 	 	 	 	 	 	 	 	 	 	 	 	 	 	 	 	 	1581520536	5.00	9.26
12/02/2020 15:15:37	120220	12022020	151537	94.36	12.418800	-57.033837	94.43	-0.830	0.560	2.560	94.35	-0.80	3.00	 	 	 	 	 	 	 	 	 	 	 	 	 	 	 	 	 	 	1581520537	4.29	7.95
12/02/2020 15:15:38	120220	12022020	151538	94.22	12.418795	-57.033818	94.26	-0.680	0.470	2.670	94.17	-0.80	3.10	 	 	 	 	 	 	 	 	 	 	 	 	 	 	 	 	 	 	1581520538	3.94	7.30
12/02/2020 15:15:39	120220	12022020	151539	93.97	12.418795	-57.033797	94.03	-0.110	-0.270	2.380	93.94	-1.50	2.80	 	 	 	 	 	 	 	 	 	 	 	 	 	 	 	 	 	 	1581520539	4.46	8.26
12/02/2020 15:15:40	120220	12022020	151540	93.91	12.418798	-57.033773	93.97	0.520	-1.210	1.600	93.91	-2.50	2.10	 	 	 	 	 	 	 	 	 	 	 	 	 	 	 	 	 	 	1581520540	5.23	9.69
12/02/2020 15:15:41	120220	12022020	151541	93.96	12.418805	-57.033747	93.99	0.860	-1.830	0.790	93.96	-3.10	1.30	 	 	 	 	 	 	 	 	 	 	 	 	 	 	 	 	 	 	1581520541	5.49	10.17
12/02/2020 15:15:42	120220	12022020	151542	93.96	12.418808	-57.033723	93.97	0.890	-1.730	0.370	93.96	-3.10	0.80	 	 	 	 	 	 	 	 	 	 	 	 	 	 	 	 	 	 	1581520542	5.24	9.70
12/02/2020 15:15:43	120220	12022020	151543	93.94	12.418808	-57.033702	93.96	0.590	-0.610	0.230	93.95	-2.00	0.70	 	 	 	 	 	 	 	 	 	 	 	 	 	 	 	 	 	 	1581520543	4.58	8.48
12/02/2020 15:15:44	120220	12022020	151544	94.02	12.418808	-57.033685	94.05	-0.120	1.120	0.220	94.04	-0.30	0.60	 	 	 	 	 	 	 	 	 	 	 	 	 	 	 	 	 	 	1581520544	3.49	6.46
12/02/2020 15:15:45	120220	12022020	151545	94.18	12.418807	-57.033672	94.21	-0.970	2.250	0.350	94.18	0.90	0.80	 	 	 	 	 	 	 	 	 	 	 	 	 	 	 	 	 	 	1581520545	2.90	5.37
12/02/2020 15:15:46	120220	12022020	151546	94.34	12.418805	-57.033655	94.38	-1.370	1.750	0.520	94.36	0.50	0.90	 	 	 	 	 	 	 	 	 	 	 	 	 	 	 	 	 	 	1581520546	3.57	6.61
12/02/2020 15:15:47	120220	12022020	151547	94.30	12.418803	-57.033630	94.29	-0.850	-0.290	0.740	94.25	-1.50	1.10	 	 	 	 	 	 	 	 	 	 	 	 	 	 	 	 	 	 	1581520547	5.18	9.59
12/02/2020 15:15:48	120220	12022020	151548	93.96	12.418800	-57.033600	93.94	0.300	-2.390	1.220	93.89	-3.60	1.60	 	 	 	 	 	 	 	 	 	 	 	 	 	 	 	 	 	 	1581520548	6.44	11.93
12/02/2020 15:15:49	120220	12022020	151549	93.70	12.418797	-57.033572	93.74	1.190	-2.780	1.700	93.69	-4.10	2.10	 	 	 	 	 	 	 	 	 	 	 	 	 	 	 	 	 	 	1581520549	6.09	11.28
12/02/2020 15:15:50	120220	12022020	151550	93.80	12.418795	-57.033552	93.89	1.130	-1.160	1.720	93.87	-2.60	2.20	 	 	 	 	 	 	 	 	 	 	 	 	 	 	 	 	 	 	1581520550	4.14	7.67
12/02/2020 15:15:51	120220	12022020	151551	94.22	12.418797	-57.033540	94.34	0.300	1.000	1.260	94.33	-0.50	1.70	 	 	 	 	 	 	 	 	 	 	 	 	 	 	 	 	 	 	1581520551	2.54	4.70
12/02/2020 15:15:52	120220	12022020	151552	94.72	12.418800	-57.033527	94.82	-0.510	2.030	0.650	94.81	0.70	1.10	 	 	 	 	 	 	 	 	 	 	 	 	 	 	 	 	 	 	1581520552	2.63	4.87
12/02/2020 15:15:53	120220	12022020	151553	95.00	12.418802	-57.033508	95.04	-0.670	1.360	0.330	95.02	0.10	0.80	 	 	 	 	 	 	 	 	 	 	 	 	 	 	 	 	 	 	1581520553	3.95	7.32
12/02/2020 15:15:54	120220	12022020	151554	94.87	12.418800	-57.033483	94.84	-0.290	-0.360	0.470	94.80	-1.60	0.90	 	 	 	 	 	 	 	 	 	 	 	 	 	 	 	 	 	 	1581520554	5.41	10.02
12/02/2020 15:15:55	120220	12022020	151555	94.38	12.418797	-57.033455	94.32	0.150	-1.860	0.970	94.26	-3.10	1.40	 	 	 	 	 	 	 	 	 	 	 	 	 	 	 	 	 	 	1581520555	6.03	11.17
12/02/2020 15:15:56	120220	12022020	151556	93.78	12.418792	-57.033430	93.74	0.260	-1.920	1.550	93.67	-3.30	1.90	 	 	 	 	 	 	 	 	 	 	 	 	 	 	 	 	 	 	1581520556	5.41	10.02
12/02/2020 15:15:57	120220	12022020	151557	93.36	12.418788	-57.033412	93.37	-0.000	-0.530	1.720	93.32	-2.00	2.10	 	 	 	 	 	 	 	 	 	 	 	 	 	 	 	 	 	 	1581520557	3.79	7.02
12/02/2020 15:15:58	120220	12022020	151558	93.39	12.418790	-57.033398	93.48	-0.320	0.860	1.160	93.46	-0.50	1.60	 	 	 	 	 	 	 	 	 	 	 	 	 	 	 	 	 	 	1581520558	2.82	5.22
12/02/2020 15:15:59	120220	12022020	151559	93.84	12.418795	-57.033382	93.94	-0.390	0.980	0.260	93.84	-0.30	0.70	 	 	 	 	 	 	 	 	 	 	 	 	 	 	 	 	 	 	1581520559	3.64	6.74
12/02/2020 15:16:00	120220	12022020	151600	94.11	12.418798	-57.033360	94.13	-0.200	0.110	-0.080	94.11	-1.20	0.30	 	 	 	 	 	 	 	 	 	 	 	 	 	 	 	 	 	 	1581520560	4.89	9.06
12/02/2020 15:16:01	120220	12022020	151601	93.94	12.418795	-57.033333	93.92	0.080	-0.770	0.100	93.88	-2.10	0.50	 	 	 	 	 	 	 	 	 	 	 	 	 	 	 	 	 	 	1581520561	5.41	10.02
12/02/2020 15:16:02	120220	12022020	151602	93.57	12.418792	-57.033310	93.55	0.350	-0.990	0.510	93.50	-2.30	0.90	1017.00	26.60	26.60	20.70	20.70	531.0	70.0	70.0	439.0	28.3	350.00	13.50	82.00	11.20	45066	10635.0	27.5	27.5	1581520562	5.10	9.45
12/02/2020 15:16:03	120220	12022020	151603	93.21	12.418788	-57.033290	93.22	0.510	-0.590	0.950	93.16	-2.00	1.40	 	 	 	 	 	 	 	 	 	 	 	 	 	 	 	 	 	 	1581520563	4.40	8.15
12/02/2020 15:16:04	120220	12022020	151604	92.98	12.418788	-57.033272	93.01	0.490	0.030	1.110	92.94	-1.30	1.50	 	 	 	 	 	 	 	 	 	 	 	 	 	 	 	 	 	 	1581520564	3.93	7.28
12/02/2020 15:16:05	120220	12022020	151605	92.79	12.418790	-57.033253	92.80	0.290	0.440	1.000	92.74	-0.90	1.40	 	 	 	 	 	 	 	 	 	 	 	 	 	 	 	 	 	 	1581520565	3.90	7.22
12/02/2020 15:16:06	120220	12022020	151606	92.53	12.418792	-57.033233	92.55	-0.020	0.490	0.980	92.49	-0.80	1.40	 	 	 	 	 	 	 	 	 	 	 	 	 	 	 	 	 	 	1581520566	4.17	7.72
12/02/2020 15:16:07	120220	12022020	151607	92.41	12.418793	-57.033212	92.48	-0.390	0.150	1.050	92.42	-1.20	1.50	 	 	 	 	 	 	 	 	 	 	 	 	 	 	 	 	 	 	1581520567	4.39	8.13
12/02/2020 15:16:08	120220	12022020	151608	92.58	12.418793	-57.033190	92.70	-0.640	-0.540	1.080	92.64	-1.80	1.50	 	 	 	 	 	 	 	 	 	 	 	 	 	 	 	 	 	 	1581520568	4.67	8.65
12/02/2020 15:16:09	120220	12022020	151609	92.83	12.418790	-57.033167	92.92	-0.540	-1.160	1.270	92.84	-2.50	1.70	 	 	 	 	 	 	 	 	 	 	 	 	 	 	 	 	 	 	1581520569	4.99	9.24
12/02/2020 15:16:10	120220	12022020	151610	92.68	12.418783	-57.033143	92.72	-0.120	-1.310	1.850	92.60	-2.60	2.20	 	 	 	 	 	 	 	 	 	 	 	 	 	 	 	 	 	 	1581520570	5.02	9.30
12/02/2020 15:16:11	120220	12022020	151611	92.19	12.418778	-57.033122	92.22	0.360	-0.850	2.310	92.19	-2.20	2.70	 	 	 	 	 	 	 	 	 	 	 	 	 	 	 	 	 	 	1581520571	4.72	8.74
12/02/2020 15:16:12	120220	12022020	151612	91.87	12.418778	-57.033103	91.96	0.550	0.140	2.100	91.86	-1.30	2.50	 	 	 	 	 	 	 	 	 	 	 	 	 	 	 	 	 	 	1581520572	4.14	7.67
12/02/2020 15:16:13	120220	12022020	151613	92.02	12.418783	-57.033085	92.15	0.300	1.170	1.450	92.02	-0.20	1.90	 	 	 	 	 	 	 	 	 	 	 	 	 	 	 	 	 	 	1581520573	3.71	6.87
12/02/2020 15:16:14	120220	12022020	151614	92.40	12.418788	-57.033068	92.50	-0.100	1.320	0.600	92.46	0.00	1.10	 	 	 	 	 	 	 	 	 	 	 	 	 	 	 	 	 	 	1581520574	3.82	7.07
12/02/2020 15:16:15	120220	12022020	151615	92.55	12.418795	-57.033047	92.58	-0.150	0.120	-0.040	92.54	-1.10	0.40	 	 	 	 	 	 	 	 	 	 	 	 	 	 	 	 	 	 	1581520575	4.80	8.89
12/02/2020 15:16:16	120220	12022020	151616	92.51	12.418798	-57.033020	92.57	0.150	-1.490	-0.190	92.53	-2.70	0.20	 	 	 	 	 	 	 	 	 	 	 	 	 	 	 	 	 	 	1581520576	5.89	10.91
12/02/2020 15:16:17	120220	12022020	151617	92.69	12.418797	-57.032992	92.78	0.460	-2.090	0.080	92.74	-3.40	0.50	 	 	 	 	 	 	 	 	 	 	 	 	 	 	 	 	 	 	1581520577	5.80	10.74
12/02/2020 15:16:18	120220	12022020	151618	92.89	12.418793	-57.032970	92.96	0.420	-1.130	0.710	92.90	-2.60	1.10	 	 	 	 	 	 	 	 	 	 	 	 	 	 	 	 	 	 	1581520578	4.52	8.37
12/02/2020 15:16:19	120220	12022020	151619	92.79	12.418790	-57.032957	92.82	0.000	0.520	1.370	92.74	-0.90	1.80	 	 	 	 	 	 	 	 	 	 	 	 	 	 	 	 	 	 	1581520579	3.20	5.93
12/02/2020 15:16:20	120220	12022020	151620	92.58	12.418788	-57.032943	92.63	-0.580	1.620	1.670	92.55	0.20	2.10	 	 	 	 	 	 	 	 	 	 	 	 	 	 	 	 	 	 	1581520580	2.89	5.35
12/02/2020 15:16:21	120220	12022020	151621	92.59	12.418788	-57.032925	92.70	-0.930	1.360	1.550	92.64	0.10	2.00	 	 	 	 	 	 	 	 	 	 	 	 	 	 	 	 	 	 	1581520581	3.64	6.74
12/02/2020 15:16:22	120220	12022020	151622	92.90	12.418788	-57.032902	93.03	-0.700	-0.030	1.240	92.99	-1.30	1.70	 	 	 	 	 	 	 	 	 	 	 	 	 	 	 	 	 	 	1581520582	4.90	9.07
12/02/2020 15:16:23	120220	12022020	151623	93.32	12.418790	-57.032875	93.43	-0.040	-1.540	0.810	93.38	-2.80	1.30	 	 	 	 	 	 	 	 	 	 	 	 	 	 	 	 	 	 	1581520583	5.72	10.59
12/02/2020 15:16:24	120220	12022020	151624	93.50	12.418792	-57.032848	93.52	0.570	-2.100	0.600	93.48	-3.40	1.00	 	 	 	 	 	 	 	 	 	 	 	 	 	 	 	 	 	 	1581520584	5.57	10.32
12/02/2020 15:16:25	120220	12022020	151625	93.26	12.418792	-57.032828	93.23	0.720	-1.400	0.970	93.18	-2.80	1.40	 	 	 	 	 	 	 	 	 	 	 	 	 	 	 	 	 	 	1581520585	4.52	8.37
12/02/2020 15:16:26	120220	12022020	151626	92.87	12.418788	-57.032812	92.89	0.450	-0.060	1.600	92.81	-1.50	2.00	 	 	 	 	 	 	 	 	 	 	 	 	 	 	 	 	 	 	1581520586	3.54	6.56
12/02/2020 15:16:27	120220	12022020	151627	92.60	12.418787	-57.032795	92.65	0.130	0.860	1.760	92.58	-0.50	2.20	 	 	 	 	 	 	 	 	 	 	 	 	 	 	 	 	 	 	1581520587	3.42	6.33
12/02/2020 15:16:28	120220	12022020	151628	92.56	12.418788	-57.032775	92.62	-0.040	0.980	1.290	92.58	-0.40	1.80	 	 	 	 	 	 	 	 	 	 	 	 	 	 	 	 	 	 	1581520588	4.16	7.70
12/02/2020 15:16:29	120220	12022020	151629	92.71	12.418792	-57.032753	92.79	-0.130	0.610	0.640	92.76	-0.70	1.10	 	 	 	 	 	 	 	 	 	 	 	 	 	 	 	 	 	 	1581520589	4.81	8.91
12/02/2020 15:16:30	120220	12022020	151630	92.98	12.418797	-57.032730	93.06	-0.240	0.120	0.030	93.04	-1.20	0.50	 	 	 	 	 	 	 	 	 	 	 	 	 	 	 	 	 	 	1581520590	4.92	9.11
12/02/2020 15:16:31	120220	12022020	151631	93.28	12.418800	-57.032708	93.34	-0.400	-0.220	-0.460	93.32	-1.60	-0.00	 	 	 	 	 	 	 	 	 	 	 	 	 	 	 	 	 	 	1581520591	4.67	8.65
12/02/2020 15:16:32	120220	12022020	151632	93.36	12.418800	-57.032688	93.38	-0.530	-0.460	-0.330	93.32	-1.80	0.10	 	 	 	 	 	 	 	 	 	 	 	 	 	 	 	 	 	 	1581520592	4.24	7.85
12/02/2020 15:16:33	120220	12022020	151633	93.07	12.418797	-57.032668	93.07	-0.360	-0.870	0.540	92.99	-2.20	0.90	 	 	 	 	 	 	 	 	 	 	 	 	 	 	 	 	 	 	1581520593	4.32	8.00
12/02/2020 15:16:34	120220	12022020	151634	92.73	12.418790	-57.032647	92.75	0.220	-1.320	1.320	92.68	-2.60	1.70	 	 	 	 	 	 	 	 	 	 	 	 	 	 	 	 	 	 	1581520594	4.82	8.93
12/02/2020 15:16:35	120220	12022020	151635	92.46	12.418788	-57.032623	92.50	0.830	-1.380	1.790	92.41	-2.70	2.20	 	 	 	 	 	 	 	 	 	 	 	 	 	 	 	 	 	 	1581520595	4.97	9.20
12/02/2020 15:16:36	120220	12022020	151636	92.29	12.418787	-57.032602	92.35	0.850	-0.720	2.060	92.28	-2.10	2.50	 	 	 	 	 	 	 	 	 	 	 	 	 	 	 	 	 	 	1581520596	4.71	8.72
12/02/2020 15:16:37	120220	12022020	151637	92.34	12.418787	-57.032582	92.46	0.170	0.500	2.280	92.34	-0.90	2.70	 	 	 	 	 	 	 	 	 	 	 	 	 	 	 	 	 	 	1581520597	3.91	7.24
12/02/2020 15:16:38	120220	12022020	151638	92.52	12.418785	-57.032567	92.62	-0.660	1.530	2.340	92.54	0.20	2.80	 	 	 	 	 	 	 	 	 	 	 	 	 	 	 	 	 	 	1581520598	3.32	6.15
12/02/2020 15:16:39	120220	12022020	151639	92.59	12.418785	-57.032550	92.67	-1.020	1.530	2.160	92.60	0.20	2.60	 	 	 	 	 	 	 	 	 	 	 	 	 	 	 	 	 	 	1581520599	3.59	6.65
12/02/2020 15:16:40	120220	12022020	151640	92.68	12.418785	-57.032528	92.75	-0.850	0.580	1.650	92.70	-0.70	2.10	 	 	 	 	 	 	 	 	 	 	 	 	 	 	 	 	 	 	1581520600	4.59	8.50
12/02/2020 15:16:41	120220	12022020	151641	92.81	12.418787	-57.032503	92.88	-0.390	-0.610	1.180	92.84	-1.90	1.60	 	 	 	 	 	 	 	 	 	 	 	 	 	 	 	 	 	 	1581520601	5.10	9.45
12/02/2020 15:16:42	120220	12022020	151642	92.88	12.418787	-57.032480	92.94	0.220	-1.590	0.910	92.87	-2.90	1.40	 	 	 	 	 	 	 	 	 	 	 	 	 	 	 	 	 	 	1581520602	5.05	9.35
12/02/2020 15:16:43	120220	12022020	151643	92.75	12.418787	-57.032457	92.76	0.920	-2.130	0.750	92.70	-3.40	1.20	 	 	 	 	 	 	 	 	 	 	 	 	 	 	 	 	 	 	1581520603	5.03	9.32
12/02/2020 15:16:44	120220	12022020	151644	92.51	12.418788	-57.032433	92.51	1.350	-1.790	0.700	92.47	-3.20	1.10	 	 	 	 	 	 	 	 	 	 	 	 	 	 	 	 	 	 	1581520604	4.92	9.11
12/02/2020 15:16:45	120220	12022020	151645	92.41	12.418790	-57.032413	92.45	1.040	-0.390	0.720	92.42	-1.80	1.20	 	 	 	 	 	 	 	 	 	 	 	 	 	 	 	 	 	 	1581520605	4.20	7.78
12/02/2020 15:16:46	120220	12022020	151646	92.62	12.418793	-57.032398	92.71	0.000	1.350	0.650	92.69	-0.10	1.10	 	 	 	 	 	 	 	 	 	 	 	 	 	 	 	 	 	 	1581520606	3.19	5.91
12/02/2020 15:16:47	120220	12022020	151647	92.97	12.418795	-57.032385	93.06	-1.070	2.180	0.580	93.04	0.80	1.00	 	 	 	 	 	 	 	 	 	 	 	 	 	 	 	 	 	 	1581520607	2.97	5.50
12/02/2020 15:16:48	120220	12022020	151648	93.21	12.418793	-57.032367	93.28	-1.440	1.450	0.750	93.24	0.20	1.20	 	 	 	 	 	 	 	 	 	 	 	 	 	 	 	 	 	 	1581520608	3.95	7.32
12/02/2020 15:16:49	120220	12022020	151649	93.29	12.418788	-57.032340	93.32	-0.940	-0.330	1.080	93.29	-1.60	1.50	 	 	 	 	 	 	 	 	 	 	 	 	 	 	 	 	 	 	1581520609	5.37	9.95
12/02/2020 15:16:50	120220	12022020	151650	93.34	12.418785	-57.032313	93.40	-0.100	-1.840	1.410	93.35	-3.10	1.80	 	 	 	 	 	 	 	 	 	 	 	 	 	 	 	 	 	 	1581520610	6.01	11.13
12/02/2020 15:16:51	120220	12022020	151651	93.38	12.418780	-57.032288	93.41	0.490	-2.000	1.710	93.37	-3.40	2.10	 	 	 	 	 	 	 	 	 	 	 	 	 	 	 	 	 	 	1581520611	5.30	9.82
12/02/2020 15:16:52	120220	12022020	151652	93.23	12.418778	-57.032270	93.22	0.610	-0.910	1.820	93.18	-2.30	2.30	 	 	 	 	 	 	 	 	 	 	 	 	 	 	 	 	 	 	1581520612	3.84	7.11
12/02/2020 15:16:53	120220	12022020	151653	92.97	12.418780	-57.032255	92.98	0.460	0.260	1.530	92.93	-1.20	2.00	 	 	 	 	 	 	 	 	 	 	 	 	 	 	 	 	 	 	1581520613	3.13	5.80
12/02/2020 15:16:54	120220	12022020	151654	92.88	12.418785	-57.032238	92.91	0.300	0.630	0.890	92.88	-0.70	1.40	 	 	 	 	 	 	 	 	 	 	 	 	 	 	 	 	 	 	1581520614	3.74	6.93
12/02/2020 15:16:55	120220	12022020	151655	93.01	12.418788	-57.032217	93.06	0.250	0.200	0.210	93.05	-1.10	0.70	 	 	 	 	 	 	 	 	 	 	 	 	 	 	 	 	 	 	1581520615	4.70	8.70
12/02/2020 15:16:56	120220	12022020	151656	93.24	12.418792	-57.032192	93.29	0.220	-0.370	-0.350	93.27	-1.70	0.10	 	 	 	 	 	 	 	 	 	 	 	 	 	 	 	 	 	 	1581520616	5.27	9.76
12/02/2020 15:16:57	120220	12022020	151657	93.30	12.418793	-57.032168	93.32	-0.010	-0.340	-0.410	93.27	-1.70	0.00	 	 	 	 	 	 	 	 	 	 	 	 	 	 	 	 	 	 	1581520617	4.98	9.22
12/02/2020 15:16:58	120220	12022020	151658	93.11	12.418793	-57.032150	93.11	-0.510	0.290	0.090	93.06	-1.10	0.50	 	 	 	 	 	 	 	 	 	 	 	 	 	 	 	 	 	 	1581520618	3.98	7.37
12/02/2020 15:16:59	120220	12022020	151659	92.90	12.418790	-57.032133	92.93	-1.000	0.730	0.660	92.86	-0.60	1.10	 	 	 	 	 	 	 	 	 	 	 	 	 	 	 	 	 	 	1581520619	3.44	6.37
12/02/2020 15:17:00	120220	12022020	151700	92.69	12.418787	-57.032115	92.72	-0.970	0.290	1.100	92.64	-1.00	1.50	 	 	 	 	 	 	 	 	 	 	 	 	 	 	 	 	 	 	1581520620	3.83	7.09
12/02/2020 15:17:01	120220	12022020	151701	92.42	12.418783	-57.032093	92.46	-0.260	-0.940	1.650	92.42	-2.20	2.10	 	 	 	 	 	 	 	 	 	 	 	 	 	 	 	 	 	 	1581520621	4.87	9.02
12/02/2020 15:17:02	120220	12022020	151702	92.23	12.418780	-57.032067	92.30	0.710	-2.000	2.050	92.22	-3.30	2.50	1017.10	26.60	26.60	20.10	20.20	546.0	67.0	68.0	439.0	28.3	350.00	13.70	81.00	11.50	46065	10736.0	27.5	27.4	1581520622	5.66	10.48
12/02/2020 15:17:03	120220	12022020	151703	92.24	12.418780	-57.032040	92.33	1.250	-1.900	2.040	92.24	-3.30	2.50	 	 	 	 	 	 	 	 	 	 	 	 	 	 	 	 	 	 	1581520623	5.38	9.96
12/02/2020 15:17:04	120220	12022020	151704	92.30	12.418780	-57.032022	92.38	1.060	-0.480	1.920	92.30	-1.90	2.40	 	 	 	 	 	 	 	 	 	 	 	 	 	 	 	 	 	 	1581520624	4.15	7.69
12/02/2020 15:17:05	120220	12022020	151705	92.30	12.418782	-57.032007	92.38	0.320	1.320	1.830	92.29	-0.10	2.30	 	 	 	 	 	 	 	 	 	 	 	 	 	 	 	 	 	 	1581520625	3.04	5.63
12/02/2020 15:17:06	120220	12022020	151706	92.32	12.418783	-57.031993	92.39	-0.580	2.270	1.530	92.33	0.90	2.00	 	 	 	 	 	 	 	 	 	 	 	 	 	 	 	 	 	 	1581520626	2.90	5.37
12/02/2020 15:17:07	120220	12022020	151707	92.40	12.418787	-57.031975	92.44	-1.070	1.570	0.900	92.42	0.30	1.40	 	 	 	 	 	 	 	 	 	 	 	 	 	 	 	 	 	 	1581520627	3.80	7.04
12/02/2020 15:17:08	120220	12022020	151708	92.48	12.418790	-57.031952	92.52	-0.800	-0.310	0.300	92.49	-1.50	0.80	 	 	 	 	 	 	 	 	 	 	 	 	 	 	 	 	 	 	1581520628	5.25	9.72
12/02/2020 15:17:09	120220	12022020	151709	92.47	12.418792	-57.031923	92.50	-0.040	-1.910	0.110	92.45	-3.20	0.60	 	 	 	 	 	 	 	 	 	 	 	 	 	 	 	 	 	 	1581520629	5.90	10.93
12/02/2020 15:17:10	120220	12022020	151710	92.30	12.418793	-57.031898	92.29	0.570	-2.240	0.260	92.25	-3.60	0.70	 	 	 	 	 	 	 	 	 	 	 	 	 	 	 	 	 	 	1581520630	5.25	9.72
12/02/2020 15:17:11	120220	12022020	151711	92.11	12.418793	-57.031878	92.13	0.640	-1.430	0.490	92.09	-2.80	0.90	 	 	 	 	 	 	 	 	 	 	 	 	 	 	 	 	 	 	1581520631	4.15	7.69
12/02/2020 15:17:12	120220	12022020	151712	92.10	12.418793	-57.031862	92.16	0.270	-0.290	0.830	92.12	-1.70	1.20	 	 	 	 	 	 	 	 	 	 	 	 	 	 	 	 	 	 	1581520632	3.48	6.44
12/02/2020 15:17:13	120220	12022020	151713	92.21	12.418790	-57.031845	92.29	-0.150	0.510	1.360	92.23	-0.90	1.80	 	 	 	 	 	 	 	 	 	 	 	 	 	 	 	 	 	 	1581520633	3.63	6.72
12/02/2020 15:17:14	120220	12022020	151714	92.27	12.418787	-57.031827	92.35	-0.370	0.900	1.790	92.27	-0.50	2.20	 	 	 	 	 	 	 	 	 	 	 	 	 	 	 	 	 	 	1581520634	4.12	7.63
12/02/2020 15:17:15	120220	12022020	151715	92.31	12.418785	-57.031807	92.38	-0.370	0.910	1.690	92.32	-0.40	2.10	 	 	 	 	 	 	 	 	 	 	 	 	 	 	 	 	 	 	1581520635	4.31	7.98
12/02/2020 15:17:16	120220	12022020	151716	92.41	12.418788	-57.031785	92.46	-0.230	0.530	1.280	92.42	-0.80	1.70	 	 	 	 	 	 	 	 	 	 	 	 	 	 	 	 	 	 	1581520636	4.54	8.41
12/02/2020 15:17:17	120220	12022020	151717	92.46	12.418792	-57.031763	92.51	0.010	-0.320	1.070	92.47	-1.60	1.50	 	 	 	 	 	 	 	 	 	 	 	 	 	 	 	 	 	 	1581520637	4.79	8.87
12/02/2020 15:17:18	120220	12022020	151718	92.47	12.418793	-57.031738	92.54	0.380	-1.390	1.030	92.48	-2.70	1.50	 	 	 	 	 	 	 	 	 	 	 	 	 	 	 	 	 	 	1581520638	5.20	9.63
12/02/2020 15:17:19	120220	12022020	151719	92.62	12.418793	-57.031712	92.72	0.660	-1.600	0.780	92.68	-3.00	1.20	 	 	 	 	 	 	 	 	 	 	 	 	 	 	 	 	 	 	1581520639	5.39	9.98
12/02/2020 15:17:20	120220	12022020	151720	92.95	12.418797	-57.031693	93.04	0.380	-0.290	0.410	93.01	-1.70	0.90	 	 	 	 	 	 	 	 	 	 	 	 	 	 	 	 	 	 	1581520640	4.11	7.61
12/02/2020 15:17:21	120220	12022020	151721	93.08	12.418798	-57.031682	93.10	-0.380	1.150	0.370	93.05	-0.30	0.80	 	 	 	 	 	 	 	 	 	 	 	 	 	 	 	 	 	 	1581520641	2.66	4.93
12/02/2020 15:17:22	120220	12022020	151722	92.70	12.418797	-57.031667	92.65	-0.810	0.990	0.840	92.57	-0.30	1.20	 	 	 	 	 	 	 	 	 	 	 	 	 	 	 	 	 	 	1581520642	3.11	5.76
12/02/2020 15:17:23	120220	12022020	151723	92.02	12.418793	-57.031642	92.00	-0.350	-0.560	1.380	91.91	-1.80	1.80	 	 	 	 	 	 	 	 	 	 	 	 	 	 	 	 	 	 	1581520643	5.13	9.50
12/02/2020 15:17:24	120220	12022020	151724	91.69	12.418793	-57.031613	91.77	0.530	-1.650	1.400	91.70	-3.00	1.80	 	 	 	 	 	 	 	 	 	 	 	 	 	 	 	 	 	 	1581520644	6.07	11.24
12/02/2020 15:17:25	120220	12022020	151725	91.96	12.418797	-57.031590	92.11	0.880	-1.300	1.000	92.07	-2.70	1.50	 	 	 	 	 	 	 	 	 	 	 	 	 	 	 	 	 	 	1581520645	5.18	9.59
12/02/2020 15:17:26	120220	12022020	151726	92.53	12.418800	-57.031572	92.69	0.350	-0.030	0.650	92.64	-1.50	1.10	 	 	 	 	 	 	 	 	 	 	 	 	 	 	 	 	 	 	1581520646	3.75	6.95
12/02/2020 15:17:27	120220	12022020	151727	93.01	12.418800	-57.031558	93.13	-0.530	1.020	0.800	93.07	-0.40	1.20	 	 	 	 	 	 	 	 	 	 	 	 	 	 	 	 	 	 	1581520647	2.98	5.52
12/02/2020 15:17:28	120220	12022020	151728	93.09	12.418795	-57.031542	93.13	-0.970	1.040	1.420	93.04	-0.30	1.80	 	 	 	 	 	 	 	 	 	 	 	 	 	 	 	 	 	 	1581520648	3.60	6.67
12/02/2020 15:17:29	120220	12022020	151729	92.68	12.418788	-57.031520	92.68	-0.650	0.150	2.060	92.58	-1.10	2.50	 	 	 	 	 	 	 	 	 	 	 	 	 	 	 	 	 	 	1581520649	4.75	8.80
12/02/2020 15:17:30	120220	12022020	151730	92.12	12.418785	-57.031495	92.13	0.120	-0.840	2.300	92.02	-2.10	2.70	 	 	 	 	 	 	 	 	 	 	 	 	 	 	 	 	 	 	1581520650	5.28	9.78
12/02/2020 15:17:31	120220	12022020	151731	91.78	12.418788	-57.031472	91.86	0.760	-1.220	1.920	91.77	-2.60	2.40	 	 	 	 	 	 	 	 	 	 	 	 	 	 	 	 	 	 	1581520651	5.13	9.50
12/02/2020 15:17:32	120220	12022020	151732	92.01	12.418795	-57.031450	92.16	0.860	-0.860	1.020	92.12	-2.20	1.50	 	 	 	 	 	 	 	 	 	 	 	 	 	 	 	 	 	 	1581520652	4.72	8.74
12/02/2020 15:17:33	120220	12022020	151733	92.64	12.418802	-57.031432	92.79	0.350	-0.120	0.200	92.76	-1.50	0.70	 	 	 	 	 	 	 	 	 	 	 	 	 	 	 	 	 	 	1581520653	4.22	7.82
12/02/2020 15:17:34	120220	12022020	151734	93.12	12.418805	-57.031415	93.21	-0.350	0.460	0.020	93.16	-0.90	0.40	 	 	 	 	 	 	 	 	 	 	 	 	 	 	 	 	 	 	1581520654	3.64	6.74
12/02/2020 15:17:35	120220	12022020	151735	93.12	12.418802	-57.031397	93.13	-0.540	0.380	0.430	93.05	-0.90	0.80	 	 	 	 	 	 	 	 	 	 	 	 	 	 	 	 	 	 	1581520655	3.89	7.20
12/02/2020 15:17:36	120220	12022020	151736	92.63	12.418797	-57.031375	92.61	0.050	-0.430	1.190	92.51	-1.70	1.60	 	 	 	 	 	 	 	 	 	 	 	 	 	 	 	 	 	 	1581520656	4.80	8.89
12/02/2020 15:17:37	120220	12022020	151737	92.10	12.418793	-57.031348	92.15	0.700	-1.070	1.890	92.05	-2.40	2.30	 	 	 	 	 	 	 	 	 	 	 	 	 	 	 	 	 	 	1581520657	5.51	10.20
12/02/2020 15:17:38	120220	12022020	151738	92.11	12.418793	-57.031325	92.25	0.540	-0.590	1.960	92.18	-2.00	2.40	 	 	 	 	 	 	 	 	 	 	 	 	 	 	 	 	 	 	1581520658	4.85	8.98
12/02/2020 15:17:39	120220	12022020	151739	92.62	12.418795	-57.031310	92.79	-0.340	0.630	1.420	92.62	-0.80	1.90	 	 	 	 	 	 	 	 	 	 	 	 	 	 	 	 	 	 	1581520659	3.44	6.37
12/02/2020 15:17:40	120220	12022020	151740	93.20	12.418798	-57.031297	93.34	-1.120	1.380	0.920	93.30	0.00	1.40	 	 	 	 	 	 	 	 	 	 	 	 	 	 	 	 	 	 	1581520660	2.85	5.28
12/02/2020 15:17:41	120220	12022020	151741	93.56	12.418800	-57.031280	93.65	-1.090	0.680	0.680	93.60	-0.60	1.10	 	 	 	 	 	 	 	 	 	 	 	 	 	 	 	 	 	 	1581520661	3.61	6.69
12/02/2020 15:17:42	120220	12022020	151742	93.62	12.418798	-57.031255	93.65	-0.260	-1.070	0.600	93.59	-2.30	1.00	 	 	 	 	 	 	 	 	 	 	 	 	 	 	 	 	 	 	1581520662	5.22	9.67
12/02/2020 15:17:43	120220	12022020	151743	93.37	12.418797	-57.031227	93.37	0.660	-2.260	0.720	93.30	-3.60	1.20	 	 	 	 	 	 	 	 	 	 	 	 	 	 	 	 	 	 	1581520663	5.99	11.09
12/02/2020 15:17:44	120220	12022020	151744	93.13	12.418795	-57.031203	93.15	1.010	-1.730	0.780	93.12	-3.20	1.20	 	 	 	 	 	 	 	 	 	 	 	 	 	 	 	 	 	 	1581520664	5.05	9.35
12/02/2020 15:17:45	120220	12022020	151745	93.24	12.418798	-57.031187	93.32	0.620	0.010	0.490	93.31	-1.50	1.00	 	 	 	 	 	 	 	 	 	 	 	 	 	 	 	 	 	 	1581520665	3.36	6.22
12/02/2020 15:17:46	120220	12022020	151746	93.70	12.418802	-57.031175	93.81	-0.070	1.360	-0.010	93.80	-0.10	0.50	 	 	 	 	 	 	 	 	 	 	 	 	 	 	 	 	 	 	1581520666	2.71	5.02
12/02/2020 15:17:47	120220	12022020	151747	94.05	12.418803	-57.031158	94.09	-0.450	1.280	-0.170	94.06	-0.00	0.30	 	 	 	 	 	 	 	 	 	 	 	 	 	 	 	 	 	 	1581520667	3.43	6.35
12/02/2020 15:17:48	120220	12022020	151748	93.91	12.418802	-57.031135	93.89	-0.280	0.250	0.330	93.83	-1.10	0.70	 	 	 	 	 	 	 	 	 	 	 	 	 	 	 	 	 	 	1581520668	4.82	8.93
12/02/2020 15:17:49	120220	12022020	151749	93.54	12.418797	-57.031112	93.56	0.110	-0.590	0.950	93.49	-1.90	1.40	 	 	 	 	 	 	 	 	 	 	 	 	 	 	 	 	 	 	1581520669	5.26	9.74
12/02/2020 15:17:50	120220	12022020	151750	93.47	12.418795	-57.031088	93.57	0.270	-0.810	1.220	93.51	-2.20	1.60	 	 	 	 	 	 	 	 	 	 	 	 	 	 	 	 	 	 	1581520670	4.67	8.65
12/02/2020 15:17:51	120220	12022020	151751	93.76	12.418797	-57.031070	93.89	0.090	-0.650	1.360	93.76	-2.00	1.80	 	 	 	 	 	 	 	 	 	 	 	 	 	 	 	 	 	 	1581520671	4.04	7.48
12/02/2020 15:17:52	120220	12022020	151752	93.99	12.418795	-57.031052	94.07	-0.140	-0.490	1.620	93.98	-1.90	2.00	 	 	 	 	 	 	 	 	 	 	 	 	 	 	 	 	 	 	1581520672	3.83	7.09
12/02/2020 15:17:53	120220	12022020	151753	93.76	12.418792	-57.031032	93.79	-0.190	-0.540	1.980	93.68	-1.90	2.40	 	 	 	 	 	 	 	 	 	 	 	 	 	 	 	 	 	 	1581520673	4.22	7.82
12/02/2020 15:17:54	120220	12022020	151754	93.35	12.418788	-57.031012	93.40	-0.170	-0.470	2.180	93.29	-1.80	2.60	 	 	 	 	 	 	 	 	 	 	 	 	 	 	 	 	 	 	1581520674	4.52	8.37
12/02/2020 15:17:55	120220	12022020	151755	93.18	12.418787	-57.030990	93.27	-0.100	-0.240	2.090	93.20	-1.60	2.50	 	 	 	 	 	 	 	 	 	 	 	 	 	 	 	 	 	 	1581520675	4.35	8.06
12/02/2020 15:17:56	120220	12022020	151756	93.35	12.418787	-57.030970	93.45	0.020	-0.020	1.570	93.40	-1.40	2.00	 	 	 	 	 	 	 	 	 	 	 	 	 	 	 	 	 	 	1581520676	4.27	7.91
12/02/2020 15:17:57	120220	12022020	151757	93.55	12.418790	-57.030950	93.60	0.110	0.180	0.810	93.57	-1.20	1.30	 	 	 	 	 	 	 	 	 	 	 	 	 	 	 	 	 	 	1581520677	4.37	8.09
12/02/2020 15:17:58	120220	12022020	151758	93.60	12.418793	-57.030930	93.61	0.000	0.540	-0.020	93.59	-0.80	0.50	 	 	 	 	 	 	 	 	 	 	 	 	 	 	 	 	 	 	1581520678	4.24	7.85
12/02/2020 15:17:59	120220	12022020	151759	93.47	12.418797	-57.030912	93.45	-0.220	0.740	-0.540	93.42	-0.60	-0.10	 	 	 	 	 	 	 	 	 	 	 	 	 	 	 	 	 	 	1581520679	3.90	7.22
12/02/2020 15:18:00	120220	12022020	151800	93.21	12.418798	-57.030893	93.19	-0.230	0.220	-0.510	93.15	-1.10	-0.10	 	 	 	 	 	 	 	 	 	 	 	 	 	 	 	 	 	 	1581520680	4.03	7.46
12/02/2020 15:18:01	120220	12022020	151801	92.93	12.418798	-57.030870	92.94	0.150	-1.030	-0.200	92.89	-2.30	0.20	 	 	 	 	 	 	 	 	 	 	 	 	 	 	 	 	 	 	1581520681	4.87	9.02
12/02/2020 15:18:02	120220	12022020	151802	92.78	12.418798	-57.030843	92.82	0.650	-2.020	0.040	92.77	-3.30	0.50	1017.00	26.70	26.70	20.30	20.40	587.0	68.0	68.0	439.0	28.3	350.00	12.50	80.00	10.30	48328	10418.0	27.5	27.5	1581520682	5.57	10.32
12/02/2020 15:18:03	120220	12022020	151803	92.77	12.418797	-57.030820	92.84	0.830	-1.800	0.380	92.78	-3.20	0.80	 	 	 	 	 	 	 	 	 	 	 	 	 	 	 	 	 	 	1581520683	5.12	9.48
12/02/2020 15:18:04	120220	12022020	151804	92.79	12.418795	-57.030802	92.87	0.530	-0.450	0.950	92.79	-1.90	1.30	 	 	 	 	 	 	 	 	 	 	 	 	 	 	 	 	 	 	1581520684	3.93	7.28
12/02/2020 15:18:05	120220	12022020	151805	92.76	12.418793	-57.030787	92.85	-0.100	1.020	1.630	92.76	-0.40	2.00	 	 	 	 	 	 	 	 	 	 	 	 	 	 	 	 	 	 	1581520685	3.17	5.87
12/02/2020 15:18:06	120220	12022020	151806	92.82	12.418790	-57.030772	92.93	-0.740	1.770	2.150	92.86	0.40	2.60	 	 	 	 	 	 	 	 	 	 	 	 	 	 	 	 	 	 	1581520686	3.30	6.11
12/02/2020 15:18:07	120220	12022020	151807	93.07	12.418787	-57.030753	93.18	-1.140	1.510	2.210	93.12	0.20	2.60	 	 	 	 	 	 	 	 	 	 	 	 	 	 	 	 	 	 	1581520687	3.86	7.15
12/02/2020 15:18:08	120220	12022020	151808	93.26	12.418785	-57.030732	93.32	-1.070	0.270	2.140	93.26	-1.00	2.60	 	 	 	 	 	 	 	 	 	 	 	 	 	 	 	 	 	 	1581520688	4.58	8.48
12/02/2020 15:18:09	120220	12022020	151809	93.12	12.418782	-57.030707	93.14	-0.530	-1.380	2.260	93.05	-2.60	2.70	 	 	 	 	 	 	 	 	 	 	 	 	 	 	 	 	 	 	1581520689	5.41	10.02
12/02/2020 15:18:10	120220	12022020	151810	92.66	12.418778	-57.030680	92.65	0.280	-2.350	2.360	92.55	-3.70	2.80	 	 	 	 	 	 	 	 	 	 	 	 	 	 	 	 	 	 	1581520690	5.63	10.43
12/02/2020 15:18:11	120220	12022020	151811	92.12	12.418780	-57.030657	92.11	1.000	-2.050	2.070	92.03	-3.40	2.50	 	 	 	 	 	 	 	 	 	 	 	 	 	 	 	 	 	 	1581520691	4.93	9.13
12/02/2020 15:18:12	120220	12022020	151812	91.84	12.418785	-57.030637	91.90	1.270	-0.790	1.280	91.85	-2.20	1.80	 	 	 	 	 	 	 	 	 	 	 	 	 	 	 	 	 	 	1581520692	4.17	7.72
12/02/2020 15:18:13	120220	12022020	151813	92.11	12.418792	-57.030622	92.22	0.870	0.730	0.090	92.21	-0.70	0.60	 	 	 	 	 	 	 	 	 	 	 	 	 	 	 	 	 	 	1581520693	3.81	7.06
12/02/2020 15:18:14	120220	12022020	151814	92.62	12.418800	-57.030605	92.72	0.090	1.650	-1.030	92.71	0.30	-0.50	 	 	 	 	 	 	 	 	 	 	 	 	 	 	 	 	 	 	1581520694	3.80	7.04
12/02/2020 15:18:15	120220	12022020	151815	92.99	12.418807	-57.030587	93.05	-0.580	1.460	-1.530	92.99	0.10	-1.10	 	 	 	 	 	 	 	 	 	 	 	 	 	 	 	 	 	 	1581520695	4.11	7.61
12/02/2020 15:18:16	120220	12022020	151816	93.20	12.418808	-57.030565	93.26	-0.780	0.360	-1.230	93.23	-0.90	-0.80	 	 	 	 	 	 	 	 	 	 	 	 	 	 	 	 	 	 	1581520696	4.71	8.72
12/02/2020 15:18:17	120220	12022020	151817	93.21	12.418803	-57.030540	93.25	-0.500	-1.010	-0.330	93.17	-2.30	0.00	 	 	 	 	 	 	 	 	 	 	 	 	 	 	 	 	 	 	1581520697	5.32	9.85
12/02/2020 15:18:18	120220	12022020	151818	92.90	12.418797	-57.030515	92.93	-0.100	-1.810	1.060	92.82	-3.10	1.40	 	 	 	 	 	 	 	 	 	 	 	 	 	 	 	 	 	 	1581520698	5.51	10.20
12/02/2020 15:18:19	120220	12022020	151819	92.49	12.418788	-57.030492	92.56	0.020	-1.460	2.410	92.43	-2.90	2.80	 	 	 	 	 	 	 	 	 	 	 	 	 	 	 	 	 	 	1581520699	4.98	9.22
12/02/2020 15:18:20	120220	12022020	151820	92.26	12.418782	-57.030475	92.38	-0.100	-0.340	3.150	92.24	-1.80	3.50	 	 	 	 	 	 	 	 	 	 	 	 	 	 	 	 	 	 	1581520700	3.88	7.19
12/02/2020 15:18:21	120220	12022020	151821	92.25	12.418778	-57.030460	92.37	-0.090	0.390	3.170	92.26	-1.00	3.60	 	 	 	 	 	 	 	 	 	 	 	 	 	 	 	 	 	 	1581520701	3.41	6.32
12/02/2020 15:18:22	120220	12022020	151822	92.38	12.418780	-57.030440	92.48	0.210	0.220	2.550	92.41	-1.10	3.00	 	 	 	 	 	 	 	 	 	 	 	 	 	 	 	 	 	 	1581520702	4.26	7.89
12/02/2020 15:18:23	120220	12022020	151823	92.51	12.418785	-57.030415	92.55	0.510	-0.310	1.450	92.52	-1.60	1.90	 	 	 	 	 	 	 	 	 	 	 	 	 	 	 	 	 	 	1581520703	5.29	9.80
12/02/2020 15:18:24	120220	12022020	151824	92.57	12.418792	-57.030390	92.60	0.400	-0.330	0.310	92.58	-1.70	0.80	 	 	 	 	 	 	 	 	 	 	 	 	 	 	 	 	 	 	1581520704	5.41	10.02
12/02/2020 15:18:25	120220	12022020	151825	92.62	12.418798	-57.030370	92.65	-0.130	0.330	-0.300	92.63	-1.10	0.20	 	 	 	 	 	 	 	 	 	 	 	 	 	 	 	 	 	 	1581520705	4.41	8.17
12/02/2020 15:18:26	120220	12022020	151826	92.71	12.418800	-57.030353	92.76	-0.590	0.930	-0.450	92.74	-0.50	-0.00	 	 	 	 	 	 	 	 	 	 	 	 	 	 	 	 	 	 	1581520706	3.47	6.43
12/02/2020 15:18:27	120220	12022020	151827	92.88	12.418802	-57.030337	92.95	-0.500	0.600	-0.620	92.88	-0.70	-0.20	 	 	 	 	 	 	 	 	 	 	 	 	 	 	 	 	 	 	1581520707	3.75	6.95
12/02/2020 15:18:28	120220	12022020	151828	92.94	12.418803	-57.030313	92.99	0.070	-0.670	-0.460	92.92	-2.00	-0.10	 	 	 	 	 	 	 	 	 	 	 	 	 	 	 	 	 	 	1581520708	4.90	9.07
12/02/2020 15:18:29	120220	12022020	151829	92.70	12.418802	-57.030287	92.75	0.580	-1.800	0.400	92.64	-3.10	0.80	 	 	 	 	 	 	 	 	 	 	 	 	 	 	 	 	 	 	1581520709	5.67	10.50
12/02/2020 15:18:30	120220	12022020	151830	92.43	12.418797	-57.030262	92.52	0.590	-1.760	1.500	92.41	-3.10	1.90	 	 	 	 	 	 	 	 	 	 	 	 	 	 	 	 	 	 	1581520710	5.27	9.76
12/02/2020 15:18:31	120220	12022020	151831	92.44	12.418792	-57.030243	92.58	0.200	-0.750	2.290	92.46	-2.20	2.70	 	 	 	 	 	 	 	 	 	 	 	 	 	 	 	 	 	 	1581520711	4.20	7.78
12/02/2020 15:18:32	120220	12022020	151832	92.52	12.418787	-57.030227	92.64	-0.150	0.370	2.670	92.52	-1.10	3.10	 	 	 	 	 	 	 	 	 	 	 	 	 	 	 	 	 	 	1581520712	3.63	6.72
12/02/2020 15:18:33	120220	12022020	151833	92.52	12.418785	-57.030208	92.61	-0.270	1.100	2.530	92.53	-0.30	3.00	 	 	 	 	 	 	 	 	 	 	 	 	 	 	 	 	 	 	1581520713	3.74	6.93
12/02/2020 15:18:34	120220	12022020	151834	92.63	12.418787	-57.030190	92.70	-0.300	1.210	1.910	92.67	-0.20	2.40	 	 	 	 	 	 	 	 	 	 	 	 	 	 	 	 	 	 	1581520714	4.11	7.61
12/02/2020 15:18:35	120220	12022020	151835	92.79	12.418792	-57.030168	92.83	-0.310	0.460	1.140	92.81	-0.80	1.60	 	 	 	 	 	 	 	 	 	 	 	 	 	 	 	 	 	 	1581520715	4.72	8.74
12/02/2020 15:18:36	120220	12022020	151836	92.88	12.418797	-57.030143	92.92	-0.270	-0.690	0.500	92.90	-2.00	1.00	 	 	 	 	 	 	 	 	 	 	 	 	 	 	 	 	 	 	1581520716	5.37	9.95
12/02/2020 15:18:37	120220	12022020	151837	92.93	12.418797	-57.030118	92.96	-0.160	-1.290	0.140	92.93	-2.60	0.60	 	 	 	 	 	 	 	 	 	 	 	 	 	 	 	 	 	 	1581520717	5.35	9.91
12/02/2020 15:18:38	120220	12022020	151838	92.92	12.418797	-57.030097	92.95	0.050	-1.000	-0.050	92.91	-2.40	0.40	 	 	 	 	 	 	 	 	 	 	 	 	 	 	 	 	 	 	1581520718	4.52	8.37
12/02/2020 15:18:39	120220	12022020	151839	92.88	12.418798	-57.030078	92.92	0.330	-0.300	-0.220	92.88	-1.70	0.20	 	 	 	 	 	 	 	 	 	 	 	 	 	 	 	 	 	 	1581520719	3.79	7.02
12/02/2020 15:18:40	120220	12022020	151840	92.89	12.418800	-57.030060	92.95	0.430	0.150	-0.270	92.90	-1.20	0.10	 	 	 	 	 	 	 	 	 	 	 	 	 	 	 	 	 	 	1581520720	3.76	6.96
12/02/2020 15:18:41	120220	12022020	151841	92.94	12.418802	-57.030040	93.01	0.260	0.040	-0.110	92.94	-1.30	0.30	 	 	 	 	 	 	 	 	 	 	 	 	 	 	 	 	 	 	1581520721	4.20	7.78
12/02/2020 15:18:42	120220	12022020	151842	92.83	12.418802	-57.030018	92.88	0.020	-0.580	0.450	92.78	-1.90	0.80	 	 	 	 	 	 	 	 	 	 	 	 	 	 	 	 	 	 	1581520722	4.87	9.02
12/02/2020 15:18:43	120220	12022020	151843	92.55	12.418797	-57.029992	92.61	-0.090	-1.050	1.210	92.55	-2.40	1.60	 	 	 	 	 	 	 	 	 	 	 	 	 	 	 	 	 	 	1581520723	5.43	10.06
12/02/2020 15:18:44	120220	12022020	151844	92.41	12.418792	-57.029968	92.54	-0.090	-0.730	1.850	92.43	-2.10	2.20	 	 	 	 	 	 	 	 	 	 	 	 	 	 	 	 	 	 	1581520724	5.17	9.57
12/02/2020 15:18:45	120220	12022020	151845	92.68	12.418788	-57.029950	92.87	-0.240	0.420	2.030	92.78	-1.00	2.40	 	 	 	 	 	 	 	 	 	 	 	 	 	 	 	 	 	 	1581520725	4.13	7.65
12/02/2020 15:18:46	120220	12022020	151846	93.29	12.418788	-57.029935	93.48	-0.570	1.590	1.640	93.42	0.20	2.10	 	 	 	 	 	 	 	 	 	 	 	 	 	 	 	 	 	 	1581520726	3.09	5.72
12/02/2020 15:18:47	120220	12022020	151847	93.79	12.418788	-57.029920	93.89	-0.660	1.580	1.120	93.83	0.30	1.50	 	 	 	 	 	 	 	 	 	 	 	 	 	 	 	 	 	 	1581520727	3.16	5.85
12/02/2020 15:18:48	120220	12022020	151848	93.83	12.418790	-57.029898	93.86	-0.110	-0.030	0.780	93.80	-1.30	1.20	 	 	 	 	 	 	 	 	 	 	 	 	 	 	 	 	 	 	1581520728	4.58	8.48
12/02/2020 15:18:49	120220	12022020	151849	93.54	12.418792	-57.029870	93.54	0.820	-2.080	0.770	93.47	-3.30	1.20	 	 	 	 	 	 	 	 	 	 	 	 	 	 	 	 	 	 	1581520729	6.09	11.28
12/02/2020 15:18:50	120220	12022020	151850	93.29	12.418792	-57.029840	93.32	1.240	-2.700	0.920	93.27	-4.00	1.30	 	 	 	 	 	 	 	 	 	 	 	 	 	 	 	 	 	 	1581520730	6.16	11.41
12/02/2020 15:18:51	120220	12022020	151851	93.33	12.418793	-57.029820	93.41	0.660	-1.280	1.080	93.37	-2.70	1.50	 	 	 	 	 	 	 	 	 	 	 	 	 	 	 	 	 	 	1581520731	4.31	7.98
12/02/2020 15:18:52	120220	12022020	151852	93.56	12.418792	-57.029808	93.64	-0.430	0.830	1.210	93.60	-0.60	1.60	 	 	 	 	 	 	 	 	 	 	 	 	 	 	 	 	 	 	1581520732	2.50	4.63
12/02/2020 15:18:53	120220	12022020	151853	93.70	12.418788	-57.029797	93.77	-1.070	1.830	1.340	93.72	0.50	1.70	 	 	 	 	 	 	 	 	 	 	 	 	 	 	 	 	 	 	1581520733	2.48	4.59
12/02/2020 15:18:54	120220	12022020	151854	93.85	12.418787	-57.029778	93.93	-0.860	1.180	1.260	93.89	-0.10	1.70	 	 	 	 	 	 	 	 	 	 	 	 	 	 	 	 	 	 	1581520734	3.97	7.35
12/02/2020 15:18:55	120220	12022020	151855	94.10	12.418787	-57.029753	94.19	-0.200	-0.230	1.030	94.16	-1.50	1.50	 	 	 	 	 	 	 	 	 	 	 	 	 	 	 	 	 	 	1581520735	5.37	9.95
12/02/2020 15:18:56	120220	12022020	151856	94.29	12.418785	-57.029727	94.32	0.260	-1.310	0.940	94.29	-2.60	1.40	 	 	 	 	 	 	 	 	 	 	 	 	 	 	 	 	 	 	1581520736	5.64	10.45
12/02/2020 15:18:57	120220	12022020	151857	94.16	12.418783	-57.029703	94.17	0.300	-1.350	1.130	94.11	-2.70	1.50	 	 	 	 	 	 	 	 	 	 	 	 	 	 	 	 	 	 	1581520737	4.98	9.22
12/02/2020 15:18:58	120220	12022020	151858	93.86	12.418780	-57.029685	93.85	0.110	-0.440	1.230	93.79	-1.80	1.60	 	 	 	 	 	 	 	 	 	 	 	 	 	 	 	 	 	 	1581520738	3.88	7.19
12/02/2020 15:18:59	120220	12022020	151859	93.61	12.418780	-57.029670	93.64	-0.020	0.490	1.110	93.58	-0.90	1.50	 	 	 	 	 	 	 	 	 	 	 	 	 	 	 	 	 	 	1581520739	3.18	5.89
12/02/2020 15:19:00	120220	12022020	151900	93.49	12.418782	-57.029652	93.52	0.050	0.540	0.730	93.47	-0.80	1.20	 	 	 	 	 	 	 	 	 	 	 	 	 	 	 	 	 	 	1581520740	3.61	6.69
12/02/2020 15:19:01	120220	12022020	151901	93.33	12.418783	-57.029630	93.35	0.280	-0.080	0.300	93.30	-1.40	0.80	 	 	 	 	 	 	 	 	 	 	 	 	 	 	 	 	 	 	1581520741	4.65	8.61
12/02/2020 15:19:02	120220	12022020	151902	93.24	12.418787	-57.029607	93.30	0.390	-0.550	-0.110	93.26	-1.90	0.30	1017.10	26.60	26.70	20.40	20.40	623.0	68.0	68.0	439.0	28.4	350.00	12.90	81.00	10.60	50448	10601.0	27.5	27.5	1581520742	5.07	9.39
12/02/2020 15:19:03	120220	12022020	151903	93.40	12.418790	-57.029585	93.49	0.230	-0.510	-0.220	93.44	-1.90	0.20	 	 	 	 	 	 	 	 	 	 	 	 	 	 	 	 	 	 	1581520743	4.61	8.54
12/02/2020 15:19:04	120220	12022020	151904	93.53	12.418790	-57.029567	93.60	-0.090	-0.290	0.270	93.53	-1.60	0.60	 	 	 	 	 	 	 	 	 	 	 	 	 	 	 	 	 	 	1581520744	4.02	7.45
12/02/2020 15:19:05	120220	12022020	151905	93.38	12.418783	-57.029547	93.45	-0.370	-0.190	1.230	93.38	-1.50	1.60	 	 	 	 	 	 	 	 	 	 	 	 	 	 	 	 	 	 	1581520745	4.20	7.78
12/02/2020 15:19:06	120220	12022020	151906	93.05	12.418775	-57.029527	93.10	-0.430	-0.260	2.180	92.98	-1.60	2.50	 	 	 	 	 	 	 	 	 	 	 	 	 	 	 	 	 	 	1581520746	4.57	8.46
12/02/2020 15:19:07	120220	12022020	151907	92.69	12.418768	-57.029505	92.74	-0.130	-0.500	2.660	92.62	-1.80	3.10	 	 	 	 	 	 	 	 	 	 	 	 	 	 	 	 	 	 	1581520747	4.78	8.85
12/02/2020 15:19:08	120220	12022020	151908	92.38	12.418765	-57.029483	92.46	0.360	-0.650	2.620	92.35	-2.00	3.00	 	 	 	 	 	 	 	 	 	 	 	 	 	 	 	 	 	 	1581520748	4.82	8.93
12/02/2020 15:19:09	120220	12022020	151909	92.36	12.418768	-57.029462	92.47	0.550	-0.290	2.130	92.40	-1.70	2.60	 	 	 	 	 	 	 	 	 	 	 	 	 	 	 	 	 	 	1581520749	4.67	8.65
12/02/2020 15:19:10	120220	12022020	151910	92.66	12.418773	-57.029442	92.78	0.140	0.470	1.130	92.74	-0.90	1.60	 	 	 	 	 	 	 	 	 	 	 	 	 	 	 	 	 	 	1581520750	4.10	7.59
12/02/2020 15:19:11	120220	12022020	151911	92.92	12.418778	-57.029427	92.96	-0.490	0.930	0.160	92.92	-0.40	0.60	 	 	 	 	 	 	 	 	 	 	 	 	 	 	 	 	 	 	1581520751	3.71	6.87
12/02/2020 15:19:12	120220	12022020	151912	92.74	12.418782	-57.029407	92.73	-0.670	0.420	-0.080	92.66	-0.90	0.30	 	 	 	 	 	 	 	 	 	 	 	 	 	 	 	 	 	 	1581520752	4.06	7.52
12/02/2020 15:19:13	120220	12022020	151913	92.41	12.418780	-57.029383	92.45	-0.280	-0.650	0.010	92.38	-1.90	0.40	 	 	 	 	 	 	 	 	 	 	 	 	 	 	 	 	 	 	1581520753	5.00	9.26
12/02/2020 15:19:14	120220	12022020	151914	92.42	12.418780	-57.029358	92.53	0.270	-1.330	-0.100	92.47	-2.60	0.30	 	 	 	 	 	 	 	 	 	 	 	 	 	 	 	 	 	 	1581520754	5.30	9.82
12/02/2020 15:19:15	120220	12022020	151915	92.66	12.418780	-57.029335	92.77	0.540	-1.200	-0.180	92.70	-2.60	0.20	 	 	 	 	 	 	 	 	 	 	 	 	 	 	 	 	 	 	1581520755	4.74	8.78
12/02/2020 15:19:16	120220	12022020	151916	92.76	12.418780	-57.029317	92.84	0.420	-0.570	0.140	92.75	-1.90	0.50	 	 	 	 	 	 	 	 	 	 	 	 	 	 	 	 	 	 	1581520756	4.01	7.43
12/02/2020 15:19:17	120220	12022020	151917	92.62	12.418777	-57.029298	92.67	0.180	-0.080	0.740	92.57	-1.40	1.10	 	 	 	 	 	 	 	 	 	 	 	 	 	 	 	 	 	 	1581520757	3.90	7.22
12/02/2020 15:19:18	120220	12022020	151918	92.37	12.418775	-57.029278	92.46	0.040	0.110	1.380	92.34	-1.20	1.80	 	 	 	 	 	 	 	 	 	 	 	 	 	 	 	 	 	 	1581520758	4.36	8.07
12/02/2020 15:19:19	120220	12022020	151919	92.27	12.418772	-57.029257	92.40	-0.140	0.380	1.860	92.29	-1.00	2.20	 	 	 	 	 	 	 	 	 	 	 	 	 	 	 	 	 	 	1581520759	4.58	8.48
12/02/2020 15:19:20	120220	12022020	151920	92.45	12.418770	-57.029237	92.59	-0.480	0.800	1.930	92.51	-0.60	2.30	 	 	 	 	 	 	 	 	 	 	 	 	 	 	 	 	 	 	1581520760	4.09	7.57
12/02/2020 15:19:21	120220	12022020	151921	92.76	12.418770	-57.029218	92.88	-0.750	0.740	1.580	92.81	-0.60	2.00	 	 	 	 	 	 	 	 	 	 	 	 	 	 	 	 	 	 	1581520761	3.87	7.17
12/02/2020 15:19:22	120220	12022020	151922	92.97	12.418770	-57.029198	93.04	-0.610	-0.110	1.220	92.97	-1.40	1.60	 	 	 	 	 	 	 	 	 	 	 	 	 	 	 	 	 	 	1581520762	4.42	8.19
12/02/2020 15:19:23	120220	12022020	151923	92.81	12.418770	-57.029173	92.84	0.010	-1.310	1.240	92.73	-2.60	1.60	 	 	 	 	 	 	 	 	 	 	 	 	 	 	 	 	 	 	1581520763	5.21	9.65
12/02/2020 15:19:24	120220	12022020	151924	92.37	12.418768	-57.029148	92.38	0.700	-1.870	1.330	92.28	-3.20	1.70	 	 	 	 	 	 	 	 	 	 	 	 	 	 	 	 	 	 	1581520764	5.47	10.13
12/02/2020 15:19:25	120220	12022020	151925	92.04	12.418770	-57.029125	92.09	0.970	-1.260	1.090	92.01	-2.70	1.50	 	 	 	 	 	 	 	 	 	 	 	 	 	 	 	 	 	 	1581520765	4.73	8.76
12/02/2020 15:19:26	120220	12022020	151926	91.99	12.418773	-57.029107	92.06	0.700	-0.100	0.580	92.01	-1.50	1.00	 	 	 	 	 	 	 	 	 	 	 	 	 	 	 	 	 	 	1581520766	3.89	7.20
12/02/2020 15:19:27	120220	12022020	151927	92.16	12.418777	-57.029090	92.24	0.160	0.770	-0.010	92.21	-0.60	0.40	 	 	 	 	 	 	 	 	 	 	 	 	 	 	 	 	 	 	1581520767	3.79	7.02
12/02/2020 15:19:28	120220	12022020	151928	92.46	12.418780	-57.029070	92.56	-0.370	1.040	-0.340	92.53	-0.30	0.10	 	 	 	 	 	 	 	 	 	 	 	 	 	 	 	 	 	 	1581520768	4.12	7.63
12/02/2020 15:19:29	120220	12022020	151929	92.73	12.418780	-57.029050	92.83	-0.710	0.770	-0.190	92.76	-0.50	0.20	 	 	 	 	 	 	 	 	 	 	 	 	 	 	 	 	 	 	1581520769	4.41	8.17
12/02/2020 15:19:30	120220	12022020	151930	92.75	12.418777	-57.029028	92.82	-0.710	0.040	0.420	92.71	-1.30	0.80	 	 	 	 	 	 	 	 	 	 	 	 	 	 	 	 	 	 	1581520770	4.75	8.80
12/02/2020 15:19:31	120220	12022020	151931	92.43	12.418772	-57.029003	92.49	-0.380	-0.710	1.250	92.43	-2.00	1.60	 	 	 	 	 	 	 	 	 	 	 	 	 	 	 	 	 	 	1581520771	5.12	9.48
12/02/2020 15:19:32	120220	12022020	151932	92.11	12.418767	-57.028982	92.21	-0.010	-0.960	1.930	92.07	-2.30	2.30	 	 	 	 	 	 	 	 	 	 	 	 	 	 	 	 	 	 	1581520772	4.95	9.17
12/02/2020 15:19:33	120220	12022020	151933	92.01	12.418763	-57.028960	92.14	0.240	-0.900	2.390	92.01	-2.20	2.80	 	 	 	 	 	 	 	 	 	 	 	 	 	 	 	 	 	 	1581520773	4.43	8.20
12/02/2020 15:19:34	120220	12022020	151934	92.00	12.418762	-57.028940	92.13	0.430	-1.000	2.460	91.99	-2.30	2.90	 	 	 	 	 	 	 	 	 	 	 	 	 	 	 	 	 	 	1581520774	4.41	8.17
12/02/2020 15:19:35	120220	12022020	151935	91.90	12.418762	-57.028917	91.98	0.680	-1.180	2.170	91.87	-2.50	2.60	 	 	 	 	 	 	 	 	 	 	 	 	 	 	 	 	 	 	1581520775	5.01	9.28
12/02/2020 15:19:36	120220	12022020	151936	91.86	12.418765	-57.028892	91.98	0.730	-0.480	1.650	91.90	-1.90	2.10	 	 	 	 	 	 	 	 	 	 	 	 	 	 	 	 	 	 	1581520776	5.16	9.56
12/02/2020 15:19:37	120220	12022020	151937	92.23	12.418768	-57.028873	92.39	0.210	1.250	1.040	92.34	-0.20	1.50	 	 	 	 	 	 	 	 	 	 	 	 	 	 	 	 	 	 	1581520777	3.87	7.17
12/02/2020 15:19:38	120220	12022020	151938	92.74	12.418772	-57.028862	92.85	-0.610	2.360	0.580	92.81	1.00	1.00	 	 	 	 	 	 	 	 	 	 	 	 	 	 	 	 	 	 	1581520778	2.75	5.09
12/02/2020 15:19:39	120220	12022020	151939	92.79	12.418772	-57.028845	92.80	-0.960	1.360	0.610	92.71	0.10	1.00	 	 	 	 	 	 	 	 	 	 	 	 	 	 	 	 	 	 	1581520779	3.58	6.63
12/02/2020 15:19:40	120220	12022020	151940	92.30	12.418770	-57.028817	92.31	-0.450	-1.170	0.920	92.19	-2.30	1.30	 	 	 	 	 	 	 	 	 	 	 	 	 	 	 	 	 	 	1581520780	5.77	10.69
12/02/2020 15:19:41	120220	12022020	151941	91.92	12.418768	-57.028785	91.99	0.400	-2.900	1.180	91.89	-4.20	1.60	 	 	 	 	 	 	 	 	 	 	 	 	 	 	 	 	 	 	1581520781	6.78	12.56
12/02/2020 15:19:42	120220	12022020	151942	91.96	12.418767	-57.028760	92.09	0.750	-2.260	1.140	92.01	-3.70	1.60	 	 	 	 	 	 	 	 	 	 	 	 	 	 	 	 	 	 	1581520782	5.36	9.93
12/02/2020 15:19:43	120220	12022020	151943	92.26	12.418768	-57.028745	92.39	0.290	-0.170	0.800	92.32	-1.60	1.20	 	 	 	 	 	 	 	 	 	 	 	 	 	 	 	 	 	 	1581520783	3.08	5.70
12/02/2020 15:19:44	120220	12022020	151944	92.52	12.418770	-57.028735	92.63	-0.460	1.380	0.680	92.54	-0.00	1.10	 	 	 	 	 	 	 	 	 	 	 	 	 	 	 	 	 	 	1581520784	2.36	4.37
12/02/2020 15:19:45	120220	12022020	151945	92.52	12.418768	-57.028718	92.58	-0.810	1.360	1.000	92.47	0.00	1.40	 	 	 	 	 	 	 	 	 	 	 	 	 	 	 	 	 	 	1581520785	3.34	6.19
12/02/2020 15:19:46	120220	12022020	151946	92.15	12.418763	-57.028695	92.17	-0.400	0.070	1.450	92.06	-1.20	1.80	 	 	 	 	 	 	 	 	 	 	 	 	 	 	 	 	 	 	1581520786	5.06	9.37
12/02/2020 15:19:47	120220	12022020	151947	91.69	12.418760	-57.028667	91.75	0.380	-1.190	1.670	91.65	-2.50	2.10	 	 	 	 	 	 	 	 	 	 	 	 	 	 	 	 	 	 	1581520787	5.96	11.04
12/02/2020 15:19:48	120220	12022020	151948	91.70	12.418760	-57.028642	91.84	0.790	-1.330	1.490	91.76	-2.70	1.90	 	 	 	 	 	 	 	 	 	 	 	 	 	 	 	 	 	 	1581520788	5.45	10.09
12/02/2020 15:19:49	120220	12022020	151949	92.13	12.418763	-57.028622	92.30	0.540	-0.380	1.180	92.23	-1.80	1.60	 	 	 	 	 	 	 	 	 	 	 	 	 	 	 	 	 	 	1581520789	4.07	7.54
12/02/2020 15:19:50	120220	12022020	151950	92.52	12.418763	-57.028608	92.63	-0.010	0.740	0.940	92.55	-0.70	1.40	 	 	 	 	 	 	 	 	 	 	 	 	 	 	 	 	 	 	1581520790	3.08	5.70
12/02/2020 15:19:51	120220	12022020	151951	92.49	12.418765	-57.028593	92.54	-0.400	1.140	1.030	92.44	-0.20	1.40	 	 	 	 	 	 	 	 	 	 	 	 	 	 	 	 	 	 	1581520791	3.20	5.93
12/02/2020 15:19:52	120220	12022020	151952	92.15	12.418763	-57.028573	92.17	-0.500	0.560	1.290	92.07	-0.70	1.70	 	 	 	 	 	 	 	 	 	 	 	 	 	 	 	 	 	 	1581520792	4.01	7.43
12/02/2020 15:19:53	120220	12022020	151953	91.76	12.418763	-57.028550	91.79	-0.320	-0.670	1.490	91.69	-2.00	1.90	 	 	 	 	 	 	 	 	 	 	 	 	 	 	 	 	 	 	1581520793	4.90	9.07
12/02/2020 15:19:54	120220	12022020	151954	91.49	12.418762	-57.028525	91.56	0.050	-1.750	1.570	91.47	-3.10	2.00	 	 	 	 	 	 	 	 	 	 	 	 	 	 	 	 	 	 	1581520794	5.39	9.98
12/02/2020 15:19:55	120220	12022020	151955	91.47	12.418760	-57.028500	91.57	0.520	-1.920	1.360	91.47	-3.30	1.80	 	 	 	 	 	 	 	 	 	 	 	 	 	 	 	 	 	 	1581520795	5.14	9.52
12/02/2020 15:19:56	120220	12022020	151956	91.66	12.418762	-57.028480	91.77	0.790	-1.020	0.960	91.71	-2.40	1.40	 	 	 	 	 	 	 	 	 	 	 	 	 	 	 	 	 	 	1581520796	4.39	8.13
12/02/2020 15:19:57	120220	12022020	151957	91.87	12.418763	-57.028463	91.94	0.530	0.410	0.520	91.88	-1.00	1.00	 	 	 	 	 	 	 	 	 	 	 	 	 	 	 	 	 	 	1581520797	3.58	6.63
12/02/2020 15:19:58	120220	12022020	151958	91.76	12.418767	-57.028448	91.76	-0.150	1.360	0.410	91.69	-0.00	0.80	 	 	 	 	 	 	 	 	 	 	 	 	 	 	 	 	 	 	1581520798	3.24	6.00
12/02/2020 15:19:59	120220	12022020	151959	91.38	12.418765	-57.028430	91.42	-0.750	1.280	0.640	91.32	-0.10	1.00	 	 	 	 	 	 	 	 	 	 	 	 	 	 	 	 	 	 	1581520799	3.81	7.06
12/02/2020 15:20:00	120220	12022020	152000	91.23	12.418765	-57.028408	91.32	-0.940	0.690	0.810	91.23	-0.60	1.20	 	 	 	 	 	 	 	 	 	 	 	 	 	 	 	 	 	 	1581520800	4.54	8.41
12/02/2020 15:20:01	120220	12022020	152001	91.32	12.418763	-57.028387	91.43	-0.730	-0.060	0.840	91.34	-1.40	1.20	 	 	 	 	 	 	 	 	 	 	 	 	 	 	 	 	 	 	1581520801	4.61	8.54
12/02/2020 15:20:02	120220	12022020	152002	91.26	12.418762	-57.028365	91.31	-0.220	-1.000	0.970	91.19	-2.30	1.40	1017.00	26.70	26.70	20.60	20.60	617.0	69.0	69.0	439.0	28.4	351.00	13.30	81.00	11.10	50237	11555.0	27.5	27.4	1581520802	4.67	8.65
12/02/2020 15:20:03	120220	12022020	152003	90.82	12.418760	-57.028342	90.84	0.470	-1.790	1.350	90.72	-3.10	1.70	 	 	 	 	 	 	 	 	 	 	 	 	 	 	 	 	 	 	1581520803	5.00	9.26
12/02/2020 15:20:04	120220	12022020	152004	90.49	12.418760	-57.028318	90.59	1.020	-1.750	1.660	90.49	-3.10	2.10	 	 	 	 	 	 	 	 	 	 	 	 	 	 	 	 	 	 	1581520804	4.91	9.09
12/02/2020 15:20:05	120220	12022020	152005	90.67	12.418760	-57.028298	90.82	1.100	-0.780	1.610	90.74	-2.20	2.00	 	 	 	 	 	 	 	 	 	 	 	 	 	 	 	 	 	 	1581520805	4.14	7.67
12/02/2020 15:20:06	120220	12022020	152006	90.98	12.418763	-57.028282	91.09	0.660	0.380	1.260	91.01	-1.00	1.70	 	 	 	 	 	 	 	 	 	 	 	 	 	 	 	 	 	 	1581520806	3.50	6.48
12/02/2020 15:20:07	120220	12022020	152007	91.01	12.418765	-57.028265	91.06	-0.060	1.080	1.020	91.01	-0.30	1.40	 	 	 	 	 	 	 	 	 	 	 	 	 	 	 	 	 	 	1581520807	3.67	6.80
12/02/2020 15:20:08	120220	12022020	152008	90.74	12.418767	-57.028247	90.77	-0.740	1.200	1.260	90.67	-0.20	1.70	 	 	 	 	 	 	 	 	 	 	 	 	 	 	 	 	 	 	1581520808	3.99	7.39
12/02/2020 15:20:09	120220	12022020	152009	90.48	12.418765	-57.028225	90.57	-1.060	0.650	1.470	90.48	-0.70	1.90	 	 	 	 	 	 	 	 	 	 	 	 	 	 	 	 	 	 	1581520809	4.35	8.06
12/02/2020 15:20:10	120220	12022020	152010	90.56	12.418765	-57.028202	90.70	-0.810	-0.450	1.170	90.60	-1.70	1.60	 	 	 	 	 	 	 	 	 	 	 	 	 	 	 	 	 	 	1581520810	4.88	9.04
12/02/2020 15:20:11	120220	12022020	152011	90.73	12.418765	-57.028177	90.84	-0.130	-1.460	0.820	90.75	-2.80	1.20	 	 	 	 	 	 	 	 	 	 	 	 	 	 	 	 	 	 	1581520811	5.28	9.78
12/02/2020 15:20:12	120220	12022020	152012	90.76	12.418768	-57.028153	90.85	0.560	-1.720	0.570	90.76	-3.10	1.00	 	 	 	 	 	 	 	 	 	 	 	 	 	 	 	 	 	 	1581520812	5.16	9.56
12/02/2020 15:20:13	120220	12022020	152013	90.85	12.418770	-57.028132	90.97	0.760	-0.830	0.430	90.89	-2.30	0.90	 	 	 	 	 	 	 	 	 	 	 	 	 	 	 	 	 	 	1581520813	4.40	8.15
12/02/2020 15:20:14	120220	12022020	152014	91.08	12.418772	-57.028117	91.20	0.320	0.620	0.470	91.13	-0.80	0.90	 	 	 	 	 	 	 	 	 	 	 	 	 	 	 	 	 	 	1581520814	3.29	6.09
12/02/2020 15:20:15	120220	12022020	152015	91.21	12.418772	-57.028103	91.30	-0.350	1.380	0.730	91.20	0.00	1.10	 	 	 	 	 	 	 	 	 	 	 	 	 	 	 	 	 	 	1581520815	2.96	5.48
12/02/2020 15:20:16	120220	12022020	152016	91.10	12.418770	-57.028085	91.17	-0.610	0.750	1.030	91.06	-0.50	1.40	 	 	 	 	 	 	 	 	 	 	 	 	 	 	 	 	 	 	1581520816	3.95	7.32
12/02/2020 15:20:17	120220	12022020	152017	90.89	12.418770	-57.028060	90.96	-0.250	-0.540	1.310	90.86	-1.80	1.70	 	 	 	 	 	 	 	 	 	 	 	 	 	 	 	 	 	 	1581520817	5.25	9.72
12/02/2020 15:20:18	120220	12022020	152018	90.77	12.418770	-57.028033	90.87	0.340	-1.330	1.490	90.77	-2.70	1.90	 	 	 	 	 	 	 	 	 	 	 	 	 	 	 	 	 	 	1581520818	5.46	10.11
12/02/2020 15:20:19	120220	12022020	152019	90.81	12.418772	-57.028010	90.92	0.690	-1.340	1.460	90.83	-2.70	1.90	 	 	 	 	 	 	 	 	 	 	 	 	 	 	 	 	 	 	1581520819	4.81	8.91
12/02/2020 15:20:20	120220	12022020	152020	90.94	12.418773	-57.027990	91.07	0.630	-0.850	1.220	90.99	-2.20	1.70	 	 	 	 	 	 	 	 	 	 	 	 	 	 	 	 	 	 	1581520820	4.35	8.06
12/02/2020 15:20:21	120220	12022020	152021	91.30	12.418775	-57.027972	91.47	0.180	0.120	0.970	91.30	-1.30	1.40	 	 	 	 	 	 	 	 	 	 	 	 	 	 	 	 	 	 	1581520821	4.01	7.43
12/02/2020 15:20:22	120220	12022020	152022	91.73	12.418775	-57.027955	91.87	-0.440	1.110	1.040	91.79	-0.30	1.40	 	 	 	 	 	 	 	 	 	 	 	 	 	 	 	 	 	 	1581520822	3.39	6.28
12/02/2020 15:20:23	120220	12022020	152023	91.87	12.418775	-57.027938	91.94	-0.780	1.130	1.270	91.85	-0.20	1.70	 	 	 	 	 	 	 	 	 	 	 	 	 	 	 	 	 	 	1581520823	3.50	6.48
12/02/2020 15:20:24	120220	12022020	152024	91.65	12.418773	-57.027917	91.69	-0.580	0.010	1.400	91.59	-1.30	1.80	 	 	 	 	 	 	 	 	 	 	 	 	 	 	 	 	 	 	1581520824	4.68	8.67
12/02/2020 15:20:25	120220	12022020	152025	91.42	12.418773	-57.027890	91.50	-0.100	-1.090	1.430	91.41	-2.40	1.90	 	 	 	 	 	 	 	 	 	 	 	 	 	 	 	 	 	 	1581520825	5.59	10.35
12/02/2020 15:20:26	120220	12022020	152026	91.55	12.418773	-57.027867	91.70	0.170	-1.080	1.230	91.62	-2.50	1.70	 	 	 	 	 	 	 	 	 	 	 	 	 	 	 	 	 	 	1581520826	5.04	9.33
12/02/2020 15:20:27	120220	12022020	152027	91.98	12.418775	-57.027848	92.14	0.150	-0.390	0.700	92.07	-1.80	1.20	 	 	 	 	 	 	 	 	 	 	 	 	 	 	 	 	 	 	1581520827	3.79	7.02
12/02/2020 15:20:28	120220	12022020	152028	92.34	12.418778	-57.027832	92.44	0.190	-0.090	0.200	92.37	-1.40	0.60	 	 	 	 	 	 	 	 	 	 	 	 	 	 	 	 	 	 	1581520828	3.64	6.74
12/02/2020 15:20:29	120220	12022020	152029	92.37	12.418782	-57.027812	92.41	0.470	-0.430	0.090	92.34	-1.80	0.50	 	 	 	 	 	 	 	 	 	 	 	 	 	 	 	 	 	 	1581520829	4.44	8.22
12/02/2020 15:20:30	120220	12022020	152030	92.13	12.418783	-57.027788	92.16	0.620	-0.700	0.400	92.07	-2.00	0.80	 	 	 	 	 	 	 	 	 	 	 	 	 	 	 	 	 	 	1581520830	5.03	9.32
12/02/2020 15:20:31	120220	12022020	152031	91.82	12.418780	-57.027765	91.88	0.370	-0.430	0.960	91.79	-1.80	1.40	 	 	 	 	 	 	 	 	 	 	 	 	 	 	 	 	 	 	1581520831	4.78	8.85
12/02/2020 15:20:32	120220	12022020	152032	91.77	12.418778	-57.027745	91.91	-0.120	0.250	1.190	91.82	-1.10	1.60	 	 	 	 	 	 	 	 	 	 	 	 	 	 	 	 	 	 	1581520832	4.15	7.69
12/02/2020 15:20:33	120220	12022020	152033	92.16	12.418778	-57.027728	92.34	-0.520	0.930	0.940	92.29	-0.50	1.40	 	 	 	 	 	 	 	 	 	 	 	 	 	 	 	 	 	 	1581520833	3.65	6.76
12/02/2020 15:20:34	120220	12022020	152034	92.76	12.418780	-57.027712	92.91	-0.700	0.950	0.670	92.86	-0.40	1.10	 	 	 	 	 	 	 	 	 	 	 	 	 	 	 	 	 	 	1581520834	3.68	6.82
12/02/2020 15:20:35	120220	12022020	152035	93.12	12.418780	-57.027690	93.20	-0.570	0.110	0.680	93.13	-1.20	1.10	 	 	 	 	 	 	 	 	 	 	 	 	 	 	 	 	 	 	1581520835	4.35	8.06
12/02/2020 15:20:36	120220	12022020	152036	93.01	12.418777	-57.027667	93.04	-0.210	-0.930	0.970	92.95	-2.20	1.40	 	 	 	 	 	 	 	 	 	 	 	 	 	 	 	 	 	 	1581520836	5.12	9.48
12/02/2020 15:20:37	120220	12022020	152037	92.57	12.418773	-57.027643	92.58	0.160	-1.270	1.440	92.48	-2.60	1.80	 	 	 	 	 	 	 	 	 	 	 	 	 	 	 	 	 	 	1581520837	4.95	9.17
12/02/2020 15:20:38	120220	12022020	152038	92.13	12.418772	-57.027623	92.17	0.410	-0.940	1.770	92.07	-2.30	2.20	 	 	 	 	 	 	 	 	 	 	 	 	 	 	 	 	 	 	1581520838	4.20	7.78
12/02/2020 15:20:39	120220	12022020	152039	91.98	12.418773	-57.027605	92.07	0.560	-0.640	1.600	92.00	-2.00	2.00	 	 	 	 	 	 	 	 	 	 	 	 	 	 	 	 	 	 	1581520839	3.96	7.33
12/02/2020 15:20:40	120220	12022020	152040	92.10	12.418777	-57.027583	92.18	0.660	-0.770	0.980	92.11	-2.10	1.40	 	 	 	 	 	 	 	 	 	 	 	 	 	 	 	 	 	 	1581520840	4.58	8.48
12/02/2020 15:20:41	120220	12022020	152041	92.02	12.418780	-57.027558	92.04	0.580	-0.830	0.700	91.97	-2.20	1.10	 	 	 	 	 	 	 	 	 	 	 	 	 	 	 	 	 	 	1581520841	5.20	9.63
12/02/2020 15:20:42	120220	12022020	152042	91.81	12.418778	-57.027537	91.86	0.140	0.030	0.860	91.80	-1.40	1.30	 	 	 	 	 	 	 	 	 	 	 	 	 	 	 	 	 	 	1581520842	4.77	8.83
12/02/2020 15:20:43	120220	12022020	152043	91.92	12.418777	-57.027520	92.03	-0.540	1.670	0.880	91.99	0.20	1.30	 	 	 	 	 	 	 	 	 	 	 	 	 	 	 	 	 	 	1581520843	3.40	6.30
12/02/2020 15:20:44	120220	12022020	152044	92.32	12.418777	-57.027508	92.43	-1.100	2.520	0.650	92.40	1.10	1.10	 	 	 	 	 	 	 	 	 	 	 	 	 	 	 	 	 	 	1581520844	2.55	4.72
12/02/2020 15:20:45	120220	12022020	152045	92.54	12.418777	-57.027492	92.60	-1.070	1.290	0.570	92.56	0.00	1.00	 	 	 	 	 	 	 	 	 	 	 	 	 	 	 	 	 	 	1581520845	3.66	6.78
12/02/2020 15:20:46	120220	12022020	152046	92.35	12.418775	-57.027465	92.36	-0.430	-1.190	0.910	92.27	-2.40	1.30	 	 	 	 	 	 	 	 	 	 	 	 	 	 	 	 	 	 	1581520846	5.61	10.39
12/02/2020 15:20:47	120220	12022020	152047	91.91	12.418772	-57.027435	91.93	0.440	-2.940	1.400	91.82	-4.20	1.80	 	 	 	 	 	 	 	 	 	 	 	 	 	 	 	 	 	 	1581520847	6.29	11.65
12/02/2020 15:20:48	120220	12022020	152048	91.52	12.418770	-57.027412	91.56	1.090	-2.810	1.650	91.46	-4.20	2.10	 	 	 	 	 	 	 	 	 	 	 	 	 	 	 	 	 	 	1581520848	5.15	9.54
12/02/2020 15:20:49	120220	12022020	152049	91.29	12.418772	-57.027393	91.36	1.220	-1.360	1.550	91.28	-2.80	2.00	 	 	 	 	 	 	 	 	 	 	 	 	 	 	 	 	 	 	1581520849	3.71	6.87
12/02/2020 15:20:50	120220	12022020	152050	91.33	12.418775	-57.027378	91.45	0.770	0.200	1.230	91.37	-1.30	1.70	 	 	 	 	 	 	 	 	 	 	 	 	 	 	 	 	 	 	1581520850	3.26	6.04
12/02/2020 15:20:51	120220	12022020	152051	91.60	12.418777	-57.027362	91.74	-0.060	1.170	0.910	91.68	-0.20	1.30	 	 	 	 	 	 	 	 	 	 	 	 	 	 	 	 	 	 	1581520851	3.60	6.67
12/02/2020 15:20:52	120220	12022020	152052	91.96	12.418777	-57.027343	92.07	-0.900	1.510	0.770	92.01	0.10	1.20	 	 	 	 	 	 	 	 	 	 	 	 	 	 	 	 	 	 	1581520852	4.01	7.43
12/02/2020 15:20:53	120220	12022020	152053	92.13	12.418775	-57.027323	92.22	-1.320	1.380	0.910	92.13	0.00	1.30	 	 	 	 	 	 	 	 	 	 	 	 	 	 	 	 	 	 	1581520853	4.25	7.87
12/02/2020 15:20:54	120220	12022020	152054	92.01	12.418772	-57.027303	92.06	-1.140	0.790	1.200	91.97	-0.50	1.60	 	 	 	 	 	 	 	 	 	 	 	 	 	 	 	 	 	 	1581520854	4.33	8.02
12/02/2020 15:20:55	120220	12022020	152055	91.78	12.418768	-57.027282	91.82	-0.510	-0.320	1.370	91.73	-1.60	1.80	 	 	 	 	 	 	 	 	 	 	 	 	 	 	 	 	 	 	1581520855	4.59	8.50
12/02/2020 15:20:56	120220	12022020	152056	91.53	12.418768	-57.027257	91.57	0.350	-1.730	1.520	91.49	-3.00	1.90	 	 	 	 	 	 	 	 	 	 	 	 	 	 	 	 	 	 	1581520856	5.09	9.43
12/02/2020 15:20:57	120220	12022020	152057	91.36	12.418768	-57.027230	91.40	1.170	-2.660	1.510	91.34	-4.00	1.90	 	 	 	 	 	 	 	 	 	 	 	 	 	 	 	 	 	 	1581520857	5.57	10.32
12/02/2020 15:20:58	120220	12022020	152058	91.31	12.418770	-57.027207	91.39	1.370	-1.840	1.200	91.33	-3.30	1.60	 	 	 	 	 	 	 	 	 	 	 	 	 	 	 	 	 	 	1581520858	5.09	9.43
12/02/2020 15:20:59	120220	12022020	152059	91.41	12.418775	-57.027192	91.55	0.690	0.420	0.870	91.45	-1.10	1.30	 	 	 	 	 	 	 	 	 	 	 	 	 	 	 	 	 	 	1581520859	3.29	6.09
12/02/2020 15:21:00	120220	12022020	152100	91.70	12.418778	-57.027182	91.81	-0.370	2.120	0.740	91.76	0.70	1.20	 	 	 	 	 	 	 	 	 	 	 	 	 	 	 	 	 	 	1581520860	2.19	4.06
12/02/2020 15:21:01	120220	12022020	152101	91.96	12.418778	-57.027167	92.06	-0.990	1.820	0.800	91.98	0.50	1.20	 	 	 	 	 	 	 	 	 	 	 	 	 	 	 	 	 	 	1581520861	3.21	5.94
12/02/2020 15:21:02	120220	12022020	152102	91.95	12.418777	-57.027143	92.01	-0.890	0.110	1.120	91.90	-1.10	1.50	1017.10	26.70	26.70	20.20	20.20	691.0	67.0	67.0	440.0	28.5	350.00	14.40	80.00	12.20	54123	13126.0	27.5	27.5	1581520862	5.15	9.54
12/02/2020 15:21:03	120220	12022020	152103	91.64	12.418772	-57.027115	91.68	-0.320	-1.450	1.560	91.56	-2.70	2.00	 	 	 	 	 	 	 	 	 	 	 	 	 	 	 	 	 	 	1581520863	5.96	11.04
12/02/2020 15:21:04	120220	12022020	152104	91.26	12.418768	-57.027090	91.32	0.270	-1.810	1.930	91.19	-3.20	2.30	 	 	 	 	 	 	 	 	 	 	 	 	 	 	 	 	 	 	1581520864	5.36	9.93
12/02/2020 15:21:05	120220	12022020	152105	91.01	12.418767	-57.027070	91.11	0.470	-1.010	1.990	91.00	-2.40	2.40	 	 	 	 	 	 	 	 	 	 	 	 	 	 	 	 	 	 	1581520865	4.11	7.61
12/02/2020 15:21:06	120220	12022020	152106	91.08	12.418768	-57.027055	91.21	0.260	0.100	1.530	91.13	-1.30	2.00	 	 	 	 	 	 	 	 	 	 	 	 	 	 	 	 	 	 	1581520866	3.30	6.11
12/02/2020 15:21:07	120220	12022020	152107	91.32	12.418773	-57.027038	91.41	-0.020	0.610	0.830	91.36	-0.80	1.30	 	 	 	 	 	 	 	 	 	 	 	 	 	 	 	 	 	 	1581520867	3.56	6.59
12/02/2020 15:21:08	120220	12022020	152108	91.39	12.418778	-57.027018	91.43	-0.090	0.350	0.380	91.37	-1.00	0.80	 	 	 	 	 	 	 	 	 	 	 	 	 	 	 	 	 	 	1581520868	4.36	8.07
12/02/2020 15:21:09	120220	12022020	152109	91.22	12.418780	-57.026995	91.24	-0.020	-0.020	0.300	91.18	-1.40	0.70	 	 	 	 	 	 	 	 	 	 	 	 	 	 	 	 	 	 	1581520869	4.81	8.91
12/02/2020 15:21:10	120220	12022020	152110	91.09	12.418780	-57.026973	91.14	0.060	-0.140	0.230	91.09	-1.50	0.70	 	 	 	 	 	 	 	 	 	 	 	 	 	 	 	 	 	 	1581520870	4.55	8.43
12/02/2020 15:21:11	120220	12022020	152111	91.17	12.418783	-57.026953	91.24	0.130	-0.330	0.050	91.17	-1.70	0.50	 	 	 	 	 	 	 	 	 	 	 	 	 	 	 	 	 	 	1581520871	4.29	7.95
12/02/2020 15:21:12	120220	12022020	152112	91.32	12.418785	-57.026932	91.39	0.250	-0.780	0.120	91.35	-2.10	0.50	 	 	 	 	 	 	 	 	 	 	 	 	 	 	 	 	 	 	1581520872	4.58	8.48
12/02/2020 15:21:13	120220	12022020	152113	91.46	12.418787	-57.026910	91.59	0.180	-0.820	0.500	91.49	-2.20	0.90	 	 	 	 	 	 	 	 	 	 	 	 	 	 	 	 	 	 	1581520873	4.84	8.96
12/02/2020 15:21:14	120220	12022020	152114	91.60	12.418783	-57.026890	91.67	-0.290	-0.040	1.290	91.59	-1.50	1.70	 	 	 	 	 	 	 	 	 	 	 	 	 	 	 	 	 	 	1581520874	4.10	7.59
12/02/2020 15:21:15	120220	12022020	152115	91.48	12.418777	-57.026875	91.55	-0.820	0.850	2.240	91.43	-0.50	2.60	 	 	 	 	 	 	 	 	 	 	 	 	 	 	 	 	 	 	1581520875	3.44	6.37
12/02/2020 15:21:16	120220	12022020	152116	91.21	12.418770	-57.026860	91.27	-0.790	0.690	2.830	91.15	-0.60	3.20	 	 	 	 	 	 	 	 	 	 	 	 	 	 	 	 	 	 	1581520876	3.72	6.89
12/02/2020 15:21:17	120220	12022020	152117	90.97	12.418767	-57.026837	91.05	-0.030	-0.640	2.690	90.95	-1.90	3.10	 	 	 	 	 	 	 	 	 	 	 	 	 	 	 	 	 	 	1581520877	4.91	9.09
12/02/2020 15:21:18	120220	12022020	152118	91.01	12.418772	-57.026808	91.13	0.880	-1.830	1.860	91.07	-3.10	2.40	 	 	 	 	 	 	 	 	 	 	 	 	 	 	 	 	 	 	1581520878	5.95	11.02
12/02/2020 15:21:19	120220	12022020	152119	91.38	12.418780	-57.026783	91.52	1.160	-1.580	0.780	91.47	-3.00	1.30	 	 	 	 	 	 	 	 	 	 	 	 	 	 	 	 	 	 	1581520879	5.60	10.37
12/02/2020 15:21:20	120220	12022020	152120	91.80	12.418787	-57.026765	91.90	0.590	-0.180	-0.130	91.86	-1.70	0.30	 	 	 	 	 	 	 	 	 	 	 	 	 	 	 	 	 	 	1581520880	4.15	7.69
12/02/2020 15:21:21	120220	12022020	152121	91.98	12.418792	-57.026752	92.04	-0.250	1.090	-0.490	91.98	-0.30	-0.10	 	 	 	 	 	 	 	 	 	 	 	 	 	 	 	 	 	 	1581520881	3.10	5.74
12/02/2020 15:21:22	120220	12022020	152122	91.93	12.418793	-57.026735	91.99	-0.720	1.370	-0.280	91.93	-0.00	0.10	 	 	 	 	 	 	 	 	 	 	 	 	 	 	 	 	 	 	1581520882	3.44	6.37
12/02/2020 15:21:23	120220	12022020	152123	91.98	12.418790	-57.026715	92.07	-0.710	0.890	0.120	92.01	-0.50	0.50	 	 	 	 	 	 	 	 	 	 	 	 	 	 	 	 	 	 	1581520883	4.33	8.02
12/02/2020 15:21:24	120220	12022020	152124	92.12	12.418788	-57.026693	92.22	-0.480	0.040	0.550	92.14	-1.30	0.90	 	 	 	 	 	 	 	 	 	 	 	 	 	 	 	 	 	 	1581520884	4.67	8.65
12/02/2020 15:21:25	120220	12022020	152125	92.13	12.418787	-57.026670	92.20	-0.210	-0.890	0.980	92.12	-2.20	1.40	 	 	 	 	 	 	 	 	 	 	 	 	 	 	 	 	 	 	1581520885	4.80	8.89
12/02/2020 15:21:26	120220	12022020	152126	92.04	12.418785	-57.026648	92.12	0.030	-1.370	1.440	92.03	-2.70	1.80	 	 	 	 	 	 	 	 	 	 	 	 	 	 	 	 	 	 	1581520886	4.77	8.83
12/02/2020 15:21:27	120220	12022020	152127	92.02	12.418783	-57.026627	92.12	0.240	-1.210	1.860	92.02	-2.60	2.30	 	 	 	 	 	 	 	 	 	 	 	 	 	 	 	 	 	 	1581520887	4.34	8.04
12/02/2020 15:21:28	120220	12022020	152128	91.99	12.418780	-57.026608	92.08	0.510	-0.810	2.030	91.98	-2.20	2.40	 	 	 	 	 	 	 	 	 	 	 	 	 	 	 	 	 	 	1581520888	3.96	7.33
12/02/2020 15:21:29	120220	12022020	152129	91.90	12.418782	-57.026588	91.97	0.810	-0.720	1.910	91.89	-2.10	2.30	 	 	 	 	 	 	 	 	 	 	 	 	 	 	 	 	 	 	1581520889	4.28	7.93
12/02/2020 15:21:30	120220	12022020	152130	91.90	12.418783	-57.026565	91.99	0.800	-0.550	1.580	91.92	-1.90	2.00	 	 	 	 	 	 	 	 	 	 	 	 	 	 	 	 	 	 	1581520890	4.89	9.06
12/02/2020 15:21:31	120220	12022020	152131	92.06	12.418785	-57.026543	92.16	0.250	0.270	1.200	92.10	-1.20	1.60	 	 	 	 	 	 	 	 	 	 	 	 	 	 	 	 	 	 	1581520891	4.53	8.39
12/02/2020 15:21:32	120220	12022020	152132	92.27	12.418787	-57.026527	92.35	-0.620	1.450	0.720	92.31	0.00	1.20	 	 	 	 	 	 	 	 	 	 	 	 	 	 	 	 	 	 	1581520892	3.56	6.59
12/02/2020 15:21:33	120220	12022020	152133	92.48	12.418790	-57.026513	92.55	-1.250	1.970	0.180	92.51	0.60	0.60	 	 	 	 	 	 	 	 	 	 	 	 	 	 	 	 	 	 	1581520893	3.18	5.89
12/02/2020 15:21:34	120220	12022020	152134	92.64	12.418792	-57.026495	92.70	-1.140	1.110	-0.210	92.66	-0.20	0.20	 	 	 	 	 	 	 	 	 	 	 	 	 	 	 	 	 	 	1581520894	3.86	7.15
12/02/2020 15:21:35	120220	12022020	152135	92.67	12.418793	-57.026470	92.68	-0.320	-0.780	-0.250	92.65	-2.00	0.20	 	 	 	 	 	 	 	 	 	 	 	 	 	 	 	 	 	 	1581520895	5.15	9.54
12/02/2020 15:21:36	120220	12022020	152136	92.43	12.418793	-57.026442	92.46	0.670	-2.450	0.010	92.38	-3.70	0.40	 	 	 	 	 	 	 	 	 	 	 	 	 	 	 	 	 	 	1581520896	5.87	10.87
12/02/2020 15:21:37	120220	12022020	152137	92.27	12.418795	-57.026417	92.35	1.170	-2.720	0.410	92.27	-4.10	0.80	 	 	 	 	 	 	 	 	 	 	 	 	 	 	 	 	 	 	1581520897	5.45	10.09
12/02/2020 15:21:38	120220	12022020	152138	92.34	12.418793	-57.026397	92.45	0.930	-1.380	0.980	92.37	-2.80	1.40	 	 	 	 	 	 	 	 	 	 	 	 	 	 	 	 	 	 	1581520898	4.12	7.63
12/02/2020 15:21:39	120220	12022020	152139	92.50	12.418790	-57.026383	92.61	0.190	0.580	1.580	92.53	-0.90	2.00	 	 	 	 	 	 	 	 	 	 	 	 	 	 	 	 	 	 	1581520899	2.97	5.50
12/02/2020 15:21:40	120220	12022020	152140	92.60	12.418785	-57.026370	92.71	-0.480	1.660	1.980	92.62	0.30	2.40	 	 	 	 	 	 	 	 	 	 	 	 	 	 	 	 	 	 	1581520900	2.94	5.44
12/02/2020 15:21:41	120220	12022020	152141	92.58	12.418783	-57.026352	92.65	-0.620	1.220	2.080	92.56	-0.10	2.50	 	 	 	 	 	 	 	 	 	 	 	 	 	 	 	 	 	 	1581520901	4.06	7.52
12/02/2020 15:21:42	120220	12022020	152142	92.47	12.418782	-57.026327	92.52	-0.320	0.100	1.880	92.46	-1.20	2.30	 	 	 	 	 	 	 	 	 	 	 	 	 	 	 	 	 	 	1581520902	5.33	9.87
12/02/2020 15:21:43	120220	12022020	152143	92.43	12.418783	-57.026300	92.48	-0.070	-0.450	1.500	92.44	-1.80	2.00	 	 	 	 	 	 	 	 	 	 	 	 	 	 	 	 	 	 	1581520903	5.36	9.93
12/02/2020 15:21:44	120220	12022020	152144	92.55	12.418785	-57.026280	92.63	-0.170	-0.260	1.060	92.60	-1.60	1.50	 	 	 	 	 	 	 	 	 	 	 	 	 	 	 	 	 	 	1581520904	4.35	8.06
12/02/2020 15:21:45	120220	12022020	152145	92.84	12.418788	-57.026263	92.92	-0.360	-0.090	0.540	92.91	-1.40	1.00	 	 	 	 	 	 	 	 	 	 	 	 	 	 	 	 	 	 	1581520905	3.67	6.80
12/02/2020 15:21:46	120220	12022020	152146	93.11	12.418792	-57.026245	93.17	-0.130	-0.570	0.080	93.14	-1.90	0.50	 	 	 	 	 	 	 	 	 	 	 	 	 	 	 	 	 	 	1581520906	4.01	7.43
12/02/2020 15:21:47	120220	12022020	152147	93.14	12.418793	-57.026222	93.16	0.660	-1.520	0.030	93.09	-2.80	0.50	 	 	 	 	 	 	 	 	 	 	 	 	 	 	 	 	 	 	1581520907	4.95	9.17
12/02/2020 15:21:48	120220	12022020	152148	92.80	12.418793	-57.026195	92.79	1.330	-1.910	0.550	92.71	-3.30	0.90	 	 	 	 	 	 	 	 	 	 	 	 	 	 	 	 	 	 	1581520908	5.53	10.24
12/02/2020 15:21:49	120220	12022020	152149	92.47	12.418792	-57.026173	92.47	1.000	-0.750	1.390	92.42	-2.20	1.80	 	 	 	 	 	 	 	 	 	 	 	 	 	 	 	 	 	 	1581520909	4.81	8.91
12/02/2020 15:21:50	120220	12022020	152150	92.35	12.418787	-57.026158	92.46	-0.330	1.450	2.150	92.38	-0.00	2.50	 	 	 	 	 	 	 	 	 	 	 	 	 	 	 	 	 	 	1581520910	3.05	5.65
12/02/2020 15:21:51	120220	12022020	152151	92.66	12.418783	-57.026150	92.82	-1.640	2.970	2.280	92.76	1.60	2.70	 	 	 	 	 	 	 	 	 	 	 	 	 	 	 	 	 	 	1581520911	2.06	3.82
12/02/2020 15:21:52	120220	12022020	152152	93.22	12.418782	-57.026137	93.38	-1.710	2.070	1.700	93.33	0.80	2.20	 	 	 	 	 	 	 	 	 	 	 	 	 	 	 	 	 	 	1581520912	2.89	5.35
12/02/2020 15:21:53	120220	12022020	152153	93.81	12.418785	-57.026110	93.93	-0.480	-0.840	0.890	93.91	-2.00	1.40	 	 	 	 	 	 	 	 	 	 	 	 	 	 	 	 	 	 	1581520913	5.53	10.24
12/02/2020 15:21:54	120220	12022020	152154	94.10	12.418787	-57.026078	94.17	0.860	-3.180	0.570	94.09	-4.40	1.00	 	 	 	 	 	 	 	 	 	 	 	 	 	 	 	 	 	 	1581520914	6.86	12.70
12/02/2020 15:21:55	120220	12022020	152155	93.89	12.418785	-57.026052	93.89	1.250	-2.990	0.850	93.81	-4.40	1.30	 	 	 	 	 	 	 	 	 	 	 	 	 	 	 	 	 	 	1581520915	5.48	10.15
12/02/2020 15:21:56	120220	12022020	152156	93.41	12.418782	-57.026038	93.39	0.740	-0.750	1.190	93.30	-2.30	1.60	 	 	 	 	 	 	 	 	 	 	 	 	 	 	 	 	 	 	1581520916	2.96	5.48
12/02/2020 15:21:57	120220	12022020	152157	92.92	12.418782	-57.026030	92.92	0.110	1.320	1.100	92.85	-0.10	1.50	 	 	 	 	 	 	 	 	 	 	 	 	 	 	 	 	 	 	1581520917	1.77	3.28
12/02/2020 15:21:58	120220	12022020	152158	92.70	12.418785	-57.026017	92.75	-0.210	1.880	0.490	92.70	0.50	1.00	 	 	 	 	 	 	 	 	 	 	 	 	 	 	 	 	 	 	1581520918	2.89	5.35
12/02/2020 15:21:59	120220	12022020	152159	92.84	12.418792	-57.025997	92.91	-0.320	1.150	-0.330	92.88	-0.20	0.10	 	 	 	 	 	 	 	 	 	 	 	 	 	 	 	 	 	 	1581520919	4.44	8.22
12/02/2020 15:22:00	120220	12022020	152200	93.13	12.418797	-57.025973	93.20	-0.340	-0.080	-1.030	93.19	-1.40	-0.60	 	 	 	 	 	 	 	 	 	 	 	 	 	 	 	 	 	 	1581520920	5.12	9.48
12/02/2020 15:22:01	120220	12022020	152201	93.32	12.418800	-57.025950	93.40	-0.250	-1.150	-1.190	93.36	-2.40	-0.80	 	 	 	 	 	 	 	 	 	 	 	 	 	 	 	 	 	 	1581520921	5.01	9.28
12/02/2020 15:22:02	120220	12022020	152202	93.32	12.418797	-57.025927	93.33	0.000	-1.660	-0.410	93.27	-3.00	-0.10	1017.00	26.70	26.70	19.90	19.90	604.0	66.0	66.0	440.0	28.4	347.00	14.20	77.00	12.00	49365	10988.0	27.5	27.4	1581520922	4.74	8.78
12/02/2020 15:22:03	120220	12022020	152203	93.08	12.418788	-57.025908	93.05	0.260	-1.290	0.910	93.01	-2.70	1.30	 	 	 	 	 	 	 	 	 	 	 	 	 	 	 	 	 	 	1581520923	4.48	8.30
12/02/2020 15:22:04	120220	12022020	152204	92.80	12.418782	-57.025892	92.89	0.290	-0.320	1.810	92.80	-1.70	2.20	 	 	 	 	 	 	 	 	 	 	 	 	 	 	 	 	 	 	1581520924	3.86	7.15
12/02/2020 15:22:05	120220	12022020	152205	92.83	12.418777	-57.025877	92.91	0.060	0.550	2.210	92.83	-0.90	2.60	 	 	 	 	 	 	 	 	 	 	 	 	 	 	 	 	 	 	1581520925	3.35	6.20
12/02/2020 15:22:06	120220	12022020	152206	92.72	12.418773	-57.025860	92.75	-0.310	0.940	2.510	92.67	-0.40	2.90	 	 	 	 	 	 	 	 	 	 	 	 	 	 	 	 	 	 	1581520926	3.52	6.52
12/02/2020 15:22:07	120220	12022020	152207	92.37	12.418773	-57.025842	92.37	-0.580	0.880	2.460	92.29	-0.50	2.90	 	 	 	 	 	 	 	 	 	 	 	 	 	 	 	 	 	 	1581520927	3.77	6.98
12/02/2020 15:22:08	120220	12022020	152208	92.02	12.418775	-57.025823	92.03	-0.460	0.280	1.810	91.98	-1.00	2.30	 	 	 	 	 	 	 	 	 	 	 	 	 	 	 	 	 	 	1581520928	4.10	7.59
12/02/2020 15:22:09	120220	12022020	152209	91.98	12.418780	-57.025802	92.05	0.030	-0.740	0.800	92.04	-2.00	1.30	 	 	 	 	 	 	 	 	 	 	 	 	 	 	 	 	 	 	1581520929	4.77	8.83
12/02/2020 15:22:10	120220	12022020	152210	92.40	12.418787	-57.025778	92.50	0.580	-1.590	-0.160	92.50	-2.90	0.30	 	 	 	 	 	 	 	 	 	 	 	 	 	 	 	 	 	 	1581520930	5.14	9.52
12/02/2020 15:22:11	120220	12022020	152211	92.81	12.418792	-57.025755	92.85	0.880	-1.790	-0.660	92.83	-3.20	-0.20	 	 	 	 	 	 	 	 	 	 	 	 	 	 	 	 	 	 	1581520931	4.88	9.04
12/02/2020 15:22:12	120220	12022020	152212	92.61	12.418793	-57.025735	92.56	0.820	-1.200	-0.390	92.50	-2.60	0.00	 	 	 	 	 	 	 	 	 	 	 	 	 	 	 	 	 	 	1581520932	4.27	7.91
12/02/2020 15:22:13	120220	12022020	152213	92.04	12.418792	-57.025718	92.03	0.420	0.070	0.370	91.95	-1.40	0.80	 	 	 	 	 	 	 	 	 	 	 	 	 	 	 	 	 	 	1581520933	3.64	6.74
12/02/2020 15:22:14	120220	12022020	152214	91.78	12.418788	-57.025703	91.87	-0.180	1.360	1.160	91.79	-0.10	1.50	 	 	 	 	 	 	 	 	 	 	 	 	 	 	 	 	 	 	1581520934	3.14	5.82
12/02/2020 15:22:15	120220	12022020	152215	92.00	12.418787	-57.025688	92.15	-0.780	1.910	1.690	92.07	0.50	2.10	 	 	 	 	 	 	 	 	 	 	 	 	 	 	 	 	 	 	1581520935	3.19	5.91
12/02/2020 15:22:16	120220	12022020	152216	92.36	12.418783	-57.025672	92.48	-1.130	1.370	1.880	92.41	0.00	2.30	 	 	 	 	 	 	 	 	 	 	 	 	 	 	 	 	 	 	1581520936	3.69	6.83
12/02/2020 15:22:17	120220	12022020	152217	92.53	12.418780	-57.025650	92.60	-0.910	-0.180	1.940	92.53	-1.40	2.40	 	 	 	 	 	 	 	 	 	 	 	 	 	 	 	 	 	 	1581520937	4.54	8.41
12/02/2020 15:22:18	120220	12022020	152218	92.49	12.418778	-57.025625	92.57	-0.010	-1.910	2.000	92.48	-3.20	2.40	 	 	 	 	 	 	 	 	 	 	 	 	 	 	 	 	 	 	1581520938	5.35	9.91
12/02/2020 15:22:19	120220	12022020	152219	92.41	12.418778	-57.025598	92.49	0.960	-2.610	2.010	92.40	-4.00	2.40	 	 	 	 	 	 	 	 	 	 	 	 	 	 	 	 	 	 	1581520939	5.39	9.98
12/02/2020 15:22:20	120220	12022020	152220	92.38	12.418780	-57.025578	92.47	1.210	-1.650	1.860	92.40	-3.10	2.30	 	 	 	 	 	 	 	 	 	 	 	 	 	 	 	 	 	 	1581520940	4.26	7.89
12/02/2020 15:22:21	120220	12022020	152221	92.50	12.418783	-57.025565	92.60	0.600	0.190	1.360	92.54	-1.30	1.80	 	 	 	 	 	 	 	 	 	 	 	 	 	 	 	 	 	 	1581520941	2.92	5.41
12/02/2020 15:22:22	120220	12022020	152222	92.75	12.418788	-57.025553	92.84	-0.250	1.480	0.630	92.81	0.00	1.10	 	 	 	 	 	 	 	 	 	 	 	 	 	 	 	 	 	 	1581520942	2.61	4.83
12/02/2020 15:22:23	120220	12022020	152223	92.92	12.418792	-57.025538	92.98	-0.610	1.270	0.140	92.93	-0.10	0.60	 	 	 	 	 	 	 	 	 	 	 	 	 	 	 	 	 	 	1581520943	3.50	6.48
12/02/2020 15:22:24	120220	12022020	152224	92.90	12.418792	-57.025515	92.93	-0.340	0.040	-0.050	92.87	-1.30	0.40	 	 	 	 	 	 	 	 	 	 	 	 	 	 	 	 	 	 	1581520944	4.91	9.09
12/02/2020 15:22:25	120220	12022020	152225	92.69	12.418792	-57.025488	92.69	0.060	-0.840	0.020	92.63	-2.20	0.40	 	 	 	 	 	 	 	 	 	 	 	 	 	 	 	 	 	 	1581520945	5.41	10.02
12/02/2020 15:22:26	120220	12022020	152226	92.42	12.418792	-57.025468	92.44	0.100	-0.600	0.150	92.39	-2.00	0.60	 	 	 	 	 	 	 	 	 	 	 	 	 	 	 	 	 	 	1581520946	4.45	8.24
12/02/2020 15:22:27	120220	12022020	152227	92.45	12.418793	-57.025452	92.56	-0.220	0.090	0.140	92.52	-1.30	0.60	 	 	 	 	 	 	 	 	 	 	 	 	 	 	 	 	 	 	1581520947	3.29	6.09
12/02/2020 15:22:28	120220	12022020	152228	92.90	12.418795	-57.025437	93.04	-0.430	0.160	0.130	92.99	-1.20	0.50	 	 	 	 	 	 	 	 	 	 	 	 	 	 	 	 	 	 	1581520948	3.24	6.00
12/02/2020 15:22:29	120220	12022020	152229	93.21	12.418792	-57.025417	93.31	-0.200	-0.470	0.540	93.22	-1.80	0.90	 	 	 	 	 	 	 	 	 	 	 	 	 	 	 	 	 	 	1581520949	4.18	7.74
12/02/2020 15:22:30	120220	12022020	152230	93.08	12.418787	-57.025395	93.13	0.240	-1.030	1.270	93.02	-2.40	1.60	 	 	 	 	 	 	 	 	 	 	 	 	 	 	 	 	 	 	1581520950	4.86	9.00
12/02/2020 15:22:31	120220	12022020	152231	92.76	12.418783	-57.025373	92.81	0.500	-0.860	1.860	92.70	-2.20	2.20	 	 	 	 	 	 	 	 	 	 	 	 	 	 	 	 	 	 	1581520951	4.60	8.52
12/02/2020 15:22:32	120220	12022020	152232	92.53	12.418782	-57.025357	92.60	0.370	-0.070	2.140	92.51	-1.50	2.50	 	 	 	 	 	 	 	 	 	 	 	 	 	 	 	 	 	 	1581520952	3.75	6.95
12/02/2020 15:22:33	120220	12022020	152233	92.52	12.418782	-57.025340	92.60	-0.020	0.650	2.080	92.54	-0.70	2.50	 	 	 	 	 	 	 	 	 	 	 	 	 	 	 	 	 	 	1581520953	3.28	6.07
12/02/2020 15:22:34	120220	12022020	152234	92.60	12.418783	-57.025323	92.65	-0.310	0.600	1.680	92.61	-0.70	2.10	 	 	 	 	 	 	 	 	 	 	 	 	 	 	 	 	 	 	1581520954	3.57	6.61
12/02/2020 15:22:35	120220	12022020	152235	92.59	12.418787	-57.025303	92.62	-0.220	-0.180	1.230	92.57	-1.50	1.70	 	 	 	 	 	 	 	 	 	 	 	 	 	 	 	 	 	 	1581520955	4.47	8.28
12/02/2020 15:22:36	120220	12022020	152236	92.51	12.418788	-57.025278	92.53	0.130	-0.950	0.950	92.49	-2.30	1.40	 	 	 	 	 	 	 	 	 	 	 	 	 	 	 	 	 	 	1581520956	5.02	9.30
12/02/2020 15:22:37	120220	12022020	152237	92.46	12.418790	-57.025257	92.49	0.360	-1.050	0.720	92.45	-2.40	1.20	 	 	 	 	 	 	 	 	 	 	 	 	 	 	 	 	 	 	1581520957	4.82	8.93
12/02/2020 15:22:38	120220	12022020	152238	92.42	12.418792	-57.025237	92.45	0.240	-0.430	0.530	92.41	-1.80	1.00	 	 	 	 	 	 	 	 	 	 	 	 	 	 	 	 	 	 	1581520958	4.08	7.56
12/02/2020 15:22:39	120220	12022020	152239	92.42	12.418792	-57.025220	92.49	-0.120	0.340	0.510	92.43	-1.00	0.90	 	 	 	 	 	 	 	 	 	 	 	 	 	 	 	 	 	 	1581520959	3.48	6.44
12/02/2020 15:22:40	120220	12022020	152240	92.57	12.418792	-57.025203	92.64	-0.420	0.730	0.590	92.60	-0.60	1.00	 	 	 	 	 	 	 	 	 	 	 	 	 	 	 	 	 	 	1581520960	3.49	6.46
12/02/2020 15:22:41	120220	12022020	152241	92.77	12.418792	-57.025185	92.86	-0.510	0.590	0.610	92.81	-0.70	1.00	 	 	 	 	 	 	 	 	 	 	 	 	 	 	 	 	 	 	1581520961	3.85	7.13
12/02/2020 15:22:42	120220	12022020	152242	92.98	12.418792	-57.025165	93.08	-0.370	-0.060	0.640	93.02	-1.40	1.00	 	 	 	 	 	 	 	 	 	 	 	 	 	 	 	 	 	 	1581520962	4.25	7.87
12/02/2020 15:22:43	120220	12022020	152243	93.13	12.418790	-57.025143	93.21	-0.060	-0.950	0.900	93.13	-2.20	1.30	 	 	 	 	 	 	 	 	 	 	 	 	 	 	 	 	 	 	1581520963	4.70	8.70
12/02/2020 15:22:44	120220	12022020	152244	92.97	12.418787	-57.025120	93.01	0.320	-1.450	1.450	92.89	-2.80	1.80	 	 	 	 	 	 	 	 	 	 	 	 	 	 	 	 	 	 	1581520964	4.90	9.07
12/02/2020 15:22:45	120220	12022020	152245	92.52	12.418783	-57.025100	92.54	0.660	-1.260	1.890	92.42	-2.60	2.30	 	 	 	 	 	 	 	 	 	 	 	 	 	 	 	 	 	 	1581520965	4.53	8.39
12/02/2020 15:22:46	120220	12022020	152246	92.19	12.418783	-57.025080	92.25	0.830	-0.590	1.810	92.16	-2.00	2.20	 	 	 	 	 	 	 	 	 	 	 	 	 	 	 	 	 	 	1581520966	4.13	7.65
12/02/2020 15:22:47	120220	12022020	152247	92.23	12.418788	-57.025062	92.35	0.640	0.190	1.310	92.30	-1.20	1.80	 	 	 	 	 	 	 	 	 	 	 	 	 	 	 	 	 	 	1581520967	4.10	7.59
12/02/2020 15:22:48	120220	12022020	152248	92.75	12.418793	-57.025043	92.91	-0.010	0.920	0.630	92.90	-0.50	1.10	 	 	 	 	 	 	 	 	 	 	 	 	 	 	 	 	 	 	1581520968	4.08	7.56
12/02/2020 15:22:49	120220	12022020	152249	93.47	12.418797	-57.025025	93.61	-0.910	1.380	0.210	93.58	0.00	0.60	 	 	 	 	 	 	 	 	 	 	 	 	 	 	 	 	 	 	1581520969	3.67	6.80
12/02/2020 15:22:50	120220	12022020	152250	93.83	12.418795	-57.025008	93.90	-1.460	1.230	0.310	93.84	-0.10	0.70	 	 	 	 	 	 	 	 	 	 	 	 	 	 	 	 	 	 	1581520970	3.55	6.57
12/02/2020 15:22:51	120220	12022020	152251	93.75	12.418790	-57.024990	93.69	-1.130	0.160	0.870	93.69	-1.10	1.20	 	 	 	 	 	 	 	 	 	 	 	 	 	 	 	 	 	 	1581520971	4.15	7.69
12/02/2020 15:22:52	120220	12022020	152252	93.20	12.418783	-57.024967	93.18	0.030	-1.610	1.560	93.09	-2.90	1.90	 	 	 	 	 	 	 	 	 	 	 	 	 	 	 	 	 	 	1581520972	5.15	9.54
12/02/2020 15:22:53	120220	12022020	152253	92.75	12.418782	-57.024938	92.82	1.190	-2.890	1.950	92.71	-4.20	2.40	 	 	 	 	 	 	 	 	 	 	 	 	 	 	 	 	 	 	1581520973	5.86	10.85
12/02/2020 15:22:54	120220	12022020	152254	92.75	12.418782	-57.024913	92.89	1.410	-2.280	1.930	92.80	-3.70	2.40	 	 	 	 	 	 	 	 	 	 	 	 	 	 	 	 	 	 	1581520974	5.23	9.69
12/02/2020 15:22:55	120220	12022020	152255	93.12	12.418783	-57.024898	93.25	0.590	-0.010	1.640	93.21	-1.50	2.10	 	 	 	 	 	 	 	 	 	 	 	 	 	 	 	 	 	 	1581520975	3.20	5.93
12/02/2020 15:22:56	120220	12022020	152256	93.55	12.418785	-57.024890	93.65	-0.510	2.190	1.150	93.62	0.70	1.60	 	 	 	 	 	 	 	 	 	 	 	 	 	 	 	 	 	 	1581520976	1.90	3.52
12/02/2020 15:22:57	120220	12022020	152257	93.83	12.418788	-57.024878	93.90	-1.030	2.610	0.620	93.87	1.30	1.10	 	 	 	 	 	 	 	 	 	 	 	 	 	 	 	 	 	 	1581520977	2.45	4.54
12/02/2020 15:22:58	120220	12022020	152258	93.97	12.418790	-57.024858	94.00	-0.640	0.850	0.170	93.98	-0.40	0.60	 	 	 	 	 	 	 	 	 	 	 	 	 	 	 	 	 	 	1581520978	4.40	8.15
12/02/2020 15:22:59	120220	12022020	152259	93.99	12.418790	-57.024828	94.00	0.080	-1.460	-0.030	93.98	-2.70	0.40	 	 	 	 	 	 	 	 	 	 	 	 	 	 	 	 	 	 	1581520979	6.12	11.33
12/02/2020 15:23:00	120220	12022020	152300	93.83	12.418788	-57.024802	93.82	0.400	-2.280	0.110	93.78	-3.60	0.50	 	 	 	 	 	 	 	 	 	 	 	 	 	 	 	 	 	 	1581520980	5.84	10.82
12/02/2020 15:23:01	120220	12022020	152301	93.53	12.418787	-57.024783	93.54	0.140	-1.070	0.360	93.47	-2.50	0.80	 	 	 	 	 	 	 	 	 	 	 	 	 	 	 	 	 	 	1581520981	3.83	7.09
12/02/2020 15:23:02	120220	12022020	152302	93.30	12.418787	-57.024773	93.33	-0.240	0.610	0.460	93.27	-0.80	0.90	1017.00	26.70	26.70	20.10	20.10	666.0	67.0	67.0	439.0	28.4	346.00	13.90	76.00	11.80	53160	10780.0	27.5	27.5	1581520982	2.15	3.98
12/02/2020 15:23:03	120220	12022020	152303	93.18	12.418788	-57.024762	93.22	-0.230	0.930	0.440	93.16	-0.40	0.90	 	 	 	 	 	 	 	 	 	 	 	 	 	 	 	 	 	 	1581520983	2.53	4.69
12/02/2020 15:23:04	120220	12022020	152304	93.12	12.418788	-57.024740	93.19	0.220	-0.260	0.500	93.12	-1.50	0.90	 	 	 	 	 	 	 	 	 	 	 	 	 	 	 	 	 	 	1581520984	4.37	8.09
12/02/2020 15:23:05	120220	12022020	152305	93.14	12.418787	-57.024715	93.22	0.620	-1.400	0.730	93.14	-2.70	1.10	 	 	 	 	 	 	 	 	 	 	 	 	 	 	 	 	 	 	1581520985	5.58	10.33
12/02/2020 15:23:06	120220	12022020	152306	93.11	12.418785	-57.024692	93.18	0.480	-1.200	1.050	93.09	-2.60	1.40	 	 	 	 	 	 	 	 	 	 	 	 	 	 	 	 	 	 	1581520986	5.00	9.26
12/02/2020 15:23:07	120220	12022020	152307	92.97	12.418782	-57.024675	93.02	-0.230	0.200	1.480	92.93	-1.20	1.90	 	 	 	 	 	 	 	 	 	 	 	 	 	 	 	 	 	 	1581520987	3.45	6.39
12/02/2020 15:23:08	120220	12022020	152308	92.70	12.418777	-57.024663	92.73	-0.990	1.580	1.930	92.64	0.20	2.30	 	 	 	 	 	 	 	 	 	 	 	 	 	 	 	 	 	 	1581520988	2.47	4.57
12/02/2020 15:23:09	120220	12022020	152309	92.42	12.418775	-57.024652	92.47	-1.120	1.660	2.030	92.38	0.40	2.40	 	 	 	 	 	 	 	 	 	 	 	 	 	 	 	 	 	 	1581520989	2.68	4.96
12/02/2020 15:23:10	120220	12022020	152310	92.36	12.418775	-57.024632	92.45	-0.350	0.040	1.600	92.38	-1.20	2.00	 	 	 	 	 	 	 	 	 	 	 	 	 	 	 	 	 	 	1581520990	4.17	7.72
12/02/2020 15:23:11	120220	12022020	152311	92.52	12.418780	-57.024605	92.61	0.800	-2.090	0.910	92.55	-3.30	1.40	 	 	 	 	 	 	 	 	 	 	 	 	 	 	 	 	 	 	1581520991	5.83	10.80
12/02/2020 15:23:12	120220	12022020	152312	92.62	12.418785	-57.024577	92.69	1.450	-2.860	0.480	92.62	-4.20	0.90	 	 	 	 	 	 	 	 	 	 	 	 	 	 	 	 	 	 	1581520992	5.96	11.04
12/02/2020 15:23:13	120220	12022020	152313	92.57	12.418787	-57.024557	92.65	1.110	-1.450	0.700	92.55	-2.90	1.10	 	 	 	 	 	 	 	 	 	 	 	 	 	 	 	 	 	 	1581520993	4.19	7.76
12/02/2020 15:23:14	120220	12022020	152314	92.51	12.418785	-57.024547	92.59	0.110	0.980	1.240	92.49	-0.50	1.60	 	 	 	 	 	 	 	 	 	 	 	 	 	 	 	 	 	 	1581520994	2.18	4.04
12/02/2020 15:23:15	120220	12022020	152315	92.46	12.418782	-57.024540	92.53	-0.790	2.460	1.690	92.44	1.10	2.10	 	 	 	 	 	 	 	 	 	 	 	 	 	 	 	 	 	 	1581520995	1.86	3.44
12/02/2020 15:23:16	120220	12022020	152316	92.31	12.418778	-57.024525	92.38	-1.080	1.980	1.840	92.29	0.70	2.30	 	 	 	 	 	 	 	 	 	 	 	 	 	 	 	 	 	 	1581520996	3.04	5.63
12/02/2020 15:23:17	120220	12022020	152317	92.18	12.418778	-57.024503	92.22	-0.620	0.100	1.640	92.15	-1.10	2.10	 	 	 	 	 	 	 	 	 	 	 	 	 	 	 	 	 	 	1581520997	4.70	8.70
12/02/2020 15:23:18	120220	12022020	152318	92.09	12.418782	-57.024477	92.15	0.240	-1.790	1.300	92.09	-3.00	1.70	 	 	 	 	 	 	 	 	 	 	 	 	 	 	 	 	 	 	1581520998	5.64	10.45
12/02/2020 15:23:19	120220	12022020	152319	92.20	12.418785	-57.024452	92.30	0.840	-2.460	0.990	92.25	-3.80	1.40	 	 	 	 	 	 	 	 	 	 	 	 	 	 	 	 	 	 	1581520999	5.33	9.87
12/02/2020 15:23:20	120220	12022020	152320	92.55	12.418788	-57.024433	92.70	0.730	-1.630	0.910	92.64	-3.00	1.30	 	 	 	 	 	 	 	 	 	 	 	 	 	 	 	 	 	 	1581521000	4.06	7.52
12/02/2020 15:23:21	120220	12022020	152321	93.02	12.418787	-57.024420	93.18	0.030	-0.030	1.150	93.10	-1.50	1.50	 	 	 	 	 	 	 	 	 	 	 	 	 	 	 	 	 	 	1581521001	2.86	5.30
12/02/2020 15:23:22	120220	12022020	152322	93.32	12.418782	-57.024408	93.45	-0.740	1.250	1.610	93.35	-0.20	2.00	 	 	 	 	 	 	 	 	 	 	 	 	 	 	 	 	 	 	1581521002	2.58	4.78
12/02/2020 15:23:23	120220	12022020	152323	93.28	12.418777	-57.024393	93.33	-1.020	1.400	2.030	93.23	0.10	2.40	 	 	 	 	 	 	 	 	 	 	 	 	 	 	 	 	 	 	1581521003	3.18	5.89
12/02/2020 15:23:24	120220	12022020	152324	92.85	12.418772	-57.024375	92.84	-0.500	0.320	2.310	92.73	-0.90	2.70	 	 	 	 	 	 	 	 	 	 	 	 	 	 	 	 	 	 	1581521004	4.28	7.93
12/02/2020 15:23:25	120220	12022020	152325	92.34	12.418770	-57.024350	92.36	0.460	-0.830	2.230	92.29	-2.10	2.70	 	 	 	 	 	 	 	 	 	 	 	 	 	 	 	 	 	 	1581521005	5.24	9.70
12/02/2020 15:23:26	120220	12022020	152326	92.37	12.418773	-57.024327	92.47	1.060	-0.940	1.500	92.45	-2.30	2.00	 	 	 	 	 	 	 	 	 	 	 	 	 	 	 	 	 	 	1581521006	4.83	8.95
12/02/2020 15:23:27	120220	12022020	152327	92.80	12.418782	-57.024310	92.90	0.890	-0.450	0.480	92.87	-1.80	0.90	 	 	 	 	 	 	 	 	 	 	 	 	 	 	 	 	 	 	1581521007	3.92	7.26
12/02/2020 15:23:28	120220	12022020	152328	92.99	12.418788	-57.024293	93.02	0.360	-0.380	-0.040	92.97	-1.70	0.40	 	 	 	 	 	 	 	 	 	 	 	 	 	 	 	 	 	 	1581521008	3.72	6.89
12/02/2020 15:23:29	120220	12022020	152329	92.87	12.418790	-57.024275	92.89	-0.040	-0.610	0.220	92.84	-2.00	0.60	 	 	 	 	 	 	 	 	 	 	 	 	 	 	 	 	 	 	1581521009	4.14	7.67
12/02/2020 15:23:30	120220	12022020	152330	92.93	12.418788	-57.024255	93.07	-0.280	-0.210	0.630	92.99	-1.60	1.00	 	 	 	 	 	 	 	 	 	 	 	 	 	 	 	 	 	 	1581521010	4.17	7.72
12/02/2020 15:23:31	120220	12022020	152331	93.31	12.418783	-57.024240	93.44	-0.480	0.670	0.950	93.37	-0.70	1.30	 	 	 	 	 	 	 	 	 	 	 	 	 	 	 	 	 	 	1581521011	3.29	6.09
12/02/2020 15:23:32	120220	12022020	152332	93.43	12.418780	-57.024227	93.48	-0.590	0.850	1.410	93.39	-0.50	1.80	 	 	 	 	 	 	 	 	 	 	 	 	 	 	 	 	 	 	1581521012	3.05	5.65
12/02/2020 15:23:33	120220	12022020	152333	92.99	12.418773	-57.024207	92.98	-0.380	-0.250	2.220	92.85	-1.50	2.60	 	 	 	 	 	 	 	 	 	 	 	 	 	 	 	 	 	 	1581521013	4.20	7.78
12/02/2020 15:23:34	120220	12022020	152334	92.38	12.418767	-57.024182	92.41	0.050	-1.560	2.880	92.29	-2.80	3.30	 	 	 	 	 	 	 	 	 	 	 	 	 	 	 	 	 	 	1581521014	5.48	10.15
12/02/2020 15:23:35	120220	12022020	152335	92.10	12.418763	-57.024158	92.20	0.270	-1.550	2.800	92.09	-2.90	3.20	 	 	 	 	 	 	 	 	 	 	 	 	 	 	 	 	 	 	1581521015	5.10	9.45
12/02/2020 15:23:36	120220	12022020	152336	92.21	12.418767	-57.024142	92.32	0.170	-0.160	1.760	92.26	-1.60	2.30	 	 	 	 	 	 	 	 	 	 	 	 	 	 	 	 	 	 	1581521016	3.48	6.44
12/02/2020 15:23:37	120220	12022020	152337	92.49	12.418773	-57.024132	92.58	-0.000	1.200	0.340	92.55	-0.20	0.80	 	 	 	 	 	 	 	 	 	 	 	 	 	 	 	 	 	 	1581521017	2.88	5.33
12/02/2020 15:23:38	120220	12022020	152338	92.74	12.418782	-57.024117	92.79	0.060	1.130	-0.830	92.77	-0.20	-0.40	 	 	 	 	 	 	 	 	 	 	 	 	 	 	 	 	 	 	1581521018	3.42	6.33
12/02/2020 15:23:39	120220	12022020	152339	92.80	12.418787	-57.024095	92.80	0.400	-0.340	-1.270	92.77	-1.60	-0.90	 	 	 	 	 	 	 	 	 	 	 	 	 	 	 	 	 	 	1581521019	4.73	8.76
12/02/2020 15:23:40	120220	12022020	152340	92.58	12.418788	-57.024068	92.56	0.590	-1.530	-0.920	92.52	-2.80	-0.50	 	 	 	 	 	 	 	 	 	 	 	 	 	 	 	 	 	 	1581521020	5.59	10.35
12/02/2020 15:23:41	120220	12022020	152341	92.32	12.418785	-57.024048	92.27	0.230	-1.080	-0.160	92.26	-2.50	0.20	 	 	 	 	 	 	 	 	 	 	 	 	 	 	 	 	 	 	1581521021	4.56	8.45
12/02/2020 15:23:42	120220	12022020	152342	92.05	12.418780	-57.024035	92.12	-0.440	0.270	0.800	92.03	-1.10	1.10	 	 	 	 	 	 	 	 	 	 	 	 	 	 	 	 	 	 	1581521022	2.90	5.37
12/02/2020 15:23:43	120220	12022020	152343	91.99	12.418773	-57.024023	92.09	-0.750	0.850	1.870	91.98	-0.50	2.20	 	 	 	 	 	 	 	 	 	 	 	 	 	 	 	 	 	 	1581521023	2.75	5.09
12/02/2020 15:23:44	120220	12022020	152344	91.99	12.418767	-57.024007	92.12	-0.420	0.170	2.700	92.01	-1.10	3.10	 	 	 	 	 	 	 	 	 	 	 	 	 	 	 	 	 	 	1581521024	3.89	7.20
12/02/2020 15:23:45	120220	12022020	152345	92.08	12.418763	-57.023983	92.20	0.090	-0.750	2.940	92.09	-2.00	3.30	 	 	 	 	 	 	 	 	 	 	 	 	 	 	 	 	 	 	1581521025	4.85	8.98
12/02/2020 15:23:46	120220	12022020	152346	92.04	12.418763	-57.023962	92.11	0.240	-1.000	2.940	91.99	-2.30	3.30	 	 	 	 	 	 	 	 	 	 	 	 	 	 	 	 	 	 	1581521026	4.64	8.59
12/02/2020 15:23:47	120220	12022020	152347	91.69	12.418763	-57.023943	91.72	0.010	-0.600	3.110	91.59	-2.00	3.50	 	 	 	 	 	 	 	 	 	 	 	 	 	 	 	 	 	 	1581521027	3.87	7.17
12/02/2020 15:23:48	120220	12022020	152348	91.20	12.418762	-57.023928	91.25	-0.130	-0.050	3.040	91.14	-1.40	3.50	 	 	 	 	 	 	 	 	 	 	 	 	 	 	 	 	 	 	1581521028	3.42	6.33
12/02/2020 15:23:49	120220	12022020	152349	91.13	12.418763	-57.023910	91.27	0.080	0.180	1.990	91.20	-1.20	2.50	 	 	 	 	 	 	 	 	 	 	 	 	 	 	 	 	 	 	1581521029	3.61	6.69
12/02/2020 15:23:50	120220	12022020	152350	91.69	12.418772	-57.023892	91.86	0.360	0.090	0.300	91.83	-1.20	0.80	 	 	 	 	 	 	 	 	 	 	 	 	 	 	 	 	 	 	1581521030	4.35	8.06
12/02/2020 15:23:51	120220	12022020	152351	92.23	12.418780	-57.023872	92.29	0.310	-0.020	-0.940	92.26	-1.40	-0.50	 	 	 	 	 	 	 	 	 	 	 	 	 	 	 	 	 	 	1581521031	4.53	8.39
12/02/2020 15:23:52	120220	12022020	152352	92.12	12.418783	-57.023853	92.07	-0.090	0.040	-1.290	92.03	-1.30	-0.90	 	 	 	 	 	 	 	 	 	 	 	 	 	 	 	 	 	 	1581521032	4.05	7.50
12/02/2020 15:23:53	120220	12022020	152353	91.58	12.418783	-57.023837	91.53	-0.520	0.140	-0.970	91.47	-1.20	-0.60	 	 	 	 	 	 	 	 	 	 	 	 	 	 	 	 	 	 	1581521033	3.58	6.63
12/02/2020 15:23:54	120220	12022020	152354	91.23	12.418782	-57.023820	91.28	-0.600	0.030	-0.450	91.22	-1.30	-0.10	 	 	 	 	 	 	 	 	 	 	 	 	 	 	 	 	 	 	1581521034	3.51	6.50
12/02/2020 15:23:55	120220	12022020	152355	91.32	12.418780	-57.023802	91.43	-0.260	-0.340	0.010	91.36	-1.60	0.40	 	 	 	 	 	 	 	 	 	 	 	 	 	 	 	 	 	 	1581521035	3.79	7.02
12/02/2020 15:23:56	120220	12022020	152356	91.46	12.418778	-57.023782	91.50	0.300	-0.910	0.560	91.44	-2.20	0.90	 	 	 	 	 	 	 	 	 	 	 	 	 	 	 	 	 	 	1581521036	4.11	7.61
12/02/2020 15:23:57	120220	12022020	152357	91.20	12.418777	-57.023762	91.21	0.740	-1.450	1.380	91.12	-2.70	1.70	 	 	 	 	 	 	 	 	 	 	 	 	 	 	 	 	 	 	1581521037	4.55	8.43
12/02/2020 15:23:58	120220	12022020	152358	90.76	12.418773	-57.023738	90.82	0.720	-1.460	2.470	90.69	-2.80	2.80	 	 	 	 	 	 	 	 	 	 	 	 	 	 	 	 	 	 	1581521038	4.75	8.80
12/02/2020 15:23:59	120220	12022020	152359	90.54	12.418767	-57.023718	90.68	0.260	-0.630	3.350	90.54	-2.00	3.70	 	 	 	 	 	 	 	 	 	 	 	 	 	 	 	 	 	 	1581521039	4.35	8.06
12/02/2020 15:24:00	120220	12022020	152400	90.66	12.418763	-57.023703	90.87	-0.310	0.810	3.430	90.71	-0.60	3.80	 	 	 	 	 	 	 	 	 	 	 	 	 	 	 	 	 	 	1581521040	3.42	6.33
12/02/2020 15:24:01	120220	12022020	152401	90.97	12.418763	-57.023690	91.16	-0.730	1.970	2.680	91.04	0.60	3.10	 	 	 	 	 	 	 	 	 	 	 	 	 	 	 	 	 	 	1581521041	2.71	5.02
12/02/2020 15:24:02	120220	12022020	152402	91.36	12.418767	-57.023677	91.52	-0.900	2.010	1.420	91.43	0.70	1.90	1017.00	26.70	26.70	20.20	20.30	729.0	67.0	67.0	439.0	28.5	346.00	12.70	75.00	10.80	56174	11507.0	27.5	27.5	1581521042	3.11	5.76
12/02/2020 15:24:03	120220	12022020	152403	91.66	12.418773	-57.023658	91.76	-0.740	0.850	0.070	91.69	-0.40	0.50	 	 	 	 	 	 	 	 	 	 	 	 	 	 	 	 	 	 	1581521043	4.13	7.65
12/02/2020 15:24:04	120220	12022020	152404	91.68	12.418780	-57.023635	91.69	-0.230	-0.850	-0.870	91.64	-2.10	-0.40	 	 	 	 	 	 	 	 	 	 	 	 	 	 	 	 	 	 	1581521044	4.92	9.11
12/02/2020 15:24:05	120220	12022020	152405	91.52	12.418785	-57.023612	91.46	0.460	-2.250	-1.140	91.46	-3.50	-0.70	 	 	 	 	 	 	 	 	 	 	 	 	 	 	 	 	 	 	1581521045	5.11	9.46
12/02/2020 15:24:06	120220	12022020	152406	91.17	12.418787	-57.023590	91.17	0.980	-2.720	-0.960	91.11	-4.00	-0.60	 	 	 	 	 	 	 	 	 	 	 	 	 	 	 	 	 	 	1581521046	4.79	8.87
12/02/2020 15:24:07	120220	12022020	152407	90.90	12.418788	-57.023570	90.93	1.040	-2.060	-0.400	90.85	-3.40	-0.10	 	 	 	 	 	 	 	 	 	 	 	 	 	 	 	 	 	 	1581521047	4.17	7.72
12/02/2020 15:24:08	120220	12022020	152408	90.73	12.418785	-57.023553	90.81	0.630	-0.600	0.520	90.73	-2.00	0.90	 	 	 	 	 	 	 	 	 	 	 	 	 	 	 	 	 	 	1581521048	3.58	6.63
12/02/2020 15:24:09	120220	12022020	152409	90.81	12.418780	-57.023538	90.94	-0.100	1.010	1.430	90.85	-0.40	1.80	 	 	 	 	 	 	 	 	 	 	 	 	 	 	 	 	 	 	1581521049	3.26	6.04
12/02/2020 15:24:10	120220	12022020	152410	91.13	12.418777	-57.023523	91.31	-0.840	2.040	1.980	91.22	0.70	2.30	 	 	 	 	 	 	 	 	 	 	 	 	 	 	 	 	 	 	1581521050	3.20	5.93
12/02/2020 15:24:11	120220	12022020	152411	91.60	12.418773	-57.023508	91.79	-1.280	2.160	2.100	91.70	0.80	2.50	 	 	 	 	 	 	 	 	 	 	 	 	 	 	 	 	 	 	1581521051	3.46	6.41
12/02/2020 15:24:12	120220	12022020	152412	92.01	12.418772	-57.023488	92.16	-1.160	1.270	2.020	92.07	0.00	2.40	 	 	 	 	 	 	 	 	 	 	 	 	 	 	 	 	 	 	1581521052	3.96	7.33
12/02/2020 15:24:13	120220	12022020	152413	92.21	12.418770	-57.023467	92.31	-0.450	-0.430	1.900	92.23	-1.60	2.30	 	 	 	 	 	 	 	 	 	 	 	 	 	 	 	 	 	 	1581521053	4.69	8.69
12/02/2020 15:24:14	120220	12022020	152414	92.18	12.418770	-57.023442	92.23	0.540	-2.050	1.740	92.13	-3.30	2.10	 	 	 	 	 	 	 	 	 	 	 	 	 	 	 	 	 	 	1581521054	5.29	9.80
12/02/2020 15:24:15	120220	12022020	152415	91.94	12.418772	-57.023418	92.01	1.240	-2.480	1.440	91.90	-3.80	1.90	 	 	 	 	 	 	 	 	 	 	 	 	 	 	 	 	 	 	1581521055	5.07	9.39
12/02/2020 15:24:16	120220	12022020	152416	91.84	12.418777	-57.023400	91.93	1.250	-1.470	0.910	91.84	-2.90	1.30	 	 	 	 	 	 	 	 	 	 	 	 	 	 	 	 	 	 	1581521056	3.99	7.39
12/02/2020 15:24:17	120220	12022020	152417	91.95	12.418782	-57.023387	92.03	0.660	0.020	0.380	91.98	-1.40	0.80	 	 	 	 	 	 	 	 	 	 	 	 	 	 	 	 	 	 	1581521057	3.08	5.70
12/02/2020 15:24:18	120220	12022020	152418	92.04	12.418787	-57.023373	92.10	-0.030	0.870	0.130	92.03	-0.50	0.50	 	 	 	 	 	 	 	 	 	 	 	 	 	 	 	 	 	 	1581521058	3.04	5.63
12/02/2020 15:24:19	120220	12022020	152419	91.90	12.418787	-57.023355	91.91	-0.440	0.770	0.250	91.85	-0.50	0.60	 	 	 	 	 	 	 	 	 	 	 	 	 	 	 	 	 	 	1581521059	3.84	7.11
12/02/2020 15:24:20	120220	12022020	152420	91.65	12.418787	-57.023333	91.68	-0.530	0.180	0.500	91.61	-1.10	0.90	 	 	 	 	 	 	 	 	 	 	 	 	 	 	 	 	 	 	1581521060	4.64	8.59
12/02/2020 15:24:21	120220	12022020	152421	91.60	12.418785	-57.023310	91.70	-0.420	-0.380	0.750	91.63	-1.60	1.10	 	 	 	 	 	 	 	 	 	 	 	 	 	 	 	 	 	 	1581521061	4.84	8.96
12/02/2020 15:24:22	120220	12022020	152422	91.87	12.418782	-57.023288	92.01	-0.310	-0.520	0.970	91.93	-1.80	1.30	 	 	 	 	 	 	 	 	 	 	 	 	 	 	 	 	 	 	1581521062	4.63	8.57
12/02/2020 15:24:23	120220	12022020	152423	92.20	12.418778	-57.023270	92.34	-0.390	-0.080	1.060	92.26	-1.40	1.40	 	 	 	 	 	 	 	 	 	 	 	 	 	 	 	 	 	 	1581521063	3.99	7.39
12/02/2020 15:24:24	120220	12022020	152424	92.42	12.418777	-57.023253	92.53	-0.560	0.480	0.990	92.45	-0.80	1.40	 	 	 	 	 	 	 	 	 	 	 	 	 	 	 	 	 	 	1581521064	3.30	6.11
12/02/2020 15:24:25	120220	12022020	152425	92.48	12.418775	-57.023238	92.55	-0.440	0.410	0.900	92.46	-0.80	1.30	 	 	 	 	 	 	 	 	 	 	 	 	 	 	 	 	 	 	1581521065	3.34	6.19
12/02/2020 15:24:26	120220	12022020	152426	92.28	12.418775	-57.023218	92.30	0.240	-0.500	1.000	92.19	-1.70	1.40	 	 	 	 	 	 	 	 	 	 	 	 	 	 	 	 	 	 	1581521066	4.20	7.78
12/02/2020 15:24:27	120220	12022020	152427	91.73	12.418777	-57.023193	91.73	1.210	-1.610	1.280	91.62	-2.80	1.70	 	 	 	 	 	 	 	 	 	 	 	 	 	 	 	 	 	 	1581521067	5.16	9.56
12/02/2020 15:24:28	120220	12022020	152428	91.37	12.418780	-57.023168	91.44	1.740	-1.820	1.150	91.36	-3.10	1.60	 	 	 	 	 	 	 	 	 	 	 	 	 	 	 	 	 	 	1581521068	5.38	9.96
12/02/2020 15:24:29	120220	12022020	152429	91.59	12.418785	-57.023148	91.76	1.250	-0.490	0.790	91.69	-1.90	1.20	 	 	 	 	 	 	 	 	 	 	 	 	 	 	 	 	 	 	1581521069	4.33	8.02
12/02/2020 15:24:30	120220	12022020	152430	92.09	12.418788	-57.023137	92.25	-0.080	1.400	0.760	92.17	0.00	1.10	 	 	 	 	 	 	 	 	 	 	 	 	 	 	 	 	 	 	1581521070	2.64	4.89
12/02/2020 15:24:31	120220	12022020	152431	92.31	12.418787	-57.023127	92.41	-1.410	2.210	1.230	92.32	0.90	1.60	 	 	 	 	 	 	 	 	 	 	 	 	 	 	 	 	 	 	1581521071	2.21	4.09
12/02/2020 15:24:32	120220	12022020	152432	92.17	12.418782	-57.023110	92.24	-1.860	1.240	1.880	92.12	0.00	2.20	 	 	 	 	 	 	 	 	 	 	 	 	 	 	 	 	 	 	1581521072	3.58	6.63
12/02/2020 15:24:33	120220	12022020	152433	91.99	12.418775	-57.023087	92.06	-1.190	-0.840	2.380	91.96	-2.00	2.70	 	 	 	 	 	 	 	 	 	 	 	 	 	 	 	 	 	 	1581521073	5.23	9.69
12/02/2020 15:24:34	120220	12022020	152434	91.87	12.418770	-57.023060	91.98	0.020	-2.470	2.630	91.85	-3.70	3.00	 	 	 	 	 	 	 	 	 	 	 	 	 	 	 	 	 	 	1581521074	5.85	10.83
12/02/2020 15:24:35	120220	12022020	152435	91.70	12.418767	-57.023035	91.78	0.940	-2.550	2.590	91.64	-3.80	3.00	 	 	 	 	 	 	 	 	 	 	 	 	 	 	 	 	 	 	1581521075	5.04	9.33
12/02/2020 15:24:36	120220	12022020	152436	91.41	12.418768	-57.023018	91.47	1.120	-1.220	2.140	91.36	-2.60	2.60	 	 	 	 	 	 	 	 	 	 	 	 	 	 	 	 	 	 	1581521076	3.62	6.70
12/02/2020 15:24:37	120220	12022020	152437	91.26	12.418773	-57.023007	91.34	0.700	0.570	1.150	91.26	-0.80	1.60	 	 	 	 	 	 	 	 	 	 	 	 	 	 	 	 	 	 	1581521077	2.89	5.35
12/02/2020 15:24:38	120220	12022020	152438	91.30	12.418782	-57.022995	91.38	0.100	1.760	-0.080	91.33	0.40	0.40	 	 	 	 	 	 	 	 	 	 	 	 	 	 	 	 	 	 	1581521078	3.15	5.83
12/02/2020 15:24:39	120220	12022020	152439	91.49	12.418790	-57.022980	91.57	-0.360	1.790	-1.210	91.56	0.50	-0.70	 	 	 	 	 	 	 	 	 	 	 	 	 	 	 	 	 	 	1581521079	3.68	6.82
12/02/2020 15:24:40	120220	12022020	152440	91.81	12.418797	-57.022960	91.87	-0.560	0.930	-2.000	91.87	-0.30	-1.60	 	 	 	 	 	 	 	 	 	 	 	 	 	 	 	 	 	 	1581521080	4.17	7.72
12/02/2020 15:24:41	120220	12022020	152441	91.98	12.418798	-57.022940	92.00	-0.460	-0.300	-2.060	91.99	-1.50	-1.70	 	 	 	 	 	 	 	 	 	 	 	 	 	 	 	 	 	 	1581521081	4.35	8.06
12/02/2020 15:24:42	120220	12022020	152442	91.81	12.418797	-57.022920	91.76	-0.110	-1.500	-1.180	91.72	-2.70	-0.90	 	 	 	 	 	 	 	 	 	 	 	 	 	 	 	 	 	 	1581521082	4.40	8.15
12/02/2020 15:24:43	120220	12022020	152443	91.30	12.418792	-57.022898	91.27	0.330	-2.300	0.250	91.19	-3.50	0.50	 	 	 	 	 	 	 	 	 	 	 	 	 	 	 	 	 	 	1581521083	4.53	8.39
12/02/2020 15:24:44	120220	12022020	152444	90.81	12.418785	-57.022878	90.84	0.570	-2.140	1.730	90.73	-3.40	2.00	 	 	 	 	 	 	 	 	 	 	 	 	 	 	 	 	 	 	1581521084	4.41	8.17
12/02/2020 15:24:45	120220	12022020	152445	90.48	12.418778	-57.022863	90.57	0.450	-0.870	2.900	90.44	-2.20	3.20	 	 	 	 	 	 	 	 	 	 	 	 	 	 	 	 	 	 	1581521085	3.66	6.78
12/02/2020 15:24:46	120220	12022020	152446	90.45	12.418775	-57.022850	90.63	0.080	0.840	3.280	90.50	-0.50	3.60	 	 	 	 	 	 	 	 	 	 	 	 	 	 	 	 	 	 	1581521086	2.73	5.06
12/02/2020 15:24:47	120220	12022020	152447	90.87	12.418775	-57.022840	91.09	-0.330	1.900	2.680	90.98	0.60	3.10	 	 	 	 	 	 	 	 	 	 	 	 	 	 	 	 	 	 	1581521087	2.40	4.44
12/02/2020 15:24:48	120220	12022020	152448	91.43	12.418778	-57.022825	91.59	-0.600	1.660	1.730	91.51	0.40	2.10	 	 	 	 	 	 	 	 	 	 	 	 	 	 	 	 	 	 	1581521088	3.16	5.85
12/02/2020 15:24:49	120220	12022020	152449	91.65	12.418782	-57.022805	91.73	-0.590	0.360	0.910	91.65	-0.80	1.30	 	 	 	 	 	 	 	 	 	 	 	 	 	 	 	 	 	 	1581521089	4.15	7.69
12/02/2020 15:24:50	120220	12022020	152450	91.50	12.418785	-57.022783	91.50	-0.270	-0.990	0.300	91.43	-2.20	0.70	 	 	 	 	 	 	 	 	 	 	 	 	 	 	 	 	 	 	1581521090	4.69	8.69
12/02/2020 15:24:51	120220	12022020	152451	91.07	12.418788	-57.022763	91.03	0.220	-1.570	-0.020	90.96	-2.80	0.40	 	 	 	 	 	 	 	 	 	 	 	 	 	 	 	 	 	 	1581521091	4.32	8.00
12/02/2020 15:24:52	120220	12022020	152452	90.51	12.418792	-57.022747	90.47	0.640	-1.350	-0.190	90.41	-2.70	0.20	 	 	 	 	 	 	 	 	 	 	 	 	 	 	 	 	 	 	1581521092	3.59	6.65
12/02/2020 15:24:53	120220	12022020	152453	90.15	12.418795	-57.022732	90.18	0.780	-0.830	-0.350	90.14	-2.20	0.10	 	 	 	 	 	 	 	 	 	 	 	 	 	 	 	 	 	 	1581521093	3.26	6.04
12/02/2020 15:24:54	120220	12022020	152454	90.32	12.418800	-57.022717	90.44	0.600	-0.380	-0.460	90.42	-1.70	-0.10	 	 	 	 	 	 	 	 	 	 	 	 	 	 	 	 	 	 	1581521094	3.30	6.11
12/02/2020 15:24:55	120220	12022020	152455	90.93	12.418802	-57.022702	91.08	0.220	0.080	-0.420	91.07	-1.20	-0.00	 	 	 	 	 	 	 	 	 	 	 	 	 	 	 	 	 	 	1581521095	3.35	6.20
12/02/2020 15:24:56	120220	12022020	152456	91.48	12.418800	-57.022687	91.58	-0.190	0.610	-0.070	91.53	-0.70	0.30	 	 	 	 	 	 	 	 	 	 	 	 	 	 	 	 	 	 	1581521096	3.20	5.93
12/02/2020 15:24:57	120220	12022020	152457	91.42	12.418797	-57.022672	91.42	-0.540	0.850	0.870	91.32	-0.50	1.20	 	 	 	 	 	 	 	 	 	 	 	 	 	 	 	 	 	 	1581521097	3.12	5.78
12/02/2020 15:24:58	120220	12022020	152458	90.76	12.418790	-57.022657	90.75	-0.660	0.470	2.230	90.62	-0.80	2.50	 	 	 	 	 	 	 	 	 	 	 	 	 	 	 	 	 	 	1581521098	3.50	6.48
12/02/2020 15:24:59	120220	12022020	152459	90.12	12.418783	-57.022638	90.20	-0.400	-0.420	3.200	90.06	-1.70	3.50	 	 	 	 	 	 	 	 	 	 	 	 	 	 	 	 	 	 	1581521099	4.05	7.50
12/02/2020 15:25:00	120220	12022020	152500	90.01	12.418782	-57.022618	90.17	0.130	-1.180	3.210	90.06	-2.40	3.60	 	 	 	 	 	 	 	 	 	 	 	 	 	 	 	 	 	 	1581521100	4.22	7.82
12/02/2020 15:25:01	120220	12022020	152501	90.37	12.418787	-57.022600	90.57	0.550	-1.200	2.470	90.47	-2.50	2.90	 	 	 	 	 	 	 	 	 	 	 	 	 	 	 	 	 	 	1581521101	3.96	7.33
12/02/2020 15:25:02	120220	12022020	152502	90.81	12.418793	-57.022587	90.94	0.510	-0.560	1.570	90.87	-1.90	2.00	1017.10	26.70	26.70	20.70	20.70	709.0	69.0	69.0	439.0	28.6	352.00	12.30	82.00	10.40	55233	10568.0	27.5	27.5	1581521102	3.39	6.28
12/02/2020 15:25:03	120220	12022020	152503	90.98	12.418798	-57.022573	91.05	0.030	0.230	0.830	90.98	-1.10	1.30	 	 	 	 	 	 	 	 	 	 	 	 	 	 	 	 	 	 	1581521103	2.86	5.30
12/02/2020 15:25:04	120220	12022020	152504	90.86	12.418800	-57.022562	90.89	-0.460	0.670	0.470	90.81	-0.70	0.90	 	 	 	 	 	 	 	 	 	 	 	 	 	 	 	 	 	 	1581521104	2.62	4.85
12/02/2020 15:25:05	120220	12022020	152505	90.58	12.418800	-57.022547	90.60	-0.480	0.410	0.330	90.53	-0.90	0.70	 	 	 	 	 	 	 	 	 	 	 	 	 	 	 	 	 	 	1581521105	3.00	5.56
12/02/2020 15:25:06	120220	12022020	152506	90.36	12.418800	-57.022530	90.40	-0.050	-0.320	0.010	90.34	-1.60	0.40	 	 	 	 	 	 	 	 	 	 	 	 	 	 	 	 	 	 	1581521106	3.74	6.93
12/02/2020 15:25:07	120220	12022020	152507	90.25	12.418805	-57.022510	90.29	0.320	-0.790	-0.380	90.23	-2.10	0.00	 	 	 	 	 	 	 	 	 	 	 	 	 	 	 	 	 	 	1581521107	4.05	7.50
12/02/2020 15:25:08	120220	12022020	152508	90.14	12.418810	-57.022495	90.16	0.320	-0.650	-0.560	90.11	-2.00	-0.20	 	 	 	 	 	 	 	 	 	 	 	 	 	 	 	 	 	 	1581521108	3.61	6.69
12/02/2020 15:25:09	120220	12022020	152509	90.05	12.418813	-57.022482	90.08	0.090	-0.210	-0.450	90.04	-1.50	-0.10	 	 	 	 	 	 	 	 	 	 	 	 	 	 	 	 	 	 	1581521109	2.92	5.41
12/02/2020 15:25:10	120220	12022020	152510	90.01	12.418815	-57.022467	90.07	-0.010	-0.140	-0.140	90.01	-1.40	0.20	 	 	 	 	 	 	 	 	 	 	 	 	 	 	 	 	 	 	1581521110	2.88	5.33
12/02/2020 15:25:11	120220	12022020	152511	90.07	12.418815	-57.022450	90.18	0.140	-0.490	0.300	90.10	-1.80	0.60	 	 	 	 	 	 	 	 	 	 	 	 	 	 	 	 	 	 	1581521111	3.51	6.50
12/02/2020 15:25:12	120220	12022020	152512	90.40	12.418813	-57.022433	90.56	0.300	-0.660	0.740	90.48	-2.00	1.10	 	 	 	 	 	 	 	 	 	 	 	 	 	 	 	 	 	 	1581521112	3.87	7.17
12/02/2020 15:25:13	120220	12022020	152513	90.90	12.418812	-57.022417	91.07	0.100	-0.050	1.120	90.99	-1.40	1.50	 	 	 	 	 	 	 	 	 	 	 	 	 	 	 	 	 	 	1581521113	3.36	6.22
12/02/2020 15:25:14	120220	12022020	152514	91.18	12.418810	-57.022407	91.28	-0.460	0.940	1.540	91.16	-0.40	1.90	 	 	 	 	 	 	 	 	 	 	 	 	 	 	 	 	 	 	1581521114	2.34	4.33
12/02/2020 15:25:15	120220	12022020	152515	90.82	12.418805	-57.022397	90.84	-0.900	1.210	2.190	90.69	-0.10	2.50	 	 	 	 	 	 	 	 	 	 	 	 	 	 	 	 	 	 	1581521115	2.13	3.94
12/02/2020 15:25:16	120220	12022020	152516	90.12	12.418802	-57.022383	90.15	-0.780	0.280	2.660	89.99	-0.90	3.00	 	 	 	 	 	 	 	 	 	 	 	 	 	 	 	 	 	 	1581521116	3.03	5.61
12/02/2020 15:25:17	120220	12022020	152517	89.71	12.418803	-57.022363	89.82	-0.150	-1.200	2.410	89.70	-2.40	2.80	 	 	 	 	 	 	 	 	 	 	 	 	 	 	 	 	 	 	1581521117	4.07	7.54
12/02/2020 15:25:18	120220	12022020	152518	89.78	12.418808	-57.022343	89.91	0.550	-2.170	1.540	89.82	-3.40	2.00	 	 	 	 	 	 	 	 	 	 	 	 	 	 	 	 	 	 	1581521118	4.54	8.41
12/02/2020 15:25:19	120220	12022020	152519	90.03	12.418817	-57.022325	90.15	0.880	-1.850	0.420	90.10	-3.20	0.90	 	 	 	 	 	 	 	 	 	 	 	 	 	 	 	 	 	 	1581521119	4.15	7.69
12/02/2020 15:25:20	120220	12022020	152520	90.42	12.418825	-57.022313	90.55	0.640	-0.350	-0.490	90.52	-1.80	-0.10	 	 	 	 	 	 	 	 	 	 	 	 	 	 	 	 	 	 	1581521120	3.11	5.76
12/02/2020 15:25:21	120220	12022020	152521	90.75	12.418830	-57.022305	90.89	0.010	1.280	-0.670	90.80	-0.10	-0.30	 	 	 	 	 	 	 	 	 	 	 	 	 	 	 	 	 	 	1581521121	1.89	3.50
12/02/2020 15:25:22	120220	12022020	152522	90.87	12.418830	-57.022297	90.91	-0.480	1.810	-0.130	90.85	0.50	0.20	 	 	 	 	 	 	 	 	 	 	 	 	 	 	 	 	 	 	1581521122	1.71	3.17
12/02/2020 15:25:23	120220	12022020	152523	90.73	12.418827	-57.022283	90.73	-0.350	0.740	0.660	90.68	-0.50	1.00	 	 	 	 	 	 	 	 	 	 	 	 	 	 	 	 	 	 	1581521123	3.05	5.65
12/02/2020 15:25:24	120220	12022020	152524	90.52	12.418823	-57.022262	90.60	0.210	-0.970	1.270	90.51	-2.20	1.60	 	 	 	 	 	 	 	 	 	 	 	 	 	 	 	 	 	 	1581521124	4.42	8.19
12/02/2020 15:25:25	120220	12022020	152525	90.54	12.418823	-57.022242	90.66	0.430	-1.660	1.640	90.57	-3.00	2.00	 	 	 	 	 	 	 	 	 	 	 	 	 	 	 	 	 	 	1581521125	4.43	8.20
12/02/2020 15:25:26	120220	12022020	152526	90.71	12.418825	-57.022228	90.85	0.010	-0.770	1.880	90.76	-2.20	2.20	 	 	 	 	 	 	 	 	 	 	 	 	 	 	 	 	 	 	1581521126	2.84	5.26
12/02/2020 15:25:27	120220	12022020	152527	90.98	12.418825	-57.022222	91.13	-0.640	0.550	2.080	91.03	-0.80	2.40	 	 	 	 	 	 	 	 	 	 	 	 	 	 	 	 	 	 	1581521127	1.39	2.57
12/02/2020 15:25:28	120220	12022020	152528	91.23	12.418825	-57.022215	91.38	-0.890	0.960	2.150	91.26	-0.40	2.50	 	 	 	 	 	 	 	 	 	 	 	 	 	 	 	 	 	 	1581521128	1.50	2.78
12/02/2020 15:25:29	120220	12022020	152529	91.34	12.418823	-57.022202	91.48	-0.520	0.120	1.920	91.35	-1.10	2.30	 	 	 	 	 	 	 	 	 	 	 	 	 	 	 	 	 	 	1581521129	2.77	5.13
12/02/2020 15:25:30	120220	12022020	152530	91.31	12.418825	-57.022183	91.42	0.140	-1.100	1.480	91.30	-2.30	1.90	 	 	 	 	 	 	 	 	 	 	 	 	 	 	 	 	 	 	1581521130	3.91	7.24
12/02/2020 15:25:31	120220	12022020	152531	91.21	12.418827	-57.022165	91.30	0.670	-1.600	1.020	91.19	-2.90	1.40	 	 	 	 	 	 	 	 	 	 	 	 	 	 	 	 	 	 	1581521131	4.00	7.41
12/02/2020 15:25:32	120220	12022020	152532	91.19	12.418832	-57.022150	91.29	0.830	-0.980	0.430	91.21	-2.30	0.90	 	 	 	 	 	 	 	 	 	 	 	 	 	 	 	 	 	 	1581521132	3.19	5.91
12/02/2020 15:25:33	120220	12022020	152533	91.40	12.418837	-57.022140	91.52	0.630	0.080	-0.400	91.47	-1.30	0.00	 	 	 	 	 	 	 	 	 	 	 	 	 	 	 	 	 	 	1581521133	2.59	4.80
12/02/2020 15:25:34	120220	12022020	152534	91.77	12.418845	-57.022130	91.87	0.200	0.740	-1.120	91.84	-0.60	-0.70	 	 	 	 	 	 	 	 	 	 	 	 	 	 	 	 	 	 	1581521134	2.68	4.96
12/02/2020 15:25:35	120220	12022020	152535	92.02	12.418850	-57.022117	92.07	-0.300	0.810	-1.070	92.04	-0.50	-0.70	 	 	 	 	 	 	 	 	 	 	 	 	 	 	 	 	 	 	1581521135	2.76	5.11
12/02/2020 15:25:36	120220	12022020	152536	92.03	12.418850	-57.022103	92.08	-0.660	0.630	-0.370	92.03	-0.70	-0.00	 	 	 	 	 	 	 	 	 	 	 	 	 	 	 	 	 	 	1581521136	2.83	5.24
12/02/2020 15:25:37	120220	12022020	152537	92.01	12.418847	-57.022092	92.08	-0.730	0.360	0.360	92.01	-0.90	0.70	 	 	 	 	 	 	 	 	 	 	 	 	 	 	 	 	 	 	1581521137	2.78	5.15
12/02/2020 15:25:38	120220	12022020	152538	92.05	12.418843	-57.022078	92.15	-0.460	-0.280	1.050	92.06	-1.50	1.40	 	 	 	 	 	 	 	 	 	 	 	 	 	 	 	 	 	 	1581521138	2.80	5.19
12/02/2020 15:25:39	120220	12022020	152539	92.10	12.418838	-57.022063	92.22	0.170	-1.410	1.860	92.10	-2.60	2.20	 	 	 	 	 	 	 	 	 	 	 	 	 	 	 	 	 	 	1581521139	3.37	6.24
12/02/2020 15:25:40	120220	12022020	152540	92.03	12.418835	-57.022045	92.12	0.870	-2.250	2.590	91.99	-3.50	2.90	 	 	 	 	 	 	 	 	 	 	 	 	 	 	 	 	 	 	1581521140	4.01	7.43
12/02/2020 15:25:41	120220	12022020	152541	91.87	12.418833	-57.022027	92.00	1.040	-1.700	2.840	91.87	-3.10	3.20	 	 	 	 	 	 	 	 	 	 	 	 	 	 	 	 	 	 	1581521141	3.62	6.70
12/02/2020 15:25:42	120220	12022020	152542	91.98	12.418835	-57.022017	92.17	0.390	0.110	2.610	92.05	-1.30	3.00	 	 	 	 	 	 	 	 	 	 	 	 	 	 	 	 	 	 	1581521142	2.21	4.09
12/02/2020 15:25:43	120220	12022020	152543	92.41	12.418837	-57.022012	92.61	-0.630	1.850	2.230	92.51	0.50	2.60	 	 	 	 	 	 	 	 	 	 	 	 	 	 	 	 	 	 	1581521143	1.19	2.20
12/02/2020 15:25:44	120220	12022020	152544	92.87	12.418837	-57.022005	93.03	-1.270	2.410	1.680	92.94	1.10	2.10	 	 	 	 	 	 	 	 	 	 	 	 	 	 	 	 	 	 	1581521144	1.36	2.52
12/02/2020 15:25:45	120220	12022020	152545	93.15	12.418840	-57.021993	93.25	-1.110	1.430	0.800	93.18	0.20	1.20	 	 	 	 	 	 	 	 	 	 	 	 	 	 	 	 	 	 	1581521145	2.53	4.69
12/02/2020 15:25:46	120220	12022020	152546	93.17	12.418843	-57.021975	93.19	-0.350	-0.410	0.000	93.14	-1.60	0.40	 	 	 	 	 	 	 	 	 	 	 	 	 	 	 	 	 	 	1581521146	3.83	7.09
12/02/2020 15:25:47	120220	12022020	152547	92.94	12.418848	-57.021957	92.94	0.500	-2.090	-0.200	92.89	-3.30	0.20	 	 	 	 	 	 	 	 	 	 	 	 	 	 	 	 	 	 	1581521147	4.29	7.95
12/02/2020 15:25:48	120220	12022020	152548	92.70	12.418852	-57.021938	92.72	1.020	-2.870	-0.000	92.66	-4.20	0.40	 	 	 	 	 	 	 	 	 	 	 	 	 	 	 	 	 	 	1581521148	3.95	7.32
12/02/2020 15:25:49	120220	12022020	152549	92.54	12.418852	-57.021922	92.62	1.150	-2.430	0.270	92.53	-3.80	0.60	 	 	 	 	 	 	 	 	 	 	 	 	 	 	 	 	 	 	1581521149	3.28	6.07
12/02/2020 15:25:50	120220	12022020	152550	92.69	12.418852	-57.021910	92.84	0.970	-0.900	0.420	92.77	-2.30	0.80	 	 	 	 	 	 	 	 	 	 	 	 	 	 	 	 	 	 	1581521150	2.58	4.78
12/02/2020 15:25:51	120220	12022020	152551	93.20	12.418852	-57.021902	93.37	0.470	1.120	0.380	93.31	-0.30	0.80	 	 	 	 	 	 	 	 	 	 	 	 	 	 	 	 	 	 	1581521151	1.82	3.37
12/02/2020 15:25:52	120220	12022020	152552	93.71	12.418852	-57.021893	93.85	-0.370	2.550	0.470	93.79	1.20	0.80	 	 	 	 	 	 	 	 	 	 	 	 	 	 	 	 	 	 	1581521152	1.51	2.80
12/02/2020 15:25:53	120220	12022020	152553	93.98	12.418852	-57.021885	94.08	-1.300	2.700	0.990	94.00	1.40	1.30	 	 	 	 	 	 	 	 	 	 	 	 	 	 	 	 	 	 	1581521153	1.86	3.44
12/02/2020 15:25:54	120220	12022020	152554	93.97	12.418847	-57.021873	94.04	-1.720	1.530	1.690	93.94	0.30	2.00	 	 	 	 	 	 	 	 	 	 	 	 	 	 	 	 	 	 	1581521154	2.72	5.04
12/02/2020 15:25:55	120220	12022020	152555	93.71	12.418842	-57.021857	93.75	-1.150	-0.720	2.280	93.64	-1.90	2.60	 	 	 	 	 	 	 	 	 	 	 	 	 	 	 	 	 	 	1581521155	3.65	6.76
12/02/2020 15:25:56	120220	12022020	152556	93.33	12.418837	-57.021835	93.39	0.110	-3.010	2.610	93.26	-4.20	3.00	 	 	 	 	 	 	 	 	 	 	 	 	 	 	 	 	 	 	1581521156	4.58	8.48
12/02/2020 15:25:57	120220	12022020	152557	93.15	12.418835	-57.021815	93.24	1.150	-3.660	2.590	93.13	-5.00	3.00	 	 	 	 	 	 	 	 	 	 	 	 	 	 	 	 	 	 	1581521157	4.46	8.26
12/02/2020 15:25:58	120220	12022020	152558	93.23	12.418837	-57.021802	93.38	1.310	-2.130	2.120	93.26	-3.60	2.50	 	 	 	 	 	 	 	 	 	 	 	 	 	 	 	 	 	 	1581521158	2.81	5.20
12/02/2020 15:25:59	120220	12022020	152559	93.38	12.418840	-57.021795	93.52	0.790	0.180	1.310	93.40	-1.30	1.70	 	 	 	 	 	 	 	 	 	 	 	 	 	 	 	 	 	 	1581521159	1.48	2.74
12/02/2020 15:26:00	120220	12022020	152600	93.44	12.418845	-57.021788	93.51	0.140	1.680	0.340	93.43	0.30	0.80	 	 	 	 	 	 	 	 	 	 	 	 	 	 	 	 	 	 	1581521160	1.84	3.41
12/02/2020 15:26:01	120220	12022020	152601	93.38	12.418852	-57.021777	93.42	-0.350	2.010	-0.560	93.38	0.70	-0.10	 	 	 	 	 	 	 	 	 	 	 	 	 	 	 	 	 	 	1581521161	2.89	5.35
12/02/2020 15:26:02	120220	12022020	152602	93.48	12.418858	-57.021762	93.54	-0.690	1.630	-1.100	93.53	0.30	-0.70	1017.00	26.60	26.70	20.30	20.40	658.0	68.0	68.0	439.0	28.6	354.00	12.20	85.00	10.60	52412	10217.0	27.5	27.4	1581521162	3.37	6.24
12/02/2020 15:26:03	120220	12022020	152603	93.84	12.418860	-57.021747	93.93	-0.770	0.740	-1.270	93.93	-0.50	-0.90	 	 	 	 	 	 	 	 	 	 	 	 	 	 	 	 	 	 	1581521163	3.19	5.91
12/02/2020 15:26:04	120220	12022020	152604	94.16	12.418860	-57.021732	94.22	-0.410	-0.760	-0.980	94.18	-2.00	-0.60	 	 	 	 	 	 	 	 	 	 	 	 	 	 	 	 	 	 	1581521164	3.40	6.30
12/02/2020 15:26:05	120220	12022020	152605	94.09	12.418857	-57.021712	94.11	0.320	-2.450	-0.100	94.04	-3.70	0.20	 	 	 	 	 	 	 	 	 	 	 	 	 	 	 	 	 	 	1581521165	4.21	7.80
12/02/2020 15:26:06	120220	12022020	152606	93.74	12.418848	-57.021692	93.77	0.850	-2.940	1.300	93.65	-4.30	1.60	 	 	 	 	 	 	 	 	 	 	 	 	 	 	 	 	 	 	1581521166	4.61	8.54
12/02/2020 15:26:07	120220	12022020	152607	93.40	12.418840	-57.021677	93.50	0.730	-1.420	2.600	93.36	-2.90	2.90	 	 	 	 	 	 	 	 	 	 	 	 	 	 	 	 	 	 	1581521167	3.52	6.52
12/02/2020 15:26:08	120220	12022020	152608	93.32	12.418833	-57.021672	93.45	0.110	1.070	2.960	93.33	-0.40	3.30	 	 	 	 	 	 	 	 	 	 	 	 	 	 	 	 	 	 	1581521168	1.59	2.94
12/02/2020 15:26:09	120220	12022020	152609	93.44	12.418835	-57.021668	93.56	-0.500	2.530	2.370	93.48	1.20	2.80	 	 	 	 	 	 	 	 	 	 	 	 	 	 	 	 	 	 	1581521169	0.80	1.48
12/02/2020 15:26:10	120220	12022020	152610	93.64	12.418842	-57.021658	93.76	-0.650	1.840	1.220	93.69	0.60	1.70	 	 	 	 	 	 	 	 	 	 	 	 	 	 	 	 	 	 	1581521170	2.67	4.94
12/02/2020 15:26:11	120220	12022020	152611	93.88	12.418848	-57.021638	94.05	-0.380	-0.130	-0.000	93.95	-1.30	0.40	 	 	 	 	 	 	 	 	 	 	 	 	 	 	 	 	 	 	1581521171	4.50	8.33
12/02/2020 15:26:12	120220	12022020	152612	94.24	12.418853	-57.021615	94.29	-0.030	-1.740	-0.700	94.26	-3.00	-0.30	 	 	 	 	 	 	 	 	 	 	 	 	 	 	 	 	 	 	1581521172	4.86	9.00
12/02/2020 15:26:13	120220	12022020	152613	94.22	12.418852	-57.021597	94.19	0.210	-1.900	-0.590	94.18	-3.20	-0.30	 	 	 	 	 	 	 	 	 	 	 	 	 	 	 	 	 	 	1581521173	3.88	7.19
12/02/2020 15:26:14	120220	12022020	152614	93.91	12.418847	-57.021585	93.91	0.320	-0.860	-0.150	93.85	-2.30	0.20	 	 	 	 	 	 	 	 	 	 	 	 	 	 	 	 	 	 	1581521174	2.55	4.72
12/02/2020 15:26:15	120220	12022020	152615	93.63	12.418845	-57.021578	93.66	0.310	0.220	0.340	93.58	-1.10	0.70	 	 	 	 	 	 	 	 	 	 	 	 	 	 	 	 	 	 	1581521175	1.81	3.35
12/02/2020 15:26:16	120220	12022020	152616	93.47	12.418843	-57.021567	93.53	0.220	0.510	0.720	93.47	-0.80	1.10	 	 	 	 	 	 	 	 	 	 	 	 	 	 	 	 	 	 	1581521176	2.28	4.22
12/02/2020 15:26:17	120220	12022020	152617	93.51	12.418845	-57.021552	93.59	0.070	0.220	0.880	93.54	-1.10	1.30	 	 	 	 	 	 	 	 	 	 	 	 	 	 	 	 	 	 	1581521177	3.20	5.93
12/02/2020 15:26:18	120220	12022020	152618	93.66	12.418845	-57.021535	93.76	-0.080	-0.220	0.950	93.69	-1.50	1.30	 	 	 	 	 	 	 	 	 	 	 	 	 	 	 	 	 	 	1581521178	3.54	6.56
12/02/2020 15:26:19	120220	12022020	152619	93.81	12.418845	-57.021518	93.91	-0.100	-0.540	1.100	93.84	-1.80	1.40	 	 	 	 	 	 	 	 	 	 	 	 	 	 	 	 	 	 	1581521179	3.58	6.63
12/02/2020 15:26:20	120220	12022020	152620	93.97	12.418842	-57.021502	94.09	-0.040	-0.430	1.420	94.01	-1.80	1.80	 	 	 	 	 	 	 	 	 	 	 	 	 	 	 	 	 	 	1581521180	3.39	6.28
12/02/2020 15:26:21	120220	12022020	152621	94.08	12.418840	-57.021488	94.19	-0.020	-0.020	1.820	94.08	-1.40	2.20	 	 	 	 	 	 	 	 	 	 	 	 	 	 	 	 	 	 	1581521181	2.98	5.52
12/02/2020 15:26:22	120220	12022020	152622	94.03	12.418837	-57.021475	94.13	-0.050	0.210	2.090	94.01	-1.10	2.40	 	 	 	 	 	 	 	 	 	 	 	 	 	 	 	 	 	 	1581521182	2.90	5.37
12/02/2020 15:26:23	120220	12022020	152623	93.89	12.418835	-57.021460	93.97	-0.030	0.050	1.900	93.86	-1.30	2.30	 	 	 	 	 	 	 	 	 	 	 	 	 	 	 	 	 	 	1581521183	3.20	5.93
12/02/2020 15:26:24	120220	12022020	152624	93.81	12.418837	-57.021443	93.89	0.110	-0.350	1.370	93.81	-1.60	1.80	 	 	 	 	 	 	 	 	 	 	 	 	 	 	 	 	 	 	1581521184	3.63	6.72
12/02/2020 15:26:25	120220	12022020	152625	93.88	12.418838	-57.021425	93.98	0.310	-0.710	0.790	93.91	-2.00	1.20	 	 	 	 	 	 	 	 	 	 	 	 	 	 	 	 	 	 	1581521185	3.91	7.24
12/02/2020 15:26:26	120220	12022020	152626	93.98	12.418843	-57.021407	94.06	0.380	-0.670	0.160	93.99	-2.00	0.60	 	 	 	 	 	 	 	 	 	 	 	 	 	 	 	 	 	 	1581521186	3.83	7.09
12/02/2020 15:26:27	120220	12022020	152627	93.92	12.418847	-57.021390	93.95	0.140	-0.210	-0.310	93.90	-1.60	0.10	 	 	 	 	 	 	 	 	 	 	 	 	 	 	 	 	 	 	1581521187	3.50	6.48
12/02/2020 15:26:28	120220	12022020	152628	93.79	12.418848	-57.021377	93.81	-0.380	0.430	-0.420	93.77	-0.90	-0.00	 	 	 	 	 	 	 	 	 	 	 	 	 	 	 	 	 	 	1581521188	3.09	5.72
12/02/2020 15:26:29	120220	12022020	152629	93.69	12.418847	-57.021363	93.71	-0.820	0.710	-0.150	93.68	-0.60	0.20	 	 	 	 	 	 	 	 	 	 	 	 	 	 	 	 	 	 	1581521189	2.88	5.33
12/02/2020 15:26:30	120220	12022020	152630	93.58	12.418843	-57.021347	93.60	-0.700	0.180	0.250	93.55	-1.10	0.60	 	 	 	 	 	 	 	 	 	 	 	 	 	 	 	 	 	 	1581521190	3.46	6.41
12/02/2020 15:26:31	120220	12022020	152631	93.41	12.418842	-57.021327	93.45	0.030	-0.830	0.590	93.38	-2.10	0.90	 	 	 	 	 	 	 	 	 	 	 	 	 	 	 	 	 	 	1581521191	4.37	8.09
12/02/2020 15:26:32	120220	12022020	152632	93.40	12.418840	-57.021305	93.49	0.740	-1.340	0.780	93.43	-2.60	1.10	 	 	 	 	 	 	 	 	 	 	 	 	 	 	 	 	 	 	1581521192	4.70	8.70
12/02/2020 15:26:33	120220	12022020	152633	93.61	12.418840	-57.021285	93.72	0.860	-0.940	0.920	93.65	-2.30	1.30	 	 	 	 	 	 	 	 	 	 	 	 	 	 	 	 	 	 	1581521193	4.06	7.52
12/02/2020 15:26:34	120220	12022020	152634	93.72	12.418838	-57.021270	93.81	0.440	-0.110	1.240	93.71	-1.40	1.60	 	 	 	 	 	 	 	 	 	 	 	 	 	 	 	 	 	 	1581521194	3.29	6.09
12/02/2020 15:26:35	120220	12022020	152635	93.60	12.418837	-57.021255	93.61	-0.080	0.580	1.770	93.54	-0.70	2.10	 	 	 	 	 	 	 	 	 	 	 	 	 	 	 	 	 	 	1581521195	3.21	5.94
12/02/2020 15:26:36	120220	12022020	152636	93.28	12.418833	-57.021238	93.35	-0.410	0.970	2.070	93.25	-0.30	2.40	 	 	 	 	 	 	 	 	 	 	 	 	 	 	 	 	 	 	1581521196	3.45	6.39
12/02/2020 15:26:37	120220	12022020	152637	93.21	12.418832	-57.021222	93.31	-0.510	0.880	1.860	93.23	-0.40	2.30	 	 	 	 	 	 	 	 	 	 	 	 	 	 	 	 	 	 	1581521197	3.63	6.72
12/02/2020 15:26:38	120220	12022020	152638	93.32	12.418833	-57.021202	93.40	-0.470	0.180	1.410	93.34	-1.10	1.80	 	 	 	 	 	 	 	 	 	 	 	 	 	 	 	 	 	 	1581521198	4.05	7.50
12/02/2020 15:26:39	120220	12022020	152639	93.33	12.418837	-57.021180	93.37	-0.240	-1.000	1.040	93.31	-2.20	1.40	 	 	 	 	 	 	 	 	 	 	 	 	 	 	 	 	 	 	1581521199	4.66	8.63
12/02/2020 15:26:40	120220	12022020	152640	93.18	12.418838	-57.021155	93.22	0.180	-2.010	0.900	93.15	-3.30	1.30	 	 	 	 	 	 	 	 	 	 	 	 	 	 	 	 	 	 	1581521200	5.23	9.69
12/02/2020 15:26:41	120220	12022020	152641	93.07	12.418838	-57.021132	93.16	0.530	-1.810	0.970	93.07	-3.10	1.30	 	 	 	 	 	 	 	 	 	 	 	 	 	 	 	 	 	 	1581521201	4.99	9.24
12/02/2020 15:26:42	120220	12022020	152642	93.12	12.418837	-57.021113	93.23	0.530	-0.470	1.120	93.14	-1.90	1.50	 	 	 	 	 	 	 	 	 	 	 	 	 	 	 	 	 	 	1581521202	3.79	7.02
12/02/2020 15:26:43	120220	12022020	152643	93.23	12.418835	-57.021100	93.33	0.250	0.820	1.140	93.26	-0.50	1.50	 	 	 	 	 	 	 	 	 	 	 	 	 	 	 	 	 	 	1581521203	3.14	5.82
12/02/2020 15:26:44	120220	12022020	152644	93.42	12.418837	-57.021082	93.54	-0.120	1.280	0.920	93.48	0.00	1.30	 	 	 	 	 	 	 	 	 	 	 	 	 	 	 	 	 	 	1581521204	3.63	6.72
12/02/2020 15:26:45	120220	12022020	152645	93.76	12.418838	-57.021062	93.88	-0.470	1.020	0.570	93.84	-0.20	1.00	 	 	 	 	 	 	 	 	 	 	 	 	 	 	 	 	 	 	1581521205	4.43	8.20
12/02/2020 15:26:46	120220	12022020	152646	94.16	12.418840	-57.021040	94.27	-0.650	0.480	0.280	94.24	-0.80	0.70	 	 	 	 	 	 	 	 	 	 	 	 	 	 	 	 	 	 	1581521206	4.71	8.72
12/02/2020 15:26:47	120220	12022020	152647	94.42	12.418840	-57.021017	94.47	-0.520	-0.250	0.220	94.43	-1.50	0.60	 	 	 	 	 	 	 	 	 	 	 	 	 	 	 	 	 	 	1581521207	4.67	8.65
12/02/2020 15:26:48	120220	12022020	152648	94.37	12.418838	-57.020993	94.40	-0.090	-1.080	0.380	94.34	-2.30	0.80	 	 	 	 	 	 	 	 	 	 	 	 	 	 	 	 	 	 	1581521208	4.90	9.07
12/02/2020 15:26:49	120220	12022020	152649	94.18	12.418837	-57.020970	94.21	0.360	-1.550	0.610	94.14	-2.80	1.00	 	 	 	 	 	 	 	 	 	 	 	 	 	 	 	 	 	 	1581521209	5.12	9.48
12/02/2020 15:26:50	120220	12022020	152650	94.02	12.418837	-57.020947	94.08	0.520	-1.270	0.780	93.99	-2.60	1.20	 	 	 	 	 	 	 	 	 	 	 	 	 	 	 	 	 	 	1581521210	4.85	8.98
12/02/2020 15:26:51	120220	12022020	152651	93.90	12.418835	-57.020927	93.96	0.350	-0.420	0.780	93.88	-1.70	1.20	 	 	 	 	 	 	 	 	 	 	 	 	 	 	 	 	 	 	1581521211	4.28	7.93
12/02/2020 15:26:52	120220	12022020	152652	93.84	12.418835	-57.020907	93.89	0.090	0.330	0.510	93.84	-1.00	0.90	 	 	 	 	 	 	 	 	 	 	 	 	 	 	 	 	 	 	1581521212	4.07	7.54
12/02/2020 15:26:53	120220	12022020	152653	93.89	12.418838	-57.020887	93.94	-0.010	0.500	0.110	93.91	-0.80	0.50	 	 	 	 	 	 	 	 	 	 	 	 	 	 	 	 	 	 	1581521213	4.52	8.37
12/02/2020 15:26:54	120220	12022020	152654	93.96	12.418838	-57.020862	93.97	0.080	0.120	-0.060	93.94	-1.10	0.30	 	 	 	 	 	 	 	 	 	 	 	 	 	 	 	 	 	 	1581521214	5.20	9.63
12/02/2020 15:26:55	120220	12022020	152655	93.79	12.418838	-57.020835	93.78	0.120	-0.290	0.100	93.74	-1.50	0.50	 	 	 	 	 	 	 	 	 	 	 	 	 	 	 	 	 	 	1581521215	5.63	10.43
12/02/2020 15:26:56	120220	12022020	152656	93.54	12.418837	-57.020810	93.54	-0.140	-0.220	0.410	93.49	-1.50	0.80	 	 	 	 	 	 	 	 	 	 	 	 	 	 	 	 	 	 	1581521216	5.43	10.06
12/02/2020 15:26:57	120220	12022020	152657	93.29	12.418833	-57.020787	93.31	-0.610	0.330	0.990	93.25	-1.00	1.30	 	 	 	 	 	 	 	 	 	 	 	 	 	 	 	 	 	 	1581521217	4.71	8.72
12/02/2020 15:26:58	120220	12022020	152658	93.23	12.418830	-57.020768	93.33	-0.930	0.890	1.420	93.27	-0.40	1.80	 	 	 	 	 	 	 	 	 	 	 	 	 	 	 	 	 	 	1581521218	4.21	7.80
12/02/2020 15:26:59	120220	12022020	152659	93.61	12.418828	-57.020748	93.75	-0.780	0.720	1.320	93.71	-0.50	1.70	 	 	 	 	 	 	 	 	 	 	 	 	 	 	 	 	 	 	1581521219	4.22	7.82
12/02/2020 15:27:00	120220	12022020	152700	94.03	12.418827	-57.020723	94.12	-0.080	-0.580	1.240	94.07	-1.80	1.60	 	 	 	 	 	 	 	 	 	 	 	 	 	 	 	 	 	 	1581521220	5.16	9.56
12/02/2020 15:27:01	120220	12022020	152701	93.99	12.418825	-57.020693	93.91	0.870	-2.160	1.710	93.92	-3.40	2.00	 	 	 	 	 	 	 	 	 	 	 	 	 	 	 	 	 	 	1581521221	6.47	11.98
12/02/2020 15:27:02	120220	12022020	152702	93.34	12.418822	-57.020662	93.35	1.370	-2.430	2.410	93.23	-3.70	2.70	1017.10	26.60	26.70	20.30	20.40	609.0	68.0	68.0	440.0	28.6	353.00	12.70	86.00	10.70	49440	11947.0	27.5	27.5	1581521222	6.57	12.17
12/02/2020 15:27:03	120220	12022020	152703	92.95	12.418820	-57.020638	93.01	1.060	-1.140	2.700	92.90	-2.50	3.10	 	 	 	 	 	 	 	 	 	 	 	 	 	 	 	 	 	 	1581521223	5.18	9.59
12/02/2020 15:27:04	120220	12022020	152704	93.06	12.418822	-57.020618	93.26	0.210	0.570	2.150	93.16	-0.80	2.60	 	 	 	 	 	 	 	 	 	 	 	 	 	 	 	 	 	 	1581521224	4.16	7.70
12/02/2020 15:27:05	120220	12022020	152705	93.71	12.418827	-57.020598	93.91	-0.670	1.700	1.110	93.87	0.40	1.60	 	 	 	 	 	 	 	 	 	 	 	 	 	 	 	 	 	 	1581521225	4.30	7.96
12/02/2020 15:27:06	120220	12022020	152706	94.43	12.418832	-57.020577	94.58	-1.240	2.000	0.080	94.55	0.70	0.50	 	 	 	 	 	 	 	 	 	 	 	 	 	 	 	 	 	 	1581521226	4.80	8.89
12/02/2020 15:27:07	120220	12022020	152707	94.90	12.418835	-57.020552	94.96	-1.340	1.240	-0.540	94.93	0.00	-0.10	 	 	 	 	 	 	 	 	 	 	 	 	 	 	 	 	 	 	1581521227	5.25	9.72
12/02/2020 15:27:08	120220	12022020	152708	94.93	12.418833	-57.020523	94.93	-0.810	-0.460	-0.480	94.90	-1.60	-0.10	 	 	 	 	 	 	 	 	 	 	 	 	 	 	 	 	 	 	1581521228	6.09	11.28
12/02/2020 15:27:09	120220	12022020	152709	94.71	12.418828	-57.020490	94.70	0.200	-2.050	-0.040	94.66	-3.20	0.30	 	 	 	 	 	 	 	 	 	 	 	 	 	 	 	 	 	 	1581521229	6.86	12.70
12/02/2020 15:27:10	120220	12022020	152710	94.58	12.418825	-57.020460	94.65	1.170	-2.350	0.180	94.61	-3.60	0.60	 	 	 	 	 	 	 	 	 	 	 	 	 	 	 	 	 	 	1581521230	6.52	12.08
12/02/2020 15:27:11	120220	12022020	152711	94.86	12.418828	-57.020435	94.98	1.420	-1.350	0.090	94.94	-2.70	0.50	 	 	 	 	 	 	 	 	 	 	 	 	 	 	 	 	 	 	1581521231	5.42	10.04
12/02/2020 15:27:12	120220	12022020	152712	95.19	12.418830	-57.020413	95.27	0.770	0.120	0.140	95.23	-1.20	0.50	 	 	 	 	 	 	 	 	 	 	 	 	 	 	 	 	 	 	1581521232	4.58	8.48
12/02/2020 15:27:13	120220	12022020	152713	95.29	12.418830	-57.020393	95.34	-0.340	1.250	0.470	95.29	-0.10	0.80	 	 	 	 	 	 	 	 	 	 	 	 	 	 	 	 	 	 	1581521233	4.35	8.06
12/02/2020 15:27:14	120220	12022020	152714	95.24	12.418825	-57.020370	95.27	-1.170	1.590	0.890	95.22	0.30	1.20	 	 	 	 	 	 	 	 	 	 	 	 	 	 	 	 	 	 	1581521234	4.73	8.76
12/02/2020 15:27:15	120220	12022020	152715	95.10	12.418820	-57.020345	95.13	-1.210	0.900	1.110	95.06	-0.30	1.50	 	 	 	 	 	 	 	 	 	 	 	 	 	 	 	 	 	 	1581521235	5.51	10.20
12/02/2020 15:27:16	120220	12022020	152716	94.90	12.418815	-57.020315	94.92	-0.510	-0.480	1.000	94.85	-1.70	1.40	 	 	 	 	 	 	 	 	 	 	 	 	 	 	 	 	 	 	1581521236	6.40	11.85
12/02/2020 15:27:17	120220	12022020	152717	94.59	12.418815	-57.020283	94.57	0.370	-1.680	0.730	94.51	-2.90	1.10	 	 	 	 	 	 	 	 	 	 	 	 	 	 	 	 	 	 	1581521237	6.90	12.78
12/02/2020 15:27:18	120220	12022020	152718	94.13	12.418815	-57.020252	94.11	0.890	-1.880	0.530	94.03	-3.20	0.90	 	 	 	 	 	 	 	 	 	 	 	 	 	 	 	 	 	 	1581521238	6.59	12.20
12/02/2020 15:27:19	120220	12022020	152719	93.64	12.418817	-57.020225	93.62	0.780	-1.000	0.480	93.54	-2.30	0.80	 	 	 	 	 	 	 	 	 	 	 	 	 	 	 	 	 	 	1581521239	5.65	10.46
12/02/2020 15:27:20	120220	12022020	152720	93.15	12.418817	-57.020202	93.15	0.230	0.270	0.540	93.05	-1.10	0.90	 	 	 	 	 	 	 	 	 	 	 	 	 	 	 	 	 	 	1581521240	4.82	8.93
12/02/2020 15:27:21	120220	12022020	152721	92.72	12.418815	-57.020180	92.73	-0.330	1.150	0.660	92.65	-0.20	1.00	 	 	 	 	 	 	 	 	 	 	 	 	 	 	 	 	 	 	1581521241	4.74	8.78
12/02/2020 15:27:22	120220	12022020	152722	92.48	12.418813	-57.020155	92.53	-0.590	1.240	0.660	92.45	-0.00	1.00	 	 	 	 	 	 	 	 	 	 	 	 	 	 	 	 	 	 	1581521242	5.24	9.70
12/02/2020 15:27:23	120220	12022020	152723	92.34	12.418812	-57.020127	92.37	-0.380	0.390	0.700	92.30	-0.80	1.10	 	 	 	 	 	 	 	 	 	 	 	 	 	 	 	 	 	 	1581521243	5.96	11.04
12/02/2020 15:27:24	120220	12022020	152724	92.19	12.418810	-57.020093	92.26	0.140	-0.860	1.060	92.18	-2.10	1.40	 	 	 	 	 	 	 	 	 	 	 	 	 	 	 	 	 	 	1581521244	6.88	12.74
12/02/2020 15:27:25	120220	12022020	152725	92.15	12.418808	-57.020062	92.21	0.510	-1.450	1.670	92.14	-2.70	2.00	 	 	 	 	 	 	 	 	 	 	 	 	 	 	 	 	 	 	1581521245	6.94	12.85
12/02/2020 15:27:26	120220	12022020	152726	92.00	12.418803	-57.020033	92.07	0.440	-1.120	2.460	91.95	-2.40	2.80	 	 	 	 	 	 	 	 	 	 	 	 	 	 	 	 	 	 	1581521246	6.07	11.24
12/02/2020 15:27:27	120220	12022020	152727	91.74	12.418800	-57.020008	91.85	0.070	-0.320	3.230	91.69	-1.60	3.60	 	 	 	 	 	 	 	 	 	 	 	 	 	 	 	 	 	 	1581521247	5.39	9.98
12/02/2020 15:27:28	120220	12022020	152728	91.69	12.418797	-57.019985	91.88	-0.340	0.630	3.410	91.74	-0.70	3.80	 	 	 	 	 	 	 	 	 	 	 	 	 	 	 	 	 	 	1581521248	5.04	9.33
12/02/2020 15:27:29	120220	12022020	152729	92.14	12.418797	-57.019962	92.38	-0.560	1.060	2.820	92.27	-0.20	3.20	 	 	 	 	 	 	 	 	 	 	 	 	 	 	 	 	 	 	1581521249	4.85	8.98
12/02/2020 15:27:30	120220	12022020	152730	92.85	12.418800	-57.019935	93.06	-0.260	0.230	2.040	92.98	-0.90	2.50	 	 	 	 	 	 	 	 	 	 	 	 	 	 	 	 	 	 	1581521250	5.67	10.50
12/02/2020 15:27:31	120220	12022020	152731	93.36	12.418803	-57.019902	93.50	0.460	-1.300	1.390	93.43	-2.50	1.80	 	 	 	 	 	 	 	 	 	 	 	 	 	 	 	 	 	 	1581521251	7.08	13.11
12/02/2020 15:27:32	120220	12022020	152732	93.64	12.418807	-57.019867	93.78	1.020	-2.080	0.840	93.70	-3.30	1.20	 	 	 	 	 	 	 	 	 	 	 	 	 	 	 	 	 	 	1581521252	7.54	13.96
12/02/2020 15:27:33	120220	12022020	152733	94.03	12.418810	-57.019835	94.20	0.890	-1.190	0.630	94.14	-2.60	1.00	 	 	 	 	 	 	 	 	 	 	 	 	 	 	 	 	 	 	1581521253	6.48	12.00
12/02/2020 15:27:34	120220	12022020	152734	94.68	12.418812	-57.019813	94.86	0.080	0.840	0.510	94.83	-0.60	0.90	 	 	 	 	 	 	 	 	 	 	 	 	 	 	 	 	 	 	1581521254	4.66	8.63
12/02/2020 15:27:35	120220	12022020	152735	95.38	12.418815	-57.019797	95.52	-0.860	2.270	0.240	95.50	1.00	0.60	 	 	 	 	 	 	 	 	 	 	 	 	 	 	 	 	 	 	1581521255	3.76	6.96
12/02/2020 15:27:36	120220	12022020	152736	95.85	12.418815	-57.019773	95.93	-1.160	1.570	0.050	95.91	0.40	0.40	 	 	 	 	 	 	 	 	 	 	 	 	 	 	 	 	 	 	1581521256	4.86	9.00
12/02/2020 15:27:37	120220	12022020	152737	96.10	12.418812	-57.019740	96.27	-0.580	-0.570	-0.030	96.17	-1.70	0.40	 	 	 	 	 	 	 	 	 	 	 	 	 	 	 	 	 	 	1581521257	7.06	13.08
12/02/2020 15:27:38	120220	12022020	152738	96.61	12.418810	-57.019702	96.72	0.340	-2.090	-0.290	96.71	-3.30	0.10	 	 	 	 	 	 	 	 	 	 	 	 	 	 	 	 	 	 	1581521258	7.89	14.61
12/02/2020 15:27:39	120220	12022020	152739	97.03	12.418810	-57.019670	97.23	0.830	-1.880	-0.740	97.12	-3.20	-0.30	 	 	 	 	 	 	 	 	 	 	 	 	 	 	 	 	 	 	1581521259	6.74	12.48
12/02/2020 15:27:40	120220	12022020	152740	97.55	12.418812	-57.019647	97.61	0.630	-0.560	-1.110	97.61	-1.90	-0.70	 	 	 	 	 	 	 	 	 	 	 	 	 	 	 	 	 	 	1581521260	5.14	9.52
12/02/2020 15:27:41	120220	12022020	152741	97.69	12.418812	-57.019625	97.69	0.090	0.490	-1.070	97.67	-0.80	-0.70	 	 	 	 	 	 	 	 	 	 	 	 	 	 	 	 	 	 	1581521261	4.58	8.48
12/02/2020 15:27:42	120220	12022020	152742	97.42	12.418810	-57.019600	97.38	-0.330	0.650	-0.600	97.33	-0.60	-0.30	 	 	 	 	 	 	 	 	 	 	 	 	 	 	 	 	 	 	1581521262	5.24	9.70
12/02/2020 15:27:43	120220	12022020	152743	96.86	12.418805	-57.019572	96.82	-0.430	0.170	-0.040	96.74	-1.10	0.30	 	 	 	 	 	 	 	 	 	 	 	 	 	 	 	 	 	 	1581521263	6.18	11.45
12/02/2020 15:27:44	120220	12022020	152744	96.36	12.418800	-57.019540	96.36	-0.310	-0.300	0.370	96.29	-1.50	0.70	 	 	 	 	 	 	 	 	 	 	 	 	 	 	 	 	 	 	1581521264	6.61	12.24
12/02/2020 15:27:45	120220	12022020	152745	96.10	12.418795	-57.019510	96.12	-0.160	-0.410	0.530	96.05	-1.70	0.90	 	 	 	 	 	 	 	 	 	 	 	 	 	 	 	 	 	 	1581521265	6.33	11.72
12/02/2020 15:27:46	120220	12022020	152746	95.80	12.418792	-57.019483	95.77	-0.010	-0.390	0.460	95.70	-1.60	0.80	 	 	 	 	 	 	 	 	 	 	 	 	 	 	 	 	 	 	1581521266	5.92	10.96
12/02/2020 15:27:47	120220	12022020	152747	95.17	12.418790	-57.019455	95.09	0.210	-0.470	0.430	95.01	-1.70	0.80	 	 	 	 	 	 	 	 	 	 	 	 	 	 	 	 	 	 	1581521267	5.95	11.02
12/02/2020 15:27:48	120220	12022020	152748	94.35	12.418788	-57.019425	94.27	0.340	-0.390	0.530	94.20	-1.70	0.90	 	 	 	 	 	 	 	 	 	 	 	 	 	 	 	 	 	 	1581521268	6.14	11.37
12/02/2020 15:27:49	120220	12022020	152749	93.68	12.418785	-57.019398	93.63	0.120	0.160	0.600	93.55	-1.10	1.00	 	 	 	 	 	 	 	 	 	 	 	 	 	 	 	 	 	 	1581521269	5.80	10.74
12/02/2020 15:27:50	120220	12022020	152750	93.04	12.418782	-57.019373	92.96	-0.330	0.670	0.600	92.88	-0.60	1.00	 	 	 	 	 	 	 	 	 	 	 	 	 	 	 	 	 	 	1581521270	5.18	9.59
12/02/2020 15:27:51	120220	12022020	152751	92.29	12.418778	-57.019348	91.91	-0.430	0.380	0.780	92.07	-0.80	1.10	 	 	 	 	 	 	 	 	 	 	 	 	 	 	 	 	 	 	1581521271	5.39	9.98
12/02/2020 15:27:52	120220	12022020	152752	90.76	12.418775	-57.019318	90.61	0.110	-0.650	1.040	90.51	-1.90	1.40	 	 	 	 	 	 	 	 	 	 	 	 	 	 	 	 	 	 	1581521272	6.42	11.89
12/02/2020 15:27:53	120220	12022020	152753	89.83	12.418775	-57.019285	89.59	0.740	-1.390	1.010	89.64	-2.60	1.40	 	 	 	 	 	 	 	 	 	 	 	 	 	 	 	 	 	 	1581521273	7.01	12.98
12/02/2020 15:27:54	120220	12022020	152754	89.01	12.418777	-57.019255	88.99	0.790	-1.200	0.770	88.91	-2.50	1.10	 	 	 	 	 	 	 	 	 	 	 	 	 	 	 	 	 	 	1581521274	6.54	12.11
12/02/2020 15:27:55	120220	12022020	152755	88.39	12.418777	-57.019228	88.35	0.190	-0.140	0.910	88.23	-1.50	1.20	 	 	 	 	 	 	 	 	 	 	 	 	 	 	 	 	 	 	1581521275	5.49	10.17
12/02/2020 15:27:56	120220	12022020	152756	87.51	12.418773	-57.019207	87.45	-0.610	1.010	1.570	87.31	-0.30	1.90	 	 	 	 	 	 	 	 	 	 	 	 	 	 	 	 	 	 	1581521276	4.84	8.96
12/02/2020 15:27:57	120220	12022020	152757	86.56	12.418768	-57.019182	86.53	-0.950	1.200	2.260	86.39	-0.00	2.60	 	 	 	 	 	 	 	 	 	 	 	 	 	 	 	 	 	 	1581521277	5.16	9.56
12/02/2020 15:27:58	120220	12022020	152758	85.75	12.418765	-57.019152	85.77	-0.590	0.140	2.690	85.61	-1.00	3.00	 	 	 	 	 	 	 	 	 	 	 	 	 	 	 	 	 	 	1581521278	6.37	11.80
12/02/2020 15:27:59	120220	12022020	152759	85.18	12.418763	-57.019118	85.23	0.040	-1.080	2.850	85.09	-2.30	3.20	 	 	 	 	 	 	 	 	 	 	 	 	 	 	 	 	 	 	1581521279	7.32	13.56
12/02/2020 15:28:00	120220	12022020	152800	84.82	12.418765	-57.019085	84.90	0.450	-1.440	2.860	84.76	-2.70	3.20	 	 	 	 	 	 	 	 	 	 	 	 	 	 	 	 	 	 	1581521280	6.99	12.95
12/02/2020 15:28:01	120220	12022020	152801	84.53	12.418767	-57.019057	84.60	0.540	-0.900	2.800	84.47	-2.20	3.20	 	 	 	 	 	 	 	 	 	 	 	 	 	 	 	 	 	 	1581521281	6.00	11.11
12/02/2020 15:28:02	120220	12022020	152802	84.28	12.418770	-57.019032	84.38	0.470	-0.070	2.610	84.25	-1.40	3.00	1017.00	26.60	26.70	20.40	20.50	520.0	68.0	68.0	439.0	28.5	353.00	14.00	84.00	11.10	44845	12012.0	27.5	27.4	1581521282	5.34	9.89
12/02/2020 15:28:03	120220	12022020	152803	84.25	12.418773	-57.019007	84.39	0.410	0.420	2.230	84.28	-0.90	2.60	 	 	 	 	 	 	 	 	 	 	 	 	 	 	 	 	 	 	1581521283	5.39	9.98
12/02/2020 15:28:04	120220	12022020	152804	84.36	12.418778	-57.018978	84.49	0.280	0.510	1.910	84.37	-0.80	2.30	 	 	 	 	 	 	 	 	 	 	 	 	 	 	 	 	 	 	1581521284	5.84	10.82
12/02/2020 15:28:05	120220	12022020	152805	84.40	12.418783	-57.018952	84.51	-0.130	0.530	1.570	84.41	-0.80	2.00	 	 	 	 	 	 	 	 	 	 	 	 	 	 	 	 	 	 	1581521285	5.97	11.06
12/02/2020 15:28:06	120220	12022020	152806	84.44	12.418790	-57.018925	84.55	-0.680	0.500	1.200	84.46	-0.80	1.60	 	 	 	 	 	 	 	 	 	 	 	 	 	 	 	 	 	 	1581521286	5.67	10.50
12/02/2020 15:28:07	120220	12022020	152807	84.71	12.418795	-57.018900	84.89	-0.930	0.020	0.920	84.81	-1.20	1.30	 	 	 	 	 	 	 	 	 	 	 	 	 	 	 	 	 	 	1581521287	5.56	10.30
12/02/2020 15:28:08	120220	12022020	152808	85.33	12.418800	-57.018870	85.52	-0.510	-1.100	0.810	85.46	-2.30	1.20	 	 	 	 	 	 	 	 	 	 	 	 	 	 	 	 	 	 	1581521288	6.13	11.35
12/02/2020 15:28:09	120220	12022020	152809	85.89	12.418802	-57.018838	86.04	0.490	-2.290	0.970	85.96	-3.50	1.30	 	 	 	 	 	 	 	 	 	 	 	 	 	 	 	 	 	 	1581521289	6.92	12.82
12/02/2020 15:28:10	120220	12022020	152810	86.17	12.418803	-57.018805	86.34	1.380	-2.370	1.400	86.23	-3.70	1.80	 	 	 	 	 	 	 	 	 	 	 	 	 	 	 	 	 	 	1581521290	7.07	13.09
12/02/2020 15:28:11	120220	12022020	152811	86.69	12.418807	-57.018778	86.97	1.160	-0.560	1.910	86.86	-2.00	2.30	 	 	 	 	 	 	 	 	 	 	 	 	 	 	 	 	 	 	1581521291	5.78	10.70
12/02/2020 15:28:12	120220	12022020	152812	87.69	12.418807	-57.018760	88.03	-0.210	2.020	2.390	87.92	0.60	2.70	 	 	 	 	 	 	 	 	 	 	 	 	 	 	 	 	 	 	1581521292	3.71	6.87
12/02/2020 15:28:13	120220	12022020	152813	88.82	12.418807	-57.018745	89.13	-1.680	3.350	2.480	89.03	2.00	2.90	 	 	 	 	 	 	 	 	 	 	 	 	 	 	 	 	 	 	1581521293	3.07	5.69
12/02/2020 15:28:14	120220	12022020	152814	89.77	12.418808	-57.018725	90.05	-2.010	2.300	2.010	89.95	1.10	2.40	 	 	 	 	 	 	 	 	 	 	 	 	 	 	 	 	 	 	1581521294	4.44	8.22
12/02/2020 15:28:15	120220	12022020	152815	90.45	12.418815	-57.018693	90.89	-0.880	-0.530	1.360	90.63	-1.70	1.80	 	 	 	 	 	 	 	 	 	 	 	 	 	 	 	 	 	 	1581521295	6.76	12.52
12/02/2020 15:28:16	120220	12022020	152816	91.61	12.418822	-57.018657	91.89	0.750	-3.120	0.860	91.84	-4.30	1.30	 	 	 	 	 	 	 	 	 	 	 	 	 	 	 	 	 	 	1581521296	7.96	14.74
12/02/2020 15:28:17	120220	12022020	152817	92.75	12.418827	-57.018623	93.03	1.700	-3.700	0.520	92.98	-5.00	0.90	 	 	 	 	 	 	 	 	 	 	 	 	 	 	 	 	 	 	1581521297	7.23	13.39
12/02/2020 15:28:18	120220	12022020	152818	93.86	12.418830	-57.018598	94.09	1.430	-1.980	0.300	94.04	-3.40	0.70	 	 	 	 	 	 	 	 	 	 	 	 	 	 	 	 	 	 	1581521298	5.23	9.69
12/02/2020 15:28:19	120220	12022020	152819	94.80	12.418833	-57.018582	95.00	0.420	0.750	0.260	94.97	-0.70	0.70	 	 	 	 	 	 	 	 	 	 	 	 	 	 	 	 	 	 	1581521299	3.49	6.46
12/02/2020 15:28:20	120220	12022020	152820	95.77	12.418837	-57.018568	95.98	-0.680	2.810	0.310	95.98	1.40	0.70	 	 	 	 	 	 	 	 	 	 	 	 	 	 	 	 	 	 	1581521300	3.06	5.67
12/02/2020 15:28:21	120220	12022020	152821	96.86	12.418840	-57.018550	97.05	-1.330	2.900	0.230	97.08	1.60	0.60	 	 	 	 	 	 	 	 	 	 	 	 	 	 	 	 	 	 	1581521301	3.89	7.20
12/02/2020 15:28:22	120220	12022020	152822	97.93	12.418840	-57.018522	98.10	-1.140	0.800	-0.030	98.14	-0.30	0.40	 	 	 	 	 	 	 	 	 	 	 	 	 	 	 	 	 	 	1581521302	5.77	10.69
12/02/2020 15:28:23	120220	12022020	152823	98.91	12.418840	-57.018487	99.04	-0.250	-1.890	-0.280	99.08	-3.00	0.10	 	 	 	 	 	 	 	 	 	 	 	 	 	 	 	 	 	 	1581521303	7.51	13.91
12/02/2020 15:28:24	120220	12022020	152824	99.68	12.418840	-57.018452	99.81	0.670	-3.050	-0.310	99.83	-4.30	0.10	 	 	 	 	 	 	 	 	 	 	 	 	 	 	 	 	 	 	1581521304	7.45	13.80
12/02/2020 15:28:25	120220	12022020	152825	100.44	12.418840	-57.018425	100.59	0.880	-1.850	-0.270	100.60	-3.30	0.10	 	 	 	 	 	 	 	 	 	 	 	 	 	 	 	 	 	 	1581521305	5.61	10.39
12/02/2020 15:28:26	120220	12022020	152826	101.33	12.418842	-57.018408	101.50	0.270	0.510	-0.600	101.53	-0.90	-0.20	 	 	 	 	 	 	 	 	 	 	 	 	 	 	 	 	 	 	1581521306	3.60	6.67
12/02/2020 15:28:27	120220	12022020	152827	102.05	12.418845	-57.018393	102.29	-0.580	1.910	-0.830	102.20	0.60	-0.40	 	 	 	 	 	 	 	 	 	 	 	 	 	 	 	 	 	 	1581521307	3.14	5.82
12/02/2020 15:28:28	120220	12022020	152828	102.61	12.418842	-57.018373	102.63	-0.950	1.330	-0.470	102.64	0.10	-0.10	 	 	 	 	 	 	 	 	 	 	 	 	 	 	 	 	 	 	1581521308	4.41	8.17
12/02/2020 15:28:29	120220	12022020	152829	102.64	12.418835	-57.018345	102.62	-0.510	-0.240	-0.050	102.62	-1.50	0.30	 	 	 	 	 	 	 	 	 	 	 	 	 	 	 	 	 	 	1581521309	6.21	11.50
12/02/2020 15:28:30	120220	12022020	152830	102.44	12.418828	-57.018313	102.39	0.430	-1.460	0.170	102.37	-2.70	0.60	 	 	 	 	 	 	 	 	 	 	 	 	 	 	 	 	 	 	1581521310	6.64	12.30
12/02/2020 15:28:31	120220	12022020	152831	102.06	12.418827	-57.018283	102.04	1.150	-1.840	0.280	102.00	-3.10	0.70	 	 	 	 	 	 	 	 	 	 	 	 	 	 	 	 	 	 	1581521311	6.25	11.58
12/02/2020 15:28:32	120220	12022020	152832	101.93	12.418827	-57.018258	101.99	1.100	-1.070	0.340	101.96	-2.40	0.70	 	 	 	 	 	 	 	 	 	 	 	 	 	 	 	 	 	 	1581521312	5.55	10.28
12/02/2020 15:28:33	120220	12022020	152833	102.23	12.418827	-57.018237	102.30	0.270	0.450	0.220	102.31	-1.00	0.60	 	 	 	 	 	 	 	 	 	 	 	 	 	 	 	 	 	 	1581521313	4.35	8.06
12/02/2020 15:28:34	120220	12022020	152834	102.50	12.418825	-57.018220	102.52	-0.700	1.490	0.090	102.51	0.20	0.50	 	 	 	 	 	 	 	 	 	 	 	 	 	 	 	 	 	 	1581521314	3.70	6.85
12/02/2020 15:28:35	120220	12022020	152835	102.26	12.418820	-57.018200	102.18	-1.080	1.080	0.340	102.14	-0.20	0.70	 	 	 	 	 	 	 	 	 	 	 	 	 	 	 	 	 	 	1581521315	4.50	8.33
12/02/2020 15:28:36	120220	12022020	152836	101.48	12.418810	-57.018172	101.35	-0.750	-0.240	0.800	101.29	-1.50	1.20	 	 	 	 	 	 	 	 	 	 	 	 	 	 	 	 	 	 	1581521316	6.05	11.20
12/02/2020 15:28:37	120220	12022020	152837	100.59	12.418800	-57.018143	100.49	-0.150	-1.130	1.000	100.44	-2.40	1.40	 	 	 	 	 	 	 	 	 	 	 	 	 	 	 	 	 	 	1581521317	6.46	11.96
12/02/2020 15:28:38	120220	12022020	152838	99.94	12.418793	-57.018118	99.86	0.320	-1.010	0.580	99.83	-2.30	1.00	 	 	 	 	 	 	 	 	 	 	 	 	 	 	 	 	 	 	1581521318	5.50	10.19
12/02/2020 15:28:39	120220	12022020	152839	99.37	12.418793	-57.018097	99.25	0.550	-0.380	-0.230	99.23	-1.70	0.20	 	 	 	 	 	 	 	 	 	 	 	 	 	 	 	 	 	 	1581521319	4.52	8.37
12/02/2020 15:28:40	120220	12022020	152840	98.60	12.418797	-57.018075	98.44	0.660	-0.170	-0.880	98.42	-1.50	-0.50	 	 	 	 	 	 	 	 	 	 	 	 	 	 	 	 	 	 	1581521320	4.65	8.61
12/02/2020 15:28:41	120220	12022020	152841	97.89	12.418800	-57.018050	97.60	0.550	-0.370	-1.170	97.74	-1.70	-0.80	 	 	 	 	 	 	 	 	 	 	 	 	 	 	 	 	 	 	1581521321	5.39	9.98
12/02/2020 15:28:42	120220	12022020	152842	96.93	12.418798	-57.018023	96.78	0.180	-0.410	-0.950	96.75	-1.70	-0.60	 	 	 	 	 	 	 	 	 	 	 	 	 	 	 	 	 	 	1581521322	5.53	10.24
12/02/2020 15:28:43	120220	12022020	152843	96.17	12.418792	-57.018000	95.81	-0.180	-0.180	-0.190	95.96	-1.50	0.10	 	 	 	 	 	 	 	 	 	 	 	 	 	 	 	 	 	 	1581521323	5.26	9.74
12/02/2020 15:28:44	120220	12022020	152844	94.81	12.418782	-57.017977	94.65	-0.280	0.190	0.820	94.59	-1.20	1.10	 	 	 	 	 	 	 	 	 	 	 	 	 	 	 	 	 	 	1581521324	5.22	9.67
12/02/2020 15:28:45	120220	12022020	152845	93.73	12.418773	-57.017955	93.62	-0.240	0.690	1.580	93.54	-0.70	1.90	 	 	 	 	 	 	 	 	 	 	 	 	 	 	 	 	 	 	1581521325	5.01	9.28
12/02/2020 15:28:46	120220	12022020	152846	92.87	12.418767	-57.017935	92.81	-0.240	0.880	1.940	92.71	-0.40	2.30	 	 	 	 	 	 	 	 	 	 	 	 	 	 	 	 	 	 	1581521326	4.63	8.57
12/02/2020 15:28:47	120220	12022020	152847	92.06	12.418763	-57.017912	92.00	-0.150	0.190	2.090	91.88	-1.00	2.40	 	 	 	 	 	 	 	 	 	 	 	 	 	 	 	 	 	 	1581521327	4.96	9.19
12/02/2020 15:28:48	120220	12022020	152848	91.11	12.418758	-57.017883	91.02	0.270	-1.250	2.410	90.89	-2.40	2.80	 	 	 	 	 	 	 	 	 	 	 	 	 	 	 	 	 	 	1581521328	6.02	11.15
12/02/2020 15:28:49	120220	12022020	152849	89.96	12.418753	-57.017852	89.88	0.900	-2.240	2.870	89.73	-3.50	3.20	 	 	 	 	 	 	 	 	 	 	 	 	 	 	 	 	 	 	1581521329	6.78	12.56
12/02/2020 15:28:50	120220	12022020	152850	88.93	12.418752	-57.017823	88.93	1.130	-1.530	3.040	88.78	-2.90	3.40	 	 	 	 	 	 	 	 	 	 	 	 	 	 	 	 	 	 	1581521330	6.06	11.22
12/02/2020 15:28:51	120220	12022020	152851	88.35	12.418752	-57.017803	88.44	0.560	0.470	2.830	88.29	-0.90	3.20	 	 	 	 	 	 	 	 	 	 	 	 	 	 	 	 	 	 	1581521331	4.16	7.70
12/02/2020 15:28:52	120220	12022020	152852	88.15	12.418753	-57.017788	88.25	-0.410	1.970	2.200	88.13	0.60	2.60	 	 	 	 	 	 	 	 	 	 	 	 	 	 	 	 	 	 	1581521332	3.22	5.96
12/02/2020 15:28:53	120220	12022020	152853	88.01	12.418757	-57.017768	88.07	-1.030	1.680	1.460	87.96	0.40	1.90	 	 	 	 	 	 	 	 	 	 	 	 	 	 	 	 	 	 	1581521333	4.20	7.78
12/02/2020 15:28:54	120220	12022020	152854	87.65	12.418760	-57.017742	87.67	-0.980	0.150	1.230	87.56	-1.00	1.60	 	 	 	 	 	 	 	 	 	 	 	 	 	 	 	 	 	 	1581521334	5.88	10.89
12/02/2020 15:28:55	120220	12022020	152855	87.28	12.418758	-57.017710	87.36	-0.450	-1.360	1.420	87.24	-2.60	1.80	 	 	 	 	 	 	 	 	 	 	 	 	 	 	 	 	 	 	1581521335	6.59	12.20
12/02/2020 15:28:56	120220	12022020	152856	87.28	12.418757	-57.017680	87.44	0.250	-2.010	1.710	87.31	-3.30	2.10	 	 	 	 	 	 	 	 	 	 	 	 	 	 	 	 	 	 	1581521336	6.29	11.65
12/02/2020 15:28:57	120220	12022020	152857	87.44	12.418753	-57.017655	87.59	0.770	-1.640	2.030	87.46	-2.90	2.40	 	 	 	 	 	 	 	 	 	 	 	 	 	 	 	 	 	 	1581521337	5.50	10.19
12/02/2020 15:28:58	120220	12022020	152858	87.45	12.418752	-57.017632	87.58	0.940	-0.650	2.180	87.44	-2.00	2.60	 	 	 	 	 	 	 	 	 	 	 	 	 	 	 	 	 	 	1581521338	4.81	8.91
12/02/2020 15:28:59	120220	12022020	152859	87.42	12.418752	-57.017610	87.56	0.620	0.520	2.090	87.43	-0.80	2.50	 	 	 	 	 	 	 	 	 	 	 	 	 	 	 	 	 	 	1581521339	4.47	8.28
12/02/2020 15:29:00	120220	12022020	152900	87.59	12.418757	-57.017590	87.75	-0.020	1.390	1.810	87.66	0.10	2.20	 	 	 	 	 	 	 	 	 	 	 	 	 	 	 	 	 	 	1581521340	4.27	7.91
12/02/2020 15:29:01	120220	12022020	152901	88.07	12.418762	-57.017570	88.27	-0.480	1.320	1.340	88.20	0.10	1.80	 	 	 	 	 	 	 	 	 	 	 	 	 	 	 	 	 	 	1581521341	4.55	8.43
12/02/2020 15:29:02	120220	12022020	152902	88.75	12.418768	-57.017545	88.97	-0.440	0.280	0.890	88.90	-0.90	1.30	1016.90	26.60	26.70	19.90	20.00	540.0	66.0	67.0	439.0	28.5	351.00	14.00	82.00	11.40	46267	13188.0	27.5	27.4	1581521342	5.42	10.04
12/02/2020 15:29:03	120220	12022020	152903	89.44	12.418772	-57.017517	89.64	-0.110	-0.910	0.710	89.57	-2.10	1.10	 	 	 	 	 	 	 	 	 	 	 	 	 	 	 	 	 	 	1581521343	6.08	11.26
12/02/2020 15:29:04	120220	12022020	152904	90.07	12.418773	-57.017490	90.28	0.060	-1.340	1.050	90.20	-2.60	1.40	 	 	 	 	 	 	 	 	 	 	 	 	 	 	 	 	 	 	1581521344	5.79	10.72
12/02/2020 15:29:05	120220	12022020	152905	90.64	12.418770	-57.017467	90.83	-0.060	-0.960	1.840	90.74	-2.30	2.20	 	 	 	 	 	 	 	 	 	 	 	 	 	 	 	 	 	 	1581521345	4.94	9.15
12/02/2020 15:29:06	120220	12022020	152906	91.09	12.418765	-57.017445	91.29	-0.190	-0.540	2.630	91.19	-1.80	3.00	 	 	 	 	 	 	 	 	 	 	 	 	 	 	 	 	 	 	1581521346	4.59	8.50
12/02/2020 15:29:07	120220	12022020	152907	91.62	12.418762	-57.017422	91.85	-0.040	-0.530	2.880	91.74	-1.80	3.30	 	 	 	 	 	 	 	 	 	 	 	 	 	 	 	 	 	 	1581521347	4.97	9.20
12/02/2020 15:29:08	120220	12022020	152908	92.31	12.418762	-57.017395	92.54	0.280	-0.510	2.510	92.45	-1.80	2.90	 	 	 	 	 	 	 	 	 	 	 	 	 	 	 	 	 	 	1581521348	5.55	10.28
12/02/2020 15:29:09	120220	12022020	152909	93.11	12.418765	-57.017370	93.31	0.380	0.100	1.690	93.27	-1.20	2.20	 	 	 	 	 	 	 	 	 	 	 	 	 	 	 	 	 	 	1581521349	5.45	10.09
12/02/2020 15:29:10	120220	12022020	152910	93.90	12.418773	-57.017348	94.05	0.040	0.920	0.720	94.05	-0.40	1.20	 	 	 	 	 	 	 	 	 	 	 	 	 	 	 	 	 	 	1581521350	4.95	9.17
12/02/2020 15:29:11	120220	12022020	152911	94.65	12.418780	-57.017327	94.79	-0.490	1.100	-0.350	94.82	-0.20	0.10	 	 	 	 	 	 	 	 	 	 	 	 	 	 	 	 	 	 	1581521351	4.88	9.04
12/02/2020 15:29:12	120220	12022020	152912	95.50	12.418785	-57.017302	95.62	-0.720	0.350	-1.300	95.69	-0.90	-0.80	 	 	 	 	 	 	 	 	 	 	 	 	 	 	 	 	 	 	1581521352	5.44	10.07
12/02/2020 15:29:13	120220	12022020	152913	96.35	12.418788	-57.017272	96.43	-0.390	-0.700	-1.960	96.49	-1.90	-1.50	 	 	 	 	 	 	 	 	 	 	 	 	 	 	 	 	 	 	1581521353	6.11	11.32
12/02/2020 15:29:14	120220	12022020	152914	96.93	12.418790	-57.017243	96.97	0.170	-1.210	-2.240	97.00	-2.50	-1.80	 	 	 	 	 	 	 	 	 	 	 	 	 	 	 	 	 	 	1581521354	6.14	11.37
12/02/2020 15:29:15	120220	12022020	152915	97.13	12.418792	-57.017217	97.10	0.450	-1.040	-2.020	97.13	-2.30	-1.60	 	 	 	 	 	 	 	 	 	 	 	 	 	 	 	 	 	 	1581521355	5.48	10.15
12/02/2020 15:29:16	120220	12022020	152916	97.11	12.418790	-57.017193	97.10	0.350	-0.690	-1.440	97.11	-2.00	-1.10	 	 	 	 	 	 	 	 	 	 	 	 	 	 	 	 	 	 	1581521356	5.07	9.39
12/02/2020 15:29:17	120220	12022020	152917	97.22	12.418787	-57.017168	97.26	0.080	-0.390	-0.700	97.26	-1.70	-0.30	 	 	 	 	 	 	 	 	 	 	 	 	 	 	 	 	 	 	1581521357	5.26	9.74
12/02/2020 15:29:18	120220	12022020	152918	97.41	12.418780	-57.017143	97.44	-0.140	-0.050	0.040	97.43	-1.40	0.40	 	 	 	 	 	 	 	 	 	 	 	 	 	 	 	 	 	 	1581521358	5.42	10.04
12/02/2020 15:29:19	120220	12022020	152919	97.41	12.418773	-57.017120	97.40	-0.150	0.210	0.600	97.37	-1.10	1.00	 	 	 	 	 	 	 	 	 	 	 	 	 	 	 	 	 	 	1581521359	5.38	9.96
12/02/2020 15:29:20	120220	12022020	152920	97.08	12.418768	-57.017093	97.01	-0.080	0.300	1.150	96.97	-1.00	1.50	 	 	 	 	 	 	 	 	 	 	 	 	 	 	 	 	 	 	1581521360	5.50	10.19
12/02/2020 15:29:21	120220	12022020	152921	96.48	12.418765	-57.017068	96.42	-0.200	0.320	1.590	96.37	-1.00	1.90	 	 	 	 	 	 	 	 	 	 	 	 	 	 	 	 	 	 	1581521361	5.55	10.28
12/02/2020 15:29:22	120220	12022020	152922	95.98	12.418762	-57.017042	95.95	-0.520	0.250	1.520	95.91	-1.00	1.90	 	 	 	 	 	 	 	 	 	 	 	 	 	 	 	 	 	 	1581521362	5.46	10.11
12/02/2020 15:29:23	120220	12022020	152923	95.64	12.418760	-57.017017	95.60	-0.730	0.010	1.080	95.57	-1.30	1.50	 	 	 	 	 	 	 	 	 	 	 	 	 	 	 	 	 	 	1581521363	5.39	9.98
12/02/2020 15:29:24	120220	12022020	152924	95.21	12.418760	-57.016990	95.10	-0.480	-0.470	0.530	95.09	-1.70	1.00	 	 	 	 	 	 	 	 	 	 	 	 	 	 	 	 	 	 	1581521364	5.56	10.30
12/02/2020 15:29:25	120220	12022020	152925	94.53	12.418760	-57.016963	94.38	0.180	-0.980	-0.000	94.37	-2.20	0.40	 	 	 	 	 	 	 	 	 	 	 	 	 	 	 	 	 	 	1581521365	5.88	10.89
12/02/2020 15:29:26	120220	12022020	152926	93.71	12.418762	-57.016935	93.56	0.770	-1.160	-0.460	93.55	-2.40	-0.00	 	 	 	 	 	 	 	 	 	 	 	 	 	 	 	 	 	 	1581521366	6.03	11.17
12/02/2020 15:29:27	120220	12022020	152927	92.88	12.418762	-57.016907	92.73	0.890	-0.780	-0.530	92.71	-2.10	-0.20	 	 	 	 	 	 	 	 	 	 	 	 	 	 	 	 	 	 	1581521367	5.71	10.57
12/02/2020 15:29:28	120220	12022020	152928	91.96	12.418758	-57.016883	91.81	0.590	-0.160	-0.140	91.75	-1.50	0.20	 	 	 	 	 	 	 	 	 	 	 	 	 	 	 	 	 	 	1581521368	5.26	9.74
12/02/2020 15:29:29	120220	12022020	152929	90.93	12.418757	-57.016858	90.81	0.230	0.280	0.400	90.73	-1.00	0.80	 	 	 	 	 	 	 	 	 	 	 	 	 	 	 	 	 	 	1581521369	5.31	9.83
12/02/2020 15:29:30	120220	12022020	152930	90.02	12.418755	-57.016832	89.93	-0.180	0.570	0.890	89.85	-0.70	1.20	 	 	 	 	 	 	 	 	 	 	 	 	 	 	 	 	 	 	1581521370	5.59	10.35
12/02/2020 15:29:31	120220	12022020	152931	89.29	12.418752	-57.016805	89.26	-0.680	0.760	1.540	89.17	-0.50	1.90	 	 	 	 	 	 	 	 	 	 	 	 	 	 	 	 	 	 	1581521371	5.55	10.28
12/02/2020 15:29:32	120220	12022020	152932	88.80	12.418747	-57.016780	88.83	-1.040	0.640	2.250	88.73	-0.60	2.60	 	 	 	 	 	 	 	 	 	 	 	 	 	 	 	 	 	 	1581521372	5.56	10.30
12/02/2020 15:29:33	120220	12022020	152933	88.55	12.418740	-57.016752	88.55	-0.900	0.060	2.810	88.49	-1.20	3.10	 	 	 	 	 	 	 	 	 	 	 	 	 	 	 	 	 	 	1581521373	5.88	10.89
12/02/2020 15:29:34	120220	12022020	152934	88.07	12.418735	-57.016723	88.09	-0.160	-0.910	3.330	87.95	-2.10	3.70	 	 	 	 	 	 	 	 	 	 	 	 	 	 	 	 	 	 	1581521374	6.32	11.70
12/02/2020 15:29:35	120220	12022020	152935	87.28	12.418732	-57.016692	87.28	0.770	-1.620	3.900	87.09	-2.90	4.20	 	 	 	 	 	 	 	 	 	 	 	 	 	 	 	 	 	 	1581521375	6.68	12.37
12/02/2020 15:29:36	120220	12022020	152936	86.51	12.418732	-57.016662	86.56	1.140	-1.350	4.080	86.41	-2.70	4.50	 	 	 	 	 	 	 	 	 	 	 	 	 	 	 	 	 	 	1581521376	6.33	11.72
12/02/2020 15:29:37	120220	12022020	152937	86.30	12.418735	-57.016637	86.44	0.770	-0.270	3.610	86.33	-1.60	4.00	 	 	 	 	 	 	 	 	 	 	 	 	 	 	 	 	 	 	1581521377	5.31	9.83
12/02/2020 15:29:38	120220	12022020	152938	86.61	12.418740	-57.016615	86.77	0.150	0.530	2.790	86.68	-0.80	3.20	 	 	 	 	 	 	 	 	 	 	 	 	 	 	 	 	 	 	1581521378	4.75	8.80
12/02/2020 15:29:39	120220	12022020	152939	86.90	12.418745	-57.016588	87.02	-0.060	0.220	2.040	86.93	-1.00	2.50	 	 	 	 	 	 	 	 	 	 	 	 	 	 	 	 	 	 	1581521379	5.52	10.22
12/02/2020 15:29:40	120220	12022020	152940	86.97	12.418750	-57.016558	87.07	0.060	-0.450	1.430	86.99	-1.70	1.90	 	 	 	 	 	 	 	 	 	 	 	 	 	 	 	 	 	 	1581521380	6.73	12.46
12/02/2020 15:29:41	120220	12022020	152941	87.19	12.418755	-57.016527	87.35	0.020	-0.240	0.980	87.28	-1.60	1.40	 	 	 	 	 	 	 	 	 	 	 	 	 	 	 	 	 	 	1581521381	6.53	12.09
12/02/2020 15:29:42	120220	12022020	152942	87.75	12.418758	-57.016503	87.95	-0.440	0.690	0.840	87.90	-0.70	1.30	 	 	 	 	 	 	 	 	 	 	 	 	 	 	 	 	 	 	1581521382	5.17	9.57
12/02/2020 15:29:43	120220	12022020	152943	88.51	12.418760	-57.016482	88.72	-1.020	1.230	0.820	88.67	-0.10	1.20	 	 	 	 	 	 	 	 	 	 	 	 	 	 	 	 	 	 	1581521383	4.41	8.17
12/02/2020 15:29:44	120220	12022020	152944	89.26	12.418760	-57.016458	89.45	-1.090	0.580	0.810	89.40	-0.70	1.20	 	 	 	 	 	 	 	 	 	 	 	 	 	 	 	 	 	 	1581521384	4.92	9.11
12/02/2020 15:29:45	120220	12022020	152945	89.82	12.418760	-57.016430	89.99	-0.270	-1.220	1.140	89.90	-2.40	1.50	 	 	 	 	 	 	 	 	 	 	 	 	 	 	 	 	 	 	1581521385	6.30	11.67
12/02/2020 15:29:46	120220	12022020	152946	90.12	12.418758	-57.016395	90.29	0.880	-2.640	1.860	90.17	-3.90	2.20	 	 	 	 	 	 	 	 	 	 	 	 	 	 	 	 	 	 	1581521386	7.44	13.78
12/02/2020 15:29:47	120220	12022020	152947	90.54	12.418757	-57.016363	90.77	1.270	-2.070	2.360	90.67	-3.40	2.80	 	 	 	 	 	 	 	 	 	 	 	 	 	 	 	 	 	 	1581521387	6.65	12.32
12/02/2020 15:29:48	120220	12022020	152948	91.40	12.418758	-57.016342	91.68	0.700	-0.110	2.250	91.61	-1.50	2.70	 	 	 	 	 	 	 	 	 	 	 	 	 	 	 	 	 	 	1581521388	4.60	8.52
12/02/2020 15:29:49	120220	12022020	152949	92.51	12.418762	-57.016323	92.78	-0.060	1.490	1.560	92.74	0.10	2.00	 	 	 	 	 	 	 	 	 	 	 	 	 	 	 	 	 	 	1581521389	3.82	7.07
12/02/2020 15:29:50	120220	12022020	152950	93.52	12.418768	-57.016302	93.70	-0.250	1.590	0.670	93.68	0.30	1.10	 	 	 	 	 	 	 	 	 	 	 	 	 	 	 	 	 	 	1581521390	4.84	8.96
12/02/2020 15:29:51	120220	12022020	152951	94.22	12.418773	-57.016272	94.36	-0.060	0.630	0.020	94.35	-0.60	0.50	 	 	 	 	 	 	 	 	 	 	 	 	 	 	 	 	 	 	1581521391	6.40	11.85
12/02/2020 15:29:52	120220	12022020	152952	94.93	12.418778	-57.016240	95.07	-0.140	-0.260	-0.420	95.09	-1.50	0.00	 	 	 	 	 	 	 	 	 	 	 	 	 	 	 	 	 	 	1581521392	6.82	12.63
12/02/2020 15:29:53	120220	12022020	152953	95.74	12.418780	-57.016212	95.88	-0.650	-0.530	-0.720	95.90	-1.80	-0.30	 	 	 	 	 	 	 	 	 	 	 	 	 	 	 	 	 	 	1581521393	6.08	11.26
12/02/2020 15:29:54	120220	12022020	152954	96.43	12.418778	-57.016185	96.50	-1.030	-0.570	-0.820	96.53	-1.90	-0.40	 	 	 	 	 	 	 	 	 	 	 	 	 	 	 	 	 	 	1581521394	5.31	9.83
12/02/2020 15:29:55	120220	12022020	152955	96.75	12.418775	-57.016160	96.84	-0.660	-1.000	-0.780	96.80	-2.30	-0.40	 	 	 	 	 	 	 	 	 	 	 	 	 	 	 	 	 	 	1581521395	5.50	10.19
12/02/2020 15:29:56	120220	12022020	152956	96.80	12.418772	-57.016130	96.78	0.330	-1.580	-0.670	96.77	-2.90	-0.30	 	 	 	 	 	 	 	 	 	 	 	 	 	 	 	 	 	 	1581521396	6.38	11.82
12/02/2020 15:29:57	120220	12022020	152957	96.63	12.418770	-57.016100	96.60	1.040	-1.270	-0.690	96.61	-2.60	-0.30	 	 	 	 	 	 	 	 	 	 	 	 	 	 	 	 	 	 	1581521397	6.52	12.08
12/02/2020 15:29:58	120220	12022020	152958	96.67	12.418772	-57.016073	96.70	0.820	0.140	-1.030	96.72	-1.30	-0.60	 	 	 	 	 	 	 	 	 	 	 	 	 	 	 	 	 	 	1581521398	5.54	10.26
12/02/2020 15:29:59	120220	12022020	152959	97.03	12.418775	-57.016052	97.06	-0.100	1.470	-1.450	97.10	0.10	-1.00	 	 	 	 	 	 	 	 	 	 	 	 	 	 	 	 	 	 	1581521399	4.60	8.52
12/02/2020 15:30:00	120220	12022020	153000	97.30	12.418775	-57.016028	97.28	-0.930	1.470	-1.370	97.30	0.20	-1.00	 	 	 	 	 	 	 	 	 	 	 	 	 	 	 	 	 	 	1581521400	4.84	8.96
12/02/2020 15:30:01	120220	12022020	153001	97.08	12.418767	-57.016000	97.00	-1.000	0.310	-0.670	96.98	-0.90	-0.30	 	 	 	 	 	 	 	 	 	 	 	 	 	 	 	 	 	 	1581521401	6.20	11.48
12/02/2020 15:30:02	120220	12022020	153002	96.46	12.418758	-57.015968	96.35	-0.320	-0.780	0.140	96.31	-2.00	0.50	1017.00	26.60	26.70	19.80	19.90	593.0	66.0	66.0	438.0	28.5	351.00	14.10	81.00	11.30	49623	11958.0	27.5	27.5	1581521402	6.97	12.91
12/02/2020 15:30:03	120220	12022020	153003	95.69	12.418750	-57.015940	95.59	0.540	-1.100	0.770	95.53	-2.40	1.10	 	 	 	 	 	 	 	 	 	 	 	 	 	 	 	 	 	 	1581521403	6.39	11.83
12/02/2020 15:30:04	120220	12022020	153004	94.94	12.418747	-57.015913	94.86	0.980	-1.010	1.110	94.80	-2.30	1.50	 	 	 	 	 	 	 	 	 	 	 	 	 	 	 	 	 	 	1581521404	5.69	10.54
12/02/2020 15:30:05	120220	12022020	153005	94.21	12.418747	-57.015885	94.12	0.870	-0.890	1.200	94.06	-2.20	1.60	 	 	 	 	 	 	 	 	 	 	 	 	 	 	 	 	 	 	1581521405	5.74	10.63
12/02/2020 15:30:06	120220	12022020	153006	93.44	12.418747	-57.015858	93.36	0.340	-0.490	1.220	93.30	-1.80	1.60	 	 	 	 	 	 	 	 	 	 	 	 	 	 	 	 	 	 	1581521406	5.91	10.95
12/02/2020 15:30:07	120220	12022020	153007	92.84	12.418745	-57.015832	92.80	-0.350	0.280	1.320	92.74	-1.10	1.70	 	 	 	 	 	 	 	 	 	 	 	 	 	 	 	 	 	 	1581521407	5.58	10.33
12/02/2020 15:30:08	120220	12022020	153008	92.47	12.418742	-57.015807	92.47	-0.880	0.930	1.500	92.41	-0.40	1.90	 	 	 	 	 	 	 	 	 	 	 	 	 	 	 	 	 	 	1581521408	5.26	9.74
12/02/2020 15:30:09	120220	12022020	153009	92.18	12.418735	-57.015782	92.15	-0.970	0.870	1.640	92.09	-0.40	2.00	 	 	 	 	 	 	 	 	 	 	 	 	 	 	 	 	 	 	1581521409	5.47	10.13
12/02/2020 15:30:10	120220	12022020	153010	91.54	12.418730	-57.015752	91.43	-0.440	-0.120	1.930	91.34	-1.30	2.30	 	 	 	 	 	 	 	 	 	 	 	 	 	 	 	 	 	 	1581521410	6.33	11.72
12/02/2020 15:30:11	120220	12022020	153011	90.45	12.418723	-57.015718	90.35	0.400	-1.250	2.370	90.24	-2.50	2.70	 	 	 	 	 	 	 	 	 	 	 	 	 	 	 	 	 	 	1581521411	7.21	13.35
12/02/2020 15:30:12	120220	12022020	153012	89.47	12.418722	-57.015685	89.46	0.890	-1.450	2.570	89.34	-2.80	3.00	 	 	 	 	 	 	 	 	 	 	 	 	 	 	 	 	 	 	1581521412	7.04	13.04
12/02/2020 15:30:13	120220	12022020	153013	89.02	12.418723	-57.015658	89.11	0.760	-0.560	2.260	89.01	-1.90	2.70	 	 	 	 	 	 	 	 	 	 	 	 	 	 	 	 	 	 	1581521413	5.87	10.87
12/02/2020 15:30:14	120220	12022020	153014	89.18	12.418728	-57.015635	89.34	0.300	0.420	1.630	89.25	-0.90	2.10	 	 	 	 	 	 	 	 	 	 	 	 	 	 	 	 	 	 	1581521414	5.04	9.33
12/02/2020 15:30:15	120220	12022020	153015	89.56	12.418733	-57.015610	89.69	0.060	0.460	1.180	89.62	-0.80	1.60	 	 	 	 	 	 	 	 	 	 	 	 	 	 	 	 	 	 	1581521415	5.41	10.02
12/02/2020 15:30:16	120220	12022020	153016	89.67	12.418733	-57.015578	89.75	0.150	-0.170	1.310	89.65	-1.40	1.70	 	 	 	 	 	 	 	 	 	 	 	 	 	 	 	 	 	 	1581521416	6.55	12.13
12/02/2020 15:30:17	120220	12022020	153017	89.57	12.418732	-57.015547	89.66	0.140	-0.260	1.780	89.56	-1.60	2.10	 	 	 	 	 	 	 	 	 	 	 	 	 	 	 	 	 	 	1581521417	6.79	12.58
12/02/2020 15:30:18	120220	12022020	153018	89.61	12.418730	-57.015520	89.75	-0.220	0.420	2.230	89.64	-0.90	2.60	 	 	 	 	 	 	 	 	 	 	 	 	 	 	 	 	 	 	1581521418	5.62	10.41
12/02/2020 15:30:19	120220	12022020	153019	89.86	12.418728	-57.015497	90.05	-0.620	0.670	2.520	89.95	-0.60	2.90	 	 	 	 	 	 	 	 	 	 	 	 	 	 	 	 	 	 	1581521419	4.82	8.93
12/02/2020 15:30:20	120220	12022020	153020	90.32	12.418728	-57.015470	90.51	-0.430	-0.510	2.410	90.41	-1.70	2.80	 	 	 	 	 	 	 	 	 	 	 	 	 	 	 	 	 	 	1581521420	5.77	10.69
12/02/2020 15:30:21	120220	12022020	153021	90.58	12.418730	-57.015435	90.73	0.420	-2.170	2.350	90.60	-3.40	2.80	 	 	 	 	 	 	 	 	 	 	 	 	 	 	 	 	 	 	1581521421	7.47	13.83
12/02/2020 15:30:22	120220	12022020	153022	90.62	12.418732	-57.015398	90.76	1.050	-2.260	2.490	90.64	-3.60	2.90	 	 	 	 	 	 	 	 	 	 	 	 	 	 	 	 	 	 	1581521422	7.64	14.15
12/02/2020 15:30:23	120220	12022020	153023	90.80	12.418732	-57.015372	91.10	0.710	-0.350	2.590	90.88	-1.80	3.00	 	 	 	 	 	 	 	 	 	 	 	 	 	 	 	 	 	 	1581521423	5.67	10.50
12/02/2020 15:30:24	120220	12022020	153024	91.65	12.418732	-57.015353	91.93	-0.370	1.820	2.230	91.84	0.40	2.70	 	 	 	 	 	 	 	 	 	 	 	 	 	 	 	 	 	 	1581521424	3.88	7.19
12/02/2020 15:30:25	120220	12022020	153025	92.47	12.418732	-57.015333	92.90	-1.240	2.440	1.270	92.67	1.10	1.80	 	 	 	 	 	 	 	 	 	 	 	 	 	 	 	 	 	 	1581521425	4.15	7.69
12/02/2020 15:30:26	120220	12022020	153026	93.44	12.418735	-57.015307	93.54	-1.170	1.170	0.090	93.52	-0.00	0.60	 	 	 	 	 	 	 	 	 	 	 	 	 	 	 	 	 	 	1581521426	5.93	10.98
12/02/2020 15:30:27	120220	12022020	153027	93.65	12.418740	-57.015270	93.65	-0.330	-0.790	-0.850	93.64	-2.00	-0.40	 	 	 	 	 	 	 	 	 	 	 	 	 	 	 	 	 	 	1581521427	7.59	14.06
12/02/2020 15:30:28	120220	12022020	153028	93.56	12.418747	-57.015235	93.55	0.460	-1.910	-1.390	93.54	-3.20	-0.90	 	 	 	 	 	 	 	 	 	 	 	 	 	 	 	 	 	 	1581521428	7.70	14.26
12/02/2020 15:30:29	120220	12022020	153029	93.53	12.418752	-57.015203	93.53	0.750	-1.810	-1.710	93.54	-3.10	-1.30	 	 	 	 	 	 	 	 	 	 	 	 	 	 	 	 	 	 	1581521429	6.57	12.17
12/02/2020 15:30:30	120220	12022020	153030	93.55	12.418755	-57.015177	93.56	0.700	-1.210	-1.710	93.54	-2.60	-1.30	 	 	 	 	 	 	 	 	 	 	 	 	 	 	 	 	 	 	1581521430	5.75	10.65
12/02/2020 15:30:31	120220	12022020	153031	93.48	12.418753	-57.015148	93.48	0.510	-0.590	-1.210	93.47	-1.90	-0.80	 	 	 	 	 	 	 	 	 	 	 	 	 	 	 	 	 	 	1581521431	5.84	10.82
12/02/2020 15:30:32	120220	12022020	153032	93.42	12.418748	-57.015122	93.44	0.180	0.200	-0.490	93.41	-1.20	-0.10	 	 	 	 	 	 	 	 	 	 	 	 	 	 	 	 	 	 	1581521432	6.05	11.20
12/02/2020 15:30:33	120220	12022020	153033	93.32	12.418740	-57.015093	93.32	-0.270	0.940	0.340	93.27	-0.40	0.70	 	 	 	 	 	 	 	 	 	 	 	 	 	 	 	 	 	 	1581521433	5.90	10.93
12/02/2020 15:30:34	120220	12022020	153034	92.93	12.418733	-57.015067	92.88	-0.670	1.200	1.220	92.81	-0.10	1.60	 	 	 	 	 	 	 	 	 	 	 	 	 	 	 	 	 	 	1581521434	5.90	10.93
12/02/2020 15:30:35	120220	12022020	153035	92.27	12.418728	-57.015038	92.22	-0.880	0.930	1.860	92.14	-0.40	2.20	 	 	 	 	 	 	 	 	 	 	 	 	 	 	 	 	 	 	1581521435	6.15	11.39
12/02/2020 15:30:36	120220	12022020	153036	91.69	12.418725	-57.015008	91.69	-0.800	0.220	2.050	91.62	-1.00	2.40	 	 	 	 	 	 	 	 	 	 	 	 	 	 	 	 	 	 	1581521436	6.37	11.80
12/02/2020 15:30:37	120220	12022020	153037	91.37	12.418725	-57.014977	91.38	-0.440	-0.690	1.860	91.32	-1.90	2.30	 	 	 	 	 	 	 	 	 	 	 	 	 	 	 	 	 	 	1581521437	6.67	12.35
12/02/2020 15:30:38	120220	12022020	153038	91.04	12.418725	-57.014945	91.02	0.120	-1.480	1.590	90.94	-2.70	2.00	 	 	 	 	 	 	 	 	 	 	 	 	 	 	 	 	 	 	1581521438	6.77	12.54
12/02/2020 15:30:39	120220	12022020	153039	90.34	12.418725	-57.014912	90.26	0.900	-2.060	1.570	90.14	-3.30	2.00	 	 	 	 	 	 	 	 	 	 	 	 	 	 	 	 	 	 	1581521439	6.90	12.78
12/02/2020 15:30:40	120220	12022020	153040	89.25	12.418723	-57.014878	89.19	1.620	-2.060	1.940	89.04	-3.40	2.30	 	 	 	 	 	 	 	 	 	 	 	 	 	 	 	 	 	 	1581521440	7.25	13.43
12/02/2020 15:30:41	120220	12022020	153041	88.43	12.418725	-57.014847	88.48	1.490	-0.670	2.140	88.36	-2.10	2.50	 	 	 	 	 	 	 	 	 	 	 	 	 	 	 	 	 	 	1581521441	6.79	12.58
12/02/2020 15:30:42	120220	12022020	153042	88.46	12.418727	-57.014822	88.65	0.210	1.720	1.870	88.57	0.20	2.30	 	 	 	 	 	 	 	 	 	 	 	 	 	 	 	 	 	 	1581521442	5.14	9.52
12/02/2020 15:30:43	120220	12022020	153043	89.25	12.418728	-57.014803	89.51	-1.520	3.390	1.480	89.44	2.00	1.90	 	 	 	 	 	 	 	 	 	 	 	 	 	 	 	 	 	 	1581521443	3.96	7.33
12/02/2020 15:30:44	120220	12022020	153044	90.08	12.418727	-57.014782	90.28	-2.350	2.750	1.310	90.19	1.50	1.70	 	 	 	 	 	 	 	 	 	 	 	 	 	 	 	 	 	 	1581521444	4.70	8.70
12/02/2020 15:30:45	120220	12022020	153045	90.37	12.418723	-57.014748	90.49	-1.400	-0.360	1.330	90.38	-1.50	1.70	 	 	 	 	 	 	 	 	 	 	 	 	 	 	 	 	 	 	1581521445	7.11	13.17
12/02/2020 15:30:46	120220	12022020	153046	90.04	12.418720	-57.014705	90.10	0.560	-3.660	1.860	89.94	-4.80	2.20	 	 	 	 	 	 	 	 	 	 	 	 	 	 	 	 	 	 	1581521446	9.20	17.04
12/02/2020 15:30:47	120220	12022020	153047	89.71	12.418717	-57.014663	89.87	1.850	-4.250	2.540	89.73	-5.60	2.90	 	 	 	 	 	 	 	 	 	 	 	 	 	 	 	 	 	 	1581521447	8.75	16.21
12/02/2020 15:30:48	120220	12022020	153048	90.14	12.418717	-57.014637	90.41	1.550	-1.630	2.620	90.30	-3.20	3.00	 	 	 	 	 	 	 	 	 	 	 	 	 	 	 	 	 	 	1581521448	5.59	10.35
12/02/2020 15:30:49	120220	12022020	153049	91.14	12.418718	-57.014622	91.42	0.200	1.660	2.000	91.34	0.20	2.40	 	 	 	 	 	 	 	 	 	 	 	 	 	 	 	 	 	 	1581521449	3.07	5.69
12/02/2020 15:30:50	120220	12022020	153050	92.16	12.418723	-57.014607	92.37	-0.850	2.930	1.170	92.31	1.60	1.60	 	 	 	 	 	 	 	 	 	 	 	 	 	 	 	 	 	 	1581521450	3.49	6.46
12/02/2020 15:30:51	120220	12022020	153051	92.76	12.418725	-57.014578	92.87	-0.800	1.610	0.600	92.82	0.40	1.00	 	 	 	 	 	 	 	 	 	 	 	 	 	 	 	 	 	 	1581521451	5.95	11.02
12/02/2020 15:30:52	120220	12022020	153052	92.93	12.418725	-57.014540	92.99	-0.110	-0.420	0.440	92.93	-1.70	0.90	 	 	 	 	 	 	 	 	 	 	 	 	 	 	 	 	 	 	1581521452	7.98	14.78
12/02/2020 15:30:53	120220	12022020	153053	92.98	12.418723	-57.014503	93.05	0.310	-1.370	0.300	93.00	-2.70	0.70	 	 	 	 	 	 	 	 	 	 	 	 	 	 	 	 	 	 	1581521453	7.78	14.41
12/02/2020 15:30:54	120220	12022020	153054	93.15	12.418725	-57.014473	93.23	0.060	-1.000	-0.170	93.20	-2.40	0.30	 	 	 	 	 	 	 	 	 	 	 	 	 	 	 	 	 	 	1581521454	6.26	11.59
12/02/2020 15:30:55	120220	12022020	153055	93.37	12.418728	-57.014450	93.44	-0.450	-0.190	-0.600	93.40	-1.60	-0.20	 	 	 	 	 	 	 	 	 	 	 	 	 	 	 	 	 	 	1581521455	5.16	9.56
12/02/2020 15:30:56	120220	12022020	153056	93.52	12.418728	-57.014425	93.59	-0.580	0.080	-0.770	93.55	-1.30	-0.40	 	 	 	 	 	 	 	 	 	 	 	 	 	 	 	 	 	 	1581521456	5.18	9.59
12/02/2020 15:30:57	120220	12022020	153057	93.65	12.418727	-57.014397	93.70	-0.040	-0.490	-0.950	93.66	-1.80	-0.50	 	 	 	 	 	 	 	 	 	 	 	 	 	 	 	 	 	 	1581521457	6.14	11.37
12/02/2020 15:30:58	120220	12022020	153058	93.46	12.418725	-57.014363	93.42	0.800	-1.260	-0.810	93.36	-2.60	-0.40	 	 	 	 	 	 	 	 	 	 	 	 	 	 	 	 	 	 	1581521458	7.10	13.15
12/02/2020 15:30:59	120220	12022020	153059	92.96	12.418722	-57.014328	92.77	1.160	-1.290	-0.260	92.84	-2.70	0.10	 	 	 	 	 	 	 	 	 	 	 	 	 	 	 	 	 	 	1581521459	7.24	13.41
12/02/2020 15:31:00	120220	12022020	153100	92.23	12.418718	-57.014300	92.22	0.620	-0.090	0.360	92.13	-1.50	0.70	 	 	 	 	 	 	 	 	 	 	 	 	 	 	 	 	 	 	1581521460	6.26	11.59
12/02/2020 15:31:01	120220	12022020	153101	91.83	12.418717	-57.014277	91.88	-0.480	1.670	0.840	91.77	0.20	1.20	 	 	 	 	 	 	 	 	 	 	 	 	 	 	 	 	 	 	1581521461	4.82	8.93
12/02/2020 15:31:02	120220	12022020	153102	91.56	12.418713	-57.014257	91.60	-1.330	2.420	1.180	91.51	1.10	1.60	1016.90	26.70	26.70	20.10	20.20	650.0	67.0	67.0	438.0	28.5	353.00	13.40	83.00	10.30	53056	12966.0	27.5	27.4	1581521462	4.39	8.13
12/02/2020 15:31:03	120220	12022020	153103	91.27	12.418712	-57.014230	91.31	-1.260	1.120	1.340	91.20	-0.10	1.70	 	 	 	 	 	 	 	 	 	 	 	 	 	 	 	 	 	 	1581521463	5.72	10.59
12/02/2020 15:31:04	120220	12022020	153104	90.91	12.418708	-57.014193	90.92	-0.340	-1.330	1.520	90.82	-2.50	1.90	 	 	 	 	 	 	 	 	 	 	 	 	 	 	 	 	 	 	1581521464	7.71	14.28
12/02/2020 15:31:05	120220	12022020	153105	90.40	12.418705	-57.014153	90.40	0.680	-2.940	2.020	90.27	-4.20	2.40	 	 	 	 	 	 	 	 	 	 	 	 	 	 	 	 	 	 	1581521465	8.36	15.48
12/02/2020 15:31:06	120220	12022020	153106	89.76	12.418700	-57.014120	89.78	1.120	-2.590	2.610	89.63	-4.00	3.00	 	 	 	 	 	 	 	 	 	 	 	 	 	 	 	 	 	 	1581521466	7.16	13.26
12/02/2020 15:31:07	120220	12022020	153107	89.18	12.418697	-57.014095	89.23	0.900	-0.850	2.930	89.08	-2.30	3.30	 	 	 	 	 	 	 	 	 	 	 	 	 	 	 	 	 	 	1581521467	5.49	10.17
12/02/2020 15:31:08	120220	12022020	153108	88.83	12.418697	-57.014072	88.91	0.430	0.990	2.720	88.80	-0.40	3.10	 	 	 	 	 	 	 	 	 	 	 	 	 	 	 	 	 	 	1581521468	4.69	8.69
12/02/2020 15:31:09	120220	12022020	153109	88.79	12.418698	-57.014048	88.91	0.030	1.790	1.950	88.81	0.40	2.40	 	 	 	 	 	 	 	 	 	 	 	 	 	 	 	 	 	 	1581521469	5.11	9.46
12/02/2020 15:31:10	120220	12022020	153110	88.90	12.418705	-57.014018	89.00	-0.270	1.220	1.060	88.92	-0.10	1.50	 	 	 	 	 	 	 	 	 	 	 	 	 	 	 	 	 	 	1581521470	6.34	11.74
12/02/2020 15:31:11	120220	12022020	153111	88.95	12.418712	-57.013985	89.04	-0.510	0.080	0.620	88.96	-1.20	1.00	 	 	 	 	 	 	 	 	 	 	 	 	 	 	 	 	 	 	1581521471	7.32	13.56
12/02/2020 15:31:12	120220	12022020	153112	89.03	12.418715	-57.013952	89.15	-0.690	-0.540	0.520	89.07	-1.90	0.90	 	 	 	 	 	 	 	 	 	 	 	 	 	 	 	 	 	 	1581521472	7.05	13.06
12/02/2020 15:31:13	120220	12022020	153113	89.21	12.418715	-57.013923	89.41	-0.610	-0.660	0.580	89.27	-2.00	1.00	 	 	 	 	 	 	 	 	 	 	 	 	 	 	 	 	 	 	1581521473	6.16	11.41
12/02/2020 15:31:14	120220	12022020	153114	89.53	12.418715	-57.013893	89.66	-0.050	-0.950	0.920	89.56	-2.30	1.30	 	 	 	 	 	 	 	 	 	 	 	 	 	 	 	 	 	 	1581521474	5.99	11.09
12/02/2020 15:31:15	120220	12022020	153115	89.64	12.418712	-57.013863	89.75	0.760	-1.390	1.430	89.65	-2.70	1.80	 	 	 	 	 	 	 	 	 	 	 	 	 	 	 	 	 	 	1581521475	6.66	12.33
12/02/2020 15:31:16	120220	12022020	153116	89.71	12.418712	-57.013830	89.84	1.230	-1.370	1.830	89.74	-2.70	2.20	 	 	 	 	 	 	 	 	 	 	 	 	 	 	 	 	 	 	1581521476	7.03	13.02
12/02/2020 15:31:17	120220	12022020	153117	89.87	12.418712	-57.013798	90.02	0.920	-0.430	1.990	89.92	-1.90	2.40	 	 	 	 	 	 	 	 	 	 	 	 	 	 	 	 	 	 	1581521477	6.55	12.13
12/02/2020 15:31:18	120220	12022020	153118	90.19	12.418712	-57.013772	90.36	0.030	0.970	1.860	90.28	-0.50	2.30	 	 	 	 	 	 	 	 	 	 	 	 	 	 	 	 	 	 	1581521478	5.56	10.30
12/02/2020 15:31:19	120220	12022020	153119	90.68	12.418715	-57.013748	90.85	-0.900	1.900	1.360	90.78	0.50	1.80	 	 	 	 	 	 	 	 	 	 	 	 	 	 	 	 	 	 	1581521479	5.14	9.52
12/02/2020 15:31:20	120220	12022020	153120	91.12	12.418718	-57.013722	91.23	-1.320	1.660	0.640	91.18	0.40	1.10	 	 	 	 	 	 	 	 	 	 	 	 	 	 	 	 	 	 	1581521480	5.58	10.33
12/02/2020 15:31:21	120220	12022020	153121	91.29	12.418722	-57.013690	91.34	-0.880	0.040	0.060	91.28	-1.20	0.50	 	 	 	 	 	 	 	 	 	 	 	 	 	 	 	 	 	 	1581521481	6.73	12.46
12/02/2020 15:31:22	120220	12022020	153122	91.19	12.418723	-57.013652	91.22	0.250	-2.080	-0.400	91.16	-3.30	0.00	 	 	 	 	 	 	 	 	 	 	 	 	 	 	 	 	 	 	1581521482	8.09	14.98
12/02/2020 15:31:23	120220	12022020	153123	91.08	12.418727	-57.013613	91.12	1.240	-3.020	-0.720	91.06	-4.30	-0.30	 	 	 	 	 	 	 	 	 	 	 	 	 	 	 	 	 	 	1581521483	8.39	15.54
12/02/2020 15:31:24	120220	12022020	153124	91.02	12.418730	-57.013580	91.05	1.280	-1.860	-0.770	91.02	-3.30	-0.40	 	 	 	 	 	 	 	 	 	 	 	 	 	 	 	 	 	 	1581521484	7.00	12.96
12/02/2020 15:31:25	120220	12022020	153125	91.02	12.418732	-57.013555	91.08	0.310	0.500	-0.600	91.03	-1.00	-0.20	 	 	 	 	 	 	 	 	 	 	 	 	 	 	 	 	 	 	1581521485	5.11	9.46
12/02/2020 15:31:26	120220	12022020	153126	91.07	12.418730	-57.013535	91.13	-0.890	2.220	-0.090	91.07	0.80	0.30	 	 	 	 	 	 	 	 	 	 	 	 	 	 	 	 	 	 	1581521486	4.36	8.07
12/02/2020 15:31:27	120220	12022020	153127	90.99	12.418725	-57.013510	91.05	-1.430	2.120	0.700	90.96	0.80	1.00	 	 	 	 	 	 	 	 	 	 	 	 	 	 	 	 	 	 	1581521487	5.51	10.20
12/02/2020 15:31:28	120220	12022020	153128	90.75	12.418720	-57.013475	90.80	-0.970	0.490	1.430	90.68	-0.70	1.80	 	 	 	 	 	 	 	 	 	 	 	 	 	 	 	 	 	 	1581521488	7.28	13.48
12/02/2020 15:31:29	120220	12022020	153129	90.32	12.418715	-57.013437	90.33	0.110	-1.430	2.030	90.21	-2.60	2.40	 	 	 	 	 	 	 	 	 	 	 	 	 	 	 	 	 	 	1581521489	8.35	15.46
12/02/2020 15:31:30	120220	12022020	153130	89.84	12.418712	-57.013397	89.89	1.050	-2.200	2.340	89.78	-3.50	2.70	 	 	 	 	 	 	 	 	 	 	 	 	 	 	 	 	 	 	1581521490	8.22	15.22
12/02/2020 15:31:31	120220	12022020	153131	89.70	12.418713	-57.013365	89.81	1.140	-1.270	2.240	89.72	-2.70	2.60	 	 	 	 	 	 	 	 	 	 	 	 	 	 	 	 	 	 	1581521491	6.80	12.59
12/02/2020 15:31:32	120220	12022020	153132	89.85	12.418717	-57.013340	89.98	0.420	0.310	2.060	89.88	-1.10	2.50	 	 	 	 	 	 	 	 	 	 	 	 	 	 	 	 	 	 	1581521492	5.34	9.89
12/02/2020 15:31:33	120220	12022020	153133	89.93	12.418718	-57.013315	90.03	-0.370	1.060	2.020	89.91	-0.30	2.40	 	 	 	 	 	 	 	 	 	 	 	 	 	 	 	 	 	 	1581521493	5.18	9.59
12/02/2020 15:31:34	120220	12022020	153134	89.71	12.418718	-57.013285	89.75	-0.600	0.530	2.000	89.63	-0.70	2.40	 	 	 	 	 	 	 	 	 	 	 	 	 	 	 	 	 	 	1581521494	6.37	11.80
12/02/2020 15:31:35	120220	12022020	153135	89.26	12.418718	-57.013250	89.29	-0.200	-0.600	2.100	89.17	-1.90	2.50	 	 	 	 	 	 	 	 	 	 	 	 	 	 	 	 	 	 	1581521495	7.64	14.15
12/02/2020 15:31:36	120220	12022020	153136	88.99	12.418718	-57.013212	89.09	0.360	-1.370	2.060	89.00	-2.70	2.50	 	 	 	 	 	 	 	 	 	 	 	 	 	 	 	 	 	 	1581521496	8.02	14.85
12/02/2020 15:31:37	120220	12022020	153137	89.19	12.418720	-57.013177	89.35	0.550	-1.060	1.610	89.27	-2.40	2.10	 	 	 	 	 	 	 	 	 	 	 	 	 	 	 	 	 	 	1581521497	7.41	13.72
12/02/2020 15:31:38	120220	12022020	153138	89.61	12.418725	-57.013147	89.74	0.170	0.090	0.940	89.67	-1.30	1.40	 	 	 	 	 	 	 	 	 	 	 	 	 	 	 	 	 	 	1581521498	6.27	11.61
12/02/2020 15:31:39	120220	12022020	153139	89.89	12.418730	-57.013120	89.98	-0.450	1.070	0.460	89.93	-0.30	0.90	 	 	 	 	 	 	 	 	 	 	 	 	 	 	 	 	 	 	1581521499	5.68	10.52
12/02/2020 15:31:40	120220	12022020	153140	90.16	12.418733	-57.013093	90.27	-0.850	1.170	0.260	90.22	-0.10	0.70	 	 	 	 	 	 	 	 	 	 	 	 	 	 	 	 	 	 	1581521500	6.00	11.11
12/02/2020 15:31:41	120220	12022020	153141	90.46	12.418733	-57.013060	90.57	-0.790	0.410	0.190	90.51	-0.90	0.60	 	 	 	 	 	 	 	 	 	 	 	 	 	 	 	 	 	 	1581521501	6.81	12.61
12/02/2020 15:31:42	120220	12022020	153142	90.63	12.418733	-57.013025	90.71	-0.250	-0.870	0.250	90.63	-2.10	0.60	 	 	 	 	 	 	 	 	 	 	 	 	 	 	 	 	 	 	1581521502	7.52	13.93
12/02/2020 15:31:43	120220	12022020	153143	90.54	12.418733	-57.012987	90.60	0.550	-1.990	0.600	90.49	-3.30	1.00	 	 	 	 	 	 	 	 	 	 	 	 	 	 	 	 	 	 	1581521503	8.02	14.85
12/02/2020 15:31:44	120220	12022020	153144	90.39	12.418733	-57.012950	90.48	1.070	-2.040	0.860	90.39	-3.40	1.30	 	 	 	 	 	 	 	 	 	 	 	 	 	 	 	 	 	 	1581521504	7.88	14.59
12/02/2020 15:31:45	120220	12022020	153145	90.47	12.418735	-57.012917	90.62	0.880	-0.750	0.900	90.52	-2.20	1.30	 	 	 	 	 	 	 	 	 	 	 	 	 	 	 	 	 	 	1581521505	6.80	12.59
12/02/2020 15:31:46	120220	12022020	153146	90.66	12.418737	-57.012890	90.78	0.100	0.970	0.950	90.68	-0.40	1.30	 	 	 	 	 	 	 	 	 	 	 	 	 	 	 	 	 	 	1581521506	5.65	10.46
12/02/2020 15:31:47	120220	12022020	153147	90.73	12.418738	-57.012865	90.84	-0.750	1.860	0.840	90.74	0.50	1.30	 	 	 	 	 	 	 	 	 	 	 	 	 	 	 	 	 	 	1581521507	5.58	10.33
12/02/2020 15:31:48	120220	12022020	153148	90.86	12.418740	-57.012833	90.98	-1.120	1.400	0.510	90.91	0.10	0.90	 	 	 	 	 	 	 	 	 	 	 	 	 	 	 	 	 	 	1581521508	6.51	12.06
12/02/2020 15:31:49	120220	12022020	153149	91.08	12.418742	-57.012797	91.26	-0.650	-0.240	0.200	91.13	-1.50	0.60	 	 	 	 	 	 	 	 	 	 	 	 	 	 	 	 	 	 	1581521509	7.73	14.32
12/02/2020 15:31:50	120220	12022020	153150	91.36	12.418742	-57.012755	91.43	0.400	-1.990	0.070	91.37	-3.20	0.50	 	 	 	 	 	 	 	 	 	 	 	 	 	 	 	 	 	 	1581521510	8.78	16.26
12/02/2020 15:31:51	120220	12022020	153151	91.18	12.418742	-57.012715	91.19	1.060	-2.140	0.030	91.12	-3.50	0.40	 	 	 	 	 	 	 	 	 	 	 	 	 	 	 	 	 	 	1581521511	8.50	15.74
12/02/2020 15:31:52	120220	12022020	153152	90.77	12.418745	-57.012685	90.75	0.710	-0.510	0.010	90.69	-2.00	0.40	 	 	 	 	 	 	 	 	 	 	 	 	 	 	 	 	 	 	1581521512	6.57	12.17
12/02/2020 15:31:53	120220	12022020	153153	90.47	12.418748	-57.012660	90.50	-0.290	1.350	0.170	90.45	-0.10	0.60	 	 	 	 	 	 	 	 	 	 	 	 	 	 	 	 	 	 	1581521513	5.05	9.35
12/02/2020 15:31:54	120220	12022020	153154	90.52	12.418748	-57.012635	90.61	-0.960	1.790	0.250	90.56	0.50	0.60	 	 	 	 	 	 	 	 	 	 	 	 	 	 	 	 	 	 	1581521514	5.29	9.80
12/02/2020 15:31:55	120220	12022020	153155	90.63	12.418750	-57.012602	90.69	-0.710	0.340	0.340	90.64	-0.90	0.70	 	 	 	 	 	 	 	 	 	 	 	 	 	 	 	 	 	 	1581521515	7.08	13.11
12/02/2020 15:31:56	120220	12022020	153156	90.54	12.418748	-57.012560	90.56	0.060	-1.660	0.780	90.48	-2.90	1.10	 	 	 	 	 	 	 	 	 	 	 	 	 	 	 	 	 	 	1581521516	8.83	16.35
12/02/2020 15:31:57	120220	12022020	153157	90.22	12.418745	-57.012518	90.26	0.640	-2.420	1.630	90.15	-3.70	2.00	 	 	 	 	 	 	 	 	 	 	 	 	 	 	 	 	 	 	1581521517	8.93	16.54
12/02/2020 15:31:58	120220	12022020	153158	89.98	12.418742	-57.012483	90.09	0.560	-1.140	2.380	89.98	-2.60	2.70	 	 	 	 	 	 	 	 	 	 	 	 	 	 	 	 	 	 	1581521518	7.31	13.54
12/02/2020 15:31:59	120220	12022020	153159	90.08	12.418740	-57.012458	90.24	-0.070	0.980	2.590	90.14	-0.40	3.00	 	 	 	 	 	 	 	 	 	 	 	 	 	 	 	 	 	 	1581521519	5.35	9.91
12/02/2020 15:32:00	120220	12022020	153200	90.40	12.418742	-57.012435	90.57	-0.730	2.050	2.210	90.47	0.70	2.60	 	 	 	 	 	 	 	 	 	 	 	 	 	 	 	 	 	 	1581521520	5.02	9.30
12/02/2020 15:32:01	120220	12022020	153201	90.68	12.418745	-57.012405	90.87	-0.740	1.110	1.490	90.73	-0.10	1.90	 	 	 	 	 	 	 	 	 	 	 	 	 	 	 	 	 	 	1581521521	6.50	12.04
12/02/2020 15:32:02	120220	12022020	153202	90.96	12.418748	-57.012365	91.06	0.070	-0.980	0.770	90.99	-2.20	1.20	1016.90	26.70	26.70	20.40	20.50	703.0	68.0	68.0	438.0	28.6	356.00	13.10	85.00	9.70	55900	12800.0	27.4	27.4	1581521522	8.47	15.69
12/02/2020 15:32:03	120220	12022020	153203	91.02	12.418753	-57.012322	91.10	1.020	-2.320	0.270	91.02	-3.60	0.70	 	 	 	 	 	 	 	 	 	 	 	 	 	 	 	 	 	 	1581521523	9.15	16.95
12/02/2020 15:32:04	120220	12022020	153204	91.03	12.418758	-57.012285	91.12	1.160	-1.760	0.080	91.04	-3.20	0.50	 	 	 	 	 	 	 	 	 	 	 	 	 	 	 	 	 	 	1581521524	7.95	14.72
12/02/2020 15:32:05	120220	12022020	153205	91.18	12.418762	-57.012257	91.30	0.320	0.060	0.120	91.24	-1.40	0.50	 	 	 	 	 	 	 	 	 	 	 	 	 	 	 	 	 	 	1581521525	6.00	11.11
12/02/2020 15:32:06	120220	12022020	153206	91.60	12.418763	-57.012232	91.75	-0.780	1.500	0.130	91.71	0.10	0.50	 	 	 	 	 	 	 	 	 	 	 	 	 	 	 	 	 	 	1581521526	5.17	9.57
12/02/2020 15:32:07	120220	12022020	153207	92.09	12.418763	-57.012203	92.23	-1.330	1.600	0.200	92.17	0.30	0.60	 	 	 	 	 	 	 	 	 	 	 	 	 	 	 	 	 	 	1581521527	5.95	11.02
12/02/2020 15:32:08	120220	12022020	153208	92.35	12.418760	-57.012170	92.43	-0.980	0.360	0.530	92.35	-0.90	0.90	 	 	 	 	 	 	 	 	 	 	 	 	 	 	 	 	 	 	1581521528	7.33	13.58
12/02/2020 15:32:09	120220	12022020	153209	92.26	12.418755	-57.012128	92.33	0.030	-1.310	0.970	92.23	-2.50	1.40	 	 	 	 	 	 	 	 	 	 	 	 	 	 	 	 	 	 	1581521529	8.53	15.80
12/02/2020 15:32:10	120220	12022020	153210	92.18	12.418753	-57.012088	92.28	0.940	-2.070	1.120	92.19	-3.40	1.50	 	 	 	 	 	 	 	 	 	 	 	 	 	 	 	 	 	 	1581521530	8.62	15.96
12/02/2020 15:32:11	120220	12022020	153211	92.31	12.418755	-57.012053	92.42	1.010	-1.310	0.970	92.35	-2.70	1.40	 	 	 	 	 	 	 	 	 	 	 	 	 	 	 	 	 	 	1581521531	7.50	13.89
12/02/2020 15:32:12	120220	12022020	153212	92.47	12.418758	-57.012025	92.55	0.230	0.340	0.710	92.48	-1.10	1.10	 	 	 	 	 	 	 	 	 	 	 	 	 	 	 	 	 	 	1581521532	6.07	11.24
12/02/2020 15:32:13	120220	12022020	153213	92.52	12.418760	-57.011998	92.58	-0.700	1.570	0.420	92.51	0.20	0.80	 	 	 	 	 	 	 	 	 	 	 	 	 	 	 	 	 	 	1581521533	5.45	10.09
12/02/2020 15:32:14	120220	12022020	153214	92.49	12.418762	-57.011970	92.54	-0.900	1.200	0.070	92.48	-0.00	0.50	 	 	 	 	 	 	 	 	 	 	 	 	 	 	 	 	 	 	1581521534	6.22	11.52
12/02/2020 15:32:15	120220	12022020	153215	92.36	12.418762	-57.011932	92.40	-0.060	-0.690	-0.040	92.32	-1.90	0.40	 	 	 	 	 	 	 	 	 	 	 	 	 	 	 	 	 	 	1581521535	8.11	15.02
12/02/2020 15:32:16	120220	12022020	153216	92.12	12.418763	-57.011887	92.16	0.890	-2.070	0.030	92.08	-3.30	0.40	 	 	 	 	 	 	 	 	 	 	 	 	 	 	 	 	 	 	1581521536	9.36	17.33
12/02/2020 15:32:17	120220	12022020	153217	91.98	12.418763	-57.011848	92.05	0.930	-1.400	0.130	91.97	-2.80	0.50	 	 	 	 	 	 	 	 	 	 	 	 	 	 	 	 	 	 	1581521537	8.03	14.87
12/02/2020 15:32:18	120220	12022020	153218	91.97	12.418765	-57.011822	92.06	0.090	0.570	0.560	91.98	-0.90	0.90	 	 	 	 	 	 	 	 	 	 	 	 	 	 	 	 	 	 	1581521538	5.77	10.69
12/02/2020 15:32:19	120220	12022020	153219	92.09	12.418762	-57.011798	92.21	-0.780	1.730	1.180	92.12	0.40	1.50	 	 	 	 	 	 	 	 	 	 	 	 	 	 	 	 	 	 	1581521539	5.01	9.28
12/02/2020 15:32:20	120220	12022020	153220	92.25	12.418758	-57.011768	92.35	-0.920	1.010	1.580	92.27	-0.20	2.00	 	 	 	 	 	 	 	 	 	 	 	 	 	 	 	 	 	 	1581521540	6.45	11.95
12/02/2020 15:32:21	120220	12022020	153221	92.18	12.418753	-57.011728	92.21	-0.320	-0.790	1.910	92.12	-2.00	2.30	 	 	 	 	 	 	 	 	 	 	 	 	 	 	 	 	 	 	1581521541	8.31	15.39
12/02/2020 15:32:22	120220	12022020	153222	91.78	12.418752	-57.011687	91.82	0.350	-1.910	2.440	91.69	-3.20	2.80	 	 	 	 	 	 	 	 	 	 	 	 	 	 	 	 	 	 	1581521542	8.91	16.50
12/02/2020 15:32:23	120220	12022020	153223	91.48	12.418748	-57.011650	91.56	0.520	-1.400	2.740	91.46	-2.80	3.10	 	 	 	 	 	 	 	 	 	 	 	 	 	 	 	 	 	 	1581521543	7.71	14.28
12/02/2020 15:32:24	120220	12022020	153224	91.56	12.418748	-57.011622	91.68	0.280	0.000	2.320	91.61	-1.40	2.80	 	 	 	 	 	 	 	 	 	 	 	 	 	 	 	 	 	 	1581521544	6.10	11.30
12/02/2020 15:32:25	120220	12022020	153225	91.77	12.418753	-57.011593	91.91	0.080	0.790	1.350	91.82	-0.60	1.80	 	 	 	 	 	 	 	 	 	 	 	 	 	 	 	 	 	 	1581521545	5.89	10.91
12/02/2020 15:32:26	120220	12022020	153226	91.90	12.418758	-57.011562	91.92	0.090	0.470	0.560	91.88	-0.80	1.00	 	 	 	 	 	 	 	 	 	 	 	 	 	 	 	 	 	 	1581521546	7.09	13.13
12/02/2020 15:32:27	120220	12022020	153227	91.84	12.418765	-57.011523	91.89	0.040	-0.160	0.090	91.85	-1.40	0.50	 	 	 	 	 	 	 	 	 	 	 	 	 	 	 	 	 	 	1581521547	8.00	14.82
12/02/2020 15:32:28	120220	12022020	153228	91.94	12.418768	-57.011487	92.01	-0.180	-0.520	-0.130	91.98	-1.80	0.30	 	 	 	 	 	 	 	 	 	 	 	 	 	 	 	 	 	 	1581521548	7.79	14.43
12/02/2020 15:32:29	120220	12022020	153229	92.18	12.418768	-57.011452	92.28	-0.260	-0.720	-0.030	92.23	-2.00	0.40	 	 	 	 	 	 	 	 	 	 	 	 	 	 	 	 	 	 	1581521549	7.44	13.78
12/02/2020 15:32:30	120220	12022020	153230	92.44	12.418765	-57.011417	92.53	-0.020	-0.730	0.250	92.47	-2.00	0.60	 	 	 	 	 	 	 	 	 	 	 	 	 	 	 	 	 	 	1581521550	7.47	13.83
12/02/2020 15:32:31	120220	12022020	153231	92.45	12.418762	-57.011382	92.49	0.290	-0.420	0.690	92.40	-1.80	1.10	 	 	 	 	 	 	 	 	 	 	 	 	 	 	 	 	 	 	1581521551	7.34	13.59
12/02/2020 15:32:32	120220	12022020	153232	92.19	12.418760	-57.011348	92.24	0.390	-0.050	1.220	92.14	-1.40	1.60	 	 	 	 	 	 	 	 	 	 	 	 	 	 	 	 	 	 	1581521552	7.16	13.26
12/02/2020 15:32:33	120220	12022020	153233	92.05	12.418758	-57.011313	92.15	0.150	0.290	1.520	92.07	-1.00	1.90	 	 	 	 	 	 	 	 	 	 	 	 	 	 	 	 	 	 	1581521553	7.17	13.28
12/02/2020 15:32:34	120220	12022020	153234	92.29	12.418760	-57.011280	92.42	-0.370	0.650	1.350	92.37	-0.70	1.80	 	 	 	 	 	 	 	 	 	 	 	 	 	 	 	 	 	 	1581521554	7.04	13.04
12/02/2020 15:32:35	120220	12022020	153235	92.74	12.418760	-57.011248	92.86	-0.810	0.550	0.930	92.82	-0.70	1.40	 	 	 	 	 	 	 	 	 	 	 	 	 	 	 	 	 	 	1581521555	6.88	12.74
12/02/2020 15:32:36	120220	12022020	153236	93.06	12.418762	-57.011213	93.14	-0.590	-0.490	0.630	93.10	-1.70	1.10	 	 	 	 	 	 	 	 	 	 	 	 	 	 	 	 	 	 	1581521556	7.49	13.87
12/02/2020 15:32:37	120220	12022020	153237	93.12	12.418760	-57.011172	93.14	0.350	-1.810	0.590	93.08	-3.00	1.00	 	 	 	 	 	 	 	 	 	 	 	 	 	 	 	 	 	 	1581521557	8.65	16.02
12/02/2020 15:32:38	120220	12022020	153238	92.87	12.418760	-57.011130	92.85	1.170	-1.960	0.770	92.79	-3.30	1.20	 	 	 	 	 	 	 	 	 	 	 	 	 	 	 	 	 	 	1581521558	8.74	16.19
12/02/2020 15:32:39	120220	12022020	153239	92.51	12.418760	-57.011095	92.49	1.040	-0.590	0.850	92.45	-2.00	1.30	 	 	 	 	 	 	 	 	 	 	 	 	 	 	 	 	 	 	1581521559	7.39	13.69
12/02/2020 15:32:40	120220	12022020	153240	92.32	12.418762	-57.011067	92.35	0.030	1.240	0.570	92.32	-0.20	1.00	 	 	 	 	 	 	 	 	 	 	 	 	 	 	 	 	 	 	1581521560	6.05	11.20
12/02/2020 15:32:41	120220	12022020	153241	92.47	12.418763	-57.011038	92.52	-0.990	2.000	0.010	92.52	0.70	0.50	 	 	 	 	 	 	 	 	 	 	 	 	 	 	 	 	 	 	1581521561	5.90	10.93
12/02/2020 15:32:42	120220	12022020	153242	92.67	12.418767	-57.011005	92.71	-1.070	0.750	-0.370	92.69	-0.50	0.10	 	 	 	 	 	 	 	 	 	 	 	 	 	 	 	 	 	 	1581521562	7.30	13.52
12/02/2020 15:32:43	120220	12022020	153243	92.60	12.418765	-57.010962	92.60	-0.280	-1.290	-0.290	92.55	-2.50	0.10	 	 	 	 	 	 	 	 	 	 	 	 	 	 	 	 	 	 	1581521563	9.25	17.13
12/02/2020 15:32:44	120220	12022020	153244	92.30	12.418763	-57.010917	92.31	0.520	-2.060	0.010	92.24	-3.40	0.40	 	 	 	 	 	 	 	 	 	 	 	 	 	 	 	 	 	 	1581521564	9.33	17.28
12/02/2020 15:32:45	120220	12022020	153245	92.09	12.418763	-57.010880	92.15	0.680	-1.080	0.400	92.08	-2.50	0.80	 	 	 	 	 	 	 	 	 	 	 	 	 	 	 	 	 	 	1581521565	7.60	14.08
12/02/2020 15:32:46	120220	12022020	153246	92.21	12.418762	-57.010852	92.33	0.310	0.210	0.820	92.27	-1.20	1.20	 	 	 	 	 	 	 	 	 	 	 	 	 	 	 	 	 	 	1581521566	6.25	11.58
12/02/2020 15:32:47	120220	12022020	153247	92.58	12.418760	-57.010820	92.71	-0.140	0.580	1.160	92.64	-0.70	1.50	 	 	 	 	 	 	 	 	 	 	 	 	 	 	 	 	 	 	1581521567	6.69	12.39
12/02/2020 15:32:48	120220	12022020	153248	92.67	12.418757	-57.010783	92.69	-0.410	0.280	1.570	92.61	-1.00	1.90	 	 	 	 	 	 	 	 	 	 	 	 	 	 	 	 	 	 	1581521568	7.75	14.35
12/02/2020 15:32:49	120220	12022020	153249	92.14	12.418752	-57.010745	92.10	-0.480	-0.010	2.200	91.98	-1.30	2.60	 	 	 	 	 	 	 	 	 	 	 	 	 	 	 	 	 	 	1581521569	8.05	14.91
12/02/2020 15:32:50	120220	12022020	153250	91.40	12.418748	-57.010710	91.39	-0.260	-0.070	2.440	91.29	-1.40	2.90	 	 	 	 	 	 	 	 	 	 	 	 	 	 	 	 	 	 	1581521570	7.72	14.30
12/02/2020 15:32:51	120220	12022020	153251	91.07	12.418750	-57.010673	91.14	0.230	-0.330	1.930	91.06	-1.60	2.40	 	 	 	 	 	 	 	 	 	 	 	 	 	 	 	 	 	 	1581521571	7.62	14.11
12/02/2020 15:32:52	120220	12022020	153252	91.15	12.418758	-57.010635	91.25	0.710	-1.080	0.970	91.20	-2.30	1.40	 	 	 	 	 	 	 	 	 	 	 	 	 	 	 	 	 	 	1581521572	8.35	15.46
12/02/2020 15:32:53	120220	12022020	153253	91.32	12.418765	-57.010593	91.44	0.670	-1.580	0.390	91.35	-2.90	0.80	 	 	 	 	 	 	 	 	 	 	 	 	 	 	 	 	 	 	1581521573	8.96	16.59
12/02/2020 15:32:54	120220	12022020	153254	91.38	12.418765	-57.010555	91.46	0.100	-0.810	0.790	91.38	-2.20	1.20	 	 	 	 	 	 	 	 	 	 	 	 	 	 	 	 	 	 	1581521574	8.16	15.11
12/02/2020 15:32:55	120220	12022020	153255	91.32	12.418758	-57.010523	91.40	-0.500	1.000	1.450	91.31	-0.40	1.80	 	 	 	 	 	 	 	 	 	 	 	 	 	 	 	 	 	 	1581521575	6.65	12.32
12/02/2020 15:32:56	120220	12022020	153256	91.26	12.418755	-57.010495	91.34	-0.620	1.870	1.800	91.26	0.50	2.20	 	 	 	 	 	 	 	 	 	 	 	 	 	 	 	 	 	 	1581521576	6.02	11.15
12/02/2020 15:32:57	120220	12022020	153257	91.24	12.418755	-57.010460	91.33	-0.290	0.910	1.600	91.25	-0.30	2.00	 	 	 	 	 	 	 	 	 	 	 	 	 	 	 	 	 	 	1581521577	7.41	13.72
12/02/2020 15:32:58	120220	12022020	153258	91.30	12.418760	-57.010418	91.40	0.130	-0.870	1.260	91.33	-2.10	1.70	 	 	 	 	 	 	 	 	 	 	 	 	 	 	 	 	 	 	1581521578	9.02	16.71
12/02/2020 15:32:59	120220	12022020	153259	91.46	12.418763	-57.010375	91.56	0.360	-1.950	1.070	91.49	-3.20	1.50	 	 	 	 	 	 	 	 	 	 	 	 	 	 	 	 	 	 	1581521579	9.26	17.15
12/02/2020 15:33:00	120220	12022020	153300	91.59	12.418763	-57.010335	91.69	0.350	-1.650	1.070	91.60	-3.00	1.50	 	 	 	 	 	 	 	 	 	 	 	 	 	 	 	 	 	 	1581521580	8.24	15.26
12/02/2020 15:33:01	120220	12022020	153301	91.63	12.418763	-57.010302	91.73	0.180	-0.490	1.140	91.64	-1.90	1.50	 	 	 	 	 	 	 	 	 	 	 	 	 	 	 	 	 	 	1581521581	7.09	13.13
12/02/2020 15:33:02	120220	12022020	153302	91.73	12.418763	-57.010270	91.84	-0.050	0.440	1.110	91.77	-0.90	1.50	1016.90	26.70	26.70	20.80	20.80	643.0	70.0	70.0	439.0	28.6	352.00	14.10	81.00	10.30	52805	11230.0	27.4	27.4	1581521582	6.76	12.52
12/02/2020 15:33:03	120220	12022020	153303	91.99	12.418765	-57.010235	92.10	-0.180	0.510	0.790	92.05	-0.80	1.20	 	 	 	 	 	 	 	 	 	 	 	 	 	 	 	 	 	 	1581521583	7.39	13.69
12/02/2020 15:33:04	120220	12022020	153304	92.26	12.418767	-57.010195	92.33	-0.150	0.060	0.380	92.29	-1.20	0.80	 	 	 	 	 	 	 	 	 	 	 	 	 	 	 	 	 	 	1581521584	8.27	15.32
12/02/2020 15:33:05	120220	12022020	153305	92.37	12.418768	-57.010155	92.43	-0.030	-0.290	0.160	92.37	-1.60	0.60	 	 	 	 	 	 	 	 	 	 	 	 	 	 	 	 	 	 	1581521585	8.51	15.76
12/02/2020 15:33:06	120220	12022020	153306	92.42	12.418770	-57.010117	92.49	0.020	-0.210	0.100	92.43	-1.60	0.50	 	 	 	 	 	 	 	 	 	 	 	 	 	 	 	 	 	 	1581521586	8.17	15.13
12/02/2020 15:33:07	120220	12022020	153307	92.54	12.418770	-57.010082	92.61	-0.160	0.150	0.030	92.57	-1.20	0.40	 	 	 	 	 	 	 	 	 	 	 	 	 	 	 	 	 	 	1581521587	7.61	14.09
12/02/2020 15:33:08	120220	12022020	153308	92.66	12.418772	-57.010047	92.70	-0.450	0.260	-0.040	92.65	-1.10	0.40	 	 	 	 	 	 	 	 	 	 	 	 	 	 	 	 	 	 	1581521588	7.34	13.59
12/02/2020 15:33:09	120220	12022020	153309	92.53	12.418772	-57.010010	92.55	-0.410	-0.350	0.210	92.47	-1.60	0.60	 	 	 	 	 	 	 	 	 	 	 	 	 	 	 	 	 	 	1581521589	7.79	14.43
12/02/2020 15:33:10	120220	12022020	153310	92.29	12.418770	-57.009968	92.33	0.200	-1.470	0.530	92.26	-2.70	0.90	 	 	 	 	 	 	 	 	 	 	 	 	 	 	 	 	 	 	1581521590	8.79	16.28
12/02/2020 15:33:11	120220	12022020	153311	92.26	12.418768	-57.009923	92.35	0.820	-1.950	0.750	92.27	-3.30	1.10	 	 	 	 	 	 	 	 	 	 	 	 	 	 	 	 	 	 	1581521591	9.38	17.37
12/02/2020 15:33:12	120220	12022020	153312	92.31	12.418767	-57.009883	92.40	0.630	-0.700	0.920	92.33	-2.20	1.30	 	 	 	 	 	 	 	 	 	 	 	 	 	 	 	 	 	 	1581521592	8.33	15.43
12/02/2020 15:33:13	120220	12022020	153313	92.39	12.418765	-57.009853	92.48	-0.390	1.540	0.880	92.41	0.10	1.30	 	 	 	 	 	 	 	 	 	 	 	 	 	 	 	 	 	 	1581521593	6.34	11.74
12/02/2020 15:33:14	120220	12022020	153314	92.46	12.418765	-57.009828	92.54	-1.350	2.670	0.660	92.47	1.30	1.10	 	 	 	 	 	 	 	 	 	 	 	 	 	 	 	 	 	 	1581521594	5.55	10.28
12/02/2020 15:33:15	120220	12022020	153315	92.52	12.418765	-57.009793	92.58	-1.240	1.150	0.440	92.52	-0.00	0.80	 	 	 	 	 	 	 	 	 	 	 	 	 	 	 	 	 	 	1581521595	7.28	13.48
12/02/2020 15:33:16	120220	12022020	153316	92.43	12.418765	-57.009747	92.45	-0.140	-1.710	0.410	92.38	-2.90	0.80	 	 	 	 	 	 	 	 	 	 	 	 	 	 	 	 	 	 	1581521596	9.91	18.35
12/02/2020 15:33:17	120220	12022020	153317	92.13	12.418765	-57.009697	91.99	1.060	-3.190	0.590	92.02	-4.50	1.00	 	 	 	 	 	 	 	 	 	 	 	 	 	 	 	 	 	 	1581521597	10.51	19.46
12/02/2020 15:33:18	120220	12022020	153318	91.43	12.418765	-57.009657	91.41	1.480	-2.060	0.940	91.33	-3.50	1.30	 	 	 	 	 	 	 	 	 	 	 	 	 	 	 	 	 	 	1581521598	8.49	15.72
12/02/2020 15:33:19	120220	12022020	153319	91.09	12.418767	-57.009627	91.18	0.930	0.100	1.170	91.10	-1.30	1.60	 	 	 	 	 	 	 	 	 	 	 	 	 	 	 	 	 	 	1581521599	6.38	11.82
12/02/2020 15:33:20	120220	12022020	153320	91.41	12.418770	-57.009597	91.61	-0.190	1.460	1.050	91.54	0.10	1.50	 	 	 	 	 	 	 	 	 	 	 	 	 	 	 	 	 	 	1581521600	6.26	11.59
12/02/2020 15:33:21	120220	12022020	153321	92.16	12.418772	-57.009563	92.36	-1.280	1.660	0.940	92.31	0.30	1.30	 	 	 	 	 	 	 	 	 	 	 	 	 	 	 	 	 	 	1581521601	7.16	13.26
12/02/2020 15:33:22	120220	12022020	153322	92.77	12.418767	-57.009527	92.88	-1.710	1.130	1.230	92.84	-0.10	1.60	 	 	 	 	 	 	 	 	 	 	 	 	 	 	 	 	 	 	1581521602	7.83	14.50
12/02/2020 15:33:23	120220	12022020	153323	92.83	12.418760	-57.009488	92.84	-1.070	-0.070	1.820	92.77	-1.30	2.20	 	 	 	 	 	 	 	 	 	 	 	 	 	 	 	 	 	 	1581521603	8.32	15.41
12/02/2020 15:33:24	120220	12022020	153324	92.42	12.418752	-57.009445	92.41	0.280	-1.540	2.400	92.32	-2.80	2.80	 	 	 	 	 	 	 	 	 	 	 	 	 	 	 	 	 	 	1581521604	9.05	16.76
12/02/2020 15:33:25	120220	12022020	153325	92.14	12.418750	-57.009403	92.23	1.300	-2.140	2.390	92.15	-3.40	2.80	 	 	 	 	 	 	 	 	 	 	 	 	 	 	 	 	 	 	1581521605	9.10	16.85
12/02/2020 15:33:26	120220	12022020	153326	92.42	12.418755	-57.009365	92.57	1.340	-1.510	1.340	92.53	-2.90	1.80	 	 	 	 	 	 	 	 	 	 	 	 	 	 	 	 	 	 	1581521606	8.21	15.20
12/02/2020 15:33:27	120220	12022020	153327	92.93	12.418765	-57.009330	93.04	0.720	-0.290	0.070	93.02	-1.70	0.50	 	 	 	 	 	 	 	 	 	 	 	 	 	 	 	 	 	 	1581521607	7.46	13.82
12/02/2020 15:33:28	120220	12022020	153328	93.27	12.418772	-57.009297	93.34	0.050	0.710	-0.620	93.32	-0.70	-0.20	 	 	 	 	 	 	 	 	 	 	 	 	 	 	 	 	 	 	1581521608	7.22	13.37
12/02/2020 15:33:29	120220	12022020	153329	93.46	12.418773	-57.009262	93.56	-0.480	1.150	-0.830	93.50	-0.20	-0.40	 	 	 	 	 	 	 	 	 	 	 	 	 	 	 	 	 	 	1581521609	7.49	13.87
12/02/2020 15:33:30	120220	12022020	153330	93.65	12.418772	-57.009225	93.72	-0.840	0.980	-0.700	93.68	-0.30	-0.30	 	 	 	 	 	 	 	 	 	 	 	 	 	 	 	 	 	 	1581521610	7.82	14.48
12/02/2020 15:33:31	120220	12022020	153331	93.79	12.418770	-57.009185	93.87	-0.890	0.240	-0.480	93.81	-1.00	-0.10	 	 	 	 	 	 	 	 	 	 	 	 	 	 	 	 	 	 	1581521611	8.19	15.17
12/02/2020 15:33:32	120220	12022020	153332	93.81	12.418767	-57.009145	93.85	-0.540	-0.760	-0.170	93.77	-2.00	0.20	 	 	 	 	 	 	 	 	 	 	 	 	 	 	 	 	 	 	1581521612	8.57	15.87
12/02/2020 15:33:33	120220	12022020	153333	93.44	12.418762	-57.009103	93.43	0.200	-1.670	0.500	93.33	-2.90	0.80	 	 	 	 	 	 	 	 	 	 	 	 	 	 	 	 	 	 	1581521613	8.80	16.30
12/02/2020 15:33:34	120220	12022020	153334	92.94	12.418758	-57.009062	92.98	1.020	-2.070	1.060	92.89	-3.40	1.40	 	 	 	 	 	 	 	 	 	 	 	 	 	 	 	 	 	 	1581521614	8.96	16.59
12/02/2020 15:33:35	120220	12022020	153335	92.85	12.418757	-57.009020	92.97	1.340	-1.380	1.110	92.88	-2.80	1.50	 	 	 	 	 	 	 	 	 	 	 	 	 	 	 	 	 	 	1581521615	8.62	15.96
12/02/2020 15:33:36	120220	12022020	153336	93.09	12.418757	-57.008985	93.22	0.750	0.330	0.910	93.15	-1.10	1.30	 	 	 	 	 	 	 	 	 	 	 	 	 	 	 	 	 	 	1581521616	7.61	14.09
12/02/2020 15:33:37	120220	12022020	153337	93.31	12.418757	-57.008953	93.38	-0.500	2.100	0.810	93.32	0.70	1.20	 	 	 	 	 	 	 	 	 	 	 	 	 	 	 	 	 	 	1581521617	6.52	12.08
12/02/2020 15:33:38	120220	12022020	153338	93.27	12.418753	-57.008923	93.30	-1.610	2.720	0.830	93.24	1.40	1.20	 	 	 	 	 	 	 	 	 	 	 	 	 	 	 	 	 	 	1581521618	6.39	11.83
12/02/2020 15:33:39	120220	12022020	153339	93.06	12.418752	-57.008888	93.07	-1.710	1.460	0.870	93.02	0.20	1.30	 	 	 	 	 	 	 	 	 	 	 	 	 	 	 	 	 	 	1581521619	7.42	13.74
12/02/2020 15:33:40	120220	12022020	153340	92.86	12.418748	-57.008845	92.87	-0.430	-1.430	0.710	92.82	-2.60	1.10	 	 	 	 	 	 	 	 	 	 	 	 	 	 	 	 	 	 	1581521620	9.29	17.21
12/02/2020 15:33:41	120220	12022020	153341	92.68	12.418750	-57.008795	92.62	1.350	-3.920	0.530	92.62	-5.10	0.90	 	 	 	 	 	 	 	 	 	 	 	 	 	 	 	 	 	 	1581521621	10.72	19.85
12/02/2020 15:33:42	120220	12022020	153342	92.25	12.418750	-57.008748	92.23	2.100	-3.590	0.810	92.17	-5.00	1.20	 	 	 	 	 	 	 	 	 	 	 	 	 	 	 	 	 	 	1581521622	9.89	18.32
12/02/2020 15:33:43	120220	12022020	153343	91.93	12.418748	-57.008715	91.89	1.260	-0.680	1.490	91.86	-2.20	1.80	 	 	 	 	 	 	 	 	 	 	 	 	 	 	 	 	 	 	1581521623	6.88	12.74
12/02/2020 15:33:44	120220	12022020	153344	91.59	12.418745	-57.008692	91.67	-0.350	2.320	1.930	91.57	0.80	2.30	 	 	 	 	 	 	 	 	 	 	 	 	 	 	 	 	 	 	1581521624	5.04	9.33
12/02/2020 15:33:45	120220	12022020	153345	91.54	12.418743	-57.008665	91.66	-1.400	3.170	1.790	91.57	1.80	2.20	 	 	 	 	 	 	 	 	 	 	 	 	 	 	 	 	 	 	1581521625	5.70	10.56
12/02/2020 15:33:46	120220	12022020	153346	91.79	12.418745	-57.008627	91.93	-1.300	1.630	1.310	91.86	0.40	1.70	 	 	 	 	 	 	 	 	 	 	 	 	 	 	 	 	 	 	1581521626	8.02	14.85
12/02/2020 15:33:47	120220	12022020	153347	92.15	12.418745	-57.008580	92.28	-0.510	-0.710	0.890	92.21	-1.90	1.30	 	 	 	 	 	 	 	 	 	 	 	 	 	 	 	 	 	 	1581521627	9.81	18.17
12/02/2020 15:33:48	120220	12022020	153348	92.28	12.418743	-57.008533	92.32	0.220	-2.070	0.870	92.25	-3.40	1.20	 	 	 	 	 	 	 	 	 	 	 	 	 	 	 	 	 	 	1581521628	9.77	18.09
12/02/2020 15:33:49	120220	12022020	153349	92.01	12.418740	-57.008495	92.02	0.480	-1.650	1.090	91.93	-3.10	1.50	 	 	 	 	 	 	 	 	 	 	 	 	 	 	 	 	 	 	1581521629	8.31	15.39
12/02/2020 15:33:50	120220	12022020	153350	91.69	12.418740	-57.008463	91.73	0.390	-0.210	1.120	91.67	-1.70	1.50	 	 	 	 	 	 	 	 	 	 	 	 	 	 	 	 	 	 	1581521630	6.59	12.20
12/02/2020 15:33:51	120220	12022020	153351	91.73	12.418742	-57.008433	91.83	0.300	0.500	0.670	91.78	-0.90	1.10	 	 	 	 	 	 	 	 	 	 	 	 	 	 	 	 	 	 	1581521631	6.34	11.74
12/02/2020 15:33:52	120220	12022020	153352	91.98	12.418748	-57.008397	92.06	0.410	-0.120	0.010	92.01	-1.40	0.40	 	 	 	 	 	 	 	 	 	 	 	 	 	 	 	 	 	 	1581521632	7.81	14.46
12/02/2020 15:33:53	120220	12022020	153353	91.92	12.418752	-57.008355	91.92	0.540	-0.920	-0.150	91.85	-2.20	0.20	 	 	 	 	 	 	 	 	 	 	 	 	 	 	 	 	 	 	1581521633	9.00	16.67
12/02/2020 15:33:54	120220	12022020	153354	91.46	12.418752	-57.008313	91.45	0.360	-0.770	0.400	91.34	-2.10	0.70	 	 	 	 	 	 	 	 	 	 	 	 	 	 	 	 	 	 	1581521634	8.62	15.96
12/02/2020 15:33:55	120220	12022020	153355	91.00	12.418748	-57.008278	91.06	-0.110	0.150	0.950	90.96	-1.30	1.30	 	 	 	 	 	 	 	 	 	 	 	 	 	 	 	 	 	 	1581521635	7.47	13.83
12/02/2020 15:33:56	120220	12022020	153356	91.01	12.418748	-57.008245	91.13	-0.550	0.750	0.830	91.06	-0.60	1.20	 	 	 	 	 	 	 	 	 	 	 	 	 	 	 	 	 	 	1581521636	6.99	12.95
12/02/2020 15:33:57	120220	12022020	153357	91.41	12.418750	-57.008210	91.56	-0.660	0.390	0.410	91.50	-0.90	0.80	 	 	 	 	 	 	 	 	 	 	 	 	 	 	 	 	 	 	1581521637	7.68	14.22
12/02/2020 15:33:58	120220	12022020	153358	91.87	12.418748	-57.008168	91.99	-0.410	-0.450	0.420	91.93	-1.70	0.80	 	 	 	 	 	 	 	 	 	 	 	 	 	 	 	 	 	 	1581521638	8.58	15.89
12/02/2020 15:33:59	120220	12022020	153359	91.98	12.418745	-57.008128	92.03	0.000	-0.930	0.860	91.94	-2.30	1.20	 	 	 	 	 	 	 	 	 	 	 	 	 	 	 	 	 	 	1581521639	8.74	16.19
12/02/2020 15:34:00	120220	12022020	153400	91.56	12.418740	-57.008090	91.55	0.410	-0.740	1.380	91.42	-2.10	1.70	 	 	 	 	 	 	 	 	 	 	 	 	 	 	 	 	 	 	1581521640	8.16	15.11
12/02/2020 15:34:01	120220	12022020	153401	90.82	12.418740	-57.008053	90.80	0.740	-0.420	1.790	90.69	-1.80	2.10	 	 	 	 	 	 	 	 	 	 	 	 	 	 	 	 	 	 	1581521641	7.70	14.26
12/02/2020 15:34:02	120220	12022020	153402	90.39	12.418743	-57.008015	90.47	0.890	-0.400	1.630	90.39	-1.80	2.00	1016.90	26.60	26.70	20.50	20.50	676.0	69.0	69.0	438.0	28.6	354.00	14.50	85.00	10.40	54808	13054.0	27.4	27.4	1581521642	8.13	15.06
12/02/2020 15:34:03	120220	12022020	153403	90.71	12.418748	-57.007975	90.89	0.480	-0.020	0.860	90.85	-1.40	1.30	 	 	 	 	 	 	 	 	 	 	 	 	 	 	 	 	 	 	1581521643	8.45	15.65
12/02/2020 15:34:04	120220	12022020	153404	91.48	12.418755	-57.007940	91.66	-0.470	0.900	0.200	91.63	-0.50	0.60	 	 	 	 	 	 	 	 	 	 	 	 	 	 	 	 	 	 	1581521644	7.50	13.89
12/02/2020 15:34:05	120220	12022020	153405	91.99	12.418757	-57.007908	92.19	-1.240	1.240	0.290	92.07	-0.10	0.70	 	 	 	 	 	 	 	 	 	 	 	 	 	 	 	 	 	 	1581521645	6.68	12.37
12/02/2020 15:34:06	120220	12022020	153406	92.08	12.418752	-57.007872	92.10	-0.970	-0.130	1.000	92.01	-1.40	1.30	 	 	 	 	 	 	 	 	 	 	 	 	 	 	 	 	 	 	1581521646	7.78	14.41
12/02/2020 15:34:07	120220	12022020	153407	91.62	12.418743	-57.007827	91.64	0.200	-2.110	1.900	91.53	-3.30	2.20	 	 	 	 	 	 	 	 	 	 	 	 	 	 	 	 	 	 	1581521647	9.77	18.09
12/02/2020 15:34:08	120220	12022020	153408	91.30	12.418738	-57.007780	91.39	1.220	-2.600	2.220	91.29	-3.90	2.60	 	 	 	 	 	 	 	 	 	 	 	 	 	 	 	 	 	 	1581521648	9.87	18.28
12/02/2020 15:34:09	120220	12022020	153409	91.35	12.418740	-57.007742	91.48	1.260	-1.090	1.670	91.39	-2.50	2.10	 	 	 	 	 	 	 	 	 	 	 	 	 	 	 	 	 	 	1581521649	8.04	14.89
12/02/2020 15:34:10	120220	12022020	153410	91.58	12.418745	-57.007712	91.69	0.350	1.050	0.650	91.64	-0.40	1.10	 	 	 	 	 	 	 	 	 	 	 	 	 	 	 	 	 	 	1581521650	6.45	11.95
12/02/2020 15:34:11	120220	12022020	153411	91.89	12.418752	-57.007683	91.99	-0.680	2.040	-0.300	91.97	0.70	0.20	 	 	 	 	 	 	 	 	 	 	 	 	 	 	 	 	 	 	1581521651	6.39	11.83
12/02/2020 15:34:12	120220	12022020	153412	92.27	12.418757	-57.007647	92.36	-1.010	1.300	-0.950	92.34	0.00	-0.50	 	 	 	 	 	 	 	 	 	 	 	 	 	 	 	 	 	 	1581521652	7.71	14.28
12/02/2020 15:34:13	120220	12022020	153413	92.53	12.418760	-57.007605	92.61	-0.640	-0.090	-1.120	92.55	-1.40	-0.70	 	 	 	 	 	 	 	 	 	 	 	 	 	 	 	 	 	 	1581521653	9.02	16.71
12/02/2020 15:34:14	120220	12022020	153414	92.58	12.418758	-57.007562	92.60	-0.150	-1.110	-0.770	92.54	-2.40	-0.40	 	 	 	 	 	 	 	 	 	 	 	 	 	 	 	 	 	 	1581521654	9.05	16.76
12/02/2020 15:34:15	120220	12022020	153415	92.20	12.418755	-57.007522	92.18	0.160	-1.560	0.320	92.08	-2.90	0.60	 	 	 	 	 	 	 	 	 	 	 	 	 	 	 	 	 	 	1581521655	8.51	15.76
12/02/2020 15:34:16	120220	12022020	153416	91.50	12.418747	-57.007483	91.50	0.420	-1.700	1.590	91.37	-3.00	1.90	 	 	 	 	 	 	 	 	 	 	 	 	 	 	 	 	 	 	1581521656	8.37	15.50
12/02/2020 15:34:17	120220	12022020	153417	91.06	12.418742	-57.007443	91.14	0.730	-1.380	2.180	91.03	-2.80	2.50	 	 	 	 	 	 	 	 	 	 	 	 	 	 	 	 	 	 	1581521657	8.46	15.67
12/02/2020 15:34:18	120220	12022020	153418	91.08	12.418740	-57.007405	91.22	0.770	-0.290	2.100	91.12	-1.70	2.50	 	 	 	 	 	 	 	 	 	 	 	 	 	 	 	 	 	 	1581521658	8.10	15.00
12/02/2020 15:34:19	120220	12022020	153419	91.30	12.418742	-57.007370	91.51	0.220	1.220	1.680	91.36	-0.20	2.10	 	 	 	 	 	 	 	 	 	 	 	 	 	 	 	 	 	 	1581521659	7.25	13.43
12/02/2020 15:34:20	120220	12022020	153420	91.62	12.418743	-57.007338	91.74	-0.710	2.140	1.230	91.65	0.80	1.60	 	 	 	 	 	 	 	 	 	 	 	 	 	 	 	 	 	 	1581521660	6.76	12.52
12/02/2020 15:34:21	120220	12022020	153421	91.69	12.418745	-57.007305	91.78	-1.370	1.700	0.980	91.68	0.40	1.40	 	 	 	 	 	 	 	 	 	 	 	 	 	 	 	 	 	 	1581521661	7.26	13.45
12/02/2020 15:34:22	120220	12022020	153422	91.59	12.418743	-57.007263	91.65	-1.190	-0.130	0.850	91.56	-1.30	1.20	 	 	 	 	 	 	 	 	 	 	 	 	 	 	 	 	 	 	1581521662	8.48	15.70
12/02/2020 15:34:23	120220	12022020	153423	91.32	12.418743	-57.007218	91.35	-0.040	-2.540	0.810	91.24	-3.70	1.20	 	 	 	 	 	 	 	 	 	 	 	 	 	 	 	 	 	 	1581521663	9.75	18.06
12/02/2020 15:34:24	120220	12022020	153424	90.90	12.418742	-57.007168	90.96	1.400	-3.700	0.870	90.84	-5.00	1.30	 	 	 	 	 	 	 	 	 	 	 	 	 	 	 	 	 	 	1581521664	10.31	19.09
12/02/2020 15:34:25	120220	12022020	153425	90.74	12.418745	-57.007128	90.88	1.840	-2.040	0.960	90.76	-3.50	1.30	 	 	 	 	 	 	 	 	 	 	 	 	 	 	 	 	 	 	1581521665	8.76	16.22
12/02/2020 15:34:26	120220	12022020	153426	90.98	12.418747	-57.007100	91.18	0.820	1.060	1.230	91.07	-0.50	1.60	 	 	 	 	 	 	 	 	 	 	 	 	 	 	 	 	 	 	1581521666	6.01	11.13
12/02/2020 15:34:27	120220	12022020	153427	91.49	12.418747	-57.007075	91.70	-0.800	2.950	1.380	91.59	1.50	1.80	 	 	 	 	 	 	 	 	 	 	 	 	 	 	 	 	 	 	1581521667	5.22	9.67
12/02/2020 15:34:28	120220	12022020	153428	91.90	12.418743	-57.007042	92.06	-1.690	2.330	1.480	91.93	1.10	1.90	 	 	 	 	 	 	 	 	 	 	 	 	 	 	 	 	 	 	1581521668	6.87	12.72
12/02/2020 15:34:29	120220	12022020	153429	91.95	12.418740	-57.006998	92.04	-1.280	-0.060	1.750	91.92	-1.30	2.10	 	 	 	 	 	 	 	 	 	 	 	 	 	 	 	 	 	 	1581521669	9.26	17.15
12/02/2020 15:34:30	120220	12022020	153430	91.75	12.418735	-57.006950	91.82	-0.130	-2.120	1.960	91.71	-3.40	2.30	 	 	 	 	 	 	 	 	 	 	 	 	 	 	 	 	 	 	1581521670	10.38	19.22
12/02/2020 15:34:31	120220	12022020	153431	91.63	12.418732	-57.006905	91.72	0.790	-2.340	1.810	91.62	-3.70	2.20	 	 	 	 	 	 	 	 	 	 	 	 	 	 	 	 	 	 	1581521671	9.36	17.33
12/02/2020 15:34:32	120220	12022020	153432	91.64	12.418735	-57.006870	91.74	0.940	-1.110	1.260	91.65	-2.50	1.70	 	 	 	 	 	 	 	 	 	 	 	 	 	 	 	 	 	 	1581521672	7.53	13.95
12/02/2020 15:34:33	120220	12022020	153433	91.67	12.418738	-57.006838	91.76	0.520	0.200	0.480	91.67	-1.20	0.90	 	 	 	 	 	 	 	 	 	 	 	 	 	 	 	 	 	 	1581521673	6.81	12.61
12/02/2020 15:34:34	120220	12022020	153434	91.81	12.418745	-57.006805	91.92	-0.040	0.920	-0.200	91.86	-0.50	0.20	 	 	 	 	 	 	 	 	 	 	 	 	 	 	 	 	 	 	1581521674	7.22	13.37
12/02/2020 15:34:35	120220	12022020	153435	92.07	12.418748	-57.006768	92.16	-0.420	0.870	-0.580	92.10	-0.50	-0.20	 	 	 	 	 	 	 	 	 	 	 	 	 	 	 	 	 	 	1581521675	7.76	14.37
12/02/2020 15:34:36	120220	12022020	153436	92.11	12.418748	-57.006728	92.16	-0.500	0.190	-0.570	92.07	-1.10	-0.20	 	 	 	 	 	 	 	 	 	 	 	 	 	 	 	 	 	 	1581521676	8.32	15.41
12/02/2020 15:34:37	120220	12022020	153437	91.80	12.418745	-57.006687	91.81	-0.270	-0.710	-0.030	91.71	-2.00	0.30	 	 	 	 	 	 	 	 	 	 	 	 	 	 	 	 	 	 	1581521677	8.79	16.28
12/02/2020 15:34:38	120220	12022020	153438	91.41	12.418740	-57.006645	91.46	0.020	-1.000	0.740	91.36	-2.30	1.10	 	 	 	 	 	 	 	 	 	 	 	 	 	 	 	 	 	 	1581521678	8.83	16.35
12/02/2020 15:34:39	120220	12022020	153439	91.23	12.418737	-57.006608	91.31	0.100	-0.650	1.360	91.20	-2.00	1.70	 	 	 	 	 	 	 	 	 	 	 	 	 	 	 	 	 	 	1581521679	8.03	14.87
12/02/2020 15:34:40	120220	12022020	153440	91.10	12.418733	-57.006572	91.18	0.130	-0.600	1.690	91.06	-1.90	2.10	 	 	 	 	 	 	 	 	 	 	 	 	 	 	 	 	 	 	1581521680	7.80	14.45
12/02/2020 15:34:41	120220	12022020	153441	90.84	12.418732	-57.006530	90.90	0.330	-0.860	2.010	90.76	-2.20	2.40	 	 	 	 	 	 	 	 	 	 	 	 	 	 	 	 	 	 	1581521681	8.57	15.87
12/02/2020 15:34:42	120220	12022020	153442	90.51	12.418730	-57.006490	90.59	0.460	-0.480	2.100	90.47	-1.90	2.50	 	 	 	 	 	 	 	 	 	 	 	 	 	 	 	 	 	 	1581521682	8.73	16.17
12/02/2020 15:34:43	120220	12022020	153443	90.41	12.418732	-57.006452	90.53	0.290	0.490	1.670	90.43	-0.90	2.10	 	 	 	 	 	 	 	 	 	 	 	 	 	 	 	 	 	 	1581521683	7.83	14.50
12/02/2020 15:34:44	120220	12022020	153444	90.59	12.418735	-57.006417	90.71	-0.030	0.980	1.170	90.63	-0.40	1.60	 	 	 	 	 	 	 	 	 	 	 	 	 	 	 	 	 	 	1581521684	7.43	13.76
12/02/2020 15:34:45	120220	12022020	153445	90.74	12.418738	-57.006378	90.83	-0.250	0.390	0.820	90.75	-0.90	1.20	 	 	 	 	 	 	 	 	 	 	 	 	 	 	 	 	 	 	1581521685	8.18	15.15
12/02/2020 15:34:46	120220	12022020	153446	90.68	12.418738	-57.006337	90.72	-0.300	-0.620	0.730	90.63	-1.90	1.10	 	 	 	 	 	 	 	 	 	 	 	 	 	 	 	 	 	 	1581521686	9.08	16.82
12/02/2020 15:34:47	120220	12022020	153447	90.40	12.418738	-57.006293	90.46	-0.220	-0.920	0.950	90.35	-2.30	1.30	 	 	 	 	 	 	 	 	 	 	 	 	 	 	 	 	 	 	1581521687	9.03	16.72
12/02/2020 15:34:48	120220	12022020	153448	90.18	12.418737	-57.006255	90.24	-0.110	-0.410	1.130	90.14	-1.80	1.50	 	 	 	 	 	 	 	 	 	 	 	 	 	 	 	 	 	 	1581521688	8.03	14.87
12/02/2020 15:34:49	120220	12022020	153449	89.96	12.418738	-57.006220	90.01	0.030	-0.230	1.180	89.90	-1.60	1.60	 	 	 	 	 	 	 	 	 	 	 	 	 	 	 	 	 	 	1581521689	7.61	14.09
12/02/2020 15:34:50	120220	12022020	153450	89.69	12.418738	-57.006178	89.77	0.300	-0.900	1.260	89.66	-2.20	1.60	 	 	 	 	 	 	 	 	 	 	 	 	 	 	 	 	 	 	1581521690	8.59	15.91
12/02/2020 15:34:51	120220	12022020	153451	89.67	12.418740	-57.006133	89.79	0.560	-1.250	1.270	89.69	-2.60	1.70	 	 	 	 	 	 	 	 	 	 	 	 	 	 	 	 	 	 	1581521691	9.45	17.50
12/02/2020 15:34:52	120220	12022020	153452	89.82	12.418742	-57.006093	89.95	0.470	-0.400	1.210	89.85	-1.80	1.60	 	 	 	 	 	 	 	 	 	 	 	 	 	 	 	 	 	 	1581521692	8.68	16.08
12/02/2020 15:34:53	120220	12022020	153453	90.03	12.418743	-57.006058	90.19	-0.070	0.880	1.190	90.09	-0.50	1.60	 	 	 	 	 	 	 	 	 	 	 	 	 	 	 	 	 	 	1581521693	7.44	13.78
12/02/2020 15:34:54	120220	12022020	153454	90.36	12.418743	-57.006023	90.52	-0.700	1.400	1.250	90.41	0.10	1.60	 	 	 	 	 	 	 	 	 	 	 	 	 	 	 	 	 	 	1581521694	7.18	13.30
12/02/2020 15:34:55	120220	12022020	153455	90.51	12.418742	-57.005985	90.60	-0.810	0.590	1.420	90.49	-0.70	1.80	 	 	 	 	 	 	 	 	 	 	 	 	 	 	 	 	 	 	1581521695	8.12	15.04
12/02/2020 15:34:56	120220	12022020	153456	90.33	12.418742	-57.005942	90.39	-0.290	-0.980	1.610	90.28	-2.20	2.00	 	 	 	 	 	 	 	 	 	 	 	 	 	 	 	 	 	 	1581521696	9.43	17.46
12/02/2020 15:34:57	120220	12022020	153457	90.09	12.418742	-57.005893	90.17	0.360	-1.910	1.700	90.07	-3.20	2.10	 	 	 	 	 	 	 	 	 	 	 	 	 	 	 	 	 	 	1581521697	9.89	18.32
12/02/2020 15:34:58	120220	12022020	153458	90.06	12.418743	-57.005852	90.17	0.600	-1.440	1.510	90.08	-2.80	1.90	 	 	 	 	 	 	 	 	 	 	 	 	 	 	 	 	 	 	1581521698	8.95	16.58
12/02/2020 15:34:59	120220	12022020	153459	90.23	12.418748	-57.005815	90.35	0.360	-0.300	1.040	90.28	-1.70	1.50	 	 	 	 	 	 	 	 	 	 	 	 	 	 	 	 	 	 	1581521699	7.78	14.41
12/02/2020 15:35:00	120220	12022020	153500	90.51	12.418752	-57.005778	90.65	-0.090	0.500	0.660	90.56	-0.90	1.10	 	 	 	 	 	 	 	 	 	 	 	 	 	 	 	 	 	 	1581521700	7.68	14.22
12/02/2020 15:35:01	120220	12022020	153501	90.76	12.418753	-57.005742	90.88	-0.450	0.680	0.650	90.80	-0.70	1.00	 	 	 	 	 	 	 	 	 	 	 	 	 	 	 	 	 	 	1581521701	8.07	14.95
12/02/2020 15:35:02	120220	12022020	153502	90.86	12.418752	-57.005700	90.95	-0.440	0.210	0.860	90.86	-1.10	1.20	1016.70	26.60	26.70	20.50	20.50	639.0	68.0	68.0	437.0	28.6	353.00	14.80	82.00	10.60	52894	11409.0	27.4	27.4	1581521702	8.63	15.98
12/02/2020 15:35:03	120220	12022020	153503	90.76	12.418750	-57.005657	90.83	-0.120	-0.440	0.990	90.73	-1.80	1.40	 	 	 	 	 	 	 	 	 	 	 	 	 	 	 	 	 	 	1581521703	9.20	17.04
12/02/2020 15:35:04	120220	12022020	153504	90.58	12.418750	-57.005613	90.65	0.100	-0.580	1.250	90.54	-1.90	1.60	 	 	 	 	 	 	 	 	 	 	 	 	 	 	 	 	 	 	1581521704	9.14	16.93
12/02/2020 15:35:05	120220	12022020	153505	90.44	12.418748	-57.005573	90.53	-0.030	-0.170	1.470	90.43	-1.50	1.90	 	 	 	 	 	 	 	 	 	 	 	 	 	 	 	 	 	 	1581521705	8.40	15.56
12/02/2020 15:35:06	120220	12022020	153506	90.45	12.418750	-57.005537	90.55	-0.240	0.140	1.140	90.47	-1.20	1.60	 	 	 	 	 	 	 	 	 	 	 	 	 	 	 	 	 	 	1581521706	7.87	14.58
12/02/2020 15:35:07	120220	12022020	153507	90.48	12.418753	-57.005497	90.56	-0.120	-0.270	0.770	90.47	-1.60	1.20	 	 	 	 	 	 	 	 	 	 	 	 	 	 	 	 	 	 	1581521707	8.35	15.46
12/02/2020 15:35:08	120220	12022020	153508	90.39	12.418757	-57.005453	90.47	0.380	-1.180	0.750	90.37	-2.50	1.20	 	 	 	 	 	 	 	 	 	 	 	 	 	 	 	 	 	 	1581521708	9.26	17.15
12/02/2020 15:35:09	120220	12022020	153509	90.36	12.418758	-57.005407	90.49	0.930	-1.660	0.710	90.37	-3.00	1.10	 	 	 	 	 	 	 	 	 	 	 	 	 	 	 	 	 	 	1581521709	9.78	18.11
12/02/2020 15:35:10	120220	12022020	153510	90.42	12.418760	-57.005363	90.54	0.860	-0.830	0.840	90.42	-2.30	1.20	 	 	 	 	 	 	 	 	 	 	 	 	 	 	 	 	 	 	1581521710	9.16	16.96
12/02/2020 15:35:11	120220	12022020	153511	90.36	12.418758	-57.005328	90.47	-0.090	0.780	1.300	90.33	-0.70	1.70	 	 	 	 	 	 	 	 	 	 	 	 	 	 	 	 	 	 	1581521711	7.68	14.22
12/02/2020 15:35:12	120220	12022020	153512	90.24	12.418757	-57.005293	90.35	-1.280	1.760	1.650	90.22	0.40	2.00	 	 	 	 	 	 	 	 	 	 	 	 	 	 	 	 	 	 	1581521712	7.13	13.20
12/02/2020 15:35:13	120220	12022020	153513	90.24	12.418755	-57.005257	90.39	-1.760	1.440	1.740	90.27	0.20	2.10	 	 	 	 	 	 	 	 	 	 	 	 	 	 	 	 	 	 	1581521713	7.92	14.67
12/02/2020 15:35:14	120220	12022020	153514	90.48	12.418753	-57.005213	90.65	-1.160	0.110	1.430	90.56	-1.10	1.80	 	 	 	 	 	 	 	 	 	 	 	 	 	 	 	 	 	 	1581521714	9.03	16.72
12/02/2020 15:35:15	120220	12022020	153515	90.78	12.418755	-57.005167	90.90	0.140	-1.610	0.970	90.80	-2.80	1.40	 	 	 	 	 	 	 	 	 	 	 	 	 	 	 	 	 	 	1581521715	9.86	18.26
12/02/2020 15:35:16	120220	12022020	153516	90.70	12.418757	-57.005118	90.77	1.310	-2.590	0.860	90.64	-3.90	1.30	 	 	 	 	 	 	 	 	 	 	 	 	 	 	 	 	 	 	1581521716	10.19	18.87
12/02/2020 15:35:17	120220	12022020	153517	90.38	12.418758	-57.005075	90.46	1.580	-1.920	0.860	90.32	-3.30	1.30	 	 	 	 	 	 	 	 	 	 	 	 	 	 	 	 	 	 	1581521717	9.30	17.22
12/02/2020 15:35:18	120220	12022020	153518	90.14	12.418763	-57.005038	90.23	0.950	-0.150	0.670	90.11	-1.60	1.10	 	 	 	 	 	 	 	 	 	 	 	 	 	 	 	 	 	 	1581521718	7.83	14.50
12/02/2020 15:35:19	120220	12022020	153519	90.09	12.418768	-57.005005	90.21	-0.050	1.390	0.420	90.11	-0.00	0.80	 	 	 	 	 	 	 	 	 	 	 	 	 	 	 	 	 	 	1581521719	7.24	13.41
12/02/2020 15:35:20	120220	12022020	153520	90.25	12.418773	-57.004968	90.40	-0.920	1.880	0.340	90.30	0.50	0.70	 	 	 	 	 	 	 	 	 	 	 	 	 	 	 	 	 	 	1581521720	7.67	14.20
12/02/2020 15:35:21	120220	12022020	153521	90.57	12.418775	-57.004928	90.76	-1.390	1.180	0.370	90.65	-0.10	0.80	 	 	 	 	 	 	 	 	 	 	 	 	 	 	 	 	 	 	1581521721	8.57	15.87
12/02/2020 15:35:22	120220	12022020	153522	91.01	12.418773	-57.004883	91.20	-1.310	-0.260	0.550	91.09	-1.50	0.90	 	 	 	 	 	 	 	 	 	 	 	 	 	 	 	 	 	 	1581521722	9.41	17.43
12/02/2020 15:35:23	120220	12022020	153523	91.25	12.418768	-57.004837	91.37	-0.600	-1.650	1.160	91.26	-2.90	1.50	 	 	 	 	 	 	 	 	 	 	 	 	 	 	 	 	 	 	1581521723	9.86	18.26
12/02/2020 15:35:24	120220	12022020	153524	91.02	12.418760	-57.004792	91.07	0.570	-2.330	1.920	90.94	-3.60	2.30	 	 	 	 	 	 	 	 	 	 	 	 	 	 	 	 	 	 	1581521724	9.79	18.13
12/02/2020 15:35:25	120220	12022020	153525	90.57	12.418758	-57.004748	90.65	1.600	-1.950	2.040	90.52	-3.30	2.40	 	 	 	 	 	 	 	 	 	 	 	 	 	 	 	 	 	 	1581521725	9.28	17.19
12/02/2020 15:35:26	120220	12022020	153526	90.54	12.418763	-57.004708	90.70	1.610	-0.410	1.400	90.61	-1.90	1.80	 	 	 	 	 	 	 	 	 	 	 	 	 	 	 	 	 	 	1581521726	8.49	15.72
12/02/2020 15:35:27	120220	12022020	153527	91.10	12.418772	-57.004673	91.32	0.470	1.370	0.410	91.26	-0.10	0.90	 	 	 	 	 	 	 	 	 	 	 	 	 	 	 	 	 	 	1581521727	7.60	14.08
12/02/2020 15:35:28	120220	12022020	153528	91.85	12.418780	-57.004640	92.03	-1.060	2.280	-0.390	91.98	0.90	0.00	 	 	 	 	 	 	 	 	 	 	 	 	 	 	 	 	 	 	1581521728	7.38	13.67
12/02/2020 15:35:29	120220	12022020	153529	92.33	12.418783	-57.004602	92.44	-1.950	1.800	-0.530	92.37	0.50	-0.20	 	 	 	 	 	 	 	 	 	 	 	 	 	 	 	 	 	 	1581521729	7.87	14.58
12/02/2020 15:35:30	120220	12022020	153530	92.35	12.418780	-57.004558	92.41	-1.460	-0.260	-0.050	92.31	-1.40	0.30	 	 	 	 	 	 	 	 	 	 	 	 	 	 	 	 	 	 	1581521730	9.13	16.91
12/02/2020 15:35:31	120220	12022020	153531	92.06	12.418773	-57.004508	92.10	0.200	-2.710	0.530	91.98	-3.90	0.90	 	 	 	 	 	 	 	 	 	 	 	 	 	 	 	 	 	 	1581521731	10.68	19.78
12/02/2020 15:35:32	120220	12022020	153532	91.69	12.418770	-57.004458	91.76	1.780	-3.580	1.010	91.64	-4.90	1.40	 	 	 	 	 	 	 	 	 	 	 	 	 	 	 	 	 	 	1581521732	10.78	19.96
12/02/2020 15:35:33	120220	12022020	153533	91.64	12.418770	-57.004415	91.81	1.850	-1.900	1.400	91.69	-3.40	1.80	 	 	 	 	 	 	 	 	 	 	 	 	 	 	 	 	 	 	1581521733	9.05	16.76
12/02/2020 15:35:34	120220	12022020	153534	92.07	12.418770	-57.004383	92.32	0.350	1.140	1.710	92.23	-0.40	2.10	 	 	 	 	 	 	 	 	 	 	 	 	 	 	 	 	 	 	1581521734	6.64	12.30
12/02/2020 15:35:35	120220	12022020	153535	92.88	12.418768	-57.004358	93.14	-1.470	3.460	1.730	93.04	2.00	2.10	 	 	 	 	 	 	 	 	 	 	 	 	 	 	 	 	 	 	1581521735	5.53	10.24
12/02/2020 15:35:36	120220	12022020	153536	93.50	12.418765	-57.004327	93.68	-2.040	3.090	1.540	93.57	1.80	1.90	 	 	 	 	 	 	 	 	 	 	 	 	 	 	 	 	 	 	1581521736	6.59	12.20
12/02/2020 15:35:37	120220	12022020	153537	93.69	12.418762	-57.004282	93.78	-0.860	-0.030	1.210	93.67	-1.20	1.60	 	 	 	 	 	 	 	 	 	 	 	 	 	 	 	 	 	 	1581521737	9.54	17.67
12/02/2020 15:35:38	120220	12022020	153538	93.43	12.418760	-57.004227	93.49	0.930	-3.120	1.060	93.37	-4.30	1.50	 	 	 	 	 	 	 	 	 	 	 	 	 	 	 	 	 	 	1581521738	11.67	21.61
12/02/2020 15:35:39	120220	12022020	153539	93.26	12.418760	-57.004177	93.35	1.730	-3.260	0.660	93.27	-4.70	1.10	 	 	 	 	 	 	 	 	 	 	 	 	 	 	 	 	 	 	1581521739	10.60	19.63
12/02/2020 15:35:40	120220	12022020	153540	93.47	12.418765	-57.004142	93.61	1.000	-0.630	0.200	93.55	-2.20	0.60	 	 	 	 	 	 	 	 	 	 	 	 	 	 	 	 	 	 	1581521740	7.27	13.46
12/02/2020 15:35:41	120220	12022020	153541	93.95	12.418768	-57.004118	94.09	-0.390	1.810	0.020	94.04	0.40	0.40	 	 	 	 	 	 	 	 	 	 	 	 	 	 	 	 	 	 	1581521741	5.24	9.70
12/02/2020 15:35:42	120220	12022020	153542	94.23	12.418765	-57.004088	94.29	-1.250	2.020	0.340	94.22	0.70	0.70	 	 	 	 	 	 	 	 	 	 	 	 	 	 	 	 	 	 	1581521742	6.30	11.67
12/02/2020 15:35:43	120220	12022020	153543	94.00	12.418757	-57.004047	93.97	-0.960	0.280	0.960	93.90	-0.90	1.30	 	 	 	 	 	 	 	 	 	 	 	 	 	 	 	 	 	 	1581521743	8.82	16.33
12/02/2020 15:35:44	120220	12022020	153544	93.38	12.418748	-57.003998	93.35	0.130	-1.670	1.620	93.25	-2.90	2.00	 	 	 	 	 	 	 	 	 	 	 	 	 	 	 	 	 	 	1581521744	10.35	19.17
12/02/2020 15:35:45	120220	12022020	153545	92.80	12.418742	-57.003952	92.82	1.020	-2.100	1.870	92.72	-3.50	2.30	 	 	 	 	 	 	 	 	 	 	 	 	 	 	 	 	 	 	1581521745	9.96	18.45
12/02/2020 15:35:46	120220	12022020	153546	92.54	12.418742	-57.003915	92.60	0.970	-0.790	1.530	92.52	-2.20	1.90	 	 	 	 	 	 	 	 	 	 	 	 	 	 	 	 	 	 	1581521746	8.06	14.93
12/02/2020 15:35:47	120220	12022020	153547	92.52	12.418745	-57.003883	92.59	0.210	0.740	1.000	92.52	-0.70	1.40	 	 	 	 	 	 	 	 	 	 	 	 	 	 	 	 	 	 	1581521747	6.67	12.35
12/02/2020 15:35:48	120220	12022020	153548	92.50	12.418747	-57.003850	92.54	-0.350	0.950	0.640	92.48	-0.40	1.00	 	 	 	 	 	 	 	 	 	 	 	 	 	 	 	 	 	 	1581521748	7.08	13.11
12/02/2020 15:35:49	120220	12022020	153549	92.34	12.418747	-57.003808	92.38	-0.240	0.100	0.570	92.30	-1.20	0.90	 	 	 	 	 	 	 	 	 	 	 	 	 	 	 	 	 	 	1581521749	8.67	16.06
12/02/2020 15:35:50	120220	12022020	153550	92.07	12.418743	-57.003765	92.11	0.070	-0.450	0.840	92.02	-1.80	1.20	 	 	 	 	 	 	 	 	 	 	 	 	 	 	 	 	 	 	1581521750	9.28	17.19
12/02/2020 15:35:51	120220	12022020	153551	91.87	12.418738	-57.003725	91.95	0.070	-0.250	1.010	91.86	-1.60	1.40	 	 	 	 	 	 	 	 	 	 	 	 	 	 	 	 	 	 	1581521751	8.42	15.59
12/02/2020 15:35:52	120220	12022020	153552	91.84	12.418737	-57.003690	91.91	-0.150	0.030	1.010	91.82	-1.30	1.40	 	 	 	 	 	 	 	 	 	 	 	 	 	 	 	 	 	 	1581521752	7.60	14.08
12/02/2020 15:35:53	120220	12022020	153553	91.63	12.418735	-57.003652	91.65	-0.110	-0.350	1.310	91.54	-1.60	1.70	 	 	 	 	 	 	 	 	 	 	 	 	 	 	 	 	 	 	1581521753	7.85	14.54
12/02/2020 15:35:54	120220	12022020	153554	91.14	12.418733	-57.003610	91.17	0.250	-1.090	1.740	91.05	-2.40	2.10	 	 	 	 	 	 	 	 	 	 	 	 	 	 	 	 	 	 	1581521754	8.83	16.35
12/02/2020 15:35:55	120220	12022020	153555	90.76	12.418732	-57.003568	90.83	0.600	-1.260	1.930	90.71	-2.60	2.30	 	 	 	 	 	 	 	 	 	 	 	 	 	 	 	 	 	 	1581521755	9.06	16.78
12/02/2020 15:35:56	120220	12022020	153556	90.64	12.418732	-57.003528	90.77	0.650	-0.470	1.860	90.67	-1.90	2.30	 	 	 	 	 	 	 	 	 	 	 	 	 	 	 	 	 	 	1581521756	8.31	15.39
12/02/2020 15:35:57	120220	12022020	153557	90.86	12.418732	-57.003493	91.03	0.310	0.530	1.620	90.93	-0.90	2.00	 	 	 	 	 	 	 	 	 	 	 	 	 	 	 	 	 	 	1581521757	7.48	13.85
12/02/2020 15:35:58	120220	12022020	153558	91.20	12.418733	-57.003457	91.34	-0.240	0.730	1.410	91.25	-0.60	1.80	 	 	 	 	 	 	 	 	 	 	 	 	 	 	 	 	 	 	1581521758	7.62	14.11
12/02/2020 15:35:59	120220	12022020	153559	91.29	12.418733	-57.003417	91.32	-0.590	0.070	1.610	91.25	-1.20	2.00	 	 	 	 	 	 	 	 	 	 	 	 	 	 	 	 	 	 	1581521759	8.48	15.70
12/02/2020 15:36:00	120220	12022020	153600	90.82	12.418728	-57.003373	90.85	-0.410	-0.700	2.100	90.70	-2.00	2.50	 	 	 	 	 	 	 	 	 	 	 	 	 	 	 	 	 	 	1581521760	9.15	16.95
12/02/2020 15:36:01	120220	12022020	153601	90.29	12.418725	-57.003332	90.36	0.160	-0.910	2.340	90.23	-2.30	2.70	 	 	 	 	 	 	 	 	 	 	 	 	 	 	 	 	 	 	1581521761	9.08	16.82
12/02/2020 15:36:02	120220	12022020	153602	90.26	12.418727	-57.003292	90.41	0.560	-0.550	1.770	90.34	-1.90	2.20	1016.90	26.60	26.70	20.30	20.40	785.0	68.0	68.0	436.0	28.6	352.00	15.40	80.00	11.10	60551	9478.0	27.4	27.4	1581521762	8.47	15.69
12/02/2020 15:36:03	120220	12022020	153603	90.82	12.418732	-57.003253	91.00	0.350	0.140	0.630	90.96	-1.30	1.10	 	 	 	 	 	 	 	 	 	 	 	 	 	 	 	 	 	 	1581521763	8.03	14.87
12/02/2020 15:36:04	120220	12022020	153604	91.48	12.418738	-57.003218	91.62	-0.300	0.710	-0.230	91.58	-0.70	0.20	 	 	 	 	 	 	 	 	 	 	 	 	 	 	 	 	 	 	1581521764	7.62	14.11
12/02/2020 15:36:05	120220	12022020	153605	91.80	12.418740	-57.003182	91.88	-0.670	0.310	-0.300	91.81	-1.00	0.10	 	 	 	 	 	 	 	 	 	 	 	 	 	 	 	 	 	 	1581521765	7.74	14.33
12/02/2020 15:36:06	120220	12022020	153606	91.59	12.418737	-57.003138	91.59	-0.180	-1.130	0.330	91.48	-2.40	0.70	 	 	 	 	 	 	 	 	 	 	 	 	 	 	 	 	 	 	1581521766	9.10	16.85
12/02/2020 15:36:07	120220	12022020	153607	90.98	12.418730	-57.003092	90.99	0.810	-2.110	1.050	90.86	-3.40	1.40	 	 	 	 	 	 	 	 	 	 	 	 	 	 	 	 	 	 	1581521767	10.10	18.71
12/02/2020 15:36:08	120220	12022020	153608	90.57	12.418730	-57.003048	90.66	1.290	-1.370	1.230	90.54	-2.80	1.60	 	 	 	 	 	 	 	 	 	 	 	 	 	 	 	 	 	 	1581521768	9.21	17.06
12/02/2020 15:36:09	120220	12022020	153609	90.68	12.418733	-57.003012	90.84	0.640	0.460	0.960	90.76	-1.00	1.40	 	 	 	 	 	 	 	 	 	 	 	 	 	 	 	 	 	 	1581521769	7.52	13.93
12/02/2020 15:36:10	120220	12022020	153610	91.17	12.418737	-57.002982	91.36	-0.640	1.800	0.620	91.28	0.40	1.00	 	 	 	 	 	 	 	 	 	 	 	 	 	 	 	 	 	 	1581521770	6.70	12.41
12/02/2020 15:36:11	120220	12022020	153611	91.58	12.418737	-57.002947	91.81	-1.480	1.580	0.600	91.64	0.30	1.00	 	 	 	 	 	 	 	 	 	 	 	 	 	 	 	 	 	 	1581521771	7.38	13.67
12/02/2020 15:36:12	120220	12022020	153612	91.73	12.418733	-57.002903	91.81	-1.240	0.120	0.980	91.68	-1.10	1.30	 	 	 	 	 	 	 	 	 	 	 	 	 	 	 	 	 	 	1581521772	8.97	16.61
12/02/2020 15:36:13	120220	12022020	153613	91.41	12.418727	-57.002858	91.31	-0.250	-1.360	1.700	91.29	-2.60	2.00	 	 	 	 	 	 	 	 	 	 	 	 	 	 	 	 	 	 	1581521773	9.78	18.11
12/02/2020 15:36:14	120220	12022020	153614	90.67	12.418722	-57.002813	90.73	0.810	-2.140	2.250	90.59	-3.50	2.60	 	 	 	 	 	 	 	 	 	 	 	 	 	 	 	 	 	 	1581521774	9.61	17.80
12/02/2020 15:36:15	120220	12022020	153615	90.42	12.418722	-57.002770	90.53	1.300	-1.950	2.250	90.41	-3.30	2.70	 	 	 	 	 	 	 	 	 	 	 	 	 	 	 	 	 	 	1581521775	9.10	16.85
12/02/2020 15:36:16	120220	12022020	153616	90.47	12.418722	-57.002730	90.58	0.940	-0.720	1.840	90.48	-2.20	2.30	 	 	 	 	 	 	 	 	 	 	 	 	 	 	 	 	 	 	1581521776	8.30	15.37
12/02/2020 15:36:17	120220	12022020	153617	90.48	12.418725	-57.002695	90.55	0.040	0.980	1.340	90.45	-0.50	1.80	 	 	 	 	 	 	 	 	 	 	 	 	 	 	 	 	 	 	1581521777	7.35	13.61
12/02/2020 15:36:18	120220	12022020	153618	90.25	12.418728	-57.002663	90.30	-0.790	2.060	0.920	90.20	0.70	1.40	 	 	 	 	 	 	 	 	 	 	 	 	 	 	 	 	 	 	1581521778	7.02	13.00
12/02/2020 15:36:19	120220	12022020	153619	90.06	12.418732	-57.002627	90.13	-1.130	1.670	0.380	90.04	0.40	0.80	 	 	 	 	 	 	 	 	 	 	 	 	 	 	 	 	 	 	1581521779	7.77	14.39
12/02/2020 15:36:20	120220	12022020	153620	90.03	12.418735	-57.002583	90.13	-0.820	-0.050	-0.050	90.03	-1.30	0.40	 	 	 	 	 	 	 	 	 	 	 	 	 	 	 	 	 	 	1581521780	9.14	16.93
12/02/2020 15:36:21	120220	12022020	153621	90.02	12.418737	-57.002535	90.12	-0.170	-1.800	-0.150	90.03	-3.10	0.30	 	 	 	 	 	 	 	 	 	 	 	 	 	 	 	 	 	 	1581521781	10.08	18.67
12/02/2020 15:36:22	120220	12022020	153622	90.03	12.418737	-57.002490	90.14	0.360	-2.290	0.190	90.03	-3.60	0.60	 	 	 	 	 	 	 	 	 	 	 	 	 	 	 	 	 	 	1581521782	9.68	17.93
12/02/2020 15:36:23	120220	12022020	153623	89.96	12.418733	-57.002450	90.05	0.610	-1.460	0.950	89.93	-2.90	1.30	 	 	 	 	 	 	 	 	 	 	 	 	 	 	 	 	 	 	1581521783	8.35	15.46
12/02/2020 15:36:24	120220	12022020	153624	89.77	12.418730	-57.002415	89.86	0.730	-0.390	1.650	89.73	-1.80	2.00	 	 	 	 	 	 	 	 	 	 	 	 	 	 	 	 	 	 	1581521784	7.58	14.04
12/02/2020 15:36:25	120220	12022020	153625	89.59	12.418728	-57.002377	89.70	0.790	0.160	2.050	89.56	-1.20	2.40	 	 	 	 	 	 	 	 	 	 	 	 	 	 	 	 	 	 	1581521785	8.08	14.96
12/02/2020 15:36:26	120220	12022020	153626	89.47	12.418728	-57.002335	89.61	0.450	0.610	2.160	89.48	-0.80	2.60	 	 	 	 	 	 	 	 	 	 	 	 	 	 	 	 	 	 	1581521786	8.65	16.02
12/02/2020 15:36:27	120220	12022020	153627	89.59	12.418732	-57.002297	89.75	-0.410	1.190	1.870	89.63	-0.20	2.30	 	 	 	 	 	 	 	 	 	 	 	 	 	 	 	 	 	 	1581521787	8.24	15.26
12/02/2020 15:36:28	120220	12022020	153628	89.86	12.418735	-57.002260	90.03	-1.270	1.300	1.520	89.92	-0.00	1.90	 	 	 	 	 	 	 	 	 	 	 	 	 	 	 	 	 	 	1581521788	7.74	14.33
12/02/2020 15:36:29	120220	12022020	153629	90.20	12.418737	-57.002222	90.37	-1.460	0.210	1.210	90.26	-1.00	1.60	 	 	 	 	 	 	 	 	 	 	 	 	 	 	 	 	 	 	1581521789	8.30	15.37
12/02/2020 15:36:30	120220	12022020	153630	90.46	12.418738	-57.002175	90.57	-0.830	-1.470	0.940	90.47	-2.70	1.40	 	 	 	 	 	 	 	 	 	 	 	 	 	 	 	 	 	 	1581521790	9.55	17.69
12/02/2020 15:36:31	120220	12022020	153631	90.33	12.418735	-57.002128	90.38	0.180	-2.360	1.090	90.25	-3.70	1.50	 	 	 	 	 	 	 	 	 	 	 	 	 	 	 	 	 	 	1581521791	9.89	18.32
12/02/2020 15:36:32	120220	12022020	153632	89.88	12.418732	-57.002087	89.92	0.970	-1.740	1.200	89.80	-3.20	1.60	 	 	 	 	 	 	 	 	 	 	 	 	 	 	 	 	 	 	1581521792	8.99	16.65
12/02/2020 15:36:33	120220	12022020	153633	89.61	12.418735	-57.002050	89.68	1.180	-0.190	0.590	89.59	-1.60	1.00	 	 	 	 	 	 	 	 	 	 	 	 	 	 	 	 	 	 	1581521793	7.65	14.17
12/02/2020 15:36:34	120220	12022020	153634	89.65	12.418743	-57.002017	89.74	0.790	0.880	-0.330	89.68	-0.50	0.10	 	 	 	 	 	 	 	 	 	 	 	 	 	 	 	 	 	 	1581521794	7.51	13.91
12/02/2020 15:36:35	120220	12022020	153635	89.82	12.418753	-57.001978	89.98	0.140	0.770	-0.960	89.87	-0.50	-0.50	 	 	 	 	 	 	 	 	 	 	 	 	 	 	 	 	 	 	1581521795	8.38	15.52
12/02/2020 15:36:36	120220	12022020	153636	90.14	12.418758	-57.001935	90.25	-0.370	-0.040	-0.960	90.18	-1.30	-0.60	 	 	 	 	 	 	 	 	 	 	 	 	 	 	 	 	 	 	1581521796	9.27	17.17
12/02/2020 15:36:37	120220	12022020	153637	90.18	12.418757	-57.001890	90.24	-0.570	-0.610	-0.080	90.15	-1.90	0.30	 	 	 	 	 	 	 	 	 	 	 	 	 	 	 	 	 	 	1581521797	9.53	17.65
12/02/2020 15:36:38	120220	12022020	153638	89.93	12.418750	-57.001847	90.00	-0.570	-0.350	1.060	89.87	-1.70	1.40	 	 	 	 	 	 	 	 	 	 	 	 	 	 	 	 	 	 	1581521798	9.02	16.71
12/02/2020 15:36:39	120220	12022020	153639	89.67	12.418743	-57.001810	89.75	-0.600	0.440	1.850	89.62	-0.90	2.20	 	 	 	 	 	 	 	 	 	 	 	 	 	 	 	 	 	 	1581521799	7.95	14.72
12/02/2020 15:36:40	120220	12022020	153640	89.52	12.418742	-57.001773	89.65	-0.520	0.540	2.170	89.51	-0.80	2.60	 	 	 	 	 	 	 	 	 	 	 	 	 	 	 	 	 	 	1581521800	7.59	14.06
12/02/2020 15:36:41	120220	12022020	153641	89.56	12.418743	-57.001733	89.71	0.000	-0.740	2.000	89.57	-2.00	2.40	 	 	 	 	 	 	 	 	 	 	 	 	 	 	 	 	 	 	1581521801	8.73	16.17
12/02/2020 15:36:42	120220	12022020	153642	89.62	12.418745	-57.001683	89.75	0.750	-2.170	1.750	89.64	-3.40	2.20	 	 	 	 	 	 	 	 	 	 	 	 	 	 	 	 	 	 	1581521802	10.31	19.09
12/02/2020 15:36:43	120220	12022020	153643	89.73	12.418748	-57.001637	89.88	0.990	-1.920	1.600	89.76	-3.30	2.00	 	 	 	 	 	 	 	 	 	 	 	 	 	 	 	 	 	 	1581521803	9.89	18.32
12/02/2020 15:36:44	120220	12022020	153644	89.92	12.418750	-57.001600	90.08	0.470	-0.030	1.450	89.97	-1.50	1.90	 	 	 	 	 	 	 	 	 	 	 	 	 	 	 	 	 	 	1581521804	7.91	14.65
12/02/2020 15:36:45	120220	12022020	153645	90.15	12.418752	-57.001570	90.30	-0.360	1.830	1.110	90.19	0.40	1.50	 	 	 	 	 	 	 	 	 	 	 	 	 	 	 	 	 	 	1581521805	6.54	12.11
12/02/2020 15:36:46	120220	12022020	153646	90.25	12.418753	-57.001535	90.35	-0.900	2.060	0.790	90.25	0.70	1.20	 	 	 	 	 	 	 	 	 	 	 	 	 	 	 	 	 	 	1581521806	7.11	13.17
12/02/2020 15:36:47	120220	12022020	153647	90.12	12.418757	-57.001495	90.18	-0.840	0.630	0.610	90.06	-0.60	1.00	 	 	 	 	 	 	 	 	 	 	 	 	 	 	 	 	 	 	1581521807	8.73	16.17
12/02/2020 15:36:48	120220	12022020	153648	89.73	12.418758	-57.001447	89.77	-0.120	-1.480	0.620	89.65	-2.70	1.00	 	 	 	 	 	 	 	 	 	 	 	 	 	 	 	 	 	 	1581521808	10.08	18.67
12/02/2020 15:36:49	120220	12022020	153649	89.54	12.418763	-57.001398	89.68	0.770	-2.750	0.600	89.59	-4.00	1.00	 	 	 	 	 	 	 	 	 	 	 	 	 	 	 	 	 	 	1581521809	10.46	19.37
12/02/2020 15:36:50	120220	12022020	153650	90.07	12.418767	-57.001353	90.31	1.010	-2.020	0.440	90.24	-3.40	0.90	 	 	 	 	 	 	 	 	 	 	 	 	 	 	 	 	 	 	1581521810	9.40	17.41
12/02/2020 15:36:51	120220	12022020	153651	90.91	12.418768	-57.001318	91.12	0.300	0.090	0.610	91.03	-1.40	1.00	 	 	 	 	 	 	 	 	 	 	 	 	 	 	 	 	 	 	1581521811	7.32	13.56
12/02/2020 15:36:52	120220	12022020	153652	91.31	12.418763	-57.001288	91.43	-0.680	1.640	1.460	91.31	0.20	1.80	 	 	 	 	 	 	 	 	 	 	 	 	 	 	 	 	 	 	1581521812	6.48	12.00
12/02/2020 15:36:53	120220	12022020	153653	91.10	12.418757	-57.001252	91.16	-0.960	1.420	2.550	91.02	0.10	2.90	 	 	 	 	 	 	 	 	 	 	 	 	 	 	 	 	 	 	1581521813	7.77	14.39
12/02/2020 15:36:54	120220	12022020	153654	90.81	12.418750	-57.001208	90.93	-0.450	0.120	3.080	90.79	-1.10	3.50	 	 	 	 	 	 	 	 	 	 	 	 	 	 	 	 	 	 	1581521814	9.48	17.56
12/02/2020 15:36:55	120220	12022020	153655	90.92	12.418750	-57.001162	91.11	0.140	-0.840	2.760	90.99	-2.10	3.20	 	 	 	 	 	 	 	 	 	 	 	 	 	 	 	 	 	 	1581521815	9.85	18.24
12/02/2020 15:36:56	120220	12022020	153656	91.32	12.418755	-57.001118	91.48	0.350	-0.960	1.820	91.41	-2.30	2.30	 	 	 	 	 	 	 	 	 	 	 	 	 	 	 	 	 	 	1581521816	9.01	16.69
12/02/2020 15:36:57	120220	12022020	153657	91.61	12.418762	-57.001080	91.70	0.370	-0.680	0.800	91.63	-2.00	1.30	 	 	 	 	 	 	 	 	 	 	 	 	 	 	 	 	 	 	1581521817	8.24	15.26
12/02/2020 15:36:58	120220	12022020	153658	91.54	12.418767	-57.001042	91.57	0.460	-0.600	0.190	91.50	-1.90	0.60	 	 	 	 	 	 	 	 	 	 	 	 	 	 	 	 	 	 	1581521818	8.32	15.41
12/02/2020 15:36:59	120220	12022020	153659	91.41	12.418770	-57.001000	91.49	0.400	-0.590	-0.010	91.43	-1.90	0.40	 	 	 	 	 	 	 	 	 	 	 	 	 	 	 	 	 	 	1581521819	8.76	16.22
12/02/2020 15:37:00	120220	12022020	153700	91.65	12.418770	-57.000960	91.78	0.020	-0.220	-0.030	91.73	-1.60	0.40	 	 	 	 	 	 	 	 	 	 	 	 	 	 	 	 	 	 	1581521820	8.64	16.00
12/02/2020 15:37:01	120220	12022020	153701	91.97	12.418768	-57.000922	92.07	-0.440	0.470	0.060	92.01	-0.90	0.50	 	 	 	 	 	 	 	 	 	 	 	 	 	 	 	 	 	 	1581521821	8.08	14.96
12/02/2020 15:37:02	120220	12022020	153702	91.98	12.418767	-57.000885	92.02	-0.570	0.660	0.340	91.94	-0.70	0.70	1016.70	26.70	26.70	20.10	20.20	529.0	67.0	67.0	438.0	28.6	351.00	15.80	78.00	11.50	46331	8359.0	27.5	27.4	1581521822	7.83	14.50
12/02/2020 15:37:03	120220	12022020	153703	91.79	12.418765	-57.000843	91.78	-0.250	-0.110	0.850	91.74	-1.40	1.20	 	 	 	 	 	 	 	 	 	 	 	 	 	 	 	 	 	 	1581521823	8.67	16.06
12/02/2020 15:37:04	120220	12022020	153704	91.58	12.418762	-57.000798	91.66	0.210	-1.130	1.370	91.57	-2.40	1.80	 	 	 	 	 	 	 	 	 	 	 	 	 	 	 	 	 	 	1581521824	9.64	17.85
12/02/2020 15:37:05	120220	12022020	153705	91.61	12.418760	-57.000753	91.73	0.390	-1.230	1.610	91.63	-2.60	2.00	 	 	 	 	 	 	 	 	 	 	 	 	 	 	 	 	 	 	1581521825	9.48	17.56
12/02/2020 15:37:06	120220	12022020	153706	91.67	12.418758	-57.000713	91.77	0.250	-0.470	1.750	91.67	-1.90	2.20	 	 	 	 	 	 	 	 	 	 	 	 	 	 	 	 	 	 	1581521826	8.36	15.48
12/02/2020 15:37:07	120220	12022020	153707	91.62	12.418757	-57.000677	91.70	0.050	0.270	1.900	91.60	-1.10	2.30	 	 	 	 	 	 	 	 	 	 	 	 	 	 	 	 	 	 	1581521827	7.86	14.56
12/02/2020 15:37:08	120220	12022020	153708	91.58	12.418755	-57.000638	91.66	-0.150	0.530	1.840	91.57	-0.80	2.30	 	 	 	 	 	 	 	 	 	 	 	 	 	 	 	 	 	 	1581521828	8.17	15.13
12/02/2020 15:37:09	120220	12022020	153709	91.52	12.418755	-57.000597	91.60	-0.380	0.410	1.630	91.51	-0.90	2.10	 	 	 	 	 	 	 	 	 	 	 	 	 	 	 	 	 	 	1581521829	8.56	15.85
12/02/2020 15:37:10	120220	12022020	153710	91.50	12.418757	-57.000557	91.58	-0.450	0.030	1.240	91.49	-1.30	1.70	 	 	 	 	 	 	 	 	 	 	 	 	 	 	 	 	 	 	1581521830	8.69	16.09
12/02/2020 15:37:11	120220	12022020	153711	91.44	12.418758	-57.000513	91.48	-0.120	-0.750	0.890	91.40	-2.00	1.30	 	 	 	 	 	 	 	 	 	 	 	 	 	 	 	 	 	 	1581521831	9.00	16.67
12/02/2020 15:37:12	120220	12022020	153712	91.19	12.418758	-57.000468	91.22	0.380	-1.400	0.870	91.13	-2.70	1.30	 	 	 	 	 	 	 	 	 	 	 	 	 	 	 	 	 	 	1581521832	9.50	17.59
12/02/2020 15:37:13	120220	12022020	153713	90.86	12.418758	-57.000425	90.89	0.560	-1.210	1.030	90.80	-2.60	1.40	 	 	 	 	 	 	 	 	 	 	 	 	 	 	 	 	 	 	1581521833	9.24	17.11
12/02/2020 15:37:14	120220	12022020	153714	90.63	12.418758	-57.000385	90.69	0.290	-0.200	1.080	90.61	-1.60	1.50	 	 	 	 	 	 	 	 	 	 	 	 	 	 	 	 	 	 	1581521834	8.29	15.35
12/02/2020 15:37:15	120220	12022020	153715	90.65	12.418758	-57.000350	90.74	-0.120	0.630	0.920	90.68	-0.70	1.40	 	 	 	 	 	 	 	 	 	 	 	 	 	 	 	 	 	 	1581521835	7.72	14.30
12/02/2020 15:37:16	120220	12022020	153716	90.82	12.418762	-57.000310	90.92	-0.270	0.500	0.770	90.85	-0.80	1.20	 	 	 	 	 	 	 	 	 	 	 	 	 	 	 	 	 	 	1581521836	8.30	15.37
12/02/2020 15:37:17	120220	12022020	153717	90.95	12.418762	-57.000267	91.05	-0.080	-0.330	0.940	90.97	-1.60	1.40	 	 	 	 	 	 	 	 	 	 	 	 	 	 	 	 	 	 	1581521837	9.35	17.32
12/02/2020 15:37:18	120220	12022020	153718	91.07	12.418760	-57.000220	91.18	0.130	-0.860	1.350	91.09	-2.20	1.70	 	 	 	 	 	 	 	 	 	 	 	 	 	 	 	 	 	 	1581521838	9.81	18.17
12/02/2020 15:37:19	120220	12022020	153719	91.12	12.418757	-57.000177	91.21	-0.030	-0.320	1.750	91.10	-1.70	2.10	 	 	 	 	 	 	 	 	 	 	 	 	 	 	 	 	 	 	1581521839	9.03	16.72
12/02/2020 15:37:20	120220	12022020	153720	91.01	12.418753	-57.000140	91.08	-0.430	0.660	1.870	90.97	-0.70	2.30	 	 	 	 	 	 	 	 	 	 	 	 	 	 	 	 	 	 	1581521840	7.72	14.30
12/02/2020 15:37:21	120220	12022020	153721	90.77	12.418753	-57.000105	90.84	-0.550	0.720	1.720	90.73	-0.60	2.20	 	 	 	 	 	 	 	 	 	 	 	 	 	 	 	 	 	 	1581521841	7.64	14.15
12/02/2020 15:37:22	120220	12022020	153722	90.64	12.418757	-57.000062	90.74	-0.100	-0.480	1.320	90.65	-1.70	1.80	 	 	 	 	 	 	 	 	 	 	 	 	 	 	 	 	 	 	1581521842	9.02	16.71
12/02/2020 15:37:23	120220	12022020	153723	90.76	12.418762	-57.000013	90.87	0.540	-1.760	0.760	90.80	-3.00	1.20	 	 	 	 	 	 	 	 	 	 	 	 	 	 	 	 	 	 	1581521843	10.24	18.96
12/02/2020 15:37:24	120220	12022020	153724	90.96	12.418767	-56.999967	91.06	0.820	-1.800	0.430	90.98	-3.20	0.90	 	 	 	 	 	 	 	 	 	 	 	 	 	 	 	 	 	 	1581521844	9.87	18.28
12/02/2020 15:37:25	120220	12022020	153725	91.02	12.418767	-56.999927	91.12	0.550	-0.660	0.630	91.03	-2.10	1.00	 	 	 	 	 	 	 	 	 	 	 	 	 	 	 	 	 	 	1581521845	8.46	15.67
12/02/2020 15:37:26	120220	12022020	153726	90.95	12.418765	-56.999890	91.02	-0.050	0.640	1.070	90.93	-0.80	1.50	 	 	 	 	 	 	 	 	 	 	 	 	 	 	 	 	 	 	1581521846	7.68	14.22
12/02/2020 15:37:27	120220	12022020	153727	90.93	12.418763	-56.999853	91.07	-0.660	1.440	1.160	90.95	0.10	1.60	 	 	 	 	 	 	 	 	 	 	 	 	 	 	 	 	 	 	1581521847	7.75	14.35
12/02/2020 15:37:28	120220	12022020	153728	91.19	12.418765	-56.999815	91.33	-0.930	1.170	1.020	91.24	-0.10	1.40	 	 	 	 	 	 	 	 	 	 	 	 	 	 	 	 	 	 	1581521848	8.20	15.19
12/02/2020 15:37:29	120220	12022020	153729	91.35	12.418765	-56.999772	91.44	-0.530	-0.230	1.030	91.35	-1.50	1.40	 	 	 	 	 	 	 	 	 	 	 	 	 	 	 	 	 	 	1581521849	9.31	17.24
12/02/2020 15:37:30	120220	12022020	153730	91.27	12.418765	-56.999723	91.34	0.190	-1.620	1.100	91.24	-2.90	1.50	 	 	 	 	 	 	 	 	 	 	 	 	 	 	 	 	 	 	1581521850	10.27	19.02
12/02/2020 15:37:31	120220	12022020	153731	91.14	12.418765	-56.999677	91.24	0.570	-1.830	1.250	91.14	-3.20	1.70	 	 	 	 	 	 	 	 	 	 	 	 	 	 	 	 	 	 	1581521851	9.85	18.24
12/02/2020 15:37:32	120220	12022020	153732	91.23	12.418763	-56.999637	91.36	0.480	-0.890	1.380	91.27	-2.30	1.80	 	 	 	 	 	 	 	 	 	 	 	 	 	 	 	 	 	 	1581521852	8.51	15.76
12/02/2020 15:37:33	120220	12022020	153733	91.41	12.418763	-56.999600	91.51	0.250	0.250	1.290	91.43	-1.20	1.70	 	 	 	 	 	 	 	 	 	 	 	 	 	 	 	 	 	 	1581521853	7.63	14.13
12/02/2020 15:37:34	120220	12022020	153734	91.43	12.418765	-56.999562	91.49	0.120	0.810	1.180	91.41	-0.60	1.60	 	 	 	 	 	 	 	 	 	 	 	 	 	 	 	 	 	 	1581521854	7.98	14.78
12/02/2020 15:37:35	120220	12022020	153735	91.31	12.418767	-56.999522	91.38	-0.150	0.890	1.050	91.30	-0.50	1.50	 	 	 	 	 	 	 	 	 	 	 	 	 	 	 	 	 	 	1581521855	8.55	15.83
12/02/2020 15:37:36	120220	12022020	153736	91.34	12.418768	-56.999480	91.45	-0.560	0.420	0.890	91.38	-0.90	1.30	 	 	 	 	 	 	 	 	 	 	 	 	 	 	 	 	 	 	1581521856	8.74	16.19
12/02/2020 15:37:37	120220	12022020	153737	91.56	12.418768	-56.999437	91.67	-0.690	-0.610	0.820	91.60	-1.90	1.30	 	 	 	 	 	 	 	 	 	 	 	 	 	 	 	 	 	 	1581521857	9.13	16.91
12/02/2020 15:37:38	120220	12022020	153738	91.56	12.418768	-56.999392	91.61	-0.210	-1.820	0.960	91.51	-3.10	1.40	 	 	 	 	 	 	 	 	 	 	 	 	 	 	 	 	 	 	1581521858	9.72	18.00
12/02/2020 15:37:39	120220	12022020	153739	91.27	12.418765	-56.999343	91.32	0.540	-2.080	1.280	91.21	-3.40	1.70	 	 	 	 	 	 	 	 	 	 	 	 	 	 	 	 	 	 	1581521859	9.96	18.45
12/02/2020 15:37:40	120220	12022020	153740	91.06	12.418763	-56.999302	91.15	0.910	-0.900	1.590	91.04	-2.30	2.00	 	 	 	 	 	 	 	 	 	 	 	 	 	 	 	 	 	 	1581521860	8.87	16.43
12/02/2020 15:37:41	120220	12022020	153741	90.99	12.418763	-56.999267	91.08	0.630	0.650	1.590	90.98	-0.80	2.00	 	 	 	 	 	 	 	 	 	 	 	 	 	 	 	 	 	 	1581521861	7.69	14.24
12/02/2020 15:37:42	120220	12022020	153742	90.99	12.418765	-56.999230	91.09	-0.080	1.400	1.200	91.02	0.00	1.70	 	 	 	 	 	 	 	 	 	 	 	 	 	 	 	 	 	 	1581521862	7.76	14.37
12/02/2020 15:37:43	120220	12022020	153743	91.22	12.418768	-56.999188	91.36	-0.690	1.070	0.680	91.30	-0.20	1.10	 	 	 	 	 	 	 	 	 	 	 	 	 	 	 	 	 	 	1581521863	8.59	15.91
12/02/2020 15:37:44	120220	12022020	153744	91.60	12.418772	-56.999145	91.74	-0.770	0.170	0.310	91.67	-1.10	0.80	 	 	 	 	 	 	 	 	 	 	 	 	 	 	 	 	 	 	1581521864	9.29	17.21
12/02/2020 15:37:45	120220	12022020	153745	91.77	12.418772	-56.999100	91.85	-0.420	-0.740	0.380	91.75	-2.00	0.80	 	 	 	 	 	 	 	 	 	 	 	 	 	 	 	 	 	 	1581521865	9.51	17.61
12/02/2020 15:37:46	120220	12022020	153746	91.52	12.418770	-56.999055	91.54	0.050	-1.400	0.910	91.43	-2.70	1.30	 	 	 	 	 	 	 	 	 	 	 	 	 	 	 	 	 	 	1581521866	9.43	17.46
12/02/2020 15:37:47	120220	12022020	153747	91.10	12.418765	-56.999012	91.14	0.360	-1.550	1.580	91.02	-2.90	2.00	 	 	 	 	 	 	 	 	 	 	 	 	 	 	 	 	 	 	1581521867	9.33	17.28
12/02/2020 15:37:48	120220	12022020	153748	90.78	12.418763	-56.998970	90.87	0.430	-1.000	1.980	90.75	-2.40	2.40	 	 	 	 	 	 	 	 	 	 	 	 	 	 	 	 	 	 	1581521868	8.91	16.50
12/02/2020 15:37:49	120220	12022020	153749	90.73	12.418763	-56.998930	90.84	0.300	-0.080	1.690	90.75	-1.50	2.10	 	 	 	 	 	 	 	 	 	 	 	 	 	 	 	 	 	 	1581521869	8.38	15.52
12/02/2020 15:37:50	120220	12022020	153750	90.90	12.418767	-56.998890	91.02	0.080	0.520	1.070	90.95	-0.80	1.50	 	 	 	 	 	 	 	 	 	 	 	 	 	 	 	 	 	 	1581521870	8.38	15.52
12/02/2020 15:37:51	120220	12022020	153751	91.15	12.418770	-56.998848	91.36	-0.070	0.500	0.730	91.22	-0.80	1.20	 	 	 	 	 	 	 	 	 	 	 	 	 	 	 	 	 	 	1581521871	8.83	16.35
12/02/2020 15:37:52	120220	12022020	153752	91.57	12.418770	-56.998805	91.68	-0.210	0.140	0.670	91.61	-1.20	1.10	 	 	 	 	 	 	 	 	 	 	 	 	 	 	 	 	 	 	1581521872	9.28	17.19
12/02/2020 15:37:53	120220	12022020	153753	91.60	12.418768	-56.998762	91.60	-0.340	-0.100	0.900	91.57	-1.40	1.30	 	 	 	 	 	 	 	 	 	 	 	 	 	 	 	 	 	 	1581521873	9.27	17.17
12/02/2020 15:37:54	120220	12022020	153754	91.14	12.418767	-56.998718	91.14	-0.300	-0.200	1.260	91.06	-1.50	1.70	 	 	 	 	 	 	 	 	 	 	 	 	 	 	 	 	 	 	1581521874	8.96	16.59
12/02/2020 15:37:55	120220	12022020	153755	90.84	12.418767	-56.998677	90.90	0.010	-0.580	1.280	90.83	-1.90	1.70	 	 	 	 	 	 	 	 	 	 	 	 	 	 	 	 	 	 	1581521875	9.01	16.69
12/02/2020 15:37:56	120220	12022020	153756	91.01	12.418772	-56.998630	91.14	0.430	-1.270	0.990	91.09	-2.50	1.40	 	 	 	 	 	 	 	 	 	 	 	 	 	 	 	 	 	 	1581521876	9.59	17.76
12/02/2020 15:37:57	120220	12022020	153757	91.41	12.418775	-56.998583	91.54	0.620	-1.400	0.720	91.48	-2.70	1.20	 	 	 	 	 	 	 	 	 	 	 	 	 	 	 	 	 	 	1581521877	9.86	18.26
12/02/2020 15:37:58	120220	12022020	153758	91.68	12.418775	-56.998542	91.76	0.320	-0.270	0.730	91.70	-1.70	1.10	 	 	 	 	 	 	 	 	 	 	 	 	 	 	 	 	 	 	1581521878	8.99	16.65
12/02/2020 15:37:59	120220	12022020	153759	91.69	12.418773	-56.998505	91.75	-0.330	1.100	1.090	91.67	-0.30	1.50	 	 	 	 	 	 	 	 	 	 	 	 	 	 	 	 	 	 	1581521879	7.69	14.24
12/02/2020 15:38:00	120220	12022020	153800	91.56	12.418770	-56.998468	91.63	-0.730	1.080	1.590	91.54	-0.20	2.00	 	 	 	 	 	 	 	 	 	 	 	 	 	 	 	 	 	 	1581521880	7.98	14.78
12/02/2020 15:38:01	120220	12022020	153801	91.58	12.418768	-56.998422	91.70	-0.480	-0.320	1.580	91.62	-1.60	2.00	 	 	 	 	 	 	 	 	 	 	 	 	 	 	 	 	 	 	1581521881	9.70	17.96
12/02/2020 15:38:02	120220	12022020	153802	91.79	12.418768	-56.998372	91.89	-0.010	-1.320	1.140	91.82	-2.60	1.60	1016.80	26.70	26.70	19.90	20.00	599.0	66.0	66.0	437.0	28.5	349.00	16.20	75.00	11.80	50508	8488.0	27.5	27.4	1581521882	10.66	19.74
12/02/2020 15:38:03	120220	12022020	153803	91.90	12.418772	-56.998327	91.97	0.070	-0.840	0.860	91.89	-2.20	1.30	 	 	 	 	 	 	 	 	 	 	 	 	 	 	 	 	 	 	1581521883	9.52	17.63
12/02/2020 15:38:04	120220	12022020	153804	91.76	12.418773	-56.998288	91.80	-0.140	0.020	0.840	91.72	-1.40	1.30	 	 	 	 	 	 	 	 	 	 	 	 	 	 	 	 	 	 	1581521884	8.05	14.91
12/02/2020 15:38:05	120220	12022020	153805	91.64	12.418773	-56.998250	91.69	-0.020	-0.040	0.710	91.64	-1.40	1.20	 	 	 	 	 	 	 	 	 	 	 	 	 	 	 	 	 	 	1581521885	8.33	15.43
12/02/2020 15:38:06	120220	12022020	153806	91.76	12.418775	-56.998203	91.84	0.550	-0.640	0.250	91.81	-2.00	0.70	 	 	 	 	 	 	 	 	 	 	 	 	 	 	 	 	 	 	1581521886	9.66	17.89
12/02/2020 15:38:07	120220	12022020	153807	92.12	12.418780	-56.998157	92.21	0.870	-0.600	-0.330	92.19	-2.00	0.10	 	 	 	 	 	 	 	 	 	 	 	 	 	 	 	 	 	 	1581521887	9.89	18.32
12/02/2020 15:38:08	120220	12022020	153808	92.36	12.418783	-56.998115	92.38	0.430	0.140	-0.380	92.35	-1.30	0.00	 	 	 	 	 	 	 	 	 	 	 	 	 	 	 	 	 	 	1581521888	8.85	16.39
12/02/2020 15:38:09	120220	12022020	153809	92.12	12.418782	-56.998077	92.08	-0.440	0.640	0.300	92.02	-0.70	0.70	 	 	 	 	 	 	 	 	 	 	 	 	 	 	 	 	 	 	1581521889	8.11	15.02
12/02/2020 15:38:10	120220	12022020	153810	91.54	12.418777	-56.998037	91.53	-0.920	0.230	1.190	91.43	-1.10	1.60	 	 	 	 	 	 	 	 	 	 	 	 	 	 	 	 	 	 	1581521890	8.64	16.00
12/02/2020 15:38:11	120220	12022020	153811	91.18	12.418773	-56.997990	91.26	-0.680	-0.740	1.770	91.17	-2.00	2.20	 	 	 	 	 	 	 	 	 	 	 	 	 	 	 	 	 	 	1581521891	9.65	17.87
12/02/2020 15:38:12	120220	12022020	153812	91.27	12.418772	-56.997943	91.41	-0.040	-1.430	1.880	91.31	-2.80	2.30	 	 	 	 	 	 	 	 	 	 	 	 	 	 	 	 	 	 	1581521892	10.12	18.74
12/02/2020 15:38:13	120220	12022020	153813	91.51	12.418770	-56.997898	91.63	0.400	-1.120	1.570	91.54	-2.50	2.00	 	 	 	 	 	 	 	 	 	 	 	 	 	 	 	 	 	 	1581521893	9.57	17.72
12/02/2020 15:38:14	120220	12022020	153814	91.60	12.418770	-56.997857	91.67	0.450	-0.180	1.310	91.59	-1.60	1.70	 	 	 	 	 	 	 	 	 	 	 	 	 	 	 	 	 	 	1581521894	8.56	15.85
12/02/2020 15:38:15	120220	12022020	153815	91.54	12.418772	-56.997818	91.58	0.260	0.540	1.290	91.53	-0.90	1.70	 	 	 	 	 	 	 	 	 	 	 	 	 	 	 	 	 	 	1581521895	8.25	15.28
12/02/2020 15:38:16	120220	12022020	153816	91.34	12.418773	-56.997777	91.38	-0.100	0.590	1.360	91.29	-0.80	1.80	 	 	 	 	 	 	 	 	 	 	 	 	 	 	 	 	 	 	1581521896	8.69	16.09
12/02/2020 15:38:17	120220	12022020	153817	91.14	12.418773	-56.997733	91.22	-0.440	0.090	1.230	91.13	-1.20	1.70	 	 	 	 	 	 	 	 	 	 	 	 	 	 	 	 	 	 	1581521897	9.29	17.21
12/02/2020 15:38:18	120220	12022020	153818	91.21	12.418773	-56.997688	91.32	-0.530	-0.310	0.990	91.25	-1.70	1.40	 	 	 	 	 	 	 	 	 	 	 	 	 	 	 	 	 	 	1581521898	9.54	17.67
12/02/2020 15:38:19	120220	12022020	153819	91.44	12.418772	-56.997645	91.54	-0.210	-0.300	0.740	91.49	-1.70	1.20	 	 	 	 	 	 	 	 	 	 	 	 	 	 	 	 	 	 	1581521899	9.11	16.87
12/02/2020 15:38:20	120220	12022020	153820	91.64	12.418775	-56.997603	91.72	0.410	-0.530	0.340	91.65	-1.90	0.80	 	 	 	 	 	 	 	 	 	 	 	 	 	 	 	 	 	 	1581521900	8.84	16.37
12/02/2020 15:38:21	120220	12022020	153821	91.59	12.418778	-56.997558	91.64	1.010	-1.270	0.310	91.56	-2.60	0.70	 	 	 	 	 	 	 	 	 	 	 	 	 	 	 	 	 	 	1581521901	9.57	17.72
12/02/2020 15:38:22	120220	12022020	153822	91.35	12.418780	-56.997510	91.41	1.110	-1.520	0.990	91.31	-2.90	1.40	 	 	 	 	 	 	 	 	 	 	 	 	 	 	 	 	 	 	1581521902	10.14	18.78
12/02/2020 15:38:23	120220	12022020	153823	91.19	12.418778	-56.997467	91.28	0.320	-0.260	1.650	91.18	-1.70	2.00	 	 	 	 	 	 	 	 	 	 	 	 	 	 	 	 	 	 	1581521903	9.17	16.98
12/02/2020 15:38:24	120220	12022020	153824	91.26	12.418775	-56.997432	91.41	-0.940	1.460	1.990	91.31	0.00	2.40	 	 	 	 	 	 	 	 	 	 	 	 	 	 	 	 	 	 	1581521904	7.47	13.83
12/02/2020 15:38:25	120220	12022020	153825	91.68	12.418772	-56.997397	91.89	-1.650	1.690	2.010	91.80	0.40	2.40	 	 	 	 	 	 	 	 	 	 	 	 	 	 	 	 	 	 	1581521905	7.47	13.83
12/02/2020 15:38:26	120220	12022020	153826	92.26	12.418768	-56.997352	92.43	-1.000	-0.190	1.590	92.34	-1.40	2.00	 	 	 	 	 	 	 	 	 	 	 	 	 	 	 	 	 	 	1581521906	9.47	17.54
12/02/2020 15:38:27	120220	12022020	153827	92.29	12.418767	-56.997298	92.34	0.340	-2.050	1.360	92.22	-3.40	1.80	 	 	 	 	 	 	 	 	 	 	 	 	 	 	 	 	 	 	1581521907	11.34	21.00
12/02/2020 15:38:28	120220	12022020	153828	91.87	12.418767	-56.997248	91.91	1.030	-1.780	1.280	91.79	-3.20	1.70	 	 	 	 	 	 	 	 	 	 	 	 	 	 	 	 	 	 	1581521908	10.41	19.28
12/02/2020 15:38:29	120220	12022020	153829	91.56	12.418768	-56.997212	91.57	0.630	0.160	0.930	91.52	-1.30	1.40	 	 	 	 	 	 	 	 	 	 	 	 	 	 	 	 	 	 	1581521909	7.92	14.67
12/02/2020 15:38:30	120220	12022020	153830	91.52	12.418773	-56.997180	91.60	-0.160	1.480	0.120	91.54	0.10	0.60	 	 	 	 	 	 	 	 	 	 	 	 	 	 	 	 	 	 	1581521910	6.81	12.61
12/02/2020 15:38:31	120220	12022020	153831	91.63	12.418780	-56.997142	91.70	-0.400	0.740	-0.510	91.63	-0.50	-0.10	 	 	 	 	 	 	 	 	 	 	 	 	 	 	 	 	 	 	1581521911	8.28	15.33
12/02/2020 15:38:32	120220	12022020	153832	91.65	12.418783	-56.997092	91.71	0.020	-0.990	-0.700	91.66	-2.30	-0.30	 	 	 	 	 	 	 	 	 	 	 	 	 	 	 	 	 	 	1581521912	10.29	19.06
12/02/2020 15:38:33	120220	12022020	153833	91.66	12.418783	-56.997043	91.72	0.550	-1.570	-0.460	91.65	-2.90	-0.10	 	 	 	 	 	 	 	 	 	 	 	 	 	 	 	 	 	 	1581521913	10.56	19.56
12/02/2020 15:38:34	120220	12022020	153834	91.52	12.418780	-56.997000	91.56	0.560	-0.740	0.340	91.47	-2.20	0.70	 	 	 	 	 	 	 	 	 	 	 	 	 	 	 	 	 	 	1581521914	8.87	16.43
12/02/2020 15:38:35	120220	12022020	153835	91.24	12.418777	-56.996963	91.29	0.170	-0.010	1.360	91.19	-1.40	1.70	 	 	 	 	 	 	 	 	 	 	 	 	 	 	 	 	 	 	1581521915	7.96	14.74
12/02/2020 15:38:36	120220	12022020	153836	91.16	12.418772	-56.996923	91.28	-0.280	0.180	2.010	91.19	-1.20	2.40	 	 	 	 	 	 	 	 	 	 	 	 	 	 	 	 	 	 	1581521916	8.60	15.93
12/02/2020 15:38:37	120220	12022020	153837	91.39	12.418768	-56.996882	91.56	-0.700	0.500	2.420	91.45	-0.90	2.80	 	 	 	 	 	 	 	 	 	 	 	 	 	 	 	 	 	 	1581521917	8.81	16.32
12/02/2020 15:38:38	120220	12022020	153838	91.59	12.418765	-56.996842	91.72	-0.890	0.520	2.690	91.60	-0.80	3.10	 	 	 	 	 	 	 	 	 	 	 	 	 	 	 	 	 	 	1581521918	8.43	15.61
12/02/2020 15:38:39	120220	12022020	153839	91.52	12.418762	-56.996798	91.60	-0.460	-0.370	2.720	91.47	-1.70	3.10	 	 	 	 	 	 	 	 	 	 	 	 	 	 	 	 	 	 	1581521919	8.98	16.63
12/02/2020 15:38:40	120220	12022020	153840	91.26	12.418763	-56.996752	91.35	0.500	-1.550	2.380	91.24	-2.90	2.80	 	 	 	 	 	 	 	 	 	 	 	 	 	 	 	 	 	 	1581521920	10.04	18.59
12/02/2020 15:38:41	120220	12022020	153841	91.32	12.418767	-56.996703	91.54	1.290	-1.840	1.530	91.38	-3.20	2.00	 	 	 	 	 	 	 	 	 	 	 	 	 	 	 	 	 	 	1581521921	10.27	19.02
12/02/2020 15:38:42	120220	12022020	153842	91.89	12.418773	-56.996660	92.05	1.120	-0.650	0.570	92.01	-2.10	1.00	 	 	 	 	 	 	 	 	 	 	 	 	 	 	 	 	 	 	1581521922	9.19	17.02
12/02/2020 15:38:43	120220	12022020	153843	92.34	12.418778	-56.996625	92.55	0.010	1.160	-0.170	92.44	-0.30	0.30	 	 	 	 	 	 	 	 	 	 	 	 	 	 	 	 	 	 	1581521923	7.60	14.08
12/02/2020 15:38:44	120220	12022020	153844	92.69	12.418782	-56.996592	92.74	-1.190	2.000	-0.410	92.69	0.60	0.00	 	 	 	 	 	 	 	 	 	 	 	 	 	 	 	 	 	 	1581521924	7.12	13.19
12/02/2020 15:38:45	120220	12022020	153845	92.48	12.418778	-56.996552	92.50	-1.390	0.960	-0.180	92.41	-0.30	0.20	 	 	 	 	 	 	 	 	 	 	 	 	 	 	 	 	 	 	1581521925	8.36	15.48
12/02/2020 15:38:46	120220	12022020	153846	92.20	12.418775	-56.996503	92.27	-0.450	-1.060	-0.050	92.19	-2.30	0.40	 	 	 	 	 	 	 	 	 	 	 	 	 	 	 	 	 	 	1581521926	10.24	18.96
12/02/2020 15:38:47	120220	12022020	153847	92.24	12.418775	-56.996453	92.35	0.630	-2.120	-0.110	92.27	-3.50	0.30	 	 	 	 	 	 	 	 	 	 	 	 	 	 	 	 	 	 	1581521927	10.65	19.72
12/02/2020 15:38:48	120220	12022020	153848	92.43	12.418777	-56.996410	92.53	0.930	-1.480	-0.170	92.46	-2.90	0.30	 	 	 	 	 	 	 	 	 	 	 	 	 	 	 	 	 	 	1581521928	9.19	17.02
12/02/2020 15:38:49	120220	12022020	153849	92.49	12.418777	-56.996373	92.56	0.510	-0.170	0.070	92.48	-1.60	0.50	 	 	 	 	 	 	 	 	 	 	 	 	 	 	 	 	 	 	1581521929	7.65	14.17
12/02/2020 15:38:50	120220	12022020	153850	92.36	12.418775	-56.996337	92.44	0.110	0.280	0.610	92.34	-1.10	1.00	 	 	 	 	 	 	 	 	 	 	 	 	 	 	 	 	 	 	1581521930	7.73	14.32
12/02/2020 15:38:51	120220	12022020	153851	92.34	12.418772	-56.996293	92.43	0.120	-0.180	1.070	92.33	-1.50	1.50	 	 	 	 	 	 	 	 	 	 	 	 	 	 	 	 	 	 	1581521931	9.19	17.02
12/02/2020 15:38:52	120220	12022020	153852	92.29	12.418767	-56.996248	92.37	0.200	-0.310	1.340	92.28	-1.70	1.70	 	 	 	 	 	 	 	 	 	 	 	 	 	 	 	 	 	 	1581521932	9.74	18.04
12/02/2020 15:38:53	120220	12022020	153853	92.23	12.418765	-56.996207	92.31	-0.080	0.390	1.380	92.22	-1.00	1.80	 	 	 	 	 	 	 	 	 	 	 	 	 	 	 	 	 	 	1581521933	8.82	16.33
12/02/2020 15:38:54	120220	12022020	153854	92.26	12.418765	-56.996170	92.38	-0.650	1.180	1.350	92.28	-0.20	1.80	 	 	 	 	 	 	 	 	 	 	 	 	 	 	 	 	 	 	1581521934	7.74	14.33
12/02/2020 15:38:55	120220	12022020	153855	92.41	12.418765	-56.996132	92.53	-0.950	0.800	1.080	92.43	-0.50	1.50	 	 	 	 	 	 	 	 	 	 	 	 	 	 	 	 	 	 	1581521935	7.87	14.58
12/02/2020 15:38:56	120220	12022020	153856	92.39	12.418763	-56.996088	92.45	-0.430	-0.970	0.900	92.34	-2.20	1.30	 	 	 	 	 	 	 	 	 	 	 	 	 	 	 	 	 	 	1581521936	9.35	17.32
12/02/2020 15:38:57	120220	12022020	153857	91.97	12.418762	-56.996037	91.98	0.620	-2.480	1.100	91.85	-3.80	1.50	 	 	 	 	 	 	 	 	 	 	 	 	 	 	 	 	 	 	1581521937	10.68	19.78
12/02/2020 15:38:58	120220	12022020	153858	91.37	12.418762	-56.995990	91.40	1.200	-2.070	1.310	91.27	-3.50	1.70	 	 	 	 	 	 	 	 	 	 	 	 	 	 	 	 	 	 	1581521938	9.96	18.45
12/02/2020 15:38:59	120220	12022020	153859	91.04	12.418763	-56.995952	91.15	0.860	-0.310	1.300	91.04	-1.80	1.70	 	 	 	 	 	 	 	 	 	 	 	 	 	 	 	 	 	 	1581521939	8.02	14.85
12/02/2020 15:39:00	120220	12022020	153900	91.23	12.418765	-56.995918	91.40	0.110	1.110	1.060	91.31	-0.30	1.50	 	 	 	 	 	 	 	 	 	 	 	 	 	 	 	 	 	 	1581521940	7.22	13.37
12/02/2020 15:39:01	120220	12022020	153901	91.67	12.418767	-56.995880	91.85	-0.440	1.260	0.800	91.76	-0.10	1.20	 	 	 	 	 	 	 	 	 	 	 	 	 	 	 	 	 	 	1581521941	8.09	14.98
12/02/2020 15:39:02	120220	12022020	153902	92.16	12.418767	-56.995837	92.31	-0.760	0.830	0.610	92.23	-0.50	1.00	1016.70	26.70	26.70	20.20	20.30	676.0	67.0	67.0	437.0	28.5	350.00	16.10	78.00	11.60	54843	13042.0	27.4	27.4	1581521942	9.11	16.87
12/02/2020 15:39:03	120220	12022020	153903	92.32	12.418763	-56.995795	92.39	-0.900	0.300	1.010	92.29	-1.00	1.40	 	 	 	 	 	 	 	 	 	 	 	 	 	 	 	 	 	 	1581521943	8.99	16.65
12/02/2020 15:39:04	120220	12022020	153904	91.96	12.418757	-56.995753	91.98	-0.520	-0.580	1.750	91.84	-1.90	2.10	 	 	 	 	 	 	 	 	 	 	 	 	 	 	 	 	 	 	1581521944	8.95	16.58
12/02/2020 15:39:05	120220	12022020	153905	91.51	12.418753	-56.995708	91.45	0.440	-1.740	2.160	91.41	-3.00	2.60	 	 	 	 	 	 	 	 	 	 	 	 	 	 	 	 	 	 	1581521945	9.55	17.69
12/02/2020 15:39:06	120220	12022020	153906	91.10	12.418753	-56.995660	91.20	1.310	-2.240	2.050	91.09	-3.60	2.50	 	 	 	 	 	 	 	 	 	 	 	 	 	 	 	 	 	 	1581521946	9.98	18.48
12/02/2020 15:39:07	120220	12022020	153907	91.19	12.418758	-56.995617	91.34	1.320	-1.310	1.450	91.26	-2.80	1.90	 	 	 	 	 	 	 	 	 	 	 	 	 	 	 	 	 	 	1581521947	9.27	17.17
12/02/2020 15:39:08	120220	12022020	153908	91.62	12.418763	-56.995580	91.77	0.390	0.560	0.750	91.71	-0.90	1.20	 	 	 	 	 	 	 	 	 	 	 	 	 	 	 	 	 	 	1581521948	7.85	14.54
12/02/2020 15:39:09	120220	12022020	153909	92.06	12.418767	-56.995547	92.18	-0.780	1.930	0.440	92.10	0.50	0.90	 	 	 	 	 	 	 	 	 	 	 	 	 	 	 	 	 	 	1581521949	7.05	13.06
12/02/2020 15:39:10	120220	12022020	153910	92.21	12.418765	-56.995510	92.32	-1.300	1.660	0.690	92.22	0.40	1.10	 	 	 	 	 	 	 	 	 	 	 	 	 	 	 	 	 	 	1581521950	7.80	14.45
12/02/2020 15:39:11	120220	12022020	153911	92.18	12.418760	-56.995465	92.27	-0.880	-0.090	0.960	92.15	-1.30	1.40	 	 	 	 	 	 	 	 	 	 	 	 	 	 	 	 	 	 	1581521951	9.53	17.65
12/02/2020 15:39:12	120220	12022020	153912	91.95	12.418757	-56.995415	92.00	-0.010	-1.790	1.280	91.88	-3.10	1.70	 	 	 	 	 	 	 	 	 	 	 	 	 	 	 	 	 	 	1581521952	10.67	19.76
12/02/2020 15:39:13	120220	12022020	153913	91.68	12.418753	-56.995368	91.75	0.510	-1.780	1.510	91.64	-3.20	1.90	 	 	 	 	 	 	 	 	 	 	 	 	 	 	 	 	 	 	1581521953	9.98	18.48
12/02/2020 15:39:14	120220	12022020	153914	91.57	12.418752	-56.995330	91.65	0.410	-0.390	1.400	91.56	-1.90	1.80	 	 	 	 	 	 	 	 	 	 	 	 	 	 	 	 	 	 	1581521954	7.95	14.72
12/02/2020 15:39:15	120220	12022020	153915	91.59	12.418753	-56.995297	91.67	0.130	0.520	0.950	91.59	-0.90	1.40	 	 	 	 	 	 	 	 	 	 	 	 	 	 	 	 	 	 	1581521955	7.18	13.30
12/02/2020 15:39:16	120220	12022020	153916	91.51	12.418757	-56.995257	91.54	0.250	-0.010	0.490	91.46	-1.40	0.90	 	 	 	 	 	 	 	 	 	 	 	 	 	 	 	 	 	 	1581521956	8.54	15.82
12/02/2020 15:39:17	120220	12022020	153917	91.24	12.418760	-56.995208	91.28	0.540	-0.850	0.360	91.20	-2.20	0.80	 	 	 	 	 	 	 	 	 	 	 	 	 	 	 	 	 	 	1581521957	9.98	18.48
12/02/2020 15:39:18	120220	12022020	153918	91.15	12.418762	-56.995163	91.26	0.470	-0.680	0.510	91.18	-2.10	0.90	 	 	 	 	 	 	 	 	 	 	 	 	 	 	 	 	 	 	1581521958	9.69	17.95
12/02/2020 15:39:19	120220	12022020	153919	91.34	12.418762	-56.995123	91.56	-0.150	0.320	0.790	91.41	-1.10	1.20	 	 	 	 	 	 	 	 	 	 	 	 	 	 	 	 	 	 	1581521959	8.32	15.41
12/02/2020 15:39:20	120220	12022020	153920	91.84	12.418758	-56.995088	91.99	-0.920	1.020	1.060	91.91	-0.40	1.50	 	 	 	 	 	 	 	 	 	 	 	 	 	 	 	 	 	 	1581521960	7.62	14.11
12/02/2020 15:39:21	120220	12022020	153921	92.02	12.418753	-56.995050	92.11	-1.160	0.600	1.440	92.02	-0.70	1.80	 	 	 	 	 	 	 	 	 	 	 	 	 	 	 	 	 	 	1581521961	8.20	15.19
12/02/2020 15:39:22	120220	12022020	153922	91.73	12.418747	-56.995005	91.79	-0.540	-0.660	1.960	91.64	-2.00	2.30	 	 	 	 	 	 	 	 	 	 	 	 	 	 	 	 	 	 	1581521962	9.44	17.48
12/02/2020 15:39:23	120220	12022020	153923	91.22	12.418743	-56.994958	91.26	0.510	-1.650	2.190	91.12	-3.00	2.60	 	 	 	 	 	 	 	 	 	 	 	 	 	 	 	 	 	 	1581521963	10.06	18.63
12/02/2020 15:39:24	120220	12022020	153924	90.78	12.418745	-56.994912	90.85	1.220	-1.680	2.050	90.71	-3.10	2.50	 	 	 	 	 	 	 	 	 	 	 	 	 	 	 	 	 	 	1581521964	9.65	17.87
12/02/2020 15:39:25	120220	12022020	153925	90.68	12.418748	-56.994870	90.82	1.150	-0.900	1.520	90.73	-2.40	2.00	 	 	 	 	 	 	 	 	 	 	 	 	 	 	 	 	 	 	1581521965	8.88	16.45
12/02/2020 15:39:26	120220	12022020	153926	91.05	12.418755	-56.994832	91.21	0.450	0.160	0.670	91.14	-1.30	1.10	 	 	 	 	 	 	 	 	 	 	 	 	 	 	 	 	 	 	1581521966	8.38	15.52
12/02/2020 15:39:27	120220	12022020	153927	91.38	12.418758	-56.994793	91.47	-0.460	1.180	0.340	91.38	-0.30	0.80	 	 	 	 	 	 	 	 	 	 	 	 	 	 	 	 	 	 	1581521967	8.04	14.89
12/02/2020 15:39:28	120220	12022020	153928	91.21	12.418758	-56.994757	91.25	-1.080	1.600	0.720	91.13	0.20	1.10	 	 	 	 	 	 	 	 	 	 	 	 	 	 	 	 	 	 	1581521968	7.87	14.58
12/02/2020 15:39:29	120220	12022020	153929	90.82	12.418755	-56.994717	90.89	-1.000	0.700	1.150	90.76	-0.60	1.60	 	 	 	 	 	 	 	 	 	 	 	 	 	 	 	 	 	 	1581521969	8.48	15.70
12/02/2020 15:39:30	120220	12022020	153930	90.65	12.418753	-56.994670	90.77	-0.120	-1.370	1.280	90.65	-2.60	1.70	 	 	 	 	 	 	 	 	 	 	 	 	 	 	 	 	 	 	1581521970	9.94	18.41
12/02/2020 15:39:31	120220	12022020	153931	90.64	12.418753	-56.994618	90.73	0.850	-2.820	1.340	90.63	-4.20	1.70	 	 	 	 	 	 	 	 	 	 	 	 	 	 	 	 	 	 	1581521971	10.94	20.26
12/02/2020 15:39:32	120220	12022020	153932	90.56	12.418752	-56.994572	90.64	0.930	-1.920	1.600	90.53	-3.40	2.00	 	 	 	 	 	 	 	 	 	 	 	 	 	 	 	 	 	 	1581521972	9.77	18.09
12/02/2020 15:39:33	120220	12022020	153933	90.43	12.418750	-56.994537	90.45	0.030	0.590	1.830	90.38	-1.00	2.20	 	 	 	 	 	 	 	 	 	 	 	 	 	 	 	 	 	 	1581521973	7.19	13.32
12/02/2020 15:39:34	120220	12022020	153934	90.14	12.418750	-56.994508	90.22	-1.010	2.480	1.720	90.10	1.00	2.20	 	 	 	 	 	 	 	 	 	 	 	 	 	 	 	 	 	 	1581521974	6.00	11.11
12/02/2020 15:39:35	120220	12022020	153935	90.12	12.418753	-56.994475	90.25	-1.200	2.050	1.020	90.15	0.70	1.50	 	 	 	 	 	 	 	 	 	 	 	 	 	 	 	 	 	 	1581521975	7.19	13.32
12/02/2020 15:39:36	120220	12022020	153936	90.44	12.418760	-56.994430	90.59	-0.380	-0.320	-0.060	90.51	-1.60	0.40	 	 	 	 	 	 	 	 	 	 	 	 	 	 	 	 	 	 	1581521976	9.67	17.91
12/02/2020 15:39:37	120220	12022020	153937	90.61	12.418767	-56.994378	90.67	0.690	-2.530	-0.590	90.57	-3.80	-0.20	 	 	 	 	 	 	 	 	 	 	 	 	 	 	 	 	 	 	1581521977	11.02	20.41
12/02/2020 15:39:38	120220	12022020	153938	90.19	12.418768	-56.994330	90.18	1.100	-2.790	-0.270	90.07	-4.20	0.10	 	 	 	 	 	 	 	 	 	 	 	 	 	 	 	 	 	 	1581521978	10.11	18.72
12/02/2020 15:39:39	120220	12022020	153939	89.60	12.418768	-56.994293	89.61	0.720	-1.030	0.300	89.51	-2.60	0.70	 	 	 	 	 	 	 	 	 	 	 	 	 	 	 	 	 	 	1581521979	7.97	14.76
12/02/2020 15:39:40	120220	12022020	153940	89.40	12.418770	-56.994262	89.51	0.070	0.920	0.650	89.43	-0.60	1.10	 	 	 	 	 	 	 	 	 	 	 	 	 	 	 	 	 	 	1581521980	6.47	11.98
12/02/2020 15:39:41	120220	12022020	153941	89.68	12.418772	-56.994228	89.83	-0.350	1.300	0.780	89.75	-0.10	1.20	 	 	 	 	 	 	 	 	 	 	 	 	 	 	 	 	 	 	1581521981	7.19	13.32
12/02/2020 15:39:42	120220	12022020	153942	89.91	12.418772	-56.994185	90.03	-0.470	0.410	1.040	89.91	-0.90	1.40	 	 	 	 	 	 	 	 	 	 	 	 	 	 	 	 	 	 	1581521982	8.98	16.63
12/02/2020 15:39:43	120220	12022020	153943	89.86	12.418768	-56.994140	89.97	-0.620	-0.090	1.530	89.84	-1.50	1.90	 	 	 	 	 	 	 	 	 	 	 	 	 	 	 	 	 	 	1581521983	9.54	17.67
12/02/2020 15:39:44	120220	12022020	153944	89.85	12.418767	-56.994102	90.00	-0.890	0.330	1.960	89.89	-1.10	2.30	 	 	 	 	 	 	 	 	 	 	 	 	 	 	 	 	 	 	1581521984	8.29	15.35
12/02/2020 15:39:45	120220	12022020	153945	90.10	12.418765	-56.994068	90.30	-0.870	0.600	1.920	90.18	-0.80	2.30	 	 	 	 	 	 	 	 	 	 	 	 	 	 	 	 	 	 	1581521985	7.15	13.24
12/02/2020 15:39:46	120220	12022020	153946	90.43	12.418767	-56.994032	90.58	-0.110	-0.400	1.500	90.45	-1.70	1.90	 	 	 	 	 	 	 	 	 	 	 	 	 	 	 	 	 	 	1581521986	7.79	14.43
12/02/2020 15:39:47	120220	12022020	153947	90.31	12.418770	-56.993987	90.38	1.050	-1.920	1.350	90.24	-3.20	1.80	 	 	 	 	 	 	 	 	 	 	 	 	 	 	 	 	 	 	1581521987	9.41	17.43
12/02/2020 15:39:48	120220	12022020	153948	89.87	12.418775	-56.993942	89.91	1.710	-2.380	1.390	89.79	-3.80	1.80	 	 	 	 	 	 	 	 	 	 	 	 	 	 	 	 	 	 	1581521988	9.70	17.96
12/02/2020 15:39:49	120220	12022020	153949	89.59	12.418780	-56.993902	89.68	1.380	-1.350	1.470	89.59	-2.80	1.90	 	 	 	 	 	 	 	 	 	 	 	 	 	 	 	 	 	 	1581521989	8.51	15.76
12/02/2020 15:39:50	120220	12022020	153950	89.85	12.418783	-56.993867	90.05	0.350	0.360	1.430	89.97	-1.20	1.90	 	 	 	 	 	 	 	 	 	 	 	 	 	 	 	 	 	 	1581521990	7.24	13.41
12/02/2020 15:39:51	120220	12022020	153951	90.62	12.418787	-56.993835	90.86	-0.790	1.840	0.990	90.79	0.40	1.40	 	 	 	 	 	 	 	 	 	 	 	 	 	 	 	 	 	 	1581521991	6.72	12.45
12/02/2020 15:39:52	120220	12022020	153952	91.29	12.418788	-56.993803	91.43	-1.470	2.150	0.510	91.36	0.80	0.90	 	 	 	 	 	 	 	 	 	 	 	 	 	 	 	 	 	 	1581521992	6.91	12.80
12/02/2020 15:39:53	120220	12022020	153953	91.43	12.418788	-56.993763	91.52	-1.260	0.680	0.530	91.41	-0.60	0.90	 	 	 	 	 	 	 	 	 	 	 	 	 	 	 	 	 	 	1581521993	8.19	15.17
12/02/2020 15:39:54	120220	12022020	153954	91.31	12.418788	-56.993718	91.41	-0.420	-1.470	0.880	91.30	-2.80	1.30	 	 	 	 	 	 	 	 	 	 	 	 	 	 	 	 	 	 	1581521994	9.76	18.08
12/02/2020 15:39:55	120220	12022020	153955	91.38	12.418787	-56.993672	91.54	0.310	-2.360	1.040	91.44	-3.80	1.40	 	 	 	 	 	 	 	 	 	 	 	 	 	 	 	 	 	 	1581521995	9.88	18.30
12/02/2020 15:39:56	120220	12022020	153956	91.77	12.418787	-56.993633	91.95	0.500	-1.340	0.970	91.87	-2.80	1.40	 	 	 	 	 	 	 	 	 	 	 	 	 	 	 	 	 	 	1581521996	8.08	14.96
12/02/2020 15:39:57	120220	12022020	153957	92.25	12.418787	-56.993603	92.41	0.400	0.230	0.700	92.32	-1.20	1.10	 	 	 	 	 	 	 	 	 	 	 	 	 	 	 	 	 	 	1581521997	6.41	11.87
12/02/2020 15:39:58	120220	12022020	153958	92.51	12.418790	-56.993570	92.60	0.560	0.530	0.490	92.52	-0.80	0.90	 	 	 	 	 	 	 	 	 	 	 	 	 	 	 	 	 	 	1581521998	6.74	12.48
12/02/2020 15:39:59	120220	12022020	153959	92.40	12.418793	-56.993530	92.46	0.850	-0.320	0.370	92.37	-1.70	0.80	 	 	 	 	 	 	 	 	 	 	 	 	 	 	 	 	 	 	1581521999	8.60	15.93
12/02/2020 15:40:00	120220	12022020	154000	92.36	12.418795	-56.993487	92.47	0.570	-0.560	0.420	92.38	-2.00	0.80	 	 	 	 	 	 	 	 	 	 	 	 	 	 	 	 	 	 	1581522000	9.24	17.11
12/02/2020 15:40:01	120220	12022020	154001	92.60	12.418795	-56.993450	92.77	-0.410	0.420	0.840	92.68	-1.10	1.20	 	 	 	 	 	 	 	 	 	 	 	 	 	 	 	 	 	 	1581522001	7.72	14.30
12/02/2020 15:40:02	120220	12022020	154002	92.99	12.418792	-56.993420	93.17	-1.400	1.400	1.170	93.08	-0.10	1.60	1016.70	26.70	26.70	20.30	20.30	655.0	68.0	68.0	436.0	28.5	352.00	15.40	80.00	11.00	53772	14821.0	27.4	27.4	1581522002	6.30	11.67
12/02/2020 15:40:03	120220	12022020	154003	93.36	12.418788	-56.993390	93.51	-1.540	0.950	1.180	93.42	-0.40	1.60	 	 	 	 	 	 	 	 	 	 	 	 	 	 	 	 	 	 	1581522003	6.66	12.33
12/02/2020 15:40:04	120220	12022020	154004	93.50	12.418785	-56.993350	93.60	-0.430	-1.070	1.170	93.48	-2.30	1.60	 	 	 	 	 	 	 	 	 	 	 	 	 	 	 	 	 	 	1581522004	8.42	15.59
12/02/2020 15:40:05	120220	12022020	154005	93.27	12.418782	-56.993303	93.33	1.160	-2.950	1.310	93.20	-4.30	1.70	 	 	 	 	 	 	 	 	 	 	 	 	 	 	 	 	 	 	1581522005	9.94	18.41
12/02/2020 15:40:06	120220	12022020	154006	92.96	12.418782	-56.993258	93.03	1.920	-2.690	1.250	92.91	-4.20	1.70	 	 	 	 	 	 	 	 	 	 	 	 	 	 	 	 	 	 	1581522006	9.32	17.26
12/02/2020 15:40:07	120220	12022020	154007	92.81	12.418785	-56.993225	92.90	1.270	-0.350	0.830	92.80	-1.90	1.30	 	 	 	 	 	 	 	 	 	 	 	 	 	 	 	 	 	 	1581522007	7.07	13.09
12/02/2020 15:40:08	120220	12022020	154008	92.81	12.418788	-56.993200	92.90	-0.130	2.090	0.340	92.81	0.60	0.80	 	 	 	 	 	 	 	 	 	 	 	 	 	 	 	 	 	 	1581522008	5.43	10.06
12/02/2020 15:40:09	120220	12022020	154009	92.82	12.418792	-56.993173	92.92	-1.270	2.800	0.130	92.82	1.40	0.50	 	 	 	 	 	 	 	 	 	 	 	 	 	 	 	 	 	 	1581522009	5.80	10.74
12/02/2020 15:40:10	120220	12022020	154010	92.81	12.418792	-56.993137	92.93	-1.550	1.370	0.170	92.81	0.10	0.60	 	 	 	 	 	 	 	 	 	 	 	 	 	 	 	 	 	 	1581522010	7.53	13.95
12/02/2020 15:40:11	120220	12022020	154011	92.92	12.418788	-56.993093	93.07	-0.990	-0.920	0.190	92.96	-2.20	0.60	 	 	 	 	 	 	 	 	 	 	 	 	 	 	 	 	 	 	1581522011	9.25	17.13
12/02/2020 15:40:12	120220	12022020	154012	93.09	12.418783	-56.993050	93.22	-0.170	-2.180	0.400	93.10	-3.50	0.80	 	 	 	 	 	 	 	 	 	 	 	 	 	 	 	 	 	 	1581522012	9.32	17.26
12/02/2020 15:40:13	120220	12022020	154013	93.04	12.418778	-56.993013	93.13	0.410	-1.770	0.800	92.99	-3.20	1.20	 	 	 	 	 	 	 	 	 	 	 	 	 	 	 	 	 	 	1581522013	7.83	14.50
12/02/2020 15:40:14	120220	12022020	154014	92.68	12.418775	-56.992983	92.72	0.650	-0.590	1.220	92.57	-2.10	1.60	 	 	 	 	 	 	 	 	 	 	 	 	 	 	 	 	 	 	1581522014	6.39	11.83
12/02/2020 15:40:15	120220	12022020	154015	92.08	12.418775	-56.992953	92.10	0.780	-0.080	1.540	91.95	-1.50	1.90	 	 	 	 	 	 	 	 	 	 	 	 	 	 	 	 	 	 	1581522015	6.37	11.80
12/02/2020 15:40:16	120220	12022020	154016	91.49	12.418777	-56.992917	91.55	0.920	-0.520	1.640	91.41	-1.90	2.10	 	 	 	 	 	 	 	 	 	 	 	 	 	 	 	 	 	 	1581522016	7.73	14.32
12/02/2020 15:40:17	120220	12022020	154017	91.44	12.418780	-56.992875	91.62	0.750	-0.640	1.300	91.53	-2.10	1.70	 	 	 	 	 	 	 	 	 	 	 	 	 	 	 	 	 	 	1581522017	8.59	15.91
12/02/2020 15:40:18	120220	12022020	154018	92.02	12.418782	-56.992840	92.23	0.070	0.360	0.920	92.15	-1.10	1.30	 	 	 	 	 	 	 	 	 	 	 	 	 	 	 	 	 	 	1581522018	7.56	14.00
12/02/2020 15:40:19	120220	12022020	154019	92.44	12.418782	-56.992812	92.55	-0.800	1.590	1.030	92.45	0.10	1.40	 	 	 	 	 	 	 	 	 	 	 	 	 	 	 	 	 	 	1581522019	6.07	11.24
12/02/2020 15:40:20	120220	12022020	154020	92.17	12.418778	-56.992783	92.20	-1.220	1.630	1.600	92.05	0.20	2.00	 	 	 	 	 	 	 	 	 	 	 	 	 	 	 	 	 	 	1581522020	6.06	11.22
12/02/2020 15:40:21	120220	12022020	154021	91.59	12.418773	-56.992748	91.66	-0.820	0.120	2.030	91.50	-1.20	2.40	 	 	 	 	 	 	 	 	 	 	 	 	 	 	 	 	 	 	1581522021	7.39	13.69
12/02/2020 15:40:22	120220	12022020	154022	91.33	12.418772	-56.992707	91.48	0.230	-1.980	2.000	91.32	-3.30	2.40	 	 	 	 	 	 	 	 	 	 	 	 	 	 	 	 	 	 	1581522022	8.78	16.26
12/02/2020 15:40:23	120220	12022020	154023	91.42	12.418775	-56.992665	91.66	1.050	-2.880	1.610	91.47	-4.30	2.00	 	 	 	 	 	 	 	 	 	 	 	 	 	 	 	 	 	 	1581522023	9.03	16.72
12/02/2020 15:40:24	120220	12022020	154024	91.80	12.418778	-56.992628	91.97	0.940	-1.750	1.270	91.86	-3.30	1.70	 	 	 	 	 	 	 	 	 	 	 	 	 	 	 	 	 	 	1581522024	7.50	13.89
12/02/2020 15:40:25	120220	12022020	154025	92.05	12.418778	-56.992603	92.19	0.130	0.440	1.360	92.08	-1.10	1.70	 	 	 	 	 	 	 	 	 	 	 	 	 	 	 	 	 	 	1581522025	5.53	10.24
12/02/2020 15:40:26	120220	12022020	154026	92.04	12.418775	-56.992580	92.14	-0.520	1.790	1.690	92.00	0.30	2.10	 	 	 	 	 	 	 	 	 	 	 	 	 	 	 	 	 	 	1581522026	5.04	9.33
12/02/2020 15:40:27	120220	12022020	154027	91.79	12.418772	-56.992548	91.89	-0.470	1.290	1.920	91.74	-0.10	2.30	 	 	 	 	 	 	 	 	 	 	 	 	 	 	 	 	 	 	1581522027	6.43	11.91
12/02/2020 15:40:28	120220	12022020	154028	91.60	12.418773	-56.992512	91.71	-0.080	-0.030	1.760	91.58	-1.40	2.20	 	 	 	 	 	 	 	 	 	 	 	 	 	 	 	 	 	 	1581522028	8.07	14.95
12/02/2020 15:40:29	120220	12022020	154029	91.53	12.418775	-56.992472	91.64	0.200	-0.960	1.390	91.52	-2.30	1.80	 	 	 	 	 	 	 	 	 	 	 	 	 	 	 	 	 	 	1581522029	8.22	15.22
12/02/2020 15:40:30	120220	12022020	154030	91.50	12.418778	-56.992437	91.62	0.240	-1.060	1.120	91.51	-2.50	1.60	 	 	 	 	 	 	 	 	 	 	 	 	 	 	 	 	 	 	1581522030	7.45	13.80
12/02/2020 15:40:31	120220	12022020	154031	91.59	12.418780	-56.992405	91.74	0.140	-0.630	0.920	91.63	-2.10	1.40	 	 	 	 	 	 	 	 	 	 	 	 	 	 	 	 	 	 	1581522031	6.64	12.30
12/02/2020 15:40:32	120220	12022020	154032	91.88	12.418782	-56.992375	92.06	-0.010	-0.190	0.650	91.97	-1.60	1.10	 	 	 	 	 	 	 	 	 	 	 	 	 	 	 	 	 	 	1581522032	6.33	11.72
12/02/2020 15:40:33	120220	12022020	154033	92.31	12.418783	-56.992345	92.48	-0.110	-0.030	0.400	92.39	-1.50	0.80	 	 	 	 	 	 	 	 	 	 	 	 	 	 	 	 	 	 	1581522033	6.49	12.02
12/02/2020 15:40:34	120220	12022020	154034	92.53	12.418783	-56.992313	92.62	-0.150	-0.090	0.510	92.52	-1.50	0.90	 	 	 	 	 	 	 	 	 	 	 	 	 	 	 	 	 	 	1581522034	6.80	12.59
12/02/2020 15:40:35	120220	12022020	154035	92.36	12.418780	-56.992280	92.42	-0.250	-0.140	1.020	92.30	-1.60	1.40	 	 	 	 	 	 	 	 	 	 	 	 	 	 	 	 	 	 	1581522035	6.92	12.82
12/02/2020 15:40:36	120220	12022020	154036	92.08	12.418775	-56.992248	92.16	-0.310	-0.140	1.500	92.03	-1.60	1.90	 	 	 	 	 	 	 	 	 	 	 	 	 	 	 	 	 	 	1581522036	6.78	12.56
12/02/2020 15:40:37	120220	12022020	154037	91.83	12.418772	-56.992217	91.90	-0.040	-0.340	1.640	91.77	-1.70	2.00	 	 	 	 	 	 	 	 	 	 	 	 	 	 	 	 	 	 	1581522037	6.74	12.48
12/02/2020 15:40:38	120220	12022020	154038	91.52	12.418772	-56.992183	91.60	0.530	-0.690	1.520	91.48	-2.10	1.90	 	 	 	 	 	 	 	 	 	 	 	 	 	 	 	 	 	 	1581522038	7.12	13.19
12/02/2020 15:40:39	120220	12022020	154039	91.46	12.418777	-56.992148	91.58	0.850	-0.690	1.010	91.50	-2.10	1.50	 	 	 	 	 	 	 	 	 	 	 	 	 	 	 	 	 	 	1581522039	7.35	13.61
12/02/2020 15:40:40	120220	12022020	154040	91.80	12.418783	-56.992117	91.97	0.480	-0.120	0.490	91.90	-1.60	0.90	 	 	 	 	 	 	 	 	 	 	 	 	 	 	 	 	 	 	1581522040	6.83	12.65
12/02/2020 15:40:41	120220	12022020	154041	92.31	12.418787	-56.992088	92.47	-0.300	0.490	0.400	92.40	-1.00	0.80	 	 	 	 	 	 	 	 	 	 	 	 	 	 	 	 	 	 	1581522041	6.03	11.17
12/02/2020 15:40:42	120220	12022020	154042	92.55	12.418783	-56.992060	92.65	-0.760	0.390	0.760	92.54	-1.00	1.10	 	 	 	 	 	 	 	 	 	 	 	 	 	 	 	 	 	 	1581522042	6.06	11.22
12/02/2020 15:40:43	120220	12022020	154043	92.31	12.418778	-56.992027	92.38	-0.520	-0.540	1.450	92.24	-1.90	1.80	 	 	 	 	 	 	 	 	 	 	 	 	 	 	 	 	 	 	1581522043	7.11	13.17
12/02/2020 15:40:44	120220	12022020	154044	91.92	12.418772	-56.991992	92.01	-0.000	-1.190	2.110	91.85	-2.60	2.50	 	 	 	 	 	 	 	 	 	 	 	 	 	 	 	 	 	 	1581522044	7.85	14.54
12/02/2020 15:40:45	120220	12022020	154045	91.71	12.418768	-56.991958	91.85	0.110	-0.630	2.260	91.71	-2.10	2.70	 	 	 	 	 	 	 	 	 	 	 	 	 	 	 	 	 	 	1581522045	6.99	12.95
12/02/2020 15:40:46	120220	12022020	154046	91.85	12.418768	-56.991932	92.02	-0.270	0.530	1.720	91.91	-1.00	2.20	 	 	 	 	 	 	 	 	 	 	 	 	 	 	 	 	 	 	1581522046	5.54	10.26
12/02/2020 15:40:47	120220	12022020	154047	92.10	12.418772	-56.991907	92.31	-0.600	1.000	0.830	92.16	-0.40	1.30	 	 	 	 	 	 	 	 	 	 	 	 	 	 	 	 	 	 	1581522047	5.23	9.69
12/02/2020 15:40:48	120220	12022020	154048	92.32	12.418775	-56.991878	92.41	-0.350	0.040	0.150	92.32	-1.30	0.60	 	 	 	 	 	 	 	 	 	 	 	 	 	 	 	 	 	 	1581522048	6.29	11.65
12/02/2020 15:40:49	120220	12022020	154049	92.15	12.418775	-56.991842	92.18	0.400	-1.440	-0.070	92.08	-2.80	0.40	 	 	 	 	 	 	 	 	 	 	 	 	 	 	 	 	 	 	1581522049	7.70	14.26
12/02/2020 15:40:50	120220	12022020	154050	91.73	12.418777	-56.991805	91.75	1.040	-1.870	-0.030	91.65	-3.30	0.40	 	 	 	 	 	 	 	 	 	 	 	 	 	 	 	 	 	 	1581522050	7.83	14.50
12/02/2020 15:40:51	120220	12022020	154051	91.41	12.418778	-56.991773	91.49	0.930	-0.820	0.170	91.39	-2.40	0.60	 	 	 	 	 	 	 	 	 	 	 	 	 	 	 	 	 	 	1581522051	6.55	12.13
12/02/2020 15:40:52	120220	12022020	154052	91.45	12.418780	-56.991748	91.59	0.100	0.600	0.580	91.49	-0.90	1.00	 	 	 	 	 	 	 	 	 	 	 	 	 	 	 	 	 	 	1581522052	5.18	9.59
12/02/2020 15:40:53	120220	12022020	154053	91.71	12.418777	-56.991725	91.89	-0.720	1.230	1.140	91.77	-0.20	1.50	 	 	 	 	 	 	 	 	 	 	 	 	 	 	 	 	 	 	1581522053	5.12	9.48
12/02/2020 15:40:54	120220	12022020	154054	91.95	12.418773	-56.991697	92.12	-0.890	0.850	1.770	91.99	-0.60	2.10	 	 	 	 	 	 	 	 	 	 	 	 	 	 	 	 	 	 	1581522054	6.04	11.19
12/02/2020 15:40:55	120220	12022020	154055	92.08	12.418768	-56.991665	92.23	-0.560	0.110	2.350	92.08	-1.30	2.70	 	 	 	 	 	 	 	 	 	 	 	 	 	 	 	 	 	 	1581522055	6.75	12.50
12/02/2020 15:40:56	120220	12022020	154056	91.92	12.418763	-56.991633	92.03	-0.120	-0.650	2.980	91.85	-2.10	3.30	 	 	 	 	 	 	 	 	 	 	 	 	 	 	 	 	 	 	1581522056	6.78	12.56
12/02/2020 15:40:57	120220	12022020	154057	91.47	12.418758	-56.991602	91.56	0.270	-1.350	3.480	91.37	-2.80	3.90	 	 	 	 	 	 	 	 	 	 	 	 	 	 	 	 	 	 	1581522057	6.81	12.61
12/02/2020 15:40:58	120220	12022020	154058	91.02	12.418755	-56.991570	91.12	0.540	-1.630	3.450	90.95	-3.10	3.90	 	 	 	 	 	 	 	 	 	 	 	 	 	 	 	 	 	 	1581522058	6.85	12.69
12/02/2020 15:40:59	120220	12022020	154059	90.85	12.418757	-56.991540	91.00	0.550	-1.000	2.710	90.85	-2.50	3.20	 	 	 	 	 	 	 	 	 	 	 	 	 	 	 	 	 	 	1581522059	6.41	11.87
12/02/2020 15:41:00	120220	12022020	154100	91.09	12.418763	-56.991513	91.26	0.170	0.240	1.380	91.17	-1.30	1.90	 	 	 	 	 	 	 	 	 	 	 	 	 	 	 	 	 	 	1581522060	5.66	10.48
12/02/2020 15:41:01	120220	12022020	154101	91.45	12.418772	-56.991490	91.55	-0.440	1.250	-0.030	91.48	-0.30	0.50	 	 	 	 	 	 	 	 	 	 	 	 	 	 	 	 	 	 	1581522061	5.29	9.80
12/02/2020 15:41:02	120220	12022020	154102	91.47	12.418777	-56.991465	91.50	-0.840	1.230	-0.820	91.43	-0.20	-0.40	1016.80	26.60	26.70	20.30	20.30	700.0	68.0	68.0	433.0	28.5	351.00	14.80	80.00	11.30	56304	8585.0	27.4	27.4	1581522062	5.47	10.13
12/02/2020 15:41:03	120220	12022020	154103	91.20	12.418778	-56.991435	91.22	-0.660	0.170	-0.900	91.14	-1.20	-0.50	 	 	 	 	 	 	 	 	 	 	 	 	 	 	 	 	 	 	1581522063	6.28	11.63
12/02/2020 15:41:04	120220	12022020	154104	90.85	12.418777	-56.991402	90.86	0.030	-1.050	-0.730	90.78	-2.40	-0.30	 	 	 	 	 	 	 	 	 	 	 	 	 	 	 	 	 	 	1581522064	7.04	13.04
12/02/2020 15:41:05	120220	12022020	154105	90.55	12.418777	-56.991368	90.58	0.720	-1.600	-0.460	90.51	-3.00	-0.10	 	 	 	 	 	 	 	 	 	 	 	 	 	 	 	 	 	 	1581522065	6.92	12.82
12/02/2020 15:41:06	120220	12022020	154106	90.46	12.418778	-56.991340	90.56	0.870	-1.300	-0.030	90.48	-2.80	0.40	 	 	 	 	 	 	 	 	 	 	 	 	 	 	 	 	 	 	1581522066	6.23	11.54
12/02/2020 15:41:07	120220	12022020	154107	90.65	12.418778	-56.991313	90.79	0.420	-0.550	0.580	90.69	-2.00	0.90	 	 	 	 	 	 	 	 	 	 	 	 	 	 	 	 	 	 	1581522067	5.56	10.30
12/02/2020 15:41:08	120220	12022020	154108	90.71	12.418773	-56.991288	90.81	-0.180	0.090	1.640	90.67	-1.40	2.00	 	 	 	 	 	 	 	 	 	 	 	 	 	 	 	 	 	 	1581522068	5.42	10.04
12/02/2020 15:41:09	120220	12022020	154109	90.36	12.418765	-56.991262	90.43	-0.440	0.510	2.870	90.26	-1.00	3.20	 	 	 	 	 	 	 	 	 	 	 	 	 	 	 	 	 	 	1581522069	5.90	10.93
12/02/2020 15:41:10	120220	12022020	154110	89.94	12.418757	-56.991235	90.05	-0.380	0.860	3.420	89.89	-0.60	3.80	 	 	 	 	 	 	 	 	 	 	 	 	 	 	 	 	 	 	1581522070	5.81	10.76
12/02/2020 15:41:11	120220	12022020	154111	89.84	12.418757	-56.991208	90.03	-0.240	0.800	3.170	89.85	-0.60	3.60	 	 	 	 	 	 	 	 	 	 	 	 	 	 	 	 	 	 	1581522071	5.50	10.19
12/02/2020 15:41:12	120220	12022020	154112	90.03	12.418760	-56.991182	90.21	-0.210	0.100	2.450	90.05	-1.30	2.90	 	 	 	 	 	 	 	 	 	 	 	 	 	 	 	 	 	 	1581522072	5.84	10.82
12/02/2020 15:41:13	120220	12022020	154113	90.03	12.418765	-56.991152	90.10	-0.200	-0.940	1.660	90.00	-2.30	2.10	 	 	 	 	 	 	 	 	 	 	 	 	 	 	 	 	 	 	1581522073	6.31	11.69
12/02/2020 15:41:14	120220	12022020	154114	89.61	12.418770	-56.991122	89.66	0.020	-1.600	1.110	89.51	-3.00	1.60	 	 	 	 	 	 	 	 	 	 	 	 	 	 	 	 	 	 	1581522074	6.45	11.95
12/02/2020 15:41:15	120220	12022020	154115	89.06	12.418772	-56.991093	89.09	0.450	-1.480	0.720	88.96	-3.00	1.20	 	 	 	 	 	 	 	 	 	 	 	 	 	 	 	 	 	 	1581522075	6.05	11.20
12/02/2020 15:41:16	120220	12022020	154116	88.62	12.418777	-56.991068	88.68	0.610	-0.750	0.310	88.58	-2.20	0.80	 	 	 	 	 	 	 	 	 	 	 	 	 	 	 	 	 	 	1581522076	5.49	10.17
12/02/2020 15:41:17	120220	12022020	154117	88.53	12.418782	-56.991043	88.63	0.300	0.040	-0.200	88.55	-1.40	0.30	 	 	 	 	 	 	 	 	 	 	 	 	 	 	 	 	 	 	1581522077	5.17	9.57
12/02/2020 15:41:18	120220	12022020	154118	88.73	12.418785	-56.991020	88.85	-0.210	0.520	-0.510	88.79	-0.90	-0.10	 	 	 	 	 	 	 	 	 	 	 	 	 	 	 	 	 	 	1581522078	5.20	9.63
12/02/2020 15:41:19	120220	12022020	154119	88.95	12.418785	-56.990993	89.02	-0.520	0.760	-0.400	88.96	-0.70	0.00	 	 	 	 	 	 	 	 	 	 	 	 	 	 	 	 	 	 	1581522079	5.37	9.95
12/02/2020 15:41:20	120220	12022020	154120	88.84	12.418782	-56.990968	88.86	-0.510	0.720	0.220	88.78	-0.70	0.60	 	 	 	 	 	 	 	 	 	 	 	 	 	 	 	 	 	 	1581522080	5.40	10.00
12/02/2020 15:41:21	120220	12022020	154121	88.45	12.418780	-56.990943	88.47	-0.230	0.160	0.980	88.36	-1.20	1.40	 	 	 	 	 	 	 	 	 	 	 	 	 	 	 	 	 	 	1581522081	5.57	10.32
12/02/2020 15:41:22	120220	12022020	154122	88.12	12.418778	-56.990915	88.20	0.170	-0.730	1.440	88.08	-2.10	1.80	 	 	 	 	 	 	 	 	 	 	 	 	 	 	 	 	 	 	1581522082	5.95	11.02
12/02/2020 15:41:23	120220	12022020	154123	88.01	12.418780	-56.990885	88.12	0.510	-1.300	1.830	87.99	-2.70	2.20	 	 	 	 	 	 	 	 	 	 	 	 	 	 	 	 	 	 	1581522083	6.14	11.37
12/02/2020 15:41:24	120220	12022020	154124	87.98	12.418780	-56.990858	88.14	0.460	-1.010	2.190	88.00	-2.50	2.60	 	 	 	 	 	 	 	 	 	 	 	 	 	 	 	 	 	 	1581522084	5.69	10.54
12/02/2020 15:41:25	120220	12022020	154125	88.08	12.418780	-56.990837	88.24	-0.010	-0.090	2.220	88.09	-1.60	2.60	 	 	 	 	 	 	 	 	 	 	 	 	 	 	 	 	 	 	1581522085	4.74	8.78
12/02/2020 15:41:26	120220	12022020	154126	88.06	12.418782	-56.990815	88.18	-0.440	0.540	2.180	88.02	-0.90	2.60	 	 	 	 	 	 	 	 	 	 	 	 	 	 	 	 	 	 	1581522086	4.27	7.91
12/02/2020 15:41:27	120220	12022020	154127	87.78	12.418782	-56.990793	87.88	-0.350	0.110	2.200	87.70	-1.30	2.60	 	 	 	 	 	 	 	 	 	 	 	 	 	 	 	 	 	 	1581522087	4.91	9.09
12/02/2020 15:41:28	120220	12022020	154128	87.47	12.418785	-56.990763	87.60	0.140	-0.960	1.920	87.44	-2.30	2.40	 	 	 	 	 	 	 	 	 	 	 	 	 	 	 	 	 	 	1581522088	6.22	11.52
12/02/2020 15:41:29	120220	12022020	154129	87.45	12.418788	-56.990732	87.60	0.440	-1.340	1.330	87.48	-2.80	1.80	 	 	 	 	 	 	 	 	 	 	 	 	 	 	 	 	 	 	1581522089	6.59	12.20
12/02/2020 15:41:30	120220	12022020	154130	87.62	12.418792	-56.990707	87.78	0.150	-0.250	0.870	87.65	-1.80	1.30	 	 	 	 	 	 	 	 	 	 	 	 	 	 	 	 	 	 	1581522090	5.33	9.87
12/02/2020 15:41:31	120220	12022020	154131	87.78	12.418793	-56.990690	87.91	-0.510	1.460	0.490	87.80	-0.10	0.90	 	 	 	 	 	 	 	 	 	 	 	 	 	 	 	 	 	 	1581522091	3.58	6.63
12/02/2020 15:41:32	120220	12022020	154132	87.86	12.418797	-56.990675	87.95	-0.930	2.080	-0.060	87.87	0.70	0.40	 	 	 	 	 	 	 	 	 	 	 	 	 	 	 	 	 	 	1581522092	3.17	5.87
12/02/2020 15:41:33	120220	12022020	154133	87.89	12.418802	-56.990655	87.95	-0.500	0.410	-0.560	87.88	-0.90	-0.10	 	 	 	 	 	 	 	 	 	 	 	 	 	 	 	 	 	 	1581522093	4.71	8.72
12/02/2020 15:41:34	120220	12022020	154134	87.77	12.418808	-56.990622	87.80	0.640	-2.270	-0.590	87.73	-3.60	-0.20	 	 	 	 	 	 	 	 	 	 	 	 	 	 	 	 	 	 	1581522094	6.98	12.93
12/02/2020 15:41:35	120220	12022020	154135	87.63	12.418812	-56.990587	87.71	1.430	-3.220	-0.200	87.62	-4.70	0.20	 	 	 	 	 	 	 	 	 	 	 	 	 	 	 	 	 	 	1581522095	7.31	13.54
12/02/2020 15:41:36	120220	12022020	154136	87.69	12.418812	-56.990565	87.86	1.050	-1.460	0.780	87.75	-3.00	1.10	 	 	 	 	 	 	 	 	 	 	 	 	 	 	 	 	 	 	1581522096	4.85	8.98
12/02/2020 15:41:37	120220	12022020	154137	88.04	12.418807	-56.990553	88.26	-0.170	1.200	1.950	88.12	-0.40	2.30	 	 	 	 	 	 	 	 	 	 	 	 	 	 	 	 	 	 	1581522097	2.65	4.91
12/02/2020 15:41:38	120220	12022020	154138	88.42	12.418800	-56.990543	88.63	-1.200	2.510	2.780	88.47	1.00	3.10	 	 	 	 	 	 	 	 	 	 	 	 	 	 	 	 	 	 	1581522098	2.59	4.80
12/02/2020 15:41:39	120220	12022020	154139	88.62	12.418795	-56.990523	88.80	-1.200	1.660	3.120	88.63	0.30	3.50	 	 	 	 	 	 	 	 	 	 	 	 	 	 	 	 	 	 	1581522099	4.05	7.50
12/02/2020 15:41:40	120220	12022020	154140	88.62	12.418793	-56.990497	88.78	-0.360	-0.250	3.110	88.61	-1.60	3.50	 	 	 	 	 	 	 	 	 	 	 	 	 	 	 	 	 	 	1581522100	5.73	10.61
12/02/2020 15:41:41	120220	12022020	154141	88.54	12.418795	-56.990468	88.71	0.480	-1.670	2.850	88.53	-3.00	3.30	 	 	 	 	 	 	 	 	 	 	 	 	 	 	 	 	 	 	1581522101	6.09	11.28
12/02/2020 15:41:42	120220	12022020	154142	88.54	12.418800	-56.990443	88.71	0.670	-1.760	2.270	88.56	-3.20	2.70	 	 	 	 	 	 	 	 	 	 	 	 	 	 	 	 	 	 	1581522102	5.22	9.67
12/02/2020 15:41:43	120220	12022020	154143	88.71	12.418805	-56.990427	88.89	0.170	-0.770	1.370	88.76	-2.30	1.90	 	 	 	 	 	 	 	 	 	 	 	 	 	 	 	 	 	 	1581522103	3.98	7.37
12/02/2020 15:41:44	120220	12022020	154144	88.96	12.418812	-56.990412	89.11	-0.360	0.230	0.460	89.00	-1.30	0.90	 	 	 	 	 	 	 	 	 	 	 	 	 	 	 	 	 	 	1581522104	3.31	6.13
12/02/2020 15:41:45	120220	12022020	154145	89.10	12.418817	-56.990395	89.21	-0.310	0.400	-0.260	89.12	-1.00	0.20	 	 	 	 	 	 	 	 	 	 	 	 	 	 	 	 	 	 	1581522105	3.65	6.76
12/02/2020 15:41:46	120220	12022020	154146	89.18	12.418820	-56.990373	89.27	0.310	-0.150	-0.780	89.21	-1.60	-0.30	 	 	 	 	 	 	 	 	 	 	 	 	 	 	 	 	 	 	1581522106	4.61	8.54
12/02/2020 15:41:47	120220	12022020	154147	89.34	12.418825	-56.990350	89.43	0.910	-0.760	-1.010	89.37	-2.20	-0.60	 	 	 	 	 	 	 	 	 	 	 	 	 	 	 	 	 	 	1581522107	5.23	9.69
12/02/2020 15:41:48	120220	12022020	154148	89.42	12.418827	-56.990327	89.47	0.880	-0.670	-0.680	89.39	-2.10	-0.30	 	 	 	 	 	 	 	 	 	 	 	 	 	 	 	 	 	 	1581522108	4.96	9.19
12/02/2020 15:41:49	120220	12022020	154149	89.24	12.418825	-56.990308	89.19	0.070	0.260	0.120	89.17	-1.30	0.50	 	 	 	 	 	 	 	 	 	 	 	 	 	 	 	 	 	 	1581522109	3.92	7.26
12/02/2020 15:41:50	120220	12022020	154150	88.81	12.418822	-56.990293	88.88	-0.960	1.190	1.060	88.78	-0.30	1.40	 	 	 	 	 	 	 	 	 	 	 	 	 	 	 	 	 	 	1581522110	3.12	5.78
12/02/2020 15:41:51	120220	12022020	154151	88.84	12.418818	-56.990278	88.99	-1.400	1.200	1.520	88.89	-0.20	1.90	 	 	 	 	 	 	 	 	 	 	 	 	 	 	 	 	 	 	1581522111	3.14	5.82
12/02/2020 15:41:52	120220	12022020	154152	89.14	12.418818	-56.990260	89.31	-0.960	0.010	1.720	89.19	-1.30	2.10	 	 	 	 	 	 	 	 	 	 	 	 	 	 	 	 	 	 	1581522112	4.08	7.56
12/02/2020 15:41:53	120220	12022020	154153	89.34	12.418818	-56.990235	89.48	-0.060	-1.520	1.860	89.35	-2.90	2.30	 	 	 	 	 	 	 	 	 	 	 	 	 	 	 	 	 	 	1581522113	5.13	9.50
12/02/2020 15:41:54	120220	12022020	154154	89.29	12.418817	-56.990212	89.39	0.700	-2.230	2.040	89.24	-3.70	2.40	 	 	 	 	 	 	 	 	 	 	 	 	 	 	 	 	 	 	1581522114	5.20	9.63
12/02/2020 15:41:55	120220	12022020	154155	88.97	12.418815	-56.990190	89.04	1.010	-1.560	2.290	88.88	-3.10	2.70	 	 	 	 	 	 	 	 	 	 	 	 	 	 	 	 	 	 	1581522115	4.28	7.93
12/02/2020 15:41:56	120220	12022020	154156	88.55	12.418815	-56.990177	88.63	0.890	-0.120	2.090	88.48	-1.70	2.50	 	 	 	 	 	 	 	 	 	 	 	 	 	 	 	 	 	 	1581522116	3.13	5.80
12/02/2020 15:41:57	120220	12022020	154157	88.34	12.418822	-56.990163	88.44	0.480	1.010	1.210	88.32	-0.50	1.70	 	 	 	 	 	 	 	 	 	 	 	 	 	 	 	 	 	 	1581522117	2.94	5.44
12/02/2020 15:41:58	120220	12022020	154158	88.34	12.418830	-56.990148	88.43	0.060	1.180	0.100	88.35	-0.30	0.60	 	 	 	 	 	 	 	 	 	 	 	 	 	 	 	 	 	 	1581522118	3.73	6.91
12/02/2020 15:41:59	120220	12022020	154159	88.36	12.418838	-56.990128	88.42	-0.310	0.650	-0.770	88.35	-0.80	-0.30	 	 	 	 	 	 	 	 	 	 	 	 	 	 	 	 	 	 	1581522119	4.43	8.20
12/02/2020 15:42:00	120220	12022020	154200	88.28	12.418843	-56.990108	88.32	-0.650	0.010	-1.140	88.25	-1.40	-0.70	 	 	 	 	 	 	 	 	 	 	 	 	 	 	 	 	 	 	1581522120	4.46	8.26
12/02/2020 15:42:01	120220	12022020	154201	88.19	12.418845	-56.990090	88.22	-0.840	-0.450	-0.920	88.17	-1.90	-0.50	 	 	 	 	 	 	 	 	 	 	 	 	 	 	 	 	 	 	1581522121	4.05	7.50
12/02/2020 15:42:02	120220	12022020	154202	88.07	12.418843	-56.990072	88.13	-0.610	-0.820	-0.310	88.05	-2.30	0.10	1016.90	26.60	26.70	20.20	20.20	708.0	67.0	67.0	430.0	28.5	355.00	13.20	82.00	10.60	57267	10323.0	27.4	27.4	1581522122	3.84	7.11
12/02/2020 15:42:03	120220	12022020	154203	87.89	12.418838	-56.990053	87.94	0.110	-1.240	0.340	87.85	-2.70	0.70	 	 	 	 	 	 	 	 	 	 	 	 	 	 	 	 	 	 	1581522123	3.98	7.37
12/02/2020 15:42:04	120220	12022020	154204	87.58	12.418837	-56.990033	87.64	0.910	-1.440	0.990	87.52	-2.90	1.40	 	 	 	 	 	 	 	 	 	 	 	 	 	 	 	 	 	 	1581522124	4.28	7.93
12/02/2020 15:42:05	120220	12022020	154205	87.32	12.418837	-56.990013	87.42	1.010	-0.670	1.730	87.30	-2.20	2.10	 	 	 	 	 	 	 	 	 	 	 	 	 	 	 	 	 	 	1581522125	4.06	7.52
12/02/2020 15:42:06	120220	12022020	154206	87.33	12.418835	-56.990002	87.49	0.200	1.000	2.240	87.37	-0.60	2.60	 	 	 	 	 	 	 	 	 	 	 	 	 	 	 	 	 	 	1581522126	2.72	5.04
12/02/2020 15:42:07	120220	12022020	154207	87.57	12.418833	-56.989993	87.75	-0.810	2.180	2.170	87.62	0.70	2.60	 	 	 	 	 	 	 	 	 	 	 	 	 	 	 	 	 	 	1581522127	1.66	3.07
12/02/2020 15:42:08	120220	12022020	154208	87.68	12.418835	-56.989982	87.78	-0.950	1.330	1.770	87.65	-0.00	2.20	 	 	 	 	 	 	 	 	 	 	 	 	 	 	 	 	 	 	1581522128	2.49	4.61
12/02/2020 15:42:09	120220	12022020	154209	87.42	12.418840	-56.989960	87.48	-0.070	-1.070	1.520	87.34	-2.40	1.90	 	 	 	 	 	 	 	 	 	 	 	 	 	 	 	 	 	 	1581522129	4.68	8.67
12/02/2020 15:42:10	120220	12022020	154210	86.96	12.418843	-56.989933	87.02	0.960	-2.840	1.440	86.87	-4.20	1.90	 	 	 	 	 	 	 	 	 	 	 	 	 	 	 	 	 	 	1581522130	5.78	10.70
12/02/2020 15:42:11	120220	12022020	154211	86.64	12.418845	-56.989912	86.76	1.160	-2.340	1.330	86.62	-3.90	1.80	 	 	 	 	 	 	 	 	 	 	 	 	 	 	 	 	 	 	1581522131	4.59	8.50
12/02/2020 15:42:12	120220	12022020	154212	86.70	12.418847	-56.989900	86.89	0.400	-0.180	1.160	86.77	-1.80	1.60	 	 	 	 	 	 	 	 	 	 	 	 	 	 	 	 	 	 	1581522132	2.29	4.24
12/02/2020 15:42:13	120220	12022020	154213	87.08	12.418848	-56.989895	87.28	-0.640	1.730	0.900	87.17	0.20	1.30	 	 	 	 	 	 	 	 	 	 	 	 	 	 	 	 	 	 	1581522133	1.12	2.07
12/02/2020 15:42:14	120220	12022020	154214	87.47	12.418848	-56.989887	87.61	-1.160	2.180	0.500	87.52	0.70	0.90	 	 	 	 	 	 	 	 	 	 	 	 	 	 	 	 	 	 	1581522134	1.68	3.11
12/02/2020 15:42:15	120220	12022020	154215	87.53	12.418852	-56.989873	87.57	-0.770	0.970	0.150	87.50	-0.40	0.60	 	 	 	 	 	 	 	 	 	 	 	 	 	 	 	 	 	 	1581522135	3.12	5.78
12/02/2020 15:42:16	120220	12022020	154216	87.24	12.418853	-56.989852	87.27	0.170	-0.970	0.070	87.18	-2.30	0.50	 	 	 	 	 	 	 	 	 	 	 	 	 	 	 	 	 	 	1581522136	4.51	8.35
12/02/2020 15:42:17	120220	12022020	154217	86.97	12.418857	-56.989830	87.04	0.850	-2.050	0.340	86.94	-3.50	0.80	 	 	 	 	 	 	 	 	 	 	 	 	 	 	 	 	 	 	1581522137	4.70	8.70
12/02/2020 15:42:18	120220	12022020	154218	86.87	12.418858	-56.989813	87.00	0.780	-1.530	0.740	86.88	-3.10	1.10	 	 	 	 	 	 	 	 	 	 	 	 	 	 	 	 	 	 	1581522138	3.41	6.32
12/02/2020 15:42:19	120220	12022020	154219	86.96	12.418857	-56.989805	87.10	0.230	-0.320	0.950	86.98	-1.90	1.40	 	 	 	 	 	 	 	 	 	 	 	 	 	 	 	 	 	 	1581522139	2.00	3.70
12/02/2020 15:42:20	120220	12022020	154220	87.10	12.418857	-56.989795	87.22	-0.110	0.300	1.050	87.13	-1.20	1.50	 	 	 	 	 	 	 	 	 	 	 	 	 	 	 	 	 	 	1581522140	1.92	3.56
12/02/2020 15:42:21	120220	12022020	154221	87.18	12.418857	-56.989782	87.28	-0.020	0.040	1.300	87.17	-1.40	1.70	 	 	 	 	 	 	 	 	 	 	 	 	 	 	 	 	 	 	1581522141	2.95	5.46
12/02/2020 15:42:22	120220	12022020	154222	87.05	12.418857	-56.989763	87.14	0.130	-0.200	1.740	87.01	-1.70	2.10	 	 	 	 	 	 	 	 	 	 	 	 	 	 	 	 	 	 	1581522142	3.69	6.83
12/02/2020 15:42:23	120220	12022020	154223	86.81	12.418855	-56.989748	86.89	-0.100	0.300	1.950	86.76	-1.20	2.40	 	 	 	 	 	 	 	 	 	 	 	 	 	 	 	 	 	 	1581522143	3.12	5.78
12/02/2020 15:42:24	120220	12022020	154224	86.61	12.418855	-56.989740	86.70	-0.620	1.080	1.730	86.58	-0.40	2.20	 	 	 	 	 	 	 	 	 	 	 	 	 	 	 	 	 	 	1581522144	1.96	3.63
12/02/2020 15:42:25	120220	12022020	154225	86.57	12.418858	-56.989732	86.68	-0.890	1.100	1.180	86.58	-0.40	1.60	 	 	 	 	 	 	 	 	 	 	 	 	 	 	 	 	 	 	1581522145	1.80	3.33
12/02/2020 15:42:26	120220	12022020	154226	86.66	12.418863	-56.989720	86.78	-0.500	-0.150	0.540	86.69	-1.50	1.00	 	 	 	 	 	 	 	 	 	 	 	 	 	 	 	 	 	 	1581522146	2.77	5.13
12/02/2020 15:42:27	120220	12022020	154227	86.76	12.418868	-56.989702	86.84	0.450	-1.920	-0.040	86.77	-3.30	0.40	 	 	 	 	 	 	 	 	 	 	 	 	 	 	 	 	 	 	1581522147	4.00	7.41
12/02/2020 15:42:28	120220	12022020	154228	86.75	12.418875	-56.989682	86.82	1.290	-2.750	-0.380	86.74	-4.20	0.10	 	 	 	 	 	 	 	 	 	 	 	 	 	 	 	 	 	 	1581522148	4.34	8.04
12/02/2020 15:42:29	120220	12022020	154229	86.68	12.418878	-56.989667	86.76	1.300	-1.790	-0.240	86.66	-3.30	0.20	 	 	 	 	 	 	 	 	 	 	 	 	 	 	 	 	 	 	1581522149	3.20	5.93
12/02/2020 15:42:30	120220	12022020	154230	86.50	12.418877	-56.989660	86.56	0.500	0.240	0.520	86.45	-1.30	0.90	 	 	 	 	 	 	 	 	 	 	 	 	 	 	 	 	 	 	1581522150	1.53	2.83
12/02/2020 15:42:31	120220	12022020	154231	86.16	12.418872	-56.989655	86.21	-0.470	1.850	1.420	86.08	0.30	1.80	 	 	 	 	 	 	 	 	 	 	 	 	 	 	 	 	 	 	1581522151	1.29	2.39
12/02/2020 15:42:32	120220	12022020	154232	85.79	12.418868	-56.989648	85.86	-1.010	2.220	1.890	85.73	0.80	2.30	 	 	 	 	 	 	 	 	 	 	 	 	 	 	 	 	 	 	1581522152	1.55	2.87
12/02/2020 15:42:33	120220	12022020	154233	85.58	12.418870	-56.989638	85.70	-0.950	1.360	1.940	85.58	-0.00	2.40	 	 	 	 	 	 	 	 	 	 	 	 	 	 	 	 	 	 	1581522153	2.37	4.39
12/02/2020 15:42:34	120220	12022020	154234	85.69	12.418873	-56.989623	85.84	-0.540	-0.140	1.670	85.74	-1.50	2.10	 	 	 	 	 	 	 	 	 	 	 	 	 	 	 	 	 	 	1581522154	3.15	5.83
12/02/2020 15:42:35	120220	12022020	154235	85.97	12.418878	-56.989608	86.12	-0.080	-1.530	1.260	86.02	-2.90	1.70	 	 	 	 	 	 	 	 	 	 	 	 	 	 	 	 	 	 	1581522155	3.34	6.19
12/02/2020 15:42:36	120220	12022020	154236	86.11	12.418882	-56.989595	86.19	0.340	-2.210	1.050	86.09	-3.60	1.50	 	 	 	 	 	 	 	 	 	 	 	 	 	 	 	 	 	 	1581522156	3.02	5.59
12/02/2020 15:42:37	120220	12022020	154237	85.89	12.418882	-56.989583	85.95	0.700	-1.950	1.250	85.82	-3.40	1.70	 	 	 	 	 	 	 	 	 	 	 	 	 	 	 	 	 	 	1581522157	2.42	4.48
12/02/2020 15:42:38	120220	12022020	154238	85.51	12.418882	-56.989575	85.58	0.820	-0.900	1.590	85.44	-2.40	2.00	 	 	 	 	 	 	 	 	 	 	 	 	 	 	 	 	 	 	1581522158	1.80	3.33
12/02/2020 15:42:39	120220	12022020	154239	85.29	12.418882	-56.989568	85.37	0.600	0.370	1.550	85.27	-1.10	2.00	 	 	 	 	 	 	 	 	 	 	 	 	 	 	 	 	 	 	1581522159	1.32	2.44
12/02/2020 15:42:40	120220	12022020	154240	85.23	12.418885	-56.989562	85.30	0.180	1.210	1.100	85.21	-0.30	1.60	 	 	 	 	 	 	 	 	 	 	 	 	 	 	 	 	 	 	1581522160	1.45	2.69
12/02/2020 15:42:41	120220	12022020	154241	85.11	12.418888	-56.989553	85.16	-0.220	1.210	0.620	85.08	-0.20	1.10	 	 	 	 	 	 	 	 	 	 	 	 	 	 	 	 	 	 	1581522161	1.99	3.69
12/02/2020 15:42:42	120220	12022020	154242	84.90	12.418893	-56.989542	84.93	-0.470	0.500	0.190	84.85	-0.90	0.70	 	 	 	 	 	 	 	 	 	 	 	 	 	 	 	 	 	 	1581522162	2.64	4.89
12/02/2020 15:42:43	120220	12022020	154243	84.69	12.418900	-56.989530	84.75	-0.570	-0.310	-0.140	84.67	-1.70	0.30	 	 	 	 	 	 	 	 	 	 	 	 	 	 	 	 	 	 	1581522163	2.92	5.41
12/02/2020 15:42:44	120220	12022020	154244	84.73	12.418903	-56.989518	84.84	-0.520	-0.760	-0.330	84.77	-2.20	0.10	 	 	 	 	 	 	 	 	 	 	 	 	 	 	 	 	 	 	1581522164	2.60	4.82
12/02/2020 15:42:45	120220	12022020	154245	84.99	12.418907	-56.989508	85.10	-0.290	-0.890	-0.270	85.04	-2.30	0.10	 	 	 	 	 	 	 	 	 	 	 	 	 	 	 	 	 	 	1581522165	2.11	3.91
12/02/2020 15:42:46	120220	12022020	154246	85.13	12.418907	-56.989498	85.19	0.050	-0.910	0.140	85.12	-2.40	0.50	 	 	 	 	 	 	 	 	 	 	 	 	 	 	 	 	 	 	1581522166	2.03	3.76
12/02/2020 15:42:47	120220	12022020	154247	84.97	12.418903	-56.989488	85.01	0.230	-0.530	0.870	84.91	-2.00	1.20	 	 	 	 	 	 	 	 	 	 	 	 	 	 	 	 	 	 	1581522167	2.19	4.06
12/02/2020 15:42:48	120220	12022020	154248	84.69	12.418900	-56.989482	84.75	0.080	0.220	1.660	84.63	-1.30	2.00	 	 	 	 	 	 	 	 	 	 	 	 	 	 	 	 	 	 	1581522168	1.85	3.43
12/02/2020 15:42:49	120220	12022020	154249	84.46	12.418897	-56.989475	84.54	-0.100	0.590	2.200	84.43	-0.90	2.60	 	 	 	 	 	 	 	 	 	 	 	 	 	 	 	 	 	 	1581522169	1.53	2.83
12/02/2020 15:42:50	120220	12022020	154250	84.28	12.418897	-56.989465	84.34	0.060	0.100	2.290	84.22	-1.30	2.70	 	 	 	 	 	 	 	 	 	 	 	 	 	 	 	 	 	 	1581522170	1.92	3.56
12/02/2020 15:42:51	120220	12022020	154251	84.01	12.418898	-56.989453	83.96	0.430	-0.690	2.080	83.94	-2.10	2.50	 	 	 	 	 	 	 	 	 	 	 	 	 	 	 	 	 	 	1581522171	2.75	5.09
12/02/2020 15:42:52	120220	12022020	154252	83.61	12.418905	-56.989440	83.64	0.550	-0.940	1.630	83.56	-2.40	2.10	 	 	 	 	 	 	 	 	 	 	 	 	 	 	 	 	 	 	1581522172	2.89	5.35
12/02/2020 15:42:53	120220	12022020	154253	83.54	12.418912	-56.989432	83.63	0.260	-0.470	1.000	83.56	-2.00	1.50	 	 	 	 	 	 	 	 	 	 	 	 	 	 	 	 	 	 	1581522173	2.29	4.24
12/02/2020 15:42:54	120220	12022020	154254	83.84	12.418917	-56.989427	83.95	-0.100	0.100	0.340	83.92	-1.40	0.80	 	 	 	 	 	 	 	 	 	 	 	 	 	 	 	 	 	 	1581522174	1.74	3.22
12/02/2020 15:42:55	120220	12022020	154255	84.26	12.418922	-56.989420	84.36	-0.190	0.180	-0.190	84.32	-1.30	0.30	 	 	 	 	 	 	 	 	 	 	 	 	 	 	 	 	 	 	1581522175	1.78	3.30
12/02/2020 15:42:56	120220	12022020	154256	84.45	12.418925	-56.989410	84.51	-0.170	-0.010	-0.260	84.45	-1.50	0.20	 	 	 	 	 	 	 	 	 	 	 	 	 	 	 	 	 	 	1581522176	2.17	4.02
12/02/2020 15:42:57	120220	12022020	154257	84.35	12.418925	-56.989400	84.40	-0.400	0.120	0.340	84.30	-1.40	0.70	 	 	 	 	 	 	 	 	 	 	 	 	 	 	 	 	 	 	1581522177	2.10	3.89
12/02/2020 15:42:58	120220	12022020	154258	84.05	12.418918	-56.989393	84.08	-0.780	0.650	1.350	83.96	-0.80	1.70	 	 	 	 	 	 	 	 	 	 	 	 	 	 	 	 	 	 	1581522178	1.75	3.24
12/02/2020 15:42:59	120220	12022020	154259	83.55	12.418913	-56.989390	83.57	-0.820	0.730	2.290	83.43	-0.70	2.70	 	 	 	 	 	 	 	 	 	 	 	 	 	 	 	 	 	 	1581522179	1.50	2.78
12/02/2020 15:43:00	120220	12022020	154300	82.99	12.418912	-56.989382	83.02	-0.150	-0.440	2.720	82.89	-1.80	3.10	 	 	 	 	 	 	 	 	 	 	 	 	 	 	 	 	 	 	1581522180	1.64	3.04
12/02/2020 15:43:01	120220	12022020	154301	82.67	12.418915	-56.989368	82.76	0.810	-2.040	2.410	82.67	-3.40	2.90	 	 	 	 	 	 	 	 	 	 	 	 	 	 	 	 	 	 	1581522181	2.97	5.50
12/02/2020 15:43:02	120220	12022020	154302	82.89	12.418923	-56.989355	83.04	1.270	-2.480	1.750	82.97	-3.90	2.20	1016.90	26.70	26.70	20.50	20.60	842.0	69.0	69.0	427.0	28.7	355.00	11.20	80.00	9.80	64748	9700.0	27.4	27.4	1581522182	3.32	6.15
12/02/2020 15:43:03	120220	12022020	154303	83.33	12.418928	-56.989348	83.45	0.920	-1.180	1.310	83.40	-2.70	1.80	 	 	 	 	 	 	 	 	 	 	 	 	 	 	 	 	 	 	1581522183	1.89	3.50
12/02/2020 15:43:04	120220	12022020	154304	83.53	12.418930	-56.989348	83.60	0.110	0.890	1.130	83.54	-0.70	1.60	 	 	 	 	 	 	 	 	 	 	 	 	 	 	 	 	 	 	1581522184	0.43	0.80
12/02/2020 15:43:05	120220	12022020	154305	83.47	12.418932	-56.989350	83.54	-0.650	2.240	0.920	83.46	0.70	1.40	 	 	 	 	 	 	 	 	 	 	 	 	 	 	 	 	 	 	1581522185	0.37	0.69
12/02/2020 15:43:06	120220	12022020	154306	83.39	12.418933	-56.989347	83.45	-1.000	1.950	0.470	83.38	0.60	0.90	 	 	 	 	 	 	 	 	 	 	 	 	 	 	 	 	 	 	1581522186	0.71	1.31
12/02/2020 15:43:07	120220	12022020	154307	83.33	12.418937	-56.989338	83.39	-0.880	0.410	0.100	83.32	-0.90	0.50	 	 	 	 	 	 	 	 	 	 	 	 	 	 	 	 	 	 	1581522187	2.06	3.82
12/02/2020 15:43:08	120220	12022020	154308	83.25	12.418938	-56.989325	83.30	-0.430	-1.110	0.010	83.22	-2.50	0.40	 	 	 	 	 	 	 	 	 	 	 	 	 	 	 	 	 	 	1581522188	2.65	4.91
12/02/2020 15:43:09	120220	12022020	154309	83.05	12.418940	-56.989315	83.05	0.120	-1.760	0.180	82.98	-3.20	0.60	 	 	 	 	 	 	 	 	 	 	 	 	 	 	 	 	 	 	1581522189	2.15	3.98
12/02/2020 15:43:10	120220	12022020	154310	82.67	12.418940	-56.989308	82.66	0.610	-1.620	0.420	82.59	-3.00	0.80	 	 	 	 	 	 	 	 	 	 	 	 	 	 	 	 	 	 	1581522190	1.37	2.54
12/02/2020 15:43:11	120220	12022020	154311	82.37	12.418942	-56.989303	82.39	0.850	-1.150	0.630	82.34	-2.60	1.00	 	 	 	 	 	 	 	 	 	 	 	 	 	 	 	 	 	 	1581522191	1.12	2.07
12/02/2020 15:43:12	120220	12022020	154312	82.34	12.418945	-56.989298	82.41	0.600	-0.350	0.880	82.37	-1.80	1.30	 	 	 	 	 	 	 	 	 	 	 	 	 	 	 	 	 	 	1581522192	1.15	2.13
12/02/2020 15:43:13	120220	12022020	154313	82.51	12.418945	-56.989295	82.61	-0.050	0.640	1.040	82.55	-0.80	1.50	 	 	 	 	 	 	 	 	 	 	 	 	 	 	 	 	 	 	1581522193	0.79	1.46
12/02/2020 15:43:14	120220	12022020	154314	82.63	12.418947	-56.989293	82.72	-0.670	1.210	1.110	82.63	-0.20	1.50	 	 	 	 	 	 	 	 	 	 	 	 	 	 	 	 	 	 	1581522194	0.59	1.09
12/02/2020 15:43:15	120220	12022020	154315	82.53	12.418947	-56.989288	82.61	-0.860	1.060	1.310	82.50	-0.40	1.70	 	 	 	 	 	 	 	 	 	 	 	 	 	 	 	 	 	 	1581522195	1.01	1.87
12/02/2020 15:43:16	120220	12022020	154316	82.41	12.418947	-56.989282	82.52	-0.640	0.490	1.460	82.40	-0.90	1.90	 	 	 	 	 	 	 	 	 	 	 	 	 	 	 	 	 	 	1581522196	1.43	2.65
12/02/2020 15:43:17	120220	12022020	154317	82.47	12.418947	-56.989275	82.67	-0.210	-0.290	1.370	82.51	-1.70	1.80	 	 	 	 	 	 	 	 	 	 	 	 	 	 	 	 	 	 	1581522197	1.50	2.78
12/02/2020 15:43:18	120220	12022020	154318	82.71	12.418948	-56.989267	82.82	0.290	-1.250	1.220	82.71	-2.60	1.60	 	 	 	 	 	 	 	 	 	 	 	 	 	 	 	 	 	 	1581522198	1.64	3.04
12/02/2020 15:43:19	120220	12022020	154319	82.51	12.418950	-56.989257	82.52	0.770	-2.020	1.400	82.41	-3.40	1.80	 	 	 	 	 	 	 	 	 	 	 	 	 	 	 	 	 	 	1581522199	2.01	3.72
12/02/2020 15:43:20	120220	12022020	154320	81.88	12.418952	-56.989248	81.88	1.010	-1.800	1.670	81.77	-3.30	2.10	 	 	 	 	 	 	 	 	 	 	 	 	 	 	 	 	 	 	1581522200	1.99	3.69
12/02/2020 15:43:21	120220	12022020	154321	81.49	12.418955	-56.989243	81.56	0.750	-0.360	1.520	81.48	-1.90	2.00	 	 	 	 	 	 	 	 	 	 	 	 	 	 	 	 	 	 	1581522201	1.13	2.09
12/02/2020 15:43:22	120220	12022020	154322	81.64	12.418958	-56.989245	81.78	0.020	1.280	1.090	81.71	-0.20	1.50	 	 	 	 	 	 	 	 	 	 	 	 	 	 	 	 	 	 	1581522202	0.89	1.65
12/02/2020 15:43:23	120220	12022020	154323	82.00	12.418962	-56.989245	82.13	-0.820	1.990	0.860	82.06	0.60	1.30	 	 	 	 	 	 	 	 	 	 	 	 	 	 	 	 	 	 	1581522203	0.70	1.30
12/02/2020 15:43:24	120220	12022020	154324	82.24	12.418962	-56.989242	82.33	-1.230	1.310	0.780	82.26	-0.00	1.20	 	 	 	 	 	 	 	 	 	 	 	 	 	 	 	 	 	 	1581522204	0.78	1.44
12/02/2020 15:43:25	120220	12022020	154325	82.26	12.418963	-56.989233	82.32	-0.870	-0.180	0.660	82.24	-1.50	1.10	 	 	 	 	 	 	 	 	 	 	 	 	 	 	 	 	 	 	1581522205	1.86	3.44
12/02/2020 15:43:26	120220	12022020	154326	82.17	12.418963	-56.989223	82.22	0.020	-1.540	0.510	82.15	-2.90	0.90	 	 	 	 	 	 	 	 	 	 	 	 	 	 	 	 	 	 	1581522206	2.31	4.28
12/02/2020 15:43:27	120220	12022020	154327	82.04	12.418965	-56.989213	82.07	0.710	-1.920	0.590	82.00	-3.40	1.00	 	 	 	 	 	 	 	 	 	 	 	 	 	 	 	 	 	 	1581522207	1.98	3.67
12/02/2020 15:43:28	120220	12022020	154328	81.82	12.418967	-56.989208	81.85	0.710	-1.180	1.010	81.77	-2.70	1.40	 	 	 	 	 	 	 	 	 	 	 	 	 	 	 	 	 	 	1581522208	0.97	1.80
12/02/2020 15:43:29	120220	12022020	154329	81.63	12.418967	-56.989208	81.63	0.120	0.120	1.390	81.59	-1.40	1.80	 	 	 	 	 	 	 	 	 	 	 	 	 	 	 	 	 	 	1581522209	0.09	0.17
12/02/2020 15:43:30	120220	12022020	154330	81.41	12.418967	-56.989210	81.45	-0.430	0.900	1.430	81.38	-0.50	1.90	 	 	 	 	 	 	 	 	 	 	 	 	 	 	 	 	 	 	1581522210	0.22	0.41
12/02/2020 15:43:31	120220	12022020	154331	81.20	12.418968	-56.989207	81.23	-0.340	0.410	1.170	81.16	-1.00	1.60	 	 	 	 	 	 	 	 	 	 	 	 	 	 	 	 	 	 	1581522211	0.77	1.43
12/02/2020 15:43:32	120220	12022020	154332	81.04	12.418972	-56.989197	81.08	0.330	-0.740	0.790	81.02	-2.10	1.20	 	 	 	 	 	 	 	 	 	 	 	 	 	 	 	 	 	 	1581522212	2.16	4.00
12/02/2020 15:43:33	120220	12022020	154333	81.01	12.418977	-56.989187	81.07	0.850	-1.070	0.470	81.01	-2.50	0.90	 	 	 	 	 	 	 	 	 	 	 	 	 	 	 	 	 	 	1581522213	2.42	4.48
12/02/2020 15:43:34	120220	12022020	154334	81.04	12.418980	-56.989182	81.09	0.590	-0.100	0.210	81.04	-1.60	0.70	 	 	 	 	 	 	 	 	 	 	 	 	 	 	 	 	 	 	1581522214	1.20	2.22
12/02/2020 15:43:35	120220	12022020	154335	81.02	12.418983	-56.989185	81.06	-0.290	1.060	-0.050	81.00	-0.40	0.40	 	 	 	 	 	 	 	 	 	 	 	 	 	 	 	 	 	 	1581522215	0.75	1.39
12/02/2020 15:43:36	120220	12022020	154336	80.88	12.418985	-56.989187	80.89	-1.050	1.190	-0.140	80.83	-0.20	0.30	 	 	 	 	 	 	 	 	 	 	 	 	 	 	 	 	 	 	1581522216	0.48	0.89
12/02/2020 15:43:37	120220	12022020	154337	80.58	12.418983	-56.989182	80.57	-1.080	0.170	0.140	80.50	-1.20	0.50	 	 	 	 	 	 	 	 	 	 	 	 	 	 	 	 	 	 	1581522217	0.91	1.69
12/02/2020 15:43:38	120220	12022020	154338	80.15	12.418982	-56.989173	80.14	-0.450	-0.970	0.600	80.05	-2.30	1.00	 	 	 	 	 	 	 	 	 	 	 	 	 	 	 	 	 	 	1581522218	1.87	3.46
12/02/2020 15:43:39	120220	12022020	154339	79.73	12.418982	-56.989167	79.75	0.300	-1.400	0.950	79.66	-2.80	1.40	 	 	 	 	 	 	 	 	 	 	 	 	 	 	 	 	 	 	1581522219	1.58	2.93
12/02/2020 15:43:40	120220	12022020	154340	79.50	12.418983	-56.989162	79.57	0.680	-1.190	0.980	79.49	-2.60	1.40	 	 	 	 	 	 	 	 	 	 	 	 	 	 	 	 	 	 	1581522220	0.87	1.61
12/02/2020 15:43:41	120220	12022020	154341	79.49	12.418987	-56.989160	79.58	0.630	-0.820	0.730	79.50	-2.30	1.20	 	 	 	 	 	 	 	 	 	 	 	 	 	 	 	 	 	 	1581522221	1.01	1.87
12/02/2020 15:43:42	120220	12022020	154342	79.62	12.418992	-56.989158	79.71	0.360	-0.390	0.530	79.65	-1.80	1.00	 	 	 	 	 	 	 	 	 	 	 	 	 	 	 	 	 	 	1581522222	1.17	2.17
12/02/2020 15:43:43	120220	12022020	154343	79.74	12.418993	-56.989155	79.85	0.030	0.300	0.670	79.76	-1.20	1.10	 	 	 	 	 	 	 	 	 	 	 	 	 	 	 	 	 	 	1581522223	0.74	1.37
12/02/2020 15:43:44	120220	12022020	154344	79.83	12.418992	-56.989153	79.91	-0.230	0.990	1.060	79.83	-0.50	1.50	 	 	 	 	 	 	 	 	 	 	 	 	 	 	 	 	 	 	1581522224	0.44	0.81
12/02/2020 15:43:45	120220	12022020	154345	79.74	12.418988	-56.989152	79.77	-0.320	1.130	1.400	79.69	-0.30	1.80	 	 	 	 	 	 	 	 	 	 	 	 	 	 	 	 	 	 	1581522225	0.77	1.43
12/02/2020 15:43:46	120220	12022020	154346	79.29	12.418987	-56.989148	79.25	-0.230	0.600	1.690	79.15	-0.80	2.10	 	 	 	 	 	 	 	 	 	 	 	 	 	 	 	 	 	 	1581522226	0.84	1.56
12/02/2020 15:43:47	120220	12022020	154347	78.60	12.418988	-56.989143	78.58	-0.020	-0.390	1.820	78.49	-1.70	2.20	 	 	 	 	 	 	 	 	 	 	 	 	 	 	 	 	 	 	1581522227	1.16	2.15
12/02/2020 15:43:48	120220	12022020	154348	78.22	12.418992	-56.989137	78.27	0.250	-1.370	1.550	78.20	-2.70	2.00	 	 	 	 	 	 	 	 	 	 	 	 	 	 	 	 	 	 	1581522228	1.58	2.93
12/02/2020 15:43:49	120220	12022020	154349	78.22	12.418998	-56.989132	78.30	0.430	-1.790	0.980	78.25	-3.20	1.50	 	 	 	 	 	 	 	 	 	 	 	 	 	 	 	 	 	 	1581522229	1.84	3.41
12/02/2020 15:43:50	120220	12022020	154350	78.38	12.419007	-56.989128	78.44	0.380	-1.350	0.290	78.42	-2.80	0.80	 	 	 	 	 	 	 	 	 	 	 	 	 	 	 	 	 	 	1581522230	1.68	3.11
12/02/2020 15:43:51	120220	12022020	154351	78.58	12.419012	-56.989128	78.64	0.090	-0.200	-0.250	78.62	-1.70	0.20	 	 	 	 	 	 	 	 	 	 	 	 	 	 	 	 	 	 	1581522231	1.20	2.22
12/02/2020 15:43:52	120220	12022020	154352	78.79	12.419013	-56.989130	78.85	-0.300	1.020	-0.310	78.83	-0.50	0.10	 	 	 	 	 	 	 	 	 	 	 	 	 	 	 	 	 	 	1581522232	0.60	1.11
12/02/2020 15:43:53	120220	12022020	154353	78.91	12.419012	-56.989132	78.94	-0.610	1.660	0.190	78.90	0.20	0.60	 	 	 	 	 	 	 	 	 	 	 	 	 	 	 	 	 	 	1581522233	0.45	0.83
12/02/2020 15:43:54	120220	12022020	154354	78.77	12.419008	-56.989130	78.77	-0.660	1.220	0.950	78.71	-0.20	1.30	 	 	 	 	 	 	 	 	 	 	 	 	 	 	 	 	 	 	1581522234	0.93	1.72
12/02/2020 15:43:55	120220	12022020	154355	78.35	12.419005	-56.989125	78.33	-0.330	-0.120	1.670	78.23	-1.50	2.00	 	 	 	 	 	 	 	 	 	 	 	 	 	 	 	 	 	 	1581522235	1.47	2.72
12/02/2020 15:43:56	120220	12022020	154356	77.73	12.419003	-56.989115	77.73	0.330	-1.610	2.170	77.62	-2.90	2.60	 	 	 	 	 	 	 	 	 	 	 	 	 	 	 	 	 	 	1581522236	1.84	3.41
12/02/2020 15:43:57	120220	12022020	154357	77.29	12.419005	-56.989108	77.35	0.920	-2.360	2.260	77.26	-3.80	2.70	 	 	 	 	 	 	 	 	 	 	 	 	 	 	 	 	 	 	1581522237	1.78	3.30
12/02/2020 15:43:58	120220	12022020	154358	77.34	12.419012	-56.989103	77.46	1.050	-1.890	1.850	77.40	-3.40	2.30	 	 	 	 	 	 	 	 	 	 	 	 	 	 	 	 	 	 	1581522238	1.45	2.69
12/02/2020 15:43:59	120220	12022020	154359	77.71	12.419017	-56.989105	77.82	0.590	-0.400	1.230	77.78	-1.90	1.70	 	 	 	 	 	 	 	 	 	 	 	 	 	 	 	 	 	 	1581522239	1.35	2.50
12/02/2020 15:44:00	120220	12022020	154400	77.96	12.419022	-56.989108	78.03	-0.200	1.290	0.800	77.99	-0.20	1.30	 	 	 	 	 	 	 	 	 	 	 	 	 	 	 	 	 	 	1581522240	1.28	2.37
12/02/2020 15:44:01	120220	12022020	154401	77.96	12.419022	-56.989113	77.99	-0.950	2.220	0.630	77.94	0.80	1.10	 	 	 	 	 	 	 	 	 	 	 	 	 	 	 	 	 	 	1581522241	0.91	1.69
12/02/2020 15:44:02	120220	12022020	154402	77.77	12.419022	-56.989113	77.80	-1.230	1.730	0.540	77.72	0.40	1.00	1016.90	26.60	26.70	20.40	20.50	877.0	68.0	68.0	426.0	28.8	359.00	11.00	80.00	10.40	65968	9330.0	27.5	27.4	1581522242	0.10	0.19
12/02/2020 15:44:03	120220	12022020	154403	77.54	12.419023	-56.989108	77.59	-0.850	0.010	0.420	77.50	-1.30	0.90	 	 	 	 	 	 	 	 	 	 	 	 	 	 	 	 	 	 	1581522243	1.13	2.09
12/02/2020 15:44:04	120220	12022020	154404	77.39	12.419027	-56.989100	77.44	0.030	-1.870	0.230	77.37	-3.20	0.70	 	 	 	 	 	 	 	 	 	 	 	 	 	 	 	 	 	 	1581522244	2.04	3.78
12/02/2020 15:44:05	120220	12022020	154405	77.27	12.419032	-56.989092	77.32	0.870	-2.500	0.100	77.25	-3.90	0.50	 	 	 	 	 	 	 	 	 	 	 	 	 	 	 	 	 	 	1581522245	1.94	3.59
12/02/2020 15:44:06	120220	12022020	154406	77.22	12.419035	-56.989090	77.28	1.070	-1.510	0.110	77.23	-3.00	0.50	 	 	 	 	 	 	 	 	 	 	 	 	 	 	 	 	 	 	1581522246	0.85	1.57
12/02/2020 15:44:07	120220	12022020	154407	77.27	12.419037	-56.989093	77.30	0.560	0.110	0.290	77.27	-1.40	0.70	 	 	 	 	 	 	 	 	 	 	 	 	 	 	 	 	 	 	1581522247	0.93	1.72
12/02/2020 15:44:08	120220	12022020	154408	77.18	12.419037	-56.989098	77.20	-0.180	1.110	0.690	77.14	-0.30	1.10	 	 	 	 	 	 	 	 	 	 	 	 	 	 	 	 	 	 	1581522248	0.92	1.70
12/02/2020 15:44:09	120220	12022020	154409	76.83	12.419035	-56.989098	76.84	-0.610	1.000	1.220	76.75	-0.40	1.60	 	 	 	 	 	 	 	 	 	 	 	 	 	 	 	 	 	 	1581522249	0.15	0.28
12/02/2020 15:44:10	120220	12022020	154410	76.45	12.419035	-56.989093	76.49	-0.540	0.200	1.600	76.41	-1.10	2.00	 	 	 	 	 	 	 	 	 	 	 	 	 	 	 	 	 	 	1581522250	1.00	1.85
12/02/2020 15:44:11	120220	12022020	154411	76.35	12.419035	-56.989087	76.43	-0.160	-0.530	1.630	76.37	-1.90	2.00	 	 	 	 	 	 	 	 	 	 	 	 	 	 	 	 	 	 	1581522251	1.29	2.39
12/02/2020 15:44:12	120220	12022020	154412	76.48	12.419038	-56.989083	76.56	0.190	-0.780	1.460	76.50	-2.20	1.90	 	 	 	 	 	 	 	 	 	 	 	 	 	 	 	 	 	 	1581522252	0.94	1.74
12/02/2020 15:44:13	120220	12022020	154413	76.53	12.419040	-56.989082	76.57	0.360	-0.810	1.290	76.51	-2.20	1.70	 	 	 	 	 	 	 	 	 	 	 	 	 	 	 	 	 	 	1581522253	0.67	1.24
12/02/2020 15:44:14	120220	12022020	154414	76.46	12.419043	-56.989080	76.51	0.280	-0.670	1.060	76.44	-2.10	1.50	 	 	 	 	 	 	 	 	 	 	 	 	 	 	 	 	 	 	1581522254	0.67	1.24
12/02/2020 15:44:15	120220	12022020	154415	76.34	12.419045	-56.989078	76.37	-0.010	-0.130	0.750	76.31	-1.60	1.20	 	 	 	 	 	 	 	 	 	 	 	 	 	 	 	 	 	 	1581522255	0.49	0.91
12/02/2020 15:44:16	120220	12022020	154416	76.20	12.419048	-56.989080	76.21	-0.250	0.580	0.340	76.16	-0.90	0.80	 	 	 	 	 	 	 	 	 	 	 	 	 	 	 	 	 	 	1581522256	0.75	1.39
12/02/2020 15:44:17	120220	12022020	154417	76.00	12.419052	-56.989083	76.00	-0.230	0.790	0.080	75.95	-0.60	0.50	 	 	 	 	 	 	 	 	 	 	 	 	 	 	 	 	 	 	1581522257	1.07	1.98
12/02/2020 15:44:18	120220	12022020	154418	75.78	12.419057	-56.989083	75.78	-0.020	0.370	0.040	75.74	-1.00	0.50	 	 	 	 	 	 	 	 	 	 	 	 	 	 	 	 	 	 	1581522258	0.90	1.67
12/02/2020 15:44:19	120220	12022020	154419	75.63	12.419060	-56.989080	75.61	0.110	-0.210	0.070	75.60	-1.60	0.50	 	 	 	 	 	 	 	 	 	 	 	 	 	 	 	 	 	 	1581522259	0.83	1.54
12/02/2020 15:44:20	120220	12022020	154420	75.47	12.419062	-56.989078	75.47	0.080	-0.720	0.110	75.43	-2.10	0.50	 	 	 	 	 	 	 	 	 	 	 	 	 	 	 	 	 	 	1581522260	0.62	1.15
12/02/2020 15:44:21	120220	12022020	154421	75.26	12.419063	-56.989075	75.26	0.080	-1.350	0.410	75.22	-2.70	0.80	 	 	 	 	 	 	 	 	 	 	 	 	 	 	 	 	 	 	1581522261	0.65	1.20
12/02/2020 15:44:22	120220	12022020	154422	75.02	12.419063	-56.989070	75.04	0.230	-1.840	0.910	74.99	-3.20	1.30	 	 	 	 	 	 	 	 	 	 	 	 	 	 	 	 	 	 	1581522262	1.14	2.11
12/02/2020 15:44:23	120220	12022020	154423	74.97	12.419063	-56.989065	75.01	0.310	-1.320	1.240	74.98	-2.80	1.60	 	 	 	 	 	 	 	 	 	 	 	 	 	 	 	 	 	 	1581522263	1.12	2.07
12/02/2020 15:44:24	120220	12022020	154424	75.08	12.419062	-56.989065	75.14	0.090	0.420	1.430	75.10	-1.10	1.80	 	 	 	 	 	 	 	 	 	 	 	 	 	 	 	 	 	 	1581522264	0.24	0.44
12/02/2020 15:44:25	120220	12022020	154425	75.13	12.419060	-56.989072	75.17	-0.370	2.230	1.520	75.11	0.70	1.90	 	 	 	 	 	 	 	 	 	 	 	 	 	 	 	 	 	 	1581522265	1.47	2.72
12/02/2020 15:44:26	120220	12022020	154426	74.99	12.419058	-56.989078	75.00	-0.730	2.610	1.390	74.94	1.20	1.80	 	 	 	 	 	 	 	 	 	 	 	 	 	 	 	 	 	 	1581522266	1.40	2.59
12/02/2020 15:44:27	120220	12022020	154427	74.76	12.419062	-56.989080	74.78	-0.640	1.110	0.940	74.72	-0.20	1.40	 	 	 	 	 	 	 	 	 	 	 	 	 	 	 	 	 	 	1581522267	0.75	1.39
12/02/2020 15:44:28	120220	12022020	154428	74.58	12.419068	-56.989075	74.61	-0.100	-1.270	0.390	74.55	-2.50	0.80	 	 	 	 	 	 	 	 	 	 	 	 	 	 	 	 	 	 	1581522268	1.85	3.43
12/02/2020 15:44:29	120220	12022020	154429	74.42	12.419077	-56.989067	74.43	0.580	-3.050	-0.030	74.38	-4.40	0.40	 	 	 	 	 	 	 	 	 	 	 	 	 	 	 	 	 	 	1581522269	2.22	4.11
12/02/2020 15:44:30	120220	12022020	154430	74.25	12.419082	-56.989062	74.25	0.950	-3.160	-0.210	74.22	-4.60	0.20	 	 	 	 	 	 	 	 	 	 	 	 	 	 	 	 	 	 	1581522270	1.58	2.93
12/02/2020 15:44:31	120220	12022020	154431	74.17	12.419085	-56.989063	74.17	0.750	-1.550	-0.050	74.16	-3.00	0.40	 	 	 	 	 	 	 	 	 	 	 	 	 	 	 	 	 	 	1581522271	0.56	1.04
12/02/2020 15:44:32	120220	12022020	154432	74.13	12.419083	-56.989068	74.16	0.110	0.670	0.420	74.13	-0.80	0.80	 	 	 	 	 	 	 	 	 	 	 	 	 	 	 	 	 	 	1581522272	1.33	2.46
12/02/2020 15:44:33	120220	12022020	154433	74.14	12.419078	-56.989075	74.18	-0.490	2.080	0.830	74.14	0.70	1.20	 	 	 	 	 	 	 	 	 	 	 	 	 	 	 	 	 	 	1581522273	1.55	2.87
12/02/2020 15:44:34	120220	12022020	154434	74.12	12.419078	-56.989078	74.15	-0.670	1.990	1.050	74.11	0.60	1.40	 	 	 	 	 	 	 	 	 	 	 	 	 	 	 	 	 	 	1581522274	0.55	1.02
12/02/2020 15:44:35	120220	12022020	154435	74.10	12.419078	-56.989075	74.12	-0.460	0.840	1.120	74.09	-0.50	1.50	 	 	 	 	 	 	 	 	 	 	 	 	 	 	 	 	 	 	1581522275	0.68	1.26
12/02/2020 15:44:36	120220	12022020	154436	74.08	12.419080	-56.989070	74.11	-0.170	-0.430	1.170	74.07	-1.80	1.60	 	 	 	 	 	 	 	 	 	 	 	 	 	 	 	 	 	 	1581522276	1.13	2.09
12/02/2020 15:44:37	120220	12022020	154437	73.99	12.419082	-56.989067	74.01	-0.000	-1.170	1.190	73.96	-2.50	1.60	 	 	 	 	 	 	 	 	 	 	 	 	 	 	 	 	 	 	1581522277	0.74	1.37
12/02/2020 15:44:38	120220	12022020	154438	73.77	12.419083	-56.989067	73.75	0.090	-1.280	1.170	73.70	-2.70	1.60	 	 	 	 	 	 	 	 	 	 	 	 	 	 	 	 	 	 	1581522278	0.33	0.61
12/02/2020 15:44:39	120220	12022020	154439	73.43	12.419087	-56.989068	73.42	0.160	-1.010	1.160	73.37	-2.40	1.60	 	 	 	 	 	 	 	 	 	 	 	 	 	 	 	 	 	 	1581522279	0.64	1.19
12/02/2020 15:44:40	120220	12022020	154440	73.19	12.419088	-56.989070	73.22	0.190	-0.610	1.040	73.16	-2.00	1.50	 	 	 	 	 	 	 	 	 	 	 	 	 	 	 	 	 	 	1581522280	0.80	1.48
12/02/2020 15:44:41	120220	12022020	154441	73.12	12.419092	-56.989072	73.19	0.170	-0.240	0.740	73.13	-1.60	1.20	 	 	 	 	 	 	 	 	 	 	 	 	 	 	 	 	 	 	1581522281	0.79	1.46
12/02/2020 15:44:42	120220	12022020	154442	73.20	12.419095	-56.989073	73.26	0.190	-0.010	0.260	73.22	-1.40	0.70	 	 	 	 	 	 	 	 	 	 	 	 	 	 	 	 	 	 	1581522282	0.81	1.50
12/02/2020 15:44:43	120220	12022020	154443	73.33	12.419100	-56.989073	73.38	0.280	0.010	-0.180	73.35	-1.40	0.30	 	 	 	 	 	 	 	 	 	 	 	 	 	 	 	 	 	 	1581522283	0.88	1.63
12/02/2020 15:44:44	120220	12022020	154444	73.33	12.419103	-56.989073	73.35	0.340	0.010	-0.160	73.30	-1.40	0.20	 	 	 	 	 	 	 	 	 	 	 	 	 	 	 	 	 	 	1581522284	0.71	1.31
12/02/2020 15:44:45	120220	12022020	154445	73.16	12.419103	-56.989072	73.18	0.230	0.140	0.270	73.13	-1.30	0.60	 	 	 	 	 	 	 	 	 	 	 	 	 	 	 	 	 	 	1581522285	0.22	0.41
12/02/2020 15:44:46	120220	12022020	154446	73.00	12.419103	-56.989072	73.03	-0.050	0.240	0.620	72.98	-1.20	1.00	 	 	 	 	 	 	 	 	 	 	 	 	 	 	 	 	 	 	1581522286	0.21	0.39
12/02/2020 15:44:47	120220	12022020	154447	72.86	12.419103	-56.989072	72.89	-0.370	0.250	0.750	72.82	-1.10	1.10	 	 	 	 	 	 	 	 	 	 	 	 	 	 	 	 	 	 	1581522287	0.08	0.15
12/02/2020 15:44:48	120220	12022020	154448	72.58	12.419103	-56.989073	72.59	-0.590	0.160	0.940	72.50	-1.20	1.30	 	 	 	 	 	 	 	 	 	 	 	 	 	 	 	 	 	 	1581522288	0.29	0.54
12/02/2020 15:44:49	120220	12022020	154449	72.27	12.419105	-56.989073	72.32	-0.580	-0.270	1.180	72.24	-1.60	1.60	 	 	 	 	 	 	 	 	 	 	 	 	 	 	 	 	 	 	1581522289	0.32	0.59
12/02/2020 15:44:50	120220	12022020	154450	72.27	12.419107	-56.989073	72.37	-0.270	-0.930	1.180	72.31	-2.30	1.60	 	 	 	 	 	 	 	 	 	 	 	 	 	 	 	 	 	 	1581522290	0.52	0.96
12/02/2020 15:44:51	120220	12022020	154451	72.46	12.419110	-56.989072	72.54	0.140	-1.140	1.030	72.48	-2.50	1.40	 	 	 	 	 	 	 	 	 	 	 	 	 	 	 	 	 	 	1581522291	0.66	1.22
12/02/2020 15:44:52	120220	12022020	154452	72.37	12.419112	-56.989072	72.37	0.340	-0.540	0.940	72.30	-2.00	1.30	 	 	 	 	 	 	 	 	 	 	 	 	 	 	 	 	 	 	1581522292	0.36	0.67
12/02/2020 15:44:53	120220	12022020	154453	71.92	12.419113	-56.989075	71.90	0.230	0.260	0.810	71.83	-1.20	1.20	 	 	 	 	 	 	 	 	 	 	 	 	 	 	 	 	 	 	1581522293	0.84	1.56
12/02/2020 15:44:54	120220	12022020	154454	71.57	12.419115	-56.989080	71.60	0.020	0.480	0.560	71.54	-0.90	1.00	 	 	 	 	 	 	 	 	 	 	 	 	 	 	 	 	 	 	1581522294	1.07	1.98
12/02/2020 15:44:55	120220	12022020	154455	71.61	12.419122	-56.989080	71.78	-0.060	-0.100	0.200	71.67	-1.40	0.60	 	 	 	 	 	 	 	 	 	 	 	 	 	 	 	 	 	 	1581522295	1.12	2.07
12/02/2020 15:44:56	120220	12022020	154456	72.10	12.419127	-56.989078	72.19	0.010	-0.710	-0.070	72.18	-2.10	0.30	 	 	 	 	 	 	 	 	 	 	 	 	 	 	 	 	 	 	1581522296	1.18	2.19
12/02/2020 15:44:57	120220	12022020	154457	72.25	12.419128	-56.989077	72.21	0.090	-0.620	0.060	72.23	-2.00	0.40	 	 	 	 	 	 	 	 	 	 	 	 	 	 	 	 	 	 	1581522297	0.55	1.02
12/02/2020 15:44:58	120220	12022020	154458	71.80	12.419127	-56.989077	71.72	0.050	-0.010	0.430	71.68	-1.40	0.80	 	 	 	 	 	 	 	 	 	 	 	 	 	 	 	 	 	 	1581522298	0.39	0.72
12/02/2020 15:44:59	120220	12022020	154459	71.17	12.419125	-56.989080	71.10	-0.050	0.400	0.780	71.07	-1.00	1.20	 	 	 	 	 	 	 	 	 	 	 	 	 	 	 	 	 	 	1581522299	0.68	1.26
12/02/2020 15:45:00	120220	12022020	154500	70.77	12.419125	-56.989082	70.75	-0.070	0.210	1.000	70.73	-1.10	1.40	 	 	 	 	 	 	 	 	 	 	 	 	 	 	 	 	 	 	1581522300	0.39	0.72
12/02/2020 15:45:01	120220	12022020	154501	70.69	12.419130	-56.989082	70.71	-0.080	-0.230	0.960	70.70	-1.60	1.40	 	 	 	 	 	 	 	 	 	 	 	 	 	 	 	 	 	 	1581522301	0.86	1.59
12/02/2020 15:45:02	120220	12022020	154502	70.77	12.419135	-56.989082	70.78	-0.130	-0.470	0.630	70.79	-1.90	1.10	1017.00	26.60	26.70	20.10	20.20	864.0	67.0	67.0	424.0	28.9	7.00	10.90	81.00	10.50	66382	12143.0	27.5	27.5	1581522302	1.22	2.26
12/02/2020 15:45:03	120220	12022020	154503	70.78	12.419140	-56.989085	70.75	-0.150	-0.410	0.390	70.76	-1.80	0.80	 	 	 	 	 	 	 	 	 	 	 	 	 	 	 	 	 	 	1581522303	1.19	2.20
12/02/2020 15:45:04	120220	12022020	154504	70.72	12.419143	-56.989087	70.71	-0.110	-0.200	0.360	70.72	-1.60	0.80	 	 	 	 	 	 	 	 	 	 	 	 	 	 	 	 	 	 	1581522304	0.91	1.69
12/02/2020 15:45:05	120220	12022020	154505	70.72	12.419145	-56.989088	70.71	0.000	-0.070	0.510	70.72	-1.40	0.90	 	 	 	 	 	 	 	 	 	 	 	 	 	 	 	 	 	 	1581522305	0.53	0.98
12/02/2020 15:45:06	120220	12022020	154506	70.68	12.419145	-56.989090	70.66	0.110	-0.130	0.770	70.65	-1.50	1.20	 	 	 	 	 	 	 	 	 	 	 	 	 	 	 	 	 	 	1581522306	0.16	0.30
12/02/2020 15:45:07	120220	12022020	154507	70.54	12.419143	-56.989088	70.53	0.200	-0.400	1.050	70.51	-1.70	1.40	 	 	 	 	 	 	 	 	 	 	 	 	 	 	 	 	 	 	1581522307	0.25	0.46
12/02/2020 15:45:08	120220	12022020	154508	70.42	12.419145	-56.989088	70.44	0.270	-0.680	1.180	70.42	-2.00	1.60	 	 	 	 	 	 	 	 	 	 	 	 	 	 	 	 	 	 	1581522308	0.29	0.54
12/02/2020 15:45:09	120220	12022020	154509	70.38	12.419147	-56.989088	70.36	0.260	-0.680	1.100	70.36	-2.10	1.50	 	 	 	 	 	 	 	 	 	 	 	 	 	 	 	 	 	 	1581522309	0.63	1.17
12/02/2020 15:45:10	120220	12022020	154510	69.98	12.419152	-56.989090	69.90	0.070	-0.240	1.010	69.85	-1.70	1.40	 	 	 	 	 	 	 	 	 	 	 	 	 	 	 	 	 	 	1581522310	0.92	1.70
12/02/2020 15:45:11	120220	12022020	154511	69.25	12.419155	-56.989093	69.17	-0.260	0.490	1.000	69.12	-0.90	1.40	 	 	 	 	 	 	 	 	 	 	 	 	 	 	 	 	 	 	1581522311	1.11	2.06
12/02/2020 15:45:12	120220	12022020	154512	68.71	12.419158	-56.989098	68.70	-0.550	1.030	0.790	68.67	-0.40	1.20	 	 	 	 	 	 	 	 	 	 	 	 	 	 	 	 	 	 	1581522312	1.33	2.46
12/02/2020 15:45:13	120220	12022020	154513	68.72	12.419163	-56.989103	68.79	-0.600	0.790	0.180	68.79	-0.50	0.60	 	 	 	 	 	 	 	 	 	 	 	 	 	 	 	 	 	 	1581522313	1.44	2.67
12/02/2020 15:45:14	120220	12022020	154514	69.18	12.419170	-56.989105	69.27	-0.340	-0.320	-0.690	69.29	-1.60	-0.20	 	 	 	 	 	 	 	 	 	 	 	 	 	 	 	 	 	 	1581522314	1.54	2.85
12/02/2020 15:45:15	120220	12022020	154515	69.62	12.419177	-56.989103	69.65	0.080	-1.470	-1.170	69.66	-2.80	-0.70	 	 	 	 	 	 	 	 	 	 	 	 	 	 	 	 	 	 	1581522315	1.62	3.00
12/02/2020 15:45:16	120220	12022020	154516	69.63	12.419180	-56.989102	69.59	0.410	-1.650	-0.810	69.56	-3.00	-0.50	 	 	 	 	 	 	 	 	 	 	 	 	 	 	 	 	 	 	1581522316	0.87	1.61
12/02/2020 15:45:17	120220	12022020	154517	69.10	12.419178	-56.989103	69.04	0.430	-0.860	0.160	68.96	-2.30	0.50	 	 	 	 	 	 	 	 	 	 	 	 	 	 	 	 	 	 	1581522317	0.45	0.83
12/02/2020 15:45:18	120220	12022020	154518	68.37	12.419175	-56.989107	68.34	0.270	0.040	1.210	68.24	-1.40	1.60	 	 	 	 	 	 	 	 	 	 	 	 	 	 	 	 	 	 	1581522318	1.12	2.07
12/02/2020 15:45:19	120220	12022020	154519	67.90	12.419172	-56.989108	67.98	0.130	0.430	1.750	67.87	-1.00	2.10	 	 	 	 	 	 	 	 	 	 	 	 	 	 	 	 	 	 	1581522319	0.68	1.26
12/02/2020 15:45:20	120220	12022020	154520	67.91	12.419173	-56.989110	68.05	0.080	0.400	1.710	67.96	-1.00	2.10	 	 	 	 	 	 	 	 	 	 	 	 	 	 	 	 	 	 	1581522320	0.43	0.80
12/02/2020 15:45:21	120220	12022020	154521	68.08	12.419178	-56.989110	68.22	-0.080	0.450	1.450	68.11	-1.00	1.90	 	 	 	 	 	 	 	 	 	 	 	 	 	 	 	 	 	 	1581522321	0.88	1.63
12/02/2020 15:45:22	120220	12022020	154522	68.01	12.419182	-56.989113	68.05	-0.410	0.510	1.190	67.93	-0.90	1.60	 	 	 	 	 	 	 	 	 	 	 	 	 	 	 	 	 	 	1581522322	1.00	1.85
12/02/2020 15:45:23	120220	12022020	154523	67.60	12.419185	-56.989118	67.45	-0.770	0.240	0.900	67.47	-1.10	1.30	 	 	 	 	 	 	 	 	 	 	 	 	 	 	 	 	 	 	1581522323	1.08	2.00
12/02/2020 15:45:24	120220	12022020	154524	66.74	12.419190	-56.989120	66.74	-0.810	-0.340	0.540	66.63	-1.70	1.00	 	 	 	 	 	 	 	 	 	 	 	 	 	 	 	 	 	 	1581522324	1.17	2.17
12/02/2020 15:45:25	120220	12022020	154525	66.29	12.419195	-56.989123	66.34	-0.300	-0.990	0.010	66.26	-2.40	0.50	 	 	 	 	 	 	 	 	 	 	 	 	 	 	 	 	 	 	1581522325	1.43	2.65
12/02/2020 15:45:26	120220	12022020	154526	66.36	12.419203	-56.989125	66.47	0.570	-1.510	-0.610	66.42	-2.90	-0.10	 	 	 	 	 	 	 	 	 	 	 	 	 	 	 	 	 	 	1581522326	1.67	3.09
12/02/2020 15:45:27	120220	12022020	154527	66.71	12.419210	-56.989127	66.79	1.250	-1.580	-1.050	66.77	-3.00	-0.60	 	 	 	 	 	 	 	 	 	 	 	 	 	 	 	 	 	 	1581522327	1.49	2.76
12/02/2020 15:45:28	120220	12022020	154528	66.81	12.419213	-56.989127	66.81	1.180	-0.810	-1.010	66.75	-2.30	-0.60	 	 	 	 	 	 	 	 	 	 	 	 	 	 	 	 	 	 	1581522328	0.82	1.52
12/02/2020 15:45:29	120220	12022020	154529	66.28	12.419213	-56.989132	66.20	0.350	0.720	-0.350	66.12	-0.80	0.00	 	 	 	 	 	 	 	 	 	 	 	 	 	 	 	 	 	 	1581522329	0.88	1.63
12/02/2020 15:45:30	120220	12022020	154530	65.45	12.419208	-56.989138	65.38	-0.650	1.890	0.600	65.29	0.40	1.00	 	 	 	 	 	 	 	 	 	 	 	 	 	 	 	 	 	 	1581522330	1.61	2.98
12/02/2020 15:45:31	120220	12022020	154531	64.83	12.419207	-56.989142	64.83	-1.100	1.580	1.270	64.75	0.20	1.70	 	 	 	 	 	 	 	 	 	 	 	 	 	 	 	 	 	 	1581522331	0.98	1.81
12/02/2020 15:45:32	120220	12022020	154532	64.59	12.419208	-56.989142	64.64	-0.880	0.240	1.490	64.58	-1.10	1.90	 	 	 	 	 	 	 	 	 	 	 	 	 	 	 	 	 	 	1581522332	0.52	0.96
12/02/2020 15:45:33	120220	12022020	154533	64.51	12.419213	-56.989138	64.54	-0.350	-0.940	1.460	64.48	-2.30	1.90	 	 	 	 	 	 	 	 	 	 	 	 	 	 	 	 	 	 	1581522333	1.08	2.00
12/02/2020 15:45:34	120220	12022020	154534	64.28	12.419217	-56.989140	64.28	0.080	-1.410	1.450	64.21	-2.80	1.90	 	 	 	 	 	 	 	 	 	 	 	 	 	 	 	 	 	 	1581522334	0.76	1.41
12/02/2020 15:45:35	120220	12022020	154535	63.90	12.419218	-56.989142	63.90	0.300	-1.370	1.340	63.82	-2.80	1.80	 	 	 	 	 	 	 	 	 	 	 	 	 	 	 	 	 	 	1581522335	0.77	1.43
12/02/2020 15:45:36	120220	12022020	154536	63.51	12.419223	-56.989147	63.50	0.430	-1.030	0.980	63.44	-2.50	1.40	 	 	 	 	 	 	 	 	 	 	 	 	 	 	 	 	 	 	1581522336	1.11	2.06
12/02/2020 15:45:37	120220	12022020	154537	63.13	12.419228	-56.989152	63.11	0.490	-0.420	0.550	63.06	-1.90	1.00	 	 	 	 	 	 	 	 	 	 	 	 	 	 	 	 	 	 	1581522337	1.54	2.85
12/02/2020 15:45:38	120220	12022020	154538	62.85	12.419233	-56.989157	62.87	0.450	0.250	0.240	62.83	-1.20	0.70	 	 	 	 	 	 	 	 	 	 	 	 	 	 	 	 	 	 	1581522338	1.65	3.06
12/02/2020 15:45:39	120220	12022020	154539	62.84	12.419237	-56.989162	62.88	0.270	0.690	-0.030	62.84	-0.70	0.40	 	 	 	 	 	 	 	 	 	 	 	 	 	 	 	 	 	 	1581522339	1.39	2.57
12/02/2020 15:45:40	120220	12022020	154540	62.79	12.419240	-56.989165	62.80	0.030	0.670	-0.150	62.75	-0.70	0.30	 	 	 	 	 	 	 	 	 	 	 	 	 	 	 	 	 	 	1581522340	1.02	1.89
12/02/2020 15:45:41	120220	12022020	154541	62.50	12.419243	-56.989167	62.46	-0.170	0.200	-0.110	62.41	-1.20	0.30	 	 	 	 	 	 	 	 	 	 	 	 	 	 	 	 	 	 	1581522341	0.69	1.28
12/02/2020 15:45:42	120220	12022020	154542	62.01	12.419245	-56.989168	61.97	-0.310	-0.280	0.120	61.89	-1.60	0.50	 	 	 	 	 	 	 	 	 	 	 	 	 	 	 	 	 	 	1581522342	0.60	1.11
12/02/2020 15:45:43	120220	12022020	154543	61.49	12.419247	-56.989168	61.49	-0.410	-0.510	0.560	61.40	-1.90	0.90	 	 	 	 	 	 	 	 	 	 	 	 	 	 	 	 	 	 	1581522343	0.36	0.67
12/02/2020 15:45:44	120220	12022020	154544	61.19	12.419248	-56.989170	61.25	-0.360	-0.690	0.900	61.16	-2.10	1.30	 	 	 	 	 	 	 	 	 	 	 	 	 	 	 	 	 	 	1581522344	0.43	0.80
12/02/2020 15:45:45	120220	12022020	154545	61.11	12.419250	-56.989173	61.15	-0.090	-0.900	1.000	61.09	-2.30	1.40	 	 	 	 	 	 	 	 	 	 	 	 	 	 	 	 	 	 	1581522345	0.72	1.33
12/02/2020 15:45:46	120220	12022020	154546	60.88	12.419253	-56.989175	60.88	0.240	-0.620	1.120	60.81	-2.00	1.50	 	 	 	 	 	 	 	 	 	 	 	 	 	 	 	 	 	 	1581522346	0.86	1.59
12/02/2020 15:45:47	120220	12022020	154547	60.57	12.419255	-56.989178	60.51	0.330	0.170	1.260	60.50	-1.30	1.70	 	 	 	 	 	 	 	 	 	 	 	 	 	 	 	 	 	 	1581522347	0.85	1.57
12/02/2020 15:45:48	120220	12022020	154548	60.16	12.419255	-56.989185	60.20	0.120	0.810	1.120	60.12	-0.60	1.60	 	 	 	 	 	 	 	 	 	 	 	 	 	 	 	 	 	 	1581522348	1.27	2.35
12/02/2020 15:45:49	120220	12022020	154549	60.05	12.419258	-56.989192	60.13	-0.180	0.750	0.630	60.05	-0.60	1.10	 	 	 	 	 	 	 	 	 	 	 	 	 	 	 	 	 	 	1581522349	1.46	2.70
12/02/2020 15:45:50	120220	12022020	154550	60.13	12.419263	-56.989195	60.20	-0.270	-0.090	0.000	60.14	-1.40	0.50	 	 	 	 	 	 	 	 	 	 	 	 	 	 	 	 	 	 	1581522350	1.59	2.94
12/02/2020 15:45:51	120220	12022020	154551	60.10	12.419270	-56.989197	60.14	-0.050	-1.210	-0.270	60.06	-2.50	0.20	 	 	 	 	 	 	 	 	 	 	 	 	 	 	 	 	 	 	1581522351	1.52	2.82
12/02/2020 15:45:52	120220	12022020	154552	59.74	12.419275	-56.989195	59.74	0.280	-1.720	-0.160	59.64	-3.10	0.30	 	 	 	 	 	 	 	 	 	 	 	 	 	 	 	 	 	 	1581522352	1.13	2.09
12/02/2020 15:45:53	120220	12022020	154553	59.23	12.419278	-56.989197	59.22	0.430	-1.200	-0.040	59.13	-2.60	0.40	 	 	 	 	 	 	 	 	 	 	 	 	 	 	 	 	 	 	1581522353	0.71	1.31
12/02/2020 15:45:54	120220	12022020	154554	58.82	12.419280	-56.989202	58.83	0.310	-0.150	0.030	58.76	-1.60	0.40	 	 	 	 	 	 	 	 	 	 	 	 	 	 	 	 	 	 	1581522354	1.13	2.09
12/02/2020 15:45:55	120220	12022020	154555	58.57	12.419280	-56.989208	58.61	0.090	0.720	0.140	58.55	-0.70	0.60	 	 	 	 	 	 	 	 	 	 	 	 	 	 	 	 	 	 	1581522355	1.32	2.44
12/02/2020 15:45:56	120220	12022020	154556	58.54	12.419282	-56.989213	58.61	-0.150	1.100	0.170	58.56	-0.30	0.60	 	 	 	 	 	 	 	 	 	 	 	 	 	 	 	 	 	 	1581522356	1.09	2.02
12/02/2020 15:45:57	120220	12022020	154557	58.65	12.419283	-56.989218	58.71	-0.380	0.990	-0.000	58.67	-0.40	0.40	 	 	 	 	 	 	 	 	 	 	 	 	 	 	 	 	 	 	1581522357	0.98	1.81
12/02/2020 15:45:58	120220	12022020	154558	58.74	12.419287	-56.989222	58.79	-0.510	0.460	-0.240	58.75	-0.90	0.20	 	 	 	 	 	 	 	 	 	 	 	 	 	 	 	 	 	 	1581522358	1.05	1.94
12/02/2020 15:45:59	120220	12022020	154559	58.78	12.419290	-56.989225	58.84	-0.430	-0.390	-0.360	58.78	-1.70	0.10	 	 	 	 	 	 	 	 	 	 	 	 	 	 	 	 	 	 	1581522359	1.01	1.87
12/02/2020 15:46:00	120220	12022020	154600	58.79	12.419293	-56.989227	58.82	-0.100	-1.250	-0.260	58.77	-2.60	0.10	 	 	 	 	 	 	 	 	 	 	 	 	 	 	 	 	 	 	1581522360	0.75	1.39
12/02/2020 15:46:01	120220	12022020	154601	58.52	12.419297	-56.989227	58.51	0.330	-1.720	0.150	58.44	-3.10	0.50	 	 	 	 	 	 	 	 	 	 	 	 	 	 	 	 	 	 	1581522361	0.51	0.94
12/02/2020 15:46:02	120220	12022020	154602	58.05	12.419297	-56.989227	58.05	0.580	-1.520	0.710	57.97	-2.90	1.10	1016.90	26.70	26.70	20.20	20.30	1017.0	67.0	68.0	424.0	29.0	17.00	10.50	82.00	10.10	74044	12720.0	27.5	27.5	1581522362	0.20	0.37
12/02/2020 15:46:03	120220	12022020	154603	57.72	12.419297	-56.989228	57.76	0.450	-0.610	1.060	57.69	-2.00	1.40	 	 	 	 	 	 	 	 	 	 	 	 	 	 	 	 	 	 	1581522363	0.45	0.83
12/02/2020 15:46:04	120220	12022020	154604	57.73	12.419297	-56.989235	57.81	0.020	0.560	0.840	57.78	-0.90	1.30	 	 	 	 	 	 	 	 	 	 	 	 	 	 	 	 	 	 	1581522364	1.18	2.19
12/02/2020 15:46:05	120220	12022020	154605	58.07	12.419298	-56.989243	58.17	-0.400	1.380	0.090	58.16	-0.00	0.60	 	 	 	 	 	 	 	 	 	 	 	 	 	 	 	 	 	 	1581522365	1.92	3.56
12/02/2020 15:46:06	120220	12022020	154606	58.44	12.419303	-56.989252	58.50	-0.510	1.350	-0.720	58.49	0.00	-0.30	 	 	 	 	 	 	 	 	 	 	 	 	 	 	 	 	 	 	1581522366	2.03	3.76
12/02/2020 15:46:07	120220	12022020	154607	58.52	12.419308	-56.989257	58.51	-0.250	0.390	-1.210	58.50	-0.90	-0.80	 	 	 	 	 	 	 	 	 	 	 	 	 	 	 	 	 	 	1581522367	1.52	2.82
12/02/2020 15:46:08	120220	12022020	154608	58.34	12.419313	-56.989258	58.31	0.130	-0.820	-1.320	58.29	-2.10	-0.90	 	 	 	 	 	 	 	 	 	 	 	 	 	 	 	 	 	 	1581522368	1.14	2.11
12/02/2020 15:46:09	120220	12022020	154609	58.22	12.419318	-56.989258	58.23	0.330	-1.510	-1.210	58.21	-2.90	-0.80	 	 	 	 	 	 	 	 	 	 	 	 	 	 	 	 	 	 	1581522369	0.92	1.70
12/02/2020 15:46:10	120220	12022020	154610	58.45	12.419320	-56.989262	58.54	0.290	-1.420	-1.010	58.53	-2.80	-0.60	 	 	 	 	 	 	 	 	 	 	 	 	 	 	 	 	 	 	1581522370	0.72	1.33
12/02/2020 15:46:11	120220	12022020	154611	58.78	12.419320	-56.989265	58.93	0.090	-0.730	-0.550	58.85	-2.10	-0.20	 	 	 	 	 	 	 	 	 	 	 	 	 	 	 	 	 	 	1581522371	0.85	1.57
12/02/2020 15:46:12	120220	12022020	154612	58.95	12.419317	-56.989270	58.96	-0.160	0.160	0.230	58.91	-1.20	0.60	 	 	 	 	 	 	 	 	 	 	 	 	 	 	 	 	 	 	1581522372	1.14	2.11
12/02/2020 15:46:13	120220	12022020	154613	58.76	12.419313	-56.989273	58.70	-0.310	0.670	0.930	58.69	-0.70	1.30	 	 	 	 	 	 	 	 	 	 	 	 	 	 	 	 	 	 	1581522373	1.16	2.15
12/02/2020 15:46:14	120220	12022020	154614	58.51	12.419312	-56.989277	58.55	-0.220	0.510	1.250	58.49	-0.80	1.60	 	 	 	 	 	 	 	 	 	 	 	 	 	 	 	 	 	 	1581522374	0.62	1.15
12/02/2020 15:46:15	120220	12022020	154615	58.44	12.419313	-56.989277	58.51	0.040	0.020	1.330	58.44	-1.30	1.70	 	 	 	 	 	 	 	 	 	 	 	 	 	 	 	 	 	 	1581522375	0.45	0.83
12/02/2020 15:46:16	120220	12022020	154616	58.45	12.419317	-56.989280	58.53	0.210	-0.350	1.110	58.48	-1.70	1.50	 	 	 	 	 	 	 	 	 	 	 	 	 	 	 	 	 	 	1581522376	0.76	1.41
12/02/2020 15:46:17	120220	12022020	154617	58.65	12.419320	-56.989285	58.75	0.170	-0.390	0.450	58.72	-1.80	0.90	 	 	 	 	 	 	 	 	 	 	 	 	 	 	 	 	 	 	1581522377	1.34	2.48
12/02/2020 15:46:18	120220	12022020	154618	59.07	12.419327	-56.989292	59.18	0.070	-0.370	-0.540	59.17	-1.70	-0.10	 	 	 	 	 	 	 	 	 	 	 	 	 	 	 	 	 	 	1581522378	2.05	3.80
12/02/2020 15:46:19	120220	12022020	154619	59.60	12.419333	-56.989300	59.69	0.140	-0.500	-1.410	59.69	-1.90	-1.00	 	 	 	 	 	 	 	 	 	 	 	 	 	 	 	 	 	 	1581522379	2.23	4.13
12/02/2020 15:46:20	120220	12022020	154620	60.00	12.419338	-56.989305	60.04	0.280	-0.520	-1.590	60.04	-1.90	-1.20	 	 	 	 	 	 	 	 	 	 	 	 	 	 	 	 	 	 	1581522380	1.50	2.78
12/02/2020 15:46:21	120220	12022020	154621	60.01	12.419338	-56.989307	60.01	0.200	-0.190	-0.940	59.96	-1.60	-0.60	 	 	 	 	 	 	 	 	 	 	 	 	 	 	 	 	 	 	1581522381	0.53	0.98
12/02/2020 15:46:22	120220	12022020	154622	59.66	12.419333	-56.989310	59.65	-0.190	0.300	0.020	59.57	-1.10	0.40	 	 	 	 	 	 	 	 	 	 	 	 	 	 	 	 	 	 	1581522382	1.17	2.17
12/02/2020 15:46:23	120220	12022020	154623	59.32	12.419328	-56.989313	59.35	-0.590	0.450	0.530	59.29	-0.90	0.90	 	 	 	 	 	 	 	 	 	 	 	 	 	 	 	 	 	 	1581522383	1.11	2.06
12/02/2020 15:46:24	120220	12022020	154624	59.28	12.419330	-56.989317	59.37	-0.630	0.110	0.440	59.31	-1.20	0.90	 	 	 	 	 	 	 	 	 	 	 	 	 	 	 	 	 	 	1581522384	0.99	1.83
12/02/2020 15:46:25	120220	12022020	154625	59.51	12.419335	-56.989322	59.62	-0.200	-0.600	0.180	59.57	-1.90	0.60	 	 	 	 	 	 	 	 	 	 	 	 	 	 	 	 	 	 	1581522385	1.50	2.78
12/02/2020 15:46:26	120220	12022020	154626	59.83	12.419342	-56.989325	59.93	0.440	-1.200	0.050	59.89	-2.60	0.50	 	 	 	 	 	 	 	 	 	 	 	 	 	 	 	 	 	 	1581522386	1.39	2.57
12/02/2020 15:46:27	120220	12022020	154627	60.15	12.419345	-56.989327	60.25	0.860	-1.130	-0.020	60.22	-2.50	0.40	 	 	 	 	 	 	 	 	 	 	 	 	 	 	 	 	 	 	1581522387	0.90	1.67
12/02/2020 15:46:28	120220	12022020	154628	60.58	12.419345	-56.989332	60.70	0.770	-0.300	-0.200	60.68	-1.70	0.20	 	 	 	 	 	 	 	 	 	 	 	 	 	 	 	 	 	 	1581522388	1.02	1.89
12/02/2020 15:46:29	120220	12022020	154629	61.08	12.419345	-56.989338	61.21	0.210	0.620	-0.310	61.17	-0.80	0.10	 	 	 	 	 	 	 	 	 	 	 	 	 	 	 	 	 	 	1581522389	1.53	2.83
12/02/2020 15:46:30	120220	12022020	154630	61.43	12.419343	-56.989345	61.55	-0.460	1.030	0.000	61.47	-0.40	0.40	 	 	 	 	 	 	 	 	 	 	 	 	 	 	 	 	 	 	1581522390	1.39	2.57
12/02/2020 15:46:31	120220	12022020	154631	61.56	12.419343	-56.989350	61.66	-0.860	0.810	0.580	61.55	-0.50	0.90	 	 	 	 	 	 	 	 	 	 	 	 	 	 	 	 	 	 	1581522391	0.86	1.59
12/02/2020 15:46:32	120220	12022020	154632	61.45	12.419340	-56.989352	61.53	-0.820	0.200	1.000	61.40	-1.10	1.40	 	 	 	 	 	 	 	 	 	 	 	 	 	 	 	 	 	 	1581522392	0.55	1.02
12/02/2020 15:46:33	120220	12022020	154633	61.22	12.419340	-56.989353	61.29	-0.410	-0.600	0.960	61.18	-1.90	1.40	 	 	 	 	 	 	 	 	 	 	 	 	 	 	 	 	 	 	1581522393	0.41	0.76
12/02/2020 15:46:34	120220	12022020	154634	61.09	12.419343	-56.989357	61.18	0.240	-1.340	0.550	61.10	-2.70	1.00	 	 	 	 	 	 	 	 	 	 	 	 	 	 	 	 	 	 	1581522394	1.03	1.91
12/02/2020 15:46:35	120220	12022020	154635	61.22	12.419350	-56.989360	61.43	0.880	-1.720	-0.020	61.29	-3.10	0.40	 	 	 	 	 	 	 	 	 	 	 	 	 	 	 	 	 	 	1581522395	1.48	2.74
12/02/2020 15:46:36	120220	12022020	154636	61.78	12.419355	-56.989365	61.93	1.130	-1.320	-0.610	61.89	-2.80	-0.20	 	 	 	 	 	 	 	 	 	 	 	 	 	 	 	 	 	 	1581522396	1.56	2.89
12/02/2020 15:46:37	120220	12022020	154637	62.35	12.419360	-56.989372	62.49	0.710	-0.100	-1.140	62.47	-1.60	-0.70	 	 	 	 	 	 	 	 	 	 	 	 	 	 	 	 	 	 	1581522397	1.74	3.22
12/02/2020 15:46:38	120220	12022020	154638	62.88	12.419362	-56.989382	62.99	-0.160	1.220	-1.440	62.96	-0.20	-1.00	 	 	 	 	 	 	 	 	 	 	 	 	 	 	 	 	 	 	1581522398	2.13	3.94
12/02/2020 15:46:39	120220	12022020	154639	63.26	12.419360	-56.989390	63.33	-0.850	1.630	-1.340	63.30	0.20	-1.00	 	 	 	 	 	 	 	 	 	 	 	 	 	 	 	 	 	 	1581522399	1.86	3.44
12/02/2020 15:46:40	120220	12022020	154640	63.40	12.419360	-56.989395	63.46	-0.900	0.840	-0.740	63.41	-0.50	-0.40	 	 	 	 	 	 	 	 	 	 	 	 	 	 	 	 	 	 	1581522400	0.81	1.50
12/02/2020 15:46:41	120220	12022020	154641	63.40	12.419358	-56.989393	63.48	-0.380	-0.470	0.220	63.40	-1.80	0.50	 	 	 	 	 	 	 	 	 	 	 	 	 	 	 	 	 	 	1581522401	0.36	0.67
12/02/2020 15:46:42	120220	12022020	154642	63.47	12.419357	-56.989390	63.58	0.190	-1.240	1.090	63.51	-2.60	1.40	 	 	 	 	 	 	 	 	 	 	 	 	 	 	 	 	 	 	1581522402	0.59	1.09
12/02/2020 15:46:43	120220	12022020	154643	63.67	12.419355	-56.989392	63.80	0.380	-0.980	1.670	63.72	-2.40	2.00	 	 	 	 	 	 	 	 	 	 	 	 	 	 	 	 	 	 	1581522403	0.62	1.15
12/02/2020 15:46:44	120220	12022020	154644	63.92	12.419352	-56.989398	64.06	0.210	-0.190	1.860	63.98	-1.60	2.20	 	 	 	 	 	 	 	 	 	 	 	 	 	 	 	 	 	 	1581522404	1.47	2.72
12/02/2020 15:46:45	120220	12022020	154645	64.24	12.419352	-56.989407	64.38	0.040	0.130	1.610	64.33	-1.30	2.00	 	 	 	 	 	 	 	 	 	 	 	 	 	 	 	 	 	 	1581522405	1.78	3.30
12/02/2020 15:46:46	120220	12022020	154646	64.67	12.419355	-56.989412	64.78	0.170	-0.400	0.990	64.76	-1.70	1.40	 	 	 	 	 	 	 	 	 	 	 	 	 	 	 	 	 	 	1581522406	1.44	2.67
12/02/2020 15:46:47	120220	12022020	154647	65.12	12.419360	-56.989415	65.21	0.500	-1.000	0.230	65.20	-2.40	0.70	 	 	 	 	 	 	 	 	 	 	 	 	 	 	 	 	 	 	1581522407	1.42	2.63
12/02/2020 15:46:48	120220	12022020	154648	65.56	12.419367	-56.989417	65.64	0.630	-0.840	-0.420	65.64	-2.30	0.00	 	 	 	 	 	 	 	 	 	 	 	 	 	 	 	 	 	 	1581522408	1.41	2.61
12/02/2020 15:46:49	120220	12022020	154649	65.93	12.419370	-56.989423	66.13	0.330	0.050	-0.710	66.03	-1.40	-0.30	 	 	 	 	 	 	 	 	 	 	 	 	 	 	 	 	 	 	1581522409	1.41	2.61
12/02/2020 15:46:50	120220	12022020	154650	66.61	12.419370	-56.989432	66.72	-0.290	0.980	-0.730	66.74	-0.50	-0.30	 	 	 	 	 	 	 	 	 	 	 	 	 	 	 	 	 	 	1581522410	1.65	3.06
12/02/2020 15:46:51	120220	12022020	154651	67.28	12.419370	-56.989438	67.37	-0.810	1.220	-0.630	67.39	-0.20	-0.20	 	 	 	 	 	 	 	 	 	 	 	 	 	 	 	 	 	 	1581522411	1.47	2.72
12/02/2020 15:46:52	120220	12022020	154652	67.82	12.419370	-56.989442	67.90	-0.870	0.630	-0.340	67.90	-0.70	0.00	 	 	 	 	 	 	 	 	 	 	 	 	 	 	 	 	 	 	1581522412	0.83	1.54
12/02/2020 15:46:53	120220	12022020	154653	68.17	12.419370	-56.989443	68.25	-0.450	-0.350	0.140	68.22	-1.70	0.50	 	 	 	 	 	 	 	 	 	 	 	 	 	 	 	 	 	 	1581522413	0.23	0.43
12/02/2020 15:46:54	120220	12022020	154654	68.40	12.419370	-56.989443	68.48	0.140	-1.110	0.750	68.43	-2.50	1.10	 	 	 	 	 	 	 	 	 	 	 	 	 	 	 	 	 	 	1581522414	0.05	0.09
12/02/2020 15:46:55	120220	12022020	154655	68.58	12.419368	-56.989443	68.69	0.550	-1.290	1.400	68.62	-2.70	1.70	 	 	 	 	 	 	 	 	 	 	 	 	 	 	 	 	 	 	1581522415	0.37	0.69
12/02/2020 15:46:56	120220	12022020	154656	68.85	12.419367	-56.989447	69.01	0.590	-0.960	1.870	68.95	-2.40	2.20	 	 	 	 	 	 	 	 	 	 	 	 	 	 	 	 	 	 	1581522416	0.75	1.39
12/02/2020 15:46:57	120220	12022020	154657	69.54	12.419365	-56.989452	69.80	0.410	-0.580	1.670	69.75	-2.00	2.10	 	 	 	 	 	 	 	 	 	 	 	 	 	 	 	 	 	 	1581522417	0.89	1.65
12/02/2020 15:46:58	120220	12022020	154658	70.59	12.419368	-56.989455	70.84	0.200	-0.300	0.980	70.80	-1.70	1.40	 	 	 	 	 	 	 	 	 	 	 	 	 	 	 	 	 	 	1581522418	1.10	2.04
12/02/2020 15:46:59	120220	12022020	154659	71.48	12.419373	-56.989458	71.65	-0.010	0.110	0.330	71.61	-1.30	0.70	 	 	 	 	 	 	 	 	 	 	 	 	 	 	 	 	 	 	1581522419	1.30	2.41
12/02/2020 15:47:00	120220	12022020	154700	72.03	12.419377	-56.989463	72.14	-0.200	0.590	0.060	72.11	-0.80	0.50	 	 	 	 	 	 	 	 	 	 	 	 	 	 	 	 	 	 	1581522420	1.19	2.20
12/02/2020 15:47:01	120220	12022020	154701	72.31	12.419378	-56.989468	72.47	-0.330	0.910	0.110	72.37	-0.50	0.50	 	 	 	 	 	 	 	 	 	 	 	 	 	 	 	 	 	 	1581522421	1.05	1.94
12/02/2020 15:47:02	120220	12022020	154702	72.70	12.419378	-56.989473	72.80	-0.400	0.910	0.220	72.77	-0.40	0.60	1016.90	26.80	26.70	20.60	20.60	1248.0	68.0	69.0	425.0	29.2	22.00	10.10	86.00	9.60	85170	11320.0	27.5	27.5	1581522422	1.07	1.98
12/02/2020 15:47:03	120220	12022020	154703	73.07	12.419380	-56.989478	73.17	-0.390	0.380	0.270	73.15	-0.90	0.70	 	 	 	 	 	 	 	 	 	 	 	 	 	 	 	 	 	 	1581522423	1.02	1.89
12/02/2020 15:47:04	120220	12022020	154704	73.54	12.419382	-56.989480	73.65	-0.190	-0.710	0.140	73.64	-2.00	0.50	 	 	 	 	 	 	 	 	 	 	 	 	 	 	 	 	 	 	1581522424	0.73	1.35
12/02/2020 15:47:05	120220	12022020	154705	74.13	12.419385	-56.989480	74.27	0.230	-1.860	-0.120	74.24	-3.20	0.30	 	 	 	 	 	 	 	 	 	 	 	 	 	 	 	 	 	 	1581522425	0.74	1.37
12/02/2020 15:47:06	120220	12022020	154706	74.80	12.419388	-56.989478	74.97	0.640	-2.240	-0.110	74.93	-3.60	0.30	 	 	 	 	 	 	 	 	 	 	 	 	 	 	 	 	 	 	1581522426	0.66	1.22
12/02/2020 15:47:07	120220	12022020	154707	75.53	12.419388	-56.989480	75.74	0.660	-1.370	0.230	75.69	-2.80	0.60	 	 	 	 	 	 	 	 	 	 	 	 	 	 	 	 	 	 	1581522427	0.26	0.48
12/02/2020 15:47:08	120220	12022020	154708	76.33	12.419385	-56.989485	76.54	0.190	0.220	0.590	76.48	-1.30	0.90	 	 	 	 	 	 	 	 	 	 	 	 	 	 	 	 	 	 	1581522428	1.31	2.43
12/02/2020 15:47:09	120220	12022020	154709	77.01	12.419383	-56.989493	77.20	-0.410	1.540	0.780	77.12	0.10	1.20	 	 	 	 	 	 	 	 	 	 	 	 	 	 	 	 	 	 	1581522429	1.77	3.28
12/02/2020 15:47:10	120220	12022020	154710	77.45	12.419382	-56.989500	77.62	-0.680	1.860	0.810	77.52	0.50	1.20	 	 	 	 	 	 	 	 	 	 	 	 	 	 	 	 	 	 	1581522430	1.35	2.50
12/02/2020 15:47:11	120220	12022020	154711	77.77	12.419383	-56.989503	77.95	-0.500	1.170	0.670	77.86	-0.20	1.10	 	 	 	 	 	 	 	 	 	 	 	 	 	 	 	 	 	 	1581522431	0.83	1.54
12/02/2020 15:47:12	120220	12022020	154712	78.32	12.419388	-56.989503	78.55	-0.100	-0.090	0.450	78.48	-1.40	0.90	 	 	 	 	 	 	 	 	 	 	 	 	 	 	 	 	 	 	1581522432	1.08	2.00
12/02/2020 15:47:13	120220	12022020	154713	79.27	12.419393	-56.989503	79.54	0.150	-1.290	0.320	79.49	-2.60	0.70	 	 	 	 	 	 	 	 	 	 	 	 	 	 	 	 	 	 	1581522433	0.92	1.70
12/02/2020 15:47:14	120220	12022020	154714	80.33	12.419395	-56.989503	80.56	0.120	-1.760	0.410	80.51	-3.10	0.80	 	 	 	 	 	 	 	 	 	 	 	 	 	 	 	 	 	 	1581522434	0.21	0.39
12/02/2020 15:47:15	120220	12022020	154715	81.01	12.419392	-56.989505	81.15	-0.020	-1.510	0.840	81.09	-2.90	1.20	 	 	 	 	 	 	 	 	 	 	 	 	 	 	 	 	 	 	1581522435	0.68	1.26
12/02/2020 15:47:16	120220	12022020	154716	81.21	12.419388	-56.989508	81.29	0.040	-0.840	1.430	81.22	-2.20	1.80	 	 	 	 	 	 	 	 	 	 	 	 	 	 	 	 	 	 	1581522436	1.12	2.07
12/02/2020 15:47:17	120220	12022020	154717	81.29	12.419385	-56.989512	81.40	0.360	-0.160	1.770	81.32	-1.60	2.10	 	 	 	 	 	 	 	 	 	 	 	 	 	 	 	 	 	 	1581522437	0.87	1.61
12/02/2020 15:47:18	120220	12022020	154718	81.57	12.419387	-56.989515	81.73	0.600	0.250	1.780	81.67	-1.10	2.20	 	 	 	 	 	 	 	 	 	 	 	 	 	 	 	 	 	 	1581522438	0.61	1.13
12/02/2020 15:47:19	120220	12022020	154719	82.16	12.419390	-56.989517	82.37	0.420	0.430	1.530	82.33	-1.00	1.90	 	 	 	 	 	 	 	 	 	 	 	 	 	 	 	 	 	 	1581522439	0.93	1.72
12/02/2020 15:47:20	120220	12022020	154720	83.15	12.419395	-56.989520	83.43	-0.130	0.800	0.870	83.39	-0.60	1.30	 	 	 	 	 	 	 	 	 	 	 	 	 	 	 	 	 	 	1581522440	1.24	2.30
12/02/2020 15:47:21	120220	12022020	154721	84.41	12.419402	-56.989525	84.69	-0.650	1.260	-0.000	84.66	-0.10	0.40	 	 	 	 	 	 	 	 	 	 	 	 	 	 	 	 	 	 	1581522441	1.86	3.44
12/02/2020 15:47:22	120220	12022020	154722	85.48	12.419407	-56.989532	85.67	-0.780	0.890	-0.610	85.63	-0.40	-0.20	 	 	 	 	 	 	 	 	 	 	 	 	 	 	 	 	 	 	1581522442	1.79	3.32
12/02/2020 15:47:23	120220	12022020	154723	85.96	12.419408	-56.989533	86.03	-0.460	-0.530	-0.510	85.97	-1.80	-0.10	 	 	 	 	 	 	 	 	 	 	 	 	 	 	 	 	 	 	1581522443	0.57	1.06
12/02/2020 15:47:24	120220	12022020	154724	85.89	12.419407	-56.989530	85.94	0.050	-1.960	0.330	85.85	-3.30	0.70	 	 	 	 	 	 	 	 	 	 	 	 	 	 	 	 	 	 	1581522444	0.81	1.50
12/02/2020 15:47:25	120220	12022020	154725	85.76	12.419402	-56.989528	85.87	0.400	-2.250	1.310	85.77	-3.60	1.60	 	 	 	 	 	 	 	 	 	 	 	 	 	 	 	 	 	 	1581522445	1.08	2.00
12/02/2020 15:47:26	120220	12022020	154726	86.05	12.419398	-56.989530	86.25	0.480	-1.360	1.820	86.18	-2.80	2.20	 	 	 	 	 	 	 	 	 	 	 	 	 	 	 	 	 	 	1581522446	0.90	1.67
12/02/2020 15:47:27	120220	12022020	154727	86.69	12.419398	-56.989537	87.13	0.370	-0.070	1.580	86.88	-1.50	2.00	 	 	 	 	 	 	 	 	 	 	 	 	 	 	 	 	 	 	1581522447	1.34	2.48
12/02/2020 15:47:28	120220	12022020	154728	87.94	12.419402	-56.989543	88.17	0.130	0.840	0.810	88.13	-0.60	1.30	 	 	 	 	 	 	 	 	 	 	 	 	 	 	 	 	 	 	1581522448	1.56	2.89
12/02/2020 15:47:29	120220	12022020	154729	88.76	12.419407	-56.989548	88.90	-0.210	1.090	0.180	88.86	-0.30	0.60	 	 	 	 	 	 	 	 	 	 	 	 	 	 	 	 	 	 	1581522449	1.39	2.57
12/02/2020 15:47:30	120220	12022020	154730	89.12	12.419410	-56.989550	89.23	-0.480	0.920	0.150	89.15	-0.40	0.50	 	 	 	 	 	 	 	 	 	 	 	 	 	 	 	 	 	 	1581522450	0.73	1.35
12/02/2020 15:47:31	120220	12022020	154731	89.28	12.419410	-56.989552	89.41	-0.460	0.560	0.400	89.32	-0.80	0.80	 	 	 	 	 	 	 	 	 	 	 	 	 	 	 	 	 	 	1581522451	0.44	0.81
12/02/2020 15:47:32	120220	12022020	154732	89.53	12.419412	-56.989553	89.71	-0.090	-0.130	0.530	89.62	-1.40	0.90	 	 	 	 	 	 	 	 	 	 	 	 	 	 	 	 	 	 	1581522452	0.56	1.04
12/02/2020 15:47:33	120220	12022020	154733	90.08	12.419415	-56.989555	90.30	0.390	-1.070	0.380	90.23	-2.40	0.80	 	 	 	 	 	 	 	 	 	 	 	 	 	 	 	 	 	 	1581522453	0.77	1.43
12/02/2020 15:47:34	120220	12022020	154734	90.92	12.419420	-56.989553	91.19	0.670	-1.600	0.160	91.11	-2.90	0.60	 	 	 	 	 	 	 	 	 	 	 	 	 	 	 	 	 	 	1581522454	0.90	1.67
12/02/2020 15:47:35	120220	12022020	154735	91.82	12.419422	-56.989555	92.06	0.520	-1.260	0.280	91.97	-2.70	0.70	 	 	 	 	 	 	 	 	 	 	 	 	 	 	 	 	 	 	1581522455	0.55	1.02
12/02/2020 15:47:36	120220	12022020	154736	92.38	12.419420	-56.989558	92.58	0.040	-0.370	1.040	92.45	-1.80	1.40	 	 	 	 	 	 	 	 	 	 	 	 	 	 	 	 	 	 	1581522456	0.99	1.83
12/02/2020 15:47:37	120220	12022020	154737	92.60	12.419415	-56.989565	92.80	-0.500	0.500	2.130	92.63	-0.90	2.40	 	 	 	 	 	 	 	 	 	 	 	 	 	 	 	 	 	 	1581522457	1.66	3.07
12/02/2020 15:47:38	120220	12022020	154738	92.80	12.419410	-56.989570	93.03	-0.770	0.900	2.880	92.86	-0.50	3.20	 	 	 	 	 	 	 	 	 	 	 	 	 	 	 	 	 	 	1581522458	1.65	3.06
12/02/2020 15:47:39	120220	12022020	154739	93.09	12.419407	-56.989573	93.42	-0.600	0.590	2.950	93.17	-0.70	3.40	 	 	 	 	 	 	 	 	 	 	 	 	 	 	 	 	 	 	1581522459	0.86	1.59
12/02/2020 15:47:40	120220	12022020	154740	93.62	12.419408	-56.989573	93.86	-0.120	-0.210	2.480	93.71	-1.50	2.90	 	 	 	 	 	 	 	 	 	 	 	 	 	 	 	 	 	 	1581522460	0.25	0.46
12/02/2020 15:47:41	120220	12022020	154741	94.11	12.419413	-56.989570	94.34	0.340	-0.830	1.680	94.22	-2.20	2.10	 	 	 	 	 	 	 	 	 	 	 	 	 	 	 	 	 	 	1581522461	1.03	1.91
12/02/2020 15:47:42	120220	12022020	154742	94.77	12.419420	-56.989572	94.99	0.540	-0.630	0.590	94.92	-2.00	1.10	 	 	 	 	 	 	 	 	 	 	 	 	 	 	 	 	 	 	1581522462	1.58	2.93
12/02/2020 15:47:43	120220	12022020	154743	95.64	12.419430	-56.989575	95.85	0.430	0.140	-0.630	95.83	-1.30	-0.10	 	 	 	 	 	 	 	 	 	 	 	 	 	 	 	 	 	 	1581522463	2.35	4.35
12/02/2020 15:47:44	120220	12022020	154744	96.56	12.419440	-56.989580	96.72	0.140	0.500	-1.440	96.72	-0.90	-1.00	 	 	 	 	 	 	 	 	 	 	 	 	 	 	 	 	 	 	1581522464	2.42	4.48
12/02/2020 15:47:45	120220	12022020	154745	97.21	12.419445	-56.989583	97.32	-0.090	-0.070	-1.270	97.30	-1.40	-0.90	 	 	 	 	 	 	 	 	 	 	 	 	 	 	 	 	 	 	1581522465	1.16	2.15
12/02/2020 15:47:46	120220	12022020	154746	97.47	12.419442	-56.989582	97.54	-0.110	-1.100	-0.160	97.47	-2.40	0.10	 	 	 	 	 	 	 	 	 	 	 	 	 	 	 	 	 	 	1581522466	0.69	1.28
12/02/2020 15:47:47	120220	12022020	154747	97.44	12.419433	-56.989580	97.51	0.050	-1.580	1.270	97.43	-2.90	1.60	 	 	 	 	 	 	 	 	 	 	 	 	 	 	 	 	 	 	1581522467	1.78	3.30
12/02/2020 15:47:48	120220	12022020	154748	97.46	12.419427	-56.989582	97.59	0.180	-1.080	2.400	97.50	-2.50	2.80	 	 	 	 	 	 	 	 	 	 	 	 	 	 	 	 	 	 	1581522468	1.65	3.06
12/02/2020 15:47:49	120220	12022020	154749	97.79	12.419422	-56.989585	98.00	0.060	0.130	2.860	97.91	-1.30	3.30	 	 	 	 	 	 	 	 	 	 	 	 	 	 	 	 	 	 	1581522469	1.26	2.33
12/02/2020 15:47:50	120220	12022020	154750	98.47	12.419423	-56.989593	98.70	-0.260	1.190	2.560	98.64	-0.20	3.00	 	 	 	 	 	 	 	 	 	 	 	 	 	 	 	 	 	 	1581522470	1.47	2.72
12/02/2020 15:47:51	120220	12022020	154751	99.18	12.419430	-56.989598	99.59	-0.500	1.380	1.690	99.36	0.00	2.20	 	 	 	 	 	 	 	 	 	 	 	 	 	 	 	 	 	 	1581522471	1.60	2.96
12/02/2020 15:47:52	120220	12022020	154752	100.40	12.419437	-56.989598	100.62	-0.450	0.790	0.550	100.62	-0.50	1.00	 	 	 	 	 	 	 	 	 	 	 	 	 	 	 	 	 	 	1581522472	1.63	3.02
12/02/2020 15:47:53	120220	12022020	154753	101.44	12.419443	-56.989597	101.61	-0.240	-0.120	-0.300	101.62	-1.40	0.10	 	 	 	 	 	 	 	 	 	 	 	 	 	 	 	 	 	 	1581522473	1.52	2.82
12/02/2020 15:47:54	120220	12022020	154754	102.20	12.419447	-56.989597	102.30	-0.090	-0.990	-0.490	102.29	-2.30	-0.10	 	 	 	 	 	 	 	 	 	 	 	 	 	 	 	 	 	 	1581522474	0.68	1.26
12/02/2020 15:47:55	120220	12022020	154755	102.48	12.419445	-56.989597	102.49	0.020	-1.610	-0.010	102.48	-2.90	0.40	 	 	 	 	 	 	 	 	 	 	 	 	 	 	 	 	 	 	1581522475	0.36	0.67
12/02/2020 15:47:56	120220	12022020	154756	102.33	12.419440	-56.989598	102.30	0.280	-1.830	0.950	102.28	-3.20	1.30	 	 	 	 	 	 	 	 	 	 	 	 	 	 	 	 	 	 	1581522476	1.08	2.00
12/02/2020 15:47:57	120220	12022020	154757	102.14	12.419437	-56.989600	102.13	0.670	-1.310	1.710	102.15	-2.70	2.10	 	 	 	 	 	 	 	 	 	 	 	 	 	 	 	 	 	 	1581522477	1.05	1.94
12/02/2020 15:47:58	120220	12022020	154758	102.35	12.419437	-56.989603	102.43	0.920	-0.090	1.690	102.46	-1.50	2.10	 	 	 	 	 	 	 	 	 	 	 	 	 	 	 	 	 	 	1581522478	0.78	1.44
12/02/2020 15:47:59	120220	12022020	154759	103.04	12.419443	-56.989608	103.16	0.780	1.020	0.930	103.21	-0.40	1.40	 	 	 	 	 	 	 	 	 	 	 	 	 	 	 	 	 	 	1581522479	1.65	3.06
12/02/2020 15:48:00	120220	12022020	154800	103.95	12.419452	-56.989610	104.07	0.220	1.260	0.070	104.14	-0.10	0.50	 	 	 	 	 	 	 	 	 	 	 	 	 	 	 	 	 	 	1581522480	2.03	3.76
12/02/2020 15:48:01	120220	12022020	154801	104.85	12.419458	-56.989612	104.96	-0.570	0.720	-0.230	105.02	-0.60	0.20	 	 	 	 	 	 	 	 	 	 	 	 	 	 	 	 	 	 	1581522481	1.37	2.54
12/02/2020 15:48:02	120220	12022020	154802	105.58	12.419458	-56.989612	105.70	-1.200	0.020	0.150	105.71	-1.30	0.50	1016.90	26.70	26.70	20.50	20.60	1045.0	69.0	69.0	429.0	29.3	351.00	10.60	81.00	10.20	75027	10003.0	27.5	27.5	1581522482	0.05	0.09
12/02/2020 15:48:03	120220	12022020	154803	106.10	12.419452	-56.989613	106.20	-1.300	-0.330	0.930	106.17	-1.70	1.30	 	 	 	 	 	 	 	 	 	 	 	 	 	 	 	 	 	 	1581522483	1.34	2.48
12/02/2020 15:48:04	120220	12022020	154804	106.43	12.419445	-56.989620	106.53	-0.820	-0.440	1.670	106.49	-1.80	2.00	 	 	 	 	 	 	 	 	 	 	 	 	 	 	 	 	 	 	1581522484	1.81	3.35
12/02/2020 15:48:05	120220	12022020	154805	106.64	12.419442	-56.989625	106.73	-0.040	-0.720	2.190	106.67	-2.10	2.60	 	 	 	 	 	 	 	 	 	 	 	 	 	 	 	 	 	 	1581522485	1.45	2.69
12/02/2020 15:48:06	120220	12022020	154806	106.73	12.419438	-56.989627	106.81	0.630	-1.160	2.470	106.75	-2.50	2.90	 	 	 	 	 	 	 	 	 	 	 	 	 	 	 	 	 	 	1581522486	0.78	1.44
12/02/2020 15:48:07	120220	12022020	154807	106.84	12.419438	-56.989627	106.94	0.980	-1.280	2.440	106.88	-2.60	2.90	 	 	 	 	 	 	 	 	 	 	 	 	 	 	 	 	 	 	1581522487	0.14	0.26
12/02/2020 15:48:08	120220	12022020	154808	107.17	12.419440	-56.989628	107.33	0.980	-0.800	1.970	107.29	-2.20	2.40	 	 	 	 	 	 	 	 	 	 	 	 	 	 	 	 	 	 	1581522488	0.66	1.22
12/02/2020 15:48:09	120220	12022020	154809	107.88	12.419448	-56.989630	108.07	0.690	0.110	0.990	108.06	-1.30	1.50	 	 	 	 	 	 	 	 	 	 	 	 	 	 	 	 	 	 	1581522489	1.52	2.82
12/02/2020 15:48:10	120220	12022020	154810	108.71	12.419457	-56.989633	108.83	0.260	0.800	-0.090	108.86	-0.60	0.40	 	 	 	 	 	 	 	 	 	 	 	 	 	 	 	 	 	 	1581522490	2.07	3.83
12/02/2020 15:48:11	120220	12022020	154811	109.29	12.419465	-56.989635	109.34	-0.090	0.770	-0.710	109.36	-0.60	-0.30	 	 	 	 	 	 	 	 	 	 	 	 	 	 	 	 	 	 	1581522491	1.69	3.13
12/02/2020 15:48:12	120220	12022020	154812	109.55	12.419468	-56.989635	109.56	-0.330	0.230	-0.680	109.58	-1.10	-0.30	 	 	 	 	 	 	 	 	 	 	 	 	 	 	 	 	 	 	1581522492	0.71	1.31
12/02/2020 15:48:13	120220	12022020	154813	109.77	12.419467	-56.989635	109.83	-0.610	-0.210	-0.110	109.84	-1.60	0.30	 	 	 	 	 	 	 	 	 	 	 	 	 	 	 	 	 	 	1581522493	0.26	0.48
12/02/2020 15:48:14	120220	12022020	154814	110.28	12.419462	-56.989640	110.42	-0.930	-0.170	0.680	110.42	-1.60	1.00	 	 	 	 	 	 	 	 	 	 	 	 	 	 	 	 	 	 	1581522494	1.28	2.37
12/02/2020 15:48:15	120220	12022020	154815	110.89	12.419457	-56.989647	111.23	-1.050	0.060	1.300	111.05	-1.30	1.70	 	 	 	 	 	 	 	 	 	 	 	 	 	 	 	 	 	 	1581522495	2.00	3.70
12/02/2020 15:48:16	120220	12022020	154816	111.78	12.419452	-56.989655	111.94	-0.650	-0.130	1.700	111.89	-1.50	2.10	 	 	 	 	 	 	 	 	 	 	 	 	 	 	 	 	 	 	1581522496	1.87	3.46
12/02/2020 15:48:17	120220	12022020	154817	112.10	12.419448	-56.989658	112.19	0.210	-0.880	2.050	112.13	-2.20	2.40	 	 	 	 	 	 	 	 	 	 	 	 	 	 	 	 	 	 	1581522497	1.17	2.17
12/02/2020 15:48:18	120220	12022020	154818	112.03	12.419445	-56.989658	112.06	1.140	-1.510	2.380	111.99	-2.90	2.80	 	 	 	 	 	 	 	 	 	 	 	 	 	 	 	 	 	 	1581522498	0.57	1.06
12/02/2020 15:48:19	120220	12022020	154819	111.90	12.419447	-56.989658	111.97	1.510	-1.200	2.400	111.92	-2.60	2.80	 	 	 	 	 	 	 	 	 	 	 	 	 	 	 	 	 	 	1581522499	0.21	0.39
12/02/2020 15:48:20	120220	12022020	154820	112.25	12.419452	-56.989660	112.42	1.030	-0.050	1.880	112.37	-1.50	2.30	 	 	 	 	 	 	 	 	 	 	 	 	 	 	 	 	 	 	1581522500	1.34	2.48
12/02/2020 15:48:21	120220	12022020	154821	113.07	12.419460	-56.989665	113.28	0.040	0.990	1.140	113.26	-0.40	1.60	 	 	 	 	 	 	 	 	 	 	 	 	 	 	 	 	 	 	1581522501	2.06	3.82
12/02/2020 15:48:22	120220	12022020	154822	113.98	12.419467	-56.989670	114.16	-0.780	1.200	0.620	114.14	-0.20	1.10	 	 	 	 	 	 	 	 	 	 	 	 	 	 	 	 	 	 	1581522502	1.65	3.06
12/02/2020 15:48:23	120220	12022020	154823	114.72	12.419468	-56.989673	114.85	-1.030	0.620	0.590	114.84	-0.70	1.00	 	 	 	 	 	 	 	 	 	 	 	 	 	 	 	 	 	 	1581522503	0.66	1.22
12/02/2020 15:48:24	120220	12022020	154824	115.25	12.419463	-56.989675	115.35	-0.740	-0.220	0.870	115.34	-1.50	1.30	 	 	 	 	 	 	 	 	 	 	 	 	 	 	 	 	 	 	1581522504	0.97	1.80
12/02/2020 15:48:25	120220	12022020	154825	115.58	12.419458	-56.989678	115.66	-0.170	-0.920	1.240	115.62	-2.30	1.60	 	 	 	 	 	 	 	 	 	 	 	 	 	 	 	 	 	 	1581522505	1.41	2.61
12/02/2020 15:48:26	120220	12022020	154826	115.63	12.419453	-56.989682	115.67	0.440	-1.290	1.590	115.61	-2.60	2.00	 	 	 	 	 	 	 	 	 	 	 	 	 	 	 	 	 	 	1581522506	1.22	2.26
12/02/2020 15:48:27	120220	12022020	154827	115.52	12.419452	-56.989683	115.56	0.820	-1.110	1.770	115.51	-2.50	2.20	 	 	 	 	 	 	 	 	 	 	 	 	 	 	 	 	 	 	1581522507	0.60	1.11
12/02/2020 15:48:28	120220	12022020	154828	115.61	12.419455	-56.989687	115.70	0.760	-0.290	1.570	115.68	-1.70	2.00	 	 	 	 	 	 	 	 	 	 	 	 	 	 	 	 	 	 	1581522508	0.99	1.83
12/02/2020 15:48:29	120220	12022020	154829	115.96	12.419462	-56.989692	116.19	0.310	0.670	0.930	116.07	-0.70	1.40	 	 	 	 	 	 	 	 	 	 	 	 	 	 	 	 	 	 	1581522509	1.76	3.26
12/02/2020 15:48:30	120220	12022020	154830	116.74	12.419470	-56.989697	116.87	-0.280	1.000	0.210	116.87	-0.40	0.70	 	 	 	 	 	 	 	 	 	 	 	 	 	 	 	 	 	 	1581522510	1.83	3.39
12/02/2020 15:48:31	120220	12022020	154831	117.30	12.419472	-56.989698	117.37	-0.690	0.350	0.050	117.36	-1.00	0.50	 	 	 	 	 	 	 	 	 	 	 	 	 	 	 	 	 	 	1581522511	0.81	1.50
12/02/2020 15:48:32	120220	12022020	154832	117.50	12.419468	-56.989700	117.53	-0.690	-0.740	0.510	117.51	-2.10	0.90	 	 	 	 	 	 	 	 	 	 	 	 	 	 	 	 	 	 	1581522512	0.92	1.70
12/02/2020 15:48:33	120220	12022020	154833	117.58	12.419462	-56.989702	117.65	-0.390	-1.260	1.070	117.61	-2.60	1.40	 	 	 	 	 	 	 	 	 	 	 	 	 	 	 	 	 	 	1581522513	1.60	2.96
12/02/2020 15:48:34	120220	12022020	154834	117.77	12.419457	-56.989707	117.86	-0.030	-0.890	1.460	117.81	-2.30	1.90	 	 	 	 	 	 	 	 	 	 	 	 	 	 	 	 	 	 	1581522514	1.49	2.76
12/02/2020 15:48:35	120220	12022020	154835	117.97	12.419455	-56.989713	118.05	0.250	-0.220	1.690	118.00	-1.60	2.10	 	 	 	 	 	 	 	 	 	 	 	 	 	 	 	 	 	 	1581522515	1.49	2.76
12/02/2020 15:48:36	120220	12022020	154836	118.12	12.419455	-56.989718	118.18	0.440	0.120	1.620	118.16	-1.30	2.10	 	 	 	 	 	 	 	 	 	 	 	 	 	 	 	 	 	 	1581522516	1.08	2.00
12/02/2020 15:48:37	120220	12022020	154837	118.31	12.419458	-56.989720	118.36	0.480	0.160	1.250	118.35	-1.20	1.70	 	 	 	 	 	 	 	 	 	 	 	 	 	 	 	 	 	 	1581522517	0.69	1.28
12/02/2020 15:48:38	120220	12022020	154838	118.50	12.419462	-56.989720	118.53	0.370	0.130	0.910	118.53	-1.20	1.40	 	 	 	 	 	 	 	 	 	 	 	 	 	 	 	 	 	 	1581522518	0.70	1.30
12/02/2020 15:48:39	120220	12022020	154839	118.63	12.419463	-56.989722	118.65	0.220	0.040	0.850	118.65	-1.30	1.30	 	 	 	 	 	 	 	 	 	 	 	 	 	 	 	 	 	 	1581522519	0.46	0.85
12/02/2020 15:48:40	120220	12022020	154840	118.76	12.419463	-56.989725	118.81	0.140	-0.090	0.840	118.80	-1.50	1.30	 	 	 	 	 	 	 	 	 	 	 	 	 	 	 	 	 	 	1581522520	0.51	0.94
12/02/2020 15:48:41	120220	12022020	154841	118.98	12.419463	-56.989727	119.14	0.080	-0.120	0.670	119.05	-1.50	1.10	 	 	 	 	 	 	 	 	 	 	 	 	 	 	 	 	 	 	1581522521	0.50	0.93
12/02/2020 15:48:42	120220	12022020	154842	119.43	12.419465	-56.989730	119.51	-0.120	-0.110	0.620	119.49	-1.50	1.00	 	 	 	 	 	 	 	 	 	 	 	 	 	 	 	 	 	 	1581522522	0.68	1.26
12/02/2020 15:48:43	120220	12022020	154843	119.67	12.419465	-56.989733	119.75	-0.440	-0.190	0.930	119.71	-1.60	1.30	 	 	 	 	 	 	 	 	 	 	 	 	 	 	 	 	 	 	1581522523	0.79	1.46
12/02/2020 15:48:44	120220	12022020	154844	119.80	12.419462	-56.989738	119.88	-0.670	-0.330	1.450	119.81	-1.70	1.80	 	 	 	 	 	 	 	 	 	 	 	 	 	 	 	 	 	 	1581522524	1.19	2.20
12/02/2020 15:48:45	120220	12022020	154845	119.78	12.419457	-56.989743	119.84	-0.550	-0.610	1.980	119.75	-2.00	2.30	 	 	 	 	 	 	 	 	 	 	 	 	 	 	 	 	 	 	1581522525	1.53	2.83
12/02/2020 15:48:46	120220	12022020	154846	119.60	12.419452	-56.989747	119.66	-0.020	-1.030	2.390	119.55	-2.40	2.80	 	 	 	 	 	 	 	 	 	 	 	 	 	 	 	 	 	 	1581522526	1.48	2.74
12/02/2020 15:48:47	120220	12022020	154847	119.38	12.419447	-56.989748	119.47	0.600	-1.180	2.520	119.36	-2.60	2.90	 	 	 	 	 	 	 	 	 	 	 	 	 	 	 	 	 	 	1581522527	1.13	2.09
12/02/2020 15:48:48	120220	12022020	154848	119.37	12.419445	-56.989748	119.50	0.890	-0.590	2.030	119.42	-2.00	2.50	 	 	 	 	 	 	 	 	 	 	 	 	 	 	 	 	 	 	1581522528	0.18	0.33
12/02/2020 15:48:49	120220	12022020	154849	119.67	12.419452	-56.989750	119.80	0.610	0.540	0.980	119.76	-0.90	1.50	 	 	 	 	 	 	 	 	 	 	 	 	 	 	 	 	 	 	1581522529	1.25	2.31
12/02/2020 15:48:50	120220	12022020	154850	120.17	12.419460	-56.989752	120.31	-0.110	1.440	-0.140	120.28	0.00	0.30	 	 	 	 	 	 	 	 	 	 	 	 	 	 	 	 	 	 	1581522530	2.08	3.85
12/02/2020 15:48:51	120220	12022020	154851	120.72	12.419468	-56.989753	120.83	-0.830	1.460	-0.830	120.81	0.10	-0.40	 	 	 	 	 	 	 	 	 	 	 	 	 	 	 	 	 	 	1581522531	1.55	2.87
12/02/2020 15:48:52	120220	12022020	154852	121.06	12.419467	-56.989757	121.14	-1.080	0.450	-0.700	121.09	-0.90	-0.30	 	 	 	 	 	 	 	 	 	 	 	 	 	 	 	 	 	 	1581522532	0.51	0.94
12/02/2020 15:48:53	120220	12022020	154853	120.98	12.419458	-56.989758	121.01	-0.690	-0.960	0.250	120.92	-2.30	0.60	 	 	 	 	 	 	 	 	 	 	 	 	 	 	 	 	 	 	1581522533	1.89	3.50
12/02/2020 15:48:54	120220	12022020	154854	120.60	12.419447	-56.989762	120.63	0.070	-1.790	1.340	120.53	-3.10	1.70	 	 	 	 	 	 	 	 	 	 	 	 	 	 	 	 	 	 	1581522534	2.45	4.54
12/02/2020 15:48:55	120220	12022020	154855	120.30	12.419440	-56.989765	120.38	0.700	-1.580	2.020	120.28	-3.00	2.40	 	 	 	 	 	 	 	 	 	 	 	 	 	 	 	 	 	 	1581522535	1.76	3.26
12/02/2020 15:48:56	120220	12022020	154856	120.34	12.419440	-56.989770	120.46	0.880	-0.720	2.050	120.39	-2.20	2.50	 	 	 	 	 	 	 	 	 	 	 	 	 	 	 	 	 	 	1581522536	1.07	1.98
12/02/2020 15:48:57	120220	12022020	154857	120.69	12.419443	-56.989775	120.81	0.650	0.120	1.610	120.76	-1.30	2.10	 	 	 	 	 	 	 	 	 	 	 	 	 	 	 	 	 	 	1581522537	1.13	2.09
12/02/2020 15:48:58	120220	12022020	154858	120.93	12.419447	-56.989777	120.98	0.250	0.390	1.230	120.93	-1.00	1.70	 	 	 	 	 	 	 	 	 	 	 	 	 	 	 	 	 	 	1581522538	0.96	1.78
12/02/2020 15:48:59	120220	12022020	154859	120.76	12.419448	-56.989775	120.78	-0.070	0.140	1.220	120.71	-1.20	1.60	 	 	 	 	 	 	 	 	 	 	 	 	 	 	 	 	 	 	1581522539	0.17	0.31
12/02/2020 15:49:00	120220	12022020	154900	120.57	12.419445	-56.989775	120.62	-0.330	-0.110	1.350	120.56	-1.50	1.70	 	 	 	 	 	 	 	 	 	 	 	 	 	 	 	 	 	 	1581522540	0.56	1.04
12/02/2020 15:49:01	120220	12022020	154901	120.63	12.419442	-56.989777	120.74	-0.620	0.070	1.570	120.67	-1.30	1.90	 	 	 	 	 	 	 	 	 	 	 	 	 	 	 	 	 	 	1581522541	0.92	1.70
12/02/2020 15:49:02	120220	12022020	154902	120.91	12.419437	-56.989782	121.06	-0.830	0.500	1.730	120.99	-0.90	2.10	1016.90	26.60	26.70	20.20	20.40	710.0	67.0	68.0	432.0	29.3	326.00	11.10	80.00	10.60	57397	10657.0	27.5	27.5	1581522542	1.52	2.82
12/02/2020 15:49:03	120220	12022020	154903	121.37	12.419433	-56.989788	121.53	-0.770	0.650	1.520	121.47	-0.70	1.90	 	 	 	 	 	 	 	 	 	 	 	 	 	 	 	 	 	 	1581522543	1.56	2.89
12/02/2020 15:49:04	120220	12022020	154904	121.86	12.419432	-56.989793	121.97	-0.330	0.110	1.000	121.93	-1.20	1.40	 	 	 	 	 	 	 	 	 	 	 	 	 	 	 	 	 	 	1581522544	0.85	1.57
12/02/2020 15:49:05	120220	12022020	154905	122.00	12.419430	-56.989792	121.99	0.360	-0.960	0.560	121.98	-2.30	1.00	 	 	 	 	 	 	 	 	 	 	 	 	 	 	 	 	 	 	1581522545	0.35	0.65
12/02/2020 15:49:06	120220	12022020	154906	121.54	12.419428	-56.989788	121.48	0.930	-1.870	0.650	121.40	-3.20	1.00	 	 	 	 	 	 	 	 	 	 	 	 	 	 	 	 	 	 	1581522546	0.86	1.59
12/02/2020 15:49:07	120220	12022020	154907	120.95	12.419427	-56.989785	120.78	1.040	-1.850	1.190	120.82	-3.30	1.60	 	 	 	 	 	 	 	 	 	 	 	 	 	 	 	 	 	 	1581522547	0.74	1.37
12/02/2020 15:49:08	120220	12022020	154908	120.33	12.419425	-56.989787	120.37	0.650	-0.710	1.690	120.30	-2.20	2.10	 	 	 	 	 	 	 	 	 	 	 	 	 	 	 	 	 	 	1581522548	0.50	0.93
12/02/2020 15:49:09	120220	12022020	154909	120.40	12.419423	-56.989792	120.54	-0.020	0.950	1.750	120.48	-0.50	2.20	 	 	 	 	 	 	 	 	 	 	 	 	 	 	 	 	 	 	1581522549	1.13	2.09
12/02/2020 15:49:10	120220	12022020	154910	121.01	12.419425	-56.989798	121.18	-0.580	2.080	1.250	121.16	0.70	1.70	 	 	 	 	 	 	 	 	 	 	 	 	 	 	 	 	 	 	1581522550	1.34	2.48
12/02/2020 15:49:11	120220	12022020	154911	121.87	12.419427	-56.989802	122.02	-0.790	1.880	0.560	122.03	0.50	1.00	 	 	 	 	 	 	 	 	 	 	 	 	 	 	 	 	 	 	1581522551	0.73	1.35
12/02/2020 15:49:12	120220	12022020	154912	122.45	12.419425	-56.989802	122.51	-0.640	0.450	0.480	122.48	-0.80	0.90	 	 	 	 	 	 	 	 	 	 	 	 	 	 	 	 	 	 	1581522552	0.41	0.76
12/02/2020 15:49:13	120220	12022020	154913	122.21	12.419417	-56.989798	122.15	-0.270	-1.410	1.540	122.05	-2.70	1.80	 	 	 	 	 	 	 	 	 	 	 	 	 	 	 	 	 	 	1581522553	1.67	3.09
12/02/2020 15:49:14	120220	12022020	154914	121.22	12.419405	-56.989798	121.15	0.120	-2.620	3.180	121.00	-3.90	3.50	 	 	 	 	 	 	 	 	 	 	 	 	 	 	 	 	 	 	1581522554	2.69	4.98
12/02/2020 15:49:15	120220	12022020	154915	120.19	12.419392	-56.989802	120.19	0.410	-2.450	4.450	120.04	-3.90	4.80	 	 	 	 	 	 	 	 	 	 	 	 	 	 	 	 	 	 	1581522555	2.74	5.07
12/02/2020 15:49:16	120220	12022020	154916	119.69	12.419385	-56.989807	119.82	0.580	-1.050	4.670	119.66	-2.50	5.10	 	 	 	 	 	 	 	 	 	 	 	 	 	 	 	 	 	 	1581522556	1.94	3.59
12/02/2020 15:49:17	120220	12022020	154917	119.85	12.419385	-56.989812	120.04	0.610	0.660	3.490	119.94	-0.80	4.00	 	 	 	 	 	 	 	 	 	 	 	 	 	 	 	 	 	 	1581522557	0.93	1.72
12/02/2020 15:49:18	120220	12022020	154918	120.41	12.419395	-56.989812	120.57	0.380	1.650	1.420	120.52	0.20	1.90	 	 	 	 	 	 	 	 	 	 	 	 	 	 	 	 	 	 	1581522558	1.90	3.52
12/02/2020 15:49:19	120220	12022020	154919	120.78	12.419405	-56.989807	120.86	-0.060	1.430	-0.420	120.82	0.10	0.10	 	 	 	 	 	 	 	 	 	 	 	 	 	 	 	 	 	 	1581522559	2.48	4.59
12/02/2020 15:49:20	120220	12022020	154920	120.74	12.419410	-56.989800	120.71	-0.470	0.450	-1.300	120.69	-0.90	-0.90	 	 	 	 	 	 	 	 	 	 	 	 	 	 	 	 	 	 	1581522560	1.81	3.35
12/02/2020 15:49:21	120220	12022020	154921	120.51	12.419410	-56.989795	120.44	-0.720	-0.480	-1.380	120.45	-1.80	-1.00	 	 	 	 	 	 	 	 	 	 	 	 	 	 	 	 	 	 	1581522561	1.01	1.87
12/02/2020 15:49:22	120220	12022020	154922	120.22	12.419403	-56.989795	120.23	-0.730	-1.100	-0.780	120.18	-2.40	-0.40	 	 	 	 	 	 	 	 	 	 	 	 	 	 	 	 	 	 	1581522562	1.20	2.22
12/02/2020 15:49:23	120220	12022020	154923	119.93	12.419393	-56.989798	119.94	-0.430	-1.410	0.420	119.86	-2.80	0.70	 	 	 	 	 	 	 	 	 	 	 	 	 	 	 	 	 	 	1581522563	2.28	4.22
12/02/2020 15:49:24	120220	12022020	154924	119.60	12.419382	-56.989803	119.65	0.140	-1.320	1.620	119.55	-2.70	1.90	 	 	 	 	 	 	 	 	 	 	 	 	 	 	 	 	 	 	1581522564	2.82	5.22
12/02/2020 15:49:25	120220	12022020	154925	119.34	12.419373	-56.989807	119.38	0.750	-0.790	2.260	119.28	-2.20	2.60	 	 	 	 	 	 	 	 	 	 	 	 	 	 	 	 	 	 	1581522565	2.09	3.87
12/02/2020 15:49:26	120220	12022020	154926	119.05	12.419370	-56.989807	119.10	1.010	-0.060	2.360	118.98	-1.50	2.70	 	 	 	 	 	 	 	 	 	 	 	 	 	 	 	 	 	 	1581522566	0.58	1.07
12/02/2020 15:49:27	120220	12022020	154927	118.70	12.419372	-56.989807	118.74	0.640	0.610	2.240	118.63	-0.80	2.60	 	 	 	 	 	 	 	 	 	 	 	 	 	 	 	 	 	 	1581522567	0.55	1.02
12/02/2020 15:49:28	120220	12022020	154928	118.40	12.419375	-56.989805	118.47	-0.220	1.020	2.040	118.37	-0.40	2.40	 	 	 	 	 	 	 	 	 	 	 	 	 	 	 	 	 	 	1581522568	0.51	0.94
12/02/2020 15:49:29	120220	12022020	154929	118.32	12.419373	-56.989805	118.40	-0.950	0.950	1.850	118.33	-0.40	2.30	 	 	 	 	 	 	 	 	 	 	 	 	 	 	 	 	 	 	1581522569	0.17	0.31
12/02/2020 15:49:30	120220	12022020	154930	118.36	12.419370	-56.989805	118.43	-1.020	0.220	1.750	118.36	-1.10	2.10	 	 	 	 	 	 	 	 	 	 	 	 	 	 	 	 	 	 	1581522570	0.88	1.63
12/02/2020 15:49:31	120220	12022020	154931	118.27	12.419363	-56.989802	118.24	-0.440	-0.890	1.730	118.22	-2.20	2.10	 	 	 	 	 	 	 	 	 	 	 	 	 	 	 	 	 	 	1581522571	1.47	2.72
12/02/2020 15:49:32	120220	12022020	154932	117.83	12.419357	-56.989798	117.83	0.290	-1.550	1.690	117.75	-2.90	2.10	 	 	 	 	 	 	 	 	 	 	 	 	 	 	 	 	 	 	1581522572	1.65	3.06
12/02/2020 15:49:33	120220	12022020	154933	117.41	12.419352	-56.989797	117.41	0.630	-1.180	1.600	117.32	-2.60	2.00	 	 	 	 	 	 	 	 	 	 	 	 	 	 	 	 	 	 	1581522573	0.96	1.78
12/02/2020 15:49:34	120220	12022020	154934	116.99	12.419352	-56.989797	117.00	0.440	-0.140	1.610	116.91	-1.60	2.00	 	 	 	 	 	 	 	 	 	 	 	 	 	 	 	 	 	 	1581522574	0.24	0.44
12/02/2020 15:49:35	120220	12022020	154935	116.48	12.419352	-56.989800	116.45	0.050	0.650	1.720	116.36	-0.80	2.10	 	 	 	 	 	 	 	 	 	 	 	 	 	 	 	 	 	 	1581522575	0.60	1.11
12/02/2020 15:49:36	120220	12022020	154936	115.78	12.419352	-56.989800	115.72	-0.120	0.580	1.800	115.63	-0.80	2.20	 	 	 	 	 	 	 	 	 	 	 	 	 	 	 	 	 	 	1581522576	0.23	0.43
12/02/2020 15:49:37	120220	12022020	154937	115.09	12.419348	-56.989797	115.05	0.040	-0.100	1.810	114.98	-1.40	2.20	 	 	 	 	 	 	 	 	 	 	 	 	 	 	 	 	 	 	1581522577	0.98	1.81
12/02/2020 15:49:38	120220	12022020	154938	114.67	12.419345	-56.989792	114.68	0.260	-0.680	1.710	114.63	-2.00	2.10	 	 	 	 	 	 	 	 	 	 	 	 	 	 	 	 	 	 	1581522578	1.38	2.56
12/02/2020 15:49:39	120220	12022020	154939	114.63	12.419343	-56.989787	114.69	0.320	-0.740	1.440	114.65	-2.10	1.90	 	 	 	 	 	 	 	 	 	 	 	 	 	 	 	 	 	 	1581522579	1.05	1.94
12/02/2020 15:49:40	120220	12022020	154940	114.69	12.419342	-56.989785	114.69	0.200	-0.480	1.200	114.65	-1.90	1.60	 	 	 	 	 	 	 	 	 	 	 	 	 	 	 	 	 	 	1581522580	0.55	1.02
12/02/2020 15:49:41	120220	12022020	154941	114.34	12.419340	-56.989783	114.27	0.000	-0.140	1.370	114.21	-1.50	1.80	 	 	 	 	 	 	 	 	 	 	 	 	 	 	 	 	 	 	1581522581	0.46	0.85
12/02/2020 15:49:42	120220	12022020	154942	113.57	12.419337	-56.989783	113.49	-0.280	0.250	1.930	113.39	-1.10	2.30	 	 	 	 	 	 	 	 	 	 	 	 	 	 	 	 	 	 	1581522582	0.63	1.17
12/02/2020 15:49:43	120220	12022020	154943	112.75	12.419333	-56.989783	112.70	-0.660	0.670	2.520	112.62	-0.70	2.90	 	 	 	 	 	 	 	 	 	 	 	 	 	 	 	 	 	 	1581522583	0.82	1.52
12/02/2020 15:49:44	120220	12022020	154944	112.22	12.419328	-56.989785	112.23	-0.910	0.740	2.800	112.15	-0.60	3.20	 	 	 	 	 	 	 	 	 	 	 	 	 	 	 	 	 	 	1581522584	1.00	1.85
12/02/2020 15:49:45	120220	12022020	154945	111.96	12.419325	-56.989783	112.00	-0.750	0.160	2.690	111.91	-1.10	3.10	 	 	 	 	 	 	 	 	 	 	 	 	 	 	 	 	 	 	1581522585	1.01	1.87
12/02/2020 15:49:46	120220	12022020	154946	111.62	12.419320	-56.989780	111.61	-0.070	-0.950	2.450	111.52	-2.20	2.90	 	 	 	 	 	 	 	 	 	 	 	 	 	 	 	 	 	 	1581522586	1.30	2.41
12/02/2020 15:49:47	120220	12022020	154947	111.04	12.419317	-56.989773	111.00	0.870	-1.900	2.020	110.92	-3.20	2.50	 	 	 	 	 	 	 	 	 	 	 	 	 	 	 	 	 	 	1581522587	1.78	3.30
12/02/2020 15:49:48	120220	12022020	154948	110.45	12.419315	-56.989765	110.42	1.430	-1.780	1.370	110.34	-3.20	1.80	 	 	 	 	 	 	 	 	 	 	 	 	 	 	 	 	 	 	1581522588	1.67	3.09
12/02/2020 15:49:49	120220	12022020	154949	109.93	12.419318	-56.989762	109.91	1.160	-0.460	0.760	109.83	-1.90	1.20	 	 	 	 	 	 	 	 	 	 	 	 	 	 	 	 	 	 	1581522589	1.13	2.09
12/02/2020 15:49:50	120220	12022020	154950	109.45	12.419325	-56.989762	109.41	0.220	1.170	0.260	109.36	-0.30	0.70	 	 	 	 	 	 	 	 	 	 	 	 	 	 	 	 	 	 	1581522590	1.28	2.37
12/02/2020 15:49:51	120220	12022020	154951	108.96	12.419330	-56.989763	108.91	-0.800	1.930	-0.180	108.85	0.60	0.30	 	 	 	 	 	 	 	 	 	 	 	 	 	 	 	 	 	 	1581522591	1.10	2.04
12/02/2020 15:49:52	120220	12022020	154952	108.37	12.419330	-56.989762	108.30	-1.230	1.250	-0.320	108.24	-0.00	0.10	 	 	 	 	 	 	 	 	 	 	 	 	 	 	 	 	 	 	1581522592	0.43	0.80
12/02/2020 15:49:53	120220	12022020	154953	107.83	12.419327	-56.989755	107.81	-0.920	-0.260	-0.150	107.75	-1.50	0.20	 	 	 	 	 	 	 	 	 	 	 	 	 	 	 	 	 	 	1581522593	1.61	2.98
12/02/2020 15:49:54	120220	12022020	154954	107.66	12.419320	-56.989748	107.71	-0.260	-1.410	-0.010	107.66	-2.70	0.40	 	 	 	 	 	 	 	 	 	 	 	 	 	 	 	 	 	 	1581522594	2.14	3.96
12/02/2020 15:49:55	120220	12022020	154955	107.69	12.419315	-56.989743	107.71	0.260	-1.500	0.180	107.67	-2.90	0.60	 	 	 	 	 	 	 	 	 	 	 	 	 	 	 	 	 	 	1581522595	1.50	2.78
12/02/2020 15:49:56	120220	12022020	154956	107.39	12.419312	-56.989743	107.33	0.480	-0.910	0.690	107.26	-2.30	1.00	 	 	 	 	 	 	 	 	 	 	 	 	 	 	 	 	 	 	1581522596	0.87	1.61
12/02/2020 15:49:57	120220	12022020	154957	106.57	12.419307	-56.989743	106.45	0.520	-0.320	1.480	106.36	-1.70	1.80	 	 	 	 	 	 	 	 	 	 	 	 	 	 	 	 	 	 	1581522597	0.97	1.80
12/02/2020 15:49:58	120220	12022020	154958	105.45	12.419302	-56.989743	105.34	0.530	-0.070	2.280	105.23	-1.40	2.60	 	 	 	 	 	 	 	 	 	 	 	 	 	 	 	 	 	 	1581522598	1.12	2.07
12/02/2020 15:49:59	120220	12022020	154959	104.53	12.419298	-56.989738	104.54	0.420	0.110	2.490	104.43	-1.30	2.90	 	 	 	 	 	 	 	 	 	 	 	 	 	 	 	 	 	 	1581522599	1.08	2.00
12/02/2020 15:50:00	120220	12022020	155000	104.40	12.419300	-56.989735	104.55	-0.080	0.610	1.890	104.48	-0.80	2.30	 	 	 	 	 	 	 	 	 	 	 	 	 	 	 	 	 	 	1581522600	0.96	1.78
12/02/2020 15:50:01	120220	12022020	155001	105.08	12.419303	-56.989733	105.30	-0.860	1.180	0.900	105.27	-0.20	1.40	 	 	 	 	 	 	 	 	 	 	 	 	 	 	 	 	 	 	1581522601	0.87	1.61
12/02/2020 15:50:02	120220	12022020	155002	105.86	12.419305	-56.989733	105.99	-1.320	0.960	0.270	105.94	-0.30	0.70	1016.80	26.60	26.80	20.10	20.30	642.0	67.0	67.0	434.0	29.2	328.00	11.40	81.00	11.00	53812	11807.0	27.5	27.5	1581522602	0.31	0.57
12/02/2020 15:50:03	120220	12022020	155003	105.86	12.419300	-56.989730	105.86	-0.820	-0.520	0.490	105.75	-1.70	0.90	 	 	 	 	 	 	 	 	 	 	 	 	 	 	 	 	 	 	1581522603	1.17	2.17
12/02/2020 15:50:04	120220	12022020	155004	105.04	12.419292	-56.989722	104.97	0.360	-2.160	1.260	104.83	-3.40	1.60	 	 	 	 	 	 	 	 	 	 	 	 	 	 	 	 	 	 	1581522604	2.65	4.91
12/02/2020 15:50:05	120220	12022020	155005	104.07	12.419283	-56.989713	104.06	1.220	-2.360	2.050	103.94	-3.70	2.40	 	 	 	 	 	 	 	 	 	 	 	 	 	 	 	 	 	 	1581522605	2.50	4.63
12/02/2020 15:50:06	120220	12022020	155006	103.66	12.419278	-56.989712	103.75	1.110	-1.000	2.550	103.66	-2.40	2.90	 	 	 	 	 	 	 	 	 	 	 	 	 	 	 	 	 	 	1581522606	1.05	1.94
12/02/2020 15:50:07	120220	12022020	155007	103.82	12.419277	-56.989715	103.98	0.330	0.730	2.550	103.89	-0.70	3.00	 	 	 	 	 	 	 	 	 	 	 	 	 	 	 	 	 	 	1581522607	0.75	1.39
12/02/2020 15:50:08	120220	12022020	155008	104.13	12.419277	-56.989717	104.26	-0.310	1.650	1.930	104.18	0.30	2.40	 	 	 	 	 	 	 	 	 	 	 	 	 	 	 	 	 	 	1581522608	0.50	0.93
12/02/2020 15:50:09	120220	12022020	155009	104.29	12.419280	-56.989713	104.38	-0.390	1.510	0.880	104.30	0.20	1.40	 	 	 	 	 	 	 	 	 	 	 	 	 	 	 	 	 	 	1581522609	0.79	1.46
12/02/2020 15:50:10	120220	12022020	155010	104.34	12.419283	-56.989707	104.40	-0.200	0.610	-0.010	104.34	-0.70	0.40	 	 	 	 	 	 	 	 	 	 	 	 	 	 	 	 	 	 	1581522610	1.64	3.04
12/02/2020 15:50:11	120220	12022020	155011	104.36	12.419285	-56.989700	104.41	-0.100	-0.570	-0.260	104.36	-1.90	0.20	 	 	 	 	 	 	 	 	 	 	 	 	 	 	 	 	 	 	1581522611	1.71	3.17
12/02/2020 15:50:12	120220	12022020	155012	104.35	12.419282	-56.989693	104.37	-0.180	-1.440	0.060	104.33	-2.70	0.50	 	 	 	 	 	 	 	 	 	 	 	 	 	 	 	 	 	 	1581522612	1.68	3.11
12/02/2020 15:50:13	120220	12022020	155013	104.20	12.419273	-56.989688	104.22	-0.250	-1.580	0.570	104.16	-2.90	0.90	 	 	 	 	 	 	 	 	 	 	 	 	 	 	 	 	 	 	1581522613	1.88	3.48
12/02/2020 15:50:14	120220	12022020	155014	103.99	12.419265	-56.989687	104.02	-0.090	-1.070	0.990	103.94	-2.50	1.40	 	 	 	 	 	 	 	 	 	 	 	 	 	 	 	 	 	 	1581522614	1.73	3.20
12/02/2020 15:50:15	120220	12022020	155015	103.79	12.419260	-56.989687	103.83	0.200	-0.270	1.270	103.76	-1.70	1.70	 	 	 	 	 	 	 	 	 	 	 	 	 	 	 	 	 	 	1581522615	1.17	2.17
12/02/2020 15:50:16	120220	12022020	155016	103.63	12.419258	-56.989685	103.68	0.370	0.330	1.390	103.60	-1.00	1.80	 	 	 	 	 	 	 	 	 	 	 	 	 	 	 	 	 	 	1581522616	0.61	1.13
12/02/2020 15:50:17	120220	12022020	155017	103.52	12.419257	-56.989682	103.57	0.340	0.460	1.180	103.51	-0.90	1.60	 	 	 	 	 	 	 	 	 	 	 	 	 	 	 	 	 	 	1581522617	0.75	1.39
12/02/2020 15:50:18	120220	12022020	155018	103.48	12.419257	-56.989675	103.52	0.220	0.240	0.750	103.46	-1.10	1.20	 	 	 	 	 	 	 	 	 	 	 	 	 	 	 	 	 	 	1581522618	1.23	2.28
12/02/2020 15:50:19	120220	12022020	155019	103.39	12.419257	-56.989668	103.41	0.160	-0.100	0.480	103.37	-1.40	0.90	 	 	 	 	 	 	 	 	 	 	 	 	 	 	 	 	 	 	1581522619	1.46	2.70
12/02/2020 15:50:20	120220	12022020	155020	103.35	12.419255	-56.989662	103.41	0.160	-0.290	0.480	103.37	-1.60	0.90	 	 	 	 	 	 	 	 	 	 	 	 	 	 	 	 	 	 	1581522620	1.45	2.69
12/02/2020 15:50:21	120220	12022020	155021	103.50	12.419253	-56.989657	103.65	0.020	-0.150	0.630	103.56	-1.50	1.00	 	 	 	 	 	 	 	 	 	 	 	 	 	 	 	 	 	 	1581522621	1.17	2.17
12/02/2020 15:50:22	120220	12022020	155022	103.85	12.419248	-56.989655	103.93	-0.350	0.130	0.790	103.89	-1.20	1.20	 	 	 	 	 	 	 	 	 	 	 	 	 	 	 	 	 	 	1581522622	0.97	1.80
12/02/2020 15:50:23	120220	12022020	155023	103.93	12.419243	-56.989653	103.96	-0.750	0.250	0.950	103.92	-1.10	1.30	 	 	 	 	 	 	 	 	 	 	 	 	 	 	 	 	 	 	1581522623	1.10	2.04
12/02/2020 15:50:24	120220	12022020	155024	103.69	12.419238	-56.989652	103.71	-0.830	0.070	1.350	103.62	-1.20	1.70	 	 	 	 	 	 	 	 	 	 	 	 	 	 	 	 	 	 	1581522624	1.35	2.50
12/02/2020 15:50:25	120220	12022020	155025	103.26	12.419230	-56.989650	103.26	-0.320	-0.530	1.950	103.16	-1.80	2.30	 	 	 	 	 	 	 	 	 	 	 	 	 	 	 	 	 	 	1581522625	1.71	3.17
12/02/2020 15:50:26	120220	12022020	155026	102.74	12.419223	-56.989643	102.76	0.550	-1.310	2.400	102.65	-2.60	2.80	 	 	 	 	 	 	 	 	 	 	 	 	 	 	 	 	 	 	1581522626	1.92	3.56
12/02/2020 15:50:27	120220	12022020	155027	102.35	12.419220	-56.989635	102.39	1.210	-1.660	2.350	102.29	-3.00	2.80	 	 	 	 	 	 	 	 	 	 	 	 	 	 	 	 	 	 	1581522627	1.87	3.46
12/02/2020 15:50:28	120220	12022020	155028	102.09	12.419222	-56.989627	102.11	1.210	-1.150	1.850	102.04	-2.50	2.30	 	 	 	 	 	 	 	 	 	 	 	 	 	 	 	 	 	 	1581522628	1.63	3.02
12/02/2020 15:50:29	120220	12022020	155029	101.90	12.419225	-56.989623	101.94	0.520	0.130	1.260	101.88	-1.30	1.70	 	 	 	 	 	 	 	 	 	 	 	 	 	 	 	 	 	 	1581522629	1.11	2.06
12/02/2020 15:50:30	120220	12022020	155030	101.88	12.419227	-56.989623	101.94	-0.390	1.380	0.940	101.90	-0.00	1.40	 	 	 	 	 	 	 	 	 	 	 	 	 	 	 	 	 	 	1581522630	0.42	0.78
12/02/2020 15:50:31	120220	12022020	155031	102.08	12.419225	-56.989623	102.18	-0.900	1.760	0.810	102.15	0.40	1.20	 	 	 	 	 	 	 	 	 	 	 	 	 	 	 	 	 	 	1581522631	0.33	0.61
12/02/2020 15:50:32	120220	12022020	155032	102.40	12.419222	-56.989620	102.48	-0.760	1.050	0.640	102.45	-0.20	1.00	 	 	 	 	 	 	 	 	 	 	 	 	 	 	 	 	 	 	1581522632	1.01	1.87
12/02/2020 15:50:33	120220	12022020	155033	102.45	12.419218	-56.989613	102.45	-0.240	-0.200	0.490	102.39	-1.50	0.90	 	 	 	 	 	 	 	 	 	 	 	 	 	 	 	 	 	 	1581522633	1.61	2.98
12/02/2020 15:50:34	120220	12022020	155034	101.98	12.419215	-56.989607	101.90	0.230	-1.170	0.630	101.84	-2.50	1.00	 	 	 	 	 	 	 	 	 	 	 	 	 	 	 	 	 	 	1581522634	1.70	3.15
12/02/2020 15:50:35	120220	12022020	155035	101.25	12.419212	-56.989602	101.16	0.360	-1.360	1.170	101.11	-2.70	1.50	 	 	 	 	 	 	 	 	 	 	 	 	 	 	 	 	 	 	1581522635	1.21	2.24
12/02/2020 15:50:36	120220	12022020	155036	100.61	12.419208	-56.989598	100.58	0.220	-1.050	1.800	100.53	-2.40	2.20	 	 	 	 	 	 	 	 	 	 	 	 	 	 	 	 	 	 	1581522636	0.83	1.54
12/02/2020 15:50:37	120220	12022020	155037	100.28	12.419205	-56.989597	100.32	0.040	-0.840	2.100	100.26	-2.20	2.50	 	 	 	 	 	 	 	 	 	 	 	 	 	 	 	 	 	 	1581522637	0.84	1.56
12/02/2020 15:50:38	120220	12022020	155038	100.23	12.419202	-56.989593	100.30	-0.030	-0.810	1.980	100.23	-2.10	2.40	 	 	 	 	 	 	 	 	 	 	 	 	 	 	 	 	 	 	1581522638	1.10	2.04
12/02/2020 15:50:39	120220	12022020	155039	100.23	12.419198	-56.989587	100.30	-0.010	-0.590	1.650	100.22	-1.90	2.10	 	 	 	 	 	 	 	 	 	 	 	 	 	 	 	 	 	 	1581522639	1.39	2.57
12/02/2020 15:50:40	120220	12022020	155040	100.14	12.419195	-56.989583	100.18	-0.010	0.120	1.230	100.10	-1.30	1.60	 	 	 	 	 	 	 	 	 	 	 	 	 	 	 	 	 	 	1581522640	1.16	2.15
12/02/2020 15:50:41	120220	12022020	155041	99.92	12.419195	-56.989582	99.93	-0.110	1.100	0.760	99.87	-0.30	1.20	 	 	 	 	 	 	 	 	 	 	 	 	 	 	 	 	 	 	1581522641	0.48	0.89
12/02/2020 15:50:42	120220	12022020	155042	99.67	12.419195	-56.989582	99.68	-0.280	1.700	0.160	99.63	0.30	0.60	 	 	 	 	 	 	 	 	 	 	 	 	 	 	 	 	 	 	1581522642	0.22	0.41
12/02/2020 15:50:43	120220	12022020	155043	99.55	12.419198	-56.989580	99.57	-0.340	1.360	-0.640	99.55	0.10	-0.20	 	 	 	 	 	 	 	 	 	 	 	 	 	 	 	 	 	 	1581522643	0.84	1.56
12/02/2020 15:50:44	120220	12022020	155044	99.56	12.419203	-56.989575	99.61	-0.180	0.050	-1.310	99.58	-1.20	-0.90	 	 	 	 	 	 	 	 	 	 	 	 	 	 	 	 	 	 	1581522644	1.51	2.80
12/02/2020 15:50:45	120220	12022020	155045	99.61	12.419205	-56.989567	99.64	0.140	-1.470	-1.380	99.61	-2.70	-1.00	 	 	 	 	 	 	 	 	 	 	 	 	 	 	 	 	 	 	1581522645	1.75	3.24
12/02/2020 15:50:46	120220	12022020	155046	99.49	12.419202	-56.989560	99.48	0.400	-2.320	-0.730	99.44	-3.60	-0.40	 	 	 	 	 	 	 	 	 	 	 	 	 	 	 	 	 	 	1581522646	1.69	3.13
12/02/2020 15:50:47	120220	12022020	155047	99.23	12.419195	-56.989555	99.17	0.530	-2.120	0.330	99.17	-3.50	0.70	 	 	 	 	 	 	 	 	 	 	 	 	 	 	 	 	 	 	1581522647	1.71	3.17
12/02/2020 15:50:48	120220	12022020	155048	98.79	12.419187	-56.989555	98.81	0.520	-1.150	1.520	98.70	-2.60	1.80	 	 	 	 	 	 	 	 	 	 	 	 	 	 	 	 	 	 	1581522648	1.74	3.22
12/02/2020 15:50:49	120220	12022020	155049	98.28	12.419180	-56.989555	98.30	0.320	0.080	2.680	98.17	-1.30	3.00	 	 	 	 	 	 	 	 	 	 	 	 	 	 	 	 	 	 	1581522649	1.69	3.13
12/02/2020 15:50:50	120220	12022020	155050	97.82	12.419173	-56.989555	97.92	-0.130	1.100	3.260	97.77	-0.30	3.60	 	 	 	 	 	 	 	 	 	 	 	 	 	 	 	 	 	 	1581522650	1.22	2.26
12/02/2020 15:50:51	120220	12022020	155051	97.84	12.419172	-56.989555	98.02	-0.730	1.560	2.890	97.92	0.20	3.30	 	 	 	 	 	 	 	 	 	 	 	 	 	 	 	 	 	 	1581522651	0.45	0.83
12/02/2020 15:50:52	120220	12022020	155052	98.33	12.419173	-56.989552	98.51	-1.100	1.370	1.880	98.44	0.10	2.30	 	 	 	 	 	 	 	 	 	 	 	 	 	 	 	 	 	 	1581522652	0.56	1.04
12/02/2020 15:50:53	120220	12022020	155053	98.75	12.419175	-56.989548	98.86	-0.900	0.510	0.940	98.79	-0.80	1.40	 	 	 	 	 	 	 	 	 	 	 	 	 	 	 	 	 	 	1581522653	0.87	1.61
12/02/2020 15:50:54	120220	12022020	155054	98.81	12.419175	-56.989543	98.84	-0.230	-0.680	0.390	98.78	-1.90	0.80	 	 	 	 	 	 	 	 	 	 	 	 	 	 	 	 	 	 	1581522654	1.25	2.31
12/02/2020 15:50:55	120220	12022020	155055	98.62	12.419175	-56.989537	98.62	0.420	-1.450	0.130	98.56	-2.80	0.50	 	 	 	 	 	 	 	 	 	 	 	 	 	 	 	 	 	 	1581522655	1.34	2.48
12/02/2020 15:50:56	120220	12022020	155056	98.25	12.419173	-56.989533	98.20	0.720	-1.480	0.140	98.14	-2.80	0.50	 	 	 	 	 	 	 	 	 	 	 	 	 	 	 	 	 	 	1581522656	0.86	1.59
12/02/2020 15:50:57	120220	12022020	155057	97.65	12.419172	-56.989532	97.58	0.750	-0.970	0.400	97.51	-2.40	0.80	 	 	 	 	 	 	 	 	 	 	 	 	 	 	 	 	 	 	1581522657	0.31	0.57
12/02/2020 15:50:58	120220	12022020	155058	96.97	12.419172	-56.989532	96.91	0.640	-0.470	0.700	96.84	-1.80	1.10	 	 	 	 	 	 	 	 	 	 	 	 	 	 	 	 	 	 	1581522658	0.14	0.26
12/02/2020 15:50:59	120220	12022020	155059	96.53	12.419173	-56.989528	96.46	0.490	-0.310	0.770	96.47	-1.70	1.20	 	 	 	 	 	 	 	 	 	 	 	 	 	 	 	 	 	 	1581522659	0.60	1.11
12/02/2020 15:51:00	120220	12022020	155100	96.36	12.419175	-56.989523	96.43	0.300	-0.180	0.560	96.39	-1.50	1.00	 	 	 	 	 	 	 	 	 	 	 	 	 	 	 	 	 	 	1581522660	1.09	2.02
12/02/2020 15:51:01	120220	12022020	155101	96.55	12.419177	-56.989520	96.71	-0.040	0.360	0.410	96.63	-1.00	0.80	 	 	 	 	 	 	 	 	 	 	 	 	 	 	 	 	 	 	1581522661	0.82	1.52
12/02/2020 15:51:02	120220	12022020	155102	96.98	12.419175	-56.989520	97.05	-0.560	1.060	0.470	97.03	-0.30	0.90	1016.80	26.70	26.70	20.30	20.40	624.0	68.0	68.0	435.0	29.1	346.00	11.90	86.00	11.30	52740	9811.0	27.5	27.5	1581522662	0.37	0.69
12/02/2020 15:51:03	120220	12022020	155103	97.03	12.419170	-56.989522	97.03	-1.060	1.280	0.880	96.97	-0.10	1.20	 	 	 	 	 	 	 	 	 	 	 	 	 	 	 	 	 	 	1581522663	0.97	1.80
12/02/2020 15:51:04	120220	12022020	155104	96.47	12.419163	-56.989522	96.41	-1.210	0.750	1.750	96.30	-0.50	2.10	 	 	 	 	 	 	 	 	 	 	 	 	 	 	 	 	 	 	1581522664	1.47	2.72
12/02/2020 15:51:05	120220	12022020	155105	95.61	12.419155	-56.989518	95.58	-0.770	-0.360	2.560	95.45	-1.60	2.90	 	 	 	 	 	 	 	 	 	 	 	 	 	 	 	 	 	 	1581522665	1.81	3.35
12/02/2020 15:51:06	120220	12022020	155106	94.97	12.419150	-56.989513	95.01	0.090	-1.490	2.780	94.89	-2.80	3.20	 	 	 	 	 	 	 	 	 	 	 	 	 	 	 	 	 	 	1581522666	1.56	2.89
12/02/2020 15:51:07	120220	12022020	155107	94.67	12.419150	-56.989508	94.76	0.840	-1.950	2.370	94.64	-3.30	2.80	 	 	 	 	 	 	 	 	 	 	 	 	 	 	 	 	 	 	1581522667	1.13	2.09
12/02/2020 15:51:08	120220	12022020	155108	94.59	12.419153	-56.989505	94.70	1.090	-1.500	1.480	94.60	-2.90	1.90	 	 	 	 	 	 	 	 	 	 	 	 	 	 	 	 	 	 	1581522668	1.14	2.11
12/02/2020 15:51:09	120220	12022020	155109	94.58	12.419160	-56.989505	94.67	0.860	-0.640	0.600	94.56	-2.00	1.00	 	 	 	 	 	 	 	 	 	 	 	 	 	 	 	 	 	 	1581522669	1.36	2.52
12/02/2020 15:51:10	120220	12022020	155110	94.30	12.419163	-56.989505	94.31	0.500	-0.000	0.300	94.19	-1.40	0.70	 	 	 	 	 	 	 	 	 	 	 	 	 	 	 	 	 	 	1581522670	0.78	1.44
12/02/2020 15:51:11	120220	12022020	155111	93.79	12.419163	-56.989503	93.64	0.240	0.280	0.400	93.65	-1.10	0.80	 	 	 	 	 	 	 	 	 	 	 	 	 	 	 	 	 	 	1581522671	0.48	0.89
12/02/2020 15:51:12	120220	12022020	155112	93.11	12.419163	-56.989500	93.17	-0.100	0.630	0.340	93.04	-0.80	0.80	 	 	 	 	 	 	 	 	 	 	 	 	 	 	 	 	 	 	1581522672	0.71	1.31
12/02/2020 15:51:13	120220	12022020	155113	92.96	12.419165	-56.989498	93.08	-0.620	1.220	0.090	92.97	-0.20	0.50	 	 	 	 	 	 	 	 	 	 	 	 	 	 	 	 	 	 	1581522673	0.26	0.48
12/02/2020 15:51:14	120220	12022020	155114	93.19	12.419165	-56.989502	93.36	-1.120	1.590	-0.180	93.26	0.20	0.20	 	 	 	 	 	 	 	 	 	 	 	 	 	 	 	 	 	 	1581522674	0.53	0.98
12/02/2020 15:51:15	120220	12022020	155115	93.57	12.419165	-56.989503	93.73	-1.260	1.090	-0.280	93.63	-0.20	0.10	 	 	 	 	 	 	 	 	 	 	 	 	 	 	 	 	 	 	1581522675	0.47	0.87
12/02/2020 15:51:16	120220	12022020	155116	93.75	12.419162	-56.989502	93.86	-0.750	-0.480	-0.150	93.74	-1.70	0.20	 	 	 	 	 	 	 	 	 	 	 	 	 	 	 	 	 	 	1581522676	0.87	1.61
12/02/2020 15:51:17	120220	12022020	155117	93.49	12.419155	-56.989495	93.53	0.230	-2.380	0.310	93.38	-3.60	0.70	 	 	 	 	 	 	 	 	 	 	 	 	 	 	 	 	 	 	1581522677	1.84	3.41
12/02/2020 15:51:18	120220	12022020	155118	92.74	12.419150	-56.989487	92.72	1.150	-3.170	1.160	92.55	-4.50	1.50	 	 	 	 	 	 	 	 	 	 	 	 	 	 	 	 	 	 	1581522678	2.00	3.70
12/02/2020 15:51:19	120220	12022020	155119	91.80	12.419147	-56.989483	91.82	1.490	-2.240	1.940	91.63	-3.70	2.30	 	 	 	 	 	 	 	 	 	 	 	 	 	 	 	 	 	 	1581522679	0.96	1.78
12/02/2020 15:51:20	120220	12022020	155120	91.21	12.419147	-56.989487	91.33	1.140	-0.390	1.970	91.18	-1.80	2.40	 	 	 	 	 	 	 	 	 	 	 	 	 	 	 	 	 	 	1581522680	0.51	0.94
12/02/2020 15:51:21	120220	12022020	155121	91.31	12.419152	-56.989490	91.53	0.350	1.240	1.180	91.41	-0.20	1.60	 	 	 	 	 	 	 	 	 	 	 	 	 	 	 	 	 	 	1581522681	1.27	2.35
12/02/2020 15:51:22	120220	12022020	155122	91.90	12.419157	-56.989493	92.15	-0.520	2.200	0.240	92.04	0.80	0.70	 	 	 	 	 	 	 	 	 	 	 	 	 	 	 	 	 	 	1581522682	1.26	2.33
12/02/2020 15:51:23	120220	12022020	155123	92.46	12.419160	-56.989493	92.63	-1.170	2.230	-0.240	92.52	0.90	0.20	 	 	 	 	 	 	 	 	 	 	 	 	 	 	 	 	 	 	1581522683	0.54	1.00
12/02/2020 15:51:24	120220	12022020	155124	92.58	12.419157	-56.989493	92.69	-1.330	1.150	-0.160	92.55	-0.10	0.20	 	 	 	 	 	 	 	 	 	 	 	 	 	 	 	 	 	 	1581522684	0.54	1.00
12/02/2020 15:51:25	120220	12022020	155125	92.34	12.419152	-56.989488	92.41	-0.970	-0.470	0.170	92.27	-1.70	0.50	 	 	 	 	 	 	 	 	 	 	 	 	 	 	 	 	 	 	1581522685	1.44	2.67
12/02/2020 15:51:26	120220	12022020	155126	92.02	12.419147	-56.989483	92.12	-0.280	-1.650	0.590	91.97	-2.90	0.90	 	 	 	 	 	 	 	 	 	 	 	 	 	 	 	 	 	 	1581522686	1.52	2.82
12/02/2020 15:51:27	120220	12022020	155127	91.74	12.419143	-56.989482	91.84	0.450	-1.960	1.010	91.68	-3.30	1.40	 	 	 	 	 	 	 	 	 	 	 	 	 	 	 	 	 	 	1581522687	0.84	1.56
12/02/2020 15:51:28	120220	12022020	155128	91.43	12.419142	-56.989482	91.54	0.990	-1.680	1.360	91.37	-3.00	1.70	 	 	 	 	 	 	 	 	 	 	 	 	 	 	 	 	 	 	1581522688	0.27	0.50
12/02/2020 15:51:29	120220	12022020	155129	91.20	12.419143	-56.989482	91.34	1.180	-1.140	1.440	91.18	-2.50	1.80	 	 	 	 	 	 	 	 	 	 	 	 	 	 	 	 	 	 	1581522689	0.10	0.19
12/02/2020 15:51:30	120220	12022020	155130	91.17	12.419145	-56.989482	91.33	0.960	-0.360	1.090	91.18	-1.80	1.50	 	 	 	 	 	 	 	 	 	 	 	 	 	 	 	 	 	 	1581522690	0.53	0.98
12/02/2020 15:51:31	120220	12022020	155131	91.21	12.419148	-56.989482	91.37	0.430	0.520	0.700	91.21	-0.90	1.10	 	 	 	 	 	 	 	 	 	 	 	 	 	 	 	 	 	 	1581522691	0.78	1.44
12/02/2020 15:51:32	120220	12022020	155132	91.19	12.419150	-56.989483	91.33	-0.220	1.050	0.700	91.18	-0.30	1.10	 	 	 	 	 	 	 	 	 	 	 	 	 	 	 	 	 	 	1581522692	0.41	0.76
12/02/2020 15:51:33	120220	12022020	155133	91.17	12.419148	-56.989482	91.33	-0.740	1.030	1.010	91.18	-0.30	1.40	 	 	 	 	 	 	 	 	 	 	 	 	 	 	 	 	 	 	1581522693	0.43	0.80
12/02/2020 15:51:34	120220	12022020	155134	91.23	12.419145	-56.989482	91.40	-0.930	0.720	1.230	91.23	-0.60	1.60	 	 	 	 	 	 	 	 	 	 	 	 	 	 	 	 	 	 	1581522694	0.92	1.70
12/02/2020 15:51:35	120220	12022020	155135	91.21	12.419142	-56.989482	91.34	-0.730	0.250	1.210	91.21	-1.10	1.60	 	 	 	 	 	 	 	 	 	 	 	 	 	 	 	 	 	 	1581522695	0.70	1.30
12/02/2020 15:51:36	120220	12022020	155136	90.99	12.419140	-56.989480	91.10	-0.280	-0.300	1.090	90.94	-1.60	1.50	 	 	 	 	 	 	 	 	 	 	 	 	 	 	 	 	 	 	1581522696	0.24	0.44
12/02/2020 15:51:37	120220	12022020	155137	90.74	12.419142	-56.989478	90.84	0.160	-0.840	0.990	90.70	-2.20	1.40	 	 	 	 	 	 	 	 	 	 	 	 	 	 	 	 	 	 	1581522697	0.28	0.52
12/02/2020 15:51:38	120220	12022020	155138	90.58	12.419142	-56.989477	90.70	0.420	-1.290	0.990	90.56	-2.60	1.40	 	 	 	 	 	 	 	 	 	 	 	 	 	 	 	 	 	 	1581522698	0.38	0.70
12/02/2020 15:51:39	120220	12022020	155139	90.49	12.419142	-56.989475	90.63	0.560	-1.580	0.980	90.49	-2.90	1.40	 	 	 	 	 	 	 	 	 	 	 	 	 	 	 	 	 	 	1581522699	0.46	0.85
12/02/2020 15:51:40	120220	12022020	155140	90.53	12.419142	-56.989473	90.67	0.690	-1.400	0.830	90.54	-2.80	1.20	 	 	 	 	 	 	 	 	 	 	 	 	 	 	 	 	 	 	1581522700	0.53	0.98
12/02/2020 15:51:41	120220	12022020	155141	90.55	12.419143	-56.989472	90.66	0.730	-0.440	0.610	90.53	-1.90	1.00	 	 	 	 	 	 	 	 	 	 	 	 	 	 	 	 	 	 	1581522701	0.20	0.37
12/02/2020 15:51:42	120220	12022020	155142	90.35	12.419145	-56.989475	90.44	0.540	0.720	0.470	90.28	-0.60	0.90	 	 	 	 	 	 	 	 	 	 	 	 	 	 	 	 	 	 	1581522702	0.74	1.37
12/02/2020 15:51:43	120220	12022020	155143	89.89	12.419147	-56.989480	89.90	0.040	1.600	0.470	89.78	0.20	0.90	 	 	 	 	 	 	 	 	 	 	 	 	 	 	 	 	 	 	1581522703	0.93	1.72
12/02/2020 15:51:44	120220	12022020	155144	89.39	12.419148	-56.989482	89.44	-0.490	1.430	0.560	89.32	0.10	1.00	 	 	 	 	 	 	 	 	 	 	 	 	 	 	 	 	 	 	1581522704	0.45	0.83
12/02/2020 15:51:45	120220	12022020	155145	89.19	12.419148	-56.989480	89.30	-0.850	0.440	0.520	89.19	-0.80	0.90	 	 	 	 	 	 	 	 	 	 	 	 	 	 	 	 	 	 	1581522705	0.37	0.69
12/02/2020 15:51:46	120220	12022020	155146	89.31	12.419150	-56.989475	89.45	-0.870	-0.870	0.370	89.36	-2.20	0.80	 	 	 	 	 	 	 	 	 	 	 	 	 	 	 	 	 	 	1581522706	0.82	1.52
12/02/2020 15:51:47	120220	12022020	155147	89.56	12.419148	-56.989472	89.68	-0.550	-1.710	0.370	89.56	-3.00	0.80	 	 	 	 	 	 	 	 	 	 	 	 	 	 	 	 	 	 	1581522707	0.94	1.74
12/02/2020 15:51:48	120220	12022020	155148	89.72	12.419145	-56.989470	89.80	-0.030	-1.640	0.690	89.72	-3.00	1.10	 	 	 	 	 	 	 	 	 	 	 	 	 	 	 	 	 	 	1581522708	0.86	1.59
12/02/2020 15:51:49	120220	12022020	155149	89.64	12.419140	-56.989470	89.60	0.520	-0.910	1.160	89.58	-2.30	1.50	 	 	 	 	 	 	 	 	 	 	 	 	 	 	 	 	 	 	1581522709	1.15	2.13
12/02/2020 15:51:50	120220	12022020	155150	89.04	12.419137	-56.989473	89.03	0.870	-0.030	1.560	88.91	-1.40	1.90	 	 	 	 	 	 	 	 	 	 	 	 	 	 	 	 	 	 	1581522710	0.88	1.63
12/02/2020 15:51:51	120220	12022020	155151	88.42	12.419138	-56.989475	88.44	0.780	0.590	1.480	88.33	-0.80	1.90	 	 	 	 	 	 	 	 	 	 	 	 	 	 	 	 	 	 	1581522711	0.49	0.91
12/02/2020 15:51:52	120220	12022020	155152	88.15	12.419143	-56.989477	88.23	0.270	0.740	0.880	88.14	-0.60	1.30	 	 	 	 	 	 	 	 	 	 	 	 	 	 	 	 	 	 	1581522712	1.12	2.07
12/02/2020 15:51:53	120220	12022020	155153	88.27	12.419148	-56.989477	88.38	-0.310	0.490	0.280	88.32	-0.80	0.70	 	 	 	 	 	 	 	 	 	 	 	 	 	 	 	 	 	 	1581522713	1.26	2.33
12/02/2020 15:51:54	120220	12022020	155154	88.53	12.419153	-56.989475	88.62	-0.610	-0.030	-0.040	88.58	-1.30	0.40	 	 	 	 	 	 	 	 	 	 	 	 	 	 	 	 	 	 	1581522714	0.76	1.41
12/02/2020 15:51:55	120220	12022020	155155	88.68	12.419153	-56.989473	88.73	-0.470	-0.670	-0.080	88.68	-2.00	0.30	 	 	 	 	 	 	 	 	 	 	 	 	 	 	 	 	 	 	1581522715	0.41	0.76
12/02/2020 15:51:56	120220	12022020	155156	88.60	12.419152	-56.989472	88.65	-0.090	-1.090	0.110	88.56	-2.40	0.50	 	 	 	 	 	 	 	 	 	 	 	 	 	 	 	 	 	 	1581522716	0.64	1.19
12/02/2020 15:51:57	120220	12022020	155157	88.39	12.419148	-56.989470	88.43	0.210	-1.000	0.620	88.34	-2.40	1.00	 	 	 	 	 	 	 	 	 	 	 	 	 	 	 	 	 	 	1581522717	0.75	1.39
12/02/2020 15:51:58	120220	12022020	155158	88.20	12.419143	-56.989470	88.29	0.260	-0.420	1.310	88.20	-1.80	1.70	 	 	 	 	 	 	 	 	 	 	 	 	 	 	 	 	 	 	1581522718	0.92	1.70
12/02/2020 15:51:59	120220	12022020	155159	88.26	12.419140	-56.989472	88.41	0.140	0.230	1.670	88.26	-1.20	2.00	 	 	 	 	 	 	 	 	 	 	 	 	 	 	 	 	 	 	1581522719	0.90	1.67
12/02/2020 15:52:00	120220	12022020	155200	88.49	12.419140	-56.989473	88.63	-0.010	0.540	1.420	88.49	-0.80	1.80	 	 	 	 	 	 	 	 	 	 	 	 	 	 	 	 	 	 	1581522720	0.46	0.85
12/02/2020 15:52:01	120220	12022020	155201	88.59	12.419143	-56.989475	88.67	-0.140	0.500	0.910	88.58	-0.90	1.30	 	 	 	 	 	 	 	 	 	 	 	 	 	 	 	 	 	 	1581522721	0.66	1.22
12/02/2020 15:52:02	120220	12022020	155202	88.44	12.419147	-56.989475	88.49	-0.250	0.260	0.670	88.44	-1.10	1.10	1016.80	26.60	26.70	20.10	20.20	842.0	67.0	67.0	434.0	29.2	355.00	11.00	86.00	10.60	63951	11246.0	27.5	27.5	1581522722	0.78	1.44
12/02/2020 15:52:03	120220	12022020	155203	88.25	12.419148	-56.989475	88.34	-0.230	-0.100	0.680	88.23	-1.50	1.10	 	 	 	 	 	 	 	 	 	 	 	 	 	 	 	 	 	 	1581522723	0.29	0.54
12/02/2020 15:52:04	120220	12022020	155204	88.24	12.419148	-56.989473	88.34	-0.010	-0.710	0.590	88.25	-2.00	1.00	 	 	 	 	 	 	 	 	 	 	 	 	 	 	 	 	 	 	1581522724	0.23	0.43
12/02/2020 15:52:05	120220	12022020	155205	88.35	12.419150	-56.989472	88.44	0.230	-1.130	0.270	88.36	-2.50	0.70	 	 	 	 	 	 	 	 	 	 	 	 	 	 	 	 	 	 	1581522725	0.50	0.93
12/02/2020 15:52:06	120220	12022020	155206	88.28	12.419152	-56.989470	88.31	0.310	-1.110	0.190	88.23	-2.50	0.60	 	 	 	 	 	 	 	 	 	 	 	 	 	 	 	 	 	 	1581522726	0.47	0.87
12/02/2020 15:52:07	120220	12022020	155207	87.99	12.419150	-56.989472	88.01	0.180	-0.490	0.530	87.93	-1.90	0.90	 	 	 	 	 	 	 	 	 	 	 	 	 	 	 	 	 	 	1581522727	0.11	0.20
12/02/2020 15:52:08	120220	12022020	155208	87.82	12.419148	-56.989473	87.92	-0.050	0.340	0.830	87.83	-1.10	1.20	 	 	 	 	 	 	 	 	 	 	 	 	 	 	 	 	 	 	1581522728	0.73	1.35
12/02/2020 15:52:09	120220	12022020	155209	88.01	12.419148	-56.989477	88.15	-0.190	0.700	0.770	88.01	-0.70	1.20	 	 	 	 	 	 	 	 	 	 	 	 	 	 	 	 	 	 	1581522729	0.68	1.26
12/02/2020 15:52:10	120220	12022020	155210	88.33	12.419148	-56.989477	88.45	-0.150	0.410	0.570	88.33	-0.90	1.00	 	 	 	 	 	 	 	 	 	 	 	 	 	 	 	 	 	 	1581522730	0.19	0.35
12/02/2020 15:52:11	120220	12022020	155211	88.40	12.419150	-56.989475	88.45	-0.070	-0.050	0.620	88.40	-1.40	1.00	 	 	 	 	 	 	 	 	 	 	 	 	 	 	 	 	 	 	1581522731	0.43	0.80
12/02/2020 15:52:12	120220	12022020	155212	88.12	12.419150	-56.989475	88.14	-0.050	-0.250	0.900	88.12	-1.60	1.30	 	 	 	 	 	 	 	 	 	 	 	 	 	 	 	 	 	 	1581522732	0.30	0.56
12/02/2020 15:52:13	120220	12022020	155213	87.74	12.419148	-56.989475	87.79	-0.120	-0.220	1.190	87.74	-1.60	1.60	 	 	 	 	 	 	 	 	 	 	 	 	 	 	 	 	 	 	1581522733	0.27	0.50
12/02/2020 15:52:14	120220	12022020	155214	87.54	12.419147	-56.989477	87.62	-0.090	-0.380	1.310	87.54	-1.70	1.70	 	 	 	 	 	 	 	 	 	 	 	 	 	 	 	 	 	 	1581522734	0.31	0.57
12/02/2020 15:52:15	120220	12022020	155215	87.48	12.419148	-56.989475	87.57	0.110	-0.730	1.170	87.48	-2.10	1.60	 	 	 	 	 	 	 	 	 	 	 	 	 	 	 	 	 	 	1581522735	0.15	0.28
12/02/2020 15:52:16	120220	12022020	155216	87.43	12.419150	-56.989475	87.50	0.330	-0.830	0.860	87.43	-2.20	1.20	 	 	 	 	 	 	 	 	 	 	 	 	 	 	 	 	 	 	1581522736	0.58	1.07
12/02/2020 15:52:17	120220	12022020	155217	87.29	12.419153	-56.989475	87.33	0.320	-0.450	0.380	87.26	-1.90	0.80	 	 	 	 	 	 	 	 	 	 	 	 	 	 	 	 	 	 	1581522737	0.75	1.39
12/02/2020 15:52:18	120220	12022020	155218	87.14	12.419157	-56.989477	87.19	-0.010	0.100	0.110	87.12	-1.30	0.50	 	 	 	 	 	 	 	 	 	 	 	 	 	 	 	 	 	 	1581522738	0.75	1.39
12/02/2020 15:52:19	120220	12022020	155219	87.09	12.419158	-56.989478	87.17	-0.400	0.450	0.060	87.11	-0.90	0.40	 	 	 	 	 	 	 	 	 	 	 	 	 	 	 	 	 	 	1581522739	0.53	0.98
12/02/2020 15:52:20	120220	12022020	155220	87.23	12.419157	-56.989480	87.35	-0.660	0.510	-0.030	87.23	-0.90	0.40	 	 	 	 	 	 	 	 	 	 	 	 	 	 	 	 	 	 	1581522740	0.37	0.69
12/02/2020 15:52:21	120220	12022020	155221	87.45	12.419157	-56.989482	87.56	-0.500	0.140	-0.170	87.45	-1.20	0.20	 	 	 	 	 	 	 	 	 	 	 	 	 	 	 	 	 	 	1581522741	0.13	0.24
12/02/2020 15:52:22	120220	12022020	155222	87.51	12.419157	-56.989480	87.56	-0.050	-0.450	-0.150	87.51	-1.80	0.20	 	 	 	 	 	 	 	 	 	 	 	 	 	 	 	 	 	 	1581522742	0.24	0.44
12/02/2020 15:52:23	120220	12022020	155223	87.25	12.419157	-56.989478	87.26	0.400	-0.920	0.230	87.25	-2.30	0.60	 	 	 	 	 	 	 	 	 	 	 	 	 	 	 	 	 	 	1581522743	0.39	0.72
12/02/2020 15:52:24	120220	12022020	155224	86.82	12.419155	-56.989477	86.89	0.580	-1.060	0.670	86.82	-2.40	1.10	 	 	 	 	 	 	 	 	 	 	 	 	 	 	 	 	 	 	1581522744	0.40	0.74
12/02/2020 15:52:25	120220	12022020	155225	86.58	12.419153	-56.989477	86.63	0.470	-0.830	0.860	86.55	-2.20	1.20	 	 	 	 	 	 	 	 	 	 	 	 	 	 	 	 	 	 	1581522745	0.17	0.31
12/02/2020 15:52:26	120220	12022020	155226	86.47	12.419155	-56.989478	86.56	0.120	0.010	0.760	86.47	-1.40	1.20	 	 	 	 	 	 	 	 	 	 	 	 	 	 	 	 	 	 	1581522746	0.38	0.70
12/02/2020 15:52:27	120220	12022020	155227	86.52	12.419157	-56.989482	86.65	-0.250	0.890	0.600	86.55	-0.50	1.00	 	 	 	 	 	 	 	 	 	 	 	 	 	 	 	 	 	 	1581522747	1.00	1.85
12/02/2020 15:52:28	120220	12022020	155228	86.92	12.419158	-56.989487	87.03	-0.610	1.360	0.270	86.92	-0.00	0.60	 	 	 	 	 	 	 	 	 	 	 	 	 	 	 	 	 	 	1581522748	1.19	2.20
12/02/2020 15:52:29	120220	12022020	155229	87.44	12.419160	-56.989490	87.57	-0.700	0.640	-0.130	87.44	-0.70	0.30	 	 	 	 	 	 	 	 	 	 	 	 	 	 	 	 	 	 	1581522749	0.59	1.09
12/02/2020 15:52:30	120220	12022020	155230	87.65	12.419160	-56.989487	87.72	-0.370	-0.910	-0.190	87.65	-2.20	0.20	 	 	 	 	 	 	 	 	 	 	 	 	 	 	 	 	 	 	1581522750	0.53	0.98
12/02/2020 15:52:31	120220	12022020	155231	87.38	12.419157	-56.989482	87.37	0.210	-2.210	0.250	87.38	-3.50	0.60	 	 	 	 	 	 	 	 	 	 	 	 	 	 	 	 	 	 	1581522751	1.39	2.57
12/02/2020 15:52:32	120220	12022020	155232	86.85	12.419153	-56.989477	86.90	0.580	-2.160	0.930	86.85	-3.50	1.30	 	 	 	 	 	 	 	 	 	 	 	 	 	 	 	 	 	 	1581522752	1.33	2.46
12/02/2020 15:52:33	120220	12022020	155233	86.45	12.419148	-56.989480	86.54	0.510	-0.690	1.530	86.45	-2.00	1.90	 	 	 	 	 	 	 	 	 	 	 	 	 	 	 	 	 	 	1581522753	1.04	1.93
12/02/2020 15:52:34	120220	12022020	155234	86.37	12.419147	-56.989487	86.48	0.030	1.010	1.510	86.37	-0.30	1.90	 	 	 	 	 	 	 	 	 	 	 	 	 	 	 	 	 	 	1581522754	1.71	3.17
12/02/2020 15:52:35	120220	12022020	155235	86.59	12.419150	-56.989495	86.71	-0.400	1.680	0.850	86.59	0.30	1.20	 	 	 	 	 	 	 	 	 	 	 	 	 	 	 	 	 	 	1581522755	1.54	2.85
12/02/2020 15:52:36	120220	12022020	155236	86.96	12.419153	-56.989497	87.09	-0.380	0.910	-0.210	86.96	-0.40	0.20	 	 	 	 	 	 	 	 	 	 	 	 	 	 	 	 	 	 	1581522756	1.11	2.06
12/02/2020 15:52:37	120220	12022020	155237	87.22	12.419158	-56.989493	87.31	0.050	-0.340	-1.000	87.22	-1.70	-0.60	 	 	 	 	 	 	 	 	 	 	 	 	 	 	 	 	 	 	1581522757	1.28	2.37
12/02/2020 15:52:38	120220	12022020	155238	87.39	12.419163	-56.989488	87.43	0.420	-1.160	-1.330	87.39	-2.60	-0.90	 	 	 	 	 	 	 	 	 	 	 	 	 	 	 	 	 	 	1581522758	1.10	2.04
12/02/2020 15:52:39	120220	12022020	155239	87.49	12.419163	-56.989488	87.57	0.450	-1.290	-1.080	87.51	-2.70	-0.70	 	 	 	 	 	 	 	 	 	 	 	 	 	 	 	 	 	 	1581522759	0.37	0.69
12/02/2020 15:52:40	120220	12022020	155240	87.50	12.419162	-56.989490	87.55	0.100	-0.760	-0.310	87.50	-2.10	0.10	 	 	 	 	 	 	 	 	 	 	 	 	 	 	 	 	 	 	1581522760	0.70	1.30
12/02/2020 15:52:41	120220	12022020	155241	87.32	12.419155	-56.989493	87.31	-0.420	-0.030	0.870	87.25	-1.40	1.30	 	 	 	 	 	 	 	 	 	 	 	 	 	 	 	 	 	 	1581522761	1.66	3.07
12/02/2020 15:52:42	120220	12022020	155242	86.92	12.419147	-56.989497	87.00	-0.680	0.390	1.760	86.92	-1.00	2.20	 	 	 	 	 	 	 	 	 	 	 	 	 	 	 	 	 	 	1581522762	1.82	3.37
12/02/2020 15:52:43	120220	12022020	155243	86.70	12.419142	-56.989498	86.80	-0.440	0.310	2.050	86.70	-1.10	2.40	 	 	 	 	 	 	 	 	 	 	 	 	 	 	 	 	 	 	1581522763	1.01	1.87
12/02/2020 15:52:44	120220	12022020	155244	86.59	12.419142	-56.989497	86.70	0.080	-0.180	1.930	86.59	-1.60	2.30	 	 	 	 	 	 	 	 	 	 	 	 	 	 	 	 	 	 	1581522764	0.24	0.44
12/02/2020 15:52:45	120220	12022020	155245	86.69	12.419145	-56.989495	86.82	0.420	-0.560	1.510	86.69	-1.90	1.90	 	 	 	 	 	 	 	 	 	 	 	 	 	 	 	 	 	 	1581522765	0.78	1.44
12/02/2020 15:52:46	120220	12022020	155246	87.14	12.419148	-56.989495	87.27	0.360	-0.400	0.810	87.14	-1.80	1.20	 	 	 	 	 	 	 	 	 	 	 	 	 	 	 	 	 	 	1581522766	0.80	1.48
12/02/2020 15:52:47	120220	12022020	155247	87.75	12.419152	-56.989498	87.86	0.090	0.080	0.000	87.75	-1.30	0.40	 	 	 	 	 	 	 	 	 	 	 	 	 	 	 	 	 	 	1581522767	0.94	1.74
12/02/2020 15:52:48	120220	12022020	155248	88.05	12.419155	-56.989502	88.12	-0.030	0.210	-0.580	88.05	-1.20	-0.20	 	 	 	 	 	 	 	 	 	 	 	 	 	 	 	 	 	 	1581522768	0.87	1.61
12/02/2020 15:52:49	120220	12022020	155249	87.75	12.419155	-56.989502	87.79	0.050	-0.270	-0.480	87.75	-1.70	-0.10	 	 	 	 	 	 	 	 	 	 	 	 	 	 	 	 	 	 	1581522769	0.11	0.20
12/02/2020 15:52:50	120220	12022020	155250	87.14	12.419152	-56.989498	87.20	0.130	-0.790	0.200	87.14	-2.20	0.60	 	 	 	 	 	 	 	 	 	 	 	 	 	 	 	 	 	 	1581522770	0.82	1.52
12/02/2020 15:52:51	120220	12022020	155251	86.86	12.419148	-56.989497	86.95	0.070	-0.700	0.750	86.85	-2.10	1.10	 	 	 	 	 	 	 	 	 	 	 	 	 	 	 	 	 	 	1581522771	0.84	1.56
12/02/2020 15:52:52	120220	12022020	155252	87.04	12.419147	-56.989500	87.20	-0.150	0.050	0.760	87.04	-1.40	1.20	 	 	 	 	 	 	 	 	 	 	 	 	 	 	 	 	 	 	1581522772	0.57	1.06
12/02/2020 15:52:53	120220	12022020	155253	87.30	12.419148	-56.989503	87.46	-0.310	0.480	0.490	87.36	-0.90	0.90	 	 	 	 	 	 	 	 	 	 	 	 	 	 	 	 	 	 	1581522773	0.86	1.59
12/02/2020 15:52:54	120220	12022020	155254	87.47	12.419150	-56.989505	87.56	-0.310	0.390	0.290	87.47	-1.00	0.70	 	 	 	 	 	 	 	 	 	 	 	 	 	 	 	 	 	 	1581522774	0.52	0.96
12/02/2020 15:52:55	120220	12022020	155255	87.48	12.419150	-56.989505	87.57	-0.160	0.050	0.300	87.48	-1.40	0.70	 	 	 	 	 	 	 	 	 	 	 	 	 	 	 	 	 	 	1581522775	0.23	0.43
12/02/2020 15:52:56	120220	12022020	155256	87.63	12.419150	-56.989505	87.75	0.060	-0.240	0.330	87.63	-1.60	0.70	 	 	 	 	 	 	 	 	 	 	 	 	 	 	 	 	 	 	1581522776	0.08	0.15
12/02/2020 15:52:57	120220	12022020	155257	87.90	12.419150	-56.989505	88.01	0.280	-0.580	0.280	87.90	-2.00	0.70	 	 	 	 	 	 	 	 	 	 	 	 	 	 	 	 	 	 	1581522777	0.12	0.22
12/02/2020 15:52:58	120220	12022020	155258	87.96	12.419148	-56.989503	88.05	0.490	-1.000	0.340	87.96	-2.40	0.70	 	 	 	 	 	 	 	 	 	 	 	 	 	 	 	 	 	 	1581522778	0.38	0.70
12/02/2020 15:52:59	120220	12022020	155259	87.84	12.419148	-56.989500	87.94	0.600	-1.170	0.610	87.84	-2.50	1.00	 	 	 	 	 	 	 	 	 	 	 	 	 	 	 	 	 	 	1581522779	0.64	1.19
12/02/2020 15:53:00	120220	12022020	155300	87.70	12.419145	-56.989498	87.79	0.440	-0.680	1.030	87.70	-2.00	1.40	 	 	 	 	 	 	 	 	 	 	 	 	 	 	 	 	 	 	1581522780	0.50	0.93
12/02/2020 15:53:01	120220	12022020	155301	87.63	12.419143	-56.989502	87.73	0.030	0.200	1.220	87.63	-1.20	1.60	 	 	 	 	 	 	 	 	 	 	 	 	 	 	 	 	 	 	1581522781	0.54	1.00
12/02/2020 15:53:02	120220	12022020	155302	87.67	12.419143	-56.989503	87.77	-0.390	0.780	0.950	87.67	-0.60	1.30	1016.70	26.70	26.70	19.80	19.80	669.0	65.0	66.0	435.0	29.2	2.00	10.30	90.00	10.00	54559	9863.0	27.5	27.5	1581522782	0.56	1.04
12/02/2020 15:53:03	120220	12022020	155303	87.73	12.419145	-56.989505	87.83	-0.560	0.900	0.490	87.74	-0.50	0.90	 	 	 	 	 	 	 	 	 	 	 	 	 	 	 	 	 	 	1581522783	0.33	0.61
12/02/2020 15:53:04	120220	12022020	155304	87.77	12.419147	-56.989505	87.85	-0.570	0.850	0.110	87.77	-0.60	0.50	 	 	 	 	 	 	 	 	 	 	 	 	 	 	 	 	 	 	1581522784	0.28	0.52
12/02/2020 15:53:05	120220	12022020	155305	87.88	12.419148	-56.989507	87.95	-0.580	0.680	-0.240	87.88	-0.70	0.10	 	 	 	 	 	 	 	 	 	 	 	 	 	 	 	 	 	 	1581522785	0.46	0.85
12/02/2020 15:53:06	120220	12022020	155306	88.11	12.419150	-56.989508	88.17	-0.460	0.010	-0.580	88.11	-1.40	-0.20	 	 	 	 	 	 	 	 	 	 	 	 	 	 	 	 	 	 	1581522786	0.56	1.04
12/02/2020 15:53:07	120220	12022020	155307	88.28	12.419152	-56.989507	88.32	-0.010	-1.420	-0.790	88.28	-2.90	-0.40	 	 	 	 	 	 	 	 	 	 	 	 	 	 	 	 	 	 	1581522787	0.64	1.19
12/02/2020 15:53:08	120220	12022020	155308	88.21	12.419152	-56.989500	88.23	0.640	-2.700	-0.570	88.21	-4.10	-0.20	 	 	 	 	 	 	 	 	 	 	 	 	 	 	 	 	 	 	1581522788	1.36	2.52
12/02/2020 15:53:09	120220	12022020	155309	88.04	12.419150	-56.989495	88.09	1.030	-2.470	0.100	88.04	-3.80	0.50	 	 	 	 	 	 	 	 	 	 	 	 	 	 	 	 	 	 	1581522789	1.21	2.24
12/02/2020 15:53:10	120220	12022020	155310	87.95	12.419145	-56.989497	88.03	0.910	-0.810	0.930	87.95	-2.10	1.30	 	 	 	 	 	 	 	 	 	 	 	 	 	 	 	 	 	 	1581522790	1.13	2.09
12/02/2020 15:53:11	120220	12022020	155311	87.80	12.419140	-56.989502	87.89	0.410	0.940	1.570	87.80	-0.40	2.00	 	 	 	 	 	 	 	 	 	 	 	 	 	 	 	 	 	 	1581522791	1.62	3.00
12/02/2020 15:53:12	120220	12022020	155312	87.57	12.419137	-56.989505	87.66	-0.190	1.810	1.620	87.57	0.40	2.00	 	 	 	 	 	 	 	 	 	 	 	 	 	 	 	 	 	 	1581522792	0.96	1.78
12/02/2020 15:53:13	120220	12022020	155313	87.51	12.419138	-56.989507	87.60	-0.630	1.800	1.130	87.51	0.40	1.50	 	 	 	 	 	 	 	 	 	 	 	 	 	 	 	 	 	 	1581522793	0.35	0.65
12/02/2020 15:53:14	120220	12022020	155314	87.68	12.419142	-56.989505	87.75	-0.830	1.270	0.540	87.68	-0.20	0.90	 	 	 	 	 	 	 	 	 	 	 	 	 	 	 	 	 	 	1581522794	0.76	1.41
12/02/2020 15:53:15	120220	12022020	155315	88.00	12.419145	-56.989505	88.08	-0.770	0.360	-0.010	88.00	-1.10	0.40	 	 	 	 	 	 	 	 	 	 	 	 	 	 	 	 	 	 	1581522795	0.79	1.46
12/02/2020 15:53:16	120220	12022020	155316	88.34	12.419148	-56.989503	88.40	-0.460	-0.900	-0.520	88.34	-2.40	-0.20	 	 	 	 	 	 	 	 	 	 	 	 	 	 	 	 	 	 	1581522796	0.83	1.54
12/02/2020 15:53:17	120220	12022020	155317	88.48	12.419152	-56.989500	88.54	0.060	-2.050	-0.770	88.49	-3.50	-0.40	 	 	 	 	 	 	 	 	 	 	 	 	 	 	 	 	 	 	1581522797	0.89	1.65
12/02/2020 15:53:18	120220	12022020	155318	88.45	12.419152	-56.989497	88.49	0.560	-2.330	-0.430	88.45	-3.70	-0.00	 	 	 	 	 	 	 	 	 	 	 	 	 	 	 	 	 	 	1581522798	0.65	1.20
12/02/2020 15:53:19	120220	12022020	155319	88.22	12.419147	-56.989497	88.28	0.800	-1.510	0.400	88.22	-2.80	0.80	 	 	 	 	 	 	 	 	 	 	 	 	 	 	 	 	 	 	1581522799	0.95	1.76
12/02/2020 15:53:20	120220	12022020	155320	87.98	12.419140	-56.989500	88.06	0.700	-0.280	1.280	87.98	-1.60	1.70	 	 	 	 	 	 	 	 	 	 	 	 	 	 	 	 	 	 	1581522800	1.40	2.59
12/02/2020 15:53:21	120220	12022020	155321	87.88	12.419137	-56.989502	87.98	0.360	0.580	1.750	87.88	-0.80	2.10	 	 	 	 	 	 	 	 	 	 	 	 	 	 	 	 	 	 	1581522801	0.91	1.69
12/02/2020 15:53:22	120220	12022020	155322	87.88	12.419137	-56.989502	88.00	-0.090	0.930	1.690	87.88	-0.50	2.10	 	 	 	 	 	 	 	 	 	 	 	 	 	 	 	 	 	 	1581522802	0.16	0.30
12/02/2020 15:53:23	120220	12022020	155323	87.89	12.419138	-56.989500	88.00	-0.510	1.070	1.180	87.89	-0.30	1.50	 	 	 	 	 	 	 	 	 	 	 	 	 	 	 	 	 	 	1581522803	0.40	0.74
12/02/2020 15:53:24	120220	12022020	155324	87.94	12.419142	-56.989500	88.02	-0.730	1.060	0.430	87.94	-0.40	0.80	 	 	 	 	 	 	 	 	 	 	 	 	 	 	 	 	 	 	1581522804	0.76	1.41
12/02/2020 15:53:25	120220	12022020	155325	88.24	12.419145	-56.989502	88.34	-0.640	0.610	-0.360	88.24	-0.80	0.00	 	 	 	 	 	 	 	 	 	 	 	 	 	 	 	 	 	 	1581522805	0.97	1.80
12/02/2020 15:53:26	120220	12022020	155326	88.80	12.419150	-56.989500	88.89	-0.260	-0.450	-0.990	88.80	-1.90	-0.60	 	 	 	 	 	 	 	 	 	 	 	 	 	 	 	 	 	 	1581522806	0.84	1.56
12/02/2020 15:53:27	120220	12022020	155327	89.16	12.419152	-56.989497	89.25	0.240	-1.660	-1.280	89.20	-3.10	-0.90	 	 	 	 	 	 	 	 	 	 	 	 	 	 	 	 	 	 	1581522807	0.94	1.74
12/02/2020 15:53:28	120220	12022020	155328	89.01	12.419150	-56.989492	89.02	0.700	-2.230	-0.900	89.01	-3.60	-0.50	 	 	 	 	 	 	 	 	 	 	 	 	 	 	 	 	 	 	1581522808	1.00	1.85
12/02/2020 15:53:29	120220	12022020	155329	88.47	12.419147	-56.989490	88.33	0.950	-1.650	0.150	88.33	-3.00	0.60	 	 	 	 	 	 	 	 	 	 	 	 	 	 	 	 	 	 	1581522809	0.82	1.52
12/02/2020 15:53:30	120220	12022020	155330	87.75	12.419143	-56.989492	87.82	0.790	-0.230	1.250	87.75	-1.60	1.70	 	 	 	 	 	 	 	 	 	 	 	 	 	 	 	 	 	 	1581522810	1.02	1.89
12/02/2020 15:53:31	120220	12022020	155331	87.72	12.419140	-56.989497	87.93	0.220	1.110	1.930	87.78	-0.30	2.30	 	 	 	 	 	 	 	 	 	 	 	 	 	 	 	 	 	 	1581522811	1.15	2.13
12/02/2020 15:53:32	120220	12022020	155332	88.33	12.419138	-56.989500	88.51	-0.500	1.610	1.980	88.33	0.20	2.30	 	 	 	 	 	 	 	 	 	 	 	 	 	 	 	 	 	 	1581522812	0.75	1.39
12/02/2020 15:53:33	120220	12022020	155333	88.89	12.419138	-56.989500	89.03	-0.950	1.130	1.670	88.89	-0.30	2.00	 	 	 	 	 	 	 	 	 	 	 	 	 	 	 	 	 	 	1581522813	0.05	0.09
12/02/2020 15:53:34	120220	12022020	155334	89.08	12.419138	-56.989497	89.21	-0.800	-0.000	1.380	89.08	-1.40	1.70	 	 	 	 	 	 	 	 	 	 	 	 	 	 	 	 	 	 	1581522814	0.71	1.31
12/02/2020 15:53:35	120220	12022020	155335	89.04	12.419137	-56.989492	89.14	-0.220	-1.050	1.130	89.04	-2.50	1.50	 	 	 	 	 	 	 	 	 	 	 	 	 	 	 	 	 	 	1581522815	1.08	2.00
12/02/2020 15:53:36	120220	12022020	155336	89.00	12.419137	-56.989488	89.10	0.290	-1.370	0.900	89.00	-2.80	1.30	 	 	 	 	 	 	 	 	 	 	 	 	 	 	 	 	 	 	1581522816	0.68	1.26
12/02/2020 15:53:37	120220	12022020	155337	89.07	12.419137	-56.989488	89.15	0.410	-0.930	0.640	89.07	-2.30	1.00	 	 	 	 	 	 	 	 	 	 	 	 	 	 	 	 	 	 	1581522817	0.14	0.26
12/02/2020 15:53:38	120220	12022020	155338	89.08	12.419138	-56.989492	89.15	0.230	-0.200	0.350	89.08	-1.60	0.70	 	 	 	 	 	 	 	 	 	 	 	 	 	 	 	 	 	 	1581522818	0.76	1.41
12/02/2020 15:53:39	120220	12022020	155339	88.94	12.419140	-56.989495	88.99	0.060	0.130	0.040	88.94	-1.30	0.40	 	 	 	 	 	 	 	 	 	 	 	 	 	 	 	 	 	 	1581522819	0.81	1.50
12/02/2020 15:53:40	120220	12022020	155340	88.71	12.419143	-56.989493	88.76	0.030	-0.120	-0.280	88.71	-1.50	0.10	 	 	 	 	 	 	 	 	 	 	 	 	 	 	 	 	 	 	1581522820	0.63	1.17
12/02/2020 15:53:41	120220	12022020	155341	88.63	12.419145	-56.989490	88.69	0.080	-0.410	-0.510	88.64	-1.80	-0.10	 	 	 	 	 	 	 	 	 	 	 	 	 	 	 	 	 	 	1581522821	0.80	1.48
12/02/2020 15:53:42	120220	12022020	155342	88.83	12.419147	-56.989488	88.89	0.130	-0.300	-0.490	88.83	-1.70	-0.10	 	 	 	 	 	 	 	 	 	 	 	 	 	 	 	 	 	 	1581522822	0.46	0.85
12/02/2020 15:53:43	120220	12022020	155343	89.08	12.419145	-56.989488	89.21	0.130	0.110	-0.270	89.14	-1.30	0.10	 	 	 	 	 	 	 	 	 	 	 	 	 	 	 	 	 	 	1581522823	0.15	0.28
12/02/2020 15:53:44	120220	12022020	155344	89.35	12.419143	-56.989490	89.42	0.130	0.370	0.090	89.35	-1.00	0.50	 	 	 	 	 	 	 	 	 	 	 	 	 	 	 	 	 	 	1581522824	0.39	0.72
12/02/2020 15:53:45	120220	12022020	155345	89.41	12.419142	-56.989490	89.49	0.110	0.250	0.520	89.41	-1.20	0.90	 	 	 	 	 	 	 	 	 	 	 	 	 	 	 	 	 	 	1581522825	0.46	0.85
12/02/2020 15:53:46	120220	12022020	155346	89.37	12.419138	-56.989488	89.46	-0.050	-0.160	1.060	89.37	-1.60	1.40	 	 	 	 	 	 	 	 	 	 	 	 	 	 	 	 	 	 	1581522826	0.66	1.22
12/02/2020 15:53:47	120220	12022020	155347	89.24	12.419135	-56.989487	89.35	-0.320	-0.570	1.780	89.24	-2.00	2.20	 	 	 	 	 	 	 	 	 	 	 	 	 	 	 	 	 	 	1581522827	0.96	1.78
12/02/2020 15:53:48	120220	12022020	155348	89.13	12.419130	-56.989487	89.26	-0.500	-0.690	2.320	89.13	-2.10	2.70	 	 	 	 	 	 	 	 	 	 	 	 	 	 	 	 	 	 	1581522828	1.02	1.89
12/02/2020 15:53:49	120220	12022020	155349	89.12	12.419127	-56.989487	89.24	-0.430	-0.420	2.310	89.12	-1.80	2.70	 	 	 	 	 	 	 	 	 	 	 	 	 	 	 	 	 	 	1581522829	0.64	1.19
12/02/2020 15:53:50	120220	12022020	155350	89.12	12.419127	-56.989488	89.23	-0.180	0.020	1.850	89.12	-1.40	2.20	 	 	 	 	 	 	 	 	 	 	 	 	 	 	 	 	 	 	1581522830	0.38	0.70
12/02/2020 15:53:51	120220	12022020	155351	89.06	12.419130	-56.989490	89.15	0.100	0.160	1.220	89.06	-1.30	1.60	 	 	 	 	 	 	 	 	 	 	 	 	 	 	 	 	 	 	1581522831	0.63	1.17
12/02/2020 15:53:52	120220	12022020	155352	88.94	12.419133	-56.989488	89.02	0.300	-0.230	0.540	88.94	-1.70	0.90	 	 	 	 	 	 	 	 	 	 	 	 	 	 	 	 	 	 	1581522832	0.81	1.50
12/02/2020 15:53:53	120220	12022020	155353	88.89	12.419138	-56.989485	88.97	0.350	-0.680	-0.250	88.89	-2.10	0.10	 	 	 	 	 	 	 	 	 	 	 	 	 	 	 	 	 	 	1581522833	1.21	2.24
12/02/2020 15:53:54	120220	12022020	155354	89.04	12.419143	-56.989483	89.12	0.290	-0.610	-1.020	89.04	-2.00	-0.70	 	 	 	 	 	 	 	 	 	 	 	 	 	 	 	 	 	 	1581522834	1.23	2.28
12/02/2020 15:53:55	120220	12022020	155355	89.29	12.419148	-56.989485	89.37	0.230	-0.140	-1.410	89.29	-1.50	-1.00	 	 	 	 	 	 	 	 	 	 	 	 	 	 	 	 	 	 	1581522835	0.93	1.72
12/02/2020 15:53:56	120220	12022020	155356	89.55	12.419148	-56.989487	89.62	0.230	0.180	-1.260	89.55	-1.20	-0.90	 	 	 	 	 	 	 	 	 	 	 	 	 	 	 	 	 	 	1581522836	0.46	0.85
12/02/2020 15:53:57	120220	12022020	155357	89.59	12.419147	-56.989487	89.67	0.250	0.010	-0.490	89.59	-1.40	-0.10	 	 	 	 	 	 	 	 	 	 	 	 	 	 	 	 	 	 	1581522837	0.48	0.89
12/02/2020 15:53:58	120220	12022020	155358	89.30	12.419142	-56.989485	89.39	0.170	-0.330	0.710	89.30	-1.70	1.10	 	 	 	 	 	 	 	 	 	 	 	 	 	 	 	 	 	 	1581522838	1.16	2.15
12/02/2020 15:53:59	120220	12022020	155359	89.03	12.419137	-56.989482	89.15	-0.140	-0.360	1.760	89.03	-1.80	2.20	 	 	 	 	 	 	 	 	 	 	 	 	 	 	 	 	 	 	1581522839	1.27	2.35
12/02/2020 15:54:00	120220	12022020	155400	89.04	12.419132	-56.989483	89.19	-0.610	0.020	2.390	89.04	-1.40	2.80	 	 	 	 	 	 	 	 	 	 	 	 	 	 	 	 	 	 	1581522840	1.02	1.89
12/02/2020 15:54:01	120220	12022020	155401	89.25	12.419127	-56.989485	89.44	-0.980	0.510	2.720	89.25	-0.90	3.10	 	 	 	 	 	 	 	 	 	 	 	 	 	 	 	 	 	 	1581522841	1.08	2.00
12/02/2020 15:54:02	120220	12022020	155402	89.49	12.419123	-56.989488	89.67	-1.040	0.710	2.760	89.49	-0.70	3.10	1016.80	26.70	26.70	20.20	20.30	589.0	67.0	67.0	434.0	29.2	358.00	10.10	87.00	9.70	50429	10136.0	27.5	27.5	1581522842	1.04	1.93
12/02/2020 15:54:03	120220	12022020	155403	89.55	12.419122	-56.989490	89.70	-0.690	0.230	2.370	89.55	-1.20	2.70	 	 	 	 	 	 	 	 	 	 	 	 	 	 	 	 	 	 	1581522843	0.48	0.89
12/02/2020 15:54:04	120220	12022020	155404	89.46	12.419125	-56.989488	89.57	0.040	-0.910	1.510	89.46	-2.40	1.80	 	 	 	 	 	 	 	 	 	 	 	 	 	 	 	 	 	 	1581522844	0.73	1.35
12/02/2020 15:54:05	120220	12022020	155405	89.41	12.419132	-56.989483	89.52	0.870	-1.900	0.380	89.42	-3.30	0.70	 	 	 	 	 	 	 	 	 	 	 	 	 	 	 	 	 	 	1581522845	1.83	3.39
12/02/2020 15:54:06	120220	12022020	155406	89.59	12.419140	-56.989478	89.66	1.370	-1.960	-0.670	89.59	-3.30	-0.30	 	 	 	 	 	 	 	 	 	 	 	 	 	 	 	 	 	 	1581522846	1.95	3.61
12/02/2020 15:54:07	120220	12022020	155407	89.79	12.419145	-56.989478	89.89	1.290	-0.970	-1.320	89.82	-2.30	-1.00	 	 	 	 	 	 	 	 	 	 	 	 	 	 	 	 	 	 	1581522847	1.30	2.41
12/02/2020 15:54:08	120220	12022020	155408	89.90	12.419148	-56.989482	89.96	0.670	0.550	-1.330	89.90	-0.80	-0.90	 	 	 	 	 	 	 	 	 	 	 	 	 	 	 	 	 	 	1581522848	0.90	1.67
12/02/2020 15:54:09	120220	12022020	155409	89.81	12.419147	-56.989487	89.88	-0.170	1.770	-0.720	89.81	0.40	-0.30	 	 	 	 	 	 	 	 	 	 	 	 	 	 	 	 	 	 	1581522849	1.15	2.13
12/02/2020 15:54:10	120220	12022020	155410	89.63	12.419143	-56.989490	89.72	-0.810	1.870	0.300	89.63	0.40	0.70	 	 	 	 	 	 	 	 	 	 	 	 	 	 	 	 	 	 	1581522850	1.10	2.04
12/02/2020 15:54:11	120220	12022020	155411	89.45	12.419138	-56.989490	89.56	-1.040	0.880	1.460	89.45	-0.60	1.90	 	 	 	 	 	 	 	 	 	 	 	 	 	 	 	 	 	 	1581522851	1.07	1.98
12/02/2020 15:54:12	120220	12022020	155412	89.42	12.419133	-56.989487	89.56	-0.990	-0.350	2.330	89.42	-1.80	2.70	 	 	 	 	 	 	 	 	 	 	 	 	 	 	 	 	 	 	1581522852	1.33	2.46
12/02/2020 15:54:13	120220	12022020	155413	89.59	12.419128	-56.989483	89.75	-0.800	-1.170	2.800	89.59	-2.60	3.20	 	 	 	 	 	 	 	 	 	 	 	 	 	 	 	 	 	 	1581522853	1.12	2.07
12/02/2020 15:54:14	120220	12022020	155414	89.75	12.419123	-56.989483	89.91	-0.430	-1.540	3.090	89.75	-2.90	3.40	 	 	 	 	 	 	 	 	 	 	 	 	 	 	 	 	 	 	1581522854	0.98	1.81
12/02/2020 15:54:15	120220	12022020	155415	89.69	12.419120	-56.989483	89.82	0.250	-1.690	3.210	89.69	-3.10	3.60	 	 	 	 	 	 	 	 	 	 	 	 	 	 	 	 	 	 	1581522855	0.84	1.56
12/02/2020 15:54:16	120220	12022020	155416	89.46	12.419118	-56.989482	89.58	1.010	-1.530	2.800	89.46	-2.90	3.10	 	 	 	 	 	 	 	 	 	 	 	 	 	 	 	 	 	 	1581522856	0.32	0.59
12/02/2020 15:54:17	120220	12022020	155417	89.37	12.419123	-56.989482	89.47	1.330	-0.710	1.760	89.37	-2.10	2.10	 	 	 	 	 	 	 	 	 	 	 	 	 	 	 	 	 	 	1581522857	1.05	1.94
12/02/2020 15:54:18	120220	12022020	155418	89.44	12.419132	-56.989483	89.51	0.910	0.570	0.470	89.44	-0.80	0.80	 	 	 	 	 	 	 	 	 	 	 	 	 	 	 	 	 	 	1581522858	1.82	3.37
12/02/2020 15:54:19	120220	12022020	155419	89.52	12.419140	-56.989488	89.60	-0.010	1.560	-0.690	89.54	0.20	-0.40	 	 	 	 	 	 	 	 	 	 	 	 	 	 	 	 	 	 	1581522859	1.95	3.61
12/02/2020 15:54:20	120220	12022020	155420	89.63	12.419145	-56.989492	89.69	-0.810	1.690	-1.460	89.63	0.30	-1.10	 	 	 	 	 	 	 	 	 	 	 	 	 	 	 	 	 	 	1581522860	1.35	2.50
12/02/2020 15:54:21	120220	12022020	155421	89.75	12.419148	-56.989492	89.81	-1.050	0.930	-1.700	89.75	-0.50	-1.30	 	 	 	 	 	 	 	 	 	 	 	 	 	 	 	 	 	 	1581522861	0.47	0.87
12/02/2020 15:54:22	120220	12022020	155422	89.92	12.419147	-56.989488	90.00	-0.760	-0.210	-1.520	89.92	-1.70	-1.10	 	 	 	 	 	 	 	 	 	 	 	 	 	 	 	 	 	 	1581522862	0.58	1.07
12/02/2020 15:54:23	120220	12022020	155423	89.94	12.419143	-56.989487	90.02	-0.250	-1.160	-0.960	89.94	-2.60	-0.60	 	 	 	 	 	 	 	 	 	 	 	 	 	 	 	 	 	 	1581522863	0.92	1.70
12/02/2020 15:54:24	120220	12022020	155424	89.54	12.419138	-56.989485	89.61	0.210	-1.690	0.080	89.54	-3.10	0.50	 	 	 	 	 	 	 	 	 	 	 	 	 	 	 	 	 	 	1581522864	1.05	1.94
12/02/2020 15:54:25	120220	12022020	155425	88.83	12.419133	-56.989483	88.90	0.540	-1.810	1.420	88.83	-3.20	1.80	 	 	 	 	 	 	 	 	 	 	 	 	 	 	 	 	 	 	1581522865	1.16	2.15
12/02/2020 15:54:26	120220	12022020	155426	88.37	12.419128	-56.989483	88.50	0.660	-1.360	2.380	88.37	-2.70	2.80	 	 	 	 	 	 	 	 	 	 	 	 	 	 	 	 	 	 	1581522866	0.97	1.80
12/02/2020 15:54:27	120220	12022020	155427	88.54	12.419127	-56.989485	88.74	0.500	-0.240	2.540	88.54	-1.60	2.90	 	 	 	 	 	 	 	 	 	 	 	 	 	 	 	 	 	 	1581522867	0.49	0.91
12/02/2020 15:54:28	120220	12022020	155428	89.26	12.419127	-56.989488	89.48	0.140	1.060	2.020	89.26	-0.30	2.30	 	 	 	 	 	 	 	 	 	 	 	 	 	 	 	 	 	 	1581522868	0.89	1.65
12/02/2020 15:54:29	120220	12022020	155429	89.92	12.419130	-56.989493	90.22	-0.230	1.630	1.240	90.05	0.20	1.60	 	 	 	 	 	 	 	 	 	 	 	 	 	 	 	 	 	 	1581522869	1.02	1.89
12/02/2020 15:54:30	120220	12022020	155430	90.36	12.419132	-56.989493	90.49	-0.410	1.060	0.630	90.36	-0.40	1.00	 	 	 	 	 	 	 	 	 	 	 	 	 	 	 	 	 	 	1581522870	0.54	1.00
12/02/2020 15:54:31	120220	12022020	155431	90.19	12.419133	-56.989488	90.22	-0.420	-0.080	0.450	90.12	-1.50	0.80	 	 	 	 	 	 	 	 	 	 	 	 	 	 	 	 	 	 	1581522871	0.79	1.46
12/02/2020 15:54:32	120220	12022020	155432	89.65	12.419130	-56.989485	89.76	-0.340	-0.910	0.710	89.65	-2.30	1.10	 	 	 	 	 	 	 	 	 	 	 	 	 	 	 	 	 	 	1581522872	0.89	1.65
12/02/2020 15:54:33	120220	12022020	155433	89.32	12.419127	-56.989485	89.36	-0.150	-1.060	1.050	89.26	-2.50	1.40	 	 	 	 	 	 	 	 	 	 	 	 	 	 	 	 	 	 	1581522873	0.77	1.43
12/02/2020 15:54:34	120220	12022020	155434	89.06	12.419125	-56.989487	89.17	0.120	-0.810	1.110	89.06	-2.20	1.50	 	 	 	 	 	 	 	 	 	 	 	 	 	 	 	 	 	 	1581522874	0.54	1.00
12/02/2020 15:54:35	120220	12022020	155435	89.00	12.419127	-56.989488	89.09	0.410	-0.600	0.710	89.00	-2.00	1.10	 	 	 	 	 	 	 	 	 	 	 	 	 	 	 	 	 	 	1581522875	0.56	1.04
12/02/2020 15:54:36	120220	12022020	155436	88.90	12.419132	-56.989488	88.97	0.600	-0.630	0.100	88.90	-2.00	0.40	 	 	 	 	 	 	 	 	 	 	 	 	 	 	 	 	 	 	1581522876	1.17	2.17
12/02/2020 15:54:37	120220	12022020	155437	88.90	12.419138	-56.989487	88.98	0.510	-0.480	-0.340	88.90	-1.90	0.00	 	 	 	 	 	 	 	 	 	 	 	 	 	 	 	 	 	 	1581522877	1.29	2.39
12/02/2020 15:54:38	120220	12022020	155438	89.24	12.419140	-56.989487	89.35	0.070	0.190	-0.330	89.24	-1.20	0.00	 	 	 	 	 	 	 	 	 	 	 	 	 	 	 	 	 	 	1581522878	0.51	0.94
12/02/2020 15:54:39	120220	12022020	155439	89.81	12.419138	-56.989490	89.93	-0.530	0.950	0.220	89.81	-0.50	0.60	 	 	 	 	 	 	 	 	 	 	 	 	 	 	 	 	 	 	1581522879	0.95	1.76
12/02/2020 15:54:40	120220	12022020	155440	90.32	12.419132	-56.989493	90.44	-0.810	0.930	1.010	90.32	-0.50	1.40	 	 	 	 	 	 	 	 	 	 	 	 	 	 	 	 	 	 	1581522880	1.56	2.89
12/02/2020 15:54:41	120220	12022020	155441	90.52	12.419123	-56.989493	90.63	-0.500	-0.020	1.780	90.52	-1.50	2.20	 	 	 	 	 	 	 	 	 	 	 	 	 	 	 	 	 	 	1581522881	1.61	2.98
12/02/2020 15:54:42	120220	12022020	155442	90.26	12.419118	-56.989488	90.36	0.160	-1.100	2.480	90.26	-2.50	2.90	 	 	 	 	 	 	 	 	 	 	 	 	 	 	 	 	 	 	1581522882	1.62	3.00
12/02/2020 15:54:43	120220	12022020	155443	89.84	12.419113	-56.989483	89.84	0.640	-1.440	3.100	89.74	-2.80	3.50	 	 	 	 	 	 	 	 	 	 	 	 	 	 	 	 	 	 	1581522883	1.22	2.26
12/02/2020 15:54:44	120220	12022020	155444	89.35	12.419110	-56.989483	89.48	0.680	-0.860	3.420	89.35	-2.20	3.80	 	 	 	 	 	 	 	 	 	 	 	 	 	 	 	 	 	 	1581522884	0.62	1.15
12/02/2020 15:54:45	120220	12022020	155445	89.28	12.419110	-56.989487	89.43	0.360	0.090	3.110	89.28	-1.30	3.40	 	 	 	 	 	 	 	 	 	 	 	 	 	 	 	 	 	 	1581522885	0.66	1.22
12/02/2020 15:54:46	120220	12022020	155446	89.52	12.419115	-56.989492	89.67	-0.060	0.710	2.020	89.52	-0.70	2.30	 	 	 	 	 	 	 	 	 	 	 	 	 	 	 	 	 	 	1581522886	1.21	2.24
12/02/2020 15:54:47	120220	12022020	155447	90.00	12.419123	-56.989492	90.13	-0.310	0.670	0.350	90.00	-0.80	0.70	 	 	 	 	 	 	 	 	 	 	 	 	 	 	 	 	 	 	1581522887	1.87	3.46
12/02/2020 15:54:48	120220	12022020	155448	90.50	12.419133	-56.989492	90.59	-0.330	0.170	-1.220	90.50	-1.30	-0.90	 	 	 	 	 	 	 	 	 	 	 	 	 	 	 	 	 	 	1581522888	2.14	3.96
12/02/2020 15:54:49	120220	12022020	155449	90.73	12.419140	-56.989490	90.82	-0.170	-0.490	-1.990	90.73	-1.90	-1.60	 	 	 	 	 	 	 	 	 	 	 	 	 	 	 	 	 	 	1581522889	1.54	2.85
12/02/2020 15:54:50	120220	12022020	155450	90.54	12.419142	-56.989488	90.62	0.020	-0.970	-1.720	90.54	-2.40	-1.30	 	 	 	 	 	 	 	 	 	 	 	 	 	 	 	 	 	 	1581522890	0.50	0.93
12/02/2020 15:54:51	120220	12022020	155451	90.18	12.419137	-56.989487	90.26	0.120	-0.990	-0.780	90.18	-2.40	-0.40	 	 	 	 	 	 	 	 	 	 	 	 	 	 	 	 	 	 	1581522891	0.95	1.76
12/02/2020 15:54:52	120220	12022020	155452	90.00	12.419130	-56.989487	90.10	0.090	-0.530	0.400	90.00	-1.90	0.80	 	 	 	 	 	 	 	 	 	 	 	 	 	 	 	 	 	 	1581522892	1.56	2.89
12/02/2020 15:54:53	120220	12022020	155453	90.11	12.419123	-56.989490	90.23	-0.030	0.130	1.370	90.11	-1.30	1.80	 	 	 	 	 	 	 	 	 	 	 	 	 	 	 	 	 	 	1581522893	1.67	3.09
12/02/2020 15:54:54	120220	12022020	155454	90.28	12.419118	-56.989492	90.38	-0.070	0.410	1.910	90.28	-1.00	2.30	 	 	 	 	 	 	 	 	 	 	 	 	 	 	 	 	 	 	1581522894	1.17	2.17
12/02/2020 15:54:55	120220	12022020	155455	90.30	12.419117	-56.989492	90.40	0.080	0.080	1.950	90.30	-1.40	2.30	 	 	 	 	 	 	 	 	 	 	 	 	 	 	 	 	 	 	1581522895	0.22	0.41
12/02/2020 15:54:56	120220	12022020	155456	90.35	12.419120	-56.989488	90.45	0.280	-0.360	1.750	90.35	-1.80	2.10	 	 	 	 	 	 	 	 	 	 	 	 	 	 	 	 	 	 	1581522896	0.78	1.44
12/02/2020 15:54:57	120220	12022020	155457	90.52	12.419122	-56.989487	90.71	0.230	-0.350	1.550	90.58	-1.80	1.90	 	 	 	 	 	 	 	 	 	 	 	 	 	 	 	 	 	 	1581522897	0.62	1.15
12/02/2020 15:54:58	120220	12022020	155458	90.94	12.419122	-56.989488	91.06	-0.190	0.130	1.380	90.94	-1.30	1.70	 	 	 	 	 	 	 	 	 	 	 	 	 	 	 	 	 	 	1581522898	0.44	0.81
12/02/2020 15:54:59	120220	12022020	155459	91.20	12.419122	-56.989493	91.31	-0.630	0.480	1.230	91.20	-1.00	1.60	 	 	 	 	 	 	 	 	 	 	 	 	 	 	 	 	 	 	1581522899	0.84	1.56
12/02/2020 15:55:00	120220	12022020	155500	91.21	12.419120	-56.989495	91.31	-0.620	0.200	1.050	91.21	-1.30	1.40	 	 	 	 	 	 	 	 	 	 	 	 	 	 	 	 	 	 	1581522900	0.56	1.04
12/02/2020 15:55:01	120220	12022020	155501	91.02	12.419120	-56.989493	91.10	-0.020	-0.660	0.780	91.02	-2.10	1.10	 	 	 	 	 	 	 	 	 	 	 	 	 	 	 	 	 	 	1581522901	0.34	0.63
12/02/2020 15:55:02	120220	12022020	155502	90.75	12.419122	-56.989490	90.81	0.700	-1.380	0.490	90.75	-2.80	0.90	1016.80	26.70	26.70	20.30	20.40	607.0	68.0	68.0	432.0	29.1	351.00	10.80	80.00	10.30	51415	11169.0	27.5	27.5	1581522902	0.93	1.72
12/02/2020 15:55:03	120220	12022020	155503	90.59	12.419125	-56.989487	90.68	0.910	-1.230	0.310	90.59	-2.60	0.70	 	 	 	 	 	 	 	 	 	 	 	 	 	 	 	 	 	 	1581522903	0.83	1.54
12/02/2020 15:55:04	120220	12022020	155504	90.84	12.419128	-56.989490	90.94	0.420	-0.160	0.110	90.84	-1.50	0.50	 	 	 	 	 	 	 	 	 	 	 	 	 	 	 	 	 	 	1581522904	0.93	1.72
12/02/2020 15:55:05	120220	12022020	155505	91.44	12.419132	-56.989497	91.57	-0.380	0.970	-0.160	91.44	-0.40	0.20	 	 	 	 	 	 	 	 	 	 	 	 	 	 	 	 	 	 	1581522905	1.48	2.74
12/02/2020 15:55:06	120220	12022020	155506	92.03	12.419132	-56.989502	92.14	-0.890	1.170	-0.190	92.03	-0.30	0.20	 	 	 	 	 	 	 	 	 	 	 	 	 	 	 	 	 	 	1581522906	1.07	1.98
12/02/2020 15:55:07	120220	12022020	155507	92.19	12.419128	-56.989500	92.28	-0.710	0.170	0.330	92.19	-1.30	0.70	 	 	 	 	 	 	 	 	 	 	 	 	 	 	 	 	 	 	1581522907	0.92	1.70
12/02/2020 15:55:08	120220	12022020	155508	91.88	12.419120	-56.989495	91.99	0.010	-1.190	1.350	91.88	-2.70	1.80	 	 	 	 	 	 	 	 	 	 	 	 	 	 	 	 	 	 	1581522908	2.06	3.82
12/02/2020 15:55:09	120220	12022020	155509	91.56	12.419112	-56.989490	91.63	0.640	-1.620	2.250	91.50	-3.00	2.60	 	 	 	 	 	 	 	 	 	 	 	 	 	 	 	 	 	 	1581522909	1.91	3.54
12/02/2020 15:55:10	120220	12022020	155510	91.42	12.419110	-56.989492	91.56	0.590	-0.660	2.470	91.42	-2.00	2.80	 	 	 	 	 	 	 	 	 	 	 	 	 	 	 	 	 	 	1581522910	0.54	1.00
12/02/2020 15:55:11	120220	12022020	155511	91.64	12.419113	-56.989498	91.77	-0.020	0.770	1.920	91.64	-0.60	2.30	 	 	 	 	 	 	 	 	 	 	 	 	 	 	 	 	 	 	1581522911	1.67	3.09
12/02/2020 15:55:12	120220	12022020	155512	91.92	12.419118	-56.989507	92.03	-0.610	1.440	1.020	91.92	0.00	1.40	 	 	 	 	 	 	 	 	 	 	 	 	 	 	 	 	 	 	1581522912	2.03	3.76
12/02/2020 15:55:13	120220	12022020	155513	92.08	12.419123	-56.989510	92.18	-0.690	0.900	0.320	92.08	-0.60	0.70	 	 	 	 	 	 	 	 	 	 	 	 	 	 	 	 	 	 	1581522913	1.25	2.31
12/02/2020 15:55:14	120220	12022020	155514	92.23	12.419127	-56.989508	92.32	-0.310	-0.400	-0.130	92.23	-1.90	0.20	 	 	 	 	 	 	 	 	 	 	 	 	 	 	 	 	 	 	1581522914	0.73	1.35
12/02/2020 15:55:15	120220	12022020	155515	92.45	12.419127	-56.989503	92.56	0.200	-1.530	-0.390	92.45	-3.00	-0.00	 	 	 	 	 	 	 	 	 	 	 	 	 	 	 	 	 	 	1581522915	0.79	1.46
12/02/2020 15:55:16	120220	12022020	155516	92.52	12.419127	-56.989502	92.59	0.530	-1.800	-0.360	92.52	-3.20	0.00	 	 	 	 	 	 	 	 	 	 	 	 	 	 	 	 	 	 	1581522916	0.45	0.83
12/02/2020 15:55:17	120220	12022020	155517	92.32	12.419125	-56.989503	92.38	0.620	-1.190	-0.050	92.32	-2.60	0.30	 	 	 	 	 	 	 	 	 	 	 	 	 	 	 	 	 	 	1581522917	0.47	0.87
12/02/2020 15:55:18	120220	12022020	155518	92.04	12.419125	-56.989507	92.13	0.540	-0.330	0.330	92.04	-1.70	0.70	 	 	 	 	 	 	 	 	 	 	 	 	 	 	 	 	 	 	1581522918	0.71	1.31
12/02/2020 15:55:19	120220	12022020	155519	91.90	12.419125	-56.989510	92.00	0.310	0.300	0.740	91.90	-1.10	1.10	 	 	 	 	 	 	 	 	 	 	 	 	 	 	 	 	 	 	1581522919	0.53	0.98
12/02/2020 15:55:20	120220	12022020	155520	91.99	12.419125	-56.989510	92.13	-0.070	0.680	1.090	91.99	-0.70	1.50	 	 	 	 	 	 	 	 	 	 	 	 	 	 	 	 	 	 	1581522920	0.28	0.52
12/02/2020 15:55:21	120220	12022020	155521	92.30	12.419123	-56.989512	92.57	-0.480	0.930	1.110	92.40	-0.50	1.50	 	 	 	 	 	 	 	 	 	 	 	 	 	 	 	 	 	 	1581522921	0.37	0.69
12/02/2020 15:55:22	120220	12022020	155522	92.98	12.419123	-56.989515	93.14	-0.700	0.970	0.990	92.98	-0.50	1.30	 	 	 	 	 	 	 	 	 	 	 	 	 	 	 	 	 	 	1581522922	0.55	1.02
12/02/2020 15:55:23	120220	12022020	155523	93.30	12.419122	-56.989517	93.45	-0.630	0.550	1.120	93.30	-0.90	1.50	 	 	 	 	 	 	 	 	 	 	 	 	 	 	 	 	 	 	1581522923	0.56	1.04
12/02/2020 15:55:24	120220	12022020	155524	93.25	12.419118	-56.989517	93.38	-0.390	-0.270	1.430	93.25	-1.70	1.80	 	 	 	 	 	 	 	 	 	 	 	 	 	 	 	 	 	 	1581522924	0.51	0.94
12/02/2020 15:55:25	120220	12022020	155525	93.03	12.419117	-56.989517	93.16	-0.180	-0.980	1.720	93.03	-2.40	2.10	 	 	 	 	 	 	 	 	 	 	 	 	 	 	 	 	 	 	1581522925	0.57	1.06
12/02/2020 15:55:26	120220	12022020	155526	92.85	12.419115	-56.989517	92.98	-0.010	-1.280	1.840	92.85	-2.70	2.20	 	 	 	 	 	 	 	 	 	 	 	 	 	 	 	 	 	 	1581522926	0.47	0.87
12/02/2020 15:55:27	120220	12022020	155527	92.74	12.419115	-56.989518	92.86	0.310	-1.300	1.610	92.74	-2.70	2.00	 	 	 	 	 	 	 	 	 	 	 	 	 	 	 	 	 	 	1581522927	0.24	0.44
12/02/2020 15:55:28	120220	12022020	155528	92.58	12.419118	-56.989518	92.68	0.780	-1.320	1.210	92.58	-2.70	1.60	 	 	 	 	 	 	 	 	 	 	 	 	 	 	 	 	 	 	1581522928	0.72	1.33
12/02/2020 15:55:29	120220	12022020	155529	92.37	12.419122	-56.989517	92.47	1.100	-1.220	0.800	92.37	-2.60	1.20	 	 	 	 	 	 	 	 	 	 	 	 	 	 	 	 	 	 	1581522929	1.01	1.87
12/02/2020 15:55:30	120220	12022020	155530	92.48	12.419125	-56.989515	92.59	0.940	-0.430	0.200	92.48	-1.80	0.60	 	 	 	 	 	 	 	 	 	 	 	 	 	 	 	 	 	 	1581522930	0.78	1.44
12/02/2020 15:55:31	120220	12022020	155531	92.95	12.419128	-56.989517	93.08	0.280	1.090	-0.460	92.95	-0.30	-0.10	 	 	 	 	 	 	 	 	 	 	 	 	 	 	 	 	 	 	1581522931	0.83	1.54
12/02/2020 15:55:32	120220	12022020	155532	93.40	12.419130	-56.989523	93.51	-0.590	2.420	-0.750	93.40	1.00	-0.40	 	 	 	 	 	 	 	 	 	 	 	 	 	 	 	 	 	 	1581522932	1.49	2.76
12/02/2020 15:55:33	120220	12022020	155533	93.60	12.419132	-56.989530	93.74	-1.310	2.620	-0.460	93.64	1.10	-0.10	 	 	 	 	 	 	 	 	 	 	 	 	 	 	 	 	 	 	1581522933	1.28	2.37
12/02/2020 15:55:34	120220	12022020	155534	93.59	12.419128	-56.989532	93.69	-1.550	1.430	0.300	93.59	-0.10	0.70	 	 	 	 	 	 	 	 	 	 	 	 	 	 	 	 	 	 	1581522934	0.89	1.65
12/02/2020 15:55:35	120220	12022020	155535	93.17	12.419122	-56.989530	93.27	-1.120	-0.670	1.370	93.17	-2.20	1.80	 	 	 	 	 	 	 	 	 	 	 	 	 	 	 	 	 	 	1581522935	1.44	2.67
12/02/2020 15:55:36	120220	12022020	155536	92.58	12.419115	-56.989525	92.70	-0.120	-2.820	2.500	92.58	-4.30	2.90	 	 	 	 	 	 	 	 	 	 	 	 	 	 	 	 	 	 	1581522936	1.80	3.33
12/02/2020 15:55:37	120220	12022020	155537	92.12	12.419110	-56.989520	92.26	1.010	-3.980	3.220	92.12	-5.40	3.60	 	 	 	 	 	 	 	 	 	 	 	 	 	 	 	 	 	 	1581522937	1.57	2.91
12/02/2020 15:55:38	120220	12022020	155538	91.92	12.419108	-56.989517	92.06	1.680	-3.390	3.350	91.92	-4.70	3.70	 	 	 	 	 	 	 	 	 	 	 	 	 	 	 	 	 	 	1581522938	0.72	1.33
12/02/2020 15:55:39	120220	12022020	155539	91.99	12.419108	-56.989520	92.15	1.510	-1.160	2.890	91.99	-2.50	3.20	 	 	 	 	 	 	 	 	 	 	 	 	 	 	 	 	 	 	1581522939	0.57	1.06
12/02/2020 15:55:40	120220	12022020	155540	92.29	12.419112	-56.989527	92.43	0.680	1.450	1.880	92.29	0.10	2.20	 	 	 	 	 	 	 	 	 	 	 	 	 	 	 	 	 	 	1581522940	1.68	3.11
12/02/2020 15:55:41	120220	12022020	155541	92.65	12.419118	-56.989535	92.76	-0.400	3.230	0.470	92.65	1.80	0.80	 	 	 	 	 	 	 	 	 	 	 	 	 	 	 	 	 	 	1581522941	2.02	3.74
12/02/2020 15:55:42	120220	12022020	155542	92.92	12.419125	-56.989538	92.98	-1.270	3.510	-0.860	92.92	2.00	-0.50	 	 	 	 	 	 	 	 	 	 	 	 	 	 	 	 	 	 	1581522942	1.86	3.44
12/02/2020 15:55:43	120220	12022020	155543	92.82	12.419130	-56.989540	92.84	-1.510	2.130	-1.600	92.82	0.60	-1.20	 	 	 	 	 	 	 	 	 	 	 	 	 	 	 	 	 	 	1581522943	1.12	2.07
12/02/2020 15:55:44	120220	12022020	155544	92.38	12.419132	-56.989535	92.41	-1.020	-0.320	-1.660	92.38	-1.90	-1.30	 	 	 	 	 	 	 	 	 	 	 	 	 	 	 	 	 	 	1581522944	0.99	1.83
12/02/2020 15:55:45	120220	12022020	155545	92.01	12.419132	-56.989528	91.97	-0.090	-2.590	-1.260	91.92	-4.10	-0.90	 	 	 	 	 	 	 	 	 	 	 	 	 	 	 	 	 	 	1581522945	1.41	2.61
12/02/2020 15:55:46	120220	12022020	155546	91.67	12.419130	-56.989523	91.74	0.760	-3.550	-0.680	91.67	-5.00	-0.30	 	 	 	 	 	 	 	 	 	 	 	 	 	 	 	 	 	 	1581522946	1.10	2.04
12/02/2020 15:55:47	120220	12022020	155547	91.65	12.419128	-56.989523	91.76	1.130	-2.850	-0.050	91.68	-4.20	0.30	 	 	 	 	 	 	 	 	 	 	 	 	 	 	 	 	 	 	1581522947	0.41	0.76
12/02/2020 15:55:48	120220	12022020	155548	91.82	12.419127	-56.989528	91.94	0.970	-1.250	0.700	91.82	-2.60	1.10	 	 	 	 	 	 	 	 	 	 	 	 	 	 	 	 	 	 	1581522948	1.01	1.87
12/02/2020 15:55:49	120220	12022020	155549	91.93	12.419122	-56.989533	92.06	0.490	0.390	1.730	91.93	-1.00	2.10	 	 	 	 	 	 	 	 	 	 	 	 	 	 	 	 	 	 	1581522949	1.44	2.67
12/02/2020 15:55:50	120220	12022020	155550	91.98	12.419115	-56.989537	92.13	-0.030	1.510	2.650	91.98	0.10	3.00	 	 	 	 	 	 	 	 	 	 	 	 	 	 	 	 	 	 	1581522950	1.63	3.02
12/02/2020 15:55:51	120220	12022020	155551	92.13	12.419110	-56.989538	92.30	-0.390	1.970	2.920	92.13	0.50	3.30	 	 	 	 	 	 	 	 	 	 	 	 	 	 	 	 	 	 	1581522951	1.17	2.17
12/02/2020 15:55:52	120220	12022020	155552	92.32	12.419108	-56.989538	92.48	-0.540	1.730	2.580	92.32	0.30	2.90	 	 	 	 	 	 	 	 	 	 	 	 	 	 	 	 	 	 	1581522952	0.25	0.46
12/02/2020 15:55:53	120220	12022020	155553	92.32	12.419110	-56.989537	92.45	-0.520	0.720	1.970	92.32	-0.80	2.30	 	 	 	 	 	 	 	 	 	 	 	 	 	 	 	 	 	 	1581522953	0.54	1.00
12/02/2020 15:55:54	120220	12022020	155554	92.00	12.419113	-56.989533	92.10	-0.330	-0.800	1.390	92.00	-2.30	1.70	 	 	 	 	 	 	 	 	 	 	 	 	 	 	 	 	 	 	1581522954	1.10	2.04
12/02/2020 15:55:55	120220	12022020	155555	91.61	12.419118	-56.989528	91.71	0.040	-2.110	0.860	91.61	-3.60	1.20	 	 	 	 	 	 	 	 	 	 	 	 	 	 	 	 	 	 	1581522955	1.38	2.56
12/02/2020 15:55:56	120220	12022020	155556	91.51	12.419122	-56.989523	91.61	0.530	-2.360	0.250	91.51	-3.80	0.60	 	 	 	 	 	 	 	 	 	 	 	 	 	 	 	 	 	 	1581522956	1.23	2.28
12/02/2020 15:55:57	120220	12022020	155557	91.80	12.419127	-56.989523	91.91	0.770	-1.290	-0.430	91.80	-2.60	-0.10	 	 	 	 	 	 	 	 	 	 	 	 	 	 	 	 	 	 	1581522957	0.98	1.81
12/02/2020 15:55:58	120220	12022020	155558	92.29	12.419130	-56.989528	92.40	0.420	0.390	-0.940	92.29	-1.00	-0.60	 	 	 	 	 	 	 	 	 	 	 	 	 	 	 	 	 	 	1581522958	1.31	2.43
12/02/2020 15:55:59	120220	12022020	155559	92.57	12.419130	-56.989535	92.67	-0.300	1.460	-0.920	92.59	0.00	-0.50	 	 	 	 	 	 	 	 	 	 	 	 	 	 	 	 	 	 	1581522959	1.24	2.30
12/02/2020 15:56:00	120220	12022020	155600	92.32	12.419127	-56.989537	92.38	-0.700	1.250	-0.150	92.32	-0.20	0.30	 	 	 	 	 	 	 	 	 	 	 	 	 	 	 	 	 	 	1581522960	0.89	1.65
12/02/2020 15:56:01	120220	12022020	155601	91.81	12.419120	-56.989533	91.77	-0.360	-0.010	1.000	91.69	-1.50	1.40	 	 	 	 	 	 	 	 	 	 	 	 	 	 	 	 	 	 	1581522961	1.61	2.98
12/02/2020 15:56:02	120220	12022020	155602	91.24	12.419115	-56.989527	91.36	0.460	-1.350	1.910	91.24	-2.80	2.30	1016.70	26.60	26.70	20.00	20.10	819.0	67.0	67.0	432.0	29.2	350.00	10.90	82.00	10.40	63166	10582.0	27.5	27.5	1581522962	1.96	3.63
12/02/2020 15:56:03	120220	12022020	155603	91.19	12.419113	-56.989520	91.33	1.020	-1.730	2.210	91.19	-3.20	2.60	 	 	 	 	 	 	 	 	 	 	 	 	 	 	 	 	 	 	1581522963	1.39	2.57
12/02/2020 15:56:04	120220	12022020	155604	91.49	12.419115	-56.989518	91.64	0.770	-0.760	1.840	91.49	-2.10	2.20	 	 	 	 	 	 	 	 	 	 	 	 	 	 	 	 	 	 	1581522964	0.56	1.04
12/02/2020 15:56:05	120220	12022020	155605	91.93	12.419120	-56.989525	92.06	-0.170	0.900	1.270	91.93	-0.50	1.60	 	 	 	 	 	 	 	 	 	 	 	 	 	 	 	 	 	 	1581522965	1.58	2.93
12/02/2020 15:56:06	120220	12022020	155606	92.19	12.419123	-56.989532	92.31	-1.160	1.930	0.960	92.19	0.50	1.30	 	 	 	 	 	 	 	 	 	 	 	 	 	 	 	 	 	 	1581522966	1.73	3.20
12/02/2020 15:56:07	120220	12022020	155607	92.20	12.419122	-56.989537	92.31	-1.430	1.480	0.920	92.20	-0.00	1.30	 	 	 	 	 	 	 	 	 	 	 	 	 	 	 	 	 	 	1581522967	0.80	1.48
12/02/2020 15:56:08	120220	12022020	155608	92.07	12.419118	-56.989533	92.16	-0.740	-0.260	0.910	92.07	-1.80	1.30	 	 	 	 	 	 	 	 	 	 	 	 	 	 	 	 	 	 	1581522968	0.98	1.81
12/02/2020 15:56:09	120220	12022020	155609	91.70	12.419117	-56.989525	91.78	0.490	-2.110	1.000	91.70	-3.60	1.40	 	 	 	 	 	 	 	 	 	 	 	 	 	 	 	 	 	 	1581522969	1.73	3.20
12/02/2020 15:56:10	120220	12022020	155610	91.27	12.419117	-56.989518	91.35	1.450	-2.800	1.060	91.27	-4.20	1.40	 	 	 	 	 	 	 	 	 	 	 	 	 	 	 	 	 	 	1581522970	1.50	2.78
12/02/2020 15:56:11	120220	12022020	155611	91.18	12.419120	-56.989517	91.29	1.570	-1.860	0.870	91.19	-3.20	1.20	 	 	 	 	 	 	 	 	 	 	 	 	 	 	 	 	 	 	1581522971	0.81	1.50
12/02/2020 15:56:12	120220	12022020	155612	91.39	12.419123	-56.989520	91.49	0.870	-0.100	0.670	91.39	-1.50	1.00	 	 	 	 	 	 	 	 	 	 	 	 	 	 	 	 	 	 	1581522972	1.29	2.39
12/02/2020 15:56:13	120220	12022020	155613	91.58	12.419127	-56.989525	91.74	-0.100	1.430	0.710	91.63	0.00	1.10	 	 	 	 	 	 	 	 	 	 	 	 	 	 	 	 	 	 	1581522973	1.23	2.28
12/02/2020 15:56:14	120220	12022020	155614	91.86	12.419125	-56.989530	91.98	-0.780	2.120	0.850	91.86	0.70	1.20	 	 	 	 	 	 	 	 	 	 	 	 	 	 	 	 	 	 	1581522974	0.82	1.52
12/02/2020 15:56:15	120220	12022020	155615	91.93	12.419123	-56.989530	92.05	-0.930	1.750	1.080	91.93	0.30	1.50	 	 	 	 	 	 	 	 	 	 	 	 	 	 	 	 	 	 	1581522975	0.56	1.04
12/02/2020 15:56:16	120220	12022020	155616	91.68	12.419120	-56.989528	91.79	-0.660	0.510	1.460	91.68	-1.00	1.80	 	 	 	 	 	 	 	 	 	 	 	 	 	 	 	 	 	 	1581522976	0.78	1.44
12/02/2020 15:56:17	120220	12022020	155617	91.29	12.419118	-56.989523	91.41	-0.240	-1.000	1.810	91.29	-2.50	2.20	 	 	 	 	 	 	 	 	 	 	 	 	 	 	 	 	 	 	1581522977	1.11	2.06
12/02/2020 15:56:18	120220	12022020	155618	91.11	12.419118	-56.989518	91.26	0.060	-1.930	1.900	91.11	-3.40	2.30	 	 	 	 	 	 	 	 	 	 	 	 	 	 	 	 	 	 	1581522978	1.02	1.89
12/02/2020 15:56:19	120220	12022020	155619	91.34	12.419120	-56.989517	91.50	0.120	-1.740	1.620	91.34	-3.10	2.00	 	 	 	 	 	 	 	 	 	 	 	 	 	 	 	 	 	 	1581522979	0.41	0.76
12/02/2020 15:56:20	120220	12022020	155620	91.74	12.419122	-56.989520	91.88	0.110	-0.810	1.130	91.74	-2.20	1.50	 	 	 	 	 	 	 	 	 	 	 	 	 	 	 	 	 	 	1581522980	0.70	1.30
12/02/2020 15:56:21	120220	12022020	155621	91.85	12.419122	-56.989523	91.95	0.280	-0.050	0.860	91.85	-1.50	1.20	 	 	 	 	 	 	 	 	 	 	 	 	 	 	 	 	 	 	1581522981	0.77	1.43
12/02/2020 15:56:22	120220	12022020	155622	91.58	12.419123	-56.989523	91.65	0.610	0.060	0.890	91.58	-1.40	1.30	 	 	 	 	 	 	 	 	 	 	 	 	 	 	 	 	 	 	1581522982	0.11	0.20
12/02/2020 15:56:23	120220	12022020	155623	91.21	12.419123	-56.989520	91.18	0.770	-0.120	0.920	91.11	-1.50	1.30	 	 	 	 	 	 	 	 	 	 	 	 	 	 	 	 	 	 	1581522983	0.74	1.37
12/02/2020 15:56:24	120220	12022020	155624	90.80	12.419127	-56.989517	90.89	0.540	-0.090	0.760	90.80	-1.50	1.10	 	 	 	 	 	 	 	 	 	 	 	 	 	 	 	 	 	 	1581522984	0.97	1.80
12/02/2020 15:56:25	120220	12022020	155625	90.86	12.419130	-56.989515	90.98	0.010	0.110	0.610	90.86	-1.30	1.00	 	 	 	 	 	 	 	 	 	 	 	 	 	 	 	 	 	 	1581522985	0.68	1.26
12/02/2020 15:56:26	120220	12022020	155626	91.15	12.419130	-56.989515	91.28	-0.500	0.310	0.660	91.15	-1.10	1.00	 	 	 	 	 	 	 	 	 	 	 	 	 	 	 	 	 	 	1581522986	0.12	0.22
12/02/2020 15:56:27	120220	12022020	155627	91.40	12.419128	-56.989515	91.53	-0.780	0.560	0.690	91.40	-0.90	1.10	 	 	 	 	 	 	 	 	 	 	 	 	 	 	 	 	 	 	1581522987	0.42	0.78
12/02/2020 15:56:28	120220	12022020	155628	91.54	12.419127	-56.989517	91.65	-0.820	0.750	0.520	91.54	-0.70	0.90	 	 	 	 	 	 	 	 	 	 	 	 	 	 	 	 	 	 	1581522988	0.38	0.70
12/02/2020 15:56:29	120220	12022020	155629	91.54	12.419128	-56.989518	91.64	-0.640	0.530	0.460	91.54	-0.90	0.90	 	 	 	 	 	 	 	 	 	 	 	 	 	 	 	 	 	 	1581522989	0.43	0.80
12/02/2020 15:56:30	120220	12022020	155630	91.51	12.419128	-56.989518	91.62	-0.290	-0.230	0.610	91.51	-1.70	1.00	 	 	 	 	 	 	 	 	 	 	 	 	 	 	 	 	 	 	1581522990	0.12	0.22
12/02/2020 15:56:31	120220	12022020	155631	91.45	12.419128	-56.989515	91.55	0.110	-1.210	0.880	91.45	-2.60	1.30	 	 	 	 	 	 	 	 	 	 	 	 	 	 	 	 	 	 	1581522991	0.61	1.13
12/02/2020 15:56:32	120220	12022020	155632	91.18	12.419127	-56.989512	91.28	0.460	-1.940	1.320	91.18	-3.40	1.70	 	 	 	 	 	 	 	 	 	 	 	 	 	 	 	 	 	 	1581522992	0.95	1.76
12/02/2020 15:56:33	120220	12022020	155633	90.79	12.419123	-56.989508	90.89	0.770	-1.990	1.720	90.79	-3.40	2.10	 	 	 	 	 	 	 	 	 	 	 	 	 	 	 	 	 	 	1581522993	0.92	1.70
12/02/2020 15:56:34	120220	12022020	155634	90.48	12.419122	-56.989507	90.58	0.970	-1.260	1.780	90.48	-2.60	2.20	 	 	 	 	 	 	 	 	 	 	 	 	 	 	 	 	 	 	1581522994	0.42	0.78
12/02/2020 15:56:35	120220	12022020	155635	90.28	12.419123	-56.989507	90.31	0.900	-0.040	1.440	90.23	-1.40	1.80	 	 	 	 	 	 	 	 	 	 	 	 	 	 	 	 	 	 	1581522995	0.40	0.74
12/02/2020 15:56:36	120220	12022020	155636	90.01	12.419130	-56.989508	90.09	0.480	1.100	0.700	90.01	-0.30	1.10	 	 	 	 	 	 	 	 	 	 	 	 	 	 	 	 	 	 	1581522996	1.21	2.24
12/02/2020 15:56:37	120220	12022020	155637	90.12	12.419138	-56.989510	90.30	-0.250	1.760	-0.310	90.19	0.30	0.00	 	 	 	 	 	 	 	 	 	 	 	 	 	 	 	 	 	 	1581522997	1.79	3.32
12/02/2020 15:56:38	120220	12022020	155638	90.84	12.419145	-56.989512	90.96	-1.090	1.840	-1.040	90.84	0.40	-0.70	 	 	 	 	 	 	 	 	 	 	 	 	 	 	 	 	 	 	1581522998	1.53	2.83
12/02/2020 15:56:39	120220	12022020	155639	91.56	12.419145	-56.989512	91.65	-1.680	1.320	-1.000	91.56	-0.10	-0.60	 	 	 	 	 	 	 	 	 	 	 	 	 	 	 	 	 	 	1581522999	0.24	0.44
12/02/2020 15:56:40	120220	12022020	155640	91.82	12.419138	-56.989512	91.90	-1.600	0.100	-0.230	91.82	-1.40	0.20	 	 	 	 	 	 	 	 	 	 	 	 	 	 	 	 	 	 	1581523000	1.41	2.61
12/02/2020 15:56:41	120220	12022020	155641	91.50	12.419128	-56.989508	91.57	-0.740	-1.530	0.930	91.50	-3.00	1.40	 	 	 	 	 	 	 	 	 	 	 	 	 	 	 	 	 	 	1581523001	2.32	4.30
12/02/2020 15:56:42	120220	12022020	155642	90.71	12.419118	-56.989503	90.79	0.570	-2.820	2.220	90.71	-4.20	2.60	 	 	 	 	 	 	 	 	 	 	 	 	 	 	 	 	 	 	1581523002	2.35	4.35
12/02/2020 15:56:43	120220	12022020	155643	89.91	12.419113	-56.989498	90.02	1.590	-2.930	3.200	89.91	-4.30	3.60	 	 	 	 	 	 	 	 	 	 	 	 	 	 	 	 	 	 	1581523003	1.52	2.82
12/02/2020 15:56:44	120220	12022020	155644	89.58	12.419113	-56.989498	89.72	1.700	-1.600	3.330	89.58	-2.90	3.70	 	 	 	 	 	 	 	 	 	 	 	 	 	 	 	 	 	 	1581523004	0.13	0.24
12/02/2020 15:56:45	120220	12022020	155645	89.85	12.419120	-56.989502	90.00	0.910	0.420	2.430	89.85	-0.90	2.80	 	 	 	 	 	 	 	 	 	 	 	 	 	 	 	 	 	 	1581523005	1.54	2.85
12/02/2020 15:56:46	120220	12022020	155646	90.51	12.419128	-56.989508	90.66	-0.180	1.940	0.920	90.51	0.50	1.30	 	 	 	 	 	 	 	 	 	 	 	 	 	 	 	 	 	 	1581523006	2.31	4.28
12/02/2020 15:56:47	120220	12022020	155647	91.09	12.419137	-56.989512	91.34	-0.930	2.350	-0.380	91.23	0.90	-0.00	 	 	 	 	 	 	 	 	 	 	 	 	 	 	 	 	 	 	1581523007	1.90	3.52
12/02/2020 15:56:48	120220	12022020	155648	91.69	12.419140	-56.989510	91.76	-1.120	1.700	-0.980	91.69	0.20	-0.60	 	 	 	 	 	 	 	 	 	 	 	 	 	 	 	 	 	 	1581523008	0.77	1.43
12/02/2020 15:56:49	120220	12022020	155649	91.68	12.419138	-56.989507	91.68	-0.910	0.250	-0.660	91.63	-1.20	-0.20	 	 	 	 	 	 	 	 	 	 	 	 	 	 	 	 	 	 	1581523009	0.83	1.54
12/02/2020 15:56:50	120220	12022020	155650	91.10	12.419132	-56.989502	91.17	-0.510	-1.310	0.190	91.10	-2.80	0.60	 	 	 	 	 	 	 	 	 	 	 	 	 	 	 	 	 	 	1581523010	1.67	3.09
12/02/2020 15:56:51	120220	12022020	155651	90.50	12.419127	-56.989498	90.59	-0.040	-2.240	1.030	90.50	-3.70	1.40	 	 	 	 	 	 	 	 	 	 	 	 	 	 	 	 	 	 	1581523011	1.61	2.98
12/02/2020 15:56:52	120220	12022020	155652	90.17	12.419123	-56.989495	90.28	0.460	-2.160	1.510	90.17	-3.50	1.90	 	 	 	 	 	 	 	 	 	 	 	 	 	 	 	 	 	 	1581523012	0.84	1.56
12/02/2020 15:56:53	120220	12022020	155653	90.17	12.419123	-56.989497	90.30	0.750	-1.150	1.560	90.17	-2.50	1.90	 	 	 	 	 	 	 	 	 	 	 	 	 	 	 	 	 	 	1581523013	0.24	0.44
12/02/2020 15:56:54	120220	12022020	155654	90.52	12.419127	-56.989500	90.66	0.630	0.190	1.250	90.52	-1.20	1.60	 	 	 	 	 	 	 	 	 	 	 	 	 	 	 	 	 	 	1581523014	1.07	1.98
12/02/2020 15:56:55	120220	12022020	155655	91.04	12.419130	-56.989505	91.17	0.260	1.040	0.770	91.04	-0.40	1.10	 	 	 	 	 	 	 	 	 	 	 	 	 	 	 	 	 	 	1581523015	1.17	2.17
12/02/2020 15:56:56	120220	12022020	155656	91.43	12.419133	-56.989505	91.55	0.010	0.920	0.410	91.43	-0.50	0.80	 	 	 	 	 	 	 	 	 	 	 	 	 	 	 	 	 	 	1581523016	0.53	0.98
12/02/2020 15:56:57	120220	12022020	155657	91.53	12.419132	-56.989502	91.62	-0.000	0.220	0.420	91.53	-1.20	0.80	 	 	 	 	 	 	 	 	 	 	 	 	 	 	 	 	 	 	1581523017	0.72	1.33
12/02/2020 15:56:58	120220	12022020	155658	91.22	12.419130	-56.989497	91.31	-0.010	-0.330	0.890	91.22	-1.80	1.30	 	 	 	 	 	 	 	 	 	 	 	 	 	 	 	 	 	 	1581523018	1.04	1.93
12/02/2020 15:56:59	120220	12022020	155659	90.67	12.419127	-56.989497	90.77	-0.240	-0.260	1.650	90.67	-1.70	2.10	 	 	 	 	 	 	 	 	 	 	 	 	 	 	 	 	 	 	1581523019	0.81	1.50
12/02/2020 15:57:00	120220	12022020	155700	90.26	12.419123	-56.989498	90.38	-0.550	0.060	2.120	90.26	-1.40	2.50	 	 	 	 	 	 	 	 	 	 	 	 	 	 	 	 	 	 	1581523020	0.72	1.33
12/02/2020 15:57:01	120220	12022020	155701	90.24	12.419125	-56.989500	90.41	-0.620	0.000	1.770	90.27	-1.40	2.10	 	 	 	 	 	 	 	 	 	 	 	 	 	 	 	 	 	 	1581523021	0.51	0.94
12/02/2020 15:57:02	120220	12022020	155702	90.64	12.419130	-56.989500	90.77	-0.280	-0.520	0.860	90.64	-2.00	1.20	1016.80	26.60	26.70	19.90	20.00	945.0	66.0	66.0	433.0	29.3	349.00	11.10	80.00	10.70	68957	11367.0	27.5	27.5	1581523022	1.04	1.93
12/02/2020 15:57:03	120220	12022020	155703	91.01	12.419135	-56.989498	91.20	0.250	-1.030	0.090	91.09	-2.50	0.50	 	 	 	 	 	 	 	 	 	 	 	 	 	 	 	 	 	 	1581523023	1.25	2.31
12/02/2020 15:57:04	120220	12022020	155704	91.39	12.419137	-56.989495	91.48	0.590	-1.080	-0.180	91.39	-2.50	0.20	 	 	 	 	 	 	 	 	 	 	 	 	 	 	 	 	 	 	1581523024	0.65	1.20
12/02/2020 15:57:05	120220	12022020	155705	91.37	12.419135	-56.989495	91.45	0.580	-0.550	0.150	91.37	-1.90	0.60	 	 	 	 	 	 	 	 	 	 	 	 	 	 	 	 	 	 	1581523025	0.48	0.89
12/02/2020 15:57:06	120220	12022020	155706	91.02	12.419130	-56.989498	91.09	0.340	0.180	0.770	91.02	-1.20	1.20	 	 	 	 	 	 	 	 	 	 	 	 	 	 	 	 	 	 	1581523026	0.97	1.80
12/02/2020 15:57:07	120220	12022020	155707	90.55	12.419128	-56.989500	90.64	0.080	0.630	1.160	90.55	-0.80	1.60	 	 	 	 	 	 	 	 	 	 	 	 	 	 	 	 	 	 	1581523027	0.55	1.02
12/02/2020 15:57:08	120220	12022020	155708	90.34	12.419130	-56.989500	90.44	-0.090	0.540	1.200	90.34	-0.90	1.60	 	 	 	 	 	 	 	 	 	 	 	 	 	 	 	 	 	 	1581523028	0.33	0.61
12/02/2020 15:57:09	120220	12022020	155709	90.41	12.419132	-56.989498	90.53	-0.180	0.020	1.100	90.41	-1.40	1.50	 	 	 	 	 	 	 	 	 	 	 	 	 	 	 	 	 	 	1581523029	0.62	1.15
12/02/2020 15:57:10	120220	12022020	155710	90.64	12.419133	-56.989495	90.77	-0.210	-0.470	1.000	90.64	-1.90	1.40	 	 	 	 	 	 	 	 	 	 	 	 	 	 	 	 	 	 	1581523030	0.65	1.20
12/02/2020 15:57:11	120220	12022020	155711	90.85	12.419135	-56.989495	90.96	-0.200	-0.550	0.950	90.85	-2.00	1.30	 	 	 	 	 	 	 	 	 	 	 	 	 	 	 	 	 	 	1581523031	0.33	0.61
12/02/2020 15:57:12	120220	12022020	155712	90.89	12.419135	-56.989495	91.00	-0.200	-0.240	1.020	90.89	-1.60	1.40	 	 	 	 	 	 	 	 	 	 	 	 	 	 	 	 	 	 	1581523032	0.23	0.43
12/02/2020 15:57:13	120220	12022020	155713	90.85	12.419133	-56.989498	90.96	-0.210	0.080	1.170	90.85	-1.30	1.60	 	 	 	 	 	 	 	 	 	 	 	 	 	 	 	 	 	 	1581523033	0.60	1.11
12/02/2020 15:57:14	120220	12022020	155714	90.81	12.419132	-56.989500	90.92	-0.120	0.120	1.340	90.81	-1.30	1.70	 	 	 	 	 	 	 	 	 	 	 	 	 	 	 	 	 	 	1581523034	0.57	1.06
12/02/2020 15:57:15	120220	12022020	155715	90.73	12.419130	-56.989500	90.81	0.090	-0.180	1.500	90.70	-1.60	1.90	 	 	 	 	 	 	 	 	 	 	 	 	 	 	 	 	 	 	1581523035	0.23	0.43
12/02/2020 15:57:16	120220	12022020	155716	90.48	12.419130	-56.989497	90.59	0.310	-0.750	1.620	90.48	-2.20	2.00	 	 	 	 	 	 	 	 	 	 	 	 	 	 	 	 	 	 	1581523036	0.45	0.83
12/02/2020 15:57:17	120220	12022020	155717	90.31	12.419132	-56.989493	90.43	0.350	-1.070	1.520	90.31	-2.50	1.90	 	 	 	 	 	 	 	 	 	 	 	 	 	 	 	 	 	 	1581523037	0.75	1.39
12/02/2020 15:57:18	120220	12022020	155718	90.45	12.419133	-56.989493	90.57	0.170	-0.660	1.240	90.45	-2.00	1.60	 	 	 	 	 	 	 	 	 	 	 	 	 	 	 	 	 	 	1581523038	0.36	0.67
12/02/2020 15:57:19	120220	12022020	155719	90.76	12.419133	-56.989495	90.88	-0.060	0.160	0.920	90.76	-1.20	1.30	 	 	 	 	 	 	 	 	 	 	 	 	 	 	 	 	 	 	1581523039	0.59	1.09
12/02/2020 15:57:20	120220	12022020	155720	90.92	12.419133	-56.989498	91.01	-0.190	0.630	0.870	90.92	-0.80	1.30	 	 	 	 	 	 	 	 	 	 	 	 	 	 	 	 	 	 	1581523040	0.69	1.28
12/02/2020 15:57:21	120220	12022020	155721	90.76	12.419133	-56.989500	90.84	-0.170	0.430	1.110	90.76	-1.00	1.50	 	 	 	 	 	 	 	 	 	 	 	 	 	 	 	 	 	 	1581523041	0.19	0.35
12/02/2020 15:57:22	120220	12022020	155722	90.47	12.419133	-56.989497	90.55	-0.100	-0.020	1.210	90.47	-1.40	1.60	 	 	 	 	 	 	 	 	 	 	 	 	 	 	 	 	 	 	1581523042	0.44	0.81
12/02/2020 15:57:23	120220	12022020	155723	90.31	12.419133	-56.989497	90.39	-0.070	-0.260	1.020	90.31	-1.70	1.40	 	 	 	 	 	 	 	 	 	 	 	 	 	 	 	 	 	 	1581523043	0.36	0.67
12/02/2020 15:57:24	120220	12022020	155724	90.30	12.419135	-56.989497	90.38	-0.050	-0.310	0.830	90.30	-1.70	1.20	 	 	 	 	 	 	 	 	 	 	 	 	 	 	 	 	 	 	1581523044	0.39	0.72
12/02/2020 15:57:25	120220	12022020	155725	90.35	12.419137	-56.989497	90.46	0.020	-0.370	0.820	90.37	-1.80	1.20	 	 	 	 	 	 	 	 	 	 	 	 	 	 	 	 	 	 	1581523045	0.26	0.48
12/02/2020 15:57:26	120220	12022020	155726	90.52	12.419137	-56.989497	90.61	0.140	-0.520	0.780	90.52	-1.90	1.20	 	 	 	 	 	 	 	 	 	 	 	 	 	 	 	 	 	 	1581523046	0.14	0.26
12/02/2020 15:57:27	120220	12022020	155727	90.65	12.419138	-56.989495	90.77	0.250	-0.650	0.640	90.69	-2.10	1.00	 	 	 	 	 	 	 	 	 	 	 	 	 	 	 	 	 	 	1581523047	0.32	0.59
12/02/2020 15:57:28	120220	12022020	155728	90.82	12.419140	-56.989493	90.91	0.250	-0.540	0.530	90.82	-1.90	0.90	 	 	 	 	 	 	 	 	 	 	 	 	 	 	 	 	 	 	1581523048	0.36	0.67
12/02/2020 15:57:29	120220	12022020	155729	90.88	12.419140	-56.989495	90.97	0.030	-0.030	0.670	90.88	-1.40	1.10	 	 	 	 	 	 	 	 	 	 	 	 	 	 	 	 	 	 	1581523049	0.14	0.26
12/02/2020 15:57:30	120220	12022020	155730	90.82	12.419137	-56.989498	90.92	-0.330	0.600	1.160	90.82	-0.80	1.60	 	 	 	 	 	 	 	 	 	 	 	 	 	 	 	 	 	 	1581523050	0.77	1.43
12/02/2020 15:57:31	120220	12022020	155731	90.60	12.419133	-56.989500	90.71	-0.550	0.620	1.840	90.60	-0.80	2.20	 	 	 	 	 	 	 	 	 	 	 	 	 	 	 	 	 	 	1581523051	1.08	2.00
12/02/2020 15:57:32	120220	12022020	155732	90.26	12.419128	-56.989498	90.38	-0.450	-0.200	2.350	90.26	-1.60	2.70	 	 	 	 	 	 	 	 	 	 	 	 	 	 	 	 	 	 	1581523052	1.02	1.89
12/02/2020 15:57:33	120220	12022020	155733	90.06	12.419127	-56.989493	90.18	-0.080	-1.080	2.300	90.06	-2.50	2.70	 	 	 	 	 	 	 	 	 	 	 	 	 	 	 	 	 	 	1581523053	1.10	2.04
12/02/2020 15:57:34	120220	12022020	155734	90.14	12.419128	-56.989490	90.27	0.320	-1.180	1.710	90.14	-2.60	2.10	 	 	 	 	 	 	 	 	 	 	 	 	 	 	 	 	 	 	1581523054	0.84	1.56
12/02/2020 15:57:35	120220	12022020	155735	90.36	12.419133	-56.989492	90.45	0.470	-0.430	0.900	90.36	-1.80	1.30	 	 	 	 	 	 	 	 	 	 	 	 	 	 	 	 	 	 	1581523055	1.07	1.98
12/02/2020 15:57:36	120220	12022020	155736	90.47	12.419138	-56.989495	90.54	0.250	0.470	0.220	90.47	-0.90	0.60	 	 	 	 	 	 	 	 	 	 	 	 	 	 	 	 	 	 	1581523056	1.41	2.61
12/02/2020 15:57:37	120220	12022020	155737	90.43	12.419143	-56.989498	90.49	-0.160	0.770	-0.130	90.43	-0.60	0.30	 	 	 	 	 	 	 	 	 	 	 	 	 	 	 	 	 	 	1581523057	1.08	2.00
12/02/2020 15:57:38	120220	12022020	155738	90.38	12.419145	-56.989498	90.45	-0.390	0.260	-0.200	90.38	-1.20	0.20	 	 	 	 	 	 	 	 	 	 	 	 	 	 	 	 	 	 	1581523058	0.37	0.69
12/02/2020 15:57:39	120220	12022020	155739	90.41	12.419143	-56.989495	90.49	-0.290	-0.590	-0.060	90.42	-2.00	0.30	 	 	 	 	 	 	 	 	 	 	 	 	 	 	 	 	 	 	1581523059	0.74	1.37
12/02/2020 15:57:40	120220	12022020	155740	90.47	12.419142	-56.989492	90.56	-0.020	-0.910	0.350	90.47	-2.30	0.70	 	 	 	 	 	 	 	 	 	 	 	 	 	 	 	 	 	 	1581523060	0.85	1.57
12/02/2020 15:57:41	120220	12022020	155741	90.43	12.419138	-56.989492	90.52	0.100	-0.500	0.940	90.43	-1.90	1.30	 	 	 	 	 	 	 	 	 	 	 	 	 	 	 	 	 	 	1581523061	0.73	1.35
12/02/2020 15:57:42	120220	12022020	155742	90.18	12.419135	-56.989495	90.26	0.010	-0.010	1.500	90.18	-1.40	1.90	 	 	 	 	 	 	 	 	 	 	 	 	 	 	 	 	 	 	1581523062	0.97	1.80
12/02/2020 15:57:43	120220	12022020	155743	89.73	12.419132	-56.989495	89.81	-0.110	-0.020	1.980	89.73	-1.40	2.40	 	 	 	 	 	 	 	 	 	 	 	 	 	 	 	 	 	 	1581523063	0.70	1.30
12/02/2020 15:57:44	120220	12022020	155744	89.25	12.419130	-56.989493	89.35	-0.100	-0.350	2.290	89.25	-1.80	2.70	 	 	 	 	 	 	 	 	 	 	 	 	 	 	 	 	 	 	1581523064	0.59	1.09
12/02/2020 15:57:45	120220	12022020	155745	89.11	12.419130	-56.989492	89.25	-0.010	-0.410	2.090	89.11	-1.80	2.40	 	 	 	 	 	 	 	 	 	 	 	 	 	 	 	 	 	 	1581523065	0.54	1.00
12/02/2020 15:57:46	120220	12022020	155746	89.48	12.419135	-56.989492	89.62	-0.010	-0.050	1.250	89.48	-1.50	1.60	 	 	 	 	 	 	 	 	 	 	 	 	 	 	 	 	 	 	1581523066	1.07	1.98
12/02/2020 15:57:47	120220	12022020	155747	89.97	12.419142	-56.989493	90.08	-0.160	0.320	0.200	89.97	-1.10	0.60	 	 	 	 	 	 	 	 	 	 	 	 	 	 	 	 	 	 	1581523067	1.50	2.78
12/02/2020 15:57:48	120220	12022020	155748	90.34	12.419147	-56.989495	90.43	-0.320	0.360	-0.490	90.34	-1.10	-0.10	 	 	 	 	 	 	 	 	 	 	 	 	 	 	 	 	 	 	1581523068	0.92	1.70
12/02/2020 15:57:49	120220	12022020	155749	90.47	12.419145	-56.989495	90.55	-0.300	0.120	-0.480	90.47	-1.30	-0.10	 	 	 	 	 	 	 	 	 	 	 	 	 	 	 	 	 	 	1581523069	0.18	0.33
12/02/2020 15:57:50	120220	12022020	155750	90.32	12.419142	-56.989493	90.40	-0.040	-0.430	0.070	90.32	-1.90	0.50	 	 	 	 	 	 	 	 	 	 	 	 	 	 	 	 	 	 	1581523070	0.88	1.63
12/02/2020 15:57:51	120220	12022020	155751	90.01	12.419137	-56.989492	89.99	0.320	-1.190	0.860	89.92	-2.60	1.30	 	 	 	 	 	 	 	 	 	 	 	 	 	 	 	 	 	 	1581523071	1.20	2.22
12/02/2020 15:57:52	120220	12022020	155752	89.39	12.419133	-56.989487	89.46	0.560	-1.550	1.490	89.39	-3.00	1.90	 	 	 	 	 	 	 	 	 	 	 	 	 	 	 	 	 	 	1581523072	1.20	2.22
12/02/2020 15:57:53	120220	12022020	155753	89.11	12.419133	-56.989485	89.18	0.500	-0.860	1.690	89.08	-2.20	2.10	 	 	 	 	 	 	 	 	 	 	 	 	 	 	 	 	 	 	1581523073	0.40	0.74
12/02/2020 15:57:54	120220	12022020	155754	89.15	12.419135	-56.989488	89.28	0.080	0.520	1.510	89.15	-0.90	1.90	 	 	 	 	 	 	 	 	 	 	 	 	 	 	 	 	 	 	1581523074	0.88	1.63
12/02/2020 15:57:55	120220	12022020	155755	89.49	12.419138	-56.989493	89.61	-0.540	1.560	1.130	89.49	0.10	1.50	 	 	 	 	 	 	 	 	 	 	 	 	 	 	 	 	 	 	1581523075	1.39	2.57
12/02/2020 15:57:56	120220	12022020	155756	89.85	12.419142	-56.989497	89.97	-1.030	1.610	0.750	89.85	0.20	1.10	 	 	 	 	 	 	 	 	 	 	 	 	 	 	 	 	 	 	1581523076	0.93	1.72
12/02/2020 15:57:57	120220	12022020	155757	90.16	12.419142	-56.989497	90.28	-0.980	0.600	0.510	90.16	-0.90	0.90	 	 	 	 	 	 	 	 	 	 	 	 	 	 	 	 	 	 	1581523077	0.14	0.26
12/02/2020 15:57:58	120220	12022020	155758	90.35	12.419140	-56.989493	90.47	-0.330	-1.040	0.470	90.35	-2.50	0.90	 	 	 	 	 	 	 	 	 	 	 	 	 	 	 	 	 	 	1581523078	0.96	1.78
12/02/2020 15:57:59	120220	12022020	155759	90.30	12.419138	-56.989487	90.39	0.520	-2.380	0.770	90.30	-3.80	1.20	 	 	 	 	 	 	 	 	 	 	 	 	 	 	 	 	 	 	1581523079	1.58	2.93
12/02/2020 15:58:00	120220	12022020	155800	89.91	12.419133	-56.989482	89.99	1.050	-2.420	1.400	89.91	-3.80	1.80	 	 	 	 	 	 	 	 	 	 	 	 	 	 	 	 	 	 	1581523080	1.29	2.39
12/02/2020 15:58:01	120220	12022020	155801	89.39	12.419130	-56.989483	89.48	0.960	-1.050	1.950	89.39	-2.40	2.30	 	 	 	 	 	 	 	 	 	 	 	 	 	 	 	 	 	 	1581523081	0.70	1.30
12/02/2020 15:58:02	120220	12022020	155802	89.02	12.419130	-56.989488	89.13	0.340	0.860	1.970	89.02	-0.50	2.30	1016.80	26.60	26.70	19.90	20.00	652.0	66.0	66.0	434.0	29.2	353.00	10.60	83.00	10.20	53971	11640.0	27.5	27.5	1581523082	1.33	2.46
12/02/2020 15:58:03	120220	12022020	155803	89.11	12.419133	-56.989497	89.24	-0.420	2.080	1.230	89.11	0.70	1.60	 	 	 	 	 	 	 	 	 	 	 	 	 	 	 	 	 	 	1581523083	1.71	3.17
12/02/2020 15:58:04	120220	12022020	155804	89.64	12.419140	-56.989500	89.77	-0.910	1.890	0.110	89.64	0.40	0.50	 	 	 	 	 	 	 	 	 	 	 	 	 	 	 	 	 	 	1581523084	1.51	2.80
12/02/2020 15:58:05	120220	12022020	155805	90.14	12.419145	-56.989498	90.24	-0.860	0.510	-0.630	90.14	-1.00	-0.30	 	 	 	 	 	 	 	 	 	 	 	 	 	 	 	 	 	 	1581523085	1.09	2.02
12/02/2020 15:58:06	120220	12022020	155806	90.15	12.419145	-56.989492	90.21	-0.340	-1.180	-0.620	90.15	-2.70	-0.20	 	 	 	 	 	 	 	 	 	 	 	 	 	 	 	 	 	 	1581523086	1.22	2.26
12/02/2020 15:58:07	120220	12022020	155807	89.74	12.419143	-56.989487	89.79	0.320	-2.130	-0.070	89.74	-3.60	0.30	 	 	 	 	 	 	 	 	 	 	 	 	 	 	 	 	 	 	1581523087	1.23	2.28
12/02/2020 15:58:08	120220	12022020	155808	89.26	12.419140	-56.989485	89.32	0.780	-1.880	0.680	89.26	-3.30	1.10	 	 	 	 	 	 	 	 	 	 	 	 	 	 	 	 	 	 	1581523088	0.74	1.37
12/02/2020 15:58:09	120220	12022020	155809	88.92	12.419137	-56.989488	89.02	0.810	-0.770	1.410	88.92	-2.10	1.80	 	 	 	 	 	 	 	 	 	 	 	 	 	 	 	 	 	 	1581523089	0.83	1.54
12/02/2020 15:58:10	120220	12022020	155810	88.97	12.419135	-56.989493	89.10	0.440	0.360	1.780	88.97	-1.00	2.20	 	 	 	 	 	 	 	 	 	 	 	 	 	 	 	 	 	 	1581523090	0.98	1.81
12/02/2020 15:58:11	120220	12022020	155811	89.38	12.419135	-56.989495	89.53	-0.060	0.860	1.750	89.38	-0.60	2.10	 	 	 	 	 	 	 	 	 	 	 	 	 	 	 	 	 	 	1581523091	0.62	1.15
12/02/2020 15:58:12	120220	12022020	155812	89.89	12.419137	-56.989495	90.04	-0.400	0.640	1.510	89.89	-0.80	1.90	 	 	 	 	 	 	 	 	 	 	 	 	 	 	 	 	 	 	1581523092	0.10	0.19
12/02/2020 15:58:13	120220	12022020	155813	90.16	12.419135	-56.989493	90.29	-0.470	0.180	1.330	90.16	-1.30	1.70	 	 	 	 	 	 	 	 	 	 	 	 	 	 	 	 	 	 	1581523093	0.47	0.87
12/02/2020 15:58:14	120220	12022020	155814	90.03	12.419133	-56.989492	90.14	-0.320	-0.060	1.380	90.03	-1.50	1.80	 	 	 	 	 	 	 	 	 	 	 	 	 	 	 	 	 	 	1581523094	0.54	1.00
12/02/2020 15:58:15	120220	12022020	155815	89.67	12.419130	-56.989493	89.66	-0.140	-0.060	1.750	89.56	-1.50	2.10	 	 	 	 	 	 	 	 	 	 	 	 	 	 	 	 	 	 	1581523095	0.61	1.13
12/02/2020 15:58:16	120220	12022020	155816	89.07	12.419128	-56.989493	89.20	-0.030	-0.180	2.020	89.07	-1.60	2.40	 	 	 	 	 	 	 	 	 	 	 	 	 	 	 	 	 	 	1581523096	0.53	0.98
12/02/2020 15:58:17	120220	12022020	155817	88.90	12.419130	-56.989493	89.03	0.110	-0.600	1.670	88.90	-2.00	2.00	 	 	 	 	 	 	 	 	 	 	 	 	 	 	 	 	 	 	1581523097	0.24	0.44
12/02/2020 15:58:18	120220	12022020	155818	89.11	12.419135	-56.989492	89.23	0.350	-0.980	0.740	89.11	-2.40	1.10	 	 	 	 	 	 	 	 	 	 	 	 	 	 	 	 	 	 	1581523098	1.24	2.30
12/02/2020 15:58:19	120220	12022020	155819	89.46	12.419142	-56.989492	89.57	0.570	-0.960	-0.130	89.46	-2.40	0.20	 	 	 	 	 	 	 	 	 	 	 	 	 	 	 	 	 	 	1581523099	1.60	2.96
12/02/2020 15:58:20	120220	12022020	155820	89.73	12.419147	-56.989492	89.83	0.590	-0.630	-0.380	89.73	-2.00	0.00	 	 	 	 	 	 	 	 	 	 	 	 	 	 	 	 	 	 	1581523100	1.05	1.94
12/02/2020 15:58:21	120220	12022020	155821	89.76	12.419148	-56.989492	89.86	0.370	-0.170	0.020	89.76	-1.60	0.40	 	 	 	 	 	 	 	 	 	 	 	 	 	 	 	 	 	 	1581523101	0.14	0.26
12/02/2020 15:58:22	120220	12022020	155822	89.62	12.419143	-56.989493	89.74	-0.020	0.370	0.800	89.62	-1.00	1.20	 	 	 	 	 	 	 	 	 	 	 	 	 	 	 	 	 	 	1581523102	0.90	1.67
12/02/2020 15:58:23	120220	12022020	155823	89.60	12.419137	-56.989495	89.75	-0.400	0.840	1.550	89.60	-0.60	1.90	 	 	 	 	 	 	 	 	 	 	 	 	 	 	 	 	 	 	1581523103	1.37	2.54
12/02/2020 15:58:24	120220	12022020	155824	89.69	12.419132	-56.989497	89.84	-0.560	0.820	2.020	89.69	-0.60	2.40	 	 	 	 	 	 	 	 	 	 	 	 	 	 	 	 	 	 	1581523104	1.23	2.28
12/02/2020 15:58:25	120220	12022020	155825	89.57	12.419128	-56.989495	89.71	-0.370	0.050	2.300	89.57	-1.40	2.70	 	 	 	 	 	 	 	 	 	 	 	 	 	 	 	 	 	 	1581523105	0.64	1.19
12/02/2020 15:58:26	120220	12022020	155826	89.18	12.419128	-56.989492	89.31	0.040	-0.970	2.430	89.18	-2.40	2.80	 	 	 	 	 	 	 	 	 	 	 	 	 	 	 	 	 	 	1581523106	0.85	1.57
12/02/2020 15:58:27	120220	12022020	155827	88.91	12.419130	-56.989488	89.05	0.370	-1.340	2.150	88.91	-2.70	2.50	 	 	 	 	 	 	 	 	 	 	 	 	 	 	 	 	 	 	1581523107	0.88	1.63
12/02/2020 15:58:28	120220	12022020	155828	89.09	12.419135	-56.989488	89.24	0.390	-0.740	1.370	89.09	-2.10	1.70	 	 	 	 	 	 	 	 	 	 	 	 	 	 	 	 	 	 	1581523108	0.93	1.72
12/02/2020 15:58:29	120220	12022020	155829	89.50	12.419140	-56.989493	89.73	0.060	0.280	0.410	89.59	-1.10	0.80	 	 	 	 	 	 	 	 	 	 	 	 	 	 	 	 	 	 	1581523109	1.57	2.91
12/02/2020 15:58:30	120220	12022020	155830	90.06	12.419145	-56.989498	90.16	-0.400	0.930	-0.190	90.06	-0.50	0.20	 	 	 	 	 	 	 	 	 	 	 	 	 	 	 	 	 	 	1581523110	1.48	2.74
12/02/2020 15:58:31	120220	12022020	155831	90.29	12.419147	-56.989500	90.40	-0.630	0.590	-0.350	90.32	-0.90	0.00	 	 	 	 	 	 	 	 	 	 	 	 	 	 	 	 	 	 	1581523111	0.50	0.93
12/02/2020 15:58:32	120220	12022020	155832	90.23	12.419143	-56.989497	90.29	-0.290	-0.650	-0.030	90.23	-2.10	0.40	 	 	 	 	 	 	 	 	 	 	 	 	 	 	 	 	 	 	1581523112	0.90	1.67
12/02/2020 15:58:33	120220	12022020	155833	89.68	12.419138	-56.989490	89.74	0.490	-1.940	0.800	89.68	-3.40	1.20	 	 	 	 	 	 	 	 	 	 	 	 	 	 	 	 	 	 	1581523113	1.87	3.46
12/02/2020 15:58:34	120220	12022020	155834	89.04	12.419133	-56.989483	89.10	1.150	-2.050	1.560	89.04	-3.40	2.00	 	 	 	 	 	 	 	 	 	 	 	 	 	 	 	 	 	 	1581523114	1.60	2.96
12/02/2020 15:58:35	120220	12022020	155835	88.79	12.419133	-56.989485	88.90	1.040	-0.560	1.750	88.79	-1.90	2.10	 	 	 	 	 	 	 	 	 	 	 	 	 	 	 	 	 	 	1581523115	0.13	0.24
12/02/2020 15:58:36	120220	12022020	155836	89.06	12.419137	-56.989492	89.18	0.120	1.490	1.410	89.06	0.10	1.80	 	 	 	 	 	 	 	 	 	 	 	 	 	 	 	 	 	 	1581523116	1.73	3.20
12/02/2020 15:58:37	120220	12022020	155837	89.66	12.419140	-56.989500	89.80	-1.070	2.570	0.900	89.66	1.10	1.30	 	 	 	 	 	 	 	 	 	 	 	 	 	 	 	 	 	 	1581523117	2.02	3.74
12/02/2020 15:58:38	120220	12022020	155838	90.24	12.419140	-56.989505	90.37	-1.740	1.930	0.590	90.24	0.40	1.00	 	 	 	 	 	 	 	 	 	 	 	 	 	 	 	 	 	 	1581523118	0.81	1.50
12/02/2020 15:58:39	120220	12022020	155839	90.48	12.419138	-56.989502	90.59	-1.410	0.030	0.640	90.48	-1.50	1.00	 	 	 	 	 	 	 	 	 	 	 	 	 	 	 	 	 	 	1581523119	0.88	1.63
12/02/2020 15:58:40	120220	12022020	155840	90.40	12.419133	-56.989495	90.50	-0.260	-1.950	0.880	90.40	-3.40	1.30	 	 	 	 	 	 	 	 	 	 	 	 	 	 	 	 	 	 	1581523120	1.71	3.17
12/02/2020 15:58:41	120220	12022020	155841	90.15	12.419130	-56.989488	90.24	1.020	-2.900	1.170	90.15	-4.30	1.60	 	 	 	 	 	 	 	 	 	 	 	 	 	 	 	 	 	 	1581523121	1.34	2.48
12/02/2020 15:58:42	120220	12022020	155842	89.86	12.419130	-56.989487	89.95	1.660	-2.410	1.480	89.86	-3.80	1.90	 	 	 	 	 	 	 	 	 	 	 	 	 	 	 	 	 	 	1581523122	0.36	0.67
12/02/2020 15:58:43	120220	12022020	155843	89.67	12.419132	-56.989490	89.72	1.290	-0.810	1.730	89.63	-2.20	2.10	 	 	 	 	 	 	 	 	 	 	 	 	 	 	 	 	 	 	1581523123	0.68	1.26
12/02/2020 15:58:44	120220	12022020	155844	89.51	12.419132	-56.989497	89.62	0.240	0.990	1.750	89.51	-0.40	2.10	 	 	 	 	 	 	 	 	 	 	 	 	 	 	 	 	 	 	1581523124	1.29	2.39
12/02/2020 15:58:45	120220	12022020	155845	89.54	12.419132	-56.989502	89.66	-0.770	2.060	1.470	89.54	0.60	1.80	 	 	 	 	 	 	 	 	 	 	 	 	 	 	 	 	 	 	1581523125	1.19	2.20
12/02/2020 15:58:46	120220	12022020	155846	89.73	12.419132	-56.989505	89.85	-1.120	1.860	1.050	89.73	0.40	1.40	 	 	 	 	 	 	 	 	 	 	 	 	 	 	 	 	 	 	1581523126	0.48	0.89
12/02/2020 15:58:47	120220	12022020	155847	89.95	12.419133	-56.989502	90.07	-0.730	0.630	0.630	89.95	-0.90	1.00	 	 	 	 	 	 	 	 	 	 	 	 	 	 	 	 	 	 	1581523127	0.56	1.04
12/02/2020 15:58:48	120220	12022020	155848	90.11	12.419135	-56.989497	90.23	-0.030	-0.780	0.210	90.11	-2.30	0.60	 	 	 	 	 	 	 	 	 	 	 	 	 	 	 	 	 	 	1581523128	1.15	2.13
12/02/2020 15:58:49	120220	12022020	155849	90.22	12.419137	-56.989493	90.32	0.410	-1.440	-0.040	90.22	-2.90	0.40	 	 	 	 	 	 	 	 	 	 	 	 	 	 	 	 	 	 	1581523129	0.85	1.57
12/02/2020 15:58:50	120220	12022020	155850	90.19	12.419138	-56.989493	90.29	0.430	-1.170	0.120	90.19	-2.60	0.50	 	 	 	 	 	 	 	 	 	 	 	 	 	 	 	 	 	 	1581523130	0.17	0.31
12/02/2020 15:58:51	120220	12022020	155851	89.96	12.419137	-56.989497	90.05	0.240	-0.530	0.670	89.96	-1.90	1.10	 	 	 	 	 	 	 	 	 	 	 	 	 	 	 	 	 	 	1581523131	0.78	1.44
12/02/2020 15:58:52	120220	12022020	155852	89.70	12.419135	-56.989500	89.81	0.050	-0.150	1.300	89.70	-1.60	1.70	 	 	 	 	 	 	 	 	 	 	 	 	 	 	 	 	 	 	1581523132	0.69	1.28
12/02/2020 15:58:53	120220	12022020	155853	89.62	12.419132	-56.989500	89.74	-0.070	-0.190	1.880	89.61	-1.60	2.30	 	 	 	 	 	 	 	 	 	 	 	 	 	 	 	 	 	 	1581523133	0.58	1.07
12/02/2020 15:58:54	120220	12022020	155854	89.57	12.419128	-56.989498	89.70	-0.060	-0.410	2.310	89.57	-1.90	2.70	 	 	 	 	 	 	 	 	 	 	 	 	 	 	 	 	 	 	1581523134	0.99	1.83
12/02/2020 15:58:55	120220	12022020	155855	89.44	12.419123	-56.989497	89.51	0.120	-0.480	2.590	89.39	-1.90	3.00	 	 	 	 	 	 	 	 	 	 	 	 	 	 	 	 	 	 	1581523135	0.98	1.81
12/02/2020 15:58:56	120220	12022020	155856	89.13	12.419123	-56.989495	89.27	0.400	-0.250	2.380	89.13	-1.70	2.70	 	 	 	 	 	 	 	 	 	 	 	 	 	 	 	 	 	 	1581523136	0.31	0.57
12/02/2020 15:58:57	120220	12022020	155857	89.31	12.419128	-56.989495	89.45	0.490	0.200	1.410	89.31	-1.20	1.70	 	 	 	 	 	 	 	 	 	 	 	 	 	 	 	 	 	 	1581523137	0.97	1.80
12/02/2020 15:58:58	120220	12022020	155858	90.01	12.419135	-56.989498	90.15	0.120	0.690	0.210	90.01	-0.70	0.60	 	 	 	 	 	 	 	 	 	 	 	 	 	 	 	 	 	 	1581523138	1.64	3.04
12/02/2020 15:58:59	120220	12022020	155859	90.61	12.419140	-56.989500	90.71	-0.530	0.800	-0.350	90.61	-0.70	0.00	 	 	 	 	 	 	 	 	 	 	 	 	 	 	 	 	 	 	1581523139	1.04	1.93
12/02/2020 15:59:00	120220	12022020	155900	90.51	12.419137	-56.989502	90.56	-0.910	0.410	0.030	90.51	-1.00	0.40	 	 	 	 	 	 	 	 	 	 	 	 	 	 	 	 	 	 	1581523140	0.58	1.07
12/02/2020 15:59:01	120220	12022020	155901	89.89	12.419132	-56.989502	89.94	-0.560	-0.190	0.730	89.89	-1.60	1.10	 	 	 	 	 	 	 	 	 	 	 	 	 	 	 	 	 	 	1581523141	1.26	2.33
12/02/2020 15:59:02	120220	12022020	155902	89.33	12.419128	-56.989500	89.40	0.270	-0.840	1.060	89.33	-2.30	1.40	1016.60	26.70	26.70	20.10	20.20	686.0	67.0	67.0	433.0	29.2	354.00	10.70	83.00	10.20	55613	9887.0	27.5	27.5	1581523142	0.59	1.09
12/02/2020 15:59:03	120220	12022020	155903	89.08	12.419132	-56.989498	89.16	0.860	-1.360	1.140	89.08	-2.80	1.50	 	 	 	 	 	 	 	 	 	 	 	 	 	 	 	 	 	 	1581523143	0.62	1.15
12/02/2020 15:59:04	120220	12022020	155904	89.17	12.419133	-56.989497	89.28	0.780	-1.470	1.270	89.17	-2.90	1.70	 	 	 	 	 	 	 	 	 	 	 	 	 	 	 	 	 	 	1581523144	0.69	1.28
12/02/2020 15:59:05	120220	12022020	155905	89.46	12.419133	-56.989497	89.59	0.310	-1.110	1.530	89.46	-2.50	1.90	 	 	 	 	 	 	 	 	 	 	 	 	 	 	 	 	 	 	1581523145	0.16	0.30
12/02/2020 15:59:06	120220	12022020	155906	89.78	12.419128	-56.989497	89.91	-0.020	-0.390	1.800	89.78	-1.80	2.20	 	 	 	 	 	 	 	 	 	 	 	 	 	 	 	 	 	 	1581523146	0.86	1.59
12/02/2020 15:59:07	120220	12022020	155907	89.98	12.419125	-56.989498	90.12	0.010	0.440	1.880	90.01	-0.90	2.20	 	 	 	 	 	 	 	 	 	 	 	 	 	 	 	 	 	 	1581523147	1.00	1.85
12/02/2020 15:59:08	120220	12022020	155908	90.09	12.419123	-56.989498	90.20	0.130	1.060	1.720	90.09	-0.30	2.10	 	 	 	 	 	 	 	 	 	 	 	 	 	 	 	 	 	 	1581523148	0.51	0.94
12/02/2020 15:59:09	120220	12022020	155909	90.07	12.419123	-56.989500	90.16	0.010	1.240	1.460	90.07	-0.20	1.80	 	 	 	 	 	 	 	 	 	 	 	 	 	 	 	 	 	 	1581523149	0.28	0.52
12/02/2020 15:59:10	120220	12022020	155910	89.94	12.419127	-56.989500	90.02	-0.370	0.870	1.190	89.94	-0.60	1.60	 	 	 	 	 	 	 	 	 	 	 	 	 	 	 	 	 	 	1581523150	0.59	1.09
12/02/2020 15:59:11	120220	12022020	155911	89.73	12.419128	-56.989500	89.81	-0.760	0.130	0.910	89.73	-1.30	1.30	 	 	 	 	 	 	 	 	 	 	 	 	 	 	 	 	 	 	1581523151	0.56	1.04
12/02/2020 15:59:12	120220	12022020	155912	89.62	12.419130	-56.989498	89.71	-0.850	-0.580	0.670	89.62	-2.00	1.10	 	 	 	 	 	 	 	 	 	 	 	 	 	 	 	 	 	 	1581523152	0.35	0.65
12/02/2020 15:59:13	120220	12022020	155913	89.76	12.419130	-56.989498	89.87	-0.440	-1.160	0.420	89.76	-2.60	0.80	 	 	 	 	 	 	 	 	 	 	 	 	 	 	 	 	 	 	1581523153	0.13	0.24
12/02/2020 15:59:14	120220	12022020	155914	89.93	12.419130	-56.989497	90.02	0.380	-1.710	0.270	89.93	-3.10	0.60	 	 	 	 	 	 	 	 	 	 	 	 	 	 	 	 	 	 	1581523154	0.32	0.59
12/02/2020 15:59:15	120220	12022020	155915	89.89	12.419130	-56.989493	89.96	1.120	-1.870	0.350	89.89	-3.20	0.70	 	 	 	 	 	 	 	 	 	 	 	 	 	 	 	 	 	 	1581523155	0.64	1.19
12/02/2020 15:59:16	120220	12022020	155916	89.67	12.419130	-56.989492	89.74	1.200	-1.060	0.600	89.67	-2.40	1.00	 	 	 	 	 	 	 	 	 	 	 	 	 	 	 	 	 	 	1581523156	0.35	0.65
12/02/2020 15:59:17	120220	12022020	155917	89.48	12.419130	-56.989495	89.57	0.480	0.520	0.910	89.48	-0.80	1.30	 	 	 	 	 	 	 	 	 	 	 	 	 	 	 	 	 	 	1581523157	0.65	1.20
12/02/2020 15:59:18	120220	12022020	155918	89.54	12.419130	-56.989500	89.65	-0.460	1.790	1.140	89.54	0.40	1.50	 	 	 	 	 	 	 	 	 	 	 	 	 	 	 	 	 	 	1581523158	1.25	2.31
12/02/2020 15:59:19	120220	12022020	155919	89.74	12.419128	-56.989503	89.91	-0.900	1.730	1.170	89.78	0.30	1.50	 	 	 	 	 	 	 	 	 	 	 	 	 	 	 	 	 	 	1581523159	0.69	1.28
12/02/2020 15:59:20	120220	12022020	155920	89.93	12.419128	-56.989500	90.06	-0.650	0.500	1.220	89.93	-0.90	1.60	 	 	 	 	 	 	 	 	 	 	 	 	 	 	 	 	 	 	1581523160	0.63	1.17
12/02/2020 15:59:21	120220	12022020	155921	89.95	12.419127	-56.989495	90.09	-0.160	-0.760	1.420	89.95	-2.20	1.80	 	 	 	 	 	 	 	 	 	 	 	 	 	 	 	 	 	 	1581523161	1.24	2.30
12/02/2020 15:59:22	120220	12022020	155922	89.99	12.419123	-56.989492	90.14	0.080	-1.200	1.600	89.99	-2.60	2.00	 	 	 	 	 	 	 	 	 	 	 	 	 	 	 	 	 	 	1581523162	0.83	1.54
12/02/2020 15:59:23	120220	12022020	155923	90.03	12.419122	-56.989493	90.16	0.010	-0.910	1.600	90.03	-2.30	2.00	 	 	 	 	 	 	 	 	 	 	 	 	 	 	 	 	 	 	1581523163	0.43	0.80
12/02/2020 15:59:24	120220	12022020	155924	89.91	12.419123	-56.989495	90.03	-0.080	-0.570	1.470	89.91	-1.90	1.80	 	 	 	 	 	 	 	 	 	 	 	 	 	 	 	 	 	 	1581523164	0.55	1.02
12/02/2020 15:59:25	120220	12022020	155925	89.64	12.419123	-56.989497	89.75	0.110	-0.510	1.370	89.64	-1.90	1.80	 	 	 	 	 	 	 	 	 	 	 	 	 	 	 	 	 	 	1581523165	0.37	0.69
12/02/2020 15:59:26	120220	12022020	155926	89.40	12.419127	-56.989495	89.52	0.400	-0.450	1.290	89.40	-1.80	1.70	 	 	 	 	 	 	 	 	 	 	 	 	 	 	 	 	 	 	1581523166	0.52	0.96
12/02/2020 15:59:27	120220	12022020	155927	89.35	12.419128	-56.989493	89.46	0.420	-0.120	0.980	89.35	-1.50	1.40	 	 	 	 	 	 	 	 	 	 	 	 	 	 	 	 	 	 	1581523167	0.58	1.07
12/02/2020 15:59:28	120220	12022020	155928	89.56	12.419133	-56.989495	89.67	0.110	0.280	0.390	89.56	-1.10	0.80	 	 	 	 	 	 	 	 	 	 	 	 	 	 	 	 	 	 	1581523168	0.84	1.56
12/02/2020 15:59:29	120220	12022020	155929	90.00	12.419135	-56.989497	90.11	-0.260	0.430	-0.150	90.00	-1.00	0.20	 	 	 	 	 	 	 	 	 	 	 	 	 	 	 	 	 	 	1581523169	0.72	1.33
12/02/2020 15:59:30	120220	12022020	155930	90.44	12.419135	-56.989495	90.53	-0.350	0.240	-0.270	90.44	-1.20	0.10	 	 	 	 	 	 	 	 	 	 	 	 	 	 	 	 	 	 	1581523170	0.03	0.06
12/02/2020 15:59:31	120220	12022020	155931	90.52	12.419133	-56.989493	90.59	-0.060	-0.310	0.110	90.52	-1.70	0.50	 	 	 	 	 	 	 	 	 	 	 	 	 	 	 	 	 	 	1581523171	0.76	1.41
12/02/2020 15:59:32	120220	12022020	155932	90.16	12.419130	-56.989490	90.22	0.320	-0.730	0.820	90.16	-2.10	1.20	 	 	 	 	 	 	 	 	 	 	 	 	 	 	 	 	 	 	1581523172	0.98	1.81
12/02/2020 15:59:33	120220	12022020	155933	89.79	12.419128	-56.989490	89.81	0.310	-0.430	1.480	89.73	-1.80	1.90	 	 	 	 	 	 	 	 	 	 	 	 	 	 	 	 	 	 	1581523173	0.37	0.69
12/02/2020 15:59:34	120220	12022020	155934	89.69	12.419128	-56.989493	89.81	-0.240	0.360	1.860	89.69	-1.00	2.30	 	 	 	 	 	 	 	 	 	 	 	 	 	 	 	 	 	 	1581523174	0.71	1.31
12/02/2020 15:59:35	120220	12022020	155935	90.13	12.419127	-56.989498	90.27	-0.870	0.820	1.890	90.13	-0.60	2.30	 	 	 	 	 	 	 	 	 	 	 	 	 	 	 	 	 	 	1581523175	1.10	2.04
12/02/2020 15:59:36	120220	12022020	155936	90.68	12.419125	-56.989500	90.80	-0.940	0.320	1.730	90.68	-1.10	2.10	 	 	 	 	 	 	 	 	 	 	 	 	 	 	 	 	 	 	1581523176	0.65	1.20
12/02/2020 15:59:37	120220	12022020	155937	90.94	12.419123	-56.989497	91.05	-0.150	-1.130	1.600	90.94	-2.60	2.00	 	 	 	 	 	 	 	 	 	 	 	 	 	 	 	 	 	 	1581523177	0.80	1.48
12/02/2020 15:59:38	120220	12022020	155938	90.78	12.419122	-56.989490	90.86	1.000	-2.370	1.680	90.78	-3.80	2.10	 	 	 	 	 	 	 	 	 	 	 	 	 	 	 	 	 	 	1581523178	1.68	3.11
12/02/2020 15:59:39	120220	12022020	155939	90.43	12.419123	-56.989485	90.52	1.480	-1.870	1.780	90.43	-3.20	2.20	 	 	 	 	 	 	 	 	 	 	 	 	 	 	 	 	 	 	1581523179	1.09	2.02
12/02/2020 15:59:40	120220	12022020	155940	90.37	12.419125	-56.989488	90.48	0.820	0.230	1.600	90.37	-1.10	2.00	 	 	 	 	 	 	 	 	 	 	 	 	 	 	 	 	 	 	1581523180	1.03	1.91
12/02/2020 15:59:41	120220	12022020	155941	90.64	12.419128	-56.989498	90.75	-0.420	2.180	1.210	90.64	0.90	1.60	 	 	 	 	 	 	 	 	 	 	 	 	 	 	 	 	 	 	1581523181	2.30	4.26
12/02/2020 15:59:42	120220	12022020	155942	90.96	12.419130	-56.989507	91.05	-1.270	2.490	0.840	90.96	1.10	1.20	 	 	 	 	 	 	 	 	 	 	 	 	 	 	 	 	 	 	1581523182	1.69	3.13
12/02/2020 15:59:43	120220	12022020	155943	91.15	12.419132	-56.989507	91.28	-1.180	1.040	0.520	91.19	-0.40	0.90	 	 	 	 	 	 	 	 	 	 	 	 	 	 	 	 	 	 	1581523183	0.18	0.33
12/02/2020 15:59:44	120220	12022020	155944	91.27	12.419132	-56.989500	91.35	-0.400	-1.040	0.410	91.27	-2.50	0.80	 	 	 	 	 	 	 	 	 	 	 	 	 	 	 	 	 	 	1581523184	1.29	2.39
12/02/2020 15:59:45	120220	12022020	155945	91.17	12.419130	-56.989493	91.21	0.410	-2.410	0.630	91.13	-3.80	1.00	 	 	 	 	 	 	 	 	 	 	 	 	 	 	 	 	 	 	1581523185	1.39	2.57
12/02/2020 15:59:46	120220	12022020	155946	90.99	12.419128	-56.989492	91.08	0.700	-2.240	1.070	90.99	-3.60	1.50	 	 	 	 	 	 	 	 	 	 	 	 	 	 	 	 	 	 	1581523186	0.60	1.11
12/02/2020 15:59:47	120220	12022020	155947	90.99	12.419125	-56.989497	91.09	0.460	-0.860	1.540	90.99	-2.20	1.90	 	 	 	 	 	 	 	 	 	 	 	 	 	 	 	 	 	 	1581523187	1.13	2.09
12/02/2020 15:59:48	120220	12022020	155948	91.03	12.419123	-56.989503	91.13	0.100	0.500	1.780	91.03	-0.90	2.20	 	 	 	 	 	 	 	 	 	 	 	 	 	 	 	 	 	 	1581523188	1.58	2.93
12/02/2020 15:59:49	120220	12022020	155949	90.90	12.419123	-56.989507	90.99	-0.050	0.890	1.650	90.90	-0.50	2.00	 	 	 	 	 	 	 	 	 	 	 	 	 	 	 	 	 	 	1581523189	0.83	1.54
12/02/2020 15:59:50	120220	12022020	155950	90.76	12.419127	-56.989505	90.86	-0.010	0.450	1.260	90.76	-0.90	1.60	 	 	 	 	 	 	 	 	 	 	 	 	 	 	 	 	 	 	1581523190	0.69	1.28
12/02/2020 15:59:51	120220	12022020	155951	90.87	12.419130	-56.989503	90.97	0.010	0.040	0.820	90.87	-1.30	1.20	 	 	 	 	 	 	 	 	 	 	 	 	 	 	 	 	 	 	1581523191	0.98	1.81
12/02/2020 15:59:52	120220	12022020	155952	91.14	12.419133	-56.989503	91.24	-0.050	-0.030	0.440	91.14	-1.40	0.80	 	 	 	 	 	 	 	 	 	 	 	 	 	 	 	 	 	 	1581523192	0.64	1.19
12/02/2020 15:59:53	120220	12022020	155953	91.37	12.419135	-56.989503	91.46	-0.080	-0.150	0.190	91.37	-1.50	0.60	 	 	 	 	 	 	 	 	 	 	 	 	 	 	 	 	 	 	1581523193	0.46	0.85
12/02/2020 15:59:54	120220	12022020	155954	91.49	12.419135	-56.989503	91.57	-0.010	-0.410	0.270	91.49	-1.80	0.70	 	 	 	 	 	 	 	 	 	 	 	 	 	 	 	 	 	 	1581523194	0.00	0.00
12/02/2020 15:59:55	120220	12022020	155955	91.47	12.419132	-56.989503	91.55	-0.040	-0.360	0.740	91.47	-1.70	1.10	 	 	 	 	 	 	 	 	 	 	 	 	 	 	 	 	 	 	1581523195	0.54	1.00
12/02/2020 15:59:56	120220	12022020	155956	91.34	12.419128	-56.989507	91.42	-0.250	0.040	1.400	91.34	-1.30	1.80	 	 	 	 	 	 	 	 	 	 	 	 	 	 	 	 	 	 	1581523196	1.10	2.04
12/02/2020 15:59:57	120220	12022020	155957	91.12	12.419123	-56.989510	91.14	-0.380	0.020	1.930	91.06	-1.40	2.30	 	 	 	 	 	 	 	 	 	 	 	 	 	 	 	 	 	 	1581523197	1.10	2.04
12/02/2020 15:59:58	120220	12022020	155958	90.70	12.419122	-56.989508	90.79	-0.100	-0.830	2.130	90.70	-2.20	2.50	 	 	 	 	 	 	 	 	 	 	 	 	 	 	 	 	 	 	1581523198	0.50	0.93
12/02/2020 15:59:59	120220	12022020	155959	90.51	12.419122	-56.989503	90.61	0.480	-1.590	1.890	90.51	-3.00	2.30	 	 	 	 	 	 	 	 	 	 	 	 	 	 	 	 	 	 	1581523199	1.19	2.20
12/02/2020 16:00:00	120220	12022020	160000	90.61	12.419127	-56.989500	90.71	0.840	-1.120	1.340	90.61	-2.40	1.70	 	 	 	 	 	 	 	 	 	 	 	 	 	 	 	 	 	 	1581523200	1.01	1.87
12/02/2020 16:00:01	120220	12022020	160001	90.96	12.419132	-56.989503	91.07	0.670	0.330	0.600	90.96	-1.00	1.00	 	 	 	 	 	 	 	 	 	 	 	 	 	 	 	 	 	 	1581523201	1.31	2.43
12/02/2020 16:00:02	120220	12022020	160002	91.37	12.419137	-56.989510	91.46	0.080	1.500	-0.090	91.37	0.10	0.30	1016.70	26.60	26.70	20.10	20.20	818.0	67.0	67.0	432.0	29.2	356.00	10.80	86.00	10.40	62761	11658.0	27.5	27.5	1581523202	1.81	3.35
12/02/2020 16:00:03	120220	12022020	160003	91.53	12.419140	-56.989513	91.59	-0.520	1.580	-0.360	91.53	0.20	0.00	 	 	 	 	 	 	 	 	 	 	 	 	 	 	 	 	 	 	1581523203	1.11	2.06
12/02/2020 16:00:04	120220	12022020	160004	91.38	12.419140	-56.989513	91.45	-0.860	0.670	-0.020	91.38	-0.70	0.40	 	 	 	 	 	 	 	 	 	 	 	 	 	 	 	 	 	 	1581523204	0.16	0.30
12/02/2020 16:00:05	120220	12022020	160005	91.08	12.419135	-56.989510	91.15	-0.820	-0.620	0.800	91.08	-2.00	1.20	 	 	 	 	 	 	 	 	 	 	 	 	 	 	 	 	 	 	1581523205	1.20	2.22
12/02/2020 16:00:06	120220	12022020	160006	90.74	12.419128	-56.989507	90.83	-0.380	-1.720	1.720	90.74	-3.10	2.10	 	 	 	 	 	 	 	 	 	 	 	 	 	 	 	 	 	 	1581523206	1.64	3.04
12/02/2020 16:00:07	120220	12022020	160007	90.46	12.419123	-56.989503	90.57	0.230	-2.140	2.320	90.46	-3.50	2.70	 	 	 	 	 	 	 	 	 	 	 	 	 	 	 	 	 	 	1581523207	1.40	2.59
12/02/2020 16:00:08	120220	12022020	160008	90.32	12.419120	-56.989502	90.44	0.650	-1.570	2.360	90.32	-2.90	2.70	 	 	 	 	 	 	 	 	 	 	 	 	 	 	 	 	 	 	1581523208	0.55	1.02
12/02/2020 16:00:09	120220	12022020	160009	90.36	12.419122	-56.989503	90.49	0.670	-0.320	1.880	90.38	-1.60	2.20	 	 	 	 	 	 	 	 	 	 	 	 	 	 	 	 	 	 	1581523209	0.59	1.09
12/02/2020 16:00:10	120220	12022020	160010	90.60	12.419127	-56.989508	90.70	0.380	0.900	1.030	90.60	-0.40	1.40	 	 	 	 	 	 	 	 	 	 	 	 	 	 	 	 	 	 	1581523210	1.38	2.56
12/02/2020 16:00:11	120220	12022020	160011	90.86	12.419133	-56.989512	91.01	0.010	1.580	0.100	90.93	0.20	0.50	 	 	 	 	 	 	 	 	 	 	 	 	 	 	 	 	 	 	1581523211	1.58	2.93
12/02/2020 16:00:12	120220	12022020	160012	91.18	12.419138	-56.989513	91.23	-0.220	1.420	-0.560	91.18	0.00	-0.20	 	 	 	 	 	 	 	 	 	 	 	 	 	 	 	 	 	 	1581523212	1.20	2.22
12/02/2020 16:00:13	120220	12022020	160013	91.13	12.419142	-56.989512	91.17	-0.260	0.410	-0.670	91.13	-1.00	-0.30	 	 	 	 	 	 	 	 	 	 	 	 	 	 	 	 	 	 	1581523213	0.61	1.13
12/02/2020 16:00:14	120220	12022020	160014	90.74	12.419140	-56.989507	90.76	-0.180	-0.950	-0.200	90.74	-2.40	0.20	 	 	 	 	 	 	 	 	 	 	 	 	 	 	 	 	 	 	1581523214	0.92	1.70
12/02/2020 16:00:15	120220	12022020	160015	90.23	12.419138	-56.989502	90.27	-0.060	-1.890	0.600	90.23	-3.30	1.00	 	 	 	 	 	 	 	 	 	 	 	 	 	 	 	 	 	 	1581523215	1.16	2.15
12/02/2020 16:00:16	120220	12022020	160016	89.95	12.419133	-56.989500	90.03	-0.020	-1.760	1.420	89.95	-3.10	1.80	 	 	 	 	 	 	 	 	 	 	 	 	 	 	 	 	 	 	1581523216	0.94	1.74
12/02/2020 16:00:17	120220	12022020	160017	90.14	12.419130	-56.989502	90.26	-0.120	-0.710	1.910	90.14	-2.00	2.30	 	 	 	 	 	 	 	 	 	 	 	 	 	 	 	 	 	 	1581523217	1.04	1.93
12/02/2020 16:00:18	120220	12022020	160018	90.60	12.419127	-56.989505	90.74	-0.160	0.320	1.910	90.60	-1.00	2.30	 	 	 	 	 	 	 	 	 	 	 	 	 	 	 	 	 	 	1581523218	1.16	2.15
12/02/2020 16:00:19	120220	12022020	160019	90.93	12.419125	-56.989507	91.05	0.050	0.510	1.600	90.93	-0.90	1.90	 	 	 	 	 	 	 	 	 	 	 	 	 	 	 	 	 	 	1581523219	0.37	0.69
12/02/2020 16:00:20	120220	12022020	160020	90.99	12.419127	-56.989503	91.09	0.400	0.140	1.250	90.99	-1.20	1.60	 	 	 	 	 	 	 	 	 	 	 	 	 	 	 	 	 	 	1581523220	0.70	1.30
12/02/2020 16:00:21	120220	12022020	160021	90.91	12.419128	-56.989500	90.98	0.480	0.030	1.010	90.89	-1.30	1.40	 	 	 	 	 	 	 	 	 	 	 	 	 	 	 	 	 	 	1581523221	0.87	1.61
12/02/2020 16:00:22	120220	12022020	160022	90.76	12.419130	-56.989500	90.85	0.170	0.410	0.790	90.76	-0.90	1.20	 	 	 	 	 	 	 	 	 	 	 	 	 	 	 	 	 	 	1581523222	0.43	0.80
12/02/2020 16:00:23	120220	12022020	160023	90.65	12.419133	-56.989502	90.69	-0.280	0.680	0.630	90.61	-0.70	1.00	 	 	 	 	 	 	 	 	 	 	 	 	 	 	 	 	 	 	1581523223	0.70	1.30
12/02/2020 16:00:24	120220	12022020	160024	90.49	12.419135	-56.989503	90.57	-0.540	0.280	0.610	90.49	-1.10	1.00	 	 	 	 	 	 	 	 	 	 	 	 	 	 	 	 	 	 	1581523224	0.54	1.00
12/02/2020 16:00:25	120220	12022020	160025	90.57	12.419137	-56.989500	90.66	-0.550	-0.580	0.610	90.57	-2.00	1.00	 	 	 	 	 	 	 	 	 	 	 	 	 	 	 	 	 	 	1581523225	0.54	1.00
12/02/2020 16:00:26	120220	12022020	160026	90.69	12.419135	-56.989497	90.77	-0.290	-1.350	0.610	90.69	-2.70	1.00	 	 	 	 	 	 	 	 	 	 	 	 	 	 	 	 	 	 	1581523226	0.75	1.39
12/02/2020 16:00:27	120220	12022020	160027	90.58	12.419133	-56.989493	90.65	0.170	-1.740	0.790	90.58	-3.10	1.20	 	 	 	 	 	 	 	 	 	 	 	 	 	 	 	 	 	 	1581523227	0.86	1.59
12/02/2020 16:00:28	120220	12022020	160028	90.37	12.419132	-56.989492	90.45	0.620	-1.490	1.080	90.37	-2.80	1.50	 	 	 	 	 	 	 	 	 	 	 	 	 	 	 	 	 	 	1581523228	0.84	1.56
12/02/2020 16:00:29	120220	12022020	160029	90.32	12.419130	-56.989490	90.42	0.720	-0.450	1.340	90.32	-1.80	1.70	 	 	 	 	 	 	 	 	 	 	 	 	 	 	 	 	 	 	1581523229	0.40	0.74
12/02/2020 16:00:30	120220	12022020	160030	90.51	12.419128	-56.989493	90.62	0.320	0.850	1.410	90.51	-0.50	1.80	 	 	 	 	 	 	 	 	 	 	 	 	 	 	 	 	 	 	1581523230	0.57	1.06
12/02/2020 16:00:31	120220	12022020	160031	90.70	12.419128	-56.989497	90.78	-0.290	1.580	1.190	90.70	0.20	1.60	 	 	 	 	 	 	 	 	 	 	 	 	 	 	 	 	 	 	1581523231	0.62	1.15
12/02/2020 16:00:32	120220	12022020	160032	90.58	12.419130	-56.989497	90.63	-0.620	1.390	0.810	90.58	0.00	1.20	 	 	 	 	 	 	 	 	 	 	 	 	 	 	 	 	 	 	1581523232	0.34	0.63
12/02/2020 16:00:33	120220	12022020	160033	90.35	12.419133	-56.989493	90.35	-0.510	0.610	0.440	90.30	-0.80	0.80	 	 	 	 	 	 	 	 	 	 	 	 	 	 	 	 	 	 	1581523233	0.79	1.46
12/02/2020 16:00:34	120220	12022020	160034	90.21	12.419137	-56.989492	90.28	-0.200	-0.270	0.250	90.21	-1.60	0.70	 	 	 	 	 	 	 	 	 	 	 	 	 	 	 	 	 	 	1581523234	0.98	1.81
12/02/2020 16:00:35	120220	12022020	160035	90.39	12.419138	-56.989488	90.47	0.010	-0.980	0.280	90.39	-2.40	0.70	 	 	 	 	 	 	 	 	 	 	 	 	 	 	 	 	 	 	1581523235	0.62	1.15
12/02/2020 16:00:36	120220	12022020	160036	90.62	12.419138	-56.989487	90.69	0.070	-1.500	0.430	90.62	-2.90	0.80	 	 	 	 	 	 	 	 	 	 	 	 	 	 	 	 	 	 	1581523236	0.37	0.69
12/02/2020 16:00:37	120220	12022020	160037	90.58	12.419135	-56.989485	90.65	0.160	-1.750	0.850	90.58	-3.10	1.30	 	 	 	 	 	 	 	 	 	 	 	 	 	 	 	 	 	 	1581523237	0.80	1.48
12/02/2020 16:00:38	120220	12022020	160038	90.30	12.419130	-56.989483	90.38	0.290	-1.480	1.510	90.30	-2.80	1.90	 	 	 	 	 	 	 	 	 	 	 	 	 	 	 	 	 	 	1581523238	1.14	2.11
12/02/2020 16:00:39	120220	12022020	160039	89.97	12.419125	-56.989482	90.06	0.320	-0.600	2.120	89.97	-1.90	2.50	 	 	 	 	 	 	 	 	 	 	 	 	 	 	 	 	 	 	1581523239	1.06	1.96
12/02/2020 16:00:40	120220	12022020	160040	89.69	12.419123	-56.989483	89.80	0.180	0.620	2.270	89.69	-0.70	2.70	 	 	 	 	 	 	 	 	 	 	 	 	 	 	 	 	 	 	1581523240	0.68	1.26
12/02/2020 16:00:41	120220	12022020	160041	89.63	12.419123	-56.989487	89.74	-0.070	1.580	1.780	89.63	0.20	2.10	 	 	 	 	 	 	 	 	 	 	 	 	 	 	 	 	 	 	1581523241	0.68	1.26
12/02/2020 16:00:42	120220	12022020	160042	89.82	12.419130	-56.989488	89.91	-0.290	1.700	0.730	89.82	0.30	1.10	 	 	 	 	 	 	 	 	 	 	 	 	 	 	 	 	 	 	1581523242	1.32	2.44
12/02/2020 16:00:43	120220	12022020	160043	90.10	12.419138	-56.989487	90.18	-0.270	0.750	-0.450	90.10	-0.60	-0.10	 	 	 	 	 	 	 	 	 	 	 	 	 	 	 	 	 	 	1581523243	1.82	3.37
12/02/2020 16:00:44	120220	12022020	160044	90.35	12.419145	-56.989482	90.41	-0.020	-0.710	-1.290	90.35	-2.10	-0.90	 	 	 	 	 	 	 	 	 	 	 	 	 	 	 	 	 	 	1581523244	1.87	3.46
12/02/2020 16:00:45	120220	12022020	160045	90.51	12.419148	-56.989477	90.57	0.220	-1.770	-1.460	90.51	-3.10	-1.00	 	 	 	 	 	 	 	 	 	 	 	 	 	 	 	 	 	 	1581523245	1.38	2.56
12/02/2020 16:00:46	120220	12022020	160046	90.42	12.419147	-56.989473	90.47	0.190	-1.860	-0.690	90.42	-3.20	-0.20	 	 	 	 	 	 	 	 	 	 	 	 	 	 	 	 	 	 	1581523246	0.77	1.43
12/02/2020 16:00:47	120220	12022020	160047	90.13	12.419140	-56.989475	90.12	-0.110	-1.050	0.670	90.05	-2.40	1.10	 	 	 	 	 	 	 	 	 	 	 	 	 	 	 	 	 	 	1581523247	1.60	2.96
12/02/2020 16:00:48	120220	12022020	160048	89.65	12.419130	-56.989478	89.75	-0.460	0.120	1.860	89.65	-1.20	2.30	 	 	 	 	 	 	 	 	 	 	 	 	 	 	 	 	 	 	1581523248	2.06	3.82
12/02/2020 16:00:49	120220	12022020	160049	89.43	12.419123	-56.989482	89.55	-0.530	0.890	2.450	89.43	-0.50	2.90	 	 	 	 	 	 	 	 	 	 	 	 	 	 	 	 	 	 	1581523249	1.56	2.89
12/02/2020 16:00:50	120220	12022020	160050	89.43	12.419122	-56.989483	89.55	-0.170	0.730	2.430	89.43	-0.60	2.80	 	 	 	 	 	 	 	 	 	 	 	 	 	 	 	 	 	 	1581523250	0.43	0.80
12/02/2020 16:00:51	120220	12022020	160051	89.58	12.419125	-56.989478	89.69	0.410	-0.130	1.970	89.58	-1.50	2.30	 	 	 	 	 	 	 	 	 	 	 	 	 	 	 	 	 	 	1581523251	0.94	1.74
12/02/2020 16:00:52	120220	12022020	160052	89.78	12.419130	-56.989473	89.87	0.760	-0.870	1.280	89.78	-2.20	1.70	 	 	 	 	 	 	 	 	 	 	 	 	 	 	 	 	 	 	1581523252	1.59	2.94
12/02/2020 16:00:53	120220	12022020	160053	89.89	12.419135	-56.989470	89.96	0.670	-0.800	0.630	89.89	-2.10	1.00	 	 	 	 	 	 	 	 	 	 	 	 	 	 	 	 	 	 	1581523253	1.43	2.65
12/02/2020 16:00:54	120220	12022020	160054	89.90	12.419140	-56.989472	89.96	0.220	-0.030	0.300	89.90	-1.30	0.70	 	 	 	 	 	 	 	 	 	 	 	 	 	 	 	 	 	 	1581523254	0.96	1.78
12/02/2020 16:00:55	120220	12022020	160055	89.82	12.419142	-56.989477	89.89	-0.330	0.690	0.320	89.82	-0.60	0.70	 	 	 	 	 	 	 	 	 	 	 	 	 	 	 	 	 	 	1581523255	0.89	1.65
12/02/2020 16:00:56	120220	12022020	160056	89.78	12.419140	-56.989478	89.85	-0.650	0.680	0.480	89.78	-0.70	0.90	 	 	 	 	 	 	 	 	 	 	 	 	 	 	 	 	 	 	1581523256	0.53	0.98
12/02/2020 16:00:57	120220	12022020	160057	89.82	12.419140	-56.989478	89.90	-0.630	-0.090	0.580	89.82	-1.50	1.00	 	 	 	 	 	 	 	 	 	 	 	 	 	 	 	 	 	 	1581523257	0.32	0.59
12/02/2020 16:00:58	120220	12022020	160058	89.85	12.419138	-56.989473	89.92	-0.350	-1.090	0.820	89.85	-2.50	1.20	 	 	 	 	 	 	 	 	 	 	 	 	 	 	 	 	 	 	1581523258	0.98	1.81
12/02/2020 16:00:59	120220	12022020	160059	89.79	12.419133	-56.989468	89.86	0.010	-1.550	1.310	89.78	-2.90	1.70	 	 	 	 	 	 	 	 	 	 	 	 	 	 	 	 	 	 	1581523259	1.28	2.37
12/02/2020 16:01:00	120220	12022020	160100	89.64	12.419128	-56.989467	89.72	0.370	-1.140	1.700	89.64	-2.40	2.10	 	 	 	 	 	 	 	 	 	 	 	 	 	 	 	 	 	 	1581523260	1.05	1.94
12/02/2020 16:01:01	120220	12022020	160101	89.44	12.419128	-56.989468	89.51	0.630	-0.240	1.600	89.44	-1.50	2.00	 	 	 	 	 	 	 	 	 	 	 	 	 	 	 	 	 	 	1581523261	0.32	0.59
12/02/2020 16:01:02	120220	12022020	160102	89.32	12.419133	-56.989472	89.40	0.580	0.710	1.070	89.32	-0.60	1.40	1016.70	26.60	26.70	20.30	20.30	684.0	68.0	68.0	434.0	29.2	357.00	10.90	87.00	10.40	55389	11378.0	27.5	27.5	1581523262	1.18	2.19
12/02/2020 16:01:03	120220	12022020	160103	89.50	12.419140	-56.989475	89.57	0.170	1.280	0.560	89.50	-0.10	0.90	 	 	 	 	 	 	 	 	 	 	 	 	 	 	 	 	 	 	1581523263	1.53	2.83
12/02/2020 16:01:04	120220	12022020	160104	89.85	12.419143	-56.989477	89.91	-0.380	1.090	0.250	89.85	-0.30	0.60	 	 	 	 	 	 	 	 	 	 	 	 	 	 	 	 	 	 	1581523264	0.89	1.65
12/02/2020 16:01:05	120220	12022020	160105	90.05	12.419143	-56.989475	90.10	-0.660	0.040	0.220	90.05	-1.30	0.60	 	 	 	 	 	 	 	 	 	 	 	 	 	 	 	 	 	 	1581523265	0.27	0.50
12/02/2020 16:01:06	120220	12022020	160106	89.98	12.419140	-56.989470	90.03	-0.440	-1.310	0.440	89.98	-2.70	0.80	 	 	 	 	 	 	 	 	 	 	 	 	 	 	 	 	 	 	1581523266	1.15	2.13
12/02/2020 16:01:07	120220	12022020	160107	89.77	12.419137	-56.989465	89.83	0.070	-2.010	0.850	89.77	-3.30	1.20	 	 	 	 	 	 	 	 	 	 	 	 	 	 	 	 	 	 	1581523267	1.31	2.43
12/02/2020 16:01:08	120220	12022020	160108	89.54	12.419135	-56.989463	89.61	0.440	-1.570	1.350	89.54	-2.90	1.80	 	 	 	 	 	 	 	 	 	 	 	 	 	 	 	 	 	 	1581523268	0.66	1.22
12/02/2020 16:01:09	120220	12022020	160109	89.40	12.419133	-56.989465	89.48	0.340	-0.320	1.730	89.40	-1.60	2.10	 	 	 	 	 	 	 	 	 	 	 	 	 	 	 	 	 	 	1581523269	0.62	1.15
12/02/2020 16:01:10	120220	12022020	160110	89.53	12.419133	-56.989470	89.63	-0.120	0.960	1.600	89.53	-0.30	2.00	 	 	 	 	 	 	 	 	 	 	 	 	 	 	 	 	 	 	1581523270	1.07	1.98
12/02/2020 16:01:11	120220	12022020	160111	89.95	12.419135	-56.989475	90.05	-0.560	1.550	1.060	89.95	0.20	1.40	 	 	 	 	 	 	 	 	 	 	 	 	 	 	 	 	 	 	1581523271	1.03	1.91
12/02/2020 16:01:12	120220	12022020	160112	90.34	12.419137	-56.989477	90.41	-0.510	0.920	0.580	90.34	-0.50	1.00	 	 	 	 	 	 	 	 	 	 	 	 	 	 	 	 	 	 	1581523272	0.35	0.65
12/02/2020 16:01:13	120220	12022020	160113	90.39	12.419137	-56.989472	90.41	0.050	-0.580	0.590	90.36	-2.00	1.00	 	 	 	 	 	 	 	 	 	 	 	 	 	 	 	 	 	 	1581523273	0.98	1.81
12/02/2020 16:01:14	120220	12022020	160114	89.96	12.419133	-56.989465	90.00	0.630	-1.800	0.970	89.96	-3.20	1.40	 	 	 	 	 	 	 	 	 	 	 	 	 	 	 	 	 	 	1581523274	1.55	2.87
12/02/2020 16:01:15	120220	12022020	160115	89.50	12.419133	-56.989460	89.54	0.770	-1.720	1.210	89.50	-3.00	1.60	 	 	 	 	 	 	 	 	 	 	 	 	 	 	 	 	 	 	1581523275	0.89	1.65
12/02/2020 16:01:16	120220	12022020	160116	89.45	12.419135	-56.989463	89.52	0.380	-0.300	0.990	89.45	-1.60	1.40	 	 	 	 	 	 	 	 	 	 	 	 	 	 	 	 	 	 	1581523276	0.77	1.43
12/02/2020 16:01:17	120220	12022020	160117	89.87	12.419140	-56.989472	89.97	-0.280	1.210	0.600	89.87	-0.10	1.00	 	 	 	 	 	 	 	 	 	 	 	 	 	 	 	 	 	 	1581523277	1.93	3.57
12/02/2020 16:01:18	120220	12022020	160118	90.50	12.419143	-56.989477	90.59	-0.740	1.420	0.370	90.50	0.10	0.80	 	 	 	 	 	 	 	 	 	 	 	 	 	 	 	 	 	 	1581523278	1.40	2.59
12/02/2020 16:01:19	120220	12022020	160119	90.91	12.419142	-56.989475	90.97	-0.630	0.090	0.470	90.91	-1.30	0.90	 	 	 	 	 	 	 	 	 	 	 	 	 	 	 	 	 	 	1581523279	0.46	0.85
12/02/2020 16:01:20	120220	12022020	160120	90.67	12.419137	-56.989468	90.71	-0.090	-1.500	1.150	90.67	-2.80	1.60	 	 	 	 	 	 	 	 	 	 	 	 	 	 	 	 	 	 	1581523280	2.10	3.89
12/02/2020 16:01:21	120220	12022020	160121	90.03	12.419128	-56.989462	90.09	0.440	-1.800	2.000	90.03	-3.10	2.40	 	 	 	 	 	 	 	 	 	 	 	 	 	 	 	 	 	 	1581523281	2.14	3.96
12/02/2020 16:01:22	120220	12022020	160122	89.57	12.419123	-56.989463	89.64	0.600	-0.710	2.290	89.57	-2.00	2.70	 	 	 	 	 	 	 	 	 	 	 	 	 	 	 	 	 	 	1581523282	1.03	1.91
12/02/2020 16:01:23	120220	12022020	160123	89.44	12.419125	-56.989470	89.54	0.350	0.630	1.810	89.44	-0.70	2.20	 	 	 	 	 	 	 	 	 	 	 	 	 	 	 	 	 	 	1581523283	1.33	2.46
12/02/2020 16:01:24	120220	12022020	160124	89.59	12.419132	-56.989475	89.68	-0.060	1.160	0.840	89.59	-0.20	1.20	 	 	 	 	 	 	 	 	 	 	 	 	 	 	 	 	 	 	1581523284	1.80	3.33
12/02/2020 16:01:25	120220	12022020	160125	89.93	12.419140	-56.989475	89.99	-0.360	0.660	-0.240	89.93	-0.70	0.10	 	 	 	 	 	 	 	 	 	 	 	 	 	 	 	 	 	 	1581523285	1.72	3.19
12/02/2020 16:01:26	120220	12022020	160126	90.25	12.419147	-56.989472	90.29	-0.420	-0.320	-0.990	90.25	-1.70	-0.60	 	 	 	 	 	 	 	 	 	 	 	 	 	 	 	 	 	 	1581523286	1.42	2.63
12/02/2020 16:01:27	120220	12022020	160127	90.40	12.419147	-56.989468	90.43	-0.270	-1.080	-1.070	90.40	-2.40	-0.70	 	 	 	 	 	 	 	 	 	 	 	 	 	 	 	 	 	 	1581523287	0.76	1.41
12/02/2020 16:01:28	120220	12022020	160128	90.33	12.419143	-56.989467	90.36	0.090	-1.350	-0.500	90.33	-2.70	-0.10	 	 	 	 	 	 	 	 	 	 	 	 	 	 	 	 	 	 	1581523288	0.85	1.57
12/02/2020 16:01:29	120220	12022020	160129	89.97	12.419137	-56.989467	90.01	0.500	-1.170	0.570	89.97	-2.50	1.00	 	 	 	 	 	 	 	 	 	 	 	 	 	 	 	 	 	 	1581523289	1.37	2.54
12/02/2020 16:01:30	120220	12022020	160130	89.45	12.419130	-56.989467	89.51	0.590	-0.480	1.700	89.45	-1.80	2.10	 	 	 	 	 	 	 	 	 	 	 	 	 	 	 	 	 	 	1581523290	1.41	2.61
12/02/2020 16:01:31	120220	12022020	160131	89.19	12.419127	-56.989470	89.29	0.070	0.710	2.310	89.19	-0.60	2.70	 	 	 	 	 	 	 	 	 	 	 	 	 	 	 	 	 	 	1581523291	1.11	2.06
12/02/2020 16:01:32	120220	12022020	160132	89.42	12.419125	-56.989475	89.54	-0.750	1.770	2.220	89.42	0.50	2.60	 	 	 	 	 	 	 	 	 	 	 	 	 	 	 	 	 	 	1581523292	1.29	2.39
12/02/2020 16:01:33	120220	12022020	160133	89.81	12.419127	-56.989482	89.92	-1.170	1.750	1.750	89.81	0.40	2.10	 	 	 	 	 	 	 	 	 	 	 	 	 	 	 	 	 	 	1581523293	1.19	2.20
12/02/2020 16:01:34	120220	12022020	160134	90.06	12.419128	-56.989482	90.13	-0.730	0.300	1.220	90.06	-1.10	1.60	 	 	 	 	 	 	 	 	 	 	 	 	 	 	 	 	 	 	1581523294	0.49	0.91
12/02/2020 16:01:35	120220	12022020	160135	90.12	12.419132	-56.989475	90.18	0.330	-1.730	0.690	90.12	-3.10	1.10	 	 	 	 	 	 	 	 	 	 	 	 	 	 	 	 	 	 	1581523295	1.37	2.54
12/02/2020 16:01:36	120220	12022020	160136	90.10	12.419135	-56.989468	90.17	1.300	-2.920	0.340	90.10	-4.20	0.70	 	 	 	 	 	 	 	 	 	 	 	 	 	 	 	 	 	 	1581523296	1.63	3.02
12/02/2020 16:01:37	120220	12022020	160137	90.14	12.419137	-56.989465	90.21	1.580	-2.450	0.350	90.14	-3.70	0.80	 	 	 	 	 	 	 	 	 	 	 	 	 	 	 	 	 	 	1581523297	0.72	1.33
12/02/2020 16:01:38	120220	12022020	160138	90.13	12.419137	-56.989468	90.20	1.090	-0.700	0.770	90.13	-1.90	1.20	 	 	 	 	 	 	 	 	 	 	 	 	 	 	 	 	 	 	1581523298	0.75	1.39
12/02/2020 16:01:39	120220	12022020	160139	90.04	12.419135	-56.989477	90.13	0.140	1.270	1.210	90.04	0.00	1.60	 	 	 	 	 	 	 	 	 	 	 	 	 	 	 	 	 	 	1581523299	1.55	2.87
12/02/2020 16:01:40	120220	12022020	160140	89.99	12.419132	-56.989482	90.08	-0.820	2.340	1.400	89.99	1.00	1.80	 	 	 	 	 	 	 	 	 	 	 	 	 	 	 	 	 	 	1581523300	1.41	2.61
12/02/2020 16:01:41	120220	12022020	160141	89.98	12.419132	-56.989485	90.07	-1.410	2.110	1.360	89.98	0.70	1.70	 	 	 	 	 	 	 	 	 	 	 	 	 	 	 	 	 	 	1581523301	0.63	1.17
12/02/2020 16:01:42	120220	12022020	160142	89.98	12.419130	-56.989483	90.07	-1.380	0.870	1.260	89.98	-0.50	1.70	 	 	 	 	 	 	 	 	 	 	 	 	 	 	 	 	 	 	1581523302	0.26	0.48
12/02/2020 16:01:43	120220	12022020	160143	90.06	12.419130	-56.989480	90.16	-0.770	-0.670	1.130	90.06	-2.00	1.50	 	 	 	 	 	 	 	 	 	 	 	 	 	 	 	 	 	 	1581523303	0.74	1.37
12/02/2020 16:01:44	120220	12022020	160144	90.26	12.419130	-56.989477	90.37	0.080	-1.820	0.870	90.26	-3.20	1.30	 	 	 	 	 	 	 	 	 	 	 	 	 	 	 	 	 	 	1581523304	0.71	1.31
12/02/2020 16:01:45	120220	12022020	160145	90.34	12.419132	-56.989475	90.42	0.740	-2.120	0.670	90.34	-3.40	1.10	 	 	 	 	 	 	 	 	 	 	 	 	 	 	 	 	 	 	1581523305	0.36	0.67
12/02/2020 16:01:46	120220	12022020	160146	90.17	12.419133	-56.989477	90.23	0.970	-1.600	0.690	90.17	-2.90	1.10	 	 	 	 	 	 	 	 	 	 	 	 	 	 	 	 	 	 	1581523306	0.36	0.67
12/02/2020 16:01:47	120220	12022020	160147	89.94	12.419133	-56.989480	90.02	0.850	-0.760	0.860	89.94	-2.00	1.30	 	 	 	 	 	 	 	 	 	 	 	 	 	 	 	 	 	 	1581523307	0.56	1.04
12/02/2020 16:01:48	120220	12022020	160148	89.86	12.419133	-56.989482	89.96	0.660	-0.010	0.920	89.86	-1.30	1.30	 	 	 	 	 	 	 	 	 	 	 	 	 	 	 	 	 	 	1581523308	0.36	0.67
12/02/2020 16:01:49	120220	12022020	160149	89.85	12.419135	-56.989482	89.94	0.410	0.560	0.860	89.84	-0.70	1.30	 	 	 	 	 	 	 	 	 	 	 	 	 	 	 	 	 	 	1581523309	0.22	0.41
12/02/2020 16:01:50	120220	12022020	160150	89.91	12.419137	-56.989482	90.02	-0.020	1.050	0.740	89.91	-0.30	1.10	 	 	 	 	 	 	 	 	 	 	 	 	 	 	 	 	 	 	1581523310	0.34	0.63
12/02/2020 16:01:51	120220	12022020	160151	90.14	12.419137	-56.989483	90.23	-0.570	1.320	0.650	90.14	0.00	1.00	 	 	 	 	 	 	 	 	 	 	 	 	 	 	 	 	 	 	1581523311	0.42	0.78
12/02/2020 16:01:52	120220	12022020	160152	90.34	12.419137	-56.989487	90.43	-0.920	1.100	0.670	90.34	-0.20	1.10	 	 	 	 	 	 	 	 	 	 	 	 	 	 	 	 	 	 	1581523312	0.49	0.91
12/02/2020 16:01:53	120220	12022020	160153	90.26	12.419135	-56.989487	90.33	-0.830	0.230	0.920	90.26	-1.10	1.30	 	 	 	 	 	 	 	 	 	 	 	 	 	 	 	 	 	 	1581523313	0.32	0.59
12/02/2020 16:01:54	120220	12022020	160154	89.96	12.419133	-56.989485	90.04	-0.370	-0.920	1.310	89.96	-2.30	1.70	 	 	 	 	 	 	 	 	 	 	 	 	 	 	 	 	 	 	1581523314	0.61	1.13
12/02/2020 16:01:55	120220	12022020	160155	89.70	12.419132	-56.989482	89.79	0.180	-1.790	1.580	89.70	-3.10	2.00	 	 	 	 	 	 	 	 	 	 	 	 	 	 	 	 	 	 	1581523315	0.66	1.22
12/02/2020 16:01:56	120220	12022020	160156	89.57	12.419132	-56.989480	89.67	0.640	-2.070	1.690	89.57	-3.30	2.10	 	 	 	 	 	 	 	 	 	 	 	 	 	 	 	 	 	 	1581523316	0.45	0.83
12/02/2020 16:01:57	120220	12022020	160157	89.66	12.419133	-56.989478	89.78	0.900	-1.650	1.580	89.66	-2.90	2.00	 	 	 	 	 	 	 	 	 	 	 	 	 	 	 	 	 	 	1581523317	0.34	0.63
12/02/2020 16:01:58	120220	12022020	160158	90.00	12.419135	-56.989480	90.12	0.800	-0.520	1.260	90.00	-1.80	1.70	 	 	 	 	 	 	 	 	 	 	 	 	 	 	 	 	 	 	1581523318	0.38	0.70
12/02/2020 16:01:59	120220	12022020	160159	90.29	12.419135	-56.989483	90.45	0.300	0.860	0.970	90.34	-0.40	1.40	 	 	 	 	 	 	 	 	 	 	 	 	 	 	 	 	 	 	1581523319	0.73	1.35
12/02/2020 16:02:00	120220	12022020	160200	90.46	12.419135	-56.989487	90.54	-0.390	1.830	0.790	90.46	0.50	1.20	 	 	 	 	 	 	 	 	 	 	 	 	 	 	 	 	 	 	1581523320	0.92	1.70
12/02/2020 16:02:01	120220	12022020	160201	90.34	12.419135	-56.989490	90.40	-0.860	1.870	0.700	90.34	0.50	1.10	 	 	 	 	 	 	 	 	 	 	 	 	 	 	 	 	 	 	1581523321	0.61	1.13
12/02/2020 16:02:02	120220	12022020	160202	90.04	12.419135	-56.989488	90.08	-0.840	0.820	0.690	90.04	-0.50	1.10	1016.80	26.60	26.60	20.30	20.40	702.0	68.0	68.0	433.0	29.2	359.00	10.20	89.00	9.70	56775	11019.0	27.5	27.5	1581523322	0.15	0.28
12/02/2020 16:02:03	120220	12022020	160203	89.74	12.419135	-56.989485	89.73	-0.420	-0.700	0.690	89.68	-2.10	1.10	 	 	 	 	 	 	 	 	 	 	 	 	 	 	 	 	 	 	1581523323	0.93	1.72
12/02/2020 16:02:04	120220	12022020	160204	89.55	12.419138	-56.989480	89.61	0.090	-1.770	0.510	89.55	-3.10	0.90	 	 	 	 	 	 	 	 	 	 	 	 	 	 	 	 	 	 	1581523324	1.08	2.00
12/02/2020 16:02:05	120220	12022020	160205	89.63	12.419140	-56.989478	89.69	0.490	-1.910	0.280	89.63	-3.20	0.70	 	 	 	 	 	 	 	 	 	 	 	 	 	 	 	 	 	 	1581523325	0.70	1.30
12/02/2020 16:02:06	120220	12022020	160206	89.69	12.419143	-56.989478	89.75	0.700	-1.380	0.270	89.69	-2.60	0.70	 	 	 	 	 	 	 	 	 	 	 	 	 	 	 	 	 	 	1581523326	0.43	0.80
12/02/2020 16:02:07	120220	12022020	160207	89.75	12.419143	-56.989480	89.83	0.680	-0.600	0.420	89.75	-1.90	0.80	 	 	 	 	 	 	 	 	 	 	 	 	 	 	 	 	 	 	1581523327	0.30	0.56
12/02/2020 16:02:08	120220	12022020	160208	89.91	12.419143	-56.989482	90.00	0.380	0.190	0.700	89.91	-1.10	1.10	 	 	 	 	 	 	 	 	 	 	 	 	 	 	 	 	 	 	1581523328	0.22	0.41
12/02/2020 16:02:09	120220	12022020	160209	90.06	12.419140	-56.989482	90.15	-0.130	0.900	1.180	90.06	-0.40	1.60	 	 	 	 	 	 	 	 	 	 	 	 	 	 	 	 	 	 	1581523329	0.65	1.20
12/02/2020 16:02:10	120220	12022020	160210	90.01	12.419135	-56.989483	90.10	-0.630	1.400	1.680	90.01	0.10	2.10	 	 	 	 	 	 	 	 	 	 	 	 	 	 	 	 	 	 	1581523330	0.99	1.83
12/02/2020 16:02:11	120220	12022020	160211	89.81	12.419133	-56.989485	89.90	-0.910	1.240	1.970	89.81	-0.10	2.40	 	 	 	 	 	 	 	 	 	 	 	 	 	 	 	 	 	 	1581523331	0.75	1.39
12/02/2020 16:02:12	120220	12022020	160212	89.71	12.419132	-56.989485	89.80	-0.830	0.280	1.970	89.71	-1.10	2.40	 	 	 	 	 	 	 	 	 	 	 	 	 	 	 	 	 	 	1581523332	0.32	0.59
12/02/2020 16:02:13	120220	12022020	160213	89.71	12.419132	-56.989482	89.79	-0.380	-1.070	1.690	89.71	-2.40	2.10	 	 	 	 	 	 	 	 	 	 	 	 	 	 	 	 	 	 	1581523333	0.79	1.46
12/02/2020 16:02:14	120220	12022020	160214	89.70	12.419133	-56.989477	89.77	0.330	-2.070	1.230	89.70	-3.40	1.60	 	 	 	 	 	 	 	 	 	 	 	 	 	 	 	 	 	 	1581523334	1.08	2.00
12/02/2020 16:02:15	120220	12022020	160215	89.62	12.419137	-56.989473	89.68	1.010	-2.090	0.750	89.62	-3.30	1.10	 	 	 	 	 	 	 	 	 	 	 	 	 	 	 	 	 	 	1581523335	0.90	1.67
12/02/2020 16:02:16	120220	12022020	160216	89.45	12.419138	-56.989473	89.50	1.260	-1.060	0.420	89.45	-2.30	0.80	 	 	 	 	 	 	 	 	 	 	 	 	 	 	 	 	 	 	1581523336	0.67	1.24
12/02/2020 16:02:17	120220	12022020	160217	89.24	12.419142	-56.989477	89.29	0.810	0.480	0.270	89.24	-0.80	0.70	 	 	 	 	 	 	 	 	 	 	 	 	 	 	 	 	 	 	1581523337	1.05	1.94
12/02/2020 16:02:18	120220	12022020	160218	89.16	12.419145	-56.989482	89.21	-0.150	1.630	0.220	89.16	0.40	0.60	 	 	 	 	 	 	 	 	 	 	 	 	 	 	 	 	 	 	1581523338	1.23	2.28
12/02/2020 16:02:19	120220	12022020	160219	89.22	12.419147	-56.989483	89.27	-0.990	1.620	0.210	89.22	0.30	0.60	 	 	 	 	 	 	 	 	 	 	 	 	 	 	 	 	 	 	1581523339	0.67	1.24
12/02/2020 16:02:20	120220	12022020	160220	89.31	12.419147	-56.989482	89.37	-1.210	0.560	0.380	89.31	-0.80	0.80	 	 	 	 	 	 	 	 	 	 	 	 	 	 	 	 	 	 	1581523340	0.45	0.83
12/02/2020 16:02:21	120220	12022020	160221	89.40	12.419145	-56.989477	89.47	-0.780	-0.680	0.800	89.40	-2.00	1.20	 	 	 	 	 	 	 	 	 	 	 	 	 	 	 	 	 	 	1581523341	1.20	2.22
12/02/2020 16:02:22	120220	12022020	160222	89.52	12.419140	-56.989473	89.61	-0.120	-1.270	1.270	89.52	-2.60	1.70	 	 	 	 	 	 	 	 	 	 	 	 	 	 	 	 	 	 	1581523342	1.25	2.31
12/02/2020 16:02:23	120220	12022020	160223	89.58	12.419135	-56.989473	89.66	0.350	-1.080	1.660	89.58	-2.30	2.10	 	 	 	 	 	 	 	 	 	 	 	 	 	 	 	 	 	 	1581523343	0.98	1.81
12/02/2020 16:02:24	120220	12022020	160224	89.43	12.419133	-56.989475	89.50	0.520	-0.610	1.910	89.43	-1.90	2.30	 	 	 	 	 	 	 	 	 	 	 	 	 	 	 	 	 	 	1581523344	0.77	1.43
12/02/2020 16:02:25	120220	12022020	160225	89.07	12.419132	-56.989477	89.13	0.510	-0.440	2.040	89.07	-1.70	2.50	 	 	 	 	 	 	 	 	 	 	 	 	 	 	 	 	 	 	1581523345	0.28	0.52
12/02/2020 16:02:26	120220	12022020	160226	88.61	12.419133	-56.989475	88.64	0.560	-0.600	1.980	88.61	-1.90	2.40	 	 	 	 	 	 	 	 	 	 	 	 	 	 	 	 	 	 	1581523346	0.47	0.87
12/02/2020 16:02:27	120220	12022020	160227	88.34	12.419137	-56.989472	88.37	0.600	-0.540	1.440	88.32	-1.80	1.80	 	 	 	 	 	 	 	 	 	 	 	 	 	 	 	 	 	 	1581523347	1.10	2.04
12/02/2020 16:02:28	120220	12022020	160228	88.52	12.419143	-56.989470	88.57	0.350	0.140	0.480	88.52	-1.10	0.90	 	 	 	 	 	 	 	 	 	 	 	 	 	 	 	 	 	 	1581523348	1.48	2.74
12/02/2020 16:02:29	120220	12022020	160229	89.10	12.419150	-56.989473	89.14	-0.280	1.120	-0.390	89.10	-0.10	0.00	 	 	 	 	 	 	 	 	 	 	 	 	 	 	 	 	 	 	1581523349	1.62	3.00
12/02/2020 16:02:30	120220	12022020	160230	89.63	12.419153	-56.989478	89.65	-0.950	1.560	-0.800	89.63	0.30	-0.40	 	 	 	 	 	 	 	 	 	 	 	 	 	 	 	 	 	 	1581523350	1.25	2.31
12/02/2020 16:02:31	120220	12022020	160231	89.85	12.419152	-56.989480	89.86	-1.160	0.880	-0.670	89.85	-0.40	-0.30	 	 	 	 	 	 	 	 	 	 	 	 	 	 	 	 	 	 	1581523351	0.47	0.87
12/02/2020 16:02:32	120220	12022020	160232	89.69	12.419148	-56.989477	89.71	-0.760	-0.620	-0.070	89.69	-1.90	0.40	 	 	 	 	 	 	 	 	 	 	 	 	 	 	 	 	 	 	1581523352	1.17	2.17
12/02/2020 16:02:33	120220	12022020	160233	89.37	12.419142	-56.989472	89.42	0.000	-2.000	0.750	89.37	-3.30	1.20	 	 	 	 	 	 	 	 	 	 	 	 	 	 	 	 	 	 	1581523353	1.73	3.20
12/02/2020 16:02:34	120220	12022020	160234	89.19	12.419138	-56.989467	89.25	0.690	-2.360	1.350	89.19	-3.60	1.80	 	 	 	 	 	 	 	 	 	 	 	 	 	 	 	 	 	 	1581523354	1.33	2.46
12/02/2020 16:02:35	120220	12022020	160235	89.23	12.419137	-56.989467	89.30	0.940	-1.400	1.590	89.23	-2.60	2.00	 	 	 	 	 	 	 	 	 	 	 	 	 	 	 	 	 	 	1581523355	0.30	0.56
12/02/2020 16:02:36	120220	12022020	160236	89.38	12.419138	-56.989472	89.45	0.670	0.170	1.560	89.38	-1.10	2.00	 	 	 	 	 	 	 	 	 	 	 	 	 	 	 	 	 	 	1581523356	1.06	1.96
12/02/2020 16:02:37	120220	12022020	160237	89.57	12.419140	-56.989478	89.63	0.100	1.240	1.280	89.57	-0.00	1.70	 	 	 	 	 	 	 	 	 	 	 	 	 	 	 	 	 	 	1581523357	1.21	2.24
12/02/2020 16:02:38	120220	12022020	160238	89.76	12.419142	-56.989480	89.81	-0.390	1.270	0.810	89.76	-0.00	1.20	 	 	 	 	 	 	 	 	 	 	 	 	 	 	 	 	 	 	1581523358	0.64	1.19
12/02/2020 16:02:39	120220	12022020	160239	89.95	12.419143	-56.989477	90.03	-0.530	0.560	0.440	89.99	-0.80	0.80	 	 	 	 	 	 	 	 	 	 	 	 	 	 	 	 	 	 	1581523359	0.57	1.06
12/02/2020 16:02:40	120220	12022020	160240	90.17	12.419145	-56.989473	90.19	-0.350	-0.200	0.240	90.17	-1.50	0.60	 	 	 	 	 	 	 	 	 	 	 	 	 	 	 	 	 	 	1581523360	0.69	1.28
12/02/2020 16:02:41	120220	12022020	160241	90.13	12.419145	-56.989472	90.13	-0.050	-0.680	0.220	90.13	-2.00	0.60	 	 	 	 	 	 	 	 	 	 	 	 	 	 	 	 	 	 	1581523361	0.39	0.72
12/02/2020 16:02:42	120220	12022020	160242	89.87	12.419145	-56.989472	89.87	0.210	-0.970	0.410	89.87	-2.30	0.80	 	 	 	 	 	 	 	 	 	 	 	 	 	 	 	 	 	 	1581523362	0.18	0.33
12/02/2020 16:02:43	120220	12022020	160243	89.59	12.419145	-56.989470	89.61	0.370	-1.030	0.690	89.59	-2.30	1.10	 	 	 	 	 	 	 	 	 	 	 	 	 	 	 	 	 	 	1581523363	0.25	0.46
12/02/2020 16:02:44	120220	12022020	160244	89.56	12.419145	-56.989470	89.60	0.290	-0.600	0.830	89.56	-1.90	1.20	 	 	 	 	 	 	 	 	 	 	 	 	 	 	 	 	 	 	1581523364	0.11	0.20
12/02/2020 16:02:45	120220	12022020	160245	89.93	12.419145	-56.989472	90.01	-0.050	0.190	0.680	89.93	-1.10	1.10	 	 	 	 	 	 	 	 	 	 	 	 	 	 	 	 	 	 	1581523365	0.48	0.89
12/02/2020 16:02:46	120220	12022020	160246	90.54	12.419147	-56.989475	90.62	-0.430	0.670	0.560	90.54	-0.60	1.00	 	 	 	 	 	 	 	 	 	 	 	 	 	 	 	 	 	 	1581523366	0.71	1.31
12/02/2020 16:02:47	120220	12022020	160247	90.88	12.419143	-56.989477	90.94	-0.580	0.460	0.880	90.88	-0.80	1.30	 	 	 	 	 	 	 	 	 	 	 	 	 	 	 	 	 	 	1581523367	0.47	0.87
12/02/2020 16:02:48	120220	12022020	160248	90.69	12.419138	-56.989475	90.73	-0.410	-0.130	1.580	90.69	-1.40	2.00	 	 	 	 	 	 	 	 	 	 	 	 	 	 	 	 	 	 	1581523368	1.19	2.20
12/02/2020 16:02:49	120220	12022020	160249	90.14	12.419133	-56.989472	90.17	-0.040	-0.640	2.240	90.14	-1.90	2.70	 	 	 	 	 	 	 	 	 	 	 	 	 	 	 	 	 	 	1581523369	1.44	2.67
12/02/2020 16:02:50	120220	12022020	160250	89.59	12.419130	-56.989470	89.63	0.370	-0.850	2.360	89.59	-2.10	2.80	 	 	 	 	 	 	 	 	 	 	 	 	 	 	 	 	 	 	1581523370	0.74	1.37
12/02/2020 16:02:51	120220	12022020	160251	89.35	12.419132	-56.989468	89.38	0.720	-0.810	1.780	89.33	-2.10	2.10	 	 	 	 	 	 	 	 	 	 	 	 	 	 	 	 	 	 	1581523371	0.64	1.19
12/02/2020 16:02:52	120220	12022020	160252	89.50	12.419140	-56.989468	89.55	0.900	-0.530	0.650	89.50	-1.80	1.00	 	 	 	 	 	 	 	 	 	 	 	 	 	 	 	 	 	 	1581523372	1.76	3.26
12/02/2020 16:02:53	120220	12022020	160253	89.91	12.419152	-56.989468	90.08	0.660	-0.030	-0.530	90.04	-1.30	-0.20	 	 	 	 	 	 	 	 	 	 	 	 	 	 	 	 	 	 	1581523373	2.29	4.24
12/02/2020 16:02:54	120220	12022020	160254	90.63	12.419158	-56.989472	90.66	-0.080	0.550	-1.090	90.63	-0.70	-0.70	 	 	 	 	 	 	 	 	 	 	 	 	 	 	 	 	 	 	1581523374	1.60	2.96
12/02/2020 16:02:55	120220	12022020	160255	90.90	12.419158	-56.989473	90.92	-0.980	0.890	-0.730	90.90	-0.40	-0.30	 	 	 	 	 	 	 	 	 	 	 	 	 	 	 	 	 	 	1581523375	0.63	1.17
12/02/2020 16:02:56	120220	12022020	160256	90.70	12.419150	-56.989477	90.73	-1.390	0.690	0.420	90.70	-0.60	0.90	 	 	 	 	 	 	 	 	 	 	 	 	 	 	 	 	 	 	1581523376	1.79	3.32
12/02/2020 16:02:57	120220	12022020	160257	90.13	12.419138	-56.989475	90.17	-0.990	-0.180	1.760	90.13	-1.50	2.20	 	 	 	 	 	 	 	 	 	 	 	 	 	 	 	 	 	 	1581523377	2.37	4.39
12/02/2020 16:02:58	120220	12022020	160258	89.50	12.419130	-56.989472	89.55	-0.030	-1.360	2.650	89.50	-2.70	3.10	 	 	 	 	 	 	 	 	 	 	 	 	 	 	 	 	 	 	1581523378	1.98	3.67
12/02/2020 16:02:59	120220	12022020	160259	89.12	12.419128	-56.989467	89.19	0.840	-1.980	2.910	89.12	-3.20	3.30	 	 	 	 	 	 	 	 	 	 	 	 	 	 	 	 	 	 	1581523379	1.24	2.30
12/02/2020 16:03:00	120220	12022020	160300	89.17	12.419130	-56.989465	89.27	1.100	-1.450	2.530	89.17	-2.70	2.90	 	 	 	 	 	 	 	 	 	 	 	 	 	 	 	 	 	 	1581523380	0.62	1.15
12/02/2020 16:03:01	120220	12022020	160301	89.50	12.419137	-56.989468	89.57	0.690	-0.100	1.550	89.50	-1.30	1.90	 	 	 	 	 	 	 	 	 	 	 	 	 	 	 	 	 	 	1581523381	1.51	2.80
12/02/2020 16:03:02	120220	12022020	160302	89.85	12.419145	-56.989473	89.90	-0.030	1.240	0.310	89.85	0.00	0.70	1016.80	26.60	26.60	20.40	20.50	674.0	68.0	69.0	431.0	29.2	1.00	10.10	91.00	9.70	54948	10132.0	27.5	27.5	1581523382	2.09	3.87
12/02/2020 16:03:03	120220	12022020	160303	90.11	12.419150	-56.989480	90.19	-0.620	1.890	-0.690	90.17	0.60	-0.30	 	 	 	 	 	 	 	 	 	 	 	 	 	 	 	 	 	 	1581523383	1.79	3.32
12/02/2020 16:03:04	120220	12022020	160304	90.32	12.419153	-56.989482	90.32	-0.790	1.400	-1.030	90.32	0.10	-0.60	 	 	 	 	 	 	 	 	 	 	 	 	 	 	 	 	 	 	1581523384	0.80	1.48
12/02/2020 16:03:05	120220	12022020	160305	90.23	12.419152	-56.989480	90.23	-0.520	-0.140	-0.710	90.23	-1.50	-0.30	 	 	 	 	 	 	 	 	 	 	 	 	 	 	 	 	 	 	1581523385	0.50	0.93
12/02/2020 16:03:06	120220	12022020	160306	89.86	12.419150	-56.989473	89.88	-0.020	-1.870	-0.030	89.86	-3.20	0.40	 	 	 	 	 	 	 	 	 	 	 	 	 	 	 	 	 	 	1581523386	1.37	2.54
12/02/2020 16:03:07	120220	12022020	160307	89.34	12.419147	-56.989468	89.36	0.430	-2.640	0.870	89.34	-3.90	1.30	 	 	 	 	 	 	 	 	 	 	 	 	 	 	 	 	 	 	1581523387	1.37	2.54
12/02/2020 16:03:08	120220	12022020	160308	88.99	12.419143	-56.989468	89.05	0.610	-1.870	1.600	88.99	-3.10	2.00	 	 	 	 	 	 	 	 	 	 	 	 	 	 	 	 	 	 	1581523388	0.73	1.35
12/02/2020 16:03:09	120220	12022020	160309	89.02	12.419140	-56.989472	89.10	0.500	-0.240	1.880	89.02	-1.50	2.30	 	 	 	 	 	 	 	 	 	 	 	 	 	 	 	 	 	 	1581523389	1.08	2.00
12/02/2020 16:03:10	120220	12022020	160310	89.26	12.419140	-56.989478	89.34	0.270	1.000	1.790	89.26	-0.30	2.20	 	 	 	 	 	 	 	 	 	 	 	 	 	 	 	 	 	 	1581523390	1.20	2.22
12/02/2020 16:03:11	120220	12022020	160311	89.51	12.419143	-56.989480	89.58	0.040	1.250	1.500	89.51	-0.10	1.90	 	 	 	 	 	 	 	 	 	 	 	 	 	 	 	 	 	 	1581523391	0.64	1.19
12/02/2020 16:03:12	120220	12022020	160312	89.77	12.419147	-56.989478	89.82	-0.250	0.940	1.020	89.77	-0.40	1.40	 	 	 	 	 	 	 	 	 	 	 	 	 	 	 	 	 	 	1581523392	0.73	1.35
12/02/2020 16:03:13	120220	12022020	160313	90.09	12.419148	-56.989478	90.15	-0.610	0.640	0.590	90.09	-0.70	1.00	 	 	 	 	 	 	 	 	 	 	 	 	 	 	 	 	 	 	1581523393	0.47	0.87
12/02/2020 16:03:14	120220	12022020	160314	90.27	12.419148	-56.989480	90.31	-0.790	0.330	0.440	90.27	-1.00	0.80	 	 	 	 	 	 	 	 	 	 	 	 	 	 	 	 	 	 	1581523394	0.30	0.56
12/02/2020 16:03:15	120220	12022020	160315	90.16	12.419147	-56.989480	90.12	-0.520	-0.350	0.630	90.10	-1.70	1.00	 	 	 	 	 	 	 	 	 	 	 	 	 	 	 	 	 	 	1581523395	0.46	0.85
12/02/2020 16:03:16	120220	12022020	160316	89.75	12.419145	-56.989480	89.78	0.100	-1.310	0.920	89.75	-2.60	1.30	 	 	 	 	 	 	 	 	 	 	 	 	 	 	 	 	 	 	1581523396	0.41	0.76
12/02/2020 16:03:17	120220	12022020	160317	89.63	12.419147	-56.989477	89.68	0.610	-1.920	1.050	89.62	-3.20	1.50	 	 	 	 	 	 	 	 	 	 	 	 	 	 	 	 	 	 	1581523397	0.68	1.26
12/02/2020 16:03:18	120220	12022020	160318	89.74	12.419148	-56.989475	89.81	0.680	-1.710	1.090	89.74	-2.90	1.50	 	 	 	 	 	 	 	 	 	 	 	 	 	 	 	 	 	 	1581523398	0.52	0.96
12/02/2020 16:03:19	120220	12022020	160319	89.94	12.419148	-56.989475	90.03	0.410	-0.780	1.140	89.94	-2.00	1.50	 	 	 	 	 	 	 	 	 	 	 	 	 	 	 	 	 	 	1581523399	0.23	0.43
12/02/2020 16:03:20	120220	12022020	160320	90.12	12.419147	-56.989478	90.20	0.150	0.390	1.200	90.12	-0.80	1.60	 	 	 	 	 	 	 	 	 	 	 	 	 	 	 	 	 	 	1581523400	0.72	1.33
12/02/2020 16:03:21	120220	12022020	160321	90.28	12.419145	-56.989482	90.34	0.090	1.210	1.130	90.28	-0.10	1.50	 	 	 	 	 	 	 	 	 	 	 	 	 	 	 	 	 	 	1581523401	0.68	1.26
12/02/2020 16:03:22	120220	12022020	160322	90.33	12.419145	-56.989482	90.38	0.140	1.260	0.970	90.33	-0.00	1.40	 	 	 	 	 	 	 	 	 	 	 	 	 	 	 	 	 	 	1581523402	0.19	0.35
12/02/2020 16:03:23	120220	12022020	160323	90.32	12.419147	-56.989480	90.37	0.050	0.660	0.650	90.32	-0.60	1.00	 	 	 	 	 	 	 	 	 	 	 	 	 	 	 	 	 	 	1581523403	0.65	1.20
12/02/2020 16:03:24	120220	12022020	160324	90.40	12.419152	-56.989478	90.44	-0.230	-0.130	0.200	90.40	-1.40	0.60	 	 	 	 	 	 	 	 	 	 	 	 	 	 	 	 	 	 	1581523404	1.04	1.93
12/02/2020 16:03:25	120220	12022020	160325	90.55	12.419155	-56.989475	90.60	-0.510	-0.710	-0.020	90.55	-2.00	0.40	 	 	 	 	 	 	 	 	 	 	 	 	 	 	 	 	 	 	1581523405	0.79	1.46
12/02/2020 16:03:26	120220	12022020	160326	90.64	12.419155	-56.989475	90.70	-0.560	-0.820	0.200	90.64	-2.10	0.60	 	 	 	 	 	 	 	 	 	 	 	 	 	 	 	 	 	 	1581523406	0.07	0.13
12/02/2020 16:03:27	120220	12022020	160327	90.64	12.419152	-56.989477	90.71	-0.420	-0.470	0.670	90.64	-1.70	1.10	 	 	 	 	 	 	 	 	 	 	 	 	 	 	 	 	 	 	1581523407	0.62	1.15
12/02/2020 16:03:28	120220	12022020	160328	90.72	12.419150	-56.989480	90.81	-0.210	-0.070	1.040	90.72	-1.40	1.40	 	 	 	 	 	 	 	 	 	 	 	 	 	 	 	 	 	 	1581523408	0.98	1.81
12/02/2020 16:03:29	120220	12022020	160329	90.84	12.419147	-56.989482	90.95	0.080	-0.250	1.140	90.86	-1.60	1.50	 	 	 	 	 	 	 	 	 	 	 	 	 	 	 	 	 	 	1581523409	0.67	1.24
12/02/2020 16:03:30	120220	12022020	160330	90.79	12.419145	-56.989480	90.87	0.520	-1.050	1.340	90.79	-2.40	1.70	 	 	 	 	 	 	 	 	 	 	 	 	 	 	 	 	 	 	1581523410	0.65	1.20
12/02/2020 16:03:31	120220	12022020	160331	90.55	12.419143	-56.989473	90.56	0.900	-1.620	1.730	90.48	-2.90	2.10	 	 	 	 	 	 	 	 	 	 	 	 	 	 	 	 	 	 	1581523411	1.30	2.41
12/02/2020 16:03:32	120220	12022020	160332	90.18	12.419143	-56.989470	90.28	0.890	-1.060	1.990	90.18	-2.30	2.40	 	 	 	 	 	 	 	 	 	 	 	 	 	 	 	 	 	 	1581523412	0.83	1.54
12/02/2020 16:03:33	120220	12022020	160333	90.18	12.419143	-56.989472	90.30	0.400	0.420	1.720	90.18	-0.80	2.10	 	 	 	 	 	 	 	 	 	 	 	 	 	 	 	 	 	 	1581523413	0.42	0.78
12/02/2020 16:03:34	120220	12022020	160334	90.56	12.419147	-56.989478	90.67	-0.340	1.860	0.900	90.56	0.60	1.30	 	 	 	 	 	 	 	 	 	 	 	 	 	 	 	 	 	 	1581523414	1.41	2.61
12/02/2020 16:03:35	120220	12022020	160335	91.14	12.419152	-56.989483	91.24	-0.980	2.340	-0.110	91.14	1.00	0.30	 	 	 	 	 	 	 	 	 	 	 	 	 	 	 	 	 	 	1581523415	1.73	3.20
12/02/2020 16:03:36	120220	12022020	160336	91.57	12.419157	-56.989487	91.64	-1.190	1.470	-0.760	91.57	0.10	-0.40	 	 	 	 	 	 	 	 	 	 	 	 	 	 	 	 	 	 	1581523416	1.21	2.24
12/02/2020 16:03:37	120220	12022020	160337	91.57	12.419158	-56.989483	91.63	-0.870	-0.450	-0.880	91.57	-1.80	-0.50	 	 	 	 	 	 	 	 	 	 	 	 	 	 	 	 	 	 	1581523417	0.67	1.24
12/02/2020 16:03:38	120220	12022020	160338	91.23	12.419157	-56.989477	91.28	-0.160	-2.500	-0.520	91.23	-3.80	-0.10	 	 	 	 	 	 	 	 	 	 	 	 	 	 	 	 	 	 	1581523418	1.38	2.56
12/02/2020 16:03:39	120220	12022020	160339	90.82	12.419152	-56.989470	90.90	0.620	-3.500	0.250	90.82	-4.80	0.70	 	 	 	 	 	 	 	 	 	 	 	 	 	 	 	 	 	 	1581523419	1.67	3.09
12/02/2020 16:03:40	120220	12022020	160340	90.54	12.419147	-56.989468	90.65	1.080	-2.670	1.050	90.54	-3.90	1.50	 	 	 	 	 	 	 	 	 	 	 	 	 	 	 	 	 	 	1581523420	1.18	2.19
12/02/2020 16:03:41	120220	12022020	160341	90.52	12.419145	-56.989473	90.65	0.960	-0.490	1.320	90.52	-1.70	1.70	 	 	 	 	 	 	 	 	 	 	 	 	 	 	 	 	 	 	1581523421	1.13	2.09
12/02/2020 16:03:42	120220	12022020	160342	90.76	12.419147	-56.989482	90.89	0.360	1.620	1.000	90.76	0.40	1.40	 	 	 	 	 	 	 	 	 	 	 	 	 	 	 	 	 	 	1581523422	1.74	3.22
12/02/2020 16:03:43	120220	12022020	160343	91.08	12.419150	-56.989487	91.28	-0.360	2.470	0.460	91.16	1.20	0.80	 	 	 	 	 	 	 	 	 	 	 	 	 	 	 	 	 	 	1581523423	1.46	2.70
12/02/2020 16:03:44	120220	12022020	160344	91.51	12.419152	-56.989487	91.62	-0.760	1.840	0.140	91.51	0.50	0.50	 	 	 	 	 	 	 	 	 	 	 	 	 	 	 	 	 	 	1581523424	0.52	0.96
12/02/2020 16:03:45	120220	12022020	160345	91.65	12.419152	-56.989483	91.76	-0.730	0.420	0.300	91.65	-0.90	0.70	 	 	 	 	 	 	 	 	 	 	 	 	 	 	 	 	 	 	1581523425	0.79	1.46
12/02/2020 16:03:46	120220	12022020	160346	91.62	12.419148	-56.989480	91.73	-0.490	-0.860	0.830	91.62	-2.20	1.20	 	 	 	 	 	 	 	 	 	 	 	 	 	 	 	 	 	 	1581523426	1.20	2.22
12/02/2020 16:03:47	120220	12022020	160347	91.46	12.419143	-56.989478	91.56	-0.250	-1.460	1.470	91.46	-2.70	1.90	 	 	 	 	 	 	 	 	 	 	 	 	 	 	 	 	 	 	1581523427	1.12	2.07
12/02/2020 16:03:48	120220	12022020	160348	91.08	12.419138	-56.989478	91.18	0.070	-1.530	2.010	91.08	-2.80	2.40	 	 	 	 	 	 	 	 	 	 	 	 	 	 	 	 	 	 	1581523428	0.98	1.81
12/02/2020 16:03:49	120220	12022020	160349	90.59	12.419137	-56.989480	90.70	0.520	-1.290	2.310	90.59	-2.60	2.70	 	 	 	 	 	 	 	 	 	 	 	 	 	 	 	 	 	 	1581523429	0.49	0.91
12/02/2020 16:03:50	120220	12022020	160350	90.31	12.419138	-56.989480	90.43	0.840	-0.770	2.180	90.31	-2.00	2.60	 	 	 	 	 	 	 	 	 	 	 	 	 	 	 	 	 	 	1581523430	0.37	0.69
12/02/2020 16:03:51	120220	12022020	160351	90.54	12.419142	-56.989482	90.70	0.660	0.030	1.590	90.54	-1.20	2.00	 	 	 	 	 	 	 	 	 	 	 	 	 	 	 	 	 	 	1581523431	1.05	1.94
12/02/2020 16:03:52	120220	12022020	160352	91.37	12.419148	-56.989483	91.53	0.090	0.730	0.630	91.37	-0.50	1.00	 	 	 	 	 	 	 	 	 	 	 	 	 	 	 	 	 	 	1581523432	1.27	2.35
12/02/2020 16:03:53	120220	12022020	160353	92.33	12.419152	-56.989485	92.45	-0.400	0.920	-0.180	92.33	-0.40	0.20	 	 	 	 	 	 	 	 	 	 	 	 	 	 	 	 	 	 	1581523433	0.90	1.67
12/02/2020 16:03:54	120220	12022020	160354	92.65	12.419150	-56.989485	92.71	-0.400	0.370	-0.120	92.65	-0.90	0.30	 	 	 	 	 	 	 	 	 	 	 	 	 	 	 	 	 	 	1581523434	0.17	0.31
12/02/2020 16:03:55	120220	12022020	160355	92.13	12.419145	-56.989482	92.17	-0.040	-0.530	0.800	92.13	-1.80	1.20	 	 	 	 	 	 	 	 	 	 	 	 	 	 	 	 	 	 	1581523435	1.35	2.50
12/02/2020 16:03:56	120220	12022020	160356	91.34	12.419138	-56.989478	91.41	0.220	-0.980	1.910	91.34	-2.30	2.30	 	 	 	 	 	 	 	 	 	 	 	 	 	 	 	 	 	 	1581523436	1.70	3.15
12/02/2020 16:03:57	120220	12022020	160357	90.91	12.419133	-56.989478	91.04	0.100	-0.540	2.460	90.91	-1.80	2.90	 	 	 	 	 	 	 	 	 	 	 	 	 	 	 	 	 	 	1581523437	1.00	1.85
12/02/2020 16:03:58	120220	12022020	160358	91.06	12.419135	-56.989482	91.22	-0.300	0.440	2.170	91.06	-0.80	2.50	 	 	 	 	 	 	 	 	 	 	 	 	 	 	 	 	 	 	1581523438	0.95	1.76
12/02/2020 16:03:59	120220	12022020	160359	91.65	12.419140	-56.989488	91.80	-0.600	0.950	1.220	91.65	-0.30	1.60	 	 	 	 	 	 	 	 	 	 	 	 	 	 	 	 	 	 	1581523439	1.70	3.15
12/02/2020 16:04:00	120220	12022020	160400	92.23	12.419147	-56.989490	92.34	-0.470	0.230	0.240	92.23	-1.10	0.60	 	 	 	 	 	 	 	 	 	 	 	 	 	 	 	 	 	 	1581523440	1.41	2.61
12/02/2020 16:04:01	120220	12022020	160401	92.41	12.419148	-56.989485	92.50	0.070	-1.270	-0.110	92.41	-2.60	0.30	 	 	 	 	 	 	 	 	 	 	 	 	 	 	 	 	 	 	1581523441	1.09	2.02
12/02/2020 16:04:02	120220	12022020	160402	92.34	12.419145	-56.989478	92.41	0.650	-2.220	0.180	92.34	-3.50	0.60	1016.70	26.60	26.70	20.50	20.50	732.0	69.0	69.0	429.0	29.2	350.00	10.40	81.00	10.00	58441	10685.0	27.5	27.5	1581523442	1.67	3.09
12/02/2020 16:04:03	120220	12022020	160403	92.12	12.419140	-56.989475	92.18	0.870	-1.510	0.610	92.12	-2.70	1.00	 	 	 	 	 	 	 	 	 	 	 	 	 	 	 	 	 	 	1581523443	1.08	2.00
12/02/2020 16:04:04	120220	12022020	160404	91.78	12.419140	-56.989480	91.84	0.560	0.260	0.880	91.78	-0.90	1.30	 	 	 	 	 	 	 	 	 	 	 	 	 	 	 	 	 	 	1581523444	1.16	2.15
12/02/2020 16:04:05	120220	12022020	160405	91.52	12.419140	-56.989488	91.52	-0.000	1.540	0.880	91.47	0.30	1.30	 	 	 	 	 	 	 	 	 	 	 	 	 	 	 	 	 	 	1581523445	1.64	3.04
12/02/2020 16:04:06	120220	12022020	160406	91.31	12.419143	-56.989492	91.38	-0.360	1.400	0.600	91.31	0.10	1.00	 	 	 	 	 	 	 	 	 	 	 	 	 	 	 	 	 	 	1581523446	0.89	1.65
12/02/2020 16:04:07	120220	12022020	160407	91.32	12.419147	-56.989488	91.43	-0.340	0.230	0.320	91.35	-1.10	0.70	 	 	 	 	 	 	 	 	 	 	 	 	 	 	 	 	 	 	1581523447	0.92	1.70
12/02/2020 16:04:08	120220	12022020	160408	91.60	12.419148	-56.989483	91.68	-0.190	-0.720	0.130	91.60	-2.00	0.50	 	 	 	 	 	 	 	 	 	 	 	 	 	 	 	 	 	 	1581523448	1.19	2.20
12/02/2020 16:04:09	120220	12022020	160409	91.98	12.419150	-56.989483	92.06	-0.250	-0.780	0.180	91.98	-2.00	0.60	 	 	 	 	 	 	 	 	 	 	 	 	 	 	 	 	 	 	1581523449	0.28	0.52
12/02/2020 16:04:10	120220	12022020	160410	92.20	12.419147	-56.989487	92.27	-0.490	-0.330	0.600	92.20	-1.60	1.00	 	 	 	 	 	 	 	 	 	 	 	 	 	 	 	 	 	 	1581523450	0.91	1.69
12/02/2020 16:04:11	120220	12022020	160411	92.10	12.419142	-56.989490	92.18	-0.580	-0.150	1.440	92.10	-1.40	1.90	 	 	 	 	 	 	 	 	 	 	 	 	 	 	 	 	 	 	1581523451	1.60	2.96
12/02/2020 16:04:12	120220	12022020	160412	91.71	12.419133	-56.989492	91.79	-0.250	-0.540	2.360	91.71	-1.80	2.80	 	 	 	 	 	 	 	 	 	 	 	 	 	 	 	 	 	 	1581523452	1.79	3.32
12/02/2020 16:04:13	120220	12022020	160413	91.13	12.419127	-56.989488	91.23	0.400	-1.020	2.890	91.13	-2.30	3.30	 	 	 	 	 	 	 	 	 	 	 	 	 	 	 	 	 	 	1581523453	1.39	2.57
12/02/2020 16:04:14	120220	12022020	160414	90.68	12.419125	-56.989487	90.79	0.950	-0.910	2.770	90.68	-2.20	3.10	 	 	 	 	 	 	 	 	 	 	 	 	 	 	 	 	 	 	1581523454	0.49	0.91
12/02/2020 16:04:15	120220	12022020	160415	90.63	12.419130	-56.989488	90.75	1.060	-0.210	1.940	90.63	-1.50	2.30	 	 	 	 	 	 	 	 	 	 	 	 	 	 	 	 	 	 	1581523455	1.04	1.93
12/02/2020 16:04:16	120220	12022020	160416	90.95	12.419140	-56.989490	91.05	0.740	0.390	0.620	90.95	-0.90	1.00	 	 	 	 	 	 	 	 	 	 	 	 	 	 	 	 	 	 	1581523456	2.05	3.80
12/02/2020 16:04:17	120220	12022020	160417	91.36	12.419150	-56.989492	91.43	0.170	0.510	-0.580	91.36	-0.80	-0.20	 	 	 	 	 	 	 	 	 	 	 	 	 	 	 	 	 	 	1581523457	2.11	3.91
12/02/2020 16:04:18	120220	12022020	160418	91.65	12.419155	-56.989492	91.71	-0.400	0.390	-1.030	91.65	-0.90	-0.60	 	 	 	 	 	 	 	 	 	 	 	 	 	 	 	 	 	 	1581523458	1.16	2.15
12/02/2020 16:04:19	120220	12022020	160419	91.70	12.419153	-56.989492	91.75	-0.800	0.340	-0.580	91.69	-0.90	-0.20	 	 	 	 	 	 	 	 	 	 	 	 	 	 	 	 	 	 	1581523459	0.33	0.61
12/02/2020 16:04:20	120220	12022020	160420	91.50	12.419148	-56.989493	91.57	-0.870	0.210	0.310	91.50	-1.10	0.70	 	 	 	 	 	 	 	 	 	 	 	 	 	 	 	 	 	 	1581523460	1.31	2.43
12/02/2020 16:04:21	120220	12022020	160421	91.17	12.419142	-56.989493	91.25	-0.580	-0.280	1.240	91.17	-1.60	1.70	 	 	 	 	 	 	 	 	 	 	 	 	 	 	 	 	 	 	1581523461	1.38	2.56
12/02/2020 16:04:22	120220	12022020	160422	90.76	12.419135	-56.989493	90.86	-0.130	-0.940	2.190	90.76	-2.20	2.60	 	 	 	 	 	 	 	 	 	 	 	 	 	 	 	 	 	 	1581523462	1.36	2.52
12/02/2020 16:04:23	120220	12022020	160423	90.45	12.419130	-56.989490	90.57	0.210	-1.260	2.860	90.45	-2.50	3.30	 	 	 	 	 	 	 	 	 	 	 	 	 	 	 	 	 	 	1581523463	1.24	2.30
12/02/2020 16:04:24	120220	12022020	160424	90.52	12.419127	-56.989490	90.67	0.400	-1.000	2.730	90.52	-2.20	3.10	 	 	 	 	 	 	 	 	 	 	 	 	 	 	 	 	 	 	1581523464	0.48	0.89
12/02/2020 16:04:25	120220	12022020	160425	90.95	12.419130	-56.989493	91.08	0.480	-0.330	1.810	90.95	-1.60	2.20	 	 	 	 	 	 	 	 	 	 	 	 	 	 	 	 	 	 	1581523465	0.82	1.52
12/02/2020 16:04:26	120220	12022020	160426	91.29	12.419137	-56.989495	91.38	0.490	0.180	0.840	91.29	-1.10	1.20	 	 	 	 	 	 	 	 	 	 	 	 	 	 	 	 	 	 	1581523466	1.49	2.76
12/02/2020 16:04:27	120220	12022020	160427	91.32	12.419143	-56.989495	91.38	0.410	0.210	0.290	91.32	-1.10	0.70	 	 	 	 	 	 	 	 	 	 	 	 	 	 	 	 	 	 	1581523467	1.16	2.15
12/02/2020 16:04:28	120220	12022020	160428	91.15	12.419145	-56.989493	91.21	0.180	0.110	0.140	91.15	-1.20	0.50	 	 	 	 	 	 	 	 	 	 	 	 	 	 	 	 	 	 	1581523468	0.59	1.09
12/02/2020 16:04:29	120220	12022020	160429	91.13	12.419145	-56.989493	91.19	-0.160	0.210	0.090	91.13	-1.10	0.50	 	 	 	 	 	 	 	 	 	 	 	 	 	 	 	 	 	 	1581523469	0.17	0.31
12/02/2020 16:04:30	120220	12022020	160430	91.24	12.419145	-56.989495	91.32	-0.500	0.370	0.250	91.24	-0.90	0.70	 	 	 	 	 	 	 	 	 	 	 	 	 	 	 	 	 	 	1581523470	0.26	0.48
12/02/2020 16:04:31	120220	12022020	160431	91.27	12.419143	-56.989497	91.34	-0.700	0.360	0.700	91.26	-0.90	1.10	 	 	 	 	 	 	 	 	 	 	 	 	 	 	 	 	 	 	1581523471	0.59	1.09
12/02/2020 16:04:32	120220	12022020	160432	91.19	12.419140	-56.989498	91.29	-0.650	0.140	1.150	91.19	-1.20	1.50	 	 	 	 	 	 	 	 	 	 	 	 	 	 	 	 	 	 	1581523472	0.75	1.39
12/02/2020 16:04:33	120220	12022020	160433	91.10	12.419137	-56.989498	91.17	-0.300	-0.380	1.440	91.08	-1.70	1.80	 	 	 	 	 	 	 	 	 	 	 	 	 	 	 	 	 	 	1581523473	0.53	0.98
12/02/2020 16:04:34	120220	12022020	160434	90.95	12.419137	-56.989497	91.05	0.280	-1.140	1.650	90.95	-2.50	2.00	 	 	 	 	 	 	 	 	 	 	 	 	 	 	 	 	 	 	1581523474	0.37	0.69
12/02/2020 16:04:35	120220	12022020	160435	90.90	12.419137	-56.989493	91.03	0.850	-1.720	1.750	90.90	-3.00	2.10	 	 	 	 	 	 	 	 	 	 	 	 	 	 	 	 	 	 	1581523475	0.72	1.33
12/02/2020 16:04:36	120220	12022020	160436	91.01	12.419138	-56.989490	91.14	1.070	-1.680	1.680	91.01	-3.00	2.10	 	 	 	 	 	 	 	 	 	 	 	 	 	 	 	 	 	 	1581523476	0.72	1.33
12/02/2020 16:04:37	120220	12022020	160437	91.21	12.419138	-56.989488	91.36	0.700	-0.730	1.500	91.21	-2.00	1.90	 	 	 	 	 	 	 	 	 	 	 	 	 	 	 	 	 	 	1581523477	0.25	0.46
12/02/2020 16:04:38	120220	12022020	160438	91.48	12.419138	-56.989492	91.61	-0.140	0.920	1.280	91.48	-0.30	1.70	 	 	 	 	 	 	 	 	 	 	 	 	 	 	 	 	 	 	1581523478	0.70	1.30
12/02/2020 16:04:39	120220	12022020	160439	91.67	12.419138	-56.989498	91.77	-1.030	2.330	1.140	91.67	1.00	1.50	 	 	 	 	 	 	 	 	 	 	 	 	 	 	 	 	 	 	1581523479	1.42	2.63
12/02/2020 16:04:40	120220	12022020	160440	91.69	12.419137	-56.989505	91.76	-1.490	2.560	1.100	91.69	1.20	1.50	 	 	 	 	 	 	 	 	 	 	 	 	 	 	 	 	 	 	1581523480	1.23	2.28
12/02/2020 16:04:41	120220	12022020	160441	91.46	12.419135	-56.989505	91.50	-1.230	1.250	1.060	91.46	-0.20	1.40	 	 	 	 	 	 	 	 	 	 	 	 	 	 	 	 	 	 	1581523481	0.35	0.65
12/02/2020 16:04:42	120220	12022020	160442	90.98	12.419137	-56.989500	91.00	-0.330	-1.080	0.950	90.98	-2.50	1.30	 	 	 	 	 	 	 	 	 	 	 	 	 	 	 	 	 	 	1581523482	1.05	1.94
12/02/2020 16:04:43	120220	12022020	160443	90.57	12.419138	-56.989492	90.62	0.680	-3.090	0.790	90.57	-4.40	1.20	 	 	 	 	 	 	 	 	 	 	 	 	 	 	 	 	 	 	1581523483	1.85	3.43
12/02/2020 16:04:44	120220	12022020	160444	90.60	12.419142	-56.989487	90.68	1.240	-3.450	0.580	90.60	-4.70	1.00	 	 	 	 	 	 	 	 	 	 	 	 	 	 	 	 	 	 	1581523484	1.46	2.70
12/02/2020 16:04:45	120220	12022020	160445	90.89	12.419145	-56.989488	91.05	1.160	-1.970	0.400	90.97	-3.20	0.80	 	 	 	 	 	 	 	 	 	 	 	 	 	 	 	 	 	 	1581523485	0.57	1.06
12/02/2020 16:04:46	120220	12022020	160446	91.35	12.419145	-56.989493	91.42	0.680	0.230	0.390	91.35	-1.00	0.80	 	 	 	 	 	 	 	 	 	 	 	 	 	 	 	 	 	 	1581523486	1.39	2.57
12/02/2020 16:04:47	120220	12022020	160447	91.49	12.419145	-56.989502	91.55	0.080	1.920	0.710	91.49	0.60	1.10	 	 	 	 	 	 	 	 	 	 	 	 	 	 	 	 	 	 	1581523487	1.48	2.74
12/02/2020 16:04:48	120220	12022020	160448	91.35	12.419142	-56.989505	91.40	-0.490	2.320	1.320	91.35	1.00	1.70	 	 	 	 	 	 	 	 	 	 	 	 	 	 	 	 	 	 	1581523488	0.94	1.74
12/02/2020 16:04:49	120220	12022020	160449	91.02	12.419137	-56.989503	91.09	-0.820	1.320	2.000	91.02	-0.00	2.40	 	 	 	 	 	 	 	 	 	 	 	 	 	 	 	 	 	 	1581523489	1.02	1.89
12/02/2020 16:04:50	120220	12022020	160450	90.69	12.419133	-56.989498	90.78	-0.830	-0.260	2.460	90.69	-1.60	2.80	 	 	 	 	 	 	 	 	 	 	 	 	 	 	 	 	 	 	1581523490	1.54	2.85
12/02/2020 16:04:51	120220	12022020	160451	90.61	12.419130	-56.989492	90.72	-0.550	-1.280	2.500	90.61	-2.60	2.90	 	 	 	 	 	 	 	 	 	 	 	 	 	 	 	 	 	 	1581523491	1.23	2.28
12/02/2020 16:04:52	120220	12022020	160452	90.70	12.419130	-56.989492	90.81	-0.180	-1.280	2.180	90.70	-2.60	2.50	 	 	 	 	 	 	 	 	 	 	 	 	 	 	 	 	 	 	1581523492	0.19	0.35
12/02/2020 16:04:53	120220	12022020	160453	90.74	12.419132	-56.989495	90.82	0.120	-0.760	1.680	90.74	-2.00	2.00	 	 	 	 	 	 	 	 	 	 	 	 	 	 	 	 	 	 	1581523493	0.74	1.37
12/02/2020 16:04:54	120220	12022020	160454	90.63	12.419137	-56.989497	90.69	0.290	-0.320	1.130	90.63	-1.60	1.50	 	 	 	 	 	 	 	 	 	 	 	 	 	 	 	 	 	 	1581523494	1.01	1.87
12/02/2020 16:04:55	120220	12022020	160455	90.57	12.419140	-56.989498	90.62	0.330	-0.160	0.520	90.57	-1.50	0.90	 	 	 	 	 	 	 	 	 	 	 	 	 	 	 	 	 	 	1581523495	0.93	1.72
12/02/2020 16:04:56	120220	12022020	160456	90.69	12.419143	-56.989498	90.75	0.340	-0.180	-0.160	90.69	-1.50	0.20	 	 	 	 	 	 	 	 	 	 	 	 	 	 	 	 	 	 	1581523496	0.81	1.50
12/02/2020 16:04:57	120220	12022020	160457	90.78	12.419147	-56.989497	90.81	0.430	-0.410	-0.490	90.77	-1.70	-0.10	 	 	 	 	 	 	 	 	 	 	 	 	 	 	 	 	 	 	1581523497	0.59	1.09
12/02/2020 16:04:58	120220	12022020	160458	90.41	12.419147	-56.989493	90.44	0.650	-0.850	-0.100	90.41	-2.20	0.30	 	 	 	 	 	 	 	 	 	 	 	 	 	 	 	 	 	 	1581523498	0.69	1.28
12/02/2020 16:04:59	120220	12022020	160459	89.84	12.419145	-56.989488	89.88	0.820	-0.990	0.610	89.84	-2.30	1.00	 	 	 	 	 	 	 	 	 	 	 	 	 	 	 	 	 	 	1581523499	1.05	1.94
12/02/2020 16:05:00	120220	12022020	160500	89.78	12.419143	-56.989487	89.88	0.510	-0.190	0.970	89.78	-1.40	1.40	 	 	 	 	 	 	 	 	 	 	 	 	 	 	 	 	 	 	1581523500	0.47	0.87
12/02/2020 16:05:01	120220	12022020	160501	90.47	12.419143	-56.989490	90.60	-0.420	1.300	1.050	90.47	0.00	1.40	 	 	 	 	 	 	 	 	 	 	 	 	 	 	 	 	 	 	1581523501	0.80	1.48
12/02/2020 16:05:02	120220	12022020	160502	91.30	12.419142	-56.989497	91.43	-1.540	2.350	1.260	91.30	1.00	1.70	1016.70	26.70	26.70	19.70	19.80	606.0	65.0	65.0	425.0	29.2	349.00	12.00	80.00	11.50	51301	11146.0	27.5	27.5	1581523502	1.63	3.02
12/02/2020 16:05:03	120220	12022020	160503	91.71	12.419137	-56.989503	91.83	-2.050	2.010	1.850	91.71	0.70	2.20	 	 	 	 	 	 	 	 	 	 	 	 	 	 	 	 	 	 	1581523503	1.73	3.20
12/02/2020 16:05:04	120220	12022020	160504	91.69	12.419128	-56.989502	91.79	-1.440	0.150	2.530	91.69	-1.20	2.90	 	 	 	 	 	 	 	 	 	 	 	 	 	 	 	 	 	 	1581523504	1.84	3.41
12/02/2020 16:05:05	120220	12022020	160505	91.30	12.419122	-56.989495	91.41	0.040	-2.290	3.010	91.30	-3.60	3.40	 	 	 	 	 	 	 	 	 	 	 	 	 	 	 	 	 	 	1581523505	2.06	3.82
12/02/2020 16:05:06	120220	12022020	160506	90.82	12.419118	-56.989487	90.96	1.550	-3.850	3.060	90.82	-5.10	3.40	 	 	 	 	 	 	 	 	 	 	 	 	 	 	 	 	 	 	1581523506	1.96	3.63
12/02/2020 16:05:07	120220	12022020	160507	90.59	12.419122	-56.989482	90.73	2.270	-3.350	2.600	90.59	-4.60	2.90	 	 	 	 	 	 	 	 	 	 	 	 	 	 	 	 	 	 	1581523507	1.21	2.24
12/02/2020 16:05:08	120220	12022020	160508	90.72	12.419128	-56.989485	90.86	1.850	-0.980	1.700	90.72	-2.20	2.00	 	 	 	 	 	 	 	 	 	 	 	 	 	 	 	 	 	 	1581523508	1.63	3.02
12/02/2020 16:05:09	120220	12022020	160509	91.06	12.419137	-56.989493	91.27	0.580	1.730	0.480	91.15	0.50	0.80	 	 	 	 	 	 	 	 	 	 	 	 	 	 	 	 	 	 	1581523509	2.55	4.72
12/02/2020 16:05:10	120220	12022020	160510	91.65	12.419143	-56.989502	91.73	-0.840	3.210	-0.720	91.65	1.90	-0.40	 	 	 	 	 	 	 	 	 	 	 	 	 	 	 	 	 	 	1581523510	2.25	4.17
12/02/2020 16:05:11	120220	12022020	160511	91.94	12.419147	-56.989505	91.99	-1.750	2.930	-1.300	91.94	1.60	-0.90	 	 	 	 	 	 	 	 	 	 	 	 	 	 	 	 	 	 	1581523511	0.89	1.65
12/02/2020 16:05:12	120220	12022020	160512	91.95	12.419145	-56.989502	92.01	-1.820	1.290	-0.980	91.95	-0.10	-0.60	 	 	 	 	 	 	 	 	 	 	 	 	 	 	 	 	 	 	1581523512	0.71	1.31
12/02/2020 16:05:13	120220	12022020	160513	91.83	12.419138	-56.989497	91.90	-1.150	-0.760	-0.100	91.83	-2.10	0.30	 	 	 	 	 	 	 	 	 	 	 	 	 	 	 	 	 	 	1581523513	1.74	3.22
12/02/2020 16:05:14	120220	12022020	160514	91.63	12.419132	-56.989492	91.71	-0.150	-2.280	0.860	91.63	-3.60	1.30	 	 	 	 	 	 	 	 	 	 	 	 	 	 	 	 	 	 	1581523514	1.79	3.32
12/02/2020 16:05:15	120220	12022020	160515	91.32	12.419127	-56.989490	91.40	0.730	-2.770	1.720	91.32	-4.00	2.10	 	 	 	 	 	 	 	 	 	 	 	 	 	 	 	 	 	 	1581523515	1.25	2.31
12/02/2020 16:05:16	120220	12022020	160516	90.87	12.419123	-56.989490	90.97	1.220	-2.220	2.450	90.87	-3.50	2.80	 	 	 	 	 	 	 	 	 	 	 	 	 	 	 	 	 	 	1581523516	0.76	1.41
12/02/2020 16:05:17	120220	12022020	160517	90.53	12.419122	-56.989492	90.66	1.270	-0.980	2.800	90.53	-2.20	3.20	 	 	 	 	 	 	 	 	 	 	 	 	 	 	 	 	 	 	1581523517	0.49	0.91
12/02/2020 16:05:18	120220	12022020	160518	90.58	12.419123	-56.989493	90.71	0.960	0.430	2.400	90.58	-0.90	2.80	 	 	 	 	 	 	 	 	 	 	 	 	 	 	 	 	 	 	1581523518	0.74	1.37
12/02/2020 16:05:19	120220	12022020	160519	90.95	12.419130	-56.989497	91.06	0.350	1.470	1.400	90.95	0.20	1.70	 	 	 	 	 	 	 	 	 	 	 	 	 	 	 	 	 	 	1581523519	1.39	2.57
12/02/2020 16:05:20	120220	12022020	160520	91.38	12.419135	-56.989498	91.47	-0.360	1.750	0.350	91.38	0.40	0.70	 	 	 	 	 	 	 	 	 	 	 	 	 	 	 	 	 	 	1581523520	1.44	2.67
12/02/2020 16:05:21	120220	12022020	160521	91.65	12.419140	-56.989498	91.71	-0.880	1.160	-0.290	91.65	-0.20	0.10	 	 	 	 	 	 	 	 	 	 	 	 	 	 	 	 	 	 	1581523521	0.83	1.54
12/02/2020 16:05:22	120220	12022020	160522	91.65	12.419138	-56.989497	91.69	-1.010	0.070	-0.310	91.65	-1.30	0.10	 	 	 	 	 	 	 	 	 	 	 	 	 	 	 	 	 	 	1581523522	0.57	1.06
12/02/2020 16:05:23	120220	12022020	160523	91.47	12.419135	-56.989493	91.45	-0.790	-0.930	0.120	91.41	-2.30	0.50	 	 	 	 	 	 	 	 	 	 	 	 	 	 	 	 	 	 	1581523523	1.17	2.17
12/02/2020 16:05:24	120220	12022020	160524	91.00	12.419128	-56.989490	91.03	-0.320	-1.460	0.700	91.00	-2.80	1.10	 	 	 	 	 	 	 	 	 	 	 	 	 	 	 	 	 	 	1581523524	1.28	2.37
12/02/2020 16:05:25	120220	12022020	160525	90.58	12.419125	-56.989490	90.63	0.280	-1.480	1.080	90.58	-2.80	1.50	 	 	 	 	 	 	 	 	 	 	 	 	 	 	 	 	 	 	1581523525	0.80	1.48
12/02/2020 16:05:26	120220	12022020	160526	90.31	12.419125	-56.989490	90.38	0.830	-1.080	1.100	90.31	-2.40	1.50	 	 	 	 	 	 	 	 	 	 	 	 	 	 	 	 	 	 	1581523526	0.08	0.15
12/02/2020 16:05:27	120220	12022020	160527	90.31	12.419128	-56.989492	90.40	1.060	-0.370	0.820	90.31	-1.70	1.20	 	 	 	 	 	 	 	 	 	 	 	 	 	 	 	 	 	 	1581523527	0.81	1.50
12/02/2020 16:05:28	120220	12022020	160528	90.75	12.419133	-56.989493	90.85	0.790	0.370	0.360	90.75	-0.90	0.70	 	 	 	 	 	 	 	 	 	 	 	 	 	 	 	 	 	 	1581523528	1.13	2.09
12/02/2020 16:05:29	120220	12022020	160529	91.39	12.419137	-56.989495	91.49	0.100	0.810	0.110	91.39	-0.50	0.50	 	 	 	 	 	 	 	 	 	 	 	 	 	 	 	 	 	 	1581523529	0.73	1.35
12/02/2020 16:05:30	120220	12022020	160530	91.70	12.419135	-56.989495	91.78	-0.600	0.750	0.470	91.70	-0.60	0.90	 	 	 	 	 	 	 	 	 	 	 	 	 	 	 	 	 	 	1581523530	0.48	0.89
12/02/2020 16:05:31	120220	12022020	160531	91.45	12.419128	-56.989495	91.51	-0.790	0.310	1.410	91.45	-1.00	1.80	 	 	 	 	 	 	 	 	 	 	 	 	 	 	 	 	 	 	1581523531	1.50	2.78
12/02/2020 16:05:32	120220	12022020	160532	90.82	12.419120	-56.989493	90.90	-0.410	-0.230	2.340	90.82	-1.60	2.80	 	 	 	 	 	 	 	 	 	 	 	 	 	 	 	 	 	 	1581523532	1.62	3.00
12/02/2020 16:05:33	120220	12022020	160533	90.34	12.419117	-56.989492	90.33	0.180	-0.730	2.840	90.24	-2.10	3.20	 	 	 	 	 	 	 	 	 	 	 	 	 	 	 	 	 	 	1581523533	0.88	1.63
12/02/2020 16:05:34	120220	12022020	160534	90.00	12.419118	-56.989488	90.11	0.560	-1.160	2.720	90.00	-2.50	3.10	 	 	 	 	 	 	 	 	 	 	 	 	 	 	 	 	 	 	1581523534	0.47	0.87
12/02/2020 16:05:35	120220	12022020	160535	90.14	12.419122	-56.989487	90.26	0.620	-1.290	2.100	90.14	-2.60	2.50	 	 	 	 	 	 	 	 	 	 	 	 	 	 	 	 	 	 	1581523535	0.89	1.65
12/02/2020 16:05:36	120220	12022020	160536	90.61	12.419125	-56.989485	90.72	0.410	-0.720	1.160	90.61	-2.00	1.50	 	 	 	 	 	 	 	 	 	 	 	 	 	 	 	 	 	 	1581523536	1.02	1.89
12/02/2020 16:05:37	120220	12022020	160537	91.19	12.419130	-56.989488	91.27	0.070	0.440	0.260	91.19	-0.90	0.60	 	 	 	 	 	 	 	 	 	 	 	 	 	 	 	 	 	 	1581523537	1.19	2.20
12/02/2020 16:05:38	120220	12022020	160538	91.43	12.419133	-56.989493	91.48	-0.320	1.250	-0.150	91.43	-0.10	0.20	 	 	 	 	 	 	 	 	 	 	 	 	 	 	 	 	 	 	1581523538	1.21	2.24
12/02/2020 16:05:39	120220	12022020	160539	91.10	12.419133	-56.989495	91.13	-0.620	1.080	0.190	91.10	-0.30	0.60	 	 	 	 	 	 	 	 	 	 	 	 	 	 	 	 	 	 	1581523539	0.42	0.78
12/02/2020 16:05:40	120220	12022020	160540	90.43	12.419130	-56.989493	90.46	-0.680	0.140	0.920	90.43	-1.20	1.30	 	 	 	 	 	 	 	 	 	 	 	 	 	 	 	 	 	 	1581523540	1.03	1.91
12/02/2020 16:05:41	120220	12022020	160541	89.92	12.419125	-56.989488	89.99	-0.400	-0.850	1.380	89.92	-2.20	1.80	 	 	 	 	 	 	 	 	 	 	 	 	 	 	 	 	 	 	1581523541	1.25	2.31
12/02/2020 16:05:42	120220	12022020	160542	89.88	12.419123	-56.989485	89.97	0.120	-1.340	1.430	89.88	-2.70	1.80	 	 	 	 	 	 	 	 	 	 	 	 	 	 	 	 	 	 	1581523542	0.72	1.33
12/02/2020 16:05:43	120220	12022020	160543	90.24	12.419125	-56.989485	90.35	0.620	-1.250	1.190	90.24	-2.60	1.60	 	 	 	 	 	 	 	 	 	 	 	 	 	 	 	 	 	 	1581523543	0.30	0.56
12/02/2020 16:05:44	120220	12022020	160544	90.60	12.419127	-56.989485	90.69	0.840	-0.850	0.930	90.60	-2.20	1.30	 	 	 	 	 	 	 	 	 	 	 	 	 	 	 	 	 	 	1581523544	0.53	0.98
12/02/2020 16:05:45	120220	12022020	160545	90.65	12.419130	-56.989485	90.68	0.690	-0.190	0.870	90.63	-1.50	1.30	 	 	 	 	 	 	 	 	 	 	 	 	 	 	 	 	 	 	1581523545	0.49	0.91
12/02/2020 16:05:46	120220	12022020	160546	90.35	12.419130	-56.989487	90.38	0.310	0.540	1.030	90.35	-0.80	1.40	 	 	 	 	 	 	 	 	 	 	 	 	 	 	 	 	 	 	1581523546	0.42	0.78
12/02/2020 16:05:47	120220	12022020	160547	90.03	12.419130	-56.989488	89.99	-0.040	0.820	1.320	89.96	-0.50	1.70	 	 	 	 	 	 	 	 	 	 	 	 	 	 	 	 	 	 	1581523547	0.34	0.63
12/02/2020 16:05:48	120220	12022020	160548	89.64	12.419128	-56.989488	89.70	-0.180	0.400	1.620	89.64	-1.00	2.00	 	 	 	 	 	 	 	 	 	 	 	 	 	 	 	 	 	 	1581523548	0.30	0.56
12/02/2020 16:05:49	120220	12022020	160549	89.51	12.419128	-56.989485	89.59	-0.140	-0.410	1.740	89.51	-1.80	2.10	 	 	 	 	 	 	 	 	 	 	 	 	 	 	 	 	 	 	1581523549	0.76	1.41
12/02/2020 16:05:50	120220	12022020	160550	89.57	12.419130	-56.989480	89.65	-0.140	-0.840	1.540	89.57	-2.20	1.90	 	 	 	 	 	 	 	 	 	 	 	 	 	 	 	 	 	 	1581523550	0.89	1.65
12/02/2020 16:05:51	120220	12022020	160551	89.86	12.419133	-56.989480	89.94	-0.340	-0.420	1.070	89.86	-1.70	1.50	 	 	 	 	 	 	 	 	 	 	 	 	 	 	 	 	 	 	1581523551	0.56	1.04
12/02/2020 16:05:52	120220	12022020	160552	90.19	12.419133	-56.989483	90.27	-0.660	0.300	0.840	90.19	-1.00	1.20	 	 	 	 	 	 	 	 	 	 	 	 	 	 	 	 	 	 	1581523552	0.76	1.41
12/02/2020 16:05:53	120220	12022020	160553	90.34	12.419132	-56.989487	90.41	-0.800	0.540	1.060	90.34	-0.80	1.50	 	 	 	 	 	 	 	 	 	 	 	 	 	 	 	 	 	 	1581523553	0.90	1.67
12/02/2020 16:05:54	120220	12022020	160554	90.28	12.419127	-56.989487	90.34	-0.520	0.040	1.430	90.28	-1.30	1.80	 	 	 	 	 	 	 	 	 	 	 	 	 	 	 	 	 	 	1581523554	0.87	1.61
12/02/2020 16:05:55	120220	12022020	160555	90.05	12.419123	-56.989483	90.11	0.130	-0.860	1.700	90.05	-2.20	2.10	 	 	 	 	 	 	 	 	 	 	 	 	 	 	 	 	 	 	1581523555	0.91	1.69
12/02/2020 16:05:56	120220	12022020	160556	89.73	12.419123	-56.989480	89.80	0.800	-1.510	1.760	89.73	-2.80	2.20	 	 	 	 	 	 	 	 	 	 	 	 	 	 	 	 	 	 	1581523556	1.01	1.87
12/02/2020 16:05:57	120220	12022020	160557	89.57	12.419125	-56.989477	89.65	1.110	-1.310	1.550	89.57	-2.60	1.90	 	 	 	 	 	 	 	 	 	 	 	 	 	 	 	 	 	 	1581523557	0.81	1.50
12/02/2020 16:05:58	120220	12022020	160558	89.70	12.419130	-56.989477	89.78	0.860	-0.260	1.060	89.70	-1.50	1.40	 	 	 	 	 	 	 	 	 	 	 	 	 	 	 	 	 	 	1581523558	0.94	1.74
12/02/2020 16:05:59	120220	12022020	160559	89.91	12.419135	-56.989482	90.02	0.190	0.920	0.620	89.95	-0.40	1.00	 	 	 	 	 	 	 	 	 	 	 	 	 	 	 	 	 	 	1581523559	1.41	2.61
12/02/2020 16:06:00	120220	12022020	160600	90.02	12.419138	-56.989485	90.07	-0.470	1.290	0.590	90.02	-0.10	1.00	 	 	 	 	 	 	 	 	 	 	 	 	 	 	 	 	 	 	1581523560	0.97	1.80
12/02/2020 16:06:01	120220	12022020	160601	89.96	12.419137	-56.989485	90.00	-0.720	0.630	0.800	89.94	-0.70	1.20	 	 	 	 	 	 	 	 	 	 	 	 	 	 	 	 	 	 	1581523561	0.17	0.31
12/02/2020 16:06:02	120220	12022020	160602	89.97	12.419137	-56.989480	90.05	-0.580	-0.370	0.890	89.97	-1.70	1.30	1016.60	26.70	26.80	19.40	19.50	823.0	64.0	64.0	419.0	29.1	350.00	12.30	81.00	11.80	63748	17394.0	27.5	27.5	1581523562	0.92	1.70
12/02/2020 16:06:03	120220	12022020	160603	90.20	12.419135	-56.989477	90.29	-0.320	-0.930	0.900	90.20	-2.30	1.30	 	 	 	 	 	 	 	 	 	 	 	 	 	 	 	 	 	 	1581523563	0.77	1.43
12/02/2020 16:06:04	120220	12022020	160604	90.41	12.419133	-56.989477	90.50	-0.160	-0.820	1.130	90.41	-2.10	1.50	 	 	 	 	 	 	 	 	 	 	 	 	 	 	 	 	 	 	1581523564	0.37	0.69
12/02/2020 16:06:05	120220	12022020	160605	90.35	12.419130	-56.989478	90.43	-0.150	-0.390	1.600	90.35	-1.70	2.00	 	 	 	 	 	 	 	 	 	 	 	 	 	 	 	 	 	 	1581523565	0.78	1.44
12/02/2020 16:06:06	120220	12022020	160606	90.12	12.419127	-56.989480	90.20	-0.170	-0.060	1.940	90.12	-1.40	2.30	 	 	 	 	 	 	 	 	 	 	 	 	 	 	 	 	 	 	1581523566	0.81	1.50
12/02/2020 16:06:07	120220	12022020	160607	89.93	12.419125	-56.989480	90.01	-0.110	-0.060	1.850	89.93	-1.40	2.20	 	 	 	 	 	 	 	 	 	 	 	 	 	 	 	 	 	 	1581523567	0.31	0.57
12/02/2020 16:06:08	120220	12022020	160608	89.89	12.419127	-56.989478	89.96	0.130	-0.330	1.420	89.89	-1.70	1.80	 	 	 	 	 	 	 	 	 	 	 	 	 	 	 	 	 	 	1581523568	0.43	0.80
12/02/2020 16:06:09	120220	12022020	160609	89.91	12.419130	-56.989477	89.97	0.470	-0.620	0.880	89.91	-2.00	1.30	 	 	 	 	 	 	 	 	 	 	 	 	 	 	 	 	 	 	1581523569	0.94	1.74
12/02/2020 16:06:10	120220	12022020	160610	89.89	12.419135	-56.989475	89.94	0.680	-0.670	0.420	89.89	-2.00	0.80	 	 	 	 	 	 	 	 	 	 	 	 	 	 	 	 	 	 	1581523570	1.07	1.98
12/02/2020 16:06:11	120220	12022020	160611	89.91	12.419138	-56.989473	89.97	0.550	-0.270	0.070	89.92	-1.60	0.50	 	 	 	 	 	 	 	 	 	 	 	 	 	 	 	 	 	 	1581523571	0.87	1.61
12/02/2020 16:06:12	120220	12022020	160612	90.08	12.419142	-56.989475	90.13	0.050	0.490	-0.130	90.08	-0.80	0.30	 	 	 	 	 	 	 	 	 	 	 	 	 	 	 	 	 	 	1581523572	0.70	1.30
12/02/2020 16:06:13	120220	12022020	160613	90.25	12.419143	-56.989478	90.34	-0.610	1.090	-0.110	90.29	-0.30	0.30	 	 	 	 	 	 	 	 	 	 	 	 	 	 	 	 	 	 	1581523573	0.82	1.52
12/02/2020 16:06:14	120220	12022020	160614	90.30	12.419142	-56.989482	90.35	-1.070	0.970	0.330	90.30	-0.40	0.80	 	 	 	 	 	 	 	 	 	 	 	 	 	 	 	 	 	 	1581523574	0.70	1.30
12/02/2020 16:06:15	120220	12022020	160615	90.13	12.419137	-56.989482	90.17	-1.030	-0.020	1.080	90.13	-1.40	1.50	 	 	 	 	 	 	 	 	 	 	 	 	 	 	 	 	 	 	1581523575	1.10	2.04
12/02/2020 16:06:16	120220	12022020	160616	89.90	12.419130	-56.989477	89.95	-0.440	-1.400	1.730	89.90	-2.80	2.10	 	 	 	 	 	 	 	 	 	 	 	 	 	 	 	 	 	 	1581523576	1.59	2.94
12/02/2020 16:06:17	120220	12022020	160617	89.56	12.419127	-56.989470	89.63	0.420	-2.260	2.140	89.56	-3.60	2.50	 	 	 	 	 	 	 	 	 	 	 	 	 	 	 	 	 	 	1581523577	1.48	2.74
12/02/2020 16:06:18	120220	12022020	160618	89.26	12.419127	-56.989468	89.35	1.000	-1.790	2.230	89.26	-3.10	2.60	 	 	 	 	 	 	 	 	 	 	 	 	 	 	 	 	 	 	1581523578	0.68	1.26
12/02/2020 16:06:19	120220	12022020	160619	89.40	12.419128	-56.989470	89.50	0.860	-0.130	1.840	89.40	-1.40	2.20	 	 	 	 	 	 	 	 	 	 	 	 	 	 	 	 	 	 	1581523579	0.79	1.46
12/02/2020 16:06:20	120220	12022020	160620	89.87	12.419132	-56.989478	89.96	0.170	1.410	1.120	89.87	0.10	1.50	 	 	 	 	 	 	 	 	 	 	 	 	 	 	 	 	 	 	1581523580	1.69	3.13
12/02/2020 16:06:21	120220	12022020	160621	90.17	12.419135	-56.989483	90.21	-0.450	1.760	0.530	90.17	0.40	0.90	 	 	 	 	 	 	 	 	 	 	 	 	 	 	 	 	 	 	1581523581	1.26	2.33
12/02/2020 16:06:22	120220	12022020	160622	90.07	12.419137	-56.989482	90.08	-0.540	0.940	0.260	90.07	-0.50	0.70	 	 	 	 	 	 	 	 	 	 	 	 	 	 	 	 	 	 	1581523582	0.50	0.93
12/02/2020 16:06:23	120220	12022020	160623	89.84	12.419138	-56.989478	89.84	-0.240	-0.270	0.130	89.84	-1.70	0.50	 	 	 	 	 	 	 	 	 	 	 	 	 	 	 	 	 	 	1581523583	0.86	1.59
12/02/2020 16:06:24	120220	12022020	160624	89.70	12.419140	-56.989475	89.72	0.030	-1.200	0.190	89.70	-2.60	0.60	 	 	 	 	 	 	 	 	 	 	 	 	 	 	 	 	 	 	1581523584	0.80	1.48
12/02/2020 16:06:25	120220	12022020	160625	89.64	12.419138	-56.989473	89.69	0.030	-1.480	0.520	89.64	-2.80	0.90	 	 	 	 	 	 	 	 	 	 	 	 	 	 	 	 	 	 	1581523585	0.51	0.94
12/02/2020 16:06:26	120220	12022020	160626	89.63	12.419135	-56.989473	89.69	-0.140	-1.090	1.040	89.63	-2.40	1.40	 	 	 	 	 	 	 	 	 	 	 	 	 	 	 	 	 	 	1581523586	0.83	1.54
12/02/2020 16:06:27	120220	12022020	160627	89.57	12.419132	-56.989477	89.64	-0.170	-0.460	1.440	89.57	-1.80	1.80	 	 	 	 	 	 	 	 	 	 	 	 	 	 	 	 	 	 	1581523587	0.90	1.67
12/02/2020 16:06:28	120220	12022020	160628	89.47	12.419130	-56.989478	89.53	-0.020	0.070	1.500	89.47	-1.30	1.90	 	 	 	 	 	 	 	 	 	 	 	 	 	 	 	 	 	 	1581523588	0.40	0.74
12/02/2020 16:06:29	120220	12022020	160629	89.37	12.419132	-56.989478	89.43	0.110	0.370	1.340	89.37	-1.00	1.70	 	 	 	 	 	 	 	 	 	 	 	 	 	 	 	 	 	 	1581523589	0.29	0.54
12/02/2020 16:06:30	120220	12022020	160630	89.41	12.419132	-56.989478	89.47	0.060	0.500	1.170	89.41	-0.80	1.60	 	 	 	 	 	 	 	 	 	 	 	 	 	 	 	 	 	 	1581523590	0.23	0.43
12/02/2020 16:06:31	120220	12022020	160631	89.69	12.419132	-56.989480	89.77	-0.090	0.460	1.010	89.69	-0.90	1.40	 	 	 	 	 	 	 	 	 	 	 	 	 	 	 	 	 	 	1581523591	0.10	0.19
12/02/2020 16:06:32	120220	12022020	160632	90.07	12.419132	-56.989480	90.12	-0.090	0.090	0.850	90.07	-1.30	1.20	 	 	 	 	 	 	 	 	 	 	 	 	 	 	 	 	 	 	1581523592	0.14	0.26
12/02/2020 16:06:33	120220	12022020	160633	90.09	12.419130	-56.989478	90.10	0.170	-0.660	0.890	90.09	-2.00	1.30	 	 	 	 	 	 	 	 	 	 	 	 	 	 	 	 	 	 	1581523593	0.42	0.78
12/02/2020 16:06:34	120220	12022020	160634	89.67	12.419130	-56.989473	89.67	0.470	-1.270	1.100	89.67	-2.60	1.50	 	 	 	 	 	 	 	 	 	 	 	 	 	 	 	 	 	 	1581523594	0.78	1.44
12/02/2020 16:06:35	120220	12022020	160635	89.27	12.419130	-56.989472	89.30	0.430	-1.070	1.270	89.27	-2.40	1.70	 	 	 	 	 	 	 	 	 	 	 	 	 	 	 	 	 	 	1581523595	0.47	0.87
12/02/2020 16:06:36	120220	12022020	160636	89.22	12.419132	-56.989473	89.27	0.060	-0.010	1.370	89.22	-1.30	1.80	 	 	 	 	 	 	 	 	 	 	 	 	 	 	 	 	 	 	1581523596	0.56	1.04
12/02/2020 16:06:37	120220	12022020	160637	89.40	12.419133	-56.989480	89.51	-0.360	1.090	1.320	89.46	-0.20	1.70	 	 	 	 	 	 	 	 	 	 	 	 	 	 	 	 	 	 	1581523597	1.25	2.31
12/02/2020 16:06:38	120220	12022020	160638	89.78	12.419135	-56.989485	89.81	-0.460	1.190	1.000	89.78	-0.20	1.40	 	 	 	 	 	 	 	 	 	 	 	 	 	 	 	 	 	 	1581523598	1.00	1.85
12/02/2020 16:06:39	120220	12022020	160639	89.84	12.419137	-56.989483	89.85	-0.170	-0.010	0.770	89.84	-1.40	1.20	 	 	 	 	 	 	 	 	 	 	 	 	 	 	 	 	 	 	1581523599	0.49	0.91
12/02/2020 16:06:40	120220	12022020	160640	89.65	12.419137	-56.989477	89.66	0.200	-1.520	0.910	89.65	-2.90	1.30	 	 	 	 	 	 	 	 	 	 	 	 	 	 	 	 	 	 	1581523600	1.45	2.69
12/02/2020 16:06:41	120220	12022020	160641	89.62	12.419133	-56.989470	89.67	0.300	-1.980	1.220	89.62	-3.30	1.60	 	 	 	 	 	 	 	 	 	 	 	 	 	 	 	 	 	 	1581523601	1.37	2.54
12/02/2020 16:06:42	120220	12022020	160642	89.85	12.419128	-56.989470	89.91	0.130	-1.080	1.500	89.85	-2.40	1.90	 	 	 	 	 	 	 	 	 	 	 	 	 	 	 	 	 	 	1581523602	1.02	1.89
12/02/2020 16:06:43	120220	12022020	160643	89.91	12.419125	-56.989475	89.94	-0.040	0.250	1.790	89.91	-1.00	2.20	 	 	 	 	 	 	 	 	 	 	 	 	 	 	 	 	 	 	1581523603	1.43	2.65
12/02/2020 16:06:44	120220	12022020	160644	89.67	12.419122	-56.989478	89.69	-0.100	1.010	1.740	89.67	-0.30	2.10	 	 	 	 	 	 	 	 	 	 	 	 	 	 	 	 	 	 	1581523604	0.93	1.72
12/02/2020 16:06:45	120220	12022020	160645	89.53	12.419125	-56.989480	89.55	-0.180	1.100	1.020	89.53	-0.20	1.40	 	 	 	 	 	 	 	 	 	 	 	 	 	 	 	 	 	 	1581523605	0.72	1.33
12/02/2020 16:06:46	120220	12022020	160646	89.63	12.419132	-56.989480	89.64	-0.300	0.710	0.100	89.63	-0.60	0.50	 	 	 	 	 	 	 	 	 	 	 	 	 	 	 	 	 	 	1581523606	1.43	2.65
12/02/2020 16:06:47	120220	12022020	160647	89.74	12.419138	-56.989480	89.74	-0.240	-0.000	-0.430	89.74	-1.40	-0.00	 	 	 	 	 	 	 	 	 	 	 	 	 	 	 	 	 	 	1581523607	1.29	2.39
12/02/2020 16:06:48	120220	12022020	160648	89.79	12.419142	-56.989477	89.79	0.080	-0.890	-0.530	89.79	-2.20	-0.10	 	 	 	 	 	 	 	 	 	 	 	 	 	 	 	 	 	 	1581523608	0.84	1.56
12/02/2020 16:06:49	120220	12022020	160649	89.85	12.419142	-56.989475	89.88	0.430	-1.490	-0.320	89.86	-2.80	0.10	 	 	 	 	 	 	 	 	 	 	 	 	 	 	 	 	 	 	1581523609	0.65	1.20
12/02/2020 16:06:50	120220	12022020	160650	89.99	12.419140	-56.989472	90.02	0.470	-1.360	0.160	89.99	-2.70	0.60	 	 	 	 	 	 	 	 	 	 	 	 	 	 	 	 	 	 	1581523610	0.57	1.06
12/02/2020 16:06:51	120220	12022020	160651	90.05	12.419137	-56.989473	90.08	0.200	-0.640	0.840	90.04	-1.90	1.20	 	 	 	 	 	 	 	 	 	 	 	 	 	 	 	 	 	 	1581523611	0.95	1.76
12/02/2020 16:06:52	120220	12022020	160652	89.90	12.419132	-56.989477	89.95	-0.110	0.010	1.640	89.90	-1.30	2.00	 	 	 	 	 	 	 	 	 	 	 	 	 	 	 	 	 	 	1581523612	1.24	2.30
12/02/2020 16:06:53	120220	12022020	160653	89.63	12.419125	-56.989477	89.69	-0.200	0.250	2.430	89.63	-1.10	2.80	 	 	 	 	 	 	 	 	 	 	 	 	 	 	 	 	 	 	1581523613	1.29	2.39
12/02/2020 16:06:54	120220	12022020	160654	89.53	12.419120	-56.989475	89.60	-0.110	0.390	2.760	89.53	-0.90	3.10	 	 	 	 	 	 	 	 	 	 	 	 	 	 	 	 	 	 	1581523614	1.04	1.93
12/02/2020 16:06:55	120220	12022020	160655	89.64	12.419120	-56.989475	89.72	-0.050	0.630	2.400	89.64	-0.70	2.70	 	 	 	 	 	 	 	 	 	 	 	 	 	 	 	 	 	 	1581523615	0.06	0.11
12/02/2020 16:06:56	120220	12022020	160656	89.85	12.419125	-56.989477	89.92	-0.150	0.620	1.510	89.85	-0.70	1.90	 	 	 	 	 	 	 	 	 	 	 	 	 	 	 	 	 	 	1581523616	1.08	2.00
12/02/2020 16:06:57	120220	12022020	160657	89.95	12.419132	-56.989478	89.97	-0.260	0.020	0.650	89.95	-1.30	1.00	 	 	 	 	 	 	 	 	 	 	 	 	 	 	 	 	 	 	1581523617	1.45	2.69
12/02/2020 16:06:58	120220	12022020	160658	89.90	12.419137	-56.989475	89.91	-0.170	-0.930	0.150	89.90	-2.30	0.50	 	 	 	 	 	 	 	 	 	 	 	 	 	 	 	 	 	 	1581523618	1.13	2.09
12/02/2020 16:06:59	120220	12022020	160659	89.79	12.419137	-56.989472	89.77	0.080	-1.360	-0.050	89.75	-2.70	0.30	 	 	 	 	 	 	 	 	 	 	 	 	 	 	 	 	 	 	1581523619	0.81	1.50
12/02/2020 16:07:00	120220	12022020	160700	89.64	12.419137	-56.989472	89.67	0.250	-0.810	-0.080	89.64	-2.10	0.30	 	 	 	 	 	 	 	 	 	 	 	 	 	 	 	 	 	 	1581523620	0.11	0.20
12/02/2020 16:07:01	120220	12022020	160701	89.67	12.419137	-56.989475	89.73	0.180	0.130	0.020	89.69	-1.20	0.40	 	 	 	 	 	 	 	 	 	 	 	 	 	 	 	 	 	 	1581523621	0.81	1.50
12/02/2020 16:07:02	120220	12022020	160702	89.79	12.419135	-56.989478	89.83	-0.040	0.630	0.260	89.79	-0.70	0.60	1016.60	26.70	26.80	19.60	19.60	1171.0	64.0	64.0	421.0	29.4	354.00	11.20	84.00	10.80	80710	13251.0	27.5	27.5	1581523622	0.88	1.63
12/02/2020 16:07:03	120220	12022020	160703	89.76	12.419133	-56.989480	89.77	-0.130	0.280	0.610	89.74	-1.10	1.00	 	 	 	 	 	 	 	 	 	 	 	 	 	 	 	 	 	 	1581523623	0.27	0.50
12/02/2020 16:07:04	120220	12022020	160704	89.55	12.419133	-56.989477	89.58	0.060	-0.620	1.010	89.55	-2.00	1.40	 	 	 	 	 	 	 	 	 	 	 	 	 	 	 	 	 	 	1581523624	0.70	1.30
12/02/2020 16:07:05	120220	12022020	160705	89.36	12.419132	-56.989472	89.40	0.340	-1.240	1.400	89.36	-2.60	1.80	 	 	 	 	 	 	 	 	 	 	 	 	 	 	 	 	 	 	1581523625	1.06	1.96
12/02/2020 16:07:06	120220	12022020	160706	89.39	12.419132	-56.989470	89.46	0.330	-0.880	1.730	89.39	-2.20	2.10	 	 	 	 	 	 	 	 	 	 	 	 	 	 	 	 	 	 	1581523626	0.53	0.98
12/02/2020 16:07:07	120220	12022020	160707	89.67	12.419130	-56.989472	89.75	-0.040	0.170	1.890	89.67	-1.10	2.30	 	 	 	 	 	 	 	 	 	 	 	 	 	 	 	 	 	 	1581523627	0.72	1.33
12/02/2020 16:07:08	120220	12022020	160708	90.00	12.419128	-56.989477	90.07	-0.410	0.950	1.870	90.00	-0.40	2.20	 	 	 	 	 	 	 	 	 	 	 	 	 	 	 	 	 	 	1581523628	1.07	1.98
12/02/2020 16:07:09	120220	12022020	160709	90.07	12.419127	-56.989478	90.13	-0.470	0.790	1.860	90.07	-0.60	2.20	 	 	 	 	 	 	 	 	 	 	 	 	 	 	 	 	 	 	1581523629	0.48	0.89
12/02/2020 16:07:10	120220	12022020	160710	89.88	12.419125	-56.989477	89.92	-0.230	-0.040	1.780	89.88	-1.40	2.10	 	 	 	 	 	 	 	 	 	 	 	 	 	 	 	 	 	 	1581523630	0.54	1.00
12/02/2020 16:07:11	120220	12022020	160711	89.64	12.419125	-56.989473	89.68	0.050	-0.760	1.490	89.64	-2.10	1.80	 	 	 	 	 	 	 	 	 	 	 	 	 	 	 	 	 	 	1581523631	0.79	1.46
12/02/2020 16:07:12	120220	12022020	160712	89.56	12.419128	-56.989472	89.60	0.190	-0.820	0.930	89.56	-2.10	1.30	 	 	 	 	 	 	 	 	 	 	 	 	 	 	 	 	 	 	1581523632	0.61	1.13
12/02/2020 16:07:13	120220	12022020	160713	89.59	12.419132	-56.989473	89.63	0.120	-0.380	0.320	89.59	-1.70	0.70	 	 	 	 	 	 	 	 	 	 	 	 	 	 	 	 	 	 	1581523633	1.06	1.96
12/02/2020 16:07:14	120220	12022020	160714	89.71	12.419137	-56.989475	89.74	-0.090	0.010	-0.120	89.71	-1.30	0.30	 	 	 	 	 	 	 	 	 	 	 	 	 	 	 	 	 	 	1581523634	1.11	2.06
12/02/2020 16:07:15	120220	12022020	160715	89.83	12.419138	-56.989477	89.85	-0.190	-0.100	-0.270	89.83	-1.40	0.10	 	 	 	 	 	 	 	 	 	 	 	 	 	 	 	 	 	 	1581523635	0.48	0.89
12/02/2020 16:07:16	120220	12022020	160716	89.78	12.419138	-56.989475	89.80	0.000	-0.630	-0.020	89.78	-2.00	0.40	 	 	 	 	 	 	 	 	 	 	 	 	 	 	 	 	 	 	1581523636	0.46	0.85
12/02/2020 16:07:17	120220	12022020	160717	89.59	12.419135	-56.989472	89.62	0.370	-1.020	0.460	89.59	-2.30	0.90	 	 	 	 	 	 	 	 	 	 	 	 	 	 	 	 	 	 	1581523637	1.02	1.89
12/02/2020 16:07:18	120220	12022020	160718	89.45	12.419132	-56.989468	89.49	0.600	-0.710	0.900	89.45	-2.00	1.30	 	 	 	 	 	 	 	 	 	 	 	 	 	 	 	 	 	 	1581523638	0.71	1.31
12/02/2020 16:07:19	120220	12022020	160719	89.49	12.419132	-56.989470	89.56	0.520	0.060	1.220	89.49	-1.20	1.60	 	 	 	 	 	 	 	 	 	 	 	 	 	 	 	 	 	 	1581523639	0.34	0.63
12/02/2020 16:07:20	120220	12022020	160720	89.66	12.419130	-56.989472	89.73	0.130	0.720	1.440	89.66	-0.60	1.80	 	 	 	 	 	 	 	 	 	 	 	 	 	 	 	 	 	 	1581523640	0.50	0.93
12/02/2020 16:07:21	120220	12022020	160721	89.81	12.419130	-56.989475	89.88	-0.410	1.040	1.620	89.81	-0.30	2.00	 	 	 	 	 	 	 	 	 	 	 	 	 	 	 	 	 	 	1581523641	0.43	0.80
12/02/2020 16:07:22	120220	12022020	160722	89.79	12.419128	-56.989477	89.85	-0.860	0.950	1.790	89.79	-0.40	2.20	 	 	 	 	 	 	 	 	 	 	 	 	 	 	 	 	 	 	1581523642	0.41	0.76
12/02/2020 16:07:23	120220	12022020	160723	89.58	12.419128	-56.989477	89.62	-0.940	0.340	1.870	89.58	-1.00	2.20	 	 	 	 	 	 	 	 	 	 	 	 	 	 	 	 	 	 	1581523643	0.33	0.61
12/02/2020 16:07:24	120220	12022020	160724	89.31	12.419128	-56.989475	89.37	-0.580	-0.710	1.730	89.31	-2.10	2.10	 	 	 	 	 	 	 	 	 	 	 	 	 	 	 	 	 	 	1581523644	0.32	0.59
12/02/2020 16:07:25	120220	12022020	160725	89.29	12.419130	-56.989472	89.40	0.040	-1.690	1.340	89.33	-3.00	1.70	 	 	 	 	 	 	 	 	 	 	 	 	 	 	 	 	 	 	1581523645	0.82	1.52
12/02/2020 16:07:26	120220	12022020	160726	89.63	12.419132	-56.989468	89.71	0.580	-2.000	0.970	89.63	-3.30	1.30	 	 	 	 	 	 	 	 	 	 	 	 	 	 	 	 	 	 	1581523646	0.76	1.41
12/02/2020 16:07:27	120220	12022020	160727	89.77	12.419132	-56.989468	89.82	0.790	-1.540	0.790	89.77	-2.80	1.20	 	 	 	 	 	 	 	 	 	 	 	 	 	 	 	 	 	 	1581523647	0.22	0.41
12/02/2020 16:07:28	120220	12022020	160728	89.58	12.419130	-56.989468	89.61	0.650	-0.550	0.670	89.58	-1.80	1.00	 	 	 	 	 	 	 	 	 	 	 	 	 	 	 	 	 	 	1581523648	0.25	0.46
12/02/2020 16:07:29	120220	12022020	160729	89.23	12.419130	-56.989470	89.24	0.350	0.680	0.530	89.23	-0.60	0.90	 	 	 	 	 	 	 	 	 	 	 	 	 	 	 	 	 	 	1581523649	0.47	0.87
12/02/2020 16:07:30	120220	12022020	160730	88.89	12.419133	-56.989475	88.91	0.020	1.670	0.330	88.89	0.40	0.70	 	 	 	 	 	 	 	 	 	 	 	 	 	 	 	 	 	 	1581523650	0.85	1.57
12/02/2020 16:07:31	120220	12022020	160731	88.81	12.419137	-56.989477	88.83	-0.320	1.850	0.010	88.81	0.50	0.40	 	 	 	 	 	 	 	 	 	 	 	 	 	 	 	 	 	 	1581523651	1.09	2.02
12/02/2020 16:07:32	120220	12022020	160732	88.97	12.419142	-56.989478	88.99	-0.610	1.130	-0.320	88.97	-0.30	0.10	 	 	 	 	 	 	 	 	 	 	 	 	 	 	 	 	 	 	1581523652	1.13	2.09
12/02/2020 16:07:33	120220	12022020	160733	89.24	12.419147	-56.989477	89.25	-0.660	-0.170	-0.410	89.24	-1.60	-0.00	 	 	 	 	 	 	 	 	 	 	 	 	 	 	 	 	 	 	1581523653	0.88	1.63
12/02/2020 16:07:34	120220	12022020	160734	89.45	12.419147	-56.989472	89.47	-0.320	-1.630	-0.110	89.45	-3.00	0.30	 	 	 	 	 	 	 	 	 	 	 	 	 	 	 	 	 	 	1581523654	0.77	1.43
12/02/2020 16:07:35	120220	12022020	160735	89.50	12.419143	-56.989468	89.53	0.170	-2.560	0.630	89.50	-3.90	1.00	 	 	 	 	 	 	 	 	 	 	 	 	 	 	 	 	 	 	1581523655	1.22	2.26
12/02/2020 16:07:36	120220	12022020	160736	89.30	12.419135	-56.989465	89.35	0.480	-2.370	1.740	89.30	-3.70	2.20	 	 	 	 	 	 	 	 	 	 	 	 	 	 	 	 	 	 	1581523656	1.69	3.13
12/02/2020 16:07:37	120220	12022020	160737	89.01	12.419127	-56.989467	89.07	0.470	-1.060	2.750	89.01	-2.30	3.20	 	 	 	 	 	 	 	 	 	 	 	 	 	 	 	 	 	 	1581523657	1.81	3.35
12/02/2020 16:07:38	120220	12022020	160738	88.75	12.419122	-56.989472	88.83	0.240	0.530	3.240	88.75	-0.80	3.60	 	 	 	 	 	 	 	 	 	 	 	 	 	 	 	 	 	 	1581523658	1.65	3.06
12/02/2020 16:07:39	120220	12022020	160739	88.62	12.419120	-56.989477	88.68	0.030	1.510	2.980	88.61	0.20	3.30	 	 	 	 	 	 	 	 	 	 	 	 	 	 	 	 	 	 	1581523659	0.98	1.81
12/02/2020 16:07:40	120220	12022020	160740	88.70	12.419123	-56.989477	88.77	-0.080	1.590	1.840	88.70	0.20	2.20	 	 	 	 	 	 	 	 	 	 	 	 	 	 	 	 	 	 	1581523660	0.82	1.52
12/02/2020 16:07:41	120220	12022020	160741	88.91	12.419132	-56.989477	88.99	-0.210	1.040	0.250	88.97	-0.40	0.60	 	 	 	 	 	 	 	 	 	 	 	 	 	 	 	 	 	 	1581523661	2.00	3.70
12/02/2020 16:07:42	120220	12022020	160742	89.11	12.419143	-56.989475	89.09	-0.410	0.270	-0.940	89.11	-1.10	-0.60	 	 	 	 	 	 	 	 	 	 	 	 	 	 	 	 	 	 	1581523662	2.22	4.11
12/02/2020 16:07:43	120220	12022020	160743	88.97	12.419150	-56.989475	88.93	-0.500	-0.470	-1.370	88.97	-1.80	-1.00	 	 	 	 	 	 	 	 	 	 	 	 	 	 	 	 	 	 	1581523663	1.45	2.69
12/02/2020 16:07:44	120220	12022020	160744	88.70	12.419152	-56.989475	88.68	-0.250	-1.240	-1.340	88.70	-2.60	-0.90	 	 	 	 	 	 	 	 	 	 	 	 	 	 	 	 	 	 	1581523664	0.62	1.15
12/02/2020 16:07:45	120220	12022020	160745	88.70	12.419153	-56.989473	88.71	0.300	-1.930	-1.190	88.70	-3.30	-0.80	 	 	 	 	 	 	 	 	 	 	 	 	 	 	 	 	 	 	1581523665	0.44	0.81
12/02/2020 16:07:46	120220	12022020	160746	89.00	12.419152	-56.989470	89.03	0.750	-2.020	-0.720	89.00	-3.30	-0.30	 	 	 	 	 	 	 	 	 	 	 	 	 	 	 	 	 	 	1581523666	0.69	1.28
12/02/2020 16:07:47	120220	12022020	160747	89.25	12.419147	-56.989470	89.30	0.660	-1.040	0.250	89.25	-2.30	0.70	 	 	 	 	 	 	 	 	 	 	 	 	 	 	 	 	 	 	1581523667	1.02	1.89
12/02/2020 16:07:48	120220	12022020	160748	89.24	12.419138	-56.989473	89.30	0.020	0.560	1.540	89.24	-0.80	1.90	 	 	 	 	 	 	 	 	 	 	 	 	 	 	 	 	 	 	1581523668	1.89	3.50
12/02/2020 16:07:49	120220	12022020	160749	89.01	12.419130	-56.989480	89.08	-0.720	1.730	2.640	89.01	0.40	3.00	 	 	 	 	 	 	 	 	 	 	 	 	 	 	 	 	 	 	1581523669	2.26	4.19
12/02/2020 16:07:50	120220	12022020	160750	88.71	12.419123	-56.989483	88.79	-0.940	1.790	3.020	88.71	0.40	3.40	 	 	 	 	 	 	 	 	 	 	 	 	 	 	 	 	 	 	1581523670	1.50	2.78
12/02/2020 16:07:51	120220	12022020	160751	88.51	12.419123	-56.989482	88.53	-0.430	0.720	2.690	88.46	-0.70	3.00	 	 	 	 	 	 	 	 	 	 	 	 	 	 	 	 	 	 	1581523671	0.29	0.54
12/02/2020 16:07:52	120220	12022020	160752	88.32	12.419128	-56.989477	88.38	0.410	-0.800	1.930	88.32	-2.20	2.30	 	 	 	 	 	 	 	 	 	 	 	 	 	 	 	 	 	 	1581523672	1.47	2.72
12/02/2020 16:07:53	120220	12022020	160753	88.40	12.419137	-56.989472	88.45	0.920	-1.790	1.020	88.40	-3.10	1.40	 	 	 	 	 	 	 	 	 	 	 	 	 	 	 	 	 	 	1581523673	1.98	3.67
12/02/2020 16:07:54	120220	12022020	160754	88.70	12.419143	-56.989470	88.75	0.760	-1.600	0.120	88.70	-2.90	0.50	 	 	 	 	 	 	 	 	 	 	 	 	 	 	 	 	 	 	1581523674	1.64	3.04
12/02/2020 16:07:55	120220	12022020	160755	89.03	12.419150	-56.989473	89.06	0.190	-0.460	-0.550	89.03	-1.80	-0.20	 	 	 	 	 	 	 	 	 	 	 	 	 	 	 	 	 	 	1581523675	1.47	2.72
12/02/2020 16:07:56	120220	12022020	160756	89.14	12.419152	-56.989480	89.17	-0.390	0.740	-0.540	89.14	-0.60	-0.20	 	 	 	 	 	 	 	 	 	 	 	 	 	 	 	 	 	 	1581523676	1.45	2.69
12/02/2020 16:07:57	120220	12022020	160757	89.02	12.419150	-56.989485	89.04	-0.680	1.100	0.130	89.02	-0.30	0.50	 	 	 	 	 	 	 	 	 	 	 	 	 	 	 	 	 	 	1581523677	1.11	2.06
12/02/2020 16:07:58	120220	12022020	160758	88.77	12.419143	-56.989485	88.82	-0.560	0.380	1.020	88.77	-1.00	1.40	 	 	 	 	 	 	 	 	 	 	 	 	 	 	 	 	 	 	1581523678	1.26	2.33
12/02/2020 16:07:59	120220	12022020	160759	88.47	12.419138	-56.989482	88.53	-0.070	-0.830	1.730	88.47	-2.20	2.10	 	 	 	 	 	 	 	 	 	 	 	 	 	 	 	 	 	 	1581523679	1.61	2.98
12/02/2020 16:08:00	120220	12022020	160800	88.14	12.419133	-56.989475	88.22	0.500	-1.620	2.250	88.14	-3.00	2.60	 	 	 	 	 	 	 	 	 	 	 	 	 	 	 	 	 	 	1581523680	1.44	2.67
12/02/2020 16:08:01	120220	12022020	160801	87.96	12.419132	-56.989473	88.05	0.760	-1.360	2.400	87.96	-2.70	2.80	 	 	 	 	 	 	 	 	 	 	 	 	 	 	 	 	 	 	1581523681	0.59	1.09
12/02/2020 16:08:02	120220	12022020	160802	88.07	12.419135	-56.989475	88.16	0.570	-0.350	1.930	88.07	-1.70	2.30	1016.50	26.70	26.80	19.50	19.50	800.0	64.0	64.0	425.0	29.4	354.00	12.10	82.00	11.70	62033	11095.0	27.5	27.5	1581523682	0.66	1.22
12/02/2020 16:08:03	120220	12022020	160803	88.31	12.419140	-56.989480	88.39	0.080	0.700	1.050	88.31	-0.60	1.40	 	 	 	 	 	 	 	 	 	 	 	 	 	 	 	 	 	 	1581523683	1.47	2.72
12/02/2020 16:08:04	120220	12022020	160804	88.44	12.419145	-56.989483	88.49	-0.470	1.280	0.350	88.44	-0.10	0.70	 	 	 	 	 	 	 	 	 	 	 	 	 	 	 	 	 	 	1581523684	1.43	2.65
12/02/2020 16:08:05	120220	12022020	160805	88.47	12.419148	-56.989487	88.50	-0.760	1.150	0.070	88.47	-0.20	0.40	 	 	 	 	 	 	 	 	 	 	 	 	 	 	 	 	 	 	1581523685	0.70	1.30
12/02/2020 16:08:06	120220	12022020	160806	88.48	12.419148	-56.989485	88.50	-0.650	0.330	-0.010	88.48	-1.10	0.40	 	 	 	 	 	 	 	 	 	 	 	 	 	 	 	 	 	 	1581523686	0.08	0.15
12/02/2020 16:08:07	120220	12022020	160807	88.44	12.419148	-56.989483	88.46	-0.220	-0.760	-0.000	88.44	-2.10	0.40	 	 	 	 	 	 	 	 	 	 	 	 	 	 	 	 	 	 	1581523687	0.56	1.04
12/02/2020 16:08:08	120220	12022020	160808	88.40	12.419148	-56.989480	88.43	0.230	-1.460	0.170	88.40	-2.80	0.60	 	 	 	 	 	 	 	 	 	 	 	 	 	 	 	 	 	 	1581523688	0.58	1.07
12/02/2020 16:08:09	120220	12022020	160809	88.37	12.419147	-56.989480	88.42	0.530	-1.480	0.510	88.37	-2.80	0.90	 	 	 	 	 	 	 	 	 	 	 	 	 	 	 	 	 	 	1581523689	0.20	0.37
12/02/2020 16:08:10	120220	12022020	160810	88.28	12.419145	-56.989480	88.33	0.620	-1.070	1.030	88.28	-2.40	1.40	 	 	 	 	 	 	 	 	 	 	 	 	 	 	 	 	 	 	1581523690	0.42	0.78
12/02/2020 16:08:11	120220	12022020	160811	88.05	12.419143	-56.989482	88.10	0.520	-0.550	1.680	88.05	-1.90	2.10	 	 	 	 	 	 	 	 	 	 	 	 	 	 	 	 	 	 	1581523691	0.63	1.17
12/02/2020 16:08:12	120220	12022020	160812	87.84	12.419140	-56.989482	87.91	0.270	0.080	2.070	87.84	-1.30	2.40	 	 	 	 	 	 	 	 	 	 	 	 	 	 	 	 	 	 	1581523692	0.60	1.11
12/02/2020 16:08:13	120220	12022020	160813	88.00	12.419140	-56.989482	88.08	0.040	0.670	1.820	88.00	-0.70	2.20	 	 	 	 	 	 	 	 	 	 	 	 	 	 	 	 	 	 	1581523693	0.19	0.35
12/02/2020 16:08:14	120220	12022020	160814	88.54	12.419143	-56.989483	88.63	-0.100	0.900	1.040	88.54	-0.50	1.40	 	 	 	 	 	 	 	 	 	 	 	 	 	 	 	 	 	 	1581523694	0.78	1.44
12/02/2020 16:08:15	120220	12022020	160815	89.13	12.419148	-56.989483	89.18	-0.160	0.730	0.300	89.13	-0.60	0.60	 	 	 	 	 	 	 	 	 	 	 	 	 	 	 	 	 	 	1581523695	1.03	1.91
12/02/2020 16:08:16	120220	12022020	160816	89.26	12.419150	-56.989483	89.26	-0.260	0.340	0.080	89.26	-1.00	0.50	 	 	 	 	 	 	 	 	 	 	 	 	 	 	 	 	 	 	1581523696	0.56	1.04
12/02/2020 16:08:17	120220	12022020	160817	88.89	12.419150	-56.989483	88.74	-0.410	-0.160	0.410	88.76	-1.50	0.80	 	 	 	 	 	 	 	 	 	 	 	 	 	 	 	 	 	 	1581523697	0.13	0.24
12/02/2020 16:08:18	120220	12022020	160818	88.14	12.419148	-56.989482	88.14	-0.520	-0.620	0.840	88.14	-2.00	1.20	 	 	 	 	 	 	 	 	 	 	 	 	 	 	 	 	 	 	1581523698	0.39	0.72
12/02/2020 16:08:19	120220	12022020	160819	88.00	12.419147	-56.989482	88.04	-0.410	-1.040	1.010	88.00	-2.40	1.40	 	 	 	 	 	 	 	 	 	 	 	 	 	 	 	 	 	 	1581523699	0.30	0.56
12/02/2020 16:08:20	120220	12022020	160820	88.36	12.419147	-56.989480	88.43	-0.060	-1.290	0.810	88.36	-2.60	1.20	 	 	 	 	 	 	 	 	 	 	 	 	 	 	 	 	 	 	1581523700	0.29	0.54
12/02/2020 16:08:21	120220	12022020	160821	88.84	12.419148	-56.989478	88.89	0.360	-1.230	0.410	88.84	-2.60	0.80	 	 	 	 	 	 	 	 	 	 	 	 	 	 	 	 	 	 	1581523701	0.44	0.81
12/02/2020 16:08:22	120220	12022020	160822	89.11	12.419150	-56.989478	89.14	0.660	-0.790	0.170	89.11	-2.10	0.50	 	 	 	 	 	 	 	 	 	 	 	 	 	 	 	 	 	 	1581523702	0.36	0.67
12/02/2020 16:08:23	120220	12022020	160823	89.07	12.419150	-56.989478	89.09	0.700	-0.050	0.330	89.07	-1.40	0.70	 	 	 	 	 	 	 	 	 	 	 	 	 	 	 	 	 	 	1581523703	0.05	0.09
12/02/2020 16:08:24	120220	12022020	160824	88.73	12.419148	-56.989478	88.74	0.420	0.770	0.920	88.73	-0.60	1.30	 	 	 	 	 	 	 	 	 	 	 	 	 	 	 	 	 	 	1581523704	0.54	1.00
12/02/2020 16:08:25	120220	12022020	160825	88.26	12.419145	-56.989480	88.27	-0.090	1.340	1.540	88.26	0.00	1.90	 	 	 	 	 	 	 	 	 	 	 	 	 	 	 	 	 	 	1581523705	0.75	1.39
12/02/2020 16:08:26	120220	12022020	160826	87.96	12.419145	-56.989482	87.99	-0.530	1.310	1.680	87.96	-0.10	2.00	 	 	 	 	 	 	 	 	 	 	 	 	 	 	 	 	 	 	1581523706	0.36	0.67
12/02/2020 16:08:27	120220	12022020	160827	88.07	12.419148	-56.989482	88.10	-0.630	0.460	1.130	88.07	-0.90	1.50	 	 	 	 	 	 	 	 	 	 	 	 	 	 	 	 	 	 	1581523707	0.73	1.35
12/02/2020 16:08:28	120220	12022020	160828	88.39	12.419153	-56.989478	88.41	-0.350	-0.840	0.340	88.39	-2.20	0.70	 	 	 	 	 	 	 	 	 	 	 	 	 	 	 	 	 	 	1581523708	1.44	2.67
12/02/2020 16:08:29	120220	12022020	160829	88.53	12.419158	-56.989475	88.53	0.060	-1.770	0.010	88.53	-3.10	0.40	 	 	 	 	 	 	 	 	 	 	 	 	 	 	 	 	 	 	1581523709	1.29	2.39
12/02/2020 16:08:30	120220	12022020	160830	88.51	12.419158	-56.989472	88.51	0.270	-1.810	0.240	88.51	-3.10	0.60	 	 	 	 	 	 	 	 	 	 	 	 	 	 	 	 	 	 	1581523710	0.52	0.96
12/02/2020 16:08:31	120220	12022020	160831	88.50	12.419155	-56.989472	88.53	0.200	-1.070	0.650	88.51	-2.40	1.00	 	 	 	 	 	 	 	 	 	 	 	 	 	 	 	 	 	 	1581523711	0.67	1.24
12/02/2020 16:08:32	120220	12022020	160832	88.57	12.419152	-56.989475	88.61	0.040	-0.130	0.950	88.57	-1.40	1.30	 	 	 	 	 	 	 	 	 	 	 	 	 	 	 	 	 	 	1581523712	0.98	1.81
12/02/2020 16:08:33	120220	12022020	160833	88.53	12.419148	-56.989477	88.56	-0.000	0.480	1.180	88.53	-0.90	1.50	 	 	 	 	 	 	 	 	 	 	 	 	 	 	 	 	 	 	1581523713	0.78	1.44
12/02/2020 16:08:34	120220	12022020	160834	88.22	12.419145	-56.989475	88.23	0.070	0.590	1.470	88.22	-0.80	1.80	 	 	 	 	 	 	 	 	 	 	 	 	 	 	 	 	 	 	1581523714	0.64	1.19
12/02/2020 16:08:35	120220	12022020	160835	87.75	12.419143	-56.989473	87.75	0.140	0.480	1.550	87.75	-0.90	1.90	 	 	 	 	 	 	 	 	 	 	 	 	 	 	 	 	 	 	1581523715	0.57	1.06
12/02/2020 16:08:36	120220	12022020	160836	87.51	12.419147	-56.989472	87.53	0.030	0.590	1.130	87.51	-0.80	1.50	 	 	 	 	 	 	 	 	 	 	 	 	 	 	 	 	 	 	1581523716	0.59	1.09
12/02/2020 16:08:37	120220	12022020	160837	87.71	12.419153	-56.989473	87.74	-0.240	0.690	0.260	87.71	-0.70	0.60	 	 	 	 	 	 	 	 	 	 	 	 	 	 	 	 	 	 	1581523717	1.51	2.80
12/02/2020 16:08:38	120220	12022020	160838	88.17	12.419160	-56.989477	88.18	-0.460	0.100	-0.560	88.17	-1.30	-0.20	 	 	 	 	 	 	 	 	 	 	 	 	 	 	 	 	 	 	1581523718	1.76	3.26
12/02/2020 16:08:39	120220	12022020	160839	88.48	12.419165	-56.989473	88.49	-0.430	-1.110	-0.780	88.48	-2.50	-0.40	 	 	 	 	 	 	 	 	 	 	 	 	 	 	 	 	 	 	1581523719	1.05	1.94
12/02/2020 16:08:40	120220	12022020	160840	88.60	12.419163	-56.989468	88.60	-0.150	-2.020	-0.360	88.60	-3.40	0.00	 	 	 	 	 	 	 	 	 	 	 	 	 	 	 	 	 	 	1581523720	1.22	2.26
12/02/2020 16:08:41	120220	12022020	160841	88.51	12.419157	-56.989465	88.52	0.280	-1.940	0.490	88.51	-3.20	0.90	 	 	 	 	 	 	 	 	 	 	 	 	 	 	 	 	 	 	1581523721	1.58	2.93
12/02/2020 16:08:42	120220	12022020	160842	88.23	12.419148	-56.989465	88.26	0.710	-1.020	1.480	88.23	-2.30	1.90	 	 	 	 	 	 	 	 	 	 	 	 	 	 	 	 	 	 	1581523722	1.66	3.07
12/02/2020 16:08:43	120220	12022020	160843	87.94	12.419143	-56.989467	88.00	0.870	0.210	2.140	87.94	-1.10	2.50	 	 	 	 	 	 	 	 	 	 	 	 	 	 	 	 	 	 	1581523723	1.30	2.41
12/02/2020 16:08:44	120220	12022020	160844	87.83	12.419142	-56.989468	87.90	0.570	1.240	2.070	87.83	-0.10	2.40	 	 	 	 	 	 	 	 	 	 	 	 	 	 	 	 	 	 	1581523724	0.57	1.06
12/02/2020 16:08:45	120220	12022020	160845	87.98	12.419147	-56.989472	88.04	-0.150	1.700	1.300	87.98	0.30	1.60	 	 	 	 	 	 	 	 	 	 	 	 	 	 	 	 	 	 	1581523725	1.02	1.89
12/02/2020 16:08:46	120220	12022020	160846	88.28	12.419152	-56.989472	88.31	-0.890	1.380	0.310	88.28	0.00	0.60	 	 	 	 	 	 	 	 	 	 	 	 	 	 	 	 	 	 	1581523726	1.39	2.57
12/02/2020 16:08:47	120220	12022020	160847	88.54	12.419157	-56.989472	88.56	-1.140	0.310	-0.370	88.54	-1.10	-0.00	 	 	 	 	 	 	 	 	 	 	 	 	 	 	 	 	 	 	1581523727	1.05	1.94
12/02/2020 16:08:48	120220	12022020	160848	88.71	12.419160	-56.989468	88.72	-0.750	-1.020	-0.620	88.71	-2.40	-0.30	 	 	 	 	 	 	 	 	 	 	 	 	 	 	 	 	 	 	1581523728	0.85	1.57
12/02/2020 16:08:49	120220	12022020	160849	88.74	12.419160	-56.989465	88.74	-0.040	-1.980	-0.500	88.74	-3.30	-0.10	 	 	 	 	 	 	 	 	 	 	 	 	 	 	 	 	 	 	1581523729	0.85	1.57
12/02/2020 16:08:50	120220	12022020	160850	88.73	12.419158	-56.989462	88.76	0.520	-2.120	-0.080	88.73	-3.50	0.30	 	 	 	 	 	 	 	 	 	 	 	 	 	 	 	 	 	 	1581523730	0.60	1.11
12/02/2020 16:08:51	120220	12022020	160851	88.80	12.419155	-56.989462	88.85	0.670	-1.390	0.570	88.80	-2.70	0.90	 	 	 	 	 	 	 	 	 	 	 	 	 	 	 	 	 	 	1581523731	0.85	1.57
12/02/2020 16:08:52	120220	12022020	160852	88.78	12.419148	-56.989463	88.84	0.530	-0.250	1.340	88.78	-1.60	1.70	 	 	 	 	 	 	 	 	 	 	 	 	 	 	 	 	 	 	1581523732	1.36	2.52
12/02/2020 16:08:53	120220	12022020	160853	88.62	12.419143	-56.989465	88.68	0.390	0.640	1.920	88.62	-0.70	2.30	 	 	 	 	 	 	 	 	 	 	 	 	 	 	 	 	 	 	1581523733	1.26	2.33
12/02/2020 16:08:54	120220	12022020	160854	88.48	12.419142	-56.989465	88.55	0.300	0.990	1.940	88.48	-0.40	2.30	 	 	 	 	 	 	 	 	 	 	 	 	 	 	 	 	 	 	1581523734	0.42	0.78
12/02/2020 16:08:55	120220	12022020	160855	88.55	12.419143	-56.989463	88.66	0.110	0.990	1.400	88.59	-0.40	1.70	 	 	 	 	 	 	 	 	 	 	 	 	 	 	 	 	 	 	1581523735	0.65	1.20
12/02/2020 16:08:56	120220	12022020	160856	88.94	12.419150	-56.989463	89.00	-0.280	0.860	0.590	88.94	-0.50	0.90	 	 	 	 	 	 	 	 	 	 	 	 	 	 	 	 	 	 	1581523736	1.26	2.33
12/02/2020 16:08:57	120220	12022020	160857	89.34	12.419155	-56.989465	89.37	-0.720	0.590	-0.070	89.34	-0.80	0.30	 	 	 	 	 	 	 	 	 	 	 	 	 	 	 	 	 	 	1581523737	1.29	2.39
12/02/2020 16:08:58	120220	12022020	160858	89.53	12.419158	-56.989465	89.55	-0.970	-0.040	-0.250	89.53	-1.40	0.10	 	 	 	 	 	 	 	 	 	 	 	 	 	 	 	 	 	 	1581523738	0.62	1.15
12/02/2020 16:08:59	120220	12022020	160859	89.46	12.419157	-56.989463	89.47	-0.750	-1.150	0.050	89.46	-2.50	0.40	 	 	 	 	 	 	 	 	 	 	 	 	 	 	 	 	 	 	1581523739	0.57	1.06
12/02/2020 16:09:00	120220	12022020	160900	89.15	12.419150	-56.989460	89.16	-0.010	-2.290	0.650	89.15	-3.70	1.00	 	 	 	 	 	 	 	 	 	 	 	 	 	 	 	 	 	 	1581523740	1.59	2.94
12/02/2020 16:09:01	120220	12022020	160901	88.70	12.419145	-56.989453	88.74	0.900	-2.530	1.260	88.70	-3.80	1.60	 	 	 	 	 	 	 	 	 	 	 	 	 	 	 	 	 	 	1581523741	1.67	3.09
12/02/2020 16:09:02	120220	12022020	160902	88.39	12.419142	-56.989453	88.44	1.340	-1.340	1.610	88.39	-2.60	2.00	1016.50	26.70	26.80	19.40	19.50	649.0	64.0	64.0	425.0	29.2	352.00	11.90	80.00	11.50	54650	10957.0	27.5	27.5	1581523742	0.62	1.15
12/02/2020 16:09:03	120220	12022020	160903	88.51	12.419143	-56.989457	88.60	0.890	0.640	1.410	88.51	-0.70	1.80	 	 	 	 	 	 	 	 	 	 	 	 	 	 	 	 	 	 	1581523743	0.92	1.70
12/02/2020 16:09:04	120220	12022020	160904	89.04	12.419145	-56.989463	89.12	-0.100	2.050	0.750	89.04	0.70	1.10	 	 	 	 	 	 	 	 	 	 	 	 	 	 	 	 	 	 	1581523744	1.50	2.78
12/02/2020 16:09:05	120220	12022020	160905	89.39	12.419148	-56.989467	89.48	-0.860	2.010	0.330	89.44	0.60	0.70	 	 	 	 	 	 	 	 	 	 	 	 	 	 	 	 	 	 	1581523745	0.81	1.50
12/02/2020 16:09:06	120220	12022020	160906	89.45	12.419148	-56.989463	89.47	-0.920	0.870	0.360	89.45	-0.50	0.70	 	 	 	 	 	 	 	 	 	 	 	 	 	 	 	 	 	 	1581523746	0.52	0.96
12/02/2020 16:09:07	120220	12022020	160907	89.32	12.419147	-56.989460	89.31	-0.460	-0.400	0.490	89.29	-1.80	0.80	 	 	 	 	 	 	 	 	 	 	 	 	 	 	 	 	 	 	1581523747	1.01	1.87
12/02/2020 16:09:08	120220	12022020	160908	89.14	12.419147	-56.989457	89.17	0.010	-1.190	0.620	89.14	-2.50	1.00	 	 	 	 	 	 	 	 	 	 	 	 	 	 	 	 	 	 	1581523748	0.65	1.20
12/02/2020 16:09:09	120220	12022020	160909	89.01	12.419145	-56.989455	89.05	0.250	-1.430	0.940	89.01	-2.80	1.30	 	 	 	 	 	 	 	 	 	 	 	 	 	 	 	 	 	 	1581523749	0.21	0.39
12/02/2020 16:09:10	120220	12022020	160910	88.91	12.419143	-56.989457	88.96	0.310	-1.250	1.330	88.91	-2.60	1.70	 	 	 	 	 	 	 	 	 	 	 	 	 	 	 	 	 	 	1581523750	0.34	0.63
12/02/2020 16:09:11	120220	12022020	160911	88.84	12.419142	-56.989457	88.90	0.310	-0.780	1.530	88.84	-2.10	1.90	 	 	 	 	 	 	 	 	 	 	 	 	 	 	 	 	 	 	1581523751	0.34	0.63
12/02/2020 16:09:12	120220	12022020	160912	88.93	12.419142	-56.989457	89.01	0.270	-0.240	1.410	88.93	-1.60	1.80	 	 	 	 	 	 	 	 	 	 	 	 	 	 	 	 	 	 	1581523752	0.17	0.31
12/02/2020 16:09:13	120220	12022020	160913	89.28	12.419143	-56.989458	89.37	0.120	0.240	1.210	89.28	-1.10	1.60	 	 	 	 	 	 	 	 	 	 	 	 	 	 	 	 	 	 	1581523753	0.11	0.20
12/02/2020 16:09:14	120220	12022020	160914	89.69	12.419142	-56.989458	89.78	-0.110	0.620	1.150	89.69	-0.70	1.50	 	 	 	 	 	 	 	 	 	 	 	 	 	 	 	 	 	 	1581523754	0.38	0.70
12/02/2020 16:09:15	120220	12022020	160915	89.87	12.419138	-56.989460	89.92	-0.210	0.680	1.220	89.87	-0.70	1.60	 	 	 	 	 	 	 	 	 	 	 	 	 	 	 	 	 	 	1581523755	0.57	1.06
12/02/2020 16:09:16	120220	12022020	160916	89.60	12.419137	-56.989460	89.62	0.010	0.110	1.370	89.60	-1.30	1.70	 	 	 	 	 	 	 	 	 	 	 	 	 	 	 	 	 	 	1581523756	0.44	0.81
12/02/2020 16:09:17	120220	12022020	160917	89.06	12.419137	-56.989455	89.07	0.370	-0.800	1.460	89.06	-2.20	1.80	 	 	 	 	 	 	 	 	 	 	 	 	 	 	 	 	 	 	1581523757	0.83	1.54
12/02/2020 16:09:18	120220	12022020	160918	88.67	12.419138	-56.989452	88.72	0.490	-1.160	1.390	88.67	-2.50	1.70	 	 	 	 	 	 	 	 	 	 	 	 	 	 	 	 	 	 	1581523758	1.02	1.89
12/02/2020 16:09:19	120220	12022020	160919	88.79	12.419142	-56.989452	88.98	0.150	-0.500	1.120	88.89	-1.80	1.50	 	 	 	 	 	 	 	 	 	 	 	 	 	 	 	 	 	 	1581523759	0.70	1.30
12/02/2020 16:09:20	120220	12022020	160920	89.62	12.419145	-56.989457	89.74	-0.460	0.560	0.760	89.62	-0.80	1.10	 	 	 	 	 	 	 	 	 	 	 	 	 	 	 	 	 	 	1581523760	1.21	2.24
12/02/2020 16:09:21	120220	12022020	160921	90.25	12.419145	-56.989462	90.47	-0.840	0.980	0.580	90.38	-0.40	0.90	 	 	 	 	 	 	 	 	 	 	 	 	 	 	 	 	 	 	1581523761	1.13	2.09
12/02/2020 16:09:22	120220	12022020	160922	90.63	12.419142	-56.989462	90.67	-0.620	0.300	0.840	90.63	-1.10	1.20	 	 	 	 	 	 	 	 	 	 	 	 	 	 	 	 	 	 	1581523762	0.73	1.35
12/02/2020 16:09:23	120220	12022020	160923	90.25	12.419135	-56.989458	90.28	0.060	-0.910	1.510	90.25	-2.30	1.90	 	 	 	 	 	 	 	 	 	 	 	 	 	 	 	 	 	 	1581523763	1.54	2.85
12/02/2020 16:09:24	120220	12022020	160924	89.78	12.419130	-56.989453	89.84	0.700	-1.540	2.070	89.78	-2.90	2.40	 	 	 	 	 	 	 	 	 	 	 	 	 	 	 	 	 	 	1581523764	1.55	2.87
12/02/2020 16:09:25	120220	12022020	160925	89.70	12.419130	-56.989452	89.81	0.770	-0.940	2.140	89.73	-2.30	2.50	 	 	 	 	 	 	 	 	 	 	 	 	 	 	 	 	 	 	1581523765	0.27	0.50
12/02/2020 16:09:26	120220	12022020	160926	90.02	12.419132	-56.989457	90.11	0.240	0.170	1.810	90.02	-1.20	2.20	 	 	 	 	 	 	 	 	 	 	 	 	 	 	 	 	 	 	1581523766	1.15	2.13
12/02/2020 16:09:27	120220	12022020	160927	90.37	12.419133	-56.989462	90.45	-0.310	0.680	1.390	90.37	-0.70	1.70	 	 	 	 	 	 	 	 	 	 	 	 	 	 	 	 	 	 	1581523767	1.20	2.22
12/02/2020 16:09:28	120220	12022020	160928	90.56	12.419135	-56.989463	90.62	-0.330	0.210	0.970	90.56	-1.20	1.30	 	 	 	 	 	 	 	 	 	 	 	 	 	 	 	 	 	 	1581523768	0.21	0.39
12/02/2020 16:09:29	120220	12022020	160929	90.62	12.419135	-56.989458	90.66	0.140	-0.660	0.550	90.62	-2.10	0.90	 	 	 	 	 	 	 	 	 	 	 	 	 	 	 	 	 	 	1581523769	0.87	1.61
12/02/2020 16:09:30	120220	12022020	160930	90.60	12.419138	-56.989455	90.65	0.520	-0.970	0.320	90.60	-2.30	0.70	 	 	 	 	 	 	 	 	 	 	 	 	 	 	 	 	 	 	1581523770	1.00	1.85
12/02/2020 16:09:31	120220	12022020	160931	90.64	12.419138	-56.989455	90.72	0.280	-0.260	0.450	90.67	-1.60	0.80	 	 	 	 	 	 	 	 	 	 	 	 	 	 	 	 	 	 	1581523771	0.27	0.50
12/02/2020 16:09:32	120220	12022020	160932	90.86	12.419137	-56.989460	90.93	-0.510	0.980	0.820	90.86	-0.40	1.20	 	 	 	 	 	 	 	 	 	 	 	 	 	 	 	 	 	 	1581523772	1.32	2.44
12/02/2020 16:09:33	120220	12022020	160933	91.06	12.419133	-56.989468	91.13	-1.160	1.610	1.170	91.06	0.20	1.50	 	 	 	 	 	 	 	 	 	 	 	 	 	 	 	 	 	 	1581523773	1.84	3.41
12/02/2020 16:09:34	120220	12022020	160934	91.11	12.419130	-56.989472	91.18	-0.970	0.770	1.390	91.11	-0.70	1.80	 	 	 	 	 	 	 	 	 	 	 	 	 	 	 	 	 	 	1581523774	1.14	2.11
12/02/2020 16:09:35	120220	12022020	160935	91.09	12.419127	-56.989468	91.16	0.050	-1.170	1.380	91.09	-2.60	1.70	 	 	 	 	 	 	 	 	 	 	 	 	 	 	 	 	 	 	1581523775	0.95	1.76
12/02/2020 16:09:36	120220	12022020	160936	91.10	12.419128	-56.989460	91.17	1.090	-2.640	1.330	91.10	-4.00	1.70	 	 	 	 	 	 	 	 	 	 	 	 	 	 	 	 	 	 	1581523776	1.63	3.02
12/02/2020 16:09:37	120220	12022020	160937	91.15	12.419130	-56.989457	91.22	1.270	-2.300	1.330	91.15	-3.60	1.70	 	 	 	 	 	 	 	 	 	 	 	 	 	 	 	 	 	 	1581523777	0.85	1.57
12/02/2020 16:09:38	120220	12022020	160938	91.25	12.419132	-56.989462	91.33	0.550	-0.570	1.340	91.25	-1.90	1.70	 	 	 	 	 	 	 	 	 	 	 	 	 	 	 	 	 	 	1581523778	1.04	1.93
12/02/2020 16:09:39	120220	12022020	160939	91.28	12.419130	-56.989470	91.35	-0.350	0.950	1.560	91.28	-0.40	1.90	 	 	 	 	 	 	 	 	 	 	 	 	 	 	 	 	 	 	1581523779	1.68	3.11
12/02/2020 16:09:40	120220	12022020	160940	91.17	12.419127	-56.989473	91.24	-0.730	1.550	1.810	91.17	0.20	2.20	 	 	 	 	 	 	 	 	 	 	 	 	 	 	 	 	 	 	1581523780	1.25	2.31
12/02/2020 16:09:41	120220	12022020	160941	91.14	12.419125	-56.989475	91.23	-0.550	1.500	1.760	91.14	0.10	2.10	 	 	 	 	 	 	 	 	 	 	 	 	 	 	 	 	 	 	1581523781	0.53	0.98
12/02/2020 16:09:42	120220	12022020	160942	91.34	12.419127	-56.989475	91.43	-0.230	0.950	1.330	91.34	-0.50	1.70	 	 	 	 	 	 	 	 	 	 	 	 	 	 	 	 	 	 	1581523782	0.32	0.59
12/02/2020 16:09:43	120220	12022020	160943	91.62	12.419130	-56.989475	91.70	-0.120	-0.040	0.730	91.62	-1.50	1.10	 	 	 	 	 	 	 	 	 	 	 	 	 	 	 	 	 	 	1581523783	0.68	1.26
12/02/2020 16:09:44	120220	12022020	160944	91.75	12.419132	-56.989473	91.79	-0.220	-1.110	0.340	91.75	-2.50	0.70	 	 	 	 	 	 	 	 	 	 	 	 	 	 	 	 	 	 	1581523784	0.46	0.85
12/02/2020 16:09:45	120220	12022020	160945	91.56	12.419130	-56.989473	91.59	-0.250	-1.740	0.440	91.56	-3.10	0.80	 	 	 	 	 	 	 	 	 	 	 	 	 	 	 	 	 	 	1581523785	0.39	0.72
12/02/2020 16:09:46	120220	12022020	160946	91.15	12.419127	-56.989473	91.20	0.090	-1.780	0.890	91.15	-3.10	1.30	 	 	 	 	 	 	 	 	 	 	 	 	 	 	 	 	 	 	1581523786	0.66	1.22
12/02/2020 16:09:47	120220	12022020	160947	90.82	12.419125	-56.989473	90.87	0.660	-1.380	1.250	90.82	-2.70	1.60	 	 	 	 	 	 	 	 	 	 	 	 	 	 	 	 	 	 	1581523787	0.52	0.96
12/02/2020 16:09:48	120220	12022020	160948	90.67	12.419125	-56.989475	90.72	0.950	-0.630	1.210	90.67	-2.00	1.60	 	 	 	 	 	 	 	 	 	 	 	 	 	 	 	 	 	 	1581523788	0.28	0.52
12/02/2020 16:09:49	120220	12022020	160949	90.75	12.419128	-56.989477	90.80	0.650	0.280	0.680	90.75	-1.10	1.00	 	 	 	 	 	 	 	 	 	 	 	 	 	 	 	 	 	 	1581523789	0.87	1.61
12/02/2020 16:09:50	120220	12022020	160950	91.02	12.419133	-56.989480	91.07	-0.070	1.120	0.140	91.02	-0.20	0.50	 	 	 	 	 	 	 	 	 	 	 	 	 	 	 	 	 	 	1581523790	1.01	1.87
12/02/2020 16:09:51	120220	12022020	160951	91.36	12.419133	-56.989483	91.41	-0.730	1.670	0.040	91.36	0.30	0.40	 	 	 	 	 	 	 	 	 	 	 	 	 	 	 	 	 	 	1581523791	0.70	1.30
12/02/2020 16:09:52	120220	12022020	160952	91.66	12.419132	-56.989485	91.72	-0.980	1.590	0.390	91.66	0.20	0.80	 	 	 	 	 	 	 	 	 	 	 	 	 	 	 	 	 	 	1581523792	0.84	1.56
12/02/2020 16:09:53	120220	12022020	160953	91.87	12.419127	-56.989487	91.94	-0.820	0.690	0.940	91.87	-0.70	1.30	 	 	 	 	 	 	 	 	 	 	 	 	 	 	 	 	 	 	1581523793	0.84	1.56
12/02/2020 16:09:54	120220	12022020	160954	92.00	12.419123	-56.989485	92.06	-0.510	-0.750	1.340	92.00	-2.20	1.70	 	 	 	 	 	 	 	 	 	 	 	 	 	 	 	 	 	 	1581523794	0.90	1.67
12/02/2020 16:09:55	120220	12022020	160955	91.86	12.419120	-56.989482	91.91	-0.180	-2.010	1.820	91.86	-3.40	2.20	 	 	 	 	 	 	 	 	 	 	 	 	 	 	 	 	 	 	1581523795	1.07	1.98
12/02/2020 16:09:56	120220	12022020	160956	91.40	12.419115	-56.989480	91.44	0.250	-2.450	2.540	91.40	-3.80	2.90	 	 	 	 	 	 	 	 	 	 	 	 	 	 	 	 	 	 	1581523796	1.13	2.09
12/02/2020 16:09:57	120220	12022020	160957	90.99	12.419110	-56.989480	90.98	0.790	-1.880	3.080	90.91	-3.20	3.40	 	 	 	 	 	 	 	 	 	 	 	 	 	 	 	 	 	 	1581523797	0.86	1.59
12/02/2020 16:09:58	120220	12022020	160958	90.73	12.419110	-56.989482	90.81	1.150	-0.740	2.950	90.73	-2.00	3.30	 	 	 	 	 	 	 	 	 	 	 	 	 	 	 	 	 	 	1581523798	0.44	0.81
12/02/2020 16:09:59	120220	12022020	160959	90.99	12.419115	-56.989485	91.08	1.000	0.470	1.980	90.99	-0.90	2.30	 	 	 	 	 	 	 	 	 	 	 	 	 	 	 	 	 	 	1581523799	1.08	2.00
12/02/2020 16:10:00	120220	12022020	161000	91.56	12.419123	-56.989488	91.63	0.350	1.380	0.440	91.56	0.00	0.80	 	 	 	 	 	 	 	 	 	 	 	 	 	 	 	 	 	 	1581523800	1.92	3.56
12/02/2020 16:10:01	120220	12022020	161001	92.10	12.419132	-56.989490	92.14	-0.450	1.720	-0.830	92.10	0.30	-0.50	 	 	 	 	 	 	 	 	 	 	 	 	 	 	 	 	 	 	1581523801	2.07	3.83
12/02/2020 16:10:02	120220	12022020	161002	92.37	12.419137	-56.989492	92.38	-0.940	1.250	-1.190	92.37	-0.20	-0.80	1016.60	26.70	26.80	19.80	19.90	630.0	66.0	66.0	424.0	29.2	351.00	11.10	81.00	10.70	53615	11509.0	27.5	27.5	1581523802	1.07	1.98
12/02/2020 16:10:03	120220	12022020	161003	92.30	12.419135	-56.989490	92.31	-0.960	0.120	-0.780	92.30	-1.30	-0.40	 	 	 	 	 	 	 	 	 	 	 	 	 	 	 	 	 	 	1581523803	0.40	0.74
12/02/2020 16:10:04	120220	12022020	161004	92.07	12.419130	-56.989487	92.09	-0.610	-1.140	-0.050	92.07	-2.50	0.30	 	 	 	 	 	 	 	 	 	 	 	 	 	 	 	 	 	 	1581523804	1.35	2.50
12/02/2020 16:10:05	120220	12022020	161005	91.91	12.419123	-56.989483	91.97	-0.120	-1.860	0.730	91.91	-3.20	1.10	 	 	 	 	 	 	 	 	 	 	 	 	 	 	 	 	 	 	1581523805	1.60	2.96
12/02/2020 16:10:06	120220	12022020	161006	91.98	12.419118	-56.989483	92.07	0.330	-1.650	1.330	91.98	-3.00	1.70	 	 	 	 	 	 	 	 	 	 	 	 	 	 	 	 	 	 	1581523806	1.17	2.17
12/02/2020 16:10:07	120220	12022020	161007	92.16	12.419117	-56.989487	92.25	0.610	-0.720	1.590	92.16	-2.10	1.90	 	 	 	 	 	 	 	 	 	 	 	 	 	 	 	 	 	 	1581523807	0.68	1.26
12/02/2020 16:10:08	120220	12022020	161008	92.35	12.419118	-56.989490	92.42	0.590	0.280	1.480	92.35	-1.10	1.80	 	 	 	 	 	 	 	 	 	 	 	 	 	 	 	 	 	 	1581523808	1.02	1.89
12/02/2020 16:10:09	120220	12022020	161009	92.43	12.419122	-56.989493	92.49	0.270	0.680	1.190	92.43	-0.70	1.50	 	 	 	 	 	 	 	 	 	 	 	 	 	 	 	 	 	 	1581523809	1.07	1.98
12/02/2020 16:10:10	120220	12022020	161010	92.49	12.419125	-56.989493	92.56	-0.170	0.400	0.990	92.49	-1.00	1.40	 	 	 	 	 	 	 	 	 	 	 	 	 	 	 	 	 	 	1581523810	0.45	0.83
12/02/2020 16:10:11	120220	12022020	161011	92.58	12.419123	-56.989492	92.68	-0.410	-0.120	1.130	92.60	-1.50	1.50	 	 	 	 	 	 	 	 	 	 	 	 	 	 	 	 	 	 	1581523811	0.62	1.15
12/02/2020 16:10:12	120220	12022020	161012	92.64	12.419118	-56.989488	92.72	-0.360	-0.400	1.490	92.64	-1.80	1.90	 	 	 	 	 	 	 	 	 	 	 	 	 	 	 	 	 	 	1581523812	0.97	1.80
12/02/2020 16:10:13	120220	12022020	161013	92.52	12.419115	-56.989488	92.58	-0.110	-0.410	1.650	92.52	-1.80	2.00	 	 	 	 	 	 	 	 	 	 	 	 	 	 	 	 	 	 	1581523813	0.68	1.26
12/02/2020 16:10:14	120220	12022020	161014	92.33	12.419117	-56.989488	92.38	0.160	-0.320	1.310	92.33	-1.70	1.70	 	 	 	 	 	 	 	 	 	 	 	 	 	 	 	 	 	 	1581523814	0.09	0.17
12/02/2020 16:10:15	120220	12022020	161015	92.26	12.419120	-56.989488	92.31	0.360	-0.260	0.620	92.26	-1.60	1.00	 	 	 	 	 	 	 	 	 	 	 	 	 	 	 	 	 	 	1581523815	0.92	1.70
12/02/2020 16:10:16	120220	12022020	161016	92.41	12.419127	-56.989488	92.46	0.390	-0.220	0.110	92.41	-1.60	0.50	 	 	 	 	 	 	 	 	 	 	 	 	 	 	 	 	 	 	1581523816	1.27	2.35
12/02/2020 16:10:17	120220	12022020	161017	92.69	12.419130	-56.989488	92.74	0.200	-0.150	-0.050	92.69	-1.50	0.30	 	 	 	 	 	 	 	 	 	 	 	 	 	 	 	 	 	 	1581523817	0.78	1.44
12/02/2020 16:10:18	120220	12022020	161018	92.91	12.419130	-56.989488	92.95	-0.110	-0.060	0.010	92.91	-1.40	0.40	 	 	 	 	 	 	 	 	 	 	 	 	 	 	 	 	 	 	1581523818	0.05	0.09
12/02/2020 16:10:19	120220	12022020	161019	92.76	12.419127	-56.989488	92.79	-0.300	-0.070	0.530	92.76	-1.50	0.90	 	 	 	 	 	 	 	 	 	 	 	 	 	 	 	 	 	 	1581523819	0.70	1.30
12/02/2020 16:10:20	120220	12022020	161020	92.31	12.419122	-56.989488	92.35	-0.220	-0.050	1.370	92.31	-1.40	1.80	 	 	 	 	 	 	 	 	 	 	 	 	 	 	 	 	 	 	1581523820	1.18	2.19
12/02/2020 16:10:21	120220	12022020	161021	92.05	12.419117	-56.989488	92.09	-0.010	0.030	1.930	92.02	-1.40	2.30	 	 	 	 	 	 	 	 	 	 	 	 	 	 	 	 	 	 	1581523821	0.84	1.56
12/02/2020 16:10:22	120220	12022020	161022	92.03	12.419118	-56.989488	92.12	0.120	-0.080	1.910	92.03	-1.50	2.30	 	 	 	 	 	 	 	 	 	 	 	 	 	 	 	 	 	 	1581523822	0.12	0.22
12/02/2020 16:10:23	120220	12022020	161023	92.14	12.419122	-56.989488	92.21	0.130	-0.530	1.560	92.14	-1.90	1.90	 	 	 	 	 	 	 	 	 	 	 	 	 	 	 	 	 	 	1581523823	0.79	1.46
12/02/2020 16:10:24	120220	12022020	161024	92.18	12.419123	-56.989485	92.25	0.110	-0.990	1.300	92.18	-2.40	1.70	 	 	 	 	 	 	 	 	 	 	 	 	 	 	 	 	 	 	1581523824	0.85	1.57
12/02/2020 16:10:25	120220	12022020	161025	92.32	12.419123	-56.989482	92.39	0.110	-0.980	1.190	92.32	-2.40	1.60	 	 	 	 	 	 	 	 	 	 	 	 	 	 	 	 	 	 	1581523825	0.57	1.06
12/02/2020 16:10:26	120220	12022020	161026	92.45	12.419122	-56.989482	92.51	0.160	-0.390	1.170	92.45	-1.80	1.50	 	 	 	 	 	 	 	 	 	 	 	 	 	 	 	 	 	 	1581523826	0.49	0.91
12/02/2020 16:10:27	120220	12022020	161027	92.33	12.419120	-56.989483	92.37	0.210	0.300	1.150	92.33	-1.10	1.50	 	 	 	 	 	 	 	 	 	 	 	 	 	 	 	 	 	 	1581523827	0.44	0.81
12/02/2020 16:10:28	120220	12022020	161028	91.99	12.419120	-56.989483	92.01	0.070	0.640	1.050	91.99	-0.70	1.40	 	 	 	 	 	 	 	 	 	 	 	 	 	 	 	 	 	 	1581523828	0.20	0.37
12/02/2020 16:10:29	120220	12022020	161029	91.67	12.419122	-56.989483	91.69	-0.260	0.670	0.850	91.67	-0.70	1.20	 	 	 	 	 	 	 	 	 	 	 	 	 	 	 	 	 	 	1581523829	0.44	0.81
12/02/2020 16:10:30	120220	12022020	161030	91.67	12.419125	-56.989483	91.70	-0.570	0.610	0.520	91.67	-0.80	0.90	 	 	 	 	 	 	 	 	 	 	 	 	 	 	 	 	 	 	1581523830	0.61	1.13
12/02/2020 16:10:31	120220	12022020	161031	91.93	12.419128	-56.989485	91.97	-0.620	0.400	0.080	91.93	-1.00	0.40	 	 	 	 	 	 	 	 	 	 	 	 	 	 	 	 	 	 	1581523831	0.74	1.37
12/02/2020 16:10:32	120220	12022020	161032	92.20	12.419132	-56.989485	92.23	-0.270	-0.390	-0.160	92.20	-1.80	0.20	 	 	 	 	 	 	 	 	 	 	 	 	 	 	 	 	 	 	1581523832	0.54	1.00
12/02/2020 16:10:33	120220	12022020	161033	92.26	12.419130	-56.989480	92.29	0.370	-1.620	-0.000	92.26	-3.00	0.40	 	 	 	 	 	 	 	 	 	 	 	 	 	 	 	 	 	 	1581523833	0.81	1.50
12/02/2020 16:10:34	120220	12022020	161034	92.09	12.419128	-56.989475	92.12	0.940	-2.300	0.590	92.09	-3.70	1.00	 	 	 	 	 	 	 	 	 	 	 	 	 	 	 	 	 	 	1581523834	1.33	2.46
12/02/2020 16:10:35	120220	12022020	161035	91.84	12.419125	-56.989472	91.83	1.000	-1.530	1.440	91.78	-2.80	1.80	 	 	 	 	 	 	 	 	 	 	 	 	 	 	 	 	 	 	1581523835	0.93	1.72
12/02/2020 16:10:36	120220	12022020	161036	91.67	12.419122	-56.989477	91.75	0.360	0.360	2.090	91.67	-1.00	2.50	 	 	 	 	 	 	 	 	 	 	 	 	 	 	 	 	 	 	1581523836	1.10	2.04
12/02/2020 16:10:37	120220	12022020	161037	91.89	12.419120	-56.989483	91.99	-0.610	1.830	2.290	91.89	0.50	2.60	 	 	 	 	 	 	 	 	 	 	 	 	 	 	 	 	 	 	1581523837	1.64	3.04
12/02/2020 16:10:38	120220	12022020	161038	92.07	12.419118	-56.989487	92.15	-1.150	1.670	2.200	92.07	0.20	2.60	 	 	 	 	 	 	 	 	 	 	 	 	 	 	 	 	 	 	1581523838	0.75	1.39
12/02/2020 16:10:39	120220	12022020	161039	91.99	12.419117	-56.989483	92.05	-0.870	0.210	2.000	91.99	-1.20	2.40	 	 	 	 	 	 	 	 	 	 	 	 	 	 	 	 	 	 	1581523839	0.93	1.72
12/02/2020 16:10:40	120220	12022020	161040	91.80	12.419118	-56.989475	91.86	-0.120	-1.030	1.670	91.80	-2.40	2.00	 	 	 	 	 	 	 	 	 	 	 	 	 	 	 	 	 	 	1581523840	1.58	2.93
12/02/2020 16:10:41	120220	12022020	161041	91.80	12.419120	-56.989472	91.86	0.400	-1.060	1.140	91.80	-2.40	1.50	 	 	 	 	 	 	 	 	 	 	 	 	 	 	 	 	 	 	1581523841	0.76	1.41
12/02/2020 16:10:42	120220	12022020	161042	92.06	12.419123	-56.989475	92.12	0.430	-0.310	0.430	92.06	-1.70	0.80	 	 	 	 	 	 	 	 	 	 	 	 	 	 	 	 	 	 	1581523842	0.96	1.78
12/02/2020 16:10:43	120220	12022020	161043	92.26	12.419127	-56.989478	92.29	0.270	0.070	-0.120	92.26	-1.30	0.30	 	 	 	 	 	 	 	 	 	 	 	 	 	 	 	 	 	 	1581523843	1.27	2.35
12/02/2020 16:10:44	120220	12022020	161044	92.20	12.419130	-56.989478	92.21	0.200	-0.280	-0.250	92.20	-1.70	0.10	 	 	 	 	 	 	 	 	 	 	 	 	 	 	 	 	 	 	1581523844	0.76	1.41
12/02/2020 16:10:45	120220	12022020	161045	92.04	12.419132	-56.989475	92.02	0.170	-0.720	-0.010	92.00	-2.10	0.40	 	 	 	 	 	 	 	 	 	 	 	 	 	 	 	 	 	 	1581523845	0.72	1.33
12/02/2020 16:10:46	120220	12022020	161046	91.84	12.419130	-56.989473	91.88	0.060	-0.730	0.560	91.84	-2.10	1.00	 	 	 	 	 	 	 	 	 	 	 	 	 	 	 	 	 	 	1581523846	0.65	1.20
12/02/2020 16:10:47	120220	12022020	161047	91.75	12.419127	-56.989473	91.80	-0.060	-0.410	1.280	91.74	-1.80	1.70	 	 	 	 	 	 	 	 	 	 	 	 	 	 	 	 	 	 	1581523847	0.83	1.54
12/02/2020 16:10:48	120220	12022020	161048	91.76	12.419122	-56.989473	91.85	-0.130	0.010	1.850	91.76	-1.40	2.20	 	 	 	 	 	 	 	 	 	 	 	 	 	 	 	 	 	 	1581523848	0.80	1.48
12/02/2020 16:10:49	120220	12022020	161049	91.91	12.419120	-56.989475	92.00	-0.170	0.360	2.100	91.91	-1.00	2.50	 	 	 	 	 	 	 	 	 	 	 	 	 	 	 	 	 	 	1581523849	0.57	1.06
12/02/2020 16:10:50	120220	12022020	161050	92.02	12.419118	-56.989475	92.10	-0.190	0.500	2.020	92.02	-0.90	2.40	 	 	 	 	 	 	 	 	 	 	 	 	 	 	 	 	 	 	1581523850	0.34	0.63
12/02/2020 16:10:51	120220	12022020	161051	92.02	12.419118	-56.989475	92.10	-0.140	0.320	1.830	92.02	-1.10	2.20	 	 	 	 	 	 	 	 	 	 	 	 	 	 	 	 	 	 	1581523851	0.13	0.24
12/02/2020 16:10:52	120220	12022020	161052	91.96	12.419118	-56.989475	92.02	-0.000	-0.050	1.610	91.96	-1.50	2.00	 	 	 	 	 	 	 	 	 	 	 	 	 	 	 	 	 	 	1581523852	0.27	0.50
12/02/2020 16:10:53	120220	12022020	161053	91.88	12.419120	-56.989473	91.93	0.160	-0.510	1.330	91.88	-1.90	1.70	 	 	 	 	 	 	 	 	 	 	 	 	 	 	 	 	 	 	1581523853	0.50	0.93
12/02/2020 16:10:54	120220	12022020	161054	91.75	12.419123	-56.989472	91.79	0.200	-0.920	0.980	91.75	-2.30	1.40	 	 	 	 	 	 	 	 	 	 	 	 	 	 	 	 	 	 	1581523854	0.66	1.22
12/02/2020 16:10:55	120220	12022020	161055	91.65	12.419125	-56.989470	91.69	0.100	-0.910	0.630	91.65	-2.30	1.00	 	 	 	 	 	 	 	 	 	 	 	 	 	 	 	 	 	 	1581523855	0.53	0.98
12/02/2020 16:10:56	120220	12022020	161056	91.59	12.419127	-56.989470	91.62	-0.030	-0.440	0.370	91.59	-1.80	0.70	 	 	 	 	 	 	 	 	 	 	 	 	 	 	 	 	 	 	1581523856	0.28	0.52
12/02/2020 16:10:57	120220	12022020	161057	91.46	12.419127	-56.989472	91.47	-0.050	0.150	0.230	91.46	-1.20	0.60	 	 	 	 	 	 	 	 	 	 	 	 	 	 	 	 	 	 	1581523857	0.50	0.93
12/02/2020 16:10:58	120220	12022020	161058	91.25	12.419128	-56.989473	91.26	0.010	0.360	0.300	91.25	-1.00	0.70	 	 	 	 	 	 	 	 	 	 	 	 	 	 	 	 	 	 	1581523858	0.50	0.93
12/02/2020 16:10:59	120220	12022020	161059	91.13	12.419130	-56.989472	91.16	0.020	0.040	0.450	91.13	-1.40	0.80	 	 	 	 	 	 	 	 	 	 	 	 	 	 	 	 	 	 	1581523859	0.35	0.65
12/02/2020 16:11:00	120220	12022020	161100	91.29	12.419130	-56.989470	91.35	-0.080	-0.390	0.560	91.29	-1.80	0.90	 	 	 	 	 	 	 	 	 	 	 	 	 	 	 	 	 	 	1581523860	0.58	1.07
12/02/2020 16:11:01	120220	12022020	161101	91.60	12.419128	-56.989468	91.74	-0.230	-0.440	0.710	91.68	-1.80	1.10	 	 	 	 	 	 	 	 	 	 	 	 	 	 	 	 	 	 	1581523861	0.68	1.26
12/02/2020 16:11:02	120220	12022020	161102	91.82	12.419122	-56.989468	91.86	-0.290	-0.170	1.220	91.82	-1.50	1.60	1016.50	26.60	26.70	19.70	19.70	826.0	65.0	65.0	422.0	29.3	350.00	11.50	82.00	11.10	62800	11855.0	27.5	27.5	1581523862	1.23	2.28
12/02/2020 16:11:03	120220	12022020	161103	91.43	12.419115	-56.989470	91.46	-0.150	0.100	1.830	91.43	-1.30	2.20	 	 	 	 	 	 	 	 	 	 	 	 	 	 	 	 	 	 	1581523863	1.47	2.72
12/02/2020 16:11:04	120220	12022020	161104	90.81	12.419113	-56.989470	90.83	0.130	0.160	1.950	90.81	-1.20	2.30	 	 	 	 	 	 	 	 	 	 	 	 	 	 	 	 	 	 	1581523864	0.54	1.00
12/02/2020 16:11:05	120220	12022020	161105	90.39	12.419117	-56.989470	90.43	0.320	0.060	1.440	90.39	-1.30	1.80	 	 	 	 	 	 	 	 	 	 	 	 	 	 	 	 	 	 	1581523865	0.95	1.76
12/02/2020 16:11:06	120220	12022020	161106	90.41	12.419125	-56.989470	90.45	0.240	-0.200	0.600	90.41	-1.60	1.00	 	 	 	 	 	 	 	 	 	 	 	 	 	 	 	 	 	 	1581523866	1.71	3.17
12/02/2020 16:11:07	120220	12022020	161107	90.68	12.419132	-56.989470	90.72	-0.040	-0.540	-0.080	90.68	-1.90	0.30	 	 	 	 	 	 	 	 	 	 	 	 	 	 	 	 	 	 	1581523867	1.38	2.56
12/02/2020 16:11:08	120220	12022020	161108	90.90	12.419133	-56.989468	90.93	-0.290	-0.850	-0.210	90.90	-2.20	0.20	 	 	 	 	 	 	 	 	 	 	 	 	 	 	 	 	 	 	1581523868	0.42	0.78
12/02/2020 16:11:09	120220	12022020	161109	90.89	12.419128	-56.989467	90.86	-0.230	-1.060	0.220	90.85	-2.40	0.60	 	 	 	 	 	 	 	 	 	 	 	 	 	 	 	 	 	 	1581523869	0.92	1.70
12/02/2020 16:11:10	120220	12022020	161110	90.52	12.419123	-56.989463	90.53	0.050	-0.910	0.960	90.52	-2.30	1.40	 	 	 	 	 	 	 	 	 	 	 	 	 	 	 	 	 	 	1581523870	1.41	2.61
12/02/2020 16:11:11	120220	12022020	161111	90.14	12.419118	-56.989463	90.18	0.150	0.000	1.570	90.14	-1.30	2.00	 	 	 	 	 	 	 	 	 	 	 	 	 	 	 	 	 	 	1581523871	1.10	2.04
12/02/2020 16:11:12	120220	12022020	161112	90.06	12.419117	-56.989468	90.12	-0.120	1.250	1.660	90.06	-0.10	2.00	 	 	 	 	 	 	 	 	 	 	 	 	 	 	 	 	 	 	1581523872	1.05	1.94
12/02/2020 16:11:13	120220	12022020	161113	90.26	12.419117	-56.989475	90.40	-0.480	1.770	1.300	90.33	0.40	1.70	 	 	 	 	 	 	 	 	 	 	 	 	 	 	 	 	 	 	1581523873	1.26	2.33
12/02/2020 16:11:14	120220	12022020	161114	90.63	12.419118	-56.989477	90.68	-0.490	0.900	0.910	90.63	-0.60	1.30	 	 	 	 	 	 	 	 	 	 	 	 	 	 	 	 	 	 	1581523874	0.55	1.02
12/02/2020 16:11:15	120220	12022020	161115	90.65	12.419120	-56.989472	90.68	-0.040	-0.980	0.750	90.65	-2.40	1.10	 	 	 	 	 	 	 	 	 	 	 	 	 	 	 	 	 	 	1581523875	0.99	1.83
12/02/2020 16:11:16	120220	12022020	161116	90.30	12.419120	-56.989465	90.31	0.540	-2.400	0.930	90.30	-3.80	1.30	 	 	 	 	 	 	 	 	 	 	 	 	 	 	 	 	 	 	1581523876	1.54	2.85
12/02/2020 16:11:17	120220	12022020	161117	89.71	12.419118	-56.989462	89.73	0.850	-2.340	1.340	89.71	-3.70	1.70	 	 	 	 	 	 	 	 	 	 	 	 	 	 	 	 	 	 	1581523877	0.76	1.41
12/02/2020 16:11:18	120220	12022020	161118	89.29	12.419120	-56.989463	89.33	0.770	-1.070	1.540	89.29	-2.40	1.90	 	 	 	 	 	 	 	 	 	 	 	 	 	 	 	 	 	 	1581523878	0.50	0.93
12/02/2020 16:11:19	120220	12022020	161119	89.39	12.419122	-56.989468	89.47	0.380	0.470	1.240	89.39	-0.90	1.60	 	 	 	 	 	 	 	 	 	 	 	 	 	 	 	 	 	 	1581523879	1.26	2.33
12/02/2020 16:11:20	120220	12022020	161120	89.94	12.419125	-56.989473	90.03	-0.180	1.530	0.890	89.94	0.10	1.30	 	 	 	 	 	 	 	 	 	 	 	 	 	 	 	 	 	 	1581523880	1.29	2.39
12/02/2020 16:11:21	120220	12022020	161121	90.56	12.419127	-56.989477	90.64	-0.750	1.670	0.850	90.56	0.30	1.20	 	 	 	 	 	 	 	 	 	 	 	 	 	 	 	 	 	 	1581523881	0.63	1.17
12/02/2020 16:11:22	120220	12022020	161122	90.95	12.419122	-56.989477	91.02	-1.110	0.930	1.070	90.95	-0.50	1.50	 	 	 	 	 	 	 	 	 	 	 	 	 	 	 	 	 	 	1581523882	0.84	1.56
12/02/2020 16:11:23	120220	12022020	161123	90.93	12.419117	-56.989473	90.98	-1.070	-0.250	1.430	90.93	-1.70	1.80	 	 	 	 	 	 	 	 	 	 	 	 	 	 	 	 	 	 	1581523883	1.44	2.67
12/02/2020 16:11:24	120220	12022020	161124	90.46	12.419110	-56.989472	90.49	-0.540	-1.280	1.820	90.46	-2.70	2.20	 	 	 	 	 	 	 	 	 	 	 	 	 	 	 	 	 	 	1581523884	1.50	2.78
12/02/2020 16:11:25	120220	12022020	161125	89.83	12.419107	-56.989470	89.67	0.300	-1.700	2.130	89.67	-3.10	2.50	 	 	 	 	 	 	 	 	 	 	 	 	 	 	 	 	 	 	1581523885	0.86	1.59
12/02/2020 16:11:26	120220	12022020	161126	88.84	12.419107	-56.989470	88.88	1.000	-1.440	2.140	88.84	-2.80	2.50	 	 	 	 	 	 	 	 	 	 	 	 	 	 	 	 	 	 	1581523886	0.26	0.48
12/02/2020 16:11:27	120220	12022020	161127	88.71	12.419113	-56.989472	88.80	1.120	-0.640	1.420	88.71	-2.00	1.80	 	 	 	 	 	 	 	 	 	 	 	 	 	 	 	 	 	 	1581523887	1.49	2.76
12/02/2020 16:11:28	120220	12022020	161128	89.48	12.419123	-56.989475	89.58	0.690	0.190	0.080	89.48	-1.20	0.40	 	 	 	 	 	 	 	 	 	 	 	 	 	 	 	 	 	 	1581523888	2.24	4.15
12/02/2020 16:11:29	120220	12022020	161129	90.56	12.419132	-56.989477	90.62	0.140	0.510	-1.070	90.56	-0.90	-0.70	 	 	 	 	 	 	 	 	 	 	 	 	 	 	 	 	 	 	1581523889	1.83	3.39
12/02/2020 16:11:30	120220	12022020	161130	91.12	12.419135	-56.989475	91.14	-0.100	0.280	-1.060	91.12	-1.10	-0.60	 	 	 	 	 	 	 	 	 	 	 	 	 	 	 	 	 	 	1581523890	0.51	0.94
12/02/2020 16:11:31	120220	12022020	161131	90.93	12.419130	-56.989473	90.94	-0.170	0.070	0.130	90.93	-1.30	0.60	 	 	 	 	 	 	 	 	 	 	 	 	 	 	 	 	 	 	1581523891	1.18	2.19
12/02/2020 16:11:32	120220	12022020	161132	90.47	12.419120	-56.989475	90.51	-0.370	0.380	1.730	90.47	-1.00	2.20	 	 	 	 	 	 	 	 	 	 	 	 	 	 	 	 	 	 	1581523892	2.01	3.72
12/02/2020 16:11:33	120220	12022020	161133	90.05	12.419110	-56.989478	90.12	-0.700	0.760	3.140	90.05	-0.60	3.60	 	 	 	 	 	 	 	 	 	 	 	 	 	 	 	 	 	 	1581523893	2.27	4.20
12/02/2020 16:11:34	120220	12022020	161134	89.73	12.419103	-56.989482	89.83	-0.770	0.430	3.970	89.73	-1.00	4.40	 	 	 	 	 	 	 	 	 	 	 	 	 	 	 	 	 	 	1581523894	1.72	3.19
12/02/2020 16:11:35	120220	12022020	161135	89.64	12.419100	-56.989480	89.76	-0.340	-0.710	3.980	89.64	-2.10	4.30	 	 	 	 	 	 	 	 	 	 	 	 	 	 	 	 	 	 	1581523895	0.52	0.96
12/02/2020 16:11:36	120220	12022020	161136	89.79	12.419103	-56.989477	89.90	0.430	-1.860	3.240	89.79	-3.30	3.60	 	 	 	 	 	 	 	 	 	 	 	 	 	 	 	 	 	 	1581523896	1.21	2.24
12/02/2020 16:11:37	120220	12022020	161137	89.92	12.419112	-56.989472	90.05	0.980	-2.070	2.220	89.96	-3.40	2.60	 	 	 	 	 	 	 	 	 	 	 	 	 	 	 	 	 	 	1581523897	1.67	3.09
12/02/2020 16:11:38	120220	12022020	161138	90.23	12.419118	-56.989473	90.31	0.910	-1.020	1.170	90.23	-2.30	1.50	 	 	 	 	 	 	 	 	 	 	 	 	 	 	 	 	 	 	1581523898	1.48	2.74
12/02/2020 16:11:39	120220	12022020	161139	90.63	12.419123	-56.989478	90.68	0.350	0.520	0.340	90.63	-0.80	0.70	 	 	 	 	 	 	 	 	 	 	 	 	 	 	 	 	 	 	1581523899	1.64	3.04
12/02/2020 16:11:40	120220	12022020	161140	90.92	12.419127	-56.989483	90.96	-0.230	1.420	-0.090	90.92	0.00	0.30	 	 	 	 	 	 	 	 	 	 	 	 	 	 	 	 	 	 	1581523900	1.38	2.56
12/02/2020 16:11:41	120220	12022020	161141	91.01	12.419127	-56.989487	91.03	-0.510	1.280	-0.100	91.01	-0.10	0.30	 	 	 	 	 	 	 	 	 	 	 	 	 	 	 	 	 	 	1581523901	0.46	0.85
12/02/2020 16:11:42	120220	12022020	161142	90.87	12.419125	-56.989485	90.88	-0.460	0.470	0.190	90.87	-1.00	0.60	 	 	 	 	 	 	 	 	 	 	 	 	 	 	 	 	 	 	1581523902	0.43	0.80
12/02/2020 16:11:43	120220	12022020	161143	90.49	12.419122	-56.989482	90.50	-0.250	-0.470	0.720	90.49	-1.90	1.10	 	 	 	 	 	 	 	 	 	 	 	 	 	 	 	 	 	 	1581523903	0.88	1.63
12/02/2020 16:11:44	120220	12022020	161144	90.06	12.419120	-56.989480	90.08	-0.030	-1.140	1.240	90.06	-2.50	1.60	 	 	 	 	 	 	 	 	 	 	 	 	 	 	 	 	 	 	1581523904	0.83	1.54
12/02/2020 16:11:45	120220	12022020	161145	89.96	12.419118	-56.989478	90.01	0.120	-1.250	1.430	89.96	-2.60	1.80	 	 	 	 	 	 	 	 	 	 	 	 	 	 	 	 	 	 	1581523905	0.31	0.57
12/02/2020 16:11:46	120220	12022020	161146	90.32	12.419120	-56.989480	90.39	0.140	-0.730	1.220	90.32	-2.10	1.60	 	 	 	 	 	 	 	 	 	 	 	 	 	 	 	 	 	 	1581523906	0.49	0.91
12/02/2020 16:11:47	120220	12022020	161147	90.85	12.419123	-56.989483	90.92	0.030	0.060	0.920	90.85	-1.30	1.30	 	 	 	 	 	 	 	 	 	 	 	 	 	 	 	 	 	 	1581523907	1.04	1.93
12/02/2020 16:11:48	120220	12022020	161148	91.12	12.419125	-56.989487	91.16	-0.130	0.480	0.820	91.12	-0.90	1.20	 	 	 	 	 	 	 	 	 	 	 	 	 	 	 	 	 	 	1581523908	0.78	1.44
12/02/2020 16:11:49	120220	12022020	161149	91.02	12.419123	-56.989487	91.00	-0.210	0.250	0.940	90.97	-1.20	1.30	 	 	 	 	 	 	 	 	 	 	 	 	 	 	 	 	 	 	1581523909	0.30	0.56
12/02/2020 16:11:50	120220	12022020	161150	90.70	12.419122	-56.989485	90.73	-0.060	-0.350	1.140	90.70	-1.80	1.50	 	 	 	 	 	 	 	 	 	 	 	 	 	 	 	 	 	 	1581523910	0.75	1.39
12/02/2020 16:11:51	120220	12022020	161151	90.58	12.419120	-56.989482	90.61	0.230	-0.770	1.270	90.56	-2.20	1.60	 	 	 	 	 	 	 	 	 	 	 	 	 	 	 	 	 	 	1581523911	0.73	1.35
12/02/2020 16:11:52	120220	12022020	161152	90.58	12.419118	-56.989480	90.64	0.360	-0.730	1.250	90.58	-2.10	1.60	 	 	 	 	 	 	 	 	 	 	 	 	 	 	 	 	 	 	1581523912	0.34	0.63
12/02/2020 16:11:53	120220	12022020	161153	90.67	12.419120	-56.989482	90.72	0.210	-0.280	1.040	90.67	-1.60	1.40	 	 	 	 	 	 	 	 	 	 	 	 	 	 	 	 	 	 	1581523913	0.24	0.44
12/02/2020 16:11:54	120220	12022020	161154	90.74	12.419122	-56.989483	90.79	-0.100	0.380	0.640	90.74	-1.00	1.00	 	 	 	 	 	 	 	 	 	 	 	 	 	 	 	 	 	 	1581523914	0.67	1.24
12/02/2020 16:11:55	120220	12022020	161155	90.81	12.419125	-56.989487	90.84	-0.350	0.950	0.180	90.81	-0.40	0.60	 	 	 	 	 	 	 	 	 	 	 	 	 	 	 	 	 	 	1581523915	1.02	1.89
12/02/2020 16:11:56	120220	12022020	161156	90.87	12.419128	-56.989490	90.89	-0.390	0.930	-0.070	90.87	-0.50	0.30	 	 	 	 	 	 	 	 	 	 	 	 	 	 	 	 	 	 	1581523916	0.95	1.76
12/02/2020 16:11:57	120220	12022020	161157	90.78	12.419130	-56.989490	90.79	-0.220	-0.010	0.100	90.78	-1.40	0.50	 	 	 	 	 	 	 	 	 	 	 	 	 	 	 	 	 	 	1581523917	0.29	0.54
12/02/2020 16:11:58	120220	12022020	161158	90.48	12.419128	-56.989485	90.51	0.070	-1.370	0.700	90.48	-2.80	1.10	 	 	 	 	 	 	 	 	 	 	 	 	 	 	 	 	 	 	1581523918	1.02	1.89
12/02/2020 16:11:59	120220	12022020	161159	90.26	12.419123	-56.989480	90.31	0.360	-2.150	1.310	90.26	-3.50	1.70	 	 	 	 	 	 	 	 	 	 	 	 	 	 	 	 	 	 	1581523919	1.43	2.65
12/02/2020 16:12:00	120220	12022020	161200	90.24	12.419120	-56.989478	90.31	0.520	-1.660	1.570	90.24	-3.00	2.00	 	 	 	 	 	 	 	 	 	 	 	 	 	 	 	 	 	 	1581523920	0.83	1.54
12/02/2020 16:12:01	120220	12022020	161201	90.34	12.419120	-56.989482	90.41	0.410	-0.240	1.480	90.34	-1.60	1.90	 	 	 	 	 	 	 	 	 	 	 	 	 	 	 	 	 	 	1581523921	0.65	1.20
12/02/2020 16:12:02	120220	12022020	161202	90.43	12.419120	-56.989487	90.49	0.050	1.040	1.280	90.43	-0.30	1.70	1016.50	26.70	26.70	19.90	19.90	623.0	66.0	66.0	418.0	29.1	351.00	10.60	81.00	10.10	53075	12050.0	27.5	27.5	1581523922	1.17	2.17
12/02/2020 16:12:03	120220	12022020	161203	90.37	12.419122	-56.989490	90.42	-0.380	1.470	1.200	90.37	0.10	1.60	 	 	 	 	 	 	 	 	 	 	 	 	 	 	 	 	 	 	1581523923	0.74	1.37
12/02/2020 16:12:04	120220	12022020	161204	90.25	12.419123	-56.989490	90.30	-0.680	1.170	1.060	90.25	-0.20	1.40	 	 	 	 	 	 	 	 	 	 	 	 	 	 	 	 	 	 	1581523924	0.19	0.35
12/02/2020 16:12:05	120220	12022020	161205	90.24	12.419123	-56.989488	90.27	-0.700	0.430	0.730	90.24	-1.00	1.10	 	 	 	 	 	 	 	 	 	 	 	 	 	 	 	 	 	 	1581523925	0.30	0.56
12/02/2020 16:12:06	120220	12022020	161206	90.28	12.419125	-56.989487	90.31	-0.340	-0.530	0.410	90.28	-2.00	0.80	 	 	 	 	 	 	 	 	 	 	 	 	 	 	 	 	 	 	1581523926	0.44	0.81
12/02/2020 16:12:07	120220	12022020	161207	90.24	12.419125	-56.989485	90.26	0.240	-1.440	0.380	90.24	-2.80	0.80	 	 	 	 	 	 	 	 	 	 	 	 	 	 	 	 	 	 	1581523927	0.60	1.11
12/02/2020 16:12:08	120220	12022020	161208	90.06	12.419125	-56.989482	90.09	0.680	-1.790	0.650	90.06	-3.20	1.10	 	 	 	 	 	 	 	 	 	 	 	 	 	 	 	 	 	 	1581523928	0.58	1.07
12/02/2020 16:12:09	120220	12022020	161209	89.85	12.419125	-56.989480	89.88	0.740	-1.410	0.950	89.85	-2.80	1.40	 	 	 	 	 	 	 	 	 	 	 	 	 	 	 	 	 	 	1581523929	0.26	0.48
12/02/2020 16:12:10	120220	12022020	161210	89.76	12.419125	-56.989482	89.80	0.450	-0.560	1.130	89.76	-1.90	1.50	 	 	 	 	 	 	 	 	 	 	 	 	 	 	 	 	 	 	1581523930	0.22	0.41
12/02/2020 16:12:11	120220	12022020	161211	89.85	12.419125	-56.989483	89.91	0.090	0.330	1.150	89.85	-1.00	1.50	 	 	 	 	 	 	 	 	 	 	 	 	 	 	 	 	 	 	1581523931	0.37	0.69
12/02/2020 16:12:12	120220	12022020	161212	90.08	12.419125	-56.989485	90.14	-0.190	1.040	1.090	90.08	-0.30	1.50	 	 	 	 	 	 	 	 	 	 	 	 	 	 	 	 	 	 	1581523932	0.43	0.80
12/02/2020 16:12:13	120220	12022020	161213	90.30	12.419127	-56.989487	90.34	-0.340	1.390	1.060	90.30	0.00	1.50	 	 	 	 	 	 	 	 	 	 	 	 	 	 	 	 	 	 	1581523933	0.47	0.87
12/02/2020 16:12:14	120220	12022020	161214	90.43	12.419127	-56.989488	90.47	-0.380	1.030	0.950	90.43	-0.40	1.30	 	 	 	 	 	 	 	 	 	 	 	 	 	 	 	 	 	 	1581523934	0.21	0.39
12/02/2020 16:12:15	120220	12022020	161215	90.43	12.419125	-56.989487	90.44	-0.250	-0.120	0.860	90.41	-1.60	1.30	 	 	 	 	 	 	 	 	 	 	 	 	 	 	 	 	 	 	1581523935	0.46	0.85
12/02/2020 16:12:16	120220	12022020	161216	90.17	12.419125	-56.989482	90.20	-0.000	-1.390	1.060	90.17	-2.80	1.50	 	 	 	 	 	 	 	 	 	 	 	 	 	 	 	 	 	 	1581523936	1.09	2.02
12/02/2020 16:12:17	120220	12022020	161217	89.89	12.419123	-56.989477	89.93	0.210	-1.900	1.380	89.89	-3.30	1.80	 	 	 	 	 	 	 	 	 	 	 	 	 	 	 	 	 	 	1581523937	0.94	1.74
12/02/2020 16:12:18	120220	12022020	161218	89.80	12.419123	-56.989477	89.87	0.210	-1.420	1.500	89.80	-2.80	1.90	 	 	 	 	 	 	 	 	 	 	 	 	 	 	 	 	 	 	1581523938	0.13	0.24
12/02/2020 16:12:19	120220	12022020	161219	89.91	12.419125	-56.989478	89.98	0.050	-0.410	1.390	89.91	-1.80	1.80	 	 	 	 	 	 	 	 	 	 	 	 	 	 	 	 	 	 	1581523939	0.53	0.98
12/02/2020 16:12:20	120220	12022020	161220	90.09	12.419125	-56.989482	90.15	-0.130	0.630	1.130	90.09	-0.70	1.50	 	 	 	 	 	 	 	 	 	 	 	 	 	 	 	 	 	 	1581523940	0.73	1.35
12/02/2020 16:12:21	120220	12022020	161221	90.20	12.419127	-56.989485	90.23	-0.210	1.150	0.790	90.20	-0.20	1.20	 	 	 	 	 	 	 	 	 	 	 	 	 	 	 	 	 	 	1581523941	0.64	1.19
12/02/2020 16:12:22	120220	12022020	161222	90.15	12.419128	-56.989485	90.17	-0.110	0.830	0.430	90.15	-0.60	0.80	 	 	 	 	 	 	 	 	 	 	 	 	 	 	 	 	 	 	1581523942	0.57	1.06
12/02/2020 16:12:23	120220	12022020	161223	90.10	12.419132	-56.989482	90.12	0.100	-0.170	0.200	90.10	-1.60	0.60	 	 	 	 	 	 	 	 	 	 	 	 	 	 	 	 	 	 	1581523943	0.89	1.65
12/02/2020 16:12:24	120220	12022020	161224	90.19	12.419132	-56.989477	90.22	0.300	-1.080	0.170	90.19	-2.50	0.60	 	 	 	 	 	 	 	 	 	 	 	 	 	 	 	 	 	 	1581523944	1.11	2.06
12/02/2020 16:12:25	120220	12022020	161225	90.31	12.419132	-56.989473	90.37	0.330	-1.260	0.330	90.34	-2.60	0.70	 	 	 	 	 	 	 	 	 	 	 	 	 	 	 	 	 	 	1581523945	0.72	1.33
12/02/2020 16:12:26	120220	12022020	161226	90.29	12.419132	-56.989473	90.31	0.120	-0.710	0.770	90.29	-2.10	1.20	 	 	 	 	 	 	 	 	 	 	 	 	 	 	 	 	 	 	1581523946	0.27	0.50
12/02/2020 16:12:27	120220	12022020	161227	90.04	12.419128	-56.989477	89.97	-0.240	0.100	1.390	89.97	-1.30	1.80	 	 	 	 	 	 	 	 	 	 	 	 	 	 	 	 	 	 	1581523947	0.80	1.48
12/02/2020 16:12:28	120220	12022020	161228	89.59	12.419125	-56.989480	89.62	-0.520	0.660	1.840	89.59	-0.70	2.20	 	 	 	 	 	 	 	 	 	 	 	 	 	 	 	 	 	 	1581523948	0.91	1.69
12/02/2020 16:12:29	120220	12022020	161229	89.46	12.419123	-56.989480	89.50	-0.460	0.660	1.850	89.46	-0.70	2.20	 	 	 	 	 	 	 	 	 	 	 	 	 	 	 	 	 	 	1581523949	0.40	0.74
12/02/2020 16:12:30	120220	12022020	161230	89.53	12.419125	-56.989480	89.58	-0.080	0.010	1.630	89.53	-1.40	2.00	 	 	 	 	 	 	 	 	 	 	 	 	 	 	 	 	 	 	1581523950	0.42	0.78
12/02/2020 16:12:31	120220	12022020	161231	89.62	12.419128	-56.989475	89.66	0.320	-0.940	1.390	89.62	-2.30	1.80	 	 	 	 	 	 	 	 	 	 	 	 	 	 	 	 	 	 	1581523951	1.02	1.89
12/02/2020 16:12:32	120220	12022020	161232	89.73	12.419130	-56.989470	89.75	0.470	-1.390	1.050	89.73	-2.80	1.40	 	 	 	 	 	 	 	 	 	 	 	 	 	 	 	 	 	 	1581523952	1.04	1.93
12/02/2020 16:12:33	120220	12022020	161233	89.77	12.419132	-56.989470	89.78	0.330	-0.860	0.670	89.77	-2.20	1.10	 	 	 	 	 	 	 	 	 	 	 	 	 	 	 	 	 	 	1581523953	0.43	0.80
12/02/2020 16:12:34	120220	12022020	161234	89.60	12.419133	-56.989472	89.59	0.070	0.220	0.510	89.60	-1.10	0.90	 	 	 	 	 	 	 	 	 	 	 	 	 	 	 	 	 	 	1581523954	0.70	1.30
12/02/2020 16:12:35	120220	12022020	161235	89.26	12.419133	-56.989477	89.25	-0.130	0.890	0.570	89.26	-0.50	1.00	 	 	 	 	 	 	 	 	 	 	 	 	 	 	 	 	 	 	1581523955	0.88	1.63
12/02/2020 16:12:36	120220	12022020	161236	88.98	12.419135	-56.989477	88.98	-0.240	0.650	0.680	88.98	-0.80	1.10	 	 	 	 	 	 	 	 	 	 	 	 	 	 	 	 	 	 	1581523956	0.36	0.67
12/02/2020 16:12:37	120220	12022020	161237	88.97	12.419137	-56.989475	88.99	-0.250	-0.090	0.610	88.97	-1.50	1.00	 	 	 	 	 	 	 	 	 	 	 	 	 	 	 	 	 	 	1581523957	0.61	1.13
12/02/2020 16:12:38	120220	12022020	161238	89.24	12.419138	-56.989472	89.27	-0.190	-0.570	0.460	89.24	-2.00	0.90	 	 	 	 	 	 	 	 	 	 	 	 	 	 	 	 	 	 	1581523958	0.66	1.22
12/02/2020 16:12:39	120220	12022020	161239	89.45	12.419138	-56.989472	89.48	-0.080	-0.690	0.600	89.46	-2.10	1.00	 	 	 	 	 	 	 	 	 	 	 	 	 	 	 	 	 	 	1581523959	0.23	0.43
12/02/2020 16:12:40	120220	12022020	161240	89.28	12.419133	-56.989472	89.28	0.050	-0.690	1.260	89.28	-2.10	1.70	 	 	 	 	 	 	 	 	 	 	 	 	 	 	 	 	 	 	1581523960	0.84	1.56
12/02/2020 16:12:41	120220	12022020	161241	88.91	12.419128	-56.989470	88.83	0.130	-0.620	2.000	88.81	-2.00	2.40	 	 	 	 	 	 	 	 	 	 	 	 	 	 	 	 	 	 	1581523961	1.12	2.07
12/02/2020 16:12:42	120220	12022020	161242	88.47	12.419127	-56.989470	88.51	0.140	-0.370	2.280	88.47	-1.70	2.70	 	 	 	 	 	 	 	 	 	 	 	 	 	 	 	 	 	 	1581523962	0.59	1.09
12/02/2020 16:12:43	120220	12022020	161243	88.45	12.419127	-56.989470	88.51	0.110	-0.020	1.920	88.45	-1.40	2.30	 	 	 	 	 	 	 	 	 	 	 	 	 	 	 	 	 	 	1581523963	0.26	0.48
12/02/2020 16:12:44	120220	12022020	161244	88.67	12.419132	-56.989470	88.71	0.070	0.250	1.150	88.67	-1.10	1.50	 	 	 	 	 	 	 	 	 	 	 	 	 	 	 	 	 	 	1581523964	1.01	1.87
12/02/2020 16:12:45	120220	12022020	161245	88.93	12.419138	-56.989472	88.95	-0.010	0.440	0.330	88.93	-0.90	0.70	 	 	 	 	 	 	 	 	 	 	 	 	 	 	 	 	 	 	1581523965	1.27	2.35
12/02/2020 16:12:46	120220	12022020	161246	89.04	12.419143	-56.989472	89.03	-0.110	0.490	-0.270	89.04	-0.90	0.10	 	 	 	 	 	 	 	 	 	 	 	 	 	 	 	 	 	 	1581523966	1.09	2.02
12/02/2020 16:12:47	120220	12022020	161247	89.01	12.419147	-56.989473	88.99	-0.110	0.140	-0.530	89.01	-1.30	-0.10	 	 	 	 	 	 	 	 	 	 	 	 	 	 	 	 	 	 	1581523967	0.69	1.28
12/02/2020 16:12:48	120220	12022020	161248	88.95	12.419147	-56.989470	88.94	0.060	-0.720	-0.370	88.95	-2.10	0.00	 	 	 	 	 	 	 	 	 	 	 	 	 	 	 	 	 	 	1581523968	0.48	0.89
12/02/2020 16:12:49	120220	12022020	161249	88.85	12.419145	-56.989467	88.85	0.270	-1.470	0.210	88.85	-2.90	0.60	 	 	 	 	 	 	 	 	 	 	 	 	 	 	 	 	 	 	1581523969	1.06	1.96
12/02/2020 16:12:50	120220	12022020	161250	88.68	12.419140	-56.989463	88.70	0.240	-1.300	0.960	88.68	-2.60	1.40	 	 	 	 	 	 	 	 	 	 	 	 	 	 	 	 	 	 	1581523970	1.12	2.07
12/02/2020 16:12:51	120220	12022020	161251	88.50	12.419137	-56.989465	88.54	-0.070	-0.290	1.550	88.50	-1.60	2.00	 	 	 	 	 	 	 	 	 	 	 	 	 	 	 	 	 	 	1581523971	0.96	1.78
12/02/2020 16:12:52	120220	12022020	161252	88.41	12.419135	-56.989468	88.46	-0.390	0.620	1.780	88.41	-0.70	2.20	 	 	 	 	 	 	 	 	 	 	 	 	 	 	 	 	 	 	1581523972	0.98	1.81
12/02/2020 16:12:53	120220	12022020	161253	88.45	12.419135	-56.989470	88.50	-0.400	0.720	1.630	88.45	-0.70	2.00	 	 	 	 	 	 	 	 	 	 	 	 	 	 	 	 	 	 	1581523973	0.46	0.85
12/02/2020 16:12:54	120220	12022020	161254	88.59	12.419138	-56.989468	88.65	-0.140	0.250	1.280	88.59	-1.10	1.70	 	 	 	 	 	 	 	 	 	 	 	 	 	 	 	 	 	 	1581523974	0.61	1.13
12/02/2020 16:12:55	120220	12022020	161255	88.79	12.419140	-56.989467	88.83	0.050	-0.040	0.890	88.79	-1.40	1.30	 	 	 	 	 	 	 	 	 	 	 	 	 	 	 	 	 	 	1581523975	0.72	1.33
12/02/2020 16:12:56	120220	12022020	161256	88.87	12.419142	-56.989467	88.89	-0.060	0.100	0.570	88.87	-1.30	1.00	 	 	 	 	 	 	 	 	 	 	 	 	 	 	 	 	 	 	1581523976	0.42	0.78
12/02/2020 16:12:57	120220	12022020	161257	88.77	12.419143	-56.989470	88.78	-0.280	0.140	0.390	88.77	-1.20	0.80	 	 	 	 	 	 	 	 	 	 	 	 	 	 	 	 	 	 	1581523977	0.67	1.24
12/02/2020 16:12:58	120220	12022020	161258	88.59	12.419145	-56.989470	88.60	-0.240	-0.460	0.380	88.59	-1.90	0.80	 	 	 	 	 	 	 	 	 	 	 	 	 	 	 	 	 	 	1581523978	0.28	0.52
12/02/2020 16:12:59	120220	12022020	161259	88.49	12.419145	-56.989467	88.51	0.150	-1.390	0.420	88.49	-2.80	0.80	 	 	 	 	 	 	 	 	 	 	 	 	 	 	 	 	 	 	1581523979	0.72	1.33
12/02/2020 16:13:00	120220	12022020	161300	88.50	12.419145	-56.989463	88.53	0.580	-1.730	0.510	88.50	-3.10	0.90	 	 	 	 	 	 	 	 	 	 	 	 	 	 	 	 	 	 	1581523980	0.95	1.76
12/02/2020 16:13:01	120220	12022020	161301	88.47	12.419145	-56.989462	88.50	0.700	-1.000	0.700	88.47	-2.30	1.10	 	 	 	 	 	 	 	 	 	 	 	 	 	 	 	 	 	 	1581523981	0.24	0.44
12/02/2020 16:13:02	120220	12022020	161302	88.40	12.419145	-56.989465	88.43	0.430	0.340	0.880	88.40	-1.00	1.30	1016.60	26.60	26.70	19.50	19.60	922.0	64.0	65.0	416.0	29.2	353.00	10.90	82.00	10.60	68687	12200.0	27.5	27.5	1581523982	0.73	1.35
12/02/2020 16:13:03	120220	12022020	161303	88.38	12.419145	-56.989470	88.42	-0.060	1.320	0.960	88.38	-0.00	1.40	 	 	 	 	 	 	 	 	 	 	 	 	 	 	 	 	 	 	1581523983	1.04	1.93
12/02/2020 16:13:04	120220	12022020	161304	88.40	12.419145	-56.989472	88.43	-0.440	1.320	1.000	88.40	-0.10	1.40	 	 	 	 	 	 	 	 	 	 	 	 	 	 	 	 	 	 	1581523984	0.56	1.04
12/02/2020 16:13:05	120220	12022020	161305	88.35	12.419147	-56.989472	88.37	-0.510	0.430	1.020	88.35	-1.00	1.40	 	 	 	 	 	 	 	 	 	 	 	 	 	 	 	 	 	 	1581523985	0.41	0.76
12/02/2020 16:13:06	120220	12022020	161306	88.35	12.419148	-56.989467	88.39	-0.360	-0.560	1.060	88.35	-2.00	1.50	 	 	 	 	 	 	 	 	 	 	 	 	 	 	 	 	 	 	1581523986	0.89	1.65
12/02/2020 16:13:07	120220	12022020	161307	88.58	12.419147	-56.989465	88.63	-0.280	-0.860	1.150	88.58	-2.20	1.50	 	 	 	 	 	 	 	 	 	 	 	 	 	 	 	 	 	 	1581523987	0.46	0.85
12/02/2020 16:13:08	120220	12022020	161308	88.88	12.419145	-56.989467	88.93	-0.320	-0.590	1.270	88.88	-1.90	1.70	 	 	 	 	 	 	 	 	 	 	 	 	 	 	 	 	 	 	1581523988	0.67	1.24
12/02/2020 16:13:09	120220	12022020	161309	88.90	12.419142	-56.989470	88.93	-0.200	-0.420	1.460	88.90	-1.80	1.90	 	 	 	 	 	 	 	 	 	 	 	 	 	 	 	 	 	 	1581523989	0.95	1.76
12/02/2020 16:13:10	120220	12022020	161310	88.61	12.419140	-56.989470	88.63	0.200	-0.620	1.560	88.61	-2.00	1.90	 	 	 	 	 	 	 	 	 	 	 	 	 	 	 	 	 	 	1581523990	0.44	0.81
12/02/2020 16:13:11	120220	12022020	161311	88.29	12.419140	-56.989468	88.31	0.650	-0.810	1.370	88.29	-2.20	1.80	 	 	 	 	 	 	 	 	 	 	 	 	 	 	 	 	 	 	1581523991	0.43	0.80
12/02/2020 16:13:12	120220	12022020	161312	88.15	12.419145	-56.989467	88.18	0.790	-0.680	0.930	88.15	-2.00	1.30	 	 	 	 	 	 	 	 	 	 	 	 	 	 	 	 	 	 	1581523992	0.94	1.74
12/02/2020 16:13:13	120220	12022020	161313	88.29	12.419150	-56.989467	88.32	0.510	-0.230	0.400	88.29	-1.60	0.80	 	 	 	 	 	 	 	 	 	 	 	 	 	 	 	 	 	 	1581523993	1.20	2.22
12/02/2020 16:13:14	120220	12022020	161314	88.67	12.419155	-56.989468	88.70	0.010	0.370	0.010	88.67	-1.00	0.40	 	 	 	 	 	 	 	 	 	 	 	 	 	 	 	 	 	 	1581523994	1.03	1.91
12/02/2020 16:13:15	120220	12022020	161315	89.16	12.419157	-56.989470	89.19	-0.430	0.870	-0.130	89.16	-0.50	0.30	 	 	 	 	 	 	 	 	 	 	 	 	 	 	 	 	 	 	1581523995	0.55	1.02
12/02/2020 16:13:16	120220	12022020	161316	89.43	12.419155	-56.989473	89.43	-0.700	0.940	0.120	89.43	-0.50	0.50	 	 	 	 	 	 	 	 	 	 	 	 	 	 	 	 	 	 	1581523996	0.61	1.13
12/02/2020 16:13:17	120220	12022020	161317	89.28	12.419150	-56.989473	89.20	-0.750	0.430	0.820	89.21	-1.00	1.20	 	 	 	 	 	 	 	 	 	 	 	 	 	 	 	 	 	 	1581523997	0.99	1.83
12/02/2020 16:13:18	120220	12022020	161318	88.69	12.419145	-56.989472	88.70	-0.540	-0.420	1.640	88.69	-1.80	2.00	 	 	 	 	 	 	 	 	 	 	 	 	 	 	 	 	 	 	1581523998	1.22	2.26
12/02/2020 16:13:19	120220	12022020	161319	88.34	12.419142	-56.989468	88.37	-0.070	-1.150	1.990	88.34	-2.50	2.40	 	 	 	 	 	 	 	 	 	 	 	 	 	 	 	 	 	 	1581523999	0.90	1.67
12/02/2020 16:13:20	120220	12022020	161320	88.36	12.419142	-56.989467	88.40	0.490	-1.460	1.800	88.36	-2.80	2.20	 	 	 	 	 	 	 	 	 	 	 	 	 	 	 	 	 	 	1581524000	0.38	0.70
12/02/2020 16:13:21	120220	12022020	161321	88.53	12.419145	-56.989467	88.57	0.880	-1.270	1.390	88.53	-2.60	1.80	 	 	 	 	 	 	 	 	 	 	 	 	 	 	 	 	 	 	1581524001	0.79	1.46
12/02/2020 16:13:22	120220	12022020	161322	88.80	12.419150	-56.989467	88.84	0.860	-0.710	0.870	88.80	-2.00	1.30	 	 	 	 	 	 	 	 	 	 	 	 	 	 	 	 	 	 	1581524002	0.91	1.69
12/02/2020 16:13:23	120220	12022020	161323	89.13	12.419153	-56.989468	89.16	0.410	0.080	0.360	89.13	-1.30	0.80	 	 	 	 	 	 	 	 	 	 	 	 	 	 	 	 	 	 	1581524003	0.69	1.28
12/02/2020 16:13:24	120220	12022020	161324	89.29	12.419153	-56.989470	89.30	-0.210	0.910	0.180	89.29	-0.40	0.60	 	 	 	 	 	 	 	 	 	 	 	 	 	 	 	 	 	 	1581524004	0.54	1.00
12/02/2020 16:13:25	120220	12022020	161325	89.14	12.419153	-56.989473	89.14	-0.640	1.370	0.450	89.14	0.00	0.90	 	 	 	 	 	 	 	 	 	 	 	 	 	 	 	 	 	 	1581524005	0.68	1.26
12/02/2020 16:13:26	120220	12022020	161326	88.84	12.419150	-56.989475	88.84	-0.710	1.030	0.950	88.84	-0.40	1.40	 	 	 	 	 	 	 	 	 	 	 	 	 	 	 	 	 	 	1581524006	0.57	1.06
12/02/2020 16:13:27	120220	12022020	161327	88.48	12.419148	-56.989473	88.48	-0.480	-0.020	1.450	88.48	-1.40	1.90	 	 	 	 	 	 	 	 	 	 	 	 	 	 	 	 	 	 	1581524007	0.54	1.00
12/02/2020 16:13:28	120220	12022020	161328	88.09	12.419147	-56.989470	88.11	-0.180	-1.120	1.800	88.09	-2.50	2.20	 	 	 	 	 	 	 	 	 	 	 	 	 	 	 	 	 	 	1581524008	0.86	1.59
12/02/2020 16:13:29	120220	12022020	161329	87.95	12.419147	-56.989467	88.00	0.020	-1.550	1.760	87.96	-2.90	2.10	 	 	 	 	 	 	 	 	 	 	 	 	 	 	 	 	 	 	1581524009	0.63	1.17
12/02/2020 16:13:30	120220	12022020	161330	88.23	12.419148	-56.989467	88.29	0.140	-1.190	1.320	88.23	-2.50	1.70	 	 	 	 	 	 	 	 	 	 	 	 	 	 	 	 	 	 	1581524010	0.20	0.37
12/02/2020 16:13:31	120220	12022020	161331	88.58	12.419150	-56.989470	88.68	0.340	-0.660	0.850	88.64	-2.00	1.20	 	 	 	 	 	 	 	 	 	 	 	 	 	 	 	 	 	 	1581524011	0.66	1.22
12/02/2020 16:13:32	120220	12022020	161332	88.76	12.419152	-56.989470	88.78	0.560	-0.390	0.780	88.76	-1.80	1.20	 	 	 	 	 	 	 	 	 	 	 	 	 	 	 	 	 	 	1581524012	0.35	0.65
12/02/2020 16:13:33	120220	12022020	161333	88.62	12.419150	-56.989468	88.63	0.590	-0.160	0.920	88.62	-1.50	1.30	 	 	 	 	 	 	 	 	 	 	 	 	 	 	 	 	 	 	1581524013	0.31	0.57
12/02/2020 16:13:34	120220	12022020	161334	88.53	12.419150	-56.989468	88.55	0.320	0.480	0.800	88.53	-0.90	1.20	 	 	 	 	 	 	 	 	 	 	 	 	 	 	 	 	 	 	1581524014	0.05	0.09
12/02/2020 16:13:35	120220	12022020	161335	88.61	12.419152	-56.989472	88.61	-0.100	1.230	0.500	88.61	-0.10	0.90	 	 	 	 	 	 	 	 	 	 	 	 	 	 	 	 	 	 	1581524015	0.74	1.37
12/02/2020 16:13:36	120220	12022020	161336	88.58	12.419153	-56.989475	88.58	-0.400	1.190	0.400	88.58	-0.20	0.80	 	 	 	 	 	 	 	 	 	 	 	 	 	 	 	 	 	 	1581524016	0.86	1.59
12/02/2020 16:13:37	120220	12022020	161337	88.24	12.419153	-56.989475	88.22	-0.420	0.050	0.730	88.24	-1.40	1.10	 	 	 	 	 	 	 	 	 	 	 	 	 	 	 	 	 	 	1581524017	0.21	0.39
12/02/2020 16:13:38	120220	12022020	161338	87.79	12.419152	-56.989468	87.79	-0.200	-1.380	1.100	87.79	-2.80	1.50	 	 	 	 	 	 	 	 	 	 	 	 	 	 	 	 	 	 	1581524018	1.21	2.24
12/02/2020 16:13:39	120220	12022020	161339	87.52	12.419152	-56.989465	87.56	0.090	-1.850	1.260	87.52	-3.20	1.70	 	 	 	 	 	 	 	 	 	 	 	 	 	 	 	 	 	 	1581524019	1.05	1.94
12/02/2020 16:13:40	120220	12022020	161340	87.53	12.419152	-56.989465	87.57	0.200	-1.040	1.140	87.53	-2.40	1.50	 	 	 	 	 	 	 	 	 	 	 	 	 	 	 	 	 	 	1581524020	0.25	0.46
12/02/2020 16:13:41	120220	12022020	161341	87.80	12.419155	-56.989470	87.84	0.050	0.090	0.770	87.80	-1.20	1.20	 	 	 	 	 	 	 	 	 	 	 	 	 	 	 	 	 	 	1581524021	1.26	2.33
12/02/2020 16:13:42	120220	12022020	161342	88.24	12.419157	-56.989475	88.28	-0.190	0.590	0.350	88.24	-0.80	0.70	 	 	 	 	 	 	 	 	 	 	 	 	 	 	 	 	 	 	1581524022	1.04	1.93
12/02/2020 16:13:43	120220	12022020	161343	88.59	12.419157	-56.989475	88.61	-0.240	0.330	0.190	88.59	-1.10	0.60	 	 	 	 	 	 	 	 	 	 	 	 	 	 	 	 	 	 	1581524023	0.11	0.20
12/02/2020 16:13:44	120220	12022020	161344	88.59	12.419153	-56.989472	88.60	0.030	-0.290	0.470	88.59	-1.70	0.90	 	 	 	 	 	 	 	 	 	 	 	 	 	 	 	 	 	 	1581524024	0.93	1.72
12/02/2020 16:13:45	120220	12022020	161345	88.25	12.419148	-56.989468	88.25	0.410	-0.700	1.120	88.25	-2.10	1.50	 	 	 	 	 	 	 	 	 	 	 	 	 	 	 	 	 	 	1581524025	1.19	2.20
12/02/2020 16:13:46	120220	12022020	161346	87.76	12.419147	-56.989467	87.78	0.530	-0.560	1.700	87.76	-1.90	2.10	 	 	 	 	 	 	 	 	 	 	 	 	 	 	 	 	 	 	1581524026	0.69	1.28
12/02/2020 16:13:47	120220	12022020	161347	87.42	12.419147	-56.989468	87.45	0.190	-0.000	1.850	87.42	-1.30	2.20	 	 	 	 	 	 	 	 	 	 	 	 	 	 	 	 	 	 	1581524027	0.25	0.46
12/02/2020 16:13:48	120220	12022020	161348	87.34	12.419148	-56.989472	87.38	-0.420	0.590	1.600	87.34	-0.80	2.00	 	 	 	 	 	 	 	 	 	 	 	 	 	 	 	 	 	 	1581524028	0.84	1.56
12/02/2020 16:13:49	120220	12022020	161349	87.48	12.419152	-56.989475	87.52	-0.820	0.800	1.110	87.48	-0.60	1.50	 	 	 	 	 	 	 	 	 	 	 	 	 	 	 	 	 	 	1581524029	0.97	1.80
12/02/2020 16:13:50	120220	12022020	161350	87.81	12.419155	-56.989477	87.86	-0.630	0.360	0.510	87.81	-1.00	0.90	 	 	 	 	 	 	 	 	 	 	 	 	 	 	 	 	 	 	1581524030	0.73	1.35
12/02/2020 16:13:51	120220	12022020	161351	88.30	12.419158	-56.989475	88.35	0.010	-0.620	-0.100	88.30	-2.00	0.30	 	 	 	 	 	 	 	 	 	 	 	 	 	 	 	 	 	 	1581524031	0.81	1.50
12/02/2020 16:13:52	120220	12022020	161352	88.70	12.419160	-56.989470	88.72	0.560	-1.510	-0.410	88.70	-2.90	-0.00	 	 	 	 	 	 	 	 	 	 	 	 	 	 	 	 	 	 	1581524032	0.99	1.83
12/02/2020 16:13:53	120220	12022020	161353	88.76	12.419160	-56.989468	88.74	0.660	-1.690	-0.050	88.73	-3.00	0.40	 	 	 	 	 	 	 	 	 	 	 	 	 	 	 	 	 	 	1581524033	0.65	1.20
12/02/2020 16:13:54	120220	12022020	161354	88.39	12.419155	-56.989468	88.40	0.430	-1.040	0.890	88.39	-2.30	1.30	 	 	 	 	 	 	 	 	 	 	 	 	 	 	 	 	 	 	1581524034	1.10	2.04
12/02/2020 16:13:55	120220	12022020	161355	87.98	12.419148	-56.989470	87.92	0.250	0.040	1.770	87.89	-1.30	2.20	 	 	 	 	 	 	 	 	 	 	 	 	 	 	 	 	 	 	1581524035	1.52	2.82
12/02/2020 16:13:56	120220	12022020	161356	87.55	12.419145	-56.989473	87.60	0.240	0.800	1.960	87.55	-0.50	2.30	 	 	 	 	 	 	 	 	 	 	 	 	 	 	 	 	 	 	1581524036	0.79	1.46
12/02/2020 16:13:57	120220	12022020	161357	87.61	12.419148	-56.989473	87.68	0.140	0.990	1.490	87.61	-0.40	1.90	 	 	 	 	 	 	 	 	 	 	 	 	 	 	 	 	 	 	1581524037	0.77	1.43
12/02/2020 16:13:58	120220	12022020	161358	88.02	12.419155	-56.989473	88.09	-0.270	0.890	0.810	88.02	-0.50	1.20	 	 	 	 	 	 	 	 	 	 	 	 	 	 	 	 	 	 	1581524038	1.30	2.41
12/02/2020 16:13:59	120220	12022020	161359	88.48	12.419160	-56.989475	88.53	-0.770	0.660	0.250	88.48	-0.70	0.60	 	 	 	 	 	 	 	 	 	 	 	 	 	 	 	 	 	 	1581524039	1.02	1.89
12/02/2020 16:14:00	120220	12022020	161400	88.74	12.419162	-56.989477	88.77	-0.960	0.080	-0.080	88.74	-1.30	0.30	 	 	 	 	 	 	 	 	 	 	 	 	 	 	 	 	 	 	1581524040	0.51	0.94
12/02/2020 16:14:01	120220	12022020	161401	88.68	12.419160	-56.989475	88.70	-0.570	-1.080	-0.010	88.68	-2.50	0.40	 	 	 	 	 	 	 	 	 	 	 	 	 	 	 	 	 	 	1581524041	0.36	0.67
12/02/2020 16:14:02	120220	12022020	161402	88.34	12.419157	-56.989470	88.36	0.160	-2.110	0.550	88.34	-3.50	1.00	1016.50	26.70	26.70	19.70	19.70	1239.0	65.0	65.0	420.0	29.5	355.00	10.70	83.00	10.40	84102	11021.0	27.5	27.5	1581524042	1.25	2.31
12/02/2020 16:14:03	120220	12022020	161403	88.05	12.419152	-56.989467	88.10	0.740	-1.990	1.160	88.05	-3.30	1.60	 	 	 	 	 	 	 	 	 	 	 	 	 	 	 	 	 	 	1581524043	1.20	2.22
12/02/2020 16:14:04	120220	12022020	161404	88.07	12.419150	-56.989468	88.14	0.820	-0.700	1.230	88.07	-2.00	1.60	 	 	 	 	 	 	 	 	 	 	 	 	 	 	 	 	 	 	1581524044	0.61	1.13
12/02/2020 16:14:05	120220	12022020	161405	88.25	12.419152	-56.989475	88.34	0.510	0.720	0.850	88.29	-0.60	1.20	 	 	 	 	 	 	 	 	 	 	 	 	 	 	 	 	 	 	1581524045	1.20	2.22
12/02/2020 16:14:06	120220	12022020	161406	88.35	12.419155	-56.989478	88.39	0.170	1.230	0.530	88.35	-0.20	0.90	 	 	 	 	 	 	 	 	 	 	 	 	 	 	 	 	 	 	1581524046	1.03	1.91
12/02/2020 16:14:07	120220	12022020	161407	88.26	12.419157	-56.989478	88.25	0.050	0.670	0.420	88.23	-0.70	0.80	 	 	 	 	 	 	 	 	 	 	 	 	 	 	 	 	 	 	1581524047	0.61	1.13
12/02/2020 16:14:08	120220	12022020	161408	88.21	12.419160	-56.989473	88.25	0.020	-0.110	0.250	88.21	-1.50	0.60	 	 	 	 	 	 	 	 	 	 	 	 	 	 	 	 	 	 	1581524048	1.05	1.94
12/02/2020 16:14:09	120220	12022020	161409	88.43	12.419162	-56.989472	88.47	-0.170	-0.290	0.050	88.43	-1.60	0.40	 	 	 	 	 	 	 	 	 	 	 	 	 	 	 	 	 	 	1581524049	0.75	1.39
12/02/2020 16:14:10	120220	12022020	161410	88.57	12.419163	-56.989473	88.60	-0.530	0.070	0.210	88.57	-1.30	0.60	 	 	 	 	 	 	 	 	 	 	 	 	 	 	 	 	 	 	1581524050	0.43	0.80
12/02/2020 16:14:11	120220	12022020	161411	88.51	12.419160	-56.989477	88.56	-0.730	0.180	0.820	88.51	-1.20	1.20	 	 	 	 	 	 	 	 	 	 	 	 	 	 	 	 	 	 	1581524051	0.91	1.69
12/02/2020 16:14:12	120220	12022020	161412	88.51	12.419157	-56.989477	88.58	-0.510	-0.380	1.390	88.51	-1.70	1.80	 	 	 	 	 	 	 	 	 	 	 	 	 	 	 	 	 	 	1581524052	0.80	1.48
12/02/2020 16:14:13	120220	12022020	161413	88.64	12.419153	-56.989475	88.72	-0.020	-1.090	1.610	88.64	-2.40	2.00	 	 	 	 	 	 	 	 	 	 	 	 	 	 	 	 	 	 	1581524053	0.90	1.67
12/02/2020 16:14:14	120220	12022020	161414	88.73	12.419152	-56.989472	88.80	0.420	-1.310	1.640	88.73	-2.60	2.00	 	 	 	 	 	 	 	 	 	 	 	 	 	 	 	 	 	 	1581524054	0.82	1.52
12/02/2020 16:14:15	120220	12022020	161415	88.58	12.419148	-56.989470	88.64	0.640	-0.990	1.760	88.58	-2.30	2.10	 	 	 	 	 	 	 	 	 	 	 	 	 	 	 	 	 	 	1581524055	0.52	0.96
12/02/2020 16:14:16	120220	12022020	161416	88.29	12.419147	-56.989472	88.35	0.590	-0.390	1.880	88.29	-1.70	2.30	 	 	 	 	 	 	 	 	 	 	 	 	 	 	 	 	 	 	1581524056	0.27	0.50
12/02/2020 16:14:17	120220	12022020	161417	88.12	12.419148	-56.989472	88.15	0.300	0.370	1.530	88.09	-0.90	1.90	 	 	 	 	 	 	 	 	 	 	 	 	 	 	 	 	 	 	1581524057	0.44	0.81
12/02/2020 16:14:18	120220	12022020	161418	88.13	12.419155	-56.989475	88.18	-0.080	1.010	0.610	88.13	-0.30	1.00	 	 	 	 	 	 	 	 	 	 	 	 	 	 	 	 	 	 	1581524058	1.27	2.35
12/02/2020 16:14:19	120220	12022020	161419	88.34	12.419162	-56.989477	88.44	-0.290	1.030	-0.470	88.40	-0.30	-0.10	 	 	 	 	 	 	 	 	 	 	 	 	 	 	 	 	 	 	1581524059	1.65	3.06
12/02/2020 16:14:20	120220	12022020	161420	88.87	12.419168	-56.989477	88.90	-0.240	0.370	-1.350	88.87	-1.00	-1.00	 	 	 	 	 	 	 	 	 	 	 	 	 	 	 	 	 	 	1581524060	1.50	2.78
12/02/2020 16:14:21	120220	12022020	161421	89.30	12.419173	-56.989473	89.30	-0.110	-0.440	-1.680	89.30	-1.80	-1.30	 	 	 	 	 	 	 	 	 	 	 	 	 	 	 	 	 	 	1581524061	1.06	1.96
12/02/2020 16:14:22	120220	12022020	161422	89.36	12.419172	-56.989470	89.34	-0.070	-0.940	-1.140	89.36	-2.30	-0.70	 	 	 	 	 	 	 	 	 	 	 	 	 	 	 	 	 	 	1581524062	0.53	0.98
12/02/2020 16:14:23	120220	12022020	161423	89.02	12.419165	-56.989470	89.02	-0.060	-1.050	0.220	89.02	-2.40	0.70	 	 	 	 	 	 	 	 	 	 	 	 	 	 	 	 	 	 	1581524063	1.41	2.61
12/02/2020 16:14:24	120220	12022020	161424	88.61	12.419157	-56.989470	88.66	-0.000	-0.920	1.680	88.61	-2.20	2.10	 	 	 	 	 	 	 	 	 	 	 	 	 	 	 	 	 	 	1581524064	1.92	3.56
12/02/2020 16:14:25	120220	12022020	161425	88.36	12.419148	-56.989470	88.43	0.050	-0.600	2.660	88.36	-1.90	3.10	 	 	 	 	 	 	 	 	 	 	 	 	 	 	 	 	 	 	1581524065	1.53	2.83
12/02/2020 16:14:26	120220	12022020	161426	88.36	12.419147	-56.989472	88.45	0.000	-0.060	2.940	88.36	-1.40	3.30	 	 	 	 	 	 	 	 	 	 	 	 	 	 	 	 	 	 	1581524066	0.69	1.28
12/02/2020 16:14:27	120220	12022020	161427	88.60	12.419147	-56.989473	88.69	-0.070	0.470	2.560	88.60	-0.90	2.90	 	 	 	 	 	 	 	 	 	 	 	 	 	 	 	 	 	 	1581524067	0.35	0.65
12/02/2020 16:14:28	120220	12022020	161428	88.85	12.419150	-56.989473	88.90	-0.010	0.540	1.760	88.85	-0.80	2.10	 	 	 	 	 	 	 	 	 	 	 	 	 	 	 	 	 	 	1581524068	0.73	1.35
12/02/2020 16:14:29	120220	12022020	161429	88.94	12.419155	-56.989472	88.95	0.200	-0.010	0.820	88.94	-1.40	1.20	 	 	 	 	 	 	 	 	 	 	 	 	 	 	 	 	 	 	1581524069	1.12	2.07
12/02/2020 16:14:30	120220	12022020	161430	88.98	12.419160	-56.989468	88.99	0.400	-0.710	0.050	88.98	-2.10	0.40	 	 	 	 	 	 	 	 	 	 	 	 	 	 	 	 	 	 	1581524070	1.42	2.63
12/02/2020 16:14:31	120220	12022020	161431	89.18	12.419163	-56.989465	89.19	0.410	-0.870	-0.450	89.18	-2.20	-0.10	 	 	 	 	 	 	 	 	 	 	 	 	 	 	 	 	 	 	1581524071	1.07	1.98
12/02/2020 16:14:32	120220	12022020	161432	89.47	12.419165	-56.989465	89.48	0.170	-0.290	-0.700	89.47	-1.60	-0.30	 	 	 	 	 	 	 	 	 	 	 	 	 	 	 	 	 	 	1581524072	0.39	0.72
12/02/2020 16:14:33	120220	12022020	161433	89.59	12.419165	-56.989468	89.58	-0.200	0.470	-0.580	89.59	-0.80	-0.20	 	 	 	 	 	 	 	 	 	 	 	 	 	 	 	 	 	 	1581524073	0.69	1.28
12/02/2020 16:14:34	120220	12022020	161434	89.30	12.419163	-56.989472	89.28	-0.530	0.750	0.030	89.30	-0.60	0.50	 	 	 	 	 	 	 	 	 	 	 	 	 	 	 	 	 	 	1581524074	0.79	1.46
12/02/2020 16:14:35	120220	12022020	161435	88.75	12.419160	-56.989472	88.75	-0.660	0.320	1.010	88.75	-1.00	1.40	 	 	 	 	 	 	 	 	 	 	 	 	 	 	 	 	 	 	1581524075	0.92	1.70
12/02/2020 16:14:36	120220	12022020	161436	88.46	12.419155	-56.989470	88.50	-0.540	-0.450	1.710	88.46	-1.80	2.10	 	 	 	 	 	 	 	 	 	 	 	 	 	 	 	 	 	 	1581524076	1.12	2.07
12/02/2020 16:14:37	120220	12022020	161437	88.66	12.419152	-56.989467	88.73	-0.150	-1.010	1.760	88.66	-2.30	2.10	 	 	 	 	 	 	 	 	 	 	 	 	 	 	 	 	 	 	1581524077	0.73	1.35
12/02/2020 16:14:38	120220	12022020	161438	89.14	12.419153	-56.989465	89.21	0.440	-1.200	1.460	89.14	-2.50	1.80	 	 	 	 	 	 	 	 	 	 	 	 	 	 	 	 	 	 	1581524078	0.37	0.69
12/02/2020 16:14:39	120220	12022020	161439	89.48	12.419155	-56.989463	89.51	0.940	-1.150	1.250	89.48	-2.50	1.60	 	 	 	 	 	 	 	 	 	 	 	 	 	 	 	 	 	 	1581524079	0.51	0.94
12/02/2020 16:14:40	120220	12022020	161440	89.42	12.419157	-56.989463	89.44	0.910	-0.670	1.280	89.42	-2.00	1.70	 	 	 	 	 	 	 	 	 	 	 	 	 	 	 	 	 	 	1581524080	0.37	0.69
12/02/2020 16:14:41	120220	12022020	161441	89.15	12.419155	-56.989463	89.16	0.270	0.260	1.460	89.15	-1.00	1.90	 	 	 	 	 	 	 	 	 	 	 	 	 	 	 	 	 	 	1581524081	0.24	0.44
12/02/2020 16:14:42	120220	12022020	161442	88.88	12.419153	-56.989467	88.89	-0.510	1.220	1.590	88.88	-0.10	2.00	 	 	 	 	 	 	 	 	 	 	 	 	 	 	 	 	 	 	1581524082	0.85	1.57
12/02/2020 16:14:43	120220	12022020	161443	88.76	12.419152	-56.989470	88.77	-0.860	1.630	1.380	88.76	0.30	1.80	 	 	 	 	 	 	 	 	 	 	 	 	 	 	 	 	 	 	1581524083	0.87	1.61
12/02/2020 16:14:44	120220	12022020	161444	88.87	12.419155	-56.989472	88.89	-0.680	1.000	0.850	88.87	-0.40	1.20	 	 	 	 	 	 	 	 	 	 	 	 	 	 	 	 	 	 	1581524084	0.53	0.98
12/02/2020 16:14:45	120220	12022020	161445	89.08	12.419158	-56.989470	89.09	-0.210	-0.520	0.300	89.08	-1.90	0.70	 	 	 	 	 	 	 	 	 	 	 	 	 	 	 	 	 	 	1581524085	0.94	1.74
12/02/2020 16:14:46	120220	12022020	161446	89.19	12.419160	-56.989463	89.18	0.220	-2.020	-0.110	89.19	-3.40	0.30	 	 	 	 	 	 	 	 	 	 	 	 	 	 	 	 	 	 	1581524086	1.37	2.54
12/02/2020 16:14:47	120220	12022020	161447	89.04	12.419160	-56.989458	89.01	0.440	-2.360	-0.100	89.04	-3.70	0.30	 	 	 	 	 	 	 	 	 	 	 	 	 	 	 	 	 	 	1581524087	1.02	1.89
12/02/2020 16:14:48	120220	12022020	161448	88.69	12.419158	-56.989460	88.68	0.470	-1.280	0.330	88.69	-2.60	0.70	 	 	 	 	 	 	 	 	 	 	 	 	 	 	 	 	 	 	1581524088	0.44	0.81
12/02/2020 16:14:49	120220	12022020	161449	88.41	12.419157	-56.989465	88.42	0.310	0.270	0.880	88.41	-1.00	1.30	 	 	 	 	 	 	 	 	 	 	 	 	 	 	 	 	 	 	1581524089	1.29	2.39
12/02/2020 16:14:50	120220	12022020	161450	88.42	12.419155	-56.989470	88.46	0.070	1.150	1.190	88.42	-0.20	1.60	 	 	 	 	 	 	 	 	 	 	 	 	 	 	 	 	 	 	1581524090	1.09	2.02
12/02/2020 16:14:51	120220	12022020	161451	88.80	12.419153	-56.989472	88.85	-0.120	1.020	1.090	88.80	-0.30	1.50	 	 	 	 	 	 	 	 	 	 	 	 	 	 	 	 	 	 	1581524091	0.20	0.37
12/02/2020 16:14:52	120220	12022020	161452	89.25	12.419155	-56.989468	89.29	-0.200	0.280	0.800	89.25	-1.10	1.20	 	 	 	 	 	 	 	 	 	 	 	 	 	 	 	 	 	 	1581524092	0.58	1.07
12/02/2020 16:14:53	120220	12022020	161453	89.45	12.419155	-56.989465	89.47	-0.170	-0.380	0.710	89.45	-1.70	1.10	 	 	 	 	 	 	 	 	 	 	 	 	 	 	 	 	 	 	1581524093	0.74	1.37
12/02/2020 16:14:54	120220	12022020	161454	89.24	12.419153	-56.989463	89.24	-0.130	-0.540	1.020	89.24	-1.90	1.40	 	 	 	 	 	 	 	 	 	 	 	 	 	 	 	 	 	 	1581524094	0.34	0.63
12/02/2020 16:14:55	120220	12022020	161455	88.83	12.419152	-56.989465	88.84	-0.170	-0.290	1.610	88.83	-1.60	2.00	 	 	 	 	 	 	 	 	 	 	 	 	 	 	 	 	 	 	1581524095	0.59	1.09
12/02/2020 16:14:56	120220	12022020	161456	88.61	12.419148	-56.989468	88.66	-0.260	-0.040	2.000	88.61	-1.40	2.40	 	 	 	 	 	 	 	 	 	 	 	 	 	 	 	 	 	 	1581524096	0.89	1.65
12/02/2020 16:14:57	120220	12022020	161457	88.74	12.419147	-56.989470	88.88	-0.230	-0.060	1.790	88.81	-1.40	2.20	 	 	 	 	 	 	 	 	 	 	 	 	 	 	 	 	 	 	1581524097	0.56	1.04
12/02/2020 16:14:58	120220	12022020	161458	89.15	12.419148	-56.989470	89.19	0.080	-0.530	1.260	89.15	-1.90	1.60	 	 	 	 	 	 	 	 	 	 	 	 	 	 	 	 	 	 	1581524098	0.28	0.52
12/02/2020 16:14:59	120220	12022020	161459	89.16	12.419150	-56.989467	89.17	0.510	-1.170	0.950	89.16	-2.50	1.30	 	 	 	 	 	 	 	 	 	 	 	 	 	 	 	 	 	 	1581524099	0.77	1.43
12/02/2020 16:15:00	120220	12022020	161500	88.88	12.419150	-56.989463	88.88	0.640	-1.200	0.950	88.88	-2.50	1.40	 	 	 	 	 	 	 	 	 	 	 	 	 	 	 	 	 	 	1581524100	0.79	1.46
12/02/2020 16:15:01	120220	12022020	161501	88.72	12.419152	-56.989463	88.74	0.350	-0.410	0.990	88.72	-1.70	1.40	 	 	 	 	 	 	 	 	 	 	 	 	 	 	 	 	 	 	1581524101	0.08	0.15
12/02/2020 16:15:02	120220	12022020	161502	88.92	12.419152	-56.989467	88.97	-0.120	0.560	0.880	88.92	-0.70	1.30	1016.50	26.70	26.70	19.80	19.90	1085.0	66.0	66.0	423.0	29.6	354.00	10.40	83.00	10.00	76110	10883.0	27.5	27.5	1581524102	0.68	1.26
12/02/2020 16:15:03	120220	12022020	161503	89.26	12.419150	-56.989470	89.29	-0.470	1.010	0.750	89.26	-0.30	1.10	 	 	 	 	 	 	 	 	 	 	 	 	 	 	 	 	 	 	1581524103	0.65	1.20
12/02/2020 16:15:04	120220	12022020	161504	89.42	12.419150	-56.989470	89.44	-0.550	0.730	0.730	89.42	-0.60	1.10	 	 	 	 	 	 	 	 	 	 	 	 	 	 	 	 	 	 	1581524104	0.23	0.43
12/02/2020 16:15:05	120220	12022020	161505	89.28	12.419148	-56.989468	89.28	-0.390	0.140	0.910	89.28	-1.20	1.30	 	 	 	 	 	 	 	 	 	 	 	 	 	 	 	 	 	 	1581524105	0.47	0.87
12/02/2020 16:15:06	120220	12022020	161506	88.96	12.419147	-56.989468	88.97	-0.170	-0.240	1.110	88.96	-1.60	1.50	 	 	 	 	 	 	 	 	 	 	 	 	 	 	 	 	 	 	1581524106	0.40	0.74
12/02/2020 16:15:07	120220	12022020	161507	88.83	12.419147	-56.989468	88.86	-0.050	-0.290	1.070	88.83	-1.60	1.50	 	 	 	 	 	 	 	 	 	 	 	 	 	 	 	 	 	 	1581524107	0.20	0.37
12/02/2020 16:15:08	120220	12022020	161508	89.13	12.419150	-56.989470	89.19	-0.020	-0.410	0.850	89.13	-1.80	1.20	 	 	 	 	 	 	 	 	 	 	 	 	 	 	 	 	 	 	1581524108	0.59	1.09
12/02/2020 16:15:09	120220	12022020	161509	89.50	12.419152	-56.989470	89.61	0.170	-0.990	0.750	89.57	-2.30	1.20	 	 	 	 	 	 	 	 	 	 	 	 	 	 	 	 	 	 	1581524109	0.36	0.67
12/02/2020 16:15:10	120220	12022020	161510	89.62	12.419150	-56.989467	89.64	0.580	-1.780	1.140	89.62	-3.10	1.60	 	 	 	 	 	 	 	 	 	 	 	 	 	 	 	 	 	 	1581524110	0.82	1.52
12/02/2020 16:15:11	120220	12022020	161511	89.33	12.419147	-56.989462	89.28	0.860	-1.870	1.920	89.25	-3.20	2.30	 	 	 	 	 	 	 	 	 	 	 	 	 	 	 	 	 	 	1581524111	1.38	2.56
12/02/2020 16:15:12	120220	12022020	161512	89.02	12.419142	-56.989460	89.09	0.620	-0.530	2.490	89.02	-1.80	2.90	 	 	 	 	 	 	 	 	 	 	 	 	 	 	 	 	 	 	1581524112	1.12	2.07
12/02/2020 16:15:13	120220	12022020	161513	89.22	12.419138	-56.989467	89.30	-0.150	1.580	2.360	89.22	0.30	2.70	 	 	 	 	 	 	 	 	 	 	 	 	 	 	 	 	 	 	1581524113	1.48	2.74
12/02/2020 16:15:14	120220	12022020	161514	89.51	12.419140	-56.989475	89.57	-0.990	2.890	1.740	89.51	1.60	2.10	 	 	 	 	 	 	 	 	 	 	 	 	 	 	 	 	 	 	1581524114	1.97	3.65
12/02/2020 16:15:15	120220	12022020	161515	89.64	12.419143	-56.989480	89.67	-1.310	2.350	0.950	89.64	1.00	1.30	 	 	 	 	 	 	 	 	 	 	 	 	 	 	 	 	 	 	1581524115	1.30	2.41
12/02/2020 16:15:16	120220	12022020	161516	89.76	12.419148	-56.989478	89.77	-0.920	0.260	0.080	89.76	-1.10	0.50	 	 	 	 	 	 	 	 	 	 	 	 	 	 	 	 	 	 	1581524116	1.29	2.39
12/02/2020 16:15:17	120220	12022020	161517	89.99	12.419155	-56.989472	90.00	-0.200	-2.060	-0.660	89.99	-3.40	-0.30	 	 	 	 	 	 	 	 	 	 	 	 	 	 	 	 	 	 	1581524117	1.92	3.56
12/02/2020 16:15:18	120220	12022020	161518	90.12	12.419157	-56.989465	90.11	0.400	-3.390	-0.780	90.12	-4.70	-0.40	 	 	 	 	 	 	 	 	 	 	 	 	 	 	 	 	 	 	1581524118	1.45	2.69
12/02/2020 16:15:19	120220	12022020	161519	89.85	12.419153	-56.989462	89.84	0.730	-3.100	-0.050	89.85	-4.40	0.40	 	 	 	 	 	 	 	 	 	 	 	 	 	 	 	 	 	 	1581524119	0.88	1.63
12/02/2020 16:15:20	120220	12022020	161520	89.43	12.419147	-56.989465	89.45	0.860	-1.340	0.930	89.43	-2.60	1.40	 	 	 	 	 	 	 	 	 	 	 	 	 	 	 	 	 	 	1581524120	1.54	2.85
12/02/2020 16:15:21	120220	12022020	161521	89.31	12.419143	-56.989472	89.38	0.760	0.830	1.420	89.31	-0.40	1.80	 	 	 	 	 	 	 	 	 	 	 	 	 	 	 	 	 	 	1581524121	1.72	3.19
12/02/2020 16:15:22	120220	12022020	161522	89.62	12.419143	-56.989478	89.70	0.370	2.100	1.230	89.62	0.80	1.60	 	 	 	 	 	 	 	 	 	 	 	 	 	 	 	 	 	 	1581524122	1.39	2.57
12/02/2020 16:15:23	120220	12022020	161523	90.09	12.419148	-56.989480	90.17	-0.210	2.040	0.750	90.09	0.70	1.10	 	 	 	 	 	 	 	 	 	 	 	 	 	 	 	 	 	 	1581524123	0.98	1.81
12/02/2020 16:15:24	120220	12022020	161524	90.43	12.419150	-56.989478	90.50	-0.750	1.150	0.520	90.43	-0.20	0.90	 	 	 	 	 	 	 	 	 	 	 	 	 	 	 	 	 	 	1581524124	0.75	1.39
12/02/2020 16:15:25	120220	12022020	161525	90.56	12.419150	-56.989477	90.62	-1.080	0.050	0.780	90.56	-1.30	1.20	 	 	 	 	 	 	 	 	 	 	 	 	 	 	 	 	 	 	1581524125	0.54	1.00
12/02/2020 16:15:26	120220	12022020	161526	90.52	12.419145	-56.989475	90.58	-1.100	-0.830	1.390	90.52	-2.20	1.80	 	 	 	 	 	 	 	 	 	 	 	 	 	 	 	 	 	 	1581524126	1.11	2.06
12/02/2020 16:15:27	120220	12022020	161527	90.35	12.419138	-56.989477	90.42	-0.690	-1.470	2.010	90.35	-2.80	2.40	 	 	 	 	 	 	 	 	 	 	 	 	 	 	 	 	 	 	1581524127	1.52	2.82
12/02/2020 16:15:28	120220	12022020	161528	90.17	12.419132	-56.989475	90.26	0.170	-1.950	2.310	90.17	-3.30	2.70	 	 	 	 	 	 	 	 	 	 	 	 	 	 	 	 	 	 	1581524128	1.26	2.33
12/02/2020 16:15:29	120220	12022020	161529	90.04	12.419130	-56.989473	90.11	1.190	-1.990	2.180	90.04	-3.30	2.60	 	 	 	 	 	 	 	 	 	 	 	 	 	 	 	 	 	 	1581524129	0.53	0.98
12/02/2020 16:15:30	120220	12022020	161530	89.91	12.419133	-56.989473	89.98	1.680	-1.120	1.650	89.91	-2.40	2.00	 	 	 	 	 	 	 	 	 	 	 	 	 	 	 	 	 	 	1581524130	0.76	1.41
12/02/2020 16:15:31	120220	12022020	161531	89.84	12.419142	-56.989477	89.89	1.240	0.280	0.810	89.84	-1.00	1.20	 	 	 	 	 	 	 	 	 	 	 	 	 	 	 	 	 	 	1581524131	1.72	3.19
12/02/2020 16:15:32	120220	12022020	161532	89.87	12.419148	-56.989480	89.92	0.190	1.360	0.040	89.87	0.00	0.40	 	 	 	 	 	 	 	 	 	 	 	 	 	 	 	 	 	 	1581524132	1.93	3.57
12/02/2020 16:15:33	120220	12022020	161533	90.06	12.419153	-56.989482	90.21	-0.770	1.640	-0.410	90.15	0.30	-0.00	 	 	 	 	 	 	 	 	 	 	 	 	 	 	 	 	 	 	1581524133	1.12	2.07
12/02/2020 16:15:34	120220	12022020	161534	90.71	12.419153	-56.989482	90.78	-1.220	1.310	-0.510	90.71	-0.10	-0.10	 	 	 	 	 	 	 	 	 	 	 	 	 	 	 	 	 	 	1581524134	0.02	0.04
12/02/2020 16:15:35	120220	12022020	161535	91.17	12.419150	-56.989482	91.22	-1.160	0.700	-0.180	91.17	-0.70	0.20	 	 	 	 	 	 	 	 	 	 	 	 	 	 	 	 	 	 	1581524135	0.83	1.54
12/02/2020 16:15:36	120220	12022020	161536	91.17	12.419143	-56.989483	91.21	-0.780	-0.160	0.570	91.17	-1.50	1.00	 	 	 	 	 	 	 	 	 	 	 	 	 	 	 	 	 	 	1581524136	1.29	2.39
12/02/2020 16:15:37	120220	12022020	161537	90.75	12.419137	-56.989482	90.79	-0.190	-1.240	1.510	90.75	-2.60	1.90	 	 	 	 	 	 	 	 	 	 	 	 	 	 	 	 	 	 	1581524137	1.41	2.61
12/02/2020 16:15:38	120220	12022020	161538	90.15	12.419132	-56.989480	90.21	0.540	-2.180	2.360	90.15	-3.50	2.80	 	 	 	 	 	 	 	 	 	 	 	 	 	 	 	 	 	 	1581524138	1.23	2.28
12/02/2020 16:15:39	120220	12022020	161539	89.61	12.419130	-56.989477	89.68	1.120	-2.330	2.940	89.61	-3.60	3.30	 	 	 	 	 	 	 	 	 	 	 	 	 	 	 	 	 	 	1581524139	0.89	1.65
12/02/2020 16:15:40	120220	12022020	161540	89.41	12.419130	-56.989475	89.51	1.220	-1.400	2.980	89.41	-2.70	3.40	 	 	 	 	 	 	 	 	 	 	 	 	 	 	 	 	 	 	1581524140	0.19	0.35
12/02/2020 16:15:41	120220	12022020	161541	89.68	12.419133	-56.989478	89.79	0.750	0.030	2.470	89.68	-1.30	2.80	 	 	 	 	 	 	 	 	 	 	 	 	 	 	 	 	 	 	1581524141	0.92	1.70
12/02/2020 16:15:42	120220	12022020	161542	90.23	12.419138	-56.989482	90.33	-0.000	1.190	1.580	90.23	-0.10	2.00	 	 	 	 	 	 	 	 	 	 	 	 	 	 	 	 	 	 	1581524142	1.27	2.35
12/02/2020 16:15:43	120220	12022020	161543	90.78	12.419143	-56.989485	90.86	-0.660	1.820	0.540	90.78	0.50	0.90	 	 	 	 	 	 	 	 	 	 	 	 	 	 	 	 	 	 	1581524143	1.21	2.24
12/02/2020 16:15:44	120220	12022020	161544	91.18	12.419147	-56.989487	91.23	-0.910	1.900	-0.360	91.18	0.50	0.00	 	 	 	 	 	 	 	 	 	 	 	 	 	 	 	 	 	 	1581524144	1.03	1.91
12/02/2020 16:15:45	120220	12022020	161545	91.27	12.419150	-56.989488	91.26	-0.670	1.110	-0.760	91.25	-0.30	-0.40	 	 	 	 	 	 	 	 	 	 	 	 	 	 	 	 	 	 	1581524145	0.51	0.94
12/02/2020 16:15:46	120220	12022020	161546	90.95	12.419148	-56.989485	90.93	-0.090	-0.560	-0.500	90.95	-2.00	-0.10	 	 	 	 	 	 	 	 	 	 	 	 	 	 	 	 	 	 	1581524146	0.58	1.07
12/02/2020 16:15:47	120220	12022020	161547	90.45	12.419145	-56.989480	90.45	0.480	-2.290	0.160	90.45	-3.70	0.60	 	 	 	 	 	 	 	 	 	 	 	 	 	 	 	 	 	 	1581524147	1.37	2.54
12/02/2020 16:15:48	120220	12022020	161548	90.07	12.419143	-56.989473	90.10	0.730	-2.860	0.750	90.07	-4.20	1.20	 	 	 	 	 	 	 	 	 	 	 	 	 	 	 	 	 	 	1581524148	1.21	2.24
12/02/2020 16:15:49	120220	12022020	161549	90.03	12.419143	-56.989473	90.11	0.550	-1.820	1.080	90.03	-3.10	1.50	 	 	 	 	 	 	 	 	 	 	 	 	 	 	 	 	 	 	1581524149	0.14	0.26
12/02/2020 16:15:50	120220	12022020	161550	90.48	12.419143	-56.989480	90.60	0.090	0.110	1.160	90.48	-1.20	1.50	 	 	 	 	 	 	 	 	 	 	 	 	 	 	 	 	 	 	1581524150	1.23	2.28
12/02/2020 16:15:51	120220	12022020	161551	91.13	12.419143	-56.989487	91.24	-0.400	1.690	1.160	91.13	0.40	1.50	 	 	 	 	 	 	 	 	 	 	 	 	 	 	 	 	 	 	1581524151	1.59	2.94
12/02/2020 16:15:52	120220	12022020	161552	91.53	12.419142	-56.989492	91.62	-0.720	2.030	1.140	91.53	0.70	1.50	 	 	 	 	 	 	 	 	 	 	 	 	 	 	 	 	 	 	1581524152	1.00	1.85
12/02/2020 16:15:53	120220	12022020	161553	91.56	12.419140	-56.989492	91.62	-0.660	1.040	1.180	91.56	-0.30	1.60	 	 	 	 	 	 	 	 	 	 	 	 	 	 	 	 	 	 	1581524153	0.39	0.72
12/02/2020 16:15:54	120220	12022020	161554	91.32	12.419138	-56.989487	91.37	-0.170	-0.670	1.400	91.32	-2.00	1.80	 	 	 	 	 	 	 	 	 	 	 	 	 	 	 	 	 	 	1581524154	1.24	2.30
12/02/2020 16:15:55	120220	12022020	161555	90.99	12.419135	-56.989480	91.04	0.540	-2.010	1.740	90.99	-3.30	2.10	 	 	 	 	 	 	 	 	 	 	 	 	 	 	 	 	 	 	1581524155	1.58	2.93
12/02/2020 16:15:56	120220	12022020	161556	90.65	12.419135	-56.989475	90.72	1.040	-2.020	1.790	90.65	-3.30	2.20	 	 	 	 	 	 	 	 	 	 	 	 	 	 	 	 	 	 	1581524156	0.80	1.48
12/02/2020 16:15:57	120220	12022020	161557	90.51	12.419138	-56.989478	90.59	0.990	-0.770	1.230	90.51	-2.00	1.60	 	 	 	 	 	 	 	 	 	 	 	 	 	 	 	 	 	 	1581524157	1.05	1.94
12/02/2020 16:15:58	120220	12022020	161558	90.76	12.419147	-56.989483	90.85	0.380	0.640	0.250	90.76	-0.70	0.60	 	 	 	 	 	 	 	 	 	 	 	 	 	 	 	 	 	 	1581524158	2.12	3.93
12/02/2020 16:15:59	120220	12022020	161559	91.19	12.419153	-56.989488	91.37	-0.490	1.310	-0.590	91.29	-0.00	-0.20	 	 	 	 	 	 	 	 	 	 	 	 	 	 	 	 	 	 	1581524159	1.82	3.37
12/02/2020 16:16:00	120220	12022020	161600	91.82	12.419155	-56.989490	91.89	-1.090	1.080	-0.780	91.82	-0.30	-0.40	 	 	 	 	 	 	 	 	 	 	 	 	 	 	 	 	 	 	1581524160	0.55	1.02
12/02/2020 16:16:01	120220	12022020	161601	92.07	12.419152	-56.989490	92.12	-1.010	0.190	-0.200	92.08	-1.20	0.20	 	 	 	 	 	 	 	 	 	 	 	 	 	 	 	 	 	 	1581524161	0.88	1.63
12/02/2020 16:16:02	120220	12022020	161602	91.81	12.419143	-56.989487	91.84	-0.250	-0.900	0.930	91.81	-2.30	1.40	1016.50	26.70	26.80	20.00	20.10	962.0	66.0	66.0	423.0	29.6	348.00	10.00	78.00	9.50	70855	9514.0	27.5	27.5	1581524162	1.74	3.22
12/02/2020 16:16:03	120220	12022020	161603	91.17	12.419137	-56.989482	91.20	0.550	-1.530	2.110	91.17	-2.90	2.50	 	 	 	 	 	 	 	 	 	 	 	 	 	 	 	 	 	 	1581524163	1.68	3.11
12/02/2020 16:16:04	120220	12022020	161604	90.64	12.419133	-56.989482	90.72	0.760	-1.210	2.900	90.64	-2.50	3.30	 	 	 	 	 	 	 	 	 	 	 	 	 	 	 	 	 	 	1581524164	0.86	1.59
12/02/2020 16:16:05	120220	12022020	161605	90.70	12.419132	-56.989485	90.83	0.340	-0.180	3.110	90.70	-1.50	3.50	 	 	 	 	 	 	 	 	 	 	 	 	 	 	 	 	 	 	1581524165	0.71	1.31
12/02/2020 16:16:06	120220	12022020	161606	91.28	12.419132	-56.989490	91.42	-0.190	0.690	2.770	91.28	-0.60	3.10	 	 	 	 	 	 	 	 	 	 	 	 	 	 	 	 	 	 	1581524166	1.09	2.02
12/02/2020 16:16:07	120220	12022020	161607	91.85	12.419133	-56.989492	91.95	-0.240	0.590	2.100	91.85	-0.80	2.50	 	 	 	 	 	 	 	 	 	 	 	 	 	 	 	 	 	 	1581524167	0.59	1.09
12/02/2020 16:16:08	120220	12022020	161608	92.04	12.419137	-56.989488	92.10	0.230	-0.260	1.360	92.04	-1.60	1.70	 	 	 	 	 	 	 	 	 	 	 	 	 	 	 	 	 	 	1581524168	0.83	1.54
12/02/2020 16:16:09	120220	12022020	161609	91.93	12.419140	-56.989483	91.97	0.730	-0.950	0.690	91.93	-2.30	1.10	 	 	 	 	 	 	 	 	 	 	 	 	 	 	 	 	 	 	1581524169	1.42	2.63
12/02/2020 16:16:10	120220	12022020	161610	91.81	12.419145	-56.989482	91.85	0.740	-0.770	0.380	91.81	-2.10	0.80	 	 	 	 	 	 	 	 	 	 	 	 	 	 	 	 	 	 	1581524170	1.06	1.96
12/02/2020 16:16:11	120220	12022020	161611	91.79	12.419147	-56.989485	91.83	0.200	0.120	0.390	91.79	-1.20	0.80	 	 	 	 	 	 	 	 	 	 	 	 	 	 	 	 	 	 	1581524171	0.76	1.41
12/02/2020 16:16:12	120220	12022020	161612	91.87	12.419147	-56.989490	91.92	-0.470	0.860	0.460	91.87	-0.50	0.90	 	 	 	 	 	 	 	 	 	 	 	 	 	 	 	 	 	 	1581524172	1.11	2.06
12/02/2020 16:16:13	120220	12022020	161613	91.96	12.419147	-56.989492	92.00	-0.810	0.720	0.620	91.96	-0.60	1.00	 	 	 	 	 	 	 	 	 	 	 	 	 	 	 	 	 	 	1581524173	0.64	1.19
12/02/2020 16:16:14	120220	12022020	161614	91.88	12.419143	-56.989492	91.93	-0.710	-0.110	1.010	91.88	-1.50	1.40	 	 	 	 	 	 	 	 	 	 	 	 	 	 	 	 	 	 	1581524174	0.72	1.33
12/02/2020 16:16:15	120220	12022020	161615	91.75	12.419138	-56.989488	91.81	-0.400	-0.870	1.460	91.75	-2.20	1.90	 	 	 	 	 	 	 	 	 	 	 	 	 	 	 	 	 	 	1581524175	1.13	2.09
12/02/2020 16:16:16	120220	12022020	161616	91.78	12.419135	-56.989487	91.85	-0.100	-1.020	1.660	91.78	-2.30	2.00	 	 	 	 	 	 	 	 	 	 	 	 	 	 	 	 	 	 	1581524176	0.77	1.43
12/02/2020 16:16:17	120220	12022020	161617	91.97	12.419135	-56.989487	92.03	0.160	-0.710	1.530	91.97	-2.00	1.90	 	 	 	 	 	 	 	 	 	 	 	 	 	 	 	 	 	 	1581524177	0.36	0.67
12/02/2020 16:16:18	120220	12022020	161618	92.09	12.419135	-56.989490	92.13	0.450	-0.440	1.270	92.09	-1.80	1.70	 	 	 	 	 	 	 	 	 	 	 	 	 	 	 	 	 	 	1581524178	0.47	0.87
12/02/2020 16:16:19	120220	12022020	161619	92.00	12.419137	-56.989490	92.03	0.700	-0.350	1.140	92.00	-1.70	1.50	 	 	 	 	 	 	 	 	 	 	 	 	 	 	 	 	 	 	1581524179	0.34	0.63
12/02/2020 16:16:20	120220	12022020	161620	91.83	12.419138	-56.989488	91.86	0.740	-0.170	1.030	91.83	-1.50	1.40	 	 	 	 	 	 	 	 	 	 	 	 	 	 	 	 	 	 	1581524180	0.36	0.67
12/02/2020 16:16:21	120220	12022020	161621	91.84	12.419140	-56.989488	91.87	0.430	0.260	0.780	91.84	-1.00	1.20	 	 	 	 	 	 	 	 	 	 	 	 	 	 	 	 	 	 	1581524181	0.43	0.80
12/02/2020 16:16:22	120220	12022020	161622	91.98	12.419143	-56.989490	92.02	-0.200	0.700	0.650	91.98	-0.60	1.10	 	 	 	 	 	 	 	 	 	 	 	 	 	 	 	 	 	 	1581524182	0.59	1.09
12/02/2020 16:16:23	120220	12022020	161623	92.12	12.419143	-56.989492	92.17	-0.840	0.800	0.850	92.12	-0.50	1.30	 	 	 	 	 	 	 	 	 	 	 	 	 	 	 	 	 	 	1581524183	0.50	0.93
12/02/2020 16:16:24	120220	12022020	161624	92.22	12.419140	-56.989493	92.28	-1.090	0.360	1.170	92.22	-1.00	1.60	 	 	 	 	 	 	 	 	 	 	 	 	 	 	 	 	 	 	1581524184	0.64	1.19
12/02/2020 16:16:25	120220	12022020	161625	92.25	12.419137	-56.989493	92.31	-0.680	-0.520	1.440	92.25	-1.90	1.80	 	 	 	 	 	 	 	 	 	 	 	 	 	 	 	 	 	 	1581524185	0.82	1.52
12/02/2020 16:16:26	120220	12022020	161626	92.16	12.419133	-56.989490	92.22	0.200	-1.410	1.680	92.16	-2.80	2.10	 	 	 	 	 	 	 	 	 	 	 	 	 	 	 	 	 	 	1581524186	0.91	1.69
12/02/2020 16:16:27	120220	12022020	161627	91.94	12.419132	-56.989487	92.00	0.980	-1.760	2.000	91.94	-3.10	2.40	 	 	 	 	 	 	 	 	 	 	 	 	 	 	 	 	 	 	1581524187	0.82	1.52
12/02/2020 16:16:28	120220	12022020	161628	91.67	12.419130	-56.989485	91.72	1.100	-1.180	2.240	91.67	-2.50	2.60	 	 	 	 	 	 	 	 	 	 	 	 	 	 	 	 	 	 	1581524188	0.32	0.59
12/02/2020 16:16:29	120220	12022020	161629	91.61	12.419132	-56.989488	91.68	0.530	0.040	2.120	91.61	-1.30	2.50	 	 	 	 	 	 	 	 	 	 	 	 	 	 	 	 	 	 	1581524189	0.59	1.09
12/02/2020 16:16:30	120220	12022020	161630	91.79	12.419133	-56.989493	91.86	-0.230	1.130	1.620	91.79	-0.20	2.00	 	 	 	 	 	 	 	 	 	 	 	 	 	 	 	 	 	 	1581524190	1.10	2.04
12/02/2020 16:16:31	120220	12022020	161631	91.95	12.419138	-56.989495	92.01	-0.700	1.470	0.930	91.95	0.10	1.30	 	 	 	 	 	 	 	 	 	 	 	 	 	 	 	 	 	 	1581524191	1.04	1.93
12/02/2020 16:16:32	120220	12022020	161632	92.10	12.419142	-56.989495	92.16	-0.830	1.000	0.260	92.10	-0.40	0.70	 	 	 	 	 	 	 	 	 	 	 	 	 	 	 	 	 	 	1581524192	0.75	1.39
12/02/2020 16:16:33	120220	12022020	161633	92.31	12.419143	-56.989493	92.35	-0.740	0.110	-0.120	92.31	-1.30	0.30	 	 	 	 	 	 	 	 	 	 	 	 	 	 	 	 	 	 	1581524193	0.53	0.98
12/02/2020 16:16:34	120220	12022020	161634	92.47	12.419142	-56.989492	92.51	-0.480	-0.890	-0.060	92.47	-2.30	0.40	 	 	 	 	 	 	 	 	 	 	 	 	 	 	 	 	 	 	1581524194	0.51	0.94
12/02/2020 16:16:35	120220	12022020	161635	92.43	12.419138	-56.989488	92.46	-0.020	-1.750	0.420	92.43	-3.10	0.90	 	 	 	 	 	 	 	 	 	 	 	 	 	 	 	 	 	 	1581524195	0.90	1.67
12/02/2020 16:16:36	120220	12022020	161636	92.17	12.419135	-56.989487	92.19	0.560	-1.950	1.020	92.17	-3.30	1.40	 	 	 	 	 	 	 	 	 	 	 	 	 	 	 	 	 	 	1581524196	1.14	2.11
12/02/2020 16:16:37	120220	12022020	161637	91.84	12.419132	-56.989487	91.77	1.030	-1.150	1.470	91.76	-2.40	1.90	 	 	 	 	 	 	 	 	 	 	 	 	 	 	 	 	 	 	1581524197	0.63	1.17
12/02/2020 16:16:38	120220	12022020	161638	91.31	12.419132	-56.989488	91.34	1.090	0.070	1.730	91.31	-1.20	2.10	 	 	 	 	 	 	 	 	 	 	 	 	 	 	 	 	 	 	1581524198	0.56	1.04
12/02/2020 16:16:39	120220	12022020	161639	91.15	12.419133	-56.989492	91.22	0.620	0.910	1.710	91.15	-0.40	2.10	 	 	 	 	 	 	 	 	 	 	 	 	 	 	 	 	 	 	1581524199	0.74	1.37
12/02/2020 16:16:40	120220	12022020	161640	91.53	12.419138	-56.989492	91.61	-0.180	1.180	1.300	91.53	-0.20	1.70	 	 	 	 	 	 	 	 	 	 	 	 	 	 	 	 	 	 	1581524200	0.89	1.65
12/02/2020 16:16:41	120220	12022020	161641	92.25	12.419142	-56.989492	92.33	-0.970	1.050	0.740	92.25	-0.30	1.10	 	 	 	 	 	 	 	 	 	 	 	 	 	 	 	 	 	 	1581524201	0.93	1.72
12/02/2020 16:16:42	120220	12022020	161642	92.87	12.419143	-56.989492	92.93	-1.350	0.620	0.530	92.87	-0.80	0.90	 	 	 	 	 	 	 	 	 	 	 	 	 	 	 	 	 	 	1581524202	0.29	0.54
12/02/2020 16:16:43	120220	12022020	161643	92.98	12.419140	-56.989492	93.03	-1.100	-0.250	0.930	92.98	-1.60	1.40	 	 	 	 	 	 	 	 	 	 	 	 	 	 	 	 	 	 	1581524203	0.79	1.46
12/02/2020 16:16:44	120220	12022020	161644	92.72	12.419133	-56.989488	92.77	-0.400	-1.260	1.630	92.72	-2.60	2.00	 	 	 	 	 	 	 	 	 	 	 	 	 	 	 	 	 	 	1581524204	1.56	2.89
12/02/2020 16:16:45	120220	12022020	161645	92.40	12.419127	-56.989487	92.45	0.360	-1.760	2.320	92.40	-3.10	2.70	 	 	 	 	 	 	 	 	 	 	 	 	 	 	 	 	 	 	1581524205	1.57	2.91
12/02/2020 16:16:46	120220	12022020	161646	92.04	12.419122	-56.989485	92.10	0.790	-1.400	2.750	92.04	-2.70	3.20	 	 	 	 	 	 	 	 	 	 	 	 	 	 	 	 	 	 	1581524206	0.96	1.78
12/02/2020 16:16:47	120220	12022020	161647	91.85	12.419122	-56.989487	91.92	0.780	-0.470	2.490	91.85	-1.80	2.90	 	 	 	 	 	 	 	 	 	 	 	 	 	 	 	 	 	 	1581524207	0.36	0.67
12/02/2020 16:16:48	120220	12022020	161648	91.94	12.419127	-56.989490	92.00	0.540	0.370	1.500	91.94	-1.00	1.90	 	 	 	 	 	 	 	 	 	 	 	 	 	 	 	 	 	 	1581524208	1.20	2.22
12/02/2020 16:16:49	120220	12022020	161649	92.09	12.419135	-56.989490	92.13	0.330	0.510	0.320	92.11	-0.90	0.70	 	 	 	 	 	 	 	 	 	 	 	 	 	 	 	 	 	 	1581524209	1.83	3.39
12/02/2020 16:16:50	120220	12022020	161650	92.11	12.419143	-56.989487	92.10	0.160	0.120	-0.510	92.11	-1.20	-0.10	 	 	 	 	 	 	 	 	 	 	 	 	 	 	 	 	 	 	1581524210	1.91	3.54
12/02/2020 16:16:51	120220	12022020	161651	92.12	12.419150	-56.989483	92.14	-0.080	-0.060	-0.930	92.15	-1.40	-0.50	 	 	 	 	 	 	 	 	 	 	 	 	 	 	 	 	 	 	1581524211	1.39	2.57
12/02/2020 16:16:52	120220	12022020	161652	92.40	12.419152	-56.989483	92.41	-0.420	0.230	-0.900	92.40	-1.10	-0.50	 	 	 	 	 	 	 	 	 	 	 	 	 	 	 	 	 	 	1581524212	0.38	0.70
12/02/2020 16:16:53	120220	12022020	161653	92.74	12.419148	-56.989485	92.76	-0.700	0.520	-0.360	92.74	-0.80	0.10	 	 	 	 	 	 	 	 	 	 	 	 	 	 	 	 	 	 	1581524213	0.71	1.31
12/02/2020 16:16:54	120220	12022020	161654	92.95	12.419143	-56.989487	92.99	-0.720	0.290	0.580	92.95	-1.10	1.00	 	 	 	 	 	 	 	 	 	 	 	 	 	 	 	 	 	 	1581524214	1.33	2.46
12/02/2020 16:16:55	120220	12022020	161655	92.94	12.419135	-56.989487	92.99	-0.440	-0.340	1.660	92.94	-1.70	2.10	 	 	 	 	 	 	 	 	 	 	 	 	 	 	 	 	 	 	1581524215	1.65	3.06
12/02/2020 16:16:56	120220	12022020	161656	92.69	12.419128	-56.989485	92.75	-0.030	-0.840	2.660	92.69	-2.20	3.10	 	 	 	 	 	 	 	 	 	 	 	 	 	 	 	 	 	 	1581524216	1.55	2.87
12/02/2020 16:16:57	120220	12022020	161657	92.31	12.419123	-56.989483	92.38	0.350	-0.980	3.270	92.31	-2.30	3.70	 	 	 	 	 	 	 	 	 	 	 	 	 	 	 	 	 	 	1581524217	0.94	1.74
12/02/2020 16:16:58	120220	12022020	161658	92.03	12.419123	-56.989483	92.11	0.600	-0.980	3.320	92.03	-2.30	3.70	 	 	 	 	 	 	 	 	 	 	 	 	 	 	 	 	 	 	1581524218	0.13	0.24
12/02/2020 16:16:59	120220	12022020	161659	92.02	12.419127	-56.989482	92.12	0.680	-0.990	2.830	92.02	-2.30	3.20	 	 	 	 	 	 	 	 	 	 	 	 	 	 	 	 	 	 	1581524219	0.69	1.28
12/02/2020 16:17:00	120220	12022020	161700	92.23	12.419130	-56.989478	92.31	0.550	-0.670	1.940	92.23	-2.00	2.30	 	 	 	 	 	 	 	 	 	 	 	 	 	 	 	 	 	 	1581524220	0.95	1.76
12/02/2020 16:17:01	120220	12022020	161701	92.41	12.419135	-56.989478	92.46	0.240	0.090	0.850	92.41	-1.20	1.20	 	 	 	 	 	 	 	 	 	 	 	 	 	 	 	 	 	 	1581524221	1.02	1.89
12/02/2020 16:17:02	120220	12022020	161702	92.38	12.419140	-56.989480	92.39	-0.170	0.910	-0.100	92.38	-0.40	0.30	1016.50	26.70	26.80	20.30	20.40	811.0	68.0	68.0	426.0	29.6	345.00	10.40	76.00	10.00	62613	9703.0	27.6	27.5	1581524222	1.31	2.43
12/02/2020 16:17:03	120220	12022020	161703	92.27	12.419147	-56.989482	92.27	-0.650	1.440	-0.610	92.27	0.10	-0.20	 	 	 	 	 	 	 	 	 	 	 	 	 	 	 	 	 	 	1581524223	1.24	2.30
12/02/2020 16:17:04	120220	12022020	161704	92.31	12.419148	-56.989483	92.33	-1.000	1.280	-0.740	92.31	-0.10	-0.30	 	 	 	 	 	 	 	 	 	 	 	 	 	 	 	 	 	 	1581524224	0.60	1.11
12/02/2020 16:17:05	120220	12022020	161705	92.48	12.419147	-56.989483	92.49	-0.950	0.320	-0.730	92.48	-1.10	-0.30	 	 	 	 	 	 	 	 	 	 	 	 	 	 	 	 	 	 	1581524225	0.26	0.48
12/02/2020 16:17:06	120220	12022020	161706	92.51	12.419145	-56.989480	92.52	-0.340	-1.050	-0.480	92.51	-2.40	-0.00	 	 	 	 	 	 	 	 	 	 	 	 	 	 	 	 	 	 	1581524226	0.85	1.57
12/02/2020 16:17:07	120220	12022020	161707	92.34	12.419142	-56.989475	92.35	0.540	-2.050	0.240	92.34	-3.40	0.70	 	 	 	 	 	 	 	 	 	 	 	 	 	 	 	 	 	 	1581524227	1.10	2.04
12/02/2020 16:17:08	120220	12022020	161708	92.14	12.419138	-56.989473	92.17	1.140	-2.090	1.110	92.14	-3.40	1.50	 	 	 	 	 	 	 	 	 	 	 	 	 	 	 	 	 	 	1581524228	0.81	1.50
12/02/2020 16:17:09	120220	12022020	161709	92.03	12.419137	-56.989473	92.08	1.100	-1.230	1.790	92.03	-2.50	2.20	 	 	 	 	 	 	 	 	 	 	 	 	 	 	 	 	 	 	1581524229	0.46	0.85
12/02/2020 16:17:10	120220	12022020	161710	91.95	12.419135	-56.989477	92.01	0.480	0.010	2.280	91.95	-1.30	2.70	 	 	 	 	 	 	 	 	 	 	 	 	 	 	 	 	 	 	1581524230	0.70	1.30
12/02/2020 16:17:11	120220	12022020	161711	91.77	12.419132	-56.989480	91.84	-0.320	1.050	2.700	91.77	-0.30	3.10	 	 	 	 	 	 	 	 	 	 	 	 	 	 	 	 	 	 	1581524231	0.95	1.76
12/02/2020 16:17:12	120220	12022020	161712	91.59	12.419128	-56.989482	91.67	-0.850	1.410	2.840	91.59	0.00	3.20	 	 	 	 	 	 	 	 	 	 	 	 	 	 	 	 	 	 	1581524232	0.85	1.57
12/02/2020 16:17:13	120220	12022020	161713	91.54	12.419128	-56.989482	91.64	-0.890	1.000	2.460	91.56	-0.40	2.80	 	 	 	 	 	 	 	 	 	 	 	 	 	 	 	 	 	 	1581524233	0.32	0.59
12/02/2020 16:17:14	120220	12022020	161714	91.76	12.419130	-56.989478	91.84	-0.590	0.210	1.580	91.76	-1.20	2.00	 	 	 	 	 	 	 	 	 	 	 	 	 	 	 	 	 	 	1581524234	0.66	1.22
12/02/2020 16:17:15	120220	12022020	161715	92.04	12.419133	-56.989477	92.09	-0.150	-0.510	0.600	92.04	-1.90	1.00	 	 	 	 	 	 	 	 	 	 	 	 	 	 	 	 	 	 	1581524235	1.04	1.93
12/02/2020 16:17:16	120220	12022020	161716	92.09	12.419138	-56.989475	92.10	0.240	-1.010	-0.080	92.09	-2.40	0.30	 	 	 	 	 	 	 	 	 	 	 	 	 	 	 	 	 	 	1581524236	0.95	1.76
12/02/2020 16:17:17	120220	12022020	161717	91.82	12.419140	-56.989473	91.82	0.520	-1.160	-0.260	91.82	-2.50	0.20	 	 	 	 	 	 	 	 	 	 	 	 	 	 	 	 	 	 	1581524237	0.60	1.11
12/02/2020 16:17:18	120220	12022020	161718	91.51	12.419142	-56.989475	91.52	0.620	-0.840	-0.040	91.51	-2.20	0.40	 	 	 	 	 	 	 	 	 	 	 	 	 	 	 	 	 	 	1581524238	0.18	0.33
12/02/2020 16:17:19	120220	12022020	161719	91.34	12.419142	-56.989477	91.36	0.550	-0.330	0.310	91.34	-1.70	0.70	 	 	 	 	 	 	 	 	 	 	 	 	 	 	 	 	 	 	1581524239	0.40	0.74
12/02/2020 16:17:20	120220	12022020	161720	91.24	12.419140	-56.989477	91.27	0.410	-0.170	0.690	91.24	-1.50	1.10	 	 	 	 	 	 	 	 	 	 	 	 	 	 	 	 	 	 	1581524240	0.24	0.44
12/02/2020 16:17:21	120220	12022020	161721	91.04	12.419140	-56.989475	91.07	0.250	-0.360	1.190	91.04	-1.70	1.60	 	 	 	 	 	 	 	 	 	 	 	 	 	 	 	 	 	 	1581524241	0.40	0.74
12/02/2020 16:17:22	120220	12022020	161722	90.76	12.419138	-56.989473	90.81	0.000	-0.360	1.790	90.76	-1.70	2.20	 	 	 	 	 	 	 	 	 	 	 	 	 	 	 	 	 	 	1581524242	0.80	1.48
12/02/2020 16:17:23	120220	12022020	161723	90.58	12.419133	-56.989472	90.67	-0.360	0.190	2.380	90.58	-1.10	2.80	 	 	 	 	 	 	 	 	 	 	 	 	 	 	 	 	 	 	1581524243	0.87	1.61
12/02/2020 16:17:24	120220	12022020	161724	90.64	12.419130	-56.989475	90.75	-0.740	0.960	2.610	90.64	-0.40	3.00	 	 	 	 	 	 	 	 	 	 	 	 	 	 	 	 	 	 	1581524244	1.09	2.02
12/02/2020 16:17:25	120220	12022020	161725	90.92	12.419128	-56.989478	91.03	-0.930	1.270	2.180	90.92	-0.10	2.50	 	 	 	 	 	 	 	 	 	 	 	 	 	 	 	 	 	 	1581524245	0.90	1.67
12/02/2020 16:17:26	120220	12022020	161726	91.21	12.419130	-56.989480	91.29	-0.780	0.770	1.290	91.21	-0.60	1.70	 	 	 	 	 	 	 	 	 	 	 	 	 	 	 	 	 	 	1581524246	0.57	1.06
12/02/2020 16:17:27	120220	12022020	161727	91.28	12.419133	-56.989478	91.32	-0.360	-0.320	0.600	91.27	-1.70	1.00	 	 	 	 	 	 	 	 	 	 	 	 	 	 	 	 	 	 	1581524247	0.81	1.50
12/02/2020 16:17:28	120220	12022020	161728	91.14	12.419135	-56.989477	91.18	0.170	-1.390	0.220	91.14	-2.80	0.60	 	 	 	 	 	 	 	 	 	 	 	 	 	 	 	 	 	 	1581524248	0.81	1.50
12/02/2020 16:17:29	120220	12022020	161729	90.92	12.419137	-56.989473	90.94	0.660	-2.080	0.060	90.92	-3.40	0.50	 	 	 	 	 	 	 	 	 	 	 	 	 	 	 	 	 	 	1581524249	0.69	1.28
12/02/2020 16:17:30	120220	12022020	161730	90.58	12.419138	-56.989470	90.61	1.040	-2.130	0.130	90.58	-3.40	0.60	 	 	 	 	 	 	 	 	 	 	 	 	 	 	 	 	 	 	1581524250	0.57	1.06
12/02/2020 16:17:31	120220	12022020	161731	90.30	12.419138	-56.989470	90.34	1.210	-1.340	0.280	90.30	-2.60	0.70	 	 	 	 	 	 	 	 	 	 	 	 	 	 	 	 	 	 	1581524251	0.28	0.52
12/02/2020 16:17:32	120220	12022020	161732	90.20	12.419140	-56.989472	90.27	0.940	0.100	0.530	90.20	-1.20	1.00	 	 	 	 	 	 	 	 	 	 	 	 	 	 	 	 	 	 	1581524252	0.43	0.80
12/02/2020 16:17:33	120220	12022020	161733	90.43	12.419140	-56.989475	90.53	0.120	1.620	0.860	90.43	0.30	1.30	 	 	 	 	 	 	 	 	 	 	 	 	 	 	 	 	 	 	1581524253	0.92	1.70
12/02/2020 16:17:34	120220	12022020	161734	90.97	12.419140	-56.989480	91.06	-0.960	2.530	1.060	90.97	1.20	1.50	 	 	 	 	 	 	 	 	 	 	 	 	 	 	 	 	 	 	1581524254	1.16	2.15
12/02/2020 16:17:35	120220	12022020	161735	91.39	12.419137	-56.989485	91.45	-1.680	2.210	1.150	91.39	0.80	1.60	 	 	 	 	 	 	 	 	 	 	 	 	 	 	 	 	 	 	1581524255	1.03	1.91
12/02/2020 16:17:36	120220	12022020	161736	91.36	12.419132	-56.989483	91.39	-1.490	0.510	1.480	91.36	-0.90	1.90	 	 	 	 	 	 	 	 	 	 	 	 	 	 	 	 	 	 	1581524256	0.87	1.61
12/02/2020 16:17:37	120220	12022020	161737	90.99	12.419128	-56.989478	91.02	-0.450	-1.710	2.060	90.99	-3.10	2.50	 	 	 	 	 	 	 	 	 	 	 	 	 	 	 	 	 	 	1581524257	1.55	2.87
12/02/2020 16:17:38	120220	12022020	161738	90.72	12.419125	-56.989472	90.79	0.780	-3.140	2.450	90.72	-4.50	2.90	 	 	 	 	 	 	 	 	 	 	 	 	 	 	 	 	 	 	1581524258	1.63	3.02
12/02/2020 16:17:39	120220	12022020	161739	90.74	12.419125	-56.989468	90.85	1.410	-2.820	2.390	90.77	-4.10	2.80	 	 	 	 	 	 	 	 	 	 	 	 	 	 	 	 	 	 	1581524259	0.63	1.17
12/02/2020 16:17:40	120220	12022020	161740	90.92	12.419127	-56.989472	90.99	1.090	-1.070	1.920	90.92	-2.30	2.30	 	 	 	 	 	 	 	 	 	 	 	 	 	 	 	 	 	 	1581524260	0.96	1.78
12/02/2020 16:17:41	120220	12022020	161741	90.99	12.419132	-56.989480	91.05	0.110	0.940	1.330	91.01	-0.40	1.70	 	 	 	 	 	 	 	 	 	 	 	 	 	 	 	 	 	 	1581524261	1.89	3.50
12/02/2020 16:17:42	120220	12022020	161742	91.11	12.419133	-56.989488	91.15	-0.800	2.190	0.800	91.11	0.80	1.20	 	 	 	 	 	 	 	 	 	 	 	 	 	 	 	 	 	 	1581524262	1.73	3.20
12/02/2020 16:17:43	120220	12022020	161743	91.25	12.419135	-56.989492	91.29	-1.010	2.010	0.340	91.25	0.60	0.70	 	 	 	 	 	 	 	 	 	 	 	 	 	 	 	 	 	 	1581524263	0.84	1.56
12/02/2020 16:17:44	120220	12022020	161744	91.31	12.419135	-56.989488	91.34	-0.440	0.410	0.040	91.31	-1.00	0.50	 	 	 	 	 	 	 	 	 	 	 	 	 	 	 	 	 	 	1581524264	0.54	1.00
12/02/2020 16:17:45	120220	12022020	161745	91.21	12.419135	-56.989482	91.23	0.370	-1.400	-0.020	91.21	-2.80	0.40	 	 	 	 	 	 	 	 	 	 	 	 	 	 	 	 	 	 	1581524265	1.51	2.80
12/02/2020 16:17:46	120220	12022020	161746	90.96	12.419137	-56.989477	90.98	0.770	-2.000	0.120	90.96	-3.30	0.50	 	 	 	 	 	 	 	 	 	 	 	 	 	 	 	 	 	 	1581524266	1.14	2.11
12/02/2020 16:17:47	120220	12022020	161747	90.71	12.419138	-56.989478	90.75	0.520	-0.980	0.330	90.71	-2.30	0.80	 	 	 	 	 	 	 	 	 	 	 	 	 	 	 	 	 	 	1581524267	0.58	1.07
12/02/2020 16:17:48	120220	12022020	161748	90.64	12.419138	-56.989487	90.71	-0.030	0.420	0.640	90.64	-0.90	1.10	 	 	 	 	 	 	 	 	 	 	 	 	 	 	 	 	 	 	1581524268	1.74	3.22
12/02/2020 16:17:49	120220	12022020	161749	90.76	12.419138	-56.989493	90.84	-0.340	0.830	1.040	90.76	-0.50	1.50	 	 	 	 	 	 	 	 	 	 	 	 	 	 	 	 	 	 	1581524269	1.42	2.63
12/02/2020 16:17:50	120220	12022020	161750	90.93	12.419137	-56.989493	91.02	-0.150	-0.080	1.520	90.93	-1.50	1.90	 	 	 	 	 	 	 	 	 	 	 	 	 	 	 	 	 	 	1581524270	0.44	0.81
12/02/2020 16:17:51	120220	12022020	161751	91.05	12.419133	-56.989488	91.15	0.210	-1.140	2.030	91.05	-2.50	2.40	 	 	 	 	 	 	 	 	 	 	 	 	 	 	 	 	 	 	1581524271	1.37	2.54
12/02/2020 16:17:52	120220	12022020	161752	91.12	12.419130	-56.989485	91.22	0.210	-0.960	2.410	91.12	-2.30	2.80	 	 	 	 	 	 	 	 	 	 	 	 	 	 	 	 	 	 	1581524272	0.99	1.83
12/02/2020 16:17:53	120220	12022020	161753	91.15	12.419128	-56.989490	91.22	-0.230	0.300	2.400	91.15	-1.00	2.80	 	 	 	 	 	 	 	 	 	 	 	 	 	 	 	 	 	 	1581524273	1.10	2.04
12/02/2020 16:17:54	120220	12022020	161754	90.99	12.419127	-56.989497	91.02	-0.680	1.240	2.120	90.99	-0.10	2.50	 	 	 	 	 	 	 	 	 	 	 	 	 	 	 	 	 	 	1581524274	1.71	3.17
12/02/2020 16:17:55	120220	12022020	161755	90.57	12.419127	-56.989502	90.58	-0.570	0.820	1.790	90.57	-0.60	2.20	 	 	 	 	 	 	 	 	 	 	 	 	 	 	 	 	 	 	1581524275	0.84	1.56
12/02/2020 16:17:56	120220	12022020	161756	90.19	12.419130	-56.989498	90.21	0.150	-0.660	1.220	90.19	-2.10	1.60	 	 	 	 	 	 	 	 	 	 	 	 	 	 	 	 	 	 	1581524276	0.92	1.70
12/02/2020 16:17:57	120220	12022020	161757	90.19	12.419137	-56.989492	90.23	0.890	-1.870	0.300	90.19	-3.20	0.70	 	 	 	 	 	 	 	 	 	 	 	 	 	 	 	 	 	 	1581524277	1.96	3.63
12/02/2020 16:17:58	120220	12022020	161758	90.53	12.419145	-56.989488	90.57	0.970	-1.550	-0.760	90.53	-2.90	-0.40	 	 	 	 	 	 	 	 	 	 	 	 	 	 	 	 	 	 	1581524278	1.77	3.28
12/02/2020 16:17:59	120220	12022020	161759	90.86	12.419150	-56.989493	90.88	0.320	0.000	-1.400	90.86	-1.30	-1.00	 	 	 	 	 	 	 	 	 	 	 	 	 	 	 	 	 	 	1581524279	1.65	3.06
12/02/2020 16:18:00	120220	12022020	161800	90.93	12.419152	-56.989503	90.93	-0.510	1.380	-1.170	90.93	0.00	-0.70	 	 	 	 	 	 	 	 	 	 	 	 	 	 	 	 	 	 	1581524280	1.92	3.56
12/02/2020 16:18:01	120220	12022020	161801	90.70	12.419148	-56.989510	90.70	-0.910	1.640	-0.210	90.70	0.30	0.30	 	 	 	 	 	 	 	 	 	 	 	 	 	 	 	 	 	 	1581524281	1.52	2.82
12/02/2020 16:18:02	120220	12022020	161802	90.35	12.419143	-56.989510	90.37	-0.690	0.690	1.030	90.35	-0.70	1.50	1016.50	26.70	26.80	20.10	20.20	815.0	67.0	67.0	427.0	29.5	347.00	10.00	78.00	9.50	63226	10821.0	27.5	27.5	1581524282	1.25	2.31
12/02/2020 16:18:03	120220	12022020	161803	90.09	12.419138	-56.989507	90.16	-0.100	-0.820	2.060	90.09	-2.20	2.50	 	 	 	 	 	 	 	 	 	 	 	 	 	 	 	 	 	 	1581524283	1.31	2.43
12/02/2020 16:18:04	120220	12022020	161804	90.13	12.419135	-56.989502	90.23	0.410	-2.030	2.580	90.13	-3.40	3.00	 	 	 	 	 	 	 	 	 	 	 	 	 	 	 	 	 	 	1581524284	1.23	2.28
12/02/2020 16:18:05	120220	12022020	161805	90.37	12.419133	-56.989500	90.55	0.620	-2.190	2.690	90.43	-3.50	3.10	 	 	 	 	 	 	 	 	 	 	 	 	 	 	 	 	 	 	1581524285	0.71	1.31
12/02/2020 16:18:06	120220	12022020	161806	90.57	12.419132	-56.989500	90.66	0.580	-1.240	2.770	90.57	-2.50	3.20	 	 	 	 	 	 	 	 	 	 	 	 	 	 	 	 	 	 	1581524286	0.49	0.91
12/02/2020 16:18:07	120220	12022020	161807	90.32	12.419128	-56.989505	90.37	0.310	0.300	2.820	90.32	-1.00	3.20	 	 	 	 	 	 	 	 	 	 	 	 	 	 	 	 	 	 	1581524287	1.11	2.06
12/02/2020 16:18:08	120220	12022020	161808	89.90	12.419130	-56.989512	89.93	-0.080	1.590	2.320	89.90	0.20	2.70	 	 	 	 	 	 	 	 	 	 	 	 	 	 	 	 	 	 	1581524288	1.33	2.46
12/02/2020 16:18:09	120220	12022020	161809	89.62	12.419135	-56.989517	89.63	-0.400	1.890	0.910	89.62	0.50	1.30	 	 	 	 	 	 	 	 	 	 	 	 	 	 	 	 	 	 	1581524289	1.44	2.67
12/02/2020 16:18:10	120220	12022020	161810	89.59	12.419145	-56.989517	89.58	-0.460	1.060	-0.840	89.59	-0.40	-0.50	 	 	 	 	 	 	 	 	 	 	 	 	 	 	 	 	 	 	1581524290	2.33	4.32
12/02/2020 16:18:11	120220	12022020	161811	89.80	12.419157	-56.989513	89.79	-0.320	-0.290	-2.100	89.80	-1.70	-1.70	 	 	 	 	 	 	 	 	 	 	 	 	 	 	 	 	 	 	1581524291	2.59	4.80
12/02/2020 16:18:12	120220	12022020	161812	90.17	12.419163	-56.989512	90.17	-0.180	-1.280	-2.590	90.17	-2.70	-2.20	 	 	 	 	 	 	 	 	 	 	 	 	 	 	 	 	 	 	1581524292	1.68	3.11
12/02/2020 16:18:13	120220	12022020	161813	90.42	12.419165	-56.989510	90.40	-0.100	-1.550	-2.260	90.42	-2.90	-1.80	 	 	 	 	 	 	 	 	 	 	 	 	 	 	 	 	 	 	1581524293	0.19	0.35
12/02/2020 16:18:14	120220	12022020	161814	90.35	12.419160	-56.989512	90.34	0.030	-1.430	-1.140	90.35	-2.80	-0.70	 	 	 	 	 	 	 	 	 	 	 	 	 	 	 	 	 	 	1581524294	1.23	2.28
12/02/2020 16:18:15	120220	12022020	161815	89.96	12.419150	-56.989512	89.97	0.340	-1.260	0.550	89.96	-2.60	1.00	 	 	 	 	 	 	 	 	 	 	 	 	 	 	 	 	 	 	1581524295	2.01	3.72
12/02/2020 16:18:16	120220	12022020	161816	89.47	12.419142	-56.989512	89.53	0.720	-0.880	2.190	89.47	-2.20	2.60	 	 	 	 	 	 	 	 	 	 	 	 	 	 	 	 	 	 	1581524296	1.94	3.59
12/02/2020 16:18:17	120220	12022020	161817	89.32	12.419135	-56.989512	89.45	0.830	-0.030	3.280	89.33	-1.40	3.70	 	 	 	 	 	 	 	 	 	 	 	 	 	 	 	 	 	 	1581524297	1.29	2.39
12/02/2020 16:18:18	120220	12022020	161818	89.62	12.419132	-56.989513	89.76	0.420	1.130	3.560	89.62	-0.20	3.90	 	 	 	 	 	 	 	 	 	 	 	 	 	 	 	 	 	 	1581524298	0.73	1.35
12/02/2020 16:18:19	120220	12022020	161819	89.98	12.419133	-56.989517	90.09	-0.330	1.930	3.110	89.98	0.60	3.50	 	 	 	 	 	 	 	 	 	 	 	 	 	 	 	 	 	 	1581524299	0.92	1.70
12/02/2020 16:18:20	120220	12022020	161820	90.04	12.419135	-56.989520	90.10	-0.970	1.680	2.330	90.04	0.30	2.70	 	 	 	 	 	 	 	 	 	 	 	 	 	 	 	 	 	 	1581524300	0.88	1.63
12/02/2020 16:18:21	120220	12022020	161821	89.89	12.419140	-56.989518	89.92	-1.140	0.370	1.450	89.89	-1.10	1.80	 	 	 	 	 	 	 	 	 	 	 	 	 	 	 	 	 	 	1581524301	0.93	1.72
12/02/2020 16:18:22	120220	12022020	161822	89.92	12.419145	-56.989515	89.94	-0.780	-1.250	0.450	89.92	-2.70	0.90	 	 	 	 	 	 	 	 	 	 	 	 	 	 	 	 	 	 	1581524302	1.43	2.65
12/02/2020 16:18:23	120220	12022020	161823	90.14	12.419150	-56.989510	90.17	-0.070	-2.150	-0.500	90.14	-3.50	-0.10	 	 	 	 	 	 	 	 	 	 	 	 	 	 	 	 	 	 	1581524303	1.41	2.61
12/02/2020 16:18:24	120220	12022020	161824	90.35	12.419153	-56.989508	90.37	0.630	-1.990	-1.140	90.35	-3.30	-0.70	 	 	 	 	 	 	 	 	 	 	 	 	 	 	 	 	 	 	1581524304	0.92	1.70
12/02/2020 16:18:25	120220	12022020	161825	90.39	12.419157	-56.989510	90.39	1.030	-1.290	-1.290	90.39	-2.60	-0.90	 	 	 	 	 	 	 	 	 	 	 	 	 	 	 	 	 	 	1581524305	0.65	1.20
12/02/2020 16:18:26	120220	12022020	161826	90.19	12.419157	-56.989512	90.19	0.970	-0.490	-0.780	90.19	-1.80	-0.30	 	 	 	 	 	 	 	 	 	 	 	 	 	 	 	 	 	 	1581524306	0.22	0.41
12/02/2020 16:18:27	120220	12022020	161827	89.85	12.419152	-56.989512	89.87	0.540	0.320	0.320	89.85	-1.00	0.80	 	 	 	 	 	 	 	 	 	 	 	 	 	 	 	 	 	 	1581524307	0.88	1.63
12/02/2020 16:18:28	120220	12022020	161828	89.43	12.419147	-56.989512	89.48	0.020	1.000	1.500	89.43	-0.40	1.90	 	 	 	 	 	 	 	 	 	 	 	 	 	 	 	 	 	 	1581524308	1.37	2.54
12/02/2020 16:18:29	120220	12022020	161829	89.15	12.419142	-56.989512	89.16	-0.410	1.390	2.170	89.11	0.00	2.60	 	 	 	 	 	 	 	 	 	 	 	 	 	 	 	 	 	 	1581524309	0.96	1.78
12/02/2020 16:18:30	120220	12022020	161830	89.15	12.419142	-56.989513	89.24	-0.730	1.360	2.030	89.15	-0.00	2.40	 	 	 	 	 	 	 	 	 	 	 	 	 	 	 	 	 	 	1581524310	0.13	0.24
12/02/2020 16:18:31	120220	12022020	161831	89.54	12.419147	-56.989513	89.76	-0.930	0.740	1.430	89.67	-0.70	1.80	 	 	 	 	 	 	 	 	 	 	 	 	 	 	 	 	 	 	1581524311	0.90	1.67
12/02/2020 16:18:32	120220	12022020	161832	90.28	12.419148	-56.989512	90.36	-0.860	-0.420	1.040	90.28	-1.80	1.50	 	 	 	 	 	 	 	 	 	 	 	 	 	 	 	 	 	 	1581524312	0.72	1.33
12/02/2020 16:18:33	120220	12022020	161833	90.53	12.419147	-56.989508	90.58	-0.380	-1.790	1.150	90.53	-3.20	1.60	 	 	 	 	 	 	 	 	 	 	 	 	 	 	 	 	 	 	1581524313	0.86	1.59
12/02/2020 16:18:34	120220	12022020	161834	90.24	12.419143	-56.989502	90.27	0.420	-2.660	1.610	90.24	-4.00	2.00	 	 	 	 	 	 	 	 	 	 	 	 	 	 	 	 	 	 	1581524314	1.55	2.87
12/02/2020 16:18:35	120220	12022020	161835	89.65	12.419138	-56.989498	89.69	1.100	-2.230	2.090	89.65	-3.50	2.50	 	 	 	 	 	 	 	 	 	 	 	 	 	 	 	 	 	 	1581524315	1.34	2.48
12/02/2020 16:18:36	120220	12022020	161836	89.13	12.419137	-56.989500	89.18	1.190	-0.500	2.160	89.13	-1.80	2.60	 	 	 	 	 	 	 	 	 	 	 	 	 	 	 	 	 	 	1581524316	0.48	0.89
12/02/2020 16:18:37	120220	12022020	161837	88.91	12.419138	-56.989505	88.97	0.590	1.280	1.660	88.91	-0.10	2.10	 	 	 	 	 	 	 	 	 	 	 	 	 	 	 	 	 	 	1581524317	1.34	2.48
12/02/2020 16:18:38	120220	12022020	161838	89.04	12.419145	-56.989510	89.10	-0.230	1.950	0.710	89.04	0.60	1.10	 	 	 	 	 	 	 	 	 	 	 	 	 	 	 	 	 	 	1581524318	1.46	2.70
12/02/2020 16:18:39	120220	12022020	161839	89.32	12.419150	-56.989508	89.35	-0.720	1.380	-0.340	89.32	-0.00	0.00	 	 	 	 	 	 	 	 	 	 	 	 	 	 	 	 	 	 	1581524319	1.33	2.46
12/02/2020 16:18:40	120220	12022020	161840	89.49	12.419155	-56.989505	89.48	-0.670	0.210	-1.080	89.49	-1.20	-0.70	 	 	 	 	 	 	 	 	 	 	 	 	 	 	 	 	 	 	1581524320	1.47	2.72
12/02/2020 16:18:41	120220	12022020	161841	89.46	12.419158	-56.989500	89.44	-0.270	-0.870	-1.190	89.46	-2.30	-0.80	 	 	 	 	 	 	 	 	 	 	 	 	 	 	 	 	 	 	1581524321	1.28	2.37
12/02/2020 16:18:42	120220	12022020	161842	89.42	12.419160	-56.989497	89.42	0.080	-1.340	-0.760	89.42	-2.70	-0.30	 	 	 	 	 	 	 	 	 	 	 	 	 	 	 	 	 	 	1581524322	0.75	1.39
12/02/2020 16:18:43	120220	12022020	161843	89.62	12.419157	-56.989495	89.65	0.080	-1.010	-0.060	89.62	-2.40	0.40	 	 	 	 	 	 	 	 	 	 	 	 	 	 	 	 	 	 	1581524323	0.57	1.06
12/02/2020 16:18:44	120220	12022020	161844	89.87	12.419152	-56.989497	89.91	-0.160	-0.390	0.880	89.87	-1.70	1.30	 	 	 	 	 	 	 	 	 	 	 	 	 	 	 	 	 	 	1581524324	1.34	2.48
12/02/2020 16:18:45	120220	12022020	161845	89.84	12.419143	-56.989498	89.88	-0.220	-0.220	2.070	89.84	-1.60	2.50	 	 	 	 	 	 	 	 	 	 	 	 	 	 	 	 	 	 	1581524325	1.83	3.39
12/02/2020 16:18:46	120220	12022020	161846	89.54	12.419133	-56.989497	89.59	0.080	-0.460	3.180	89.54	-1.80	3.60	 	 	 	 	 	 	 	 	 	 	 	 	 	 	 	 	 	 	1581524326	2.00	3.70
12/02/2020 16:18:47	120220	12022020	161847	89.22	12.419128	-56.989492	89.27	0.490	-0.490	3.680	89.22	-1.90	4.10	 	 	 	 	 	 	 	 	 	 	 	 	 	 	 	 	 	 	1581524327	1.48	2.74
12/02/2020 16:18:48	120220	12022020	161848	89.07	12.419128	-56.989490	89.13	0.630	0.000	3.260	89.07	-1.40	3.60	 	 	 	 	 	 	 	 	 	 	 	 	 	 	 	 	 	 	1581524328	0.40	0.74
12/02/2020 16:18:49	120220	12022020	161849	89.08	12.419133	-56.989492	89.12	0.360	0.680	2.120	89.08	-0.70	2.50	 	 	 	 	 	 	 	 	 	 	 	 	 	 	 	 	 	 	1581524329	1.25	2.31
12/02/2020 16:18:50	120220	12022020	161850	89.12	12.419143	-56.989493	89.14	-0.080	0.800	0.800	89.12	-0.60	1.20	 	 	 	 	 	 	 	 	 	 	 	 	 	 	 	 	 	 	1581524330	1.98	3.67
12/02/2020 16:18:51	120220	12022020	161851	89.40	12.419152	-56.989492	89.42	-0.360	0.130	-0.370	89.40	-1.30	0.00	 	 	 	 	 	 	 	 	 	 	 	 	 	 	 	 	 	 	1581524331	1.98	3.67
12/02/2020 16:18:52	120220	12022020	161852	89.81	12.419158	-56.989488	89.84	-0.350	-0.780	-1.110	89.81	-2.20	-0.70	 	 	 	 	 	 	 	 	 	 	 	 	 	 	 	 	 	 	1581524332	1.66	3.07
12/02/2020 16:18:53	120220	12022020	161853	90.03	12.419160	-56.989483	90.03	-0.200	-1.120	-1.140	90.03	-2.50	-0.70	 	 	 	 	 	 	 	 	 	 	 	 	 	 	 	 	 	 	1581524333	0.92	1.70
12/02/2020 16:18:54	120220	12022020	161854	89.94	12.419157	-56.989483	89.92	-0.130	-0.670	-0.540	89.94	-2.00	-0.10	 	 	 	 	 	 	 	 	 	 	 	 	 	 	 	 	 	 	1581524334	0.80	1.48
12/02/2020 16:18:55	120220	12022020	161855	89.55	12.419150	-56.989485	89.54	-0.110	-0.090	0.520	89.55	-1.50	1.00	 	 	 	 	 	 	 	 	 	 	 	 	 	 	 	 	 	 	1581524335	1.54	2.85
12/02/2020 16:18:56	120220	12022020	161856	89.07	12.419142	-56.989485	89.10	-0.010	0.010	1.690	89.07	-1.40	2.10	 	 	 	 	 	 	 	 	 	 	 	 	 	 	 	 	 	 	1581524336	1.54	2.85
12/02/2020 16:18:57	120220	12022020	161857	88.85	12.419137	-56.989483	88.90	0.110	-0.270	2.550	88.85	-1.70	3.00	 	 	 	 	 	 	 	 	 	 	 	 	 	 	 	 	 	 	1581524337	1.21	2.24
12/02/2020 16:18:58	120220	12022020	161858	88.96	12.419135	-56.989480	89.04	0.160	-0.400	2.750	88.96	-1.80	3.20	 	 	 	 	 	 	 	 	 	 	 	 	 	 	 	 	 	 	1581524338	0.82	1.52
12/02/2020 16:18:59	120220	12022020	161859	89.25	12.419135	-56.989478	89.32	0.180	-0.200	2.350	89.25	-1.60	2.70	 	 	 	 	 	 	 	 	 	 	 	 	 	 	 	 	 	 	1581524339	0.32	0.59
12/02/2020 16:19:00	120220	12022020	161900	89.35	12.419138	-56.989478	89.37	0.320	-0.020	1.760	89.35	-1.40	2.20	 	 	 	 	 	 	 	 	 	 	 	 	 	 	 	 	 	 	1581524340	0.67	1.24
12/02/2020 16:19:01	120220	12022020	161901	89.14	12.419143	-56.989478	89.13	0.460	-0.080	1.310	89.14	-1.50	1.70	 	 	 	 	 	 	 	 	 	 	 	 	 	 	 	 	 	 	1581524341	1.01	1.87
12/02/2020 16:19:02	120220	12022020	161902	88.96	12.419148	-56.989477	88.96	0.290	-0.000	0.960	88.96	-1.40	1.40	1016.40	26.70	26.70	20.10	20.20	827.0	67.0	67.0	429.0	29.5	349.00	10.40	78.00	9.90	63500	14479.0	27.5	27.5	1581524342	1.03	1.91
12/02/2020 16:19:03	120220	12022020	161903	89.15	12.419152	-56.989477	89.19	-0.270	0.300	0.620	89.15	-1.10	1.00	 	 	 	 	 	 	 	 	 	 	 	 	 	 	 	 	 	 	1581524343	0.67	1.24
12/02/2020 16:19:04	120220	12022020	161904	89.67	12.419152	-56.989478	89.71	-0.840	0.430	0.300	89.67	-1.00	0.70	 	 	 	 	 	 	 	 	 	 	 	 	 	 	 	 	 	 	1581524344	0.45	0.83
12/02/2020 16:19:05	120220	12022020	161905	90.13	12.419152	-56.989478	90.16	-1.000	0.140	0.230	90.13	-1.30	0.60	 	 	 	 	 	 	 	 	 	 	 	 	 	 	 	 	 	 	1581524345	0.36	0.67
12/02/2020 16:19:06	120220	12022020	161906	90.17	12.419147	-56.989477	90.17	-0.620	-0.500	0.560	90.17	-1.90	1.00	 	 	 	 	 	 	 	 	 	 	 	 	 	 	 	 	 	 	1581524346	1.00	1.85
12/02/2020 16:19:07	120220	12022020	161907	89.79	12.419140	-56.989475	89.63	0.090	-1.180	1.300	89.65	-2.60	1.70	 	 	 	 	 	 	 	 	 	 	 	 	 	 	 	 	 	 	1581524347	1.36	2.52
12/02/2020 16:19:08	120220	12022020	161908	88.87	12.419137	-56.989472	88.86	0.750	-1.500	1.980	88.87	-2.90	2.40	 	 	 	 	 	 	 	 	 	 	 	 	 	 	 	 	 	 	1581524348	1.06	1.96
12/02/2020 16:19:09	120220	12022020	161909	88.40	12.419137	-56.989468	88.44	1.050	-1.200	2.090	88.40	-2.50	2.50	 	 	 	 	 	 	 	 	 	 	 	 	 	 	 	 	 	 	1581524349	0.54	1.00
12/02/2020 16:19:10	120220	12022020	161910	88.61	12.419142	-56.989468	88.68	0.850	-0.320	1.580	88.61	-1.70	2.00	 	 	 	 	 	 	 	 	 	 	 	 	 	 	 	 	 	 	1581524350	0.90	1.67
12/02/2020 16:19:11	120220	12022020	161911	89.25	12.419147	-56.989470	89.32	0.270	0.670	0.770	89.25	-0.70	1.20	 	 	 	 	 	 	 	 	 	 	 	 	 	 	 	 	 	 	1581524351	1.20	2.22
12/02/2020 16:19:12	120220	12022020	161912	89.89	12.419152	-56.989472	89.92	-0.300	1.210	0.050	89.89	-0.20	0.40	 	 	 	 	 	 	 	 	 	 	 	 	 	 	 	 	 	 	1581524352	1.03	1.91
12/02/2020 16:19:13	120220	12022020	161913	90.16	12.419153	-56.989473	90.17	-0.550	1.040	-0.110	90.16	-0.40	0.30	 	 	 	 	 	 	 	 	 	 	 	 	 	 	 	 	 	 	1581524353	0.46	0.85
12/02/2020 16:19:14	120220	12022020	161914	90.01	12.419152	-56.989472	90.01	-0.570	0.470	0.470	90.01	-0.90	0.90	 	 	 	 	 	 	 	 	 	 	 	 	 	 	 	 	 	 	1581524354	0.46	0.85
12/02/2020 16:19:15	120220	12022020	161915	89.67	12.419147	-56.989470	89.70	-0.580	-0.100	1.390	89.67	-1.50	1.80	 	 	 	 	 	 	 	 	 	 	 	 	 	 	 	 	 	 	1581524355	1.12	2.07
12/02/2020 16:19:16	120220	12022020	161916	89.34	12.419140	-56.989468	89.38	-0.540	-0.610	2.210	89.34	-2.00	2.60	 	 	 	 	 	 	 	 	 	 	 	 	 	 	 	 	 	 	1581524356	1.37	2.54
12/02/2020 16:19:17	120220	12022020	161917	88.96	12.419135	-56.989468	89.02	-0.310	-1.040	2.740	88.96	-2.40	3.10	 	 	 	 	 	 	 	 	 	 	 	 	 	 	 	 	 	 	1581524357	1.13	2.09
12/02/2020 16:19:18	120220	12022020	161918	88.62	12.419133	-56.989467	88.67	0.130	-1.310	2.750	88.62	-2.70	3.10	 	 	 	 	 	 	 	 	 	 	 	 	 	 	 	 	 	 	1581524358	0.42	0.78
12/02/2020 16:19:19	120220	12022020	161919	88.50	12.419137	-56.989465	88.56	0.570	-1.320	2.180	88.50	-2.70	2.60	 	 	 	 	 	 	 	 	 	 	 	 	 	 	 	 	 	 	1581524359	0.69	1.28
12/02/2020 16:19:20	120220	12022020	161920	88.72	12.419143	-56.989463	88.78	0.690	-0.870	1.160	88.72	-2.20	1.50	 	 	 	 	 	 	 	 	 	 	 	 	 	 	 	 	 	 	1581524360	1.34	2.48
12/02/2020 16:19:21	120220	12022020	161921	89.08	12.419150	-56.989465	89.21	0.360	0.110	0.030	89.18	-1.20	0.40	 	 	 	 	 	 	 	 	 	 	 	 	 	 	 	 	 	 	1581524361	1.60	2.96
12/02/2020 16:19:22	120220	12022020	161922	89.57	12.419155	-56.989468	89.56	-0.180	1.060	-0.690	89.57	-0.30	-0.30	 	 	 	 	 	 	 	 	 	 	 	 	 	 	 	 	 	 	1581524362	1.25	2.31
12/02/2020 16:19:23	120220	12022020	161923	89.59	12.419155	-56.989472	89.55	-0.390	1.060	-0.750	89.59	-0.30	-0.30	 	 	 	 	 	 	 	 	 	 	 	 	 	 	 	 	 	 	1581524363	0.45	0.83
12/02/2020 16:19:24	120220	12022020	161924	89.26	12.419152	-56.989468	89.23	-0.050	-0.000	-0.390	89.26	-1.40	0.00	 	 	 	 	 	 	 	 	 	 	 	 	 	 	 	 	 	 	1581524364	0.93	1.72
12/02/2020 16:19:25	120220	12022020	161925	88.93	12.419150	-56.989462	88.91	0.400	-0.910	0.080	88.93	-2.30	0.50	 	 	 	 	 	 	 	 	 	 	 	 	 	 	 	 	 	 	1581524365	1.47	2.72
12/02/2020 16:19:26	120220	12022020	161926	88.79	12.419150	-56.989458	88.79	0.330	-0.620	0.580	88.79	-2.00	1.00	 	 	 	 	 	 	 	 	 	 	 	 	 	 	 	 	 	 	1581524366	0.53	0.98
12/02/2020 16:19:27	120220	12022020	161927	88.89	12.419150	-56.989463	88.91	-0.290	0.440	1.020	88.89	-0.90	1.40	 	 	 	 	 	 	 	 	 	 	 	 	 	 	 	 	 	 	1581524367	0.97	1.80
12/02/2020 16:19:28	120220	12022020	161928	89.19	12.419148	-56.989470	89.23	-0.930	1.030	1.220	89.19	-0.30	1.60	 	 	 	 	 	 	 	 	 	 	 	 	 	 	 	 	 	 	1581524368	1.48	2.74
12/02/2020 16:19:29	120220	12022020	161929	89.45	12.419147	-56.989473	89.48	-0.980	0.390	1.320	89.45	-1.00	1.70	 	 	 	 	 	 	 	 	 	 	 	 	 	 	 	 	 	 	1581524369	0.71	1.31
12/02/2020 16:19:30	120220	12022020	161930	89.45	12.419143	-56.989470	89.47	-0.360	-1.010	1.640	89.45	-2.40	2.10	 	 	 	 	 	 	 	 	 	 	 	 	 	 	 	 	 	 	1581524370	0.91	1.69
12/02/2020 16:19:31	120220	12022020	161931	89.36	12.419142	-56.989463	89.40	0.470	-1.980	2.030	89.36	-3.30	2.40	 	 	 	 	 	 	 	 	 	 	 	 	 	 	 	 	 	 	1581524371	1.37	2.54
12/02/2020 16:19:32	120220	12022020	161932	89.34	12.419138	-56.989462	89.37	0.970	-1.870	2.190	89.34	-3.20	2.60	 	 	 	 	 	 	 	 	 	 	 	 	 	 	 	 	 	 	1581524372	0.71	1.31
12/02/2020 16:19:33	120220	12022020	161933	89.24	12.419138	-56.989462	89.27	0.880	-0.880	2.110	89.24	-2.20	2.50	 	 	 	 	 	 	 	 	 	 	 	 	 	 	 	 	 	 	1581524373	0.26	0.48
12/02/2020 16:19:34	120220	12022020	161934	89.14	12.419140	-56.989467	89.16	0.430	0.410	1.750	89.14	-0.90	2.10	 	 	 	 	 	 	 	 	 	 	 	 	 	 	 	 	 	 	1581524374	0.83	1.54
12/02/2020 16:19:35	120220	12022020	161935	89.21	12.419142	-56.989470	89.23	0.000	1.330	1.110	89.21	-0.00	1.50	 	 	 	 	 	 	 	 	 	 	 	 	 	 	 	 	 	 	1581524375	0.97	1.80
12/02/2020 16:19:36	120220	12022020	161936	89.40	12.419147	-56.989472	89.41	-0.290	1.470	0.360	89.40	0.10	0.80	 	 	 	 	 	 	 	 	 	 	 	 	 	 	 	 	 	 	1581524376	0.95	1.76
12/02/2020 16:19:37	120220	12022020	161937	89.50	12.419152	-56.989472	89.48	-0.530	0.970	-0.290	89.50	-0.40	0.10	 	 	 	 	 	 	 	 	 	 	 	 	 	 	 	 	 	 	1581524377	0.97	1.80
12/02/2020 16:19:38	120220	12022020	161938	89.49	12.419155	-56.989470	89.47	-0.740	0.240	-0.750	89.49	-1.10	-0.30	 	 	 	 	 	 	 	 	 	 	 	 	 	 	 	 	 	 	1581524378	0.86	1.59
12/02/2020 16:19:39	120220	12022020	161939	89.42	12.419157	-56.989470	89.41	-0.740	-0.520	-0.650	89.42	-1.90	-0.20	 	 	 	 	 	 	 	 	 	 	 	 	 	 	 	 	 	 	1581524379	0.35	0.65
12/02/2020 16:19:40	120220	12022020	161940	89.22	12.419155	-56.989470	89.23	-0.330	-1.370	0.090	89.22	-2.80	0.50	 	 	 	 	 	 	 	 	 	 	 	 	 	 	 	 	 	 	1581524380	0.45	0.83
12/02/2020 16:19:41	120220	12022020	161941	89.03	12.419150	-56.989468	89.06	0.370	-2.020	0.990	89.03	-3.40	1.40	 	 	 	 	 	 	 	 	 	 	 	 	 	 	 	 	 	 	1581524381	1.09	2.02
12/02/2020 16:19:42	120220	12022020	161942	89.08	12.419147	-56.989465	89.13	0.890	-1.730	1.500	89.08	-3.10	1.90	 	 	 	 	 	 	 	 	 	 	 	 	 	 	 	 	 	 	1581524382	0.97	1.80
12/02/2020 16:19:43	120220	12022020	161943	89.34	12.419143	-56.989468	89.40	0.870	-0.540	1.630	89.34	-1.90	2.00	 	 	 	 	 	 	 	 	 	 	 	 	 	 	 	 	 	 	1581524383	0.63	1.17
12/02/2020 16:19:44	120220	12022020	161944	89.56	12.419143	-56.989472	89.61	0.450	0.640	1.600	89.56	-0.70	2.00	 	 	 	 	 	 	 	 	 	 	 	 	 	 	 	 	 	 	1581524384	1.00	1.85
12/02/2020 16:19:45	120220	12022020	161945	89.56	12.419145	-56.989475	89.58	-0.020	1.210	1.670	89.56	-0.20	2.10	 	 	 	 	 	 	 	 	 	 	 	 	 	 	 	 	 	 	1581524385	0.70	1.30
12/02/2020 16:19:46	120220	12022020	161946	89.40	12.419145	-56.989477	89.43	-0.360	1.130	1.720	89.40	-0.30	2.10	 	 	 	 	 	 	 	 	 	 	 	 	 	 	 	 	 	 	1581524386	0.18	0.33
12/02/2020 16:19:47	120220	12022020	161947	89.35	12.419145	-56.989477	89.37	-0.530	0.590	1.420	89.35	-0.80	1.80	 	 	 	 	 	 	 	 	 	 	 	 	 	 	 	 	 	 	1581524387	0.17	0.31
12/02/2020 16:19:48	120220	12022020	161948	89.39	12.419147	-56.989475	89.40	-0.530	-0.190	0.910	89.39	-1.60	1.30	 	 	 	 	 	 	 	 	 	 	 	 	 	 	 	 	 	 	1581524388	0.52	0.96
12/02/2020 16:19:49	120220	12022020	161949	89.35	12.419150	-56.989473	89.37	-0.310	-0.900	0.630	89.35	-2.30	1.00	 	 	 	 	 	 	 	 	 	 	 	 	 	 	 	 	 	 	1581524389	0.60	1.11
12/02/2020 16:19:50	120220	12022020	161950	89.36	12.419152	-56.989472	89.38	0.020	-1.220	0.540	89.36	-2.60	1.00	 	 	 	 	 	 	 	 	 	 	 	 	 	 	 	 	 	 	1581524390	0.40	0.74
12/02/2020 16:19:51	120220	12022020	161951	89.53	12.419152	-56.989472	89.56	0.250	-1.000	0.460	89.53	-2.40	0.90	 	 	 	 	 	 	 	 	 	 	 	 	 	 	 	 	 	 	1581524391	0.16	0.30
12/02/2020 16:19:52	120220	12022020	161952	89.68	12.419152	-56.989475	89.69	0.280	-0.420	0.440	89.68	-1.80	0.90	 	 	 	 	 	 	 	 	 	 	 	 	 	 	 	 	 	 	1581524392	0.49	0.91
12/02/2020 16:19:53	120220	12022020	161953	89.52	12.419150	-56.989477	89.52	0.220	0.050	0.620	89.52	-1.30	1.00	 	 	 	 	 	 	 	 	 	 	 	 	 	 	 	 	 	 	1581524393	0.66	1.22
12/02/2020 16:19:54	120220	12022020	161954	89.12	12.419148	-56.989478	89.13	0.200	0.140	0.990	89.12	-1.20	1.40	 	 	 	 	 	 	 	 	 	 	 	 	 	 	 	 	 	 	1581524394	0.37	0.69
12/02/2020 16:19:55	120220	12022020	161955	88.85	12.419147	-56.989477	88.89	0.160	0.060	1.290	88.85	-1.30	1.70	 	 	 	 	 	 	 	 	 	 	 	 	 	 	 	 	 	 	1581524395	0.22	0.41
12/02/2020 16:19:56	120220	12022020	161956	89.08	12.419148	-56.989477	89.15	0.030	0.030	1.190	89.08	-1.30	1.60	 	 	 	 	 	 	 	 	 	 	 	 	 	 	 	 	 	 	1581524396	0.28	0.52
12/02/2020 16:19:57	120220	12022020	161957	89.58	12.419150	-56.989477	89.77	-0.110	0.060	0.720	89.70	-1.30	1.10	 	 	 	 	 	 	 	 	 	 	 	 	 	 	 	 	 	 	1581524397	0.46	0.85
12/02/2020 16:19:58	120220	12022020	161958	90.10	12.419152	-56.989477	90.14	-0.200	0.020	0.460	90.10	-1.40	0.90	 	 	 	 	 	 	 	 	 	 	 	 	 	 	 	 	 	 	1581524398	0.36	0.67
12/02/2020 16:19:59	120220	12022020	161959	89.82	12.419150	-56.989478	89.81	-0.210	-0.130	1.030	89.82	-1.50	1.50	 	 	 	 	 	 	 	 	 	 	 	 	 	 	 	 	 	 	1581524399	0.42	0.78
12/02/2020 16:20:00	120220	12022020	162000	89.02	12.419145	-56.989478	89.02	-0.140	-0.350	2.080	89.02	-1.70	2.50	 	 	 	 	 	 	 	 	 	 	 	 	 	 	 	 	 	 	1581524400	1.25	2.31
12/02/2020 16:20:01	120220	12022020	162001	88.35	12.419138	-56.989477	88.37	0.100	-0.680	2.630	88.35	-2.10	3.00	 	 	 	 	 	 	 	 	 	 	 	 	 	 	 	 	 	 	1581524401	1.18	2.19
12/02/2020 16:20:02	120220	12022020	162002	88.15	12.419138	-56.989475	88.20	0.510	-0.970	2.240	88.15	-2.30	2.60	1016.40	26.60	26.70	19.80	19.90	903.0	66.0	66.0	431.0	29.6	352.00	10.70	81.00	10.30	67240	11173.0	27.5	27.5	1581524402	0.41	0.76
12/02/2020 16:20:03	120220	12022020	162003	88.40	12.419145	-56.989473	88.45	0.770	-0.800	1.220	88.40	-2.20	1.60	 	 	 	 	 	 	 	 	 	 	 	 	 	 	 	 	 	 	1581524403	1.30	2.41
12/02/2020 16:20:04	120220	12022020	162004	88.91	12.419153	-56.989473	88.95	0.470	0.020	0.120	88.91	-1.30	0.50	 	 	 	 	 	 	 	 	 	 	 	 	 	 	 	 	 	 	1581524404	1.79	3.32
12/02/2020 16:20:05	120220	12022020	162005	89.37	12.419160	-56.989478	89.39	-0.250	0.920	-0.540	89.37	-0.40	-0.10	 	 	 	 	 	 	 	 	 	 	 	 	 	 	 	 	 	 	1581524405	1.61	2.98
12/02/2020 16:20:06	120220	12022020	162006	89.62	12.419160	-56.989483	89.63	-0.830	1.130	-0.600	89.62	-0.30	-0.20	 	 	 	 	 	 	 	 	 	 	 	 	 	 	 	 	 	 	1581524406	0.90	1.67
12/02/2020 16:20:07	120220	12022020	162007	89.62	12.419157	-56.989483	89.61	-0.810	0.290	-0.060	89.62	-1.10	0.40	 	 	 	 	 	 	 	 	 	 	 	 	 	 	 	 	 	 	1581524407	0.81	1.50
12/02/2020 16:20:08	120220	12022020	162008	89.22	12.419148	-56.989478	89.20	-0.220	-1.020	1.040	89.22	-2.40	1.50	 	 	 	 	 	 	 	 	 	 	 	 	 	 	 	 	 	 	1581524408	1.95	3.61
12/02/2020 16:20:09	120220	12022020	162009	88.56	12.419140	-56.989473	88.38	0.450	-1.680	2.320	88.39	-3.00	2.80	 	 	 	 	 	 	 	 	 	 	 	 	 	 	 	 	 	 	1581524409	2.21	4.09
12/02/2020 16:20:10	120220	12022020	162010	87.63	12.419135	-56.989472	87.67	0.660	-1.120	2.950	87.63	-2.50	3.40	 	 	 	 	 	 	 	 	 	 	 	 	 	 	 	 	 	 	1581524410	1.04	1.93
12/02/2020 16:20:11	120220	12022020	162011	87.46	12.419138	-56.989475	87.57	0.280	0.100	2.500	87.50	-1.20	2.90	 	 	 	 	 	 	 	 	 	 	 	 	 	 	 	 	 	 	1581524411	0.99	1.83
12/02/2020 16:20:12	120220	12022020	162012	88.08	12.419145	-56.989482	88.15	-0.310	0.930	1.240	88.08	-0.50	1.60	 	 	 	 	 	 	 	 	 	 	 	 	 	 	 	 	 	 	1581524412	2.02	3.74
12/02/2020 16:20:13	120220	12022020	162013	88.80	12.419152	-56.989485	88.85	-0.550	0.680	0.060	88.80	-0.70	0.50	 	 	 	 	 	 	 	 	 	 	 	 	 	 	 	 	 	 	1581524413	1.71	3.17
12/02/2020 16:20:14	120220	12022020	162014	89.19	12.419157	-56.989482	89.19	-0.250	-0.210	-0.520	89.19	-1.60	-0.10	 	 	 	 	 	 	 	 	 	 	 	 	 	 	 	 	 	 	1581524414	0.98	1.81
12/02/2020 16:20:15	120220	12022020	162015	89.30	12.419157	-56.989478	89.29	0.260	-0.910	-0.600	89.30	-2.30	-0.20	 	 	 	 	 	 	 	 	 	 	 	 	 	 	 	 	 	 	1581524415	0.89	1.65
12/02/2020 16:20:16	120220	12022020	162016	89.22	12.419155	-56.989475	89.20	0.510	-1.060	-0.210	89.22	-2.40	0.20	 	 	 	 	 	 	 	 	 	 	 	 	 	 	 	 	 	 	1581524416	0.67	1.24
12/02/2020 16:20:17	120220	12022020	162017	88.95	12.419152	-56.989475	88.95	0.310	-0.610	0.620	88.95	-2.00	1.00	 	 	 	 	 	 	 	 	 	 	 	 	 	 	 	 	 	 	1581524417	0.81	1.50
12/02/2020 16:20:18	120220	12022020	162018	88.72	12.419147	-56.989477	88.76	-0.100	0.150	1.490	88.72	-1.20	1.90	 	 	 	 	 	 	 	 	 	 	 	 	 	 	 	 	 	 	1581524418	1.21	2.24
12/02/2020 16:20:19	120220	12022020	162019	88.66	12.419142	-56.989480	88.71	-0.300	0.710	1.930	88.66	-0.70	2.30	 	 	 	 	 	 	 	 	 	 	 	 	 	 	 	 	 	 	1581524419	1.11	2.06
12/02/2020 16:20:20	120220	12022020	162020	88.70	12.419142	-56.989482	88.76	-0.180	0.670	1.870	88.70	-0.70	2.30	 	 	 	 	 	 	 	 	 	 	 	 	 	 	 	 	 	 	1581524420	0.38	0.70
12/02/2020 16:20:21	120220	12022020	162021	88.81	12.419145	-56.989482	88.87	-0.020	0.120	1.450	88.81	-1.30	1.80	 	 	 	 	 	 	 	 	 	 	 	 	 	 	 	 	 	 	1581524421	0.69	1.28
12/02/2020 16:20:22	120220	12022020	162022	89.02	12.419148	-56.989480	89.07	-0.020	-0.570	0.940	89.02	-2.00	1.30	 	 	 	 	 	 	 	 	 	 	 	 	 	 	 	 	 	 	1581524422	1.06	1.96
12/02/2020 16:20:23	120220	12022020	162023	89.23	12.419152	-56.989477	89.26	-0.140	-0.980	0.630	89.23	-2.40	1.00	 	 	 	 	 	 	 	 	 	 	 	 	 	 	 	 	 	 	1581524423	0.78	1.44
12/02/2020 16:20:24	120220	12022020	162024	89.35	12.419152	-56.989477	89.39	-0.210	-1.020	0.570	89.35	-2.40	1.00	 	 	 	 	 	 	 	 	 	 	 	 	 	 	 	 	 	 	1581524424	0.22	0.41
12/02/2020 16:20:25	120220	12022020	162025	89.42	12.419150	-56.989477	89.47	-0.090	-0.810	0.690	89.42	-2.20	1.10	 	 	 	 	 	 	 	 	 	 	 	 	 	 	 	 	 	 	1581524425	0.40	0.74
12/02/2020 16:20:26	120220	12022020	162026	89.50	12.419148	-56.989475	89.55	0.170	-0.430	0.850	89.50	-1.80	1.20	 	 	 	 	 	 	 	 	 	 	 	 	 	 	 	 	 	 	1581524426	0.57	1.06
12/02/2020 16:20:27	120220	12022020	162027	89.65	12.419147	-56.989477	89.70	0.350	0.170	0.880	89.65	-1.20	1.30	 	 	 	 	 	 	 	 	 	 	 	 	 	 	 	 	 	 	1581524427	0.39	0.72
12/02/2020 16:20:28	120220	12022020	162028	89.78	12.419145	-56.989478	89.81	0.270	0.830	0.810	89.78	-0.50	1.20	 	 	 	 	 	 	 	 	 	 	 	 	 	 	 	 	 	 	1581524428	0.42	0.78
12/02/2020 16:20:29	120220	12022020	162029	89.69	12.419147	-56.989480	89.71	0.020	1.050	0.680	89.69	-0.30	1.10	 	 	 	 	 	 	 	 	 	 	 	 	 	 	 	 	 	 	1581524429	0.55	1.02
12/02/2020 16:20:30	120220	12022020	162030	89.36	12.419148	-56.989480	89.36	-0.140	0.440	0.590	89.36	-1.00	1.00	 	 	 	 	 	 	 	 	 	 	 	 	 	 	 	 	 	 	1581524430	0.49	0.91
12/02/2020 16:20:31	120220	12022020	162031	89.08	12.419152	-56.989477	89.10	-0.100	-0.680	0.540	89.08	-2.10	1.00	 	 	 	 	 	 	 	 	 	 	 	 	 	 	 	 	 	 	1581524431	1.01	1.87
12/02/2020 16:20:32	120220	12022020	162032	89.22	12.419155	-56.989473	89.27	-0.020	-1.480	0.450	89.22	-2.90	0.90	 	 	 	 	 	 	 	 	 	 	 	 	 	 	 	 	 	 	1581524432	1.15	2.13
12/02/2020 16:20:33	120220	12022020	162033	89.62	12.419157	-56.989470	89.67	-0.060	-1.370	0.430	89.62	-2.70	0.80	 	 	 	 	 	 	 	 	 	 	 	 	 	 	 	 	 	 	1581524433	0.51	0.94
12/02/2020 16:20:34	120220	12022020	162034	89.89	12.419155	-56.989473	89.95	-0.230	-0.520	0.650	89.89	-1.90	1.10	 	 	 	 	 	 	 	 	 	 	 	 	 	 	 	 	 	 	1581524434	0.50	0.93
12/02/2020 16:20:35	120220	12022020	162035	90.00	12.419150	-56.989477	90.05	-0.370	0.410	1.000	90.00	-1.00	1.40	 	 	 	 	 	 	 	 	 	 	 	 	 	 	 	 	 	 	1581524435	1.21	2.24
12/02/2020 16:20:36	120220	12022020	162036	89.98	12.419147	-56.989478	90.02	-0.230	0.680	1.320	89.98	-0.70	1.70	 	 	 	 	 	 	 	 	 	 	 	 	 	 	 	 	 	 	1581524436	1.10	2.04
12/02/2020 16:20:37	120220	12022020	162037	89.80	12.419143	-56.989477	89.83	0.150	0.170	1.580	89.80	-1.20	2.00	 	 	 	 	 	 	 	 	 	 	 	 	 	 	 	 	 	 	1581524437	0.67	1.24
12/02/2020 16:20:38	120220	12022020	162038	89.65	12.419143	-56.989473	89.68	0.440	-0.430	1.620	89.65	-1.80	2.00	 	 	 	 	 	 	 	 	 	 	 	 	 	 	 	 	 	 	1581524438	0.85	1.57
12/02/2020 16:20:39	120220	12022020	162039	89.70	12.419145	-56.989472	89.73	0.400	-0.530	1.340	89.70	-1.90	1.70	 	 	 	 	 	 	 	 	 	 	 	 	 	 	 	 	 	 	1581524439	0.64	1.19
12/02/2020 16:20:40	120220	12022020	162040	89.81	12.419148	-56.989472	89.82	0.150	-0.240	0.870	89.81	-1.60	1.30	 	 	 	 	 	 	 	 	 	 	 	 	 	 	 	 	 	 	1581524440	0.75	1.39
12/02/2020 16:20:41	120220	12022020	162041	89.91	12.419153	-56.989473	89.93	-0.050	0.010	0.400	89.91	-1.40	0.80	 	 	 	 	 	 	 	 	 	 	 	 	 	 	 	 	 	 	1581524441	0.94	1.74
12/02/2020 16:20:42	120220	12022020	162042	89.98	12.419155	-56.989473	90.00	-0.070	0.010	0.200	89.98	-1.40	0.60	 	 	 	 	 	 	 	 	 	 	 	 	 	 	 	 	 	 	1581524442	0.69	1.28
12/02/2020 16:20:43	120220	12022020	162043	89.91	12.419157	-56.989473	89.92	-0.010	-0.160	0.350	89.91	-1.50	0.80	 	 	 	 	 	 	 	 	 	 	 	 	 	 	 	 	 	 	1581524443	0.24	0.44
12/02/2020 16:20:44	120220	12022020	162044	89.80	12.419155	-56.989472	89.83	-0.070	-0.290	0.650	89.80	-1.70	1.10	 	 	 	 	 	 	 	 	 	 	 	 	 	 	 	 	 	 	1581524444	0.40	0.74
12/02/2020 16:20:45	120220	12022020	162045	89.89	12.419152	-56.989472	89.94	-0.260	-0.220	0.980	89.89	-1.60	1.40	 	 	 	 	 	 	 	 	 	 	 	 	 	 	 	 	 	 	1581524445	0.57	1.06
12/02/2020 16:20:46	120220	12022020	162046	90.10	12.419150	-56.989472	90.16	-0.400	-0.100	1.290	90.10	-1.50	1.70	 	 	 	 	 	 	 	 	 	 	 	 	 	 	 	 	 	 	1581524446	0.66	1.22
12/02/2020 16:20:47	120220	12022020	162047	90.20	12.419147	-56.989473	90.25	-0.310	-0.240	1.570	90.20	-1.60	2.00	 	 	 	 	 	 	 	 	 	 	 	 	 	 	 	 	 	 	1581524447	0.54	1.00
12/02/2020 16:20:48	120220	12022020	162048	90.13	12.419145	-56.989472	90.17	0.020	-0.660	1.720	90.13	-2.10	2.10	 	 	 	 	 	 	 	 	 	 	 	 	 	 	 	 	 	 	1581524448	0.58	1.07
12/02/2020 16:20:49	120220	12022020	162049	89.92	12.419143	-56.989468	89.95	0.440	-0.980	1.700	89.92	-2.40	2.10	 	 	 	 	 	 	 	 	 	 	 	 	 	 	 	 	 	 	1581524449	0.77	1.43
12/02/2020 16:20:50	120220	12022020	162050	89.70	12.419143	-56.989465	89.73	0.740	-0.690	1.500	89.70	-2.00	1.90	 	 	 	 	 	 	 	 	 	 	 	 	 	 	 	 	 	 	1581524450	0.52	0.96
12/02/2020 16:20:51	120220	12022020	162051	89.69	12.419148	-56.989467	89.73	0.680	0.170	1.040	89.69	-1.20	1.40	 	 	 	 	 	 	 	 	 	 	 	 	 	 	 	 	 	 	1581524451	0.79	1.46
12/02/2020 16:20:52	120220	12022020	162052	89.98	12.419153	-56.989470	90.03	0.130	1.040	0.590	89.98	-0.30	1.00	 	 	 	 	 	 	 	 	 	 	 	 	 	 	 	 	 	 	1581524452	1.34	2.48
12/02/2020 16:20:53	120220	12022020	162053	90.41	12.419157	-56.989473	90.45	-0.650	1.280	0.350	90.41	-0.10	0.80	 	 	 	 	 	 	 	 	 	 	 	 	 	 	 	 	 	 	1581524453	1.01	1.87
12/02/2020 16:20:54	120220	12022020	162054	90.68	12.419155	-56.989473	90.69	-1.110	0.620	0.400	90.68	-0.80	0.80	 	 	 	 	 	 	 	 	 	 	 	 	 	 	 	 	 	 	1581524454	0.30	0.56
12/02/2020 16:20:55	120220	12022020	162055	90.59	12.419150	-56.989472	90.59	-0.860	-0.590	0.800	90.59	-2.00	1.20	 	 	 	 	 	 	 	 	 	 	 	 	 	 	 	 	 	 	1581524455	1.15	2.13
12/02/2020 16:20:56	120220	12022020	162056	90.26	12.419145	-56.989467	90.26	-0.030	-1.580	1.290	90.26	-3.00	1.70	 	 	 	 	 	 	 	 	 	 	 	 	 	 	 	 	 	 	1581524456	1.52	2.82
12/02/2020 16:20:57	120220	12022020	162057	89.84	12.419142	-56.989465	89.85	0.800	-1.770	1.660	89.84	-3.10	2.10	 	 	 	 	 	 	 	 	 	 	 	 	 	 	 	 	 	 	1581524457	0.90	1.67
12/02/2020 16:20:58	120220	12022020	162058	89.54	12.419142	-56.989465	89.57	1.050	-1.140	1.680	89.54	-2.50	2.10	 	 	 	 	 	 	 	 	 	 	 	 	 	 	 	 	 	 	1581524458	0.19	0.35
12/02/2020 16:20:59	120220	12022020	162059	89.57	12.419147	-56.989467	89.67	0.610	-0.260	1.270	89.62	-1.60	1.70	 	 	 	 	 	 	 	 	 	 	 	 	 	 	 	 	 	 	1581524459	1.03	1.91
12/02/2020 16:21:00	120220	12022020	162100	90.02	12.419150	-56.989470	90.07	-0.080	0.360	0.710	90.02	-1.00	1.10	 	 	 	 	 	 	 	 	 	 	 	 	 	 	 	 	 	 	1581524460	0.94	1.74
12/02/2020 16:21:01	120220	12022020	162101	90.53	12.419152	-56.989470	90.56	-0.470	0.630	0.300	90.53	-0.80	0.70	 	 	 	 	 	 	 	 	 	 	 	 	 	 	 	 	 	 	1581524461	0.22	0.41
12/02/2020 16:21:02	120220	12022020	162102	90.85	12.419150	-56.989468	90.86	-0.370	0.660	0.260	90.85	-0.70	0.70	1016.40	26.70	26.70	20.00	20.00	778.0	66.0	66.0	434.0	29.6	354.00	10.70	83.00	10.30	60509	10272.0	27.5	27.5	1581524462	0.35	0.65
12/02/2020 16:21:03	120220	12022020	162103	90.82	12.419147	-56.989468	90.82	-0.160	0.520	0.610	90.82	-0.90	1.00	 	 	 	 	 	 	 	 	 	 	 	 	 	 	 	 	 	 	1581524463	0.61	1.13
12/02/2020 16:21:04	120220	12022020	162104	90.62	12.419145	-56.989468	90.62	-0.230	0.340	1.010	90.62	-1.00	1.40	 	 	 	 	 	 	 	 	 	 	 	 	 	 	 	 	 	 	1581524464	0.57	1.06
12/02/2020 16:21:05	120220	12022020	162105	90.40	12.419143	-56.989468	90.39	-0.550	0.130	1.340	90.40	-1.30	1.80	 	 	 	 	 	 	 	 	 	 	 	 	 	 	 	 	 	 	1581524465	0.42	0.78
12/02/2020 16:21:06	120220	12022020	162106	90.15	12.419142	-56.989470	90.14	-0.660	-0.240	1.630	90.15	-1.60	2.00	 	 	 	 	 	 	 	 	 	 	 	 	 	 	 	 	 	 	1581524466	0.43	0.80
12/02/2020 16:21:07	120220	12022020	162107	89.96	12.419140	-56.989470	89.97	-0.250	-0.910	1.760	89.96	-2.30	2.20	 	 	 	 	 	 	 	 	 	 	 	 	 	 	 	 	 	 	1581524467	0.14	0.26
12/02/2020 16:21:08	120220	12022020	162108	89.92	12.419142	-56.989467	89.94	0.500	-1.590	1.630	89.92	-3.00	2.00	 	 	 	 	 	 	 	 	 	 	 	 	 	 	 	 	 	 	1581524468	0.58	1.07
12/02/2020 16:21:09	120220	12022020	162109	90.02	12.419143	-56.989465	90.05	1.030	-1.690	1.350	90.02	-3.00	1.80	 	 	 	 	 	 	 	 	 	 	 	 	 	 	 	 	 	 	1581524469	0.78	1.44
12/02/2020 16:21:10	120220	12022020	162110	90.17	12.419145	-56.989463	90.20	1.010	-1.030	1.030	90.17	-2.40	1.40	 	 	 	 	 	 	 	 	 	 	 	 	 	 	 	 	 	 	1581524470	0.39	0.72
12/02/2020 16:21:11	120220	12022020	162111	90.26	12.419147	-56.989465	90.28	0.570	-0.010	0.710	90.26	-1.40	1.10	 	 	 	 	 	 	 	 	 	 	 	 	 	 	 	 	 	 	1581524471	0.40	0.74
12/02/2020 16:21:12	120220	12022020	162112	90.28	12.419147	-56.989467	90.30	0.000	0.940	0.490	90.28	-0.40	0.90	 	 	 	 	 	 	 	 	 	 	 	 	 	 	 	 	 	 	1581524472	0.55	1.02
12/02/2020 16:21:13	120220	12022020	162113	90.30	12.419148	-56.989470	90.31	-0.480	1.540	0.430	90.30	0.20	0.90	 	 	 	 	 	 	 	 	 	 	 	 	 	 	 	 	 	 	1581524473	0.60	1.11
12/02/2020 16:21:14	120220	12022020	162114	90.28	12.419148	-56.989472	90.28	-0.850	1.480	0.540	90.28	0.10	1.00	 	 	 	 	 	 	 	 	 	 	 	 	 	 	 	 	 	 	1581524474	0.46	0.85
12/02/2020 16:21:15	120220	12022020	162115	90.16	12.419147	-56.989472	90.15	-1.000	0.660	0.720	90.16	-0.80	1.10	 	 	 	 	 	 	 	 	 	 	 	 	 	 	 	 	 	 	1581524475	0.29	0.54
12/02/2020 16:21:16	120220	12022020	162116	89.93	12.419145	-56.989470	89.93	-0.740	-0.640	0.930	89.93	-2.10	1.40	 	 	 	 	 	 	 	 	 	 	 	 	 	 	 	 	 	 	1581524476	0.79	1.46
12/02/2020 16:21:17	120220	12022020	162117	89.68	12.419142	-56.989467	89.68	-0.070	-1.770	1.160	89.68	-3.20	1.60	 	 	 	 	 	 	 	 	 	 	 	 	 	 	 	 	 	 	1581524477	0.99	1.83
12/02/2020 16:21:18	120220	12022020	162118	89.54	12.419142	-56.989463	89.56	0.720	-2.110	1.300	89.54	-3.50	1.70	 	 	 	 	 	 	 	 	 	 	 	 	 	 	 	 	 	 	1581524478	0.63	1.17
12/02/2020 16:21:19	120220	12022020	162119	89.61	12.419143	-56.989463	89.64	1.110	-1.490	1.220	89.61	-2.80	1.60	 	 	 	 	 	 	 	 	 	 	 	 	 	 	 	 	 	 	1581524479	0.36	0.67
12/02/2020 16:21:20	120220	12022020	162120	89.88	12.419145	-56.989465	89.92	0.850	-0.380	0.970	89.88	-1.70	1.40	 	 	 	 	 	 	 	 	 	 	 	 	 	 	 	 	 	 	1581524480	0.82	1.52
12/02/2020 16:21:21	120220	12022020	162121	90.21	12.419147	-56.989470	90.26	0.160	0.700	0.800	90.21	-0.70	1.20	 	 	 	 	 	 	 	 	 	 	 	 	 	 	 	 	 	 	1581524481	0.85	1.57
12/02/2020 16:21:22	120220	12022020	162122	90.48	12.419147	-56.989473	90.50	-0.550	1.310	0.800	90.48	-0.10	1.20	 	 	 	 	 	 	 	 	 	 	 	 	 	 	 	 	 	 	1581524482	0.69	1.28
12/02/2020 16:21:23	120220	12022020	162123	90.40	12.419143	-56.989475	90.40	-0.890	1.220	1.090	90.40	-0.20	1.50	 	 	 	 	 	 	 	 	 	 	 	 	 	 	 	 	 	 	1581524483	0.66	1.22
12/02/2020 16:21:24	120220	12022020	162124	89.98	12.419140	-56.989473	89.97	-0.780	0.420	1.560	89.98	-1.00	2.00	 	 	 	 	 	 	 	 	 	 	 	 	 	 	 	 	 	 	1581524484	0.85	1.57
12/02/2020 16:21:25	120220	12022020	162125	89.68	12.419137	-56.989470	89.67	-0.340	-0.750	1.880	89.65	-2.20	2.30	 	 	 	 	 	 	 	 	 	 	 	 	 	 	 	 	 	 	1581524485	1.02	1.89
12/02/2020 16:21:26	120220	12022020	162126	89.69	12.419135	-56.989465	89.74	0.210	-1.630	1.760	89.69	-3.00	2.20	 	 	 	 	 	 	 	 	 	 	 	 	 	 	 	 	 	 	1581524486	0.98	1.81
12/02/2020 16:21:27	120220	12022020	162127	89.96	12.419137	-56.989463	90.00	0.650	-1.620	1.240	89.96	-3.00	1.60	 	 	 	 	 	 	 	 	 	 	 	 	 	 	 	 	 	 	1581524487	0.63	1.17
12/02/2020 16:21:28	120220	12022020	162128	90.09	12.419142	-56.989465	90.11	0.750	-0.610	0.600	90.09	-2.00	1.00	 	 	 	 	 	 	 	 	 	 	 	 	 	 	 	 	 	 	1581524488	0.92	1.70
12/02/2020 16:21:29	120220	12022020	162129	90.10	12.419147	-56.989470	90.11	0.460	0.700	0.100	90.10	-0.70	0.50	 	 	 	 	 	 	 	 	 	 	 	 	 	 	 	 	 	 	1581524489	1.56	2.89
12/02/2020 16:21:30	120220	12022020	162130	90.16	12.419150	-56.989475	90.17	-0.020	1.230	-0.040	90.16	-0.20	0.40	 	 	 	 	 	 	 	 	 	 	 	 	 	 	 	 	 	 	1581524490	1.30	2.41
12/02/2020 16:21:31	120220	12022020	162131	90.30	12.419152	-56.989475	90.31	-0.330	0.610	0.180	90.30	-0.80	0.60	 	 	 	 	 	 	 	 	 	 	 	 	 	 	 	 	 	 	1581524491	0.17	0.31
12/02/2020 16:21:32	120220	12022020	162132	90.36	12.419150	-56.989470	90.39	-0.280	-0.560	0.640	90.36	-2.00	1.10	 	 	 	 	 	 	 	 	 	 	 	 	 	 	 	 	 	 	1581524492	0.92	1.70
12/02/2020 16:21:33	120220	12022020	162133	90.31	12.419147	-56.989467	90.35	-0.130	-1.270	1.230	90.31	-2.60	1.70	 	 	 	 	 	 	 	 	 	 	 	 	 	 	 	 	 	 	1581524493	1.22	2.26
12/02/2020 16:21:34	120220	12022020	162134	90.24	12.419142	-56.989465	90.31	-0.190	-1.010	1.930	90.24	-2.40	2.40	 	 	 	 	 	 	 	 	 	 	 	 	 	 	 	 	 	 	1581524494	1.14	2.11
12/02/2020 16:21:35	120220	12022020	162135	90.20	12.419135	-56.989468	90.28	-0.380	-0.140	2.460	90.20	-1.50	2.90	 	 	 	 	 	 	 	 	 	 	 	 	 	 	 	 	 	 	1581524495	1.47	2.72
12/02/2020 16:21:36	120220	12022020	162136	90.08	12.419130	-56.989472	90.14	-0.330	0.470	2.620	90.08	-0.90	3.00	 	 	 	 	 	 	 	 	 	 	 	 	 	 	 	 	 	 	1581524496	1.31	2.43
12/02/2020 16:21:37	120220	12022020	162137	89.91	12.419130	-56.989473	89.93	0.190	0.230	2.210	89.87	-1.20	2.60	 	 	 	 	 	 	 	 	 	 	 	 	 	 	 	 	 	 	1581524497	0.29	0.54
12/02/2020 16:21:38	120220	12022020	162138	89.78	12.419135	-56.989470	89.81	0.890	-0.480	1.190	89.78	-1.90	1.60	 	 	 	 	 	 	 	 	 	 	 	 	 	 	 	 	 	 	1581524498	1.23	2.28
12/02/2020 16:21:39	120220	12022020	162139	89.84	12.419143	-56.989467	89.86	1.140	-0.750	-0.010	89.84	-2.10	0.40	 	 	 	 	 	 	 	 	 	 	 	 	 	 	 	 	 	 	1581524499	2.16	4.00
12/02/2020 16:21:40	120220	12022020	162140	90.10	12.419153	-56.989467	90.10	0.610	-0.330	-0.980	90.10	-1.70	-0.60	 	 	 	 	 	 	 	 	 	 	 	 	 	 	 	 	 	 	1581524500	2.19	4.06
12/02/2020 16:21:41	120220	12022020	162141	90.36	12.419160	-56.989468	90.35	-0.350	0.210	-1.250	90.36	-1.20	-0.80	 	 	 	 	 	 	 	 	 	 	 	 	 	 	 	 	 	 	1581524501	1.43	2.65
12/02/2020 16:21:42	120220	12022020	162142	90.39	12.419158	-56.989472	90.37	-1.010	0.320	-0.550	90.39	-1.10	-0.10	 	 	 	 	 	 	 	 	 	 	 	 	 	 	 	 	 	 	1581524502	0.70	1.30
12/02/2020 16:21:43	120220	12022020	162143	90.27	12.419148	-56.989472	90.29	-1.020	0.130	0.700	90.27	-1.30	1.10	 	 	 	 	 	 	 	 	 	 	 	 	 	 	 	 	 	 	1581524503	1.94	3.59
12/02/2020 16:21:44	120220	12022020	162144	90.17	12.419138	-56.989472	90.22	-0.550	-0.040	1.880	90.17	-1.40	2.30	 	 	 	 	 	 	 	 	 	 	 	 	 	 	 	 	 	 	1581524504	2.24	4.15
12/02/2020 16:21:45	120220	12022020	162145	90.11	12.419132	-56.989472	90.18	0.020	-0.220	2.560	90.11	-1.60	3.00	 	 	 	 	 	 	 	 	 	 	 	 	 	 	 	 	 	 	1581524505	1.55	2.87
12/02/2020 16:21:46	120220	12022020	162146	89.97	12.419128	-56.989472	90.04	0.420	-0.560	2.730	89.97	-1.90	3.10	 	 	 	 	 	 	 	 	 	 	 	 	 	 	 	 	 	 	1581524506	0.53	0.98
12/02/2020 16:21:47	120220	12022020	162147	89.70	12.419130	-56.989470	89.77	0.590	-0.860	2.680	89.70	-2.20	3.10	 	 	 	 	 	 	 	 	 	 	 	 	 	 	 	 	 	 	1581524507	0.38	0.70
12/02/2020 16:21:48	120220	12022020	162148	89.50	12.419133	-56.989468	89.56	0.630	-0.930	2.320	89.50	-2.30	2.70	 	 	 	 	 	 	 	 	 	 	 	 	 	 	 	 	 	 	1581524508	0.78	1.44
12/02/2020 16:21:49	120220	12022020	162149	89.51	12.419138	-56.989467	89.59	0.560	-0.650	1.550	89.53	-2.00	1.90	 	 	 	 	 	 	 	 	 	 	 	 	 	 	 	 	 	 	1581524509	1.14	2.11
12/02/2020 16:21:50	120220	12022020	162150	89.80	12.419143	-56.989468	89.84	0.220	0.090	0.630	89.80	-1.30	1.00	 	 	 	 	 	 	 	 	 	 	 	 	 	 	 	 	 	 	1581524510	1.25	2.31
12/02/2020 16:21:51	120220	12022020	162151	90.10	12.419148	-56.989472	90.21	-0.320	0.930	-0.070	90.19	-0.40	0.30	 	 	 	 	 	 	 	 	 	 	 	 	 	 	 	 	 	 	1581524511	1.14	2.11
12/02/2020 16:21:52	120220	12022020	162152	90.59	12.419148	-56.989475	90.61	-0.710	1.170	-0.430	90.59	-0.20	-0.00	 	 	 	 	 	 	 	 	 	 	 	 	 	 	 	 	 	 	1581524512	0.87	1.61
12/02/2020 16:21:53	120220	12022020	162153	90.70	12.419148	-56.989477	90.70	-0.610	0.340	-0.370	90.70	-1.10	0.00	 	 	 	 	 	 	 	 	 	 	 	 	 	 	 	 	 	 	1581524513	0.31	0.57
12/02/2020 16:21:54	120220	12022020	162154	90.41	12.419145	-56.989472	90.39	-0.070	-0.990	0.080	90.41	-2.40	0.50	 	 	 	 	 	 	 	 	 	 	 	 	 	 	 	 	 	 	1581524514	1.16	2.15
12/02/2020 16:21:55	120220	12022020	162155	90.00	12.419142	-56.989467	90.00	0.440	-1.550	0.690	90.00	-2.90	1.10	 	 	 	 	 	 	 	 	 	 	 	 	 	 	 	 	 	 	1581524515	1.24	2.30
12/02/2020 16:21:56	120220	12022020	162156	89.81	12.419140	-56.989467	89.85	0.490	-0.900	1.210	89.81	-2.30	1.60	 	 	 	 	 	 	 	 	 	 	 	 	 	 	 	 	 	 	1581524516	0.27	0.50
12/02/2020 16:21:57	120220	12022020	162157	89.93	12.419140	-56.989472	90.00	0.080	0.190	1.530	89.93	-1.20	1.90	 	 	 	 	 	 	 	 	 	 	 	 	 	 	 	 	 	 	1581524517	0.98	1.81
12/02/2020 16:21:58	120220	12022020	162158	90.32	12.419140	-56.989477	90.40	-0.410	0.760	1.570	90.32	-0.60	2.00	 	 	 	 	 	 	 	 	 	 	 	 	 	 	 	 	 	 	1581524518	1.05	1.94
12/02/2020 16:21:59	120220	12022020	162159	90.79	12.419140	-56.989478	90.84	-0.530	0.400	1.510	90.79	-1.00	1.90	 	 	 	 	 	 	 	 	 	 	 	 	 	 	 	 	 	 	1581524519	0.41	0.76
12/02/2020 16:22:00	120220	12022020	162200	90.99	12.419138	-56.989475	91.02	-0.060	-0.690	1.700	90.99	-2.10	2.10	 	 	 	 	 	 	 	 	 	 	 	 	 	 	 	 	 	 	1581524520	0.80	1.48
12/02/2020 16:22:01	120220	12022020	162201	90.86	12.419135	-56.989468	90.88	0.660	-1.500	2.100	90.86	-2.90	2.50	 	 	 	 	 	 	 	 	 	 	 	 	 	 	 	 	 	 	1581524521	1.42	2.63
12/02/2020 16:22:02	120220	12022020	162202	90.78	12.419132	-56.989465	90.83	0.920	-1.130	2.240	90.78	-2.50	2.60	1016.40	26.60	26.70	19.80	19.90	723.0	66.0	66.0	434.0	29.5	357.00	10.70	87.00	10.30	57394	10353.0	27.5	27.5	1581524522	0.81	1.50
12/02/2020 16:22:03	120220	12022020	162203	90.95	12.419133	-56.989468	91.00	0.450	0.120	2.100	90.95	-1.20	2.50	 	 	 	 	 	 	 	 	 	 	 	 	 	 	 	 	 	 	1581524523	0.60	1.11
12/02/2020 16:22:04	120220	12022020	162204	91.12	12.419133	-56.989475	91.15	-0.360	1.200	1.920	91.12	-0.20	2.30	 	 	 	 	 	 	 	 	 	 	 	 	 	 	 	 	 	 	1581524524	1.27	2.35
12/02/2020 16:22:05	120220	12022020	162205	91.18	12.419133	-56.989478	91.20	-0.890	1.480	1.580	91.18	0.10	2.00	 	 	 	 	 	 	 	 	 	 	 	 	 	 	 	 	 	 	1581524525	0.96	1.78
12/02/2020 16:22:06	120220	12022020	162206	91.31	12.419137	-56.989480	91.31	-0.830	0.880	0.930	91.31	-0.50	1.30	 	 	 	 	 	 	 	 	 	 	 	 	 	 	 	 	 	 	1581524526	0.58	1.07
12/02/2020 16:22:07	120220	12022020	162207	91.51	12.419140	-56.989478	91.49	-0.270	-0.360	0.200	91.51	-1.80	0.60	 	 	 	 	 	 	 	 	 	 	 	 	 	 	 	 	 	 	1581524527	0.93	1.72
12/02/2020 16:22:08	120220	12022020	162208	91.63	12.419145	-56.989475	91.60	0.370	-1.670	-0.280	91.63	-3.10	0.10	 	 	 	 	 	 	 	 	 	 	 	 	 	 	 	 	 	 	1581524528	1.26	2.33
12/02/2020 16:22:09	120220	12022020	162209	91.56	12.419147	-56.989470	91.53	0.740	-2.310	-0.300	91.56	-3.70	0.10	 	 	 	 	 	 	 	 	 	 	 	 	 	 	 	 	 	 	1581524529	1.06	1.96
12/02/2020 16:22:10	120220	12022020	162210	91.34	12.419145	-56.989468	91.34	0.620	-1.730	0.200	91.34	-3.10	0.60	 	 	 	 	 	 	 	 	 	 	 	 	 	 	 	 	 	 	1581524530	0.43	0.80
12/02/2020 16:22:11	120220	12022020	162211	91.20	12.419142	-56.989472	91.24	0.120	-0.120	0.910	91.20	-1.40	1.40	 	 	 	 	 	 	 	 	 	 	 	 	 	 	 	 	 	 	1581524531	1.12	2.07
12/02/2020 16:22:12	120220	12022020	162212	91.41	12.419137	-56.989480	91.49	-0.460	1.520	1.410	91.41	0.20	1.80	 	 	 	 	 	 	 	 	 	 	 	 	 	 	 	 	 	 	1581524532	1.82	3.37
12/02/2020 16:22:13	120220	12022020	162213	91.92	12.419135	-56.989487	92.00	-0.770	2.070	1.400	91.92	0.70	1.80	 	 	 	 	 	 	 	 	 	 	 	 	 	 	 	 	 	 	1581524533	1.48	2.74
12/02/2020 16:22:14	120220	12022020	162214	92.30	12.419135	-56.989487	92.34	-0.610	1.130	1.230	92.30	-0.30	1.60	 	 	 	 	 	 	 	 	 	 	 	 	 	 	 	 	 	 	1581524534	0.27	0.50
12/02/2020 16:22:15	120220	12022020	162215	92.23	12.419133	-56.989482	92.24	-0.080	-0.590	1.330	92.23	-2.00	1.80	 	 	 	 	 	 	 	 	 	 	 	 	 	 	 	 	 	 	1581524535	0.98	1.81
12/02/2020 16:22:16	120220	12022020	162216	91.87	12.419132	-56.989477	91.91	0.430	-1.840	1.630	91.87	-3.20	2.10	 	 	 	 	 	 	 	 	 	 	 	 	 	 	 	 	 	 	1581524536	1.34	2.48
12/02/2020 16:22:17	120220	12022020	162217	91.67	12.419130	-56.989475	91.73	0.660	-1.860	1.800	91.67	-3.20	2.20	 	 	 	 	 	 	 	 	 	 	 	 	 	 	 	 	 	 	1581524537	0.54	1.00
12/02/2020 16:22:18	120220	12022020	162218	91.77	12.419132	-56.989477	91.83	0.600	-1.040	1.610	91.77	-2.40	2.00	 	 	 	 	 	 	 	 	 	 	 	 	 	 	 	 	 	 	1581524538	0.52	0.96
12/02/2020 16:22:19	120220	12022020	162219	92.04	12.419133	-56.989480	92.10	0.350	-0.060	1.130	92.04	-1.40	1.50	 	 	 	 	 	 	 	 	 	 	 	 	 	 	 	 	 	 	1581524539	0.96	1.78
12/02/2020 16:22:20	120220	12022020	162220	92.29	12.419137	-56.989483	92.33	-0.060	0.730	0.630	92.29	-0.60	1.00	 	 	 	 	 	 	 	 	 	 	 	 	 	 	 	 	 	 	1581524540	0.94	1.74
12/02/2020 16:22:21	120220	12022020	162221	92.30	12.419138	-56.989487	92.31	-0.550	1.090	0.390	92.30	-0.30	0.80	 	 	 	 	 	 	 	 	 	 	 	 	 	 	 	 	 	 	1581524541	0.70	1.30
12/02/2020 16:22:22	120220	12022020	162222	92.07	12.419138	-56.989488	92.06	-0.820	0.770	0.360	92.07	-0.60	0.80	 	 	 	 	 	 	 	 	 	 	 	 	 	 	 	 	 	 	1581524542	0.28	0.52
12/02/2020 16:22:23	120220	12022020	162223	91.85	12.419137	-56.989487	91.83	-0.670	-0.000	0.370	91.85	-1.40	0.80	 	 	 	 	 	 	 	 	 	 	 	 	 	 	 	 	 	 	1581524543	0.32	0.59
12/02/2020 16:22:24	120220	12022020	162224	91.86	12.419137	-56.989485	91.87	-0.160	-0.750	0.280	91.86	-2.10	0.70	 	 	 	 	 	 	 	 	 	 	 	 	 	 	 	 	 	 	1581524544	0.46	0.85
12/02/2020 16:22:25	120220	12022020	162225	92.04	12.419137	-56.989483	92.05	0.420	-1.260	0.170	92.04	-2.60	0.60	 	 	 	 	 	 	 	 	 	 	 	 	 	 	 	 	 	 	1581524545	0.39	0.72
12/02/2020 16:22:26	120220	12022020	162226	92.12	12.419137	-56.989482	92.12	0.710	-1.410	0.290	92.12	-2.80	0.70	 	 	 	 	 	 	 	 	 	 	 	 	 	 	 	 	 	 	1581524546	0.38	0.70
12/02/2020 16:22:27	120220	12022020	162227	92.05	12.419137	-56.989482	92.03	0.520	-0.850	0.710	92.03	-2.20	1.20	 	 	 	 	 	 	 	 	 	 	 	 	 	 	 	 	 	 	1581524547	0.21	0.39
12/02/2020 16:22:28	120220	12022020	162228	91.89	12.419133	-56.989485	91.90	0.050	0.410	1.140	91.89	-0.90	1.60	 	 	 	 	 	 	 	 	 	 	 	 	 	 	 	 	 	 	1581524548	0.91	1.69
12/02/2020 16:22:29	120220	12022020	162229	91.81	12.419132	-56.989492	91.81	-0.340	1.440	1.340	91.81	0.10	1.80	 	 	 	 	 	 	 	 	 	 	 	 	 	 	 	 	 	 	1581524549	1.38	2.56
12/02/2020 16:22:30	120220	12022020	162230	91.72	12.419132	-56.989495	91.72	-0.350	1.150	1.430	91.72	-0.30	1.90	 	 	 	 	 	 	 	 	 	 	 	 	 	 	 	 	 	 	1581524550	0.69	1.28
12/02/2020 16:22:31	120220	12022020	162231	91.61	12.419132	-56.989492	91.62	-0.070	-0.280	1.550	91.61	-1.70	2.00	 	 	 	 	 	 	 	 	 	 	 	 	 	 	 	 	 	 	1581524551	0.73	1.35
12/02/2020 16:22:32	120220	12022020	162232	91.64	12.419132	-56.989485	91.66	0.210	-1.580	1.530	91.64	-3.00	1.90	 	 	 	 	 	 	 	 	 	 	 	 	 	 	 	 	 	 	1581524552	1.42	2.63
12/02/2020 16:22:33	120220	12022020	162233	91.69	12.419132	-56.989480	91.72	0.240	-1.610	1.380	91.69	-3.00	1.80	 	 	 	 	 	 	 	 	 	 	 	 	 	 	 	 	 	 	1581524553	0.74	1.37
12/02/2020 16:22:34	120220	12022020	162234	91.63	12.419133	-56.989483	91.66	0.030	-0.470	1.170	91.63	-1.80	1.60	 	 	 	 	 	 	 	 	 	 	 	 	 	 	 	 	 	 	1581524554	0.62	1.15
12/02/2020 16:22:35	120220	12022020	162235	91.49	12.419133	-56.989490	91.51	-0.230	0.720	0.970	91.49	-0.70	1.40	 	 	 	 	 	 	 	 	 	 	 	 	 	 	 	 	 	 	1581524555	1.35	2.50
12/02/2020 16:22:36	120220	12022020	162236	91.33	12.419135	-56.989493	91.34	-0.290	0.980	0.880	91.33	-0.40	1.30	 	 	 	 	 	 	 	 	 	 	 	 	 	 	 	 	 	 	1581524556	0.91	1.69
12/02/2020 16:22:37	120220	12022020	162237	91.25	12.419137	-56.989493	91.27	-0.040	0.300	0.710	91.25	-1.10	1.10	 	 	 	 	 	 	 	 	 	 	 	 	 	 	 	 	 	 	1581524557	0.29	0.54
12/02/2020 16:22:38	120220	12022020	162238	91.37	12.419138	-56.989490	91.38	0.310	-0.610	0.340	91.37	-2.00	0.80	 	 	 	 	 	 	 	 	 	 	 	 	 	 	 	 	 	 	1581524558	1.00	1.85
12/02/2020 16:22:39	120220	12022020	162239	91.55	12.419142	-56.989487	91.61	0.410	-1.000	0.050	91.59	-2.40	0.50	 	 	 	 	 	 	 	 	 	 	 	 	 	 	 	 	 	 	1581524559	0.94	1.74
12/02/2020 16:22:40	120220	12022020	162240	91.69	12.419142	-56.989485	91.69	0.110	-0.750	0.220	91.69	-2.10	0.70	 	 	 	 	 	 	 	 	 	 	 	 	 	 	 	 	 	 	1581524560	0.20	0.37
12/02/2020 16:22:41	120220	12022020	162241	91.56	12.419138	-56.989488	91.55	-0.370	-0.250	0.910	91.56	-1.60	1.40	 	 	 	 	 	 	 	 	 	 	 	 	 	 	 	 	 	 	1581524561	0.80	1.48
12/02/2020 16:22:42	120220	12022020	162242	91.23	12.419132	-56.989490	91.25	-0.560	0.080	1.720	91.23	-1.30	2.20	 	 	 	 	 	 	 	 	 	 	 	 	 	 	 	 	 	 	1581524562	1.44	2.67
12/02/2020 16:22:43	120220	12022020	162243	90.88	12.419127	-56.989490	90.89	-0.160	0.020	2.140	90.88	-1.40	2.60	 	 	 	 	 	 	 	 	 	 	 	 	 	 	 	 	 	 	1581524563	1.15	2.13
12/02/2020 16:22:44	120220	12022020	162244	90.70	12.419127	-56.989488	90.73	0.480	-0.170	2.000	90.70	-1.60	2.40	 	 	 	 	 	 	 	 	 	 	 	 	 	 	 	 	 	 	1581524564	0.41	0.76
12/02/2020 16:22:45	120220	12022020	162245	90.78	12.419132	-56.989487	90.81	0.660	-0.140	1.450	90.78	-1.50	1.90	 	 	 	 	 	 	 	 	 	 	 	 	 	 	 	 	 	 	1581524565	1.12	2.07
12/02/2020 16:22:46	120220	12022020	162246	91.02	12.419138	-56.989487	91.05	0.200	0.170	0.820	91.02	-1.20	1.20	 	 	 	 	 	 	 	 	 	 	 	 	 	 	 	 	 	 	1581524566	1.21	2.24
12/02/2020 16:22:47	120220	12022020	162247	91.34	12.419140	-56.989490	91.35	-0.420	0.440	0.270	91.34	-1.00	0.70	 	 	 	 	 	 	 	 	 	 	 	 	 	 	 	 	 	 	1581524567	0.84	1.56
12/02/2020 16:22:48	120220	12022020	162248	91.44	12.419142	-56.989490	91.43	-0.560	0.140	0.110	91.44	-1.30	0.50	 	 	 	 	 	 	 	 	 	 	 	 	 	 	 	 	 	 	1581524568	0.33	0.61
12/02/2020 16:22:49	120220	12022020	162249	91.26	12.419140	-56.989488	91.24	-0.130	-0.810	0.390	91.26	-2.20	0.80	 	 	 	 	 	 	 	 	 	 	 	 	 	 	 	 	 	 	1581524569	0.64	1.19
12/02/2020 16:22:50	120220	12022020	162250	91.06	12.419137	-56.989483	91.06	0.430	-1.650	0.810	91.06	-3.00	1.20	 	 	 	 	 	 	 	 	 	 	 	 	 	 	 	 	 	 	1581524570	1.32	2.44
12/02/2020 16:22:51	120220	12022020	162251	90.99	12.419135	-56.989478	91.01	0.600	-1.500	1.120	90.99	-2.90	1.50	 	 	 	 	 	 	 	 	 	 	 	 	 	 	 	 	 	 	1581524571	0.93	1.72
12/02/2020 16:22:52	120220	12022020	162252	91.04	12.419135	-56.989480	91.07	0.260	-0.310	1.230	91.04	-1.60	1.70	 	 	 	 	 	 	 	 	 	 	 	 	 	 	 	 	 	 	1581524572	0.22	0.41
12/02/2020 16:22:53	120220	12022020	162253	91.20	12.419135	-56.989485	91.24	-0.350	1.120	1.220	91.20	-0.20	1.60	 	 	 	 	 	 	 	 	 	 	 	 	 	 	 	 	 	 	1581524573	1.06	1.96
12/02/2020 16:22:54	120220	12022020	162254	91.37	12.419133	-56.989490	91.39	-0.810	1.790	1.220	91.37	0.40	1.60	 	 	 	 	 	 	 	 	 	 	 	 	 	 	 	 	 	 	1581524574	1.02	1.89
12/02/2020 16:22:55	120220	12022020	162255	91.46	12.419132	-56.989492	91.47	-0.840	1.270	1.200	91.46	-0.20	1.60	 	 	 	 	 	 	 	 	 	 	 	 	 	 	 	 	 	 	1581524575	0.47	0.87
12/02/2020 16:22:56	120220	12022020	162256	91.45	12.419130	-56.989488	91.45	-0.410	-0.130	1.140	91.45	-1.60	1.50	 	 	 	 	 	 	 	 	 	 	 	 	 	 	 	 	 	 	1581524576	0.80	1.48
12/02/2020 16:22:57	120220	12022020	162257	91.31	12.419130	-56.989482	91.32	0.270	-1.540	1.020	91.31	-2.90	1.40	 	 	 	 	 	 	 	 	 	 	 	 	 	 	 	 	 	 	1581524577	1.26	2.33
12/02/2020 16:22:58	120220	12022020	162258	91.12	12.419133	-56.989477	91.12	0.870	-2.080	0.870	91.12	-3.50	1.30	 	 	 	 	 	 	 	 	 	 	 	 	 	 	 	 	 	 	1581524578	1.14	2.11
12/02/2020 16:22:59	120220	12022020	162259	90.98	12.419137	-56.989475	90.99	1.050	-1.570	0.670	90.98	-2.90	1.10	 	 	 	 	 	 	 	 	 	 	 	 	 	 	 	 	 	 	1581524579	0.90	1.67
12/02/2020 16:23:00	120220	12022020	162300	91.01	12.419142	-56.989477	91.03	0.670	-0.430	0.490	91.01	-1.80	0.90	 	 	 	 	 	 	 	 	 	 	 	 	 	 	 	 	 	 	1581524580	1.01	1.87
12/02/2020 16:23:01	120220	12022020	162301	91.29	12.419143	-56.989480	91.33	-0.090	0.680	0.550	91.29	-0.70	1.00	 	 	 	 	 	 	 	 	 	 	 	 	 	 	 	 	 	 	1581524581	0.85	1.57
12/02/2020 16:23:02	120220	12022020	162302	91.74	12.419140	-56.989483	91.78	-0.750	1.190	0.910	91.74	-0.20	1.40	1016.40	26.70	26.70	20.10	20.10	740.0	67.0	67.0	435.0	29.5	354.00	10.20	85.00	9.80	58212	11004.0	27.5	27.5	1581524582	0.76	1.41
12/02/2020 16:23:03	120220	12022020	162303	92.06	12.419135	-56.989483	92.09	-0.870	0.940	1.390	92.06	-0.50	1.80	 	 	 	 	 	 	 	 	 	 	 	 	 	 	 	 	 	 	1581524583	1.34	2.48
12/02/2020 16:23:04	120220	12022020	162304	91.90	12.419128	-56.989480	91.90	-0.430	0.180	1.970	91.90	-1.20	2.40	 	 	 	 	 	 	 	 	 	 	 	 	 	 	 	 	 	 	1581524584	1.57	2.91
12/02/2020 16:23:05	120220	12022020	162305	91.26	12.419123	-56.989477	91.26	0.190	-0.570	2.520	91.26	-2.00	2.90	 	 	 	 	 	 	 	 	 	 	 	 	 	 	 	 	 	 	1581524585	1.31	2.43
12/02/2020 16:23:06	120220	12022020	162306	90.71	12.419123	-56.989473	90.75	0.490	-0.870	2.560	90.71	-2.20	3.00	 	 	 	 	 	 	 	 	 	 	 	 	 	 	 	 	 	 	1581524586	0.64	1.19
12/02/2020 16:23:07	120220	12022020	162307	90.70	12.419127	-56.989473	90.75	0.320	-0.680	1.990	90.70	-2.00	2.40	 	 	 	 	 	 	 	 	 	 	 	 	 	 	 	 	 	 	1581524587	0.92	1.70
12/02/2020 16:23:08	120220	12022020	162308	90.99	12.419133	-56.989475	91.05	-0.130	-0.220	1.230	90.99	-1.60	1.60	 	 	 	 	 	 	 	 	 	 	 	 	 	 	 	 	 	 	1581524588	1.25	2.31
12/02/2020 16:23:09	120220	12022020	162309	91.24	12.419137	-56.989477	91.26	-0.450	0.070	0.600	91.24	-1.30	1.00	 	 	 	 	 	 	 	 	 	 	 	 	 	 	 	 	 	 	1581524589	1.05	1.94
12/02/2020 16:23:10	120220	12022020	162310	91.35	12.419140	-56.989477	91.36	-0.320	-0.160	0.070	91.35	-1.60	0.50	 	 	 	 	 	 	 	 	 	 	 	 	 	 	 	 	 	 	1581524590	0.63	1.17
12/02/2020 16:23:11	120220	12022020	162311	91.43	12.419142	-56.989473	91.42	0.150	-0.690	-0.320	91.43	-2.10	0.10	 	 	 	 	 	 	 	 	 	 	 	 	 	 	 	 	 	 	1581524591	0.74	1.37
12/02/2020 16:23:12	120220	12022020	162312	91.38	12.419142	-56.989470	91.36	0.560	-0.920	-0.290	91.38	-2.30	0.10	 	 	 	 	 	 	 	 	 	 	 	 	 	 	 	 	 	 	1581524592	0.86	1.59
12/02/2020 16:23:13	120220	12022020	162313	91.14	12.419138	-56.989467	91.12	0.600	-0.450	0.200	91.14	-1.80	0.60	 	 	 	 	 	 	 	 	 	 	 	 	 	 	 	 	 	 	1581524593	0.63	1.17
12/02/2020 16:23:14	120220	12022020	162314	90.82	12.419137	-56.989470	90.80	0.260	0.420	0.740	90.82	-0.90	1.20	 	 	 	 	 	 	 	 	 	 	 	 	 	 	 	 	 	 	1581524594	0.74	1.37
12/02/2020 16:23:15	120220	12022020	162315	90.61	12.419135	-56.989472	90.57	-0.200	1.020	0.910	90.57	-0.40	1.30	 	 	 	 	 	 	 	 	 	 	 	 	 	 	 	 	 	 	1581524595	0.67	1.24
12/02/2020 16:23:16	120220	12022020	162316	90.51	12.419138	-56.989475	90.51	-0.550	0.990	0.770	90.51	-0.40	1.20	 	 	 	 	 	 	 	 	 	 	 	 	 	 	 	 	 	 	1581524596	0.70	1.30
12/02/2020 16:23:17	120220	12022020	162317	90.59	12.419142	-56.989473	90.62	-0.640	0.290	0.740	90.59	-1.10	1.20	 	 	 	 	 	 	 	 	 	 	 	 	 	 	 	 	 	 	1581524597	0.63	1.17
12/02/2020 16:23:18	120220	12022020	162318	90.84	12.419142	-56.989472	90.88	-0.420	-0.790	0.820	90.84	-2.20	1.20	 	 	 	 	 	 	 	 	 	 	 	 	 	 	 	 	 	 	1581524598	0.58	1.07
12/02/2020 16:23:19	120220	12022020	162319	91.09	12.419138	-56.989467	91.10	0.050	-1.790	0.970	91.09	-3.20	1.40	 	 	 	 	 	 	 	 	 	 	 	 	 	 	 	 	 	 	1581524599	1.01	1.87
12/02/2020 16:23:20	120220	12022020	162320	90.96	12.419137	-56.989463	90.95	0.610	-2.090	1.330	90.96	-3.50	1.70	 	 	 	 	 	 	 	 	 	 	 	 	 	 	 	 	 	 	1581524600	1.12	2.07
12/02/2020 16:23:21	120220	12022020	162321	90.52	12.419133	-56.989462	90.53	0.890	-1.260	1.740	90.52	-2.60	2.10	 	 	 	 	 	 	 	 	 	 	 	 	 	 	 	 	 	 	1581524601	0.63	1.17
12/02/2020 16:23:22	120220	12022020	162322	90.30	12.419132	-56.989465	90.33	0.620	0.320	1.900	90.30	-1.00	2.30	 	 	 	 	 	 	 	 	 	 	 	 	 	 	 	 	 	 	1581524602	0.73	1.35
12/02/2020 16:23:23	120220	12022020	162323	90.45	12.419133	-56.989470	90.49	-0.060	1.690	1.630	90.45	0.30	2.00	 	 	 	 	 	 	 	 	 	 	 	 	 	 	 	 	 	 	1581524603	1.25	2.31
12/02/2020 16:23:24	120220	12022020	162324	90.73	12.419137	-56.989475	90.76	-0.720	2.000	1.070	90.73	0.60	1.50	 	 	 	 	 	 	 	 	 	 	 	 	 	 	 	 	 	 	1581524604	1.18	2.19
12/02/2020 16:23:25	120220	12022020	162325	90.90	12.419140	-56.989475	90.92	-0.990	1.160	0.520	90.90	-0.30	0.90	 	 	 	 	 	 	 	 	 	 	 	 	 	 	 	 	 	 	1581524605	0.88	1.63
12/02/2020 16:23:26	120220	12022020	162326	90.96	12.419143	-56.989473	90.97	-0.770	-0.170	0.050	90.96	-1.60	0.50	 	 	 	 	 	 	 	 	 	 	 	 	 	 	 	 	 	 	1581524606	0.85	1.57
12/02/2020 16:23:27	120220	12022020	162327	90.93	12.419145	-56.989470	90.92	-0.160	-1.400	-0.170	90.93	-2.80	0.30	 	 	 	 	 	 	 	 	 	 	 	 	 	 	 	 	 	 	1581524607	0.72	1.33
12/02/2020 16:23:28	120220	12022020	162328	90.75	12.419145	-56.989467	90.73	0.600	-2.290	0.040	90.75	-3.70	0.50	 	 	 	 	 	 	 	 	 	 	 	 	 	 	 	 	 	 	1581524608	0.65	1.20
12/02/2020 16:23:29	120220	12022020	162329	90.56	12.419143	-56.989463	90.52	1.160	-2.540	0.520	90.52	-3.90	1.00	 	 	 	 	 	 	 	 	 	 	 	 	 	 	 	 	 	 	1581524609	0.76	1.41
12/02/2020 16:23:30	120220	12022020	162330	90.38	12.419143	-56.989462	90.40	1.180	-1.730	0.920	90.38	-3.00	1.30	 	 	 	 	 	 	 	 	 	 	 	 	 	 	 	 	 	 	1581524610	0.43	0.80
12/02/2020 16:23:31	120220	12022020	162331	90.31	12.419143	-56.989463	90.35	0.580	0.030	1.210	90.31	-1.30	1.60	 	 	 	 	 	 	 	 	 	 	 	 	 	 	 	 	 	 	1581524611	0.45	0.83
12/02/2020 16:23:32	120220	12022020	162332	90.42	12.419143	-56.989470	90.47	-0.350	1.900	1.430	90.42	0.60	1.80	 	 	 	 	 	 	 	 	 	 	 	 	 	 	 	 	 	 	1581524612	1.31	2.43
12/02/2020 16:23:33	120220	12022020	162333	90.75	12.419142	-56.989477	90.80	-1.170	2.940	1.430	90.75	1.50	1.80	 	 	 	 	 	 	 	 	 	 	 	 	 	 	 	 	 	 	1581524613	1.44	2.67
12/02/2020 16:23:34	120220	12022020	162334	91.24	12.419140	-56.989480	91.28	-1.470	2.540	1.170	91.24	1.10	1.60	 	 	 	 	 	 	 	 	 	 	 	 	 	 	 	 	 	 	1581524614	0.81	1.50
12/02/2020 16:23:35	120220	12022020	162335	91.58	12.419142	-56.989478	91.60	-1.150	0.700	0.900	91.58	-0.80	1.30	 	 	 	 	 	 	 	 	 	 	 	 	 	 	 	 	 	 	1581524615	0.29	0.54
12/02/2020 16:23:36	120220	12022020	162336	91.43	12.419140	-56.989472	91.41	-0.390	-1.720	1.000	91.43	-3.20	1.40	 	 	 	 	 	 	 	 	 	 	 	 	 	 	 	 	 	 	1581524616	1.32	2.44
12/02/2020 16:23:37	120220	12022020	162337	90.97	12.419138	-56.989465	90.97	0.450	-3.290	1.280	90.97	-4.70	1.70	 	 	 	 	 	 	 	 	 	 	 	 	 	 	 	 	 	 	1581524617	1.58	2.93
12/02/2020 16:23:38	120220	12022020	162338	90.65	12.419137	-56.989463	90.68	1.160	-3.150	1.240	90.65	-4.50	1.60	 	 	 	 	 	 	 	 	 	 	 	 	 	 	 	 	 	 	1581524618	0.58	1.07
12/02/2020 16:23:39	120220	12022020	162339	90.58	12.419142	-56.989465	90.61	1.510	-1.700	0.910	90.58	-3.00	1.30	 	 	 	 	 	 	 	 	 	 	 	 	 	 	 	 	 	 	1581524619	1.04	1.93
12/02/2020 16:23:40	120220	12022020	162340	90.65	12.419147	-56.989472	90.68	1.230	0.110	0.650	90.65	-1.20	1.10	 	 	 	 	 	 	 	 	 	 	 	 	 	 	 	 	 	 	1581524620	1.61	2.98
12/02/2020 16:23:41	120220	12022020	162341	90.75	12.419150	-56.989475	90.75	0.380	1.400	0.440	90.75	0.00	0.80	 	 	 	 	 	 	 	 	 	 	 	 	 	 	 	 	 	 	1581524621	1.22	2.26
12/02/2020 16:23:42	120220	12022020	162342	90.81	12.419152	-56.989478	90.81	-0.550	1.810	0.240	90.81	0.40	0.70	 	 	 	 	 	 	 	 	 	 	 	 	 	 	 	 	 	 	1581524622	0.48	0.89
12/02/2020 16:23:43	120220	12022020	162343	90.79	12.419150	-56.989477	90.79	-1.080	1.350	0.230	90.79	-0.10	0.60	 	 	 	 	 	 	 	 	 	 	 	 	 	 	 	 	 	 	1581524623	0.33	0.61
12/02/2020 16:23:44	120220	12022020	162344	90.68	12.419147	-56.989473	90.69	-1.030	0.360	0.490	90.68	-1.10	0.90	 	 	 	 	 	 	 	 	 	 	 	 	 	 	 	 	 	 	1581524624	0.84	1.56
12/02/2020 16:23:45	120220	12022020	162345	90.63	12.419145	-56.989470	90.65	-0.630	-0.480	0.760	90.63	-1.90	1.20	 	 	 	 	 	 	 	 	 	 	 	 	 	 	 	 	 	 	1581524625	0.90	1.67
12/02/2020 16:23:46	120220	12022020	162346	90.75	12.419143	-56.989470	90.78	-0.240	-0.730	0.850	90.75	-2.10	1.30	 	 	 	 	 	 	 	 	 	 	 	 	 	 	 	 	 	 	1581524626	0.27	0.50
12/02/2020 16:23:47	120220	12022020	162347	91.02	12.419143	-56.989472	91.04	0.010	-0.700	0.710	91.02	-2.10	1.10	 	 	 	 	 	 	 	 	 	 	 	 	 	 	 	 	 	 	1581524627	0.42	0.78
12/02/2020 16:23:48	120220	12022020	162348	91.18	12.419145	-56.989473	91.20	0.220	-0.840	0.660	91.18	-2.20	1.10	 	 	 	 	 	 	 	 	 	 	 	 	 	 	 	 	 	 	1581524628	0.40	0.74
12/02/2020 16:23:49	120220	12022020	162349	91.03	12.419143	-56.989473	91.05	0.550	-1.070	0.990	91.03	-2.40	1.40	 	 	 	 	 	 	 	 	 	 	 	 	 	 	 	 	 	 	1581524629	0.28	0.52
12/02/2020 16:23:50	120220	12022020	162350	90.68	12.419142	-56.989472	90.70	0.870	-1.000	1.470	90.68	-2.40	1.90	 	 	 	 	 	 	 	 	 	 	 	 	 	 	 	 	 	 	1581524630	0.63	1.17
12/02/2020 16:23:51	120220	12022020	162351	90.35	12.419140	-56.989470	90.38	0.940	-0.620	1.710	90.35	-2.00	2.10	 	 	 	 	 	 	 	 	 	 	 	 	 	 	 	 	 	 	1581524631	0.28	0.52
12/02/2020 16:23:52	120220	12022020	162352	90.20	12.419142	-56.989470	90.22	0.580	-0.100	1.550	90.20	-1.50	2.00	 	 	 	 	 	 	 	 	 	 	 	 	 	 	 	 	 	 	1581524632	0.35	0.65
12/02/2020 16:23:53	120220	12022020	162353	90.20	12.419145	-56.989472	90.23	-0.100	0.510	1.230	90.20	-0.90	1.60	 	 	 	 	 	 	 	 	 	 	 	 	 	 	 	 	 	 	1581524633	0.58	1.07
12/02/2020 16:23:54	120220	12022020	162354	90.25	12.419147	-56.989472	90.26	-0.700	0.980	0.980	90.25	-0.40	1.40	 	 	 	 	 	 	 	 	 	 	 	 	 	 	 	 	 	 	1581524634	0.42	0.78
12/02/2020 16:23:55	120220	12022020	162355	90.29	12.419147	-56.989473	90.31	-0.890	1.020	0.720	90.30	-0.40	1.10	 	 	 	 	 	 	 	 	 	 	 	 	 	 	 	 	 	 	1581524635	0.23	0.43
12/02/2020 16:23:56	120220	12022020	162356	90.47	12.419147	-56.989473	90.48	-0.730	0.630	0.360	90.47	-0.80	0.80	 	 	 	 	 	 	 	 	 	 	 	 	 	 	 	 	 	 	1581524636	0.20	0.37
12/02/2020 16:23:57	120220	12022020	162357	90.71	12.419148	-56.989473	90.72	-0.420	0.020	0.010	90.71	-1.40	0.40	 	 	 	 	 	 	 	 	 	 	 	 	 	 	 	 	 	 	1581524637	0.38	0.70
12/02/2020 16:23:58	120220	12022020	162358	90.87	12.419150	-56.989472	90.88	-0.050	-0.700	-0.160	90.87	-2.10	0.30	 	 	 	 	 	 	 	 	 	 	 	 	 	 	 	 	 	 	1581524638	0.32	0.59
12/02/2020 16:23:59	120220	12022020	162359	90.72	12.419150	-56.989470	90.70	0.400	-1.530	0.090	90.72	-2.90	0.50	 	 	 	 	 	 	 	 	 	 	 	 	 	 	 	 	 	 	1581524639	0.39	0.72
12/02/2020 16:24:00	120220	12022020	162400	90.25	12.419147	-56.989467	90.23	0.860	-2.030	0.800	90.25	-3.40	1.20	 	 	 	 	 	 	 	 	 	 	 	 	 	 	 	 	 	 	1581524640	0.93	1.72
12/02/2020 16:24:01	120220	12022020	162401	89.84	12.419143	-56.989465	89.86	1.040	-1.600	1.570	89.84	-2.90	2.00	 	 	 	 	 	 	 	 	 	 	 	 	 	 	 	 	 	 	1581524641	0.89	1.65
12/02/2020 16:24:02	120220	12022020	162402	89.78	12.419142	-56.989465	89.83	0.630	-0.240	1.900	89.78	-1.60	2.30	1016.40	26.70	26.70	20.30	20.40	708.0	68.0	68.0	436.0	29.5	352.00	10.40	83.00	10.00	56427	12360.0	27.5	27.5	1581524642	0.42	0.78
12/02/2020 16:24:03	120220	12022020	162403	90.07	12.419143	-56.989470	90.13	-0.260	1.260	1.590	90.07	-0.10	2.00	 	 	 	 	 	 	 	 	 	 	 	 	 	 	 	 	 	 	1581524643	1.05	1.94
12/02/2020 16:24:04	120220	12022020	162404	90.45	12.419143	-56.989475	90.48	-1.060	1.890	1.110	90.45	0.50	1.50	 	 	 	 	 	 	 	 	 	 	 	 	 	 	 	 	 	 	1581524644	1.06	1.96
12/02/2020 16:24:05	120220	12022020	162405	90.63	12.419143	-56.989477	90.65	-1.190	1.370	0.890	90.63	-0.10	1.30	 	 	 	 	 	 	 	 	 	 	 	 	 	 	 	 	 	 	1581524645	0.20	0.37
12/02/2020 16:24:06	120220	12022020	162406	90.62	12.419143	-56.989473	90.63	-0.650	0.250	0.740	90.62	-1.20	1.10	 	 	 	 	 	 	 	 	 	 	 	 	 	 	 	 	 	 	1581524646	0.59	1.09
12/02/2020 16:24:07	120220	12022020	162407	90.49	12.419143	-56.989470	90.44	0.130	-0.850	0.600	90.45	-2.30	1.00	 	 	 	 	 	 	 	 	 	 	 	 	 	 	 	 	 	 	1581524647	0.77	1.43
12/02/2020 16:24:08	120220	12022020	162408	90.19	12.419145	-56.989467	90.18	0.710	-1.560	0.550	90.19	-3.00	1.00	 	 	 	 	 	 	 	 	 	 	 	 	 	 	 	 	 	 	1581524648	0.70	1.30
12/02/2020 16:24:09	120220	12022020	162409	90.01	12.419147	-56.989465	90.02	0.890	-1.740	0.650	90.01	-3.10	1.10	 	 	 	 	 	 	 	 	 	 	 	 	 	 	 	 	 	 	1581524649	0.58	1.07
12/02/2020 16:24:10	120220	12022020	162410	90.04	12.419148	-56.989465	90.07	0.680	-1.250	0.790	90.04	-2.60	1.20	 	 	 	 	 	 	 	 	 	 	 	 	 	 	 	 	 	 	1581524650	0.28	0.52
12/02/2020 16:24:11	120220	12022020	162411	90.36	12.419148	-56.989467	90.41	0.280	-0.240	0.750	90.36	-1.60	1.20	 	 	 	 	 	 	 	 	 	 	 	 	 	 	 	 	 	 	1581524651	0.44	0.81
12/02/2020 16:24:12	120220	12022020	162412	90.76	12.419148	-56.989470	90.79	-0.130	0.750	0.770	90.76	-0.60	1.20	 	 	 	 	 	 	 	 	 	 	 	 	 	 	 	 	 	 	1581524652	0.76	1.41
12/02/2020 16:24:13	120220	12022020	162413	90.92	12.419147	-56.989473	90.94	-0.430	1.130	1.130	90.92	-0.30	1.50	 	 	 	 	 	 	 	 	 	 	 	 	 	 	 	 	 	 	1581524653	0.68	1.26
12/02/2020 16:24:14	120220	12022020	162414	90.75	12.419143	-56.989473	90.78	-0.570	0.760	1.770	90.75	-0.70	2.20	 	 	 	 	 	 	 	 	 	 	 	 	 	 	 	 	 	 	1581524654	0.90	1.67
12/02/2020 16:24:15	120220	12022020	162415	90.37	12.419138	-56.989470	90.39	-0.540	0.070	2.340	90.37	-1.30	2.70	 	 	 	 	 	 	 	 	 	 	 	 	 	 	 	 	 	 	1581524655	1.12	2.07
12/02/2020 16:24:16	120220	12022020	162416	90.01	12.419137	-56.989468	90.04	-0.360	-0.420	2.420	90.01	-1.80	2.80	 	 	 	 	 	 	 	 	 	 	 	 	 	 	 	 	 	 	1581524656	0.66	1.22
12/02/2020 16:24:17	120220	12022020	162417	89.98	12.419137	-56.989468	90.02	-0.090	-0.620	1.840	89.98	-2.00	2.20	 	 	 	 	 	 	 	 	 	 	 	 	 	 	 	 	 	 	1581524657	0.33	0.61
12/02/2020 16:24:18	120220	12022020	162418	90.34	12.419142	-56.989468	90.38	0.240	-0.810	0.970	90.34	-2.20	1.40	 	 	 	 	 	 	 	 	 	 	 	 	 	 	 	 	 	 	1581524658	0.90	1.67
12/02/2020 16:24:19	120220	12022020	162419	90.69	12.419145	-56.989467	90.77	0.520	-1.060	0.350	90.75	-2.50	0.70	 	 	 	 	 	 	 	 	 	 	 	 	 	 	 	 	 	 	1581524659	0.88	1.63
12/02/2020 16:24:20	120220	12022020	162420	90.82	12.419148	-56.989465	90.79	0.660	-1.050	0.090	90.82	-2.40	0.50	 	 	 	 	 	 	 	 	 	 	 	 	 	 	 	 	 	 	1581524660	0.61	1.13
12/02/2020 16:24:21	120220	12022020	162421	90.55	12.419148	-56.989465	90.37	0.600	-0.420	-0.010	90.45	-1.80	0.40	 	 	 	 	 	 	 	 	 	 	 	 	 	 	 	 	 	 	1581524661	0.36	0.67
12/02/2020 16:24:22	120220	12022020	162422	89.90	12.419152	-56.989467	89.84	0.320	0.500	-0.070	89.90	-0.90	0.40	 	 	 	 	 	 	 	 	 	 	 	 	 	 	 	 	 	 	1581524662	0.74	1.37
12/02/2020 16:24:23	120220	12022020	162423	89.61	12.419155	-56.989470	89.58	-0.130	1.070	0.030	89.61	-0.30	0.50	 	 	 	 	 	 	 	 	 	 	 	 	 	 	 	 	 	 	1581524663	0.87	1.61
12/02/2020 16:24:24	120220	12022020	162424	89.75	12.419155	-56.989472	89.76	-0.670	0.980	0.400	89.75	-0.40	0.80	 	 	 	 	 	 	 	 	 	 	 	 	 	 	 	 	 	 	1581524664	0.33	0.61
12/02/2020 16:24:25	120220	12022020	162425	90.24	12.419153	-56.989470	90.27	-1.080	0.400	0.810	90.24	-1.00	1.20	 	 	 	 	 	 	 	 	 	 	 	 	 	 	 	 	 	 	1581524665	0.49	0.91
12/02/2020 16:24:26	120220	12022020	162426	90.67	12.419150	-56.989470	90.69	-1.030	-0.400	1.180	90.67	-1.80	1.60	 	 	 	 	 	 	 	 	 	 	 	 	 	 	 	 	 	 	1581524666	0.94	1.74
12/02/2020 16:24:27	120220	12022020	162427	90.68	12.419145	-56.989467	90.69	-0.450	-1.140	1.680	90.68	-2.50	2.10	 	 	 	 	 	 	 	 	 	 	 	 	 	 	 	 	 	 	1581524667	1.14	2.11
12/02/2020 16:24:28	120220	12022020	162428	90.28	12.419140	-56.989465	90.27	0.350	-1.580	2.360	90.28	-3.00	2.80	 	 	 	 	 	 	 	 	 	 	 	 	 	 	 	 	 	 	1581524668	1.21	2.24
12/02/2020 16:24:29	120220	12022020	162429	89.73	12.419135	-56.989463	89.75	0.900	-1.380	3.020	89.73	-2.80	3.40	 	 	 	 	 	 	 	 	 	 	 	 	 	 	 	 	 	 	1581524669	1.05	1.94
12/02/2020 16:24:30	120220	12022020	162430	89.35	12.419132	-56.989465	89.40	1.000	-0.610	3.140	89.35	-2.00	3.50	 	 	 	 	 	 	 	 	 	 	 	 	 	 	 	 	 	 	1581524670	0.55	1.02
12/02/2020 16:24:31	120220	12022020	162431	89.26	12.419135	-56.989467	89.29	0.800	0.220	2.370	89.26	-1.20	2.70	 	 	 	 	 	 	 	 	 	 	 	 	 	 	 	 	 	 	1581524671	0.75	1.39
12/02/2020 16:24:32	120220	12022020	162432	89.34	12.419143	-56.989467	89.36	0.480	0.570	0.940	89.34	-0.80	1.30	 	 	 	 	 	 	 	 	 	 	 	 	 	 	 	 	 	 	1581524672	1.91	3.54
12/02/2020 16:24:33	120220	12022020	162433	89.50	12.419155	-56.989467	89.50	-0.010	0.620	-0.540	89.50	-0.80	-0.20	 	 	 	 	 	 	 	 	 	 	 	 	 	 	 	 	 	 	1581524673	2.48	4.59
12/02/2020 16:24:34	120220	12022020	162434	89.81	12.419163	-56.989467	89.80	-0.680	0.810	-1.480	89.81	-0.60	-1.10	 	 	 	 	 	 	 	 	 	 	 	 	 	 	 	 	 	 	1581524674	1.87	3.46
12/02/2020 16:24:35	120220	12022020	162435	90.21	12.419167	-56.989468	90.20	-1.260	1.000	-1.660	90.21	-0.40	-1.20	 	 	 	 	 	 	 	 	 	 	 	 	 	 	 	 	 	 	1581524675	0.82	1.52
12/02/2020 16:24:36	120220	12022020	162436	90.39	12.419163	-56.989472	90.37	-1.380	0.540	-1.020	90.39	-0.90	-0.60	 	 	 	 	 	 	 	 	 	 	 	 	 	 	 	 	 	 	1581524676	0.91	1.69
12/02/2020 16:24:37	120220	12022020	162437	90.17	12.419157	-56.989472	90.16	-0.900	-0.660	0.190	90.17	-2.10	0.60	 	 	 	 	 	 	 	 	 	 	 	 	 	 	 	 	 	 	1581524677	1.66	3.07
12/02/2020 16:24:38	120220	12022020	162438	89.79	12.419147	-56.989467	89.80	-0.040	-1.860	1.490	89.79	-3.30	1.90	 	 	 	 	 	 	 	 	 	 	 	 	 	 	 	 	 	 	1581524678	2.11	3.91
12/02/2020 16:24:39	120220	12022020	162439	89.45	12.419138	-56.989463	89.51	0.820	-2.280	2.610	89.45	-3.70	3.00	 	 	 	 	 	 	 	 	 	 	 	 	 	 	 	 	 	 	1581524679	1.90	3.52
12/02/2020 16:24:40	120220	12022020	162440	89.20	12.419133	-56.989462	89.28	1.310	-1.790	3.240	89.20	-3.20	3.60	 	 	 	 	 	 	 	 	 	 	 	 	 	 	 	 	 	 	1581524680	1.19	2.20
12/02/2020 16:24:41	120220	12022020	162441	89.00	12.419133	-56.989462	89.07	1.270	-0.730	3.150	89.00	-2.10	3.50	 	 	 	 	 	 	 	 	 	 	 	 	 	 	 	 	 	 	1581524681	0.14	0.26
12/02/2020 16:24:42	120220	12022020	162442	88.91	12.419138	-56.989465	88.99	0.700	0.570	2.270	88.91	-0.80	2.60	 	 	 	 	 	 	 	 	 	 	 	 	 	 	 	 	 	 	1581524682	1.25	2.31
12/02/2020 16:24:43	120220	12022020	162443	89.06	12.419148	-56.989468	89.19	-0.170	1.720	0.890	89.12	0.30	1.30	 	 	 	 	 	 	 	 	 	 	 	 	 	 	 	 	 	 	1581524683	2.06	3.82
12/02/2020 16:24:44	120220	12022020	162444	89.57	12.419157	-56.989472	89.63	-0.910	2.200	-0.450	89.57	0.80	-0.10	 	 	 	 	 	 	 	 	 	 	 	 	 	 	 	 	 	 	1581524684	1.97	3.65
12/02/2020 16:24:45	120220	12022020	162445	90.12	12.419162	-56.989473	90.14	-1.160	1.650	-1.430	90.12	0.20	-1.00	 	 	 	 	 	 	 	 	 	 	 	 	 	 	 	 	 	 	1581524685	1.22	2.26
12/02/2020 16:24:46	120220	12022020	162446	90.45	12.419163	-56.989472	90.43	-0.870	0.150	-1.780	90.45	-1.30	-1.40	 	 	 	 	 	 	 	 	 	 	 	 	 	 	 	 	 	 	1581524686	0.61	1.13
12/02/2020 16:24:47	120220	12022020	162447	90.28	12.419162	-56.989467	90.25	-0.340	-1.630	-1.300	90.28	-3.10	-0.90	 	 	 	 	 	 	 	 	 	 	 	 	 	 	 	 	 	 	1581524687	1.14	2.11
12/02/2020 16:24:48	120220	12022020	162448	89.74	12.419155	-56.989462	89.72	0.130	-2.670	-0.200	89.74	-4.10	0.20	 	 	 	 	 	 	 	 	 	 	 	 	 	 	 	 	 	 	1581524688	1.74	3.22
12/02/2020 16:24:49	120220	12022020	162449	89.17	12.419147	-56.989460	89.18	0.440	-2.400	1.060	89.17	-3.80	1.50	 	 	 	 	 	 	 	 	 	 	 	 	 	 	 	 	 	 	1581524689	1.71	3.17
12/02/2020 16:24:50	120220	12022020	162450	88.81	12.419142	-56.989462	88.86	0.580	-1.160	1.900	88.81	-2.50	2.30	 	 	 	 	 	 	 	 	 	 	 	 	 	 	 	 	 	 	1581524690	1.21	2.24
12/02/2020 16:24:51	120220	12022020	162451	88.80	12.419142	-56.989467	88.86	0.460	0.290	1.980	88.80	-1.10	2.40	 	 	 	 	 	 	 	 	 	 	 	 	 	 	 	 	 	 	1581524691	0.90	1.67
12/02/2020 16:24:52	120220	12022020	162452	89.12	12.419145	-56.989470	89.19	0.110	1.290	1.300	89.12	-0.10	1.70	 	 	 	 	 	 	 	 	 	 	 	 	 	 	 	 	 	 	1581524692	1.05	1.94
12/02/2020 16:24:53	120220	12022020	162453	89.61	12.419148	-56.989472	89.66	-0.180	1.480	0.390	89.61	0.10	0.80	 	 	 	 	 	 	 	 	 	 	 	 	 	 	 	 	 	 	1581524693	1.02	1.89
12/02/2020 16:24:54	120220	12022020	162454	90.08	12.419152	-56.989470	90.12	-0.170	0.880	-0.220	90.08	-0.60	0.20	 	 	 	 	 	 	 	 	 	 	 	 	 	 	 	 	 	 	1581524694	0.77	1.43
12/02/2020 16:24:55	120220	12022020	162455	90.40	12.419153	-56.989467	90.46	0.070	-0.180	-0.410	90.45	-1.60	0.00	 	 	 	 	 	 	 	 	 	 	 	 	 	 	 	 	 	 	1581524695	0.86	1.59
12/02/2020 16:24:56	120220	12022020	162456	90.42	12.419153	-56.989463	90.40	0.210	-1.070	-0.170	90.42	-2.50	0.30	 	 	 	 	 	 	 	 	 	 	 	 	 	 	 	 	 	 	1581524696	0.89	1.65
12/02/2020 16:24:57	120220	12022020	162457	90.07	12.419152	-56.989460	89.94	0.060	-1.310	0.450	89.97	-2.70	0.90	 	 	 	 	 	 	 	 	 	 	 	 	 	 	 	 	 	 	1581524697	0.63	1.17
12/02/2020 16:24:58	120220	12022020	162458	89.54	12.419148	-56.989462	89.56	-0.230	-0.850	1.200	89.54	-2.20	1.60	 	 	 	 	 	 	 	 	 	 	 	 	 	 	 	 	 	 	1581524698	0.88	1.63
12/02/2020 16:24:59	120220	12022020	162459	89.41	12.419143	-56.989463	89.46	-0.330	-0.090	1.710	89.41	-1.50	2.10	 	 	 	 	 	 	 	 	 	 	 	 	 	 	 	 	 	 	1581524699	1.11	2.06
12/02/2020 16:25:00	120220	12022020	162500	89.41	12.419142	-56.989467	89.46	-0.170	0.400	1.840	89.41	-1.00	2.20	 	 	 	 	 	 	 	 	 	 	 	 	 	 	 	 	 	 	1581524700	0.69	1.28
12/02/2020 16:25:01	120220	12022020	162501	89.46	12.419143	-56.989467	89.50	0.010	0.370	1.540	89.46	-1.00	1.90	 	 	 	 	 	 	 	 	 	 	 	 	 	 	 	 	 	 	1581524701	0.33	0.61
12/02/2020 16:25:02	120220	12022020	162502	89.63	12.419147	-56.989465	89.66	0.040	-0.050	0.960	89.63	-1.40	1.30	1016.40	26.60	26.70	19.90	20.00	709.0	66.0	66.0	436.0	29.5	355.00	10.50	85.00	10.10	56434	10873.0	27.5	27.5	1581524702	0.78	1.44
12/02/2020 16:25:03	120220	12022020	162503	89.83	12.419150	-56.989463	89.86	0.020	-0.540	0.390	89.83	-1.90	0.80	 	 	 	 	 	 	 	 	 	 	 	 	 	 	 	 	 	 	1581524703	0.81	1.50
12/02/2020 16:25:04	120220	12022020	162504	90.09	12.419150	-56.989460	90.11	0.100	-0.790	0.000	90.09	-2.20	0.40	 	 	 	 	 	 	 	 	 	 	 	 	 	 	 	 	 	 	1581524704	0.61	1.13
12/02/2020 16:25:05	120220	12022020	162505	90.35	12.419150	-56.989458	90.38	0.290	-0.720	-0.120	90.35	-2.10	0.30	 	 	 	 	 	 	 	 	 	 	 	 	 	 	 	 	 	 	1581524705	0.30	0.56
12/02/2020 16:25:06	120220	12022020	162506	90.34	12.419150	-56.989458	90.32	0.470	-0.430	0.080	90.34	-1.80	0.50	 	 	 	 	 	 	 	 	 	 	 	 	 	 	 	 	 	 	1581524706	0.26	0.48
12/02/2020 16:25:07	120220	12022020	162507	89.89	12.419148	-56.989458	89.86	0.450	0.040	0.530	89.89	-1.30	0.90	 	 	 	 	 	 	 	 	 	 	 	 	 	 	 	 	 	 	1581524707	0.28	0.52
12/02/2020 16:25:08	120220	12022020	162508	89.32	12.419148	-56.989460	89.31	0.130	0.620	1.030	89.32	-0.80	1.40	 	 	 	 	 	 	 	 	 	 	 	 	 	 	 	 	 	 	1581524708	0.29	0.54
12/02/2020 16:25:09	120220	12022020	162509	89.07	12.419148	-56.989462	89.08	-0.350	0.950	1.340	89.06	-0.40	1.70	 	 	 	 	 	 	 	 	 	 	 	 	 	 	 	 	 	 	1581524709	0.47	0.87
12/02/2020 16:25:10	120220	12022020	162510	89.22	12.419148	-56.989463	89.27	-0.730	0.700	1.220	89.22	-0.70	1.60	 	 	 	 	 	 	 	 	 	 	 	 	 	 	 	 	 	 	1581524710	0.37	0.69
12/02/2020 16:25:11	120220	12022020	162511	89.46	12.419150	-56.989463	89.55	-0.700	-0.160	0.940	89.51	-1.60	1.30	 	 	 	 	 	 	 	 	 	 	 	 	 	 	 	 	 	 	1581524711	0.28	0.52
12/02/2020 16:25:12	120220	12022020	162512	89.66	12.419150	-56.989458	89.70	-0.170	-1.420	0.880	89.66	-2.80	1.30	 	 	 	 	 	 	 	 	 	 	 	 	 	 	 	 	 	 	1581524712	0.83	1.54
12/02/2020 16:25:13	120220	12022020	162513	89.71	12.419147	-56.989453	89.76	0.580	-2.290	1.050	89.71	-3.70	1.40	 	 	 	 	 	 	 	 	 	 	 	 	 	 	 	 	 	 	1581524713	1.37	2.54
12/02/2020 16:25:14	120220	12022020	162514	89.71	12.419143	-56.989448	89.76	1.050	-1.920	1.210	89.71	-3.30	1.60	 	 	 	 	 	 	 	 	 	 	 	 	 	 	 	 	 	 	1581524714	1.03	1.91
12/02/2020 16:25:15	120220	12022020	162515	89.58	12.419143	-56.989450	89.62	0.840	-0.290	1.210	89.58	-1.60	1.60	 	 	 	 	 	 	 	 	 	 	 	 	 	 	 	 	 	 	1581524715	0.48	0.89
12/02/2020 16:25:16	120220	12022020	162516	89.33	12.419143	-56.989457	89.35	0.060	1.560	1.030	89.33	0.20	1.40	 	 	 	 	 	 	 	 	 	 	 	 	 	 	 	 	 	 	1581524716	1.40	2.59
12/02/2020 16:25:17	120220	12022020	162517	89.01	12.419147	-56.989463	89.02	-0.790	2.410	0.730	89.01	1.00	1.10	 	 	 	 	 	 	 	 	 	 	 	 	 	 	 	 	 	 	1581524717	1.44	2.67
12/02/2020 16:25:18	120220	12022020	162518	88.75	12.419150	-56.989465	88.74	-1.130	1.700	0.340	88.75	0.30	0.70	 	 	 	 	 	 	 	 	 	 	 	 	 	 	 	 	 	 	1581524718	0.84	1.56
12/02/2020 16:25:19	120220	12022020	162519	88.63	12.419153	-56.989462	88.62	-0.740	-0.170	-0.110	88.63	-1.60	0.30	 	 	 	 	 	 	 	 	 	 	 	 	 	 	 	 	 	 	1581524719	1.26	2.33
12/02/2020 16:25:20	120220	12022020	162520	88.75	12.419158	-56.989453	88.76	0.050	-2.050	-0.580	88.75	-3.50	-0.20	 	 	 	 	 	 	 	 	 	 	 	 	 	 	 	 	 	 	1581524720	1.80	3.33
12/02/2020 16:25:21	120220	12022020	162521	89.12	12.419160	-56.989448	89.13	0.660	-2.670	-0.850	89.12	-4.00	-0.40	 	 	 	 	 	 	 	 	 	 	 	 	 	 	 	 	 	 	1581524721	1.33	2.46
12/02/2020 16:25:22	120220	12022020	162522	89.43	12.419158	-56.989448	89.45	0.760	-1.680	-0.530	89.43	-3.00	-0.10	 	 	 	 	 	 	 	 	 	 	 	 	 	 	 	 	 	 	1581524722	0.32	0.59
12/02/2020 16:25:23	120220	12022020	162523	89.50	12.419153	-56.989453	89.52	0.480	0.030	0.260	89.50	-1.30	0.70	 	 	 	 	 	 	 	 	 	 	 	 	 	 	 	 	 	 	1581524723	1.55	2.87
12/02/2020 16:25:24	120220	12022020	162524	89.38	12.419148	-56.989460	89.39	0.090	1.290	1.060	89.38	-0.10	1.50	 	 	 	 	 	 	 	 	 	 	 	 	 	 	 	 	 	 	1581524724	1.66	3.07
12/02/2020 16:25:25	120220	12022020	162525	89.11	12.419145	-56.989463	89.13	-0.270	1.480	1.710	89.11	0.10	2.10	 	 	 	 	 	 	 	 	 	 	 	 	 	 	 	 	 	 	1581524725	0.92	1.70
12/02/2020 16:25:26	120220	12022020	162526	88.77	12.419143	-56.989462	88.80	-0.480	0.660	2.260	88.77	-0.80	2.70	 	 	 	 	 	 	 	 	 	 	 	 	 	 	 	 	 	 	1581524726	0.62	1.15
12/02/2020 16:25:27	120220	12022020	162527	88.49	12.419142	-56.989457	88.54	-0.390	-0.640	2.640	88.49	-2.00	3.00	 	 	 	 	 	 	 	 	 	 	 	 	 	 	 	 	 	 	1581524727	1.04	1.93
12/02/2020 16:25:28	120220	12022020	162528	88.43	12.419142	-56.989452	88.49	0.010	-1.630	2.460	88.43	-3.00	2.80	 	 	 	 	 	 	 	 	 	 	 	 	 	 	 	 	 	 	1581524728	1.17	2.17
12/02/2020 16:25:29	120220	12022020	162529	88.63	12.419145	-56.989448	88.70	0.470	-1.550	1.690	88.63	-2.90	2.10	 	 	 	 	 	 	 	 	 	 	 	 	 	 	 	 	 	 	1581524729	1.09	2.02
12/02/2020 16:25:30	120220	12022020	162530	89.04	12.419152	-56.989450	89.10	0.550	-0.490	0.820	89.04	-1.80	1.20	 	 	 	 	 	 	 	 	 	 	 	 	 	 	 	 	 	 	1581524730	1.30	2.41
12/02/2020 16:25:31	120220	12022020	162531	89.56	12.419155	-56.989455	89.60	0.140	0.700	0.230	89.56	-0.70	0.60	 	 	 	 	 	 	 	 	 	 	 	 	 	 	 	 	 	 	1581524731	1.34	2.48
12/02/2020 16:25:32	120220	12022020	162532	89.96	12.419155	-56.989460	89.99	-0.400	1.150	0.040	89.96	-0.20	0.50	 	 	 	 	 	 	 	 	 	 	 	 	 	 	 	 	 	 	1581524732	0.89	1.65
12/02/2020 16:25:33	120220	12022020	162533	89.94	12.419153	-56.989460	89.94	-0.610	0.700	0.250	89.94	-0.70	0.70	 	 	 	 	 	 	 	 	 	 	 	 	 	 	 	 	 	 	1581524733	0.59	1.09
12/02/2020 16:25:34	120220	12022020	162534	89.45	12.419148	-56.989458	89.42	-0.340	-0.190	0.680	89.45	-1.60	1.10	 	 	 	 	 	 	 	 	 	 	 	 	 	 	 	 	 	 	1581524734	0.93	1.72
12/02/2020 16:25:35	120220	12022020	162535	88.93	12.419147	-56.989455	88.81	0.120	-0.920	1.080	88.82	-2.30	1.50	 	 	 	 	 	 	 	 	 	 	 	 	 	 	 	 	 	 	1581524735	0.81	1.50
12/02/2020 16:25:36	120220	12022020	162536	88.48	12.419147	-56.989453	88.53	0.460	-1.170	1.260	88.48	-2.50	1.70	 	 	 	 	 	 	 	 	 	 	 	 	 	 	 	 	 	 	1581524736	0.41	0.76
12/02/2020 16:25:37	120220	12022020	162537	88.67	12.419150	-56.989452	88.75	0.520	-1.040	1.040	88.67	-2.40	1.40	 	 	 	 	 	 	 	 	 	 	 	 	 	 	 	 	 	 	1581524737	0.51	0.94
12/02/2020 16:25:38	120220	12022020	162538	89.12	12.419153	-56.989452	89.19	0.370	-0.790	0.540	89.12	-2.20	0.90	 	 	 	 	 	 	 	 	 	 	 	 	 	 	 	 	 	 	1581524738	0.86	1.59
12/02/2020 16:25:39	120220	12022020	162539	89.43	12.419157	-56.989452	89.48	0.190	-0.400	0.360	89.43	-1.80	0.80	 	 	 	 	 	 	 	 	 	 	 	 	 	 	 	 	 	 	1581524739	0.77	1.43
12/02/2020 16:25:40	120220	12022020	162540	89.53	12.419157	-56.989452	89.58	-0.010	0.290	0.710	89.53	-1.10	1.10	 	 	 	 	 	 	 	 	 	 	 	 	 	 	 	 	 	 	1581524740	0.12	0.22
12/02/2020 16:25:41	120220	12022020	162541	89.62	12.419153	-56.989455	89.68	-0.290	1.140	1.130	89.62	-0.20	1.50	 	 	 	 	 	 	 	 	 	 	 	 	 	 	 	 	 	 	1581524741	1.01	1.87
12/02/2020 16:25:42	120220	12022020	162542	89.71	12.419148	-56.989458	89.77	-0.590	1.510	1.330	89.71	0.10	1.70	 	 	 	 	 	 	 	 	 	 	 	 	 	 	 	 	 	 	1581524742	1.15	2.13
12/02/2020 16:25:43	120220	12022020	162543	89.63	12.419147	-56.989460	89.66	-0.700	0.880	1.480	89.63	-0.50	1.90	 	 	 	 	 	 	 	 	 	 	 	 	 	 	 	 	 	 	1581524743	0.55	1.02
12/02/2020 16:25:44	120220	12022020	162544	89.36	12.419147	-56.989457	89.38	-0.390	-0.570	1.590	89.36	-2.00	2.00	 	 	 	 	 	 	 	 	 	 	 	 	 	 	 	 	 	 	1581524744	0.54	1.00
12/02/2020 16:25:45	120220	12022020	162545	89.15	12.419147	-56.989452	89.19	0.290	-2.080	1.430	89.15	-3.50	1.80	 	 	 	 	 	 	 	 	 	 	 	 	 	 	 	 	 	 	1581524745	1.22	2.26
12/02/2020 16:25:46	120220	12022020	162546	89.03	12.419150	-56.989447	89.07	0.990	-2.690	1.130	89.03	-4.00	1.50	 	 	 	 	 	 	 	 	 	 	 	 	 	 	 	 	 	 	1581524746	1.34	2.48
12/02/2020 16:25:47	120220	12022020	162547	89.03	12.419153	-56.989443	89.09	1.180	-1.810	0.730	89.06	-3.10	1.10	 	 	 	 	 	 	 	 	 	 	 	 	 	 	 	 	 	 	1581524747	0.82	1.52
12/02/2020 16:25:48	120220	12022020	162548	89.38	12.419157	-56.989448	89.42	0.620	0.210	0.220	89.38	-1.10	0.60	 	 	 	 	 	 	 	 	 	 	 	 	 	 	 	 	 	 	1581524748	1.15	2.13
12/02/2020 16:25:49	120220	12022020	162549	89.82	12.419158	-56.989457	89.84	-0.390	2.070	-0.130	89.82	0.70	0.30	 	 	 	 	 	 	 	 	 	 	 	 	 	 	 	 	 	 	1581524749	1.81	3.35
12/02/2020 16:25:50	120220	12022020	162550	90.02	12.419158	-56.989462	90.02	-1.220	2.500	0.120	90.02	1.10	0.60	 	 	 	 	 	 	 	 	 	 	 	 	 	 	 	 	 	 	1581524750	1.29	2.39
12/02/2020 16:25:51	120220	12022020	162551	89.88	12.419155	-56.989463	89.88	-1.320	1.350	0.850	89.88	-0.10	1.30	 	 	 	 	 	 	 	 	 	 	 	 	 	 	 	 	 	 	1581524751	0.86	1.59
12/02/2020 16:25:52	120220	12022020	162552	89.54	12.419150	-56.989458	89.57	-0.640	-0.510	1.570	89.54	-1.90	2.00	 	 	 	 	 	 	 	 	 	 	 	 	 	 	 	 	 	 	1581524752	1.56	2.89
12/02/2020 16:25:53	120220	12022020	162553	89.28	12.419145	-56.989452	89.32	0.350	-2.010	2.100	89.28	-3.40	2.50	 	 	 	 	 	 	 	 	 	 	 	 	 	 	 	 	 	 	1581524753	1.50	2.78
12/02/2020 16:25:54	120220	12022020	162554	89.15	12.419143	-56.989448	89.21	0.990	-2.420	2.440	89.15	-3.80	2.90	 	 	 	 	 	 	 	 	 	 	 	 	 	 	 	 	 	 	1581524754	0.83	1.54
12/02/2020 16:25:55	120220	12022020	162555	89.19	12.419143	-56.989448	89.26	0.970	-1.630	2.480	89.19	-3.00	2.90	 	 	 	 	 	 	 	 	 	 	 	 	 	 	 	 	 	 	1581524755	0.10	0.19
12/02/2020 16:25:56	120220	12022020	162556	89.32	12.419145	-56.989452	89.38	0.450	-0.290	2.160	89.32	-1.60	2.60	 	 	 	 	 	 	 	 	 	 	 	 	 	 	 	 	 	 	1581524756	0.85	1.57
12/02/2020 16:25:57	120220	12022020	162557	89.37	12.419147	-56.989457	89.42	-0.120	0.800	1.730	89.37	-0.60	2.10	 	 	 	 	 	 	 	 	 	 	 	 	 	 	 	 	 	 	1581524757	1.02	1.89
12/02/2020 16:25:58	120220	12022020	162558	89.31	12.419148	-56.989458	89.34	-0.350	1.030	1.360	89.31	-0.40	1.80	 	 	 	 	 	 	 	 	 	 	 	 	 	 	 	 	 	 	1581524758	0.52	0.96
12/02/2020 16:25:59	120220	12022020	162559	89.29	12.419150	-56.989457	89.30	-0.240	0.420	0.910	89.29	-1.00	1.30	 	 	 	 	 	 	 	 	 	 	 	 	 	 	 	 	 	 	1581524759	0.51	0.94
12/02/2020 16:26:00	120220	12022020	162600	89.36	12.419152	-56.989452	89.38	-0.060	-0.280	0.280	89.36	-1.70	0.70	 	 	 	 	 	 	 	 	 	 	 	 	 	 	 	 	 	 	1581524760	1.02	1.89
12/02/2020 16:26:01	120220	12022020	162601	89.43	12.419155	-56.989450	89.44	-0.100	-0.280	-0.390	89.45	-1.60	0.00	 	 	 	 	 	 	 	 	 	 	 	 	 	 	 	 	 	 	1581524761	0.78	1.44
12/02/2020 16:26:02	120220	12022020	162602	89.52	12.419158	-56.989452	89.51	-0.330	0.300	-0.790	89.52	-1.10	-0.40	1016.30	26.70	26.70	20.00	20.00	737.0	66.0	66.0	436.0	29.5	356.00	9.80	85.00	9.40	57876	11388.0	27.5	27.5	1581524762	0.82	1.52
12/02/2020 16:26:03	120220	12022020	162603	89.55	12.419158	-56.989457	89.54	-0.510	0.640	-0.650	89.55	-0.80	-0.20	 	 	 	 	 	 	 	 	 	 	 	 	 	 	 	 	 	 	1581524763	1.02	1.89
12/02/2020 16:26:04	120220	12022020	162604	89.42	12.419157	-56.989460	89.42	-0.400	0.140	-0.010	89.42	-1.30	0.40	 	 	 	 	 	 	 	 	 	 	 	 	 	 	 	 	 	 	1581524764	0.61	1.13
12/02/2020 16:26:05	120220	12022020	162605	89.09	12.419155	-56.989457	89.08	0.010	-1.020	0.840	89.09	-2.40	1.30	 	 	 	 	 	 	 	 	 	 	 	 	 	 	 	 	 	 	1581524765	0.83	1.54
12/02/2020 16:26:06	120220	12022020	162606	88.74	12.419152	-56.989452	88.76	0.510	-1.990	1.620	88.74	-3.40	2.10	 	 	 	 	 	 	 	 	 	 	 	 	 	 	 	 	 	 	1581524766	1.31	2.43
12/02/2020 16:26:07	120220	12022020	162607	88.78	12.419148	-56.989448	88.85	0.800	-1.960	2.050	88.78	-3.30	2.50	 	 	 	 	 	 	 	 	 	 	 	 	 	 	 	 	 	 	1581524767	1.03	1.91
12/02/2020 16:26:08	120220	12022020	162608	89.25	12.419147	-56.989448	89.34	0.700	-0.780	2.180	89.25	-2.10	2.60	 	 	 	 	 	 	 	 	 	 	 	 	 	 	 	 	 	 	1581524768	0.51	0.94
12/02/2020 16:26:09	120220	12022020	162609	89.70	12.419143	-56.989453	89.78	0.220	0.840	2.040	89.70	-0.50	2.40	 	 	 	 	 	 	 	 	 	 	 	 	 	 	 	 	 	 	1581524769	1.11	2.06
12/02/2020 16:26:10	120220	12022020	162610	89.79	12.419143	-56.989458	89.82	-0.370	1.810	1.700	89.79	0.40	2.10	 	 	 	 	 	 	 	 	 	 	 	 	 	 	 	 	 	 	1581524770	1.21	2.24
12/02/2020 16:26:11	120220	12022020	162611	89.50	12.419145	-56.989462	89.50	-0.740	1.580	1.270	89.50	0.20	1.70	 	 	 	 	 	 	 	 	 	 	 	 	 	 	 	 	 	 	1581524771	0.59	1.09
12/02/2020 16:26:12	120220	12022020	162612	89.04	12.419147	-56.989460	89.04	-0.700	0.340	0.890	89.04	-1.10	1.30	 	 	 	 	 	 	 	 	 	 	 	 	 	 	 	 	 	 	1581524772	0.56	1.04
12/02/2020 16:26:13	120220	12022020	162613	88.74	12.419148	-56.989455	88.75	-0.270	-1.090	0.450	88.74	-2.50	0.90	 	 	 	 	 	 	 	 	 	 	 	 	 	 	 	 	 	 	1581524773	1.12	2.07
12/02/2020 16:26:14	120220	12022020	162614	88.73	12.419152	-56.989450	88.73	0.220	-1.700	-0.190	88.73	-3.10	0.20	 	 	 	 	 	 	 	 	 	 	 	 	 	 	 	 	 	 	1581524774	1.10	2.04
12/02/2020 16:26:15	120220	12022020	162615	88.93	12.419157	-56.989450	88.91	0.420	-1.140	-0.900	88.93	-2.50	-0.50	 	 	 	 	 	 	 	 	 	 	 	 	 	 	 	 	 	 	1581524775	1.04	1.93
12/02/2020 16:26:16	120220	12022020	162616	89.17	12.419162	-56.989455	89.14	0.240	-0.050	-1.270	89.17	-1.40	-0.80	 	 	 	 	 	 	 	 	 	 	 	 	 	 	 	 	 	 	1581524776	1.45	2.69
12/02/2020 16:26:17	120220	12022020	162617	89.25	12.419162	-56.989460	89.22	-0.120	0.500	-0.920	89.25	-0.90	-0.50	 	 	 	 	 	 	 	 	 	 	 	 	 	 	 	 	 	 	1581524777	1.09	2.02
12/02/2020 16:26:18	120220	12022020	162618	89.12	12.419158	-56.989462	89.11	-0.300	0.080	0.160	89.12	-1.30	0.60	 	 	 	 	 	 	 	 	 	 	 	 	 	 	 	 	 	 	1581524778	0.90	1.67
12/02/2020 16:26:19	120220	12022020	162619	88.86	12.419150	-56.989457	88.89	-0.100	-0.710	1.470	88.86	-2.10	1.90	 	 	 	 	 	 	 	 	 	 	 	 	 	 	 	 	 	 	1581524779	1.91	3.54
12/02/2020 16:26:20	120220	12022020	162620	88.70	12.419143	-56.989453	88.77	0.250	-0.870	2.430	88.70	-2.20	2.90	 	 	 	 	 	 	 	 	 	 	 	 	 	 	 	 	 	 	1581524780	1.70	3.15
12/02/2020 16:26:21	120220	12022020	162621	88.77	12.419140	-56.989453	88.85	0.390	-0.300	2.790	88.77	-1.60	3.20	 	 	 	 	 	 	 	 	 	 	 	 	 	 	 	 	 	 	1581524781	0.65	1.20
12/02/2020 16:26:22	120220	12022020	162622	89.01	12.419140	-56.989457	89.08	0.200	0.290	2.690	89.01	-1.10	3.10	 	 	 	 	 	 	 	 	 	 	 	 	 	 	 	 	 	 	1581524782	0.65	1.20
12/02/2020 16:26:23	120220	12022020	162623	89.16	12.419140	-56.989458	89.22	-0.090	0.400	2.460	89.18	-1.00	2.90	 	 	 	 	 	 	 	 	 	 	 	 	 	 	 	 	 	 	1581524783	0.41	0.76
12/02/2020 16:26:24	120220	12022020	162624	89.07	12.419140	-56.989458	89.10	-0.290	0.190	2.160	89.07	-1.20	2.60	 	 	 	 	 	 	 	 	 	 	 	 	 	 	 	 	 	 	1581524784	0.20	0.37
12/02/2020 16:26:25	120220	12022020	162625	88.80	12.419140	-56.989457	88.81	-0.340	0.070	1.600	88.80	-1.30	2.00	 	 	 	 	 	 	 	 	 	 	 	 	 	 	 	 	 	 	1581524785	0.15	0.28
12/02/2020 16:26:26	120220	12022020	162626	88.66	12.419143	-56.989458	88.67	-0.320	0.110	0.740	88.66	-1.30	1.10	 	 	 	 	 	 	 	 	 	 	 	 	 	 	 	 	 	 	1581524786	0.75	1.39
12/02/2020 16:26:27	120220	12022020	162627	88.78	12.419148	-56.989460	88.77	-0.250	-0.010	-0.210	88.78	-1.40	0.20	 	 	 	 	 	 	 	 	 	 	 	 	 	 	 	 	 	 	1581524787	1.25	2.31
12/02/2020 16:26:28	120220	12022020	162628	88.98	12.419155	-56.989462	88.97	-0.030	-0.590	-0.960	88.98	-2.00	-0.50	 	 	 	 	 	 	 	 	 	 	 	 	 	 	 	 	 	 	1581524788	1.26	2.33
12/02/2020 16:26:29	120220	12022020	162629	89.01	12.419158	-56.989458	88.96	0.390	-1.480	-1.210	89.01	-2.90	-0.80	 	 	 	 	 	 	 	 	 	 	 	 	 	 	 	 	 	 	1581524789	1.01	1.87
12/02/2020 16:26:30	120220	12022020	162630	88.91	12.419158	-56.989453	88.90	0.740	-1.900	-0.940	88.91	-3.30	-0.50	 	 	 	 	 	 	 	 	 	 	 	 	 	 	 	 	 	 	1581524790	1.05	1.94
12/02/2020 16:26:31	120220	12022020	162631	88.96	12.419155	-56.989452	88.97	0.690	-1.090	-0.180	88.96	-2.40	0.30	 	 	 	 	 	 	 	 	 	 	 	 	 	 	 	 	 	 	1581524791	0.73	1.35
12/02/2020 16:26:32	120220	12022020	162632	89.26	12.419152	-56.989455	89.31	0.200	0.650	0.810	89.26	-0.70	1.30	 	 	 	 	 	 	 	 	 	 	 	 	 	 	 	 	 	 	1581524792	1.38	2.56
12/02/2020 16:26:33	120220	12022020	162633	89.69	12.419145	-56.989463	89.76	-0.450	2.080	1.700	89.69	0.70	2.10	 	 	 	 	 	 	 	 	 	 	 	 	 	 	 	 	 	 	1581524793	2.07	3.83
12/02/2020 16:26:34	120220	12022020	162634	90.03	12.419140	-56.989468	90.09	-0.870	2.130	2.270	90.03	0.70	2.70	 	 	 	 	 	 	 	 	 	 	 	 	 	 	 	 	 	 	1581524794	1.59	2.94
12/02/2020 16:26:35	120220	12022020	162635	90.13	12.419137	-56.989468	90.18	-0.860	0.830	2.610	90.13	-0.60	3.00	 	 	 	 	 	 	 	 	 	 	 	 	 	 	 	 	 	 	1581524795	0.84	1.56
12/02/2020 16:26:36	120220	12022020	162636	90.08	12.419133	-56.989463	90.14	-0.460	-0.940	2.850	90.08	-2.40	3.30	 	 	 	 	 	 	 	 	 	 	 	 	 	 	 	 	 	 	1581524796	1.18	2.19
12/02/2020 16:26:37	120220	12022020	162637	90.04	12.419130	-56.989460	90.10	0.100	-2.110	2.880	90.04	-3.50	3.30	 	 	 	 	 	 	 	 	 	 	 	 	 	 	 	 	 	 	1581524797	1.05	1.94
12/02/2020 16:26:38	120220	12022020	162638	90.03	12.419130	-56.989458	90.08	0.580	-2.250	2.540	90.03	-3.60	2.90	 	 	 	 	 	 	 	 	 	 	 	 	 	 	 	 	 	 	1581524798	0.30	0.56
12/02/2020 16:26:39	120220	12022020	162639	90.02	12.419133	-56.989458	90.05	0.850	-1.690	1.850	90.02	-3.00	2.30	 	 	 	 	 	 	 	 	 	 	 	 	 	 	 	 	 	 	1581524799	0.59	1.09
12/02/2020 16:26:40	120220	12022020	162640	90.01	12.419137	-56.989460	90.03	0.850	-0.730	1.020	90.01	-2.10	1.40	 	 	 	 	 	 	 	 	 	 	 	 	 	 	 	 	 	 	1581524800	0.95	1.76
12/02/2020 16:26:41	120220	12022020	162641	90.03	12.419142	-56.989463	90.04	0.550	0.470	0.200	90.03	-0.90	0.60	 	 	 	 	 	 	 	 	 	 	 	 	 	 	 	 	 	 	1581524801	1.10	2.04
12/02/2020 16:26:42	120220	12022020	162642	90.15	12.419147	-56.989467	90.15	0.000	1.480	-0.520	90.15	0.10	-0.10	 	 	 	 	 	 	 	 	 	 	 	 	 	 	 	 	 	 	1581524802	1.22	2.26
12/02/2020 16:26:43	120220	12022020	162643	90.37	12.419150	-56.989470	90.37	-0.520	1.770	-0.980	90.37	0.40	-0.50	 	 	 	 	 	 	 	 	 	 	 	 	 	 	 	 	 	 	1581524803	1.06	1.96
12/02/2020 16:26:44	120220	12022020	162644	90.63	12.419153	-56.989470	90.61	-0.750	1.170	-1.150	90.63	-0.20	-0.70	 	 	 	 	 	 	 	 	 	 	 	 	 	 	 	 	 	 	1581524804	0.56	1.04
12/02/2020 16:26:45	120220	12022020	162645	90.84	12.419153	-56.989468	90.82	-0.660	-0.040	-0.980	90.84	-1.40	-0.50	 	 	 	 	 	 	 	 	 	 	 	 	 	 	 	 	 	 	1581524805	0.45	0.83
12/02/2020 16:26:46	120220	12022020	162646	90.91	12.419150	-56.989465	90.89	-0.470	-1.160	-0.130	90.91	-2.60	0.40	 	 	 	 	 	 	 	 	 	 	 	 	 	 	 	 	 	 	1581524806	0.91	1.69
12/02/2020 16:26:47	120220	12022020	162647	90.78	12.419143	-56.989463	90.77	-0.270	-1.680	1.340	90.78	-3.00	1.80	 	 	 	 	 	 	 	 	 	 	 	 	 	 	 	 	 	 	1581524807	1.73	3.20
12/02/2020 16:26:48	120220	12022020	162648	90.56	12.419133	-56.989463	90.58	0.020	-1.620	2.670	90.56	-3.00	3.10	 	 	 	 	 	 	 	 	 	 	 	 	 	 	 	 	 	 	1581524808	2.15	3.98
12/02/2020 16:26:49	120220	12022020	162649	90.41	12.419125	-56.989465	90.41	0.480	-1.250	3.290	90.38	-2.60	3.70	 	 	 	 	 	 	 	 	 	 	 	 	 	 	 	 	 	 	1581524809	1.54	2.85
12/02/2020 16:26:50	120220	12022020	162650	90.18	12.419123	-56.989465	90.20	0.820	-0.580	3.320	90.18	-1.90	3.70	 	 	 	 	 	 	 	 	 	 	 	 	 	 	 	 	 	 	1581524810	0.48	0.89
12/02/2020 16:26:51	120220	12022020	162651	90.07	12.419125	-56.989467	90.10	0.700	0.330	2.900	90.07	-1.00	3.30	 	 	 	 	 	 	 	 	 	 	 	 	 	 	 	 	 	 	1581524811	0.42	0.78
12/02/2020 16:26:52	120220	12022020	162652	90.25	12.419128	-56.989468	90.30	0.130	1.190	1.910	90.25	-0.20	2.30	 	 	 	 	 	 	 	 	 	 	 	 	 	 	 	 	 	 	1581524812	1.01	1.87
12/02/2020 16:26:53	120220	12022020	162653	90.73	12.419135	-56.989472	90.77	-0.450	1.550	0.350	90.73	0.20	0.70	 	 	 	 	 	 	 	 	 	 	 	 	 	 	 	 	 	 	1581524813	1.58	2.93
12/02/2020 16:26:54	120220	12022020	162654	91.14	12.419143	-56.989473	91.13	-0.570	0.890	-1.070	91.14	-0.50	-0.70	 	 	 	 	 	 	 	 	 	 	 	 	 	 	 	 	 	 	1581524814	1.83	3.39
12/02/2020 16:26:55	120220	12022020	162655	91.12	12.419150	-56.989470	91.07	-0.180	-0.660	-1.630	91.12	-2.10	-1.20	 	 	 	 	 	 	 	 	 	 	 	 	 	 	 	 	 	 	1581524815	1.59	2.94
12/02/2020 16:26:56	120220	12022020	162656	90.78	12.419152	-56.989463	90.73	0.280	-1.940	-1.310	90.78	-3.30	-0.80	 	 	 	 	 	 	 	 	 	 	 	 	 	 	 	 	 	 	1581524816	1.40	2.59
12/02/2020 16:26:57	120220	12022020	162657	90.55	12.419150	-56.989462	90.53	0.350	-1.840	-0.510	90.55	-3.20	-0.00	 	 	 	 	 	 	 	 	 	 	 	 	 	 	 	 	 	 	1581524817	0.89	1.65
12/02/2020 16:26:58	120220	12022020	162658	90.60	12.419143	-56.989465	90.61	-0.010	-0.530	0.440	90.60	-1.80	0.90	 	 	 	 	 	 	 	 	 	 	 	 	 	 	 	 	 	 	1581524818	1.41	2.61
12/02/2020 16:26:59	120220	12022020	162659	90.76	12.419138	-56.989472	90.80	-0.440	0.810	1.360	90.76	-0.50	1.80	 	 	 	 	 	 	 	 	 	 	 	 	 	 	 	 	 	 	1581524819	2.03	3.76
12/02/2020 16:27:00	120220	12022020	162700	90.99	12.419132	-56.989477	91.05	-0.650	1.180	2.070	90.99	-0.20	2.50	 	 	 	 	 	 	 	 	 	 	 	 	 	 	 	 	 	 	1581524820	1.68	3.11
12/02/2020 16:27:01	120220	12022020	162701	91.23	12.419127	-56.989477	91.33	-0.540	0.450	2.420	91.28	-1.00	2.80	 	 	 	 	 	 	 	 	 	 	 	 	 	 	 	 	 	 	1581524821	1.14	2.11
12/02/2020 16:27:02	120220	12022020	162702	91.39	12.419122	-56.989472	91.45	-0.120	-0.680	2.510	91.39	-2.10	2.90	1016.30	26.60	26.70	20.10	20.20	727.0	67.0	67.0	436.0	29.5	354.00	10.40	84.00	9.90	57135	10451.0	27.5	27.5	1581524822	1.15	2.13
12/02/2020 16:27:03	120220	12022020	162703	91.19	12.419122	-56.989467	91.21	0.460	-1.310	2.390	91.19	-2.70	2.80	 	 	 	 	 	 	 	 	 	 	 	 	 	 	 	 	 	 	1581524823	0.95	1.76
12/02/2020 16:27:04	120220	12022020	162704	90.82	12.419123	-56.989467	90.86	0.890	-1.040	2.040	90.82	-2.40	2.50	 	 	 	 	 	 	 	 	 	 	 	 	 	 	 	 	 	 	1581524824	0.62	1.15
12/02/2020 16:27:05	120220	12022020	162705	90.64	12.419128	-56.989468	90.69	0.850	-0.250	1.470	90.64	-1.60	1.90	 	 	 	 	 	 	 	 	 	 	 	 	 	 	 	 	 	 	1581524825	1.17	2.17
12/02/2020 16:27:06	120220	12022020	162706	90.84	12.419135	-56.989472	90.89	0.320	0.410	0.740	90.84	-0.90	1.20	 	 	 	 	 	 	 	 	 	 	 	 	 	 	 	 	 	 	1581524826	1.42	2.63
12/02/2020 16:27:07	120220	12022020	162707	91.39	12.419140	-56.989473	91.43	-0.380	0.680	0.030	91.39	-0.70	0.50	 	 	 	 	 	 	 	 	 	 	 	 	 	 	 	 	 	 	1581524827	1.11	2.06
12/02/2020 16:27:08	120220	12022020	162708	92.05	12.419142	-56.989473	92.07	-0.850	0.640	-0.360	92.05	-0.70	0.10	 	 	 	 	 	 	 	 	 	 	 	 	 	 	 	 	 	 	1581524828	0.44	0.81
12/02/2020 16:27:09	120220	12022020	162709	92.44	12.419140	-56.989475	92.41	-0.790	0.220	-0.250	92.44	-1.20	0.20	 	 	 	 	 	 	 	 	 	 	 	 	 	 	 	 	 	 	1581524829	0.46	0.85
12/02/2020 16:27:10	120220	12022020	162710	92.30	12.419135	-56.989473	92.24	-0.270	-0.560	0.400	92.30	-1.90	0.90	 	 	 	 	 	 	 	 	 	 	 	 	 	 	 	 	 	 	1581524830	1.07	1.98
12/02/2020 16:27:11	120220	12022020	162711	91.81	12.419128	-56.989470	91.76	0.360	-1.330	1.410	91.81	-2.70	1.90	 	 	 	 	 	 	 	 	 	 	 	 	 	 	 	 	 	 	1581524831	1.37	2.54
12/02/2020 16:27:12	120220	12022020	162712	91.32	12.419123	-56.989467	91.32	0.640	-1.490	2.430	91.32	-2.80	2.90	 	 	 	 	 	 	 	 	 	 	 	 	 	 	 	 	 	 	1581524832	1.27	2.35
12/02/2020 16:27:13	120220	12022020	162713	91.12	12.419120	-56.989467	91.16	0.360	-0.730	3.010	91.10	-2.00	3.40	 	 	 	 	 	 	 	 	 	 	 	 	 	 	 	 	 	 	1581524833	0.75	1.39
12/02/2020 16:27:14	120220	12022020	162714	91.31	12.419120	-56.989472	91.39	-0.200	0.510	2.770	91.31	-0.80	3.20	 	 	 	 	 	 	 	 	 	 	 	 	 	 	 	 	 	 	1581524834	0.84	1.56
12/02/2020 16:27:15	120220	12022020	162715	91.84	12.419123	-56.989477	91.92	-0.550	1.280	1.780	91.84	-0.10	2.20	 	 	 	 	 	 	 	 	 	 	 	 	 	 	 	 	 	 	1581524835	1.25	2.31
12/02/2020 16:27:16	120220	12022020	162716	92.43	12.419128	-56.989478	92.45	-0.410	0.990	0.590	92.43	-0.40	1.00	 	 	 	 	 	 	 	 	 	 	 	 	 	 	 	 	 	 	1581524836	1.24	2.30
12/02/2020 16:27:17	120220	12022020	162717	92.76	12.419133	-56.989475	92.76	0.090	-0.110	-0.150	92.76	-1.50	0.30	 	 	 	 	 	 	 	 	 	 	 	 	 	 	 	 	 	 	1581524837	1.26	2.33
12/02/2020 16:27:18	120220	12022020	162718	92.80	12.419137	-56.989470	92.75	0.520	-1.100	-0.300	92.80	-2.50	0.20	 	 	 	 	 	 	 	 	 	 	 	 	 	 	 	 	 	 	1581524838	1.17	2.17
12/02/2020 16:27:19	120220	12022020	162719	92.57	12.419137	-56.989468	92.51	0.580	-1.310	-0.070	92.57	-2.70	0.40	 	 	 	 	 	 	 	 	 	 	 	 	 	 	 	 	 	 	1581524839	0.54	1.00
12/02/2020 16:27:20	120220	12022020	162720	92.14	12.419135	-56.989468	92.07	0.320	-0.920	0.400	92.14	-2.30	0.90	 	 	 	 	 	 	 	 	 	 	 	 	 	 	 	 	 	 	1581524840	0.26	0.48
12/02/2020 16:27:21	120220	12022020	162721	91.79	12.419133	-56.989470	91.76	-0.030	-0.330	0.920	91.79	-1.70	1.40	 	 	 	 	 	 	 	 	 	 	 	 	 	 	 	 	 	 	1581524841	0.56	1.04
12/02/2020 16:27:22	120220	12022020	162722	91.80	12.419132	-56.989472	91.81	-0.300	0.320	1.330	91.80	-1.00	1.80	 	 	 	 	 	 	 	 	 	 	 	 	 	 	 	 	 	 	1581524842	0.61	1.13
12/02/2020 16:27:23	120220	12022020	162723	92.19	12.419130	-56.989475	92.24	-0.470	0.850	1.550	92.19	-0.50	2.00	 	 	 	 	 	 	 	 	 	 	 	 	 	 	 	 	 	 	1581524843	0.63	1.17
12/02/2020 16:27:24	120220	12022020	162724	92.82	12.419128	-56.989477	92.88	-0.530	0.790	1.400	92.82	-0.60	1.80	 	 	 	 	 	 	 	 	 	 	 	 	 	 	 	 	 	 	1581524844	0.45	0.83
12/02/2020 16:27:25	120220	12022020	162725	93.33	12.419128	-56.989475	93.35	-0.390	0.000	1.110	93.33	-1.40	1.50	 	 	 	 	 	 	 	 	 	 	 	 	 	 	 	 	 	 	1581524845	0.20	0.37
12/02/2020 16:27:26	120220	12022020	162726	93.30	12.419127	-56.989472	93.28	0.050	-1.030	1.180	93.30	-2.40	1.60	 	 	 	 	 	 	 	 	 	 	 	 	 	 	 	 	 	 	1581524846	0.88	1.63
12/02/2020 16:27:27	120220	12022020	162727	92.90	12.419123	-56.989468	92.75	0.640	-1.510	1.610	92.77	-2.90	2.00	 	 	 	 	 	 	 	 	 	 	 	 	 	 	 	 	 	 	1581524847	1.03	1.91
12/02/2020 16:27:28	120220	12022020	162728	92.11	12.419122	-56.989467	92.10	0.960	-1.080	1.960	92.11	-2.40	2.40	 	 	 	 	 	 	 	 	 	 	 	 	 	 	 	 	 	 	1581524848	0.35	0.65
12/02/2020 16:27:29	120220	12022020	162729	91.94	12.419125	-56.989470	91.98	0.670	-0.020	1.730	91.94	-1.30	2.10	 	 	 	 	 	 	 	 	 	 	 	 	 	 	 	 	 	 	1581524849	0.74	1.37
12/02/2020 16:27:30	120220	12022020	162730	92.37	12.419130	-56.989473	92.43	-0.130	0.950	0.990	92.37	-0.40	1.40	 	 	 	 	 	 	 	 	 	 	 	 	 	 	 	 	 	 	1581524850	1.49	2.76
12/02/2020 16:27:31	120220	12022020	162731	92.90	12.419135	-56.989477	92.93	-0.860	1.150	0.310	92.90	-0.20	0.70	 	 	 	 	 	 	 	 	 	 	 	 	 	 	 	 	 	 	1581524851	1.30	2.41
12/02/2020 16:27:32	120220	12022020	162732	93.26	12.419137	-56.989477	93.25	-1.010	0.430	-0.010	93.26	-1.00	0.40	 	 	 	 	 	 	 	 	 	 	 	 	 	 	 	 	 	 	1581524852	0.27	0.50
12/02/2020 16:27:33	120220	12022020	162733	93.45	12.419133	-56.989473	93.44	-0.510	-0.640	0.010	93.45	-2.00	0.40	 	 	 	 	 	 	 	 	 	 	 	 	 	 	 	 	 	 	1581524853	0.85	1.57
12/02/2020 16:27:34	120220	12022020	162734	93.38	12.419130	-56.989470	93.36	0.240	-1.310	0.380	93.38	-2.70	0.80	 	 	 	 	 	 	 	 	 	 	 	 	 	 	 	 	 	 	1581524854	1.12	2.07
12/02/2020 16:27:35	120220	12022020	162735	93.13	12.419127	-56.989470	93.11	0.690	-1.140	0.990	93.13	-2.50	1.40	 	 	 	 	 	 	 	 	 	 	 	 	 	 	 	 	 	 	1581524855	0.84	1.56
12/02/2020 16:27:36	120220	12022020	162736	92.90	12.419123	-56.989472	92.90	0.600	-0.340	1.530	92.90	-1.70	2.00	 	 	 	 	 	 	 	 	 	 	 	 	 	 	 	 	 	 	1581524856	0.78	1.44
12/02/2020 16:27:37	120220	12022020	162737	92.76	12.419123	-56.989475	92.77	0.180	0.350	1.770	92.76	-1.00	2.20	 	 	 	 	 	 	 	 	 	 	 	 	 	 	 	 	 	 	1581524857	0.85	1.57
12/02/2020 16:27:38	120220	12022020	162738	92.59	12.419123	-56.989478	92.61	-0.150	0.400	1.720	92.59	-1.00	2.20	 	 	 	 	 	 	 	 	 	 	 	 	 	 	 	 	 	 	1581524858	0.50	0.93
12/02/2020 16:27:39	120220	12022020	162739	92.48	12.419127	-56.989477	92.50	-0.170	-0.060	1.450	92.47	-1.40	1.90	 	 	 	 	 	 	 	 	 	 	 	 	 	 	 	 	 	 	1581524859	0.60	1.11
12/02/2020 16:27:40	120220	12022020	162740	92.58	12.419130	-56.989473	92.62	0.010	-0.480	1.000	92.58	-1.80	1.40	 	 	 	 	 	 	 	 	 	 	 	 	 	 	 	 	 	 	1581524860	0.83	1.54
12/02/2020 16:27:41	120220	12022020	162741	92.82	12.419132	-56.989473	92.93	0.100	-0.500	0.560	92.90	-1.80	1.00	 	 	 	 	 	 	 	 	 	 	 	 	 	 	 	 	 	 	1581524861	0.55	1.02
12/02/2020 16:27:42	120220	12022020	162742	93.21	12.419132	-56.989473	93.23	0.000	-0.190	0.290	93.21	-1.50	0.70	 	 	 	 	 	 	 	 	 	 	 	 	 	 	 	 	 	 	1581524862	0.22	0.41
12/02/2020 16:27:43	120220	12022020	162743	93.36	12.419132	-56.989475	93.36	-0.220	0.190	0.250	93.36	-1.20	0.70	 	 	 	 	 	 	 	 	 	 	 	 	 	 	 	 	 	 	1581524863	0.45	0.83
12/02/2020 16:27:44	120220	12022020	162744	93.32	12.419132	-56.989478	93.32	-0.380	0.440	0.390	93.32	-0.90	0.80	 	 	 	 	 	 	 	 	 	 	 	 	 	 	 	 	 	 	1581524864	0.60	1.11
12/02/2020 16:27:45	120220	12022020	162745	93.07	12.419128	-56.989480	93.06	-0.340	0.350	0.770	93.07	-1.00	1.20	 	 	 	 	 	 	 	 	 	 	 	 	 	 	 	 	 	 	1581524865	0.62	1.15
12/02/2020 16:27:46	120220	12022020	162746	92.62	12.419127	-56.989480	92.60	-0.040	-0.230	1.330	92.62	-1.60	1.80	 	 	 	 	 	 	 	 	 	 	 	 	 	 	 	 	 	 	1581524866	0.49	0.91
12/02/2020 16:27:47	120220	12022020	162747	92.13	12.419125	-56.989478	92.14	0.380	-1.040	1.810	92.13	-2.40	2.20	 	 	 	 	 	 	 	 	 	 	 	 	 	 	 	 	 	 	1581524867	0.58	1.07
12/02/2020 16:27:48	120220	12022020	162748	92.01	12.419127	-56.989475	92.06	0.670	-1.450	1.820	92.01	-2.80	2.20	 	 	 	 	 	 	 	 	 	 	 	 	 	 	 	 	 	 	1581524868	0.72	1.33
12/02/2020 16:27:49	120220	12022020	162749	92.30	12.419128	-56.989473	92.37	0.670	-1.180	1.430	92.30	-2.50	1.80	 	 	 	 	 	 	 	 	 	 	 	 	 	 	 	 	 	 	1581524869	0.67	1.24
12/02/2020 16:27:50	120220	12022020	162750	92.65	12.419132	-56.989475	92.71	0.370	-0.370	1.100	92.65	-1.70	1.50	 	 	 	 	 	 	 	 	 	 	 	 	 	 	 	 	 	 	1581524870	0.65	1.20
12/02/2020 16:27:51	120220	12022020	162751	92.83	12.419133	-56.989477	92.87	-0.170	0.600	1.060	92.83	-0.70	1.50	 	 	 	 	 	 	 	 	 	 	 	 	 	 	 	 	 	 	1581524871	0.65	1.20
12/02/2020 16:27:52	120220	12022020	162752	92.80	12.419132	-56.989482	92.82	-0.720	1.350	1.270	92.80	0.00	1.70	 	 	 	 	 	 	 	 	 	 	 	 	 	 	 	 	 	 	1581524872	0.93	1.72
12/02/2020 16:27:53	120220	12022020	162753	92.59	12.419128	-56.989485	92.62	-0.990	1.460	1.440	92.59	0.10	1.90	 	 	 	 	 	 	 	 	 	 	 	 	 	 	 	 	 	 	1581524873	0.89	1.65
12/02/2020 16:27:54	120220	12022020	162754	92.33	12.419127	-56.989487	92.36	-0.840	0.700	1.430	92.33	-0.70	1.90	 	 	 	 	 	 	 	 	 	 	 	 	 	 	 	 	 	 	1581524874	0.37	0.69
12/02/2020 16:27:55	120220	12022020	162755	92.15	12.419127	-56.989483	92.18	-0.300	-0.680	1.190	92.15	-2.10	1.60	 	 	 	 	 	 	 	 	 	 	 	 	 	 	 	 	 	 	1581524875	0.53	0.98
12/02/2020 16:27:56	120220	12022020	162756	92.02	12.419128	-56.989478	92.04	0.400	-1.960	0.870	92.02	-3.30	1.30	 	 	 	 	 	 	 	 	 	 	 	 	 	 	 	 	 	 	1581524876	1.02	1.89
12/02/2020 16:27:57	120220	12022020	162757	91.88	12.419130	-56.989475	91.89	0.990	-2.410	0.620	91.88	-3.70	1.10	 	 	 	 	 	 	 	 	 	 	 	 	 	 	 	 	 	 	1581524877	1.04	1.93
12/02/2020 16:27:58	120220	12022020	162758	91.80	12.419135	-56.989473	91.81	1.100	-1.630	0.460	91.80	-2.90	0.90	 	 	 	 	 	 	 	 	 	 	 	 	 	 	 	 	 	 	1581524878	0.86	1.59
12/02/2020 16:27:59	120220	12022020	162759	91.85	12.419138	-56.989477	91.87	0.590	0.040	0.520	91.85	-1.30	1.00	 	 	 	 	 	 	 	 	 	 	 	 	 	 	 	 	 	 	1581524879	1.09	2.02
12/02/2020 16:28:00	120220	12022020	162800	92.04	12.419138	-56.989485	92.07	-0.270	1.630	0.770	92.04	0.30	1.20	 	 	 	 	 	 	 	 	 	 	 	 	 	 	 	 	 	 	1581524880	1.45	2.69
12/02/2020 16:28:01	120220	12022020	162801	92.30	12.419137	-56.989490	92.33	-0.890	2.180	1.010	92.30	0.80	1.40	 	 	 	 	 	 	 	 	 	 	 	 	 	 	 	 	 	 	1581524881	1.25	2.31
12/02/2020 16:28:02	120220	12022020	162802	92.40	12.419133	-56.989490	92.43	-0.870	1.300	1.270	92.40	-0.10	1.70	1016.30	26.70	26.70	20.30	20.30	744.0	68.0	68.0	436.0	29.5	349.00	9.90	81.00	9.50	57987	9935.0	27.5	27.5	1581524882	0.66	1.22
12/02/2020 16:28:03	120220	12022020	162803	92.18	12.419130	-56.989487	92.19	-0.290	-0.460	1.640	92.18	-1.90	2.10	 	 	 	 	 	 	 	 	 	 	 	 	 	 	 	 	 	 	1581524883	1.18	2.19
12/02/2020 16:28:04	120220	12022020	162804	91.84	12.419128	-56.989480	91.86	0.290	-1.850	2.030	91.84	-3.20	2.50	 	 	 	 	 	 	 	 	 	 	 	 	 	 	 	 	 	 	1581524884	1.48	2.74
12/02/2020 16:28:05	120220	12022020	162805	91.71	12.419127	-56.989477	91.76	0.400	-1.880	2.240	91.71	-3.20	2.70	 	 	 	 	 	 	 	 	 	 	 	 	 	 	 	 	 	 	1581524885	0.69	1.28
12/02/2020 16:28:06	120220	12022020	162806	91.87	12.419125	-56.989480	91.94	0.060	-0.800	2.070	91.87	-2.10	2.50	 	 	 	 	 	 	 	 	 	 	 	 	 	 	 	 	 	 	1581524886	0.68	1.26
12/02/2020 16:28:07	120220	12022020	162807	92.08	12.419127	-56.989485	92.13	-0.270	0.190	1.590	92.08	-1.20	2.00	 	 	 	 	 	 	 	 	 	 	 	 	 	 	 	 	 	 	1581524887	1.19	2.20
12/02/2020 16:28:08	120220	12022020	162808	92.04	12.419128	-56.989487	92.05	-0.190	0.260	1.190	92.04	-1.10	1.60	 	 	 	 	 	 	 	 	 	 	 	 	 	 	 	 	 	 	1581524888	0.58	1.07
12/02/2020 16:28:09	120220	12022020	162809	91.84	12.419130	-56.989485	91.84	0.180	-0.170	0.870	91.84	-1.60	1.30	 	 	 	 	 	 	 	 	 	 	 	 	 	 	 	 	 	 	1581524889	0.77	1.43
12/02/2020 16:28:10	120220	12022020	162810	91.81	12.419133	-56.989480	91.81	0.410	-0.250	0.410	91.81	-1.60	0.80	 	 	 	 	 	 	 	 	 	 	 	 	 	 	 	 	 	 	1581524890	0.92	1.70
12/02/2020 16:28:11	120220	12022020	162811	91.92	12.419137	-56.989482	91.93	0.250	0.350	-0.050	91.92	-1.00	0.40	 	 	 	 	 	 	 	 	 	 	 	 	 	 	 	 	 	 	1581524891	0.63	1.17
12/02/2020 16:28:12	120220	12022020	162812	91.95	12.419138	-56.989485	91.92	-0.120	0.900	-0.270	91.95	-0.50	0.20	 	 	 	 	 	 	 	 	 	 	 	 	 	 	 	 	 	 	1581524892	1.02	1.89
12/02/2020 16:28:13	120220	12022020	162813	91.79	12.419140	-56.989487	91.76	-0.300	0.490	-0.060	91.79	-0.90	0.40	 	 	 	 	 	 	 	 	 	 	 	 	 	 	 	 	 	 	1581524893	0.57	1.06
12/02/2020 16:28:14	120220	12022020	162814	91.66	12.419140	-56.989485	91.66	-0.110	-0.690	0.310	91.66	-2.10	0.80	 	 	 	 	 	 	 	 	 	 	 	 	 	 	 	 	 	 	1581524894	0.63	1.17
12/02/2020 16:28:15	120220	12022020	162815	91.78	12.419138	-56.989478	91.81	0.250	-1.500	0.570	91.78	-2.90	1.00	 	 	 	 	 	 	 	 	 	 	 	 	 	 	 	 	 	 	1581524895	1.13	2.09
12/02/2020 16:28:16	120220	12022020	162816	91.92	12.419137	-56.989477	91.96	0.390	-1.310	0.940	91.92	-2.60	1.40	 	 	 	 	 	 	 	 	 	 	 	 	 	 	 	 	 	 	1581524896	0.55	1.02
12/02/2020 16:28:17	120220	12022020	162817	91.87	12.419133	-56.989480	91.87	0.140	-0.460	1.600	91.84	-1.80	2.10	 	 	 	 	 	 	 	 	 	 	 	 	 	 	 	 	 	 	1581524897	0.77	1.43
12/02/2020 16:28:18	120220	12022020	162818	91.57	12.419130	-56.989483	91.59	-0.290	0.300	2.320	91.57	-1.10	2.80	 	 	 	 	 	 	 	 	 	 	 	 	 	 	 	 	 	 	1581524898	1.21	2.24
12/02/2020 16:28:19	120220	12022020	162819	91.36	12.419125	-56.989485	91.40	-0.470	0.500	2.590	91.36	-0.90	3.00	 	 	 	 	 	 	 	 	 	 	 	 	 	 	 	 	 	 	1581524899	0.96	1.78
12/02/2020 16:28:20	120220	12022020	162820	91.37	12.419123	-56.989483	91.44	-0.210	0.240	2.190	91.37	-1.10	2.60	 	 	 	 	 	 	 	 	 	 	 	 	 	 	 	 	 	 	1581524900	0.36	0.67
12/02/2020 16:28:21	120220	12022020	162821	91.48	12.419127	-56.989480	91.54	0.200	-0.040	1.430	91.48	-1.40	1.80	 	 	 	 	 	 	 	 	 	 	 	 	 	 	 	 	 	 	1581524901	0.72	1.33
12/02/2020 16:28:22	120220	12022020	162822	91.52	12.419130	-56.989480	91.55	0.270	-0.000	0.670	91.52	-1.40	1.10	 	 	 	 	 	 	 	 	 	 	 	 	 	 	 	 	 	 	1581524902	0.91	1.69
12/02/2020 16:28:23	120220	12022020	162823	91.40	12.419135	-56.989480	91.41	-0.090	0.180	0.090	91.40	-1.20	0.50	 	 	 	 	 	 	 	 	 	 	 	 	 	 	 	 	 	 	1581524903	0.99	1.83
12/02/2020 16:28:24	120220	12022020	162824	91.25	12.419138	-56.989482	91.24	-0.520	0.100	-0.310	91.25	-1.30	0.10	 	 	 	 	 	 	 	 	 	 	 	 	 	 	 	 	 	 	1581524904	0.94	1.74
12/02/2020 16:28:25	120220	12022020	162825	91.10	12.419142	-56.989483	91.08	-0.570	-0.340	-0.450	91.10	-1.70	-0.00	 	 	 	 	 	 	 	 	 	 	 	 	 	 	 	 	 	 	1581524905	0.56	1.04
12/02/2020 16:28:26	120220	12022020	162826	90.92	12.419142	-56.989482	90.90	-0.170	-0.970	-0.300	90.92	-2.40	0.10	 	 	 	 	 	 	 	 	 	 	 	 	 	 	 	 	 	 	1581524906	0.38	0.70
12/02/2020 16:28:27	120220	12022020	162827	90.69	12.419140	-56.989478	90.67	0.490	-1.450	0.140	90.69	-2.80	0.60	 	 	 	 	 	 	 	 	 	 	 	 	 	 	 	 	 	 	1581524907	0.72	1.33
12/02/2020 16:28:28	120220	12022020	162828	90.47	12.419138	-56.989475	90.49	1.000	-1.380	0.800	90.47	-2.70	1.30	 	 	 	 	 	 	 	 	 	 	 	 	 	 	 	 	 	 	1581524908	0.83	1.54
12/02/2020 16:28:29	120220	12022020	162829	90.48	12.419135	-56.989473	90.57	1.000	-0.600	1.330	90.52	-1.90	1.80	 	 	 	 	 	 	 	 	 	 	 	 	 	 	 	 	 	 	1581524909	0.58	1.07
12/02/2020 16:28:30	120220	12022020	162830	90.90	12.419133	-56.989477	90.97	0.400	0.610	1.470	90.90	-0.70	1.90	 	 	 	 	 	 	 	 	 	 	 	 	 	 	 	 	 	 	1581524910	0.46	0.85
12/02/2020 16:28:31	120220	12022020	162831	91.24	12.419133	-56.989480	91.36	-0.540	1.700	1.440	91.30	0.30	1.90	 	 	 	 	 	 	 	 	 	 	 	 	 	 	 	 	 	 	1581524911	0.90	1.67
12/02/2020 16:28:32	120220	12022020	162832	91.28	12.419132	-56.989485	91.32	-1.270	2.040	1.680	91.28	0.60	2.10	 	 	 	 	 	 	 	 	 	 	 	 	 	 	 	 	 	 	1581524912	1.02	1.89
12/02/2020 16:28:33	120220	12022020	162833	90.86	12.419128	-56.989487	90.88	-1.370	1.290	2.070	90.86	-0.10	2.50	 	 	 	 	 	 	 	 	 	 	 	 	 	 	 	 	 	 	1581524913	0.75	1.39
12/02/2020 16:28:34	120220	12022020	162834	90.41	12.419127	-56.989485	90.44	-0.700	-0.480	2.070	90.41	-1.90	2.50	 	 	 	 	 	 	 	 	 	 	 	 	 	 	 	 	 	 	1581524914	0.59	1.09
12/02/2020 16:28:35	120220	12022020	162835	90.18	12.419128	-56.989478	90.20	0.400	-2.440	1.560	90.18	-3.90	2.00	 	 	 	 	 	 	 	 	 	 	 	 	 	 	 	 	 	 	1581524915	1.42	2.63
12/02/2020 16:28:36	120220	12022020	162836	90.20	12.419133	-56.989472	90.25	1.350	-3.350	0.810	90.20	-4.70	1.20	 	 	 	 	 	 	 	 	 	 	 	 	 	 	 	 	 	 	1581524916	1.79	3.32
12/02/2020 16:28:37	120220	12022020	162837	90.48	12.419140	-56.989468	90.52	1.580	-2.480	0.180	90.48	-3.80	0.60	 	 	 	 	 	 	 	 	 	 	 	 	 	 	 	 	 	 	1581524917	1.36	2.52
12/02/2020 16:28:38	120220	12022020	162838	90.78	12.419143	-56.989473	90.79	0.890	-0.230	-0.130	90.78	-1.60	0.30	 	 	 	 	 	 	 	 	 	 	 	 	 	 	 	 	 	 	1581524918	1.27	2.35
12/02/2020 16:28:39	120220	12022020	162839	90.90	12.419145	-56.989482	90.92	-0.300	2.180	-0.030	90.90	0.90	0.40	 	 	 	 	 	 	 	 	 	 	 	 	 	 	 	 	 	 	1581524919	1.89	3.50
12/02/2020 16:28:40	120220	12022020	162840	90.88	12.419143	-56.989490	90.88	-1.320	3.380	0.380	90.88	2.00	0.80	 	 	 	 	 	 	 	 	 	 	 	 	 	 	 	 	 	 	1581524920	1.89	3.50
12/02/2020 16:28:41	120220	12022020	162841	90.67	12.419138	-56.989493	90.66	-1.580	2.490	0.970	90.67	1.00	1.40	 	 	 	 	 	 	 	 	 	 	 	 	 	 	 	 	 	 	1581524921	1.13	2.09
12/02/2020 16:28:42	120220	12022020	162842	90.29	12.419135	-56.989488	90.30	-0.920	-0.130	1.510	90.29	-1.60	1.90	 	 	 	 	 	 	 	 	 	 	 	 	 	 	 	 	 	 	1581524922	1.49	2.76
12/02/2020 16:28:43	120220	12022020	162843	89.92	12.419132	-56.989478	89.94	0.210	-2.780	1.850	89.92	-4.20	2.30	 	 	 	 	 	 	 	 	 	 	 	 	 	 	 	 	 	 	1581524923	2.27	4.20
12/02/2020 16:28:44	120220	12022020	162844	89.70	12.419132	-56.989470	89.76	1.140	-3.640	1.950	89.70	-5.00	2.40	 	 	 	 	 	 	 	 	 	 	 	 	 	 	 	 	 	 	1581524924	1.67	3.09
12/02/2020 16:28:45	120220	12022020	162845	89.79	12.419137	-56.989470	89.87	1.310	-2.330	1.660	89.79	-3.60	2.10	 	 	 	 	 	 	 	 	 	 	 	 	 	 	 	 	 	 	1581524925	0.81	1.50
12/02/2020 16:28:46	120220	12022020	162846	90.18	12.419140	-56.989478	90.26	0.700	0.160	1.060	90.18	-1.20	1.50	 	 	 	 	 	 	 	 	 	 	 	 	 	 	 	 	 	 	1581524926	1.94	3.59
12/02/2020 16:28:47	120220	12022020	162847	90.56	12.419143	-56.989490	90.60	-0.190	2.170	0.520	90.56	0.80	0.90	 	 	 	 	 	 	 	 	 	 	 	 	 	 	 	 	 	 	1581524927	2.34	4.33
12/02/2020 16:28:48	120220	12022020	162848	90.63	12.419145	-56.989495	90.64	-0.700	2.430	0.470	90.63	1.00	0.90	 	 	 	 	 	 	 	 	 	 	 	 	 	 	 	 	 	 	1581524928	1.32	2.44
12/02/2020 16:28:49	120220	12022020	162849	90.38	12.419143	-56.989493	90.38	-0.580	0.890	0.840	90.38	-0.60	1.30	 	 	 	 	 	 	 	 	 	 	 	 	 	 	 	 	 	 	1581524929	0.57	1.06
12/02/2020 16:28:50	120220	12022020	162850	90.00	12.419142	-56.989485	90.01	-0.150	-1.100	1.180	90.00	-2.50	1.60	 	 	 	 	 	 	 	 	 	 	 	 	 	 	 	 	 	 	1581524930	1.74	3.22
12/02/2020 16:28:51	120220	12022020	162851	89.72	12.419140	-56.989478	89.75	0.110	-2.000	1.300	89.72	-3.40	1.70	 	 	 	 	 	 	 	 	 	 	 	 	 	 	 	 	 	 	1581524931	1.37	2.54
12/02/2020 16:28:52	120220	12022020	162852	89.74	12.419142	-56.989480	89.79	0.080	-1.430	1.290	89.74	-2.80	1.70	 	 	 	 	 	 	 	 	 	 	 	 	 	 	 	 	 	 	1581524932	0.15	0.28
12/02/2020 16:28:53	120220	12022020	162853	89.96	12.419142	-56.989485	90.02	-0.020	-0.310	1.210	89.96	-1.70	1.60	 	 	 	 	 	 	 	 	 	 	 	 	 	 	 	 	 	 	1581524933	1.14	2.11
12/02/2020 16:28:54	120220	12022020	162854	90.15	12.419143	-56.989490	90.19	0.080	0.320	0.950	90.15	-1.10	1.40	 	 	 	 	 	 	 	 	 	 	 	 	 	 	 	 	 	 	1581524934	1.05	1.94
12/02/2020 16:28:55	120220	12022020	162855	90.25	12.419145	-56.989490	90.27	0.370	0.220	0.510	90.25	-1.20	0.90	 	 	 	 	 	 	 	 	 	 	 	 	 	 	 	 	 	 	1581524935	0.58	1.07
12/02/2020 16:28:56	120220	12022020	162856	90.32	12.419148	-56.989488	90.32	0.610	-0.140	0.150	90.32	-1.50	0.60	 	 	 	 	 	 	 	 	 	 	 	 	 	 	 	 	 	 	1581524936	0.94	1.74
12/02/2020 16:28:57	120220	12022020	162857	90.29	12.419152	-56.989487	90.29	0.510	-0.260	0.250	90.29	-1.60	0.70	 	 	 	 	 	 	 	 	 	 	 	 	 	 	 	 	 	 	1581524937	0.75	1.39
12/02/2020 16:28:58	120220	12022020	162858	90.21	12.419152	-56.989487	90.24	0.010	-0.030	0.810	90.21	-1.40	1.30	 	 	 	 	 	 	 	 	 	 	 	 	 	 	 	 	 	 	1581524938	0.14	0.26
12/02/2020 16:28:59	120220	12022020	162859	90.23	12.419147	-56.989488	90.28	-0.570	0.250	1.390	90.23	-1.10	1.80	 	 	 	 	 	 	 	 	 	 	 	 	 	 	 	 	 	 	1581524939	0.97	1.80
12/02/2020 16:29:00	120220	12022020	162900	90.30	12.419143	-56.989490	90.34	-0.820	0.230	1.530	90.30	-1.20	2.00	 	 	 	 	 	 	 	 	 	 	 	 	 	 	 	 	 	 	1581524940	0.90	1.67
12/02/2020 16:29:01	120220	12022020	162901	90.35	12.419142	-56.989490	90.38	-0.500	-0.130	1.310	90.35	-1.50	1.70	 	 	 	 	 	 	 	 	 	 	 	 	 	 	 	 	 	 	1581524941	0.20	0.37
12/02/2020 16:29:02	120220	12022020	162902	90.32	12.419143	-56.989488	90.35	0.220	-0.670	1.030	90.32	-2.10	1.50	1016.30	26.60	26.70	20.30	20.40	707.0	68.0	68.0	437.0	29.5	351.00	10.20	82.00	9.70	55547	12447.0	27.5	27.5	1581524942	0.42	0.78
12/02/2020 16:29:03	120220	12022020	162903	90.27	12.419147	-56.989487	90.32	0.780	-0.960	0.800	90.27	-2.30	1.20	 	 	 	 	 	 	 	 	 	 	 	 	 	 	 	 	 	 	1581524943	0.76	1.41
12/02/2020 16:29:04	120220	12022020	162904	90.30	12.419150	-56.989485	90.37	0.750	-0.680	0.650	90.30	-2.00	1.10	 	 	 	 	 	 	 	 	 	 	 	 	 	 	 	 	 	 	1581524944	0.76	1.41
12/02/2020 16:29:05	120220	12022020	162905	90.41	12.419152	-56.989487	90.45	0.150	0.020	0.580	90.41	-1.30	1.00	 	 	 	 	 	 	 	 	 	 	 	 	 	 	 	 	 	 	1581524945	0.68	1.26
12/02/2020 16:29:06	120220	12022020	162906	90.56	12.419153	-56.989492	90.60	-0.470	0.580	0.490	90.56	-0.80	0.90	 	 	 	 	 	 	 	 	 	 	 	 	 	 	 	 	 	 	1581524946	0.74	1.37
12/02/2020 16:29:07	120220	12022020	162907	90.69	12.419152	-56.989493	90.74	-0.570	0.450	0.450	90.71	-1.00	0.90	 	 	 	 	 	 	 	 	 	 	 	 	 	 	 	 	 	 	1581524947	0.41	0.76
12/02/2020 16:29:08	120220	12022020	162908	90.67	12.419150	-56.989490	90.69	-0.160	-0.250	0.670	90.67	-1.70	1.10	 	 	 	 	 	 	 	 	 	 	 	 	 	 	 	 	 	 	1581524948	0.55	1.02
12/02/2020 16:29:09	120220	12022020	162909	90.43	12.419148	-56.989487	90.47	0.330	-0.870	1.040	90.43	-2.30	1.50	 	 	 	 	 	 	 	 	 	 	 	 	 	 	 	 	 	 	1581524949	0.95	1.76
12/02/2020 16:29:10	120220	12022020	162910	90.26	12.419147	-56.989485	90.31	0.540	-0.920	1.160	90.26	-2.30	1.60	 	 	 	 	 	 	 	 	 	 	 	 	 	 	 	 	 	 	1581524950	0.57	1.06
12/02/2020 16:29:11	120220	12022020	162911	90.24	12.419148	-56.989485	90.28	0.330	-0.300	0.900	90.24	-1.70	1.30	 	 	 	 	 	 	 	 	 	 	 	 	 	 	 	 	 	 	1581524951	0.47	0.87
12/02/2020 16:29:12	120220	12022020	162912	90.42	12.419153	-56.989488	90.47	-0.150	0.660	0.490	90.42	-0.70	0.90	 	 	 	 	 	 	 	 	 	 	 	 	 	 	 	 	 	 	1581524952	1.20	2.22
12/02/2020 16:29:13	120220	12022020	162913	90.76	12.419157	-56.989493	90.80	-0.600	1.100	0.270	90.76	-0.30	0.70	 	 	 	 	 	 	 	 	 	 	 	 	 	 	 	 	 	 	1581524953	1.18	2.19
12/02/2020 16:29:14	120220	12022020	162914	90.99	12.419157	-56.989495	91.00	-0.660	0.400	0.360	90.99	-1.00	0.80	 	 	 	 	 	 	 	 	 	 	 	 	 	 	 	 	 	 	1581524954	0.24	0.44
12/02/2020 16:29:15	120220	12022020	162915	90.86	12.419153	-56.989490	90.86	-0.190	-1.020	0.680	90.86	-2.40	1.10	 	 	 	 	 	 	 	 	 	 	 	 	 	 	 	 	 	 	1581524955	1.15	2.13
12/02/2020 16:29:16	120220	12022020	162916	90.54	12.419150	-56.989483	90.55	0.490	-1.900	1.020	90.54	-3.30	1.40	 	 	 	 	 	 	 	 	 	 	 	 	 	 	 	 	 	 	1581524956	1.53	2.83
12/02/2020 16:29:17	120220	12022020	162917	90.34	12.419148	-56.989480	90.36	0.850	-1.480	1.280	90.34	-2.80	1.70	 	 	 	 	 	 	 	 	 	 	 	 	 	 	 	 	 	 	1581524957	0.63	1.17
12/02/2020 16:29:18	120220	12022020	162918	90.30	12.419148	-56.989483	90.35	0.600	-0.220	1.360	90.30	-1.60	1.80	 	 	 	 	 	 	 	 	 	 	 	 	 	 	 	 	 	 	1581524958	0.54	1.00
12/02/2020 16:29:19	120220	12022020	162919	90.40	12.419150	-56.989488	90.48	-0.040	0.940	1.060	90.44	-0.40	1.50	 	 	 	 	 	 	 	 	 	 	 	 	 	 	 	 	 	 	1581524959	1.03	1.91
12/02/2020 16:29:20	120220	12022020	162920	90.68	12.419153	-56.989492	90.72	-0.610	1.410	0.550	90.68	0.00	1.00	 	 	 	 	 	 	 	 	 	 	 	 	 	 	 	 	 	 	1581524960	0.90	1.67
12/02/2020 16:29:21	120220	12022020	162921	90.86	12.419157	-56.989492	90.91	-0.800	1.080	0.130	90.89	-0.30	0.60	 	 	 	 	 	 	 	 	 	 	 	 	 	 	 	 	 	 	1581524961	0.68	1.26
12/02/2020 16:29:22	120220	12022020	162922	90.90	12.419158	-56.989490	90.91	-0.580	0.110	0.070	90.90	-1.30	0.50	 	 	 	 	 	 	 	 	 	 	 	 	 	 	 	 	 	 	1581524962	0.51	0.94
12/02/2020 16:29:23	120220	12022020	162923	90.67	12.419157	-56.989487	90.68	-0.150	-1.100	0.400	90.67	-2.50	0.80	 	 	 	 	 	 	 	 	 	 	 	 	 	 	 	 	 	 	1581524963	0.87	1.61
12/02/2020 16:29:24	120220	12022020	162924	90.37	12.419153	-56.989482	90.38	0.270	-1.890	0.860	90.37	-3.30	1.30	 	 	 	 	 	 	 	 	 	 	 	 	 	 	 	 	 	 	1581524964	1.29	2.39
12/02/2020 16:29:25	120220	12022020	162925	90.10	12.419148	-56.989480	90.13	0.510	-1.740	1.220	90.10	-3.10	1.70	 	 	 	 	 	 	 	 	 	 	 	 	 	 	 	 	 	 	1581524965	0.99	1.83
12/02/2020 16:29:26	120220	12022020	162926	89.97	12.419148	-56.989480	90.02	0.560	-0.760	1.270	89.97	-2.10	1.70	 	 	 	 	 	 	 	 	 	 	 	 	 	 	 	 	 	 	1581524966	0.26	0.48
12/02/2020 16:29:27	120220	12022020	162927	90.14	12.419150	-56.989483	90.21	0.380	0.410	0.940	90.14	-0.90	1.40	 	 	 	 	 	 	 	 	 	 	 	 	 	 	 	 	 	 	1581524967	0.76	1.41
12/02/2020 16:29:28	120220	12022020	162928	90.48	12.419153	-56.989485	90.53	-0.030	1.140	0.370	90.48	-0.20	0.80	 	 	 	 	 	 	 	 	 	 	 	 	 	 	 	 	 	 	1581524968	0.99	1.83
12/02/2020 16:29:29	120220	12022020	162929	90.65	12.419157	-56.989487	90.67	-0.430	1.140	-0.000	90.65	-0.30	0.40	 	 	 	 	 	 	 	 	 	 	 	 	 	 	 	 	 	 	1581524969	0.60	1.11
12/02/2020 16:29:30	120220	12022020	162930	90.51	12.419157	-56.989485	90.50	-0.540	0.610	0.110	90.51	-0.80	0.60	 	 	 	 	 	 	 	 	 	 	 	 	 	 	 	 	 	 	1581524970	0.25	0.46
12/02/2020 16:29:31	120220	12022020	162931	90.32	12.419155	-56.989483	90.34	-0.330	-0.130	0.450	90.32	-1.50	0.90	 	 	 	 	 	 	 	 	 	 	 	 	 	 	 	 	 	 	1581524971	0.54	1.00
12/02/2020 16:29:32	120220	12022020	162932	90.32	12.419155	-56.989480	90.36	0.020	-0.910	0.680	90.32	-2.30	1.10	 	 	 	 	 	 	 	 	 	 	 	 	 	 	 	 	 	 	1581524972	0.57	1.06
12/02/2020 16:29:33	120220	12022020	162933	90.32	12.419153	-56.989478	90.35	0.310	-1.470	0.960	90.32	-2.90	1.40	 	 	 	 	 	 	 	 	 	 	 	 	 	 	 	 	 	 	1581524973	0.69	1.28
12/02/2020 16:29:34	120220	12022020	162934	90.06	12.419150	-56.989475	90.09	0.340	-1.420	1.450	90.06	-2.80	1.90	 	 	 	 	 	 	 	 	 	 	 	 	 	 	 	 	 	 	1581524974	0.84	1.56
12/02/2020 16:29:35	120220	12022020	162935	89.69	12.419147	-56.989475	89.74	0.100	-0.680	1.840	89.69	-2.00	2.30	 	 	 	 	 	 	 	 	 	 	 	 	 	 	 	 	 	 	1581524975	0.81	1.50
12/02/2020 16:29:36	120220	12022020	162936	89.46	12.419145	-56.989478	89.52	-0.200	0.300	1.840	89.46	-1.00	2.20	 	 	 	 	 	 	 	 	 	 	 	 	 	 	 	 	 	 	1581524976	0.66	1.22
12/02/2020 16:29:37	120220	12022020	162937	89.45	12.419145	-56.989480	89.51	-0.350	0.930	1.380	89.45	-0.50	1.80	 	 	 	 	 	 	 	 	 	 	 	 	 	 	 	 	 	 	1581524977	0.56	1.04
12/02/2020 16:29:38	120220	12022020	162938	89.56	12.419148	-56.989480	89.58	-0.300	0.910	0.650	89.56	-0.50	1.10	 	 	 	 	 	 	 	 	 	 	 	 	 	 	 	 	 	 	1581524978	0.85	1.57
12/02/2020 16:29:39	120220	12022020	162939	89.68	12.419155	-56.989478	89.71	-0.070	0.300	-0.170	89.68	-1.10	0.20	 	 	 	 	 	 	 	 	 	 	 	 	 	 	 	 	 	 	1581524979	1.20	2.22
12/02/2020 16:29:40	120220	12022020	162940	89.82	12.419160	-56.989475	89.83	0.250	-0.640	-0.840	89.82	-2.00	-0.40	 	 	 	 	 	 	 	 	 	 	 	 	 	 	 	 	 	 	1581524980	1.35	2.50
12/02/2020 16:29:41	120220	12022020	162941	89.97	12.419162	-56.989470	89.97	0.450	-1.300	-0.980	89.97	-2.70	-0.50	 	 	 	 	 	 	 	 	 	 	 	 	 	 	 	 	 	 	1581524981	1.10	2.04
12/02/2020 16:29:42	120220	12022020	162942	89.95	12.419160	-56.989468	89.93	0.440	-1.160	-0.450	89.95	-2.50	0.00	 	 	 	 	 	 	 	 	 	 	 	 	 	 	 	 	 	 	1581524982	0.69	1.28
12/02/2020 16:29:43	120220	12022020	162943	89.69	12.419155	-56.989468	89.69	0.190	-0.210	0.400	89.69	-1.50	0.90	 	 	 	 	 	 	 	 	 	 	 	 	 	 	 	 	 	 	1581524983	0.99	1.83
12/02/2020 16:29:44	120220	12022020	162944	89.37	12.419152	-56.989473	89.38	-0.240	0.760	1.080	89.37	-0.60	1.50	 	 	 	 	 	 	 	 	 	 	 	 	 	 	 	 	 	 	1581524984	1.24	2.30
12/02/2020 16:29:45	120220	12022020	162945	89.02	12.419150	-56.989477	89.04	-0.600	0.920	1.490	89.02	-0.50	1.90	 	 	 	 	 	 	 	 	 	 	 	 	 	 	 	 	 	 	1581524985	0.75	1.39
12/02/2020 16:29:46	120220	12022020	162946	88.67	12.419148	-56.989475	88.70	-0.650	0.190	1.810	88.67	-1.20	2.20	 	 	 	 	 	 	 	 	 	 	 	 	 	 	 	 	 	 	1581524986	0.45	0.83
12/02/2020 16:29:47	120220	12022020	162947	88.51	12.419147	-56.989470	88.58	-0.370	-0.800	1.940	88.51	-2.20	2.40	 	 	 	 	 	 	 	 	 	 	 	 	 	 	 	 	 	 	1581524987	1.01	1.87
12/02/2020 16:29:48	120220	12022020	162948	88.71	12.419147	-56.989465	88.79	0.090	-1.410	1.740	88.71	-2.80	2.20	 	 	 	 	 	 	 	 	 	 	 	 	 	 	 	 	 	 	1581524988	1.00	1.85
12/02/2020 16:29:49	120220	12022020	162949	89.12	12.419148	-56.989463	89.19	0.500	-1.230	1.160	89.12	-2.60	1.60	 	 	 	 	 	 	 	 	 	 	 	 	 	 	 	 	 	 	1581524989	0.68	1.26
12/02/2020 16:29:50	120220	12022020	162950	89.57	12.419152	-56.989463	89.62	0.630	-0.370	0.430	89.57	-1.70	0.80	 	 	 	 	 	 	 	 	 	 	 	 	 	 	 	 	 	 	1581524990	0.75	1.39
12/02/2020 16:29:51	120220	12022020	162951	89.82	12.419155	-56.989467	89.84	0.470	0.520	0.030	89.82	-0.80	0.40	 	 	 	 	 	 	 	 	 	 	 	 	 	 	 	 	 	 	1581524991	0.87	1.61
12/02/2020 16:29:52	120220	12022020	162952	89.56	12.419157	-56.989468	89.54	0.160	0.840	0.260	89.56	-0.50	0.70	 	 	 	 	 	 	 	 	 	 	 	 	 	 	 	 	 	 	1581524992	0.43	0.80
12/02/2020 16:29:53	120220	12022020	162953	89.04	12.419155	-56.989468	89.05	-0.170	0.490	0.820	89.04	-0.90	1.30	 	 	 	 	 	 	 	 	 	 	 	 	 	 	 	 	 	 	1581524993	0.44	0.81
12/02/2020 16:29:54	120220	12022020	162954	88.75	12.419152	-56.989465	88.79	-0.440	-0.080	1.280	88.75	-1.50	1.70	 	 	 	 	 	 	 	 	 	 	 	 	 	 	 	 	 	 	1581524994	0.82	1.52
12/02/2020 16:29:55	120220	12022020	162955	88.69	12.419150	-56.989462	88.73	-0.550	-0.450	1.410	88.69	-1.80	1.80	 	 	 	 	 	 	 	 	 	 	 	 	 	 	 	 	 	 	1581524995	0.51	0.94
12/02/2020 16:29:56	120220	12022020	162956	88.74	12.419152	-56.989462	88.77	-0.410	-0.580	1.150	88.74	-2.00	1.60	 	 	 	 	 	 	 	 	 	 	 	 	 	 	 	 	 	 	1581524996	0.22	0.41
12/02/2020 16:29:57	120220	12022020	162957	88.85	12.419153	-56.989462	88.91	-0.060	-0.680	0.700	88.88	-2.00	1.10	 	 	 	 	 	 	 	 	 	 	 	 	 	 	 	 	 	 	1581524997	0.55	1.02
12/02/2020 16:29:58	120220	12022020	162958	89.10	12.419157	-56.989460	89.14	0.340	-0.750	0.360	89.10	-2.10	0.80	 	 	 	 	 	 	 	 	 	 	 	 	 	 	 	 	 	 	1581524998	0.61	1.13
12/02/2020 16:29:59	120220	12022020	162959	89.36	12.419158	-56.989458	89.40	0.530	-0.600	0.280	89.36	-2.00	0.70	 	 	 	 	 	 	 	 	 	 	 	 	 	 	 	 	 	 	1581524999	0.41	0.76
12/02/2020 16:30:00	120220	12022020	163000	89.47	12.419157	-56.989458	89.49	0.370	-0.230	0.440	89.47	-1.60	0.90	 	 	 	 	 	 	 	 	 	 	 	 	 	 	 	 	 	 	1581525000	0.22	0.41
12/02/2020 16:30:01	120220	12022020	163001	89.29	12.419155	-56.989458	89.29	0.030	0.160	0.710	89.29	-1.20	1.10	 	 	 	 	 	 	 	 	 	 	 	 	 	 	 	 	 	 	1581525001	0.33	0.61
12/02/2020 16:30:02	120220	12022020	163002	88.99	12.419155	-56.989460	89.00	-0.290	0.470	0.930	88.99	-0.90	1.40	1016.30	26.60	26.70	19.80	19.90	657.0	66.0	66.0	437.0	29.4	352.00	10.70	82.00	10.30	52963	11562.0	27.5	27.5	1581525002	0.21	0.39
12/02/2020 16:30:03	120220	12022020	163003	88.86	12.419155	-56.989460	88.87	-0.510	0.680	1.010	88.86	-0.70	1.40	 	 	 	 	 	 	 	 	 	 	 	 	 	 	 	 	 	 	1581525003	0.19	0.35
12/02/2020 16:30:04	120220	12022020	163004	88.94	12.419155	-56.989462	88.96	-0.580	0.490	1.000	88.94	-0.90	1.40	 	 	 	 	 	 	 	 	 	 	 	 	 	 	 	 	 	 	1581525004	0.26	0.48
12/02/2020 16:30:05	120220	12022020	163005	89.05	12.419155	-56.989460	89.09	-0.400	-0.310	0.950	89.05	-1.70	1.40	 	 	 	 	 	 	 	 	 	 	 	 	 	 	 	 	 	 	1581525005	0.24	0.44
12/02/2020 16:30:06	120220	12022020	163006	89.21	12.419157	-56.989457	89.25	0.020	-1.320	0.790	89.21	-2.70	1.20	 	 	 	 	 	 	 	 	 	 	 	 	 	 	 	 	 	 	1581525006	0.85	1.57
12/02/2020 16:30:07	120220	12022020	163007	89.38	12.419157	-56.989452	89.41	0.500	-1.720	0.710	89.38	-3.10	1.10	 	 	 	 	 	 	 	 	 	 	 	 	 	 	 	 	 	 	1581525007	0.97	1.80
12/02/2020 16:30:08	120220	12022020	163008	89.36	12.419155	-56.989450	89.40	0.710	-1.220	0.920	89.36	-2.50	1.30	 	 	 	 	 	 	 	 	 	 	 	 	 	 	 	 	 	 	1581525008	0.42	0.78
12/02/2020 16:30:09	120220	12022020	163009	89.15	12.419153	-56.989452	89.11	0.460	-0.060	1.270	89.08	-1.40	1.70	 	 	 	 	 	 	 	 	 	 	 	 	 	 	 	 	 	 	1581525009	0.51	0.94
12/02/2020 16:30:10	120220	12022020	163010	88.73	12.419152	-56.989455	88.74	-0.150	1.200	1.420	88.73	-0.10	1.80	 	 	 	 	 	 	 	 	 	 	 	 	 	 	 	 	 	 	1581525010	0.91	1.69
12/02/2020 16:30:11	120220	12022020	163011	88.58	12.419153	-56.989460	88.62	-0.730	1.820	1.120	88.58	0.40	1.50	 	 	 	 	 	 	 	 	 	 	 	 	 	 	 	 	 	 	1581525011	0.99	1.83
12/02/2020 16:30:12	120220	12022020	163012	88.78	12.419157	-56.989462	88.82	-0.850	1.260	0.390	88.78	-0.20	0.80	 	 	 	 	 	 	 	 	 	 	 	 	 	 	 	 	 	 	1581525012	0.80	1.48
12/02/2020 16:30:13	120220	12022020	163013	89.11	12.419160	-56.989460	89.14	-0.380	-0.360	-0.350	89.11	-1.80	0.10	 	 	 	 	 	 	 	 	 	 	 	 	 	 	 	 	 	 	1581525013	1.11	2.06
12/02/2020 16:30:14	120220	12022020	163014	89.29	12.419165	-56.989452	89.29	0.390	-2.100	-0.620	89.29	-3.50	-0.20	 	 	 	 	 	 	 	 	 	 	 	 	 	 	 	 	 	 	1581525014	1.67	3.09
12/02/2020 16:30:15	120220	12022020	163015	89.30	12.419167	-56.989447	89.29	0.900	-2.670	-0.400	89.30	-4.00	0.00	 	 	 	 	 	 	 	 	 	 	 	 	 	 	 	 	 	 	1581525015	1.38	2.56
12/02/2020 16:30:16	120220	12022020	163016	89.19	12.419165	-56.989445	89.19	0.790	-1.540	0.190	89.19	-2.80	0.60	 	 	 	 	 	 	 	 	 	 	 	 	 	 	 	 	 	 	1581525016	0.27	0.50
12/02/2020 16:30:17	120220	12022020	163017	89.01	12.419162	-56.989452	89.03	0.210	0.290	1.000	89.01	-1.00	1.40	 	 	 	 	 	 	 	 	 	 	 	 	 	 	 	 	 	 	1581525017	1.40	2.59
12/02/2020 16:30:18	120220	12022020	163018	88.83	12.419155	-56.989457	88.86	-0.410	1.460	1.880	88.83	0.10	2.30	 	 	 	 	 	 	 	 	 	 	 	 	 	 	 	 	 	 	1581525018	1.71	3.17
12/02/2020 16:30:19	120220	12022020	163019	88.78	12.419150	-56.989458	88.82	-0.760	1.670	2.420	88.78	0.30	2.80	 	 	 	 	 	 	 	 	 	 	 	 	 	 	 	 	 	 	1581525019	1.36	2.52
12/02/2020 16:30:20	120220	12022020	163020	88.96	12.419147	-56.989458	89.01	-0.780	1.220	2.330	88.96	-0.20	2.70	 	 	 	 	 	 	 	 	 	 	 	 	 	 	 	 	 	 	1581525020	0.68	1.26
12/02/2020 16:30:21	120220	12022020	163021	89.18	12.419148	-56.989457	89.21	-0.490	0.170	1.710	89.18	-1.30	2.10	 	 	 	 	 	 	 	 	 	 	 	 	 	 	 	 	 	 	1581525021	0.45	0.83
12/02/2020 16:30:22	120220	12022020	163022	89.23	12.419153	-56.989453	89.25	0.020	-1.150	0.980	89.23	-2.60	1.40	 	 	 	 	 	 	 	 	 	 	 	 	 	 	 	 	 	 	1581525022	1.25	2.31
12/02/2020 16:30:23	120220	12022020	163023	89.19	12.419157	-56.989450	89.18	0.560	-2.040	0.370	89.19	-3.40	0.80	 	 	 	 	 	 	 	 	 	 	 	 	 	 	 	 	 	 	1581525023	1.33	2.46
12/02/2020 16:30:24	120220	12022020	163024	89.18	12.419160	-56.989447	89.18	0.890	-2.000	0.040	89.18	-3.30	0.50	 	 	 	 	 	 	 	 	 	 	 	 	 	 	 	 	 	 	1581525024	0.79	1.46
12/02/2020 16:30:25	120220	12022020	163025	89.26	12.419162	-56.989448	89.27	0.840	-1.040	-0.020	89.26	-2.40	0.40	 	 	 	 	 	 	 	 	 	 	 	 	 	 	 	 	 	 	1581525025	0.33	0.61
12/02/2020 16:30:26	120220	12022020	163026	89.35	12.419162	-56.989452	89.34	0.380	0.300	0.090	89.35	-1.00	0.50	 	 	 	 	 	 	 	 	 	 	 	 	 	 	 	 	 	 	1581525026	0.75	1.39
12/02/2020 16:30:27	120220	12022020	163027	89.33	12.419162	-56.989457	89.34	-0.280	1.340	0.280	89.33	-0.00	0.70	 	 	 	 	 	 	 	 	 	 	 	 	 	 	 	 	 	 	1581525027	0.94	1.74
12/02/2020 16:30:28	120220	12022020	163028	89.39	12.419162	-56.989458	89.42	-0.780	1.580	0.470	89.39	0.20	0.90	 	 	 	 	 	 	 	 	 	 	 	 	 	 	 	 	 	 	1581525028	0.68	1.26
12/02/2020 16:30:29	120220	12022020	163029	89.56	12.419158	-56.989458	89.60	-0.800	0.820	0.640	89.56	-0.60	1.10	 	 	 	 	 	 	 	 	 	 	 	 	 	 	 	 	 	 	1581525029	0.53	0.98
12/02/2020 16:30:30	120220	12022020	163030	89.58	12.419155	-56.989455	89.61	-0.340	-0.510	1.010	89.58	-1.90	1.40	 	 	 	 	 	 	 	 	 	 	 	 	 	 	 	 	 	 	1581525030	1.06	1.96
12/02/2020 16:30:31	120220	12022020	163031	89.36	12.419152	-56.989450	89.40	0.160	-1.420	1.440	89.36	-2.80	1.90	 	 	 	 	 	 	 	 	 	 	 	 	 	 	 	 	 	 	1581525031	1.24	2.30
12/02/2020 16:30:32	120220	12022020	163032	89.25	12.419152	-56.989448	89.30	0.330	-1.250	1.550	89.25	-2.60	2.00	 	 	 	 	 	 	 	 	 	 	 	 	 	 	 	 	 	 	1581525032	0.36	0.67
12/02/2020 16:30:33	120220	12022020	163033	89.35	12.419153	-56.989452	89.40	0.200	-0.440	1.340	89.35	-1.80	1.80	 	 	 	 	 	 	 	 	 	 	 	 	 	 	 	 	 	 	1581525033	0.82	1.52
12/02/2020 16:30:34	120220	12022020	163034	89.47	12.419155	-56.989457	89.52	0.110	0.000	1.170	89.47	-1.40	1.60	 	 	 	 	 	 	 	 	 	 	 	 	 	 	 	 	 	 	1581525034	0.97	1.80
12/02/2020 16:30:35	120220	12022020	163035	89.54	12.419157	-56.989457	89.59	0.280	-0.240	1.040	89.54	-1.60	1.40	 	 	 	 	 	 	 	 	 	 	 	 	 	 	 	 	 	 	1581525035	0.30	0.56
12/02/2020 16:30:36	120220	12022020	163036	89.64	12.419157	-56.989453	89.69	0.490	-0.590	0.810	89.64	-2.00	1.20	 	 	 	 	 	 	 	 	 	 	 	 	 	 	 	 	 	 	1581525036	0.73	1.35
12/02/2020 16:30:37	120220	12022020	163037	89.79	12.419158	-56.989450	89.84	0.420	-0.460	0.600	89.79	-1.80	1.00	 	 	 	 	 	 	 	 	 	 	 	 	 	 	 	 	 	 	1581525037	0.57	1.06
12/02/2020 16:30:38	120220	12022020	163038	89.95	12.419158	-56.989452	89.99	0.020	0.200	0.670	89.95	-1.20	1.10	 	 	 	 	 	 	 	 	 	 	 	 	 	 	 	 	 	 	1581525038	0.18	0.33
12/02/2020 16:30:39	120220	12022020	163039	90.02	12.419157	-56.989455	90.06	-0.460	0.920	0.990	90.02	-0.50	1.40	 	 	 	 	 	 	 	 	 	 	 	 	 	 	 	 	 	 	1581525039	0.87	1.61
12/02/2020 16:30:40	120220	12022020	163040	90.07	12.419153	-56.989458	90.11	-0.770	1.110	1.220	90.07	-0.30	1.60	 	 	 	 	 	 	 	 	 	 	 	 	 	 	 	 	 	 	1581525040	0.94	1.74
12/02/2020 16:30:41	120220	12022020	163041	90.10	12.419152	-56.989460	90.14	-0.700	0.500	1.100	90.10	-0.90	1.50	 	 	 	 	 	 	 	 	 	 	 	 	 	 	 	 	 	 	1581525041	0.42	0.78
12/02/2020 16:30:42	120220	12022020	163042	90.00	12.419152	-56.989457	90.03	-0.200	-0.740	0.900	90.00	-2.20	1.30	 	 	 	 	 	 	 	 	 	 	 	 	 	 	 	 	 	 	1581525042	0.50	0.93
12/02/2020 16:30:43	120220	12022020	163043	89.75	12.419153	-56.989452	89.79	0.450	-1.870	0.940	89.75	-3.30	1.40	 	 	 	 	 	 	 	 	 	 	 	 	 	 	 	 	 	 	1581525043	1.06	1.96
12/02/2020 16:30:44	120220	12022020	163044	89.63	12.419153	-56.989448	89.68	0.810	-1.980	1.050	89.63	-3.30	1.50	 	 	 	 	 	 	 	 	 	 	 	 	 	 	 	 	 	 	1581525044	0.79	1.46
12/02/2020 16:30:45	120220	12022020	163045	89.80	12.419155	-56.989450	89.87	0.620	-0.810	0.950	89.80	-2.10	1.40	 	 	 	 	 	 	 	 	 	 	 	 	 	 	 	 	 	 	1581525045	0.35	0.65
12/02/2020 16:30:46	120220	12022020	163046	90.14	12.419157	-56.989457	90.20	0.060	0.690	0.590	90.14	-0.70	1.00	 	 	 	 	 	 	 	 	 	 	 	 	 	 	 	 	 	 	1581525046	1.32	2.44
12/02/2020 16:30:47	120220	12022020	163047	90.43	12.419158	-56.989462	90.46	-0.370	1.250	0.240	90.43	-0.10	0.60	 	 	 	 	 	 	 	 	 	 	 	 	 	 	 	 	 	 	1581525047	1.13	2.09
12/02/2020 16:30:48	120220	12022020	163048	90.52	12.419158	-56.989460	90.51	-0.340	0.580	0.260	90.52	-0.80	0.70	 	 	 	 	 	 	 	 	 	 	 	 	 	 	 	 	 	 	1581525048	0.17	0.31
12/02/2020 16:30:49	120220	12022020	163049	90.45	12.419155	-56.989455	90.47	-0.030	-0.380	0.680	90.45	-1.80	1.10	 	 	 	 	 	 	 	 	 	 	 	 	 	 	 	 	 	 	1581525049	1.22	2.26
12/02/2020 16:30:50	120220	12022020	163050	90.37	12.419152	-56.989452	90.42	0.170	-0.650	1.080	90.37	-2.00	1.50	 	 	 	 	 	 	 	 	 	 	 	 	 	 	 	 	 	 	1581525050	1.08	2.00
12/02/2020 16:30:51	120220	12022020	163051	90.28	12.419150	-56.989453	90.31	0.080	-0.220	1.240	90.28	-1.60	1.60	 	 	 	 	 	 	 	 	 	 	 	 	 	 	 	 	 	 	1581525051	0.53	0.98
12/02/2020 16:30:52	120220	12022020	163052	90.20	12.419150	-56.989457	90.23	-0.130	0.230	1.110	90.20	-1.10	1.50	 	 	 	 	 	 	 	 	 	 	 	 	 	 	 	 	 	 	1581525052	0.84	1.56
12/02/2020 16:30:53	120220	12022020	163053	90.28	12.419152	-56.989460	90.30	-0.210	0.200	0.790	90.28	-1.20	1.20	 	 	 	 	 	 	 	 	 	 	 	 	 	 	 	 	 	 	1581525053	0.79	1.46
12/02/2020 16:30:54	120220	12022020	163054	90.46	12.419155	-56.989460	90.47	-0.060	-0.350	0.520	90.46	-1.80	0.90	 	 	 	 	 	 	 	 	 	 	 	 	 	 	 	 	 	 	1581525054	0.58	1.07
12/02/2020 16:30:55	120220	12022020	163055	90.64	12.419155	-56.989458	90.66	0.220	-1.010	0.470	90.64	-2.40	0.90	 	 	 	 	 	 	 	 	 	 	 	 	 	 	 	 	 	 	1581525055	0.56	1.04
12/02/2020 16:30:56	120220	12022020	163056	90.64	12.419155	-56.989455	90.65	0.390	-1.200	0.660	90.64	-2.60	1.10	 	 	 	 	 	 	 	 	 	 	 	 	 	 	 	 	 	 	1581525056	0.60	1.11
12/02/2020 16:30:57	120220	12022020	163057	90.34	12.419153	-56.989455	90.34	0.290	-0.720	1.010	90.34	-2.10	1.40	 	 	 	 	 	 	 	 	 	 	 	 	 	 	 	 	 	 	1581525057	0.46	0.85
12/02/2020 16:30:58	120220	12022020	163058	90.01	12.419150	-56.989457	90.06	-0.060	0.160	1.400	90.01	-1.20	1.80	 	 	 	 	 	 	 	 	 	 	 	 	 	 	 	 	 	 	1581525058	0.63	1.17
12/02/2020 16:30:59	120220	12022020	163059	90.03	12.419150	-56.989460	90.18	-0.480	0.920	1.570	90.09	-0.40	2.00	 	 	 	 	 	 	 	 	 	 	 	 	 	 	 	 	 	 	1581525059	0.84	1.56
12/02/2020 16:31:00	120220	12022020	163100	90.62	12.419148	-56.989463	90.73	-0.730	1.080	1.310	90.62	-0.30	1.70	 	 	 	 	 	 	 	 	 	 	 	 	 	 	 	 	 	 	1581525060	0.69	1.28
12/02/2020 16:31:01	120220	12022020	163101	91.10	12.419148	-56.989465	91.27	-0.600	0.480	0.860	91.19	-0.90	1.20	 	 	 	 	 	 	 	 	 	 	 	 	 	 	 	 	 	 	1581525061	0.19	0.35
12/02/2020 16:31:02	120220	12022020	163102	91.36	12.419148	-56.989462	91.39	-0.010	-0.670	0.600	91.36	-2.10	1.00	1016.30	26.70	26.70	20.10	20.20	657.0	67.0	67.0	438.0	29.4	349.00	10.80	78.00	10.40	52856	11288.0	27.5	27.5	1581525062	0.49	0.91
12/02/2020 16:31:03	120220	12022020	163103	91.01	12.419147	-56.989458	91.00	0.770	-1.690	0.740	91.01	-3.10	1.20	 	 	 	 	 	 	 	 	 	 	 	 	 	 	 	 	 	 	1581525063	0.96	1.78
12/02/2020 16:31:04	120220	12022020	163104	90.40	12.419147	-56.989455	90.41	1.200	-1.670	1.180	90.40	-3.00	1.60	 	 	 	 	 	 	 	 	 	 	 	 	 	 	 	 	 	 	1581525064	0.73	1.35
12/02/2020 16:31:05	120220	12022020	163105	90.15	12.419147	-56.989457	90.22	0.850	-0.490	1.480	90.15	-1.80	1.90	 	 	 	 	 	 	 	 	 	 	 	 	 	 	 	 	 	 	1581525065	0.35	0.65
12/02/2020 16:31:06	120220	12022020	163106	90.58	12.419148	-56.989462	90.69	-0.100	0.960	1.440	90.58	-0.40	1.80	 	 	 	 	 	 	 	 	 	 	 	 	 	 	 	 	 	 	1581525066	1.27	2.35
12/02/2020 16:31:07	120220	12022020	163107	91.19	12.419148	-56.989468	91.29	-0.930	1.540	1.260	91.19	0.10	1.70	 	 	 	 	 	 	 	 	 	 	 	 	 	 	 	 	 	 	1581525067	1.30	2.41
12/02/2020 16:31:08	120220	12022020	163108	91.57	12.419147	-56.989470	91.64	-1.110	1.000	1.150	91.57	-0.40	1.50	 	 	 	 	 	 	 	 	 	 	 	 	 	 	 	 	 	 	1581525068	0.45	0.83
12/02/2020 16:31:09	120220	12022020	163109	91.74	12.419145	-56.989468	91.81	-0.650	-0.090	1.200	91.74	-1.50	1.60	 	 	 	 	 	 	 	 	 	 	 	 	 	 	 	 	 	 	1581525069	0.47	0.87
12/02/2020 16:31:10	120220	12022020	163110	91.79	12.419143	-56.989465	91.84	0.030	-1.060	1.370	91.79	-2.50	1.80	 	 	 	 	 	 	 	 	 	 	 	 	 	 	 	 	 	 	1581525070	0.81	1.50
12/02/2020 16:31:11	120220	12022020	163111	91.70	12.419140	-56.989463	91.74	0.570	-1.650	1.580	91.70	-3.00	2.00	 	 	 	 	 	 	 	 	 	 	 	 	 	 	 	 	 	 	1581525071	0.82	1.52
12/02/2020 16:31:12	120220	12022020	163112	91.40	12.419137	-56.989462	91.46	0.790	-1.790	1.890	91.40	-3.20	2.30	 	 	 	 	 	 	 	 	 	 	 	 	 	 	 	 	 	 	1581525072	0.68	1.26
12/02/2020 16:31:13	120220	12022020	163113	91.05	12.419135	-56.989462	91.11	0.730	-1.240	2.060	91.05	-2.60	2.50	 	 	 	 	 	 	 	 	 	 	 	 	 	 	 	 	 	 	1581525073	0.37	0.69
12/02/2020 16:31:14	120220	12022020	163114	90.88	12.419137	-56.989463	90.95	0.450	0.000	1.810	90.88	-1.30	2.20	 	 	 	 	 	 	 	 	 	 	 	 	 	 	 	 	 	 	1581525074	0.45	0.83
12/02/2020 16:31:15	120220	12022020	163115	91.03	12.419140	-56.989468	91.11	-0.040	1.350	1.120	91.03	-0.00	1.50	 	 	 	 	 	 	 	 	 	 	 	 	 	 	 	 	 	 	1581525075	1.28	2.37
12/02/2020 16:31:16	120220	12022020	163116	91.58	12.419145	-56.989473	91.65	-0.640	1.990	0.010	91.58	0.60	0.40	 	 	 	 	 	 	 	 	 	 	 	 	 	 	 	 	 	 	1581525076	1.52	2.82
12/02/2020 16:31:17	120220	12022020	163117	92.24	12.419150	-56.989475	92.29	-1.070	1.510	-0.920	92.24	0.10	-0.50	 	 	 	 	 	 	 	 	 	 	 	 	 	 	 	 	 	 	1581525077	1.02	1.89
12/02/2020 16:31:18	120220	12022020	163118	92.52	12.419150	-56.989473	92.55	-1.000	0.200	-1.000	92.52	-1.20	-0.60	 	 	 	 	 	 	 	 	 	 	 	 	 	 	 	 	 	 	1581525078	0.24	0.44
12/02/2020 16:31:19	120220	12022020	163119	92.29	12.419145	-56.989472	92.30	-0.370	-1.170	-0.290	92.29	-2.60	0.10	 	 	 	 	 	 	 	 	 	 	 	 	 	 	 	 	 	 	1581525079	1.03	1.91
12/02/2020 16:31:20	120220	12022020	163120	91.71	12.419140	-56.989468	91.73	0.450	-1.910	0.780	91.71	-3.30	1.20	 	 	 	 	 	 	 	 	 	 	 	 	 	 	 	 	 	 	1581525080	1.16	2.15
12/02/2020 16:31:21	120220	12022020	163121	91.20	12.419137	-56.989468	91.25	0.950	-1.930	1.690	91.20	-3.30	2.10	 	 	 	 	 	 	 	 	 	 	 	 	 	 	 	 	 	 	1581525081	0.90	1.67
12/02/2020 16:31:22	120220	12022020	163122	91.10	12.419133	-56.989470	91.20	0.930	-1.420	2.300	91.10	-2.80	2.70	 	 	 	 	 	 	 	 	 	 	 	 	 	 	 	 	 	 	1581525082	0.61	1.13
12/02/2020 16:31:23	120220	12022020	163123	91.39	12.419132	-56.989472	91.51	0.560	-0.600	2.660	91.39	-2.00	3.10	 	 	 	 	 	 	 	 	 	 	 	 	 	 	 	 	 	 	1581525083	0.62	1.15
12/02/2020 16:31:24	120220	12022020	163124	91.85	12.419128	-56.989473	91.95	0.140	0.370	2.610	91.85	-1.00	3.00	 	 	 	 	 	 	 	 	 	 	 	 	 	 	 	 	 	 	1581525084	0.64	1.19
12/02/2020 16:31:25	120220	12022020	163125	92.11	12.419128	-56.989475	92.17	-0.190	1.230	2.220	92.11	-0.20	2.60	 	 	 	 	 	 	 	 	 	 	 	 	 	 	 	 	 	 	1581525085	0.59	1.09
12/02/2020 16:31:26	120220	12022020	163126	92.02	12.419128	-56.989478	92.04	-0.440	1.600	1.660	92.02	0.20	2.00	 	 	 	 	 	 	 	 	 	 	 	 	 	 	 	 	 	 	1581525086	0.57	1.06
12/02/2020 16:31:27	120220	12022020	163127	91.82	12.419132	-56.989480	91.85	-0.590	1.310	1.070	91.82	-0.10	1.50	 	 	 	 	 	 	 	 	 	 	 	 	 	 	 	 	 	 	1581525087	0.68	1.26
12/02/2020 16:31:28	120220	12022020	163128	91.79	12.419135	-56.989480	91.81	-0.620	0.400	0.480	91.79	-1.00	0.90	 	 	 	 	 	 	 	 	 	 	 	 	 	 	 	 	 	 	1581525088	0.85	1.57
12/02/2020 16:31:29	120220	12022020	163129	91.86	12.419138	-56.989477	91.88	-0.430	-0.900	0.000	91.86	-2.30	0.40	 	 	 	 	 	 	 	 	 	 	 	 	 	 	 	 	 	 	1581525089	0.82	1.52
12/02/2020 16:31:30	120220	12022020	163130	91.87	12.419140	-56.989475	91.89	-0.060	-1.900	-0.210	91.87	-3.30	0.20	 	 	 	 	 	 	 	 	 	 	 	 	 	 	 	 	 	 	1581525090	0.69	1.28
12/02/2020 16:31:31	120220	12022020	163131	91.81	12.419138	-56.989473	91.84	0.380	-2.050	-0.110	91.81	-3.40	0.30	 	 	 	 	 	 	 	 	 	 	 	 	 	 	 	 	 	 	1581525091	0.43	0.80
12/02/2020 16:31:32	120220	12022020	163132	91.71	12.419137	-56.989473	91.74	0.710	-1.460	0.370	91.71	-2.80	0.80	 	 	 	 	 	 	 	 	 	 	 	 	 	 	 	 	 	 	1581525092	0.42	0.78
12/02/2020 16:31:33	120220	12022020	163133	91.56	12.419135	-56.989475	91.60	0.750	-0.520	1.080	91.56	-1.90	1.50	 	 	 	 	 	 	 	 	 	 	 	 	 	 	 	 	 	 	1581525093	0.66	1.22
12/02/2020 16:31:34	120220	12022020	163134	91.49	12.419132	-56.989478	91.56	0.410	0.570	1.610	91.49	-0.80	2.00	 	 	 	 	 	 	 	 	 	 	 	 	 	 	 	 	 	 	1581525094	0.75	1.39
12/02/2020 16:31:35	120220	12022020	163135	91.60	12.419130	-56.989482	91.76	-0.180	1.470	1.750	91.66	0.10	2.10	 	 	 	 	 	 	 	 	 	 	 	 	 	 	 	 	 	 	1581525095	0.80	1.48
12/02/2020 16:31:36	120220	12022020	163136	92.02	12.419128	-56.989485	92.13	-0.680	1.620	1.660	92.02	0.20	2.00	 	 	 	 	 	 	 	 	 	 	 	 	 	 	 	 	 	 	1581525096	0.69	1.28
12/02/2020 16:31:37	120220	12022020	163137	92.22	12.419127	-56.989485	92.35	-0.760	0.770	1.710	92.24	-0.70	2.10	 	 	 	 	 	 	 	 	 	 	 	 	 	 	 	 	 	 	1581525097	0.41	0.76
12/02/2020 16:31:38	120220	12022020	163138	92.26	12.419125	-56.989482	92.36	-0.370	-0.590	1.860	92.26	-2.00	2.30	 	 	 	 	 	 	 	 	 	 	 	 	 	 	 	 	 	 	1581525098	0.85	1.57
12/02/2020 16:31:39	120220	12022020	163139	92.21	12.419123	-56.989477	92.33	0.200	-1.510	1.860	92.21	-2.90	2.30	 	 	 	 	 	 	 	 	 	 	 	 	 	 	 	 	 	 	1581525099	0.89	1.65
12/02/2020 16:31:40	120220	12022020	163140	92.16	12.419125	-56.989477	92.25	0.540	-1.430	1.680	92.16	-2.80	2.10	 	 	 	 	 	 	 	 	 	 	 	 	 	 	 	 	 	 	1581525100	0.35	0.65
12/02/2020 16:31:41	120220	12022020	163141	92.03	12.419127	-56.989478	92.13	0.520	-0.770	1.500	92.03	-2.10	1.90	 	 	 	 	 	 	 	 	 	 	 	 	 	 	 	 	 	 	1581525101	0.72	1.33
12/02/2020 16:31:42	120220	12022020	163142	91.90	12.419128	-56.989482	91.98	0.280	-0.240	1.380	91.90	-1.60	1.80	 	 	 	 	 	 	 	 	 	 	 	 	 	 	 	 	 	 	1581525102	0.63	1.17
12/02/2020 16:31:43	120220	12022020	163143	91.83	12.419128	-56.989482	91.92	0.050	0.030	1.330	91.83	-1.30	1.70	 	 	 	 	 	 	 	 	 	 	 	 	 	 	 	 	 	 	1581525103	0.12	0.22
12/02/2020 16:31:44	120220	12022020	163144	91.87	12.419128	-56.989482	91.96	-0.070	0.140	1.180	91.87	-1.20	1.60	 	 	 	 	 	 	 	 	 	 	 	 	 	 	 	 	 	 	1581525104	0.15	0.28
12/02/2020 16:31:45	120220	12022020	163145	92.08	12.419130	-56.989482	92.18	-0.060	0.190	0.640	92.08	-1.20	1.00	 	 	 	 	 	 	 	 	 	 	 	 	 	 	 	 	 	 	1581525105	0.40	0.74
12/02/2020 16:31:46	120220	12022020	163146	92.36	12.419135	-56.989480	92.45	-0.050	0.240	0.010	92.36	-1.10	0.40	 	 	 	 	 	 	 	 	 	 	 	 	 	 	 	 	 	 	1581525106	0.90	1.67
12/02/2020 16:31:47	120220	12022020	163147	92.55	12.419138	-56.989482	92.63	-0.080	0.150	-0.220	92.55	-1.20	0.20	 	 	 	 	 	 	 	 	 	 	 	 	 	 	 	 	 	 	1581525107	0.75	1.39
12/02/2020 16:31:48	120220	12022020	163148	92.55	12.419138	-56.989480	92.63	-0.150	-0.160	0.190	92.55	-1.50	0.60	 	 	 	 	 	 	 	 	 	 	 	 	 	 	 	 	 	 	1581525108	0.11	0.20
12/02/2020 16:31:49	120220	12022020	163149	92.47	12.419133	-56.989478	92.55	-0.190	-0.570	0.930	92.46	-1.90	1.40	 	 	 	 	 	 	 	 	 	 	 	 	 	 	 	 	 	 	1581525109	0.87	1.61
12/02/2020 16:31:50	120220	12022020	163150	92.37	12.419128	-56.989477	92.46	-0.220	-0.790	1.660	92.37	-2.20	2.10	 	 	 	 	 	 	 	 	 	 	 	 	 	 	 	 	 	 	1581525110	1.29	2.39
12/02/2020 16:31:51	120220	12022020	163151	92.26	12.419122	-56.989477	92.33	-0.290	-0.470	2.290	92.23	-1.80	2.70	 	 	 	 	 	 	 	 	 	 	 	 	 	 	 	 	 	 	1581525111	1.33	2.46
12/02/2020 16:31:52	120220	12022020	163152	92.02	12.419118	-56.989480	92.12	-0.310	0.250	2.580	92.02	-1.10	3.00	 	 	 	 	 	 	 	 	 	 	 	 	 	 	 	 	 	 	1581525112	1.17	2.17
12/02/2020 16:31:53	120220	12022020	163153	91.95	12.419118	-56.989483	92.05	-0.120	0.650	2.170	91.95	-0.70	2.50	 	 	 	 	 	 	 	 	 	 	 	 	 	 	 	 	 	 	1581525113	0.78	1.44
12/02/2020 16:31:54	120220	12022020	163154	92.14	12.419123	-56.989485	92.23	0.280	0.140	1.240	92.14	-1.20	1.60	 	 	 	 	 	 	 	 	 	 	 	 	 	 	 	 	 	 	1581525114	1.16	2.15
12/02/2020 16:31:55	120220	12022020	163155	92.28	12.419130	-56.989480	92.35	0.660	-0.910	0.370	92.28	-2.30	0.80	 	 	 	 	 	 	 	 	 	 	 	 	 	 	 	 	 	 	1581525115	1.72	3.19
12/02/2020 16:31:56	120220	12022020	163156	92.08	12.419135	-56.989475	92.12	0.830	-1.620	-0.110	92.08	-3.00	0.30	 	 	 	 	 	 	 	 	 	 	 	 	 	 	 	 	 	 	1581525116	1.69	3.13
12/02/2020 16:31:57	120220	12022020	163157	91.78	12.419138	-56.989472	91.82	0.720	-1.380	-0.190	91.78	-2.70	0.20	 	 	 	 	 	 	 	 	 	 	 	 	 	 	 	 	 	 	1581525117	1.00	1.85
12/02/2020 16:31:58	120220	12022020	163158	91.79	12.419140	-56.989472	91.87	0.280	-0.200	0.020	91.79	-1.50	0.40	 	 	 	 	 	 	 	 	 	 	 	 	 	 	 	 	 	 	1581525118	0.23	0.43
12/02/2020 16:31:59	120220	12022020	163159	92.11	12.419138	-56.989477	92.22	-0.480	1.270	0.410	92.11	-0.00	0.80	 	 	 	 	 	 	 	 	 	 	 	 	 	 	 	 	 	 	1581525119	1.07	1.98
12/02/2020 16:32:00	120220	12022020	163200	92.53	12.419135	-56.989483	92.63	-1.270	2.080	0.930	92.53	0.70	1.30	 	 	 	 	 	 	 	 	 	 	 	 	 	 	 	 	 	 	1581525120	1.54	2.85
12/02/2020 16:32:01	120220	12022020	163201	92.69	12.419128	-56.989487	92.77	-1.580	1.550	1.600	92.70	0.10	2.00	 	 	 	 	 	 	 	 	 	 	 	 	 	 	 	 	 	 	1581525121	1.46	2.70
12/02/2020 16:32:02	120220	12022020	163202	92.54	12.419122	-56.989483	92.61	-1.090	-0.150	2.290	92.54	-1.60	2.70	1016.30	26.70	26.80	19.40	19.50	627.0	64.0	64.0	438.0	29.3	346.00	11.60	78.00	11.20	51088	10622.0	27.5	27.5	1581525122	1.66	3.07
12/02/2020 16:32:03	120220	12022020	163203	92.20	12.419115	-56.989478	92.25	-0.040	-1.930	2.800	92.20	-3.30	3.20	 	 	 	 	 	 	 	 	 	 	 	 	 	 	 	 	 	 	1581525123	1.87	3.46
12/02/2020 16:32:04	120220	12022020	163204	91.78	12.419112	-56.989472	91.86	0.940	-2.590	3.060	91.78	-3.90	3.50	 	 	 	 	 	 	 	 	 	 	 	 	 	 	 	 	 	 	1581525124	1.31	2.43
12/02/2020 16:32:05	120220	12022020	163205	91.53	12.419113	-56.989472	91.63	1.300	-1.890	2.870	91.53	-3.20	3.20	 	 	 	 	 	 	 	 	 	 	 	 	 	 	 	 	 	 	1581525125	0.31	0.57
12/02/2020 16:32:06	120220	12022020	163206	91.59	12.419118	-56.989475	91.67	0.980	-0.500	2.180	91.59	-1.80	2.50	 	 	 	 	 	 	 	 	 	 	 	 	 	 	 	 	 	 	1581525126	1.20	2.22
12/02/2020 16:32:07	120220	12022020	163207	91.84	12.419125	-56.989478	91.91	0.410	0.600	1.140	91.84	-0.70	1.50	 	 	 	 	 	 	 	 	 	 	 	 	 	 	 	 	 	 	1581525127	1.58	2.93
12/02/2020 16:32:08	120220	12022020	163208	92.13	12.419132	-56.989480	92.17	-0.040	1.030	0.030	92.13	-0.30	0.40	 	 	 	 	 	 	 	 	 	 	 	 	 	 	 	 	 	 	1581525128	1.46	2.70
12/02/2020 16:32:09	120220	12022020	163209	92.27	12.419137	-56.989478	92.31	-0.290	1.050	-0.680	92.27	-0.30	-0.30	 	 	 	 	 	 	 	 	 	 	 	 	 	 	 	 	 	 	1581525129	1.10	2.04
12/02/2020 16:32:10	120220	12022020	163210	92.21	12.419138	-56.989477	92.26	-0.540	0.990	-0.800	92.21	-0.40	-0.40	 	 	 	 	 	 	 	 	 	 	 	 	 	 	 	 	 	 	1581525130	0.46	0.85
12/02/2020 16:32:11	120220	12022020	163211	92.08	12.419137	-56.989478	92.13	-0.910	0.800	-0.410	92.08	-0.60	0.00	 	 	 	 	 	 	 	 	 	 	 	 	 	 	 	 	 	 	1581525131	0.30	0.56
12/02/2020 16:32:12	120220	12022020	163212	91.93	12.419133	-56.989480	91.98	-1.150	0.160	0.270	91.93	-1.20	0.70	 	 	 	 	 	 	 	 	 	 	 	 	 	 	 	 	 	 	1581525132	0.86	1.59
12/02/2020 16:32:13	120220	12022020	163213	91.79	12.419128	-56.989480	91.81	-0.860	-1.050	1.020	91.75	-2.50	1.40	 	 	 	 	 	 	 	 	 	 	 	 	 	 	 	 	 	 	1581525133	1.22	2.26
12/02/2020 16:32:14	120220	12022020	163214	91.54	12.419122	-56.989475	91.60	0.040	-2.290	1.750	91.54	-3.70	2.20	 	 	 	 	 	 	 	 	 	 	 	 	 	 	 	 	 	 	1581525134	1.58	2.93
12/02/2020 16:32:15	120220	12022020	163215	91.37	12.419118	-56.989472	91.42	1.090	-2.570	2.320	91.34	-3.90	2.70	 	 	 	 	 	 	 	 	 	 	 	 	 	 	 	 	 	 	1581525135	1.36	2.52
12/02/2020 16:32:16	120220	12022020	163216	91.26	12.419117	-56.989470	91.35	1.560	-1.510	2.420	91.26	-2.80	2.80	 	 	 	 	 	 	 	 	 	 	 	 	 	 	 	 	 	 	1581525136	0.20	0.37
12/02/2020 16:32:17	120220	12022020	163217	91.24	12.419120	-56.989473	91.30	1.080	0.220	2.180	91.24	-1.10	2.50	 	 	 	 	 	 	 	 	 	 	 	 	 	 	 	 	 	 	1581525137	1.04	1.93
12/02/2020 16:32:18	120220	12022020	163218	91.23	12.419123	-56.989480	91.28	-0.010	1.710	1.820	91.23	0.40	2.20	 	 	 	 	 	 	 	 	 	 	 	 	 	 	 	 	 	 	1581525138	1.39	2.57
12/02/2020 16:32:19	120220	12022020	163219	91.36	12.419125	-56.989483	91.41	-0.970	2.290	1.330	91.36	0.90	1.70	 	 	 	 	 	 	 	 	 	 	 	 	 	 	 	 	 	 	1581525139	1.02	1.89
12/02/2020 16:32:20	120220	12022020	163220	91.59	12.419127	-56.989485	91.62	-1.200	1.590	0.810	91.59	0.20	1.20	 	 	 	 	 	 	 	 	 	 	 	 	 	 	 	 	 	 	1581525140	0.28	0.52
12/02/2020 16:32:21	120220	12022020	163221	91.71	12.419127	-56.989482	91.72	-0.700	-0.010	0.430	91.71	-1.40	0.80	 	 	 	 	 	 	 	 	 	 	 	 	 	 	 	 	 	 	1581525141	0.74	1.37
12/02/2020 16:32:22	120220	12022020	163222	91.58	12.419127	-56.989477	91.56	0.050	-1.510	0.280	91.58	-2.90	0.70	 	 	 	 	 	 	 	 	 	 	 	 	 	 	 	 	 	 	1581525142	1.15	2.13
12/02/2020 16:32:23	120220	12022020	163223	91.19	12.419128	-56.989472	91.18	0.550	-2.080	0.360	91.19	-3.40	0.70	 	 	 	 	 	 	 	 	 	 	 	 	 	 	 	 	 	 	1581525143	0.75	1.39
12/02/2020 16:32:24	120220	12022020	163224	90.80	12.419128	-56.989473	90.81	0.610	-1.500	0.600	90.80	-2.80	1.00	 	 	 	 	 	 	 	 	 	 	 	 	 	 	 	 	 	 	1581525144	0.17	0.31
12/02/2020 16:32:25	120220	12022020	163225	90.55	12.419128	-56.989477	90.57	0.330	-0.340	0.900	90.55	-1.70	1.30	 	 	 	 	 	 	 	 	 	 	 	 	 	 	 	 	 	 	1581525145	0.92	1.70
12/02/2020 16:32:26	120220	12022020	163226	90.56	12.419130	-56.989482	90.61	-0.020	0.470	1.150	90.56	-0.90	1.50	 	 	 	 	 	 	 	 	 	 	 	 	 	 	 	 	 	 	1581525146	0.95	1.76
12/02/2020 16:32:27	120220	12022020	163227	90.94	12.419130	-56.989483	91.02	-0.230	0.490	1.180	90.94	-0.90	1.60	 	 	 	 	 	 	 	 	 	 	 	 	 	 	 	 	 	 	1581525147	0.23	0.43
12/02/2020 16:32:28	120220	12022020	163228	91.43	12.419128	-56.989480	91.49	-0.190	0.060	1.080	91.43	-1.30	1.50	 	 	 	 	 	 	 	 	 	 	 	 	 	 	 	 	 	 	1581525148	0.56	1.04
12/02/2020 16:32:29	120220	12022020	163229	91.56	12.419125	-56.989477	91.59	0.050	-0.440	1.210	91.56	-1.80	1.60	 	 	 	 	 	 	 	 	 	 	 	 	 	 	 	 	 	 	1581525149	0.82	1.52
12/02/2020 16:32:30	120220	12022020	163230	91.20	12.419123	-56.989475	91.22	0.260	-0.580	1.670	91.20	-1.90	2.10	 	 	 	 	 	 	 	 	 	 	 	 	 	 	 	 	 	 	1581525150	0.82	1.52
12/02/2020 16:32:31	120220	12022020	163231	90.61	12.419120	-56.989475	90.63	0.200	-0.120	2.190	90.61	-1.50	2.60	 	 	 	 	 	 	 	 	 	 	 	 	 	 	 	 	 	 	1581525151	0.60	1.11
12/02/2020 16:32:32	120220	12022020	163232	90.18	12.419118	-56.989477	90.21	-0.100	0.630	2.260	90.18	-0.70	2.60	 	 	 	 	 	 	 	 	 	 	 	 	 	 	 	 	 	 	1581525152	0.65	1.20
12/02/2020 16:32:33	120220	12022020	163233	90.23	12.419122	-56.989482	90.28	-0.390	1.060	1.640	90.23	-0.30	2.00	 	 	 	 	 	 	 	 	 	 	 	 	 	 	 	 	 	 	1581525153	1.01	1.87
12/02/2020 16:32:34	120220	12022020	163234	90.70	12.419127	-56.989483	90.75	-0.390	0.550	0.630	90.70	-0.90	1.00	 	 	 	 	 	 	 	 	 	 	 	 	 	 	 	 	 	 	1581525154	1.22	2.26
12/02/2020 16:32:35	120220	12022020	163235	91.17	12.419132	-56.989482	91.19	0.020	-0.920	-0.270	91.17	-2.30	0.10	 	 	 	 	 	 	 	 	 	 	 	 	 	 	 	 	 	 	1581525155	1.33	2.46
12/02/2020 16:32:36	120220	12022020	163236	91.20	12.419135	-56.989473	91.19	0.590	-2.270	-0.530	91.20	-3.60	-0.10	 	 	 	 	 	 	 	 	 	 	 	 	 	 	 	 	 	 	1581525156	1.67	3.09
12/02/2020 16:32:37	120220	12022020	163237	90.74	12.419135	-56.989468	90.73	0.830	-2.160	-0.010	90.74	-3.50	0.40	 	 	 	 	 	 	 	 	 	 	 	 	 	 	 	 	 	 	1581525157	1.05	1.94
12/02/2020 16:32:38	120220	12022020	163238	90.14	12.419132	-56.989472	90.16	0.520	-0.620	0.890	90.14	-1.90	1.30	 	 	 	 	 	 	 	 	 	 	 	 	 	 	 	 	 	 	1581525158	0.85	1.57
12/02/2020 16:32:39	120220	12022020	163239	89.84	12.419128	-56.989478	89.86	-0.090	1.080	1.560	89.80	-0.20	2.00	 	 	 	 	 	 	 	 	 	 	 	 	 	 	 	 	 	 	1581525159	1.59	2.94
12/02/2020 16:32:40	120220	12022020	163240	89.93	12.419127	-56.989483	90.00	-0.600	1.880	1.680	89.93	0.50	2.10	 	 	 	 	 	 	 	 	 	 	 	 	 	 	 	 	 	 	1581525160	1.13	2.09
12/02/2020 16:32:41	120220	12022020	163241	90.30	12.419127	-56.989485	90.47	-0.790	1.560	1.420	90.40	0.20	1.80	 	 	 	 	 	 	 	 	 	 	 	 	 	 	 	 	 	 	1581525161	0.31	0.57
12/02/2020 16:32:42	120220	12022020	163242	90.75	12.419127	-56.989482	90.78	-0.630	0.300	1.170	90.75	-1.10	1.60	 	 	 	 	 	 	 	 	 	 	 	 	 	 	 	 	 	 	1581525162	0.46	0.85
12/02/2020 16:32:43	120220	12022020	163243	90.68	12.419127	-56.989477	90.69	-0.200	-1.250	1.090	90.68	-2.60	1.50	 	 	 	 	 	 	 	 	 	 	 	 	 	 	 	 	 	 	1581525163	1.09	2.02
12/02/2020 16:32:44	120220	12022020	163244	90.45	12.419127	-56.989472	90.47	0.320	-2.010	1.000	90.45	-3.40	1.40	 	 	 	 	 	 	 	 	 	 	 	 	 	 	 	 	 	 	1581525164	1.07	1.98
12/02/2020 16:32:45	120220	12022020	163245	90.40	12.419127	-56.989472	90.45	0.640	-1.490	0.920	90.40	-2.80	1.30	 	 	 	 	 	 	 	 	 	 	 	 	 	 	 	 	 	 	1581525165	0.27	0.50
12/02/2020 16:32:46	120220	12022020	163246	90.43	12.419128	-56.989475	90.48	0.620	-0.370	1.070	90.43	-1.70	1.50	 	 	 	 	 	 	 	 	 	 	 	 	 	 	 	 	 	 	1581525166	0.88	1.63
12/02/2020 16:32:47	120220	12022020	163247	90.30	12.419127	-56.989480	90.32	0.410	0.350	1.370	90.30	-1.00	1.80	 	 	 	 	 	 	 	 	 	 	 	 	 	 	 	 	 	 	1581525167	0.89	1.65
12/02/2020 16:32:48	120220	12022020	163248	90.05	12.419127	-56.989480	90.08	0.270	0.280	1.400	90.05	-1.10	1.80	 	 	 	 	 	 	 	 	 	 	 	 	 	 	 	 	 	 	1581525168	0.05	0.09
12/02/2020 16:32:49	120220	12022020	163249	89.92	12.419130	-56.989477	89.95	0.200	-0.060	1.130	89.92	-1.40	1.50	 	 	 	 	 	 	 	 	 	 	 	 	 	 	 	 	 	 	1581525169	0.83	1.54
12/02/2020 16:32:50	120220	12022020	163250	89.98	12.419132	-56.989473	90.02	-0.000	-0.020	0.830	89.98	-1.40	1.20	 	 	 	 	 	 	 	 	 	 	 	 	 	 	 	 	 	 	1581525170	0.81	1.50
12/02/2020 16:32:51	120220	12022020	163251	90.15	12.419133	-56.989475	90.21	-0.430	0.440	0.670	90.15	-0.90	1.10	 	 	 	 	 	 	 	 	 	 	 	 	 	 	 	 	 	 	1581525171	0.35	0.65
12/02/2020 16:32:52	120220	12022020	163252	90.37	12.419133	-56.989478	90.41	-0.850	0.870	0.560	90.37	-0.50	0.90	 	 	 	 	 	 	 	 	 	 	 	 	 	 	 	 	 	 	1581525172	0.80	1.48
12/02/2020 16:32:53	120220	12022020	163253	90.63	12.419133	-56.989482	90.66	-0.890	0.690	0.480	90.63	-0.70	0.90	 	 	 	 	 	 	 	 	 	 	 	 	 	 	 	 	 	 	1581525173	0.77	1.43
12/02/2020 16:32:54	120220	12022020	163254	90.83	12.419133	-56.989482	90.85	-0.420	-0.350	0.520	90.83	-1.80	0.90	 	 	 	 	 	 	 	 	 	 	 	 	 	 	 	 	 	 	1581525174	0.17	0.31
12/02/2020 16:32:55	120220	12022020	163255	90.73	12.419132	-56.989478	90.73	0.300	-1.680	0.800	90.73	-3.10	1.20	 	 	 	 	 	 	 	 	 	 	 	 	 	 	 	 	 	 	1581525175	0.98	1.81
12/02/2020 16:32:56	120220	12022020	163256	90.27	12.419127	-56.989473	90.28	0.850	-2.310	1.360	90.27	-3.70	1.80	 	 	 	 	 	 	 	 	 	 	 	 	 	 	 	 	 	 	1581525176	1.32	2.44
12/02/2020 16:32:57	120220	12022020	163257	89.78	12.419123	-56.989472	89.82	0.980	-1.780	1.850	89.78	-3.10	2.20	 	 	 	 	 	 	 	 	 	 	 	 	 	 	 	 	 	 	1581525177	0.85	1.57
12/02/2020 16:32:58	120220	12022020	163258	89.61	12.419123	-56.989473	89.67	0.710	-0.330	1.800	89.61	-1.60	2.20	 	 	 	 	 	 	 	 	 	 	 	 	 	 	 	 	 	 	1581525178	0.46	0.85
12/02/2020 16:32:59	120220	12022020	163259	89.73	12.419127	-56.989478	89.79	0.130	1.330	1.130	89.73	0.00	1.50	 	 	 	 	 	 	 	 	 	 	 	 	 	 	 	 	 	 	1581525179	1.40	2.59
12/02/2020 16:33:00	120220	12022020	163300	90.04	12.419135	-56.989485	90.10	-0.560	2.380	0.070	90.04	1.00	0.40	 	 	 	 	 	 	 	 	 	 	 	 	 	 	 	 	 	 	1581525180	2.01	3.72
12/02/2020 16:33:01	120220	12022020	163301	90.51	12.419142	-56.989488	90.55	-1.040	2.130	-0.970	90.51	0.70	-0.60	 	 	 	 	 	 	 	 	 	 	 	 	 	 	 	 	 	 	1581525181	1.71	3.17
12/02/2020 16:33:02	120220	12022020	163302	90.84	12.419145	-56.989488	90.84	-1.040	0.540	-1.470	90.84	-0.90	-1.10	1016.40	26.80	26.80	19.60	19.70	601.0	64.0	64.0	438.0	29.2	353.00	11.30	83.00	10.80	49557	12170.0	27.5	27.5	1581525182	0.75	1.39
12/02/2020 16:33:03	120220	12022020	163303	90.75	12.419143	-56.989482	90.72	-0.500	-1.650	-1.110	90.75	-3.10	-0.70	 	 	 	 	 	 	 	 	 	 	 	 	 	 	 	 	 	 	1581525183	1.22	2.26
12/02/2020 16:33:04	120220	12022020	163304	90.31	12.419138	-56.989475	90.29	0.300	-3.140	-0.180	90.31	-4.50	0.20	 	 	 	 	 	 	 	 	 	 	 	 	 	 	 	 	 	 	1581525184	1.88	3.48
12/02/2020 16:33:05	120220	12022020	163305	89.93	12.419132	-56.989472	89.97	0.910	-2.890	0.740	89.93	-4.20	1.20	 	 	 	 	 	 	 	 	 	 	 	 	 	 	 	 	 	 	1581525185	1.44	2.67
12/02/2020 16:33:06	120220	12022020	163306	89.87	12.419128	-56.989475	89.93	0.950	-1.020	1.280	89.87	-2.30	1.70	 	 	 	 	 	 	 	 	 	 	 	 	 	 	 	 	 	 	1581525186	1.13	2.09
12/02/2020 16:33:07	120220	12022020	163307	90.11	12.419128	-56.989485	90.18	0.390	1.260	1.330	90.11	-0.10	1.70	 	 	 	 	 	 	 	 	 	 	 	 	 	 	 	 	 	 	1581525187	1.92	3.56
12/02/2020 16:33:08	120220	12022020	163308	90.52	12.419130	-56.989493	90.59	-0.360	2.500	1.100	90.52	1.10	1.50	 	 	 	 	 	 	 	 	 	 	 	 	 	 	 	 	 	 	1581525188	1.88	3.48
12/02/2020 16:33:09	120220	12022020	163309	90.95	12.419130	-56.989497	90.99	-0.730	1.950	0.840	90.95	0.50	1.20	 	 	 	 	 	 	 	 	 	 	 	 	 	 	 	 	 	 	1581525189	0.75	1.39
12/02/2020 16:33:10	120220	12022020	163310	91.07	12.419130	-56.989492	91.09	-0.470	-0.080	0.870	91.07	-1.50	1.30	 	 	 	 	 	 	 	 	 	 	 	 	 	 	 	 	 	 	1581525190	0.91	1.69
12/02/2020 16:33:11	120220	12022020	163311	90.75	12.419128	-56.989483	90.77	0.130	-2.110	1.150	90.75	-3.50	1.50	 	 	 	 	 	 	 	 	 	 	 	 	 	 	 	 	 	 	1581525191	1.95	3.61
12/02/2020 16:33:12	120220	12022020	163312	90.48	12.419127	-56.989477	90.54	0.470	-2.370	1.380	90.48	-3.70	1.80	 	 	 	 	 	 	 	 	 	 	 	 	 	 	 	 	 	 	1581525192	1.29	2.39
12/02/2020 16:33:13	120220	12022020	163313	90.65	12.419127	-56.989482	90.73	0.270	-0.810	1.420	90.65	-2.10	1.80	 	 	 	 	 	 	 	 	 	 	 	 	 	 	 	 	 	 	1581525193	0.84	1.56
12/02/2020 16:33:14	120220	12022020	163314	91.13	12.419127	-56.989490	91.19	-0.160	0.850	1.330	91.13	-0.50	1.70	 	 	 	 	 	 	 	 	 	 	 	 	 	 	 	 	 	 	1581525194	2.08	3.85
12/02/2020 16:33:15	120220	12022020	163315	91.54	12.419127	-56.989497	91.59	-0.330	1.170	1.180	91.54	-0.20	1.60	 	 	 	 	 	 	 	 	 	 	 	 	 	 	 	 	 	 	1581525195	1.38	2.56
12/02/2020 16:33:16	120220	12022020	163316	91.68	12.419125	-56.989497	91.69	-0.070	0.210	1.060	91.68	-1.20	1.40	 	 	 	 	 	 	 	 	 	 	 	 	 	 	 	 	 	 	1581525196	0.37	0.69
12/02/2020 16:33:17	120220	12022020	163317	91.53	12.419125	-56.989490	91.48	0.290	-0.850	1.050	91.48	-2.20	1.40	 	 	 	 	 	 	 	 	 	 	 	 	 	 	 	 	 	 	1581525197	1.16	2.15
12/02/2020 16:33:18	120220	12022020	163318	91.18	12.419123	-56.989487	91.18	0.400	-1.090	1.060	91.18	-2.40	1.50	 	 	 	 	 	 	 	 	 	 	 	 	 	 	 	 	 	 	1581525198	0.73	1.35
12/02/2020 16:33:19	120220	12022020	163319	91.13	12.419125	-56.989488	91.18	0.200	-0.480	0.940	91.13	-1.80	1.30	 	 	 	 	 	 	 	 	 	 	 	 	 	 	 	 	 	 	1581525199	0.33	0.61
12/02/2020 16:33:20	120220	12022020	163320	91.46	12.419127	-56.989493	91.52	-0.080	0.270	0.620	91.46	-1.10	1.00	 	 	 	 	 	 	 	 	 	 	 	 	 	 	 	 	 	 	1581525200	0.96	1.78
12/02/2020 16:33:21	120220	12022020	163321	91.88	12.419128	-56.989497	91.93	-0.180	0.460	0.260	91.88	-0.90	0.60	 	 	 	 	 	 	 	 	 	 	 	 	 	 	 	 	 	 	1581525201	0.80	1.48
12/02/2020 16:33:22	120220	12022020	163322	92.01	12.419128	-56.989497	92.05	-0.110	0.030	0.270	92.01	-1.40	0.70	 	 	 	 	 	 	 	 	 	 	 	 	 	 	 	 	 	 	1581525202	0.12	0.22
12/02/2020 16:33:23	120220	12022020	163323	91.75	12.419127	-56.989493	91.77	-0.050	-0.390	0.720	91.75	-1.80	1.10	 	 	 	 	 	 	 	 	 	 	 	 	 	 	 	 	 	 	1581525203	0.59	1.09
12/02/2020 16:33:24	120220	12022020	163324	91.28	12.419123	-56.989493	91.31	-0.090	-0.390	1.260	91.28	-1.70	1.70	 	 	 	 	 	 	 	 	 	 	 	 	 	 	 	 	 	 	1581525204	0.71	1.31
12/02/2020 16:33:25	120220	12022020	163325	90.92	12.419122	-56.989495	90.96	-0.100	-0.240	1.540	90.92	-1.60	1.90	 	 	 	 	 	 	 	 	 	 	 	 	 	 	 	 	 	 	1581525205	0.57	1.06
12/02/2020 16:33:26	120220	12022020	163326	90.92	12.419122	-56.989497	90.97	0.030	-0.280	1.430	90.92	-1.60	1.80	 	 	 	 	 	 	 	 	 	 	 	 	 	 	 	 	 	 	1581525206	0.22	0.41
12/02/2020 16:33:27	120220	12022020	163327	91.20	12.419122	-56.989495	91.23	0.250	-0.480	1.120	91.20	-1.80	1.50	 	 	 	 	 	 	 	 	 	 	 	 	 	 	 	 	 	 	1581525207	0.25	0.46
12/02/2020 16:33:28	120220	12022020	163328	91.40	12.419123	-56.989495	91.41	0.390	-0.590	0.810	91.40	-1.90	1.20	 	 	 	 	 	 	 	 	 	 	 	 	 	 	 	 	 	 	1581525208	0.38	0.70
12/02/2020 16:33:29	120220	12022020	163329	91.38	12.419125	-56.989493	91.37	0.370	-0.410	0.540	91.37	-1.80	0.90	 	 	 	 	 	 	 	 	 	 	 	 	 	 	 	 	 	 	1581525209	0.39	0.72
12/02/2020 16:33:30	120220	12022020	163330	91.31	12.419127	-56.989495	91.30	0.180	0.040	0.370	91.31	-1.30	0.80	 	 	 	 	 	 	 	 	 	 	 	 	 	 	 	 	 	 	1581525210	0.37	0.69
12/02/2020 16:33:31	120220	12022020	163331	91.23	12.419127	-56.989497	91.20	-0.080	0.430	0.530	91.19	-0.90	0.90	 	 	 	 	 	 	 	 	 	 	 	 	 	 	 	 	 	 	1581525211	0.35	0.65
12/02/2020 16:33:32	120220	12022020	163332	90.98	12.419125	-56.989497	90.98	-0.300	0.520	0.940	90.98	-0.90	1.30	 	 	 	 	 	 	 	 	 	 	 	 	 	 	 	 	 	 	1581525212	0.55	1.02
12/02/2020 16:33:33	120220	12022020	163333	90.76	12.419123	-56.989498	90.74	-0.380	0.270	1.150	90.76	-1.10	1.50	 	 	 	 	 	 	 	 	 	 	 	 	 	 	 	 	 	 	1581525213	0.31	0.57
12/02/2020 16:33:34	120220	12022020	163334	90.62	12.419123	-56.989497	90.59	-0.370	-0.140	1.110	90.62	-1.50	1.50	 	 	 	 	 	 	 	 	 	 	 	 	 	 	 	 	 	 	1581525214	0.16	0.30
12/02/2020 16:33:35	120220	12022020	163335	90.64	12.419125	-56.989497	90.63	-0.260	-0.600	0.920	90.64	-2.00	1.30	 	 	 	 	 	 	 	 	 	 	 	 	 	 	 	 	 	 	1581525215	0.26	0.48
12/02/2020 16:33:36	120220	12022020	163336	90.70	12.419125	-56.989495	90.68	0.020	-1.030	0.790	90.70	-2.40	1.20	 	 	 	 	 	 	 	 	 	 	 	 	 	 	 	 	 	 	1581525216	0.32	0.59
12/02/2020 16:33:37	120220	12022020	163337	90.65	12.419123	-56.989493	90.61	0.400	-1.210	0.850	90.65	-2.50	1.20	 	 	 	 	 	 	 	 	 	 	 	 	 	 	 	 	 	 	1581525217	0.49	0.91
12/02/2020 16:33:38	120220	12022020	163338	90.55	12.419125	-56.989492	90.52	0.570	-0.820	0.990	90.55	-2.20	1.40	 	 	 	 	 	 	 	 	 	 	 	 	 	 	 	 	 	 	1581525218	0.30	0.56
12/02/2020 16:33:39	120220	12022020	163339	90.50	12.419125	-56.989493	90.49	0.340	0.040	1.000	90.50	-1.30	1.40	 	 	 	 	 	 	 	 	 	 	 	 	 	 	 	 	 	 	1581525219	0.35	0.65
12/02/2020 16:33:40	120220	12022020	163340	90.59	12.419127	-56.989495	90.60	-0.060	0.800	0.790	90.59	-0.60	1.20	 	 	 	 	 	 	 	 	 	 	 	 	 	 	 	 	 	 	1581525220	0.67	1.24
12/02/2020 16:33:41	120220	12022020	163341	90.85	12.419128	-56.989497	90.88	-0.280	0.890	0.440	90.85	-0.50	0.80	 	 	 	 	 	 	 	 	 	 	 	 	 	 	 	 	 	 	1581525221	0.44	0.81
12/02/2020 16:33:42	120220	12022020	163342	91.02	12.419128	-56.989497	91.04	-0.310	0.330	0.360	91.02	-1.10	0.80	 	 	 	 	 	 	 	 	 	 	 	 	 	 	 	 	 	 	1581525222	0.36	0.67
12/02/2020 16:33:43	120220	12022020	163343	90.88	12.419128	-56.989493	90.89	-0.330	-0.360	0.690	90.88	-1.70	1.10	 	 	 	 	 	 	 	 	 	 	 	 	 	 	 	 	 	 	1581525223	0.67	1.24
12/02/2020 16:33:44	120220	12022020	163344	90.63	12.419125	-56.989490	90.64	-0.420	-0.660	1.100	90.63	-2.00	1.50	 	 	 	 	 	 	 	 	 	 	 	 	 	 	 	 	 	 	1581525224	0.66	1.22
12/02/2020 16:33:45	120220	12022020	163345	90.54	12.419123	-56.989492	90.58	-0.460	-0.490	1.280	90.54	-1.90	1.70	 	 	 	 	 	 	 	 	 	 	 	 	 	 	 	 	 	 	1581525225	0.42	0.78
12/02/2020 16:33:46	120220	12022020	163346	90.62	12.419123	-56.989493	90.64	-0.290	-0.310	1.170	90.62	-1.70	1.60	 	 	 	 	 	 	 	 	 	 	 	 	 	 	 	 	 	 	1581525226	0.38	0.70
12/02/2020 16:33:47	120220	12022020	163347	90.69	12.419123	-56.989493	90.69	0.100	-0.440	0.960	90.69	-1.80	1.40	 	 	 	 	 	 	 	 	 	 	 	 	 	 	 	 	 	 	1581525227	0.06	0.11
12/02/2020 16:33:48	120220	12022020	163348	90.71	12.419125	-56.989490	90.71	0.540	-0.650	0.770	90.71	-2.00	1.20	 	 	 	 	 	 	 	 	 	 	 	 	 	 	 	 	 	 	1581525228	0.53	0.98
12/02/2020 16:33:49	120220	12022020	163349	90.76	12.419127	-56.989488	90.76	0.750	-0.550	0.530	90.76	-1.90	0.90	 	 	 	 	 	 	 	 	 	 	 	 	 	 	 	 	 	 	1581525229	0.74	1.37
12/02/2020 16:33:50	120220	12022020	163350	90.75	12.419132	-56.989488	90.73	0.600	-0.210	0.320	90.75	-1.60	0.70	 	 	 	 	 	 	 	 	 	 	 	 	 	 	 	 	 	 	1581525230	0.82	1.52
12/02/2020 16:33:51	120220	12022020	163351	90.60	12.419133	-56.989488	90.58	0.170	0.140	0.390	90.60	-1.20	0.80	 	 	 	 	 	 	 	 	 	 	 	 	 	 	 	 	 	 	1581525231	0.49	0.91
12/02/2020 16:33:52	120220	12022020	163352	90.47	12.419133	-56.989488	90.46	-0.330	0.410	0.700	90.47	-0.90	1.10	 	 	 	 	 	 	 	 	 	 	 	 	 	 	 	 	 	 	1581525232	0.08	0.15
12/02/2020 16:33:53	120220	12022020	163353	90.56	12.419132	-56.989488	90.66	-0.660	0.500	0.890	90.62	-0.90	1.30	 	 	 	 	 	 	 	 	 	 	 	 	 	 	 	 	 	 	1581525233	0.39	0.72
12/02/2020 16:33:54	120220	12022020	163354	90.99	12.419130	-56.989488	91.02	-0.710	0.250	0.900	90.99	-1.10	1.30	 	 	 	 	 	 	 	 	 	 	 	 	 	 	 	 	 	 	1581525234	0.41	0.76
12/02/2020 16:33:55	120220	12022020	163355	91.17	12.419128	-56.989487	91.18	-0.510	-0.230	1.010	91.17	-1.60	1.40	 	 	 	 	 	 	 	 	 	 	 	 	 	 	 	 	 	 	1581525235	0.48	0.89
12/02/2020 16:33:56	120220	12022020	163356	90.88	12.419125	-56.989485	90.87	-0.190	-0.660	1.340	90.88	-2.00	1.70	 	 	 	 	 	 	 	 	 	 	 	 	 	 	 	 	 	 	1581525236	0.58	1.07
12/02/2020 16:33:57	120220	12022020	163357	90.33	12.419123	-56.989483	90.33	0.130	-0.810	1.560	90.33	-2.20	2.00	 	 	 	 	 	 	 	 	 	 	 	 	 	 	 	 	 	 	1581525237	0.50	0.93
12/02/2020 16:33:58	120220	12022020	163358	90.08	12.419125	-56.989482	90.10	0.360	-0.790	1.330	90.08	-2.10	1.70	 	 	 	 	 	 	 	 	 	 	 	 	 	 	 	 	 	 	1581525238	0.26	0.48
12/02/2020 16:33:59	120220	12022020	163359	90.21	12.419128	-56.989480	90.22	0.460	-0.710	0.900	90.21	-2.10	1.30	 	 	 	 	 	 	 	 	 	 	 	 	 	 	 	 	 	 	1581525239	0.74	1.37
12/02/2020 16:34:00	120220	12022020	163400	90.38	12.419132	-56.989478	90.37	0.390	-0.450	0.500	90.38	-1.80	0.90	 	 	 	 	 	 	 	 	 	 	 	 	 	 	 	 	 	 	1581525240	0.81	1.50
12/02/2020 16:34:01	120220	12022020	163401	90.42	12.419133	-56.989478	90.39	0.170	0.140	0.160	90.42	-1.20	0.60	 	 	 	 	 	 	 	 	 	 	 	 	 	 	 	 	 	 	1581525241	0.59	1.09
12/02/2020 16:34:02	120220	12022020	163402	90.38	12.419137	-56.989480	90.36	-0.080	0.830	-0.070	90.38	-0.50	0.30	1016.30	26.80	26.80	19.30	19.40	597.0	63.0	63.0	438.0	29.2	352.00	11.60	82.00	11.30	49344	12950.0	27.5	27.5	1581525242	0.57	1.06
12/02/2020 16:34:03	120220	12022020	163403	90.28	12.419138	-56.989482	90.26	-0.290	1.110	-0.200	90.28	-0.30	0.20	 	 	 	 	 	 	 	 	 	 	 	 	 	 	 	 	 	 	1581525243	0.69	1.28
12/02/2020 16:34:04	120220	12022020	163404	90.17	12.419140	-56.989482	90.15	-0.390	0.580	-0.140	90.17	-0.80	0.30	 	 	 	 	 	 	 	 	 	 	 	 	 	 	 	 	 	 	1581525244	0.32	0.59
12/02/2020 16:34:05	120220	12022020	163405	90.05	12.419138	-56.989478	90.05	-0.280	-0.660	0.220	90.05	-2.10	0.60	 	 	 	 	 	 	 	 	 	 	 	 	 	 	 	 	 	 	1581525245	0.71	1.31
12/02/2020 16:34:06	120220	12022020	163406	89.97	12.419137	-56.989473	89.99	0.050	-1.760	0.710	89.97	-3.10	1.10	 	 	 	 	 	 	 	 	 	 	 	 	 	 	 	 	 	 	1581525246	1.31	2.43
12/02/2020 16:34:07	120220	12022020	163407	89.98	12.419135	-56.989468	90.00	0.360	-1.870	1.140	89.98	-3.20	1.50	 	 	 	 	 	 	 	 	 	 	 	 	 	 	 	 	 	 	1581525247	1.02	1.89
12/02/2020 16:34:08	120220	12022020	163408	89.95	12.419133	-56.989468	89.98	0.320	-0.870	1.640	89.95	-2.20	2.00	 	 	 	 	 	 	 	 	 	 	 	 	 	 	 	 	 	 	1581525248	0.51	0.94
12/02/2020 16:34:09	120220	12022020	163409	89.75	12.419128	-56.989473	89.78	-0.120	0.550	2.070	89.75	-0.80	2.50	 	 	 	 	 	 	 	 	 	 	 	 	 	 	 	 	 	 	1581525249	1.19	2.20
12/02/2020 16:34:10	120220	12022020	163410	89.46	12.419125	-56.989477	89.46	-0.550	1.340	2.060	89.46	-0.00	2.40	 	 	 	 	 	 	 	 	 	 	 	 	 	 	 	 	 	 	1581525250	1.19	2.20
12/02/2020 16:34:11	120220	12022020	163411	89.23	12.419125	-56.989477	89.24	-0.470	0.900	1.410	89.23	-0.50	1.80	 	 	 	 	 	 	 	 	 	 	 	 	 	 	 	 	 	 	1581525251	0.07	0.13
12/02/2020 16:34:12	120220	12022020	163412	89.23	12.419132	-56.989472	89.23	0.060	-0.110	0.240	89.23	-1.50	0.60	 	 	 	 	 	 	 	 	 	 	 	 	 	 	 	 	 	 	1581525252	1.65	3.06
12/02/2020 16:34:13	120220	12022020	163413	89.50	12.419142	-56.989468	89.51	0.420	-0.610	-0.910	89.50	-2.00	-0.50	 	 	 	 	 	 	 	 	 	 	 	 	 	 	 	 	 	 	1581525253	2.26	4.19
12/02/2020 16:34:14	120220	12022020	163414	89.95	12.419150	-56.989468	89.95	0.250	-0.370	-1.700	89.95	-1.70	-1.30	 	 	 	 	 	 	 	 	 	 	 	 	 	 	 	 	 	 	1581525254	1.77	3.28
12/02/2020 16:34:15	120220	12022020	163415	90.26	12.419153	-56.989472	90.25	-0.170	-0.080	-1.890	90.26	-1.40	-1.50	 	 	 	 	 	 	 	 	 	 	 	 	 	 	 	 	 	 	1581525255	1.07	1.98
12/02/2020 16:34:16	120220	12022020	163416	90.08	12.419150	-56.989473	90.06	-0.240	-0.550	-1.160	90.08	-1.90	-0.70	 	 	 	 	 	 	 	 	 	 	 	 	 	 	 	 	 	 	1581525256	0.56	1.04
12/02/2020 16:34:17	120220	12022020	163417	89.51	12.419143	-56.989468	89.48	0.160	-1.420	0.260	89.51	-2.80	0.70	 	 	 	 	 	 	 	 	 	 	 	 	 	 	 	 	 	 	1581525257	1.82	3.37
12/02/2020 16:34:18	120220	12022020	163418	88.86	12.419135	-56.989463	88.88	0.480	-1.450	1.770	88.86	-2.80	2.20	 	 	 	 	 	 	 	 	 	 	 	 	 	 	 	 	 	 	1581525258	2.19	4.06
12/02/2020 16:34:19	120220	12022020	163419	88.58	12.419128	-56.989463	88.64	0.270	-0.240	2.690	88.57	-1.50	3.10	 	 	 	 	 	 	 	 	 	 	 	 	 	 	 	 	 	 	1581525259	1.40	2.59
12/02/2020 16:34:20	120220	12022020	163420	88.92	12.419125	-56.989468	89.04	-0.300	1.200	2.680	88.92	-0.10	3.00	 	 	 	 	 	 	 	 	 	 	 	 	 	 	 	 	 	 	1581525260	1.34	2.48
12/02/2020 16:34:21	120220	12022020	163421	89.52	12.419127	-56.989473	89.76	-0.620	1.480	1.900	89.67	0.10	2.30	 	 	 	 	 	 	 	 	 	 	 	 	 	 	 	 	 	 	1581525261	1.10	2.04
12/02/2020 16:34:22	120220	12022020	163422	90.19	12.419130	-56.989472	90.24	-0.350	0.480	1.030	90.19	-0.90	1.40	 	 	 	 	 	 	 	 	 	 	 	 	 	 	 	 	 	 	1581525262	0.77	1.43
12/02/2020 16:34:23	120220	12022020	163423	90.23	12.419133	-56.989467	90.22	0.250	-0.670	0.480	90.23	-2.00	0.90	 	 	 	 	 	 	 	 	 	 	 	 	 	 	 	 	 	 	1581525263	1.29	2.39
12/02/2020 16:34:24	120220	12022020	163424	90.05	12.419135	-56.989463	90.03	0.610	-1.000	0.110	90.05	-2.30	0.50	 	 	 	 	 	 	 	 	 	 	 	 	 	 	 	 	 	 	1581525264	0.92	1.70
12/02/2020 16:34:25	120220	12022020	163425	89.95	12.419138	-56.989465	89.92	0.460	-0.620	-0.160	89.95	-1.90	0.20	 	 	 	 	 	 	 	 	 	 	 	 	 	 	 	 	 	 	1581525265	0.58	1.07
12/02/2020 16:34:26	120220	12022020	163426	89.86	12.419140	-56.989468	89.82	-0.030	-0.150	-0.100	89.86	-1.50	0.30	 	 	 	 	 	 	 	 	 	 	 	 	 	 	 	 	 	 	1581525266	0.74	1.37
12/02/2020 16:34:27	120220	12022020	163427	89.67	12.419140	-56.989470	89.64	-0.480	0.020	0.210	89.67	-1.30	0.60	 	 	 	 	 	 	 	 	 	 	 	 	 	 	 	 	 	 	1581525267	0.47	0.87
12/02/2020 16:34:28	120220	12022020	163428	89.60	12.419138	-56.989470	89.58	-0.520	-0.180	0.450	89.60	-1.50	0.90	 	 	 	 	 	 	 	 	 	 	 	 	 	 	 	 	 	 	1581525268	0.23	0.43
12/02/2020 16:34:29	120220	12022020	163429	89.78	12.419138	-56.989468	89.77	-0.070	-0.650	0.500	89.78	-2.00	0.90	 	 	 	 	 	 	 	 	 	 	 	 	 	 	 	 	 	 	1581525269	0.41	0.76
12/02/2020 16:34:30	120220	12022020	163430	90.09	12.419137	-56.989465	90.09	0.540	-1.010	0.510	90.09	-2.40	0.90	 	 	 	 	 	 	 	 	 	 	 	 	 	 	 	 	 	 	1581525270	0.70	1.30
12/02/2020 16:34:31	120220	12022020	163431	90.23	12.419137	-56.989463	90.20	0.780	-0.810	0.700	90.23	-2.10	1.10	 	 	 	 	 	 	 	 	 	 	 	 	 	 	 	 	 	 	1581525271	0.58	1.07
12/02/2020 16:34:32	120220	12022020	163432	90.07	12.419135	-56.989463	90.04	0.450	-0.030	1.090	90.07	-1.30	1.50	 	 	 	 	 	 	 	 	 	 	 	 	 	 	 	 	 	 	1581525272	0.43	0.80
12/02/2020 16:34:33	120220	12022020	163433	89.83	12.419132	-56.989465	89.81	-0.160	0.860	1.470	89.83	-0.50	1.90	 	 	 	 	 	 	 	 	 	 	 	 	 	 	 	 	 	 	1581525273	0.82	1.52
12/02/2020 16:34:34	120220	12022020	163434	89.66	12.419130	-56.989468	89.67	-0.660	1.360	1.670	89.66	0.00	2.10	 	 	 	 	 	 	 	 	 	 	 	 	 	 	 	 	 	 	1581525274	0.82	1.52
12/02/2020 16:34:35	120220	12022020	163435	89.70	12.419128	-56.989470	89.74	-0.870	1.220	1.550	89.70	-0.10	1.90	 	 	 	 	 	 	 	 	 	 	 	 	 	 	 	 	 	 	1581525275	0.51	0.94
12/02/2020 16:34:36	120220	12022020	163436	90.06	12.419130	-56.989472	90.11	-0.700	0.370	0.910	90.06	-1.00	1.30	 	 	 	 	 	 	 	 	 	 	 	 	 	 	 	 	 	 	1581525276	0.37	0.69
12/02/2020 16:34:37	120220	12022020	163437	90.49	12.419133	-56.989470	90.51	-0.170	-1.000	0.110	90.49	-2.40	0.50	 	 	 	 	 	 	 	 	 	 	 	 	 	 	 	 	 	 	1581525277	0.97	1.80
12/02/2020 16:34:38	120220	12022020	163438	90.48	12.419138	-56.989465	90.45	0.560	-2.230	-0.200	90.48	-3.60	0.20	 	 	 	 	 	 	 	 	 	 	 	 	 	 	 	 	 	 	1581525278	1.17	2.17
12/02/2020 16:34:39	120220	12022020	163439	89.88	12.419138	-56.989462	89.84	1.110	-2.460	0.150	89.88	-3.80	0.60	 	 	 	 	 	 	 	 	 	 	 	 	 	 	 	 	 	 	1581525279	0.88	1.63
12/02/2020 16:34:40	120220	12022020	163440	89.25	12.419138	-56.989462	89.26	1.050	-1.290	0.780	89.25	-2.60	1.20	 	 	 	 	 	 	 	 	 	 	 	 	 	 	 	 	 	 	1581525280	0.15	0.28
12/02/2020 16:34:41	120220	12022020	163441	89.08	12.419137	-56.989467	89.14	0.370	0.540	1.330	89.08	-0.70	1.70	 	 	 	 	 	 	 	 	 	 	 	 	 	 	 	 	 	 	1581525281	1.22	2.26
12/02/2020 16:34:42	120220	12022020	163442	89.41	12.419133	-56.989473	89.51	-0.430	1.750	1.520	89.41	0.40	1.90	 	 	 	 	 	 	 	 	 	 	 	 	 	 	 	 	 	 	1581525282	1.49	2.76
12/02/2020 16:34:43	120220	12022020	163443	89.94	12.419132	-56.989475	90.18	-0.750	1.480	1.230	90.09	0.10	1.60	 	 	 	 	 	 	 	 	 	 	 	 	 	 	 	 	 	 	1581525283	0.55	1.02
12/02/2020 16:34:44	120220	12022020	163444	90.61	12.419132	-56.989472	90.65	-0.460	0.120	0.930	90.61	-1.30	1.30	 	 	 	 	 	 	 	 	 	 	 	 	 	 	 	 	 	 	1581525284	0.89	1.65
12/02/2020 16:34:45	120220	12022020	163445	90.53	12.419130	-56.989465	90.51	-0.010	-0.960	1.050	90.53	-2.30	1.50	 	 	 	 	 	 	 	 	 	 	 	 	 	 	 	 	 	 	1581525285	1.46	2.70
12/02/2020 16:34:46	120220	12022020	163446	90.06	12.419127	-56.989462	90.03	0.130	-0.760	1.400	90.06	-2.10	1.80	 	 	 	 	 	 	 	 	 	 	 	 	 	 	 	 	 	 	1581525286	0.77	1.43
12/02/2020 16:34:47	120220	12022020	163447	89.66	12.419125	-56.989467	89.66	-0.100	0.200	1.590	89.66	-1.10	2.00	 	 	 	 	 	 	 	 	 	 	 	 	 	 	 	 	 	 	1581525287	1.08	2.00
12/02/2020 16:34:48	120220	12022020	163448	89.69	12.419127	-56.989473	89.71	-0.370	0.710	1.270	89.69	-0.60	1.70	 	 	 	 	 	 	 	 	 	 	 	 	 	 	 	 	 	 	1581525288	1.46	2.70
12/02/2020 16:34:49	120220	12022020	163449	90.02	12.419132	-56.989477	90.02	-0.350	0.220	0.550	90.02	-1.10	0.90	 	 	 	 	 	 	 	 	 	 	 	 	 	 	 	 	 	 	1581525289	1.18	2.19
12/02/2020 16:34:50	120220	12022020	163450	90.21	12.419137	-56.989475	90.20	-0.010	-0.870	-0.020	90.21	-2.20	0.40	 	 	 	 	 	 	 	 	 	 	 	 	 	 	 	 	 	 	1581525290	1.12	2.07
12/02/2020 16:34:51	120220	12022020	163451	90.15	12.419138	-56.989472	90.12	0.390	-1.720	-0.130	90.15	-3.00	0.30	 	 	 	 	 	 	 	 	 	 	 	 	 	 	 	 	 	 	1581525291	0.96	1.78
12/02/2020 16:34:52	120220	12022020	163452	89.96	12.419137	-56.989468	89.96	0.610	-1.810	0.230	89.96	-3.10	0.60	 	 	 	 	 	 	 	 	 	 	 	 	 	 	 	 	 	 	1581525292	0.72	1.33
12/02/2020 16:34:53	120220	12022020	163453	89.68	12.419132	-56.989468	89.69	0.620	-1.130	0.930	89.68	-2.40	1.30	 	 	 	 	 	 	 	 	 	 	 	 	 	 	 	 	 	 	1581525293	1.12	2.07
12/02/2020 16:34:54	120220	12022020	163454	89.35	12.419127	-56.989470	89.39	0.420	0.030	1.500	89.35	-1.30	1.90	 	 	 	 	 	 	 	 	 	 	 	 	 	 	 	 	 	 	1581525294	1.12	2.07
12/02/2020 16:34:55	120220	12022020	163455	89.34	12.419125	-56.989473	89.46	0.000	1.200	1.440	89.39	-0.10	1.80	 	 	 	 	 	 	 	 	 	 	 	 	 	 	 	 	 	 	1581525295	0.79	1.46
12/02/2020 16:34:56	120220	12022020	163456	89.92	12.419128	-56.989477	90.00	-0.490	1.890	0.620	89.92	0.60	1.00	 	 	 	 	 	 	 	 	 	 	 	 	 	 	 	 	 	 	1581525296	1.08	2.00
12/02/2020 16:34:57	120220	12022020	163457	90.41	12.419133	-56.989480	90.53	-0.770	1.630	-0.290	90.49	0.30	0.10	 	 	 	 	 	 	 	 	 	 	 	 	 	 	 	 	 	 	1581525297	1.31	2.43
12/02/2020 16:34:58	120220	12022020	163458	90.62	12.419137	-56.989480	90.61	-0.630	0.410	-0.580	90.62	-1.00	-0.20	 	 	 	 	 	 	 	 	 	 	 	 	 	 	 	 	 	 	1581525298	0.75	1.39
12/02/2020 16:34:59	120220	12022020	163459	90.37	12.419137	-56.989477	90.36	-0.170	-1.010	-0.280	90.37	-2.40	0.10	 	 	 	 	 	 	 	 	 	 	 	 	 	 	 	 	 	 	1581525299	0.69	1.28
12/02/2020 16:35:00	120220	12022020	163500	90.16	12.419135	-56.989473	90.18	0.320	-1.760	0.340	90.16	-3.10	0.80	 	 	 	 	 	 	 	 	 	 	 	 	 	 	 	 	 	 	1581525300	0.64	1.19
12/02/2020 16:35:01	120220	12022020	163501	90.04	12.419132	-56.989475	90.07	0.550	-1.740	1.070	90.04	-3.10	1.50	 	 	 	 	 	 	 	 	 	 	 	 	 	 	 	 	 	 	1581525301	0.64	1.19
12/02/2020 16:35:02	120220	12022020	163502	89.96	12.419128	-56.989477	89.99	0.500	-1.420	1.690	89.96	-2.70	2.10	1016.30	26.80	26.80	19.60	19.60	634.0	64.0	64.0	437.0	29.2	353.00	10.90	82.00	10.50	51660	11111.0	27.6	27.5	1581525302	0.88	1.63
12/02/2020 16:35:03	120220	12022020	163503	89.89	12.419123	-56.989477	89.93	0.330	-0.990	2.130	89.89	-2.30	2.50	 	 	 	 	 	 	 	 	 	 	 	 	 	 	 	 	 	 	1581525303	0.97	1.80
12/02/2020 16:35:04	120220	12022020	163504	89.92	12.419120	-56.989477	89.97	0.100	-0.120	2.250	89.92	-1.40	2.60	 	 	 	 	 	 	 	 	 	 	 	 	 	 	 	 	 	 	1581525304	0.85	1.57
12/02/2020 16:35:05	120220	12022020	163505	90.02	12.419118	-56.989478	90.05	-0.160	1.100	1.920	90.02	-0.20	2.30	 	 	 	 	 	 	 	 	 	 	 	 	 	 	 	 	 	 	1581525305	0.73	1.35
12/02/2020 16:35:06	120220	12022020	163506	90.19	12.419120	-56.989483	90.21	-0.280	1.770	1.070	90.19	0.40	1.40	 	 	 	 	 	 	 	 	 	 	 	 	 	 	 	 	 	 	1581525306	1.02	1.89
12/02/2020 16:35:07	120220	12022020	163507	90.35	12.419127	-56.989485	90.34	-0.140	1.230	-0.060	90.35	-0.10	0.30	 	 	 	 	 	 	 	 	 	 	 	 	 	 	 	 	 	 	1581525307	1.39	2.57
12/02/2020 16:35:08	120220	12022020	163508	90.40	12.419135	-56.989482	90.36	0.080	-0.100	-0.980	90.40	-1.50	-0.60	 	 	 	 	 	 	 	 	 	 	 	 	 	 	 	 	 	 	1581525308	2.04	3.78
12/02/2020 16:35:09	120220	12022020	163509	90.46	12.419142	-56.989477	90.48	0.080	-1.190	-1.390	90.49	-2.50	-1.00	 	 	 	 	 	 	 	 	 	 	 	 	 	 	 	 	 	 	1581525309	1.67	3.09
12/02/2020 16:35:10	120220	12022020	163510	90.64	12.419142	-56.989475	90.65	-0.110	-1.380	-1.170	90.64	-2.70	-0.80	 	 	 	 	 	 	 	 	 	 	 	 	 	 	 	 	 	 	1581525310	0.36	0.67
12/02/2020 16:35:11	120220	12022020	163511	90.59	12.419137	-56.989478	90.59	-0.210	-0.870	-0.280	90.56	-2.20	0.10	 	 	 	 	 	 	 	 	 	 	 	 	 	 	 	 	 	 	1581525311	1.20	2.22
12/02/2020 16:35:12	120220	12022020	163512	90.40	12.419130	-56.989482	90.45	-0.100	-0.250	0.790	90.40	-1.60	1.20	 	 	 	 	 	 	 	 	 	 	 	 	 	 	 	 	 	 	1581525312	1.70	3.15
12/02/2020 16:35:13	120220	12022020	163513	90.43	12.419123	-56.989483	90.49	0.040	0.150	1.540	90.43	-1.20	1.90	 	 	 	 	 	 	 	 	 	 	 	 	 	 	 	 	 	 	1581525313	1.38	2.56
12/02/2020 16:35:14	120220	12022020	163514	90.60	12.419120	-56.989485	90.67	0.110	0.050	1.800	90.60	-1.30	2.20	 	 	 	 	 	 	 	 	 	 	 	 	 	 	 	 	 	 	1581525314	0.75	1.39
12/02/2020 16:35:15	120220	12022020	163515	90.75	12.419120	-56.989483	90.81	0.200	-0.550	1.810	90.75	-1.90	2.20	 	 	 	 	 	 	 	 	 	 	 	 	 	 	 	 	 	 	1581525315	0.47	0.87
12/02/2020 16:35:16	120220	12022020	163516	90.81	12.419118	-56.989478	90.88	0.430	-1.140	1.830	90.81	-2.50	2.20	 	 	 	 	 	 	 	 	 	 	 	 	 	 	 	 	 	 	1581525316	0.92	1.70
12/02/2020 16:35:17	120220	12022020	163517	90.80	12.419118	-56.989475	90.85	0.650	-0.940	1.740	90.80	-2.20	2.10	 	 	 	 	 	 	 	 	 	 	 	 	 	 	 	 	 	 	1581525317	0.77	1.43
12/02/2020 16:35:18	120220	12022020	163518	90.81	12.419122	-56.989477	90.87	0.430	0.300	1.370	90.81	-1.00	1.80	 	 	 	 	 	 	 	 	 	 	 	 	 	 	 	 	 	 	1581525318	0.56	1.04
12/02/2020 16:35:19	120220	12022020	163519	91.03	12.419125	-56.989483	91.10	-0.310	1.670	0.920	91.03	0.40	1.30	 	 	 	 	 	 	 	 	 	 	 	 	 	 	 	 	 	 	1581525319	1.52	2.82
12/02/2020 16:35:20	120220	12022020	163520	91.42	12.419127	-56.989490	91.49	-1.120	2.010	0.600	91.42	0.60	1.00	 	 	 	 	 	 	 	 	 	 	 	 	 	 	 	 	 	 	1581525320	1.42	2.63
12/02/2020 16:35:21	120220	12022020	163521	91.72	12.419127	-56.989492	91.76	-1.320	0.870	0.370	91.72	-0.50	0.80	 	 	 	 	 	 	 	 	 	 	 	 	 	 	 	 	 	 	1581525321	0.36	0.67
12/02/2020 16:35:22	120220	12022020	163522	91.73	12.419125	-56.989487	91.77	-0.720	-1.050	0.300	91.73	-2.40	0.70	 	 	 	 	 	 	 	 	 	 	 	 	 	 	 	 	 	 	1581525322	0.91	1.69
12/02/2020 16:35:23	120220	12022020	163523	91.44	12.419123	-56.989480	91.48	0.200	-2.450	0.670	91.44	-3.80	1.10	 	 	 	 	 	 	 	 	 	 	 	 	 	 	 	 	 	 	1581525323	1.37	2.54
12/02/2020 16:35:24	120220	12022020	163524	91.13	12.419120	-56.989478	91.19	0.860	-2.450	1.260	91.13	-3.70	1.70	 	 	 	 	 	 	 	 	 	 	 	 	 	 	 	 	 	 	1581525324	0.93	1.72
12/02/2020 16:35:25	120220	12022020	163525	91.05	12.419117	-56.989480	91.12	1.000	-1.420	1.590	91.05	-2.70	2.00	 	 	 	 	 	 	 	 	 	 	 	 	 	 	 	 	 	 	1581525325	0.75	1.39
12/02/2020 16:35:26	120220	12022020	163526	91.12	12.419117	-56.989483	91.19	0.800	-0.370	1.520	91.12	-1.70	1.90	 	 	 	 	 	 	 	 	 	 	 	 	 	 	 	 	 	 	1581525326	0.68	1.26
12/02/2020 16:35:27	120220	12022020	163527	91.25	12.419118	-56.989483	91.30	0.510	0.250	1.160	91.25	-1.10	1.60	 	 	 	 	 	 	 	 	 	 	 	 	 	 	 	 	 	 	1581525327	0.33	0.61
12/02/2020 16:35:28	120220	12022020	163528	91.42	12.419120	-56.989482	91.46	0.100	0.950	0.680	91.42	-0.40	1.10	 	 	 	 	 	 	 	 	 	 	 	 	 	 	 	 	 	 	1581525328	0.68	1.26
12/02/2020 16:35:29	120220	12022020	163529	91.65	12.419123	-56.989485	91.69	-0.440	1.880	0.270	91.65	0.60	0.70	 	 	 	 	 	 	 	 	 	 	 	 	 	 	 	 	 	 	1581525329	0.83	1.54
12/02/2020 16:35:30	120220	12022020	163530	91.95	12.419127	-56.989488	91.97	-0.980	2.220	0.030	91.95	0.90	0.40	 	 	 	 	 	 	 	 	 	 	 	 	 	 	 	 	 	 	1581525330	1.11	2.06
12/02/2020 16:35:31	120220	12022020	163531	92.09	12.419127	-56.989492	92.11	-1.160	1.140	0.000	92.09	-0.30	0.40	 	 	 	 	 	 	 	 	 	 	 	 	 	 	 	 	 	 	1581525331	0.50	0.93
12/02/2020 16:35:32	120220	12022020	163532	91.94	12.419123	-56.989488	91.96	-0.710	-1.020	0.270	91.94	-2.40	0.70	 	 	 	 	 	 	 	 	 	 	 	 	 	 	 	 	 	 	1581525332	0.93	1.72
12/02/2020 16:35:33	120220	12022020	163533	91.53	12.419120	-56.989480	91.55	0.150	-2.930	0.910	91.53	-4.30	1.30	 	 	 	 	 	 	 	 	 	 	 	 	 	 	 	 	 	 	1581525333	1.75	3.24
12/02/2020 16:35:34	120220	12022020	163534	91.14	12.419117	-56.989475	91.20	0.810	-3.270	1.650	91.14	-4.60	2.10	 	 	 	 	 	 	 	 	 	 	 	 	 	 	 	 	 	 	1581525334	1.36	2.52
12/02/2020 16:35:35	120220	12022020	163535	90.99	12.419113	-56.989477	91.07	0.860	-2.020	2.140	90.99	-3.30	2.50	 	 	 	 	 	 	 	 	 	 	 	 	 	 	 	 	 	 	1581525335	0.66	1.22
12/02/2020 16:35:36	120220	12022020	163536	91.03	12.419110	-56.989482	91.12	0.430	-0.100	2.230	91.03	-1.40	2.60	 	 	 	 	 	 	 	 	 	 	 	 	 	 	 	 	 	 	1581525336	1.20	2.22
12/02/2020 16:35:37	120220	12022020	163537	91.33	12.419110	-56.989487	91.42	-0.070	1.550	1.740	91.33	0.30	2.10	 	 	 	 	 	 	 	 	 	 	 	 	 	 	 	 	 	 	1581525337	1.21	2.24
12/02/2020 16:35:38	120220	12022020	163538	91.83	12.419113	-56.989492	91.90	-0.300	2.290	0.740	91.83	0.90	1.10	 	 	 	 	 	 	 	 	 	 	 	 	 	 	 	 	 	 	1581525338	1.02	1.89
12/02/2020 16:35:39	120220	12022020	163539	92.00	12.419118	-56.989492	92.02	-0.230	1.660	-0.050	92.00	0.30	0.30	 	 	 	 	 	 	 	 	 	 	 	 	 	 	 	 	 	 	1581525339	1.18	2.19
12/02/2020 16:35:40	120220	12022020	163540	91.76	12.419123	-56.989487	91.76	-0.070	0.120	-0.400	91.76	-1.30	0.00	 	 	 	 	 	 	 	 	 	 	 	 	 	 	 	 	 	 	1581525340	1.42	2.63
12/02/2020 16:35:41	120220	12022020	163541	91.56	12.419125	-56.989480	91.60	-0.020	-1.280	-0.540	91.56	-2.60	-0.10	 	 	 	 	 	 	 	 	 	 	 	 	 	 	 	 	 	 	1581525341	1.40	2.59
12/02/2020 16:35:42	120220	12022020	163542	91.60	12.419125	-56.989477	91.64	-0.080	-1.770	-0.300	91.60	-3.10	0.10	 	 	 	 	 	 	 	 	 	 	 	 	 	 	 	 	 	 	1581525342	0.76	1.41
12/02/2020 16:35:43	120220	12022020	163543	91.57	12.419120	-56.989477	91.62	-0.070	-1.390	0.410	91.57	-2.70	0.80	 	 	 	 	 	 	 	 	 	 	 	 	 	 	 	 	 	 	1581525343	0.98	1.81
12/02/2020 16:35:44	120220	12022020	163544	91.29	12.419115	-56.989480	91.33	0.110	-0.730	1.190	91.29	-2.00	1.60	 	 	 	 	 	 	 	 	 	 	 	 	 	 	 	 	 	 	1581525344	1.27	2.35
12/02/2020 16:35:45	120220	12022020	163545	91.02	12.419112	-56.989482	91.07	0.220	-0.030	1.640	91.02	-1.30	2.10	 	 	 	 	 	 	 	 	 	 	 	 	 	 	 	 	 	 	1581525345	0.74	1.37
12/02/2020 16:35:46	120220	12022020	163546	91.02	12.419112	-56.989483	91.09	0.020	0.610	1.780	91.02	-0.70	2.20	 	 	 	 	 	 	 	 	 	 	 	 	 	 	 	 	 	 	1581525346	0.36	0.67
12/02/2020 16:35:47	120220	12022020	163547	91.26	12.419112	-56.989485	91.42	-0.350	0.810	1.630	91.35	-0.50	2.00	 	 	 	 	 	 	 	 	 	 	 	 	 	 	 	 	 	 	1581525347	0.33	0.61
12/02/2020 16:35:48	120220	12022020	163548	91.82	12.419112	-56.989483	91.90	-0.510	0.350	1.310	91.82	-1.00	1.70	 	 	 	 	 	 	 	 	 	 	 	 	 	 	 	 	 	 	1581525348	0.10	0.19
12/02/2020 16:35:49	120220	12022020	163549	92.09	12.419112	-56.989480	92.13	-0.250	-0.440	1.110	92.09	-1.80	1.50	 	 	 	 	 	 	 	 	 	 	 	 	 	 	 	 	 	 	1581525349	0.68	1.26
12/02/2020 16:35:50	120220	12022020	163550	92.02	12.419110	-56.989477	92.04	0.200	-0.930	1.100	92.02	-2.30	1.50	 	 	 	 	 	 	 	 	 	 	 	 	 	 	 	 	 	 	1581525350	0.76	1.41
12/02/2020 16:35:51	120220	12022020	163551	91.76	12.419110	-56.989475	91.78	0.540	-0.950	1.200	91.76	-2.30	1.60	 	 	 	 	 	 	 	 	 	 	 	 	 	 	 	 	 	 	1581525351	0.39	0.72
12/02/2020 16:35:52	120220	12022020	163552	91.52	12.419110	-56.989475	91.55	0.610	-0.650	1.300	91.52	-2.00	1.70	 	 	 	 	 	 	 	 	 	 	 	 	 	 	 	 	 	 	1581525352	0.11	0.20
12/02/2020 16:35:53	120220	12022020	163553	91.36	12.419110	-56.989475	91.38	0.410	-0.150	1.310	91.36	-1.50	1.70	 	 	 	 	 	 	 	 	 	 	 	 	 	 	 	 	 	 	1581525353	0.11	0.20
12/02/2020 16:35:54	120220	12022020	163554	91.36	12.419112	-56.989477	91.40	0.060	0.410	1.100	91.36	-0.90	1.50	 	 	 	 	 	 	 	 	 	 	 	 	 	 	 	 	 	 	1581525354	0.45	0.83
12/02/2020 16:35:55	120220	12022020	163555	91.48	12.419115	-56.989478	91.51	-0.290	0.640	0.710	91.48	-0.70	1.10	 	 	 	 	 	 	 	 	 	 	 	 	 	 	 	 	 	 	1581525355	0.73	1.35
12/02/2020 16:35:56	120220	12022020	163556	91.58	12.419118	-56.989477	91.60	-0.450	0.310	0.320	91.58	-1.10	0.70	 	 	 	 	 	 	 	 	 	 	 	 	 	 	 	 	 	 	1581525356	0.75	1.39
12/02/2020 16:35:57	120220	12022020	163557	91.65	12.419120	-56.989475	91.66	-0.360	-0.280	0.250	91.65	-1.60	0.70	 	 	 	 	 	 	 	 	 	 	 	 	 	 	 	 	 	 	1581525357	0.62	1.15
12/02/2020 16:35:58	120220	12022020	163558	91.74	12.419118	-56.989472	91.77	-0.170	-0.640	0.510	91.74	-2.00	0.90	 	 	 	 	 	 	 	 	 	 	 	 	 	 	 	 	 	 	1581525358	0.61	1.13
12/02/2020 16:35:59	120220	12022020	163559	91.89	12.419115	-56.989472	92.00	-0.040	-0.690	0.790	91.93	-2.00	1.20	 	 	 	 	 	 	 	 	 	 	 	 	 	 	 	 	 	 	1581525359	0.71	1.31
12/02/2020 16:36:00	120220	12022020	163600	92.05	12.419112	-56.989472	92.10	0.110	-0.750	1.080	92.05	-2.10	1.50	 	 	 	 	 	 	 	 	 	 	 	 	 	 	 	 	 	 	1581525360	0.77	1.43
12/02/2020 16:36:01	120220	12022020	163601	91.94	12.419108	-56.989470	91.91	0.290	-0.770	1.410	91.88	-2.10	1.80	 	 	 	 	 	 	 	 	 	 	 	 	 	 	 	 	 	 	1581525361	0.72	1.33
12/02/2020 16:36:02	120220	12022020	163602	91.53	12.419108	-56.989468	91.55	0.360	-0.360	1.630	91.53	-1.70	2.00	1016.30	26.70	26.80	19.40	19.50	643.0	64.0	64.0	436.0	29.2	349.00	12.00	80.00	11.60	52143	11388.0	27.5	27.5	1581525362	0.37	0.69
12/02/2020 16:36:03	120220	12022020	163603	91.29	12.419110	-56.989468	91.33	0.190	0.410	1.550	91.29	-0.90	2.00	 	 	 	 	 	 	 	 	 	 	 	 	 	 	 	 	 	 	1581525363	0.36	0.67
12/02/2020 16:36:04	120220	12022020	163604	91.43	12.419113	-56.989472	91.49	-0.150	1.040	1.060	91.43	-0.30	1.50	 	 	 	 	 	 	 	 	 	 	 	 	 	 	 	 	 	 	1581525364	0.94	1.74
12/02/2020 16:36:05	120220	12022020	163605	91.87	12.419117	-56.989473	91.92	-0.400	1.020	0.300	91.87	-0.40	0.70	 	 	 	 	 	 	 	 	 	 	 	 	 	 	 	 	 	 	1581525365	1.10	2.04
12/02/2020 16:36:06	120220	12022020	163606	92.09	12.419122	-56.989473	92.11	-0.370	0.150	-0.110	92.09	-1.20	0.30	 	 	 	 	 	 	 	 	 	 	 	 	 	 	 	 	 	 	1581525366	0.85	1.57
12/02/2020 16:36:07	120220	12022020	163607	91.77	12.419122	-56.989468	91.79	-0.080	-1.130	0.230	91.77	-2.50	0.70	 	 	 	 	 	 	 	 	 	 	 	 	 	 	 	 	 	 	1581525367	0.93	1.72
12/02/2020 16:36:08	120220	12022020	163608	91.26	12.419118	-56.989463	91.30	0.260	-1.980	0.900	91.26	-3.30	1.30	 	 	 	 	 	 	 	 	 	 	 	 	 	 	 	 	 	 	1581525368	1.39	2.57
12/02/2020 16:36:09	120220	12022020	163609	91.05	12.419113	-56.989460	91.12	0.440	-1.760	1.330	91.05	-3.10	1.80	 	 	 	 	 	 	 	 	 	 	 	 	 	 	 	 	 	 	1581525369	1.04	1.93
12/02/2020 16:36:10	120220	12022020	163610	91.23	12.419112	-56.989462	91.31	0.460	-0.600	1.340	91.23	-1.90	1.70	 	 	 	 	 	 	 	 	 	 	 	 	 	 	 	 	 	 	1581525370	0.46	0.85
12/02/2020 16:36:11	120220	12022020	163611	91.50	12.419113	-56.989465	91.56	0.360	0.620	1.020	91.50	-0.70	1.40	 	 	 	 	 	 	 	 	 	 	 	 	 	 	 	 	 	 	1581525371	0.88	1.63
12/02/2020 16:36:12	120220	12022020	163612	91.67	12.419117	-56.989468	91.73	0.120	1.270	0.550	91.67	-0.10	1.00	 	 	 	 	 	 	 	 	 	 	 	 	 	 	 	 	 	 	1581525372	0.95	1.76
12/02/2020 16:36:13	120220	12022020	163613	91.79	12.419120	-56.989468	91.83	-0.260	1.210	0.180	91.79	-0.20	0.60	 	 	 	 	 	 	 	 	 	 	 	 	 	 	 	 	 	 	1581525373	0.78	1.44
12/02/2020 16:36:14	120220	12022020	163614	91.76	12.419122	-56.989468	91.80	-0.600	0.500	0.170	91.76	-0.90	0.60	 	 	 	 	 	 	 	 	 	 	 	 	 	 	 	 	 	 	1581525374	0.43	0.80
12/02/2020 16:36:15	120220	12022020	163615	91.53	12.419122	-56.989465	91.56	-0.670	-0.560	0.650	91.53	-1.90	1.10	 	 	 	 	 	 	 	 	 	 	 	 	 	 	 	 	 	 	1581525375	0.68	1.26
12/02/2020 16:36:16	120220	12022020	163616	91.21	12.419117	-56.989462	91.26	-0.450	-1.340	1.340	91.21	-2.70	1.80	 	 	 	 	 	 	 	 	 	 	 	 	 	 	 	 	 	 	1581525376	1.22	2.26
12/02/2020 16:36:17	120220	12022020	163617	91.02	12.419112	-56.989460	91.08	-0.160	-1.300	1.760	91.02	-2.60	2.20	 	 	 	 	 	 	 	 	 	 	 	 	 	 	 	 	 	 	1581525377	1.14	2.11
12/02/2020 16:36:18	120220	12022020	163618	91.10	12.419110	-56.989462	91.16	0.060	-0.560	1.530	91.10	-1.90	1.90	 	 	 	 	 	 	 	 	 	 	 	 	 	 	 	 	 	 	1581525378	0.60	1.11
12/02/2020 16:36:19	120220	12022020	163619	91.33	12.419112	-56.989465	91.36	0.260	0.080	0.920	91.33	-1.30	1.30	 	 	 	 	 	 	 	 	 	 	 	 	 	 	 	 	 	 	1581525379	0.92	1.70
12/02/2020 16:36:20	120220	12022020	163620	91.40	12.419117	-56.989467	91.41	0.410	0.120	0.490	91.40	-1.20	0.90	 	 	 	 	 	 	 	 	 	 	 	 	 	 	 	 	 	 	1581525380	0.93	1.72
12/02/2020 16:36:21	120220	12022020	163621	91.30	12.419118	-56.989463	91.32	0.440	-0.190	0.230	91.30	-1.60	0.60	 	 	 	 	 	 	 	 	 	 	 	 	 	 	 	 	 	 	1581525381	0.71	1.31
12/02/2020 16:36:22	120220	12022020	163622	91.28	12.419122	-56.989462	91.29	0.350	-0.420	-0.050	91.28	-1.80	0.40	 	 	 	 	 	 	 	 	 	 	 	 	 	 	 	 	 	 	1581525382	0.68	1.26
12/02/2020 16:36:23	120220	12022020	163623	91.29	12.419123	-56.989460	91.31	0.190	-0.380	-0.190	91.29	-1.70	0.20	 	 	 	 	 	 	 	 	 	 	 	 	 	 	 	 	 	 	1581525383	0.57	1.06
12/02/2020 16:36:24	120220	12022020	163624	91.29	12.419125	-56.989460	91.31	-0.060	-0.020	0.030	91.29	-1.40	0.50	 	 	 	 	 	 	 	 	 	 	 	 	 	 	 	 	 	 	1581525384	0.22	0.41
12/02/2020 16:36:25	120220	12022020	163625	91.16	12.419123	-56.989462	91.17	-0.340	0.290	0.610	91.16	-1.10	1.00	 	 	 	 	 	 	 	 	 	 	 	 	 	 	 	 	 	 	1581525385	0.48	0.89
12/02/2020 16:36:26	120220	12022020	163626	90.81	12.419118	-56.989463	90.83	-0.480	0.300	1.280	90.81	-1.10	1.70	 	 	 	 	 	 	 	 	 	 	 	 	 	 	 	 	 	 	1581525386	0.87	1.61
12/02/2020 16:36:27	120220	12022020	163627	90.56	12.419115	-56.989462	90.60	-0.390	0.130	1.580	90.56	-1.20	2.00	 	 	 	 	 	 	 	 	 	 	 	 	 	 	 	 	 	 	1581525387	0.77	1.43
12/02/2020 16:36:28	120220	12022020	163628	90.72	12.419115	-56.989462	90.78	-0.160	0.020	1.340	90.72	-1.40	1.70	 	 	 	 	 	 	 	 	 	 	 	 	 	 	 	 	 	 	1581525388	0.07	0.13
12/02/2020 16:36:29	120220	12022020	163629	91.16	12.419118	-56.989463	91.22	0.020	-0.250	0.830	91.16	-1.60	1.20	 	 	 	 	 	 	 	 	 	 	 	 	 	 	 	 	 	 	1581525389	0.68	1.26
12/02/2020 16:36:30	120220	12022020	163630	91.46	12.419122	-56.989462	91.51	0.120	-0.880	0.590	91.46	-2.20	1.00	 	 	 	 	 	 	 	 	 	 	 	 	 	 	 	 	 	 	1581525390	0.70	1.30
12/02/2020 16:36:31	120220	12022020	163631	91.38	12.419120	-56.989458	91.41	0.190	-1.560	0.860	91.38	-2.90	1.30	 	 	 	 	 	 	 	 	 	 	 	 	 	 	 	 	 	 	1581525391	0.71	1.31
12/02/2020 16:36:32	120220	12022020	163632	90.99	12.419117	-56.989455	91.02	0.210	-1.400	1.370	90.99	-2.70	1.80	 	 	 	 	 	 	 	 	 	 	 	 	 	 	 	 	 	 	1581525392	1.18	2.19
12/02/2020 16:36:33	120220	12022020	163633	90.59	12.419112	-56.989457	90.63	0.090	-0.070	1.630	90.59	-1.40	2.00	 	 	 	 	 	 	 	 	 	 	 	 	 	 	 	 	 	 	1581525393	0.99	1.83
12/02/2020 16:36:34	120220	12022020	163634	90.30	12.419112	-56.989463	90.34	-0.110	1.280	1.540	90.30	-0.00	1.90	 	 	 	 	 	 	 	 	 	 	 	 	 	 	 	 	 	 	1581525394	1.28	2.37
12/02/2020 16:36:35	120220	12022020	163635	90.12	12.419113	-56.989467	90.15	-0.250	1.470	1.150	90.12	0.10	1.50	 	 	 	 	 	 	 	 	 	 	 	 	 	 	 	 	 	 	1581525395	0.97	1.80
12/02/2020 16:36:36	120220	12022020	163636	90.17	12.419118	-56.989465	90.21	-0.270	0.570	0.430	90.17	-0.80	0.80	 	 	 	 	 	 	 	 	 	 	 	 	 	 	 	 	 	 	1581525396	1.07	1.98
12/02/2020 16:36:37	120220	12022020	163637	90.38	12.419123	-56.989462	90.46	-0.180	-0.540	-0.370	90.43	-1.90	0.00	 	 	 	 	 	 	 	 	 	 	 	 	 	 	 	 	 	 	1581525397	1.53	2.83
12/02/2020 16:36:38	120220	12022020	163638	90.61	12.419128	-56.989458	90.61	-0.020	-1.150	-0.750	90.61	-2.50	-0.30	 	 	 	 	 	 	 	 	 	 	 	 	 	 	 	 	 	 	1581525398	1.12	2.07
12/02/2020 16:36:39	120220	12022020	163639	90.52	12.419128	-56.989458	90.51	0.180	-1.120	-0.510	90.52	-2.40	-0.10	 	 	 	 	 	 	 	 	 	 	 	 	 	 	 	 	 	 	1581525399	0.19	0.35
12/02/2020 16:36:40	120220	12022020	163640	90.25	12.419127	-56.989460	90.26	0.320	-0.750	0.200	90.25	-2.10	0.60	 	 	 	 	 	 	 	 	 	 	 	 	 	 	 	 	 	 	1581525400	0.64	1.19
12/02/2020 16:36:41	120220	12022020	163641	90.02	12.419122	-56.989462	90.06	0.340	-0.450	1.040	90.02	-1.80	1.50	 	 	 	 	 	 	 	 	 	 	 	 	 	 	 	 	 	 	1581525401	0.97	1.80
12/02/2020 16:36:42	120220	12022020	163642	89.95	12.419118	-56.989460	90.02	0.250	-0.280	1.690	89.95	-1.60	2.10	 	 	 	 	 	 	 	 	 	 	 	 	 	 	 	 	 	 	1581525402	0.89	1.65
12/02/2020 16:36:43	120220	12022020	163643	90.07	12.419117	-56.989460	90.14	0.120	-0.030	1.930	90.07	-1.40	2.30	 	 	 	 	 	 	 	 	 	 	 	 	 	 	 	 	 	 	1581525403	0.44	0.81
12/02/2020 16:36:44	120220	12022020	163644	90.23	12.419117	-56.989460	90.29	-0.050	0.240	1.850	90.23	-1.10	2.20	 	 	 	 	 	 	 	 	 	 	 	 	 	 	 	 	 	 	1581525404	0.09	0.17
12/02/2020 16:36:45	120220	12022020	163645	90.36	12.419118	-56.989462	90.41	-0.290	0.460	1.620	90.36	-0.90	2.00	 	 	 	 	 	 	 	 	 	 	 	 	 	 	 	 	 	 	1581525405	0.28	0.52
12/02/2020 16:36:46	120220	12022020	163646	90.49	12.419118	-56.989462	90.54	-0.600	0.610	1.410	90.49	-0.70	1.80	 	 	 	 	 	 	 	 	 	 	 	 	 	 	 	 	 	 	1581525406	0.25	0.46
12/02/2020 16:36:47	120220	12022020	163647	90.45	12.419117	-56.989463	90.47	-0.850	0.460	1.360	90.45	-0.90	1.80	 	 	 	 	 	 	 	 	 	 	 	 	 	 	 	 	 	 	1581525407	0.38	0.70
12/02/2020 16:36:48	120220	12022020	163648	90.15	12.419115	-56.989463	90.15	-0.780	-0.120	1.430	90.15	-1.50	1.80	 	 	 	 	 	 	 	 	 	 	 	 	 	 	 	 	 	 	1581525408	0.60	1.11
12/02/2020 16:36:49	120220	12022020	163649	89.87	12.419113	-56.989462	89.87	-0.170	-0.980	1.210	89.87	-2.30	1.60	 	 	 	 	 	 	 	 	 	 	 	 	 	 	 	 	 	 	1581525409	0.51	0.94
12/02/2020 16:36:50	120220	12022020	163650	89.83	12.419115	-56.989460	89.83	0.750	-1.540	0.570	89.83	-2.90	0.90	 	 	 	 	 	 	 	 	 	 	 	 	 	 	 	 	 	 	1581525410	0.83	1.54
12/02/2020 16:36:51	120220	12022020	163651	89.89	12.419122	-56.989458	89.89	1.320	-1.310	-0.180	89.91	-2.60	0.20	 	 	 	 	 	 	 	 	 	 	 	 	 	 	 	 	 	 	1581525411	1.50	2.78
12/02/2020 16:36:52	120220	12022020	163652	90.03	12.419130	-56.989460	90.01	1.070	-0.400	-0.630	90.03	-1.70	-0.20	 	 	 	 	 	 	 	 	 	 	 	 	 	 	 	 	 	 	1581525412	1.68	3.11
12/02/2020 16:36:53	120220	12022020	163653	90.15	12.419133	-56.989463	90.14	0.190	0.540	-0.380	90.15	-0.80	0.10	 	 	 	 	 	 	 	 	 	 	 	 	 	 	 	 	 	 	1581525413	1.08	2.00
12/02/2020 16:36:54	120220	12022020	163654	90.14	12.419130	-56.989467	90.14	-0.620	0.960	0.590	90.14	-0.40	1.00	 	 	 	 	 	 	 	 	 	 	 	 	 	 	 	 	 	 	1581525414	1.02	1.89
12/02/2020 16:36:55	120220	12022020	163655	89.96	12.419123	-56.989468	89.96	-0.840	0.710	1.750	89.96	-0.70	2.20	 	 	 	 	 	 	 	 	 	 	 	 	 	 	 	 	 	 	1581525415	1.52	2.82
12/02/2020 16:36:56	120220	12022020	163656	89.82	12.419117	-56.989467	89.85	-0.570	0.050	2.590	89.82	-1.30	3.00	 	 	 	 	 	 	 	 	 	 	 	 	 	 	 	 	 	 	1581525416	1.39	2.57
12/02/2020 16:36:57	120220	12022020	163657	89.89	12.419112	-56.989463	89.94	-0.210	-0.580	3.040	89.89	-1.90	3.40	 	 	 	 	 	 	 	 	 	 	 	 	 	 	 	 	 	 	1581525417	1.15	2.13
12/02/2020 16:36:58	120220	12022020	163658	89.95	12.419107	-56.989463	90.00	-0.010	-0.870	3.250	89.95	-2.20	3.60	 	 	 	 	 	 	 	 	 	 	 	 	 	 	 	 	 	 	1581525418	1.03	1.91
12/02/2020 16:36:59	120220	12022020	163659	89.79	12.419103	-56.989463	89.82	0.110	-0.800	3.120	89.79	-2.10	3.50	 	 	 	 	 	 	 	 	 	 	 	 	 	 	 	 	 	 	1581525419	0.73	1.35
12/02/2020 16:37:00	120220	12022020	163700	89.45	12.419105	-56.989463	89.45	0.270	-0.500	2.410	89.45	-1.80	2.80	 	 	 	 	 	 	 	 	 	 	 	 	 	 	 	 	 	 	1581525420	0.35	0.65
12/02/2020 16:37:01	120220	12022020	163701	89.08	12.419112	-56.989467	89.07	0.340	-0.090	1.310	89.08	-1.40	1.70	 	 	 	 	 	 	 	 	 	 	 	 	 	 	 	 	 	 	1581525421	1.43	2.65
12/02/2020 16:37:02	120220	12022020	163702	89.01	12.419120	-56.989468	89.02	0.210	0.180	-0.050	89.01	-1.20	0.30	1016.30	26.80	26.80	19.00	19.10	675.0	62.0	62.0	434.0	29.1	350.00	11.90	80.00	11.50	54023	11917.0	27.6	27.5	1581525422	1.96	3.63
12/02/2020 16:37:03	120220	12022020	163703	89.40	12.419128	-56.989470	89.41	0.000	0.170	-1.500	89.40	-1.20	-1.10	 	 	 	 	 	 	 	 	 	 	 	 	 	 	 	 	 	 	1581525423	1.94	3.59
12/02/2020 16:37:04	120220	12022020	163704	89.95	12.419137	-56.989470	89.94	-0.080	-0.060	-2.580	89.95	-1.40	-2.20	 	 	 	 	 	 	 	 	 	 	 	 	 	 	 	 	 	 	1581525424	1.59	2.94
12/02/2020 16:37:05	120220	12022020	163705	90.20	12.419140	-56.989468	90.17	-0.010	-0.360	-2.660	90.20	-1.70	-2.20	 	 	 	 	 	 	 	 	 	 	 	 	 	 	 	 	 	 	1581525425	0.84	1.56
12/02/2020 16:37:06	120220	12022020	163706	89.95	12.419138	-56.989468	89.93	0.020	-0.480	-1.530	89.95	-1.80	-1.10	 	 	 	 	 	 	 	 	 	 	 	 	 	 	 	 	 	 	1581525426	0.46	0.85
12/02/2020 16:37:07	120220	12022020	163707	89.43	12.419130	-56.989468	89.46	-0.120	-0.210	0.200	89.43	-1.50	0.60	 	 	 	 	 	 	 	 	 	 	 	 	 	 	 	 	 	 	1581525427	1.69	3.13
12/02/2020 16:37:08	120220	12022020	163708	89.14	12.419122	-56.989472	89.23	-0.320	0.280	1.720	89.14	-1.10	2.10	 	 	 	 	 	 	 	 	 	 	 	 	 	 	 	 	 	 	1581525428	2.10	3.89
12/02/2020 16:37:09	120220	12022020	163709	89.23	12.419113	-56.989475	89.36	-0.390	0.400	2.760	89.23	-1.00	3.20	 	 	 	 	 	 	 	 	 	 	 	 	 	 	 	 	 	 	1581525429	1.76	3.26
12/02/2020 16:37:10	120220	12022020	163710	89.54	12.419108	-56.989477	89.69	-0.230	-0.230	3.380	89.54	-1.60	3.80	 	 	 	 	 	 	 	 	 	 	 	 	 	 	 	 	 	 	1581525430	1.21	2.24
12/02/2020 16:37:11	120220	12022020	163711	89.73	12.419103	-56.989473	89.85	0.170	-1.230	3.680	89.73	-2.60	4.10	 	 	 	 	 	 	 	 	 	 	 	 	 	 	 	 	 	 	1581525431	1.13	2.09
12/02/2020 16:37:12	120220	12022020	163712	89.50	12.419100	-56.989470	89.59	0.590	-1.680	3.680	89.50	-3.00	4.10	 	 	 	 	 	 	 	 	 	 	 	 	 	 	 	 	 	 	1581525432	1.06	1.96
12/02/2020 16:37:13	120220	12022020	163713	89.06	12.419102	-56.989470	89.13	0.730	-0.840	3.120	89.06	-2.20	3.50	 	 	 	 	 	 	 	 	 	 	 	 	 	 	 	 	 	 	1581525433	0.21	0.39
12/02/2020 16:37:14	120220	12022020	163714	88.83	12.419107	-56.989475	88.91	0.380	0.710	1.940	88.83	-0.60	2.30	 	 	 	 	 	 	 	 	 	 	 	 	 	 	 	 	 	 	1581525434	1.73	3.20
12/02/2020 16:37:15	120220	12022020	163715	89.04	12.419117	-56.989483	89.11	-0.300	1.690	0.500	89.04	0.30	0.90	 	 	 	 	 	 	 	 	 	 	 	 	 	 	 	 	 	 	1581525435	2.51	4.65
12/02/2020 16:37:16	120220	12022020	163716	89.65	12.419125	-56.989487	89.68	-0.770	1.330	-0.920	89.65	-0.10	-0.60	 	 	 	 	 	 	 	 	 	 	 	 	 	 	 	 	 	 	1581525436	1.99	3.69
12/02/2020 16:37:17	120220	12022020	163717	90.17	12.419130	-56.989485	90.16	-0.620	-0.100	-1.820	90.17	-1.50	-1.40	 	 	 	 	 	 	 	 	 	 	 	 	 	 	 	 	 	 	1581525437	1.21	2.24
12/02/2020 16:37:18	120220	12022020	163718	90.14	12.419130	-56.989480	90.10	0.020	-1.490	-1.840	90.14	-2.90	-1.40	 	 	 	 	 	 	 	 	 	 	 	 	 	 	 	 	 	 	1581525438	1.10	2.04
12/02/2020 16:37:19	120220	12022020	163719	89.68	12.419128	-56.989477	89.66	0.590	-1.770	-1.170	89.68	-3.10	-0.70	 	 	 	 	 	 	 	 	 	 	 	 	 	 	 	 	 	 	1581525439	0.82	1.52
12/02/2020 16:37:20	120220	12022020	163720	89.21	12.419125	-56.989480	89.23	0.620	-1.060	-0.060	89.21	-2.40	0.40	 	 	 	 	 	 	 	 	 	 	 	 	 	 	 	 	 	 	1581525440	0.97	1.80
12/02/2020 16:37:21	120220	12022020	163721	89.09	12.419120	-56.989485	89.17	0.160	-0.100	1.170	89.09	-1.40	1.60	 	 	 	 	 	 	 	 	 	 	 	 	 	 	 	 	 	 	1581525441	1.52	2.82
12/02/2020 16:37:22	120220	12022020	163722	89.40	12.419113	-56.989488	89.52	-0.370	0.570	2.160	89.40	-0.80	2.50	 	 	 	 	 	 	 	 	 	 	 	 	 	 	 	 	 	 	1581525442	1.54	2.85
12/02/2020 16:37:23	120220	12022020	163723	89.81	12.419108	-56.989490	89.93	-0.550	0.700	2.790	89.81	-0.70	3.20	 	 	 	 	 	 	 	 	 	 	 	 	 	 	 	 	 	 	1581525443	1.29	2.39
12/02/2020 16:37:24	120220	12022020	163724	90.01	12.419103	-56.989490	90.10	-0.370	0.390	3.050	90.01	-1.00	3.40	 	 	 	 	 	 	 	 	 	 	 	 	 	 	 	 	 	 	1581525444	0.90	1.67
12/02/2020 16:37:25	120220	12022020	163725	89.93	12.419102	-56.989490	90.00	-0.070	-0.060	3.050	89.93	-1.40	3.40	 	 	 	 	 	 	 	 	 	 	 	 	 	 	 	 	 	 	1581525445	0.61	1.13
12/02/2020 16:37:26	120220	12022020	163726	89.75	12.419100	-56.989488	89.80	0.160	-0.440	2.830	89.75	-1.80	3.20	 	 	 	 	 	 	 	 	 	 	 	 	 	 	 	 	 	 	1581525446	0.31	0.57
12/02/2020 16:37:27	120220	12022020	163727	89.65	12.419102	-56.989488	89.70	0.330	-0.720	2.190	89.65	-2.10	2.50	 	 	 	 	 	 	 	 	 	 	 	 	 	 	 	 	 	 	1581525447	0.27	0.50
12/02/2020 16:37:28	120220	12022020	163728	89.74	12.419105	-56.989488	89.78	0.450	-0.840	1.120	89.74	-2.20	1.50	 	 	 	 	 	 	 	 	 	 	 	 	 	 	 	 	 	 	1581525448	1.00	1.85
12/02/2020 16:37:29	120220	12022020	163729	89.81	12.419112	-56.989487	89.81	0.450	-0.690	0.020	89.81	-2.00	0.40	 	 	 	 	 	 	 	 	 	 	 	 	 	 	 	 	 	 	1581525449	1.41	2.61
12/02/2020 16:37:30	120220	12022020	163730	89.81	12.419118	-56.989488	89.81	0.210	-0.140	-0.860	89.81	-1.50	-0.50	 	 	 	 	 	 	 	 	 	 	 	 	 	 	 	 	 	 	1581525450	1.38	2.56
12/02/2020 16:37:31	120220	12022020	163731	89.95	12.419123	-56.989490	89.94	-0.220	0.580	-1.490	89.95	-0.80	-1.10	 	 	 	 	 	 	 	 	 	 	 	 	 	 	 	 	 	 	1581525451	1.31	2.43
12/02/2020 16:37:32	120220	12022020	163732	90.20	12.419127	-56.989495	90.19	-0.640	1.030	-1.580	90.20	-0.30	-1.20	 	 	 	 	 	 	 	 	 	 	 	 	 	 	 	 	 	 	1581525452	0.98	1.81
12/02/2020 16:37:33	120220	12022020	163733	90.26	12.419123	-56.989497	90.25	-0.760	0.830	-0.820	90.26	-0.60	-0.40	 	 	 	 	 	 	 	 	 	 	 	 	 	 	 	 	 	 	1581525453	0.75	1.39
12/02/2020 16:37:34	120220	12022020	163734	89.94	12.419117	-56.989497	89.94	-0.520	-0.090	0.510	89.94	-1.50	0.90	 	 	 	 	 	 	 	 	 	 	 	 	 	 	 	 	 	 	1581525454	1.58	2.93
12/02/2020 16:37:35	120220	12022020	163735	89.56	12.419108	-56.989493	89.59	-0.030	-1.260	1.670	89.56	-2.60	2.10	 	 	 	 	 	 	 	 	 	 	 	 	 	 	 	 	 	 	1581525455	1.90	3.52
12/02/2020 16:37:36	120220	12022020	163736	89.51	12.419103	-56.989488	89.58	0.570	-2.130	2.250	89.51	-3.50	2.60	 	 	 	 	 	 	 	 	 	 	 	 	 	 	 	 	 	 	1581525456	1.47	2.72
12/02/2020 16:37:37	120220	12022020	163737	89.77	12.419102	-56.989483	89.85	1.050	-2.110	2.450	89.77	-3.40	2.80	 	 	 	 	 	 	 	 	 	 	 	 	 	 	 	 	 	 	1581525457	0.95	1.76
12/02/2020 16:37:38	120220	12022020	163738	90.04	12.419102	-56.989483	90.11	1.090	-0.930	2.410	90.04	-2.20	2.80	 	 	 	 	 	 	 	 	 	 	 	 	 	 	 	 	 	 	1581525458	0.19	0.35
12/02/2020 16:37:39	120220	12022020	163739	90.12	12.419102	-56.989487	90.16	0.520	0.940	2.100	90.11	-0.40	2.50	 	 	 	 	 	 	 	 	 	 	 	 	 	 	 	 	 	 	1581525459	0.88	1.63
12/02/2020 16:37:40	120220	12022020	163740	90.03	12.419105	-56.989493	90.06	-0.460	2.440	1.470	90.03	1.10	1.80	 	 	 	 	 	 	 	 	 	 	 	 	 	 	 	 	 	 	1581525460	1.53	2.83
12/02/2020 16:37:41	120220	12022020	163741	90.00	12.419110	-56.989500	90.00	-1.300	2.650	0.600	89.98	1.20	1.00	 	 	 	 	 	 	 	 	 	 	 	 	 	 	 	 	 	 	1581525461	1.44	2.67
12/02/2020 16:37:42	120220	12022020	163742	89.89	12.419113	-56.989500	89.87	-1.420	1.240	-0.130	89.89	-0.20	0.30	 	 	 	 	 	 	 	 	 	 	 	 	 	 	 	 	 	 	1581525462	0.85	1.57
12/02/2020 16:37:43	120220	12022020	163743	89.71	12.419117	-56.989493	89.69	-0.640	-1.080	-0.670	89.71	-2.50	-0.30	 	 	 	 	 	 	 	 	 	 	 	 	 	 	 	 	 	 	1581525463	1.38	2.56
12/02/2020 16:37:44	120220	12022020	163744	89.58	12.419118	-56.989485	89.57	0.530	-2.950	-1.100	89.58	-4.30	-0.70	 	 	 	 	 	 	 	 	 	 	 	 	 	 	 	 	 	 	1581525464	1.87	3.46
12/02/2020 16:37:45	120220	12022020	163745	89.48	12.419122	-56.989480	89.47	1.270	-3.230	-1.300	89.48	-4.60	-0.90	 	 	 	 	 	 	 	 	 	 	 	 	 	 	 	 	 	 	1581525465	1.35	2.50
12/02/2020 16:37:46	120220	12022020	163746	89.41	12.419122	-56.989480	89.42	1.080	-1.750	-1.170	89.41	-3.10	-0.80	 	 	 	 	 	 	 	 	 	 	 	 	 	 	 	 	 	 	1581525466	0.18	0.33
12/02/2020 16:37:47	120220	12022020	163747	89.46	12.419122	-56.989485	89.49	0.240	0.440	-0.660	89.46	-0.90	-0.20	 	 	 	 	 	 	 	 	 	 	 	 	 	 	 	 	 	 	1581525467	1.26	2.33
12/02/2020 16:37:48	120220	12022020	163748	89.53	12.419118	-56.989492	89.56	-0.650	2.020	0.160	89.53	0.70	0.60	 	 	 	 	 	 	 	 	 	 	 	 	 	 	 	 	 	 	1581525468	1.51	2.80
12/02/2020 16:37:49	120220	12022020	163749	89.46	12.419113	-56.989495	89.50	-1.140	2.240	1.140	89.46	0.80	1.60	 	 	 	 	 	 	 	 	 	 	 	 	 	 	 	 	 	 	1581525469	1.18	2.19
12/02/2020 16:37:50	120220	12022020	163750	89.34	12.419107	-56.989492	89.39	-1.040	1.260	1.990	89.34	-0.20	2.40	 	 	 	 	 	 	 	 	 	 	 	 	 	 	 	 	 	 	1581525470	1.47	2.72
12/02/2020 16:37:51	120220	12022020	163751	89.34	12.419102	-56.989487	89.41	-0.380	-0.200	2.510	89.34	-1.60	2.90	 	 	 	 	 	 	 	 	 	 	 	 	 	 	 	 	 	 	1581525471	1.72	3.19
12/02/2020 16:37:52	120220	12022020	163752	89.31	12.419098	-56.989480	89.38	0.550	-1.510	2.800	89.31	-2.90	3.20	 	 	 	 	 	 	 	 	 	 	 	 	 	 	 	 	 	 	1581525472	1.48	2.74
12/02/2020 16:37:53	120220	12022020	163753	89.01	12.419098	-56.989475	89.04	1.250	-2.140	2.900	89.01	-3.50	3.30	 	 	 	 	 	 	 	 	 	 	 	 	 	 	 	 	 	 	1581525473	1.13	2.09
12/02/2020 16:37:54	120220	12022020	163754	88.63	12.419100	-56.989472	88.68	1.300	-1.720	2.580	88.63	-3.00	2.90	 	 	 	 	 	 	 	 	 	 	 	 	 	 	 	 	 	 	1581525474	0.91	1.69
12/02/2020 16:37:55	120220	12022020	163755	88.57	12.419105	-56.989473	88.63	0.680	-0.300	1.800	88.57	-1.60	2.20	 	 	 	 	 	 	 	 	 	 	 	 	 	 	 	 	 	 	1581525475	1.10	2.04
12/02/2020 16:37:56	120220	12022020	163756	88.80	12.419112	-56.989478	88.85	-0.200	1.320	0.810	88.80	-0.00	1.20	 	 	 	 	 	 	 	 	 	 	 	 	 	 	 	 	 	 	1581525476	1.50	2.78
12/02/2020 16:37:57	120220	12022020	163757	89.01	12.419115	-56.989482	89.01	-0.760	1.850	-0.090	89.01	0.50	0.30	 	 	 	 	 	 	 	 	 	 	 	 	 	 	 	 	 	 	1581525477	1.31	2.43
12/02/2020 16:37:58	120220	12022020	163758	88.96	12.419120	-56.989480	88.93	-0.670	0.720	-0.700	88.96	-0.70	-0.30	 	 	 	 	 	 	 	 	 	 	 	 	 	 	 	 	 	 	1581525478	1.02	1.89
12/02/2020 16:37:59	120220	12022020	163759	88.74	12.419123	-56.989470	88.73	-0.250	-1.020	-1.010	88.74	-2.40	-0.60	 	 	 	 	 	 	 	 	 	 	 	 	 	 	 	 	 	 	1581525479	2.09	3.87
12/02/2020 16:38:00	120220	12022020	163800	88.66	12.419123	-56.989462	88.68	0.020	-1.790	-1.010	88.66	-3.10	-0.60	 	 	 	 	 	 	 	 	 	 	 	 	 	 	 	 	 	 	1581525480	1.95	3.61
12/02/2020 16:38:01	120220	12022020	163801	88.72	12.419122	-56.989458	88.76	0.030	-1.160	-0.480	88.72	-2.50	-0.10	 	 	 	 	 	 	 	 	 	 	 	 	 	 	 	 	 	 	1581525481	0.80	1.48
12/02/2020 16:38:02	120220	12022020	163802	88.76	12.419117	-56.989460	88.84	0.000	-0.050	0.350	88.76	-1.40	0.80	1016.20	26.80	26.80	19.50	19.50	821.0	64.0	64.0	434.0	29.2	352.00	10.60	81.00	10.00	61891	10292.0	27.5	27.5	1581525482	1.26	2.33
12/02/2020 16:38:03	120220	12022020	163803	88.79	12.419110	-56.989462	88.87	0.060	0.710	0.980	88.79	-0.60	1.40	 	 	 	 	 	 	 	 	 	 	 	 	 	 	 	 	 	 	1581525483	1.22	2.26
12/02/2020 16:38:04	120220	12022020	163804	88.74	12.419108	-56.989460	88.81	0.210	0.750	1.320	88.74	-0.60	1.70	 	 	 	 	 	 	 	 	 	 	 	 	 	 	 	 	 	 	1581525484	0.59	1.09
12/02/2020 16:38:05	120220	12022020	163805	88.54	12.419108	-56.989455	88.61	0.370	0.070	1.550	88.54	-1.30	1.90	 	 	 	 	 	 	 	 	 	 	 	 	 	 	 	 	 	 	1581525485	1.01	1.87
12/02/2020 16:38:06	120220	12022020	163806	88.27	12.419108	-56.989448	88.33	0.430	-0.760	1.860	88.27	-2.10	2.30	 	 	 	 	 	 	 	 	 	 	 	 	 	 	 	 	 	 	1581525486	1.60	2.96
12/02/2020 16:38:07	120220	12022020	163807	88.09	12.419110	-56.989442	88.18	0.270	-1.030	2.020	88.09	-2.40	2.40	 	 	 	 	 	 	 	 	 	 	 	 	 	 	 	 	 	 	1581525487	1.45	2.69
12/02/2020 16:38:08	120220	12022020	163808	88.14	12.419110	-56.989438	88.24	-0.010	-0.600	1.750	88.14	-1.90	2.10	 	 	 	 	 	 	 	 	 	 	 	 	 	 	 	 	 	 	1581525488	0.73	1.35
12/02/2020 16:38:09	120220	12022020	163809	88.43	12.419112	-56.989437	88.51	-0.210	0.100	1.090	88.43	-1.20	1.50	 	 	 	 	 	 	 	 	 	 	 	 	 	 	 	 	 	 	1581525489	0.41	0.76
12/02/2020 16:38:10	120220	12022020	163810	88.78	12.419115	-56.989437	88.84	-0.210	0.580	0.420	88.78	-0.80	0.80	 	 	 	 	 	 	 	 	 	 	 	 	 	 	 	 	 	 	1581525490	0.52	0.96
12/02/2020 16:38:11	120220	12022020	163811	88.94	12.419115	-56.989433	88.97	-0.100	0.510	0.020	88.94	-0.90	0.40	 	 	 	 	 	 	 	 	 	 	 	 	 	 	 	 	 	 	1581525491	0.61	1.13
12/02/2020 16:38:12	120220	12022020	163812	88.75	12.419115	-56.989428	88.74	0.020	-0.090	-0.120	88.75	-1.50	0.30	 	 	 	 	 	 	 	 	 	 	 	 	 	 	 	 	 	 	1581525492	1.17	2.17
12/02/2020 16:38:13	120220	12022020	163813	88.20	12.419117	-56.989422	88.18	0.100	-0.810	-0.050	88.20	-2.20	0.30	 	 	 	 	 	 	 	 	 	 	 	 	 	 	 	 	 	 	1581525493	1.61	2.98
12/02/2020 16:38:14	120220	12022020	163814	87.62	12.419118	-56.989413	87.63	0.140	-1.060	0.140	87.62	-2.40	0.50	 	 	 	 	 	 	 	 	 	 	 	 	 	 	 	 	 	 	1581525494	1.62	3.00
12/02/2020 16:38:15	120220	12022020	163815	87.46	12.419120	-56.989408	87.51	0.160	-0.720	0.180	87.46	-2.00	0.60	 	 	 	 	 	 	 	 	 	 	 	 	 	 	 	 	 	 	1581525495	1.22	2.26
12/02/2020 16:38:16	120220	12022020	163816	87.86	12.419122	-56.989405	87.95	0.180	-0.140	-0.070	87.86	-1.50	0.30	 	 	 	 	 	 	 	 	 	 	 	 	 	 	 	 	 	 	1581525496	0.90	1.67
12/02/2020 16:38:17	120220	12022020	163817	88.35	12.419123	-56.989402	88.53	0.210	0.330	-0.300	88.45	-1.00	0.10	 	 	 	 	 	 	 	 	 	 	 	 	 	 	 	 	 	 	1581525497	0.83	1.54
12/02/2020 16:38:18	120220	12022020	163818	88.72	12.419123	-56.989397	88.77	0.130	0.500	-0.070	88.72	-0.90	0.30	 	 	 	 	 	 	 	 	 	 	 	 	 	 	 	 	 	 	1581525498	0.97	1.80
12/02/2020 16:38:19	120220	12022020	163819	88.54	12.419120	-56.989390	88.59	-0.150	0.450	0.720	88.54	-0.90	1.10	 	 	 	 	 	 	 	 	 	 	 	 	 	 	 	 	 	 	1581525499	1.38	2.56
12/02/2020 16:38:20	120220	12022020	163820	88.05	12.419115	-56.989385	88.11	-0.530	0.340	1.830	88.05	-1.00	2.20	 	 	 	 	 	 	 	 	 	 	 	 	 	 	 	 	 	 	1581525500	1.75	3.24
12/02/2020 16:38:21	120220	12022020	163821	87.53	12.419108	-56.989378	87.61	-0.710	-0.040	2.690	87.53	-1.40	3.10	 	 	 	 	 	 	 	 	 	 	 	 	 	 	 	 	 	 	1581525501	1.82	3.37
12/02/2020 16:38:22	120220	12022020	163822	87.12	12.419105	-56.989372	87.22	-0.410	-0.810	3.000	87.12	-2.20	3.40	 	 	 	 	 	 	 	 	 	 	 	 	 	 	 	 	 	 	1581525502	1.82	3.37
12/02/2020 16:38:23	120220	12022020	163823	86.85	12.419105	-56.989362	86.96	0.220	-1.470	2.700	86.85	-2.80	3.10	 	 	 	 	 	 	 	 	 	 	 	 	 	 	 	 	 	 	1581525503	2.13	3.94
12/02/2020 16:38:24	120220	12022020	163824	86.82	12.419110	-56.989352	86.92	0.780	-1.380	1.840	86.82	-2.70	2.20	 	 	 	 	 	 	 	 	 	 	 	 	 	 	 	 	 	 	1581525504	2.16	4.00
12/02/2020 16:38:25	120220	12022020	163825	86.93	12.419117	-56.989347	87.01	0.920	-0.540	0.710	86.93	-1.80	1.10	 	 	 	 	 	 	 	 	 	 	 	 	 	 	 	 	 	 	1581525505	1.92	3.56
12/02/2020 16:38:26	120220	12022020	163826	87.05	12.419125	-56.989342	87.10	0.570	0.460	-0.470	87.05	-0.80	-0.10	 	 	 	 	 	 	 	 	 	 	 	 	 	 	 	 	 	 	1581525506	1.94	3.59
12/02/2020 16:38:27	120220	12022020	163827	87.02	12.419132	-56.989338	87.04	-0.080	1.050	-1.210	87.02	-0.30	-0.80	 	 	 	 	 	 	 	 	 	 	 	 	 	 	 	 	 	 	1581525507	1.85	3.43
12/02/2020 16:38:28	120220	12022020	163828	86.83	12.419135	-56.989332	86.84	-0.650	1.010	-1.200	86.83	-0.40	-0.80	 	 	 	 	 	 	 	 	 	 	 	 	 	 	 	 	 	 	1581525508	1.51	2.80
12/02/2020 16:38:29	120220	12022020	163829	86.61	12.419135	-56.989323	86.58	-0.780	0.380	-0.650	86.56	-1.00	-0.20	 	 	 	 	 	 	 	 	 	 	 	 	 	 	 	 	 	 	1581525509	1.82	3.37
12/02/2020 16:38:30	120220	12022020	163830	86.28	12.419132	-56.989312	86.32	-0.450	-0.640	0.150	86.28	-2.00	0.60	 	 	 	 	 	 	 	 	 	 	 	 	 	 	 	 	 	 	1581525510	2.50	4.63
12/02/2020 16:38:31	120220	12022020	163831	85.97	12.419127	-56.989298	85.92	-0.010	-1.400	1.100	85.87	-2.70	1.50	 	 	 	 	 	 	 	 	 	 	 	 	 	 	 	 	 	 	1581525511	2.97	5.50
12/02/2020 16:38:32	120220	12022020	163832	85.39	12.419120	-56.989288	85.45	0.150	-1.200	1.930	85.39	-2.50	2.30	 	 	 	 	 	 	 	 	 	 	 	 	 	 	 	 	 	 	1581525512	2.62	4.85
12/02/2020 16:38:33	120220	12022020	163833	85.02	12.419118	-56.989282	85.12	-0.030	-0.160	2.210	85.02	-1.50	2.60	 	 	 	 	 	 	 	 	 	 	 	 	 	 	 	 	 	 	1581525513	1.47	2.72
12/02/2020 16:38:34	120220	12022020	163834	84.92	12.419120	-56.989278	85.03	-0.240	0.790	1.880	84.92	-0.50	2.20	 	 	 	 	 	 	 	 	 	 	 	 	 	 	 	 	 	 	1581525514	0.79	1.46
12/02/2020 16:38:35	120220	12022020	163835	85.05	12.419123	-56.989273	85.13	-0.260	0.920	1.210	85.05	-0.40	1.60	 	 	 	 	 	 	 	 	 	 	 	 	 	 	 	 	 	 	1581525515	1.46	2.70
12/02/2020 16:38:36	120220	12022020	163836	85.14	12.419130	-56.989263	85.19	-0.030	0.120	0.490	85.14	-1.20	0.90	 	 	 	 	 	 	 	 	 	 	 	 	 	 	 	 	 	 	1581525516	2.33	4.32
12/02/2020 16:38:37	120220	12022020	163837	84.95	12.419135	-56.989250	84.98	0.360	-1.100	-0.030	84.95	-2.50	0.30	 	 	 	 	 	 	 	 	 	 	 	 	 	 	 	 	 	 	1581525517	3.05	5.65
12/02/2020 16:38:38	120220	12022020	163838	84.44	12.419137	-56.989235	84.45	0.750	-1.880	-0.100	84.44	-3.20	0.30	 	 	 	 	 	 	 	 	 	 	 	 	 	 	 	 	 	 	1581525518	3.35	6.20
12/02/2020 16:38:39	120220	12022020	163839	83.89	12.419138	-56.989222	83.93	0.830	-1.350	0.200	83.89	-2.60	0.60	 	 	 	 	 	 	 	 	 	 	 	 	 	 	 	 	 	 	1581525519	2.80	5.19
12/02/2020 16:38:40	120220	12022020	163840	83.60	12.419140	-56.989215	83.67	0.310	0.260	0.500	83.60	-1.00	0.90	 	 	 	 	 	 	 	 	 	 	 	 	 	 	 	 	 	 	1581525520	1.48	2.74
12/02/2020 16:38:41	120220	12022020	163841	83.50	12.419140	-56.989212	83.58	-0.610	1.670	0.610	83.50	0.40	1.00	 	 	 	 	 	 	 	 	 	 	 	 	 	 	 	 	 	 	1581525521	0.70	1.30
12/02/2020 16:38:42	120220	12022020	163842	83.41	12.419140	-56.989207	83.48	-1.340	1.900	0.800	83.41	0.50	1.20	 	 	 	 	 	 	 	 	 	 	 	 	 	 	 	 	 	 	1581525522	1.11	2.06
12/02/2020 16:38:43	120220	12022020	163843	83.24	12.419138	-56.989195	83.31	-1.300	0.870	1.070	83.24	-0.50	1.40	 	 	 	 	 	 	 	 	 	 	 	 	 	 	 	 	 	 	1581525523	2.29	4.24
12/02/2020 16:38:44	120220	12022020	163844	83.14	12.419138	-56.989180	83.22	-0.540	-0.660	1.130	83.14	-2.00	1.50	 	 	 	 	 	 	 	 	 	 	 	 	 	 	 	 	 	 	1581525524	3.18	5.89
12/02/2020 16:38:45	120220	12022020	163845	83.04	12.419140	-56.989163	83.11	0.410	-1.900	1.100	83.04	-3.20	1.50	 	 	 	 	 	 	 	 	 	 	 	 	 	 	 	 	 	 	1581525525	3.40	6.30
12/02/2020 16:38:46	120220	12022020	163846	82.76	12.419142	-56.989150	82.82	0.990	-2.230	1.290	82.76	-3.50	1.70	 	 	 	 	 	 	 	 	 	 	 	 	 	 	 	 	 	 	1581525526	3.13	5.80
12/02/2020 16:38:47	120220	12022020	163847	82.39	12.419142	-56.989138	82.48	1.010	-1.450	1.600	82.39	-2.70	2.00	 	 	 	 	 	 	 	 	 	 	 	 	 	 	 	 	 	 	1581525527	2.47	4.57
12/02/2020 16:38:48	120220	12022020	163848	82.07	12.419142	-56.989130	82.15	0.600	0.090	1.640	82.07	-1.20	2.00	 	 	 	 	 	 	 	 	 	 	 	 	 	 	 	 	 	 	1581525528	1.63	3.02
12/02/2020 16:38:49	120220	12022020	163849	81.74	12.419145	-56.989125	81.82	0.020	1.360	1.400	81.74	0.00	1.80	 	 	 	 	 	 	 	 	 	 	 	 	 	 	 	 	 	 	1581525529	1.28	2.37
12/02/2020 16:38:50	120220	12022020	163850	81.39	12.419148	-56.989117	81.44	-0.450	1.480	1.070	81.39	0.10	1.50	 	 	 	 	 	 	 	 	 	 	 	 	 	 	 	 	 	 	1581525530	1.96	3.63
12/02/2020 16:38:51	120220	12022020	163851	81.07	12.419153	-56.989103	81.12	-0.600	0.650	0.600	81.07	-0.70	1.00	 	 	 	 	 	 	 	 	 	 	 	 	 	 	 	 	 	 	1581525531	2.99	5.54
12/02/2020 16:38:52	120220	12022020	163852	80.83	12.419160	-56.989088	80.87	-0.430	-0.280	0.080	80.83	-1.60	0.50	 	 	 	 	 	 	 	 	 	 	 	 	 	 	 	 	 	 	1581525532	3.48	6.44
12/02/2020 16:38:53	120220	12022020	163853	80.63	12.419165	-56.989073	80.66	-0.170	-0.760	-0.220	80.63	-2.10	0.20	 	 	 	 	 	 	 	 	 	 	 	 	 	 	 	 	 	 	1581525533	3.20	5.93
12/02/2020 16:38:54	120220	12022020	163854	80.61	12.419168	-56.989060	80.65	0.040	-0.900	-0.330	80.61	-2.20	0.10	 	 	 	 	 	 	 	 	 	 	 	 	 	 	 	 	 	 	1581525534	2.75	5.09
12/02/2020 16:38:55	120220	12022020	163855	80.66	12.419170	-56.989048	80.67	0.200	-0.910	-0.140	80.66	-2.20	0.20	 	 	 	 	 	 	 	 	 	 	 	 	 	 	 	 	 	 	1581525535	2.65	4.91
12/02/2020 16:38:56	120220	12022020	163856	80.48	12.419170	-56.989035	80.47	0.350	-0.800	0.380	80.48	-2.10	0.80	 	 	 	 	 	 	 	 	 	 	 	 	 	 	 	 	 	 	1581525536	2.82	5.22
12/02/2020 16:38:57	120220	12022020	163857	79.87	12.419167	-56.989022	79.85	0.450	-0.500	1.210	79.87	-1.80	1.60	 	 	 	 	 	 	 	 	 	 	 	 	 	 	 	 	 	 	1581525537	2.96	5.48
12/02/2020 16:38:58	120220	12022020	163858	79.07	12.419167	-56.989007	79.09	0.410	-0.050	2.060	79.07	-1.40	2.40	 	 	 	 	 	 	 	 	 	 	 	 	 	 	 	 	 	 	1581525538	2.96	5.48
12/02/2020 16:38:59	120220	12022020	163859	78.65	12.419167	-56.988993	78.71	0.060	0.450	2.310	78.65	-0.90	2.70	 	 	 	 	 	 	 	 	 	 	 	 	 	 	 	 	 	 	1581525539	2.83	5.24
12/02/2020 16:39:00	120220	12022020	163900	78.68	12.419172	-56.988983	78.76	-0.500	0.990	1.880	78.68	-0.30	2.20	 	 	 	 	 	 	 	 	 	 	 	 	 	 	 	 	 	 	1581525540	2.58	4.78
12/02/2020 16:39:01	120220	12022020	163901	78.90	12.419177	-56.988973	78.96	-0.910	1.160	1.150	78.90	-0.20	1.50	 	 	 	 	 	 	 	 	 	 	 	 	 	 	 	 	 	 	1581525541	2.40	4.44
12/02/2020 16:39:02	120220	12022020	163902	78.93	12.419183	-56.988962	78.95	-0.750	0.380	0.560	78.93	-1.00	0.90	1016.20	26.80	26.80	19.90	19.90	730.0	65.0	65.0	434.0	29.2	355.00	11.10	79.00	10.20	57071	10429.0	27.5	27.5	1581525542	2.82	5.22
12/02/2020 16:39:03	120220	12022020	163903	78.65	12.419188	-56.988943	78.63	-0.110	-1.000	0.380	78.65	-2.40	0.80	 	 	 	 	 	 	 	 	 	 	 	 	 	 	 	 	 	 	1581525543	3.80	7.04
12/02/2020 16:39:04	120220	12022020	163904	78.23	12.419192	-56.988925	78.21	0.530	-1.980	0.520	78.23	-3.30	0.90	 	 	 	 	 	 	 	 	 	 	 	 	 	 	 	 	 	 	1581525544	4.19	7.76
12/02/2020 16:39:05	120220	12022020	163905	77.93	12.419195	-56.988907	77.91	0.860	-1.880	0.680	77.93	-3.20	1.10	 	 	 	 	 	 	 	 	 	 	 	 	 	 	 	 	 	 	1581525545	3.71	6.87
12/02/2020 16:39:06	120220	12022020	163906	77.77	12.419197	-56.988893	77.75	0.830	-0.770	0.740	77.77	-2.00	1.10	 	 	 	 	 	 	 	 	 	 	 	 	 	 	 	 	 	 	1581525546	2.81	5.20
12/02/2020 16:39:07	120220	12022020	163907	77.64	12.419200	-56.988883	77.57	0.470	0.610	0.660	77.60	-0.70	1.00	 	 	 	 	 	 	 	 	 	 	 	 	 	 	 	 	 	 	1581525547	2.18	4.04
12/02/2020 16:39:08	120220	12022020	163908	77.33	12.419205	-56.988873	77.29	-0.040	1.270	0.520	77.33	-0.10	0.90	 	 	 	 	 	 	 	 	 	 	 	 	 	 	 	 	 	 	1581525548	2.38	4.41
12/02/2020 16:39:09	120220	12022020	163909	77.12	12.419212	-56.988860	77.10	-0.430	0.840	0.390	77.12	-0.50	0.80	 	 	 	 	 	 	 	 	 	 	 	 	 	 	 	 	 	 	1581525549	3.33	6.17
12/02/2020 16:39:10	120220	12022020	163910	77.11	12.419217	-56.988842	77.10	-0.570	0.050	0.410	77.11	-1.30	0.80	 	 	 	 	 	 	 	 	 	 	 	 	 	 	 	 	 	 	1581525550	4.06	7.52
12/02/2020 16:39:11	120220	12022020	163911	77.25	12.419222	-56.988823	77.24	-0.500	-0.320	0.480	77.25	-1.60	0.90	 	 	 	 	 	 	 	 	 	 	 	 	 	 	 	 	 	 	1581525551	3.86	7.15
12/02/2020 16:39:12	120220	12022020	163912	77.40	12.419225	-56.988808	77.39	-0.360	-0.260	0.540	77.40	-1.60	0.90	 	 	 	 	 	 	 	 	 	 	 	 	 	 	 	 	 	 	1581525552	3.22	5.96
12/02/2020 16:39:13	120220	12022020	163913	77.37	12.419228	-56.988795	77.35	-0.260	-0.150	0.820	77.37	-1.50	1.20	 	 	 	 	 	 	 	 	 	 	 	 	 	 	 	 	 	 	1581525553	2.96	5.48
12/02/2020 16:39:14	120220	12022020	163914	77.11	12.419227	-56.988780	77.10	-0.160	-0.300	1.440	77.11	-1.60	1.80	 	 	 	 	 	 	 	 	 	 	 	 	 	 	 	 	 	 	1581525554	3.17	5.87
12/02/2020 16:39:15	120220	12022020	163915	76.71	12.419227	-56.988762	76.69	0.150	-0.840	2.120	76.71	-2.20	2.50	 	 	 	 	 	 	 	 	 	 	 	 	 	 	 	 	 	 	1581525555	3.72	6.89
12/02/2020 16:39:16	120220	12022020	163916	76.30	12.419230	-56.988743	76.30	0.660	-1.410	2.370	76.30	-2.70	2.70	 	 	 	 	 	 	 	 	 	 	 	 	 	 	 	 	 	 	1581525556	4.25	7.87
12/02/2020 16:39:17	120220	12022020	163917	76.11	12.419237	-56.988723	76.10	0.990	-1.200	2.000	76.11	-2.50	2.30	 	 	 	 	 	 	 	 	 	 	 	 	 	 	 	 	 	 	1581525557	4.29	7.95
12/02/2020 16:39:18	120220	12022020	163918	76.15	12.419245	-56.988710	76.12	0.720	-0.000	1.200	76.15	-1.30	1.50	 	 	 	 	 	 	 	 	 	 	 	 	 	 	 	 	 	 	1581525558	3.55	6.57
12/02/2020 16:39:19	120220	12022020	163919	76.24	12.419257	-56.988700	76.22	-0.080	1.200	0.260	76.27	-0.10	0.60	 	 	 	 	 	 	 	 	 	 	 	 	 	 	 	 	 	 	1581525559	3.01	5.57
12/02/2020 16:39:20	120220	12022020	163920	76.48	12.419265	-56.988688	76.43	-0.920	1.580	-0.490	76.48	0.30	-0.10	 	 	 	 	 	 	 	 	 	 	 	 	 	 	 	 	 	 	1581525560	3.09	5.72
12/02/2020 16:39:21	120220	12022020	163921	76.70	12.419273	-56.988675	76.69	-1.310	1.060	-0.840	76.75	-0.30	-0.50	 	 	 	 	 	 	 	 	 	 	 	 	 	 	 	 	 	 	1581525561	3.52	6.52
12/02/2020 16:39:22	120220	12022020	163922	76.82	12.419278	-56.988655	76.76	-0.910	-0.300	-0.770	76.82	-1.70	-0.40	 	 	 	 	 	 	 	 	 	 	 	 	 	 	 	 	 	 	1581525562	4.11	7.61
12/02/2020 16:39:23	120220	12022020	163923	76.59	12.419283	-56.988632	76.52	0.210	-2.010	-0.240	76.59	-3.40	0.10	 	 	 	 	 	 	 	 	 	 	 	 	 	 	 	 	 	 	1581525563	5.02	9.30
12/02/2020 16:39:24	120220	12022020	163924	76.20	12.419285	-56.988607	76.15	1.280	-2.680	0.730	76.20	-4.00	1.10	 	 	 	 	 	 	 	 	 	 	 	 	 	 	 	 	 	 	1581525564	5.36	9.93
12/02/2020 16:39:25	120220	12022020	163925	75.90	12.419287	-56.988588	75.89	1.300	-1.260	1.660	75.90	-2.50	2.00	 	 	 	 	 	 	 	 	 	 	 	 	 	 	 	 	 	 	1581525565	4.12	7.63
12/02/2020 16:39:26	120220	12022020	163926	75.87	12.419287	-56.988578	75.89	0.180	1.220	2.050	75.87	-0.10	2.40	 	 	 	 	 	 	 	 	 	 	 	 	 	 	 	 	 	 	1581525566	2.04	3.78
12/02/2020 16:39:27	120220	12022020	163927	76.23	12.419288	-56.988572	76.27	-1.120	2.710	1.860	76.23	1.40	2.20	 	 	 	 	 	 	 	 	 	 	 	 	 	 	 	 	 	 	1581525567	1.44	2.67
12/02/2020 16:39:28	120220	12022020	163928	76.76	12.419295	-56.988560	76.78	-1.550	2.160	1.320	76.76	0.80	1.70	 	 	 	 	 	 	 	 	 	 	 	 	 	 	 	 	 	 	1581525568	2.81	5.20
12/02/2020 16:39:29	120220	12022020	163929	77.09	12.419303	-56.988540	77.07	-0.850	-0.020	0.740	77.09	-1.40	1.10	 	 	 	 	 	 	 	 	 	 	 	 	 	 	 	 	 	 	1581525569	4.73	8.76
12/02/2020 16:39:30	120220	12022020	163930	77.13	12.419313	-56.988513	77.09	0.380	-2.280	0.340	77.13	-3.60	0.70	 	 	 	 	 	 	 	 	 	 	 	 	 	 	 	 	 	 	1581525570	5.86	10.85
12/02/2020 16:39:31	120220	12022020	163931	76.99	12.419322	-56.988488	76.93	1.290	-3.040	0.330	76.99	-4.30	0.70	 	 	 	 	 	 	 	 	 	 	 	 	 	 	 	 	 	 	1581525571	5.51	10.20
12/02/2020 16:39:32	120220	12022020	163932	76.85	12.419328	-56.988472	76.81	1.270	-1.870	0.700	76.85	-3.10	1.10	 	 	 	 	 	 	 	 	 	 	 	 	 	 	 	 	 	 	1581525572	3.99	7.39
12/02/2020 16:39:33	120220	12022020	163933	76.94	12.419332	-56.988460	76.93	0.440	0.170	1.060	76.94	-1.10	1.40	 	 	 	 	 	 	 	 	 	 	 	 	 	 	 	 	 	 	1581525573	2.56	4.74
12/02/2020 16:39:34	120220	12022020	163934	77.19	12.419335	-56.988448	77.19	-0.550	1.700	1.160	77.19	0.40	1.50	 	 	 	 	 	 	 	 	 	 	 	 	 	 	 	 	 	 	1581525574	2.34	4.33
12/02/2020 16:39:35	120220	12022020	163935	77.44	12.419338	-56.988435	77.45	-1.050	2.140	1.000	77.44	0.80	1.40	 	 	 	 	 	 	 	 	 	 	 	 	 	 	 	 	 	 	1581525575	3.05	5.65
12/02/2020 16:39:36	120220	12022020	163936	77.71	12.419345	-56.988417	77.72	-0.840	1.350	0.770	77.71	-0.00	1.10	 	 	 	 	 	 	 	 	 	 	 	 	 	 	 	 	 	 	1581525576	3.98	7.37
12/02/2020 16:39:37	120220	12022020	163937	77.95	12.419352	-56.988395	77.96	-0.130	-0.460	0.630	77.95	-1.80	1.00	 	 	 	 	 	 	 	 	 	 	 	 	 	 	 	 	 	 	1581525577	5.04	9.33
12/02/2020 16:39:38	120220	12022020	163938	78.03	12.419358	-56.988368	78.02	0.600	-2.200	0.560	78.03	-3.50	0.90	 	 	 	 	 	 	 	 	 	 	 	 	 	 	 	 	 	 	1581525578	5.84	10.82
12/02/2020 16:39:39	120220	12022020	163939	78.12	12.419367	-56.988343	78.10	0.840	-2.210	0.440	78.12	-3.50	0.80	 	 	 	 	 	 	 	 	 	 	 	 	 	 	 	 	 	 	1581525579	5.34	9.89
12/02/2020 16:39:40	120220	12022020	163940	78.38	12.419373	-56.988330	78.36	0.430	-0.380	0.450	78.38	-1.60	0.80	 	 	 	 	 	 	 	 	 	 	 	 	 	 	 	 	 	 	1581525580	3.31	6.13
12/02/2020 16:39:41	120220	12022020	163941	78.69	12.419377	-56.988322	78.68	-0.220	1.370	0.680	78.69	0.10	1.10	 	 	 	 	 	 	 	 	 	 	 	 	 	 	 	 	 	 	1581525581	2.01	3.72
12/02/2020 16:39:42	120220	12022020	163942	78.94	12.419382	-56.988308	78.95	-0.500	1.410	0.910	78.94	0.10	1.30	 	 	 	 	 	 	 	 	 	 	 	 	 	 	 	 	 	 	1581525582	2.90	5.37
12/02/2020 16:39:43	120220	12022020	163943	79.07	12.419387	-56.988287	79.07	-0.240	0.030	1.010	79.07	-1.30	1.40	 	 	 	 	 	 	 	 	 	 	 	 	 	 	 	 	 	 	1581525583	4.85	8.98
12/02/2020 16:39:44	120220	12022020	163944	79.03	12.419393	-56.988260	79.01	0.200	-1.290	1.200	79.03	-2.60	1.60	 	 	 	 	 	 	 	 	 	 	 	 	 	 	 	 	 	 	1581525584	5.76	10.67
12/02/2020 16:39:45	120220	12022020	163945	78.95	12.419398	-56.988235	78.97	0.410	-1.520	1.540	78.95	-2.80	1.90	 	 	 	 	 	 	 	 	 	 	 	 	 	 	 	 	 	 	1581525585	5.22	9.67
12/02/2020 16:39:46	120220	12022020	163946	79.18	12.419402	-56.988217	79.24	0.250	-0.700	1.670	79.18	-2.00	2.00	 	 	 	 	 	 	 	 	 	 	 	 	 	 	 	 	 	 	1581525586	4.07	7.54
12/02/2020 16:39:47	120220	12022020	163947	79.69	12.419407	-56.988202	79.75	-0.130	0.390	1.410	79.69	-0.90	1.80	 	 	 	 	 	 	 	 	 	 	 	 	 	 	 	 	 	 	1581525587	3.38	6.26
12/02/2020 16:39:48	120220	12022020	163948	80.17	12.419413	-56.988187	80.20	-0.400	0.940	0.930	80.17	-0.40	1.30	 	 	 	 	 	 	 	 	 	 	 	 	 	 	 	 	 	 	1581525588	3.57	6.61
12/02/2020 16:39:49	120220	12022020	163949	80.46	12.419422	-56.988167	80.47	-0.380	0.740	0.410	80.46	-0.60	0.80	 	 	 	 	 	 	 	 	 	 	 	 	 	 	 	 	 	 	1581525589	4.29	7.95
12/02/2020 16:39:50	120220	12022020	163950	80.66	12.419428	-56.988145	80.67	-0.170	0.130	0.030	80.66	-1.20	0.40	 	 	 	 	 	 	 	 	 	 	 	 	 	 	 	 	 	 	1581525590	4.78	8.85
12/02/2020 16:39:51	120220	12022020	163951	80.84	12.419435	-56.988123	80.85	0.200	-0.620	-0.070	80.84	-1.90	0.30	 	 	 	 	 	 	 	 	 	 	 	 	 	 	 	 	 	 	1581525591	4.97	9.20
12/02/2020 16:39:52	120220	12022020	163952	80.95	12.419442	-56.988100	80.95	0.640	-1.270	0.020	80.95	-2.60	0.40	 	 	 	 	 	 	 	 	 	 	 	 	 	 	 	 	 	 	1581525592	5.12	9.48
12/02/2020 16:39:53	120220	12022020	163953	80.91	12.419450	-56.988077	80.90	0.930	-1.540	0.160	80.91	-2.80	0.50	 	 	 	 	 	 	 	 	 	 	 	 	 	 	 	 	 	 	1581525593	5.25	9.72
12/02/2020 16:39:54	120220	12022020	163954	80.85	12.419457	-56.988053	80.86	0.760	-1.030	0.330	80.85	-2.30	0.70	 	 	 	 	 	 	 	 	 	 	 	 	 	 	 	 	 	 	1581525594	5.07	9.39
12/02/2020 16:39:55	120220	12022020	163955	81.07	12.419463	-56.988035	81.13	0.040	0.370	0.640	81.07	-0.90	1.00	 	 	 	 	 	 	 	 	 	 	 	 	 	 	 	 	 	 	1581525595	4.18	7.74
12/02/2020 16:39:56	120220	12022020	163956	81.76	12.419465	-56.988020	81.85	-0.930	1.790	0.820	81.76	0.50	1.20	 	 	 	 	 	 	 	 	 	 	 	 	 	 	 	 	 	 	1581525596	3.25	6.02
12/02/2020 16:39:57	120220	12022020	163957	82.49	12.419468	-56.988003	82.74	-1.530	2.030	0.740	82.65	0.70	1.10	 	 	 	 	 	 	 	 	 	 	 	 	 	 	 	 	 	 	1581525597	3.38	6.26
12/02/2020 16:39:58	120220	12022020	163958	83.12	12.419470	-56.987982	83.17	-1.220	0.580	0.850	83.12	-0.80	1.20	 	 	 	 	 	 	 	 	 	 	 	 	 	 	 	 	 	 	1581525598	4.72	8.74
12/02/2020 16:39:59	120220	12022020	163959	82.96	12.419472	-56.987952	82.98	-0.010	-1.670	1.180	82.96	-3.00	1.50	 	 	 	 	 	 	 	 	 	 	 	 	 	 	 	 	 	 	1581525599	6.35	11.76
12/02/2020 16:40:00	120220	12022020	164000	82.51	12.419475	-56.987920	82.54	1.300	-2.970	1.350	82.51	-4.30	1.70	 	 	 	 	 	 	 	 	 	 	 	 	 	 	 	 	 	 	1581525600	6.78	12.56
12/02/2020 16:40:01	120220	12022020	164001	82.30	12.419482	-56.987893	82.35	1.810	-2.230	0.960	82.30	-3.50	1.30	 	 	 	 	 	 	 	 	 	 	 	 	 	 	 	 	 	 	1581525601	5.67	10.50
12/02/2020 16:40:02	120220	12022020	164002	82.51	12.419493	-56.987878	82.58	1.190	-0.050	0.050	82.51	-1.30	0.40	1016.20	26.70	26.80	19.90	20.00	725.0	66.0	66.0	433.0	29.2	2.00	11.90	81.00	9.80	56959	10366.0	27.5	27.5	1581525602	4.15	7.69
12/02/2020 16:40:03	120220	12022020	164003	82.86	12.419503	-56.987865	82.90	-0.040	1.840	-0.860	82.86	0.50	-0.50	 	 	 	 	 	 	 	 	 	 	 	 	 	 	 	 	 	 	1581525603	3.49	6.46
12/02/2020 16:40:04	120220	12022020	164004	82.81	12.419512	-56.987850	82.80	-1.120	2.270	-1.160	82.81	0.90	-0.80	 	 	 	 	 	 	 	 	 	 	 	 	 	 	 	 	 	 	1581525604	3.74	6.93
12/02/2020 16:40:05	120220	12022020	164005	82.37	12.419517	-56.987827	82.35	-1.390	1.100	-0.910	82.37	-0.30	-0.50	 	 	 	 	 	 	 	 	 	 	 	 	 	 	 	 	 	 	1581525605	4.91	9.09
12/02/2020 16:40:06	120220	12022020	164006	81.99	12.419518	-56.987798	81.99	-0.770	-0.860	-0.690	81.99	-2.20	-0.30	 	 	 	 	 	 	 	 	 	 	 	 	 	 	 	 	 	 	1581525606	6.21	11.50
12/02/2020 16:40:07	120220	12022020	164007	81.74	12.419520	-56.987767	81.74	0.160	-2.180	-0.500	81.74	-3.50	-0.10	 	 	 	 	 	 	 	 	 	 	 	 	 	 	 	 	 	 	1581525607	6.59	12.20
12/02/2020 16:40:08	120220	12022020	164008	81.34	12.419522	-56.987740	81.34	0.630	-1.820	-0.180	81.34	-3.10	0.20	 	 	 	 	 	 	 	 	 	 	 	 	 	 	 	 	 	 	1581525608	5.53	10.24
12/02/2020 16:40:09	120220	12022020	164009	80.88	12.419523	-56.987722	80.74	0.400	-0.310	0.280	80.76	-1.60	0.70	 	 	 	 	 	 	 	 	 	 	 	 	 	 	 	 	 	 	1581525609	3.92	7.26
12/02/2020 16:40:10	120220	12022020	164010	80.11	12.419527	-56.987707	80.10	-0.100	0.880	0.880	80.11	-0.40	1.30	 	 	 	 	 	 	 	 	 	 	 	 	 	 	 	 	 	 	1581525610	3.44	6.37
12/02/2020 16:40:11	120220	12022020	164011	79.62	12.419530	-56.987687	79.54	-0.350	0.900	1.430	79.52	-0.40	1.80	 	 	 	 	 	 	 	 	 	 	 	 	 	 	 	 	 	 	1581525611	4.34	8.04
12/02/2020 16:40:12	120220	12022020	164012	79.18	12.419533	-56.987660	79.23	-0.180	0.110	1.710	79.18	-1.20	2.10	 	 	 	 	 	 	 	 	 	 	 	 	 	 	 	 	 	 	1581525612	5.52	10.22
12/02/2020 16:40:13	120220	12022020	164013	79.17	12.419542	-56.987633	79.24	0.280	-0.700	1.670	79.17	-2.00	2.00	 	 	 	 	 	 	 	 	 	 	 	 	 	 	 	 	 	 	1581525613	6.00	11.11
12/02/2020 16:40:14	120220	12022020	164014	79.26	12.419550	-56.987607	79.33	0.710	-1.010	1.630	79.26	-2.30	2.00	 	 	 	 	 	 	 	 	 	 	 	 	 	 	 	 	 	 	1581525614	5.79	10.72
12/02/2020 16:40:15	120220	12022020	164015	79.31	12.419557	-56.987582	79.36	0.780	-0.780	1.740	79.31	-2.10	2.10	 	 	 	 	 	 	 	 	 	 	 	 	 	 	 	 	 	 	1581525615	5.32	9.85
12/02/2020 16:40:16	120220	12022020	164016	79.23	12.419560	-56.987560	79.26	0.450	-0.200	2.000	79.23	-1.50	2.40	 	 	 	 	 	 	 	 	 	 	 	 	 	 	 	 	 	 	1581525616	4.95	9.17
12/02/2020 16:40:17	120220	12022020	164017	78.97	12.419563	-56.987537	79.00	-0.150	0.490	2.250	78.97	-0.80	2.60	 	 	 	 	 	 	 	 	 	 	 	 	 	 	 	 	 	 	1581525617	4.71	8.72
12/02/2020 16:40:18	120220	12022020	164018	78.86	12.419568	-56.987517	78.91	-0.790	1.030	2.130	78.86	-0.30	2.50	 	 	 	 	 	 	 	 	 	 	 	 	 	 	 	 	 	 	1581525618	4.59	8.50
12/02/2020 16:40:19	120220	12022020	164019	79.11	12.419575	-56.987495	79.17	-1.130	0.950	1.550	79.11	-0.40	1.90	 	 	 	 	 	 	 	 	 	 	 	 	 	 	 	 	 	 	1581525619	4.67	8.65
12/02/2020 16:40:20	120220	12022020	164020	79.43	12.419585	-56.987472	79.46	-0.770	-0.230	0.890	79.43	-1.60	1.20	 	 	 	 	 	 	 	 	 	 	 	 	 	 	 	 	 	 	1581525620	5.48	10.15
12/02/2020 16:40:21	120220	12022020	164021	79.41	12.419595	-56.987442	79.41	0.250	-1.840	0.570	79.41	-3.20	0.90	 	 	 	 	 	 	 	 	 	 	 	 	 	 	 	 	 	 	1581525621	6.72	12.45
12/02/2020 16:40:22	120220	12022020	164022	79.23	12.419603	-56.987410	79.24	1.180	-2.340	0.590	79.23	-3.60	1.00	 	 	 	 	 	 	 	 	 	 	 	 	 	 	 	 	 	 	1581525622	6.88	12.74
12/02/2020 16:40:23	120220	12022020	164023	79.31	12.419612	-56.987385	79.33	1.360	-1.270	0.670	79.31	-2.50	1.10	 	 	 	 	 	 	 	 	 	 	 	 	 	 	 	 	 	 	1581525623	5.59	10.35
12/02/2020 16:40:24	120220	12022020	164024	79.76	12.419618	-56.987365	79.80	0.800	0.380	0.600	79.76	-0.90	1.00	 	 	 	 	 	 	 	 	 	 	 	 	 	 	 	 	 	 	1581525624	4.47	8.28
12/02/2020 16:40:25	120220	12022020	164025	80.39	12.419627	-56.987345	80.43	-0.090	1.630	0.510	80.39	0.30	0.90	 	 	 	 	 	 	 	 	 	 	 	 	 	 	 	 	 	 	1581525625	4.34	8.04
12/02/2020 16:40:26	120220	12022020	164026	80.98	12.419633	-56.987325	81.01	-0.900	2.000	0.520	80.98	0.70	0.90	 	 	 	 	 	 	 	 	 	 	 	 	 	 	 	 	 	 	1581525626	4.67	8.65
12/02/2020 16:40:27	120220	12022020	164027	81.40	12.419640	-56.987300	81.42	-1.300	1.300	0.690	81.40	-0.10	1.10	 	 	 	 	 	 	 	 	 	 	 	 	 	 	 	 	 	 	1581525627	5.24	9.70
12/02/2020 16:40:28	120220	12022020	164028	81.60	12.419643	-56.987272	81.63	-1.000	-0.380	1.130	81.60	-1.70	1.50	 	 	 	 	 	 	 	 	 	 	 	 	 	 	 	 	 	 	1581525628	6.08	11.26
12/02/2020 16:40:29	120220	12022020	164029	81.68	12.419647	-56.987240	81.73	-0.090	-2.280	1.660	81.68	-3.60	2.00	 	 	 	 	 	 	 	 	 	 	 	 	 	 	 	 	 	 	1581525629	7.01	12.98
12/02/2020 16:40:30	120220	12022020	164030	81.93	12.419652	-56.987205	82.01	0.880	-3.180	1.820	81.93	-4.50	2.20	 	 	 	 	 	 	 	 	 	 	 	 	 	 	 	 	 	 	1581525630	7.17	13.28
12/02/2020 16:40:31	120220	12022020	164031	82.25	12.419657	-56.987177	82.32	1.340	-2.300	1.540	82.25	-3.50	1.90	 	 	 	 	 	 	 	 	 	 	 	 	 	 	 	 	 	 	1581525631	6.22	11.52
12/02/2020 16:40:32	120220	12022020	164032	82.64	12.419665	-56.987155	82.72	1.050	0.030	1.110	82.64	-1.20	1.50	 	 	 	 	 	 	 	 	 	 	 	 	 	 	 	 	 	 	1581525632	4.79	8.87
12/02/2020 16:40:33	120220	12022020	164033	83.32	12.419673	-56.987140	83.41	0.070	2.460	0.530	83.32	1.20	0.90	 	 	 	 	 	 	 	 	 	 	 	 	 	 	 	 	 	 	1581525633	3.81	7.06
12/02/2020 16:40:34	120220	12022020	164034	84.30	12.419685	-56.987123	84.38	-1.050	3.330	-0.270	84.30	2.00	0.10	 	 	 	 	 	 	 	 	 	 	 	 	 	 	 	 	 	 	1581525634	4.04	7.48
12/02/2020 16:40:35	120220	12022020	164035	85.19	12.419695	-56.987100	85.23	-1.520	1.760	-0.820	85.19	0.40	-0.40	 	 	 	 	 	 	 	 	 	 	 	 	 	 	 	 	 	 	1581525635	5.60	10.37
12/02/2020 16:40:36	120220	12022020	164036	85.67	12.419702	-56.987065	85.70	-1.040	-1.140	-0.600	85.67	-2.50	-0.20	 	 	 	 	 	 	 	 	 	 	 	 	 	 	 	 	 	 	1581525636	7.42	13.74
12/02/2020 16:40:37	120220	12022020	164037	85.87	12.419703	-56.987028	85.91	0.010	-3.130	0.000	85.87	-4.40	0.40	 	 	 	 	 	 	 	 	 	 	 	 	 	 	 	 	 	 	1581525637	7.91	14.65
12/02/2020 16:40:38	120220	12022020	164038	85.97	12.419705	-56.986997	86.03	0.900	-3.030	0.580	85.97	-4.30	1.00	 	 	 	 	 	 	 	 	 	 	 	 	 	 	 	 	 	 	1581525638	6.57	12.17
12/02/2020 16:40:39	120220	12022020	164039	86.19	12.419708	-56.986973	86.28	1.170	-1.550	0.790	86.19	-2.80	1.20	 	 	 	 	 	 	 	 	 	 	 	 	 	 	 	 	 	 	1581525639	5.07	9.39
12/02/2020 16:40:40	120220	12022020	164040	86.85	12.419715	-56.986952	86.97	0.740	0.230	0.460	86.85	-1.00	0.80	 	 	 	 	 	 	 	 	 	 	 	 	 	 	 	 	 	 	1581525640	4.66	8.63
12/02/2020 16:40:41	120220	12022020	164041	87.78	12.419722	-56.986930	87.89	-0.070	1.640	-0.050	87.78	0.30	0.30	 	 	 	 	 	 	 	 	 	 	 	 	 	 	 	 	 	 	1581525641	4.72	8.74
12/02/2020 16:40:42	120220	12022020	164042	88.56	12.419727	-56.986908	88.63	-0.750	2.090	-0.270	88.56	0.80	0.10	 	 	 	 	 	 	 	 	 	 	 	 	 	 	 	 	 	 	1581525642	4.99	9.24
12/02/2020 16:40:43	120220	12022020	164043	89.10	12.419730	-56.986880	89.14	-0.910	1.240	-0.110	89.10	-0.10	0.30	 	 	 	 	 	 	 	 	 	 	 	 	 	 	 	 	 	 	1581525643	5.81	10.76
12/02/2020 16:40:44	120220	12022020	164044	89.36	12.419733	-56.986848	89.40	-0.540	-0.310	0.230	89.36	-1.70	0.60	 	 	 	 	 	 	 	 	 	 	 	 	 	 	 	 	 	 	1581525644	6.81	12.61
12/02/2020 16:40:45	120220	12022020	164045	89.47	12.419735	-56.986815	89.54	-0.040	-1.450	0.570	89.47	-2.80	1.00	 	 	 	 	 	 	 	 	 	 	 	 	 	 	 	 	 	 	1581525645	7.06	13.08
12/02/2020 16:40:46	120220	12022020	164046	89.68	12.419737	-56.986785	89.79	0.220	-1.550	0.910	89.68	-2.80	1.30	 	 	 	 	 	 	 	 	 	 	 	 	 	 	 	 	 	 	1581525646	6.36	11.78
12/02/2020 16:40:47	120220	12022020	164047	89.99	12.419738	-56.986760	90.20	0.240	-1.000	1.010	90.08	-2.30	1.40	 	 	 	 	 	 	 	 	 	 	 	 	 	 	 	 	 	 	1581525647	5.46	10.11
12/02/2020 16:40:48	120220	12022020	164048	90.57	12.419740	-56.986733	90.68	0.340	-0.640	0.820	90.57	-1.90	1.20	 	 	 	 	 	 	 	 	 	 	 	 	 	 	 	 	 	 	1581525648	5.43	10.06
12/02/2020 16:40:49	120220	12022020	164049	90.99	12.419745	-56.986705	91.08	0.630	-0.540	0.450	90.99	-1.90	0.80	 	 	 	 	 	 	 	 	 	 	 	 	 	 	 	 	 	 	1581525649	6.15	11.39
12/02/2020 16:40:50	120220	12022020	164050	91.23	12.419750	-56.986675	91.30	0.750	-0.100	0.120	91.23	-1.40	0.50	 	 	 	 	 	 	 	 	 	 	 	 	 	 	 	 	 	 	1581525650	6.50	12.04
12/02/2020 16:40:51	120220	12022020	164051	91.47	12.419755	-56.986647	91.56	0.240	0.830	0.120	91.47	-0.50	0.50	 	 	 	 	 	 	 	 	 	 	 	 	 	 	 	 	 	 	1581525651	5.89	10.91
12/02/2020 16:40:52	120220	12022020	164052	91.88	12.419757	-56.986623	91.99	-0.700	1.500	0.370	91.88	0.20	0.80	 	 	 	 	 	 	 	 	 	 	 	 	 	 	 	 	 	 	1581525652	5.14	9.52
12/02/2020 16:40:53	120220	12022020	164053	92.46	12.419758	-56.986597	92.57	-1.320	0.990	0.390	92.46	-0.40	0.80	 	 	 	 	 	 	 	 	 	 	 	 	 	 	 	 	 	 	1581525653	5.52	10.22
12/02/2020 16:40:54	120220	12022020	164054	92.85	12.419758	-56.986565	92.93	-0.970	-0.590	0.350	92.85	-2.00	0.70	 	 	 	 	 	 	 	 	 	 	 	 	 	 	 	 	 	 	1581525654	6.82	12.63
12/02/2020 16:40:55	120220	12022020	164055	92.88	12.419757	-56.986528	92.95	0.090	-2.010	0.550	92.88	-3.40	0.90	 	 	 	 	 	 	 	 	 	 	 	 	 	 	 	 	 	 	1581525655	7.68	14.22
12/02/2020 16:40:56	120220	12022020	164056	92.82	12.419755	-56.986495	92.88	1.010	-2.050	0.740	92.82	-3.40	1.10	 	 	 	 	 	 	 	 	 	 	 	 	 	 	 	 	 	 	1581525656	7.17	13.28
12/02/2020 16:40:57	120220	12022020	164057	92.81	12.419755	-56.986467	92.86	1.120	-0.710	0.640	92.81	-2.00	1.00	 	 	 	 	 	 	 	 	 	 	 	 	 	 	 	 	 	 	1581525657	5.75	10.65
12/02/2020 16:40:58	120220	12022020	164058	93.04	12.419760	-56.986445	93.11	0.510	0.870	0.190	93.04	-0.40	0.60	 	 	 	 	 	 	 	 	 	 	 	 	 	 	 	 	 	 	1581525658	4.89	9.06
12/02/2020 16:40:59	120220	12022020	164059	93.47	12.419767	-56.986422	93.65	-0.340	1.570	-0.370	93.58	0.20	0.00	 	 	 	 	 	 	 	 	 	 	 	 	 	 	 	 	 	 	1581525659	5.20	9.63
12/02/2020 16:41:00	120220	12022020	164100	94.13	12.419770	-56.986392	94.19	-0.920	0.940	-0.480	94.13	-0.50	-0.10	 	 	 	 	 	 	 	 	 	 	 	 	 	 	 	 	 	 	1581525660	6.10	11.30
12/02/2020 16:41:01	120220	12022020	164101	94.37	12.419767	-56.986358	94.45	-0.840	-0.500	-0.020	94.40	-1.90	0.40	 	 	 	 	 	 	 	 	 	 	 	 	 	 	 	 	 	 	1581525661	7.12	13.19
12/02/2020 16:41:02	120220	12022020	164102	94.21	12.419762	-56.986323	94.26	-0.080	-1.720	0.740	94.21	-3.10	1.20	1016.30	26.70	26.80	19.90	20.00	722.0	66.0	66.0	434.0	29.2	351.00	14.00	74.00	11.20	56955	11036.0	27.5	27.4	1581525662	7.68	14.22
12/02/2020 16:41:03	120220	12022020	164103	93.90	12.419757	-56.986288	93.98	0.770	-1.780	1.140	93.90	-3.10	1.50	 	 	 	 	 	 	 	 	 	 	 	 	 	 	 	 	 	 	1581525663	7.26	13.45
12/02/2020 16:41:04	120220	12022020	164104	94.07	12.419758	-56.986260	94.18	0.920	-0.630	1.010	94.07	-1.90	1.40	 	 	 	 	 	 	 	 	 	 	 	 	 	 	 	 	 	 	1581525664	6.09	11.28
12/02/2020 16:41:05	120220	12022020	164105	94.72	12.419760	-56.986235	94.86	0.270	0.700	0.810	94.72	-0.60	1.20	 	 	 	 	 	 	 	 	 	 	 	 	 	 	 	 	 	 	1581525665	5.20	9.63
12/02/2020 16:41:06	120220	12022020	164106	95.41	12.419760	-56.986210	95.52	-0.510	1.090	0.730	95.41	-0.30	1.10	 	 	 	 	 	 	 	 	 	 	 	 	 	 	 	 	 	 	1581525666	5.40	10.00
12/02/2020 16:41:07	120220	12022020	164107	95.77	12.419758	-56.986178	95.86	-0.680	0.340	0.870	95.77	-1.00	1.30	 	 	 	 	 	 	 	 	 	 	 	 	 	 	 	 	 	 	1581525667	6.57	12.17
12/02/2020 16:41:08	120220	12022020	164108	95.85	12.419755	-56.986143	95.95	-0.270	-0.600	1.170	95.85	-2.00	1.60	 	 	 	 	 	 	 	 	 	 	 	 	 	 	 	 	 	 	1581525668	7.47	13.83
12/02/2020 16:41:09	120220	12022020	164109	95.77	12.419750	-56.986110	95.88	0.190	-0.870	1.530	95.77	-2.20	1.90	 	 	 	 	 	 	 	 	 	 	 	 	 	 	 	 	 	 	1581525669	7.27	13.46
12/02/2020 16:41:10	120220	12022020	164110	95.66	12.419748	-56.986080	95.76	0.300	-0.370	1.490	95.66	-1.70	1.90	 	 	 	 	 	 	 	 	 	 	 	 	 	 	 	 	 	 	1581525670	6.40	11.85
12/02/2020 16:41:11	120220	12022020	164111	95.74	12.419750	-56.986052	95.84	0.120	0.320	0.730	95.74	-1.00	1.10	 	 	 	 	 	 	 	 	 	 	 	 	 	 	 	 	 	 	1581525671	5.79	10.72
12/02/2020 16:41:12	120220	12022020	164112	96.04	12.419755	-56.986025	96.14	-0.030	0.410	-0.240	96.04	-1.00	0.10	 	 	 	 	 	 	 	 	 	 	 	 	 	 	 	 	 	 	1581525672	6.07	11.24
12/02/2020 16:41:13	120220	12022020	164113	96.26	12.419758	-56.985992	96.33	0.080	-0.470	-0.710	96.26	-1.90	-0.30	 	 	 	 	 	 	 	 	 	 	 	 	 	 	 	 	 	 	1581525673	6.88	12.74
12/02/2020 16:41:14	120220	12022020	164114	96.07	12.419757	-56.985955	96.11	0.390	-1.710	-0.640	96.07	-3.10	-0.20	 	 	 	 	 	 	 	 	 	 	 	 	 	 	 	 	 	 	1581525674	7.85	14.54
12/02/2020 16:41:15	120220	12022020	164115	95.49	12.419752	-56.985918	95.53	0.450	-1.710	-0.140	95.49	-3.00	0.30	 	 	 	 	 	 	 	 	 	 	 	 	 	 	 	 	 	 	1581525675	7.86	14.56
12/02/2020 16:41:16	120220	12022020	164116	94.91	12.419745	-56.985890	94.98	-0.010	-0.000	0.560	94.91	-1.30	1.00	 	 	 	 	 	 	 	 	 	 	 	 	 	 	 	 	 	 	1581525676	6.16	11.41
12/02/2020 16:41:17	120220	12022020	164117	94.60	12.419740	-56.985868	94.67	-0.630	1.760	0.710	94.60	0.40	1.10	 	 	 	 	 	 	 	 	 	 	 	 	 	 	 	 	 	 	1581525677	4.69	8.69
12/02/2020 16:41:18	120220	12022020	164118	94.48	12.419740	-56.985843	94.54	-0.750	1.780	0.350	94.48	0.40	0.70	 	 	 	 	 	 	 	 	 	 	 	 	 	 	 	 	 	 	1581525678	5.27	9.76
12/02/2020 16:41:19	120220	12022020	164119	94.26	12.419740	-56.985808	94.31	-0.170	0.090	0.210	94.26	-1.30	0.60	 	 	 	 	 	 	 	 	 	 	 	 	 	 	 	 	 	 	1581525679	7.31	13.54
12/02/2020 16:41:20	120220	12022020	164120	93.90	12.419740	-56.985768	93.96	0.530	-1.610	0.490	93.90	-3.00	0.90	 	 	 	 	 	 	 	 	 	 	 	 	 	 	 	 	 	 	1581525680	8.48	15.70
12/02/2020 16:41:21	120220	12022020	164121	93.52	12.419735	-56.985732	93.59	0.690	-1.980	1.200	93.52	-3.30	1.60	 	 	 	 	 	 	 	 	 	 	 	 	 	 	 	 	 	 	1581525681	7.81	14.46
12/02/2020 16:41:22	120220	12022020	164122	93.12	12.419728	-56.985702	93.19	0.240	-1.050	2.240	93.12	-2.30	2.70	 	 	 	 	 	 	 	 	 	 	 	 	 	 	 	 	 	 	1581525682	6.48	12.00
12/02/2020 16:41:23	120220	12022020	164123	92.79	12.419722	-56.985677	92.91	-0.230	0.340	2.880	92.79	-1.00	3.30	 	 	 	 	 	 	 	 	 	 	 	 	 	 	 	 	 	 	1581525683	5.61	10.39
12/02/2020 16:41:24	120220	12022020	164124	92.76	12.419718	-56.985652	92.91	-0.320	1.210	2.830	92.76	-0.10	3.20	 	 	 	 	 	 	 	 	 	 	 	 	 	 	 	 	 	 	1581525684	5.41	10.02
12/02/2020 16:41:25	120220	12022020	164125	92.92	12.419720	-56.985622	93.12	-0.050	0.740	2.500	92.97	-0.60	2.90	 	 	 	 	 	 	 	 	 	 	 	 	 	 	 	 	 	 	1581525685	6.29	11.65
12/02/2020 16:41:26	120220	12022020	164126	93.29	12.419720	-56.985585	93.44	0.340	-0.830	2.190	93.29	-2.20	2.60	 	 	 	 	 	 	 	 	 	 	 	 	 	 	 	 	 	 	1581525686	7.75	14.35
12/02/2020 16:41:27	120220	12022020	164127	93.53	12.419718	-56.985545	93.68	0.430	-1.760	2.240	93.53	-3.10	2.60	 	 	 	 	 	 	 	 	 	 	 	 	 	 	 	 	 	 	1581525687	8.36	15.48
12/02/2020 16:41:28	120220	12022020	164128	93.68	12.419715	-56.985513	93.80	0.010	-0.770	2.250	93.68	-2.00	2.60	 	 	 	 	 	 	 	 	 	 	 	 	 	 	 	 	 	 	1581525688	6.85	12.69
12/02/2020 16:41:29	120220	12022020	164129	93.85	12.419715	-56.985490	93.96	-0.610	1.080	1.780	93.85	-0.20	2.20	 	 	 	 	 	 	 	 	 	 	 	 	 	 	 	 	 	 	1581525689	4.80	8.89
12/02/2020 16:41:30	120220	12022020	164130	94.21	12.419718	-56.985468	94.33	-0.810	1.640	0.910	94.21	0.30	1.30	 	 	 	 	 	 	 	 	 	 	 	 	 	 	 	 	 	 	1581525690	4.82	8.93
12/02/2020 16:41:31	120220	12022020	164131	94.80	12.419723	-56.985437	94.91	-0.240	0.150	0.120	94.80	-1.30	0.50	 	 	 	 	 	 	 	 	 	 	 	 	 	 	 	 	 	 	1581525691	6.85	12.69
12/02/2020 16:41:32	120220	12022020	164132	95.40	12.419727	-56.985397	95.52	0.590	-1.740	-0.250	95.40	-3.10	0.20	 	 	 	 	 	 	 	 	 	 	 	 	 	 	 	 	 	 	1581525692	8.53	15.80
12/02/2020 16:41:33	120220	12022020	164133	95.95	12.419727	-56.985358	96.05	0.870	-2.030	-0.360	95.95	-3.30	0.00	 	 	 	 	 	 	 	 	 	 	 	 	 	 	 	 	 	 	1581525693	7.98	14.78
12/02/2020 16:41:34	120220	12022020	164134	96.35	12.419727	-56.985330	96.43	0.470	-0.570	-0.210	96.35	-1.80	0.20	 	 	 	 	 	 	 	 	 	 	 	 	 	 	 	 	 	 	1581525694	5.91	10.95
12/02/2020 16:41:35	120220	12022020	164135	96.46	12.419727	-56.985308	96.53	-0.080	0.900	0.320	96.46	-0.40	0.70	 	 	 	 	 	 	 	 	 	 	 	 	 	 	 	 	 	 	1581525695	4.71	8.72
12/02/2020 16:41:36	120220	12022020	164136	96.44	12.419723	-56.985282	96.54	-0.360	1.010	0.740	96.44	-0.40	1.10	 	 	 	 	 	 	 	 	 	 	 	 	 	 	 	 	 	 	1581525696	5.58	10.33
12/02/2020 16:41:37	120220	12022020	164137	96.40	12.419720	-56.985248	96.47	-0.400	0.130	0.710	96.38	-1.30	1.10	 	 	 	 	 	 	 	 	 	 	 	 	 	 	 	 	 	 	1581525697	7.04	13.04
12/02/2020 16:41:38	120220	12022020	164138	96.24	12.419717	-56.985213	96.33	-0.370	-0.670	0.590	96.24	-2.00	1.00	 	 	 	 	 	 	 	 	 	 	 	 	 	 	 	 	 	 	1581525698	7.57	14.02
12/02/2020 16:41:39	120220	12022020	164139	96.25	12.419715	-56.985180	96.37	-0.380	-0.620	0.300	96.25	-1.90	0.70	 	 	 	 	 	 	 	 	 	 	 	 	 	 	 	 	 	 	1581525699	6.92	12.82
12/02/2020 16:41:40	120220	12022020	164140	96.42	12.419715	-56.985152	96.52	-0.370	-0.150	-0.300	96.42	-1.50	0.10	 	 	 	 	 	 	 	 	 	 	 	 	 	 	 	 	 	 	1581525700	6.04	11.19
12/02/2020 16:41:41	120220	12022020	164141	96.41	12.419715	-56.985123	96.48	-0.150	-0.130	-0.740	96.41	-1.50	-0.40	 	 	 	 	 	 	 	 	 	 	 	 	 	 	 	 	 	 	1581525701	6.08	11.26
12/02/2020 16:41:42	120220	12022020	164142	96.14	12.419712	-56.985092	96.18	0.180	-0.460	-0.630	96.14	-1.80	-0.20	 	 	 	 	 	 	 	 	 	 	 	 	 	 	 	 	 	 	1581525702	6.78	12.56
12/02/2020 16:41:43	120220	12022020	164143	95.55	12.419708	-56.985058	95.58	0.330	-0.460	-0.170	95.55	-1.80	0.20	 	 	 	 	 	 	 	 	 	 	 	 	 	 	 	 	 	 	1581525703	6.89	12.76
12/02/2020 16:41:44	120220	12022020	164144	94.63	12.419703	-56.985030	94.63	0.220	-0.060	0.340	94.63	-1.40	0.70	 	 	 	 	 	 	 	 	 	 	 	 	 	 	 	 	 	 	1581525704	6.29	11.65
12/02/2020 16:41:45	120220	12022020	164145	93.60	12.419700	-56.985000	93.61	0.080	0.150	0.870	93.60	-1.20	1.30	 	 	 	 	 	 	 	 	 	 	 	 	 	 	 	 	 	 	1581525705	6.09	11.28
12/02/2020 16:41:46	120220	12022020	164146	92.85	12.419698	-56.984970	92.90	0.090	-0.090	1.230	92.85	-1.40	1.60	 	 	 	 	 	 	 	 	 	 	 	 	 	 	 	 	 	 	1581525706	6.54	12.11
12/02/2020 16:41:47	120220	12022020	164147	92.52	12.419698	-56.984937	92.60	0.200	-0.530	1.220	92.52	-1.90	1.60	 	 	 	 	 	 	 	 	 	 	 	 	 	 	 	 	 	 	1581525707	7.03	13.02
12/02/2020 16:41:48	120220	12022020	164148	92.32	12.419697	-56.984903	92.39	0.270	-0.750	1.430	92.32	-2.10	1.80	 	 	 	 	 	 	 	 	 	 	 	 	 	 	 	 	 	 	1581525708	7.18	13.30
12/02/2020 16:41:49	120220	12022020	164149	91.87	12.419693	-56.984870	91.95	0.150	-0.620	2.170	91.87	-2.00	2.60	 	 	 	 	 	 	 	 	 	 	 	 	 	 	 	 	 	 	1581525709	6.98	12.93
12/02/2020 16:41:50	120220	12022020	164150	91.38	12.419687	-56.984838	91.50	-0.250	-0.220	3.030	91.38	-1.60	3.40	 	 	 	 	 	 	 	 	 	 	 	 	 	 	 	 	 	 	1581525710	6.81	12.61
12/02/2020 16:41:51	120220	12022020	164151	91.16	12.419680	-56.984808	91.28	-0.690	0.360	3.640	91.14	-1.00	4.00	 	 	 	 	 	 	 	 	 	 	 	 	 	 	 	 	 	 	1581525711	6.51	12.06
12/02/2020 16:41:52	120220	12022020	164152	91.26	12.419675	-56.984780	91.42	-0.820	0.850	3.530	91.26	-0.50	3.90	 	 	 	 	 	 	 	 	 	 	 	 	 	 	 	 	 	 	1581525712	6.12	11.33
12/02/2020 16:41:53	120220	12022020	164153	91.55	12.419673	-56.984752	91.69	-0.440	0.660	2.800	91.55	-0.70	3.10	 	 	 	 	 	 	 	 	 	 	 	 	 	 	 	 	 	 	1581525713	6.16	11.41
12/02/2020 16:41:54	120220	12022020	164154	91.52	12.419677	-56.984718	91.64	0.270	-0.340	2.240	91.52	-1.70	2.60	 	 	 	 	 	 	 	 	 	 	 	 	 	 	 	 	 	 	1581525714	7.03	13.02
12/02/2020 16:41:55	120220	12022020	164155	91.43	12.419680	-56.984682	91.56	0.840	-1.440	1.910	91.43	-2.80	2.30	 	 	 	 	 	 	 	 	 	 	 	 	 	 	 	 	 	 	1581525715	7.74	14.33
12/02/2020 16:41:56	120220	12022020	164156	91.78	12.419685	-56.984645	91.94	0.950	-1.800	1.580	91.78	-3.10	2.00	 	 	 	 	 	 	 	 	 	 	 	 	 	 	 	 	 	 	1581525716	7.62	14.11
12/02/2020 16:41:57	120220	12022020	164157	92.38	12.419688	-56.984613	92.55	0.610	-0.990	1.230	92.38	-2.30	1.60	 	 	 	 	 	 	 	 	 	 	 	 	 	 	 	 	 	 	1581525717	6.74	12.48
12/02/2020 16:41:58	120220	12022020	164158	93.02	12.419693	-56.984587	93.18	0.040	0.390	1.090	93.02	-0.90	1.50	 	 	 	 	 	 	 	 	 	 	 	 	 	 	 	 	 	 	1581525718	5.73	10.61
12/02/2020 16:41:59	120220	12022020	164159	93.70	12.419695	-56.984562	93.88	-0.520	1.230	1.300	93.70	-0.10	1.70	 	 	 	 	 	 	 	 	 	 	 	 	 	 	 	 	 	 	1581525719	5.48	10.15
12/02/2020 16:42:00	120220	12022020	164200	94.29	12.419690	-56.984532	94.46	-0.850	0.860	1.810	94.29	-0.50	2.20	 	 	 	 	 	 	 	 	 	 	 	 	 	 	 	 	 	 	1581525720	6.30	11.67
12/02/2020 16:42:01	120220	12022020	164201	94.73	12.419683	-56.984497	94.89	-0.720	-0.430	2.030	94.73	-1.80	2.40	 	 	 	 	 	 	 	 	 	 	 	 	 	 	 	 	 	 	1581525721	7.51	13.91
12/02/2020 16:42:02	120220	12022020	164202	95.11	12.419678	-56.984458	95.26	-0.070	-1.460	1.730	95.11	-2.80	2.10	1016.00	26.70	26.80	19.60	19.70	741.0	65.0	65.0	432.0	29.1	345.00	14.80	75.00	11.60	57888	10952.0	27.5	27.4	1581525722	8.07	14.95
12/02/2020 16:42:03	120220	12022020	164203	95.38	12.419678	-56.984423	95.53	0.650	-1.200	1.200	95.38	-2.50	1.60	 	 	 	 	 	 	 	 	 	 	 	 	 	 	 	 	 	 	1581525723	7.45	13.80
12/02/2020 16:42:04	120220	12022020	164204	95.74	12.419685	-56.984393	95.87	0.680	-0.070	0.500	95.74	-1.40	0.90	 	 	 	 	 	 	 	 	 	 	 	 	 	 	 	 	 	 	1581525724	6.42	11.89
12/02/2020 16:42:05	120220	12022020	164205	96.25	12.419690	-56.984367	96.38	-0.150	0.980	-0.040	96.25	-0.40	0.30	 	 	 	 	 	 	 	 	 	 	 	 	 	 	 	 	 	 	1581525725	5.83	10.80
12/02/2020 16:42:06	120220	12022020	164206	96.76	12.419692	-56.984340	96.89	-1.090	1.120	-0.080	96.76	-0.30	0.30	 	 	 	 	 	 	 	 	 	 	 	 	 	 	 	 	 	 	1581525726	5.81	10.76
12/02/2020 16:42:07	120220	12022020	164207	97.16	12.419687	-56.984308	97.26	-1.210	0.200	-0.100	97.16	-1.20	0.30	 	 	 	 	 	 	 	 	 	 	 	 	 	 	 	 	 	 	1581525727	6.75	12.50
12/02/2020 16:42:08	120220	12022020	164208	97.28	12.419680	-56.984272	97.35	-0.250	-1.240	-0.340	97.28	-2.60	0.00	 	 	 	 	 	 	 	 	 	 	 	 	 	 	 	 	 	 	1581525728	7.76	14.37
12/02/2020 16:42:09	120220	12022020	164209	97.00	12.419675	-56.984233	97.04	1.100	-2.160	-0.400	97.00	-3.50	-0.00	 	 	 	 	 	 	 	 	 	 	 	 	 	 	 	 	 	 	1581525729	8.16	15.11
12/02/2020 16:42:10	120220	12022020	164210	96.39	12.419673	-56.984198	96.42	1.680	-1.570	-0.270	96.39	-2.90	0.10	 	 	 	 	 	 	 	 	 	 	 	 	 	 	 	 	 	 	1581525730	7.39	13.69
12/02/2020 16:42:11	120220	12022020	164211	95.66	12.419673	-56.984172	95.70	0.910	0.270	-0.240	95.66	-1.00	0.10	 	 	 	 	 	 	 	 	 	 	 	 	 	 	 	 	 	 	1581525731	5.80	10.74
12/02/2020 16:42:12	120220	12022020	164212	95.04	12.419675	-56.984148	95.08	-0.680	1.940	-0.090	95.04	0.60	0.30	 	 	 	 	 	 	 	 	 	 	 	 	 	 	 	 	 	 	1581525732	4.77	8.83
12/02/2020 16:42:13	120220	12022020	164213	94.57	12.419673	-56.984125	94.62	-1.850	1.990	0.230	94.57	0.60	0.60	 	 	 	 	 	 	 	 	 	 	 	 	 	 	 	 	 	 	1581525733	5.22	9.67
12/02/2020 16:42:14	120220	12022020	164214	94.15	12.419667	-56.984092	94.22	-1.640	0.070	0.450	94.15	-1.40	0.80	 	 	 	 	 	 	 	 	 	 	 	 	 	 	 	 	 	 	1581525734	7.22	13.37
12/02/2020 16:42:15	120220	12022020	164215	93.80	12.419658	-56.984050	93.77	-0.400	-2.060	0.690	93.71	-3.40	1.10	 	 	 	 	 	 	 	 	 	 	 	 	 	 	 	 	 	 	1581525735	8.88	16.45
12/02/2020 16:42:16	120220	12022020	164216	93.15	12.419650	-56.984012	93.22	0.770	-2.430	1.090	93.15	-3.70	1.50	 	 	 	 	 	 	 	 	 	 	 	 	 	 	 	 	 	 	1581525736	8.30	15.37
12/02/2020 16:42:17	120220	12022020	164217	92.47	12.419643	-56.983982	92.52	1.070	-0.990	1.460	92.47	-2.30	1.80	 	 	 	 	 	 	 	 	 	 	 	 	 	 	 	 	 	 	1581525737	6.26	11.59
12/02/2020 16:42:18	120220	12022020	164218	91.62	12.419642	-56.983960	91.66	0.620	0.850	1.670	91.62	-0.40	2.00	 	 	 	 	 	 	 	 	 	 	 	 	 	 	 	 	 	 	1581525738	4.87	9.02
12/02/2020 16:42:19	120220	12022020	164219	90.81	12.419642	-56.983935	90.87	0.020	1.700	1.610	90.81	0.40	2.00	 	 	 	 	 	 	 	 	 	 	 	 	 	 	 	 	 	 	1581525739	5.02	9.30
12/02/2020 16:42:20	120220	12022020	164220	90.31	12.419645	-56.983907	90.39	-0.220	1.010	1.360	90.31	-0.40	1.70	 	 	 	 	 	 	 	 	 	 	 	 	 	 	 	 	 	 	1581525740	6.34	11.74
12/02/2020 16:42:21	120220	12022020	164221	90.02	12.419647	-56.983870	90.11	-0.190	-0.400	1.390	90.02	-1.80	1.80	 	 	 	 	 	 	 	 	 	 	 	 	 	 	 	 	 	 	1581525741	7.62	14.11
12/02/2020 16:42:22	120220	12022020	164222	89.71	12.419645	-56.983833	89.83	-0.130	-1.300	1.890	89.71	-2.60	2.30	 	 	 	 	 	 	 	 	 	 	 	 	 	 	 	 	 	 	1581525742	7.69	14.24
12/02/2020 16:42:23	120220	12022020	164223	89.50	12.419640	-56.983802	89.64	-0.030	-1.260	2.500	89.50	-2.60	2.90	 	 	 	 	 	 	 	 	 	 	 	 	 	 	 	 	 	 	1581525743	6.97	12.91
12/02/2020 16:42:24	120220	12022020	164224	89.57	12.419637	-56.983772	89.75	0.200	-0.700	2.800	89.57	-2.00	3.20	 	 	 	 	 	 	 	 	 	 	 	 	 	 	 	 	 	 	1581525744	6.23	11.54
12/02/2020 16:42:25	120220	12022020	164225	89.78	12.419635	-56.983743	89.96	0.390	-0.150	2.810	89.78	-1.50	3.20	 	 	 	 	 	 	 	 	 	 	 	 	 	 	 	 	 	 	1581525745	6.00	11.11
12/02/2020 16:42:26	120220	12022020	164226	89.91	12.419637	-56.983715	90.08	0.380	0.090	2.760	89.91	-1.30	3.10	 	 	 	 	 	 	 	 	 	 	 	 	 	 	 	 	 	 	1581525746	6.18	11.45
12/02/2020 16:42:27	120220	12022020	164227	89.83	12.419638	-56.983683	89.94	0.150	0.080	2.760	89.80	-1.30	3.10	 	 	 	 	 	 	 	 	 	 	 	 	 	 	 	 	 	 	1581525747	6.51	12.06
12/02/2020 16:42:28	120220	12022020	164228	89.81	12.419640	-56.983652	90.00	-0.190	0.020	2.520	89.81	-1.30	2.90	 	 	 	 	 	 	 	 	 	 	 	 	 	 	 	 	 	 	1581525748	6.65	12.32
12/02/2020 16:42:29	120220	12022020	164229	90.59	12.419642	-56.983622	90.81	-0.430	-0.030	1.900	90.59	-1.40	2.30	 	 	 	 	 	 	 	 	 	 	 	 	 	 	 	 	 	 	1581525749	6.59	12.20
12/02/2020 16:42:30	120220	12022020	164230	91.81	12.419645	-56.983592	92.02	-0.400	0.020	1.120	91.81	-1.30	1.50	 	 	 	 	 	 	 	 	 	 	 	 	 	 	 	 	 	 	1581525750	6.39	11.83
12/02/2020 16:42:31	120220	12022020	164231	92.79	12.419648	-56.983562	92.94	-0.070	-0.120	0.490	92.79	-1.50	0.90	 	 	 	 	 	 	 	 	 	 	 	 	 	 	 	 	 	 	1581525751	6.34	11.74
12/02/2020 16:42:32	120220	12022020	164232	93.23	12.419652	-56.983530	93.33	0.460	-0.620	0.500	93.23	-2.00	0.90	 	 	 	 	 	 	 	 	 	 	 	 	 	 	 	 	 	 	1581525752	6.74	12.48
12/02/2020 16:42:33	120220	12022020	164233	93.29	12.419652	-56.983497	93.38	0.910	-1.070	0.970	93.29	-2.40	1.40	 	 	 	 	 	 	 	 	 	 	 	 	 	 	 	 	 	 	1581525753	7.10	13.15
12/02/2020 16:42:34	120220	12022020	164234	93.47	12.419650	-56.983463	93.59	0.890	-0.830	1.240	93.47	-2.20	1.60	 	 	 	 	 	 	 	 	 	 	 	 	 	 	 	 	 	 	1581525754	7.05	13.06
12/02/2020 16:42:35	120220	12022020	164235	94.26	12.419652	-56.983433	94.41	0.120	0.390	0.970	94.26	-0.90	1.40	 	 	 	 	 	 	 	 	 	 	 	 	 	 	 	 	 	 	1581525755	6.10	11.30
12/02/2020 16:42:36	120220	12022020	164236	95.40	12.419655	-56.983410	95.55	-0.980	1.580	0.460	95.40	0.20	0.80	 	 	 	 	 	 	 	 	 	 	 	 	 	 	 	 	 	 	1581525756	5.04	9.33
12/02/2020 16:42:37	120220	12022020	164237	96.24	12.419655	-56.983385	96.34	-1.430	1.180	0.280	96.24	-0.20	0.70	 	 	 	 	 	 	 	 	 	 	 	 	 	 	 	 	 	 	1581525757	5.40	10.00
12/02/2020 16:42:38	120220	12022020	164238	96.49	12.419652	-56.983350	96.57	-0.630	-0.960	0.170	96.49	-2.40	0.60	 	 	 	 	 	 	 	 	 	 	 	 	 	 	 	 	 	 	1581525758	7.46	13.82
12/02/2020 16:42:39	120220	12022020	164239	96.36	12.419647	-56.983307	96.39	0.780	-2.740	0.040	96.32	-4.10	0.40	 	 	 	 	 	 	 	 	 	 	 	 	 	 	 	 	 	 	1581525759	8.91	16.50
12/02/2020 16:42:40	120220	12022020	164240	96.16	12.419647	-56.983270	96.23	1.550	-2.280	-0.120	96.16	-3.60	0.30	 	 	 	 	 	 	 	 	 	 	 	 	 	 	 	 	 	 	1581525760	7.84	14.52
12/02/2020 16:42:41	120220	12022020	164241	96.25	12.419648	-56.983243	96.40	1.010	-0.050	-0.510	96.32	-1.30	-0.10	 	 	 	 	 	 	 	 	 	 	 	 	 	 	 	 	 	 	1581525761	5.57	10.32
12/02/2020 16:42:42	120220	12022020	164242	96.74	12.419652	-56.983223	96.80	-0.380	2.020	-1.090	96.74	0.70	-0.70	 	 	 	 	 	 	 	 	 	 	 	 	 	 	 	 	 	 	1581525762	4.39	8.13
12/02/2020 16:42:43	120220	12022020	164243	96.98	12.419652	-56.983200	97.01	-1.570	2.430	-1.240	96.98	1.00	-0.80	 	 	 	 	 	 	 	 	 	 	 	 	 	 	 	 	 	 	1581525763	4.86	9.00
12/02/2020 16:42:44	120220	12022020	164244	96.61	12.419645	-56.983170	96.61	-1.760	1.070	-0.620	96.61	-0.30	-0.20	 	 	 	 	 	 	 	 	 	 	 	 	 	 	 	 	 	 	1581525764	6.51	12.06
12/02/2020 16:42:45	120220	12022020	164245	95.80	12.419635	-56.983135	95.79	-0.900	-0.900	0.170	95.80	-2.30	0.60	 	 	 	 	 	 	 	 	 	 	 	 	 	 	 	 	 	 	1581525765	7.91	14.65
12/02/2020 16:42:46	120220	12022020	164246	94.87	12.419625	-56.983098	94.87	0.470	-2.250	0.700	94.87	-3.60	1.10	 	 	 	 	 	 	 	 	 	 	 	 	 	 	 	 	 	 	1581525766	7.96	14.74
12/02/2020 16:42:47	120220	12022020	164247	94.01	12.419620	-56.983063	94.02	1.540	-2.500	0.920	94.01	-3.80	1.30	 	 	 	 	 	 	 	 	 	 	 	 	 	 	 	 	 	 	1581525767	7.29	13.50
12/02/2020 16:42:48	120220	12022020	164248	93.36	12.419620	-56.983033	93.38	1.630	-1.530	0.840	93.36	-2.80	1.20	 	 	 	 	 	 	 	 	 	 	 	 	 	 	 	 	 	 	1581525768	6.57	12.17
12/02/2020 16:42:49	120220	12022020	164249	92.86	12.419620	-56.983007	92.88	0.670	0.380	0.840	92.86	-0.90	1.20	 	 	 	 	 	 	 	 	 	 	 	 	 	 	 	 	 	 	1581525769	5.50	10.19
12/02/2020 16:42:50	120220	12022020	164250	92.33	12.419620	-56.982985	92.34	-0.610	2.190	1.180	92.33	0.90	1.60	 	 	 	 	 	 	 	 	 	 	 	 	 	 	 	 	 	 	1581525770	4.61	8.54
12/02/2020 16:42:51	120220	12022020	164251	91.78	12.419615	-56.982962	91.82	-1.230	2.390	1.540	91.78	1.00	1.90	 	 	 	 	 	 	 	 	 	 	 	 	 	 	 	 	 	 	1581525771	5.04	9.33
12/02/2020 16:42:52	120220	12022020	164252	91.45	12.419612	-56.982928	91.52	-0.800	0.650	1.690	91.45	-0.80	2.10	 	 	 	 	 	 	 	 	 	 	 	 	 	 	 	 	 	 	1581525772	6.93	12.83
12/02/2020 16:42:53	120220	12022020	164253	91.29	12.419610	-56.982890	91.36	0.020	-1.470	1.890	91.29	-2.90	2.30	 	 	 	 	 	 	 	 	 	 	 	 	 	 	 	 	 	 	1581525773	8.31	15.39
12/02/2020 16:42:54	120220	12022020	164254	90.86	12.419605	-56.982852	90.93	0.530	-2.380	2.380	90.86	-3.70	2.80	 	 	 	 	 	 	 	 	 	 	 	 	 	 	 	 	 	 	1581525774	7.98	14.78
12/02/2020 16:42:55	120220	12022020	164255	90.17	12.419600	-56.982822	90.28	0.590	-1.660	3.020	90.17	-3.00	3.40	 	 	 	 	 	 	 	 	 	 	 	 	 	 	 	 	 	 	1581525775	6.58	12.19
12/02/2020 16:42:56	120220	12022020	164256	89.73	12.419598	-56.982797	89.89	0.300	-0.060	3.300	89.73	-1.40	3.70	 	 	 	 	 	 	 	 	 	 	 	 	 	 	 	 	 	 	1581525776	5.32	9.85
12/02/2020 16:42:57	120220	12022020	164257	89.85	12.419597	-56.982773	90.02	-0.210	1.230	3.040	89.85	-0.10	3.40	 	 	 	 	 	 	 	 	 	 	 	 	 	 	 	 	 	 	1581525777	4.83	8.95
12/02/2020 16:42:58	120220	12022020	164258	90.24	12.419600	-56.982748	90.39	-0.510	1.220	2.400	90.24	-0.20	2.80	 	 	 	 	 	 	 	 	 	 	 	 	 	 	 	 	 	 	1581525778	5.40	10.00
12/02/2020 16:42:59	120220	12022020	164259	90.46	12.419603	-56.982717	90.58	-0.100	-0.240	1.770	90.46	-1.60	2.20	 	 	 	 	 	 	 	 	 	 	 	 	 	 	 	 	 	 	1581525779	6.84	12.67
12/02/2020 16:43:00	120220	12022020	164300	90.56	12.419607	-56.982678	90.70	0.820	-1.880	1.460	90.56	-3.20	1.90	 	 	 	 	 	 	 	 	 	 	 	 	 	 	 	 	 	 	1581525780	8.18	15.15
12/02/2020 16:43:01	120220	12022020	164301	91.14	12.419610	-56.982642	91.34	1.270	-1.790	1.370	91.14	-3.10	1.80	 	 	 	 	 	 	 	 	 	 	 	 	 	 	 	 	 	 	1581525781	7.69	14.24
12/02/2020 16:43:02	120220	12022020	164302	92.24	12.419612	-56.982617	92.46	0.570	0.160	1.320	92.24	-1.10	1.70	1016.00	26.70	26.80	19.90	19.90	730.0	66.0	66.0	431.0	29.1	349.00	14.20	79.00	10.90	57306	12105.0	27.4	27.4	1581525782	5.38	9.96
12/02/2020 16:43:03	120220	12022020	164303	93.33	12.419613	-56.982598	93.53	-0.760	2.090	1.470	93.33	0.80	1.90	 	 	 	 	 	 	 	 	 	 	 	 	 	 	 	 	 	 	1581525783	3.63	6.72
12/02/2020 16:43:04	120220	12022020	164304	94.06	12.419612	-56.982578	94.23	-1.650	2.190	1.950	94.06	0.80	2.40	 	 	 	 	 	 	 	 	 	 	 	 	 	 	 	 	 	 	1581525784	4.16	7.70
12/02/2020 16:43:05	120220	12022020	164305	94.52	12.419607	-56.982550	94.79	-1.300	0.090	2.290	94.62	-1.40	2.70	 	 	 	 	 	 	 	 	 	 	 	 	 	 	 	 	 	 	1581525785	6.27	11.61
12/02/2020 16:43:06	120220	12022020	164306	95.11	12.419602	-56.982512	95.25	0.080	-2.590	2.400	95.11	-4.00	2.80	 	 	 	 	 	 	 	 	 	 	 	 	 	 	 	 	 	 	1581525786	8.22	15.22
12/02/2020 16:43:07	120220	12022020	164307	95.47	12.419598	-56.982473	95.61	1.380	-3.480	2.400	95.47	-4.80	2.80	 	 	 	 	 	 	 	 	 	 	 	 	 	 	 	 	 	 	1581525787	8.18	15.15
12/02/2020 16:43:08	120220	12022020	164308	96.11	12.419600	-56.982443	96.26	1.580	-1.740	1.970	96.11	-3.00	2.40	 	 	 	 	 	 	 	 	 	 	 	 	 	 	 	 	 	 	1581525788	6.07	11.24
12/02/2020 16:43:09	120220	12022020	164309	97.13	12.419607	-56.982425	97.29	0.630	1.080	1.140	97.13	-0.20	1.50	 	 	 	 	 	 	 	 	 	 	 	 	 	 	 	 	 	 	1581525789	4.17	7.72
12/02/2020 16:43:10	120220	12022020	164310	98.34	12.419613	-56.982408	98.51	-0.710	3.020	0.160	98.34	1.70	0.50	 	 	 	 	 	 	 	 	 	 	 	 	 	 	 	 	 	 	1581525790	3.81	7.06
12/02/2020 16:43:11	120220	12022020	164311	99.51	12.419618	-56.982387	99.63	-1.410	2.670	-0.640	99.51	1.30	-0.20	 	 	 	 	 	 	 	 	 	 	 	 	 	 	 	 	 	 	1581525791	4.80	8.89
12/02/2020 16:43:12	120220	12022020	164312	100.31	12.419618	-56.982355	100.41	-1.040	0.340	-0.970	100.31	-1.10	-0.60	 	 	 	 	 	 	 	 	 	 	 	 	 	 	 	 	 	 	1581525792	6.81	12.61
12/02/2020 16:43:13	120220	12022020	164313	100.62	12.419613	-56.982317	100.70	-0.170	-2.100	-0.710	100.62	-3.50	-0.30	 	 	 	 	 	 	 	 	 	 	 	 	 	 	 	 	 	 	1581525793	8.03	14.87
12/02/2020 16:43:14	120220	12022020	164314	100.57	12.419607	-56.982283	100.63	0.440	-2.990	-0.220	100.57	-4.30	0.20	 	 	 	 	 	 	 	 	 	 	 	 	 	 	 	 	 	 	1581525794	7.41	13.72
12/02/2020 16:43:15	120220	12022020	164315	100.41	12.419600	-56.982257	100.47	0.590	-2.010	0.020	100.41	-3.30	0.40	 	 	 	 	 	 	 	 	 	 	 	 	 	 	 	 	 	 	1581525795	5.74	10.63
12/02/2020 16:43:16	120220	12022020	164316	100.36	12.419598	-56.982235	100.42	0.490	-0.280	-0.140	100.36	-1.60	0.30	 	 	 	 	 	 	 	 	 	 	 	 	 	 	 	 	 	 	1581525796	4.48	8.30
12/02/2020 16:43:17	120220	12022020	164317	100.43	12.419600	-56.982213	100.51	0.310	0.960	-0.660	100.46	-0.40	-0.30	 	 	 	 	 	 	 	 	 	 	 	 	 	 	 	 	 	 	1581525797	4.63	8.57
12/02/2020 16:43:18	120220	12022020	164318	100.62	12.419602	-56.982187	100.66	-0.020	1.280	-1.260	100.62	-0.10	-0.90	 	 	 	 	 	 	 	 	 	 	 	 	 	 	 	 	 	 	1581525798	5.51	10.20
12/02/2020 16:43:19	120220	12022020	164319	100.66	12.419602	-56.982158	100.67	-0.470	0.930	-1.410	100.66	-0.50	-1.00	 	 	 	 	 	 	 	 	 	 	 	 	 	 	 	 	 	 	1581525799	6.07	11.24
12/02/2020 16:43:20	120220	12022020	164320	100.50	12.419598	-56.982130	100.51	-0.720	0.320	-1.100	100.50	-1.10	-0.70	 	 	 	 	 	 	 	 	 	 	 	 	 	 	 	 	 	 	1581525800	6.13	11.35
12/02/2020 16:43:21	120220	12022020	164321	100.32	12.419592	-56.982102	100.34	-0.550	-0.410	-0.770	100.32	-1.80	-0.40	 	 	 	 	 	 	 	 	 	 	 	 	 	 	 	 	 	 	1581525801	6.19	11.46
12/02/2020 16:43:22	120220	12022020	164322	100.14	12.419585	-56.982072	100.16	-0.060	-1.050	-0.240	100.14	-2.40	0.20	 	 	 	 	 	 	 	 	 	 	 	 	 	 	 	 	 	 	1581525802	6.36	11.78
12/02/2020 16:43:23	120220	12022020	164323	99.80	12.419577	-56.982043	99.84	0.350	-1.160	0.560	99.80	-2.50	1.00	 	 	 	 	 	 	 	 	 	 	 	 	 	 	 	 	 	 	1581525803	6.22	11.52
12/02/2020 16:43:24	120220	12022020	164324	99.18	12.419567	-56.982018	99.22	0.510	-0.810	1.390	99.18	-2.20	1.80	 	 	 	 	 	 	 	 	 	 	 	 	 	 	 	 	 	 	1581525804	5.74	10.63
12/02/2020 16:43:25	120220	12022020	164325	98.31	12.419560	-56.981993	98.35	0.580	-0.360	1.970	98.31	-1.70	2.40	 	 	 	 	 	 	 	 	 	 	 	 	 	 	 	 	 	 	1581525805	5.60	10.37
12/02/2020 16:43:26	120220	12022020	164326	97.59	12.419557	-56.981967	97.69	0.640	0.010	1.990	97.59	-1.40	2.40	 	 	 	 	 	 	 	 	 	 	 	 	 	 	 	 	 	 	1581525806	5.75	10.65
12/02/2020 16:43:27	120220	12022020	164327	97.31	12.419558	-56.981937	97.44	0.580	0.010	1.710	97.31	-1.40	2.10	 	 	 	 	 	 	 	 	 	 	 	 	 	 	 	 	 	 	1581525807	6.11	11.32
12/02/2020 16:43:28	120220	12022020	164328	97.39	12.419558	-56.981907	97.57	0.250	-0.300	1.540	97.39	-1.70	1.90	 	 	 	 	 	 	 	 	 	 	 	 	 	 	 	 	 	 	1581525808	6.63	12.28
12/02/2020 16:43:29	120220	12022020	164329	97.80	12.419557	-56.981875	98.11	-0.500	-0.020	1.560	97.92	-1.40	2.00	 	 	 	 	 	 	 	 	 	 	 	 	 	 	 	 	 	 	1581525809	6.49	12.02
12/02/2020 16:43:30	120220	12022020	164330	98.60	12.419550	-56.981852	98.80	-1.360	1.100	1.950	98.60	-0.30	2.30	 	 	 	 	 	 	 	 	 	 	 	 	 	 	 	 	 	 	1581525810	5.23	9.69
12/02/2020 16:43:31	120220	12022020	164331	98.97	12.419540	-56.981833	99.17	-1.660	1.640	2.480	99.00	0.20	2.90	 	 	 	 	 	 	 	 	 	 	 	 	 	 	 	 	 	 	1581525811	4.49	8.32
12/02/2020 16:43:32	120220	12022020	164332	99.04	12.419530	-56.981807	99.19	-0.750	0.070	2.720	99.04	-1.40	3.10	 	 	 	 	 	 	 	 	 	 	 	 	 	 	 	 	 	 	1581525812	5.70	10.56
12/02/2020 16:43:33	120220	12022020	164333	98.92	12.419523	-56.981770	99.07	0.980	-2.550	2.660	98.92	-4.00	3.00	 	 	 	 	 	 	 	 	 	 	 	 	 	 	 	 	 	 	1581525813	8.01	14.83
12/02/2020 16:43:34	120220	12022020	164334	98.98	12.419522	-56.981732	99.15	2.110	-3.260	2.270	98.98	-4.60	2.60	 	 	 	 	 	 	 	 	 	 	 	 	 	 	 	 	 	 	1581525814	8.32	15.41
12/02/2020 16:43:35	120220	12022020	164335	99.49	12.419527	-56.981703	99.67	1.700	-1.160	1.550	99.49	-2.50	1.90	 	 	 	 	 	 	 	 	 	 	 	 	 	 	 	 	 	 	1581525815	5.91	10.95
12/02/2020 16:43:36	120220	12022020	164336	100.39	12.419532	-56.981687	100.60	0.230	1.710	0.880	100.39	0.40	1.30	 	 	 	 	 	 	 	 	 	 	 	 	 	 	 	 	 	 	1581525816	3.70	6.85
12/02/2020 16:43:37	120220	12022020	164337	101.53	12.419535	-56.981670	101.72	-1.050	2.860	0.490	101.53	1.40	0.90	 	 	 	 	 	 	 	 	 	 	 	 	 	 	 	 	 	 	1581525817	3.61	6.69
12/02/2020 16:43:38	120220	12022020	164338	102.55	12.419532	-56.981643	102.71	-1.330	1.690	0.130	102.55	0.20	0.50	 	 	 	 	 	 	 	 	 	 	 	 	 	 	 	 	 	 	1581525818	5.57	10.32
12/02/2020 16:43:39	120220	12022020	164339	103.27	12.419527	-56.981610	103.41	-0.730	-0.430	0.010	103.27	-1.90	0.40	 	 	 	 	 	 	 	 	 	 	 	 	 	 	 	 	 	 	1581525819	7.35	13.61
12/02/2020 16:43:40	120220	12022020	164340	103.51	12.419518	-56.981575	103.64	0.070	-1.910	0.550	103.51	-3.30	1.00	 	 	 	 	 	 	 	 	 	 	 	 	 	 	 	 	 	 	1581525820	7.52	13.93
12/02/2020 16:43:41	120220	12022020	164341	103.52	12.419510	-56.981545	103.66	0.460	-2.010	0.870	103.52	-3.40	1.30	 	 	 	 	 	 	 	 	 	 	 	 	 	 	 	 	 	 	1581525821	6.54	12.11
12/02/2020 16:43:42	120220	12022020	164342	103.57	12.419505	-56.981520	103.71	0.410	-1.110	0.590	103.57	-2.50	1.00	 	 	 	 	 	 	 	 	 	 	 	 	 	 	 	 	 	 	1581525822	5.43	10.06
12/02/2020 16:43:43	120220	12022020	164343	103.76	12.419503	-56.981495	103.90	0.220	-0.130	0.010	103.76	-1.50	0.40	 	 	 	 	 	 	 	 	 	 	 	 	 	 	 	 	 	 	1581525823	5.15	9.54
12/02/2020 16:43:44	120220	12022020	164344	104.10	12.419503	-56.981468	104.23	0.100	0.340	-0.600	104.10	-1.10	-0.20	 	 	 	 	 	 	 	 	 	 	 	 	 	 	 	 	 	 	1581525824	5.61	10.39
12/02/2020 16:43:45	120220	12022020	164345	104.49	12.419500	-56.981440	104.60	0.030	0.400	-1.100	104.49	-1.00	-0.70	 	 	 	 	 	 	 	 	 	 	 	 	 	 	 	 	 	 	1581525825	6.17	11.43
12/02/2020 16:43:46	120220	12022020	164346	104.60	12.419497	-56.981410	104.67	-0.140	0.520	-1.210	104.60	-0.90	-0.80	 	 	 	 	 	 	 	 	 	 	 	 	 	 	 	 	 	 	1581525826	6.22	11.52
12/02/2020 16:43:47	120220	12022020	164347	104.31	12.419492	-56.981385	104.37	-0.450	0.720	-0.920	104.31	-0.70	-0.50	 	 	 	 	 	 	 	 	 	 	 	 	 	 	 	 	 	 	1581525827	5.70	10.56
12/02/2020 16:43:48	120220	12022020	164348	103.82	12.419483	-56.981358	103.89	-0.560	0.300	-0.400	103.82	-1.10	-0.00	 	 	 	 	 	 	 	 	 	 	 	 	 	 	 	 	 	 	1581525828	5.66	10.48
12/02/2020 16:43:49	120220	12022020	164349	103.31	12.419473	-56.981328	103.38	-0.110	-0.890	0.110	103.31	-2.30	0.50	 	 	 	 	 	 	 	 	 	 	 	 	 	 	 	 	 	 	1581525829	6.61	12.24
12/02/2020 16:43:50	120220	12022020	164350	102.87	12.419465	-56.981295	102.95	0.650	-1.730	0.380	102.87	-3.10	0.80	 	 	 	 	 	 	 	 	 	 	 	 	 	 	 	 	 	 	1581525830	7.32	13.56
12/02/2020 16:43:51	120220	12022020	164351	102.64	12.419460	-56.981265	102.72	0.990	-1.250	0.260	102.64	-2.60	0.60	 	 	 	 	 	 	 	 	 	 	 	 	 	 	 	 	 	 	1581525831	6.61	12.24
12/02/2020 16:43:52	120220	12022020	164352	102.63	12.419457	-56.981240	102.72	0.570	0.150	0.300	102.63	-1.20	0.70	 	 	 	 	 	 	 	 	 	 	 	 	 	 	 	 	 	 	1581525832	5.25	9.72
12/02/2020 16:43:53	120220	12022020	164353	102.59	12.419452	-56.981218	102.65	-0.290	1.230	0.930	102.56	-0.20	1.30	 	 	 	 	 	 	 	 	 	 	 	 	 	 	 	 	 	 	1581525833	4.57	8.46
12/02/2020 16:43:54	120220	12022020	164354	102.17	12.419443	-56.981195	102.25	-0.890	0.950	1.820	102.17	-0.50	2.20	 	 	 	 	 	 	 	 	 	 	 	 	 	 	 	 	 	 	1581525834	5.38	9.96
12/02/2020 16:43:55	120220	12022020	164355	101.41	12.419430	-56.981165	101.48	-0.680	-0.660	2.610	101.41	-2.10	3.00	 	 	 	 	 	 	 	 	 	 	 	 	 	 	 	 	 	 	1581525835	7.08	13.11
12/02/2020 16:43:56	120220	12022020	164356	100.55	12.419417	-56.981128	100.70	0.110	-2.130	3.200	100.55	-3.60	3.60	 	 	 	 	 	 	 	 	 	 	 	 	 	 	 	 	 	 	1581525836	8.26	15.30
12/02/2020 16:43:57	120220	12022020	164357	100.23	12.419407	-56.981095	100.41	0.580	-1.620	3.190	100.23	-3.00	3.50	 	 	 	 	 	 	 	 	 	 	 	 	 	 	 	 	 	 	1581525837	7.38	13.67
12/02/2020 16:43:58	120220	12022020	164358	100.50	12.419403	-56.981072	100.69	0.260	0.560	2.270	100.50	-0.80	2.60	 	 	 	 	 	 	 	 	 	 	 	 	 	 	 	 	 	 	1581525838	4.93	9.13
12/02/2020 16:43:59	120220	12022020	164359	101.00	12.419407	-56.981053	101.16	-0.410	2.300	0.890	101.00	0.90	1.20	 	 	 	 	 	 	 	 	 	 	 	 	 	 	 	 	 	 	1581525839	3.88	7.19
12/02/2020 16:44:00	120220	12022020	164400	101.44	12.419412	-56.981030	101.57	-0.540	1.680	-0.160	101.44	0.20	0.20	 	 	 	 	 	 	 	 	 	 	 	 	 	 	 	 	 	 	1581525840	5.20	9.63
12/02/2020 16:44:01	120220	12022020	164401	101.62	12.419410	-56.980993	101.73	0.100	-0.840	-0.390	101.62	-2.30	0.00	 	 	 	 	 	 	 	 	 	 	 	 	 	 	 	 	 	 	1581525841	7.47	13.83
12/02/2020 16:44:02	120220	12022020	164402	101.54	12.419403	-56.980953	101.65	0.880	-3.000	0.170	101.54	-4.40	0.60	1015.90	26.70	26.80	19.50	19.60	662.0	64.0	64.0	429.0	29.0	347.00	15.20	84.00	12.30	53922	12083.0	27.5	27.4	1581525842	8.69	16.09
12/02/2020 16:44:03	120220	12022020	164403	101.51	12.419392	-56.980920	101.63	1.000	-2.560	0.940	101.51	-3.90	1.30	 	 	 	 	 	 	 	 	 	 	 	 	 	 	 	 	 	 	1581525843	7.51	13.91
12/02/2020 16:44:04	120220	12022020	164404	101.77	12.419385	-56.980900	101.91	0.280	0.130	1.310	101.77	-1.20	1.70	 	 	 	 	 	 	 	 	 	 	 	 	 	 	 	 	 	 	1581525844	4.53	8.39
12/02/2020 16:44:05	120220	12022020	164405	102.26	12.419382	-56.980887	102.42	-0.770	2.500	1.340	102.26	1.10	1.70	 	 	 	 	 	 	 	 	 	 	 	 	 	 	 	 	 	 	1581525845	2.93	5.43
12/02/2020 16:44:06	120220	12022020	164406	102.76	12.419378	-56.980867	102.92	-1.270	2.410	1.220	102.76	0.90	1.60	 	 	 	 	 	 	 	 	 	 	 	 	 	 	 	 	 	 	1581525846	4.12	7.63
12/02/2020 16:44:07	120220	12022020	164407	103.06	12.419372	-56.980835	103.26	-0.770	0.080	0.920	103.11	-1.40	1.30	 	 	 	 	 	 	 	 	 	 	 	 	 	 	 	 	 	 	1581525847	6.87	12.72
12/02/2020 16:44:08	120220	12022020	164408	103.33	12.419365	-56.980797	103.47	0.140	-2.200	0.690	103.33	-3.60	1.10	 	 	 	 	 	 	 	 	 	 	 	 	 	 	 	 	 	 	1581525848	8.36	15.48
12/02/2020 16:44:09	120220	12022020	164409	103.49	12.419358	-56.980762	103.66	0.660	-2.650	0.810	103.49	-4.00	1.20	 	 	 	 	 	 	 	 	 	 	 	 	 	 	 	 	 	 	1581525849	7.51	13.91
12/02/2020 16:44:10	120220	12022020	164410	103.62	12.419352	-56.980737	103.79	0.490	-1.220	1.000	103.62	-2.60	1.40	 	 	 	 	 	 	 	 	 	 	 	 	 	 	 	 	 	 	1581525850	5.51	10.20
12/02/2020 16:44:11	120220	12022020	164411	103.69	12.419347	-56.980717	103.84	0.030	0.680	0.820	103.69	-0.70	1.20	 	 	 	 	 	 	 	 	 	 	 	 	 	 	 	 	 	 	1581525851	4.17	7.72
12/02/2020 16:44:12	120220	12022020	164412	103.71	12.419343	-56.980697	103.83	-0.180	1.540	0.250	103.71	0.10	0.60	 	 	 	 	 	 	 	 	 	 	 	 	 	 	 	 	 	 	1581525852	4.45	8.24
12/02/2020 16:44:13	120220	12022020	164413	103.72	12.419342	-56.980668	103.82	0.050	0.910	-0.340	103.72	-0.50	0.00	 	 	 	 	 	 	 	 	 	 	 	 	 	 	 	 	 	 	1581525853	5.98	11.07
12/02/2020 16:44:14	120220	12022020	164414	103.72	12.419337	-56.980635	103.81	0.370	-0.200	-0.650	103.72	-1.60	-0.30	 	 	 	 	 	 	 	 	 	 	 	 	 	 	 	 	 	 	1581525854	7.11	13.17
12/02/2020 16:44:15	120220	12022020	164415	103.64	12.419332	-56.980602	103.73	0.360	-0.730	-0.680	103.64	-2.10	-0.30	 	 	 	 	 	 	 	 	 	 	 	 	 	 	 	 	 	 	1581525855	6.92	12.82
12/02/2020 16:44:16	120220	12022020	164416	103.40	12.419327	-56.980575	103.48	-0.070	-0.520	-0.260	103.40	-1.90	0.10	 	 	 	 	 	 	 	 	 	 	 	 	 	 	 	 	 	 	1581525856	5.97	11.06
12/02/2020 16:44:17	120220	12022020	164417	102.90	12.419318	-56.980552	102.98	-0.630	-0.050	0.740	102.90	-1.40	1.10	 	 	 	 	 	 	 	 	 	 	 	 	 	 	 	 	 	 	1581525857	5.28	9.78
12/02/2020 16:44:18	120220	12022020	164418	102.20	12.419307	-56.980528	102.31	-0.820	-0.060	1.750	102.20	-1.50	2.10	 	 	 	 	 	 	 	 	 	 	 	 	 	 	 	 	 	 	1581525858	5.50	10.19
12/02/2020 16:44:19	120220	12022020	164419	101.56	12.419293	-56.980500	101.70	-0.340	-0.880	2.200	101.56	-2.30	2.60	 	 	 	 	 	 	 	 	 	 	 	 	 	 	 	 	 	 	1581525859	6.45	11.95
12/02/2020 16:44:20	120220	12022020	164420	101.11	12.419283	-56.980468	101.27	0.390	-1.530	2.240	101.11	-2.90	2.60	 	 	 	 	 	 	 	 	 	 	 	 	 	 	 	 	 	 	1581525860	7.25	13.43
12/02/2020 16:44:21	120220	12022020	164421	100.88	12.419277	-56.980437	100.98	0.670	-1.070	2.020	100.83	-2.40	2.40	 	 	 	 	 	 	 	 	 	 	 	 	 	 	 	 	 	 	1581525861	6.76	12.52
12/02/2020 16:44:22	120220	12022020	164422	100.51	12.419272	-56.980410	100.64	0.350	0.140	1.650	100.51	-1.20	2.00	 	 	 	 	 	 	 	 	 	 	 	 	 	 	 	 	 	 	1581525862	5.59	10.35
12/02/2020 16:44:23	120220	12022020	164423	100.08	12.419270	-56.980387	100.22	-0.120	1.100	1.330	100.08	-0.30	1.70	 	 	 	 	 	 	 	 	 	 	 	 	 	 	 	 	 	 	1581525863	5.23	9.69
12/02/2020 16:44:24	120220	12022020	164424	99.86	12.419267	-56.980360	100.00	-0.440	1.450	1.160	99.86	0.00	1.60	 	 	 	 	 	 	 	 	 	 	 	 	 	 	 	 	 	 	1581525864	5.57	10.32
12/02/2020 16:44:25	120220	12022020	164425	100.01	12.419262	-56.980332	100.18	-0.490	1.110	1.030	100.01	-0.30	1.40	 	 	 	 	 	 	 	 	 	 	 	 	 	 	 	 	 	 	1581525865	5.90	10.93
12/02/2020 16:44:26	120220	12022020	164426	100.26	12.419258	-56.980302	100.42	-0.210	0.010	0.880	100.26	-1.40	1.30	 	 	 	 	 	 	 	 	 	 	 	 	 	 	 	 	 	 	1581525866	6.39	11.83
12/02/2020 16:44:27	120220	12022020	164427	100.13	12.419253	-56.980270	100.27	0.320	-1.420	1.220	100.13	-2.90	1.60	 	 	 	 	 	 	 	 	 	 	 	 	 	 	 	 	 	 	1581525867	7.08	13.11
12/02/2020 16:44:28	120220	12022020	164428	99.79	12.419245	-56.980235	99.96	0.810	-2.320	1.920	99.79	-3.70	2.30	 	 	 	 	 	 	 	 	 	 	 	 	 	 	 	 	 	 	1581525868	7.31	13.54
12/02/2020 16:44:29	120220	12022020	164429	99.65	12.419237	-56.980205	99.83	1.020	-2.030	2.450	99.65	-3.40	2.90	 	 	 	 	 	 	 	 	 	 	 	 	 	 	 	 	 	 	1581525869	6.80	12.59
12/02/2020 16:44:30	120220	12022020	164430	99.76	12.419233	-56.980177	99.95	0.740	-0.600	2.420	99.76	-1.90	2.80	 	 	 	 	 	 	 	 	 	 	 	 	 	 	 	 	 	 	1581525870	5.79	10.72
12/02/2020 16:44:31	120220	12022020	164431	100.11	12.419232	-56.980153	100.31	-0.100	1.140	1.960	100.11	-0.20	2.30	 	 	 	 	 	 	 	 	 	 	 	 	 	 	 	 	 	 	1581525871	5.00	9.26
12/02/2020 16:44:32	120220	12022020	164432	100.55	12.419230	-56.980130	100.75	-1.120	2.000	1.490	100.55	0.60	1.90	 	 	 	 	 	 	 	 	 	 	 	 	 	 	 	 	 	 	1581525872	4.95	9.17
12/02/2020 16:44:33	120220	12022020	164433	100.84	12.419225	-56.980103	101.01	-1.610	1.310	1.300	100.84	-0.10	1.70	 	 	 	 	 	 	 	 	 	 	 	 	 	 	 	 	 	 	1581525873	5.92	10.96
12/02/2020 16:44:34	120220	12022020	164434	100.84	12.419217	-56.980068	100.99	-1.140	-0.500	1.270	100.84	-2.00	1.70	 	 	 	 	 	 	 	 	 	 	 	 	 	 	 	 	 	 	1581525874	7.43	13.76
12/02/2020 16:44:35	120220	12022020	164435	100.71	12.419207	-56.980032	100.84	-0.010	-2.060	1.080	100.71	-3.50	1.50	 	 	 	 	 	 	 	 	 	 	 	 	 	 	 	 	 	 	1581525875	8.17	15.13
12/02/2020 16:44:36	120220	12022020	164436	100.68	12.419202	-56.979997	100.81	1.000	-2.080	0.540	100.68	-3.40	0.90	 	 	 	 	 	 	 	 	 	 	 	 	 	 	 	 	 	 	1581525876	7.57	14.02
12/02/2020 16:44:37	120220	12022020	164437	100.81	12.419202	-56.979968	100.90	1.250	-0.530	-0.210	100.81	-1.90	0.20	 	 	 	 	 	 	 	 	 	 	 	 	 	 	 	 	 	 	1581525877	5.96	11.04
12/02/2020 16:44:38	120220	12022020	164438	100.97	12.419205	-56.979945	101.05	0.810	1.180	-0.770	100.97	-0.20	-0.40	 	 	 	 	 	 	 	 	 	 	 	 	 	 	 	 	 	 	1581525878	4.92	9.11
12/02/2020 16:44:39	120220	12022020	164439	101.08	12.419207	-56.979920	101.16	0.240	1.460	-0.860	101.08	0.00	-0.40	 	 	 	 	 	 	 	 	 	 	 	 	 	 	 	 	 	 	1581525879	5.40	10.00
12/02/2020 16:44:40	120220	12022020	164440	101.06	12.419205	-56.979887	101.14	-0.220	0.300	-0.380	101.06	-1.20	0.00	 	 	 	 	 	 	 	 	 	 	 	 	 	 	 	 	 	 	1581525880	6.90	12.78
12/02/2020 16:44:41	120220	12022020	164441	100.86	12.419195	-56.979852	100.95	-0.590	-0.970	0.680	100.86	-2.40	1.10	 	 	 	 	 	 	 	 	 	 	 	 	 	 	 	 	 	 	1581525881	7.83	14.50
12/02/2020 16:44:42	120220	12022020	164442	100.47	12.419180	-56.979818	100.59	-0.820	-1.300	1.900	100.47	-2.70	2.30	 	 	 	 	 	 	 	 	 	 	 	 	 	 	 	 	 	 	1581525882	7.53	13.95
12/02/2020 16:44:43	120220	12022020	164443	100.21	12.419165	-56.979792	100.36	-0.740	-0.810	2.510	100.21	-2.20	2.90	 	 	 	 	 	 	 	 	 	 	 	 	 	 	 	 	 	 	1581525883	6.63	12.28
12/02/2020 16:44:44	120220	12022020	164444	100.05	12.419155	-56.979765	100.21	-0.340	-0.200	2.370	100.05	-1.60	2.70	 	 	 	 	 	 	 	 	 	 	 	 	 	 	 	 	 	 	1581525884	5.98	11.07
12/02/2020 16:44:45	120220	12022020	164445	99.76	12.419150	-56.979737	99.79	0.190	-0.010	2.010	99.66	-1.40	2.40	 	 	 	 	 	 	 	 	 	 	 	 	 	 	 	 	 	 	1581525885	6.16	11.41
12/02/2020 16:44:46	120220	12022020	164446	99.04	12.419147	-56.979703	99.18	0.670	-0.370	1.630	99.04	-1.80	2.00	 	 	 	 	 	 	 	 	 	 	 	 	 	 	 	 	 	 	1581525886	6.93	12.83
12/02/2020 16:44:47	120220	12022020	164447	98.75	12.419147	-56.979668	98.88	0.830	-0.670	0.960	98.75	-2.10	1.40	 	 	 	 	 	 	 	 	 	 	 	 	 	 	 	 	 	 	1581525887	7.59	14.06
12/02/2020 16:44:48	120220	12022020	164448	98.96	12.419148	-56.979633	99.12	0.460	-0.150	0.440	98.96	-1.50	0.80	 	 	 	 	 	 	 	 	 	 	 	 	 	 	 	 	 	 	1581525888	7.14	13.22
12/02/2020 16:44:49	120220	12022020	164449	99.62	12.419147	-56.979607	99.80	-0.240	0.880	0.300	99.62	-0.50	0.70	 	 	 	 	 	 	 	 	 	 	 	 	 	 	 	 	 	 	1581525889	5.90	10.93
12/02/2020 16:44:50	120220	12022020	164450	100.23	12.419142	-56.979580	100.36	-0.730	1.150	0.570	100.23	-0.30	1.00	 	 	 	 	 	 	 	 	 	 	 	 	 	 	 	 	 	 	1581525890	5.58	10.33
12/02/2020 16:44:51	120220	12022020	164451	100.25	12.419132	-56.979550	100.36	-0.480	-0.010	1.350	100.25	-1.50	1.80	 	 	 	 	 	 	 	 	 	 	 	 	 	 	 	 	 	 	1581525891	6.81	12.61
12/02/2020 16:44:52	120220	12022020	164452	99.82	12.419120	-56.979512	99.98	0.300	-1.640	2.220	99.82	-3.10	2.60	 	 	 	 	 	 	 	 	 	 	 	 	 	 	 	 	 	 	1581525892	8.26	15.30
12/02/2020 16:44:53	120220	12022020	164453	99.50	12.419110	-56.979475	99.68	0.840	-2.080	2.610	99.50	-3.40	3.00	 	 	 	 	 	 	 	 	 	 	 	 	 	 	 	 	 	 	1581525893	8.28	15.33
12/02/2020 16:44:54	120220	12022020	164454	99.54	12.419105	-56.979443	99.74	0.550	-0.680	2.330	99.54	-2.00	2.70	 	 	 	 	 	 	 	 	 	 	 	 	 	 	 	 	 	 	1581525894	6.59	12.20
12/02/2020 16:44:55	120220	12022020	164455	99.84	12.419105	-56.979420	100.02	-0.320	1.080	1.540	99.84	-0.30	1.90	 	 	 	 	 	 	 	 	 	 	 	 	 	 	 	 	 	 	1581525895	5.06	9.37
12/02/2020 16:44:56	120220	12022020	164456	100.09	12.419105	-56.979393	100.25	-0.990	1.490	0.830	100.09	0.10	1.20	 	 	 	 	 	 	 	 	 	 	 	 	 	 	 	 	 	 	1581525896	5.48	10.15
12/02/2020 16:44:57	120220	12022020	164457	100.10	12.419102	-56.979360	100.26	-0.900	0.420	0.700	100.09	-1.00	1.10	 	 	 	 	 	 	 	 	 	 	 	 	 	 	 	 	 	 	1581525897	7.06	13.08
12/02/2020 16:44:58	120220	12022020	164458	99.97	12.419095	-56.979322	100.15	-0.160	-0.960	0.650	99.97	-2.40	1.10	 	 	 	 	 	 	 	 	 	 	 	 	 	 	 	 	 	 	1581525898	8.21	15.20
12/02/2020 16:44:59	120220	12022020	164459	99.88	12.419088	-56.979285	100.05	0.610	-1.610	0.440	99.88	-3.00	0.90	 	 	 	 	 	 	 	 	 	 	 	 	 	 	 	 	 	 	1581525899	8.08	14.96
12/02/2020 16:45:00	120220	12022020	164500	99.71	12.419083	-56.979250	99.86	0.940	-1.430	0.440	99.71	-2.80	0.90	 	 	 	 	 	 	 	 	 	 	 	 	 	 	 	 	 	 	1581525900	7.38	13.67
12/02/2020 16:45:01	120220	12022020	164501	99.69	12.419080	-56.979218	99.87	0.690	-0.510	0.630	99.69	-1.90	1.10	 	 	 	 	 	 	 	 	 	 	 	 	 	 	 	 	 	 	1581525901	6.80	12.59
12/02/2020 16:45:02	120220	12022020	164502	100.11	12.419075	-56.979190	100.33	-0.070	0.970	0.860	100.11	-0.40	1.30	1016.00	26.80	26.80	19.50	19.60	691.0	64.0	64.0	424.0	29.0	348.00	15.20	85.00	11.90	55785	13213.0	27.4	27.4	1581525902	5.95	11.02
12/02/2020 16:45:03	120220	12022020	164503	100.75	12.419068	-56.979167	100.96	-0.850	1.940	1.050	100.75	0.50	1.40	 	 	 	 	 	 	 	 	 	 	 	 	 	 	 	 	 	 	1581525903	5.34	9.89
12/02/2020 16:45:04	120220	12022020	164504	101.07	12.419060	-56.979137	101.23	-0.890	1.080	1.100	101.07	-0.40	1.50	 	 	 	 	 	 	 	 	 	 	 	 	 	 	 	 	 	 	1581525904	6.29	11.65
12/02/2020 16:45:05	120220	12022020	164505	100.75	12.419050	-56.979098	100.88	-0.040	-1.110	1.420	100.75	-2.60	1.80	 	 	 	 	 	 	 	 	 	 	 	 	 	 	 	 	 	 	1581525905	8.35	15.46
12/02/2020 16:45:06	120220	12022020	164506	100.21	12.419042	-56.979057	100.36	0.820	-2.430	1.730	100.21	-3.80	2.10	 	 	 	 	 	 	 	 	 	 	 	 	 	 	 	 	 	 	1581525906	9.15	16.95
12/02/2020 16:45:07	120220	12022020	164507	100.05	12.419037	-56.979022	100.22	0.730	-1.560	1.610	100.05	-2.90	2.00	 	 	 	 	 	 	 	 	 	 	 	 	 	 	 	 	 	 	1581525907	7.43	13.76
12/02/2020 16:45:08	120220	12022020	164508	100.27	12.419035	-56.978997	100.46	-0.200	0.410	1.280	100.27	-0.90	1.70	 	 	 	 	 	 	 	 	 	 	 	 	 	 	 	 	 	 	1581525908	5.32	9.85
12/02/2020 16:45:09	120220	12022020	164509	100.54	12.419030	-56.978973	100.77	-0.970	1.450	0.920	100.59	0.00	1.30	 	 	 	 	 	 	 	 	 	 	 	 	 	 	 	 	 	 	1581525909	4.91	9.09
12/02/2020 16:45:10	120220	12022020	164510	100.67	12.419023	-56.978943	100.82	-0.740	0.630	0.740	100.67	-0.80	1.10	 	 	 	 	 	 	 	 	 	 	 	 	 	 	 	 	 	 	1581525910	6.65	12.32
12/02/2020 16:45:11	120220	12022020	164511	100.45	12.419013	-56.978905	100.49	0.130	-0.740	0.910	100.36	-2.20	1.30	 	 	 	 	 	 	 	 	 	 	 	 	 	 	 	 	 	 	1581525911	8.39	15.54
12/02/2020 16:45:12	120220	12022020	164512	99.77	12.419003	-56.978867	99.87	0.730	-1.240	1.250	99.77	-2.60	1.70	 	 	 	 	 	 	 	 	 	 	 	 	 	 	 	 	 	 	1581525912	8.28	15.33
12/02/2020 16:45:13	120220	12022020	164513	99.19	12.418997	-56.978835	99.31	0.590	-0.630	1.360	99.19	-2.00	1.80	 	 	 	 	 	 	 	 	 	 	 	 	 	 	 	 	 	 	1581525913	7.02	13.00
12/02/2020 16:45:14	120220	12022020	164514	98.96	12.418993	-56.978807	99.10	-0.010	0.270	1.110	98.96	-1.10	1.50	 	 	 	 	 	 	 	 	 	 	 	 	 	 	 	 	 	 	1581525914	6.10	11.30
12/02/2020 16:45:15	120220	12022020	164515	99.05	12.418990	-56.978777	99.21	-0.480	0.680	0.880	99.05	-0.70	1.30	 	 	 	 	 	 	 	 	 	 	 	 	 	 	 	 	 	 	1581525915	6.14	11.37
12/02/2020 16:45:16	120220	12022020	164516	99.05	12.418983	-56.978745	99.18	-0.440	0.380	0.910	99.05	-1.00	1.30	 	 	 	 	 	 	 	 	 	 	 	 	 	 	 	 	 	 	1581525916	6.79	12.58
12/02/2020 16:45:17	120220	12022020	164517	98.89	12.418977	-56.978712	99.01	0.020	-0.350	1.040	98.89	-1.80	1.40	 	 	 	 	 	 	 	 	 	 	 	 	 	 	 	 	 	 	1581525917	7.49	13.87
12/02/2020 16:45:18	120220	12022020	164518	98.52	12.418968	-56.978675	98.60	0.500	-1.010	1.460	98.52	-2.40	1.90	 	 	 	 	 	 	 	 	 	 	 	 	 	 	 	 	 	 	1581525918	7.77	14.39
12/02/2020 16:45:19	120220	12022020	164519	97.91	12.418960	-56.978640	98.01	0.680	-1.170	2.030	97.91	-2.50	2.40	 	 	 	 	 	 	 	 	 	 	 	 	 	 	 	 	 	 	1581525919	7.67	14.20
12/02/2020 16:45:20	120220	12022020	164520	97.41	12.418955	-56.978607	97.54	0.370	-0.520	2.210	97.41	-1.90	2.60	 	 	 	 	 	 	 	 	 	 	 	 	 	 	 	 	 	 	1581525920	7.07	13.09
12/02/2020 16:45:21	120220	12022020	164521	97.17	12.418952	-56.978578	97.30	-0.280	0.540	2.210	97.17	-0.80	2.60	 	 	 	 	 	 	 	 	 	 	 	 	 	 	 	 	 	 	1581525921	6.23	11.54
12/02/2020 16:45:22	120220	12022020	164522	97.13	12.418948	-56.978548	97.24	-0.790	0.920	2.120	97.13	-0.50	2.50	 	 	 	 	 	 	 	 	 	 	 	 	 	 	 	 	 	 	1581525922	6.16	11.41
12/02/2020 16:45:23	120220	12022020	164523	97.20	12.418942	-56.978515	97.30	-0.680	0.040	1.930	97.20	-1.40	2.30	 	 	 	 	 	 	 	 	 	 	 	 	 	 	 	 	 	 	1581525923	7.28	13.48
12/02/2020 16:45:24	120220	12022020	164524	97.28	12.418935	-56.978475	97.38	-0.020	-1.210	1.830	97.28	-2.60	2.20	 	 	 	 	 	 	 	 	 	 	 	 	 	 	 	 	 	 	1581525924	8.53	15.80
12/02/2020 16:45:25	120220	12022020	164525	97.26	12.418927	-56.978437	97.33	0.490	-1.360	1.760	97.26	-2.70	2.10	 	 	 	 	 	 	 	 	 	 	 	 	 	 	 	 	 	 	1581525925	8.31	15.39
12/02/2020 16:45:26	120220	12022020	164526	97.03	12.418922	-56.978405	97.11	0.430	-0.320	1.520	97.03	-1.70	1.90	 	 	 	 	 	 	 	 	 	 	 	 	 	 	 	 	 	 	1581525926	6.83	12.65
12/02/2020 16:45:27	120220	12022020	164527	96.76	12.418922	-56.978377	96.84	0.060	0.770	1.030	96.76	-0.60	1.40	 	 	 	 	 	 	 	 	 	 	 	 	 	 	 	 	 	 	1581525927	5.94	11.00
12/02/2020 16:45:28	120220	12022020	164528	96.79	12.418923	-56.978347	96.84	-0.200	0.950	0.330	96.79	-0.40	0.70	 	 	 	 	 	 	 	 	 	 	 	 	 	 	 	 	 	 	1581525928	6.46	11.96
12/02/2020 16:45:29	120220	12022020	164529	96.99	12.418925	-56.978312	97.03	-0.190	0.220	-0.030	96.99	-1.20	0.40	 	 	 	 	 	 	 	 	 	 	 	 	 	 	 	 	 	 	1581525929	7.41	13.72
12/02/2020 16:45:30	120220	12022020	164530	97.09	12.418922	-56.978273	97.10	0.080	-0.930	0.070	97.09	-2.30	0.50	 	 	 	 	 	 	 	 	 	 	 	 	 	 	 	 	 	 	1581525930	8.11	15.02
12/02/2020 16:45:31	120220	12022020	164531	96.99	12.418917	-56.978233	97.02	0.410	-1.580	0.450	96.99	-2.90	0.90	 	 	 	 	 	 	 	 	 	 	 	 	 	 	 	 	 	 	1581525931	8.37	15.50
12/02/2020 16:45:32	120220	12022020	164532	96.88	12.418910	-56.978198	96.93	0.420	-0.970	0.960	96.88	-2.30	1.40	 	 	 	 	 	 	 	 	 	 	 	 	 	 	 	 	 	 	1581525932	7.59	14.06
12/02/2020 16:45:33	120220	12022020	164533	96.87	12.418903	-56.978168	96.91	-0.040	0.390	1.400	96.87	-0.90	1.80	 	 	 	 	 	 	 	 	 	 	 	 	 	 	 	 	 	 	1581525933	6.30	11.67
12/02/2020 16:45:34	120220	12022020	164534	96.77	12.418898	-56.978142	96.80	-0.600	1.120	1.580	96.77	-0.30	2.00	 	 	 	 	 	 	 	 	 	 	 	 	 	 	 	 	 	 	1581525934	5.92	10.96
12/02/2020 16:45:35	120220	12022020	164535	96.41	12.418893	-56.978108	96.43	-0.640	0.400	1.540	96.41	-1.00	1.90	 	 	 	 	 	 	 	 	 	 	 	 	 	 	 	 	 	 	1581525935	7.00	12.96
12/02/2020 16:45:36	120220	12022020	164536	95.97	12.418890	-56.978068	96.00	-0.040	-1.100	1.350	95.97	-2.50	1.70	 	 	 	 	 	 	 	 	 	 	 	 	 	 	 	 	 	 	1581525936	8.63	15.98
12/02/2020 16:45:37	120220	12022020	164537	95.89	12.418888	-56.978027	95.95	0.560	-1.660	1.030	95.89	-3.00	1.40	 	 	 	 	 	 	 	 	 	 	 	 	 	 	 	 	 	 	1581525937	8.92	16.52
12/02/2020 16:45:38	120220	12022020	164538	96.20	12.418885	-56.977992	96.26	0.520	-0.650	0.770	96.20	-2.00	1.20	 	 	 	 	 	 	 	 	 	 	 	 	 	 	 	 	 	 	1581525938	7.41	13.72
12/02/2020 16:45:39	120220	12022020	164539	96.57	12.418883	-56.977963	96.62	-0.070	0.890	0.620	96.57	-0.50	1.00	 	 	 	 	 	 	 	 	 	 	 	 	 	 	 	 	 	 	1581525939	5.89	10.91
12/02/2020 16:45:40	120220	12022020	164540	96.59	12.418878	-56.977937	96.61	-0.590	1.520	0.750	96.59	0.10	1.20	 	 	 	 	 	 	 	 	 	 	 	 	 	 	 	 	 	 	1581525940	5.81	10.76
12/02/2020 16:45:41	120220	12022020	164541	96.15	12.418873	-56.977903	96.12	-0.500	0.550	1.230	96.15	-0.90	1.60	 	 	 	 	 	 	 	 	 	 	 	 	 	 	 	 	 	 	1581525941	7.11	13.17
12/02/2020 16:45:42	120220	12022020	164542	95.41	12.418867	-56.977862	95.41	0.190	-1.340	1.620	95.41	-2.80	2.00	 	 	 	 	 	 	 	 	 	 	 	 	 	 	 	 	 	 	1581525942	8.75	16.21
12/02/2020 16:45:43	120220	12022020	164543	94.98	12.418865	-56.977818	95.02	0.860	-2.300	1.520	94.98	-3.70	1.90	 	 	 	 	 	 	 	 	 	 	 	 	 	 	 	 	 	 	1581525943	9.24	17.11
12/02/2020 16:45:44	120220	12022020	164544	95.10	12.418865	-56.977782	95.18	0.750	-1.270	1.420	95.10	-2.60	1.80	 	 	 	 	 	 	 	 	 	 	 	 	 	 	 	 	 	 	1581525944	7.72	14.30
12/02/2020 16:45:45	120220	12022020	164545	95.45	12.418862	-56.977755	95.54	-0.050	0.540	1.510	95.45	-0.80	1.90	 	 	 	 	 	 	 	 	 	 	 	 	 	 	 	 	 	 	1581525945	5.87	10.87
12/02/2020 16:45:46	120220	12022020	164546	95.63	12.418857	-56.977727	95.70	-0.700	1.350	1.810	95.63	-0.10	2.20	 	 	 	 	 	 	 	 	 	 	 	 	 	 	 	 	 	 	1581525946	5.86	10.85
12/02/2020 16:45:47	120220	12022020	164547	95.57	12.418850	-56.977693	95.60	-0.680	0.710	1.950	95.54	-0.70	2.30	 	 	 	 	 	 	 	 	 	 	 	 	 	 	 	 	 	 	1581525947	7.44	13.78
12/02/2020 16:45:48	120220	12022020	164548	95.16	12.418843	-56.977653	95.22	-0.330	-0.210	2.140	95.16	-1.60	2.50	 	 	 	 	 	 	 	 	 	 	 	 	 	 	 	 	 	 	1581525948	8.44	15.63
12/02/2020 16:45:49	120220	12022020	164549	94.69	12.418838	-56.977615	94.78	-0.060	-0.710	2.120	94.69	-2.10	2.50	 	 	 	 	 	 	 	 	 	 	 	 	 	 	 	 	 	 	1581525949	8.16	15.11
12/02/2020 16:45:50	120220	12022020	164550	94.52	12.418837	-56.977578	94.62	0.050	-0.820	1.580	94.52	-2.20	2.00	 	 	 	 	 	 	 	 	 	 	 	 	 	 	 	 	 	 	1581525950	7.68	14.22
12/02/2020 16:45:51	120220	12022020	164551	94.56	12.418837	-56.977543	94.65	0.050	-0.610	0.970	94.56	-2.00	1.40	 	 	 	 	 	 	 	 	 	 	 	 	 	 	 	 	 	 	1581525951	7.42	13.74
12/02/2020 16:45:52	120220	12022020	164552	94.55	12.418835	-56.977510	94.62	0.050	-0.230	0.710	94.55	-1.60	1.10	 	 	 	 	 	 	 	 	 	 	 	 	 	 	 	 	 	 	1581525952	7.15	13.24
12/02/2020 16:45:53	120220	12022020	164553	94.34	12.418832	-56.977477	94.40	0.230	-0.120	0.680	94.34	-1.50	1.10	 	 	 	 	 	 	 	 	 	 	 	 	 	 	 	 	 	 	1581525953	7.25	13.43
12/02/2020 16:45:54	120220	12022020	164554	93.91	12.418830	-56.977440	93.98	0.580	-0.260	0.710	93.91	-1.60	1.10	 	 	 	 	 	 	 	 	 	 	 	 	 	 	 	 	 	 	1581525954	7.72	14.30
12/02/2020 16:45:55	120220	12022020	164555	93.52	12.418830	-56.977402	93.61	0.790	-0.340	0.750	93.52	-1.70	1.20	 	 	 	 	 	 	 	 	 	 	 	 	 	 	 	 	 	 	1581525955	7.92	14.67
12/02/2020 16:45:56	120220	12022020	164556	93.46	12.418832	-56.977365	93.58	0.520	-0.270	0.820	93.46	-1.60	1.20	 	 	 	 	 	 	 	 	 	 	 	 	 	 	 	 	 	 	1581525956	7.85	14.54
12/02/2020 16:45:57	120220	12022020	164557	93.61	12.418830	-56.977330	93.76	-0.240	0.030	1.020	93.61	-1.30	1.40	 	 	 	 	 	 	 	 	 	 	 	 	 	 	 	 	 	 	1581525957	7.53	13.95
12/02/2020 16:45:58	120220	12022020	164558	93.68	12.418825	-56.977295	93.81	-1.020	0.380	1.520	93.68	-1.00	1.90	 	 	 	 	 	 	 	 	 	 	 	 	 	 	 	 	 	 	1581525958	7.19	13.32
12/02/2020 16:45:59	120220	12022020	164559	93.49	12.418815	-56.977262	93.64	-1.180	0.160	2.090	93.49	-1.20	2.50	 	 	 	 	 	 	 	 	 	 	 	 	 	 	 	 	 	 	1581525959	7.48	13.85
12/02/2020 16:46:00	120220	12022020	164600	93.13	12.418807	-56.977223	93.27	-0.590	-0.680	2.410	93.13	-2.10	2.80	 	 	 	 	 	 	 	 	 	 	 	 	 	 	 	 	 	 	1581525960	8.31	15.39
12/02/2020 16:46:01	120220	12022020	164601	92.81	12.418802	-56.977182	92.88	0.230	-1.270	2.140	92.75	-2.60	2.50	 	 	 	 	 	 	 	 	 	 	 	 	 	 	 	 	 	 	1581525961	8.76	16.22
12/02/2020 16:46:02	120220	12022020	164602	92.55	12.418803	-56.977143	92.68	0.630	-0.870	1.310	92.55	-2.20	1.70	1016.00	26.80	26.80	19.60	19.60	786.0	64.0	64.0	419.0	29.0	352.00	14.50	86.00	10.80	60903	13567.0	27.4	27.4	1581525962	8.15	15.09
12/02/2020 16:46:03	120220	12022020	164603	92.50	12.418808	-56.977110	92.62	0.480	0.170	0.570	92.50	-1.20	1.00	 	 	 	 	 	 	 	 	 	 	 	 	 	 	 	 	 	 	1581525963	7.14	13.22
12/02/2020 16:46:04	120220	12022020	164604	92.52	12.418812	-56.977078	92.65	0.150	0.730	0.340	92.52	-0.70	0.70	 	 	 	 	 	 	 	 	 	 	 	 	 	 	 	 	 	 	1581525964	6.80	12.59
12/02/2020 16:46:05	120220	12022020	164605	92.57	12.418812	-56.977042	92.68	0.090	0.110	0.420	92.57	-1.30	0.80	 	 	 	 	 	 	 	 	 	 	 	 	 	 	 	 	 	 	1581525965	7.70	14.26
12/02/2020 16:46:06	120220	12022020	164606	92.46	12.418810	-56.977000	92.58	0.300	-0.920	0.730	92.46	-2.30	1.10	 	 	 	 	 	 	 	 	 	 	 	 	 	 	 	 	 	 	1581525966	8.90	16.48
12/02/2020 16:46:07	120220	12022020	164607	92.14	12.418807	-56.976958	92.26	0.360	-0.940	1.360	92.14	-2.30	1.80	 	 	 	 	 	 	 	 	 	 	 	 	 	 	 	 	 	 	1581525967	8.79	16.28
12/02/2020 16:46:08	120220	12022020	164608	91.88	12.418803	-56.976923	92.03	-0.120	0.140	1.870	91.88	-1.20	2.30	 	 	 	 	 	 	 	 	 	 	 	 	 	 	 	 	 	 	1581525968	7.38	13.67
12/02/2020 16:46:09	120220	12022020	164609	91.88	12.418800	-56.976893	92.02	-0.850	0.980	1.950	91.88	-0.40	2.30	 	 	 	 	 	 	 	 	 	 	 	 	 	 	 	 	 	 	1581525969	6.41	11.87
12/02/2020 16:46:10	120220	12022020	164610	91.98	12.418800	-56.976860	92.10	-1.050	0.400	1.720	91.98	-1.00	2.10	 	 	 	 	 	 	 	 	 	 	 	 	 	 	 	 	 	 	1581525970	7.12	13.19
12/02/2020 16:46:11	120220	12022020	164611	91.99	12.418800	-56.976818	92.11	-0.270	-1.270	1.420	91.99	-2.70	1.80	 	 	 	 	 	 	 	 	 	 	 	 	 	 	 	 	 	 	1581525971	8.90	16.48
12/02/2020 16:46:12	120220	12022020	164612	91.96	12.418798	-56.976772	92.08	0.790	-2.070	1.340	91.96	-3.40	1.70	 	 	 	 	 	 	 	 	 	 	 	 	 	 	 	 	 	 	1581525972	9.65	17.87
12/02/2020 16:46:13	120220	12022020	164613	92.01	12.418798	-56.976733	92.15	1.030	-1.030	1.380	92.01	-2.30	1.80	 	 	 	 	 	 	 	 	 	 	 	 	 	 	 	 	 	 	1581525973	8.17	15.13
12/02/2020 16:46:14	120220	12022020	164614	92.10	12.418797	-56.976703	92.22	0.340	0.710	1.300	92.10	-0.60	1.70	 	 	 	 	 	 	 	 	 	 	 	 	 	 	 	 	 	 	1581525974	6.44	11.93
12/02/2020 16:46:15	120220	12022020	164615	92.06	12.418797	-56.976673	92.16	-0.470	1.670	1.140	92.06	0.30	1.50	 	 	 	 	 	 	 	 	 	 	 	 	 	 	 	 	 	 	1581525975	6.17	11.43
12/02/2020 16:46:16	120220	12022020	164616	91.86	12.418798	-56.976638	91.94	-0.640	1.100	0.980	91.86	-0.30	1.40	 	 	 	 	 	 	 	 	 	 	 	 	 	 	 	 	 	 	1581525976	7.31	13.54
12/02/2020 16:46:17	120220	12022020	164617	91.62	12.418800	-56.976597	91.70	-0.210	-0.440	0.760	91.62	-1.80	1.20	 	 	 	 	 	 	 	 	 	 	 	 	 	 	 	 	 	 	1581525977	8.81	16.32
12/02/2020 16:46:18	120220	12022020	164618	91.50	12.418802	-56.976553	91.61	0.240	-1.540	0.550	91.50	-2.90	1.00	 	 	 	 	 	 	 	 	 	 	 	 	 	 	 	 	 	 	1581525978	9.27	17.17
12/02/2020 16:46:19	120220	12022020	164619	91.48	12.418802	-56.976515	91.61	0.320	-1.360	0.700	91.48	-2.70	1.10	 	 	 	 	 	 	 	 	 	 	 	 	 	 	 	 	 	 	1581525979	8.30	15.37
12/02/2020 16:46:20	120220	12022020	164620	91.50	12.418800	-56.976480	91.63	0.110	-0.520	0.900	91.50	-1.80	1.30	 	 	 	 	 	 	 	 	 	 	 	 	 	 	 	 	 	 	1581525980	7.11	13.17
12/02/2020 16:46:21	120220	12022020	164621	91.49	12.418800	-56.976447	91.62	-0.020	-0.100	0.890	91.49	-1.40	1.30	 	 	 	 	 	 	 	 	 	 	 	 	 	 	 	 	 	 	1581525981	7.16	13.26
12/02/2020 16:46:22	120220	12022020	164622	91.36	12.418798	-56.976408	91.47	0.100	-0.260	1.080	91.36	-1.60	1.50	 	 	 	 	 	 	 	 	 	 	 	 	 	 	 	 	 	 	1581525982	7.99	14.80
12/02/2020 16:46:23	120220	12022020	164623	91.15	12.418795	-56.976368	91.25	0.320	-0.420	1.420	91.15	-1.80	1.80	 	 	 	 	 	 	 	 	 	 	 	 	 	 	 	 	 	 	1581525983	8.56	15.85
12/02/2020 16:46:24	120220	12022020	164624	91.05	12.418795	-56.976330	91.16	0.200	0.070	1.510	91.05	-1.30	1.90	 	 	 	 	 	 	 	 	 	 	 	 	 	 	 	 	 	 	1581525984	8.25	15.28
12/02/2020 16:46:25	120220	12022020	164625	91.02	12.418793	-56.976295	91.12	-0.450	0.910	1.480	91.02	-0.40	1.90	 	 	 	 	 	 	 	 	 	 	 	 	 	 	 	 	 	 	1581525985	7.27	13.46
12/02/2020 16:46:26	120220	12022020	164626	90.93	12.418793	-56.976262	91.03	-1.160	1.150	1.450	90.93	-0.20	1.80	 	 	 	 	 	 	 	 	 	 	 	 	 	 	 	 	 	 	1581525986	6.94	12.85
12/02/2020 16:46:27	120220	12022020	164627	90.86	12.418793	-56.976227	90.91	-1.120	0.280	1.170	90.86	-1.10	1.60	 	 	 	 	 	 	 	 	 	 	 	 	 	 	 	 	 	 	1581525987	7.69	14.24
12/02/2020 16:46:28	120220	12022020	164628	90.82	12.418795	-56.976183	90.87	-0.030	-1.320	0.790	90.82	-2.70	1.20	 	 	 	 	 	 	 	 	 	 	 	 	 	 	 	 	 	 	1581525988	8.89	16.46
12/02/2020 16:46:29	120220	12022020	164629	90.82	12.418797	-56.976138	90.89	1.360	-2.550	0.760	90.82	-3.90	1.20	 	 	 	 	 	 	 	 	 	 	 	 	 	 	 	 	 	 	1581525989	9.57	17.72
12/02/2020 16:46:30	120220	12022020	164630	90.79	12.418798	-56.976097	90.87	1.890	-2.100	1.000	90.79	-3.40	1.40	 	 	 	 	 	 	 	 	 	 	 	 	 	 	 	 	 	 	1581525990	8.98	16.63
12/02/2020 16:46:31	120220	12022020	164631	90.68	12.418798	-56.976062	90.76	1.070	-0.020	1.180	90.68	-1.30	1.60	 	 	 	 	 	 	 	 	 	 	 	 	 	 	 	 	 	 	1581525991	7.16	13.26
12/02/2020 16:46:32	120220	12022020	164632	90.53	12.418798	-56.976035	90.61	-0.480	2.030	1.340	90.53	0.70	1.70	 	 	 	 	 	 	 	 	 	 	 	 	 	 	 	 	 	 	1581525992	5.80	10.74
12/02/2020 16:46:33	120220	12022020	164633	90.47	12.418798	-56.976005	90.55	-1.640	2.510	1.350	90.47	1.10	1.70	 	 	 	 	 	 	 	 	 	 	 	 	 	 	 	 	 	 	1581525993	6.31	11.69
12/02/2020 16:46:34	120220	12022020	164634	90.61	12.418800	-56.975968	90.69	-1.630	1.030	1.040	90.61	-0.40	1.40	 	 	 	 	 	 	 	 	 	 	 	 	 	 	 	 	 	 	1581525994	7.95	14.72
12/02/2020 16:46:35	120220	12022020	164635	90.76	12.418802	-56.975922	90.84	-0.530	-1.490	0.800	90.76	-2.90	1.20	 	 	 	 	 	 	 	 	 	 	 	 	 	 	 	 	 	 	1581525995	9.70	17.96
12/02/2020 16:46:36	120220	12022020	164636	90.81	12.418802	-56.975873	90.89	0.690	-3.090	0.830	90.81	-4.40	1.20	 	 	 	 	 	 	 	 	 	 	 	 	 	 	 	 	 	 	1581525996	10.26	19.00
12/02/2020 16:46:37	120220	12022020	164637	90.81	12.418800	-56.975832	90.92	0.960	-2.140	1.200	90.82	-3.40	1.60	 	 	 	 	 	 	 	 	 	 	 	 	 	 	 	 	 	 	1581525997	8.68	16.08
12/02/2020 16:46:38	120220	12022020	164638	90.82	12.418798	-56.975803	90.92	0.220	0.440	1.440	90.82	-0.80	1.80	 	 	 	 	 	 	 	 	 	 	 	 	 	 	 	 	 	 	1581525998	6.10	11.30
12/02/2020 16:46:39	120220	12022020	164639	90.88	12.418798	-56.975778	90.95	-0.600	2.170	1.120	90.88	0.80	1.50	 	 	 	 	 	 	 	 	 	 	 	 	 	 	 	 	 	 	1581525999	5.24	9.70
12/02/2020 16:46:40	120220	12022020	164640	91.02	12.418802	-56.975745	91.08	-0.480	1.430	0.370	91.02	0.00	0.70	 	 	 	 	 	 	 	 	 	 	 	 	 	 	 	 	 	 	1581526000	7.05	13.06
12/02/2020 16:46:41	120220	12022020	164641	91.14	12.418807	-56.975700	91.17	0.440	-0.660	-0.080	91.14	-2.10	0.30	 	 	 	 	 	 	 	 	 	 	 	 	 	 	 	 	 	 	1581526001	9.60	17.78
12/02/2020 16:46:42	120220	12022020	164642	91.04	12.418810	-56.975653	91.08	1.020	-1.760	-0.010	91.04	-3.10	0.40	 	 	 	 	 	 	 	 	 	 	 	 	 	 	 	 	 	 	1581526002	9.92	18.37
12/02/2020 16:46:43	120220	12022020	164643	90.82	12.418812	-56.975615	90.87	0.560	-0.960	0.280	90.82	-2.30	0.70	 	 	 	 	 	 	 	 	 	 	 	 	 	 	 	 	 	 	1581526003	8.09	14.98
12/02/2020 16:46:44	120220	12022020	164644	90.59	12.418813	-56.975585	90.67	-0.510	0.570	0.660	90.59	-0.80	1.10	 	 	 	 	 	 	 	 	 	 	 	 	 	 	 	 	 	 	1581526004	6.23	11.54
12/02/2020 16:46:45	120220	12022020	164645	90.63	12.418813	-56.975557	90.71	-1.120	1.010	0.890	90.63	-0.40	1.30	 	 	 	 	 	 	 	 	 	 	 	 	 	 	 	 	 	 	1581526005	6.24	11.56
12/02/2020 16:46:46	120220	12022020	164646	90.87	12.418812	-56.975518	90.95	-0.750	-0.060	0.870	90.87	-1.50	1.30	 	 	 	 	 	 	 	 	 	 	 	 	 	 	 	 	 	 	1581526006	7.97	14.76
12/02/2020 16:46:47	120220	12022020	164647	91.09	12.418810	-56.975475	91.16	0.000	-1.110	0.730	91.09	-2.50	1.10	 	 	 	 	 	 	 	 	 	 	 	 	 	 	 	 	 	 	1581526007	9.13	16.91
12/02/2020 16:46:48	120220	12022020	164648	90.98	12.418810	-56.975435	91.03	0.490	-1.150	0.900	90.98	-2.50	1.30	 	 	 	 	 	 	 	 	 	 	 	 	 	 	 	 	 	 	1581526008	8.50	15.74
12/02/2020 16:46:49	120220	12022020	164649	90.57	12.418808	-56.975400	90.62	0.610	-0.590	1.180	90.57	-1.90	1.60	 	 	 	 	 	 	 	 	 	 	 	 	 	 	 	 	 	 	1581526009	7.51	13.91
12/02/2020 16:46:50	120220	12022020	164650	90.28	12.418810	-56.975363	90.34	0.680	-0.360	0.950	90.28	-1.70	1.30	 	 	 	 	 	 	 	 	 	 	 	 	 	 	 	 	 	 	1581526010	7.58	14.04
12/02/2020 16:46:51	120220	12022020	164651	90.25	12.418817	-56.975325	90.34	0.620	-0.250	0.400	90.27	-1.60	0.80	 	 	 	 	 	 	 	 	 	 	 	 	 	 	 	 	 	 	1581526011	8.32	15.41
12/02/2020 16:46:52	120220	12022020	164652	90.51	12.418822	-56.975288	90.58	0.140	0.540	0.180	90.51	-0.80	0.60	 	 	 	 	 	 	 	 	 	 	 	 	 	 	 	 	 	 	1581526012	7.94	14.70
12/02/2020 16:46:53	120220	12022020	164653	90.93	12.418823	-56.975257	91.00	-0.660	1.650	0.300	90.93	0.30	0.70	 	 	 	 	 	 	 	 	 	 	 	 	 	 	 	 	 	 	1581526013	6.68	12.37
12/02/2020 16:46:54	120220	12022020	164654	91.21	12.418825	-56.975225	91.26	-1.160	1.530	0.460	91.21	0.10	0.90	 	 	 	 	 	 	 	 	 	 	 	 	 	 	 	 	 	 	1581526014	6.46	11.96
12/02/2020 16:46:55	120220	12022020	164655	91.12	12.418823	-56.975187	91.16	-0.670	-0.720	0.800	91.12	-2.20	1.20	 	 	 	 	 	 	 	 	 	 	 	 	 	 	 	 	 	 	1581526015	8.28	15.33
12/02/2020 16:46:56	120220	12022020	164656	90.89	12.418823	-56.975137	90.96	0.520	-3.280	1.260	90.89	-4.70	1.70	 	 	 	 	 	 	 	 	 	 	 	 	 	 	 	 	 	 	1581526016	10.40	19.26
12/02/2020 16:46:57	120220	12022020	164657	90.74	12.418822	-56.975090	90.86	1.290	-3.380	1.550	90.74	-4.70	1.90	 	 	 	 	 	 	 	 	 	 	 	 	 	 	 	 	 	 	1581526017	9.90	18.33
12/02/2020 16:46:58	120220	12022020	164658	90.95	12.418822	-56.975057	91.09	0.900	-0.750	1.480	90.95	-2.00	1.90	 	 	 	 	 	 	 	 	 	 	 	 	 	 	 	 	 	 	1581526018	7.03	13.02
12/02/2020 16:46:59	120220	12022020	164659	91.50	12.418822	-56.975033	91.65	-0.280	2.190	1.190	91.50	0.90	1.60	 	 	 	 	 	 	 	 	 	 	 	 	 	 	 	 	 	 	1581526019	4.92	9.11
12/02/2020 16:47:00	120220	12022020	164700	91.90	12.418823	-56.975008	92.00	-1.160	3.030	0.950	91.90	1.60	1.30	 	 	 	 	 	 	 	 	 	 	 	 	 	 	 	 	 	 	1581526020	5.53	10.24
12/02/2020 16:47:01	120220	12022020	164701	92.02	12.418823	-56.974970	92.10	-0.980	1.510	0.690	92.02	0.10	1.10	 	 	 	 	 	 	 	 	 	 	 	 	 	 	 	 	 	 	1581526021	7.87	14.58
12/02/2020 16:47:02	120220	12022020	164702	92.30	12.418827	-56.974925	92.40	-0.060	-0.700	0.180	92.30	-2.10	0.60	1016.00	26.80	26.80	20.00	20.10	883.0	66.0	66.0	415.0	29.0	354.00	14.90	83.00	10.90	65692	16296.0	27.4	27.4	1581526022	9.60	17.78
12/02/2020 16:47:03	120220	12022020	164703	92.60	12.418832	-56.974880	92.77	0.820	-2.150	0.010	92.66	-3.50	0.40	 	 	 	 	 	 	 	 	 	 	 	 	 	 	 	 	 	 	1581526023	9.50	17.59
12/02/2020 16:47:04	120220	12022020	164704	92.86	12.418833	-56.974840	92.97	1.110	-2.400	0.260	92.86	-3.70	0.70	 	 	 	 	 	 	 	 	 	 	 	 	 	 	 	 	 	 	1581526024	8.51	15.76
12/02/2020 16:47:05	120220	12022020	164705	92.80	12.418832	-56.974805	92.91	0.780	-1.450	0.820	92.80	-2.80	1.20	 	 	 	 	 	 	 	 	 	 	 	 	 	 	 	 	 	 	1581526025	7.60	14.08
12/02/2020 16:47:06	120220	12022020	164706	92.58	12.418828	-56.974773	92.70	0.040	0.310	1.360	92.58	-1.00	1.80	 	 	 	 	 	 	 	 	 	 	 	 	 	 	 	 	 	 	1581526026	6.68	12.37
12/02/2020 16:47:07	120220	12022020	164707	92.51	12.418827	-56.974743	92.63	-0.670	1.620	1.250	92.51	0.30	1.60	 	 	 	 	 	 	 	 	 	 	 	 	 	 	 	 	 	 	1581526027	6.18	11.45
12/02/2020 16:47:08	120220	12022020	164708	92.64	12.418828	-56.974710	92.75	-0.740	1.260	0.600	92.64	-0.10	1.00	 	 	 	 	 	 	 	 	 	 	 	 	 	 	 	 	 	 	1581526028	7.14	13.22
12/02/2020 16:47:09	120220	12022020	164709	92.62	12.418830	-56.974668	92.71	-0.130	-0.290	0.280	92.62	-1.70	0.70	 	 	 	 	 	 	 	 	 	 	 	 	 	 	 	 	 	 	1581526029	8.96	16.59
12/02/2020 16:47:10	120220	12022020	164710	92.57	12.418832	-56.974623	92.67	0.400	-1.350	0.190	92.57	-2.70	0.60	 	 	 	 	 	 	 	 	 	 	 	 	 	 	 	 	 	 	1581526030	9.51	17.61
12/02/2020 16:47:11	120220	12022020	164711	92.65	12.418832	-56.974583	92.77	0.290	-1.130	0.230	92.65	-2.50	0.60	 	 	 	 	 	 	 	 	 	 	 	 	 	 	 	 	 	 	1581526031	8.39	15.54
12/02/2020 16:47:12	120220	12022020	164712	92.74	12.418830	-56.974550	92.84	-0.210	-0.240	0.560	92.74	-1.60	1.00	 	 	 	 	 	 	 	 	 	 	 	 	 	 	 	 	 	 	1581526032	7.14	13.22
12/02/2020 16:47:13	120220	12022020	164713	92.74	12.418827	-56.974517	92.84	-0.410	0.350	0.880	92.74	-1.00	1.30	 	 	 	 	 	 	 	 	 	 	 	 	 	 	 	 	 	 	1581526033	6.94	12.85
12/02/2020 16:47:14	120220	12022020	164714	92.73	12.418823	-56.974480	92.83	-0.100	0.310	0.840	92.73	-1.10	1.20	 	 	 	 	 	 	 	 	 	 	 	 	 	 	 	 	 	 	1581526034	7.63	14.13
12/02/2020 16:47:15	120220	12022020	164715	92.79	12.418825	-56.974442	92.88	0.290	0.040	0.550	92.79	-1.30	0.90	 	 	 	 	 	 	 	 	 	 	 	 	 	 	 	 	 	 	1581526035	8.16	15.11
12/02/2020 16:47:16	120220	12022020	164716	92.72	12.418827	-56.974403	92.79	0.370	-0.210	0.540	92.72	-1.60	0.90	 	 	 	 	 	 	 	 	 	 	 	 	 	 	 	 	 	 	1581526036	8.11	15.02
12/02/2020 16:47:17	120220	12022020	164717	92.46	12.418828	-56.974367	92.53	0.250	-0.520	0.810	92.46	-1.90	1.20	 	 	 	 	 	 	 	 	 	 	 	 	 	 	 	 	 	 	1581526037	7.98	14.78
12/02/2020 16:47:18	120220	12022020	164718	92.11	12.418827	-56.974327	92.19	0.310	-1.080	1.060	92.11	-2.50	1.50	 	 	 	 	 	 	 	 	 	 	 	 	 	 	 	 	 	 	1581526038	8.27	15.32
12/02/2020 16:47:19	120220	12022020	164719	91.88	12.418825	-56.974285	91.98	0.560	-1.470	1.270	91.88	-2.80	1.70	 	 	 	 	 	 	 	 	 	 	 	 	 	 	 	 	 	 	1581526039	8.83	16.35
12/02/2020 16:47:20	120220	12022020	164720	91.84	12.418823	-56.974245	91.95	0.460	-0.750	1.290	91.84	-2.10	1.70	 	 	 	 	 	 	 	 	 	 	 	 	 	 	 	 	 	 	1581526040	8.51	15.76
12/02/2020 16:47:21	120220	12022020	164721	92.12	12.418823	-56.974212	92.23	-0.290	1.050	1.020	92.12	-0.30	1.40	 	 	 	 	 	 	 	 	 	 	 	 	 	 	 	 	 	 	1581526041	6.99	12.95
12/02/2020 16:47:22	120220	12022020	164722	92.64	12.418825	-56.974185	92.76	-1.270	2.430	0.930	92.64	1.00	1.30	 	 	 	 	 	 	 	 	 	 	 	 	 	 	 	 	 	 	1581526042	5.84	10.82
12/02/2020 16:47:23	120220	12022020	164723	93.13	12.418825	-56.974153	93.23	-1.520	1.640	0.860	93.13	0.20	1.30	 	 	 	 	 	 	 	 	 	 	 	 	 	 	 	 	 	 	1581526043	6.62	12.26
12/02/2020 16:47:24	120220	12022020	164724	93.23	12.418822	-56.974110	93.29	-0.540	-1.230	0.810	93.23	-2.70	1.20	 	 	 	 	 	 	 	 	 	 	 	 	 	 	 	 	 	 	1581526044	9.16	16.96
12/02/2020 16:47:25	120220	12022020	164725	92.93	12.418818	-56.974058	93.00	0.900	-3.530	1.200	92.93	-4.90	1.60	 	 	 	 	 	 	 	 	 	 	 	 	 	 	 	 	 	 	1581526045	10.76	19.93
12/02/2020 16:47:26	120220	12022020	164726	92.77	12.418817	-56.974015	92.88	1.550	-2.890	1.510	92.77	-4.20	1.90	 	 	 	 	 	 	 	 	 	 	 	 	 	 	 	 	 	 	1581526046	9.21	17.06
12/02/2020 16:47:27	120220	12022020	164727	92.97	12.418817	-56.973987	93.18	1.040	-0.190	1.130	93.04	-1.50	1.50	 	 	 	 	 	 	 	 	 	 	 	 	 	 	 	 	 	 	1581526047	6.23	11.54
12/02/2020 16:47:28	120220	12022020	164728	93.48	12.418820	-56.973962	93.58	-0.010	1.940	0.480	93.48	0.60	0.90	 	 	 	 	 	 	 	 	 	 	 	 	 	 	 	 	 	 	1581526048	5.30	9.82
12/02/2020 16:47:29	120220	12022020	164729	93.75	12.418823	-56.973930	93.82	-0.730	2.110	0.230	93.75	0.70	0.60	 	 	 	 	 	 	 	 	 	 	 	 	 	 	 	 	 	 	1581526049	6.58	12.19
12/02/2020 16:47:30	120220	12022020	164730	93.71	12.418822	-56.973890	93.76	-0.810	0.820	0.430	93.71	-0.60	0.80	 	 	 	 	 	 	 	 	 	 	 	 	 	 	 	 	 	 	1581526050	8.38	15.52
12/02/2020 16:47:31	120220	12022020	164731	93.70	12.418820	-56.973848	93.77	-0.550	-0.610	0.610	93.70	-2.00	1.00	 	 	 	 	 	 	 	 	 	 	 	 	 	 	 	 	 	 	1581526051	9.15	16.95
12/02/2020 16:47:32	120220	12022020	164732	93.77	12.418815	-56.973807	93.87	-0.270	-1.320	0.870	93.77	-2.70	1.30	 	 	 	 	 	 	 	 	 	 	 	 	 	 	 	 	 	 	1581526052	8.72	16.15
12/02/2020 16:47:33	120220	12022020	164733	93.74	12.418810	-56.973770	93.83	-0.060	-1.050	1.110	93.74	-2.40	1.50	 	 	 	 	 	 	 	 	 	 	 	 	 	 	 	 	 	 	1581526053	7.80	14.45
12/02/2020 16:47:34	120220	12022020	164734	93.52	12.418807	-56.973737	93.60	0.160	-0.430	0.920	93.52	-1.80	1.30	 	 	 	 	 	 	 	 	 	 	 	 	 	 	 	 	 	 	1581526054	7.04	13.04
12/02/2020 16:47:35	120220	12022020	164735	93.20	12.418808	-56.973703	93.27	0.410	-0.190	0.600	93.20	-1.60	1.00	 	 	 	 	 	 	 	 	 	 	 	 	 	 	 	 	 	 	1581526055	7.22	13.37
12/02/2020 16:47:36	120220	12022020	164736	92.94	12.418810	-56.973665	93.03	0.680	-0.590	0.470	92.94	-2.00	0.90	 	 	 	 	 	 	 	 	 	 	 	 	 	 	 	 	 	 	1581526056	8.00	14.82
12/02/2020 16:47:37	120220	12022020	164737	92.91	12.418810	-56.973623	93.01	0.870	-1.130	0.300	92.91	-2.50	0.70	 	 	 	 	 	 	 	 	 	 	 	 	 	 	 	 	 	 	1581526057	8.77	16.24
12/02/2020 16:47:38	120220	12022020	164738	93.05	12.418812	-56.973583	93.15	0.600	-0.730	0.190	93.05	-2.00	0.60	 	 	 	 	 	 	 	 	 	 	 	 	 	 	 	 	 	 	1581526058	8.66	16.04
12/02/2020 16:47:39	120220	12022020	164739	93.13	12.418810	-56.973548	93.20	-0.260	0.740	0.540	93.12	-0.60	0.90	 	 	 	 	 	 	 	 	 	 	 	 	 	 	 	 	 	 	1581526059	7.22	13.37
12/02/2020 16:47:40	120220	12022020	164740	92.93	12.418805	-56.973520	92.99	-1.230	1.960	1.230	92.93	0.60	1.60	 	 	 	 	 	 	 	 	 	 	 	 	 	 	 	 	 	 	1581526060	6.23	11.54
12/02/2020 16:47:41	120220	12022020	164741	92.59	12.418798	-56.973488	92.66	-1.610	1.670	1.830	92.59	0.30	2.20	 	 	 	 	 	 	 	 	 	 	 	 	 	 	 	 	 	 	1581526061	6.88	12.74
12/02/2020 16:47:42	120220	12022020	164742	92.32	12.418793	-56.973448	92.42	-0.970	-0.270	1.930	92.32	-1.70	2.30	 	 	 	 	 	 	 	 	 	 	 	 	 	 	 	 	 	 	1581526062	8.46	15.67
12/02/2020 16:47:43	120220	12022020	164743	92.03	12.418792	-56.973402	92.11	0.390	-2.640	1.720	92.03	-4.00	2.10	 	 	 	 	 	 	 	 	 	 	 	 	 	 	 	 	 	 	1581526063	9.94	18.41
12/02/2020 16:47:44	120220	12022020	164744	91.62	12.418792	-56.973353	91.69	1.570	-3.320	1.550	91.62	-4.60	1.90	 	 	 	 	 	 	 	 	 	 	 	 	 	 	 	 	 	 	1581526064	9.96	18.45
12/02/2020 16:47:45	120220	12022020	164745	91.44	12.418793	-56.973317	91.55	1.610	-1.290	1.400	91.44	-2.60	1.80	 	 	 	 	 	 	 	 	 	 	 	 	 	 	 	 	 	 	1581526065	7.77	14.39
12/02/2020 16:47:46	120220	12022020	164746	91.57	12.418795	-56.973292	91.70	0.480	1.570	1.320	91.57	0.30	1.70	 	 	 	 	 	 	 	 	 	 	 	 	 	 	 	 	 	 	1581526066	5.39	9.98
12/02/2020 16:47:47	120220	12022020	164747	91.70	12.418795	-56.973267	91.80	-0.840	2.710	1.300	91.70	1.30	1.70	 	 	 	 	 	 	 	 	 	 	 	 	 	 	 	 	 	 	1581526067	5.42	10.04
12/02/2020 16:47:48	120220	12022020	164748	91.58	12.418795	-56.973230	91.66	-1.220	1.410	1.370	91.58	0.00	1.80	 	 	 	 	 	 	 	 	 	 	 	 	 	 	 	 	 	 	1581526068	7.62	14.11
12/02/2020 16:47:49	120220	12022020	164749	91.52	12.418793	-56.973185	91.63	-0.650	-0.520	1.360	91.52	-1.90	1.80	 	 	 	 	 	 	 	 	 	 	 	 	 	 	 	 	 	 	1581526069	9.53	17.65
12/02/2020 16:47:50	120220	12022020	164750	91.90	12.418793	-56.973142	92.04	0.020	-1.450	1.350	91.90	-2.80	1.70	 	 	 	 	 	 	 	 	 	 	 	 	 	 	 	 	 	 	1581526070	9.10	16.85
12/02/2020 16:47:51	120220	12022020	164751	92.36	12.418792	-56.973105	92.49	0.290	-1.490	1.500	92.36	-2.80	1.90	 	 	 	 	 	 	 	 	 	 	 	 	 	 	 	 	 	 	1581526071	7.87	14.58
12/02/2020 16:47:52	120220	12022020	164752	92.25	12.418788	-56.973070	92.37	0.310	-1.310	1.990	92.25	-2.70	2.40	 	 	 	 	 	 	 	 	 	 	 	 	 	 	 	 	 	 	1581526072	7.54	13.96
12/02/2020 16:47:53	120220	12022020	164753	91.74	12.418783	-56.973032	91.86	0.370	-1.050	2.440	91.74	-2.40	2.80	 	 	 	 	 	 	 	 	 	 	 	 	 	 	 	 	 	 	1581526073	7.94	14.70
12/02/2020 16:47:54	120220	12022020	164754	91.36	12.418780	-56.972995	91.49	0.430	-0.340	2.050	91.36	-1.70	2.40	 	 	 	 	 	 	 	 	 	 	 	 	 	 	 	 	 	 	1581526074	8.00	14.82
12/02/2020 16:47:55	120220	12022020	164755	91.43	12.418783	-56.972960	91.56	0.260	0.840	0.960	91.43	-0.50	1.30	 	 	 	 	 	 	 	 	 	 	 	 	 	 	 	 	 	 	1581526075	7.39	13.69
12/02/2020 16:47:56	120220	12022020	164756	91.74	12.418792	-56.972927	91.85	-0.120	1.420	0.070	91.74	0.10	0.50	 	 	 	 	 	 	 	 	 	 	 	 	 	 	 	 	 	 	1581526076	7.13	13.20
12/02/2020 16:47:57	120220	12022020	164757	91.97	12.418797	-56.972890	92.05	-0.410	0.630	-0.190	91.97	-0.80	0.20	 	 	 	 	 	 	 	 	 	 	 	 	 	 	 	 	 	 	1581526077	7.88	14.59
12/02/2020 16:47:58	120220	12022020	164758	91.92	12.418797	-56.972847	91.99	-0.430	-0.720	0.150	91.92	-2.10	0.60	 	 	 	 	 	 	 	 	 	 	 	 	 	 	 	 	 	 	1581526078	9.05	16.76
12/02/2020 16:47:59	120220	12022020	164759	91.65	12.418790	-56.972805	91.74	-0.370	-1.170	0.760	91.65	-2.50	1.20	 	 	 	 	 	 	 	 	 	 	 	 	 	 	 	 	 	 	1581526079	8.96	16.59
12/02/2020 16:48:00	120220	12022020	164800	91.42	12.418785	-56.972770	91.53	-0.260	-0.530	1.010	91.42	-1.90	1.40	 	 	 	 	 	 	 	 	 	 	 	 	 	 	 	 	 	 	1581526080	7.63	14.13
12/02/2020 16:48:01	120220	12022020	164801	91.28	12.418783	-56.972737	91.37	0.020	-0.010	0.890	91.28	-1.40	1.30	 	 	 	 	 	 	 	 	 	 	 	 	 	 	 	 	 	 	1581526081	6.83	12.65
12/02/2020 16:48:02	120220	12022020	164802	91.15	12.418785	-56.972700	91.24	0.520	-0.520	0.720	91.15	-1.90	1.10	1015.90	26.70	26.80	19.60	19.70	899.0	65.0	65.0	411.0	29.1	351.00	15.80	81.00	11.80	66922	14162.0	27.4	27.4	1581526082	7.75	14.35
12/02/2020 16:48:03	120220	12022020	164803	91.01	12.418787	-56.972658	91.10	0.890	-1.310	0.720	91.01	-2.70	1.10	 	 	 	 	 	 	 	 	 	 	 	 	 	 	 	 	 	 	1581526083	9.03	16.72
12/02/2020 16:48:04	120220	12022020	164804	90.87	12.418787	-56.972617	90.98	0.640	-0.960	0.990	90.87	-2.30	1.40	 	 	 	 	 	 	 	 	 	 	 	 	 	 	 	 	 	 	1581526084	8.77	16.24
12/02/2020 16:48:05	120220	12022020	164805	90.78	12.418785	-56.972582	90.89	-0.140	0.380	1.350	90.78	-0.90	1.70	 	 	 	 	 	 	 	 	 	 	 	 	 	 	 	 	 	 	1581526085	7.25	13.43
12/02/2020 16:48:06	120220	12022020	164806	90.70	12.418782	-56.972552	90.82	-0.750	1.270	1.580	90.70	-0.10	2.00	 	 	 	 	 	 	 	 	 	 	 	 	 	 	 	 	 	 	1581526086	6.63	12.28
12/02/2020 16:48:07	120220	12022020	164807	90.64	12.418780	-56.972515	90.73	-0.800	1.040	1.590	90.64	-0.40	2.00	 	 	 	 	 	 	 	 	 	 	 	 	 	 	 	 	 	 	1581526087	7.51	13.91
12/02/2020 16:48:08	120220	12022020	164808	90.46	12.418782	-56.972475	90.53	-0.520	0.220	1.430	90.46	-1.20	1.80	 	 	 	 	 	 	 	 	 	 	 	 	 	 	 	 	 	 	1581526088	8.37	15.50
12/02/2020 16:48:09	120220	12022020	164809	90.26	12.418783	-56.972435	90.33	-0.110	-0.780	1.330	90.26	-2.20	1.70	 	 	 	 	 	 	 	 	 	 	 	 	 	 	 	 	 	 	1581526089	8.62	15.96
12/02/2020 16:48:10	120220	12022020	164810	90.20	12.418785	-56.972393	90.31	0.410	-1.680	1.350	90.20	-3.10	1.80	 	 	 	 	 	 	 	 	 	 	 	 	 	 	 	 	 	 	1581526090	8.80	16.30
12/02/2020 16:48:11	120220	12022020	164811	90.36	12.418785	-56.972352	90.50	0.730	-1.820	1.370	90.36	-3.20	1.80	 	 	 	 	 	 	 	 	 	 	 	 	 	 	 	 	 	 	1581526091	8.84	16.37
12/02/2020 16:48:12	120220	12022020	164812	90.57	12.418785	-56.972315	90.70	0.520	-0.820	1.470	90.57	-2.10	1.90	 	 	 	 	 	 	 	 	 	 	 	 	 	 	 	 	 	 	1581526092	7.90	14.63
12/02/2020 16:48:13	120220	12022020	164813	90.54	12.418782	-56.972282	90.65	0.030	0.630	1.710	90.54	-0.70	2.10	 	 	 	 	 	 	 	 	 	 	 	 	 	 	 	 	 	 	1581526093	6.90	12.78
12/02/2020 16:48:14	120220	12022020	164814	90.29	12.418780	-56.972250	90.39	-0.280	1.420	1.780	90.29	0.10	2.20	 	 	 	 	 	 	 	 	 	 	 	 	 	 	 	 	 	 	1581526094	6.86	12.70
12/02/2020 16:48:15	120220	12022020	164815	90.30	12.418783	-56.972213	90.40	-0.390	1.130	1.220	90.30	-0.30	1.60	 	 	 	 	 	 	 	 	 	 	 	 	 	 	 	 	 	 	1581526095	7.74	14.33
12/02/2020 16:48:16	120220	12022020	164816	90.54	12.418788	-56.972173	90.64	-0.440	0.110	0.700	90.54	-1.30	1.10	 	 	 	 	 	 	 	 	 	 	 	 	 	 	 	 	 	 	1581526096	8.59	15.91
12/02/2020 16:48:17	120220	12022020	164817	90.63	12.418792	-56.972132	90.71	-0.360	-1.040	0.670	90.63	-2.40	1.10	 	 	 	 	 	 	 	 	 	 	 	 	 	 	 	 	 	 	1581526097	8.84	16.37
12/02/2020 16:48:18	120220	12022020	164818	90.55	12.418792	-56.972090	90.64	0.080	-1.840	0.920	90.55	-3.20	1.30	 	 	 	 	 	 	 	 	 	 	 	 	 	 	 	 	 	 	1581526098	8.84	16.37
12/02/2020 16:48:19	120220	12022020	164819	90.32	12.418790	-56.972048	90.44	0.650	-1.820	1.260	90.32	-3.20	1.70	 	 	 	 	 	 	 	 	 	 	 	 	 	 	 	 	 	 	1581526099	8.70	16.11
12/02/2020 16:48:20	120220	12022020	164820	90.28	12.418790	-56.972010	90.42	0.800	-0.750	1.190	90.28	-2.10	1.60	 	 	 	 	 	 	 	 	 	 	 	 	 	 	 	 	 	 	1581526100	7.99	14.80
12/02/2020 16:48:21	120220	12022020	164821	90.56	12.418792	-56.971977	90.70	0.330	0.650	0.840	90.56	-0.70	1.20	 	 	 	 	 	 	 	 	 	 	 	 	 	 	 	 	 	 	1581526101	7.11	13.17
12/02/2020 16:48:22	120220	12022020	164822	90.86	12.418795	-56.971943	90.97	-0.330	1.300	0.740	90.86	-0.10	1.10	 	 	 	 	 	 	 	 	 	 	 	 	 	 	 	 	 	 	1581526102	7.09	13.13
12/02/2020 16:48:23	120220	12022020	164823	90.87	12.418797	-56.971905	90.96	-0.750	0.900	0.920	90.87	-0.50	1.30	 	 	 	 	 	 	 	 	 	 	 	 	 	 	 	 	 	 	1581526103	8.00	14.82
12/02/2020 16:48:24	120220	12022020	164824	90.85	12.418795	-56.971865	90.94	-0.920	0.170	1.010	90.85	-1.20	1.40	 	 	 	 	 	 	 	 	 	 	 	 	 	 	 	 	 	 	1581526104	8.69	16.09
12/02/2020 16:48:25	120220	12022020	164825	90.89	12.418793	-56.971825	91.00	-0.860	-0.390	1.120	90.89	-1.80	1.50	 	 	 	 	 	 	 	 	 	 	 	 	 	 	 	 	 	 	1581526105	8.51	15.76
12/02/2020 16:48:26	120220	12022020	164826	90.89	12.418792	-56.971785	90.99	-0.420	-0.920	1.110	90.89	-2.30	1.50	 	 	 	 	 	 	 	 	 	 	 	 	 	 	 	 	 	 	1581526106	8.29	15.35
12/02/2020 16:48:27	120220	12022020	164827	90.87	12.418792	-56.971745	90.95	0.420	-1.430	0.770	90.87	-2.80	1.10	 	 	 	 	 	 	 	 	 	 	 	 	 	 	 	 	 	 	1581526107	8.56	15.85
12/02/2020 16:48:28	120220	12022020	164828	90.84	12.418795	-56.971703	90.92	1.110	-1.360	0.400	90.84	-2.70	0.80	 	 	 	 	 	 	 	 	 	 	 	 	 	 	 	 	 	 	1581526108	8.67	16.06
12/02/2020 16:48:29	120220	12022020	164829	90.75	12.418800	-56.971665	90.81	1.200	-0.680	0.450	90.72	-2.00	0.90	 	 	 	 	 	 	 	 	 	 	 	 	 	 	 	 	 	 	1581526109	8.13	15.06
12/02/2020 16:48:30	120220	12022020	164830	90.46	12.418800	-56.971628	90.55	0.740	-0.020	0.790	90.46	-1.40	1.20	 	 	 	 	 	 	 	 	 	 	 	 	 	 	 	 	 	 	1581526110	7.83	14.50
12/02/2020 16:48:31	120220	12022020	164831	90.29	12.418802	-56.971590	90.41	0.000	0.400	0.940	90.29	-0.90	1.30	 	 	 	 	 	 	 	 	 	 	 	 	 	 	 	 	 	 	1581526111	8.16	15.11
12/02/2020 16:48:32	120220	12022020	164832	90.41	12.418802	-56.971552	90.54	-0.810	0.980	1.030	90.41	-0.40	1.40	 	 	 	 	 	 	 	 	 	 	 	 	 	 	 	 	 	 	1581526112	8.09	14.98
12/02/2020 16:48:33	120220	12022020	164833	90.71	12.418800	-56.971517	90.84	-1.410	1.380	1.140	90.71	0.00	1.50	 	 	 	 	 	 	 	 	 	 	 	 	 	 	 	 	 	 	1581526113	7.53	13.95
12/02/2020 16:48:34	120220	12022020	164834	90.96	12.418798	-56.971480	91.07	-1.400	0.730	1.230	90.96	-0.70	1.60	 	 	 	 	 	 	 	 	 	 	 	 	 	 	 	 	 	 	1581526114	7.76	14.37
12/02/2020 16:48:35	120220	12022020	164835	90.97	12.418797	-56.971437	91.05	-0.680	-0.960	1.250	90.97	-2.30	1.60	 	 	 	 	 	 	 	 	 	 	 	 	 	 	 	 	 	 	1581526115	9.03	16.72
12/02/2020 16:48:36	120220	12022020	164836	90.83	12.418795	-56.971390	90.91	0.330	-2.480	1.280	90.83	-3.80	1.70	 	 	 	 	 	 	 	 	 	 	 	 	 	 	 	 	 	 	1581526116	9.89	18.32
12/02/2020 16:48:37	120220	12022020	164837	90.59	12.418795	-56.971345	90.67	1.200	-2.760	1.320	90.59	-4.10	1.70	 	 	 	 	 	 	 	 	 	 	 	 	 	 	 	 	 	 	1581526117	9.54	17.67
12/02/2020 16:48:38	120220	12022020	164838	90.32	12.418797	-56.971305	90.42	1.520	-1.460	1.060	90.32	-2.70	1.40	 	 	 	 	 	 	 	 	 	 	 	 	 	 	 	 	 	 	1581526118	8.53	15.80
12/02/2020 16:48:39	120220	12022020	164839	90.33	12.418802	-56.971272	90.44	0.930	1.000	0.550	90.33	-0.20	0.90	 	 	 	 	 	 	 	 	 	 	 	 	 	 	 	 	 	 	1581526119	7.16	13.26
12/02/2020 16:48:40	120220	12022020	164840	90.67	12.418807	-56.971243	90.77	-0.350	3.040	0.340	90.67	1.70	0.70	 	 	 	 	 	 	 	 	 	 	 	 	 	 	 	 	 	 	1581526120	6.08	11.26
12/02/2020 16:48:41	120220	12022020	164841	90.99	12.418808	-56.971212	91.07	-1.410	2.780	0.440	90.99	1.40	0.80	 	 	 	 	 	 	 	 	 	 	 	 	 	 	 	 	 	 	1581526121	6.66	12.33
12/02/2020 16:48:42	120220	12022020	164842	91.09	12.418808	-56.971168	91.16	-1.320	0.060	0.630	91.09	-1.40	1.00	 	 	 	 	 	 	 	 	 	 	 	 	 	 	 	 	 	 	1581526122	9.11	16.87
12/02/2020 16:48:43	120220	12022020	164843	91.14	12.418807	-56.971117	91.22	-0.350	-2.750	1.000	91.14	-4.10	1.40	 	 	 	 	 	 	 	 	 	 	 	 	 	 	 	 	 	 	1581526123	10.92	20.22
12/02/2020 16:48:44	120220	12022020	164844	91.15	12.418802	-56.971070	91.24	0.530	-3.190	1.360	91.15	-4.50	1.70	 	 	 	 	 	 	 	 	 	 	 	 	 	 	 	 	 	 	1581526124	9.98	18.48
12/02/2020 16:48:45	120220	12022020	164845	91.07	12.418800	-56.971035	91.16	0.770	-1.540	1.300	91.07	-2.80	1.70	 	 	 	 	 	 	 	 	 	 	 	 	 	 	 	 	 	 	1581526125	7.38	13.67
12/02/2020 16:48:46	120220	12022020	164846	90.79	12.418803	-56.971005	90.88	0.630	0.040	1.040	90.79	-1.30	1.40	 	 	 	 	 	 	 	 	 	 	 	 	 	 	 	 	 	 	1581526126	6.41	11.87
12/02/2020 16:48:47	120220	12022020	164847	90.70	12.418807	-56.970968	90.81	0.440	0.540	0.700	90.70	-0.80	1.10	 	 	 	 	 	 	 	 	 	 	 	 	 	 	 	 	 	 	1581526127	7.68	14.22
12/02/2020 16:48:48	120220	12022020	164848	91.03	12.418810	-56.970928	91.15	-0.030	0.860	0.460	91.03	-0.50	0.80	 	 	 	 	 	 	 	 	 	 	 	 	 	 	 	 	 	 	1581526128	8.47	15.69
12/02/2020 16:48:49	120220	12022020	164849	91.45	12.418812	-56.970892	91.55	-0.750	1.260	0.350	91.45	-0.10	0.70	 	 	 	 	 	 	 	 	 	 	 	 	 	 	 	 	 	 	1581526129	7.88	14.59
12/02/2020 16:48:50	120220	12022020	164850	91.61	12.418810	-56.970855	91.69	-1.160	0.970	0.540	91.61	-0.40	0.90	 	 	 	 	 	 	 	 	 	 	 	 	 	 	 	 	 	 	1581526130	7.64	14.15
12/02/2020 16:48:51	120220	12022020	164851	91.52	12.418807	-56.970815	91.59	-0.830	-0.300	0.990	91.52	-1.70	1.40	 	 	 	 	 	 	 	 	 	 	 	 	 	 	 	 	 	 	1581526131	8.57	15.87
12/02/2020 16:48:52	120220	12022020	164852	91.36	12.418803	-56.970772	91.42	0.020	-1.530	1.160	91.36	-2.90	1.50	 	 	 	 	 	 	 	 	 	 	 	 	 	 	 	 	 	 	1581526132	9.29	17.21
12/02/2020 16:48:53	120220	12022020	164853	91.20	12.418805	-56.970728	91.27	0.820	-1.780	0.920	91.20	-3.10	1.30	 	 	 	 	 	 	 	 	 	 	 	 	 	 	 	 	 	 	1581526133	8.92	16.52
12/02/2020 16:48:54	120220	12022020	164854	91.12	12.418808	-56.970690	91.20	1.160	-1.110	0.630	91.12	-2.40	1.00	 	 	 	 	 	 	 	 	 	 	 	 	 	 	 	 	 	 	1581526134	8.08	14.96
12/02/2020 16:48:55	120220	12022020	164855	91.14	12.418813	-56.970655	91.24	0.990	-0.370	0.520	91.14	-1.70	0.90	 	 	 	 	 	 	 	 	 	 	 	 	 	 	 	 	 	 	1581526135	7.74	14.33
12/02/2020 16:48:56	120220	12022020	164856	91.52	12.418815	-56.970617	91.65	0.520	0.030	0.440	91.52	-1.30	0.80	 	 	 	 	 	 	 	 	 	 	 	 	 	 	 	 	 	 	1581526136	8.10	15.00
12/02/2020 16:48:57	120220	12022020	164857	91.89	12.418815	-56.970577	91.99	-0.090	0.520	0.670	91.89	-0.80	1.10	 	 	 	 	 	 	 	 	 	 	 	 	 	 	 	 	 	 	1581526137	8.25	15.28
12/02/2020 16:48:58	120220	12022020	164858	91.72	12.418812	-56.970540	91.78	-0.700	1.080	1.180	91.72	-0.20	1.60	 	 	 	 	 	 	 	 	 	 	 	 	 	 	 	 	 	 	1581526138	7.73	14.32
12/02/2020 16:48:59	120220	12022020	164859	91.21	12.418810	-56.970505	91.29	-0.960	0.910	1.490	91.21	-0.40	1.90	 	 	 	 	 	 	 	 	 	 	 	 	 	 	 	 	 	 	1581526139	7.67	14.20
12/02/2020 16:49:00	120220	12022020	164900	90.96	12.418810	-56.970463	91.06	-0.630	-0.380	1.440	90.96	-1.70	1.80	 	 	 	 	 	 	 	 	 	 	 	 	 	 	 	 	 	 	1581526140	8.71	16.13
12/02/2020 16:49:01	120220	12022020	164901	91.02	12.418810	-56.970417	91.12	0.020	-1.760	1.190	91.02	-3.10	1.50	 	 	 	 	 	 	 	 	 	 	 	 	 	 	 	 	 	 	1581526141	9.72	18.00
12/02/2020 16:49:02	120220	12022020	164902	91.15	12.418810	-56.970373	91.24	0.490	-1.920	0.730	91.15	-3.20	1.10	1016.00	26.70	26.80	19.60	19.70	877.0	65.0	65.0	407.0	29.0	353.00	15.30	81.00	11.10	66110	18663.0	27.4	27.4	1581526142	9.37	17.35
12/02/2020 16:49:03	120220	12022020	164903	91.19	12.418812	-56.970335	91.29	0.550	-0.690	0.640	91.19	-2.00	1.00	 	 	 	 	 	 	 	 	 	 	 	 	 	 	 	 	 	 	1581526143	7.91	14.65
12/02/2020 16:49:04	120220	12022020	164904	91.12	12.418813	-56.970303	91.23	0.330	0.770	0.810	91.12	-0.50	1.20	 	 	 	 	 	 	 	 	 	 	 	 	 	 	 	 	 	 	1581526144	6.83	12.65
12/02/2020 16:49:05	120220	12022020	164905	91.17	12.418815	-56.970270	91.27	0.090	1.210	0.630	91.17	-0.10	1.00	 	 	 	 	 	 	 	 	 	 	 	 	 	 	 	 	 	 	1581526145	7.18	13.30
12/02/2020 16:49:06	120220	12022020	164906	91.24	12.418818	-56.970230	91.32	0.040	0.410	0.470	91.24	-0.90	0.90	 	 	 	 	 	 	 	 	 	 	 	 	 	 	 	 	 	 	1581526146	8.42	15.59
12/02/2020 16:49:07	120220	12022020	164907	91.17	12.418822	-56.970185	91.20	0.200	-0.840	0.660	91.14	-2.20	1.10	 	 	 	 	 	 	 	 	 	 	 	 	 	 	 	 	 	 	1581526147	9.41	17.43
12/02/2020 16:49:08	120220	12022020	164908	90.98	12.418823	-56.970140	91.07	0.360	-1.500	0.990	90.98	-2.80	1.40	 	 	 	 	 	 	 	 	 	 	 	 	 	 	 	 	 	 	1581526148	9.48	17.56
12/02/2020 16:49:09	120220	12022020	164909	91.17	12.418822	-56.970100	91.32	0.230	-1.070	1.240	91.17	-2.40	1.60	 	 	 	 	 	 	 	 	 	 	 	 	 	 	 	 	 	 	1581526149	8.66	16.04
12/02/2020 16:49:10	120220	12022020	164910	91.76	12.418820	-56.970063	91.93	-0.210	-0.010	1.250	91.76	-1.30	1.60	 	 	 	 	 	 	 	 	 	 	 	 	 	 	 	 	 	 	1581526150	7.62	14.11
12/02/2020 16:49:11	120220	12022020	164911	92.29	12.418818	-56.970030	92.44	-0.650	0.870	1.150	92.29	-0.40	1.50	 	 	 	 	 	 	 	 	 	 	 	 	 	 	 	 	 	 	1581526151	7.23	13.39
12/02/2020 16:49:12	120220	12022020	164912	92.40	12.418817	-56.969993	92.51	-0.770	1.040	1.050	92.40	-0.30	1.40	 	 	 	 	 	 	 	 	 	 	 	 	 	 	 	 	 	 	1581526152	7.60	14.08
12/02/2020 16:49:13	120220	12022020	164913	92.19	12.418818	-56.969953	92.29	-0.470	0.270	0.900	92.19	-1.10	1.30	 	 	 	 	 	 	 	 	 	 	 	 	 	 	 	 	 	 	1581526153	8.35	15.46
12/02/2020 16:49:14	120220	12022020	164914	92.01	12.418820	-56.969910	92.10	0.220	-1.300	0.640	92.01	-2.60	1.00	 	 	 	 	 	 	 	 	 	 	 	 	 	 	 	 	 	 	1581526154	9.40	17.41
12/02/2020 16:49:15	120220	12022020	164915	92.04	12.418823	-56.969862	92.15	0.990	-2.440	0.090	92.04	-3.70	0.50	 	 	 	 	 	 	 	 	 	 	 	 	 	 	 	 	 	 	1581526155	10.17	18.83
12/02/2020 16:49:16	120220	12022020	164916	92.25	12.418828	-56.969818	92.36	1.170	-1.630	-0.380	92.25	-2.80	0.00	 	 	 	 	 	 	 	 	 	 	 	 	 	 	 	 	 	 	1581526156	9.32	17.26
12/02/2020 16:49:17	120220	12022020	164917	92.62	12.418832	-56.969785	92.73	0.430	0.810	-0.420	92.62	-0.40	-0.00	 	 	 	 	 	 	 	 	 	 	 	 	 	 	 	 	 	 	1581526157	7.06	13.08
12/02/2020 16:49:18	120220	12022020	164918	93.03	12.418832	-56.969757	93.15	-0.800	2.640	0.060	93.03	1.40	0.50	 	 	 	 	 	 	 	 	 	 	 	 	 	 	 	 	 	 	1581526158	5.75	10.65
12/02/2020 16:49:19	120220	12022020	164919	93.21	12.418827	-56.969725	93.29	-1.420	2.020	0.620	93.22	0.60	1.00	 	 	 	 	 	 	 	 	 	 	 	 	 	 	 	 	 	 	1581526159	7.00	12.96
12/02/2020 16:49:20	120220	12022020	164920	93.10	12.418822	-56.969680	93.16	-0.810	-0.670	0.800	93.10	-2.10	1.20	 	 	 	 	 	 	 	 	 	 	 	 	 	 	 	 	 	 	1581526160	9.63	17.83
12/02/2020 16:49:21	120220	12022020	164921	92.78	12.418818	-56.969627	92.84	0.410	-2.890	0.910	92.78	-4.20	1.30	 	 	 	 	 	 	 	 	 	 	 	 	 	 	 	 	 	 	1581526161	10.99	20.35
12/02/2020 16:49:22	120220	12022020	164922	92.37	12.418818	-56.969582	92.46	1.160	-2.790	1.010	92.37	-4.00	1.40	 	 	 	 	 	 	 	 	 	 	 	 	 	 	 	 	 	 	1581526162	9.63	17.83
12/02/2020 16:49:23	120220	12022020	164923	92.12	12.418820	-56.969547	92.22	0.980	-1.030	0.790	92.12	-2.30	1.20	 	 	 	 	 	 	 	 	 	 	 	 	 	 	 	 	 	 	1581526163	7.45	13.80
12/02/2020 16:49:24	120220	12022020	164924	92.05	12.418823	-56.969515	92.15	0.310	0.610	0.510	92.05	-0.70	0.90	 	 	 	 	 	 	 	 	 	 	 	 	 	 	 	 	 	 	1581526164	6.80	12.59
12/02/2020 16:49:25	120220	12022020	164925	92.21	12.418823	-56.969480	92.33	-0.480	1.590	0.460	92.21	0.30	0.80	 	 	 	 	 	 	 	 	 	 	 	 	 	 	 	 	 	 	1581526165	7.45	13.80
12/02/2020 16:49:26	120220	12022020	164926	92.62	12.418822	-56.969443	92.73	-1.240	2.170	0.440	92.62	0.90	0.80	 	 	 	 	 	 	 	 	 	 	 	 	 	 	 	 	 	 	1581526166	7.58	14.04
12/02/2020 16:49:27	120220	12022020	164927	92.95	12.418820	-56.969408	93.04	-1.450	1.670	0.470	92.95	0.30	0.90	 	 	 	 	 	 	 	 	 	 	 	 	 	 	 	 	 	 	1581526167	7.54	13.96
12/02/2020 16:49:28	120220	12022020	164928	92.91	12.418815	-56.969367	92.96	-0.520	-0.690	0.700	92.91	-2.00	1.10	 	 	 	 	 	 	 	 	 	 	 	 	 	 	 	 	 	 	1581526168	8.81	16.32
12/02/2020 16:49:29	120220	12022020	164929	92.55	12.418813	-56.969315	92.62	1.260	-3.550	0.940	92.55	-4.90	1.30	 	 	 	 	 	 	 	 	 	 	 	 	 	 	 	 	 	 	1581526169	10.83	20.06
12/02/2020 16:49:30	120220	12022020	164930	92.31	12.418815	-56.969265	92.41	2.190	-3.590	1.150	92.31	-4.80	1.60	 	 	 	 	 	 	 	 	 	 	 	 	 	 	 	 	 	 	1581526170	10.66	19.74
12/02/2020 16:49:31	120220	12022020	164931	92.43	12.418817	-56.969232	92.58	1.200	-0.430	1.450	92.43	-1.60	1.90	 	 	 	 	 	 	 	 	 	 	 	 	 	 	 	 	 	 	1581526171	7.01	12.98
12/02/2020 16:49:32	120220	12022020	164932	92.99	12.418817	-56.969212	93.15	-0.930	2.970	1.720	92.99	1.70	2.10	 	 	 	 	 	 	 	 	 	 	 	 	 	 	 	 	 	 	1581526172	4.41	8.17
12/02/2020 16:49:33	120220	12022020	164933	93.68	12.418812	-56.969187	93.83	-2.310	3.560	1.650	93.68	2.20	2.00	 	 	 	 	 	 	 	 	 	 	 	 	 	 	 	 	 	 	1581526173	5.25	9.72
12/02/2020 16:49:34	120220	12022020	164934	94.13	12.418807	-56.969147	94.21	-1.700	0.870	1.150	94.13	-0.50	1.50	 	 	 	 	 	 	 	 	 	 	 	 	 	 	 	 	 	 	1581526174	8.60	15.93
12/02/2020 16:49:35	120220	12022020	164935	94.05	12.418803	-56.969093	94.10	0.160	-2.360	0.880	94.05	-3.70	1.30	 	 	 	 	 	 	 	 	 	 	 	 	 	 	 	 	 	 	1581526175	11.19	20.72
12/02/2020 16:49:36	120220	12022020	164936	93.77	12.418802	-56.969043	93.82	1.420	-2.990	0.670	93.77	-4.20	1.10	 	 	 	 	 	 	 	 	 	 	 	 	 	 	 	 	 	 	1581526176	10.42	19.30
12/02/2020 16:49:37	120220	12022020	164937	93.78	12.418805	-56.969010	93.86	1.120	-0.900	0.340	93.78	-2.10	0.70	 	 	 	 	 	 	 	 	 	 	 	 	 	 	 	 	 	 	1581526177	7.21	13.35
12/02/2020 16:49:38	120220	12022020	164938	94.08	12.418808	-56.968985	94.16	-0.050	1.340	0.170	94.08	0.10	0.60	 	 	 	 	 	 	 	 	 	 	 	 	 	 	 	 	 	 	1581526178	5.19	9.61
12/02/2020 16:49:39	120220	12022020	164939	94.37	12.418807	-56.968957	94.43	-0.680	1.490	0.350	94.37	0.10	0.80	 	 	 	 	 	 	 	 	 	 	 	 	 	 	 	 	 	 	1581526179	6.12	11.33
12/02/2020 16:49:40	120220	12022020	164940	94.31	12.418802	-56.968917	94.34	-0.270	-0.030	0.710	94.31	-1.40	1.10	 	 	 	 	 	 	 	 	 	 	 	 	 	 	 	 	 	 	1581526180	8.63	15.98
12/02/2020 16:49:41	120220	12022020	164941	93.86	12.418795	-56.968872	93.89	0.460	-1.210	1.050	93.86	-2.50	1.40	 	 	 	 	 	 	 	 	 	 	 	 	 	 	 	 	 	 	1581526181	9.67	17.91
12/02/2020 16:49:42	120220	12022020	164942	93.36	12.418792	-56.968832	93.42	0.590	-0.900	1.280	93.36	-2.20	1.70	 	 	 	 	 	 	 	 	 	 	 	 	 	 	 	 	 	 	1581526182	8.48	15.70
12/02/2020 16:49:43	120220	12022020	164943	93.09	12.418790	-56.968798	93.15	0.030	0.170	1.180	93.09	-1.10	1.60	 	 	 	 	 	 	 	 	 	 	 	 	 	 	 	 	 	 	1581526183	6.83	12.65
12/02/2020 16:49:44	120220	12022020	164944	92.97	12.418793	-56.968767	93.01	-0.520	0.560	0.820	92.97	-0.80	1.20	 	 	 	 	 	 	 	 	 	 	 	 	 	 	 	 	 	 	1581526184	6.63	12.28
12/02/2020 16:49:45	120220	12022020	164945	92.83	12.418793	-56.968730	92.84	-0.460	-0.220	0.620	92.83	-1.60	1.00	 	 	 	 	 	 	 	 	 	 	 	 	 	 	 	 	 	 	1581526185	7.84	14.52
12/02/2020 16:49:46	120220	12022020	164946	92.60	12.418792	-56.968688	92.62	0.140	-1.370	0.810	92.60	-2.70	1.20	 	 	 	 	 	 	 	 	 	 	 	 	 	 	 	 	 	 	1581526186	9.05	16.76
12/02/2020 16:49:47	120220	12022020	164947	92.43	12.418787	-56.968645	92.49	0.580	-1.420	1.160	92.43	-2.70	1.50	 	 	 	 	 	 	 	 	 	 	 	 	 	 	 	 	 	 	1581526187	9.10	16.85
12/02/2020 16:49:48	120220	12022020	164948	92.34	12.418782	-56.968610	92.40	0.320	0.050	1.250	92.34	-1.20	1.60	 	 	 	 	 	 	 	 	 	 	 	 	 	 	 	 	 	 	1581526188	7.44	13.78
12/02/2020 16:49:49	120220	12022020	164949	92.08	12.418782	-56.968582	92.10	-0.350	1.530	1.110	92.08	0.20	1.50	 	 	 	 	 	 	 	 	 	 	 	 	 	 	 	 	 	 	1581526189	6.01	11.13
12/02/2020 16:49:50	120220	12022020	164950	91.60	12.418782	-56.968550	91.61	-0.550	1.240	1.090	91.60	-0.10	1.50	 	 	 	 	 	 	 	 	 	 	 	 	 	 	 	 	 	 	1581526190	6.71	12.43
12/02/2020 16:49:51	120220	12022020	164951	91.30	12.418782	-56.968508	91.35	0.030	-0.490	0.990	91.30	-1.90	1.40	 	 	 	 	 	 	 	 	 	 	 	 	 	 	 	 	 	 	1581526191	8.83	16.35
12/02/2020 16:49:52	120220	12022020	164952	91.32	12.418783	-56.968463	91.38	0.670	-1.620	0.640	91.32	-2.90	1.00	 	 	 	 	 	 	 	 	 	 	 	 	 	 	 	 	 	 	1581526192	9.62	17.82
12/02/2020 16:49:53	120220	12022020	164953	91.29	12.418787	-56.968423	91.33	0.700	-1.150	0.450	91.29	-2.40	0.90	 	 	 	 	 	 	 	 	 	 	 	 	 	 	 	 	 	 	1581526193	8.26	15.30
12/02/2020 16:49:54	120220	12022020	164954	90.97	12.418788	-56.968392	91.01	0.190	0.040	0.950	90.97	-1.20	1.40	 	 	 	 	 	 	 	 	 	 	 	 	 	 	 	 	 	 	1581526194	6.67	12.35
12/02/2020 16:49:55	120220	12022020	164955	90.59	12.418787	-56.968360	90.65	-0.290	0.440	1.720	90.59	-0.90	2.10	 	 	 	 	 	 	 	 	 	 	 	 	 	 	 	 	 	 	1581526195	6.65	12.32
12/02/2020 16:49:56	120220	12022020	164956	90.52	12.418783	-56.968323	90.62	-0.350	-0.210	2.010	90.52	-1.60	2.40	 	 	 	 	 	 	 	 	 	 	 	 	 	 	 	 	 	 	1581526196	8.00	14.82
12/02/2020 16:49:57	120220	12022020	164957	90.75	12.418782	-56.968282	90.92	-0.090	-0.840	1.790	90.81	-2.20	2.20	 	 	 	 	 	 	 	 	 	 	 	 	 	 	 	 	 	 	1581526197	8.86	16.41
12/02/2020 16:49:58	120220	12022020	164958	91.08	12.418780	-56.968242	91.19	0.160	-0.480	1.500	91.08	-1.80	1.90	 	 	 	 	 	 	 	 	 	 	 	 	 	 	 	 	 	 	1581526198	8.25	15.28
12/02/2020 16:49:59	120220	12022020	164959	91.09	12.418782	-56.968208	91.16	0.190	0.280	1.350	91.09	-1.00	1.70	 	 	 	 	 	 	 	 	 	 	 	 	 	 	 	 	 	 	1581526199	7.19	13.32
12/02/2020 16:50:00	120220	12022020	165000	90.88	12.418783	-56.968173	90.95	0.090	0.370	1.260	90.88	-1.00	1.70	 	 	 	 	 	 	 	 	 	 	 	 	 	 	 	 	 	 	1581526200	7.29	13.50
12/02/2020 16:50:01	120220	12022020	165001	90.80	12.418785	-56.968135	90.88	-0.050	-0.040	1.080	90.80	-1.40	1.50	 	 	 	 	 	 	 	 	 	 	 	 	 	 	 	 	 	 	1581526201	8.09	14.98
12/02/2020 16:50:02	120220	12022020	165002	90.84	12.418788	-56.968097	90.91	-0.160	-0.240	0.820	90.84	-1.60	1.20	1016.00	26.70	26.80	19.90	20.00	910.0	66.0	66.0	404.0	29.0	354.00	14.90	84.00	10.80	67797	20000.0	27.4	27.4	1581526202	8.19	15.17
12/02/2020 16:50:03	120220	12022020	165003	90.86	12.418793	-56.968060	90.92	-0.120	-0.320	0.570	90.86	-1.60	1.00	 	 	 	 	 	 	 	 	 	 	 	 	 	 	 	 	 	 	1581526203	7.87	14.58
12/02/2020 16:50:04	120220	12022020	165004	91.10	12.418797	-56.968022	91.19	0.120	-0.640	0.490	91.10	-2.00	0.90	 	 	 	 	 	 	 	 	 	 	 	 	 	 	 	 	 	 	1581526204	8.00	14.82
12/02/2020 16:50:05	120220	12022020	165005	91.52	12.418797	-56.967982	91.60	0.400	-1.100	0.690	91.52	-2.40	1.10	 	 	 	 	 	 	 	 	 	 	 	 	 	 	 	 	 	 	1581526205	8.45	15.65
12/02/2020 16:50:06	120220	12022020	165006	91.60	12.418793	-56.967942	91.65	0.390	-0.970	1.010	91.60	-2.30	1.40	 	 	 	 	 	 	 	 	 	 	 	 	 	 	 	 	 	 	1581526206	8.53	15.80
12/02/2020 16:50:07	120220	12022020	165007	91.19	12.418792	-56.967905	91.22	0.040	-0.030	1.340	91.19	-1.30	1.80	 	 	 	 	 	 	 	 	 	 	 	 	 	 	 	 	 	 	1581526207	7.68	14.22
12/02/2020 16:50:08	120220	12022020	165008	90.64	12.418792	-56.967873	90.70	-0.350	0.830	1.370	90.64	-0.50	1.80	 	 	 	 	 	 	 	 	 	 	 	 	 	 	 	 	 	 	1581526208	7.01	12.98
12/02/2020 16:50:09	120220	12022020	165009	90.54	12.418795	-56.967837	90.66	-0.430	0.670	0.750	90.57	-0.60	1.10	 	 	 	 	 	 	 	 	 	 	 	 	 	 	 	 	 	 	1581526209	7.63	14.13
12/02/2020 16:50:10	120220	12022020	165010	90.93	12.418802	-56.967797	91.00	-0.250	-0.160	-0.090	90.93	-1.50	0.30	 	 	 	 	 	 	 	 	 	 	 	 	 	 	 	 	 	 	1581526210	8.76	16.22
12/02/2020 16:50:11	120220	12022020	165011	91.27	12.418807	-56.967753	91.31	-0.030	-0.680	-0.540	91.27	-2.00	-0.10	 	 	 	 	 	 	 	 	 	 	 	 	 	 	 	 	 	 	1581526211	8.91	16.50
12/02/2020 16:50:12	120220	12022020	165012	91.35	12.418807	-56.967715	91.37	0.090	-0.540	-0.200	91.35	-1.80	0.20	 	 	 	 	 	 	 	 	 	 	 	 	 	 	 	 	 	 	1581526212	8.16	15.11
12/02/2020 16:50:13	120220	12022020	165013	91.28	12.418805	-56.967680	91.30	0.100	-0.160	0.410	91.28	-1.50	0.80	 	 	 	 	 	 	 	 	 	 	 	 	 	 	 	 	 	 	1581526213	7.60	14.08
12/02/2020 16:50:14	120220	12022020	165014	91.20	12.418803	-56.967643	91.23	0.060	-0.070	0.630	91.20	-1.40	1.00	 	 	 	 	 	 	 	 	 	 	 	 	 	 	 	 	 	 	1581526214	7.59	14.06
12/02/2020 16:50:15	120220	12022020	165015	91.09	12.418805	-56.967605	91.12	0.090	-0.480	0.680	91.09	-1.80	1.10	 	 	 	 	 	 	 	 	 	 	 	 	 	 	 	 	 	 	1581526215	8.12	15.04
12/02/2020 16:50:16	120220	12022020	165016	90.83	12.418807	-56.967563	90.86	0.250	-0.990	0.990	90.83	-2.30	1.40	 	 	 	 	 	 	 	 	 	 	 	 	 	 	 	 	 	 	1581526216	8.74	16.19
12/02/2020 16:50:17	120220	12022020	165017	90.68	12.418808	-56.967523	90.75	0.270	-0.790	1.200	90.68	-2.10	1.60	 	 	 	 	 	 	 	 	 	 	 	 	 	 	 	 	 	 	1581526217	8.67	16.06
12/02/2020 16:50:18	120220	12022020	165018	90.87	12.418808	-56.967487	90.96	-0.040	0.020	1.230	90.87	-1.30	1.60	 	 	 	 	 	 	 	 	 	 	 	 	 	 	 	 	 	 	1581526218	7.76	14.37
12/02/2020 16:50:19	120220	12022020	165019	91.15	12.418810	-56.967452	91.24	-0.420	0.510	1.340	91.15	-0.80	1.70	 	 	 	 	 	 	 	 	 	 	 	 	 	 	 	 	 	 	1581526219	7.40	13.70
12/02/2020 16:50:20	120220	12022020	165020	91.18	12.418808	-56.967413	91.26	-0.430	0.220	1.460	91.18	-1.10	1.90	 	 	 	 	 	 	 	 	 	 	 	 	 	 	 	 	 	 	1581526220	8.04	14.89
12/02/2020 16:50:21	120220	12022020	165021	91.19	12.418808	-56.967372	91.28	-0.070	-0.400	1.260	91.19	-1.70	1.70	 	 	 	 	 	 	 	 	 	 	 	 	 	 	 	 	 	 	1581526221	8.86	16.41
12/02/2020 16:50:22	120220	12022020	165022	91.37	12.418812	-56.967330	91.47	0.190	-0.620	1.090	91.37	-1.90	1.50	 	 	 	 	 	 	 	 	 	 	 	 	 	 	 	 	 	 	1581526222	8.91	16.50
12/02/2020 16:50:23	120220	12022020	165023	91.60	12.418812	-56.967290	91.67	-0.000	-0.260	1.080	91.60	-1.60	1.50	 	 	 	 	 	 	 	 	 	 	 	 	 	 	 	 	 	 	1581526223	8.22	15.22
12/02/2020 16:50:24	120220	12022020	165024	91.70	12.418813	-56.967255	91.73	-0.400	0.160	1.010	91.70	-1.20	1.40	 	 	 	 	 	 	 	 	 	 	 	 	 	 	 	 	 	 	1581526224	7.62	14.11
12/02/2020 16:50:25	120220	12022020	165025	91.76	12.418813	-56.967217	91.81	-0.450	0.010	0.890	91.76	-1.30	1.30	 	 	 	 	 	 	 	 	 	 	 	 	 	 	 	 	 	 	1581526225	7.87	14.58
12/02/2020 16:50:26	120220	12022020	165026	91.96	12.418813	-56.967177	92.00	0.020	-0.600	0.690	91.96	-1.90	1.10	 	 	 	 	 	 	 	 	 	 	 	 	 	 	 	 	 	 	1581526226	8.64	16.00
12/02/2020 16:50:27	120220	12022020	165027	92.13	12.418815	-56.967133	92.15	0.540	-0.980	0.400	92.13	-2.30	0.80	 	 	 	 	 	 	 	 	 	 	 	 	 	 	 	 	 	 	1581526227	9.05	16.76
12/02/2020 16:50:28	120220	12022020	165028	92.16	12.418818	-56.967093	92.20	0.510	-0.530	0.260	92.16	-1.80	0.70	 	 	 	 	 	 	 	 	 	 	 	 	 	 	 	 	 	 	1581526228	8.58	15.89
12/02/2020 16:50:29	120220	12022020	165029	92.20	12.418820	-56.967057	92.24	-0.050	0.370	0.440	92.20	-0.90	0.90	 	 	 	 	 	 	 	 	 	 	 	 	 	 	 	 	 	 	1581526229	7.54	13.96
12/02/2020 16:50:30	120220	12022020	165030	92.24	12.418820	-56.967023	92.27	-0.450	0.670	0.720	92.24	-0.70	1.10	 	 	 	 	 	 	 	 	 	 	 	 	 	 	 	 	 	 	1581526230	7.31	13.54
12/02/2020 16:50:31	120220	12022020	165031	92.22	12.418818	-56.966983	92.25	-0.170	-0.190	0.870	92.22	-1.50	1.30	 	 	 	 	 	 	 	 	 	 	 	 	 	 	 	 	 	 	1581526231	8.45	15.65
12/02/2020 16:50:32	120220	12022020	165032	92.24	12.418820	-56.966937	92.28	0.350	-1.220	0.870	92.24	-2.50	1.30	 	 	 	 	 	 	 	 	 	 	 	 	 	 	 	 	 	 	1581526232	9.58	17.74
12/02/2020 16:50:33	120220	12022020	165033	92.32	12.418820	-56.966893	92.39	0.440	-1.270	0.910	92.32	-2.50	1.30	 	 	 	 	 	 	 	 	 	 	 	 	 	 	 	 	 	 	1581526233	9.27	17.17
12/02/2020 16:50:34	120220	12022020	165034	92.43	12.418820	-56.966857	92.52	-0.080	-0.220	1.110	92.43	-1.50	1.50	 	 	 	 	 	 	 	 	 	 	 	 	 	 	 	 	 	 	1581526234	7.99	14.80
12/02/2020 16:50:35	120220	12022020	165035	92.62	12.418818	-56.966823	92.69	-0.790	1.050	1.220	92.62	-0.20	1.60	 	 	 	 	 	 	 	 	 	 	 	 	 	 	 	 	 	 	1581526235	6.93	12.83
12/02/2020 16:50:36	120220	12022020	165036	92.86	12.418817	-56.966790	92.92	-1.060	1.140	1.040	92.86	-0.20	1.40	 	 	 	 	 	 	 	 	 	 	 	 	 	 	 	 	 	 	1581526236	7.18	13.30
12/02/2020 16:50:37	120220	12022020	165037	92.99	12.418815	-56.966748	93.01	-0.630	-0.130	0.840	92.99	-1.50	1.20	 	 	 	 	 	 	 	 	 	 	 	 	 	 	 	 	 	 	1581526237	8.73	16.17
12/02/2020 16:50:38	120220	12022020	165038	92.88	12.418813	-56.966702	92.89	0.190	-1.470	0.690	92.88	-2.80	1.10	 	 	 	 	 	 	 	 	 	 	 	 	 	 	 	 	 	 	1581526238	9.80	18.15
12/02/2020 16:50:39	120220	12022020	165039	92.60	12.418813	-56.966657	92.61	0.910	-1.770	0.590	92.60	-3.10	1.00	 	 	 	 	 	 	 	 	 	 	 	 	 	 	 	 	 	 	1581526239	9.43	17.46
12/02/2020 16:50:40	120220	12022020	165040	92.40	12.418815	-56.966617	92.44	1.110	-0.890	0.460	92.40	-2.20	0.90	 	 	 	 	 	 	 	 	 	 	 	 	 	 	 	 	 	 	1581526240	8.43	15.61
12/02/2020 16:50:41	120220	12022020	165041	92.60	12.418818	-56.966582	92.66	0.620	0.580	0.150	92.60	-0.70	0.50	 	 	 	 	 	 	 	 	 	 	 	 	 	 	 	 	 	 	1581526241	7.47	13.83
12/02/2020 16:50:42	120220	12022020	165042	93.06	12.418822	-56.966548	93.10	-0.310	1.580	-0.040	93.06	0.30	0.40	 	 	 	 	 	 	 	 	 	 	 	 	 	 	 	 	 	 	1581526242	7.03	13.02
12/02/2020 16:50:43	120220	12022020	165043	93.34	12.418823	-56.966513	93.36	-1.070	1.290	0.350	93.34	-0.10	0.80	 	 	 	 	 	 	 	 	 	 	 	 	 	 	 	 	 	 	1581526243	7.49	13.87
12/02/2020 16:50:44	120220	12022020	165044	93.29	12.418817	-56.966472	93.31	-0.940	-0.410	1.030	93.29	-1.80	1.50	 	 	 	 	 	 	 	 	 	 	 	 	 	 	 	 	 	 	1581526244	8.87	16.43
12/02/2020 16:50:45	120220	12022020	165045	93.03	12.418810	-56.966425	93.05	-0.010	-2.220	1.550	93.03	-3.60	2.00	 	 	 	 	 	 	 	 	 	 	 	 	 	 	 	 	 	 	1581526245	10.20	18.89
12/02/2020 16:50:46	120220	12022020	165046	92.65	12.418807	-56.966378	92.70	0.740	-2.410	1.740	92.65	-3.70	2.10	 	 	 	 	 	 	 	 	 	 	 	 	 	 	 	 	 	 	1581526246	9.76	18.08
12/02/2020 16:50:47	120220	12022020	165047	92.36	12.418805	-56.966342	92.43	0.610	-0.850	1.540	92.36	-2.10	1.90	 	 	 	 	 	 	 	 	 	 	 	 	 	 	 	 	 	 	1581526247	7.90	14.63
12/02/2020 16:50:48	120220	12022020	165048	92.24	12.418808	-56.966310	92.30	-0.090	0.960	1.230	92.24	-0.30	1.60	 	 	 	 	 	 	 	 	 	 	 	 	 	 	 	 	 	 	1581526248	6.62	12.26
12/02/2020 16:50:49	120220	12022020	165049	92.40	12.418810	-56.966277	92.46	-0.630	1.470	0.850	92.40	0.10	1.20	 	 	 	 	 	 	 	 	 	 	 	 	 	 	 	 	 	 	1581526249	7.08	13.11
12/02/2020 16:50:50	120220	12022020	165050	92.79	12.418812	-56.966235	92.84	-0.530	0.560	0.310	92.79	-0.80	0.70	 	 	 	 	 	 	 	 	 	 	 	 	 	 	 	 	 	 	1581526250	8.61	15.95
12/02/2020 16:50:51	120220	12022020	165051	92.94	12.418812	-56.966190	92.96	0.090	-0.650	0.130	92.94	-2.00	0.50	 	 	 	 	 	 	 	 	 	 	 	 	 	 	 	 	 	 	1581526251	9.67	17.91
12/02/2020 16:50:52	120220	12022020	165052	92.76	12.418810	-56.966145	92.77	0.640	-1.070	0.400	92.76	-2.40	0.80	 	 	 	 	 	 	 	 	 	 	 	 	 	 	 	 	 	 	1581526252	9.35	17.32
12/02/2020 16:50:53	120220	12022020	165053	92.55	12.418808	-56.966107	92.58	0.650	-0.670	0.730	92.55	-2.00	1.20	 	 	 	 	 	 	 	 	 	 	 	 	 	 	 	 	 	 	1581526253	8.35	15.46
12/02/2020 16:50:54	120220	12022020	165054	92.50	12.418810	-56.966070	92.55	0.160	0.010	0.830	92.50	-1.30	1.20	 	 	 	 	 	 	 	 	 	 	 	 	 	 	 	 	 	 	1581526254	7.72	14.30
12/02/2020 16:50:55	120220	12022020	165055	92.60	12.418810	-56.966033	92.66	-0.460	0.440	0.840	92.60	-0.90	1.30	 	 	 	 	 	 	 	 	 	 	 	 	 	 	 	 	 	 	1581526255	7.65	14.17
12/02/2020 16:50:56	120220	12022020	165056	92.71	12.418810	-56.965995	92.76	-0.720	0.300	0.920	92.71	-1.00	1.30	 	 	 	 	 	 	 	 	 	 	 	 	 	 	 	 	 	 	1581526256	8.00	14.82
12/02/2020 16:50:57	120220	12022020	165057	92.76	12.418807	-56.965955	92.79	-0.430	-0.390	0.980	92.76	-1.70	1.40	 	 	 	 	 	 	 	 	 	 	 	 	 	 	 	 	 	 	1581526257	8.68	16.08
12/02/2020 16:50:58	120220	12022020	165058	92.71	12.418805	-56.965912	92.74	0.150	-1.120	1.170	92.71	-2.40	1.60	 	 	 	 	 	 	 	 	 	 	 	 	 	 	 	 	 	 	1581526258	9.16	16.96
12/02/2020 16:50:59	120220	12022020	165059	92.46	12.418802	-56.965868	92.47	0.640	-1.430	1.280	92.46	-2.70	1.70	 	 	 	 	 	 	 	 	 	 	 	 	 	 	 	 	 	 	1581526259	9.13	16.91
12/02/2020 16:51:00	120220	12022020	165100	92.03	12.418803	-56.965827	92.04	0.750	-1.030	1.220	92.03	-2.30	1.60	 	 	 	 	 	 	 	 	 	 	 	 	 	 	 	 	 	 	1581526260	8.86	16.41
12/02/2020 16:51:01	120220	12022020	165101	91.94	12.418805	-56.965788	91.99	0.360	0.170	1.080	91.94	-1.10	1.50	 	 	 	 	 	 	 	 	 	 	 	 	 	 	 	 	 	 	1581526261	8.16	15.11
12/02/2020 16:51:02	120220	12022020	165102	92.33	12.418807	-56.965753	92.38	-0.270	1.330	0.750	92.33	0.00	1.20	1015.80	26.70	26.70	19.80	19.90	1021.0	66.0	66.0	402.0	29.1	352.00	15.90	81.00	11.70	72782	16853.0	27.4	27.4	1581526262	7.35	13.61
12/02/2020 16:51:03	120220	12022020	165103	92.82	12.418808	-56.965717	92.86	-0.580	1.220	0.470	92.82	-0.10	0.90	 	 	 	 	 	 	 	 	 	 	 	 	 	 	 	 	 	 	1581526263	7.69	14.24
12/02/2020 16:51:04	120220	12022020	165104	92.96	12.418808	-56.965673	92.96	-0.340	-0.090	0.680	92.96	-1.40	1.10	 	 	 	 	 	 	 	 	 	 	 	 	 	 	 	 	 	 	1581526264	9.14	16.93
12/02/2020 16:51:05	120220	12022020	165105	92.69	12.418805	-56.965627	92.70	0.000	-1.270	1.220	92.69	-2.60	1.60	 	 	 	 	 	 	 	 	 	 	 	 	 	 	 	 	 	 	1581526265	9.83	18.21
12/02/2020 16:51:06	120220	12022020	165106	92.34	12.418802	-56.965583	92.37	0.180	-1.500	1.600	92.34	-2.80	2.00	 	 	 	 	 	 	 	 	 	 	 	 	 	 	 	 	 	 	1581526266	9.31	17.24
12/02/2020 16:51:07	120220	12022020	165107	92.16	12.418800	-56.965543	92.22	0.160	-0.820	1.580	92.16	-2.10	2.00	 	 	 	 	 	 	 	 	 	 	 	 	 	 	 	 	 	 	1581526267	8.36	15.48
12/02/2020 16:51:08	120220	12022020	165108	92.21	12.418800	-56.965507	92.28	0.050	0.060	1.230	92.21	-1.20	1.60	 	 	 	 	 	 	 	 	 	 	 	 	 	 	 	 	 	 	1581526268	7.75	14.35
12/02/2020 16:51:09	120220	12022020	165109	92.32	12.418803	-56.965468	92.37	0.050	0.330	0.820	92.32	-1.00	1.20	 	 	 	 	 	 	 	 	 	 	 	 	 	 	 	 	 	 	1581526269	8.00	14.82
12/02/2020 16:51:10	120220	12022020	165110	92.37	12.418805	-56.965427	92.42	0.180	-0.080	0.520	92.37	-1.40	0.90	 	 	 	 	 	 	 	 	 	 	 	 	 	 	 	 	 	 	1581526270	8.90	16.48
12/02/2020 16:51:11	120220	12022020	165111	92.45	12.418807	-56.965383	92.50	0.240	-0.570	0.490	92.45	-1.90	0.90	 	 	 	 	 	 	 	 	 	 	 	 	 	 	 	 	 	 	1581526271	9.41	17.43
12/02/2020 16:51:12	120220	12022020	165112	92.54	12.418805	-56.965340	92.58	0.050	-0.500	0.760	92.54	-1.80	1.20	 	 	 	 	 	 	 	 	 	 	 	 	 	 	 	 	 	 	1581526272	9.13	16.91
12/02/2020 16:51:13	120220	12022020	165113	92.62	12.418802	-56.965300	92.64	-0.310	0.250	0.970	92.62	-1.00	1.40	 	 	 	 	 	 	 	 	 	 	 	 	 	 	 	 	 	 	1581526273	8.21	15.20
12/02/2020 16:51:14	120220	12022020	165114	92.64	12.418800	-56.965265	92.64	-0.530	0.860	1.070	92.64	-0.40	1.50	 	 	 	 	 	 	 	 	 	 	 	 	 	 	 	 	 	 	1581526274	7.50	13.89
12/02/2020 16:51:15	120220	12022020	165115	92.57	12.418798	-56.965227	92.57	-0.290	0.280	1.020	92.57	-1.00	1.40	 	 	 	 	 	 	 	 	 	 	 	 	 	 	 	 	 	 	1581526275	8.13	15.06
12/02/2020 16:51:16	120220	12022020	165116	92.26	12.418800	-56.965182	92.26	0.350	-1.200	0.890	92.26	-2.50	1.30	 	 	 	 	 	 	 	 	 	 	 	 	 	 	 	 	 	 	1581526276	9.60	17.78
12/02/2020 16:51:17	120220	12022020	165117	92.07	12.418802	-56.965133	92.11	0.920	-2.200	0.610	92.07	-3.50	1.00	 	 	 	 	 	 	 	 	 	 	 	 	 	 	 	 	 	 	1581526277	10.30	19.08
12/02/2020 16:51:18	120220	12022020	165118	92.18	12.418805	-56.965088	92.24	0.830	-1.470	0.610	92.18	-2.70	1.00	 	 	 	 	 	 	 	 	 	 	 	 	 	 	 	 	 	 	1581526278	9.41	17.43
12/02/2020 16:51:19	120220	12022020	165119	92.30	12.418805	-56.965053	92.35	-0.070	0.630	0.820	92.30	-0.60	1.20	 	 	 	 	 	 	 	 	 	 	 	 	 	 	 	 	 	 	1581526279	7.38	13.67
12/02/2020 16:51:20	120220	12022020	165120	92.24	12.418803	-56.965023	92.27	-1.210	2.110	1.050	92.24	0.80	1.50	 	 	 	 	 	 	 	 	 	 	 	 	 	 	 	 	 	 	1581526280	6.44	11.93
12/02/2020 16:51:21	120220	12022020	165121	92.06	12.418798	-56.964987	92.09	-1.550	1.390	1.380	92.06	0.00	1.80	 	 	 	 	 	 	 	 	 	 	 	 	 	 	 	 	 	 	1581526281	7.76	14.37
12/02/2020 16:51:22	120220	12022020	165122	91.92	12.418793	-56.964940	91.95	-0.780	-0.540	1.490	91.92	-1.90	1.90	 	 	 	 	 	 	 	 	 	 	 	 	 	 	 	 	 	 	1581526282	10.00	18.52
12/02/2020 16:51:23	120220	12022020	165123	91.91	12.418792	-56.964890	91.96	0.370	-1.670	1.100	91.91	-3.00	1.50	 	 	 	 	 	 	 	 	 	 	 	 	 	 	 	 	 	 	1581526283	10.28	19.04
12/02/2020 16:51:24	120220	12022020	165124	92.02	12.418793	-56.964848	92.07	1.160	-1.650	0.520	92.02	-2.90	0.90	 	 	 	 	 	 	 	 	 	 	 	 	 	 	 	 	 	 	1581526284	9.12	16.89
12/02/2020 16:51:25	120220	12022020	165125	92.04	12.418798	-56.964808	92.08	1.300	-0.930	0.330	92.04	-2.20	0.80	 	 	 	 	 	 	 	 	 	 	 	 	 	 	 	 	 	 	1581526285	8.35	15.46
12/02/2020 16:51:26	120220	12022020	165126	92.00	12.418802	-56.964772	92.03	0.750	0.200	0.620	92.00	-1.10	1.10	 	 	 	 	 	 	 	 	 	 	 	 	 	 	 	 	 	 	1581526286	7.84	14.52
12/02/2020 16:51:27	120220	12022020	165127	92.01	12.418802	-56.964737	92.03	-0.240	1.090	1.040	92.01	-0.20	1.50	 	 	 	 	 	 	 	 	 	 	 	 	 	 	 	 	 	 	1581526287	7.47	13.83
12/02/2020 16:51:28	120220	12022020	165128	91.88	12.418798	-56.964698	91.90	-1.000	0.920	1.490	91.88	-0.40	1.90	 	 	 	 	 	 	 	 	 	 	 	 	 	 	 	 	 	 	1581526288	7.92	14.67
12/02/2020 16:51:29	120220	12022020	165129	91.56	12.418795	-56.964657	91.57	-0.950	-0.250	1.860	91.56	-1.60	2.30	 	 	 	 	 	 	 	 	 	 	 	 	 	 	 	 	 	 	1581526289	9.08	16.82
12/02/2020 16:51:30	120220	12022020	165130	91.21	12.418792	-56.964608	91.24	-0.180	-1.470	1.710	91.21	-2.80	2.10	 	 	 	 	 	 	 	 	 	 	 	 	 	 	 	 	 	 	1581526290	9.88	18.30
12/02/2020 16:51:31	120220	12022020	165131	91.21	12.418795	-56.964563	91.28	0.650	-1.710	1.210	91.21	-3.00	1.60	 	 	 	 	 	 	 	 	 	 	 	 	 	 	 	 	 	 	1581526291	9.70	17.96
12/02/2020 16:51:32	120220	12022020	165132	91.48	12.418798	-56.964523	91.53	0.790	-0.730	0.900	91.48	-2.00	1.30	 	 	 	 	 	 	 	 	 	 	 	 	 	 	 	 	 	 	1581526292	8.61	15.95
12/02/2020 16:51:33	120220	12022020	165133	91.75	12.418800	-56.964487	91.80	0.140	0.460	0.870	91.75	-0.80	1.30	 	 	 	 	 	 	 	 	 	 	 	 	 	 	 	 	 	 	1581526293	7.58	14.04
12/02/2020 16:51:34	120220	12022020	165134	91.97	12.418798	-56.964450	92.01	-0.620	0.830	1.110	91.97	-0.50	1.50	 	 	 	 	 	 	 	 	 	 	 	 	 	 	 	 	 	 	1581526294	7.82	14.48
12/02/2020 16:51:35	120220	12022020	165135	92.01	12.418795	-56.964410	92.04	-0.790	0.570	1.270	92.01	-0.70	1.70	 	 	 	 	 	 	 	 	 	 	 	 	 	 	 	 	 	 	1581526295	8.64	16.00
12/02/2020 16:51:36	120220	12022020	165136	91.91	12.418793	-56.964367	91.93	-0.390	0.140	1.140	91.91	-1.20	1.50	 	 	 	 	 	 	 	 	 	 	 	 	 	 	 	 	 	 	1581526296	8.94	16.56
12/02/2020 16:51:37	120220	12022020	165137	91.83	12.418795	-56.964325	91.84	0.210	-0.420	0.850	91.83	-1.70	1.30	 	 	 	 	 	 	 	 	 	 	 	 	 	 	 	 	 	 	1581526297	9.00	16.67
12/02/2020 16:51:38	120220	12022020	165138	91.81	12.418798	-56.964282	91.82	0.660	-0.970	0.510	91.81	-2.30	0.90	 	 	 	 	 	 	 	 	 	 	 	 	 	 	 	 	 	 	1581526298	9.14	16.93
12/02/2020 16:51:39	120220	12022020	165139	91.79	12.418803	-56.964238	91.78	0.790	-1.250	0.240	91.79	-2.50	0.70	 	 	 	 	 	 	 	 	 	 	 	 	 	 	 	 	 	 	1581526299	9.17	16.98
12/02/2020 16:51:40	120220	12022020	165140	91.69	12.418807	-56.964197	91.69	0.670	-1.160	0.350	91.69	-2.40	0.80	 	 	 	 	 	 	 	 	 	 	 	 	 	 	 	 	 	 	1581526300	9.00	16.67
12/02/2020 16:51:41	120220	12022020	165141	91.56	12.418805	-56.964155	91.58	0.330	-0.640	0.940	91.56	-1.90	1.40	 	 	 	 	 	 	 	 	 	 	 	 	 	 	 	 	 	 	1581526301	8.83	16.35
12/02/2020 16:51:42	120220	12022020	165142	91.52	12.418802	-56.964115	91.56	-0.340	0.460	1.360	91.52	-0.80	1.80	 	 	 	 	 	 	 	 	 	 	 	 	 	 	 	 	 	 	1581526302	8.35	15.46
12/02/2020 16:51:43	120220	12022020	165143	91.63	12.418800	-56.964078	91.67	-1.020	1.400	1.380	91.63	0.10	1.80	 	 	 	 	 	 	 	 	 	 	 	 	 	 	 	 	 	 	1581526303	7.65	14.17
12/02/2020 16:51:44	120220	12022020	165144	91.79	12.418798	-56.964040	91.83	-1.090	1.040	1.250	91.79	-0.30	1.70	 	 	 	 	 	 	 	 	 	 	 	 	 	 	 	 	 	 	1581526304	8.05	14.91
12/02/2020 16:51:45	120220	12022020	165145	91.96	12.418797	-56.963995	91.99	-0.300	-0.600	0.930	91.96	-1.90	1.30	 	 	 	 	 	 	 	 	 	 	 	 	 	 	 	 	 	 	1581526305	9.60	17.78
12/02/2020 16:51:46	120220	12022020	165146	91.99	12.418798	-56.963945	92.00	0.740	-2.000	0.640	91.99	-3.30	1.10	 	 	 	 	 	 	 	 	 	 	 	 	 	 	 	 	 	 	1581526306	10.62	19.67
12/02/2020 16:51:47	120220	12022020	165147	91.84	12.418802	-56.963898	91.84	1.050	-1.630	0.640	91.84	-2.80	1.10	 	 	 	 	 	 	 	 	 	 	 	 	 	 	 	 	 	 	1581526307	9.82	18.19
12/02/2020 16:51:48	120220	12022020	165148	91.81	12.418803	-56.963862	91.84	0.280	0.260	0.910	91.81	-1.00	1.30	 	 	 	 	 	 	 	 	 	 	 	 	 	 	 	 	 	 	1581526308	7.67	14.20
12/02/2020 16:51:49	120220	12022020	165149	92.15	12.418803	-56.963832	92.23	-0.800	1.690	1.100	92.15	0.40	1.50	 	 	 	 	 	 	 	 	 	 	 	 	 	 	 	 	 	 	1581526309	6.54	12.11
12/02/2020 16:51:50	120220	12022020	165150	92.73	12.418802	-56.963795	92.79	-1.050	1.150	0.950	92.73	-0.20	1.40	 	 	 	 	 	 	 	 	 	 	 	 	 	 	 	 	 	 	1581526310	7.63	14.13
12/02/2020 16:51:51	120220	12022020	165151	92.87	12.418802	-56.963748	92.87	-0.140	-0.970	0.960	92.87	-2.30	1.40	 	 	 	 	 	 	 	 	 	 	 	 	 	 	 	 	 	 	1581526311	9.91	18.35
12/02/2020 16:51:52	120220	12022020	165152	92.25	12.418798	-56.963697	92.26	0.950	-2.460	1.520	92.25	-3.80	1.90	 	 	 	 	 	 	 	 	 	 	 	 	 	 	 	 	 	 	1581526312	11.02	20.41
12/02/2020 16:51:53	120220	12022020	165153	91.63	12.418795	-56.963652	91.68	1.160	-1.780	1.870	91.63	-3.00	2.30	 	 	 	 	 	 	 	 	 	 	 	 	 	 	 	 	 	 	1581526313	9.63	17.83
12/02/2020 16:51:54	120220	12022020	165154	91.54	12.418797	-56.963617	91.63	0.390	0.380	1.500	91.54	-0.90	1.90	 	 	 	 	 	 	 	 	 	 	 	 	 	 	 	 	 	 	1581526314	7.35	13.61
12/02/2020 16:51:55	120220	12022020	165155	91.92	12.418802	-56.963585	92.00	-0.620	1.890	0.760	91.92	0.60	1.20	 	 	 	 	 	 	 	 	 	 	 	 	 	 	 	 	 	 	1581526315	6.58	12.19
12/02/2020 16:51:56	120220	12022020	165156	92.32	12.418805	-56.963548	92.36	-1.050	1.430	0.230	92.32	0.10	0.60	 	 	 	 	 	 	 	 	 	 	 	 	 	 	 	 	 	 	1581526316	7.82	14.48
12/02/2020 16:51:57	120220	12022020	165157	92.49	12.418807	-56.963502	92.51	-0.530	-0.540	0.190	92.49	-1.90	0.60	 	 	 	 	 	 	 	 	 	 	 	 	 	 	 	 	 	 	1581526317	9.78	18.11
12/02/2020 16:51:58	120220	12022020	165158	92.57	12.418803	-56.963452	92.61	0.410	-2.040	0.450	92.57	-3.30	0.90	 	 	 	 	 	 	 	 	 	 	 	 	 	 	 	 	 	 	1581526318	10.77	19.95
12/02/2020 16:51:59	120220	12022020	165159	92.53	12.418800	-56.963407	92.56	0.750	-1.500	0.720	92.53	-2.70	1.10	 	 	 	 	 	 	 	 	 	 	 	 	 	 	 	 	 	 	1581526319	9.44	17.48
12/02/2020 16:52:00	120220	12022020	165200	92.33	12.418798	-56.963373	92.34	0.180	0.380	0.850	92.33	-0.90	1.30	 	 	 	 	 	 	 	 	 	 	 	 	 	 	 	 	 	 	1581526320	7.17	13.28
12/02/2020 16:52:01	120220	12022020	165201	92.05	12.418800	-56.963343	92.04	-0.660	1.560	0.700	92.05	0.30	1.10	 	 	 	 	 	 	 	 	 	 	 	 	 	 	 	 	 	 	1581526321	6.45	11.95
12/02/2020 16:52:02	120220	12022020	165202	91.87	12.418802	-56.963305	91.86	-0.820	0.790	0.330	91.87	-0.60	0.70	1015.80	26.70	26.70	19.90	20.00	991.0	66.0	66.0	401.0	29.1	353.00	16.00	82.00	11.60	71308	15993.0	27.4	27.4	1581526322	7.90	14.63
12/02/2020 16:52:03	120220	12022020	165203	91.87	12.418805	-56.963258	91.87	-0.070	-1.170	0.090	91.90	-2.50	0.50	 	 	 	 	 	 	 	 	 	 	 	 	 	 	 	 	 	 	1581526323	9.92	18.37
12/02/2020 16:52:04	120220	12022020	165204	91.96	12.418805	-56.963208	91.95	0.870	-2.410	0.170	91.96	-3.70	0.60	 	 	 	 	 	 	 	 	 	 	 	 	 	 	 	 	 	 	1581526324	10.65	19.72
12/02/2020 16:52:05	120220	12022020	165205	91.81	12.418805	-56.963165	91.83	1.010	-1.540	0.550	91.81	-2.80	1.00	 	 	 	 	 	 	 	 	 	 	 	 	 	 	 	 	 	 	1581526325	9.24	17.11
12/02/2020 16:52:06	120220	12022020	165206	91.62	12.418803	-56.963132	91.65	0.200	0.640	1.050	91.62	-0.60	1.50	 	 	 	 	 	 	 	 	 	 	 	 	 	 	 	 	 	 	1581526326	7.01	12.98
12/02/2020 16:52:07	120220	12022020	165207	91.53	12.418800	-56.963102	91.57	-0.760	1.980	1.400	91.53	0.70	1.80	 	 	 	 	 	 	 	 	 	 	 	 	 	 	 	 	 	 	1581526327	6.33	11.72
12/02/2020 16:52:08	120220	12022020	165208	91.53	12.418800	-56.963065	91.58	-1.060	1.440	1.380	91.53	0.10	1.80	 	 	 	 	 	 	 	 	 	 	 	 	 	 	 	 	 	 	1581526328	7.71	14.28
12/02/2020 16:52:09	120220	12022020	165209	91.77	12.418802	-56.963020	91.82	-0.580	-0.270	0.960	91.77	-1.60	1.40	 	 	 	 	 	 	 	 	 	 	 	 	 	 	 	 	 	 	1581526329	9.44	17.48
12/02/2020 16:52:10	120220	12022020	165210	92.01	12.418802	-56.962973	92.04	0.300	-1.780	0.840	92.01	-3.10	1.30	 	 	 	 	 	 	 	 	 	 	 	 	 	 	 	 	 	 	1581526330	10.07	18.65
12/02/2020 16:52:11	120220	12022020	165211	91.83	12.418802	-56.962927	91.85	0.980	-2.230	1.100	91.83	-3.50	1.50	 	 	 	 	 	 	 	 	 	 	 	 	 	 	 	 	 	 	1581526331	9.62	17.82
12/02/2020 16:52:12	120220	12022020	165212	91.59	12.418802	-56.962887	91.64	1.000	-1.260	1.110	91.59	-2.50	1.50	 	 	 	 	 	 	 	 	 	 	 	 	 	 	 	 	 	 	1581526332	8.54	15.82
12/02/2020 16:52:13	120220	12022020	165213	91.72	12.418805	-56.962853	91.78	0.380	0.590	0.880	91.72	-0.60	1.30	 	 	 	 	 	 	 	 	 	 	 	 	 	 	 	 	 	 	1581526333	7.23	13.39
12/02/2020 16:52:14	120220	12022020	165214	92.13	12.418808	-56.962822	92.18	-0.470	1.840	0.610	92.13	0.60	1.00	 	 	 	 	 	 	 	 	 	 	 	 	 	 	 	 	 	 	1581526334	6.72	12.45
12/02/2020 16:52:15	120220	12022020	165215	92.45	12.418810	-56.962785	92.54	-0.930	1.350	0.360	92.50	0.00	0.80	 	 	 	 	 	 	 	 	 	 	 	 	 	 	 	 	 	 	1581526335	7.69	14.24
12/02/2020 16:52:16	120220	12022020	165216	92.63	12.418810	-56.962740	92.64	-0.750	-0.300	0.430	92.63	-1.60	0.90	 	 	 	 	 	 	 	 	 	 	 	 	 	 	 	 	 	 	1581526336	9.39	17.39
12/02/2020 16:52:17	120220	12022020	165217	92.54	12.418808	-56.962693	92.56	-0.190	-1.540	0.800	92.54	-2.80	1.20	 	 	 	 	 	 	 	 	 	 	 	 	 	 	 	 	 	 	1581526337	9.90	18.33
12/02/2020 16:52:18	120220	12022020	165218	92.42	12.418805	-56.962652	92.45	0.340	-1.660	0.910	92.42	-2.90	1.30	 	 	 	 	 	 	 	 	 	 	 	 	 	 	 	 	 	 	1581526338	9.07	16.80
12/02/2020 16:52:19	120220	12022020	165219	92.29	12.418805	-56.962612	92.32	0.650	-1.180	0.760	92.29	-2.40	1.20	 	 	 	 	 	 	 	 	 	 	 	 	 	 	 	 	 	 	1581526339	8.27	15.32
12/02/2020 16:52:20	120220	12022020	165220	92.25	12.418807	-56.962573	92.28	0.710	-0.590	0.560	92.25	-1.80	1.00	 	 	 	 	 	 	 	 	 	 	 	 	 	 	 	 	 	 	1581526340	8.22	15.22
12/02/2020 16:52:21	120220	12022020	165221	92.27	12.418808	-56.962533	92.28	0.440	0.230	0.380	92.27	-1.00	0.80	 	 	 	 	 	 	 	 	 	 	 	 	 	 	 	 	 	 	1581526341	8.25	15.28
12/02/2020 16:52:22	120220	12022020	165222	92.27	12.418810	-56.962497	92.26	-0.120	1.170	0.290	92.27	-0.10	0.70	 	 	 	 	 	 	 	 	 	 	 	 	 	 	 	 	 	 	1581526342	7.84	14.52
12/02/2020 16:52:23	120220	12022020	165223	92.37	12.418812	-56.962462	92.38	-0.700	1.460	0.180	92.37	0.20	0.60	 	 	 	 	 	 	 	 	 	 	 	 	 	 	 	 	 	 	1581526343	7.63	14.13
12/02/2020 16:52:24	120220	12022020	165224	92.56	12.418813	-56.962422	92.55	-0.770	0.370	0.230	92.56	-1.00	0.70	 	 	 	 	 	 	 	 	 	 	 	 	 	 	 	 	 	 	1581526344	8.42	15.59
12/02/2020 16:52:25	120220	12022020	165225	92.66	12.418812	-56.962375	92.66	-0.100	-1.570	0.480	92.68	-2.90	0.90	 	 	 	 	 	 	 	 	 	 	 	 	 	 	 	 	 	 	1581526345	9.88	18.30
12/02/2020 16:52:26	120220	12022020	165226	92.65	12.418808	-56.962325	92.66	0.800	-2.600	0.730	92.65	-3.80	1.20	 	 	 	 	 	 	 	 	 	 	 	 	 	 	 	 	 	 	1581526346	10.36	19.19
12/02/2020 16:52:27	120220	12022020	165227	92.52	12.418807	-56.962283	92.50	1.020	-1.480	1.100	92.48	-2.70	1.50	 	 	 	 	 	 	 	 	 	 	 	 	 	 	 	 	 	 	1581526347	8.96	16.59
12/02/2020 16:52:28	120220	12022020	165228	92.18	12.418807	-56.962250	92.19	0.280	0.780	1.380	92.18	-0.40	1.80	 	 	 	 	 	 	 	 	 	 	 	 	 	 	 	 	 	 	1581526348	6.88	12.74
12/02/2020 16:52:29	120220	12022020	165229	91.95	12.418807	-56.962220	91.97	-0.800	2.080	1.240	91.95	0.80	1.60	 	 	 	 	 	 	 	 	 	 	 	 	 	 	 	 	 	 	1581526349	6.35	11.76
12/02/2020 16:52:30	120220	12022020	165230	91.91	12.418808	-56.962183	91.94	-1.150	1.200	0.730	91.91	-0.10	1.10	 	 	 	 	 	 	 	 	 	 	 	 	 	 	 	 	 	 	1581526350	7.86	14.56
12/02/2020 16:52:31	120220	12022020	165231	92.01	12.418812	-56.962137	92.02	-0.360	-1.070	0.310	92.01	-2.40	0.70	 	 	 	 	 	 	 	 	 	 	 	 	 	 	 	 	 	 	1581526351	10.06	18.63
12/02/2020 16:52:32	120220	12022020	165232	92.09	12.418813	-56.962085	92.08	0.730	-2.490	0.320	92.09	-3.70	0.80	 	 	 	 	 	 	 	 	 	 	 	 	 	 	 	 	 	 	1581526352	10.84	20.08
12/02/2020 16:52:33	120220	12022020	165233	92.07	12.418813	-56.962042	92.09	0.900	-1.490	0.670	92.07	-2.70	1.10	 	 	 	 	 	 	 	 	 	 	 	 	 	 	 	 	 	 	1581526353	9.21	17.06
12/02/2020 16:52:34	120220	12022020	165234	92.14	12.418810	-56.962010	92.18	-0.020	0.870	1.090	92.14	-0.30	1.50	 	 	 	 	 	 	 	 	 	 	 	 	 	 	 	 	 	 	1581526354	6.59	12.20
12/02/2020 16:52:35	120220	12022020	165235	92.30	12.418808	-56.961982	92.34	-1.030	2.160	1.360	92.30	0.90	1.80	 	 	 	 	 	 	 	 	 	 	 	 	 	 	 	 	 	 	1581526355	5.88	10.89
12/02/2020 16:52:36	120220	12022020	165236	92.38	12.418808	-56.961947	92.40	-0.920	0.870	1.270	92.38	-0.50	1.70	 	 	 	 	 	 	 	 	 	 	 	 	 	 	 	 	 	 	1581526356	7.72	14.30
12/02/2020 16:52:37	120220	12022020	165237	92.38	12.418810	-56.961897	92.39	0.340	-1.800	0.860	92.38	-3.10	1.30	 	 	 	 	 	 	 	 	 	 	 	 	 	 	 	 	 	 	1581526357	10.46	19.37
12/02/2020 16:52:38	120220	12022020	165238	92.41	12.418813	-56.961843	92.42	1.450	-2.900	0.660	92.41	-4.10	1.10	 	 	 	 	 	 	 	 	 	 	 	 	 	 	 	 	 	 	1581526358	11.04	20.45
12/02/2020 16:52:39	120220	12022020	165239	92.62	12.418813	-56.961803	92.66	1.290	-1.170	0.590	92.62	-2.30	1.00	 	 	 	 	 	 	 	 	 	 	 	 	 	 	 	 	 	 	1581526359	8.45	15.65
12/02/2020 16:52:40	120220	12022020	165240	93.00	12.418815	-56.961777	93.02	-0.010	1.670	0.340	93.00	0.50	0.80	 	 	 	 	 	 	 	 	 	 	 	 	 	 	 	 	 	 	1581526360	5.76	10.67
12/02/2020 16:52:41	120220	12022020	165241	93.36	12.418818	-56.961752	93.36	-1.280	2.870	0.090	93.36	1.60	0.50	 	 	 	 	 	 	 	 	 	 	 	 	 	 	 	 	 	 	1581526361	5.48	10.15
12/02/2020 16:52:42	120220	12022020	165242	93.44	12.418818	-56.961715	93.43	-1.500	1.420	0.230	93.44	0.10	0.70	 	 	 	 	 	 	 	 	 	 	 	 	 	 	 	 	 	 	1581526362	7.65	14.17
12/02/2020 16:52:43	120220	12022020	165243	93.31	12.418815	-56.961668	93.30	-0.700	-1.310	0.660	93.31	-2.60	1.10	 	 	 	 	 	 	 	 	 	 	 	 	 	 	 	 	 	 	1581526363	10.01	18.54
12/02/2020 16:52:44	120220	12022020	165244	93.04	12.418812	-56.961618	93.04	0.360	-3.090	1.010	93.04	-4.30	1.40	 	 	 	 	 	 	 	 	 	 	 	 	 	 	 	 	 	 	1581526364	10.50	19.45
12/02/2020 16:52:45	120220	12022020	165245	92.65	12.418808	-56.961575	92.69	0.950	-2.770	1.240	92.65	-4.00	1.70	 	 	 	 	 	 	 	 	 	 	 	 	 	 	 	 	 	 	1581526365	9.11	16.87
12/02/2020 16:52:46	120220	12022020	165246	92.41	12.418807	-56.961540	92.46	0.880	-0.870	1.120	92.41	-2.00	1.50	 	 	 	 	 	 	 	 	 	 	 	 	 	 	 	 	 	 	1581526366	7.35	13.61
12/02/2020 16:52:47	120220	12022020	165247	92.57	12.418808	-56.961510	92.62	0.430	1.240	0.480	92.57	0.00	0.90	 	 	 	 	 	 	 	 	 	 	 	 	 	 	 	 	 	 	1581526367	6.46	11.96
12/02/2020 16:52:48	120220	12022020	165248	93.02	12.418813	-56.961478	93.06	-0.100	2.210	-0.120	93.02	1.00	0.30	 	 	 	 	 	 	 	 	 	 	 	 	 	 	 	 	 	 	1581526368	6.76	12.52
12/02/2020 16:52:49	120220	12022020	165249	93.40	12.418817	-56.961442	93.42	-0.400	1.420	-0.170	93.40	0.10	0.30	 	 	 	 	 	 	 	 	 	 	 	 	 	 	 	 	 	 	1581526369	7.94	14.70
12/02/2020 16:52:50	120220	12022020	165250	93.42	12.418817	-56.961397	93.42	-0.300	-0.410	0.150	93.42	-1.70	0.60	 	 	 	 	 	 	 	 	 	 	 	 	 	 	 	 	 	 	1581526370	9.36	17.33
12/02/2020 16:52:51	120220	12022020	165251	93.03	12.418813	-56.961350	93.04	0.010	-1.670	0.860	93.03	-2.90	1.30	 	 	 	 	 	 	 	 	 	 	 	 	 	 	 	 	 	 	1581526371	9.73	18.02
12/02/2020 16:52:52	120220	12022020	165252	92.60	12.418808	-56.961310	92.64	0.150	-1.550	1.570	92.60	-2.80	2.00	 	 	 	 	 	 	 	 	 	 	 	 	 	 	 	 	 	 	1581526372	8.70	16.11
12/02/2020 16:52:53	120220	12022020	165253	92.58	12.418805	-56.961275	92.67	0.090	-0.670	1.630	92.58	-1.90	2.00	 	 	 	 	 	 	 	 	 	 	 	 	 	 	 	 	 	 	1581526373	7.47	13.83
12/02/2020 16:52:54	120220	12022020	165254	92.80	12.418805	-56.961240	92.86	0.160	-0.220	1.230	92.80	-1.50	1.60	 	 	 	 	 	 	 	 	 	 	 	 	 	 	 	 	 	 	1581526374	7.38	13.67
12/02/2020 16:52:55	120220	12022020	165255	92.76	12.418805	-56.961200	92.77	0.420	-0.340	1.000	92.76	-1.60	1.40	 	 	 	 	 	 	 	 	 	 	 	 	 	 	 	 	 	 	1581526375	8.39	15.54
12/02/2020 16:52:56	120220	12022020	165256	92.41	12.418805	-56.961158	92.39	0.450	-0.220	1.090	92.41	-1.40	1.50	 	 	 	 	 	 	 	 	 	 	 	 	 	 	 	 	 	 	1581526376	8.73	16.17
12/02/2020 16:52:57	120220	12022020	165257	92.13	12.418805	-56.961120	92.13	0.090	0.190	1.110	92.13	-1.00	1.50	 	 	 	 	 	 	 	 	 	 	 	 	 	 	 	 	 	 	1581526377	8.19	15.17
12/02/2020 16:52:58	120220	12022020	165258	92.23	12.418807	-56.961082	92.24	-0.350	0.400	0.780	92.23	-0.80	1.20	 	 	 	 	 	 	 	 	 	 	 	 	 	 	 	 	 	 	1581526378	8.01	14.83
12/02/2020 16:52:59	120220	12022020	165259	92.73	12.418808	-56.961043	92.75	-0.710	0.340	0.470	92.73	-0.90	0.90	 	 	 	 	 	 	 	 	 	 	 	 	 	 	 	 	 	 	1581526379	8.23	15.24
12/02/2020 16:53:00	120220	12022020	165300	93.21	12.418807	-56.961005	93.21	-0.850	0.060	0.590	93.21	-1.20	1.00	 	 	 	 	 	 	 	 	 	 	 	 	 	 	 	 	 	 	1581526380	8.25	15.28
12/02/2020 16:53:01	120220	12022020	165301	93.15	12.418802	-56.960965	93.11	-0.470	-0.440	1.110	93.15	-1.70	1.60	 	 	 	 	 	 	 	 	 	 	 	 	 	 	 	 	 	 	1581526381	8.39	15.54
12/02/2020 16:53:02	120220	12022020	165302	92.52	12.418797	-56.960923	92.45	0.460	-1.110	1.560	92.52	-2.40	2.00	1015.80	26.70	26.70	19.80	19.80	973.0	65.0	65.0	400.0	29.1	354.00	15.30	83.00	11.00	70442	10594.0	27.4	27.4	1581526382	8.77	16.24
12/02/2020 16:53:03	120220	12022020	165303	92.09	12.418797	-56.960882	92.03	1.330	-1.430	1.430	92.05	-2.70	1.80	 	 	 	 	 	 	 	 	 	 	 	 	 	 	 	 	 	 	1581526383	9.09	16.83
12/02/2020 16:53:04	120220	12022020	165304	92.23	12.418802	-56.960840	92.27	1.390	-0.870	0.860	92.23	-2.10	1.30	 	 	 	 	 	 	 	 	 	 	 	 	 	 	 	 	 	 	1581526384	8.78	16.26
12/02/2020 16:53:05	120220	12022020	165305	92.76	12.418808	-56.960803	92.77	0.550	0.250	0.250	92.76	-1.00	0.70	 	 	 	 	 	 	 	 	 	 	 	 	 	 	 	 	 	 	1581526385	7.84	14.52
12/02/2020 16:53:06	120220	12022020	165306	93.08	12.418812	-56.960768	93.05	-0.560	0.990	0.340	93.08	-0.30	0.80	 	 	 	 	 	 	 	 	 	 	 	 	 	 	 	 	 	 	1581526386	7.40	13.70
12/02/2020 16:53:07	120220	12022020	165307	93.05	12.418808	-56.960732	93.04	-1.170	0.790	1.050	93.05	-0.50	1.50	 	 	 	 	 	 	 	 	 	 	 	 	 	 	 	 	 	 	1581526387	7.93	14.69
12/02/2020 16:53:08	120220	12022020	165308	92.91	12.418800	-56.960690	92.90	-1.050	-0.100	1.590	92.91	-1.40	2.00	 	 	 	 	 	 	 	 	 	 	 	 	 	 	 	 	 	 	1581526388	8.95	16.58
12/02/2020 16:53:09	120220	12022020	165309	92.86	12.418795	-56.960647	92.88	-0.530	-0.820	1.640	92.86	-2.10	2.10	 	 	 	 	 	 	 	 	 	 	 	 	 	 	 	 	 	 	1581526389	9.29	17.21
12/02/2020 16:53:10	120220	12022020	165310	92.87	12.418792	-56.960605	92.87	-0.010	-0.890	1.270	92.87	-2.20	1.70	 	 	 	 	 	 	 	 	 	 	 	 	 	 	 	 	 	 	1581526390	8.72	16.15
12/02/2020 16:53:11	120220	12022020	165311	92.81	12.418793	-56.960565	92.80	0.360	-0.680	0.710	92.81	-2.00	1.10	 	 	 	 	 	 	 	 	 	 	 	 	 	 	 	 	 	 	1581526391	8.24	15.26
12/02/2020 16:53:12	120220	12022020	165312	92.77	12.418797	-56.960527	92.75	0.570	-0.720	0.370	92.77	-2.00	0.80	 	 	 	 	 	 	 	 	 	 	 	 	 	 	 	 	 	 	1581526392	8.45	15.65
12/02/2020 16:53:13	120220	12022020	165313	92.74	12.418798	-56.960483	92.71	0.610	-0.790	0.290	92.74	-2.10	0.70	 	 	 	 	 	 	 	 	 	 	 	 	 	 	 	 	 	 	1581526393	8.94	16.56
12/02/2020 16:53:14	120220	12022020	165314	92.67	12.418798	-56.960443	92.65	0.330	-0.110	0.340	92.67	-1.40	0.80	 	 	 	 	 	 	 	 	 	 	 	 	 	 	 	 	 	 	1581526394	8.63	15.98
12/02/2020 16:53:15	120220	12022020	165315	92.73	12.418798	-56.960407	92.70	-0.170	1.150	0.420	92.73	-0.10	0.90	 	 	 	 	 	 	 	 	 	 	 	 	 	 	 	 	 	 	1581526395	7.47	13.83
12/02/2020 16:53:16	120220	12022020	165316	92.84	12.418800	-56.960373	92.81	-0.520	1.540	0.570	92.84	0.20	1.00	 	 	 	 	 	 	 	 	 	 	 	 	 	 	 	 	 	 	1581526396	7.05	13.06
12/02/2020 16:53:17	120220	12022020	165317	92.85	12.418798	-56.960333	92.81	-0.400	0.100	0.810	92.83	-1.30	1.30	 	 	 	 	 	 	 	 	 	 	 	 	 	 	 	 	 	 	1581526397	8.48	15.70
12/02/2020 16:53:18	120220	12022020	165318	92.55	12.418795	-56.960285	92.53	-0.020	-1.890	1.410	92.55	-3.20	1.90	 	 	 	 	 	 	 	 	 	 	 	 	 	 	 	 	 	 	1581526398	10.24	18.96
12/02/2020 16:53:19	120220	12022020	165319	92.17	12.418790	-56.960238	92.09	0.270	-2.370	1.920	92.07	-3.60	2.30	 	 	 	 	 	 	 	 	 	 	 	 	 	 	 	 	 	 	1581526399	10.03	18.58
12/02/2020 16:53:20	120220	12022020	165320	91.66	12.418787	-56.960200	91.70	0.350	-1.040	1.990	91.66	-2.30	2.40	 	 	 	 	 	 	 	 	 	 	 	 	 	 	 	 	 	 	1581526400	8.09	14.98
12/02/2020 16:53:21	120220	12022020	165321	91.42	12.418787	-56.960167	91.51	0.260	0.450	1.850	91.42	-0.80	2.30	 	 	 	 	 	 	 	 	 	 	 	 	 	 	 	 	 	 	1581526401	6.99	12.95
12/02/2020 16:53:22	120220	12022020	165322	91.45	12.418790	-56.960132	91.53	-0.070	1.100	1.480	91.45	-0.20	1.90	 	 	 	 	 	 	 	 	 	 	 	 	 	 	 	 	 	 	1581526402	7.49	13.87
12/02/2020 16:53:23	120220	12022020	165323	91.73	12.418792	-56.960093	91.79	-0.530	0.900	0.980	91.73	-0.40	1.40	 	 	 	 	 	 	 	 	 	 	 	 	 	 	 	 	 	 	1581526403	8.18	15.15
12/02/2020 16:53:24	120220	12022020	165324	91.98	12.418792	-56.960052	92.02	-0.630	0.150	0.920	91.98	-1.20	1.40	 	 	 	 	 	 	 	 	 	 	 	 	 	 	 	 	 	 	1581526404	8.72	16.15
12/02/2020 16:53:25	120220	12022020	165325	91.99	12.418790	-56.960010	92.02	-0.230	-0.620	1.080	91.99	-1.90	1.50	 	 	 	 	 	 	 	 	 	 	 	 	 	 	 	 	 	 	1581526405	9.01	16.69
12/02/2020 16:53:26	120220	12022020	165326	91.81	12.418788	-56.959967	91.84	0.310	-1.130	1.200	91.81	-2.40	1.60	 	 	 	 	 	 	 	 	 	 	 	 	 	 	 	 	 	 	1581526406	8.92	16.52
12/02/2020 16:53:27	120220	12022020	165327	91.67	12.418788	-56.959927	91.72	0.560	-1.210	1.380	91.67	-2.50	1.80	 	 	 	 	 	 	 	 	 	 	 	 	 	 	 	 	 	 	1581526407	8.66	16.04
12/02/2020 16:53:28	120220	12022020	165328	91.70	12.418788	-56.959887	91.75	0.480	-0.830	1.300	91.70	-2.10	1.70	 	 	 	 	 	 	 	 	 	 	 	 	 	 	 	 	 	 	1581526408	8.36	15.48
12/02/2020 16:53:29	120220	12022020	165329	91.77	12.418792	-56.959848	91.80	0.180	-0.220	1.040	91.77	-1.50	1.50	 	 	 	 	 	 	 	 	 	 	 	 	 	 	 	 	 	 	1581526409	8.15	15.09
12/02/2020 16:53:30	120220	12022020	165330	91.85	12.418793	-56.959810	91.87	-0.240	0.390	1.040	91.85	-0.90	1.50	 	 	 	 	 	 	 	 	 	 	 	 	 	 	 	 	 	 	1581526410	8.07	14.95
12/02/2020 16:53:31	120220	12022020	165331	91.79	12.418792	-56.959773	91.80	-0.590	0.760	1.340	91.79	-0.50	1.80	 	 	 	 	 	 	 	 	 	 	 	 	 	 	 	 	 	 	1581526411	7.98	14.78
12/02/2020 16:53:32	120220	12022020	165332	91.65	12.418790	-56.959733	91.67	-0.610	0.460	1.560	91.65	-0.80	2.00	 	 	 	 	 	 	 	 	 	 	 	 	 	 	 	 	 	 	1581526412	8.27	15.32
12/02/2020 16:53:33	120220	12022020	165333	91.60	12.418788	-56.959690	91.61	-0.170	-0.550	1.400	91.60	-1.90	1.80	 	 	 	 	 	 	 	 	 	 	 	 	 	 	 	 	 	 	1581526413	9.07	16.80
12/02/2020 16:53:34	120220	12022020	165334	91.69	12.418790	-56.959645	91.71	0.410	-1.360	1.000	91.69	-2.60	1.40	 	 	 	 	 	 	 	 	 	 	 	 	 	 	 	 	 	 	1581526414	9.67	17.91
12/02/2020 16:53:35	120220	12022020	165335	91.82	12.418792	-56.959602	91.85	0.670	-1.160	0.770	91.82	-2.40	1.20	 	 	 	 	 	 	 	 	 	 	 	 	 	 	 	 	 	 	1581526415	9.11	16.87
12/02/2020 16:53:36	120220	12022020	165336	91.82	12.418793	-56.959563	91.82	0.430	-0.240	0.870	91.82	-1.50	1.30	 	 	 	 	 	 	 	 	 	 	 	 	 	 	 	 	 	 	1581526416	8.02	14.85
12/02/2020 16:53:37	120220	12022020	165337	91.65	12.418793	-56.959528	91.64	-0.150	0.590	1.060	91.65	-0.70	1.50	 	 	 	 	 	 	 	 	 	 	 	 	 	 	 	 	 	 	1581526417	7.63	14.13
12/02/2020 16:53:38	120220	12022020	165338	91.56	12.418793	-56.959492	91.56	-0.720	0.890	1.130	91.56	-0.40	1.60	 	 	 	 	 	 	 	 	 	 	 	 	 	 	 	 	 	 	1581526418	7.84	14.52
12/02/2020 16:53:39	120220	12022020	165339	91.51	12.418793	-56.959452	91.52	-0.770	0.360	1.020	91.51	-1.00	1.40	 	 	 	 	 	 	 	 	 	 	 	 	 	 	 	 	 	 	1581526419	8.33	15.43
12/02/2020 16:53:40	120220	12022020	165340	91.45	12.418793	-56.959407	91.46	-0.060	-1.030	0.820	91.45	-2.30	1.20	 	 	 	 	 	 	 	 	 	 	 	 	 	 	 	 	 	 	1581526420	9.35	17.32
12/02/2020 16:53:41	120220	12022020	165341	91.42	12.418795	-56.959358	91.46	0.810	-2.040	0.720	91.43	-3.30	1.10	 	 	 	 	 	 	 	 	 	 	 	 	 	 	 	 	 	 	1581526421	10.21	18.91
12/02/2020 16:53:42	120220	12022020	165342	91.51	12.418797	-56.959315	91.54	0.820	-1.230	0.730	91.51	-2.40	1.20	 	 	 	 	 	 	 	 	 	 	 	 	 	 	 	 	 	 	1581526422	9.29	17.21
12/02/2020 16:53:43	120220	12022020	165343	91.67	12.418797	-56.959282	91.69	-0.210	0.850	0.710	91.67	-0.40	1.10	 	 	 	 	 	 	 	 	 	 	 	 	 	 	 	 	 	 	1581526423	7.13	13.20
12/02/2020 16:53:44	120220	12022020	165344	91.71	12.418797	-56.959252	91.71	-1.340	2.170	0.750	91.71	0.90	1.20	 	 	 	 	 	 	 	 	 	 	 	 	 	 	 	 	 	 	1581526424	6.21	11.50
12/02/2020 16:53:45	120220	12022020	165345	91.54	12.418795	-56.959217	91.54	-1.350	1.160	0.930	91.54	-0.20	1.40	 	 	 	 	 	 	 	 	 	 	 	 	 	 	 	 	 	 	1581526425	7.62	14.11
12/02/2020 16:53:46	120220	12022020	165346	91.35	12.418795	-56.959168	91.35	-0.020	-1.530	0.830	91.35	-2.90	1.20	 	 	 	 	 	 	 	 	 	 	 	 	 	 	 	 	 	 	1581526426	10.25	18.98
12/02/2020 16:53:47	120220	12022020	165347	91.40	12.418798	-56.959113	91.43	1.370	-3.010	0.530	91.40	-4.20	1.00	 	 	 	 	 	 	 	 	 	 	 	 	 	 	 	 	 	 	1581526427	11.28	20.89
12/02/2020 16:53:48	120220	12022020	165348	91.51	12.418800	-56.959072	91.55	1.450	-1.630	0.730	91.51	-2.80	1.20	 	 	 	 	 	 	 	 	 	 	 	 	 	 	 	 	 	 	1581526428	8.98	16.63
12/02/2020 16:53:49	120220	12022020	165349	91.56	12.418800	-56.959042	91.60	0.210	1.110	1.080	91.56	-0.10	1.50	 	 	 	 	 	 	 	 	 	 	 	 	 	 	 	 	 	 	1581526429	6.23	11.54
12/02/2020 16:53:50	120220	12022020	165350	91.56	12.418800	-56.959015	91.60	-1.130	2.670	1.140	91.56	1.40	1.60	 	 	 	 	 	 	 	 	 	 	 	 	 	 	 	 	 	 	1581526430	5.63	10.43
12/02/2020 16:53:51	120220	12022020	165351	91.60	12.418802	-56.958980	91.64	-1.520	1.760	1.050	91.60	0.40	1.50	 	 	 	 	 	 	 	 	 	 	 	 	 	 	 	 	 	 	1581526431	7.41	13.72
12/02/2020 16:53:52	120220	12022020	165352	91.60	12.418800	-56.958933	91.64	-0.770	-0.840	1.050	91.60	-2.20	1.50	 	 	 	 	 	 	 	 	 	 	 	 	 	 	 	 	 	 	1581526432	9.85	18.24
12/02/2020 16:53:53	120220	12022020	165353	91.56	12.418798	-56.958883	91.60	0.420	-2.770	0.900	91.56	-4.00	1.30	 	 	 	 	 	 	 	 	 	 	 	 	 	 	 	 	 	 	1581526433	10.75	19.91
12/02/2020 16:53:54	120220	12022020	165354	91.49	12.418800	-56.958838	91.53	1.160	-2.550	0.760	91.49	-3.80	1.20	 	 	 	 	 	 	 	 	 	 	 	 	 	 	 	 	 	 	1581526434	9.43	17.46
12/02/2020 16:53:55	120220	12022020	165355	91.31	12.418802	-56.958803	91.30	1.020	-0.740	0.870	91.26	-1.90	1.30	 	 	 	 	 	 	 	 	 	 	 	 	 	 	 	 	 	 	1581526435	7.45	13.80
12/02/2020 16:53:56	120220	12022020	165356	91.02	12.418803	-56.958773	91.05	0.220	1.120	0.910	91.02	-0.10	1.30	 	 	 	 	 	 	 	 	 	 	 	 	 	 	 	 	 	 	1581526436	6.51	12.06
12/02/2020 16:53:57	120220	12022020	165357	90.98	12.418805	-56.958740	91.01	-0.600	1.820	0.700	90.98	0.50	1.10	 	 	 	 	 	 	 	 	 	 	 	 	 	 	 	 	 	 	1581526437	6.98	12.93
12/02/2020 16:53:58	120220	12022020	165358	91.06	12.418808	-56.958702	91.08	-0.870	1.190	0.480	91.06	-0.10	0.90	 	 	 	 	 	 	 	 	 	 	 	 	 	 	 	 	 	 	1581526438	8.19	15.17
12/02/2020 16:53:59	120220	12022020	165359	91.20	12.418812	-56.958658	91.23	-0.510	-0.330	0.370	91.20	-1.60	0.80	 	 	 	 	 	 	 	 	 	 	 	 	 	 	 	 	 	 	1581526439	9.23	17.09
12/02/2020 16:54:00	120220	12022020	165400	91.42	12.418812	-56.958612	91.45	0.150	-1.760	0.490	91.42	-3.00	0.90	 	 	 	 	 	 	 	 	 	 	 	 	 	 	 	 	 	 	1581526440	9.80	18.15
12/02/2020 16:54:01	120220	12022020	165401	91.38	12.418810	-56.958567	91.40	0.640	-1.900	0.990	91.38	-3.10	1.40	 	 	 	 	 	 	 	 	 	 	 	 	 	 	 	 	 	 	1581526441	9.27	17.17
12/02/2020 16:54:02	120220	12022020	165402	91.09	12.418808	-56.958530	91.12	0.670	-0.720	1.400	91.09	-2.00	1.80	1015.70	26.70	26.70	19.90	20.00	962.0	66.0	66.0	399.0	29.1	352.00	15.40	81.00	11.10	69965	14330.0	27.4	27.4	1581526442	7.87	14.58
12/02/2020 16:54:03	120220	12022020	165403	90.96	12.418810	-56.958497	91.00	0.280	0.510	1.380	90.96	-0.70	1.80	 	 	 	 	 	 	 	 	 	 	 	 	 	 	 	 	 	 	1581526443	7.09	13.13
12/02/2020 16:54:04	120220	12022020	165404	91.17	12.418812	-56.958462	91.21	-0.230	0.830	1.050	91.17	-0.50	1.40	 	 	 	 	 	 	 	 	 	 	 	 	 	 	 	 	 	 	1581526444	7.58	14.04
12/02/2020 16:54:05	120220	12022020	165405	91.58	12.418815	-56.958420	91.63	-0.470	0.290	0.630	91.58	-1.00	1.00	 	 	 	 	 	 	 	 	 	 	 	 	 	 	 	 	 	 	1581526445	8.54	15.82
12/02/2020 16:54:06	120220	12022020	165406	91.99	12.418818	-56.958378	92.03	-0.270	-0.410	0.290	91.99	-1.70	0.70	 	 	 	 	 	 	 	 	 	 	 	 	 	 	 	 	 	 	1581526446	9.11	16.87
12/02/2020 16:54:07	120220	12022020	165407	92.09	12.418820	-56.958335	92.08	0.080	-0.540	0.350	92.09	-1.80	0.80	 	 	 	 	 	 	 	 	 	 	 	 	 	 	 	 	 	 	1581526447	8.92	16.52
12/02/2020 16:54:08	120220	12022020	165408	91.98	12.418820	-56.958297	91.98	0.130	-0.130	0.650	91.98	-1.40	1.10	 	 	 	 	 	 	 	 	 	 	 	 	 	 	 	 	 	 	1581526448	8.06	14.93
12/02/2020 16:54:09	120220	12022020	165409	91.93	12.418822	-56.958260	91.95	-0.020	-0.220	0.950	91.93	-1.50	1.40	 	 	 	 	 	 	 	 	 	 	 	 	 	 	 	 	 	 	1581526449	7.79	14.43
12/02/2020 16:54:10	120220	12022020	165410	91.88	12.418820	-56.958218	91.90	0.200	-1.270	1.030	91.88	-2.60	1.40	 	 	 	 	 	 	 	 	 	 	 	 	 	 	 	 	 	 	1581526450	8.84	16.37
12/02/2020 16:54:11	120220	12022020	165411	91.85	12.418822	-56.958172	91.89	0.820	-2.000	0.840	91.85	-3.30	1.30	 	 	 	 	 	 	 	 	 	 	 	 	 	 	 	 	 	 	1581526451	10.01	18.54
12/02/2020 16:54:12	120220	12022020	165412	92.16	12.418823	-56.958128	92.22	0.890	-0.700	0.610	92.16	-1.90	1.00	 	 	 	 	 	 	 	 	 	 	 	 	 	 	 	 	 	 	1581526452	9.10	16.85
12/02/2020 16:54:13	120220	12022020	165413	92.79	12.418825	-56.958097	92.86	-0.070	1.770	0.470	92.79	0.60	0.90	 	 	 	 	 	 	 	 	 	 	 	 	 	 	 	 	 	 	1581526453	6.63	12.28
12/02/2020 16:54:14	120220	12022020	165414	93.30	12.418827	-56.958070	93.32	-1.360	2.980	0.510	93.30	1.70	0.90	 	 	 	 	 	 	 	 	 	 	 	 	 	 	 	 	 	 	1581526454	5.74	10.63
12/02/2020 16:54:15	120220	12022020	165415	93.27	12.418825	-56.958035	93.26	-1.700	1.440	0.790	93.27	0.10	1.20	 	 	 	 	 	 	 	 	 	 	 	 	 	 	 	 	 	 	1581526455	7.48	13.85
12/02/2020 16:54:16	120220	12022020	165416	92.93	12.418822	-56.957987	92.92	-0.560	-1.760	1.020	92.93	-3.10	1.40	 	 	 	 	 	 	 	 	 	 	 	 	 	 	 	 	 	 	1581526456	10.23	18.95
12/02/2020 16:54:17	120220	12022020	165417	92.77	12.418820	-56.957933	92.81	1.150	-3.800	1.040	92.77	-5.10	1.40	 	 	 	 	 	 	 	 	 	 	 	 	 	 	 	 	 	 	1581526457	11.12	20.59
12/02/2020 16:54:18	120220	12022020	165418	92.93	12.418822	-56.957890	93.00	1.900	-2.930	0.900	92.93	-4.10	1.30	 	 	 	 	 	 	 	 	 	 	 	 	 	 	 	 	 	 	1581526458	9.30	17.22
12/02/2020 16:54:19	120220	12022020	165419	93.06	12.418822	-56.957858	93.12	1.140	-0.140	0.850	93.07	-1.30	1.30	 	 	 	 	 	 	 	 	 	 	 	 	 	 	 	 	 	 	1581526459	6.60	12.22
12/02/2020 16:54:20	120220	12022020	165420	92.99	12.418822	-56.957833	93.00	-0.280	2.250	0.990	92.99	1.00	1.40	 	 	 	 	 	 	 	 	 	 	 	 	 	 	 	 	 	 	1581526460	5.45	10.09
12/02/2020 16:54:21	120220	12022020	165421	92.76	12.418822	-56.957802	92.79	-1.160	2.650	1.020	92.76	1.30	1.40	 	 	 	 	 	 	 	 	 	 	 	 	 	 	 	 	 	 	1581526461	6.48	12.00
12/02/2020 16:54:22	120220	12022020	165422	92.67	12.418823	-56.957762	92.72	-1.110	1.150	0.780	92.67	-0.20	1.20	 	 	 	 	 	 	 	 	 	 	 	 	 	 	 	 	 	 	1581526462	8.55	15.83
12/02/2020 16:54:23	120220	12022020	165423	92.73	12.418823	-56.957715	92.77	-0.460	-0.950	0.720	92.73	-2.30	1.10	 	 	 	 	 	 	 	 	 	 	 	 	 	 	 	 	 	 	1581526463	9.79	18.13
12/02/2020 16:54:24	120220	12022020	165424	92.80	12.418822	-56.957668	92.84	0.230	-2.230	0.790	92.80	-3.50	1.20	 	 	 	 	 	 	 	 	 	 	 	 	 	 	 	 	 	 	1581526464	9.79	18.13
12/02/2020 16:54:25	120220	12022020	165425	92.86	12.418820	-56.957628	92.92	0.530	-1.900	1.010	92.86	-3.10	1.40	 	 	 	 	 	 	 	 	 	 	 	 	 	 	 	 	 	 	1581526465	8.62	15.96
12/02/2020 16:54:26	120220	12022020	165426	92.91	12.418818	-56.957595	92.98	0.380	-0.510	1.430	92.91	-1.70	1.90	 	 	 	 	 	 	 	 	 	 	 	 	 	 	 	 	 	 	1581526466	7.11	13.17
12/02/2020 16:54:27	120220	12022020	165427	92.90	12.418815	-56.957563	92.96	0.150	0.580	1.710	92.90	-0.70	2.10	 	 	 	 	 	 	 	 	 	 	 	 	 	 	 	 	 	 	1581526467	6.62	12.26
12/02/2020 16:54:28	120220	12022020	165428	92.74	12.418815	-56.957528	92.79	0.300	0.450	1.620	92.74	-0.80	2.00	 	 	 	 	 	 	 	 	 	 	 	 	 	 	 	 	 	 	1581526468	7.61	14.09
12/02/2020 16:54:29	120220	12022020	165429	92.60	12.418817	-56.957485	92.66	0.560	-0.120	1.350	92.60	-1.40	1.80	 	 	 	 	 	 	 	 	 	 	 	 	 	 	 	 	 	 	1581526469	8.95	16.58
12/02/2020 16:54:30	120220	12022020	165430	92.87	12.418818	-56.957443	92.97	0.420	-0.160	0.930	92.87	-1.40	1.30	 	 	 	 	 	 	 	 	 	 	 	 	 	 	 	 	 	 	1581526470	8.75	16.21
12/02/2020 16:54:31	120220	12022020	165431	93.32	12.418822	-56.957407	93.53	-0.110	0.150	0.610	93.44	-1.10	1.00	 	 	 	 	 	 	 	 	 	 	 	 	 	 	 	 	 	 	1581526471	7.84	14.52
12/02/2020 16:54:32	120220	12022020	165432	93.78	12.418822	-56.957372	93.84	-0.550	0.240	0.740	93.78	-1.00	1.20	 	 	 	 	 	 	 	 	 	 	 	 	 	 	 	 	 	 	1581526472	7.51	13.91
12/02/2020 16:54:33	120220	12022020	165433	93.70	12.418820	-56.957335	93.69	-0.620	-0.040	1.220	93.65	-1.30	1.70	 	 	 	 	 	 	 	 	 	 	 	 	 	 	 	 	 	 	1581526473	7.84	14.52
12/02/2020 16:54:34	120220	12022020	165434	93.43	12.418817	-56.957295	93.51	-0.440	-0.570	1.570	93.43	-1.80	2.00	 	 	 	 	 	 	 	 	 	 	 	 	 	 	 	 	 	 	1581526474	8.26	15.30
12/02/2020 16:54:35	120220	12022020	165435	93.48	12.418813	-56.957255	93.56	-0.050	-1.240	1.660	93.48	-2.50	2.10	 	 	 	 	 	 	 	 	 	 	 	 	 	 	 	 	 	 	1581526475	8.58	15.89
12/02/2020 16:54:36	120220	12022020	165436	93.58	12.418810	-56.957213	93.67	0.540	-1.780	1.490	93.58	-3.00	1.90	 	 	 	 	 	 	 	 	 	 	 	 	 	 	 	 	 	 	1581526476	8.93	16.54
12/02/2020 16:54:37	120220	12022020	165437	93.61	12.418808	-56.957170	93.69	1.020	-1.440	1.080	93.61	-2.70	1.50	 	 	 	 	 	 	 	 	 	 	 	 	 	 	 	 	 	 	1581526477	8.98	16.63
12/02/2020 16:54:38	120220	12022020	165438	93.74	12.418810	-56.957133	93.81	0.800	0.320	0.690	93.74	-0.90	1.10	 	 	 	 	 	 	 	 	 	 	 	 	 	 	 	 	 	 	1581526478	7.83	14.50
12/02/2020 16:54:39	120220	12022020	165439	93.87	12.418812	-56.957103	93.95	-0.130	2.350	0.470	93.87	1.10	0.90	 	 	 	 	 	 	 	 	 	 	 	 	 	 	 	 	 	 	1581526479	6.21	11.50
12/02/2020 16:54:40	120220	12022020	165440	93.94	12.418815	-56.957075	94.00	-1.020	2.660	0.270	93.94	1.40	0.70	 	 	 	 	 	 	 	 	 	 	 	 	 	 	 	 	 	 	1581526480	6.29	11.65
12/02/2020 16:54:41	120220	12022020	165441	94.04	12.418817	-56.957035	94.08	-1.090	0.610	0.080	94.04	-0.80	0.50	 	 	 	 	 	 	 	 	 	 	 	 	 	 	 	 	 	 	1581526481	8.27	15.32
12/02/2020 16:54:42	120220	12022020	165442	94.08	12.418815	-56.956987	94.11	-0.280	-2.290	0.240	94.08	-3.60	0.70	 	 	 	 	 	 	 	 	 	 	 	 	 	 	 	 	 	 	1581526482	10.22	18.93
12/02/2020 16:54:43	120220	12022020	165443	93.94	12.418810	-56.956938	93.98	0.770	-3.800	0.720	93.94	-5.00	1.20	 	 	 	 	 	 	 	 	 	 	 	 	 	 	 	 	 	 	1581526483	10.44	19.33
12/02/2020 16:54:44	120220	12022020	165444	93.59	12.418805	-56.956897	93.62	1.260	-2.660	1.080	93.59	-3.80	1.50	 	 	 	 	 	 	 	 	 	 	 	 	 	 	 	 	 	 	1581526484	8.67	16.06
12/02/2020 16:54:45	120220	12022020	165445	93.21	12.418803	-56.956867	93.13	0.750	0.200	1.030	93.12	-1.00	1.40	 	 	 	 	 	 	 	 	 	 	 	 	 	 	 	 	 	 	1581526485	6.30	11.67
12/02/2020 16:54:46	120220	12022020	165446	92.81	12.418807	-56.956842	92.84	-0.460	2.670	0.630	92.81	1.40	1.00	 	 	 	 	 	 	 	 	 	 	 	 	 	 	 	 	 	 	1581526486	5.35	9.91
12/02/2020 16:54:47	120220	12022020	165447	93.03	12.418808	-56.956813	93.09	-1.560	3.100	0.100	93.03	1.80	0.50	 	 	 	 	 	 	 	 	 	 	 	 	 	 	 	 	 	 	1581526487	6.16	11.41
12/02/2020 16:54:48	120220	12022020	165448	93.49	12.418808	-56.956775	93.53	-1.560	1.060	-0.160	93.49	-0.30	0.30	 	 	 	 	 	 	 	 	 	 	 	 	 	 	 	 	 	 	1581526488	8.06	14.93
12/02/2020 16:54:49	120220	12022020	165449	93.58	12.418805	-56.956727	93.58	-0.180	-2.340	0.010	93.58	-3.70	0.40	 	 	 	 	 	 	 	 	 	 	 	 	 	 	 	 	 	 	1581526489	10.34	19.15
12/02/2020 16:54:50	120220	12022020	165450	93.26	12.418800	-56.956675	93.28	1.350	-3.920	0.520	93.26	-5.20	0.90	 	 	 	 	 	 	 	 	 	 	 	 	 	 	 	 	 	 	1581526490	11.02	20.41
12/02/2020 16:54:51	120220	12022020	165451	93.08	12.418797	-56.956637	93.15	1.510	-1.880	1.310	93.08	-3.10	1.70	 	 	 	 	 	 	 	 	 	 	 	 	 	 	 	 	 	 	1581526491	7.99	14.80
12/02/2020 16:54:52	120220	12022020	165452	93.22	12.418795	-56.956615	93.31	0.270	1.560	1.680	93.22	0.40	2.10	 	 	 	 	 	 	 	 	 	 	 	 	 	 	 	 	 	 	1581526492	4.74	8.78
12/02/2020 16:54:53	120220	12022020	165453	93.39	12.418795	-56.956593	93.47	-1.010	3.040	1.490	93.39	1.80	1.90	 	 	 	 	 	 	 	 	 	 	 	 	 	 	 	 	 	 	1581526493	4.45	8.24
12/02/2020 16:54:54	120220	12022020	165454	93.41	12.418795	-56.956558	93.46	-1.090	1.450	1.200	93.41	0.10	1.60	 	 	 	 	 	 	 	 	 	 	 	 	 	 	 	 	 	 	1581526494	7.31	13.54
12/02/2020 16:54:55	120220	12022020	165455	93.43	12.418795	-56.956512	93.51	-0.230	-1.080	0.980	93.46	-2.40	1.40	 	 	 	 	 	 	 	 	 	 	 	 	 	 	 	 	 	 	1581526495	9.86	18.26
12/02/2020 16:54:56	120220	12022020	165456	93.71	12.418795	-56.956467	93.80	0.580	-2.200	0.780	93.71	-3.40	1.20	 	 	 	 	 	 	 	 	 	 	 	 	 	 	 	 	 	 	1581526496	9.63	17.83
12/02/2020 16:54:57	120220	12022020	165457	93.88	12.418793	-56.956430	93.98	0.670	-1.430	0.970	93.90	-2.60	1.40	 	 	 	 	 	 	 	 	 	 	 	 	 	 	 	 	 	 	1581526497	7.63	14.13
12/02/2020 16:54:58	120220	12022020	165458	93.67	12.418788	-56.956402	93.71	0.240	-0.190	1.390	93.67	-1.40	1.80	 	 	 	 	 	 	 	 	 	 	 	 	 	 	 	 	 	 	1581526498	6.22	11.52
12/02/2020 16:54:59	120220	12022020	165459	93.19	12.418785	-56.956370	93.09	0.010	0.100	1.580	93.05	-1.20	2.00	 	 	 	 	 	 	 	 	 	 	 	 	 	 	 	 	 	 	1581526499	6.76	12.52
12/02/2020 16:55:00	120220	12022020	165500	92.60	12.418785	-56.956332	92.65	0.060	-0.110	1.430	92.60	-1.40	1.80	 	 	 	 	 	 	 	 	 	 	 	 	 	 	 	 	 	 	1581526500	8.10	15.00
12/02/2020 16:55:01	120220	12022020	165501	92.52	12.418785	-56.956293	92.59	-0.130	0.170	1.160	92.52	-1.10	1.60	 	 	 	 	 	 	 	 	 	 	 	 	 	 	 	 	 	 	1581526501	8.01	14.83
12/02/2020 16:55:02	120220	12022020	165502	92.80	12.418788	-56.956260	92.86	-0.580	0.580	0.570	92.80	-0.70	1.00	1015.80	26.70	26.70	20.00	20.10	957.0	67.0	67.0	399.0	29.1	347.00	15.70	76.00	11.70	69684	9478.0	27.4	27.4	1581526502	7.16	13.26
12/02/2020 16:55:03	120220	12022020	165503	93.12	12.418790	-56.956225	93.16	-0.670	0.320	0.140	93.12	-1.00	0.60	 	 	 	 	 	 	 	 	 	 	 	 	 	 	 	 	 	 	1581526503	7.23	13.39
12/02/2020 16:55:04	120220	12022020	165504	93.29	12.418788	-56.956187	93.32	-0.120	-0.530	0.280	93.29	-1.80	0.70	 	 	 	 	 	 	 	 	 	 	 	 	 	 	 	 	 	 	1581526504	8.13	15.06
12/02/2020 16:55:05	120220	12022020	165505	93.25	12.418783	-56.956147	93.29	0.550	-1.080	0.820	93.25	-2.40	1.20	 	 	 	 	 	 	 	 	 	 	 	 	 	 	 	 	 	 	1581526505	8.54	15.82
12/02/2020 16:55:06	120220	12022020	165506	92.96	12.418778	-56.956108	93.00	0.740	-0.970	1.260	92.96	-2.20	1.70	 	 	 	 	 	 	 	 	 	 	 	 	 	 	 	 	 	 	1581526506	8.02	14.85
12/02/2020 16:55:07	120220	12022020	165507	92.65	12.418777	-56.956075	92.70	0.440	-0.380	1.380	92.65	-1.60	1.80	 	 	 	 	 	 	 	 	 	 	 	 	 	 	 	 	 	 	1581526507	7.36	13.63
12/02/2020 16:55:08	120220	12022020	165508	92.42	12.418777	-56.956042	92.46	0.040	0.260	1.410	92.42	-1.00	1.80	 	 	 	 	 	 	 	 	 	 	 	 	 	 	 	 	 	 	1581526508	7.02	13.00
12/02/2020 16:55:09	120220	12022020	165509	92.25	12.418778	-56.956007	92.28	-0.070	0.390	1.330	92.23	-0.90	1.70	 	 	 	 	 	 	 	 	 	 	 	 	 	 	 	 	 	 	1581526509	7.24	13.41
12/02/2020 16:55:10	120220	12022020	165510	92.26	12.418780	-56.955968	92.32	0.090	-0.050	0.900	92.26	-1.30	1.30	 	 	 	 	 	 	 	 	 	 	 	 	 	 	 	 	 	 	1581526510	8.01	14.83
12/02/2020 16:55:11	120220	12022020	165511	92.42	12.418783	-56.955930	92.47	0.140	-0.330	0.690	92.42	-1.60	1.10	 	 	 	 	 	 	 	 	 	 	 	 	 	 	 	 	 	 	1581526511	8.35	15.46
12/02/2020 16:55:12	120220	12022020	165512	92.42	12.418782	-56.955893	92.46	-0.160	-0.220	1.000	92.42	-1.50	1.40	 	 	 	 	 	 	 	 	 	 	 	 	 	 	 	 	 	 	1581526512	7.78	14.41
12/02/2020 16:55:13	120220	12022020	165513	92.29	12.418778	-56.955858	92.32	-0.490	-0.240	1.330	92.29	-1.50	1.70	 	 	 	 	 	 	 	 	 	 	 	 	 	 	 	 	 	 	1581526513	7.46	13.82
12/02/2020 16:55:14	120220	12022020	165514	92.14	12.418775	-56.955820	92.19	-0.340	-0.700	1.500	92.14	-2.00	1.90	 	 	 	 	 	 	 	 	 	 	 	 	 	 	 	 	 	 	1581526514	7.91	14.65
12/02/2020 16:55:15	120220	12022020	165515	91.91	12.418773	-56.955780	91.97	0.190	-1.070	1.640	91.91	-2.30	2.10	 	 	 	 	 	 	 	 	 	 	 	 	 	 	 	 	 	 	1581526515	8.51	15.76
12/02/2020 16:55:16	120220	12022020	165516	91.69	12.418772	-56.955742	91.75	0.530	-0.720	1.470	91.69	-2.00	1.90	 	 	 	 	 	 	 	 	 	 	 	 	 	 	 	 	 	 	1581526516	8.26	15.30
12/02/2020 16:55:17	120220	12022020	165517	91.70	12.418775	-56.955707	91.77	0.330	0.330	1.040	91.70	-0.90	1.40	 	 	 	 	 	 	 	 	 	 	 	 	 	 	 	 	 	 	1581526517	7.46	13.82
12/02/2020 16:55:18	120220	12022020	165518	91.91	12.418777	-56.955673	91.97	-0.200	1.100	0.670	91.91	-0.20	1.10	 	 	 	 	 	 	 	 	 	 	 	 	 	 	 	 	 	 	1581526518	6.83	12.65
12/02/2020 16:55:19	120220	12022020	165519	91.99	12.418780	-56.955638	92.04	-0.450	0.660	0.520	91.99	-0.70	0.90	 	 	 	 	 	 	 	 	 	 	 	 	 	 	 	 	 	 	1581526519	7.42	13.74
12/02/2020 16:55:20	120220	12022020	165520	91.86	12.418780	-56.955597	91.89	-0.150	-0.590	0.670	91.86	-1.90	1.10	 	 	 	 	 	 	 	 	 	 	 	 	 	 	 	 	 	 	1581526520	8.73	16.17
12/02/2020 16:55:21	120220	12022020	165521	91.78	12.418780	-56.955555	91.82	0.300	-1.280	0.910	91.77	-2.60	1.30	 	 	 	 	 	 	 	 	 	 	 	 	 	 	 	 	 	 	1581526521	9.08	16.82
12/02/2020 16:55:22	120220	12022020	165522	91.75	12.418778	-56.955517	91.82	0.460	-1.040	1.160	91.75	-2.30	1.60	 	 	 	 	 	 	 	 	 	 	 	 	 	 	 	 	 	 	1581526522	8.15	15.09
12/02/2020 16:55:23	120220	12022020	165523	91.66	12.418778	-56.955480	91.71	0.360	-0.510	1.360	91.66	-1.80	1.80	 	 	 	 	 	 	 	 	 	 	 	 	 	 	 	 	 	 	1581526523	7.49	13.87
12/02/2020 16:55:24	120220	12022020	165524	91.58	12.418778	-56.955445	91.62	0.170	-0.110	1.430	91.58	-1.40	1.80	 	 	 	 	 	 	 	 	 	 	 	 	 	 	 	 	 	 	1581526524	7.65	14.17
12/02/2020 16:55:25	120220	12022020	165525	91.53	12.418778	-56.955407	91.55	-0.120	0.190	1.410	91.53	-1.10	1.80	 	 	 	 	 	 	 	 	 	 	 	 	 	 	 	 	 	 	1581526525	7.84	14.52
12/02/2020 16:55:26	120220	12022020	165526	91.43	12.418780	-56.955370	91.45	-0.420	0.160	1.330	91.43	-1.10	1.70	 	 	 	 	 	 	 	 	 	 	 	 	 	 	 	 	 	 	1581526526	7.96	14.74
12/02/2020 16:55:27	120220	12022020	165527	91.42	12.418778	-56.955330	91.44	-0.490	-0.210	1.190	91.42	-1.50	1.60	 	 	 	 	 	 	 	 	 	 	 	 	 	 	 	 	 	 	1581526527	8.37	15.50
12/02/2020 16:55:28	120220	12022020	165528	91.48	12.418778	-56.955290	91.49	-0.370	-0.330	0.970	91.48	-1.60	1.40	 	 	 	 	 	 	 	 	 	 	 	 	 	 	 	 	 	 	1581526528	8.52	15.78
12/02/2020 16:55:29	120220	12022020	165529	91.50	12.418780	-56.955252	91.49	-0.270	-0.050	0.790	91.50	-1.30	1.20	 	 	 	 	 	 	 	 	 	 	 	 	 	 	 	 	 	 	1581526529	8.02	14.85
12/02/2020 16:55:30	120220	12022020	165530	91.57	12.418780	-56.955215	91.57	-0.240	0.040	0.690	91.57	-1.20	1.10	 	 	 	 	 	 	 	 	 	 	 	 	 	 	 	 	 	 	1581526530	7.72	14.30
12/02/2020 16:55:31	120220	12022020	165531	91.82	12.418782	-56.955177	91.83	-0.100	-0.350	0.500	91.82	-1.60	0.90	 	 	 	 	 	 	 	 	 	 	 	 	 	 	 	 	 	 	1581526531	8.16	15.11
12/02/2020 16:55:32	120220	12022020	165532	91.86	12.418782	-56.955135	91.84	0.260	-0.900	0.600	91.86	-2.20	1.00	 	 	 	 	 	 	 	 	 	 	 	 	 	 	 	 	 	 	1581526532	8.69	16.09
12/02/2020 16:55:33	120220	12022020	165533	91.40	12.418780	-56.955093	91.35	0.740	-1.150	0.980	91.40	-2.40	1.40	 	 	 	 	 	 	 	 	 	 	 	 	 	 	 	 	 	 	1581526533	8.84	16.37
12/02/2020 16:55:34	120220	12022020	165534	91.08	12.418780	-56.955053	91.09	0.910	-0.640	0.980	91.08	-1.90	1.40	 	 	 	 	 	 	 	 	 	 	 	 	 	 	 	 	 	 	1581526534	8.56	15.85
12/02/2020 16:55:35	120220	12022020	165535	91.29	12.418785	-56.955017	91.42	0.260	0.700	0.800	91.38	-0.50	1.20	 	 	 	 	 	 	 	 	 	 	 	 	 	 	 	 	 	 	1581526535	7.62	14.11
12/02/2020 16:55:36	120220	12022020	165536	91.81	12.418788	-56.954987	91.83	-0.940	1.800	0.730	91.81	0.50	1.10	 	 	 	 	 	 	 	 	 	 	 	 	 	 	 	 	 	 	1581526536	6.59	12.20
12/02/2020 16:55:37	120220	12022020	165537	91.81	12.418787	-56.954953	91.82	-1.550	1.120	0.970	91.81	-0.20	1.40	 	 	 	 	 	 	 	 	 	 	 	 	 	 	 	 	 	 	1581526537	7.09	13.13
12/02/2020 16:55:38	120220	12022020	165538	91.54	12.418782	-56.954908	91.55	-0.660	-1.480	1.200	91.54	-2.80	1.60	 	 	 	 	 	 	 	 	 	 	 	 	 	 	 	 	 	 	1581526538	9.43	17.46
12/02/2020 16:55:39	120220	12022020	165539	91.49	12.418780	-56.954857	91.53	0.920	-3.420	1.070	91.49	-4.70	1.50	 	 	 	 	 	 	 	 	 	 	 	 	 	 	 	 	 	 	1581526539	11.03	20.43
12/02/2020 16:55:40	120220	12022020	165540	91.72	12.418782	-56.954813	91.78	1.460	-2.220	0.590	91.72	-3.40	1.00	 	 	 	 	 	 	 	 	 	 	 	 	 	 	 	 	 	 	1581526540	9.25	17.13
12/02/2020 16:55:41	120220	12022020	165541	91.99	12.418785	-56.954785	92.01	0.390	1.010	0.080	91.99	-0.20	0.50	 	 	 	 	 	 	 	 	 	 	 	 	 	 	 	 	 	 	1581526541	5.98	11.07
12/02/2020 16:55:42	120220	12022020	165542	92.06	12.418788	-56.954762	92.04	-1.270	3.050	-0.060	92.06	1.80	0.40	 	 	 	 	 	 	 	 	 	 	 	 	 	 	 	 	 	 	1581526542	4.74	8.78
12/02/2020 16:55:43	120220	12022020	165543	91.86	12.418787	-56.954730	91.82	-1.910	2.040	0.280	91.86	0.70	0.70	 	 	 	 	 	 	 	 	 	 	 	 	 	 	 	 	 	 	1581526543	6.84	12.67
12/02/2020 16:55:44	120220	12022020	165544	91.54	12.418783	-56.954685	91.52	-1.060	-0.580	0.520	91.54	-2.00	0.90	 	 	 	 	 	 	 	 	 	 	 	 	 	 	 	 	 	 	1581526544	9.74	18.04
12/02/2020 16:55:45	120220	12022020	165545	91.34	12.418782	-56.954635	91.33	0.420	-2.290	0.330	91.34	-3.60	0.70	 	 	 	 	 	 	 	 	 	 	 	 	 	 	 	 	 	 	1581526545	10.34	19.15
12/02/2020 16:55:46	120220	12022020	165546	91.35	12.418785	-56.954593	91.39	1.270	-1.940	0.160	91.35	-3.20	0.60	 	 	 	 	 	 	 	 	 	 	 	 	 	 	 	 	 	 	1581526546	8.72	16.15
12/02/2020 16:55:47	120220	12022020	165547	91.49	12.418787	-56.954562	91.59	1.020	-0.530	0.330	91.53	-1.80	0.80	 	 	 	 	 	 	 	 	 	 	 	 	 	 	 	 	 	 	1581526547	6.84	12.67
12/02/2020 16:55:48	120220	12022020	165548	91.68	12.418788	-56.954532	91.72	0.240	0.540	0.700	91.68	-0.70	1.10	 	 	 	 	 	 	 	 	 	 	 	 	 	 	 	 	 	 	1581526548	6.41	11.87
12/02/2020 16:55:49	120220	12022020	165549	91.62	12.418788	-56.954498	91.63	-0.370	0.850	1.410	91.59	-0.40	1.80	 	 	 	 	 	 	 	 	 	 	 	 	 	 	 	 	 	 	1581526549	7.09	13.13
12/02/2020 16:55:50	120220	12022020	165550	91.40	12.418783	-56.954462	91.45	-0.520	0.380	2.000	91.40	-0.90	2.40	 	 	 	 	 	 	 	 	 	 	 	 	 	 	 	 	 	 	1581526550	7.86	14.56
12/02/2020 16:55:51	120220	12022020	165551	91.16	12.418780	-56.954420	91.23	-0.250	-0.630	2.270	91.16	-1.90	2.70	 	 	 	 	 	 	 	 	 	 	 	 	 	 	 	 	 	 	1581526551	8.70	16.11
12/02/2020 16:55:52	120220	12022020	165552	90.95	12.418778	-56.954378	91.02	-0.020	-1.080	2.210	90.95	-2.30	2.60	 	 	 	 	 	 	 	 	 	 	 	 	 	 	 	 	 	 	1581526552	8.96	16.59
12/02/2020 16:55:53	120220	12022020	165553	90.84	12.418780	-56.954340	90.90	-0.150	-0.400	1.900	90.84	-1.70	2.30	 	 	 	 	 	 	 	 	 	 	 	 	 	 	 	 	 	 	1581526553	7.87	14.58
12/02/2020 16:55:54	120220	12022020	165554	90.75	12.418782	-56.954308	90.82	-0.390	0.360	1.370	90.75	-0.90	1.80	 	 	 	 	 	 	 	 	 	 	 	 	 	 	 	 	 	 	1581526554	6.90	12.78
12/02/2020 16:55:55	120220	12022020	165555	90.76	12.418787	-56.954273	90.83	-0.180	0.050	0.620	90.76	-1.20	1.00	 	 	 	 	 	 	 	 	 	 	 	 	 	 	 	 	 	 	1581526555	7.50	13.89
12/02/2020 16:55:56	120220	12022020	165556	91.11	12.418793	-56.954232	91.17	0.470	-0.930	0.030	91.11	-2.20	0.40	 	 	 	 	 	 	 	 	 	 	 	 	 	 	 	 	 	 	1581526556	8.95	16.58
12/02/2020 16:55:57	120220	12022020	165557	91.73	12.418798	-56.954188	91.80	0.780	-1.160	-0.170	91.73	-2.40	0.30	 	 	 	 	 	 	 	 	 	 	 	 	 	 	 	 	 	 	1581526557	9.21	17.06
12/02/2020 16:55:58	120220	12022020	165558	92.11	12.418798	-56.954152	92.15	0.260	-0.080	0.260	92.11	-1.30	0.70	 	 	 	 	 	 	 	 	 	 	 	 	 	 	 	 	 	 	1581526558	7.75	14.35
12/02/2020 16:55:59	120220	12022020	165559	92.10	12.418793	-56.954122	92.12	-0.610	1.270	1.000	92.10	0.00	1.40	 	 	 	 	 	 	 	 	 	 	 	 	 	 	 	 	 	 	1581526559	6.40	11.85
12/02/2020 16:56:00	120220	12022020	165600	91.90	12.418790	-56.954090	91.92	-0.810	1.330	1.380	91.90	0.00	1.80	 	 	 	 	 	 	 	 	 	 	 	 	 	 	 	 	 	 	1581526560	6.55	12.13
12/02/2020 16:56:01	120220	12022020	165601	91.72	12.418790	-56.954050	91.73	-0.050	-0.310	1.240	91.72	-1.60	1.70	 	 	 	 	 	 	 	 	 	 	 	 	 	 	 	 	 	 	1581526561	8.40	15.56
12/02/2020 16:56:02	120220	12022020	165602	91.53	12.418795	-56.954003	91.54	0.890	-2.090	1.000	91.53	-3.40	1.40	1015.80	26.60	26.70	20.00	20.10	917.0	67.0	67.0	399.0	29.1	353.00	14.80	82.00	10.70	67843	17926.0	27.4	27.4	1581526562	9.86	18.26
12/02/2020 16:56:03	120220	12022020	165603	91.40	12.418798	-56.953960	91.43	1.080	-2.220	0.850	91.40	-3.40	1.30	 	 	 	 	 	 	 	 	 	 	 	 	 	 	 	 	 	 	1581526563	9.42	17.45
12/02/2020 16:56:04	120220	12022020	165604	91.51	12.418800	-56.953925	91.57	0.300	-0.330	0.920	91.51	-1.50	1.30	 	 	 	 	 	 	 	 	 	 	 	 	 	 	 	 	 	 	1581526564	7.29	13.50
12/02/2020 16:56:05	120220	12022020	165605	91.99	12.418800	-56.953900	92.11	-0.920	2.040	1.010	91.99	0.80	1.40	 	 	 	 	 	 	 	 	 	 	 	 	 	 	 	 	 	 	1581526565	5.37	9.95
12/02/2020 16:56:06	120220	12022020	165606	92.57	12.418800	-56.953873	92.66	-1.580	2.520	0.900	92.57	1.20	1.30	 	 	 	 	 	 	 	 	 	 	 	 	 	 	 	 	 	 	1581526566	5.47	10.13
12/02/2020 16:56:07	120220	12022020	165607	92.85	12.418797	-56.953835	92.90	-0.890	0.170	0.730	92.85	-1.20	1.10	 	 	 	 	 	 	 	 	 	 	 	 	 	 	 	 	 	 	1581526567	8.10	15.00
12/02/2020 16:56:08	120220	12022020	165608	92.65	12.418793	-56.953785	92.70	0.700	-2.810	0.830	92.65	-4.10	1.30	 	 	 	 	 	 	 	 	 	 	 	 	 	 	 	 	 	 	1581526568	10.67	19.76
12/02/2020 16:56:09	120220	12022020	165609	92.31	12.418792	-56.953737	92.37	1.710	-3.110	0.760	92.31	-4.30	1.20	 	 	 	 	 	 	 	 	 	 	 	 	 	 	 	 	 	 	1581526569	10.13	18.76
12/02/2020 16:56:10	120220	12022020	165610	92.37	12.418795	-56.953705	92.45	1.210	-0.490	0.380	92.37	-1.60	0.80	 	 	 	 	 	 	 	 	 	 	 	 	 	 	 	 	 	 	1581526570	6.82	12.63
12/02/2020 16:56:11	120220	12022020	165611	92.71	12.418800	-56.953685	92.88	-0.340	2.390	0.050	92.82	1.20	0.50	 	 	 	 	 	 	 	 	 	 	 	 	 	 	 	 	 	 	1581526571	4.48	8.30
12/02/2020 16:56:12	120220	12022020	165612	93.20	12.418802	-56.953662	93.24	-1.520	2.950	0.030	93.20	1.60	0.50	 	 	 	 	 	 	 	 	 	 	 	 	 	 	 	 	 	 	1581526572	5.00	9.26
12/02/2020 16:56:13	120220	12022020	165613	93.10	12.418798	-56.953625	93.09	-1.280	0.690	0.440	93.10	-0.70	0.90	 	 	 	 	 	 	 	 	 	 	 	 	 	 	 	 	 	 	1581526573	7.77	14.39
12/02/2020 16:56:14	120220	12022020	165614	92.59	12.418793	-56.953577	92.59	0.070	-2.320	0.970	92.59	-3.60	1.40	 	 	 	 	 	 	 	 	 	 	 	 	 	 	 	 	 	 	1581526574	10.17	18.83
12/02/2020 16:56:15	120220	12022020	165615	92.14	12.418790	-56.953530	92.19	1.270	-3.330	1.380	92.14	-4.50	1.80	 	 	 	 	 	 	 	 	 	 	 	 	 	 	 	 	 	 	1581526575	9.99	18.50
12/02/2020 16:56:16	120220	12022020	165616	92.19	12.418790	-56.953495	92.28	1.280	-1.570	1.390	92.19	-2.70	1.80	 	 	 	 	 	 	 	 	 	 	 	 	 	 	 	 	 	 	1581526576	7.45	13.80
12/02/2020 16:56:17	120220	12022020	165617	92.64	12.418792	-56.953470	92.73	0.230	1.060	1.290	92.64	-0.10	1.70	 	 	 	 	 	 	 	 	 	 	 	 	 	 	 	 	 	 	1581526577	5.13	9.50
12/02/2020 16:56:18	120220	12022020	165618	93.10	12.418790	-56.953447	93.17	-0.830	2.300	1.420	93.10	1.00	1.80	 	 	 	 	 	 	 	 	 	 	 	 	 	 	 	 	 	 	1581526578	5.09	9.43
12/02/2020 16:56:19	120220	12022020	165619	93.24	12.418787	-56.953413	93.26	-1.000	1.350	1.670	93.24	0.00	2.10	 	 	 	 	 	 	 	 	 	 	 	 	 	 	 	 	 	 	1581526579	6.96	12.89
12/02/2020 16:56:20	120220	12022020	165620	92.88	12.418782	-56.953372	92.88	-0.220	-0.740	1.860	92.88	-2.00	2.30	 	 	 	 	 	 	 	 	 	 	 	 	 	 	 	 	 	 	1581526580	9.01	16.69
12/02/2020 16:56:21	120220	12022020	165621	92.24	12.418778	-56.953327	92.27	0.600	-1.930	1.940	92.24	-3.20	2.40	 	 	 	 	 	 	 	 	 	 	 	 	 	 	 	 	 	 	1581526581	9.40	17.41
12/02/2020 16:56:22	120220	12022020	165622	91.92	12.418778	-56.953288	91.99	0.760	-1.330	1.670	91.92	-2.50	2.10	 	 	 	 	 	 	 	 	 	 	 	 	 	 	 	 	 	 	1581526582	7.92	14.67
12/02/2020 16:56:23	120220	12022020	165623	92.02	12.418782	-56.953260	92.08	0.250	0.270	1.070	92.02	-1.00	1.50	 	 	 	 	 	 	 	 	 	 	 	 	 	 	 	 	 	 	1581526583	6.18	11.45
12/02/2020 16:56:24	120220	12022020	165624	92.16	12.418787	-56.953233	92.17	-0.330	1.130	0.560	92.16	-0.10	1.00	 	 	 	 	 	 	 	 	 	 	 	 	 	 	 	 	 	 	1581526584	5.85	10.83
12/02/2020 16:56:25	120220	12022020	165625	92.20	12.418788	-56.953200	92.23	-0.390	0.460	0.440	92.21	-0.90	0.90	 	 	 	 	 	 	 	 	 	 	 	 	 	 	 	 	 	 	1581526585	7.03	13.02
12/02/2020 16:56:26	120220	12022020	165626	92.26	12.418787	-56.953158	92.28	0.160	-1.200	0.580	92.26	-2.50	1.00	 	 	 	 	 	 	 	 	 	 	 	 	 	 	 	 	 	 	1581526586	8.67	16.06
12/02/2020 16:56:27	120220	12022020	165627	92.19	12.418785	-56.953115	92.23	0.790	-2.060	1.050	92.19	-3.30	1.50	 	 	 	 	 	 	 	 	 	 	 	 	 	 	 	 	 	 	1581526587	9.27	17.17
12/02/2020 16:56:28	120220	12022020	165628	91.92	12.418780	-56.953077	91.96	0.740	-1.120	1.630	91.92	-2.30	2.10	 	 	 	 	 	 	 	 	 	 	 	 	 	 	 	 	 	 	1581526588	7.97	14.76
12/02/2020 16:56:29	120220	12022020	165629	91.64	12.418777	-56.953048	91.70	-0.020	0.650	1.940	91.64	-0.60	2.40	 	 	 	 	 	 	 	 	 	 	 	 	 	 	 	 	 	 	1581526589	6.27	11.61
12/02/2020 16:56:30	120220	12022020	165630	91.64	12.418777	-56.953020	91.72	-0.800	1.790	1.700	91.64	0.60	2.10	 	 	 	 	 	 	 	 	 	 	 	 	 	 	 	 	 	 	1581526590	5.89	10.91
12/02/2020 16:56:31	120220	12022020	165631	91.93	12.418777	-56.952988	91.99	-1.030	1.590	1.050	91.93	0.30	1.50	 	 	 	 	 	 	 	 	 	 	 	 	 	 	 	 	 	 	1581526591	6.72	12.45
12/02/2020 16:56:32	120220	12022020	165632	91.95	12.418780	-56.952950	91.95	-0.520	0.160	0.560	91.95	-1.10	1.00	 	 	 	 	 	 	 	 	 	 	 	 	 	 	 	 	 	 	1581526592	7.99	14.80
12/02/2020 16:56:33	120220	12022020	165633	91.56	12.418782	-56.952908	91.54	0.430	-1.580	0.480	91.56	-2.90	0.90	 	 	 	 	 	 	 	 	 	 	 	 	 	 	 	 	 	 	1581526593	8.98	16.63
12/02/2020 16:56:34	120220	12022020	165634	91.34	12.418785	-56.952865	91.38	1.160	-2.440	0.560	91.34	-3.70	1.00	 	 	 	 	 	 	 	 	 	 	 	 	 	 	 	 	 	 	1581526594	9.02	16.71
12/02/2020 16:56:35	120220	12022020	165635	91.75	12.418788	-56.952827	91.86	1.170	-1.830	0.660	91.75	-3.00	1.10	 	 	 	 	 	 	 	 	 	 	 	 	 	 	 	 	 	 	1581526595	8.09	14.98
12/02/2020 16:56:36	120220	12022020	165636	92.34	12.418788	-56.952795	92.43	0.420	-0.150	0.970	92.34	-1.40	1.40	 	 	 	 	 	 	 	 	 	 	 	 	 	 	 	 	 	 	1581526596	6.67	12.35
12/02/2020 16:56:37	120220	12022020	165637	92.50	12.418782	-56.952768	92.51	-0.530	1.370	1.640	92.48	0.10	2.10	 	 	 	 	 	 	 	 	 	 	 	 	 	 	 	 	 	 	1581526597	6.00	11.11
12/02/2020 16:56:38	120220	12022020	165638	92.17	12.418775	-56.952737	92.18	-0.990	1.690	2.390	92.17	0.40	2.80	 	 	 	 	 	 	 	 	 	 	 	 	 	 	 	 	 	 	1581526598	6.66	12.33
12/02/2020 16:56:39	120220	12022020	165639	91.90	12.418770	-56.952700	91.93	-0.660	0.630	2.440	91.90	-0.70	2.80	 	 	 	 	 	 	 	 	 	 	 	 	 	 	 	 	 	 	1581526599	7.91	14.65
12/02/2020 16:56:40	120220	12022020	165640	91.75	12.418772	-56.952658	91.76	0.130	-0.930	1.920	91.75	-2.20	2.30	 	 	 	 	 	 	 	 	 	 	 	 	 	 	 	 	 	 	1581526600	9.02	16.71
12/02/2020 16:56:41	120220	12022020	165641	91.60	12.418777	-56.952615	91.61	0.640	-1.710	1.300	91.60	-3.00	1.70	 	 	 	 	 	 	 	 	 	 	 	 	 	 	 	 	 	 	1581526601	9.11	16.87
12/02/2020 16:56:42	120220	12022020	165642	91.62	12.418782	-56.952577	91.65	0.440	-1.090	0.950	91.62	-2.30	1.40	 	 	 	 	 	 	 	 	 	 	 	 	 	 	 	 	 	 	1581526602	7.96	14.74
12/02/2020 16:56:43	120220	12022020	165643	91.98	12.418785	-56.952547	92.04	-0.190	0.370	0.800	91.98	-0.90	1.20	 	 	 	 	 	 	 	 	 	 	 	 	 	 	 	 	 	 	1581526603	6.41	11.87
12/02/2020 16:56:44	120220	12022020	165644	92.49	12.418785	-56.952518	92.52	-0.580	1.030	0.760	92.49	-0.20	1.20	 	 	 	 	 	 	 	 	 	 	 	 	 	 	 	 	 	 	1581526604	6.07	11.24
12/02/2020 16:56:45	120220	12022020	165645	92.63	12.418782	-56.952483	92.63	-0.280	0.020	0.950	92.63	-1.30	1.40	 	 	 	 	 	 	 	 	 	 	 	 	 	 	 	 	 	 	1581526605	7.61	14.09
12/02/2020 16:56:46	120220	12022020	165646	92.19	12.418777	-56.952440	92.17	0.330	-1.290	1.450	92.19	-2.60	1.90	 	 	 	 	 	 	 	 	 	 	 	 	 	 	 	 	 	 	1581526606	9.24	17.11
12/02/2020 16:56:47	120220	12022020	165647	91.54	12.418772	-56.952398	91.54	0.560	-1.180	1.760	91.54	-2.40	2.20	 	 	 	 	 	 	 	 	 	 	 	 	 	 	 	 	 	 	1581526607	8.73	16.17
12/02/2020 16:56:48	120220	12022020	165648	91.20	12.418772	-56.952365	91.23	0.160	0.120	1.550	91.20	-1.10	2.00	 	 	 	 	 	 	 	 	 	 	 	 	 	 	 	 	 	 	1581526608	6.91	12.80
12/02/2020 16:56:49	120220	12022020	165649	91.27	12.418775	-56.952337	91.28	-0.420	0.940	0.890	91.27	-0.30	1.30	 	 	 	 	 	 	 	 	 	 	 	 	 	 	 	 	 	 	1581526609	6.24	11.56
12/02/2020 16:56:50	120220	12022020	165650	91.32	12.418780	-56.952302	91.31	-0.550	0.380	0.300	91.32	-0.90	0.70	 	 	 	 	 	 	 	 	 	 	 	 	 	 	 	 	 	 	1581526610	7.37	13.65
12/02/2020 16:56:51	120220	12022020	165651	91.19	12.418783	-56.952260	91.16	-0.120	-0.780	0.250	91.19	-2.10	0.70	 	 	 	 	 	 	 	 	 	 	 	 	 	 	 	 	 	 	1581526611	8.68	16.08
12/02/2020 16:56:52	120220	12022020	165652	91.03	12.418782	-56.952218	91.01	0.510	-1.420	0.540	91.03	-2.70	1.00	 	 	 	 	 	 	 	 	 	 	 	 	 	 	 	 	 	 	1581526612	8.88	16.45
12/02/2020 16:56:53	120220	12022020	165653	91.04	12.418782	-56.952180	91.05	0.810	-1.110	0.650	91.04	-2.30	1.10	 	 	 	 	 	 	 	 	 	 	 	 	 	 	 	 	 	 	1581526613	8.20	15.19
12/02/2020 16:56:54	120220	12022020	165654	91.30	12.418785	-56.952145	91.32	0.480	-0.090	0.700	91.30	-1.30	1.10	 	 	 	 	 	 	 	 	 	 	 	 	 	 	 	 	 	 	1581526614	7.31	13.54
12/02/2020 16:56:55	120220	12022020	165655	91.60	12.418785	-56.952113	91.62	-0.310	0.970	1.180	91.60	-0.30	1.60	 	 	 	 	 	 	 	 	 	 	 	 	 	 	 	 	 	 	1581526615	6.65	12.32
12/02/2020 16:56:56	120220	12022020	165656	91.76	12.418778	-56.952082	91.77	-0.960	1.250	1.830	91.76	-0.00	2.30	 	 	 	 	 	 	 	 	 	 	 	 	 	 	 	 	 	 	1581526616	6.80	12.59
12/02/2020 16:56:57	120220	12022020	165657	91.63	12.418773	-56.952045	91.65	-0.890	0.250	2.090	91.63	-1.10	2.50	 	 	 	 	 	 	 	 	 	 	 	 	 	 	 	 	 	 	1581526617	7.81	14.46
12/02/2020 16:56:58	120220	12022020	165658	91.34	12.418772	-56.952003	91.36	-0.110	-1.320	1.870	91.34	-2.60	2.30	 	 	 	 	 	 	 	 	 	 	 	 	 	 	 	 	 	 	1581526618	9.07	16.80
12/02/2020 16:56:59	120220	12022020	165659	91.12	12.418773	-56.951960	91.16	0.620	-1.880	1.450	91.12	-3.10	1.90	 	 	 	 	 	 	 	 	 	 	 	 	 	 	 	 	 	 	1581526619	9.24	17.11
12/02/2020 16:57:00	120220	12022020	165700	91.24	12.418780	-56.951923	91.31	0.590	-0.790	0.950	91.24	-2.00	1.40	 	 	 	 	 	 	 	 	 	 	 	 	 	 	 	 	 	 	1581526620	7.79	14.43
12/02/2020 16:57:01	120220	12022020	165701	91.55	12.418783	-56.951893	91.72	0.020	0.550	0.520	91.63	-0.70	0.90	 	 	 	 	 	 	 	 	 	 	 	 	 	 	 	 	 	 	1581526621	6.39	11.83
12/02/2020 16:57:02	120220	12022020	165702	91.87	12.418785	-56.951860	91.94	-0.250	0.570	0.580	91.87	-0.70	1.00	1015.90	26.60	26.70	20.00	20.10	951.0	67.0	67.0	399.0	29.1	353.00	14.60	82.00	10.80	69216	14593.0	27.3	27.3	1581526622	6.85	12.69
12/02/2020 16:57:03	120220	12022020	165703	91.86	12.418782	-56.951820	91.91	0.010	-0.330	0.900	91.86	-1.60	1.30	 	 	 	 	 	 	 	 	 	 	 	 	 	 	 	 	 	 	1581526623	8.59	15.91
12/02/2020 16:57:04	120220	12022020	165704	91.85	12.418780	-56.951778	91.89	0.150	-0.500	1.010	91.85	-1.80	1.40	 	 	 	 	 	 	 	 	 	 	 	 	 	 	 	 	 	 	1581526624	8.82	16.33
12/02/2020 16:57:05	120220	12022020	165705	91.87	12.418780	-56.951743	91.90	-0.180	0.190	1.020	91.87	-1.10	1.40	 	 	 	 	 	 	 	 	 	 	 	 	 	 	 	 	 	 	1581526625	7.48	13.85
12/02/2020 16:57:06	120220	12022020	165706	91.75	12.418780	-56.951710	91.77	-0.560	0.490	1.070	91.75	-0.90	1.50	 	 	 	 	 	 	 	 	 	 	 	 	 	 	 	 	 	 	1581526626	6.81	12.61
12/02/2020 16:57:07	120220	12022020	165707	91.59	12.418778	-56.951673	91.60	-0.330	-0.490	0.950	91.59	-1.90	1.40	 	 	 	 	 	 	 	 	 	 	 	 	 	 	 	 	 	 	1581526627	7.88	14.59
12/02/2020 16:57:08	120220	12022020	165708	91.53	12.418780	-56.951630	91.56	0.420	-1.580	0.720	91.53	-2.90	1.20	 	 	 	 	 	 	 	 	 	 	 	 	 	 	 	 	 	 	1581526628	9.29	17.21
12/02/2020 16:57:09	120220	12022020	165709	91.59	12.418782	-56.951588	91.62	0.880	-1.300	0.650	91.59	-2.60	1.10	 	 	 	 	 	 	 	 	 	 	 	 	 	 	 	 	 	 	1581526629	8.82	16.33
12/02/2020 16:57:10	120220	12022020	165710	91.56	12.418782	-56.951553	91.55	0.530	0.030	0.820	91.56	-1.30	1.30	 	 	 	 	 	 	 	 	 	 	 	 	 	 	 	 	 	 	1581526630	7.25	13.43
12/02/2020 16:57:11	120220	12022020	165711	91.24	12.418783	-56.951522	91.23	-0.390	1.110	1.170	91.24	-0.20	1.60	 	 	 	 	 	 	 	 	 	 	 	 	 	 	 	 	 	 	1581526631	6.54	12.11
12/02/2020 16:57:12	120220	12022020	165712	90.94	12.418782	-56.951490	90.97	-1.200	1.270	1.520	90.94	-0.10	2.00	 	 	 	 	 	 	 	 	 	 	 	 	 	 	 	 	 	 	1581526632	7.03	13.02
12/02/2020 16:57:13	120220	12022020	165713	91.07	12.418778	-56.951452	91.13	-1.290	0.480	1.430	91.07	-0.90	1.80	 	 	 	 	 	 	 	 	 	 	 	 	 	 	 	 	 	 	1581526633	7.88	14.59
12/02/2020 16:57:14	120220	12022020	165714	91.32	12.418777	-56.951412	91.35	-0.520	-0.780	1.080	91.32	-2.10	1.50	 	 	 	 	 	 	 	 	 	 	 	 	 	 	 	 	 	 	1581526634	8.65	16.02
12/02/2020 16:57:15	120220	12022020	165715	91.19	12.418777	-56.951368	91.08	0.670	-1.910	0.990	91.10	-3.20	1.40	 	 	 	 	 	 	 	 	 	 	 	 	 	 	 	 	 	 	1581526635	9.01	16.69
12/02/2020 16:57:16	120220	12022020	165716	90.64	12.418778	-56.951327	90.63	1.540	-2.180	1.150	90.64	-3.50	1.60	 	 	 	 	 	 	 	 	 	 	 	 	 	 	 	 	 	 	1581526636	8.99	16.65
12/02/2020 16:57:17	120220	12022020	165717	90.45	12.418780	-56.951288	90.46	1.360	-0.930	1.330	90.45	-2.20	1.80	 	 	 	 	 	 	 	 	 	 	 	 	 	 	 	 	 	 	1581526637	8.07	14.95
12/02/2020 16:57:18	120220	12022020	165718	90.57	12.418783	-56.951258	90.59	0.170	1.270	1.250	90.57	-0.00	1.70	 	 	 	 	 	 	 	 	 	 	 	 	 	 	 	 	 	 	1581526638	6.42	11.89
12/02/2020 16:57:19	120220	12022020	165719	90.92	12.418787	-56.951230	90.95	-1.160	2.530	0.950	90.92	1.20	1.40	 	 	 	 	 	 	 	 	 	 	 	 	 	 	 	 	 	 	1581526639	5.77	10.69
12/02/2020 16:57:20	120220	12022020	165720	91.24	12.418788	-56.951197	91.26	-1.550	1.500	0.870	91.24	0.10	1.30	 	 	 	 	 	 	 	 	 	 	 	 	 	 	 	 	 	 	1581526640	7.19	13.32
12/02/2020 16:57:21	120220	12022020	165721	91.34	12.418785	-56.951152	91.34	-0.810	-0.880	0.960	91.34	-2.30	1.40	 	 	 	 	 	 	 	 	 	 	 	 	 	 	 	 	 	 	1581526641	9.41	17.43
12/02/2020 16:57:22	120220	12022020	165722	91.28	12.418783	-56.951105	91.30	0.310	-2.560	1.090	91.28	-3.90	1.50	 	 	 	 	 	 	 	 	 	 	 	 	 	 	 	 	 	 	1581526642	10.07	18.65
12/02/2020 16:57:23	120220	12022020	165723	91.20	12.418783	-56.951063	91.24	0.930	-2.230	1.100	91.20	-3.50	1.50	 	 	 	 	 	 	 	 	 	 	 	 	 	 	 	 	 	 	1581526643	8.83	16.35
12/02/2020 16:57:24	120220	12022020	165724	91.24	12.418785	-56.951030	91.28	0.660	-0.380	0.800	91.24	-1.60	1.20	 	 	 	 	 	 	 	 	 	 	 	 	 	 	 	 	 	 	1581526644	6.82	12.63
12/02/2020 16:57:25	120220	12022020	165725	91.39	12.418790	-56.951002	91.41	-0.060	1.160	0.410	91.39	-0.20	0.80	 	 	 	 	 	 	 	 	 	 	 	 	 	 	 	 	 	 	1581526645	6.03	11.17
12/02/2020 16:57:26	120220	12022020	165726	91.42	12.418792	-56.950970	91.42	-0.400	1.090	0.410	91.42	-0.30	0.90	 	 	 	 	 	 	 	 	 	 	 	 	 	 	 	 	 	 	1581526646	6.99	12.95
12/02/2020 16:57:27	120220	12022020	165727	91.37	12.418793	-56.950928	91.39	-0.080	-0.050	0.520	91.37	-1.40	1.00	 	 	 	 	 	 	 	 	 	 	 	 	 	 	 	 	 	 	1581526647	8.75	16.21
12/02/2020 16:57:28	120220	12022020	165728	91.64	12.418793	-56.950885	91.68	0.150	-0.530	0.570	91.64	-1.90	1.00	 	 	 	 	 	 	 	 	 	 	 	 	 	 	 	 	 	 	1581526648	9.08	16.82
12/02/2020 16:57:29	120220	12022020	165729	91.93	12.418792	-56.950848	92.07	-0.190	-0.150	0.840	92.00	-1.50	1.30	 	 	 	 	 	 	 	 	 	 	 	 	 	 	 	 	 	 	1581526649	7.77	14.39
12/02/2020 16:57:30	120220	12022020	165730	92.16	12.418790	-56.950817	92.19	-0.650	0.270	1.100	92.16	-1.10	1.50	 	 	 	 	 	 	 	 	 	 	 	 	 	 	 	 	 	 	1581526650	6.91	12.80
12/02/2020 16:57:31	120220	12022020	165731	91.98	12.418788	-56.950782	91.99	-0.480	-0.120	1.230	91.98	-1.50	1.70	 	 	 	 	 	 	 	 	 	 	 	 	 	 	 	 	 	 	1581526651	7.31	13.54
12/02/2020 16:57:32	120220	12022020	165732	91.68	12.418788	-56.950742	91.67	0.330	-1.140	1.220	91.68	-2.50	1.70	 	 	 	 	 	 	 	 	 	 	 	 	 	 	 	 	 	 	1581526652	8.50	15.74
12/02/2020 16:57:33	120220	12022020	165733	91.49	12.418792	-56.950698	91.49	1.080	-1.810	1.150	91.49	-3.10	1.60	 	 	 	 	 	 	 	 	 	 	 	 	 	 	 	 	 	 	1581526653	9.15	16.95
12/02/2020 16:57:34	120220	12022020	165734	91.52	12.418793	-56.950657	91.55	1.090	-1.320	1.020	91.52	-2.60	1.50	 	 	 	 	 	 	 	 	 	 	 	 	 	 	 	 	 	 	1581526654	8.57	15.87
12/02/2020 16:57:35	120220	12022020	165735	91.74	12.418793	-56.950623	91.76	0.360	0.120	0.920	91.74	-1.20	1.40	 	 	 	 	 	 	 	 	 	 	 	 	 	 	 	 	 	 	1581526655	7.31	13.54
12/02/2020 16:57:36	120220	12022020	165736	91.97	12.418793	-56.950592	91.98	-0.540	1.460	0.910	91.97	0.20	1.30	 	 	 	 	 	 	 	 	 	 	 	 	 	 	 	 	 	 	1581526656	6.60	12.22
12/02/2020 16:57:37	120220	12022020	165737	92.07	12.418792	-56.950558	92.07	-1.070	1.810	0.840	92.07	0.50	1.30	 	 	 	 	 	 	 	 	 	 	 	 	 	 	 	 	 	 	1581526657	6.93	12.83
12/02/2020 16:57:38	120220	12022020	165738	92.10	12.418792	-56.950522	92.11	-0.980	0.900	0.850	92.10	-0.50	1.30	 	 	 	 	 	 	 	 	 	 	 	 	 	 	 	 	 	 	1581526658	7.93	14.69
12/02/2020 16:57:39	120220	12022020	165739	92.06	12.418792	-56.950478	92.03	-0.520	-0.590	0.960	92.04	-2.00	1.40	 	 	 	 	 	 	 	 	 	 	 	 	 	 	 	 	 	 	1581526659	8.90	16.48
12/02/2020 16:57:40	120220	12022020	165740	91.90	12.418792	-56.950437	91.90	-0.010	-1.680	0.950	91.90	-3.00	1.40	 	 	 	 	 	 	 	 	 	 	 	 	 	 	 	 	 	 	1581526660	9.00	16.67
12/02/2020 16:57:41	120220	12022020	165741	91.67	12.418792	-56.950397	91.68	0.560	-2.000	1.110	91.67	-3.30	1.60	 	 	 	 	 	 	 	 	 	 	 	 	 	 	 	 	 	 	1581526661	8.46	15.67
12/02/2020 16:57:42	120220	12022020	165742	91.47	12.418792	-56.950358	91.51	1.180	-1.750	1.380	91.47	-3.10	1.80	 	 	 	 	 	 	 	 	 	 	 	 	 	 	 	 	 	 	1581526662	8.15	15.09
12/02/2020 16:57:43	120220	12022020	165743	91.58	12.418793	-56.950320	91.63	1.370	-0.920	1.240	91.58	-2.20	1.70	 	 	 	 	 	 	 	 	 	 	 	 	 	 	 	 	 	 	1581526663	8.13	15.06
12/02/2020 16:57:44	120220	12022020	165744	91.77	12.418795	-56.950283	91.81	0.700	0.450	1.060	91.77	-0.80	1.50	 	 	 	 	 	 	 	 	 	 	 	 	 	 	 	 	 	 	1581526664	7.61	14.09
12/02/2020 16:57:45	120220	12022020	165745	91.90	12.418795	-56.950252	91.91	-0.490	1.870	1.240	91.90	0.60	1.70	 	 	 	 	 	 	 	 	 	 	 	 	 	 	 	 	 	 	1581526665	6.87	12.72
12/02/2020 16:57:46	120220	12022020	165746	91.99	12.418793	-56.950220	92.02	-1.370	2.380	1.240	91.99	1.00	1.70	 	 	 	 	 	 	 	 	 	 	 	 	 	 	 	 	 	 	1581526666	6.71	12.43
12/02/2020 16:57:47	120220	12022020	165747	92.13	12.418795	-56.950183	92.14	-1.390	1.170	0.900	92.13	-0.20	1.30	 	 	 	 	 	 	 	 	 	 	 	 	 	 	 	 	 	 	1581526667	7.76	14.37
12/02/2020 16:57:48	120220	12022020	165748	92.18	12.418797	-56.950138	92.20	-0.640	-1.060	0.710	92.18	-2.40	1.20	 	 	 	 	 	 	 	 	 	 	 	 	 	 	 	 	 	 	1581526668	9.31	17.24
12/02/2020 16:57:49	120220	12022020	165749	92.20	12.418797	-56.950092	92.22	0.400	-2.880	0.620	92.20	-4.20	1.10	 	 	 	 	 	 	 	 	 	 	 	 	 	 	 	 	 	 	1581526669	9.91	18.35
12/02/2020 16:57:50	120220	12022020	165750	92.04	12.418797	-56.950048	92.05	1.140	-3.130	0.820	92.04	-4.40	1.30	 	 	 	 	 	 	 	 	 	 	 	 	 	 	 	 	 	 	1581526670	9.32	17.26
12/02/2020 16:57:51	120220	12022020	165751	91.84	12.418797	-56.950010	91.85	1.190	-1.570	0.990	91.80	-2.80	1.40	 	 	 	 	 	 	 	 	 	 	 	 	 	 	 	 	 	 	1581526671	7.89	14.61
12/02/2020 16:57:52	120220	12022020	165752	91.88	12.418797	-56.949980	91.97	0.580	0.810	0.770	91.88	-0.50	1.20	 	 	 	 	 	 	 	 	 	 	 	 	 	 	 	 	 	 	1581526672	6.57	12.17
12/02/2020 16:57:53	120220	12022020	165753	92.30	12.418798	-56.949950	92.37	-0.330	2.620	0.410	92.30	1.30	0.80	 	 	 	 	 	 	 	 	 	 	 	 	 	 	 	 	 	 	1581526673	6.07	11.24
12/02/2020 16:57:54	120220	12022020	165754	92.64	12.418802	-56.949918	92.66	-0.910	2.450	0.110	92.64	1.00	0.50	 	 	 	 	 	 	 	 	 	 	 	 	 	 	 	 	 	 	1581526674	6.90	12.78
12/02/2020 16:57:55	120220	12022020	165755	92.62	12.418803	-56.949877	92.62	-0.880	0.440	0.200	92.62	-1.00	0.70	 	 	 	 	 	 	 	 	 	 	 	 	 	 	 	 	 	 	1581526675	8.87	16.43
12/02/2020 16:57:56	120220	12022020	165756	92.45	12.418802	-56.949828	92.47	-0.480	-1.670	0.750	92.45	-3.00	1.20	 	 	 	 	 	 	 	 	 	 	 	 	 	 	 	 	 	 	1581526676	9.94	18.41
12/02/2020 16:57:57	120220	12022020	165757	92.29	12.418798	-56.949785	92.34	-0.010	-2.530	1.210	92.29	-3.80	1.60	 	 	 	 	 	 	 	 	 	 	 	 	 	 	 	 	 	 	1581526677	9.39	17.39
12/02/2020 16:57:58	120220	12022020	165758	92.09	12.418795	-56.949747	92.14	0.390	-2.060	1.420	92.09	-3.40	1.90	 	 	 	 	 	 	 	 	 	 	 	 	 	 	 	 	 	 	1581526678	8.17	15.13
12/02/2020 16:57:59	120220	12022020	165759	91.81	12.418792	-56.949710	91.86	0.660	-1.040	1.520	91.81	-2.40	1.90	 	 	 	 	 	 	 	 	 	 	 	 	 	 	 	 	 	 	1581526679	7.54	13.96
12/02/2020 16:58:00	120220	12022020	165800	91.79	12.418792	-56.949675	91.85	0.780	-0.010	1.150	91.79	-1.30	1.60	 	 	 	 	 	 	 	 	 	 	 	 	 	 	 	 	 	 	1581526680	7.64	14.15
12/02/2020 16:58:01	120220	12022020	165801	92.27	12.418795	-56.949638	92.35	0.540	1.140	0.370	92.27	-0.20	0.80	 	 	 	 	 	 	 	 	 	 	 	 	 	 	 	 	 	 	1581526681	7.75	14.35
12/02/2020 16:58:02	120220	12022020	165802	92.74	12.418800	-56.949605	92.75	-0.230	2.080	-0.020	92.74	0.80	0.40	1015.80	26.60	26.70	20.20	20.30	941.0	68.0	68.0	398.0	29.1	354.00	14.60	83.00	10.50	68754	9675.0	27.4	27.3	1581526682	7.24	13.41
12/02/2020 16:58:03	120220	12022020	165803	92.69	12.418803	-56.949570	92.65	-1.010	1.710	0.100	92.69	0.30	0.50	 	 	 	 	 	 	 	 	 	 	 	 	 	 	 	 	 	 	1581526683	7.19	13.32
12/02/2020 16:58:04	120220	12022020	165804	92.25	12.418802	-56.949530	92.22	-0.900	-0.520	0.480	92.25	-1.90	0.90	 	 	 	 	 	 	 	 	 	 	 	 	 	 	 	 	 	 	1581526684	8.66	16.04
12/02/2020 16:58:05	120220	12022020	165805	91.92	12.418800	-56.949480	91.95	0.150	-2.910	0.810	91.92	-4.30	1.20	 	 	 	 	 	 	 	 	 	 	 	 	 	 	 	 	 	 	1581526685	10.39	19.24
12/02/2020 16:58:06	120220	12022020	165806	91.89	12.418798	-56.949433	91.95	1.110	-3.150	0.890	91.89	-4.40	1.30	 	 	 	 	 	 	 	 	 	 	 	 	 	 	 	 	 	 	1581526686	9.87	18.28
12/02/2020 16:58:07	120220	12022020	165807	91.91	12.418797	-56.949398	91.97	0.990	-1.020	0.730	91.91	-2.30	1.10	 	 	 	 	 	 	 	 	 	 	 	 	 	 	 	 	 	 	1581526687	7.47	13.83
12/02/2020 16:58:08	120220	12022020	165808	91.79	12.418798	-56.949372	91.82	-0.050	1.490	0.680	91.79	0.20	1.10	 	 	 	 	 	 	 	 	 	 	 	 	 	 	 	 	 	 	1581526688	5.67	10.50
12/02/2020 16:58:09	120220	12022020	165809	91.68	12.418800	-56.949343	91.72	-1.100	2.350	0.740	91.68	1.00	1.20	 	 	 	 	 	 	 	 	 	 	 	 	 	 	 	 	 	 	1581526689	6.06	11.22
12/02/2020 16:58:10	120220	12022020	165810	91.76	12.418800	-56.949305	91.80	-1.230	0.990	0.760	91.76	-0.40	1.20	 	 	 	 	 	 	 	 	 	 	 	 	 	 	 	 	 	 	1581526690	7.98	14.78
12/02/2020 16:58:11	120220	12022020	165811	91.75	12.418800	-56.949258	91.80	-0.340	-1.310	0.950	91.75	-2.70	1.40	 	 	 	 	 	 	 	 	 	 	 	 	 	 	 	 	 	 	1581526691	10.01	18.54
12/02/2020 16:58:12	120220	12022020	165812	91.62	12.418797	-56.949210	91.68	0.590	-2.190	1.230	91.62	-3.50	1.60	 	 	 	 	 	 	 	 	 	 	 	 	 	 	 	 	 	 	1581526692	10.11	18.72
12/02/2020 16:58:13	120220	12022020	165813	91.59	12.418797	-56.949172	91.67	0.730	-0.960	1.330	91.59	-2.20	1.70	 	 	 	 	 	 	 	 	 	 	 	 	 	 	 	 	 	 	1581526693	7.95	14.72
12/02/2020 16:58:14	120220	12022020	165814	91.62	12.418797	-56.949143	91.68	0.230	0.750	1.200	91.62	-0.50	1.60	 	 	 	 	 	 	 	 	 	 	 	 	 	 	 	 	 	 	1581526694	6.16	11.41
12/02/2020 16:58:15	120220	12022020	165815	91.69	12.418800	-56.949112	91.74	-0.130	1.070	0.890	91.69	-0.30	1.30	 	 	 	 	 	 	 	 	 	 	 	 	 	 	 	 	 	 	1581526695	6.59	12.20
12/02/2020 16:58:16	120220	12022020	165816	91.86	12.418805	-56.949072	91.89	0.080	-0.050	0.530	91.86	-1.40	0.90	 	 	 	 	 	 	 	 	 	 	 	 	 	 	 	 	 	 	1581526696	8.48	15.70
12/02/2020 16:58:17	120220	12022020	165817	91.99	12.418808	-56.949028	92.04	0.410	-1.100	0.410	92.02	-2.40	0.80	 	 	 	 	 	 	 	 	 	 	 	 	 	 	 	 	 	 	1581526697	9.41	17.43
12/02/2020 16:58:18	120220	12022020	165818	92.08	12.418810	-56.948987	92.11	0.420	-1.090	0.670	92.08	-2.40	1.10	 	 	 	 	 	 	 	 	 	 	 	 	 	 	 	 	 	 	1581526698	8.67	16.06
12/02/2020 16:58:19	120220	12022020	165819	92.19	12.418808	-56.948952	92.24	0.080	-0.250	0.990	92.19	-1.50	1.40	 	 	 	 	 	 	 	 	 	 	 	 	 	 	 	 	 	 	1581526699	7.55	13.98
12/02/2020 16:58:20	120220	12022020	165820	92.46	12.418807	-56.948918	92.50	-0.460	0.600	1.080	92.46	-0.70	1.50	 	 	 	 	 	 	 	 	 	 	 	 	 	 	 	 	 	 	1581526700	6.94	12.85
12/02/2020 16:58:21	120220	12022020	165821	92.58	12.418807	-56.948883	92.61	-0.690	0.340	0.950	92.58	-1.00	1.40	 	 	 	 	 	 	 	 	 	 	 	 	 	 	 	 	 	 	1581526701	7.40	13.70
12/02/2020 16:58:22	120220	12022020	165822	92.37	12.418807	-56.948842	92.38	-0.290	-0.770	0.850	92.37	-2.10	1.30	 	 	 	 	 	 	 	 	 	 	 	 	 	 	 	 	 	 	1581526702	8.83	16.35
12/02/2020 16:58:23	120220	12022020	165823	92.23	12.418808	-56.948798	92.27	0.200	-1.110	0.760	92.23	-2.40	1.20	 	 	 	 	 	 	 	 	 	 	 	 	 	 	 	 	 	 	1581526703	9.26	17.15
12/02/2020 16:58:24	120220	12022020	165824	92.57	12.418810	-56.948760	92.63	0.210	-0.360	0.520	92.57	-1.70	0.90	 	 	 	 	 	 	 	 	 	 	 	 	 	 	 	 	 	 	1581526704	7.97	14.76
12/02/2020 16:58:25	120220	12022020	165825	93.05	12.418812	-56.948727	93.08	-0.050	0.170	0.260	93.05	-1.20	0.70	 	 	 	 	 	 	 	 	 	 	 	 	 	 	 	 	 	 	1581526705	7.21	13.35
12/02/2020 16:58:26	120220	12022020	165826	93.05	12.418810	-56.948688	93.07	0.050	-0.280	0.390	93.05	-1.60	0.80	 	 	 	 	 	 	 	 	 	 	 	 	 	 	 	 	 	 	1581526706	8.07	14.95
12/02/2020 16:58:27	120220	12022020	165827	92.83	12.418808	-56.948645	92.87	0.390	-0.540	0.540	92.83	-1.90	1.00	 	 	 	 	 	 	 	 	 	 	 	 	 	 	 	 	 	 	1581526707	9.08	16.82
12/02/2020 16:58:28	120220	12022020	165828	93.05	12.418810	-56.948607	93.12	0.300	0.320	0.540	93.05	-1.00	1.00	 	 	 	 	 	 	 	 	 	 	 	 	 	 	 	 	 	 	1581526708	8.11	15.02
12/02/2020 16:58:29	120220	12022020	165829	93.57	12.418810	-56.948575	93.65	-0.260	1.140	0.480	93.57	-0.20	0.90	 	 	 	 	 	 	 	 	 	 	 	 	 	 	 	 	 	 	1581526709	6.83	12.65
12/02/2020 16:58:30	120220	12022020	165830	93.79	12.418808	-56.948540	93.82	-0.550	0.400	0.520	93.79	-1.00	0.90	 	 	 	 	 	 	 	 	 	 	 	 	 	 	 	 	 	 	1581526710	7.35	13.61
12/02/2020 16:58:31	120220	12022020	165831	93.52	12.418807	-56.948495	93.53	-0.140	-1.410	0.960	93.52	-2.80	1.40	 	 	 	 	 	 	 	 	 	 	 	 	 	 	 	 	 	 	1581526711	9.27	17.17
12/02/2020 16:58:32	120220	12022020	165832	92.94	12.418802	-56.948450	92.97	0.500	-2.340	1.670	92.94	-3.70	2.10	 	 	 	 	 	 	 	 	 	 	 	 	 	 	 	 	 	 	1581526712	9.86	18.26
12/02/2020 16:58:33	120220	12022020	165833	92.58	12.418798	-56.948408	92.65	0.730	-1.540	1.850	92.58	-2.80	2.30	 	 	 	 	 	 	 	 	 	 	 	 	 	 	 	 	 	 	1581526713	8.64	16.00
12/02/2020 16:58:34	120220	12022020	165834	92.75	12.418798	-56.948375	92.83	0.300	0.320	1.480	92.75	-1.00	1.90	 	 	 	 	 	 	 	 	 	 	 	 	 	 	 	 	 	 	1581526714	7.08	13.11
12/02/2020 16:58:35	120220	12022020	165835	93.28	12.418800	-56.948345	93.35	-0.480	1.700	0.800	93.28	0.40	1.20	 	 	 	 	 	 	 	 	 	 	 	 	 	 	 	 	 	 	1581526715	6.45	11.95
12/02/2020 16:58:36	120220	12022020	165836	93.68	12.418802	-56.948310	93.71	-0.860	1.330	0.330	93.68	-0.00	0.80	 	 	 	 	 	 	 	 	 	 	 	 	 	 	 	 	 	 	1581526716	7.39	13.69
12/02/2020 16:58:37	120220	12022020	165837	93.53	12.418800	-56.948267	93.55	-0.440	-0.460	0.690	93.53	-1.80	1.10	 	 	 	 	 	 	 	 	 	 	 	 	 	 	 	 	 	 	1581526717	9.19	17.02
12/02/2020 16:58:38	120220	12022020	165838	93.00	12.418793	-56.948218	93.02	0.320	-1.830	1.360	93.00	-3.20	1.80	 	 	 	 	 	 	 	 	 	 	 	 	 	 	 	 	 	 	1581526718	10.17	18.83
12/02/2020 16:58:39	120220	12022020	165839	92.59	12.418790	-56.948177	92.67	0.600	-1.420	1.600	92.59	-2.70	2.00	 	 	 	 	 	 	 	 	 	 	 	 	 	 	 	 	 	 	1581526719	8.98	16.63
12/02/2020 16:58:40	120220	12022020	165840	92.46	12.418790	-56.948142	92.54	0.300	0.020	1.480	92.46	-1.30	1.90	 	 	 	 	 	 	 	 	 	 	 	 	 	 	 	 	 	 	1581526720	7.12	13.19
12/02/2020 16:58:41	120220	12022020	165841	92.47	12.418792	-56.948110	92.56	-0.010	0.760	1.170	92.47	-0.60	1.60	 	 	 	 	 	 	 	 	 	 	 	 	 	 	 	 	 	 	1581526721	6.81	12.61
12/02/2020 16:58:42	120220	12022020	165842	92.62	12.418795	-56.948072	92.70	0.010	0.200	0.810	92.62	-1.20	1.20	 	 	 	 	 	 	 	 	 	 	 	 	 	 	 	 	 	 	1581526722	8.22	15.22
12/02/2020 16:58:43	120220	12022020	165843	93.07	12.418795	-56.948028	93.18	0.020	-0.580	0.720	93.07	-1.90	1.20	 	 	 	 	 	 	 	 	 	 	 	 	 	 	 	 	 	 	1581526723	9.23	17.09
12/02/2020 16:58:44	120220	12022020	165844	93.41	12.418792	-56.947987	93.49	-0.170	-0.620	1.150	93.41	-1.90	1.60	 	 	 	 	 	 	 	 	 	 	 	 	 	 	 	 	 	 	1581526724	8.75	16.21
12/02/2020 16:58:45	120220	12022020	165845	93.27	12.418785	-56.947950	93.32	-0.330	-0.100	1.720	93.27	-1.40	2.20	 	 	 	 	 	 	 	 	 	 	 	 	 	 	 	 	 	 	1581526725	7.80	14.45
12/02/2020 16:58:46	120220	12022020	165846	92.76	12.418782	-56.947915	92.80	-0.240	0.250	1.920	92.76	-1.10	2.30	 	 	 	 	 	 	 	 	 	 	 	 	 	 	 	 	 	 	1581526726	7.56	14.00
12/02/2020 16:58:47	120220	12022020	165847	92.41	12.418782	-56.947877	92.46	-0.000	-0.010	1.700	92.41	-1.40	2.10	 	 	 	 	 	 	 	 	 	 	 	 	 	 	 	 	 	 	1581526727	8.01	14.83
12/02/2020 16:58:48	120220	12022020	165848	92.53	12.418785	-56.947835	92.61	0.300	-0.960	1.110	92.53	-2.30	1.50	 	 	 	 	 	 	 	 	 	 	 	 	 	 	 	 	 	 	1581526728	8.89	16.46
12/02/2020 16:58:49	120220	12022020	165849	92.79	12.418787	-56.947790	92.83	0.470	-1.570	0.680	92.79	-2.90	1.10	 	 	 	 	 	 	 	 	 	 	 	 	 	 	 	 	 	 	1581526729	9.50	17.59
12/02/2020 16:58:50	120220	12022020	165850	92.84	12.418787	-56.947748	92.86	0.310	-0.770	0.660	92.84	-2.10	1.10	 	 	 	 	 	 	 	 	 	 	 	 	 	 	 	 	 	 	1581526730	8.64	16.00
12/02/2020 16:58:51	120220	12022020	165851	92.70	12.418785	-56.947715	92.74	-0.130	0.830	0.860	92.70	-0.50	1.30	 	 	 	 	 	 	 	 	 	 	 	 	 	 	 	 	 	 	1581526731	7.06	13.08
12/02/2020 16:58:52	120220	12022020	165852	92.60	12.418783	-56.947683	92.64	-0.480	1.570	0.960	92.60	0.20	1.40	 	 	 	 	 	 	 	 	 	 	 	 	 	 	 	 	 	 	1581526732	6.77	12.54
12/02/2020 16:58:53	120220	12022020	165853	92.61	12.418783	-56.947645	92.64	-0.530	0.750	0.840	92.61	-0.60	1.30	 	 	 	 	 	 	 	 	 	 	 	 	 	 	 	 	 	 	1581526733	7.99	14.80
12/02/2020 16:58:54	120220	12022020	165854	92.60	12.418785	-56.947602	92.62	-0.170	-0.860	0.710	92.60	-2.20	1.10	 	 	 	 	 	 	 	 	 	 	 	 	 	 	 	 	 	 	1581526734	9.38	17.37
12/02/2020 16:58:55	120220	12022020	165855	92.51	12.418783	-56.947555	92.52	0.300	-1.850	0.800	92.51	-3.20	1.20	 	 	 	 	 	 	 	 	 	 	 	 	 	 	 	 	 	 	1581526735	9.73	18.02
12/02/2020 16:58:56	120220	12022020	165856	92.20	12.418782	-56.947513	92.22	0.470	-1.510	1.210	92.20	-2.80	1.60	 	 	 	 	 	 	 	 	 	 	 	 	 	 	 	 	 	 	1581526736	8.77	16.24
12/02/2020 16:58:57	120220	12022020	165857	91.75	12.418780	-56.947478	91.80	0.270	-0.470	1.420	91.75	-1.80	1.80	 	 	 	 	 	 	 	 	 	 	 	 	 	 	 	 	 	 	1581526737	7.69	14.24
12/02/2020 16:58:58	120220	12022020	165858	91.58	12.418780	-56.947442	91.64	-0.010	0.360	1.080	91.58	-1.00	1.50	 	 	 	 	 	 	 	 	 	 	 	 	 	 	 	 	 	 	1581526738	7.47	13.83
12/02/2020 16:58:59	120220	12022020	165859	91.79	12.418783	-56.947405	91.83	-0.170	0.550	0.560	91.79	-0.80	1.00	 	 	 	 	 	 	 	 	 	 	 	 	 	 	 	 	 	 	1581526739	8.07	14.95
12/02/2020 16:59:00	120220	12022020	165900	92.03	12.418785	-56.947363	92.07	-0.340	0.440	0.420	92.03	-0.90	0.90	 	 	 	 	 	 	 	 	 	 	 	 	 	 	 	 	 	 	1581526740	8.49	15.72
12/02/2020 16:59:01	120220	12022020	165901	92.03	12.418785	-56.947325	92.04	-0.500	0.280	0.690	92.03	-1.10	1.10	 	 	 	 	 	 	 	 	 	 	 	 	 	 	 	 	 	 	1581526741	8.31	15.39
12/02/2020 16:59:02	120220	12022020	165902	91.79	12.418782	-56.947285	91.78	-0.310	-0.280	1.080	91.79	-1.60	1.50	1015.70	26.60	26.70	20.20	20.30	930.0	68.0	68.0	398.0	29.1	351.00	15.60	80.00	11.40	68126	19816.0	27.4	27.4	1581526742	8.38	15.52
12/02/2020 16:59:03	120220	12022020	165903	91.57	12.418780	-56.947243	91.58	0.210	-1.040	1.260	91.57	-2.40	1.70	 	 	 	 	 	 	 	 	 	 	 	 	 	 	 	 	 	 	1581526743	8.99	16.65
12/02/2020 16:59:04	120220	12022020	165904	91.47	12.418782	-56.947200	91.48	0.600	-1.260	1.230	91.47	-2.60	1.70	 	 	 	 	 	 	 	 	 	 	 	 	 	 	 	 	 	 	1581526744	9.09	16.83
12/02/2020 16:59:05	120220	12022020	165905	91.49	12.418783	-56.947160	91.57	0.520	-0.810	1.200	91.51	-2.20	1.60	 	 	 	 	 	 	 	 	 	 	 	 	 	 	 	 	 	 	1581526745	8.46	15.67
12/02/2020 16:59:06	120220	12022020	165906	91.56	12.418785	-56.947122	91.61	0.110	-0.200	1.350	91.56	-1.50	1.80	 	 	 	 	 	 	 	 	 	 	 	 	 	 	 	 	 	 	1581526746	7.99	14.80
12/02/2020 16:59:07	120220	12022020	165907	91.57	12.418783	-56.947083	91.59	-0.190	0.090	1.460	91.56	-1.30	1.90	 	 	 	 	 	 	 	 	 	 	 	 	 	 	 	 	 	 	1581526747	8.15	15.09
12/02/2020 16:59:08	120220	12022020	165908	91.52	12.418783	-56.947043	91.57	-0.220	0.170	1.410	91.52	-1.20	1.80	 	 	 	 	 	 	 	 	 	 	 	 	 	 	 	 	 	 	1581526748	8.56	15.85
12/02/2020 16:59:09	120220	12022020	165909	91.47	12.418783	-56.947003	91.50	-0.280	0.500	1.350	91.47	-0.90	1.80	 	 	 	 	 	 	 	 	 	 	 	 	 	 	 	 	 	 	1581526749	8.48	15.70
12/02/2020 16:59:10	120220	12022020	165910	91.68	12.418783	-56.946965	91.72	-0.560	0.790	1.150	91.68	-0.60	1.60	 	 	 	 	 	 	 	 	 	 	 	 	 	 	 	 	 	 	1581526750	7.91	14.65
12/02/2020 16:59:11	120220	12022020	165911	92.10	12.418785	-56.946927	92.13	-0.640	0.170	0.770	92.10	-1.20	1.20	 	 	 	 	 	 	 	 	 	 	 	 	 	 	 	 	 	 	1581526751	8.08	14.96
12/02/2020 16:59:12	120220	12022020	165912	92.27	12.418785	-56.946883	92.28	-0.040	-1.430	0.580	92.27	-2.80	1.00	 	 	 	 	 	 	 	 	 	 	 	 	 	 	 	 	 	 	1581526752	9.34	17.30
12/02/2020 16:59:13	120220	12022020	165913	92.07	12.418785	-56.946835	92.09	0.800	-2.430	0.670	92.07	-3.80	1.10	 	 	 	 	 	 	 	 	 	 	 	 	 	 	 	 	 	 	1581526753	10.25	18.98
12/02/2020 16:59:14	120220	12022020	165914	91.89	12.418787	-56.946792	91.92	1.200	-1.540	0.860	91.89	-2.80	1.30	 	 	 	 	 	 	 	 	 	 	 	 	 	 	 	 	 	 	1581526754	9.14	16.93
12/02/2020 16:59:15	120220	12022020	165915	91.90	12.418788	-56.946757	91.91	0.590	0.360	1.000	91.90	-0.90	1.40	 	 	 	 	 	 	 	 	 	 	 	 	 	 	 	 	 	 	1581526755	7.28	13.48
12/02/2020 16:59:16	120220	12022020	165916	92.06	12.418788	-56.946723	92.11	-0.410	1.610	0.960	92.06	0.30	1.40	 	 	 	 	 	 	 	 	 	 	 	 	 	 	 	 	 	 	1581526756	6.92	12.82
12/02/2020 16:59:17	120220	12022020	165917	92.34	12.418790	-56.946687	92.37	-1.170	1.680	0.740	92.34	0.30	1.10	 	 	 	 	 	 	 	 	 	 	 	 	 	 	 	 	 	 	1581526757	7.77	14.39
12/02/2020 16:59:18	120220	12022020	165918	92.58	12.418790	-56.946647	92.59	-1.290	0.730	0.650	92.58	-0.70	1.10	 	 	 	 	 	 	 	 	 	 	 	 	 	 	 	 	 	 	1581526758	8.63	15.98
12/02/2020 16:59:19	120220	12022020	165919	92.58	12.418787	-56.946602	92.58	-0.660	-0.990	0.910	92.58	-2.40	1.30	 	 	 	 	 	 	 	 	 	 	 	 	 	 	 	 	 	 	1581526759	9.49	17.58
12/02/2020 16:59:20	120220	12022020	165920	92.22	12.418783	-56.946553	92.23	0.380	-2.500	1.310	92.22	-3.90	1.70	 	 	 	 	 	 	 	 	 	 	 	 	 	 	 	 	 	 	1581526760	10.20	18.89
12/02/2020 16:59:21	120220	12022020	165921	91.85	12.418782	-56.946507	91.88	1.070	-2.410	1.340	91.85	-3.70	1.70	 	 	 	 	 	 	 	 	 	 	 	 	 	 	 	 	 	 	1581526761	9.76	18.08
12/02/2020 16:59:22	120220	12022020	165922	91.77	12.418783	-56.946470	91.80	0.850	-0.490	1.100	91.77	-1.80	1.50	 	 	 	 	 	 	 	 	 	 	 	 	 	 	 	 	 	 	1581526762	7.94	14.70
12/02/2020 16:59:23	120220	12022020	165923	92.02	12.418785	-56.946440	92.06	-0.050	1.660	0.850	92.02	0.40	1.30	 	 	 	 	 	 	 	 	 	 	 	 	 	 	 	 	 	 	1581526763	6.45	11.95
12/02/2020 16:59:24	120220	12022020	165924	92.48	12.418787	-56.946407	92.52	-0.790	2.140	0.540	92.48	0.80	0.90	 	 	 	 	 	 	 	 	 	 	 	 	 	 	 	 	 	 	1581526764	6.77	12.54
12/02/2020 16:59:25	120220	12022020	165925	92.72	12.418785	-56.946365	92.70	-0.620	0.430	0.410	92.72	-1.00	0.80	 	 	 	 	 	 	 	 	 	 	 	 	 	 	 	 	 	 	1581526765	8.89	16.46
12/02/2020 16:59:26	120220	12022020	165926	92.46	12.418783	-56.946315	92.43	0.020	-1.330	0.730	92.46	-2.70	1.20	 	 	 	 	 	 	 	 	 	 	 	 	 	 	 	 	 	 	1581526766	10.50	19.45
12/02/2020 16:59:27	120220	12022020	165927	92.04	12.418782	-56.946270	92.03	0.380	-1.580	1.100	92.04	-2.90	1.50	 	 	 	 	 	 	 	 	 	 	 	 	 	 	 	 	 	 	1581526767	9.51	17.61
12/02/2020 16:59:28	120220	12022020	165928	91.91	12.418782	-56.946233	91.95	0.340	-0.860	1.050	91.91	-2.20	1.50	 	 	 	 	 	 	 	 	 	 	 	 	 	 	 	 	 	 	1581526768	7.95	14.72
12/02/2020 16:59:29	120220	12022020	165929	92.08	12.418785	-56.946197	92.10	0.190	-0.280	0.700	92.08	-1.60	1.10	 	 	 	 	 	 	 	 	 	 	 	 	 	 	 	 	 	 	1581526769	7.75	14.35
12/02/2020 16:59:30	120220	12022020	165930	92.21	12.418787	-56.946157	92.21	-0.020	-0.020	0.650	92.21	-1.40	1.10	 	 	 	 	 	 	 	 	 	 	 	 	 	 	 	 	 	 	1581526770	8.25	15.28
12/02/2020 16:59:31	120220	12022020	165931	92.25	12.418783	-56.946117	92.25	-0.200	0.040	1.000	92.25	-1.30	1.40	 	 	 	 	 	 	 	 	 	 	 	 	 	 	 	 	 	 	1581526771	8.49	15.72
12/02/2020 16:59:32	120220	12022020	165932	92.08	12.418780	-56.946077	92.05	-0.140	-0.060	1.390	92.08	-1.40	1.80	 	 	 	 	 	 	 	 	 	 	 	 	 	 	 	 	 	 	1581526772	8.58	15.89
12/02/2020 16:59:33	120220	12022020	165933	91.76	12.418778	-56.946035	91.77	0.190	-0.470	1.580	91.76	-1.80	2.00	 	 	 	 	 	 	 	 	 	 	 	 	 	 	 	 	 	 	1581526773	8.93	16.54
12/02/2020 16:59:34	120220	12022020	165934	91.66	12.418778	-56.945992	91.71	0.260	-0.520	1.580	91.66	-1.80	2.00	 	 	 	 	 	 	 	 	 	 	 	 	 	 	 	 	 	 	1581526774	9.12	16.89
12/02/2020 16:59:35	120220	12022020	165935	91.63	12.418778	-56.945952	91.66	-0.180	0.010	1.570	91.63	-1.30	2.00	 	 	 	 	 	 	 	 	 	 	 	 	 	 	 	 	 	 	1581526775	8.36	15.48
12/02/2020 16:59:36	120220	12022020	165936	91.54	12.418777	-56.945915	91.58	-0.550	0.470	1.450	91.54	-0.80	1.80	 	 	 	 	 	 	 	 	 	 	 	 	 	 	 	 	 	 	1581526776	7.79	14.43
12/02/2020 16:59:37	120220	12022020	165937	91.62	12.418778	-56.945877	91.65	-0.380	0.270	1.010	91.62	-1.10	1.40	 	 	 	 	 	 	 	 	 	 	 	 	 	 	 	 	 	 	1581526777	8.14	15.08
12/02/2020 16:59:38	120220	12022020	165938	91.87	12.418780	-56.945833	91.87	0.240	-0.510	0.710	91.87	-1.90	1.10	 	 	 	 	 	 	 	 	 	 	 	 	 	 	 	 	 	 	1581526778	9.06	16.78
12/02/2020 16:59:39	120220	12022020	165939	92.03	12.418783	-56.945788	92.03	0.880	-1.310	0.550	92.03	-2.70	1.00	 	 	 	 	 	 	 	 	 	 	 	 	 	 	 	 	 	 	1581526779	9.61	17.80
12/02/2020 16:59:40	120220	12022020	165940	92.08	12.418785	-56.945745	92.10	0.780	-1.030	0.770	92.08	-2.30	1.20	 	 	 	 	 	 	 	 	 	 	 	 	 	 	 	 	 	 	1581526780	9.15	16.95
12/02/2020 16:59:41	120220	12022020	165941	92.10	12.418783	-56.945708	92.16	-0.140	0.220	1.460	92.10	-1.10	1.90	 	 	 	 	 	 	 	 	 	 	 	 	 	 	 	 	 	 	1581526781	7.74	14.33
12/02/2020 16:59:42	120220	12022020	165942	92.22	12.418780	-56.945675	92.28	-1.030	1.030	1.810	92.22	-0.30	2.20	 	 	 	 	 	 	 	 	 	 	 	 	 	 	 	 	 	 	1581526782	7.12	13.19
12/02/2020 16:59:43	120220	12022020	165943	92.27	12.418777	-56.945637	92.30	-0.960	0.360	1.620	92.27	-1.00	2.00	 	 	 	 	 	 	 	 	 	 	 	 	 	 	 	 	 	 	1581526783	8.12	15.04
12/02/2020 16:59:44	120220	12022020	165944	92.21	12.418777	-56.945592	92.25	-0.150	-0.920	1.340	92.21	-2.40	1.70	 	 	 	 	 	 	 	 	 	 	 	 	 	 	 	 	 	 	1581526784	9.78	18.11
12/02/2020 16:59:45	120220	12022020	165945	92.16	12.418777	-56.945543	92.20	0.750	-1.600	1.090	92.17	-2.90	1.50	 	 	 	 	 	 	 	 	 	 	 	 	 	 	 	 	 	 	1581526785	10.04	18.59
12/02/2020 16:59:46	120220	12022020	165946	92.26	12.418780	-56.945502	92.28	0.730	-0.840	0.800	92.26	-2.00	1.20	 	 	 	 	 	 	 	 	 	 	 	 	 	 	 	 	 	 	1581526786	8.71	16.13
12/02/2020 16:59:47	120220	12022020	165947	92.30	12.418783	-56.945467	92.32	0.000	0.560	0.510	92.30	-0.60	0.90	 	 	 	 	 	 	 	 	 	 	 	 	 	 	 	 	 	 	1581526787	7.36	13.63
12/02/2020 16:59:48	120220	12022020	165948	92.17	12.418783	-56.945433	92.21	-0.740	1.220	0.570	92.17	-0.10	1.00	 	 	 	 	 	 	 	 	 	 	 	 	 	 	 	 	 	 	1581526788	7.31	13.54
12/02/2020 16:59:49	120220	12022020	165949	91.96	12.418782	-56.945393	91.98	-0.710	0.480	0.870	91.96	-1.00	1.30	 	 	 	 	 	 	 	 	 	 	 	 	 	 	 	 	 	 	1581526789	8.46	15.67
12/02/2020 16:59:50	120220	12022020	165950	91.97	12.418780	-56.945347	91.98	0.180	-1.080	0.640	91.97	-2.60	1.00	 	 	 	 	 	 	 	 	 	 	 	 	 	 	 	 	 	 	1581526790	9.94	18.41
12/02/2020 16:59:51	120220	12022020	165951	92.14	12.418782	-56.945298	92.16	1.020	-1.690	0.250	92.14	-3.00	0.70	 	 	 	 	 	 	 	 	 	 	 	 	 	 	 	 	 	 	1581526791	10.11	18.72
12/02/2020 16:59:52	120220	12022020	165952	92.25	12.418783	-56.945258	92.26	0.940	-0.600	0.310	92.25	-1.70	0.80	 	 	 	 	 	 	 	 	 	 	 	 	 	 	 	 	 	 	1581526792	8.31	15.39
12/02/2020 16:59:53	120220	12022020	165953	92.24	12.418785	-56.945227	92.24	0.050	0.870	0.670	92.24	-0.40	1.10	 	 	 	 	 	 	 	 	 	 	 	 	 	 	 	 	 	 	1581526793	6.83	12.65
12/02/2020 16:59:54	120220	12022020	165954	92.13	12.418783	-56.945192	92.12	-0.790	1.120	1.010	92.13	-0.30	1.50	 	 	 	 	 	 	 	 	 	 	 	 	 	 	 	 	 	 	1581526794	7.28	13.48
12/02/2020 16:59:55	120220	12022020	165955	91.96	12.418780	-56.945150	91.96	-0.900	0.020	1.320	91.96	-1.50	1.80	 	 	 	 	 	 	 	 	 	 	 	 	 	 	 	 	 	 	1581526795	8.87	16.43
12/02/2020 16:59:56	120220	12022020	165956	91.81	12.418778	-56.945103	91.82	-0.380	-1.270	1.420	91.81	-2.70	1.80	 	 	 	 	 	 	 	 	 	 	 	 	 	 	 	 	 	 	1581526796	9.84	18.22
12/02/2020 16:59:57	120220	12022020	165957	91.66	12.418777	-56.945060	91.65	0.230	-1.620	1.400	91.62	-2.90	1.80	 	 	 	 	 	 	 	 	 	 	 	 	 	 	 	 	 	 	1581526797	9.44	17.48
12/02/2020 16:59:58	120220	12022020	165958	91.41	12.418777	-56.945020	91.43	0.550	-0.970	1.360	91.41	-2.20	1.80	 	 	 	 	 	 	 	 	 	 	 	 	 	 	 	 	 	 	1581526798	8.42	15.59
12/02/2020 16:59:59	120220	12022020	165959	91.28	12.418777	-56.944982	91.27	0.500	-0.060	1.180	91.26	-1.30	1.60	 	 	 	 	 	 	 	 	 	 	 	 	 	 	 	 	 	 	1581526799	7.89	14.61
12/02/2020 17:00:00	120220	12022020	170000	91.23	12.418782	-56.944943	91.22	0.250	0.430	0.850	91.23	-0.90	1.20	 	 	 	 	 	 	 	 	 	 	 	 	 	 	 	 	 	 	1581526800	8.15	15.09
12/02/2020 17:00:01	120220	12022020	170001	91.29	12.418785	-56.944903	91.27	-0.010	0.400	0.700	91.29	-1.00	1.10	 	 	 	 	 	 	 	 	 	 	 	 	 	 	 	 	 	 	1581526801	8.66	16.04
12/02/2020 17:00:02	120220	12022020	170002	91.31	12.418787	-56.944860	91.28	-0.160	0.180	0.910	91.31	-1.20	1.40	1015.70	26.60	26.70	20.20	20.30	865.0	67.0	67.0	397.0	29.0	349.00	16.50	77.00	12.20	65325	9590.0	27.4	27.4	1581526802	8.89	16.46
12/02/2020 17:00:03	120220	12022020	170003	91.51	12.418785	-56.944820	91.48	-0.240	0.080	1.030	91.51	-1.30	1.50	 	 	 	 	 	 	 	 	 	 	 	 	 	 	 	 	 	 	1581526803	8.77	16.24
12/02/2020 17:00:04	120220	12022020	170004	91.76	12.418785	-56.944780	91.76	-0.280	-0.070	1.170	91.76	-1.50	1.60	 	 	 	 	 	 	 	 	 	 	 	 	 	 	 	 	 	 	1581526804	8.44	15.63
12/02/2020 17:00:05	120220	12022020	170005	91.84	12.418783	-56.944738	91.86	-0.060	-0.780	1.300	91.84	-2.20	1.70	 	 	 	 	 	 	 	 	 	 	 	 	 	 	 	 	 	 	1581526805	8.80	16.30
12/02/2020 17:00:06	120220	12022020	170006	91.74	12.418782	-56.944692	91.76	0.480	-1.600	1.460	91.74	-3.00	1.90	 	 	 	 	 	 	 	 	 	 	 	 	 	 	 	 	 	 	1581526806	9.63	17.83
12/02/2020 17:00:07	120220	12022020	170007	91.76	12.418782	-56.944648	91.76	0.730	-1.070	1.550	91.76	-2.20	1.90	 	 	 	 	 	 	 	 	 	 	 	 	 	 	 	 	 	 	1581526807	9.27	17.17
12/02/2020 17:00:08	120220	12022020	170008	91.99	12.418783	-56.944613	91.99	0.180	0.700	1.150	91.99	-0.40	1.50	 	 	 	 	 	 	 	 	 	 	 	 	 	 	 	 	 	 	1581526808	7.41	13.72
12/02/2020 17:00:09	120220	12022020	170009	92.23	12.418787	-56.944582	92.22	-0.760	1.790	0.670	92.23	0.40	1.10	 	 	 	 	 	 	 	 	 	 	 	 	 	 	 	 	 	 	1581526809	6.73	12.46
12/02/2020 17:00:10	120220	12022020	170010	92.38	12.418790	-56.944543	92.36	-1.130	0.940	0.420	92.38	-0.60	0.80	 	 	 	 	 	 	 	 	 	 	 	 	 	 	 	 	 	 	1581526810	8.12	15.04
12/02/2020 17:00:11	120220	12022020	170011	92.51	12.418792	-56.944497	92.50	-0.550	-1.100	0.280	92.51	-2.70	0.70	 	 	 	 	 	 	 	 	 	 	 	 	 	 	 	 	 	 	1581526811	9.94	18.41
12/02/2020 17:00:12	120220	12022020	170012	92.48	12.418790	-56.944447	92.48	0.580	-2.740	0.430	92.48	-4.20	0.90	 	 	 	 	 	 	 	 	 	 	 	 	 	 	 	 	 	 	1581526812	10.61	19.65
12/02/2020 17:00:13	120220	12022020	170013	92.21	12.418788	-56.944400	92.26	1.350	-2.550	0.840	92.21	-3.70	1.30	 	 	 	 	 	 	 	 	 	 	 	 	 	 	 	 	 	 	1581526813	9.78	18.11
12/02/2020 17:00:14	120220	12022020	170014	91.96	12.418787	-56.944363	92.01	1.000	-0.450	1.100	91.96	-1.50	1.50	 	 	 	 	 	 	 	 	 	 	 	 	 	 	 	 	 	 	1581526814	7.77	14.39
12/02/2020 17:00:15	120220	12022020	170015	91.98	12.418788	-56.944333	92.02	-0.220	1.780	0.940	91.98	0.60	1.30	 	 	 	 	 	 	 	 	 	 	 	 	 	 	 	 	 	 	1581526815	6.48	12.00
12/02/2020 17:00:16	120220	12022020	170016	92.26	12.418792	-56.944300	92.29	-1.330	2.520	0.600	92.26	1.10	1.00	 	 	 	 	 	 	 	 	 	 	 	 	 	 	 	 	 	 	1581526816	7.00	12.96
12/02/2020 17:00:17	120220	12022020	170017	92.54	12.418792	-56.944258	92.54	-1.440	1.370	0.380	92.54	-0.20	0.80	 	 	 	 	 	 	 	 	 	 	 	 	 	 	 	 	 	 	1581526817	8.64	16.00
12/02/2020 17:00:18	120220	12022020	170018	92.74	12.418790	-56.944212	92.72	-0.540	-0.690	0.250	92.74	-2.30	0.70	 	 	 	 	 	 	 	 	 	 	 	 	 	 	 	 	 	 	1581526818	10.07	18.65
12/02/2020 17:00:19	120220	12022020	170019	92.90	12.418790	-56.944162	92.90	0.640	-2.160	0.270	92.90	-3.60	0.70	 	 	 	 	 	 	 	 	 	 	 	 	 	 	 	 	 	 	1581526819	10.30	19.08
12/02/2020 17:00:20	120220	12022020	170020	92.94	12.418790	-56.944120	92.98	1.170	-1.940	0.530	92.94	-3.10	1.00	 	 	 	 	 	 	 	 	 	 	 	 	 	 	 	 	 	 	1581526820	9.13	16.91
12/02/2020 17:00:21	120220	12022020	170021	92.82	12.418788	-56.944085	92.83	0.700	-0.390	0.920	92.76	-1.50	1.40	 	 	 	 	 	 	 	 	 	 	 	 	 	 	 	 	 	 	1581526821	7.37	13.65
12/02/2020 17:00:22	120220	12022020	170022	92.45	12.418788	-56.944053	92.51	-0.200	0.960	1.180	92.45	-0.30	1.60	 	 	 	 	 	 	 	 	 	 	 	 	 	 	 	 	 	 	1581526822	6.68	12.37
12/02/2020 17:00:23	120220	12022020	170023	92.23	12.418788	-56.944017	92.27	-0.630	0.930	1.070	92.23	-0.50	1.40	 	 	 	 	 	 	 	 	 	 	 	 	 	 	 	 	 	 	1581526823	7.66	14.19
12/02/2020 17:00:24	120220	12022020	170024	92.12	12.418788	-56.943973	92.16	-0.280	-0.230	0.790	92.12	-1.70	1.20	 	 	 	 	 	 	 	 	 	 	 	 	 	 	 	 	 	 	1581526824	9.22	17.08
12/02/2020 17:00:25	120220	12022020	170025	92.10	12.418790	-56.943927	92.14	0.360	-1.300	0.440	92.10	-2.70	0.80	 	 	 	 	 	 	 	 	 	 	 	 	 	 	 	 	 	 	1581526825	9.92	18.37
12/02/2020 17:00:26	120220	12022020	170026	92.24	12.418793	-56.943882	92.26	0.580	-1.310	0.380	92.24	-2.60	0.90	 	 	 	 	 	 	 	 	 	 	 	 	 	 	 	 	 	 	1581526826	9.29	17.21
12/02/2020 17:00:27	120220	12022020	170027	92.35	12.418793	-56.943843	92.40	0.230	-0.530	0.980	92.35	-1.80	1.50	 	 	 	 	 	 	 	 	 	 	 	 	 	 	 	 	 	 	1581526827	8.13	15.06
12/02/2020 17:00:28	120220	12022020	170028	92.25	12.418788	-56.943807	92.31	-0.260	0.070	1.620	92.25	-1.20	2.10	 	 	 	 	 	 	 	 	 	 	 	 	 	 	 	 	 	 	1581526828	8.00	14.82
12/02/2020 17:00:29	120220	12022020	170029	91.99	12.418783	-56.943767	92.06	-0.510	0.370	1.840	91.99	-0.90	2.20	 	 	 	 	 	 	 	 	 	 	 	 	 	 	 	 	 	 	1581526829	8.50	15.74
12/02/2020 17:00:30	120220	12022020	170030	91.95	12.418782	-56.943727	91.98	-0.560	0.770	1.620	91.95	-0.50	2.00	 	 	 	 	 	 	 	 	 	 	 	 	 	 	 	 	 	 	1581526830	8.34	15.45
12/02/2020 17:00:31	120220	12022020	170031	92.36	12.418785	-56.943688	92.36	-0.430	0.760	0.910	92.36	-0.60	1.20	 	 	 	 	 	 	 	 	 	 	 	 	 	 	 	 	 	 	1581526831	8.13	15.06
12/02/2020 17:00:32	120220	12022020	170032	92.81	12.418788	-56.943647	92.81	0.030	-0.280	0.260	92.81	-1.80	0.70	 	 	 	 	 	 	 	 	 	 	 	 	 	 	 	 	 	 	1581526832	8.90	16.48
12/02/2020 17:00:33	120220	12022020	170033	92.84	12.418790	-56.943600	92.86	0.660	-1.590	0.290	92.84	-3.00	0.80	 	 	 	 	 	 	 	 	 	 	 	 	 	 	 	 	 	 	1581526833	9.88	18.30
12/02/2020 17:00:34	120220	12022020	170034	92.65	12.418788	-56.943555	92.70	0.930	-1.790	0.800	92.65	-3.00	1.30	 	 	 	 	 	 	 	 	 	 	 	 	 	 	 	 	 	 	1581526834	9.46	17.52
12/02/2020 17:00:35	120220	12022020	170035	92.49	12.418787	-56.943517	92.54	0.680	-0.620	1.200	92.49	-1.70	1.60	 	 	 	 	 	 	 	 	 	 	 	 	 	 	 	 	 	 	1581526835	8.02	14.85
12/02/2020 17:00:36	120220	12022020	170036	92.43	12.418787	-56.943483	92.46	0.160	0.750	1.140	92.43	-0.50	1.50	 	 	 	 	 	 	 	 	 	 	 	 	 	 	 	 	 	 	1581526836	7.11	13.17
12/02/2020 17:00:37	120220	12022020	170037	92.46	12.418790	-56.943448	92.49	-0.370	1.150	0.960	92.46	-0.20	1.40	 	 	 	 	 	 	 	 	 	 	 	 	 	 	 	 	 	 	1581526837	7.68	14.22
12/02/2020 17:00:38	120220	12022020	170038	92.62	12.418790	-56.943407	92.64	-0.720	0.390	0.880	92.62	-1.10	1.30	 	 	 	 	 	 	 	 	 	 	 	 	 	 	 	 	 	 	1581526838	8.73	16.17
12/02/2020 17:00:39	120220	12022020	170039	92.89	12.418788	-56.943362	92.93	-0.640	-0.930	0.990	92.89	-2.40	1.40	 	 	 	 	 	 	 	 	 	 	 	 	 	 	 	 	 	 	1581526839	9.62	17.82
12/02/2020 17:00:40	120220	12022020	170040	92.95	12.418783	-56.943315	93.00	-0.140	-1.710	1.290	92.95	-3.00	1.70	 	 	 	 	 	 	 	 	 	 	 	 	 	 	 	 	 	 	1581526840	9.77	18.09
12/02/2020 17:00:41	120220	12022020	170041	92.69	12.418780	-56.943273	92.76	0.450	-1.350	1.550	92.69	-2.60	2.00	 	 	 	 	 	 	 	 	 	 	 	 	 	 	 	 	 	 	1581526841	8.96	16.59
12/02/2020 17:00:42	120220	12022020	170042	92.31	12.418778	-56.943235	92.38	0.690	-0.340	1.470	92.31	-1.50	1.80	 	 	 	 	 	 	 	 	 	 	 	 	 	 	 	 	 	 	1581526842	8.10	15.00
12/02/2020 17:00:43	120220	12022020	170043	92.10	12.418782	-56.943197	92.15	0.410	0.670	1.090	92.10	-0.60	1.50	 	 	 	 	 	 	 	 	 	 	 	 	 	 	 	 	 	 	1581526843	7.90	14.63
12/02/2020 17:00:44	120220	12022020	170044	92.28	12.418785	-56.943160	92.28	-0.230	1.210	0.600	92.28	-0.10	0.90	 	 	 	 	 	 	 	 	 	 	 	 	 	 	 	 	 	 	1581526844	8.00	14.82
12/02/2020 17:00:45	120220	12022020	170045	92.66	12.418790	-56.943120	92.66	-0.710	0.850	0.110	92.66	-0.60	0.50	 	 	 	 	 	 	 	 	 	 	 	 	 	 	 	 	 	 	1581526845	8.39	15.54
12/02/2020 17:00:46	120220	12022020	170046	92.75	12.418790	-56.943077	92.78	-0.540	-0.460	0.260	92.75	-2.00	0.70	 	 	 	 	 	 	 	 	 	 	 	 	 	 	 	 	 	 	1581526846	9.28	17.19
12/02/2020 17:00:47	120220	12022020	170047	92.66	12.418787	-56.943030	92.69	0.100	-1.680	0.780	92.65	-3.10	1.30	 	 	 	 	 	 	 	 	 	 	 	 	 	 	 	 	 	 	1581526847	9.94	18.41
12/02/2020 17:00:48	120220	12022020	170048	92.54	12.418782	-56.942985	92.59	0.630	-1.730	1.230	92.54	-2.90	1.70	 	 	 	 	 	 	 	 	 	 	 	 	 	 	 	 	 	 	1581526848	9.36	17.33
12/02/2020 17:00:49	120220	12022020	170049	92.28	12.418780	-56.942947	92.34	0.680	-0.750	1.490	92.28	-1.90	1.90	 	 	 	 	 	 	 	 	 	 	 	 	 	 	 	 	 	 	1581526849	8.21	15.20
12/02/2020 17:00:50	120220	12022020	170050	91.99	12.418780	-56.942910	92.04	0.340	0.280	1.430	91.99	-1.00	1.80	 	 	 	 	 	 	 	 	 	 	 	 	 	 	 	 	 	 	1581526850	7.74	14.33
12/02/2020 17:00:51	120220	12022020	170051	91.95	12.418782	-56.942870	91.98	-0.080	0.630	1.070	91.95	-0.70	1.40	 	 	 	 	 	 	 	 	 	 	 	 	 	 	 	 	 	 	1581526851	8.30	15.37
12/02/2020 17:00:52	120220	12022020	170052	92.17	12.418785	-56.942828	92.18	-0.410	0.430	0.720	92.17	-0.90	1.10	 	 	 	 	 	 	 	 	 	 	 	 	 	 	 	 	 	 	1581526852	8.94	16.56
12/02/2020 17:00:53	120220	12022020	170053	92.47	12.418787	-56.942785	92.49	-0.630	0.110	0.580	92.47	-1.30	1.00	 	 	 	 	 	 	 	 	 	 	 	 	 	 	 	 	 	 	1581526853	9.06	16.78
12/02/2020 17:00:54	120220	12022020	170054	92.73	12.418785	-56.942743	92.76	-0.650	-0.210	0.810	92.73	-1.60	1.30	 	 	 	 	 	 	 	 	 	 	 	 	 	 	 	 	 	 	1581526854	8.84	16.37
12/02/2020 17:00:55	120220	12022020	170055	92.86	12.418780	-56.942702	92.90	-0.300	-0.680	1.170	92.86	-2.10	1.60	 	 	 	 	 	 	 	 	 	 	 	 	 	 	 	 	 	 	1581526855	8.92	16.52
12/02/2020 17:00:56	120220	12022020	170056	92.90	12.418777	-56.942658	92.95	0.440	-1.150	1.120	92.90	-2.50	1.50	 	 	 	 	 	 	 	 	 	 	 	 	 	 	 	 	 	 	1581526856	9.24	17.11
12/02/2020 17:00:57	120220	12022020	170057	92.66	12.418777	-56.942615	92.71	1.100	-1.150	1.090	92.66	-2.40	1.50	 	 	 	 	 	 	 	 	 	 	 	 	 	 	 	 	 	 	1581526857	9.23	17.09
12/02/2020 17:00:58	120220	12022020	170058	92.28	12.418780	-56.942573	92.31	1.070	-0.510	1.030	92.28	-1.70	1.40	 	 	 	 	 	 	 	 	 	 	 	 	 	 	 	 	 	 	1581526858	8.81	16.32
12/02/2020 17:00:59	120220	12022020	170059	92.27	12.418785	-56.942535	92.30	0.190	0.510	0.750	92.27	-0.70	1.10	 	 	 	 	 	 	 	 	 	 	 	 	 	 	 	 	 	 	1581526859	8.24	15.26
12/02/2020 17:01:00	120220	12022020	170100	92.76	12.418787	-56.942498	92.78	-0.910	1.140	0.750	92.76	-0.20	1.20	 	 	 	 	 	 	 	 	 	 	 	 	 	 	 	 	 	 	1581526860	7.80	14.45
12/02/2020 17:01:01	120220	12022020	170101	93.30	12.418782	-56.942458	93.30	-1.280	0.610	0.960	93.30	-0.90	1.40	 	 	 	 	 	 	 	 	 	 	 	 	 	 	 	 	 	 	1581526861	8.45	15.65
12/02/2020 17:01:02	120220	12022020	170102	93.24	12.418777	-56.942412	93.28	-0.530	-0.960	1.310	93.24	-2.50	1.80	1015.60	26.60	26.70	20.00	20.00	937.0	67.0	67.0	397.0	29.0	348.00	16.90	76.00	12.50	68634	13498.0	27.4	27.4	1581526862	9.93	18.39
12/02/2020 17:01:03	120220	12022020	170103	92.83	12.418772	-56.942362	92.90	0.470	-1.900	1.780	92.83	-3.20	2.20	 	 	 	 	 	 	 	 	 	 	 	 	 	 	 	 	 	 	1581526863	10.50	19.45
12/02/2020 17:01:04	120220	12022020	170104	92.76	12.418768	-56.942318	92.81	0.680	-1.170	1.870	92.76	-2.30	2.20	 	 	 	 	 	 	 	 	 	 	 	 	 	 	 	 	 	 	1581526864	9.13	16.91
12/02/2020 17:01:05	120220	12022020	170105	93.12	12.418768	-56.942283	93.16	0.050	0.530	1.340	93.12	-0.60	1.70	 	 	 	 	 	 	 	 	 	 	 	 	 	 	 	 	 	 	1581526865	7.38	13.67
12/02/2020 17:01:06	120220	12022020	170106	93.51	12.418772	-56.942250	93.53	-0.570	1.540	0.770	93.51	0.20	1.10	 	 	 	 	 	 	 	 	 	 	 	 	 	 	 	 	 	 	1581526866	7.02	13.00
12/02/2020 17:01:07	120220	12022020	170107	93.62	12.418773	-56.942212	93.65	-0.490	0.770	0.600	93.62	-0.80	1.00	 	 	 	 	 	 	 	 	 	 	 	 	 	 	 	 	 	 	1581526867	8.40	15.56
12/02/2020 17:01:08	120220	12022020	170108	93.29	12.418770	-56.942163	93.34	0.210	-1.050	0.820	93.29	-2.60	1.30	 	 	 	 	 	 	 	 	 	 	 	 	 	 	 	 	 	 	1581526868	10.22	18.93
12/02/2020 17:01:09	120220	12022020	170109	92.98	12.418768	-56.942113	93.06	0.780	-1.960	0.880	92.98	-3.30	1.30	 	 	 	 	 	 	 	 	 	 	 	 	 	 	 	 	 	 	1581526869	10.43	19.32
12/02/2020 17:01:10	120220	12022020	170110	93.01	12.418768	-56.942072	93.08	0.690	-1.230	0.820	93.01	-2.40	1.30	 	 	 	 	 	 	 	 	 	 	 	 	 	 	 	 	 	 	1581526870	8.81	16.32
12/02/2020 17:01:11	120220	12022020	170111	93.08	12.418768	-56.942037	93.16	0.150	0.120	0.980	93.08	-1.00	1.40	 	 	 	 	 	 	 	 	 	 	 	 	 	 	 	 	 	 	1581526871	7.49	13.87
12/02/2020 17:01:12	120220	12022020	170112	92.97	12.418767	-56.942000	93.03	-0.330	0.830	1.110	92.97	-0.50	1.50	 	 	 	 	 	 	 	 	 	 	 	 	 	 	 	 	 	 	1581526872	7.62	14.11
12/02/2020 17:01:13	120220	12022020	170113	92.81	12.418765	-56.941958	92.88	-0.460	0.500	1.270	92.81	-0.90	1.70	 	 	 	 	 	 	 	 	 	 	 	 	 	 	 	 	 	 	1581526873	8.69	16.09
12/02/2020 17:01:14	120220	12022020	170114	92.67	12.418762	-56.941913	92.74	-0.400	-0.220	1.590	92.67	-1.60	2.00	 	 	 	 	 	 	 	 	 	 	 	 	 	 	 	 	 	 	1581526874	9.53	17.65
12/02/2020 17:01:15	120220	12022020	170115	92.47	12.418758	-56.941870	92.55	-0.380	-0.460	1.670	92.47	-1.80	2.10	 	 	 	 	 	 	 	 	 	 	 	 	 	 	 	 	 	 	1581526875	9.24	17.11
12/02/2020 17:01:16	120220	12022020	170116	92.14	12.418755	-56.941830	92.22	-0.370	-0.360	1.720	92.14	-1.70	2.10	 	 	 	 	 	 	 	 	 	 	 	 	 	 	 	 	 	 	1581526876	8.58	15.89
12/02/2020 17:01:17	120220	12022020	170117	91.82	12.418753	-56.941790	91.89	-0.190	-0.410	1.840	91.82	-1.80	2.30	 	 	 	 	 	 	 	 	 	 	 	 	 	 	 	 	 	 	1581526877	8.58	15.89
12/02/2020 17:01:18	120220	12022020	170118	91.70	12.418752	-56.941747	91.75	0.130	-0.660	1.670	91.70	-2.00	2.00	 	 	 	 	 	 	 	 	 	 	 	 	 	 	 	 	 	 	1581526878	8.94	16.56
12/02/2020 17:01:19	120220	12022020	170119	91.60	12.418753	-56.941703	91.62	0.470	-0.830	1.270	91.60	-2.20	1.70	 	 	 	 	 	 	 	 	 	 	 	 	 	 	 	 	 	 	1581526879	9.15	16.95
12/02/2020 17:01:20	120220	12022020	170120	91.33	12.418753	-56.941662	91.34	0.740	-0.650	1.150	91.33	-1.90	1.60	 	 	 	 	 	 	 	 	 	 	 	 	 	 	 	 	 	 	1581526880	9.03	16.72
12/02/2020 17:01:21	120220	12022020	170121	91.24	12.418755	-56.941620	91.22	0.770	-0.060	1.160	91.24	-1.30	1.60	 	 	 	 	 	 	 	 	 	 	 	 	 	 	 	 	 	 	1581526881	8.67	16.06
12/02/2020 17:01:22	120220	12022020	170122	91.47	12.418758	-56.941582	91.43	0.310	0.620	1.030	91.47	-0.70	1.40	 	 	 	 	 	 	 	 	 	 	 	 	 	 	 	 	 	 	1581526882	8.24	15.26
12/02/2020 17:01:23	120220	12022020	170123	91.63	12.418760	-56.941542	91.60	-0.410	0.640	1.150	91.63	-0.80	1.60	 	 	 	 	 	 	 	 	 	 	 	 	 	 	 	 	 	 	1581526883	8.23	15.24
12/02/2020 17:01:24	120220	12022020	170124	91.45	12.418758	-56.941500	91.43	-0.750	-0.170	1.660	91.45	-1.60	2.10	 	 	 	 	 	 	 	 	 	 	 	 	 	 	 	 	 	 	1581526884	9.08	16.82
12/02/2020 17:01:25	120220	12022020	170125	91.29	12.418753	-56.941453	91.28	-0.560	-0.930	2.020	91.28	-2.30	2.50	 	 	 	 	 	 	 	 	 	 	 	 	 	 	 	 	 	 	1581526885	9.68	17.93
12/02/2020 17:01:26	120220	12022020	170126	91.27	12.418750	-56.941410	91.27	-0.180	-1.050	2.040	91.27	-2.40	2.40	 	 	 	 	 	 	 	 	 	 	 	 	 	 	 	 	 	 	1581526886	9.23	17.09
12/02/2020 17:01:27	120220	12022020	170127	91.28	12.418750	-56.941368	91.26	0.140	-0.800	1.760	91.28	-2.10	2.10	 	 	 	 	 	 	 	 	 	 	 	 	 	 	 	 	 	 	1581526887	8.77	16.24
12/02/2020 17:01:28	120220	12022020	170128	91.25	12.418752	-56.941328	91.21	0.320	-0.410	1.310	91.25	-1.70	1.70	 	 	 	 	 	 	 	 	 	 	 	 	 	 	 	 	 	 	1581526888	8.71	16.13
12/02/2020 17:01:29	120220	12022020	170129	91.19	12.418755	-56.941287	91.16	0.310	-0.030	1.050	91.19	-1.30	1.50	 	 	 	 	 	 	 	 	 	 	 	 	 	 	 	 	 	 	1581526889	8.65	16.02
12/02/2020 17:01:30	120220	12022020	170130	91.21	12.418757	-56.941245	91.17	0.230	0.060	0.940	91.21	-1.30	1.40	 	 	 	 	 	 	 	 	 	 	 	 	 	 	 	 	 	 	1581526890	8.77	16.24
12/02/2020 17:01:31	120220	12022020	170131	91.25	12.418758	-56.941202	91.21	0.160	-0.080	0.780	91.25	-1.40	1.20	 	 	 	 	 	 	 	 	 	 	 	 	 	 	 	 	 	 	1581526891	9.16	16.96
12/02/2020 17:01:32	120220	12022020	170132	91.28	12.418762	-56.941158	91.25	-0.020	-0.040	0.800	91.28	-1.40	1.30	 	 	 	 	 	 	 	 	 	 	 	 	 	 	 	 	 	 	1581526892	9.13	16.91
12/02/2020 17:01:33	120220	12022020	170133	91.59	12.418762	-56.941118	91.56	-0.380	0.260	0.970	91.59	-1.10	1.40	 	 	 	 	 	 	 	 	 	 	 	 	 	 	 	 	 	 	1581526893	8.62	15.96
12/02/2020 17:01:34	120220	12022020	170134	92.08	12.418758	-56.941078	92.05	-0.710	0.420	1.130	92.08	-1.00	1.60	 	 	 	 	 	 	 	 	 	 	 	 	 	 	 	 	 	 	1581526894	8.27	15.32
12/02/2020 17:01:35	120220	12022020	170135	92.17	12.418755	-56.941038	92.17	-0.510	-0.340	1.450	92.17	-1.90	1.90	 	 	 	 	 	 	 	 	 	 	 	 	 	 	 	 	 	 	1581526895	8.82	16.33
12/02/2020 17:01:36	120220	12022020	170136	91.60	12.418750	-56.940990	91.62	0.260	-1.660	1.750	91.60	-3.20	2.20	 	 	 	 	 	 	 	 	 	 	 	 	 	 	 	 	 	 	1581526896	10.11	18.72
12/02/2020 17:01:37	120220	12022020	170137	90.92	12.418750	-56.940942	90.81	0.930	-1.970	1.750	90.78	-3.20	2.10	 	 	 	 	 	 	 	 	 	 	 	 	 	 	 	 	 	 	1581526897	10.15	18.80
12/02/2020 17:01:38	120220	12022020	170138	90.42	12.418753	-56.940900	90.44	0.880	-0.660	1.270	90.42	-1.80	1.60	 	 	 	 	 	 	 	 	 	 	 	 	 	 	 	 	 	 	1581526898	8.77	16.24
12/02/2020 17:01:39	120220	12022020	170139	90.76	12.418760	-56.940867	90.73	0.120	1.070	0.580	90.76	-0.20	0.90	 	 	 	 	 	 	 	 	 	 	 	 	 	 	 	 	 	 	1581526899	7.47	13.83
12/02/2020 17:01:40	120220	12022020	170140	91.26	12.418765	-56.940830	91.22	-0.710	1.500	0.280	91.26	0.00	0.70	 	 	 	 	 	 	 	 	 	 	 	 	 	 	 	 	 	 	1581526900	7.70	14.26
12/02/2020 17:01:41	120220	12022020	170141	91.40	12.418763	-56.940785	91.37	-0.880	0.190	0.600	91.40	-1.40	1.10	 	 	 	 	 	 	 	 	 	 	 	 	 	 	 	 	 	 	1581526901	9.44	17.48
12/02/2020 17:01:42	120220	12022020	170142	91.14	12.418757	-56.940735	91.13	-0.410	-1.250	1.180	91.14	-2.70	1.70	 	 	 	 	 	 	 	 	 	 	 	 	 	 	 	 	 	 	1581526902	10.74	19.89
12/02/2020 17:01:43	120220	12022020	170143	90.81	12.418753	-56.940688	90.80	0.040	-1.190	1.640	90.81	-2.40	2.10	 	 	 	 	 	 	 	 	 	 	 	 	 	 	 	 	 	 	1581526903	9.78	18.11
12/02/2020 17:01:44	120220	12022020	170144	90.85	12.418752	-56.940650	90.82	-0.010	-0.090	1.550	90.85	-1.30	1.90	 	 	 	 	 	 	 	 	 	 	 	 	 	 	 	 	 	 	1581526904	8.01	14.83
12/02/2020 17:01:45	120220	12022020	170145	91.08	12.418753	-56.940615	91.02	-0.280	0.610	1.130	91.08	-0.80	1.50	 	 	 	 	 	 	 	 	 	 	 	 	 	 	 	 	 	 	1581526905	7.56	14.00
12/02/2020 17:01:46	120220	12022020	170146	91.02	12.418757	-56.940575	90.97	-0.180	0.030	0.890	91.02	-1.50	1.30	 	 	 	 	 	 	 	 	 	 	 	 	 	 	 	 	 	 	1581526906	8.61	15.95
12/02/2020 17:01:47	120220	12022020	170147	90.52	12.418757	-56.940527	90.50	0.350	-1.160	1.200	90.52	-2.60	1.70	 	 	 	 	 	 	 	 	 	 	 	 	 	 	 	 	 	 	1581526907	10.06	18.63
12/02/2020 17:01:48	120220	12022020	170148	89.96	12.418755	-56.940480	89.95	0.640	-1.440	1.580	89.96	-2.70	2.00	 	 	 	 	 	 	 	 	 	 	 	 	 	 	 	 	 	 	1581526908	10.05	18.61
12/02/2020 17:01:49	120220	12022020	170149	90.01	12.418757	-56.940438	89.97	0.390	-0.350	1.400	90.01	-1.50	1.80	 	 	 	 	 	 	 	 	 	 	 	 	 	 	 	 	 	 	1581526909	8.58	15.89
12/02/2020 17:01:50	120220	12022020	170150	90.67	12.418760	-56.940403	90.61	-0.110	0.930	0.890	90.67	-0.40	1.30	 	 	 	 	 	 	 	 	 	 	 	 	 	 	 	 	 	 	1581526910	7.48	13.85
12/02/2020 17:01:51	120220	12022020	170151	91.17	12.418763	-56.940365	91.14	-0.400	1.010	0.720	91.17	-0.50	1.20	 	 	 	 	 	 	 	 	 	 	 	 	 	 	 	 	 	 	1581526911	7.97	14.76
12/02/2020 17:01:52	120220	12022020	170152	90.98	12.418762	-56.940322	90.98	-0.280	-0.110	1.230	90.98	-1.70	1.80	 	 	 	 	 	 	 	 	 	 	 	 	 	 	 	 	 	 	1581526912	9.41	17.43
12/02/2020 17:01:53	120220	12022020	170153	90.40	12.418758	-56.940273	90.41	0.050	-1.310	2.040	90.40	-2.80	2.60	 	 	 	 	 	 	 	 	 	 	 	 	 	 	 	 	 	 	1581526913	10.21	18.91
12/02/2020 17:01:54	120220	12022020	170154	90.02	12.418755	-56.940227	90.03	0.320	-1.580	2.410	90.02	-2.90	2.80	 	 	 	 	 	 	 	 	 	 	 	 	 	 	 	 	 	 	1581526914	9.78	18.11
12/02/2020 17:01:55	120220	12022020	170155	90.09	12.418757	-56.940185	90.07	0.290	-0.860	2.140	90.09	-2.10	2.50	 	 	 	 	 	 	 	 	 	 	 	 	 	 	 	 	 	 	1581526915	8.77	16.24
12/02/2020 17:01:56	120220	12022020	170156	90.47	12.418760	-56.940147	90.43	-0.070	0.180	1.430	90.47	-1.10	1.80	 	 	 	 	 	 	 	 	 	 	 	 	 	 	 	 	 	 	1581526916	8.11	15.02
12/02/2020 17:01:57	120220	12022020	170157	90.80	12.418763	-56.940108	90.76	-0.450	0.740	0.790	90.80	-0.60	1.20	 	 	 	 	 	 	 	 	 	 	 	 	 	 	 	 	 	 	1581526917	8.18	15.15
12/02/2020 17:01:58	120220	12022020	170158	90.91	12.418765	-56.940067	90.87	-0.550	0.700	0.730	90.91	-0.70	1.20	 	 	 	 	 	 	 	 	 	 	 	 	 	 	 	 	 	 	1581526918	8.71	16.13
12/02/2020 17:01:59	120220	12022020	170159	90.82	12.418765	-56.940025	90.78	-0.390	0.310	0.880	90.82	-1.10	1.30	 	 	 	 	 	 	 	 	 	 	 	 	 	 	 	 	 	 	1581526919	8.98	16.63
12/02/2020 17:02:00	120220	12022020	170200	90.64	12.418767	-56.939982	90.60	-0.030	-0.520	0.930	90.64	-2.00	1.40	 	 	 	 	 	 	 	 	 	 	 	 	 	 	 	 	 	 	1581526920	9.25	17.13
12/02/2020 17:02:01	120220	12022020	170201	90.47	12.418768	-56.939935	90.40	0.500	-1.610	1.010	90.42	-3.10	1.50	 	 	 	 	 	 	 	 	 	 	 	 	 	 	 	 	 	 	1581526921	9.94	18.41
12/02/2020 17:02:02	120220	12022020	170202	90.18	12.418770	-56.939887	90.18	0.870	-1.920	1.160	90.18	-3.20	1.60	1015.60	26.60	26.70	20.10	20.20	925.0	67.0	67.0	396.0	29.0	350.00	17.00	78.00	12.50	67878	14775.0	27.4	27.4	1581526922	10.03	18.58
12/02/2020 17:02:03	120220	12022020	170203	90.02	12.418770	-56.939845	90.02	0.690	-0.880	1.240	90.02	-2.00	1.70	 	 	 	 	 	 	 	 	 	 	 	 	 	 	 	 	 	 	1581526923	8.91	16.50
12/02/2020 17:02:04	120220	12022020	170204	90.08	12.418772	-56.939808	90.05	0.050	0.810	1.180	90.08	-0.40	1.60	 	 	 	 	 	 	 	 	 	 	 	 	 	 	 	 	 	 	1581526924	7.71	14.28
12/02/2020 17:02:05	120220	12022020	170205	90.48	12.418773	-56.939773	90.45	-0.650	1.860	0.930	90.48	0.50	1.30	 	 	 	 	 	 	 	 	 	 	 	 	 	 	 	 	 	 	1581526925	7.41	13.72
12/02/2020 17:02:06	120220	12022020	170206	91.09	12.418777	-56.939733	91.05	-0.900	1.220	0.580	91.09	-0.30	1.00	 	 	 	 	 	 	 	 	 	 	 	 	 	 	 	 	 	 	1581526926	8.51	15.76
12/02/2020 17:02:07	120220	12022020	170207	91.28	12.418778	-56.939685	91.27	-0.620	-0.560	0.740	91.28	-2.10	1.30	 	 	 	 	 	 	 	 	 	 	 	 	 	 	 	 	 	 	1581526927	10.11	18.72
12/02/2020 17:02:08	120220	12022020	170208	90.79	12.418775	-56.939637	90.81	-0.190	-1.790	1.380	90.79	-3.20	1.90	 	 	 	 	 	 	 	 	 	 	 	 	 	 	 	 	 	 	1581526928	10.43	19.32
12/02/2020 17:02:09	120220	12022020	170209	90.15	12.418772	-56.939592	90.17	0.110	-1.780	1.830	90.15	-3.10	2.30	 	 	 	 	 	 	 	 	 	 	 	 	 	 	 	 	 	 	1581526929	9.34	17.30
12/02/2020 17:02:10	120220	12022020	170210	89.89	12.418773	-56.939552	89.89	0.400	-1.140	1.580	89.89	-2.40	1.90	 	 	 	 	 	 	 	 	 	 	 	 	 	 	 	 	 	 	1581526930	8.49	15.72
12/02/2020 17:02:11	120220	12022020	170211	90.15	12.418778	-56.939510	90.13	0.740	-0.520	0.750	90.15	-1.80	1.10	 	 	 	 	 	 	 	 	 	 	 	 	 	 	 	 	 	 	1581526931	8.77	16.24
12/02/2020 17:02:12	120220	12022020	170212	90.69	12.418785	-56.939470	90.63	0.610	0.310	0.160	90.69	-0.90	0.60	 	 	 	 	 	 	 	 	 	 	 	 	 	 	 	 	 	 	1581526932	8.84	16.37
12/02/2020 17:02:13	120220	12022020	170213	90.99	12.418787	-56.939430	90.96	-0.080	1.190	0.460	90.99	-0.10	1.00	 	 	 	 	 	 	 	 	 	 	 	 	 	 	 	 	 	 	1581526933	8.20	15.19
12/02/2020 17:02:14	120220	12022020	170214	90.91	12.418785	-56.939392	90.90	-0.760	1.410	1.000	90.91	-0.00	1.50	 	 	 	 	 	 	 	 	 	 	 	 	 	 	 	 	 	 	1581526934	8.10	15.00
12/02/2020 17:02:15	120220	12022020	170215	90.71	12.418783	-56.939350	90.66	-0.780	0.410	1.260	90.67	-1.20	1.70	 	 	 	 	 	 	 	 	 	 	 	 	 	 	 	 	 	 	1581526935	8.94	16.56
12/02/2020 17:02:16	120220	12022020	170216	90.47	12.418787	-56.939302	90.48	-0.110	-1.290	1.210	90.47	-2.80	1.60	 	 	 	 	 	 	 	 	 	 	 	 	 	 	 	 	 	 	1581526936	10.20	18.89
12/02/2020 17:02:17	120220	12022020	170217	90.60	12.418790	-56.939253	90.60	0.620	-2.270	0.990	90.60	-3.60	1.40	 	 	 	 	 	 	 	 	 	 	 	 	 	 	 	 	 	 	1581526937	10.46	19.37
12/02/2020 17:02:18	120220	12022020	170218	91.00	12.418793	-56.939208	91.00	0.780	-1.630	0.900	91.00	-2.80	1.40	 	 	 	 	 	 	 	 	 	 	 	 	 	 	 	 	 	 	1581526938	9.23	17.09
12/02/2020 17:02:19	120220	12022020	170219	91.28	12.418793	-56.939173	91.29	0.280	0.050	1.060	91.28	-1.10	1.50	 	 	 	 	 	 	 	 	 	 	 	 	 	 	 	 	 	 	1581526939	7.67	14.20
12/02/2020 17:02:20	120220	12022020	170220	91.35	12.418792	-56.939138	91.36	-0.390	1.370	1.340	91.35	0.10	1.80	 	 	 	 	 	 	 	 	 	 	 	 	 	 	 	 	 	 	1581526940	7.21	13.35
12/02/2020 17:02:21	120220	12022020	170221	91.39	12.418790	-56.939100	91.40	-0.630	1.330	1.370	91.39	-0.10	1.80	 	 	 	 	 	 	 	 	 	 	 	 	 	 	 	 	 	 	1581526941	8.09	14.98
12/02/2020 17:02:22	120220	12022020	170222	91.45	12.418790	-56.939055	91.43	-0.240	0.020	1.160	91.45	-1.50	1.60	 	 	 	 	 	 	 	 	 	 	 	 	 	 	 	 	 	 	1581526942	9.53	17.65
12/02/2020 17:02:23	120220	12022020	170223	91.26	12.418793	-56.939007	91.22	0.410	-1.540	0.980	91.26	-3.00	1.40	 	 	 	 	 	 	 	 	 	 	 	 	 	 	 	 	 	 	1581526943	10.51	19.46
12/02/2020 17:02:24	120220	12022020	170224	90.90	12.418797	-56.938958	90.86	0.620	-1.870	0.960	90.90	-3.10	1.40	 	 	 	 	 	 	 	 	 	 	 	 	 	 	 	 	 	 	1581526944	10.16	18.82
12/02/2020 17:02:25	120220	12022020	170225	90.85	12.418798	-56.938918	90.80	0.130	-0.630	1.110	90.85	-1.80	1.60	 	 	 	 	 	 	 	 	 	 	 	 	 	 	 	 	 	 	1581526945	8.42	15.59
12/02/2020 17:02:26	120220	12022020	170226	91.43	12.418798	-56.938883	91.37	-0.550	0.710	1.190	91.43	-0.50	1.60	 	 	 	 	 	 	 	 	 	 	 	 	 	 	 	 	 	 	1581526946	7.29	13.50
12/02/2020 17:02:27	120220	12022020	170227	92.02	12.418798	-56.938847	92.06	-0.720	0.880	1.160	92.12	-0.50	1.60	 	 	 	 	 	 	 	 	 	 	 	 	 	 	 	 	 	 	1581526947	8.00	14.82
12/02/2020 17:02:28	120220	12022020	170228	92.41	12.418797	-56.938802	92.37	-0.210	0.100	1.070	92.41	-1.40	1.50	 	 	 	 	 	 	 	 	 	 	 	 	 	 	 	 	 	 	1581526948	9.36	17.33
12/02/2020 17:02:29	120220	12022020	170229	92.34	12.418795	-56.938755	92.32	0.470	-0.630	1.230	92.34	-2.00	1.70	 	 	 	 	 	 	 	 	 	 	 	 	 	 	 	 	 	 	1581526949	9.80	18.15
12/02/2020 17:02:30	120220	12022020	170230	92.16	12.418795	-56.938710	92.14	0.860	-0.910	1.350	92.16	-2.30	1.80	 	 	 	 	 	 	 	 	 	 	 	 	 	 	 	 	 	 	1581526950	9.41	17.43
12/02/2020 17:02:31	120220	12022020	170231	91.99	12.418798	-56.938668	91.96	0.790	-0.870	1.170	91.99	-2.20	1.60	 	 	 	 	 	 	 	 	 	 	 	 	 	 	 	 	 	 	1581526951	9.12	16.89
12/02/2020 17:02:32	120220	12022020	170232	91.79	12.418803	-56.938625	91.74	0.310	-0.560	0.940	91.79	-1.80	1.40	 	 	 	 	 	 	 	 	 	 	 	 	 	 	 	 	 	 	1581526952	9.03	16.72
12/02/2020 17:02:33	120220	12022020	170233	91.92	12.418805	-56.938585	91.86	-0.360	0.200	0.930	91.92	-1.00	1.40	 	 	 	 	 	 	 	 	 	 	 	 	 	 	 	 	 	 	1581526953	8.61	15.95
12/02/2020 17:02:34	120220	12022020	170234	92.45	12.418805	-56.938547	92.37	-0.990	1.130	0.950	92.45	-0.20	1.40	 	 	 	 	 	 	 	 	 	 	 	 	 	 	 	 	 	 	1581526954	7.88	14.59
12/02/2020 17:02:35	120220	12022020	170235	92.88	12.418802	-56.938510	92.83	-1.180	1.130	0.900	92.88	-0.30	1.40	 	 	 	 	 	 	 	 	 	 	 	 	 	 	 	 	 	 	1581526955	7.91	14.65
12/02/2020 17:02:36	120220	12022020	170236	92.86	12.418798	-56.938465	92.82	-0.550	-0.470	1.000	92.86	-2.10	1.50	 	 	 	 	 	 	 	 	 	 	 	 	 	 	 	 	 	 	1581526956	9.40	17.41
12/02/2020 17:02:37	120220	12022020	170237	92.70	12.418797	-56.938413	92.70	0.550	-2.400	1.120	92.70	-3.90	1.60	 	 	 	 	 	 	 	 	 	 	 	 	 	 	 	 	 	 	1581526957	10.92	20.22
12/02/2020 17:02:38	120220	12022020	170238	92.79	12.418795	-56.938365	92.80	1.210	-2.590	1.100	92.79	-3.70	1.50	 	 	 	 	 	 	 	 	 	 	 	 	 	 	 	 	 	 	1581526958	10.50	19.45
12/02/2020 17:02:39	120220	12022020	170239	92.93	12.418797	-56.938325	92.94	0.870	-0.600	0.740	92.93	-1.60	1.10	 	 	 	 	 	 	 	 	 	 	 	 	 	 	 	 	 	 	1581526959	8.19	15.17
12/02/2020 17:02:40	120220	12022020	170240	92.88	12.418800	-56.938295	92.87	-0.010	1.620	0.240	92.88	0.50	0.70	 	 	 	 	 	 	 	 	 	 	 	 	 	 	 	 	 	 	1581526960	6.68	12.37
12/02/2020 17:02:41	120220	12022020	170241	92.77	12.418803	-56.938260	92.76	-0.600	2.230	0.010	92.77	0.80	0.50	 	 	 	 	 	 	 	 	 	 	 	 	 	 	 	 	 	 	1581526961	7.46	13.82
12/02/2020 17:02:42	120220	12022020	170242	92.90	12.418807	-56.938215	92.87	-0.510	0.900	0.100	92.90	-0.70	0.60	 	 	 	 	 	 	 	 	 	 	 	 	 	 	 	 	 	 	1581526962	9.23	17.09
12/02/2020 17:02:43	120220	12022020	170243	93.16	12.418807	-56.938165	93.13	0.010	-1.250	0.140	93.16	-2.80	0.60	 	 	 	 	 	 	 	 	 	 	 	 	 	 	 	 	 	 	1581526963	10.72	19.85
12/02/2020 17:02:44	120220	12022020	170244	93.02	12.418805	-56.938115	93.02	0.400	-2.350	0.640	93.02	-3.60	1.20	 	 	 	 	 	 	 	 	 	 	 	 	 	 	 	 	 	 	1581526964	10.67	19.76
12/02/2020 17:02:45	120220	12022020	170245	92.63	12.418798	-56.938072	92.67	0.270	-1.490	1.500	92.63	-2.60	2.00	 	 	 	 	 	 	 	 	 	 	 	 	 	 	 	 	 	 	1581526965	9.01	16.69
12/02/2020 17:02:46	120220	12022020	170246	92.43	12.418793	-56.938038	92.47	-0.260	0.320	1.850	92.43	-0.80	2.30	 	 	 	 	 	 	 	 	 	 	 	 	 	 	 	 	 	 	1581526966	7.29	13.50
12/02/2020 17:02:47	120220	12022020	170247	92.47	12.418792	-56.938005	92.49	-0.600	1.320	1.540	92.47	0.00	1.90	 	 	 	 	 	 	 	 	 	 	 	 	 	 	 	 	 	 	1581526967	7.11	13.17
12/02/2020 17:02:48	120220	12022020	170248	92.53	12.418795	-56.937963	92.50	-0.280	0.610	0.880	92.53	-0.90	1.30	 	 	 	 	 	 	 	 	 	 	 	 	 	 	 	 	 	 	1581526968	8.68	16.08
12/02/2020 17:02:49	120220	12022020	170249	92.72	12.418798	-56.937915	92.70	0.400	-0.850	0.270	92.72	-2.30	0.70	 	 	 	 	 	 	 	 	 	 	 	 	 	 	 	 	 	 	1581526969	10.26	19.00
12/02/2020 17:02:50	120220	12022020	170250	92.82	12.418800	-56.937867	92.83	0.770	-1.560	0.380	92.82	-2.80	0.90	 	 	 	 	 	 	 	 	 	 	 	 	 	 	 	 	 	 	1581526970	10.18	18.85
12/02/2020 17:02:51	120220	12022020	170251	92.69	12.418797	-56.937825	92.67	0.480	-0.820	0.750	92.64	-1.90	1.30	 	 	 	 	 	 	 	 	 	 	 	 	 	 	 	 	 	 	1581526971	8.84	16.37
12/02/2020 17:02:52	120220	12022020	170252	92.37	12.418797	-56.937790	92.40	-0.250	0.600	1.010	92.37	-0.60	1.50	 	 	 	 	 	 	 	 	 	 	 	 	 	 	 	 	 	 	1581526972	7.42	13.74
12/02/2020 17:02:53	120220	12022020	170253	92.31	12.418797	-56.937755	92.34	-0.800	1.100	1.010	92.31	-0.30	1.40	 	 	 	 	 	 	 	 	 	 	 	 	 	 	 	 	 	 	1581526973	7.43	13.76
12/02/2020 17:02:54	120220	12022020	170254	92.50	12.418798	-56.937712	92.50	-0.630	-0.060	0.770	92.50	-1.60	1.20	 	 	 	 	 	 	 	 	 	 	 	 	 	 	 	 	 	 	1581526974	9.05	16.76
12/02/2020 17:02:55	120220	12022020	170255	92.60	12.418798	-56.937662	92.62	0.180	-1.750	0.730	92.60	-3.20	1.20	 	 	 	 	 	 	 	 	 	 	 	 	 	 	 	 	 	 	1581526975	10.59	19.61
12/02/2020 17:02:56	120220	12022020	170256	92.57	12.418797	-56.937613	92.61	0.860	-1.940	0.950	92.57	-3.10	1.40	 	 	 	 	 	 	 	 	 	 	 	 	 	 	 	 	 	 	1581526976	10.36	19.19
12/02/2020 17:02:57	120220	12022020	170257	92.62	12.418795	-56.937575	92.63	0.680	-0.090	1.150	92.62	-1.10	1.60	 	 	 	 	 	 	 	 	 	 	 	 	 	 	 	 	 	 	1581526977	8.03	14.87
12/02/2020 17:02:58	120220	12022020	170258	92.70	12.418795	-56.937545	92.70	-0.210	1.860	1.300	92.70	0.70	1.80	 	 	 	 	 	 	 	 	 	 	 	 	 	 	 	 	 	 	1581526978	6.42	11.89
12/02/2020 17:02:59	120220	12022020	170259	92.60	12.418795	-56.937510	92.61	-0.860	1.820	1.250	92.60	0.30	1.70	 	 	 	 	 	 	 	 	 	 	 	 	 	 	 	 	 	 	1581526979	7.28	13.48
12/02/2020 17:03:00	120220	12022020	170300	92.53	12.418795	-56.937465	92.52	-0.650	-0.140	0.950	92.53	-1.70	1.40	 	 	 	 	 	 	 	 	 	 	 	 	 	 	 	 	 	 	1581526980	9.69	17.95
12/02/2020 17:03:01	120220	12022020	170301	92.63	12.418797	-56.937415	92.64	0.030	-1.760	0.740	92.63	-3.10	1.20	 	 	 	 	 	 	 	 	 	 	 	 	 	 	 	 	 	 	1581526981	10.63	19.69
12/02/2020 17:03:02	120220	12022020	170302	92.68	12.418797	-56.937370	92.69	0.500	-1.730	0.680	92.68	-2.90	1.10	1015.60	26.60	26.70	20.00	20.10	920.0	67.0	67.0	396.0	29.0	348.00	16.40	75.00	12.00	67677	9573.0	27.4	27.4	1581526982	9.24	17.11
12/02/2020 17:03:03	120220	12022020	170303	92.61	12.418797	-56.937333	92.62	0.570	-0.810	0.800	92.61	-2.00	1.30	 	 	 	 	 	 	 	 	 	 	 	 	 	 	 	 	 	 	1581526983	7.81	14.46
12/02/2020 17:03:04	120220	12022020	170304	92.51	12.418797	-56.937297	92.54	0.500	-0.290	0.990	92.51	-1.60	1.50	 	 	 	 	 	 	 	 	 	 	 	 	 	 	 	 	 	 	1581526984	7.91	14.65
12/02/2020 17:03:05	120220	12022020	170305	92.45	12.418795	-56.937255	92.45	0.430	-0.330	1.180	92.43	-1.60	1.70	 	 	 	 	 	 	 	 	 	 	 	 	 	 	 	 	 	 	1581526985	8.88	16.45
12/02/2020 17:03:06	120220	12022020	170306	92.30	12.418795	-56.937212	92.31	0.200	-0.140	1.300	92.30	-1.40	1.80	 	 	 	 	 	 	 	 	 	 	 	 	 	 	 	 	 	 	1581526986	9.15	16.95
12/02/2020 17:03:07	120220	12022020	170307	92.31	12.418797	-56.937172	92.30	-0.220	0.510	1.140	92.31	-0.70	1.60	 	 	 	 	 	 	 	 	 	 	 	 	 	 	 	 	 	 	1581526987	8.49	15.72
12/02/2020 17:03:08	120220	12022020	170308	92.67	12.418798	-56.937133	92.64	-0.590	0.870	0.890	92.67	-0.50	1.30	 	 	 	 	 	 	 	 	 	 	 	 	 	 	 	 	 	 	1581526988	8.09	14.98
12/02/2020 17:03:09	120220	12022020	170309	93.11	12.418797	-56.937092	93.08	-0.600	0.370	0.790	93.11	-1.00	1.20	 	 	 	 	 	 	 	 	 	 	 	 	 	 	 	 	 	 	1581526989	8.64	16.00
12/02/2020 17:03:10	120220	12022020	170310	93.20	12.418795	-56.937047	93.21	-0.290	-0.570	0.920	93.20	-2.00	1.40	 	 	 	 	 	 	 	 	 	 	 	 	 	 	 	 	 	 	1581526990	9.38	17.37
12/02/2020 17:03:11	120220	12022020	170311	92.96	12.418793	-56.937003	92.99	0.130	-1.170	1.210	92.96	-2.50	1.70	 	 	 	 	 	 	 	 	 	 	 	 	 	 	 	 	 	 	1581526991	9.43	17.46
12/02/2020 17:03:12	120220	12022020	170312	92.72	12.418793	-56.936960	92.74	0.470	-1.100	1.270	92.72	-2.40	1.70	 	 	 	 	 	 	 	 	 	 	 	 	 	 	 	 	 	 	1581526992	8.95	16.58
12/02/2020 17:03:13	120220	12022020	170313	92.62	12.418795	-56.936920	92.61	0.590	-0.680	1.160	92.62	-1.90	1.60	 	 	 	 	 	 	 	 	 	 	 	 	 	 	 	 	 	 	1581526993	8.56	15.85
12/02/2020 17:03:14	120220	12022020	170314	92.70	12.418797	-56.936880	92.72	0.440	-0.260	0.980	92.70	-1.50	1.40	 	 	 	 	 	 	 	 	 	 	 	 	 	 	 	 	 	 	1581526994	8.59	15.91
12/02/2020 17:03:15	120220	12022020	170315	92.85	12.418798	-56.936838	92.87	0.030	0.170	0.880	92.85	-1.10	1.30	 	 	 	 	 	 	 	 	 	 	 	 	 	 	 	 	 	 	1581526995	8.57	15.87
12/02/2020 17:03:16	120220	12022020	170316	92.87	12.418797	-56.936798	92.88	-0.390	0.390	0.870	92.87	-0.90	1.30	 	 	 	 	 	 	 	 	 	 	 	 	 	 	 	 	 	 	1581526996	8.49	15.72
12/02/2020 17:03:17	120220	12022020	170317	92.83	12.418795	-56.936757	92.84	-0.430	0.020	0.910	92.82	-1.40	1.40	 	 	 	 	 	 	 	 	 	 	 	 	 	 	 	 	 	 	1581526997	8.92	16.52
12/02/2020 17:03:18	120220	12022020	170318	92.70	12.418793	-56.936712	92.72	-0.140	-0.480	1.000	92.70	-1.80	1.50	 	 	 	 	 	 	 	 	 	 	 	 	 	 	 	 	 	 	1581526998	9.47	17.54
12/02/2020 17:03:19	120220	12022020	170319	92.67	12.418793	-56.936668	92.67	0.100	-0.470	0.890	92.67	-1.80	1.30	 	 	 	 	 	 	 	 	 	 	 	 	 	 	 	 	 	 	1581526999	9.18	17.00
12/02/2020 17:03:20	120220	12022020	170320	92.90	12.418795	-56.936628	92.88	0.090	-0.200	0.650	92.90	-1.50	1.10	 	 	 	 	 	 	 	 	 	 	 	 	 	 	 	 	 	 	1581527000	8.60	15.93
12/02/2020 17:03:21	120220	12022020	170321	93.15	12.418797	-56.936587	93.14	0.010	-0.210	0.760	93.15	-1.60	1.30	 	 	 	 	 	 	 	 	 	 	 	 	 	 	 	 	 	 	1581527001	8.62	15.96
12/02/2020 17:03:22	120220	12022020	170322	93.20	12.418795	-56.936543	93.22	0.040	-0.560	1.070	93.20	-1.90	1.60	 	 	 	 	 	 	 	 	 	 	 	 	 	 	 	 	 	 	1581527002	9.09	16.83
12/02/2020 17:03:23	120220	12022020	170323	93.01	12.418792	-56.936500	93.05	0.190	-0.840	1.340	93.01	-2.20	1.80	 	 	 	 	 	 	 	 	 	 	 	 	 	 	 	 	 	 	1581527003	9.38	17.37
12/02/2020 17:03:24	120220	12022020	170324	92.66	12.418790	-56.936455	92.71	0.290	-0.760	1.600	92.66	-2.00	2.10	 	 	 	 	 	 	 	 	 	 	 	 	 	 	 	 	 	 	1581527004	9.29	17.21
12/02/2020 17:03:25	120220	12022020	170325	92.39	12.418790	-56.936413	92.41	0.100	-0.160	1.630	92.39	-1.40	2.00	 	 	 	 	 	 	 	 	 	 	 	 	 	 	 	 	 	 	1581527005	8.89	16.46
12/02/2020 17:03:26	120220	12022020	170326	92.48	12.418790	-56.936375	92.47	-0.410	0.690	1.230	92.48	-0.60	1.60	 	 	 	 	 	 	 	 	 	 	 	 	 	 	 	 	 	 	1581527006	8.29	15.35
12/02/2020 17:03:27	120220	12022020	170327	92.90	12.418792	-56.936337	92.87	-0.810	1.150	0.740	92.90	-0.20	1.10	 	 	 	 	 	 	 	 	 	 	 	 	 	 	 	 	 	 	1581527007	8.04	14.89
12/02/2020 17:03:28	120220	12022020	170328	93.30	12.418793	-56.936295	93.27	-0.560	0.420	0.460	93.30	-1.10	0.90	 	 	 	 	 	 	 	 	 	 	 	 	 	 	 	 	 	 	1581527008	8.64	16.00
12/02/2020 17:03:29	120220	12022020	170329	93.27	12.418793	-56.936247	93.26	0.360	-1.520	0.590	93.27	-3.10	1.10	 	 	 	 	 	 	 	 	 	 	 	 	 	 	 	 	 	 	1581527009	10.26	19.00
12/02/2020 17:03:30	120220	12022020	170330	92.81	12.418790	-56.936195	92.82	1.160	-2.700	1.220	92.81	-4.00	1.80	 	 	 	 	 	 	 	 	 	 	 	 	 	 	 	 	 	 	1581527010	11.02	20.41
12/02/2020 17:03:31	120220	12022020	170331	92.47	12.418787	-56.936152	92.48	1.090	-1.640	1.770	92.47	-2.70	2.20	 	 	 	 	 	 	 	 	 	 	 	 	 	 	 	 	 	 	1581527011	9.36	17.33
12/02/2020 17:03:32	120220	12022020	170332	92.64	12.418787	-56.936117	92.62	0.250	0.790	1.470	92.64	-0.30	1.80	 	 	 	 	 	 	 	 	 	 	 	 	 	 	 	 	 	 	1581527012	7.10	13.15
12/02/2020 17:03:33	120220	12022020	170333	93.16	12.418790	-56.936085	93.13	-0.670	2.290	0.860	93.16	1.00	1.30	 	 	 	 	 	 	 	 	 	 	 	 	 	 	 	 	 	 	1581527013	6.76	12.52
12/02/2020 17:03:34	120220	12022020	170334	93.47	12.418792	-56.936047	93.46	-1.050	1.600	0.800	93.47	0.00	1.30	 	 	 	 	 	 	 	 	 	 	 	 	 	 	 	 	 	 	1581527014	8.35	15.46
12/02/2020 17:03:35	120220	12022020	170335	93.37	12.418788	-56.935998	93.37	-0.810	-0.400	1.040	93.37	-2.00	1.50	 	 	 	 	 	 	 	 	 	 	 	 	 	 	 	 	 	 	1581527015	10.28	19.04
12/02/2020 17:03:36	120220	12022020	170336	93.11	12.418785	-56.935948	93.14	-0.360	-1.750	1.390	93.11	-3.10	1.90	 	 	 	 	 	 	 	 	 	 	 	 	 	 	 	 	 	 	1581527016	10.56	19.56
12/02/2020 17:03:37	120220	12022020	170337	93.00	12.418782	-56.935903	93.04	-0.070	-1.680	1.740	93.00	-2.90	2.20	 	 	 	 	 	 	 	 	 	 	 	 	 	 	 	 	 	 	1581527017	9.25	17.13
12/02/2020 17:03:38	120220	12022020	170338	93.11	12.418778	-56.935865	93.14	0.090	-1.000	1.610	93.11	-2.20	2.00	 	 	 	 	 	 	 	 	 	 	 	 	 	 	 	 	 	 	1581527018	8.25	15.28
12/02/2020 17:03:39	120220	12022020	170339	93.14	12.418777	-56.935825	93.17	0.370	-0.550	1.290	93.14	-1.80	1.70	 	 	 	 	 	 	 	 	 	 	 	 	 	 	 	 	 	 	1581527019	8.44	15.63
12/02/2020 17:03:40	120220	12022020	170340	93.04	12.418775	-56.935783	93.07	0.720	-0.260	1.110	93.04	-1.50	1.50	 	 	 	 	 	 	 	 	 	 	 	 	 	 	 	 	 	 	1581527020	9.06	16.78
12/02/2020 17:03:41	120220	12022020	170341	92.94	12.418777	-56.935740	92.93	0.730	0.280	0.870	92.92	-1.00	1.30	 	 	 	 	 	 	 	 	 	 	 	 	 	 	 	 	 	 	1581527021	8.97	16.61
12/02/2020 17:03:42	120220	12022020	170342	92.77	12.418780	-56.935700	92.78	0.280	0.900	0.640	92.77	-0.40	1.10	 	 	 	 	 	 	 	 	 	 	 	 	 	 	 	 	 	 	1581527022	8.48	15.70
12/02/2020 17:03:43	120220	12022020	170343	92.68	12.418783	-56.935660	92.66	-0.340	0.950	0.630	92.68	-0.40	1.10	 	 	 	 	 	 	 	 	 	 	 	 	 	 	 	 	 	 	1581527023	8.46	15.67
12/02/2020 17:03:44	120220	12022020	170344	92.69	12.418783	-56.935618	92.68	-0.680	0.270	0.780	92.69	-1.20	1.30	 	 	 	 	 	 	 	 	 	 	 	 	 	 	 	 	 	 	1581527024	8.97	16.61
12/02/2020 17:03:45	120220	12022020	170345	92.81	12.418782	-56.935573	92.82	-0.550	-0.690	1.140	92.81	-2.10	1.70	 	 	 	 	 	 	 	 	 	 	 	 	 	 	 	 	 	 	1581527025	9.46	17.52
12/02/2020 17:03:46	120220	12022020	170346	92.87	12.418777	-56.935528	92.91	-0.100	-1.550	1.750	92.87	-2.90	2.30	 	 	 	 	 	 	 	 	 	 	 	 	 	 	 	 	 	 	1581527026	9.62	17.82
12/02/2020 17:03:47	120220	12022020	170347	92.82	12.418770	-56.935483	92.87	0.450	-2.060	2.080	92.82	-3.40	2.50	 	 	 	 	 	 	 	 	 	 	 	 	 	 	 	 	 	 	1581527027	9.69	17.95
12/02/2020 17:03:48	120220	12022020	170348	92.45	12.418767	-56.935437	92.51	0.790	-1.780	2.240	92.45	-3.00	2.70	 	 	 	 	 	 	 	 	 	 	 	 	 	 	 	 	 	 	1581527028	9.60	17.78
12/02/2020 17:03:49	120220	12022020	170349	92.13	12.418765	-56.935397	92.18	0.450	-0.190	2.190	92.13	-1.30	2.60	 	 	 	 	 	 	 	 	 	 	 	 	 	 	 	 	 	 	1581527029	8.64	16.00
12/02/2020 17:03:50	120220	12022020	170350	92.27	12.418767	-56.935362	92.26	-0.510	1.870	1.470	92.27	0.70	1.80	 	 	 	 	 	 	 	 	 	 	 	 	 	 	 	 	 	 	1581527030	7.27	13.46
12/02/2020 17:03:51	120220	12022020	170351	92.71	12.418772	-56.935328	92.67	-1.370	2.670	0.570	92.71	1.30	0.90	 	 	 	 	 	 	 	 	 	 	 	 	 	 	 	 	 	 	1581527031	7.18	13.30
12/02/2020 17:03:52	120220	12022020	170352	92.94	12.418773	-56.935287	92.91	-1.260	1.130	0.230	92.94	-0.50	0.70	 	 	 	 	 	 	 	 	 	 	 	 	 	 	 	 	 	 	1581527032	8.91	16.50
12/02/2020 17:03:53	120220	12022020	170353	92.77	12.418772	-56.935235	92.76	-0.270	-1.390	0.360	92.77	-3.00	0.90	 	 	 	 	 	 	 	 	 	 	 	 	 	 	 	 	 	 	1581527033	10.82	20.04
12/02/2020 17:03:54	120220	12022020	170354	92.55	12.418770	-56.935183	92.55	0.820	-2.880	0.720	92.55	-4.20	1.20	 	 	 	 	 	 	 	 	 	 	 	 	 	 	 	 	 	 	1581527034	10.87	20.13
12/02/2020 17:03:55	120220	12022020	170355	92.58	12.418768	-56.935140	92.57	1.290	-2.370	0.960	92.58	-3.50	1.40	 	 	 	 	 	 	 	 	 	 	 	 	 	 	 	 	 	 	1581527035	9.35	17.32
12/02/2020 17:03:56	120220	12022020	170356	92.70	12.418768	-56.935103	92.69	0.960	-0.490	0.920	92.70	-1.60	1.40	 	 	 	 	 	 	 	 	 	 	 	 	 	 	 	 	 	 	1581527036	7.65	14.17
12/02/2020 17:03:57	120220	12022020	170357	92.57	12.418768	-56.935070	92.55	0.240	1.120	1.050	92.57	-0.10	1.50	 	 	 	 	 	 	 	 	 	 	 	 	 	 	 	 	 	 	1581527037	7.11	13.17
12/02/2020 17:03:58	120220	12022020	170358	92.30	12.418767	-56.935032	92.30	-0.290	1.440	1.360	92.30	0.10	1.80	 	 	 	 	 	 	 	 	 	 	 	 	 	 	 	 	 	 	1581527038	8.06	14.93
12/02/2020 17:03:59	120220	12022020	170359	92.20	12.418767	-56.934988	92.18	-0.510	0.740	1.320	92.20	-0.70	1.70	 	 	 	 	 	 	 	 	 	 	 	 	 	 	 	 	 	 	1581527039	9.17	16.98
12/02/2020 17:04:00	120220	12022020	170400	92.32	12.418768	-56.934942	92.29	-0.490	-0.440	1.020	92.32	-1.90	1.40	 	 	 	 	 	 	 	 	 	 	 	 	 	 	 	 	 	 	1581527040	9.77	18.09
12/02/2020 17:04:01	120220	12022020	170401	92.54	12.418768	-56.934895	92.51	-0.360	-1.350	1.100	92.54	-2.70	1.60	 	 	 	 	 	 	 	 	 	 	 	 	 	 	 	 	 	 	1581527041	9.88	18.30
12/02/2020 17:04:02	120220	12022020	170402	92.45	12.418762	-56.934852	92.45	-0.220	-1.290	1.710	92.45	-2.50	2.20	1015.50	26.60	26.70	19.90	20.00	870.0	66.0	66.0	395.0	28.9	345.00	16.70	72.00	12.40	65380	14059.0	27.4	27.4	1581527042	9.31	17.24
12/02/2020 17:04:03	120220	12022020	170403	91.96	12.418755	-56.934813	92.00	-0.040	-0.490	1.970	91.96	-1.70	2.40	 	 	 	 	 	 	 	 	 	 	 	 	 	 	 	 	 	 	1581527043	8.37	15.50
12/02/2020 17:04:04	120220	12022020	170404	91.51	12.418755	-56.934773	91.51	0.230	0.020	1.560	91.51	-1.30	1.90	 	 	 	 	 	 	 	 	 	 	 	 	 	 	 	 	 	 	1581527044	8.25	15.28
12/02/2020 17:04:05	120220	12022020	170405	91.42	12.418760	-56.934732	91.40	0.440	-0.170	1.070	91.42	-1.50	1.50	 	 	 	 	 	 	 	 	 	 	 	 	 	 	 	 	 	 	1581527045	9.12	16.89
12/02/2020 17:04:06	120220	12022020	170406	91.57	12.418763	-56.934687	91.54	0.400	-0.420	0.710	91.57	-1.70	1.10	 	 	 	 	 	 	 	 	 	 	 	 	 	 	 	 	 	 	1581527046	9.60	17.78
12/02/2020 17:04:07	120220	12022020	170407	91.57	12.418765	-56.934643	91.52	0.080	-0.210	0.760	91.54	-1.50	1.30	 	 	 	 	 	 	 	 	 	 	 	 	 	 	 	 	 	 	1581527047	9.10	16.85
12/02/2020 17:04:08	120220	12022020	170408	91.20	12.418763	-56.934602	91.18	-0.180	0.190	1.320	91.20	-1.10	1.90	 	 	 	 	 	 	 	 	 	 	 	 	 	 	 	 	 	 	1581527048	8.56	15.85
12/02/2020 17:04:09	120220	12022020	170409	90.95	12.418762	-56.934562	90.93	-0.240	0.340	1.730	90.95	-1.00	2.20	 	 	 	 	 	 	 	 	 	 	 	 	 	 	 	 	 	 	1581527049	8.65	16.02
12/02/2020 17:04:10	120220	12022020	170410	91.20	12.418762	-56.934520	91.17	-0.260	0.120	1.540	91.20	-1.30	1.90	 	 	 	 	 	 	 	 	 	 	 	 	 	 	 	 	 	 	1581527050	8.92	16.52
12/02/2020 17:04:11	120220	12022020	170411	91.62	12.418762	-56.934475	91.58	-0.230	-0.400	1.270	91.62	-1.80	1.70	 	 	 	 	 	 	 	 	 	 	 	 	 	 	 	 	 	 	1581527051	9.22	17.08
12/02/2020 17:04:12	120220	12022020	170412	91.86	12.418762	-56.934432	91.83	-0.040	-0.820	1.300	91.86	-2.20	1.80	 	 	 	 	 	 	 	 	 	 	 	 	 	 	 	 	 	 	1581527052	9.28	17.19
12/02/2020 17:04:13	120220	12022020	170413	91.80	12.418760	-56.934388	91.80	0.260	-1.040	1.560	91.80	-2.40	2.00	 	 	 	 	 	 	 	 	 	 	 	 	 	 	 	 	 	 	1581527053	9.21	17.06
12/02/2020 17:04:14	120220	12022020	170414	91.52	12.418758	-56.934345	91.52	0.480	-0.990	1.860	91.52	-2.30	2.30	 	 	 	 	 	 	 	 	 	 	 	 	 	 	 	 	 	 	1581527054	9.18	17.00
12/02/2020 17:04:15	120220	12022020	170415	91.23	12.418758	-56.934302	91.21	0.450	-0.490	1.840	91.23	-1.70	2.20	 	 	 	 	 	 	 	 	 	 	 	 	 	 	 	 	 	 	1581527055	9.00	16.67
12/02/2020 17:04:16	120220	12022020	170416	91.21	12.418762	-56.934262	91.17	0.150	0.310	1.270	91.21	-0.90	1.60	 	 	 	 	 	 	 	 	 	 	 	 	 	 	 	 	 	 	1581527056	8.57	15.87
12/02/2020 17:04:17	120220	12022020	170417	91.37	12.418767	-56.934222	91.34	-0.270	0.720	0.720	91.37	-0.60	1.10	 	 	 	 	 	 	 	 	 	 	 	 	 	 	 	 	 	 	1581527057	8.56	15.85
12/02/2020 17:04:18	120220	12022020	170418	91.76	12.418770	-56.934180	91.73	-0.540	0.420	0.540	91.76	-1.00	1.00	 	 	 	 	 	 	 	 	 	 	 	 	 	 	 	 	 	 	1581527058	9.00	16.67
12/02/2020 17:04:19	120220	12022020	170419	92.21	12.418770	-56.934135	92.18	-0.450	-0.320	0.590	92.21	-1.70	1.10	 	 	 	 	 	 	 	 	 	 	 	 	 	 	 	 	 	 	1581527059	9.52	17.63
12/02/2020 17:04:20	120220	12022020	170420	92.25	12.418768	-56.934088	92.23	-0.080	-0.970	0.960	92.25	-2.30	1.50	 	 	 	 	 	 	 	 	 	 	 	 	 	 	 	 	 	 	1581527060	9.77	18.09
12/02/2020 17:04:21	120220	12022020	170421	91.85	12.418763	-56.934043	91.85	0.170	-1.030	1.610	91.85	-2.30	2.10	 	 	 	 	 	 	 	 	 	 	 	 	 	 	 	 	 	 	1581527061	9.51	17.61
12/02/2020 17:04:22	120220	12022020	170422	91.34	12.418758	-56.934002	91.35	0.140	-0.570	2.030	91.34	-1.80	2.50	 	 	 	 	 	 	 	 	 	 	 	 	 	 	 	 	 	 	1581527062	8.91	16.50
12/02/2020 17:04:23	120220	12022020	170423	91.09	12.418760	-56.933960	91.08	0.010	-0.140	1.600	91.09	-1.40	1.90	 	 	 	 	 	 	 	 	 	 	 	 	 	 	 	 	 	 	1581527063	8.65	16.02
12/02/2020 17:04:24	120220	12022020	170424	91.09	12.418765	-56.933918	91.06	0.040	-0.060	0.880	91.09	-1.40	1.30	 	 	 	 	 	 	 	 	 	 	 	 	 	 	 	 	 	 	1581527064	9.09	16.83
12/02/2020 17:04:25	120220	12022020	170425	91.26	12.418770	-56.933873	91.22	0.140	-0.150	0.520	91.26	-1.50	1.00	 	 	 	 	 	 	 	 	 	 	 	 	 	 	 	 	 	 	1581527065	9.44	17.48
12/02/2020 17:04:26	120220	12022020	170426	91.47	12.418772	-56.933830	91.43	0.070	-0.130	0.550	91.47	-1.50	1.00	 	 	 	 	 	 	 	 	 	 	 	 	 	 	 	 	 	 	1581527066	9.32	17.26
12/02/2020 17:04:27	120220	12022020	170427	91.43	12.418770	-56.933787	91.42	-0.180	0.010	0.940	91.43	-1.30	1.40	 	 	 	 	 	 	 	 	 	 	 	 	 	 	 	 	 	 	1581527067	9.03	16.72
12/02/2020 17:04:28	120220	12022020	170428	91.40	12.418767	-56.933745	91.37	-0.370	0.020	1.310	91.40	-1.30	1.80	 	 	 	 	 	 	 	 	 	 	 	 	 	 	 	 	 	 	1581527068	8.95	16.58
12/02/2020 17:04:29	120220	12022020	170429	91.38	12.418763	-56.933702	91.37	-0.240	-0.330	1.430	91.38	-1.70	1.90	 	 	 	 	 	 	 	 	 	 	 	 	 	 	 	 	 	 	1581527069	9.21	17.06
12/02/2020 17:04:30	120220	12022020	170430	91.12	12.418765	-56.933655	91.11	0.190	-0.760	1.360	91.12	-2.10	1.80	 	 	 	 	 	 	 	 	 	 	 	 	 	 	 	 	 	 	1581527070	9.61	17.80
12/02/2020 17:04:31	120220	12022020	170431	90.87	12.418768	-56.933610	90.82	0.490	-0.700	1.120	90.85	-2.00	1.50	 	 	 	 	 	 	 	 	 	 	 	 	 	 	 	 	 	 	1581527071	9.53	17.65
12/02/2020 17:04:32	120220	12022020	170432	90.90	12.418773	-56.933568	90.93	0.300	-0.240	1.000	90.94	-1.50	1.50	 	 	 	 	 	 	 	 	 	 	 	 	 	 	 	 	 	 	1581527072	8.98	16.63
12/02/2020 17:04:33	120220	12022020	170433	91.29	12.418775	-56.933527	91.28	-0.200	-0.010	1.180	91.29	-1.40	1.70	 	 	 	 	 	 	 	 	 	 	 	 	 	 	 	 	 	 	1581527073	8.72	16.15
12/02/2020 17:04:34	120220	12022020	170434	91.59	12.418773	-56.933483	91.56	-0.410	-0.450	1.410	91.59	-1.90	1.90	 	 	 	 	 	 	 	 	 	 	 	 	 	 	 	 	 	 	1581527074	9.37	17.35
12/02/2020 17:04:35	120220	12022020	170435	91.84	12.418770	-56.933435	91.82	-0.200	-0.820	1.600	91.84	-2.10	2.10	 	 	 	 	 	 	 	 	 	 	 	 	 	 	 	 	 	 	1581527075	10.02	18.56
12/02/2020 17:04:36	120220	12022020	170436	91.86	12.418765	-56.933392	91.84	0.020	-0.380	1.930	91.86	-1.60	2.40	 	 	 	 	 	 	 	 	 	 	 	 	 	 	 	 	 	 	1581527076	9.42	17.45
12/02/2020 17:04:37	120220	12022020	170437	91.67	12.418763	-56.933352	91.63	0.010	0.380	1.890	91.67	-0.90	2.30	 	 	 	 	 	 	 	 	 	 	 	 	 	 	 	 	 	 	1581527077	8.54	15.82
12/02/2020 17:04:38	120220	12022020	170438	91.37	12.418765	-56.933310	91.33	-0.100	0.580	1.360	91.37	-0.80	1.70	 	 	 	 	 	 	 	 	 	 	 	 	 	 	 	 	 	 	1581527078	8.65	16.02
12/02/2020 17:04:39	120220	12022020	170439	91.29	12.418772	-56.933267	91.25	-0.150	0.060	0.650	91.29	-1.40	1.00	 	 	 	 	 	 	 	 	 	 	 	 	 	 	 	 	 	 	1581527079	9.45	17.50
12/02/2020 17:04:40	120220	12022020	170440	91.64	12.418778	-56.933220	91.58	-0.080	-0.700	0.100	91.64	-2.10	0.50	 	 	 	 	 	 	 	 	 	 	 	 	 	 	 	 	 	 	1581527080	9.97	18.46
12/02/2020 17:04:41	120220	12022020	170441	92.16	12.418780	-56.933173	92.13	0.020	-1.020	0.010	92.16	-2.30	0.50	 	 	 	 	 	 	 	 	 	 	 	 	 	 	 	 	 	 	1581527081	9.78	18.11
12/02/2020 17:04:42	120220	12022020	170442	92.47	12.418778	-56.933130	92.51	0.100	-0.700	0.420	92.52	-2.00	0.90	 	 	 	 	 	 	 	 	 	 	 	 	 	 	 	 	 	 	1581527082	9.08	16.82
12/02/2020 17:04:43	120220	12022020	170443	92.58	12.418773	-56.933088	92.57	0.220	-0.300	1.070	92.55	-1.60	1.60	 	 	 	 	 	 	 	 	 	 	 	 	 	 	 	 	 	 	1581527083	8.79	16.28
12/02/2020 17:04:44	120220	12022020	170444	92.34	12.418768	-56.933045	92.27	0.380	-0.310	1.650	92.25	-1.70	2.10	 	 	 	 	 	 	 	 	 	 	 	 	 	 	 	 	 	 	1581527084	9.17	16.98
12/02/2020 17:04:45	120220	12022020	170445	91.84	12.418768	-56.933000	91.77	0.460	-0.630	1.810	91.75	-2.00	2.20	 	 	 	 	 	 	 	 	 	 	 	 	 	 	 	 	 	 	1581527085	9.73	18.02
12/02/2020 17:04:46	120220	12022020	170446	91.47	12.418770	-56.932953	91.48	0.250	-0.540	1.460	91.47	-1.80	1.80	 	 	 	 	 	 	 	 	 	 	 	 	 	 	 	 	 	 	1581527086	9.90	18.33
12/02/2020 17:04:47	120220	12022020	170447	91.83	12.418775	-56.932910	91.81	-0.440	0.420	0.970	91.83	-0.80	1.40	 	 	 	 	 	 	 	 	 	 	 	 	 	 	 	 	 	 	1581527087	8.98	16.63
12/02/2020 17:04:48	120220	12022020	170448	92.55	12.418775	-56.932873	92.53	-1.260	1.350	0.830	92.55	0.00	1.30	 	 	 	 	 	 	 	 	 	 	 	 	 	 	 	 	 	 	1581527088	7.91	14.65
12/02/2020 17:04:49	120220	12022020	170449	92.93	12.418772	-56.932833	92.93	-1.400	0.910	1.000	92.93	-0.60	1.50	 	 	 	 	 	 	 	 	 	 	 	 	 	 	 	 	 	 	1581527089	8.46	15.67
12/02/2020 17:04:50	120220	12022020	170450	92.75	12.418765	-56.932785	92.78	-0.340	-1.060	1.130	92.75	-2.70	1.60	 	 	 	 	 	 	 	 	 	 	 	 	 	 	 	 	 	 	1581527090	10.30	19.08
12/02/2020 17:04:51	120220	12022020	170451	92.29	12.418763	-56.932730	92.35	1.260	-2.780	1.360	92.29	-4.20	1.80	 	 	 	 	 	 	 	 	 	 	 	 	 	 	 	 	 	 	1581527091	11.52	21.34
12/02/2020 17:04:52	120220	12022020	170452	92.24	12.418763	-56.932682	92.27	1.760	-1.910	1.240	92.24	-3.00	1.60	 	 	 	 	 	 	 	 	 	 	 	 	 	 	 	 	 	 	1581527092	10.22	18.93
12/02/2020 17:04:53	120220	12022020	170453	92.66	12.418767	-56.932648	92.66	0.650	0.780	0.700	92.66	-0.20	1.10	 	 	 	 	 	 	 	 	 	 	 	 	 	 	 	 	 	 	1581527093	7.28	13.48
12/02/2020 17:04:54	120220	12022020	170454	93.01	12.418768	-56.932618	93.08	-0.970	2.640	0.680	93.06	1.30	1.20	 	 	 	 	 	 	 	 	 	 	 	 	 	 	 	 	 	 	1581527094	6.17	11.43
12/02/2020 17:04:55	120220	12022020	170455	93.13	12.418765	-56.932580	93.17	-1.430	1.670	1.190	93.13	0.00	1.70	 	 	 	 	 	 	 	 	 	 	 	 	 	 	 	 	 	 	1581527095	8.14	15.08
12/02/2020 17:04:56	120220	12022020	170456	93.04	12.418760	-56.932528	93.06	-0.500	-0.960	1.390	93.01	-2.60	1.80	 	 	 	 	 	 	 	 	 	 	 	 	 	 	 	 	 	 	1581527096	10.95	20.28
12/02/2020 17:04:57	120220	12022020	170457	92.82	12.418757	-56.932475	92.85	0.650	-2.580	1.490	92.78	-3.90	2.00	 	 	 	 	 	 	 	 	 	 	 	 	 	 	 	 	 	 	1581527097	11.37	21.06
12/02/2020 17:04:58	120220	12022020	170458	92.60	12.418755	-56.932432	92.67	0.910	-1.990	1.570	92.60	-3.10	2.00	 	 	 	 	 	 	 	 	 	 	 	 	 	 	 	 	 	 	1581527098	9.42	17.45
12/02/2020 17:04:59	120220	12022020	170459	92.56	12.418753	-56.932397	92.61	0.270	-0.040	1.470	92.56	-1.10	1.90	 	 	 	 	 	 	 	 	 	 	 	 	 	 	 	 	 	 	1581527099	7.36	13.63
12/02/2020 17:05:00	120220	12022020	170500	92.57	12.418755	-56.932363	92.59	-0.500	1.410	1.300	92.57	0.10	1.70	 	 	 	 	 	 	 	 	 	 	 	 	 	 	 	 	 	 	1581527100	6.86	12.70
12/02/2020 17:05:01	120220	12022020	170501	92.48	12.418753	-56.932325	92.51	-0.740	1.180	1.230	92.48	-0.30	1.70	 	 	 	 	 	 	 	 	 	 	 	 	 	 	 	 	 	 	1581527101	8.12	15.04
12/02/2020 17:05:02	120220	12022020	170502	92.16	12.418750	-56.932278	92.19	-0.310	-0.420	1.380	92.16	-2.00	1.90	1015.70	26.60	26.70	20.20	20.30	924.0	68.0	67.0	395.0	28.9	346.00	17.00	73.00	12.50	67619	9203.0	27.4	27.4	1581527102	9.93	18.39
12/02/2020 17:05:03	120220	12022020	170503	91.72	12.418745	-56.932228	91.74	0.370	-1.610	1.540	91.72	-3.00	2.00	 	 	 	 	 	 	 	 	 	 	 	 	 	 	 	 	 	 	1581527103	10.66	19.74
12/02/2020 17:05:04	120220	12022020	170504	91.54	12.418743	-56.932185	91.54	0.690	-1.130	1.380	91.54	-2.30	1.80	 	 	 	 	 	 	 	 	 	 	 	 	 	 	 	 	 	 	1581527104	9.31	17.24
12/02/2020 17:05:05	120220	12022020	170505	91.69	12.418745	-56.932148	91.67	0.440	0.160	1.110	91.69	-1.10	1.50	 	 	 	 	 	 	 	 	 	 	 	 	 	 	 	 	 	 	1581527105	7.69	14.24
12/02/2020 17:05:06	120220	12022020	170506	91.73	12.418747	-56.932112	91.74	0.020	0.720	1.100	91.73	-0.60	1.60	 	 	 	 	 	 	 	 	 	 	 	 	 	 	 	 	 	 	1581527106	7.63	14.13
12/02/2020 17:05:07	120220	12022020	170507	91.45	12.418747	-56.932070	91.38	-0.120	0.250	1.450	91.36	-1.20	2.00	 	 	 	 	 	 	 	 	 	 	 	 	 	 	 	 	 	 	1581527107	8.78	16.26
12/02/2020 17:05:08	120220	12022020	170508	91.05	12.418745	-56.932025	91.03	-0.050	-0.410	1.910	91.00	-1.80	2.40	 	 	 	 	 	 	 	 	 	 	 	 	 	 	 	 	 	 	1581527108	9.51	17.61
12/02/2020 17:05:09	120220	12022020	170509	90.88	12.418743	-56.931982	90.88	-0.020	-0.630	2.330	90.86	-2.00	2.80	 	 	 	 	 	 	 	 	 	 	 	 	 	 	 	 	 	 	1581527109	9.21	17.06
12/02/2020 17:05:10	120220	12022020	170510	90.75	12.418740	-56.931940	90.76	-0.070	-0.680	2.350	90.75	-2.00	2.80	 	 	 	 	 	 	 	 	 	 	 	 	 	 	 	 	 	 	1581527110	8.79	16.28
12/02/2020 17:05:11	120220	12022020	170511	90.51	12.418738	-56.931898	90.54	0.030	-0.840	2.370	90.51	-2.20	2.80	 	 	 	 	 	 	 	 	 	 	 	 	 	 	 	 	 	 	1581527111	9.00	16.67
12/02/2020 17:05:12	120220	12022020	170512	90.32	12.418735	-56.931855	90.33	0.200	-0.730	2.490	90.30	-2.00	2.90	 	 	 	 	 	 	 	 	 	 	 	 	 	 	 	 	 	 	1581527112	9.18	17.00
12/02/2020 17:05:13	120220	12022020	170513	90.34	12.418735	-56.931813	90.33	0.160	-0.040	2.090	90.34	-1.30	2.40	 	 	 	 	 	 	 	 	 	 	 	 	 	 	 	 	 	 	1581527113	8.61	15.95
12/02/2020 17:05:14	120220	12022020	170514	90.42	12.418740	-56.931775	90.41	-0.010	0.500	1.420	90.42	-0.80	1.80	 	 	 	 	 	 	 	 	 	 	 	 	 	 	 	 	 	 	1581527114	8.14	15.08
12/02/2020 17:05:15	120220	12022020	170515	90.45	12.418743	-56.931733	90.44	0.080	0.040	1.090	90.45	-1.40	1.50	 	 	 	 	 	 	 	 	 	 	 	 	 	 	 	 	 	 	1581527115	8.89	16.46
12/02/2020 17:05:16	120220	12022020	170516	90.58	12.418747	-56.931687	90.59	0.360	-0.730	1.060	90.63	-2.10	1.50	 	 	 	 	 	 	 	 	 	 	 	 	 	 	 	 	 	 	1581527116	9.87	18.28
12/02/2020 17:05:17	120220	12022020	170517	90.88	12.418747	-56.931643	90.85	0.280	-0.450	1.220	90.88	-1.70	1.70	 	 	 	 	 	 	 	 	 	 	 	 	 	 	 	 	 	 	1581527117	9.36	17.33
12/02/2020 17:05:18	120220	12022020	170518	90.97	12.418745	-56.931605	90.95	-0.350	0.600	1.440	90.97	-0.60	1.90	 	 	 	 	 	 	 	 	 	 	 	 	 	 	 	 	 	 	1581527118	7.80	14.45
12/02/2020 17:05:19	120220	12022020	170519	90.80	12.418743	-56.931570	90.73	-0.850	0.760	1.710	90.73	-0.70	2.20	 	 	 	 	 	 	 	 	 	 	 	 	 	 	 	 	 	 	1581527119	7.57	14.02
12/02/2020 17:05:20	120220	12022020	170520	90.43	12.418742	-56.931527	90.37	-0.400	-0.750	1.830	90.37	-2.30	2.30	 	 	 	 	 	 	 	 	 	 	 	 	 	 	 	 	 	 	1581527120	9.32	17.26
12/02/2020 17:05:21	120220	12022020	170521	90.21	12.418745	-56.931475	90.22	0.570	-2.130	1.460	90.23	-3.50	1.80	 	 	 	 	 	 	 	 	 	 	 	 	 	 	 	 	 	 	1581527121	10.78	19.96
12/02/2020 17:05:22	120220	12022020	170522	90.43	12.418748	-56.931430	90.48	0.950	-1.650	1.050	90.50	-2.80	1.50	 	 	 	 	 	 	 	 	 	 	 	 	 	 	 	 	 	 	1581527122	9.70	17.96
12/02/2020 17:05:23	120220	12022020	170523	90.82	12.418750	-56.931393	90.89	0.410	0.120	1.040	90.90	-1.00	1.50	 	 	 	 	 	 	 	 	 	 	 	 	 	 	 	 	 	 	1581527123	7.61	14.09
12/02/2020 17:05:24	120220	12022020	170524	91.08	12.418750	-56.931360	91.09	-0.370	1.320	1.100	91.10	0.00	1.60	 	 	 	 	 	 	 	 	 	 	 	 	 	 	 	 	 	 	1581527124	7.12	13.19
12/02/2020 17:05:25	120220	12022020	170525	90.97	12.418748	-56.931320	90.96	-0.610	1.100	1.250	90.97	-0.30	1.70	 	 	 	 	 	 	 	 	 	 	 	 	 	 	 	 	 	 	1581527125	8.34	15.45
12/02/2020 17:05:26	120220	12022020	170526	90.62	12.418747	-56.931275	90.62	-0.340	0.220	1.530	90.62	-1.20	2.00	 	 	 	 	 	 	 	 	 	 	 	 	 	 	 	 	 	 	1581527126	9.45	17.50
12/02/2020 17:05:27	120220	12022020	170527	90.39	12.418748	-56.931230	90.37	0.050	-0.580	1.360	90.39	-2.00	1.80	 	 	 	 	 	 	 	 	 	 	 	 	 	 	 	 	 	 	1581527127	9.55	17.69
12/02/2020 17:05:28	120220	12022020	170528	90.30	12.418753	-56.931187	90.26	0.240	-1.090	1.110	90.28	-2.50	1.60	 	 	 	 	 	 	 	 	 	 	 	 	 	 	 	 	 	 	1581527128	9.29	17.21
12/02/2020 17:05:29	120220	12022020	170529	90.21	12.418753	-56.931143	90.21	0.210	-1.420	1.320	90.21	-2.80	1.80	 	 	 	 	 	 	 	 	 	 	 	 	 	 	 	 	 	 	1581527129	9.17	16.98
12/02/2020 17:05:30	120220	12022020	170530	90.17	12.418752	-56.931100	90.16	0.090	-1.220	1.780	90.15	-2.50	2.30	 	 	 	 	 	 	 	 	 	 	 	 	 	 	 	 	 	 	1581527130	9.13	16.91
12/02/2020 17:05:31	120220	12022020	170531	90.10	12.418748	-56.931060	90.09	-0.050	-0.270	1.910	90.09	-1.40	2.30	 	 	 	 	 	 	 	 	 	 	 	 	 	 	 	 	 	 	1581527131	8.52	15.78
12/02/2020 17:05:32	120220	12022020	170532	90.07	12.418748	-56.931023	90.06	-0.210	0.810	1.640	90.07	-0.40	2.00	 	 	 	 	 	 	 	 	 	 	 	 	 	 	 	 	 	 	1581527132	7.90	14.63
12/02/2020 17:05:33	120220	12022020	170533	90.03	12.418750	-56.930983	90.00	-0.360	1.070	1.460	90.00	-0.30	1.90	 	 	 	 	 	 	 	 	 	 	 	 	 	 	 	 	 	 	1581527133	8.15	15.09
12/02/2020 17:05:34	120220	12022020	170534	89.84	12.418752	-56.930940	89.78	-0.270	0.180	1.490	89.79	-1.30	1.90	 	 	 	 	 	 	 	 	 	 	 	 	 	 	 	 	 	 	1581527134	9.17	16.98
12/02/2020 17:05:35	120220	12022020	170535	89.64	12.418753	-56.930893	89.61	0.070	-0.990	1.370	89.64	-2.40	1.80	 	 	 	 	 	 	 	 	 	 	 	 	 	 	 	 	 	 	1581527135	10.15	18.80
12/02/2020 17:05:36	120220	12022020	170536	89.70	12.418755	-56.930847	89.73	0.260	-1.070	1.240	89.74	-2.30	1.70	 	 	 	 	 	 	 	 	 	 	 	 	 	 	 	 	 	 	1581527136	9.60	17.78
12/02/2020 17:05:37	120220	12022020	170537	89.97	12.418758	-56.930808	89.94	0.150	-0.290	1.080	89.97	-1.50	1.50	 	 	 	 	 	 	 	 	 	 	 	 	 	 	 	 	 	 	1581527137	8.19	15.17
12/02/2020 17:05:38	120220	12022020	170538	90.07	12.418760	-56.930772	90.07	0.090	0.080	0.950	90.08	-1.30	1.40	 	 	 	 	 	 	 	 	 	 	 	 	 	 	 	 	 	 	1581527138	7.92	14.67
12/02/2020 17:05:39	120220	12022020	170539	89.97	12.418763	-56.930728	89.99	0.380	-0.630	1.120	89.97	-2.10	1.60	 	 	 	 	 	 	 	 	 	 	 	 	 	 	 	 	 	 	1581527139	9.10	16.85
12/02/2020 17:05:40	120220	12022020	170540	89.71	12.418762	-56.930680	89.66	0.650	-1.300	1.680	89.64	-2.60	2.20	 	 	 	 	 	 	 	 	 	 	 	 	 	 	 	 	 	 	1581527140	10.21	18.91
12/02/2020 17:05:41	120220	12022020	170541	89.54	12.418762	-56.930637	89.55	0.190	-0.440	1.790	89.54	-1.50	2.20	 	 	 	 	 	 	 	 	 	 	 	 	 	 	 	 	 	 	1581527141	9.17	16.98
12/02/2020 17:05:42	120220	12022020	170542	89.73	12.418763	-56.930603	89.78	-0.820	1.350	1.410	89.79	0.20	1.80	 	 	 	 	 	 	 	 	 	 	 	 	 	 	 	 	 	 	1581527142	7.19	13.32
12/02/2020 17:05:43	120220	12022020	170543	90.10	12.418767	-56.930570	90.16	-1.470	1.950	1.120	90.18	0.50	1.60	 	 	 	 	 	 	 	 	 	 	 	 	 	 	 	 	 	 	1581527143	6.84	12.67
12/02/2020 17:05:44	120220	12022020	170544	90.42	12.418768	-56.930528	90.44	-0.960	0.190	1.170	90.45	-1.50	1.60	 	 	 	 	 	 	 	 	 	 	 	 	 	 	 	 	 	 	1581527144	8.95	16.58
12/02/2020 17:05:45	120220	12022020	170545	90.46	12.418767	-56.930477	90.39	0.250	-2.220	1.430	90.42	-3.80	1.90	 	 	 	 	 	 	 	 	 	 	 	 	 	 	 	 	 	 	1581527145	11.02	20.41
12/02/2020 17:05:46	120220	12022020	170546	90.17	12.418765	-56.930425	90.09	1.140	-2.880	1.800	90.10	-4.10	2.30	 	 	 	 	 	 	 	 	 	 	 	 	 	 	 	 	 	 	1581527146	10.68	19.78
12/02/2020 17:05:47	120220	12022020	170547	89.87	12.418763	-56.930387	89.83	1.110	-1.170	1.930	89.84	-2.20	2.40	 	 	 	 	 	 	 	 	 	 	 	 	 	 	 	 	 	 	1581527147	8.29	15.35
12/02/2020 17:05:48	120220	12022020	170548	89.81	12.418767	-56.930355	89.83	0.360	1.170	1.540	89.85	0.10	1.90	 	 	 	 	 	 	 	 	 	 	 	 	 	 	 	 	 	 	1581527148	6.51	12.06
12/02/2020 17:05:49	120220	12022020	170549	90.14	12.418775	-56.930323	90.21	-0.460	2.210	0.650	90.25	0.90	1.00	 	 	 	 	 	 	 	 	 	 	 	 	 	 	 	 	 	 	1581527149	6.97	12.91
12/02/2020 17:05:50	120220	12022020	170550	90.76	12.418783	-56.930285	90.82	-0.850	1.480	-0.130	90.88	-0.00	0.30	 	 	 	 	 	 	 	 	 	 	 	 	 	 	 	 	 	 	1581527150	8.49	15.72
12/02/2020 17:05:51	120220	12022020	170551	91.21	12.418787	-56.930238	91.21	-0.620	-0.340	-0.060	91.25	-1.90	0.50	 	 	 	 	 	 	 	 	 	 	 	 	 	 	 	 	 	 	1581527151	9.67	17.91
12/02/2020 17:05:52	120220	12022020	170552	91.16	12.418783	-56.930192	91.08	-0.020	-2.010	0.650	91.09	-3.50	1.20	 	 	 	 	 	 	 	 	 	 	 	 	 	 	 	 	 	 	1581527152	10.18	18.85
12/02/2020 17:05:53	120220	12022020	170553	90.80	12.418780	-56.930145	90.73	0.510	-2.550	1.300	90.74	-3.80	1.80	 	 	 	 	 	 	 	 	 	 	 	 	 	 	 	 	 	 	1581527153	9.76	18.08
12/02/2020 17:05:54	120220	12022020	170554	90.62	12.418778	-56.930105	90.58	0.580	-1.540	1.510	90.61	-2.60	1.90	 	 	 	 	 	 	 	 	 	 	 	 	 	 	 	 	 	 	1581527154	8.52	15.78
12/02/2020 17:05:55	120220	12022020	170555	90.64	12.418780	-56.930070	90.60	0.220	0.190	1.310	90.64	-0.90	1.70	 	 	 	 	 	 	 	 	 	 	 	 	 	 	 	 	 	 	1581527155	7.35	13.61
12/02/2020 17:05:56	120220	12022020	170556	90.72	12.418782	-56.930035	90.70	-0.230	1.390	0.800	90.75	0.10	1.20	 	 	 	 	 	 	 	 	 	 	 	 	 	 	 	 	 	 	1581527156	7.35	13.61
12/02/2020 17:05:57	120220	12022020	170557	90.99	12.418788	-56.929997	91.00	-0.470	1.480	0.150	91.07	0.10	0.50	 	 	 	 	 	 	 	 	 	 	 	 	 	 	 	 	 	 	1581527157	8.16	15.11
12/02/2020 17:05:58	120220	12022020	170558	91.35	12.418792	-56.929955	91.37	-0.370	0.520	-0.110	91.41	-1.00	0.40	 	 	 	 	 	 	 	 	 	 	 	 	 	 	 	 	 	 	1581527158	9.08	16.82
12/02/2020 17:05:59	120220	12022020	170559	91.57	12.418793	-56.929908	91.57	-0.030	-0.920	0.180	91.58	-2.40	0.70	 	 	 	 	 	 	 	 	 	 	 	 	 	 	 	 	 	 	1581527159	9.80	18.15
12/02/2020 17:06:00	120220	12022020	170600	91.50	12.418792	-56.929862	91.47	0.280	-1.780	0.670	91.47	-3.10	1.20	 	 	 	 	 	 	 	 	 	 	 	 	 	 	 	 	 	 	1581527160	9.86	18.26
12/02/2020 17:06:01	120220	12022020	170601	91.36	12.418790	-56.929820	91.35	0.350	-1.300	0.960	91.35	-2.50	1.40	 	 	 	 	 	 	 	 	 	 	 	 	 	 	 	 	 	 	1581527161	8.85	16.39
12/02/2020 17:06:02	120220	12022020	170602	91.34	12.418790	-56.929783	91.34	0.150	-0.110	1.090	91.34	-1.30	1.60	1015.70	26.60	26.70	20.20	20.30	922.0	67.0	67.0	394.0	28.8	347.00	16.20	73.00	11.80	67428	11003.0	27.4	27.4	1581527162	7.67	14.20
12/02/2020 17:06:03	120220	12022020	170603	91.37	12.418790	-56.929747	91.37	-0.090	0.620	1.120	91.38	-0.70	1.50	 	 	 	 	 	 	 	 	 	 	 	 	 	 	 	 	 	 	1581527163	7.57	14.02
12/02/2020 17:06:04	120220	12022020	170604	91.47	12.418793	-56.929707	91.47	-0.080	0.230	0.910	91.48	-1.20	1.30	 	 	 	 	 	 	 	 	 	 	 	 	 	 	 	 	 	 	1581527164	8.56	15.85
12/02/2020 17:06:05	120220	12022020	170605	91.39	12.418795	-56.929660	91.36	0.220	-0.870	0.920	91.34	-2.30	1.40	 	 	 	 	 	 	 	 	 	 	 	 	 	 	 	 	 	 	1581527165	9.80	18.15
12/02/2020 17:06:06	120220	12022020	170606	91.28	12.418793	-56.929613	91.34	0.410	-1.100	1.000	91.31	-2.30	1.50	 	 	 	 	 	 	 	 	 	 	 	 	 	 	 	 	 	 	1581527166	10.00	18.52
12/02/2020 17:06:07	120220	12022020	170607	91.50	12.418793	-56.929575	91.58	0.020	0.110	1.270	91.57	-1.00	1.80	 	 	 	 	 	 	 	 	 	 	 	 	 	 	 	 	 	 	1581527167	8.21	15.20
12/02/2020 17:06:08	120220	12022020	170608	91.78	12.418790	-56.929542	91.82	-0.720	1.280	1.600	91.81	0.00	2.00	 	 	 	 	 	 	 	 	 	 	 	 	 	 	 	 	 	 	1581527168	7.01	12.98
12/02/2020 17:06:09	120220	12022020	170609	91.87	12.418788	-56.929505	91.91	-0.990	0.920	1.410	91.90	-0.60	1.80	 	 	 	 	 	 	 	 	 	 	 	 	 	 	 	 	 	 	1581527169	7.82	14.48
12/02/2020 17:06:10	120220	12022020	170610	92.03	12.418790	-56.929458	92.05	-0.410	-0.540	0.860	92.06	-2.00	1.30	 	 	 	 	 	 	 	 	 	 	 	 	 	 	 	 	 	 	1581527170	9.58	17.74
12/02/2020 17:06:11	120220	12022020	170611	92.15	12.418793	-56.929412	92.15	0.460	-1.570	0.820	92.16	-2.90	1.30	 	 	 	 	 	 	 	 	 	 	 	 	 	 	 	 	 	 	1581527171	9.95	18.43
12/02/2020 17:06:12	120220	12022020	170612	92.18	12.418793	-56.929368	92.13	1.000	-1.710	0.830	92.16	-3.00	1.30	 	 	 	 	 	 	 	 	 	 	 	 	 	 	 	 	 	 	1581527172	9.18	17.00
12/02/2020 17:06:13	120220	12022020	170613	92.01	12.418797	-56.929328	91.92	1.070	-1.240	0.770	91.96	-2.40	1.20	 	 	 	 	 	 	 	 	 	 	 	 	 	 	 	 	 	 	1581527173	8.68	16.08
12/02/2020 17:06:14	120220	12022020	170614	91.84	12.418797	-56.929288	91.78	0.710	-0.240	0.880	91.84	-1.40	1.30	 	 	 	 	 	 	 	 	 	 	 	 	 	 	 	 	 	 	1581527174	8.45	15.65
12/02/2020 17:06:15	120220	12022020	170615	91.98	12.418798	-56.929252	91.98	-0.090	1.220	0.860	92.04	0.10	1.30	 	 	 	 	 	 	 	 	 	 	 	 	 	 	 	 	 	 	1581527175	7.70	14.26
12/02/2020 17:06:16	120220	12022020	170616	92.31	12.418798	-56.929217	92.31	-1.000	2.020	0.790	92.37	0.70	1.20	 	 	 	 	 	 	 	 	 	 	 	 	 	 	 	 	 	 	1581527176	7.21	13.35
12/02/2020 17:06:17	120220	12022020	170617	92.52	12.418798	-56.929178	92.53	-1.240	0.860	0.870	92.53	-0.70	1.30	 	 	 	 	 	 	 	 	 	 	 	 	 	 	 	 	 	 	1581527177	8.35	15.46
12/02/2020 17:06:18	120220	12022020	170618	92.52	12.418795	-56.929128	92.51	-0.470	-1.620	0.960	92.52	-3.20	1.40	 	 	 	 	 	 	 	 	 	 	 	 	 	 	 	 	 	 	1581527178	10.51	19.46
12/02/2020 17:06:19	120220	12022020	170619	92.48	12.418792	-56.929077	92.49	0.500	-2.780	1.060	92.47	-4.00	1.50	 	 	 	 	 	 	 	 	 	 	 	 	 	 	 	 	 	 	1581527179	10.91	20.21
12/02/2020 17:06:20	120220	12022020	170620	92.47	12.418788	-56.929037	92.48	0.680	-1.370	0.970	92.47	-2.40	1.40	 	 	 	 	 	 	 	 	 	 	 	 	 	 	 	 	 	 	1581527180	8.50	15.74
12/02/2020 17:06:21	120220	12022020	170621	92.43	12.418790	-56.929007	92.42	0.080	0.970	0.680	92.40	-0.10	1.10	 	 	 	 	 	 	 	 	 	 	 	 	 	 	 	 	 	 	1581527181	6.26	11.59
12/02/2020 17:06:22	120220	12022020	170622	92.27	12.418793	-56.928977	92.23	-0.370	1.770	0.400	92.23	0.40	0.80	 	 	 	 	 	 	 	 	 	 	 	 	 	 	 	 	 	 	1581527182	6.57	12.17
12/02/2020 17:06:23	120220	12022020	170623	92.12	12.418797	-56.928933	92.10	0.050	0.350	0.150	92.10	-1.20	0.60	 	 	 	 	 	 	 	 	 	 	 	 	 	 	 	 	 	 	1581527183	8.98	16.63
12/02/2020 17:06:24	120220	12022020	170624	92.16	12.418800	-56.928883	92.20	0.740	-1.320	0.070	92.20	-2.70	0.50	 	 	 	 	 	 	 	 	 	 	 	 	 	 	 	 	 	 	1581527184	10.56	19.56
12/02/2020 17:06:25	120220	12022020	170625	92.34	12.418800	-56.928838	92.39	0.780	-1.490	0.400	92.37	-2.70	0.90	 	 	 	 	 	 	 	 	 	 	 	 	 	 	 	 	 	 	1581527185	9.65	17.87
12/02/2020 17:06:26	120220	12022020	170626	92.49	12.418797	-56.928802	92.53	-0.070	-0.240	1.070	92.51	-1.30	1.60	 	 	 	 	 	 	 	 	 	 	 	 	 	 	 	 	 	 	1581527186	7.71	14.28
12/02/2020 17:06:27	120220	12022020	170627	92.54	12.418790	-56.928770	92.57	-1.090	1.020	1.800	92.53	-0.20	2.30	 	 	 	 	 	 	 	 	 	 	 	 	 	 	 	 	 	 	1581527187	6.80	12.59
12/02/2020 17:06:28	120220	12022020	170628	92.48	12.418785	-56.928737	92.50	-1.290	1.030	2.190	92.46	-0.40	2.60	 	 	 	 	 	 	 	 	 	 	 	 	 	 	 	 	 	 	1581527188	7.40	13.70
12/02/2020 17:06:29	120220	12022020	170629	92.38	12.418783	-56.928693	92.38	-0.250	-0.510	2.010	92.35	-2.10	2.40	 	 	 	 	 	 	 	 	 	 	 	 	 	 	 	 	 	 	1581527189	9.05	16.76
12/02/2020 17:06:30	120220	12022020	170630	92.18	12.418785	-56.928643	92.17	1.200	-2.230	1.580	92.14	-3.60	2.00	 	 	 	 	 	 	 	 	 	 	 	 	 	 	 	 	 	 	1581527190	10.55	19.54
12/02/2020 17:06:31	120220	12022020	170631	92.16	12.418788	-56.928597	92.21	1.670	-2.120	1.200	92.19	-3.20	1.60	 	 	 	 	 	 	 	 	 	 	 	 	 	 	 	 	 	 	1581527191	9.87	18.28
12/02/2020 17:06:32	120220	12022020	170632	92.48	12.418790	-56.928562	92.58	0.730	-0.050	1.170	92.58	-1.00	1.60	 	 	 	 	 	 	 	 	 	 	 	 	 	 	 	 	 	 	1581527192	7.48	13.85
12/02/2020 17:06:33	120220	12022020	170633	92.96	12.418790	-56.928533	93.04	-0.810	2.170	1.350	93.04	1.00	1.80	 	 	 	 	 	 	 	 	 	 	 	 	 	 	 	 	 	 	1581527193	5.81	10.76
12/02/2020 17:06:34	120220	12022020	170634	93.31	12.418787	-56.928503	93.38	-1.710	2.660	1.410	93.36	1.20	1.90	 	 	 	 	 	 	 	 	 	 	 	 	 	 	 	 	 	 	1581527194	6.42	11.89
12/02/2020 17:06:35	120220	12022020	170635	93.48	12.418783	-56.928463	93.53	-1.310	0.900	1.330	93.49	-0.80	1.80	 	 	 	 	 	 	 	 	 	 	 	 	 	 	 	 	 	 	1581527195	8.49	15.72
12/02/2020 17:06:36	120220	12022020	170636	93.39	12.418782	-56.928415	93.38	0.020	-1.710	1.340	93.33	-3.30	1.80	 	 	 	 	 	 	 	 	 	 	 	 	 	 	 	 	 	 	1581527196	10.32	19.11
12/02/2020 17:06:37	120220	12022020	170637	92.95	12.418780	-56.928367	92.92	1.240	-3.190	1.470	92.85	-4.50	1.90	 	 	 	 	 	 	 	 	 	 	 	 	 	 	 	 	 	 	1581527197	10.38	19.22
12/02/2020 17:06:38	120220	12022020	170638	92.54	12.418782	-56.928323	92.59	1.500	-2.600	1.480	92.52	-3.70	1.90	 	 	 	 	 	 	 	 	 	 	 	 	 	 	 	 	 	 	1581527198	8.91	16.50
12/02/2020 17:06:39	120220	12022020	170639	92.72	12.418783	-56.928290	92.87	0.790	-0.450	1.320	92.84	-1.40	1.70	 	 	 	 	 	 	 	 	 	 	 	 	 	 	 	 	 	 	1581527199	7.14	13.22
12/02/2020 17:06:40	120220	12022020	170640	93.37	12.418783	-56.928262	93.53	-0.290	1.910	1.040	93.50	0.80	1.50	 	 	 	 	 	 	 	 	 	 	 	 	 	 	 	 	 	 	1581527200	6.03	11.17
12/02/2020 17:06:41	120220	12022020	170641	93.85	12.418782	-56.928232	93.91	-1.050	2.790	0.900	93.88	1.40	1.30	 	 	 	 	 	 	 	 	 	 	 	 	 	 	 	 	 	 	1581527201	6.33	11.72
12/02/2020 17:06:42	120220	12022020	170642	93.83	12.418780	-56.928192	93.83	-0.920	1.250	0.980	93.79	-0.40	1.50	 	 	 	 	 	 	 	 	 	 	 	 	 	 	 	 	 	 	1581527202	8.30	15.37
12/02/2020 17:06:43	120220	12022020	170643	93.49	12.418777	-56.928143	93.46	-0.070	-1.420	1.280	93.41	-3.00	1.80	 	 	 	 	 	 	 	 	 	 	 	 	 	 	 	 	 	 	1581527203	10.39	19.24
12/02/2020 17:06:44	120220	12022020	170644	93.19	12.418773	-56.928093	93.23	0.580	-2.760	1.490	93.17	-4.00	1.90	 	 	 	 	 	 	 	 	 	 	 	 	 	 	 	 	 	 	1581527204	10.44	19.33
12/02/2020 17:06:45	120220	12022020	170645	93.19	12.418772	-56.928055	93.25	0.510	-1.830	1.460	93.21	-2.90	1.90	 	 	 	 	 	 	 	 	 	 	 	 	 	 	 	 	 	 	1581527205	8.27	15.32
12/02/2020 17:06:46	120220	12022020	170646	93.31	12.418770	-56.928025	93.35	0.010	0.180	1.300	93.32	-0.90	1.70	 	 	 	 	 	 	 	 	 	 	 	 	 	 	 	 	 	 	1581527206	6.36	11.78
12/02/2020 17:06:47	120220	12022020	170647	93.26	12.418770	-56.927995	93.25	-0.290	1.290	1.270	93.22	0.00	1.70	 	 	 	 	 	 	 	 	 	 	 	 	 	 	 	 	 	 	1581527207	6.41	11.87
12/02/2020 17:06:48	120220	12022020	170648	93.08	12.418768	-56.927957	93.08	-0.160	0.790	1.180	93.07	-0.70	1.60	 	 	 	 	 	 	 	 	 	 	 	 	 	 	 	 	 	 	1581527208	8.05	14.91
12/02/2020 17:06:49	120220	12022020	170649	93.20	12.418767	-56.927912	93.25	0.150	-0.390	0.810	93.25	-1.80	1.20	 	 	 	 	 	 	 	 	 	 	 	 	 	 	 	 	 	 	1581527209	9.37	17.35
12/02/2020 17:06:50	120220	12022020	170650	93.40	12.418767	-56.927870	93.40	0.230	-0.780	0.640	93.40	-2.00	1.10	 	 	 	 	 	 	 	 	 	 	 	 	 	 	 	 	 	 	1581527210	9.10	16.85
12/02/2020 17:06:51	120220	12022020	170651	93.14	12.418765	-56.927833	93.04	0.020	-0.140	0.830	93.03	-1.40	1.30	 	 	 	 	 	 	 	 	 	 	 	 	 	 	 	 	 	 	1581527211	7.66	14.19
12/02/2020 17:06:52	120220	12022020	170652	92.38	12.418765	-56.927800	92.23	-0.090	0.180	1.140	92.21	-1.20	1.60	 	 	 	 	 	 	 	 	 	 	 	 	 	 	 	 	 	 	1581527212	7.12	13.19
12/02/2020 17:06:53	120220	12022020	170653	91.71	12.418767	-56.927760	91.66	0.280	-0.770	1.250	91.64	-2.20	1.70	 	 	 	 	 	 	 	 	 	 	 	 	 	 	 	 	 	 	1581527213	8.48	15.70
12/02/2020 17:06:54	120220	12022020	170654	91.65	12.418767	-56.927713	91.69	0.680	-1.710	1.110	91.70	-3.00	1.50	 	 	 	 	 	 	 	 	 	 	 	 	 	 	 	 	 	 	1581527214	9.74	18.04
12/02/2020 17:06:55	120220	12022020	170655	91.94	12.418767	-56.927672	91.97	0.480	-1.080	0.950	92.00	-2.20	1.40	 	 	 	 	 	 	 	 	 	 	 	 	 	 	 	 	 	 	1581527215	8.75	16.21
12/02/2020 17:06:56	120220	12022020	170656	92.15	12.418763	-56.927640	92.14	-0.200	0.740	1.130	92.16	-0.40	1.60	 	 	 	 	 	 	 	 	 	 	 	 	 	 	 	 	 	 	1581527216	6.87	12.72
12/02/2020 17:06:57	120220	12022020	170657	92.08	12.418758	-56.927610	92.01	-0.730	1.890	1.660	92.01	0.60	2.20	 	 	 	 	 	 	 	 	 	 	 	 	 	 	 	 	 	 	1581527217	6.29	11.65
12/02/2020 17:06:58	120220	12022020	170658	91.63	12.418755	-56.927573	91.52	-0.710	1.240	2.060	91.51	-0.20	2.50	 	 	 	 	 	 	 	 	 	 	 	 	 	 	 	 	 	 	1581527218	7.65	14.17
12/02/2020 17:06:59	120220	12022020	170659	91.10	12.418755	-56.927530	91.03	-0.320	-0.450	2.040	91.03	-2.00	2.50	 	 	 	 	 	 	 	 	 	 	 	 	 	 	 	 	 	 	1581527219	9.22	17.08
12/02/2020 17:07:00	120220	12022020	170700	90.96	12.418757	-56.927485	90.99	0.150	-1.810	1.730	90.99	-3.20	2.10	 	 	 	 	 	 	 	 	 	 	 	 	 	 	 	 	 	 	1581527220	9.59	17.76
12/02/2020 17:07:01	120220	12022020	170701	91.19	12.418758	-56.927443	91.25	0.480	-2.020	1.450	91.23	-3.30	1.90	 	 	 	 	 	 	 	 	 	 	 	 	 	 	 	 	 	 	1581527221	8.83	16.35
12/02/2020 17:07:02	120220	12022020	170702	91.29	12.418758	-56.927407	91.31	0.600	-1.220	1.480	91.28	-2.40	1.90	1015.70	26.60	26.70	20.30	20.40	918.0	68.0	68.0	394.0	28.8	347.00	16.20	75.00	12.10	67247	20000.0	27.4	27.4	1581527222	7.89	14.61
12/02/2020 17:07:03	120220	12022020	170703	91.23	12.418758	-56.927372	91.27	0.370	0.200	1.670	91.22	-0.90	2.10	 	 	 	 	 	 	 	 	 	 	 	 	 	 	 	 	 	 	1581527223	7.26	13.45
12/02/2020 17:07:04	120220	12022020	170704	91.24	12.418757	-56.927340	91.28	-0.120	1.480	1.860	91.25	0.30	2.30	 	 	 	 	 	 	 	 	 	 	 	 	 	 	 	 	 	 	1581527224	6.73	12.46
12/02/2020 17:07:05	120220	12022020	170705	91.24	12.418757	-56.927307	91.25	-0.450	1.470	1.880	91.21	0.00	2.30	 	 	 	 	 	 	 	 	 	 	 	 	 	 	 	 	 	 	1581527225	7.15	13.24
12/02/2020 17:07:06	120220	12022020	170706	91.09	12.418758	-56.927263	91.10	-0.210	-0.260	1.720	91.06	-1.80	2.10	 	 	 	 	 	 	 	 	 	 	 	 	 	 	 	 	 	 	1581527226	8.88	16.45
12/02/2020 17:07:07	120220	12022020	170707	90.99	12.418760	-56.927215	91.01	0.310	-2.130	1.570	90.98	-3.50	2.00	 	 	 	 	 	 	 	 	 	 	 	 	 	 	 	 	 	 	1581527227	10.27	19.02
12/02/2020 17:07:08	120220	12022020	170708	90.99	12.418760	-56.927172	91.02	0.430	-2.110	1.510	91.01	-3.20	2.00	 	 	 	 	 	 	 	 	 	 	 	 	 	 	 	 	 	 	1581527228	9.41	17.43
12/02/2020 17:07:09	120220	12022020	170709	91.11	12.418760	-56.927138	91.17	-0.110	-0.200	1.450	91.15	-1.20	1.90	 	 	 	 	 	 	 	 	 	 	 	 	 	 	 	 	 	 	1581527229	7.07	13.09
12/02/2020 17:07:10	120220	12022020	170710	91.36	12.418758	-56.927110	91.45	-0.750	1.610	1.260	91.42	0.40	1.70	 	 	 	 	 	 	 	 	 	 	 	 	 	 	 	 	 	 	1581527230	5.84	10.82
12/02/2020 17:07:11	120220	12022020	170711	91.63	12.418760	-56.927078	91.67	-0.780	1.620	0.880	91.68	0.20	1.30	 	 	 	 	 	 	 	 	 	 	 	 	 	 	 	 	 	 	1581527231	6.86	12.70
12/02/2020 17:07:12	120220	12022020	170712	91.71	12.418762	-56.927035	91.69	-0.010	-0.140	0.620	91.68	-1.70	1.10	 	 	 	 	 	 	 	 	 	 	 	 	 	 	 	 	 	 	1581527232	8.96	16.59
12/02/2020 17:07:13	120220	12022020	170713	91.49	12.418765	-56.926987	91.44	0.970	-2.040	0.690	91.45	-3.50	1.20	 	 	 	 	 	 	 	 	 	 	 	 	 	 	 	 	 	 	1581527233	10.29	19.06
12/02/2020 17:07:14	120220	12022020	170714	91.35	12.418765	-56.926942	91.35	1.110	-2.050	0.960	91.36	-3.20	1.50	 	 	 	 	 	 	 	 	 	 	 	 	 	 	 	 	 	 	1581527234	9.44	17.48
12/02/2020 17:07:15	120220	12022020	170715	91.47	12.418765	-56.926908	91.53	0.180	-0.220	1.370	91.52	-1.20	1.90	 	 	 	 	 	 	 	 	 	 	 	 	 	 	 	 	 	 	1581527235	7.06	13.08
12/02/2020 17:07:16	120220	12022020	170716	91.73	12.418762	-56.926882	91.78	-1.030	1.700	1.620	91.76	0.50	2.10	 	 	 	 	 	 	 	 	 	 	 	 	 	 	 	 	 	 	1581527236	5.72	10.59
12/02/2020 17:07:17	120220	12022020	170717	91.80	12.418760	-56.926850	91.79	-1.450	1.850	1.620	91.78	0.40	2.00	 	 	 	 	 	 	 	 	 	 	 	 	 	 	 	 	 	 	1581527237	6.56	12.15
12/02/2020 17:07:18	120220	12022020	170718	91.68	12.418758	-56.926810	91.64	-0.790	0.070	1.460	91.64	-1.50	1.90	 	 	 	 	 	 	 	 	 	 	 	 	 	 	 	 	 	 	1581527238	8.76	16.22
12/02/2020 17:07:19	120220	12022020	170719	91.46	12.418758	-56.926762	91.40	0.360	-2.040	1.370	91.40	-3.50	1.80	 	 	 	 	 	 	 	 	 	 	 	 	 	 	 	 	 	 	1581527239	10.19	18.87
12/02/2020 17:07:20	120220	12022020	170720	91.24	12.418760	-56.926715	91.20	1.150	-2.650	1.110	91.23	-3.80	1.50	 	 	 	 	 	 	 	 	 	 	 	 	 	 	 	 	 	 	1581527240	9.77	18.09
12/02/2020 17:07:21	120220	12022020	170721	91.34	12.418762	-56.926678	91.33	1.060	-1.170	0.870	91.38	-2.20	1.30	 	 	 	 	 	 	 	 	 	 	 	 	 	 	 	 	 	 	1581527241	7.89	14.61
12/02/2020 17:07:22	120220	12022020	170722	91.60	12.418763	-56.926648	91.61	0.150	1.050	1.060	91.65	-0.00	1.50	 	 	 	 	 	 	 	 	 	 	 	 	 	 	 	 	 	 	1581527242	6.16	11.41
12/02/2020 17:07:23	120220	12022020	170723	91.76	12.418760	-56.926620	91.74	-0.920	2.310	1.290	91.77	1.00	1.70	 	 	 	 	 	 	 	 	 	 	 	 	 	 	 	 	 	 	1581527243	6.09	11.28
12/02/2020 17:07:24	120220	12022020	170724	91.77	12.418758	-56.926585	91.72	-1.360	1.830	1.120	91.76	0.30	1.50	 	 	 	 	 	 	 	 	 	 	 	 	 	 	 	 	 	 	1581527244	7.31	13.54
12/02/2020 17:07:25	120220	12022020	170725	91.64	12.418760	-56.926543	91.55	-0.740	-0.110	0.990	91.58	-1.70	1.50	 	 	 	 	 	 	 	 	 	 	 	 	 	 	 	 	 	 	1581527245	8.90	16.48
12/02/2020 17:07:26	120220	12022020	170726	91.29	12.418760	-56.926497	91.17	0.470	-2.190	1.110	91.20	-3.70	1.60	 	 	 	 	 	 	 	 	 	 	 	 	 	 	 	 	 	 	1581527246	9.96	18.45
12/02/2020 17:07:27	120220	12022020	170727	90.97	12.418762	-56.926450	90.91	1.290	-2.910	1.050	90.95	-4.10	1.50	 	 	 	 	 	 	 	 	 	 	 	 	 	 	 	 	 	 	1581527247	9.58	17.74
12/02/2020 17:07:28	120220	12022020	170728	90.91	12.418765	-56.926413	90.86	1.060	-1.800	1.110	90.90	-2.80	1.60	 	 	 	 	 	 	 	 	 	 	 	 	 	 	 	 	 	 	1581527248	8.04	14.89
12/02/2020 17:07:29	120220	12022020	170729	90.86	12.418763	-56.926382	90.82	0.090	0.180	1.560	90.85	-0.90	2.10	 	 	 	 	 	 	 	 	 	 	 	 	 	 	 	 	 	 	1581527249	6.62	12.26
12/02/2020 17:07:30	120220	12022020	170730	90.82	12.418760	-56.926352	90.81	-0.840	1.700	1.900	90.84	0.50	2.40	 	 	 	 	 	 	 	 	 	 	 	 	 	 	 	 	 	 	1581527250	6.51	12.06
12/02/2020 17:07:31	120220	12022020	170731	90.95	12.418757	-56.926317	90.95	-1.200	1.970	1.700	90.99	0.60	2.10	 	 	 	 	 	 	 	 	 	 	 	 	 	 	 	 	 	 	1581527251	7.32	13.56
12/02/2020 17:07:32	120220	12022020	170732	91.14	12.418755	-56.926277	91.12	-0.860	0.990	1.350	91.16	-0.50	1.80	 	 	 	 	 	 	 	 	 	 	 	 	 	 	 	 	 	 	1581527252	8.40	15.56
12/02/2020 17:07:33	120220	12022020	170733	91.10	12.418757	-56.926233	91.02	-0.050	-0.570	1.160	91.06	-2.00	1.60	 	 	 	 	 	 	 	 	 	 	 	 	 	 	 	 	 	 	1581527253	9.22	17.08
12/02/2020 17:07:34	120220	12022020	170734	90.82	12.418760	-56.926188	90.73	0.750	-1.730	1.040	90.75	-3.10	1.50	 	 	 	 	 	 	 	 	 	 	 	 	 	 	 	 	 	 	1581527254	9.40	17.41
12/02/2020 17:07:35	120220	12022020	170735	90.56	12.418763	-56.926148	90.50	1.040	-1.790	1.070	90.53	-3.00	1.50	 	 	 	 	 	 	 	 	 	 	 	 	 	 	 	 	 	 	1581527255	8.74	16.19
12/02/2020 17:07:36	120220	12022020	170736	90.67	12.418767	-56.926112	90.72	0.700	-0.910	1.230	90.75	-2.10	1.70	 	 	 	 	 	 	 	 	 	 	 	 	 	 	 	 	 	 	1581527256	7.69	14.24
12/02/2020 17:07:37	120220	12022020	170737	91.17	12.418767	-56.926078	91.25	0.120	0.130	1.400	91.28	-1.00	1.90	 	 	 	 	 	 	 	 	 	 	 	 	 	 	 	 	 	 	1581527257	7.13	13.20
12/02/2020 17:07:38	120220	12022020	170738	91.57	12.418765	-56.926043	91.58	-0.250	0.660	1.670	91.60	-0.60	2.20	 	 	 	 	 	 	 	 	 	 	 	 	 	 	 	 	 	 	1581527258	7.41	13.72
12/02/2020 17:07:39	120220	12022020	170739	91.54	12.418762	-56.926005	91.50	-0.320	0.520	1.980	91.49	-0.80	2.40	 	 	 	 	 	 	 	 	 	 	 	 	 	 	 	 	 	 	1581527259	8.12	15.04
12/02/2020 17:07:40	120220	12022020	170740	91.23	12.418760	-56.925963	91.16	-0.280	-0.010	2.050	91.15	-1.40	2.50	 	 	 	 	 	 	 	 	 	 	 	 	 	 	 	 	 	 	1581527260	8.67	16.06
12/02/2020 17:07:41	120220	12022020	170741	90.92	12.418762	-56.925922	90.88	-0.240	-0.490	1.770	90.90	-1.80	2.20	 	 	 	 	 	 	 	 	 	 	 	 	 	 	 	 	 	 	1581527261	8.75	16.21
12/02/2020 17:07:42	120220	12022020	170742	90.92	12.418765	-56.925882	90.92	-0.170	-0.680	1.110	90.96	-2.00	1.50	 	 	 	 	 	 	 	 	 	 	 	 	 	 	 	 	 	 	1581527262	8.59	15.91
12/02/2020 17:07:43	120220	12022020	170743	91.21	12.418770	-56.925843	91.22	-0.050	-0.650	0.440	91.28	-1.90	0.90	 	 	 	 	 	 	 	 	 	 	 	 	 	 	 	 	 	 	1581527263	8.36	15.48
12/02/2020 17:07:44	120220	12022020	170744	91.46	12.418773	-56.925803	91.43	0.200	-0.760	0.370	91.48	-2.10	0.90	 	 	 	 	 	 	 	 	 	 	 	 	 	 	 	 	 	 	1581527264	8.38	15.52
12/02/2020 17:07:45	120220	12022020	170745	91.44	12.418772	-56.925762	91.39	0.530	-0.910	0.750	91.40	-2.20	1.20	 	 	 	 	 	 	 	 	 	 	 	 	 	 	 	 	 	 	1581527265	8.83	16.35
12/02/2020 17:07:46	120220	12022020	170746	91.25	12.418770	-56.925720	91.20	0.510	-0.250	0.990	91.22	-1.40	1.50	 	 	 	 	 	 	 	 	 	 	 	 	 	 	 	 	 	 	1581527266	8.58	15.89
12/02/2020 17:07:47	120220	12022020	170747	91.18	12.418772	-56.925687	91.18	-0.050	1.100	1.000	91.20	-0.00	1.40	 	 	 	 	 	 	 	 	 	 	 	 	 	 	 	 	 	 	1581527267	7.30	13.52
12/02/2020 17:07:48	120220	12022020	170748	91.32	12.418772	-56.925653	91.36	-0.700	1.770	1.000	91.36	0.40	1.50	 	 	 	 	 	 	 	 	 	 	 	 	 	 	 	 	 	 	1581527268	6.82	12.63
12/02/2020 17:07:49	120220	12022020	170749	91.45	12.418773	-56.925615	91.46	-0.770	0.650	1.030	91.45	-0.90	1.50	 	 	 	 	 	 	 	 	 	 	 	 	 	 	 	 	 	 	1581527269	8.08	14.96
12/02/2020 17:07:50	120220	12022020	170750	91.34	12.418775	-56.925568	91.31	-0.170	-1.540	0.960	91.29	-3.10	1.40	 	 	 	 	 	 	 	 	 	 	 	 	 	 	 	 	 	 	1581527270	9.85	18.24
12/02/2020 17:07:51	120220	12022020	170751	91.14	12.418775	-56.925520	91.14	0.670	-2.960	1.140	91.12	-4.30	1.60	 	 	 	 	 	 	 	 	 	 	 	 	 	 	 	 	 	 	1581527271	10.40	19.26
12/02/2020 17:07:52	120220	12022020	170752	91.11	12.418773	-56.925478	91.14	0.980	-2.080	1.440	91.13	-3.10	1.90	 	 	 	 	 	 	 	 	 	 	 	 	 	 	 	 	 	 	1581527272	8.85	16.39
12/02/2020 17:07:53	120220	12022020	170753	91.29	12.418773	-56.925447	91.34	0.440	0.280	1.350	91.34	-0.70	1.80	 	 	 	 	 	 	 	 	 	 	 	 	 	 	 	 	 	 	1581527273	6.62	12.26
12/02/2020 17:07:54	120220	12022020	170754	91.46	12.418775	-56.925418	91.45	-0.480	2.000	0.980	91.45	0.80	1.40	 	 	 	 	 	 	 	 	 	 	 	 	 	 	 	 	 	 	1581527274	6.06	11.22
12/02/2020 17:07:55	120220	12022020	170755	91.30	12.418777	-56.925383	91.22	-0.940	1.670	0.800	91.23	0.20	1.30	 	 	 	 	 	 	 	 	 	 	 	 	 	 	 	 	 	 	1581527275	7.47	13.83
12/02/2020 17:07:56	120220	12022020	170756	90.98	12.418778	-56.925337	90.93	-0.530	-0.230	0.860	90.95	-1.80	1.30	 	 	 	 	 	 	 	 	 	 	 	 	 	 	 	 	 	 	1581527276	9.58	17.74
12/02/2020 17:07:57	120220	12022020	170757	90.99	12.418780	-56.925288	91.02	0.200	-1.620	0.630	91.07	-3.00	1.00	 	 	 	 	 	 	 	 	 	 	 	 	 	 	 	 	 	 	1581527277	10.27	19.02
12/02/2020 17:07:58	120220	12022020	170758	91.54	12.418783	-56.925247	91.61	0.420	-1.200	0.230	91.67	-2.30	0.70	 	 	 	 	 	 	 	 	 	 	 	 	 	 	 	 	 	 	1581527278	8.79	16.28
12/02/2020 17:07:59	120220	12022020	170759	92.07	12.418783	-56.925215	92.09	-0.050	0.100	0.390	92.12	-1.10	0.90	 	 	 	 	 	 	 	 	 	 	 	 	 	 	 	 	 	 	1581527279	6.90	12.78
12/02/2020 17:08:00	120220	12022020	170800	92.13	12.418780	-56.925183	92.09	-0.540	0.530	1.170	92.09	-0.80	1.70	 	 	 	 	 	 	 	 	 	 	 	 	 	 	 	 	 	 	1581527280	6.89	12.76
12/02/2020 17:08:01	120220	12022020	170801	91.85	12.418775	-56.925143	91.78	-0.280	-0.380	1.690	91.77	-1.80	2.10	 	 	 	 	 	 	 	 	 	 	 	 	 	 	 	 	 	 	1581527281	8.46	15.67
12/02/2020 17:08:02	120220	12022020	170802	91.43	12.418773	-56.925097	91.36	0.670	-1.440	1.750	91.36	-2.80	2.20	1015.70	26.60	26.70	20.30	20.40	918.0	68.0	68.0	393.0	28.8	351.00	15.10	79.00	11.00	67044	5399.0	27.4	27.4	1581527282	9.69	17.95
12/02/2020 17:08:03	120220	12022020	170803	91.28	12.418777	-56.925053	91.30	1.200	-1.070	1.650	91.30	-2.20	2.10	 	 	 	 	 	 	 	 	 	 	 	 	 	 	 	 	 	 	1581527283	9.17	16.98
12/02/2020 17:08:04	120220	12022020	170804	91.59	12.418780	-56.925020	91.67	0.580	0.530	1.250	91.69	-0.60	1.60	 	 	 	 	 	 	 	 	 	 	 	 	 	 	 	 	 	 	1581527284	7.25	13.43
12/02/2020 17:08:05	120220	12022020	170805	92.10	12.418783	-56.924990	92.17	-0.710	1.770	0.660	92.19	0.50	1.10	 	 	 	 	 	 	 	 	 	 	 	 	 	 	 	 	 	 	1581527285	6.38	11.82
12/02/2020 17:08:06	120220	12022020	170806	92.51	12.418787	-56.924957	92.58	-1.460	1.460	0.340	92.57	-0.00	0.80	 	 	 	 	 	 	 	 	 	 	 	 	 	 	 	 	 	 	1581527286	7.15	13.24
12/02/2020 17:08:07	120220	12022020	170807	92.73	12.418785	-56.924915	92.74	-1.050	-0.290	0.440	92.73	-1.90	0.90	 	 	 	 	 	 	 	 	 	 	 	 	 	 	 	 	 	 	1581527287	8.78	16.26
12/02/2020 17:08:08	120220	12022020	170808	92.62	12.418782	-56.924868	92.58	0.040	-2.190	0.810	92.56	-3.60	1.30	 	 	 	 	 	 	 	 	 	 	 	 	 	 	 	 	 	 	1581527288	9.89	18.32
12/02/2020 17:08:09	120220	12022020	170809	92.29	12.418778	-56.924823	92.24	0.940	-2.860	1.080	92.22	-4.10	1.50	 	 	 	 	 	 	 	 	 	 	 	 	 	 	 	 	 	 	1581527289	9.58	17.74
12/02/2020 17:08:10	120220	12022020	170810	91.99	12.418778	-56.924783	91.96	1.090	-1.850	1.030	91.96	-2.90	1.50	 	 	 	 	 	 	 	 	 	 	 	 	 	 	 	 	 	 	1581527290	8.31	15.39
12/02/2020 17:08:11	120220	12022020	170811	91.97	12.418780	-56.924750	91.98	0.520	0.180	0.750	92.00	-0.90	1.20	 	 	 	 	 	 	 	 	 	 	 	 	 	 	 	 	 	 	1581527291	7.02	13.00
12/02/2020 17:08:12	120220	12022020	170812	92.22	12.418782	-56.924720	92.26	-0.330	1.990	0.400	92.29	0.80	0.80	 	 	 	 	 	 	 	 	 	 	 	 	 	 	 	 	 	 	1581527292	6.53	12.09
12/02/2020 17:08:13	120220	12022020	170813	92.50	12.418783	-56.924687	92.52	-1.000	2.560	0.150	92.54	1.20	0.60	 	 	 	 	 	 	 	 	 	 	 	 	 	 	 	 	 	 	1581527293	7.01	12.98
12/02/2020 17:08:14	120220	12022020	170814	92.55	12.418785	-56.924648	92.54	-1.150	1.570	0.250	92.51	0.00	0.70	 	 	 	 	 	 	 	 	 	 	 	 	 	 	 	 	 	 	1581527294	8.09	14.98
12/02/2020 17:08:15	120220	12022020	170815	92.29	12.418783	-56.924605	92.24	-0.700	-0.410	0.570	92.21	-2.00	1.10	 	 	 	 	 	 	 	 	 	 	 	 	 	 	 	 	 	 	1581527295	9.16	16.96
12/02/2020 17:08:16	120220	12022020	170816	91.96	12.418783	-56.924558	91.94	0.220	-2.480	0.890	91.90	-4.00	1.40	 	 	 	 	 	 	 	 	 	 	 	 	 	 	 	 	 	 	1581527296	9.80	18.15
12/02/2020 17:08:17	120220	12022020	170817	91.78	12.418782	-56.924512	91.82	1.230	-3.470	1.160	91.78	-4.70	1.60	 	 	 	 	 	 	 	 	 	 	 	 	 	 	 	 	 	 	1581527297	9.78	18.11
12/02/2020 17:08:18	120220	12022020	170818	91.91	12.418782	-56.924472	91.99	1.630	-2.320	1.270	91.95	-3.30	1.70	 	 	 	 	 	 	 	 	 	 	 	 	 	 	 	 	 	 	1581527298	8.55	15.83
12/02/2020 17:08:19	120220	12022020	170819	92.08	12.418780	-56.924440	92.12	1.030	0.300	1.200	92.08	-0.70	1.60	 	 	 	 	 	 	 	 	 	 	 	 	 	 	 	 	 	 	1581527299	6.61	12.24
12/02/2020 17:08:20	120220	12022020	170820	91.98	12.418782	-56.924413	91.96	-0.220	2.560	1.190	91.93	1.40	1.60	 	 	 	 	 	 	 	 	 	 	 	 	 	 	 	 	 	 	1581527300	5.79	10.72
12/02/2020 17:08:21	120220	12022020	170821	91.68	12.418783	-56.924382	91.64	-1.290	2.870	1.290	91.62	1.40	1.70	 	 	 	 	 	 	 	 	 	 	 	 	 	 	 	 	 	 	1581527301	6.58	12.19
12/02/2020 17:08:22	120220	12022020	170822	91.42	12.418783	-56.924340	91.42	-1.330	0.770	1.280	91.40	-0.90	1.70	 	 	 	 	 	 	 	 	 	 	 	 	 	 	 	 	 	 	1581527302	8.79	16.28
12/02/2020 17:08:23	120220	12022020	170823	91.51	12.418785	-56.924290	91.59	-0.580	-1.830	0.990	91.58	-3.30	1.40	 	 	 	 	 	 	 	 	 	 	 	 	 	 	 	 	 	 	1581527303	10.53	19.50
12/02/2020 17:08:24	120220	12022020	170824	91.91	12.418785	-56.924245	91.98	0.180	-2.640	0.980	91.98	-3.90	1.50	 	 	 	 	 	 	 	 	 	 	 	 	 	 	 	 	 	 	1581527304	9.71	17.98
12/02/2020 17:08:25	120220	12022020	170825	92.19	12.418783	-56.924208	92.22	0.470	-1.520	1.350	92.20	-2.60	1.80	 	 	 	 	 	 	 	 	 	 	 	 	 	 	 	 	 	 	1581527305	7.56	14.00
12/02/2020 17:08:26	120220	12022020	170826	91.98	12.418780	-56.924178	91.94	0.550	-0.270	1.720	91.89	-1.50	2.20	 	 	 	 	 	 	 	 	 	 	 	 	 	 	 	 	 	 	1581527306	6.59	12.20
12/02/2020 17:08:27	120220	12022020	170827	91.59	12.418782	-56.924140	91.61	0.680	-0.010	1.780	91.57	-1.30	2.20	 	 	 	 	 	 	 	 	 	 	 	 	 	 	 	 	 	 	1581527307	7.77	14.39
12/02/2020 17:08:28	120220	12022020	170828	91.79	12.418785	-56.924100	91.93	0.560	0.110	1.440	91.92	-1.10	1.80	 	 	 	 	 	 	 	 	 	 	 	 	 	 	 	 	 	 	1581527308	8.70	16.11
12/02/2020 17:08:29	120220	12022020	170829	92.53	12.418787	-56.924063	92.67	-0.050	0.910	0.800	92.67	-0.30	1.20	 	 	 	 	 	 	 	 	 	 	 	 	 	 	 	 	 	 	1581527309	7.86	14.56
12/02/2020 17:08:30	120220	12022020	170830	93.13	12.418790	-56.924030	93.18	-0.720	1.500	0.240	93.18	0.20	0.70	 	 	 	 	 	 	 	 	 	 	 	 	 	 	 	 	 	 	1581527310	6.90	12.78
12/02/2020 17:08:31	120220	12022020	170831	93.19	12.418790	-56.923993	93.17	-0.630	0.480	0.270	93.16	-1.10	0.80	 	 	 	 	 	 	 	 	 	 	 	 	 	 	 	 	 	 	1581527311	7.74	14.33
12/02/2020 17:08:32	120220	12022020	170832	93.09	12.418792	-56.923948	93.12	0.190	-1.400	0.560	93.12	-2.90	1.00	 	 	 	 	 	 	 	 	 	 	 	 	 	 	 	 	 	 	1581527312	9.55	17.69
12/02/2020 17:08:33	120220	12022020	170833	93.29	12.418792	-56.923903	93.35	0.720	-2.020	0.710	93.35	-3.30	1.20	 	 	 	 	 	 	 	 	 	 	 	 	 	 	 	 	 	 	1581527313	9.44	17.48
12/02/2020 17:08:34	120220	12022020	170834	93.54	12.418790	-56.923867	93.58	0.410	-1.180	0.820	93.57	-2.30	1.30	 	 	 	 	 	 	 	 	 	 	 	 	 	 	 	 	 	 	1581527314	7.73	14.32
12/02/2020 17:08:35	120220	12022020	170835	93.62	12.418787	-56.923835	93.63	-0.330	-0.010	1.150	93.62	-1.20	1.60	 	 	 	 	 	 	 	 	 	 	 	 	 	 	 	 	 	 	1581527315	6.88	12.74
12/02/2020 17:08:36	120220	12022020	170836	93.64	12.418782	-56.923802	93.63	-0.730	0.580	1.260	93.64	-0.70	1.70	 	 	 	 	 	 	 	 	 	 	 	 	 	 	 	 	 	 	1581527316	7.18	13.30
12/02/2020 17:08:37	120220	12022020	170837	93.63	12.418780	-56.923763	93.60	-0.330	0.150	0.880	93.60	-1.30	1.30	 	 	 	 	 	 	 	 	 	 	 	 	 	 	 	 	 	 	1581527317	8.14	15.08
12/02/2020 17:08:38	120220	12022020	170838	93.46	12.418782	-56.923718	93.42	0.520	-0.640	0.530	93.43	-2.00	1.00	 	 	 	 	 	 	 	 	 	 	 	 	 	 	 	 	 	 	1581527318	9.23	17.09
12/02/2020 17:08:39	120220	12022020	170839	93.41	12.418783	-56.923677	93.39	0.820	-0.560	0.410	93.42	-1.80	0.90	 	 	 	 	 	 	 	 	 	 	 	 	 	 	 	 	 	 	1581527319	8.96	16.59
12/02/2020 17:08:40	120220	12022020	170840	93.52	12.418783	-56.923640	93.49	0.210	0.260	0.480	93.54	-0.90	1.00	 	 	 	 	 	 	 	 	 	 	 	 	 	 	 	 	 	 	1581527320	7.58	14.04
12/02/2020 17:08:41	120220	12022020	170841	93.57	12.418782	-56.923607	93.52	-0.630	0.670	0.810	93.55	-0.70	1.30	 	 	 	 	 	 	 	 	 	 	 	 	 	 	 	 	 	 	1581527321	7.12	13.19
12/02/2020 17:08:42	120220	12022020	170842	93.43	12.418777	-56.923570	93.36	-0.740	0.070	1.310	93.38	-1.40	1.80	 	 	 	 	 	 	 	 	 	 	 	 	 	 	 	 	 	 	1581527322	8.06	14.93
12/02/2020 17:08:43	120220	12022020	170843	93.05	12.418772	-56.923527	92.95	-0.060	-0.830	1.700	92.96	-2.20	2.20	 	 	 	 	 	 	 	 	 	 	 	 	 	 	 	 	 	 	1581527323	9.06	16.78
12/02/2020 17:08:44	120220	12022020	170844	92.66	12.418770	-56.923485	92.58	0.580	-1.030	1.600	92.61	-2.30	2.00	 	 	 	 	 	 	 	 	 	 	 	 	 	 	 	 	 	 	1581527324	8.89	16.46
12/02/2020 17:08:45	120220	12022020	170845	92.55	12.418772	-56.923447	92.52	0.640	-0.440	1.170	92.57	-1.60	1.60	 	 	 	 	 	 	 	 	 	 	 	 	 	 	 	 	 	 	1581527325	7.92	14.67
12/02/2020 17:08:46	120220	12022020	170846	92.63	12.418775	-56.923412	92.63	0.290	0.060	0.930	92.65	-1.20	1.40	 	 	 	 	 	 	 	 	 	 	 	 	 	 	 	 	 	 	1581527326	7.44	13.78
12/02/2020 17:08:47	120220	12022020	170847	92.68	12.418775	-56.923375	92.67	-0.070	-0.060	1.110	92.66	-1.40	1.60	 	 	 	 	 	 	 	 	 	 	 	 	 	 	 	 	 	 	1581527327	7.96	14.74
12/02/2020 17:08:48	120220	12022020	170848	92.46	12.418770	-56.923333	92.39	-0.230	-0.470	1.610	92.37	-1.80	2.10	 	 	 	 	 	 	 	 	 	 	 	 	 	 	 	 	 	 	1581527328	8.63	15.98
12/02/2020 17:08:49	120220	12022020	170849	91.95	12.418765	-56.923293	91.89	-0.170	-0.520	1.940	91.85	-1.80	2.40	 	 	 	 	 	 	 	 	 	 	 	 	 	 	 	 	 	 	1581527329	8.70	16.11
12/02/2020 17:08:50	120220	12022020	170850	91.59	12.418763	-56.923255	91.56	-0.030	-0.170	1.810	91.55	-1.40	2.20	 	 	 	 	 	 	 	 	 	 	 	 	 	 	 	 	 	 	1581527330	8.11	15.02
12/02/2020 17:08:51	120220	12022020	170851	91.57	12.418765	-56.923217	91.62	0.110	-0.040	1.480	91.61	-1.30	1.90	 	 	 	 	 	 	 	 	 	 	 	 	 	 	 	 	 	 	1581527331	8.07	14.95
12/02/2020 17:08:52	120220	12022020	170852	91.84	12.418768	-56.923177	91.90	0.090	-0.150	1.150	91.88	-1.50	1.60	 	 	 	 	 	 	 	 	 	 	 	 	 	 	 	 	 	 	1581527332	8.41	15.58
12/02/2020 17:08:53	120220	12022020	170853	92.02	12.418770	-56.923137	92.03	-0.040	-0.250	1.040	92.03	-1.60	1.50	 	 	 	 	 	 	 	 	 	 	 	 	 	 	 	 	 	 	1581527333	8.41	15.58
12/02/2020 17:08:54	120220	12022020	170854	92.01	12.418770	-56.923097	92.02	-0.060	-0.430	1.300	91.99	-1.70	1.80	 	 	 	 	 	 	 	 	 	 	 	 	 	 	 	 	 	 	1581527334	8.42	15.59
12/02/2020 17:08:55	120220	12022020	170855	91.93	12.418767	-56.923057	91.95	0.060	-0.470	1.670	91.92	-1.70	2.10	 	 	 	 	 	 	 	 	 	 	 	 	 	 	 	 	 	 	1581527335	8.60	15.93
12/02/2020 17:08:56	120220	12022020	170856	91.84	12.418765	-56.923017	91.85	0.140	-0.250	1.710	91.82	-1.50	2.10	 	 	 	 	 	 	 	 	 	 	 	 	 	 	 	 	 	 	1581527336	8.33	15.43
12/02/2020 17:08:57	120220	12022020	170857	91.72	12.418765	-56.922978	91.71	0.130	-0.110	1.430	91.71	-1.40	1.80	 	 	 	 	 	 	 	 	 	 	 	 	 	 	 	 	 	 	1581527337	8.22	15.22
12/02/2020 17:08:58	120220	12022020	170858	91.83	12.418768	-56.922938	91.90	0.070	-0.080	1.010	91.91	-1.40	1.40	 	 	 	 	 	 	 	 	 	 	 	 	 	 	 	 	 	 	1581527338	8.44	15.63
12/02/2020 17:08:59	120220	12022020	170859	92.29	12.418772	-56.922900	92.36	-0.090	0.060	0.490	92.37	-1.20	0.90	 	 	 	 	 	 	 	 	 	 	 	 	 	 	 	 	 	 	1581527339	8.32	15.41
12/02/2020 17:09:00	120220	12022020	170900	92.51	12.418773	-56.922862	92.50	-0.240	0.010	0.440	92.48	-1.30	0.90	 	 	 	 	 	 	 	 	 	 	 	 	 	 	 	 	 	 	1581527340	8.14	15.08
12/02/2020 17:09:01	120220	12022020	170901	92.16	12.418772	-56.922820	92.07	-0.200	-0.470	0.970	92.04	-1.80	1.50	 	 	 	 	 	 	 	 	 	 	 	 	 	 	 	 	 	 	1581527341	8.59	15.91
12/02/2020 17:09:02	120220	12022020	170902	91.63	12.418768	-56.922778	91.59	0.030	-0.970	1.350	91.56	-2.30	1.80	1015.60	26.60	26.70	20.40	20.50	916.0	69.0	68.0	393.0	28.9	349.00	15.20	78.00	11.10	66995	8232.0	27.4	27.4	1581527342	9.05	16.76
12/02/2020 17:09:03	120220	12022020	170903	91.48	12.418768	-56.922735	91.53	0.260	-0.980	1.280	91.51	-2.20	1.70	 	 	 	 	 	 	 	 	 	 	 	 	 	 	 	 	 	 	1581527343	8.94	16.56
12/02/2020 17:09:04	120220	12022020	170904	91.76	12.418768	-56.922695	91.83	0.320	-0.440	0.890	91.84	-1.60	1.30	 	 	 	 	 	 	 	 	 	 	 	 	 	 	 	 	 	 	1581527344	8.40	15.56
12/02/2020 17:09:05	120220	12022020	170905	91.99	12.418770	-56.922658	91.98	0.170	0.130	0.580	91.99	-1.10	1.00	 	 	 	 	 	 	 	 	 	 	 	 	 	 	 	 	 	 	1581527345	8.09	14.98
12/02/2020 17:09:06	120220	12022020	170906	91.84	12.418772	-56.922618	91.77	-0.090	0.360	0.810	91.78	-0.90	1.30	 	 	 	 	 	 	 	 	 	 	 	 	 	 	 	 	 	 	1581527346	8.26	15.30
12/02/2020 17:09:07	120220	12022020	170907	91.59	12.418770	-56.922578	91.56	-0.240	0.200	1.060	91.57	-1.10	1.50	 	 	 	 	 	 	 	 	 	 	 	 	 	 	 	 	 	 	1581527347	8.59	15.91
12/02/2020 17:09:08	120220	12022020	170908	91.54	12.418770	-56.922535	91.53	-0.160	-0.160	0.950	91.56	-1.50	1.40	 	 	 	 	 	 	 	 	 	 	 	 	 	 	 	 	 	 	1581527348	8.89	16.46
12/02/2020 17:09:09	120220	12022020	170909	91.60	12.418773	-56.922493	91.60	-0.050	-0.420	0.790	91.61	-1.70	1.20	 	 	 	 	 	 	 	 	 	 	 	 	 	 	 	 	 	 	1581527349	8.96	16.59
12/02/2020 17:09:10	120220	12022020	170910	91.60	12.418773	-56.922453	91.61	-0.180	-0.370	0.960	91.59	-1.60	1.50	 	 	 	 	 	 	 	 	 	 	 	 	 	 	 	 	 	 	1581527350	8.60	15.93
12/02/2020 17:09:11	120220	12022020	170911	91.51	12.418772	-56.922413	91.51	-0.340	-0.330	1.360	91.48	-1.60	1.90	 	 	 	 	 	 	 	 	 	 	 	 	 	 	 	 	 	 	1581527351	8.33	15.43
12/02/2020 17:09:12	120220	12022020	170912	91.35	12.418768	-56.922372	91.36	-0.230	-0.600	1.700	91.31	-1.90	2.20	 	 	 	 	 	 	 	 	 	 	 	 	 	 	 	 	 	 	1581527352	8.71	16.13
12/02/2020 17:09:13	120220	12022020	170913	91.20	12.418765	-56.922328	91.24	0.130	-0.880	1.830	91.19	-2.10	2.30	 	 	 	 	 	 	 	 	 	 	 	 	 	 	 	 	 	 	1581527353	9.18	17.00
12/02/2020 17:09:14	120220	12022020	170914	91.14	12.418765	-56.922287	91.16	0.450	-0.560	1.570	91.12	-1.70	2.00	 	 	 	 	 	 	 	 	 	 	 	 	 	 	 	 	 	 	1581527354	8.94	16.56
12/02/2020 17:09:15	120220	12022020	170915	91.02	12.418768	-56.922248	90.99	0.450	0.210	1.110	90.98	-1.00	1.50	 	 	 	 	 	 	 	 	 	 	 	 	 	 	 	 	 	 	1581527355	8.23	15.24
12/02/2020 17:09:16	120220	12022020	170916	90.83	12.418775	-56.922210	90.82	0.180	0.500	0.740	90.82	-0.80	1.20	 	 	 	 	 	 	 	 	 	 	 	 	 	 	 	 	 	 	1581527356	8.21	15.20
12/02/2020 17:09:17	120220	12022020	170917	91.01	12.418780	-56.922168	91.12	-0.300	0.310	0.650	91.11	-1.00	1.10	 	 	 	 	 	 	 	 	 	 	 	 	 	 	 	 	 	 	1581527357	8.78	16.26
12/02/2020 17:09:18	120220	12022020	170918	91.60	12.418778	-56.922127	91.74	-0.710	-0.110	0.920	91.71	-1.50	1.40	 	 	 	 	 	 	 	 	 	 	 	 	 	 	 	 	 	 	1581527358	8.73	16.17
12/02/2020 17:09:19	120220	12022020	170919	91.96	12.418775	-56.922085	92.00	-0.550	-0.990	1.460	91.95	-2.40	2.00	 	 	 	 	 	 	 	 	 	 	 	 	 	 	 	 	 	 	1581527359	9.13	16.91
12/02/2020 17:09:20	120220	12022020	170920	91.68	12.418768	-56.922038	91.68	0.130	-1.650	2.090	91.60	-2.90	2.60	 	 	 	 	 	 	 	 	 	 	 	 	 	 	 	 	 	 	1581527360	9.85	18.24
12/02/2020 17:09:21	120220	12022020	170921	91.43	12.418763	-56.921995	91.50	0.470	-0.900	2.290	91.45	-2.00	2.70	 	 	 	 	 	 	 	 	 	 	 	 	 	 	 	 	 	 	1581527361	9.04	16.74
12/02/2020 17:09:22	120220	12022020	170922	91.75	12.418765	-56.921960	91.90	0.070	0.740	1.870	91.87	-0.40	2.20	 	 	 	 	 	 	 	 	 	 	 	 	 	 	 	 	 	 	1581527362	7.36	13.63
12/02/2020 17:09:23	120220	12022020	170923	92.35	12.418768	-56.921928	92.45	-0.540	1.550	1.100	92.44	0.20	1.50	 	 	 	 	 	 	 	 	 	 	 	 	 	 	 	 	 	 	1581527363	7.05	13.06
12/02/2020 17:09:24	120220	12022020	170924	92.57	12.418773	-56.921887	92.57	-0.520	0.490	0.550	92.55	-1.00	1.00	 	 	 	 	 	 	 	 	 	 	 	 	 	 	 	 	 	 	1581527364	8.56	15.85
12/02/2020 17:09:25	120220	12022020	170925	92.42	12.418777	-56.921838	92.43	0.180	-1.490	0.510	92.40	-2.90	1.00	 	 	 	 	 	 	 	 	 	 	 	 	 	 	 	 	 	 	1581527365	10.42	19.30
12/02/2020 17:09:26	120220	12022020	170926	92.34	12.418775	-56.921788	92.37	0.760	-2.310	0.890	92.34	-3.50	1.40	 	 	 	 	 	 	 	 	 	 	 	 	 	 	 	 	 	 	1581527366	10.45	19.35
12/02/2020 17:09:27	120220	12022020	170927	92.42	12.418772	-56.921748	92.46	0.620	-1.190	1.150	92.46	-2.20	1.60	 	 	 	 	 	 	 	 	 	 	 	 	 	 	 	 	 	 	1581527367	8.59	15.91
12/02/2020 17:09:28	120220	12022020	170928	92.61	12.418770	-56.921715	92.63	-0.050	0.640	1.070	92.65	-0.50	1.50	 	 	 	 	 	 	 	 	 	 	 	 	 	 	 	 	 	 	1581527368	7.00	12.96
12/02/2020 17:09:29	120220	12022020	170929	92.75	12.418768	-56.921682	92.76	-0.600	1.610	0.960	92.77	0.40	1.40	 	 	 	 	 	 	 	 	 	 	 	 	 	 	 	 	 	 	1581527369	7.06	13.08
12/02/2020 17:09:30	120220	12022020	170930	92.81	12.418768	-56.921643	92.81	-0.690	1.150	0.910	92.81	-0.30	1.40	 	 	 	 	 	 	 	 	 	 	 	 	 	 	 	 	 	 	1581527370	8.26	15.30
12/02/2020 17:09:31	120220	12022020	170931	92.77	12.418768	-56.921598	92.76	-0.410	-0.270	0.930	92.75	-1.70	1.40	 	 	 	 	 	 	 	 	 	 	 	 	 	 	 	 	 	 	1581527371	9.52	17.63
12/02/2020 17:09:32	120220	12022020	170932	92.54	12.418765	-56.921550	92.49	-0.090	-1.470	1.250	92.48	-2.80	1.70	 	 	 	 	 	 	 	 	 	 	 	 	 	 	 	 	 	 	1581527372	9.95	18.43
12/02/2020 17:09:33	120220	12022020	170933	92.21	12.418762	-56.921507	92.18	0.060	-1.530	1.530	92.15	-2.70	2.00	 	 	 	 	 	 	 	 	 	 	 	 	 	 	 	 	 	 	1581527373	9.17	16.98
12/02/2020 17:09:34	120220	12022020	170934	91.96	12.418760	-56.921470	91.95	0.120	-0.770	1.530	91.93	-1.90	2.00	 	 	 	 	 	 	 	 	 	 	 	 	 	 	 	 	 	 	1581527374	8.05	14.91
12/02/2020 17:09:35	120220	12022020	170935	91.86	12.418760	-56.921432	91.85	0.310	-0.270	1.430	91.85	-1.50	1.90	 	 	 	 	 	 	 	 	 	 	 	 	 	 	 	 	 	 	1581527375	8.01	14.83
12/02/2020 17:09:36	120220	12022020	170936	91.84	12.418760	-56.921390	91.83	0.450	-0.090	1.260	91.82	-1.30	1.70	 	 	 	 	 	 	 	 	 	 	 	 	 	 	 	 	 	 	1581527376	8.77	16.24
12/02/2020 17:09:37	120220	12022020	170937	91.64	12.418760	-56.921350	91.58	0.180	0.380	1.090	91.58	-0.80	1.50	 	 	 	 	 	 	 	 	 	 	 	 	 	 	 	 	 	 	1581527377	8.63	15.98
12/02/2020 17:09:38	120220	12022020	170938	91.23	12.418762	-56.921312	91.18	-0.330	0.870	1.060	91.14	-0.40	1.50	 	 	 	 	 	 	 	 	 	 	 	 	 	 	 	 	 	 	1581527378	8.00	14.82
12/02/2020 17:09:39	120220	12022020	170939	90.88	12.418763	-56.921272	90.88	-0.460	0.380	1.090	90.85	-1.00	1.50	 	 	 	 	 	 	 	 	 	 	 	 	 	 	 	 	 	 	1581527379	8.33	15.43
12/02/2020 17:09:40	120220	12022020	170940	90.87	12.418765	-56.921227	90.94	-0.010	-1.020	1.040	90.91	-2.40	1.50	 	 	 	 	 	 	 	 	 	 	 	 	 	 	 	 	 	 	1581527380	9.67	17.91
12/02/2020 17:09:41	120220	12022020	170941	91.06	12.418767	-56.921178	91.11	0.430	-1.800	1.180	91.08	-3.10	1.70	 	 	 	 	 	 	 	 	 	 	 	 	 	 	 	 	 	 	1581527381	10.07	18.65
12/02/2020 17:09:42	120220	12022020	170942	91.09	12.418765	-56.921137	91.13	0.320	-1.060	1.700	91.07	-2.10	2.20	 	 	 	 	 	 	 	 	 	 	 	 	 	 	 	 	 	 	1581527382	8.78	16.26
12/02/2020 17:09:43	120220	12022020	170943	90.97	12.418760	-56.921103	91.02	-0.220	0.400	2.260	90.95	-0.70	2.80	 	 	 	 	 	 	 	 	 	 	 	 	 	 	 	 	 	 	1581527383	7.40	13.70
12/02/2020 17:09:44	120220	12022020	170944	90.87	12.418757	-56.921068	90.91	-0.620	1.170	2.380	90.87	-0.10	2.80	 	 	 	 	 	 	 	 	 	 	 	 	 	 	 	 	 	 	1581527384	7.37	13.65
12/02/2020 17:09:45	120220	12022020	170945	90.81	12.418758	-56.921028	90.85	-0.520	0.740	2.030	90.80	-0.70	2.40	 	 	 	 	 	 	 	 	 	 	 	 	 	 	 	 	 	 	1581527385	8.45	15.65
12/02/2020 17:09:46	120220	12022020	170946	90.72	12.418762	-56.920983	90.74	-0.090	-0.440	1.410	90.70	-1.90	1.80	 	 	 	 	 	 	 	 	 	 	 	 	 	 	 	 	 	 	1581527386	9.52	17.63
12/02/2020 17:09:47	120220	12022020	170947	90.70	12.418767	-56.920937	90.74	0.370	-1.450	0.830	90.73	-2.80	1.20	 	 	 	 	 	 	 	 	 	 	 	 	 	 	 	 	 	 	1581527387	9.90	18.33
12/02/2020 17:09:48	120220	12022020	170948	90.99	12.418772	-56.920893	91.09	0.600	-1.410	0.550	91.09	-2.60	1.00	 	 	 	 	 	 	 	 	 	 	 	 	 	 	 	 	 	 	1581527388	9.30	17.22
12/02/2020 17:09:49	120220	12022020	170949	91.49	12.418772	-56.920853	91.57	0.440	-0.510	0.610	91.57	-1.70	1.10	 	 	 	 	 	 	 	 	 	 	 	 	 	 	 	 	 	 	1581527389	8.17	15.13
12/02/2020 17:09:50	120220	12022020	170950	91.69	12.418773	-56.920817	91.67	0.030	0.330	0.700	91.67	-0.90	1.20	 	 	 	 	 	 	 	 	 	 	 	 	 	 	 	 	 	 	1581527390	7.76	14.37
12/02/2020 17:09:51	120220	12022020	170951	91.44	12.418773	-56.920778	91.38	-0.320	0.550	1.090	91.37	-0.80	1.60	 	 	 	 	 	 	 	 	 	 	 	 	 	 	 	 	 	 	1581527391	8.21	15.20
12/02/2020 17:09:52	120220	12022020	170952	91.15	12.418772	-56.920737	91.15	-0.360	0.160	1.510	91.11	-1.20	2.00	 	 	 	 	 	 	 	 	 	 	 	 	 	 	 	 	 	 	1581527392	8.87	16.43
12/02/2020 17:09:53	120220	12022020	170953	90.99	12.418772	-56.920692	91.00	-0.120	-0.450	1.550	90.99	-1.80	2.00	 	 	 	 	 	 	 	 	 	 	 	 	 	 	 	 	 	 	1581527393	9.35	17.32
12/02/2020 17:09:54	120220	12022020	170954	91.12	12.418773	-56.920648	91.19	0.100	-0.730	1.140	91.19	-2.00	1.50	 	 	 	 	 	 	 	 	 	 	 	 	 	 	 	 	 	 	1581527394	9.32	17.26
12/02/2020 17:09:55	120220	12022020	170955	91.48	12.418777	-56.920607	91.56	0.080	-0.470	0.860	91.55	-1.70	1.30	 	 	 	 	 	 	 	 	 	 	 	 	 	 	 	 	 	 	1581527395	8.76	16.22
12/02/2020 17:09:56	120220	12022020	170956	91.74	12.418777	-56.920568	91.79	-0.110	-0.050	0.970	91.76	-1.30	1.40	 	 	 	 	 	 	 	 	 	 	 	 	 	 	 	 	 	 	1581527396	8.24	15.26
12/02/2020 17:09:57	120220	12022020	170957	91.78	12.418775	-56.920528	91.78	-0.180	-0.050	1.180	91.76	-1.40	1.70	 	 	 	 	 	 	 	 	 	 	 	 	 	 	 	 	 	 	1581527397	8.41	15.58
12/02/2020 17:09:58	120220	12022020	170958	91.53	12.418773	-56.920485	91.48	0.050	-0.490	1.470	91.45	-1.80	1.90	 	 	 	 	 	 	 	 	 	 	 	 	 	 	 	 	 	 	1581527398	9.06	16.78
12/02/2020 17:09:59	120220	12022020	170959	91.17	12.418773	-56.920440	91.13	0.370	-0.850	1.510	91.13	-2.10	1.90	 	 	 	 	 	 	 	 	 	 	 	 	 	 	 	 	 	 	1581527399	9.49	17.58
12/02/2020 17:10:00	120220	12022020	171000	91.19	12.418777	-56.920397	91.24	0.380	-0.520	1.100	91.26	-1.70	1.50	 	 	 	 	 	 	 	 	 	 	 	 	 	 	 	 	 	 	1581527400	9.09	16.83
12/02/2020 17:10:01	120220	12022020	171001	91.69	12.418780	-56.920358	91.76	0.030	0.320	0.650	91.79	-0.90	1.10	 	 	 	 	 	 	 	 	 	 	 	 	 	 	 	 	 	 	1581527401	8.21	15.20
12/02/2020 17:10:02	120220	12022020	171002	92.05	12.418782	-56.920322	92.04	-0.340	0.760	0.610	92.06	-0.50	1.10	1015.70	26.60	26.70	20.30	20.40	912.0	68.0	68.0	393.0	28.8	347.00	16.10	74.00	11.70	66797	12187.0	27.4	27.4	1581527402	7.92	14.67
12/02/2020 17:10:03	120220	12022020	171003	91.91	12.418782	-56.920280	91.86	-0.340	0.170	1.030	91.84	-1.30	1.50	 	 	 	 	 	 	 	 	 	 	 	 	 	 	 	 	 	 	1581527403	8.70	16.11
12/02/2020 17:10:04	120220	12022020	171004	91.63	12.418780	-56.920233	91.61	0.050	-1.040	1.240	91.60	-2.40	1.70	 	 	 	 	 	 	 	 	 	 	 	 	 	 	 	 	 	 	1581527404	9.81	18.17
12/02/2020 17:10:05	120220	12022020	171005	91.58	12.418780	-56.920187	91.62	0.470	-1.670	1.180	91.59	-2.90	1.60	 	 	 	 	 	 	 	 	 	 	 	 	 	 	 	 	 	 	1581527405	10.05	18.61
12/02/2020 17:10:06	120220	12022020	171006	91.68	12.418782	-56.920143	91.71	0.500	-0.990	1.140	91.70	-2.10	1.60	 	 	 	 	 	 	 	 	 	 	 	 	 	 	 	 	 	 	1581527406	9.06	16.78
12/02/2020 17:10:07	120220	12022020	171007	91.70	12.418782	-56.920107	91.71	0.030	0.310	1.030	91.68	-0.80	1.50	 	 	 	 	 	 	 	 	 	 	 	 	 	 	 	 	 	 	1581527407	7.86	14.56
12/02/2020 17:10:08	120220	12022020	171008	91.58	12.418783	-56.920070	91.58	-0.620	1.020	1.030	91.56	-0.30	1.50	 	 	 	 	 	 	 	 	 	 	 	 	 	 	 	 	 	 	1581527408	7.81	14.46
12/02/2020 17:10:09	120220	12022020	171009	91.58	12.418782	-56.920028	91.62	-0.910	0.710	1.130	91.61	-0.70	1.60	 	 	 	 	 	 	 	 	 	 	 	 	 	 	 	 	 	 	1581527409	8.63	15.98
12/02/2020 17:10:10	120220	12022020	171010	91.75	12.418782	-56.919983	91.75	-0.510	-0.290	1.010	91.77	-1.70	1.50	 	 	 	 	 	 	 	 	 	 	 	 	 	 	 	 	 	 	1581527410	9.50	17.59
12/02/2020 17:10:11	120220	12022020	171011	91.68	12.418780	-56.919937	91.63	0.370	-1.340	1.110	91.63	-2.70	1.60	 	 	 	 	 	 	 	 	 	 	 	 	 	 	 	 	 	 	1581527411	10.02	18.56
12/02/2020 17:10:12	120220	12022020	171012	91.53	12.418782	-56.919890	91.52	0.990	-1.520	1.200	91.54	-2.70	1.70	 	 	 	 	 	 	 	 	 	 	 	 	 	 	 	 	 	 	1581527412	9.83	18.21
12/02/2020 17:10:13	120220	12022020	171013	91.69	12.418782	-56.919848	91.73	0.780	-0.490	1.320	91.75	-1.60	1.80	 	 	 	 	 	 	 	 	 	 	 	 	 	 	 	 	 	 	1581527413	8.56	15.85
12/02/2020 17:10:14	120220	12022020	171014	92.00	12.418782	-56.919813	92.02	0.010	0.760	1.520	92.04	-0.40	2.00	 	 	 	 	 	 	 	 	 	 	 	 	 	 	 	 	 	 	1581527414	7.54	13.96
12/02/2020 17:10:15	120220	12022020	171015	92.13	12.418782	-56.919775	92.12	-0.570	0.980	1.500	92.14	-0.40	1.90	 	 	 	 	 	 	 	 	 	 	 	 	 	 	 	 	 	 	1581527415	8.01	14.83
12/02/2020 17:10:16	120220	12022020	171016	92.12	12.418783	-56.919732	92.10	-0.600	0.090	1.340	92.11	-1.40	1.80	 	 	 	 	 	 	 	 	 	 	 	 	 	 	 	 	 	 	1581527416	9.28	17.19
12/02/2020 17:10:17	120220	12022020	171017	92.11	12.418782	-56.919683	92.12	-0.220	-1.070	1.320	92.12	-2.40	1.80	 	 	 	 	 	 	 	 	 	 	 	 	 	 	 	 	 	 	1581527417	10.08	18.67
12/02/2020 17:10:18	120220	12022020	171018	92.17	12.418782	-56.919637	92.19	0.180	-1.450	1.080	92.18	-2.70	1.50	 	 	 	 	 	 	 	 	 	 	 	 	 	 	 	 	 	 	1581527418	9.84	18.22
12/02/2020 17:10:19	120220	12022020	171019	92.15	12.418783	-56.919595	92.16	0.320	-0.760	0.710	92.13	-1.90	1.10	 	 	 	 	 	 	 	 	 	 	 	 	 	 	 	 	 	 	1581527419	8.83	16.35
12/02/2020 17:10:20	120220	12022020	171020	92.01	12.418787	-56.919557	92.02	0.220	0.080	0.730	91.98	-1.10	1.20	 	 	 	 	 	 	 	 	 	 	 	 	 	 	 	 	 	 	1581527420	8.14	15.08
12/02/2020 17:10:21	120220	12022020	171021	91.95	12.418787	-56.919517	92.00	0.010	0.300	0.960	91.97	-1.00	1.40	 	 	 	 	 	 	 	 	 	 	 	 	 	 	 	 	 	 	1581527421	8.55	15.83
12/02/2020 17:10:22	120220	12022020	171022	92.13	12.418785	-56.919473	92.20	-0.150	0.090	1.000	92.17	-1.20	1.40	 	 	 	 	 	 	 	 	 	 	 	 	 	 	 	 	 	 	1581527422	9.18	17.00
12/02/2020 17:10:23	120220	12022020	171023	92.25	12.418783	-56.919430	92.28	-0.160	-0.160	0.980	92.25	-1.50	1.40	 	 	 	 	 	 	 	 	 	 	 	 	 	 	 	 	 	 	1581527423	9.31	17.24
12/02/2020 17:10:24	120220	12022020	171024	92.19	12.418783	-56.919385	92.20	0.010	-0.440	0.840	92.18	-1.80	1.30	 	 	 	 	 	 	 	 	 	 	 	 	 	 	 	 	 	 	1581527424	9.31	17.24
12/02/2020 17:10:25	120220	12022020	171025	92.12	12.418783	-56.919342	92.12	0.260	-0.610	0.850	92.10	-1.90	1.30	 	 	 	 	 	 	 	 	 	 	 	 	 	 	 	 	 	 	1581527425	9.35	17.32
12/02/2020 17:10:26	120220	12022020	171026	92.08	12.418785	-56.919298	92.10	0.290	-0.350	0.850	92.10	-1.60	1.30	 	 	 	 	 	 	 	 	 	 	 	 	 	 	 	 	 	 	1581527426	9.16	16.96
12/02/2020 17:10:27	120220	12022020	171027	92.23	12.418787	-56.919258	92.26	-0.150	0.270	0.700	92.26	-0.90	1.20	 	 	 	 	 	 	 	 	 	 	 	 	 	 	 	 	 	 	1581527427	8.49	15.72
12/02/2020 17:10:28	120220	12022020	171028	92.36	12.418787	-56.919218	92.38	-0.680	0.500	0.990	92.36	-0.80	1.50	 	 	 	 	 	 	 	 	 	 	 	 	 	 	 	 	 	 	1581527428	8.21	15.20
12/02/2020 17:10:29	120220	12022020	171029	92.27	12.418782	-56.919177	92.26	-0.610	-0.160	1.450	92.21	-1.60	1.90	 	 	 	 	 	 	 	 	 	 	 	 	 	 	 	 	 	 	1581527429	8.91	16.50
12/02/2020 17:10:30	120220	12022020	171030	91.92	12.418778	-56.919130	91.89	0.210	-1.400	1.760	91.84	-2.80	2.20	 	 	 	 	 	 	 	 	 	 	 	 	 	 	 	 	 	 	1581527430	10.05	18.61
12/02/2020 17:10:31	120220	12022020	171031	91.59	12.418777	-56.919080	91.61	0.990	-1.890	1.890	91.56	-3.10	2.30	 	 	 	 	 	 	 	 	 	 	 	 	 	 	 	 	 	 	1581527431	10.38	19.22
12/02/2020 17:10:32	120220	12022020	171032	91.59	12.418778	-56.919037	91.68	0.960	-0.950	1.620	91.64	-2.00	2.00	 	 	 	 	 	 	 	 	 	 	 	 	 	 	 	 	 	 	1581527432	9.15	16.95
12/02/2020 17:10:33	120220	12022020	171033	91.89	12.418782	-56.919000	91.98	0.200	0.650	1.170	91.95	-0.50	1.60	 	 	 	 	 	 	 	 	 	 	 	 	 	 	 	 	 	 	1581527433	7.82	14.48
12/02/2020 17:10:34	120220	12022020	171034	92.15	12.418783	-56.918963	92.21	-0.590	1.480	1.050	92.19	0.20	1.50	 	 	 	 	 	 	 	 	 	 	 	 	 	 	 	 	 	 	1581527434	7.73	14.32
12/02/2020 17:10:35	120220	12022020	171035	92.39	12.418783	-56.918922	92.45	-0.870	0.900	1.130	92.43	-0.50	1.60	 	 	 	 	 	 	 	 	 	 	 	 	 	 	 	 	 	 	1581527435	8.88	16.45
12/02/2020 17:10:36	120220	12022020	171036	92.55	12.418782	-56.918875	92.59	-0.620	-0.260	1.260	92.55	-1.70	1.80	 	 	 	 	 	 	 	 	 	 	 	 	 	 	 	 	 	 	1581527436	9.96	18.45
12/02/2020 17:10:37	120220	12022020	171037	92.43	12.418777	-56.918828	92.42	-0.170	-0.970	1.620	92.36	-2.30	2.10	 	 	 	 	 	 	 	 	 	 	 	 	 	 	 	 	 	 	1581527437	9.85	18.24
12/02/2020 17:10:38	120220	12022020	171038	92.04	12.418775	-56.918785	92.01	0.220	-1.060	1.740	91.96	-2.30	2.20	 	 	 	 	 	 	 	 	 	 	 	 	 	 	 	 	 	 	1581527438	9.17	16.98
12/02/2020 17:10:39	120220	12022020	171039	91.68	12.418777	-56.918743	91.69	0.520	-0.940	1.480	91.64	-2.20	1.90	 	 	 	 	 	 	 	 	 	 	 	 	 	 	 	 	 	 	1581527439	8.91	16.50
12/02/2020 17:10:40	120220	12022020	171040	91.62	12.418780	-56.918700	91.69	0.590	-0.670	1.090	91.67	-1.90	1.50	 	 	 	 	 	 	 	 	 	 	 	 	 	 	 	 	 	 	1581527440	9.09	16.83
12/02/2020 17:10:41	120220	12022020	171041	91.97	12.418783	-56.918658	92.08	0.270	-0.100	0.640	92.06	-1.30	1.10	 	 	 	 	 	 	 	 	 	 	 	 	 	 	 	 	 	 	1581527441	8.75	16.21
12/02/2020 17:10:42	120220	12022020	171042	92.41	12.418783	-56.918618	92.49	-0.110	0.180	0.540	92.46	-1.10	1.00	 	 	 	 	 	 	 	 	 	 	 	 	 	 	 	 	 	 	1581527442	8.56	15.85
12/02/2020 17:10:43	120220	12022020	171043	92.39	12.418782	-56.918575	92.35	-0.070	-0.240	1.100	92.32	-1.60	1.60	 	 	 	 	 	 	 	 	 	 	 	 	 	 	 	 	 	 	1581527443	9.32	17.26
12/02/2020 17:10:44	120220	12022020	171044	91.99	12.418778	-56.918528	91.97	0.100	-0.530	1.720	91.92	-1.80	2.20	 	 	 	 	 	 	 	 	 	 	 	 	 	 	 	 	 	 	1581527444	9.87	18.28
12/02/2020 17:10:45	120220	12022020	171045	91.80	12.418777	-56.918485	91.85	-0.090	-0.070	1.790	91.82	-1.20	2.20	 	 	 	 	 	 	 	 	 	 	 	 	 	 	 	 	 	 	1581527445	9.20	17.04
12/02/2020 17:10:46	120220	12022020	171046	92.08	12.418777	-56.918445	92.16	-0.590	0.720	1.500	92.18	-0.50	1.90	 	 	 	 	 	 	 	 	 	 	 	 	 	 	 	 	 	 	1581527446	8.21	15.20
12/02/2020 17:10:47	120220	12022020	171047	92.60	12.418777	-56.918407	92.70	-0.870	0.760	1.150	92.69	-0.60	1.50	 	 	 	 	 	 	 	 	 	 	 	 	 	 	 	 	 	 	1581527447	8.14	15.08
12/02/2020 17:10:48	120220	12022020	171048	93.00	12.418777	-56.918363	93.05	-0.370	-0.450	0.770	93.04	-1.90	1.20	 	 	 	 	 	 	 	 	 	 	 	 	 	 	 	 	 	 	1581527448	9.36	17.33
12/02/2020 17:10:49	120220	12022020	171049	92.99	12.418777	-56.918313	92.98	0.630	-1.830	0.840	92.94	-3.20	1.30	 	 	 	 	 	 	 	 	 	 	 	 	 	 	 	 	 	 	1581527449	10.56	19.56
12/02/2020 17:10:50	120220	12022020	171050	92.60	12.418775	-56.918265	92.53	1.240	-2.000	1.280	92.50	-3.20	1.80	 	 	 	 	 	 	 	 	 	 	 	 	 	 	 	 	 	 	1581527450	10.09	18.69
12/02/2020 17:10:51	120220	12022020	171051	92.17	12.418773	-56.918223	92.13	1.040	-0.870	1.410	92.10	-1.90	1.80	 	 	 	 	 	 	 	 	 	 	 	 	 	 	 	 	 	 	1581527451	8.77	16.24
12/02/2020 17:10:52	120220	12022020	171052	91.93	12.418777	-56.918187	91.95	0.260	0.590	1.140	91.92	-0.50	1.50	 	 	 	 	 	 	 	 	 	 	 	 	 	 	 	 	 	 	1581527452	7.93	14.69
12/02/2020 17:10:53	120220	12022020	171053	91.99	12.418778	-56.918148	92.05	-0.570	1.460	0.780	92.05	0.20	1.20	 	 	 	 	 	 	 	 	 	 	 	 	 	 	 	 	 	 	1581527453	8.07	14.95
12/02/2020 17:10:54	120220	12022020	171054	92.40	12.418780	-56.918107	92.48	-1.070	1.340	0.490	92.48	-0.00	0.90	 	 	 	 	 	 	 	 	 	 	 	 	 	 	 	 	 	 	1581527454	8.66	16.04
12/02/2020 17:10:55	120220	12022020	171055	92.65	12.418777	-56.918062	92.64	-1.030	0.230	0.660	92.63	-1.20	1.20	 	 	 	 	 	 	 	 	 	 	 	 	 	 	 	 	 	 	1581527455	9.45	17.50
12/02/2020 17:10:56	120220	12022020	171056	92.27	12.418772	-56.918013	92.18	-0.390	-1.340	1.200	92.14	-2.80	1.70	 	 	 	 	 	 	 	 	 	 	 	 	 	 	 	 	 	 	1581527456	10.26	19.00
12/02/2020 17:10:57	120220	12022020	171057	91.62	12.418768	-56.917965	91.53	0.480	-2.160	1.570	91.51	-3.40	2.00	 	 	 	 	 	 	 	 	 	 	 	 	 	 	 	 	 	 	1581527457	10.41	19.28
12/02/2020 17:10:58	120220	12022020	171058	91.34	12.418770	-56.917922	91.35	0.870	-1.450	1.510	91.36	-2.50	1.90	 	 	 	 	 	 	 	 	 	 	 	 	 	 	 	 	 	 	1581527458	9.30	17.22
12/02/2020 17:10:59	120220	12022020	171059	91.59	12.418772	-56.917883	91.64	0.530	-0.090	1.120	91.66	-1.20	1.50	 	 	 	 	 	 	 	 	 	 	 	 	 	 	 	 	 	 	1581527459	8.08	14.96
12/02/2020 17:11:00	120220	12022020	171100	91.92	12.418772	-56.917845	91.95	-0.100	0.690	0.970	91.96	-0.50	1.40	 	 	 	 	 	 	 	 	 	 	 	 	 	 	 	 	 	 	1581527460	8.13	15.06
12/02/2020 17:11:01	120220	12022020	171101	91.98	12.418770	-56.917802	91.98	-0.440	0.690	1.290	91.96	-0.60	1.80	 	 	 	 	 	 	 	 	 	 	 	 	 	 	 	 	 	 	1581527461	8.88	16.45
12/02/2020 17:11:02	120220	12022020	171102	91.69	12.418767	-56.917758	91.64	-0.220	0.250	1.550	91.59	-1.10	2.00	1015.60	26.60	26.70	20.30	20.30	910.0	68.0	68.0	393.0	28.8	349.00	16.40	76.00	11.90	66652	10284.0	27.4	27.3	1581527462	9.42	17.45
12/02/2020 17:11:03	120220	12022020	171103	91.12	12.418767	-56.917712	91.07	0.200	-0.240	1.770	91.01	-1.50	2.20	 	 	 	 	 	 	 	 	 	 	 	 	 	 	 	 	 	 	1581527463	9.70	17.96
12/02/2020 17:11:04	120220	12022020	171104	90.73	12.418768	-56.917668	90.75	0.240	-0.450	1.770	90.73	-1.70	2.20	 	 	 	 	 	 	 	 	 	 	 	 	 	 	 	 	 	 	1581527464	9.44	17.48
12/02/2020 17:11:05	120220	12022020	171105	90.97	12.418772	-56.917625	91.08	-0.130	-0.560	1.440	91.08	-1.80	1.90	 	 	 	 	 	 	 	 	 	 	 	 	 	 	 	 	 	 	1581527465	9.10	16.85
12/02/2020 17:11:06	120220	12022020	171106	91.48	12.418772	-56.917582	91.57	-0.370	-0.760	1.400	91.56	-2.00	1.90	 	 	 	 	 	 	 	 	 	 	 	 	 	 	 	 	 	 	1581527466	9.04	16.74
12/02/2020 17:11:07	120220	12022020	171107	91.69	12.418768	-56.917537	91.69	-0.010	-1.150	1.820	91.68	-2.40	2.30	 	 	 	 	 	 	 	 	 	 	 	 	 	 	 	 	 	 	1581527467	9.50	17.59
12/02/2020 17:11:08	120220	12022020	171108	91.53	12.418763	-56.917490	91.49	0.640	-1.190	2.150	91.48	-2.40	2.60	 	 	 	 	 	 	 	 	 	 	 	 	 	 	 	 	 	 	1581527468	9.90	18.33
12/02/2020 17:11:09	120220	12022020	171109	91.32	12.418763	-56.917447	91.31	0.730	-0.250	1.980	91.31	-1.30	2.40	 	 	 	 	 	 	 	 	 	 	 	 	 	 	 	 	 	 	1581527469	9.20	17.04
12/02/2020 17:11:10	120220	12022020	171110	91.37	12.418767	-56.917408	91.38	0.010	1.120	1.430	91.42	0.00	1.80	 	 	 	 	 	 	 	 	 	 	 	 	 	 	 	 	 	 	1581527470	8.09	14.98
12/02/2020 17:11:11	120220	12022020	171111	91.61	12.418772	-56.917372	91.61	-0.860	1.570	0.820	91.66	0.20	1.20	 	 	 	 	 	 	 	 	 	 	 	 	 	 	 	 	 	 	1581527471	7.99	14.80
12/02/2020 17:11:12	120220	12022020	171112	91.80	12.418775	-56.917328	91.75	-1.020	0.550	0.450	91.81	-0.90	0.90	 	 	 	 	 	 	 	 	 	 	 	 	 	 	 	 	 	 	1581527472	9.17	16.98
12/02/2020 17:11:13	120220	12022020	171113	91.93	12.418775	-56.917280	91.89	-0.360	-1.020	0.360	91.96	-2.40	0.80	 	 	 	 	 	 	 	 	 	 	 	 	 	 	 	 	 	 	1581527473	10.33	19.13
12/02/2020 17:11:14	120220	12022020	171114	92.07	12.418775	-56.917230	92.01	0.540	-2.010	0.400	92.07	-3.30	0.90	 	 	 	 	 	 	 	 	 	 	 	 	 	 	 	 	 	 	1581527474	10.38	19.22
12/02/2020 17:11:15	120220	12022020	171115	91.93	12.418773	-56.917185	91.86	1.030	-1.920	0.660	91.89	-3.10	1.10	 	 	 	 	 	 	 	 	 	 	 	 	 	 	 	 	 	 	1581527475	9.71	17.98
12/02/2020 17:11:16	120220	12022020	171116	91.75	12.418773	-56.917143	91.72	0.730	-0.670	0.890	91.74	-1.70	1.40	 	 	 	 	 	 	 	 	 	 	 	 	 	 	 	 	 	 	1581527476	8.76	16.22
12/02/2020 17:11:17	120220	12022020	171117	91.73	12.418773	-56.917107	91.72	-0.150	1.010	1.080	91.73	-0.10	1.50	 	 	 	 	 	 	 	 	 	 	 	 	 	 	 	 	 	 	1581527477	7.70	14.26
12/02/2020 17:11:18	120220	12022020	171118	91.76	12.418773	-56.917070	91.76	-0.910	1.830	1.120	91.77	0.50	1.60	 	 	 	 	 	 	 	 	 	 	 	 	 	 	 	 	 	 	1581527478	7.63	14.13
12/02/2020 17:11:19	120220	12022020	171119	91.73	12.418773	-56.917028	91.67	-0.910	0.900	0.940	91.70	-0.60	1.40	 	 	 	 	 	 	 	 	 	 	 	 	 	 	 	 	 	 	1581527479	8.94	16.56
12/02/2020 17:11:20	120220	12022020	171120	91.48	12.418775	-56.916978	91.43	-0.170	-1.070	0.900	91.42	-2.60	1.40	 	 	 	 	 	 	 	 	 	 	 	 	 	 	 	 	 	 	1581527480	10.60	19.63
12/02/2020 17:11:21	120220	12022020	171121	91.31	12.418775	-56.916925	91.35	0.640	-2.490	0.970	91.32	-3.80	1.40	 	 	 	 	 	 	 	 	 	 	 	 	 	 	 	 	 	 	1581527481	11.12	20.59
12/02/2020 17:11:22	120220	12022020	171122	91.48	12.418775	-56.916878	91.58	0.840	-2.030	1.170	91.53	-3.10	1.70	 	 	 	 	 	 	 	 	 	 	 	 	 	 	 	 	 	 	1581527482	9.96	18.45
12/02/2020 17:11:23	120220	12022020	171123	91.73	12.418772	-56.916840	91.80	0.250	-0.000	1.550	91.75	-1.00	2.00	 	 	 	 	 	 	 	 	 	 	 	 	 	 	 	 	 	 	1581527483	7.91	14.65
12/02/2020 17:11:24	120220	12022020	171124	91.77	12.418770	-56.916808	91.80	-0.610	1.830	1.690	91.76	0.70	2.10	 	 	 	 	 	 	 	 	 	 	 	 	 	 	 	 	 	 	1581527484	6.94	12.85
12/02/2020 17:11:25	120220	12022020	171125	91.64	12.418770	-56.916772	91.64	-1.050	1.980	1.610	91.60	0.60	2.00	 	 	 	 	 	 	 	 	 	 	 	 	 	 	 	 	 	 	1581527485	7.81	14.46
12/02/2020 17:11:26	120220	12022020	171126	91.38	12.418770	-56.916725	91.35	-0.610	0.260	1.480	91.34	-1.30	1.90	 	 	 	 	 	 	 	 	 	 	 	 	 	 	 	 	 	 	1581527486	9.74	18.04
12/02/2020 17:11:27	120220	12022020	171127	91.22	12.418772	-56.916673	91.24	0.330	-1.730	1.100	91.23	-3.20	1.50	 	 	 	 	 	 	 	 	 	 	 	 	 	 	 	 	 	 	1581527487	11.08	20.52
12/02/2020 17:11:28	120220	12022020	171128	91.42	12.418777	-56.916623	91.48	1.020	-2.340	0.660	91.48	-3.50	1.10	 	 	 	 	 	 	 	 	 	 	 	 	 	 	 	 	 	 	1581527488	10.55	19.54
12/02/2020 17:11:29	120220	12022020	171129	91.68	12.418780	-56.916582	91.72	0.980	-1.260	0.770	91.71	-2.30	1.30	 	 	 	 	 	 	 	 	 	 	 	 	 	 	 	 	 	 	1581527489	8.82	16.33
12/02/2020 17:11:30	120220	12022020	171130	91.70	12.418780	-56.916545	91.69	0.300	0.260	1.080	91.67	-0.90	1.60	 	 	 	 	 	 	 	 	 	 	 	 	 	 	 	 	 	 	1581527490	7.62	14.11
12/02/2020 17:11:31	120220	12022020	171131	91.53	12.418778	-56.916507	91.52	-0.360	0.810	1.340	91.48	-0.50	1.80	 	 	 	 	 	 	 	 	 	 	 	 	 	 	 	 	 	 	1581527491	8.04	14.89
12/02/2020 17:11:32	120220	12022020	171132	91.32	12.418777	-56.916463	91.33	-0.500	0.320	1.600	91.30	-1.00	2.10	 	 	 	 	 	 	 	 	 	 	 	 	 	 	 	 	 	 	1581527492	9.39	17.39
12/02/2020 17:11:33	120220	12022020	171133	91.40	12.418777	-56.916417	91.47	-0.360	0.020	1.420	91.45	-1.20	1.80	 	 	 	 	 	 	 	 	 	 	 	 	 	 	 	 	 	 	1581527493	9.81	18.17
12/02/2020 17:11:34	120220	12022020	171134	91.67	12.418778	-56.916375	91.72	-0.370	0.230	1.060	91.71	-1.00	1.50	 	 	 	 	 	 	 	 	 	 	 	 	 	 	 	 	 	 	1581527494	8.94	16.56
12/02/2020 17:11:35	120220	12022020	171135	91.75	12.418778	-56.916333	91.73	-0.390	0.150	0.970	91.73	-1.20	1.40	 	 	 	 	 	 	 	 	 	 	 	 	 	 	 	 	 	 	1581527495	8.55	15.83
12/02/2020 17:11:36	120220	12022020	171136	91.60	12.418778	-56.916290	91.61	-0.040	-0.660	1.090	91.58	-2.10	1.50	 	 	 	 	 	 	 	 	 	 	 	 	 	 	 	 	 	 	1581527496	9.25	17.13
12/02/2020 17:11:37	120220	12022020	171137	91.53	12.418780	-56.916242	91.54	0.640	-1.680	1.090	91.53	-3.00	1.50	 	 	 	 	 	 	 	 	 	 	 	 	 	 	 	 	 	 	1581527497	10.10	18.71
12/02/2020 17:11:38	120220	12022020	171138	91.49	12.418782	-56.916195	91.50	1.080	-1.940	0.940	91.47	-3.10	1.40	 	 	 	 	 	 	 	 	 	 	 	 	 	 	 	 	 	 	1581527498	10.13	18.76
12/02/2020 17:11:39	120220	12022020	171139	91.37	12.418783	-56.916152	91.38	0.860	-0.880	0.710	91.34	-1.90	1.20	 	 	 	 	 	 	 	 	 	 	 	 	 	 	 	 	 	 	1581527499	9.19	17.02
12/02/2020 17:11:40	120220	12022020	171140	91.25	12.418787	-56.916113	91.26	0.000	0.830	0.730	91.23	-0.20	1.20	 	 	 	 	 	 	 	 	 	 	 	 	 	 	 	 	 	 	1581527500	7.93	14.69
12/02/2020 17:11:41	120220	12022020	171141	91.29	12.418787	-56.916077	91.36	-0.950	1.850	0.990	91.32	0.60	1.50	 	 	 	 	 	 	 	 	 	 	 	 	 	 	 	 	 	 	1581527501	7.70	14.26
12/02/2020 17:11:42	120220	12022020	171142	91.53	12.418787	-56.916037	91.59	-1.380	1.500	1.070	91.58	0.10	1.50	 	 	 	 	 	 	 	 	 	 	 	 	 	 	 	 	 	 	1581527502	8.62	15.96
12/02/2020 17:11:43	120220	12022020	171143	91.78	12.418785	-56.915990	91.82	-1.030	0.130	0.930	91.82	-1.30	1.40	 	 	 	 	 	 	 	 	 	 	 	 	 	 	 	 	 	 	1581527503	9.72	18.00
12/02/2020 17:11:44	120220	12022020	171144	91.89	12.418785	-56.915942	91.88	-0.020	-1.630	0.970	91.87	-3.10	1.40	 	 	 	 	 	 	 	 	 	 	 	 	 	 	 	 	 	 	1581527504	10.44	19.33
12/02/2020 17:11:45	120220	12022020	171145	91.68	12.418783	-56.915890	91.62	1.100	-2.660	1.180	91.59	-3.90	1.60	 	 	 	 	 	 	 	 	 	 	 	 	 	 	 	 	 	 	1581527505	10.64	19.71
12/02/2020 17:11:46	120220	12022020	171146	91.24	12.418785	-56.915845	91.20	1.520	-2.050	1.130	91.15	-3.10	1.60	 	 	 	 	 	 	 	 	 	 	 	 	 	 	 	 	 	 	1581527506	9.70	17.96
12/02/2020 17:11:47	120220	12022020	171147	90.95	12.418790	-56.915807	90.99	0.920	-0.090	0.850	90.96	-1.10	1.30	 	 	 	 	 	 	 	 	 	 	 	 	 	 	 	 	 	 	1581527507	8.17	15.13
12/02/2020 17:11:48	120220	12022020	171148	91.32	12.418795	-56.915772	91.48	-0.280	1.810	0.480	91.48	0.70	0.90	 	 	 	 	 	 	 	 	 	 	 	 	 	 	 	 	 	 	1581527508	7.30	13.52
12/02/2020 17:11:49	120220	12022020	171149	92.16	12.418797	-56.915735	92.26	-1.220	2.190	0.230	92.29	0.80	0.70	 	 	 	 	 	 	 	 	 	 	 	 	 	 	 	 	 	 	1581527509	7.74	14.33
12/02/2020 17:11:50	120220	12022020	171150	92.54	12.418795	-56.915690	92.53	-1.140	0.510	0.400	92.53	-1.10	0.90	 	 	 	 	 	 	 	 	 	 	 	 	 	 	 	 	 	 	1581527510	9.57	17.72
12/02/2020 17:11:51	120220	12022020	171151	92.23	12.418792	-56.915637	92.17	-0.230	-1.680	1.060	92.12	-3.10	1.60	 	 	 	 	 	 	 	 	 	 	 	 	 	 	 	 	 	 	1581527511	11.28	20.89
12/02/2020 17:11:52	120220	12022020	171152	91.76	12.418787	-56.915588	91.76	0.460	-1.990	1.550	91.71	-3.10	2.00	 	 	 	 	 	 	 	 	 	 	 	 	 	 	 	 	 	 	1581527512	10.54	19.52
12/02/2020 17:11:53	120220	12022020	171153	91.72	12.418788	-56.915548	91.79	0.410	-0.620	1.120	91.76	-1.70	1.50	 	 	 	 	 	 	 	 	 	 	 	 	 	 	 	 	 	 	1581527513	8.15	15.09
12/02/2020 17:11:54	120220	12022020	171154	91.94	12.418793	-56.915513	91.99	0.080	0.300	0.450	91.98	-1.00	0.90	 	 	 	 	 	 	 	 	 	 	 	 	 	 	 	 	 	 	1581527514	7.55	13.98
12/02/2020 17:11:55	120220	12022020	171155	92.12	12.418798	-56.915472	92.16	0.170	-0.320	0.350	92.14	-1.70	0.80	 	 	 	 	 	 	 	 	 	 	 	 	 	 	 	 	 	 	1581527515	9.11	16.87
12/02/2020 17:11:56	120220	12022020	171156	92.26	12.418797	-56.915422	92.32	0.490	-1.230	0.560	92.29	-2.50	1.00	 	 	 	 	 	 	 	 	 	 	 	 	 	 	 	 	 	 	1581527516	10.51	19.46
12/02/2020 17:11:57	120220	12022020	171157	92.37	12.418797	-56.915375	92.42	0.430	-0.720	0.670	92.38	-1.80	1.10	 	 	 	 	 	 	 	 	 	 	 	 	 	 	 	 	 	 	1581527517	9.85	18.24
12/02/2020 17:11:58	120220	12022020	171158	92.42	12.418795	-56.915337	92.47	-0.190	0.980	0.820	92.43	-0.10	1.30	 	 	 	 	 	 	 	 	 	 	 	 	 	 	 	 	 	 	1581527518	7.86	14.56
12/02/2020 17:11:59	120220	12022020	171159	92.52	12.418795	-56.915303	92.56	-0.870	1.930	0.840	92.54	0.60	1.30	 	 	 	 	 	 	 	 	 	 	 	 	 	 	 	 	 	 	1581527519	7.19	13.32
12/02/2020 17:12:00	120220	12022020	171200	92.60	12.418797	-56.915262	92.60	-0.820	0.760	0.640	92.59	-0.80	1.10	 	 	 	 	 	 	 	 	 	 	 	 	 	 	 	 	 	 	1581527520	8.73	16.17
12/02/2020 17:12:01	120220	12022020	171201	92.44	12.418797	-56.915212	92.38	-0.000	-1.430	0.670	92.38	-2.90	1.10	 	 	 	 	 	 	 	 	 	 	 	 	 	 	 	 	 	 	1581527521	10.79	19.98
12/02/2020 17:12:02	120220	12022020	171202	92.24	12.418798	-56.915160	92.23	0.790	-2.560	0.810	92.24	-3.80	1.30	1015.60	26.70	26.70	20.50	20.50	910.0	68.0	68.0	394.0	28.8	351.00	15.10	78.00	10.50	66480	10280.0	27.4	27.4	1581527522	10.96	20.30
12/02/2020 17:12:03	120220	12022020	171203	92.38	12.418797	-56.915115	92.41	0.750	-1.620	1.230	92.43	-2.70	1.70	 	 	 	 	 	 	 	 	 	 	 	 	 	 	 	 	 	 	1581527523	9.21	17.06
12/02/2020 17:12:04	120220	12022020	171204	92.73	12.418792	-56.915082	92.77	-0.020	0.390	1.580	92.80	-0.70	2.00	 	 	 	 	 	 	 	 	 	 	 	 	 	 	 	 	 	 	1581527524	7.31	13.54
12/02/2020 17:12:05	120220	12022020	171205	92.99	12.418790	-56.915048	92.97	-0.740	1.650	1.490	92.99	0.40	1.90	 	 	 	 	 	 	 	 	 	 	 	 	 	 	 	 	 	 	1581527525	6.95	12.87
12/02/2020 17:12:06	120220	12022020	171206	92.85	12.418790	-56.915008	92.77	-0.610	1.030	1.360	92.79	-0.40	1.80	 	 	 	 	 	 	 	 	 	 	 	 	 	 	 	 	 	 	1581527526	8.47	15.69
12/02/2020 17:12:07	120220	12022020	171207	92.62	12.418792	-56.914960	92.61	0.180	-0.570	1.070	92.61	-2.00	1.50	 	 	 	 	 	 	 	 	 	 	 	 	 	 	 	 	 	 	1581527527	10.32	19.11
12/02/2020 17:12:08	120220	12022020	171208	92.72	12.418795	-56.914910	92.76	0.810	-1.560	0.730	92.78	-2.90	1.20	 	 	 	 	 	 	 	 	 	 	 	 	 	 	 	 	 	 	1581527528	10.48	19.41
12/02/2020 17:12:09	120220	12022020	171209	93.07	12.418798	-56.914867	93.13	0.780	-1.370	0.470	93.15	-2.50	0.90	 	 	 	 	 	 	 	 	 	 	 	 	 	 	 	 	 	 	1581527529	9.41	17.43
12/02/2020 17:12:10	120220	12022020	171210	93.37	12.418798	-56.914827	93.40	0.150	-0.320	0.500	93.41	-1.50	1.00	 	 	 	 	 	 	 	 	 	 	 	 	 	 	 	 	 	 	1581527530	8.29	15.35
12/02/2020 17:12:11	120220	12022020	171211	93.46	12.418795	-56.914790	93.48	-0.570	0.690	0.980	93.46	-0.50	1.50	 	 	 	 	 	 	 	 	 	 	 	 	 	 	 	 	 	 	1581527531	7.72	14.30
12/02/2020 17:12:12	120220	12022020	171212	93.40	12.418790	-56.914752	93.39	-0.790	0.840	1.320	93.38	-0.50	1.80	 	 	 	 	 	 	 	 	 	 	 	 	 	 	 	 	 	 	1581527532	8.20	15.19
12/02/2020 17:12:13	120220	12022020	171213	93.32	12.418787	-56.914708	93.29	-0.390	0.140	1.120	93.32	-1.30	1.50	 	 	 	 	 	 	 	 	 	 	 	 	 	 	 	 	 	 	1581527533	9.20	17.04
12/02/2020 17:12:14	120220	12022020	171214	93.38	12.418788	-56.914662	93.38	0.180	-0.760	0.700	93.38	-2.10	1.10	 	 	 	 	 	 	 	 	 	 	 	 	 	 	 	 	 	 	1581527534	9.77	18.09
12/02/2020 17:12:15	120220	12022020	171215	93.31	12.418790	-56.914617	93.24	0.580	-1.430	0.510	93.26	-2.80	1.00	 	 	 	 	 	 	 	 	 	 	 	 	 	 	 	 	 	 	1581527535	9.81	18.17
12/02/2020 17:12:16	120220	12022020	171216	93.02	12.418790	-56.914570	92.94	0.640	-1.390	0.650	92.98	-2.60	1.10	 	 	 	 	 	 	 	 	 	 	 	 	 	 	 	 	 	 	1581527536	9.59	17.76
12/02/2020 17:12:17	120220	12022020	171217	92.93	12.418790	-56.914530	92.92	0.310	-0.290	0.880	92.96	-1.40	1.30	 	 	 	 	 	 	 	 	 	 	 	 	 	 	 	 	 	 	1581527537	8.64	16.00
12/02/2020 17:12:18	120220	12022020	171218	93.16	12.418790	-56.914493	93.21	-0.260	1.120	0.950	93.21	-0.00	1.40	 	 	 	 	 	 	 	 	 	 	 	 	 	 	 	 	 	 	1581527538	7.60	14.08
12/02/2020 17:12:19	120220	12022020	171219	93.36	12.418788	-56.914457	93.38	-0.720	1.500	1.020	93.38	0.20	1.50	 	 	 	 	 	 	 	 	 	 	 	 	 	 	 	 	 	 	1581527539	7.74	14.33
12/02/2020 17:12:20	120220	12022020	171220	93.31	12.418783	-56.914415	93.30	-0.670	0.270	1.170	93.26	-1.30	1.60	 	 	 	 	 	 	 	 	 	 	 	 	 	 	 	 	 	 	1581527540	9.08	16.82
12/02/2020 17:12:21	120220	12022020	171221	92.96	12.418780	-56.914363	92.91	-0.010	-1.700	1.380	92.86	-3.20	1.90	 	 	 	 	 	 	 	 	 	 	 	 	 	 	 	 	 	 	1581527541	10.70	19.82
12/02/2020 17:12:22	120220	12022020	171222	92.52	12.418777	-56.914313	92.49	0.690	-2.340	1.420	92.45	-3.50	1.80	 	 	 	 	 	 	 	 	 	 	 	 	 	 	 	 	 	 	1581527542	10.59	19.61
12/02/2020 17:12:23	120220	12022020	171223	92.27	12.418777	-56.914272	92.28	0.910	-1.170	1.100	92.25	-2.30	1.50	 	 	 	 	 	 	 	 	 	 	 	 	 	 	 	 	 	 	1581527543	8.75	16.21
12/02/2020 17:12:24	120220	12022020	171224	92.21	12.418782	-56.914237	92.22	0.570	0.430	0.690	92.21	-0.70	1.10	 	 	 	 	 	 	 	 	 	 	 	 	 	 	 	 	 	 	1581527544	7.58	14.04
12/02/2020 17:12:25	120220	12022020	171225	92.27	12.418785	-56.914200	92.32	-0.060	1.290	0.460	92.31	0.00	0.90	 	 	 	 	 	 	 	 	 	 	 	 	 	 	 	 	 	 	1581527545	7.81	14.46
12/02/2020 17:12:26	120220	12022020	171226	92.49	12.418785	-56.914160	92.54	-0.610	1.040	0.610	92.54	-0.40	1.10	 	 	 	 	 	 	 	 	 	 	 	 	 	 	 	 	 	 	1581527546	8.63	15.98
12/02/2020 17:12:27	120220	12022020	171227	92.66	12.418782	-56.914115	92.70	-0.760	0.040	1.020	92.65	-1.40	1.50	 	 	 	 	 	 	 	 	 	 	 	 	 	 	 	 	 	 	1581527547	9.48	17.56
12/02/2020 17:12:28	120220	12022020	171228	92.48	12.418777	-56.914068	92.44	-0.460	-1.010	1.590	92.41	-2.40	2.10	 	 	 	 	 	 	 	 	 	 	 	 	 	 	 	 	 	 	1581527548	9.90	18.33
12/02/2020 17:12:29	120220	12022020	171229	92.14	12.418772	-56.914022	92.14	-0.000	-1.430	2.040	92.10	-2.70	2.50	 	 	 	 	 	 	 	 	 	 	 	 	 	 	 	 	 	 	1581527549	9.69	17.95
12/02/2020 17:12:30	120220	12022020	171230	92.07	12.418768	-56.913980	92.09	0.300	-1.030	2.020	92.08	-2.20	2.40	 	 	 	 	 	 	 	 	 	 	 	 	 	 	 	 	 	 	1581527550	8.89	16.46
12/02/2020 17:12:31	120220	12022020	171231	92.08	12.418770	-56.913942	92.04	0.420	-0.360	1.530	92.05	-1.60	1.90	 	 	 	 	 	 	 	 	 	 	 	 	 	 	 	 	 	 	1581527551	8.34	15.45
12/02/2020 17:12:32	120220	12022020	171232	91.79	12.418773	-56.913900	91.72	0.520	-0.060	1.100	91.70	-1.30	1.50	 	 	 	 	 	 	 	 	 	 	 	 	 	 	 	 	 	 	1581527552	8.66	16.04
12/02/2020 17:12:33	120220	12022020	171233	91.48	12.418777	-56.913857	91.46	0.560	-0.120	0.900	91.47	-1.40	1.30	 	 	 	 	 	 	 	 	 	 	 	 	 	 	 	 	 	 	1581527553	9.29	17.21
12/02/2020 17:12:34	120220	12022020	171234	91.65	12.418780	-56.913812	91.72	0.300	0.070	0.700	91.74	-1.20	1.10	 	 	 	 	 	 	 	 	 	 	 	 	 	 	 	 	 	 	1581527554	9.35	17.32
12/02/2020 17:12:35	120220	12022020	171235	92.13	12.418782	-56.913772	92.22	-0.360	0.450	0.600	92.23	-0.80	1.10	 	 	 	 	 	 	 	 	 	 	 	 	 	 	 	 	 	 	1581527555	8.66	16.04
12/02/2020 17:12:36	120220	12022020	171236	92.48	12.418780	-56.913732	92.51	-0.990	0.340	0.870	92.51	-1.00	1.40	 	 	 	 	 	 	 	 	 	 	 	 	 	 	 	 	 	 	1581527556	8.53	15.80
12/02/2020 17:12:37	120220	12022020	171237	92.49	12.418775	-56.913688	92.48	-0.990	-0.340	1.560	92.45	-1.70	2.10	 	 	 	 	 	 	 	 	 	 	 	 	 	 	 	 	 	 	1581527557	9.22	17.08
12/02/2020 17:12:38	120220	12022020	171238	92.27	12.418768	-56.913643	92.28	-0.330	-0.990	1.990	92.23	-2.30	2.40	 	 	 	 	 	 	 	 	 	 	 	 	 	 	 	 	 	 	1581527558	9.62	17.82
12/02/2020 17:12:39	120220	12022020	171239	92.18	12.418767	-56.913598	92.21	0.480	-1.210	1.780	92.18	-2.50	2.20	 	 	 	 	 	 	 	 	 	 	 	 	 	 	 	 	 	 	1581527559	9.47	17.54
12/02/2020 17:12:40	120220	12022020	171240	92.15	12.418770	-56.913555	92.16	0.920	-1.020	1.470	92.13	-2.30	1.90	 	 	 	 	 	 	 	 	 	 	 	 	 	 	 	 	 	 	1581527560	9.22	17.08
12/02/2020 17:12:41	120220	12022020	171241	91.94	12.418772	-56.913512	91.94	0.860	-0.660	1.180	91.91	-1.90	1.60	 	 	 	 	 	 	 	 	 	 	 	 	 	 	 	 	 	 	1581527561	9.15	16.95
12/02/2020 17:12:42	120220	12022020	171242	91.93	12.418775	-56.913468	91.99	0.390	-0.100	0.660	91.98	-1.30	1.10	 	 	 	 	 	 	 	 	 	 	 	 	 	 	 	 	 	 	1581527562	9.19	17.02
12/02/2020 17:12:43	120220	12022020	171243	92.31	12.418778	-56.913427	92.40	-0.330	1.000	0.440	92.41	-0.10	0.90	 	 	 	 	 	 	 	 	 	 	 	 	 	 	 	 	 	 	1581527563	8.52	15.78
12/02/2020 17:12:44	120220	12022020	171244	92.72	12.418778	-56.913392	92.75	-1.040	1.860	0.550	92.76	0.60	1.00	 	 	 	 	 	 	 	 	 	 	 	 	 	 	 	 	 	 	1581527564	7.64	14.15
12/02/2020 17:12:45	120220	12022020	171245	92.68	12.418777	-56.913352	92.61	-1.100	0.860	0.670	92.60	-0.70	1.20	 	 	 	 	 	 	 	 	 	 	 	 	 	 	 	 	 	 	1581527565	8.42	15.59
12/02/2020 17:12:46	120220	12022020	171246	92.12	12.418775	-56.913300	92.02	-0.210	-1.780	1.160	91.99	-3.40	1.70	 	 	 	 	 	 	 	 	 	 	 	 	 	 	 	 	 	 	1581527566	10.81	20.02
12/02/2020 17:12:47	120220	12022020	171247	91.68	12.418772	-56.913247	91.70	0.800	-3.130	1.450	91.67	-4.40	1.90	 	 	 	 	 	 	 	 	 	 	 	 	 	 	 	 	 	 	1581527567	11.54	21.37
12/02/2020 17:12:48	120220	12022020	171248	91.78	12.418770	-56.913203	91.85	0.950	-1.680	1.220	91.84	-2.70	1.60	 	 	 	 	 	 	 	 	 	 	 	 	 	 	 	 	 	 	1581527568	9.01	16.69
12/02/2020 17:12:49	120220	12022020	171249	92.09	12.418772	-56.913172	92.12	0.210	0.700	1.080	92.13	-0.40	1.50	 	 	 	 	 	 	 	 	 	 	 	 	 	 	 	 	 	 	1581527569	6.72	12.45
12/02/2020 17:12:50	120220	12022020	171250	92.17	12.418768	-56.913138	92.14	-0.470	1.590	1.130	92.14	0.30	1.60	 	 	 	 	 	 	 	 	 	 	 	 	 	 	 	 	 	 	1581527570	7.14	13.22
12/02/2020 17:12:51	120220	12022020	171251	91.88	12.418767	-56.913093	91.81	-0.350	0.580	1.190	91.79	-0.90	1.70	 	 	 	 	 	 	 	 	 	 	 	 	 	 	 	 	 	 	1581527571	9.33	17.28
12/02/2020 17:12:52	120220	12022020	171252	91.48	12.418768	-56.913043	91.48	0.070	-0.530	1.230	91.46	-1.80	1.70	 	 	 	 	 	 	 	 	 	 	 	 	 	 	 	 	 	 	1581527572	10.59	19.61
12/02/2020 17:12:53	120220	12022020	171253	91.58	12.418770	-56.912998	91.66	-0.020	-0.480	1.020	91.64	-1.70	1.40	 	 	 	 	 	 	 	 	 	 	 	 	 	 	 	 	 	 	1581527573	9.50	17.59
12/02/2020 17:12:54	120220	12022020	171254	92.01	12.418772	-56.912960	92.11	-0.560	0.080	0.960	92.09	-1.10	1.40	 	 	 	 	 	 	 	 	 	 	 	 	 	 	 	 	 	 	1581527574	8.13	15.06
12/02/2020 17:12:55	120220	12022020	171255	92.28	12.418767	-56.912922	92.32	-0.740	-0.060	1.300	92.28	-1.40	1.80	 	 	 	 	 	 	 	 	 	 	 	 	 	 	 	 	 	 	1581527575	8.22	15.22
12/02/2020 17:12:56	120220	12022020	171256	92.13	12.418760	-56.912877	92.10	0.040	-1.120	1.670	92.05	-2.50	2.10	 	 	 	 	 	 	 	 	 	 	 	 	 	 	 	 	 	 	1581527576	9.55	17.69
12/02/2020 17:12:57	120220	12022020	171257	91.62	12.418758	-56.912828	91.55	1.180	-1.830	1.810	91.49	-3.10	2.20	 	 	 	 	 	 	 	 	 	 	 	 	 	 	 	 	 	 	1581527577	10.34	19.15
12/02/2020 17:12:58	120220	12022020	171258	91.14	12.418762	-56.912783	91.14	1.470	-0.960	1.590	91.09	-2.00	2.00	 	 	 	 	 	 	 	 	 	 	 	 	 	 	 	 	 	 	1581527578	9.45	17.50
12/02/2020 17:12:59	120220	12022020	171259	91.10	12.418767	-56.912747	91.15	0.470	0.860	1.300	91.15	-0.20	1.70	 	 	 	 	 	 	 	 	 	 	 	 	 	 	 	 	 	 	1581527579	7.73	14.32
12/02/2020 17:13:00	120220	12022020	171300	91.51	12.418768	-56.912713	91.61	-1.000	1.910	1.150	91.63	0.70	1.60	 	 	 	 	 	 	 	 	 	 	 	 	 	 	 	 	 	 	1581527580	7.14	13.22
12/02/2020 17:13:01	120220	12022020	171301	92.19	12.418765	-56.912673	92.28	-1.690	1.150	1.050	92.31	-0.30	1.50	 	 	 	 	 	 	 	 	 	 	 	 	 	 	 	 	 	 	1581527581	8.39	15.54
12/02/2020 17:13:02	120220	12022020	171302	92.57	12.418760	-56.912625	92.55	-1.040	-0.950	1.340	92.56	-2.50	1.90	1015.60	26.60	26.60	20.70	20.70	909.0	70.0	69.0	394.0	28.8	352.00	15.60	81.00	11.10	66261	10195.0	27.4	27.4	1581527582	10.27	19.02
12/02/2020 17:13:03	120220	12022020	171303	92.25	12.418752	-56.912573	92.13	0.270	-2.440	1.910	92.11	-3.70	2.40	 	 	 	 	 	 	 	 	 	 	 	 	 	 	 	 	 	 	1581527583	11.05	20.46
12/02/2020 17:13:04	120220	12022020	171304	91.54	12.418748	-56.912528	91.43	1.000	-1.920	2.110	91.42	-3.00	2.50	 	 	 	 	 	 	 	 	 	 	 	 	 	 	 	 	 	 	1581527584	9.64	17.85
12/02/2020 17:13:05	120220	12022020	171305	91.07	12.418750	-56.912492	91.00	0.680	-0.030	1.680	91.02	-1.00	2.00	 	 	 	 	 	 	 	 	 	 	 	 	 	 	 	 	 	 	1581527585	7.69	14.24
12/02/2020 17:13:06	120220	12022020	171306	90.98	12.418757	-56.912458	90.96	-0.140	1.470	0.920	91.00	0.30	1.30	 	 	 	 	 	 	 	 	 	 	 	 	 	 	 	 	 	 	1581527586	7.16	13.26
12/02/2020 17:13:07	120220	12022020	171307	91.14	12.418763	-56.912420	91.12	-0.540	1.220	0.380	91.17	-0.20	0.80	 	 	 	 	 	 	 	 	 	 	 	 	 	 	 	 	 	 	1581527587	8.21	15.20
12/02/2020 17:13:08	120220	12022020	171308	91.31	12.418765	-56.912372	91.30	-0.140	-0.480	0.210	91.36	-1.90	0.70	 	 	 	 	 	 	 	 	 	 	 	 	 	 	 	 	 	 	1581527588	10.16	18.82
12/02/2020 17:13:09	120220	12022020	171309	91.53	12.418765	-56.912322	91.52	0.360	-1.440	0.450	91.56	-2.70	1.00	 	 	 	 	 	 	 	 	 	 	 	 	 	 	 	 	 	 	1581527589	10.63	19.69
12/02/2020 17:13:10	120220	12022020	171310	91.63	12.418762	-56.912280	91.63	0.300	-0.800	1.130	91.63	-1.90	1.70	 	 	 	 	 	 	 	 	 	 	 	 	 	 	 	 	 	 	1581527590	8.87	16.43
12/02/2020 17:13:11	120220	12022020	171311	91.57	12.418757	-56.912245	91.57	-0.110	0.090	1.660	91.54	-1.10	2.10	 	 	 	 	 	 	 	 	 	 	 	 	 	 	 	 	 	 	1581527591	7.63	14.13
12/02/2020 17:13:12	120220	12022020	171312	91.34	12.418753	-56.912205	91.28	-0.180	-0.070	1.920	91.24	-1.40	2.40	 	 	 	 	 	 	 	 	 	 	 	 	 	 	 	 	 	 	1581527592	8.38	15.52
12/02/2020 17:13:13	120220	12022020	171313	90.76	12.418753	-56.912160	90.69	0.050	-0.570	2.060	90.65	-1.90	2.50	 	 	 	 	 	 	 	 	 	 	 	 	 	 	 	 	 	 	1581527593	9.61	17.80
12/02/2020 17:13:14	120220	12022020	171314	90.32	12.418755	-56.912115	90.28	0.060	-0.370	1.740	90.28	-1.60	2.10	 	 	 	 	 	 	 	 	 	 	 	 	 	 	 	 	 	 	1581527594	9.32	17.26
12/02/2020 17:13:15	120220	12022020	171315	90.33	12.418760	-56.912077	90.38	-0.240	0.340	1.250	90.39	-0.80	1.60	 	 	 	 	 	 	 	 	 	 	 	 	 	 	 	 	 	 	1581527595	8.37	15.50
12/02/2020 17:13:16	120220	12022020	171316	90.71	12.418763	-56.912038	90.76	-0.550	0.640	0.900	90.79	-0.70	1.30	 	 	 	 	 	 	 	 	 	 	 	 	 	 	 	 	 	 	1581527596	8.00	14.82
12/02/2020 17:13:17	120220	12022020	171317	90.99	12.418763	-56.911997	90.98	-0.400	-0.130	0.750	91.01	-1.60	1.20	 	 	 	 	 	 	 	 	 	 	 	 	 	 	 	 	 	 	1581527597	8.82	16.33
12/02/2020 17:13:18	120220	12022020	171318	90.92	12.418762	-56.911950	90.87	0.280	-1.340	1.060	90.87	-2.70	1.60	 	 	 	 	 	 	 	 	 	 	 	 	 	 	 	 	 	 	1581527598	9.93	18.39
12/02/2020 17:13:19	120220	12022020	171319	90.69	12.418758	-56.911903	90.67	0.950	-1.700	1.450	90.67	-2.90	1.90	 	 	 	 	 	 	 	 	 	 	 	 	 	 	 	 	 	 	1581527599	9.98	18.48
12/02/2020 17:13:20	120220	12022020	171320	90.64	12.418758	-56.911860	90.65	0.950	-0.810	1.520	90.65	-1.90	1.90	 	 	 	 	 	 	 	 	 	 	 	 	 	 	 	 	 	 	1581527600	8.86	16.41
12/02/2020 17:13:21	120220	12022020	171321	90.63	12.418762	-56.911823	90.61	0.210	0.620	1.280	90.62	-0.50	1.70	 	 	 	 	 	 	 	 	 	 	 	 	 	 	 	 	 	 	1581527601	7.76	14.37
12/02/2020 17:13:22	120220	12022020	171322	90.50	12.418765	-56.911788	90.45	-0.640	1.490	0.990	90.46	0.20	1.40	 	 	 	 	 	 	 	 	 	 	 	 	 	 	 	 	 	 	1581527602	7.59	14.06
12/02/2020 17:13:23	120220	12022020	171323	90.30	12.418770	-56.911748	90.25	-0.830	0.990	0.810	90.26	-0.40	1.30	 	 	 	 	 	 	 	 	 	 	 	 	 	 	 	 	 	 	1581527603	8.44	15.63
12/02/2020 17:13:24	120220	12022020	171324	90.23	12.418773	-56.911702	90.23	-0.230	-0.610	0.660	90.25	-2.00	1.10	 	 	 	 	 	 	 	 	 	 	 	 	 	 	 	 	 	 	1581527604	9.96	18.45
12/02/2020 17:13:25	120220	12022020	171325	90.42	12.418775	-56.911652	90.46	0.430	-1.870	0.730	90.47	-3.20	1.20	 	 	 	 	 	 	 	 	 	 	 	 	 	 	 	 	 	 	1581527605	10.44	19.33
12/02/2020 17:13:26	120220	12022020	171326	90.65	12.418775	-56.911607	90.70	0.500	-1.860	1.060	90.68	-3.00	1.60	 	 	 	 	 	 	 	 	 	 	 	 	 	 	 	 	 	 	1581527606	9.60	17.78
12/02/2020 17:13:27	120220	12022020	171327	90.69	12.418772	-56.911568	90.73	-0.020	-0.690	1.590	90.68	-1.70	2.10	 	 	 	 	 	 	 	 	 	 	 	 	 	 	 	 	 	 	1581527607	8.29	15.35
12/02/2020 17:13:28	120220	12022020	171328	90.64	12.418768	-56.911533	90.71	-0.670	0.850	2.060	90.65	-0.20	2.50	 	 	 	 	 	 	 	 	 	 	 	 	 	 	 	 	 	 	1581527608	7.47	13.83
12/02/2020 17:13:29	120220	12022020	171329	90.81	12.418765	-56.911497	90.88	-0.900	1.550	1.890	90.86	0.30	2.30	 	 	 	 	 	 	 	 	 	 	 	 	 	 	 	 	 	 	1581527609	7.50	13.89
12/02/2020 17:13:30	120220	12022020	171330	90.99	12.418768	-56.911455	90.99	-0.400	0.620	1.210	90.98	-0.80	1.60	 	 	 	 	 	 	 	 	 	 	 	 	 	 	 	 	 	 	1581527610	8.85	16.39
12/02/2020 17:13:31	120220	12022020	171331	90.76	12.418773	-56.911407	90.70	0.510	-1.130	0.820	90.69	-2.60	1.30	 	 	 	 	 	 	 	 	 	 	 	 	 	 	 	 	 	 	1581527611	10.46	19.37
12/02/2020 17:13:32	120220	12022020	171332	90.51	12.418777	-56.911357	90.52	1.050	-1.920	0.750	90.51	-3.10	1.20	 	 	 	 	 	 	 	 	 	 	 	 	 	 	 	 	 	 	1581527612	10.54	19.52
12/02/2020 17:13:33	120220	12022020	171333	90.66	12.418782	-56.911315	90.73	0.740	-0.950	0.760	90.74	-2.00	1.20	 	 	 	 	 	 	 	 	 	 	 	 	 	 	 	 	 	 	1581527613	8.83	16.35
12/02/2020 17:13:34	120220	12022020	171334	91.12	12.418782	-56.911280	91.20	-0.070	0.580	0.790	91.22	-0.50	1.20	 	 	 	 	 	 	 	 	 	 	 	 	 	 	 	 	 	 	1581527614	7.27	13.46
12/02/2020 17:13:35	120220	12022020	171335	91.60	12.418783	-56.911245	91.66	-0.630	1.110	0.850	91.69	-0.20	1.30	 	 	 	 	 	 	 	 	 	 	 	 	 	 	 	 	 	 	1581527615	7.55	13.98
12/02/2020 17:13:36	120220	12022020	171336	91.92	12.418782	-56.911203	91.92	-0.530	0.490	1.110	91.94	-0.90	1.60	 	 	 	 	 	 	 	 	 	 	 	 	 	 	 	 	 	 	1581527616	8.87	16.43
12/02/2020 17:13:37	120220	12022020	171337	91.84	12.418778	-56.911157	91.76	-0.080	-0.500	1.530	91.77	-1.90	2.00	 	 	 	 	 	 	 	 	 	 	 	 	 	 	 	 	 	 	1581527617	9.64	17.85
12/02/2020 17:13:38	120220	12022020	171338	91.46	12.418777	-56.911112	91.41	0.300	-1.290	1.770	91.38	-2.60	2.20	 	 	 	 	 	 	 	 	 	 	 	 	 	 	 	 	 	 	1581527618	9.70	17.96
12/02/2020 17:13:39	120220	12022020	171339	91.24	12.418778	-56.911067	91.26	0.410	-1.470	1.560	91.24	-2.70	2.00	 	 	 	 	 	 	 	 	 	 	 	 	 	 	 	 	 	 	1581527619	9.46	17.52
12/02/2020 17:13:40	120220	12022020	171340	91.34	12.418782	-56.911025	91.40	0.240	-0.880	1.180	91.38	-2.00	1.60	 	 	 	 	 	 	 	 	 	 	 	 	 	 	 	 	 	 	1581527620	8.87	16.43
12/02/2020 17:13:41	120220	12022020	171341	91.58	12.418783	-56.910985	91.61	-0.130	0.070	0.830	91.61	-1.10	1.20	 	 	 	 	 	 	 	 	 	 	 	 	 	 	 	 	 	 	1581527621	8.29	15.35
12/02/2020 17:13:42	120220	12022020	171342	91.60	12.418783	-56.910947	91.57	-0.410	0.730	0.650	91.57	-0.50	1.10	 	 	 	 	 	 	 	 	 	 	 	 	 	 	 	 	 	 	1581527622	8.21	15.20
12/02/2020 17:13:43	120220	12022020	171343	91.39	12.418783	-56.910907	91.35	-0.360	0.780	0.630	91.35	-0.50	1.10	 	 	 	 	 	 	 	 	 	 	 	 	 	 	 	 	 	 	1581527623	8.60	15.93
12/02/2020 17:13:44	120220	12022020	171344	91.27	12.418785	-56.910862	91.26	-0.030	0.110	0.650	91.29	-1.30	1.10	 	 	 	 	 	 	 	 	 	 	 	 	 	 	 	 	 	 	1581527624	9.29	17.21
12/02/2020 17:13:45	120220	12022020	171345	91.43	12.418787	-56.910817	91.47	0.140	-0.650	0.660	91.48	-1.90	1.10	 	 	 	 	 	 	 	 	 	 	 	 	 	 	 	 	 	 	1581527625	9.71	17.98
12/02/2020 17:13:46	120220	12022020	171346	91.68	12.418787	-56.910773	91.74	0.060	-0.800	0.770	91.71	-2.00	1.30	 	 	 	 	 	 	 	 	 	 	 	 	 	 	 	 	 	 	1581527626	9.21	17.06
12/02/2020 17:13:47	120220	12022020	171347	91.68	12.418785	-56.910732	91.66	0.070	-0.630	1.200	91.63	-1.90	1.70	 	 	 	 	 	 	 	 	 	 	 	 	 	 	 	 	 	 	1581527627	8.59	15.91
12/02/2020 17:13:48	120220	12022020	171348	91.34	12.418783	-56.910690	91.30	0.430	-0.770	1.660	91.26	-2.10	2.10	 	 	 	 	 	 	 	 	 	 	 	 	 	 	 	 	 	 	1581527628	8.93	16.54
12/02/2020 17:13:49	120220	12022020	171349	91.06	12.418783	-56.910645	91.09	0.790	-0.930	1.620	91.06	-2.10	2.00	 	 	 	 	 	 	 	 	 	 	 	 	 	 	 	 	 	 	1581527629	9.55	17.69
12/02/2020 17:13:50	120220	12022020	171350	91.25	12.418787	-56.910602	91.35	0.640	-0.360	1.100	91.34	-1.50	1.50	 	 	 	 	 	 	 	 	 	 	 	 	 	 	 	 	 	 	1581527630	9.26	17.15
12/02/2020 17:13:51	120220	12022020	171351	91.77	12.418793	-56.910563	91.89	-0.160	0.780	0.740	91.88	-0.40	1.20	 	 	 	 	 	 	 	 	 	 	 	 	 	 	 	 	 	 	1581527631	8.20	15.19
12/02/2020 17:13:52	120220	12022020	171352	92.27	12.418793	-56.910527	92.37	-1.170	1.420	0.870	92.36	0.10	1.40	 	 	 	 	 	 	 	 	 	 	 	 	 	 	 	 	 	 	1581527632	7.64	14.15
12/02/2020 17:13:53	120220	12022020	171353	92.57	12.418788	-56.910487	92.62	-1.570	0.670	1.240	92.58	-0.80	1.80	 	 	 	 	 	 	 	 	 	 	 	 	 	 	 	 	 	 	1581527633	8.45	15.65
12/02/2020 17:13:54	120220	12022020	171354	92.37	12.418782	-56.910440	92.33	-0.710	-1.360	1.800	92.27	-2.90	2.30	 	 	 	 	 	 	 	 	 	 	 	 	 	 	 	 	 	 	1581527634	10.19	18.87
12/02/2020 17:13:55	120220	12022020	171355	91.80	12.418777	-56.910387	91.77	0.830	-2.850	1.970	91.71	-4.10	2.40	 	 	 	 	 	 	 	 	 	 	 	 	 	 	 	 	 	 	1581527635	11.10	20.56
12/02/2020 17:13:56	120220	12022020	171356	91.69	12.418778	-56.910340	91.78	1.670	-2.150	1.450	91.75	-3.10	1.80	 	 	 	 	 	 	 	 	 	 	 	 	 	 	 	 	 	 	1581527636	9.90	18.33
12/02/2020 17:13:57	120220	12022020	171357	92.27	12.418783	-56.910305	92.45	1.040	0.390	0.740	92.45	-0.50	1.10	 	 	 	 	 	 	 	 	 	 	 	 	 	 	 	 	 	 	1581527637	7.54	13.96
12/02/2020 17:13:58	120220	12022020	171358	93.16	12.418788	-56.910277	93.29	-0.480	2.720	0.050	93.32	1.60	0.40	 	 	 	 	 	 	 	 	 	 	 	 	 	 	 	 	 	 	1581527638	6.14	11.37
12/02/2020 17:13:59	120220	12022020	171359	93.70	12.418790	-56.910243	93.71	-1.520	2.810	-0.160	93.71	1.30	0.30	 	 	 	 	 	 	 	 	 	 	 	 	 	 	 	 	 	 	1581527639	6.91	12.80
12/02/2020 17:14:00	120220	12022020	171400	93.49	12.418788	-56.910198	93.43	-1.100	0.270	0.410	93.38	-1.40	1.00	 	 	 	 	 	 	 	 	 	 	 	 	 	 	 	 	 	 	1581527640	9.48	17.56
12/02/2020 17:14:01	120220	12022020	171401	93.03	12.418783	-56.910145	93.00	0.310	-2.730	1.050	92.97	-4.20	1.60	 	 	 	 	 	 	 	 	 	 	 	 	 	 	 	 	 	 	1581527641	11.49	21.28
12/02/2020 17:14:02	120220	12022020	171402	92.85	12.418782	-56.910093	92.87	1.370	-3.600	1.260	92.84	-4.70	1.70	1015.60	26.50	26.60	20.00	20.10	907.0	67.0	67.0	393.0	28.8	351.00	16.70	79.00	12.20	66187	20000.0	27.4	27.4	1581527642	10.83	20.06
12/02/2020 17:14:03	120220	12022020	171403	92.85	12.418782	-56.910055	92.87	1.150	-1.840	1.170	92.85	-2.80	1.60	 	 	 	 	 	 	 	 	 	 	 	 	 	 	 	 	 	 	1581527643	8.26	15.30
12/02/2020 17:14:04	120220	12022020	171404	92.79	12.418780	-56.910025	92.79	0.020	0.810	1.150	92.77	-0.20	1.60	 	 	 	 	 	 	 	 	 	 	 	 	 	 	 	 	 	 	1581527644	6.34	11.74
12/02/2020 17:14:05	120220	12022020	171405	92.70	12.418778	-56.909993	92.73	-0.990	2.290	1.230	92.68	1.10	1.70	 	 	 	 	 	 	 	 	 	 	 	 	 	 	 	 	 	 	1581527645	6.51	12.06
12/02/2020 17:14:06	120220	12022020	171406	92.63	12.418777	-56.909955	92.65	-1.200	1.790	1.220	92.60	0.30	1.60	 	 	 	 	 	 	 	 	 	 	 	 	 	 	 	 	 	 	1581527646	8.15	15.09
12/02/2020 17:14:07	120220	12022020	171407	92.50	12.418775	-56.909908	92.52	-0.580	-0.070	1.020	92.48	-1.60	1.40	 	 	 	 	 	 	 	 	 	 	 	 	 	 	 	 	 	 	1581527647	9.92	18.37
12/02/2020 17:14:08	120220	12022020	171408	92.47	12.418775	-56.909858	92.53	0.320	-1.690	0.820	92.49	-3.10	1.30	 	 	 	 	 	 	 	 	 	 	 	 	 	 	 	 	 	 	1581527648	10.54	19.52
12/02/2020 17:14:09	120220	12022020	171409	92.57	12.418773	-56.909813	92.61	0.760	-1.790	0.990	92.58	-2.90	1.50	 	 	 	 	 	 	 	 	 	 	 	 	 	 	 	 	 	 	1581527649	9.50	17.59
12/02/2020 17:14:10	120220	12022020	171410	92.52	12.418772	-56.909777	92.51	0.550	-0.570	1.290	92.47	-1.60	1.80	 	 	 	 	 	 	 	 	 	 	 	 	 	 	 	 	 	 	1581527650	7.81	14.46
12/02/2020 17:14:11	120220	12022020	171411	92.15	12.418770	-56.909743	92.11	0.130	0.640	1.430	92.06	-0.50	1.90	 	 	 	 	 	 	 	 	 	 	 	 	 	 	 	 	 	 	1581527651	7.10	13.15
12/02/2020 17:14:12	120220	12022020	171412	91.79	12.418772	-56.909705	91.75	0.040	0.740	1.270	91.75	-0.60	1.70	 	 	 	 	 	 	 	 	 	 	 	 	 	 	 	 	 	 	1581527652	7.90	14.63
12/02/2020 17:14:13	120220	12022020	171413	91.76	12.418777	-56.909662	91.79	0.200	-0.060	0.880	91.80	-1.40	1.30	 	 	 	 	 	 	 	 	 	 	 	 	 	 	 	 	 	 	1581527653	9.22	17.08
12/02/2020 17:14:14	120220	12022020	171414	91.99	12.418780	-56.909617	92.02	0.220	-0.810	0.600	92.02	-2.10	1.00	 	 	 	 	 	 	 	 	 	 	 	 	 	 	 	 	 	 	1581527654	9.55	17.69
12/02/2020 17:14:15	120220	12022020	171415	91.97	12.418780	-56.909575	91.95	0.000	-1.000	0.930	91.91	-2.20	1.50	 	 	 	 	 	 	 	 	 	 	 	 	 	 	 	 	 	 	1581527655	9.05	16.76
12/02/2020 17:14:16	120220	12022020	171416	91.58	12.418777	-56.909535	91.55	-0.160	-0.770	1.670	91.48	-2.00	2.20	 	 	 	 	 	 	 	 	 	 	 	 	 	 	 	 	 	 	1581527656	8.55	15.83
12/02/2020 17:14:17	120220	12022020	171417	91.24	12.418772	-56.909493	91.30	-0.060	-0.590	1.920	91.23	-1.80	2.30	 	 	 	 	 	 	 	 	 	 	 	 	 	 	 	 	 	 	1581527657	8.70	16.11
12/02/2020 17:14:18	120220	12022020	171418	91.41	12.418772	-56.909452	91.53	-0.050	-0.070	1.640	91.49	-1.20	2.00	 	 	 	 	 	 	 	 	 	 	 	 	 	 	 	 	 	 	1581527658	8.78	16.26
12/02/2020 17:14:19	120220	12022020	171419	91.89	12.418772	-56.909413	91.99	-0.420	0.800	1.080	91.98	-0.40	1.40	 	 	 	 	 	 	 	 	 	 	 	 	 	 	 	 	 	 	1581527659	7.99	14.80
12/02/2020 17:14:20	120220	12022020	171420	92.26	12.418773	-56.909378	92.26	-0.780	1.130	0.590	92.27	-0.20	1.00	 	 	 	 	 	 	 	 	 	 	 	 	 	 	 	 	 	 	1581527660	7.65	14.17
12/02/2020 17:14:21	120220	12022020	171421	92.19	12.418773	-56.909338	92.11	-0.510	0.330	0.550	92.13	-1.10	1.00	 	 	 	 	 	 	 	 	 	 	 	 	 	 	 	 	 	 	1581527661	8.51	15.76
12/02/2020 17:14:22	120220	12022020	171422	91.86	12.418775	-56.909292	91.80	0.340	-1.090	0.660	91.81	-2.50	1.10	 	 	 	 	 	 	 	 	 	 	 	 	 	 	 	 	 	 	1581527662	9.62	17.82
12/02/2020 17:14:23	120220	12022020	171423	91.74	12.418777	-56.909245	91.76	1.240	-2.130	0.510	91.77	-3.40	0.90	 	 	 	 	 	 	 	 	 	 	 	 	 	 	 	 	 	 	1581527663	10.06	18.63
12/02/2020 17:14:24	120220	12022020	171424	92.01	12.418782	-56.909200	92.08	1.450	-1.630	0.250	92.09	-2.70	0.70	 	 	 	 	 	 	 	 	 	 	 	 	 	 	 	 	 	 	1581527664	9.36	17.33
12/02/2020 17:14:25	120220	12022020	171425	92.39	12.418785	-56.909165	92.44	0.660	0.150	0.420	92.46	-0.90	0.90	 	 	 	 	 	 	 	 	 	 	 	 	 	 	 	 	 	 	1581527665	7.57	14.02
12/02/2020 17:14:26	120220	12022020	171426	92.68	12.418783	-56.909133	92.72	-0.600	1.520	0.890	92.73	0.30	1.40	 	 	 	 	 	 	 	 	 	 	 	 	 	 	 	 	 	 	1581527666	6.81	12.61
12/02/2020 17:14:27	120220	12022020	171427	92.89	12.418778	-56.909097	92.94	-1.390	1.350	1.390	92.91	-0.00	1.90	 	 	 	 	 	 	 	 	 	 	 	 	 	 	 	 	 	 	1581527667	7.86	14.56
12/02/2020 17:14:28	120220	12022020	171428	92.85	12.418772	-56.909052	92.84	-1.230	0.060	1.850	92.80	-1.40	2.30	 	 	 	 	 	 	 	 	 	 	 	 	 	 	 	 	 	 	1581527668	9.33	17.28
12/02/2020 17:14:29	120220	12022020	171429	92.47	12.418767	-56.909005	92.41	-0.340	-1.260	2.000	92.37	-2.60	2.40	 	 	 	 	 	 	 	 	 	 	 	 	 	 	 	 	 	 	1581527669	9.92	18.37
12/02/2020 17:14:30	120220	12022020	171430	92.02	12.418767	-56.908960	91.98	0.640	-1.780	1.720	91.95	-3.00	2.10	 	 	 	 	 	 	 	 	 	 	 	 	 	 	 	 	 	 	1581527670	9.65	17.87
12/02/2020 17:14:31	120220	12022020	171431	91.76	12.418770	-56.908918	91.76	1.070	-1.360	1.220	91.74	-2.50	1.60	 	 	 	 	 	 	 	 	 	 	 	 	 	 	 	 	 	 	1581527671	8.93	16.54
12/02/2020 17:14:32	120220	12022020	171432	91.75	12.418775	-56.908878	91.75	0.750	-0.440	0.680	91.77	-1.60	1.10	 	 	 	 	 	 	 	 	 	 	 	 	 	 	 	 	 	 	1581527672	8.37	15.50
12/02/2020 17:14:33	120220	12022020	171433	91.95	12.418778	-56.908840	91.98	-0.020	0.640	0.260	92.00	-0.50	0.70	 	 	 	 	 	 	 	 	 	 	 	 	 	 	 	 	 	 	1581527673	7.98	14.78
12/02/2020 17:14:34	120220	12022020	171434	92.24	12.418780	-56.908805	92.27	-0.670	1.410	0.170	92.29	0.20	0.60	 	 	 	 	 	 	 	 	 	 	 	 	 	 	 	 	 	 	1581527674	7.69	14.24
12/02/2020 17:14:35	120220	12022020	171435	92.42	12.418780	-56.908765	92.41	-0.660	0.890	0.420	92.42	-0.60	0.90	 	 	 	 	 	 	 	 	 	 	 	 	 	 	 	 	 	 	1581527675	8.23	15.24
12/02/2020 17:14:36	120220	12022020	171436	92.30	12.418777	-56.908718	92.28	0.040	-0.770	0.930	92.25	-2.20	1.50	 	 	 	 	 	 	 	 	 	 	 	 	 	 	 	 	 	 	1581527676	9.87	18.28
12/02/2020 17:14:37	120220	12022020	171437	91.95	12.418773	-56.908670	91.93	0.490	-1.570	1.580	91.87	-2.80	2.10	 	 	 	 	 	 	 	 	 	 	 	 	 	 	 	 	 	 	1581527677	10.21	18.91
12/02/2020 17:14:38	120220	12022020	171438	91.55	12.418770	-56.908630	91.53	0.160	-0.890	1.860	91.47	-2.00	2.30	 	 	 	 	 	 	 	 	 	 	 	 	 	 	 	 	 	 	1581527678	8.56	15.85
12/02/2020 17:14:39	120220	12022020	171439	91.18	12.418770	-56.908595	91.19	-0.440	0.090	1.820	91.14	-1.10	2.20	 	 	 	 	 	 	 	 	 	 	 	 	 	 	 	 	 	 	1581527679	7.43	13.76
12/02/2020 17:14:40	120220	12022020	171440	91.14	12.418772	-56.908558	91.18	-0.510	0.220	1.410	91.17	-1.10	1.80	 	 	 	 	 	 	 	 	 	 	 	 	 	 	 	 	 	 	1581527680	7.94	14.70
12/02/2020 17:14:41	120220	12022020	171441	91.40	12.418775	-56.908513	91.46	0.120	-0.510	0.720	91.48	-1.90	1.10	 	 	 	 	 	 	 	 	 	 	 	 	 	 	 	 	 	 	1581527681	9.23	17.09
12/02/2020 17:14:42	120220	12022020	171442	91.69	12.418778	-56.908468	91.70	0.760	-1.020	0.410	91.70	-2.30	0.90	 	 	 	 	 	 	 	 	 	 	 	 	 	 	 	 	 	 	1581527682	9.80	18.15
12/02/2020 17:14:43	120220	12022020	171443	91.64	12.418778	-56.908425	91.61	0.740	-0.610	0.840	91.60	-1.80	1.40	 	 	 	 	 	 	 	 	 	 	 	 	 	 	 	 	 	 	1581527683	9.00	16.67
12/02/2020 17:14:44	120220	12022020	171444	91.42	12.418777	-56.908387	91.42	0.100	0.350	1.220	91.40	-0.80	1.70	 	 	 	 	 	 	 	 	 	 	 	 	 	 	 	 	 	 	1581527684	8.03	14.87
12/02/2020 17:14:45	120220	12022020	171445	91.37	12.418777	-56.908352	91.38	-0.660	1.130	1.200	91.37	-0.10	1.60	 	 	 	 	 	 	 	 	 	 	 	 	 	 	 	 	 	 	1581527685	7.62	14.11
12/02/2020 17:14:46	120220	12022020	171446	91.42	12.418778	-56.908313	91.44	-1.000	1.010	1.140	91.43	-0.40	1.60	 	 	 	 	 	 	 	 	 	 	 	 	 	 	 	 	 	 	1581527686	7.99	14.80
12/02/2020 17:14:47	120220	12022020	171447	91.48	12.418780	-56.908272	91.49	-0.610	-0.250	0.980	91.48	-1.70	1.40	 	 	 	 	 	 	 	 	 	 	 	 	 	 	 	 	 	 	1581527687	9.01	16.69
12/02/2020 17:14:48	120220	12022020	171448	91.54	12.418782	-56.908223	91.57	0.380	-1.890	0.760	91.56	-3.30	1.20	 	 	 	 	 	 	 	 	 	 	 	 	 	 	 	 	 	 	1581527688	10.19	18.87
12/02/2020 17:14:49	120220	12022020	171449	91.67	12.418783	-56.908175	91.74	1.130	-2.240	0.770	91.71	-3.40	1.20	 	 	 	 	 	 	 	 	 	 	 	 	 	 	 	 	 	 	1581527689	10.05	18.61
12/02/2020 17:14:50	120220	12022020	171450	91.90	12.418785	-56.908137	91.97	0.900	-0.940	0.940	91.93	-2.00	1.40	 	 	 	 	 	 	 	 	 	 	 	 	 	 	 	 	 	 	1581527690	8.34	15.45
12/02/2020 17:14:51	120220	12022020	171451	91.96	12.418785	-56.908102	91.99	-0.010	0.650	1.270	91.93	-0.50	1.80	 	 	 	 	 	 	 	 	 	 	 	 	 	 	 	 	 	 	1581527691	7.16	13.26
12/02/2020 17:14:52	120220	12022020	171452	91.72	12.418782	-56.908067	91.72	-0.750	1.290	1.680	91.65	0.00	2.20	 	 	 	 	 	 	 	 	 	 	 	 	 	 	 	 	 	 	1581527692	7.58	14.04
12/02/2020 17:14:53	120220	12022020	171453	91.54	12.418780	-56.908025	91.61	-0.880	0.850	1.600	91.56	-0.50	2.00	 	 	 	 	 	 	 	 	 	 	 	 	 	 	 	 	 	 	1581527693	8.76	16.22
12/02/2020 17:14:54	120220	12022020	171454	91.79	12.418782	-56.907980	91.89	-0.620	-0.030	1.070	91.86	-1.40	1.50	 	 	 	 	 	 	 	 	 	 	 	 	 	 	 	 	 	 	1581527694	9.43	17.46
12/02/2020 17:14:55	120220	12022020	171455	92.07	12.418785	-56.907935	92.12	-0.210	-0.790	0.620	92.08	-2.10	1.00	 	 	 	 	 	 	 	 	 	 	 	 	 	 	 	 	 	 	1581527695	9.43	17.46
12/02/2020 17:14:56	120220	12022020	171456	92.04	12.418787	-56.907892	92.05	0.280	-1.150	0.360	92.02	-2.40	0.80	 	 	 	 	 	 	 	 	 	 	 	 	 	 	 	 	 	 	1581527696	9.15	16.95
12/02/2020 17:14:57	120220	12022020	171457	92.02	12.418790	-56.907850	92.05	0.810	-1.070	0.150	92.03	-2.30	0.60	 	 	 	 	 	 	 	 	 	 	 	 	 	 	 	 	 	 	1581527697	8.91	16.50
12/02/2020 17:14:58	120220	12022020	171458	92.17	12.418792	-56.907810	92.20	1.080	-0.600	0.220	92.20	-1.80	0.70	 	 	 	 	 	 	 	 	 	 	 	 	 	 	 	 	 	 	1581527698	8.72	16.15
12/02/2020 17:14:59	120220	12022020	171459	92.27	12.418793	-56.907770	92.27	0.680	0.150	0.470	92.27	-1.00	1.00	 	 	 	 	 	 	 	 	 	 	 	 	 	 	 	 	 	 	1581527699	8.33	15.43
12/02/2020 17:15:00	120220	12022020	171500	92.19	12.418795	-56.907732	92.15	-0.240	0.710	0.710	92.15	-0.50	1.20	 	 	 	 	 	 	 	 	 	 	 	 	 	 	 	 	 	 	1581527700	8.05	14.91
12/02/2020 17:15:01	120220	12022020	171501	92.02	12.418795	-56.907693	92.00	-1.030	0.660	1.090	91.99	-0.70	1.60	 	 	 	 	 	 	 	 	 	 	 	 	 	 	 	 	 	 	1581527701	8.30	15.37
12/02/2020 17:15:02	120220	12022020	171502	91.91	12.418792	-56.907650	91.93	-1.180	-0.010	1.450	91.91	-1.40	1.90	1015.50	26.60	26.70	20.00	20.10	904.0	67.0	67.0	393.0	28.8	351.00	15.30	80.00	11.00	65987	15974.0	27.4	27.4	1581527702	8.93	16.54
12/02/2020 17:15:03	120220	12022020	171503	91.94	12.418787	-56.907607	91.95	-0.670	-0.910	1.370	91.95	-2.30	1.80	 	 	 	 	 	 	 	 	 	 	 	 	 	 	 	 	 	 	1581527703	9.47	17.54
12/02/2020 17:15:04	120220	12022020	171504	91.87	12.418787	-56.907560	91.85	0.100	-1.430	1.120	91.84	-2.70	1.50	 	 	 	 	 	 	 	 	 	 	 	 	 	 	 	 	 	 	1581527704	9.52	17.63
12/02/2020 17:15:05	120220	12022020	171505	91.60	12.418788	-56.907518	91.56	0.770	-1.330	0.800	91.55	-2.50	1.20	 	 	 	 	 	 	 	 	 	 	 	 	 	 	 	 	 	 	1581527705	9.15	16.95
12/02/2020 17:15:06	120220	12022020	171506	91.48	12.418793	-56.907475	91.52	1.080	-0.700	0.320	91.53	-1.90	0.70	 	 	 	 	 	 	 	 	 	 	 	 	 	 	 	 	 	 	1581527706	8.87	16.43
12/02/2020 17:15:07	120220	12022020	171507	91.81	12.418798	-56.907437	91.87	0.790	0.220	0.100	91.88	-0.90	0.60	 	 	 	 	 	 	 	 	 	 	 	 	 	 	 	 	 	 	1581527707	8.52	15.78
12/02/2020 17:15:08	120220	12022020	171508	92.09	12.418802	-56.907397	92.12	-0.000	0.870	0.380	92.11	-0.40	0.90	 	 	 	 	 	 	 	 	 	 	 	 	 	 	 	 	 	 	1581527708	8.18	15.15
12/02/2020 17:15:09	120220	12022020	171509	92.08	12.418800	-56.907357	92.06	-0.800	0.860	0.940	92.07	-0.40	1.50	 	 	 	 	 	 	 	 	 	 	 	 	 	 	 	 	 	 	1581527709	8.48	15.70
12/02/2020 17:15:10	120220	12022020	171510	92.08	12.418798	-56.907315	92.10	-1.240	0.610	1.280	92.10	-0.70	1.70	 	 	 	 	 	 	 	 	 	 	 	 	 	 	 	 	 	 	1581527710	8.81	16.32
12/02/2020 17:15:11	120220	12022020	171511	92.23	12.418795	-56.907275	92.24	-1.030	0.060	1.280	92.26	-1.30	1.70	 	 	 	 	 	 	 	 	 	 	 	 	 	 	 	 	 	 	1581527711	8.70	16.11
12/02/2020 17:15:12	120220	12022020	171512	92.39	12.418793	-56.907230	92.39	-0.040	-1.290	1.140	92.41	-2.70	1.60	 	 	 	 	 	 	 	 	 	 	 	 	 	 	 	 	 	 	1581527712	9.41	17.43
12/02/2020 17:15:13	120220	12022020	171513	92.37	12.418795	-56.907182	92.33	1.150	-2.430	0.950	92.34	-3.70	1.40	 	 	 	 	 	 	 	 	 	 	 	 	 	 	 	 	 	 	1581527713	10.40	19.26
12/02/2020 17:15:14	120220	12022020	171514	92.25	12.418798	-56.907135	92.23	1.450	-1.730	0.710	92.24	-2.80	1.20	 	 	 	 	 	 	 	 	 	 	 	 	 	 	 	 	 	 	1581527714	9.61	17.80
12/02/2020 17:15:15	120220	12022020	171515	92.30	12.418802	-56.907100	92.34	0.560	0.460	0.710	92.35	-0.50	1.20	 	 	 	 	 	 	 	 	 	 	 	 	 	 	 	 	 	 	1581527715	7.44	13.78
12/02/2020 17:15:16	120220	12022020	171516	92.64	12.418803	-56.907070	92.72	-0.780	2.110	1.010	92.71	0.90	1.50	 	 	 	 	 	 	 	 	 	 	 	 	 	 	 	 	 	 	1581527716	6.49	12.02
12/02/2020 17:15:17	120220	12022020	171517	92.94	12.418800	-56.907033	93.01	-1.470	1.800	1.280	92.99	0.40	1.70	 	 	 	 	 	 	 	 	 	 	 	 	 	 	 	 	 	 	1581527717	7.75	14.35
12/02/2020 17:15:18	120220	12022020	171518	93.12	12.418797	-56.906988	93.16	-1.020	-0.100	1.020	93.14	-1.60	1.40	 	 	 	 	 	 	 	 	 	 	 	 	 	 	 	 	 	 	1581527718	9.71	17.98
12/02/2020 17:15:19	120220	12022020	171519	93.14	12.418797	-56.906937	93.16	0.160	-1.890	0.870	93.14	-3.30	1.30	 	 	 	 	 	 	 	 	 	 	 	 	 	 	 	 	 	 	1581527719	10.70	19.82
12/02/2020 17:15:20	120220	12022020	171520	93.18	12.418797	-56.906890	93.19	1.010	-2.060	0.830	93.20	-3.20	1.30	 	 	 	 	 	 	 	 	 	 	 	 	 	 	 	 	 	 	1581527720	9.80	18.15
12/02/2020 17:15:21	120220	12022020	171521	93.35	12.418798	-56.906852	93.37	0.940	-0.910	0.550	93.39	-2.00	1.00	 	 	 	 	 	 	 	 	 	 	 	 	 	 	 	 	 	 	1581527721	8.16	15.11
12/02/2020 17:15:22	120220	12022020	171522	93.45	12.418802	-56.906817	93.44	0.260	0.250	0.550	93.44	-0.90	1.10	 	 	 	 	 	 	 	 	 	 	 	 	 	 	 	 	 	 	1581527722	7.51	13.91
12/02/2020 17:15:23	120220	12022020	171523	93.27	12.418800	-56.906778	93.20	-0.300	0.530	0.870	93.20	-0.80	1.40	 	 	 	 	 	 	 	 	 	 	 	 	 	 	 	 	 	 	1581527723	8.13	15.06
12/02/2020 17:15:24	120220	12022020	171524	92.83	12.418798	-56.906735	92.74	-0.400	0.260	0.960	92.74	-1.10	1.40	 	 	 	 	 	 	 	 	 	 	 	 	 	 	 	 	 	 	1581527724	9.05	16.76
12/02/2020 17:15:25	120220	12022020	171525	92.51	12.418800	-56.906692	92.48	-0.210	-0.010	0.760	92.50	-1.30	1.20	 	 	 	 	 	 	 	 	 	 	 	 	 	 	 	 	 	 	1581527725	9.25	17.13
12/02/2020 17:15:26	120220	12022020	171526	92.69	12.418802	-56.906648	92.76	-0.040	-0.240	0.440	92.79	-1.50	0.90	 	 	 	 	 	 	 	 	 	 	 	 	 	 	 	 	 	 	1581527726	9.14	16.93
12/02/2020 17:15:27	120220	12022020	171527	93.20	12.418803	-56.906607	93.27	-0.130	-0.340	0.320	93.30	-1.60	0.80	 	 	 	 	 	 	 	 	 	 	 	 	 	 	 	 	 	 	1581527727	8.93	16.54
12/02/2020 17:15:28	120220	12022020	171528	93.52	12.418798	-56.906565	93.52	-0.310	-0.340	0.620	93.53	-1.60	1.10	 	 	 	 	 	 	 	 	 	 	 	 	 	 	 	 	 	 	1581527728	8.70	16.11
12/02/2020 17:15:29	120220	12022020	171529	93.31	12.418793	-56.906525	93.21	-0.180	-0.370	1.170	93.19	-1.70	1.70	 	 	 	 	 	 	 	 	 	 	 	 	 	 	 	 	 	 	1581527729	8.68	16.08
12/02/2020 17:15:30	120220	12022020	171530	92.64	12.418790	-56.906482	92.54	0.260	-0.540	1.690	92.51	-1.90	2.20	 	 	 	 	 	 	 	 	 	 	 	 	 	 	 	 	 	 	1581527730	8.94	16.56
12/02/2020 17:15:31	120220	12022020	171531	92.29	12.418788	-56.906438	92.28	0.620	-0.690	1.410	92.30	-2.00	1.80	 	 	 	 	 	 	 	 	 	 	 	 	 	 	 	 	 	 	1581527731	9.20	17.04
12/02/2020 17:15:32	120220	12022020	171532	92.46	12.418793	-56.906397	92.47	0.590	-0.470	0.590	92.51	-1.70	1.00	 	 	 	 	 	 	 	 	 	 	 	 	 	 	 	 	 	 	1581527732	9.12	16.89
12/02/2020 17:15:33	120220	12022020	171533	92.55	12.418800	-56.906355	92.51	0.160	0.120	0.110	92.54	-1.10	0.60	 	 	 	 	 	 	 	 	 	 	 	 	 	 	 	 	 	 	1581527733	8.58	15.89
12/02/2020 17:15:34	120220	12022020	171534	92.52	12.418803	-56.906317	92.50	-0.460	0.590	0.230	92.55	-0.70	0.70	 	 	 	 	 	 	 	 	 	 	 	 	 	 	 	 	 	 	1581527734	8.22	15.22
12/02/2020 17:15:35	120220	12022020	171535	92.82	12.418802	-56.906277	92.87	-0.810	0.350	0.610	92.91	-1.00	1.10	 	 	 	 	 	 	 	 	 	 	 	 	 	 	 	 	 	 	1581527735	8.45	15.65
12/02/2020 17:15:36	120220	12022020	171536	93.20	12.418797	-56.906233	93.21	-0.450	-0.680	1.080	93.24	-2.10	1.60	 	 	 	 	 	 	 	 	 	 	 	 	 	 	 	 	 	 	1581527736	9.37	17.35
12/02/2020 17:15:37	120220	12022020	171537	93.18	12.418792	-56.906185	93.11	0.400	-1.830	1.500	93.13	-3.20	2.00	 	 	 	 	 	 	 	 	 	 	 	 	 	 	 	 	 	 	1581527737	10.22	18.93
12/02/2020 17:15:38	120220	12022020	171538	92.80	12.418787	-56.906138	92.71	0.980	-1.820	1.740	92.71	-3.00	2.20	 	 	 	 	 	 	 	 	 	 	 	 	 	 	 	 	 	 	1581527738	9.98	18.48
12/02/2020 17:15:39	120220	12022020	171539	92.45	12.418788	-56.906098	92.40	0.720	-0.200	1.490	92.41	-1.20	1.90	 	 	 	 	 	 	 	 	 	 	 	 	 	 	 	 	 	 	1581527739	8.38	15.52
12/02/2020 17:15:40	120220	12022020	171540	92.41	12.418793	-56.906065	92.38	-0.150	1.630	0.740	92.44	0.50	1.10	 	 	 	 	 	 	 	 	 	 	 	 	 	 	 	 	 	 	1581527740	7.12	13.19
12/02/2020 17:15:41	120220	12022020	171541	92.66	12.418800	-56.906028	92.64	-0.840	1.870	-0.070	92.74	0.50	0.30	 	 	 	 	 	 	 	 	 	 	 	 	 	 	 	 	 	 	1581527741	7.76	14.37
12/02/2020 17:15:42	120220	12022020	171542	93.04	12.418803	-56.905985	93.06	-0.880	0.500	-0.240	93.12	-1.00	0.30	 	 	 	 	 	 	 	 	 	 	 	 	 	 	 	 	 	 	1581527742	9.39	17.39
12/02/2020 17:15:43	120220	12022020	171543	93.38	12.418802	-56.905937	93.39	-0.460	-1.150	0.100	93.41	-2.60	0.60	 	 	 	 	 	 	 	 	 	 	 	 	 	 	 	 	 	 	1581527743	10.28	19.04
12/02/2020 17:15:44	120220	12022020	171544	93.36	12.418797	-56.905890	93.30	0.030	-1.870	0.600	93.30	-3.10	1.10	 	 	 	 	 	 	 	 	 	 	 	 	 	 	 	 	 	 	1581527744	9.88	18.30
12/02/2020 17:15:45	120220	12022020	171545	93.00	12.418792	-56.905848	92.93	0.390	-1.520	1.020	92.93	-2.70	1.50	 	 	 	 	 	 	 	 	 	 	 	 	 	 	 	 	 	 	1581527745	8.85	16.39
12/02/2020 17:15:46	120220	12022020	171546	92.79	12.418790	-56.905810	92.78	0.660	-0.660	1.000	92.78	-1.80	1.40	 	 	 	 	 	 	 	 	 	 	 	 	 	 	 	 	 	 	1581527746	8.18	15.15
12/02/2020 17:15:47	120220	12022020	171547	92.83	12.418793	-56.905770	92.84	0.780	-0.050	0.640	92.86	-1.30	1.00	 	 	 	 	 	 	 	 	 	 	 	 	 	 	 	 	 	 	1581527747	8.41	15.58
12/02/2020 17:15:48	120220	12022020	171548	93.03	12.418797	-56.905728	93.03	0.380	0.440	0.310	93.07	-0.80	0.80	 	 	 	 	 	 	 	 	 	 	 	 	 	 	 	 	 	 	1581527748	8.82	16.33
12/02/2020 17:15:49	120220	12022020	171549	93.09	12.418798	-56.905688	93.05	-0.470	0.800	0.510	93.07	-0.50	1.00	 	 	 	 	 	 	 	 	 	 	 	 	 	 	 	 	 	 	1581527749	8.46	15.67
12/02/2020 17:15:50	120220	12022020	171550	92.88	12.418795	-56.905648	92.84	-1.060	0.570	0.980	92.84	-0.80	1.50	 	 	 	 	 	 	 	 	 	 	 	 	 	 	 	 	 	 	1581527750	8.55	15.83
12/02/2020 17:15:51	120220	12022020	171551	92.69	12.418792	-56.905605	92.68	-0.890	-0.230	1.190	92.68	-1.60	1.60	 	 	 	 	 	 	 	 	 	 	 	 	 	 	 	 	 	 	1581527751	9.24	17.11
12/02/2020 17:15:52	120220	12022020	171552	92.77	12.418790	-56.905560	92.81	-0.170	-1.020	1.040	92.82	-2.40	1.50	 	 	 	 	 	 	 	 	 	 	 	 	 	 	 	 	 	 	1581527752	9.57	17.72
12/02/2020 17:15:53	120220	12022020	171553	92.93	12.418790	-56.905515	92.91	0.660	-1.450	0.830	92.92	-2.70	1.30	 	 	 	 	 	 	 	 	 	 	 	 	 	 	 	 	 	 	1581527753	9.53	17.65
12/02/2020 17:15:54	120220	12022020	171554	92.76	12.418792	-56.905470	92.72	1.050	-1.240	0.970	92.71	-2.40	1.50	 	 	 	 	 	 	 	 	 	 	 	 	 	 	 	 	 	 	1581527754	9.31	17.24
12/02/2020 17:15:55	120220	12022020	171555	92.62	12.418792	-56.905430	92.65	0.700	-0.390	1.410	92.64	-1.50	1.90	 	 	 	 	 	 	 	 	 	 	 	 	 	 	 	 	 	 	1581527755	8.64	16.00
12/02/2020 17:15:56	120220	12022020	171556	92.87	12.418790	-56.905392	92.97	-0.110	0.610	1.620	92.97	-0.60	2.10	 	 	 	 	 	 	 	 	 	 	 	 	 	 	 	 	 	 	1581527756	8.09	14.98
12/02/2020 17:15:57	120220	12022020	171557	93.35	12.418788	-56.905353	93.42	-0.810	1.250	1.490	93.43	-0.00	1.90	 	 	 	 	 	 	 	 	 	 	 	 	 	 	 	 	 	 	1581527757	7.97	14.76
12/02/2020 17:15:58	120220	12022020	171558	93.62	12.418787	-56.905313	93.63	-0.960	0.980	1.390	93.63	-0.40	1.80	 	 	 	 	 	 	 	 	 	 	 	 	 	 	 	 	 	 	1581527758	8.40	15.56
12/02/2020 17:15:59	120220	12022020	171559	93.46	12.418783	-56.905268	93.39	-0.350	-0.390	1.470	93.39	-1.90	1.90	 	 	 	 	 	 	 	 	 	 	 	 	 	 	 	 	 	 	1581527759	9.52	17.63
12/02/2020 17:16:00	120220	12022020	171600	93.10	12.418782	-56.905220	93.05	0.530	-1.810	1.360	93.06	-3.20	1.80	 	 	 	 	 	 	 	 	 	 	 	 	 	 	 	 	 	 	1581527760	10.44	19.33
12/02/2020 17:16:01	120220	12022020	171601	93.03	12.418783	-56.905172	93.05	0.910	-1.930	0.940	93.07	-3.10	1.30	 	 	 	 	 	 	 	 	 	 	 	 	 	 	 	 	 	 	1581527761	9.93	18.39
12/02/2020 17:16:02	120220	12022020	171602	93.43	12.418788	-56.905133	93.50	0.540	-0.540	0.350	93.55	-1.60	0.80	1015.60	26.60	26.70	20.20	20.20	903.0	67.0	67.0	393.0	28.8	351.00	15.90	80.00	11.40	65876	12114.0	27.4	27.4	1581527762	8.38	15.52
12/02/2020 17:16:03	120220	12022020	171603	94.04	12.418790	-56.905098	94.07	-0.240	1.000	0.070	94.12	-0.20	0.60	 	 	 	 	 	 	 	 	 	 	 	 	 	 	 	 	 	 	1581527763	7.20	13.33
12/02/2020 17:16:04	120220	12022020	171604	94.16	12.418788	-56.905062	94.08	-0.710	0.940	0.590	94.08	-0.50	1.20	 	 	 	 	 	 	 	 	 	 	 	 	 	 	 	 	 	 	1581527764	7.93	14.69
12/02/2020 17:16:05	120220	12022020	171605	93.56	12.418782	-56.905015	93.43	-0.510	-0.500	1.570	93.40	-2.00	2.10	 	 	 	 	 	 	 	 	 	 	 	 	 	 	 	 	 	 	1581527765	9.95	18.43
12/02/2020 17:16:06	120220	12022020	171606	92.91	12.418775	-56.904965	92.87	0.070	-1.470	1.920	92.85	-2.80	2.40	 	 	 	 	 	 	 	 	 	 	 	 	 	 	 	 	 	 	1581527766	10.65	19.72
12/02/2020 17:16:07	120220	12022020	171607	92.85	12.418773	-56.904922	92.91	0.520	-0.900	1.610	92.91	-2.00	2.00	 	 	 	 	 	 	 	 	 	 	 	 	 	 	 	 	 	 	1581527767	9.34	17.30
12/02/2020 17:16:08	120220	12022020	171608	93.23	12.418773	-56.904883	93.29	0.510	0.270	1.180	93.30	-0.90	1.60	 	 	 	 	 	 	 	 	 	 	 	 	 	 	 	 	 	 	1581527768	7.93	14.69
12/02/2020 17:16:09	120220	12022020	171609	93.44	12.418775	-56.904845	93.42	0.190	0.640	0.900	93.43	-0.70	1.40	 	 	 	 	 	 	 	 	 	 	 	 	 	 	 	 	 	 	1581527769	8.11	15.02
12/02/2020 17:16:10	120220	12022020	171610	93.27	12.418775	-56.904803	93.19	-0.150	0.250	1.080	93.20	-1.10	1.60	 	 	 	 	 	 	 	 	 	 	 	 	 	 	 	 	 	 	1581527770	8.99	16.65
12/02/2020 17:16:11	120220	12022020	171611	92.93	12.418773	-56.904758	92.88	-0.310	-0.290	1.410	92.87	-1.70	1.90	 	 	 	 	 	 	 	 	 	 	 	 	 	 	 	 	 	 	1581527771	9.35	17.32
12/02/2020 17:16:12	120220	12022020	171612	92.64	12.418770	-56.904715	92.60	-0.250	-0.740	1.500	92.59	-2.10	2.00	 	 	 	 	 	 	 	 	 	 	 	 	 	 	 	 	 	 	1581527772	9.33	17.28
12/02/2020 17:16:13	120220	12022020	171613	92.40	12.418770	-56.904670	92.37	-0.060	-0.980	1.390	92.37	-2.30	1.80	 	 	 	 	 	 	 	 	 	 	 	 	 	 	 	 	 	 	1581527773	9.30	17.22
12/02/2020 17:16:14	120220	12022020	171614	92.30	12.418770	-56.904628	92.30	0.100	-0.770	1.150	92.31	-2.00	1.60	 	 	 	 	 	 	 	 	 	 	 	 	 	 	 	 	 	 	1581527774	9.07	16.80
12/02/2020 17:16:15	120220	12022020	171615	92.32	12.418770	-56.904587	92.31	0.150	-0.220	1.010	92.31	-1.40	1.50	 	 	 	 	 	 	 	 	 	 	 	 	 	 	 	 	 	 	1581527775	8.64	16.00
12/02/2020 17:16:16	120220	12022020	171616	92.20	12.418768	-56.904547	92.16	0.090	0.100	1.260	92.15	-1.20	1.80	 	 	 	 	 	 	 	 	 	 	 	 	 	 	 	 	 	 	1581527776	8.56	15.85
12/02/2020 17:16:17	120220	12022020	171617	91.99	12.418767	-56.904503	91.97	0.000	-0.170	1.520	91.97	-1.50	2.00	 	 	 	 	 	 	 	 	 	 	 	 	 	 	 	 	 	 	1581527777	9.16	16.96
12/02/2020 17:16:18	120220	12022020	171618	91.91	12.418765	-56.904457	91.91	-0.050	-0.560	1.500	91.90	-1.90	2.00	 	 	 	 	 	 	 	 	 	 	 	 	 	 	 	 	 	 	1581527778	9.66	17.89
12/02/2020 17:16:19	120220	12022020	171619	91.85	12.418765	-56.904412	91.85	0.010	-0.530	1.550	91.83	-1.80	2.00	 	 	 	 	 	 	 	 	 	 	 	 	 	 	 	 	 	 	1581527779	9.48	17.56
12/02/2020 17:16:20	120220	12022020	171620	91.78	12.418765	-56.904370	91.80	0.140	-0.050	1.480	91.78	-1.30	1.90	 	 	 	 	 	 	 	 	 	 	 	 	 	 	 	 	 	 	1581527780	8.94	16.56
12/02/2020 17:16:21	120220	12022020	171621	91.87	12.418767	-56.904328	91.92	0.170	0.220	1.330	91.92	-1.10	1.80	 	 	 	 	 	 	 	 	 	 	 	 	 	 	 	 	 	 	1581527781	8.75	16.21
12/02/2020 17:16:22	120220	12022020	171622	92.14	12.418765	-56.904285	92.20	-0.010	0.120	1.370	92.20	-1.20	1.90	 	 	 	 	 	 	 	 	 	 	 	 	 	 	 	 	 	 	1581527782	9.07	16.80
12/02/2020 17:16:23	120220	12022020	171623	92.37	12.418763	-56.904243	92.40	-0.310	0.170	1.410	92.40	-1.10	1.90	 	 	 	 	 	 	 	 	 	 	 	 	 	 	 	 	 	 	1581527783	9.01	16.69
12/02/2020 17:16:24	120220	12022020	171624	92.42	12.418763	-56.904203	92.38	-0.480	0.270	1.310	92.40	-1.10	1.80	 	 	 	 	 	 	 	 	 	 	 	 	 	 	 	 	 	 	1581527784	8.53	15.80
12/02/2020 17:16:25	120220	12022020	171625	92.13	12.418763	-56.904162	92.02	-0.270	-0.370	1.420	92.03	-1.80	1.90	 	 	 	 	 	 	 	 	 	 	 	 	 	 	 	 	 	 	1581527785	8.86	16.41
12/02/2020 17:16:26	120220	12022020	171626	91.57	12.418763	-56.904113	91.47	0.310	-1.670	1.720	91.48	-3.10	2.20	 	 	 	 	 	 	 	 	 	 	 	 	 	 	 	 	 	 	1581527786	10.05	18.61
12/02/2020 17:16:27	120220	12022020	171627	91.36	12.418765	-56.904063	91.38	0.800	-2.270	1.560	91.39	-3.50	2.00	 	 	 	 	 	 	 	 	 	 	 	 	 	 	 	 	 	 	1581527787	10.53	19.50
12/02/2020 17:16:28	120220	12022020	171628	91.66	12.418767	-56.904020	91.72	0.690	-1.180	1.180	91.74	-2.20	1.60	 	 	 	 	 	 	 	 	 	 	 	 	 	 	 	 	 	 	1581527788	9.35	17.32
12/02/2020 17:16:29	120220	12022020	171629	91.95	12.418767	-56.903982	91.96	-0.000	0.620	1.110	91.96	-0.50	1.60	 	 	 	 	 	 	 	 	 	 	 	 	 	 	 	 	 	 	1581527789	7.79	14.43
12/02/2020 17:16:30	120220	12022020	171630	91.87	12.418763	-56.903945	91.84	-0.640	1.500	1.400	91.83	0.20	1.90	 	 	 	 	 	 	 	 	 	 	 	 	 	 	 	 	 	 	1581527790	7.85	14.54
12/02/2020 17:16:31	120220	12022020	171631	91.68	12.418762	-56.903902	91.67	-0.740	1.020	1.490	91.65	-0.40	1.90	 	 	 	 	 	 	 	 	 	 	 	 	 	 	 	 	 	 	1581527791	9.16	16.96
12/02/2020 17:16:32	120220	12022020	171632	91.60	12.418762	-56.903855	91.59	-0.470	0.060	1.290	91.59	-1.30	1.70	 	 	 	 	 	 	 	 	 	 	 	 	 	 	 	 	 	 	1581527792	10.07	18.65
12/02/2020 17:16:33	120220	12022020	171633	91.54	12.418765	-56.903808	91.51	-0.210	-0.530	1.080	91.53	-1.80	1.50	 	 	 	 	 	 	 	 	 	 	 	 	 	 	 	 	 	 	1581527793	9.86	18.26
12/02/2020 17:16:34	120220	12022020	171634	91.51	12.418767	-56.903765	91.51	-0.070	-0.630	0.880	91.53	-1.90	1.30	 	 	 	 	 	 	 	 	 	 	 	 	 	 	 	 	 	 	1581527794	9.18	17.00
12/02/2020 17:16:35	120220	12022020	171635	91.70	12.418767	-56.903723	91.73	0.110	-0.690	0.800	91.75	-2.00	1.30	 	 	 	 	 	 	 	 	 	 	 	 	 	 	 	 	 	 	1581527795	8.88	16.45
12/02/2020 17:16:36	120220	12022020	171636	91.86	12.418767	-56.903678	91.85	0.460	-1.030	1.040	91.85	-2.40	1.60	 	 	 	 	 	 	 	 	 	 	 	 	 	 	 	 	 	 	1581527796	9.27	17.17
12/02/2020 17:16:37	120220	12022020	171637	91.57	12.418765	-56.903633	91.47	0.800	-1.250	1.400	91.45	-2.50	1.90	 	 	 	 	 	 	 	 	 	 	 	 	 	 	 	 	 	 	1581527797	9.74	18.04
12/02/2020 17:16:38	120220	12022020	171638	90.90	12.418763	-56.903588	90.82	0.710	-0.750	1.720	90.79	-1.90	2.20	 	 	 	 	 	 	 	 	 	 	 	 	 	 	 	 	 	 	1581527798	9.48	17.56
12/02/2020 17:16:39	120220	12022020	171639	90.54	12.418765	-56.903547	90.58	0.090	0.340	1.800	90.54	-0.80	2.20	 	 	 	 	 	 	 	 	 	 	 	 	 	 	 	 	 	 	1581527799	8.63	15.98
12/02/2020 17:16:40	120220	12022020	171640	90.78	12.418767	-56.903508	90.87	-0.680	1.180	1.420	90.87	-0.10	1.80	 	 	 	 	 	 	 	 	 	 	 	 	 	 	 	 	 	 	1581527800	8.18	15.15
12/02/2020 17:16:41	120220	12022020	171641	91.24	12.418770	-56.903467	91.30	-1.050	0.900	0.870	91.31	-0.50	1.30	 	 	 	 	 	 	 	 	 	 	 	 	 	 	 	 	 	 	1581527801	8.75	16.21
12/02/2020 17:16:42	120220	12022020	171642	91.45	12.418770	-56.903420	91.45	-0.770	-0.400	0.860	91.45	-1.90	1.40	 	 	 	 	 	 	 	 	 	 	 	 	 	 	 	 	 	 	1581527802	9.99	18.50
12/02/2020 17:16:43	120220	12022020	171643	91.47	12.418767	-56.903370	91.50	-0.170	-1.420	1.190	91.48	-2.70	1.70	 	 	 	 	 	 	 	 	 	 	 	 	 	 	 	 	 	 	1581527803	10.54	19.52
12/02/2020 17:16:44	120220	12022020	171644	91.51	12.418763	-56.903325	91.52	0.330	-1.220	1.380	91.51	-2.40	1.80	 	 	 	 	 	 	 	 	 	 	 	 	 	 	 	 	 	 	1581527804	9.55	17.69
12/02/2020 17:16:45	120220	12022020	171645	91.47	12.418765	-56.903285	91.46	0.560	-0.430	1.230	91.45	-1.60	1.70	 	 	 	 	 	 	 	 	 	 	 	 	 	 	 	 	 	 	1581527805	8.49	15.72
12/02/2020 17:16:46	120220	12022020	171646	91.36	12.418768	-56.903243	91.34	0.520	-0.050	0.840	91.34	-1.30	1.30	 	 	 	 	 	 	 	 	 	 	 	 	 	 	 	 	 	 	1581527806	8.77	16.24
12/02/2020 17:16:47	120220	12022020	171647	91.23	12.418773	-56.903200	91.20	0.280	-0.140	0.860	91.19	-1.50	1.40	 	 	 	 	 	 	 	 	 	 	 	 	 	 	 	 	 	 	1581527807	9.36	17.33
12/02/2020 17:16:48	120220	12022020	171648	91.10	12.418773	-56.903153	91.12	0.000	-0.300	1.090	91.10	-1.60	1.60	 	 	 	 	 	 	 	 	 	 	 	 	 	 	 	 	 	 	1581527808	9.69	17.95
12/02/2020 17:16:49	120220	12022020	171649	91.20	12.418773	-56.903108	91.23	-0.230	-0.160	0.940	91.23	-1.40	1.40	 	 	 	 	 	 	 	 	 	 	 	 	 	 	 	 	 	 	1581527809	9.43	17.46
12/02/2020 17:16:50	120220	12022020	171650	91.37	12.418775	-56.903067	91.40	-0.350	0.110	0.880	91.38	-1.10	1.40	 	 	 	 	 	 	 	 	 	 	 	 	 	 	 	 	 	 	1581527810	9.04	16.74
12/02/2020 17:16:51	120220	12022020	171651	91.38	12.418773	-56.903023	91.40	-0.400	0.250	1.240	91.37	-1.00	1.70	 	 	 	 	 	 	 	 	 	 	 	 	 	 	 	 	 	 	1581527811	8.97	16.61
12/02/2020 17:16:52	120220	12022020	171652	91.29	12.418770	-56.902980	91.30	-0.390	0.090	1.480	91.27	-1.20	1.90	 	 	 	 	 	 	 	 	 	 	 	 	 	 	 	 	 	 	1581527812	9.12	16.89
12/02/2020 17:16:53	120220	12022020	171653	91.21	12.418770	-56.902937	91.22	-0.280	-0.450	1.420	91.19	-1.80	1.90	 	 	 	 	 	 	 	 	 	 	 	 	 	 	 	 	 	 	1581527813	9.48	17.56
12/02/2020 17:16:54	120220	12022020	171654	91.03	12.418770	-56.902890	91.01	-0.050	-1.070	1.390	90.97	-2.40	1.80	 	 	 	 	 	 	 	 	 	 	 	 	 	 	 	 	 	 	1581527814	9.84	18.22
12/02/2020 17:16:55	120220	12022020	171655	90.82	12.418772	-56.902842	90.84	0.230	-1.280	1.130	90.81	-2.50	1.50	 	 	 	 	 	 	 	 	 	 	 	 	 	 	 	 	 	 	1581527815	9.89	18.32
12/02/2020 17:16:56	120220	12022020	171656	90.90	12.418773	-56.902798	90.94	0.460	-0.670	0.760	90.93	-1.80	1.20	 	 	 	 	 	 	 	 	 	 	 	 	 	 	 	 	 	 	1581527816	9.34	17.30
12/02/2020 17:16:57	120220	12022020	171657	91.10	12.418777	-56.902758	91.14	0.510	0.260	0.590	91.13	-0.90	1.00	 	 	 	 	 	 	 	 	 	 	 	 	 	 	 	 	 	 	1581527817	8.56	15.85
12/02/2020 17:16:58	120220	12022020	171658	91.18	12.418780	-56.902717	91.19	0.490	0.340	0.470	91.17	-1.00	0.90	 	 	 	 	 	 	 	 	 	 	 	 	 	 	 	 	 	 	1581527818	8.85	16.39
12/02/2020 17:16:59	120220	12022020	171659	91.17	12.418783	-56.902668	91.22	0.410	-0.230	0.610	91.19	-1.50	1.10	 	 	 	 	 	 	 	 	 	 	 	 	 	 	 	 	 	 	1581527819	10.05	18.61
12/02/2020 17:17:00	120220	12022020	171700	91.36	12.418785	-56.902622	91.44	-0.080	-0.150	1.130	91.41	-1.40	1.70	 	 	 	 	 	 	 	 	 	 	 	 	 	 	 	 	 	 	1581527820	9.83	18.21
12/02/2020 17:17:01	120220	12022020	171701	91.63	12.418782	-56.902582	91.72	-0.880	0.400	1.530	91.69	-0.80	2.00	 	 	 	 	 	 	 	 	 	 	 	 	 	 	 	 	 	 	1581527821	8.64	16.00
12/02/2020 17:17:02	120220	12022020	171702	91.87	12.418778	-56.902542	91.93	-1.250	0.320	1.510	91.90	-1.10	1.90	1015.60	26.60	26.70	20.20	20.20	899.0	67.0	67.0	393.0	28.8	352.00	15.80	80.00	11.20	65603	11435.0	27.4	27.4	1581527822	8.53	15.80
12/02/2020 17:17:03	120220	12022020	171703	91.93	12.418777	-56.902495	91.93	-0.590	-0.800	1.390	91.91	-2.30	1.90	 	 	 	 	 	 	 	 	 	 	 	 	 	 	 	 	 	 	1581527823	9.65	17.87
12/02/2020 17:17:04	120220	12022020	171704	91.77	12.418777	-56.902445	91.78	0.590	-1.900	1.410	91.75	-3.20	1.90	 	 	 	 	 	 	 	 	 	 	 	 	 	 	 	 	 	 	1581527824	10.79	19.98
12/02/2020 17:17:05	120220	12022020	171705	91.81	12.418778	-56.902397	91.88	1.030	-1.520	1.240	91.87	-2.60	1.70	 	 	 	 	 	 	 	 	 	 	 	 	 	 	 	 	 	 	1581527825	10.12	18.74
12/02/2020 17:17:06	120220	12022020	171706	92.19	12.418780	-56.902358	92.28	0.390	0.120	0.960	92.28	-0.90	1.40	 	 	 	 	 	 	 	 	 	 	 	 	 	 	 	 	 	 	1581527826	8.31	15.39
12/02/2020 17:17:07	120220	12022020	171707	92.55	12.418782	-56.902322	92.57	-0.560	1.460	0.870	92.58	0.30	1.40	 	 	 	 	 	 	 	 	 	 	 	 	 	 	 	 	 	 	1581527827	7.46	13.82
12/02/2020 17:17:08	120220	12022020	171708	92.62	12.418780	-56.902282	92.60	-0.830	1.300	0.950	92.62	-0.10	1.40	 	 	 	 	 	 	 	 	 	 	 	 	 	 	 	 	 	 	1581527828	8.49	15.72
12/02/2020 17:17:09	120220	12022020	171709	92.66	12.418780	-56.902235	92.66	-0.320	0.110	0.790	92.68	-1.30	1.20	 	 	 	 	 	 	 	 	 	 	 	 	 	 	 	 	 	 	1581527829	9.94	18.41
12/02/2020 17:17:10	120220	12022020	171710	92.80	12.418780	-56.902185	92.80	0.420	-1.120	0.580	92.84	-2.50	1.00	 	 	 	 	 	 	 	 	 	 	 	 	 	 	 	 	 	 	1581527830	10.48	19.41
12/02/2020 17:17:11	120220	12022020	171711	92.98	12.418782	-56.902138	92.99	0.780	-1.560	0.380	93.02	-2.80	0.80	 	 	 	 	 	 	 	 	 	 	 	 	 	 	 	 	 	 	1581527831	10.06	18.63
12/02/2020 17:17:12	120220	12022020	171712	93.11	12.418783	-56.902095	93.08	0.570	-1.050	0.250	93.13	-2.20	0.70	 	 	 	 	 	 	 	 	 	 	 	 	 	 	 	 	 	 	1581527832	9.11	16.87
12/02/2020 17:17:13	120220	12022020	171713	93.16	12.418783	-56.902055	93.14	-0.010	0.070	0.370	93.18	-1.00	0.90	 	 	 	 	 	 	 	 	 	 	 	 	 	 	 	 	 	 	1581527833	8.26	15.30
12/02/2020 17:17:14	120220	12022020	171714	93.18	12.418782	-56.902018	93.15	-0.630	0.980	0.570	93.18	-0.20	1.10	 	 	 	 	 	 	 	 	 	 	 	 	 	 	 	 	 	 	1581527834	7.87	14.58
12/02/2020 17:17:15	120220	12022020	171715	93.08	12.418780	-56.901978	93.02	-0.780	0.550	0.750	93.04	-0.90	1.20	 	 	 	 	 	 	 	 	 	 	 	 	 	 	 	 	 	 	1581527835	8.60	15.93
12/02/2020 17:17:16	120220	12022020	171716	92.76	12.418777	-56.901928	92.67	-0.120	-1.300	1.020	92.68	-2.80	1.50	 	 	 	 	 	 	 	 	 	 	 	 	 	 	 	 	 	 	1581527836	10.47	19.39
12/02/2020 17:17:17	120220	12022020	171717	92.31	12.418773	-56.901875	92.25	0.710	-2.330	1.270	92.25	-3.50	1.70	 	 	 	 	 	 	 	 	 	 	 	 	 	 	 	 	 	 	1581527837	11.44	21.19
12/02/2020 17:17:18	120220	12022020	171718	92.13	12.418772	-56.901830	92.13	0.700	-0.870	1.260	92.13	-1.80	1.70	 	 	 	 	 	 	 	 	 	 	 	 	 	 	 	 	 	 	1581527838	9.37	17.35
12/02/2020 17:17:19	120220	12022020	171719	92.19	12.418772	-56.901797	92.18	-0.240	1.490	1.200	92.20	0.50	1.70	 	 	 	 	 	 	 	 	 	 	 	 	 	 	 	 	 	 	1581527839	6.90	12.78
12/02/2020 17:17:20	120220	12022020	171720	92.15	12.418772	-56.901763	92.11	-1.140	2.240	1.220	92.12	0.90	1.70	 	 	 	 	 	 	 	 	 	 	 	 	 	 	 	 	 	 	1581527840	7.03	13.02
12/02/2020 17:17:21	120220	12022020	171721	92.01	12.418770	-56.901720	91.99	-1.030	0.680	1.130	92.00	-0.90	1.60	 	 	 	 	 	 	 	 	 	 	 	 	 	 	 	 	 	 	1581527841	9.25	17.13
12/02/2020 17:17:22	120220	12022020	171722	92.04	12.418770	-56.901668	92.06	0.060	-1.550	1.030	92.07	-3.00	1.50	 	 	 	 	 	 	 	 	 	 	 	 	 	 	 	 	 	 	1581527842	11.11	20.58
12/02/2020 17:17:23	120220	12022020	171723	92.15	12.418768	-56.901617	92.17	1.140	-2.350	1.200	92.16	-3.50	1.70	 	 	 	 	 	 	 	 	 	 	 	 	 	 	 	 	 	 	1581527843	10.78	19.96
12/02/2020 17:17:24	120220	12022020	171724	92.21	12.418767	-56.901575	92.22	1.320	-1.130	1.250	92.21	-2.10	1.70	 	 	 	 	 	 	 	 	 	 	 	 	 	 	 	 	 	 	1581527844	8.72	16.15
12/02/2020 17:17:25	120220	12022020	171725	92.15	12.418768	-56.901542	92.12	0.610	0.590	1.230	92.11	-0.50	1.70	 	 	 	 	 	 	 	 	 	 	 	 	 	 	 	 	 	 	1581527845	7.17	13.28
12/02/2020 17:17:26	120220	12022020	171726	91.88	12.418770	-56.901507	91.83	-0.280	1.070	1.470	91.82	-0.30	2.00	 	 	 	 	 	 	 	 	 	 	 	 	 	 	 	 	 	 	1581527846	7.58	14.04
12/02/2020 17:17:27	120220	12022020	171727	91.58	12.418770	-56.901462	91.53	-0.640	0.090	1.580	91.54	-1.30	2.00	 	 	 	 	 	 	 	 	 	 	 	 	 	 	 	 	 	 	1581527847	9.27	17.17
12/02/2020 17:17:28	120220	12022020	171728	91.53	12.418770	-56.901413	91.54	-0.440	-0.970	1.250	91.56	-2.30	1.70	 	 	 	 	 	 	 	 	 	 	 	 	 	 	 	 	 	 	1581527848	10.28	19.04
12/02/2020 17:17:29	120220	12022020	171729	91.72	12.418772	-56.901367	91.75	-0.160	-1.050	1.180	91.75	-2.20	1.70	 	 	 	 	 	 	 	 	 	 	 	 	 	 	 	 	 	 	1581527849	9.70	17.96
12/02/2020 17:17:30	120220	12022020	171730	91.82	12.418768	-56.901327	91.81	-0.160	-0.430	1.390	91.80	-1.60	1.90	 	 	 	 	 	 	 	 	 	 	 	 	 	 	 	 	 	 	1581527850	8.61	15.95
12/02/2020 17:17:31	120220	12022020	171731	91.60	12.418767	-56.901287	91.54	-0.240	-0.060	1.400	91.53	-1.30	1.90	 	 	 	 	 	 	 	 	 	 	 	 	 	 	 	 	 	 	1581527851	8.44	15.63
12/02/2020 17:17:32	120220	12022020	171732	91.28	12.418767	-56.901243	91.25	-0.060	-0.150	1.330	91.24	-1.40	1.80	 	 	 	 	 	 	 	 	 	 	 	 	 	 	 	 	 	 	1581527852	9.09	16.83
12/02/2020 17:17:33	120220	12022020	171733	91.18	12.418768	-56.901200	91.17	0.330	-0.240	1.010	91.19	-1.50	1.40	 	 	 	 	 	 	 	 	 	 	 	 	 	 	 	 	 	 	1581527853	9.42	17.45
12/02/2020 17:17:34	120220	12022020	171734	91.35	12.418773	-56.901155	91.37	0.650	-0.170	0.300	91.41	-1.40	0.70	 	 	 	 	 	 	 	 	 	 	 	 	 	 	 	 	 	 	1581527854	9.28	17.19
12/02/2020 17:17:35	120220	12022020	171735	91.65	12.418778	-56.901112	91.67	0.670	-0.130	0.030	91.70	-1.40	0.50	 	 	 	 	 	 	 	 	 	 	 	 	 	 	 	 	 	 	1581527855	9.18	17.00
12/02/2020 17:17:36	120220	12022020	171736	91.87	12.418780	-56.901070	91.88	0.310	0.070	0.360	91.91	-1.10	0.90	 	 	 	 	 	 	 	 	 	 	 	 	 	 	 	 	 	 	1581527856	8.97	16.61
12/02/2020 17:17:37	120220	12022020	171737	91.97	12.418778	-56.901030	91.94	-0.230	0.420	0.830	91.97	-0.80	1.40	 	 	 	 	 	 	 	 	 	 	 	 	 	 	 	 	 	 	1581527857	8.43	15.61
12/02/2020 17:17:38	120220	12022020	171738	91.91	12.418775	-56.900990	91.88	-0.430	0.120	1.320	91.89	-1.20	1.80	 	 	 	 	 	 	 	 	 	 	 	 	 	 	 	 	 	 	1581527858	8.53	15.80
12/02/2020 17:17:39	120220	12022020	171739	91.83	12.418773	-56.900945	91.82	-0.050	-1.000	1.440	91.84	-2.40	1.90	 	 	 	 	 	 	 	 	 	 	 	 	 	 	 	 	 	 	1581527859	9.66	17.89
12/02/2020 17:17:40	120220	12022020	171740	91.95	12.418775	-56.900897	91.97	0.380	-1.700	1.240	91.98	-2.90	1.70	 	 	 	 	 	 	 	 	 	 	 	 	 	 	 	 	 	 	1581527860	10.21	18.91
12/02/2020 17:17:41	120220	12022020	171741	92.03	12.418775	-56.900852	92.02	0.300	-1.240	1.410	92.02	-2.40	1.90	 	 	 	 	 	 	 	 	 	 	 	 	 	 	 	 	 	 	1581527861	9.36	17.33
12/02/2020 17:17:42	120220	12022020	171742	91.88	12.418773	-56.900813	91.83	-0.190	-0.150	1.540	91.84	-1.30	2.00	 	 	 	 	 	 	 	 	 	 	 	 	 	 	 	 	 	 	1581527862	8.30	15.37
12/02/2020 17:17:43	120220	12022020	171743	91.65	12.418773	-56.900773	91.60	-0.530	0.600	1.310	91.62	-0.60	1.70	 	 	 	 	 	 	 	 	 	 	 	 	 	 	 	 	 	 	1581527863	8.21	15.20
12/02/2020 17:17:44	120220	12022020	171744	91.51	12.418775	-56.900732	91.47	-0.320	0.490	0.840	91.50	-0.80	1.20	 	 	 	 	 	 	 	 	 	 	 	 	 	 	 	 	 	 	1581527864	9.00	16.67
12/02/2020 17:17:45	120220	12022020	171745	91.57	12.418778	-56.900685	91.57	0.260	-0.190	0.280	91.60	-1.50	0.70	 	 	 	 	 	 	 	 	 	 	 	 	 	 	 	 	 	 	1581527865	9.90	18.33
12/02/2020 17:17:46	120220	12022020	171746	91.84	12.418782	-56.900637	91.87	0.670	-0.580	-0.050	91.91	-1.80	0.40	 	 	 	 	 	 	 	 	 	 	 	 	 	 	 	 	 	 	1581527866	10.09	18.69
12/02/2020 17:17:47	120220	12022020	171747	92.22	12.418783	-56.900593	92.25	0.400	-0.090	-0.000	92.29	-1.20	0.50	 	 	 	 	 	 	 	 	 	 	 	 	 	 	 	 	 	 	1581527867	9.14	16.93
12/02/2020 17:17:48	120220	12022020	171748	92.47	12.418783	-56.900557	92.46	-0.360	0.720	0.420	92.49	-0.50	1.00	 	 	 	 	 	 	 	 	 	 	 	 	 	 	 	 	 	 	1581527868	8.00	14.82
12/02/2020 17:17:49	120220	12022020	171749	92.42	12.418780	-56.900518	92.38	-0.860	0.670	1.120	92.38	-0.70	1.70	 	 	 	 	 	 	 	 	 	 	 	 	 	 	 	 	 	 	1581527869	8.06	14.93
12/02/2020 17:17:50	120220	12022020	171750	92.20	12.418777	-56.900473	92.17	-0.520	-0.640	1.630	92.15	-2.10	2.10	 	 	 	 	 	 	 	 	 	 	 	 	 	 	 	 	 	 	1581527870	9.41	17.43
12/02/2020 17:17:51	120220	12022020	171751	91.93	12.418773	-56.900423	91.87	0.500	-2.150	1.710	91.86	-3.50	2.20	 	 	 	 	 	 	 	 	 	 	 	 	 	 	 	 	 	 	1581527871	10.60	19.63
12/02/2020 17:17:52	120220	12022020	171752	91.61	12.418775	-56.900375	91.59	1.260	-2.210	1.550	91.57	-3.30	2.00	 	 	 	 	 	 	 	 	 	 	 	 	 	 	 	 	 	 	1581527872	10.30	19.08
12/02/2020 17:17:53	120220	12022020	171753	91.52	12.418778	-56.900335	91.54	1.010	-0.550	1.390	91.53	-1.50	1.80	 	 	 	 	 	 	 	 	 	 	 	 	 	 	 	 	 	 	1581527873	8.54	15.82
12/02/2020 17:17:54	120220	12022020	171754	91.63	12.418780	-56.900300	91.65	-0.030	1.220	1.140	91.66	0.10	1.60	 	 	 	 	 	 	 	 	 	 	 	 	 	 	 	 	 	 	1581527874	7.30	13.52
12/02/2020 17:17:55	120220	12022020	171755	91.75	12.418782	-56.900262	91.76	-0.970	1.570	0.850	91.77	0.30	1.30	 	 	 	 	 	 	 	 	 	 	 	 	 	 	 	 	 	 	1581527875	8.02	14.85
12/02/2020 17:17:56	120220	12022020	171756	91.87	12.418782	-56.900217	91.88	-1.250	0.720	0.630	91.91	-0.70	1.10	 	 	 	 	 	 	 	 	 	 	 	 	 	 	 	 	 	 	1581527876	9.45	17.50
12/02/2020 17:17:57	120220	12022020	171757	92.19	12.418782	-56.900170	92.25	-0.800	-0.420	0.460	92.27	-1.80	0.90	 	 	 	 	 	 	 	 	 	 	 	 	 	 	 	 	 	 	1581527877	10.01	18.54
12/02/2020 17:17:58	120220	12022020	171758	92.60	12.418780	-56.900123	92.62	0.080	-1.360	0.500	92.65	-2.70	1.00	 	 	 	 	 	 	 	 	 	 	 	 	 	 	 	 	 	 	1581527878	9.98	18.48
12/02/2020 17:17:59	120220	12022020	171759	92.69	12.418778	-56.900077	92.65	0.820	-1.660	0.690	92.66	-2.90	1.20	 	 	 	 	 	 	 	 	 	 	 	 	 	 	 	 	 	 	1581527879	9.76	18.08
12/02/2020 17:18:00	120220	12022020	171800	92.42	12.418780	-56.900033	92.33	0.990	-1.030	0.950	92.33	-2.10	1.50	 	 	 	 	 	 	 	 	 	 	 	 	 	 	 	 	 	 	1581527880	9.07	16.80
12/02/2020 17:18:01	120220	12022020	171801	91.95	12.418780	-56.899995	91.87	0.550	0.140	1.370	91.86	-1.00	1.90	 	 	 	 	 	 	 	 	 	 	 	 	 	 	 	 	 	 	1581527881	8.29	15.35
12/02/2020 17:18:02	120220	12022020	171802	91.68	12.418782	-56.899955	91.68	-0.080	0.880	1.340	91.68	-0.40	1.70	1015.60	26.60	26.70	20.50	20.60	897.0	69.0	69.0	393.0	28.8	349.00	16.00	76.00	11.50	65416	10651.0	27.4	27.4	1581527882	8.19	15.17
12/02/2020 17:18:03	120220	12022020	171803	91.82	12.418785	-56.899913	91.87	-0.430	0.550	0.790	91.88	-0.80	1.20	 	 	 	 	 	 	 	 	 	 	 	 	 	 	 	 	 	 	1581527883	9.03	16.72
12/02/2020 17:18:04	120220	12022020	171804	92.18	12.418787	-56.899865	92.22	-0.340	-0.380	0.340	92.25	-1.70	0.80	 	 	 	 	 	 	 	 	 	 	 	 	 	 	 	 	 	 	1581527884	10.01	18.54
12/02/2020 17:18:05	120220	12022020	171805	92.58	12.418787	-56.899818	92.61	-0.080	-0.790	0.350	92.64	-2.00	0.80	 	 	 	 	 	 	 	 	 	 	 	 	 	 	 	 	 	 	1581527885	10.02	18.56
12/02/2020 17:18:06	120220	12022020	171806	92.68	12.418783	-56.899775	92.63	-0.070	-0.300	0.780	92.64	-1.50	1.30	 	 	 	 	 	 	 	 	 	 	 	 	 	 	 	 	 	 	1581527886	9.02	16.71
12/02/2020 17:18:07	120220	12022020	171807	92.25	12.418782	-56.899737	92.12	-0.330	0.260	1.110	92.12	-1.00	1.60	 	 	 	 	 	 	 	 	 	 	 	 	 	 	 	 	 	 	1581527887	8.20	15.19
12/02/2020 17:18:08	120220	12022020	171808	91.60	12.418782	-56.899697	91.50	-0.400	-0.060	1.140	91.49	-1.40	1.60	 	 	 	 	 	 	 	 	 	 	 	 	 	 	 	 	 	 	1581527888	8.71	16.13
12/02/2020 17:18:09	120220	12022020	171809	91.32	12.418783	-56.899648	91.30	0.060	-1.050	0.870	91.34	-2.40	1.30	 	 	 	 	 	 	 	 	 	 	 	 	 	 	 	 	 	 	1581527889	9.96	18.45
12/02/2020 17:18:10	120220	12022020	171810	91.61	12.418787	-56.899600	91.65	0.640	-1.500	0.310	91.70	-2.70	0.70	 	 	 	 	 	 	 	 	 	 	 	 	 	 	 	 	 	 	1581527890	10.28	19.04
12/02/2020 17:18:11	120220	12022020	171811	91.94	12.418790	-56.899557	91.92	0.740	-0.940	0.010	91.96	-2.10	0.50	 	 	 	 	 	 	 	 	 	 	 	 	 	 	 	 	 	 	1581527891	9.39	17.39
12/02/2020 17:18:12	120220	12022020	171812	91.85	12.418790	-56.899517	91.77	0.330	0.200	0.420	91.80	-0.90	0.90	 	 	 	 	 	 	 	 	 	 	 	 	 	 	 	 	 	 	1581527892	8.42	15.59
12/02/2020 17:18:13	120220	12022020	171813	91.64	12.418788	-56.899478	91.61	-0.250	1.130	0.900	91.63	-0.10	1.40	 	 	 	 	 	 	 	 	 	 	 	 	 	 	 	 	 	 	1581527893	8.13	15.06
12/02/2020 17:18:14	120220	12022020	171814	91.64	12.418788	-56.899437	91.64	-0.660	1.150	1.000	91.66	-0.20	1.40	 	 	 	 	 	 	 	 	 	 	 	 	 	 	 	 	 	 	1581527894	8.54	15.82
12/02/2020 17:18:15	120220	12022020	171815	91.78	12.418790	-56.899392	91.79	-0.640	0.070	0.740	91.82	-1.40	1.20	 	 	 	 	 	 	 	 	 	 	 	 	 	 	 	 	 	 	1581527895	9.54	17.67
12/02/2020 17:18:16	120220	12022020	171816	91.97	12.418793	-56.899343	91.96	-0.120	-1.330	0.520	91.99	-2.70	1.00	 	 	 	 	 	 	 	 	 	 	 	 	 	 	 	 	 	 	1581527896	10.42	19.30
12/02/2020 17:18:17	120220	12022020	171817	91.98	12.418793	-56.899295	91.97	0.470	-1.790	0.670	91.97	-3.00	1.20	 	 	 	 	 	 	 	 	 	 	 	 	 	 	 	 	 	 	1581527897	10.24	18.96
12/02/2020 17:18:18	120220	12022020	171818	91.91	12.418793	-56.899252	91.91	0.550	-1.040	1.080	91.89	-2.10	1.60	 	 	 	 	 	 	 	 	 	 	 	 	 	 	 	 	 	 	1581527898	9.01	16.69
12/02/2020 17:18:19	120220	12022020	171819	91.79	12.418792	-56.899213	91.78	0.150	0.010	1.300	91.76	-1.10	1.70	 	 	 	 	 	 	 	 	 	 	 	 	 	 	 	 	 	 	1581527899	8.18	15.15
12/02/2020 17:18:20	120220	12022020	171820	91.75	12.418793	-56.899173	91.79	-0.260	0.540	1.040	91.80	-0.70	1.40	 	 	 	 	 	 	 	 	 	 	 	 	 	 	 	 	 	 	1581527900	8.51	15.76
12/02/2020 17:18:21	120220	12022020	171821	92.09	12.418795	-56.899130	92.18	-0.410	0.560	0.630	92.20	-0.70	1.00	 	 	 	 	 	 	 	 	 	 	 	 	 	 	 	 	 	 	1581527901	9.07	16.80
12/02/2020 17:18:22	120220	12022020	171822	92.61	12.418797	-56.899085	92.65	-0.190	0.070	0.180	92.69	-1.30	0.60	 	 	 	 	 	 	 	 	 	 	 	 	 	 	 	 	 	 	1581527902	9.45	17.50
12/02/2020 17:18:23	120220	12022020	171823	92.85	12.418798	-56.899038	92.80	0.290	-0.670	0.040	92.85	-2.00	0.50	 	 	 	 	 	 	 	 	 	 	 	 	 	 	 	 	 	 	1581527903	9.91	18.35
12/02/2020 17:18:24	120220	12022020	171824	92.80	12.418798	-56.898992	92.76	0.540	-0.880	0.300	92.79	-2.10	0.80	 	 	 	 	 	 	 	 	 	 	 	 	 	 	 	 	 	 	1581527904	9.80	18.15
12/02/2020 17:18:25	120220	12022020	171825	92.82	12.418800	-56.898950	92.82	0.250	-0.380	0.620	92.85	-1.50	1.10	 	 	 	 	 	 	 	 	 	 	 	 	 	 	 	 	 	 	1581527905	9.00	16.67
12/02/2020 17:18:26	120220	12022020	171826	93.01	12.418798	-56.898910	93.02	-0.360	0.160	0.740	93.05	-1.00	1.20	 	 	 	 	 	 	 	 	 	 	 	 	 	 	 	 	 	 	1581527906	8.47	15.69
12/02/2020 17:18:27	120220	12022020	171827	93.23	12.418798	-56.898868	93.25	-0.700	0.160	0.540	93.29	-1.10	0.90	 	 	 	 	 	 	 	 	 	 	 	 	 	 	 	 	 	 	1581527907	8.79	16.28
12/02/2020 17:18:28	120220	12022020	171828	93.58	12.418797	-56.898823	93.60	-0.440	-0.330	0.280	93.65	-1.60	0.70	 	 	 	 	 	 	 	 	 	 	 	 	 	 	 	 	 	 	1581527908	9.47	17.54
12/02/2020 17:18:29	120220	12022020	171829	93.85	12.418797	-56.898777	93.82	0.230	-0.880	0.230	93.86	-2.20	0.70	 	 	 	 	 	 	 	 	 	 	 	 	 	 	 	 	 	 	1581527909	9.81	18.17
12/02/2020 17:18:30	120220	12022020	171830	93.64	12.418797	-56.898730	93.52	0.830	-1.170	0.470	93.54	-2.40	1.00	 	 	 	 	 	 	 	 	 	 	 	 	 	 	 	 	 	 	1581527910	9.87	18.28
12/02/2020 17:18:31	120220	12022020	171831	93.15	12.418795	-56.898685	93.06	0.710	-0.720	0.910	93.08	-1.80	1.40	 	 	 	 	 	 	 	 	 	 	 	 	 	 	 	 	 	 	1581527911	9.55	17.69
12/02/2020 17:18:32	120220	12022020	171832	92.99	12.418793	-56.898645	92.99	-0.130	0.360	1.250	93.02	-0.70	1.70	 	 	 	 	 	 	 	 	 	 	 	 	 	 	 	 	 	 	1581527912	8.55	15.83
12/02/2020 17:18:33	120220	12022020	171833	93.23	12.418790	-56.898607	93.25	-0.910	1.090	1.210	93.30	-0.20	1.60	 	 	 	 	 	 	 	 	 	 	 	 	 	 	 	 	 	 	1581527913	8.12	15.04
12/02/2020 17:18:34	120220	12022020	171834	93.53	12.418788	-56.898563	93.50	-0.740	0.450	0.910	93.57	-1.00	1.30	 	 	 	 	 	 	 	 	 	 	 	 	 	 	 	 	 	 	1581527914	9.07	16.80
12/02/2020 17:18:35	120220	12022020	171835	93.59	12.418787	-56.898513	93.52	0.140	-0.910	0.690	93.57	-2.30	1.10	 	 	 	 	 	 	 	 	 	 	 	 	 	 	 	 	 	 	1581527915	10.53	19.50
12/02/2020 17:18:36	120220	12022020	171836	93.52	12.418787	-56.898463	93.47	0.840	-1.430	0.780	93.53	-2.60	1.30	 	 	 	 	 	 	 	 	 	 	 	 	 	 	 	 	 	 	1581527916	10.58	19.59
12/02/2020 17:18:37	120220	12022020	171837	93.62	12.418785	-56.898422	93.61	0.690	-0.450	1.040	93.65	-1.50	1.50	 	 	 	 	 	 	 	 	 	 	 	 	 	 	 	 	 	 	1581527917	9.00	16.67
12/02/2020 17:18:38	120220	12022020	171838	93.75	12.418785	-56.898385	93.71	-0.110	0.770	1.100	93.75	-0.40	1.50	 	 	 	 	 	 	 	 	 	 	 	 	 	 	 	 	 	 	1581527918	7.60	14.08
12/02/2020 17:18:39	120220	12022020	171839	93.62	12.418783	-56.898345	93.53	-0.670	0.500	1.190	93.55	-0.90	1.70	 	 	 	 	 	 	 	 	 	 	 	 	 	 	 	 	 	 	1581527919	8.34	15.45
12/02/2020 17:18:40	120220	12022020	171840	93.26	12.418778	-56.898297	93.17	-0.450	-0.890	1.550	93.18	-2.30	2.00	 	 	 	 	 	 	 	 	 	 	 	 	 	 	 	 	 	 	1581527920	10.29	19.06
12/02/2020 17:18:41	120220	12022020	171841	92.94	12.418773	-56.898247	92.89	0.100	-1.450	1.610	92.91	-2.60	2.00	 	 	 	 	 	 	 	 	 	 	 	 	 	 	 	 	 	 	1581527921	10.65	19.72
12/02/2020 17:18:42	120220	12022020	171842	92.88	12.418772	-56.898205	92.84	0.300	-0.490	1.200	92.88	-1.60	1.60	 	 	 	 	 	 	 	 	 	 	 	 	 	 	 	 	 	 	1581527922	8.99	16.65
12/02/2020 17:18:43	120220	12022020	171843	92.85	12.418773	-56.898168	92.79	0.090	0.670	0.870	92.83	-0.50	1.30	 	 	 	 	 	 	 	 	 	 	 	 	 	 	 	 	 	 	1581527923	7.80	14.45
12/02/2020 17:18:44	120220	12022020	171844	92.68	12.418775	-56.898128	92.60	-0.060	0.640	0.890	92.64	-0.70	1.40	 	 	 	 	 	 	 	 	 	 	 	 	 	 	 	 	 	 	1581527924	8.36	15.48
12/02/2020 17:18:45	120220	12022020	171845	92.53	12.418777	-56.898082	92.49	0.070	-0.440	0.920	92.52	-1.80	1.40	 	 	 	 	 	 	 	 	 	 	 	 	 	 	 	 	 	 	1581527925	9.86	18.26
12/02/2020 17:18:46	120220	12022020	171846	92.55	12.418775	-56.898032	92.56	0.300	-1.430	1.010	92.58	-2.70	1.50	 	 	 	 	 	 	 	 	 	 	 	 	 	 	 	 	 	 	1581527926	10.51	19.46
12/02/2020 17:18:47	120220	12022020	171847	92.65	12.418773	-56.897985	92.65	0.320	-1.290	1.340	92.66	-2.40	1.80	 	 	 	 	 	 	 	 	 	 	 	 	 	 	 	 	 	 	1581527927	9.88	18.30
12/02/2020 17:18:48	120220	12022020	171848	92.60	12.418768	-56.897945	92.58	0.000	-0.000	1.710	92.58	-1.10	2.20	 	 	 	 	 	 	 	 	 	 	 	 	 	 	 	 	 	 	1581527928	8.47	15.69
12/02/2020 17:18:49	120220	12022020	171849	92.51	12.418767	-56.897910	92.50	-0.480	1.130	1.660	92.51	-0.10	2.10	 	 	 	 	 	 	 	 	 	 	 	 	 	 	 	 	 	 	1581527929	7.66	14.19
12/02/2020 17:18:50	120220	12022020	171850	92.55	12.418767	-56.897870	92.54	-0.610	0.930	1.200	92.57	-0.40	1.60	 	 	 	 	 	 	 	 	 	 	 	 	 	 	 	 	 	 	1581527930	8.45	15.65
12/02/2020 17:18:51	120220	12022020	171851	92.71	12.418768	-56.897823	92.71	-0.230	-0.220	0.710	92.75	-1.60	1.10	 	 	 	 	 	 	 	 	 	 	 	 	 	 	 	 	 	 	1581527931	9.88	18.30
12/02/2020 17:18:52	120220	12022020	171852	92.85	12.418770	-56.897775	92.84	0.220	-1.050	0.420	92.86	-2.30	0.90	 	 	 	 	 	 	 	 	 	 	 	 	 	 	 	 	 	 	1581527932	10.18	18.85
12/02/2020 17:18:53	120220	12022020	171853	92.80	12.418772	-56.897730	92.75	0.360	-1.170	0.440	92.76	-2.40	0.90	 	 	 	 	 	 	 	 	 	 	 	 	 	 	 	 	 	 	1581527933	9.44	17.48
12/02/2020 17:18:54	120220	12022020	171854	92.55	12.418772	-56.897688	92.48	0.270	-0.930	0.660	92.49	-2.10	1.10	 	 	 	 	 	 	 	 	 	 	 	 	 	 	 	 	 	 	1581527934	8.91	16.50
12/02/2020 17:18:55	120220	12022020	171855	92.29	12.418770	-56.897645	92.25	0.300	-0.730	0.890	92.25	-1.90	1.40	 	 	 	 	 	 	 	 	 	 	 	 	 	 	 	 	 	 	1581527935	9.06	16.78
12/02/2020 17:18:56	120220	12022020	171856	92.26	12.418770	-56.897602	92.29	0.330	-0.300	1.010	92.29	-1.50	1.50	 	 	 	 	 	 	 	 	 	 	 	 	 	 	 	 	 	 	1581527936	9.27	17.17
12/02/2020 17:18:57	120220	12022020	171857	92.53	12.418768	-56.897560	92.60	0.020	0.440	0.870	92.61	-0.70	1.30	 	 	 	 	 	 	 	 	 	 	 	 	 	 	 	 	 	 	1581527937	8.85	16.39
12/02/2020 17:18:58	120220	12022020	171858	92.82	12.418768	-56.897518	92.82	-0.520	0.920	0.670	92.84	-0.30	1.10	 	 	 	 	 	 	 	 	 	 	 	 	 	 	 	 	 	 	1581527938	8.51	15.76
12/02/2020 17:18:59	120220	12022020	171859	92.68	12.418767	-56.897477	92.59	-0.790	0.560	0.820	92.59	-0.80	1.30	 	 	 	 	 	 	 	 	 	 	 	 	 	 	 	 	 	 	1581527939	8.88	16.45
12/02/2020 17:19:00	120220	12022020	171900	92.23	12.418765	-56.897430	92.17	-0.480	-0.490	1.140	92.17	-1.90	1.60	 	 	 	 	 	 	 	 	 	 	 	 	 	 	 	 	 	 	1581527940	9.82	18.19
12/02/2020 17:19:01	120220	12022020	171901	92.14	12.418765	-56.897383	92.17	0.040	-1.170	1.080	92.19	-2.40	1.50	 	 	 	 	 	 	 	 	 	 	 	 	 	 	 	 	 	 	1581527941	10.13	18.76
12/02/2020 17:19:02	120220	12022020	171902	92.38	12.418765	-56.897338	92.40	0.290	-1.060	0.720	92.42	-2.30	1.10	1015.50	26.60	26.70	20.40	20.50	897.0	69.0	69.0	392.0	28.8	350.00	15.90	78.00	11.30	65402	8260.0	27.4	27.4	1581527942	9.39	17.39
12/02/2020 17:19:03	120220	12022020	171903	92.40	12.418765	-56.897297	92.34	0.320	-0.690	0.820	92.35	-1.90	1.30	 	 	 	 	 	 	 	 	 	 	 	 	 	 	 	 	 	 	1581527943	8.82	16.33
12/02/2020 17:19:04	120220	12022020	171904	92.02	12.418762	-56.897253	91.95	0.420	-0.360	1.220	91.93	-1.60	1.70	 	 	 	 	 	 	 	 	 	 	 	 	 	 	 	 	 	 	1581527944	9.00	16.67
12/02/2020 17:19:05	120220	12022020	171905	91.71	12.418762	-56.897210	91.69	0.480	0.020	1.100	91.70	-1.20	1.50	 	 	 	 	 	 	 	 	 	 	 	 	 	 	 	 	 	 	1581527945	9.11	16.87
12/02/2020 17:19:06	120220	12022020	171906	91.76	12.418765	-56.897167	91.78	0.280	0.190	0.850	91.80	-1.10	1.30	 	 	 	 	 	 	 	 	 	 	 	 	 	 	 	 	 	 	1581527946	9.20	17.04
12/02/2020 17:19:07	120220	12022020	171907	91.92	12.418767	-56.897123	91.92	-0.240	0.250	1.000	91.94	-1.00	1.50	 	 	 	 	 	 	 	 	 	 	 	 	 	 	 	 	 	 	1581527947	9.25	17.13
12/02/2020 17:19:08	120220	12022020	171908	91.96	12.418763	-56.897082	91.92	-0.820	0.320	1.310	91.94	-0.90	1.80	 	 	 	 	 	 	 	 	 	 	 	 	 	 	 	 	 	 	1581527948	8.99	16.65
12/02/2020 17:19:09	120220	12022020	171909	91.81	12.418760	-56.897038	91.76	-0.900	-0.030	1.550	91.76	-1.40	2.00	 	 	 	 	 	 	 	 	 	 	 	 	 	 	 	 	 	 	1581527949	8.95	16.58
12/02/2020 17:19:10	120220	12022020	171910	91.65	12.418758	-56.896992	91.62	-0.160	-1.180	1.570	91.63	-2.60	2.00	 	 	 	 	 	 	 	 	 	 	 	 	 	 	 	 	 	 	1581527950	9.88	18.30
12/02/2020 17:19:11	120220	12022020	171911	91.45	12.418757	-56.896942	91.38	0.820	-2.030	1.570	91.37	-3.30	2.00	 	 	 	 	 	 	 	 	 	 	 	 	 	 	 	 	 	 	1581527951	10.71	19.83
12/02/2020 17:19:12	120220	12022020	171912	91.07	12.418758	-56.896895	91.00	1.080	-1.200	1.180	91.01	-2.20	1.60	 	 	 	 	 	 	 	 	 	 	 	 	 	 	 	 	 	 	1581527952	9.80	18.15
12/02/2020 17:19:13	120220	12022020	171913	90.86	12.418763	-56.896858	90.85	0.290	0.800	0.790	90.86	-0.20	1.20	 	 	 	 	 	 	 	 	 	 	 	 	 	 	 	 	 	 	1581527953	7.95	14.72
12/02/2020 17:19:14	120220	12022020	171914	91.07	12.418767	-56.896823	91.15	-0.900	2.140	0.740	91.18	0.90	1.20	 	 	 	 	 	 	 	 	 	 	 	 	 	 	 	 	 	 	1581527954	7.21	13.35
12/02/2020 17:19:15	120220	12022020	171915	91.70	12.418767	-56.896785	91.78	-1.500	1.640	0.690	91.82	0.20	1.10	 	 	 	 	 	 	 	 	 	 	 	 	 	 	 	 	 	 	1581527955	8.25	15.28
12/02/2020 17:19:16	120220	12022020	171916	92.06	12.418765	-56.896737	92.03	-0.910	-0.610	0.740	92.05	-2.20	1.20	 	 	 	 	 	 	 	 	 	 	 	 	 	 	 	 	 	 	1581527956	10.17	18.83
12/02/2020 17:19:17	120220	12022020	171917	91.73	12.418762	-56.896682	91.63	0.500	-2.880	1.320	91.61	-4.30	1.90	 	 	 	 	 	 	 	 	 	 	 	 	 	 	 	 	 	 	1581527957	11.57	21.43
12/02/2020 17:19:18	120220	12022020	171918	91.23	12.418758	-56.896632	91.21	1.490	-3.000	1.900	91.19	-4.00	2.30	 	 	 	 	 	 	 	 	 	 	 	 	 	 	 	 	 	 	1581527958	10.86	20.11
12/02/2020 17:19:19	120220	12022020	171919	91.31	12.418758	-56.896592	91.38	1.170	-0.680	1.610	91.39	-1.60	1.90	 	 	 	 	 	 	 	 	 	 	 	 	 	 	 	 	 	 	1581527959	8.21	15.20
12/02/2020 17:19:20	120220	12022020	171920	91.84	12.418763	-56.896562	91.88	-0.070	1.860	0.800	91.94	0.80	1.20	 	 	 	 	 	 	 	 	 	 	 	 	 	 	 	 	 	 	1581527960	6.51	12.06
12/02/2020 17:19:21	120220	12022020	171921	92.27	12.418768	-56.896527	92.25	-1.040	2.470	0.290	92.32	1.10	0.70	 	 	 	 	 	 	 	 	 	 	 	 	 	 	 	 	 	 	1581527961	7.30	13.52
12/02/2020 17:19:22	120220	12022020	171922	92.42	12.418770	-56.896483	92.36	-0.980	1.020	0.340	92.42	-0.50	0.80	 	 	 	 	 	 	 	 	 	 	 	 	 	 	 	 	 	 	1581527962	9.39	17.39
12/02/2020 17:19:23	120220	12022020	171923	92.41	12.418770	-56.896432	92.34	-0.170	-1.050	0.510	92.40	-2.50	1.00	 	 	 	 	 	 	 	 	 	 	 	 	 	 	 	 	 	 	1581527963	10.81	20.02
12/02/2020 17:19:24	120220	12022020	171924	92.37	12.418768	-56.896382	92.34	0.540	-2.190	0.700	92.37	-3.50	1.20	 	 	 	 	 	 	 	 	 	 	 	 	 	 	 	 	 	 	1581527964	10.64	19.71
12/02/2020 17:19:25	120220	12022020	171925	92.31	12.418767	-56.896337	92.28	0.560	-1.860	1.000	92.29	-3.00	1.50	 	 	 	 	 	 	 	 	 	 	 	 	 	 	 	 	 	 	1581527965	9.41	17.43
12/02/2020 17:19:26	120220	12022020	171926	92.15	12.418763	-56.896298	92.12	0.020	-0.580	1.230	92.12	-1.70	1.70	 	 	 	 	 	 	 	 	 	 	 	 	 	 	 	 	 	 	1581527966	8.19	15.17
12/02/2020 17:19:27	120220	12022020	171927	91.97	12.418762	-56.896262	91.93	-0.490	0.690	1.190	91.93	-0.50	1.60	 	 	 	 	 	 	 	 	 	 	 	 	 	 	 	 	 	 	1581527967	7.72	14.30
12/02/2020 17:19:28	120220	12022020	171928	91.85	12.418762	-56.896223	91.84	-0.480	1.040	0.800	91.85	-0.30	1.20	 	 	 	 	 	 	 	 	 	 	 	 	 	 	 	 	 	 	1581527968	8.19	15.17
12/02/2020 17:19:29	120220	12022020	171929	91.93	12.418765	-56.896178	91.95	-0.070	0.330	0.250	91.98	-1.10	0.60	 	 	 	 	 	 	 	 	 	 	 	 	 	 	 	 	 	 	1581527969	9.45	17.50
12/02/2020 17:19:30	120220	12022020	171930	92.23	12.418768	-56.896132	92.25	0.220	-0.600	0.020	92.28	-2.00	0.50	 	 	 	 	 	 	 	 	 	 	 	 	 	 	 	 	 	 	1581527970	10.03	18.58
12/02/2020 17:19:31	120220	12022020	171931	92.41	12.418767	-56.896085	92.39	0.230	-1.100	0.350	92.41	-2.40	0.90	 	 	 	 	 	 	 	 	 	 	 	 	 	 	 	 	 	 	1581527971	9.77	18.09
12/02/2020 17:19:32	120220	12022020	171932	92.23	12.418762	-56.896042	92.15	0.230	-0.900	0.880	92.14	-2.10	1.40	 	 	 	 	 	 	 	 	 	 	 	 	 	 	 	 	 	 	1581527972	9.20	17.04
12/02/2020 17:19:33	120220	12022020	171933	91.72	12.418758	-56.896000	91.63	0.410	-0.440	1.290	91.63	-1.60	1.70	 	 	 	 	 	 	 	 	 	 	 	 	 	 	 	 	 	 	1581527973	8.77	16.24
12/02/2020 17:19:34	120220	12022020	171934	91.39	12.418760	-56.895958	91.38	0.500	-0.000	1.150	91.38	-1.20	1.50	 	 	 	 	 	 	 	 	 	 	 	 	 	 	 	 	 	 	1581527974	8.87	16.43
12/02/2020 17:19:35	120220	12022020	171935	91.54	12.418763	-56.895917	91.60	0.210	0.430	0.860	91.62	-0.80	1.30	 	 	 	 	 	 	 	 	 	 	 	 	 	 	 	 	 	 	1581527975	8.81	16.32
12/02/2020 17:19:36	120220	12022020	171936	91.96	12.418765	-56.895877	92.01	-0.350	0.640	0.870	92.03	-0.60	1.30	 	 	 	 	 	 	 	 	 	 	 	 	 	 	 	 	 	 	1581527976	8.54	15.82
12/02/2020 17:19:37	120220	12022020	171937	92.17	12.418763	-56.895835	92.16	-0.780	0.210	1.160	92.15	-1.20	1.60	 	 	 	 	 	 	 	 	 	 	 	 	 	 	 	 	 	 	1581527977	8.82	16.33
12/02/2020 17:19:38	120220	12022020	171938	91.86	12.418758	-56.895790	91.78	-0.590	-0.940	1.650	91.75	-2.40	2.10	 	 	 	 	 	 	 	 	 	 	 	 	 	 	 	 	 	 	1581527978	9.63	17.83
12/02/2020 17:19:39	120220	12022020	171939	91.32	12.418753	-56.895740	91.28	0.280	-2.040	1.960	91.24	-3.40	2.40	 	 	 	 	 	 	 	 	 	 	 	 	 	 	 	 	 	 	1581527979	10.45	19.35
12/02/2020 17:19:40	120220	12022020	171940	91.03	12.418753	-56.895693	91.07	1.030	-1.790	1.780	91.03	-2.90	2.10	 	 	 	 	 	 	 	 	 	 	 	 	 	 	 	 	 	 	1581527980	10.04	18.59
12/02/2020 17:19:41	120220	12022020	171941	91.28	12.418757	-56.895653	91.38	0.750	-0.030	1.060	91.37	-1.00	1.40	 	 	 	 	 	 	 	 	 	 	 	 	 	 	 	 	 	 	1581527981	8.41	15.58
12/02/2020 17:19:42	120220	12022020	171942	91.82	12.418760	-56.895620	91.94	-0.390	1.900	0.550	91.93	0.80	1.00	 	 	 	 	 	 	 	 	 	 	 	 	 	 	 	 	 	 	1581527982	7.05	13.06
12/02/2020 17:19:43	120220	12022020	171943	92.27	12.418760	-56.895587	92.32	-1.280	2.250	0.670	92.32	0.80	1.10	 	 	 	 	 	 	 	 	 	 	 	 	 	 	 	 	 	 	1581527983	7.25	13.43
12/02/2020 17:19:44	120220	12022020	171944	92.34	12.418757	-56.895542	92.31	-0.850	0.100	0.760	92.30	-1.50	1.20	 	 	 	 	 	 	 	 	 	 	 	 	 	 	 	 	 	 	1581527984	9.51	17.61
12/02/2020 17:19:45	120220	12022020	171945	92.04	12.418755	-56.895485	91.97	0.500	-2.550	0.820	91.97	-4.00	1.30	 	 	 	 	 	 	 	 	 	 	 	 	 	 	 	 	 	 	1581527985	11.68	21.63
12/02/2020 17:19:46	120220	12022020	171946	91.79	12.418755	-56.895435	91.80	1.300	-2.750	1.040	91.79	-3.80	1.50	 	 	 	 	 	 	 	 	 	 	 	 	 	 	 	 	 	 	1581527986	10.80	20.00
12/02/2020 17:19:47	120220	12022020	171947	91.97	12.418757	-56.895398	92.06	0.820	-0.530	0.910	92.06	-1.40	1.30	 	 	 	 	 	 	 	 	 	 	 	 	 	 	 	 	 	 	1581527987	7.71	14.28
12/02/2020 17:19:48	120220	12022020	171948	92.48	12.418758	-56.895368	92.55	-0.330	1.550	0.610	92.58	0.40	1.00	 	 	 	 	 	 	 	 	 	 	 	 	 	 	 	 	 	 	1581527988	6.23	11.54
12/02/2020 17:19:49	120220	12022020	171949	92.81	12.418757	-56.895332	92.79	-0.830	1.360	0.720	92.82	-0.10	1.20	 	 	 	 	 	 	 	 	 	 	 	 	 	 	 	 	 	 	1581527989	7.69	14.24
12/02/2020 17:19:50	120220	12022020	171950	92.62	12.418753	-56.895285	92.53	-0.350	-0.300	1.210	92.54	-1.70	1.70	 	 	 	 	 	 	 	 	 	 	 	 	 	 	 	 	 	 	1581527990	10.22	18.93
12/02/2020 17:19:51	120220	12022020	171951	92.25	12.418750	-56.895235	92.18	0.200	-1.150	1.460	92.19	-2.40	1.90	 	 	 	 	 	 	 	 	 	 	 	 	 	 	 	 	 	 	1581527991	10.48	19.41
12/02/2020 17:19:52	120220	12022020	171952	92.11	12.418750	-56.895193	92.09	0.210	-0.580	1.330	92.11	-1.70	1.70	 	 	 	 	 	 	 	 	 	 	 	 	 	 	 	 	 	 	1581527992	8.91	16.50
12/02/2020 17:19:53	120220	12022020	171953	92.13	12.418748	-56.895157	92.09	-0.170	0.340	1.260	92.12	-0.90	1.70	 	 	 	 	 	 	 	 	 	 	 	 	 	 	 	 	 	 	1581527993	7.62	14.11
12/02/2020 17:19:54	120220	12022020	171954	92.04	12.418747	-56.895118	91.98	-0.310	0.190	1.240	92.01	-1.20	1.70	 	 	 	 	 	 	 	 	 	 	 	 	 	 	 	 	 	 	1581527994	8.09	14.98
12/02/2020 17:19:55	120220	12022020	171955	91.89	12.418747	-56.895073	91.83	0.040	-0.900	1.130	91.85	-2.30	1.60	 	 	 	 	 	 	 	 	 	 	 	 	 	 	 	 	 	 	1581527995	9.62	17.82
12/02/2020 17:19:56	120220	12022020	171956	91.68	12.418745	-56.895025	91.63	0.540	-1.540	1.200	91.64	-2.80	1.60	 	 	 	 	 	 	 	 	 	 	 	 	 	 	 	 	 	 	1581527996	10.18	18.85
12/02/2020 17:19:57	120220	12022020	171957	91.56	12.418745	-56.894982	91.55	0.640	-0.750	1.240	91.56	-1.80	1.70	 	 	 	 	 	 	 	 	 	 	 	 	 	 	 	 	 	 	1581527997	9.07	16.80
12/02/2020 17:19:58	120220	12022020	171958	91.60	12.418745	-56.894945	91.59	0.210	0.530	1.240	91.62	-0.60	1.70	 	 	 	 	 	 	 	 	 	 	 	 	 	 	 	 	 	 	1581527998	7.73	14.32
12/02/2020 17:19:59	120220	12022020	171959	91.65	12.418745	-56.894908	91.61	-0.300	0.990	1.230	91.65	-0.30	1.70	 	 	 	 	 	 	 	 	 	 	 	 	 	 	 	 	 	 	1581527999	7.84	14.52
12/02/2020 17:20:00	120220	12022020	172000	91.56	12.418745	-56.894867	91.48	-0.430	0.470	1.320	91.52	-0.90	1.80	 	 	 	 	 	 	 	 	 	 	 	 	 	 	 	 	 	 	1581528000	8.92	16.52
12/02/2020 17:20:01	120220	12022020	172001	91.26	12.418743	-56.894822	91.19	-0.290	-0.260	1.570	91.20	-1.60	2.00	 	 	 	 	 	 	 	 	 	 	 	 	 	 	 	 	 	 	1581528001	9.48	17.56
12/02/2020 17:20:02	120220	12022020	172002	91.02	12.418742	-56.894777	90.98	-0.050	-0.880	1.600	90.99	-2.20	2.00	1015.60	26.60	26.60	20.40	20.50	896.0	69.0	69.0	393.0	28.8	349.00	15.90	76.00	11.30	65195	9278.0	27.4	27.4	1581528002	9.44	17.48
12/02/2020 17:20:03	120220	12022020	172003	90.94	12.418742	-56.894732	90.94	0.190	-1.170	1.470	90.93	-2.40	1.90	 	 	 	 	 	 	 	 	 	 	 	 	 	 	 	 	 	 	1581528003	9.37	17.35
12/02/2020 17:20:04	120220	12022020	172004	90.85	12.418743	-56.894690	90.84	0.230	-0.930	1.350	90.81	-2.10	1.80	 	 	 	 	 	 	 	 	 	 	 	 	 	 	 	 	 	 	1581528004	8.98	16.63
12/02/2020 17:20:05	120220	12022020	172005	90.63	12.418745	-56.894648	90.61	0.090	-0.470	1.340	90.58	-1.60	1.80	 	 	 	 	 	 	 	 	 	 	 	 	 	 	 	 	 	 	1581528005	8.65	16.02
12/02/2020 17:20:06	120220	12022020	172006	90.46	12.418745	-56.894608	90.48	0.000	-0.010	1.490	90.45	-1.20	1.90	 	 	 	 	 	 	 	 	 	 	 	 	 	 	 	 	 	 	1581528006	8.67	16.06
12/02/2020 17:20:07	120220	12022020	172007	90.47	12.418743	-56.894567	90.51	0.050	0.330	1.510	90.48	-0.90	1.90	 	 	 	 	 	 	 	 	 	 	 	 	 	 	 	 	 	 	1581528007	8.73	16.17
12/02/2020 17:20:08	120220	12022020	172008	90.45	12.418743	-56.894523	90.45	0.130	0.180	1.460	90.42	-1.10	1.90	 	 	 	 	 	 	 	 	 	 	 	 	 	 	 	 	 	 	1581528008	8.98	16.63
12/02/2020 17:20:09	120220	12022020	172009	90.38	12.418745	-56.894478	90.41	0.110	-0.240	1.310	90.40	-1.50	1.70	 	 	 	 	 	 	 	 	 	 	 	 	 	 	 	 	 	 	1581528009	9.54	17.67
12/02/2020 17:20:10	120220	12022020	172010	90.70	12.418748	-56.894435	90.81	-0.160	-0.110	1.080	90.80	-1.30	1.50	 	 	 	 	 	 	 	 	 	 	 	 	 	 	 	 	 	 	1581528010	9.19	17.02
12/02/2020 17:20:11	120220	12022020	172011	91.24	12.418748	-56.894397	91.34	-0.450	0.200	1.120	91.32	-1.10	1.60	 	 	 	 	 	 	 	 	 	 	 	 	 	 	 	 	 	 	1581528011	8.33	15.43
12/02/2020 17:20:12	120220	12022020	172012	91.46	12.418747	-56.894355	91.47	-0.280	-0.340	1.480	91.44	-1.70	2.00	 	 	 	 	 	 	 	 	 	 	 	 	 	 	 	 	 	 	1581528012	8.70	16.11
12/02/2020 17:20:13	120220	12022020	172013	91.21	12.418745	-56.894308	91.18	0.360	-1.370	1.780	91.14	-2.70	2.30	 	 	 	 	 	 	 	 	 	 	 	 	 	 	 	 	 	 	1581528013	10.02	18.56
12/02/2020 17:20:14	120220	12022020	172014	90.93	12.418745	-56.894262	90.95	0.740	-1.280	1.820	90.91	-2.40	2.30	 	 	 	 	 	 	 	 	 	 	 	 	 	 	 	 	 	 	1581528014	9.86	18.26
12/02/2020 17:20:15	120220	12022020	172015	90.93	12.418747	-56.894222	90.98	0.430	-0.140	1.580	90.96	-1.20	2.00	 	 	 	 	 	 	 	 	 	 	 	 	 	 	 	 	 	 	1581528015	8.44	15.63
12/02/2020 17:20:16	120220	12022020	172016	91.10	12.418750	-56.894183	91.14	-0.270	0.770	1.220	91.14	-0.50	1.60	 	 	 	 	 	 	 	 	 	 	 	 	 	 	 	 	 	 	1581528016	7.88	14.59
12/02/2020 17:20:17	120220	12022020	172017	91.28	12.418753	-56.894143	91.30	-0.780	0.670	0.810	91.31	-0.70	1.20	 	 	 	 	 	 	 	 	 	 	 	 	 	 	 	 	 	 	1581528017	8.61	15.95
12/02/2020 17:20:18	120220	12022020	172018	91.36	12.418753	-56.894098	91.33	-0.810	-0.130	0.640	91.35	-1.50	1.10	 	 	 	 	 	 	 	 	 	 	 	 	 	 	 	 	 	 	1581528018	9.54	17.67
12/02/2020 17:20:19	120220	12022020	172019	91.18	12.418750	-56.894052	91.11	-0.350	-0.930	0.870	91.10	-2.30	1.30	 	 	 	 	 	 	 	 	 	 	 	 	 	 	 	 	 	 	1581528019	9.92	18.37
12/02/2020 17:20:20	120220	12022020	172020	90.87	12.418750	-56.894005	90.83	0.310	-1.150	0.880	90.84	-2.40	1.30	 	 	 	 	 	 	 	 	 	 	 	 	 	 	 	 	 	 	1581528020	9.68	17.93
12/02/2020 17:20:21	120220	12022020	172021	90.88	12.418752	-56.893963	90.90	0.630	-0.660	0.570	90.92	-1.80	1.00	 	 	 	 	 	 	 	 	 	 	 	 	 	 	 	 	 	 	1581528021	9.11	16.87
12/02/2020 17:20:22	120220	12022020	172022	91.08	12.418755	-56.893922	91.08	0.330	0.050	0.520	91.10	-1.10	1.00	 	 	 	 	 	 	 	 	 	 	 	 	 	 	 	 	 	 	1581528022	8.53	15.80
12/02/2020 17:20:23	120220	12022020	172023	91.02	12.418753	-56.893882	90.95	-0.220	0.460	0.970	90.96	-0.80	1.50	 	 	 	 	 	 	 	 	 	 	 	 	 	 	 	 	 	 	1581528023	8.46	15.67
12/02/2020 17:20:24	120220	12022020	172024	90.63	12.418750	-56.893840	90.58	-0.440	0.300	1.370	90.56	-1.10	1.80	 	 	 	 	 	 	 	 	 	 	 	 	 	 	 	 	 	 	1581528024	8.90	16.48
12/02/2020 17:20:25	120220	12022020	172025	90.36	12.418750	-56.893795	90.36	-0.100	-0.400	1.350	90.35	-1.80	1.80	 	 	 	 	 	 	 	 	 	 	 	 	 	 	 	 	 	 	1581528025	9.58	17.74
12/02/2020 17:20:26	120220	12022020	172026	90.39	12.418753	-56.893748	90.41	0.380	-0.980	1.090	90.41	-2.30	1.50	 	 	 	 	 	 	 	 	 	 	 	 	 	 	 	 	 	 	1581528026	10.01	18.54
12/02/2020 17:20:27	120220	12022020	172027	90.41	12.418757	-56.893703	90.40	0.360	-0.730	0.940	90.39	-1.90	1.40	 	 	 	 	 	 	 	 	 	 	 	 	 	 	 	 	 	 	1581528027	9.41	17.43
12/02/2020 17:20:28	120220	12022020	172028	90.21	12.418758	-56.893663	90.16	-0.120	-0.040	1.060	90.16	-1.30	1.50	 	 	 	 	 	 	 	 	 	 	 	 	 	 	 	 	 	 	1581528028	8.50	15.74
12/02/2020 17:20:29	120220	12022020	172029	89.95	12.418758	-56.893623	89.94	-0.450	0.270	1.340	89.92	-1.00	1.80	 	 	 	 	 	 	 	 	 	 	 	 	 	 	 	 	 	 	1581528029	8.46	15.67
12/02/2020 17:20:30	120220	12022020	172030	89.86	12.418757	-56.893580	89.90	-0.350	-0.040	1.670	89.86	-1.40	2.10	 	 	 	 	 	 	 	 	 	 	 	 	 	 	 	 	 	 	1581528030	9.17	16.98
12/02/2020 17:20:31	120220	12022020	172031	89.89	12.418757	-56.893533	89.95	-0.050	-0.670	1.780	89.90	-2.00	2.20	 	 	 	 	 	 	 	 	 	 	 	 	 	 	 	 	 	 	1581528031	9.77	18.09
12/02/2020 17:20:32	120220	12022020	172032	89.96	12.418757	-56.893487	90.02	0.150	-0.980	1.620	89.97	-2.20	2.10	 	 	 	 	 	 	 	 	 	 	 	 	 	 	 	 	 	 	1581528032	9.86	18.26
12/02/2020 17:20:33	120220	12022020	172033	89.94	12.418757	-56.893443	89.97	0.130	-0.560	1.660	89.92	-1.70	2.10	 	 	 	 	 	 	 	 	 	 	 	 	 	 	 	 	 	 	1581528033	9.27	17.17
12/02/2020 17:20:34	120220	12022020	172034	89.85	12.418757	-56.893402	89.88	0.010	0.280	1.580	89.85	-0.90	2.00	 	 	 	 	 	 	 	 	 	 	 	 	 	 	 	 	 	 	1581528034	8.55	15.83
12/02/2020 17:20:35	120220	12022020	172035	89.86	12.418762	-56.893363	89.90	-0.100	0.770	1.120	89.87	-0.50	1.50	 	 	 	 	 	 	 	 	 	 	 	 	 	 	 	 	 	 	1581528035	8.40	15.56
12/02/2020 17:20:36	120220	12022020	172036	90.04	12.418768	-56.893320	90.11	-0.100	0.290	0.750	90.11	-1.10	1.20	 	 	 	 	 	 	 	 	 	 	 	 	 	 	 	 	 	 	1581528036	9.13	16.91
12/02/2020 17:20:37	120220	12022020	172037	90.45	12.418772	-56.893273	90.54	-0.020	-0.720	0.730	90.53	-2.10	1.20	 	 	 	 	 	 	 	 	 	 	 	 	 	 	 	 	 	 	1581528037	9.95	18.43
12/02/2020 17:20:38	120220	12022020	172038	90.77	12.418772	-56.893227	90.82	0.080	-1.290	0.990	90.80	-2.60	1.50	 	 	 	 	 	 	 	 	 	 	 	 	 	 	 	 	 	 	1581528038	9.99	18.50
12/02/2020 17:20:39	120220	12022020	172039	90.81	12.418770	-56.893182	90.84	0.100	-0.940	1.330	90.80	-2.10	1.80	 	 	 	 	 	 	 	 	 	 	 	 	 	 	 	 	 	 	1581528039	9.24	17.11
12/02/2020 17:20:40	120220	12022020	172040	90.72	12.418768	-56.893142	90.76	0.070	-0.230	1.550	90.70	-1.40	2.00	 	 	 	 	 	 	 	 	 	 	 	 	 	 	 	 	 	 	1581528040	8.53	15.80
12/02/2020 17:20:41	120220	12022020	172041	90.67	12.418770	-56.893102	90.71	0.140	0.000	1.370	90.67	-1.30	1.80	 	 	 	 	 	 	 	 	 	 	 	 	 	 	 	 	 	 	1581528041	8.73	16.17
12/02/2020 17:20:42	120220	12022020	172042	90.65	12.418775	-56.893055	90.69	0.250	-0.260	0.870	90.67	-1.60	1.30	 	 	 	 	 	 	 	 	 	 	 	 	 	 	 	 	 	 	1581528042	9.67	17.91
12/02/2020 17:20:43	120220	12022020	172043	90.88	12.418782	-56.893010	90.98	-0.040	-0.110	0.570	90.97	-1.30	1.00	 	 	 	 	 	 	 	 	 	 	 	 	 	 	 	 	 	 	1581528043	9.69	17.95
12/02/2020 17:20:44	120220	12022020	172044	91.40	12.418782	-56.892968	91.52	-0.600	0.310	0.650	91.52	-0.90	1.10	 	 	 	 	 	 	 	 	 	 	 	 	 	 	 	 	 	 	1581528044	8.76	16.22
12/02/2020 17:20:45	120220	12022020	172045	91.90	12.418780	-56.892927	91.93	-0.720	0.210	0.870	91.93	-1.20	1.40	 	 	 	 	 	 	 	 	 	 	 	 	 	 	 	 	 	 	1581528045	8.71	16.13
12/02/2020 17:20:46	120220	12022020	172046	91.86	12.418777	-56.892882	91.83	-0.130	-0.570	1.280	91.80	-1.90	1.80	 	 	 	 	 	 	 	 	 	 	 	 	 	 	 	 	 	 	1581528046	9.72	18.00
12/02/2020 17:20:47	120220	12022020	172047	91.60	12.418773	-56.892835	91.60	0.440	-0.900	1.420	91.58	-2.20	1.80	 	 	 	 	 	 	 	 	 	 	 	 	 	 	 	 	 	 	1581528047	9.96	18.45
12/02/2020 17:20:48	120220	12022020	172048	91.60	12.418775	-56.892792	91.64	0.500	-0.490	1.090	91.63	-1.70	1.50	 	 	 	 	 	 	 	 	 	 	 	 	 	 	 	 	 	 	1581528048	9.14	16.93
12/02/2020 17:20:49	120220	12022020	172049	91.76	12.418780	-56.892752	91.77	0.210	0.050	0.610	91.78	-1.20	1.00	 	 	 	 	 	 	 	 	 	 	 	 	 	 	 	 	 	 	1581528049	8.53	15.80
12/02/2020 17:20:50	120220	12022020	172050	91.85	12.418783	-56.892710	91.84	-0.070	0.040	0.460	91.86	-1.30	0.90	 	 	 	 	 	 	 	 	 	 	 	 	 	 	 	 	 	 	1581528050	8.83	16.35
12/02/2020 17:20:51	120220	12022020	172051	91.95	12.418785	-56.892665	91.95	-0.170	-0.400	0.590	91.98	-1.80	1.00	 	 	 	 	 	 	 	 	 	 	 	 	 	 	 	 	 	 	1581528051	9.52	17.63
12/02/2020 17:20:52	120220	12022020	172052	92.07	12.418783	-56.892618	92.06	-0.130	-0.570	0.690	92.07	-1.90	1.20	 	 	 	 	 	 	 	 	 	 	 	 	 	 	 	 	 	 	1581528052	9.63	17.83
12/02/2020 17:20:53	120220	12022020	172053	91.95	12.418782	-56.892575	91.91	-0.100	-0.410	1.070	91.91	-1.70	1.60	 	 	 	 	 	 	 	 	 	 	 	 	 	 	 	 	 	 	1581528053	9.21	17.06
12/02/2020 17:20:54	120220	12022020	172054	91.75	12.418778	-56.892533	91.74	-0.120	-0.320	1.390	91.73	-1.60	1.80	 	 	 	 	 	 	 	 	 	 	 	 	 	 	 	 	 	 	1581528054	9.10	16.85
12/02/2020 17:20:55	120220	12022020	172055	91.71	12.418778	-56.892488	91.72	-0.170	-0.210	1.380	91.71	-1.50	1.80	 	 	 	 	 	 	 	 	 	 	 	 	 	 	 	 	 	 	1581528055	9.24	17.11
12/02/2020 17:20:56	120220	12022020	172056	91.70	12.418777	-56.892445	91.68	-0.220	-0.080	1.150	91.68	-1.40	1.60	 	 	 	 	 	 	 	 	 	 	 	 	 	 	 	 	 	 	1581528056	9.11	16.87
12/02/2020 17:20:57	120220	12022020	172057	91.51	12.418777	-56.892402	91.45	-0.000	-0.360	1.070	91.44	-1.80	1.50	 	 	 	 	 	 	 	 	 	 	 	 	 	 	 	 	 	 	1581528057	9.32	17.26
12/02/2020 17:20:58	120220	12022020	172058	91.19	12.418777	-56.892355	91.18	0.420	-0.760	1.040	91.17	-2.10	1.40	 	 	 	 	 	 	 	 	 	 	 	 	 	 	 	 	 	 	1581528058	10.00	18.52
12/02/2020 17:20:59	120220	12022020	172059	91.31	12.418780	-56.892308	91.39	0.440	-0.290	0.640	91.38	-1.50	1.00	 	 	 	 	 	 	 	 	 	 	 	 	 	 	 	 	 	 	1581528059	9.59	17.76
12/02/2020 17:21:00	120220	12022020	172100	91.72	12.418785	-56.892270	91.78	-0.040	0.550	0.570	91.77	-0.70	1.10	 	 	 	 	 	 	 	 	 	 	 	 	 	 	 	 	 	 	1581528060	8.43	15.61
12/02/2020 17:21:01	120220	12022020	172101	91.83	12.418785	-56.892230	91.82	-0.430	0.550	1.170	91.80	-0.90	1.70	 	 	 	 	 	 	 	 	 	 	 	 	 	 	 	 	 	 	1581528061	8.42	15.59
12/02/2020 17:21:02	120220	12022020	172102	91.62	12.418780	-56.892183	91.62	-0.200	-0.590	1.760	91.58	-2.10	2.20	1015.50	26.60	26.60	20.40	20.50	896.0	69.0	69.0	392.0	28.8	349.00	15.70	75.00	11.10	65208	17666.0	27.4	27.4	1581528062	9.84	18.22
12/02/2020 17:21:03	120220	12022020	172103	91.64	12.418778	-56.892133	91.73	0.300	-1.390	1.910	91.70	-2.70	2.30	 	 	 	 	 	 	 	 	 	 	 	 	 	 	 	 	 	 	1581528063	10.63	19.69
12/02/2020 17:21:04	120220	12022020	172104	92.01	12.418777	-56.892088	92.10	0.330	-0.700	1.630	92.09	-1.90	2.00	 	 	 	 	 	 	 	 	 	 	 	 	 	 	 	 	 	 	1581528064	9.40	17.41
12/02/2020 17:21:05	120220	12022020	172105	92.25	12.418777	-56.892052	92.25	-0.180	0.490	1.280	92.25	-0.80	1.70	 	 	 	 	 	 	 	 	 	 	 	 	 	 	 	 	 	 	1581528065	7.91	14.65
12/02/2020 17:21:06	120220	12022020	172106	92.11	12.418778	-56.892013	92.07	-0.580	0.750	1.320	92.07	-0.70	1.80	 	 	 	 	 	 	 	 	 	 	 	 	 	 	 	 	 	 	1581528066	8.08	14.96
12/02/2020 17:21:07	120220	12022020	172107	91.97	12.418778	-56.891968	91.96	-0.410	-0.250	1.230	91.97	-1.80	1.60	 	 	 	 	 	 	 	 	 	 	 	 	 	 	 	 	 	 	1581528067	9.48	17.56
12/02/2020 17:21:08	120220	12022020	172108	92.05	12.418780	-56.891918	92.06	0.230	-1.520	0.870	92.07	-3.00	1.30	 	 	 	 	 	 	 	 	 	 	 	 	 	 	 	 	 	 	1581528068	10.60	19.63
12/02/2020 17:21:09	120220	12022020	172109	92.13	12.418783	-56.891868	92.12	0.750	-1.640	0.690	92.13	-2.90	1.10	 	 	 	 	 	 	 	 	 	 	 	 	 	 	 	 	 	 	1581528069	10.39	19.24
12/02/2020 17:21:10	120220	12022020	172110	92.15	12.418783	-56.891827	92.15	0.600	-0.360	0.760	92.16	-1.50	1.20	 	 	 	 	 	 	 	 	 	 	 	 	 	 	 	 	 	 	1581528070	8.83	16.35
12/02/2020 17:21:11	120220	12022020	172111	92.22	12.418783	-56.891790	92.24	-0.060	0.910	1.000	92.24	-0.40	1.50	 	 	 	 	 	 	 	 	 	 	 	 	 	 	 	 	 	 	1581528071	7.80	14.45
12/02/2020 17:21:12	120220	12022020	172112	92.31	12.418782	-56.891750	92.32	-0.540	1.020	1.200	92.32	-0.40	1.70	 	 	 	 	 	 	 	 	 	 	 	 	 	 	 	 	 	 	1581528072	8.44	15.63
12/02/2020 17:21:13	120220	12022020	172113	92.44	12.418782	-56.891705	92.47	-0.580	0.290	1.110	92.47	-1.20	1.50	 	 	 	 	 	 	 	 	 	 	 	 	 	 	 	 	 	 	1581528073	9.64	17.85
12/02/2020 17:21:14	120220	12022020	172114	92.57	12.418782	-56.891658	92.55	-0.380	-0.460	0.930	92.57	-1.90	1.40	 	 	 	 	 	 	 	 	 	 	 	 	 	 	 	 	 	 	1581528074	9.90	18.33
12/02/2020 17:21:15	120220	12022020	172115	92.48	12.418780	-56.891612	92.43	-0.050	-1.200	1.140	92.43	-2.60	1.60	 	 	 	 	 	 	 	 	 	 	 	 	 	 	 	 	 	 	1581528075	9.81	18.17
12/02/2020 17:21:16	120220	12022020	172116	92.24	12.418777	-56.891565	92.19	0.370	-1.510	1.330	92.19	-2.80	1.80	 	 	 	 	 	 	 	 	 	 	 	 	 	 	 	 	 	 	1581528076	9.94	18.41
12/02/2020 17:21:17	120220	12022020	172117	92.11	12.418777	-56.891520	92.09	0.550	-0.700	1.000	92.11	-1.90	1.40	 	 	 	 	 	 	 	 	 	 	 	 	 	 	 	 	 	 	1581528077	9.25	17.13
12/02/2020 17:21:18	120220	12022020	172118	92.18	12.418780	-56.891483	92.18	0.240	0.710	0.540	92.22	-0.50	0.90	 	 	 	 	 	 	 	 	 	 	 	 	 	 	 	 	 	 	1581528078	8.11	15.02
12/02/2020 17:21:19	120220	12022020	172119	92.38	12.418785	-56.891445	92.37	-0.370	1.460	0.270	92.42	0.10	0.70	 	 	 	 	 	 	 	 	 	 	 	 	 	 	 	 	 	 	1581528079	7.84	14.52
12/02/2020 17:21:20	120220	12022020	172120	92.53	12.418785	-56.891403	92.48	-0.680	0.630	0.360	92.53	-1.00	0.80	 	 	 	 	 	 	 	 	 	 	 	 	 	 	 	 	 	 	1581528080	8.82	16.33
12/02/2020 17:21:21	120220	12022020	172121	92.30	12.418782	-56.891353	92.18	-0.150	-1.580	0.870	92.20	-3.20	1.40	 	 	 	 	 	 	 	 	 	 	 	 	 	 	 	 	 	 	1581528081	10.65	19.72
12/02/2020 17:21:22	120220	12022020	172122	91.75	12.418778	-56.891298	91.66	0.780	-3.050	1.440	91.67	-4.40	1.90	 	 	 	 	 	 	 	 	 	 	 	 	 	 	 	 	 	 	1581528082	11.64	21.56
12/02/2020 17:21:23	120220	12022020	172123	91.52	12.418775	-56.891252	91.53	1.040	-1.860	1.660	91.52	-2.90	2.10	 	 	 	 	 	 	 	 	 	 	 	 	 	 	 	 	 	 	1581528083	9.89	18.32
12/02/2020 17:21:24	120220	12022020	172124	91.68	12.418775	-56.891218	91.72	0.250	0.990	1.470	91.74	-0.00	1.90	 	 	 	 	 	 	 	 	 	 	 	 	 	 	 	 	 	 	1581528084	7.12	13.19
12/02/2020 17:21:25	120220	12022020	172125	91.95	12.418777	-56.891188	91.96	-0.920	2.740	1.050	91.99	1.40	1.40	 	 	 	 	 	 	 	 	 	 	 	 	 	 	 	 	 	 	1581528085	6.43	11.91
12/02/2020 17:21:26	120220	12022020	172126	92.10	12.418778	-56.891148	92.09	-1.360	1.790	0.760	92.12	0.10	1.20	 	 	 	 	 	 	 	 	 	 	 	 	 	 	 	 	 	 	1581528086	8.43	15.61
12/02/2020 17:21:27	120220	12022020	172127	92.13	12.418778	-56.891097	92.09	-0.750	-0.660	0.800	92.12	-2.30	1.30	 	 	 	 	 	 	 	 	 	 	 	 	 	 	 	 	 	 	1581528087	10.91	20.21
12/02/2020 17:21:28	120220	12022020	172128	92.04	12.418775	-56.891043	92.01	0.240	-2.150	1.040	92.02	-3.60	1.50	 	 	 	 	 	 	 	 	 	 	 	 	 	 	 	 	 	 	1581528088	11.09	20.54
12/02/2020 17:21:29	120220	12022020	172129	91.94	12.418775	-56.891000	91.91	0.880	-1.820	1.100	91.92	-3.00	1.50	 	 	 	 	 	 	 	 	 	 	 	 	 	 	 	 	 	 	1581528089	9.46	17.52
12/02/2020 17:21:30	120220	12022020	172130	91.84	12.418775	-56.890962	91.80	0.870	-0.490	0.990	91.81	-1.70	1.40	 	 	 	 	 	 	 	 	 	 	 	 	 	 	 	 	 	 	1581528090	7.92	14.67
12/02/2020 17:21:31	120220	12022020	172131	91.65	12.418778	-56.890925	91.59	0.430	0.380	1.000	91.62	-0.90	1.50	 	 	 	 	 	 	 	 	 	 	 	 	 	 	 	 	 	 	1581528091	7.80	14.45
12/02/2020 17:21:32	120220	12022020	172132	91.59	12.418780	-56.890883	91.60	-0.020	0.260	1.020	91.64	-1.20	1.50	 	 	 	 	 	 	 	 	 	 	 	 	 	 	 	 	 	 	1581528092	8.80	16.30
12/02/2020 17:21:33	120220	12022020	172133	91.92	12.418778	-56.890838	91.96	-0.230	-0.270	1.130	91.98	-1.70	1.60	 	 	 	 	 	 	 	 	 	 	 	 	 	 	 	 	 	 	1581528093	9.62	17.82
12/02/2020 17:21:34	120220	12022020	172134	92.04	12.418775	-56.890792	92.00	-0.180	-0.640	1.440	92.00	-2.00	1.90	 	 	 	 	 	 	 	 	 	 	 	 	 	 	 	 	 	 	1581528094	9.68	17.93
12/02/2020 17:21:35	120220	12022020	172135	91.73	12.418772	-56.890748	91.67	-0.100	-0.490	1.670	91.65	-1.80	2.10	 	 	 	 	 	 	 	 	 	 	 	 	 	 	 	 	 	 	1581528095	9.37	17.35
12/02/2020 17:21:36	120220	12022020	172136	91.42	12.418772	-56.890707	91.41	-0.230	0.200	1.850	91.38	-1.10	2.30	 	 	 	 	 	 	 	 	 	 	 	 	 	 	 	 	 	 	1581528096	8.66	16.04
12/02/2020 17:21:37	120220	12022020	172137	91.41	12.418773	-56.890668	91.46	-0.420	0.650	1.600	91.46	-0.70	2.00	 	 	 	 	 	 	 	 	 	 	 	 	 	 	 	 	 	 	1581528097	8.24	15.26
12/02/2020 17:21:38	120220	12022020	172138	91.79	12.418777	-56.890627	91.86	-0.240	0.090	0.830	91.87	-1.40	1.20	 	 	 	 	 	 	 	 	 	 	 	 	 	 	 	 	 	 	1581528098	8.92	16.52
12/02/2020 17:21:39	120220	12022020	172139	92.10	12.418778	-56.890578	92.10	0.390	-1.170	0.540	92.12	-2.70	1.00	 	 	 	 	 	 	 	 	 	 	 	 	 	 	 	 	 	 	1581528099	10.13	18.76
12/02/2020 17:21:40	120220	12022020	172140	91.95	12.418778	-56.890528	91.88	0.940	-1.800	0.950	91.86	-3.10	1.50	 	 	 	 	 	 	 	 	 	 	 	 	 	 	 	 	 	 	1581528100	10.40	19.26
12/02/2020 17:21:41	120220	12022020	172141	91.57	12.418777	-56.890485	91.52	0.850	-0.810	1.240	91.52	-1.90	1.70	 	 	 	 	 	 	 	 	 	 	 	 	 	 	 	 	 	 	1581528101	9.16	16.96
12/02/2020 17:21:42	120220	12022020	172142	91.45	12.418778	-56.890450	91.48	0.090	0.900	1.150	91.47	-0.30	1.60	 	 	 	 	 	 	 	 	 	 	 	 	 	 	 	 	 	 	1581528102	7.55	13.98
12/02/2020 17:21:43	120220	12022020	172143	91.64	12.418780	-56.890413	91.69	-0.780	1.480	1.100	91.69	0.10	1.60	 	 	 	 	 	 	 	 	 	 	 	 	 	 	 	 	 	 	1581528103	7.64	14.15
12/02/2020 17:21:44	120220	12022020	172144	91.80	12.418778	-56.890372	91.80	-1.130	0.560	1.210	91.80	-0.90	1.70	 	 	 	 	 	 	 	 	 	 	 	 	 	 	 	 	 	 	1581528104	9.07	16.80
12/02/2020 17:21:45	120220	12022020	172145	91.70	12.418775	-56.890323	91.66	-0.630	-0.940	1.290	91.65	-2.40	1.80	 	 	 	 	 	 	 	 	 	 	 	 	 	 	 	 	 	 	1581528105	10.21	18.91
12/02/2020 17:21:46	120220	12022020	172146	91.41	12.418773	-56.890273	91.38	0.390	-1.860	1.460	91.35	-3.20	1.90	 	 	 	 	 	 	 	 	 	 	 	 	 	 	 	 	 	 	1581528106	10.34	19.15
12/02/2020 17:21:47	120220	12022020	172147	91.21	12.418775	-56.890228	91.20	1.150	-1.590	1.330	91.19	-2.80	1.70	 	 	 	 	 	 	 	 	 	 	 	 	 	 	 	 	 	 	1581528107	9.55	17.69
12/02/2020 17:21:48	120220	12022020	172148	91.23	12.418780	-56.890188	91.24	1.130	-0.470	0.840	91.25	-1.60	1.20	 	 	 	 	 	 	 	 	 	 	 	 	 	 	 	 	 	 	1581528108	8.59	15.91
12/02/2020 17:21:49	120220	12022020	172149	91.34	12.418783	-56.890150	91.36	0.490	0.550	0.760	91.36	-0.70	1.20	 	 	 	 	 	 	 	 	 	 	 	 	 	 	 	 	 	 	1581528109	8.17	15.13
12/02/2020 17:21:50	120220	12022020	172150	91.45	12.418785	-56.890108	91.47	-0.260	0.760	1.090	91.47	-0.60	1.60	 	 	 	 	 	 	 	 	 	 	 	 	 	 	 	 	 	 	1581528110	8.64	16.00
12/02/2020 17:21:51	120220	12022020	172151	91.62	12.418783	-56.890065	91.65	-0.840	0.450	1.220	91.65	-0.90	1.70	 	 	 	 	 	 	 	 	 	 	 	 	 	 	 	 	 	 	1581528111	9.34	17.30
12/02/2020 17:21:52	120220	12022020	172152	91.71	12.418782	-56.890020	91.71	-1.040	0.060	1.390	91.71	-1.30	1.80	 	 	 	 	 	 	 	 	 	 	 	 	 	 	 	 	 	 	1581528112	9.34	17.30
12/02/2020 17:21:53	120220	12022020	172153	91.67	12.418778	-56.889977	91.65	-0.650	-0.470	1.460	91.67	-1.90	1.90	 	 	 	 	 	 	 	 	 	 	 	 	 	 	 	 	 	 	1581528113	9.29	17.21
12/02/2020 17:21:54	120220	12022020	172154	91.72	12.418778	-56.889932	91.73	0.170	-1.030	1.160	91.74	-2.40	1.60	 	 	 	 	 	 	 	 	 	 	 	 	 	 	 	 	 	 	1581528114	9.59	17.76
12/02/2020 17:21:55	120220	12022020	172155	91.77	12.418782	-56.889887	91.75	0.820	-1.260	0.980	91.76	-2.60	1.40	 	 	 	 	 	 	 	 	 	 	 	 	 	 	 	 	 	 	1581528115	9.67	17.91
12/02/2020 17:21:56	120220	12022020	172156	91.62	12.418783	-56.889842	91.58	0.890	-0.990	1.050	91.57	-2.20	1.50	 	 	 	 	 	 	 	 	 	 	 	 	 	 	 	 	 	 	1581528116	9.37	17.35
12/02/2020 17:21:57	120220	12022020	172157	91.47	12.418785	-56.889800	91.48	0.450	-0.190	1.180	91.47	-1.40	1.60	 	 	 	 	 	 	 	 	 	 	 	 	 	 	 	 	 	 	1581528117	8.95	16.58
12/02/2020 17:21:58	120220	12022020	172158	91.60	12.418785	-56.889760	91.65	-0.200	0.810	1.050	91.67	-0.40	1.50	 	 	 	 	 	 	 	 	 	 	 	 	 	 	 	 	 	 	1581528118	8.39	15.54
12/02/2020 17:21:59	120220	12022020	172159	91.99	12.418785	-56.889720	92.05	-0.640	1.150	0.810	92.08	-0.20	1.20	 	 	 	 	 	 	 	 	 	 	 	 	 	 	 	 	 	 	1581528119	8.33	15.43
12/02/2020 17:22:00	120220	12022020	172200	92.36	12.418787	-56.889677	92.37	-0.550	0.350	0.700	92.40	-1.10	1.20	 	 	 	 	 	 	 	 	 	 	 	 	 	 	 	 	 	 	1581528120	9.24	17.11
12/02/2020 17:22:01	120220	12022020	172201	92.39	12.418785	-56.889628	92.32	-0.040	-0.920	0.910	92.35	-2.40	1.40	 	 	 	 	 	 	 	 	 	 	 	 	 	 	 	 	 	 	1581528121	10.15	18.80
12/02/2020 17:22:02	120220	12022020	172202	92.09	12.418783	-56.889580	91.98	0.560	-1.770	1.240	92.01	-3.10	1.70	1015.50	26.60	26.70	20.40	20.40	894.0	68.0	68.0	392.0	28.8	347.00	16.30	74.00	11.70	65010	9052.0	27.4	27.4	1581528122	10.31	19.09
12/02/2020 17:22:03	120220	12022020	172203	91.65	12.418783	-56.889533	91.56	0.810	-1.570	1.400	91.58	-2.80	1.80	 	 	 	 	 	 	 	 	 	 	 	 	 	 	 	 	 	 	1581528123	9.77	18.09
12/02/2020 17:22:04	120220	12022020	172204	91.38	12.418787	-56.889492	91.35	0.460	-0.410	1.230	91.37	-1.60	1.60	 	 	 	 	 	 	 	 	 	 	 	 	 	 	 	 	 	 	1581528124	8.80	16.30
12/02/2020 17:22:05	120220	12022020	172205	91.56	12.418790	-56.889453	91.61	-0.280	0.790	0.900	91.65	-0.40	1.30	 	 	 	 	 	 	 	 	 	 	 	 	 	 	 	 	 	 	1581528125	8.16	15.11
12/02/2020 17:22:06	120220	12022020	172206	92.13	12.418792	-56.889413	92.20	-0.870	1.110	0.650	92.25	-0.30	1.10	 	 	 	 	 	 	 	 	 	 	 	 	 	 	 	 	 	 	1581528126	8.45	15.65
12/02/2020 17:22:07	120220	12022020	172207	92.60	12.418788	-56.889368	92.62	-0.920	0.330	0.760	92.64	-1.10	1.20	 	 	 	 	 	 	 	 	 	 	 	 	 	 	 	 	 	 	1581528127	9.51	17.61
12/02/2020 17:22:08	120220	12022020	172208	92.64	12.418783	-56.889320	92.59	-0.490	-0.640	1.100	92.59	-2.00	1.60	 	 	 	 	 	 	 	 	 	 	 	 	 	 	 	 	 	 	1581528128	10.23	18.95
12/02/2020 17:22:09	120220	12022020	172209	92.25	12.418780	-56.889273	92.16	0.130	-1.000	1.380	92.15	-2.30	1.80	 	 	 	 	 	 	 	 	 	 	 	 	 	 	 	 	 	 	1581528129	9.89	18.32
12/02/2020 17:22:10	120220	12022020	172210	91.77	12.418782	-56.889230	91.70	0.650	-0.810	1.280	91.71	-2.10	1.70	 	 	 	 	 	 	 	 	 	 	 	 	 	 	 	 	 	 	1581528130	9.25	17.13
12/02/2020 17:22:11	120220	12022020	172211	91.70	12.418787	-56.889187	91.72	0.900	-0.610	0.650	91.76	-1.90	1.00	 	 	 	 	 	 	 	 	 	 	 	 	 	 	 	 	 	 	1581528131	9.23	17.09
12/02/2020 17:22:12	120220	12022020	172212	92.07	12.418793	-56.889142	92.10	0.740	-0.470	0.210	92.15	-1.80	0.70	 	 	 	 	 	 	 	 	 	 	 	 	 	 	 	 	 	 	1581528132	9.56	17.71
12/02/2020 17:22:13	120220	12022020	172213	92.34	12.418795	-56.889098	92.31	0.160	-0.080	0.440	92.34	-1.30	0.90	 	 	 	 	 	 	 	 	 	 	 	 	 	 	 	 	 	 	1581528133	9.21	17.06
12/02/2020 17:22:14	120220	12022020	172214	92.15	12.418792	-56.889057	92.07	-0.390	0.230	1.070	92.07	-1.10	1.60	 	 	 	 	 	 	 	 	 	 	 	 	 	 	 	 	 	 	1581528134	8.91	16.50
12/02/2020 17:22:15	120220	12022020	172215	91.76	12.418788	-56.889013	91.72	-0.430	0.140	1.480	91.71	-1.20	1.90	 	 	 	 	 	 	 	 	 	 	 	 	 	 	 	 	 	 	1581528135	9.25	17.13
12/02/2020 17:22:16	120220	12022020	172216	91.67	12.418788	-56.888967	91.68	-0.140	-0.190	1.360	91.69	-1.60	1.80	 	 	 	 	 	 	 	 	 	 	 	 	 	 	 	 	 	 	1581528136	9.65	17.87
12/02/2020 17:22:17	120220	12022020	172217	91.94	12.418790	-56.888920	91.99	0.030	-0.500	0.940	92.02	-1.80	1.30	 	 	 	 	 	 	 	 	 	 	 	 	 	 	 	 	 	 	1581528137	9.81	18.17
12/02/2020 17:22:18	120220	12022020	172218	92.37	12.418792	-56.888875	92.40	-0.150	-0.460	0.620	92.45	-1.70	1.10	 	 	 	 	 	 	 	 	 	 	 	 	 	 	 	 	 	 	1581528138	9.50	17.59
12/02/2020 17:22:19	120220	12022020	172219	92.64	12.418790	-56.888833	92.63	-0.500	0.020	0.910	92.65	-1.20	1.40	 	 	 	 	 	 	 	 	 	 	 	 	 	 	 	 	 	 	1581528139	8.87	16.43
12/02/2020 17:22:20	120220	12022020	172220	92.57	12.418787	-56.888793	92.49	-0.650	0.270	1.330	92.53	-1.10	1.80	 	 	 	 	 	 	 	 	 	 	 	 	 	 	 	 	 	 	1581528140	8.54	15.82
12/02/2020 17:22:21	120220	12022020	172221	92.31	12.418785	-56.888750	92.23	-0.310	-0.410	1.260	92.27	-1.90	1.70	 	 	 	 	 	 	 	 	 	 	 	 	 	 	 	 	 	 	1581528141	9.30	17.22
12/02/2020 17:22:22	120220	12022020	172222	92.21	12.418787	-56.888700	92.16	0.470	-1.490	0.890	92.22	-2.90	1.30	 	 	 	 	 	 	 	 	 	 	 	 	 	 	 	 	 	 	1581528142	10.46	19.37
12/02/2020 17:22:23	120220	12022020	172223	92.30	12.418788	-56.888650	92.25	1.100	-1.620	0.610	92.32	-2.80	1.00	 	 	 	 	 	 	 	 	 	 	 	 	 	 	 	 	 	 	1581528143	10.48	19.41
12/02/2020 17:22:24	120220	12022020	172224	92.46	12.418792	-56.888608	92.42	0.950	-0.390	0.200	92.49	-1.50	0.60	 	 	 	 	 	 	 	 	 	 	 	 	 	 	 	 	 	 	1581528144	9.14	16.93
12/02/2020 17:22:25	120220	12022020	172225	92.59	12.418795	-56.888570	92.51	0.130	1.120	0.180	92.59	-0.10	0.70	 	 	 	 	 	 	 	 	 	 	 	 	 	 	 	 	 	 	1581528145	7.94	14.70
12/02/2020 17:22:26	120220	12022020	172226	92.51	12.418795	-56.888532	92.43	-0.570	1.500	0.700	92.49	0.10	1.20	 	 	 	 	 	 	 	 	 	 	 	 	 	 	 	 	 	 	1581528146	8.17	15.13
12/02/2020 17:22:27	120220	12022020	172227	92.46	12.418795	-56.888487	92.41	-0.660	0.560	0.870	92.49	-0.90	1.30	 	 	 	 	 	 	 	 	 	 	 	 	 	 	 	 	 	 	1581528147	9.54	17.67
12/02/2020 17:22:28	120220	12022020	172228	92.74	12.418795	-56.888437	92.77	-0.340	-0.770	0.730	92.82	-2.20	1.20	 	 	 	 	 	 	 	 	 	 	 	 	 	 	 	 	 	 	1581528148	10.44	19.33
12/02/2020 17:22:29	120220	12022020	172229	93.18	12.418795	-56.888388	93.20	-0.030	-1.580	0.900	93.24	-2.90	1.40	 	 	 	 	 	 	 	 	 	 	 	 	 	 	 	 	 	 	1581528149	10.23	18.95
12/02/2020 17:22:30	120220	12022020	172230	93.28	12.418788	-56.888343	93.22	0.130	-1.710	1.440	93.23	-3.00	1.90	 	 	 	 	 	 	 	 	 	 	 	 	 	 	 	 	 	 	1581528150	9.68	17.93
12/02/2020 17:22:31	120220	12022020	172231	92.90	12.418782	-56.888300	92.82	0.240	-1.240	1.740	92.81	-2.40	2.20	 	 	 	 	 	 	 	 	 	 	 	 	 	 	 	 	 	 	1581528151	9.44	17.48
12/02/2020 17:22:32	120220	12022020	172232	92.58	12.418780	-56.888257	92.55	0.200	0.070	1.460	92.56	-1.00	1.80	 	 	 	 	 	 	 	 	 	 	 	 	 	 	 	 	 	 	1581528152	8.86	16.41
12/02/2020 17:22:33	120220	12022020	172233	92.57	12.418783	-56.888220	92.53	-0.210	1.620	0.860	92.59	0.40	1.20	 	 	 	 	 	 	 	 	 	 	 	 	 	 	 	 	 	 	1581528153	7.89	14.61
12/02/2020 17:22:34	120220	12022020	172234	92.72	12.418790	-56.888183	92.65	-0.710	1.870	0.060	92.75	0.40	0.40	 	 	 	 	 	 	 	 	 	 	 	 	 	 	 	 	 	 	1581528154	8.04	14.89
12/02/2020 17:22:35	120220	12022020	172235	92.93	12.418795	-56.888137	92.89	-0.650	0.190	-0.470	93.00	-1.40	-0.00	 	 	 	 	 	 	 	 	 	 	 	 	 	 	 	 	 	 	1581528155	9.73	18.02
12/02/2020 17:22:36	120220	12022020	172236	93.24	12.418793	-56.888085	93.17	0.010	-1.880	-0.330	93.27	-3.40	0.20	 	 	 	 	 	 	 	 	 	 	 	 	 	 	 	 	 	 	1581528156	11.09	20.54
12/02/2020 17:22:37	120220	12022020	172237	93.29	12.418790	-56.888033	93.17	0.810	-2.740	0.240	93.24	-4.00	0.80	 	 	 	 	 	 	 	 	 	 	 	 	 	 	 	 	 	 	1581528157	10.74	19.89
12/02/2020 17:22:38	120220	12022020	172238	92.92	12.418787	-56.887988	92.77	1.170	-1.980	0.810	92.82	-3.10	1.30	 	 	 	 	 	 	 	 	 	 	 	 	 	 	 	 	 	 	1581528158	9.46	17.52
12/02/2020 17:22:39	120220	12022020	172239	92.49	12.418785	-56.887950	92.38	0.780	-0.160	1.220	92.45	-1.20	1.70	 	 	 	 	 	 	 	 	 	 	 	 	 	 	 	 	 	 	1581528159	8.17	15.13
12/02/2020 17:22:40	120220	12022020	172240	92.40	12.418785	-56.887915	92.36	-0.140	1.600	1.320	92.42	0.40	1.70	 	 	 	 	 	 	 	 	 	 	 	 	 	 	 	 	 	 	1581528160	7.54	13.96
12/02/2020 17:22:41	120220	12022020	172241	92.57	12.418787	-56.887877	92.54	-1.000	2.110	1.070	92.61	0.70	1.50	 	 	 	 	 	 	 	 	 	 	 	 	 	 	 	 	 	 	1581528161	7.96	14.74
12/02/2020 17:22:42	120220	12022020	172242	92.78	12.418787	-56.887833	92.74	-1.250	1.000	0.850	92.82	-0.60	1.30	 	 	 	 	 	 	 	 	 	 	 	 	 	 	 	 	 	 	1581528162	9.32	17.26
12/02/2020 17:22:43	120220	12022020	172243	93.02	12.418783	-56.887783	92.99	-0.720	-0.890	0.750	93.08	-2.40	1.20	 	 	 	 	 	 	 	 	 	 	 	 	 	 	 	 	 	 	1581528163	10.59	19.61
12/02/2020 17:22:44	120220	12022020	172244	93.26	12.418780	-56.887733	93.21	0.190	-2.040	0.790	93.29	-3.40	1.20	 	 	 	 	 	 	 	 	 	 	 	 	 	 	 	 	 	 	1581528164	10.67	19.76
12/02/2020 17:22:45	120220	12022020	172245	93.20	12.418777	-56.887688	93.08	0.830	-1.690	1.010	93.14	-2.90	1.50	 	 	 	 	 	 	 	 	 	 	 	 	 	 	 	 	 	 	1581528165	9.43	17.46
12/02/2020 17:22:46	120220	12022020	172246	92.83	12.418777	-56.887650	92.68	0.870	-0.440	1.110	92.75	-1.60	1.50	 	 	 	 	 	 	 	 	 	 	 	 	 	 	 	 	 	 	1581528166	8.15	15.09
12/02/2020 17:22:47	120220	12022020	172247	92.53	12.418780	-56.887612	92.44	0.460	0.510	0.860	92.51	-0.80	1.30	 	 	 	 	 	 	 	 	 	 	 	 	 	 	 	 	 	 	1581528167	7.99	14.80
12/02/2020 17:22:48	120220	12022020	172248	92.54	12.418783	-56.887570	92.49	-0.040	0.530	0.500	92.57	-0.80	0.90	 	 	 	 	 	 	 	 	 	 	 	 	 	 	 	 	 	 	1581528168	8.83	16.35
12/02/2020 17:22:49	120220	12022020	172249	92.81	12.418787	-56.887525	92.81	-0.430	0.030	0.270	92.90	-1.40	0.70	 	 	 	 	 	 	 	 	 	 	 	 	 	 	 	 	 	 	1581528169	9.58	17.74
12/02/2020 17:22:50	120220	12022020	172250	93.23	12.418785	-56.887480	93.22	-0.570	-0.400	0.510	93.29	-1.80	1.00	 	 	 	 	 	 	 	 	 	 	 	 	 	 	 	 	 	 	1581528170	9.57	17.72
12/02/2020 17:22:51	120220	12022020	172251	93.36	12.418778	-56.887437	93.27	-0.330	-0.580	1.050	93.33	-1.90	1.50	 	 	 	 	 	 	 	 	 	 	 	 	 	 	 	 	 	 	1581528171	9.30	17.22
12/02/2020 17:22:52	120220	12022020	172252	93.03	12.418775	-56.887393	92.92	0.220	-0.750	1.470	92.95	-2.10	1.90	 	 	 	 	 	 	 	 	 	 	 	 	 	 	 	 	 	 	1581528172	9.27	17.17
12/02/2020 17:22:53	120220	12022020	172253	92.64	12.418773	-56.887348	92.57	0.570	-0.730	1.700	92.60	-2.00	2.10	 	 	 	 	 	 	 	 	 	 	 	 	 	 	 	 	 	 	1581528173	9.52	17.63
12/02/2020 17:22:54	120220	12022020	172254	92.52	12.418773	-56.887305	92.49	0.260	-0.250	1.640	92.52	-1.50	2.00	 	 	 	 	 	 	 	 	 	 	 	 	 	 	 	 	 	 	1581528174	9.13	16.91
12/02/2020 17:22:55	120220	12022020	172255	92.61	12.418773	-56.887263	92.58	-0.400	0.360	1.300	92.65	-0.90	1.70	 	 	 	 	 	 	 	 	 	 	 	 	 	 	 	 	 	 	1581528175	8.56	15.85
12/02/2020 17:22:56	120220	12022020	172256	92.90	12.418773	-56.887223	92.90	-0.620	0.440	0.860	92.98	-0.90	1.20	 	 	 	 	 	 	 	 	 	 	 	 	 	 	 	 	 	 	1581528176	8.70	16.11
12/02/2020 17:22:57	120220	12022020	172257	93.29	12.418775	-56.887178	93.29	-0.150	-0.100	0.550	93.36	-1.50	1.00	 	 	 	 	 	 	 	 	 	 	 	 	 	 	 	 	 	 	1581528177	9.43	17.46
12/02/2020 17:22:58	120220	12022020	172258	93.49	12.418773	-56.887132	93.43	0.520	-0.740	0.560	93.49	-2.10	1.00	 	 	 	 	 	 	 	 	 	 	 	 	 	 	 	 	 	 	1581528178	9.93	18.39
12/02/2020 17:22:59	120220	12022020	172259	93.34	12.418772	-56.887085	93.24	0.790	-0.810	1.040	93.29	-2.10	1.50	 	 	 	 	 	 	 	 	 	 	 	 	 	 	 	 	 	 	1581528179	9.59	17.76
12/02/2020 17:23:00	120220	12022020	172300	93.08	12.418768	-56.887043	93.00	0.450	-0.300	1.490	93.03	-1.60	1.90	 	 	 	 	 	 	 	 	 	 	 	 	 	 	 	 	 	 	1581528180	8.85	16.39
12/02/2020 17:23:01	120220	12022020	172301	92.87	12.418768	-56.887005	92.77	-0.130	0.230	1.490	92.82	-1.10	1.90	 	 	 	 	 	 	 	 	 	 	 	 	 	 	 	 	 	 	1581528181	8.40	15.56
12/02/2020 17:23:02	120220	12022020	172302	92.58	12.418767	-56.886963	92.46	-0.450	0.140	1.530	92.51	-1.30	2.00	1015.50	26.60	26.70	20.30	20.40	888.0	68.0	68.0	392.0	28.7	347.00	16.80	74.00	12.20	64871	17042.0	27.4	27.4	1581528182	8.75	16.21
12/02/2020 17:23:03	120220	12022020	172303	92.28	12.418767	-56.886917	92.22	-0.300	-0.530	1.480	92.26	-2.00	1.90	 	 	 	 	 	 	 	 	 	 	 	 	 	 	 	 	 	 	1581528183	9.64	17.85
12/02/2020 17:23:04	120220	12022020	172304	92.34	12.418767	-56.886870	92.34	0.000	-0.890	1.120	92.37	-2.20	1.50	 	 	 	 	 	 	 	 	 	 	 	 	 	 	 	 	 	 	1581528184	9.92	18.37
12/02/2020 17:23:05	120220	12022020	172305	92.55	12.418767	-56.886827	92.54	0.140	-0.700	1.120	92.58	-2.00	1.60	 	 	 	 	 	 	 	 	 	 	 	 	 	 	 	 	 	 	1581528185	9.30	17.22
12/02/2020 17:23:06	120220	12022020	172306	92.60	12.418763	-56.886783	92.56	0.130	-0.400	1.420	92.58	-1.70	1.90	 	 	 	 	 	 	 	 	 	 	 	 	 	 	 	 	 	 	1581528186	9.00	16.67
12/02/2020 17:23:07	120220	12022020	172307	92.45	12.418762	-56.886740	92.38	0.020	-0.180	1.620	92.41	-1.50	2.10	 	 	 	 	 	 	 	 	 	 	 	 	 	 	 	 	 	 	1581528187	9.22	17.08
12/02/2020 17:23:08	120220	12022020	172308	92.34	12.418758	-56.886697	92.31	-0.270	0.260	1.800	92.34	-1.00	2.20	 	 	 	 	 	 	 	 	 	 	 	 	 	 	 	 	 	 	1581528188	9.06	16.78
12/02/2020 17:23:09	120220	12022020	172309	92.37	12.418757	-56.886657	92.36	-0.540	0.670	1.690	92.38	-0.70	2.10	 	 	 	 	 	 	 	 	 	 	 	 	 	 	 	 	 	 	1581528189	8.59	15.91
12/02/2020 17:23:10	120220	12022020	172310	92.35	12.418757	-56.886615	92.29	-0.310	0.230	1.340	92.32	-1.20	1.70	 	 	 	 	 	 	 	 	 	 	 	 	 	 	 	 	 	 	1581528190	8.91	16.50
12/02/2020 17:23:11	120220	12022020	172311	92.15	12.418758	-56.886567	92.05	0.420	-1.000	1.110	92.10	-2.50	1.50	 	 	 	 	 	 	 	 	 	 	 	 	 	 	 	 	 	 	1581528191	10.08	18.67
12/02/2020 17:23:12	120220	12022020	172312	91.95	12.418758	-56.886517	91.89	1.090	-1.800	1.050	91.94	-3.10	1.50	 	 	 	 	 	 	 	 	 	 	 	 	 	 	 	 	 	 	1581528192	10.65	19.72
12/02/2020 17:23:13	120220	12022020	172313	91.97	12.418760	-56.886472	91.94	1.010	-0.950	1.070	91.99	-2.10	1.50	 	 	 	 	 	 	 	 	 	 	 	 	 	 	 	 	 	 	1581528193	9.55	17.69
12/02/2020 17:23:14	120220	12022020	172314	92.16	12.418762	-56.886435	92.16	0.070	0.760	1.160	92.21	-0.40	1.60	 	 	 	 	 	 	 	 	 	 	 	 	 	 	 	 	 	 	1581528194	7.72	14.30
12/02/2020 17:23:15	120220	12022020	172315	92.40	12.418760	-56.886400	92.39	-0.960	1.410	1.460	92.45	0.00	2.00	 	 	 	 	 	 	 	 	 	 	 	 	 	 	 	 	 	 	1581528195	7.58	14.04
12/02/2020 17:23:16	120220	12022020	172316	92.55	12.418755	-56.886357	92.51	-1.280	0.610	1.970	92.55	-0.90	2.50	 	 	 	 	 	 	 	 	 	 	 	 	 	 	 	 	 	 	1581528196	9.10	16.85
12/02/2020 17:23:17	120220	12022020	172317	92.36	12.418750	-56.886308	92.27	-0.760	-0.690	2.330	92.29	-2.20	2.80	 	 	 	 	 	 	 	 	 	 	 	 	 	 	 	 	 	 	1581528197	10.17	18.83
12/02/2020 17:23:18	120220	12022020	172318	91.87	12.418745	-56.886260	91.77	0.150	-1.710	2.470	91.77	-3.10	2.90	 	 	 	 	 	 	 	 	 	 	 	 	 	 	 	 	 	 	1581528198	10.39	19.24
12/02/2020 17:23:19	120220	12022020	172319	91.36	12.418743	-56.886212	91.26	0.780	-1.780	2.270	91.28	-3.00	2.60	 	 	 	 	 	 	 	 	 	 	 	 	 	 	 	 	 	 	1581528199	9.97	18.46
12/02/2020 17:23:20	120220	12022020	172320	91.13	12.418747	-56.886170	91.09	0.760	-0.750	1.440	91.14	-1.90	1.80	 	 	 	 	 	 	 	 	 	 	 	 	 	 	 	 	 	 	1581528200	8.99	16.65
12/02/2020 17:23:21	120220	12022020	172321	91.28	12.418753	-56.886132	91.28	0.210	0.540	0.550	91.33	-0.70	0.90	 	 	 	 	 	 	 	 	 	 	 	 	 	 	 	 	 	 	1581528201	8.26	15.30
12/02/2020 17:23:22	120220	12022020	172322	91.60	12.418760	-56.886092	91.60	-0.390	1.140	0.180	91.68	-0.20	0.60	 	 	 	 	 	 	 	 	 	 	 	 	 	 	 	 	 	 	1581528202	8.35	15.46
12/02/2020 17:23:23	120220	12022020	172323	91.96	12.418760	-56.886050	91.92	-0.640	0.770	0.240	92.01	-0.70	0.70	 	 	 	 	 	 	 	 	 	 	 	 	 	 	 	 	 	 	1581528203	9.02	16.71
12/02/2020 17:23:24	120220	12022020	172324	91.98	12.418757	-56.886003	91.89	-0.290	-0.360	0.820	91.93	-1.80	1.30	 	 	 	 	 	 	 	 	 	 	 	 	 	 	 	 	 	 	1581528204	9.91	18.35
12/02/2020 17:23:25	120220	12022020	172325	91.62	12.418752	-56.885953	91.51	0.420	-1.450	1.520	91.53	-2.90	2.00	 	 	 	 	 	 	 	 	 	 	 	 	 	 	 	 	 	 	1581528205	10.50	19.45
12/02/2020 17:23:26	120220	12022020	172326	91.18	12.418750	-56.885907	91.10	0.760	-1.490	1.850	91.12	-2.70	2.30	 	 	 	 	 	 	 	 	 	 	 	 	 	 	 	 	 	 	1581528206	10.06	18.63
12/02/2020 17:23:27	120220	12022020	172327	90.98	12.418750	-56.885865	90.93	0.320	-0.430	1.780	90.98	-1.60	2.20	 	 	 	 	 	 	 	 	 	 	 	 	 	 	 	 	 	 	1581528207	8.80	16.30
12/02/2020 17:23:28	120220	12022020	172328	91.06	12.418752	-56.885827	91.06	-0.520	0.870	1.460	91.10	-0.30	1.80	 	 	 	 	 	 	 	 	 	 	 	 	 	 	 	 	 	 	1581528208	7.83	14.50
12/02/2020 17:23:29	120220	12022020	172329	91.29	12.418753	-56.885790	91.29	-0.980	1.230	1.070	91.32	-0.20	1.50	 	 	 	 	 	 	 	 	 	 	 	 	 	 	 	 	 	 	1581528209	8.00	14.82
12/02/2020 17:23:30	120220	12022020	172330	91.37	12.418755	-56.885745	91.34	-0.550	0.120	0.900	91.36	-1.40	1.30	 	 	 	 	 	 	 	 	 	 	 	 	 	 	 	 	 	 	1581528210	9.43	17.46
12/02/2020 17:23:31	120220	12022020	172331	91.30	12.418757	-56.885695	91.28	0.290	-1.360	1.020	91.31	-2.80	1.50	 	 	 	 	 	 	 	 	 	 	 	 	 	 	 	 	 	 	1581528211	10.69	19.80
12/02/2020 17:23:32	120220	12022020	172332	91.47	12.418755	-56.885645	91.49	0.680	-1.780	1.270	91.51	-3.10	1.70	 	 	 	 	 	 	 	 	 	 	 	 	 	 	 	 	 	 	1581528212	10.41	19.28
12/02/2020 17:23:33	120220	12022020	172333	91.64	12.418752	-56.885603	91.64	0.330	-0.910	1.640	91.65	-2.10	2.10	 	 	 	 	 	 	 	 	 	 	 	 	 	 	 	 	 	 	1581528213	8.98	16.63
12/02/2020 17:23:34	120220	12022020	172334	91.59	12.418748	-56.885565	91.55	-0.230	0.300	1.960	91.57	-0.90	2.40	 	 	 	 	 	 	 	 	 	 	 	 	 	 	 	 	 	 	1581528214	8.03	14.87
12/02/2020 17:23:35	120220	12022020	172335	91.45	12.418745	-56.885525	91.42	-0.330	0.760	1.810	91.43	-0.60	2.20	 	 	 	 	 	 	 	 	 	 	 	 	 	 	 	 	 	 	1581528215	8.35	15.46
12/02/2020 17:23:36	120220	12022020	172336	91.36	12.418748	-56.885482	91.32	0.000	0.450	1.270	91.35	-0.90	1.60	 	 	 	 	 	 	 	 	 	 	 	 	 	 	 	 	 	 	1581528216	9.40	17.41
12/02/2020 17:23:37	120220	12022020	172337	91.35	12.418753	-56.885437	91.32	0.200	0.120	0.700	91.36	-1.20	1.10	 	 	 	 	 	 	 	 	 	 	 	 	 	 	 	 	 	 	1581528217	9.66	17.89
12/02/2020 17:23:38	120220	12022020	172338	91.44	12.418760	-56.885392	91.39	0.130	-0.200	0.210	91.47	-1.60	0.60	 	 	 	 	 	 	 	 	 	 	 	 	 	 	 	 	 	 	1581528218	9.31	17.24
12/02/2020 17:23:39	120220	12022020	172339	91.60	12.418763	-56.885348	91.58	0.120	-0.870	0.160	91.65	-2.30	0.70	 	 	 	 	 	 	 	 	 	 	 	 	 	 	 	 	 	 	1581528219	9.48	17.56
12/02/2020 17:23:40	120220	12022020	172340	91.79	12.418763	-56.885300	91.77	0.260	-1.480	0.660	91.81	-2.80	1.20	 	 	 	 	 	 	 	 	 	 	 	 	 	 	 	 	 	 	1581528220	9.94	18.41
12/02/2020 17:23:41	120220	12022020	172341	91.79	12.418760	-56.885255	91.74	0.130	-1.170	1.370	91.75	-2.40	1.90	 	 	 	 	 	 	 	 	 	 	 	 	 	 	 	 	 	 	1581528221	9.60	17.78
12/02/2020 17:23:42	120220	12022020	172342	91.49	12.418753	-56.885215	91.41	-0.390	0.030	1.970	91.41	-1.10	2.40	 	 	 	 	 	 	 	 	 	 	 	 	 	 	 	 	 	 	1581528222	8.52	15.78
12/02/2020 17:23:43	120220	12022020	172343	91.06	12.418750	-56.885178	90.99	-0.810	1.060	2.020	90.98	-0.20	2.40	 	 	 	 	 	 	 	 	 	 	 	 	 	 	 	 	 	 	1581528223	7.90	14.63
12/02/2020 17:23:44	120220	12022020	172344	90.81	12.418750	-56.885138	90.76	-0.710	0.920	1.510	90.79	-0.50	1.90	 	 	 	 	 	 	 	 	 	 	 	 	 	 	 	 	 	 	1581528224	8.64	16.00
12/02/2020 17:23:45	120220	12022020	172345	90.79	12.418755	-56.885090	90.74	-0.180	-0.270	0.770	90.79	-1.80	1.10	 	 	 	 	 	 	 	 	 	 	 	 	 	 	 	 	 	 	1581528225	9.94	18.41
12/02/2020 17:23:46	120220	12022020	172346	90.83	12.418760	-56.885040	90.80	0.440	-1.490	0.190	90.87	-2.90	0.60	 	 	 	 	 	 	 	 	 	 	 	 	 	 	 	 	 	 	1581528226	10.68	19.78
12/02/2020 17:23:47	120220	12022020	172347	91.12	12.418763	-56.884993	91.16	0.700	-1.390	0.170	91.20	-2.60	0.70	 	 	 	 	 	 	 	 	 	 	 	 	 	 	 	 	 	 	1581528227	10.01	18.54
12/02/2020 17:23:48	120220	12022020	172348	91.53	12.418763	-56.884953	91.56	0.440	-0.160	0.570	91.59	-1.30	1.10	 	 	 	 	 	 	 	 	 	 	 	 	 	 	 	 	 	 	1581528228	8.29	15.35
12/02/2020 17:23:49	120220	12022020	172349	91.67	12.418762	-56.884918	91.61	0.060	0.720	1.060	91.65	-0.60	1.60	 	 	 	 	 	 	 	 	 	 	 	 	 	 	 	 	 	 	1581528229	7.71	14.28
12/02/2020 17:23:50	120220	12022020	172350	91.44	12.418760	-56.884877	91.36	0.050	0.450	1.450	91.37	-1.00	1.90	 	 	 	 	 	 	 	 	 	 	 	 	 	 	 	 	 	 	1581528230	8.69	16.09
12/02/2020 17:23:51	120220	12022020	172351	91.06	12.418762	-56.884830	90.98	0.380	-0.530	1.710	90.98	-2.00	2.20	 	 	 	 	 	 	 	 	 	 	 	 	 	 	 	 	 	 	1581528231	9.93	18.39
12/02/2020 17:23:52	120220	12022020	172352	90.79	12.418763	-56.884782	90.78	0.450	-1.150	1.750	90.79	-2.50	2.20	 	 	 	 	 	 	 	 	 	 	 	 	 	 	 	 	 	 	1581528232	10.29	19.06
12/02/2020 17:23:53	120220	12022020	172353	90.97	12.418765	-56.884737	91.04	-0.170	-0.580	1.580	91.05	-1.80	2.00	 	 	 	 	 	 	 	 	 	 	 	 	 	 	 	 	 	 	1581528233	9.31	17.24
12/02/2020 17:23:54	120220	12022020	172354	91.46	12.418765	-56.884700	91.52	-1.060	0.700	1.450	91.55	-0.50	1.90	 	 	 	 	 	 	 	 	 	 	 	 	 	 	 	 	 	 	1581528234	7.78	14.41
12/02/2020 17:23:55	120220	12022020	172355	91.76	12.418762	-56.884663	91.73	-1.330	1.000	1.460	91.76	-0.40	1.90	 	 	 	 	 	 	 	 	 	 	 	 	 	 	 	 	 	 	1581528235	7.63	14.13
12/02/2020 17:23:56	120220	12022020	172356	91.64	12.418760	-56.884620	91.58	-0.480	-0.340	1.550	91.60	-1.90	2.00	 	 	 	 	 	 	 	 	 	 	 	 	 	 	 	 	 	 	1581528236	9.46	17.52
12/02/2020 17:23:57	120220	12022020	172357	91.46	12.418758	-56.884568	91.44	0.700	-1.630	1.630	91.45	-3.00	2.00	 	 	 	 	 	 	 	 	 	 	 	 	 	 	 	 	 	 	1581528237	10.74	19.89
12/02/2020 17:23:58	120220	12022020	172358	91.53	12.418760	-56.884522	91.55	1.150	-1.500	1.270	91.58	-2.70	1.70	 	 	 	 	 	 	 	 	 	 	 	 	 	 	 	 	 	 	1581528238	9.92	18.37
12/02/2020 17:23:59	120220	12022020	172359	91.79	12.418763	-56.884482	91.78	0.640	-0.220	0.910	91.83	-1.40	1.30	 	 	 	 	 	 	 	 	 	 	 	 	 	 	 	 	 	 	1581528239	8.33	15.43
12/02/2020 17:24:00	120220	12022020	172400	91.95	12.418763	-56.884447	91.91	-0.130	0.870	0.960	91.96	-0.40	1.40	 	 	 	 	 	 	 	 	 	 	 	 	 	 	 	 	 	 	1581528240	7.61	14.09
12/02/2020 17:24:01	120220	12022020	172401	92.07	12.418765	-56.884407	92.03	-0.350	0.760	0.820	92.10	-0.70	1.20	 	 	 	 	 	 	 	 	 	 	 	 	 	 	 	 	 	 	1581528241	8.47	15.69
12/02/2020 17:24:02	120220	12022020	172402	92.24	12.418767	-56.884362	92.16	-0.090	0.040	0.610	92.25	-1.40	1.10	1015.40	26.60	26.70	20.50	20.50	893.0	69.0	68.0	391.0	28.7	349.00	16.50	77.00	11.90	64787	9120.0	27.4	27.3	1581528242	9.61	17.80
12/02/2020 17:24:03	120220	12022020	172403	92.18	12.418768	-56.884315	92.05	0.110	-0.450	0.820	92.13	-1.80	1.30	 	 	 	 	 	 	 	 	 	 	 	 	 	 	 	 	 	 	1581528243	9.55	17.69
12/02/2020 17:24:04	120220	12022020	172404	91.86	12.418767	-56.884272	91.71	0.060	-0.780	1.100	91.77	-2.10	1.60	 	 	 	 	 	 	 	 	 	 	 	 	 	 	 	 	 	 	1581528244	9.18	17.00
12/02/2020 17:24:05	120220	12022020	172405	91.45	12.418767	-56.884228	91.33	-0.030	-1.100	1.350	91.38	-2.40	1.80	 	 	 	 	 	 	 	 	 	 	 	 	 	 	 	 	 	 	1581528245	9.31	17.24
12/02/2020 17:24:06	120220	12022020	172406	91.18	12.418767	-56.884183	91.11	-0.060	-1.040	1.520	91.15	-2.30	2.00	 	 	 	 	 	 	 	 	 	 	 	 	 	 	 	 	 	 	1581528246	9.41	17.43
12/02/2020 17:24:07	120220	12022020	172407	91.15	12.418765	-56.884140	91.14	-0.040	-0.590	1.450	91.17	-1.90	1.90	 	 	 	 	 	 	 	 	 	 	 	 	 	 	 	 	 	 	1581528247	9.09	16.83
12/02/2020 17:24:08	120220	12022020	172408	91.30	12.418763	-56.884098	91.31	0.060	-0.060	1.260	91.33	-1.30	1.70	 	 	 	 	 	 	 	 	 	 	 	 	 	 	 	 	 	 	1581528248	8.92	16.52
12/02/2020 17:24:09	120220	12022020	172409	91.47	12.418763	-56.884057	91.48	0.070	0.510	1.070	91.50	-0.70	1.50	 	 	 	 	 	 	 	 	 	 	 	 	 	 	 	 	 	 	1581528249	8.86	16.41
12/02/2020 17:24:10	120220	12022020	172410	91.58	12.418763	-56.884017	91.56	-0.200	1.000	0.920	91.59	-0.30	1.40	 	 	 	 	 	 	 	 	 	 	 	 	 	 	 	 	 	 	1581528250	8.60	15.93
12/02/2020 17:24:11	120220	12022020	172411	91.57	12.418765	-56.883975	91.52	-0.560	0.880	0.910	91.56	-0.60	1.40	 	 	 	 	 	 	 	 	 	 	 	 	 	 	 	 	 	 	1581528251	8.53	15.80
12/02/2020 17:24:12	120220	12022020	172412	91.45	12.418765	-56.883932	91.37	-0.510	-0.300	0.970	91.42	-1.80	1.40	 	 	 	 	 	 	 	 	 	 	 	 	 	 	 	 	 	 	1581528252	9.31	17.24
12/02/2020 17:24:13	120220	12022020	172413	91.29	12.418767	-56.883883	91.21	0.140	-1.780	1.140	91.26	-3.20	1.60	 	 	 	 	 	 	 	 	 	 	 	 	 	 	 	 	 	 	1581528253	10.34	19.15
12/02/2020 17:24:14	120220	12022020	172414	91.10	12.418767	-56.883835	91.01	0.890	-2.110	1.490	91.07	-3.40	2.00	 	 	 	 	 	 	 	 	 	 	 	 	 	 	 	 	 	 	1581528254	10.25	18.98
12/02/2020 17:24:15	120220	12022020	172415	91.02	12.418768	-56.883793	90.97	0.950	-0.890	1.630	91.02	-2.00	2.10	 	 	 	 	 	 	 	 	 	 	 	 	 	 	 	 	 	 	1581528255	8.80	16.30
12/02/2020 17:24:16	120220	12022020	172416	91.07	12.418770	-56.883757	91.04	0.280	0.460	1.680	91.09	-0.80	2.10	 	 	 	 	 	 	 	 	 	 	 	 	 	 	 	 	 	 	1581528256	7.72	14.30
12/02/2020 17:24:17	120220	12022020	172417	91.15	12.418768	-56.883717	91.12	-0.380	0.650	1.830	91.15	-0.70	2.30	 	 	 	 	 	 	 	 	 	 	 	 	 	 	 	 	 	 	1581528257	8.40	15.56
12/02/2020 17:24:18	120220	12022020	172418	91.15	12.418768	-56.883670	91.11	-0.540	0.090	1.870	91.14	-1.30	2.30	 	 	 	 	 	 	 	 	 	 	 	 	 	 	 	 	 	 	1581528258	9.71	17.98
12/02/2020 17:24:19	120220	12022020	172419	91.04	12.418767	-56.883623	90.99	-0.440	-0.180	1.730	91.02	-1.50	2.10	 	 	 	 	 	 	 	 	 	 	 	 	 	 	 	 	 	 	1581528259	9.84	18.22
12/02/2020 17:24:20	120220	12022020	172420	90.97	12.418768	-56.883580	90.92	-0.330	0.010	1.510	90.98	-1.30	1.90	 	 	 	 	 	 	 	 	 	 	 	 	 	 	 	 	 	 	1581528260	9.15	16.95
12/02/2020 17:24:21	120220	12022020	172421	91.15	12.418770	-56.883540	91.17	-0.190	0.120	1.180	91.22	-1.20	1.60	 	 	 	 	 	 	 	 	 	 	 	 	 	 	 	 	 	 	1581528261	8.73	16.17
12/02/2020 17:24:22	120220	12022020	172422	91.53	12.418773	-56.883497	91.55	0.150	-0.360	0.740	91.60	-1.80	1.10	 	 	 	 	 	 	 	 	 	 	 	 	 	 	 	 	 	 	1581528262	9.10	16.85
12/02/2020 17:24:23	120220	12022020	172423	91.85	12.418777	-56.883450	91.81	0.620	-1.120	0.450	91.88	-2.50	0.90	 	 	 	 	 	 	 	 	 	 	 	 	 	 	 	 	 	 	1581528263	9.92	18.37
12/02/2020 17:24:24	120220	12022020	172424	91.82	12.418778	-56.883403	91.73	0.710	-1.130	0.750	91.77	-2.40	1.30	 	 	 	 	 	 	 	 	 	 	 	 	 	 	 	 	 	 	1581528264	9.78	18.11
12/02/2020 17:24:25	120220	12022020	172425	91.49	12.418777	-56.883362	91.39	0.170	-0.230	1.280	91.42	-1.40	1.80	 	 	 	 	 	 	 	 	 	 	 	 	 	 	 	 	 	 	1581528265	8.68	16.08
12/02/2020 17:24:26	120220	12022020	172426	91.27	12.418777	-56.883325	91.23	-0.510	0.610	1.470	91.26	-0.70	1.90	 	 	 	 	 	 	 	 	 	 	 	 	 	 	 	 	 	 	1581528266	8.02	14.85
12/02/2020 17:24:27	120220	12022020	172427	91.33	12.418778	-56.883283	91.33	-0.590	0.410	1.330	91.36	-1.00	1.70	 	 	 	 	 	 	 	 	 	 	 	 	 	 	 	 	 	 	1581528267	8.67	16.06
12/02/2020 17:24:28	120220	12022020	172428	91.49	12.418780	-56.883237	91.50	-0.100	-0.530	0.930	91.53	-1.90	1.30	 	 	 	 	 	 	 	 	 	 	 	 	 	 	 	 	 	 	1581528268	9.98	18.48
12/02/2020 17:24:29	120220	12022020	172429	91.62	12.418783	-56.883188	91.60	0.250	-0.990	0.840	91.62	-2.30	1.30	 	 	 	 	 	 	 	 	 	 	 	 	 	 	 	 	 	 	1581528269	10.15	18.80
12/02/2020 17:24:30	120220	12022020	172430	91.61	12.418782	-56.883145	91.59	0.120	-0.580	1.330	91.59	-1.80	1.80	 	 	 	 	 	 	 	 	 	 	 	 	 	 	 	 	 	 	1581528270	9.17	16.98
12/02/2020 17:24:31	120220	12022020	172431	91.53	12.418778	-56.883105	91.53	-0.200	0.000	1.540	91.53	-1.30	2.00	 	 	 	 	 	 	 	 	 	 	 	 	 	 	 	 	 	 	1581528271	8.46	15.67
12/02/2020 17:24:32	120220	12022020	172432	91.53	12.418780	-56.883063	91.55	-0.260	-0.080	1.270	91.55	-1.40	1.70	 	 	 	 	 	 	 	 	 	 	 	 	 	 	 	 	 	 	1581528272	8.93	16.54
12/02/2020 17:24:33	120220	12022020	172433	91.62	12.418782	-56.883017	91.63	-0.050	-0.460	1.060	91.63	-1.80	1.50	 	 	 	 	 	 	 	 	 	 	 	 	 	 	 	 	 	 	1581528273	9.73	18.02
12/02/2020 17:24:34	120220	12022020	172434	91.66	12.418783	-56.882972	91.64	0.070	-0.300	0.980	91.66	-1.50	1.40	 	 	 	 	 	 	 	 	 	 	 	 	 	 	 	 	 	 	1581528274	9.53	17.65
12/02/2020 17:24:35	120220	12022020	172435	91.64	12.418783	-56.882930	91.61	0.000	0.270	0.850	91.64	-1.00	1.30	 	 	 	 	 	 	 	 	 	 	 	 	 	 	 	 	 	 	1581528275	8.67	16.06
12/02/2020 17:24:36	120220	12022020	172436	91.74	12.418787	-56.882890	91.73	0.050	0.310	0.560	91.78	-1.10	1.00	 	 	 	 	 	 	 	 	 	 	 	 	 	 	 	 	 	 	1581528276	8.59	15.91
12/02/2020 17:24:37	120220	12022020	172437	91.98	12.418790	-56.882845	91.97	0.390	-0.530	0.290	92.03	-2.00	0.70	 	 	 	 	 	 	 	 	 	 	 	 	 	 	 	 	 	 	1581528277	9.63	17.83
12/02/2020 17:24:38	120220	12022020	172438	92.15	12.418793	-56.882797	92.10	0.660	-1.280	0.410	92.15	-2.60	0.90	 	 	 	 	 	 	 	 	 	 	 	 	 	 	 	 	 	 	1581528278	10.29	19.06
12/02/2020 17:24:39	120220	12022020	172439	92.11	12.418793	-56.882750	92.03	0.350	-0.870	0.840	92.09	-2.10	1.40	 	 	 	 	 	 	 	 	 	 	 	 	 	 	 	 	 	 	1581528279	9.58	17.74
12/02/2020 17:24:40	120220	12022020	172440	91.97	12.418792	-56.882712	91.90	-0.490	0.310	1.530	91.93	-0.90	2.10	 	 	 	 	 	 	 	 	 	 	 	 	 	 	 	 	 	 	1581528280	8.22	15.22
12/02/2020 17:24:41	120220	12022020	172441	91.85	12.418787	-56.882675	91.81	-1.140	0.870	1.880	91.85	-0.50	2.30	 	 	 	 	 	 	 	 	 	 	 	 	 	 	 	 	 	 	1581528281	8.01	14.83
12/02/2020 17:24:42	120220	12022020	172442	91.88	12.418785	-56.882632	91.85	-0.930	0.190	1.490	91.89	-1.30	1.90	 	 	 	 	 	 	 	 	 	 	 	 	 	 	 	 	 	 	1581528282	9.10	16.85
12/02/2020 17:24:43	120220	12022020	172443	91.88	12.418787	-56.882582	91.82	0.030	-1.100	1.070	91.87	-2.60	1.50	 	 	 	 	 	 	 	 	 	 	 	 	 	 	 	 	 	 	1581528283	10.40	19.26
12/02/2020 17:24:44	120220	12022020	172444	91.81	12.418790	-56.882532	91.77	0.890	-1.690	0.910	91.82	-3.00	1.30	 	 	 	 	 	 	 	 	 	 	 	 	 	 	 	 	 	 	1581528284	10.62	19.67
12/02/2020 17:24:45	120220	12022020	172445	91.98	12.418792	-56.882488	91.99	0.890	-0.750	0.760	92.04	-1.90	1.20	 	 	 	 	 	 	 	 	 	 	 	 	 	 	 	 	 	 	1581528285	9.37	17.35
12/02/2020 17:24:46	120220	12022020	172446	92.35	12.418793	-56.882452	92.37	0.100	0.850	0.820	92.41	-0.30	1.30	 	 	 	 	 	 	 	 	 	 	 	 	 	 	 	 	 	 	1581528286	7.74	14.33
12/02/2020 17:24:47	120220	12022020	172447	92.59	12.418793	-56.882415	92.54	-0.690	1.320	1.000	92.60	-0.10	1.50	 	 	 	 	 	 	 	 	 	 	 	 	 	 	 	 	 	 	1581528287	7.76	14.37
12/02/2020 17:24:48	120220	12022020	172448	92.57	12.418792	-56.882370	92.49	-0.690	0.210	1.110	92.55	-1.30	1.60	 	 	 	 	 	 	 	 	 	 	 	 	 	 	 	 	 	 	1581528288	9.40	17.41
12/02/2020 17:24:49	120220	12022020	172449	92.45	12.418792	-56.882320	92.36	-0.020	-1.080	1.260	92.42	-2.50	1.70	 	 	 	 	 	 	 	 	 	 	 	 	 	 	 	 	 	 	1581528289	10.56	19.56
12/02/2020 17:24:50	120220	12022020	172450	92.29	12.418790	-56.882272	92.21	0.520	-1.360	1.440	92.25	-2.60	1.90	 	 	 	 	 	 	 	 	 	 	 	 	 	 	 	 	 	 	1581528290	10.05	18.61
12/02/2020 17:24:51	120220	12022020	172451	92.18	12.418790	-56.882230	92.11	0.500	-0.850	1.190	92.18	-2.10	1.60	 	 	 	 	 	 	 	 	 	 	 	 	 	 	 	 	 	 	1581528291	8.97	16.61
12/02/2020 17:24:52	120220	12022020	172452	92.23	12.418795	-56.882190	92.18	0.170	-0.180	0.680	92.26	-1.40	1.10	 	 	 	 	 	 	 	 	 	 	 	 	 	 	 	 	 	 	1581528292	8.62	15.96
12/02/2020 17:24:53	120220	12022020	172453	92.45	12.418798	-56.882148	92.43	-0.190	0.360	0.580	92.52	-0.90	1.00	 	 	 	 	 	 	 	 	 	 	 	 	 	 	 	 	 	 	1581528293	8.73	16.17
12/02/2020 17:24:54	120220	12022020	172454	92.81	12.418798	-56.882107	92.78	-0.510	0.460	0.570	92.87	-0.90	1.00	 	 	 	 	 	 	 	 	 	 	 	 	 	 	 	 	 	 	1581528294	8.81	16.32
12/02/2020 17:24:55	120220	12022020	172455	92.91	12.418797	-56.882062	92.82	-0.460	-0.210	0.760	92.88	-1.70	1.30	 	 	 	 	 	 	 	 	 	 	 	 	 	 	 	 	 	 	1581528295	9.38	17.37
12/02/2020 17:24:56	120220	12022020	172456	92.70	12.418793	-56.882013	92.62	0.110	-1.190	1.150	92.66	-2.60	1.60	 	 	 	 	 	 	 	 	 	 	 	 	 	 	 	 	 	 	1581528296	10.27	19.02
12/02/2020 17:24:57	120220	12022020	172457	92.63	12.418792	-56.881965	92.61	0.580	-1.260	1.140	92.66	-2.50	1.60	 	 	 	 	 	 	 	 	 	 	 	 	 	 	 	 	 	 	1581528297	10.23	18.95
12/02/2020 17:24:58	120220	12022020	172458	92.91	12.418793	-56.881925	92.91	0.230	0.070	0.760	92.98	-1.00	1.20	 	 	 	 	 	 	 	 	 	 	 	 	 	 	 	 	 	 	1581528298	8.67	16.06
12/02/2020 17:24:59	120220	12022020	172459	93.31	12.418795	-56.881890	93.27	-0.650	1.640	0.280	93.37	0.40	0.70	 	 	 	 	 	 	 	 	 	 	 	 	 	 	 	 	 	 	1581528299	7.25	13.43
12/02/2020 17:25:00	120220	12022020	172500	93.45	12.418797	-56.881855	93.32	-1.020	1.580	-0.010	93.43	0.10	0.50	 	 	 	 	 	 	 	 	 	 	 	 	 	 	 	 	 	 	1581528300	7.57	14.02
12/02/2020 17:25:01	120220	12022020	172501	93.25	12.418797	-56.881807	93.09	-0.200	-0.770	0.260	93.19	-2.40	0.80	 	 	 	 	 	 	 	 	 	 	 	 	 	 	 	 	 	 	1581528301	9.97	18.46
12/02/2020 17:25:02	120220	12022020	172502	92.91	12.418793	-56.881752	92.75	1.180	-3.180	0.630	92.83	-4.60	1.10	1015.50	26.50	26.60	20.20	20.20	891.0	68.0	68.0	391.0	28.7	349.00	16.50	77.00	11.90	64747	10950.0	27.4	27.3	1581528302	11.88	22.00
12/02/2020 17:25:03	120220	12022020	172503	92.64	12.418795	-56.881700	92.58	1.740	-2.700	0.720	92.65	-3.70	1.20	 	 	 	 	 	 	 	 	 	 	 	 	 	 	 	 	 	 	1581528303	10.69	19.80
12/02/2020 17:25:04	120220	12022020	172504	92.91	12.418797	-56.881667	92.97	0.780	0.450	0.890	93.04	-0.50	1.40	 	 	 	 	 	 	 	 	 	 	 	 	 	 	 	 	 	 	1581528304	7.14	13.22
12/02/2020 17:25:05	120220	12022020	172505	93.69	12.418795	-56.881642	93.77	-1.040	3.000	1.380	93.85	1.80	1.90	 	 	 	 	 	 	 	 	 	 	 	 	 	 	 	 	 	 	1581528305	5.41	10.02
12/02/2020 17:25:06	120220	12022020	172506	94.33	12.418788	-56.881608	94.34	-2.190	2.460	1.930	94.39	0.80	2.40	 	 	 	 	 	 	 	 	 	 	 	 	 	 	 	 	 	 	1581528306	7.26	13.45
12/02/2020 17:25:07	120220	12022020	172507	94.30	12.418778	-56.881558	94.17	-1.550	-0.740	2.350	94.19	-2.50	2.90	 	 	 	 	 	 	 	 	 	 	 	 	 	 	 	 	 	 	1581528307	10.71	19.83
12/02/2020 17:25:08	120220	12022020	172508	93.57	12.418768	-56.881502	93.43	0.170	-3.040	2.650	93.42	-4.40	3.10	 	 	 	 	 	 	 	 	 	 	 	 	 	 	 	 	 	 	1581528308	12.11	22.43
12/02/2020 17:25:09	120220	12022020	172509	93.07	12.418767	-56.881457	93.02	1.360	-2.310	2.290	93.04	-3.40	2.60	 	 	 	 	 	 	 	 	 	 	 	 	 	 	 	 	 	 	1581528309	9.61	17.80
12/02/2020 17:25:10	120220	12022020	172510	93.13	12.418770	-56.881423	93.13	1.260	-0.110	1.400	93.17	-1.20	1.70	 	 	 	 	 	 	 	 	 	 	 	 	 	 	 	 	 	 	1581528310	7.02	13.00
12/02/2020 17:25:11	120220	12022020	172511	93.34	12.418778	-56.881392	93.29	0.480	1.100	0.470	93.36	-0.20	0.80	 	 	 	 	 	 	 	 	 	 	 	 	 	 	 	 	 	 	1581528311	6.98	12.93
12/02/2020 17:25:12	120220	12022020	172512	93.44	12.418783	-56.881352	93.38	-0.140	0.850	0.020	93.46	-0.60	0.50	 	 	 	 	 	 	 	 	 	 	 	 	 	 	 	 	 	 	1581528312	8.51	15.76
12/02/2020 17:25:13	120220	12022020	172513	93.55	12.418782	-56.881307	93.47	-0.360	0.170	0.360	93.56	-1.20	0.90	 	 	 	 	 	 	 	 	 	 	 	 	 	 	 	 	 	 	1581528313	9.29	17.21
12/02/2020 17:25:14	120220	12022020	172514	93.48	12.418775	-56.881263	93.35	-0.300	-0.340	0.920	93.42	-1.70	1.40	 	 	 	 	 	 	 	 	 	 	 	 	 	 	 	 	 	 	1581528314	9.19	17.02
12/02/2020 17:25:15	120220	12022020	172515	93.06	12.418772	-56.881222	92.90	-0.130	-0.680	1.210	92.95	-2.00	1.70	 	 	 	 	 	 	 	 	 	 	 	 	 	 	 	 	 	 	1581528315	8.90	16.48
12/02/2020 17:25:16	120220	12022020	172516	92.53	12.418768	-56.881180	92.40	0.140	-1.030	1.600	92.43	-2.40	2.10	 	 	 	 	 	 	 	 	 	 	 	 	 	 	 	 	 	 	1581528316	8.93	16.54
12/02/2020 17:25:17	120220	12022020	172517	92.20	12.418765	-56.881137	92.14	0.430	-1.210	1.760	92.18	-2.50	2.20	 	 	 	 	 	 	 	 	 	 	 	 	 	 	 	 	 	 	1581528317	9.21	17.06
12/02/2020 17:25:18	120220	12022020	172518	92.23	12.418765	-56.881095	92.20	0.420	-0.660	1.320	92.25	-1.90	1.70	 	 	 	 	 	 	 	 	 	 	 	 	 	 	 	 	 	 	1581528318	8.94	16.56
12/02/2020 17:25:19	120220	12022020	172519	92.40	12.418768	-56.881057	92.40	-0.100	0.600	1.080	92.43	-0.60	1.60	 	 	 	 	 	 	 	 	 	 	 	 	 	 	 	 	 	 	1581528319	7.94	14.70
12/02/2020 17:25:20	120220	12022020	172520	92.57	12.418767	-56.881022	92.57	-0.770	1.460	1.280	92.61	0.10	1.80	 	 	 	 	 	 	 	 	 	 	 	 	 	 	 	 	 	 	1581528320	7.29	13.50
12/02/2020 17:25:21	120220	12022020	172521	92.73	12.418763	-56.880983	92.70	-0.790	0.630	1.390	92.74	-0.90	1.90	 	 	 	 	 	 	 	 	 	 	 	 	 	 	 	 	 	 	1581528321	8.28	15.33
12/02/2020 17:25:22	120220	12022020	172522	92.63	12.418758	-56.880935	92.54	0.130	-1.420	1.510	92.58	-3.00	2.00	 	 	 	 	 	 	 	 	 	 	 	 	 	 	 	 	 	 	1581528322	10.29	19.06
12/02/2020 17:25:23	120220	12022020	172523	92.36	12.418757	-56.880885	92.27	1.030	-2.140	1.560	92.31	-3.40	2.00	 	 	 	 	 	 	 	 	 	 	 	 	 	 	 	 	 	 	1581528323	10.62	19.67
12/02/2020 17:25:24	120220	12022020	172524	92.19	12.418758	-56.880845	92.11	1.000	-0.660	1.420	92.17	-1.70	1.90	 	 	 	 	 	 	 	 	 	 	 	 	 	 	 	 	 	 	1581528324	8.26	15.30
12/02/2020 17:25:25	120220	12022020	172525	92.18	12.418762	-56.880815	92.12	0.180	1.220	1.120	92.20	0.00	1.50	 	 	 	 	 	 	 	 	 	 	 	 	 	 	 	 	 	 	1581528325	6.43	11.91
12/02/2020 17:25:26	120220	12022020	172526	92.30	12.418765	-56.880782	92.24	-0.400	1.210	0.710	92.31	-0.30	1.10	 	 	 	 	 	 	 	 	 	 	 	 	 	 	 	 	 	 	1581528326	7.26	13.45
12/02/2020 17:25:27	120220	12022020	172527	92.29	12.418767	-56.880735	92.20	-0.330	-0.380	0.710	92.26	-1.90	1.20	 	 	 	 	 	 	 	 	 	 	 	 	 	 	 	 	 	 	1581528327	9.59	17.76
12/02/2020 17:25:28	120220	12022020	172528	92.12	12.418763	-56.880687	92.03	-0.020	-1.550	1.170	92.07	-2.90	1.70	 	 	 	 	 	 	 	 	 	 	 	 	 	 	 	 	 	 	1581528328	10.23	18.95
12/02/2020 17:25:29	120220	12022020	172529	91.87	12.418758	-56.880645	91.81	0.120	-1.360	1.520	91.83	-2.60	2.00	 	 	 	 	 	 	 	 	 	 	 	 	 	 	 	 	 	 	1581528329	9.17	16.98
12/02/2020 17:25:30	120220	12022020	172530	91.74	12.418757	-56.880607	91.72	0.020	-0.210	1.530	91.75	-1.40	2.00	 	 	 	 	 	 	 	 	 	 	 	 	 	 	 	 	 	 	1581528330	7.84	14.52
12/02/2020 17:25:31	120220	12022020	172531	91.80	12.418757	-56.880572	91.80	-0.230	0.790	1.340	91.82	-0.50	1.80	 	 	 	 	 	 	 	 	 	 	 	 	 	 	 	 	 	 	1581528331	7.37	13.65
12/02/2020 17:25:32	120220	12022020	172532	91.86	12.418757	-56.880535	91.83	-0.450	0.890	1.090	91.84	-0.50	1.50	 	 	 	 	 	 	 	 	 	 	 	 	 	 	 	 	 	 	1581528332	7.86	14.56
12/02/2020 17:25:33	120220	12022020	172533	91.69	12.418757	-56.880493	91.59	-0.300	0.040	1.000	91.63	-1.40	1.50	 	 	 	 	 	 	 	 	 	 	 	 	 	 	 	 	 	 	1581528333	8.78	16.26
12/02/2020 17:25:34	120220	12022020	172534	91.39	12.418757	-56.880448	91.30	0.330	-1.160	0.980	91.34	-2.60	1.40	 	 	 	 	 	 	 	 	 	 	 	 	 	 	 	 	 	 	1581528334	9.64	17.85
12/02/2020 17:25:35	120220	12022020	172535	91.17	12.418760	-56.880402	91.08	0.930	-1.660	1.010	91.14	-2.90	1.50	 	 	 	 	 	 	 	 	 	 	 	 	 	 	 	 	 	 	1581528335	9.73	18.02
12/02/2020 17:25:36	120220	12022020	172536	91.09	12.418762	-56.880362	91.02	0.840	-0.780	1.050	91.10	-1.90	1.50	 	 	 	 	 	 	 	 	 	 	 	 	 	 	 	 	 	 	1581528336	8.59	15.91
12/02/2020 17:25:37	120220	12022020	172537	91.19	12.418765	-56.880327	91.15	0.040	0.620	0.990	91.23	-0.60	1.50	 	 	 	 	 	 	 	 	 	 	 	 	 	 	 	 	 	 	1581528337	7.30	13.52
12/02/2020 17:25:38	120220	12022020	172538	91.46	12.418765	-56.880292	91.45	-0.760	1.030	1.150	91.53	-0.40	1.70	 	 	 	 	 	 	 	 	 	 	 	 	 	 	 	 	 	 	1581528338	7.40	13.70
12/02/2020 17:25:39	120220	12022020	172539	91.70	12.418762	-56.880250	91.67	-0.850	0.050	1.630	91.72	-1.40	2.10	 	 	 	 	 	 	 	 	 	 	 	 	 	 	 	 	 	 	1581528339	8.90	16.48
12/02/2020 17:25:40	120220	12022020	172540	91.69	12.418757	-56.880203	91.60	-0.300	-1.040	1.910	91.64	-2.40	2.40	 	 	 	 	 	 	 	 	 	 	 	 	 	 	 	 	 	 	1581528340	9.97	18.46
12/02/2020 17:25:41	120220	12022020	172541	91.32	12.418755	-56.880158	91.19	0.230	-1.010	1.930	91.22	-2.30	2.40	 	 	 	 	 	 	 	 	 	 	 	 	 	 	 	 	 	 	1581528341	9.33	17.28
12/02/2020 17:25:42	120220	12022020	172542	90.86	12.418755	-56.880122	90.74	0.250	-0.120	1.680	90.80	-1.30	2.10	 	 	 	 	 	 	 	 	 	 	 	 	 	 	 	 	 	 	1581528342	8.04	14.89
12/02/2020 17:25:43	120220	12022020	172543	90.72	12.418760	-56.880085	90.65	-0.020	0.410	1.030	90.74	-0.90	1.40	 	 	 	 	 	 	 	 	 	 	 	 	 	 	 	 	 	 	1581528343	7.72	14.30
12/02/2020 17:25:44	120220	12022020	172544	90.87	12.418767	-56.880045	90.81	-0.060	-0.050	0.370	90.92	-1.50	0.80	 	 	 	 	 	 	 	 	 	 	 	 	 	 	 	 	 	 	1581528344	8.67	16.06
12/02/2020 17:25:45	120220	12022020	172545	91.13	12.418772	-56.880000	91.08	0.270	-0.880	0.070	91.19	-2.30	0.50	 	 	 	 	 	 	 	 	 	 	 	 	 	 	 	 	 	 	1581528345	9.58	17.74
12/02/2020 17:25:46	120220	12022020	172546	91.35	12.418773	-56.879955	91.28	0.630	-1.190	0.260	91.36	-2.50	0.80	 	 	 	 	 	 	 	 	 	 	 	 	 	 	 	 	 	 	1581528346	9.56	17.71
12/02/2020 17:25:47	120220	12022020	172547	91.32	12.418772	-56.879913	91.26	0.570	-0.640	1.040	91.29	-1.80	1.60	 	 	 	 	 	 	 	 	 	 	 	 	 	 	 	 	 	 	1581528347	8.76	16.22
12/02/2020 17:25:48	120220	12022020	172548	91.15	12.418768	-56.879875	91.10	-0.020	0.480	1.670	91.13	-0.70	2.20	 	 	 	 	 	 	 	 	 	 	 	 	 	 	 	 	 	 	1581528348	7.92	14.67
12/02/2020 17:25:49	120220	12022020	172549	91.06	12.418767	-56.879840	91.00	-0.830	1.180	1.810	91.03	-0.10	2.30	 	 	 	 	 	 	 	 	 	 	 	 	 	 	 	 	 	 	1581528349	7.59	14.06
12/02/2020 17:25:50	120220	12022020	172550	90.88	12.418767	-56.879800	90.79	-1.240	0.760	1.820	90.84	-0.70	2.30	 	 	 	 	 	 	 	 	 	 	 	 	 	 	 	 	 	 	1581528350	8.30	15.37
12/02/2020 17:25:51	120220	12022020	172551	90.70	12.418767	-56.879757	90.63	-0.880	-0.480	1.480	90.68	-2.00	1.90	 	 	 	 	 	 	 	 	 	 	 	 	 	 	 	 	 	 	1581528351	9.37	17.35
12/02/2020 17:25:52	120220	12022020	172552	90.70	12.418770	-56.879708	90.67	0.120	-1.690	0.850	90.73	-3.10	1.20	 	 	 	 	 	 	 	 	 	 	 	 	 	 	 	 	 	 	1581528352	9.97	18.46
12/02/2020 17:25:53	120220	12022020	172553	90.95	12.418775	-56.879663	90.96	1.080	-2.000	0.470	91.02	-3.30	0.90	 	 	 	 	 	 	 	 	 	 	 	 	 	 	 	 	 	 	1581528353	9.78	18.11
12/02/2020 17:25:54	120220	12022020	172554	91.25	12.418777	-56.879622	91.22	1.240	-1.100	0.590	91.28	-2.20	1.10	 	 	 	 	 	 	 	 	 	 	 	 	 	 	 	 	 	 	1581528354	8.78	16.26
12/02/2020 17:25:55	120220	12022020	172555	91.20	12.418777	-56.879585	91.11	0.530	0.450	1.030	91.14	-0.70	1.50	 	 	 	 	 	 	 	 	 	 	 	 	 	 	 	 	 	 	1581528355	7.70	14.26
12/02/2020 17:25:56	120220	12022020	172556	90.86	12.418777	-56.879550	90.76	-0.440	1.580	1.370	90.79	0.30	1.80	 	 	 	 	 	 	 	 	 	 	 	 	 	 	 	 	 	 	1581528356	7.37	13.65
12/02/2020 17:25:57	120220	12022020	172557	90.57	12.418777	-56.879512	90.47	-0.900	1.390	1.360	90.53	-0.10	1.80	 	 	 	 	 	 	 	 	 	 	 	 	 	 	 	 	 	 	1581528357	8.16	15.11
12/02/2020 17:25:58	120220	12022020	172558	90.50	12.418782	-56.879467	90.47	-0.720	0.250	1.030	90.53	-1.30	1.40	 	 	 	 	 	 	 	 	 	 	 	 	 	 	 	 	 	 	1581528358	9.41	17.43
12/02/2020 17:25:59	120220	12022020	172559	90.81	12.418787	-56.879422	90.80	-0.240	-0.970	0.590	90.90	-2.40	1.00	 	 	 	 	 	 	 	 	 	 	 	 	 	 	 	 	 	 	1581528359	9.82	18.19
12/02/2020 17:26:00	120220	12022020	172600	91.18	12.418788	-56.879377	91.13	0.200	-1.630	0.620	91.21	-3.00	1.10	 	 	 	 	 	 	 	 	 	 	 	 	 	 	 	 	 	 	1581528360	9.55	17.69
12/02/2020 17:26:01	120220	12022020	172601	91.13	12.418787	-56.879333	91.01	0.370	-1.520	1.130	91.07	-2.80	1.70	 	 	 	 	 	 	 	 	 	 	 	 	 	 	 	 	 	 	1581528361	8.94	16.56
12/02/2020 17:26:02	120220	12022020	172602	90.71	12.418783	-56.879293	90.58	0.350	-0.990	1.530	90.63	-2.20	2.00	1015.50	26.50	26.60	20.10	20.10	891.0	67.0	67.0	391.0	28.7	348.00	16.00	75.00	11.60	64596	6806.0	27.4	27.4	1581528362	8.56	15.85
12/02/2020 17:26:03	120220	12022020	172603	90.47	12.418785	-56.879253	90.42	0.290	-0.220	1.320	90.48	-1.40	1.70	 	 	 	 	 	 	 	 	 	 	 	 	 	 	 	 	 	 	1581528363	8.49	15.72
12/02/2020 17:26:04	120220	12022020	172604	90.70	12.418788	-56.879213	90.70	0.160	0.550	0.750	90.79	-0.70	1.10	 	 	 	 	 	 	 	 	 	 	 	 	 	 	 	 	 	 	1581528364	8.42	15.59
12/02/2020 17:26:05	120220	12022020	172605	91.17	12.418795	-56.879173	91.15	-0.090	0.870	0.240	91.25	-0.50	0.70	 	 	 	 	 	 	 	 	 	 	 	 	 	 	 	 	 	 	1581528365	8.55	15.83
12/02/2020 17:26:06	120220	12022020	172606	91.45	12.418798	-56.879132	91.38	-0.370	0.590	0.100	91.47	-0.80	0.60	 	 	 	 	 	 	 	 	 	 	 	 	 	 	 	 	 	 	1581528366	8.89	16.46
12/02/2020 17:26:07	120220	12022020	172607	91.49	12.418800	-56.879088	91.42	-0.480	-0.080	0.400	91.49	-1.50	0.90	 	 	 	 	 	 	 	 	 	 	 	 	 	 	 	 	 	 	1581528367	9.20	17.04
12/02/2020 17:26:08	120220	12022020	172608	91.54	12.418800	-56.879043	91.48	-0.310	-0.780	0.830	91.55	-2.20	1.30	 	 	 	 	 	 	 	 	 	 	 	 	 	 	 	 	 	 	1581528368	9.38	17.37
12/02/2020 17:26:09	120220	12022020	172609	91.58	12.418798	-56.879000	91.53	0.040	-1.160	1.070	91.59	-2.50	1.50	 	 	 	 	 	 	 	 	 	 	 	 	 	 	 	 	 	 	1581528369	9.29	17.21
12/02/2020 17:26:10	120220	12022020	172610	91.62	12.418800	-56.878957	91.56	0.360	-1.170	0.970	91.62	-2.50	1.40	 	 	 	 	 	 	 	 	 	 	 	 	 	 	 	 	 	 	1581528370	9.11	16.87
12/02/2020 17:26:11	120220	12022020	172611	91.66	12.418802	-56.878915	91.61	0.430	-0.760	0.870	91.67	-2.00	1.30	 	 	 	 	 	 	 	 	 	 	 	 	 	 	 	 	 	 	1581528371	8.96	16.59
12/02/2020 17:26:12	120220	12022020	172612	91.74	12.418803	-56.878873	91.70	0.130	0.090	0.800	91.76	-1.10	1.20	 	 	 	 	 	 	 	 	 	 	 	 	 	 	 	 	 	 	1581528372	8.56	15.85
12/02/2020 17:26:13	120220	12022020	172613	91.85	12.418805	-56.878837	91.78	-0.380	0.880	0.670	91.87	-0.40	1.10	 	 	 	 	 	 	 	 	 	 	 	 	 	 	 	 	 	 	1581528373	8.04	14.89
12/02/2020 17:26:14	120220	12022020	172614	91.98	12.418805	-56.878797	91.92	-0.530	0.740	0.500	92.01	-0.70	0.90	 	 	 	 	 	 	 	 	 	 	 	 	 	 	 	 	 	 	1581528374	8.40	15.56
12/02/2020 17:26:15	120220	12022020	172615	92.08	12.418808	-56.878752	92.00	-0.120	-0.300	0.440	92.09	-1.80	0.90	 	 	 	 	 	 	 	 	 	 	 	 	 	 	 	 	 	 	1581528375	9.61	17.80
12/02/2020 17:26:16	120220	12022020	172616	92.09	12.418810	-56.878703	92.02	0.320	-1.070	0.540	92.10	-2.50	1.00	 	 	 	 	 	 	 	 	 	 	 	 	 	 	 	 	 	 	1581528376	10.04	18.59
12/02/2020 17:26:17	120220	12022020	172617	92.16	12.418810	-56.878660	92.14	0.320	-1.040	0.850	92.20	-2.40	1.40	 	 	 	 	 	 	 	 	 	 	 	 	 	 	 	 	 	 	1581528377	9.31	17.24
12/02/2020 17:26:18	120220	12022020	172618	92.41	12.418807	-56.878618	92.43	0.030	-0.540	1.240	92.48	-1.80	1.70	 	 	 	 	 	 	 	 	 	 	 	 	 	 	 	 	 	 	1581528378	8.54	15.82
12/02/2020 17:26:19	120220	12022020	172619	92.64	12.418805	-56.878580	92.60	-0.010	-0.180	1.390	92.64	-1.50	1.90	 	 	 	 	 	 	 	 	 	 	 	 	 	 	 	 	 	 	1581528379	8.42	15.59
12/02/2020 17:26:20	120220	12022020	172620	92.45	12.418805	-56.878537	92.36	0.330	-0.280	1.360	92.39	-1.60	1.80	 	 	 	 	 	 	 	 	 	 	 	 	 	 	 	 	 	 	1581528380	9.12	16.89
12/02/2020 17:26:21	120220	12022020	172621	92.23	12.418807	-56.878492	92.18	0.430	-0.130	1.220	92.23	-1.40	1.70	 	 	 	 	 	 	 	 	 	 	 	 	 	 	 	 	 	 	1581528381	9.43	17.46
12/02/2020 17:26:22	120220	12022020	172622	92.37	12.418810	-56.878450	92.40	-0.100	0.520	1.030	92.46	-0.80	1.40	 	 	 	 	 	 	 	 	 	 	 	 	 	 	 	 	 	 	1581528382	8.70	16.11
12/02/2020 17:26:23	120220	12022020	172623	92.88	12.418813	-56.878412	92.94	-0.890	0.820	0.700	93.01	-0.60	1.10	 	 	 	 	 	 	 	 	 	 	 	 	 	 	 	 	 	 	1581528383	8.09	14.98
12/02/2020 17:26:24	120220	12022020	172624	93.40	12.418812	-56.878370	93.40	-1.040	-0.070	0.560	93.48	-1.60	1.00	 	 	 	 	 	 	 	 	 	 	 	 	 	 	 	 	 	 	1581528384	8.81	16.32
12/02/2020 17:26:25	120220	12022020	172625	93.58	12.418808	-56.878323	93.49	-0.150	-1.630	0.990	93.55	-3.20	1.50	 	 	 	 	 	 	 	 	 	 	 	 	 	 	 	 	 	 	1581528385	10.17	18.83
12/02/2020 17:26:26	120220	12022020	172626	93.19	12.418803	-56.878273	93.04	1.010	-2.350	1.650	93.09	-3.70	2.20	 	 	 	 	 	 	 	 	 	 	 	 	 	 	 	 	 	 	1581528386	10.60	19.63
12/02/2020 17:26:27	120220	12022020	172627	92.79	12.418802	-56.878228	92.73	1.250	-1.190	1.790	92.77	-2.30	2.20	 	 	 	 	 	 	 	 	 	 	 	 	 	 	 	 	 	 	1581528387	9.30	17.22
12/02/2020 17:26:28	120220	12022020	172628	92.92	12.418802	-56.878193	92.95	0.350	0.990	1.530	93.02	-0.10	1.90	 	 	 	 	 	 	 	 	 	 	 	 	 	 	 	 	 	 	1581528388	7.41	13.72
12/02/2020 17:26:29	120220	12022020	172629	93.49	12.418805	-56.878162	93.53	-0.920	2.470	1.040	93.62	1.10	1.40	 	 	 	 	 	 	 	 	 	 	 	 	 	 	 	 	 	 	1581528389	6.78	12.56
12/02/2020 17:26:30	120220	12022020	172630	94.04	12.418807	-56.878125	94.02	-1.520	1.910	0.480	94.12	0.30	0.90	 	 	 	 	 	 	 	 	 	 	 	 	 	 	 	 	 	 	1581528390	7.91	14.65
12/02/2020 17:26:31	120220	12022020	172631	94.21	12.418807	-56.878077	94.09	-0.890	-0.530	0.350	94.17	-2.20	0.90	 	 	 	 	 	 	 	 	 	 	 	 	 	 	 	 	 	 	1581528391	10.02	18.56
12/02/2020 17:26:32	120220	12022020	172632	93.90	12.418803	-56.878023	93.74	0.490	-2.920	0.670	93.83	-4.40	1.20	 	 	 	 	 	 	 	 	 	 	 	 	 	 	 	 	 	 	1581528392	11.37	21.06
12/02/2020 17:26:33	120220	12022020	172633	93.66	12.418800	-56.877975	93.57	1.420	-3.020	0.860	93.65	-4.20	1.30	 	 	 	 	 	 	 	 	 	 	 	 	 	 	 	 	 	 	1581528393	10.44	19.33
12/02/2020 17:26:34	120220	12022020	172634	93.82	12.418800	-56.877937	93.80	1.100	-0.910	0.860	93.90	-1.90	1.30	 	 	 	 	 	 	 	 	 	 	 	 	 	 	 	 	 	 	1581528394	7.89	14.61
12/02/2020 17:26:35	120220	12022020	172635	94.24	12.418800	-56.877907	94.21	-0.080	1.330	0.700	94.31	0.20	1.10	 	 	 	 	 	 	 	 	 	 	 	 	 	 	 	 	 	 	1581528395	6.53	12.09
12/02/2020 17:26:36	120220	12022020	172636	94.47	12.418798	-56.877872	94.38	-1.000	2.150	0.620	94.46	0.80	1.10	 	 	 	 	 	 	 	 	 	 	 	 	 	 	 	 	 	 	1581528396	7.15	13.24
12/02/2020 17:26:37	120220	12022020	172637	94.31	12.418795	-56.877832	94.19	-0.970	1.320	0.850	94.25	-0.30	1.40	 	 	 	 	 	 	 	 	 	 	 	 	 	 	 	 	 	 	1581528397	8.69	16.09
12/02/2020 17:26:38	120220	12022020	172638	94.03	12.418793	-56.877783	93.94	-0.140	-0.640	1.040	94.00	-2.30	1.50	 	 	 	 	 	 	 	 	 	 	 	 	 	 	 	 	 	 	1581528398	10.20	18.89
12/02/2020 17:26:39	120220	12022020	172639	93.92	12.418792	-56.877732	93.87	0.640	-2.190	0.900	93.92	-3.60	1.40	 	 	 	 	 	 	 	 	 	 	 	 	 	 	 	 	 	 	1581528399	10.77	19.95
12/02/2020 17:26:40	120220	12022020	172640	93.92	12.418790	-56.877687	93.87	0.610	-1.890	0.990	93.91	-3.10	1.50	 	 	 	 	 	 	 	 	 	 	 	 	 	 	 	 	 	 	1581528400	9.61	17.80
12/02/2020 17:26:41	120220	12022020	172641	93.88	12.418785	-56.877652	93.86	-0.120	0.040	1.310	93.88	-1.10	1.80	 	 	 	 	 	 	 	 	 	 	 	 	 	 	 	 	 	 	1581528401	7.44	13.78
12/02/2020 17:26:42	120220	12022020	172642	93.86	12.418782	-56.877622	93.82	-0.800	1.730	1.470	93.85	0.40	1.90	 	 	 	 	 	 	 	 	 	 	 	 	 	 	 	 	 	 	1581528402	6.41	11.87
12/02/2020 17:26:43	120220	12022020	172643	93.77	12.418780	-56.877587	93.71	-0.620	1.360	1.290	93.74	-0.20	1.70	 	 	 	 	 	 	 	 	 	 	 	 	 	 	 	 	 	 	1581528403	7.58	14.04
12/02/2020 17:26:44	120220	12022020	172644	93.59	12.418780	-56.877538	93.52	0.390	-0.790	0.910	93.55	-2.40	1.40	 	 	 	 	 	 	 	 	 	 	 	 	 	 	 	 	 	 	1581528404	10.06	18.63
12/02/2020 17:26:45	120220	12022020	172645	93.41	12.418782	-56.877485	93.35	1.330	-2.530	0.900	93.38	-3.90	1.40	 	 	 	 	 	 	 	 	 	 	 	 	 	 	 	 	 	 	1581528405	11.15	20.65
12/02/2020 17:26:46	120220	12022020	172646	93.37	12.418780	-56.877440	93.35	1.230	-1.910	1.110	93.40	-3.00	1.60	 	 	 	 	 	 	 	 	 	 	 	 	 	 	 	 	 	 	1581528406	9.66	17.89
12/02/2020 17:26:47	120220	12022020	172647	93.57	12.418778	-56.877407	93.60	0.050	0.520	1.260	93.63	-0.50	1.70	 	 	 	 	 	 	 	 	 	 	 	 	 	 	 	 	 	 	1581528407	6.97	12.91
12/02/2020 17:26:48	120220	12022020	172648	93.86	12.418775	-56.877380	93.86	-1.280	2.410	1.500	93.90	1.10	2.00	 	 	 	 	 	 	 	 	 	 	 	 	 	 	 	 	 	 	1581528408	5.90	10.93
12/02/2020 17:26:49	120220	12022020	172649	93.96	12.418770	-56.877345	93.90	-1.700	1.910	1.790	93.93	0.30	2.30	 	 	 	 	 	 	 	 	 	 	 	 	 	 	 	 	 	 	1581528409	7.40	13.70
12/02/2020 17:26:50	120220	12022020	172650	93.72	12.418765	-56.877298	93.59	-0.920	-0.480	1.710	93.64	-2.20	2.10	 	 	 	 	 	 	 	 	 	 	 	 	 	 	 	 	 	 	1581528410	9.95	18.43
12/02/2020 17:26:51	120220	12022020	172651	93.31	12.418762	-56.877247	93.19	0.410	-2.450	1.500	93.26	-3.90	1.90	 	 	 	 	 	 	 	 	 	 	 	 	 	 	 	 	 	 	1581528411	10.91	20.21
12/02/2020 17:26:52	120220	12022020	172652	93.18	12.418762	-56.877200	93.13	1.390	-2.470	1.310	93.21	-3.70	1.70	 	 	 	 	 	 	 	 	 	 	 	 	 	 	 	 	 	 	1581528412	9.70	17.96
12/02/2020 17:26:53	120220	12022020	172653	93.38	12.418763	-56.877163	93.36	1.470	-0.990	0.860	93.43	-2.10	1.30	 	 	 	 	 	 	 	 	 	 	 	 	 	 	 	 	 	 	1581528413	7.92	14.67
12/02/2020 17:26:54	120220	12022020	172654	93.50	12.418767	-56.877128	93.41	0.800	0.620	0.520	93.48	-0.60	1.00	 	 	 	 	 	 	 	 	 	 	 	 	 	 	 	 	 	 	1581528414	7.21	13.35
12/02/2020 17:26:55	120220	12022020	172655	93.25	12.418767	-56.877093	93.10	-0.150	1.470	0.860	93.16	0.10	1.40	 	 	 	 	 	 	 	 	 	 	 	 	 	 	 	 	 	 	1581528415	7.48	13.85
12/02/2020 17:26:56	120220	12022020	172656	92.80	12.418763	-56.877055	92.67	-0.890	1.290	1.380	92.73	-0.20	1.90	 	 	 	 	 	 	 	 	 	 	 	 	 	 	 	 	 	 	1581528416	8.20	15.19
12/02/2020 17:26:57	120220	12022020	172657	92.59	12.418762	-56.877013	92.53	-1.090	0.320	1.490	92.59	-1.20	1.90	 	 	 	 	 	 	 	 	 	 	 	 	 	 	 	 	 	 	1581528417	8.99	16.65
12/02/2020 17:26:58	120220	12022020	172658	92.63	12.418758	-56.876968	92.60	-0.710	-0.820	1.450	92.65	-2.30	1.90	 	 	 	 	 	 	 	 	 	 	 	 	 	 	 	 	 	 	1581528418	9.41	17.43
12/02/2020 17:26:59	120220	12022020	172659	92.65	12.418757	-56.876923	92.58	-0.080	-1.580	1.380	92.62	-3.00	1.80	 	 	 	 	 	 	 	 	 	 	 	 	 	 	 	 	 	 	1581528419	9.34	17.30
12/02/2020 17:27:00	120220	12022020	172700	92.33	12.418753	-56.876882	92.20	0.440	-1.640	1.660	92.22	-2.90	2.20	 	 	 	 	 	 	 	 	 	 	 	 	 	 	 	 	 	 	1581528420	9.00	16.67
12/02/2020 17:27:01	120220	12022020	172701	91.71	12.418750	-56.876842	91.58	0.670	-1.010	1.990	91.59	-2.30	2.40	 	 	 	 	 	 	 	 	 	 	 	 	 	 	 	 	 	 	1581528421	8.45	15.65
12/02/2020 17:27:02	120220	12022020	172702	91.29	12.418750	-56.876803	91.24	0.660	-0.170	1.720	91.27	-1.40	2.10	1015.40	26.60	26.60	20.40	20.40	885.0	68.0	68.0	392.0	28.7	348.00	15.80	76.00	11.40	64242	9302.0	27.4	27.4	1581528422	8.19	15.17
12/02/2020 17:27:03	120220	12022020	172703	91.29	12.418752	-56.876763	91.25	0.440	0.530	1.090	91.31	-0.80	1.50	 	 	 	 	 	 	 	 	 	 	 	 	 	 	 	 	 	 	1581528423	8.29	15.35
12/02/2020 17:27:04	120220	12022020	172704	91.41	12.418757	-56.876725	91.34	0.090	0.870	0.390	91.43	-0.50	0.80	 	 	 	 	 	 	 	 	 	 	 	 	 	 	 	 	 	 	1581528424	8.42	15.59
12/02/2020 17:27:05	120220	12022020	172705	91.47	12.418762	-56.876683	91.39	-0.200	0.620	0.190	91.47	-0.80	0.70	 	 	 	 	 	 	 	 	 	 	 	 	 	 	 	 	 	 	1581528425	8.72	16.15
12/02/2020 17:27:06	120220	12022020	172706	91.40	12.418762	-56.876640	91.30	-0.330	-0.010	0.650	91.36	-1.50	1.20	 	 	 	 	 	 	 	 	 	 	 	 	 	 	 	 	 	 	1581528426	9.06	16.78
12/02/2020 17:27:07	120220	12022020	172707	91.18	12.418760	-56.876597	91.09	-0.290	-0.680	1.330	91.13	-2.10	1.90	 	 	 	 	 	 	 	 	 	 	 	 	 	 	 	 	 	 	1581528427	9.12	16.89
12/02/2020 17:27:08	120220	12022020	172708	90.98	12.418757	-56.876555	90.93	-0.130	-1.110	1.900	90.96	-2.50	2.40	 	 	 	 	 	 	 	 	 	 	 	 	 	 	 	 	 	 	1581528428	9.14	16.93
12/02/2020 17:27:09	120220	12022020	172709	90.96	12.418755	-56.876513	90.95	-0.050	-0.930	2.120	90.97	-2.20	2.50	 	 	 	 	 	 	 	 	 	 	 	 	 	 	 	 	 	 	1581528429	8.79	16.28
12/02/2020 17:27:10	120220	12022020	172710	90.97	12.418753	-56.876473	90.93	-0.030	-0.460	2.030	90.95	-1.80	2.50	 	 	 	 	 	 	 	 	 	 	 	 	 	 	 	 	 	 	1581528430	8.30	15.37
12/02/2020 17:27:11	120220	12022020	172711	90.73	12.418753	-56.876433	90.63	0.100	-0.350	1.990	90.65	-1.70	2.40	 	 	 	 	 	 	 	 	 	 	 	 	 	 	 	 	 	 	1581528431	8.52	15.78
12/02/2020 17:27:12	120220	12022020	172712	90.41	12.418753	-56.876390	90.35	0.390	-0.580	1.760	90.39	-1.90	2.10	 	 	 	 	 	 	 	 	 	 	 	 	 	 	 	 	 	 	1581528432	9.20	17.04
12/02/2020 17:27:13	120220	12022020	172713	90.52	12.418758	-56.876345	90.53	0.550	-0.430	1.040	90.61	-1.70	1.40	 	 	 	 	 	 	 	 	 	 	 	 	 	 	 	 	 	 	1581528433	9.43	17.46
12/02/2020 17:27:14	120220	12022020	172714	91.08	12.418765	-56.876305	91.10	0.210	0.500	0.330	91.20	-0.70	0.70	 	 	 	 	 	 	 	 	 	 	 	 	 	 	 	 	 	 	1581528434	8.58	15.89
12/02/2020 17:27:15	120220	12022020	172715	91.55	12.418770	-56.876268	91.48	-0.490	1.190	0.220	91.58	-0.20	0.70	 	 	 	 	 	 	 	 	 	 	 	 	 	 	 	 	 	 	1581528435	7.72	14.30
12/02/2020 17:27:16	120220	12022020	172716	91.53	12.418768	-56.876230	91.40	-0.860	0.630	0.740	91.48	-0.90	1.30	 	 	 	 	 	 	 	 	 	 	 	 	 	 	 	 	 	 	1581528436	8.29	15.35
12/02/2020 17:27:17	120220	12022020	172717	91.23	12.418765	-56.876183	91.10	-0.470	-0.860	1.290	91.16	-2.40	1.80	 	 	 	 	 	 	 	 	 	 	 	 	 	 	 	 	 	 	1581528437	9.69	17.95
12/02/2020 17:27:18	120220	12022020	172718	91.01	12.418763	-56.876135	90.93	0.350	-1.900	1.510	90.99	-3.30	1.90	 	 	 	 	 	 	 	 	 	 	 	 	 	 	 	 	 	 	1581528438	10.20	18.89
12/02/2020 17:27:19	120220	12022020	172719	91.08	12.418765	-56.876092	91.05	0.880	-1.610	1.300	91.12	-2.80	1.70	 	 	 	 	 	 	 	 	 	 	 	 	 	 	 	 	 	 	1581528439	9.30	17.22
12/02/2020 17:27:20	120220	12022020	172720	91.30	12.418768	-56.876053	91.26	0.810	-0.640	0.950	91.34	-1.90	1.40	 	 	 	 	 	 	 	 	 	 	 	 	 	 	 	 	 	 	1581528440	8.29	15.35
12/02/2020 17:27:21	120220	12022020	172721	91.34	12.418770	-56.876013	91.24	0.300	0.230	0.970	91.30	-1.00	1.50	 	 	 	 	 	 	 	 	 	 	 	 	 	 	 	 	 	 	1581528441	8.22	15.22
12/02/2020 17:27:22	120220	12022020	172722	91.03	12.418770	-56.875975	90.89	-0.430	0.940	1.220	90.96	-0.40	1.70	 	 	 	 	 	 	 	 	 	 	 	 	 	 	 	 	 	 	1581528442	8.32	15.41
12/02/2020 17:27:23	120220	12022020	172723	90.71	12.418770	-56.875935	90.59	-1.090	1.300	1.070	90.67	-0.10	1.50	 	 	 	 	 	 	 	 	 	 	 	 	 	 	 	 	 	 	1581528443	8.19	15.17
12/02/2020 17:27:24	120220	12022020	172724	90.66	12.418773	-56.875895	90.59	-1.200	0.750	0.610	90.69	-0.80	1.00	 	 	 	 	 	 	 	 	 	 	 	 	 	 	 	 	 	 	1581528444	8.56	15.85
12/02/2020 17:27:25	120220	12022020	172725	90.89	12.418777	-56.875850	90.84	-0.580	-0.660	0.270	90.95	-2.20	0.70	 	 	 	 	 	 	 	 	 	 	 	 	 	 	 	 	 	 	1581528445	9.56	17.71
12/02/2020 17:27:26	120220	12022020	172726	91.19	12.418778	-56.875802	91.13	0.400	-2.020	0.300	91.24	-3.50	0.80	 	 	 	 	 	 	 	 	 	 	 	 	 	 	 	 	 	 	1581528446	10.18	18.85
12/02/2020 17:27:27	120220	12022020	172727	91.24	12.418777	-56.875755	91.12	1.190	-2.330	0.810	91.19	-3.60	1.30	 	 	 	 	 	 	 	 	 	 	 	 	 	 	 	 	 	 	1581528447	9.90	18.33
12/02/2020 17:27:28	120220	12022020	172728	90.74	12.418773	-56.875713	90.58	1.290	-1.250	1.520	90.62	-2.40	2.00	 	 	 	 	 	 	 	 	 	 	 	 	 	 	 	 	 	 	1581528448	8.91	16.50
12/02/2020 17:27:29	120220	12022020	172729	90.17	12.418773	-56.875677	90.05	0.500	0.690	1.860	90.10	-0.40	2.30	 	 	 	 	 	 	 	 	 	 	 	 	 	 	 	 	 	 	1581528449	7.65	14.17
12/02/2020 17:27:30	120220	12022020	172730	90.08	12.418778	-56.875643	90.06	-0.670	2.110	1.440	90.13	0.80	1.80	 	 	 	 	 	 	 	 	 	 	 	 	 	 	 	 	 	 	1581528450	7.11	13.17
12/02/2020 17:27:31	120220	12022020	172731	90.48	12.418785	-56.875607	90.51	-1.270	1.910	0.760	90.59	0.40	1.10	 	 	 	 	 	 	 	 	 	 	 	 	 	 	 	 	 	 	1581528451	8.00	14.82
12/02/2020 17:27:32	120220	12022020	172732	91.04	12.418790	-56.875562	91.05	-0.860	0.140	0.300	91.15	-1.50	0.70	 	 	 	 	 	 	 	 	 	 	 	 	 	 	 	 	 	 	1581528452	9.58	17.74
12/02/2020 17:27:33	120220	12022020	172733	91.55	12.418792	-56.875512	91.52	0.050	-1.870	0.370	91.60	-3.40	0.90	 	 	 	 	 	 	 	 	 	 	 	 	 	 	 	 	 	 	1581528453	10.66	19.74
12/02/2020 17:27:34	120220	12022020	172734	91.52	12.418788	-56.875463	91.39	0.620	-2.470	1.150	91.43	-3.80	1.70	 	 	 	 	 	 	 	 	 	 	 	 	 	 	 	 	 	 	1581528454	10.16	18.82
12/02/2020 17:27:35	120220	12022020	172735	90.99	12.418783	-56.875423	90.83	0.500	-1.470	1.750	90.86	-2.60	2.20	 	 	 	 	 	 	 	 	 	 	 	 	 	 	 	 	 	 	1581528455	8.54	15.82
12/02/2020 17:27:36	120220	12022020	172736	90.56	12.418785	-56.875387	90.49	0.090	-0.050	1.540	90.55	-1.30	1.90	 	 	 	 	 	 	 	 	 	 	 	 	 	 	 	 	 	 	1581528456	7.58	14.04
12/02/2020 17:27:37	120220	12022020	172737	90.74	12.418790	-56.875350	90.72	-0.130	0.830	0.690	90.82	-0.50	1.00	 	 	 	 	 	 	 	 	 	 	 	 	 	 	 	 	 	 	1581528457	7.98	14.78
12/02/2020 17:27:38	120220	12022020	172738	91.22	12.418797	-56.875310	91.22	-0.220	1.160	-0.090	91.35	-0.20	0.30	 	 	 	 	 	 	 	 	 	 	 	 	 	 	 	 	 	 	1581528458	8.61	15.95
12/02/2020 17:27:39	120220	12022020	172739	91.91	12.418803	-56.875268	91.93	-0.400	1.100	-0.650	92.06	-0.30	-0.20	 	 	 	 	 	 	 	 	 	 	 	 	 	 	 	 	 	 	1581528459	8.68	16.08
12/02/2020 17:27:40	120220	12022020	172740	92.52	12.418807	-56.875228	92.46	-0.530	0.320	-0.460	92.57	-1.20	0.10	 	 	 	 	 	 	 	 	 	 	 	 	 	 	 	 	 	 	1581528460	8.71	16.13
12/02/2020 17:27:41	120220	12022020	172741	92.46	12.418803	-56.875183	92.28	-0.150	-1.310	0.530	92.36	-2.90	1.10	 	 	 	 	 	 	 	 	 	 	 	 	 	 	 	 	 	 	1581528461	9.49	17.58
12/02/2020 17:27:42	120220	12022020	172742	91.82	12.418798	-56.875133	91.67	0.660	-2.760	1.450	91.72	-4.20	1.90	 	 	 	 	 	 	 	 	 	 	 	 	 	 	 	 	 	 	1581528462	10.46	19.37
12/02/2020 17:27:43	120220	12022020	172743	91.63	12.418798	-56.875088	91.61	1.050	-2.240	1.620	91.67	-3.40	2.00	 	 	 	 	 	 	 	 	 	 	 	 	 	 	 	 	 	 	1581528463	9.72	18.00
12/02/2020 17:27:44	120220	12022020	172744	92.02	12.418800	-56.875052	92.06	0.590	-0.050	1.340	92.14	-1.10	1.70	 	 	 	 	 	 	 	 	 	 	 	 	 	 	 	 	 	 	1581528464	7.56	14.00
12/02/2020 17:27:45	120220	12022020	172745	92.64	12.418803	-56.875020	92.69	-0.310	1.810	0.910	92.79	0.50	1.30	 	 	 	 	 	 	 	 	 	 	 	 	 	 	 	 	 	 	1581528465	6.64	12.30
12/02/2020 17:27:46	120220	12022020	172746	93.28	12.418805	-56.874983	93.29	-0.870	1.890	0.450	93.37	0.40	0.90	 	 	 	 	 	 	 	 	 	 	 	 	 	 	 	 	 	 	1581528466	7.76	14.37
12/02/2020 17:27:47	120220	12022020	172747	93.58	12.418805	-56.874940	93.54	-0.860	0.560	0.410	93.59	-1.00	0.90	 	 	 	 	 	 	 	 	 	 	 	 	 	 	 	 	 	 	1581528467	9.44	17.48
12/02/2020 17:27:48	120220	12022020	172748	93.53	12.418802	-56.874892	93.46	-0.510	-0.850	0.660	93.50	-2.30	1.10	 	 	 	 	 	 	 	 	 	 	 	 	 	 	 	 	 	 	1581528468	10.04	18.59
12/02/2020 17:27:49	120220	12022020	172749	93.34	12.418800	-56.874848	93.27	-0.010	-1.360	0.780	93.30	-2.70	1.20	 	 	 	 	 	 	 	 	 	 	 	 	 	 	 	 	 	 	1581528469	9.41	17.43
12/02/2020 17:27:50	120220	12022020	172750	93.27	12.418802	-56.874807	93.24	0.410	-1.140	0.560	93.29	-2.50	1.00	 	 	 	 	 	 	 	 	 	 	 	 	 	 	 	 	 	 	1581528470	8.62	15.96
12/02/2020 17:27:51	120220	12022020	172751	93.46	12.418803	-56.874767	93.46	0.590	-0.790	0.380	93.51	-2.10	0.80	 	 	 	 	 	 	 	 	 	 	 	 	 	 	 	 	 	 	1581528471	8.40	15.56
12/02/2020 17:27:52	120220	12022020	172752	93.61	12.418803	-56.874727	93.57	0.580	-0.600	0.620	93.61	-1.90	1.10	 	 	 	 	 	 	 	 	 	 	 	 	 	 	 	 	 	 	1581528472	8.63	15.98
12/02/2020 17:27:53	120220	12022020	172753	93.54	12.418802	-56.874685	93.47	0.480	-0.280	0.870	93.52	-1.60	1.30	 	 	 	 	 	 	 	 	 	 	 	 	 	 	 	 	 	 	1581528473	8.82	16.33
12/02/2020 17:27:54	120220	12022020	172754	93.39	12.418800	-56.874643	93.31	0.310	0.190	1.010	93.35	-1.10	1.50	 	 	 	 	 	 	 	 	 	 	 	 	 	 	 	 	 	 	1581528474	8.61	15.95
12/02/2020 17:27:55	120220	12022020	172755	93.12	12.418798	-56.874603	93.01	0.080	0.420	1.200	93.05	-0.90	1.70	 	 	 	 	 	 	 	 	 	 	 	 	 	 	 	 	 	 	1581528475	8.56	15.85
12/02/2020 17:27:56	120220	12022020	172756	92.85	12.418800	-56.874562	92.78	-0.200	0.340	1.140	92.83	-1.10	1.60	 	 	 	 	 	 	 	 	 	 	 	 	 	 	 	 	 	 	1581528476	8.85	16.39
12/02/2020 17:27:57	120220	12022020	172757	92.90	12.418803	-56.874518	92.88	-0.570	0.160	0.810	92.94	-1.20	1.20	 	 	 	 	 	 	 	 	 	 	 	 	 	 	 	 	 	 	1581528477	8.97	16.61
12/02/2020 17:27:58	120220	12022020	172758	93.17	12.418803	-56.874478	93.17	-0.900	-0.110	0.800	93.23	-1.50	1.30	 	 	 	 	 	 	 	 	 	 	 	 	 	 	 	 	 	 	1581528478	8.80	16.30
12/02/2020 17:27:59	120220	12022020	172759	93.42	12.418798	-56.874435	93.42	-0.880	-0.620	1.130	93.45	-2.00	1.60	 	 	 	 	 	 	 	 	 	 	 	 	 	 	 	 	 	 	1581528479	8.98	16.63
12/02/2020 17:28:00	120220	12022020	172800	93.43	12.418790	-56.874392	93.37	-0.310	-1.070	1.500	93.38	-2.50	2.00	 	 	 	 	 	 	 	 	 	 	 	 	 	 	 	 	 	 	1581528480	9.22	17.08
12/02/2020 17:28:01	120220	12022020	172801	92.97	12.418785	-56.874348	92.83	0.670	-1.390	1.720	92.83	-2.80	2.20	 	 	 	 	 	 	 	 	 	 	 	 	 	 	 	 	 	 	1581528481	9.26	17.15
12/02/2020 17:28:02	120220	12022020	172802	92.31	12.418787	-56.874303	92.23	1.620	-1.490	1.460	92.23	-2.80	1.80	1015.50	26.60	26.60	20.60	20.60	881.0	69.0	69.0	392.0	28.7	348.00	16.00	75.00	11.60	64091	18165.0	27.4	27.4	1581528482	9.58	17.74
12/02/2020 17:28:03	120220	12022020	172803	92.25	12.418793	-56.874258	92.32	1.700	-0.680	0.910	92.35	-1.80	1.30	 	 	 	 	 	 	 	 	 	 	 	 	 	 	 	 	 	 	1581528483	9.59	17.76
12/02/2020 17:28:04	120220	12022020	172804	92.94	12.418798	-56.874222	93.09	0.490	1.240	0.700	93.13	0.10	1.20	 	 	 	 	 	 	 	 	 	 	 	 	 	 	 	 	 	 	1581528484	7.99	14.80
12/02/2020 17:28:05	120220	12022020	172805	93.77	12.418798	-56.874190	93.84	-1.310	2.860	0.890	93.87	1.60	1.40	 	 	 	 	 	 	 	 	 	 	 	 	 	 	 	 	 	 	1581528485	6.59	12.20
12/02/2020 17:28:06	120220	12022020	172806	94.02	12.418793	-56.874157	94.00	-2.300	2.420	1.380	94.01	0.80	1.90	 	 	 	 	 	 	 	 	 	 	 	 	 	 	 	 	 	 	1581528486	7.24	13.41
12/02/2020 17:28:07	120220	12022020	172807	93.88	12.418788	-56.874110	93.84	-1.550	-0.420	1.740	93.85	-2.20	2.20	 	 	 	 	 	 	 	 	 	 	 	 	 	 	 	 	 	 	1581528487	9.70	17.96
12/02/2020 17:28:08	120220	12022020	172808	93.76	12.418783	-56.874057	93.75	0.350	-3.570	1.860	93.75	-5.20	2.30	 	 	 	 	 	 	 	 	 	 	 	 	 	 	 	 	 	 	1581528488	11.60	21.48
12/02/2020 17:28:09	120220	12022020	172809	93.68	12.418782	-56.874003	93.64	1.830	-4.250	1.660	93.64	-5.40	2.10	 	 	 	 	 	 	 	 	 	 	 	 	 	 	 	 	 	 	1581528489	10.97	20.32
12/02/2020 17:28:10	120220	12022020	172810	93.49	12.418783	-56.873965	93.44	1.740	-1.790	1.150	93.46	-2.70	1.50	 	 	 	 	 	 	 	 	 	 	 	 	 	 	 	 	 	 	1581528490	8.09	14.98
12/02/2020 17:28:11	120220	12022020	172811	93.33	12.418787	-56.873938	93.29	0.380	1.660	0.630	93.32	0.60	1.00	 	 	 	 	 	 	 	 	 	 	 	 	 	 	 	 	 	 	1581528491	5.80	10.74
12/02/2020 17:28:12	120220	12022020	172812	93.40	12.418790	-56.873910	93.39	-1.010	3.420	0.140	93.44	2.00	0.50	 	 	 	 	 	 	 	 	 	 	 	 	 	 	 	 	 	 	1581528492	5.93	10.98
12/02/2020 17:28:13	120220	12022020	172813	93.60	12.418793	-56.873872	93.56	-1.410	2.350	-0.170	93.63	0.70	0.30	 	 	 	 	 	 	 	 	 	 	 	 	 	 	 	 	 	 	1581528493	8.14	15.08
12/02/2020 17:28:14	120220	12022020	172814	93.58	12.418793	-56.873823	93.48	-0.780	-0.350	-0.110	93.54	-2.10	0.40	 	 	 	 	 	 	 	 	 	 	 	 	 	 	 	 	 	 	1581528494	10.50	19.45
12/02/2020 17:28:15	120220	12022020	172815	93.29	12.418790	-56.873770	93.20	0.050	-2.290	0.420	93.24	-3.70	1.00	 	 	 	 	 	 	 	 	 	 	 	 	 	 	 	 	 	 	1581528495	10.95	20.28
12/02/2020 17:28:16	120220	12022020	172816	93.08	12.418785	-56.873727	93.03	0.360	-2.140	1.260	93.05	-3.40	1.80	 	 	 	 	 	 	 	 	 	 	 	 	 	 	 	 	 	 	1581528496	9.19	17.02
12/02/2020 17:28:17	120220	12022020	172817	93.09	12.418780	-56.873693	93.10	0.190	-0.860	1.760	93.12	-2.10	2.20	 	 	 	 	 	 	 	 	 	 	 	 	 	 	 	 	 	 	1581528497	7.42	13.74
12/02/2020 17:28:18	120220	12022020	172818	93.30	12.418777	-56.873658	93.32	0.150	0.000	1.710	93.33	-1.30	2.10	 	 	 	 	 	 	 	 	 	 	 	 	 	 	 	 	 	 	1581528498	7.30	13.52
12/02/2020 17:28:19	120220	12022020	172819	93.37	12.418775	-56.873618	93.36	0.410	0.090	1.580	93.35	-1.30	2.00	 	 	 	 	 	 	 	 	 	 	 	 	 	 	 	 	 	 	1581528499	8.38	15.52
12/02/2020 17:28:20	120220	12022020	172820	93.12	12.418775	-56.873577	93.05	0.630	0.060	1.450	93.02	-1.30	1.90	 	 	 	 	 	 	 	 	 	 	 	 	 	 	 	 	 	 	1581528500	8.97	16.61
12/02/2020 17:28:21	120220	12022020	172821	92.55	12.418777	-56.873535	92.46	0.500	0.370	1.340	92.43	-1.00	1.80	 	 	 	 	 	 	 	 	 	 	 	 	 	 	 	 	 	 	1581528501	8.67	16.06
12/02/2020 17:28:22	120220	12022020	172822	92.08	12.418780	-56.873497	92.06	0.070	0.570	1.090	92.06	-0.80	1.50	 	 	 	 	 	 	 	 	 	 	 	 	 	 	 	 	 	 	1581528502	8.27	15.32
12/02/2020 17:28:23	120220	12022020	172823	92.25	12.418787	-56.873457	92.34	-0.320	0.080	0.470	92.37	-1.40	0.90	 	 	 	 	 	 	 	 	 	 	 	 	 	 	 	 	 	 	1581528503	8.66	16.04
12/02/2020 17:28:24	120220	12022020	172824	92.89	12.418790	-56.873413	92.96	-0.430	-0.750	0.150	93.01	-2.20	0.60	 	 	 	 	 	 	 	 	 	 	 	 	 	 	 	 	 	 	1581528504	9.18	17.00
12/02/2020 17:28:25	120220	12022020	172825	93.29	12.418787	-56.873368	93.28	-0.240	-1.340	0.540	93.30	-2.70	1.10	 	 	 	 	 	 	 	 	 	 	 	 	 	 	 	 	 	 	1581528505	9.24	17.11
12/02/2020 17:28:26	120220	12022020	172826	93.10	12.418780	-56.873327	93.02	0.080	-1.380	1.450	93.00	-2.70	2.00	 	 	 	 	 	 	 	 	 	 	 	 	 	 	 	 	 	 	1581528506	9.05	16.76
12/02/2020 17:28:27	120220	12022020	172827	92.51	12.418772	-56.873287	92.41	0.250	-0.770	2.420	92.37	-2.00	2.90	 	 	 	 	 	 	 	 	 	 	 	 	 	 	 	 	 	 	1581528507	8.74	16.19
12/02/2020 17:28:28	120220	12022020	172828	91.99	12.418768	-56.873248	91.94	0.060	0.310	2.490	91.93	-0.90	2.90	 	 	 	 	 	 	 	 	 	 	 	 	 	 	 	 	 	 	1581528508	8.10	15.00
12/02/2020 17:28:29	120220	12022020	172829	91.92	12.418770	-56.873212	91.92	-0.270	1.100	1.520	91.96	-0.20	1.80	 	 	 	 	 	 	 	 	 	 	 	 	 	 	 	 	 	 	1581528509	7.79	14.43
12/02/2020 17:28:30	120220	12022020	172830	92.21	12.418778	-56.873172	92.20	-0.290	0.750	0.490	92.27	-0.80	0.90	 	 	 	 	 	 	 	 	 	 	 	 	 	 	 	 	 	 	1581528510	8.57	15.87
12/02/2020 17:28:31	120220	12022020	172831	92.53	12.418783	-56.873125	92.51	0.150	-0.590	0.010	92.58	-2.10	0.40	 	 	 	 	 	 	 	 	 	 	 	 	 	 	 	 	 	 	1581528511	9.77	18.09
12/02/2020 17:28:32	120220	12022020	172832	92.72	12.418787	-56.873078	92.67	0.590	-1.420	0.120	92.74	-2.80	0.60	 	 	 	 	 	 	 	 	 	 	 	 	 	 	 	 	 	 	1581528512	10.14	18.78
12/02/2020 17:28:33	120220	12022020	172833	92.76	12.418785	-56.873037	92.72	0.500	-0.740	0.650	92.76	-1.90	1.20	 	 	 	 	 	 	 	 	 	 	 	 	 	 	 	 	 	 	1581528513	8.80	16.30
12/02/2020 17:28:34	120220	12022020	172834	92.78	12.418782	-56.873002	92.76	-0.040	0.530	1.160	92.78	-0.70	1.60	 	 	 	 	 	 	 	 	 	 	 	 	 	 	 	 	 	 	1581528514	7.32	13.56
12/02/2020 17:28:35	120220	12022020	172835	92.78	12.418780	-56.872967	92.74	-0.430	0.830	1.360	92.77	-0.60	1.80	 	 	 	 	 	 	 	 	 	 	 	 	 	 	 	 	 	 	1581528515	7.43	13.76
12/02/2020 17:28:36	120220	12022020	172836	92.74	12.418780	-56.872925	92.70	-0.180	-0.370	1.170	92.74	-1.90	1.60	 	 	 	 	 	 	 	 	 	 	 	 	 	 	 	 	 	 	1581528516	8.99	16.65
12/02/2020 17:28:37	120220	12022020	172837	92.69	12.418782	-56.872875	92.64	0.490	-1.870	1.030	92.67	-3.30	1.50	 	 	 	 	 	 	 	 	 	 	 	 	 	 	 	 	 	 	1581528517	10.47	19.39
12/02/2020 17:28:38	120220	12022020	172838	92.57	12.418782	-56.872828	92.53	0.730	-1.790	1.180	92.54	-3.00	1.60	 	 	 	 	 	 	 	 	 	 	 	 	 	 	 	 	 	 	1581528518	9.91	18.35
12/02/2020 17:28:39	120220	12022020	172839	92.53	12.418782	-56.872790	92.53	0.110	-0.050	1.260	92.55	-1.10	1.70	 	 	 	 	 	 	 	 	 	 	 	 	 	 	 	 	 	 	1581528519	7.90	14.63
12/02/2020 17:28:40	120220	12022020	172840	92.68	12.418780	-56.872758	92.67	-0.860	1.600	1.060	92.71	0.30	1.50	 	 	 	 	 	 	 	 	 	 	 	 	 	 	 	 	 	 	1581528520	6.70	12.41
12/02/2020 17:28:41	120220	12022020	172841	92.82	12.418782	-56.872723	92.80	-1.240	1.530	0.650	92.86	0.00	1.00	 	 	 	 	 	 	 	 	 	 	 	 	 	 	 	 	 	 	1581528521	7.64	14.15
12/02/2020 17:28:42	120220	12022020	172842	92.94	12.418782	-56.872678	92.90	-0.770	0.100	0.400	92.94	-1.50	0.90	 	 	 	 	 	 	 	 	 	 	 	 	 	 	 	 	 	 	1581528522	9.46	17.52
12/02/2020 17:28:43	120220	12022020	172843	92.82	12.418780	-56.872630	92.73	0.190	-1.440	0.580	92.76	-2.90	1.00	 	 	 	 	 	 	 	 	 	 	 	 	 	 	 	 	 	 	1581528523	10.22	18.93
12/02/2020 17:28:44	120220	12022020	172844	92.51	12.418778	-56.872583	92.40	1.020	-2.000	0.600	92.45	-3.30	1.00	 	 	 	 	 	 	 	 	 	 	 	 	 	 	 	 	 	 	1581528524	9.92	18.37
12/02/2020 17:28:45	120220	12022020	172845	92.31	12.418780	-56.872542	92.27	1.140	-1.090	0.570	92.31	-2.30	1.00	 	 	 	 	 	 	 	 	 	 	 	 	 	 	 	 	 	 	1581528525	8.74	16.19
12/02/2020 17:28:46	120220	12022020	172846	92.46	12.418783	-56.872507	92.49	0.490	0.470	0.630	92.53	-0.70	1.10	 	 	 	 	 	 	 	 	 	 	 	 	 	 	 	 	 	 	1581528526	7.47	13.83
12/02/2020 17:28:47	120220	12022020	172847	92.76	12.418783	-56.872472	92.76	-0.420	1.430	0.660	92.80	0.10	1.10	 	 	 	 	 	 	 	 	 	 	 	 	 	 	 	 	 	 	1581528527	7.25	13.43
12/02/2020 17:28:48	120220	12022020	172848	92.83	12.418783	-56.872433	92.79	-0.960	1.140	0.780	92.81	-0.30	1.30	 	 	 	 	 	 	 	 	 	 	 	 	 	 	 	 	 	 	1581528528	8.10	15.00
12/02/2020 17:28:49	120220	12022020	172849	92.68	12.418782	-56.872390	92.61	-0.760	-0.260	1.150	92.63	-1.80	1.60	 	 	 	 	 	 	 	 	 	 	 	 	 	 	 	 	 	 	1581528529	9.29	17.21
12/02/2020 17:28:50	120220	12022020	172850	92.42	12.418778	-56.872340	92.35	0.100	-2.060	1.540	92.37	-3.60	2.00	 	 	 	 	 	 	 	 	 	 	 	 	 	 	 	 	 	 	1581528530	10.35	19.17
12/02/2020 17:28:51	120220	12022020	172851	92.25	12.418775	-56.872292	92.22	0.800	-2.460	1.500	92.24	-3.70	1.90	 	 	 	 	 	 	 	 	 	 	 	 	 	 	 	 	 	 	1581528531	10.33	19.13
12/02/2020 17:28:52	120220	12022020	172852	92.26	12.418777	-56.872253	92.23	0.640	-0.790	1.190	92.27	-1.80	1.60	 	 	 	 	 	 	 	 	 	 	 	 	 	 	 	 	 	 	1581528532	8.31	15.39
12/02/2020 17:28:53	120220	12022020	172853	92.30	12.418778	-56.872222	92.27	-0.190	1.380	0.890	92.31	0.20	1.30	 	 	 	 	 	 	 	 	 	 	 	 	 	 	 	 	 	 	1581528533	6.60	12.22
12/02/2020 17:28:54	120220	12022020	172854	92.34	12.418780	-56.872188	92.30	-0.820	1.960	0.690	92.35	0.50	1.10	 	 	 	 	 	 	 	 	 	 	 	 	 	 	 	 	 	 	1581528534	7.05	13.06
12/02/2020 17:28:55	120220	12022020	172855	92.42	12.418780	-56.872145	92.40	-0.700	0.660	0.690	92.44	-0.90	1.10	 	 	 	 	 	 	 	 	 	 	 	 	 	 	 	 	 	 	1581528535	9.02	16.71
12/02/2020 17:28:56	120220	12022020	172856	92.48	12.418778	-56.872097	92.42	-0.020	-0.960	0.670	92.47	-2.50	1.10	 	 	 	 	 	 	 	 	 	 	 	 	 	 	 	 	 	 	1581528536	10.30	19.08
12/02/2020 17:28:57	120220	12022020	172857	92.32	12.418780	-56.872050	92.21	0.620	-1.570	0.800	92.26	-2.90	1.30	 	 	 	 	 	 	 	 	 	 	 	 	 	 	 	 	 	 	1581528537	9.76	18.08
12/02/2020 17:28:58	120220	12022020	172858	92.12	12.418782	-56.872010	92.05	0.760	-1.210	1.200	92.10	-2.50	1.70	 	 	 	 	 	 	 	 	 	 	 	 	 	 	 	 	 	 	1581528538	8.70	16.11
12/02/2020 17:28:59	120220	12022020	172859	92.19	12.418782	-56.871970	92.19	0.390	-0.570	1.530	92.24	-1.90	2.00	 	 	 	 	 	 	 	 	 	 	 	 	 	 	 	 	 	 	1581528539	8.17	15.13
12/02/2020 17:29:00	120220	12022020	172900	92.45	12.418780	-56.871932	92.45	-0.100	-0.060	1.600	92.48	-1.40	2.00	 	 	 	 	 	 	 	 	 	 	 	 	 	 	 	 	 	 	1581528540	8.27	15.32
12/02/2020 17:29:01	120220	12022020	172901	92.57	12.418778	-56.871892	92.54	-0.390	0.380	1.590	92.57	-0.90	2.00	 	 	 	 	 	 	 	 	 	 	 	 	 	 	 	 	 	 	1581528541	8.42	15.59
12/02/2020 17:29:02	120220	12022020	172902	92.59	12.418778	-56.871852	92.57	-0.490	0.650	1.400	92.61	-0.70	1.80	1015.40	26.60	26.70	20.70	20.80	881.0	70.0	70.0	392.0	28.7	346.00	16.00	74.00	11.60	63973	11710.0	27.4	27.4	1581528542	8.42	15.59
12/02/2020 17:29:03	120220	12022020	172903	92.69	12.418778	-56.871812	92.66	-0.440	0.360	1.200	92.70	-1.10	1.60	 	 	 	 	 	 	 	 	 	 	 	 	 	 	 	 	 	 	1581528543	8.65	16.02
12/02/2020 17:29:04	120220	12022020	172904	92.65	12.418778	-56.871767	92.59	-0.200	-0.510	1.190	92.62	-2.00	1.60	 	 	 	 	 	 	 	 	 	 	 	 	 	 	 	 	 	 	1581528544	9.23	17.09
12/02/2020 17:29:05	120220	12022020	172905	92.46	12.418777	-56.871722	92.41	0.210	-1.390	1.170	92.42	-2.80	1.60	 	 	 	 	 	 	 	 	 	 	 	 	 	 	 	 	 	 	1581528545	9.75	18.06
12/02/2020 17:29:06	120220	12022020	172906	92.32	12.418778	-56.871677	92.29	0.550	-1.380	0.950	92.31	-2.60	1.40	 	 	 	 	 	 	 	 	 	 	 	 	 	 	 	 	 	 	1581528546	9.52	17.63
12/02/2020 17:29:07	120220	12022020	172907	92.36	12.418780	-56.871637	92.36	0.560	-0.320	0.790	92.38	-1.50	1.20	 	 	 	 	 	 	 	 	 	 	 	 	 	 	 	 	 	 	1581528547	8.42	15.59
12/02/2020 17:29:08	120220	12022020	172908	92.56	12.418783	-56.871600	92.59	0.160	0.790	0.690	92.61	-0.50	1.10	 	 	 	 	 	 	 	 	 	 	 	 	 	 	 	 	 	 	1581528548	7.67	14.20
12/02/2020 17:29:09	120220	12022020	172909	92.79	12.418783	-56.871562	92.80	-0.330	0.950	0.720	92.82	-0.50	1.20	 	 	 	 	 	 	 	 	 	 	 	 	 	 	 	 	 	 	1581528549	8.02	14.85
12/02/2020 17:29:10	120220	12022020	172910	92.88	12.418782	-56.871518	92.86	-0.450	-0.040	0.990	92.88	-1.60	1.50	 	 	 	 	 	 	 	 	 	 	 	 	 	 	 	 	 	 	1581528550	9.19	17.02
12/02/2020 17:29:11	120220	12022020	172911	92.81	12.418780	-56.871472	92.77	-0.140	-1.130	1.250	92.77	-2.60	1.70	 	 	 	 	 	 	 	 	 	 	 	 	 	 	 	 	 	 	1581528551	10.08	18.67
12/02/2020 17:29:12	120220	12022020	172912	92.63	12.418777	-56.871427	92.57	0.230	-1.250	1.410	92.58	-2.60	1.90	 	 	 	 	 	 	 	 	 	 	 	 	 	 	 	 	 	 	1581528552	9.58	17.74
12/02/2020 17:29:13	120220	12022020	172913	92.37	12.418777	-56.871385	92.29	0.360	-0.680	1.420	92.31	-2.00	1.90	 	 	 	 	 	 	 	 	 	 	 	 	 	 	 	 	 	 	1581528553	8.59	15.91
12/02/2020 17:29:14	120220	12022020	172914	92.08	12.418778	-56.871345	92.02	0.230	-0.150	1.180	92.04	-1.50	1.60	 	 	 	 	 	 	 	 	 	 	 	 	 	 	 	 	 	 	1581528554	8.41	15.58
12/02/2020 17:29:15	120220	12022020	172915	92.06	12.418782	-56.871305	92.05	-0.040	0.160	0.800	92.09	-1.20	1.20	 	 	 	 	 	 	 	 	 	 	 	 	 	 	 	 	 	 	1581528555	8.75	16.21
12/02/2020 17:29:16	120220	12022020	172916	92.31	12.418783	-56.871263	92.32	-0.300	0.300	0.670	92.36	-1.10	1.10	 	 	 	 	 	 	 	 	 	 	 	 	 	 	 	 	 	 	1581528556	8.82	16.33
12/02/2020 17:29:17	120220	12022020	172917	92.46	12.418782	-56.871222	92.42	-0.390	0.210	0.790	92.46	-1.20	1.20	 	 	 	 	 	 	 	 	 	 	 	 	 	 	 	 	 	 	1581528557	8.88	16.45
12/02/2020 17:29:18	120220	12022020	172918	92.46	12.418780	-56.871178	92.43	-0.230	-0.120	0.890	92.47	-1.50	1.30	 	 	 	 	 	 	 	 	 	 	 	 	 	 	 	 	 	 	1581528558	9.08	16.82
12/02/2020 17:29:19	120220	12022020	172919	92.55	12.418778	-56.871133	92.55	0.090	-0.510	1.040	92.58	-1.90	1.50	 	 	 	 	 	 	 	 	 	 	 	 	 	 	 	 	 	 	1581528559	9.29	17.21
12/02/2020 17:29:20	120220	12022020	172920	92.60	12.418778	-56.871090	92.56	0.240	-0.680	1.190	92.59	-2.00	1.60	 	 	 	 	 	 	 	 	 	 	 	 	 	 	 	 	 	 	1581528560	9.20	17.04
12/02/2020 17:29:21	120220	12022020	172921	92.38	12.418778	-56.871048	92.29	0.130	-0.690	1.170	92.30	-2.00	1.60	 	 	 	 	 	 	 	 	 	 	 	 	 	 	 	 	 	 	1581528561	8.98	16.63
12/02/2020 17:29:22	120220	12022020	172922	91.89	12.418780	-56.871005	91.77	0.000	-0.650	1.330	91.79	-2.00	1.80	 	 	 	 	 	 	 	 	 	 	 	 	 	 	 	 	 	 	1581528562	9.01	16.69
12/02/2020 17:29:23	120220	12022020	172923	91.56	12.418780	-56.870963	91.52	0.010	-0.370	1.410	91.57	-1.70	1.80	 	 	 	 	 	 	 	 	 	 	 	 	 	 	 	 	 	 	1581528563	9.06	16.78
12/02/2020 17:29:24	120220	12022020	172924	91.91	12.418782	-56.870922	91.97	-0.040	0.140	0.860	92.05	-1.20	1.20	 	 	 	 	 	 	 	 	 	 	 	 	 	 	 	 	 	 	1581528564	8.79	16.28
12/02/2020 17:29:25	120220	12022020	172925	92.66	12.418783	-56.870880	92.71	-0.230	0.450	0.370	92.78	-0.90	0.80	 	 	 	 	 	 	 	 	 	 	 	 	 	 	 	 	 	 	1581528565	8.56	15.85
12/02/2020 17:29:26	120220	12022020	172926	92.98	12.418782	-56.870838	92.90	-0.260	0.090	0.670	92.95	-1.40	1.20	 	 	 	 	 	 	 	 	 	 	 	 	 	 	 	 	 	 	1581528566	8.87	16.43
12/02/2020 17:29:27	120220	12022020	172927	92.54	12.418778	-56.870793	92.37	0.230	-0.900	1.270	92.40	-2.40	1.80	 	 	 	 	 	 	 	 	 	 	 	 	 	 	 	 	 	 	1581528567	9.75	18.06
12/02/2020 17:29:28	120220	12022020	172928	92.01	12.418778	-56.870743	91.94	0.820	-1.420	1.520	91.98	-2.70	2.00	 	 	 	 	 	 	 	 	 	 	 	 	 	 	 	 	 	 	1581528568	10.26	19.00
12/02/2020 17:29:29	120220	12022020	172929	92.31	12.418782	-56.870700	92.43	0.650	-0.470	1.300	92.48	-1.60	1.70	 	 	 	 	 	 	 	 	 	 	 	 	 	 	 	 	 	 	1581528569	9.25	17.13
12/02/2020 17:29:30	120220	12022020	172930	93.31	12.418785	-56.870665	93.47	-0.380	1.110	0.700	93.53	-0.10	1.10	 	 	 	 	 	 	 	 	 	 	 	 	 	 	 	 	 	 	1581528570	7.49	13.87
12/02/2020 17:29:31	120220	12022020	172931	94.20	12.418785	-56.870630	94.24	-1.330	1.510	0.610	94.30	0.00	1.10	 	 	 	 	 	 	 	 	 	 	 	 	 	 	 	 	 	 	1581528571	7.32	13.56
12/02/2020 17:29:32	120220	12022020	172932	94.30	12.418778	-56.870588	94.21	-1.020	-0.120	1.370	94.22	-1.80	1.90	 	 	 	 	 	 	 	 	 	 	 	 	 	 	 	 	 	 	1581528572	9.22	17.08
12/02/2020 17:29:33	120220	12022020	172933	93.76	12.418772	-56.870535	93.67	0.210	-2.110	1.920	93.66	-3.60	2.40	 	 	 	 	 	 	 	 	 	 	 	 	 	 	 	 	 	 	1581528573	11.10	20.56
12/02/2020 17:29:34	120220	12022020	172934	93.52	12.418768	-56.870487	93.55	0.940	-2.180	1.930	93.56	-3.40	2.40	 	 	 	 	 	 	 	 	 	 	 	 	 	 	 	 	 	 	1581528574	10.42	19.30
12/02/2020 17:29:35	120220	12022020	172935	94.02	12.418767	-56.870448	94.16	0.480	-0.300	1.540	94.19	-1.40	1.90	 	 	 	 	 	 	 	 	 	 	 	 	 	 	 	 	 	 	1581528575	7.89	14.61
12/02/2020 17:29:36	120220	12022020	172936	94.89	12.418768	-56.870418	94.99	-0.540	1.540	0.830	95.04	0.30	1.20	 	 	 	 	 	 	 	 	 	 	 	 	 	 	 	 	 	 	1581528576	6.49	12.02
12/02/2020 17:29:37	120220	12022020	172937	95.39	12.418768	-56.870382	95.36	-0.810	1.320	0.260	95.41	-0.20	0.70	 	 	 	 	 	 	 	 	 	 	 	 	 	 	 	 	 	 	1581528577	7.61	14.09
12/02/2020 17:29:38	120220	12022020	172938	95.29	12.418767	-56.870335	95.16	0.040	-0.610	0.250	95.21	-2.20	0.80	 	 	 	 	 	 	 	 	 	 	 	 	 	 	 	 	 	 	1581528578	10.15	18.80
12/02/2020 17:29:39	120220	12022020	172939	94.87	12.418763	-56.870283	94.78	0.860	-1.740	0.750	94.81	-3.10	1.30	 	 	 	 	 	 	 	 	 	 	 	 	 	 	 	 	 	 	1581528579	10.94	20.26
12/02/2020 17:29:40	120220	12022020	172940	94.82	12.418760	-56.870240	94.85	0.540	-0.720	1.090	94.87	-1.90	1.60	 	 	 	 	 	 	 	 	 	 	 	 	 	 	 	 	 	 	1581528580	8.91	16.50
12/02/2020 17:29:41	120220	12022020	172941	95.24	12.418757	-56.870210	95.31	-0.680	1.030	1.030	95.35	-0.20	1.50	 	 	 	 	 	 	 	 	 	 	 	 	 	 	 	 	 	 	1581528581	6.69	12.39
12/02/2020 17:29:42	120220	12022020	172942	95.65	12.418752	-56.870177	95.66	-1.440	1.310	1.130	95.67	-0.20	1.60	 	 	 	 	 	 	 	 	 	 	 	 	 	 	 	 	 	 	1581528582	6.89	12.76
12/02/2020 17:29:43	120220	12022020	172943	95.53	12.418743	-56.870135	95.46	-0.750	-0.410	1.480	95.43	-2.00	2.00	 	 	 	 	 	 	 	 	 	 	 	 	 	 	 	 	 	 	1581528583	9.27	17.17
12/02/2020 17:29:44	120220	12022020	172944	94.89	12.418735	-56.870085	94.78	0.590	-1.840	1.660	94.74	-3.20	2.10	 	 	 	 	 	 	 	 	 	 	 	 	 	 	 	 	 	 	1581528584	10.64	19.71
12/02/2020 17:29:45	120220	12022020	172945	94.30	12.418732	-56.870040	94.27	1.240	-1.500	1.610	94.23	-2.70	2.00	 	 	 	 	 	 	 	 	 	 	 	 	 	 	 	 	 	 	1581528585	9.39	17.39
12/02/2020 17:29:46	120220	12022020	172946	94.10	12.418732	-56.870005	94.13	0.790	-0.110	1.460	94.10	-1.30	1.90	 	 	 	 	 	 	 	 	 	 	 	 	 	 	 	 	 	 	1581528586	7.58	14.04
12/02/2020 17:29:47	120220	12022020	172947	94.10	12.418732	-56.869970	94.08	-0.070	0.770	1.160	94.08	-0.50	1.60	 	 	 	 	 	 	 	 	 	 	 	 	 	 	 	 	 	 	1581528587	7.24	13.41
12/02/2020 17:29:48	120220	12022020	172948	93.90	12.418728	-56.869932	93.84	-0.560	0.800	1.100	93.83	-0.60	1.60	 	 	 	 	 	 	 	 	 	 	 	 	 	 	 	 	 	 	1581528588	8.13	15.06
12/02/2020 17:29:49	120220	12022020	172949	93.48	12.418725	-56.869890	93.39	-0.500	0.220	1.360	93.37	-1.20	1.90	 	 	 	 	 	 	 	 	 	 	 	 	 	 	 	 	 	 	1581528589	8.80	16.30
12/02/2020 17:29:50	120220	12022020	172950	92.88	12.418718	-56.869847	92.78	0.010	-0.710	1.860	92.75	-2.20	2.40	 	 	 	 	 	 	 	 	 	 	 	 	 	 	 	 	 	 	1581528590	9.31	17.24
12/02/2020 17:29:51	120220	12022020	172951	92.25	12.418713	-56.869802	92.17	0.450	-1.270	2.200	92.14	-2.60	2.70	 	 	 	 	 	 	 	 	 	 	 	 	 	 	 	 	 	 	1581528591	9.51	17.61
12/02/2020 17:29:52	120220	12022020	172952	91.80	12.418712	-56.869760	91.75	0.400	-0.980	2.090	91.74	-2.20	2.50	 	 	 	 	 	 	 	 	 	 	 	 	 	 	 	 	 	 	1581528592	8.86	16.41
12/02/2020 17:29:53	120220	12022020	172953	91.57	12.418712	-56.869722	91.57	-0.060	-0.010	2.070	91.56	-1.20	2.50	 	 	 	 	 	 	 	 	 	 	 	 	 	 	 	 	 	 	1581528593	7.95	14.72
12/02/2020 17:29:54	120220	12022020	172954	91.52	12.418708	-56.869687	91.52	-0.550	0.850	2.210	91.51	-0.50	2.70	 	 	 	 	 	 	 	 	 	 	 	 	 	 	 	 	 	 	1581528594	7.45	13.80
12/02/2020 17:29:55	120220	12022020	172955	91.45	12.418705	-56.869650	91.43	-0.630	0.550	2.280	91.41	-0.90	2.70	 	 	 	 	 	 	 	 	 	 	 	 	 	 	 	 	 	 	1581528595	8.05	14.91
12/02/2020 17:29:56	120220	12022020	172956	91.12	12.418702	-56.869605	91.05	-0.070	-0.770	2.490	91.02	-2.30	3.00	 	 	 	 	 	 	 	 	 	 	 	 	 	 	 	 	 	 	1581528596	9.52	17.63
12/02/2020 17:29:57	120220	12022020	172957	90.56	12.418700	-56.869557	90.49	0.630	-1.560	2.670	90.47	-2.90	3.10	 	 	 	 	 	 	 	 	 	 	 	 	 	 	 	 	 	 	1581528597	10.08	18.67
12/02/2020 17:29:58	120220	12022020	172958	90.24	12.418700	-56.869515	90.22	0.750	-0.870	2.370	90.23	-2.00	2.70	 	 	 	 	 	 	 	 	 	 	 	 	 	 	 	 	 	 	1581528598	8.85	16.39
12/02/2020 17:29:59	120220	12022020	172959	90.29	12.418703	-56.869480	90.30	0.270	0.440	1.900	90.32	-0.80	2.30	 	 	 	 	 	 	 	 	 	 	 	 	 	 	 	 	 	 	1581528599	7.43	13.76
12/02/2020 17:30:00	120220	12022020	173000	90.48	12.418707	-56.869445	90.48	-0.220	0.940	1.560	90.51	-0.40	2.00	 	 	 	 	 	 	 	 	 	 	 	 	 	 	 	 	 	 	1581528600	7.43	13.76
12/02/2020 17:30:01	120220	12022020	173001	90.60	12.418708	-56.869403	90.57	-0.230	0.280	1.340	90.62	-1.20	1.80	 	 	 	 	 	 	 	 	 	 	 	 	 	 	 	 	 	 	1581528601	8.68	16.08
12/02/2020 17:30:02	120220	12022020	173002	90.68	12.418710	-56.869358	90.65	0.010	-0.540	1.410	90.69	-2.00	1.90	1015.30	26.50	26.60	20.30	20.30	882.0	68.0	68.0	391.0	28.6	347.00	16.80	76.00	12.40	63983	11727.0	27.4	27.4	1581528602	9.44	17.48
12/02/2020 17:30:03	120220	12022020	173003	90.74	12.418708	-56.869317	90.70	0.140	-0.830	1.760	90.74	-2.20	2.20	 	 	 	 	 	 	 	 	 	 	 	 	 	 	 	 	 	 	1581528603	9.01	16.69
12/02/2020 17:30:04	120220	12022020	173004	90.65	12.418707	-56.869277	90.58	0.140	-0.860	1.930	90.61	-2.20	2.40	 	 	 	 	 	 	 	 	 	 	 	 	 	 	 	 	 	 	1581528604	8.51	15.76
12/02/2020 17:30:05	120220	12022020	173005	90.40	12.418707	-56.869235	90.29	0.200	-0.870	1.840	90.34	-2.20	2.30	 	 	 	 	 	 	 	 	 	 	 	 	 	 	 	 	 	 	1581528605	8.69	16.09
12/02/2020 17:30:06	120220	12022020	173006	90.11	12.418708	-56.869193	89.99	0.220	-0.550	1.620	90.06	-1.80	2.00	 	 	 	 	 	 	 	 	 	 	 	 	 	 	 	 	 	 	1581528606	8.78	16.26
12/02/2020 17:30:07	120220	12022020	173007	89.97	12.418712	-56.869153	89.89	0.030	-0.020	1.360	89.97	-1.30	1.80	 	 	 	 	 	 	 	 	 	 	 	 	 	 	 	 	 	 	1581528607	8.47	15.69
12/02/2020 17:30:08	120220	12022020	173008	90.06	12.418713	-56.869113	90.00	-0.280	0.330	1.110	90.09	-1.00	1.50	 	 	 	 	 	 	 	 	 	 	 	 	 	 	 	 	 	 	1581528608	8.41	15.58
12/02/2020 17:30:09	120220	12022020	173009	90.25	12.418715	-56.869073	90.19	-0.560	0.490	0.830	90.30	-0.90	1.20	 	 	 	 	 	 	 	 	 	 	 	 	 	 	 	 	 	 	1581528609	8.55	15.83
12/02/2020 17:30:10	120220	12022020	173010	90.40	12.418715	-56.869033	90.30	-0.660	0.460	0.690	90.40	-0.90	1.10	 	 	 	 	 	 	 	 	 	 	 	 	 	 	 	 	 	 	1581528610	8.53	15.80
12/02/2020 17:30:11	120220	12022020	173011	90.25	12.418713	-56.868992	90.08	-0.450	0.100	1.000	90.18	-1.30	1.50	 	 	 	 	 	 	 	 	 	 	 	 	 	 	 	 	 	 	1581528611	8.64	16.00
12/02/2020 17:30:12	120220	12022020	173012	89.83	12.418713	-56.868950	89.66	0.030	-0.590	1.200	89.75	-2.00	1.60	 	 	 	 	 	 	 	 	 	 	 	 	 	 	 	 	 	 	1581528612	9.00	16.67
12/02/2020 17:30:13	120220	12022020	173013	89.53	12.418715	-56.868905	89.40	0.540	-1.310	1.060	89.48	-2.70	1.50	 	 	 	 	 	 	 	 	 	 	 	 	 	 	 	 	 	 	1581528613	9.33	17.28
12/02/2020 17:30:14	120220	12022020	173014	89.27	12.418718	-56.868862	89.11	0.910	-1.690	1.090	89.20	-3.00	1.60	 	 	 	 	 	 	 	 	 	 	 	 	 	 	 	 	 	 	1581528614	9.42	17.45
12/02/2020 17:30:15	120220	12022020	173015	88.90	12.418722	-56.868818	88.75	1.040	-1.370	1.230	88.84	-2.60	1.70	 	 	 	 	 	 	 	 	 	 	 	 	 	 	 	 	 	 	1581528615	9.21	17.06
12/02/2020 17:30:16	120220	12022020	173016	88.77	12.418723	-56.868777	88.70	0.670	-0.080	1.290	88.79	-1.20	1.70	 	 	 	 	 	 	 	 	 	 	 	 	 	 	 	 	 	 	1581528616	8.58	15.89
12/02/2020 17:30:17	120220	12022020	173017	88.90	12.418725	-56.868742	88.83	-0.290	1.550	1.510	88.92	0.30	2.00	 	 	 	 	 	 	 	 	 	 	 	 	 	 	 	 	 	 	1581528617	7.49	13.87
12/02/2020 17:30:18	120220	12022020	173018	88.89	12.418725	-56.868707	88.78	-1.360	2.150	1.870	88.85	0.70	2.30	 	 	 	 	 	 	 	 	 	 	 	 	 	 	 	 	 	 	1581528618	7.35	13.61
12/02/2020 17:30:19	120220	12022020	173019	88.69	12.418725	-56.868667	88.60	-1.750	1.080	2.110	88.65	-0.50	2.60	 	 	 	 	 	 	 	 	 	 	 	 	 	 	 	 	 	 	1581528619	8.59	15.91
12/02/2020 17:30:20	120220	12022020	173020	88.61	12.418725	-56.868620	88.57	-1.110	-1.000	2.250	88.62	-2.60	2.70	 	 	 	 	 	 	 	 	 	 	 	 	 	 	 	 	 	 	1581528620	9.94	18.41
12/02/2020 17:30:21	120220	12022020	173021	88.68	12.418725	-56.868568	88.64	0.250	-3.010	2.200	88.68	-4.50	2.60	 	 	 	 	 	 	 	 	 	 	 	 	 	 	 	 	 	 	1581528621	10.73	19.87
12/02/2020 17:30:22	120220	12022020	173022	88.61	12.418725	-56.868520	88.53	1.370	-3.250	2.020	88.57	-4.40	2.40	 	 	 	 	 	 	 	 	 	 	 	 	 	 	 	 	 	 	1581528622	10.38	19.22
12/02/2020 17:30:23	120220	12022020	173023	88.44	12.418728	-56.868482	88.37	1.420	-0.990	1.730	88.41	-1.90	2.10	 	 	 	 	 	 	 	 	 	 	 	 	 	 	 	 	 	 	1581528623	8.18	15.15
12/02/2020 17:30:24	120220	12022020	173024	88.44	12.418733	-56.868453	88.39	0.430	2.020	1.090	88.47	1.00	1.40	 	 	 	 	 	 	 	 	 	 	 	 	 	 	 	 	 	 	1581528624	6.12	11.33
12/02/2020 17:30:25	120220	12022020	173025	88.70	12.418743	-56.868423	88.66	-0.740	3.350	0.140	88.77	1.90	0.50	 	 	 	 	 	 	 	 	 	 	 	 	 	 	 	 	 	 	1581528625	6.42	11.89
12/02/2020 17:30:26	120220	12022020	173026	89.01	12.418753	-56.868385	88.95	-1.090	1.870	-0.500	89.06	0.20	-0.10	 	 	 	 	 	 	 	 	 	 	 	 	 	 	 	 	 	 	1581528626	8.46	15.67
12/02/2020 17:30:27	120220	12022020	173027	89.14	12.418760	-56.868335	89.06	-0.280	-1.410	-0.430	89.13	-3.10	0.10	 	 	 	 	 	 	 	 	 	 	 	 	 	 	 	 	 	 	1581528627	10.81	20.02
12/02/2020 17:30:28	120220	12022020	173028	89.06	12.418763	-56.868280	89.00	0.800	-3.670	0.110	89.06	-5.00	0.60	 	 	 	 	 	 	 	 	 	 	 	 	 	 	 	 	 	 	1581528628	11.62	21.52
12/02/2020 17:30:29	120220	12022020	173029	89.23	12.418763	-56.868237	89.28	0.830	-2.490	0.860	89.31	-3.50	1.40	 	 	 	 	 	 	 	 	 	 	 	 	 	 	 	 	 	 	1581528629	9.20	17.04
12/02/2020 17:30:30	120220	12022020	173030	89.81	12.418760	-56.868208	89.95	-0.300	0.710	1.580	89.98	-0.30	2.10	 	 	 	 	 	 	 	 	 	 	 	 	 	 	 	 	 	 	1581528630	5.79	10.72
12/02/2020 17:30:31	120220	12022020	173031	90.64	12.418755	-56.868187	90.76	-1.480	2.760	1.830	90.79	1.40	2.20	 	 	 	 	 	 	 	 	 	 	 	 	 	 	 	 	 	 	1581528631	4.97	9.20
12/02/2020 17:30:32	120220	12022020	173032	91.24	12.418753	-56.868150	91.30	-1.290	1.420	1.610	91.31	-0.30	2.00	 	 	 	 	 	 	 	 	 	 	 	 	 	 	 	 	 	 	1581528632	7.45	13.80
12/02/2020 17:30:33	120220	12022020	173033	91.39	12.418753	-56.868098	91.36	0.090	-1.540	1.350	91.37	-3.20	1.70	 	 	 	 	 	 	 	 	 	 	 	 	 	 	 	 	 	 	1581528633	10.90	20.19
12/02/2020 17:30:34	120220	12022020	173034	91.30	12.418755	-56.868048	91.26	1.050	-2.450	1.140	91.29	-3.70	1.50	 	 	 	 	 	 	 	 	 	 	 	 	 	 	 	 	 	 	1581528634	10.72	19.85
12/02/2020 17:30:35	120220	12022020	173035	91.31	12.418760	-56.868012	91.28	0.780	-0.670	0.790	91.33	-1.70	1.20	 	 	 	 	 	 	 	 	 	 	 	 	 	 	 	 	 	 	1581528635	7.63	14.13
12/02/2020 17:30:36	120220	12022020	173036	91.41	12.418765	-56.867987	91.35	-0.190	1.550	0.210	91.42	0.40	0.60	 	 	 	 	 	 	 	 	 	 	 	 	 	 	 	 	 	 	1581528636	5.56	10.30
12/02/2020 17:30:37	120220	12022020	173037	91.41	12.418773	-56.867957	91.32	-0.600	1.660	-0.360	91.41	0.10	0.00	 	 	 	 	 	 	 	 	 	 	 	 	 	 	 	 	 	 	1581528637	6.52	12.08
12/02/2020 17:30:38	120220	12022020	173038	91.47	12.418778	-56.867915	91.43	-0.100	-0.250	-0.550	91.52	-1.90	-0.10	 	 	 	 	 	 	 	 	 	 	 	 	 	 	 	 	 	 	1581528638	9.09	16.83
12/02/2020 17:30:39	120220	12022020	173039	91.81	12.418778	-56.867867	91.79	0.520	-1.730	-0.380	91.88	-3.10	0.10	 	 	 	 	 	 	 	 	 	 	 	 	 	 	 	 	 	 	1581528639	10.11	18.72
12/02/2020 17:30:40	120220	12022020	173040	92.03	12.418777	-56.867827	91.95	0.530	-1.360	0.170	92.02	-2.60	0.70	 	 	 	 	 	 	 	 	 	 	 	 	 	 	 	 	 	 	1581528640	8.47	15.69
12/02/2020 17:30:41	120220	12022020	173041	91.74	12.418770	-56.867795	91.57	0.090	-0.290	1.030	91.61	-1.60	1.60	 	 	 	 	 	 	 	 	 	 	 	 	 	 	 	 	 	 	1581528641	6.89	12.76
12/02/2020 17:30:42	120220	12022020	173042	91.02	12.418767	-56.867760	90.86	-0.060	-0.040	1.780	90.88	-1.40	2.30	 	 	 	 	 	 	 	 	 	 	 	 	 	 	 	 	 	 	1581528642	7.31	13.54
12/02/2020 17:30:43	120220	12022020	173043	90.48	12.418765	-56.867720	90.40	0.130	-0.250	1.850	90.43	-1.60	2.20	 	 	 	 	 	 	 	 	 	 	 	 	 	 	 	 	 	 	1581528643	8.45	15.65
12/02/2020 17:30:44	120220	12022020	173044	90.46	12.418770	-56.867680	90.43	0.120	0.040	1.260	90.50	-1.20	1.60	 	 	 	 	 	 	 	 	 	 	 	 	 	 	 	 	 	 	1581528644	8.41	15.58
12/02/2020 17:30:45	120220	12022020	173045	90.75	12.418775	-56.867645	90.74	-0.340	0.740	0.710	90.82	-0.50	1.10	 	 	 	 	 	 	 	 	 	 	 	 	 	 	 	 	 	 	1581528645	7.57	14.02
12/02/2020 17:30:46	120220	12022020	173046	91.06	12.418777	-56.867612	91.03	-0.890	1.000	0.700	91.11	-0.40	1.20	 	 	 	 	 	 	 	 	 	 	 	 	 	 	 	 	 	 	1581528646	7.11	13.17
12/02/2020 17:30:47	120220	12022020	173047	91.27	12.418775	-56.867575	91.22	-0.890	0.110	0.990	91.29	-1.40	1.50	 	 	 	 	 	 	 	 	 	 	 	 	 	 	 	 	 	 	1581528647	7.84	14.52
12/02/2020 17:30:48	120220	12022020	173048	91.24	12.418772	-56.867532	91.13	-0.060	-1.460	1.340	91.19	-3.00	1.80	 	 	 	 	 	 	 	 	 	 	 	 	 	 	 	 	 	 	1581528648	9.12	16.89
12/02/2020 17:30:49	120220	12022020	173049	90.86	12.418770	-56.867487	90.71	1.060	-2.280	1.810	90.77	-3.60	2.30	 	 	 	 	 	 	 	 	 	 	 	 	 	 	 	 	 	 	1581528649	9.45	17.50
12/02/2020 17:30:50	120220	12022020	173050	90.47	12.418772	-56.867447	90.39	1.620	-1.630	1.980	90.45	-2.80	2.40	 	 	 	 	 	 	 	 	 	 	 	 	 	 	 	 	 	 	1581528650	8.49	15.72
12/02/2020 17:30:51	120220	12022020	173051	90.52	12.418775	-56.867412	90.50	1.250	-0.110	1.680	90.57	-1.30	2.10	 	 	 	 	 	 	 	 	 	 	 	 	 	 	 	 	 	 	1581528651	7.38	13.67
12/02/2020 17:30:52	120220	12022020	173052	90.88	12.418780	-56.867380	90.87	0.270	1.220	1.200	90.97	-0.00	1.60	 	 	 	 	 	 	 	 	 	 	 	 	 	 	 	 	 	 	1581528652	6.95	12.87
12/02/2020 17:30:53	120220	12022020	173053	91.26	12.418785	-56.867345	91.23	-0.620	1.560	0.840	91.33	0.20	1.30	 	 	 	 	 	 	 	 	 	 	 	 	 	 	 	 	 	 	1581528653	7.38	13.67
12/02/2020 17:30:54	120220	12022020	173054	91.57	12.418788	-56.867307	91.55	-0.930	0.890	0.750	91.64	-0.60	1.20	 	 	 	 	 	 	 	 	 	 	 	 	 	 	 	 	 	 	1581528654	8.26	15.30
12/02/2020 17:30:55	120220	12022020	173055	91.92	12.418788	-56.867265	91.90	-0.770	-0.100	0.810	91.99	-1.60	1.30	 	 	 	 	 	 	 	 	 	 	 	 	 	 	 	 	 	 	1581528655	8.76	16.22
12/02/2020 17:30:56	120220	12022020	173056	92.18	12.418787	-56.867223	92.14	-0.400	-0.990	1.010	92.20	-2.40	1.50	 	 	 	 	 	 	 	 	 	 	 	 	 	 	 	 	 	 	1581528656	8.70	16.11
12/02/2020 17:30:57	120220	12022020	173057	92.17	12.418783	-56.867183	92.08	0.020	-1.620	1.250	92.13	-3.00	1.70	 	 	 	 	 	 	 	 	 	 	 	 	 	 	 	 	 	 	1581528657	8.63	15.98
12/02/2020 17:30:58	120220	12022020	173058	91.94	12.418783	-56.867142	91.84	0.370	-1.750	1.280	91.88	-3.10	1.70	 	 	 	 	 	 	 	 	 	 	 	 	 	 	 	 	 	 	1581528658	8.62	15.96
12/02/2020 17:30:59	120220	12022020	173059	91.71	12.418783	-56.867103	91.65	0.580	-1.190	1.120	91.69	-2.40	1.50	 	 	 	 	 	 	 	 	 	 	 	 	 	 	 	 	 	 	1581528659	8.31	15.39
12/02/2020 17:31:00	120220	12022020	173100	91.70	12.418787	-56.867065	91.67	0.660	-0.200	0.530	91.73	-1.40	0.90	 	 	 	 	 	 	 	 	 	 	 	 	 	 	 	 	 	 	1581528660	7.95	14.72
12/02/2020 17:31:01	120220	12022020	173101	91.96	12.418792	-56.867028	91.95	0.540	0.800	-0.180	92.03	-0.50	0.20	 	 	 	 	 	 	 	 	 	 	 	 	 	 	 	 	 	 	1581528661	7.83	14.50
12/02/2020 17:31:02	120220	12022020	173102	92.35	12.418798	-56.866992	92.34	0.140	1.380	-0.450	92.43	0.00	-0.00	1015.50	26.50	26.60	20.30	20.30	880.0	68.0	68.0	391.0	28.6	348.00	16.00	74.00	11.80	63737	7177.0	27.4	27.4	1581528662	7.86	14.56
12/02/2020 17:31:03	120220	12022020	173103	92.63	12.418800	-56.866953	92.57	-0.430	1.280	-0.290	92.65	-0.20	0.20	 	 	 	 	 	 	 	 	 	 	 	 	 	 	 	 	 	 	1581528663	7.97	14.76
12/02/2020 17:31:04	120220	12022020	173104	92.58	12.418800	-56.866915	92.48	-0.710	0.240	0.250	92.52	-1.30	0.80	 	 	 	 	 	 	 	 	 	 	 	 	 	 	 	 	 	 	1581528664	8.43	15.61
12/02/2020 17:31:05	120220	12022020	173105	92.26	12.418797	-56.866870	92.19	-0.360	-1.420	0.920	92.23	-2.90	1.40	 	 	 	 	 	 	 	 	 	 	 	 	 	 	 	 	 	 	1581528665	9.43	17.46
12/02/2020 17:31:06	120220	12022020	173106	92.27	12.418795	-56.866823	92.27	0.270	-2.280	1.210	92.31	-3.60	1.60	 	 	 	 	 	 	 	 	 	 	 	 	 	 	 	 	 	 	1581528666	9.68	17.93
12/02/2020 17:31:07	120220	12022020	173107	92.41	12.418793	-56.866785	92.37	0.590	-1.580	1.270	92.40	-2.80	1.70	 	 	 	 	 	 	 	 	 	 	 	 	 	 	 	 	 	 	1581528667	8.42	15.59
12/02/2020 17:31:08	120220	12022020	173108	92.20	12.418793	-56.866750	92.09	0.450	-0.260	1.250	92.13	-1.50	1.70	 	 	 	 	 	 	 	 	 	 	 	 	 	 	 	 	 	 	1581528668	7.29	13.50
12/02/2020 17:31:09	120220	12022020	173109	91.97	12.418793	-56.866715	91.94	0.130	0.550	1.050	91.98	-0.70	1.40	 	 	 	 	 	 	 	 	 	 	 	 	 	 	 	 	 	 	1581528669	7.53	13.95
12/02/2020 17:31:10	120220	12022020	173110	92.21	12.418797	-56.866675	92.24	-0.170	0.700	0.730	92.30	-0.60	1.10	 	 	 	 	 	 	 	 	 	 	 	 	 	 	 	 	 	 	1581528670	8.26	15.30
12/02/2020 17:31:11	120220	12022020	173111	92.53	12.418797	-56.866635	92.49	-0.450	0.530	0.520	92.55	-0.80	0.90	 	 	 	 	 	 	 	 	 	 	 	 	 	 	 	 	 	 	1581528671	8.54	15.82
12/02/2020 17:31:12	120220	12022020	173112	92.45	12.418797	-56.866593	92.32	-0.520	0.090	0.490	92.38	-1.30	0.90	 	 	 	 	 	 	 	 	 	 	 	 	 	 	 	 	 	 	1581528672	8.60	15.93
12/02/2020 17:31:13	120220	12022020	173113	92.12	12.418797	-56.866552	92.01	-0.210	-0.480	0.610	92.08	-1.90	1.10	 	 	 	 	 	 	 	 	 	 	 	 	 	 	 	 	 	 	1581528673	8.86	16.41
12/02/2020 17:31:14	120220	12022020	173114	92.01	12.418798	-56.866510	91.96	0.160	-0.690	0.760	92.02	-2.00	1.20	 	 	 	 	 	 	 	 	 	 	 	 	 	 	 	 	 	 	1581528674	8.81	16.32
12/02/2020 17:31:15	120220	12022020	173115	92.14	12.418800	-56.866472	92.13	0.290	-0.540	0.760	92.19	-1.90	1.20	 	 	 	 	 	 	 	 	 	 	 	 	 	 	 	 	 	 	1581528675	8.32	15.41
12/02/2020 17:31:16	120220	12022020	173116	92.43	12.418803	-56.866432	92.44	0.330	-0.620	0.590	92.51	-2.00	1.00	 	 	 	 	 	 	 	 	 	 	 	 	 	 	 	 	 	 	1581528676	8.31	15.39
12/02/2020 17:31:17	120220	12022020	173117	92.79	12.418803	-56.866390	92.79	0.470	-1.020	0.660	92.84	-2.40	1.10	 	 	 	 	 	 	 	 	 	 	 	 	 	 	 	 	 	 	1581528677	8.97	16.61
12/02/2020 17:31:18	120220	12022020	173118	92.92	12.418802	-56.866347	92.87	0.500	-0.830	1.150	92.90	-2.10	1.60	 	 	 	 	 	 	 	 	 	 	 	 	 	 	 	 	 	 	1581528678	9.06	16.78
12/02/2020 17:31:19	120220	12022020	173119	92.73	12.418798	-56.866308	92.65	0.130	0.250	1.570	92.66	-0.90	2.00	 	 	 	 	 	 	 	 	 	 	 	 	 	 	 	 	 	 	1581528679	8.04	14.89
12/02/2020 17:31:20	120220	12022020	173120	92.40	12.418797	-56.866275	92.33	-0.480	1.230	1.540	92.34	-0.10	1.90	 	 	 	 	 	 	 	 	 	 	 	 	 	 	 	 	 	 	1581528680	7.30	13.52
12/02/2020 17:31:21	120220	12022020	173121	92.29	12.418800	-56.866237	92.28	-0.830	0.980	0.970	92.32	-0.50	1.30	 	 	 	 	 	 	 	 	 	 	 	 	 	 	 	 	 	 	1581528681	7.99	14.80
12/02/2020 17:31:22	120220	12022020	173122	92.65	12.418805	-56.866193	92.70	-0.670	-0.330	0.250	92.76	-1.90	0.60	 	 	 	 	 	 	 	 	 	 	 	 	 	 	 	 	 	 	1581528682	9.35	17.32
12/02/2020 17:31:23	120220	12022020	173123	93.07	12.418807	-56.866147	93.06	-0.240	-1.410	0.030	93.12	-2.80	0.50	 	 	 	 	 	 	 	 	 	 	 	 	 	 	 	 	 	 	1581528683	9.82	18.19
12/02/2020 17:31:24	120220	12022020	173124	93.17	12.418807	-56.866103	93.12	0.100	-1.290	0.250	93.16	-2.50	0.70	 	 	 	 	 	 	 	 	 	 	 	 	 	 	 	 	 	 	1581528684	8.92	16.52
12/02/2020 17:31:25	120220	12022020	173125	93.07	12.418805	-56.866067	93.01	0.310	-0.450	0.580	93.04	-1.70	1.00	 	 	 	 	 	 	 	 	 	 	 	 	 	 	 	 	 	 	1581528685	7.77	14.39
12/02/2020 17:31:26	120220	12022020	173126	92.87	12.418803	-56.866030	92.81	0.560	-0.190	0.860	92.84	-1.60	1.30	 	 	 	 	 	 	 	 	 	 	 	 	 	 	 	 	 	 	1581528686	7.95	14.72
12/02/2020 17:31:27	120220	12022020	173127	92.81	12.418803	-56.865987	92.80	0.780	-0.450	0.750	92.83	-1.80	1.10	 	 	 	 	 	 	 	 	 	 	 	 	 	 	 	 	 	 	1581528687	9.03	16.72
12/02/2020 17:31:28	120220	12022020	173128	93.00	12.418808	-56.865945	93.01	0.510	-0.130	0.270	93.05	-1.40	0.70	 	 	 	 	 	 	 	 	 	 	 	 	 	 	 	 	 	 	1581528688	9.07	16.80
12/02/2020 17:31:29	120220	12022020	173129	93.27	12.418813	-56.865907	93.30	-0.280	0.730	0.170	93.35	-0.60	0.60	 	 	 	 	 	 	 	 	 	 	 	 	 	 	 	 	 	 	1581528689	7.96	14.74
12/02/2020 17:31:30	120220	12022020	173130	93.66	12.418812	-56.865872	93.68	-1.020	1.000	0.520	93.72	-0.40	1.00	 	 	 	 	 	 	 	 	 	 	 	 	 	 	 	 	 	 	1581528690	7.54	13.96
12/02/2020 17:31:31	120220	12022020	173131	93.76	12.418807	-56.865832	93.69	-1.050	0.030	1.080	93.71	-1.50	1.60	 	 	 	 	 	 	 	 	 	 	 	 	 	 	 	 	 	 	1581528691	8.51	15.76
12/02/2020 17:31:32	120220	12022020	173132	93.33	12.418803	-56.865785	93.24	-0.280	-1.630	1.540	93.23	-3.10	2.00	 	 	 	 	 	 	 	 	 	 	 	 	 	 	 	 	 	 	1581528692	9.95	18.43
12/02/2020 17:31:33	120220	12022020	173133	92.98	12.418800	-56.865737	92.97	0.540	-2.210	1.730	92.97	-3.50	2.20	 	 	 	 	 	 	 	 	 	 	 	 	 	 	 	 	 	 	1581528693	10.16	18.82
12/02/2020 17:31:34	120220	12022020	173134	93.18	12.418798	-56.865697	93.26	0.640	-0.890	1.620	93.27	-2.00	2.00	 	 	 	 	 	 	 	 	 	 	 	 	 	 	 	 	 	 	1581528694	8.50	15.74
12/02/2020 17:31:35	120220	12022020	173135	93.68	12.418798	-56.865663	93.74	0.020	1.020	1.050	93.76	-0.20	1.40	 	 	 	 	 	 	 	 	 	 	 	 	 	 	 	 	 	 	1581528695	6.80	12.59
12/02/2020 17:31:36	120220	12022020	173136	93.90	12.418802	-56.865632	93.85	-0.550	1.630	0.550	93.88	0.20	0.90	 	 	 	 	 	 	 	 	 	 	 	 	 	 	 	 	 	 	1581528696	7.03	13.02
12/02/2020 17:31:37	120220	12022020	173137	93.74	12.418803	-56.865590	93.67	-0.450	0.600	0.490	93.70	-1.00	0.90	 	 	 	 	 	 	 	 	 	 	 	 	 	 	 	 	 	 	1581528697	8.73	16.17
12/02/2020 17:31:38	120220	12022020	173138	93.59	12.418803	-56.865543	93.55	0.150	-0.900	0.590	93.58	-2.40	1.00	 	 	 	 	 	 	 	 	 	 	 	 	 	 	 	 	 	 	1581528698	9.96	18.45
12/02/2020 17:31:39	120220	12022020	173139	93.59	12.418803	-56.865497	93.56	0.640	-1.590	0.520	93.60	-3.00	0.90	 	 	 	 	 	 	 	 	 	 	 	 	 	 	 	 	 	 	1581528699	9.74	18.04
12/02/2020 17:31:40	120220	12022020	173140	93.58	12.418805	-56.865455	93.56	0.590	-1.230	0.580	93.58	-2.50	1.10	 	 	 	 	 	 	 	 	 	 	 	 	 	 	 	 	 	 	1581528700	8.79	16.28
12/02/2020 17:31:41	120220	12022020	173141	93.61	12.418802	-56.865418	93.63	0.010	-0.170	1.080	93.64	-1.40	1.60	 	 	 	 	 	 	 	 	 	 	 	 	 	 	 	 	 	 	1581528701	7.86	14.56
12/02/2020 17:31:42	120220	12022020	173142	93.77	12.418798	-56.865383	93.81	-0.670	0.790	1.520	93.81	-0.50	2.00	 	 	 	 	 	 	 	 	 	 	 	 	 	 	 	 	 	 	1581528702	7.37	13.65
12/02/2020 17:31:43	120220	12022020	173143	93.83	12.418793	-56.865345	93.83	-0.790	0.590	1.620	93.81	-0.90	2.00	 	 	 	 	 	 	 	 	 	 	 	 	 	 	 	 	 	 	1581528703	8.03	14.87
12/02/2020 17:31:44	120220	12022020	173144	93.68	12.418792	-56.865300	93.66	-0.190	-0.650	1.480	93.65	-2.20	1.90	 	 	 	 	 	 	 	 	 	 	 	 	 	 	 	 	 	 	1581528704	9.57	17.72
12/02/2020 17:31:45	120220	12022020	173145	93.58	12.418790	-56.865252	93.60	0.430	-1.380	1.270	93.59	-2.70	1.70	 	 	 	 	 	 	 	 	 	 	 	 	 	 	 	 	 	 	1581528705	10.13	18.76
12/02/2020 17:31:46	120220	12022020	173146	93.76	12.418790	-56.865210	93.83	0.430	-0.680	0.940	93.84	-1.90	1.30	 	 	 	 	 	 	 	 	 	 	 	 	 	 	 	 	 	 	1581528706	8.84	16.37
12/02/2020 17:31:47	120220	12022020	173147	94.18	12.418792	-56.865177	94.25	-0.090	0.750	0.480	94.26	-0.50	0.90	 	 	 	 	 	 	 	 	 	 	 	 	 	 	 	 	 	 	1581528707	7.27	13.46
12/02/2020 17:31:48	120220	12022020	173148	94.38	12.418793	-56.865142	94.36	-0.480	1.280	0.380	94.36	-0.10	0.80	 	 	 	 	 	 	 	 	 	 	 	 	 	 	 	 	 	 	1581528708	7.12	13.19
12/02/2020 17:31:49	120220	12022020	173149	94.10	12.418792	-56.865102	94.02	-0.290	0.240	0.780	94.01	-1.30	1.30	 	 	 	 	 	 	 	 	 	 	 	 	 	 	 	 	 	 	1581528709	8.59	15.91
12/02/2020 17:31:50	120220	12022020	173150	93.67	12.418788	-56.865055	93.64	0.270	-1.320	1.170	93.62	-2.80	1.60	 	 	 	 	 	 	 	 	 	 	 	 	 	 	 	 	 	 	1581528710	10.04	18.59
12/02/2020 17:31:51	120220	12022020	173151	93.59	12.418785	-56.865008	93.64	0.660	-1.870	1.230	93.62	-3.20	1.60	 	 	 	 	 	 	 	 	 	 	 	 	 	 	 	 	 	 	1581528711	9.89	18.32
12/02/2020 17:31:52	120220	12022020	173152	93.87	12.418785	-56.864968	93.95	0.490	-1.010	1.010	93.94	-2.20	1.40	 	 	 	 	 	 	 	 	 	 	 	 	 	 	 	 	 	 	1581528712	8.47	15.69
12/02/2020 17:31:53	120220	12022020	173153	94.14	12.418785	-56.864933	94.16	-0.060	0.250	0.770	94.16	-1.00	1.20	 	 	 	 	 	 	 	 	 	 	 	 	 	 	 	 	 	 	1581528713	7.38	13.67
12/02/2020 17:31:54	120220	12022020	173154	94.10	12.418783	-56.864897	94.07	-0.450	0.850	0.900	94.06	-0.50	1.40	 	 	 	 	 	 	 	 	 	 	 	 	 	 	 	 	 	 	1581528714	7.57	14.02
12/02/2020 17:31:55	120220	12022020	173155	93.87	12.418778	-56.864857	93.83	-0.490	0.700	1.240	93.82	-0.70	1.70	 	 	 	 	 	 	 	 	 	 	 	 	 	 	 	 	 	 	1581528715	8.42	15.59
12/02/2020 17:31:56	120220	12022020	173156	93.62	12.418777	-56.864815	93.57	-0.310	0.010	1.310	93.56	-1.50	1.70	 	 	 	 	 	 	 	 	 	 	 	 	 	 	 	 	 	 	1581528716	8.99	16.65
12/02/2020 17:31:57	120220	12022020	173157	93.37	12.418777	-56.864770	93.32	-0.030	-0.920	1.020	93.33	-2.40	1.40	 	 	 	 	 	 	 	 	 	 	 	 	 	 	 	 	 	 	1581528717	9.50	17.59
12/02/2020 17:31:58	120220	12022020	173158	93.27	12.418777	-56.864725	93.26	0.150	-1.260	0.840	93.27	-2.60	1.30	 	 	 	 	 	 	 	 	 	 	 	 	 	 	 	 	 	 	1581528718	9.50	17.59
12/02/2020 17:31:59	120220	12022020	173159	93.35	12.418775	-56.864685	93.37	0.080	-0.610	0.950	93.38	-1.80	1.40	 	 	 	 	 	 	 	 	 	 	 	 	 	 	 	 	 	 	1581528719	8.50	15.74
12/02/2020 17:32:00	120220	12022020	173200	93.54	12.418773	-56.864648	93.55	-0.030	0.280	1.080	93.56	-1.00	1.50	 	 	 	 	 	 	 	 	 	 	 	 	 	 	 	 	 	 	1581528720	7.63	14.13
12/02/2020 17:32:01	120220	12022020	173201	93.50	12.418770	-56.864612	93.44	0.080	0.410	1.260	93.44	-1.00	1.70	 	 	 	 	 	 	 	 	 	 	 	 	 	 	 	 	 	 	1581528721	7.99	14.80
12/02/2020 17:32:02	120220	12022020	173202	93.05	12.418767	-56.864568	92.97	0.280	-0.090	1.550	92.95	-1.50	2.00	1015.30	26.60	26.70	20.60	20.60	876.0	69.0	69.0	392.0	28.6	346.00	15.40	74.00	11.20	63613	6590.0	27.4	27.4	1581528722	8.98	16.63
12/02/2020 17:32:03	120220	12022020	173203	92.60	12.418765	-56.864525	92.56	0.290	-0.510	1.610	92.56	-1.90	2.00	 	 	 	 	 	 	 	 	 	 	 	 	 	 	 	 	 	 	1581528723	9.25	17.13
12/02/2020 17:32:04	120220	12022020	173204	92.55	12.418767	-56.864483	92.57	0.100	-0.430	1.230	92.59	-1.80	1.60	 	 	 	 	 	 	 	 	 	 	 	 	 	 	 	 	 	 	1581528724	8.84	16.37
12/02/2020 17:32:05	120220	12022020	173205	92.82	12.418770	-56.864443	92.85	-0.090	-0.230	0.850	92.87	-1.60	1.30	 	 	 	 	 	 	 	 	 	 	 	 	 	 	 	 	 	 	1581528725	8.36	15.48
12/02/2020 17:32:06	120220	12022020	173206	92.84	12.418770	-56.864403	92.77	-0.040	-0.500	1.090	92.77	-1.90	1.60	 	 	 	 	 	 	 	 	 	 	 	 	 	 	 	 	 	 	1581528726	8.65	16.02
12/02/2020 17:32:07	120220	12022020	173207	92.31	12.418767	-56.864358	92.19	0.160	-0.890	1.650	92.18	-2.20	2.10	 	 	 	 	 	 	 	 	 	 	 	 	 	 	 	 	 	 	1581528727	9.32	17.26
12/02/2020 17:32:08	120220	12022020	173208	91.78	12.418763	-56.864317	91.75	0.190	-0.570	2.040	91.73	-1.80	2.50	 	 	 	 	 	 	 	 	 	 	 	 	 	 	 	 	 	 	1581528728	9.11	16.87
12/02/2020 17:32:09	120220	12022020	173209	91.73	12.418762	-56.864277	91.76	-0.090	0.270	1.960	91.77	-1.00	2.30	 	 	 	 	 	 	 	 	 	 	 	 	 	 	 	 	 	 	1581528729	8.26	15.30
12/02/2020 17:32:10	120220	12022020	173210	92.02	12.418762	-56.864238	92.06	-0.480	0.730	1.440	92.09	-0.60	1.80	 	 	 	 	 	 	 	 	 	 	 	 	 	 	 	 	 	 	1581528730	7.99	14.80
12/02/2020 17:32:11	120220	12022020	173211	92.31	12.418763	-56.864198	92.32	-0.580	0.290	1.030	92.35	-1.20	1.40	 	 	 	 	 	 	 	 	 	 	 	 	 	 	 	 	 	 	1581528731	8.61	15.95
12/02/2020 17:32:12	120220	12022020	173212	92.38	12.418763	-56.864153	92.35	-0.200	-0.720	1.080	92.37	-2.20	1.50	 	 	 	 	 	 	 	 	 	 	 	 	 	 	 	 	 	 	1581528732	9.48	17.56
12/02/2020 17:32:13	120220	12022020	173213	92.25	12.418762	-56.864107	92.17	0.460	-1.500	1.240	92.19	-2.90	1.70	 	 	 	 	 	 	 	 	 	 	 	 	 	 	 	 	 	 	1581528733	9.88	18.30
12/02/2020 17:32:14	120220	12022020	173214	91.91	12.418760	-56.864062	91.81	0.880	-1.240	1.420	91.83	-2.50	1.90	 	 	 	 	 	 	 	 	 	 	 	 	 	 	 	 	 	 	1581528734	9.40	17.41
12/02/2020 17:32:15	120220	12022020	173215	91.63	12.418762	-56.864023	91.57	0.610	-0.000	1.330	91.62	-1.20	1.70	 	 	 	 	 	 	 	 	 	 	 	 	 	 	 	 	 	 	1581528735	8.32	15.41
12/02/2020 17:32:16	120220	12022020	173216	91.67	12.418765	-56.863988	91.65	-0.270	1.250	0.960	91.70	-0.00	1.40	 	 	 	 	 	 	 	 	 	 	 	 	 	 	 	 	 	 	1581528736	7.50	13.89
12/02/2020 17:32:17	120220	12022020	173217	91.87	12.418768	-56.863952	91.84	-1.050	1.470	0.750	91.91	0.00	1.20	 	 	 	 	 	 	 	 	 	 	 	 	 	 	 	 	 	 	1581528737	7.72	14.30
12/02/2020 17:32:18	120220	12022020	173218	91.99	12.418768	-56.863910	91.95	-1.010	0.280	0.710	92.01	-1.30	1.10	 	 	 	 	 	 	 	 	 	 	 	 	 	 	 	 	 	 	1581528738	8.90	16.48
12/02/2020 17:32:19	120220	12022020	173219	91.98	12.418768	-56.863860	91.92	-0.140	-1.640	0.800	91.96	-3.20	1.30	 	 	 	 	 	 	 	 	 	 	 	 	 	 	 	 	 	 	1581528739	10.24	18.96
12/02/2020 17:32:20	120220	12022020	173220	91.81	12.418765	-56.863810	91.76	0.880	-2.810	1.210	91.79	-4.20	1.70	 	 	 	 	 	 	 	 	 	 	 	 	 	 	 	 	 	 	1581528740	10.68	19.78
12/02/2020 17:32:21	120220	12022020	173221	91.86	12.418763	-56.863765	91.87	1.090	-1.990	1.350	91.91	-3.10	1.80	 	 	 	 	 	 	 	 	 	 	 	 	 	 	 	 	 	 	1581528741	9.47	17.54
12/02/2020 17:32:22	120220	12022020	173222	92.18	12.418763	-56.863730	92.20	0.290	0.340	1.230	92.25	-0.70	1.60	 	 	 	 	 	 	 	 	 	 	 	 	 	 	 	 	 	 	1581528742	7.40	13.70
12/02/2020 17:32:23	120220	12022020	173223	92.42	12.418763	-56.863700	92.38	-0.750	2.290	1.220	92.43	1.00	1.60	 	 	 	 	 	 	 	 	 	 	 	 	 	 	 	 	 	 	1581528743	6.41	11.87
12/02/2020 17:32:24	120220	12022020	173224	92.34	12.418763	-56.863665	92.25	-1.060	2.180	1.170	92.30	0.60	1.60	 	 	 	 	 	 	 	 	 	 	 	 	 	 	 	 	 	 	1581528744	7.58	14.04
12/02/2020 17:32:25	120220	12022020	173225	92.25	12.418765	-56.863618	92.21	-0.600	0.370	0.880	92.26	-1.30	1.30	 	 	 	 	 	 	 	 	 	 	 	 	 	 	 	 	 	 	1581528745	9.75	18.06
12/02/2020 17:32:26	120220	12022020	173226	92.38	12.418767	-56.863568	92.37	0.080	-1.480	0.690	92.43	-3.00	1.10	 	 	 	 	 	 	 	 	 	 	 	 	 	 	 	 	 	 	1581528746	10.62	19.67
12/02/2020 17:32:27	120220	12022020	173227	92.63	12.418767	-56.863522	92.61	0.490	-2.040	0.600	92.67	-3.30	1.00	 	 	 	 	 	 	 	 	 	 	 	 	 	 	 	 	 	 	1581528747	9.76	18.08
12/02/2020 17:32:28	120220	12022020	173228	92.80	12.418767	-56.863482	92.77	0.640	-1.460	0.690	92.81	-2.70	1.10	 	 	 	 	 	 	 	 	 	 	 	 	 	 	 	 	 	 	1581528748	8.42	15.59
12/02/2020 17:32:29	120220	12022020	173229	92.68	12.418765	-56.863443	92.59	0.710	-0.730	1.150	92.60	-2.00	1.60	 	 	 	 	 	 	 	 	 	 	 	 	 	 	 	 	 	 	1581528749	8.07	14.95
12/02/2020 17:32:30	120220	12022020	173230	92.25	12.418763	-56.863403	92.18	0.610	-0.120	1.520	92.19	-1.40	2.00	 	 	 	 	 	 	 	 	 	 	 	 	 	 	 	 	 	 	1581528750	8.55	15.83
12/02/2020 17:32:31	120220	12022020	173231	92.06	12.418763	-56.863363	92.03	0.040	0.730	1.580	92.05	-0.50	2.00	 	 	 	 	 	 	 	 	 	 	 	 	 	 	 	 	 	 	1581528751	8.48	15.70
12/02/2020 17:32:32	120220	12022020	173232	92.10	12.418763	-56.863327	92.10	-0.810	1.480	1.420	92.13	0.20	1.80	 	 	 	 	 	 	 	 	 	 	 	 	 	 	 	 	 	 	1581528752	7.86	14.56
12/02/2020 17:32:33	120220	12022020	173233	92.23	12.418763	-56.863288	92.20	-1.280	1.240	1.050	92.24	-0.30	1.40	 	 	 	 	 	 	 	 	 	 	 	 	 	 	 	 	 	 	1581528753	7.99	14.80
12/02/2020 17:32:34	120220	12022020	173234	92.32	12.418763	-56.863245	92.29	-0.830	-0.380	0.540	92.34	-2.00	0.90	 	 	 	 	 	 	 	 	 	 	 	 	 	 	 	 	 	 	1581528754	9.26	17.15
12/02/2020 17:32:35	120220	12022020	173235	92.36	12.418763	-56.863195	92.30	0.230	-2.170	0.400	92.34	-3.60	0.80	 	 	 	 	 	 	 	 	 	 	 	 	 	 	 	 	 	 	1581528755	10.48	19.41
12/02/2020 17:32:36	120220	12022020	173236	92.21	12.418762	-56.863148	92.12	1.030	-2.480	0.560	92.16	-3.70	1.00	 	 	 	 	 	 	 	 	 	 	 	 	 	 	 	 	 	 	1581528756	9.95	18.43
12/02/2020 17:32:37	120220	12022020	173237	91.92	12.418762	-56.863108	91.80	1.070	-1.130	0.490	91.85	-2.20	0.90	 	 	 	 	 	 	 	 	 	 	 	 	 	 	 	 	 	 	1581528757	8.30	15.37
12/02/2020 17:32:38	120220	12022020	173238	91.56	12.418765	-56.863075	91.44	0.460	0.680	0.470	91.49	-0.50	0.90	 	 	 	 	 	 	 	 	 	 	 	 	 	 	 	 	 	 	1581528758	7.28	13.48
12/02/2020 17:32:39	120220	12022020	173239	91.26	12.418765	-56.863040	91.20	-0.440	1.800	0.820	91.23	0.50	1.30	 	 	 	 	 	 	 	 	 	 	 	 	 	 	 	 	 	 	1581528759	7.31	13.54
12/02/2020 17:32:40	120220	12022020	173240	91.19	12.418765	-56.863002	91.18	-1.090	1.440	1.060	91.20	-0.10	1.50	 	 	 	 	 	 	 	 	 	 	 	 	 	 	 	 	 	 	1581528760	8.18	15.15
12/02/2020 17:32:41	120220	12022020	173241	91.32	12.418763	-56.862955	91.32	-0.900	-0.250	0.970	91.34	-1.80	1.40	 	 	 	 	 	 	 	 	 	 	 	 	 	 	 	 	 	 	1581528761	9.60	17.78
12/02/2020 17:32:42	120220	12022020	173242	91.30	12.418762	-56.862905	91.26	0.160	-2.010	1.150	91.28	-3.50	1.60	 	 	 	 	 	 	 	 	 	 	 	 	 	 	 	 	 	 	1581528762	10.56	19.56
12/02/2020 17:32:43	120220	12022020	173243	91.10	12.418760	-56.862858	91.05	1.170	-2.310	1.470	91.06	-3.50	1.90	 	 	 	 	 	 	 	 	 	 	 	 	 	 	 	 	 	 	1581528763	10.17	18.83
12/02/2020 17:32:44	120220	12022020	173244	90.97	12.418762	-56.862818	90.94	1.030	-0.590	1.550	90.96	-1.60	1.90	 	 	 	 	 	 	 	 	 	 	 	 	 	 	 	 	 	 	1581528764	8.23	15.24
12/02/2020 17:32:45	120220	12022020	173245	91.05	12.418765	-56.862788	91.06	-0.190	1.720	1.280	91.10	0.60	1.70	 	 	 	 	 	 	 	 	 	 	 	 	 	 	 	 	 	 	1581528765	6.41	11.87
12/02/2020 17:32:46	120220	12022020	173246	91.35	12.418767	-56.862758	91.38	-1.390	2.510	0.910	91.43	1.10	1.30	 	 	 	 	 	 	 	 	 	 	 	 	 	 	 	 	 	 	1581528766	6.40	11.85
12/02/2020 17:32:47	120220	12022020	173247	91.72	12.418767	-56.862718	91.74	-1.390	0.840	0.650	91.79	-0.80	1.10	 	 	 	 	 	 	 	 	 	 	 	 	 	 	 	 	 	 	1581528767	8.51	15.76
12/02/2020 17:32:48	120220	12022020	173248	91.89	12.418767	-56.862667	91.84	-0.160	-1.940	0.700	91.86	-3.60	1.20	 	 	 	 	 	 	 	 	 	 	 	 	 	 	 	 	 	 	1581528768	10.71	19.83
12/02/2020 17:32:49	120220	12022020	173249	91.61	12.418765	-56.862615	91.51	1.270	-3.480	0.970	91.54	-4.80	1.40	 	 	 	 	 	 	 	 	 	 	 	 	 	 	 	 	 	 	1581528769	11.01	20.39
12/02/2020 17:32:50	120220	12022020	173250	91.32	12.418765	-56.862572	91.26	1.750	-2.420	1.020	91.29	-3.40	1.40	 	 	 	 	 	 	 	 	 	 	 	 	 	 	 	 	 	 	1581528770	9.19	17.02
12/02/2020 17:32:51	120220	12022020	173251	91.36	12.418768	-56.862540	91.35	0.900	0.280	0.950	91.41	-0.70	1.40	 	 	 	 	 	 	 	 	 	 	 	 	 	 	 	 	 	 	1581528771	6.88	12.74
12/02/2020 17:32:52	120220	12022020	173252	91.69	12.418772	-56.862512	91.71	-0.650	2.490	0.790	91.77	1.30	1.20	 	 	 	 	 	 	 	 	 	 	 	 	 	 	 	 	 	 	1581528772	6.10	11.30
12/02/2020 17:32:53	120220	12022020	173253	92.14	12.418773	-56.862478	92.14	-1.860	2.860	0.490	92.21	1.40	0.90	 	 	 	 	 	 	 	 	 	 	 	 	 	 	 	 	 	 	1581528773	7.01	12.98
12/02/2020 17:32:54	120220	12022020	173254	92.46	12.418775	-56.862437	92.44	-1.800	1.240	0.380	92.50	-0.40	0.80	 	 	 	 	 	 	 	 	 	 	 	 	 	 	 	 	 	 	1581528774	8.72	16.15
12/02/2020 17:32:55	120220	12022020	173255	92.69	12.418773	-56.862388	92.68	-0.470	-1.390	0.430	92.74	-3.00	0.90	 	 	 	 	 	 	 	 	 	 	 	 	 	 	 	 	 	 	1581528775	10.34	19.15
12/02/2020 17:32:56	120220	12022020	173256	92.78	12.418770	-56.862337	92.71	1.150	-3.260	0.550	92.74	-4.70	1.00	 	 	 	 	 	 	 	 	 	 	 	 	 	 	 	 	 	 	1581528776	10.74	19.89
12/02/2020 17:32:57	120220	12022020	173257	92.40	12.418770	-56.862292	92.25	1.950	-2.980	0.720	92.27	-4.10	1.10	 	 	 	 	 	 	 	 	 	 	 	 	 	 	 	 	 	 	1581528777	9.50	17.59
12/02/2020 17:32:58	120220	12022020	173258	91.77	12.418772	-56.862257	91.67	1.530	-0.700	0.600	91.69	-1.70	1.00	 	 	 	 	 	 	 	 	 	 	 	 	 	 	 	 	 	 	1581528778	7.53	13.95
12/02/2020 17:32:59	120220	12022020	173259	91.63	12.418778	-56.862227	91.65	0.220	1.920	0.230	91.69	0.80	0.60	 	 	 	 	 	 	 	 	 	 	 	 	 	 	 	 	 	 	1581528779	6.26	11.59
12/02/2020 17:33:00	120220	12022020	173300	92.17	12.418783	-56.862197	92.26	-1.190	2.960	-0.080	92.32	1.50	0.30	 	 	 	 	 	 	 	 	 	 	 	 	 	 	 	 	 	 	1581528780	6.51	12.06
12/02/2020 17:33:01	120220	12022020	173301	92.83	12.418783	-56.862158	92.84	-1.800	1.730	-0.200	92.90	0.10	0.20	 	 	 	 	 	 	 	 	 	 	 	 	 	 	 	 	 	 	1581528781	8.16	15.11
12/02/2020 17:33:02	120220	12022020	173302	92.88	12.418778	-56.862112	92.78	-1.090	-0.900	0.260	92.80	-2.60	0.80	1015.60	26.60	26.70	21.20	21.20	878.0	72.0	71.0	392.0	28.7	349.00	14.50	76.00	10.10	63398	10387.0	27.4	27.4	1581528782	10.07	18.65
12/02/2020 17:33:03	120220	12022020	173303	92.39	12.418773	-56.862060	92.27	0.410	-2.980	0.880	92.28	-4.40	1.40	 	 	 	 	 	 	 	 	 	 	 	 	 	 	 	 	 	 	1581528783	10.83	20.06
12/02/2020 17:33:04	120220	12022020	173304	91.99	12.418770	-56.862015	91.95	1.480	-2.980	1.120	91.97	-4.20	1.50	 	 	 	 	 	 	 	 	 	 	 	 	 	 	 	 	 	 	1581528784	9.68	17.93
12/02/2020 17:33:05	120220	12022020	173305	92.02	12.418772	-56.861978	92.03	1.320	-1.080	0.880	92.07	-2.10	1.30	 	 	 	 	 	 	 	 	 	 	 	 	 	 	 	 	 	 	1581528785	7.66	14.19
12/02/2020 17:33:06	120220	12022020	173306	92.27	12.418775	-56.861948	92.27	0.230	1.230	0.630	92.31	0.10	1.00	 	 	 	 	 	 	 	 	 	 	 	 	 	 	 	 	 	 	1581528786	6.41	11.87
12/02/2020 17:33:07	120220	12022020	173307	92.38	12.418775	-56.861917	92.34	-0.840	2.370	0.640	92.39	1.00	1.10	 	 	 	 	 	 	 	 	 	 	 	 	 	 	 	 	 	 	1581528787	6.61	12.24
12/02/2020 17:33:08	120220	12022020	173308	92.42	12.418775	-56.861878	92.38	-1.130	1.660	0.580	92.43	0.10	1.00	 	 	 	 	 	 	 	 	 	 	 	 	 	 	 	 	 	 	1581528788	8.05	14.91
12/02/2020 17:33:09	120220	12022020	173309	92.47	12.418775	-56.861833	92.43	-0.600	-0.210	0.570	92.47	-1.80	1.00	 	 	 	 	 	 	 	 	 	 	 	 	 	 	 	 	 	 	1581528789	9.66	17.89
12/02/2020 17:33:10	120220	12022020	173310	92.37	12.418773	-56.861785	92.28	0.240	-1.860	0.710	92.32	-3.30	1.10	 	 	 	 	 	 	 	 	 	 	 	 	 	 	 	 	 	 	1581528790	10.08	18.67
12/02/2020 17:33:11	120220	12022020	173311	92.08	12.418773	-56.861740	91.98	0.960	-2.290	0.840	92.01	-3.60	1.30	 	 	 	 	 	 	 	 	 	 	 	 	 	 	 	 	 	 	1581528791	9.43	17.46
12/02/2020 17:33:12	120220	12022020	173312	91.72	12.418775	-56.861702	91.63	1.270	-1.450	1.080	91.65	-2.60	1.50	 	 	 	 	 	 	 	 	 	 	 	 	 	 	 	 	 	 	1581528792	8.32	15.41
12/02/2020 17:33:13	120220	12022020	173313	91.56	12.418777	-56.861665	91.53	0.960	-0.090	1.300	91.58	-1.30	1.70	 	 	 	 	 	 	 	 	 	 	 	 	 	 	 	 	 	 	1581528793	7.62	14.11
12/02/2020 17:33:14	120220	12022020	173314	91.82	12.418777	-56.861630	91.87	0.110	1.090	1.180	91.92	-0.10	1.60	 	 	 	 	 	 	 	 	 	 	 	 	 	 	 	 	 	 	1581528794	7.48	13.85
12/02/2020 17:33:15	120220	12022020	173315	92.24	12.418778	-56.861595	92.26	-0.880	1.760	1.070	92.30	0.40	1.50	 	 	 	 	 	 	 	 	 	 	 	 	 	 	 	 	 	 	1581528795	7.48	13.85
12/02/2020 17:33:16	120220	12022020	173316	92.34	12.418775	-56.861557	92.29	-1.400	1.240	1.360	92.31	-0.30	1.80	 	 	 	 	 	 	 	 	 	 	 	 	 	 	 	 	 	 	1581528796	7.88	14.59
12/02/2020 17:33:17	120220	12022020	173317	92.23	12.418772	-56.861513	92.21	-0.880	-0.770	1.570	92.21	-2.40	2.00	 	 	 	 	 	 	 	 	 	 	 	 	 	 	 	 	 	 	1581528797	9.36	17.33
12/02/2020 17:33:18	120220	12022020	173318	92.14	12.418770	-56.861463	92.10	0.390	-2.720	1.570	92.12	-4.20	2.00	 	 	 	 	 	 	 	 	 	 	 	 	 	 	 	 	 	 	1581528798	10.61	19.65
12/02/2020 17:33:19	120220	12022020	173319	92.06	12.418770	-56.861417	92.03	1.330	-2.640	1.420	92.06	-3.80	1.80	 	 	 	 	 	 	 	 	 	 	 	 	 	 	 	 	 	 	1581528799	9.86	18.26
12/02/2020 17:33:20	120220	12022020	173320	92.12	12.418773	-56.861382	92.11	1.120	-0.420	1.170	92.15	-1.40	1.50	 	 	 	 	 	 	 	 	 	 	 	 	 	 	 	 	 	 	1581528800	7.48	13.85
12/02/2020 17:33:21	120220	12022020	173321	92.37	12.418777	-56.861353	92.38	-0.010	2.030	0.850	92.44	0.90	1.20	 	 	 	 	 	 	 	 	 	 	 	 	 	 	 	 	 	 	1581528801	5.83	10.80
12/02/2020 17:33:22	120220	12022020	173322	92.71	12.418780	-56.861323	92.71	-0.940	2.490	0.610	92.77	1.00	1.00	 	 	 	 	 	 	 	 	 	 	 	 	 	 	 	 	 	 	1581528802	6.44	11.93
12/02/2020 17:33:23	120220	12022020	173323	92.97	12.418782	-56.861282	92.92	-0.740	0.440	0.430	92.99	-1.20	0.90	 	 	 	 	 	 	 	 	 	 	 	 	 	 	 	 	 	 	1581528803	8.95	16.58
12/02/2020 17:33:24	120220	12022020	173324	92.93	12.418782	-56.861230	92.86	0.230	-2.030	0.590	92.91	-3.60	1.10	 	 	 	 	 	 	 	 	 	 	 	 	 	 	 	 	 	 	1581528804	10.82	20.04
12/02/2020 17:33:25	120220	12022020	173325	92.79	12.418780	-56.861182	92.74	0.870	-2.670	1.110	92.76	-3.90	1.60	 	 	 	 	 	 	 	 	 	 	 	 	 	 	 	 	 	 	1581528805	10.11	18.72
12/02/2020 17:33:26	120220	12022020	173326	92.69	12.418777	-56.861145	92.67	0.640	-1.140	1.650	92.68	-2.20	2.10	 	 	 	 	 	 	 	 	 	 	 	 	 	 	 	 	 	 	1581528806	7.81	14.46
12/02/2020 17:33:27	120220	12022020	173327	92.66	12.418773	-56.861117	92.64	-0.070	0.840	1.680	92.65	-0.30	2.00	 	 	 	 	 	 	 	 	 	 	 	 	 	 	 	 	 	 	1581528807	6.19	11.46
12/02/2020 17:33:28	120220	12022020	173328	92.64	12.418775	-56.861083	92.62	-0.490	1.540	1.140	92.65	0.20	1.50	 	 	 	 	 	 	 	 	 	 	 	 	 	 	 	 	 	 	1581528808	6.79	12.58
12/02/2020 17:33:29	120220	12022020	173329	92.77	12.418778	-56.861045	92.77	-0.440	0.920	0.500	92.82	-0.50	0.90	 	 	 	 	 	 	 	 	 	 	 	 	 	 	 	 	 	 	1581528809	8.35	15.46
12/02/2020 17:33:30	120220	12022020	173330	93.11	12.418782	-56.861002	93.11	-0.240	-0.100	0.090	93.18	-1.50	0.50	 	 	 	 	 	 	 	 	 	 	 	 	 	 	 	 	 	 	1581528810	9.11	16.87
12/02/2020 17:33:31	120220	12022020	173331	93.40	12.418780	-56.860960	93.37	-0.130	-0.920	0.140	93.42	-2.30	0.60	 	 	 	 	 	 	 	 	 	 	 	 	 	 	 	 	 	 	1581528811	8.91	16.50
12/02/2020 17:33:32	120220	12022020	173332	93.36	12.418778	-56.860918	93.26	0.040	-1.390	0.600	93.29	-2.70	1.10	 	 	 	 	 	 	 	 	 	 	 	 	 	 	 	 	 	 	1581528812	8.56	15.85
12/02/2020 17:33:33	120220	12022020	173333	92.87	12.418775	-56.860878	92.75	0.440	-1.460	1.170	92.76	-2.70	1.60	 	 	 	 	 	 	 	 	 	 	 	 	 	 	 	 	 	 	1581528813	8.51	15.76
12/02/2020 17:33:34	120220	12022020	173334	92.40	12.418773	-56.860840	92.33	0.750	-0.890	1.430	92.35	-2.10	1.80	 	 	 	 	 	 	 	 	 	 	 	 	 	 	 	 	 	 	1581528814	8.38	15.52
12/02/2020 17:33:35	120220	12022020	173335	92.40	12.418775	-56.860803	92.42	0.470	0.250	1.250	92.46	-0.90	1.60	 	 	 	 	 	 	 	 	 	 	 	 	 	 	 	 	 	 	1581528815	7.74	14.33
12/02/2020 17:33:36	120220	12022020	173336	92.80	12.418775	-56.860768	92.84	-0.200	1.100	0.840	92.90	-0.20	1.20	 	 	 	 	 	 	 	 	 	 	 	 	 	 	 	 	 	 	1581528816	7.32	13.56
12/02/2020 17:33:37	120220	12022020	173337	93.19	12.418777	-56.860730	93.17	-0.640	0.890	0.720	93.23	-0.50	1.20	 	 	 	 	 	 	 	 	 	 	 	 	 	 	 	 	 	 	1581528817	7.90	14.63
12/02/2020 17:33:38	120220	12022020	173338	93.20	12.418773	-56.860688	93.13	-0.570	-0.030	1.050	93.15	-1.50	1.50	 	 	 	 	 	 	 	 	 	 	 	 	 	 	 	 	 	 	1581528818	8.87	16.43
12/02/2020 17:33:39	120220	12022020	173339	92.82	12.418770	-56.860645	92.70	-0.120	-1.010	1.460	92.70	-2.40	1.90	 	 	 	 	 	 	 	 	 	 	 	 	 	 	 	 	 	 	1581528819	9.26	17.15
12/02/2020 17:33:40	120220	12022020	173340	92.27	12.418768	-56.860602	92.17	0.400	-1.380	1.700	92.18	-2.70	2.10	 	 	 	 	 	 	 	 	 	 	 	 	 	 	 	 	 	 	1581528820	9.12	16.89
12/02/2020 17:33:41	120220	12022020	173341	91.97	12.418768	-56.860562	91.96	0.560	-0.740	1.620	91.98	-1.90	2.00	 	 	 	 	 	 	 	 	 	 	 	 	 	 	 	 	 	 	1581528821	8.38	15.52
12/02/2020 17:33:42	120220	12022020	173342	92.19	12.418772	-56.860527	92.22	0.150	0.200	1.150	92.27	-1.00	1.50	 	 	 	 	 	 	 	 	 	 	 	 	 	 	 	 	 	 	1581528822	7.58	14.04
12/02/2020 17:33:43	120220	12022020	173343	92.59	12.418773	-56.860490	92.61	-0.440	0.480	0.850	92.65	-0.90	1.30	 	 	 	 	 	 	 	 	 	 	 	 	 	 	 	 	 	 	1581528823	7.69	14.24
12/02/2020 17:33:44	120220	12022020	173344	92.78	12.418768	-56.860450	92.75	-0.590	0.040	1.170	92.78	-1.40	1.60	 	 	 	 	 	 	 	 	 	 	 	 	 	 	 	 	 	 	1581528824	8.52	15.78
12/02/2020 17:33:45	120220	12022020	173345	92.67	12.418763	-56.860408	92.59	-0.070	-0.520	1.440	92.61	-1.90	1.90	 	 	 	 	 	 	 	 	 	 	 	 	 	 	 	 	 	 	1581528825	9.08	16.82
12/02/2020 17:33:46	120220	12022020	173346	92.31	12.418762	-56.860365	92.22	0.560	-0.600	1.420	92.24	-1.90	1.80	 	 	 	 	 	 	 	 	 	 	 	 	 	 	 	 	 	 	1581528826	8.94	16.56
12/02/2020 17:33:47	120220	12022020	173347	92.02	12.418765	-56.860327	91.97	0.540	-0.140	1.360	91.99	-1.40	1.80	 	 	 	 	 	 	 	 	 	 	 	 	 	 	 	 	 	 	1581528827	8.30	15.37
12/02/2020 17:33:48	120220	12022020	173348	92.01	12.418767	-56.860288	92.01	-0.110	0.170	1.410	92.04	-1.10	1.80	 	 	 	 	 	 	 	 	 	 	 	 	 	 	 	 	 	 	1581528828	7.85	14.54
12/02/2020 17:33:49	120220	12022020	173349	92.24	12.418767	-56.860250	92.26	-0.640	-0.110	1.460	92.29	-1.50	1.90	 	 	 	 	 	 	 	 	 	 	 	 	 	 	 	 	 	 	1581528829	8.18	15.15
12/02/2020 17:33:50	120220	12022020	173350	92.36	12.418763	-56.860207	92.32	-0.330	-1.130	1.700	92.34	-2.60	2.20	 	 	 	 	 	 	 	 	 	 	 	 	 	 	 	 	 	 	1581528830	9.10	16.85
12/02/2020 17:33:51	120220	12022020	173351	92.09	12.418758	-56.860160	92.00	0.510	-1.860	2.180	91.99	-3.10	2.60	 	 	 	 	 	 	 	 	 	 	 	 	 	 	 	 	 	 	1581528831	9.97	18.46
12/02/2020 17:33:52	120220	12022020	173352	91.65	12.418757	-56.860117	91.59	0.850	-0.940	2.370	91.59	-2.00	2.80	 	 	 	 	 	 	 	 	 	 	 	 	 	 	 	 	 	 	1581528832	9.10	16.85
12/02/2020 17:33:53	120220	12022020	173353	91.52	12.418757	-56.860083	91.53	0.240	1.070	2.040	91.55	-0.00	2.40	 	 	 	 	 	 	 	 	 	 	 	 	 	 	 	 	 	 	1581528833	7.13	13.20
12/02/2020 17:33:54	120220	12022020	173354	91.79	12.418760	-56.860053	91.82	-0.760	2.200	1.340	91.87	0.90	1.70	 	 	 	 	 	 	 	 	 	 	 	 	 	 	 	 	 	 	1581528834	6.57	12.17
12/02/2020 17:33:55	120220	12022020	173355	92.19	12.418763	-56.860015	92.20	-1.210	1.380	0.730	92.26	-0.20	1.10	 	 	 	 	 	 	 	 	 	 	 	 	 	 	 	 	 	 	1581528835	8.00	14.82
12/02/2020 17:33:56	120220	12022020	173356	92.45	12.418763	-56.859970	92.40	-0.790	-0.550	0.660	92.45	-2.10	1.10	 	 	 	 	 	 	 	 	 	 	 	 	 	 	 	 	 	 	1581528836	9.62	17.82
12/02/2020 17:33:57	120220	12022020	173357	92.27	12.418762	-56.859922	92.16	0.150	-2.140	0.940	92.19	-3.50	1.40	 	 	 	 	 	 	 	 	 	 	 	 	 	 	 	 	 	 	1581528837	10.10	18.71
12/02/2020 17:33:58	120220	12022020	173358	91.79	12.418760	-56.859877	91.66	0.890	-2.350	1.160	91.69	-3.60	1.60	 	 	 	 	 	 	 	 	 	 	 	 	 	 	 	 	 	 	1581528838	9.37	17.35
12/02/2020 17:33:59	120220	12022020	173359	91.46	12.418760	-56.859840	91.40	0.950	-1.210	1.290	91.45	-2.30	1.70	 	 	 	 	 	 	 	 	 	 	 	 	 	 	 	 	 	 	1581528839	8.06	14.93
12/02/2020 17:34:00	120220	12022020	173400	91.57	12.418763	-56.859805	91.55	0.440	0.240	1.160	91.62	-0.90	1.50	 	 	 	 	 	 	 	 	 	 	 	 	 	 	 	 	 	 	1581528840	7.25	13.43
12/02/2020 17:34:01	120220	12022020	173401	91.84	12.418765	-56.859770	91.81	-0.270	0.980	0.900	91.87	-0.30	1.30	 	 	 	 	 	 	 	 	 	 	 	 	 	 	 	 	 	 	1581528841	7.58	14.04
12/02/2020 17:34:02	120220	12022020	173402	91.89	12.418763	-56.859730	91.81	-0.790	0.860	0.970	91.86	-0.50	1.40	1015.60	26.50	26.60	20.90	21.00	873.0	71.0	71.0	392.0	28.7	346.00	15.40	73.00	11.30	63195	9917.0	27.4	27.4	1581528842	8.41	15.58
12/02/2020 17:34:03	120220	12022020	173403	91.68	12.418758	-56.859688	91.59	-0.860	0.400	1.290	91.63	-1.00	1.70	 	 	 	 	 	 	 	 	 	 	 	 	 	 	 	 	 	 	1581528843	8.91	16.50
12/02/2020 17:34:04	120220	12022020	173404	91.45	12.418757	-56.859647	91.37	-0.540	-0.060	1.350	91.42	-1.40	1.70	 	 	 	 	 	 	 	 	 	 	 	 	 	 	 	 	 	 	1581528844	8.82	16.33
12/02/2020 17:34:05	120220	12022020	173405	91.37	12.418758	-56.859603	91.33	-0.020	-0.640	1.130	91.38	-2.00	1.50	 	 	 	 	 	 	 	 	 	 	 	 	 	 	 	 	 	 	1581528845	8.84	16.37
12/02/2020 17:34:06	120220	12022020	173406	91.47	12.418762	-56.859562	91.44	0.460	-1.230	0.930	91.49	-2.60	1.30	 	 	 	 	 	 	 	 	 	 	 	 	 	 	 	 	 	 	1581528846	9.13	16.91
12/02/2020 17:34:07	120220	12022020	173407	91.54	12.418762	-56.859518	91.49	0.660	-1.450	0.940	91.53	-2.70	1.40	 	 	 	 	 	 	 	 	 	 	 	 	 	 	 	 	 	 	1581528847	9.12	16.89
12/02/2020 17:34:08	120220	12022020	173408	91.37	12.418762	-56.859477	91.28	0.580	-1.020	1.310	91.31	-2.20	1.80	 	 	 	 	 	 	 	 	 	 	 	 	 	 	 	 	 	 	1581528848	8.77	16.24
12/02/2020 17:34:09	120220	12022020	173409	90.97	12.418760	-56.859437	90.88	0.240	-0.060	1.900	90.90	-1.20	2.40	 	 	 	 	 	 	 	 	 	 	 	 	 	 	 	 	 	 	1581528849	8.24	15.26
12/02/2020 17:34:10	120220	12022020	173410	90.81	12.418758	-56.859400	90.81	-0.410	1.130	1.960	90.84	-0.10	2.30	 	 	 	 	 	 	 	 	 	 	 	 	 	 	 	 	 	 	1581528850	7.77	14.39
12/02/2020 17:34:11	120220	12022020	173411	91.05	12.418760	-56.859365	91.08	-1.200	1.910	1.580	91.12	0.60	1.90	 	 	 	 	 	 	 	 	 	 	 	 	 	 	 	 	 	 	1581528851	7.38	13.67
12/02/2020 17:34:12	120220	12022020	173412	91.35	12.418762	-56.859328	91.34	-1.440	1.300	1.240	91.39	-0.20	1.60	 	 	 	 	 	 	 	 	 	 	 	 	 	 	 	 	 	 	1581528852	7.81	14.46
12/02/2020 17:34:13	120220	12022020	173413	91.46	12.418762	-56.859283	91.42	-0.570	-1.040	1.060	91.45	-2.70	1.50	 	 	 	 	 	 	 	 	 	 	 	 	 	 	 	 	 	 	1581528853	9.57	17.72
12/02/2020 17:34:14	120220	12022020	173414	91.44	12.418762	-56.859232	91.39	0.880	-3.350	0.990	91.42	-4.80	1.40	 	 	 	 	 	 	 	 	 	 	 	 	 	 	 	 	 	 	1581528854	11.10	20.56
12/02/2020 17:34:15	120220	12022020	173415	91.30	12.418763	-56.859183	91.22	1.780	-3.350	1.060	91.25	-4.40	1.50	 	 	 	 	 	 	 	 	 	 	 	 	 	 	 	 	 	 	1581528855	10.24	18.96
12/02/2020 17:34:16	120220	12022020	173416	91.07	12.418765	-56.859147	90.99	1.490	-0.830	0.980	91.03	-1.80	1.40	 	 	 	 	 	 	 	 	 	 	 	 	 	 	 	 	 	 	1581528856	7.68	14.22
12/02/2020 17:34:17	120220	12022020	173417	90.98	12.418768	-56.859118	90.94	0.210	2.070	0.610	91.00	1.00	1.00	 	 	 	 	 	 	 	 	 	 	 	 	 	 	 	 	 	 	1581528857	5.98	11.07
12/02/2020 17:34:18	120220	12022020	173418	91.29	12.418773	-56.859088	91.33	-1.210	3.210	0.190	91.40	1.80	0.60	 	 	 	 	 	 	 	 	 	 	 	 	 	 	 	 	 	 	1581528858	6.46	11.96
12/02/2020 17:34:19	120220	12022020	173419	91.89	12.418775	-56.859050	91.94	-1.910	2.100	0.150	92.00	0.50	0.60	 	 	 	 	 	 	 	 	 	 	 	 	 	 	 	 	 	 	1581528859	8.22	15.22
12/02/2020 17:34:20	120220	12022020	173420	92.19	12.418772	-56.859003	92.14	-1.470	-0.320	0.530	92.18	-1.90	1.00	 	 	 	 	 	 	 	 	 	 	 	 	 	 	 	 	 	 	1581528860	9.87	18.28
12/02/2020 17:34:21	120220	12022020	173421	91.93	12.418767	-56.858953	91.84	-0.300	-2.340	1.100	91.86	-3.80	1.60	 	 	 	 	 	 	 	 	 	 	 	 	 	 	 	 	 	 	1581528861	10.44	19.33
12/02/2020 17:34:22	120220	12022020	173422	91.56	12.418765	-56.858908	91.49	0.800	-2.860	1.580	91.50	-4.10	2.00	 	 	 	 	 	 	 	 	 	 	 	 	 	 	 	 	 	 	1581528862	9.53	17.65
12/02/2020 17:34:23	120220	12022020	173423	91.34	12.418763	-56.858870	91.28	1.360	-1.980	1.650	91.30	-3.10	2.00	 	 	 	 	 	 	 	 	 	 	 	 	 	 	 	 	 	 	1581528863	8.26	15.30
12/02/2020 17:34:24	120220	12022020	173424	91.26	12.418767	-56.858833	91.21	1.260	-0.560	1.240	91.26	-1.70	1.60	 	 	 	 	 	 	 	 	 	 	 	 	 	 	 	 	 	 	1581528864	7.68	14.22
12/02/2020 17:34:25	120220	12022020	173425	91.25	12.418772	-56.858797	91.19	0.590	0.740	0.850	91.25	-0.50	1.20	 	 	 	 	 	 	 	 	 	 	 	 	 	 	 	 	 	 	1581528865	7.74	14.33
12/02/2020 17:34:26	120220	12022020	173426	91.23	12.418775	-56.858760	91.19	-0.350	1.480	0.780	91.24	0.20	1.20	 	 	 	 	 	 	 	 	 	 	 	 	 	 	 	 	 	 	1581528866	7.87	14.58
12/02/2020 17:34:27	120220	12022020	173427	91.31	12.418775	-56.858720	91.30	-1.020	1.380	0.890	91.35	0.00	1.30	 	 	 	 	 	 	 	 	 	 	 	 	 	 	 	 	 	 	1581528867	8.26	15.30
12/02/2020 17:34:28	120220	12022020	173428	91.49	12.418773	-56.858678	91.49	-1.030	0.430	0.990	91.52	-1.00	1.40	 	 	 	 	 	 	 	 	 	 	 	 	 	 	 	 	 	 	1581528868	8.89	16.46
12/02/2020 17:34:29	120220	12022020	173429	91.52	12.418772	-56.858633	91.46	-0.500	-0.800	1.240	91.48	-2.20	1.70	 	 	 	 	 	 	 	 	 	 	 	 	 	 	 	 	 	 	1581528869	9.52	17.63
12/02/2020 17:34:30	120220	12022020	173430	91.22	12.418768	-56.858588	91.11	0.130	-1.550	1.520	91.14	-2.90	2.00	 	 	 	 	 	 	 	 	 	 	 	 	 	 	 	 	 	 	1581528870	9.46	17.52
12/02/2020 17:34:31	120220	12022020	173431	90.90	12.418770	-56.858547	90.83	0.550	-1.480	1.590	90.87	-2.70	2.00	 	 	 	 	 	 	 	 	 	 	 	 	 	 	 	 	 	 	1581528871	8.89	16.46
12/02/2020 17:34:32	120220	12022020	173432	90.87	12.418772	-56.858507	90.84	0.710	-0.800	1.350	90.89	-2.00	1.70	 	 	 	 	 	 	 	 	 	 	 	 	 	 	 	 	 	 	1581528872	8.34	15.45
12/02/2020 17:34:33	120220	12022020	173433	91.04	12.418777	-56.858470	91.02	0.530	0.010	0.980	91.08	-1.20	1.40	 	 	 	 	 	 	 	 	 	 	 	 	 	 	 	 	 	 	1581528873	8.14	15.08
12/02/2020 17:34:34	120220	12022020	173434	91.26	12.418780	-56.858430	91.22	0.080	0.610	0.800	91.29	-0.70	1.20	 	 	 	 	 	 	 	 	 	 	 	 	 	 	 	 	 	 	1581528874	8.17	15.13
12/02/2020 17:34:35	120220	12022020	173435	91.29	12.418780	-56.858392	91.22	-0.380	0.780	1.010	91.26	-0.60	1.50	 	 	 	 	 	 	 	 	 	 	 	 	 	 	 	 	 	 	1581528875	8.23	15.24
12/02/2020 17:34:36	120220	12022020	173436	91.10	12.418778	-56.858350	91.03	-0.450	0.230	1.310	91.06	-1.20	1.70	 	 	 	 	 	 	 	 	 	 	 	 	 	 	 	 	 	 	1581528876	8.72	16.15
12/02/2020 17:34:37	120220	12022020	173437	91.06	12.418778	-56.858307	91.05	-0.050	-0.770	1.290	91.08	-2.20	1.70	 	 	 	 	 	 	 	 	 	 	 	 	 	 	 	 	 	 	1581528877	9.45	17.50
12/02/2020 17:34:38	120220	12022020	173438	91.23	12.418780	-56.858260	91.22	0.420	-1.440	1.090	91.25	-2.80	1.50	 	 	 	 	 	 	 	 	 	 	 	 	 	 	 	 	 	 	1581528878	9.71	17.98
12/02/2020 17:34:39	120220	12022020	173439	91.26	12.418782	-56.858217	91.19	0.520	-1.140	0.980	91.23	-2.30	1.40	 	 	 	 	 	 	 	 	 	 	 	 	 	 	 	 	 	 	1581528879	9.10	16.85
12/02/2020 17:34:40	120220	12022020	173440	91.05	12.418783	-56.858178	90.97	0.220	-0.140	1.130	91.01	-1.30	1.60	 	 	 	 	 	 	 	 	 	 	 	 	 	 	 	 	 	 	1581528880	8.13	15.06
12/02/2020 17:34:41	120220	12022020	173441	90.92	12.418785	-56.858142	90.90	-0.130	0.570	1.230	90.93	-0.70	1.60	 	 	 	 	 	 	 	 	 	 	 	 	 	 	 	 	 	 	1581528881	7.85	14.54
12/02/2020 17:34:42	120220	12022020	173442	91.10	12.418788	-56.858100	91.12	-0.200	0.390	0.960	91.17	-1.00	1.30	 	 	 	 	 	 	 	 	 	 	 	 	 	 	 	 	 	 	1581528882	8.64	16.00
12/02/2020 17:34:43	120220	12022020	173443	91.46	12.418792	-56.858057	91.48	-0.050	-0.200	0.680	91.53	-1.60	1.10	 	 	 	 	 	 	 	 	 	 	 	 	 	 	 	 	 	 	1581528883	9.43	17.46
12/02/2020 17:34:44	120220	12022020	173444	91.73	12.418793	-56.858012	91.72	0.050	-0.460	0.810	91.76	-1.80	1.30	 	 	 	 	 	 	 	 	 	 	 	 	 	 	 	 	 	 	1581528884	9.36	17.33
12/02/2020 17:34:45	120220	12022020	173445	91.84	12.418792	-56.857970	91.83	-0.100	-0.310	1.150	91.86	-1.60	1.60	 	 	 	 	 	 	 	 	 	 	 	 	 	 	 	 	 	 	1581528885	8.76	16.22
12/02/2020 17:34:46	120220	12022020	173446	91.93	12.418790	-56.857930	91.91	-0.290	-0.140	1.310	91.94	-1.50	1.70	 	 	 	 	 	 	 	 	 	 	 	 	 	 	 	 	 	 	1581528886	8.42	15.59
12/02/2020 17:34:47	120220	12022020	173447	91.88	12.418788	-56.857890	91.83	-0.160	-0.380	1.270	91.86	-1.80	1.70	 	 	 	 	 	 	 	 	 	 	 	 	 	 	 	 	 	 	1581528887	8.71	16.13
12/02/2020 17:34:48	120220	12022020	173448	91.70	12.418790	-56.857845	91.62	0.300	-0.810	1.060	91.66	-2.20	1.40	 	 	 	 	 	 	 	 	 	 	 	 	 	 	 	 	 	 	1581528888	9.36	17.33
12/02/2020 17:34:49	120220	12022020	173449	91.55	12.418795	-56.857802	91.49	0.620	-0.730	0.680	91.54	-2.00	1.10	 	 	 	 	 	 	 	 	 	 	 	 	 	 	 	 	 	 	1581528889	9.38	17.37
12/02/2020 17:34:50	120220	12022020	173450	91.63	12.418800	-56.857760	91.60	0.490	-0.140	0.310	91.68	-1.40	0.70	 	 	 	 	 	 	 	 	 	 	 	 	 	 	 	 	 	 	1581528890	8.73	16.17
12/02/2020 17:34:51	120220	12022020	173451	91.87	12.418803	-56.857720	91.87	0.030	0.310	0.310	91.93	-1.00	0.80	 	 	 	 	 	 	 	 	 	 	 	 	 	 	 	 	 	 	1581528891	8.44	15.63
12/02/2020 17:34:52	120220	12022020	173452	92.16	12.418803	-56.857680	92.18	-0.510	0.440	0.580	92.22	-0.90	1.00	 	 	 	 	 	 	 	 	 	 	 	 	 	 	 	 	 	 	1581528892	8.55	15.83
12/02/2020 17:34:53	120220	12022020	173453	92.47	12.418802	-56.857638	92.49	-0.770	0.100	0.840	92.53	-1.30	1.30	 	 	 	 	 	 	 	 	 	 	 	 	 	 	 	 	 	 	1581528893	8.75	16.21
12/02/2020 17:34:54	120220	12022020	173454	92.73	12.418798	-56.857595	92.74	-0.380	-0.770	1.230	92.75	-2.20	1.70	 	 	 	 	 	 	 	 	 	 	 	 	 	 	 	 	 	 	1581528894	9.39	17.39
12/02/2020 17:34:55	120220	12022020	173455	92.65	12.418795	-56.857548	92.59	0.400	-1.450	1.570	92.59	-2.80	2.00	 	 	 	 	 	 	 	 	 	 	 	 	 	 	 	 	 	 	1581528895	9.91	18.35
12/02/2020 17:34:56	120220	12022020	173456	92.31	12.418795	-56.857502	92.25	0.880	-1.250	1.440	92.26	-2.40	1.80	 	 	 	 	 	 	 	 	 	 	 	 	 	 	 	 	 	 	1581528896	9.55	17.69
12/02/2020 17:34:57	120220	12022020	173457	92.13	12.418798	-56.857462	92.10	0.610	-0.210	1.140	92.12	-1.40	1.50	 	 	 	 	 	 	 	 	 	 	 	 	 	 	 	 	 	 	1581528897	8.65	16.02
12/02/2020 17:34:58	120220	12022020	173458	92.21	12.418802	-56.857425	92.22	-0.190	0.890	0.860	92.25	-0.30	1.20	 	 	 	 	 	 	 	 	 	 	 	 	 	 	 	 	 	 	1581528898	7.97	14.76
12/02/2020 17:34:59	120220	12022020	173459	92.42	12.418805	-56.857387	92.42	-0.890	1.200	0.520	92.46	-0.20	0.90	 	 	 	 	 	 	 	 	 	 	 	 	 	 	 	 	 	 	1581528899	8.14	15.08
12/02/2020 17:35:00	120220	12022020	173500	92.62	12.418807	-56.857343	92.61	-0.930	0.420	0.380	92.65	-1.00	0.80	 	 	 	 	 	 	 	 	 	 	 	 	 	 	 	 	 	 	1581528900	9.04	16.74
12/02/2020 17:35:01	120220	12022020	173501	92.79	12.418805	-56.857297	92.78	-0.340	-0.800	0.600	92.81	-2.20	1.10	 	 	 	 	 	 	 	 	 	 	 	 	 	 	 	 	 	 	1581528901	9.98	18.48
12/02/2020 17:35:02	120220	12022020	173502	92.83	12.418803	-56.857250	92.82	0.270	-1.310	0.940	92.84	-2.60	1.40	1015.40	26.50	26.60	20.70	20.80	870.0	70.0	70.0	391.0	28.7	345.00	15.80	71.00	11.50	63036	8901.0	27.4	27.4	1581528902	9.83	18.21
12/02/2020 17:35:03	120220	12022020	173503	92.86	12.418802	-56.857208	92.85	0.470	-1.000	1.050	92.87	-2.20	1.50	 	 	 	 	 	 	 	 	 	 	 	 	 	 	 	 	 	 	1581528903	8.88	16.45
12/02/2020 17:35:04	120220	12022020	173504	92.91	12.418802	-56.857168	92.89	0.410	-0.520	0.920	92.92	-1.80	1.30	 	 	 	 	 	 	 	 	 	 	 	 	 	 	 	 	 	 	1581528904	8.40	15.56
12/02/2020 17:35:05	120220	12022020	173505	92.96	12.418802	-56.857127	92.92	0.440	-0.360	0.870	92.95	-1.70	1.30	 	 	 	 	 	 	 	 	 	 	 	 	 	 	 	 	 	 	1581528905	8.76	16.22
12/02/2020 17:35:06	120220	12022020	173506	92.84	12.418802	-56.857082	92.75	0.490	-0.410	0.980	92.78	-1.70	1.40	 	 	 	 	 	 	 	 	 	 	 	 	 	 	 	 	 	 	1581528906	9.27	17.17
12/02/2020 17:35:07	120220	12022020	173507	92.53	12.418803	-56.857038	92.44	0.330	-0.240	0.930	92.48	-1.50	1.30	 	 	 	 	 	 	 	 	 	 	 	 	 	 	 	 	 	 	1581528907	9.43	17.46
12/02/2020 17:35:08	120220	12022020	173508	92.39	12.418807	-56.856997	92.37	-0.210	0.540	0.770	92.41	-0.60	1.20	 	 	 	 	 	 	 	 	 	 	 	 	 	 	 	 	 	 	1581528908	8.82	16.33
12/02/2020 17:35:09	120220	12022020	173509	92.71	12.418808	-56.856958	92.77	-0.950	1.330	0.750	92.82	0.00	1.20	 	 	 	 	 	 	 	 	 	 	 	 	 	 	 	 	 	 	1581528909	7.98	14.78
12/02/2020 17:35:10	120220	12022020	173510	93.24	12.418808	-56.856920	93.26	-1.350	0.930	0.800	93.31	-0.60	1.20	 	 	 	 	 	 	 	 	 	 	 	 	 	 	 	 	 	 	1581528910	8.20	15.19
12/02/2020 17:35:11	120220	12022020	173511	93.38	12.418805	-56.856873	93.32	-0.890	-0.950	1.040	93.36	-2.50	1.50	 	 	 	 	 	 	 	 	 	 	 	 	 	 	 	 	 	 	1581528911	9.74	18.04
12/02/2020 17:35:12	120220	12022020	173512	93.21	12.418800	-56.856822	93.17	0.350	-2.850	1.490	93.19	-4.30	1.90	 	 	 	 	 	 	 	 	 	 	 	 	 	 	 	 	 	 	1581528912	11.11	20.58
12/02/2020 17:35:13	120220	12022020	173513	93.18	12.418795	-56.856772	93.14	1.470	-2.870	1.710	93.16	-4.00	2.10	 	 	 	 	 	 	 	 	 	 	 	 	 	 	 	 	 	 	1581528913	10.54	19.52
12/02/2020 17:35:14	120220	12022020	173514	93.06	12.418795	-56.856732	92.98	1.530	-0.790	1.290	93.01	-1.80	1.60	 	 	 	 	 	 	 	 	 	 	 	 	 	 	 	 	 	 	1581528914	8.42	15.59
12/02/2020 17:35:15	120220	12022020	173515	92.74	12.418800	-56.856698	92.63	0.470	1.660	0.490	92.68	0.60	0.80	 	 	 	 	 	 	 	 	 	 	 	 	 	 	 	 	 	 	1581528915	7.10	13.15
12/02/2020 17:35:16	120220	12022020	173516	92.56	12.418807	-56.856665	92.51	-0.950	2.840	0.070	92.57	1.50	0.50	 	 	 	 	 	 	 	 	 	 	 	 	 	 	 	 	 	 	1581528916	7.27	13.46
12/02/2020 17:35:17	120220	12022020	173517	92.74	12.418810	-56.856625	92.73	-1.720	2.090	0.070	92.81	0.60	0.50	 	 	 	 	 	 	 	 	 	 	 	 	 	 	 	 	 	 	1581528917	8.38	15.52
12/02/2020 17:35:18	120220	12022020	173518	93.12	12.418810	-56.856578	93.13	-1.330	-0.090	-0.050	93.19	-1.70	0.40	 	 	 	 	 	 	 	 	 	 	 	 	 	 	 	 	 	 	1581528918	9.96	18.45
12/02/2020 17:35:19	120220	12022020	173519	93.38	12.418808	-56.856527	93.36	-0.130	-2.280	0.130	93.41	-3.80	0.60	 	 	 	 	 	 	 	 	 	 	 	 	 	 	 	 	 	 	1581528919	10.81	20.02
12/02/2020 17:35:20	120220	12022020	173520	93.37	12.418803	-56.856480	93.33	0.970	-2.950	0.880	93.34	-4.20	1.40	 	 	 	 	 	 	 	 	 	 	 	 	 	 	 	 	 	 	1581528920	10.22	18.93
12/02/2020 17:35:21	120220	12022020	173521	93.17	12.418798	-56.856438	93.12	1.280	-1.840	1.460	93.12	-2.90	1.90	 	 	 	 	 	 	 	 	 	 	 	 	 	 	 	 	 	 	1581528921	8.59	15.91
12/02/2020 17:35:22	120220	12022020	173522	92.84	12.418798	-56.856403	92.76	0.790	-0.110	1.590	92.76	-1.20	2.00	 	 	 	 	 	 	 	 	 	 	 	 	 	 	 	 	 	 	1581528922	7.44	13.78
12/02/2020 17:35:23	120220	12022020	173523	92.42	12.418800	-56.856367	92.36	0.060	0.970	1.580	92.36	-0.30	2.00	 	 	 	 	 	 	 	 	 	 	 	 	 	 	 	 	 	 	1581528923	7.70	14.26
12/02/2020 17:35:24	120220	12022020	173524	92.26	12.418802	-56.856327	92.26	-0.490	1.080	1.140	92.27	-0.30	1.50	 	 	 	 	 	 	 	 	 	 	 	 	 	 	 	 	 	 	1581528924	8.65	16.02
12/02/2020 17:35:25	120220	12022020	173525	92.49	12.418805	-56.856282	92.53	-0.630	0.510	0.530	92.57	-0.90	0.90	 	 	 	 	 	 	 	 	 	 	 	 	 	 	 	 	 	 	1581528925	9.43	17.46
12/02/2020 17:35:26	120220	12022020	173526	92.97	12.418808	-56.856237	93.02	-0.430	-0.170	0.260	93.07	-1.60	0.70	 	 	 	 	 	 	 	 	 	 	 	 	 	 	 	 	 	 	1581528926	9.64	17.85
12/02/2020 17:35:27	120220	12022020	173527	93.42	12.418808	-56.856192	93.44	-0.150	-0.680	0.440	93.48	-2.00	0.90	 	 	 	 	 	 	 	 	 	 	 	 	 	 	 	 	 	 	1581528927	9.39	17.39
12/02/2020 17:35:28	120220	12022020	173528	93.53	12.418805	-56.856148	93.50	0.020	-0.960	1.050	93.51	-2.30	1.50	 	 	 	 	 	 	 	 	 	 	 	 	 	 	 	 	 	 	1581528928	9.22	17.08
12/02/2020 17:35:29	120220	12022020	173529	93.39	12.418800	-56.856107	93.35	-0.030	-0.650	1.680	93.36	-1.90	2.10	 	 	 	 	 	 	 	 	 	 	 	 	 	 	 	 	 	 	1581528929	8.97	16.61
12/02/2020 17:35:30	120220	12022020	173530	93.35	12.418797	-56.856068	93.36	-0.200	0.170	1.720	93.38	-1.10	2.10	 	 	 	 	 	 	 	 	 	 	 	 	 	 	 	 	 	 	1581528930	8.18	15.15
12/02/2020 17:35:31	120220	12022020	173531	93.53	12.418798	-56.856030	93.54	-0.030	0.420	1.150	93.55	-1.00	1.50	 	 	 	 	 	 	 	 	 	 	 	 	 	 	 	 	 	 	1581528931	8.06	14.93
12/02/2020 17:35:32	120220	12022020	173532	93.54	12.418802	-56.855985	93.49	0.660	-0.570	0.710	93.51	-2.10	1.10	 	 	 	 	 	 	 	 	 	 	 	 	 	 	 	 	 	 	1581528932	9.41	17.43
12/02/2020 17:35:33	120220	12022020	173533	93.40	12.418805	-56.855935	93.37	1.230	-1.570	0.610	93.40	-2.90	1.00	 	 	 	 	 	 	 	 	 	 	 	 	 	 	 	 	 	 	1581528933	10.59	19.61
12/02/2020 17:35:34	120220	12022020	173534	93.54	12.418807	-56.855890	93.57	0.840	-0.930	0.720	93.61	-2.10	1.20	 	 	 	 	 	 	 	 	 	 	 	 	 	 	 	 	 	 	1581528934	9.63	17.83
12/02/2020 17:35:35	120220	12022020	173535	93.99	12.418805	-56.855855	94.05	-0.410	0.870	0.980	94.09	-0.30	1.40	 	 	 	 	 	 	 	 	 	 	 	 	 	 	 	 	 	 	1581528935	7.53	13.95
12/02/2020 17:35:36	120220	12022020	173536	94.48	12.418802	-56.855822	94.52	-1.510	1.900	1.200	94.54	0.50	1.60	 	 	 	 	 	 	 	 	 	 	 	 	 	 	 	 	 	 	1581528936	6.85	12.69
12/02/2020 17:35:37	120220	12022020	173537	94.70	12.418797	-56.855783	94.70	-1.440	0.890	1.370	94.70	-0.70	1.80	 	 	 	 	 	 	 	 	 	 	 	 	 	 	 	 	 	 	1581528937	8.39	15.54
12/02/2020 17:35:38	120220	12022020	173538	94.56	12.418792	-56.855733	94.49	-0.250	-1.360	1.530	94.47	-2.90	2.00	 	 	 	 	 	 	 	 	 	 	 	 	 	 	 	 	 	 	1581528938	10.51	19.46
12/02/2020 17:35:39	120220	12022020	173539	94.08	12.418788	-56.855682	94.01	0.990	-2.650	1.470	94.01	-4.00	1.80	 	 	 	 	 	 	 	 	 	 	 	 	 	 	 	 	 	 	1581528939	11.02	20.41
12/02/2020 17:35:40	120220	12022020	173540	93.86	12.418790	-56.855637	93.88	1.270	-1.750	1.180	93.88	-2.80	1.60	 	 	 	 	 	 	 	 	 	 	 	 	 	 	 	 	 	 	1581528940	9.36	17.33
12/02/2020 17:35:41	120220	12022020	173541	94.17	12.418793	-56.855603	94.25	0.560	0.320	0.960	94.28	-0.80	1.30	 	 	 	 	 	 	 	 	 	 	 	 	 	 	 	 	 	 	1581528941	7.32	13.56
12/02/2020 17:35:42	120220	12022020	173542	94.70	12.418793	-56.855570	94.74	-0.340	1.570	0.790	94.77	0.20	1.20	 	 	 	 	 	 	 	 	 	 	 	 	 	 	 	 	 	 	1581528942	6.90	12.78
12/02/2020 17:35:43	120220	12022020	173543	94.82	12.418790	-56.855530	94.77	-0.530	0.910	0.800	94.80	-0.60	1.20	 	 	 	 	 	 	 	 	 	 	 	 	 	 	 	 	 	 	1581528943	8.54	15.82
12/02/2020 17:35:44	120220	12022020	173544	94.55	12.418785	-56.855482	94.46	-0.110	-0.350	1.120	94.47	-1.80	1.60	 	 	 	 	 	 	 	 	 	 	 	 	 	 	 	 	 	 	1581528944	10.23	18.95
12/02/2020 17:35:45	120220	12022020	173545	94.21	12.418780	-56.855437	94.17	0.130	-0.550	1.280	94.18	-1.80	1.70	 	 	 	 	 	 	 	 	 	 	 	 	 	 	 	 	 	 	1581528945	9.66	17.89
12/02/2020 17:35:46	120220	12022020	173546	94.08	12.418782	-56.855398	94.02	-0.140	0.010	0.900	94.05	-1.30	1.30	 	 	 	 	 	 	 	 	 	 	 	 	 	 	 	 	 	 	1581528946	8.15	15.09
12/02/2020 17:35:47	120220	12022020	173547	93.81	12.418782	-56.855360	93.72	-0.390	-0.110	0.930	93.74	-1.60	1.40	 	 	 	 	 	 	 	 	 	 	 	 	 	 	 	 	 	 	1581528947	7.97	14.76
12/02/2020 17:35:48	120220	12022020	173548	93.40	12.418778	-56.855315	93.33	-0.110	-1.230	1.390	93.33	-2.70	1.80	 	 	 	 	 	 	 	 	 	 	 	 	 	 	 	 	 	 	1581528948	9.38	17.37
12/02/2020 17:35:49	120220	12022020	173549	93.12	12.418773	-56.855268	93.07	0.430	-1.800	1.580	93.07	-3.10	2.00	 	 	 	 	 	 	 	 	 	 	 	 	 	 	 	 	 	 	1581528949	10.16	18.82
12/02/2020 17:35:50	120220	12022020	173550	92.92	12.418770	-56.855227	92.88	0.600	-0.780	1.600	92.88	-1.90	2.00	 	 	 	 	 	 	 	 	 	 	 	 	 	 	 	 	 	 	1581528950	8.84	16.37
12/02/2020 17:35:51	120220	12022020	173551	92.82	12.418768	-56.855190	92.81	0.300	0.660	1.540	92.82	-0.60	1.90	 	 	 	 	 	 	 	 	 	 	 	 	 	 	 	 	 	 	1581528951	7.48	13.85
12/02/2020 17:35:52	120220	12022020	173552	92.80	12.418767	-56.855153	92.78	0.000	0.990	1.470	92.78	-0.40	1.90	 	 	 	 	 	 	 	 	 	 	 	 	 	 	 	 	 	 	1581528952	7.85	14.54
12/02/2020 17:35:53	120220	12022020	173553	92.65	12.418767	-56.855110	92.63	-0.070	0.390	1.440	92.63	-1.00	1.80	 	 	 	 	 	 	 	 	 	 	 	 	 	 	 	 	 	 	1581528953	9.19	17.02
12/02/2020 17:35:54	120220	12022020	173554	92.56	12.418767	-56.855065	92.56	-0.170	-0.090	1.340	92.55	-1.50	1.80	 	 	 	 	 	 	 	 	 	 	 	 	 	 	 	 	 	 	1581528954	9.41	17.43
12/02/2020 17:35:55	120220	12022020	173555	92.53	12.418768	-56.855023	92.52	-0.310	-0.300	1.460	92.51	-1.70	1.90	 	 	 	 	 	 	 	 	 	 	 	 	 	 	 	 	 	 	1581528955	8.80	16.30
12/02/2020 17:35:56	120220	12022020	173556	92.42	12.418767	-56.854983	92.41	-0.160	-0.710	1.820	92.40	-2.10	2.30	 	 	 	 	 	 	 	 	 	 	 	 	 	 	 	 	 	 	1581528956	8.72	16.15
12/02/2020 17:35:57	120220	12022020	173557	92.30	12.418763	-56.854938	92.30	0.310	-1.340	2.120	92.29	-2.70	2.60	 	 	 	 	 	 	 	 	 	 	 	 	 	 	 	 	 	 	1581528957	9.32	17.26
12/02/2020 17:35:58	120220	12022020	173558	92.23	12.418762	-56.854893	92.24	0.640	-1.420	2.190	92.23	-2.70	2.60	 	 	 	 	 	 	 	 	 	 	 	 	 	 	 	 	 	 	1581528958	9.53	17.65
12/02/2020 17:35:59	120220	12022020	173559	92.24	12.418760	-56.854853	92.24	0.410	-0.420	2.030	92.24	-1.60	2.40	 	 	 	 	 	 	 	 	 	 	 	 	 	 	 	 	 	 	1581528959	8.64	16.00
12/02/2020 17:36:00	120220	12022020	173600	92.30	12.418762	-56.854817	92.33	-0.210	0.940	1.700	92.33	-0.30	2.10	 	 	 	 	 	 	 	 	 	 	 	 	 	 	 	 	 	 	1581528960	7.63	14.13
12/02/2020 17:36:01	120220	12022020	173601	92.45	12.418762	-56.854780	92.45	-0.730	1.370	1.320	92.46	-0.00	1.70	 	 	 	 	 	 	 	 	 	 	 	 	 	 	 	 	 	 	1581528961	7.72	14.30
12/02/2020 17:36:02	120220	12022020	173602	92.41	12.418762	-56.854738	92.36	-0.690	0.400	1.110	92.37	-1.10	1.50	1015.40	26.50	26.60	20.50	20.60	870.0	69.0	69.0	391.0	28.6	344.00	16.20	71.00	11.90	62936	19745.0	27.4	27.4	1581528962	8.99	16.65
12/02/2020 17:36:03	120220	12022020	173603	92.21	12.418763	-56.854690	92.16	-0.180	-0.900	0.890	92.18	-2.30	1.30	 	 	 	 	 	 	 	 	 	 	 	 	 	 	 	 	 	 	1581528963	10.07	18.65
12/02/2020 17:36:04	120220	12022020	173604	92.19	12.418765	-56.854645	92.16	0.330	-1.340	0.570	92.21	-2.60	1.00	 	 	 	 	 	 	 	 	 	 	 	 	 	 	 	 	 	 	1581528964	9.74	18.04
12/02/2020 17:36:05	120220	12022020	173605	92.34	12.418768	-56.854603	92.34	0.580	-1.050	0.540	92.37	-2.30	1.00	 	 	 	 	 	 	 	 	 	 	 	 	 	 	 	 	 	 	1581528965	8.78	16.26
12/02/2020 17:36:06	120220	12022020	173606	92.52	12.418767	-56.854562	92.52	0.630	-0.740	0.720	92.55	-2.00	1.10	 	 	 	 	 	 	 	 	 	 	 	 	 	 	 	 	 	 	1581528966	8.64	16.00
12/02/2020 17:36:07	120220	12022020	173607	92.71	12.418767	-56.854520	92.70	0.520	-0.360	0.810	92.73	-1.60	1.20	 	 	 	 	 	 	 	 	 	 	 	 	 	 	 	 	 	 	1581528967	8.94	16.56
12/02/2020 17:36:08	120220	12022020	173608	92.67	12.418765	-56.854478	92.60	0.130	0.280	1.200	92.61	-1.00	1.70	 	 	 	 	 	 	 	 	 	 	 	 	 	 	 	 	 	 	1581528968	8.65	16.02
12/02/2020 17:36:09	120220	12022020	173609	92.23	12.418762	-56.854440	92.12	-0.420	0.810	1.790	92.11	-0.50	2.20	 	 	 	 	 	 	 	 	 	 	 	 	 	 	 	 	 	 	1581528969	8.30	15.37
12/02/2020 17:36:10	120220	12022020	173610	91.71	12.418760	-56.854400	91.64	-0.820	0.730	1.870	91.65	-0.70	2.20	 	 	 	 	 	 	 	 	 	 	 	 	 	 	 	 	 	 	1581528970	8.53	15.80
12/02/2020 17:36:11	120220	12022020	173611	91.52	12.418762	-56.854357	91.49	-0.830	0.000	1.480	91.51	-1.40	1.80	 	 	 	 	 	 	 	 	 	 	 	 	 	 	 	 	 	 	1581528971	9.17	16.98
12/02/2020 17:36:12	120220	12022020	173612	91.56	12.418763	-56.854310	91.55	-0.420	-1.050	1.110	91.58	-2.50	1.50	 	 	 	 	 	 	 	 	 	 	 	 	 	 	 	 	 	 	1581528972	9.73	18.02
12/02/2020 17:36:13	120220	12022020	173613	91.62	12.418763	-56.854263	91.58	0.220	-1.780	1.020	91.62	-3.10	1.40	 	 	 	 	 	 	 	 	 	 	 	 	 	 	 	 	 	 	1581528973	9.92	18.37
12/02/2020 17:36:14	120220	12022020	173614	91.58	12.418763	-56.854218	91.53	0.770	-1.520	1.140	91.57	-2.70	1.60	 	 	 	 	 	 	 	 	 	 	 	 	 	 	 	 	 	 	1581528974	9.48	17.56
12/02/2020 17:36:15	120220	12022020	173615	91.54	12.418762	-56.854178	91.49	0.720	-0.180	1.260	91.54	-1.30	1.70	 	 	 	 	 	 	 	 	 	 	 	 	 	 	 	 	 	 	1581528975	8.46	15.67
12/02/2020 17:36:16	120220	12022020	173616	91.45	12.418763	-56.854142	91.37	0.120	1.230	1.250	91.41	0.00	1.70	 	 	 	 	 	 	 	 	 	 	 	 	 	 	 	 	 	 	1581528976	7.54	13.96
12/02/2020 17:36:17	120220	12022020	173617	91.18	12.418765	-56.854105	91.07	-0.400	1.360	1.150	91.12	-0.10	1.60	 	 	 	 	 	 	 	 	 	 	 	 	 	 	 	 	 	 	1581528977	7.98	14.78
12/02/2020 17:36:18	120220	12022020	173618	90.92	12.418768	-56.854060	90.85	-0.330	0.100	0.940	90.90	-1.40	1.30	 	 	 	 	 	 	 	 	 	 	 	 	 	 	 	 	 	 	1581528978	9.57	17.72
12/02/2020 17:36:19	120220	12022020	173619	90.95	12.418772	-56.854010	90.93	0.020	-1.190	0.760	90.99	-2.60	1.20	 	 	 	 	 	 	 	 	 	 	 	 	 	 	 	 	 	 	1581528979	10.44	19.33
12/02/2020 17:36:20	120220	12022020	173620	91.26	12.418773	-56.853963	91.25	0.130	-1.400	0.780	91.32	-2.70	1.20	 	 	 	 	 	 	 	 	 	 	 	 	 	 	 	 	 	 	1581528980	9.76	18.08
12/02/2020 17:36:21	120220	12022020	173621	91.46	12.418770	-56.853923	91.41	-0.110	-0.750	1.170	91.46	-2.00	1.60	 	 	 	 	 	 	 	 	 	 	 	 	 	 	 	 	 	 	1581528981	8.56	15.85
12/02/2020 17:36:22	120220	12022020	173622	91.32	12.418767	-56.853885	91.24	-0.260	-0.210	1.710	91.27	-1.50	2.20	 	 	 	 	 	 	 	 	 	 	 	 	 	 	 	 	 	 	1581528982	8.28	15.33
12/02/2020 17:36:23	120220	12022020	173623	91.06	12.418765	-56.853843	91.00	-0.090	-0.070	1.780	91.03	-1.40	2.20	 	 	 	 	 	 	 	 	 	 	 	 	 	 	 	 	 	 	1581528983	8.87	16.43
12/02/2020 17:36:24	120220	12022020	173624	91.04	12.418768	-56.853800	91.02	0.010	0.050	1.440	91.07	-1.20	1.80	 	 	 	 	 	 	 	 	 	 	 	 	 	 	 	 	 	 	1581528984	9.20	17.04
12/02/2020 17:36:25	120220	12022020	173625	91.26	12.418770	-56.853757	91.28	-0.190	0.260	1.270	91.32	-1.10	1.70	 	 	 	 	 	 	 	 	 	 	 	 	 	 	 	 	 	 	1581528985	8.91	16.50
12/02/2020 17:36:26	120220	12022020	173626	91.62	12.418770	-56.853717	91.64	-0.390	0.240	1.080	91.68	-1.10	1.40	 	 	 	 	 	 	 	 	 	 	 	 	 	 	 	 	 	 	1581528986	8.73	16.17
12/02/2020 17:36:27	120220	12022020	173627	91.89	12.418772	-56.853673	91.86	-0.170	-0.250	0.870	91.91	-1.60	1.30	 	 	 	 	 	 	 	 	 	 	 	 	 	 	 	 	 	 	1581528987	9.13	16.91
12/02/2020 17:36:28	120220	12022020	173628	91.82	12.418773	-56.853627	91.73	0.390	-0.760	0.970	91.77	-2.10	1.40	 	 	 	 	 	 	 	 	 	 	 	 	 	 	 	 	 	 	1581528988	9.57	17.72
12/02/2020 17:36:29	120220	12022020	173629	91.58	12.418775	-56.853583	91.52	0.770	-0.930	1.180	91.55	-2.20	1.60	 	 	 	 	 	 	 	 	 	 	 	 	 	 	 	 	 	 	1581528989	9.46	17.52
12/02/2020 17:36:30	120220	12022020	173630	91.50	12.418777	-56.853540	91.48	0.690	-0.830	1.220	91.51	-2.10	1.60	 	 	 	 	 	 	 	 	 	 	 	 	 	 	 	 	 	 	1581528990	9.21	17.06
12/02/2020 17:36:31	120220	12022020	173631	91.61	12.418780	-56.853497	91.63	0.200	-0.580	1.130	91.65	-1.90	1.50	 	 	 	 	 	 	 	 	 	 	 	 	 	 	 	 	 	 	1581528991	9.14	16.93
12/02/2020 17:36:32	120220	12022020	173632	91.93	12.418780	-56.853453	92.00	-0.420	-0.010	1.060	92.02	-1.30	1.50	 	 	 	 	 	 	 	 	 	 	 	 	 	 	 	 	 	 	1581528992	8.92	16.52
12/02/2020 17:36:33	120220	12022020	173633	92.35	12.418777	-56.853413	92.39	-0.850	0.690	1.230	92.41	-0.60	1.70	 	 	 	 	 	 	 	 	 	 	 	 	 	 	 	 	 	 	1581528993	8.50	15.74
12/02/2020 17:36:34	120220	12022020	173634	92.44	12.418773	-56.853373	92.40	-0.880	0.900	1.430	92.41	-0.50	1.90	 	 	 	 	 	 	 	 	 	 	 	 	 	 	 	 	 	 	1581528994	8.47	15.69
12/02/2020 17:36:35	120220	12022020	173635	92.15	12.418772	-56.853330	92.06	-0.460	0.120	1.300	92.08	-1.40	1.70	 	 	 	 	 	 	 	 	 	 	 	 	 	 	 	 	 	 	1581528995	9.22	17.08
12/02/2020 17:36:36	120220	12022020	173636	91.86	12.418775	-56.853282	91.78	0.150	-1.130	0.900	91.81	-2.60	1.30	 	 	 	 	 	 	 	 	 	 	 	 	 	 	 	 	 	 	1581528996	10.27	19.02
12/02/2020 17:36:37	120220	12022020	173637	91.67	12.418778	-56.853233	91.61	0.540	-1.590	0.680	91.66	-2.90	1.10	 	 	 	 	 	 	 	 	 	 	 	 	 	 	 	 	 	 	1581528997	10.21	18.91
12/02/2020 17:36:38	120220	12022020	173638	91.69	12.418782	-56.853190	91.66	0.600	-1.040	0.340	91.71	-2.30	0.70	 	 	 	 	 	 	 	 	 	 	 	 	 	 	 	 	 	 	1581528998	9.15	16.95
12/02/2020 17:36:39	120220	12022020	173639	91.95	12.418785	-56.853150	91.94	0.550	-0.340	0.050	92.01	-1.60	0.50	 	 	 	 	 	 	 	 	 	 	 	 	 	 	 	 	 	 	1581528999	8.70	16.11
12/02/2020 17:36:40	120220	12022020	173640	92.18	12.418787	-56.853108	92.14	0.410	0.150	0.510	92.19	-1.10	1.00	 	 	 	 	 	 	 	 	 	 	 	 	 	 	 	 	 	 	1581529000	8.95	16.58
12/02/2020 17:36:41	120220	12022020	173641	92.10	12.418783	-56.853065	92.04	-0.060	0.580	1.220	92.07	-0.70	1.70	 	 	 	 	 	 	 	 	 	 	 	 	 	 	 	 	 	 	1581529001	9.02	16.71
12/02/2020 17:36:42	120220	12022020	173642	91.91	12.418780	-56.853023	91.87	-0.740	0.790	1.600	91.88	-0.50	2.00	 	 	 	 	 	 	 	 	 	 	 	 	 	 	 	 	 	 	1581529002	8.83	16.35
12/02/2020 17:36:43	120220	12022020	173643	91.82	12.418777	-56.852982	91.80	-1.120	0.520	1.710	91.82	-0.90	2.10	 	 	 	 	 	 	 	 	 	 	 	 	 	 	 	 	 	 	1581529003	8.92	16.52
12/02/2020 17:36:44	120220	12022020	173644	91.77	12.418777	-56.852937	91.73	-0.690	-0.420	1.580	91.75	-1.90	2.00	 	 	 	 	 	 	 	 	 	 	 	 	 	 	 	 	 	 	1581529004	9.40	17.41
12/02/2020 17:36:45	120220	12022020	173645	91.68	12.418780	-56.852888	91.64	0.320	-1.740	1.130	91.68	-3.20	1.50	 	 	 	 	 	 	 	 	 	 	 	 	 	 	 	 	 	 	1581529005	10.36	19.19
12/02/2020 17:36:46	120220	12022020	173646	91.74	12.418783	-56.852838	91.72	1.020	-2.130	0.990	91.76	-3.40	1.40	 	 	 	 	 	 	 	 	 	 	 	 	 	 	 	 	 	 	1581529006	10.52	19.48
12/02/2020 17:36:47	120220	12022020	173647	91.96	12.418785	-56.852795	91.97	0.810	-0.900	1.270	92.02	-2.00	1.70	 	 	 	 	 	 	 	 	 	 	 	 	 	 	 	 	 	 	1581529007	9.06	16.78
12/02/2020 17:36:48	120220	12022020	173648	92.20	12.418783	-56.852760	92.18	-0.060	0.890	1.330	92.23	-0.30	1.70	 	 	 	 	 	 	 	 	 	 	 	 	 	 	 	 	 	 	1581529008	7.62	14.11
12/02/2020 17:36:49	120220	12022020	173649	92.26	12.418782	-56.852722	92.23	-0.760	1.610	1.240	92.26	0.30	1.60	 	 	 	 	 	 	 	 	 	 	 	 	 	 	 	 	 	 	1581529009	7.82	14.48
12/02/2020 17:36:50	120220	12022020	173650	92.25	12.418782	-56.852678	92.24	-0.750	0.880	1.080	92.25	-0.60	1.50	 	 	 	 	 	 	 	 	 	 	 	 	 	 	 	 	 	 	1581529010	9.19	17.02
12/02/2020 17:36:51	120220	12022020	173651	92.32	12.418783	-56.852630	92.31	-0.090	-0.620	0.650	92.35	-2.10	1.00	 	 	 	 	 	 	 	 	 	 	 	 	 	 	 	 	 	 	1581529011	10.37	19.21
12/02/2020 17:36:52	120220	12022020	173652	92.38	12.418787	-56.852578	92.34	0.680	-1.770	0.420	92.38	-3.10	0.90	 	 	 	 	 	 	 	 	 	 	 	 	 	 	 	 	 	 	1581529012	10.79	19.98
12/02/2020 17:36:53	120220	12022020	173653	92.39	12.418790	-56.852532	92.36	0.790	-1.470	0.600	92.40	-2.60	1.10	 	 	 	 	 	 	 	 	 	 	 	 	 	 	 	 	 	 	1581529013	9.91	18.35
12/02/2020 17:36:54	120220	12022020	173654	92.45	12.418790	-56.852493	92.42	0.090	-0.020	0.910	92.46	-1.20	1.40	 	 	 	 	 	 	 	 	 	 	 	 	 	 	 	 	 	 	1581529014	8.26	15.30
12/02/2020 17:36:55	120220	12022020	173655	92.44	12.418788	-56.852457	92.39	-0.790	1.050	1.150	92.42	-0.20	1.60	 	 	 	 	 	 	 	 	 	 	 	 	 	 	 	 	 	 	1581529015	7.65	14.17
12/02/2020 17:36:56	120220	12022020	173656	92.37	12.418787	-56.852415	92.34	-0.960	0.610	1.220	92.36	-0.90	1.60	 	 	 	 	 	 	 	 	 	 	 	 	 	 	 	 	 	 	1581529016	8.71	16.13
12/02/2020 17:36:57	120220	12022020	173657	92.40	12.418785	-56.852367	92.38	-0.250	-0.840	1.120	92.40	-2.30	1.50	 	 	 	 	 	 	 	 	 	 	 	 	 	 	 	 	 	 	1581529017	10.43	19.32
12/02/2020 17:36:58	120220	12022020	173658	92.37	12.418785	-56.852315	92.33	0.590	-1.580	0.870	92.37	-2.90	1.30	 	 	 	 	 	 	 	 	 	 	 	 	 	 	 	 	 	 	1581529018	10.80	20.00
12/02/2020 17:36:59	120220	12022020	173659	92.36	12.418787	-56.852270	92.33	0.830	-0.990	0.710	92.37	-2.20	1.10	 	 	 	 	 	 	 	 	 	 	 	 	 	 	 	 	 	 	1581529019	9.57	17.72
12/02/2020 17:37:00	120220	12022020	173700	92.47	12.418787	-56.852230	92.47	0.350	0.280	0.910	92.51	-0.90	1.40	 	 	 	 	 	 	 	 	 	 	 	 	 	 	 	 	 	 	1581529020	8.35	15.46
12/02/2020 17:37:01	120220	12022020	173701	92.70	12.418785	-56.852193	92.71	-0.440	1.290	1.080	92.74	0.00	1.50	 	 	 	 	 	 	 	 	 	 	 	 	 	 	 	 	 	 	1581529021	7.93	14.69
12/02/2020 17:37:02	120220	12022020	173702	92.81	12.418787	-56.852153	92.75	-0.820	1.220	0.900	92.80	-0.30	1.30	1015.50	26.50	26.60	20.60	20.70	871.0	70.0	70.0	390.0	28.6	350.00	15.30	78.00	10.80	62790	11978.0	27.4	27.4	1581529022	8.33	15.43
12/02/2020 17:37:03	120220	12022020	173703	92.54	12.418788	-56.852107	92.44	-0.280	-0.380	0.820	92.47	-2.00	1.20	 	 	 	 	 	 	 	 	 	 	 	 	 	 	 	 	 	 	1581529023	9.84	18.22
12/02/2020 17:37:04	120220	12022020	173704	92.38	12.418792	-56.852053	92.38	0.610	-2.090	0.740	92.42	-3.50	1.20	 	 	 	 	 	 	 	 	 	 	 	 	 	 	 	 	 	 	1581529024	11.22	20.78
12/02/2020 17:37:05	120220	12022020	173705	92.63	12.418792	-56.852005	92.66	0.950	-2.180	0.860	92.70	-3.40	1.30	 	 	 	 	 	 	 	 	 	 	 	 	 	 	 	 	 	 	1581529025	10.38	19.22
12/02/2020 17:37:06	120220	12022020	173706	92.95	12.418792	-56.851965	92.95	0.520	-0.640	0.920	92.99	-1.70	1.30	 	 	 	 	 	 	 	 	 	 	 	 	 	 	 	 	 	 	1581529026	8.47	15.69
12/02/2020 17:37:07	120220	12022020	173707	93.08	12.418790	-56.851930	93.04	-0.170	0.930	0.990	93.07	-0.30	1.40	 	 	 	 	 	 	 	 	 	 	 	 	 	 	 	 	 	 	1581529027	7.46	13.82
12/02/2020 17:37:08	120220	12022020	173708	92.98	12.418788	-56.851890	92.95	-0.560	1.170	1.280	92.95	-0.20	1.70	 	 	 	 	 	 	 	 	 	 	 	 	 	 	 	 	 	 	1581529028	8.30	15.37
12/02/2020 17:37:09	120220	12022020	173709	92.88	12.418785	-56.851845	92.88	-0.550	0.280	1.500	92.89	-1.20	1.90	 	 	 	 	 	 	 	 	 	 	 	 	 	 	 	 	 	 	1581529029	9.77	18.09
12/02/2020 17:37:10	120220	12022020	173710	93.05	12.418783	-56.851797	93.08	-0.380	-0.420	1.200	93.10	-1.80	1.60	 	 	 	 	 	 	 	 	 	 	 	 	 	 	 	 	 	 	1581529030	10.22	18.93
12/02/2020 17:37:11	120220	12022020	173711	93.21	12.418783	-56.851752	93.19	-0.260	-0.390	0.890	93.22	-1.70	1.30	 	 	 	 	 	 	 	 	 	 	 	 	 	 	 	 	 	 	1581529031	9.36	17.33
12/02/2020 17:37:12	120220	12022020	173712	93.13	12.418785	-56.851710	93.06	-0.090	-0.360	0.720	93.09	-1.70	1.10	 	 	 	 	 	 	 	 	 	 	 	 	 	 	 	 	 	 	1581529032	8.81	16.32
12/02/2020 17:37:13	120220	12022020	173713	93.02	12.418787	-56.851667	92.98	0.340	-0.770	0.560	93.03	-2.20	1.00	 	 	 	 	 	 	 	 	 	 	 	 	 	 	 	 	 	 	1581529033	9.31	17.24
12/02/2020 17:37:14	120220	12022020	173714	93.16	12.418788	-56.851620	93.17	0.830	-1.120	0.380	93.21	-2.40	0.80	 	 	 	 	 	 	 	 	 	 	 	 	 	 	 	 	 	 	1581529034	9.86	18.26
12/02/2020 17:37:15	120220	12022020	173715	93.28	12.418790	-56.851575	93.21	0.890	-0.750	0.500	93.25	-2.00	1.00	 	 	 	 	 	 	 	 	 	 	 	 	 	 	 	 	 	 	1581529035	9.47	17.54
12/02/2020 17:37:16	120220	12022020	173716	92.94	12.418788	-56.851533	92.82	0.430	0.110	1.040	92.85	-1.10	1.50	 	 	 	 	 	 	 	 	 	 	 	 	 	 	 	 	 	 	1581529036	8.63	15.98
12/02/2020 17:37:17	120220	12022020	173717	92.47	12.418787	-56.851493	92.39	-0.160	0.730	1.340	92.41	-0.60	1.80	 	 	 	 	 	 	 	 	 	 	 	 	 	 	 	 	 	 	1581529037	8.47	15.69
12/02/2020 17:37:18	120220	12022020	173718	92.34	12.418787	-56.851452	92.34	-0.550	0.580	1.280	92.35	-0.80	1.70	 	 	 	 	 	 	 	 	 	 	 	 	 	 	 	 	 	 	1581529038	8.98	16.63
12/02/2020 17:37:19	120220	12022020	173719	92.49	12.418787	-56.851405	92.51	-0.660	-0.240	1.220	92.52	-1.70	1.60	 	 	 	 	 	 	 	 	 	 	 	 	 	 	 	 	 	 	1581529039	9.79	18.13
12/02/2020 17:37:20	120220	12022020	173720	92.64	12.418785	-56.851357	92.64	-0.590	-0.950	1.060	92.66	-2.30	1.50	 	 	 	 	 	 	 	 	 	 	 	 	 	 	 	 	 	 	1581529040	10.06	18.63
12/02/2020 17:37:21	120220	12022020	173721	92.69	12.418785	-56.851312	92.66	-0.360	-1.010	1.030	92.69	-2.30	1.50	 	 	 	 	 	 	 	 	 	 	 	 	 	 	 	 	 	 	1581529041	9.54	17.67
12/02/2020 17:37:22	120220	12022020	173722	92.65	12.418782	-56.851270	92.61	0.080	-0.660	1.260	92.64	-1.90	1.70	 	 	 	 	 	 	 	 	 	 	 	 	 	 	 	 	 	 	1581529042	9.03	16.72
12/02/2020 17:37:23	120220	12022020	173723	92.49	12.418780	-56.851227	92.40	0.570	-0.370	1.380	92.43	-1.70	1.80	 	 	 	 	 	 	 	 	 	 	 	 	 	 	 	 	 	 	1581529043	9.05	16.76
12/02/2020 17:37:24	120220	12022020	173724	92.21	12.418782	-56.851182	92.12	0.780	-0.330	1.100	92.16	-1.60	1.50	 	 	 	 	 	 	 	 	 	 	 	 	 	 	 	 	 	 	1581529044	9.48	17.56
12/02/2020 17:37:25	120220	12022020	173725	92.13	12.418787	-56.851137	92.13	0.550	-0.090	0.790	92.18	-1.30	1.20	 	 	 	 	 	 	 	 	 	 	 	 	 	 	 	 	 	 	1581529045	9.63	17.83
12/02/2020 17:37:26	120220	12022020	173726	92.54	12.418792	-56.851095	92.61	-0.060	0.610	0.550	92.65	-0.60	0.90	 	 	 	 	 	 	 	 	 	 	 	 	 	 	 	 	 	 	1581529046	8.94	16.56
12/02/2020 17:37:27	120220	12022020	173727	93.08	12.418792	-56.851055	93.09	-0.630	0.920	0.560	93.13	-0.50	1.00	 	 	 	 	 	 	 	 	 	 	 	 	 	 	 	 	 	 	1581529047	8.37	15.50
12/02/2020 17:37:28	120220	12022020	173728	93.12	12.418788	-56.851012	93.04	-0.570	-0.160	1.130	93.05	-1.70	1.60	 	 	 	 	 	 	 	 	 	 	 	 	 	 	 	 	 	 	1581529048	9.33	17.28
12/02/2020 17:37:29	120220	12022020	173729	92.74	12.418783	-56.850960	92.69	0.050	-1.640	1.520	92.69	-3.00	1.90	 	 	 	 	 	 	 	 	 	 	 	 	 	 	 	 	 	 	1581529049	10.89	20.17
12/02/2020 17:37:30	120220	12022020	173730	92.70	12.418783	-56.850912	92.72	0.390	-1.480	1.420	92.76	-2.60	1.80	 	 	 	 	 	 	 	 	 	 	 	 	 	 	 	 	 	 	1581529050	10.24	18.96
12/02/2020 17:37:31	120220	12022020	173731	93.13	12.418783	-56.850873	93.17	0.070	0.080	1.180	93.25	-1.00	1.60	 	 	 	 	 	 	 	 	 	 	 	 	 	 	 	 	 	 	1581529051	8.10	15.00
12/02/2020 17:37:32	120220	12022020	173732	93.68	12.418785	-56.850838	93.68	-0.370	1.060	0.770	93.76	-0.30	1.10	 	 	 	 	 	 	 	 	 	 	 	 	 	 	 	 	 	 	1581529052	7.36	13.63
12/02/2020 17:37:33	120220	12022020	173733	93.92	12.418787	-56.850795	93.86	-0.130	0.100	0.590	93.91	-1.40	1.00	 	 	 	 	 	 	 	 	 	 	 	 	 	 	 	 	 	 	1581529053	8.99	16.65
12/02/2020 17:37:34	120220	12022020	173734	93.74	12.418783	-56.850743	93.64	0.600	-1.700	0.990	93.66	-3.20	1.50	 	 	 	 	 	 	 	 	 	 	 	 	 	 	 	 	 	 	1581529054	11.06	20.48
12/02/2020 17:37:35	120220	12022020	173735	93.33	12.418780	-56.850692	93.23	0.850	-2.000	1.340	93.26	-3.20	1.80	 	 	 	 	 	 	 	 	 	 	 	 	 	 	 	 	 	 	1581529055	11.07	20.50
12/02/2020 17:37:36	120220	12022020	173736	93.16	12.418780	-56.850650	93.14	0.080	0.020	1.100	93.18	-1.00	1.50	 	 	 	 	 	 	 	 	 	 	 	 	 	 	 	 	 	 	1581529056	8.55	15.83
12/02/2020 17:37:37	120220	12022020	173737	93.43	12.418782	-56.850620	93.49	-1.190	2.300	0.600	93.53	1.10	1.00	 	 	 	 	 	 	 	 	 	 	 	 	 	 	 	 	 	 	1581529057	6.49	12.02
12/02/2020 17:37:38	120220	12022020	173738	93.90	12.418782	-56.850585	93.93	-1.720	2.320	0.290	93.96	0.80	0.70	 	 	 	 	 	 	 	 	 	 	 	 	 	 	 	 	 	 	1581529058	7.25	13.43
12/02/2020 17:37:39	120220	12022020	173739	94.04	12.418780	-56.850538	93.99	-0.920	0.010	0.400	94.02	-1.70	0.80	 	 	 	 	 	 	 	 	 	 	 	 	 	 	 	 	 	 	1581529059	9.94	18.41
12/02/2020 17:37:40	120220	12022020	173740	93.83	12.418777	-56.850485	93.73	0.560	-2.390	0.610	93.76	-3.90	1.10	 	 	 	 	 	 	 	 	 	 	 	 	 	 	 	 	 	 	1581529060	11.52	21.34
12/02/2020 17:37:41	120220	12022020	173741	93.40	12.418775	-56.850433	93.32	1.560	-2.840	1.020	93.33	-4.00	1.50	 	 	 	 	 	 	 	 	 	 	 	 	 	 	 	 	 	 	1581529061	10.64	19.71
12/02/2020 17:37:42	120220	12022020	173742	93.15	12.418773	-56.850393	93.13	1.470	-1.370	1.200	93.13	-2.40	1.60	 	 	 	 	 	 	 	 	 	 	 	 	 	 	 	 	 	 	1581529062	8.58	15.89
12/02/2020 17:37:43	120220	12022020	173743	93.07	12.418773	-56.850358	93.04	0.620	0.430	1.220	93.04	-0.70	1.60	 	 	 	 	 	 	 	 	 	 	 	 	 	 	 	 	 	 	1581529063	7.45	13.80
12/02/2020 17:37:44	120220	12022020	173744	92.82	12.418772	-56.850322	92.75	-0.230	1.360	1.290	92.74	0.10	1.70	 	 	 	 	 	 	 	 	 	 	 	 	 	 	 	 	 	 	1581529064	7.90	14.63
12/02/2020 17:37:45	120220	12022020	173745	92.41	12.418772	-56.850280	92.37	-0.800	1.270	1.370	92.34	-0.10	1.80	 	 	 	 	 	 	 	 	 	 	 	 	 	 	 	 	 	 	1581529065	8.80	16.30
12/02/2020 17:37:46	120220	12022020	173746	92.24	12.418772	-56.850233	92.27	-1.020	0.350	1.330	92.25	-1.10	1.70	 	 	 	 	 	 	 	 	 	 	 	 	 	 	 	 	 	 	1581529066	9.63	17.83
12/02/2020 17:37:47	120220	12022020	173747	92.43	12.418770	-56.850187	92.51	-0.950	-0.580	1.220	92.49	-2.00	1.60	 	 	 	 	 	 	 	 	 	 	 	 	 	 	 	 	 	 	1581529067	9.92	18.37
12/02/2020 17:37:48	120220	12022020	173748	92.70	12.418767	-56.850142	92.73	-0.600	-0.970	1.160	92.73	-2.30	1.60	 	 	 	 	 	 	 	 	 	 	 	 	 	 	 	 	 	 	1581529068	9.45	17.50
12/02/2020 17:37:49	120220	12022020	173749	92.73	12.418765	-56.850100	92.69	0.030	-0.910	1.340	92.70	-2.20	1.80	 	 	 	 	 	 	 	 	 	 	 	 	 	 	 	 	 	 	1581529069	8.93	16.54
12/02/2020 17:37:50	120220	12022020	173750	92.49	12.418762	-56.850058	92.43	0.780	-0.820	1.680	92.42	-2.10	2.10	 	 	 	 	 	 	 	 	 	 	 	 	 	 	 	 	 	 	1581529070	8.87	16.43
12/02/2020 17:37:51	120220	12022020	173751	92.06	12.418760	-56.850013	91.97	1.380	-1.060	1.830	91.96	-2.40	2.20	 	 	 	 	 	 	 	 	 	 	 	 	 	 	 	 	 	 	1581529071	9.35	17.32
12/02/2020 17:37:52	120220	12022020	173752	91.73	12.418765	-56.849967	91.71	1.550	-1.240	1.440	91.72	-2.50	1.80	 	 	 	 	 	 	 	 	 	 	 	 	 	 	 	 	 	 	1581529072	10.10	18.71
12/02/2020 17:37:53	120220	12022020	173753	91.90	12.418772	-56.849922	91.95	0.860	-0.230	1.050	91.98	-1.30	1.50	 	 	 	 	 	 	 	 	 	 	 	 	 	 	 	 	 	 	1581529073	9.65	17.87
12/02/2020 17:37:54	120220	12022020	173754	92.42	12.418773	-56.849885	92.49	-0.610	1.750	1.070	92.53	0.70	1.50	 	 	 	 	 	 	 	 	 	 	 	 	 	 	 	 	 	 	1581529074	7.73	14.32
12/02/2020 17:37:55	120220	12022020	173755	92.97	12.418772	-56.849852	93.02	-2.000	2.800	1.450	93.05	1.40	1.90	 	 	 	 	 	 	 	 	 	 	 	 	 	 	 	 	 	 	1581529075	6.84	12.67
12/02/2020 17:37:56	120220	12022020	173756	93.22	12.418767	-56.849813	93.21	-2.030	1.250	1.770	93.21	-0.40	2.20	 	 	 	 	 	 	 	 	 	 	 	 	 	 	 	 	 	 	1581529076	8.44	15.63
12/02/2020 17:37:57	120220	12022020	173757	93.06	12.418760	-56.849760	93.01	-0.440	-2.110	1.770	92.99	-3.80	2.20	 	 	 	 	 	 	 	 	 	 	 	 	 	 	 	 	 	 	1581529077	11.31	20.95
12/02/2020 17:37:58	120220	12022020	173758	92.87	12.418758	-56.849703	92.87	1.320	-3.770	1.570	92.86	-5.00	2.00	 	 	 	 	 	 	 	 	 	 	 	 	 	 	 	 	 	 	1581529078	11.92	22.08
12/02/2020 17:37:59	120220	12022020	173759	92.96	12.418760	-56.849660	93.01	1.750	-2.280	1.180	93.01	-3.30	1.50	 	 	 	 	 	 	 	 	 	 	 	 	 	 	 	 	 	 	1581529079	9.16	16.96
12/02/2020 17:38:00	120220	12022020	173800	93.25	12.418763	-56.849628	93.27	0.730	0.510	0.690	93.30	-0.50	1.10	 	 	 	 	 	 	 	 	 	 	 	 	 	 	 	 	 	 	1581529080	6.57	12.17
12/02/2020 17:38:01	120220	12022020	173801	93.46	12.418765	-56.849598	93.43	-0.560	2.100	0.370	93.48	0.80	0.80	 	 	 	 	 	 	 	 	 	 	 	 	 	 	 	 	 	 	1581529081	6.51	12.06
12/02/2020 17:38:02	120220	12022020	173802	93.49	12.418765	-56.849560	93.44	-1.100	1.750	0.370	93.49	0.30	0.80	1015.50	26.50	26.60	20.70	20.70	867.0	70.0	70.0	391.0	28.6	349.00	15.10	77.00	10.50	62484	6899.0	27.4	27.4	1581529082	8.25	15.28
12/02/2020 17:38:03	120220	12022020	173803	93.47	12.418763	-56.849513	93.40	-0.760	0.310	0.410	93.44	-1.20	0.80	 	 	 	 	 	 	 	 	 	 	 	 	 	 	 	 	 	 	1581529083	9.83	18.21
12/02/2020 17:38:04	120220	12022020	173804	93.21	12.418762	-56.849465	93.10	-0.040	-0.970	0.570	93.13	-2.40	1.00	 	 	 	 	 	 	 	 	 	 	 	 	 	 	 	 	 	 	1581529084	10.15	18.80
12/02/2020 17:38:05	120220	12022020	173805	92.82	12.418760	-56.849420	92.74	0.520	-1.500	0.650	92.78	-2.80	1.10	 	 	 	 	 	 	 	 	 	 	 	 	 	 	 	 	 	 	1581529085	9.62	17.82
12/02/2020 17:38:06	120220	12022020	173806	92.70	12.418762	-56.849377	92.64	0.650	-1.330	0.670	92.69	-2.60	1.10	 	 	 	 	 	 	 	 	 	 	 	 	 	 	 	 	 	 	1581529086	8.98	16.63
12/02/2020 17:38:07	120220	12022020	173807	92.63	12.418762	-56.849337	92.57	0.460	-0.790	1.000	92.59	-2.00	1.50	 	 	 	 	 	 	 	 	 	 	 	 	 	 	 	 	 	 	1581529087	8.56	15.85
12/02/2020 17:38:08	120220	12022020	173808	92.39	12.418758	-56.849295	92.32	0.140	-0.170	1.410	92.34	-1.40	1.80	 	 	 	 	 	 	 	 	 	 	 	 	 	 	 	 	 	 	1581529088	8.62	15.96
12/02/2020 17:38:09	120220	12022020	173809	92.16	12.418757	-56.849255	92.11	-0.250	0.530	1.520	92.13	-0.70	1.90	 	 	 	 	 	 	 	 	 	 	 	 	 	 	 	 	 	 	1581529089	8.55	15.83
12/02/2020 17:38:10	120220	12022020	173810	92.03	12.418753	-56.849217	92.01	-0.520	0.900	1.630	92.02	-0.40	2.00	 	 	 	 	 	 	 	 	 	 	 	 	 	 	 	 	 	 	1581529090	8.37	15.50
12/02/2020 17:38:11	120220	12022020	173811	92.01	12.418750	-56.849173	91.99	-0.390	0.440	1.660	92.00	-1.00	2.00	 	 	 	 	 	 	 	 	 	 	 	 	 	 	 	 	 	 	1581529091	8.85	16.39
12/02/2020 17:38:12	120220	12022020	173812	91.88	12.418750	-56.849128	91.83	-0.080	-0.340	1.400	91.84	-1.70	1.80	 	 	 	 	 	 	 	 	 	 	 	 	 	 	 	 	 	 	1581529092	9.60	17.78
12/02/2020 17:38:13	120220	12022020	173813	91.59	12.418752	-56.849085	91.51	0.100	-0.640	1.220	91.53	-2.00	1.60	 	 	 	 	 	 	 	 	 	 	 	 	 	 	 	 	 	 	1581529093	9.33	17.28
12/02/2020 17:38:14	120220	12022020	173814	91.35	12.418753	-56.849043	91.32	0.300	-0.730	1.170	91.34	-2.10	1.60	 	 	 	 	 	 	 	 	 	 	 	 	 	 	 	 	 	 	1581529094	8.82	16.33
12/02/2020 17:38:15	120220	12022020	173815	91.40	12.418755	-56.849000	91.40	0.720	-1.100	0.980	91.43	-2.40	1.40	 	 	 	 	 	 	 	 	 	 	 	 	 	 	 	 	 	 	1581529095	9.16	16.96
12/02/2020 17:38:16	120220	12022020	173816	91.52	12.418758	-56.848955	91.49	0.950	-1.200	0.850	91.53	-2.50	1.30	 	 	 	 	 	 	 	 	 	 	 	 	 	 	 	 	 	 	1581529096	9.59	17.76
12/02/2020 17:38:17	120220	12022020	173817	91.49	12.418760	-56.848912	91.43	0.590	-0.510	1.060	91.47	-1.70	1.50	 	 	 	 	 	 	 	 	 	 	 	 	 	 	 	 	 	 	1581529097	8.97	16.61
12/02/2020 17:38:18	120220	12022020	173818	91.30	12.418760	-56.848873	91.24	-0.150	0.530	1.510	91.26	-0.70	2.00	 	 	 	 	 	 	 	 	 	 	 	 	 	 	 	 	 	 	1581529098	8.11	15.02
12/02/2020 17:38:19	120220	12022020	173819	91.19	12.418758	-56.848835	91.18	-0.770	1.000	1.770	91.20	-0.30	2.20	 	 	 	 	 	 	 	 	 	 	 	 	 	 	 	 	 	 	1581529099	8.18	15.15
12/02/2020 17:38:20	120220	12022020	173820	91.30	12.418758	-56.848792	91.31	-0.960	0.570	1.620	91.33	-0.80	2.00	 	 	 	 	 	 	 	 	 	 	 	 	 	 	 	 	 	 	1581529100	8.97	16.61
12/02/2020 17:38:21	120220	12022020	173821	91.42	12.418758	-56.848747	91.43	-0.720	-0.260	1.360	91.44	-1.70	1.70	 	 	 	 	 	 	 	 	 	 	 	 	 	 	 	 	 	 	1581529101	9.66	17.89
12/02/2020 17:38:22	120220	12022020	173822	91.50	12.418758	-56.848700	91.50	-0.260	-0.910	1.120	91.52	-2.30	1.50	 	 	 	 	 	 	 	 	 	 	 	 	 	 	 	 	 	 	1581529102	9.70	17.96
12/02/2020 17:38:23	120220	12022020	173823	91.55	12.418758	-56.848657	91.54	0.230	-1.220	0.990	91.55	-2.50	1.40	 	 	 	 	 	 	 	 	 	 	 	 	 	 	 	 	 	 	1581529103	9.45	17.50
12/02/2020 17:38:24	120220	12022020	173824	91.53	12.418760	-56.848612	91.50	0.680	-1.080	0.770	91.52	-2.30	1.20	 	 	 	 	 	 	 	 	 	 	 	 	 	 	 	 	 	 	1581529104	9.25	17.13
12/02/2020 17:38:25	120220	12022020	173825	91.54	12.418763	-56.848570	91.55	0.890	-0.360	0.380	91.57	-1.60	0.80	 	 	 	 	 	 	 	 	 	 	 	 	 	 	 	 	 	 	1581529105	8.90	16.48
12/02/2020 17:38:26	120220	12022020	173826	91.79	12.418768	-56.848532	91.81	0.640	0.660	0.060	91.86	-0.60	0.50	 	 	 	 	 	 	 	 	 	 	 	 	 	 	 	 	 	 	1581529106	8.32	15.41
12/02/2020 17:38:27	120220	12022020	173827	92.15	12.418773	-56.848493	92.14	0.040	1.070	0.060	92.19	-0.30	0.50	 	 	 	 	 	 	 	 	 	 	 	 	 	 	 	 	 	 	1581529107	8.15	15.09
12/02/2020 17:38:28	120220	12022020	173828	92.10	12.418773	-56.848450	91.99	-0.420	0.220	0.620	92.02	-1.30	1.10	 	 	 	 	 	 	 	 	 	 	 	 	 	 	 	 	 	 	1581529108	9.05	16.76
12/02/2020 17:38:29	120220	12022020	173829	91.59	12.418770	-56.848402	91.49	-0.480	-1.100	1.340	91.49	-2.50	1.80	 	 	 	 	 	 	 	 	 	 	 	 	 	 	 	 	 	 	1581529109	10.23	18.95
12/02/2020 17:38:30	120220	12022020	173830	91.28	12.418767	-56.848355	91.27	-0.300	-1.510	1.680	91.29	-2.80	2.10	 	 	 	 	 	 	 	 	 	 	 	 	 	 	 	 	 	 	1581529110	10.12	18.74
12/02/2020 17:38:31	120220	12022020	173831	91.53	12.418767	-56.848312	91.60	-0.160	-0.800	1.320	91.62	-2.00	1.70	 	 	 	 	 	 	 	 	 	 	 	 	 	 	 	 	 	 	1581529111	8.88	16.45
12/02/2020 17:38:32	120220	12022020	173832	92.01	12.418768	-56.848273	92.04	-0.070	-0.020	0.720	92.07	-1.30	1.10	 	 	 	 	 	 	 	 	 	 	 	 	 	 	 	 	 	 	1581529112	8.19	15.17
12/02/2020 17:38:33	120220	12022020	173833	92.16	12.418770	-56.848232	92.12	0.170	-0.050	0.610	92.14	-1.40	1.10	 	 	 	 	 	 	 	 	 	 	 	 	 	 	 	 	 	 	1581529113	8.80	16.30
12/02/2020 17:38:34	120220	12022020	173834	91.95	12.418770	-56.848185	91.87	0.470	-0.490	0.920	91.88	-1.80	1.40	 	 	 	 	 	 	 	 	 	 	 	 	 	 	 	 	 	 	1581529114	9.80	18.15
12/02/2020 17:38:35	120220	12022020	173835	91.67	12.418768	-56.848140	91.63	0.350	-0.260	1.140	91.65	-1.50	1.60	 	 	 	 	 	 	 	 	 	 	 	 	 	 	 	 	 	 	1581529115	9.67	17.91
12/02/2020 17:38:36	120220	12022020	173836	91.69	12.418770	-56.848100	91.70	-0.230	0.560	0.880	91.73	-0.70	1.30	 	 	 	 	 	 	 	 	 	 	 	 	 	 	 	 	 	 	1581529116	8.55	15.83
12/02/2020 17:38:37	120220	12022020	173837	91.91	12.418773	-56.848060	91.91	-0.670	0.780	0.530	91.95	-0.60	1.00	 	 	 	 	 	 	 	 	 	 	 	 	 	 	 	 	 	 	1581529117	8.24	15.26
12/02/2020 17:38:38	120220	12022020	173838	92.06	12.418775	-56.848017	92.04	-0.460	-0.090	0.540	92.08	-1.50	1.00	 	 	 	 	 	 	 	 	 	 	 	 	 	 	 	 	 	 	1581529118	9.30	17.22
12/02/2020 17:38:39	120220	12022020	173839	92.21	12.418777	-56.847968	92.20	0.100	-1.030	0.690	92.24	-2.40	1.20	 	 	 	 	 	 	 	 	 	 	 	 	 	 	 	 	 	 	1581529119	10.16	18.82
12/02/2020 17:38:40	120220	12022020	173840	92.29	12.418775	-56.847923	92.25	0.370	-1.070	1.100	92.27	-2.30	1.60	 	 	 	 	 	 	 	 	 	 	 	 	 	 	 	 	 	 	1581529120	9.62	17.82
12/02/2020 17:38:41	120220	12022020	173841	92.06	12.418772	-56.847882	91.98	0.170	-0.560	1.610	91.98	-1.80	2.10	 	 	 	 	 	 	 	 	 	 	 	 	 	 	 	 	 	 	1581529121	8.73	16.17
12/02/2020 17:38:42	120220	12022020	173842	91.69	12.418768	-56.847842	91.64	-0.140	-0.280	1.780	91.63	-1.60	2.20	 	 	 	 	 	 	 	 	 	 	 	 	 	 	 	 	 	 	1581529122	8.70	16.11
12/02/2020 17:38:43	120220	12022020	173843	91.40	12.418768	-56.847797	91.35	-0.170	-0.340	1.500	91.35	-1.70	1.90	 	 	 	 	 	 	 	 	 	 	 	 	 	 	 	 	 	 	1581529123	9.20	17.04
12/02/2020 17:38:44	120220	12022020	173844	91.26	12.418772	-56.847752	91.24	0.140	-0.470	0.980	91.26	-1.80	1.30	 	 	 	 	 	 	 	 	 	 	 	 	 	 	 	 	 	 	1581529124	9.59	17.76
12/02/2020 17:38:45	120220	12022020	173845	91.35	12.418777	-56.847707	91.37	0.460	-0.470	0.550	91.39	-1.80	0.90	 	 	 	 	 	 	 	 	 	 	 	 	 	 	 	 	 	 	1581529125	9.68	17.93
12/02/2020 17:38:46	120220	12022020	173846	91.70	12.418780	-56.847662	91.76	0.380	-0.190	0.460	91.80	-1.40	0.90	 	 	 	 	 	 	 	 	 	 	 	 	 	 	 	 	 	 	1581529126	9.47	17.54
12/02/2020 17:38:47	120220	12022020	173847	92.22	12.418780	-56.847620	92.28	-0.190	0.450	0.760	92.31	-0.80	1.20	 	 	 	 	 	 	 	 	 	 	 	 	 	 	 	 	 	 	1581529127	8.89	16.46
12/02/2020 17:38:48	120220	12022020	173848	92.48	12.418777	-56.847580	92.46	-0.800	1.080	1.150	92.48	-0.20	1.60	 	 	 	 	 	 	 	 	 	 	 	 	 	 	 	 	 	 	1581529128	8.34	15.45
12/02/2020 17:38:49	120220	12022020	173849	92.41	12.418773	-56.847540	92.36	-0.910	0.820	1.370	92.37	-0.60	1.80	 	 	 	 	 	 	 	 	 	 	 	 	 	 	 	 	 	 	1581529129	8.52	15.78
12/02/2020 17:38:50	120220	12022020	173850	92.20	12.418773	-56.847495	92.12	-0.310	-0.650	1.450	92.13	-2.20	1.90	 	 	 	 	 	 	 	 	 	 	 	 	 	 	 	 	 	 	1581529130	9.72	18.00
12/02/2020 17:38:51	120220	12022020	173851	91.84	12.418773	-56.847443	91.77	0.680	-2.290	1.370	91.77	-3.70	1.80	 	 	 	 	 	 	 	 	 	 	 	 	 	 	 	 	 	 	1581529131	10.88	20.15
12/02/2020 17:38:52	120220	12022020	173852	91.69	12.418778	-56.847393	91.68	1.300	-2.450	0.940	91.71	-3.60	1.30	 	 	 	 	 	 	 	 	 	 	 	 	 	 	 	 	 	 	1581529132	10.67	19.76
12/02/2020 17:38:53	120220	12022020	173853	91.96	12.418783	-56.847352	92.01	0.980	-0.820	0.860	92.05	-1.90	1.30	 	 	 	 	 	 	 	 	 	 	 	 	 	 	 	 	 	 	1581529133	8.88	16.45
12/02/2020 17:38:54	120220	12022020	173854	92.40	12.418782	-56.847315	92.44	-0.130	1.140	1.280	92.46	-0.00	1.80	 	 	 	 	 	 	 	 	 	 	 	 	 	 	 	 	 	 	1581529134	7.49	13.87
12/02/2020 17:38:55	120220	12022020	173855	92.61	12.418778	-56.847278	92.61	-1.240	1.920	1.640	92.62	0.60	2.10	 	 	 	 	 	 	 	 	 	 	 	 	 	 	 	 	 	 	1581529135	7.82	14.48
12/02/2020 17:38:56	120220	12022020	173856	92.48	12.418773	-56.847237	92.42	-1.520	1.210	1.860	92.43	-0.30	2.30	 	 	 	 	 	 	 	 	 	 	 	 	 	 	 	 	 	 	1581529136	9.10	16.85
12/02/2020 17:38:57	120220	12022020	173857	92.22	12.418772	-56.847187	92.17	-0.830	-0.360	1.780	92.19	-1.90	2.20	 	 	 	 	 	 	 	 	 	 	 	 	 	 	 	 	 	 	1581529137	10.34	19.15
12/02/2020 17:38:58	120220	12022020	173858	92.23	12.418772	-56.847137	92.22	0.230	-1.700	1.270	92.26	-3.10	1.60	 	 	 	 	 	 	 	 	 	 	 	 	 	 	 	 	 	 	1581529138	10.72	19.85
12/02/2020 17:38:59	120220	12022020	173859	92.43	12.418775	-56.847088	92.42	0.880	-1.970	0.720	92.47	-3.20	1.10	 	 	 	 	 	 	 	 	 	 	 	 	 	 	 	 	 	 	1581529139	10.19	18.87
12/02/2020 17:39:00	120220	12022020	173900	92.52	12.418778	-56.847045	92.46	0.860	-0.980	0.550	92.52	-2.10	1.00	 	 	 	 	 	 	 	 	 	 	 	 	 	 	 	 	 	 	1581529140	9.03	16.72
12/02/2020 17:39:01	120220	12022020	173901	92.54	12.418778	-56.847008	92.49	0.410	0.510	0.690	92.55	-0.70	1.20	 	 	 	 	 	 	 	 	 	 	 	 	 	 	 	 	 	 	1581529141	8.00	14.82
12/02/2020 17:39:02	120220	12022020	173902	92.61	12.418780	-56.846970	92.56	-0.090	1.140	0.810	92.62	-0.20	1.30	1015.50	26.50	26.60	20.90	20.90	863.0	71.0	71.0	392.0	28.6	348.00	15.00	75.00	10.50	62366	11165.0	27.4	27.4	1581529142	8.12	15.04
12/02/2020 17:39:03	120220	12022020	173903	92.63	12.418780	-56.846925	92.59	-0.360	0.600	0.850	92.63	-0.80	1.30	 	 	 	 	 	 	 	 	 	 	 	 	 	 	 	 	 	 	1581529143	9.31	17.24
12/02/2020 17:39:04	120220	12022020	173904	92.63	12.418780	-56.846878	92.58	-0.370	-0.190	0.870	92.63	-1.60	1.30	 	 	 	 	 	 	 	 	 	 	 	 	 	 	 	 	 	 	1581529144	9.95	18.43
12/02/2020 17:39:05	120220	12022020	173905	92.54	12.418778	-56.846832	92.47	-0.130	-0.790	1.030	92.49	-2.20	1.50	 	 	 	 	 	 	 	 	 	 	 	 	 	 	 	 	 	 	1581529145	9.69	17.95
12/02/2020 17:39:06	120220	12022020	173906	92.27	12.418778	-56.846787	92.20	0.290	-1.420	1.230	92.21	-2.80	1.70	 	 	 	 	 	 	 	 	 	 	 	 	 	 	 	 	 	 	1581529146	9.84	18.22
12/02/2020 17:39:07	120220	12022020	173907	92.10	12.418778	-56.846738	92.09	0.460	-1.510	1.350	92.12	-2.80	1.80	 	 	 	 	 	 	 	 	 	 	 	 	 	 	 	 	 	 	1581529147	10.05	18.61
12/02/2020 17:39:08	120220	12022020	173908	92.31	12.418777	-56.846695	92.34	0.050	-0.530	1.330	92.38	-1.70	1.80	 	 	 	 	 	 	 	 	 	 	 	 	 	 	 	 	 	 	1581529148	9.18	17.00
12/02/2020 17:39:09	120220	12022020	173909	92.67	12.418773	-56.846657	92.68	-0.600	0.800	1.320	92.72	-0.40	1.70	 	 	 	 	 	 	 	 	 	 	 	 	 	 	 	 	 	 	1581529149	8.12	15.04
12/02/2020 17:39:10	120220	12022020	173910	92.80	12.418772	-56.846618	92.74	-0.810	1.270	1.290	92.78	-0.10	1.70	 	 	 	 	 	 	 	 	 	 	 	 	 	 	 	 	 	 	1581529150	8.27	15.32
12/02/2020 17:39:11	120220	12022020	173911	92.63	12.418770	-56.846573	92.55	-0.320	0.610	1.140	92.58	-0.80	1.50	 	 	 	 	 	 	 	 	 	 	 	 	 	 	 	 	 	 	1581529151	9.40	17.41
12/02/2020 17:39:12	120220	12022020	173912	92.42	12.418772	-56.846525	92.35	0.430	-0.560	0.870	92.38	-2.00	1.30	 	 	 	 	 	 	 	 	 	 	 	 	 	 	 	 	 	 	1581529152	10.33	19.13
12/02/2020 17:39:13	120220	12022020	173913	92.34	12.418775	-56.846475	92.29	0.790	-1.330	0.720	92.36	-2.70	1.10	 	 	 	 	 	 	 	 	 	 	 	 	 	 	 	 	 	 	1581529153	10.46	19.37
12/02/2020 17:39:14	120220	12022020	173914	92.56	12.418778	-56.846430	92.57	0.510	-1.080	0.660	92.64	-2.30	1.10	 	 	 	 	 	 	 	 	 	 	 	 	 	 	 	 	 	 	1581529154	9.62	17.82
12/02/2020 17:39:15	120220	12022020	173915	92.99	12.418778	-56.846388	93.01	-0.080	-0.260	0.850	93.07	-1.50	1.30	 	 	 	 	 	 	 	 	 	 	 	 	 	 	 	 	 	 	1581529155	8.54	15.82
12/02/2020 17:39:16	120220	12022020	173916	93.19	12.418773	-56.846348	93.15	-0.410	0.130	1.490	93.15	-1.20	2.00	 	 	 	 	 	 	 	 	 	 	 	 	 	 	 	 	 	 	1581529156	8.56	15.85
12/02/2020 17:39:17	120220	12022020	173917	92.80	12.418767	-56.846305	92.71	-0.370	-0.010	2.160	92.69	-1.30	2.60	 	 	 	 	 	 	 	 	 	 	 	 	 	 	 	 	 	 	1581529157	9.39	17.39
12/02/2020 17:39:18	120220	12022020	173918	92.37	12.418763	-56.846260	92.35	-0.210	-0.230	2.180	92.34	-1.60	2.60	 	 	 	 	 	 	 	 	 	 	 	 	 	 	 	 	 	 	1581529158	9.66	17.89
12/02/2020 17:39:19	120220	12022020	173919	92.37	12.418765	-56.846213	92.38	0.040	-0.610	1.580	92.41	-2.00	1.90	 	 	 	 	 	 	 	 	 	 	 	 	 	 	 	 	 	 	1581529159	9.74	18.04
12/02/2020 17:39:20	120220	12022020	173920	92.51	12.418767	-56.846167	92.45	0.290	-0.800	0.880	92.51	-2.10	1.20	 	 	 	 	 	 	 	 	 	 	 	 	 	 	 	 	 	 	1581529160	10.01	18.54
12/02/2020 17:39:21	120220	12022020	173921	92.53	12.418770	-56.846122	92.43	0.220	-0.120	0.420	92.52	-1.30	0.80	 	 	 	 	 	 	 	 	 	 	 	 	 	 	 	 	 	 	1581529161	9.38	17.37
12/02/2020 17:39:22	120220	12022020	173922	92.48	12.418772	-56.846082	92.38	-0.160	0.840	0.370	92.46	-0.40	0.80	 	 	 	 	 	 	 	 	 	 	 	 	 	 	 	 	 	 	1581529162	8.31	15.39
12/02/2020 17:39:23	120220	12022020	173923	92.37	12.418773	-56.846042	92.28	-0.290	0.670	0.620	92.34	-0.80	1.10	 	 	 	 	 	 	 	 	 	 	 	 	 	 	 	 	 	 	1581529163	8.54	15.82
12/02/2020 17:39:24	120220	12022020	173924	92.13	12.418770	-56.845993	92.03	0.140	-0.810	1.020	92.08	-2.30	1.50	 	 	 	 	 	 	 	 	 	 	 	 	 	 	 	 	 	 	1581529164	10.17	18.83
12/02/2020 17:39:25	120220	12022020	173925	91.88	12.418768	-56.845940	91.78	0.730	-2.100	1.110	91.84	-3.40	1.50	 	 	 	 	 	 	 	 	 	 	 	 	 	 	 	 	 	 	1581529165	11.24	20.82
12/02/2020 17:39:26	120220	12022020	173926	91.72	12.418770	-56.845893	91.67	0.700	-1.280	1.210	91.71	-2.30	1.70	 	 	 	 	 	 	 	 	 	 	 	 	 	 	 	 	 	 	1581529166	10.04	18.59
12/02/2020 17:39:27	120220	12022020	173927	91.71	12.418770	-56.845858	91.69	-0.240	1.000	1.370	91.73	-0.10	1.80	 	 	 	 	 	 	 	 	 	 	 	 	 	 	 	 	 	 	1581529167	7.46	13.82
12/02/2020 17:39:28	120220	12022020	173928	91.86	12.418768	-56.845825	91.84	-1.310	2.170	1.270	91.90	0.80	1.70	 	 	 	 	 	 	 	 	 	 	 	 	 	 	 	 	 	 	1581529168	6.82	12.63
12/02/2020 17:39:29	120220	12022020	173929	92.07	12.418768	-56.845783	92.04	-1.230	0.660	1.050	92.10	-1.00	1.50	 	 	 	 	 	 	 	 	 	 	 	 	 	 	 	 	 	 	1581529169	8.90	16.48
12/02/2020 17:39:30	120220	12022020	173930	92.11	12.418765	-56.845728	92.03	0.100	-1.910	1.030	92.08	-3.40	1.50	 	 	 	 	 	 	 	 	 	 	 	 	 	 	 	 	 	 	1581529170	11.53	21.35
12/02/2020 17:39:31	120220	12022020	173931	91.94	12.418765	-56.845677	91.87	1.170	-2.500	1.020	91.92	-3.70	1.40	 	 	 	 	 	 	 	 	 	 	 	 	 	 	 	 	 	 	1581529171	11.22	20.78
12/02/2020 17:39:32	120220	12022020	173932	91.86	12.418767	-56.845635	91.80	1.010	-0.830	0.960	91.86	-1.90	1.40	 	 	 	 	 	 	 	 	 	 	 	 	 	 	 	 	 	 	1581529172	8.52	15.78
12/02/2020 17:39:33	120220	12022020	173933	91.92	12.418770	-56.845603	91.88	0.010	1.150	0.870	91.95	-0.00	1.30	 	 	 	 	 	 	 	 	 	 	 	 	 	 	 	 	 	 	1581529173	6.83	12.65
12/02/2020 17:39:34	120220	12022020	173934	92.14	12.418772	-56.845568	92.11	-0.660	1.530	0.700	92.18	0.10	1.10	 	 	 	 	 	 	 	 	 	 	 	 	 	 	 	 	 	 	1581529174	7.56	14.00
12/02/2020 17:39:35	120220	12022020	173935	92.26	12.418772	-56.845523	92.18	-0.520	0.290	0.560	92.25	-1.20	1.00	 	 	 	 	 	 	 	 	 	 	 	 	 	 	 	 	 	 	1581529175	9.52	17.63
12/02/2020 17:39:36	120220	12022020	173936	92.10	12.418772	-56.845472	91.99	0.070	-1.020	0.660	92.05	-2.40	1.10	 	 	 	 	 	 	 	 	 	 	 	 	 	 	 	 	 	 	1581529176	10.60	19.63
12/02/2020 17:39:37	120220	12022020	173937	91.93	12.418772	-56.845427	91.87	0.320	-1.000	1.040	91.92	-2.20	1.50	 	 	 	 	 	 	 	 	 	 	 	 	 	 	 	 	 	 	1581529177	9.69	17.95
12/02/2020 17:39:38	120220	12022020	173938	91.98	12.418770	-56.845388	91.95	0.020	-0.310	1.360	92.00	-1.60	1.80	 	 	 	 	 	 	 	 	 	 	 	 	 	 	 	 	 	 	1581529178	8.20	15.19
12/02/2020 17:39:39	120220	12022020	173939	92.02	12.418768	-56.845348	91.97	-0.260	-0.260	1.420	92.01	-1.60	1.80	 	 	 	 	 	 	 	 	 	 	 	 	 	 	 	 	 	 	1581529179	8.30	15.37
12/02/2020 17:39:40	120220	12022020	173940	91.86	12.418767	-56.845303	91.77	-0.100	-0.780	1.390	91.82	-2.10	1.80	 	 	 	 	 	 	 	 	 	 	 	 	 	 	 	 	 	 	1581529180	9.48	17.56
12/02/2020 17:39:41	120220	12022020	173941	91.71	12.418765	-56.845258	91.64	0.260	-0.820	1.360	91.71	-2.10	1.80	 	 	 	 	 	 	 	 	 	 	 	 	 	 	 	 	 	 	1581529181	9.77	18.09
12/02/2020 17:39:42	120220	12022020	173942	91.82	12.418765	-56.845215	91.79	0.300	0.020	0.880	91.87	-1.10	1.20	 	 	 	 	 	 	 	 	 	 	 	 	 	 	 	 	 	 	1581529182	8.92	16.52
12/02/2020 17:39:43	120220	12022020	173943	92.14	12.418770	-56.845178	92.11	-0.150	1.110	0.160	92.21	-0.10	0.50	 	 	 	 	 	 	 	 	 	 	 	 	 	 	 	 	 	 	1581529183	7.94	14.70
12/02/2020 17:39:44	120220	12022020	173944	92.46	12.418775	-56.845142	92.42	-0.600	1.250	-0.040	92.51	-0.20	0.40	 	 	 	 	 	 	 	 	 	 	 	 	 	 	 	 	 	 	1581529184	7.92	14.67
12/02/2020 17:39:45	120220	12022020	173945	92.61	12.418775	-56.845098	92.55	-0.440	-0.120	0.320	92.60	-1.70	0.80	 	 	 	 	 	 	 	 	 	 	 	 	 	 	 	 	 	 	1581529185	9.10	16.85
12/02/2020 17:39:46	120220	12022020	173946	92.35	12.418772	-56.845048	92.24	0.260	-2.020	0.960	92.27	-3.50	1.50	 	 	 	 	 	 	 	 	 	 	 	 	 	 	 	 	 	 	1581529186	10.65	19.72
12/02/2020 17:39:47	120220	12022020	173947	91.97	12.418768	-56.844998	91.91	0.750	-2.440	1.590	91.92	-3.60	2.10	 	 	 	 	 	 	 	 	 	 	 	 	 	 	 	 	 	 	1581529187	10.51	19.46
12/02/2020 17:39:48	120220	12022020	173948	91.86	12.418765	-56.844957	91.85	0.640	-1.080	1.840	91.87	-2.20	2.20	 	 	 	 	 	 	 	 	 	 	 	 	 	 	 	 	 	 	1581529188	8.61	15.95
12/02/2020 17:39:49	120220	12022020	173949	91.96	12.418763	-56.844922	91.93	0.210	0.590	1.520	91.98	-0.60	1.90	 	 	 	 	 	 	 	 	 	 	 	 	 	 	 	 	 	 	1581529189	7.41	13.72
12/02/2020 17:39:50	120220	12022020	173950	92.03	12.418767	-56.844885	91.98	-0.080	1.270	1.080	92.05	-0.00	1.50	 	 	 	 	 	 	 	 	 	 	 	 	 	 	 	 	 	 	1581529190	7.99	14.80
12/02/2020 17:39:51	120220	12022020	173951	92.12	12.418770	-56.844842	92.09	-0.270	0.990	0.800	92.15	-0.40	1.20	 	 	 	 	 	 	 	 	 	 	 	 	 	 	 	 	 	 	1581529191	9.00	16.67
12/02/2020 17:39:52	120220	12022020	173952	92.26	12.418772	-56.844797	92.22	-0.410	0.180	0.760	92.29	-1.20	1.20	 	 	 	 	 	 	 	 	 	 	 	 	 	 	 	 	 	 	1581529192	9.49	17.58
12/02/2020 17:39:53	120220	12022020	173953	92.35	12.418770	-56.844752	92.30	-0.420	-0.580	0.970	92.35	-2.00	1.40	 	 	 	 	 	 	 	 	 	 	 	 	 	 	 	 	 	 	1581529193	9.58	17.74
12/02/2020 17:39:54	120220	12022020	173954	92.29	12.418768	-56.844708	92.23	-0.310	-0.900	1.290	92.25	-2.20	1.80	 	 	 	 	 	 	 	 	 	 	 	 	 	 	 	 	 	 	1581529194	9.24	17.11
12/02/2020 17:39:55	120220	12022020	173955	92.05	12.418765	-56.844667	91.96	-0.040	-1.040	1.640	91.98	-2.40	2.10	 	 	 	 	 	 	 	 	 	 	 	 	 	 	 	 	 	 	1581529195	8.93	16.54
12/02/2020 17:39:56	120220	12022020	173956	91.74	12.418763	-56.844623	91.67	0.440	-1.210	1.720	91.69	-2.50	2.10	 	 	 	 	 	 	 	 	 	 	 	 	 	 	 	 	 	 	1581529196	9.18	17.00
12/02/2020 17:39:57	120220	12022020	173957	91.56	12.418763	-56.844578	91.53	0.790	-0.900	1.520	91.56	-2.10	1.90	 	 	 	 	 	 	 	 	 	 	 	 	 	 	 	 	 	 	1581529197	9.37	17.35
12/02/2020 17:39:58	120220	12022020	173958	91.73	12.418767	-56.844538	91.76	0.580	0.110	1.020	91.80	-1.10	1.40	 	 	 	 	 	 	 	 	 	 	 	 	 	 	 	 	 	 	1581529198	8.69	16.09
12/02/2020 17:39:59	120220	12022020	173959	92.19	12.418770	-56.844500	92.23	-0.070	1.040	0.590	92.27	-0.20	1.00	 	 	 	 	 	 	 	 	 	 	 	 	 	 	 	 	 	 	1581529199	8.06	14.93
12/02/2020 17:40:00	120220	12022020	174000	92.50	12.418770	-56.844460	92.47	-0.600	1.030	0.580	92.51	-0.40	1.00	 	 	 	 	 	 	 	 	 	 	 	 	 	 	 	 	 	 	1581529200	8.34	15.45
12/02/2020 17:40:01	120220	12022020	174001	92.40	12.418768	-56.844415	92.32	-0.550	-0.040	0.930	92.33	-1.50	1.40	 	 	 	 	 	 	 	 	 	 	 	 	 	 	 	 	 	 	1581529201	9.41	17.43
12/02/2020 17:40:02	120220	12022020	174002	91.98	12.418767	-56.844367	91.87	-0.110	-1.260	1.470	91.88	-2.70	1.90	1015.40	26.50	26.60	20.70	20.70	860.0	70.0	70.0	392.0	28.6	345.00	16.50	71.00	12.00	62227	9433.0	27.4	27.4	1581529202	10.22	18.93
12/02/2020 17:40:03	120220	12022020	174003	91.60	12.418763	-56.844320	91.56	0.290	-1.730	1.680	91.57	-3.00	2.10	 	 	 	 	 	 	 	 	 	 	 	 	 	 	 	 	 	 	1581529203	10.04	18.59
12/02/2020 17:40:04	120220	12022020	174004	91.60	12.418765	-56.844277	91.60	0.330	-1.090	1.420	91.63	-2.30	1.80	 	 	 	 	 	 	 	 	 	 	 	 	 	 	 	 	 	 	1581529204	9.14	16.93
12/02/2020 17:40:05	120220	12022020	174005	91.77	12.418767	-56.844238	91.78	0.040	0.070	1.180	91.81	-1.20	1.60	 	 	 	 	 	 	 	 	 	 	 	 	 	 	 	 	 	 	1581529205	8.21	15.20
12/02/2020 17:40:06	120220	12022020	174006	91.93	12.418767	-56.844198	91.94	-0.250	0.740	1.050	91.98	-0.60	1.40	 	 	 	 	 	 	 	 	 	 	 	 	 	 	 	 	 	 	1581529206	8.21	15.20
12/02/2020 17:40:07	120220	12022020	174007	92.15	12.418765	-56.844157	92.16	-0.210	0.590	0.890	92.19	-0.80	1.30	 	 	 	 	 	 	 	 	 	 	 	 	 	 	 	 	 	 	1581529207	8.96	16.59
12/02/2020 17:40:08	120220	12022020	174008	92.24	12.418765	-56.844112	92.20	0.040	-0.010	1.060	92.23	-1.40	1.50	 	 	 	 	 	 	 	 	 	 	 	 	 	 	 	 	 	 	1581529208	9.61	17.80
12/02/2020 17:40:09	120220	12022020	174009	92.10	12.418765	-56.844065	92.04	0.180	-0.500	1.260	92.06	-1.90	1.70	 	 	 	 	 	 	 	 	 	 	 	 	 	 	 	 	 	 	1581529209	9.71	17.98
12/02/2020 17:40:10	120220	12022020	174010	91.77	12.418763	-56.844022	91.68	0.080	-0.610	1.320	91.70	-2.00	1.80	 	 	 	 	 	 	 	 	 	 	 	 	 	 	 	 	 	 	1581529210	9.28	17.19
12/02/2020 17:40:11	120220	12022020	174011	91.35	12.418765	-56.843978	91.27	0.060	-0.670	1.380	91.28	-2.00	1.80	 	 	 	 	 	 	 	 	 	 	 	 	 	 	 	 	 	 	1581529211	9.06	16.78
12/02/2020 17:40:12	120220	12022020	174012	91.14	12.418767	-56.843933	91.14	0.260	-0.770	1.110	91.17	-2.10	1.50	 	 	 	 	 	 	 	 	 	 	 	 	 	 	 	 	 	 	1581529212	9.39	17.39
12/02/2020 17:40:13	120220	12022020	174013	91.44	12.418770	-56.843890	91.47	0.280	-0.440	0.790	91.52	-1.70	1.20	 	 	 	 	 	 	 	 	 	 	 	 	 	 	 	 	 	 	1581529213	9.39	17.39
12/02/2020 17:40:14	120220	12022020	174014	91.79	12.418770	-56.843848	91.78	-0.160	0.270	0.920	91.83	-1.00	1.40	 	 	 	 	 	 	 	 	 	 	 	 	 	 	 	 	 	 	1581529214	8.65	16.02
12/02/2020 17:40:15	120220	12022020	174015	91.84	12.418767	-56.843808	91.76	-0.690	0.590	1.370	91.80	-0.80	1.90	 	 	 	 	 	 	 	 	 	 	 	 	 	 	 	 	 	 	1581529215	8.43	15.61
12/02/2020 17:40:16	120220	12022020	174016	91.54	12.418762	-56.843767	91.44	-0.730	0.080	1.900	91.46	-1.40	2.40	 	 	 	 	 	 	 	 	 	 	 	 	 	 	 	 	 	 	1581529216	9.14	16.93
12/02/2020 17:40:17	120220	12022020	174017	91.12	12.418758	-56.843718	91.05	-0.190	-0.830	2.030	91.06	-2.30	2.40	 	 	 	 	 	 	 	 	 	 	 	 	 	 	 	 	 	 	1581529217	9.97	18.46
12/02/2020 17:40:18	120220	12022020	174018	90.98	12.418760	-56.843672	90.98	0.570	-1.420	1.540	90.98	-2.80	1.90	 	 	 	 	 	 	 	 	 	 	 	 	 	 	 	 	 	 	1581529218	10.19	18.87
12/02/2020 17:40:19	120220	12022020	174019	91.11	12.418765	-56.843625	91.13	0.980	-1.160	0.940	91.14	-2.40	1.30	 	 	 	 	 	 	 	 	 	 	 	 	 	 	 	 	 	 	1581529219	9.74	18.04
12/02/2020 17:40:20	120220	12022020	174020	91.25	12.418770	-56.843583	91.25	0.750	-0.180	0.590	91.26	-1.40	1.00	 	 	 	 	 	 	 	 	 	 	 	 	 	 	 	 	 	 	1581529220	8.91	16.50
12/02/2020 17:40:21	120220	12022020	174021	91.34	12.418773	-56.843543	91.36	-0.070	0.900	0.740	91.38	-0.40	1.20	 	 	 	 	 	 	 	 	 	 	 	 	 	 	 	 	 	 	1581529221	8.30	15.37
12/02/2020 17:40:22	120220	12022020	174022	91.61	12.418773	-56.843505	91.65	-1.050	1.380	1.210	91.67	-0.00	1.70	 	 	 	 	 	 	 	 	 	 	 	 	 	 	 	 	 	 	1581529222	8.16	15.11
12/02/2020 17:40:23	120220	12022020	174023	91.84	12.418768	-56.843463	91.85	-1.440	0.610	1.650	91.85	-1.00	2.10	 	 	 	 	 	 	 	 	 	 	 	 	 	 	 	 	 	 	1581529223	8.91	16.50
12/02/2020 17:40:24	120220	12022020	174024	91.69	12.418763	-56.843415	91.61	-0.790	-1.090	2.060	91.62	-2.70	2.50	 	 	 	 	 	 	 	 	 	 	 	 	 	 	 	 	 	 	1581529224	10.28	19.04
12/02/2020 17:40:25	120220	12022020	174025	91.21	12.418760	-56.843363	91.13	0.460	-2.250	2.210	91.12	-3.70	2.60	 	 	 	 	 	 	 	 	 	 	 	 	 	 	 	 	 	 	1581529225	10.86	20.11
12/02/2020 17:40:26	120220	12022020	174026	90.99	12.418762	-56.843317	91.01	1.300	-1.830	1.710	91.02	-3.10	2.10	 	 	 	 	 	 	 	 	 	 	 	 	 	 	 	 	 	 	1581529226	9.87	18.28
12/02/2020 17:40:27	120220	12022020	174027	91.29	12.418768	-56.843277	91.37	1.180	-0.410	1.160	91.38	-1.60	1.60	 	 	 	 	 	 	 	 	 	 	 	 	 	 	 	 	 	 	1581529227	8.55	15.83
12/02/2020 17:40:28	120220	12022020	174028	91.73	12.418772	-56.843240	91.77	0.310	0.950	0.950	91.80	-0.30	1.40	 	 	 	 	 	 	 	 	 	 	 	 	 	 	 	 	 	 	1581529228	7.92	14.67
12/02/2020 17:40:29	120220	12022020	174029	91.96	12.418773	-56.843202	91.94	-0.590	1.440	0.860	91.96	0.00	1.30	 	 	 	 	 	 	 	 	 	 	 	 	 	 	 	 	 	 	1581529229	8.19	15.17
12/02/2020 17:40:30	120220	12022020	174030	91.91	12.418773	-56.843158	91.86	-0.870	0.650	0.910	91.88	-0.90	1.40	 	 	 	 	 	 	 	 	 	 	 	 	 	 	 	 	 	 	1581529230	9.20	17.04
12/02/2020 17:40:31	120220	12022020	174031	91.77	12.418772	-56.843108	91.73	-0.400	-0.780	1.140	91.75	-2.30	1.60	 	 	 	 	 	 	 	 	 	 	 	 	 	 	 	 	 	 	1581529231	10.37	19.21
12/02/2020 17:40:32	120220	12022020	174032	91.66	12.418770	-56.843060	91.59	0.210	-1.600	1.110	91.62	-3.00	1.50	 	 	 	 	 	 	 	 	 	 	 	 	 	 	 	 	 	 	1581529232	10.51	19.46
12/02/2020 17:40:33	120220	12022020	174033	91.43	12.418772	-56.843015	91.39	0.290	-1.100	0.870	91.40	-2.30	1.30	 	 	 	 	 	 	 	 	 	 	 	 	 	 	 	 	 	 	1581529233	9.45	17.50
12/02/2020 17:40:34	120220	12022020	174034	91.42	12.418773	-56.842977	91.47	-0.210	0.270	0.620	91.48	-0.90	1.00	 	 	 	 	 	 	 	 	 	 	 	 	 	 	 	 	 	 	1581529234	8.10	15.00
12/02/2020 17:40:35	120220	12022020	174035	91.83	12.418775	-56.842940	91.87	-0.690	1.120	0.350	91.91	-0.30	0.80	 	 	 	 	 	 	 	 	 	 	 	 	 	 	 	 	 	 	1581529235	7.59	14.06
12/02/2020 17:40:36	120220	12022020	174036	92.09	12.418775	-56.842898	92.05	-0.400	0.220	0.370	92.09	-1.40	0.80	 	 	 	 	 	 	 	 	 	 	 	 	 	 	 	 	 	 	1581529236	8.87	16.43
12/02/2020 17:40:37	120220	12022020	174037	91.86	12.418773	-56.842847	91.74	0.580	-1.680	0.730	91.76	-3.20	1.20	 	 	 	 	 	 	 	 	 	 	 	 	 	 	 	 	 	 	1581529237	10.89	20.17
12/02/2020 17:40:38	120220	12022020	174038	91.40	12.418772	-56.842795	91.30	1.250	-2.140	1.070	91.34	-3.40	1.50	 	 	 	 	 	 	 	 	 	 	 	 	 	 	 	 	 	 	1581529238	11.08	20.52
12/02/2020 17:40:39	120220	12022020	174039	91.25	12.418773	-56.842753	91.23	0.810	-0.370	1.130	91.26	-1.50	1.60	 	 	 	 	 	 	 	 	 	 	 	 	 	 	 	 	 	 	1581529239	8.74	16.19
12/02/2020 17:40:40	120220	12022020	174040	91.46	12.418777	-56.842720	91.49	-0.450	1.590	1.110	91.52	0.30	1.50	 	 	 	 	 	 	 	 	 	 	 	 	 	 	 	 	 	 	1581529240	6.90	12.78
12/02/2020 17:40:41	120220	12022020	174041	91.78	12.418775	-56.842685	91.81	-1.430	1.780	1.120	91.82	0.30	1.60	 	 	 	 	 	 	 	 	 	 	 	 	 	 	 	 	 	 	1581529241	7.65	14.17
12/02/2020 17:40:42	120220	12022020	174042	91.81	12.418772	-56.842638	91.74	-1.320	0.300	1.420	91.76	-1.30	1.90	 	 	 	 	 	 	 	 	 	 	 	 	 	 	 	 	 	 	1581529242	9.64	17.85
12/02/2020 17:40:43	120220	12022020	174043	91.43	12.418768	-56.842588	91.34	-0.270	-1.350	1.740	91.36	-2.90	2.20	 	 	 	 	 	 	 	 	 	 	 	 	 	 	 	 	 	 	1581529243	10.77	19.95
12/02/2020 17:40:44	120220	12022020	174044	91.20	12.418768	-56.842540	91.19	0.850	-1.940	1.580	91.20	-3.30	2.00	 	 	 	 	 	 	 	 	 	 	 	 	 	 	 	 	 	 	1581529244	10.31	19.09
12/02/2020 17:40:45	120220	12022020	174045	91.36	12.418770	-56.842495	91.41	1.370	-1.510	1.270	91.43	-2.80	1.70	 	 	 	 	 	 	 	 	 	 	 	 	 	 	 	 	 	 	1581529245	9.30	17.22
12/02/2020 17:40:46	120220	12022020	174046	91.60	12.418773	-56.842455	91.61	1.100	-0.500	1.110	91.62	-1.70	1.50	 	 	 	 	 	 	 	 	 	 	 	 	 	 	 	 	 	 	1581529246	8.73	16.17
12/02/2020 17:40:47	120220	12022020	174047	91.63	12.418775	-56.842417	91.59	0.110	0.940	0.980	91.62	-0.30	1.40	 	 	 	 	 	 	 	 	 	 	 	 	 	 	 	 	 	 	1581529247	8.10	15.00
12/02/2020 17:40:48	120220	12022020	174048	91.53	12.418777	-56.842380	91.48	-1.050	2.010	1.130	91.51	0.60	1.60	 	 	 	 	 	 	 	 	 	 	 	 	 	 	 	 	 	 	1581529248	7.46	13.82
12/02/2020 17:40:49	120220	12022020	174049	91.42	12.418777	-56.842342	91.37	-1.300	1.170	1.400	91.41	-0.50	1.90	 	 	 	 	 	 	 	 	 	 	 	 	 	 	 	 	 	 	1581529249	8.19	15.17
12/02/2020 17:40:50	120220	12022020	174050	91.31	12.418775	-56.842292	91.24	-0.340	-1.410	1.510	91.26	-3.10	1.90	 	 	 	 	 	 	 	 	 	 	 	 	 	 	 	 	 	 	1581529250	10.62	19.67
12/02/2020 17:40:51	120220	12022020	174051	91.02	12.418773	-56.842237	90.94	0.700	-2.980	1.580	90.95	-4.40	2.00	 	 	 	 	 	 	 	 	 	 	 	 	 	 	 	 	 	 	1581529251	11.53	21.35
12/02/2020 17:40:52	120220	12022020	174052	90.80	12.418773	-56.842193	90.77	0.760	-1.790	1.620	90.79	-2.90	2.00	 	 	 	 	 	 	 	 	 	 	 	 	 	 	 	 	 	 	1581529252	9.37	17.35
12/02/2020 17:40:53	120220	12022020	174053	90.88	12.418775	-56.842162	90.88	-0.080	0.820	1.560	90.93	-0.30	2.00	 	 	 	 	 	 	 	 	 	 	 	 	 	 	 	 	 	 	1581529253	6.65	12.32
12/02/2020 17:40:54	120220	12022020	174054	91.24	12.418777	-56.842132	91.29	-0.830	2.160	1.220	91.34	0.70	1.60	 	 	 	 	 	 	 	 	 	 	 	 	 	 	 	 	 	 	1581529254	6.38	11.82
12/02/2020 17:40:55	120220	12022020	174055	91.70	12.418778	-56.842092	91.70	-0.590	1.080	0.710	91.77	-0.60	1.10	 	 	 	 	 	 	 	 	 	 	 	 	 	 	 	 	 	 	1581529255	8.51	15.76
12/02/2020 17:40:56	120220	12022020	174056	91.85	12.418782	-56.842040	91.75	0.480	-1.070	0.530	91.85	-2.00	0.90	 	 	 	 	 	 	 	 	 	 	 	 	 	 	 	 	 	 	1581529256	10.73	19.87
12/02/2020 17:40:57	120220	12022020	174057	91.57	12.418783	-56.841990	91.50	1.200	-1.960	0.840	91.53	-3.30	1.30	 	 	 	 	 	 	 	 	 	 	 	 	 	 	 	 	 	 	1581529257	10.76	19.93
12/02/2020 17:40:58	120220	12022020	174058	91.57	12.418783	-56.841948	91.63	0.710	-0.850	1.400	91.64	-2.00	1.90	 	 	 	 	 	 	 	 	 	 	 	 	 	 	 	 	 	 	1581529258	8.58	15.89
12/02/2020 17:40:59	120220	12022020	174059	92.10	12.418782	-56.841917	92.23	-0.500	0.920	1.730	92.24	-0.30	2.20	 	 	 	 	 	 	 	 	 	 	 	 	 	 	 	 	 	 	1581529259	6.73	12.46
12/02/2020 17:41:00	120220	12022020	174100	92.72	12.418780	-56.841885	92.76	-1.200	1.430	1.820	92.78	-0.10	2.30	 	 	 	 	 	 	 	 	 	 	 	 	 	 	 	 	 	 	1581529260	6.83	12.65
12/02/2020 17:41:01	120220	12022020	174101	92.77	12.418777	-56.841843	92.72	-0.680	-0.040	1.940	92.72	-1.70	2.40	 	 	 	 	 	 	 	 	 	 	 	 	 	 	 	 	 	 	1581529261	8.93	16.54
12/02/2020 17:41:02	120220	12022020	174102	92.45	12.418775	-56.841792	92.43	0.370	-1.800	2.080	92.41	-3.30	2.50	1015.40	26.50	26.60	20.20	20.20	862.0	68.0	68.0	391.0	28.6	346.00	16.70	73.00	12.20	62161	20000.0	27.4	27.3	1581529262	10.62	19.67
12/02/2020 17:41:03	120220	12022020	174103	92.47	12.418775	-56.841745	92.53	0.970	-1.990	1.940	92.54	-3.30	2.30	 	 	 	 	 	 	 	 	 	 	 	 	 	 	 	 	 	 	1581529263	10.06	18.63
12/02/2020 17:41:04	120220	12022020	174104	92.96	12.418777	-56.841707	93.04	0.670	-0.610	1.450	93.08	-1.80	1.80	 	 	 	 	 	 	 	 	 	 	 	 	 	 	 	 	 	 	1581529264	8.14	15.08
12/02/2020 17:41:05	120220	12022020	174105	93.46	12.418777	-56.841673	93.48	-0.130	0.810	0.990	93.52	-0.50	1.40	 	 	 	 	 	 	 	 	 	 	 	 	 	 	 	 	 	 	1581529265	7.16	13.26
12/02/2020 17:41:06	120220	12022020	174106	93.59	12.418777	-56.841637	93.53	-0.720	1.360	0.820	93.58	-0.00	1.30	 	 	 	 	 	 	 	 	 	 	 	 	 	 	 	 	 	 	1581529266	7.63	14.13
12/02/2020 17:41:07	120220	12022020	174107	93.43	12.418775	-56.841597	93.35	-0.750	1.060	0.850	93.39	-0.40	1.30	 	 	 	 	 	 	 	 	 	 	 	 	 	 	 	 	 	 	1581529267	8.34	15.45
12/02/2020 17:41:08	120220	12022020	174108	93.25	12.418775	-56.841553	93.16	-0.210	-0.040	0.710	93.25	-1.10	1.20	 	 	 	 	 	 	 	 	 	 	 	 	 	 	 	 	 	 	1581529268	9.07	16.80
12/02/2020 17:41:09	120220	12022020	174109	93.12	12.418777	-56.841508	93.02	0.600	-1.500	0.490	93.08	-3.00	0.90	 	 	 	 	 	 	 	 	 	 	 	 	 	 	 	 	 	 	1581529269	9.83	18.21
12/02/2020 17:41:10	120220	12022020	174110	92.88	12.418777	-56.841460	92.79	1.150	-2.370	0.550	92.88	-3.70	1.00	 	 	 	 	 	 	 	 	 	 	 	 	 	 	 	 	 	 	1581529270	10.08	18.67
12/02/2020 17:41:11	120220	12022020	174111	92.65	12.418775	-56.841417	92.56	0.990	-1.570	0.750	92.62	-2.70	1.20	 	 	 	 	 	 	 	 	 	 	 	 	 	 	 	 	 	 	1581529271	9.16	16.96
12/02/2020 17:41:12	120220	12022020	174112	92.57	12.418775	-56.841383	92.52	0.070	0.700	1.140	92.57	-1.30	1.50	 	 	 	 	 	 	 	 	 	 	 	 	 	 	 	 	 	 	1581529272	7.19	13.32
12/02/2020 17:41:13	120220	12022020	174113	92.69	12.418772	-56.841353	92.67	-1.140	2.510	1.550	92.73	1.20	2.00	 	 	 	 	 	 	 	 	 	 	 	 	 	 	 	 	 	 	1581529273	6.16	11.41
12/02/2020 17:41:14	120220	12022020	174114	92.88	12.418767	-56.841320	92.82	-1.680	1.980	1.610	92.90	0.30	2.00	 	 	 	 	 	 	 	 	 	 	 	 	 	 	 	 	 	 	1581529274	7.30	13.52
12/02/2020 17:41:15	120220	12022020	174115	92.75	12.418762	-56.841272	92.60	-0.840	-0.890	1.530	92.65	-2.70	2.00	 	 	 	 	 	 	 	 	 	 	 	 	 	 	 	 	 	 	1581529275	10.01	18.54
12/02/2020 17:41:16	120220	12022020	174116	92.12	12.418757	-56.841217	91.94	0.770	-3.400	1.810	91.98	-4.90	2.30	 	 	 	 	 	 	 	 	 	 	 	 	 	 	 	 	 	 	1581529276	11.68	21.63
12/02/2020 17:41:17	120220	12022020	174117	91.61	12.418755	-56.841170	91.52	1.710	-2.960	1.710	91.57	-4.00	2.10	 	 	 	 	 	 	 	 	 	 	 	 	 	 	 	 	 	 	1581529277	10.14	18.78
12/02/2020 17:41:18	120220	12022020	174118	91.62	12.418758	-56.841137	91.59	1.200	-0.040	1.110	91.66	-1.00	1.50	 	 	 	 	 	 	 	 	 	 	 	 	 	 	 	 	 	 	1581529278	6.95	12.87
12/02/2020 17:41:19	120220	12022020	174119	91.86	12.418763	-56.841112	91.84	-0.200	2.550	0.720	91.91	1.30	1.10	 	 	 	 	 	 	 	 	 	 	 	 	 	 	 	 	 	 	1581529279	5.47	10.13
12/02/2020 17:41:20	120220	12022020	174120	92.06	12.418765	-56.841080	92.01	-1.300	2.840	0.790	92.08	1.30	1.20	 	 	 	 	 	 	 	 	 	 	 	 	 	 	 	 	 	 	1581529280	6.57	12.17
12/02/2020 17:41:21	120220	12022020	174121	92.10	12.418763	-56.841038	92.03	-1.200	0.770	1.000	92.08	-1.00	1.50	 	 	 	 	 	 	 	 	 	 	 	 	 	 	 	 	 	 	1581529281	8.92	16.52
12/02/2020 17:41:22	120220	12022020	174122	91.92	12.418760	-56.840988	91.82	-0.030	-1.890	1.440	91.86	-3.50	1.90	 	 	 	 	 	 	 	 	 	 	 	 	 	 	 	 	 	 	1581529282	10.65	19.72
12/02/2020 17:41:23	120220	12022020	174123	91.64	12.418757	-56.840938	91.59	1.130	-3.110	1.840	91.59	-4.50	2.30	 	 	 	 	 	 	 	 	 	 	 	 	 	 	 	 	 	 	1581529283	10.42	19.30
12/02/2020 17:41:24	120220	12022020	174124	91.46	12.418755	-56.840898	91.42	1.130	-1.920	1.840	91.43	-3.00	2.30	 	 	 	 	 	 	 	 	 	 	 	 	 	 	 	 	 	 	1581529284	8.43	15.61
12/02/2020 17:41:25	120220	12022020	174125	91.36	12.418755	-56.840870	91.33	0.020	0.620	1.760	91.35	-0.50	2.20	 	 	 	 	 	 	 	 	 	 	 	 	 	 	 	 	 	 	1581529285	6.24	11.56
12/02/2020 17:41:26	120220	12022020	174126	91.30	12.418755	-56.840843	91.27	-1.130	2.320	1.620	91.29	0.90	2.00	 	 	 	 	 	 	 	 	 	 	 	 	 	 	 	 	 	 	1581529286	5.60	10.37
12/02/2020 17:41:27	120220	12022020	174127	91.24	12.418755	-56.840807	91.19	-1.130	1.530	1.130	91.23	-0.10	1.50	 	 	 	 	 	 	 	 	 	 	 	 	 	 	 	 	 	 	1581529287	7.44	13.78
12/02/2020 17:41:28	120220	12022020	174128	91.28	12.418758	-56.840760	91.28	-0.130	-0.680	0.570	91.33	-2.30	1.00	 	 	 	 	 	 	 	 	 	 	 	 	 	 	 	 	 	 	1581529288	9.92	18.37
12/02/2020 17:41:29	120220	12022020	174129	91.59	12.418762	-56.840712	91.61	0.870	-2.270	0.300	91.66	-3.70	0.70	 	 	 	 	 	 	 	 	 	 	 	 	 	 	 	 	 	 	1581529289	10.38	19.22
12/02/2020 17:41:30	120220	12022020	174130	91.79	12.418762	-56.840668	91.75	1.150	-2.130	0.460	91.78	-3.40	0.90	 	 	 	 	 	 	 	 	 	 	 	 	 	 	 	 	 	 	1581529290	9.14	16.93
12/02/2020 17:41:31	120220	12022020	174131	91.67	12.418762	-56.840633	91.62	0.610	-0.360	0.970	91.63	-1.50	1.50	 	 	 	 	 	 	 	 	 	 	 	 	 	 	 	 	 	 	1581529291	7.37	13.65
12/02/2020 17:41:32	120220	12022020	174132	91.60	12.418758	-56.840605	91.59	-0.310	1.550	1.450	91.62	0.30	1.90	 	 	 	 	 	 	 	 	 	 	 	 	 	 	 	 	 	 	1581529292	6.16	11.41
12/02/2020 17:41:33	120220	12022020	174133	91.75	12.418758	-56.840573	91.79	-0.870	1.930	1.480	91.80	0.40	1.90	 	 	 	 	 	 	 	 	 	 	 	 	 	 	 	 	 	 	1581529293	6.73	12.46
12/02/2020 17:41:34	120220	12022020	174134	92.08	12.418760	-56.840533	92.13	-0.740	0.760	0.980	92.17	-0.80	1.40	 	 	 	 	 	 	 	 	 	 	 	 	 	 	 	 	 	 	1581529294	8.46	15.67
12/02/2020 17:41:35	120220	12022020	174135	92.44	12.418762	-56.840488	92.41	-0.210	-0.750	0.670	92.47	-2.30	1.10	 	 	 	 	 	 	 	 	 	 	 	 	 	 	 	 	 	 	1581529295	9.39	17.39
12/02/2020 17:41:36	120220	12022020	174136	92.41	12.418762	-56.840445	92.31	0.320	-1.750	0.900	92.41	-3.00	1.30	 	 	 	 	 	 	 	 	 	 	 	 	 	 	 	 	 	 	1581529296	9.18	17.00
12/02/2020 17:41:37	120220	12022020	174137	92.01	12.418760	-56.840403	91.90	0.690	-1.940	1.170	91.92	-3.30	1.60	 	 	 	 	 	 	 	 	 	 	 	 	 	 	 	 	 	 	1581529297	8.72	16.15
12/02/2020 17:41:38	120220	12022020	174138	91.52	12.418758	-56.840365	91.43	0.800	-1.260	1.320	91.43	-2.50	1.70	 	 	 	 	 	 	 	 	 	 	 	 	 	 	 	 	 	 	1581529298	8.19	15.17
12/02/2020 17:41:39	120220	12022020	174139	91.15	12.418760	-56.840330	91.09	0.520	0.020	1.090	91.11	-1.20	1.50	 	 	 	 	 	 	 	 	 	 	 	 	 	 	 	 	 	 	1581529299	7.56	14.00
12/02/2020 17:41:40	120220	12022020	174140	91.07	12.418765	-56.840295	91.04	-0.030	1.070	0.490	91.09	-0.30	0.90	 	 	 	 	 	 	 	 	 	 	 	 	 	 	 	 	 	 	1581529300	7.29	13.50
12/02/2020 17:41:41	120220	12022020	174141	91.32	12.418770	-56.840258	91.32	-0.460	1.100	-0.000	91.41	-0.40	0.40	 	 	 	 	 	 	 	 	 	 	 	 	 	 	 	 	 	 	1581529301	7.86	14.56
12/02/2020 17:41:42	120220	12022020	174142	91.79	12.418772	-56.840217	91.77	-0.580	0.290	-0.100	91.88	-1.20	0.40	 	 	 	 	 	 	 	 	 	 	 	 	 	 	 	 	 	 	1581529302	8.79	16.28
12/02/2020 17:41:43	120220	12022020	174143	92.14	12.418768	-56.840173	92.10	-0.480	-0.600	0.210	92.18	-2.10	0.70	 	 	 	 	 	 	 	 	 	 	 	 	 	 	 	 	 	 	1581529303	9.17	16.98
12/02/2020 17:41:44	120220	12022020	174144	92.12	12.418762	-56.840132	92.02	-0.250	-0.930	0.880	92.06	-2.30	1.40	 	 	 	 	 	 	 	 	 	 	 	 	 	 	 	 	 	 	1581529304	8.88	16.45
12/02/2020 17:41:45	120220	12022020	174145	91.64	12.418757	-56.840093	91.49	0.080	-0.590	1.520	91.51	-1.90	2.00	 	 	 	 	 	 	 	 	 	 	 	 	 	 	 	 	 	 	1581529305	8.15	15.09
12/02/2020 17:41:46	120220	12022020	174146	90.99	12.418757	-56.840058	90.86	0.440	-0.210	1.490	90.89	-1.60	1.90	 	 	 	 	 	 	 	 	 	 	 	 	 	 	 	 	 	 	1581529306	7.69	14.24
12/02/2020 17:41:47	120220	12022020	174147	90.63	12.418763	-56.840018	90.56	0.810	-0.520	0.810	90.60	-2.00	1.10	 	 	 	 	 	 	 	 	 	 	 	 	 	 	 	 	 	 	1581529307	8.44	15.63
12/02/2020 17:41:48	120220	12022020	174148	90.68	12.418772	-56.839975	90.68	0.860	-0.920	0.310	90.68	-2.30	0.80	 	 	 	 	 	 	 	 	 	 	 	 	 	 	 	 	 	 	1581529308	9.42	17.45
12/02/2020 17:41:49	120220	12022020	174149	91.03	12.418775	-56.839933	91.07	0.210	-0.220	0.550	91.12	-1.50	1.00	 	 	 	 	 	 	 	 	 	 	 	 	 	 	 	 	 	 	1581529309	8.55	15.83
12/02/2020 17:41:50	120220	12022020	174150	91.51	12.418772	-56.839900	91.55	-0.820	1.010	1.030	91.58	-0.30	1.50	 	 	 	 	 	 	 	 	 	 	 	 	 	 	 	 	 	 	1581529310	7.11	13.17
12/02/2020 17:41:51	120220	12022020	174151	91.76	12.418767	-56.839867	91.75	-1.280	1.060	1.530	91.77	-0.50	2.00	 	 	 	 	 	 	 	 	 	 	 	 	 	 	 	 	 	 	1581529311	7.22	13.37
12/02/2020 17:41:52	120220	12022020	174152	91.71	12.418762	-56.839825	91.66	-0.700	-0.330	1.930	91.68	-1.90	2.40	 	 	 	 	 	 	 	 	 	 	 	 	 	 	 	 	 	 	1581529312	8.98	16.63
12/02/2020 17:41:53	120220	12022020	174153	91.54	12.418758	-56.839778	91.49	0.390	-1.660	1.990	91.50	-3.10	2.40	 	 	 	 	 	 	 	 	 	 	 	 	 	 	 	 	 	 	1581529313	9.99	18.50
12/02/2020 17:41:54	120220	12022020	174154	91.37	12.418760	-56.839733	91.33	1.100	-1.610	1.700	91.35	-2.90	2.10	 	 	 	 	 	 	 	 	 	 	 	 	 	 	 	 	 	 	1581529314	9.30	17.22
12/02/2020 17:41:55	120220	12022020	174155	91.25	12.418763	-56.839697	91.21	0.890	-0.320	1.150	91.23	-1.50	1.50	 	 	 	 	 	 	 	 	 	 	 	 	 	 	 	 	 	 	1581529315	7.87	14.58
12/02/2020 17:41:56	120220	12022020	174156	91.18	12.418770	-56.839663	91.15	-0.060	0.930	0.630	91.19	-0.40	1.00	 	 	 	 	 	 	 	 	 	 	 	 	 	 	 	 	 	 	1581529316	7.16	13.26
12/02/2020 17:41:57	120220	12022020	174157	91.31	12.418773	-56.839628	91.32	-0.990	1.170	0.350	91.37	-0.30	0.80	 	 	 	 	 	 	 	 	 	 	 	 	 	 	 	 	 	 	1581529317	7.52	13.93
12/02/2020 17:41:58	120220	12022020	174158	91.68	12.418773	-56.839588	91.69	-1.200	0.470	0.320	91.76	-1.00	0.80	 	 	 	 	 	 	 	 	 	 	 	 	 	 	 	 	 	 	1581529318	8.46	15.67
12/02/2020 17:41:59	120220	12022020	174159	92.01	12.418772	-56.839545	92.00	-0.540	-0.610	0.530	92.05	-2.10	1.00	 	 	 	 	 	 	 	 	 	 	 	 	 	 	 	 	 	 	1581529319	9.06	16.78
12/02/2020 17:42:00	120220	12022020	174200	92.09	12.418770	-56.839500	92.05	0.550	-1.670	0.840	92.09	-2.80	1.20	 	 	 	 	 	 	 	 	 	 	 	 	 	 	 	 	 	 	1581529320	9.44	17.48
12/02/2020 17:42:01	120220	12022020	174201	91.93	12.418768	-56.839457	91.87	1.330	-1.980	1.310	91.86	-3.30	1.80	 	 	 	 	 	 	 	 	 	 	 	 	 	 	 	 	 	 	1581529321	9.44	17.48
12/02/2020 17:42:02	120220	12022020	174202	91.53	12.418765	-56.839415	91.45	1.360	-1.090	1.700	91.53	-2.80	2.10	1015.40	26.50	26.60	19.90	20.00	862.0	66.0	66.0	391.0	28.6	346.00	15.80	72.00	11.60	62122	2609.0	27.4	27.3	1581529322	8.59	15.91
12/02/2020 17:42:03	120220	12022020	174203	91.13	12.418767	-56.839380	91.11	0.640	0.510	1.590	91.10	-0.70	2.00	 	 	 	 	 	 	 	 	 	 	 	 	 	 	 	 	 	 	1581529323	7.58	14.04
12/02/2020 17:42:04	120220	12022020	174204	91.21	12.418772	-56.839347	91.27	-0.550	1.880	1.000	91.30	0.60	1.30	 	 	 	 	 	 	 	 	 	 	 	 	 	 	 	 	 	 	1581529324	7.20	13.33
12/02/2020 17:42:05	120220	12022020	174205	91.87	12.418777	-56.839312	91.97	-1.700	2.230	0.430	92.04	0.80	0.80	 	 	 	 	 	 	 	 	 	 	 	 	 	 	 	 	 	 	1581529325	7.32	13.56
12/02/2020 17:42:06	120220	12022020	174206	92.60	12.418777	-56.839273	92.64	-2.010	0.940	0.390	92.69	-0.70	0.90	 	 	 	 	 	 	 	 	 	 	 	 	 	 	 	 	 	 	1581529326	8.15	15.09
12/02/2020 17:42:07	120220	12022020	174207	92.77	12.418770	-56.839227	92.70	-0.930	-1.600	0.760	92.72	-3.30	1.20	 	 	 	 	 	 	 	 	 	 	 	 	 	 	 	 	 	 	1581529327	9.85	18.24
12/02/2020 17:42:08	120220	12022020	174208	92.27	12.418763	-56.839177	92.16	0.890	-3.520	1.250	92.13	-5.00	1.70	 	 	 	 	 	 	 	 	 	 	 	 	 	 	 	 	 	 	1581529328	10.76	19.93
12/02/2020 17:42:09	120220	12022020	174209	91.71	12.418762	-56.839132	91.69	2.020	-3.100	1.420	91.67	-4.20	1.80	 	 	 	 	 	 	 	 	 	 	 	 	 	 	 	 	 	 	1581529329	9.62	17.82
12/02/2020 17:42:10	120220	12022020	174210	91.76	12.418767	-56.839097	91.84	1.620	-0.610	0.810	91.84	-1.70	1.10	 	 	 	 	 	 	 	 	 	 	 	 	 	 	 	 	 	 	1581529330	7.38	13.67
12/02/2020 17:42:11	120220	12022020	174211	92.25	12.418773	-56.839068	92.32	0.220	1.930	0.090	92.36	0.70	0.50	 	 	 	 	 	 	 	 	 	 	 	 	 	 	 	 	 	 	1581529331	6.17	11.43
12/02/2020 17:42:12	120220	12022020	174212	92.71	12.418775	-56.839037	92.72	-0.990	2.750	0.060	92.77	1.30	0.50	 	 	 	 	 	 	 	 	 	 	 	 	 	 	 	 	 	 	1581529332	6.70	12.41
12/02/2020 17:42:13	120220	12022020	174213	92.88	12.418773	-56.838997	92.83	-1.250	1.490	0.480	92.88	-0.20	0.90	 	 	 	 	 	 	 	 	 	 	 	 	 	 	 	 	 	 	1581529333	8.58	15.89
12/02/2020 17:42:14	120220	12022020	174214	92.81	12.418768	-56.838948	92.73	-0.750	-0.420	0.760	92.79	-2.00	1.20	 	 	 	 	 	 	 	 	 	 	 	 	 	 	 	 	 	 	1581529334	10.01	18.54
12/02/2020 17:42:15	120220	12022020	174215	92.68	12.418767	-56.838903	92.63	-0.170	-1.460	1.000	92.66	-2.90	1.40	 	 	 	 	 	 	 	 	 	 	 	 	 	 	 	 	 	 	1581529335	9.69	17.95
12/02/2020 17:42:16	120220	12022020	174216	92.57	12.418763	-56.838863	92.53	0.110	-1.380	1.200	92.55	-2.70	1.60	 	 	 	 	 	 	 	 	 	 	 	 	 	 	 	 	 	 	1581529336	8.36	15.48
12/02/2020 17:42:17	120220	12022020	174217	92.43	12.418763	-56.838827	92.37	0.300	-1.100	1.180	92.39	-2.50	1.60	 	 	 	 	 	 	 	 	 	 	 	 	 	 	 	 	 	 	1581529337	7.72	14.30
12/02/2020 17:42:18	120220	12022020	174218	92.25	12.418763	-56.838787	92.21	0.690	-1.200	1.070	92.23	-2.60	1.50	 	 	 	 	 	 	 	 	 	 	 	 	 	 	 	 	 	 	1581529338	8.45	15.65
12/02/2020 17:42:19	120220	12022020	174219	92.09	12.418763	-56.838745	92.03	0.890	-0.950	1.100	92.06	-2.20	1.50	 	 	 	 	 	 	 	 	 	 	 	 	 	 	 	 	 	 	1581529339	9.01	16.69
12/02/2020 17:42:20	120220	12022020	174220	91.93	12.418763	-56.838705	91.89	0.460	0.200	1.170	91.91	-1.00	1.60	 	 	 	 	 	 	 	 	 	 	 	 	 	 	 	 	 	 	1581529340	8.26	15.30
12/02/2020 17:42:21	120220	12022020	174221	91.88	12.418762	-56.838672	91.86	-0.460	1.500	1.150	91.90	0.20	1.60	 	 	 	 	 	 	 	 	 	 	 	 	 	 	 	 	 	 	1581529341	7.23	13.39
12/02/2020 17:42:22	120220	12022020	174222	92.06	12.418762	-56.838637	92.06	-1.250	1.840	1.060	92.11	0.40	1.50	 	 	 	 	 	 	 	 	 	 	 	 	 	 	 	 	 	 	1581529342	7.25	13.43
12/02/2020 17:42:23	120220	12022020	174223	92.31	12.418760	-56.838597	92.29	-1.170	0.680	0.920	92.34	-0.90	1.30	 	 	 	 	 	 	 	 	 	 	 	 	 	 	 	 	 	 	1581529343	8.31	15.39
12/02/2020 17:42:24	120220	12022020	174224	92.27	12.418758	-56.838552	92.17	-0.010	-1.400	0.990	92.27	-2.30	1.40	 	 	 	 	 	 	 	 	 	 	 	 	 	 	 	 	 	 	1581529344	9.82	18.19
12/02/2020 17:42:25	120220	12022020	174225	91.94	12.418758	-56.838503	91.87	1.190	-2.540	1.360	91.88	-3.90	1.80	 	 	 	 	 	 	 	 	 	 	 	 	 	 	 	 	 	 	1581529345	10.24	18.96
12/02/2020 17:42:26	120220	12022020	174226	91.79	12.418758	-56.838462	91.80	1.360	-1.920	1.860	91.79	-3.60	2.20	 	 	 	 	 	 	 	 	 	 	 	 	 	 	 	 	 	 	1581529346	8.77	16.24
12/02/2020 17:42:27	120220	12022020	174227	91.97	12.418757	-56.838427	92.05	0.590	-0.380	2.270	92.03	-1.60	2.70	 	 	 	 	 	 	 	 	 	 	 	 	 	 	 	 	 	 	1581529347	7.35	13.61
12/02/2020 17:42:28	120220	12022020	174228	92.24	12.418753	-56.838393	92.30	-0.260	0.950	2.360	92.27	-0.30	2.70	 	 	 	 	 	 	 	 	 	 	 	 	 	 	 	 	 	 	1581529348	7.05	13.06
12/02/2020 17:42:29	120220	12022020	174229	92.40	12.418753	-56.838357	92.41	-0.680	1.480	2.070	92.41	0.10	2.40	 	 	 	 	 	 	 	 	 	 	 	 	 	 	 	 	 	 	1581529349	7.59	14.06
12/02/2020 17:42:30	120220	12022020	174230	92.46	12.418752	-56.838317	92.48	-0.610	0.820	1.710	92.47	-0.70	2.10	 	 	 	 	 	 	 	 	 	 	 	 	 	 	 	 	 	 	1581529350	8.50	15.74
12/02/2020 17:42:31	120220	12022020	174231	92.38	12.418750	-56.838272	92.34	-0.290	-0.480	1.490	92.33	-2.00	1.90	 	 	 	 	 	 	 	 	 	 	 	 	 	 	 	 	 	 	1581529351	9.55	17.69
12/02/2020 17:42:32	120220	12022020	174232	92.14	12.418750	-56.838227	92.11	-0.060	-1.040	1.100	92.11	-2.40	1.50	 	 	 	 	 	 	 	 	 	 	 	 	 	 	 	 	 	 	1581529352	9.45	17.50
12/02/2020 17:42:33	120220	12022020	174233	92.07	12.418753	-56.838188	92.06	-0.050	-0.460	0.510	92.08	-1.80	0.90	 	 	 	 	 	 	 	 	 	 	 	 	 	 	 	 	 	 	1581529353	8.14	15.08
12/02/2020 17:42:34	120220	12022020	174234	92.13	12.418757	-56.838155	92.10	-0.030	0.130	0.220	92.13	-1.30	0.70	 	 	 	 	 	 	 	 	 	 	 	 	 	 	 	 	 	 	1581529354	7.30	13.52
12/02/2020 17:42:35	120220	12022020	174235	92.04	12.418758	-56.838117	91.98	0.280	-0.350	0.380	92.00	-1.90	0.80	 	 	 	 	 	 	 	 	 	 	 	 	 	 	 	 	 	 	1581529355	8.07	14.95
12/02/2020 17:42:36	120220	12022020	174236	91.76	12.418757	-56.838072	91.69	0.720	-1.430	0.670	91.76	-2.60	1.00	 	 	 	 	 	 	 	 	 	 	 	 	 	 	 	 	 	 	1581529356	9.46	17.52
12/02/2020 17:42:37	120220	12022020	174237	91.52	12.418757	-56.838025	91.51	0.870	-1.690	0.990	91.49	-3.00	1.50	 	 	 	 	 	 	 	 	 	 	 	 	 	 	 	 	 	 	1581529357	9.72	18.00
12/02/2020 17:42:38	120220	12022020	174238	91.47	12.418755	-56.837987	91.50	0.340	-0.310	1.420	91.47	-2.10	1.70	 	 	 	 	 	 	 	 	 	 	 	 	 	 	 	 	 	 	1581529358	8.34	15.45
12/02/2020 17:42:39	120220	12022020	174239	91.60	12.418752	-56.837955	91.62	-0.730	1.530	1.660	91.63	0.30	2.10	 	 	 	 	 	 	 	 	 	 	 	 	 	 	 	 	 	 	1581529359	6.71	12.43
12/02/2020 17:42:40	120220	12022020	174240	91.70	12.418748	-56.837922	91.69	-1.470	1.960	1.660	91.70	0.40	2.10	 	 	 	 	 	 	 	 	 	 	 	 	 	 	 	 	 	 	1581529360	6.87	12.72
12/02/2020 17:42:41	120220	12022020	174241	91.55	12.418747	-56.837880	91.50	-1.050	0.410	1.660	91.48	-1.30	2.00	 	 	 	 	 	 	 	 	 	 	 	 	 	 	 	 	 	 	1581529361	8.76	16.22
12/02/2020 17:42:42	120220	12022020	174242	91.21	12.418745	-56.837832	91.18	0.180	-1.560	1.430	91.17	-3.10	1.80	 	 	 	 	 	 	 	 	 	 	 	 	 	 	 	 	 	 	1581529362	10.38	19.22
12/02/2020 17:42:43	120220	12022020	174243	91.13	12.418748	-56.837785	91.15	1.060	-2.150	1.180	91.16	-3.50	1.60	 	 	 	 	 	 	 	 	 	 	 	 	 	 	 	 	 	 	1581529363	10.01	18.54
12/02/2020 17:42:44	120220	12022020	174244	91.38	12.418752	-56.837747	91.43	0.930	-1.010	1.080	91.45	-2.20	1.50	 	 	 	 	 	 	 	 	 	 	 	 	 	 	 	 	 	 	1581529364	8.16	15.11
12/02/2020 17:42:45	120220	12022020	174245	91.64	12.418752	-56.837715	91.65	0.110	0.670	1.160	91.66	-0.60	1.60	 	 	 	 	 	 	 	 	 	 	 	 	 	 	 	 	 	 	1581529365	6.67	12.35
12/02/2020 17:42:46	120220	12022020	174246	91.60	12.418750	-56.837682	91.56	-0.530	1.340	1.560	91.56	-0.10	2.00	 	 	 	 	 	 	 	 	 	 	 	 	 	 	 	 	 	 	1581529366	6.84	12.67
12/02/2020 17:42:47	120220	12022020	174247	91.32	12.418747	-56.837642	91.27	-0.420	0.390	1.870	91.27	-1.20	2.30	 	 	 	 	 	 	 	 	 	 	 	 	 	 	 	 	 	 	1581529367	8.39	15.54
12/02/2020 17:42:48	120220	12022020	174248	91.10	12.418747	-56.837595	91.06	0.210	-1.210	1.800	91.06	-2.80	2.20	 	 	 	 	 	 	 	 	 	 	 	 	 	 	 	 	 	 	1581529368	9.93	18.39
12/02/2020 17:42:49	120220	12022020	174249	90.95	12.418747	-56.837548	90.93	0.440	-1.560	1.630	90.93	-2.90	2.00	 	 	 	 	 	 	 	 	 	 	 	 	 	 	 	 	 	 	1581529369	9.80	18.15
12/02/2020 17:42:50	120220	12022020	174250	90.90	12.418748	-56.837512	90.88	-0.130	-0.240	1.410	90.90	-2.00	1.90	 	 	 	 	 	 	 	 	 	 	 	 	 	 	 	 	 	 	1581529370	7.79	14.43
12/02/2020 17:42:51	120220	12022020	174251	90.88	12.418750	-56.837482	90.86	-0.910	1.190	1.270	90.88	-0.10	1.70	 	 	 	 	 	 	 	 	 	 	 	 	 	 	 	 	 	 	1581529371	6.38	11.82
12/02/2020 17:42:52	120220	12022020	174252	90.92	12.418750	-56.837448	90.89	-0.820	0.790	1.140	90.92	-0.30	1.60	 	 	 	 	 	 	 	 	 	 	 	 	 	 	 	 	 	 	1581529372	7.28	13.48
12/02/2020 17:42:53	120220	12022020	174253	90.98	12.418752	-56.837402	90.93	0.280	-1.160	0.940	90.98	-2.80	1.30	 	 	 	 	 	 	 	 	 	 	 	 	 	 	 	 	 	 	1581529373	9.72	18.00
12/02/2020 17:42:54	120220	12022020	174254	90.97	12.418753	-56.837352	90.92	1.250	-2.230	0.890	90.96	-3.60	1.30	 	 	 	 	 	 	 	 	 	 	 	 	 	 	 	 	 	 	1581529374	10.55	19.54
12/02/2020 17:42:55	120220	12022020	174255	90.91	12.418755	-56.837312	90.89	1.000	-0.950	1.240	90.90	-2.10	1.70	 	 	 	 	 	 	 	 	 	 	 	 	 	 	 	 	 	 	1581529375	8.55	15.83
12/02/2020 17:42:56	120220	12022020	174256	90.97	12.418753	-56.837282	91.00	-0.260	1.400	1.570	91.02	0.20	2.00	 	 	 	 	 	 	 	 	 	 	 	 	 	 	 	 	 	 	1581529376	6.15	11.39
12/02/2020 17:42:57	120220	12022020	174257	91.28	12.418752	-56.837255	91.31	-1.360	2.490	1.380	91.34	1.00	1.70	 	 	 	 	 	 	 	 	 	 	 	 	 	 	 	 	 	 	1581529377	5.84	10.82
12/02/2020 17:42:58	120220	12022020	174258	91.51	12.418753	-56.837217	91.47	-1.150	1.000	1.010	91.52	-0.70	1.40	 	 	 	 	 	 	 	 	 	 	 	 	 	 	 	 	 	 	1581529378	7.91	14.65
12/02/2020 17:42:59	120220	12022020	174259	91.42	12.418753	-56.837168	91.36	0.130	-1.630	0.980	91.40	-3.30	1.40	 	 	 	 	 	 	 	 	 	 	 	 	 	 	 	 	 	 	1581529379	10.36	19.19
12/02/2020 17:43:00	120220	12022020	174300	91.43	12.418755	-56.837120	91.44	1.020	-2.590	1.090	91.46	-3.90	1.50	 	 	 	 	 	 	 	 	 	 	 	 	 	 	 	 	 	 	1581529380	10.29	19.06
12/02/2020 17:43:01	120220	12022020	174301	91.63	12.418755	-56.837083	91.68	0.650	-1.220	1.110	91.68	-2.40	1.50	 	 	 	 	 	 	 	 	 	 	 	 	 	 	 	 	 	 	1581529381	7.76	14.37
12/02/2020 17:43:02	120220	12022020	174302	91.81	12.418755	-56.837055	91.80	-0.450	0.860	1.000	91.81	-0.30	1.40	1015.40	26.50	26.60	20.10	20.20	858.0	67.0	67.0	391.0	28.6	346.00	15.90	73.00	11.80	61846	20000.0	27.4	27.3	1581529382	5.83	10.80
12/02/2020 17:43:03	120220	12022020	174303	91.76	12.418755	-56.837027	91.74	-1.080	1.610	0.890	91.75	0.10	1.30	 	 	 	 	 	 	 	 	 	 	 	 	 	 	 	 	 	 	1581529383	6.15	11.39
12/02/2020 17:43:04	120220	12022020	174304	91.74	12.418755	-56.836988	91.70	-0.600	0.380	0.670	91.73	-1.30	1.10	 	 	 	 	 	 	 	 	 	 	 	 	 	 	 	 	 	 	1581529384	8.18	15.15
12/02/2020 17:43:05	120220	12022020	174305	91.72	12.418757	-56.836940	91.69	0.580	-1.530	0.500	91.71	-3.10	0.90	 	 	 	 	 	 	 	 	 	 	 	 	 	 	 	 	 	 	1581529385	10.01	18.54
12/02/2020 17:43:06	120220	12022020	174306	91.70	12.418758	-56.836895	91.68	1.250	-1.920	0.340	91.70	-3.20	0.80	 	 	 	 	 	 	 	 	 	 	 	 	 	 	 	 	 	 	1581529386	9.76	18.08
12/02/2020 17:43:07	120220	12022020	174307	91.71	12.418760	-56.836858	91.71	0.690	-0.390	0.640	91.73	-1.50	1.10	 	 	 	 	 	 	 	 	 	 	 	 	 	 	 	 	 	 	1581529387	7.56	14.00
12/02/2020 17:43:08	120220	12022020	174308	91.85	12.418758	-56.836832	91.87	-0.600	1.460	1.280	91.90	0.20	1.80	 	 	 	 	 	 	 	 	 	 	 	 	 	 	 	 	 	 	1581529388	5.83	10.80
12/02/2020 17:43:09	120220	12022020	174309	92.09	12.418753	-56.836802	92.12	-1.360	1.750	1.540	92.14	0.20	1.90	 	 	 	 	 	 	 	 	 	 	 	 	 	 	 	 	 	 	1581529389	6.37	11.80
12/02/2020 17:43:10	120220	12022020	174310	92.15	12.418750	-56.836762	92.10	-0.820	0.090	1.570	92.10	-1.60	2.00	 	 	 	 	 	 	 	 	 	 	 	 	 	 	 	 	 	 	1581529390	8.47	15.69
12/02/2020 17:43:11	120220	12022020	174311	91.79	12.418748	-56.836715	91.70	0.320	-1.610	1.740	91.71	-3.10	2.20	 	 	 	 	 	 	 	 	 	 	 	 	 	 	 	 	 	 	1581529391	9.91	18.35
12/02/2020 17:43:12	120220	12022020	174312	91.52	12.418748	-56.836672	91.49	0.900	-1.680	1.750	91.49	-3.00	2.20	 	 	 	 	 	 	 	 	 	 	 	 	 	 	 	 	 	 	1581529392	8.98	16.63
12/02/2020 17:43:13	120220	12022020	174313	91.48	12.418748	-56.836638	91.49	0.540	-0.390	1.700	91.49	-1.60	2.10	 	 	 	 	 	 	 	 	 	 	 	 	 	 	 	 	 	 	1581529393	7.05	13.06
12/02/2020 17:43:14	120220	12022020	174314	91.52	12.418750	-56.836608	91.50	-0.090	0.630	1.630	91.52	-0.90	2.10	 	 	 	 	 	 	 	 	 	 	 	 	 	 	 	 	 	 	1581529394	6.34	11.74
12/02/2020 17:43:15	120220	12022020	174315	91.51	12.418750	-56.836573	91.47	-0.230	0.450	1.360	91.50	-1.10	1.80	 	 	 	 	 	 	 	 	 	 	 	 	 	 	 	 	 	 	1581529395	7.38	13.67
12/02/2020 17:43:16	120220	12022020	174316	91.47	12.418752	-56.836532	91.42	0.170	-0.510	1.100	91.47	-1.70	1.60	 	 	 	 	 	 	 	 	 	 	 	 	 	 	 	 	 	 	1581529396	8.73	16.17
12/02/2020 17:43:17	120220	12022020	174317	91.30	12.418752	-56.836490	91.22	0.510	-0.950	1.250	91.26	-2.30	1.70	 	 	 	 	 	 	 	 	 	 	 	 	 	 	 	 	 	 	1581529397	9.02	16.71
12/02/2020 17:43:18	120220	12022020	174318	91.10	12.418752	-56.836452	91.05	0.290	-0.280	1.390	91.08	-1.60	1.80	 	 	 	 	 	 	 	 	 	 	 	 	 	 	 	 	 	 	1581529398	7.91	14.65
12/02/2020 17:43:19	120220	12022020	174319	91.01	12.418752	-56.836420	90.95	-0.240	0.560	1.260	90.99	-0.80	1.70	 	 	 	 	 	 	 	 	 	 	 	 	 	 	 	 	 	 	1581529399	6.88	12.74
12/02/2020 17:43:20	120220	12022020	174320	90.87	12.418753	-56.836385	90.79	-0.470	0.370	1.140	90.83	-1.10	1.60	 	 	 	 	 	 	 	 	 	 	 	 	 	 	 	 	 	 	1581529400	7.38	13.67
12/02/2020 17:43:21	120220	12022020	174321	90.71	12.418753	-56.836343	90.68	-0.180	-0.700	1.110	90.71	-2.20	1.50	 	 	 	 	 	 	 	 	 	 	 	 	 	 	 	 	 	 	1581529401	8.77	16.24
12/02/2020 17:43:22	120220	12022020	174322	90.80	12.418755	-56.836300	90.83	0.200	-1.280	1.110	90.85	-2.70	1.50	 	 	 	 	 	 	 	 	 	 	 	 	 	 	 	 	 	 	1581529402	9.22	17.08
12/02/2020 17:43:23	120220	12022020	174323	91.01	12.418753	-56.836262	91.04	0.200	-0.520	1.180	91.03	-1.80	1.60	 	 	 	 	 	 	 	 	 	 	 	 	 	 	 	 	 	 	1581529403	8.04	14.89
12/02/2020 17:43:24	120220	12022020	174324	90.98	12.418753	-56.836230	90.92	-0.120	0.680	1.410	90.92	-0.60	1.90	 	 	 	 	 	 	 	 	 	 	 	 	 	 	 	 	 	 	1581529404	6.69	12.39
12/02/2020 17:43:25	120220	12022020	174325	90.65	12.418752	-56.836197	90.59	-0.250	0.780	1.590	90.59	-0.70	2.00	 	 	 	 	 	 	 	 	 	 	 	 	 	 	 	 	 	 	1581529405	6.99	12.95
12/02/2020 17:43:26	120220	12022020	174326	90.48	12.418753	-56.836157	90.50	0.150	-0.460	1.390	90.48	-1.50	1.90	 	 	 	 	 	 	 	 	 	 	 	 	 	 	 	 	 	 	1581529406	8.68	16.08
12/02/2020 17:43:27	120220	12022020	174327	90.68	12.418757	-56.836112	90.74	0.570	-1.370	1.100	90.74	-2.80	1.50	 	 	 	 	 	 	 	 	 	 	 	 	 	 	 	 	 	 	1581529407	9.56	17.71
12/02/2020 17:43:28	120220	12022020	174328	90.97	12.418758	-56.836072	91.00	0.430	-0.740	0.880	90.97	-2.40	1.40	 	 	 	 	 	 	 	 	 	 	 	 	 	 	 	 	 	 	1581529408	8.26	15.30
12/02/2020 17:43:29	120220	12022020	174329	90.99	12.418760	-56.836040	90.94	-0.130	0.570	0.930	90.95	-0.70	1.40	 	 	 	 	 	 	 	 	 	 	 	 	 	 	 	 	 	 	1581529409	6.59	12.20
12/02/2020 17:43:30	120220	12022020	174330	90.76	12.418762	-56.836010	90.69	-0.410	0.850	1.160	90.72	-0.70	1.60	 	 	 	 	 	 	 	 	 	 	 	 	 	 	 	 	 	 	1581529410	6.67	12.35
12/02/2020 17:43:31	120220	12022020	174331	90.64	12.418763	-56.835970	90.60	-0.010	-0.400	1.070	90.64	-2.00	1.50	 	 	 	 	 	 	 	 	 	 	 	 	 	 	 	 	 	 	1581529411	8.43	15.61
12/02/2020 17:43:32	120220	12022020	174332	90.66	12.418767	-56.835923	90.64	0.480	-1.500	0.890	90.67	-2.90	1.30	 	 	 	 	 	 	 	 	 	 	 	 	 	 	 	 	 	 	1581529412	9.68	17.93
12/02/2020 17:43:33	120220	12022020	174333	90.70	12.418767	-56.835883	90.69	0.330	-1.000	0.990	90.71	-2.20	1.40	 	 	 	 	 	 	 	 	 	 	 	 	 	 	 	 	 	 	1581529413	8.55	15.83
12/02/2020 17:43:34	120220	12022020	174334	90.78	12.418767	-56.835852	90.76	-0.420	0.450	1.140	90.79	-0.80	1.60	 	 	 	 	 	 	 	 	 	 	 	 	 	 	 	 	 	 	1581529414	6.71	12.43
12/02/2020 17:43:35	120220	12022020	174335	90.84	12.418768	-56.835822	90.82	-1.030	1.160	1.260	90.85	-0.30	1.70	 	 	 	 	 	 	 	 	 	 	 	 	 	 	 	 	 	 	1581529415	6.43	11.91
12/02/2020 17:43:36	120220	12022020	174336	90.88	12.418767	-56.835783	90.87	-0.870	0.390	1.390	90.89	-1.20	1.80	 	 	 	 	 	 	 	 	 	 	 	 	 	 	 	 	 	 	1581529416	7.82	14.48
12/02/2020 17:43:37	120220	12022020	174337	90.95	12.418767	-56.835740	90.95	-0.060	-0.930	1.330	90.96	-2.40	1.70	 	 	 	 	 	 	 	 	 	 	 	 	 	 	 	 	 	 	1581529417	9.17	16.98
12/02/2020 17:43:38	120220	12022020	174338	91.03	12.418767	-56.835697	91.04	0.750	-1.490	1.100	91.05	-2.90	1.50	 	 	 	 	 	 	 	 	 	 	 	 	 	 	 	 	 	 	1581529418	9.16	16.96
12/02/2020 17:43:39	120220	12022020	174339	91.10	12.418768	-56.835660	91.10	0.970	-0.800	0.940	91.10	-2.10	1.40	 	 	 	 	 	 	 	 	 	 	 	 	 	 	 	 	 	 	1581529419	8.03	14.87
12/02/2020 17:43:40	120220	12022020	174340	91.09	12.418772	-56.835627	91.06	0.550	0.480	0.820	91.09	-1.20	1.30	 	 	 	 	 	 	 	 	 	 	 	 	 	 	 	 	 	 	1581529420	6.84	12.67
12/02/2020 17:43:41	120220	12022020	174341	91.05	12.418777	-56.835595	91.01	-0.090	1.140	0.540	91.04	-0.30	0.90	 	 	 	 	 	 	 	 	 	 	 	 	 	 	 	 	 	 	1581529421	6.73	12.46
12/02/2020 17:43:42	120220	12022020	174342	90.94	12.418782	-56.835560	90.86	-0.390	0.440	0.380	90.94	-0.70	0.80	 	 	 	 	 	 	 	 	 	 	 	 	 	 	 	 	 	 	1581529422	7.83	14.50
12/02/2020 17:43:43	120220	12022020	174343	90.71	12.418785	-56.835517	90.65	-0.220	-0.880	0.610	90.69	-2.40	1.10	 	 	 	 	 	 	 	 	 	 	 	 	 	 	 	 	 	 	1581529423	9.10	16.85
12/02/2020 17:43:44	120220	12022020	174344	90.71	12.418785	-56.835473	90.72	0.070	-1.470	0.860	90.76	-2.80	1.30	 	 	 	 	 	 	 	 	 	 	 	 	 	 	 	 	 	 	1581529424	9.08	16.82
12/02/2020 17:43:45	120220	12022020	174345	91.10	12.418785	-56.835435	91.18	0.120	-1.050	0.920	91.20	-2.30	1.40	 	 	 	 	 	 	 	 	 	 	 	 	 	 	 	 	 	 	1581529425	8.12	15.04
12/02/2020 17:43:46	120220	12022020	174346	91.57	12.418783	-56.835400	91.63	-0.170	-0.190	1.020	91.65	-1.50	1.50	 	 	 	 	 	 	 	 	 	 	 	 	 	 	 	 	 	 	1581529426	7.35	13.61
12/02/2020 17:43:47	120220	12022020	174347	91.85	12.418782	-56.835367	91.85	-0.520	0.460	1.220	91.86	-0.90	1.70	 	 	 	 	 	 	 	 	 	 	 	 	 	 	 	 	 	 	1581529427	7.23	13.39
12/02/2020 17:43:48	120220	12022020	174348	91.76	12.418777	-56.835330	91.71	-0.510	0.410	1.520	91.70	-1.00	2.00	 	 	 	 	 	 	 	 	 	 	 	 	 	 	 	 	 	 	1581529428	7.74	14.33
12/02/2020 17:43:49	120220	12022020	174349	91.37	12.418775	-56.835290	91.29	-0.030	-0.250	1.680	91.29	-1.70	2.10	 	 	 	 	 	 	 	 	 	 	 	 	 	 	 	 	 	 	1581529429	8.56	15.85
12/02/2020 17:43:50	120220	12022020	174350	91.05	12.418777	-56.835247	91.01	0.490	-0.720	1.220	91.03	-2.10	1.50	 	 	 	 	 	 	 	 	 	 	 	 	 	 	 	 	 	 	1581529430	9.03	16.72
12/02/2020 17:43:51	120220	12022020	174351	91.15	12.418785	-56.835207	91.18	0.450	-0.240	0.380	91.23	-1.50	0.70	 	 	 	 	 	 	 	 	 	 	 	 	 	 	 	 	 	 	1581529431	8.43	15.61
12/02/2020 17:43:52	120220	12022020	174352	91.69	12.418793	-56.835173	91.73	-0.160	0.700	-0.240	91.82	-0.60	0.10	 	 	 	 	 	 	 	 	 	 	 	 	 	 	 	 	 	 	1581529432	7.28	13.48
12/02/2020 17:43:53	120220	12022020	174353	92.30	12.418797	-56.835142	92.28	-0.690	0.840	-0.290	92.38	-0.60	0.20	 	 	 	 	 	 	 	 	 	 	 	 	 	 	 	 	 	 	1581529433	6.96	12.89
12/02/2020 17:43:54	120220	12022020	174354	92.52	12.418793	-56.835102	92.42	-0.380	-0.560	0.280	92.52	-1.50	0.50	 	 	 	 	 	 	 	 	 	 	 	 	 	 	 	 	 	 	1581529434	8.26	15.30
12/02/2020 17:43:55	120220	12022020	174355	92.20	12.418788	-56.835055	92.07	0.680	-2.410	1.130	92.10	-3.90	1.60	 	 	 	 	 	 	 	 	 	 	 	 	 	 	 	 	 	 	1581529435	10.02	18.56
12/02/2020 17:43:56	120220	12022020	174356	91.70	12.418785	-56.835008	91.63	1.440	-2.470	1.660	91.64	-3.60	2.10	 	 	 	 	 	 	 	 	 	 	 	 	 	 	 	 	 	 	1581529436	9.78	18.11
12/02/2020 17:43:57	120220	12022020	174357	91.63	12.418787	-56.834973	91.68	0.960	-0.280	1.660	91.69	-1.30	2.10	 	 	 	 	 	 	 	 	 	 	 	 	 	 	 	 	 	 	1581529437	7.41	13.72
12/02/2020 17:43:58	120220	12022020	174358	92.08	12.418788	-56.834947	92.15	-0.480	2.080	1.360	92.20	0.90	1.70	 	 	 	 	 	 	 	 	 	 	 	 	 	 	 	 	 	 	1581529438	5.63	10.43
12/02/2020 17:43:59	120220	12022020	174359	92.57	12.418788	-56.834918	92.59	-1.700	2.630	1.090	92.63	1.10	1.50	 	 	 	 	 	 	 	 	 	 	 	 	 	 	 	 	 	 	1581529439	6.20	11.48
12/02/2020 17:44:00	120220	12022020	174400	92.85	12.418788	-56.834880	92.86	-1.810	1.250	0.920	92.89	-0.40	1.30	 	 	 	 	 	 	 	 	 	 	 	 	 	 	 	 	 	 	1581529440	8.15	15.09
12/02/2020 17:44:01	120220	12022020	174401	93.06	12.418785	-56.834835	93.05	-0.890	-0.770	0.750	93.09	-2.40	1.10	 	 	 	 	 	 	 	 	 	 	 	 	 	 	 	 	 	 	1581529441	9.38	17.37
12/02/2020 17:44:02	120220	12022020	174402	93.09	12.418783	-56.834790	93.01	0.480	-2.470	0.700	93.03	-4.00	1.10	1015.40	26.60	26.70	20.00	20.10	855.0	67.0	67.0	391.0	28.6	345.00	16.10	72.00	12.10	61567	9550.0	27.4	27.3	1581529442	9.61	17.80
12/02/2020 17:44:03	120220	12022020	174403	92.62	12.418783	-56.834747	92.49	1.510	-2.920	0.920	92.49	-4.20	1.40	 	 	 	 	 	 	 	 	 	 	 	 	 	 	 	 	 	 	1581529443	9.26	17.15
12/02/2020 17:44:04	120220	12022020	174404	92.09	12.418785	-56.834708	92.05	1.570	-1.610	0.990	92.09	-3.40	1.40	 	 	 	 	 	 	 	 	 	 	 	 	 	 	 	 	 	 	1581529444	8.06	14.93
12/02/2020 17:44:05	120220	12022020	174405	92.10	12.418788	-56.834677	92.16	0.730	0.540	0.870	92.19	-0.60	1.30	 	 	 	 	 	 	 	 	 	 	 	 	 	 	 	 	 	 	1581529445	6.65	12.32
12/02/2020 17:44:06	120220	12022020	174406	92.66	12.418790	-56.834647	92.75	-0.330	2.020	0.710	92.66	0.40	1.20	 	 	 	 	 	 	 	 	 	 	 	 	 	 	 	 	 	 	1581529446	6.38	11.82
12/02/2020 17:44:07	120220	12022020	174407	93.16	12.418788	-56.834612	93.16	-0.950	1.950	0.680	93.21	0.40	1.10	 	 	 	 	 	 	 	 	 	 	 	 	 	 	 	 	 	 	1581529447	7.40	13.70
12/02/2020 17:44:08	120220	12022020	174408	93.25	12.418787	-56.834570	93.18	-1.010	0.840	0.830	93.22	-0.70	1.30	 	 	 	 	 	 	 	 	 	 	 	 	 	 	 	 	 	 	1581529448	8.64	16.00
12/02/2020 17:44:09	120220	12022020	174409	92.99	12.418783	-56.834528	92.89	-0.660	-0.450	1.200	92.92	-2.00	1.70	 	 	 	 	 	 	 	 	 	 	 	 	 	 	 	 	 	 	1581529449	8.91	16.50
12/02/2020 17:44:10	120220	12022020	174410	92.62	12.418782	-56.834487	92.54	0.090	-1.780	1.450	92.57	-3.30	1.90	 	 	 	 	 	 	 	 	 	 	 	 	 	 	 	 	 	 	1581529450	8.97	16.61
12/02/2020 17:44:11	120220	12022020	174411	92.57	12.418783	-56.834442	92.57	0.910	-2.500	1.220	92.60	-3.90	1.60	 	 	 	 	 	 	 	 	 	 	 	 	 	 	 	 	 	 	1581529451	9.24	17.11
12/02/2020 17:44:12	120220	12022020	174412	92.73	12.418783	-56.834402	92.73	1.120	-1.760	1.130	92.74	-3.00	1.60	 	 	 	 	 	 	 	 	 	 	 	 	 	 	 	 	 	 	1581529452	8.49	15.72
12/02/2020 17:44:13	120220	12022020	174413	92.59	12.418782	-56.834368	92.52	0.500	0.020	1.390	92.51	-1.10	1.80	 	 	 	 	 	 	 	 	 	 	 	 	 	 	 	 	 	 	1581529453	7.11	13.17
12/02/2020 17:44:14	120220	12022020	174414	92.13	12.418778	-56.834338	92.03	-0.370	1.650	1.580	92.04	0.40	2.00	 	 	 	 	 	 	 	 	 	 	 	 	 	 	 	 	 	 	1581529454	6.49	12.02
12/02/2020 17:44:15	120220	12022020	174415	91.82	12.418780	-56.834305	91.80	-0.800	1.930	1.250	91.81	0.50	1.60	 	 	 	 	 	 	 	 	 	 	 	 	 	 	 	 	 	 	1581529455	7.06	13.08
12/02/2020 17:44:16	120220	12022020	174416	91.90	12.418783	-56.834263	91.97	-0.630	0.660	0.640	91.96	-0.40	1.20	 	 	 	 	 	 	 	 	 	 	 	 	 	 	 	 	 	 	1581529456	8.65	16.02
12/02/2020 17:44:17	120220	12022020	174417	92.25	12.418787	-56.834218	92.21	-0.270	-0.870	0.170	92.28	-2.40	0.60	 	 	 	 	 	 	 	 	 	 	 	 	 	 	 	 	 	 	1581529457	9.56	17.71
12/02/2020 17:44:18	120220	12022020	174418	92.21	12.418788	-56.834177	92.11	0.050	-1.560	0.380	92.21	-2.90	0.70	 	 	 	 	 	 	 	 	 	 	 	 	 	 	 	 	 	 	1581529458	9.06	16.78
12/02/2020 17:44:19	120220	12022020	174419	91.97	12.418787	-56.834138	91.91	0.290	-1.370	1.010	91.94	-2.70	1.50	 	 	 	 	 	 	 	 	 	 	 	 	 	 	 	 	 	 	1581529459	8.15	15.09
12/02/2020 17:44:20	120220	12022020	174420	91.91	12.418783	-56.834102	91.91	0.520	-0.870	1.320	91.91	-2.20	1.70	 	 	 	 	 	 	 	 	 	 	 	 	 	 	 	 	 	 	1581529460	7.76	14.37
12/02/2020 17:44:21	120220	12022020	174421	91.91	12.418783	-56.834063	91.90	0.680	-0.410	1.310	91.91	-1.70	1.70	 	 	 	 	 	 	 	 	 	 	 	 	 	 	 	 	 	 	1581529461	7.92	14.67
12/02/2020 17:44:22	120220	12022020	174422	91.99	12.418785	-56.834025	92.01	0.570	0.060	1.070	92.03	-1.20	1.50	 	 	 	 	 	 	 	 	 	 	 	 	 	 	 	 	 	 	1581529462	8.12	15.04
12/02/2020 17:44:23	120220	12022020	174423	92.17	12.418788	-56.833987	92.18	0.150	0.540	0.930	92.20	-0.80	1.30	 	 	 	 	 	 	 	 	 	 	 	 	 	 	 	 	 	 	1581529463	7.97	14.76
12/02/2020 17:44:24	120220	12022020	174424	92.29	12.418788	-56.833950	92.27	-0.350	0.760	0.930	92.31	-0.60	1.40	 	 	 	 	 	 	 	 	 	 	 	 	 	 	 	 	 	 	1581529464	7.85	14.54
12/02/2020 17:44:25	120220	12022020	174425	92.37	12.418788	-56.833912	92.33	-0.570	0.410	0.950	92.37	-1.00	1.40	 	 	 	 	 	 	 	 	 	 	 	 	 	 	 	 	 	 	1581529465	8.15	15.09
12/02/2020 17:44:26	120220	12022020	174426	92.31	12.418790	-56.833870	92.26	-0.440	-0.420	1.150	92.29	-1.90	1.60	 	 	 	 	 	 	 	 	 	 	 	 	 	 	 	 	 	 	1581529466	8.80	16.30
12/02/2020 17:44:27	120220	12022020	174427	92.37	12.418790	-56.833828	92.40	-0.270	-0.940	1.240	92.43	-2.30	1.70	 	 	 	 	 	 	 	 	 	 	 	 	 	 	 	 	 	 	1581529467	8.96	16.59
12/02/2020 17:44:28	120220	12022020	174428	92.76	12.418788	-56.833788	92.82	-0.210	-0.880	1.160	92.85	-2.20	1.60	 	 	 	 	 	 	 	 	 	 	 	 	 	 	 	 	 	 	1581529468	8.30	15.37
12/02/2020 17:44:29	120220	12022020	174429	93.12	12.418787	-56.833752	93.12	-0.030	-0.680	1.200	93.14	-2.00	1.60	 	 	 	 	 	 	 	 	 	 	 	 	 	 	 	 	 	 	1581529469	7.96	14.74
12/02/2020 17:44:30	120220	12022020	174430	93.03	12.418783	-56.833712	92.94	0.470	-0.660	1.370	93.03	-2.00	1.80	 	 	 	 	 	 	 	 	 	 	 	 	 	 	 	 	 	 	1581529470	8.29	15.35
12/02/2020 17:44:31	120220	12022020	174431	92.77	12.418783	-56.833670	92.71	0.950	-0.650	1.060	92.76	-2.00	1.40	 	 	 	 	 	 	 	 	 	 	 	 	 	 	 	 	 	 	1581529471	8.80	16.30
12/02/2020 17:44:32	120220	12022020	174432	92.82	12.418788	-56.833630	92.81	0.830	-0.100	0.630	92.82	-1.70	1.10	 	 	 	 	 	 	 	 	 	 	 	 	 	 	 	 	 	 	1581529472	8.69	16.09
12/02/2020 17:44:33	120220	12022020	174433	93.09	12.418792	-56.833593	93.08	0.010	0.860	0.380	93.15	-0.50	0.80	 	 	 	 	 	 	 	 	 	 	 	 	 	 	 	 	 	 	1581529473	7.76	14.37
12/02/2020 17:44:34	120220	12022020	174434	93.41	12.418795	-56.833558	93.38	-0.860	1.260	0.140	93.47	-0.20	0.60	 	 	 	 	 	 	 	 	 	 	 	 	 	 	 	 	 	 	1581529474	7.39	13.69
12/02/2020 17:44:35	120220	12022020	174435	93.60	12.418795	-56.833518	93.53	-1.070	0.510	0.270	93.61	-1.10	0.80	 	 	 	 	 	 	 	 	 	 	 	 	 	 	 	 	 	 	1581529475	8.20	15.19
12/02/2020 17:44:36	120220	12022020	174436	93.54	12.418790	-56.833475	93.46	-0.580	-0.850	0.800	93.52	-2.40	1.30	 	 	 	 	 	 	 	 	 	 	 	 	 	 	 	 	 	 	1581529476	9.28	17.19
12/02/2020 17:44:37	120220	12022020	174437	93.41	12.418785	-56.833430	93.33	0.190	-1.870	0.980	93.38	-3.30	1.40	 	 	 	 	 	 	 	 	 	 	 	 	 	 	 	 	 	 	1581529477	9.54	17.67
12/02/2020 17:44:38	120220	12022020	174438	93.22	12.418783	-56.833388	93.15	0.770	-1.900	1.010	93.16	-3.20	1.40	 	 	 	 	 	 	 	 	 	 	 	 	 	 	 	 	 	 	1581529478	9.07	16.80
12/02/2020 17:44:39	120220	12022020	174439	92.93	12.418783	-56.833348	92.89	0.780	-0.860	1.130	92.89	-2.10	1.50	 	 	 	 	 	 	 	 	 	 	 	 	 	 	 	 	 	 	1581529479	8.22	15.22
12/02/2020 17:44:40	120220	12022020	174440	92.81	12.418783	-56.833313	92.79	0.140	0.650	0.970	92.81	-0.60	1.40	 	 	 	 	 	 	 	 	 	 	 	 	 	 	 	 	 	 	1581529480	7.37	13.65
12/02/2020 17:44:41	120220	12022020	174441	92.86	12.418783	-56.833280	92.84	-0.650	1.600	0.690	92.88	0.20	1.10	 	 	 	 	 	 	 	 	 	 	 	 	 	 	 	 	 	 	1581529481	7.19	13.32
12/02/2020 17:44:42	120220	12022020	174442	92.96	12.418785	-56.833243	92.92	-0.900	1.330	0.560	92.97	-0.20	1.00	 	 	 	 	 	 	 	 	 	 	 	 	 	 	 	 	 	 	1581529482	7.89	14.61
12/02/2020 17:44:43	120220	12022020	174443	92.93	12.418785	-56.833200	92.84	-0.390	-0.160	0.520	92.90	-1.80	1.00	 	 	 	 	 	 	 	 	 	 	 	 	 	 	 	 	 	 	1581529483	9.11	16.87
12/02/2020 17:44:44	120220	12022020	174444	92.65	12.418783	-56.833152	92.55	0.520	-1.940	0.760	92.58	-3.50	1.20	 	 	 	 	 	 	 	 	 	 	 	 	 	 	 	 	 	 	1581529484	10.23	18.95
12/02/2020 17:44:45	120220	12022020	174445	92.37	12.418783	-56.833105	92.35	0.940	-2.090	1.130	92.36	-3.30	1.60	 	 	 	 	 	 	 	 	 	 	 	 	 	 	 	 	 	 	1581529485	9.85	18.24
12/02/2020 17:44:46	120220	12022020	174446	92.49	12.418782	-56.833068	92.57	0.410	-0.310	1.360	92.56	-1.40	1.80	 	 	 	 	 	 	 	 	 	 	 	 	 	 	 	 	 	 	1581529486	7.59	14.06
12/02/2020 17:44:47	120220	12022020	174447	92.97	12.418782	-56.833040	93.05	-0.590	1.450	1.460	93.07	0.10	1.90	 	 	 	 	 	 	 	 	 	 	 	 	 	 	 	 	 	 	1581529487	6.17	11.43
12/02/2020 17:44:48	120220	12022020	174448	93.29	12.418778	-56.833005	93.29	-1.070	1.380	1.650	93.28	-0.20	2.10	 	 	 	 	 	 	 	 	 	 	 	 	 	 	 	 	 	 	1581529488	7.17	13.28
12/02/2020 17:44:49	120220	12022020	174449	93.05	12.418773	-56.832962	92.96	-0.560	-0.300	1.840	92.96	-1.90	2.30	 	 	 	 	 	 	 	 	 	 	 	 	 	 	 	 	 	 	1581529489	9.30	17.22
12/02/2020 17:44:50	120220	12022020	174450	92.54	12.418770	-56.832913	92.44	0.480	-1.950	1.870	92.44	-3.50	2.30	 	 	 	 	 	 	 	 	 	 	 	 	 	 	 	 	 	 	1581529490	10.39	19.24
12/02/2020 17:44:51	120220	12022020	174451	92.20	12.418772	-56.832867	92.18	1.230	-2.080	1.550	92.21	-3.40	1.90	 	 	 	 	 	 	 	 	 	 	 	 	 	 	 	 	 	 	1581529491	9.84	18.22
12/02/2020 17:44:52	120220	12022020	174452	92.45	12.418777	-56.832828	92.52	0.990	-0.490	1.010	92.55	-1.70	1.40	 	 	 	 	 	 	 	 	 	 	 	 	 	 	 	 	 	 	1581529492	8.12	15.04
12/02/2020 17:44:53	120220	12022020	174453	92.93	12.418780	-56.832797	92.95	-0.050	1.280	0.850	93.00	-0.00	1.30	 	 	 	 	 	 	 	 	 	 	 	 	 	 	 	 	 	 	1581529493	6.69	12.39
12/02/2020 17:44:54	120220	12022020	174454	93.10	12.418778	-56.832763	93.07	-1.000	1.720	1.230	93.10	0.30	1.60	 	 	 	 	 	 	 	 	 	 	 	 	 	 	 	 	 	 	1581529494	7.09	13.13
12/02/2020 17:44:55	120220	12022020	174455	93.06	12.418775	-56.832723	93.02	-1.120	0.680	1.540	93.05	-0.90	2.00	 	 	 	 	 	 	 	 	 	 	 	 	 	 	 	 	 	 	1581529495	8.59	15.91
12/02/2020 17:44:56	120220	12022020	174456	92.98	12.418772	-56.832677	92.93	-0.460	-0.900	1.690	92.98	-1.90	2.10	 	 	 	 	 	 	 	 	 	 	 	 	 	 	 	 	 	 	1581529496	9.70	17.96
12/02/2020 17:44:57	120220	12022020	174457	92.81	12.418768	-56.832630	92.75	0.360	-1.930	1.690	92.76	-3.40	2.10	 	 	 	 	 	 	 	 	 	 	 	 	 	 	 	 	 	 	1581529497	9.87	18.28
12/02/2020 17:44:58	120220	12022020	174458	92.54	12.418768	-56.832588	92.47	0.710	-1.690	1.400	92.49	-3.00	1.80	 	 	 	 	 	 	 	 	 	 	 	 	 	 	 	 	 	 	1581529498	9.05	16.76
12/02/2020 17:44:59	120220	12022020	174459	92.35	12.418770	-56.832550	92.30	0.450	-0.430	1.110	92.34	-1.70	1.50	 	 	 	 	 	 	 	 	 	 	 	 	 	 	 	 	 	 	1581529499	7.85	14.54
12/02/2020 17:45:00	120220	12022020	174500	92.36	12.418773	-56.832517	92.33	-0.070	0.880	0.810	92.38	-0.40	1.20	 	 	 	 	 	 	 	 	 	 	 	 	 	 	 	 	 	 	1581529500	7.21	13.35
12/02/2020 17:45:01	120220	12022020	174501	92.53	12.418775	-56.832482	92.51	-0.460	1.280	0.390	92.58	-0.20	0.80	 	 	 	 	 	 	 	 	 	 	 	 	 	 	 	 	 	 	1581529501	7.54	13.96
12/02/2020 17:45:02	120220	12022020	174502	92.67	12.418777	-56.832440	92.59	-0.370	0.390	0.220	92.65	-1.20	0.70	1015.30	26.60	26.60	19.80	19.90	853.0	66.0	66.0	390.0	28.5	347.00	16.30	74.00	12.10	61595	16936.0	27.4	27.4	1581529502	8.63	15.98
12/02/2020 17:45:03	120220	12022020	174503	92.45	12.418775	-56.832393	92.32	0.160	-1.100	0.580	92.37	-2.70	1.10	 	 	 	 	 	 	 	 	 	 	 	 	 	 	 	 	 	 	1581529503	9.84	18.22
12/02/2020 17:45:04	120220	12022020	174504	92.12	12.418773	-56.832347	92.06	0.580	-1.740	1.020	92.08	-3.10	1.50	 	 	 	 	 	 	 	 	 	 	 	 	 	 	 	 	 	 	1581529504	9.92	18.37
12/02/2020 17:45:05	120220	12022020	174505	92.03	12.418772	-56.832307	92.04	0.430	-0.890	1.330	92.05	-2.10	1.80	 	 	 	 	 	 	 	 	 	 	 	 	 	 	 	 	 	 	1581529505	8.52	15.78
12/02/2020 17:45:06	120220	12022020	174506	92.21	12.418772	-56.832272	92.25	-0.160	0.460	1.510	92.21	-1.20	1.90	 	 	 	 	 	 	 	 	 	 	 	 	 	 	 	 	 	 	1581529506	7.21	13.35
12/02/2020 17:45:07	120220	12022020	174507	92.41	12.418770	-56.832237	92.42	-0.640	0.900	1.500	92.43	-0.60	1.90	 	 	 	 	 	 	 	 	 	 	 	 	 	 	 	 	 	 	1581529507	7.45	13.80
12/02/2020 17:45:08	120220	12022020	174508	92.42	12.418768	-56.832195	92.38	-0.650	0.160	1.410	92.42	-1.00	1.80	 	 	 	 	 	 	 	 	 	 	 	 	 	 	 	 	 	 	1581529508	8.81	16.32
12/02/2020 17:45:09	120220	12022020	174509	92.20	12.418765	-56.832150	92.13	-0.220	-0.730	1.480	92.15	-2.20	1.90	 	 	 	 	 	 	 	 	 	 	 	 	 	 	 	 	 	 	1581529509	9.60	17.78
12/02/2020 17:45:10	120220	12022020	174510	91.95	12.418765	-56.832107	91.91	0.340	-0.960	1.250	91.93	-2.30	1.60	 	 	 	 	 	 	 	 	 	 	 	 	 	 	 	 	 	 	1581529510	9.30	17.22
12/02/2020 17:45:11	120220	12022020	174511	91.99	12.418768	-56.832065	92.00	0.550	-0.410	0.640	92.03	-1.70	1.00	 	 	 	 	 	 	 	 	 	 	 	 	 	 	 	 	 	 	1581529511	8.58	15.89
12/02/2020 17:45:12	120220	12022020	174512	92.27	12.418773	-56.832030	92.26	0.160	0.430	0.270	92.32	-0.90	0.70	 	 	 	 	 	 	 	 	 	 	 	 	 	 	 	 	 	 	1581529512	7.80	14.45
12/02/2020 17:45:13	120220	12022020	174513	92.43	12.418775	-56.831993	92.36	-0.390	0.560	0.320	92.42	-0.90	0.80	 	 	 	 	 	 	 	 	 	 	 	 	 	 	 	 	 	 	1581529513	7.70	14.26
12/02/2020 17:45:14	120220	12022020	174514	92.24	12.418772	-56.831952	92.13	-0.400	-0.470	0.840	92.16	-2.00	1.40	 	 	 	 	 	 	 	 	 	 	 	 	 	 	 	 	 	 	1581529514	8.89	16.46
12/02/2020 17:45:15	120220	12022020	174515	91.82	12.418767	-56.831903	91.71	0.110	-1.470	1.570	91.73	-2.90	2.00	 	 	 	 	 	 	 	 	 	 	 	 	 	 	 	 	 	 	1581529515	9.95	18.43
12/02/2020 17:45:16	120220	12022020	174516	91.45	12.418765	-56.831860	91.41	0.550	-1.320	1.730	91.41	-2.60	2.10	 	 	 	 	 	 	 	 	 	 	 	 	 	 	 	 	 	 	1581529516	9.35	17.32
12/02/2020 17:45:17	120220	12022020	174517	91.43	12.418765	-56.831820	91.45	0.580	-0.420	1.250	91.47	-1.70	1.60	 	 	 	 	 	 	 	 	 	 	 	 	 	 	 	 	 	 	1581529517	8.28	15.33
12/02/2020 17:45:18	120220	12022020	174518	91.63	12.418768	-56.831783	91.66	0.260	0.430	0.910	91.68	-0.90	1.30	 	 	 	 	 	 	 	 	 	 	 	 	 	 	 	 	 	 	1581529518	8.03	14.87
12/02/2020 17:45:19	120220	12022020	174519	91.87	12.418772	-56.831745	91.88	-0.350	1.010	0.840	91.92	-0.40	1.30	 	 	 	 	 	 	 	 	 	 	 	 	 	 	 	 	 	 	1581529519	8.07	14.95
12/02/2020 17:45:20	120220	12022020	174520	92.01	12.418772	-56.831707	91.96	-0.950	1.020	0.940	92.01	-0.30	1.30	 	 	 	 	 	 	 	 	 	 	 	 	 	 	 	 	 	 	1581529520	8.08	14.96
12/02/2020 17:45:21	120220	12022020	174521	91.89	12.418770	-56.831665	91.81	-0.910	0.000	1.250	91.85	-1.60	1.70	 	 	 	 	 	 	 	 	 	 	 	 	 	 	 	 	 	 	1581529521	8.74	16.19
12/02/2020 17:45:22	120220	12022020	174522	91.65	12.418767	-56.831618	91.59	-0.100	-1.520	1.520	91.65	-2.60	1.90	 	 	 	 	 	 	 	 	 	 	 	 	 	 	 	 	 	 	1581529522	9.87	18.28
12/02/2020 17:45:23	120220	12022020	174523	91.41	12.418765	-56.831572	91.39	0.880	-2.310	1.420	91.38	-3.70	1.80	 	 	 	 	 	 	 	 	 	 	 	 	 	 	 	 	 	 	1581529523	10.11	18.72
12/02/2020 17:45:24	120220	12022020	174524	91.35	12.418768	-56.831528	91.39	1.220	-1.470	0.940	91.35	-3.20	1.50	 	 	 	 	 	 	 	 	 	 	 	 	 	 	 	 	 	 	1581529524	9.10	16.85
12/02/2020 17:45:25	120220	12022020	174525	91.79	12.418773	-56.831493	91.90	0.580	0.640	0.570	91.93	-0.50	1.00	 	 	 	 	 	 	 	 	 	 	 	 	 	 	 	 	 	 	1581529525	7.36	13.63
12/02/2020 17:45:26	120220	12022020	174526	92.48	12.418775	-56.831463	92.51	-0.510	2.090	0.510	92.57	0.70	1.00	 	 	 	 	 	 	 	 	 	 	 	 	 	 	 	 	 	 	1581529526	6.45	11.95
12/02/2020 17:45:27	120220	12022020	174527	92.56	12.418773	-56.831425	92.44	-1.020	1.280	0.930	92.48	-0.40	1.40	 	 	 	 	 	 	 	 	 	 	 	 	 	 	 	 	 	 	1581529527	7.93	14.69
12/02/2020 17:45:28	120220	12022020	174528	92.07	12.418768	-56.831378	91.95	-0.720	-0.760	1.530	91.97	-2.30	2.00	 	 	 	 	 	 	 	 	 	 	 	 	 	 	 	 	 	 	1581529528	10.21	18.91
12/02/2020 17:45:29	120220	12022020	174529	91.74	12.418765	-56.831328	91.73	-0.200	-1.740	1.770	91.74	-3.10	2.20	 	 	 	 	 	 	 	 	 	 	 	 	 	 	 	 	 	 	1581529529	10.26	19.00
12/02/2020 17:45:30	120220	12022020	174530	91.90	12.418765	-56.831288	91.96	0.100	-1.360	1.470	91.97	-2.70	1.80	 	 	 	 	 	 	 	 	 	 	 	 	 	 	 	 	 	 	1581529530	8.67	16.06
12/02/2020 17:45:31	120220	12022020	174531	92.25	12.418767	-56.831250	92.30	0.260	-0.690	1.010	92.30	-2.00	1.40	 	 	 	 	 	 	 	 	 	 	 	 	 	 	 	 	 	 	1581529531	7.93	14.69
12/02/2020 17:45:32	120220	12022020	174532	92.36	12.418767	-56.831212	92.32	0.410	-0.240	0.820	92.33	-1.60	1.30	 	 	 	 	 	 	 	 	 	 	 	 	 	 	 	 	 	 	1581529532	8.28	15.33
12/02/2020 17:45:33	120220	12022020	174533	92.12	12.418767	-56.831172	92.04	0.490	0.070	0.970	92.05	-1.30	1.40	 	 	 	 	 	 	 	 	 	 	 	 	 	 	 	 	 	 	1581529533	8.58	15.89
12/02/2020 17:45:34	120220	12022020	174534	91.83	12.418767	-56.831130	91.78	0.430	0.260	1.020	91.83	-1.20	1.50	 	 	 	 	 	 	 	 	 	 	 	 	 	 	 	 	 	 	1581529534	8.67	16.06
12/02/2020 17:45:35	120220	12022020	174535	91.74	12.418770	-56.831088	91.71	0.180	0.300	0.810	91.74	-1.10	1.20	 	 	 	 	 	 	 	 	 	 	 	 	 	 	 	 	 	 	1581529535	8.75	16.21
12/02/2020 17:45:36	120220	12022020	174536	91.79	12.418773	-56.831047	91.78	-0.220	0.070	0.550	91.81	-1.40	1.00	 	 	 	 	 	 	 	 	 	 	 	 	 	 	 	 	 	 	1581529536	8.83	16.35
12/02/2020 17:45:37	120220	12022020	174537	91.81	12.418773	-56.831005	91.78	-0.640	-0.250	0.820	91.80	-1.70	1.30	 	 	 	 	 	 	 	 	 	 	 	 	 	 	 	 	 	 	1581529537	8.95	16.58
12/02/2020 17:45:38	120220	12022020	174538	91.68	12.418767	-56.830963	91.64	-0.880	-0.140	1.420	91.64	-1.50	1.90	 	 	 	 	 	 	 	 	 	 	 	 	 	 	 	 	 	 	1581529538	8.69	16.09
12/02/2020 17:45:39	120220	12022020	174539	91.48	12.418762	-56.830925	91.42	-0.660	-0.010	1.580	91.43	-1.40	2.00	 	 	 	 	 	 	 	 	 	 	 	 	 	 	 	 	 	 	1581529539	8.16	15.11
12/02/2020 17:45:40	120220	12022020	174540	91.21	12.418760	-56.830885	91.16	0.070	-0.680	1.580	91.15	-2.20	2.00	 	 	 	 	 	 	 	 	 	 	 	 	 	 	 	 	 	 	1581529540	8.73	16.17
12/02/2020 17:45:41	120220	12022020	174541	90.96	12.418760	-56.830838	90.92	0.920	-1.630	1.550	90.91	-3.10	2.00	 	 	 	 	 	 	 	 	 	 	 	 	 	 	 	 	 	 	1581529541	9.85	18.24
12/02/2020 17:45:42	120220	12022020	174542	90.79	12.418762	-56.830792	90.76	1.180	-1.470	1.260	90.76	-2.70	1.70	 	 	 	 	 	 	 	 	 	 	 	 	 	 	 	 	 	 	1581529542	9.68	17.93
12/02/2020 17:45:43	120220	12022020	174543	90.69	12.418767	-56.830753	90.66	0.660	0.010	0.950	90.68	-1.20	1.40	 	 	 	 	 	 	 	 	 	 	 	 	 	 	 	 	 	 	1581529543	8.15	15.09
12/02/2020 17:45:44	120220	12022020	174544	90.69	12.418772	-56.830720	90.69	-0.240	1.400	0.920	90.72	0.00	1.40	 	 	 	 	 	 	 	 	 	 	 	 	 	 	 	 	 	 	1581529544	7.16	13.26
12/02/2020 17:45:45	120220	12022020	174545	90.88	12.418773	-56.830683	90.91	-0.890	1.350	1.080	90.93	-0.20	1.50	 	 	 	 	 	 	 	 	 	 	 	 	 	 	 	 	 	 	1581529545	7.84	14.52
12/02/2020 17:45:46	120220	12022020	174546	91.06	12.418772	-56.830638	91.06	-0.880	0.020	1.320	91.06	-1.00	1.70	 	 	 	 	 	 	 	 	 	 	 	 	 	 	 	 	 	 	1581529546	9.33	17.28
12/02/2020 17:45:47	120220	12022020	174547	91.07	12.418768	-56.830592	91.10	-0.320	-1.250	1.660	91.08	-2.70	2.10	 	 	 	 	 	 	 	 	 	 	 	 	 	 	 	 	 	 	1581529547	10.11	18.72
12/02/2020 17:45:48	120220	12022020	174548	91.17	12.418767	-56.830547	91.20	0.330	-1.530	1.830	91.18	-2.90	2.30	 	 	 	 	 	 	 	 	 	 	 	 	 	 	 	 	 	 	1581529548	9.48	17.56
12/02/2020 17:45:49	120220	12022020	174549	91.12	12.418767	-56.830505	91.10	0.690	-1.130	1.960	91.07	-2.50	2.40	 	 	 	 	 	 	 	 	 	 	 	 	 	 	 	 	 	 	1581529549	8.67	16.06
12/02/2020 17:45:50	120220	12022020	174550	90.85	12.418767	-56.830465	90.84	0.610	-0.470	1.910	90.79	-1.80	2.30	 	 	 	 	 	 	 	 	 	 	 	 	 	 	 	 	 	 	1581529550	8.49	15.72
12/02/2020 17:45:51	120220	12022020	174551	90.68	12.418770	-56.830425	90.71	0.150	0.310	1.550	90.69	-1.00	1.90	 	 	 	 	 	 	 	 	 	 	 	 	 	 	 	 	 	 	1581529551	8.33	15.43
12/02/2020 17:45:52	120220	12022020	174552	90.86	12.418773	-56.830387	90.93	-0.330	0.930	0.850	90.96	-0.40	1.20	 	 	 	 	 	 	 	 	 	 	 	 	 	 	 	 	 	 	1581529552	8.20	15.19
12/02/2020 17:45:53	120220	12022020	174553	91.43	12.418780	-56.830348	91.49	-0.570	1.030	0.050	91.56	-0.40	0.40	 	 	 	 	 	 	 	 	 	 	 	 	 	 	 	 	 	 	1581529553	8.37	15.50
12/02/2020 17:45:54	120220	12022020	174554	91.93	12.418783	-56.830307	91.94	-0.430	0.350	-0.150	91.98	-1.20	0.30	 	 	 	 	 	 	 	 	 	 	 	 	 	 	 	 	 	 	1581529554	8.72	16.15
12/02/2020 17:45:55	120220	12022020	174555	92.06	12.418783	-56.830262	92.02	0.120	-1.050	0.230	92.06	-2.60	0.70	 	 	 	 	 	 	 	 	 	 	 	 	 	 	 	 	 	 	1581529555	9.53	17.65
12/02/2020 17:45:56	120220	12022020	174556	91.93	12.418782	-56.830213	91.87	0.640	-2.070	0.740	91.87	-3.50	1.30	 	 	 	 	 	 	 	 	 	 	 	 	 	 	 	 	 	 	1581529556	10.14	18.78
12/02/2020 17:45:57	120220	12022020	174557	91.65	12.418780	-56.830170	91.61	0.600	-1.720	1.320	91.59	-3.00	1.80	 	 	 	 	 	 	 	 	 	 	 	 	 	 	 	 	 	 	1581529557	9.32	17.26
12/02/2020 17:45:58	120220	12022020	174558	91.49	12.418778	-56.830132	91.50	0.090	-0.420	1.410	91.49	-2.10	1.90	 	 	 	 	 	 	 	 	 	 	 	 	 	 	 	 	 	 	1581529558	8.04	14.89
12/02/2020 17:45:59	120220	12022020	174559	91.64	12.418782	-56.830095	91.68	-0.330	0.720	0.950	91.70	-0.60	1.40	 	 	 	 	 	 	 	 	 	 	 	 	 	 	 	 	 	 	1581529559	7.68	14.22
12/02/2020 17:46:00	120220	12022020	174600	91.95	12.418783	-56.830057	91.97	-0.500	1.100	0.790	91.95	-0.30	1.20	 	 	 	 	 	 	 	 	 	 	 	 	 	 	 	 	 	 	1581529560	8.27	15.32
12/02/2020 17:46:01	120220	12022020	174601	92.18	12.418783	-56.830015	92.14	-0.560	0.670	0.890	92.18	-0.80	1.30	 	 	 	 	 	 	 	 	 	 	 	 	 	 	 	 	 	 	1581529561	8.90	16.48
12/02/2020 17:46:02	120220	12022020	174602	92.04	12.418780	-56.829970	91.93	-0.390	-0.260	0.920	91.96	-1.80	1.40	1015.20	26.60	26.70	19.80	19.90	853.0	66.0	66.0	391.0	28.5	348.00	16.10	75.00	11.80	61429	15703.0	27.4	27.4	1581529562	9.47	17.54
12/02/2020 17:46:03	120220	12022020	174603	91.64	12.418780	-56.829923	91.54	0.120	-0.970	0.940	91.58	-2.40	1.40	 	 	 	 	 	 	 	 	 	 	 	 	 	 	 	 	 	 	1581529563	9.66	17.89
12/02/2020 17:46:04	120220	12022020	174604	91.51	12.418782	-56.829880	91.49	0.640	-1.040	0.820	91.52	-2.40	1.20	 	 	 	 	 	 	 	 	 	 	 	 	 	 	 	 	 	 	1581529564	9.27	17.17
12/02/2020 17:46:05	120220	12022020	174605	91.66	12.418785	-56.829838	91.65	0.710	-0.680	0.410	91.70	-2.00	0.80	 	 	 	 	 	 	 	 	 	 	 	 	 	 	 	 	 	 	1581529565	8.78	16.26
12/02/2020 17:46:06	120220	12022020	174606	91.87	12.418792	-56.829798	91.84	0.250	-0.100	0.060	91.91	-1.40	0.50	 	 	 	 	 	 	 	 	 	 	 	 	 	 	 	 	 	 	1581529566	8.57	15.87
12/02/2020 17:46:07	120220	12022020	174607	92.00	12.418792	-56.829760	91.95	-0.440	0.490	0.530	92.00	-0.90	1.10	 	 	 	 	 	 	 	 	 	 	 	 	 	 	 	 	 	 	1581529567	8.16	15.11
12/02/2020 17:46:08	120220	12022020	174608	91.93	12.418787	-56.829722	91.86	-0.790	0.480	1.260	91.93	-0.80	1.60	 	 	 	 	 	 	 	 	 	 	 	 	 	 	 	 	 	 	1581529568	8.29	15.35
12/02/2020 17:46:09	120220	12022020	174609	91.84	12.418782	-56.829678	91.77	-0.350	-0.430	1.440	91.81	-2.00	1.90	 	 	 	 	 	 	 	 	 	 	 	 	 	 	 	 	 	 	1581529569	9.19	17.02
12/02/2020 17:46:10	120220	12022020	174610	91.68	12.418782	-56.829630	91.62	0.670	-1.530	1.450	91.68	-2.70	1.90	 	 	 	 	 	 	 	 	 	 	 	 	 	 	 	 	 	 	1581529570	10.11	18.72
12/02/2020 17:46:11	120220	12022020	174611	91.62	12.418782	-56.829583	91.59	1.240	-1.580	1.420	91.61	-2.90	1.80	 	 	 	 	 	 	 	 	 	 	 	 	 	 	 	 	 	 	1581529571	10.03	18.58
12/02/2020 17:46:12	120220	12022020	174612	91.63	12.418785	-56.829543	91.61	0.620	-0.150	1.120	91.63	-2.00	1.70	 	 	 	 	 	 	 	 	 	 	 	 	 	 	 	 	 	 	1581529572	8.52	15.78
12/02/2020 17:46:13	120220	12022020	174613	91.65	12.418790	-56.829510	91.63	-0.770	1.590	0.780	91.67	0.30	1.20	 	 	 	 	 	 	 	 	 	 	 	 	 	 	 	 	 	 	1581529573	7.10	13.15
12/02/2020 17:46:14	120220	12022020	174614	91.79	12.418792	-56.829475	91.79	-1.720	1.890	0.740	91.85	0.40	1.20	 	 	 	 	 	 	 	 	 	 	 	 	 	 	 	 	 	 	1581529574	7.25	13.43
12/02/2020 17:46:15	120220	12022020	174615	92.14	12.418790	-56.829432	92.12	-1.340	0.170	0.850	92.19	-1.50	1.30	 	 	 	 	 	 	 	 	 	 	 	 	 	 	 	 	 	 	1581529575	9.17	16.98
12/02/2020 17:46:16	120220	12022020	174616	92.17	12.418788	-56.829380	92.08	-0.030	-1.990	1.060	92.12	-3.60	1.50	 	 	 	 	 	 	 	 	 	 	 	 	 	 	 	 	 	 	1581529576	10.88	20.15
12/02/2020 17:46:17	120220	12022020	174617	91.75	12.418785	-56.829330	91.63	1.130	-2.750	1.270	91.64	-4.10	1.70	 	 	 	 	 	 	 	 	 	 	 	 	 	 	 	 	 	 	1581529577	10.53	19.50
12/02/2020 17:46:18	120220	12022020	174618	91.28	12.418785	-56.829288	91.22	1.500	-1.630	1.410	91.23	-2.80	1.80	 	 	 	 	 	 	 	 	 	 	 	 	 	 	 	 	 	 	1581529578	8.92	16.52
12/02/2020 17:46:19	120220	12022020	174619	91.25	12.418788	-56.829253	91.27	0.980	0.480	1.070	91.31	-0.70	1.40	 	 	 	 	 	 	 	 	 	 	 	 	 	 	 	 	 	 	1581529579	7.46	13.82
12/02/2020 17:46:20	120220	12022020	174620	91.62	12.418795	-56.829220	91.62	-0.100	2.130	0.410	91.69	0.80	0.80	 	 	 	 	 	 	 	 	 	 	 	 	 	 	 	 	 	 	1581529580	7.05	13.06
12/02/2020 17:46:21	120220	12022020	174621	91.95	12.418800	-56.829185	91.92	-1.130	2.300	0.020	92.00	0.80	0.50	 	 	 	 	 	 	 	 	 	 	 	 	 	 	 	 	 	 	1581529581	7.68	14.22
12/02/2020 17:46:22	120220	12022020	174622	92.18	12.418802	-56.829143	92.14	-1.450	0.880	0.190	92.18	-0.10	0.60	 	 	 	 	 	 	 	 	 	 	 	 	 	 	 	 	 	 	1581529582	8.87	16.43
12/02/2020 17:46:23	120220	12022020	174623	92.27	12.418800	-56.829095	92.24	-0.830	-1.400	0.680	92.28	-3.10	1.20	 	 	 	 	 	 	 	 	 	 	 	 	 	 	 	 	 	 	1581529583	10.09	18.69
12/02/2020 17:46:24	120220	12022020	174624	92.21	12.418797	-56.829045	92.14	0.310	-3.190	1.020	92.16	-4.70	1.50	 	 	 	 	 	 	 	 	 	 	 	 	 	 	 	 	 	 	1581529584	10.62	19.67
12/02/2020 17:46:25	120220	12022020	174625	91.93	12.418795	-56.828998	91.88	1.200	-3.200	1.180	91.88	-4.40	1.60	 	 	 	 	 	 	 	 	 	 	 	 	 	 	 	 	 	 	1581529585	9.93	18.39
12/02/2020 17:46:26	120220	12022020	174626	91.73	12.418795	-56.828960	91.72	1.250	-1.160	1.270	91.71	-2.20	1.70	 	 	 	 	 	 	 	 	 	 	 	 	 	 	 	 	 	 	1581529586	8.16	15.11
12/02/2020 17:46:27	120220	12022020	174627	91.72	12.418797	-56.828928	91.71	0.470	1.310	1.130	91.72	0.10	1.50	 	 	 	 	 	 	 	 	 	 	 	 	 	 	 	 	 	 	1581529587	6.75	12.50
12/02/2020 17:46:28	120220	12022020	174628	91.75	12.418802	-56.828893	91.73	-0.530	2.390	0.740	91.77	1.00	1.10	 	 	 	 	 	 	 	 	 	 	 	 	 	 	 	 	 	 	1581529588	7.21	13.35
12/02/2020 17:46:29	120220	12022020	174629	91.99	12.418807	-56.828853	92.02	-1.140	1.790	0.200	92.08	0.20	0.60	 	 	 	 	 	 	 	 	 	 	 	 	 	 	 	 	 	 	1581529589	8.72	16.15
12/02/2020 17:46:30	120220	12022020	174630	92.47	12.418808	-56.828807	92.50	-1.050	0.290	-0.110	92.58	-1.30	0.30	 	 	 	 	 	 	 	 	 	 	 	 	 	 	 	 	 	 	1581529590	9.71	17.98
12/02/2020 17:46:31	120220	12022020	174631	92.96	12.418808	-56.828760	92.96	-0.340	-1.170	-0.030	93.02	-2.70	0.50	 	 	 	 	 	 	 	 	 	 	 	 	 	 	 	 	 	 	1581529591	10.00	18.52
12/02/2020 17:46:32	120220	12022020	174632	93.10	12.418805	-56.828713	93.03	0.470	-1.910	0.320	93.08	-3.30	0.80	 	 	 	 	 	 	 	 	 	 	 	 	 	 	 	 	 	 	1581529592	9.64	17.85
12/02/2020 17:46:33	120220	12022020	174633	92.94	12.418805	-56.828672	92.87	0.910	-1.690	0.650	92.90	-3.00	1.10	 	 	 	 	 	 	 	 	 	 	 	 	 	 	 	 	 	 	1581529593	8.92	16.52
12/02/2020 17:46:34	120220	12022020	174634	92.74	12.418805	-56.828633	92.69	0.870	-0.820	0.920	92.74	-2.40	1.30	 	 	 	 	 	 	 	 	 	 	 	 	 	 	 	 	 	 	1581529594	8.23	15.24
12/02/2020 17:46:35	120220	12022020	174635	92.66	12.418805	-56.828595	92.64	0.510	0.120	0.920	92.66	-1.20	1.30	 	 	 	 	 	 	 	 	 	 	 	 	 	 	 	 	 	 	1581529595	8.09	14.98
12/02/2020 17:46:36	120220	12022020	174636	92.75	12.418808	-56.828557	92.73	-0.070	0.830	0.540	92.75	-0.70	1.10	 	 	 	 	 	 	 	 	 	 	 	 	 	 	 	 	 	 	1581529596	8.20	15.19
12/02/2020 17:46:37	120220	12022020	174637	92.93	12.418812	-56.828517	92.86	-0.540	0.810	0.180	92.96	-0.70	0.60	 	 	 	 	 	 	 	 	 	 	 	 	 	 	 	 	 	 	1581529597	8.51	15.76
12/02/2020 17:46:38	120220	12022020	174638	93.05	12.418813	-56.828472	92.98	-0.600	0.090	0.250	93.06	-1.40	0.70	 	 	 	 	 	 	 	 	 	 	 	 	 	 	 	 	 	 	1581529598	9.21	17.06
12/02/2020 17:46:39	120220	12022020	174639	93.07	12.418812	-56.828427	92.99	-0.350	-0.670	0.560	93.08	-2.10	1.00	 	 	 	 	 	 	 	 	 	 	 	 	 	 	 	 	 	 	1581529599	9.58	17.74
12/02/2020 17:46:40	120220	12022020	174640	93.15	12.418810	-56.828383	93.11	-0.060	-0.920	0.660	93.18	-2.30	1.10	 	 	 	 	 	 	 	 	 	 	 	 	 	 	 	 	 	 	1581529600	9.34	17.30
12/02/2020 17:46:41	120220	12022020	174641	93.28	12.418808	-56.828342	93.25	0.130	-0.740	0.750	93.29	-2.10	1.20	 	 	 	 	 	 	 	 	 	 	 	 	 	 	 	 	 	 	1581529601	8.85	16.39
12/02/2020 17:46:42	120220	12022020	174642	93.27	12.418807	-56.828300	93.22	0.270	-0.570	0.890	93.26	-2.00	1.30	 	 	 	 	 	 	 	 	 	 	 	 	 	 	 	 	 	 	1581529602	8.71	16.13
12/02/2020 17:46:43	120220	12022020	174643	93.16	12.418805	-56.828257	93.09	0.430	-0.510	0.820	93.14	-1.90	1.20	 	 	 	 	 	 	 	 	 	 	 	 	 	 	 	 	 	 	1581529603	9.04	16.74
12/02/2020 17:46:44	120220	12022020	174644	93.10	12.418808	-56.828215	93.05	0.440	-0.060	0.390	93.12	-1.40	0.80	 	 	 	 	 	 	 	 	 	 	 	 	 	 	 	 	 	 	1581529604	8.99	16.65
12/02/2020 17:46:45	120220	12022020	174645	93.21	12.418812	-56.828175	93.17	0.190	0.510	0.150	93.26	-0.90	0.60	 	 	 	 	 	 	 	 	 	 	 	 	 	 	 	 	 	 	1581529605	8.48	15.70
12/02/2020 17:46:46	120220	12022020	174646	93.49	12.418813	-56.828135	93.45	-0.090	0.420	0.260	93.49	-0.90	0.70	 	 	 	 	 	 	 	 	 	 	 	 	 	 	 	 	 	 	1581529606	8.55	15.83
12/02/2020 17:46:47	120220	12022020	174647	93.66	12.418812	-56.828090	93.57	-0.060	-0.440	0.540	93.66	-2.00	1.00	 	 	 	 	 	 	 	 	 	 	 	 	 	 	 	 	 	 	1581529607	9.40	17.41
12/02/2020 17:46:48	120220	12022020	174648	93.63	12.418808	-56.828043	93.57	0.160	-1.130	0.770	93.63	-2.50	1.20	 	 	 	 	 	 	 	 	 	 	 	 	 	 	 	 	 	 	1581529608	10.05	18.61
12/02/2020 17:46:49	120220	12022020	174649	93.68	12.418808	-56.827998	93.64	0.070	-0.570	1.090	93.70	-1.80	1.60	 	 	 	 	 	 	 	 	 	 	 	 	 	 	 	 	 	 	1581529609	9.17	16.98
12/02/2020 17:46:50	120220	12022020	174650	93.76	12.418805	-56.827963	93.70	-0.400	0.600	1.490	93.76	-1.10	1.80	 	 	 	 	 	 	 	 	 	 	 	 	 	 	 	 	 	 	1581529610	7.65	14.17
12/02/2020 17:46:51	120220	12022020	174651	93.77	12.418803	-56.827927	93.71	-0.660	0.610	1.550	93.76	-0.90	2.00	 	 	 	 	 	 	 	 	 	 	 	 	 	 	 	 	 	 	1581529611	7.80	14.45
12/02/2020 17:46:52	120220	12022020	174652	93.66	12.418802	-56.827880	93.56	-0.160	-0.910	1.330	93.63	-2.50	1.70	 	 	 	 	 	 	 	 	 	 	 	 	 	 	 	 	 	 	1581529612	9.68	17.93
12/02/2020 17:46:53	120220	12022020	174653	93.56	12.418802	-56.827828	93.48	0.760	-2.250	1.050	93.56	-3.70	1.40	 	 	 	 	 	 	 	 	 	 	 	 	 	 	 	 	 	 	1581529613	10.99	20.35
12/02/2020 17:46:54	120220	12022020	174654	93.64	12.418802	-56.827782	93.59	1.060	-1.420	0.700	93.68	-2.60	1.10	 	 	 	 	 	 	 	 	 	 	 	 	 	 	 	 	 	 	1581529614	9.94	18.41
12/02/2020 17:46:55	120220	12022020	174655	93.90	12.418803	-56.827747	93.87	0.210	1.120	0.360	93.96	0.00	0.80	 	 	 	 	 	 	 	 	 	 	 	 	 	 	 	 	 	 	1581529615	7.19	13.32
12/02/2020 17:46:56	120220	12022020	174656	94.21	12.418805	-56.827720	94.16	-1.120	2.960	0.210	94.26	1.60	0.70	 	 	 	 	 	 	 	 	 	 	 	 	 	 	 	 	 	 	1581529616	5.91	10.95
12/02/2020 17:46:57	120220	12022020	174657	94.36	12.418803	-56.827685	94.26	-1.530	1.890	0.380	94.36	0.10	0.80	 	 	 	 	 	 	 	 	 	 	 	 	 	 	 	 	 	 	1581529617	7.46	13.82
12/02/2020 17:46:58	120220	12022020	174658	94.25	12.418800	-56.827635	94.12	-0.480	-1.280	0.680	94.19	-3.10	1.10	 	 	 	 	 	 	 	 	 	 	 	 	 	 	 	 	 	 	1581529618	10.62	19.67
12/02/2020 17:46:59	120220	12022020	174659	93.88	12.418795	-56.827580	93.76	1.060	-3.580	0.900	93.80	-5.10	1.30	 	 	 	 	 	 	 	 	 	 	 	 	 	 	 	 	 	 	1581529619	11.62	21.52
12/02/2020 17:47:00	120220	12022020	174700	93.55	12.418795	-56.827533	93.48	1.800	-2.990	0.830	93.55	-4.80	1.30	 	 	 	 	 	 	 	 	 	 	 	 	 	 	 	 	 	 	1581529620	9.88	18.30
12/02/2020 17:47:01	120220	12022020	174701	93.57	12.418798	-56.827500	93.58	1.110	-0.060	0.810	93.63	-1.10	1.30	 	 	 	 	 	 	 	 	 	 	 	 	 	 	 	 	 	 	1581529621	6.96	12.89
12/02/2020 17:47:02	120220	12022020	174702	94.01	12.418800	-56.827475	94.07	-0.520	2.540	0.990	94.01	0.70	1.40	1015.20	26.60	26.70	20.20	20.30	845.0	68.0	68.0	391.0	28.5	347.00	15.40	74.00	11.00	61023	19758.0	27.4	27.4	1581529622	5.45	10.09
12/02/2020 17:47:03	120220	12022020	174703	94.58	12.418797	-56.827443	94.62	-1.820	2.770	1.220	94.65	1.20	1.70	 	 	 	 	 	 	 	 	 	 	 	 	 	 	 	 	 	 	1581529623	6.61	12.24
12/02/2020 17:47:04	120220	12022020	174704	94.81	12.418790	-56.827400	94.79	-1.840	0.870	1.500	94.81	-0.90	1.90	 	 	 	 	 	 	 	 	 	 	 	 	 	 	 	 	 	 	1581529624	9.07	16.80
12/02/2020 17:47:05	120220	12022020	174705	94.65	12.418782	-56.827352	94.57	-0.610	-1.480	1.610	94.58	-3.10	2.00	 	 	 	 	 	 	 	 	 	 	 	 	 	 	 	 	 	 	1581529625	10.39	19.24
12/02/2020 17:47:06	120220	12022020	174706	94.20	12.418777	-56.827303	94.08	0.980	-2.940	1.610	94.09	-4.40	2.00	 	 	 	 	 	 	 	 	 	 	 	 	 	 	 	 	 	 	1581529626	10.32	19.11
12/02/2020 17:47:07	120220	12022020	174707	93.70	12.418778	-56.827260	93.63	1.720	-2.520	1.310	93.65	-3.70	1.70	 	 	 	 	 	 	 	 	 	 	 	 	 	 	 	 	 	 	1581529627	9.36	17.33
12/02/2020 17:47:08	120220	12022020	174708	93.60	12.418783	-56.827225	93.57	1.060	-0.350	0.840	93.63	-1.50	1.20	 	 	 	 	 	 	 	 	 	 	 	 	 	 	 	 	 	 	1581529628	7.51	13.91
12/02/2020 17:47:09	120220	12022020	174709	93.91	12.418785	-56.827195	93.91	-0.310	1.860	0.670	94.00	0.60	1.10	 	 	 	 	 	 	 	 	 	 	 	 	 	 	 	 	 	 	1581529629	6.17	11.43
12/02/2020 17:47:10	120220	12022020	174710	94.31	12.418785	-56.827163	94.32	-1.210	2.370	0.840	94.38	0.80	1.30	 	 	 	 	 	 	 	 	 	 	 	 	 	 	 	 	 	 	1581529630	6.71	12.43
12/02/2020 17:47:11	120220	12022020	174711	94.51	12.418780	-56.827122	94.47	-0.960	0.850	0.980	94.51	-0.80	1.40	 	 	 	 	 	 	 	 	 	 	 	 	 	 	 	 	 	 	1581529631	8.76	16.22
12/02/2020 17:47:12	120220	12022020	174712	94.42	12.418775	-56.827073	94.35	0.050	-1.190	1.130	94.38	-2.80	1.60	 	 	 	 	 	 	 	 	 	 	 	 	 	 	 	 	 	 	1581529632	10.22	18.93
12/02/2020 17:47:13	120220	12022020	174713	94.17	12.418772	-56.827027	94.10	0.970	-2.140	1.340	94.11	-3.50	1.80	 	 	 	 	 	 	 	 	 	 	 	 	 	 	 	 	 	 	1581529633	10.00	18.52
12/02/2020 17:47:14	120220	12022020	174714	93.92	12.418770	-56.826987	93.87	1.010	-1.400	1.390	93.92	-3.10	1.80	 	 	 	 	 	 	 	 	 	 	 	 	 	 	 	 	 	 	1581529634	8.54	15.82
12/02/2020 17:47:15	120220	12022020	174715	93.81	12.418770	-56.826953	93.76	0.130	0.170	1.240	93.82	-1.10	1.60	 	 	 	 	 	 	 	 	 	 	 	 	 	 	 	 	 	 	1581529635	7.02	13.00
12/02/2020 17:47:16	120220	12022020	174716	93.88	12.418770	-56.826922	93.82	-0.850	1.230	0.960	93.90	-0.20	1.40	 	 	 	 	 	 	 	 	 	 	 	 	 	 	 	 	 	 	1581529636	6.68	12.37
12/02/2020 17:47:17	120220	12022020	174717	93.97	12.418770	-56.826885	93.89	-0.980	0.880	0.660	93.99	-0.70	1.10	 	 	 	 	 	 	 	 	 	 	 	 	 	 	 	 	 	 	1581529637	7.67	14.20
12/02/2020 17:47:18	120220	12022020	174718	93.94	12.418768	-56.826842	93.79	-0.100	-0.730	0.490	93.89	-2.40	0.90	 	 	 	 	 	 	 	 	 	 	 	 	 	 	 	 	 	 	1581529638	9.33	17.28
12/02/2020 17:47:19	120220	12022020	174719	93.54	12.418765	-56.826793	93.39	0.960	-2.090	0.690	93.44	-3.50	1.20	 	 	 	 	 	 	 	 	 	 	 	 	 	 	 	 	 	 	1581529639	10.31	19.09
12/02/2020 17:47:20	120220	12022020	174720	93.16	12.418765	-56.826748	93.06	1.160	-1.590	0.840	93.12	-2.80	1.30	 	 	 	 	 	 	 	 	 	 	 	 	 	 	 	 	 	 	1581529640	9.30	17.22
12/02/2020 17:47:21	120220	12022020	174721	93.10	12.418765	-56.826715	93.06	0.320	0.440	0.930	93.12	-0.70	1.40	 	 	 	 	 	 	 	 	 	 	 	 	 	 	 	 	 	 	1581529641	7.13	13.20
12/02/2020 17:47:22	120220	12022020	174722	93.24	12.418763	-56.826685	93.20	-0.800	1.930	1.170	93.26	0.60	1.60	 	 	 	 	 	 	 	 	 	 	 	 	 	 	 	 	 	 	1581529642	6.22	11.52
12/02/2020 17:47:23	120220	12022020	174723	93.33	12.418758	-56.826650	93.30	-1.260	1.620	1.360	93.35	0.10	1.80	 	 	 	 	 	 	 	 	 	 	 	 	 	 	 	 	 	 	1581529643	7.49	13.87
12/02/2020 17:47:24	120220	12022020	174724	93.35	12.418753	-56.826607	93.30	-0.850	0.090	1.270	93.35	-1.50	1.70	 	 	 	 	 	 	 	 	 	 	 	 	 	 	 	 	 	 	1581529644	9.16	16.96
12/02/2020 17:47:25	120220	12022020	174725	93.26	12.418750	-56.826562	93.18	-0.010	-1.320	1.090	93.22	-2.80	1.50	 	 	 	 	 	 	 	 	 	 	 	 	 	 	 	 	 	 	1581529645	9.64	17.85
12/02/2020 17:47:26	120220	12022020	174726	93.00	12.418752	-56.826518	92.89	0.770	-1.960	0.910	92.92	-3.40	1.30	 	 	 	 	 	 	 	 	 	 	 	 	 	 	 	 	 	 	1581529646	9.13	16.91
12/02/2020 17:47:27	120220	12022020	174727	92.59	12.418753	-56.826477	92.51	1.260	-2.030	0.950	92.53	-3.40	1.40	 	 	 	 	 	 	 	 	 	 	 	 	 	 	 	 	 	 	1581529647	8.77	16.24
12/02/2020 17:47:28	120220	12022020	174728	92.39	12.418755	-56.826437	92.36	1.200	-1.260	1.130	92.38	-2.50	1.60	 	 	 	 	 	 	 	 	 	 	 	 	 	 	 	 	 	 	1581529648	8.68	16.08
12/02/2020 17:47:29	120220	12022020	174729	92.38	12.418755	-56.826400	92.35	0.300	0.630	1.360	92.38	-0.50	1.80	 	 	 	 	 	 	 	 	 	 	 	 	 	 	 	 	 	 	1581529649	7.55	13.98
12/02/2020 17:47:30	120220	12022020	174730	92.32	12.418752	-56.826370	92.27	-0.980	2.440	1.550	92.29	1.10	2.00	 	 	 	 	 	 	 	 	 	 	 	 	 	 	 	 	 	 	1581529650	6.41	11.87
12/02/2020 17:47:31	120220	12022020	174731	92.13	12.418747	-56.826338	92.08	-1.600	2.470	1.700	92.09	0.90	2.10	 	 	 	 	 	 	 	 	 	 	 	 	 	 	 	 	 	 	1581529651	6.93	12.83
12/02/2020 17:47:32	120220	12022020	174732	92.02	12.418745	-56.826295	92.00	-0.890	0.150	1.570	92.01	-1.60	2.00	 	 	 	 	 	 	 	 	 	 	 	 	 	 	 	 	 	 	1581529652	9.09	16.83
12/02/2020 17:47:33	120220	12022020	174733	91.99	12.418745	-56.826243	91.96	0.480	-2.620	1.310	91.98	-4.20	1.70	 	 	 	 	 	 	 	 	 	 	 	 	 	 	 	 	 	 	1581529653	10.99	20.35
12/02/2020 17:47:34	120220	12022020	174734	91.94	12.418747	-56.826193	91.91	1.270	-3.150	1.140	91.92	-4.40	1.60	 	 	 	 	 	 	 	 	 	 	 	 	 	 	 	 	 	 	1581529654	10.35	19.17
12/02/2020 17:47:35	120220	12022020	174735	91.82	12.418747	-56.826158	91.80	0.980	-1.060	1.280	91.80	-2.10	1.70	 	 	 	 	 	 	 	 	 	 	 	 	 	 	 	 	 	 	1581529655	7.42	13.74
12/02/2020 17:47:36	120220	12022020	174736	91.66	12.418748	-56.826133	91.61	0.080	1.390	1.430	91.63	0.20	1.90	 	 	 	 	 	 	 	 	 	 	 	 	 	 	 	 	 	 	1581529656	5.55	10.28
12/02/2020 17:47:37	120220	12022020	174737	91.53	12.418750	-56.826102	91.51	-0.600	2.060	1.330	91.53	0.60	1.80	 	 	 	 	 	 	 	 	 	 	 	 	 	 	 	 	 	 	1581529657	6.41	11.87
12/02/2020 17:47:38	120220	12022020	174738	91.60	12.418753	-56.826062	91.61	-0.640	0.850	1.010	91.60	-0.20	1.50	 	 	 	 	 	 	 	 	 	 	 	 	 	 	 	 	 	 	1581529658	8.46	15.67
12/02/2020 17:47:39	120220	12022020	174739	91.84	12.418757	-56.826017	91.84	-0.180	-0.960	0.690	91.87	-2.50	1.10	 	 	 	 	 	 	 	 	 	 	 	 	 	 	 	 	 	 	1581529659	9.82	18.19
12/02/2020 17:47:40	120220	12022020	174740	91.89	12.418755	-56.825970	91.86	0.280	-2.000	0.960	91.87	-3.40	1.50	 	 	 	 	 	 	 	 	 	 	 	 	 	 	 	 	 	 	1581529660	9.74	18.04
12/02/2020 17:47:41	120220	12022020	174741	91.63	12.418750	-56.825930	91.58	0.330	-1.610	1.510	91.57	-2.90	2.00	 	 	 	 	 	 	 	 	 	 	 	 	 	 	 	 	 	 	1581529661	8.66	16.04
12/02/2020 17:47:42	120220	12022020	174742	91.29	12.418748	-56.825895	91.24	-0.040	-0.250	1.610	91.23	-1.40	2.00	 	 	 	 	 	 	 	 	 	 	 	 	 	 	 	 	 	 	1581529662	7.36	13.63
12/02/2020 17:47:43	120220	12022020	174743	91.12	12.418750	-56.825862	91.10	-0.460	1.010	1.140	91.11	-0.30	1.50	 	 	 	 	 	 	 	 	 	 	 	 	 	 	 	 	 	 	1581529663	6.84	12.67
12/02/2020 17:47:44	120220	12022020	174744	91.17	12.418753	-56.825827	91.18	-0.480	1.160	0.330	91.20	-0.30	0.70	 	 	 	 	 	 	 	 	 	 	 	 	 	 	 	 	 	 	1581529664	7.47	13.83
12/02/2020 17:47:45	120220	12022020	174745	91.31	12.418760	-56.825785	91.30	0.040	0.100	-0.260	91.33	-1.50	0.20	 	 	 	 	 	 	 	 	 	 	 	 	 	 	 	 	 	 	1581529665	8.84	16.37
12/02/2020 17:47:46	120220	12022020	174746	91.39	12.418763	-56.825740	91.39	0.620	-1.040	-0.320	91.42	-2.50	0.10	 	 	 	 	 	 	 	 	 	 	 	 	 	 	 	 	 	 	1581529666	9.66	17.89
12/02/2020 17:47:47	120220	12022020	174747	91.63	12.418767	-56.825698	91.71	0.670	-1.100	-0.180	91.71	-2.40	0.30	 	 	 	 	 	 	 	 	 	 	 	 	 	 	 	 	 	 	1581529667	9.02	16.71
12/02/2020 17:47:48	120220	12022020	174748	92.01	12.418767	-56.825662	92.05	0.090	-0.250	0.300	92.05	-1.50	0.80	 	 	 	 	 	 	 	 	 	 	 	 	 	 	 	 	 	 	1581529668	7.65	14.17
12/02/2020 17:47:49	120220	12022020	174749	92.06	12.418763	-56.825628	92.04	-0.590	0.480	1.110	92.02	-0.90	1.60	 	 	 	 	 	 	 	 	 	 	 	 	 	 	 	 	 	 	1581529669	7.11	13.17
12/02/2020 17:47:50	120220	12022020	174750	91.77	12.418758	-56.825592	91.75	-0.760	0.260	1.730	91.77	-1.00	2.10	 	 	 	 	 	 	 	 	 	 	 	 	 	 	 	 	 	 	1581529670	7.80	14.45
12/02/2020 17:47:51	120220	12022020	174751	91.46	12.418755	-56.825550	91.44	-0.230	-0.750	1.860	91.40	-2.30	2.30	 	 	 	 	 	 	 	 	 	 	 	 	 	 	 	 	 	 	1581529671	8.96	16.59
12/02/2020 17:47:52	120220	12022020	174752	91.23	12.418755	-56.825503	91.23	0.570	-1.580	1.620	91.23	-2.90	2.20	 	 	 	 	 	 	 	 	 	 	 	 	 	 	 	 	 	 	1581529672	9.62	17.82
12/02/2020 17:47:53	120220	12022020	174753	91.15	12.418758	-56.825462	91.15	0.880	-1.130	0.990	91.15	-2.40	1.40	 	 	 	 	 	 	 	 	 	 	 	 	 	 	 	 	 	 	1581529673	9.09	16.83
12/02/2020 17:47:54	120220	12022020	174754	91.19	12.418765	-56.825425	91.22	0.300	0.390	0.510	91.21	-0.80	0.90	 	 	 	 	 	 	 	 	 	 	 	 	 	 	 	 	 	 	1581529674	7.59	14.06
12/02/2020 17:47:55	120220	12022020	174755	91.36	12.418768	-56.825393	91.39	-0.660	1.520	0.400	91.40	0.20	0.80	 	 	 	 	 	 	 	 	 	 	 	 	 	 	 	 	 	 	1581529675	6.82	12.63
12/02/2020 17:47:56	120220	12022020	174756	91.56	12.418770	-56.825357	91.56	-1.090	1.210	0.370	91.58	-0.30	0.80	 	 	 	 	 	 	 	 	 	 	 	 	 	 	 	 	 	 	1581529676	7.62	14.11
12/02/2020 17:47:57	120220	12022020	174757	91.58	12.418770	-56.825315	91.54	-0.510	-0.430	0.500	91.56	-2.00	1.00	 	 	 	 	 	 	 	 	 	 	 	 	 	 	 	 	 	 	1581529677	9.15	16.95
12/02/2020 17:47:58	120220	12022020	174758	91.43	12.418768	-56.825265	91.40	0.580	-2.010	0.930	91.40	-3.50	1.40	 	 	 	 	 	 	 	 	 	 	 	 	 	 	 	 	 	 	1581529678	10.24	18.96
12/02/2020 17:47:59	120220	12022020	174759	91.29	12.418767	-56.825222	91.29	1.080	-1.990	1.410	91.28	-3.20	1.90	 	 	 	 	 	 	 	 	 	 	 	 	 	 	 	 	 	 	1581529679	9.48	17.56
12/02/2020 17:48:00	120220	12022020	174800	91.28	12.418765	-56.825185	91.30	0.570	-0.440	1.450	91.30	-1.60	1.90	 	 	 	 	 	 	 	 	 	 	 	 	 	 	 	 	 	 	1581529680	7.67	14.20
12/02/2020 17:48:01	120220	12022020	174801	91.42	12.418767	-56.825153	91.46	-0.370	1.270	1.130	91.45	0.00	1.50	 	 	 	 	 	 	 	 	 	 	 	 	 	 	 	 	 	 	1581529681	6.53	12.09
12/02/2020 17:48:02	120220	12022020	174802	91.61	12.418768	-56.825122	91.65	-0.970	1.850	0.730	91.65	0.40	1.10	1015.30	26.50	26.60	20.10	20.20	845.0	67.0	68.0	392.0	28.5	348.00	15.00	75.00	10.80	60778	6079.0	27.4	27.4	1581529682	6.94	12.85
12/02/2020 17:48:03	120220	12022020	174803	91.82	12.418773	-56.825082	91.83	-0.820	0.790	0.330	91.85	-0.80	0.70	 	 	 	 	 	 	 	 	 	 	 	 	 	 	 	 	 	 	1581529683	8.27	15.32
12/02/2020 17:48:04	120220	12022020	174804	91.90	12.418775	-56.825035	91.89	0.030	-1.240	0.220	91.90	-2.20	0.70	 	 	 	 	 	 	 	 	 	 	 	 	 	 	 	 	 	 	1581529684	9.85	18.24
12/02/2020 17:48:05	120220	12022020	174805	91.74	12.418777	-56.824987	91.70	0.850	-2.550	0.520	91.69	-4.00	1.00	 	 	 	 	 	 	 	 	 	 	 	 	 	 	 	 	 	 	1581529685	10.25	18.98
12/02/2020 17:48:06	120220	12022020	174806	91.45	12.418777	-56.824945	91.41	0.930	-2.030	0.850	91.40	-3.20	1.30	 	 	 	 	 	 	 	 	 	 	 	 	 	 	 	 	 	 	1581529686	9.05	16.76
12/02/2020 17:48:07	120220	12022020	174807	91.38	12.418778	-56.824910	91.44	0.300	-0.150	0.980	91.44	-1.30	1.40	 	 	 	 	 	 	 	 	 	 	 	 	 	 	 	 	 	 	1581529687	7.30	13.52
12/02/2020 17:48:08	120220	12022020	174808	91.81	12.418778	-56.824878	91.93	-0.400	1.440	0.830	91.94	0.20	1.20	 	 	 	 	 	 	 	 	 	 	 	 	 	 	 	 	 	 	1581529688	6.60	12.22
12/02/2020 17:48:09	120220	12022020	174809	92.40	12.418778	-56.824843	92.48	-0.610	1.510	0.600	92.49	0.00	1.00	 	 	 	 	 	 	 	 	 	 	 	 	 	 	 	 	 	 	1581529689	7.57	14.02
12/02/2020 17:48:10	120220	12022020	174810	92.61	12.418778	-56.824800	92.58	-0.350	0.400	0.620	92.58	-1.10	1.10	 	 	 	 	 	 	 	 	 	 	 	 	 	 	 	 	 	 	1581529690	9.13	16.91
12/02/2020 17:48:11	120220	12022020	174811	92.32	12.418777	-56.824755	92.26	-0.110	-0.560	0.850	92.25	-2.00	1.30	 	 	 	 	 	 	 	 	 	 	 	 	 	 	 	 	 	 	1581529691	9.58	17.74
12/02/2020 17:48:12	120220	12022020	174812	92.14	12.418777	-56.824713	92.14	-0.210	-0.730	0.880	92.16	-2.10	1.30	 	 	 	 	 	 	 	 	 	 	 	 	 	 	 	 	 	 	1581529692	8.71	16.13
12/02/2020 17:48:13	120220	12022020	174813	92.48	12.418780	-56.824675	92.55	-0.370	-0.690	0.540	92.59	-2.10	0.90	 	 	 	 	 	 	 	 	 	 	 	 	 	 	 	 	 	 	1581529693	8.06	14.93
12/02/2020 17:48:14	120220	12022020	174814	92.97	12.418782	-56.824637	92.95	-0.160	-0.900	0.270	92.97	-2.20	0.70	 	 	 	 	 	 	 	 	 	 	 	 	 	 	 	 	 	 	1581529694	8.29	15.35
12/02/2020 17:48:15	120220	12022020	174815	92.85	12.418782	-56.824593	92.72	0.480	-1.120	0.540	92.75	-2.50	1.00	 	 	 	 	 	 	 	 	 	 	 	 	 	 	 	 	 	 	1581529695	8.83	16.35
12/02/2020 17:48:16	120220	12022020	174816	92.34	12.418780	-56.824552	92.24	1.020	-0.780	0.970	92.34	-2.30	1.30	 	 	 	 	 	 	 	 	 	 	 	 	 	 	 	 	 	 	1581529696	8.87	16.43
12/02/2020 17:48:17	120220	12022020	174817	92.16	12.418782	-56.824513	92.17	0.820	0.130	1.090	92.19	-1.10	1.50	 	 	 	 	 	 	 	 	 	 	 	 	 	 	 	 	 	 	1581529697	8.26	15.30
12/02/2020 17:48:18	120220	12022020	174818	92.48	12.418783	-56.824477	92.52	-0.030	0.820	0.740	92.48	-0.70	1.30	 	 	 	 	 	 	 	 	 	 	 	 	 	 	 	 	 	 	1581529698	7.82	14.48
12/02/2020 17:48:19	120220	12022020	174819	92.84	12.418785	-56.824437	92.84	-0.760	0.620	0.480	92.88	-0.90	0.90	 	 	 	 	 	 	 	 	 	 	 	 	 	 	 	 	 	 	1581529699	8.22	15.22
12/02/2020 17:48:20	120220	12022020	174820	92.96	12.418783	-56.824393	92.93	-0.780	-0.270	0.630	92.97	-1.80	1.10	 	 	 	 	 	 	 	 	 	 	 	 	 	 	 	 	 	 	1581529700	9.19	17.02
12/02/2020 17:48:21	120220	12022020	174821	93.02	12.418780	-56.824350	93.00	-0.350	-0.700	0.770	93.04	-2.10	1.20	 	 	 	 	 	 	 	 	 	 	 	 	 	 	 	 	 	 	1581529701	9.44	17.48
12/02/2020 17:48:22	120220	12022020	174822	93.16	12.418778	-56.824310	93.12	-0.040	-0.240	0.680	93.19	-1.50	1.10	 	 	 	 	 	 	 	 	 	 	 	 	 	 	 	 	 	 	1581529702	8.43	15.61
12/02/2020 17:48:23	120220	12022020	174823	93.29	12.418780	-56.824273	93.23	-0.010	0.250	0.500	93.31	-1.10	0.90	 	 	 	 	 	 	 	 	 	 	 	 	 	 	 	 	 	 	1581529703	7.65	14.17
12/02/2020 17:48:24	120220	12022020	174824	93.36	12.418780	-56.824235	93.26	-0.020	-0.060	0.280	93.35	-1.50	0.70	 	 	 	 	 	 	 	 	 	 	 	 	 	 	 	 	 	 	1581529704	8.13	15.06
12/02/2020 17:48:25	120220	12022020	174825	93.21	12.418780	-56.824192	93.07	0.190	-1.080	0.360	93.14	-2.60	0.90	 	 	 	 	 	 	 	 	 	 	 	 	 	 	 	 	 	 	1581529705	9.19	17.02
12/02/2020 17:48:26	120220	12022020	174826	92.78	12.418780	-56.824145	92.63	0.620	-1.830	0.720	92.78	-3.10	1.10	 	 	 	 	 	 	 	 	 	 	 	 	 	 	 	 	 	 	1581529706	9.80	18.15
12/02/2020 17:48:27	120220	12022020	174827	92.32	12.418778	-56.824102	92.20	0.930	-1.430	0.910	92.25	-2.60	1.40	 	 	 	 	 	 	 	 	 	 	 	 	 	 	 	 	 	 	1581529707	9.28	17.19
12/02/2020 17:48:28	120220	12022020	174828	92.18	12.418780	-56.824062	92.16	0.680	-0.130	0.880	92.18	-1.80	1.30	 	 	 	 	 	 	 	 	 	 	 	 	 	 	 	 	 	 	1581529708	8.33	15.43
12/02/2020 17:48:29	120220	12022020	174829	92.47	12.418780	-56.824025	92.54	-0.230	1.390	0.820	92.57	0.20	1.20	 	 	 	 	 	 	 	 	 	 	 	 	 	 	 	 	 	 	1581529709	7.56	14.00
12/02/2020 17:48:30	120220	12022020	174830	93.01	12.418782	-56.823992	93.04	-1.300	2.250	0.670	93.10	0.90	1.10	 	 	 	 	 	 	 	 	 	 	 	 	 	 	 	 	 	 	1581529710	7.22	13.37
12/02/2020 17:48:31	120220	12022020	174831	93.44	12.418780	-56.823955	93.42	-1.680	1.670	0.680	93.49	0.10	1.10	 	 	 	 	 	 	 	 	 	 	 	 	 	 	 	 	 	 	1581529711	7.82	14.48
12/02/2020 17:48:32	120220	12022020	174832	93.61	12.418778	-56.823910	93.53	-0.830	-0.590	0.970	93.60	-2.30	1.50	 	 	 	 	 	 	 	 	 	 	 	 	 	 	 	 	 	 	1581529712	9.38	17.37
12/02/2020 17:48:33	120220	12022020	174833	93.38	12.418773	-56.823858	93.28	0.690	-3.190	1.460	93.32	-4.70	1.90	 	 	 	 	 	 	 	 	 	 	 	 	 	 	 	 	 	 	1581529713	10.98	20.33
12/02/2020 17:48:34	120220	12022020	174834	93.19	12.418768	-56.823808	93.15	1.700	-3.700	1.560	93.18	-4.90	2.00	 	 	 	 	 	 	 	 	 	 	 	 	 	 	 	 	 	 	1581529714	10.62	19.67
12/02/2020 17:48:35	120220	12022020	174835	93.25	12.418768	-56.823772	93.27	1.450	-1.280	1.250	93.29	-2.20	1.60	 	 	 	 	 	 	 	 	 	 	 	 	 	 	 	 	 	 	1581529715	7.96	14.74
12/02/2020 17:48:36	120220	12022020	174836	93.41	12.418772	-56.823745	93.36	0.250	1.850	0.810	93.42	0.80	1.20	 	 	 	 	 	 	 	 	 	 	 	 	 	 	 	 	 	 	1581529716	5.61	10.39
12/02/2020 17:48:37	120220	12022020	174837	93.46	12.418777	-56.823715	93.38	-1.000	3.120	0.190	93.48	1.70	0.60	 	 	 	 	 	 	 	 	 	 	 	 	 	 	 	 	 	 	1581529717	6.20	11.48
12/02/2020 17:48:38	120220	12022020	174838	93.53	12.418778	-56.823677	93.45	-1.560	2.000	-0.130	93.53	0.40	0.30	 	 	 	 	 	 	 	 	 	 	 	 	 	 	 	 	 	 	1581529718	8.22	15.22
12/02/2020 17:48:39	120220	12022020	174839	93.51	12.418777	-56.823630	93.43	-1.140	-0.320	-0.040	93.50	-1.90	0.40	 	 	 	 	 	 	 	 	 	 	 	 	 	 	 	 	 	 	1581529719	9.96	18.45
12/02/2020 17:48:40	120220	12022020	174840	93.48	12.418775	-56.823582	93.43	-0.190	-2.140	-0.080	93.48	-3.20	0.40	 	 	 	 	 	 	 	 	 	 	 	 	 	 	 	 	 	 	1581529720	10.30	19.08
12/02/2020 17:48:41	120220	12022020	174841	93.51	12.418773	-56.823537	93.46	0.670	-2.600	0.040	93.51	-3.90	0.50	 	 	 	 	 	 	 	 	 	 	 	 	 	 	 	 	 	 	1581529721	9.35	17.32
12/02/2020 17:48:42	120220	12022020	174842	93.42	12.418770	-56.823498	93.36	1.160	-1.830	0.530	93.42	-3.40	0.80	 	 	 	 	 	 	 	 	 	 	 	 	 	 	 	 	 	 	1581529722	8.23	15.24
12/02/2020 17:48:43	120220	12022020	174843	93.15	12.418768	-56.823462	93.09	1.130	-0.440	0.860	93.10	-1.60	1.30	 	 	 	 	 	 	 	 	 	 	 	 	 	 	 	 	 	 	1581529723	7.61	14.09
12/02/2020 17:48:44	120220	12022020	174844	92.94	12.418768	-56.823427	92.90	0.550	0.980	0.750	92.92	-0.20	1.20	 	 	 	 	 	 	 	 	 	 	 	 	 	 	 	 	 	 	1581529724	7.41	13.72
12/02/2020 17:48:45	120220	12022020	174845	92.93	12.418770	-56.823392	92.91	-0.240	1.750	0.660	92.96	0.40	1.10	 	 	 	 	 	 	 	 	 	 	 	 	 	 	 	 	 	 	1581529725	7.47	13.83
12/02/2020 17:48:46	120220	12022020	174846	93.05	12.418770	-56.823353	93.04	-0.820	1.450	0.740	93.08	-0.00	1.20	 	 	 	 	 	 	 	 	 	 	 	 	 	 	 	 	 	 	1581529726	8.04	14.89
12/02/2020 17:48:47	120220	12022020	174847	93.06	12.418768	-56.823312	92.99	-0.910	0.120	0.930	93.02	-1.40	1.40	 	 	 	 	 	 	 	 	 	 	 	 	 	 	 	 	 	 	1581529727	8.90	16.48
12/02/2020 17:48:48	120220	12022020	174848	92.76	12.418765	-56.823265	92.69	-0.490	-1.620	1.340	92.68	-3.10	1.80	 	 	 	 	 	 	 	 	 	 	 	 	 	 	 	 	 	 	1581529728	9.75	18.06
12/02/2020 17:48:49	120220	12022020	174849	92.38	12.418760	-56.823218	92.33	0.210	-2.600	1.810	92.30	-3.90	2.30	 	 	 	 	 	 	 	 	 	 	 	 	 	 	 	 	 	 	1581529729	9.96	18.45
12/02/2020 17:48:50	120220	12022020	174850	92.04	12.418755	-56.823177	92.02	0.660	-1.880	1.930	91.99	-3.00	2.30	 	 	 	 	 	 	 	 	 	 	 	 	 	 	 	 	 	 	1581529730	8.94	16.56
12/02/2020 17:48:51	120220	12022020	174851	91.93	12.418755	-56.823142	91.94	0.520	0.070	1.450	91.94	-1.10	1.80	 	 	 	 	 	 	 	 	 	 	 	 	 	 	 	 	 	 	1581529731	7.32	13.56
12/02/2020 17:48:52	120220	12022020	174852	92.04	12.418760	-56.823112	92.07	-0.080	1.770	0.790	92.08	0.50	1.10	 	 	 	 	 	 	 	 	 	 	 	 	 	 	 	 	 	 	1581529732	6.66	12.33
12/02/2020 17:48:53	120220	12022020	174853	92.24	12.418765	-56.823077	92.25	-0.500	1.850	0.260	92.26	0.40	0.70	 	 	 	 	 	 	 	 	 	 	 	 	 	 	 	 	 	 	1581529733	7.37	13.65
12/02/2020 17:48:54	120220	12022020	174854	92.26	12.418767	-56.823033	92.24	-0.160	0.060	0.180	92.24	-1.60	0.60	 	 	 	 	 	 	 	 	 	 	 	 	 	 	 	 	 	 	1581529734	9.22	17.08
12/02/2020 17:48:55	120220	12022020	174855	92.15	12.418767	-56.822982	92.16	0.580	-2.010	0.470	92.15	-3.50	1.00	 	 	 	 	 	 	 	 	 	 	 	 	 	 	 	 	 	 	1581529735	10.71	19.83
12/02/2020 17:48:56	120220	12022020	174856	92.24	12.418765	-56.822935	92.28	0.830	-2.170	0.900	92.28	-3.40	1.40	 	 	 	 	 	 	 	 	 	 	 	 	 	 	 	 	 	 	1581529736	9.91	18.35
12/02/2020 17:48:57	120220	12022020	174857	92.54	12.418762	-56.822900	92.60	0.290	-0.380	1.210	92.61	-1.50	1.60	 	 	 	 	 	 	 	 	 	 	 	 	 	 	 	 	 	 	1581529737	7.45	13.80
12/02/2020 17:48:58	120220	12022020	174858	92.84	12.418760	-56.822872	92.87	-0.450	1.300	1.250	92.88	0.00	1.70	 	 	 	 	 	 	 	 	 	 	 	 	 	 	 	 	 	 	1581529738	6.14	11.37
12/02/2020 17:48:59	120220	12022020	174859	92.97	12.418762	-56.822837	92.97	-0.660	1.290	1.120	92.98	-0.20	1.50	 	 	 	 	 	 	 	 	 	 	 	 	 	 	 	 	 	 	1581529739	7.31	13.54
12/02/2020 17:49:00	120220	12022020	174900	92.98	12.418762	-56.822793	92.97	-0.410	0.100	1.020	92.98	-1.40	1.50	 	 	 	 	 	 	 	 	 	 	 	 	 	 	 	 	 	 	1581529740	9.05	16.76
12/02/2020 17:49:01	120220	12022020	174901	92.95	12.418762	-56.822748	92.93	-0.080	-1.120	1.060	92.94	-2.60	1.50	 	 	 	 	 	 	 	 	 	 	 	 	 	 	 	 	 	 	1581529741	9.64	17.85
12/02/2020 17:49:02	120220	12022020	174902	92.94	12.418760	-56.822705	92.93	0.120	-1.580	1.050	92.93	-2.90	1.50	1015.40	26.60	26.70	20.60	20.70	838.0	69.0	69.0	393.0	28.6	350.00	14.70	78.00	10.40	60556	10675.0	27.4	27.4	1581529742	9.23	17.09
12/02/2020 17:49:03	120220	12022020	174903	92.86	12.418758	-56.822665	92.80	0.250	-1.220	0.920	92.82	-2.50	1.30	 	 	 	 	 	 	 	 	 	 	 	 	 	 	 	 	 	 	1581529743	8.47	15.69
12/02/2020 17:49:04	120220	12022020	174904	92.66	12.418758	-56.822627	92.58	0.490	-0.560	0.700	92.62	-1.80	1.10	 	 	 	 	 	 	 	 	 	 	 	 	 	 	 	 	 	 	1581529744	8.11	15.02
12/02/2020 17:49:05	120220	12022020	174905	92.54	12.418760	-56.822587	92.50	0.620	0.060	0.520	92.54	-1.20	0.90	 	 	 	 	 	 	 	 	 	 	 	 	 	 	 	 	 	 	1581529745	8.28	15.33
12/02/2020 17:49:06	120220	12022020	174906	92.60	12.418763	-56.822548	92.60	0.210	0.720	0.430	92.60	-0.80	0.90	 	 	 	 	 	 	 	 	 	 	 	 	 	 	 	 	 	 	1581529746	8.24	15.26
12/02/2020 17:49:07	120220	12022020	174907	92.88	12.418763	-56.822512	92.88	-0.660	1.240	0.370	92.93	-0.10	0.80	 	 	 	 	 	 	 	 	 	 	 	 	 	 	 	 	 	 	1581529747	7.83	14.50
12/02/2020 17:49:08	120220	12022020	174908	93.09	12.418760	-56.822473	93.04	-1.230	0.910	0.580	93.09	-0.60	1.10	 	 	 	 	 	 	 	 	 	 	 	 	 	 	 	 	 	 	1581529748	7.85	14.54
12/02/2020 17:49:09	120220	12022020	174909	92.92	12.418753	-56.822432	92.83	-0.680	-0.660	1.090	92.86	-2.30	1.60	 	 	 	 	 	 	 	 	 	 	 	 	 	 	 	 	 	 	1581529749	9.12	16.89
12/02/2020 17:49:10	120220	12022020	174910	92.58	12.418750	-56.822383	92.49	0.490	-1.930	1.280	92.52	-3.40	1.70	 	 	 	 	 	 	 	 	 	 	 	 	 	 	 	 	 	 	1581529750	10.06	18.63
12/02/2020 17:49:11	120220	12022020	174911	92.32	12.418750	-56.822340	92.27	1.160	-1.780	1.200	92.29	-3.10	1.60	 	 	 	 	 	 	 	 	 	 	 	 	 	 	 	 	 	 	1581529751	9.17	16.98
12/02/2020 17:49:12	120220	12022020	174912	92.16	12.418752	-56.822303	92.10	0.890	-0.600	1.060	92.13	-1.80	1.50	 	 	 	 	 	 	 	 	 	 	 	 	 	 	 	 	 	 	1581529752	7.82	14.48
12/02/2020 17:49:13	120220	12022020	174913	92.03	12.418753	-56.822268	91.98	0.130	0.510	0.760	92.01	-0.80	1.10	 	 	 	 	 	 	 	 	 	 	 	 	 	 	 	 	 	 	1581529753	7.30	13.52
12/02/2020 17:49:14	120220	12022020	174914	91.92	12.418755	-56.822232	91.88	-0.400	0.790	0.610	91.90	-0.60	1.00	 	 	 	 	 	 	 	 	 	 	 	 	 	 	 	 	 	 	1581529754	7.91	14.65
12/02/2020 17:49:15	120220	12022020	174915	91.76	12.418755	-56.822190	91.73	-0.530	0.420	0.910	91.73	-1.00	1.40	 	 	 	 	 	 	 	 	 	 	 	 	 	 	 	 	 	 	1581529755	8.72	16.15
12/02/2020 17:49:16	120220	12022020	174916	91.60	12.418752	-56.822147	91.59	-0.390	-0.300	1.060	91.58	-1.70	1.50	 	 	 	 	 	 	 	 	 	 	 	 	 	 	 	 	 	 	1581529756	9.15	16.95
12/02/2020 17:49:17	120220	12022020	174917	91.52	12.418750	-56.822103	91.52	-0.200	-0.850	1.180	91.51	-2.20	1.60	 	 	 	 	 	 	 	 	 	 	 	 	 	 	 	 	 	 	1581529757	9.31	17.24
12/02/2020 17:49:18	120220	12022020	174918	91.48	12.418747	-56.822062	91.48	-0.160	-0.770	1.500	91.48	-2.20	1.80	 	 	 	 	 	 	 	 	 	 	 	 	 	 	 	 	 	 	1581529758	8.83	16.35
12/02/2020 17:49:19	120220	12022020	174919	91.34	12.418743	-56.822023	91.30	-0.120	-0.210	1.530	91.28	-1.50	1.90	 	 	 	 	 	 	 	 	 	 	 	 	 	 	 	 	 	 	1581529759	8.11	15.02
12/02/2020 17:49:20	120220	12022020	174920	90.93	12.418745	-56.821985	90.85	0.160	0.110	1.470	90.93	-1.30	1.90	 	 	 	 	 	 	 	 	 	 	 	 	 	 	 	 	 	 	1581529760	7.99	14.80
12/02/2020 17:49:21	120220	12022020	174921	90.55	12.418747	-56.821945	90.53	0.540	-0.240	1.340	90.52	-1.70	1.70	 	 	 	 	 	 	 	 	 	 	 	 	 	 	 	 	 	 	1581529761	8.76	16.22
12/02/2020 17:49:22	120220	12022020	174922	90.56	12.418752	-56.821900	90.60	0.650	-0.720	1.040	90.60	-2.10	1.40	 	 	 	 	 	 	 	 	 	 	 	 	 	 	 	 	 	 	1581529762	9.41	17.43
12/02/2020 17:49:23	120220	12022020	174923	90.91	12.418755	-56.821857	90.98	0.320	-0.590	0.690	91.00	-1.90	1.10	 	 	 	 	 	 	 	 	 	 	 	 	 	 	 	 	 	 	1581529763	9.08	16.82
12/02/2020 17:49:24	120220	12022020	174924	91.39	12.418757	-56.821818	91.47	-0.200	-0.010	0.830	91.47	-1.30	1.30	 	 	 	 	 	 	 	 	 	 	 	 	 	 	 	 	 	 	1581529764	8.24	15.26
12/02/2020 17:49:25	120220	12022020	174925	91.64	12.418753	-56.821780	91.68	-0.570	0.440	1.570	91.64	-0.90	2.10	 	 	 	 	 	 	 	 	 	 	 	 	 	 	 	 	 	 	1581529765	8.02	14.85
12/02/2020 17:49:26	120220	12022020	174926	91.52	12.418747	-56.821742	91.52	-0.610	0.420	2.110	91.46	-1.00	2.50	 	 	 	 	 	 	 	 	 	 	 	 	 	 	 	 	 	 	1581529766	8.37	15.50
12/02/2020 17:49:27	120220	12022020	174927	91.25	12.418747	-56.821700	91.28	-0.380	-0.040	2.020	91.21	-1.50	2.40	 	 	 	 	 	 	 	 	 	 	 	 	 	 	 	 	 	 	1581529767	8.75	16.21
12/02/2020 17:49:28	120220	12022020	174928	91.18	12.418748	-56.821657	91.24	0.010	-0.780	1.570	91.20	-2.20	1.90	 	 	 	 	 	 	 	 	 	 	 	 	 	 	 	 	 	 	1581529768	9.20	17.04
12/02/2020 17:49:29	120220	12022020	174929	91.28	12.418752	-56.821612	91.32	0.390	-1.370	1.210	91.30	-2.80	1.60	 	 	 	 	 	 	 	 	 	 	 	 	 	 	 	 	 	 	1581529769	9.48	17.56
12/02/2020 17:49:30	120220	12022020	174930	91.42	12.418755	-56.821568	91.46	0.540	-1.310	0.760	91.42	-2.80	1.30	 	 	 	 	 	 	 	 	 	 	 	 	 	 	 	 	 	 	1581529770	9.24	17.11
12/02/2020 17:49:31	120220	12022020	174931	91.53	12.418758	-56.821527	91.54	0.360	-0.540	0.490	91.53	-1.80	0.90	 	 	 	 	 	 	 	 	 	 	 	 	 	 	 	 	 	 	1581529771	8.69	16.09
12/02/2020 17:49:32	120220	12022020	174932	91.44	12.418758	-56.821490	91.44	-0.110	0.630	0.730	91.44	-1.00	1.10	 	 	 	 	 	 	 	 	 	 	 	 	 	 	 	 	 	 	1581529772	7.99	14.80
12/02/2020 17:49:33	120220	12022020	174933	91.31	12.418757	-56.821453	91.32	-0.610	1.320	0.830	91.30	-0.00	1.20	 	 	 	 	 	 	 	 	 	 	 	 	 	 	 	 	 	 	1581529773	7.72	14.30
12/02/2020 17:49:34	120220	12022020	174934	91.28	12.418760	-56.821413	91.30	-0.710	0.840	0.520	91.28	-0.70	0.90	 	 	 	 	 	 	 	 	 	 	 	 	 	 	 	 	 	 	1581529774	8.48	15.70
12/02/2020 17:49:35	120220	12022020	174935	91.29	12.418762	-56.821367	91.30	-0.310	-0.440	0.400	91.29	-2.00	0.80	 	 	 	 	 	 	 	 	 	 	 	 	 	 	 	 	 	 	1581529775	9.60	17.78
12/02/2020 17:49:36	120220	12022020	174936	91.28	12.418762	-56.821320	91.29	0.320	-1.670	0.540	91.27	-3.10	1.00	 	 	 	 	 	 	 	 	 	 	 	 	 	 	 	 	 	 	1581529776	10.08	18.67
12/02/2020 17:49:37	120220	12022020	174937	91.20	12.418760	-56.821273	91.21	0.800	-2.010	0.790	91.18	-3.30	1.20	 	 	 	 	 	 	 	 	 	 	 	 	 	 	 	 	 	 	1581529777	9.83	18.21
12/02/2020 17:49:38	120220	12022020	174938	91.09	12.418760	-56.821232	91.11	0.760	-0.950	0.860	91.08	-2.10	1.30	 	 	 	 	 	 	 	 	 	 	 	 	 	 	 	 	 	 	1581529778	8.79	16.28
12/02/2020 17:49:39	120220	12022020	174939	91.01	12.418762	-56.821197	91.03	0.090	1.010	0.860	90.99	-0.20	1.30	 	 	 	 	 	 	 	 	 	 	 	 	 	 	 	 	 	 	1581529779	7.32	13.56
12/02/2020 17:49:40	120220	12022020	174940	90.91	12.418763	-56.821165	90.92	-0.770	2.190	0.850	90.89	0.80	1.30	 	 	 	 	 	 	 	 	 	 	 	 	 	 	 	 	 	 	1581529780	6.76	12.52
12/02/2020 17:49:41	120220	12022020	174941	90.79	12.418765	-56.821127	90.79	-0.960	1.100	0.640	90.76	-0.50	1.10	 	 	 	 	 	 	 	 	 	 	 	 	 	 	 	 	 	 	1581529781	8.22	15.22
12/02/2020 17:49:42	120220	12022020	174942	90.70	12.418768	-56.821077	90.74	-0.260	-1.410	0.650	90.70	-3.10	1.10	 	 	 	 	 	 	 	 	 	 	 	 	 	 	 	 	 	 	1581529782	10.62	19.67
12/02/2020 17:49:43	120220	12022020	174943	90.74	12.418768	-56.821023	90.79	0.460	-2.680	0.940	90.75	-4.00	1.40	 	 	 	 	 	 	 	 	 	 	 	 	 	 	 	 	 	 	1581529783	11.01	20.39
12/02/2020 17:49:44	120220	12022020	174944	90.78	12.418767	-56.820982	90.82	0.500	-1.690	1.260	90.78	-2.80	1.70	 	 	 	 	 	 	 	 	 	 	 	 	 	 	 	 	 	 	1581529784	8.91	16.50
12/02/2020 17:49:45	120220	12022020	174945	90.73	12.418765	-56.820948	90.74	-0.000	0.270	1.610	90.71	-0.90	2.10	 	 	 	 	 	 	 	 	 	 	 	 	 	 	 	 	 	 	1581529785	6.99	12.95
12/02/2020 17:49:46	120220	12022020	174946	90.58	12.418763	-56.820917	90.59	-0.300	1.250	1.730	90.58	-0.20	2.20	 	 	 	 	 	 	 	 	 	 	 	 	 	 	 	 	 	 	1581529786	7.01	12.98
12/02/2020 17:49:47	120220	12022020	174947	90.47	12.418765	-56.820875	90.48	-0.070	0.600	1.400	90.47	-0.90	1.80	 	 	 	 	 	 	 	 	 	 	 	 	 	 	 	 	 	 	1581529787	8.70	16.11
12/02/2020 17:49:48	120220	12022020	174948	90.55	12.418770	-56.820827	90.60	0.320	-0.500	0.840	90.61	-1.90	1.20	 	 	 	 	 	 	 	 	 	 	 	 	 	 	 	 	 	 	1581529788	10.08	18.67
12/02/2020 17:49:49	120220	12022020	174949	91.01	12.418775	-56.820782	91.14	0.230	-0.490	0.410	91.14	-1.80	0.80	 	 	 	 	 	 	 	 	 	 	 	 	 	 	 	 	 	 	1581529789	9.59	17.76
12/02/2020 17:49:50	120220	12022020	174950	91.71	12.418777	-56.820747	91.84	-0.430	0.480	0.440	91.84	-0.80	0.90	 	 	 	 	 	 	 	 	 	 	 	 	 	 	 	 	 	 	1581529790	7.74	14.33
12/02/2020 17:49:51	120220	12022020	174951	92.16	12.418775	-56.820712	92.20	-0.960	0.820	0.850	92.18	-0.60	1.30	 	 	 	 	 	 	 	 	 	 	 	 	 	 	 	 	 	 	1581529791	7.12	13.19
12/02/2020 17:49:52	120220	12022020	174952	92.02	12.418773	-56.820672	92.00	-0.490	-0.400	1.340	91.96	-2.00	1.80	 	 	 	 	 	 	 	 	 	 	 	 	 	 	 	 	 	 	1581529792	8.54	15.82
12/02/2020 17:49:53	120220	12022020	174953	91.74	12.418773	-56.820623	91.74	0.700	-1.970	1.380	91.71	-3.40	1.80	 	 	 	 	 	 	 	 	 	 	 	 	 	 	 	 	 	 	1581529793	10.15	18.80
12/02/2020 17:49:54	120220	12022020	174954	91.78	12.418777	-56.820577	91.84	1.440	-2.330	1.150	91.78	-3.80	1.60	 	 	 	 	 	 	 	 	 	 	 	 	 	 	 	 	 	 	1581529794	10.11	18.72
12/02/2020 17:49:55	120220	12022020	174955	92.08	12.418778	-56.820537	92.14	0.850	-0.890	1.120	92.15	-2.00	1.60	 	 	 	 	 	 	 	 	 	 	 	 	 	 	 	 	 	 	1581529795	8.49	15.72
12/02/2020 17:49:56	120220	12022020	174956	92.38	12.418777	-56.820505	92.42	-0.620	1.310	1.290	92.38	-0.50	1.70	 	 	 	 	 	 	 	 	 	 	 	 	 	 	 	 	 	 	1581529796	6.72	12.45
12/02/2020 17:49:57	120220	12022020	174957	92.62	12.418773	-56.820475	92.65	-1.710	2.560	1.320	92.65	1.20	1.70	 	 	 	 	 	 	 	 	 	 	 	 	 	 	 	 	 	 	1581529797	6.39	11.83
12/02/2020 17:49:58	120220	12022020	174958	92.75	12.418772	-56.820437	92.74	-1.450	1.570	1.180	92.75	-0.10	1.60	 	 	 	 	 	 	 	 	 	 	 	 	 	 	 	 	 	 	1581529798	7.98	14.78
12/02/2020 17:49:59	120220	12022020	174959	92.64	12.418770	-56.820388	92.59	-0.150	-0.870	1.070	92.59	-2.50	1.50	 	 	 	 	 	 	 	 	 	 	 	 	 	 	 	 	 	 	1581529799	10.16	18.82
12/02/2020 17:50:00	120220	12022020	175000	92.32	12.418770	-56.820337	92.25	1.100	-2.650	0.840	92.26	-4.10	1.20	 	 	 	 	 	 	 	 	 	 	 	 	 	 	 	 	 	 	1581529800	10.84	20.08
12/02/2020 17:50:01	120220	12022020	175001	92.15	12.418775	-56.820293	92.14	1.440	-2.160	0.480	92.17	-3.30	0.90	 	 	 	 	 	 	 	 	 	 	 	 	 	 	 	 	 	 	1581529801	9.44	17.48
12/02/2020 17:50:02	120220	12022020	175002	92.44	12.418778	-56.820260	92.52	0.740	0.040	0.430	92.55	-1.10	0.90	1015.30	26.50	26.60	20.70	20.70	839.0	70.0	70.0	394.0	28.6	347.00	15.00	74.00	10.70	60476	12063.0	27.4	27.4	1581529802	7.04	13.04
12/02/2020 17:50:03	120220	12022020	175003	93.07	12.418778	-56.820232	93.15	-0.340	1.810	0.640	93.19	0.50	1.10	 	 	 	 	 	 	 	 	 	 	 	 	 	 	 	 	 	 	1581529803	6.05	11.20
12/02/2020 17:50:04	120220	12022020	175004	93.36	12.418775	-56.820197	93.32	-0.960	1.580	1.070	93.32	0.00	1.60	 	 	 	 	 	 	 	 	 	 	 	 	 	 	 	 	 	 	1581529804	7.27	13.46
12/02/2020 17:50:05	120220	12022020	175005	92.85	12.418770	-56.820153	92.71	-0.660	-0.330	1.710	92.68	-2.00	2.20	 	 	 	 	 	 	 	 	 	 	 	 	 	 	 	 	 	 	1581529805	9.43	17.46
12/02/2020 17:50:06	120220	12022020	175006	92.05	12.418767	-56.820103	91.96	0.170	-1.990	2.110	91.93	-3.40	2.50	 	 	 	 	 	 	 	 	 	 	 	 	 	 	 	 	 	 	1581529806	10.49	19.43
12/02/2020 17:50:07	120220	12022020	175007	91.60	12.418765	-56.820058	91.60	0.700	-1.950	1.990	91.57	-3.20	2.40	 	 	 	 	 	 	 	 	 	 	 	 	 	 	 	 	 	 	1581529807	9.47	17.54
12/02/2020 17:50:08	120220	12022020	175008	91.57	12.418768	-56.820022	91.61	0.570	-0.690	1.360	91.57	-2.40	2.00	 	 	 	 	 	 	 	 	 	 	 	 	 	 	 	 	 	 	1581529808	7.86	14.56
12/02/2020 17:50:09	120220	12022020	175009	91.80	12.418772	-56.819987	91.86	0.080	0.460	0.720	91.85	-0.80	1.10	 	 	 	 	 	 	 	 	 	 	 	 	 	 	 	 	 	 	1581529809	7.36	13.63
12/02/2020 17:50:10	120220	12022020	175010	91.89	12.418772	-56.819948	91.88	-0.270	0.680	0.720	91.86	-0.70	1.20	 	 	 	 	 	 	 	 	 	 	 	 	 	 	 	 	 	 	1581529810	8.05	14.91
12/02/2020 17:50:11	120220	12022020	175011	91.58	12.418770	-56.819907	91.51	-0.410	0.350	1.030	91.48	-1.10	1.50	 	 	 	 	 	 	 	 	 	 	 	 	 	 	 	 	 	 	1581529811	8.90	16.48
12/02/2020 17:50:12	120220	12022020	175012	91.07	12.418768	-56.819865	91.01	-0.420	0.130	1.270	90.98	-1.30	1.70	 	 	 	 	 	 	 	 	 	 	 	 	 	 	 	 	 	 	1581529812	8.88	16.45
12/02/2020 17:50:13	120220	12022020	175013	90.75	12.418768	-56.819825	90.77	-0.260	0.010	1.400	90.74	-1.40	1.80	 	 	 	 	 	 	 	 	 	 	 	 	 	 	 	 	 	 	1581529813	8.47	15.69
12/02/2020 17:50:14	120220	12022020	175014	90.84	12.418768	-56.819783	90.91	0.070	-0.480	1.230	90.90	-1.90	1.60	 	 	 	 	 	 	 	 	 	 	 	 	 	 	 	 	 	 	1581529814	8.62	15.96
12/02/2020 17:50:15	120220	12022020	175015	91.15	12.418772	-56.819740	91.22	0.450	-1.170	0.910	91.20	-2.60	1.30	 	 	 	 	 	 	 	 	 	 	 	 	 	 	 	 	 	 	1581529815	9.18	17.00
12/02/2020 17:50:16	120220	12022020	175016	91.31	12.418773	-56.819697	91.34	0.640	-1.250	1.030	91.31	-2.60	1.50	 	 	 	 	 	 	 	 	 	 	 	 	 	 	 	 	 	 	1581529816	9.19	17.02
12/02/2020 17:50:17	120220	12022020	175017	91.25	12.418772	-56.819658	91.25	0.450	-0.300	1.470	91.22	-1.60	1.90	 	 	 	 	 	 	 	 	 	 	 	 	 	 	 	 	 	 	1581529817	8.21	15.20
12/02/2020 17:50:18	120220	12022020	175018	91.07	12.418772	-56.819623	91.07	-0.030	0.830	1.720	91.03	-0.50	2.20	 	 	 	 	 	 	 	 	 	 	 	 	 	 	 	 	 	 	1581529818	7.29	13.50
12/02/2020 17:50:19	120220	12022020	175019	90.95	12.418773	-56.819587	90.96	-0.380	0.820	1.550	90.94	-0.70	1.90	 	 	 	 	 	 	 	 	 	 	 	 	 	 	 	 	 	 	1581529819	7.71	14.28
12/02/2020 17:50:20	120220	12022020	175020	90.95	12.418777	-56.819543	90.95	-0.100	-0.600	1.110	90.95	-2.20	1.50	 	 	 	 	 	 	 	 	 	 	 	 	 	 	 	 	 	 	1581529820	9.36	17.33
12/02/2020 17:50:21	120220	12022020	175021	91.10	12.418782	-56.819493	91.16	0.400	-1.700	0.770	91.18	-3.10	1.20	 	 	 	 	 	 	 	 	 	 	 	 	 	 	 	 	 	 	1581529821	10.44	19.33
12/02/2020 17:50:22	120220	12022020	175022	91.58	12.418785	-56.819452	91.67	0.340	-1.030	0.860	91.58	-2.70	1.30	 	 	 	 	 	 	 	 	 	 	 	 	 	 	 	 	 	 	1581529822	9.10	16.85
12/02/2020 17:50:23	120220	12022020	175023	92.08	12.418783	-56.819417	92.13	-0.370	0.630	1.060	92.15	-0.60	1.50	 	 	 	 	 	 	 	 	 	 	 	 	 	 	 	 	 	 	1581529823	7.13	13.20
12/02/2020 17:50:24	120220	12022020	175024	92.25	12.418782	-56.819385	92.23	-1.010	1.500	1.160	92.25	0.10	1.60	 	 	 	 	 	 	 	 	 	 	 	 	 	 	 	 	 	 	1581529824	6.73	12.46
12/02/2020 17:50:25	120220	12022020	175025	92.20	12.418782	-56.819347	92.19	-0.880	0.680	1.190	92.20	-0.90	1.60	 	 	 	 	 	 	 	 	 	 	 	 	 	 	 	 	 	 	1581529825	8.13	15.06
12/02/2020 17:50:26	120220	12022020	175026	92.26	12.418782	-56.819300	92.27	0.060	-1.210	0.960	92.28	-2.80	1.40	 	 	 	 	 	 	 	 	 	 	 	 	 	 	 	 	 	 	1581529826	9.89	18.32
12/02/2020 17:50:27	120220	12022020	175027	92.34	12.418785	-56.819250	92.35	0.990	-2.250	0.450	92.38	-3.60	0.80	 	 	 	 	 	 	 	 	 	 	 	 	 	 	 	 	 	 	1581529827	10.49	19.43
12/02/2020 17:50:28	120220	12022020	175028	92.57	12.418788	-56.819208	92.57	1.050	-1.190	0.110	92.62	-2.30	0.60	 	 	 	 	 	 	 	 	 	 	 	 	 	 	 	 	 	 	1581529828	8.80	16.30
12/02/2020 17:50:29	120220	12022020	175029	92.80	12.418790	-56.819178	92.80	0.310	0.870	0.300	92.83	-0.30	0.80	 	 	 	 	 	 	 	 	 	 	 	 	 	 	 	 	 	 	1581529829	6.65	12.32
12/02/2020 17:50:30	120220	12022020	175030	92.83	12.418790	-56.819147	92.78	-0.430	1.660	0.590	92.80	0.20	1.10	 	 	 	 	 	 	 	 	 	 	 	 	 	 	 	 	 	 	1581529830	6.57	12.17
12/02/2020 17:50:31	120220	12022020	175031	92.64	12.418792	-56.819107	92.60	-0.630	0.590	0.710	92.60	-1.00	1.20	 	 	 	 	 	 	 	 	 	 	 	 	 	 	 	 	 	 	1581529831	8.50	15.74
12/02/2020 17:50:32	120220	12022020	175032	92.51	12.418792	-56.819060	92.51	-0.420	-0.970	0.750	92.51	-2.50	1.20	 	 	 	 	 	 	 	 	 	 	 	 	 	 	 	 	 	 	1581529832	9.90	18.33
12/02/2020 17:50:33	120220	12022020	175033	92.55	12.418790	-56.819013	92.56	-0.130	-1.540	0.880	92.55	-2.90	1.40	 	 	 	 	 	 	 	 	 	 	 	 	 	 	 	 	 	 	1581529833	9.60	17.78
12/02/2020 17:50:34	120220	12022020	175034	92.50	12.418787	-56.818975	92.45	0.030	-0.950	1.060	92.46	-2.20	1.50	 	 	 	 	 	 	 	 	 	 	 	 	 	 	 	 	 	 	1581529834	8.28	15.33
12/02/2020 17:50:35	120220	12022020	175035	92.18	12.418787	-56.818938	92.10	0.220	-0.320	0.960	92.10	-1.70	1.40	 	 	 	 	 	 	 	 	 	 	 	 	 	 	 	 	 	 	1581529835	7.75	14.35
12/02/2020 17:50:36	120220	12022020	175036	91.84	12.418788	-56.818898	91.81	0.490	-0.220	0.610	91.81	-1.60	1.00	 	 	 	 	 	 	 	 	 	 	 	 	 	 	 	 	 	 	1581529836	8.50	15.74
12/02/2020 17:50:37	120220	12022020	175037	91.78	12.418793	-56.818857	91.81	0.450	-0.020	0.420	91.80	-1.40	0.90	 	 	 	 	 	 	 	 	 	 	 	 	 	 	 	 	 	 	1581529837	8.90	16.48
12/02/2020 17:50:38	120220	12022020	175038	92.01	12.418795	-56.818817	92.07	-0.070	0.420	0.300	92.08	-0.90	0.70	 	 	 	 	 	 	 	 	 	 	 	 	 	 	 	 	 	 	1581529838	8.31	15.39
12/02/2020 17:50:39	120220	12022020	175039	92.40	12.418795	-56.818778	92.48	-0.610	0.600	0.330	92.48	-0.80	0.80	 	 	 	 	 	 	 	 	 	 	 	 	 	 	 	 	 	 	1581529839	8.00	14.82
12/02/2020 17:50:40	120220	12022020	175040	92.77	12.418792	-56.818740	92.84	-0.670	0.260	0.750	92.82	-1.20	1.20	 	 	 	 	 	 	 	 	 	 	 	 	 	 	 	 	 	 	1581529840	8.35	15.46
12/02/2020 17:50:41	120220	12022020	175041	92.91	12.418787	-56.818698	92.93	-0.210	-0.520	1.160	92.90	-2.00	1.60	 	 	 	 	 	 	 	 	 	 	 	 	 	 	 	 	 	 	1581529841	8.90	16.48
12/02/2020 17:50:42	120220	12022020	175042	92.68	12.418785	-56.818653	92.62	0.420	-1.280	1.430	92.58	-2.70	1.90	 	 	 	 	 	 	 	 	 	 	 	 	 	 	 	 	 	 	1581529842	9.35	17.32
12/02/2020 17:50:43	120220	12022020	175043	92.13	12.418785	-56.818612	92.05	0.700	-1.220	1.610	92.02	-2.50	2.00	 	 	 	 	 	 	 	 	 	 	 	 	 	 	 	 	 	 	1581529843	9.05	16.76
12/02/2020 17:50:44	120220	12022020	175044	91.70	12.418788	-56.818572	91.68	0.470	-0.370	1.260	91.67	-1.60	1.60	 	 	 	 	 	 	 	 	 	 	 	 	 	 	 	 	 	 	1581529844	8.21	15.20
12/02/2020 17:50:45	120220	12022020	175045	91.74	12.418797	-56.818535	91.80	0.100	0.290	0.430	91.82	-1.10	0.80	 	 	 	 	 	 	 	 	 	 	 	 	 	 	 	 	 	 	1581529845	8.01	14.83
12/02/2020 17:50:46	120220	12022020	175046	92.28	12.418803	-56.818495	92.38	-0.130	0.210	-0.000	92.28	-1.10	0.50	 	 	 	 	 	 	 	 	 	 	 	 	 	 	 	 	 	 	1581529846	8.62	15.96
12/02/2020 17:50:47	120220	12022020	175047	92.75	12.418803	-56.818452	92.78	-0.220	-0.290	0.340	92.79	-1.70	0.90	 	 	 	 	 	 	 	 	 	 	 	 	 	 	 	 	 	 	1581529847	9.09	16.83
12/02/2020 17:50:48	120220	12022020	175048	92.75	12.418798	-56.818408	92.75	-0.180	-0.750	0.970	92.72	-2.20	1.50	 	 	 	 	 	 	 	 	 	 	 	 	 	 	 	 	 	 	1581529848	9.36	17.33
12/02/2020 17:50:49	120220	12022020	175049	92.55	12.418792	-56.818365	92.57	-0.120	-0.620	1.600	92.52	-1.90	2.10	 	 	 	 	 	 	 	 	 	 	 	 	 	 	 	 	 	 	1581529849	9.18	17.00
12/02/2020 17:50:50	120220	12022020	175050	92.48	12.418787	-56.818327	92.53	-0.240	0.290	1.660	92.50	-1.00	2.00	 	 	 	 	 	 	 	 	 	 	 	 	 	 	 	 	 	 	1581529850	8.27	15.32
12/02/2020 17:50:51	120220	12022020	175051	92.66	12.418790	-56.818290	92.71	-0.540	1.080	0.920	92.71	-0.30	1.30	 	 	 	 	 	 	 	 	 	 	 	 	 	 	 	 	 	 	1581529851	7.57	14.02
12/02/2020 17:50:52	120220	12022020	175052	92.89	12.418795	-56.818253	92.91	-0.650	0.800	0.200	92.93	-0.70	0.60	 	 	 	 	 	 	 	 	 	 	 	 	 	 	 	 	 	 	1581529852	8.05	14.91
12/02/2020 17:50:53	120220	12022020	175053	93.09	12.418800	-56.818210	93.10	-0.050	-0.720	-0.150	93.12	-2.30	0.30	 	 	 	 	 	 	 	 	 	 	 	 	 	 	 	 	 	 	1581529853	9.24	17.11
12/02/2020 17:50:54	120220	12022020	175054	93.09	12.418802	-56.818160	93.07	1.100	-2.490	-0.140	93.08	-4.00	0.30	 	 	 	 	 	 	 	 	 	 	 	 	 	 	 	 	 	 	1581529854	10.54	19.52
12/02/2020 17:50:55	120220	12022020	175055	93.09	12.418803	-56.818112	93.10	1.590	-2.280	0.080	93.12	-3.40	0.60	 	 	 	 	 	 	 	 	 	 	 	 	 	 	 	 	 	 	1581529855	10.14	18.78
12/02/2020 17:50:56	120220	12022020	175056	93.34	12.418803	-56.818077	93.42	0.690	0.150	0.690	93.42	-0.90	1.20	 	 	 	 	 	 	 	 	 	 	 	 	 	 	 	 	 	 	1581529856	7.42	13.74
12/02/2020 17:50:57	120220	12022020	175057	93.85	12.418800	-56.818050	93.95	-0.940	2.600	1.260	93.96	1.40	1.70	 	 	 	 	 	 	 	 	 	 	 	 	 	 	 	 	 	 	1581529857	5.55	10.28
12/02/2020 17:50:58	120220	12022020	175058	94.30	12.418797	-56.818020	94.36	-1.830	2.630	1.410	94.30	1.50	1.80	 	 	 	 	 	 	 	 	 	 	 	 	 	 	 	 	 	 	1581529858	6.39	11.83
12/02/2020 17:50:59	120220	12022020	175059	94.38	12.418793	-56.817977	94.37	-1.040	-0.190	1.360	94.35	-2.00	1.80	 	 	 	 	 	 	 	 	 	 	 	 	 	 	 	 	 	 	1581529859	9.42	17.45
12/02/2020 17:51:00	120220	12022020	175100	94.21	12.418790	-56.817922	94.22	0.640	-3.290	1.280	94.21	-4.10	1.80	 	 	 	 	 	 	 	 	 	 	 	 	 	 	 	 	 	 	1581529860	11.65	21.58
12/02/2020 17:51:01	120220	12022020	175101	94.32	12.418790	-56.817870	94.39	1.480	-3.450	1.090	94.39	-4.60	1.50	 	 	 	 	 	 	 	 	 	 	 	 	 	 	 	 	 	 	1581529861	10.71	19.83
12/02/2020 17:51:02	120220	12022020	175102	94.80	12.418792	-56.817837	94.89	0.690	-0.550	0.970	94.92	-1.50	1.40	1015.30	26.50	26.60	20.50	20.60	832.0	69.0	69.0	394.0	28.6	350.00	15.70	79.00	11.40	60064	6898.0	27.4	27.4	1581529862	6.98	12.93
12/02/2020 17:51:03	120220	12022020	175103	95.46	12.418790	-56.817815	95.57	-1.020	2.770	0.940	95.60	1.70	1.40	 	 	 	 	 	 	 	 	 	 	 	 	 	 	 	 	 	 	1581529863	4.66	8.63
12/02/2020 17:51:04	120220	12022020	175104	96.08	12.418785	-56.817790	96.14	-2.070	3.620	0.700	96.15	2.10	1.10	 	 	 	 	 	 	 	 	 	 	 	 	 	 	 	 	 	 	1581529864	5.28	9.78
12/02/2020 17:51:05	120220	12022020	175105	96.24	12.418780	-56.817750	96.21	-1.330	1.130	0.350	96.21	-0.70	0.80	 	 	 	 	 	 	 	 	 	 	 	 	 	 	 	 	 	 	1581529865	8.51	15.76
12/02/2020 17:51:06	120220	12022020	175106	95.92	12.418777	-56.817698	95.83	0.480	-2.100	0.140	95.84	-3.70	0.60	 	 	 	 	 	 	 	 	 	 	 	 	 	 	 	 	 	 	1581529866	11.08	20.52
12/02/2020 17:51:07	120220	12022020	175107	95.66	12.418777	-56.817650	95.62	1.710	-2.940	-0.120	95.66	-4.20	0.30	 	 	 	 	 	 	 	 	 	 	 	 	 	 	 	 	 	 	1581529867	10.26	19.00
12/02/2020 17:51:08	120220	12022020	175108	95.73	12.418780	-56.817615	95.72	1.530	-1.370	-0.280	95.76	-2.50	0.20	 	 	 	 	 	 	 	 	 	 	 	 	 	 	 	 	 	 	1581529868	7.35	13.61
12/02/2020 17:51:09	120220	12022020	175109	95.90	12.418780	-56.817587	95.87	0.510	0.240	-0.070	95.91	-1.00	0.40	 	 	 	 	 	 	 	 	 	 	 	 	 	 	 	 	 	 	1581529869	5.92	10.96
12/02/2020 17:51:10	120220	12022020	175110	95.75	12.418775	-56.817553	95.65	-0.180	0.410	0.780	95.75	-0.90	1.00	 	 	 	 	 	 	 	 	 	 	 	 	 	 	 	 	 	 	1581529870	7.23	13.39
12/02/2020 17:51:11	120220	12022020	175111	95.25	12.418765	-56.817513	95.13	-0.290	0.100	1.610	95.12	-1.30	2.10	 	 	 	 	 	 	 	 	 	 	 	 	 	 	 	 	 	 	1581529871	8.76	16.22
12/02/2020 17:51:12	120220	12022020	175112	94.65	12.418757	-56.817473	94.57	-0.210	0.250	1.900	94.65	-1.20	2.30	 	 	 	 	 	 	 	 	 	 	 	 	 	 	 	 	 	 	1581529872	8.48	15.70
12/02/2020 17:51:13	120220	12022020	175113	94.29	12.418753	-56.817437	94.25	-0.270	0.500	1.830	94.25	-0.90	2.20	 	 	 	 	 	 	 	 	 	 	 	 	 	 	 	 	 	 	1581529873	7.77	14.39
12/02/2020 17:51:14	120220	12022020	175114	94.15	12.418752	-56.817400	94.12	-0.430	0.180	1.550	94.14	-1.30	1.90	 	 	 	 	 	 	 	 	 	 	 	 	 	 	 	 	 	 	1581529874	7.84	14.52
12/02/2020 17:51:15	120220	12022020	175115	94.07	12.418750	-56.817360	94.02	-0.440	-0.710	1.250	94.04	-2.20	1.70	 	 	 	 	 	 	 	 	 	 	 	 	 	 	 	 	 	 	1581529875	8.51	15.76
12/02/2020 17:51:16	120220	12022020	175116	93.79	12.418747	-56.817318	93.68	-0.160	-1.260	1.340	93.69	-2.60	1.80	 	 	 	 	 	 	 	 	 	 	 	 	 	 	 	 	 	 	1581529876	8.86	16.41
12/02/2020 17:51:17	120220	12022020	175117	93.19	12.418740	-56.817280	93.04	0.200	-0.800	1.690	93.05	-2.10	2.20	 	 	 	 	 	 	 	 	 	 	 	 	 	 	 	 	 	 	1581529877	8.19	15.17
12/02/2020 17:51:18	120220	12022020	175118	92.57	12.418738	-56.817245	92.47	0.460	0.030	1.680	92.48	-1.30	2.10	 	 	 	 	 	 	 	 	 	 	 	 	 	 	 	 	 	 	1581529878	7.36	13.63
12/02/2020 17:51:19	120220	12022020	175119	92.27	12.418738	-56.817210	92.23	0.620	0.290	1.190	92.25	-1.10	1.60	 	 	 	 	 	 	 	 	 	 	 	 	 	 	 	 	 	 	1581529879	7.58	14.04
12/02/2020 17:51:20	120220	12022020	175120	92.25	12.418743	-56.817170	92.23	0.670	-0.160	0.730	92.24	-1.60	1.20	 	 	 	 	 	 	 	 	 	 	 	 	 	 	 	 	 	 	1581529880	8.46	15.67
12/02/2020 17:51:21	120220	12022020	175121	92.11	12.418745	-56.817127	92.05	0.580	-0.760	0.830	92.04	-2.20	1.30	 	 	 	 	 	 	 	 	 	 	 	 	 	 	 	 	 	 	1581529881	8.98	16.63
12/02/2020 17:51:22	120220	12022020	175122	91.77	12.418745	-56.817087	91.73	0.330	-0.710	1.310	91.71	-2.00	1.80	 	 	 	 	 	 	 	 	 	 	 	 	 	 	 	 	 	 	1581529882	8.75	16.21
12/02/2020 17:51:23	120220	12022020	175123	91.70	12.418743	-56.817050	91.76	-0.150	0.250	1.760	91.74	-1.00	2.20	 	 	 	 	 	 	 	 	 	 	 	 	 	 	 	 	 	 	1581529883	7.69	14.24
12/02/2020 17:51:24	120220	12022020	175124	92.03	12.418742	-56.817017	92.15	-0.720	1.040	1.890	92.03	-0.40	2.30	 	 	 	 	 	 	 	 	 	 	 	 	 	 	 	 	 	 	1581529884	6.89	12.76
12/02/2020 17:51:25	120220	12022020	175125	92.40	12.418737	-56.816982	92.46	-0.850	0.450	1.850	92.42	-1.10	2.30	 	 	 	 	 	 	 	 	 	 	 	 	 	 	 	 	 	 	1581529885	7.66	14.19
12/02/2020 17:51:26	120220	12022020	175126	92.33	12.418733	-56.816937	92.32	-0.290	-1.060	1.960	92.28	-2.60	2.40	 	 	 	 	 	 	 	 	 	 	 	 	 	 	 	 	 	 	1581529886	9.32	17.26
12/02/2020 17:51:27	120220	12022020	175127	92.07	12.418730	-56.816892	92.08	0.460	-1.850	1.870	92.04	-3.20	2.30	 	 	 	 	 	 	 	 	 	 	 	 	 	 	 	 	 	 	1581529887	9.64	17.85
12/02/2020 17:51:28	120220	12022020	175128	92.03	12.418730	-56.816852	92.09	0.790	-1.250	1.350	92.06	-2.50	1.70	 	 	 	 	 	 	 	 	 	 	 	 	 	 	 	 	 	 	1581529888	8.49	15.72
12/02/2020 17:51:29	120220	12022020	175129	92.16	12.418737	-56.816817	92.19	0.490	0.070	0.720	92.19	-1.20	1.10	 	 	 	 	 	 	 	 	 	 	 	 	 	 	 	 	 	 	1581529889	7.44	13.78
12/02/2020 17:51:30	120220	12022020	175130	92.28	12.418742	-56.816783	92.30	-0.270	1.210	0.290	92.30	-0.10	0.70	 	 	 	 	 	 	 	 	 	 	 	 	 	 	 	 	 	 	1581529890	7.07	13.09
12/02/2020 17:51:31	120220	12022020	175131	92.38	12.418742	-56.816750	92.38	-0.940	1.370	0.130	92.39	-0.10	0.60	 	 	 	 	 	 	 	 	 	 	 	 	 	 	 	 	 	 	1581529891	7.29	13.50
12/02/2020 17:51:32	120220	12022020	175132	92.32	12.418740	-56.816710	92.30	-0.750	0.100	0.340	92.28	-1.50	0.80	 	 	 	 	 	 	 	 	 	 	 	 	 	 	 	 	 	 	1581529892	8.43	15.61
12/02/2020 17:51:33	120220	12022020	175133	92.10	12.418738	-56.816663	92.09	0.270	-1.690	0.670	92.07	-3.20	1.10	 	 	 	 	 	 	 	 	 	 	 	 	 	 	 	 	 	 	1581529893	9.91	18.35
12/02/2020 17:51:34	120220	12022020	175134	91.94	12.418737	-56.816617	91.93	1.060	-2.220	0.720	91.94	-3.60	1.20	 	 	 	 	 	 	 	 	 	 	 	 	 	 	 	 	 	 	1581529894	9.78	18.11
12/02/2020 17:51:35	120220	12022020	175135	91.82	12.418737	-56.816578	91.81	0.900	-1.130	0.780	91.81	-2.30	1.20	 	 	 	 	 	 	 	 	 	 	 	 	 	 	 	 	 	 	1581529895	8.17	15.13
12/02/2020 17:51:36	120220	12022020	175136	91.85	12.418737	-56.816545	91.88	0.070	0.660	0.900	91.85	-1.20	1.30	 	 	 	 	 	 	 	 	 	 	 	 	 	 	 	 	 	 	1581529896	6.78	12.56
12/02/2020 17:51:37	120220	12022020	175137	92.08	12.418737	-56.816515	92.12	-0.730	1.950	1.000	92.11	0.60	1.50	 	 	 	 	 	 	 	 	 	 	 	 	 	 	 	 	 	 	1581529897	6.46	11.96
12/02/2020 17:51:38	120220	12022020	175138	92.10	12.418733	-56.816480	92.08	-0.950	1.700	1.160	92.06	0.10	1.60	 	 	 	 	 	 	 	 	 	 	 	 	 	 	 	 	 	 	1581529898	7.30	13.52
12/02/2020 17:51:39	120220	12022020	175139	91.76	12.418732	-56.816438	91.71	-0.480	-0.160	1.280	91.68	-1.80	1.70	 	 	 	 	 	 	 	 	 	 	 	 	 	 	 	 	 	 	1581529899	8.99	16.65
12/02/2020 17:51:40	120220	12022020	175140	91.23	12.418730	-56.816390	91.16	0.340	-2.300	1.590	91.11	-3.90	2.10	 	 	 	 	 	 	 	 	 	 	 	 	 	 	 	 	 	 	1581529900	10.29	19.06
12/02/2020 17:51:41	120220	12022020	175141	90.70	12.418730	-56.816343	90.66	0.770	-2.680	1.790	90.63	-3.90	2.20	 	 	 	 	 	 	 	 	 	 	 	 	 	 	 	 	 	 	1581529901	9.84	18.22
12/02/2020 17:51:42	120220	12022020	175142	90.52	12.418730	-56.816307	90.53	0.420	-0.870	1.590	90.53	-2.00	2.00	 	 	 	 	 	 	 	 	 	 	 	 	 	 	 	 	 	 	1581529902	7.59	14.06
12/02/2020 17:51:43	120220	12022020	175143	90.75	12.418733	-56.816278	90.85	-0.390	1.310	1.290	90.85	0.10	1.70	 	 	 	 	 	 	 	 	 	 	 	 	 	 	 	 	 	 	1581529903	5.93	10.98
12/02/2020 17:51:44	120220	12022020	175144	91.32	12.418733	-56.816248	91.44	-0.930	1.940	1.090	91.43	0.50	1.50	 	 	 	 	 	 	 	 	 	 	 	 	 	 	 	 	 	 	1581529904	6.47	11.98
12/02/2020 17:51:45	120220	12022020	175145	91.68	12.418730	-56.816208	91.71	-0.730	0.800	1.230	91.67	-0.80	1.70	 	 	 	 	 	 	 	 	 	 	 	 	 	 	 	 	 	 	1581529905	8.34	15.45
12/02/2020 17:51:46	120220	12022020	175146	91.28	12.418725	-56.816163	91.17	0.070	-0.980	1.670	91.12	-2.50	2.10	 	 	 	 	 	 	 	 	 	 	 	 	 	 	 	 	 	 	1581529906	9.72	18.00
12/02/2020 17:51:47	120220	12022020	175147	90.36	12.418723	-56.816117	90.24	0.880	-2.040	1.950	90.19	-3.50	2.40	 	 	 	 	 	 	 	 	 	 	 	 	 	 	 	 	 	 	1581529907	9.80	18.15
12/02/2020 17:51:48	120220	12022020	175148	89.78	12.418727	-56.816075	89.80	1.110	-1.710	1.810	89.78	-3.30	2.30	 	 	 	 	 	 	 	 	 	 	 	 	 	 	 	 	 	 	1581529908	8.82	16.33
12/02/2020 17:51:49	120220	12022020	175149	89.95	12.418733	-56.816040	90.06	0.580	-0.290	1.180	90.05	-1.50	1.50	 	 	 	 	 	 	 	 	 	 	 	 	 	 	 	 	 	 	1581529909	7.56	14.00
12/02/2020 17:51:50	120220	12022020	175150	90.46	12.418740	-56.816008	90.53	-0.350	1.220	0.660	90.53	-0.00	1.10	 	 	 	 	 	 	 	 	 	 	 	 	 	 	 	 	 	 	1581529910	6.77	12.54
12/02/2020 17:51:51	120220	12022020	175151	90.69	12.418740	-56.815975	90.73	-1.070	1.620	0.870	90.71	0.20	1.40	 	 	 	 	 	 	 	 	 	 	 	 	 	 	 	 	 	 	1581529911	6.99	12.95
12/02/2020 17:51:52	120220	12022020	175152	90.74	12.418737	-56.815937	90.78	-1.110	0.550	1.330	90.74	-1.00	1.80	 	 	 	 	 	 	 	 	 	 	 	 	 	 	 	 	 	 	1581529912	8.39	15.54
12/02/2020 17:51:53	120220	12022020	175153	90.73	12.418732	-56.815892	90.75	-0.470	-1.000	1.560	90.71	-2.50	2.00	 	 	 	 	 	 	 	 	 	 	 	 	 	 	 	 	 	 	1581529913	9.58	17.74
12/02/2020 17:51:54	120220	12022020	175154	90.64	12.418730	-56.815847	90.67	0.370	-1.670	1.450	90.62	-3.00	1.90	 	 	 	 	 	 	 	 	 	 	 	 	 	 	 	 	 	 	1581529914	9.41	17.43
12/02/2020 17:51:55	120220	12022020	175155	90.51	12.418732	-56.815807	90.52	0.830	-1.170	1.200	90.47	-2.40	1.60	 	 	 	 	 	 	 	 	 	 	 	 	 	 	 	 	 	 	1581529915	8.28	15.33
12/02/2020 17:51:56	120220	12022020	175156	90.29	12.418735	-56.815772	90.27	0.710	-0.230	1.020	90.23	-1.50	1.40	 	 	 	 	 	 	 	 	 	 	 	 	 	 	 	 	 	 	1581529916	7.48	13.85
12/02/2020 17:51:57	120220	12022020	175157	89.96	12.418738	-56.815737	89.92	0.220	0.330	0.760	89.90	-1.00	1.20	 	 	 	 	 	 	 	 	 	 	 	 	 	 	 	 	 	 	1581529917	7.54	13.96
12/02/2020 17:51:58	120220	12022020	175158	89.68	12.418743	-56.815698	89.67	-0.210	0.220	0.600	89.65	-1.20	1.10	 	 	 	 	 	 	 	 	 	 	 	 	 	 	 	 	 	 	1581529918	8.17	15.13
12/02/2020 17:51:59	120220	12022020	175159	89.69	12.418747	-56.815657	89.77	-0.280	-0.250	0.540	89.76	-1.70	1.00	 	 	 	 	 	 	 	 	 	 	 	 	 	 	 	 	 	 	1581529919	8.77	16.24
12/02/2020 17:52:00	120220	12022020	175200	90.09	12.418750	-56.815615	90.19	-0.070	-0.650	0.500	90.09	-2.00	0.90	 	 	 	 	 	 	 	 	 	 	 	 	 	 	 	 	 	 	1581529920	8.99	16.65
12/02/2020 17:52:01	120220	12022020	175201	90.29	12.418748	-56.815573	90.32	0.000	-0.530	0.990	90.28	-1.80	1.50	 	 	 	 	 	 	 	 	 	 	 	 	 	 	 	 	 	 	1581529921	8.74	16.19
12/02/2020 17:52:02	120220	12022020	175202	90.06	12.418743	-56.815535	90.06	-0.320	0.130	1.720	90.06	-1.40	2.00	1015.30	26.50	26.60	20.50	20.50	831.0	69.0	69.0	394.0	28.6	348.00	15.70	76.00	11.60	59972	13396.0	27.4	27.4	1581529922	8.04	14.89
12/02/2020 17:52:03	120220	12022020	175203	89.70	12.418740	-56.815500	89.74	-0.730	0.690	2.010	89.67	-0.70	2.40	 	 	 	 	 	 	 	 	 	 	 	 	 	 	 	 	 	 	1581529923	7.57	14.02
12/02/2020 17:52:04	120220	12022020	175204	89.63	12.418740	-56.815463	89.70	-0.650	0.430	1.660	89.64	-1.10	2.00	 	 	 	 	 	 	 	 	 	 	 	 	 	 	 	 	 	 	1581529924	7.90	14.63
12/02/2020 17:52:05	120220	12022020	175205	89.68	12.418745	-56.815420	89.71	0.110	-0.760	1.040	89.67	-2.30	1.40	 	 	 	 	 	 	 	 	 	 	 	 	 	 	 	 	 	 	1581529925	9.03	16.72
12/02/2020 17:52:06	120220	12022020	175206	89.54	12.418752	-56.815373	89.54	1.020	-1.750	0.640	89.51	-3.10	1.10	 	 	 	 	 	 	 	 	 	 	 	 	 	 	 	 	 	 	1581529926	9.93	18.39
12/02/2020 17:52:07	120220	12022020	175207	89.54	12.418758	-56.815332	89.61	1.240	-1.210	0.590	89.59	-2.40	1.00	 	 	 	 	 	 	 	 	 	 	 	 	 	 	 	 	 	 	1581529927	9.03	16.72
12/02/2020 17:52:08	120220	12022020	175208	90.00	12.418762	-56.815297	90.16	0.590	0.330	0.670	90.14	-0.90	1.10	 	 	 	 	 	 	 	 	 	 	 	 	 	 	 	 	 	 	1581529928	7.28	13.48
12/02/2020 17:52:09	120220	12022020	175209	90.67	12.418763	-56.815265	90.77	-0.330	1.170	1.040	90.75	-0.20	1.60	 	 	 	 	 	 	 	 	 	 	 	 	 	 	 	 	 	 	1581529929	6.89	12.76
12/02/2020 17:52:10	120220	12022020	175210	90.82	12.418758	-56.815227	90.82	-0.860	0.740	1.720	90.78	-0.80	2.20	 	 	 	 	 	 	 	 	 	 	 	 	 	 	 	 	 	 	1581529930	8.12	15.04
12/02/2020 17:52:11	120220	12022020	175211	90.41	12.418753	-56.815183	90.36	-0.860	-0.280	2.190	90.30	-1.80	2.60	 	 	 	 	 	 	 	 	 	 	 	 	 	 	 	 	 	 	1581529931	9.18	17.00
12/02/2020 17:52:12	120220	12022020	175212	89.96	12.418753	-56.815140	89.95	-0.470	-1.100	2.190	89.91	-2.50	2.60	 	 	 	 	 	 	 	 	 	 	 	 	 	 	 	 	 	 	1581529932	9.32	17.26
12/02/2020 17:52:13	120220	12022020	175213	89.91	12.418757	-56.815097	89.99	0.060	-1.330	1.660	89.96	-2.70	2.00	 	 	 	 	 	 	 	 	 	 	 	 	 	 	 	 	 	 	1581529933	8.98	16.63
12/02/2020 17:52:14	120220	12022020	175214	90.24	12.418762	-56.815057	90.32	0.460	-1.050	0.810	90.31	-2.40	1.20	 	 	 	 	 	 	 	 	 	 	 	 	 	 	 	 	 	 	1581529934	8.61	15.95
12/02/2020 17:52:15	120220	12022020	175215	90.59	12.418767	-56.815017	90.64	0.590	-0.490	0.210	90.64	-1.80	0.60	 	 	 	 	 	 	 	 	 	 	 	 	 	 	 	 	 	 	1581529935	8.45	15.65
12/02/2020 17:52:16	120220	12022020	175216	90.81	12.418770	-56.814978	90.85	0.370	0.480	0.250	90.84	-0.80	0.70	 	 	 	 	 	 	 	 	 	 	 	 	 	 	 	 	 	 	1581529936	8.04	14.89
12/02/2020 17:52:17	120220	12022020	175217	90.90	12.418772	-56.814943	90.93	-0.090	1.330	0.550	90.90	-0.00	1.00	 	 	 	 	 	 	 	 	 	 	 	 	 	 	 	 	 	 	1581529937	7.45	13.80
12/02/2020 17:52:18	120220	12022020	175218	90.89	12.418772	-56.814907	90.91	-0.420	1.070	0.620	90.88	-0.40	1.10	 	 	 	 	 	 	 	 	 	 	 	 	 	 	 	 	 	 	1581529938	7.84	14.52
12/02/2020 17:52:19	120220	12022020	175219	90.82	12.418773	-56.814863	90.86	-0.300	-0.380	0.790	90.81	-2.00	1.30	 	 	 	 	 	 	 	 	 	 	 	 	 	 	 	 	 	 	1581529939	9.07	16.80
12/02/2020 17:52:20	120220	12022020	175220	90.76	12.418773	-56.814817	90.80	0.230	-1.980	1.090	90.74	-3.50	1.60	 	 	 	 	 	 	 	 	 	 	 	 	 	 	 	 	 	 	1581529940	10.07	18.65
12/02/2020 17:52:21	120220	12022020	175221	90.58	12.418772	-56.814770	90.59	0.710	-2.350	1.220	90.54	-3.60	1.70	 	 	 	 	 	 	 	 	 	 	 	 	 	 	 	 	 	 	1581529941	9.80	18.15
12/02/2020 17:52:22	120220	12022020	175222	90.34	12.418773	-56.814730	90.35	0.700	-1.170	1.220	90.31	-2.30	1.70	 	 	 	 	 	 	 	 	 	 	 	 	 	 	 	 	 	 	1581529942	8.44	15.63
12/02/2020 17:52:23	120220	12022020	175223	90.29	12.418775	-56.814697	90.36	0.060	0.730	1.320	90.32	-0.40	1.80	 	 	 	 	 	 	 	 	 	 	 	 	 	 	 	 	 	 	1581529943	7.21	13.35
12/02/2020 17:52:24	120220	12022020	175224	90.60	12.418777	-56.814663	90.72	-0.910	2.150	1.250	90.60	0.50	1.70	 	 	 	 	 	 	 	 	 	 	 	 	 	 	 	 	 	 	1581529944	6.76	12.52
12/02/2020 17:52:25	120220	12022020	175225	91.04	12.418778	-56.814628	91.12	-1.490	2.080	0.880	91.10	0.50	1.30	 	 	 	 	 	 	 	 	 	 	 	 	 	 	 	 	 	 	1581529945	7.35	13.61
12/02/2020 17:52:26	120220	12022020	175226	91.21	12.418778	-56.814587	91.23	-1.010	0.120	0.730	91.21	-0.70	1.20	 	 	 	 	 	 	 	 	 	 	 	 	 	 	 	 	 	 	1581529946	8.99	16.65
12/02/2020 17:52:27	120220	12022020	175227	91.01	12.418778	-56.814537	90.99	0.330	-2.420	1.000	90.95	-4.00	1.50	 	 	 	 	 	 	 	 	 	 	 	 	 	 	 	 	 	 	1581529947	10.70	19.82
12/02/2020 17:52:28	120220	12022020	175228	90.72	12.418777	-56.814487	90.73	1.470	-3.280	1.190	90.69	-4.60	1.60	 	 	 	 	 	 	 	 	 	 	 	 	 	 	 	 	 	 	1581529948	10.55	19.54
12/02/2020 17:52:29	120220	12022020	175229	90.68	12.418780	-56.814447	90.73	1.570	-1.860	1.030	90.71	-3.00	1.40	 	 	 	 	 	 	 	 	 	 	 	 	 	 	 	 	 	 	1581529949	8.48	15.70
12/02/2020 17:52:30	120220	12022020	175230	90.88	12.418783	-56.814413	90.95	0.760	0.350	0.820	90.94	-0.80	1.30	 	 	 	 	 	 	 	 	 	 	 	 	 	 	 	 	 	 	1581529950	6.92	12.82
12/02/2020 17:52:31	120220	12022020	175231	91.17	12.418787	-56.814382	91.25	-0.290	1.900	0.930	91.23	0.60	1.40	 	 	 	 	 	 	 	 	 	 	 	 	 	 	 	 	 	 	1581529951	6.89	12.76
12/02/2020 17:52:32	120220	12022020	175232	91.48	12.418787	-56.814345	91.58	-1.100	2.330	1.210	91.56	0.90	1.70	 	 	 	 	 	 	 	 	 	 	 	 	 	 	 	 	 	 	1581529952	7.53	13.95
12/02/2020 17:52:33	120220	12022020	175233	91.82	12.418785	-56.814305	91.89	-1.350	1.460	1.170	91.86	-0.10	1.60	 	 	 	 	 	 	 	 	 	 	 	 	 	 	 	 	 	 	1581529953	8.36	15.48
12/02/2020 17:52:34	120220	12022020	175234	91.85	12.418785	-56.814262	91.85	-0.890	-0.440	1.210	91.80	-2.10	1.70	 	 	 	 	 	 	 	 	 	 	 	 	 	 	 	 	 	 	1581529954	9.40	17.41
12/02/2020 17:52:35	120220	12022020	175235	91.59	12.418783	-56.814213	91.60	0.010	-2.320	1.440	91.55	-3.80	1.90	 	 	 	 	 	 	 	 	 	 	 	 	 	 	 	 	 	 	1581529955	10.12	18.74
12/02/2020 17:52:36	120220	12022020	175236	91.49	12.418782	-56.814167	91.54	0.800	-2.930	1.300	91.49	-4.30	1.80	 	 	 	 	 	 	 	 	 	 	 	 	 	 	 	 	 	 	1581529956	9.76	18.08
12/02/2020 17:52:37	120220	12022020	175237	91.66	12.418785	-56.814127	91.72	1.060	-1.810	0.880	91.71	-2.90	1.30	 	 	 	 	 	 	 	 	 	 	 	 	 	 	 	 	 	 	1581529957	8.50	15.74
12/02/2020 17:52:38	120220	12022020	175238	91.87	12.418788	-56.814093	91.92	0.700	0.170	0.650	91.87	-1.70	1.10	 	 	 	 	 	 	 	 	 	 	 	 	 	 	 	 	 	 	1581529958	7.18	13.30
12/02/2020 17:52:39	120220	12022020	175239	91.91	12.418790	-56.814060	91.92	0.060	1.410	0.750	91.90	0.10	1.20	 	 	 	 	 	 	 	 	 	 	 	 	 	 	 	 	 	 	1581529959	7.09	13.13
12/02/2020 17:52:40	120220	12022020	175240	91.79	12.418790	-56.814020	91.80	-0.390	1.270	0.940	91.76	-0.20	1.40	 	 	 	 	 	 	 	 	 	 	 	 	 	 	 	 	 	 	1581529960	8.30	15.37
12/02/2020 17:52:41	120220	12022020	175241	91.73	12.418790	-56.813977	91.78	-0.550	0.500	0.910	91.75	-1.00	1.30	 	 	 	 	 	 	 	 	 	 	 	 	 	 	 	 	 	 	1581529961	9.31	17.24
12/02/2020 17:52:42	120220	12022020	175242	91.98	12.418790	-56.813933	92.08	-0.510	-0.130	0.680	92.06	-1.60	1.10	 	 	 	 	 	 	 	 	 	 	 	 	 	 	 	 	 	 	1581529962	9.27	17.17
12/02/2020 17:52:43	120220	12022020	175243	92.35	12.418792	-56.813892	92.42	-0.330	-0.430	0.540	92.40	-1.90	1.00	 	 	 	 	 	 	 	 	 	 	 	 	 	 	 	 	 	 	1581529963	8.71	16.13
12/02/2020 17:52:44	120220	12022020	175244	92.48	12.418792	-56.813852	92.51	0.010	-0.830	0.650	92.47	-2.30	1.10	 	 	 	 	 	 	 	 	 	 	 	 	 	 	 	 	 	 	1581529964	8.57	15.87
12/02/2020 17:52:45	120220	12022020	175245	92.37	12.418790	-56.813808	92.38	0.420	-1.260	0.920	92.33	-2.70	1.40	 	 	 	 	 	 	 	 	 	 	 	 	 	 	 	 	 	 	1581529965	9.00	16.67
12/02/2020 17:52:46	120220	12022020	175246	92.20	12.418788	-56.813767	92.22	0.620	-1.010	1.280	92.18	-2.30	1.70	 	 	 	 	 	 	 	 	 	 	 	 	 	 	 	 	 	 	1581529966	8.88	16.45
12/02/2020 17:52:47	120220	12022020	175247	92.10	12.418788	-56.813728	92.13	0.450	-0.170	1.390	92.08	-1.50	1.80	 	 	 	 	 	 	 	 	 	 	 	 	 	 	 	 	 	 	1581529967	8.10	15.00
12/02/2020 17:52:48	120220	12022020	175248	91.92	12.418788	-56.813690	91.92	0.150	0.220	1.210	91.86	-1.20	1.60	 	 	 	 	 	 	 	 	 	 	 	 	 	 	 	 	 	 	1581529968	7.98	14.78
12/02/2020 17:52:49	120220	12022020	175249	91.65	12.418790	-56.813648	91.66	-0.000	-0.230	1.060	91.60	-1.70	1.50	 	 	 	 	 	 	 	 	 	 	 	 	 	 	 	 	 	 	1581529969	8.98	16.63
12/02/2020 17:52:50	120220	12022020	175250	91.48	12.418790	-56.813602	91.53	-0.080	-0.530	1.090	91.48	-1.90	1.50	 	 	 	 	 	 	 	 	 	 	 	 	 	 	 	 	 	 	1581529970	9.61	17.80
12/02/2020 17:52:51	120220	12022020	175251	91.57	12.418790	-56.813560	91.67	-0.250	0.070	0.920	91.63	-1.20	1.30	 	 	 	 	 	 	 	 	 	 	 	 	 	 	 	 	 	 	1581529971	8.80	16.30
12/02/2020 17:52:52	120220	12022020	175252	91.89	12.418792	-56.813523	92.00	-0.440	0.750	0.780	91.89	-0.70	1.20	 	 	 	 	 	 	 	 	 	 	 	 	 	 	 	 	 	 	1581529972	7.81	14.46
12/02/2020 17:52:53	120220	12022020	175253	92.15	12.418790	-56.813485	92.22	-0.360	0.420	1.030	92.18	-1.10	1.50	 	 	 	 	 	 	 	 	 	 	 	 	 	 	 	 	 	 	1581529973	8.26	15.30
12/02/2020 17:52:54	120220	12022020	175254	92.21	12.418788	-56.813440	92.26	0.020	-0.650	1.460	92.20	-2.20	1.90	 	 	 	 	 	 	 	 	 	 	 	 	 	 	 	 	 	 	1581529974	9.45	17.50
12/02/2020 17:52:55	120220	12022020	175255	92.14	12.418785	-56.813395	92.20	0.300	-1.190	1.710	92.13	-2.60	2.10	 	 	 	 	 	 	 	 	 	 	 	 	 	 	 	 	 	 	1581529975	9.69	17.95
12/02/2020 17:52:56	120220	12022020	175256	92.07	12.418785	-56.813353	92.12	0.240	-0.790	1.720	92.05	-2.10	2.10	 	 	 	 	 	 	 	 	 	 	 	 	 	 	 	 	 	 	1581529976	8.73	16.17
12/02/2020 17:52:57	120220	12022020	175257	91.92	12.418785	-56.813315	91.95	0.100	-0.150	1.590	91.89	-1.50	2.00	 	 	 	 	 	 	 	 	 	 	 	 	 	 	 	 	 	 	1581529977	8.01	14.83
12/02/2020 17:52:58	120220	12022020	175258	91.80	12.418787	-56.813275	91.84	0.320	-0.130	1.230	91.80	-1.60	1.60	 	 	 	 	 	 	 	 	 	 	 	 	 	 	 	 	 	 	1581529978	8.39	15.54
12/02/2020 17:52:59	120220	12022020	175259	91.84	12.418792	-56.813232	91.90	0.810	-0.640	0.700	91.87	-2.10	1.10	 	 	 	 	 	 	 	 	 	 	 	 	 	 	 	 	 	 	1581529979	9.49	17.58
12/02/2020 17:53:00	120220	12022020	175300	92.04	12.418797	-56.813185	92.13	0.750	-0.520	0.470	92.10	-1.80	0.90	 	 	 	 	 	 	 	 	 	 	 	 	 	 	 	 	 	 	1581529980	9.66	17.89
12/02/2020 17:53:01	120220	12022020	175301	92.38	12.418798	-56.813147	92.50	-0.280	0.580	0.870	92.47	-0.70	1.40	 	 	 	 	 	 	 	 	 	 	 	 	 	 	 	 	 	 	1581529981	8.22	15.22
12/02/2020 17:53:02	120220	12022020	175302	92.79	12.418793	-56.813113	92.91	-1.610	1.470	1.630	92.86	0.10	2.20	1015.20	26.50	26.60	20.10	20.20	829.0	68.0	68.0	394.0	28.5	344.00	16.30	70.00	12.10	59929	7683.0	27.4	27.4	1581529982	7.22	13.37
12/02/2020 17:53:03	120220	12022020	175303	93.01	12.418783	-56.813077	93.07	-1.940	0.620	2.170	93.01	-1.10	2.60	 	 	 	 	 	 	 	 	 	 	 	 	 	 	 	 	 	 	1581529983	8.09	14.98
12/02/2020 17:53:04	120220	12022020	175304	92.92	12.418777	-56.813027	92.94	-0.510	-2.000	2.070	92.92	-2.80	2.60	 	 	 	 	 	 	 	 	 	 	 	 	 	 	 	 	 	 	1581529984	10.41	19.28
12/02/2020 17:53:05	120220	12022020	175305	92.75	12.418775	-56.812973	92.79	1.380	-3.320	1.770	92.75	-4.60	2.20	 	 	 	 	 	 	 	 	 	 	 	 	 	 	 	 	 	 	1581529985	11.58	21.45
12/02/2020 17:53:06	120220	12022020	175306	92.93	12.418777	-56.812930	93.02	1.780	-1.270	1.340	93.00	-2.30	1.70	 	 	 	 	 	 	 	 	 	 	 	 	 	 	 	 	 	 	1581529986	8.82	16.33
12/02/2020 17:53:07	120220	12022020	175307	93.32	12.418780	-56.812905	93.40	0.450	2.070	0.870	93.38	1.00	1.30	 	 	 	 	 	 	 	 	 	 	 	 	 	 	 	 	 	 	1581529987	5.66	10.48
12/02/2020 17:53:08	120220	12022020	175308	93.53	12.418783	-56.812880	93.57	-1.180	3.580	0.670	93.54	2.10	1.10	 	 	 	 	 	 	 	 	 	 	 	 	 	 	 	 	 	 	1581529988	5.25	9.72
12/02/2020 17:53:09	120220	12022020	175309	93.51	12.418783	-56.812843	93.52	-1.500	1.850	0.640	93.49	0.10	1.00	 	 	 	 	 	 	 	 	 	 	 	 	 	 	 	 	 	 	1581529989	7.82	14.48
12/02/2020 17:53:10	120220	12022020	175310	93.46	12.418782	-56.812792	93.48	-0.440	-1.440	0.420	93.45	-3.20	0.80	 	 	 	 	 	 	 	 	 	 	 	 	 	 	 	 	 	 	1581529990	10.65	19.72
12/02/2020 17:53:11	120220	12022020	175311	93.39	12.418780	-56.812740	93.40	0.890	-3.570	0.470	93.37	-5.00	0.90	 	 	 	 	 	 	 	 	 	 	 	 	 	 	 	 	 	 	1581529991	11.07	20.50
12/02/2020 17:53:12	120220	12022020	175312	93.25	12.418778	-56.812697	93.25	1.300	-2.950	0.930	93.22	-4.10	1.40	 	 	 	 	 	 	 	 	 	 	 	 	 	 	 	 	 	 	1581529992	9.12	16.89
12/02/2020 17:53:13	120220	12022020	175313	93.05	12.418775	-56.812665	93.03	0.550	-0.490	1.320	92.99	-1.60	1.80	 	 	 	 	 	 	 	 	 	 	 	 	 	 	 	 	 	 	1581529993	6.63	12.28
12/02/2020 17:53:14	120220	12022020	175314	92.69	12.418772	-56.812638	92.65	-0.600	1.650	1.440	92.69	-0.10	1.90	 	 	 	 	 	 	 	 	 	 	 	 	 	 	 	 	 	 	1581529994	5.79	10.72
12/02/2020 17:53:15	120220	12022020	175315	92.29	12.418768	-56.812605	92.26	-1.160	2.090	1.330	92.22	0.60	1.70	 	 	 	 	 	 	 	 	 	 	 	 	 	 	 	 	 	 	1581529995	6.95	12.87
12/02/2020 17:53:16	120220	12022020	175316	92.06	12.418768	-56.812565	92.05	-0.790	1.070	0.900	92.06	-0.00	1.50	 	 	 	 	 	 	 	 	 	 	 	 	 	 	 	 	 	 	1581529996	8.59	15.91
12/02/2020 17:53:17	120220	12022020	175317	92.00	12.418770	-56.812520	92.02	0.080	-0.560	0.370	92.01	-2.10	0.70	 	 	 	 	 	 	 	 	 	 	 	 	 	 	 	 	 	 	1581529997	9.59	17.76
12/02/2020 17:53:18	120220	12022020	175318	92.18	12.418773	-56.812475	92.25	0.720	-1.630	0.150	92.24	-3.10	0.60	 	 	 	 	 	 	 	 	 	 	 	 	 	 	 	 	 	 	1581529998	9.65	17.87
12/02/2020 17:53:19	120220	12022020	175319	92.47	12.418772	-56.812433	92.55	0.660	-1.580	0.690	92.51	-2.90	1.20	 	 	 	 	 	 	 	 	 	 	 	 	 	 	 	 	 	 	1581529999	8.64	16.00
12/02/2020 17:53:20	120220	12022020	175320	92.48	12.418767	-56.812397	92.48	0.140	-0.690	1.660	92.41	-2.00	2.20	 	 	 	 	 	 	 	 	 	 	 	 	 	 	 	 	 	 	1581530000	7.68	14.22
12/02/2020 17:53:21	120220	12022020	175321	91.96	12.418760	-56.812363	91.91	-0.320	0.340	2.370	91.82	-1.00	2.80	 	 	 	 	 	 	 	 	 	 	 	 	 	 	 	 	 	 	1581530001	7.31	13.54
12/02/2020 17:53:22	120220	12022020	175322	91.32	12.418758	-56.812328	91.31	-0.460	0.850	2.520	91.24	-0.60	2.90	 	 	 	 	 	 	 	 	 	 	 	 	 	 	 	 	 	 	1581530002	7.51	13.91
12/02/2020 17:53:23	120220	12022020	175323	91.12	12.418758	-56.812290	91.19	-0.250	0.480	2.060	91.15	-1.00	2.40	 	 	 	 	 	 	 	 	 	 	 	 	 	 	 	 	 	 	1581530003	8.21	15.20
12/02/2020 17:53:24	120220	12022020	175324	91.46	12.418763	-56.812247	91.57	0.160	-0.450	1.040	91.56	-2.00	1.40	 	 	 	 	 	 	 	 	 	 	 	 	 	 	 	 	 	 	1581530004	9.05	16.76
12/02/2020 17:53:25	120220	12022020	175325	91.86	12.418768	-56.812203	91.91	0.490	-0.980	0.410	91.90	-2.40	0.80	 	 	 	 	 	 	 	 	 	 	 	 	 	 	 	 	 	 	1581530005	9.22	17.08
12/02/2020 17:53:26	120220	12022020	175326	91.97	12.418770	-56.812163	91.99	0.440	-0.630	0.530	91.97	-2.20	0.90	 	 	 	 	 	 	 	 	 	 	 	 	 	 	 	 	 	 	1581530006	8.33	15.43
12/02/2020 17:53:27	120220	12022020	175327	91.95	12.418768	-56.812128	91.97	0.070	0.030	0.870	91.93	-1.30	1.30	 	 	 	 	 	 	 	 	 	 	 	 	 	 	 	 	 	 	1581530007	7.51	13.91
12/02/2020 17:53:28	120220	12022020	175328	91.85	12.418767	-56.812093	91.88	-0.190	0.120	1.250	91.85	-1.20	1.60	 	 	 	 	 	 	 	 	 	 	 	 	 	 	 	 	 	 	1581530008	7.62	14.11
12/02/2020 17:53:29	120220	12022020	175329	91.59	12.418763	-56.812052	91.59	0.050	-0.690	1.630	91.52	-2.20	2.10	 	 	 	 	 	 	 	 	 	 	 	 	 	 	 	 	 	 	1581530009	8.68	16.08
12/02/2020 17:53:30	120220	12022020	175330	91.32	12.418763	-56.812007	91.37	0.410	-1.320	1.580	91.31	-2.70	2.00	 	 	 	 	 	 	 	 	 	 	 	 	 	 	 	 	 	 	1581530010	9.59	17.76
12/02/2020 17:53:31	120220	12022020	175331	91.39	12.418767	-56.811965	91.50	0.210	-0.520	1.360	91.45	-1.70	1.80	 	 	 	 	 	 	 	 	 	 	 	 	 	 	 	 	 	 	1581530011	8.67	16.06
12/02/2020 17:53:32	120220	12022020	175332	91.78	12.418767	-56.811932	91.92	-0.500	0.960	1.160	91.88	-0.30	1.50	 	 	 	 	 	 	 	 	 	 	 	 	 	 	 	 	 	 	1581530012	6.99	12.95
12/02/2020 17:53:33	120220	12022020	175333	92.29	12.418767	-56.811900	92.40	-0.930	1.370	0.860	92.37	-0.10	1.30	 	 	 	 	 	 	 	 	 	 	 	 	 	 	 	 	 	 	1581530013	6.93	12.83
12/02/2020 17:53:34	120220	12022020	175334	92.52	12.418767	-56.811858	92.55	-0.500	0.150	0.690	92.52	-1.50	1.10	 	 	 	 	 	 	 	 	 	 	 	 	 	 	 	 	 	 	1581530014	8.56	15.85
12/02/2020 17:53:35	120220	12022020	175335	92.42	12.418767	-56.811812	92.42	0.430	-1.400	0.840	92.38	-2.90	1.30	 	 	 	 	 	 	 	 	 	 	 	 	 	 	 	 	 	 	1581530015	9.93	18.39
12/02/2020 17:53:36	120220	12022020	175336	92.23	12.418765	-56.811767	92.23	1.010	-1.730	1.080	92.19	-3.10	1.50	 	 	 	 	 	 	 	 	 	 	 	 	 	 	 	 	 	 	1581530016	9.58	17.74
12/02/2020 17:53:37	120220	12022020	175337	92.03	12.418765	-56.811728	92.04	0.750	-0.710	1.120	91.99	-2.00	1.50	 	 	 	 	 	 	 	 	 	 	 	 	 	 	 	 	 	 	1581530017	8.02	14.85
12/02/2020 17:53:38	120220	12022020	175338	91.89	12.418767	-56.811695	91.92	0.010	0.420	0.940	91.88	-0.90	1.30	 	 	 	 	 	 	 	 	 	 	 	 	 	 	 	 	 	 	1581530018	7.15	13.24
12/02/2020 17:53:39	120220	12022020	175339	91.98	12.418768	-56.811658	92.07	-0.490	0.700	0.690	92.04	-0.70	1.10	 	 	 	 	 	 	 	 	 	 	 	 	 	 	 	 	 	 	1581530019	7.69	14.24
12/02/2020 17:53:40	120220	12022020	175340	92.29	12.418768	-56.811618	92.36	-0.520	0.440	0.450	92.29	-0.90	0.90	 	 	 	 	 	 	 	 	 	 	 	 	 	 	 	 	 	 	1581530020	8.52	15.78
12/02/2020 17:53:41	120220	12022020	175341	92.35	12.418768	-56.811577	92.35	-0.270	0.010	0.490	92.31	-1.50	1.00	 	 	 	 	 	 	 	 	 	 	 	 	 	 	 	 	 	 	1581530021	8.66	16.04
12/02/2020 17:53:42	120220	12022020	175342	92.04	12.418767	-56.811535	92.02	0.050	-0.620	0.890	92.04	-1.90	1.20	 	 	 	 	 	 	 	 	 	 	 	 	 	 	 	 	 	 	1581530022	8.76	16.22
12/02/2020 17:53:43	120220	12022020	175343	91.70	12.418763	-56.811493	91.71	0.330	-1.180	1.280	91.64	-2.60	1.70	 	 	 	 	 	 	 	 	 	 	 	 	 	 	 	 	 	 	1581530023	9.06	16.78
12/02/2020 17:53:44	120220	12022020	175344	91.34	12.418762	-56.811452	91.33	0.350	-1.090	1.430	91.26	-2.40	1.80	 	 	 	 	 	 	 	 	 	 	 	 	 	 	 	 	 	 	1581530024	8.85	16.39
12/02/2020 17:53:45	120220	12022020	175345	90.97	12.418763	-56.811412	90.98	0.080	-0.390	1.120	90.92	-1.70	1.50	 	 	 	 	 	 	 	 	 	 	 	 	 	 	 	 	 	 	1581530025	8.21	15.20
12/02/2020 17:53:46	120220	12022020	175346	90.84	12.418767	-56.811375	90.90	-0.260	0.280	0.920	90.84	-1.10	1.40	 	 	 	 	 	 	 	 	 	 	 	 	 	 	 	 	 	 	1581530026	7.88	14.59
12/02/2020 17:53:47	120220	12022020	175347	90.91	12.418767	-56.811337	91.00	-0.330	0.380	1.110	90.95	-1.10	1.50	 	 	 	 	 	 	 	 	 	 	 	 	 	 	 	 	 	 	1581530027	8.20	15.19
12/02/2020 17:53:48	120220	12022020	175348	91.09	12.418767	-56.811295	91.17	-0.110	0.050	1.030	91.12	-1.40	1.40	 	 	 	 	 	 	 	 	 	 	 	 	 	 	 	 	 	 	1581530028	8.81	16.32
12/02/2020 17:53:49	120220	12022020	175349	91.14	12.418767	-56.811252	91.19	0.190	-0.280	1.050	91.13	-1.70	1.50	 	 	 	 	 	 	 	 	 	 	 	 	 	 	 	 	 	 	1581530029	9.02	16.71
12/02/2020 17:53:50	120220	12022020	175350	90.99	12.418767	-56.811210	91.02	0.370	-0.480	1.520	90.95	-1.90	2.00	 	 	 	 	 	 	 	 	 	 	 	 	 	 	 	 	 	 	1581530030	8.84	16.37
12/02/2020 17:53:51	120220	12022020	175351	90.84	12.418765	-56.811168	90.90	0.400	-0.580	1.640	90.83	-2.00	2.00	 	 	 	 	 	 	 	 	 	 	 	 	 	 	 	 	 	 	1581530031	8.72	16.15
12/02/2020 17:53:52	120220	12022020	175352	90.84	12.418768	-56.811128	90.92	0.220	-0.440	1.440	90.86	-1.80	1.90	 	 	 	 	 	 	 	 	 	 	 	 	 	 	 	 	 	 	1581530032	8.70	16.11
12/02/2020 17:53:53	120220	12022020	175353	90.97	12.418770	-56.811088	91.08	-0.310	0.120	1.430	91.01	-1.20	1.90	 	 	 	 	 	 	 	 	 	 	 	 	 	 	 	 	 	 	1581530033	8.28	15.33
12/02/2020 17:53:54	120220	12022020	175354	91.21	12.418770	-56.811052	91.34	-0.910	0.670	1.400	91.21	-0.90	1.80	 	 	 	 	 	 	 	 	 	 	 	 	 	 	 	 	 	 	1581530034	7.70	14.26
12/02/2020 17:53:55	120220	12022020	175355	91.51	12.418768	-56.811015	91.63	-0.980	0.400	1.320	91.56	-1.20	1.70	 	 	 	 	 	 	 	 	 	 	 	 	 	 	 	 	 	 	1581530035	7.96	14.74
12/02/2020 17:53:56	120220	12022020	175356	91.67	12.418768	-56.810972	91.73	-0.130	-1.010	1.190	91.66	-2.60	1.60	 	 	 	 	 	 	 	 	 	 	 	 	 	 	 	 	 	 	1581530036	9.24	17.11
12/02/2020 17:53:57	120220	12022020	175357	91.59	12.418770	-56.810922	91.63	0.980	-2.160	1.030	91.57	-3.60	1.40	 	 	 	 	 	 	 	 	 	 	 	 	 	 	 	 	 	 	1581530037	10.35	19.17
12/02/2020 17:53:58	120220	12022020	175358	91.53	12.418773	-56.810878	91.59	1.260	-1.490	1.030	91.53	-2.70	1.50	 	 	 	 	 	 	 	 	 	 	 	 	 	 	 	 	 	 	1581530038	9.35	17.32
12/02/2020 17:53:59	120220	12022020	175359	91.62	12.418775	-56.810843	91.72	0.520	0.400	1.050	91.66	-0.80	1.50	 	 	 	 	 	 	 	 	 	 	 	 	 	 	 	 	 	 	1581530039	7.36	13.63
12/02/2020 17:54:00	120220	12022020	175400	91.88	12.418777	-56.810810	92.00	-0.450	1.590	0.870	91.94	0.20	1.30	 	 	 	 	 	 	 	 	 	 	 	 	 	 	 	 	 	 	1581530040	6.84	12.67
12/02/2020 17:54:01	120220	12022020	175401	92.09	12.418778	-56.810772	92.19	-0.760	1.080	0.680	92.12	-0.50	1.10	 	 	 	 	 	 	 	 	 	 	 	 	 	 	 	 	 	 	1581530041	8.23	15.24
12/02/2020 17:54:02	120220	12022020	175402	92.26	12.418778	-56.810725	92.38	-0.440	-0.300	0.550	92.32	-1.90	1.00	1015.10	26.50	26.60	20.00	20.10	829.0	67.0	67.0	394.0	28.5	347.00	16.20	75.00	12.00	59720	5111.0	27.4	27.4	1581530042	9.76	18.08
12/02/2020 17:54:03	120220	12022020	175403	92.60	12.418778	-56.810678	92.75	-0.050	-1.070	0.690	92.68	-2.50	1.10	 	 	 	 	 	 	 	 	 	 	 	 	 	 	 	 	 	 	1581530043	9.86	18.26
12/02/2020 17:54:04	120220	12022020	175404	92.86	12.418775	-56.810638	92.93	-0.010	-0.600	1.000	92.86	-2.20	1.30	 	 	 	 	 	 	 	 	 	 	 	 	 	 	 	 	 	 	1581530044	8.51	15.76
12/02/2020 17:54:05	120220	12022020	175405	92.67	12.418773	-56.810603	92.65	-0.200	-0.020	1.210	92.57	-1.40	1.60	 	 	 	 	 	 	 	 	 	 	 	 	 	 	 	 	 	 	1581530045	7.52	13.93
12/02/2020 17:54:06	120220	12022020	175406	92.12	12.418773	-56.810563	92.08	-0.180	-0.450	1.280	92.12	-1.70	1.70	 	 	 	 	 	 	 	 	 	 	 	 	 	 	 	 	 	 	1581530046	8.32	15.41
12/02/2020 17:54:07	120220	12022020	175407	91.57	12.418773	-56.810518	91.59	0.140	-1.230	1.150	91.51	-2.70	1.50	 	 	 	 	 	 	 	 	 	 	 	 	 	 	 	 	 	 	1581530047	9.59	17.76
12/02/2020 17:54:08	120220	12022020	175408	91.52	12.418775	-56.810473	91.63	0.420	-1.080	0.550	91.58	-2.40	0.90	 	 	 	 	 	 	 	 	 	 	 	 	 	 	 	 	 	 	1581530048	9.46	17.52
12/02/2020 17:54:09	120220	12022020	175409	92.02	12.418778	-56.810435	92.15	0.290	0.130	-0.050	92.13	-1.10	0.30	 	 	 	 	 	 	 	 	 	 	 	 	 	 	 	 	 	 	1581530049	8.22	15.22
12/02/2020 17:54:10	120220	12022020	175410	92.50	12.418780	-56.810400	92.56	-0.210	1.240	-0.140	92.55	-0.10	0.30	 	 	 	 	 	 	 	 	 	 	 	 	 	 	 	 	 	 	1581530050	7.29	13.50
12/02/2020 17:54:11	120220	12022020	175411	92.55	12.418778	-56.810363	92.54	-0.530	1.100	0.230	92.51	-0.40	0.70	 	 	 	 	 	 	 	 	 	 	 	 	 	 	 	 	 	 	1581530051	7.81	14.46
12/02/2020 17:54:12	120220	12022020	175412	92.19	12.418775	-56.810320	92.15	-0.200	-0.280	0.900	92.09	-1.90	1.40	 	 	 	 	 	 	 	 	 	 	 	 	 	 	 	 	 	 	1581530052	9.27	17.17
12/02/2020 17:54:13	120220	12022020	175413	91.72	12.418772	-56.810272	91.71	0.440	-1.580	1.500	91.64	-3.10	2.00	 	 	 	 	 	 	 	 	 	 	 	 	 	 	 	 	 	 	1581530053	10.17	18.83
12/02/2020 17:54:14	120220	12022020	175414	91.41	12.418772	-56.810227	91.44	0.640	-1.680	1.650	91.37	-3.00	2.10	 	 	 	 	 	 	 	 	 	 	 	 	 	 	 	 	 	 	1581530054	9.53	17.65
12/02/2020 17:54:15	120220	12022020	175415	91.30	12.418773	-56.810188	91.37	0.180	-0.600	1.420	91.31	-1.90	1.80	 	 	 	 	 	 	 	 	 	 	 	 	 	 	 	 	 	 	1581530055	8.21	15.20
12/02/2020 17:54:16	120220	12022020	175416	91.48	12.418775	-56.810153	91.61	-0.510	0.650	1.080	91.48	-1.00	1.60	 	 	 	 	 	 	 	 	 	 	 	 	 	 	 	 	 	 	1581530056	7.35	13.61
12/02/2020 17:54:17	120220	12022020	175417	92.03	12.418775	-56.810117	92.18	-0.850	0.940	0.890	92.15	-0.50	1.30	 	 	 	 	 	 	 	 	 	 	 	 	 	 	 	 	 	 	1581530057	7.68	14.22
12/02/2020 17:54:18	120220	12022020	175418	92.48	12.418772	-56.810075	92.54	-0.390	-0.060	1.040	92.48	-1.20	1.40	 	 	 	 	 	 	 	 	 	 	 	 	 	 	 	 	 	 	1581530058	9.02	16.71
12/02/2020 17:54:19	120220	12022020	175419	92.26	12.418768	-56.810027	92.22	0.490	-1.080	1.340	92.15	-2.50	1.80	 	 	 	 	 	 	 	 	 	 	 	 	 	 	 	 	 	 	1581530059	10.10	18.71
12/02/2020 17:54:20	120220	12022020	175420	91.71	12.418768	-56.809983	91.67	0.870	-0.820	1.390	91.62	-2.10	1.80	 	 	 	 	 	 	 	 	 	 	 	 	 	 	 	 	 	 	1581530060	9.29	17.21
12/02/2020 17:54:21	120220	12022020	175421	91.36	12.418772	-56.809945	91.40	0.450	0.080	1.370	91.35	-1.30	1.80	 	 	 	 	 	 	 	 	 	 	 	 	 	 	 	 	 	 	1581530061	7.96	14.74
12/02/2020 17:54:22	120220	12022020	175422	91.49	12.418777	-56.809908	91.61	-0.200	0.240	1.150	91.58	-1.20	1.50	 	 	 	 	 	 	 	 	 	 	 	 	 	 	 	 	 	 	1581530062	7.98	14.78
12/02/2020 17:54:23	120220	12022020	175423	91.97	12.418778	-56.809865	92.10	-0.520	-0.300	0.840	92.06	-1.80	1.20	 	 	 	 	 	 	 	 	 	 	 	 	 	 	 	 	 	 	1581530063	9.04	16.74
12/02/2020 17:54:24	120220	12022020	175424	92.31	12.418777	-56.809822	92.40	-0.540	-0.390	0.940	92.35	-1.80	1.40	 	 	 	 	 	 	 	 	 	 	 	 	 	 	 	 	 	 	1581530064	9.19	17.02
12/02/2020 17:54:25	120220	12022020	175425	92.32	12.418772	-56.809783	92.35	-0.410	0.060	1.330	92.29	-1.30	1.80	 	 	 	 	 	 	 	 	 	 	 	 	 	 	 	 	 	 	1581530065	8.32	15.41
12/02/2020 17:54:26	120220	12022020	175426	92.07	12.418768	-56.809745	92.08	-0.070	0.060	1.560	92.00	-1.40	2.00	 	 	 	 	 	 	 	 	 	 	 	 	 	 	 	 	 	 	1581530066	8.12	15.04
12/02/2020 17:54:27	120220	12022020	175427	91.76	12.418768	-56.809702	91.79	0.490	-0.800	1.400	91.71	-2.30	1.80	 	 	 	 	 	 	 	 	 	 	 	 	 	 	 	 	 	 	1581530067	9.16	16.96
12/02/2020 17:54:28	120220	12022020	175428	91.67	12.418773	-56.809653	91.76	0.860	-1.550	0.890	91.69	-3.00	1.30	 	 	 	 	 	 	 	 	 	 	 	 	 	 	 	 	 	 	1581530068	10.09	18.69
12/02/2020 17:54:29	120220	12022020	175429	91.85	12.418778	-56.809610	91.96	0.540	-0.890	0.610	91.90	-2.10	1.00	 	 	 	 	 	 	 	 	 	 	 	 	 	 	 	 	 	 	1581530069	9.36	17.33
12/02/2020 17:54:30	120220	12022020	175430	92.08	12.418778	-56.809575	92.20	-0.370	0.850	0.910	92.08	-1.00	1.20	 	 	 	 	 	 	 	 	 	 	 	 	 	 	 	 	 	 	1581530070	7.44	13.78
12/02/2020 17:54:31	120220	12022020	175431	92.32	12.418777	-56.809543	92.45	-1.090	1.850	1.200	92.37	0.40	1.60	 	 	 	 	 	 	 	 	 	 	 	 	 	 	 	 	 	 	1581530071	6.79	12.58
12/02/2020 17:54:32	120220	12022020	175432	92.54	12.418773	-56.809503	92.64	-0.950	0.920	1.160	92.54	-0.10	1.60	 	 	 	 	 	 	 	 	 	 	 	 	 	 	 	 	 	 	1581530072	8.22	15.22
12/02/2020 17:54:33	120220	12022020	175433	92.57	12.418773	-56.809455	92.64	-0.100	-1.100	1.080	92.55	-2.70	1.50	 	 	 	 	 	 	 	 	 	 	 	 	 	 	 	 	 	 	1581530073	10.15	18.80
12/02/2020 17:54:34	120220	12022020	175434	92.45	12.418773	-56.809407	92.51	0.750	-2.310	1.230	92.42	-3.70	1.70	 	 	 	 	 	 	 	 	 	 	 	 	 	 	 	 	 	 	1581530074	10.51	19.46
12/02/2020 17:54:35	120220	12022020	175435	92.39	12.418772	-56.809363	92.47	0.920	-1.710	1.230	92.39	-2.90	1.60	 	 	 	 	 	 	 	 	 	 	 	 	 	 	 	 	 	 	1581530075	9.10	16.85
12/02/2020 17:54:36	120220	12022020	175436	92.40	12.418773	-56.809327	92.46	0.480	-0.170	1.020	92.40	-1.40	1.40	 	 	 	 	 	 	 	 	 	 	 	 	 	 	 	 	 	 	1581530076	7.55	13.98
12/02/2020 17:54:37	120220	12022020	175437	92.43	12.418775	-56.809293	92.52	-0.040	0.940	0.800	92.46	-0.40	1.20	 	 	 	 	 	 	 	 	 	 	 	 	 	 	 	 	 	 	1581530077	7.31	13.54
12/02/2020 17:54:38	120220	12022020	175438	92.60	12.418777	-56.809253	92.69	-0.310	0.960	0.590	92.64	-0.50	1.00	 	 	 	 	 	 	 	 	 	 	 	 	 	 	 	 	 	 	1581530078	8.25	15.28
12/02/2020 17:54:39	120220	12022020	175439	92.69	12.418778	-56.809210	92.73	-0.440	0.310	0.430	92.67	-1.20	0.90	 	 	 	 	 	 	 	 	 	 	 	 	 	 	 	 	 	 	1581530079	9.18	17.00
12/02/2020 17:54:40	120220	12022020	175440	92.49	12.418777	-56.809167	92.50	-0.500	-0.320	0.630	92.43	-1.80	1.10	 	 	 	 	 	 	 	 	 	 	 	 	 	 	 	 	 	 	1581530080	9.25	17.13
12/02/2020 17:54:41	120220	12022020	175441	92.23	12.418773	-56.809125	92.25	-0.280	-0.730	0.950	92.19	-2.20	1.40	 	 	 	 	 	 	 	 	 	 	 	 	 	 	 	 	 	 	1581530081	8.96	16.59
12/02/2020 17:54:42	120220	12022020	175442	92.15	12.418773	-56.809082	92.21	0.200	-1.030	0.950	92.15	-2.50	1.40	 	 	 	 	 	 	 	 	 	 	 	 	 	 	 	 	 	 	1581530082	8.97	16.61
12/02/2020 17:54:43	120220	12022020	175443	92.17	12.418773	-56.809038	92.22	0.480	-0.970	0.750	92.17	-2.30	1.20	 	 	 	 	 	 	 	 	 	 	 	 	 	 	 	 	 	 	1581530083	9.06	16.78
12/02/2020 17:54:44	120220	12022020	175444	92.10	12.418773	-56.808998	92.13	0.270	-0.200	0.810	92.07	-1.50	1.30	 	 	 	 	 	 	 	 	 	 	 	 	 	 	 	 	 	 	1581530084	8.42	15.59
12/02/2020 17:54:45	120220	12022020	175445	91.93	12.418772	-56.808963	91.98	-0.190	0.790	1.020	91.91	-0.50	1.40	 	 	 	 	 	 	 	 	 	 	 	 	 	 	 	 	 	 	1581530085	7.62	14.11
12/02/2020 17:54:46	120220	12022020	175446	91.87	12.418772	-56.808927	91.93	-0.360	0.860	0.930	91.87	-0.60	1.30	 	 	 	 	 	 	 	 	 	 	 	 	 	 	 	 	 	 	1581530086	7.78	14.41
12/02/2020 17:54:47	120220	12022020	175447	91.88	12.418773	-56.808883	91.94	-0.040	-0.360	0.690	91.88	-1.90	1.10	 	 	 	 	 	 	 	 	 	 	 	 	 	 	 	 	 	 	1581530087	9.18	17.00
12/02/2020 17:54:48	120220	12022020	175448	91.74	12.418775	-56.808835	91.74	0.390	-1.550	0.850	91.67	-3.00	1.30	 	 	 	 	 	 	 	 	 	 	 	 	 	 	 	 	 	 	1581530088	10.16	18.82
12/02/2020 17:54:49	120220	12022020	175449	91.32	12.418773	-56.808790	91.30	0.460	-1.400	1.270	91.23	-2.60	1.70	 	 	 	 	 	 	 	 	 	 	 	 	 	 	 	 	 	 	1581530089	9.47	17.54
12/02/2020 17:54:50	120220	12022020	175450	90.94	12.418773	-56.808752	90.99	0.140	-0.150	1.470	90.91	-1.40	1.90	 	 	 	 	 	 	 	 	 	 	 	 	 	 	 	 	 	 	1581530090	7.98	14.78
12/02/2020 17:54:51	120220	12022020	175451	91.06	12.418773	-56.808717	91.20	-0.310	0.800	1.330	91.14	-0.50	1.70	 	 	 	 	 	 	 	 	 	 	 	 	 	 	 	 	 	 	1581530091	7.49	13.87
12/02/2020 17:54:52	120220	12022020	175452	91.57	12.418773	-56.808678	91.72	-0.510	0.570	1.110	91.67	-0.90	1.50	 	 	 	 	 	 	 	 	 	 	 	 	 	 	 	 	 	 	1581530092	8.26	15.30
12/02/2020 17:54:53	120220	12022020	175453	91.85	12.418773	-56.808633	91.89	-0.150	-0.530	1.110	91.84	-2.00	1.50	 	 	 	 	 	 	 	 	 	 	 	 	 	 	 	 	 	 	1581530093	9.51	17.61
12/02/2020 17:54:54	120220	12022020	175454	91.63	12.418772	-56.808585	91.64	0.480	-1.120	1.420	91.57	-2.40	1.90	 	 	 	 	 	 	 	 	 	 	 	 	 	 	 	 	 	 	1581530094	9.93	18.39
12/02/2020 17:54:55	120220	12022020	175455	91.47	12.418773	-56.808543	91.54	0.670	-0.490	1.630	91.48	-1.70	2.10	 	 	 	 	 	 	 	 	 	 	 	 	 	 	 	 	 	 	1581530095	8.90	16.48
12/02/2020 17:54:56	120220	12022020	175456	91.75	12.418775	-56.808507	91.90	0.140	0.550	1.430	91.75	-1.00	1.90	 	 	 	 	 	 	 	 	 	 	 	 	 	 	 	 	 	 	1581530096	7.72	14.30
12/02/2020 17:54:57	120220	12022020	175457	92.27	12.418777	-56.808472	92.41	-0.600	0.850	1.040	92.36	-0.50	1.40	 	 	 	 	 	 	 	 	 	 	 	 	 	 	 	 	 	 	1581530097	7.69	14.24
12/02/2020 17:54:58	120220	12022020	175458	92.65	12.418778	-56.808430	92.73	-0.810	0.090	0.830	92.69	-1.40	1.20	 	 	 	 	 	 	 	 	 	 	 	 	 	 	 	 	 	 	1581530098	8.60	15.93
12/02/2020 17:54:59	120220	12022020	175459	92.74	12.418777	-56.808385	92.78	-0.130	-1.300	0.800	92.74	-2.80	1.20	 	 	 	 	 	 	 	 	 	 	 	 	 	 	 	 	 	 	1581530099	9.72	18.00
12/02/2020 17:55:00	120220	12022020	175500	92.70	12.418775	-56.808337	92.74	0.900	-2.050	0.810	92.70	-3.40	1.20	 	 	 	 	 	 	 	 	 	 	 	 	 	 	 	 	 	 	1581530100	10.18	18.85
12/02/2020 17:55:01	120220	12022020	175501	92.75	12.418777	-56.808293	92.81	1.140	-1.120	0.670	92.77	-2.30	1.10	 	 	 	 	 	 	 	 	 	 	 	 	 	 	 	 	 	 	1581530101	9.07	16.80
12/02/2020 17:55:02	120220	12022020	175502	92.81	12.418780	-56.808258	92.83	0.230	0.710	0.330	92.80	-0.50	0.70	1015.10	26.50	26.60	19.90	20.00	823.0	67.0	67.0	395.0	28.5	346.00	16.60	73.00	12.30	59589	4090.0	27.4	27.4	1581530102	7.39	13.69
12/02/2020 17:55:03	120220	12022020	175503	92.74	12.418782	-56.808225	92.75	-1.010	1.760	0.230	92.73	0.40	0.70	 	 	 	 	 	 	 	 	 	 	 	 	 	 	 	 	 	 	1581530103	7.00	12.96
12/02/2020 17:55:04	120220	12022020	175504	92.76	12.418782	-56.808187	92.83	-1.450	1.110	0.200	92.81	-0.40	0.60	 	 	 	 	 	 	 	 	 	 	 	 	 	 	 	 	 	 	1581530104	8.19	15.17
12/02/2020 17:55:05	120220	12022020	175505	93.04	12.418778	-56.808140	93.12	-0.750	-0.650	-0.010	93.09	-2.20	0.40	 	 	 	 	 	 	 	 	 	 	 	 	 	 	 	 	 	 	1581530105	9.90	18.33
12/02/2020 17:55:06	120220	12022020	175506	93.10	12.418777	-56.808090	93.10	0.400	-1.910	0.090	93.05	-3.30	0.60	 	 	 	 	 	 	 	 	 	 	 	 	 	 	 	 	 	 	1581530106	10.39	19.24
12/02/2020 17:55:07	120220	12022020	175507	92.70	12.418775	-56.808047	92.64	1.120	-1.830	0.520	92.59	-3.10	1.00	 	 	 	 	 	 	 	 	 	 	 	 	 	 	 	 	 	 	1581530107	9.40	17.41
12/02/2020 17:55:08	120220	12022020	175508	92.23	12.418775	-56.808007	92.21	1.010	-0.780	0.860	92.23	-2.40	1.20	 	 	 	 	 	 	 	 	 	 	 	 	 	 	 	 	 	 	1581530108	8.31	15.39
12/02/2020 17:55:09	120220	12022020	175509	92.07	12.418777	-56.807970	92.13	0.270	0.540	0.910	92.08	-0.70	1.30	 	 	 	 	 	 	 	 	 	 	 	 	 	 	 	 	 	 	1581530109	7.69	14.24
12/02/2020 17:55:10	120220	12022020	175510	92.18	12.418777	-56.807935	92.25	-0.540	1.410	0.840	92.21	0.10	1.30	 	 	 	 	 	 	 	 	 	 	 	 	 	 	 	 	 	 	1581530110	7.62	14.11
12/02/2020 17:55:11	120220	12022020	175511	92.31	12.418777	-56.807897	92.37	-0.920	1.230	0.760	92.32	-0.20	1.20	 	 	 	 	 	 	 	 	 	 	 	 	 	 	 	 	 	 	1581530111	8.19	15.17
12/02/2020 17:55:12	120220	12022020	175512	92.31	12.418775	-56.807852	92.36	-0.670	-0.010	0.910	92.30	-1.60	1.40	 	 	 	 	 	 	 	 	 	 	 	 	 	 	 	 	 	 	1581530112	9.27	17.17
12/02/2020 17:55:13	120220	12022020	175513	92.24	12.418772	-56.807805	92.29	-0.030	-1.360	1.230	92.23	-2.80	1.70	 	 	 	 	 	 	 	 	 	 	 	 	 	 	 	 	 	 	1581530113	10.04	18.59
12/02/2020 17:55:14	120220	12022020	175514	92.08	12.418770	-56.807760	92.10	0.510	-1.660	1.470	92.03	-3.00	1.90	 	 	 	 	 	 	 	 	 	 	 	 	 	 	 	 	 	 	1581530114	9.61	17.80
12/02/2020 17:55:15	120220	12022020	175515	91.76	12.418768	-56.807718	91.76	0.670	-0.960	1.510	91.69	-2.20	1.90	 	 	 	 	 	 	 	 	 	 	 	 	 	 	 	 	 	 	1581530115	8.48	15.70
12/02/2020 17:55:16	120220	12022020	175516	91.48	12.418770	-56.807682	91.51	0.550	-0.150	1.330	91.46	-1.40	1.70	 	 	 	 	 	 	 	 	 	 	 	 	 	 	 	 	 	 	1581530116	7.99	14.80
12/02/2020 17:55:17	120220	12022020	175517	91.49	12.418775	-56.807642	91.57	0.380	0.210	0.880	91.52	-1.10	1.30	 	 	 	 	 	 	 	 	 	 	 	 	 	 	 	 	 	 	1581530117	8.35	15.46
12/02/2020 17:55:18	120220	12022020	175518	91.69	12.418778	-56.807600	91.76	0.270	0.150	0.480	91.73	-1.20	0.90	 	 	 	 	 	 	 	 	 	 	 	 	 	 	 	 	 	 	1581530118	8.93	16.54
12/02/2020 17:55:19	120220	12022020	175519	91.92	12.418782	-56.807557	91.99	0.040	0.100	0.410	91.96	-1.30	0.90	 	 	 	 	 	 	 	 	 	 	 	 	 	 	 	 	 	 	1581530119	9.12	16.89
12/02/2020 17:55:20	120220	12022020	175520	92.04	12.418782	-56.807515	92.09	-0.430	0.140	0.810	92.04	-1.20	1.30	 	 	 	 	 	 	 	 	 	 	 	 	 	 	 	 	 	 	1581530120	8.76	16.22
12/02/2020 17:55:21	120220	12022020	175521	92.03	12.418778	-56.807475	92.09	-0.870	-0.060	1.370	92.03	-1.50	1.80	 	 	 	 	 	 	 	 	 	 	 	 	 	 	 	 	 	 	1581530121	8.66	16.04
12/02/2020 17:55:22	120220	12022020	175522	92.12	12.418773	-56.807432	92.22	-0.860	-0.610	1.600	92.12	-1.80	2.00	 	 	 	 	 	 	 	 	 	 	 	 	 	 	 	 	 	 	1581530122	9.08	16.82
12/02/2020 17:55:23	120220	12022020	175523	92.30	12.418770	-56.807388	92.38	-0.380	-0.930	1.450	92.33	-2.30	1.80	 	 	 	 	 	 	 	 	 	 	 	 	 	 	 	 	 	 	1581530123	9.31	17.24
12/02/2020 17:55:24	120220	12022020	175524	92.36	12.418770	-56.807345	92.37	0.300	-0.770	1.020	92.34	-2.10	1.40	 	 	 	 	 	 	 	 	 	 	 	 	 	 	 	 	 	 	1581530124	8.94	16.56
12/02/2020 17:55:25	120220	12022020	175525	92.06	12.418772	-56.807303	92.01	0.850	-0.560	0.700	91.97	-1.90	1.10	 	 	 	 	 	 	 	 	 	 	 	 	 	 	 	 	 	 	1581530125	8.82	16.33
12/02/2020 17:55:26	120220	12022020	175526	91.73	12.418775	-56.807262	91.75	1.050	-0.450	0.500	91.72	-1.80	0.90	 	 	 	 	 	 	 	 	 	 	 	 	 	 	 	 	 	 	1581530126	9.16	16.96
12/02/2020 17:55:27	120220	12022020	175527	91.97	12.418780	-56.807218	92.09	0.670	0.110	0.120	92.08	-1.10	0.50	 	 	 	 	 	 	 	 	 	 	 	 	 	 	 	 	 	 	1581530127	9.09	16.83
12/02/2020 17:55:28	120220	12022020	175528	92.57	12.418785	-56.807180	92.69	-0.230	1.030	-0.090	92.69	-0.30	0.40	 	 	 	 	 	 	 	 	 	 	 	 	 	 	 	 	 	 	1581530128	8.14	15.08
12/02/2020 17:55:29	120220	12022020	175529	92.97	12.418785	-56.807143	93.02	-1.030	1.200	0.200	93.00	-0.20	0.70	 	 	 	 	 	 	 	 	 	 	 	 	 	 	 	 	 	 	1581530129	7.78	14.41
12/02/2020 17:55:30	120220	12022020	175530	92.92	12.418780	-56.807102	92.93	-0.980	0.020	0.950	92.87	-1.50	1.50	 	 	 	 	 	 	 	 	 	 	 	 	 	 	 	 	 	 	1581530130	8.90	16.48
12/02/2020 17:55:31	120220	12022020	175531	92.64	12.418773	-56.807053	92.64	0.060	-1.840	1.630	92.57	-3.40	2.10	 	 	 	 	 	 	 	 	 	 	 	 	 	 	 	 	 	 	1581530131	10.32	19.11
12/02/2020 17:55:32	120220	12022020	175532	92.22	12.418770	-56.807002	92.20	1.160	-2.770	1.830	92.13	-4.10	2.20	 	 	 	 	 	 	 	 	 	 	 	 	 	 	 	 	 	 	1581530132	10.71	19.83
12/02/2020 17:55:33	120220	12022020	175533	91.90	12.418772	-56.806958	91.92	1.170	-1.620	1.650	91.87	-2.70	2.10	 	 	 	 	 	 	 	 	 	 	 	 	 	 	 	 	 	 	1581530133	9.28	17.19
12/02/2020 17:55:34	120220	12022020	175534	92.02	12.418772	-56.806925	92.15	0.020	0.770	1.450	92.11	-0.30	1.80	 	 	 	 	 	 	 	 	 	 	 	 	 	 	 	 	 	 	1581530134	7.24	13.41
12/02/2020 17:55:35	120220	12022020	175535	92.59	12.418773	-56.806893	92.73	-1.300	2.470	1.100	92.70	1.20	1.50	 	 	 	 	 	 	 	 	 	 	 	 	 	 	 	 	 	 	1581530135	6.48	12.00
12/02/2020 17:55:36	120220	12022020	175536	93.00	12.418772	-56.806857	93.06	-1.740	2.260	0.800	93.03	0.70	1.20	 	 	 	 	 	 	 	 	 	 	 	 	 	 	 	 	 	 	1581530136	7.67	14.20
12/02/2020 17:55:37	120220	12022020	175537	93.04	12.418768	-56.806812	93.05	-0.930	0.180	0.630	93.02	-1.50	1.10	 	 	 	 	 	 	 	 	 	 	 	 	 	 	 	 	 	 	1581530137	9.61	17.80
12/02/2020 17:55:38	120220	12022020	175538	92.93	12.418767	-56.806760	92.97	0.570	-2.200	0.610	92.92	-3.70	1.00	 	 	 	 	 	 	 	 	 	 	 	 	 	 	 	 	 	 	1581530138	11.03	20.43
12/02/2020 17:55:39	120220	12022020	175539	92.98	12.418767	-56.806710	93.05	1.570	-2.800	0.500	93.01	-4.00	0.90	 	 	 	 	 	 	 	 	 	 	 	 	 	 	 	 	 	 	1581530139	10.51	19.46
12/02/2020 17:55:40	120220	12022020	175540	93.08	12.418768	-56.806672	93.11	1.340	-1.220	0.390	93.08	-2.30	0.80	 	 	 	 	 	 	 	 	 	 	 	 	 	 	 	 	 	 	1581530140	8.29	15.35
12/02/2020 17:55:41	120220	12022020	175541	92.96	12.418770	-56.806640	92.95	0.230	0.960	0.530	92.91	-0.20	1.00	 	 	 	 	 	 	 	 	 	 	 	 	 	 	 	 	 	 	1581530141	6.59	12.20
12/02/2020 17:55:42	120220	12022020	175542	92.74	12.418770	-56.806608	92.76	-0.810	1.930	0.800	92.72	0.60	1.20	 	 	 	 	 	 	 	 	 	 	 	 	 	 	 	 	 	 	1581530142	6.79	12.58
12/02/2020 17:55:43	120220	12022020	175543	92.71	12.418768	-56.806568	92.77	-1.040	1.040	0.860	92.72	-0.50	1.30	 	 	 	 	 	 	 	 	 	 	 	 	 	 	 	 	 	 	1581530143	8.40	15.56
12/02/2020 17:55:44	120220	12022020	175544	92.77	12.418767	-56.806520	92.83	-0.370	-0.900	0.830	92.77	-1.80	1.30	 	 	 	 	 	 	 	 	 	 	 	 	 	 	 	 	 	 	1581530144	10.14	18.78
12/02/2020 17:55:45	120220	12022020	175545	92.66	12.418763	-56.806470	92.66	0.400	-1.920	0.850	92.60	-3.30	1.30	 	 	 	 	 	 	 	 	 	 	 	 	 	 	 	 	 	 	1581530145	10.46	19.37
12/02/2020 17:55:46	120220	12022020	175546	92.30	12.418762	-56.806428	92.27	0.470	-1.240	0.970	92.30	-2.80	1.40	 	 	 	 	 	 	 	 	 	 	 	 	 	 	 	 	 	 	1581530146	8.82	16.33
12/02/2020 17:55:47	120220	12022020	175547	91.96	12.418760	-56.806393	91.97	-0.030	0.010	1.100	91.93	-1.20	1.50	 	 	 	 	 	 	 	 	 	 	 	 	 	 	 	 	 	 	1581530147	7.46	13.82
12/02/2020 17:55:48	120220	12022020	175548	91.87	12.418760	-56.806358	91.90	-0.300	0.570	0.910	91.87	-0.80	1.30	 	 	 	 	 	 	 	 	 	 	 	 	 	 	 	 	 	 	1581530148	7.59	14.06
12/02/2020 17:55:49	120220	12022020	175549	91.85	12.418762	-56.806317	91.85	0.030	0.170	0.570	91.84	-1.30	1.00	 	 	 	 	 	 	 	 	 	 	 	 	 	 	 	 	 	 	1581530149	8.74	16.19
12/02/2020 17:55:50	120220	12022020	175550	91.74	12.418763	-56.806272	91.74	0.490	-0.390	0.550	91.71	-1.80	1.00	 	 	 	 	 	 	 	 	 	 	 	 	 	 	 	 	 	 	1581530150	9.53	17.65
12/02/2020 17:55:51	120220	12022020	175551	91.69	12.418763	-56.806228	91.75	0.380	-0.230	0.870	91.71	-1.50	1.40	 	 	 	 	 	 	 	 	 	 	 	 	 	 	 	 	 	 	1581530151	9.09	16.83
12/02/2020 17:55:52	120220	12022020	175552	91.87	12.418762	-56.806192	91.97	-0.310	0.440	1.200	91.93	-0.90	1.70	 	 	 	 	 	 	 	 	 	 	 	 	 	 	 	 	 	 	1581530152	7.91	14.65
12/02/2020 17:55:53	120220	12022020	175553	92.08	12.418760	-56.806155	92.16	-0.800	0.450	1.470	92.10	-1.00	1.90	 	 	 	 	 	 	 	 	 	 	 	 	 	 	 	 	 	 	1581530153	7.66	14.19
12/02/2020 17:55:54	120220	12022020	175554	92.06	12.418757	-56.806112	92.09	-0.350	-0.970	1.780	92.02	-2.50	2.20	 	 	 	 	 	 	 	 	 	 	 	 	 	 	 	 	 	 	1581530154	9.08	16.82
12/02/2020 17:55:55	120220	12022020	175555	91.69	12.418753	-56.806062	91.69	0.640	-2.240	2.140	91.60	-3.60	2.60	 	 	 	 	 	 	 	 	 	 	 	 	 	 	 	 	 	 	1581530155	10.54	19.52
12/02/2020 17:55:56	120220	12022020	175556	91.35	12.418753	-56.806018	91.40	1.050	-1.440	2.060	91.33	-2.60	2.40	 	 	 	 	 	 	 	 	 	 	 	 	 	 	 	 	 	 	1581530156	9.46	17.52
12/02/2020 17:55:57	120220	12022020	175557	91.44	12.418755	-56.805983	91.56	0.360	0.840	1.630	91.51	-0.20	2.00	 	 	 	 	 	 	 	 	 	 	 	 	 	 	 	 	 	 	1581530157	7.10	13.15
12/02/2020 17:55:58	120220	12022020	175558	91.91	12.418758	-56.805955	92.03	-0.820	2.380	1.150	91.91	0.80	1.70	 	 	 	 	 	 	 	 	 	 	 	 	 	 	 	 	 	 	1581530158	6.16	11.41
12/02/2020 17:55:59	120220	12022020	175559	92.28	12.418758	-56.805920	92.33	-1.240	1.490	0.690	92.31	-0.20	1.10	 	 	 	 	 	 	 	 	 	 	 	 	 	 	 	 	 	 	1581530159	7.59	14.06
12/02/2020 17:56:00	120220	12022020	175600	92.29	12.418760	-56.805870	92.28	-0.380	-1.100	0.480	92.25	-2.80	0.90	 	 	 	 	 	 	 	 	 	 	 	 	 	 	 	 	 	 	1581530160	10.22	18.93
12/02/2020 17:56:01	120220	12022020	175601	92.04	12.418758	-56.805818	92.03	0.950	-2.780	0.850	91.99	-4.20	1.30	 	 	 	 	 	 	 	 	 	 	 	 	 	 	 	 	 	 	1581530161	10.97	20.32
12/02/2020 17:56:02	120220	12022020	175602	91.87	12.418757	-56.805775	91.90	1.530	-2.230	1.160	91.87	-3.40	1.60	1015.10	26.60	26.60	20.10	20.20	824.0	67.0	67.0	396.0	28.5	348.00	16.50	75.00	12.20	59560	9362.0	27.4	27.4	1581530162	9.30	17.22
12/02/2020 17:56:03	120220	12022020	175603	91.99	12.418758	-56.805740	92.09	1.000	-0.390	1.180	92.07	-1.50	1.60	 	 	 	 	 	 	 	 	 	 	 	 	 	 	 	 	 	 	1581530163	7.39	13.69
12/02/2020 17:56:04	120220	12022020	175604	92.43	12.418758	-56.805708	92.57	-0.160	1.340	1.150	92.53	0.10	1.60	 	 	 	 	 	 	 	 	 	 	 	 	 	 	 	 	 	 	1581530164	6.76	12.52
12/02/2020 17:56:05	120220	12022020	175605	92.86	12.418757	-56.805675	92.95	-1.260	2.250	1.210	92.91	0.90	1.60	 	 	 	 	 	 	 	 	 	 	 	 	 	 	 	 	 	 	1581530165	7.00	12.96
12/02/2020 17:56:06	120220	12022020	175606	92.93	12.418753	-56.805638	92.94	-1.700	1.760	1.180	92.88	0.20	1.60	 	 	 	 	 	 	 	 	 	 	 	 	 	 	 	 	 	 	1581530166	7.73	14.32
12/02/2020 17:56:07	120220	12022020	175607	92.51	12.418750	-56.805595	92.45	-1.090	-0.370	1.300	92.40	-2.00	1.70	 	 	 	 	 	 	 	 	 	 	 	 	 	 	 	 	 	 	1581530167	9.22	17.08
12/02/2020 17:56:08	120220	12022020	175608	92.10	12.418748	-56.805543	92.13	0.320	-2.860	1.240	92.08	-4.40	1.60	 	 	 	 	 	 	 	 	 	 	 	 	 	 	 	 	 	 	1581530168	10.75	19.91
12/02/2020 17:56:09	120220	12022020	175609	92.20	12.418750	-56.805495	92.28	1.440	-3.440	0.770	92.26	-4.70	1.10	 	 	 	 	 	 	 	 	 	 	 	 	 	 	 	 	 	 	1581530169	10.39	19.24
12/02/2020 17:56:10	120220	12022020	175610	92.42	12.418752	-56.805457	92.44	1.440	-1.610	0.360	92.42	-3.50	0.80	 	 	 	 	 	 	 	 	 	 	 	 	 	 	 	 	 	 	1581530170	8.14	15.08
12/02/2020 17:56:11	120220	12022020	175611	92.26	12.418752	-56.805427	92.20	0.480	1.190	0.570	92.19	0.20	1.10	 	 	 	 	 	 	 	 	 	 	 	 	 	 	 	 	 	 	1581530171	6.20	11.48
12/02/2020 17:56:12	120220	12022020	175612	91.80	12.418750	-56.805400	91.73	-0.660	3.030	1.020	91.80	1.40	1.40	 	 	 	 	 	 	 	 	 	 	 	 	 	 	 	 	 	 	1581530172	5.93	10.98
12/02/2020 17:56:13	120220	12022020	175613	91.38	12.418748	-56.805365	91.36	-1.220	2.610	1.100	91.34	1.00	1.50	 	 	 	 	 	 	 	 	 	 	 	 	 	 	 	 	 	 	1581530173	7.25	13.43
12/02/2020 17:56:14	120220	12022020	175614	91.22	12.418750	-56.805320	91.23	-0.760	0.030	0.760	91.21	-1.70	1.20	 	 	 	 	 	 	 	 	 	 	 	 	 	 	 	 	 	 	1581530174	9.52	17.63
12/02/2020 17:56:15	120220	12022020	175615	91.24	12.418753	-56.805268	91.23	0.230	-2.600	0.590	91.23	-4.10	1.00	 	 	 	 	 	 	 	 	 	 	 	 	 	 	 	 	 	 	1581530175	10.94	20.26
12/02/2020 17:56:16	120220	12022020	175616	91.16	12.418752	-56.805222	91.15	0.840	-3.100	0.940	91.12	-4.30	1.40	 	 	 	 	 	 	 	 	 	 	 	 	 	 	 	 	 	 	1581530176	9.93	18.39
12/02/2020 17:56:17	120220	12022020	175617	90.93	12.418748	-56.805185	90.94	0.660	-1.420	1.630	90.89	-2.50	2.10	 	 	 	 	 	 	 	 	 	 	 	 	 	 	 	 	 	 	1581530177	7.61	14.09
12/02/2020 17:56:18	120220	12022020	175618	90.73	12.418743	-56.805157	90.76	0.020	0.770	2.130	90.70	-0.40	2.60	 	 	 	 	 	 	 	 	 	 	 	 	 	 	 	 	 	 	1581530178	6.18	11.45
12/02/2020 17:56:19	120220	12022020	175619	90.59	12.418743	-56.805125	90.63	-0.440	1.690	1.960	90.58	0.30	2.30	 	 	 	 	 	 	 	 	 	 	 	 	 	 	 	 	 	 	1581530179	6.56	12.15
12/02/2020 17:56:20	120220	12022020	175620	90.59	12.418747	-56.805087	90.65	-0.520	1.070	1.400	90.62	-0.40	1.80	 	 	 	 	 	 	 	 	 	 	 	 	 	 	 	 	 	 	1581530180	8.20	15.19
12/02/2020 17:56:21	120220	12022020	175621	90.72	12.418750	-56.805043	90.76	-0.360	-0.240	0.980	90.74	-1.70	1.40	 	 	 	 	 	 	 	 	 	 	 	 	 	 	 	 	 	 	1581530181	9.29	17.21
12/02/2020 17:56:22	120220	12022020	175622	90.79	12.418752	-56.804998	90.82	-0.050	-1.210	0.790	90.80	-2.60	1.20	 	 	 	 	 	 	 	 	 	 	 	 	 	 	 	 	 	 	1581530182	9.35	17.32
12/02/2020 17:56:23	120220	12022020	175623	90.79	12.418752	-56.804957	90.82	0.320	-1.450	0.940	90.79	-2.80	1.40	 	 	 	 	 	 	 	 	 	 	 	 	 	 	 	 	 	 	1581530183	8.81	16.32
12/02/2020 17:56:24	120220	12022020	175624	90.85	12.418752	-56.804918	90.90	0.580	-1.020	1.170	90.87	-2.30	1.60	 	 	 	 	 	 	 	 	 	 	 	 	 	 	 	 	 	 	1581530184	8.29	15.35
12/02/2020 17:56:25	120220	12022020	175625	90.94	12.418752	-56.804882	90.97	0.510	-0.010	1.000	90.95	-1.20	1.40	 	 	 	 	 	 	 	 	 	 	 	 	 	 	 	 	 	 	1581530185	7.74	14.33
12/02/2020 17:56:26	120220	12022020	175626	90.92	12.418755	-56.804847	90.93	0.170	0.930	0.760	90.90	-0.40	1.20	 	 	 	 	 	 	 	 	 	 	 	 	 	 	 	 	 	 	1581530186	7.26	13.45
12/02/2020 17:56:27	120220	12022020	175627	90.82	12.418760	-56.804810	90.82	-0.140	0.730	0.700	90.81	-0.70	1.10	 	 	 	 	 	 	 	 	 	 	 	 	 	 	 	 	 	 	1581530187	7.77	14.39
12/02/2020 17:56:28	120220	12022020	175628	90.76	12.418763	-56.804768	90.77	-0.150	-0.570	0.690	90.76	-2.10	1.10	 	 	 	 	 	 	 	 	 	 	 	 	 	 	 	 	 	 	1581530188	9.15	16.95
12/02/2020 17:56:29	120220	12022020	175629	90.82	12.418763	-56.804722	90.88	0.020	-1.550	0.810	90.87	-2.90	1.30	 	 	 	 	 	 	 	 	 	 	 	 	 	 	 	 	 	 	1581530189	9.86	18.26
12/02/2020 17:56:30	120220	12022020	175630	91.10	12.418762	-56.804680	91.18	-0.060	-0.890	1.090	91.16	-2.10	1.50	 	 	 	 	 	 	 	 	 	 	 	 	 	 	 	 	 	 	1581530190	8.80	16.30
12/02/2020 17:56:31	120220	12022020	175631	91.35	12.418758	-56.804647	91.40	-0.490	0.620	1.240	91.37	-0.60	1.70	 	 	 	 	 	 	 	 	 	 	 	 	 	 	 	 	 	 	1581530191	7.04	13.04
12/02/2020 17:56:32	120220	12022020	175632	91.34	12.418757	-56.804615	91.34	-0.760	1.280	1.130	91.32	-0.10	1.50	 	 	 	 	 	 	 	 	 	 	 	 	 	 	 	 	 	 	1581530192	6.80	12.59
12/02/2020 17:56:33	120220	12022020	175633	91.28	12.418758	-56.804575	91.29	-0.400	0.450	0.700	91.29	-1.00	1.10	 	 	 	 	 	 	 	 	 	 	 	 	 	 	 	 	 	 	1581530193	8.23	15.24
12/02/2020 17:56:34	120220	12022020	175634	91.38	12.418763	-56.804532	91.41	0.230	-0.820	0.190	91.41	-2.30	0.60	 	 	 	 	 	 	 	 	 	 	 	 	 	 	 	 	 	 	1581530194	9.48	17.56
12/02/2020 17:56:35	120220	12022020	175635	91.42	12.418768	-56.804487	91.39	0.680	-1.570	-0.070	91.39	-2.90	0.40	 	 	 	 	 	 	 	 	 	 	 	 	 	 	 	 	 	 	1581530195	9.39	17.39
12/02/2020 17:56:36	120220	12022020	175636	91.18	12.418770	-56.804445	91.12	0.850	-1.570	0.240	91.18	-2.90	0.60	 	 	 	 	 	 	 	 	 	 	 	 	 	 	 	 	 	 	1581530196	8.79	16.28
12/02/2020 17:56:37	120220	12022020	175637	90.90	12.418770	-56.804405	90.90	0.800	-1.040	0.690	90.88	-2.30	1.10	 	 	 	 	 	 	 	 	 	 	 	 	 	 	 	 	 	 	1581530197	8.40	15.56
12/02/2020 17:56:38	120220	12022020	175638	90.98	12.418770	-56.804367	91.04	0.320	0.060	0.860	91.02	-1.10	1.30	 	 	 	 	 	 	 	 	 	 	 	 	 	 	 	 	 	 	1581530198	8.13	15.06
12/02/2020 17:56:39	120220	12022020	175639	91.25	12.418770	-56.804333	91.31	-0.680	1.500	1.040	91.30	0.30	1.50	 	 	 	 	 	 	 	 	 	 	 	 	 	 	 	 	 	 	1581530199	7.22	13.37
12/02/2020 17:56:40	120220	12022020	175640	91.40	12.418768	-56.804300	91.43	-1.560	2.090	1.170	91.40	0.70	1.60	 	 	 	 	 	 	 	 	 	 	 	 	 	 	 	 	 	 	1581530200	6.87	12.72
12/02/2020 17:56:41	120220	12022020	175641	91.26	12.418767	-56.804262	91.24	-1.310	0.630	1.210	91.19	-1.00	1.60	 	 	 	 	 	 	 	 	 	 	 	 	 	 	 	 	 	 	1581530201	8.19	15.17
12/02/2020 17:56:42	120220	12022020	175642	90.91	12.418767	-56.804213	90.90	0.120	-1.940	1.170	90.86	-3.50	1.50	 	 	 	 	 	 	 	 	 	 	 	 	 	 	 	 	 	 	1581530202	10.38	19.22
12/02/2020 17:56:43	120220	12022020	175643	90.94	12.418768	-56.804162	91.04	1.500	-3.170	0.710	91.02	-4.50	1.10	 	 	 	 	 	 	 	 	 	 	 	 	 	 	 	 	 	 	1581530203	10.74	19.89
12/02/2020 17:56:44	120220	12022020	175644	91.48	12.418773	-56.804120	91.63	1.630	-1.790	0.520	91.62	-2.80	1.00	 	 	 	 	 	 	 	 	 	 	 	 	 	 	 	 	 	 	1581530204	8.71	16.13
12/02/2020 17:56:45	120220	12022020	175645	92.06	12.418773	-56.804092	92.15	0.410	1.080	0.750	92.13	0.00	1.20	 	 	 	 	 	 	 	 	 	 	 	 	 	 	 	 	 	 	1581530205	6.11	11.32
12/02/2020 17:56:46	120220	12022020	175646	92.27	12.418770	-56.804067	92.30	-1.180	3.070	1.020	92.26	1.80	1.50	 	 	 	 	 	 	 	 	 	 	 	 	 	 	 	 	 	 	1581530206	5.34	9.89
12/02/2020 17:56:47	120220	12022020	175647	92.10	12.418767	-56.804035	92.09	-1.920	2.580	1.330	92.03	1.00	1.80	 	 	 	 	 	 	 	 	 	 	 	 	 	 	 	 	 	 	1581530207	6.82	12.63
12/02/2020 17:56:48	120220	12022020	175648	91.75	12.418765	-56.803990	91.75	-1.200	-0.070	1.370	91.75	-0.70	1.80	 	 	 	 	 	 	 	 	 	 	 	 	 	 	 	 	 	 	1581530208	9.30	17.22
12/02/2020 17:56:49	120220	12022020	175649	91.51	12.418767	-56.803940	91.52	0.420	-2.880	0.990	91.47	-4.40	1.40	 	 	 	 	 	 	 	 	 	 	 	 	 	 	 	 	 	 	1581530209	10.80	20.00
12/02/2020 17:56:50	120220	12022020	175650	91.29	12.418770	-56.803892	91.30	1.680	-3.750	0.790	91.29	-5.10	1.20	 	 	 	 	 	 	 	 	 	 	 	 	 	 	 	 	 	 	1581530210	10.25	18.98
12/02/2020 17:56:51	120220	12022020	175651	91.14	12.418773	-56.803853	91.17	1.680	-2.130	0.780	91.13	-3.10	1.20	 	 	 	 	 	 	 	 	 	 	 	 	 	 	 	 	 	 	1581530211	8.13	15.06
12/02/2020 17:56:52	120220	12022020	175652	91.15	12.418777	-56.803823	91.21	0.590	0.670	0.950	91.17	-0.30	1.40	 	 	 	 	 	 	 	 	 	 	 	 	 	 	 	 	 	 	1581530212	6.21	11.50
12/02/2020 17:56:53	120220	12022020	175653	91.37	12.418775	-56.803797	91.48	-0.780	2.680	1.220	91.44	1.40	1.70	 	 	 	 	 	 	 	 	 	 	 	 	 	 	 	 	 	 	1581530213	5.79	10.72
12/02/2020 17:56:54	120220	12022020	175654	91.68	12.418773	-56.803763	91.76	-1.580	2.570	1.370	91.72	1.10	1.80	 	 	 	 	 	 	 	 	 	 	 	 	 	 	 	 	 	 	1581530214	7.08	13.11
12/02/2020 17:56:55	120220	12022020	175655	91.73	12.418770	-56.803720	91.76	-1.380	0.670	1.470	91.70	-0.90	1.90	 	 	 	 	 	 	 	 	 	 	 	 	 	 	 	 	 	 	1581530215	9.05	16.76
12/02/2020 17:56:56	120220	12022020	175656	91.56	12.418767	-56.803673	91.57	-0.410	-1.380	1.560	91.51	-2.90	2.00	 	 	 	 	 	 	 	 	 	 	 	 	 	 	 	 	 	 	1581530216	10.09	18.69
12/02/2020 17:56:57	120220	12022020	175657	91.30	12.418767	-56.803628	91.34	0.620	-2.220	1.530	91.26	-3.60	1.90	 	 	 	 	 	 	 	 	 	 	 	 	 	 	 	 	 	 	1581530217	9.48	17.56
12/02/2020 17:56:58	120220	12022020	175658	91.20	12.418768	-56.803588	91.26	1.110	-1.800	1.270	91.20	-3.00	1.70	 	 	 	 	 	 	 	 	 	 	 	 	 	 	 	 	 	 	1581530218	8.31	15.39
12/02/2020 17:56:59	120220	12022020	175659	91.19	12.418772	-56.803553	91.24	0.960	-0.740	1.060	91.18	-2.00	1.50	 	 	 	 	 	 	 	 	 	 	 	 	 	 	 	 	 	 	1581530219	7.57	14.02
12/02/2020 17:57:00	120220	12022020	175700	91.12	12.418773	-56.803518	91.15	0.420	0.450	0.950	91.12	-1.20	1.40	 	 	 	 	 	 	 	 	 	 	 	 	 	 	 	 	 	 	1581530220	7.28	13.48
12/02/2020 17:57:01	120220	12022020	175701	91.03	12.418777	-56.803483	91.06	-0.140	1.140	0.700	91.02	-0.20	1.10	 	 	 	 	 	 	 	 	 	 	 	 	 	 	 	 	 	 	1581530221	7.33	13.58
12/02/2020 17:57:02	120220	12022020	175702	91.09	12.418780	-56.803445	91.17	-0.320	0.770	0.400	91.09	-0.40	0.90	1015.20	26.50	26.60	20.40	20.50	826.0	69.0	69.0	397.0	28.5	349.00	15.60	77.00	11.50	59299	8796.0	27.4	27.4	1581530222	8.08	14.96
12/02/2020 17:57:03	120220	12022020	175703	91.50	12.418783	-56.803403	91.60	-0.190	-0.210	0.210	91.59	-1.70	0.60	 	 	 	 	 	 	 	 	 	 	 	 	 	 	 	 	 	 	1581530223	9.06	16.78
12/02/2020 17:57:04	120220	12022020	175704	91.82	12.418783	-56.803360	91.85	-0.150	-0.810	0.350	91.82	-2.20	0.80	 	 	 	 	 	 	 	 	 	 	 	 	 	 	 	 	 	 	1581530224	9.07	16.80
12/02/2020 17:57:05	120220	12022020	175705	91.51	12.418780	-56.803320	91.44	-0.340	-0.770	1.060	91.37	-2.10	1.60	 	 	 	 	 	 	 	 	 	 	 	 	 	 	 	 	 	 	1581530225	8.37	15.50
12/02/2020 17:57:06	120220	12022020	175706	90.85	12.418775	-56.803283	90.82	-0.460	-0.380	1.870	90.74	-1.70	2.30	 	 	 	 	 	 	 	 	 	 	 	 	 	 	 	 	 	 	1581530226	7.87	14.58
12/02/2020 17:57:07	120220	12022020	175707	90.49	12.418773	-56.803247	90.54	-0.110	-0.350	1.760	90.48	-1.80	2.10	 	 	 	 	 	 	 	 	 	 	 	 	 	 	 	 	 	 	1581530227	7.90	14.63
12/02/2020 17:57:08	120220	12022020	175708	90.61	12.418780	-56.803205	90.71	0.680	-0.980	0.860	90.68	-2.40	1.20	 	 	 	 	 	 	 	 	 	 	 	 	 	 	 	 	 	 	1581530228	8.90	16.48
12/02/2020 17:57:09	120220	12022020	175709	90.95	12.418788	-56.803160	91.04	1.270	-1.400	0.200	91.02	-2.70	0.60	 	 	 	 	 	 	 	 	 	 	 	 	 	 	 	 	 	 	1581530229	9.67	17.91
12/02/2020 17:57:10	120220	12022020	175710	91.35	12.418792	-56.803118	91.48	0.870	-0.370	0.270	91.45	-1.50	0.70	 	 	 	 	 	 	 	 	 	 	 	 	 	 	 	 	 	 	1581530230	8.84	16.37
12/02/2020 17:57:11	120220	12022020	175711	91.85	12.418792	-56.803087	91.98	-0.510	1.780	0.780	91.94	0.60	1.30	 	 	 	 	 	 	 	 	 	 	 	 	 	 	 	 	 	 	1581530231	6.61	12.24
12/02/2020 17:57:12	120220	12022020	175712	92.17	12.418787	-56.803060	92.26	-1.800	2.970	1.450	92.20	1.60	1.90	 	 	 	 	 	 	 	 	 	 	 	 	 	 	 	 	 	 	1581530232	5.77	10.69
12/02/2020 17:57:13	120220	12022020	175713	92.21	12.418782	-56.803025	92.27	-1.670	1.360	1.810	92.20	-0.40	2.20	 	 	 	 	 	 	 	 	 	 	 	 	 	 	 	 	 	 	1581530233	7.52	13.93
12/02/2020 17:57:14	120220	12022020	175714	92.16	12.418780	-56.802977	92.21	-0.220	-1.780	1.580	92.16	-2.40	2.10	 	 	 	 	 	 	 	 	 	 	 	 	 	 	 	 	 	 	1581530234	10.26	19.00
12/02/2020 17:57:15	120220	12022020	175715	91.99	12.418783	-56.802925	92.01	1.350	-3.730	1.250	91.95	-5.10	1.70	 	 	 	 	 	 	 	 	 	 	 	 	 	 	 	 	 	 	1581530235	10.84	20.08
12/02/2020 17:57:16	120220	12022020	175716	91.80	12.418787	-56.802882	91.83	1.890	-3.030	1.060	91.79	-4.10	1.50	 	 	 	 	 	 	 	 	 	 	 	 	 	 	 	 	 	 	1581530236	9.09	16.83
12/02/2020 17:57:17	120220	12022020	175717	91.88	12.418792	-56.802850	91.98	1.200	-0.460	1.020	91.94	-1.50	1.40	 	 	 	 	 	 	 	 	 	 	 	 	 	 	 	 	 	 	1581530237	6.75	12.50
12/02/2020 17:57:18	120220	12022020	175718	92.31	12.418793	-56.802823	92.45	-0.060	1.830	0.790	92.43	0.60	1.20	 	 	 	 	 	 	 	 	 	 	 	 	 	 	 	 	 	 	1581530238	5.78	10.70
12/02/2020 17:57:19	120220	12022020	175719	92.87	12.418795	-56.802792	92.98	-0.980	2.320	0.460	92.97	0.90	0.90	 	 	 	 	 	 	 	 	 	 	 	 	 	 	 	 	 	 	1581530239	6.86	12.70
12/02/2020 17:57:20	120220	12022020	175720	93.21	12.418793	-56.802750	93.26	-1.210	1.380	0.490	93.24	-0.10	1.00	 	 	 	 	 	 	 	 	 	 	 	 	 	 	 	 	 	 	1581530240	8.54	15.82
12/02/2020 17:57:21	120220	12022020	175721	93.18	12.418790	-56.802708	93.18	-0.970	0.170	0.870	93.14	-1.30	1.30	 	 	 	 	 	 	 	 	 	 	 	 	 	 	 	 	 	 	1581530241	9.02	16.71
12/02/2020 17:57:22	120220	12022020	175722	92.93	12.418787	-56.802667	92.91	-0.430	-0.990	0.950	92.87	-2.50	1.40	 	 	 	 	 	 	 	 	 	 	 	 	 	 	 	 	 	 	1581530242	8.87	16.43
12/02/2020 17:57:23	120220	12022020	175723	92.61	12.418787	-56.802623	92.60	0.240	-1.950	0.920	92.55	-3.40	1.40	 	 	 	 	 	 	 	 	 	 	 	 	 	 	 	 	 	 	1581530243	8.93	16.54
12/02/2020 17:57:24	120220	12022020	175724	92.40	12.418787	-56.802582	92.43	0.800	-2.270	0.860	92.40	-3.60	1.40	 	 	 	 	 	 	 	 	 	 	 	 	 	 	 	 	 	 	1581530244	8.90	16.48
12/02/2020 17:57:25	120220	12022020	175725	92.52	12.418790	-56.802542	92.58	1.090	-1.590	0.310	92.56	-2.80	0.70	 	 	 	 	 	 	 	 	 	 	 	 	 	 	 	 	 	 	1581530245	8.51	15.76
12/02/2020 17:57:26	120220	12022020	175726	92.69	12.418793	-56.802505	92.71	1.000	0.000	-0.050	92.69	-1.80	0.40	 	 	 	 	 	 	 	 	 	 	 	 	 	 	 	 	 	 	1581530246	7.73	14.32
12/02/2020 17:57:27	120220	12022020	175727	92.65	12.418795	-56.802472	92.65	0.380	1.590	0.410	92.63	0.40	0.90	 	 	 	 	 	 	 	 	 	 	 	 	 	 	 	 	 	 	1581530247	7.03	13.02
12/02/2020 17:57:28	120220	12022020	175728	92.53	12.418792	-56.802438	92.54	-0.760	2.360	1.060	92.52	1.00	1.50	 	 	 	 	 	 	 	 	 	 	 	 	 	 	 	 	 	 	1581530248	7.09	13.13
12/02/2020 17:57:29	120220	12022020	175729	92.49	12.418790	-56.802403	92.53	-1.810	1.930	1.130	92.49	0.40	1.50	 	 	 	 	 	 	 	 	 	 	 	 	 	 	 	 	 	 	1581530249	7.46	13.82
12/02/2020 17:57:30	120220	12022020	175730	92.48	12.418788	-56.802363	92.52	-1.720	-0.020	1.050	92.48	-1.70	1.50	 	 	 	 	 	 	 	 	 	 	 	 	 	 	 	 	 	 	1581530250	8.41	15.58
12/02/2020 17:57:31	120220	12022020	175731	92.49	12.418787	-56.802317	92.52	-0.240	-2.790	1.070	92.49	-4.40	1.50	 	 	 	 	 	 	 	 	 	 	 	 	 	 	 	 	 	 	1581530251	10.05	18.61
12/02/2020 17:57:32	120220	12022020	175732	92.32	12.418785	-56.802267	92.29	1.500	-4.250	1.130	92.25	-5.60	1.60	 	 	 	 	 	 	 	 	 	 	 	 	 	 	 	 	 	 	1581530252	10.50	19.45
12/02/2020 17:57:33	120220	12022020	175733	91.91	12.418785	-56.802225	91.87	2.130	-2.880	1.150	91.83	-3.90	1.60	 	 	 	 	 	 	 	 	 	 	 	 	 	 	 	 	 	 	1581530253	8.82	16.33
12/02/2020 17:57:34	120220	12022020	175734	91.61	12.418787	-56.802195	91.64	1.260	0.480	1.320	91.60	-0.50	1.80	 	 	 	 	 	 	 	 	 	 	 	 	 	 	 	 	 	 	1581530254	6.20	11.48
12/02/2020 17:57:35	120220	12022020	175735	91.75	12.418790	-56.802172	91.85	-0.370	3.330	1.200	91.83	2.10	1.60	 	 	 	 	 	 	 	 	 	 	 	 	 	 	 	 	 	 	1581530255	5.05	9.35
12/02/2020 17:57:36	120220	12022020	175736	92.24	12.418793	-56.802143	92.35	-1.650	3.710	0.540	92.35	2.20	0.90	 	 	 	 	 	 	 	 	 	 	 	 	 	 	 	 	 	 	1581530256	6.21	11.50
12/02/2020 17:57:37	120220	12022020	175737	92.72	12.418797	-56.802102	92.79	-1.790	1.470	-0.010	92.80	-0.30	0.40	 	 	 	 	 	 	 	 	 	 	 	 	 	 	 	 	 	 	1581530257	8.66	16.04
12/02/2020 17:57:38	120220	12022020	175738	92.97	12.418797	-56.802053	92.99	-0.830	-1.660	0.160	92.97	-2.30	0.50	 	 	 	 	 	 	 	 	 	 	 	 	 	 	 	 	 	 	1581530258	10.40	19.26
12/02/2020 17:57:39	120220	12022020	175739	92.88	12.418792	-56.802003	92.86	0.470	-3.380	0.670	92.84	-4.80	1.10	 	 	 	 	 	 	 	 	 	 	 	 	 	 	 	 	 	 	1581530259	10.32	19.11
12/02/2020 17:57:40	120220	12022020	175740	92.68	12.418790	-56.801965	92.67	1.200	-2.620	0.780	92.68	-4.30	1.20	 	 	 	 	 	 	 	 	 	 	 	 	 	 	 	 	 	 	1581530260	8.43	15.61
12/02/2020 17:57:41	120220	12022020	175741	92.70	12.418792	-56.801933	92.73	0.950	-0.420	0.720	92.73	-1.50	1.20	 	 	 	 	 	 	 	 	 	 	 	 	 	 	 	 	 	 	1581530261	6.42	11.89
12/02/2020 17:57:42	120220	12022020	175742	92.98	12.418793	-56.801907	93.05	0.110	1.270	0.710	93.05	0.00	1.10	 	 	 	 	 	 	 	 	 	 	 	 	 	 	 	 	 	 	1581530262	5.93	10.98
12/02/2020 17:57:43	120220	12022020	175743	93.37	12.418795	-56.801873	93.43	-0.580	1.440	0.560	93.43	0.00	1.00	 	 	 	 	 	 	 	 	 	 	 	 	 	 	 	 	 	 	1581530263	6.99	12.95
12/02/2020 17:57:44	120220	12022020	175744	93.53	12.418795	-56.801833	93.54	-0.540	0.470	0.510	93.52	-1.00	1.00	 	 	 	 	 	 	 	 	 	 	 	 	 	 	 	 	 	 	1581530264	8.39	15.54
12/02/2020 17:57:45	120220	12022020	175745	93.41	12.418793	-56.801790	93.42	0.150	-0.850	0.720	93.38	-2.40	1.20	 	 	 	 	 	 	 	 	 	 	 	 	 	 	 	 	 	 	1581530265	9.18	17.00
12/02/2020 17:57:46	120220	12022020	175746	93.34	12.418792	-56.801745	93.39	0.780	-1.650	0.940	93.36	-3.00	1.40	 	 	 	 	 	 	 	 	 	 	 	 	 	 	 	 	 	 	1581530266	9.36	17.33
12/02/2020 17:57:47	120220	12022020	175747	93.58	12.418790	-56.801707	93.67	0.600	-1.050	0.680	93.66	-2.30	1.00	 	 	 	 	 	 	 	 	 	 	 	 	 	 	 	 	 	 	1581530267	8.38	15.52
12/02/2020 17:57:48	120220	12022020	175748	94.01	12.418792	-56.801673	94.10	-0.240	0.550	0.240	94.10	-0.60	0.60	 	 	 	 	 	 	 	 	 	 	 	 	 	 	 	 	 	 	1581530268	6.77	12.54
12/02/2020 17:57:49	120220	12022020	175749	94.34	12.418793	-56.801645	94.39	-0.920	1.560	0.260	94.37	0.20	0.70	 	 	 	 	 	 	 	 	 	 	 	 	 	 	 	 	 	 	1581530269	6.11	11.32
12/02/2020 17:57:50	120220	12022020	175750	94.41	12.418792	-56.801610	94.41	-0.700	0.690	0.410	94.41	-0.30	0.80	 	 	 	 	 	 	 	 	 	 	 	 	 	 	 	 	 	 	1581530270	7.48	13.85
12/02/2020 17:57:51	120220	12022020	175751	94.20	12.418788	-56.801565	94.18	0.130	-1.090	0.610	94.13	-2.60	1.10	 	 	 	 	 	 	 	 	 	 	 	 	 	 	 	 	 	 	1581530271	9.43	17.46
12/02/2020 17:57:52	120220	12022020	175752	93.87	12.418787	-56.801520	93.88	0.680	-1.910	0.970	93.87	-3.20	1.30	 	 	 	 	 	 	 	 	 	 	 	 	 	 	 	 	 	 	1581530272	9.53	17.65
12/02/2020 17:57:53	120220	12022020	175753	93.74	12.418783	-56.801482	93.80	0.570	-1.120	1.110	93.75	-2.30	1.50	 	 	 	 	 	 	 	 	 	 	 	 	 	 	 	 	 	 	1581530273	8.02	14.85
12/02/2020 17:57:54	120220	12022020	175754	93.94	12.418783	-56.801452	94.04	0.090	0.380	0.810	94.01	-0.80	1.20	 	 	 	 	 	 	 	 	 	 	 	 	 	 	 	 	 	 	1581530274	6.57	12.17
12/02/2020 17:57:55	120220	12022020	175755	94.27	12.418783	-56.801420	94.35	-0.230	1.050	0.490	94.31	-0.30	0.90	 	 	 	 	 	 	 	 	 	 	 	 	 	 	 	 	 	 	1581530275	6.61	12.24
12/02/2020 17:57:56	120220	12022020	175756	94.27	12.418782	-56.801383	94.30	-0.190	0.450	0.540	94.23	-1.00	1.00	 	 	 	 	 	 	 	 	 	 	 	 	 	 	 	 	 	 	1581530276	7.89	14.61
12/02/2020 17:57:57	120220	12022020	175757	93.93	12.418778	-56.801340	93.94	0.040	-0.570	0.890	93.85	-2.00	1.30	 	 	 	 	 	 	 	 	 	 	 	 	 	 	 	 	 	 	1581530277	8.95	16.58
12/02/2020 17:57:58	120220	12022020	175758	93.58	12.418777	-56.801300	93.61	0.160	-0.820	1.020	93.53	-2.10	1.40	 	 	 	 	 	 	 	 	 	 	 	 	 	 	 	 	 	 	1581530278	8.71	16.13
12/02/2020 17:57:59	120220	12022020	175759	93.46	12.418777	-56.801263	93.51	0.060	-0.360	0.800	93.44	-1.70	1.20	 	 	 	 	 	 	 	 	 	 	 	 	 	 	 	 	 	 	1581530279	7.65	14.17
12/02/2020 17:58:00	120220	12022020	175800	93.33	12.418777	-56.801228	93.35	0.000	-0.260	0.910	93.28	-1.70	1.40	 	 	 	 	 	 	 	 	 	 	 	 	 	 	 	 	 	 	1581530280	7.47	13.83
12/02/2020 17:58:01	120220	12022020	175801	93.06	12.418775	-56.801188	93.08	0.140	-0.710	1.250	93.01	-2.10	1.70	 	 	 	 	 	 	 	 	 	 	 	 	 	 	 	 	 	 	1581530281	8.39	15.54
12/02/2020 17:58:02	120220	12022020	175802	92.80	12.418772	-56.801147	92.82	0.190	-0.750	1.650	92.75	-2.00	2.10	1015.20	26.50	26.60	20.80	20.80	817.0	70.0	70.0	397.0	28.5	347.00	15.60	75.00	11.60	58966	10530.0	27.4	27.4	1581530282	8.76	16.22
12/02/2020 17:58:03	120220	12022020	175803	92.57	12.418768	-56.801110	92.61	-0.100	0.030	1.960	92.54	-1.20	2.40	 	 	 	 	 	 	 	 	 	 	 	 	 	 	 	 	 	 	1581530283	7.87	14.58
12/02/2020 17:58:04	120220	12022020	175804	92.47	12.418765	-56.801077	92.54	-0.450	0.700	1.810	92.47	-0.60	2.20	 	 	 	 	 	 	 	 	 	 	 	 	 	 	 	 	 	 	1581530284	7.15	13.24
12/02/2020 17:58:05	120220	12022020	175805	92.54	12.418765	-56.801040	92.65	-0.330	0.390	1.440	92.59	-1.10	1.80	 	 	 	 	 	 	 	 	 	 	 	 	 	 	 	 	 	 	1581530285	7.79	14.43
12/02/2020 17:58:06	120220	12022020	175806	92.79	12.418765	-56.800998	92.87	0.200	-0.430	1.060	92.82	-1.90	1.50	 	 	 	 	 	 	 	 	 	 	 	 	 	 	 	 	 	 	1581530286	8.81	16.32
12/02/2020 17:58:07	120220	12022020	175807	92.81	12.418767	-56.800955	92.82	0.600	-0.960	0.980	92.77	-2.30	1.40	 	 	 	 	 	 	 	 	 	 	 	 	 	 	 	 	 	 	1581530287	8.98	16.63
12/02/2020 17:58:08	120220	12022020	175808	92.54	12.418767	-56.800915	92.54	0.470	-0.780	1.170	92.49	-2.10	1.60	 	 	 	 	 	 	 	 	 	 	 	 	 	 	 	 	 	 	1581530288	8.44	15.63
12/02/2020 17:58:09	120220	12022020	175809	92.43	12.418765	-56.800880	92.51	-0.080	0.010	1.430	92.46	-1.20	1.90	 	 	 	 	 	 	 	 	 	 	 	 	 	 	 	 	 	 	1581530289	7.57	14.02
12/02/2020 17:58:10	120220	12022020	175810	92.67	12.418763	-56.800847	92.77	-0.540	0.750	1.420	92.73	-0.60	1.80	 	 	 	 	 	 	 	 	 	 	 	 	 	 	 	 	 	 	1581530290	7.07	13.09
12/02/2020 17:58:11	120220	12022020	175811	92.89	12.418765	-56.800812	92.95	-0.530	0.630	1.170	92.91	-0.80	1.60	 	 	 	 	 	 	 	 	 	 	 	 	 	 	 	 	 	 	1581530291	7.43	13.76
12/02/2020 17:58:12	120220	12022020	175812	92.91	12.418765	-56.800770	92.95	0.000	-0.580	0.890	92.91	-2.10	1.30	 	 	 	 	 	 	 	 	 	 	 	 	 	 	 	 	 	 	1581530292	8.65	16.02
12/02/2020 17:58:13	120220	12022020	175813	92.94	12.418767	-56.800723	93.02	0.680	-1.980	0.950	92.97	-3.40	1.40	 	 	 	 	 	 	 	 	 	 	 	 	 	 	 	 	 	 	1581530293	9.76	18.08
12/02/2020 17:58:14	120220	12022020	175814	93.08	12.418765	-56.800680	93.16	0.890	-2.070	1.190	93.10	-3.30	1.60	 	 	 	 	 	 	 	 	 	 	 	 	 	 	 	 	 	 	1581530294	9.44	17.48
12/02/2020 17:58:15	120220	12022020	175815	93.07	12.418762	-56.800642	93.08	0.410	-0.630	1.170	93.03	-1.70	1.60	 	 	 	 	 	 	 	 	 	 	 	 	 	 	 	 	 	 	1581530295	7.89	14.61
12/02/2020 17:58:16	120220	12022020	175816	92.82	12.418762	-56.800610	92.82	-0.430	1.310	1.070	92.82	-0.50	1.50	 	 	 	 	 	 	 	 	 	 	 	 	 	 	 	 	 	 	1581530296	6.64	12.30
12/02/2020 17:58:17	120220	12022020	175817	92.71	12.418762	-56.800580	92.76	-1.170	2.410	0.740	92.74	1.10	1.10	 	 	 	 	 	 	 	 	 	 	 	 	 	 	 	 	 	 	1581530297	6.56	12.15
12/02/2020 17:58:18	120220	12022020	175818	93.00	12.418763	-56.800543	93.09	-1.390	1.780	0.200	93.08	0.20	0.60	 	 	 	 	 	 	 	 	 	 	 	 	 	 	 	 	 	 	1581530298	7.57	14.02
12/02/2020 17:58:19	120220	12022020	175819	93.32	12.418765	-56.800500	93.35	-0.790	-0.430	-0.150	93.34	-2.10	0.30	 	 	 	 	 	 	 	 	 	 	 	 	 	 	 	 	 	 	1581530299	9.19	17.02
12/02/2020 17:58:20	120220	12022020	175820	93.27	12.418763	-56.800452	93.24	0.420	-2.660	-0.130	93.22	-4.20	0.30	 	 	 	 	 	 	 	 	 	 	 	 	 	 	 	 	 	 	1581530300	10.35	19.17
12/02/2020 17:58:21	120220	12022020	175821	92.91	12.418760	-56.800405	92.86	1.370	-3.060	0.370	92.82	-4.30	0.90	 	 	 	 	 	 	 	 	 	 	 	 	 	 	 	 	 	 	1581530301	9.78	18.11
12/02/2020 17:58:22	120220	12022020	175822	92.57	12.418758	-56.800368	92.58	1.300	-1.300	0.880	92.53	-2.40	1.30	 	 	 	 	 	 	 	 	 	 	 	 	 	 	 	 	 	 	1581530302	7.72	14.30
12/02/2020 17:58:23	120220	12022020	175823	92.52	12.418758	-56.800340	92.58	0.330	1.090	0.950	92.54	-0.10	1.40	 	 	 	 	 	 	 	 	 	 	 	 	 	 	 	 	 	 	1581530303	6.06	11.22
12/02/2020 17:58:24	120220	12022020	175824	92.70	12.418758	-56.800310	92.77	-0.720	2.210	0.720	92.74	0.80	1.10	 	 	 	 	 	 	 	 	 	 	 	 	 	 	 	 	 	 	1581530304	6.19	11.46
12/02/2020 17:58:25	120220	12022020	175825	92.79	12.418757	-56.800273	92.82	-1.010	1.300	0.820	92.77	-0.30	1.30	 	 	 	 	 	 	 	 	 	 	 	 	 	 	 	 	 	 	1581530305	7.95	14.72
12/02/2020 17:58:26	120220	12022020	175826	92.67	12.418753	-56.800228	92.70	-0.590	-0.420	0.990	92.65	-1.90	1.40	 	 	 	 	 	 	 	 	 	 	 	 	 	 	 	 	 	 	1581530306	9.67	17.91
12/02/2020 17:58:27	120220	12022020	175827	92.63	12.418753	-56.800183	92.67	-0.190	-1.110	1.010	92.62	-2.50	1.40	 	 	 	 	 	 	 	 	 	 	 	 	 	 	 	 	 	 	1581530307	9.33	17.28
12/02/2020 17:58:28	120220	12022020	175828	92.55	12.418750	-56.800145	92.59	-0.050	-0.980	1.310	92.55	-2.40	1.60	 	 	 	 	 	 	 	 	 	 	 	 	 	 	 	 	 	 	1581530308	7.96	14.74
12/02/2020 17:58:29	120220	12022020	175829	92.40	12.418747	-56.800110	92.42	0.150	-0.950	1.530	92.36	-2.40	1.90	 	 	 	 	 	 	 	 	 	 	 	 	 	 	 	 	 	 	1581530309	7.79	14.43
12/02/2020 17:58:30	120220	12022020	175830	92.19	12.418745	-56.800070	92.19	0.570	-1.020	1.480	92.14	-2.40	1.90	 	 	 	 	 	 	 	 	 	 	 	 	 	 	 	 	 	 	1581530310	8.42	15.59
12/02/2020 17:58:31	120220	12022020	175831	91.89	12.418745	-56.800030	91.89	0.780	-0.610	1.520	91.82	-1.90	1.90	 	 	 	 	 	 	 	 	 	 	 	 	 	 	 	 	 	 	1581530311	8.46	15.67
12/02/2020 17:58:32	120220	12022020	175832	91.59	12.418747	-56.799992	91.61	0.460	0.180	1.440	91.56	-1.10	1.80	 	 	 	 	 	 	 	 	 	 	 	 	 	 	 	 	 	 	1581530312	7.92	14.67
12/02/2020 17:58:33	120220	12022020	175833	91.62	12.418748	-56.799957	91.71	-0.230	0.920	1.070	91.68	-0.40	1.50	 	 	 	 	 	 	 	 	 	 	 	 	 	 	 	 	 	 	1581530313	7.61	14.09
12/02/2020 17:58:34	120220	12022020	175834	92.01	12.418750	-56.799920	92.12	-0.870	1.180	0.900	92.09	-0.30	1.30	 	 	 	 	 	 	 	 	 	 	 	 	 	 	 	 	 	 	1581530314	7.58	14.04
12/02/2020 17:58:35	120220	12022020	175835	92.36	12.418747	-56.799882	92.44	-1.020	0.530	1.030	92.40	-1.00	1.50	 	 	 	 	 	 	 	 	 	 	 	 	 	 	 	 	 	 	1581530315	8.03	14.87
12/02/2020 17:58:36	120220	12022020	175836	92.35	12.418742	-56.799840	92.35	-0.410	-0.900	1.350	92.30	-2.50	1.80	 	 	 	 	 	 	 	 	 	 	 	 	 	 	 	 	 	 	1581530316	9.06	16.78
12/02/2020 17:58:37	120220	12022020	175837	91.95	12.418737	-56.799795	91.91	0.560	-1.910	1.690	91.85	-3.30	2.10	 	 	 	 	 	 	 	 	 	 	 	 	 	 	 	 	 	 	1581530317	9.63	17.83
12/02/2020 17:58:38	120220	12022020	175838	91.60	12.418737	-56.799753	91.63	0.980	-1.500	1.650	91.60	-3.10	2.10	 	 	 	 	 	 	 	 	 	 	 	 	 	 	 	 	 	 	1581530318	8.80	16.30
12/02/2020 17:58:39	120220	12022020	175839	91.61	12.418738	-56.799718	91.69	0.510	-0.190	1.360	91.64	-1.50	1.70	 	 	 	 	 	 	 	 	 	 	 	 	 	 	 	 	 	 	1581530319	7.39	13.69
12/02/2020 17:58:40	120220	12022020	175840	91.74	12.418742	-56.799685	91.80	-0.270	0.770	0.950	91.74	-0.80	1.50	 	 	 	 	 	 	 	 	 	 	 	 	 	 	 	 	 	 	1581530320	7.01	12.98
12/02/2020 17:58:41	120220	12022020	175841	91.76	12.418743	-56.799648	91.79	-0.480	0.560	0.520	91.76	-1.00	0.90	 	 	 	 	 	 	 	 	 	 	 	 	 	 	 	 	 	 	1581530321	7.88	14.59
12/02/2020 17:58:42	120220	12022020	175842	91.77	12.418745	-56.799603	91.79	-0.000	-0.440	0.330	91.77	-1.60	0.80	 	 	 	 	 	 	 	 	 	 	 	 	 	 	 	 	 	 	1581530322	9.23	17.09
12/02/2020 17:58:43	120220	12022020	175843	91.80	12.418743	-56.799558	91.85	0.300	-0.780	0.570	91.82	-2.10	1.00	 	 	 	 	 	 	 	 	 	 	 	 	 	 	 	 	 	 	1581530323	9.52	17.63
12/02/2020 17:58:44	120220	12022020	175844	91.91	12.418742	-56.799522	91.95	-0.150	0.120	0.590	91.92	-1.10	1.00	 	 	 	 	 	 	 	 	 	 	 	 	 	 	 	 	 	 	1581530324	7.94	14.70
12/02/2020 17:58:45	120220	12022020	175845	91.88	12.418740	-56.799490	91.87	-0.850	1.200	0.630	91.84	-0.20	1.10	 	 	 	 	 	 	 	 	 	 	 	 	 	 	 	 	 	 	1581530325	6.58	12.19
12/02/2020 17:58:46	120220	12022020	175846	91.60	12.418738	-56.799457	91.56	-0.700	0.480	0.850	91.53	-1.20	1.30	 	 	 	 	 	 	 	 	 	 	 	 	 	 	 	 	 	 	1581530326	7.25	13.43
12/02/2020 17:58:47	120220	12022020	175847	91.23	12.418737	-56.799410	91.20	0.450	-1.680	0.860	91.17	-3.30	1.30	 	 	 	 	 	 	 	 	 	 	 	 	 	 	 	 	 	 	1581530327	9.76	18.08
12/02/2020 17:58:48	120220	12022020	175848	91.02	12.418738	-56.799362	91.04	1.350	-2.540	0.680	91.02	-3.90	1.10	 	 	 	 	 	 	 	 	 	 	 	 	 	 	 	 	 	 	1581530328	10.38	19.22
12/02/2020 17:58:49	120220	12022020	175849	91.14	12.418740	-56.799323	91.21	0.990	-0.770	0.550	91.20	-1.90	1.00	 	 	 	 	 	 	 	 	 	 	 	 	 	 	 	 	 	 	1581530329	7.96	14.74
12/02/2020 17:58:50	120220	12022020	175850	91.46	12.418742	-56.799298	91.53	-0.360	1.860	0.480	91.52	0.60	0.90	 	 	 	 	 	 	 	 	 	 	 	 	 	 	 	 	 	 	1581530330	5.41	10.02
12/02/2020 17:58:51	120220	12022020	175851	91.57	12.418742	-56.799272	91.56	-1.530	2.620	0.730	91.55	1.10	1.20	 	 	 	 	 	 	 	 	 	 	 	 	 	 	 	 	 	 	1581530331	5.52	10.22
12/02/2020 17:58:52	120220	12022020	175852	91.37	12.418738	-56.799233	91.34	-1.430	0.510	1.250	91.32	-1.30	1.70	 	 	 	 	 	 	 	 	 	 	 	 	 	 	 	 	 	 	1581530332	8.18	15.15
12/02/2020 17:58:53	120220	12022020	175853	91.20	12.418733	-56.799183	91.19	-0.140	-2.480	1.550	91.17	-4.20	2.00	 	 	 	 	 	 	 	 	 	 	 	 	 	 	 	 	 	 	1581530333	10.77	19.95
12/02/2020 17:58:54	120220	12022020	175854	91.02	12.418730	-56.799133	90.97	1.050	-3.040	1.610	91.02	-4.60	2.00	 	 	 	 	 	 	 	 	 	 	 	 	 	 	 	 	 	 	1581530334	10.32	19.11
12/02/2020 17:58:55	120220	12022020	175855	90.63	12.418728	-56.799100	90.57	1.020	-0.770	1.520	90.54	-1.80	1.90	 	 	 	 	 	 	 	 	 	 	 	 	 	 	 	 	 	 	1581530335	7.01	12.98
12/02/2020 17:58:56	120220	12022020	175856	90.12	12.418730	-56.799077	90.05	-0.030	1.800	1.200	90.03	0.60	1.50	 	 	 	 	 	 	 	 	 	 	 	 	 	 	 	 	 	 	1581530336	4.96	9.19
12/02/2020 17:58:57	120220	12022020	175857	89.76	12.418737	-56.799050	89.75	-0.890	2.350	0.520	89.75	0.80	0.80	 	 	 	 	 	 	 	 	 	 	 	 	 	 	 	 	 	 	1581530337	5.79	10.72
12/02/2020 17:58:58	120220	12022020	175858	89.91	12.418743	-56.799012	89.97	-0.660	0.590	-0.270	90.00	-1.10	0.10	 	 	 	 	 	 	 	 	 	 	 	 	 	 	 	 	 	 	1581530338	8.25	15.28
12/02/2020 17:58:59	120220	12022020	175859	90.32	12.418748	-56.798965	90.34	0.300	-1.670	-0.550	90.37	-3.30	-0.10	 	 	 	 	 	 	 	 	 	 	 	 	 	 	 	 	 	 	1581530339	9.91	18.35
12/02/2020 17:59:00	120220	12022020	175900	90.29	12.418750	-56.798922	90.20	0.990	-2.420	-0.020	90.20	-3.80	0.50	 	 	 	 	 	 	 	 	 	 	 	 	 	 	 	 	 	 	1581530340	9.46	17.52
12/02/2020 17:59:01	120220	12022020	175901	89.77	12.418747	-56.798887	89.68	0.690	-1.110	1.120	89.65	-2.30	1.70	 	 	 	 	 	 	 	 	 	 	 	 	 	 	 	 	 	 	1581530341	7.44	13.78
12/02/2020 17:59:02	120220	12022020	175902	89.32	12.418742	-56.798858	89.31	-0.320	0.800	2.120	89.28	-0.50	2.60	1015.20	26.40	26.50	20.60	20.70	806.0	70.0	70.0	395.0	28.5	345.00	15.90	71.00	12.00	58407	8586.0	27.4	27.4	1581530342	5.86	10.85
12/02/2020 17:59:03	120220	12022020	175903	89.31	12.418738	-56.798830	89.38	-1.070	1.610	2.150	89.36	0.10	2.50	 	 	 	 	 	 	 	 	 	 	 	 	 	 	 	 	 	 	1581530343	5.96	11.04
12/02/2020 17:59:04	120220	12022020	175904	89.54	12.418742	-56.798795	89.59	-0.830	0.670	1.660	89.54	-0.40	2.20	 	 	 	 	 	 	 	 	 	 	 	 	 	 	 	 	 	 	1581530344	7.49	13.87
12/02/2020 17:59:05	120220	12022020	175905	89.59	12.418743	-56.798752	89.60	0.270	-1.210	1.520	89.59	-2.90	1.90	 	 	 	 	 	 	 	 	 	 	 	 	 	 	 	 	 	 	1581530345	9.21	17.06
12/02/2020 17:59:06	120220	12022020	175906	89.65	12.418747	-56.798707	89.69	1.100	-2.050	1.420	89.65	-3.50	1.90	 	 	 	 	 	 	 	 	 	 	 	 	 	 	 	 	 	 	1581530346	9.59	17.76
12/02/2020 17:59:07	120220	12022020	175907	89.86	12.418750	-56.798672	89.91	0.790	-0.700	1.410	89.91	-1.90	1.80	 	 	 	 	 	 	 	 	 	 	 	 	 	 	 	 	 	 	1581530347	7.53	13.95
12/02/2020 17:59:08	120220	12022020	175908	90.15	12.418750	-56.798645	90.24	-0.320	1.530	1.460	90.21	0.30	1.90	 	 	 	 	 	 	 	 	 	 	 	 	 	 	 	 	 	 	1581530348	5.32	9.85
12/02/2020 17:59:09	120220	12022020	175909	90.53	12.418752	-56.798620	90.60	-1.100	2.200	1.090	90.59	0.70	1.40	 	 	 	 	 	 	 	 	 	 	 	 	 	 	 	 	 	 	1581530349	5.28	9.78
12/02/2020 17:59:10	120220	12022020	175910	90.74	12.418755	-56.798585	90.73	-0.750	0.400	0.590	90.74	-1.40	1.00	 	 	 	 	 	 	 	 	 	 	 	 	 	 	 	 	 	 	1581530350	7.65	14.17
12/02/2020 17:59:11	120220	12022020	175911	90.63	12.418757	-56.798538	90.60	0.440	-2.260	0.490	90.59	-3.90	0.90	 	 	 	 	 	 	 	 	 	 	 	 	 	 	 	 	 	 	1581530351	9.88	18.30
12/02/2020 17:59:12	120220	12022020	175912	90.60	12.418760	-56.798492	90.63	1.410	-3.220	0.400	90.63	-4.50	0.80	 	 	 	 	 	 	 	 	 	 	 	 	 	 	 	 	 	 	1581530352	9.87	18.28
12/02/2020 17:59:13	120220	12022020	175913	90.82	12.418762	-56.798457	90.88	1.170	-1.340	0.400	90.88	-2.50	0.80	 	 	 	 	 	 	 	 	 	 	 	 	 	 	 	 	 	 	1581530353	7.39	13.69
12/02/2020 17:59:14	120220	12022020	175914	91.09	12.418763	-56.798433	91.13	-0.150	1.520	0.560	91.13	0.30	1.00	 	 	 	 	 	 	 	 	 	 	 	 	 	 	 	 	 	 	1581530354	4.94	9.15
12/02/2020 17:59:15	120220	12022020	175915	91.24	12.418762	-56.798410	91.25	-1.310	2.820	0.700	91.25	1.30	1.10	 	 	 	 	 	 	 	 	 	 	 	 	 	 	 	 	 	 	1581530355	4.92	9.11
12/02/2020 17:59:16	120220	12022020	175916	91.30	12.418760	-56.798377	91.30	-1.300	1.660	0.750	91.30	-0.10	1.20	 	 	 	 	 	 	 	 	 	 	 	 	 	 	 	 	 	 	1581530356	7.11	13.17
12/02/2020 17:59:17	120220	12022020	175917	91.29	12.418760	-56.798333	91.29	-0.330	-0.680	0.870	91.28	-2.40	1.30	 	 	 	 	 	 	 	 	 	 	 	 	 	 	 	 	 	 	1581530357	9.16	16.96
12/02/2020 17:59:18	120220	12022020	175918	91.23	12.418758	-56.798288	91.25	0.630	-2.320	0.870	91.23	-3.50	1.30	 	 	 	 	 	 	 	 	 	 	 	 	 	 	 	 	 	 	1581530358	9.49	17.58
12/02/2020 17:59:19	120220	12022020	175919	91.26	12.418760	-56.798248	91.30	0.860	-2.130	0.830	91.28	-3.40	1.30	 	 	 	 	 	 	 	 	 	 	 	 	 	 	 	 	 	 	1581530359	8.20	15.19
12/02/2020 17:59:20	120220	12022020	175920	91.35	12.418758	-56.798218	91.38	0.460	-0.590	0.870	91.35	-2.40	1.30	 	 	 	 	 	 	 	 	 	 	 	 	 	 	 	 	 	 	1581530360	6.38	11.82
12/02/2020 17:59:21	120220	12022020	175921	91.26	12.418760	-56.798192	91.24	0.050	0.780	0.850	91.21	-0.60	1.30	 	 	 	 	 	 	 	 	 	 	 	 	 	 	 	 	 	 	1581530361	5.76	10.67
12/02/2020 17:59:22	120220	12022020	175922	90.98	12.418762	-56.798160	90.95	0.010	1.070	0.690	90.94	-0.40	1.10	 	 	 	 	 	 	 	 	 	 	 	 	 	 	 	 	 	 	1581530362	6.65	12.32
12/02/2020 17:59:23	120220	12022020	175923	90.93	12.418765	-56.798123	90.95	0.110	0.420	0.400	90.96	-1.20	0.80	 	 	 	 	 	 	 	 	 	 	 	 	 	 	 	 	 	 	1581530363	7.83	14.50
12/02/2020 17:59:24	120220	12022020	175924	91.12	12.418767	-56.798083	91.16	0.040	-0.460	0.450	91.16	-2.00	0.90	 	 	 	 	 	 	 	 	 	 	 	 	 	 	 	 	 	 	1581530364	8.36	15.48
12/02/2020 17:59:25	120220	12022020	175925	91.22	12.418765	-56.798045	91.23	-0.200	-0.900	0.860	91.21	-2.40	1.30	 	 	 	 	 	 	 	 	 	 	 	 	 	 	 	 	 	 	1581530365	8.15	15.09
12/02/2020 17:59:26	120220	12022020	175926	91.12	12.418760	-56.798010	91.12	-0.250	-0.710	1.230	91.09	-2.10	1.70	 	 	 	 	 	 	 	 	 	 	 	 	 	 	 	 	 	 	1581530366	7.55	13.98
12/02/2020 17:59:27	120220	12022020	175927	90.99	12.418758	-56.797977	91.01	-0.010	-0.340	1.460	90.96	-1.80	1.90	 	 	 	 	 	 	 	 	 	 	 	 	 	 	 	 	 	 	1581530367	7.20	13.33
12/02/2020 17:59:28	120220	12022020	175928	90.88	12.418757	-56.797942	90.91	0.160	-0.030	1.570	90.86	-1.40	2.00	 	 	 	 	 	 	 	 	 	 	 	 	 	 	 	 	 	 	1581530368	7.24	13.41
12/02/2020 17:59:29	120220	12022020	175929	90.84	12.418758	-56.797907	90.88	0.090	0.160	1.310	90.85	-1.30	1.70	 	 	 	 	 	 	 	 	 	 	 	 	 	 	 	 	 	 	1581530369	7.28	13.48
12/02/2020 17:59:30	120220	12022020	175930	90.87	12.418762	-56.797873	90.90	-0.010	0.150	0.850	90.87	-1.30	1.40	 	 	 	 	 	 	 	 	 	 	 	 	 	 	 	 	 	 	1581530370	7.40	13.70
12/02/2020 17:59:31	120220	12022020	175931	90.94	12.418763	-56.797837	90.97	0.130	-0.340	0.670	90.96	-1.90	1.10	 	 	 	 	 	 	 	 	 	 	 	 	 	 	 	 	 	 	1581530371	7.76	14.37
12/02/2020 17:59:32	120220	12022020	175932	91.09	12.418765	-56.797797	91.14	0.460	-1.100	0.680	91.09	-2.40	1.10	 	 	 	 	 	 	 	 	 	 	 	 	 	 	 	 	 	 	1581530372	8.41	15.58
12/02/2020 17:59:33	120220	12022020	175933	91.26	12.418767	-56.797757	91.30	0.580	-1.100	0.800	91.28	-2.50	1.30	 	 	 	 	 	 	 	 	 	 	 	 	 	 	 	 	 	 	1581530373	8.45	15.65
12/02/2020 17:59:34	120220	12022020	175934	91.25	12.418765	-56.797722	91.26	0.190	0.010	1.230	91.23	-1.30	1.70	 	 	 	 	 	 	 	 	 	 	 	 	 	 	 	 	 	 	1581530374	7.24	13.41
12/02/2020 17:59:35	120220	12022020	175935	91.03	12.418762	-56.797692	91.02	-0.430	1.060	1.570	90.98	-0.30	2.00	 	 	 	 	 	 	 	 	 	 	 	 	 	 	 	 	 	 	1581530375	6.38	11.82
12/02/2020 17:59:36	120220	12022020	175936	90.90	12.418762	-56.797658	90.96	-0.750	0.930	1.370	90.93	-0.60	1.70	 	 	 	 	 	 	 	 	 	 	 	 	 	 	 	 	 	 	1581530376	7.04	13.04
12/02/2020 17:59:37	120220	12022020	175937	91.27	12.418763	-56.797620	91.40	-0.610	-0.040	0.790	91.39	-1.60	1.20	 	 	 	 	 	 	 	 	 	 	 	 	 	 	 	 	 	 	1581530377	8.22	15.22
12/02/2020 17:59:38	120220	12022020	175938	91.85	12.418767	-56.797580	91.92	-0.110	-1.080	0.370	91.92	-2.60	0.80	 	 	 	 	 	 	 	 	 	 	 	 	 	 	 	 	 	 	1581530378	8.61	15.95
12/02/2020 17:59:39	120220	12022020	175939	91.93	12.418767	-56.797538	91.89	0.560	-1.720	0.590	91.87	-3.10	1.10	 	 	 	 	 	 	 	 	 	 	 	 	 	 	 	 	 	 	1581530379	8.56	15.85
12/02/2020 17:59:40	120220	12022020	175940	91.52	12.418765	-56.797500	91.48	1.030	-1.600	1.060	91.45	-2.90	1.50	 	 	 	 	 	 	 	 	 	 	 	 	 	 	 	 	 	 	1581530380	8.38	15.52
12/02/2020 17:59:41	120220	12022020	175941	91.41	12.418763	-56.797463	91.50	0.890	-0.450	1.290	91.47	-1.70	1.70	 	 	 	 	 	 	 	 	 	 	 	 	 	 	 	 	 	 	1581530381	7.66	14.19
12/02/2020 17:59:42	120220	12022020	175942	91.84	12.418765	-56.797432	91.97	0.100	1.190	1.130	91.95	-0.00	1.50	 	 	 	 	 	 	 	 	 	 	 	 	 	 	 	 	 	 	1581530382	6.60	12.22
12/02/2020 17:59:43	120220	12022020	175943	92.31	12.418767	-56.797402	92.38	-0.920	2.070	0.680	92.36	0.60	1.10	 	 	 	 	 	 	 	 	 	 	 	 	 	 	 	 	 	 	1581530383	6.31	11.69
12/02/2020 17:59:44	120220	12022020	175944	92.46	12.418768	-56.797368	92.49	-1.390	1.380	0.510	92.46	-0.20	0.90	 	 	 	 	 	 	 	 	 	 	 	 	 	 	 	 	 	 	1581530384	7.21	13.35
12/02/2020 17:59:45	120220	12022020	175945	92.39	12.418767	-56.797327	92.41	-0.870	-0.600	0.720	92.37	-2.30	1.20	 	 	 	 	 	 	 	 	 	 	 	 	 	 	 	 	 	 	1581530385	8.74	16.19
12/02/2020 17:59:46	120220	12022020	175946	92.24	12.418763	-56.797282	92.25	0.270	-2.550	0.780	92.21	-4.10	1.20	 	 	 	 	 	 	 	 	 	 	 	 	 	 	 	 	 	 	1581530386	9.71	17.98
12/02/2020 17:59:47	120220	12022020	175947	92.13	12.418765	-56.797237	92.17	1.160	-3.000	0.550	92.13	-4.30	1.00	 	 	 	 	 	 	 	 	 	 	 	 	 	 	 	 	 	 	1581530387	9.35	17.32
12/02/2020 17:59:48	120220	12022020	175948	92.19	12.418765	-56.797200	92.24	1.090	-1.320	0.580	92.21	-2.40	1.00	 	 	 	 	 	 	 	 	 	 	 	 	 	 	 	 	 	 	1581530388	7.59	14.06
12/02/2020 17:59:49	120220	12022020	175949	92.34	12.418763	-56.797173	92.40	0.130	1.250	0.770	92.37	0.10	1.20	 	 	 	 	 	 	 	 	 	 	 	 	 	 	 	 	 	 	1581530389	5.74	10.63
12/02/2020 17:59:50	120220	12022020	175950	92.52	12.418762	-56.797148	92.56	-0.870	2.700	0.780	92.54	1.30	1.20	 	 	 	 	 	 	 	 	 	 	 	 	 	 	 	 	 	 	1581530390	5.54	10.26
12/02/2020 17:59:51	120220	12022020	175951	92.46	12.418760	-56.797113	92.44	-1.050	1.950	0.800	92.40	0.30	1.20	 	 	 	 	 	 	 	 	 	 	 	 	 	 	 	 	 	 	1581530391	7.18	13.30
12/02/2020 17:59:52	120220	12022020	175952	92.09	12.418760	-56.797070	92.07	-0.370	-0.200	0.870	92.03	-1.90	1.30	 	 	 	 	 	 	 	 	 	 	 	 	 	 	 	 	 	 	1581530392	9.12	16.89
12/02/2020 17:59:53	120220	12022020	175953	92.01	12.418763	-56.797023	92.07	0.500	-2.200	0.690	92.06	-3.80	1.10	 	 	 	 	 	 	 	 	 	 	 	 	 	 	 	 	 	 	1581530393	9.84	18.22
12/02/2020 17:59:54	120220	12022020	175954	92.34	12.418763	-56.796980	92.43	0.920	-2.750	0.720	92.40	-4.10	1.20	 	 	 	 	 	 	 	 	 	 	 	 	 	 	 	 	 	 	1581530394	9.22	17.08
12/02/2020 17:59:55	120220	12022020	175955	92.47	12.418762	-56.796945	92.50	0.640	-1.370	1.180	92.45	-2.50	1.70	 	 	 	 	 	 	 	 	 	 	 	 	 	 	 	 	 	 	1581530395	7.53	13.95
12/02/2020 17:59:56	120220	12022020	175956	92.21	12.418757	-56.796917	92.20	-0.040	0.680	1.590	92.21	-1.20	1.90	 	 	 	 	 	 	 	 	 	 	 	 	 	 	 	 	 	 	1581530396	6.13	11.35
12/02/2020 17:59:57	120220	12022020	175957	91.94	12.418755	-56.796887	91.97	-0.630	1.720	1.590	91.91	0.30	2.00	 	 	 	 	 	 	 	 	 	 	 	 	 	 	 	 	 	 	1581530397	6.22	11.52
12/02/2020 17:59:58	120220	12022020	175958	91.74	12.418753	-56.796850	91.74	-0.790	1.230	1.380	91.69	-0.30	1.80	 	 	 	 	 	 	 	 	 	 	 	 	 	 	 	 	 	 	1581530398	7.65	14.17
12/02/2020 17:59:59	120220	12022020	175959	91.50	12.418753	-56.796810	91.48	-0.630	0.170	1.000	91.46	-1.40	1.40	 	 	 	 	 	 	 	 	 	 	 	 	 	 	 	 	 	 	1581530399	8.64	16.00
12/02/2020 18:00:00	120220	12022020	180000	91.27	12.418755	-56.796768	91.25	-0.230	-0.900	0.600	91.23	-2.40	1.00	 	 	 	 	 	 	 	 	 	 	 	 	 	 	 	 	 	 	1581530400	8.67	16.06
12/02/2020 18:00:01	120220	12022020	180001	91.10	12.418758	-56.796727	91.12	0.390	-1.770	0.440	91.11	-3.20	0.90	 	 	 	 	 	 	 	 	 	 	 	 	 	 	 	 	 	 	1581530401	8.80	16.30
12/02/2020 18:00:02	120220	12022020	180002	91.27	12.418760	-56.796687	91.34	0.790	-1.690	0.560	91.34	-3.00	1.00	1015.00	26.50	26.60	19.90	19.90	821.0	67.0	66.0	394.0	28.5	344.00	15.70	70.00	12.00	58838	20000.0	27.4	27.4	1581530402	8.58	15.89
12/02/2020 18:00:03	120220	12022020	180003	91.60	12.418752	-56.796620	91.66	0.630	-0.540	0.980	91.65	-1.80	1.50	 	 	 	 	 	 	 	 	 	 	 	 	 	 	 	 	 	 	1581530403	7.48	13.85
12/02/2020 18:00:04	120220	12022020	180004	91.67	12.418752	-56.796620	91.66	0.160	0.710	1.580	91.63	-0.60	2.10	 	 	 	 	 	 	 	 	 	 	 	 	 	 	 	 	 	 	1581530404	6.76	12.52
12/02/2020 18:00:05	120220	12022020	180005	91.31	12.418748	-56.796587	91.26	-0.140	1.130	2.060	91.21	-0.30	2.50	 	 	 	 	 	 	 	 	 	 	 	 	 	 	 	 	 	 	1581530405	7.14	13.22
12/02/2020 18:00:06	120220	12022020	180006	90.96	12.418748	-56.796548	90.98	-0.190	0.700	2.020	90.93	-0.80	2.40	 	 	 	 	 	 	 	 	 	 	 	 	 	 	 	 	 	 	1581530406	8.05	14.91
12/02/2020 18:00:07	120220	12022020	180007	91.04	12.418752	-56.796508	91.13	-0.220	-0.130	1.650	91.10	-1.70	2.00	 	 	 	 	 	 	 	 	 	 	 	 	 	 	 	 	 	 	1581530407	8.54	15.82
12/02/2020 18:00:08	120220	12022020	180008	91.35	12.418755	-56.796467	91.41	-0.220	-1.040	1.290	91.35	-2.30	1.80	 	 	 	 	 	 	 	 	 	 	 	 	 	 	 	 	 	 	1581530408	8.71	16.13
12/02/2020 18:00:09	120220	12022020	180009	91.43	12.418755	-56.796425	91.44	-0.080	-1.450	1.220	91.41	-2.80	1.70	 	 	 	 	 	 	 	 	 	 	 	 	 	 	 	 	 	 	1581530409	8.68	16.08
12/02/2020 18:00:10	120220	12022020	180010	91.33	12.418753	-56.796388	91.35	0.090	-0.930	1.460	91.33	-2.50	1.80	 	 	 	 	 	 	 	 	 	 	 	 	 	 	 	 	 	 	1581530410	8.06	14.93
12/02/2020 18:00:11	120220	12022020	180011	91.35	12.418750	-56.796353	91.41	0.140	-0.070	1.610	91.37	-1.40	2.00	 	 	 	 	 	 	 	 	 	 	 	 	 	 	 	 	 	 	1581530411	7.38	13.67
12/02/2020 18:00:12	120220	12022020	180012	91.46	12.418750	-56.796318	91.50	0.020	0.500	1.410	91.47	-0.90	1.80	 	 	 	 	 	 	 	 	 	 	 	 	 	 	 	 	 	 	1581530412	7.43	13.76
12/02/2020 18:00:13	120220	12022020	180013	91.47	12.418752	-56.796282	91.47	-0.160	0.610	0.860	91.46	-0.80	1.20	 	 	 	 	 	 	 	 	 	 	 	 	 	 	 	 	 	 	1581530413	7.75	14.35
12/02/2020 18:00:14	120220	12022020	180014	91.43	12.418755	-56.796242	91.43	-0.130	0.110	0.400	91.43	-1.40	0.80	 	 	 	 	 	 	 	 	 	 	 	 	 	 	 	 	 	 	1581530414	8.21	15.20
12/02/2020 18:00:15	120220	12022020	180015	91.47	12.418757	-56.796200	91.48	0.150	-0.910	0.280	91.48	-2.40	0.70	 	 	 	 	 	 	 	 	 	 	 	 	 	 	 	 	 	 	1581530415	8.94	16.56
12/02/2020 18:00:16	120220	12022020	180016	91.44	12.418757	-56.796157	91.42	0.350	-1.540	0.520	91.41	-2.90	1.00	 	 	 	 	 	 	 	 	 	 	 	 	 	 	 	 	 	 	1581530416	9.26	17.15
12/02/2020 18:00:17	120220	12022020	180017	91.23	12.418755	-56.796117	91.20	0.170	-0.890	0.810	91.18	-2.10	1.30	 	 	 	 	 	 	 	 	 	 	 	 	 	 	 	 	 	 	1581530417	8.44	15.63
12/02/2020 18:00:18	120220	12022020	180018	91.04	12.418755	-56.796083	91.03	-0.310	0.730	0.930	91.02	-0.50	1.40	 	 	 	 	 	 	 	 	 	 	 	 	 	 	 	 	 	 	1581530418	6.99	12.95
12/02/2020 18:00:19	120220	12022020	180019	91.00	12.418753	-56.796053	91.03	-0.720	1.660	1.020	91.01	0.20	1.40	 	 	 	 	 	 	 	 	 	 	 	 	 	 	 	 	 	 	1581530419	6.44	11.93
12/02/2020 18:00:20	120220	12022020	180020	91.12	12.418753	-56.796017	91.18	-0.530	0.640	0.850	91.17	-1.00	1.20	 	 	 	 	 	 	 	 	 	 	 	 	 	 	 	 	 	 	1581530420	7.84	14.52
12/02/2020 18:00:21	120220	12022020	180021	91.36	12.418755	-56.795970	91.40	0.170	-1.370	0.490	91.38	-3.00	0.90	 	 	 	 	 	 	 	 	 	 	 	 	 	 	 	 	 	 	1581530421	9.83	18.21
12/02/2020 18:00:22	120220	12022020	180022	91.36	12.418757	-56.795923	91.34	0.730	-2.230	0.660	91.36	-3.60	1.00	 	 	 	 	 	 	 	 	 	 	 	 	 	 	 	 	 	 	1581530422	9.91	18.35
12/02/2020 18:00:23	120220	12022020	180023	91.13	12.418755	-56.795883	91.10	0.720	-1.240	0.920	91.08	-2.50	1.40	 	 	 	 	 	 	 	 	 	 	 	 	 	 	 	 	 	 	1581530423	8.16	15.11
12/02/2020 18:00:24	120220	12022020	180024	90.86	12.418755	-56.795852	90.84	0.260	0.380	1.040	90.80	-0.90	1.50	 	 	 	 	 	 	 	 	 	 	 	 	 	 	 	 	 	 	1581530424	6.73	12.46
12/02/2020 18:00:25	120220	12022020	180025	90.57	12.418757	-56.795820	90.57	-0.290	1.080	1.160	90.53	-0.40	1.60	 	 	 	 	 	 	 	 	 	 	 	 	 	 	 	 	 	 	1581530425	6.96	12.89
12/02/2020 18:00:26	120220	12022020	180026	90.46	12.418758	-56.795780	90.51	-0.640	0.500	1.060	90.47	-1.00	1.50	 	 	 	 	 	 	 	 	 	 	 	 	 	 	 	 	 	 	1581530426	8.30	15.37
12/02/2020 18:00:27	120220	12022020	180027	90.63	12.418758	-56.795737	90.69	-0.760	-0.210	0.810	90.68	-1.70	1.20	 	 	 	 	 	 	 	 	 	 	 	 	 	 	 	 	 	 	1581530427	9.12	16.89
12/02/2020 18:00:28	120220	12022020	180028	90.84	12.418757	-56.795697	90.88	-0.600	-0.250	0.640	90.86	-1.70	1.10	 	 	 	 	 	 	 	 	 	 	 	 	 	 	 	 	 	 	1581530428	8.43	15.61
12/02/2020 18:00:29	120220	12022020	180029	90.84	12.418757	-56.795660	90.85	-0.020	-0.500	0.830	90.82	-2.00	1.30	 	 	 	 	 	 	 	 	 	 	 	 	 	 	 	 	 	 	1581530429	7.94	14.70
12/02/2020 18:00:30	120220	12022020	180030	90.77	12.418757	-56.795618	90.79	0.700	-1.190	1.080	90.75	-2.70	1.50	 	 	 	 	 	 	 	 	 	 	 	 	 	 	 	 	 	 	1581530430	8.84	16.37
12/02/2020 18:00:31	120220	12022020	180031	90.71	12.418758	-56.795575	90.74	0.880	-1.090	1.200	90.70	-2.40	1.60	 	 	 	 	 	 	 	 	 	 	 	 	 	 	 	 	 	 	1581530431	8.96	16.59
12/02/2020 18:00:32	120220	12022020	180032	90.71	12.418758	-56.795538	90.76	0.370	0.110	1.240	90.73	-1.10	1.70	 	 	 	 	 	 	 	 	 	 	 	 	 	 	 	 	 	 	1581530432	7.71	14.28
12/02/2020 18:00:33	120220	12022020	180033	90.85	12.418758	-56.795507	90.89	-0.310	1.240	1.140	90.87	-0.10	1.50	 	 	 	 	 	 	 	 	 	 	 	 	 	 	 	 	 	 	1581530433	6.76	12.52
12/02/2020 18:00:34	120220	12022020	180034	90.90	12.418760	-56.795472	90.88	-0.580	0.990	0.970	90.90	-0.20	1.40	 	 	 	 	 	 	 	 	 	 	 	 	 	 	 	 	 	 	1581530434	7.47	13.83
12/02/2020 18:00:35	120220	12022020	180035	90.78	12.418763	-56.795428	90.78	-0.320	-0.500	0.910	90.78	-2.10	1.40	 	 	 	 	 	 	 	 	 	 	 	 	 	 	 	 	 	 	1581530435	9.10	16.85
12/02/2020 18:00:36	120220	12022020	180036	90.91	12.418763	-56.795382	90.97	0.040	-1.720	1.060	90.96	-3.20	1.50	 	 	 	 	 	 	 	 	 	 	 	 	 	 	 	 	 	 	1581530436	9.79	18.13
12/02/2020 18:00:37	120220	12022020	180037	91.17	12.418762	-56.795340	91.23	0.200	-1.750	1.230	91.20	-3.10	1.70	 	 	 	 	 	 	 	 	 	 	 	 	 	 	 	 	 	 	1581530437	9.03	16.72
12/02/2020 18:00:38	120220	12022020	180038	91.19	12.418758	-56.795302	91.20	0.230	-0.650	1.290	91.16	-1.90	1.70	 	 	 	 	 	 	 	 	 	 	 	 	 	 	 	 	 	 	1581530438	7.85	14.54
12/02/2020 18:00:39	120220	12022020	180039	91.01	12.418758	-56.795268	91.01	0.090	0.760	1.320	90.98	-0.50	1.70	 	 	 	 	 	 	 	 	 	 	 	 	 	 	 	 	 	 	1581530439	7.12	13.19
12/02/2020 18:00:40	120220	12022020	180040	91.02	12.418760	-56.795235	91.08	-0.260	1.380	1.200	91.07	-0.10	1.60	 	 	 	 	 	 	 	 	 	 	 	 	 	 	 	 	 	 	1581530440	7.21	13.35
12/02/2020 18:00:41	120220	12022020	180041	91.36	12.418763	-56.795195	91.43	-0.440	0.600	0.790	91.43	-1.00	1.20	 	 	 	 	 	 	 	 	 	 	 	 	 	 	 	 	 	 	1581530441	8.25	15.28
12/02/2020 18:00:42	120220	12022020	180042	91.55	12.418765	-56.795150	91.54	-0.160	-1.030	0.630	91.53	-2.60	1.10	 	 	 	 	 	 	 	 	 	 	 	 	 	 	 	 	 	 	1581530442	9.57	17.72
12/02/2020 18:00:43	120220	12022020	180043	91.23	12.418763	-56.795103	91.14	0.290	-1.970	0.940	91.12	-3.40	1.40	 	 	 	 	 	 	 	 	 	 	 	 	 	 	 	 	 	 	1581530443	9.98	18.48
12/02/2020 18:00:44	120220	12022020	180044	90.79	12.418762	-56.795063	90.77	0.400	-1.080	1.210	90.75	-2.30	1.60	 	 	 	 	 	 	 	 	 	 	 	 	 	 	 	 	 	 	1581530444	8.63	15.98
12/02/2020 18:00:45	120220	12022020	180045	90.85	12.418762	-56.795032	90.93	0.060	0.820	1.040	90.93	-0.40	1.40	 	 	 	 	 	 	 	 	 	 	 	 	 	 	 	 	 	 	1581530445	6.66	12.33
12/02/2020 18:00:46	120220	12022020	180046	91.29	12.418765	-56.795000	91.33	-0.320	1.520	0.580	91.29	0.10	1.10	 	 	 	 	 	 	 	 	 	 	 	 	 	 	 	 	 	 	1581530446	6.52	12.08
12/02/2020 18:00:47	120220	12022020	180047	91.38	12.418767	-56.794960	91.32	-0.280	0.240	0.440	91.35	-1.40	0.90	 	 	 	 	 	 	 	 	 	 	 	 	 	 	 	 	 	 	1581530447	8.46	15.67
12/02/2020 18:00:48	120220	12022020	180048	91.19	12.418767	-56.794913	91.14	0.100	-1.480	0.680	91.15	-3.00	1.20	 	 	 	 	 	 	 	 	 	 	 	 	 	 	 	 	 	 	1581530448	10.06	18.63
12/02/2020 18:00:49	120220	12022020	180049	91.06	12.418765	-56.794867	91.05	0.470	-1.940	1.170	91.04	-3.30	1.70	 	 	 	 	 	 	 	 	 	 	 	 	 	 	 	 	 	 	1581530449	9.68	17.93
12/02/2020 18:00:50	120220	12022020	180050	91.02	12.418763	-56.794828	91.03	0.450	-1.140	1.490	91.01	-2.40	1.90	 	 	 	 	 	 	 	 	 	 	 	 	 	 	 	 	 	 	1581530450	8.31	15.39
12/02/2020 18:00:51	120220	12022020	180051	90.93	12.418762	-56.794792	90.92	0.040	0.130	1.480	90.90	-1.20	1.90	 	 	 	 	 	 	 	 	 	 	 	 	 	 	 	 	 	 	1581530451	7.48	13.85
12/02/2020 18:00:52	120220	12022020	180052	90.78	12.418762	-56.794758	90.77	-0.540	1.210	1.350	90.76	-0.10	1.80	 	 	 	 	 	 	 	 	 	 	 	 	 	 	 	 	 	 	1581530452	7.33	13.58
12/02/2020 18:00:53	120220	12022020	180053	90.78	12.418763	-56.794723	90.82	-0.960	1.660	1.090	90.81	0.20	1.50	 	 	 	 	 	 	 	 	 	 	 	 	 	 	 	 	 	 	1581530453	7.41	13.72
12/02/2020 18:00:54	120220	12022020	180054	91.09	12.418765	-56.794685	91.17	-0.790	0.700	0.620	91.18	-1.00	1.00	 	 	 	 	 	 	 	 	 	 	 	 	 	 	 	 	 	 	1581530454	8.08	14.96
12/02/2020 18:00:55	120220	12022020	180055	91.49	12.418767	-56.794638	91.53	0.200	-1.570	0.240	91.54	-3.20	0.70	 	 	 	 	 	 	 	 	 	 	 	 	 	 	 	 	 	 	1581530455	9.84	18.22
12/02/2020 18:00:56	120220	12022020	180056	91.56	12.418768	-56.794588	91.55	1.170	-2.720	0.450	91.55	-4.10	0.90	 	 	 	 	 	 	 	 	 	 	 	 	 	 	 	 	 	 	1581530456	10.59	19.61
12/02/2020 18:00:57	120220	12022020	180057	91.47	12.418768	-56.794548	91.47	1.170	-1.350	1.020	91.44	-2.50	1.50	 	 	 	 	 	 	 	 	 	 	 	 	 	 	 	 	 	 	1581530457	8.39	15.54
12/02/2020 18:00:58	120220	12022020	180058	91.41	12.418767	-56.794520	91.45	0.250	0.910	1.510	91.41	-1.00	1.90	 	 	 	 	 	 	 	 	 	 	 	 	 	 	 	 	 	 	1581530458	6.16	11.41
12/02/2020 18:00:59	120220	12022020	180059	91.43	12.418765	-56.794488	91.47	-0.610	1.630	1.640	91.43	0.10	2.10	 	 	 	 	 	 	 	 	 	 	 	 	 	 	 	 	 	 	1581530459	6.36	11.78
12/02/2020 18:01:00	120220	12022020	180100	91.42	12.418765	-56.794448	91.44	-0.680	0.330	1.490	91.42	-0.70	1.90	 	 	 	 	 	 	 	 	 	 	 	 	 	 	 	 	 	 	1581530460	8.63	15.98
12/02/2020 18:01:01	120220	12022020	180101	91.32	12.418765	-56.794400	91.35	-0.290	-1.100	1.480	91.31	-2.60	1.90	 	 	 	 	 	 	 	 	 	 	 	 	 	 	 	 	 	 	1581530461	10.13	18.76
12/02/2020 18:01:02	120220	12022020	180102	91.35	12.418765	-56.794357	91.43	-0.170	-0.950	1.550	91.35	-2.60	2.00	1015.00	26.60	26.60	20.00	20.00	818.0	67.0	67.0	394.0	28.5	346.00	16.20	72.00	12.10	58744	13996.0	27.4	27.4	1581530462	9.10	16.85
12/02/2020 18:01:03	120220	12022020	180103	91.62	12.418762	-56.794323	91.74	-0.410	0.130	1.580	91.69	-1.20	2.00	 	 	 	 	 	 	 	 	 	 	 	 	 	 	 	 	 	 	1581530463	7.24	13.41
12/02/2020 18:01:04	120220	12022020	180104	91.94	12.418760	-56.794290	92.02	-0.420	0.430	1.420	91.98	-1.10	1.80	 	 	 	 	 	 	 	 	 	 	 	 	 	 	 	 	 	 	1581530464	7.05	13.06
12/02/2020 18:01:05	120220	12022020	180105	92.10	12.418762	-56.794250	92.14	0.130	-0.360	0.940	92.11	-1.90	1.30	 	 	 	 	 	 	 	 	 	 	 	 	 	 	 	 	 	 	1581530465	8.54	15.82
12/02/2020 18:01:06	120220	12022020	180106	92.05	12.418763	-56.794205	92.04	0.710	-0.880	0.730	92.02	-2.30	1.20	 	 	 	 	 	 	 	 	 	 	 	 	 	 	 	 	 	 	1581530466	9.25	17.13
12/02/2020 18:01:07	120220	12022020	180107	91.95	12.418765	-56.794165	91.95	0.780	-0.620	0.800	91.94	-2.00	1.20	 	 	 	 	 	 	 	 	 	 	 	 	 	 	 	 	 	 	1581530467	8.48	15.70
12/02/2020 18:01:08	120220	12022020	180108	92.02	12.418768	-56.794128	92.06	0.430	-0.270	0.620	92.05	-1.70	1.00	 	 	 	 	 	 	 	 	 	 	 	 	 	 	 	 	 	 	1581530468	7.93	14.69
12/02/2020 18:01:09	120220	12022020	180109	92.18	12.418768	-56.794090	92.20	0.030	-0.220	0.560	92.19	-1.70	1.00	 	 	 	 	 	 	 	 	 	 	 	 	 	 	 	 	 	 	1581530469	8.22	15.22
12/02/2020 18:01:10	120220	12022020	180110	92.16	12.418767	-56.794050	92.15	-0.250	-0.040	0.810	92.16	-1.60	1.20	 	 	 	 	 	 	 	 	 	 	 	 	 	 	 	 	 	 	1581530470	8.43	15.61
12/02/2020 18:01:11	120220	12022020	180111	91.93	12.418763	-56.794012	91.89	-0.430	0.410	1.110	91.86	-1.00	1.60	 	 	 	 	 	 	 	 	 	 	 	 	 	 	 	 	 	 	1581530471	8.05	14.91
12/02/2020 18:01:12	120220	12022020	180112	91.65	12.418762	-56.793975	91.65	-0.570	0.600	1.210	91.65	-0.80	1.70	 	 	 	 	 	 	 	 	 	 	 	 	 	 	 	 	 	 	1581530472	7.76	14.37
12/02/2020 18:01:13	120220	12022020	180113	91.65	12.418762	-56.793937	91.66	-0.570	0.050	0.930	91.67	-1.50	1.30	 	 	 	 	 	 	 	 	 	 	 	 	 	 	 	 	 	 	1581530473	8.19	15.17
12/02/2020 18:01:14	120220	12022020	180114	91.74	12.418763	-56.793893	91.72	-0.170	-1.180	0.590	91.73	-2.80	1.00	 	 	 	 	 	 	 	 	 	 	 	 	 	 	 	 	 	 	1581530474	9.09	16.83
12/02/2020 18:01:15	120220	12022020	180115	91.55	12.418762	-56.793847	91.48	0.540	-2.090	0.730	91.47	-3.50	1.20	 	 	 	 	 	 	 	 	 	 	 	 	 	 	 	 	 	 	1581530475	9.74	18.04
12/02/2020 18:01:16	120220	12022020	180116	91.17	12.418758	-56.793803	91.13	1.020	-1.620	1.140	91.10	-2.90	1.60	 	 	 	 	 	 	 	 	 	 	 	 	 	 	 	 	 	 	1581530476	9.15	16.95
12/02/2020 18:01:17	120220	12022020	180117	90.99	12.418757	-56.793768	91.03	0.780	0.050	1.220	91.01	-1.20	1.60	 	 	 	 	 	 	 	 	 	 	 	 	 	 	 	 	 	 	1581530477	7.74	14.33
12/02/2020 18:01:18	120220	12022020	180118	91.15	12.418758	-56.793737	91.21	-0.090	1.810	0.870	91.20	0.50	1.20	 	 	 	 	 	 	 	 	 	 	 	 	 	 	 	 	 	 	1581530478	6.70	12.41
12/02/2020 18:01:19	120220	12022020	180119	91.36	12.418762	-56.793703	91.40	-0.930	2.220	0.500	91.38	0.70	0.90	 	 	 	 	 	 	 	 	 	 	 	 	 	 	 	 	 	 	1581530479	6.96	12.89
12/02/2020 18:01:20	120220	12022020	180120	91.40	12.418763	-56.793663	91.41	-1.050	0.690	0.580	91.38	-1.00	1.10	 	 	 	 	 	 	 	 	 	 	 	 	 	 	 	 	 	 	1581530480	8.50	15.74
12/02/2020 18:01:21	120220	12022020	180121	91.26	12.418762	-56.793615	91.27	-0.400	-1.610	1.060	91.23	-3.20	1.60	 	 	 	 	 	 	 	 	 	 	 	 	 	 	 	 	 	 	1581530481	10.15	18.80
12/02/2020 18:01:22	120220	12022020	180122	91.10	12.418758	-56.793567	91.13	0.500	-2.710	1.540	91.08	-4.10	2.00	 	 	 	 	 	 	 	 	 	 	 	 	 	 	 	 	 	 	1581530482	10.16	18.82
12/02/2020 18:01:23	120220	12022020	180123	91.06	12.418755	-56.793527	91.11	0.980	-1.950	1.700	91.06	-3.20	2.10	 	 	 	 	 	 	 	 	 	 	 	 	 	 	 	 	 	 	1581530483	8.66	16.04
12/02/2020 18:01:24	120220	12022020	180124	91.01	12.418753	-56.793492	91.05	0.790	-0.240	1.690	90.99	-1.50	2.10	 	 	 	 	 	 	 	 	 	 	 	 	 	 	 	 	 	 	1581530484	7.20	13.33
12/02/2020 18:01:25	120220	12022020	180125	90.95	12.418755	-56.793460	91.00	0.170	1.040	1.540	90.95	-0.30	1.90	 	 	 	 	 	 	 	 	 	 	 	 	 	 	 	 	 	 	1581530485	6.98	12.93
12/02/2020 18:01:26	120220	12022020	180126	91.04	12.418758	-56.793422	91.12	-0.390	1.200	1.120	91.08	-0.30	1.50	 	 	 	 	 	 	 	 	 	 	 	 	 	 	 	 	 	 	1581530486	7.82	14.48
12/02/2020 18:01:27	120220	12022020	180127	91.28	12.418762	-56.793382	91.33	-0.490	0.450	0.680	91.31	-1.10	1.10	 	 	 	 	 	 	 	 	 	 	 	 	 	 	 	 	 	 	1581530487	8.80	16.30
12/02/2020 18:01:28	120220	12022020	180128	91.35	12.418763	-56.793337	91.36	-0.100	-0.650	0.700	91.35	-2.20	1.20	 	 	 	 	 	 	 	 	 	 	 	 	 	 	 	 	 	 	1581530488	9.38	17.37
12/02/2020 18:01:29	120220	12022020	180129	91.36	12.418763	-56.793292	91.39	0.310	-1.270	0.930	91.37	-2.70	1.40	 	 	 	 	 	 	 	 	 	 	 	 	 	 	 	 	 	 	1581530489	9.49	17.58
12/02/2020 18:01:30	120220	12022020	180130	91.46	12.418762	-56.793252	91.53	0.160	-0.740	1.330	91.48	-2.10	1.80	 	 	 	 	 	 	 	 	 	 	 	 	 	 	 	 	 	 	1581530490	8.58	15.89
12/02/2020 18:01:31	120220	12022020	180131	91.51	12.418758	-56.793217	91.56	-0.440	0.240	1.700	91.50	-1.10	2.10	 	 	 	 	 	 	 	 	 	 	 	 	 	 	 	 	 	 	1581530491	7.45	13.80
12/02/2020 18:01:32	120220	12022020	180132	91.43	12.418755	-56.793180	91.47	-0.760	0.400	1.620	91.42	-1.10	2.00	 	 	 	 	 	 	 	 	 	 	 	 	 	 	 	 	 	 	1581530492	7.60	14.08
12/02/2020 18:01:33	120220	12022020	180133	91.45	12.418753	-56.793138	91.50	-0.280	-0.390	1.190	91.47	-1.90	1.60	 	 	 	 	 	 	 	 	 	 	 	 	 	 	 	 	 	 	1581530493	8.89	16.46
12/02/2020 18:01:34	120220	12022020	180134	91.59	12.418755	-56.793093	91.64	0.440	-0.880	0.770	91.59	-2.30	1.30	 	 	 	 	 	 	 	 	 	 	 	 	 	 	 	 	 	 	1581530494	9.50	17.59
12/02/2020 18:01:35	120220	12022020	180135	91.65	12.418758	-56.793052	91.64	0.650	-0.490	0.360	91.64	-1.80	0.80	 	 	 	 	 	 	 	 	 	 	 	 	 	 	 	 	 	 	1581530495	8.70	16.11
12/02/2020 18:01:36	120220	12022020	180136	91.51	12.418762	-56.793015	91.46	0.300	0.080	0.280	91.51	-1.50	0.70	 	 	 	 	 	 	 	 	 	 	 	 	 	 	 	 	 	 	1581530496	7.92	14.67
12/02/2020 18:01:37	120220	12022020	180137	91.36	12.418762	-56.792977	91.36	-0.020	0.060	0.540	91.36	-1.40	1.00	 	 	 	 	 	 	 	 	 	 	 	 	 	 	 	 	 	 	1581530497	8.18	15.15
12/02/2020 18:01:38	120220	12022020	180138	91.40	12.418760	-56.792933	91.41	0.020	-0.330	0.670	91.41	-1.80	1.10	 	 	 	 	 	 	 	 	 	 	 	 	 	 	 	 	 	 	1581530498	8.91	16.50
12/02/2020 18:01:39	120220	12022020	180139	91.42	12.418760	-56.792892	91.41	0.130	-0.350	0.700	91.41	-1.70	1.10	 	 	 	 	 	 	 	 	 	 	 	 	 	 	 	 	 	 	1581530499	8.94	16.56
12/02/2020 18:01:40	120220	12022020	180140	91.32	12.418762	-56.792853	91.31	-0.060	0.060	0.880	91.29	-1.30	1.30	 	 	 	 	 	 	 	 	 	 	 	 	 	 	 	 	 	 	1581530500	8.24	15.26
12/02/2020 18:01:41	120220	12022020	180141	91.18	12.418760	-56.792815	91.17	-0.320	0.060	1.220	91.15	-1.40	1.70	 	 	 	 	 	 	 	 	 	 	 	 	 	 	 	 	 	 	1581530501	8.01	14.83
12/02/2020 18:01:42	120220	12022020	180142	90.98	12.418757	-56.792773	90.96	-0.200	-0.760	1.400	90.93	-2.30	1.80	 	 	 	 	 	 	 	 	 	 	 	 	 	 	 	 	 	 	1581530502	8.93	16.54
12/02/2020 18:01:43	120220	12022020	180143	90.71	12.418755	-56.792727	90.67	0.310	-1.530	1.450	90.64	-3.00	1.90	 	 	 	 	 	 	 	 	 	 	 	 	 	 	 	 	 	 	1581530503	9.82	18.19
12/02/2020 18:01:44	120220	12022020	180144	90.42	12.418757	-56.792682	90.40	0.600	-1.060	1.590	90.38	-2.30	2.00	 	 	 	 	 	 	 	 	 	 	 	 	 	 	 	 	 	 	1581530504	9.30	17.22
12/02/2020 18:01:45	120220	12022020	180145	90.39	12.418757	-56.792645	90.45	0.160	0.460	1.480	90.43	-0.80	1.90	 	 	 	 	 	 	 	 	 	 	 	 	 	 	 	 	 	 	1581530505	7.82	14.48
12/02/2020 18:01:46	120220	12022020	180146	90.75	12.418758	-56.792612	90.84	-0.750	1.750	1.270	90.85	0.40	1.70	 	 	 	 	 	 	 	 	 	 	 	 	 	 	 	 	 	 	1581530506	6.95	12.87
12/02/2020 18:01:47	120220	12022020	180147	91.25	12.418757	-56.792577	91.33	-1.300	1.530	1.230	91.34	-0.00	1.70	 	 	 	 	 	 	 	 	 	 	 	 	 	 	 	 	 	 	1581530507	7.47	13.83
12/02/2020 18:01:48	120220	12022020	180148	91.53	12.418753	-56.792533	91.54	-0.670	-0.490	1.210	91.53	-1.30	1.60	 	 	 	 	 	 	 	 	 	 	 	 	 	 	 	 	 	 	1581530508	9.28	17.19
12/02/2020 18:01:49	120220	12022020	180149	91.45	12.418752	-56.792482	91.44	0.850	-2.710	1.150	91.41	-4.20	1.60	 	 	 	 	 	 	 	 	 	 	 	 	 	 	 	 	 	 	1581530509	10.90	20.19
12/02/2020 18:01:50	120220	12022020	180150	91.30	12.418753	-56.792433	91.32	1.800	-2.750	1.240	91.30	-4.40	1.60	 	 	 	 	 	 	 	 	 	 	 	 	 	 	 	 	 	 	1581530510	10.33	19.13
12/02/2020 18:01:51	120220	12022020	180151	91.41	12.418755	-56.792397	91.47	1.200	-0.350	1.290	91.45	-1.40	1.70	 	 	 	 	 	 	 	 	 	 	 	 	 	 	 	 	 	 	1581530511	7.58	14.04
12/02/2020 18:01:52	120220	12022020	180152	91.72	12.418758	-56.792372	91.79	-0.450	2.320	1.080	91.79	1.10	1.50	 	 	 	 	 	 	 	 	 	 	 	 	 	 	 	 	 	 	1581530512	5.56	10.30
12/02/2020 18:01:53	120220	12022020	180153	92.02	12.418758	-56.792342	92.07	-1.710	2.870	0.810	92.07	1.30	1.20	 	 	 	 	 	 	 	 	 	 	 	 	 	 	 	 	 	 	1581530513	6.17	11.43
12/02/2020 18:01:54	120220	12022020	180154	92.17	12.418758	-56.792300	92.18	-1.470	0.810	0.610	92.18	-0.90	1.00	 	 	 	 	 	 	 	 	 	 	 	 	 	 	 	 	 	 	1581530514	8.70	16.11
12/02/2020 18:01:55	120220	12022020	180155	92.19	12.418757	-56.792250	92.20	-0.040	-2.110	0.540	92.19	-3.80	1.00	 	 	 	 	 	 	 	 	 	 	 	 	 	 	 	 	 	 	1581530515	10.86	20.11
12/02/2020 18:01:56	120220	12022020	180156	92.22	12.418757	-56.792198	92.24	1.120	-3.300	0.760	92.23	-4.60	1.20	 	 	 	 	 	 	 	 	 	 	 	 	 	 	 	 	 	 	1581530516	10.74	19.89
12/02/2020 18:01:57	120220	12022020	180157	92.19	12.418753	-56.792158	92.17	0.980	-1.980	1.060	92.15	-3.10	1.50	 	 	 	 	 	 	 	 	 	 	 	 	 	 	 	 	 	 	1581530517	8.39	15.54
12/02/2020 18:01:58	120220	12022020	180158	91.83	12.418748	-56.792128	91.76	-0.060	0.390	1.360	91.71	-0.80	1.80	 	 	 	 	 	 	 	 	 	 	 	 	 	 	 	 	 	 	1581530518	6.42	11.89
12/02/2020 18:01:59	120220	12022020	180159	91.27	12.418745	-56.792098	91.23	-0.770	1.800	1.410	91.19	0.50	1.80	 	 	 	 	 	 	 	 	 	 	 	 	 	 	 	 	 	 	1581530519	6.42	11.89
12/02/2020 18:02:00	120220	12022020	180200	91.11	12.418747	-56.792062	91.17	-0.640	1.710	0.770	91.11	0.40	1.40	 	 	 	 	 	 	 	 	 	 	 	 	 	 	 	 	 	 	1581530520	7.83	14.50
12/02/2020 18:02:01	120220	12022020	180201	91.40	12.418750	-56.792020	91.44	-0.010	0.580	-0.100	91.45	-1.00	0.20	 	 	 	 	 	 	 	 	 	 	 	 	 	 	 	 	 	 	1581530521	9.01	16.69
12/02/2020 18:02:02	120220	12022020	180202	91.49	12.418755	-56.791973	91.44	0.630	-0.880	-0.390	91.49	-2.00	0.00	1015.00	26.50	26.60	19.80	19.90	815.0	66.0	66.0	394.0	28.4	345.00	16.90	72.00	12.70	58558	15373.0	27.4	27.4	1581530522	9.63	17.83
12/02/2020 18:02:03	120220	12022020	180203	91.19	12.418755	-56.791930	91.11	0.800	-1.540	0.160	91.12	-2.90	0.70	 	 	 	 	 	 	 	 	 	 	 	 	 	 	 	 	 	 	1581530523	9.39	17.39
12/02/2020 18:02:04	120220	12022020	180204	90.84	12.418753	-56.791890	90.80	0.400	-0.870	1.060	90.78	-2.10	1.60	 	 	 	 	 	 	 	 	 	 	 	 	 	 	 	 	 	 	1581530524	8.18	15.15
12/02/2020 18:02:05	120220	12022020	180205	90.59	12.418750	-56.791858	90.59	-0.270	0.200	1.680	90.56	-1.10	2.10	 	 	 	 	 	 	 	 	 	 	 	 	 	 	 	 	 	 	1581530525	7.04	13.04
12/02/2020 18:02:06	120220	12022020	180206	90.48	12.418748	-56.791823	90.50	-0.610	0.320	1.830	90.46	-1.10	2.20	 	 	 	 	 	 	 	 	 	 	 	 	 	 	 	 	 	 	1581530526	7.38	13.67
12/02/2020 18:02:07	120220	12022020	180207	90.40	12.418748	-56.791782	90.40	-0.360	-0.530	1.790	90.37	-2.00	2.20	 	 	 	 	 	 	 	 	 	 	 	 	 	 	 	 	 	 	1581530527	8.75	16.21
12/02/2020 18:02:08	120220	12022020	180208	90.23	12.418747	-56.791737	90.21	0.140	-1.210	1.960	90.18	-2.60	2.40	 	 	 	 	 	 	 	 	 	 	 	 	 	 	 	 	 	 	1581530528	9.48	17.56
12/02/2020 18:02:09	120220	12022020	180209	89.96	12.418743	-56.791695	89.95	0.390	-1.000	2.180	89.91	-2.30	2.60	 	 	 	 	 	 	 	 	 	 	 	 	 	 	 	 	 	 	1581530529	8.91	16.50
12/02/2020 18:02:10	120220	12022020	180210	89.76	12.418742	-56.791657	89.79	0.270	-0.250	2.040	89.75	-1.50	2.40	 	 	 	 	 	 	 	 	 	 	 	 	 	 	 	 	 	 	1581530530	8.12	15.04
12/02/2020 18:02:11	120220	12022020	180211	89.78	12.418743	-56.791618	89.83	-0.050	0.550	1.630	89.80	-0.80	2.00	 	 	 	 	 	 	 	 	 	 	 	 	 	 	 	 	 	 	1581530531	7.83	14.50
12/02/2020 18:02:12	120220	12022020	180212	90.01	12.418747	-56.791583	90.08	-0.370	1.120	1.040	90.08	-0.20	1.40	 	 	 	 	 	 	 	 	 	 	 	 	 	 	 	 	 	 	1581530532	7.73	14.32
12/02/2020 18:02:13	120220	12022020	180213	90.35	12.418752	-56.791545	90.40	-0.440	0.950	0.390	90.41	-0.60	0.80	 	 	 	 	 	 	 	 	 	 	 	 	 	 	 	 	 	 	1581530533	7.93	14.69
12/02/2020 18:02:14	120220	12022020	180214	90.52	12.418757	-56.791503	90.50	0.030	-0.410	0.110	90.52	-2.00	0.60	 	 	 	 	 	 	 	 	 	 	 	 	 	 	 	 	 	 	1581530534	8.86	16.41
12/02/2020 18:02:15	120220	12022020	180215	90.45	12.418762	-56.791457	90.43	0.800	-2.050	0.400	90.45	-3.50	0.90	 	 	 	 	 	 	 	 	 	 	 	 	 	 	 	 	 	 	1581530535	10.12	18.74
12/02/2020 18:02:16	120220	12022020	180216	90.53	12.418762	-56.791410	90.59	1.010	-2.120	1.050	90.53	-3.70	1.30	 	 	 	 	 	 	 	 	 	 	 	 	 	 	 	 	 	 	1581530536	9.64	17.85
12/02/2020 18:02:17	120220	12022020	180217	90.85	12.418758	-56.791375	90.96	0.390	-0.370	1.600	90.93	-1.50	2.10	 	 	 	 	 	 	 	 	 	 	 	 	 	 	 	 	 	 	1581530537	7.59	14.06
12/02/2020 18:02:18	120220	12022020	180218	91.24	12.418755	-56.791345	91.33	-0.540	1.470	1.740	91.30	0.20	2.10	 	 	 	 	 	 	 	 	 	 	 	 	 	 	 	 	 	 	1581530538	6.21	11.50
12/02/2020 18:02:19	120220	12022020	180219	91.46	12.418753	-56.791313	91.51	-0.980	1.570	1.490	91.47	0.00	1.90	 	 	 	 	 	 	 	 	 	 	 	 	 	 	 	 	 	 	1581530539	7.01	12.98
12/02/2020 18:02:20	120220	12022020	180220	91.43	12.418753	-56.791268	91.45	-0.610	-0.090	1.270	91.42	-1.70	1.70	 	 	 	 	 	 	 	 	 	 	 	 	 	 	 	 	 	 	1581530540	9.19	17.02
12/02/2020 18:02:21	120220	12022020	180221	91.47	12.418753	-56.791220	91.53	-0.020	-1.420	1.010	91.51	-2.80	1.40	 	 	 	 	 	 	 	 	 	 	 	 	 	 	 	 	 	 	1581530541	10.22	18.93
12/02/2020 18:02:22	120220	12022020	180222	91.70	12.418755	-56.791178	91.77	0.230	-1.210	0.670	91.75	-2.50	1.10	 	 	 	 	 	 	 	 	 	 	 	 	 	 	 	 	 	 	1581530542	8.90	16.48
12/02/2020 18:02:23	120220	12022020	180223	91.92	12.418757	-56.791143	91.96	0.190	-0.360	0.450	91.95	-1.70	0.90	 	 	 	 	 	 	 	 	 	 	 	 	 	 	 	 	 	 	1581530543	7.44	13.78
12/02/2020 18:02:24	120220	12022020	180224	91.99	12.418757	-56.791107	91.99	0.290	-0.220	0.360	91.99	-1.60	0.80	 	 	 	 	 	 	 	 	 	 	 	 	 	 	 	 	 	 	1581530544	7.80	14.45
12/02/2020 18:02:25	120220	12022020	180225	91.91	12.418757	-56.791065	91.90	0.350	-0.220	0.570	91.88	-1.60	1.00	 	 	 	 	 	 	 	 	 	 	 	 	 	 	 	 	 	 	1581530545	8.69	16.09
12/02/2020 18:02:26	120220	12022020	180226	91.79	12.418753	-56.791027	91.79	0.050	0.370	0.830	91.79	-1.20	1.20	 	 	 	 	 	 	 	 	 	 	 	 	 	 	 	 	 	 	1581530546	8.18	15.15
12/02/2020 18:02:27	120220	12022020	180227	91.68	12.418753	-56.790992	91.66	-0.420	0.880	0.810	91.64	-0.50	1.20	 	 	 	 	 	 	 	 	 	 	 	 	 	 	 	 	 	 	1581530547	7.41	13.72
12/02/2020 18:02:28	120220	12022020	180228	91.36	12.418753	-56.790953	91.29	-0.490	0.170	0.680	91.28	-1.40	1.10	 	 	 	 	 	 	 	 	 	 	 	 	 	 	 	 	 	 	1581530548	8.00	14.82
12/02/2020 18:02:29	120220	12022020	180229	90.80	12.418755	-56.790908	90.73	0.140	-1.500	0.870	90.70	-3.00	1.30	 	 	 	 	 	 	 	 	 	 	 	 	 	 	 	 	 	 	1581530549	9.62	17.82
12/02/2020 18:02:30	120220	12022020	180230	90.45	12.418755	-56.790860	90.46	0.870	-2.110	1.160	90.45	-3.40	1.60	 	 	 	 	 	 	 	 	 	 	 	 	 	 	 	 	 	 	1581530550	10.08	18.67
12/02/2020 18:02:31	120220	12022020	180231	90.63	12.418755	-56.790822	90.73	0.760	-0.730	1.190	90.70	-1.90	1.60	 	 	 	 	 	 	 	 	 	 	 	 	 	 	 	 	 	 	1581530551	8.32	15.41
12/02/2020 18:02:32	120220	12022020	180232	90.97	12.418753	-56.790790	91.03	-0.180	1.160	1.210	91.01	-0.10	1.70	 	 	 	 	 	 	 	 	 	 	 	 	 	 	 	 	 	 	1581530552	6.53	12.09
12/02/2020 18:02:33	120220	12022020	180233	91.04	12.418748	-56.790758	91.06	-1.050	1.760	1.690	91.02	0.30	2.20	 	 	 	 	 	 	 	 	 	 	 	 	 	 	 	 	 	 	1581530553	6.78	12.56
12/02/2020 18:02:34	120220	12022020	180234	90.83	12.418742	-56.790718	90.80	-0.930	0.600	2.160	90.74	-1.00	2.60	 	 	 	 	 	 	 	 	 	 	 	 	 	 	 	 	 	 	1581530554	8.51	15.76
12/02/2020 18:02:35	120220	12022020	180235	90.26	12.418738	-56.790672	90.20	0.040	-1.160	2.290	90.13	-2.70	2.70	 	 	 	 	 	 	 	 	 	 	 	 	 	 	 	 	 	 	1581530555	9.92	18.37
12/02/2020 18:02:36	120220	12022020	180236	89.73	12.418742	-56.790625	89.73	0.800	-1.880	2.020	89.68	-3.20	2.40	 	 	 	 	 	 	 	 	 	 	 	 	 	 	 	 	 	 	1581530556	9.87	18.28
12/02/2020 18:02:37	120220	12022020	180237	89.71	12.418745	-56.790587	89.82	0.700	-1.150	1.900	89.78	-2.30	2.30	 	 	 	 	 	 	 	 	 	 	 	 	 	 	 	 	 	 	1581530557	8.34	15.45
12/02/2020 18:02:38	120220	12022020	180238	90.11	12.418745	-56.790553	90.24	0.050	0.080	2.080	90.11	-1.50	2.40	 	 	 	 	 	 	 	 	 	 	 	 	 	 	 	 	 	 	1581530558	7.09	13.13
12/02/2020 18:02:39	120220	12022020	180239	90.47	12.418743	-56.790518	90.56	-0.340	0.610	2.230	90.51	-0.80	2.60	 	 	 	 	 	 	 	 	 	 	 	 	 	 	 	 	 	 	1581530559	7.36	13.63
12/02/2020 18:02:40	120220	12022020	180240	90.52	12.418740	-56.790478	90.56	-0.280	0.440	2.300	90.52	-0.90	2.70	 	 	 	 	 	 	 	 	 	 	 	 	 	 	 	 	 	 	1581530560	8.38	15.52
12/02/2020 18:02:41	120220	12022020	180241	90.34	12.418738	-56.790437	90.38	-0.140	0.090	2.380	90.30	-1.30	2.80	 	 	 	 	 	 	 	 	 	 	 	 	 	 	 	 	 	 	1581530561	8.71	16.13
12/02/2020 18:02:42	120220	12022020	180242	90.21	12.418738	-56.790397	90.27	-0.080	-0.480	2.180	90.21	-1.90	2.50	 	 	 	 	 	 	 	 	 	 	 	 	 	 	 	 	 	 	1581530562	8.64	16.00
12/02/2020 18:02:43	120220	12022020	180243	90.24	12.418742	-56.790353	90.30	0.130	-1.310	1.620	90.24	-2.80	2.00	 	 	 	 	 	 	 	 	 	 	 	 	 	 	 	 	 	 	1581530563	9.08	16.82
12/02/2020 18:02:44	120220	12022020	180244	90.24	12.418745	-56.790310	90.28	0.460	-1.390	1.300	90.24	-2.70	1.70	 	 	 	 	 	 	 	 	 	 	 	 	 	 	 	 	 	 	1581530564	9.31	17.24
12/02/2020 18:02:45	120220	12022020	180245	90.24	12.418747	-56.790272	90.27	0.430	-0.180	1.220	90.24	-1.40	1.60	 	 	 	 	 	 	 	 	 	 	 	 	 	 	 	 	 	 	1581530565	8.09	14.98
12/02/2020 18:02:46	120220	12022020	180246	90.28	12.418748	-56.790238	90.33	-0.050	1.190	0.980	90.30	-0.10	1.40	 	 	 	 	 	 	 	 	 	 	 	 	 	 	 	 	 	 	1581530566	6.95	12.87
12/02/2020 18:02:47	120220	12022020	180247	90.49	12.418750	-56.790205	90.59	-0.560	1.420	0.670	90.56	-0.00	1.10	 	 	 	 	 	 	 	 	 	 	 	 	 	 	 	 	 	 	1581530567	7.30	13.52
12/02/2020 18:02:48	120220	12022020	180248	90.74	12.418752	-56.790163	90.78	-0.630	0.270	0.710	90.74	-1.30	1.20	 	 	 	 	 	 	 	 	 	 	 	 	 	 	 	 	 	 	1581530568	8.55	15.83
12/02/2020 18:02:49	120220	12022020	180249	90.59	12.418750	-56.790118	90.57	-0.210	-1.440	0.980	90.53	-3.00	1.40	 	 	 	 	 	 	 	 	 	 	 	 	 	 	 	 	 	 	1581530569	9.75	18.06
12/02/2020 18:02:50	120220	12022020	180250	90.29	12.418748	-56.790072	90.28	0.350	-2.250	1.160	90.29	-3.60	1.50	 	 	 	 	 	 	 	 	 	 	 	 	 	 	 	 	 	 	1581530570	9.88	18.30
12/02/2020 18:02:51	120220	12022020	180251	90.15	12.418748	-56.790030	90.18	0.630	-1.480	1.300	90.14	-2.70	1.70	 	 	 	 	 	 	 	 	 	 	 	 	 	 	 	 	 	 	1581530571	8.59	15.91
12/02/2020 18:02:52	120220	12022020	180252	90.12	12.418750	-56.789995	90.12	0.490	-0.030	1.180	90.12	-1.70	1.70	 	 	 	 	 	 	 	 	 	 	 	 	 	 	 	 	 	 	1581530572	7.38	13.67
12/02/2020 18:02:53	120220	12022020	180253	90.03	12.418752	-56.789960	90.03	0.010	1.040	0.880	90.03	-0.30	1.30	 	 	 	 	 	 	 	 	 	 	 	 	 	 	 	 	 	 	1581530573	7.36	13.63
12/02/2020 18:02:54	120220	12022020	180254	90.07	12.418755	-56.789923	90.09	-0.620	1.320	0.780	90.09	-0.10	1.20	 	 	 	 	 	 	 	 	 	 	 	 	 	 	 	 	 	 	1581530574	7.85	14.54
12/02/2020 18:02:55	120220	12022020	180255	90.22	12.418753	-56.789883	90.24	-0.980	0.710	1.040	90.25	-0.80	1.50	 	 	 	 	 	 	 	 	 	 	 	 	 	 	 	 	 	 	1581530575	8.40	15.56
12/02/2020 18:02:56	120220	12022020	180256	90.30	12.418752	-56.789842	90.29	-0.660	-0.470	1.230	90.29	-2.00	1.70	 	 	 	 	 	 	 	 	 	 	 	 	 	 	 	 	 	 	1581530576	9.12	16.89
12/02/2020 18:02:57	120220	12022020	180257	90.14	12.418750	-56.789797	90.09	0.200	-1.540	1.400	90.08	-3.00	1.90	 	 	 	 	 	 	 	 	 	 	 	 	 	 	 	 	 	 	1581530577	9.49	17.58
12/02/2020 18:02:58	120220	12022020	180258	89.86	12.418752	-56.789752	89.83	0.960	-1.940	1.690	89.81	-3.30	2.10	 	 	 	 	 	 	 	 	 	 	 	 	 	 	 	 	 	 	1581530578	9.33	17.28
12/02/2020 18:02:59	120220	12022020	180259	89.70	12.418752	-56.789710	89.72	1.050	-1.320	1.850	89.70	-2.50	2.30	 	 	 	 	 	 	 	 	 	 	 	 	 	 	 	 	 	 	1581530579	8.79	16.28
12/02/2020 18:03:00	120220	12022020	180300	89.81	12.418753	-56.789673	89.87	0.310	0.300	1.750	89.86	-0.90	2.10	 	 	 	 	 	 	 	 	 	 	 	 	 	 	 	 	 	 	1581530580	7.65	14.17
12/02/2020 18:03:01	120220	12022020	180301	90.09	12.418755	-56.789642	90.16	-0.770	1.740	1.600	90.15	0.50	2.00	 	 	 	 	 	 	 	 	 	 	 	 	 	 	 	 	 	 	1581530581	6.77	12.54
12/02/2020 18:03:02	120220	12022020	180302	90.32	12.418755	-56.789607	90.37	-1.220	1.520	1.590	90.34	-0.00	2.00	1015.10	26.40	26.50	20.10	20.10	816.0	68.0	68.0	395.0	28.4	346.00	17.00	72.00	12.90	58414	6779.0	27.4	27.4	1581530582	7.39	13.69
12/02/2020 18:03:03	120220	12022020	180303	90.36	12.418753	-56.789562	90.40	-0.560	-0.420	1.640	90.36	-2.00	2.10	 	 	 	 	 	 	 	 	 	 	 	 	 	 	 	 	 	 	1581530583	9.48	17.56
12/02/2020 18:03:04	120220	12022020	180304	90.42	12.418752	-56.789513	90.48	0.270	-1.740	1.660	90.42	-2.90	2.10	 	 	 	 	 	 	 	 	 	 	 	 	 	 	 	 	 	 	1581530584	10.50	19.45
12/02/2020 18:03:05	120220	12022020	180305	90.52	12.418750	-56.789472	90.58	0.390	-1.180	1.580	90.54	-2.40	2.00	 	 	 	 	 	 	 	 	 	 	 	 	 	 	 	 	 	 	1581530585	8.74	16.19
12/02/2020 18:03:06	120220	12022020	180306	90.58	12.418750	-56.789438	90.59	-0.030	0.150	1.290	90.58	-1.10	1.70	 	 	 	 	 	 	 	 	 	 	 	 	 	 	 	 	 	 	1581530586	6.92	12.82
12/02/2020 18:03:07	120220	12022020	180307	90.49	12.418753	-56.789405	90.49	-0.130	0.410	0.830	90.48	-1.00	1.20	 	 	 	 	 	 	 	 	 	 	 	 	 	 	 	 	 	 	1581530587	7.15	13.24
12/02/2020 18:03:08	120220	12022020	180308	90.46	12.418760	-56.789363	90.47	0.350	-0.520	0.360	90.47	-2.00	0.80	 	 	 	 	 	 	 	 	 	 	 	 	 	 	 	 	 	 	1581530588	9.02	16.71
12/02/2020 18:03:09	120220	12022020	180309	90.45	12.418765	-56.789318	90.43	0.670	-0.930	0.390	90.44	-2.20	0.90	 	 	 	 	 	 	 	 	 	 	 	 	 	 	 	 	 	 	1581530589	9.60	17.78
12/02/2020 18:03:10	120220	12022020	180310	90.40	12.418765	-56.789278	90.39	0.280	-0.160	0.780	90.40	-1.40	1.30	 	 	 	 	 	 	 	 	 	 	 	 	 	 	 	 	 	 	1581530590	8.26	15.30
12/02/2020 18:03:11	120220	12022020	180311	90.44	12.418763	-56.789245	90.45	-0.460	0.670	1.210	90.47	-0.60	1.70	 	 	 	 	 	 	 	 	 	 	 	 	 	 	 	 	 	 	1581530591	7.22	13.37
12/02/2020 18:03:12	120220	12022020	180312	90.59	12.418760	-56.789208	90.63	-0.790	0.480	1.420	90.63	-0.90	1.80	 	 	 	 	 	 	 	 	 	 	 	 	 	 	 	 	 	 	1581530592	7.73	14.32
12/02/2020 18:03:13	120220	12022020	180313	90.70	12.418757	-56.789165	90.69	-0.420	-0.590	1.500	90.68	-2.00	1.90	 	 	 	 	 	 	 	 	 	 	 	 	 	 	 	 	 	 	1581530593	9.03	16.72
12/02/2020 18:03:14	120220	12022020	180314	90.46	12.418753	-56.789120	90.40	0.160	-1.280	1.600	90.38	-2.60	2.00	 	 	 	 	 	 	 	 	 	 	 	 	 	 	 	 	 	 	1581530594	9.55	17.69
12/02/2020 18:03:15	120220	12022020	180315	90.07	12.418753	-56.789080	90.01	0.240	-0.730	1.340	90.00	-1.90	1.70	 	 	 	 	 	 	 	 	 	 	 	 	 	 	 	 	 	 	1581530595	8.64	16.00
12/02/2020 18:03:16	120220	12022020	180316	89.80	12.418758	-56.789045	89.76	-0.210	0.470	0.840	89.80	-1.10	1.40	 	 	 	 	 	 	 	 	 	 	 	 	 	 	 	 	 	 	1581530596	7.33	13.58
12/02/2020 18:03:17	120220	12022020	180317	89.70	12.418763	-56.789012	89.69	-0.550	0.930	0.540	89.70	-0.50	0.90	 	 	 	 	 	 	 	 	 	 	 	 	 	 	 	 	 	 	1581530597	7.14	13.22
12/02/2020 18:03:18	120220	12022020	180318	89.74	12.418767	-56.788972	89.73	-0.120	-0.080	0.370	89.75	-1.60	0.80	 	 	 	 	 	 	 	 	 	 	 	 	 	 	 	 	 	 	1581530598	8.45	15.65
12/02/2020 18:03:19	120220	12022020	180319	89.81	12.418768	-56.788925	89.82	0.830	-1.590	0.410	89.85	-3.00	0.90	 	 	 	 	 	 	 	 	 	 	 	 	 	 	 	 	 	 	1581530599	9.98	18.48
12/02/2020 18:03:20	120220	12022020	180320	90.00	12.418768	-56.788878	90.01	1.190	-1.640	0.920	90.03	-2.80	1.40	 	 	 	 	 	 	 	 	 	 	 	 	 	 	 	 	 	 	1581530600	9.67	17.91
12/02/2020 18:03:21	120220	12022020	180321	90.12	12.418765	-56.788843	90.14	0.550	-0.010	1.460	90.13	-1.10	1.90	 	 	 	 	 	 	 	 	 	 	 	 	 	 	 	 	 	 	1581530601	7.60	14.08
12/02/2020 18:03:22	120220	12022020	180322	90.05	12.418763	-56.788815	90.02	-0.550	1.740	1.690	90.01	0.50	2.10	 	 	 	 	 	 	 	 	 	 	 	 	 	 	 	 	 	 	1581530602	6.04	11.19
12/02/2020 18:03:23	120220	12022020	180323	89.80	12.418765	-56.788782	89.81	-1.100	1.640	1.690	89.77	0.20	2.10	 	 	 	 	 	 	 	 	 	 	 	 	 	 	 	 	 	 	1581530603	6.80	12.59
12/02/2020 18:03:24	120220	12022020	180324	89.72	12.418768	-56.788740	89.77	-0.730	-0.260	1.470	89.74	-1.80	1.90	 	 	 	 	 	 	 	 	 	 	 	 	 	 	 	 	 	 	1581530604	9.04	16.74
12/02/2020 18:03:25	120220	12022020	180325	89.81	12.418770	-56.788692	89.84	0.050	-2.060	1.280	89.82	-3.50	1.70	 	 	 	 	 	 	 	 	 	 	 	 	 	 	 	 	 	 	1581530605	10.20	18.89
12/02/2020 18:03:26	120220	12022020	180326	89.86	12.418772	-56.788647	89.86	0.520	-2.230	1.180	89.86	-3.60	1.60	 	 	 	 	 	 	 	 	 	 	 	 	 	 	 	 	 	 	1581530606	9.34	17.30
12/02/2020 18:03:27	120220	12022020	180327	89.83	12.418772	-56.788612	89.82	0.470	-0.900	1.160	89.82	-2.00	1.60	 	 	 	 	 	 	 	 	 	 	 	 	 	 	 	 	 	 	1581530607	7.60	14.08
12/02/2020 18:03:28	120220	12022020	180328	89.83	12.418773	-56.788580	89.83	0.170	0.690	1.130	89.83	-1.00	1.60	 	 	 	 	 	 	 	 	 	 	 	 	 	 	 	 	 	 	1581530608	6.69	12.39
12/02/2020 18:03:29	120220	12022020	180329	89.92	12.418777	-56.788547	89.95	-0.180	1.540	0.930	89.97	0.20	1.30	 	 	 	 	 	 	 	 	 	 	 	 	 	 	 	 	 	 	1581530609	6.92	12.82
12/02/2020 18:03:30	120220	12022020	180330	90.20	12.418780	-56.788512	90.25	-0.400	1.200	0.590	90.20	0.10	1.10	 	 	 	 	 	 	 	 	 	 	 	 	 	 	 	 	 	 	1581530610	7.71	14.28
12/02/2020 18:03:31	120220	12022020	180331	90.62	12.418783	-56.788470	90.66	-0.220	-0.250	0.300	90.69	-1.80	0.70	 	 	 	 	 	 	 	 	 	 	 	 	 	 	 	 	 	 	1581530611	8.81	16.32
12/02/2020 18:03:32	120220	12022020	180332	90.81	12.418785	-56.788423	90.77	0.230	-1.820	0.490	90.79	-3.20	1.00	 	 	 	 	 	 	 	 	 	 	 	 	 	 	 	 	 	 	1581530612	9.71	17.98
12/02/2020 18:03:33	120220	12022020	180333	90.47	12.418783	-56.788380	90.38	0.450	-1.980	1.030	90.36	-3.20	1.50	 	 	 	 	 	 	 	 	 	 	 	 	 	 	 	 	 	 	1581530613	9.25	17.13
12/02/2020 18:03:34	120220	12022020	180334	90.00	12.418783	-56.788345	89.93	0.200	-0.540	1.240	89.93	-1.60	1.60	 	 	 	 	 	 	 	 	 	 	 	 	 	 	 	 	 	 	1581530614	7.47	13.83
12/02/2020 18:03:35	120220	12022020	180335	89.83	12.418787	-56.788313	89.83	-0.120	0.770	0.890	89.85	-0.50	1.30	 	 	 	 	 	 	 	 	 	 	 	 	 	 	 	 	 	 	1581530615	6.45	11.95
12/02/2020 18:03:36	120220	12022020	180336	90.06	12.418792	-56.788278	90.10	0.070	0.440	0.360	90.13	-1.00	0.70	 	 	 	 	 	 	 	 	 	 	 	 	 	 	 	 	 	 	1581530616	7.72	14.30
12/02/2020 18:03:37	120220	12022020	180337	90.43	12.418797	-56.788233	90.48	0.430	-0.480	0.070	90.51	-1.90	0.50	 	 	 	 	 	 	 	 	 	 	 	 	 	 	 	 	 	 	1581530617	9.42	17.45
12/02/2020 18:03:38	120220	12022020	180338	90.71	12.418798	-56.788192	90.74	0.140	-0.200	0.210	90.75	-1.40	0.70	 	 	 	 	 	 	 	 	 	 	 	 	 	 	 	 	 	 	1581530618	8.86	16.41
12/02/2020 18:03:39	120220	12022020	180339	90.87	12.418797	-56.788158	90.89	-0.780	1.040	0.750	90.90	-0.20	1.20	 	 	 	 	 	 	 	 	 	 	 	 	 	 	 	 	 	 	1581530619	6.93	12.83
12/02/2020 18:03:40	120220	12022020	180340	91.00	12.418793	-56.788128	91.01	-1.380	1.310	1.130	91.00	0.10	1.50	 	 	 	 	 	 	 	 	 	 	 	 	 	 	 	 	 	 	1581530620	6.38	11.82
12/02/2020 18:03:41	120220	12022020	180341	90.99	12.418792	-56.788090	90.99	-0.610	-0.700	1.120	90.97	-2.40	1.50	 	 	 	 	 	 	 	 	 	 	 	 	 	 	 	 	 	 	1581530621	8.30	15.37
12/02/2020 18:03:42	120220	12022020	180342	90.84	12.418793	-56.788040	90.82	1.020	-2.980	0.980	90.84	-3.90	1.40	 	 	 	 	 	 	 	 	 	 	 	 	 	 	 	 	 	 	1581530622	10.63	19.69
12/02/2020 18:03:43	120220	12022020	180343	90.78	12.418797	-56.787993	90.81	1.860	-2.630	0.760	90.80	-3.70	1.20	 	 	 	 	 	 	 	 	 	 	 	 	 	 	 	 	 	 	1581530623	9.64	17.85
12/02/2020 18:03:44	120220	12022020	180344	90.96	12.418802	-56.787963	91.02	1.170	-0.080	0.580	90.96	-2.10	1.00	 	 	 	 	 	 	 	 	 	 	 	 	 	 	 	 	 	 	1581530624	6.71	12.43
12/02/2020 18:03:45	120220	12022020	180345	91.29	12.418805	-56.787938	91.36	-0.300	2.160	0.480	91.37	1.00	0.90	 	 	 	 	 	 	 	 	 	 	 	 	 	 	 	 	 	 	1581530625	5.34	9.89
12/02/2020 18:03:46	120220	12022020	180346	91.64	12.418807	-56.787907	91.70	-1.350	2.480	0.520	91.69	1.00	0.90	 	 	 	 	 	 	 	 	 	 	 	 	 	 	 	 	 	 	1581530626	6.45	11.95
12/02/2020 18:03:47	120220	12022020	180347	91.86	12.418805	-56.787868	91.90	-1.380	1.020	0.750	91.88	-0.60	1.20	 	 	 	 	 	 	 	 	 	 	 	 	 	 	 	 	 	 	1581530627	8.28	15.33
12/02/2020 18:03:48	120220	12022020	180348	91.97	12.418802	-56.787823	92.03	-0.490	-1.160	0.980	91.99	-2.70	1.40	 	 	 	 	 	 	 	 	 	 	 	 	 	 	 	 	 	 	1581530628	9.59	17.76
12/02/2020 18:03:49	120220	12022020	180349	92.04	12.418802	-56.787777	92.09	0.580	-2.560	1.000	92.05	-3.90	1.40	 	 	 	 	 	 	 	 	 	 	 	 	 	 	 	 	 	 	1581530629	9.78	18.11
12/02/2020 18:03:50	120220	12022020	180350	92.03	12.418800	-56.787737	92.06	1.030	-2.120	1.050	92.03	-3.30	1.50	 	 	 	 	 	 	 	 	 	 	 	 	 	 	 	 	 	 	1581530630	8.54	15.82
12/02/2020 18:03:51	120220	12022020	180351	91.98	12.418800	-56.787703	92.01	0.680	-0.290	1.110	91.97	-1.40	1.50	 	 	 	 	 	 	 	 	 	 	 	 	 	 	 	 	 	 	1581530631	6.78	12.56
12/02/2020 18:03:52	120220	12022020	180352	91.91	12.418802	-56.787675	91.95	0.010	1.340	0.890	91.91	0.10	1.30	 	 	 	 	 	 	 	 	 	 	 	 	 	 	 	 	 	 	1581530632	6.01	11.13
12/02/2020 18:03:53	120220	12022020	180353	91.99	12.418805	-56.787643	92.05	-0.380	1.470	0.400	92.04	0.00	0.80	 	 	 	 	 	 	 	 	 	 	 	 	 	 	 	 	 	 	1581530633	7.00	12.96
12/02/2020 18:03:54	120220	12022020	180354	92.22	12.418808	-56.787602	92.27	-0.410	0.440	0.090	92.22	-0.60	0.60	 	 	 	 	 	 	 	 	 	 	 	 	 	 	 	 	 	 	1581530634	8.52	15.78
12/02/2020 18:03:55	120220	12022020	180355	92.40	12.418808	-56.787560	92.43	-0.320	-0.580	0.190	92.42	-2.00	0.60	 	 	 	 	 	 	 	 	 	 	 	 	 	 	 	 	 	 	1581530635	8.90	16.48
12/02/2020 18:03:56	120220	12022020	180356	92.40	12.418807	-56.787520	92.40	-0.170	-1.090	0.630	92.38	-2.40	1.10	 	 	 	 	 	 	 	 	 	 	 	 	 	 	 	 	 	 	1581530636	8.39	15.54
12/02/2020 18:03:57	120220	12022020	180357	92.21	12.418803	-56.787483	92.21	0.130	-1.190	1.240	92.17	-2.50	1.70	 	 	 	 	 	 	 	 	 	 	 	 	 	 	 	 	 	 	1581530637	8.00	14.82
12/02/2020 18:03:58	120220	12022020	180358	92.04	12.418800	-56.787445	92.06	0.480	-1.070	1.520	92.02	-2.40	1.90	 	 	 	 	 	 	 	 	 	 	 	 	 	 	 	 	 	 	1581530638	8.00	14.82
12/02/2020 18:03:59	120220	12022020	180359	91.94	12.418800	-56.787407	91.98	0.680	-0.730	1.490	91.93	-2.00	1.90	 	 	 	 	 	 	 	 	 	 	 	 	 	 	 	 	 	 	1581530639	8.05	14.91
12/02/2020 18:04:00	120220	12022020	180400	91.94	12.418800	-56.787370	91.99	0.560	-0.080	1.230	91.97	-1.30	1.60	 	 	 	 	 	 	 	 	 	 	 	 	 	 	 	 	 	 	1581530640	7.93	14.69
12/02/2020 18:04:01	120220	12022020	180401	92.15	12.418803	-56.787333	92.22	0.120	0.750	0.790	92.21	-0.50	1.20	 	 	 	 	 	 	 	 	 	 	 	 	 	 	 	 	 	 	1581530641	7.60	14.08
12/02/2020 18:04:02	120220	12022020	180402	92.46	12.418805	-56.787298	92.52	-0.410	1.270	0.570	92.51	-0.10	1.00	1015.00	26.40	26.50	19.90	20.00	813.0	67.0	67.0	395.0	28.4	345.00	17.00	71.00	13.00	58246	11593.0	27.4	27.4	1581530642	7.32	13.56
12/02/2020 18:04:03	120220	12022020	180403	92.60	12.418807	-56.787263	92.61	-0.640	0.820	0.590	92.60	-0.60	1.00	 	 	 	 	 	 	 	 	 	 	 	 	 	 	 	 	 	 	1581530643	7.67	14.20
12/02/2020 18:04:04	120220	12022020	180404	92.62	12.418807	-56.787222	92.63	-0.310	-0.570	0.670	92.62	-1.50	1.10	 	 	 	 	 	 	 	 	 	 	 	 	 	 	 	 	 	 	1581530644	8.73	16.17
12/02/2020 18:04:05	120220	12022020	180405	92.66	12.418805	-56.787177	92.67	0.330	-1.830	0.910	92.65	-3.20	1.40	 	 	 	 	 	 	 	 	 	 	 	 	 	 	 	 	 	 	1581530645	9.46	17.52
12/02/2020 18:04:06	120220	12022020	180406	92.61	12.418803	-56.787135	92.62	0.570	-1.670	1.230	92.61	-3.20	1.60	 	 	 	 	 	 	 	 	 	 	 	 	 	 	 	 	 	 	1581530646	8.83	16.35
12/02/2020 18:04:07	120220	12022020	180407	92.63	12.418802	-56.787102	92.68	0.070	-0.190	1.340	92.65	-1.30	1.80	 	 	 	 	 	 	 	 	 	 	 	 	 	 	 	 	 	 	1581530647	7.14	13.22
12/02/2020 18:04:08	120220	12022020	180408	92.80	12.418800	-56.787072	92.87	-0.640	0.930	1.340	92.83	-0.40	1.70	 	 	 	 	 	 	 	 	 	 	 	 	 	 	 	 	 	 	1581530648	6.37	11.80
12/02/2020 18:04:09	120220	12022020	180409	92.96	12.418798	-56.787035	93.01	-0.630	0.390	1.100	92.97	-1.10	1.50	 	 	 	 	 	 	 	 	 	 	 	 	 	 	 	 	 	 	1581530649	7.63	14.13
12/02/2020 18:04:10	120220	12022020	180410	92.91	12.418798	-56.786990	92.90	0.240	-1.070	0.860	92.86	-2.50	1.30	 	 	 	 	 	 	 	 	 	 	 	 	 	 	 	 	 	 	1581530650	9.53	17.65
12/02/2020 18:04:11	120220	12022020	180411	92.75	12.418797	-56.786943	92.79	1.040	-1.390	0.730	92.76	-2.60	1.10	 	 	 	 	 	 	 	 	 	 	 	 	 	 	 	 	 	 	1581530651	9.79	18.13
12/02/2020 18:04:12	120220	12022020	180412	92.98	12.418798	-56.786907	93.09	0.790	0.180	0.580	93.08	-0.90	1.00	 	 	 	 	 	 	 	 	 	 	 	 	 	 	 	 	 	 	1581530652	7.71	14.28
12/02/2020 18:04:13	120220	12022020	180413	93.49	12.418802	-56.786880	93.61	-0.330	1.870	0.460	93.59	0.60	0.90	 	 	 	 	 	 	 	 	 	 	 	 	 	 	 	 	 	 	1581530653	5.90	10.93
12/02/2020 18:04:14	120220	12022020	180414	93.85	12.418800	-56.786848	93.92	-1.110	1.610	0.580	93.88	0.10	1.00	 	 	 	 	 	 	 	 	 	 	 	 	 	 	 	 	 	 	1581530654	6.47	11.98
12/02/2020 18:04:15	120220	12022020	180415	93.80	12.418797	-56.786807	93.80	-0.620	-0.800	1.020	93.73	-2.40	1.50	 	 	 	 	 	 	 	 	 	 	 	 	 	 	 	 	 	 	1581530655	8.99	16.65
12/02/2020 18:04:16	120220	12022020	180416	93.46	12.418792	-56.786757	93.48	0.580	-2.880	1.450	93.46	-3.90	1.80	 	 	 	 	 	 	 	 	 	 	 	 	 	 	 	 	 	 	1581530656	10.60	19.63
12/02/2020 18:04:17	120220	12022020	180417	93.36	12.418790	-56.786713	93.42	1.130	-2.420	1.570	93.37	-3.50	2.00	 	 	 	 	 	 	 	 	 	 	 	 	 	 	 	 	 	 	1581530657	9.23	17.09
12/02/2020 18:04:18	120220	12022020	180418	93.52	12.418790	-56.786682	93.63	0.480	-0.140	1.600	93.52	-2.00	2.00	 	 	 	 	 	 	 	 	 	 	 	 	 	 	 	 	 	 	1581530658	6.57	12.17
12/02/2020 18:04:19	120220	12022020	180419	93.80	12.418787	-56.786655	93.91	-0.670	1.620	1.630	93.86	0.40	2.00	 	 	 	 	 	 	 	 	 	 	 	 	 	 	 	 	 	 	1581530659	5.66	10.48
12/02/2020 18:04:20	120220	12022020	180420	94.04	12.418782	-56.786622	94.09	-1.180	1.530	1.490	94.04	0.30	1.90	 	 	 	 	 	 	 	 	 	 	 	 	 	 	 	 	 	 	1581530660	7.08	13.11
12/02/2020 18:04:21	120220	12022020	180421	93.98	12.418778	-56.786580	93.98	-0.780	0.390	1.400	93.92	-1.10	1.80	 	 	 	 	 	 	 	 	 	 	 	 	 	 	 	 	 	 	1581530661	8.77	16.24
12/02/2020 18:04:22	120220	12022020	180422	93.63	12.418775	-56.786538	93.61	-0.020	-0.540	1.260	93.55	-1.90	1.70	 	 	 	 	 	 	 	 	 	 	 	 	 	 	 	 	 	 	1581530662	9.04	16.74
12/02/2020 18:04:23	120220	12022020	180423	93.26	12.418775	-56.786498	93.26	0.560	-0.990	1.060	93.20	-2.40	1.50	 	 	 	 	 	 	 	 	 	 	 	 	 	 	 	 	 	 	1581530663	8.49	15.72
12/02/2020 18:04:24	120220	12022020	180424	93.02	12.418775	-56.786458	93.05	0.810	-1.260	0.980	93.00	-2.60	1.40	 	 	 	 	 	 	 	 	 	 	 	 	 	 	 	 	 	 	1581530664	8.29	15.35
12/02/2020 18:04:25	120220	12022020	180425	93.07	12.418777	-56.786418	93.13	0.770	-1.220	0.790	93.10	-2.50	1.20	 	 	 	 	 	 	 	 	 	 	 	 	 	 	 	 	 	 	1581530665	8.41	15.58
12/02/2020 18:04:26	120220	12022020	180426	93.27	12.418777	-56.786382	93.34	0.470	-0.430	0.870	93.30	-1.60	1.30	 	 	 	 	 	 	 	 	 	 	 	 	 	 	 	 	 	 	1581530666	7.99	14.80
12/02/2020 18:04:27	120220	12022020	180427	93.32	12.418772	-56.786347	93.35	0.000	0.710	1.360	93.30	-0.50	1.80	 	 	 	 	 	 	 	 	 	 	 	 	 	 	 	 	 	 	1581530667	7.17	13.28
12/02/2020 18:04:28	120220	12022020	180428	93.15	12.418768	-56.786313	93.16	-0.430	1.230	1.650	93.10	-0.10	2.10	 	 	 	 	 	 	 	 	 	 	 	 	 	 	 	 	 	 	1581530668	7.18	13.30
12/02/2020 18:04:29	120220	12022020	180429	92.83	12.418767	-56.786277	92.82	-0.710	0.840	1.730	92.76	-0.60	2.20	 	 	 	 	 	 	 	 	 	 	 	 	 	 	 	 	 	 	1581530669	7.89	14.61
12/02/2020 18:04:30	120220	12022020	180430	92.53	12.418765	-56.786237	92.57	-0.730	-0.190	1.790	92.53	-1.30	2.20	 	 	 	 	 	 	 	 	 	 	 	 	 	 	 	 	 	 	1581530670	8.57	15.87
12/02/2020 18:04:31	120220	12022020	180431	92.46	12.418762	-56.786193	92.51	-0.390	-1.390	1.640	92.46	-2.80	2.00	 	 	 	 	 	 	 	 	 	 	 	 	 	 	 	 	 	 	1581530671	9.04	16.74
12/02/2020 18:04:32	120220	12022020	180432	92.42	12.418758	-56.786150	92.45	0.190	-2.080	1.500	92.38	-3.40	1.90	 	 	 	 	 	 	 	 	 	 	 	 	 	 	 	 	 	 	1581530672	9.14	16.93
12/02/2020 18:04:33	120220	12022020	180433	92.08	12.418757	-56.786110	92.03	0.730	-1.710	1.580	91.97	-2.90	2.00	 	 	 	 	 	 	 	 	 	 	 	 	 	 	 	 	 	 	1581530673	8.60	15.93
12/02/2020 18:04:34	120220	12022020	180434	91.43	12.418755	-56.786073	91.38	0.950	-0.480	1.620	91.32	-1.60	2.00	 	 	 	 	 	 	 	 	 	 	 	 	 	 	 	 	 	 	1581530674	7.76	14.37
12/02/2020 18:04:35	120220	12022020	180435	91.01	12.418757	-56.786038	91.05	0.670	0.830	1.350	91.00	-0.40	1.70	 	 	 	 	 	 	 	 	 	 	 	 	 	 	 	 	 	 	1581530675	7.39	13.69
12/02/2020 18:04:36	120220	12022020	180436	91.21	12.418760	-56.786002	91.35	-0.100	1.610	0.820	91.32	0.30	1.20	 	 	 	 	 	 	 	 	 	 	 	 	 	 	 	 	 	 	1581530676	7.56	14.00
12/02/2020 18:04:37	120220	12022020	180437	91.76	12.418762	-56.785967	91.88	-1.060	1.710	0.540	91.85	0.30	0.90	 	 	 	 	 	 	 	 	 	 	 	 	 	 	 	 	 	 	1581530677	7.65	14.17
12/02/2020 18:04:38	120220	12022020	180438	92.07	12.418762	-56.785928	92.11	-1.460	0.900	0.620	92.07	-0.60	1.10	 	 	 	 	 	 	 	 	 	 	 	 	 	 	 	 	 	 	1581530678	7.89	14.61
12/02/2020 18:04:39	120220	12022020	180439	91.94	12.418758	-56.785887	91.94	-0.670	-1.030	1.070	91.88	-2.70	1.50	 	 	 	 	 	 	 	 	 	 	 	 	 	 	 	 	 	 	1581530679	8.83	16.35
12/02/2020 18:04:40	120220	12022020	180440	91.69	12.418755	-56.785840	91.71	0.890	-3.090	1.590	91.65	-4.60	2.00	 	 	 	 	 	 	 	 	 	 	 	 	 	 	 	 	 	 	1581530680	10.14	18.78
12/02/2020 18:04:41	120220	12022020	180441	91.54	12.418753	-56.785793	91.57	1.660	-2.960	1.810	91.52	-4.10	2.20	 	 	 	 	 	 	 	 	 	 	 	 	 	 	 	 	 	 	1581530681	9.68	17.93
12/02/2020 18:04:42	120220	12022020	180442	91.45	12.418753	-56.785760	91.44	0.900	-0.460	1.590	91.41	-1.40	2.00	 	 	 	 	 	 	 	 	 	 	 	 	 	 	 	 	 	 	1581530682	7.05	13.06
12/02/2020 18:04:43	120220	12022020	180443	91.25	12.418755	-56.785735	91.24	-0.650	2.220	1.310	91.21	1.00	1.70	 	 	 	 	 	 	 	 	 	 	 	 	 	 	 	 	 	 	1581530683	5.25	9.72
12/02/2020 18:04:44	120220	12022020	180444	91.15	12.418755	-56.785707	91.17	-1.560	2.640	0.910	91.15	1.40	1.40	 	 	 	 	 	 	 	 	 	 	 	 	 	 	 	 	 	 	1581530684	6.19	11.46
12/02/2020 18:04:45	120220	12022020	180445	91.27	12.418758	-56.785665	91.28	-1.250	0.680	0.310	91.30	-1.00	0.70	 	 	 	 	 	 	 	 	 	 	 	 	 	 	 	 	 	 	1581530685	8.86	16.41
12/02/2020 18:04:46	120220	12022020	180446	91.35	12.418760	-56.785615	91.33	-0.170	-1.690	0.080	91.35	-3.30	0.50	 	 	 	 	 	 	 	 	 	 	 	 	 	 	 	 	 	 	1581530686	10.45	19.35
12/02/2020 18:04:47	120220	12022020	180447	91.30	12.418760	-56.785568	91.28	0.800	-2.520	0.340	91.29	-3.80	0.80	 	 	 	 	 	 	 	 	 	 	 	 	 	 	 	 	 	 	1581530687	9.97	18.46
12/02/2020 18:04:48	120220	12022020	180448	91.26	12.418758	-56.785530	91.27	0.940	-1.210	0.590	91.27	-2.30	1.00	 	 	 	 	 	 	 	 	 	 	 	 	 	 	 	 	 	 	1581530688	7.98	14.78
12/02/2020 18:04:49	120220	12022020	180449	91.32	12.418757	-56.785500	91.34	0.220	0.820	0.720	91.34	-0.40	1.10	 	 	 	 	 	 	 	 	 	 	 	 	 	 	 	 	 	 	1581530689	6.20	11.48
12/02/2020 18:04:50	120220	12022020	180450	91.44	12.418758	-56.785472	91.47	-0.590	1.820	0.830	91.46	0.40	1.30	 	 	 	 	 	 	 	 	 	 	 	 	 	 	 	 	 	 	1581530690	6.16	11.41
12/02/2020 18:04:51	120220	12022020	180451	91.49	12.418758	-56.785437	91.50	-0.740	1.130	0.880	91.48	-0.40	1.30	 	 	 	 	 	 	 	 	 	 	 	 	 	 	 	 	 	 	1581530691	7.54	13.96
12/02/2020 18:04:52	120220	12022020	180452	91.38	12.418758	-56.785393	91.38	-0.210	-0.520	0.940	91.34	-2.10	1.40	 	 	 	 	 	 	 	 	 	 	 	 	 	 	 	 	 	 	1581530692	9.07	16.80
12/02/2020 18:04:53	120220	12022020	180453	91.20	12.418758	-56.785348	91.22	0.380	-1.840	1.160	91.17	-3.30	1.60	 	 	 	 	 	 	 	 	 	 	 	 	 	 	 	 	 	 	1581530693	9.53	17.65
12/02/2020 18:04:54	120220	12022020	180454	91.06	12.418757	-56.785307	91.08	0.570	-1.990	1.290	91.06	-3.40	1.70	 	 	 	 	 	 	 	 	 	 	 	 	 	 	 	 	 	 	1581530694	8.82	16.33
12/02/2020 18:04:55	120220	12022020	180455	90.92	12.418755	-56.785270	90.91	0.420	-1.130	1.200	90.89	-2.30	1.60	 	 	 	 	 	 	 	 	 	 	 	 	 	 	 	 	 	 	1581530695	7.77	14.39
12/02/2020 18:04:56	120220	12022020	180456	90.78	12.418757	-56.785235	90.76	0.170	0.070	1.110	90.78	-1.60	1.50	 	 	 	 	 	 	 	 	 	 	 	 	 	 	 	 	 	 	1581530696	7.26	13.45
12/02/2020 18:04:57	120220	12022020	180457	90.62	12.418758	-56.785200	90.61	-0.090	0.870	1.120	90.59	-0.50	1.50	 	 	 	 	 	 	 	 	 	 	 	 	 	 	 	 	 	 	1581530697	7.34	13.59
12/02/2020 18:04:58	120220	12022020	180458	90.50	12.418758	-56.785163	90.52	-0.300	0.950	1.050	90.50	-0.40	1.40	 	 	 	 	 	 	 	 	 	 	 	 	 	 	 	 	 	 	1581530698	7.93	14.69
12/02/2020 18:04:59	120220	12022020	180459	90.68	12.418758	-56.785123	90.77	-0.470	0.680	0.800	90.76	-0.70	1.20	 	 	 	 	 	 	 	 	 	 	 	 	 	 	 	 	 	 	1581530699	8.32	15.41
12/02/2020 18:05:00	120220	12022020	180500	91.21	12.418760	-56.785085	91.33	-0.520	0.240	0.540	91.32	-1.20	0.90	 	 	 	 	 	 	 	 	 	 	 	 	 	 	 	 	 	 	1581530700	8.23	15.24
12/02/2020 18:05:01	120220	12022020	180501	91.55	12.418758	-56.785045	91.56	-0.280	-0.550	0.670	91.53	-2.00	1.10	 	 	 	 	 	 	 	 	 	 	 	 	 	 	 	 	 	 	1581530701	8.32	15.41
12/02/2020 18:05:02	120220	12022020	180502	91.19	12.418757	-56.785003	91.11	0.220	-1.380	1.140	91.06	-2.80	1.60	1015.00	26.50	26.50	20.10	20.10	821.0	67.0	68.0	396.0	28.4	344.00	16.60	71.00	12.70	58355	20000.0	27.4	27.4	1581530702	8.80	16.30
12/02/2020 18:05:03	120220	12022020	180503	90.52	12.418757	-56.784962	90.46	0.690	-1.570	1.550	90.41	-2.90	2.00	 	 	 	 	 	 	 	 	 	 	 	 	 	 	 	 	 	 	1581530703	8.73	16.17
12/02/2020 18:05:04	120220	12022020	180504	90.22	12.418757	-56.784923	90.29	0.860	-1.080	1.550	90.24	-2.40	1.90	 	 	 	 	 	 	 	 	 	 	 	 	 	 	 	 	 	 	1581530704	8.23	15.24
12/02/2020 18:05:05	120220	12022020	180505	90.52	12.418760	-56.784885	90.63	0.690	-0.440	1.030	90.62	-1.70	1.40	 	 	 	 	 	 	 	 	 	 	 	 	 	 	 	 	 	 	1581530705	7.99	14.80
12/02/2020 18:05:06	120220	12022020	180506	90.97	12.418765	-56.784848	91.04	0.140	0.280	0.610	91.03	-1.00	1.00	 	 	 	 	 	 	 	 	 	 	 	 	 	 	 	 	 	 	1581530706	8.10	15.00
12/02/2020 18:05:07	120220	12022020	180507	91.09	12.418765	-56.784812	91.10	-0.630	1.150	0.890	91.06	-0.10	1.40	 	 	 	 	 	 	 	 	 	 	 	 	 	 	 	 	 	 	1581530707	7.63	14.13
12/02/2020 18:05:08	120220	12022020	180508	90.82	12.418762	-56.784777	90.80	-1.080	1.480	1.330	90.82	0.10	1.60	 	 	 	 	 	 	 	 	 	 	 	 	 	 	 	 	 	 	1581530708	7.36	13.63
12/02/2020 18:05:09	120220	12022020	180509	90.50	12.418758	-56.784738	90.54	-0.760	0.410	1.590	90.48	-1.20	2.00	 	 	 	 	 	 	 	 	 	 	 	 	 	 	 	 	 	 	1581530709	8.25	15.28
12/02/2020 18:05:10	120220	12022020	180510	90.56	12.418758	-56.784692	90.63	0.010	-1.420	1.430	90.56	-2.40	1.90	 	 	 	 	 	 	 	 	 	 	 	 	 	 	 	 	 	 	1581530710	9.71	17.98
12/02/2020 18:05:11	120220	12022020	180511	90.68	12.418758	-56.784645	90.70	0.570	-2.320	0.990	90.67	-3.60	1.40	 	 	 	 	 	 	 	 	 	 	 	 	 	 	 	 	 	 	1581530711	9.84	18.22
12/02/2020 18:05:12	120220	12022020	180512	90.48	12.418762	-56.784605	90.43	0.590	-1.460	0.750	90.41	-2.60	1.20	 	 	 	 	 	 	 	 	 	 	 	 	 	 	 	 	 	 	1581530712	8.41	15.58
12/02/2020 18:05:13	120220	12022020	180513	90.14	12.418765	-56.784573	90.10	0.280	0.270	0.770	90.10	-0.90	1.20	 	 	 	 	 	 	 	 	 	 	 	 	 	 	 	 	 	 	1581530713	6.90	12.78
12/02/2020 18:05:14	120220	12022020	180514	90.10	12.418768	-56.784542	90.14	0.050	1.190	0.580	90.14	-0.20	1.00	 	 	 	 	 	 	 	 	 	 	 	 	 	 	 	 	 	 	1581530714	6.80	12.59
12/02/2020 18:05:15	120220	12022020	180515	90.47	12.418773	-56.784503	90.57	0.010	0.790	0.260	90.58	-0.70	0.70	 	 	 	 	 	 	 	 	 	 	 	 	 	 	 	 	 	 	1581530715	8.24	15.26
12/02/2020 18:05:16	120220	12022020	180516	91.00	12.418775	-56.784460	91.07	-0.130	0.040	0.300	91.08	-1.40	0.80	 	 	 	 	 	 	 	 	 	 	 	 	 	 	 	 	 	 	1581530716	8.94	16.56
12/02/2020 18:05:17	120220	12022020	180517	91.23	12.418772	-56.784420	91.22	-0.290	-0.490	0.750	91.20	-1.90	1.30	 	 	 	 	 	 	 	 	 	 	 	 	 	 	 	 	 	 	1581530717	8.68	16.08
12/02/2020 18:05:18	120220	12022020	180518	90.80	12.418767	-56.784380	90.70	-0.110	-0.940	1.630	90.65	-2.30	2.10	 	 	 	 	 	 	 	 	 	 	 	 	 	 	 	 	 	 	1581530718	8.52	15.78
12/02/2020 18:05:19	120220	12022020	180519	90.12	12.418763	-56.784338	90.09	0.180	-1.000	2.210	90.03	-2.30	2.60	 	 	 	 	 	 	 	 	 	 	 	 	 	 	 	 	 	 	1581530719	8.65	16.02
12/02/2020 18:05:20	120220	12022020	180520	90.01	12.418765	-56.784302	90.12	0.090	-0.410	1.910	90.01	-1.90	2.50	 	 	 	 	 	 	 	 	 	 	 	 	 	 	 	 	 	 	1581530720	8.02	14.85
12/02/2020 18:05:21	120220	12022020	180521	90.52	12.418770	-56.784265	90.66	-0.230	0.160	1.090	90.65	-1.20	1.40	 	 	 	 	 	 	 	 	 	 	 	 	 	 	 	 	 	 	1581530721	7.56	14.00
12/02/2020 18:05:22	120220	12022020	180522	91.13	12.418773	-56.784228	91.23	-0.200	0.010	0.520	91.24	-1.40	0.90	 	 	 	 	 	 	 	 	 	 	 	 	 	 	 	 	 	 	1581530722	7.95	14.72
12/02/2020 18:05:23	120220	12022020	180523	91.53	12.418775	-56.784187	91.56	0.270	-0.520	0.540	91.57	-1.90	1.00	 	 	 	 	 	 	 	 	 	 	 	 	 	 	 	 	 	 	1581530723	8.89	16.46
12/02/2020 18:05:24	120220	12022020	180524	91.61	12.418773	-56.784143	91.60	0.560	-0.540	0.890	91.60	-1.90	1.40	 	 	 	 	 	 	 	 	 	 	 	 	 	 	 	 	 	 	1581530724	8.88	16.45
12/02/2020 18:05:25	120220	12022020	180525	91.48	12.418772	-56.784105	91.46	0.300	-0.110	1.310	91.43	-1.40	1.80	 	 	 	 	 	 	 	 	 	 	 	 	 	 	 	 	 	 	1581530725	8.15	15.09
12/02/2020 18:05:26	120220	12022020	180526	91.25	12.418770	-56.784068	91.23	-0.200	0.190	1.500	91.25	-1.20	1.90	 	 	 	 	 	 	 	 	 	 	 	 	 	 	 	 	 	 	1581530726	7.81	14.46
12/02/2020 18:05:27	120220	12022020	180527	91.23	12.418772	-56.784030	91.28	-0.380	0.010	1.190	91.27	-1.40	1.60	 	 	 	 	 	 	 	 	 	 	 	 	 	 	 	 	 	 	1581530727	8.25	15.28
12/02/2020 18:05:28	120220	12022020	180528	91.56	12.418777	-56.783988	91.67	-0.280	-0.180	0.750	91.67	-1.50	1.10	 	 	 	 	 	 	 	 	 	 	 	 	 	 	 	 	 	 	1581530728	8.70	16.11
12/02/2020 18:05:29	120220	12022020	180529	92.14	12.418778	-56.783950	92.26	-0.340	0.040	0.350	92.26	-1.30	0.80	 	 	 	 	 	 	 	 	 	 	 	 	 	 	 	 	 	 	1581530729	8.25	15.28
12/02/2020 18:05:30	120220	12022020	180530	92.56	12.418777	-56.783913	92.59	-0.490	0.090	0.570	92.58	-1.30	1.10	 	 	 	 	 	 	 	 	 	 	 	 	 	 	 	 	 	 	1581530730	7.71	14.28
12/02/2020 18:05:31	120220	12022020	180531	92.41	12.418770	-56.783873	92.36	-0.130	-0.830	1.400	92.31	-2.30	1.90	 	 	 	 	 	 	 	 	 	 	 	 	 	 	 	 	 	 	1581530731	8.49	15.72
12/02/2020 18:05:32	120220	12022020	180532	91.90	12.418765	-56.783827	91.85	0.740	-1.970	1.660	91.82	-3.30	2.10	 	 	 	 	 	 	 	 	 	 	 	 	 	 	 	 	 	 	1581530732	9.83	18.21
12/02/2020 18:05:33	120220	12022020	180533	91.70	12.418765	-56.783783	91.72	1.080	-1.390	1.350	91.70	-2.50	1.70	 	 	 	 	 	 	 	 	 	 	 	 	 	 	 	 	 	 	1581530733	9.34	17.30
12/02/2020 18:05:34	120220	12022020	180534	91.80	12.418768	-56.783750	91.85	0.320	0.700	1.050	91.84	-0.40	1.40	 	 	 	 	 	 	 	 	 	 	 	 	 	 	 	 	 	 	1581530734	7.13	13.20
12/02/2020 18:05:35	120220	12022020	180535	91.96	12.418772	-56.783722	91.99	-0.970	2.420	0.730	91.98	1.10	1.10	 	 	 	 	 	 	 	 	 	 	 	 	 	 	 	 	 	 	1581530735	5.88	10.89
12/02/2020 18:05:36	120220	12022020	180536	92.07	12.418773	-56.783690	92.09	-1.520	1.890	0.440	92.08	0.20	0.90	 	 	 	 	 	 	 	 	 	 	 	 	 	 	 	 	 	 	1581530736	6.86	12.70
12/02/2020 18:05:37	120220	12022020	180537	92.07	12.418772	-56.783645	92.07	-0.640	-0.970	0.530	92.05	-2.70	1.00	 	 	 	 	 	 	 	 	 	 	 	 	 	 	 	 	 	 	1581530737	9.56	17.71
12/02/2020 18:05:38	120220	12022020	180538	91.88	12.418768	-56.783590	91.88	0.850	-3.500	0.910	91.85	-5.00	1.40	 	 	 	 	 	 	 	 	 	 	 	 	 	 	 	 	 	 	1581530738	11.33	20.98
12/02/2020 18:05:39	120220	12022020	180539	91.81	12.418767	-56.783545	91.85	1.500	-2.920	1.370	91.82	-4.00	1.80	 	 	 	 	 	 	 	 	 	 	 	 	 	 	 	 	 	 	1581530739	9.70	17.96
12/02/2020 18:05:40	120220	12022020	180540	91.90	12.418763	-56.783515	91.96	0.820	0.040	1.780	91.92	-1.00	2.20	 	 	 	 	 	 	 	 	 	 	 	 	 	 	 	 	 	 	1581530740	6.43	11.91
12/02/2020 18:05:41	120220	12022020	180541	91.96	12.418758	-56.783492	91.99	-0.430	2.520	1.960	91.94	1.30	2.40	 	 	 	 	 	 	 	 	 	 	 	 	 	 	 	 	 	 	1581530741	5.08	9.41
12/02/2020 18:05:42	120220	12022020	180542	91.80	12.418758	-56.783460	91.80	-1.280	2.910	1.690	91.75	1.40	2.10	 	 	 	 	 	 	 	 	 	 	 	 	 	 	 	 	 	 	1581530742	6.41	11.87
12/02/2020 18:05:43	120220	12022020	180543	91.61	12.418760	-56.783422	91.60	-1.410	1.560	1.240	91.59	-0.00	1.60	 	 	 	 	 	 	 	 	 	 	 	 	 	 	 	 	 	 	1581530743	8.16	15.11
12/02/2020 18:05:44	120220	12022020	180544	91.59	12.418762	-56.783378	91.60	-0.710	-0.860	0.820	91.60	-2.50	1.20	 	 	 	 	 	 	 	 	 	 	 	 	 	 	 	 	 	 	1581530744	9.30	17.22
12/02/2020 18:05:45	120220	12022020	180545	91.58	12.418763	-56.783330	91.55	0.520	-3.300	0.670	91.55	-4.90	1.10	 	 	 	 	 	 	 	 	 	 	 	 	 	 	 	 	 	 	1581530745	10.12	18.74
12/02/2020 18:05:46	120220	12022020	180546	91.35	12.418762	-56.783283	91.28	1.540	-3.990	1.020	91.35	-5.40	1.30	 	 	 	 	 	 	 	 	 	 	 	 	 	 	 	 	 	 	1581530746	9.93	18.39
12/02/2020 18:05:47	120220	12022020	180547	91.04	12.418758	-56.783247	91.02	1.460	-1.810	1.710	91.00	-2.70	2.20	 	 	 	 	 	 	 	 	 	 	 	 	 	 	 	 	 	 	1581530747	7.86	14.56
12/02/2020 18:05:48	120220	12022020	180548	90.98	12.418755	-56.783222	91.04	0.260	1.670	2.120	91.01	0.70	2.50	 	 	 	 	 	 	 	 	 	 	 	 	 	 	 	 	 	 	1581530748	5.38	9.96
12/02/2020 18:05:49	120220	12022020	180549	91.31	12.418753	-56.783198	91.42	-1.190	3.740	1.710	91.41	2.40	2.00	 	 	 	 	 	 	 	 	 	 	 	 	 	 	 	 	 	 	1581530749	4.84	8.96
12/02/2020 18:05:50	120220	12022020	180550	91.79	12.418755	-56.783165	91.86	-1.620	2.690	0.980	91.86	1.00	1.30	 	 	 	 	 	 	 	 	 	 	 	 	 	 	 	 	 	 	1581530750	6.93	12.83
12/02/2020 18:05:51	120220	12022020	180551	91.99	12.418757	-56.783118	91.99	-0.700	-0.390	0.620	91.99	-2.10	1.00	 	 	 	 	 	 	 	 	 	 	 	 	 	 	 	 	 	 	1581530751	9.84	18.22
12/02/2020 18:05:52	120220	12022020	180552	91.98	12.418757	-56.783068	91.96	0.600	-2.710	0.600	91.96	-4.20	1.00	 	 	 	 	 	 	 	 	 	 	 	 	 	 	 	 	 	 	1581530752	10.62	19.67
12/02/2020 18:05:53	120220	12022020	180553	91.87	12.418758	-56.783027	91.85	1.230	-2.700	0.670	91.85	-3.90	1.10	 	 	 	 	 	 	 	 	 	 	 	 	 	 	 	 	 	 	1581530753	8.88	16.45
12/02/2020 18:05:54	120220	12022020	180554	91.75	12.418758	-56.782995	91.73	0.990	-1.110	0.760	91.74	-2.30	1.20	 	 	 	 	 	 	 	 	 	 	 	 	 	 	 	 	 	 	1581530754	6.79	12.58
12/02/2020 18:05:55	120220	12022020	180555	91.76	12.418760	-56.782965	91.81	0.330	0.420	0.810	91.80	-0.80	1.30	 	 	 	 	 	 	 	 	 	 	 	 	 	 	 	 	 	 	1581530755	6.21	11.50
12/02/2020 18:05:56	120220	12022020	180556	91.96	12.418760	-56.782932	92.03	-0.360	1.070	0.860	92.01	-0.30	1.30	 	 	 	 	 	 	 	 	 	 	 	 	 	 	 	 	 	 	1581530756	6.94	12.85
12/02/2020 18:05:57	120220	12022020	180557	92.15	12.418757	-56.782897	92.20	-0.860	1.020	0.940	92.17	-0.40	1.40	 	 	 	 	 	 	 	 	 	 	 	 	 	 	 	 	 	 	1581530757	7.66	14.19
12/02/2020 18:05:58	120220	12022020	180558	92.15	12.418752	-56.782858	92.16	-0.920	0.470	1.090	92.15	-0.70	1.50	 	 	 	 	 	 	 	 	 	 	 	 	 	 	 	 	 	 	1581530758	8.02	14.85
12/02/2020 18:05:59	120220	12022020	180559	91.90	12.418748	-56.782818	91.86	-0.340	-0.570	1.370	91.81	-2.10	1.80	 	 	 	 	 	 	 	 	 	 	 	 	 	 	 	 	 	 	1581530759	8.44	15.63
12/02/2020 18:06:00	120220	12022020	180600	91.51	12.418745	-56.782777	91.50	0.450	-1.520	1.420	91.51	-2.70	1.90	 	 	 	 	 	 	 	 	 	 	 	 	 	 	 	 	 	 	1581530760	9.02	16.71
12/02/2020 18:06:01	120220	12022020	180601	91.33	12.418747	-56.782737	91.34	0.780	-1.410	1.030	91.32	-2.70	1.40	 	 	 	 	 	 	 	 	 	 	 	 	 	 	 	 	 	 	1581530761	8.54	15.82
12/02/2020 18:06:02	120220	12022020	180602	91.31	12.418750	-56.782702	91.33	0.610	-0.480	0.830	91.32	-1.60	1.20	1015.00	26.50	26.50	19.90	20.00	833.0	67.0	67.0	400.0	28.4	344.00	16.40	70.00	12.40	58823	20000.0	27.4	27.4	1581530762	7.41	13.72
12/02/2020 18:06:03	120220	12022020	180603	91.36	12.418752	-56.782668	91.38	0.220	0.370	0.810	91.37	-1.00	1.20	 	 	 	 	 	 	 	 	 	 	 	 	 	 	 	 	 	 	1581530763	6.97	12.91
12/02/2020 18:06:04	120220	12022020	180604	91.38	12.418752	-56.782632	91.39	0.050	0.200	0.920	91.37	-1.20	1.40	 	 	 	 	 	 	 	 	 	 	 	 	 	 	 	 	 	 	1581530764	7.86	14.56
12/02/2020 18:06:05	120220	12022020	180605	91.29	12.418750	-56.782590	91.29	-0.010	-0.100	1.390	91.25	-1.50	1.90	 	 	 	 	 	 	 	 	 	 	 	 	 	 	 	 	 	 	1581530765	8.58	15.89
12/02/2020 18:06:06	120220	12022020	180606	91.09	12.418747	-56.782552	91.08	-0.160	0.200	1.750	91.04	-1.10	2.20	 	 	 	 	 	 	 	 	 	 	 	 	 	 	 	 	 	 	1581530766	8.12	15.04
12/02/2020 18:06:07	120220	12022020	180607	90.88	12.418745	-56.782518	90.89	-0.360	0.580	1.760	90.85	-0.80	2.20	 	 	 	 	 	 	 	 	 	 	 	 	 	 	 	 	 	 	1581530767	7.31	13.54
12/02/2020 18:06:08	120220	12022020	180608	90.71	12.418745	-56.782482	90.73	-0.270	-0.110	1.740	90.71	-1.20	2.20	 	 	 	 	 	 	 	 	 	 	 	 	 	 	 	 	 	 	1581530768	7.74	14.33
12/02/2020 18:06:09	120220	12022020	180609	90.58	12.418745	-56.782437	90.61	0.240	-1.570	1.750	90.57	-3.00	2.20	 	 	 	 	 	 	 	 	 	 	 	 	 	 	 	 	 	 	1581530769	9.26	17.15
12/02/2020 18:06:10	120220	12022020	180610	90.49	12.418743	-56.782393	90.50	0.670	-1.860	1.660	90.49	-3.30	2.10	 	 	 	 	 	 	 	 	 	 	 	 	 	 	 	 	 	 	1581530770	9.39	17.39
12/02/2020 18:06:11	120220	12022020	180611	90.29	12.418743	-56.782357	90.27	0.630	-0.600	1.590	90.24	-1.80	2.00	 	 	 	 	 	 	 	 	 	 	 	 	 	 	 	 	 	 	1581530771	7.75	14.35
12/02/2020 18:06:12	120220	12022020	180612	90.04	12.418743	-56.782325	90.05	0.230	0.770	1.600	90.04	-0.90	2.00	 	 	 	 	 	 	 	 	 	 	 	 	 	 	 	 	 	 	1581530772	6.70	12.41
12/02/2020 18:06:13	120220	12022020	180613	90.02	12.418745	-56.782290	90.07	-0.180	1.180	1.320	90.04	-0.20	1.70	 	 	 	 	 	 	 	 	 	 	 	 	 	 	 	 	 	 	1581530773	7.22	13.37
12/02/2020 18:06:14	120220	12022020	180614	90.29	12.418750	-56.782252	90.37	-0.540	0.830	0.700	90.37	-0.60	1.10	 	 	 	 	 	 	 	 	 	 	 	 	 	 	 	 	 	 	1581530774	8.15	15.09
12/02/2020 18:06:15	120220	12022020	180615	90.74	12.418755	-56.782213	90.82	-0.760	0.180	0.400	90.81	-1.30	0.90	 	 	 	 	 	 	 	 	 	 	 	 	 	 	 	 	 	 	1581530775	8.35	15.46
12/02/2020 18:06:16	120220	12022020	180616	90.95	12.418753	-56.782173	90.95	-0.570	-0.760	0.770	90.94	-2.30	1.30	 	 	 	 	 	 	 	 	 	 	 	 	 	 	 	 	 	 	1581530776	8.36	15.48
12/02/2020 18:06:17	120220	12022020	180617	90.69	12.418750	-56.782132	90.61	0.240	-1.960	1.400	90.58	-3.50	1.90	 	 	 	 	 	 	 	 	 	 	 	 	 	 	 	 	 	 	1581530777	8.94	16.56
12/02/2020 18:06:18	120220	12022020	180618	90.16	12.418747	-56.782087	90.11	1.190	-2.420	2.050	90.08	-3.70	2.50	 	 	 	 	 	 	 	 	 	 	 	 	 	 	 	 	 	 	1581530778	9.45	17.50
12/02/2020 18:06:19	120220	12022020	180619	89.93	12.418745	-56.782047	89.93	1.350	-1.190	2.060	89.94	-2.30	2.40	 	 	 	 	 	 	 	 	 	 	 	 	 	 	 	 	 	 	1581530779	8.38	15.52
12/02/2020 18:06:20	120220	12022020	180620	90.12	12.418748	-56.782015	90.16	0.520	0.850	1.260	90.18	-0.30	1.60	 	 	 	 	 	 	 	 	 	 	 	 	 	 	 	 	 	 	1581530780	6.84	12.67
12/02/2020 18:06:21	120220	12022020	180621	90.43	12.418755	-56.781983	90.46	-0.580	1.950	0.520	90.48	0.60	0.90	 	 	 	 	 	 	 	 	 	 	 	 	 	 	 	 	 	 	1581530781	6.76	12.52
12/02/2020 18:06:22	120220	12022020	180622	90.69	12.418758	-56.781947	90.73	-1.210	1.490	0.320	90.75	-0.00	0.70	 	 	 	 	 	 	 	 	 	 	 	 	 	 	 	 	 	 	1581530782	7.96	14.74
12/02/2020 18:06:23	120220	12022020	180623	91.00	12.418760	-56.781903	91.01	-1.320	0.590	0.310	91.06	-1.00	0.80	 	 	 	 	 	 	 	 	 	 	 	 	 	 	 	 	 	 	1581530783	8.90	16.48
12/02/2020 18:06:24	120220	12022020	180624	91.23	12.418758	-56.781863	91.25	-1.010	-0.240	0.540	91.26	-1.70	1.00	 	 	 	 	 	 	 	 	 	 	 	 	 	 	 	 	 	 	1581530784	8.57	15.87
12/02/2020 18:06:25	120220	12022020	180625	91.34	12.418755	-56.781823	91.35	-0.310	-1.070	0.720	91.35	-2.60	1.10	 	 	 	 	 	 	 	 	 	 	 	 	 	 	 	 	 	 	1581530785	8.29	15.35
12/02/2020 18:06:26	120220	12022020	180626	91.25	12.418752	-56.781782	91.19	0.700	-2.160	0.880	91.19	-3.60	1.30	 	 	 	 	 	 	 	 	 	 	 	 	 	 	 	 	 	 	1581530786	8.92	16.52
12/02/2020 18:06:27	120220	12022020	180627	90.72	12.418750	-56.781738	90.60	1.510	-2.470	0.980	90.58	-3.70	1.40	 	 	 	 	 	 	 	 	 	 	 	 	 	 	 	 	 	 	1581530787	9.35	17.32
12/02/2020 18:06:28	120220	12022020	180628	90.05	12.418755	-56.781698	89.94	1.550	-1.180	0.610	89.94	-2.30	1.00	 	 	 	 	 	 	 	 	 	 	 	 	 	 	 	 	 	 	1581530788	8.43	15.61
12/02/2020 18:06:29	120220	12022020	180629	89.76	12.418762	-56.781665	89.75	0.730	0.840	0.190	89.79	-0.30	0.60	 	 	 	 	 	 	 	 	 	 	 	 	 	 	 	 	 	 	1581530789	7.15	13.24
12/02/2020 18:06:30	120220	12022020	180630	90.09	12.418765	-56.781633	90.15	-0.460	2.030	0.120	90.18	0.70	0.60	 	 	 	 	 	 	 	 	 	 	 	 	 	 	 	 	 	 	1581530790	6.86	12.70
12/02/2020 18:06:31	120220	12022020	180631	90.49	12.418765	-56.781597	90.53	-1.330	1.880	0.320	90.53	0.40	0.80	 	 	 	 	 	 	 	 	 	 	 	 	 	 	 	 	 	 	1581530791	7.73	14.32
12/02/2020 18:06:32	120220	12022020	180632	90.54	12.418763	-56.781557	90.54	-1.530	0.910	0.840	90.49	-0.60	1.30	 	 	 	 	 	 	 	 	 	 	 	 	 	 	 	 	 	 	1581530792	8.56	15.85
12/02/2020 18:06:33	120220	12022020	180633	90.28	12.418760	-56.781513	90.28	-1.040	-0.580	1.570	90.23	-2.10	2.00	 	 	 	 	 	 	 	 	 	 	 	 	 	 	 	 	 	 	1581530793	9.02	16.71
12/02/2020 18:06:34	120220	12022020	180634	90.16	12.418755	-56.781468	90.20	-0.080	-2.150	1.910	90.16	-3.20	2.30	 	 	 	 	 	 	 	 	 	 	 	 	 	 	 	 	 	 	1581530794	9.49	17.58
12/02/2020 18:06:35	120220	12022020	180635	90.07	12.418753	-56.781423	90.06	0.930	-2.990	2.030	90.02	-4.30	2.40	 	 	 	 	 	 	 	 	 	 	 	 	 	 	 	 	 	 	1581530795	9.59	17.76
12/02/2020 18:06:36	120220	12022020	180636	89.76	12.418753	-56.781382	89.71	1.440	-2.260	1.770	89.76	-3.90	2.30	 	 	 	 	 	 	 	 	 	 	 	 	 	 	 	 	 	 	1581530796	8.93	16.54
12/02/2020 18:06:37	120220	12022020	180637	89.53	12.418758	-56.781345	89.53	1.100	-0.120	1.300	89.53	-1.20	1.70	 	 	 	 	 	 	 	 	 	 	 	 	 	 	 	 	 	 	1581530797	7.58	14.04
12/02/2020 18:06:38	120220	12022020	180638	89.62	12.418762	-56.781315	89.66	0.140	2.090	0.960	89.62	0.30	1.50	 	 	 	 	 	 	 	 	 	 	 	 	 	 	 	 	 	 	1581530798	6.47	11.98
12/02/2020 18:06:39	120220	12022020	180639	90.00	12.418767	-56.781283	90.07	-0.840	2.760	0.460	90.09	1.30	0.80	 	 	 	 	 	 	 	 	 	 	 	 	 	 	 	 	 	 	1581530799	6.82	12.63
12/02/2020 18:06:40	120220	12022020	180640	90.47	12.418773	-56.781243	90.50	-1.270	1.590	0.030	90.53	0.00	0.40	 	 	 	 	 	 	 	 	 	 	 	 	 	 	 	 	 	 	1581530800	8.39	15.54
12/02/2020 18:06:41	120220	12022020	180641	90.65	12.418775	-56.781200	90.65	-1.050	-0.260	0.310	90.66	-1.80	0.80	 	 	 	 	 	 	 	 	 	 	 	 	 	 	 	 	 	 	1581530801	9.41	17.43
12/02/2020 18:06:42	120220	12022020	180642	90.62	12.418772	-56.781155	90.60	-0.320	-1.980	0.810	90.60	-3.50	1.30	 	 	 	 	 	 	 	 	 	 	 	 	 	 	 	 	 	 	1581530802	9.52	17.63
12/02/2020 18:06:43	120220	12022020	180643	90.56	12.418770	-56.781110	90.54	0.640	-3.030	1.030	90.53	-4.40	1.50	 	 	 	 	 	 	 	 	 	 	 	 	 	 	 	 	 	 	1581530803	9.46	17.52
12/02/2020 18:06:44	120220	12022020	180644	90.45	12.418772	-56.781067	90.44	1.240	-2.760	1.110	90.45	-3.80	1.50	 	 	 	 	 	 	 	 	 	 	 	 	 	 	 	 	 	 	1581530804	9.01	16.69
12/02/2020 18:06:45	120220	12022020	180645	90.51	12.418772	-56.781032	90.55	1.120	-0.750	1.000	90.56	-1.90	1.40	 	 	 	 	 	 	 	 	 	 	 	 	 	 	 	 	 	 	1581530805	7.70	14.26
12/02/2020 18:06:46	120220	12022020	180646	90.80	12.418775	-56.781000	90.86	0.380	1.370	0.640	90.87	0.20	1.00	 	 	 	 	 	 	 	 	 	 	 	 	 	 	 	 	 	 	1581530806	6.69	12.39
12/02/2020 18:06:47	120220	12022020	180647	91.12	12.418778	-56.780967	91.16	-0.440	2.320	0.210	91.18	0.90	0.60	 	 	 	 	 	 	 	 	 	 	 	 	 	 	 	 	 	 	1581530807	7.04	13.04
12/02/2020 18:06:48	120220	12022020	180648	91.32	12.418783	-56.780928	91.33	-1.000	1.730	0.050	91.32	0.60	0.50	 	 	 	 	 	 	 	 	 	 	 	 	 	 	 	 	 	 	1581530808	8.24	15.26
12/02/2020 18:06:49	120220	12022020	180649	91.46	12.418783	-56.780883	91.46	-1.190	0.270	0.220	91.48	-1.30	0.70	 	 	 	 	 	 	 	 	 	 	 	 	 	 	 	 	 	 	1581530809	9.21	17.06
12/02/2020 18:06:50	120220	12022020	180650	91.53	12.418782	-56.780840	91.53	-0.910	-1.060	0.440	91.54	-2.50	0.90	 	 	 	 	 	 	 	 	 	 	 	 	 	 	 	 	 	 	1581530810	9.39	17.39
12/02/2020 18:06:51	120220	12022020	180651	91.57	12.418778	-56.780797	91.56	-0.180	-1.850	0.550	91.57	-3.30	1.00	 	 	 	 	 	 	 	 	 	 	 	 	 	 	 	 	 	 	1581530811	8.99	16.65
12/02/2020 18:06:52	120220	12022020	180652	91.44	12.418777	-56.780755	91.38	0.750	-2.070	0.720	91.38	-3.40	1.20	 	 	 	 	 	 	 	 	 	 	 	 	 	 	 	 	 	 	1581530812	8.78	16.26
12/02/2020 18:06:53	120220	12022020	180653	91.15	12.418778	-56.780715	91.09	1.370	-1.480	0.740	91.10	-2.70	1.10	 	 	 	 	 	 	 	 	 	 	 	 	 	 	 	 	 	 	1581530813	8.57	15.87
12/02/2020 18:06:54	120220	12022020	180654	91.05	12.418782	-56.780678	91.05	1.220	-0.130	0.440	91.08	-1.30	0.80	 	 	 	 	 	 	 	 	 	 	 	 	 	 	 	 	 	 	1581530814	7.94	14.70
12/02/2020 18:06:55	120220	12022020	180655	91.26	12.418787	-56.780643	91.28	0.380	1.010	0.240	91.31	-0.30	0.70	 	 	 	 	 	 	 	 	 	 	 	 	 	 	 	 	 	 	1581530815	7.51	13.91
12/02/2020 18:06:56	120220	12022020	180656	91.52	12.418787	-56.780605	91.54	-0.630	1.260	0.490	91.57	-0.10	1.00	 	 	 	 	 	 	 	 	 	 	 	 	 	 	 	 	 	 	1581530816	7.97	14.76
12/02/2020 18:06:57	120220	12022020	180657	91.69	12.418783	-56.780565	91.69	-1.270	0.990	1.000	91.69	-0.40	1.50	 	 	 	 	 	 	 	 	 	 	 	 	 	 	 	 	 	 	1581530817	8.51	15.76
12/02/2020 18:06:58	120220	12022020	180658	91.55	12.418778	-56.780525	91.51	-1.210	0.370	1.450	91.49	-1.10	1.90	 	 	 	 	 	 	 	 	 	 	 	 	 	 	 	 	 	 	1581530818	8.56	15.85
12/02/2020 18:06:59	120220	12022020	180659	91.27	12.418777	-56.780482	91.27	-0.510	-0.700	1.550	91.23	-2.30	1.90	 	 	 	 	 	 	 	 	 	 	 	 	 	 	 	 	 	 	1581530819	8.96	16.59
12/02/2020 18:07:00	120220	12022020	180700	91.14	12.418777	-56.780437	91.14	0.770	-2.190	1.330	91.14	-3.30	1.80	 	 	 	 	 	 	 	 	 	 	 	 	 	 	 	 	 	 	1581530820	9.76	18.08
12/02/2020 18:07:01	120220	12022020	180701	91.17	12.418780	-56.780390	91.18	1.490	-2.530	0.980	91.20	-3.70	1.30	 	 	 	 	 	 	 	 	 	 	 	 	 	 	 	 	 	 	1581530821	9.85	18.24
12/02/2020 18:07:02	120220	12022020	180702	91.36	12.418783	-56.780350	91.38	1.330	-1.130	0.800	91.41	-2.00	1.20	1015.20	26.50	26.60	20.10	20.10	873.0	67.0	67.0	407.0	28.4	347.00	15.40	73.00	11.30	60709	20000.0	27.4	27.4	1581530822	8.51	15.76
12/02/2020 18:07:03	120220	12022020	180703	91.66	12.418785	-56.780318	91.69	0.200	1.260	0.870	91.71	0.40	1.30	 	 	 	 	 	 	 	 	 	 	 	 	 	 	 	 	 	 	1581530823	6.65	12.32
12/02/2020 18:07:04	120220	12022020	180704	91.89	12.418785	-56.780288	91.90	-1.130	2.650	0.970	91.91	1.30	1.40	 	 	 	 	 	 	 	 	 	 	 	 	 	 	 	 	 	 	1581530824	6.32	11.70
12/02/2020 18:07:05	120220	12022020	180705	91.84	12.418783	-56.780250	91.83	-1.290	1.590	1.080	91.81	-0.30	1.50	 	 	 	 	 	 	 	 	 	 	 	 	 	 	 	 	 	 	1581530825	8.14	15.08
12/02/2020 18:07:06	120220	12022020	180706	91.73	12.418783	-56.780200	91.74	-0.450	-0.970	1.150	91.75	-2.50	1.60	 	 	 	 	 	 	 	 	 	 	 	 	 	 	 	 	 	 	1581530826	10.35	19.17
12/02/2020 18:07:07	120220	12022020	180707	91.93	12.418783	-56.780152	91.96	0.250	-2.200	0.930	92.01	-3.60	1.30	 	 	 	 	 	 	 	 	 	 	 	 	 	 	 	 	 	 	1581530827	10.34	19.15
12/02/2020 18:07:08	120220	12022020	180708	92.30	12.418785	-56.780110	92.31	0.450	-1.870	0.740	92.36	-3.00	1.20	 	 	 	 	 	 	 	 	 	 	 	 	 	 	 	 	 	 	1581530828	8.70	16.11
12/02/2020 18:07:09	120220	12022020	180709	92.55	12.418783	-56.780077	92.56	0.210	-0.440	0.880	92.58	-1.50	1.30	 	 	 	 	 	 	 	 	 	 	 	 	 	 	 	 	 	 	1581530829	7.17	13.28
12/02/2020 18:07:10	120220	12022020	180710	92.58	12.418782	-56.780043	92.55	0.040	0.580	1.020	92.54	-0.80	1.50	 	 	 	 	 	 	 	 	 	 	 	 	 	 	 	 	 	 	1581530830	7.01	12.98
12/02/2020 18:07:11	120220	12022020	180711	92.29	12.418782	-56.780003	92.26	0.230	0.210	1.040	92.23	-1.40	1.40	 	 	 	 	 	 	 	 	 	 	 	 	 	 	 	 	 	 	1581530831	8.41	15.58
12/02/2020 18:07:12	120220	12022020	180712	92.13	12.418783	-56.779957	92.14	0.490	-0.700	0.810	92.16	-2.20	1.20	 	 	 	 	 	 	 	 	 	 	 	 	 	 	 	 	 	 	1581530832	9.80	18.15
12/02/2020 18:07:13	120220	12022020	180713	92.43	12.418787	-56.779913	92.46	0.310	-0.620	0.470	92.53	-1.80	0.90	 	 	 	 	 	 	 	 	 	 	 	 	 	 	 	 	 	 	1581530833	9.27	17.17
12/02/2020 18:07:14	120220	12022020	180714	92.91	12.418787	-56.779877	92.92	-0.300	0.360	0.400	92.91	-1.20	0.80	 	 	 	 	 	 	 	 	 	 	 	 	 	 	 	 	 	 	1581530834	7.77	14.39
12/02/2020 18:07:15	120220	12022020	180715	93.13	12.418785	-56.779843	93.13	-0.800	1.120	0.680	93.14	-0.20	1.20	 	 	 	 	 	 	 	 	 	 	 	 	 	 	 	 	 	 	1581530835	7.23	13.39
12/02/2020 18:07:16	120220	12022020	180716	93.16	12.418782	-56.779805	93.17	-0.760	0.870	0.990	93.16	-0.70	1.40	 	 	 	 	 	 	 	 	 	 	 	 	 	 	 	 	 	 	1581530836	7.90	14.63
12/02/2020 18:07:17	120220	12022020	180717	93.25	12.418778	-56.779763	93.26	-0.130	-0.510	0.970	93.27	-2.30	1.30	 	 	 	 	 	 	 	 	 	 	 	 	 	 	 	 	 	 	1581530837	9.09	16.83
12/02/2020 18:07:18	120220	12022020	180718	93.27	12.418778	-56.779715	93.27	0.780	-2.100	0.820	93.23	-3.60	1.30	 	 	 	 	 	 	 	 	 	 	 	 	 	 	 	 	 	 	1581530838	10.10	18.71
12/02/2020 18:07:19	120220	12022020	180719	93.03	12.418778	-56.779668	93.02	1.210	-2.290	0.940	92.97	-3.40	1.40	 	 	 	 	 	 	 	 	 	 	 	 	 	 	 	 	 	 	1581530839	9.70	17.96
12/02/2020 18:07:20	120220	12022020	180720	92.78	12.418777	-56.779632	92.78	0.740	-0.790	1.200	92.74	-1.70	1.70	 	 	 	 	 	 	 	 	 	 	 	 	 	 	 	 	 	 	1581530840	7.93	14.69
12/02/2020 18:07:21	120220	12022020	180721	92.65	12.418775	-56.779600	92.66	-0.240	1.130	1.310	92.64	0.10	1.70	 	 	 	 	 	 	 	 	 	 	 	 	 	 	 	 	 	 	1581530841	6.72	12.45
12/02/2020 18:07:22	120220	12022020	180722	92.74	12.418773	-56.779567	92.75	-1.040	2.080	1.040	92.78	0.70	1.40	 	 	 	 	 	 	 	 	 	 	 	 	 	 	 	 	 	 	1581530842	6.95	12.87
12/02/2020 18:07:23	120220	12022020	180723	92.93	12.418773	-56.779528	92.94	-1.120	1.320	0.620	92.96	-0.40	1.00	 	 	 	 	 	 	 	 	 	 	 	 	 	 	 	 	 	 	1581530843	8.25	15.28
12/02/2020 18:07:24	120220	12022020	180724	92.94	12.418773	-56.779480	92.92	-0.380	-0.780	0.370	92.93	-2.60	0.80	 	 	 	 	 	 	 	 	 	 	 	 	 	 	 	 	 	 	1581530844	9.97	18.46
12/02/2020 18:07:25	120220	12022020	180725	92.81	12.418773	-56.779432	92.79	0.480	-2.170	0.570	92.76	-3.50	1.10	 	 	 	 	 	 	 	 	 	 	 	 	 	 	 	 	 	 	1581530845	10.43	19.32
12/02/2020 18:07:26	120220	12022020	180726	92.54	12.418770	-56.779390	92.53	0.670	-1.620	1.200	92.54	-3.10	1.50	 	 	 	 	 	 	 	 	 	 	 	 	 	 	 	 	 	 	1581530846	8.74	16.19
12/02/2020 18:07:27	120220	12022020	180727	92.38	12.418767	-56.779357	92.39	0.230	-0.230	1.480	92.38	-1.40	1.90	 	 	 	 	 	 	 	 	 	 	 	 	 	 	 	 	 	 	1581530847	7.21	13.35
12/02/2020 18:07:28	120220	12022020	180728	92.45	12.418765	-56.779322	92.46	-0.030	0.360	1.200	92.47	-1.00	1.60	 	 	 	 	 	 	 	 	 	 	 	 	 	 	 	 	 	 	1581530848	7.47	13.83
12/02/2020 18:07:29	120220	12022020	180729	92.42	12.418763	-56.779278	92.38	0.340	-0.080	1.140	92.36	-1.50	1.60	 	 	 	 	 	 	 	 	 	 	 	 	 	 	 	 	 	 	1581530849	8.95	16.58
12/02/2020 18:07:30	120220	12022020	180730	92.10	12.418763	-56.779233	92.06	0.630	-0.220	1.050	92.04	-1.50	1.40	 	 	 	 	 	 	 	 	 	 	 	 	 	 	 	 	 	 	1581530850	9.36	17.33
12/02/2020 18:07:31	120220	12022020	180731	91.86	12.418767	-56.779195	91.83	0.270	0.390	0.770	91.84	-0.80	1.20	 	 	 	 	 	 	 	 	 	 	 	 	 	 	 	 	 	 	1581530851	8.33	15.43
12/02/2020 18:07:32	120220	12022020	180732	91.79	12.418768	-56.779160	91.78	-0.470	0.930	0.810	91.80	-0.50	1.30	 	 	 	 	 	 	 	 	 	 	 	 	 	 	 	 	 	 	1581530852	7.53	13.95
12/02/2020 18:07:33	120220	12022020	180733	91.95	12.418768	-56.779120	91.97	-0.850	0.260	0.850	92.01	-1.40	1.30	 	 	 	 	 	 	 	 	 	 	 	 	 	 	 	 	 	 	1581530853	8.22	15.22
12/02/2020 18:07:34	120220	12022020	180734	92.16	12.418767	-56.779075	92.17	-0.580	-1.220	0.990	92.18	-2.80	1.50	 	 	 	 	 	 	 	 	 	 	 	 	 	 	 	 	 	 	1581530854	9.67	17.91
12/02/2020 18:07:35	120220	12022020	180735	92.15	12.418760	-56.779030	92.15	-0.040	-1.720	1.390	92.14	-3.00	1.90	 	 	 	 	 	 	 	 	 	 	 	 	 	 	 	 	 	 	1581530855	9.70	17.96
12/02/2020 18:07:36	120220	12022020	180736	92.10	12.418757	-56.778992	92.11	0.310	-0.800	1.650	92.10	-1.90	2.10	 	 	 	 	 	 	 	 	 	 	 	 	 	 	 	 	 	 	1581530856	8.10	15.00
12/02/2020 18:07:37	120220	12022020	180737	92.05	12.418755	-56.778957	92.05	0.400	0.110	1.430	92.03	-1.20	1.80	 	 	 	 	 	 	 	 	 	 	 	 	 	 	 	 	 	 	1581530857	7.35	13.61
12/02/2020 18:07:38	120220	12022020	180738	91.85	12.418758	-56.778917	91.81	0.440	0.020	1.020	91.85	-1.30	1.50	 	 	 	 	 	 	 	 	 	 	 	 	 	 	 	 	 	 	1581530858	8.34	15.45
12/02/2020 18:07:39	120220	12022020	180739	91.52	12.418763	-56.778872	91.49	0.460	-0.520	0.770	91.48	-1.90	1.20	 	 	 	 	 	 	 	 	 	 	 	 	 	 	 	 	 	 	1581530859	9.49	17.58
12/02/2020 18:07:40	120220	12022020	180740	91.49	12.418765	-56.778830	91.52	0.180	-0.280	0.590	91.49	-1.70	1.00	 	 	 	 	 	 	 	 	 	 	 	 	 	 	 	 	 	 	1581530860	9.13	16.91
12/02/2020 18:07:41	120220	12022020	180741	91.82	12.418767	-56.778792	91.84	-0.410	0.650	0.480	91.90	-0.60	0.90	 	 	 	 	 	 	 	 	 	 	 	 	 	 	 	 	 	 	1581530861	7.80	14.45
12/02/2020 18:07:42	120220	12022020	180742	92.15	12.418767	-56.778757	92.15	-0.790	0.860	0.540	92.20	-0.70	1.00	 	 	 	 	 	 	 	 	 	 	 	 	 	 	 	 	 	 	1581530862	7.62	14.11
12/02/2020 18:07:43	120220	12022020	180743	92.37	12.418763	-56.778713	92.36	-0.410	-0.260	0.850	92.40	-1.90	1.40	 	 	 	 	 	 	 	 	 	 	 	 	 	 	 	 	 	 	1581530863	9.02	16.71
12/02/2020 18:07:44	120220	12022020	180744	92.43	12.418760	-56.778667	92.41	0.350	-1.390	1.360	92.41	-2.90	1.80	 	 	 	 	 	 	 	 	 	 	 	 	 	 	 	 	 	 	1581530864	9.98	18.48
12/02/2020 18:07:45	120220	12022020	180745	92.22	12.418757	-56.778623	92.19	0.740	-1.390	1.560	92.15	-2.60	2.00	 	 	 	 	 	 	 	 	 	 	 	 	 	 	 	 	 	 	1581530865	9.27	17.17
12/02/2020 18:07:46	120220	12022020	180746	91.91	12.418757	-56.778585	91.89	0.400	-0.330	1.570	91.87	-1.40	2.00	 	 	 	 	 	 	 	 	 	 	 	 	 	 	 	 	 	 	1581530866	8.00	14.82
12/02/2020 18:07:47	120220	12022020	180747	91.87	12.418757	-56.778550	91.89	-0.380	0.820	1.370	91.91	-0.40	1.70	 	 	 	 	 	 	 	 	 	 	 	 	 	 	 	 	 	 	1581530867	7.26	13.45
12/02/2020 18:07:48	120220	12022020	180748	92.14	12.418758	-56.778513	92.16	-0.870	0.920	0.840	92.21	-0.60	1.10	 	 	 	 	 	 	 	 	 	 	 	 	 	 	 	 	 	 	1581530868	7.74	14.33
12/02/2020 18:07:49	120220	12022020	180749	92.36	12.418760	-56.778470	92.34	-0.510	-0.270	0.400	92.35	-2.00	0.80	 	 	 	 	 	 	 	 	 	 	 	 	 	 	 	 	 	 	1581530869	9.17	16.98
12/02/2020 18:07:50	120220	12022020	180750	92.14	12.418760	-56.778422	92.10	0.420	-1.590	0.520	92.08	-3.10	1.00	 	 	 	 	 	 	 	 	 	 	 	 	 	 	 	 	 	 	1581530870	10.24	18.96
12/02/2020 18:07:51	120220	12022020	180751	91.97	12.418758	-56.778377	91.99	0.830	-1.440	0.920	91.98	-2.50	1.40	 	 	 	 	 	 	 	 	 	 	 	 	 	 	 	 	 	 	1581530871	9.53	17.65
12/02/2020 18:07:52	120220	12022020	180752	92.15	12.418755	-56.778342	92.21	0.200	0.100	1.410	92.15	-1.50	1.80	 	 	 	 	 	 	 	 	 	 	 	 	 	 	 	 	 	 	1581530872	7.58	14.04
12/02/2020 18:07:53	120220	12022020	180753	92.49	12.418752	-56.778310	92.54	-0.810	1.490	1.650	92.52	0.20	2.10	 	 	 	 	 	 	 	 	 	 	 	 	 	 	 	 	 	 	1581530873	6.63	12.28
12/02/2020 18:07:54	120220	12022020	180754	92.47	12.418750	-56.778275	92.48	-1.050	1.210	1.520	92.43	-0.50	1.90	 	 	 	 	 	 	 	 	 	 	 	 	 	 	 	 	 	 	1581530874	7.60	14.08
12/02/2020 18:07:55	120220	12022020	180755	92.19	12.418748	-56.778228	92.19	-0.100	-0.780	1.310	92.13	-2.60	1.70	 	 	 	 	 	 	 	 	 	 	 	 	 	 	 	 	 	 	1581530875	9.78	18.11
12/02/2020 18:07:56	120220	12022020	180756	92.07	12.418748	-56.778177	92.09	1.120	-2.490	1.250	92.09	-4.00	1.60	 	 	 	 	 	 	 	 	 	 	 	 	 	 	 	 	 	 	1581530876	10.87	20.13
12/02/2020 18:07:57	120220	12022020	180757	92.30	12.418750	-56.778132	92.32	1.390	-2.040	0.920	92.35	-3.00	1.20	 	 	 	 	 	 	 	 	 	 	 	 	 	 	 	 	 	 	1581530877	9.49	17.58
12/02/2020 18:07:58	120220	12022020	180758	92.48	12.418752	-56.778100	92.47	0.440	0.390	0.620	92.48	-0.40	1.10	 	 	 	 	 	 	 	 	 	 	 	 	 	 	 	 	 	 	1581530878	6.90	12.78
12/02/2020 18:07:59	120220	12022020	180759	92.31	12.418750	-56.778073	92.29	-0.970	2.630	0.910	92.26	1.50	1.40	 	 	 	 	 	 	 	 	 	 	 	 	 	 	 	 	 	 	1581530879	5.58	10.33
12/02/2020 18:08:00	120220	12022020	180800	92.12	12.418748	-56.778042	92.12	-1.800	2.670	1.170	92.12	1.00	1.60	 	 	 	 	 	 	 	 	 	 	 	 	 	 	 	 	 	 	1581530880	6.75	12.50
12/02/2020 18:08:01	120220	12022020	180801	92.21	12.418745	-56.777998	92.23	-1.410	0.380	0.980	92.22	-1.60	1.40	 	 	 	 	 	 	 	 	 	 	 	 	 	 	 	 	 	 	1581530881	9.11	16.87
12/02/2020 18:08:02	120220	12022020	180802	92.07	12.418743	-56.777947	92.03	0.050	-2.650	0.900	91.96	-4.50	1.40	1014.90	26.50	26.50	20.00	20.10	968.0	67.0	67.0	416.0	28.5	344.00	15.50	71.00	11.40	64989	12346.0	27.4	27.4	1581530882	10.82	20.04
12/02/2020 18:08:03	120220	12022020	180803	91.36	12.418742	-56.777897	91.30	1.520	-4.030	1.230	91.21	-5.20	1.80	 	 	 	 	 	 	 	 	 	 	 	 	 	 	 	 	 	 	1581530883	10.80	20.00
12/02/2020 18:08:04	120220	12022020	180804	90.84	12.418742	-56.777857	90.84	1.710	-2.210	1.740	90.84	-4.00	2.10	 	 	 	 	 	 	 	 	 	 	 	 	 	 	 	 	 	 	1581530884	8.25	15.28
12/02/2020 18:08:05	120220	12022020	180805	91.00	12.418740	-56.777830	91.05	0.460	1.140	2.030	91.10	0.40	2.40	 	 	 	 	 	 	 	 	 	 	 	 	 	 	 	 	 	 	1581530885	5.53	10.24
12/02/2020 18:08:06	120220	12022020	180806	91.56	12.418738	-56.777807	91.60	-1.120	3.140	1.790	91.65	1.80	2.10	 	 	 	 	 	 	 	 	 	 	 	 	 	 	 	 	 	 	1581530886	5.27	9.76
12/02/2020 18:08:07	120220	12022020	180807	91.88	12.418737	-56.777770	91.89	-1.660	2.390	1.530	91.90	0.50	1.90	 	 	 	 	 	 	 	 	 	 	 	 	 	 	 	 	 	 	1581530887	7.53	13.95
12/02/2020 18:08:08	120220	12022020	180808	91.90	12.418735	-56.777723	91.89	-0.890	0.010	1.400	91.90	-1.90	1.80	 	 	 	 	 	 	 	 	 	 	 	 	 	 	 	 	 	 	1581530888	9.85	18.24
12/02/2020 18:08:09	120220	12022020	180809	91.95	12.418735	-56.777675	91.95	0.350	-1.930	1.180	91.96	-3.50	1.60	 	 	 	 	 	 	 	 	 	 	 	 	 	 	 	 	 	 	1581530889	10.29	19.06
12/02/2020 18:08:10	120220	12022020	180810	92.03	12.418735	-56.777633	92.04	1.060	-2.180	1.110	92.04	-3.40	1.60	 	 	 	 	 	 	 	 	 	 	 	 	 	 	 	 	 	 	1581530890	8.98	16.63
12/02/2020 18:08:11	120220	12022020	180811	91.97	12.418735	-56.777598	91.93	0.920	-1.120	1.240	91.91	-2.20	1.70	 	 	 	 	 	 	 	 	 	 	 	 	 	 	 	 	 	 	1581530891	7.39	13.69
12/02/2020 18:08:12	120220	12022020	180812	91.58	12.418735	-56.777565	91.55	0.350	0.060	1.310	91.49	-1.10	1.70	 	 	 	 	 	 	 	 	 	 	 	 	 	 	 	 	 	 	1581530892	6.92	12.82
12/02/2020 18:08:13	120220	12022020	180813	91.19	12.418735	-56.777530	91.18	-0.150	0.680	1.280	91.15	-0.70	1.70	 	 	 	 	 	 	 	 	 	 	 	 	 	 	 	 	 	 	1581530893	7.40	13.70
12/02/2020 18:08:14	120220	12022020	180814	91.19	12.418737	-56.777492	91.20	-0.300	0.480	1.030	91.19	-0.80	1.50	 	 	 	 	 	 	 	 	 	 	 	 	 	 	 	 	 	 	1581530894	8.14	15.08
12/02/2020 18:08:15	120220	12022020	180815	91.49	12.418737	-56.777448	91.50	-0.130	-0.310	0.530	91.54	-1.80	0.90	 	 	 	 	 	 	 	 	 	 	 	 	 	 	 	 	 	 	1581530895	8.93	16.54
12/02/2020 18:08:16	120220	12022020	180816	91.58	12.418737	-56.777407	91.56	0.080	-0.720	0.430	91.55	-2.10	0.90	 	 	 	 	 	 	 	 	 	 	 	 	 	 	 	 	 	 	1581530896	9.07	16.80
12/02/2020 18:08:17	120220	12022020	180817	91.29	12.418733	-56.777368	91.25	-0.010	-0.210	0.890	91.20	-1.40	1.40	 	 	 	 	 	 	 	 	 	 	 	 	 	 	 	 	 	 	1581530897	8.07	14.95
12/02/2020 18:08:18	120220	12022020	180818	90.91	12.418732	-56.777333	90.90	-0.310	0.350	1.290	90.85	-1.00	1.70	 	 	 	 	 	 	 	 	 	 	 	 	 	 	 	 	 	 	1581530898	7.38	13.67
12/02/2020 18:08:19	120220	12022020	180819	90.66	12.418730	-56.777295	90.65	-0.350	-0.020	1.350	90.62	-1.60	1.70	 	 	 	 	 	 	 	 	 	 	 	 	 	 	 	 	 	 	1581530899	8.03	14.87
12/02/2020 18:08:20	120220	12022020	180820	90.48	12.418730	-56.777252	90.49	0.050	-0.900	1.140	90.48	-2.40	1.50	 	 	 	 	 	 	 	 	 	 	 	 	 	 	 	 	 	 	1581530900	9.16	16.96
12/02/2020 18:08:21	120220	12022020	180821	90.60	12.418732	-56.777208	90.62	0.490	-1.160	0.790	90.64	-2.50	1.20	 	 	 	 	 	 	 	 	 	 	 	 	 	 	 	 	 	 	1581530901	9.12	16.89
12/02/2020 18:08:22	120220	12022020	180822	90.74	12.418732	-56.777170	90.75	0.600	-0.570	0.840	90.71	-1.80	1.30	 	 	 	 	 	 	 	 	 	 	 	 	 	 	 	 	 	 	1581530902	8.21	15.20
12/02/2020 18:08:23	120220	12022020	180823	90.36	12.418730	-56.777133	90.32	0.360	0.260	1.240	90.21	-1.00	1.70	 	 	 	 	 	 	 	 	 	 	 	 	 	 	 	 	 	 	1581530903	7.60	14.08
12/02/2020 18:08:24	120220	12022020	180824	89.61	12.418732	-56.777098	89.57	-0.010	0.670	1.370	89.48	-0.70	1.80	 	 	 	 	 	 	 	 	 	 	 	 	 	 	 	 	 	 	1581530904	7.75	14.35
12/02/2020 18:08:25	120220	12022020	180825	89.19	12.418737	-56.777058	89.20	-0.280	0.430	1.300	89.19	-1.10	1.70	 	 	 	 	 	 	 	 	 	 	 	 	 	 	 	 	 	 	1581530905	8.31	15.39
12/02/2020 18:08:26	120220	12022020	180826	89.42	12.418738	-56.777017	89.47	-0.290	-0.350	1.250	89.42	-1.60	1.70	 	 	 	 	 	 	 	 	 	 	 	 	 	 	 	 	 	 	1581530906	8.87	16.43
12/02/2020 18:08:27	120220	12022020	180827	90.01	12.418738	-56.776973	90.05	-0.060	-1.110	1.110	90.09	-2.60	1.50	 	 	 	 	 	 	 	 	 	 	 	 	 	 	 	 	 	 	1581530907	9.23	17.09
12/02/2020 18:08:28	120220	12022020	180828	90.07	12.418735	-56.776930	90.05	0.150	-1.180	1.410	90.07	-2.60	1.70	 	 	 	 	 	 	 	 	 	 	 	 	 	 	 	 	 	 	1581530908	8.97	16.61
12/02/2020 18:08:29	120220	12022020	180829	89.52	12.418732	-56.776892	89.50	0.120	-0.480	2.080	89.39	-1.60	2.60	 	 	 	 	 	 	 	 	 	 	 	 	 	 	 	 	 	 	1581530909	8.19	15.17
12/02/2020 18:08:30	120220	12022020	180830	89.01	12.418728	-56.776857	89.03	-0.130	0.480	2.220	89.01	-1.00	2.70	 	 	 	 	 	 	 	 	 	 	 	 	 	 	 	 	 	 	1581530910	7.51	13.91
12/02/2020 18:08:31	120220	12022020	180831	88.92	12.418733	-56.776822	88.95	-0.290	0.830	1.550	88.93	-0.60	1.80	 	 	 	 	 	 	 	 	 	 	 	 	 	 	 	 	 	 	1581530911	7.63	14.13
12/02/2020 18:08:32	120220	12022020	180832	89.02	12.418742	-56.776780	89.03	-0.100	0.180	0.750	89.04	-1.50	1.10	 	 	 	 	 	 	 	 	 	 	 	 	 	 	 	 	 	 	1581530912	8.66	16.04
12/02/2020 18:08:33	120220	12022020	180833	89.14	12.418747	-56.776737	89.13	0.310	-0.890	0.430	89.17	-2.50	0.80	 	 	 	 	 	 	 	 	 	 	 	 	 	 	 	 	 	 	1581530913	9.48	17.56
12/02/2020 18:08:34	120220	12022020	180834	89.37	12.418752	-56.776692	89.38	0.570	-1.470	0.490	89.43	-2.90	1.00	 	 	 	 	 	 	 	 	 	 	 	 	 	 	 	 	 	 	1581530914	9.41	17.43
12/02/2020 18:08:35	120220	12022020	180835	89.70	12.418752	-56.776652	89.71	0.460	-0.980	0.890	89.76	-2.10	1.40	 	 	 	 	 	 	 	 	 	 	 	 	 	 	 	 	 	 	1581530915	8.54	15.82
12/02/2020 18:08:36	120220	12022020	180836	89.91	12.418750	-56.776617	89.92	-0.010	0.180	1.410	89.92	-1.00	1.90	 	 	 	 	 	 	 	 	 	 	 	 	 	 	 	 	 	 	1581530916	7.53	13.95
12/02/2020 18:08:37	120220	12022020	180837	89.95	12.418747	-56.776582	89.97	-0.460	0.870	1.710	89.95	-0.50	2.10	 	 	 	 	 	 	 	 	 	 	 	 	 	 	 	 	 	 	1581530917	7.46	13.82
12/02/2020 18:08:38	120220	12022020	180838	89.97	12.418748	-56.776542	90.00	-0.530	0.530	1.520	89.97	-1.10	1.90	 	 	 	 	 	 	 	 	 	 	 	 	 	 	 	 	 	 	1581530918	8.34	15.45
12/02/2020 18:08:39	120220	12022020	180839	89.98	12.418752	-56.776497	89.99	-0.170	-0.440	1.140	89.97	-2.00	1.50	 	 	 	 	 	 	 	 	 	 	 	 	 	 	 	 	 	 	1581530919	9.33	17.28
12/02/2020 18:08:40	120220	12022020	180840	89.94	12.418755	-56.776453	89.94	0.190	-0.960	0.780	89.94	-2.40	1.30	 	 	 	 	 	 	 	 	 	 	 	 	 	 	 	 	 	 	1581530920	9.43	17.46
12/02/2020 18:08:41	120220	12022020	180841	90.02	12.418760	-56.776413	90.03	0.150	-0.560	0.360	90.07	-1.80	0.70	 	 	 	 	 	 	 	 	 	 	 	 	 	 	 	 	 	 	1581530921	8.48	15.70
12/02/2020 18:08:42	120220	12022020	180842	90.29	12.418765	-56.776377	90.30	-0.140	-0.120	0.230	90.29	-1.60	0.60	 	 	 	 	 	 	 	 	 	 	 	 	 	 	 	 	 	 	1581530922	7.87	14.58
12/02/2020 18:08:43	120220	12022020	180843	90.45	12.418763	-56.776337	90.45	-0.250	-0.280	0.650	90.45	-1.80	1.20	 	 	 	 	 	 	 	 	 	 	 	 	 	 	 	 	 	 	1581530923	8.43	15.61
12/02/2020 18:08:44	120220	12022020	180844	90.37	12.418760	-56.776293	90.38	-0.070	-0.690	0.940	90.35	-2.20	1.40	 	 	 	 	 	 	 	 	 	 	 	 	 	 	 	 	 	 	1581530924	9.14	16.93
12/02/2020 18:08:45	120220	12022020	180845	90.26	12.418760	-56.776250	90.26	0.280	-0.720	0.900	90.24	-2.00	1.30	 	 	 	 	 	 	 	 	 	 	 	 	 	 	 	 	 	 	1581530925	9.17	16.98
12/02/2020 18:08:46	120220	12022020	180846	90.22	12.418760	-56.776210	90.22	0.490	-0.040	0.810	90.23	-1.20	1.20	 	 	 	 	 	 	 	 	 	 	 	 	 	 	 	 	 	 	1581530926	8.53	15.80
12/02/2020 18:08:47	120220	12022020	180847	90.35	12.418763	-56.776173	90.36	0.230	0.800	0.500	90.39	-0.50	0.80	 	 	 	 	 	 	 	 	 	 	 	 	 	 	 	 	 	 	1581530927	7.80	14.45
12/02/2020 18:08:48	120220	12022020	180848	90.58	12.418770	-56.776135	90.59	-0.350	0.920	0.080	90.62	-0.60	0.50	 	 	 	 	 	 	 	 	 	 	 	 	 	 	 	 	 	 	1581530928	7.95	14.72
12/02/2020 18:08:49	120220	12022020	180849	90.65	12.418775	-56.776095	90.65	-0.660	0.070	0.130	90.64	-1.60	0.60	 	 	 	 	 	 	 	 	 	 	 	 	 	 	 	 	 	 	1581530929	8.71	16.13
12/02/2020 18:08:50	120220	12022020	180850	90.53	12.418775	-56.776050	90.51	-0.340	-1.280	0.670	90.48	-3.00	1.20	 	 	 	 	 	 	 	 	 	 	 	 	 	 	 	 	 	 	1581530930	9.55	17.69
12/02/2020 18:08:51	120220	12022020	180851	90.30	12.418772	-56.776002	90.31	0.270	-2.180	1.270	90.28	-3.60	1.80	 	 	 	 	 	 	 	 	 	 	 	 	 	 	 	 	 	 	1581530931	9.97	18.46
12/02/2020 18:08:52	120220	12022020	180852	90.30	12.418768	-56.775960	90.34	0.480	-1.580	1.520	90.32	-2.60	1.90	 	 	 	 	 	 	 	 	 	 	 	 	 	 	 	 	 	 	1581530932	9.02	16.71
12/02/2020 18:08:53	120220	12022020	180853	90.52	12.418767	-56.775923	90.58	0.090	0.080	1.550	90.58	-1.00	1.90	 	 	 	 	 	 	 	 	 	 	 	 	 	 	 	 	 	 	1581530933	7.56	14.00
12/02/2020 18:08:54	120220	12022020	180854	90.85	12.418767	-56.775890	90.91	-0.490	1.380	1.310	90.85	-0.20	1.80	 	 	 	 	 	 	 	 	 	 	 	 	 	 	 	 	 	 	1581530934	7.14	13.22
12/02/2020 18:08:55	120220	12022020	180855	91.15	12.418768	-56.775852	91.18	-0.680	1.370	0.770	91.19	-0.30	1.10	 	 	 	 	 	 	 	 	 	 	 	 	 	 	 	 	 	 	1581530935	8.00	14.82
12/02/2020 18:08:56	120220	12022020	180856	91.19	12.418772	-56.775808	91.19	-0.140	0.070	0.410	91.15	-1.70	0.80	 	 	 	 	 	 	 	 	 	 	 	 	 	 	 	 	 	 	1581530936	9.44	17.48
12/02/2020 18:08:57	120220	12022020	180857	90.96	12.418777	-56.775760	90.96	0.640	-1.270	0.530	90.93	-2.80	1.00	 	 	 	 	 	 	 	 	 	 	 	 	 	 	 	 	 	 	1581530937	10.28	19.04
12/02/2020 18:08:58	120220	12022020	180858	90.95	12.418778	-56.775715	90.98	0.740	-1.340	0.750	90.99	-2.60	1.20	 	 	 	 	 	 	 	 	 	 	 	 	 	 	 	 	 	 	1581530938	9.42	17.45
12/02/2020 18:08:59	120220	12022020	180859	91.28	12.418780	-56.775678	91.32	-0.010	-0.210	0.890	91.36	-1.30	1.30	 	 	 	 	 	 	 	 	 	 	 	 	 	 	 	 	 	 	1581530939	7.76	14.37
12/02/2020 18:09:00	120220	12022020	180900	91.68	12.418778	-56.775645	91.73	-0.830	0.710	1.070	91.75	-0.70	1.50	 	 	 	 	 	 	 	 	 	 	 	 	 	 	 	 	 	 	1581530940	7.07	13.09
12/02/2020 18:09:01	120220	12022020	180901	91.96	12.418775	-56.775605	92.01	-0.750	0.020	1.320	91.99	-1.70	1.80	 	 	 	 	 	 	 	 	 	 	 	 	 	 	 	 	 	 	1581530941	8.42	15.59
12/02/2020 18:09:02	120220	12022020	180902	91.98	12.418770	-56.775557	92.01	0.050	-1.210	1.510	91.97	-2.70	1.90	1015.00	26.50	26.50	20.20	20.30	1007.0	68.0	68.0	424.0	28.6	343.00	15.60	67.00	11.60	66111	18782.0	27.4	27.4	1581530942	10.16	18.82
12/02/2020 18:09:03	120220	12022020	180903	91.92	12.418768	-56.775512	91.95	0.640	-1.070	1.220	91.92	-2.20	1.50	 	 	 	 	 	 	 	 	 	 	 	 	 	 	 	 	 	 	1581530943	9.48	17.56
12/02/2020 18:09:04	120220	12022020	180904	91.97	12.418772	-56.775477	91.99	0.550	0.280	0.700	91.99	-0.90	1.00	 	 	 	 	 	 	 	 	 	 	 	 	 	 	 	 	 	 	1581530944	7.65	14.17
12/02/2020 18:09:05	120220	12022020	180905	92.08	12.418777	-56.775442	92.07	0.140	0.920	0.270	92.09	-0.60	0.60	 	 	 	 	 	 	 	 	 	 	 	 	 	 	 	 	 	 	1581530945	7.35	13.61
12/02/2020 18:09:06	120220	12022020	180906	92.08	12.418780	-56.775400	92.06	-0.090	0.050	-0.000	92.08	-1.20	0.40	 	 	 	 	 	 	 	 	 	 	 	 	 	 	 	 	 	 	1581530946	8.95	16.58
12/02/2020 18:09:07	120220	12022020	180907	92.00	12.418782	-56.775353	91.97	-0.200	-0.950	0.260	91.97	-2.50	0.80	 	 	 	 	 	 	 	 	 	 	 	 	 	 	 	 	 	 	1581530947	9.87	18.28
12/02/2020 18:09:08	120220	12022020	180908	91.89	12.418777	-56.775310	91.88	-0.420	-0.870	1.070	91.88	-2.10	1.60	 	 	 	 	 	 	 	 	 	 	 	 	 	 	 	 	 	 	1581530948	9.07	16.80
12/02/2020 18:09:09	120220	12022020	180909	91.85	12.418770	-56.775273	91.85	-0.690	0.030	1.510	91.85	-1.20	1.90	 	 	 	 	 	 	 	 	 	 	 	 	 	 	 	 	 	 	1581530949	7.83	14.50
12/02/2020 18:09:10	120220	12022020	180910	91.86	12.418767	-56.775238	91.87	-0.660	0.570	1.450	91.87	-0.90	1.80	 	 	 	 	 	 	 	 	 	 	 	 	 	 	 	 	 	 	1581530950	7.55	13.98
12/02/2020 18:09:11	120220	12022020	180911	91.92	12.418765	-56.775198	91.92	-0.060	0.020	1.270	91.92	-1.70	1.60	 	 	 	 	 	 	 	 	 	 	 	 	 	 	 	 	 	 	1581530951	8.46	15.67
12/02/2020 18:09:12	120220	12022020	180912	91.87	12.418767	-56.775152	91.86	1.000	-1.360	1.060	91.83	-3.00	1.40	 	 	 	 	 	 	 	 	 	 	 	 	 	 	 	 	 	 	1581530952	9.84	18.22
12/02/2020 18:09:13	120220	12022020	180913	91.60	12.418770	-56.775103	91.60	1.670	-2.020	0.950	91.56	-3.30	1.40	 	 	 	 	 	 	 	 	 	 	 	 	 	 	 	 	 	 	1581530953	10.39	19.24
12/02/2020 18:09:14	120220	12022020	180914	91.56	12.418773	-56.775062	91.59	1.080	-0.590	1.150	91.60	-1.50	1.70	 	 	 	 	 	 	 	 	 	 	 	 	 	 	 	 	 	 	1581530954	8.60	15.93
12/02/2020 18:09:15	120220	12022020	180915	92.02	12.418772	-56.775033	92.11	-0.500	1.870	1.660	92.17	0.90	2.20	 	 	 	 	 	 	 	 	 	 	 	 	 	 	 	 	 	 	1581530955	6.19	11.46
12/02/2020 18:09:16	120220	12022020	180916	92.85	12.418767	-56.775005	92.94	-1.870	2.940	1.940	92.85	1.50	2.30	 	 	 	 	 	 	 	 	 	 	 	 	 	 	 	 	 	 	1581530956	6.02	11.15
12/02/2020 18:09:17	120220	12022020	180917	93.47	12.418762	-56.774967	93.51	-1.890	1.340	1.870	93.51	-0.70	2.30	 	 	 	 	 	 	 	 	 	 	 	 	 	 	 	 	 	 	1581530957	8.22	15.22
12/02/2020 18:09:18	120220	12022020	180918	93.24	12.418755	-56.774917	93.22	-0.600	-1.650	2.150	93.24	-2.70	2.50	 	 	 	 	 	 	 	 	 	 	 	 	 	 	 	 	 	 	1581530958	10.62	19.67
12/02/2020 18:09:19	120220	12022020	180919	92.50	12.418750	-56.774865	92.50	0.830	-3.480	2.480	92.40	-4.90	2.90	 	 	 	 	 	 	 	 	 	 	 	 	 	 	 	 	 	 	1581530959	10.86	20.11
12/02/2020 18:09:20	120220	12022020	180920	92.26	12.418752	-56.774823	92.32	1.430	-2.920	2.060	92.26	-4.50	2.60	 	 	 	 	 	 	 	 	 	 	 	 	 	 	 	 	 	 	1581530960	9.02	16.71
12/02/2020 18:09:21	120220	12022020	180921	92.68	12.418757	-56.774788	92.73	1.100	-0.810	1.140	92.78	-1.70	1.40	 	 	 	 	 	 	 	 	 	 	 	 	 	 	 	 	 	 	1581530961	7.21	13.35
12/02/2020 18:09:22	120220	12022020	180922	93.17	12.418760	-56.774757	93.20	0.340	1.100	0.490	93.23	-0.00	0.90	 	 	 	 	 	 	 	 	 	 	 	 	 	 	 	 	 	 	1581530962	6.78	12.56
12/02/2020 18:09:23	120220	12022020	180923	93.24	12.418758	-56.774722	93.21	-0.330	1.900	0.390	93.20	0.50	0.80	 	 	 	 	 	 	 	 	 	 	 	 	 	 	 	 	 	 	1581530963	7.52	13.93
12/02/2020 18:09:24	120220	12022020	180924	92.98	12.418755	-56.774682	92.94	-0.670	1.620	0.540	92.93	0.10	1.00	 	 	 	 	 	 	 	 	 	 	 	 	 	 	 	 	 	 	1581530964	8.48	15.70
12/02/2020 18:09:25	120220	12022020	180925	92.81	12.418752	-56.774640	92.79	-0.690	0.840	0.720	92.79	-0.80	1.20	 	 	 	 	 	 	 	 	 	 	 	 	 	 	 	 	 	 	1581530965	8.86	16.41
12/02/2020 18:09:26	120220	12022020	180926	92.71	12.418750	-56.774598	92.69	-0.440	-0.250	0.850	92.68	-1.90	1.30	 	 	 	 	 	 	 	 	 	 	 	 	 	 	 	 	 	 	1581530966	8.89	16.46
12/02/2020 18:09:27	120220	12022020	180927	92.47	12.418748	-56.774553	92.43	0.030	-1.540	0.940	92.40	-3.20	1.40	 	 	 	 	 	 	 	 	 	 	 	 	 	 	 	 	 	 	1581530967	9.26	17.15
12/02/2020 18:09:28	120220	12022020	180928	92.09	12.418747	-56.774510	92.06	0.580	-2.280	1.230	92.02	-3.70	1.70	 	 	 	 	 	 	 	 	 	 	 	 	 	 	 	 	 	 	1581530968	9.34	17.30
12/02/2020 18:09:29	120220	12022020	180929	91.76	12.418743	-56.774468	91.74	0.940	-1.950	1.720	91.69	-3.10	2.20	 	 	 	 	 	 	 	 	 	 	 	 	 	 	 	 	 	 	1581530969	8.74	16.19
12/02/2020 18:09:30	120220	12022020	180930	91.45	12.418740	-56.774432	91.44	0.950	-0.760	2.000	91.45	-2.30	2.40	 	 	 	 	 	 	 	 	 	 	 	 	 	 	 	 	 	 	1581530970	8.01	14.83
12/02/2020 18:09:31	120220	12022020	180931	91.14	12.418738	-56.774395	91.14	0.400	0.770	1.810	91.09	-0.30	2.20	 	 	 	 	 	 	 	 	 	 	 	 	 	 	 	 	 	 	1581530971	7.53	13.95
12/02/2020 18:09:32	120220	12022020	180932	90.93	12.418740	-56.774360	90.94	-0.620	1.820	1.540	90.90	0.50	1.90	 	 	 	 	 	 	 	 	 	 	 	 	 	 	 	 	 	 	1581530972	7.34	13.59
12/02/2020 18:09:33	120220	12022020	180933	90.81	12.418740	-56.774323	90.83	-1.440	1.540	1.470	90.80	-0.10	1.90	 	 	 	 	 	 	 	 	 	 	 	 	 	 	 	 	 	 	1581530973	7.96	14.74
12/02/2020 18:09:34	120220	12022020	180934	90.70	12.418737	-56.774278	90.73	-1.370	0.000	1.530	90.68	-1.80	2.00	 	 	 	 	 	 	 	 	 	 	 	 	 	 	 	 	 	 	1581530974	9.30	17.22
12/02/2020 18:09:35	120220	12022020	180935	90.54	12.418733	-56.774232	90.55	-0.430	-1.640	1.750	90.51	-3.30	2.20	 	 	 	 	 	 	 	 	 	 	 	 	 	 	 	 	 	 	1581530975	10.07	18.65
12/02/2020 18:09:36	120220	12022020	180936	90.34	12.418730	-56.774185	90.34	0.820	-2.310	1.880	90.28	-3.60	2.30	 	 	 	 	 	 	 	 	 	 	 	 	 	 	 	 	 	 	1581530976	9.73	18.02
12/02/2020 18:09:37	120220	12022020	180937	90.07	12.418730	-56.774145	90.06	1.570	-1.640	1.830	90.04	-2.70	2.20	 	 	 	 	 	 	 	 	 	 	 	 	 	 	 	 	 	 	1581530977	8.73	16.17
12/02/2020 18:09:38	120220	12022020	180938	90.08	12.418733	-56.774108	90.10	1.280	-0.010	1.640	90.12	-1.00	2.00	 	 	 	 	 	 	 	 	 	 	 	 	 	 	 	 	 	 	1581530978	7.62	14.11
12/02/2020 18:09:39	120220	12022020	180939	90.30	12.418737	-56.774075	90.30	0.210	1.450	1.350	90.32	0.20	1.70	 	 	 	 	 	 	 	 	 	 	 	 	 	 	 	 	 	 	1581530979	7.00	12.96
12/02/2020 18:09:40	120220	12022020	180940	90.29	12.418740	-56.774040	90.29	-0.800	1.780	1.180	90.26	0.30	1.60	 	 	 	 	 	 	 	 	 	 	 	 	 	 	 	 	 	 	1581530980	7.50	13.89
12/02/2020 18:09:41	120220	12022020	180941	90.19	12.418740	-56.774000	90.19	-1.070	0.830	1.240	90.19	-0.90	1.70	 	 	 	 	 	 	 	 	 	 	 	 	 	 	 	 	 	 	1581530981	8.62	15.96
12/02/2020 18:09:42	120220	12022020	180942	90.23	12.418738	-56.773953	90.26	-0.600	-0.760	1.460	90.23	-2.50	1.90	 	 	 	 	 	 	 	 	 	 	 	 	 	 	 	 	 	 	1581530982	9.60	17.78
12/02/2020 18:09:43	120220	12022020	180943	90.15	12.418737	-56.773908	90.16	0.120	-1.960	1.600	90.12	-3.40	2.00	 	 	 	 	 	 	 	 	 	 	 	 	 	 	 	 	 	 	1581530983	9.76	18.08
12/02/2020 18:09:44	120220	12022020	180944	90.01	12.418737	-56.773865	90.01	0.560	-2.060	1.450	90.01	-3.50	1.90	 	 	 	 	 	 	 	 	 	 	 	 	 	 	 	 	 	 	1581530984	9.10	16.85
12/02/2020 18:09:45	120220	12022020	180945	89.95	12.418737	-56.773827	89.94	0.570	-1.150	1.460	89.94	-2.30	1.90	 	 	 	 	 	 	 	 	 	 	 	 	 	 	 	 	 	 	1581530985	8.12	15.04
12/02/2020 18:09:46	120220	12022020	180946	89.86	12.418737	-56.773790	89.84	0.390	-0.010	1.600	89.82	-1.20	2.00	 	 	 	 	 	 	 	 	 	 	 	 	 	 	 	 	 	 	1581530986	7.65	14.17
12/02/2020 18:09:47	120220	12022020	180947	89.62	12.418738	-56.773752	89.60	0.250	0.560	1.470	89.57	-0.80	1.80	 	 	 	 	 	 	 	 	 	 	 	 	 	 	 	 	 	 	1581530987	8.14	15.08
12/02/2020 18:09:48	120220	12022020	180948	89.47	12.418742	-56.773710	89.47	0.010	0.690	1.140	89.48	-0.70	1.50	 	 	 	 	 	 	 	 	 	 	 	 	 	 	 	 	 	 	1581530988	8.80	16.30
12/02/2020 18:09:49	120220	12022020	180949	89.65	12.418743	-56.773670	89.69	-0.460	0.780	0.980	89.74	-0.60	1.40	 	 	 	 	 	 	 	 	 	 	 	 	 	 	 	 	 	 	1581530989	8.63	15.98
12/02/2020 18:09:50	120220	12022020	180950	90.23	12.418743	-56.773630	90.26	-0.820	0.750	0.720	90.36	-0.70	1.10	 	 	 	 	 	 	 	 	 	 	 	 	 	 	 	 	 	 	1581530990	8.23	15.24
12/02/2020 18:09:51	120220	12022020	180951	90.68	12.418745	-56.773592	90.67	-0.600	0.120	0.690	90.69	-1.50	1.20	 	 	 	 	 	 	 	 	 	 	 	 	 	 	 	 	 	 	1581530991	8.40	15.56
12/02/2020 18:09:52	120220	12022020	180952	90.46	12.418743	-56.773548	90.41	0.070	-0.920	1.370	90.34	-2.50	2.00	 	 	 	 	 	 	 	 	 	 	 	 	 	 	 	 	 	 	1581530992	9.13	16.91
12/02/2020 18:09:53	120220	12022020	180953	89.80	12.418740	-56.773503	89.75	0.690	-1.790	2.140	89.67	-3.30	2.70	 	 	 	 	 	 	 	 	 	 	 	 	 	 	 	 	 	 	1581530993	9.45	17.50
12/02/2020 18:09:54	120220	12022020	180954	89.35	12.418740	-56.773458	89.34	0.960	-2.060	2.330	89.35	-3.40	2.80	 	 	 	 	 	 	 	 	 	 	 	 	 	 	 	 	 	 	1581530994	9.36	17.33
12/02/2020 18:09:55	120220	12022020	180955	89.43	12.418743	-56.773417	89.47	0.830	-1.390	1.980	89.51	-2.50	2.30	 	 	 	 	 	 	 	 	 	 	 	 	 	 	 	 	 	 	1581530995	8.84	16.37
12/02/2020 18:09:56	120220	12022020	180956	89.80	12.418747	-56.773380	89.81	0.340	0.180	1.460	89.80	-1.40	2.00	 	 	 	 	 	 	 	 	 	 	 	 	 	 	 	 	 	 	1581530996	7.87	14.58
12/02/2020 18:09:57	120220	12022020	180957	89.91	12.418748	-56.773347	89.89	-0.440	1.780	1.180	89.89	0.60	1.60	 	 	 	 	 	 	 	 	 	 	 	 	 	 	 	 	 	 	1581530997	7.17	13.28
12/02/2020 18:09:58	120220	12022020	180958	89.78	12.418748	-56.773310	89.76	-1.190	2.220	1.240	89.78	0.90	1.60	 	 	 	 	 	 	 	 	 	 	 	 	 	 	 	 	 	 	1581530998	7.49	13.87
12/02/2020 18:09:59	120220	12022020	180959	89.82	12.418747	-56.773268	89.83	-1.450	0.950	1.320	89.86	-0.90	1.70	 	 	 	 	 	 	 	 	 	 	 	 	 	 	 	 	 	 	1581530999	8.84	16.37
12/02/2020 18:10:00	120220	12022020	181000	90.05	12.418747	-56.773222	90.06	-0.970	-1.280	1.060	90.08	-3.10	1.40	 	 	 	 	 	 	 	 	 	 	 	 	 	 	 	 	 	 	1581531000	10.16	18.82
12/02/2020 18:10:01	120220	12022020	181001	89.95	12.418747	-56.773172	89.91	0.150	-2.840	0.930	89.85	-4.30	1.40	 	 	 	 	 	 	 	 	 	 	 	 	 	 	 	 	 	 	1581531001	10.51	19.46
12/02/2020 18:10:02	120220	12022020	181002	89.38	12.418747	-56.773127	89.31	1.370	-2.490	1.090	89.26	-3.50	1.50	1015.10	26.40	26.50	20.40	20.40	591.0	69.0	69.0	428.0	28.5	343.00	15.60	68.00	11.40	46901	20000.0	27.4	27.4	1581531002	9.32	17.26
12/02/2020 18:10:03	120220	12022020	181003	89.02	12.418750	-56.773090	88.98	1.900	-0.700	1.070	89.02	-1.60	1.40	 	 	 	 	 	 	 	 	 	 	 	 	 	 	 	 	 	 	1581531003	7.73	14.32
12/02/2020 18:10:04	120220	12022020	181004	89.24	12.418758	-56.773057	89.24	1.300	1.110	0.640	89.34	-0.00	1.00	 	 	 	 	 	 	 	 	 	 	 	 	 	 	 	 	 	 	1581531004	7.22	13.37
12/02/2020 18:10:05	120220	12022020	181005	89.78	12.418765	-56.773022	89.78	-0.160	1.810	0.250	89.89	0.40	0.70	 	 	 	 	 	 	 	 	 	 	 	 	 	 	 	 	 	 	1581531005	7.62	14.11
12/02/2020 18:10:06	120220	12022020	181006	90.25	12.418765	-56.772982	90.24	-1.520	1.290	0.520	90.25	0.00	0.90	 	 	 	 	 	 	 	 	 	 	 	 	 	 	 	 	 	 	1581531006	8.39	15.54
12/02/2020 18:10:07	120220	12022020	181007	90.25	12.418758	-56.772938	90.20	-1.860	-0.000	1.310	90.18	-1.70	1.90	 	 	 	 	 	 	 	 	 	 	 	 	 	 	 	 	 	 	1581531007	9.29	17.21
12/02/2020 18:10:08	120220	12022020	181008	89.82	12.418750	-56.772893	89.77	-1.080	-1.360	1.860	89.82	-2.60	2.30	 	 	 	 	 	 	 	 	 	 	 	 	 	 	 	 	 	 	1581531008	9.80	18.15
12/02/2020 18:10:09	120220	12022020	181009	89.40	12.418750	-56.772848	89.36	0.170	-2.120	1.780	89.36	-3.50	2.10	 	 	 	 	 	 	 	 	 	 	 	 	 	 	 	 	 	 	1581531009	9.57	17.72
12/02/2020 18:10:10	120220	12022020	181010	89.44	12.418753	-56.772805	89.45	1.070	-1.960	1.320	89.44	-3.40	1.80	 	 	 	 	 	 	 	 	 	 	 	 	 	 	 	 	 	 	1581531010	9.13	16.91
12/02/2020 18:10:11	120220	12022020	181011	89.86	12.418758	-56.772765	89.87	1.040	-0.790	0.730	89.94	-1.80	1.00	 	 	 	 	 	 	 	 	 	 	 	 	 	 	 	 	 	 	1581531011	8.35	15.46
12/02/2020 18:10:12	120220	12022020	181012	90.17	12.418762	-56.772730	90.14	0.300	0.790	0.430	90.19	-0.30	0.90	 	 	 	 	 	 	 	 	 	 	 	 	 	 	 	 	 	 	1581531012	7.50	13.89
12/02/2020 18:10:13	120220	12022020	181013	90.29	12.418763	-56.772695	90.27	-0.440	1.790	0.540	90.32	0.50	1.00	 	 	 	 	 	 	 	 	 	 	 	 	 	 	 	 	 	 	1581531013	7.39	13.69
12/02/2020 18:10:14	120220	12022020	181014	90.41	12.418763	-56.772657	90.39	-0.630	1.410	0.620	90.42	-0.30	1.10	 	 	 	 	 	 	 	 	 	 	 	 	 	 	 	 	 	 	1581531014	8.27	15.32
12/02/2020 18:10:15	120220	12022020	181015	90.36	12.418763	-56.772610	90.33	-0.270	-0.200	0.710	90.34	-1.90	1.10	 	 	 	 	 	 	 	 	 	 	 	 	 	 	 	 	 	 	1581531015	9.75	18.06
12/02/2020 18:10:16	120220	12022020	181016	90.28	12.418765	-56.772562	90.25	0.110	-1.420	0.720	90.26	-2.90	1.20	 	 	 	 	 	 	 	 	 	 	 	 	 	 	 	 	 	 	1581531016	10.09	18.69
12/02/2020 18:10:17	120220	12022020	181017	90.21	12.418767	-56.772520	90.20	0.240	-1.380	0.790	90.20	-2.60	1.30	 	 	 	 	 	 	 	 	 	 	 	 	 	 	 	 	 	 	1581531017	8.89	16.46
12/02/2020 18:10:18	120220	12022020	181018	90.18	12.418768	-56.772483	90.18	0.240	-0.760	1.010	90.19	-2.00	1.50	 	 	 	 	 	 	 	 	 	 	 	 	 	 	 	 	 	 	1581531018	7.94	14.70
12/02/2020 18:10:19	120220	12022020	181019	90.22	12.418768	-56.772443	90.24	0.270	-0.530	1.240	90.24	-1.90	1.70	 	 	 	 	 	 	 	 	 	 	 	 	 	 	 	 	 	 	1581531019	8.27	15.32
12/02/2020 18:10:20	120220	12022020	181020	90.21	12.418768	-56.772402	90.21	0.270	-0.530	1.390	90.21	-1.90	1.80	 	 	 	 	 	 	 	 	 	 	 	 	 	 	 	 	 	 	1581531020	9.00	16.67
12/02/2020 18:10:21	120220	12022020	181021	89.93	12.418767	-56.772358	89.92	0.060	-0.130	1.560	89.87	-1.30	2.00	 	 	 	 	 	 	 	 	 	 	 	 	 	 	 	 	 	 	1581531021	8.90	16.48
12/02/2020 18:10:22	120220	12022020	181022	89.78	12.418765	-56.772320	89.79	-0.290	0.610	1.420	89.78	-0.90	1.90	 	 	 	 	 	 	 	 	 	 	 	 	 	 	 	 	 	 	1581531022	8.25	15.28
12/02/2020 18:10:23	120220	12022020	181023	90.08	12.418768	-56.772282	90.09	-0.480	0.760	1.010	90.14	-0.70	1.40	 	 	 	 	 	 	 	 	 	 	 	 	 	 	 	 	 	 	1581531023	8.18	15.15
12/02/2020 18:10:24	120220	12022020	181024	90.27	12.418770	-56.772238	90.25	-0.300	-0.080	0.730	90.26	-1.70	1.10	 	 	 	 	 	 	 	 	 	 	 	 	 	 	 	 	 	 	1581531024	9.17	16.98
12/02/2020 18:10:25	120220	12022020	181025	90.08	12.418772	-56.772192	90.04	0.100	-0.890	0.780	90.01	-2.30	1.30	 	 	 	 	 	 	 	 	 	 	 	 	 	 	 	 	 	 	1581531025	9.83	18.21
12/02/2020 18:10:26	120220	12022020	181026	89.84	12.418773	-56.772148	89.81	0.220	-0.570	1.000	89.83	-1.70	1.50	 	 	 	 	 	 	 	 	 	 	 	 	 	 	 	 	 	 	1581531026	8.96	16.59
12/02/2020 18:10:27	120220	12022020	181027	90.02	12.418775	-56.772113	90.05	-0.100	0.330	1.100	90.12	-0.90	1.50	 	 	 	 	 	 	 	 	 	 	 	 	 	 	 	 	 	 	1581531027	7.64	14.15
12/02/2020 18:10:28	120220	12022020	181028	90.52	12.418777	-56.772077	90.53	-0.360	0.270	0.940	90.60	-1.30	1.40	 	 	 	 	 	 	 	 	 	 	 	 	 	 	 	 	 	 	1581531028	7.82	14.48
12/02/2020 18:10:29	120220	12022020	181029	90.71	12.418777	-56.772030	90.69	0.120	-1.170	0.980	90.70	-2.90	1.50	 	 	 	 	 	 	 	 	 	 	 	 	 	 	 	 	 	 	1581531029	9.56	17.71
12/02/2020 18:10:30	120220	12022020	181030	90.50	12.418775	-56.771980	90.46	1.000	-2.260	1.360	90.42	-3.60	1.90	 	 	 	 	 	 	 	 	 	 	 	 	 	 	 	 	 	 	1581531030	10.69	19.80
12/02/2020 18:10:31	120220	12022020	181031	90.19	12.418773	-56.771937	90.16	1.210	-1.230	1.600	90.15	-2.20	2.00	 	 	 	 	 	 	 	 	 	 	 	 	 	 	 	 	 	 	1581531031	9.22	17.08
12/02/2020 18:10:32	120220	12022020	181032	90.15	12.418777	-56.771903	90.16	0.300	1.030	1.410	90.15	-0.60	1.90	 	 	 	 	 	 	 	 	 	 	 	 	 	 	 	 	 	 	1581531032	7.00	12.96
12/02/2020 18:10:33	120220	12022020	181033	90.47	12.418780	-56.771872	90.49	-1.030	2.350	0.970	90.54	1.00	1.30	 	 	 	 	 	 	 	 	 	 	 	 	 	 	 	 	 	 	1581531033	6.64	12.30
12/02/2020 18:10:34	120220	12022020	181034	90.78	12.418783	-56.771833	90.76	-1.650	1.640	0.550	90.78	0.50	1.00	 	 	 	 	 	 	 	 	 	 	 	 	 	 	 	 	 	 	1581531034	8.12	15.04
12/02/2020 18:10:35	120220	12022020	181035	90.92	12.418785	-56.771787	90.89	-0.980	-0.690	0.280	90.92	-2.60	0.70	 	 	 	 	 	 	 	 	 	 	 	 	 	 	 	 	 	 	1581531035	10.15	18.80
12/02/2020 18:10:36	120220	12022020	181036	90.84	12.418783	-56.771735	90.81	0.320	-2.530	0.560	90.82	-4.00	1.10	 	 	 	 	 	 	 	 	 	 	 	 	 	 	 	 	 	 	1581531036	10.92	20.22
12/02/2020 18:10:37	120220	12022020	181037	90.85	12.418782	-56.771690	90.84	1.060	-2.270	0.790	90.88	-3.30	1.20	 	 	 	 	 	 	 	 	 	 	 	 	 	 	 	 	 	 	1581531037	9.38	17.37
12/02/2020 18:10:38	120220	12022020	181038	91.06	12.418782	-56.771655	91.06	0.820	-0.490	0.750	91.10	-1.40	1.10	 	 	 	 	 	 	 	 	 	 	 	 	 	 	 	 	 	 	1581531038	7.36	13.63
12/02/2020 18:10:39	120220	12022020	181039	91.26	12.418783	-56.771623	91.24	0.160	1.040	0.620	91.28	-0.20	1.00	 	 	 	 	 	 	 	 	 	 	 	 	 	 	 	 	 	 	1581531039	6.79	12.58
12/02/2020 18:10:40	120220	12022020	181040	91.28	12.418785	-56.771585	91.26	-0.270	1.180	0.520	91.26	-0.30	1.00	 	 	 	 	 	 	 	 	 	 	 	 	 	 	 	 	 	 	1581531040	7.92	14.67
12/02/2020 18:10:41	120220	12022020	181041	91.24	12.418787	-56.771542	91.23	-0.350	0.260	0.600	91.24	-1.40	1.10	 	 	 	 	 	 	 	 	 	 	 	 	 	 	 	 	 	 	1581531041	9.27	17.17
12/02/2020 18:10:42	120220	12022020	181042	91.31	12.418787	-56.771497	91.32	-0.230	-0.630	0.710	91.33	-2.10	1.20	 	 	 	 	 	 	 	 	 	 	 	 	 	 	 	 	 	 	1581531042	9.66	17.89
12/02/2020 18:10:43	120220	12022020	181043	91.38	12.418787	-56.771453	91.37	-0.130	-0.710	0.810	91.37	-2.00	1.30	 	 	 	 	 	 	 	 	 	 	 	 	 	 	 	 	 	 	1581531043	8.98	16.63
12/02/2020 18:10:44	120220	12022020	181044	91.23	12.418787	-56.771415	91.22	-0.160	-0.390	1.160	91.23	-1.80	1.50	 	 	 	 	 	 	 	 	 	 	 	 	 	 	 	 	 	 	1581531044	8.16	15.11
12/02/2020 18:10:45	120220	12022020	181045	90.93	12.418783	-56.771375	90.94	-0.060	-0.530	1.590	90.89	-2.00	2.00	 	 	 	 	 	 	 	 	 	 	 	 	 	 	 	 	 	 	1581531045	8.43	15.61
12/02/2020 18:10:46	120220	12022020	181046	90.95	12.418783	-56.771332	90.99	0.360	-0.970	1.490	90.95	-2.30	2.00	 	 	 	 	 	 	 	 	 	 	 	 	 	 	 	 	 	 	1581531046	9.28	17.19
12/02/2020 18:10:47	120220	12022020	181047	91.29	12.418785	-56.771288	91.31	0.580	-0.780	1.090	91.33	-2.00	1.40	 	 	 	 	 	 	 	 	 	 	 	 	 	 	 	 	 	 	1581531047	9.20	17.04
12/02/2020 18:10:48	120220	12022020	181048	91.32	12.418785	-56.771248	91.29	0.230	0.040	0.830	91.27	-1.10	1.30	 	 	 	 	 	 	 	 	 	 	 	 	 	 	 	 	 	 	1581531048	8.29	15.35
12/02/2020 18:10:49	120220	12022020	181049	90.88	12.418787	-56.771212	90.83	-0.320	0.750	0.890	90.78	-0.60	1.30	 	 	 	 	 	 	 	 	 	 	 	 	 	 	 	 	 	 	1581531049	7.88	14.59
12/02/2020 18:10:50	120220	12022020	181050	90.42	12.418787	-56.771172	90.40	-0.460	0.610	0.920	90.37	-0.90	1.30	 	 	 	 	 	 	 	 	 	 	 	 	 	 	 	 	 	 	1581531050	8.42	15.59
12/02/2020 18:10:51	120220	12022020	181051	90.38	12.418790	-56.771127	90.38	-0.150	-0.150	0.680	90.43	-1.70	1.00	 	 	 	 	 	 	 	 	 	 	 	 	 	 	 	 	 	 	1581531051	9.42	17.45
12/02/2020 18:10:52	120220	12022020	181052	90.87	12.418793	-56.771083	90.90	0.000	-0.520	0.300	91.01	-1.90	0.70	 	 	 	 	 	 	 	 	 	 	 	 	 	 	 	 	 	 	1581531052	9.35	17.32
12/02/2020 18:10:53	120220	12022020	181053	91.54	12.418795	-56.771043	91.57	-0.160	-0.300	0.410	91.66	-1.60	0.90	 	 	 	 	 	 	 	 	 	 	 	 	 	 	 	 	 	 	1581531053	8.34	15.45
12/02/2020 18:10:54	120220	12022020	181054	91.95	12.418790	-56.771005	91.95	-0.160	-0.260	1.010	91.97	-1.70	1.60	 	 	 	 	 	 	 	 	 	 	 	 	 	 	 	 	 	 	1581531054	8.06	14.93
12/02/2020 18:10:55	120220	12022020	181055	91.83	12.418785	-56.770963	91.81	0.480	-1.070	1.630	91.75	-2.60	2.20	 	 	 	 	 	 	 	 	 	 	 	 	 	 	 	 	 	 	1581531055	9.08	16.82
12/02/2020 18:10:56	120220	12022020	181056	91.49	12.418783	-56.770915	91.50	1.130	-1.650	1.860	91.45	-2.90	2.30	 	 	 	 	 	 	 	 	 	 	 	 	 	 	 	 	 	 	1581531056	9.98	18.48
12/02/2020 18:10:57	120220	12022020	181057	91.48	12.418785	-56.770873	91.53	0.830	-0.660	1.780	91.54	-1.60	2.20	 	 	 	 	 	 	 	 	 	 	 	 	 	 	 	 	 	 	1581531057	8.88	16.45
12/02/2020 18:10:58	120220	12022020	181058	91.92	12.418788	-56.770840	91.99	-0.380	1.220	1.330	91.92	-0.40	1.90	 	 	 	 	 	 	 	 	 	 	 	 	 	 	 	 	 	 	1581531058	7.06	13.08
12/02/2020 18:10:59	120220	12022020	181059	92.46	12.418792	-56.770808	92.49	-1.510	2.080	0.690	92.53	0.60	1.00	 	 	 	 	 	 	 	 	 	 	 	 	 	 	 	 	 	 	1581531059	6.80	12.59
12/02/2020 18:11:00	120220	12022020	181100	92.73	12.418792	-56.770768	92.73	-1.470	0.710	0.470	92.73	-0.40	0.90	 	 	 	 	 	 	 	 	 	 	 	 	 	 	 	 	 	 	1581531060	8.62	15.96
12/02/2020 18:11:01	120220	12022020	181101	92.78	12.418788	-56.770717	92.78	-0.310	-1.720	0.630	92.77	-3.50	1.10	 	 	 	 	 	 	 	 	 	 	 	 	 	 	 	 	 	 	1581531061	10.77	19.95
12/02/2020 18:11:02	120220	12022020	181102	92.71	12.418785	-56.770667	92.69	0.890	-2.700	0.640	92.71	-3.90	1.00	1015.10	26.40	26.50	20.10	20.20	558.0	68.0	68.0	427.0	28.3	343.00	15.30	67.00	11.10	45129	12390.0	27.4	27.4	1581531062	10.61	19.65
12/02/2020 18:11:03	120220	12022020	181103	92.74	12.418785	-56.770627	92.71	1.190	-1.460	0.460	92.75	-2.30	0.90	 	 	 	 	 	 	 	 	 	 	 	 	 	 	 	 	 	 	1581531063	8.52	15.78
12/02/2020 18:11:04	120220	12022020	181104	92.83	12.418785	-56.770595	92.81	0.530	0.660	0.450	92.85	-0.30	0.90	 	 	 	 	 	 	 	 	 	 	 	 	 	 	 	 	 	 	1581531064	6.77	12.54
12/02/2020 18:11:05	120220	12022020	181105	92.80	12.418783	-56.770563	92.76	-0.490	1.950	0.650	92.76	0.70	1.20	 	 	 	 	 	 	 	 	 	 	 	 	 	 	 	 	 	 	1581531065	6.72	12.45
12/02/2020 18:11:06	120220	12022020	181106	92.54	12.418783	-56.770525	92.49	-1.070	1.710	0.820	92.48	0.10	1.30	 	 	 	 	 	 	 	 	 	 	 	 	 	 	 	 	 	 	1581531066	7.80	14.45
12/02/2020 18:11:07	120220	12022020	181107	92.25	12.418783	-56.770482	92.21	-0.690	-0.020	0.680	92.20	-1.80	1.10	 	 	 	 	 	 	 	 	 	 	 	 	 	 	 	 	 	 	1581531067	9.33	17.28
12/02/2020 18:11:08	120220	12022020	181108	91.99	12.418783	-56.770432	91.95	0.370	-2.120	0.520	91.94	-3.80	0.90	 	 	 	 	 	 	 	 	 	 	 	 	 	 	 	 	 	 	1581531068	10.51	19.46
12/02/2020 18:11:09	120220	12022020	181109	91.80	12.418783	-56.770383	91.77	1.090	-2.710	0.490	91.80	-3.80	0.90	 	 	 	 	 	 	 	 	 	 	 	 	 	 	 	 	 	 	1581531069	10.15	18.80
12/02/2020 18:11:10	120220	12022020	181110	91.93	12.418783	-56.770347	91.92	0.700	-0.900	0.630	91.93	-2.60	1.00	 	 	 	 	 	 	 	 	 	 	 	 	 	 	 	 	 	 	1581531070	7.78	14.41
12/02/2020 18:11:11	120220	12022020	181111	92.25	12.418780	-56.770320	92.25	-0.460	1.710	0.870	92.30	0.70	1.40	 	 	 	 	 	 	 	 	 	 	 	 	 	 	 	 	 	 	1581531071	5.69	10.54
12/02/2020 18:11:12	120220	12022020	181112	92.40	12.418775	-56.770290	92.37	-1.070	2.170	1.190	92.37	0.50	1.70	 	 	 	 	 	 	 	 	 	 	 	 	 	 	 	 	 	 	1581531072	6.36	11.78
12/02/2020 18:11:13	120220	12022020	181113	92.07	12.418770	-56.770245	92.02	-0.320	-0.200	1.650	91.96	-2.20	2.20	 	 	 	 	 	 	 	 	 	 	 	 	 	 	 	 	 	 	1581531073	9.68	17.93
12/02/2020 18:11:14	120220	12022020	181114	91.49	12.418768	-56.770192	91.45	0.830	-2.370	1.950	91.42	-3.80	2.40	 	 	 	 	 	 	 	 	 	 	 	 	 	 	 	 	 	 	1581531074	11.37	21.06
12/02/2020 18:11:15	120220	12022020	181115	91.29	12.418768	-56.770147	91.29	1.060	-1.900	1.840	91.30	-2.80	2.20	 	 	 	 	 	 	 	 	 	 	 	 	 	 	 	 	 	 	1581531075	9.31	17.24
12/02/2020 18:11:16	120220	12022020	181116	91.53	12.418772	-56.770117	91.57	0.180	0.380	1.630	91.63	-0.50	2.00	 	 	 	 	 	 	 	 	 	 	 	 	 	 	 	 	 	 	1581531076	6.46	11.96
12/02/2020 18:11:17	120220	12022020	181117	92.11	12.418772	-56.770090	92.16	-0.890	1.950	1.300	92.25	0.60	1.70	 	 	 	 	 	 	 	 	 	 	 	 	 	 	 	 	 	 	1581531077	5.77	10.69
12/02/2020 18:11:18	120220	12022020	181118	92.74	12.418770	-56.770053	92.78	-1.050	1.270	0.990	92.84	-0.50	1.40	 	 	 	 	 	 	 	 	 	 	 	 	 	 	 	 	 	 	1581531078	7.60	14.08
12/02/2020 18:11:19	120220	12022020	181119	92.97	12.418765	-56.770008	92.98	-0.240	-0.640	1.140	92.93	-2.40	1.70	 	 	 	 	 	 	 	 	 	 	 	 	 	 	 	 	 	 	1581531079	9.77	18.09
12/02/2020 18:11:20	120220	12022020	181120	92.54	12.418760	-56.769962	92.51	0.620	-1.680	1.530	92.41	-3.00	2.00	 	 	 	 	 	 	 	 	 	 	 	 	 	 	 	 	 	 	1581531080	9.87	18.28
12/02/2020 18:11:21	120220	12022020	181121	91.89	12.418760	-56.769923	91.86	0.810	-1.080	1.460	91.76	-2.20	1.80	 	 	 	 	 	 	 	 	 	 	 	 	 	 	 	 	 	 	1581531081	8.18	15.15
12/02/2020 18:11:22	120220	12022020	181122	91.40	12.418763	-56.769890	91.37	0.400	-0.010	1.070	91.40	-1.50	1.60	 	 	 	 	 	 	 	 	 	 	 	 	 	 	 	 	 	 	1581531082	7.01	12.98
12/02/2020 18:11:23	120220	12022020	181123	91.28	12.418770	-56.769853	91.27	0.020	0.150	0.550	91.29	-1.30	0.90	 	 	 	 	 	 	 	 	 	 	 	 	 	 	 	 	 	 	1581531083	7.64	14.15
12/02/2020 18:11:24	120220	12022020	181124	91.42	12.418772	-56.769813	91.43	-0.140	-0.320	0.260	91.42	-1.60	0.70	 	 	 	 	 	 	 	 	 	 	 	 	 	 	 	 	 	 	1581531084	8.71	16.13
12/02/2020 18:11:25	120220	12022020	181125	91.74	12.418770	-56.769772	91.73	-0.250	-0.430	0.290	91.78	-1.70	0.80	 	 	 	 	 	 	 	 	 	 	 	 	 	 	 	 	 	 	1581531085	8.70	16.11
12/02/2020 18:11:26	120220	12022020	181126	91.82	12.418763	-56.769733	91.80	-0.300	-0.070	0.850	91.79	-1.30	1.50	 	 	 	 	 	 	 	 	 	 	 	 	 	 	 	 	 	 	1581531086	8.13	15.06
12/02/2020 18:11:27	120220	12022020	181127	91.47	12.418757	-56.769697	91.44	-0.190	0.180	1.570	91.37	-1.20	2.10	 	 	 	 	 	 	 	 	 	 	 	 	 	 	 	 	 	 	1581531087	7.99	14.80
12/02/2020 18:11:28	120220	12022020	181128	90.95	12.418753	-56.769658	90.92	0.080	-0.040	1.740	90.85	-1.50	2.10	 	 	 	 	 	 	 	 	 	 	 	 	 	 	 	 	 	 	1581531088	8.31	15.39
12/02/2020 18:11:29	120220	12022020	181129	90.50	12.418757	-56.769617	90.46	0.320	-0.390	1.370	90.43	-1.80	1.70	 	 	 	 	 	 	 	 	 	 	 	 	 	 	 	 	 	 	1581531089	8.69	16.09
12/02/2020 18:11:30	120220	12022020	181130	90.34	12.418763	-56.769577	90.32	0.430	-0.520	0.920	90.36	-1.90	1.30	 	 	 	 	 	 	 	 	 	 	 	 	 	 	 	 	 	 	1581531090	8.67	16.06
12/02/2020 18:11:31	120220	12022020	181131	90.66	12.418770	-56.769537	90.66	0.350	-0.510	0.430	90.76	-1.90	0.80	 	 	 	 	 	 	 	 	 	 	 	 	 	 	 	 	 	 	1581531091	8.50	15.74
12/02/2020 18:11:32	120220	12022020	181132	91.10	12.418770	-56.769497	91.11	0.130	-0.510	0.410	91.15	-1.90	1.00	 	 	 	 	 	 	 	 	 	 	 	 	 	 	 	 	 	 	1581531092	8.43	15.61
12/02/2020 18:11:33	120220	12022020	181133	91.13	12.418765	-56.769457	91.10	-0.120	-0.420	1.310	91.08	-1.70	2.00	 	 	 	 	 	 	 	 	 	 	 	 	 	 	 	 	 	 	1581531093	8.54	15.82
12/02/2020 18:11:34	120220	12022020	181134	90.76	12.418757	-56.769418	90.73	-0.280	0.060	2.270	90.76	-1.40	2.60	 	 	 	 	 	 	 	 	 	 	 	 	 	 	 	 	 	 	1581531094	8.39	15.54
12/02/2020 18:11:35	120220	12022020	181135	90.34	12.418752	-56.769382	90.32	-0.360	0.690	2.430	90.27	-0.60	2.80	 	 	 	 	 	 	 	 	 	 	 	 	 	 	 	 	 	 	1581531095	7.70	14.26
12/02/2020 18:11:36	120220	12022020	181136	90.09	12.418755	-56.769345	90.08	-0.240	0.450	2.030	90.09	-0.80	2.50	 	 	 	 	 	 	 	 	 	 	 	 	 	 	 	 	 	 	1581531096	7.93	14.69
12/02/2020 18:11:37	120220	12022020	181137	90.03	12.418760	-56.769300	90.02	0.240	-0.860	1.390	90.06	-2.50	1.70	 	 	 	 	 	 	 	 	 	 	 	 	 	 	 	 	 	 	1581531097	9.34	17.30
12/02/2020 18:11:38	120220	12022020	181138	90.21	12.418765	-56.769255	90.19	0.610	-1.600	0.840	90.26	-2.90	1.20	 	 	 	 	 	 	 	 	 	 	 	 	 	 	 	 	 	 	1581531098	9.82	18.19
12/02/2020 18:11:39	120220	12022020	181139	90.49	12.418767	-56.769215	90.47	0.430	-0.960	0.720	90.54	-2.10	1.20	 	 	 	 	 	 	 	 	 	 	 	 	 	 	 	 	 	 	1581531099	8.41	15.58
12/02/2020 18:11:40	120220	12022020	181140	90.72	12.418765	-56.769180	90.70	-0.090	0.180	0.890	90.74	-1.00	1.40	 	 	 	 	 	 	 	 	 	 	 	 	 	 	 	 	 	 	1581531100	7.33	13.58
12/02/2020 18:11:41	120220	12022020	181141	90.75	12.418763	-56.769145	90.70	-0.450	0.780	1.150	90.73	-0.60	1.60	 	 	 	 	 	 	 	 	 	 	 	 	 	 	 	 	 	 	1581531101	7.51	13.91
12/02/2020 18:11:42	120220	12022020	181142	90.64	12.418763	-56.769105	90.59	-0.430	0.490	1.250	90.62	-1.00	1.70	 	 	 	 	 	 	 	 	 	 	 	 	 	 	 	 	 	 	1581531102	8.33	15.43
12/02/2020 18:11:43	120220	12022020	181143	90.57	12.418763	-56.769062	90.53	-0.130	-0.350	1.170	90.57	-1.90	1.60	 	 	 	 	 	 	 	 	 	 	 	 	 	 	 	 	 	 	1581531103	9.16	16.96
12/02/2020 18:11:44	120220	12022020	181144	90.59	12.418765	-56.769017	90.57	0.140	-0.990	1.070	90.61	-2.40	1.50	 	 	 	 	 	 	 	 	 	 	 	 	 	 	 	 	 	 	1581531104	9.35	17.32
12/02/2020 18:11:45	120220	12022020	181145	90.71	12.418768	-56.768977	90.69	0.130	-0.940	0.840	90.73	-2.20	1.20	 	 	 	 	 	 	 	 	 	 	 	 	 	 	 	 	 	 	1581531105	8.80	16.30
12/02/2020 18:11:46	120220	12022020	181146	90.78	12.418768	-56.768938	90.76	-0.050	-0.370	0.810	90.78	-1.80	1.20	 	 	 	 	 	 	 	 	 	 	 	 	 	 	 	 	 	 	1581531106	8.11	15.02
12/02/2020 18:11:47	120220	12022020	181147	90.75	12.418767	-56.768900	90.72	-0.100	0.170	1.160	90.74	-1.10	1.70	 	 	 	 	 	 	 	 	 	 	 	 	 	 	 	 	 	 	1581531107	7.91	14.65
12/02/2020 18:11:48	120220	12022020	181148	90.65	12.418765	-56.768860	90.61	0.060	0.150	1.250	90.65	-1.20	1.70	 	 	 	 	 	 	 	 	 	 	 	 	 	 	 	 	 	 	1581531108	8.37	15.50
12/02/2020 18:11:49	120220	12022020	181149	90.45	12.418767	-56.768818	90.38	0.230	-0.290	1.040	90.39	-1.70	1.40	 	 	 	 	 	 	 	 	 	 	 	 	 	 	 	 	 	 	1581531109	9.03	16.72
12/02/2020 18:11:50	120220	12022020	181150	90.23	12.418770	-56.768775	90.17	0.230	-0.580	0.940	90.23	-1.90	1.40	 	 	 	 	 	 	 	 	 	 	 	 	 	 	 	 	 	 	1581531110	9.20	17.04
12/02/2020 18:11:51	120220	12022020	181151	90.37	12.418772	-56.768733	90.37	0.010	-0.370	0.840	90.45	-1.60	1.20	 	 	 	 	 	 	 	 	 	 	 	 	 	 	 	 	 	 	1581531111	8.71	16.13
12/02/2020 18:11:52	120220	12022020	181152	90.79	12.418773	-56.768695	90.78	-0.250	0.010	0.700	90.85	-1.30	1.10	 	 	 	 	 	 	 	 	 	 	 	 	 	 	 	 	 	 	1581531112	8.24	15.26
12/02/2020 18:11:53	120220	12022020	181153	90.92	12.418772	-56.768655	90.90	-0.390	0.230	0.820	90.92	-1.10	1.30	 	 	 	 	 	 	 	 	 	 	 	 	 	 	 	 	 	 	1581531113	8.26	15.30
12/02/2020 18:11:54	120220	12022020	181154	90.84	12.418770	-56.768615	90.81	-0.390	0.230	1.210	90.81	-1.20	1.70	 	 	 	 	 	 	 	 	 	 	 	 	 	 	 	 	 	 	1581531114	8.41	15.58
12/02/2020 18:11:55	120220	12022020	181155	90.75	12.418768	-56.768575	90.73	-0.220	-0.170	1.490	90.73	-1.70	1.90	 	 	 	 	 	 	 	 	 	 	 	 	 	 	 	 	 	 	1581531115	8.64	16.00
12/02/2020 18:11:56	120220	12022020	181156	90.64	12.418767	-56.768532	90.60	0.130	-0.950	1.470	90.60	-2.50	1.90	 	 	 	 	 	 	 	 	 	 	 	 	 	 	 	 	 	 	1581531116	9.23	17.09
12/02/2020 18:11:57	120220	12022020	181157	90.44	12.418770	-56.768485	90.39	0.520	-1.610	1.230	90.40	-3.00	1.60	 	 	 	 	 	 	 	 	 	 	 	 	 	 	 	 	 	 	1581531117	9.60	17.78
12/02/2020 18:11:58	120220	12022020	181158	90.29	12.418773	-56.768442	90.25	0.740	-1.510	0.910	90.28	-2.70	1.30	 	 	 	 	 	 	 	 	 	 	 	 	 	 	 	 	 	 	1581531118	9.47	17.54
12/02/2020 18:11:59	120220	12022020	181159	90.41	12.418778	-56.768402	90.40	0.480	-0.240	0.770	90.47	-1.20	1.20	 	 	 	 	 	 	 	 	 	 	 	 	 	 	 	 	 	 	1581531119	8.51	15.76
12/02/2020 18:12:00	120220	12022020	181200	90.75	12.418778	-56.768367	90.74	-0.390	1.480	0.930	90.75	-0.10	1.30	 	 	 	 	 	 	 	 	 	 	 	 	 	 	 	 	 	 	1581531120	7.27	13.46
12/02/2020 18:12:01	120220	12022020	181201	90.94	12.418775	-56.768332	90.91	-1.350	2.160	1.250	90.95	0.70	1.80	 	 	 	 	 	 	 	 	 	 	 	 	 	 	 	 	 	 	1581531121	7.23	13.39
12/02/2020 18:12:02	120220	12022020	181202	90.89	12.418773	-56.768292	90.86	-1.510	1.000	1.520	90.86	-0.90	2.00	1014.90	26.50	26.50	20.60	20.70	586.0	70.0	70.0	426.0	28.3	344.00	14.80	69.00	10.80	46211	11105.0	27.4	27.4	1581531122	8.59	15.91
12/02/2020 18:12:03	120220	12022020	181203	90.70	12.418772	-56.768243	90.65	-0.440	-1.490	1.570	90.67	-3.40	2.00	 	 	 	 	 	 	 	 	 	 	 	 	 	 	 	 	 	 	1581531123	10.43	19.32
12/02/2020 18:12:04	120220	12022020	181204	90.57	12.418772	-56.768190	90.54	1.090	-3.280	1.490	90.55	-4.70	1.90	 	 	 	 	 	 	 	 	 	 	 	 	 	 	 	 	 	 	1581531124	11.18	20.71
12/02/2020 18:12:05	120220	12022020	181205	90.56	12.418772	-56.768145	90.55	1.610	-2.400	1.350	90.58	-3.20	1.70	 	 	 	 	 	 	 	 	 	 	 	 	 	 	 	 	 	 	1581531125	9.43	17.46
12/02/2020 18:12:06	120220	12022020	181206	90.67	12.418773	-56.768113	90.65	0.690	0.320	0.900	90.68	-0.40	1.20	 	 	 	 	 	 	 	 	 	 	 	 	 	 	 	 	 	 	1581531126	6.79	12.58
12/02/2020 18:12:07	120220	12022020	181207	90.69	12.418777	-56.768085	90.64	-0.740	2.610	0.510	90.67	1.50	0.90	 	 	 	 	 	 	 	 	 	 	 	 	 	 	 	 	 	 	1581531127	5.82	10.78
12/02/2020 18:12:08	120220	12022020	181208	90.56	12.418780	-56.768052	90.50	-1.380	2.620	0.470	90.54	0.90	0.90	 	 	 	 	 	 	 	 	 	 	 	 	 	 	 	 	 	 	1581531128	7.19	13.32
12/02/2020 18:12:09	120220	12022020	181209	90.60	12.418783	-56.768007	90.57	-0.960	0.590	0.290	90.66	-1.30	0.70	 	 	 	 	 	 	 	 	 	 	 	 	 	 	 	 	 	 	1581531129	9.55	17.69
12/02/2020 18:12:10	120220	12022020	181210	90.93	12.418787	-56.767957	90.91	-0.140	-1.650	0.050	90.99	-3.30	0.50	 	 	 	 	 	 	 	 	 	 	 	 	 	 	 	 	 	 	1581531130	10.54	19.52
12/02/2020 18:12:11	120220	12022020	181211	91.08	12.418787	-56.767910	91.05	0.500	-2.650	0.440	91.07	-4.00	1.10	 	 	 	 	 	 	 	 	 	 	 	 	 	 	 	 	 	 	1581531131	9.86	18.26
12/02/2020 18:12:12	120220	12022020	181212	90.88	12.418783	-56.767870	90.85	0.770	-2.150	1.280	90.88	-3.60	1.60	 	 	 	 	 	 	 	 	 	 	 	 	 	 	 	 	 	 	1581531132	8.65	16.02
12/02/2020 18:12:13	120220	12022020	181213	90.64	12.418778	-56.767832	90.64	0.640	-0.910	1.820	90.62	-2.00	2.30	 	 	 	 	 	 	 	 	 	 	 	 	 	 	 	 	 	 	1581531133	7.89	14.61
12/02/2020 18:12:14	120220	12022020	181214	90.57	12.418778	-56.767795	90.56	0.210	0.270	1.750	90.57	-1.20	2.20	 	 	 	 	 	 	 	 	 	 	 	 	 	 	 	 	 	 	1581531134	7.79	14.43
12/02/2020 18:12:15	120220	12022020	181215	90.69	12.418780	-56.767757	90.69	-0.270	1.060	1.310	90.74	-0.20	1.60	 	 	 	 	 	 	 	 	 	 	 	 	 	 	 	 	 	 	1581531135	8.07	14.95
12/02/2020 18:12:16	120220	12022020	181216	91.02	12.418783	-56.767718	91.02	-0.540	1.460	0.820	91.08	0.10	1.20	 	 	 	 	 	 	 	 	 	 	 	 	 	 	 	 	 	 	1581531136	8.19	15.17
12/02/2020 18:12:17	120220	12022020	181217	91.31	12.418785	-56.767678	91.29	-0.530	1.080	0.530	91.34	-0.50	1.00	 	 	 	 	 	 	 	 	 	 	 	 	 	 	 	 	 	 	1581531137	8.51	15.76
12/02/2020 18:12:18	120220	12022020	181218	91.32	12.418787	-56.767635	91.29	-0.360	0.000	0.540	91.31	-1.60	1.00	 	 	 	 	 	 	 	 	 	 	 	 	 	 	 	 	 	 	1581531138	9.13	16.91
12/02/2020 18:12:19	120220	12022020	181219	91.27	12.418787	-56.767590	91.25	-0.090	-1.220	0.690	91.29	-2.80	1.20	 	 	 	 	 	 	 	 	 	 	 	 	 	 	 	 	 	 	1581531139	9.46	17.52
12/02/2020 18:12:20	120220	12022020	181220	91.47	12.418787	-56.767547	91.48	0.380	-1.890	0.810	91.53	-3.20	1.30	 	 	 	 	 	 	 	 	 	 	 	 	 	 	 	 	 	 	1581531140	9.37	17.35
12/02/2020 18:12:21	120220	12022020	181221	91.69	12.418787	-56.767505	91.69	0.780	-1.540	0.890	91.70	-2.70	1.40	 	 	 	 	 	 	 	 	 	 	 	 	 	 	 	 	 	 	1581531141	8.77	16.24
12/02/2020 18:12:22	120220	12022020	181222	91.55	12.418787	-56.767467	91.50	0.700	-0.550	1.010	91.47	-1.70	1.50	 	 	 	 	 	 	 	 	 	 	 	 	 	 	 	 	 	 	1581531142	8.05	14.91
12/02/2020 18:12:23	120220	12022020	181223	91.07	12.418787	-56.767430	91.01	0.180	0.380	1.290	90.98	-0.80	1.80	 	 	 	 	 	 	 	 	 	 	 	 	 	 	 	 	 	 	1581531143	7.81	14.46
12/02/2020 18:12:24	120220	12022020	181224	90.79	12.418787	-56.767392	90.78	-0.340	0.850	1.280	90.79	-0.50	1.80	 	 	 	 	 	 	 	 	 	 	 	 	 	 	 	 	 	 	1581531144	8.10	15.00
12/02/2020 18:12:25	120220	12022020	181225	90.96	12.418790	-56.767350	90.95	-0.450	0.520	0.960	91.02	-1.00	1.40	 	 	 	 	 	 	 	 	 	 	 	 	 	 	 	 	 	 	1581531145	8.67	16.06
12/02/2020 18:12:26	120220	12022020	181226	91.23	12.418790	-56.767305	91.22	-0.130	-0.500	0.810	91.23	-1.70	1.30	 	 	 	 	 	 	 	 	 	 	 	 	 	 	 	 	 	 	1581531146	9.60	17.78
12/02/2020 18:12:27	120220	12022020	181227	91.15	12.418788	-56.767258	91.12	0.210	-1.100	1.150	91.09	-2.40	1.70	 	 	 	 	 	 	 	 	 	 	 	 	 	 	 	 	 	 	1581531147	9.78	18.11
12/02/2020 18:12:28	120220	12022020	181228	90.80	12.418785	-56.767217	90.78	0.170	-0.590	1.600	90.74	-1.70	2.10	 	 	 	 	 	 	 	 	 	 	 	 	 	 	 	 	 	 	1581531148	8.80	16.30
12/02/2020 18:12:29	120220	12022020	181229	90.50	12.418783	-56.767182	90.49	-0.210	0.420	1.760	90.47	-0.80	2.20	 	 	 	 	 	 	 	 	 	 	 	 	 	 	 	 	 	 	1581531149	7.71	14.28
12/02/2020 18:12:30	120220	12022020	181230	90.43	12.418787	-56.767145	90.43	-0.490	0.820	1.400	90.46	-0.60	1.70	 	 	 	 	 	 	 	 	 	 	 	 	 	 	 	 	 	 	1581531150	7.71	14.28
12/02/2020 18:12:31	120220	12022020	181231	90.70	12.418792	-56.767103	90.70	-0.260	0.050	0.650	90.79	-1.60	1.00	 	 	 	 	 	 	 	 	 	 	 	 	 	 	 	 	 	 	1581531151	8.84	16.37
12/02/2020 18:12:32	120220	12022020	181232	91.16	12.418797	-56.767057	91.17	0.360	-1.260	0.280	91.24	-2.80	0.80	 	 	 	 	 	 	 	 	 	 	 	 	 	 	 	 	 	 	1581531152	9.95	18.43
12/02/2020 18:12:33	120220	12022020	181233	91.34	12.418797	-56.767010	91.31	0.890	-1.860	0.850	91.30	-3.20	1.50	 	 	 	 	 	 	 	 	 	 	 	 	 	 	 	 	 	 	1581531153	9.90	18.33
12/02/2020 18:12:34	120220	12022020	181234	90.99	12.418792	-56.766968	90.95	0.870	-1.150	1.620	90.88	-2.20	2.20	 	 	 	 	 	 	 	 	 	 	 	 	 	 	 	 	 	 	1581531154	8.94	16.56
12/02/2020 18:12:35	120220	12022020	181235	90.49	12.418788	-56.766932	90.47	0.230	0.330	1.860	90.42	-0.70	2.30	 	 	 	 	 	 	 	 	 	 	 	 	 	 	 	 	 	 	1581531155	7.76	14.37
12/02/2020 18:12:36	120220	12022020	181236	90.35	12.418790	-56.766895	90.36	-0.610	1.380	1.580	90.39	0.10	1.90	 	 	 	 	 	 	 	 	 	 	 	 	 	 	 	 	 	 	1581531156	7.47	13.83
12/02/2020 18:12:37	120220	12022020	181237	90.72	12.418795	-56.766857	90.75	-1.070	1.190	0.920	90.84	-0.40	1.20	 	 	 	 	 	 	 	 	 	 	 	 	 	 	 	 	 	 	1581531157	8.34	15.45
12/02/2020 18:12:38	120220	12022020	181238	91.39	12.418800	-56.766812	91.40	-0.870	0.010	0.110	91.39	-1.20	0.70	 	 	 	 	 	 	 	 	 	 	 	 	 	 	 	 	 	 	1581531158	9.48	17.56
12/02/2020 18:12:39	120220	12022020	181239	91.95	12.418802	-56.766765	91.94	-0.160	-1.330	0.050	92.02	-2.90	0.60	 	 	 	 	 	 	 	 	 	 	 	 	 	 	 	 	 	 	1581531159	9.98	18.48
12/02/2020 18:12:40	120220	12022020	181240	92.07	12.418798	-56.766718	92.03	0.630	-1.890	0.690	92.07	-3.20	1.00	 	 	 	 	 	 	 	 	 	 	 	 	 	 	 	 	 	 	1581531160	9.77	18.09
12/02/2020 18:12:41	120220	12022020	181241	91.80	12.418795	-56.766677	91.75	1.030	-1.240	1.060	91.73	-2.30	1.50	 	 	 	 	 	 	 	 	 	 	 	 	 	 	 	 	 	 	1581531161	8.78	16.26
12/02/2020 18:12:42	120220	12022020	181242	91.50	12.418797	-56.766640	91.47	0.850	0.010	0.990	91.48	-1.10	1.40	 	 	 	 	 	 	 	 	 	 	 	 	 	 	 	 	 	 	1581531162	7.97	14.76
12/02/2020 18:12:43	120220	12022020	181243	91.54	12.418800	-56.766603	91.53	0.110	1.050	0.840	91.60	-0.20	1.30	 	 	 	 	 	 	 	 	 	 	 	 	 	 	 	 	 	 	1581531163	7.81	14.46
12/02/2020 18:12:44	120220	12022020	181244	91.91	12.418803	-56.766565	91.90	-0.690	1.180	0.610	91.98	-0.30	1.00	 	 	 	 	 	 	 	 	 	 	 	 	 	 	 	 	 	 	1581531164	8.14	15.08
12/02/2020 18:12:45	120220	12022020	181245	92.19	12.418803	-56.766522	92.16	-0.900	0.190	0.500	92.23	-1.50	0.90	 	 	 	 	 	 	 	 	 	 	 	 	 	 	 	 	 	 	1581531165	9.11	16.87
12/02/2020 18:12:46	120220	12022020	181246	92.37	12.418802	-56.766475	92.34	-0.330	-1.110	0.590	92.40	-2.70	1.10	 	 	 	 	 	 	 	 	 	 	 	 	 	 	 	 	 	 	1581531166	9.99	18.50
12/02/2020 18:12:47	120220	12022020	181247	92.48	12.418798	-56.766428	92.46	0.410	-1.550	0.790	92.48	-2.80	1.30	 	 	 	 	 	 	 	 	 	 	 	 	 	 	 	 	 	 	1581531167	9.73	18.02
12/02/2020 18:12:48	120220	12022020	181248	92.41	12.418797	-56.766387	92.36	0.620	-0.960	1.000	92.36	-2.10	1.50	 	 	 	 	 	 	 	 	 	 	 	 	 	 	 	 	 	 	1581531168	8.68	16.08
12/02/2020 18:12:49	120220	12022020	181249	92.12	12.418795	-56.766348	92.07	0.300	-0.160	1.110	92.05	-1.40	1.50	 	 	 	 	 	 	 	 	 	 	 	 	 	 	 	 	 	 	1581531169	8.10	15.00
12/02/2020 18:12:50	120220	12022020	181250	91.83	12.418797	-56.766308	91.79	-0.060	0.120	0.870	91.80	-1.30	1.20	 	 	 	 	 	 	 	 	 	 	 	 	 	 	 	 	 	 	1581531170	8.51	15.76
12/02/2020 18:12:51	120220	12022020	181251	91.80	12.418800	-56.766265	91.77	-0.190	0.060	0.650	91.82	-1.30	1.10	 	 	 	 	 	 	 	 	 	 	 	 	 	 	 	 	 	 	1581531171	9.19	17.02
12/02/2020 18:12:52	120220	12022020	181252	91.96	12.418800	-56.766223	91.95	-0.270	0.260	0.590	91.99	-1.00	1.00	 	 	 	 	 	 	 	 	 	 	 	 	 	 	 	 	 	 	1581531172	8.94	16.56
12/02/2020 18:12:53	120220	12022020	181253	92.08	12.418800	-56.766183	92.07	-0.320	0.350	0.640	92.07	-1.10	1.10	 	 	 	 	 	 	 	 	 	 	 	 	 	 	 	 	 	 	1581531173	8.51	15.76
12/02/2020 18:12:54	120220	12022020	181254	91.95	12.418797	-56.766140	91.93	-0.100	-0.330	0.990	91.95	-1.60	1.40	 	 	 	 	 	 	 	 	 	 	 	 	 	 	 	 	 	 	1581531174	9.07	16.80
12/02/2020 18:12:55	120220	12022020	181255	91.64	12.418793	-56.766093	91.64	0.360	-1.280	1.420	91.60	-2.80	1.90	 	 	 	 	 	 	 	 	 	 	 	 	 	 	 	 	 	 	1581531175	10.00	18.52
12/02/2020 18:12:56	120220	12022020	181256	91.52	12.418793	-56.766047	91.53	0.550	-1.300	1.540	91.53	-2.50	2.00	 	 	 	 	 	 	 	 	 	 	 	 	 	 	 	 	 	 	1581531176	9.70	17.96
12/02/2020 18:12:57	120220	12022020	181257	91.60	12.418793	-56.766007	91.60	0.190	-0.170	1.450	91.62	-1.20	1.90	 	 	 	 	 	 	 	 	 	 	 	 	 	 	 	 	 	 	1581531177	8.36	15.48
12/02/2020 18:12:58	120220	12022020	181258	91.71	12.418795	-56.765972	91.70	-0.430	1.020	1.310	91.73	-0.20	1.70	 	 	 	 	 	 	 	 	 	 	 	 	 	 	 	 	 	 	1581531178	7.52	13.93
12/02/2020 18:12:59	120220	12022020	181259	91.83	12.418795	-56.765933	91.83	-0.670	1.010	1.310	91.86	-0.60	1.70	 	 	 	 	 	 	 	 	 	 	 	 	 	 	 	 	 	 	1581531179	8.07	14.95
12/02/2020 18:13:00	120220	12022020	181300	91.95	12.418793	-56.765887	91.95	-0.080	-0.540	1.240	91.96	-2.30	1.60	 	 	 	 	 	 	 	 	 	 	 	 	 	 	 	 	 	 	1581531180	9.76	18.08
12/02/2020 18:13:01	120220	12022020	181301	92.01	12.418795	-56.765835	92.01	0.840	-1.910	1.080	92.02	-3.30	1.50	 	 	 	 	 	 	 	 	 	 	 	 	 	 	 	 	 	 	1581531181	10.90	20.19
12/02/2020 18:13:02	120220	12022020	181302	92.11	12.418795	-56.765792	92.12	1.040	-1.270	1.160	92.11	-2.80	1.60	1015.00	26.40	26.40	20.50	20.60	537.0	70.0	70.0	420.0	28.2	340.00	16.10	63.00	11.90	44233	12253.0	27.4	27.4	1581531182	9.45	17.50
12/02/2020 18:13:03	120220	12022020	181303	92.33	12.418795	-56.765757	92.35	0.280	0.520	1.440	92.38	-0.50	1.90	 	 	 	 	 	 	 	 	 	 	 	 	 	 	 	 	 	 	1581531183	7.28	13.48
12/02/2020 18:13:04	120220	12022020	181304	92.55	12.418792	-56.765723	92.55	-0.660	1.380	1.630	92.55	-0.00	2.00	 	 	 	 	 	 	 	 	 	 	 	 	 	 	 	 	 	 	1581531184	7.09	13.13
12/02/2020 18:13:05	120220	12022020	181305	92.49	12.418792	-56.765682	92.48	-0.830	0.510	1.690	92.45	-1.20	2.10	 	 	 	 	 	 	 	 	 	 	 	 	 	 	 	 	 	 	1581531185	8.79	16.28
12/02/2020 18:13:06	120220	12022020	181306	92.23	12.418790	-56.765633	92.22	-0.250	-1.020	1.670	92.19	-2.60	2.10	 	 	 	 	 	 	 	 	 	 	 	 	 	 	 	 	 	 	1581531186	10.30	19.08
12/02/2020 18:13:07	120220	12022020	181307	92.25	12.418792	-56.765585	92.27	0.370	-1.710	1.350	92.31	-3.00	1.70	 	 	 	 	 	 	 	 	 	 	 	 	 	 	 	 	 	 	1581531187	10.24	18.96
12/02/2020 18:13:08	120220	12022020	181308	92.59	12.418793	-56.765543	92.60	0.370	-0.990	1.070	92.64	-2.10	1.50	 	 	 	 	 	 	 	 	 	 	 	 	 	 	 	 	 	 	1581531188	8.85	16.39
12/02/2020 18:13:09	120220	12022020	181309	92.74	12.418792	-56.765507	92.74	-0.140	0.160	1.120	92.73	-1.00	1.60	 	 	 	 	 	 	 	 	 	 	 	 	 	 	 	 	 	 	1581531189	7.71	14.28
12/02/2020 18:13:10	120220	12022020	181310	92.60	12.418788	-56.765468	92.59	-0.480	0.500	1.340	92.57	-0.90	1.80	 	 	 	 	 	 	 	 	 	 	 	 	 	 	 	 	 	 	1581531190	8.16	15.11
12/02/2020 18:13:11	120220	12022020	181311	92.47	12.418785	-56.765423	92.46	-0.310	0.100	1.310	92.45	-1.40	1.70	 	 	 	 	 	 	 	 	 	 	 	 	 	 	 	 	 	 	1581531191	9.29	17.21
12/02/2020 18:13:12	120220	12022020	181312	92.40	12.418783	-56.765378	92.38	0.020	-0.130	1.180	92.38	-1.50	1.60	 	 	 	 	 	 	 	 	 	 	 	 	 	 	 	 	 	 	1581531192	9.46	17.52
12/02/2020 18:13:13	120220	12022020	181313	92.34	12.418783	-56.765337	92.31	0.160	0.030	0.730	92.32	-1.30	1.10	 	 	 	 	 	 	 	 	 	 	 	 	 	 	 	 	 	 	1581531193	8.84	16.37
12/02/2020 18:13:14	120220	12022020	181314	92.25	12.418788	-56.765297	92.21	0.170	0.120	0.240	92.25	-1.20	0.70	 	 	 	 	 	 	 	 	 	 	 	 	 	 	 	 	 	 	1581531194	8.55	15.83
12/02/2020 18:13:15	120220	12022020	181315	92.18	12.418790	-56.765255	92.15	0.310	-0.320	0.230	92.20	-1.90	0.70	 	 	 	 	 	 	 	 	 	 	 	 	 	 	 	 	 	 	1581531195	8.91	16.50
12/02/2020 18:13:16	120220	12022020	181316	92.35	12.418792	-56.765208	92.33	0.560	-1.160	0.460	92.35	-2.40	0.90	 	 	 	 	 	 	 	 	 	 	 	 	 	 	 	 	 	 	1581531196	9.67	17.91
12/02/2020 18:13:17	120220	12022020	181317	92.40	12.418788	-56.765163	92.37	0.450	-1.350	0.960	92.37	-2.50	1.50	 	 	 	 	 	 	 	 	 	 	 	 	 	 	 	 	 	 	1581531197	9.72	18.00
12/02/2020 18:13:18	120220	12022020	181318	92.09	12.418785	-56.765123	92.05	-0.280	-0.180	1.610	92.01	-1.20	2.20	 	 	 	 	 	 	 	 	 	 	 	 	 	 	 	 	 	 	1581531198	8.37	15.50
12/02/2020 18:13:19	120220	12022020	181319	91.60	12.418778	-56.765090	91.57	-1.150	1.230	2.200	91.51	-0.00	2.70	 	 	 	 	 	 	 	 	 	 	 	 	 	 	 	 	 	 	1581531199	7.17	13.28
12/02/2020 18:13:20	120220	12022020	181320	91.24	12.418775	-56.765053	91.23	-1.100	0.830	2.200	91.20	-0.90	2.50	 	 	 	 	 	 	 	 	 	 	 	 	 	 	 	 	 	 	1581531200	8.01	14.83
12/02/2020 18:13:21	120220	12022020	181321	91.20	12.418775	-56.765003	91.20	0.070	-1.200	1.490	91.23	-2.90	1.70	 	 	 	 	 	 	 	 	 	 	 	 	 	 	 	 	 	 	1581531201	10.51	19.46
12/02/2020 18:13:22	120220	12022020	181322	91.41	12.418780	-56.764952	91.41	1.070	-2.210	0.800	91.46	-3.40	1.20	 	 	 	 	 	 	 	 	 	 	 	 	 	 	 	 	 	 	1581531202	11.03	20.43
12/02/2020 18:13:23	120220	12022020	181323	91.66	12.418782	-56.764910	91.67	0.900	-0.920	0.900	91.70	-1.80	1.40	 	 	 	 	 	 	 	 	 	 	 	 	 	 	 	 	 	 	1581531203	8.67	16.06
12/02/2020 18:13:24	120220	12022020	181324	91.87	12.418778	-56.764880	91.88	-0.190	1.280	1.410	91.91	0.30	1.90	 	 	 	 	 	 	 	 	 	 	 	 	 	 	 	 	 	 	1581531204	6.53	12.09
12/02/2020 18:13:25	120220	12022020	181325	92.03	12.418775	-56.764848	92.03	-0.990	2.130	1.660	92.05	0.60	2.10	 	 	 	 	 	 	 	 	 	 	 	 	 	 	 	 	 	 	1581531205	6.61	12.24
12/02/2020 18:13:26	120220	12022020	181326	92.01	12.418775	-56.764807	91.99	-0.680	0.690	1.580	91.97	-1.10	2.00	 	 	 	 	 	 	 	 	 	 	 	 	 	 	 	 	 	 	1581531206	8.88	16.45
12/02/2020 18:13:27	120220	12022020	181327	91.77	12.418775	-56.764757	91.74	0.150	-1.170	1.540	91.72	-2.80	2.00	 	 	 	 	 	 	 	 	 	 	 	 	 	 	 	 	 	 	1581531207	10.48	19.41
12/02/2020 18:13:28	120220	12022020	181328	91.65	12.418777	-56.764712	91.65	0.660	-1.820	1.530	91.65	-3.20	2.00	 	 	 	 	 	 	 	 	 	 	 	 	 	 	 	 	 	 	1581531208	9.72	18.00
12/02/2020 18:13:29	120220	12022020	181329	91.87	12.418778	-56.764672	91.90	0.610	-1.310	1.420	91.94	-2.50	1.80	 	 	 	 	 	 	 	 	 	 	 	 	 	 	 	 	 	 	1581531209	8.35	15.46
12/02/2020 18:13:30	120220	12022020	181330	92.18	12.418778	-56.764635	92.18	0.350	-0.510	1.250	92.18	-2.00	1.70	 	 	 	 	 	 	 	 	 	 	 	 	 	 	 	 	 	 	1581531210	7.82	14.48
12/02/2020 18:13:31	120220	12022020	181331	92.27	12.418777	-56.764597	92.25	0.180	0.030	1.370	92.25	-1.20	1.90	 	 	 	 	 	 	 	 	 	 	 	 	 	 	 	 	 	 	1581531211	8.14	15.08
12/02/2020 18:13:32	120220	12022020	181332	92.12	12.418773	-56.764557	92.10	-0.130	0.490	1.750	92.09	-0.80	2.20	 	 	 	 	 	 	 	 	 	 	 	 	 	 	 	 	 	 	1581531212	8.43	15.61
12/02/2020 18:13:33	120220	12022020	181333	92.01	12.418770	-56.764518	92.00	-0.680	0.810	1.800	91.99	-0.60	2.20	 	 	 	 	 	 	 	 	 	 	 	 	 	 	 	 	 	 	1581531213	8.18	15.15
12/02/2020 18:13:34	120220	12022020	181334	91.98	12.418768	-56.764478	91.97	-1.010	0.460	1.630	91.97	-1.10	2.00	 	 	 	 	 	 	 	 	 	 	 	 	 	 	 	 	 	 	1581531214	8.37	15.50
12/02/2020 18:13:35	120220	12022020	181335	91.92	12.418767	-56.764435	91.90	-0.660	-0.600	1.330	91.90	-2.20	1.70	 	 	 	 	 	 	 	 	 	 	 	 	 	 	 	 	 	 	1581531215	9.19	17.02
12/02/2020 18:13:36	120220	12022020	181336	91.82	12.418768	-56.764388	91.80	0.230	-1.550	0.970	91.80	-3.00	1.40	 	 	 	 	 	 	 	 	 	 	 	 	 	 	 	 	 	 	1581531216	9.78	18.11
12/02/2020 18:13:37	120220	12022020	181337	91.71	12.418770	-56.764345	91.68	0.920	-1.470	1.020	91.68	-2.70	1.50	 	 	 	 	 	 	 	 	 	 	 	 	 	 	 	 	 	 	1581531217	9.26	17.15
12/02/2020 18:13:38	120220	12022020	181338	91.60	12.418770	-56.764305	91.58	0.880	-0.510	1.240	91.59	-1.60	1.70	 	 	 	 	 	 	 	 	 	 	 	 	 	 	 	 	 	 	1581531218	8.24	15.26
12/02/2020 18:13:39	120220	12022020	181339	91.58	12.418768	-56.764270	91.55	0.320	0.510	1.380	91.58	-0.70	1.80	 	 	 	 	 	 	 	 	 	 	 	 	 	 	 	 	 	 	1581531219	7.72	14.30
12/02/2020 18:13:40	120220	12022020	181340	91.55	12.418768	-56.764232	91.53	-0.220	0.960	1.480	91.55	-0.40	1.90	 	 	 	 	 	 	 	 	 	 	 	 	 	 	 	 	 	 	1581531220	7.98	14.78
12/02/2020 18:13:41	120220	12022020	181341	91.50	12.418767	-56.764190	91.49	-0.400	0.590	1.460	91.49	-0.90	1.90	 	 	 	 	 	 	 	 	 	 	 	 	 	 	 	 	 	 	1581531221	8.67	16.06
12/02/2020 18:13:42	120220	12022020	181342	91.41	12.418767	-56.764147	91.38	-0.350	-0.200	1.490	91.36	-1.70	2.00	 	 	 	 	 	 	 	 	 	 	 	 	 	 	 	 	 	 	1581531222	9.34	17.30
12/02/2020 18:13:43	120220	12022020	181343	91.12	12.418763	-56.764103	91.09	-0.340	-0.730	1.670	91.06	-2.20	2.10	 	 	 	 	 	 	 	 	 	 	 	 	 	 	 	 	 	 	1581531223	9.23	17.09
12/02/2020 18:13:44	120220	12022020	181344	90.80	12.418762	-56.764062	90.75	-0.260	-0.990	1.620	90.75	-2.40	2.00	 	 	 	 	 	 	 	 	 	 	 	 	 	 	 	 	 	 	1581531224	8.81	16.32
12/02/2020 18:13:45	120220	12022020	181345	90.69	12.418763	-56.764018	90.67	0.210	-1.190	1.260	90.70	-2.50	1.60	 	 	 	 	 	 	 	 	 	 	 	 	 	 	 	 	 	 	1581531225	8.94	16.56
12/02/2020 18:13:46	120220	12022020	181346	90.74	12.418765	-56.763977	90.71	0.720	-0.950	1.060	90.75	-2.20	1.50	 	 	 	 	 	 	 	 	 	 	 	 	 	 	 	 	 	 	1581531226	9.02	16.71
12/02/2020 18:13:47	120220	12022020	181347	90.71	12.418767	-56.763937	90.67	0.630	-0.090	1.130	90.69	-1.20	1.60	 	 	 	 	 	 	 	 	 	 	 	 	 	 	 	 	 	 	1581531227	8.39	15.54
12/02/2020 18:13:48	120220	12022020	181348	90.63	12.418767	-56.763900	90.60	-0.070	0.840	1.330	90.62	-0.40	1.80	 	 	 	 	 	 	 	 	 	 	 	 	 	 	 	 	 	 	1581531228	7.87	14.58
12/02/2020 18:13:49	120220	12022020	181349	90.61	12.418765	-56.763862	90.59	-0.760	1.040	1.380	90.62	-0.40	1.80	 	 	 	 	 	 	 	 	 	 	 	 	 	 	 	 	 	 	1581531229	8.04	14.89
12/02/2020 18:13:50	120220	12022020	181350	90.68	12.418765	-56.763818	90.67	-0.770	0.010	1.210	90.70	-1.70	1.60	 	 	 	 	 	 	 	 	 	 	 	 	 	 	 	 	 	 	1581531230	9.12	16.89
12/02/2020 18:13:51	120220	12022020	181351	90.74	12.418763	-56.763770	90.73	-0.080	-1.290	1.220	90.74	-2.80	1.70	 	 	 	 	 	 	 	 	 	 	 	 	 	 	 	 	 	 	1581531231	10.18	18.85
12/02/2020 18:13:52	120220	12022020	181352	90.65	12.418763	-56.763725	90.62	0.580	-1.340	1.330	90.65	-2.80	1.80	 	 	 	 	 	 	 	 	 	 	 	 	 	 	 	 	 	 	1581531232	9.59	17.76
12/02/2020 18:13:53	120220	12022020	181353	90.46	12.418765	-56.763687	90.41	0.520	-0.210	1.230	90.43	-1.30	1.60	 	 	 	 	 	 	 	 	 	 	 	 	 	 	 	 	 	 	1581531233	8.01	14.83
12/02/2020 18:13:54	120220	12022020	181354	90.37	12.418768	-56.763652	90.35	-0.100	0.740	1.070	90.37	-0.70	1.50	 	 	 	 	 	 	 	 	 	 	 	 	 	 	 	 	 	 	1581531234	7.40	13.70
12/02/2020 18:13:55	120220	12022020	181355	90.51	12.418770	-56.763613	90.49	-0.510	0.370	0.980	90.55	-1.30	1.40	 	 	 	 	 	 	 	 	 	 	 	 	 	 	 	 	 	 	1581531235	8.29	15.35
12/02/2020 18:13:56	120220	12022020	181356	90.76	12.418772	-56.763565	90.75	-0.110	-1.050	0.850	90.81	-2.70	1.20	 	 	 	 	 	 	 	 	 	 	 	 	 	 	 	 	 	 	1581531236	9.94	18.41
12/02/2020 18:13:57	120220	12022020	181357	90.94	12.418772	-56.763517	90.91	0.620	-1.800	0.800	90.93	-3.10	1.30	 	 	 	 	 	 	 	 	 	 	 	 	 	 	 	 	 	 	1581531237	10.38	19.22
12/02/2020 18:13:58	120220	12022020	181358	90.80	12.418770	-56.763475	90.76	0.710	-0.740	1.430	90.75	-1.70	2.00	 	 	 	 	 	 	 	 	 	 	 	 	 	 	 	 	 	 	1581531238	8.90	16.48
12/02/2020 18:13:59	120220	12022020	181359	90.54	12.418765	-56.763442	90.52	-0.150	1.230	2.050	90.51	0.20	2.50	 	 	 	 	 	 	 	 	 	 	 	 	 	 	 	 	 	 	1581531239	7.04	13.04
12/02/2020 18:14:00	120220	12022020	181400	90.46	12.418765	-56.763410	90.45	-1.280	2.220	1.910	90.47	0.80	2.20	 	 	 	 	 	 	 	 	 	 	 	 	 	 	 	 	 	 	1581531240	6.64	12.30
12/02/2020 18:14:01	120220	12022020	181401	90.62	12.418768	-56.763370	90.61	-1.480	0.970	1.250	90.68	-0.90	1.50	 	 	 	 	 	 	 	 	 	 	 	 	 	 	 	 	 	 	1581531241	8.36	15.48
12/02/2020 18:14:02	120220	12022020	181402	90.90	12.418772	-56.763322	90.88	-0.420	-1.590	0.750	90.93	-3.40	1.20	1014.90	26.40	26.50	20.40	20.50	608.0	69.0	69.0	415.0	28.2	338.00	16.20	62.00	12.20	47020	5404.0	27.4	27.4	1581531242	10.55	19.54
12/02/2020 18:14:03	120220	12022020	181403	90.95	12.418773	-56.763270	90.90	0.990	-3.190	0.820	90.93	-4.60	1.30	 	 	 	 	 	 	 	 	 	 	 	 	 	 	 	 	 	 	1581531243	10.93	20.24
12/02/2020 18:14:04	120220	12022020	181404	90.82	12.418772	-56.763227	90.76	1.510	-2.360	1.190	90.82	-4.00	1.60	 	 	 	 	 	 	 	 	 	 	 	 	 	 	 	 	 	 	1581531244	9.16	16.96
12/02/2020 18:14:05	120220	12022020	181405	90.74	12.418770	-56.763193	90.72	0.830	0.150	1.720	90.75	-0.70	2.20	 	 	 	 	 	 	 	 	 	 	 	 	 	 	 	 	 	 	1581531245	6.91	12.80
12/02/2020 18:14:06	120220	12022020	181406	90.86	12.418768	-56.763163	90.87	-0.300	2.160	1.770	90.86	0.60	2.20	 	 	 	 	 	 	 	 	 	 	 	 	 	 	 	 	 	 	1581531246	6.20	11.48
12/02/2020 18:14:07	120220	12022020	181407	91.12	12.418770	-56.763128	91.10	-0.950	2.180	1.170	91.15	0.50	1.50	 	 	 	 	 	 	 	 	 	 	 	 	 	 	 	 	 	 	1581531247	7.60	14.08
12/02/2020 18:14:08	120220	12022020	181408	91.20	12.418773	-56.763083	91.15	-0.830	0.690	0.790	91.18	-1.10	1.20	 	 	 	 	 	 	 	 	 	 	 	 	 	 	 	 	 	 	1581531248	9.38	17.37
12/02/2020 18:14:09	120220	12022020	181409	91.03	12.418775	-56.763037	90.97	-0.250	-1.040	0.880	90.98	-2.70	1.40	 	 	 	 	 	 	 	 	 	 	 	 	 	 	 	 	 	 	1581531249	10.06	18.63
12/02/2020 18:14:10	120220	12022020	181410	90.80	12.418775	-56.762990	90.76	0.380	-1.980	1.060	90.77	-3.40	1.50	 	 	 	 	 	 	 	 	 	 	 	 	 	 	 	 	 	 	1581531250	9.66	17.89
12/02/2020 18:14:11	120220	12022020	181411	90.82	12.418777	-56.762948	90.81	0.750	-2.020	1.040	90.87	-3.30	1.50	 	 	 	 	 	 	 	 	 	 	 	 	 	 	 	 	 	 	1581531251	9.00	16.67
12/02/2020 18:14:12	120220	12022020	181412	91.09	12.418777	-56.762908	91.09	0.590	-1.140	1.170	91.15	-2.20	1.70	 	 	 	 	 	 	 	 	 	 	 	 	 	 	 	 	 	 	1581531252	8.40	15.56
12/02/2020 18:14:13	120220	12022020	181413	91.35	12.418773	-56.762873	91.34	-0.020	0.500	1.400	91.38	-0.50	1.90	 	 	 	 	 	 	 	 	 	 	 	 	 	 	 	 	 	 	1581531253	7.47	13.83
12/02/2020 18:14:14	120220	12022020	181414	91.45	12.418772	-56.762840	91.43	-0.610	1.740	1.520	91.45	0.40	2.00	 	 	 	 	 	 	 	 	 	 	 	 	 	 	 	 	 	 	1581531254	7.02	13.00
12/02/2020 18:14:15	120220	12022020	181415	91.42	12.418770	-56.762802	91.39	-0.720	1.340	1.480	91.40	-0.40	1.90	 	 	 	 	 	 	 	 	 	 	 	 	 	 	 	 	 	 	1581531255	8.08	14.96
12/02/2020 18:14:16	120220	12022020	181416	91.29	12.418770	-56.762755	91.26	-0.230	-0.490	1.270	91.26	-2.30	1.60	 	 	 	 	 	 	 	 	 	 	 	 	 	 	 	 	 	 	1581531256	9.87	18.28
12/02/2020 18:14:17	120220	12022020	181417	91.19	12.418772	-56.762707	91.15	0.340	-1.730	1.030	91.17	-3.10	1.40	 	 	 	 	 	 	 	 	 	 	 	 	 	 	 	 	 	 	1581531257	10.40	19.26
12/02/2020 18:14:18	120220	12022020	181418	91.15	12.418773	-56.762665	91.11	0.410	-1.270	0.960	91.15	-2.80	1.40	 	 	 	 	 	 	 	 	 	 	 	 	 	 	 	 	 	 	1581531258	8.76	16.22
12/02/2020 18:14:19	120220	12022020	181419	91.14	12.418775	-56.762630	91.10	0.090	-0.210	1.050	91.14	-1.40	1.50	 	 	 	 	 	 	 	 	 	 	 	 	 	 	 	 	 	 	1581531259	7.41	13.72
12/02/2020 18:14:20	120220	12022020	181420	91.12	12.418775	-56.762592	91.08	-0.080	0.170	1.140	91.12	-1.20	1.60	 	 	 	 	 	 	 	 	 	 	 	 	 	 	 	 	 	 	1581531260	7.85	14.54
12/02/2020 18:14:21	120220	12022020	181421	91.11	12.418773	-56.762550	91.08	0.060	-0.010	1.220	91.12	-1.40	1.70	 	 	 	 	 	 	 	 	 	 	 	 	 	 	 	 	 	 	1581531261	8.85	16.39
12/02/2020 18:14:22	120220	12022020	181422	91.17	12.418773	-56.762508	91.15	0.210	-0.140	1.320	91.19	-1.50	1.80	 	 	 	 	 	 	 	 	 	 	 	 	 	 	 	 	 	 	1581531262	9.00	16.67
12/02/2020 18:14:23	120220	12022020	181423	91.25	12.418772	-56.762467	91.24	0.250	-0.200	1.460	91.26	-1.60	1.90	 	 	 	 	 	 	 	 	 	 	 	 	 	 	 	 	 	 	1581531263	8.74	16.19
12/02/2020 18:14:24	120220	12022020	181424	91.26	12.418770	-56.762425	91.24	0.290	-0.450	1.660	91.25	-1.90	2.10	 	 	 	 	 	 	 	 	 	 	 	 	 	 	 	 	 	 	1581531264	8.81	16.32
12/02/2020 18:14:25	120220	12022020	181425	91.19	12.418770	-56.762382	91.16	0.370	-0.800	1.780	91.17	-2.20	2.20	 	 	 	 	 	 	 	 	 	 	 	 	 	 	 	 	 	 	1581531265	9.23	17.09
12/02/2020 18:14:26	120220	12022020	181426	91.07	12.418770	-56.762338	91.04	0.140	-0.280	1.850	91.06	-1.40	2.30	 	 	 	 	 	 	 	 	 	 	 	 	 	 	 	 	 	 	1581531266	8.87	16.43
12/02/2020 18:14:27	120220	12022020	181427	91.06	12.418770	-56.762303	91.04	-0.560	0.990	1.840	91.07	-0.20	2.20	 	 	 	 	 	 	 	 	 	 	 	 	 	 	 	 	 	 	1581531267	7.44	13.78
12/02/2020 18:14:28	120220	12022020	181428	91.14	12.418770	-56.762270	91.17	-1.170	1.360	1.570	91.17	0.00	2.00	 	 	 	 	 	 	 	 	 	 	 	 	 	 	 	 	 	 	1581531268	7.16	13.26
12/02/2020 18:14:29	120220	12022020	181429	91.24	12.418770	-56.762228	91.22	-0.860	-0.260	1.270	91.23	-2.10	1.70	 	 	 	 	 	 	 	 	 	 	 	 	 	 	 	 	 	 	1581531269	8.94	16.56
12/02/2020 18:14:30	120220	12022020	181430	91.22	12.418768	-56.762177	91.20	0.330	-2.480	1.090	91.22	-3.60	1.50	 	 	 	 	 	 	 	 	 	 	 	 	 	 	 	 	 	 	1581531270	10.92	20.22
12/02/2020 18:14:31	120220	12022020	181431	91.29	12.418768	-56.762127	91.26	1.310	-2.700	0.960	91.30	-3.70	1.40	 	 	 	 	 	 	 	 	 	 	 	 	 	 	 	 	 	 	1581531271	10.28	19.04
12/02/2020 18:14:32	120220	12022020	181432	91.29	12.418770	-56.762092	91.24	1.190	-0.580	0.960	91.26	-1.40	1.40	 	 	 	 	 	 	 	 	 	 	 	 	 	 	 	 	 	 	1581531272	7.60	14.08
12/02/2020 18:14:33	120220	12022020	181433	91.03	12.418772	-56.762063	90.95	0.210	1.730	0.960	90.96	0.70	1.40	 	 	 	 	 	 	 	 	 	 	 	 	 	 	 	 	 	 	1581531273	6.07	11.24
12/02/2020 18:14:34	120220	12022020	181434	90.68	12.418773	-56.762030	90.60	-0.720	2.300	0.930	90.64	0.80	1.40	 	 	 	 	 	 	 	 	 	 	 	 	 	 	 	 	 	 	1581531274	6.98	12.93
12/02/2020 18:14:35	120220	12022020	181435	90.62	12.418775	-56.761988	90.56	-0.890	0.950	0.930	90.65	-0.80	1.40	 	 	 	 	 	 	 	 	 	 	 	 	 	 	 	 	 	 	1581531275	8.90	16.48
12/02/2020 18:14:36	120220	12022020	181436	90.84	12.418777	-56.761940	90.81	-0.360	-1.160	0.990	90.88	-2.90	1.50	 	 	 	 	 	 	 	 	 	 	 	 	 	 	 	 	 	 	1581531276	10.20	18.89
12/02/2020 18:14:37	120220	12022020	181437	90.96	12.418775	-56.761892	90.91	0.350	-2.520	1.250	90.95	-3.90	1.80	 	 	 	 	 	 	 	 	 	 	 	 	 	 	 	 	 	 	1581531277	10.31	19.09
12/02/2020 18:14:38	120220	12022020	181438	90.84	12.418770	-56.761848	90.80	0.560	-1.860	1.800	90.80	-2.80	2.30	 	 	 	 	 	 	 	 	 	 	 	 	 	 	 	 	 	 	1581531278	8.88	16.45
12/02/2020 18:14:39	120220	12022020	181439	90.65	12.418767	-56.761817	90.63	0.090	0.290	2.300	90.62	-0.60	2.80	 	 	 	 	 	 	 	 	 	 	 	 	 	 	 	 	 	 	1581531279	6.81	12.61
12/02/2020 18:14:40	120220	12022020	181440	90.55	12.418765	-56.761788	90.54	-0.640	1.940	2.160	90.54	0.70	2.40	 	 	 	 	 	 	 	 	 	 	 	 	 	 	 	 	 	 	1581531280	6.08	11.26
12/02/2020 18:14:41	120220	12022020	181441	90.54	12.418768	-56.761753	90.52	-0.860	1.510	1.360	90.55	-0.20	1.60	 	 	 	 	 	 	 	 	 	 	 	 	 	 	 	 	 	 	1581531281	7.59	14.06
12/02/2020 18:14:42	120220	12022020	181442	90.57	12.418775	-56.761707	90.54	-0.200	-0.590	0.770	90.57	-1.60	1.20	 	 	 	 	 	 	 	 	 	 	 	 	 	 	 	 	 	 	1581531282	9.79	18.13
12/02/2020 18:14:43	120220	12022020	181443	90.60	12.418778	-56.761657	90.58	0.770	-2.430	0.600	90.63	-3.90	1.00	 	 	 	 	 	 	 	 	 	 	 	 	 	 	 	 	 	 	1581531283	10.69	19.80
12/02/2020 18:14:44	120220	12022020	181444	90.76	12.418780	-56.761613	90.74	1.040	-1.970	0.540	90.76	-3.50	1.00	 	 	 	 	 	 	 	 	 	 	 	 	 	 	 	 	 	 	1581531284	9.20	17.04
12/02/2020 18:14:45	120220	12022020	181445	90.96	12.418780	-56.761582	90.94	0.370	0.240	0.840	91.00	-0.60	1.40	 	 	 	 	 	 	 	 	 	 	 	 	 	 	 	 	 	 	1581531285	6.60	12.22
12/02/2020 18:14:46	120220	12022020	181446	91.08	12.418777	-56.761555	91.06	-0.540	1.860	1.370	91.09	0.50	1.90	 	 	 	 	 	 	 	 	 	 	 	 	 	 	 	 	 	 	1581531286	5.82	10.78
12/02/2020 18:14:47	120220	12022020	181447	91.07	12.418775	-56.761517	91.03	-0.570	0.910	1.600	91.04	-0.90	2.00	 	 	 	 	 	 	 	 	 	 	 	 	 	 	 	 	 	 	1581531287	7.83	14.50
12/02/2020 18:14:48	120220	12022020	181448	90.95	12.418775	-56.761468	90.92	0.230	-1.260	1.590	90.93	-2.90	2.00	 	 	 	 	 	 	 	 	 	 	 	 	 	 	 	 	 	 	1581531288	10.39	19.24
12/02/2020 18:14:49	120220	12022020	181449	90.97	12.418777	-56.761420	90.95	0.760	-1.870	1.490	91.00	-3.00	1.90	 	 	 	 	 	 	 	 	 	 	 	 	 	 	 	 	 	 	1581531289	10.08	18.67
12/02/2020 18:14:50	120220	12022020	181450	91.26	12.418780	-56.761385	91.28	0.320	-0.340	1.330	91.36	-1.20	1.70	 	 	 	 	 	 	 	 	 	 	 	 	 	 	 	 	 	 	1581531290	7.52	13.93
12/02/2020 18:14:51	120220	12022020	181451	91.81	12.418780	-56.761357	91.85	-0.690	1.400	1.360	91.94	0.20	1.80	 	 	 	 	 	 	 	 	 	 	 	 	 	 	 	 	 	 	1581531291	5.92	10.96
12/02/2020 18:14:52	120220	12022020	181452	92.37	12.418777	-56.761325	92.39	-1.260	1.440	1.470	92.45	-0.20	1.90	 	 	 	 	 	 	 	 	 	 	 	 	 	 	 	 	 	 	1581531292	6.80	12.59
12/02/2020 18:14:53	120220	12022020	181453	92.45	12.418772	-56.761283	92.41	-0.810	-0.220	1.720	92.37	-2.00	2.20	 	 	 	 	 	 	 	 	 	 	 	 	 	 	 	 	 	 	1581531293	8.94	16.56
12/02/2020 18:14:54	120220	12022020	181454	91.88	12.418767	-56.761237	91.83	0.210	-1.840	2.040	91.74	-3.30	2.50	 	 	 	 	 	 	 	 	 	 	 	 	 	 	 	 	 	 	1581531294	9.98	18.48
12/02/2020 18:14:55	120220	12022020	181455	91.17	12.418765	-56.761193	91.12	0.950	-2.070	2.110	91.06	-3.20	2.50	 	 	 	 	 	 	 	 	 	 	 	 	 	 	 	 	 	 	1581531295	9.17	16.98
12/02/2020 18:14:56	120220	12022020	181456	90.80	12.418767	-56.761155	90.79	1.020	-1.050	1.650	90.80	-2.60	2.20	 	 	 	 	 	 	 	 	 	 	 	 	 	 	 	 	 	 	1581531296	7.87	14.58
12/02/2020 18:14:57	120220	12022020	181457	91.15	12.418773	-56.761122	91.18	0.470	0.390	0.700	91.29	-0.70	0.90	 	 	 	 	 	 	 	 	 	 	 	 	 	 	 	 	 	 	1581531297	7.22	13.37
12/02/2020 18:14:58	120220	12022020	181458	91.81	12.418778	-56.761088	91.79	-0.250	1.350	0.070	91.90	0.10	0.50	 	 	 	 	 	 	 	 	 	 	 	 	 	 	 	 	 	 	1581531298	7.09	13.13
12/02/2020 18:14:59	120220	12022020	181459	92.14	12.418778	-56.761052	92.09	-0.610	1.230	0.200	92.16	-0.30	0.70	 	 	 	 	 	 	 	 	 	 	 	 	 	 	 	 	 	 	1581531299	7.71	14.28
12/02/2020 18:15:00	120220	12022020	181500	92.17	12.418775	-56.761012	92.12	-0.440	0.210	0.750	92.15	-1.40	1.30	 	 	 	 	 	 	 	 	 	 	 	 	 	 	 	 	 	 	1581531300	8.70	16.11
12/02/2020 18:15:01	120220	12022020	181501	91.90	12.418770	-56.760967	91.83	0.110	-1.160	1.480	91.79	-2.70	2.10	 	 	 	 	 	 	 	 	 	 	 	 	 	 	 	 	 	 	1581531301	9.37	17.35
12/02/2020 18:15:02	120220	12022020	181502	91.31	12.418765	-56.760923	91.26	0.590	-1.910	2.170	91.20	-3.20	2.70	1014.90	26.40	26.40	20.50	20.60	617.0	70.0	70.0	413.0	28.2	338.00	16.20	61.00	12.30	47642	10629.0	27.4	27.4	1581531302	9.44	17.48
12/02/2020 18:15:03	120220	12022020	181503	90.92	12.418763	-56.760883	90.90	0.580	-1.390	2.360	90.90	-2.50	2.80	 	 	 	 	 	 	 	 	 	 	 	 	 	 	 	 	 	 	1581531303	8.46	15.67
12/02/2020 18:15:04	120220	12022020	181504	90.99	12.418763	-56.760848	91.00	0.150	-0.130	2.040	91.06	-1.20	2.30	 	 	 	 	 	 	 	 	 	 	 	 	 	 	 	 	 	 	1581531304	7.36	13.63
12/02/2020 18:15:05	120220	12022020	181505	91.47	12.418765	-56.760813	91.50	-0.280	0.810	1.320	91.59	-0.40	1.60	 	 	 	 	 	 	 	 	 	 	 	 	 	 	 	 	 	 	1581531305	7.25	13.43
12/02/2020 18:15:06	120220	12022020	181506	91.96	12.418765	-56.760777	91.94	-0.440	0.940	1.010	91.99	-0.40	1.50	 	 	 	 	 	 	 	 	 	 	 	 	 	 	 	 	 	 	1581531306	7.93	14.69
12/02/2020 18:15:07	120220	12022020	181507	91.92	12.418762	-56.760737	91.87	-0.460	0.580	1.280	91.87	-0.90	1.70	 	 	 	 	 	 	 	 	 	 	 	 	 	 	 	 	 	 	1581531307	8.47	15.69
12/02/2020 18:15:08	120220	12022020	181508	91.62	12.418760	-56.760697	91.56	-0.430	0.040	1.280	91.62	-1.20	1.70	 	 	 	 	 	 	 	 	 	 	 	 	 	 	 	 	 	 	1581531308	8.50	15.74
12/02/2020 18:15:09	120220	12022020	181509	91.19	12.418760	-56.760657	91.12	-0.210	-0.610	1.320	91.10	-2.10	1.80	 	 	 	 	 	 	 	 	 	 	 	 	 	 	 	 	 	 	1581531309	8.47	15.69
12/02/2020 18:15:10	120220	12022020	181510	90.80	12.418760	-56.760615	90.75	0.360	-1.440	1.380	90.80	-2.60	1.80	 	 	 	 	 	 	 	 	 	 	 	 	 	 	 	 	 	 	1581531310	8.86	16.41
12/02/2020 18:15:11	120220	12022020	181511	90.68	12.418762	-56.760570	90.63	0.900	-1.860	1.140	90.68	-3.10	1.50	 	 	 	 	 	 	 	 	 	 	 	 	 	 	 	 	 	 	1581531311	9.25	17.13
12/02/2020 18:15:12	120220	12022020	181512	90.70	12.418762	-56.760530	90.65	0.870	-1.080	1.120	90.70	-2.10	1.60	 	 	 	 	 	 	 	 	 	 	 	 	 	 	 	 	 	 	1581531312	8.49	15.72
12/02/2020 18:15:13	120220	12022020	181513	90.71	12.418762	-56.760497	90.67	0.270	0.560	1.330	90.71	-0.40	1.80	 	 	 	 	 	 	 	 	 	 	 	 	 	 	 	 	 	 	1581531313	7.18	13.30
12/02/2020 18:15:14	120220	12022020	181514	90.70	12.418762	-56.760463	90.64	-0.370	1.600	1.280	90.69	0.30	1.70	 	 	 	 	 	 	 	 	 	 	 	 	 	 	 	 	 	 	1581531314	6.87	12.72
12/02/2020 18:15:15	120220	12022020	181515	90.69	12.418762	-56.760427	90.64	-0.560	1.100	1.300	90.68	-0.50	1.80	 	 	 	 	 	 	 	 	 	 	 	 	 	 	 	 	 	 	1581531315	8.06	14.93
12/02/2020 18:15:16	120220	12022020	181516	90.63	12.418762	-56.760380	90.59	-0.280	-0.450	1.570	90.62	-2.10	2.00	 	 	 	 	 	 	 	 	 	 	 	 	 	 	 	 	 	 	1581531316	9.54	17.67
12/02/2020 18:15:17	120220	12022020	181517	90.59	12.418760	-56.760333	90.57	0.040	-1.620	1.730	90.59	-3.00	2.20	 	 	 	 	 	 	 	 	 	 	 	 	 	 	 	 	 	 	1581531317	9.87	18.28
12/02/2020 18:15:18	120220	12022020	181518	90.62	12.418757	-56.760293	90.62	0.000	-1.350	1.750	90.63	-2.40	2.20	 	 	 	 	 	 	 	 	 	 	 	 	 	 	 	 	 	 	1581531318	8.78	16.26
12/02/2020 18:15:19	120220	12022020	181519	90.63	12.418755	-56.760258	90.60	-0.370	0.030	1.710	90.60	-1.00	2.10	 	 	 	 	 	 	 	 	 	 	 	 	 	 	 	 	 	 	1581531319	7.19	13.32
12/02/2020 18:15:20	120220	12022020	181520	90.43	12.418755	-56.760227	90.38	-0.640	1.000	1.590	90.43	-0.40	2.00	 	 	 	 	 	 	 	 	 	 	 	 	 	 	 	 	 	 	1581531320	6.74	12.48
12/02/2020 18:15:21	120220	12022020	181521	90.11	12.418757	-56.760188	90.05	-0.300	0.430	1.230	90.06	-1.20	1.60	 	 	 	 	 	 	 	 	 	 	 	 	 	 	 	 	 	 	1581531321	8.10	15.00
12/02/2020 18:15:22	120220	12022020	181522	89.96	12.418762	-56.760143	89.91	0.490	-0.930	0.820	89.96	-2.10	1.30	 	 	 	 	 	 	 	 	 	 	 	 	 	 	 	 	 	 	1581531322	9.67	17.91
12/02/2020 18:15:23	120220	12022020	181523	90.17	12.418765	-56.760097	90.13	1.080	-1.650	0.420	90.23	-2.90	0.80	 	 	 	 	 	 	 	 	 	 	 	 	 	 	 	 	 	 	1581531323	9.80	18.15
12/02/2020 18:15:24	120220	12022020	181524	90.53	12.418768	-56.760057	90.51	0.920	-1.010	0.300	90.60	-2.10	0.80	 	 	 	 	 	 	 	 	 	 	 	 	 	 	 	 	 	 	1581531324	8.61	15.95
12/02/2020 18:15:25	120220	12022020	181525	90.80	12.418768	-56.760022	90.77	0.100	0.420	0.770	90.83	-0.60	1.30	 	 	 	 	 	 	 	 	 	 	 	 	 	 	 	 	 	 	1581531325	7.25	13.43
12/02/2020 18:15:26	120220	12022020	181526	90.76	12.418763	-56.759990	90.71	-0.780	1.440	1.510	90.70	0.20	2.10	 	 	 	 	 	 	 	 	 	 	 	 	 	 	 	 	 	 	1581531326	6.91	12.80
12/02/2020 18:15:27	120220	12022020	181527	90.34	12.418762	-56.759953	90.28	-1.110	1.240	2.010	90.25	-0.30	2.50	 	 	 	 	 	 	 	 	 	 	 	 	 	 	 	 	 	 	1581531327	7.71	14.28
12/02/2020 18:15:28	120220	12022020	181528	90.02	12.418762	-56.759910	90.01	-0.580	-0.300	1.910	90.02	-2.10	2.20	 	 	 	 	 	 	 	 	 	 	 	 	 	 	 	 	 	 	1581531328	9.09	16.83
12/02/2020 18:15:29	120220	12022020	181529	90.25	12.418765	-56.759862	90.27	0.390	-2.070	1.330	90.34	-3.60	1.60	 	 	 	 	 	 	 	 	 	 	 	 	 	 	 	 	 	 	1581531329	10.21	18.91
12/02/2020 18:15:30	120220	12022020	181530	90.70	12.418767	-56.759817	90.70	0.960	-2.300	0.880	90.76	-3.40	1.20	 	 	 	 	 	 	 	 	 	 	 	 	 	 	 	 	 	 	1581531330	9.62	17.82
12/02/2020 18:15:31	120220	12022020	181531	90.85	12.418768	-56.759782	90.80	0.660	-0.630	0.760	90.83	-1.50	1.20	 	 	 	 	 	 	 	 	 	 	 	 	 	 	 	 	 	 	1581531331	7.56	14.00
12/02/2020 18:15:32	120220	12022020	181532	90.58	12.418768	-56.759752	90.49	-0.190	1.290	0.900	90.58	-0.30	1.30	 	 	 	 	 	 	 	 	 	 	 	 	 	 	 	 	 	 	1581531332	6.28	11.63
12/02/2020 18:15:33	120220	12022020	181533	90.11	12.418768	-56.759718	90.01	-0.890	1.720	1.120	90.02	0.20	1.60	 	 	 	 	 	 	 	 	 	 	 	 	 	 	 	 	 	 	1581531333	7.05	13.06
12/02/2020 18:15:34	120220	12022020	181534	89.79	12.418770	-56.759677	89.71	-0.990	0.530	1.100	89.76	-1.20	1.50	 	 	 	 	 	 	 	 	 	 	 	 	 	 	 	 	 	 	1581531334	8.84	16.37
12/02/2020 18:15:35	120220	12022020	181535	89.89	12.418772	-56.759630	89.85	-0.520	-1.000	0.750	89.96	-2.50	1.10	 	 	 	 	 	 	 	 	 	 	 	 	 	 	 	 	 	 	1581531335	9.83	18.21
12/02/2020 18:15:36	120220	12022020	181536	90.26	12.418773	-56.759585	90.23	0.150	-1.510	0.450	90.33	-2.80	0.80	 	 	 	 	 	 	 	 	 	 	 	 	 	 	 	 	 	 	1581531336	9.29	17.21
12/02/2020 18:15:37	120220	12022020	181537	90.47	12.418773	-56.759547	90.41	0.630	-0.950	0.530	90.46	-2.10	1.00	 	 	 	 	 	 	 	 	 	 	 	 	 	 	 	 	 	 	1581531337	8.04	14.89
12/02/2020 18:15:38	120220	12022020	181538	90.24	12.418773	-56.759512	90.17	0.790	-0.330	1.010	90.15	-1.60	1.60	 	 	 	 	 	 	 	 	 	 	 	 	 	 	 	 	 	 	1581531338	7.63	14.13
12/02/2020 18:15:39	120220	12022020	181539	89.81	12.418773	-56.759473	89.74	0.680	-0.150	1.580	89.74	-1.50	2.10	 	 	 	 	 	 	 	 	 	 	 	 	 	 	 	 	 	 	1581531339	8.15	15.09
12/02/2020 18:15:40	120220	12022020	181540	89.59	12.418775	-56.759432	89.54	0.380	-0.140	1.690	89.59	-1.40	2.10	 	 	 	 	 	 	 	 	 	 	 	 	 	 	 	 	 	 	1581531340	8.63	15.98
12/02/2020 18:15:41	120220	12022020	181541	89.73	12.418778	-56.759392	89.70	-0.090	0.110	1.440	89.79	-1.10	1.80	 	 	 	 	 	 	 	 	 	 	 	 	 	 	 	 	 	 	1581531341	8.54	15.82
12/02/2020 18:15:42	120220	12022020	181542	90.07	12.418778	-56.759353	90.05	-0.690	0.540	1.520	90.15	-0.70	2.00	 	 	 	 	 	 	 	 	 	 	 	 	 	 	 	 	 	 	1581531342	7.98	14.78
12/02/2020 18:15:43	120220	12022020	181543	90.42	12.418777	-56.759317	90.40	-1.050	0.480	1.750	90.47	-1.00	2.20	 	 	 	 	 	 	 	 	 	 	 	 	 	 	 	 	 	 	1581531343	7.93	14.69
12/02/2020 18:15:44	120220	12022020	181544	90.58	12.418773	-56.759275	90.54	-0.720	-0.480	1.760	90.58	-1.60	2.20	 	 	 	 	 	 	 	 	 	 	 	 	 	 	 	 	 	 	1581531344	8.82	16.33
12/02/2020 18:15:45	120220	12022020	181545	90.48	12.418773	-56.759230	90.44	0.170	-1.460	1.750	90.45	-2.80	2.20	 	 	 	 	 	 	 	 	 	 	 	 	 	 	 	 	 	 	1581531345	9.61	17.80
12/02/2020 18:15:46	120220	12022020	181546	90.30	12.418773	-56.759187	90.27	0.870	-1.360	1.660	90.30	-2.70	2.10	 	 	 	 	 	 	 	 	 	 	 	 	 	 	 	 	 	 	1581531346	9.08	16.82
12/02/2020 18:15:47	120220	12022020	181547	90.34	12.418778	-56.759148	90.32	0.820	-0.380	1.170	90.39	-1.40	1.50	 	 	 	 	 	 	 	 	 	 	 	 	 	 	 	 	 	 	1581531347	8.04	14.89
12/02/2020 18:15:48	120220	12022020	181548	90.66	12.418783	-56.759113	90.63	0.110	0.610	0.580	90.73	-0.50	0.90	 	 	 	 	 	 	 	 	 	 	 	 	 	 	 	 	 	 	1581531348	7.58	14.04
12/02/2020 18:15:49	120220	12022020	181549	90.98	12.418785	-56.759077	90.94	-0.660	0.950	0.480	91.03	-0.40	1.00	 	 	 	 	 	 	 	 	 	 	 	 	 	 	 	 	 	 	1581531349	7.79	14.43
12/02/2020 18:15:50	120220	12022020	181550	91.19	12.418783	-56.759037	91.14	-0.830	0.480	0.680	91.21	-1.00	1.10	 	 	 	 	 	 	 	 	 	 	 	 	 	 	 	 	 	 	1581531350	8.45	15.65
12/02/2020 18:15:51	120220	12022020	181551	91.19	12.418782	-56.758993	91.12	-0.230	-0.640	0.740	91.15	-2.20	1.20	 	 	 	 	 	 	 	 	 	 	 	 	 	 	 	 	 	 	1581531351	9.28	17.19
12/02/2020 18:15:52	120220	12022020	181552	90.97	12.418782	-56.758947	90.90	0.610	-1.640	0.940	90.92	-3.00	1.40	 	 	 	 	 	 	 	 	 	 	 	 	 	 	 	 	 	 	1581531352	9.80	18.15
12/02/2020 18:15:53	120220	12022020	181553	90.82	12.418783	-56.758902	90.78	0.980	-1.580	1.210	90.82	-2.70	1.70	 	 	 	 	 	 	 	 	 	 	 	 	 	 	 	 	 	 	1581531353	9.31	17.24
12/02/2020 18:15:54	120220	12022020	181554	90.94	12.418783	-56.758865	90.92	0.570	-0.390	1.230	90.99	-1.40	1.60	 	 	 	 	 	 	 	 	 	 	 	 	 	 	 	 	 	 	1581531354	8.05	14.91
12/02/2020 18:15:55	120220	12022020	181555	91.20	12.418783	-56.758830	91.18	-0.190	0.890	1.130	91.26	-0.20	1.50	 	 	 	 	 	 	 	 	 	 	 	 	 	 	 	 	 	 	1581531355	7.27	13.46
12/02/2020 18:15:56	120220	12022020	181556	91.42	12.418782	-56.758793	91.38	-0.660	1.230	1.150	91.45	-0.10	1.60	 	 	 	 	 	 	 	 	 	 	 	 	 	 	 	 	 	 	1581531356	7.81	14.46
12/02/2020 18:15:57	120220	12022020	181557	91.56	12.418780	-56.758752	91.51	-0.640	0.680	1.100	91.59	-0.80	1.50	 	 	 	 	 	 	 	 	 	 	 	 	 	 	 	 	 	 	1581531357	8.74	16.19
12/02/2020 18:15:58	120220	12022020	181558	91.63	12.418780	-56.758708	91.57	-0.320	-0.340	0.980	91.63	-1.50	1.40	 	 	 	 	 	 	 	 	 	 	 	 	 	 	 	 	 	 	1581531358	9.29	17.21
12/02/2020 18:15:59	120220	12022020	181559	91.44	12.418780	-56.758663	91.37	0.040	-1.290	1.200	91.36	-2.70	1.70	 	 	 	 	 	 	 	 	 	 	 	 	 	 	 	 	 	 	1581531359	9.50	17.59
12/02/2020 18:16:00	120220	12022020	181600	90.97	12.418778	-56.758618	90.91	0.250	-1.610	1.590	90.97	-2.90	2.00	 	 	 	 	 	 	 	 	 	 	 	 	 	 	 	 	 	 	1581531360	9.27	17.17
12/02/2020 18:16:01	120220	12022020	181601	90.57	12.418777	-56.758578	90.53	0.260	-1.080	1.850	90.53	-2.20	2.30	 	 	 	 	 	 	 	 	 	 	 	 	 	 	 	 	 	 	1581531361	8.62	15.96
12/02/2020 18:16:02	120220	12022020	181602	90.50	12.418777	-56.758540	90.48	0.150	-0.080	1.680	90.54	-1.20	2.00	1014.80	26.40	26.50	20.60	20.70	814.0	70.0	70.0	416.0	28.2	340.00	15.60	64.00	11.60	56678	11060.0	27.4	27.4	1581531362	7.98	14.78
12/02/2020 18:16:03	120220	12022020	181603	90.78	12.418778	-56.758502	90.75	0.100	0.500	1.060	90.85	-0.80	1.40	 	 	 	 	 	 	 	 	 	 	 	 	 	 	 	 	 	 	1581531363	8.05	14.91
12/02/2020 18:16:04	120220	12022020	181604	91.08	12.418782	-56.758460	91.04	0.230	0.210	0.740	91.11	-1.20	1.20	 	 	 	 	 	 	 	 	 	 	 	 	 	 	 	 	 	 	1581531364	8.90	16.48
12/02/2020 18:16:05	120220	12022020	181605	91.09	12.418782	-56.758415	91.03	0.420	-0.480	0.850	91.06	-1.90	1.40	 	 	 	 	 	 	 	 	 	 	 	 	 	 	 	 	 	 	1581531365	9.66	17.89
12/02/2020 18:16:06	120220	12022020	181606	90.86	12.418782	-56.758370	90.80	0.360	-0.540	1.240	90.81	-1.70	1.80	 	 	 	 	 	 	 	 	 	 	 	 	 	 	 	 	 	 	1581531366	9.50	17.59
12/02/2020 18:16:07	120220	12022020	181607	90.76	12.418780	-56.758332	90.74	-0.150	0.450	1.640	90.78	-0.60	2.10	 	 	 	 	 	 	 	 	 	 	 	 	 	 	 	 	 	 	1581531367	8.17	15.13
12/02/2020 18:16:08	120220	12022020	181608	90.93	12.418780	-56.758297	90.91	-0.830	1.240	1.590	90.98	-0.10	1.90	 	 	 	 	 	 	 	 	 	 	 	 	 	 	 	 	 	 	1581531368	7.26	13.45
12/02/2020 18:16:09	120220	12022020	181609	91.12	12.418780	-56.758257	91.07	-0.930	0.400	1.220	91.13	-1.30	1.60	 	 	 	 	 	 	 	 	 	 	 	 	 	 	 	 	 	 	1581531369	8.32	15.41
12/02/2020 18:16:10	120220	12022020	181610	91.18	12.418782	-56.758208	91.14	-0.130	-1.580	1.150	91.18	-2.60	1.60	 	 	 	 	 	 	 	 	 	 	 	 	 	 	 	 	 	 	1581531370	10.22	18.93
12/02/2020 18:16:11	120220	12022020	181611	91.21	12.418780	-56.758158	91.17	0.820	-2.620	1.360	91.21	-3.80	1.80	 	 	 	 	 	 	 	 	 	 	 	 	 	 	 	 	 	 	1581531371	10.63	19.69
12/02/2020 18:16:12	120220	12022020	181612	91.25	12.418780	-56.758117	91.22	0.970	-1.530	1.340	91.25	-3.10	1.80	 	 	 	 	 	 	 	 	 	 	 	 	 	 	 	 	 	 	1581531372	8.85	16.39
12/02/2020 18:16:13	120220	12022020	181613	91.32	12.418780	-56.758083	91.29	0.230	0.650	1.310	91.34	-0.30	1.70	 	 	 	 	 	 	 	 	 	 	 	 	 	 	 	 	 	 	1581531373	6.96	12.89
12/02/2020 18:16:14	120220	12022020	181614	91.41	12.418780	-56.758052	91.37	-0.600	1.770	1.190	91.43	0.40	1.60	 	 	 	 	 	 	 	 	 	 	 	 	 	 	 	 	 	 	1581531374	6.93	12.83
12/02/2020 18:16:15	120220	12022020	181615	91.47	12.418780	-56.758010	91.41	-0.800	0.940	0.840	91.47	-0.70	1.20	 	 	 	 	 	 	 	 	 	 	 	 	 	 	 	 	 	 	1581531375	8.82	16.33
12/02/2020 18:16:16	120220	12022020	181616	91.46	12.418782	-56.757960	91.39	-0.380	-0.610	0.590	91.46	-2.20	1.00	 	 	 	 	 	 	 	 	 	 	 	 	 	 	 	 	 	 	1581531376	10.30	19.08
12/02/2020 18:16:17	120220	12022020	181617	91.47	12.418782	-56.757913	91.42	0.160	-1.190	0.620	91.49	-2.40	1.10	 	 	 	 	 	 	 	 	 	 	 	 	 	 	 	 	 	 	1581531377	9.97	18.46
12/02/2020 18:16:18	120220	12022020	181618	91.67	12.418782	-56.757873	91.63	0.330	-0.570	0.610	91.72	-1.70	1.00	 	 	 	 	 	 	 	 	 	 	 	 	 	 	 	 	 	 	1581531378	8.46	15.67
12/02/2020 18:16:19	120220	12022020	181619	91.92	12.418782	-56.757837	91.88	0.180	-0.140	0.630	91.95	-1.50	1.10	 	 	 	 	 	 	 	 	 	 	 	 	 	 	 	 	 	 	1581531379	7.92	14.67
12/02/2020 18:16:20	120220	12022020	181620	91.91	12.418782	-56.757795	91.84	0.140	-0.400	0.950	91.87	-1.80	1.50	 	 	 	 	 	 	 	 	 	 	 	 	 	 	 	 	 	 	1581531380	8.73	16.17
12/02/2020 18:16:21	120220	12022020	181621	91.63	12.418780	-56.757752	91.56	0.350	-0.510	1.400	91.57	-1.80	1.90	 	 	 	 	 	 	 	 	 	 	 	 	 	 	 	 	 	 	1581531381	9.17	16.98
12/02/2020 18:16:22	120220	12022020	181622	91.35	12.418778	-56.757710	91.30	0.500	-0.310	1.690	91.35	-1.60	2.10	 	 	 	 	 	 	 	 	 	 	 	 	 	 	 	 	 	 	1581531382	8.84	16.37
12/02/2020 18:16:23	120220	12022020	181623	91.20	12.418778	-56.757668	91.18	0.280	-0.200	1.750	91.20	-1.50	2.20	 	 	 	 	 	 	 	 	 	 	 	 	 	 	 	 	 	 	1581531383	8.85	16.39
12/02/2020 18:16:24	120220	12022020	181624	91.28	12.418777	-56.757627	91.26	-0.250	-0.100	1.620	91.28	-1.40	2.10	 	 	 	 	 	 	 	 	 	 	 	 	 	 	 	 	 	 	1581531384	8.86	16.41
12/02/2020 18:16:25	120220	12022020	181625	91.29	12.418775	-56.757585	91.26	-0.730	0.230	1.520	91.26	-1.00	1.90	 	 	 	 	 	 	 	 	 	 	 	 	 	 	 	 	 	 	1581531385	8.55	15.83
12/02/2020 18:16:26	120220	12022020	181626	91.06	12.418773	-56.757547	91.02	-0.890	0.530	1.580	91.01	-0.80	2.00	 	 	 	 	 	 	 	 	 	 	 	 	 	 	 	 	 	 	1581531386	8.25	15.28
12/02/2020 18:16:27	120220	12022020	181627	90.83	12.418773	-56.757505	90.80	-0.610	0.040	1.610	90.81	-1.50	2.00	 	 	 	 	 	 	 	 	 	 	 	 	 	 	 	 	 	 	1581531387	8.61	15.95
12/02/2020 18:16:28	120220	12022020	181628	90.89	12.418773	-56.757458	90.89	0.130	-1.320	1.260	90.93	-2.90	1.60	 	 	 	 	 	 	 	 	 	 	 	 	 	 	 	 	 	 	1581531388	9.85	18.24
12/02/2020 18:16:29	120220	12022020	181629	91.10	12.418775	-56.757410	91.09	0.880	-2.120	1.040	91.13	-3.40	1.50	 	 	 	 	 	 	 	 	 	 	 	 	 	 	 	 	 	 	1581531389	10.35	19.17
12/02/2020 18:16:30	120220	12022020	181630	91.14	12.418775	-56.757367	91.12	1.110	-1.300	1.280	91.12	-2.30	1.80	 	 	 	 	 	 	 	 	 	 	 	 	 	 	 	 	 	 	1581531390	9.16	16.96
12/02/2020 18:16:31	120220	12022020	181631	90.98	12.418773	-56.757332	90.94	0.600	0.650	1.600	90.95	-0.30	2.00	 	 	 	 	 	 	 	 	 	 	 	 	 	 	 	 	 	 	1581531391	7.60	14.08
12/02/2020 18:16:32	120220	12022020	181632	90.92	12.418773	-56.757298	90.89	-0.410	2.200	1.500	90.95	1.00	1.80	 	 	 	 	 	 	 	 	 	 	 	 	 	 	 	 	 	 	1581531392	6.89	12.76
12/02/2020 18:16:33	120220	12022020	181633	91.13	12.418777	-56.757262	91.10	-1.170	1.930	1.030	91.20	0.30	1.40	 	 	 	 	 	 	 	 	 	 	 	 	 	 	 	 	 	 	1581531393	7.86	14.56
12/02/2020 18:16:34	120220	12022020	181634	91.49	12.418780	-56.757215	91.46	-1.080	-0.060	0.710	91.54	-1.90	1.10	 	 	 	 	 	 	 	 	 	 	 	 	 	 	 	 	 	 	1581531394	9.72	18.00
12/02/2020 18:16:35	120220	12022020	181635	91.63	12.418780	-56.757165	91.57	-0.120	-2.280	0.920	91.59	-3.90	1.50	 	 	 	 	 	 	 	 	 	 	 	 	 	 	 	 	 	 	1581531395	10.74	19.89
12/02/2020 18:16:36	120220	12022020	181636	91.29	12.418777	-56.757115	91.22	1.060	-3.160	1.540	91.29	-4.40	1.90	 	 	 	 	 	 	 	 	 	 	 	 	 	 	 	 	 	 	1581531396	10.42	19.30
12/02/2020 18:16:37	120220	12022020	181637	90.98	12.418775	-56.757073	90.96	1.410	-2.090	2.100	90.97	-2.90	2.60	 	 	 	 	 	 	 	 	 	 	 	 	 	 	 	 	 	 	1581531397	9.01	16.69
12/02/2020 18:16:38	120220	12022020	181638	91.18	12.418772	-56.757038	91.21	0.540	0.310	2.240	91.28	-0.50	2.60	 	 	 	 	 	 	 	 	 	 	 	 	 	 	 	 	 	 	1581531398	7.30	13.52
12/02/2020 18:16:39	120220	12022020	181639	91.82	12.418772	-56.757008	91.86	-0.820	2.430	1.590	91.96	1.40	1.80	 	 	 	 	 	 	 	 	 	 	 	 	 	 	 	 	 	 	1581531399	6.43	11.91
12/02/2020 18:16:40	120220	12022020	181640	92.43	12.418773	-56.756973	92.43	-1.580	2.700	0.820	92.51	1.10	1.20	 	 	 	 	 	 	 	 	 	 	 	 	 	 	 	 	 	 	1581531400	7.30	13.52
12/02/2020 18:16:41	120220	12022020	181641	92.57	12.418775	-56.756930	92.51	-1.150	0.820	0.740	92.53	-1.10	1.20	 	 	 	 	 	 	 	 	 	 	 	 	 	 	 	 	 	 	1581531401	9.37	17.35
12/02/2020 18:16:42	120220	12022020	181642	92.25	12.418772	-56.756878	92.19	0.100	-1.810	1.000	92.18	-3.60	1.40	 	 	 	 	 	 	 	 	 	 	 	 	 	 	 	 	 	 	1581531402	10.95	20.28
12/02/2020 18:16:43	120220	12022020	181643	92.14	12.418772	-56.756827	92.14	1.150	-2.970	1.040	92.19	-4.20	1.50	 	 	 	 	 	 	 	 	 	 	 	 	 	 	 	 	 	 	1581531403	10.72	19.85
12/02/2020 18:16:44	120220	12022020	181644	92.52	12.418772	-56.756787	92.54	1.180	-1.760	1.050	92.63	-2.60	1.50	 	 	 	 	 	 	 	 	 	 	 	 	 	 	 	 	 	 	1581531404	8.49	15.72
12/02/2020 18:16:45	120220	12022020	181645	93.01	12.418770	-56.756755	93.01	0.330	0.320	1.060	93.07	-0.70	1.50	 	 	 	 	 	 	 	 	 	 	 	 	 	 	 	 	 	 	1581531405	6.69	12.39
12/02/2020 18:16:46	120220	12022020	181646	93.13	12.418768	-56.756722	93.08	-0.470	1.320	1.110	93.09	-0.00	1.60	 	 	 	 	 	 	 	 	 	 	 	 	 	 	 	 	 	 	1581531406	7.00	12.96
12/02/2020 18:16:47	120220	12022020	181647	92.76	12.418765	-56.756682	92.68	-0.550	0.680	1.460	92.65	-0.90	2.00	 	 	 	 	 	 	 	 	 	 	 	 	 	 	 	 	 	 	1581531407	8.76	16.22
12/02/2020 18:16:48	120220	12022020	181648	92.31	12.418760	-56.756633	92.27	-0.100	-0.460	1.790	92.31	-1.70	2.20	 	 	 	 	 	 	 	 	 	 	 	 	 	 	 	 	 	 	1581531408	10.05	18.61
12/02/2020 18:16:49	120220	12022020	181649	92.32	12.418758	-56.756588	92.33	0.200	-0.740	1.610	92.38	-2.00	1.90	 	 	 	 	 	 	 	 	 	 	 	 	 	 	 	 	 	 	1581531409	9.57	17.72
12/02/2020 18:16:50	120220	12022020	181650	92.68	12.418758	-56.756548	92.67	-0.000	-0.180	1.210	92.68	-1.60	1.70	 	 	 	 	 	 	 	 	 	 	 	 	 	 	 	 	 	 	1581531410	8.30	15.37
12/02/2020 18:16:51	120220	12022020	181651	92.73	12.418757	-56.756512	92.67	-0.450	0.340	1.130	92.67	-0.90	1.60	 	 	 	 	 	 	 	 	 	 	 	 	 	 	 	 	 	 	1581531411	7.78	14.41
12/02/2020 18:16:52	120220	12022020	181652	92.30	12.418753	-56.756473	92.22	-0.650	0.340	1.420	92.19	-1.10	1.90	 	 	 	 	 	 	 	 	 	 	 	 	 	 	 	 	 	 	1581531412	8.17	15.13
12/02/2020 18:16:53	120220	12022020	181653	91.79	12.418748	-56.756433	91.73	-0.310	-0.230	1.680	91.70	-1.80	2.10	 	 	 	 	 	 	 	 	 	 	 	 	 	 	 	 	 	 	1581531413	8.73	16.17
12/02/2020 18:16:54	120220	12022020	181654	91.42	12.418747	-56.756388	91.36	0.530	-1.380	1.550	91.35	-2.90	1.90	 	 	 	 	 	 	 	 	 	 	 	 	 	 	 	 	 	 	1581531414	9.52	17.63
12/02/2020 18:16:55	120220	12022020	181655	91.06	12.418748	-56.756340	91.00	1.330	-2.240	1.410	90.98	-3.50	1.80	 	 	 	 	 	 	 	 	 	 	 	 	 	 	 	 	 	 	1581531415	10.18	18.85
12/02/2020 18:16:56	120220	12022020	181656	90.66	12.418748	-56.756295	90.61	1.290	-1.420	1.500	90.60	-2.30	1.90	 	 	 	 	 	 	 	 	 	 	 	 	 	 	 	 	 	 	1581531416	9.31	17.24
12/02/2020 18:16:57	120220	12022020	181657	90.46	12.418747	-56.756262	90.43	0.240	0.880	1.520	90.45	0.10	1.90	 	 	 	 	 	 	 	 	 	 	 	 	 	 	 	 	 	 	1581531417	7.23	13.39
12/02/2020 18:16:58	120220	12022020	181658	90.49	12.418747	-56.756232	90.47	-1.060	2.660	1.570	90.51	1.40	2.00	 	 	 	 	 	 	 	 	 	 	 	 	 	 	 	 	 	 	1581531418	6.31	11.69
12/02/2020 18:16:59	120220	12022020	181659	90.60	12.418745	-56.756195	90.59	-1.540	2.220	1.730	90.63	0.50	2.20	 	 	 	 	 	 	 	 	 	 	 	 	 	 	 	 	 	 	1581531419	7.67	14.20
12/02/2020 18:17:00	120220	12022020	181700	90.80	12.418743	-56.756148	90.79	-0.900	-0.150	1.650	90.80	-1.10	2.10	 	 	 	 	 	 	 	 	 	 	 	 	 	 	 	 	 	 	1581531420	9.91	18.35
12/02/2020 18:17:01	120220	12022020	181701	90.84	12.418742	-56.756097	90.80	0.250	-2.500	1.800	90.78	-4.10	2.30	 	 	 	 	 	 	 	 	 	 	 	 	 	 	 	 	 	 	1581531421	11.01	20.39
12/02/2020 18:17:02	120220	12022020	181702	90.49	12.418738	-56.756050	90.46	0.940	-2.770	2.380	90.40	-3.80	2.90	1014.80	26.40	26.40	20.50	20.60	970.0	70.0	70.0	421.0	28.4	339.00	16.40	63.00	12.30	63130	6005.0	27.4	27.4	1581531422	9.87	18.28
12/02/2020 18:17:03	120220	12022020	181703	90.10	12.418735	-56.756013	90.09	0.780	-1.190	2.610	90.04	-2.10	3.00	 	 	 	 	 	 	 	 	 	 	 	 	 	 	 	 	 	 	1581531423	7.69	14.24
12/02/2020 18:17:04	120220	12022020	181704	89.83	12.418737	-56.755980	89.80	0.320	0.390	2.230	89.79	-0.70	2.50	 	 	 	 	 	 	 	 	 	 	 	 	 	 	 	 	 	 	1581531424	6.93	12.83
12/02/2020 18:17:05	120220	12022020	181705	89.82	12.418740	-56.755943	89.82	0.110	0.900	1.380	89.89	-0.40	1.60	 	 	 	 	 	 	 	 	 	 	 	 	 	 	 	 	 	 	1581531425	8.06	14.93
12/02/2020 18:17:06	120220	12022020	181706	90.30	12.418747	-56.755902	90.30	-0.140	1.020	0.730	90.42	-0.30	1.10	 	 	 	 	 	 	 	 	 	 	 	 	 	 	 	 	 	 	1581531426	8.75	16.21
12/02/2020 18:17:07	120220	12022020	181707	90.81	12.418748	-56.755863	90.78	-0.630	0.990	0.570	90.86	-0.40	1.00	 	 	 	 	 	 	 	 	 	 	 	 	 	 	 	 	 	 	1581531427	8.30	15.37
12/02/2020 18:17:08	120220	12022020	181708	90.86	12.418748	-56.755823	90.78	-0.950	0.310	0.700	90.80	-1.30	1.20	 	 	 	 	 	 	 	 	 	 	 	 	 	 	 	 	 	 	1581531428	8.36	15.48
12/02/2020 18:17:09	120220	12022020	181709	90.40	12.418745	-56.755780	90.32	-0.560	-1.160	1.250	90.30	-2.80	1.80	 	 	 	 	 	 	 	 	 	 	 	 	 	 	 	 	 	 	1581531429	9.26	17.15
12/02/2020 18:17:10	120220	12022020	181710	90.07	12.418743	-56.755732	90.02	0.510	-2.690	1.530	90.06	-4.20	1.90	 	 	 	 	 	 	 	 	 	 	 	 	 	 	 	 	 	 	1581531430	10.17	18.83
12/02/2020 18:17:11	120220	12022020	181711	90.20	12.418745	-56.755685	90.19	1.490	-2.770	1.230	90.27	-3.80	1.60	 	 	 	 	 	 	 	 	 	 	 	 	 	 	 	 	 	 	1581531431	9.94	18.41
12/02/2020 18:17:12	120220	12022020	181712	90.56	12.418747	-56.755645	90.54	1.400	-0.860	0.970	90.56	-2.50	1.40	 	 	 	 	 	 	 	 	 	 	 	 	 	 	 	 	 	 	1581531432	8.13	15.06
12/02/2020 18:17:13	120220	12022020	181713	90.87	12.418747	-56.755615	90.83	0.150	1.780	1.020	90.91	0.90	1.50	 	 	 	 	 	 	 	 	 	 	 	 	 	 	 	 	 	 	1581531433	6.46	11.96
12/02/2020 18:17:14	120220	12022020	181714	91.02	12.418745	-56.755587	90.97	-1.460	3.430	1.260	91.02	2.00	1.60	 	 	 	 	 	 	 	 	 	 	 	 	 	 	 	 	 	 	1581531434	6.17	11.43
12/02/2020 18:17:15	120220	12022020	181715	90.99	12.418742	-56.755552	90.93	-2.360	3.000	1.330	90.97	1.20	1.70	 	 	 	 	 	 	 	 	 	 	 	 	 	 	 	 	 	 	1581531435	7.29	13.50
12/02/2020 18:17:16	120220	12022020	181716	90.85	12.418740	-56.755508	90.79	-1.760	0.250	1.180	90.82	-1.90	1.60	 	 	 	 	 	 	 	 	 	 	 	 	 	 	 	 	 	 	1581531436	9.34	17.30
12/02/2020 18:17:17	120220	12022020	181717	90.63	12.418740	-56.755455	90.56	0.160	-3.270	1.120	90.57	-5.10	1.50	 	 	 	 	 	 	 	 	 	 	 	 	 	 	 	 	 	 	1581531437	11.21	20.76
12/02/2020 18:17:18	120220	12022020	181718	90.24	12.418740	-56.755403	90.14	2.070	-4.820	0.980	90.14	-6.00	1.40	 	 	 	 	 	 	 	 	 	 	 	 	 	 	 	 	 	 	1581531438	10.99	20.35
12/02/2020 18:17:19	120220	12022020	181719	89.75	12.418743	-56.755363	89.64	2.650	-3.080	0.950	89.65	-3.70	1.40	 	 	 	 	 	 	 	 	 	 	 	 	 	 	 	 	 	 	1581531439	8.48	15.70
12/02/2020 18:17:20	120220	12022020	181720	89.40	12.418745	-56.755335	89.32	1.670	0.410	1.370	89.37	-0.20	1.90	 	 	 	 	 	 	 	 	 	 	 	 	 	 	 	 	 	 	1581531440	5.98	11.07
12/02/2020 18:17:21	120220	12022020	181721	89.45	12.418745	-56.755308	89.42	-0.140	3.110	1.550	89.51	2.10	1.90	 	 	 	 	 	 	 	 	 	 	 	 	 	 	 	 	 	 	1581531441	5.59	10.35
12/02/2020 18:17:22	120220	12022020	181722	89.77	12.418747	-56.755275	89.74	-1.810	3.700	1.320	89.82	2.20	1.70	 	 	 	 	 	 	 	 	 	 	 	 	 	 	 	 	 	 	1581531442	6.81	12.61
12/02/2020 18:17:23	120220	12022020	181723	89.96	12.418745	-56.755237	89.92	-2.580	2.370	1.360	89.98	0.60	1.80	 	 	 	 	 	 	 	 	 	 	 	 	 	 	 	 	 	 	1581531443	8.33	15.43
12/02/2020 18:17:24	120220	12022020	181724	90.07	12.418743	-56.755192	90.04	-1.950	-0.390	1.470	90.07	-1.30	1.90	 	 	 	 	 	 	 	 	 	 	 	 	 	 	 	 	 	 	1581531444	9.56	17.71
12/02/2020 18:17:25	120220	12022020	181725	90.07	12.418740	-56.755140	90.02	-0.120	-3.580	1.500	90.03	-5.40	2.00	 	 	 	 	 	 	 	 	 	 	 	 	 	 	 	 	 	 	1581531445	10.76	19.93
12/02/2020 18:17:26	120220	12022020	181726	89.71	12.418738	-56.755090	89.64	1.750	-4.910	1.770	89.71	-6.20	2.20	 	 	 	 	 	 	 	 	 	 	 	 	 	 	 	 	 	 	1581531446	10.74	19.89
12/02/2020 18:17:27	120220	12022020	181727	89.41	12.418737	-56.755052	89.37	2.260	-2.670	1.810	89.40	-3.10	2.20	 	 	 	 	 	 	 	 	 	 	 	 	 	 	 	 	 	 	1581531447	8.13	15.06
12/02/2020 18:17:28	120220	12022020	181728	89.45	12.418738	-56.755027	89.41	1.210	1.430	1.550	89.48	0.90	1.90	 	 	 	 	 	 	 	 	 	 	 	 	 	 	 	 	 	 	1581531448	5.11	9.46
12/02/2020 18:17:29	120220	12022020	181729	89.63	12.418743	-56.755005	89.58	-0.430	4.130	0.970	89.67	3.00	1.20	 	 	 	 	 	 	 	 	 	 	 	 	 	 	 	 	 	 	1581531449	4.65	8.61
12/02/2020 18:17:30	120220	12022020	181730	89.79	12.418750	-56.754973	89.73	-1.370	3.460	0.270	89.81	1.60	0.60	 	 	 	 	 	 	 	 	 	 	 	 	 	 	 	 	 	 	1581531450	7.05	13.06
12/02/2020 18:17:31	120220	12022020	181731	89.85	12.418755	-56.754925	89.79	-1.000	0.200	0.070	89.85	-1.90	0.50	 	 	 	 	 	 	 	 	 	 	 	 	 	 	 	 	 	 	1581531451	10.06	18.63
12/02/2020 18:17:32	120220	12022020	181732	89.85	12.418757	-56.754873	89.79	-0.040	-2.650	0.370	89.85	-4.30	0.90	 	 	 	 	 	 	 	 	 	 	 	 	 	 	 	 	 	 	1581531452	10.96	20.30
12/02/2020 18:17:33	120220	12022020	181733	89.87	12.418755	-56.754830	89.82	0.530	-3.190	0.800	89.87	-4.30	1.30	 	 	 	 	 	 	 	 	 	 	 	 	 	 	 	 	 	 	1581531453	9.21	17.06
12/02/2020 18:17:34	120220	12022020	181734	89.91	12.418752	-56.754797	89.89	0.520	-1.940	1.330	89.93	-2.90	1.80	 	 	 	 	 	 	 	 	 	 	 	 	 	 	 	 	 	 	1581531454	7.19	13.32
12/02/2020 18:17:35	120220	12022020	181735	90.03	12.418747	-56.754765	90.01	0.390	-0.390	1.710	90.06	-1.40	2.10	 	 	 	 	 	 	 	 	 	 	 	 	 	 	 	 	 	 	1581531455	6.57	12.17
12/02/2020 18:17:36	120220	12022020	181736	90.16	12.418745	-56.754732	90.14	0.400	0.540	1.590	90.16	-0.90	2.00	 	 	 	 	 	 	 	 	 	 	 	 	 	 	 	 	 	 	1581531456	7.25	13.43
12/02/2020 18:17:37	120220	12022020	181737	90.19	12.418745	-56.754693	90.15	0.290	1.000	1.360	90.18	-0.20	1.70	 	 	 	 	 	 	 	 	 	 	 	 	 	 	 	 	 	 	1581531457	7.89	14.61
12/02/2020 18:17:38	120220	12022020	181738	90.12	12.418747	-56.754657	90.07	-0.120	1.220	1.210	90.12	-0.10	1.70	 	 	 	 	 	 	 	 	 	 	 	 	 	 	 	 	 	 	1581531458	7.86	14.56
12/02/2020 18:17:39	120220	12022020	181739	90.11	12.418750	-56.754620	90.06	-0.560	0.910	0.800	90.12	-0.60	1.10	 	 	 	 	 	 	 	 	 	 	 	 	 	 	 	 	 	 	1581531459	7.80	14.45
12/02/2020 18:17:40	120220	12022020	181740	90.20	12.418755	-56.754580	90.16	-0.530	-0.190	0.390	90.20	-1.30	0.90	 	 	 	 	 	 	 	 	 	 	 	 	 	 	 	 	 	 	1581531460	8.43	15.61
12/02/2020 18:17:41	120220	12022020	181741	90.41	12.418758	-56.754537	90.37	0.030	-1.450	0.310	90.45	-2.90	0.80	 	 	 	 	 	 	 	 	 	 	 	 	 	 	 	 	 	 	1581531461	9.10	16.85
12/02/2020 18:17:42	120220	12022020	181742	90.47	12.418758	-56.754497	90.41	0.600	-1.820	0.700	90.44	-3.00	1.20	 	 	 	 	 	 	 	 	 	 	 	 	 	 	 	 	 	 	1581531462	8.78	16.26
12/02/2020 18:17:43	120220	12022020	181743	90.28	12.418755	-56.754458	90.21	0.680	-1.150	1.200	90.22	-2.20	1.70	 	 	 	 	 	 	 	 	 	 	 	 	 	 	 	 	 	 	1581531463	7.82	14.48
12/02/2020 18:17:44	120220	12022020	181744	90.03	12.418753	-56.754425	89.97	0.380	-0.190	1.550	89.98	-1.30	2.00	 	 	 	 	 	 	 	 	 	 	 	 	 	 	 	 	 	 	1581531464	7.24	13.41
12/02/2020 18:17:45	120220	12022020	181745	89.80	12.418752	-56.754388	89.75	0.100	0.240	1.820	89.73	-1.10	2.30	 	 	 	 	 	 	 	 	 	 	 	 	 	 	 	 	 	 	1581531465	7.62	14.11
12/02/2020 18:17:46	120220	12022020	181746	89.51	12.418750	-56.754348	89.47	0.030	0.200	1.830	89.47	-1.10	2.20	 	 	 	 	 	 	 	 	 	 	 	 	 	 	 	 	 	 	1581531466	8.39	15.54
12/02/2020 18:17:47	120220	12022020	181747	89.40	12.418752	-56.754308	89.38	0.070	0.170	1.400	89.41	-1.10	1.70	 	 	 	 	 	 	 	 	 	 	 	 	 	 	 	 	 	 	1581531467	8.49	15.72
12/02/2020 18:17:48	120220	12022020	181748	89.52	12.418755	-56.754270	89.52	0.040	0.230	0.940	89.52	-1.10	1.40	 	 	 	 	 	 	 	 	 	 	 	 	 	 	 	 	 	 	1581531468	8.28	15.33
12/02/2020 18:17:49	120220	12022020	181749	89.67	12.418760	-56.754232	89.64	-0.210	0.260	0.650	89.68	-1.10	1.10	 	 	 	 	 	 	 	 	 	 	 	 	 	 	 	 	 	 	1581531469	8.02	14.85
12/02/2020 18:17:50	120220	12022020	181750	89.70	12.418762	-56.754195	89.67	-0.460	0.120	0.690	89.70	-1.20	1.10	 	 	 	 	 	 	 	 	 	 	 	 	 	 	 	 	 	 	1581531470	7.87	14.58
12/02/2020 18:17:51	120220	12022020	181751	89.70	12.418762	-56.754157	89.68	-0.300	-0.440	1.050	89.71	-2.00	1.60	 	 	 	 	 	 	 	 	 	 	 	 	 	 	 	 	 	 	1581531471	8.15	15.09
12/02/2020 18:17:52	120220	12022020	181752	89.76	12.418762	-56.754115	89.75	0.250	-1.180	1.450	89.78	-2.60	1.90	 	 	 	 	 	 	 	 	 	 	 	 	 	 	 	 	 	 	1581531472	8.81	16.32
12/02/2020 18:17:53	120220	12022020	181753	89.89	12.418760	-56.754073	89.87	0.530	-1.300	1.630	89.90	-2.60	2.00	 	 	 	 	 	 	 	 	 	 	 	 	 	 	 	 	 	 	1581531473	8.68	16.08
12/02/2020 18:17:54	120220	12022020	181754	89.92	12.418758	-56.754035	89.88	0.380	-0.850	1.730	89.89	-2.10	2.20	 	 	 	 	 	 	 	 	 	 	 	 	 	 	 	 	 	 	1581531474	8.08	14.96
12/02/2020 18:17:55	120220	12022020	181755	89.68	12.418757	-56.753998	89.65	0.230	-0.410	2.080	89.63	-1.70	2.50	 	 	 	 	 	 	 	 	 	 	 	 	 	 	 	 	 	 	1581531475	8.00	14.82
12/02/2020 18:17:56	120220	12022020	181756	89.52	12.418758	-56.753958	89.52	0.220	0.050	1.980	89.54	-1.20	2.30	 	 	 	 	 	 	 	 	 	 	 	 	 	 	 	 	 	 	1581531476	8.31	15.39
12/02/2020 18:17:57	120220	12022020	181757	89.78	12.418763	-56.753922	89.79	-0.050	0.870	1.240	89.86	-0.30	1.50	 	 	 	 	 	 	 	 	 	 	 	 	 	 	 	 	 	 	1581531477	7.95	14.72
12/02/2020 18:17:58	120220	12022020	181758	90.18	12.418772	-56.753887	90.17	-0.590	1.430	0.650	90.24	0.00	1.00	 	 	 	 	 	 	 	 	 	 	 	 	 	 	 	 	 	 	1581531478	7.42	13.74
12/02/2020 18:17:59	120220	12022020	181759	90.44	12.418775	-56.753850	90.42	-0.900	0.750	0.480	90.49	-0.90	0.90	 	 	 	 	 	 	 	 	 	 	 	 	 	 	 	 	 	 	1581531479	7.92	14.67
12/02/2020 18:18:00	120220	12022020	181800	90.69	12.418773	-56.753807	90.67	-0.640	-0.970	0.690	90.74	-2.70	1.20	 	 	 	 	 	 	 	 	 	 	 	 	 	 	 	 	 	 	1581531480	9.24	17.11
12/02/2020 18:18:01	120220	12022020	181801	90.93	12.418768	-56.753760	90.91	0.150	-2.480	1.010	90.96	-4.00	1.50	 	 	 	 	 	 	 	 	 	 	 	 	 	 	 	 	 	 	1581531481	9.92	18.37
12/02/2020 18:18:02	120220	12022020	181802	90.92	12.418765	-56.753715	90.87	0.950	-2.470	1.210	90.92	-3.90	1.60	1014.70	26.40	26.40	20.50	20.60	600.0	70.0	70.0	420.0	28.3	339.00	16.80	63.00	13.00	47191	9828.0	27.3	27.3	1581531482	9.25	17.13
12/02/2020 18:18:03	120220	12022020	181803	90.61	12.418765	-56.753680	90.55	1.050	-0.710	1.280	90.54	-1.60	1.70	 	 	 	 	 	 	 	 	 	 	 	 	 	 	 	 	 	 	1581531483	7.63	14.13
12/02/2020 18:18:04	120220	12022020	181804	90.37	12.418768	-56.753650	90.33	0.240	1.500	0.980	90.37	-0.10	1.50	 	 	 	 	 	 	 	 	 	 	 	 	 	 	 	 	 	 	1581531484	6.35	11.76
12/02/2020 18:18:05	120220	12022020	181805	90.57	12.418773	-56.753618	90.55	-0.850	2.390	0.440	90.64	0.90	0.80	 	 	 	 	 	 	 	 	 	 	 	 	 	 	 	 	 	 	1581531485	6.63	12.28
12/02/2020 18:18:06	120220	12022020	181806	90.95	12.418777	-56.753580	90.93	-1.270	1.200	0.120	91.01	-0.70	0.50	 	 	 	 	 	 	 	 	 	 	 	 	 	 	 	 	 	 	1581531486	8.26	15.30
12/02/2020 18:18:07	120220	12022020	181807	91.15	12.418777	-56.753533	91.10	-0.640	-1.140	0.280	91.14	-3.00	0.80	 	 	 	 	 	 	 	 	 	 	 	 	 	 	 	 	 	 	1581531487	10.01	18.54
12/02/2020 18:18:08	120220	12022020	181808	90.91	12.418773	-56.753483	90.84	0.420	-2.600	0.940	90.82	-4.00	1.50	 	 	 	 	 	 	 	 	 	 	 	 	 	 	 	 	 	 	1581531488	10.28	19.04
12/02/2020 18:18:09	120220	12022020	181809	90.45	12.418770	-56.753443	90.39	0.980	-2.100	1.570	90.37	-3.10	2.10	 	 	 	 	 	 	 	 	 	 	 	 	 	 	 	 	 	 	1581531489	8.80	16.30
12/02/2020 18:18:10	120220	12022020	181810	90.28	12.418768	-56.753410	90.26	0.660	-0.270	1.820	90.30	-1.20	2.20	 	 	 	 	 	 	 	 	 	 	 	 	 	 	 	 	 	 	1581531490	7.04	13.04
12/02/2020 18:18:11	120220	12022020	181811	90.59	12.418770	-56.753378	90.60	-0.090	1.380	1.640	90.69	0.20	2.00	 	 	 	 	 	 	 	 	 	 	 	 	 	 	 	 	 	 	1581531491	6.39	11.83
12/02/2020 18:18:12	120220	12022020	181812	91.04	12.418772	-56.753345	91.03	-0.590	1.580	1.220	91.10	0.00	1.60	 	 	 	 	 	 	 	 	 	 	 	 	 	 	 	 	 	 	1581531492	7.25	13.43
12/02/2020 18:18:13	120220	12022020	181813	91.21	12.418775	-56.753303	91.17	-0.490	0.220	0.950	91.20	-1.50	1.40	 	 	 	 	 	 	 	 	 	 	 	 	 	 	 	 	 	 	1581531493	8.95	16.58
12/02/2020 18:18:14	120220	12022020	181814	91.05	12.418772	-56.753255	90.98	-0.080	-1.460	1.380	90.98	-3.00	2.00	 	 	 	 	 	 	 	 	 	 	 	 	 	 	 	 	 	 	1581531494	10.00	18.52
12/02/2020 18:18:15	120220	12022020	181815	90.70	12.418767	-56.753210	90.65	0.120	-1.780	2.080	90.64	-3.00	2.50	 	 	 	 	 	 	 	 	 	 	 	 	 	 	 	 	 	 	1581531495	9.48	17.56
12/02/2020 18:18:16	120220	12022020	181816	90.52	12.418763	-56.753175	90.50	-0.150	-0.450	2.050	90.52	-2.00	2.50	 	 	 	 	 	 	 	 	 	 	 	 	 	 	 	 	 	 	1581531496	7.50	13.89
12/02/2020 18:18:17	120220	12022020	181817	90.65	12.418767	-56.753145	90.61	-0.600	1.090	1.470	90.68	-0.10	1.80	 	 	 	 	 	 	 	 	 	 	 	 	 	 	 	 	 	 	1581531497	6.33	11.72
12/02/2020 18:18:18	120220	12022020	181818	90.76	12.418768	-56.753113	90.71	-0.700	1.330	1.060	90.76	-0.30	1.40	 	 	 	 	 	 	 	 	 	 	 	 	 	 	 	 	 	 	1581531498	6.97	12.91
12/02/2020 18:18:19	120220	12022020	181819	90.77	12.418770	-56.753072	90.71	-0.040	-0.220	0.850	90.77	-2.10	1.20	 	 	 	 	 	 	 	 	 	 	 	 	 	 	 	 	 	 	1581531499	8.77	16.24
12/02/2020 18:18:20	120220	12022020	181820	90.81	12.418772	-56.753022	90.77	1.100	-2.350	0.780	90.84	-4.00	1.20	 	 	 	 	 	 	 	 	 	 	 	 	 	 	 	 	 	 	1581531500	10.44	19.33
12/02/2020 18:18:21	120220	12022020	181821	91.02	12.418772	-56.752975	91.00	1.600	-2.620	0.990	91.09	-3.70	1.50	 	 	 	 	 	 	 	 	 	 	 	 	 	 	 	 	 	 	1581531501	10.05	18.61
12/02/2020 18:18:22	120220	12022020	181822	91.29	12.418772	-56.752940	91.26	0.730	-0.310	1.380	91.32	-1.00	1.90	 	 	 	 	 	 	 	 	 	 	 	 	 	 	 	 	 	 	1581531502	7.13	13.20
12/02/2020 18:18:23	120220	12022020	181823	91.38	12.418768	-56.752917	91.34	-0.920	2.540	1.950	91.38	1.50	2.50	 	 	 	 	 	 	 	 	 	 	 	 	 	 	 	 	 	 	1581531503	5.01	9.28
12/02/2020 18:18:24	120220	12022020	181824	91.41	12.418763	-56.752892	91.39	-2.010	3.330	2.240	91.43	1.70	2.60	 	 	 	 	 	 	 	 	 	 	 	 	 	 	 	 	 	 	1581531504	5.58	10.33
12/02/2020 18:18:25	120220	12022020	181825	91.51	12.418762	-56.752852	91.48	-1.540	1.140	1.960	91.52	-1.00	2.30	 	 	 	 	 	 	 	 	 	 	 	 	 	 	 	 	 	 	1581531505	8.31	15.39
12/02/2020 18:18:26	120220	12022020	181826	91.44	12.418762	-56.752802	91.38	0.030	-2.100	1.580	91.40	-4.00	2.00	 	 	 	 	 	 	 	 	 	 	 	 	 	 	 	 	 	 	1581531506	10.56	19.56
12/02/2020 18:18:27	120220	12022020	181827	91.24	12.418763	-56.752753	91.19	1.330	-3.580	1.550	91.21	-4.90	2.00	 	 	 	 	 	 	 	 	 	 	 	 	 	 	 	 	 	 	1581531507	10.29	19.06
12/02/2020 18:18:28	120220	12022020	181828	91.18	12.418763	-56.752717	91.15	1.370	-2.250	1.810	91.18	-3.90	2.20	 	 	 	 	 	 	 	 	 	 	 	 	 	 	 	 	 	 	1581531508	7.71	14.28
12/02/2020 18:18:29	120220	12022020	181829	91.34	12.418762	-56.752692	91.34	0.340	0.370	2.030	91.39	-0.50	2.40	 	 	 	 	 	 	 	 	 	 	 	 	 	 	 	 	 	 	1581531509	5.48	10.15
12/02/2020 18:18:30	120220	12022020	181830	91.52	12.418760	-56.752665	91.50	-0.710	1.970	1.960	91.52	0.50	2.40	 	 	 	 	 	 	 	 	 	 	 	 	 	 	 	 	 	 	1581531510	5.51	10.20
12/02/2020 18:18:31	120220	12022020	181831	91.35	12.418757	-56.752630	91.31	-0.970	1.580	1.900	91.29	-0.10	2.30	 	 	 	 	 	 	 	 	 	 	 	 	 	 	 	 	 	 	1581531511	7.30	13.52
12/02/2020 18:18:32	120220	12022020	181832	91.07	12.418755	-56.752588	91.04	-0.450	0.030	1.800	91.05	-1.70	2.20	 	 	 	 	 	 	 	 	 	 	 	 	 	 	 	 	 	 	1581531512	9.02	16.71
12/02/2020 18:18:33	120220	12022020	181833	91.09	12.418755	-56.752543	91.07	0.220	-1.160	1.450	91.13	-2.60	1.80	 	 	 	 	 	 	 	 	 	 	 	 	 	 	 	 	 	 	1581531513	9.29	17.21
12/02/2020 18:18:34	120220	12022020	181834	91.21	12.418757	-56.752505	91.17	0.460	-1.140	1.160	91.22	-2.40	1.60	 	 	 	 	 	 	 	 	 	 	 	 	 	 	 	 	 	 	1581531514	8.21	15.20
12/02/2020 18:18:35	120220	12022020	181835	91.13	12.418757	-56.752472	91.07	0.250	-0.370	1.080	91.13	-1.90	1.50	 	 	 	 	 	 	 	 	 	 	 	 	 	 	 	 	 	 	1581531515	7.05	13.06
12/02/2020 18:18:36	120220	12022020	181836	90.88	12.418757	-56.752438	90.82	0.050	0.170	1.180	90.84	-1.20	1.70	 	 	 	 	 	 	 	 	 	 	 	 	 	 	 	 	 	 	1581531516	6.89	12.76
12/02/2020 18:18:37	120220	12022020	181837	90.68	12.418757	-56.752403	90.62	0.140	-0.030	1.330	90.63	-1.50	1.80	 	 	 	 	 	 	 	 	 	 	 	 	 	 	 	 	 	 	1581531517	7.64	14.15
12/02/2020 18:18:38	120220	12022020	181838	90.49	12.418758	-56.752363	90.39	0.310	-0.590	1.520	90.44	-1.90	1.90	 	 	 	 	 	 	 	 	 	 	 	 	 	 	 	 	 	 	1581531518	8.44	15.63
12/02/2020 18:18:39	120220	12022020	181839	90.29	12.418757	-56.752323	90.26	0.200	-0.780	1.640	90.29	-2.10	2.10	 	 	 	 	 	 	 	 	 	 	 	 	 	 	 	 	 	 	1581531519	8.38	15.52
12/02/2020 18:18:40	120220	12022020	181840	90.34	12.418755	-56.752287	90.33	-0.120	-0.460	1.770	90.34	-1.90	2.20	 	 	 	 	 	 	 	 	 	 	 	 	 	 	 	 	 	 	1581531520	7.83	14.50
12/02/2020 18:18:41	120220	12022020	181841	90.28	12.418752	-56.752252	90.26	-0.310	0.080	2.090	90.25	-1.20	2.50	 	 	 	 	 	 	 	 	 	 	 	 	 	 	 	 	 	 	1581531521	7.52	13.93
12/02/2020 18:18:42	120220	12022020	181842	90.20	12.418748	-56.752215	90.18	-0.320	0.400	2.150	90.20	-1.00	2.50	 	 	 	 	 	 	 	 	 	 	 	 	 	 	 	 	 	 	1581531522	7.57	14.02
12/02/2020 18:18:43	120220	12022020	181843	90.17	12.418747	-56.752178	90.14	-0.240	0.280	2.000	90.15	-1.20	2.40	 	 	 	 	 	 	 	 	 	 	 	 	 	 	 	 	 	 	1581531523	7.90	14.63
12/02/2020 18:18:44	120220	12022020	181844	89.96	12.418747	-56.752140	89.90	-0.170	0.000	1.910	89.91	-1.40	2.30	 	 	 	 	 	 	 	 	 	 	 	 	 	 	 	 	 	 	1581531524	8.07	14.95
12/02/2020 18:18:45	120220	12022020	181845	89.75	12.418748	-56.752102	89.70	-0.070	-0.360	1.530	89.73	-1.90	1.90	 	 	 	 	 	 	 	 	 	 	 	 	 	 	 	 	 	 	1581531525	8.05	14.91
12/02/2020 18:18:46	120220	12022020	181846	89.68	12.418752	-56.752062	89.63	0.300	-0.950	1.110	89.67	-2.50	1.50	 	 	 	 	 	 	 	 	 	 	 	 	 	 	 	 	 	 	1581531526	8.39	15.54
12/02/2020 18:18:47	120220	12022020	181847	89.59	12.418753	-56.752022	89.54	0.770	-1.350	1.180	89.57	-2.70	1.70	 	 	 	 	 	 	 	 	 	 	 	 	 	 	 	 	 	 	1581531527	8.74	16.19
12/02/2020 18:18:48	120220	12022020	181848	89.52	12.418755	-56.751982	89.49	0.840	-0.910	1.290	89.53	-2.10	1.70	 	 	 	 	 	 	 	 	 	 	 	 	 	 	 	 	 	 	1581531528	8.23	15.24
12/02/2020 18:18:49	120220	12022020	181849	89.62	12.418757	-56.751947	89.62	0.330	0.110	1.280	89.66	-1.10	1.80	 	 	 	 	 	 	 	 	 	 	 	 	 	 	 	 	 	 	1581531529	7.40	13.70
12/02/2020 18:18:50	120220	12022020	181850	89.78	12.418755	-56.751913	89.76	-0.440	1.010	1.600	89.78	-0.30	2.10	 	 	 	 	 	 	 	 	 	 	 	 	 	 	 	 	 	 	1581531530	7.03	13.02
12/02/2020 18:18:51	120220	12022020	181851	89.76	12.418753	-56.751878	89.73	-0.920	1.080	1.930	89.76	-0.30	2.30	 	 	 	 	 	 	 	 	 	 	 	 	 	 	 	 	 	 	1581531531	7.43	13.76
12/02/2020 18:18:52	120220	12022020	181852	89.76	12.418752	-56.751838	89.76	-0.740	0.040	1.830	89.76	-1.10	2.30	 	 	 	 	 	 	 	 	 	 	 	 	 	 	 	 	 	 	1581531532	8.49	15.72
12/02/2020 18:18:53	120220	12022020	181853	89.98	12.418752	-56.751793	89.98	-0.070	-1.350	1.710	90.01	-2.90	2.10	 	 	 	 	 	 	 	 	 	 	 	 	 	 	 	 	 	 	1581531533	9.42	17.45
12/02/2020 18:18:54	120220	12022020	181854	90.01	12.418752	-56.751750	89.96	0.460	-1.710	1.660	90.01	-3.10	2.10	 	 	 	 	 	 	 	 	 	 	 	 	 	 	 	 	 	 	1581531534	9.16	16.96
12/02/2020 18:18:55	120220	12022020	181855	89.71	12.418752	-56.751713	89.67	0.370	-0.740	1.520	89.71	-1.80	1.90	 	 	 	 	 	 	 	 	 	 	 	 	 	 	 	 	 	 	1581531535	7.76	14.37
12/02/2020 18:18:56	120220	12022020	181856	89.40	12.418753	-56.751682	89.36	-0.170	0.560	1.440	89.37	-0.60	1.80	 	 	 	 	 	 	 	 	 	 	 	 	 	 	 	 	 	 	1581531536	6.85	12.69
12/02/2020 18:18:57	120220	12022020	181857	89.40	12.418755	-56.751648	89.36	-0.580	1.200	1.080	89.40	-0.20	1.40	 	 	 	 	 	 	 	 	 	 	 	 	 	 	 	 	 	 	1581531537	6.99	12.95
12/02/2020 18:18:58	120220	12022020	181858	89.61	12.418760	-56.751612	89.57	-0.350	0.670	0.540	89.66	-1.00	0.90	 	 	 	 	 	 	 	 	 	 	 	 	 	 	 	 	 	 	1581531538	7.91	14.65
12/02/2020 18:18:59	120220	12022020	181859	89.79	12.418763	-56.751568	89.75	0.500	-0.920	0.370	89.80	-2.70	0.90	 	 	 	 	 	 	 	 	 	 	 	 	 	 	 	 	 	 	1581531539	9.27	17.17
12/02/2020 18:19:00	120220	12022020	181900	89.71	12.418763	-56.751520	89.67	1.170	-2.170	0.780	89.68	-3.60	1.40	 	 	 	 	 	 	 	 	 	 	 	 	 	 	 	 	 	 	1581531540	9.98	18.48
12/02/2020 18:19:01	120220	12022020	181901	89.56	12.418762	-56.751480	89.54	0.840	-1.520	1.590	89.54	-2.50	2.20	 	 	 	 	 	 	 	 	 	 	 	 	 	 	 	 	 	 	1581531541	8.70	16.11
12/02/2020 18:19:02	120220	12022020	181902	89.62	12.418757	-56.751448	89.65	-0.310	0.540	2.440	89.62	-0.40	3.00	1014.70	26.20	26.20	21.50	21.40	643.0	75.0	74.0	415.0	28.2	336.00	16.90	60.00	13.20	49189	13640.0	27.4	27.4	1581531542	6.64	12.30
12/02/2020 18:19:03	120220	12022020	181903	89.86	12.418752	-56.751420	89.94	-1.320	2.050	2.530	89.86	0.60	3.00	 	 	 	 	 	 	 	 	 	 	 	 	 	 	 	 	 	 	1581531543	5.95	11.02
12/02/2020 18:19:04	120220	12022020	181904	90.09	12.418752	-56.751387	90.07	-1.250	1.500	2.010	90.09	0.30	2.50	 	 	 	 	 	 	 	 	 	 	 	 	 	 	 	 	 	 	1581531544	7.37	13.65
12/02/2020 18:19:05	120220	12022020	181905	90.00	12.418753	-56.751342	89.93	-0.320	-0.350	1.690	90.00	-1.50	2.20	 	 	 	 	 	 	 	 	 	 	 	 	 	 	 	 	 	 	1581531545	9.43	17.46
12/02/2020 18:19:06	120220	12022020	181906	89.91	12.418757	-56.751295	89.89	0.520	-1.700	1.480	89.91	-3.00	2.00	 	 	 	 	 	 	 	 	 	 	 	 	 	 	 	 	 	 	1581531546	9.70	17.96
12/02/2020 18:19:07	120220	12022020	181907	90.16	12.418760	-56.751255	90.16	0.690	-1.750	1.080	90.24	-3.00	1.40	 	 	 	 	 	 	 	 	 	 	 	 	 	 	 	 	 	 	1581531547	8.55	15.83
12/02/2020 18:19:08	120220	12022020	181908	90.66	12.418762	-56.751220	90.66	0.410	-0.930	0.850	90.76	-2.10	1.30	 	 	 	 	 	 	 	 	 	 	 	 	 	 	 	 	 	 	1581531548	7.50	13.89
12/02/2020 18:19:09	120220	12022020	181909	91.09	12.418760	-56.751187	91.05	0.050	0.020	1.100	91.12	-1.20	1.60	 	 	 	 	 	 	 	 	 	 	 	 	 	 	 	 	 	 	1581531549	7.18	13.30
12/02/2020 18:19:10	120220	12022020	181910	91.01	12.418755	-56.751150	90.93	-0.120	0.340	1.530	90.91	-1.10	2.10	 	 	 	 	 	 	 	 	 	 	 	 	 	 	 	 	 	 	1581531550	7.65	14.17
12/02/2020 18:19:11	120220	12022020	181911	90.34	12.418752	-56.751110	90.23	-0.090	0.120	1.990	90.18	-1.30	2.50	 	 	 	 	 	 	 	 	 	 	 	 	 	 	 	 	 	 	1581531551	8.50	15.74
12/02/2020 18:19:12	120220	12022020	181912	89.68	12.418750	-56.751070	89.60	-0.100	0.260	2.170	89.61	-1.00	2.60	 	 	 	 	 	 	 	 	 	 	 	 	 	 	 	 	 	 	1581531552	8.45	15.65
12/02/2020 18:19:13	120220	12022020	181913	89.61	12.418753	-56.751033	89.58	-0.290	0.650	1.690	89.67	-0.70	2.00	 	 	 	 	 	 	 	 	 	 	 	 	 	 	 	 	 	 	1581531553	7.66	14.19
12/02/2020 18:19:14	120220	12022020	181914	90.07	12.418758	-56.750997	90.05	-0.440	0.300	0.770	90.18	-1.30	1.10	 	 	 	 	 	 	 	 	 	 	 	 	 	 	 	 	 	 	1581531554	7.82	14.48
12/02/2020 18:19:15	120220	12022020	181915	90.49	12.418762	-56.750955	90.53	-0.200	-0.980	0.340	90.49	-2.20	0.80	 	 	 	 	 	 	 	 	 	 	 	 	 	 	 	 	 	 	1581531555	8.88	16.45
12/02/2020 18:19:16	120220	12022020	181916	90.64	12.418760	-56.750910	90.57	0.400	-2.010	0.890	90.64	-3.30	1.20	 	 	 	 	 	 	 	 	 	 	 	 	 	 	 	 	 	 	1581531556	9.53	17.65
12/02/2020 18:19:17	120220	12022020	181917	90.30	12.418753	-56.750868	90.21	0.870	-1.700	1.720	90.30	-3.20	2.10	 	 	 	 	 	 	 	 	 	 	 	 	 	 	 	 	 	 	1581531557	8.84	16.37
12/02/2020 18:19:18	120220	12022020	181918	89.71	12.418750	-56.750833	89.64	0.760	-0.220	2.200	89.71	-1.80	2.60	 	 	 	 	 	 	 	 	 	 	 	 	 	 	 	 	 	 	1581531558	7.56	14.00
12/02/2020 18:19:19	120220	12022020	181919	89.25	12.418748	-56.750802	89.19	0.010	1.340	2.070	89.25	-0.20	2.60	 	 	 	 	 	 	 	 	 	 	 	 	 	 	 	 	 	 	1581531559	6.78	12.56
12/02/2020 18:19:20	120220	12022020	181920	89.21	12.418753	-56.750768	89.17	-0.910	1.840	1.460	89.21	0.50	2.00	 	 	 	 	 	 	 	 	 	 	 	 	 	 	 	 	 	 	1581531560	7.07	13.09
12/02/2020 18:19:21	120220	12022020	181921	89.43	12.418757	-56.750730	89.41	-1.240	0.970	0.940	89.49	-0.80	1.30	 	 	 	 	 	 	 	 	 	 	 	 	 	 	 	 	 	 	1581531561	8.14	15.08
12/02/2020 18:19:22	120220	12022020	181922	89.80	12.418760	-56.750687	89.79	-0.690	-0.760	0.670	89.80	-1.90	1.10	 	 	 	 	 	 	 	 	 	 	 	 	 	 	 	 	 	 	1581531562	9.25	17.13
12/02/2020 18:19:23	120220	12022020	181923	90.06	12.418758	-56.750640	90.01	0.340	-2.340	0.850	90.04	-3.90	1.40	 	 	 	 	 	 	 	 	 	 	 	 	 	 	 	 	 	 	1581531563	9.72	18.00
12/02/2020 18:19:24	120220	12022020	181924	89.73	12.418755	-56.750595	89.65	1.210	-2.770	1.680	89.60	-4.00	2.30	 	 	 	 	 	 	 	 	 	 	 	 	 	 	 	 	 	 	1581531564	9.44	17.48
12/02/2020 18:19:25	120220	12022020	181925	89.06	12.418752	-56.750557	88.99	1.290	-1.340	2.260	88.94	-2.20	2.70	 	 	 	 	 	 	 	 	 	 	 	 	 	 	 	 	 	 	1581531565	8.15	15.09
12/02/2020 18:19:26	120220	12022020	181926	88.70	12.418753	-56.750527	88.68	0.400	1.190	2.130	88.70	0.30	2.50	 	 	 	 	 	 	 	 	 	 	 	 	 	 	 	 	 	 	1581531566	6.35	11.76
12/02/2020 18:19:27	120220	12022020	181927	88.91	12.418757	-56.750500	88.92	-0.820	2.710	1.650	88.91	1.30	2.20	 	 	 	 	 	 	 	 	 	 	 	 	 	 	 	 	 	 	1581531567	5.97	11.06
12/02/2020 18:19:28	120220	12022020	181928	89.50	12.418760	-56.750463	89.49	-1.320	1.830	1.200	89.50	0.70	1.70	 	 	 	 	 	 	 	 	 	 	 	 	 	 	 	 	 	 	1581531568	7.71	14.28
12/02/2020 18:19:29	120220	12022020	181929	89.97	12.418762	-56.750417	90.04	-0.780	-0.510	0.860	89.97	-1.60	1.30	 	 	 	 	 	 	 	 	 	 	 	 	 	 	 	 	 	 	1581531569	9.82	18.19
12/02/2020 18:19:30	120220	12022020	181930	90.25	12.418760	-56.750368	90.20	0.110	-2.060	0.960	90.25	-3.30	1.40	 	 	 	 	 	 	 	 	 	 	 	 	 	 	 	 	 	 	1581531570	10.08	18.67
12/02/2020 18:19:31	120220	12022020	181931	89.97	12.418757	-56.750328	89.90	0.500	-1.800	1.510	89.97	-3.30	1.90	 	 	 	 	 	 	 	 	 	 	 	 	 	 	 	 	 	 	1581531571	8.39	15.54
12/02/2020 18:19:32	120220	12022020	181932	89.51	12.418755	-56.750297	89.45	0.310	-0.640	1.780	89.51	-2.20	2.20	 	 	 	 	 	 	 	 	 	 	 	 	 	 	 	 	 	 	1581531572	6.92	12.82
12/02/2020 18:19:33	120220	12022020	181933	89.20	12.418758	-56.750263	89.17	0.170	0.040	1.380	89.20	-1.40	1.90	 	 	 	 	 	 	 	 	 	 	 	 	 	 	 	 	 	 	1581531573	7.11	13.17
12/02/2020 18:19:34	120220	12022020	181934	89.30	12.418763	-56.750225	89.29	0.290	0.080	0.820	89.30	-1.30	1.30	 	 	 	 	 	 	 	 	 	 	 	 	 	 	 	 	 	 	1581531574	8.22	15.22
12/02/2020 18:19:35	120220	12022020	181935	89.64	12.418767	-56.750185	89.65	0.310	0.130	0.440	89.64	-1.30	0.90	 	 	 	 	 	 	 	 	 	 	 	 	 	 	 	 	 	 	1581531575	8.40	15.56
12/02/2020 18:19:36	120220	12022020	181936	89.94	12.418770	-56.750147	89.92	0.090	0.200	0.420	89.94	-1.20	0.80	 	 	 	 	 	 	 	 	 	 	 	 	 	 	 	 	 	 	1581531576	8.04	14.89
12/02/2020 18:19:37	120220	12022020	181937	90.01	12.418770	-56.750108	89.97	-0.120	-0.050	0.830	90.01	-1.40	1.20	 	 	 	 	 	 	 	 	 	 	 	 	 	 	 	 	 	 	1581531577	8.09	14.98
12/02/2020 18:19:38	120220	12022020	181938	89.80	12.418768	-56.750068	89.75	-0.140	-0.450	1.510	89.80	-1.80	1.90	 	 	 	 	 	 	 	 	 	 	 	 	 	 	 	 	 	 	1581531578	8.52	15.78
12/02/2020 18:19:39	120220	12022020	181939	89.40	12.418765	-56.750028	89.38	-0.160	-0.510	2.120	89.40	-1.90	2.50	 	 	 	 	 	 	 	 	 	 	 	 	 	 	 	 	 	 	1581531579	8.44	15.63
12/02/2020 18:19:40	120220	12022020	181940	89.26	12.418763	-56.749990	89.29	-0.330	-0.210	2.310	89.26	-1.60	2.70	 	 	 	 	 	 	 	 	 	 	 	 	 	 	 	 	 	 	1581531580	8.01	14.83
12/02/2020 18:19:41	120220	12022020	181941	89.51	12.418762	-56.749955	89.67	-0.520	0.070	2.050	89.51	-1.30	2.50	 	 	 	 	 	 	 	 	 	 	 	 	 	 	 	 	 	 	1581531581	7.67	14.20
12/02/2020 18:19:42	120220	12022020	181942	90.14	12.418762	-56.749917	90.17	-0.320	-0.170	1.600	90.14	-1.50	2.10	 	 	 	 	 	 	 	 	 	 	 	 	 	 	 	 	 	 	1581531582	7.98	14.78
12/02/2020 18:19:43	120220	12022020	181943	90.29	12.418763	-56.749875	90.27	0.410	-0.810	1.390	90.29	-2.10	1.80	 	 	 	 	 	 	 	 	 	 	 	 	 	 	 	 	 	 	1581531583	8.80	16.30
12/02/2020 18:19:44	120220	12022020	181944	90.13	12.418765	-56.749833	90.09	1.000	-0.900	1.340	90.13	-2.30	1.80	 	 	 	 	 	 	 	 	 	 	 	 	 	 	 	 	 	 	1581531584	8.90	16.48
12/02/2020 18:19:45	120220	12022020	181945	90.02	12.418767	-56.749795	90.01	0.840	-0.240	1.530	90.02	-1.70	1.90	 	 	 	 	 	 	 	 	 	 	 	 	 	 	 	 	 	 	1581531585	8.01	14.83
12/02/2020 18:19:46	120220	12022020	181946	90.21	12.418768	-56.749760	90.22	0.070	0.580	1.620	90.21	-0.90	2.10	 	 	 	 	 	 	 	 	 	 	 	 	 	 	 	 	 	 	1581531586	7.32	13.56
12/02/2020 18:19:47	120220	12022020	181947	90.57	12.418770	-56.749725	90.57	-0.670	0.850	1.380	90.57	-0.60	1.90	 	 	 	 	 	 	 	 	 	 	 	 	 	 	 	 	 	 	1581531587	7.38	13.67
12/02/2020 18:19:48	120220	12022020	181948	90.76	12.418770	-56.749687	90.74	-0.700	0.020	1.420	90.76	-1.20	1.80	 	 	 	 	 	 	 	 	 	 	 	 	 	 	 	 	 	 	1581531588	8.22	15.22
12/02/2020 18:19:49	120220	12022020	181949	90.67	12.418767	-56.749642	90.64	0.030	-1.490	1.890	90.67	-2.70	2.30	 	 	 	 	 	 	 	 	 	 	 	 	 	 	 	 	 	 	1581531589	9.59	17.76
12/02/2020 18:19:50	120220	12022020	181950	90.37	12.418763	-56.749595	90.33	0.700	-1.980	2.180	90.37	-3.40	2.60	 	 	 	 	 	 	 	 	 	 	 	 	 	 	 	 	 	 	1581531590	9.72	18.00
12/02/2020 18:19:51	120220	12022020	181951	90.32	12.418763	-56.749558	90.30	0.540	-0.730	1.920	90.32	-2.40	2.40	 	 	 	 	 	 	 	 	 	 	 	 	 	 	 	 	 	 	1581531591	7.98	14.78
12/02/2020 18:19:52	120220	12022020	181952	90.56	12.418765	-56.749527	90.54	-0.290	1.010	1.570	90.56	-0.60	2.00	 	 	 	 	 	 	 	 	 	 	 	 	 	 	 	 	 	 	1581531592	6.56	12.15
12/02/2020 18:19:53	120220	12022020	181953	90.73	12.418765	-56.749495	90.72	-0.990	1.660	1.420	90.73	0.20	1.90	 	 	 	 	 	 	 	 	 	 	 	 	 	 	 	 	 	 	1581531593	6.87	12.72
12/02/2020 18:19:54	120220	12022020	181954	90.80	12.418765	-56.749455	90.76	-0.950	0.780	1.200	90.80	-0.50	1.70	 	 	 	 	 	 	 	 	 	 	 	 	 	 	 	 	 	 	1581531594	8.31	15.39
12/02/2020 18:19:55	120220	12022020	181955	90.78	12.418765	-56.749410	90.73	-0.210	-0.830	1.100	90.78	-2.00	1.50	 	 	 	 	 	 	 	 	 	 	 	 	 	 	 	 	 	 	1581531595	9.54	17.67
12/02/2020 18:19:56	120220	12022020	181956	90.73	12.418763	-56.749365	90.70	0.600	-1.830	1.260	90.73	-3.20	1.70	 	 	 	 	 	 	 	 	 	 	 	 	 	 	 	 	 	 	1581531596	9.62	17.82
12/02/2020 18:19:57	120220	12022020	181957	90.64	12.418763	-56.749323	90.61	0.910	-1.540	1.360	90.64	-3.10	1.80	 	 	 	 	 	 	 	 	 	 	 	 	 	 	 	 	 	 	1581531597	8.60	15.93
12/02/2020 18:19:58	120220	12022020	181958	90.41	12.418762	-56.749288	90.39	0.670	-0.340	1.520	90.41	-1.90	1.90	 	 	 	 	 	 	 	 	 	 	 	 	 	 	 	 	 	 	1581531598	7.46	13.82
12/02/2020 18:19:59	120220	12022020	181959	90.15	12.418762	-56.749255	90.13	0.240	0.680	1.720	90.15	-0.80	2.10	 	 	 	 	 	 	 	 	 	 	 	 	 	 	 	 	 	 	1581531599	7.14	13.22
12/02/2020 18:20:00	120220	12022020	182000	90.05	12.418763	-56.749217	90.05	-0.040	0.680	1.550	90.05	-0.70	2.00	 	 	 	 	 	 	 	 	 	 	 	 	 	 	 	 	 	 	1581531600	7.97	14.76
12/02/2020 18:20:01	120220	12022020	182001	90.30	12.418767	-56.749175	90.31	-0.230	0.120	1.160	90.30	-1.20	1.60	 	 	 	 	 	 	 	 	 	 	 	 	 	 	 	 	 	 	1581531601	8.91	16.50
12/02/2020 18:20:02	120220	12022020	182002	90.63	12.418767	-56.749133	90.62	-0.460	-0.220	1.260	90.63	-1.60	1.70	1014.70	25.90	26.00	21.50	21.40	599.0	76.0	76.0	419.0	28.1	335.00	17.60	58.00	13.90	46720	4743.0	27.4	27.4	1581531602	8.69	16.09
12/02/2020 18:20:03	120220	12022020	182003	90.60	12.418762	-56.749095	90.56	-0.500	-0.540	1.860	90.60	-1.90	2.20	 	 	 	 	 	 	 	 	 	 	 	 	 	 	 	 	 	 	1581531603	8.42	15.59
12/02/2020 18:20:04	120220	12022020	182004	90.29	12.418757	-56.749052	90.25	-0.100	-1.260	2.350	90.29	-2.60	2.70	 	 	 	 	 	 	 	 	 	 	 	 	 	 	 	 	 	 	1581531604	9.06	16.78
12/02/2020 18:20:05	120220	12022020	182005	90.01	12.418753	-56.749008	89.96	0.290	-1.200	2.320	90.01	-2.70	2.80	 	 	 	 	 	 	 	 	 	 	 	 	 	 	 	 	 	 	1581531605	9.17	16.98
12/02/2020 18:20:06	120220	12022020	182006	89.82	12.418755	-56.748972	89.76	0.180	0.140	1.820	89.82	-1.50	2.30	 	 	 	 	 	 	 	 	 	 	 	 	 	 	 	 	 	 	1581531606	7.68	14.22
12/02/2020 18:20:07	120220	12022020	182007	89.75	12.418758	-56.748940	89.71	-0.240	1.260	1.220	89.75	-0.20	1.70	 	 	 	 	 	 	 	 	 	 	 	 	 	 	 	 	 	 	1581531607	6.83	12.65
12/02/2020 18:20:08	120220	12022020	182008	89.93	12.418763	-56.748902	89.89	-0.350	0.700	0.700	89.93	-0.60	1.20	 	 	 	 	 	 	 	 	 	 	 	 	 	 	 	 	 	 	1581531608	7.99	14.80
12/02/2020 18:20:09	120220	12022020	182009	90.31	12.418767	-56.748857	90.29	0.030	-0.970	0.370	90.31	-2.20	0.80	 	 	 	 	 	 	 	 	 	 	 	 	 	 	 	 	 	 	1581531609	9.79	18.13
12/02/2020 18:20:10	120220	12022020	182010	90.54	12.418765	-56.748810	90.48	0.420	-1.690	0.670	90.54	-3.10	1.00	 	 	 	 	 	 	 	 	 	 	 	 	 	 	 	 	 	 	1581531610	9.86	18.26
12/02/2020 18:20:11	120220	12022020	182011	90.28	12.418762	-56.748772	90.19	0.390	-0.650	1.450	90.28	-2.30	1.80	 	 	 	 	 	 	 	 	 	 	 	 	 	 	 	 	 	 	1581531611	8.07	14.95
12/02/2020 18:20:12	120220	12022020	182012	89.78	12.418758	-56.748740	89.71	-0.030	0.640	2.030	89.78	-0.90	2.40	 	 	 	 	 	 	 	 	 	 	 	 	 	 	 	 	 	 	1581531612	6.83	12.65
12/02/2020 18:20:13	120220	12022020	182013	89.45	12.418758	-56.748703	89.40	-0.300	0.550	2.070	89.45	-0.80	2.50	 	 	 	 	 	 	 	 	 	 	 	 	 	 	 	 	 	 	1581531613	7.63	14.13
12/02/2020 18:20:14	120220	12022020	182014	89.39	12.418762	-56.748658	89.37	-0.050	-0.640	1.740	89.39	-1.90	2.20	 	 	 	 	 	 	 	 	 	 	 	 	 	 	 	 	 	 	1581531614	9.43	17.46
12/02/2020 18:20:15	120220	12022020	182015	89.64	12.418765	-56.748613	89.64	0.260	-1.020	1.280	89.64	-2.50	1.80	 	 	 	 	 	 	 	 	 	 	 	 	 	 	 	 	 	 	1581531615	9.55	17.69
12/02/2020 18:20:16	120220	12022020	182016	89.96	12.418767	-56.748577	89.94	0.110	-0.230	1.310	89.96	-1.80	1.70	 	 	 	 	 	 	 	 	 	 	 	 	 	 	 	 	 	 	1581531616	8.00	14.82
12/02/2020 18:20:17	120220	12022020	182017	90.10	12.418763	-56.748542	90.11	-0.330	0.440	1.850	90.10	-1.00	2.20	 	 	 	 	 	 	 	 	 	 	 	 	 	 	 	 	 	 	1581531617	7.37	13.65
12/02/2020 18:20:18	120220	12022020	182018	90.25	12.418760	-56.748503	90.23	-0.610	0.230	2.190	90.25	-1.10	2.60	 	 	 	 	 	 	 	 	 	 	 	 	 	 	 	 	 	 	1581531618	8.15	15.09
12/02/2020 18:20:19	120220	12022020	182019	90.25	12.418757	-56.748462	90.21	-0.430	-0.430	2.150	90.25	-1.80	2.60	 	 	 	 	 	 	 	 	 	 	 	 	 	 	 	 	 	 	1581531619	8.88	16.45
12/02/2020 18:20:20	120220	12022020	182020	89.78	12.418755	-56.748418	89.69	0.150	-0.910	2.240	89.78	-2.30	2.70	 	 	 	 	 	 	 	 	 	 	 	 	 	 	 	 	 	 	1581531620	9.06	16.78
12/02/2020 18:20:21	120220	12022020	182021	89.13	12.418757	-56.748377	89.10	0.670	-0.760	2.180	89.13	-2.20	2.70	 	 	 	 	 	 	 	 	 	 	 	 	 	 	 	 	 	 	1581531621	8.76	16.22
12/02/2020 18:20:22	120220	12022020	182022	89.29	12.418765	-56.748338	89.32	0.670	-0.120	1.370	89.29	-1.60	1.90	 	 	 	 	 	 	 	 	 	 	 	 	 	 	 	 	 	 	1581531622	8.20	15.19
12/02/2020 18:20:23	120220	12022020	182023	90.12	12.418772	-56.748302	90.14	0.200	0.300	0.690	90.12	-1.20	1.20	 	 	 	 	 	 	 	 	 	 	 	 	 	 	 	 	 	 	1581531623	7.97	14.76
12/02/2020 18:20:24	120220	12022020	182024	90.64	12.418772	-56.748263	90.62	-0.310	0.190	1.020	90.64	-1.20	1.40	 	 	 	 	 	 	 	 	 	 	 	 	 	 	 	 	 	 	1581531624	8.23	15.24
12/02/2020 18:20:25	120220	12022020	182025	90.55	12.418767	-56.748222	90.50	-0.510	-0.140	1.760	90.55	-1.50	2.10	 	 	 	 	 	 	 	 	 	 	 	 	 	 	 	 	 	 	1581531625	8.66	16.04
12/02/2020 18:20:26	120220	12022020	182026	90.23	12.418762	-56.748180	90.18	-0.260	-0.720	2.240	90.23	-2.00	2.60	 	 	 	 	 	 	 	 	 	 	 	 	 	 	 	 	 	 	1581531626	8.90	16.48
12/02/2020 18:20:27	120220	12022020	182027	90.01	12.418758	-56.748137	89.98	0.330	-1.420	2.320	90.01	-2.80	2.80	 	 	 	 	 	 	 	 	 	 	 	 	 	 	 	 	 	 	1581531627	9.43	17.46
12/02/2020 18:20:28	120220	12022020	182028	89.76	12.418758	-56.748092	89.71	0.540	-1.130	2.040	89.76	-2.70	2.60	 	 	 	 	 	 	 	 	 	 	 	 	 	 	 	 	 	 	1581531628	9.32	17.26
12/02/2020 18:20:29	120220	12022020	182029	89.71	12.418763	-56.748057	89.68	-0.180	0.610	1.330	89.71	-1.10	1.90	 	 	 	 	 	 	 	 	 	 	 	 	 	 	 	 	 	 	1581531629	7.56	14.00
12/02/2020 18:20:30	120220	12022020	182030	89.95	12.418767	-56.748027	89.91	-1.280	2.350	0.850	89.95	0.80	1.40	 	 	 	 	 	 	 	 	 	 	 	 	 	 	 	 	 	 	1581531630	6.14	11.37
12/02/2020 18:20:31	120220	12022020	182031	90.24	12.418768	-56.747995	90.26	-1.560	2.010	0.640	90.24	0.80	1.10	 	 	 	 	 	 	 	 	 	 	 	 	 	 	 	 	 	 	1581531631	6.91	12.80
12/02/2020 18:20:32	120220	12022020	182032	90.62	12.418770	-56.747948	90.56	-0.350	-0.890	0.460	90.62	-1.80	0.90	 	 	 	 	 	 	 	 	 	 	 	 	 	 	 	 	 	 	1581531632	9.70	17.96
12/02/2020 18:20:33	120220	12022020	182033	90.58	12.418768	-56.747893	90.44	1.510	-3.810	0.780	90.58	-5.00	1.10	 	 	 	 	 	 	 	 	 	 	 	 	 	 	 	 	 	 	1581531633	11.64	21.56
12/02/2020 18:20:34	120220	12022020	182034	90.07	12.418767	-56.747847	90.00	2.290	-3.390	1.420	90.07	-5.10	1.80	 	 	 	 	 	 	 	 	 	 	 	 	 	 	 	 	 	 	1581531634	9.96	18.45
12/02/2020 18:20:35	120220	12022020	182035	89.80	12.418765	-56.747817	89.76	1.270	-0.090	1.590	89.80	-2.00	2.00	 	 	 	 	 	 	 	 	 	 	 	 	 	 	 	 	 	 	1581531635	6.24	11.56
12/02/2020 18:20:36	120220	12022020	182036	89.82	12.418768	-56.747795	89.78	-0.630	2.890	1.240	89.82	1.20	1.70	 	 	 	 	 	 	 	 	 	 	 	 	 	 	 	 	 	 	1581531636	4.72	8.74
12/02/2020 18:20:37	120220	12022020	182037	90.03	12.418772	-56.747765	90.01	-1.880	3.160	0.910	90.03	1.80	1.40	 	 	 	 	 	 	 	 	 	 	 	 	 	 	 	 	 	 	1581531637	6.43	11.91
12/02/2020 18:20:38	120220	12022020	182038	90.32	12.418772	-56.747722	90.30	-1.770	1.090	0.810	90.32	-0.00	1.30	 	 	 	 	 	 	 	 	 	 	 	 	 	 	 	 	 	 	1581531638	9.09	16.83
12/02/2020 18:20:39	120220	12022020	182039	90.59	12.418770	-56.747673	90.57	-0.780	-1.290	0.730	90.59	-2.50	1.20	 	 	 	 	 	 	 	 	 	 	 	 	 	 	 	 	 	 	1581531639	10.31	19.09
12/02/2020 18:20:40	120220	12022020	182040	90.63	12.418768	-56.747628	90.59	0.180	-2.220	0.890	90.63	-3.60	1.30	 	 	 	 	 	 	 	 	 	 	 	 	 	 	 	 	 	 	1581531640	9.34	17.30
12/02/2020 18:20:41	120220	12022020	182041	90.41	12.418765	-56.747592	90.26	0.660	-1.750	1.410	90.41	-3.30	1.80	 	 	 	 	 	 	 	 	 	 	 	 	 	 	 	 	 	 	1581531641	7.77	14.39
12/02/2020 18:20:42	120220	12022020	182042	89.86	12.418763	-56.747558	89.81	0.870	-1.020	1.730	89.86	-2.50	2.20	 	 	 	 	 	 	 	 	 	 	 	 	 	 	 	 	 	 	1581531642	7.35	13.61
12/02/2020 18:20:43	120220	12022020	182043	89.60	12.418765	-56.747520	89.51	0.930	-0.350	1.540	89.60	-1.90	2.00	 	 	 	 	 	 	 	 	 	 	 	 	 	 	 	 	 	 	1581531643	7.86	14.56
12/02/2020 18:20:44	120220	12022020	182044	89.47	12.418770	-56.747483	89.46	0.680	0.410	1.180	89.47	-1.10	1.70	 	 	 	 	 	 	 	 	 	 	 	 	 	 	 	 	 	 	1581531644	7.86	14.56
12/02/2020 18:20:45	120220	12022020	182045	89.68	12.418773	-56.747447	89.76	0.200	0.860	0.880	89.68	-0.60	1.40	 	 	 	 	 	 	 	 	 	 	 	 	 	 	 	 	 	 	1581531645	7.73	14.32
12/02/2020 18:20:46	120220	12022020	182046	90.15	12.418775	-56.747408	90.14	-0.220	0.660	0.930	90.15	-0.70	1.40	 	 	 	 	 	 	 	 	 	 	 	 	 	 	 	 	 	 	1581531646	8.08	14.96
12/02/2020 18:20:47	120220	12022020	182047	90.37	12.418773	-56.747368	90.33	-0.480	0.190	1.330	90.37	-1.20	1.70	 	 	 	 	 	 	 	 	 	 	 	 	 	 	 	 	 	 	1581531647	8.46	15.67
12/02/2020 18:20:48	120220	12022020	182048	90.25	12.418770	-56.747330	90.20	-0.580	-0.210	1.920	90.25	-1.60	2.30	 	 	 	 	 	 	 	 	 	 	 	 	 	 	 	 	 	 	1581531648	8.34	15.45
12/02/2020 18:20:49	120220	12022020	182049	89.87	12.418767	-56.747290	89.84	-0.480	-0.640	2.540	89.87	-2.00	2.90	 	 	 	 	 	 	 	 	 	 	 	 	 	 	 	 	 	 	1581531649	8.35	15.46
12/02/2020 18:20:50	120220	12022020	182050	89.72	12.418765	-56.747250	89.72	-0.190	-1.090	2.620	89.72	-2.50	3.10	 	 	 	 	 	 	 	 	 	 	 	 	 	 	 	 	 	 	1581531650	8.53	15.80
12/02/2020 18:20:51	120220	12022020	182051	89.86	12.418767	-56.747210	89.87	0.090	-1.220	2.270	89.86	-2.70	2.80	 	 	 	 	 	 	 	 	 	 	 	 	 	 	 	 	 	 	1581531651	8.58	15.89
12/02/2020 18:20:52	120220	12022020	182052	90.15	12.418768	-56.747170	90.17	0.250	-0.830	1.870	90.15	-2.30	2.40	 	 	 	 	 	 	 	 	 	 	 	 	 	 	 	 	 	 	1581531652	8.20	15.19
12/02/2020 18:20:53	120220	12022020	182053	90.43	12.418768	-56.747133	90.42	0.440	-0.260	1.450	90.43	-1.70	1.90	 	 	 	 	 	 	 	 	 	 	 	 	 	 	 	 	 	 	1581531653	7.95	14.72
12/02/2020 18:20:54	120220	12022020	182054	90.58	12.418770	-56.747095	90.56	0.680	0.140	1.140	90.58	-1.30	1.60	 	 	 	 	 	 	 	 	 	 	 	 	 	 	 	 	 	 	1581531654	8.17	15.13
12/02/2020 18:20:55	120220	12022020	182055	90.76	12.418772	-56.747055	90.73	0.640	0.400	1.000	90.76	-1.00	1.50	 	 	 	 	 	 	 	 	 	 	 	 	 	 	 	 	 	 	1581531655	8.30	15.37
12/02/2020 18:20:56	120220	12022020	182056	91.03	12.418775	-56.747017	91.02	0.140	0.630	0.940	91.03	-0.80	1.40	 	 	 	 	 	 	 	 	 	 	 	 	 	 	 	 	 	 	1581531656	8.09	14.98
12/02/2020 18:20:57	120220	12022020	182057	91.13	12.418775	-56.746980	91.07	-0.450	0.710	1.110	91.13	-0.70	1.50	 	 	 	 	 	 	 	 	 	 	 	 	 	 	 	 	 	 	1581531657	7.86	14.56
12/02/2020 18:20:58	120220	12022020	182058	90.86	12.418773	-56.746942	90.80	-0.650	0.250	1.520	90.86	-1.00	1.90	 	 	 	 	 	 	 	 	 	 	 	 	 	 	 	 	 	 	1581531658	8.02	14.85
12/02/2020 18:20:59	120220	12022020	182059	90.63	12.418773	-56.746900	90.60	-0.160	-1.110	1.710	90.63	-2.30	2.20	 	 	 	 	 	 	 	 	 	 	 	 	 	 	 	 	 	 	1581531659	8.96	16.59
12/02/2020 18:21:00	120220	12022020	182100	90.65	12.418773	-56.746853	90.65	0.620	-2.350	1.590	90.65	-3.60	2.10	 	 	 	 	 	 	 	 	 	 	 	 	 	 	 	 	 	 	1581531660	9.91	18.35
12/02/2020 18:21:01	120220	12022020	182101	90.90	12.418773	-56.746810	90.89	0.720	-1.740	1.380	90.90	-3.30	1.90	 	 	 	 	 	 	 	 	 	 	 	 	 	 	 	 	 	 	1581531661	8.95	16.58
12/02/2020 18:21:02	120220	12022020	182102	91.14	12.418773	-56.746778	91.11	-0.110	0.390	1.270	91.14	-1.30	1.70	1014.70	25.90	26.00	21.80	21.80	835.0	78.0	77.0	417.0	28.1	333.00	17.00	55.00	13.30	57355	5017.0	27.4	27.4	1581531662	6.75	12.50
12/02/2020 18:21:03	120220	12022020	182103	91.13	12.418770	-56.746750	91.08	-1.060	1.800	1.330	91.13	0.30	1.80	 	 	 	 	 	 	 	 	 	 	 	 	 	 	 	 	 	 	1581531663	6.15	11.39
12/02/2020 18:21:04	120220	12022020	182104	90.96	12.418768	-56.746712	90.91	-0.990	0.930	1.410	90.96	-0.20	1.90	 	 	 	 	 	 	 	 	 	 	 	 	 	 	 	 	 	 	1581531664	8.08	14.96
12/02/2020 18:21:05	120220	12022020	182105	90.84	12.418767	-56.746663	90.80	0.030	-0.880	1.270	90.84	-2.10	1.70	 	 	 	 	 	 	 	 	 	 	 	 	 	 	 	 	 	 	1581531665	10.18	18.85
12/02/2020 18:21:06	120220	12022020	182106	90.78	12.418767	-56.746617	90.74	0.850	-1.430	1.060	90.78	-2.80	1.50	 	 	 	 	 	 	 	 	 	 	 	 	 	 	 	 	 	 	1581531666	9.79	18.13
12/02/2020 18:21:07	120220	12022020	182107	90.75	12.418768	-56.746580	90.71	0.670	-0.310	1.010	90.75	-1.90	1.50	 	 	 	 	 	 	 	 	 	 	 	 	 	 	 	 	 	 	1581531667	7.68	14.22
12/02/2020 18:21:08	120220	12022020	182108	90.75	12.418770	-56.746550	90.69	-0.150	1.060	0.930	90.75	-0.50	1.40	 	 	 	 	 	 	 	 	 	 	 	 	 	 	 	 	 	 	1581531668	6.37	11.80
12/02/2020 18:21:09	120220	12022020	182109	90.70	12.418772	-56.746518	90.60	-0.610	1.160	0.830	90.70	-0.10	1.30	 	 	 	 	 	 	 	 	 	 	 	 	 	 	 	 	 	 	1581531669	6.87	12.72
12/02/2020 18:21:10	120220	12022020	182110	90.50	12.418773	-56.746477	90.45	-0.150	-0.370	0.860	90.50	-1.50	1.30	 	 	 	 	 	 	 	 	 	 	 	 	 	 	 	 	 	 	1581531670	8.75	16.21
12/02/2020 18:21:11	120220	12022020	182111	90.54	12.418773	-56.746430	90.52	0.650	-2.080	1.040	90.54	-3.30	1.50	 	 	 	 	 	 	 	 	 	 	 	 	 	 	 	 	 	 	1581531671	10.01	18.54
12/02/2020 18:21:12	120220	12022020	182112	90.65	12.418772	-56.746385	90.63	0.920	-2.290	1.460	90.65	-3.80	1.80	 	 	 	 	 	 	 	 	 	 	 	 	 	 	 	 	 	 	1581531672	9.37	17.35
12/02/2020 18:21:13	120220	12022020	182113	90.46	12.418767	-56.746350	90.39	0.370	-0.690	2.030	90.46	-2.40	2.40	 	 	 	 	 	 	 	 	 	 	 	 	 	 	 	 	 	 	1581531673	7.53	13.95
12/02/2020 18:21:14	120220	12022020	182114	90.00	12.418763	-56.746320	89.93	-0.500	1.190	2.420	90.00	-0.40	2.80	 	 	 	 	 	 	 	 	 	 	 	 	 	 	 	 	 	 	1581531674	6.37	11.80
12/02/2020 18:21:15	120220	12022020	182115	89.81	12.418760	-56.746287	89.78	-0.970	1.770	2.190	89.81	0.40	2.70	 	 	 	 	 	 	 	 	 	 	 	 	 	 	 	 	 	 	1581531675	6.92	12.82
12/02/2020 18:21:16	120220	12022020	182116	90.13	12.418763	-56.746248	90.11	-0.780	0.960	1.380	90.13	-0.30	1.90	 	 	 	 	 	 	 	 	 	 	 	 	 	 	 	 	 	 	1581531676	8.36	15.48
12/02/2020 18:21:17	120220	12022020	182117	90.57	12.418767	-56.746205	90.53	-0.270	-0.330	0.690	90.57	-1.60	1.20	 	 	 	 	 	 	 	 	 	 	 	 	 	 	 	 	 	 	1581531677	9.16	16.96
12/02/2020 18:21:18	120220	12022020	182118	90.73	12.418768	-56.746162	90.66	0.220	-1.350	0.620	90.73	-2.60	1.00	 	 	 	 	 	 	 	 	 	 	 	 	 	 	 	 	 	 	1581531678	9.08	16.82
12/02/2020 18:21:19	120220	12022020	182119	90.54	12.418768	-56.746120	90.45	0.570	-1.680	0.960	90.54	-3.10	1.40	 	 	 	 	 	 	 	 	 	 	 	 	 	 	 	 	 	 	1581531679	8.68	16.08
12/02/2020 18:21:20	120220	12022020	182120	90.14	12.418767	-56.746082	90.05	0.790	-1.180	1.370	90.14	-2.70	1.80	 	 	 	 	 	 	 	 	 	 	 	 	 	 	 	 	 	 	1581531680	8.10	15.00
12/02/2020 18:21:21	120220	12022020	182121	90.02	12.418770	-56.746047	90.02	0.800	-0.250	1.410	90.02	-1.80	1.90	 	 	 	 	 	 	 	 	 	 	 	 	 	 	 	 	 	 	1581531681	7.62	14.11
12/02/2020 18:21:22	120220	12022020	182122	90.49	12.418773	-56.746012	90.48	0.450	0.530	1.210	90.49	-1.00	1.70	 	 	 	 	 	 	 	 	 	 	 	 	 	 	 	 	 	 	1581531682	7.55	13.98
12/02/2020 18:21:23	120220	12022020	182123	90.95	12.418775	-56.745975	90.90	-0.150	0.850	1.090	90.95	-0.60	1.50	 	 	 	 	 	 	 	 	 	 	 	 	 	 	 	 	 	 	1581531683	7.73	14.32
12/02/2020 18:21:24	120220	12022020	182124	91.10	12.418772	-56.745937	91.03	-0.680	0.530	1.330	91.10	-0.80	1.70	 	 	 	 	 	 	 	 	 	 	 	 	 	 	 	 	 	 	1581531684	8.14	15.08
12/02/2020 18:21:25	120220	12022020	182125	90.95	12.418767	-56.745895	90.89	-0.830	-0.300	1.770	90.95	-1.60	2.20	 	 	 	 	 	 	 	 	 	 	 	 	 	 	 	 	 	 	1581531685	8.78	16.26
12/02/2020 18:21:26	120220	12022020	182126	90.85	12.418763	-56.745852	90.81	-0.570	-0.980	1.900	90.85	-2.30	2.40	 	 	 	 	 	 	 	 	 	 	 	 	 	 	 	 	 	 	1581531686	8.98	16.63
12/02/2020 18:21:27	120220	12022020	182127	90.87	12.418762	-56.745812	90.82	-0.110	-1.060	1.590	90.87	-2.50	2.10	 	 	 	 	 	 	 	 	 	 	 	 	 	 	 	 	 	 	1581531687	8.54	15.82
12/02/2020 18:21:28	120220	12022020	182128	90.93	12.418765	-56.745773	90.89	0.270	-0.730	1.160	90.93	-2.20	1.70	 	 	 	 	 	 	 	 	 	 	 	 	 	 	 	 	 	 	1581531688	8.12	15.04
12/02/2020 18:21:29	120220	12022020	182129	90.92	12.418767	-56.745735	90.86	0.450	-0.380	1.040	90.92	-1.80	1.50	 	 	 	 	 	 	 	 	 	 	 	 	 	 	 	 	 	 	1581531689	8.05	14.91
12/02/2020 18:21:30	120220	12022020	182130	90.84	12.418768	-56.745697	90.78	0.530	-0.180	1.050	90.84	-1.60	1.50	 	 	 	 	 	 	 	 	 	 	 	 	 	 	 	 	 	 	1581531690	8.33	15.43
12/02/2020 18:21:31	120220	12022020	182131	90.98	12.418768	-56.745657	90.97	0.430	0.120	0.960	90.98	-1.30	1.40	 	 	 	 	 	 	 	 	 	 	 	 	 	 	 	 	 	 	1581531691	8.35	15.46
12/02/2020 18:21:32	120220	12022020	182132	91.20	12.418767	-56.745618	91.17	0.100	0.460	1.070	91.20	-1.00	1.50	 	 	 	 	 	 	 	 	 	 	 	 	 	 	 	 	 	 	1581531692	8.04	14.89
12/02/2020 18:21:33	120220	12022020	182133	91.28	12.418765	-56.745582	91.24	-0.260	0.490	1.280	91.28	-0.90	1.70	 	 	 	 	 	 	 	 	 	 	 	 	 	 	 	 	 	 	1581531693	7.98	14.78
12/02/2020 18:21:34	120220	12022020	182134	91.10	12.418763	-56.745542	91.04	-0.340	-0.010	1.450	91.10	-1.30	1.90	 	 	 	 	 	 	 	 	 	 	 	 	 	 	 	 	 	 	1581531694	8.37	15.50
12/02/2020 18:21:35	120220	12022020	182135	90.83	12.418762	-56.745498	90.71	-0.040	-0.920	1.650	90.83	-2.20	2.10	 	 	 	 	 	 	 	 	 	 	 	 	 	 	 	 	 	 	1581531695	9.02	16.71
12/02/2020 18:21:36	120220	12022020	182136	90.47	12.418762	-56.745455	90.43	0.370	-1.500	1.810	90.47	-2.90	2.30	 	 	 	 	 	 	 	 	 	 	 	 	 	 	 	 	 	 	1581531696	9.31	17.24
12/02/2020 18:21:37	120220	12022020	182137	90.47	12.418762	-56.745413	90.45	0.420	-1.090	1.740	90.47	-2.60	2.20	 	 	 	 	 	 	 	 	 	 	 	 	 	 	 	 	 	 	1581531697	8.70	16.11
12/02/2020 18:21:38	120220	12022020	182138	90.63	12.418762	-56.745377	90.61	-0.060	-0.010	1.850	90.63	-1.60	2.30	 	 	 	 	 	 	 	 	 	 	 	 	 	 	 	 	 	 	1581531698	7.67	14.20
12/02/2020 18:21:39	120220	12022020	182139	90.69	12.418757	-56.745343	90.66	-0.760	1.030	2.240	90.69	-0.50	2.60	 	 	 	 	 	 	 	 	 	 	 	 	 	 	 	 	 	 	1581531699	7.25	13.43
12/02/2020 18:21:40	120220	12022020	182140	90.55	12.418750	-56.745308	90.49	-1.080	1.170	2.520	90.55	-0.20	3.00	 	 	 	 	 	 	 	 	 	 	 	 	 	 	 	 	 	 	1581531700	7.65	14.17
12/02/2020 18:21:41	120220	12022020	182141	90.30	12.418747	-56.745267	90.22	-0.580	-0.100	2.400	90.30	-1.30	2.90	 	 	 	 	 	 	 	 	 	 	 	 	 	 	 	 	 	 	1581531701	8.90	16.48
12/02/2020 18:21:42	120220	12022020	182142	90.13	12.418748	-56.745218	90.08	0.430	-1.730	2.030	90.13	-2.90	2.50	 	 	 	 	 	 	 	 	 	 	 	 	 	 	 	 	 	 	1581531702	10.12	18.74
12/02/2020 18:21:43	120220	12022020	182143	90.19	12.418752	-56.745172	90.14	1.100	-2.070	1.500	90.19	-3.50	2.00	 	 	 	 	 	 	 	 	 	 	 	 	 	 	 	 	 	 	1581531703	9.69	17.95
12/02/2020 18:21:44	120220	12022020	182144	90.28	12.418755	-56.745135	90.22	1.000	-0.830	1.270	90.28	-2.40	1.70	 	 	 	 	 	 	 	 	 	 	 	 	 	 	 	 	 	 	1581531704	8.01	14.83
12/02/2020 18:21:45	120220	12022020	182145	90.40	12.418757	-56.745102	90.36	0.360	0.820	1.450	90.40	-0.70	1.90	 	 	 	 	 	 	 	 	 	 	 	 	 	 	 	 	 	 	1581531705	6.88	12.74
12/02/2020 18:21:46	120220	12022020	182146	90.63	12.418755	-56.745068	90.61	-0.390	1.620	1.540	90.63	0.20	2.00	 	 	 	 	 	 	 	 	 	 	 	 	 	 	 	 	 	 	1581531706	7.18	13.30
12/02/2020 18:21:47	120220	12022020	182147	90.82	12.418755	-56.745030	90.78	-0.890	1.220	1.690	90.82	-0.00	2.10	 	 	 	 	 	 	 	 	 	 	 	 	 	 	 	 	 	 	1581531707	8.12	15.04
12/02/2020 18:21:48	120220	12022020	182148	90.71	12.418750	-56.744988	90.67	-0.910	0.100	2.030	90.71	-1.10	2.40	 	 	 	 	 	 	 	 	 	 	 	 	 	 	 	 	 	 	1581531708	8.96	16.59
12/02/2020 18:21:49	120220	12022020	182149	90.50	12.418748	-56.744945	90.47	-0.480	-1.140	2.180	90.50	-2.30	2.60	 	 	 	 	 	 	 	 	 	 	 	 	 	 	 	 	 	 	1581531709	9.18	17.00
12/02/2020 18:21:50	120220	12022020	182150	90.25	12.418747	-56.744900	90.21	0.290	-2.240	2.150	90.25	-3.50	2.60	 	 	 	 	 	 	 	 	 	 	 	 	 	 	 	 	 	 	1581531710	9.35	17.32
12/02/2020 18:21:51	120220	12022020	182151	90.07	12.418747	-56.744855	90.04	1.020	-2.510	1.910	90.07	-3.90	2.40	 	 	 	 	 	 	 	 	 	 	 	 	 	 	 	 	 	 	1581531711	9.46	17.52
12/02/2020 18:21:52	120220	12022020	182152	90.13	12.418748	-56.744815	90.08	0.940	-1.050	1.630	90.13	-2.70	2.10	 	 	 	 	 	 	 	 	 	 	 	 	 	 	 	 	 	 	1581531712	8.35	15.46
12/02/2020 18:21:53	120220	12022020	182153	90.23	12.418748	-56.744785	90.17	-0.070	1.350	1.550	90.23	-0.30	2.00	 	 	 	 	 	 	 	 	 	 	 	 	 	 	 	 	 	 	1581531713	6.62	12.26
12/02/2020 18:21:54	120220	12022020	182154	90.27	12.418747	-56.744755	90.21	-1.200	2.770	1.490	90.27	1.30	2.00	 	 	 	 	 	 	 	 	 	 	 	 	 	 	 	 	 	 	1581531714	6.30	11.67
12/02/2020 18:21:55	120220	12022020	182155	90.30	12.418745	-56.744718	90.25	-1.390	1.920	1.180	90.30	0.80	1.70	 	 	 	 	 	 	 	 	 	 	 	 	 	 	 	 	 	 	1581531715	7.84	14.52
12/02/2020 18:21:56	120220	12022020	182156	90.32	12.418747	-56.744670	90.26	-0.330	-0.630	0.930	90.32	-1.70	1.40	 	 	 	 	 	 	 	 	 	 	 	 	 	 	 	 	 	 	1581531716	10.04	18.59
12/02/2020 18:21:57	120220	12022020	182157	90.26	12.418748	-56.744618	90.18	1.060	-2.780	1.070	90.26	-4.00	1.50	 	 	 	 	 	 	 	 	 	 	 	 	 	 	 	 	 	 	1581531717	10.86	20.11
12/02/2020 18:21:58	120220	12022020	182158	90.01	12.418748	-56.744573	89.96	1.480	-2.660	1.520	90.01	-4.20	1.90	 	 	 	 	 	 	 	 	 	 	 	 	 	 	 	 	 	 	1581531718	9.49	17.58
12/02/2020 18:21:59	120220	12022020	182159	89.77	12.418747	-56.744540	89.66	0.560	-0.460	2.140	89.77	-2.20	2.50	 	 	 	 	 	 	 	 	 	 	 	 	 	 	 	 	 	 	1581531719	7.06	13.08
12/02/2020 18:22:00	120220	12022020	182200	89.59	12.418742	-56.744513	89.57	-0.790	1.790	2.600	89.59	0.20	3.00	 	 	 	 	 	 	 	 	 	 	 	 	 	 	 	 	 	 	1581531720	5.81	10.76
12/02/2020 18:22:01	120220	12022020	182201	89.74	12.418740	-56.744480	89.72	-1.310	1.890	2.470	89.74	0.60	3.00	 	 	 	 	 	 	 	 	 	 	 	 	 	 	 	 	 	 	1581531721	6.98	12.93
12/02/2020 18:22:02	120220	12022020	182202	89.84	12.418740	-56.744435	89.80	-0.600	-0.060	2.090	89.84	-1.20	2.60	1014.70	25.50	25.60	21.40	21.40	856.0	78.0	77.0	416.0	28.1	337.00	18.60	61.00	14.80	57373	4842.0	27.4	27.3	1581531722	9.56	17.71
12/02/2020 18:22:03	120220	12022020	182203	89.66	12.418738	-56.744385	89.60	0.380	-1.650	1.950	89.66	-2.90	2.40	 	 	 	 	 	 	 	 	 	 	 	 	 	 	 	 	 	 	1581531723	10.53	19.50
12/02/2020 18:22:04	120220	12022020	182204	89.38	12.418740	-56.744343	89.31	0.670	-1.370	1.850	89.38	-2.90	2.30	 	 	 	 	 	 	 	 	 	 	 	 	 	 	 	 	 	 	1581531724	8.90	16.48
12/02/2020 18:22:05	120220	12022020	182205	89.10	12.418742	-56.744310	89.03	0.180	-0.010	1.810	89.10	-1.60	2.30	 	 	 	 	 	 	 	 	 	 	 	 	 	 	 	 	 	 	1581531725	7.02	13.00
12/02/2020 18:22:06	120220	12022020	182206	89.00	12.418743	-56.744277	88.94	-0.320	0.560	1.750	89.00	-0.80	2.20	 	 	 	 	 	 	 	 	 	 	 	 	 	 	 	 	 	 	1581531726	7.01	12.98
12/02/2020 18:22:07	120220	12022020	182207	89.09	12.418745	-56.744237	89.06	-0.200	-0.260	1.640	89.09	-1.50	2.10	 	 	 	 	 	 	 	 	 	 	 	 	 	 	 	 	 	 	1581531727	8.67	16.06
12/02/2020 18:22:08	120220	12022020	182208	89.06	12.418743	-56.744192	89.00	0.140	-0.790	1.750	89.06	-2.20	2.20	 	 	 	 	 	 	 	 	 	 	 	 	 	 	 	 	 	 	1581531728	9.52	17.63
12/02/2020 18:22:09	120220	12022020	182209	88.85	12.418742	-56.744152	88.73	0.070	-0.090	1.930	88.85	-1.60	2.40	 	 	 	 	 	 	 	 	 	 	 	 	 	 	 	 	 	 	1581531729	8.17	15.13
12/02/2020 18:22:10	120220	12022020	182210	88.41	12.418742	-56.744120	88.36	-0.290	0.770	1.940	88.41	-0.70	2.40	 	 	 	 	 	 	 	 	 	 	 	 	 	 	 	 	 	 	1581531730	7.03	13.02
12/02/2020 18:22:11	120220	12022020	182211	88.29	12.418745	-56.744083	88.26	-0.330	0.450	1.560	88.29	-0.80	2.10	 	 	 	 	 	 	 	 	 	 	 	 	 	 	 	 	 	 	1581531731	7.66	14.19
12/02/2020 18:22:12	120220	12022020	182212	88.46	12.418750	-56.744040	88.44	0.240	-1.000	1.130	88.46	-2.20	1.60	 	 	 	 	 	 	 	 	 	 	 	 	 	 	 	 	 	 	1581531732	9.25	17.13
12/02/2020 18:22:13	120220	12022020	182213	88.63	12.418753	-56.743993	88.59	0.850	-1.920	0.980	88.63	-3.30	1.40	 	 	 	 	 	 	 	 	 	 	 	 	 	 	 	 	 	 	1581531733	9.93	18.39
12/02/2020 18:22:14	120220	12022020	182214	88.65	12.418755	-56.743953	88.59	0.640	-0.830	1.350	88.65	-2.50	1.70	 	 	 	 	 	 	 	 	 	 	 	 	 	 	 	 	 	 	1581531734	8.23	15.24
12/02/2020 18:22:15	120220	12022020	182215	88.57	12.418753	-56.743925	88.51	-0.360	1.180	1.920	88.57	-0.50	2.30	 	 	 	 	 	 	 	 	 	 	 	 	 	 	 	 	 	 	1581531735	6.22	11.52
12/02/2020 18:22:16	120220	12022020	182216	88.38	12.418752	-56.743895	88.35	-1.160	1.820	2.230	88.38	0.50	2.70	 	 	 	 	 	 	 	 	 	 	 	 	 	 	 	 	 	 	1581531736	6.27	11.61
12/02/2020 18:22:17	120220	12022020	182217	88.33	12.418752	-56.743855	88.31	-0.760	0.130	2.140	88.33	-0.90	2.60	 	 	 	 	 	 	 	 	 	 	 	 	 	 	 	 	 	 	1581531737	8.61	15.95
12/02/2020 18:22:18	120220	12022020	182218	88.41	12.418753	-56.743805	88.39	0.340	-1.860	1.880	88.41	-3.10	2.40	 	 	 	 	 	 	 	 	 	 	 	 	 	 	 	 	 	 	1581531738	10.37	19.21
12/02/2020 18:22:19	120220	12022020	182219	88.61	12.418757	-56.743762	88.59	0.840	-1.860	1.450	88.61	-3.40	2.00	 	 	 	 	 	 	 	 	 	 	 	 	 	 	 	 	 	 	1581531739	9.19	17.02
12/02/2020 18:22:20	120220	12022020	182220	88.89	12.418762	-56.743730	88.85	0.370	-0.170	1.140	88.89	-1.80	1.60	 	 	 	 	 	 	 	 	 	 	 	 	 	 	 	 	 	 	1581531740	6.81	12.61
12/02/2020 18:22:21	120220	12022020	182221	89.02	12.418763	-56.743702	88.98	-0.340	1.150	1.190	89.02	-0.30	1.60	 	 	 	 	 	 	 	 	 	 	 	 	 	 	 	 	 	 	1581531741	5.92	10.96
12/02/2020 18:22:22	120220	12022020	182222	89.07	12.418765	-56.743667	89.04	-0.300	0.550	1.270	89.07	-0.70	1.70	 	 	 	 	 	 	 	 	 	 	 	 	 	 	 	 	 	 	1581531742	7.60	14.08
12/02/2020 18:22:23	120220	12022020	182223	89.06	12.418765	-56.743622	88.99	0.320	-0.780	1.370	89.06	-2.00	1.80	 	 	 	 	 	 	 	 	 	 	 	 	 	 	 	 	 	 	1581531743	9.43	17.46
12/02/2020 18:22:24	120220	12022020	182224	88.83	12.418765	-56.743578	88.79	0.640	-1.010	1.480	88.83	-2.50	1.90	 	 	 	 	 	 	 	 	 	 	 	 	 	 	 	 	 	 	1581531744	9.04	16.74
12/02/2020 18:22:25	120220	12022020	182225	88.78	12.418768	-56.743543	88.77	0.160	-0.010	1.380	88.78	-1.60	1.90	 	 	 	 	 	 	 	 	 	 	 	 	 	 	 	 	 	 	1581531745	7.40	13.70
12/02/2020 18:22:26	120220	12022020	182226	89.03	12.418772	-56.743513	89.01	-0.680	0.920	1.200	89.03	-0.50	1.70	 	 	 	 	 	 	 	 	 	 	 	 	 	 	 	 	 	 	1581531746	6.50	12.04
12/02/2020 18:22:27	120220	12022020	182227	89.30	12.418773	-56.743480	89.28	-1.030	0.690	1.150	89.30	-0.60	1.60	 	 	 	 	 	 	 	 	 	 	 	 	 	 	 	 	 	 	1581531747	7.17	13.28
12/02/2020 18:22:28	120220	12022020	182228	89.55	12.418775	-56.743440	89.52	-0.500	-0.550	1.150	89.55	-1.70	1.60	 	 	 	 	 	 	 	 	 	 	 	 	 	 	 	 	 	 	1581531748	8.50	15.74
12/02/2020 18:22:29	120220	12022020	182229	89.57	12.418773	-56.743395	89.50	0.510	-1.820	1.430	89.57	-3.10	1.80	 	 	 	 	 	 	 	 	 	 	 	 	 	 	 	 	 	 	1581531749	9.26	17.15
12/02/2020 18:22:30	120220	12022020	182230	89.19	12.418770	-56.743353	89.12	1.260	-2.090	1.840	89.19	-3.50	2.20	 	 	 	 	 	 	 	 	 	 	 	 	 	 	 	 	 	 	1581531750	9.00	16.67
12/02/2020 18:22:31	120220	12022020	182231	88.87	12.418772	-56.743317	88.82	1.140	-0.950	1.930	88.87	-2.50	2.40	 	 	 	 	 	 	 	 	 	 	 	 	 	 	 	 	 	 	1581531751	7.79	14.43
12/02/2020 18:22:32	120220	12022020	182232	88.97	12.418775	-56.743285	88.95	0.220	0.910	1.630	88.97	-0.70	2.10	 	 	 	 	 	 	 	 	 	 	 	 	 	 	 	 	 	 	1581531752	6.52	12.08
12/02/2020 18:22:33	120220	12022020	182233	89.43	12.418778	-56.743257	89.42	-0.910	2.290	1.150	89.43	0.80	1.70	 	 	 	 	 	 	 	 	 	 	 	 	 	 	 	 	 	 	1581531753	6.08	11.26
12/02/2020 18:22:34	120220	12022020	182234	90.04	12.418780	-56.743225	90.01	-1.550	2.170	0.720	90.04	0.90	1.20	 	 	 	 	 	 	 	 	 	 	 	 	 	 	 	 	 	 	1581531754	6.69	12.39
12/02/2020 18:22:35	120220	12022020	182235	90.36	12.418778	-56.743187	90.32	-1.260	0.280	0.880	90.36	-0.80	1.30	 	 	 	 	 	 	 	 	 	 	 	 	 	 	 	 	 	 	1581531755	8.22	15.22
12/02/2020 18:22:36	120220	12022020	182236	90.23	12.418775	-56.743140	90.15	-0.070	-2.430	1.460	90.23	-3.50	1.80	 	 	 	 	 	 	 	 	 	 	 	 	 	 	 	 	 	 	1581531756	9.83	18.21
12/02/2020 18:22:37	120220	12022020	182237	89.68	12.418772	-56.743093	89.60	1.220	-3.750	1.930	89.68	-5.10	2.30	 	 	 	 	 	 	 	 	 	 	 	 	 	 	 	 	 	 	1581531757	9.86	18.26
12/02/2020 18:22:38	120220	12022020	182238	89.28	12.418773	-56.743057	89.23	1.670	-2.410	2.060	89.28	-4.10	2.50	 	 	 	 	 	 	 	 	 	 	 	 	 	 	 	 	 	 	1581531758	7.83	14.50
12/02/2020 18:22:39	120220	12022020	182239	89.50	12.418777	-56.743032	89.51	1.040	0.450	1.950	89.50	-1.30	2.40	 	 	 	 	 	 	 	 	 	 	 	 	 	 	 	 	 	 	1581531759	5.54	10.26
12/02/2020 18:22:40	120220	12022020	182240	90.25	12.418778	-56.743007	90.25	-0.110	2.510	1.720	90.25	0.90	2.20	 	 	 	 	 	 	 	 	 	 	 	 	 	 	 	 	 	 	1581531760	5.04	9.33
12/02/2020 18:22:41	120220	12022020	182241	90.86	12.418778	-56.742977	90.83	-0.990	2.480	1.530	90.86	1.20	2.00	 	 	 	 	 	 	 	 	 	 	 	 	 	 	 	 	 	 	1581531761	6.44	11.93
12/02/2020 18:22:42	120220	12022020	182242	90.93	12.418775	-56.742937	90.87	-1.120	0.650	1.700	90.93	-0.40	2.10	 	 	 	 	 	 	 	 	 	 	 	 	 	 	 	 	 	 	1581531762	8.39	15.54
12/02/2020 18:22:43	120220	12022020	182243	90.61	12.418770	-56.742893	90.54	-0.590	-1.380	2.090	90.61	-2.60	2.50	 	 	 	 	 	 	 	 	 	 	 	 	 	 	 	 	 	 	1581531763	9.39	17.39
12/02/2020 18:22:44	120220	12022020	182244	90.40	12.418767	-56.742853	90.35	-0.010	-2.010	2.200	90.40	-3.40	2.70	 	 	 	 	 	 	 	 	 	 	 	 	 	 	 	 	 	 	1581531764	8.48	15.70
12/02/2020 18:22:45	120220	12022020	182245	90.50	12.418767	-56.742822	90.47	0.270	-1.230	1.780	90.50	-2.70	2.30	 	 	 	 	 	 	 	 	 	 	 	 	 	 	 	 	 	 	1581531765	6.74	12.48
12/02/2020 18:22:46	120220	12022020	182246	90.65	12.418770	-56.742793	90.60	0.380	-0.250	1.210	90.65	-1.70	1.70	 	 	 	 	 	 	 	 	 	 	 	 	 	 	 	 	 	 	1581531766	6.05	11.20
12/02/2020 18:22:47	120220	12022020	182247	90.62	12.418773	-56.742760	90.51	0.580	-0.080	0.980	90.62	-1.40	1.40	 	 	 	 	 	 	 	 	 	 	 	 	 	 	 	 	 	 	1581531767	6.81	12.61
12/02/2020 18:22:48	120220	12022020	182248	90.39	12.418773	-56.742723	90.32	0.770	-0.470	1.130	90.39	-1.80	1.60	 	 	 	 	 	 	 	 	 	 	 	 	 	 	 	 	 	 	1581531768	7.84	14.52
12/02/2020 18:22:49	120220	12022020	182249	90.47	12.418773	-56.742687	90.51	0.580	-0.460	1.220	90.47	-1.90	1.70	 	 	 	 	 	 	 	 	 	 	 	 	 	 	 	 	 	 	1581531769	7.98	14.78
12/02/2020 18:22:50	120220	12022020	182250	90.95	12.418772	-56.742653	90.93	-0.120	0.390	1.400	90.95	-1.10	1.80	 	 	 	 	 	 	 	 	 	 	 	 	 	 	 	 	 	 	1581531770	6.83	12.65
12/02/2020 18:22:51	120220	12022020	182251	91.25	12.418768	-56.742627	91.20	-0.920	1.230	1.780	91.25	-0.20	2.20	 	 	 	 	 	 	 	 	 	 	 	 	 	 	 	 	 	 	1581531771	5.92	10.96
12/02/2020 18:22:52	120220	12022020	182252	91.23	12.418763	-56.742595	91.17	-1.120	0.870	2.180	91.23	-0.40	2.60	 	 	 	 	 	 	 	 	 	 	 	 	 	 	 	 	 	 	1581531772	6.53	12.09
12/02/2020 18:22:53	120220	12022020	182253	91.01	12.418758	-56.742558	90.96	-0.510	-0.630	2.450	91.01	-1.80	2.90	 	 	 	 	 	 	 	 	 	 	 	 	 	 	 	 	 	 	1581531773	8.00	14.82
12/02/2020 18:22:54	120220	12022020	182254	90.75	12.418755	-56.742517	90.71	0.350	-1.840	2.670	90.75	-3.10	3.10	 	 	 	 	 	 	 	 	 	 	 	 	 	 	 	 	 	 	1581531774	8.59	15.91
12/02/2020 18:22:55	120220	12022020	182255	90.67	12.418755	-56.742482	90.65	0.750	-1.750	2.430	90.67	-3.20	2.90	 	 	 	 	 	 	 	 	 	 	 	 	 	 	 	 	 	 	1581531775	7.66	14.19
12/02/2020 18:22:56	120220	12022020	182256	90.85	12.418757	-56.742452	90.84	0.560	-0.550	1.870	90.85	-2.10	2.40	 	 	 	 	 	 	 	 	 	 	 	 	 	 	 	 	 	 	1581531776	6.36	11.78
12/02/2020 18:22:57	120220	12022020	182257	90.97	12.418758	-56.742425	90.92	0.170	0.770	1.660	90.97	-0.70	2.10	 	 	 	 	 	 	 	 	 	 	 	 	 	 	 	 	 	 	1581531777	5.59	10.35
12/02/2020 18:22:58	120220	12022020	182258	90.83	12.418757	-56.742395	90.77	0.010	1.050	1.670	90.83	-0.30	2.10	 	 	 	 	 	 	 	 	 	 	 	 	 	 	 	 	 	 	1581531778	6.17	11.43
12/02/2020 18:22:59	120220	12022020	182259	90.75	12.418757	-56.742360	90.70	0.100	0.220	1.410	90.75	-1.00	1.90	 	 	 	 	 	 	 	 	 	 	 	 	 	 	 	 	 	 	1581531779	7.48	13.85
12/02/2020 18:23:00	120220	12022020	182300	90.86	12.418758	-56.742322	90.82	0.130	-0.640	1.030	90.86	-1.90	1.50	 	 	 	 	 	 	 	 	 	 	 	 	 	 	 	 	 	 	1581531780	7.98	14.78
12/02/2020 18:23:01	120220	12022020	182301	91.02	12.418758	-56.742288	90.98	-0.040	-0.760	1.090	91.02	-2.20	1.50	 	 	 	 	 	 	 	 	 	 	 	 	 	 	 	 	 	 	1581531781	7.27	13.46
12/02/2020 18:23:02	120220	12022020	182302	91.13	12.418755	-56.742257	91.08	-0.180	-0.470	1.480	91.13	-1.90	1.90	1014.70	25.30	25.40	20.70	20.80	649.0	75.0	75.0	424.0	28.0	334.00	18.90	57.00	15.50	47293	4438.0	27.3	27.3	1581531782	6.56	12.15
12/02/2020 18:23:03	120220	12022020	182303	91.08	12.418752	-56.742225	90.99	-0.140	-0.340	1.680	91.08	-1.70	2.10	 	 	 	 	 	 	 	 	 	 	 	 	 	 	 	 	 	 	1581531783	6.66	12.33
12/02/2020 18:23:04	120220	12022020	182304	90.80	12.418750	-56.742193	90.75	-0.060	-0.270	1.890	90.80	-1.70	2.30	 	 	 	 	 	 	 	 	 	 	 	 	 	 	 	 	 	 	1581531784	6.95	12.87
12/02/2020 18:23:05	120220	12022020	182305	90.52	12.418747	-56.742160	90.48	-0.060	-0.070	2.210	90.52	-1.50	2.60	 	 	 	 	 	 	 	 	 	 	 	 	 	 	 	 	 	 	1581531785	6.86	12.70
12/02/2020 18:23:06	120220	12022020	182306	90.46	12.418743	-56.742128	90.42	-0.090	0.020	2.000	90.46	-1.40	2.50	 	 	 	 	 	 	 	 	 	 	 	 	 	 	 	 	 	 	1581531786	6.76	12.52
12/02/2020 18:23:07	120220	12022020	182307	90.56	12.418745	-56.742095	90.51	-0.080	-0.140	1.430	90.56	-1.50	2.00	 	 	 	 	 	 	 	 	 	 	 	 	 	 	 	 	 	 	1581531787	6.97	12.91
12/02/2020 18:23:08	120220	12022020	182308	90.60	12.418747	-56.742062	90.54	-0.040	-0.280	1.120	90.60	-1.60	1.60	 	 	 	 	 	 	 	 	 	 	 	 	 	 	 	 	 	 	1581531788	7.04	13.04
12/02/2020 18:23:09	120220	12022020	182309	90.45	12.418745	-56.742030	90.35	0.030	-0.320	1.090	90.45	-1.70	1.50	 	 	 	 	 	 	 	 	 	 	 	 	 	 	 	 	 	 	1581531789	6.87	12.72
12/02/2020 18:23:10	120220	12022020	182310	90.10	12.418745	-56.741997	90.01	0.170	-0.490	1.250	90.10	-1.80	1.70	 	 	 	 	 	 	 	 	 	 	 	 	 	 	 	 	 	 	1581531790	6.95	12.87
12/02/2020 18:23:11	120220	12022020	182311	89.81	12.418745	-56.741962	89.74	0.380	-0.810	1.360	89.81	-2.10	1.80	 	 	 	 	 	 	 	 	 	 	 	 	 	 	 	 	 	 	1581531791	7.33	13.58
12/02/2020 18:23:12	120220	12022020	182312	89.79	12.418745	-56.741927	89.73	0.460	-0.730	1.350	89.79	-2.10	1.80	 	 	 	 	 	 	 	 	 	 	 	 	 	 	 	 	 	 	1581531792	7.39	13.69
12/02/2020 18:23:13	120220	12022020	182313	89.89	12.418743	-56.741897	89.88	0.170	0.040	1.560	89.89	-1.50	2.00	 	 	 	 	 	 	 	 	 	 	 	 	 	 	 	 	 	 	1581531793	6.61	12.24
12/02/2020 18:23:14	120220	12022020	182314	90.02	12.418740	-56.741868	89.97	-0.390	0.760	1.830	90.02	-0.70	2.20	 	 	 	 	 	 	 	 	 	 	 	 	 	 	 	 	 	 	1581531794	6.09	11.28
12/02/2020 18:23:15	120220	12022020	182315	89.92	12.418737	-56.741838	89.80	-0.860	0.880	2.030	89.92	-0.50	2.40	 	 	 	 	 	 	 	 	 	 	 	 	 	 	 	 	 	 	1581531795	6.37	11.80
12/02/2020 18:23:16	120220	12022020	182316	89.58	12.418733	-56.741805	89.50	-0.910	0.350	2.140	89.58	-0.90	2.60	 	 	 	 	 	 	 	 	 	 	 	 	 	 	 	 	 	 	1581531796	6.82	12.63
12/02/2020 18:23:17	120220	12022020	182317	89.36	12.418733	-56.741770	89.30	-0.390	-0.710	2.060	89.36	-1.90	2.50	 	 	 	 	 	 	 	 	 	 	 	 	 	 	 	 	 	 	1581531797	7.42	13.74
12/02/2020 18:23:18	120220	12022020	182318	89.15	12.418733	-56.741733	89.09	0.390	-1.520	1.800	89.15	-2.80	2.30	 	 	 	 	 	 	 	 	 	 	 	 	 	 	 	 	 	 	1581531798	7.75	14.35
12/02/2020 18:23:19	120220	12022020	182319	88.98	12.418737	-56.741700	88.92	0.910	-1.550	1.430	88.98	-2.90	1.90	 	 	 	 	 	 	 	 	 	 	 	 	 	 	 	 	 	 	1581531799	7.26	13.45
12/02/2020 18:23:20	120220	12022020	182320	88.84	12.418738	-56.741668	88.78	0.970	-1.050	1.280	88.84	-2.50	1.70	 	 	 	 	 	 	 	 	 	 	 	 	 	 	 	 	 	 	1581531800	6.74	12.48
12/02/2020 18:23:21	120220	12022020	182321	88.70	12.418740	-56.741637	88.66	0.640	-0.270	1.460	88.70	-1.80	1.90	 	 	 	 	 	 	 	 	 	 	 	 	 	 	 	 	 	 	1581531801	6.61	12.24
12/02/2020 18:23:22	120220	12022020	182322	88.76	12.418738	-56.741607	88.75	-0.010	0.850	1.530	88.76	-0.70	2.00	 	 	 	 	 	 	 	 	 	 	 	 	 	 	 	 	 	 	1581531802	6.22	11.52
12/02/2020 18:23:23	120220	12022020	182323	88.99	12.418738	-56.741580	88.98	-0.820	1.760	1.520	88.99	0.30	2.00	 	 	 	 	 	 	 	 	 	 	 	 	 	 	 	 	 	 	1581531803	5.69	10.54
12/02/2020 18:23:24	120220	12022020	182324	89.11	12.418737	-56.741552	89.08	-1.360	1.450	1.590	89.11	0.20	2.00	 	 	 	 	 	 	 	 	 	 	 	 	 	 	 	 	 	 	1581531804	6.06	11.22
12/02/2020 18:23:25	120220	12022020	182325	88.91	12.418735	-56.741517	88.85	-1.030	-0.330	1.880	88.91	-1.40	2.30	 	 	 	 	 	 	 	 	 	 	 	 	 	 	 	 	 	 	1581531805	7.53	13.95
12/02/2020 18:23:26	120220	12022020	182326	88.36	12.418730	-56.741475	88.30	0.020	-2.260	2.390	88.36	-3.40	2.80	 	 	 	 	 	 	 	 	 	 	 	 	 	 	 	 	 	 	1581531806	8.66	16.04
12/02/2020 18:23:27	120220	12022020	182327	88.00	12.418730	-56.741437	87.92	0.890	-2.580	2.500	88.00	-4.00	3.00	 	 	 	 	 	 	 	 	 	 	 	 	 	 	 	 	 	 	1581531807	8.00	14.82
12/02/2020 18:23:28	120220	12022020	182328	88.04	12.418733	-56.741408	88.04	0.900	-1.080	2.010	88.04	-2.70	2.50	 	 	 	 	 	 	 	 	 	 	 	 	 	 	 	 	 	 	1581531808	6.09	11.28
12/02/2020 18:23:29	120220	12022020	182329	88.45	12.418735	-56.741387	88.46	0.240	0.770	1.570	88.45	-0.80	2.10	 	 	 	 	 	 	 	 	 	 	 	 	 	 	 	 	 	 	1581531809	4.90	9.07
12/02/2020 18:23:30	120220	12022020	182330	88.84	12.418737	-56.741360	88.85	-0.390	1.510	1.500	88.84	0.10	1.90	 	 	 	 	 	 	 	 	 	 	 	 	 	 	 	 	 	 	1581531810	5.32	9.85
12/02/2020 18:23:31	120220	12022020	182331	88.94	12.418735	-56.741328	88.92	-0.430	0.780	1.700	88.94	-0.40	2.10	 	 	 	 	 	 	 	 	 	 	 	 	 	 	 	 	 	 	1581531811	6.78	12.56
12/02/2020 18:23:32	120220	12022020	182332	88.65	12.418733	-56.741292	88.60	-0.040	-0.430	1.940	88.65	-1.70	2.40	 	 	 	 	 	 	 	 	 	 	 	 	 	 	 	 	 	 	1581531812	7.90	14.63
12/02/2020 18:23:33	120220	12022020	182333	88.36	12.418733	-56.741257	88.31	0.100	-0.660	1.950	88.36	-2.10	2.40	 	 	 	 	 	 	 	 	 	 	 	 	 	 	 	 	 	 	1581531813	7.29	13.50
12/02/2020 18:23:34	120220	12022020	182334	88.30	12.418735	-56.741228	88.28	-0.210	-0.110	1.980	88.30	-1.60	2.40	 	 	 	 	 	 	 	 	 	 	 	 	 	 	 	 	 	 	1581531814	5.85	10.83
12/02/2020 18:23:35	120220	12022020	182335	88.34	12.418735	-56.741202	88.32	-0.440	-0.260	2.090	88.34	-1.50	2.50	 	 	 	 	 	 	 	 	 	 	 	 	 	 	 	 	 	 	1581531815	5.86	10.85
12/02/2020 18:23:36	120220	12022020	182336	88.36	12.418733	-56.741167	88.34	0.000	-1.440	1.980	88.36	-2.70	2.50	 	 	 	 	 	 	 	 	 	 	 	 	 	 	 	 	 	 	1581531816	7.38	13.67
12/02/2020 18:23:37	120220	12022020	182337	88.41	12.418733	-56.741128	88.40	0.730	-1.990	1.760	88.41	-3.40	2.20	 	 	 	 	 	 	 	 	 	 	 	 	 	 	 	 	 	 	1581531817	8.13	15.06
12/02/2020 18:23:38	120220	12022020	182338	88.45	12.418735	-56.741097	88.42	0.780	-0.600	1.570	88.45	-2.30	2.00	 	 	 	 	 	 	 	 	 	 	 	 	 	 	 	 	 	 	1581531818	6.49	12.02
12/02/2020 18:23:39	120220	12022020	182339	88.41	12.418735	-56.741077	88.33	-0.110	1.680	1.440	88.41	0.00	1.90	 	 	 	 	 	 	 	 	 	 	 	 	 	 	 	 	 	 	1581531819	4.46	8.26
12/02/2020 18:23:40	120220	12022020	182340	88.22	12.418737	-56.741057	88.15	-1.170	2.690	1.270	88.22	1.30	1.80	 	 	 	 	 	 	 	 	 	 	 	 	 	 	 	 	 	 	1581531820	4.29	7.95
12/02/2020 18:23:41	120220	12022020	182341	88.16	12.418738	-56.741027	88.11	-1.400	1.410	0.890	88.16	0.30	1.40	 	 	 	 	 	 	 	 	 	 	 	 	 	 	 	 	 	 	1581531821	6.10	11.30
12/02/2020 18:23:42	120220	12022020	182342	88.19	12.418740	-56.740988	88.14	-0.470	-1.290	0.630	88.19	-2.30	1.10	 	 	 	 	 	 	 	 	 	 	 	 	 	 	 	 	 	 	1581531822	8.13	15.06
12/02/2020 18:23:43	120220	12022020	182343	88.08	12.418740	-56.740948	88.02	0.900	-3.220	0.850	88.08	-4.40	1.20	 	 	 	 	 	 	 	 	 	 	 	 	 	 	 	 	 	 	1581531823	8.66	16.04
12/02/2020 18:23:44	120220	12022020	182344	87.68	12.418738	-56.740913	87.62	1.510	-2.730	1.320	87.68	-4.30	1.70	 	 	 	 	 	 	 	 	 	 	 	 	 	 	 	 	 	 	1581531824	7.14	13.22
12/02/2020 18:23:45	120220	12022020	182345	87.24	12.418738	-56.740892	87.18	0.830	-0.290	1.620	87.24	-2.00	2.00	 	 	 	 	 	 	 	 	 	 	 	 	 	 	 	 	 	 	1581531825	4.74	8.78
12/02/2020 18:23:46	120220	12022020	182346	86.97	12.418738	-56.740875	86.94	-0.480	2.040	1.700	86.97	0.50	2.10	 	 	 	 	 	 	 	 	 	 	 	 	 	 	 	 	 	 	1581531826	3.60	6.67
12/02/2020 18:23:47	120220	12022020	182347	87.11	12.418740	-56.740853	87.13	-1.290	2.510	1.560	87.11	1.20	2.00	 	 	 	 	 	 	 	 	 	 	 	 	 	 	 	 	 	 	1581531827	4.60	8.52
12/02/2020 18:23:48	120220	12022020	182348	87.52	12.418742	-56.740822	87.53	-1.070	0.960	1.210	87.52	-0.10	1.70	 	 	 	 	 	 	 	 	 	 	 	 	 	 	 	 	 	 	1581531828	6.59	12.20
12/02/2020 18:23:49	120220	12022020	182349	87.70	12.418743	-56.740783	87.65	-0.090	-1.280	1.010	87.70	-2.40	1.50	 	 	 	 	 	 	 	 	 	 	 	 	 	 	 	 	 	 	1581531829	7.98	14.78
12/02/2020 18:23:50	120220	12022020	182350	87.32	12.418745	-56.740747	87.25	0.870	-2.460	1.390	87.32	-3.70	1.80	 	 	 	 	 	 	 	 	 	 	 	 	 	 	 	 	 	 	1581531830	7.80	14.45
12/02/2020 18:23:51	120220	12022020	182351	86.96	12.418743	-56.740717	86.88	1.100	-1.880	2.040	86.96	-3.40	2.40	 	 	 	 	 	 	 	 	 	 	 	 	 	 	 	 	 	 	1581531831	6.33	11.72
12/02/2020 18:23:52	120220	12022020	182352	86.96	12.418742	-56.740693	86.97	0.540	-0.310	2.280	86.96	-1.90	2.70	 	 	 	 	 	 	 	 	 	 	 	 	 	 	 	 	 	 	1581531832	4.95	9.17
12/02/2020 18:23:53	120220	12022020	182353	87.08	12.418743	-56.740672	87.08	-0.300	1.100	2.160	87.08	-0.40	2.60	 	 	 	 	 	 	 	 	 	 	 	 	 	 	 	 	 	 	1581531833	4.60	8.52
12/02/2020 18:23:54	120220	12022020	182354	87.05	12.418747	-56.740648	87.05	-0.890	1.620	1.780	87.05	0.20	2.30	 	 	 	 	 	 	 	 	 	 	 	 	 	 	 	 	 	 	1581531834	5.10	9.45
12/02/2020 18:23:55	120220	12022020	182355	87.23	12.418748	-56.740620	87.24	-0.920	1.040	1.290	87.23	-0.20	1.80	 	 	 	 	 	 	 	 	 	 	 	 	 	 	 	 	 	 	1581531835	5.86	10.85
12/02/2020 18:23:56	120220	12022020	182356	87.64	12.418752	-56.740588	87.64	-0.260	-0.450	0.940	87.64	-1.60	1.40	 	 	 	 	 	 	 	 	 	 	 	 	 	 	 	 	 	 	1581531836	6.81	12.61
12/02/2020 18:23:57	120220	12022020	182357	87.94	12.418753	-56.740553	87.92	0.720	-1.920	0.780	87.94	-3.10	1.20	 	 	 	 	 	 	 	 	 	 	 	 	 	 	 	 	 	 	1581531837	7.45	13.80
12/02/2020 18:23:58	120220	12022020	182358	87.80	12.418755	-56.740520	87.76	1.250	-2.170	1.000	87.80	-3.60	1.40	 	 	 	 	 	 	 	 	 	 	 	 	 	 	 	 	 	 	1581531838	7.01	12.98
12/02/2020 18:23:59	120220	12022020	182359	87.32	12.418753	-56.740493	87.28	0.850	-0.850	1.610	87.32	-2.40	2.00	 	 	 	 	 	 	 	 	 	 	 	 	 	 	 	 	 	 	1581531839	5.57	10.32
12/02/2020 18:24:00	120220	12022020	182400	87.05	12.418753	-56.740473	87.05	-0.180	1.100	1.870	87.05	-0.50	2.30	 	 	 	 	 	 	 	 	 	 	 	 	 	 	 	 	 	 	1581531840	4.23	7.83
12/02/2020 18:24:01	120220	12022020	182401	87.33	12.418757	-56.740455	87.37	-1.160	2.200	1.490	87.33	0.80	2.00	 	 	 	 	 	 	 	 	 	 	 	 	 	 	 	 	 	 	1581531841	4.12	7.63
12/02/2020 18:24:02	120220	12022020	182402	87.76	12.418760	-56.740430	87.78	-1.430	1.510	1.020	87.76	0.30	1.50	1014.70	25.40	25.50	20.80	20.90	393.0	76.0	75.0	427.0	27.7	337.00	18.20	61.00	15.20	35193	14709.0	27.3	27.3	1581531842	5.32	9.85
12/02/2020 18:24:03	120220	12022020	182403	87.89	12.418760	-56.740397	87.87	-0.730	-0.640	0.980	87.89	-1.70	1.40	 	 	 	 	 	 	 	 	 	 	 	 	 	 	 	 	 	 	1581531843	7.09	13.13
12/02/2020 18:24:04	120220	12022020	182404	87.80	12.418758	-56.740358	87.79	0.490	-2.570	1.240	87.80	-3.70	1.60	 	 	 	 	 	 	 	 	 	 	 	 	 	 	 	 	 	 	1581531844	7.96	14.74
12/02/2020 18:24:05	120220	12022020	182405	87.77	12.418757	-56.740325	87.76	1.380	-2.690	1.430	87.77	-4.10	1.90	 	 	 	 	 	 	 	 	 	 	 	 	 	 	 	 	 	 	1581531845	7.02	13.00
12/02/2020 18:24:06	120220	12022020	182406	87.82	12.418758	-56.740302	87.81	1.400	-1.010	1.360	87.82	-2.60	1.80	 	 	 	 	 	 	 	 	 	 	 	 	 	 	 	 	 	 	1581531846	5.07	9.39
12/02/2020 18:24:07	120220	12022020	182407	87.84	12.418762	-56.740282	87.80	0.730	0.900	1.290	87.84	-0.70	1.70	 	 	 	 	 	 	 	 	 	 	 	 	 	 	 	 	 	 	1581531847	4.07	7.54
12/02/2020 18:24:08	120220	12022020	182408	87.75	12.418765	-56.740260	87.71	-0.090	1.750	1.220	87.75	0.30	1.70	 	 	 	 	 	 	 	 	 	 	 	 	 	 	 	 	 	 	1581531848	4.62	8.56
12/02/2020 18:24:09	120220	12022020	182409	87.77	12.418768	-56.740233	87.75	-0.700	1.500	1.110	87.77	0.20	1.60	 	 	 	 	 	 	 	 	 	 	 	 	 	 	 	 	 	 	1581531849	5.65	10.46
12/02/2020 18:24:10	120220	12022020	182410	87.98	12.418768	-56.740205	87.97	-0.980	0.680	1.190	87.98	-0.60	1.60	 	 	 	 	 	 	 	 	 	 	 	 	 	 	 	 	 	 	1581531850	6.09	11.28
12/02/2020 18:24:11	120220	12022020	182411	88.15	12.418768	-56.740175	88.14	-0.850	-0.430	1.420	88.15	-1.60	1.80	 	 	 	 	 	 	 	 	 	 	 	 	 	 	 	 	 	 	1581531851	6.25	11.58
12/02/2020 18:24:12	120220	12022020	182412	88.03	12.418765	-56.740145	88.01	-0.290	-1.610	1.740	88.03	-2.80	2.10	 	 	 	 	 	 	 	 	 	 	 	 	 	 	 	 	 	 	1581531852	6.56	12.15
12/02/2020 18:24:13	120220	12022020	182413	87.89	12.418763	-56.740113	87.89	0.440	-2.180	2.060	87.89	-3.50	2.50	 	 	 	 	 	 	 	 	 	 	 	 	 	 	 	 	 	 	1581531853	6.65	12.32
12/02/2020 18:24:14	120220	12022020	182414	88.04	12.418762	-56.740087	88.05	0.860	-1.510	2.140	88.04	-3.00	2.60	 	 	 	 	 	 	 	 	 	 	 	 	 	 	 	 	 	 	1581531854	5.78	10.70
12/02/2020 18:24:15	120220	12022020	182415	88.28	12.418763	-56.740063	88.31	0.750	-0.120	1.780	88.28	-1.70	2.30	 	 	 	 	 	 	 	 	 	 	 	 	 	 	 	 	 	 	1581531855	4.74	8.78
12/02/2020 18:24:16	120220	12022020	182416	88.40	12.418765	-56.740042	88.36	0.320	0.920	1.340	88.40	-0.50	1.80	 	 	 	 	 	 	 	 	 	 	 	 	 	 	 	 	 	 	1581531856	4.67	8.65
12/02/2020 18:24:17	120220	12022020	182417	88.34	12.418768	-56.740017	88.29	-0.110	1.150	1.180	88.34	-0.20	1.60	 	 	 	 	 	 	 	 	 	 	 	 	 	 	 	 	 	 	1581531857	5.33	9.87
12/02/2020 18:24:18	120220	12022020	182418	88.27	12.418770	-56.739988	88.22	-0.350	0.640	1.170	88.27	-0.60	1.60	 	 	 	 	 	 	 	 	 	 	 	 	 	 	 	 	 	 	1581531858	5.97	11.06
12/02/2020 18:24:19	120220	12022020	182419	88.20	12.418772	-56.739958	88.17	-0.350	-0.150	1.150	88.20	-1.40	1.60	 	 	 	 	 	 	 	 	 	 	 	 	 	 	 	 	 	 	1581531859	6.36	11.78
12/02/2020 18:24:20	120220	12022020	182420	88.31	12.418775	-56.739930	88.30	-0.230	-0.630	1.060	88.31	-2.00	1.50	 	 	 	 	 	 	 	 	 	 	 	 	 	 	 	 	 	 	1581531860	6.17	11.43
12/02/2020 18:24:21	120220	12022020	182421	88.64	12.418775	-56.739903	88.63	-0.020	-0.700	1.050	88.64	-2.10	1.50	 	 	 	 	 	 	 	 	 	 	 	 	 	 	 	 	 	 	1581531861	5.64	10.45
12/02/2020 18:24:22	120220	12022020	182422	88.99	12.418773	-56.739877	88.98	0.270	-0.780	1.160	88.99	-2.10	1.60	 	 	 	 	 	 	 	 	 	 	 	 	 	 	 	 	 	 	1581531862	5.55	10.28
12/02/2020 18:24:23	120220	12022020	182423	89.11	12.418772	-56.739848	89.08	0.590	-1.040	1.550	89.11	-2.40	1.90	 	 	 	 	 	 	 	 	 	 	 	 	 	 	 	 	 	 	1581531863	6.01	11.13
12/02/2020 18:24:24	120220	12022020	182424	88.85	12.418770	-56.739818	88.81	0.780	-0.940	2.090	88.85	-2.40	2.50	 	 	 	 	 	 	 	 	 	 	 	 	 	 	 	 	 	 	1581531864	6.23	11.54
12/02/2020 18:24:25	120220	12022020	182425	88.60	12.418768	-56.739792	88.57	0.600	-0.200	2.220	88.60	-1.70	2.70	 	 	 	 	 	 	 	 	 	 	 	 	 	 	 	 	 	 	1581531865	5.69	10.54
12/02/2020 18:24:26	120220	12022020	182426	88.58	12.418770	-56.739767	88.57	0.020	0.670	2.030	88.58	-0.80	2.50	 	 	 	 	 	 	 	 	 	 	 	 	 	 	 	 	 	 	1581531866	5.18	9.59
12/02/2020 18:24:27	120220	12022020	182427	88.74	12.418773	-56.739743	88.82	-0.750	1.260	1.670	88.74	-0.20	2.20	 	 	 	 	 	 	 	 	 	 	 	 	 	 	 	 	 	 	1581531867	5.03	9.32
12/02/2020 18:24:28	120220	12022020	182428	89.35	12.418775	-56.739720	89.35	-1.250	1.200	1.130	89.35	-0.10	1.70	 	 	 	 	 	 	 	 	 	 	 	 	 	 	 	 	 	 	1581531868	5.07	9.39
12/02/2020 18:24:29	120220	12022020	182429	89.86	12.418777	-56.739692	89.96	-1.010	0.100	0.730	89.86	-1.10	1.20	 	 	 	 	 	 	 	 	 	 	 	 	 	 	 	 	 	 	1581531869	5.85	10.83
12/02/2020 18:24:30	120220	12022020	182430	90.06	12.418773	-56.739660	89.97	-0.120	-1.380	1.020	90.06	-2.60	1.40	 	 	 	 	 	 	 	 	 	 	 	 	 	 	 	 	 	 	1581531870	6.85	12.69
12/02/2020 18:24:31	120220	12022020	182431	89.45	12.418768	-56.739628	89.32	0.770	-2.110	1.490	89.45	-3.40	1.90	 	 	 	 	 	 	 	 	 	 	 	 	 	 	 	 	 	 	1581531871	6.82	12.63
12/02/2020 18:24:32	120220	12022020	182432	88.74	12.418770	-56.739600	88.65	1.160	-1.750	1.610	88.74	-3.20	2.10	 	 	 	 	 	 	 	 	 	 	 	 	 	 	 	 	 	 	1581531872	5.92	10.96
12/02/2020 18:24:33	120220	12022020	182433	88.52	12.418773	-56.739575	88.48	1.060	-0.830	1.340	88.52	-2.30	1.90	 	 	 	 	 	 	 	 	 	 	 	 	 	 	 	 	 	 	1581531873	5.44	10.07
12/02/2020 18:24:34	120220	12022020	182434	88.85	12.418780	-56.739550	88.83	0.580	0.400	0.790	88.85	-1.20	1.30	 	 	 	 	 	 	 	 	 	 	 	 	 	 	 	 	 	 	1581531874	5.25	9.72
12/02/2020 18:24:35	120220	12022020	182435	89.46	12.418785	-56.739528	89.43	-0.160	1.490	0.200	89.46	0.00	0.70	 	 	 	 	 	 	 	 	 	 	 	 	 	 	 	 	 	 	1581531875	4.87	9.02
12/02/2020 18:24:36	120220	12022020	182436	89.96	12.418787	-56.739505	89.91	-0.800	1.680	0.240	89.96	0.30	0.60	 	 	 	 	 	 	 	 	 	 	 	 	 	 	 	 	 	 	1581531876	4.98	9.22
12/02/2020 18:24:37	120220	12022020	182437	89.99	12.418780	-56.739477	89.91	-1.000	0.730	1.080	89.99	-0.50	1.40	 	 	 	 	 	 	 	 	 	 	 	 	 	 	 	 	 	 	1581531877	6.01	11.13
12/02/2020 18:24:38	120220	12022020	182438	89.60	12.418773	-56.739445	89.53	-0.740	-0.640	2.020	89.60	-1.80	2.40	 	 	 	 	 	 	 	 	 	 	 	 	 	 	 	 	 	 	1581531878	6.87	12.72
12/02/2020 18:24:39	120220	12022020	182439	89.33	12.418768	-56.739415	89.25	-0.230	-1.530	2.500	89.33	-2.80	2.90	 	 	 	 	 	 	 	 	 	 	 	 	 	 	 	 	 	 	1581531879	6.65	12.32
12/02/2020 18:24:40	120220	12022020	182440	89.20	12.418767	-56.739387	89.16	0.300	-1.620	2.510	89.20	-3.00	3.00	 	 	 	 	 	 	 	 	 	 	 	 	 	 	 	 	 	 	1581531880	5.91	10.95
12/02/2020 18:24:41	120220	12022020	182441	89.14	12.418768	-56.739360	89.09	0.610	-1.170	2.210	89.14	-2.60	2.70	 	 	 	 	 	 	 	 	 	 	 	 	 	 	 	 	 	 	1581531881	5.49	10.17
12/02/2020 18:24:42	120220	12022020	182442	89.17	12.418772	-56.739335	89.12	0.510	-0.390	1.730	89.17	-1.90	2.30	 	 	 	 	 	 	 	 	 	 	 	 	 	 	 	 	 	 	1581531882	5.32	9.85
12/02/2020 18:24:43	120220	12022020	182443	89.26	12.418775	-56.739312	89.26	0.080	0.470	1.280	89.26	-1.00	1.80	 	 	 	 	 	 	 	 	 	 	 	 	 	 	 	 	 	 	1581531883	5.10	9.45
12/02/2020 18:24:44	120220	12022020	182444	89.47	12.418777	-56.739287	89.42	-0.250	0.930	1.010	89.47	-0.50	1.50	 	 	 	 	 	 	 	 	 	 	 	 	 	 	 	 	 	 	1581531884	5.15	9.54
12/02/2020 18:24:45	120220	12022020	182445	89.54	12.418778	-56.739260	89.50	-0.220	0.600	0.930	89.54	-0.70	1.40	 	 	 	 	 	 	 	 	 	 	 	 	 	 	 	 	 	 	1581531885	5.68	10.52
12/02/2020 18:24:46	120220	12022020	182446	89.57	12.418778	-56.739230	89.52	0.060	-0.350	0.980	89.57	-1.60	1.40	 	 	 	 	 	 	 	 	 	 	 	 	 	 	 	 	 	 	1581531886	6.49	12.02
12/02/2020 18:24:47	120220	12022020	182447	89.57	12.418777	-56.739198	89.53	0.180	-1.010	1.340	89.57	-2.30	1.70	 	 	 	 	 	 	 	 	 	 	 	 	 	 	 	 	 	 	1581531887	6.69	12.39
12/02/2020 18:24:48	120220	12022020	182448	89.50	12.418773	-56.739172	89.46	-0.050	-0.680	1.770	89.50	-2.10	2.20	 	 	 	 	 	 	 	 	 	 	 	 	 	 	 	 	 	 	1581531888	5.83	10.80
12/02/2020 18:24:49	120220	12022020	182449	89.39	12.418770	-56.739148	89.35	-0.350	0.200	1.980	89.39	-1.30	2.40	 	 	 	 	 	 	 	 	 	 	 	 	 	 	 	 	 	 	1581531889	4.79	8.87
12/02/2020 18:24:50	120220	12022020	182450	89.35	12.418770	-56.739125	89.31	-0.260	0.350	1.820	89.35	-1.00	2.30	 	 	 	 	 	 	 	 	 	 	 	 	 	 	 	 	 	 	1581531890	4.89	9.06
12/02/2020 18:24:51	120220	12022020	182451	89.37	12.418772	-56.739097	89.33	0.180	-0.440	1.550	89.37	-1.70	2.00	 	 	 	 	 	 	 	 	 	 	 	 	 	 	 	 	 	 	1581531891	6.20	11.48
12/02/2020 18:24:52	120220	12022020	182452	89.52	12.418773	-56.739065	89.49	0.400	-0.900	1.280	89.52	-2.20	1.80	 	 	 	 	 	 	 	 	 	 	 	 	 	 	 	 	 	 	1581531892	6.60	12.22
12/02/2020 18:24:53	120220	12022020	182453	89.66	12.418775	-56.739038	89.63	0.090	-0.420	1.050	89.66	-1.90	1.50	 	 	 	 	 	 	 	 	 	 	 	 	 	 	 	 	 	 	1581531893	5.58	10.33
12/02/2020 18:24:54	120220	12022020	182454	89.68	12.418775	-56.739015	89.62	-0.360	0.120	1.100	89.68	-1.30	1.50	 	 	 	 	 	 	 	 	 	 	 	 	 	 	 	 	 	 	1581531894	4.88	9.04
12/02/2020 18:24:55	120220	12022020	182455	89.54	12.418773	-56.738990	89.45	-0.350	-0.060	1.370	89.54	-1.40	1.80	 	 	 	 	 	 	 	 	 	 	 	 	 	 	 	 	 	 	1581531895	5.58	10.33
12/02/2020 18:24:56	120220	12022020	182456	89.41	12.418772	-56.738960	89.37	0.080	-0.440	1.380	89.41	-1.80	1.80	 	 	 	 	 	 	 	 	 	 	 	 	 	 	 	 	 	 	1581531896	6.32	11.70
12/02/2020 18:24:57	120220	12022020	182457	89.54	12.418773	-56.738932	89.51	0.370	-0.280	1.170	89.54	-1.70	1.60	 	 	 	 	 	 	 	 	 	 	 	 	 	 	 	 	 	 	1581531897	6.01	11.13
12/02/2020 18:24:58	120220	12022020	182458	89.74	12.418775	-56.738907	89.69	0.180	0.340	1.080	89.74	-1.10	1.50	 	 	 	 	 	 	 	 	 	 	 	 	 	 	 	 	 	 	1581531898	5.12	9.48
12/02/2020 18:24:59	120220	12022020	182459	89.71	12.418775	-56.738883	89.65	-0.250	0.550	1.240	89.71	-0.80	1.60	 	 	 	 	 	 	 	 	 	 	 	 	 	 	 	 	 	 	1581531899	4.87	9.02
12/02/2020 18:25:00	120220	12022020	182500	89.40	12.418773	-56.738857	89.34	-0.330	-0.230	1.580	89.40	-1.40	2.00	 	 	 	 	 	 	 	 	 	 	 	 	 	 	 	 	 	 	1581531900	5.78	10.70
12/02/2020 18:25:01	120220	12022020	182501	89.16	12.418772	-56.738823	89.13	0.060	-1.410	1.860	89.16	-2.60	2.30	 	 	 	 	 	 	 	 	 	 	 	 	 	 	 	 	 	 	1581531901	6.88	12.74
12/02/2020 18:25:02	120220	12022020	182502	89.24	12.418770	-56.738792	89.24	0.470	-1.640	1.960	89.24	-3.00	2.40	1014.60	25.30	25.40	20.80	20.90	426.0	76.0	76.0	427.0	27.6	336.00	18.00	60.00	15.30	36107	10258.0	27.3	27.3	1581531902	6.70	12.41
12/02/2020 18:25:03	120220	12022020	182503	89.57	12.418768	-56.738767	89.56	0.420	-0.530	1.780	89.57	-2.10	2.30	 	 	 	 	 	 	 	 	 	 	 	 	 	 	 	 	 	 	1581531903	5.30	9.82
12/02/2020 18:25:04	120220	12022020	182504	89.84	12.418768	-56.738747	89.81	-0.070	0.900	1.510	89.84	-0.60	2.00	 	 	 	 	 	 	 	 	 	 	 	 	 	 	 	 	 	 	1581531904	4.28	7.93
12/02/2020 18:25:05	120220	12022020	182505	89.71	12.418768	-56.738727	89.63	-0.600	1.590	1.460	89.71	0.20	1.90	 	 	 	 	 	 	 	 	 	 	 	 	 	 	 	 	 	 	1581531905	4.42	8.19
12/02/2020 18:25:06	120220	12022020	182506	89.23	12.418768	-56.738702	89.15	-0.820	1.140	1.570	89.23	-0.10	2.00	 	 	 	 	 	 	 	 	 	 	 	 	 	 	 	 	 	 	1581531906	5.26	9.74
12/02/2020 18:25:07	120220	12022020	182507	89.03	12.418770	-56.738672	89.03	-0.580	-0.200	1.280	89.03	-1.40	1.80	 	 	 	 	 	 	 	 	 	 	 	 	 	 	 	 	 	 	1581531907	6.24	11.56
12/02/2020 18:25:08	120220	12022020	182508	89.36	12.418773	-56.738640	89.35	-0.010	-1.610	0.790	89.36	-2.80	1.30	 	 	 	 	 	 	 	 	 	 	 	 	 	 	 	 	 	 	1581531908	6.74	12.48
12/02/2020 18:25:09	120220	12022020	182509	89.60	12.418775	-56.738610	89.54	0.690	-2.380	0.750	89.60	-3.70	1.20	 	 	 	 	 	 	 	 	 	 	 	 	 	 	 	 	 	 	1581531909	6.56	12.15
12/02/2020 18:25:10	120220	12022020	182510	89.47	12.418773	-56.738580	89.41	1.170	-2.190	1.230	89.47	-3.60	1.60	 	 	 	 	 	 	 	 	 	 	 	 	 	 	 	 	 	 	1581531910	6.21	11.50
12/02/2020 18:25:11	120220	12022020	182511	89.20	12.418770	-56.738553	89.16	1.050	-0.850	1.950	89.20	-2.50	2.30	 	 	 	 	 	 	 	 	 	 	 	 	 	 	 	 	 	 	1581531911	5.54	10.26
12/02/2020 18:25:12	120220	12022020	182512	88.91	12.418765	-56.738533	88.87	0.190	1.320	2.470	88.91	-0.40	2.90	 	 	 	 	 	 	 	 	 	 	 	 	 	 	 	 	 	 	1581531912	4.38	8.11
12/02/2020 18:25:13	120220	12022020	182513	88.73	12.418763	-56.738517	88.71	-0.980	3.020	2.350	88.73	1.50	2.80	 	 	 	 	 	 	 	 	 	 	 	 	 	 	 	 	 	 	1581531913	3.56	6.59
12/02/2020 18:25:14	120220	12022020	182514	88.94	12.418767	-56.738497	88.93	-1.680	2.790	1.460	88.94	1.60	2.00	 	 	 	 	 	 	 	 	 	 	 	 	 	 	 	 	 	 	1581531914	4.42	8.19
12/02/2020 18:25:15	120220	12022020	182515	89.33	12.418773	-56.738467	89.30	-1.410	0.580	0.550	89.33	-0.40	1.10	 	 	 	 	 	 	 	 	 	 	 	 	 	 	 	 	 	 	1581531915	6.27	11.61
12/02/2020 18:25:16	120220	12022020	182516	89.50	12.418777	-56.738432	89.43	-0.300	-2.360	0.190	89.50	-3.40	0.60	 	 	 	 	 	 	 	 	 	 	 	 	 	 	 	 	 	 	1581531916	7.61	14.09
12/02/2020 18:25:17	120220	12022020	182517	89.39	12.418777	-56.738395	89.27	0.940	-4.140	0.440	89.39	-5.40	0.80	 	 	 	 	 	 	 	 	 	 	 	 	 	 	 	 	 	 	1581531917	7.71	14.28
12/02/2020 18:25:18	120220	12022020	182518	89.11	12.418773	-56.738367	89.05	1.480	-3.130	1.010	89.11	-4.80	1.40	 	 	 	 	 	 	 	 	 	 	 	 	 	 	 	 	 	 	1581531918	6.02	11.15
12/02/2020 18:25:19	120220	12022020	182519	89.02	12.418772	-56.738350	88.97	1.000	-0.050	1.510	89.02	-1.90	1.90	 	 	 	 	 	 	 	 	 	 	 	 	 	 	 	 	 	 	1581531919	3.50	6.48
12/02/2020 18:25:20	120220	12022020	182520	88.96	12.418768	-56.738338	88.92	0.000	2.550	1.810	88.96	0.90	2.20	 	 	 	 	 	 	 	 	 	 	 	 	 	 	 	 	 	 	1581531920	2.59	4.80
12/02/2020 18:25:21	120220	12022020	182521	88.88	12.418768	-56.738318	88.84	-0.750	2.780	1.690	88.88	1.50	2.20	 	 	 	 	 	 	 	 	 	 	 	 	 	 	 	 	 	 	1581531921	4.10	7.59
12/02/2020 18:25:22	120220	12022020	182522	88.96	12.418772	-56.738288	88.93	-0.850	1.050	1.180	88.96	-0.10	1.70	 	 	 	 	 	 	 	 	 	 	 	 	 	 	 	 	 	 	1581531922	6.34	11.74
12/02/2020 18:25:23	120220	12022020	182523	89.07	12.418775	-56.738255	89.03	-0.450	-0.930	0.880	89.07	-2.10	1.30	 	 	 	 	 	 	 	 	 	 	 	 	 	 	 	 	 	 	1581531923	7.13	13.20
12/02/2020 18:25:24	120220	12022020	182524	89.06	12.418777	-56.738225	89.03	0.070	-1.950	1.060	89.06	-3.30	1.50	 	 	 	 	 	 	 	 	 	 	 	 	 	 	 	 	 	 	1581531924	6.56	12.15
12/02/2020 18:25:25	120220	12022020	182525	89.22	12.418775	-56.738198	89.20	0.260	-1.660	1.450	89.22	-3.10	1.80	 	 	 	 	 	 	 	 	 	 	 	 	 	 	 	 	 	 	1581531925	5.41	10.02
12/02/2020 18:25:26	120220	12022020	182526	89.57	12.418772	-56.738178	89.57	0.140	-0.730	1.710	89.57	-2.20	2.10	 	 	 	 	 	 	 	 	 	 	 	 	 	 	 	 	 	 	1581531926	4.56	8.45
12/02/2020 18:25:27	120220	12022020	182527	89.78	12.418768	-56.738157	89.75	0.090	-0.000	1.840	89.78	-1.50	2.30	 	 	 	 	 	 	 	 	 	 	 	 	 	 	 	 	 	 	1581531927	4.60	8.52
12/02/2020 18:25:28	120220	12022020	182528	89.64	12.418765	-56.738133	89.58	0.190	0.440	1.900	89.64	-1.00	2.30	 	 	 	 	 	 	 	 	 	 	 	 	 	 	 	 	 	 	1581531928	4.98	9.22
12/02/2020 18:25:29	120220	12022020	182529	89.36	12.418767	-56.738108	89.21	0.290	0.540	2.000	89.36	-0.80	2.40	 	 	 	 	 	 	 	 	 	 	 	 	 	 	 	 	 	 	1581531929	5.21	9.65
12/02/2020 18:25:30	120220	12022020	182530	89.01	12.418768	-56.738082	88.97	0.240	0.270	1.820	89.01	-1.10	2.30	 	 	 	 	 	 	 	 	 	 	 	 	 	 	 	 	 	 	1581531930	5.57	10.32
12/02/2020 18:25:31	120220	12022020	182531	89.06	12.418773	-56.738055	89.10	0.020	-0.170	1.140	89.06	-1.50	1.70	 	 	 	 	 	 	 	 	 	 	 	 	 	 	 	 	 	 	1581531931	5.76	10.67
12/02/2020 18:25:32	120220	12022020	182532	89.59	12.418780	-56.738028	89.60	-0.160	-0.690	0.520	89.59	-2.00	1.00	 	 	 	 	 	 	 	 	 	 	 	 	 	 	 	 	 	 	1581531932	5.81	10.76
12/02/2020 18:25:33	120220	12022020	182533	90.09	12.418780	-56.738002	90.19	-0.180	-0.940	0.580	90.09	-2.30	1.00	 	 	 	 	 	 	 	 	 	 	 	 	 	 	 	 	 	 	1581531933	5.73	10.61
12/02/2020 18:25:34	120220	12022020	182534	90.46	12.418775	-56.737977	90.43	-0.140	-0.500	1.220	90.46	-2.00	1.60	 	 	 	 	 	 	 	 	 	 	 	 	 	 	 	 	 	 	1581531934	5.32	9.85
12/02/2020 18:25:35	120220	12022020	182535	90.29	12.418768	-56.737955	90.25	-0.110	0.260	1.860	90.29	-1.20	2.20	 	 	 	 	 	 	 	 	 	 	 	 	 	 	 	 	 	 	1581531935	4.81	8.91
12/02/2020 18:25:36	120220	12022020	182536	89.80	12.418763	-56.737933	89.75	-0.020	0.500	2.300	89.80	-0.90	2.70	 	 	 	 	 	 	 	 	 	 	 	 	 	 	 	 	 	 	1581531936	4.85	8.98
12/02/2020 18:25:37	120220	12022020	182537	89.39	12.418762	-56.737907	89.36	0.140	-0.110	2.340	89.39	-1.40	2.80	 	 	 	 	 	 	 	 	 	 	 	 	 	 	 	 	 	 	1581531937	5.62	10.41
12/02/2020 18:25:38	120220	12022020	182538	89.42	12.418765	-56.737877	89.41	0.370	-1.050	1.750	89.42	-2.30	2.30	 	 	 	 	 	 	 	 	 	 	 	 	 	 	 	 	 	 	1581531938	6.37	11.80
12/02/2020 18:25:39	120220	12022020	182539	89.72	12.418772	-56.737847	89.68	0.560	-1.340	1.010	89.72	-2.70	1.50	 	 	 	 	 	 	 	 	 	 	 	 	 	 	 	 	 	 	1581531939	6.35	11.76
12/02/2020 18:25:40	120220	12022020	182540	89.87	12.418775	-56.737822	89.82	0.440	-0.480	0.600	89.87	-2.00	1.10	 	 	 	 	 	 	 	 	 	 	 	 	 	 	 	 	 	 	1581531940	5.32	9.85
12/02/2020 18:25:41	120220	12022020	182541	89.94	12.418777	-56.737802	89.88	-0.030	0.770	0.520	89.94	-0.80	1.00	 	 	 	 	 	 	 	 	 	 	 	 	 	 	 	 	 	 	1581531941	4.22	7.82
12/02/2020 18:25:42	120220	12022020	182542	90.01	12.418777	-56.737782	89.96	-0.510	1.190	0.760	90.01	-0.20	1.20	 	 	 	 	 	 	 	 	 	 	 	 	 	 	 	 	 	 	1581531942	4.32	8.00
12/02/2020 18:25:43	120220	12022020	182543	90.04	12.418773	-56.737757	89.99	-0.630	0.540	1.250	90.04	-0.70	1.60	 	 	 	 	 	 	 	 	 	 	 	 	 	 	 	 	 	 	1581531943	5.42	10.04
12/02/2020 18:25:44	120220	12022020	182544	89.82	12.418768	-56.737728	89.77	-0.430	-0.430	1.890	89.82	-1.70	2.20	 	 	 	 	 	 	 	 	 	 	 	 	 	 	 	 	 	 	1581531944	6.09	11.28
12/02/2020 18:25:45	120220	12022020	182545	89.52	12.418763	-56.737700	89.43	-0.070	-1.160	2.240	89.52	-2.50	2.70	 	 	 	 	 	 	 	 	 	 	 	 	 	 	 	 	 	 	1581531945	6.01	11.13
12/02/2020 18:25:46	120220	12022020	182546	89.37	12.418763	-56.737673	89.37	0.240	-1.370	2.110	89.37	-2.80	2.60	 	 	 	 	 	 	 	 	 	 	 	 	 	 	 	 	 	 	1581531946	5.67	10.50
12/02/2020 18:25:47	120220	12022020	182547	89.52	12.418765	-56.737648	89.52	0.350	-0.930	1.840	89.52	-2.40	2.30	 	 	 	 	 	 	 	 	 	 	 	 	 	 	 	 	 	 	1581531947	5.15	9.54
12/02/2020 18:25:48	120220	12022020	182548	89.64	12.418767	-56.737627	89.61	0.270	-0.190	1.590	89.64	-1.70	2.10	 	 	 	 	 	 	 	 	 	 	 	 	 	 	 	 	 	 	1581531948	4.66	8.63
12/02/2020 18:25:49	120220	12022020	182549	89.50	12.418768	-56.737603	89.45	0.170	0.220	1.320	89.50	-1.20	1.80	 	 	 	 	 	 	 	 	 	 	 	 	 	 	 	 	 	 	1581531949	4.80	8.89
12/02/2020 18:25:50	120220	12022020	182550	89.23	12.418768	-56.737578	89.19	0.150	0.200	1.120	89.23	-1.20	1.60	 	 	 	 	 	 	 	 	 	 	 	 	 	 	 	 	 	 	1581531950	5.33	9.87
12/02/2020 18:25:51	120220	12022020	182551	89.08	12.418770	-56.737553	89.06	0.120	0.140	1.040	89.08	-1.20	1.50	 	 	 	 	 	 	 	 	 	 	 	 	 	 	 	 	 	 	1581531951	5.49	10.17
12/02/2020 18:25:52	120220	12022020	182552	89.17	12.418772	-56.737528	89.16	-0.060	0.190	0.840	89.17	-1.20	1.30	 	 	 	 	 	 	 	 	 	 	 	 	 	 	 	 	 	 	1581531952	5.24	9.70
12/02/2020 18:25:53	120220	12022020	182553	89.41	12.418773	-56.737505	89.41	-0.460	0.320	0.610	89.41	-1.10	1.10	 	 	 	 	 	 	 	 	 	 	 	 	 	 	 	 	 	 	1581531953	4.91	9.09
12/02/2020 18:25:54	120220	12022020	182554	89.55	12.418773	-56.737483	89.53	-0.810	0.330	0.710	89.55	-1.00	1.10	 	 	 	 	 	 	 	 	 	 	 	 	 	 	 	 	 	 	1581531954	4.62	8.56
12/02/2020 18:25:55	120220	12022020	182555	89.60	12.418772	-56.737460	89.58	-0.730	-0.080	0.910	89.60	-1.40	1.30	 	 	 	 	 	 	 	 	 	 	 	 	 	 	 	 	 	 	1581531955	4.80	8.89
12/02/2020 18:25:56	120220	12022020	182556	89.68	12.418768	-56.737435	89.66	-0.010	-1.150	1.230	89.68	-2.40	1.60	 	 	 	 	 	 	 	 	 	 	 	 	 	 	 	 	 	 	1581531956	5.57	10.32
12/02/2020 18:25:57	120220	12022020	182557	89.50	12.418765	-56.737405	89.45	0.910	-2.160	1.870	89.50	-3.50	2.20	 	 	 	 	 	 	 	 	 	 	 	 	 	 	 	 	 	 	1581531957	6.41	11.87
12/02/2020 18:25:58	120220	12022020	182558	88.97	12.418762	-56.737377	88.91	1.190	-1.780	2.180	88.97	-3.30	2.60	 	 	 	 	 	 	 	 	 	 	 	 	 	 	 	 	 	 	1581531958	5.79	10.72
12/02/2020 18:25:59	120220	12022020	182559	88.52	12.418763	-56.737357	88.47	0.570	-0.010	2.000	88.52	-1.70	2.50	 	 	 	 	 	 	 	 	 	 	 	 	 	 	 	 	 	 	1581531959	4.13	7.65
12/02/2020 18:26:00	120220	12022020	182600	88.53	12.418768	-56.737342	88.52	-0.350	1.710	1.550	88.53	0.10	2.10	 	 	 	 	 	 	 	 	 	 	 	 	 	 	 	 	 	 	1581531960	3.27	6.06
12/02/2020 18:26:01	120220	12022020	182601	88.90	12.418770	-56.737323	88.91	-0.870	1.970	1.060	88.90	0.60	1.60	 	 	 	 	 	 	 	 	 	 	 	 	 	 	 	 	 	 	1581531961	3.95	7.32
12/02/2020 18:26:02	120220	12022020	182602	89.19	12.418773	-56.737298	89.17	-0.820	0.830	0.560	89.19	-0.40	1.10	1014.70	25.20	25.30	21.00	21.00	257.0	77.0	77.0	422.0	27.3	337.00	17.60	62.00	15.20	28030	9423.0	27.3	27.3	1581531962	5.39	9.98
12/02/2020 18:26:03	120220	12022020	182603	89.37	12.418773	-56.737270	89.34	-0.510	-0.570	0.260	89.37	-1.80	0.70	 	 	 	 	 	 	 	 	 	 	 	 	 	 	 	 	 	 	1581531963	6.01	11.13
12/02/2020 18:26:04	120220	12022020	182604	89.40	12.418773	-56.737245	89.36	-0.150	-1.340	0.600	89.40	-2.70	1.00	 	 	 	 	 	 	 	 	 	 	 	 	 	 	 	 	 	 	1581531964	5.53	10.24
12/02/2020 18:26:05	120220	12022020	182605	89.14	12.418768	-56.737222	89.08	0.220	-1.400	1.300	89.14	-2.80	1.70	 	 	 	 	 	 	 	 	 	 	 	 	 	 	 	 	 	 	1581531965	4.90	9.07
12/02/2020 18:26:06	120220	12022020	182606	88.84	12.418767	-56.737200	88.79	0.490	-1.070	1.740	88.84	-2.50	2.10	 	 	 	 	 	 	 	 	 	 	 	 	 	 	 	 	 	 	1581531966	4.58	8.48
12/02/2020 18:26:07	120220	12022020	182607	88.74	12.418765	-56.737178	88.72	0.490	-0.650	1.960	88.74	-2.10	2.40	 	 	 	 	 	 	 	 	 	 	 	 	 	 	 	 	 	 	1581531967	4.56	8.45
12/02/2020 18:26:08	120220	12022020	182608	88.86	12.418765	-56.737157	88.86	0.310	-0.220	2.080	88.86	-1.70	2.50	 	 	 	 	 	 	 	 	 	 	 	 	 	 	 	 	 	 	1581531968	4.65	8.61
12/02/2020 18:26:09	120220	12022020	182609	88.93	12.418763	-56.737135	88.92	0.140	0.380	2.070	88.93	-1.10	2.50	 	 	 	 	 	 	 	 	 	 	 	 	 	 	 	 	 	 	1581531969	4.51	8.35
12/02/2020 18:26:10	120220	12022020	182610	88.80	12.418765	-56.737115	88.77	0.020	0.800	1.760	88.80	-0.60	2.30	 	 	 	 	 	 	 	 	 	 	 	 	 	 	 	 	 	 	1581531970	4.35	8.06
12/02/2020 18:26:11	120220	12022020	182611	88.75	12.418770	-56.737093	88.73	-0.160	0.630	1.260	88.75	-0.70	1.80	 	 	 	 	 	 	 	 	 	 	 	 	 	 	 	 	 	 	1581531971	4.71	8.72
12/02/2020 18:26:12	120220	12022020	182612	88.96	12.418772	-56.737068	88.97	-0.380	-0.010	0.990	88.96	-1.30	1.40	 	 	 	 	 	 	 	 	 	 	 	 	 	 	 	 	 	 	1581531972	5.10	9.45
12/02/2020 18:26:13	120220	12022020	182613	89.32	12.418772	-56.737045	89.32	-0.490	-0.530	1.030	89.32	-1.90	1.50	 	 	 	 	 	 	 	 	 	 	 	 	 	 	 	 	 	 	1581531973	5.10	9.45
12/02/2020 18:26:14	120220	12022020	182614	89.52	12.418768	-56.737022	89.49	-0.320	-0.720	1.200	89.52	-2.10	1.60	 	 	 	 	 	 	 	 	 	 	 	 	 	 	 	 	 	 	1581531974	4.74	8.78
12/02/2020 18:26:15	120220	12022020	182615	89.39	12.418767	-56.737000	89.34	0.170	-0.960	1.450	89.39	-2.30	1.90	 	 	 	 	 	 	 	 	 	 	 	 	 	 	 	 	 	 	1581531975	4.79	8.87
12/02/2020 18:26:16	120220	12022020	182616	89.15	12.418763	-56.736975	89.12	0.610	-1.040	1.830	89.15	-2.40	2.20	 	 	 	 	 	 	 	 	 	 	 	 	 	 	 	 	 	 	1581531976	5.09	9.43
12/02/2020 18:26:17	120220	12022020	182617	89.06	12.418762	-56.736953	89.07	0.520	-0.430	2.110	89.06	-2.00	2.50	 	 	 	 	 	 	 	 	 	 	 	 	 	 	 	 	 	 	1581531977	4.61	8.54
12/02/2020 18:26:18	120220	12022020	182618	89.20	12.418762	-56.736937	89.21	0.000	0.490	1.850	89.20	-1.00	2.40	 	 	 	 	 	 	 	 	 	 	 	 	 	 	 	 	 	 	1581531978	3.79	7.02
12/02/2020 18:26:19	120220	12022020	182619	89.31	12.418763	-56.736918	89.30	-0.380	0.810	1.410	89.31	-0.60	1.90	 	 	 	 	 	 	 	 	 	 	 	 	 	 	 	 	 	 	1581531979	3.89	7.20
12/02/2020 18:26:20	120220	12022020	182620	89.23	12.418767	-56.736895	89.19	-0.310	0.220	1.110	89.23	-1.10	1.60	 	 	 	 	 	 	 	 	 	 	 	 	 	 	 	 	 	 	1581531980	4.82	8.93
12/02/2020 18:26:21	120220	12022020	182621	89.27	12.418770	-56.736870	89.31	-0.030	-0.570	0.840	89.27	-1.90	1.30	 	 	 	 	 	 	 	 	 	 	 	 	 	 	 	 	 	 	1581531981	5.44	10.07
12/02/2020 18:26:22	120220	12022020	182622	89.73	12.418770	-56.736845	89.73	0.080	-0.770	0.760	89.73	-2.20	1.20	 	 	 	 	 	 	 	 	 	 	 	 	 	 	 	 	 	 	1581531982	5.04	9.33
12/02/2020 18:26:23	120220	12022020	182623	90.08	12.418767	-56.736825	90.05	-0.060	-0.410	0.990	90.08	-1.90	1.40	 	 	 	 	 	 	 	 	 	 	 	 	 	 	 	 	 	 	1581531983	4.30	7.96
12/02/2020 18:26:24	120220	12022020	182624	90.00	12.418762	-56.736807	89.95	-0.160	-0.160	1.470	90.00	-1.60	1.90	 	 	 	 	 	 	 	 	 	 	 	 	 	 	 	 	 	 	1581531984	4.21	7.80
12/02/2020 18:26:25	120220	12022020	182625	89.63	12.418758	-56.736785	89.59	-0.030	-0.160	1.760	89.63	-1.60	2.20	 	 	 	 	 	 	 	 	 	 	 	 	 	 	 	 	 	 	1581531985	4.53	8.39
12/02/2020 18:26:26	120220	12022020	182626	89.25	12.418757	-56.736763	89.22	0.240	-0.160	1.860	89.25	-1.60	2.30	 	 	 	 	 	 	 	 	 	 	 	 	 	 	 	 	 	 	1581531986	4.63	8.57
12/02/2020 18:26:27	120220	12022020	182627	89.13	12.418760	-56.736742	89.13	0.360	-0.170	1.710	89.13	-1.60	2.20	 	 	 	 	 	 	 	 	 	 	 	 	 	 	 	 	 	 	1581531987	4.62	8.56
12/02/2020 18:26:28	120220	12022020	182628	89.40	12.418763	-56.736720	89.41	0.140	-0.250	1.220	89.40	-1.70	1.70	 	 	 	 	 	 	 	 	 	 	 	 	 	 	 	 	 	 	1581531988	4.64	8.59
12/02/2020 18:26:29	120220	12022020	182629	89.77	12.418765	-56.736698	89.77	-0.260	-0.210	0.870	89.77	-1.70	1.30	 	 	 	 	 	 	 	 	 	 	 	 	 	 	 	 	 	 	1581531989	4.49	8.32
12/02/2020 18:26:30	120220	12022020	182630	89.92	12.418763	-56.736680	89.90	-0.530	0.010	1.050	89.92	-1.50	1.40	 	 	 	 	 	 	 	 	 	 	 	 	 	 	 	 	 	 	1581531990	4.16	7.70
12/02/2020 18:26:31	120220	12022020	182631	89.93	12.418758	-56.736660	89.91	-0.380	0.000	1.360	89.93	-1.40	1.80	 	 	 	 	 	 	 	 	 	 	 	 	 	 	 	 	 	 	1581531991	4.22	7.82
12/02/2020 18:26:32	120220	12022020	182632	89.85	12.418755	-56.736638	89.81	0.150	-0.500	1.570	89.85	-1.90	2.00	 	 	 	 	 	 	 	 	 	 	 	 	 	 	 	 	 	 	1581531992	4.77	8.83
12/02/2020 18:26:33	120220	12022020	182633	89.66	12.418753	-56.736613	89.56	0.590	-0.960	1.740	89.66	-2.40	2.20	 	 	 	 	 	 	 	 	 	 	 	 	 	 	 	 	 	 	1581531993	5.23	9.69
12/02/2020 18:26:34	120220	12022020	182634	89.34	12.418753	-56.736590	89.30	0.500	-0.620	1.920	89.34	-2.20	2.40	 	 	 	 	 	 	 	 	 	 	 	 	 	 	 	 	 	 	1581531994	4.72	8.74
12/02/2020 18:26:35	120220	12022020	182635	89.28	12.418753	-56.736573	89.26	-0.020	0.230	1.770	89.28	-1.30	2.30	 	 	 	 	 	 	 	 	 	 	 	 	 	 	 	 	 	 	1581531995	3.72	6.89
12/02/2020 18:26:36	120220	12022020	182636	89.55	12.418755	-56.736555	89.54	-0.320	0.550	1.200	89.55	-0.90	1.70	 	 	 	 	 	 	 	 	 	 	 	 	 	 	 	 	 	 	1581531996	3.70	6.85
12/02/2020 18:26:37	120220	12022020	182637	89.79	12.418757	-56.736533	89.75	-0.190	0.100	0.860	89.79	-1.30	1.30	 	 	 	 	 	 	 	 	 	 	 	 	 	 	 	 	 	 	1581531997	4.59	8.50
12/02/2020 18:26:38	120220	12022020	182638	89.71	12.418757	-56.736510	89.66	-0.040	-0.330	0.940	89.71	-1.70	1.40	 	 	 	 	 	 	 	 	 	 	 	 	 	 	 	 	 	 	1581531998	4.94	9.15
12/02/2020 18:26:39	120220	12022020	182639	89.44	12.418755	-56.736490	89.38	-0.200	-0.280	1.180	89.44	-1.70	1.60	 	 	 	 	 	 	 	 	 	 	 	 	 	 	 	 	 	 	1581531999	4.43	8.20
12/02/2020 18:26:40	120220	12022020	182640	89.21	12.418753	-56.736472	89.18	-0.450	-0.030	1.490	89.21	-1.50	1.90	 	 	 	 	 	 	 	 	 	 	 	 	 	 	 	 	 	 	1581532000	3.94	7.30
12/02/2020 18:26:41	120220	12022020	182641	89.17	12.418750	-56.736452	89.15	-0.370	-0.130	1.660	89.17	-1.50	2.10	 	 	 	 	 	 	 	 	 	 	 	 	 	 	 	 	 	 	1581532001	4.07	7.54
12/02/2020 18:26:42	120220	12022020	182642	89.24	12.418748	-56.736430	89.24	0.110	-0.630	1.610	89.24	-2.00	2.10	 	 	 	 	 	 	 	 	 	 	 	 	 	 	 	 	 	 	1581532002	4.67	8.65
12/02/2020 18:26:43	120220	12022020	182643	89.27	12.418748	-56.736407	89.25	0.550	-0.960	1.470	89.27	-2.40	1.90	 	 	 	 	 	 	 	 	 	 	 	 	 	 	 	 	 	 	1581532003	4.92	9.11
12/02/2020 18:26:44	120220	12022020	182644	89.26	12.418748	-56.736385	89.24	0.570	-0.700	1.460	89.26	-2.20	1.90	 	 	 	 	 	 	 	 	 	 	 	 	 	 	 	 	 	 	1581532004	4.45	8.24
12/02/2020 18:26:45	120220	12022020	182645	89.31	12.418748	-56.736368	89.30	0.200	-0.040	1.540	89.31	-1.60	2.00	 	 	 	 	 	 	 	 	 	 	 	 	 	 	 	 	 	 	1581532005	3.80	7.04
12/02/2020 18:26:46	120220	12022020	182646	89.37	12.418747	-56.736352	89.36	-0.190	0.590	1.600	89.37	-0.90	2.00	 	 	 	 	 	 	 	 	 	 	 	 	 	 	 	 	 	 	1581532006	3.51	6.50
12/02/2020 18:26:47	120220	12022020	182647	89.26	12.418745	-56.736333	89.15	-0.340	0.640	1.660	89.26	-0.80	2.10	 	 	 	 	 	 	 	 	 	 	 	 	 	 	 	 	 	 	1581532007	3.73	6.91
12/02/2020 18:26:48	120220	12022020	182648	88.72	12.418745	-56.736312	88.65	-0.160	-0.180	1.700	88.72	-1.50	2.20	 	 	 	 	 	 	 	 	 	 	 	 	 	 	 	 	 	 	1581532008	4.59	8.50
12/02/2020 18:26:49	120220	12022020	182649	88.33	12.418747	-56.736287	88.29	0.130	-1.070	1.660	88.33	-2.40	2.10	 	 	 	 	 	 	 	 	 	 	 	 	 	 	 	 	 	 	1581532009	5.26	9.74
12/02/2020 18:26:50	120220	12022020	182650	88.36	12.418747	-56.736265	88.37	0.150	-0.930	1.510	88.36	-2.40	2.00	 	 	 	 	 	 	 	 	 	 	 	 	 	 	 	 	 	 	1581532010	4.57	8.46
12/02/2020 18:26:51	120220	12022020	182651	88.81	12.418748	-56.736250	88.83	-0.170	0.040	1.180	88.81	-1.50	1.70	 	 	 	 	 	 	 	 	 	 	 	 	 	 	 	 	 	 	1581532011	3.25	6.02
12/02/2020 18:26:52	120220	12022020	182652	89.35	12.418748	-56.736237	89.37	-0.430	0.620	0.850	89.35	-0.90	1.30	 	 	 	 	 	 	 	 	 	 	 	 	 	 	 	 	 	 	1581532012	2.91	5.39
12/02/2020 18:26:53	120220	12022020	182653	89.75	12.418747	-56.736218	89.74	-0.290	0.180	0.700	89.75	-1.20	1.20	 	 	 	 	 	 	 	 	 	 	 	 	 	 	 	 	 	 	1581532013	3.92	7.26
12/02/2020 18:26:54	120220	12022020	182654	89.85	12.418742	-56.736195	89.81	0.040	-0.550	0.950	89.85	-1.90	1.30	 	 	 	 	 	 	 	 	 	 	 	 	 	 	 	 	 	 	1581532014	4.81	8.91
12/02/2020 18:26:55	120220	12022020	182655	89.37	12.418737	-56.736175	89.30	0.250	-0.810	1.660	89.37	-2.20	2.00	 	 	 	 	 	 	 	 	 	 	 	 	 	 	 	 	 	 	1581532015	4.63	8.57
12/02/2020 18:26:56	120220	12022020	182656	88.51	12.418732	-56.736157	88.44	0.330	-0.550	2.200	88.51	-2.00	2.60	 	 	 	 	 	 	 	 	 	 	 	 	 	 	 	 	 	 	1581532016	3.96	7.33
12/02/2020 18:26:57	120220	12022020	182657	87.93	12.418733	-56.736140	87.78	0.350	-0.090	2.030	87.93	-1.60	2.50	 	 	 	 	 	 	 	 	 	 	 	 	 	 	 	 	 	 	1581532017	3.53	6.54
12/02/2020 18:26:58	120220	12022020	182658	87.68	12.418738	-56.736123	87.66	0.230	0.160	1.360	87.68	-1.30	1.90	 	 	 	 	 	 	 	 	 	 	 	 	 	 	 	 	 	 	1581532018	3.68	6.82
12/02/2020 18:26:59	120220	12022020	182659	87.98	12.418745	-56.736105	88.12	-0.050	0.000	0.610	87.98	-1.40	1.20	 	 	 	 	 	 	 	 	 	 	 	 	 	 	 	 	 	 	1581532019	3.99	7.39
12/02/2020 18:27:00	120220	12022020	182700	88.84	12.418748	-56.736087	88.86	-0.400	-0.220	0.120	88.84	-1.60	0.60	 	 	 	 	 	 	 	 	 	 	 	 	 	 	 	 	 	 	1581532020	3.97	7.35
12/02/2020 18:27:01	120220	12022020	182701	89.34	12.418745	-56.736070	89.31	-0.520	-0.260	0.190	89.34	-1.70	0.60	 	 	 	 	 	 	 	 	 	 	 	 	 	 	 	 	 	 	1581532021	3.76	6.96
12/02/2020 18:27:02	120220	12022020	182702	89.20	12.418738	-56.736052	89.13	-0.160	-0.410	1.020	89.20	-1.80	1.30	1014.80	25.20	25.30	21.10	21.10	245.0	78.0	77.0	412.0	27.1	335.00	16.40	60.00	14.30	28489	10358.0	27.3	27.3	1581532022	4.02	7.45
12/02/2020 18:27:03	120220	12022020	182703	88.53	12.418730	-56.736032	88.46	0.390	-0.650	2.120	88.53	-2.10	2.40	 	 	 	 	 	 	 	 	 	 	 	 	 	 	 	 	 	 	1581532023	4.50	8.33
12/02/2020 18:27:04	120220	12022020	182704	88.02	12.418725	-56.736013	87.99	0.550	-0.490	2.760	88.02	-2.00	3.20	 	 	 	 	 	 	 	 	 	 	 	 	 	 	 	 	 	 	1581532024	4.19	7.76
12/02/2020 18:27:05	120220	12022020	182705	88.03	12.418723	-56.735997	88.04	0.180	0.100	2.790	88.03	-1.40	3.30	 	 	 	 	 	 	 	 	 	 	 	 	 	 	 	 	 	 	1581532025	3.34	6.19
12/02/2020 18:27:06	120220	12022020	182706	88.36	12.418725	-56.735983	88.37	-0.350	0.560	2.440	88.36	-0.90	2.90	 	 	 	 	 	 	 	 	 	 	 	 	 	 	 	 	 	 	1581532026	2.88	5.33
12/02/2020 18:27:07	120220	12022020	182707	88.64	12.418725	-56.735968	88.63	-0.540	0.490	2.010	88.64	-0.90	2.50	 	 	 	 	 	 	 	 	 	 	 	 	 	 	 	 	 	 	1581532027	3.20	5.93
12/02/2020 18:27:08	120220	12022020	182708	88.69	12.418727	-56.735952	88.63	-0.360	0.030	1.520	88.69	-1.30	2.00	 	 	 	 	 	 	 	 	 	 	 	 	 	 	 	 	 	 	1581532028	3.65	6.76
12/02/2020 18:27:09	120220	12022020	182709	88.50	12.418728	-56.735933	88.42	-0.040	-0.570	1.070	88.50	-1.90	1.60	 	 	 	 	 	 	 	 	 	 	 	 	 	 	 	 	 	 	1581532029	3.89	7.20
12/02/2020 18:27:10	120220	12022020	182710	88.22	12.418728	-56.735915	88.16	0.200	-1.030	0.950	88.22	-2.40	1.40	 	 	 	 	 	 	 	 	 	 	 	 	 	 	 	 	 	 	1581532030	3.90	7.22
12/02/2020 18:27:11	120220	12022020	182711	88.09	12.418728	-56.735897	88.03	0.390	-1.190	0.990	88.09	-2.60	1.40	 	 	 	 	 	 	 	 	 	 	 	 	 	 	 	 	 	 	1581532031	3.77	6.98
12/02/2020 18:27:12	120220	12022020	182712	88.13	12.418727	-56.735880	88.10	0.570	-1.070	0.860	88.13	-2.50	1.40	 	 	 	 	 	 	 	 	 	 	 	 	 	 	 	 	 	 	1581532032	3.67	6.80
12/02/2020 18:27:13	120220	12022020	182713	88.32	12.418728	-56.735863	88.28	0.580	-0.450	0.600	88.32	-2.00	1.10	 	 	 	 	 	 	 	 	 	 	 	 	 	 	 	 	 	 	1581532033	3.53	6.54
12/02/2020 18:27:14	120220	12022020	182714	88.43	12.418728	-56.735850	88.39	0.120	0.690	0.590	88.43	-0.90	1.00	 	 	 	 	 	 	 	 	 	 	 	 	 	 	 	 	 	 	1581532034	2.79	5.17
12/02/2020 18:27:15	120220	12022020	182715	88.45	12.418727	-56.735838	88.42	-0.620	1.560	0.990	88.45	0.00	1.40	 	 	 	 	 	 	 	 	 	 	 	 	 	 	 	 	 	 	1581532035	2.36	4.37
12/02/2020 18:27:16	120220	12022020	182716	88.48	12.418722	-56.735825	88.46	-1.060	1.320	1.420	88.48	-0.00	1.80	 	 	 	 	 	 	 	 	 	 	 	 	 	 	 	 	 	 	1581532036	2.94	5.44
12/02/2020 18:27:17	120220	12022020	182717	88.42	12.418718	-56.735807	88.39	-0.810	0.070	1.790	88.42	-1.20	2.20	 	 	 	 	 	 	 	 	 	 	 	 	 	 	 	 	 	 	1581532037	3.96	7.33
12/02/2020 18:27:18	120220	12022020	182718	88.07	12.418713	-56.735787	88.03	-0.020	-1.370	2.250	88.07	-2.60	2.60	 	 	 	 	 	 	 	 	 	 	 	 	 	 	 	 	 	 	1581532038	4.57	8.46
12/02/2020 18:27:19	120220	12022020	182719	87.57	12.418710	-56.735765	87.54	0.770	-2.070	2.610	87.57	-3.50	3.00	 	 	 	 	 	 	 	 	 	 	 	 	 	 	 	 	 	 	1581532039	4.32	8.00
12/02/2020 18:27:20	120220	12022020	182720	87.27	12.418710	-56.735750	87.26	1.090	-1.640	2.460	87.27	-3.20	3.00	 	 	 	 	 	 	 	 	 	 	 	 	 	 	 	 	 	 	1581532040	3.39	6.28
12/02/2020 18:27:21	120220	12022020	182721	87.36	12.418715	-56.735738	87.36	0.800	-0.480	1.840	87.36	-2.10	2.40	 	 	 	 	 	 	 	 	 	 	 	 	 	 	 	 	 	 	1581532041	2.66	4.93
12/02/2020 18:27:22	120220	12022020	182722	87.70	12.418718	-56.735727	87.70	0.120	0.650	1.140	87.70	-0.90	1.70	 	 	 	 	 	 	 	 	 	 	 	 	 	 	 	 	 	 	1581532042	2.40	4.44
12/02/2020 18:27:23	120220	12022020	182723	87.96	12.418718	-56.735715	87.99	-0.580	1.240	0.810	87.96	-0.20	1.30	 	 	 	 	 	 	 	 	 	 	 	 	 	 	 	 	 	 	1581532043	2.54	4.70
12/02/2020 18:27:24	120220	12022020	182724	88.08	12.418717	-56.735702	88.04	-1.010	1.160	0.830	88.08	-0.20	1.30	 	 	 	 	 	 	 	 	 	 	 	 	 	 	 	 	 	 	1581532044	3.01	5.57
12/02/2020 18:27:25	120220	12022020	182725	87.94	12.418712	-56.735685	87.87	-0.990	0.450	1.000	87.94	-0.90	1.40	 	 	 	 	 	 	 	 	 	 	 	 	 	 	 	 	 	 	1581532045	3.49	6.46
12/02/2020 18:27:26	120220	12022020	182726	87.52	12.418708	-56.735667	87.45	-0.540	-0.580	1.340	87.52	-1.90	1.70	 	 	 	 	 	 	 	 	 	 	 	 	 	 	 	 	 	 	1581532046	3.86	7.15
12/02/2020 18:27:27	120220	12022020	182727	86.92	12.418705	-56.735650	86.85	0.200	-1.360	1.690	86.92	-2.70	2.10	 	 	 	 	 	 	 	 	 	 	 	 	 	 	 	 	 	 	1581532047	3.86	7.15
12/02/2020 18:27:28	120220	12022020	182728	86.45	12.418705	-56.735633	86.40	0.910	-1.500	1.640	86.45	-2.90	2.10	 	 	 	 	 	 	 	 	 	 	 	 	 	 	 	 	 	 	1581532048	3.43	6.35
12/02/2020 18:27:29	120220	12022020	182729	86.31	12.418708	-56.735618	86.28	1.290	-1.220	1.200	86.31	-2.70	1.70	 	 	 	 	 	 	 	 	 	 	 	 	 	 	 	 	 	 	1581532049	3.19	5.91
12/02/2020 18:27:30	120220	12022020	182730	86.38	12.418713	-56.735605	86.35	1.100	-0.640	0.780	86.38	-2.20	1.30	 	 	 	 	 	 	 	 	 	 	 	 	 	 	 	 	 	 	1581532050	3.22	5.96
12/02/2020 18:27:31	120220	12022020	182731	86.59	12.418717	-56.735592	86.56	0.260	0.400	0.530	86.59	-1.20	1.00	 	 	 	 	 	 	 	 	 	 	 	 	 	 	 	 	 	 	1581532051	2.67	4.94
12/02/2020 18:27:32	120220	12022020	182732	86.96	12.418717	-56.735583	86.95	-0.820	1.520	0.490	86.96	-0.00	0.90	 	 	 	 	 	 	 	 	 	 	 	 	 	 	 	 	 	 	1581532052	1.94	3.59
12/02/2020 18:27:33	120220	12022020	182733	87.13	12.418712	-56.735573	87.09	-1.450	1.750	0.980	87.13	0.30	1.30	 	 	 	 	 	 	 	 	 	 	 	 	 	 	 	 	 	 	1581532053	2.25	4.17
12/02/2020 18:27:34	120220	12022020	182734	86.79	12.418703	-56.735558	86.75	-1.170	0.540	1.950	86.79	-0.70	2.30	 	 	 	 	 	 	 	 	 	 	 	 	 	 	 	 	 	 	1581532054	3.75	6.95
12/02/2020 18:27:35	120220	12022020	182735	86.20	12.418695	-56.735537	86.19	-0.270	-1.220	2.690	86.20	-2.40	3.10	 	 	 	 	 	 	 	 	 	 	 	 	 	 	 	 	 	 	1581532055	4.70	8.70
12/02/2020 18:27:36	120220	12022020	182736	85.79	12.418692	-56.735517	85.80	0.610	-2.200	2.870	85.79	-3.60	3.30	 	 	 	 	 	 	 	 	 	 	 	 	 	 	 	 	 	 	1581532056	4.32	8.00
12/02/2020 18:27:37	120220	12022020	182737	85.58	12.418692	-56.735502	85.60	0.970	-1.740	2.640	85.58	-3.30	3.10	 	 	 	 	 	 	 	 	 	 	 	 	 	 	 	 	 	 	1581532057	3.05	5.65
12/02/2020 18:27:38	120220	12022020	182738	85.47	12.418695	-56.735493	85.48	0.750	-0.340	2.000	85.47	-2.00	2.60	 	 	 	 	 	 	 	 	 	 	 	 	 	 	 	 	 	 	1581532058	1.92	3.56
12/02/2020 18:27:39	120220	12022020	182739	85.54	12.418702	-56.735487	85.53	0.230	0.920	0.800	85.54	-0.70	1.40	 	 	 	 	 	 	 	 	 	 	 	 	 	 	 	 	 	 	1581532059	1.99	3.69
12/02/2020 18:27:40	120220	12022020	182740	85.85	12.418710	-56.735478	85.81	-0.230	1.240	-0.520	85.85	-0.20	0.10	 	 	 	 	 	 	 	 	 	 	 	 	 	 	 	 	 	 	1581532060	2.64	4.89
12/02/2020 18:27:41	120220	12022020	182741	86.12	12.418715	-56.735465	86.05	-0.350	0.540	-1.150	86.12	-0.80	-0.70	 	 	 	 	 	 	 	 	 	 	 	 	 	 	 	 	 	 	1581532061	3.10	5.74
12/02/2020 18:27:42	120220	12022020	182742	85.99	12.418715	-56.735447	85.90	-0.140	-0.650	-0.800	85.99	-1.90	-0.40	 	 	 	 	 	 	 	 	 	 	 	 	 	 	 	 	 	 	1581532062	3.70	6.85
12/02/2020 18:27:43	120220	12022020	182743	85.53	12.418712	-56.735428	85.46	0.100	-1.440	0.130	85.53	-2.80	0.50	 	 	 	 	 	 	 	 	 	 	 	 	 	 	 	 	 	 	1581532063	3.96	7.33
12/02/2020 18:27:44	120220	12022020	182744	85.16	12.418705	-56.735413	85.13	0.080	-1.250	1.180	85.16	-2.80	1.50	 	 	 	 	 	 	 	 	 	 	 	 	 	 	 	 	 	 	1581532064	3.47	6.43
12/02/2020 18:27:45	120220	12022020	182745	85.01	12.418698	-56.735403	85.01	-0.160	-0.370	2.040	85.01	-1.90	2.40	 	 	 	 	 	 	 	 	 	 	 	 	 	 	 	 	 	 	1581532065	2.81	5.20
12/02/2020 18:27:46	120220	12022020	182746	85.06	12.418692	-56.735393	85.08	-0.320	0.510	2.510	85.06	-1.00	2.90	 	 	 	 	 	 	 	 	 	 	 	 	 	 	 	 	 	 	1581532066	2.38	4.41
12/02/2020 18:27:47	120220	12022020	182747	85.13	12.418687	-56.735383	85.18	-0.300	0.980	2.670	85.13	-0.50	3.10	 	 	 	 	 	 	 	 	 	 	 	 	 	 	 	 	 	 	1581532067	2.23	4.13
12/02/2020 18:27:48	120220	12022020	182748	85.21	12.418687	-56.735372	85.25	-0.140	0.740	2.450	85.21	-0.60	3.00	 	 	 	 	 	 	 	 	 	 	 	 	 	 	 	 	 	 	1581532068	2.43	4.50
12/02/2020 18:27:49	120220	12022020	182749	85.25	12.418690	-56.735358	85.27	0.130	-0.150	1.830	85.25	-1.50	2.40	 	 	 	 	 	 	 	 	 	 	 	 	 	 	 	 	 	 	1581532069	3.00	5.56
12/02/2020 18:27:50	120220	12022020	182750	85.15	12.418695	-56.735342	85.14	0.480	-1.210	1.160	85.15	-2.50	1.70	 	 	 	 	 	 	 	 	 	 	 	 	 	 	 	 	 	 	1581532070	3.55	6.57
12/02/2020 18:27:51	120220	12022020	182751	84.96	12.418700	-56.735327	84.94	0.730	-1.620	0.700	84.96	-3.10	1.20	 	 	 	 	 	 	 	 	 	 	 	 	 	 	 	 	 	 	1581532071	3.46	6.41
12/02/2020 18:27:52	120220	12022020	182752	84.83	12.418702	-56.735315	84.83	0.640	-1.010	0.560	84.83	-2.60	1.00	 	 	 	 	 	 	 	 	 	 	 	 	 	 	 	 	 	 	1581532072	2.56	4.74
12/02/2020 18:27:53	120220	12022020	182753	84.78	12.418702	-56.735307	84.77	0.220	0.050	0.740	84.78	-1.50	1.20	 	 	 	 	 	 	 	 	 	 	 	 	 	 	 	 	 	 	1581532073	1.72	3.19
12/02/2020 18:27:54	120220	12022020	182754	84.68	12.418700	-56.735298	84.69	-0.260	0.740	1.030	84.68	-0.80	1.50	 	 	 	 	 	 	 	 	 	 	 	 	 	 	 	 	 	 	1581532074	1.80	3.33
12/02/2020 18:27:55	120220	12022020	182755	84.68	12.418698	-56.735288	84.71	-0.510	0.730	1.170	84.68	-0.70	1.60	 	 	 	 	 	 	 	 	 	 	 	 	 	 	 	 	 	 	1581532075	2.36	4.37
12/02/2020 18:27:56	120220	12022020	182756	84.83	12.418697	-56.735273	84.87	-0.400	0.070	1.130	84.83	-1.30	1.60	 	 	 	 	 	 	 	 	 	 	 	 	 	 	 	 	 	 	1581532076	2.97	5.50
12/02/2020 18:27:57	120220	12022020	182757	84.85	12.418695	-56.735258	84.87	-0.140	-0.700	1.250	84.85	-2.10	1.70	 	 	 	 	 	 	 	 	 	 	 	 	 	 	 	 	 	 	1581532077	3.36	6.22
12/02/2020 18:27:58	120220	12022020	182758	84.68	12.418692	-56.735243	84.69	-0.070	-0.880	1.530	84.68	-2.30	1.90	 	 	 	 	 	 	 	 	 	 	 	 	 	 	 	 	 	 	1581532078	3.08	5.70
12/02/2020 18:27:59	120220	12022020	182759	84.53	12.418688	-56.735233	84.53	-0.200	-0.270	1.850	84.53	-1.80	2.30	 	 	 	 	 	 	 	 	 	 	 	 	 	 	 	 	 	 	1581532079	2.24	4.15
12/02/2020 18:28:00	120220	12022020	182800	84.51	12.418687	-56.735227	84.56	-0.300	0.510	1.840	84.51	-1.00	2.30	 	 	 	 	 	 	 	 	 	 	 	 	 	 	 	 	 	 	1581532080	1.54	2.85
12/02/2020 18:28:01	120220	12022020	182801	84.65	12.418687	-56.735220	84.72	-0.100	0.660	1.340	84.65	-0.80	1.90	 	 	 	 	 	 	 	 	 	 	 	 	 	 	 	 	 	 	1581532081	1.53	2.83
12/02/2020 18:28:02	120220	12022020	182802	84.69	12.418688	-56.735208	84.68	0.360	-0.120	0.790	84.69	-1.40	1.30	1014.80	25.10	25.20	21.40	21.40	564.0	80.0	79.0	410.0	27.0	334.00	15.00	58.00	13.60	43868	8209.0	27.3	27.3	1581532082	2.50	4.63
12/02/2020 18:28:03	120220	12022020	182803	84.30	12.418693	-56.735193	84.27	0.750	-1.220	0.680	84.30	-2.50	1.10	 	 	 	 	 	 	 	 	 	 	 	 	 	 	 	 	 	 	1581532083	3.34	6.19
12/02/2020 18:28:04	120220	12022020	182804	83.88	12.418695	-56.735178	83.86	0.730	-1.690	0.910	83.88	-3.10	1.30	 	 	 	 	 	 	 	 	 	 	 	 	 	 	 	 	 	 	1581532084	3.29	6.09
12/02/2020 18:28:05	120220	12022020	182805	83.77	12.418695	-56.735167	83.79	0.310	-1.070	1.130	83.77	-2.70	1.60	 	 	 	 	 	 	 	 	 	 	 	 	 	 	 	 	 	 	1581532085	2.36	4.37
12/02/2020 18:28:06	120220	12022020	182806	84.01	12.418695	-56.735160	84.06	-0.220	0.230	1.150	84.01	-1.40	1.60	 	 	 	 	 	 	 	 	 	 	 	 	 	 	 	 	 	 	1581532086	1.40	2.59
12/02/2020 18:28:07	120220	12022020	182807	84.41	12.418692	-56.735155	84.46	-0.660	1.300	1.110	84.41	-0.30	1.60	 	 	 	 	 	 	 	 	 	 	 	 	 	 	 	 	 	 	1581532087	1.16	2.15
12/02/2020 18:28:08	120220	12022020	182808	84.62	12.418688	-56.735148	84.65	-0.790	1.360	1.330	84.62	-0.00	1.70	 	 	 	 	 	 	 	 	 	 	 	 	 	 	 	 	 	 	1581532088	1.78	3.30
12/02/2020 18:28:09	120220	12022020	182809	84.53	12.418683	-56.735135	84.57	-0.510	0.310	1.670	84.53	-1.00	2.10	 	 	 	 	 	 	 	 	 	 	 	 	 	 	 	 	 	 	1581532089	2.85	5.28
12/02/2020 18:28:10	120220	12022020	182810	84.36	12.418680	-56.735118	84.39	0.000	-0.920	1.810	84.36	-2.20	2.20	 	 	 	 	 	 	 	 	 	 	 	 	 	 	 	 	 	 	1581532090	3.37	6.24
12/02/2020 18:28:11	120220	12022020	182811	84.27	12.418680	-56.735105	84.30	0.380	-1.400	1.820	84.27	-2.80	2.30	 	 	 	 	 	 	 	 	 	 	 	 	 	 	 	 	 	 	1581532091	2.88	5.33
12/02/2020 18:28:12	120220	12022020	182812	84.31	12.418678	-56.735097	84.34	0.410	-1.050	1.720	84.31	-2.60	2.20	 	 	 	 	 	 	 	 	 	 	 	 	 	 	 	 	 	 	1581532092	1.95	3.61
12/02/2020 18:28:13	120220	12022020	182813	84.33	12.418678	-56.735090	84.32	0.300	-0.430	1.480	84.33	-1.90	2.00	 	 	 	 	 	 	 	 	 	 	 	 	 	 	 	 	 	 	1581532093	1.42	2.63
12/02/2020 18:28:14	120220	12022020	182814	84.07	12.418680	-56.735082	84.04	0.310	-0.040	1.220	84.07	-1.50	1.70	 	 	 	 	 	 	 	 	 	 	 	 	 	 	 	 	 	 	1581532094	1.64	3.04
12/02/2020 18:28:15	120220	12022020	182815	83.77	12.418683	-56.735073	83.67	0.350	0.180	0.890	83.77	-1.30	1.40	 	 	 	 	 	 	 	 	 	 	 	 	 	 	 	 	 	 	1581532095	2.05	3.80
12/02/2020 18:28:16	120220	12022020	182816	83.57	12.418688	-56.735065	83.56	0.160	0.460	0.500	83.57	-1.00	1.00	 	 	 	 	 	 	 	 	 	 	 	 	 	 	 	 	 	 	1581532096	2.04	3.78
12/02/2020 18:28:17	120220	12022020	182817	83.78	12.418693	-56.735058	83.79	-0.270	0.530	0.100	83.78	-0.90	0.60	 	 	 	 	 	 	 	 	 	 	 	 	 	 	 	 	 	 	1581532097	1.74	3.22
12/02/2020 18:28:18	120220	12022020	182818	84.21	12.418693	-56.735048	84.22	-0.630	0.020	-0.070	84.21	-1.30	0.40	 	 	 	 	 	 	 	 	 	 	 	 	 	 	 	 	 	 	1581532098	1.93	3.57
12/02/2020 18:28:19	120220	12022020	182819	84.45	12.418688	-56.735035	84.46	-0.610	-0.880	0.320	84.45	-2.20	0.70	 	 	 	 	 	 	 	 	 	 	 	 	 	 	 	 	 	 	1581532099	2.86	5.30
12/02/2020 18:28:20	120220	12022020	182820	84.38	12.418680	-56.735022	84.39	-0.230	-1.450	1.220	84.38	-2.80	1.50	 	 	 	 	 	 	 	 	 	 	 	 	 	 	 	 	 	 	1581532100	3.47	6.43
12/02/2020 18:28:21	120220	12022020	182821	84.13	12.418672	-56.735010	84.14	0.210	-1.130	2.080	84.13	-2.70	2.40	 	 	 	 	 	 	 	 	 	 	 	 	 	 	 	 	 	 	1581532101	3.01	5.57
12/02/2020 18:28:22	120220	12022020	182822	83.75	12.418667	-56.735003	83.75	0.370	0.040	2.330	83.75	-1.60	2.80	 	 	 	 	 	 	 	 	 	 	 	 	 	 	 	 	 	 	1581532102	1.63	3.02
12/02/2020 18:28:23	120220	12022020	182823	83.27	12.418668	-56.735002	83.25	0.160	1.230	1.930	83.27	-0.30	2.50	 	 	 	 	 	 	 	 	 	 	 	 	 	 	 	 	 	 	1581532103	0.57	1.06
12/02/2020 18:28:24	120220	12022020	182824	82.86	12.418673	-56.734998	82.84	-0.180	1.380	1.220	82.86	-0.00	1.80	 	 	 	 	 	 	 	 	 	 	 	 	 	 	 	 	 	 	1581532104	1.31	2.43
12/02/2020 18:28:25	120220	12022020	182825	82.82	12.418680	-56.734988	82.82	-0.270	0.210	0.360	82.82	-1.00	1.00	 	 	 	 	 	 	 	 	 	 	 	 	 	 	 	 	 	 	1581532105	2.40	4.44
12/02/2020 18:28:26	120220	12022020	182826	83.17	12.418687	-56.734975	83.19	0.010	-1.420	-0.510	83.17	-2.60	0.10	 	 	 	 	 	 	 	 	 	 	 	 	 	 	 	 	 	 	1581532106	3.28	6.07
12/02/2020 18:28:27	120220	12022020	182827	83.54	12.418690	-56.734962	83.53	0.430	-2.200	-0.950	83.54	-3.60	-0.50	 	 	 	 	 	 	 	 	 	 	 	 	 	 	 	 	 	 	1581532107	3.06	5.67
12/02/2020 18:28:28	120220	12022020	182828	83.58	12.418688	-56.734953	83.54	0.590	-1.500	-0.590	83.58	-3.10	-0.20	 	 	 	 	 	 	 	 	 	 	 	 	 	 	 	 	 	 	1581532108	1.87	3.46
12/02/2020 18:28:29	120220	12022020	182829	83.30	12.418683	-56.734948	83.26	0.370	-0.050	0.460	83.30	-1.70	0.80	 	 	 	 	 	 	 	 	 	 	 	 	 	 	 	 	 	 	1581532109	1.51	2.80
12/02/2020 18:28:30	120220	12022020	182830	82.84	12.418675	-56.734945	82.84	-0.110	1.070	1.720	82.84	-0.50	2.00	 	 	 	 	 	 	 	 	 	 	 	 	 	 	 	 	 	 	1581532110	1.75	3.24
12/02/2020 18:28:31	120220	12022020	182831	82.53	12.418670	-56.734940	82.56	-0.560	1.320	2.500	82.53	-0.10	2.90	 	 	 	 	 	 	 	 	 	 	 	 	 	 	 	 	 	 	1581532111	1.67	3.09
12/02/2020 18:28:32	120220	12022020	182832	82.46	12.418668	-56.734932	82.51	-0.800	0.910	2.780	82.46	-0.40	3.20	 	 	 	 	 	 	 	 	 	 	 	 	 	 	 	 	 	 	1581532112	1.81	3.35
12/02/2020 18:28:33	120220	12022020	182833	82.52	12.418668	-56.734922	82.57	-0.770	0.210	2.750	82.52	-1.10	3.20	 	 	 	 	 	 	 	 	 	 	 	 	 	 	 	 	 	 	1581532113	1.90	3.52
12/02/2020 18:28:34	120220	12022020	182834	82.56	12.418668	-56.734913	82.60	-0.490	-0.600	2.440	82.56	-1.90	2.90	 	 	 	 	 	 	 	 	 	 	 	 	 	 	 	 	 	 	1581532114	1.88	3.48
12/02/2020 18:28:35	120220	12022020	182835	82.47	12.418668	-56.734903	82.50	0.010	-1.350	2.020	82.47	-2.70	2.50	 	 	 	 	 	 	 	 	 	 	 	 	 	 	 	 	 	 	1581532115	1.95	3.61
12/02/2020 18:28:36	120220	12022020	182836	82.35	12.418668	-56.734895	82.36	0.610	-1.830	1.470	82.35	-3.20	2.00	 	 	 	 	 	 	 	 	 	 	 	 	 	 	 	 	 	 	1581532116	2.00	3.70
12/02/2020 18:28:37	120220	12022020	182837	82.28	12.418673	-56.734887	82.27	1.090	-1.720	0.690	82.28	-3.20	1.30	 	 	 	 	 	 	 	 	 	 	 	 	 	 	 	 	 	 	1581532117	2.01	3.72
12/02/2020 18:28:38	120220	12022020	182838	82.27	12.418680	-56.734880	82.25	1.140	-0.840	-0.210	82.27	-2.40	0.40	 	 	 	 	 	 	 	 	 	 	 	 	 	 	 	 	 	 	1581532118	1.98	3.67
12/02/2020 18:28:39	120220	12022020	182839	82.25	12.418685	-56.734877	82.22	0.590	0.590	-0.800	82.25	-1.00	-0.30	 	 	 	 	 	 	 	 	 	 	 	 	 	 	 	 	 	 	1581532119	1.56	2.89
12/02/2020 18:28:40	120220	12022020	182840	82.23	12.418687	-56.734875	82.21	-0.390	1.890	-0.710	82.23	0.30	-0.30	 	 	 	 	 	 	 	 	 	 	 	 	 	 	 	 	 	 	1581532120	0.45	0.83
12/02/2020 18:28:41	120220	12022020	182841	82.17	12.418683	-56.734872	82.15	-1.210	2.140	0.080	82.17	0.80	0.40	 	 	 	 	 	 	 	 	 	 	 	 	 	 	 	 	 	 	1581532121	1.19	2.20
12/02/2020 18:28:42	120220	12022020	182842	82.08	12.418675	-56.734863	82.09	-1.240	0.970	1.010	82.08	-0.20	1.40	 	 	 	 	 	 	 	 	 	 	 	 	 	 	 	 	 	 	1581532122	2.28	4.22
12/02/2020 18:28:43	120220	12022020	182843	82.06	12.418672	-56.734850	82.10	-0.480	-0.870	1.650	82.06	-2.00	2.00	 	 	 	 	 	 	 	 	 	 	 	 	 	 	 	 	 	 	1581532123	2.93	5.43
12/02/2020 18:28:44	120220	12022020	182844	81.98	12.418668	-56.734838	82.02	0.410	-1.940	2.260	81.98	-3.30	2.60	 	 	 	 	 	 	 	 	 	 	 	 	 	 	 	 	 	 	1581532124	2.68	4.96
12/02/2020 18:28:45	120220	12022020	182845	81.82	12.418665	-56.734832	81.86	0.730	-1.750	2.750	81.82	-3.20	3.20	 	 	 	 	 	 	 	 	 	 	 	 	 	 	 	 	 	 	1581532125	1.57	2.91
12/02/2020 18:28:46	120220	12022020	182846	81.74	12.418663	-56.734828	81.78	0.490	-1.090	2.920	81.74	-2.60	3.40	 	 	 	 	 	 	 	 	 	 	 	 	 	 	 	 	 	 	1581532126	0.82	1.52
12/02/2020 18:28:47	120220	12022020	182847	81.80	12.418663	-56.734822	81.84	0.240	-0.780	2.600	81.80	-2.20	3.10	 	 	 	 	 	 	 	 	 	 	 	 	 	 	 	 	 	 	1581532127	1.11	2.06
12/02/2020 18:28:48	120220	12022020	182848	81.90	12.418667	-56.734815	81.91	0.260	-0.410	1.970	81.90	-1.90	2.50	 	 	 	 	 	 	 	 	 	 	 	 	 	 	 	 	 	 	1581532128	1.71	3.17
12/02/2020 18:28:49	120220	12022020	182849	81.89	12.418668	-56.734810	81.87	0.190	0.630	1.300	81.89	-0.90	1.90	 	 	 	 	 	 	 	 	 	 	 	 	 	 	 	 	 	 	1581532129	1.16	2.15
12/02/2020 18:28:50	120220	12022020	182850	81.77	12.418670	-56.734808	81.72	-0.220	1.730	0.490	81.77	0.20	1.10	 	 	 	 	 	 	 	 	 	 	 	 	 	 	 	 	 	 	1581532130	0.47	0.87
12/02/2020 18:28:51	120220	12022020	182851	81.58	12.418673	-56.734808	81.44	-0.680	1.800	-0.380	81.58	0.50	0.20	 	 	 	 	 	 	 	 	 	 	 	 	 	 	 	 	 	 	1581532131	0.78	1.44
12/02/2020 18:28:52	120220	12022020	182852	81.25	12.418678	-56.734802	81.19	-0.660	0.390	-1.110	81.25	-0.80	-0.50	 	 	 	 	 	 	 	 	 	 	 	 	 	 	 	 	 	 	1581532132	1.75	3.24
12/02/2020 18:28:53	120220	12022020	182853	81.19	12.418685	-56.734790	81.15	-0.080	-1.550	-1.620	81.19	-2.70	-1.10	 	 	 	 	 	 	 	 	 	 	 	 	 	 	 	 	 	 	1581532133	2.85	5.28
12/02/2020 18:28:54	120220	12022020	182854	81.35	12.418688	-56.734777	81.32	0.530	-2.490	-1.760	81.35	-3.80	-1.30	 	 	 	 	 	 	 	 	 	 	 	 	 	 	 	 	 	 	1581532134	2.62	4.85
12/02/2020 18:28:55	120220	12022020	182855	81.49	12.418688	-56.734772	81.47	0.650	-1.890	-1.330	81.49	-3.40	-0.90	 	 	 	 	 	 	 	 	 	 	 	 	 	 	 	 	 	 	1581532135	1.33	2.46
12/02/2020 18:28:56	120220	12022020	182856	81.55	12.418683	-56.734770	81.55	0.260	-0.450	-0.400	81.55	-2.10	-0.10	 	 	 	 	 	 	 	 	 	 	 	 	 	 	 	 	 	 	1581532136	1.01	1.87
12/02/2020 18:28:57	120220	12022020	182857	81.53	12.418677	-56.734768	81.54	-0.310	0.960	0.900	81.53	-0.60	1.20	 	 	 	 	 	 	 	 	 	 	 	 	 	 	 	 	 	 	1581532137	1.62	3.00
12/02/2020 18:28:58	120220	12022020	182858	81.39	12.418667	-56.734767	81.43	-0.640	1.630	2.370	81.39	0.20	2.70	 	 	 	 	 	 	 	 	 	 	 	 	 	 	 	 	 	 	1581532138	2.05	3.80
12/02/2020 18:28:59	120220	12022020	182859	81.32	12.418658	-56.734760	81.39	-0.480	1.120	3.510	81.32	-0.20	3.90	 	 	 	 	 	 	 	 	 	 	 	 	 	 	 	 	 	 	1581532139	2.30	4.26
12/02/2020 18:29:00	120220	12022020	182900	81.29	12.418655	-56.734748	81.37	0.010	-0.250	4.030	81.29	-1.50	4.50	 	 	 	 	 	 	 	 	 	 	 	 	 	 	 	 	 	 	1581532140	2.50	4.63
12/02/2020 18:29:01	120220	12022020	182901	81.17	12.418653	-56.734737	81.24	0.350	-1.360	4.040	81.17	-2.70	4.50	 	 	 	 	 	 	 	 	 	 	 	 	 	 	 	 	 	 	1581532141	2.53	4.69
12/02/2020 18:29:02	120220	12022020	182902	81.01	12.418653	-56.734730	81.06	0.310	-1.390	3.730	81.01	-2.80	4.30	1014.80	25.00	25.10	21.50	21.40	820.0	81.0	80.0	415.0	27.2	337.00	14.00	58.00	13.10	55207	9634.0	27.3	27.3	1581532142	1.59	2.94
12/02/2020 18:29:03	120220	12022020	182903	80.91	12.418657	-56.734727	80.93	0.160	-0.670	2.910	80.91	-2.20	3.50	 	 	 	 	 	 	 	 	 	 	 	 	 	 	 	 	 	 	1581532143	0.66	1.22
12/02/2020 18:29:04	120220	12022020	182904	80.84	12.418662	-56.734727	80.85	0.240	-0.060	1.510	80.84	-1.50	2.20	 	 	 	 	 	 	 	 	 	 	 	 	 	 	 	 	 	 	1581532144	1.39	2.57
12/02/2020 18:29:05	120220	12022020	182905	80.86	12.418672	-56.734723	80.85	0.490	0.070	-0.170	80.86	-1.30	0.60	 	 	 	 	 	 	 	 	 	 	 	 	 	 	 	 	 	 	1581532145	2.21	4.09
12/02/2020 18:29:06	120220	12022020	182906	81.10	12.418682	-56.734717	81.06	0.530	-0.120	-1.710	81.10	-1.50	-1.00	 	 	 	 	 	 	 	 	 	 	 	 	 	 	 	 	 	 	1581532146	2.49	4.61
12/02/2020 18:29:07	120220	12022020	182907	81.39	12.418688	-56.734710	81.33	0.130	-0.110	-2.560	81.39	-1.60	-2.00	 	 	 	 	 	 	 	 	 	 	 	 	 	 	 	 	 	 	1581532147	1.94	3.59
12/02/2020 18:29:08	120220	12022020	182908	81.38	12.418688	-56.734705	81.29	-0.540	0.200	-2.320	81.38	-1.30	-1.90	 	 	 	 	 	 	 	 	 	 	 	 	 	 	 	 	 	 	1581532148	1.03	1.91
12/02/2020 18:29:09	120220	12022020	182909	81.01	12.418682	-56.734702	80.94	-1.020	0.450	-1.040	81.01	-1.00	-0.80	 	 	 	 	 	 	 	 	 	 	 	 	 	 	 	 	 	 	1581532149	1.66	3.07
12/02/2020 18:29:10	120220	12022020	182910	80.70	12.418673	-56.734695	80.68	-0.930	0.270	0.460	80.70	-1.10	0.80	 	 	 	 	 	 	 	 	 	 	 	 	 	 	 	 	 	 	1581532150	2.41	4.46
12/02/2020 18:29:11	120220	12022020	182911	80.64	12.418665	-56.734687	80.66	-0.270	-0.370	1.590	80.64	-1.70	1.90	 	 	 	 	 	 	 	 	 	 	 	 	 	 	 	 	 	 	1581532151	2.43	4.50
12/02/2020 18:29:12	120220	12022020	182912	80.72	12.418660	-56.734677	80.76	0.540	-1.010	2.350	80.72	-2.30	2.70	 	 	 	 	 	 	 	 	 	 	 	 	 	 	 	 	 	 	1581532152	2.29	4.24
12/02/2020 18:29:13	120220	12022020	182913	80.81	12.418658	-56.734668	80.85	0.950	-1.070	2.860	80.81	-2.50	3.30	 	 	 	 	 	 	 	 	 	 	 	 	 	 	 	 	 	 	1581532153	1.89	3.50
12/02/2020 18:29:14	120220	12022020	182914	80.85	12.418657	-56.734663	80.90	0.680	-0.420	3.160	80.85	-1.90	3.60	 	 	 	 	 	 	 	 	 	 	 	 	 	 	 	 	 	 	1581532154	1.11	2.06
12/02/2020 18:29:15	120220	12022020	182915	80.85	12.418657	-56.734662	80.88	-0.040	0.420	3.110	80.85	-1.10	3.60	 	 	 	 	 	 	 	 	 	 	 	 	 	 	 	 	 	 	1581532155	0.44	0.81
12/02/2020 18:29:16	120220	12022020	182916	80.78	12.418657	-56.734660	80.79	-0.590	0.780	2.640	80.78	-0.60	3.20	 	 	 	 	 	 	 	 	 	 	 	 	 	 	 	 	 	 	1581532156	0.51	0.94
12/02/2020 18:29:17	120220	12022020	182917	80.65	12.418658	-56.734653	80.60	-0.540	0.290	1.890	80.65	-1.00	2.50	 	 	 	 	 	 	 	 	 	 	 	 	 	 	 	 	 	 	1581532157	1.22	2.26
12/02/2020 18:29:18	120220	12022020	182918	80.39	12.418662	-56.734645	80.38	0.020	-0.690	0.930	80.39	-2.00	1.60	 	 	 	 	 	 	 	 	 	 	 	 	 	 	 	 	 	 	1581532158	2.13	3.94
12/02/2020 18:29:19	120220	12022020	182919	80.21	12.418668	-56.734635	80.20	0.520	-1.260	-0.170	80.21	-2.60	0.50	 	 	 	 	 	 	 	 	 	 	 	 	 	 	 	 	 	 	1581532159	2.49	4.61
12/02/2020 18:29:20	120220	12022020	182920	80.15	12.418677	-56.734628	80.14	0.540	-0.950	-1.130	80.15	-2.50	-0.50	 	 	 	 	 	 	 	 	 	 	 	 	 	 	 	 	 	 	1581532160	2.06	3.82
12/02/2020 18:29:21	120220	12022020	182921	80.28	12.418682	-56.734627	80.27	0.150	-0.050	-1.670	80.28	-1.60	-1.10	 	 	 	 	 	 	 	 	 	 	 	 	 	 	 	 	 	 	1581532161	1.17	2.17
12/02/2020 18:29:22	120220	12022020	182922	80.54	12.418682	-56.734623	80.51	-0.310	0.780	-1.570	80.54	-0.70	-1.10	 	 	 	 	 	 	 	 	 	 	 	 	 	 	 	 	 	 	1581532162	0.46	0.85
12/02/2020 18:29:23	120220	12022020	182923	80.72	12.418678	-56.734620	80.68	-0.540	0.940	-0.980	80.72	-0.50	-0.60	 	 	 	 	 	 	 	 	 	 	 	 	 	 	 	 	 	 	1581532163	1.18	2.19
12/02/2020 18:29:24	120220	12022020	182924	80.72	12.418673	-56.734612	80.70	-0.400	0.320	-0.050	80.72	-1.00	0.30	 	 	 	 	 	 	 	 	 	 	 	 	 	 	 	 	 	 	1581532164	1.94	3.59
12/02/2020 18:29:25	120220	12022020	182925	80.56	12.418668	-56.734602	80.55	-0.010	-0.540	1.160	80.56	-1.90	1.50	 	 	 	 	 	 	 	 	 	 	 	 	 	 	 	 	 	 	1581532165	2.45	4.54
12/02/2020 18:29:26	120220	12022020	182926	80.26	12.418663	-56.734592	80.28	0.350	-1.040	2.480	80.26	-2.40	2.80	 	 	 	 	 	 	 	 	 	 	 	 	 	 	 	 	 	 	1581532166	2.49	4.61
12/02/2020 18:29:27	120220	12022020	182927	80.04	12.418658	-56.734583	80.04	0.430	-0.980	3.400	80.04	-2.40	3.80	 	 	 	 	 	 	 	 	 	 	 	 	 	 	 	 	 	 	1581532167	2.00	3.70
12/02/2020 18:29:28	120220	12022020	182928	79.93	12.418655	-56.734577	79.98	0.220	-0.530	3.580	79.93	-2.00	4.10	 	 	 	 	 	 	 	 	 	 	 	 	 	 	 	 	 	 	1581532168	1.29	2.39
12/02/2020 18:29:29	120220	12022020	182929	79.93	12.418657	-56.734573	79.98	-0.130	0.160	3.230	79.93	-1.40	3.80	 	 	 	 	 	 	 	 	 	 	 	 	 	 	 	 	 	 	1581532169	0.83	1.54
12/02/2020 18:29:30	120220	12022020	182930	80.01	12.418658	-56.734570	80.05	-0.380	0.650	2.470	80.01	-0.80	3.10	 	 	 	 	 	 	 	 	 	 	 	 	 	 	 	 	 	 	1581532170	0.85	1.57
12/02/2020 18:29:31	120220	12022020	182931	80.18	12.418663	-56.734565	80.20	-0.310	0.400	1.290	80.18	-0.90	2.00	 	 	 	 	 	 	 	 	 	 	 	 	 	 	 	 	 	 	1581532171	1.44	2.67
12/02/2020 18:29:32	120220	12022020	182932	80.41	12.418670	-56.734557	80.40	0.090	-0.560	-0.010	80.41	-1.80	0.70	 	 	 	 	 	 	 	 	 	 	 	 	 	 	 	 	 	 	1581532172	2.36	4.37
12/02/2020 18:29:33	120220	12022020	182933	80.40	12.418675	-56.734545	80.35	0.580	-1.350	-0.770	80.40	-2.70	-0.20	 	 	 	 	 	 	 	 	 	 	 	 	 	 	 	 	 	 	1581532173	2.74	5.07
12/02/2020 18:29:34	120220	12022020	182934	80.07	12.418678	-56.734535	79.99	0.700	-1.070	-0.910	80.07	-2.60	-0.40	 	 	 	 	 	 	 	 	 	 	 	 	 	 	 	 	 	 	1581532174	2.03	3.76
12/02/2020 18:29:35	120220	12022020	182935	79.78	12.418678	-56.734532	79.71	0.240	0.130	-0.870	79.78	-1.50	-0.40	 	 	 	 	 	 	 	 	 	 	 	 	 	 	 	 	 	 	1581532175	0.83	1.54
12/02/2020 18:29:36	120220	12022020	182936	79.78	12.418680	-56.734532	79.75	-0.520	1.290	-0.750	79.78	-0.30	-0.30	 	 	 	 	 	 	 	 	 	 	 	 	 	 	 	 	 	 	1581532176	0.26	0.48
12/02/2020 18:29:37	120220	12022020	182937	80.04	12.418680	-56.734528	80.04	-1.000	1.480	-0.400	80.04	0.10	0.00	 	 	 	 	 	 	 	 	 	 	 	 	 	 	 	 	 	 	1581532177	0.54	1.00
12/02/2020 18:29:38	120220	12022020	182938	80.33	12.418677	-56.734520	80.35	-0.800	0.480	0.270	80.33	-0.80	0.70	 	 	 	 	 	 	 	 	 	 	 	 	 	 	 	 	 	 	1581532178	1.85	3.43
12/02/2020 18:29:39	120220	12022020	182939	80.41	12.418672	-56.734507	80.41	-0.100	-0.940	1.330	80.41	-2.20	1.70	 	 	 	 	 	 	 	 	 	 	 	 	 	 	 	 	 	 	1581532179	2.93	5.43
12/02/2020 18:29:40	120220	12022020	182940	80.11	12.418667	-56.734495	80.12	0.550	-1.840	2.440	80.11	-3.20	2.80	 	 	 	 	 	 	 	 	 	 	 	 	 	 	 	 	 	 	1581532180	3.01	5.57
12/02/2020 18:29:41	120220	12022020	182941	79.79	12.418662	-56.734483	79.77	0.830	-1.930	3.120	79.79	-3.40	3.60	 	 	 	 	 	 	 	 	 	 	 	 	 	 	 	 	 	 	1581532181	2.37	4.39
12/02/2020 18:29:42	120220	12022020	182942	79.61	12.418662	-56.734477	79.66	0.720	-1.250	3.170	79.61	-2.80	3.70	 	 	 	 	 	 	 	 	 	 	 	 	 	 	 	 	 	 	1581532182	1.65	3.06
12/02/2020 18:29:43	120220	12022020	182943	79.63	12.418663	-56.734472	79.66	0.330	0.120	2.750	79.63	-1.50	3.30	 	 	 	 	 	 	 	 	 	 	 	 	 	 	 	 	 	 	1581532183	0.96	1.78
12/02/2020 18:29:44	120220	12022020	182944	79.61	12.418667	-56.734470	79.61	-0.240	1.510	1.920	79.61	-0.10	2.60	 	 	 	 	 	 	 	 	 	 	 	 	 	 	 	 	 	 	1581532184	0.78	1.44
12/02/2020 18:29:45	120220	12022020	182945	79.72	12.418673	-56.734468	79.71	-0.760	2.020	0.650	79.72	0.60	1.40	 	 	 	 	 	 	 	 	 	 	 	 	 	 	 	 	 	 	1581532185	1.33	2.46
12/02/2020 18:29:46	120220	12022020	182946	80.05	12.418682	-56.734463	80.02	-0.910	1.190	-0.880	80.05	-0.10	-0.20	 	 	 	 	 	 	 	 	 	 	 	 	 	 	 	 	 	 	1581532186	2.14	3.96
12/02/2020 18:29:47	120220	12022020	182947	80.26	12.418688	-56.734452	80.19	-0.520	-0.530	-1.960	80.26	-1.70	-1.30	 	 	 	 	 	 	 	 	 	 	 	 	 	 	 	 	 	 	1581532187	2.83	5.24
12/02/2020 18:29:48	120220	12022020	182948	80.16	12.418692	-56.734438	80.06	0.110	-1.930	-2.170	80.16	-3.20	-1.70	 	 	 	 	 	 	 	 	 	 	 	 	 	 	 	 	 	 	1581532188	2.94	5.44
12/02/2020 18:29:49	120220	12022020	182949	79.89	12.418692	-56.734428	79.82	0.570	-2.160	-1.740	79.89	-3.60	-1.30	 	 	 	 	 	 	 	 	 	 	 	 	 	 	 	 	 	 	1581532189	2.29	4.24
12/02/2020 18:29:50	120220	12022020	182950	79.80	12.418690	-56.734422	79.76	0.630	-1.290	-1.060	79.80	-2.90	-0.60	 	 	 	 	 	 	 	 	 	 	 	 	 	 	 	 	 	 	1581532190	1.39	2.57
12/02/2020 18:29:51	120220	12022020	182951	79.88	12.418687	-56.734418	79.85	0.310	0.090	-0.220	79.88	-1.50	0.20	 	 	 	 	 	 	 	 	 	 	 	 	 	 	 	 	 	 	1581532191	0.98	1.81
12/02/2020 18:29:52	120220	12022020	182952	79.82	12.418682	-56.734415	79.79	-0.160	1.170	0.760	79.82	-0.40	1.10	 	 	 	 	 	 	 	 	 	 	 	 	 	 	 	 	 	 	1581532192	1.26	2.33
12/02/2020 18:29:53	120220	12022020	182953	79.59	12.418677	-56.734408	79.52	-0.390	1.220	1.830	79.59	-0.10	2.20	 	 	 	 	 	 	 	 	 	 	 	 	 	 	 	 	 	 	1581532193	1.74	3.22
12/02/2020 18:29:54	120220	12022020	182954	79.33	12.418673	-56.734397	79.37	-0.170	0.210	2.640	79.33	-1.00	3.10	 	 	 	 	 	 	 	 	 	 	 	 	 	 	 	 	 	 	1581532194	2.51	4.65
12/02/2020 18:29:55	120220	12022020	182955	79.53	12.418675	-56.734383	79.68	0.260	-1.050	2.800	79.53	-2.30	3.30	 	 	 	 	 	 	 	 	 	 	 	 	 	 	 	 	 	 	1581532195	3.02	5.59
12/02/2020 18:29:56	120220	12022020	182956	80.03	12.418678	-56.734372	80.07	0.420	-1.350	2.520	80.03	-2.80	3.10	 	 	 	 	 	 	 	 	 	 	 	 	 	 	 	 	 	 	1581532196	2.53	4.69
12/02/2020 18:29:57	120220	12022020	182957	80.15	12.418680	-56.734365	80.15	0.120	-0.480	2.190	80.15	-2.10	2.70	 	 	 	 	 	 	 	 	 	 	 	 	 	 	 	 	 	 	1581532197	1.21	2.24
12/02/2020 18:29:58	120220	12022020	182958	79.98	12.418680	-56.734365	79.98	-0.360	0.740	1.870	79.98	-0.80	2.40	 	 	 	 	 	 	 	 	 	 	 	 	 	 	 	 	 	 	1581532198	0.33	0.61
12/02/2020 18:29:59	120220	12022020	182959	79.82	12.418680	-56.734362	79.81	-0.650	1.350	1.380	79.82	-0.10	2.00	 	 	 	 	 	 	 	 	 	 	 	 	 	 	 	 	 	 	1581532199	0.43	0.80
12/02/2020 18:30:00	120220	12022020	183000	79.84	12.418683	-56.734357	79.83	-0.550	0.790	0.560	79.84	-0.50	1.20	 	 	 	 	 	 	 	 	 	 	 	 	 	 	 	 	 	 	1581532200	1.44	2.67
12/02/2020 18:30:01	120220	12022020	183001	80.01	12.418692	-56.734347	79.99	-0.070	-0.760	-0.400	80.01	-2.00	0.20	 	 	 	 	 	 	 	 	 	 	 	 	 	 	 	 	 	 	1581532201	2.68	4.96
12/02/2020 18:30:02	120220	12022020	183002	79.93	12.418697	-56.734332	79.88	0.530	-2.290	-0.850	79.93	-3.60	-0.30	1014.70	24.90	25.00	21.50	21.40	946.0	81.0	80.0	421.0	27.3	340.00	14.20	60.00	13.40	59733	8774.0	27.3	27.3	1581532202	3.38	6.26
12/02/2020 18:30:03	120220	12022020	183003	79.59	12.418700	-56.734318	79.53	0.840	-2.430	-0.610	79.59	-3.90	-0.20	 	 	 	 	 	 	 	 	 	 	 	 	 	 	 	 	 	 	1581532203	2.80	5.19
12/02/2020 18:30:04	120220	12022020	183004	79.36	12.418698	-56.734312	79.35	0.670	-1.000	0.010	79.36	-2.70	0.40	 	 	 	 	 	 	 	 	 	 	 	 	 	 	 	 	 	 	1581532204	1.35	2.50
12/02/2020 18:30:05	120220	12022020	183005	79.49	12.418697	-56.734312	79.52	0.240	0.840	0.580	79.49	-0.80	1.00	 	 	 	 	 	 	 	 	 	 	 	 	 	 	 	 	 	 	1581532205	0.64	1.19
12/02/2020 18:30:06	120220	12022020	183006	79.98	12.418695	-56.734308	80.03	-0.120	1.870	0.840	79.98	0.40	1.30	 	 	 	 	 	 	 	 	 	 	 	 	 	 	 	 	 	 	1581532206	0.58	1.07
12/02/2020 18:30:07	120220	12022020	183007	80.37	12.418695	-56.734302	80.47	-0.280	1.700	1.040	80.37	0.30	1.50	 	 	 	 	 	 	 	 	 	 	 	 	 	 	 	 	 	 	1581532207	1.45	2.69
12/02/2020 18:30:08	120220	12022020	183008	80.53	12.418693	-56.734292	80.54	-0.450	0.810	1.440	80.53	-0.50	1.90	 	 	 	 	 	 	 	 	 	 	 	 	 	 	 	 	 	 	1581532208	2.26	4.19
12/02/2020 18:30:09	120220	12022020	183009	80.34	12.418690	-56.734280	80.36	-0.680	-0.270	1.990	80.34	-1.50	2.40	 	 	 	 	 	 	 	 	 	 	 	 	 	 	 	 	 	 	1581532209	2.41	4.46
12/02/2020 18:30:10	120220	12022020	183010	80.22	12.418690	-56.734270	80.29	-0.690	-1.260	2.260	80.22	-2.50	2.70	 	 	 	 	 	 	 	 	 	 	 	 	 	 	 	 	 	 	1581532210	2.21	4.09
12/02/2020 18:30:11	120220	12022020	183011	80.44	12.418692	-56.734260	80.50	-0.220	-1.920	1.990	80.44	-3.30	2.50	 	 	 	 	 	 	 	 	 	 	 	 	 	 	 	 	 	 	1581532211	2.14	3.96
12/02/2020 18:30:12	120220	12022020	183012	80.57	12.418693	-56.734250	80.59	0.480	-1.820	1.710	80.57	-3.30	2.20	 	 	 	 	 	 	 	 	 	 	 	 	 	 	 	 	 	 	1581532212	1.99	3.69
12/02/2020 18:30:13	120220	12022020	183013	80.35	12.418693	-56.734243	80.35	0.830	-0.830	1.510	80.35	-2.40	2.00	 	 	 	 	 	 	 	 	 	 	 	 	 	 	 	 	 	 	1581532213	1.36	2.52
12/02/2020 18:30:14	120220	12022020	183014	80.11	12.418695	-56.734240	80.11	0.630	0.360	1.130	80.11	-1.20	1.70	 	 	 	 	 	 	 	 	 	 	 	 	 	 	 	 	 	 	1581532214	0.88	1.63
12/02/2020 18:30:15	120220	12022020	183015	80.20	12.418698	-56.734235	80.21	0.210	0.830	0.360	80.20	-0.60	1.00	 	 	 	 	 	 	 	 	 	 	 	 	 	 	 	 	 	 	1581532215	1.33	2.46
12/02/2020 18:30:16	120220	12022020	183016	80.48	12.418705	-56.734227	80.47	0.060	0.420	-0.450	80.48	-0.90	0.10	 	 	 	 	 	 	 	 	 	 	 	 	 	 	 	 	 	 	1581532216	2.37	4.39
12/02/2020 18:30:17	120220	12022020	183017	80.67	12.418712	-56.734215	80.65	0.110	-0.100	-0.940	80.67	-1.50	-0.40	 	 	 	 	 	 	 	 	 	 	 	 	 	 	 	 	 	 	1581532217	2.84	5.26
12/02/2020 18:30:18	120220	12022020	183018	80.90	12.418715	-56.734205	80.90	-0.060	0.080	-1.070	80.90	-1.40	-0.60	 	 	 	 	 	 	 	 	 	 	 	 	 	 	 	 	 	 	1581532218	2.16	4.00
12/02/2020 18:30:19	120220	12022020	183019	81.10	12.418715	-56.734200	81.12	-0.530	0.660	-0.620	81.10	-0.80	-0.20	 	 	 	 	 	 	 	 	 	 	 	 	 	 	 	 	 	 	1581532219	1.06	1.96
12/02/2020 18:30:20	120220	12022020	183020	81.09	12.418710	-56.734195	81.06	-0.870	0.730	0.490	81.09	-0.70	0.80	 	 	 	 	 	 	 	 	 	 	 	 	 	 	 	 	 	 	1581532220	1.54	2.85
12/02/2020 18:30:21	120220	12022020	183021	80.66	12.418703	-56.734185	80.63	-0.660	-0.210	1.900	80.66	-1.50	2.20	 	 	 	 	 	 	 	 	 	 	 	 	 	 	 	 	 	 	1581532221	2.65	4.91
12/02/2020 18:30:22	120220	12022020	183022	80.25	12.418698	-56.734172	80.28	0.030	-1.510	2.790	80.25	-2.80	3.20	 	 	 	 	 	 	 	 	 	 	 	 	 	 	 	 	 	 	1581532222	3.20	5.93
12/02/2020 18:30:23	120220	12022020	183023	80.23	12.418698	-56.734157	80.28	0.690	-2.130	3.040	80.23	-3.50	3.50	 	 	 	 	 	 	 	 	 	 	 	 	 	 	 	 	 	 	1581532223	2.93	5.43
12/02/2020 18:30:24	120220	12022020	183024	80.59	12.418700	-56.734147	80.66	0.890	-1.600	2.800	80.59	-3.20	3.30	 	 	 	 	 	 	 	 	 	 	 	 	 	 	 	 	 	 	1581532224	2.09	3.87
12/02/2020 18:30:25	120220	12022020	183025	80.98	12.418703	-56.734142	81.03	0.640	-0.410	2.250	80.98	-2.00	2.80	 	 	 	 	 	 	 	 	 	 	 	 	 	 	 	 	 	 	1581532225	1.35	2.50
12/02/2020 18:30:26	120220	12022020	183026	81.08	12.418705	-56.734137	81.05	0.170	0.770	1.590	81.08	-0.80	2.20	 	 	 	 	 	 	 	 	 	 	 	 	 	 	 	 	 	 	1581532226	1.16	2.15
12/02/2020 18:30:27	120220	12022020	183027	80.90	12.418708	-56.734132	80.87	-0.300	1.550	0.900	80.90	0.00	1.50	 	 	 	 	 	 	 	 	 	 	 	 	 	 	 	 	 	 	1581532227	1.31	2.43
12/02/2020 18:30:28	120220	12022020	183028	80.79	12.418713	-56.734125	80.78	-0.590	1.580	0.150	80.79	0.20	0.80	 	 	 	 	 	 	 	 	 	 	 	 	 	 	 	 	 	 	1581532228	1.61	2.98
12/02/2020 18:30:29	120220	12022020	183029	80.76	12.418717	-56.734117	80.73	-0.610	0.800	-0.470	80.76	-0.50	0.10	 	 	 	 	 	 	 	 	 	 	 	 	 	 	 	 	 	 	1581532229	2.15	3.98
12/02/2020 18:30:30	120220	12022020	183030	80.66	12.418722	-56.734105	80.62	-0.470	-0.380	-0.810	80.66	-1.70	-0.30	 	 	 	 	 	 	 	 	 	 	 	 	 	 	 	 	 	 	1581532230	2.56	4.74
12/02/2020 18:30:31	120220	12022020	183031	80.51	12.418725	-56.734093	80.41	-0.260	-1.400	-0.820	80.51	-2.70	-0.30	 	 	 	 	 	 	 	 	 	 	 	 	 	 	 	 	 	 	1581532231	2.57	4.76
12/02/2020 18:30:32	120220	12022020	183032	80.28	12.418725	-56.734082	80.24	0.020	-1.900	-0.580	80.28	-3.30	-0.10	 	 	 	 	 	 	 	 	 	 	 	 	 	 	 	 	 	 	1581532232	2.34	4.33
12/02/2020 18:30:33	120220	12022020	183033	80.22	12.418725	-56.734072	80.22	0.400	-1.790	-0.150	80.22	-3.30	0.30	 	 	 	 	 	 	 	 	 	 	 	 	 	 	 	 	 	 	1581532233	2.06	3.82
12/02/2020 18:30:34	120220	12022020	183034	80.22	12.418723	-56.734063	80.23	0.780	-1.170	0.460	80.22	-2.70	0.90	 	 	 	 	 	 	 	 	 	 	 	 	 	 	 	 	 	 	1581532234	1.94	3.59
12/02/2020 18:30:35	120220	12022020	183035	80.24	12.418722	-56.734055	80.27	0.850	-0.030	1.100	80.24	-1.60	1.50	 	 	 	 	 	 	 	 	 	 	 	 	 	 	 	 	 	 	1581532235	1.70	3.15
12/02/2020 18:30:36	120220	12022020	183036	80.40	12.418720	-56.734050	80.47	0.390	1.300	1.780	80.40	-0.30	2.20	 	 	 	 	 	 	 	 	 	 	 	 	 	 	 	 	 	 	1581532236	1.29	2.39
12/02/2020 18:30:37	120220	12022020	183037	80.55	12.418715	-56.734045	80.63	-0.370	1.960	2.420	80.55	0.50	2.80	 	 	 	 	 	 	 	 	 	 	 	 	 	 	 	 	 	 	1581532237	1.35	2.50
12/02/2020 18:30:38	120220	12022020	183038	80.54	12.418713	-56.734037	80.61	-0.880	1.290	2.760	80.54	0.00	3.20	 	 	 	 	 	 	 	 	 	 	 	 	 	 	 	 	 	 	1581532238	1.90	3.52
12/02/2020 18:30:39	120220	12022020	183039	80.42	12.418712	-56.734023	80.49	-0.880	-0.150	2.660	80.42	-1.40	3.20	 	 	 	 	 	 	 	 	 	 	 	 	 	 	 	 	 	 	1581532239	2.68	4.96
12/02/2020 18:30:40	120220	12022020	183040	80.24	12.418713	-56.734012	80.27	-0.500	-1.310	2.340	80.24	-2.60	2.90	 	 	 	 	 	 	 	 	 	 	 	 	 	 	 	 	 	 	1581532240	2.70	5.00
12/02/2020 18:30:41	120220	12022020	183041	80.01	12.418717	-56.734002	80.03	0.070	-1.660	1.870	80.01	-3.10	2.40	 	 	 	 	 	 	 	 	 	 	 	 	 	 	 	 	 	 	1581532241	2.08	3.85
12/02/2020 18:30:42	120220	12022020	183042	79.88	12.418720	-56.733995	79.89	0.630	-1.460	1.180	79.88	-2.90	1.80	 	 	 	 	 	 	 	 	 	 	 	 	 	 	 	 	 	 	1581532242	1.69	3.13
12/02/2020 18:30:43	120220	12022020	183043	79.90	12.418727	-56.733988	79.92	0.960	-1.040	0.270	79.90	-2.50	0.90	 	 	 	 	 	 	 	 	 	 	 	 	 	 	 	 	 	 	1581532243	1.97	3.65
12/02/2020 18:30:44	120220	12022020	183044	80.09	12.418735	-56.733982	80.10	0.830	-0.390	-0.590	80.09	-1.90	0.00	 	 	 	 	 	 	 	 	 	 	 	 	 	 	 	 	 	 	1581532244	2.07	3.83
12/02/2020 18:30:45	120220	12022020	183045	80.33	12.418738	-56.733977	80.37	0.190	0.620	-1.010	80.33	-1.00	-0.50	 	 	 	 	 	 	 	 	 	 	 	 	 	 	 	 	 	 	1581532245	1.42	2.63
12/02/2020 18:30:46	120220	12022020	183046	80.49	12.418737	-56.733972	80.44	-0.630	1.550	-0.710	80.49	0.00	-0.30	 	 	 	 	 	 	 	 	 	 	 	 	 	 	 	 	 	 	1581532246	0.82	1.52
12/02/2020 18:30:47	120220	12022020	183047	80.22	12.418733	-56.733967	80.17	-1.120	1.550	0.130	80.22	0.20	0.50	 	 	 	 	 	 	 	 	 	 	 	 	 	 	 	 	 	 	1581532247	1.40	2.59
12/02/2020 18:30:48	120220	12022020	183048	79.90	12.418728	-56.733957	79.89	-0.980	0.270	0.850	79.90	-1.00	1.30	 	 	 	 	 	 	 	 	 	 	 	 	 	 	 	 	 	 	1581532248	2.29	4.24
12/02/2020 18:30:49	120220	12022020	183049	79.85	12.418727	-56.733942	79.89	-0.260	-1.470	1.180	79.85	-2.70	1.60	 	 	 	 	 	 	 	 	 	 	 	 	 	 	 	 	 	 	1581532249	3.09	5.72
12/02/2020 18:30:50	120220	12022020	183050	79.90	12.418727	-56.733928	79.93	0.550	-2.220	1.530	79.90	-3.70	1.90	 	 	 	 	 	 	 	 	 	 	 	 	 	 	 	 	 	 	1581532250	2.88	5.33
12/02/2020 18:30:51	120220	12022020	183051	79.82	12.418727	-56.733922	79.84	0.830	-1.410	1.820	79.82	-3.00	2.30	 	 	 	 	 	 	 	 	 	 	 	 	 	 	 	 	 	 	1581532251	1.54	2.85
12/02/2020 18:30:52	120220	12022020	183052	79.59	12.418727	-56.733920	79.59	0.520	0.040	1.800	79.59	-1.60	2.30	 	 	 	 	 	 	 	 	 	 	 	 	 	 	 	 	 	 	1581532252	0.33	0.61
12/02/2020 18:30:53	120220	12022020	183053	79.30	12.418728	-56.733918	79.29	0.050	0.850	1.420	79.30	-0.70	2.00	 	 	 	 	 	 	 	 	 	 	 	 	 	 	 	 	 	 	1581532253	0.57	1.06
12/02/2020 18:30:54	120220	12022020	183054	79.10	12.418732	-56.733912	79.09	-0.170	0.680	0.790	79.10	-0.70	1.40	 	 	 	 	 	 	 	 	 	 	 	 	 	 	 	 	 	 	1581532254	1.59	2.94
12/02/2020 18:30:55	120220	12022020	183055	79.03	12.418737	-56.733903	79.01	-0.150	0.180	0.230	79.03	-1.20	0.80	 	 	 	 	 	 	 	 	 	 	 	 	 	 	 	 	 	 	1581532255	2.17	4.02
12/02/2020 18:30:56	120220	12022020	183056	79.01	12.418740	-56.733895	79.01	-0.120	-0.160	-0.020	79.01	-1.60	0.50	 	 	 	 	 	 	 	 	 	 	 	 	 	 	 	 	 	 	1581532256	1.94	3.59
12/02/2020 18:30:57	120220	12022020	183057	79.03	12.418742	-56.733888	79.04	-0.210	-0.250	-0.080	79.03	-1.70	0.40	 	 	 	 	 	 	 	 	 	 	 	 	 	 	 	 	 	 	1581532257	1.50	2.78
12/02/2020 18:30:58	120220	12022020	183058	79.06	12.418742	-56.733882	79.05	-0.280	-0.340	-0.130	79.06	-1.80	0.40	 	 	 	 	 	 	 	 	 	 	 	 	 	 	 	 	 	 	1581532258	1.37	2.54
12/02/2020 18:30:59	120220	12022020	183059	78.98	12.418742	-56.733873	78.96	-0.120	-0.600	0.080	78.98	-2.00	0.50	 	 	 	 	 	 	 	 	 	 	 	 	 	 	 	 	 	 	1581532259	1.62	3.00
12/02/2020 18:31:00	120220	12022020	183100	78.71	12.418740	-56.733865	78.69	0.230	-0.880	0.730	78.71	-2.30	1.10	 	 	 	 	 	 	 	 	 	 	 	 	 	 	 	 	 	 	1581532260	1.95	3.61
12/02/2020 18:31:01	120220	12022020	183101	78.31	12.418738	-56.733855	78.29	0.430	-0.800	1.570	78.31	-2.30	1.90	 	 	 	 	 	 	 	 	 	 	 	 	 	 	 	 	 	 	1581532261	1.95	3.61
12/02/2020 18:31:02	120220	12022020	183102	78.09	12.418738	-56.733848	78.11	0.290	-0.190	2.050	78.09	-1.70	2.50	1014.80	24.90	25.00	21.00	21.10	788.0	78.0	78.0	427.0	27.3	341.00	14.00	60.00	13.10	52205	11642.0	27.4	27.4	1581532262	1.44	2.67
12/02/2020 18:31:03	120220	12022020	183103	78.31	12.418738	-56.733845	78.36	-0.100	0.690	1.950	78.31	-0.90	2.50	 	 	 	 	 	 	 	 	 	 	 	 	 	 	 	 	 	 	1581532263	0.76	1.41
12/02/2020 18:31:04	120220	12022020	183104	78.82	12.418740	-56.733842	78.88	-0.400	1.090	1.530	78.82	-0.40	2.10	 	 	 	 	 	 	 	 	 	 	 	 	 	 	 	 	 	 	1581532264	0.63	1.17
12/02/2020 18:31:05	120220	12022020	183105	79.33	12.418742	-56.733837	79.38	-0.280	0.410	1.240	79.33	-0.90	1.70	 	 	 	 	 	 	 	 	 	 	 	 	 	 	 	 	 	 	1581532265	1.38	2.56
12/02/2020 18:31:06	120220	12022020	183106	79.63	12.418745	-56.733825	79.67	0.130	-0.870	1.190	79.63	-2.20	1.70	 	 	 	 	 	 	 	 	 	 	 	 	 	 	 	 	 	 	1581532266	2.44	4.52
12/02/2020 18:31:07	120220	12022020	183107	79.62	12.418747	-56.733813	79.62	0.380	-1.470	1.330	79.62	-2.90	1.80	 	 	 	 	 	 	 	 	 	 	 	 	 	 	 	 	 	 	1581532267	2.43	4.50
12/02/2020 18:31:08	120220	12022020	183108	79.49	12.418747	-56.733807	79.53	0.220	-0.980	1.570	79.49	-2.50	2.00	 	 	 	 	 	 	 	 	 	 	 	 	 	 	 	 	 	 	1581532268	1.37	2.54
12/02/2020 18:31:09	120220	12022020	183109	79.48	12.418745	-56.733805	79.55	-0.110	-0.130	1.830	79.48	-1.70	2.30	 	 	 	 	 	 	 	 	 	 	 	 	 	 	 	 	 	 	1581532269	0.68	1.26
12/02/2020 18:31:10	120220	12022020	183110	79.53	12.418743	-56.733802	79.58	-0.170	0.200	2.020	79.53	-1.30	2.50	 	 	 	 	 	 	 	 	 	 	 	 	 	 	 	 	 	 	1581532270	0.79	1.46
12/02/2020 18:31:11	120220	12022020	183111	79.62	12.418745	-56.733793	79.67	0.100	-0.020	1.940	79.62	-1.40	2.50	 	 	 	 	 	 	 	 	 	 	 	 	 	 	 	 	 	 	1581532271	1.54	2.85
12/02/2020 18:31:12	120220	12022020	183112	79.84	12.418748	-56.733787	79.88	0.280	-0.090	1.470	79.84	-1.50	2.00	 	 	 	 	 	 	 	 	 	 	 	 	 	 	 	 	 	 	1581532272	1.79	3.32
12/02/2020 18:31:13	120220	12022020	183113	80.18	12.418753	-56.733782	80.21	0.100	0.230	0.810	80.18	-1.30	1.40	 	 	 	 	 	 	 	 	 	 	 	 	 	 	 	 	 	 	1581532273	1.40	2.59
12/02/2020 18:31:14	120220	12022020	183114	80.54	12.418758	-56.733780	80.56	-0.260	0.480	0.270	80.54	-1.00	0.80	 	 	 	 	 	 	 	 	 	 	 	 	 	 	 	 	 	 	1581532274	1.04	1.93
12/02/2020 18:31:15	120220	12022020	183115	80.79	12.418762	-56.733775	80.80	-0.440	0.110	0.110	80.79	-1.30	0.60	 	 	 	 	 	 	 	 	 	 	 	 	 	 	 	 	 	 	1581532275	1.14	2.11
12/02/2020 18:31:16	120220	12022020	183116	80.90	12.418762	-56.733767	80.90	-0.320	-0.630	0.400	80.90	-2.00	0.80	 	 	 	 	 	 	 	 	 	 	 	 	 	 	 	 	 	 	1581532276	1.69	3.13
12/02/2020 18:31:17	120220	12022020	183117	80.99	12.418762	-56.733758	81.02	-0.030	-1.060	0.820	80.99	-2.50	1.20	 	 	 	 	 	 	 	 	 	 	 	 	 	 	 	 	 	 	1581532277	1.76	3.26
12/02/2020 18:31:18	120220	12022020	183118	81.23	12.418760	-56.733753	81.28	0.280	-1.000	1.160	81.23	-2.50	1.60	 	 	 	 	 	 	 	 	 	 	 	 	 	 	 	 	 	 	1581532278	1.37	2.54
12/02/2020 18:31:19	120220	12022020	183119	81.41	12.418758	-56.733748	81.48	0.480	-0.640	1.540	81.41	-2.10	1.90	 	 	 	 	 	 	 	 	 	 	 	 	 	 	 	 	 	 	1581532279	1.12	2.07
12/02/2020 18:31:20	120220	12022020	183120	81.44	12.418757	-56.733743	81.48	0.410	-0.090	1.960	81.44	-1.60	2.40	 	 	 	 	 	 	 	 	 	 	 	 	 	 	 	 	 	 	1581532280	1.03	1.91
12/02/2020 18:31:21	120220	12022020	183121	81.33	12.418757	-56.733740	81.31	0.000	0.540	2.230	81.33	-1.00	2.70	 	 	 	 	 	 	 	 	 	 	 	 	 	 	 	 	 	 	1581532281	0.70	1.30
12/02/2020 18:31:22	120220	12022020	183122	81.21	12.418758	-56.733737	81.23	-0.490	0.830	2.230	81.21	-0.60	2.70	 	 	 	 	 	 	 	 	 	 	 	 	 	 	 	 	 	 	1581532282	0.64	1.19
12/02/2020 18:31:23	120220	12022020	183123	81.30	12.418760	-56.733733	81.38	-0.700	0.540	1.850	81.30	-0.80	2.40	 	 	 	 	 	 	 	 	 	 	 	 	 	 	 	 	 	 	1581532283	1.08	2.00
12/02/2020 18:31:24	120220	12022020	183124	81.77	12.418765	-56.733727	81.82	-0.490	-0.140	1.180	81.77	-1.50	1.80	 	 	 	 	 	 	 	 	 	 	 	 	 	 	 	 	 	 	1581532284	1.61	2.98
12/02/2020 18:31:25	120220	12022020	183125	82.37	12.418770	-56.733720	82.41	-0.070	-0.870	0.540	82.37	-2.20	1.10	 	 	 	 	 	 	 	 	 	 	 	 	 	 	 	 	 	 	1581532285	1.75	3.24
12/02/2020 18:31:26	120220	12022020	183126	82.78	12.418773	-56.733713	82.77	0.340	-1.260	0.210	82.78	-2.70	0.70	 	 	 	 	 	 	 	 	 	 	 	 	 	 	 	 	 	 	1581532286	1.51	2.80
12/02/2020 18:31:27	120220	12022020	183127	82.77	12.418773	-56.733708	82.74	0.630	-1.100	0.330	82.77	-2.60	0.80	 	 	 	 	 	 	 	 	 	 	 	 	 	 	 	 	 	 	1581532287	1.14	2.11
12/02/2020 18:31:28	120220	12022020	183128	82.61	12.418773	-56.733705	82.60	0.670	-0.360	0.730	82.61	-1.90	1.10	 	 	 	 	 	 	 	 	 	 	 	 	 	 	 	 	 	 	1581532288	0.75	1.39
12/02/2020 18:31:29	120220	12022020	183129	82.54	12.418772	-56.733703	82.55	0.340	0.400	1.180	82.54	-1.10	1.60	 	 	 	 	 	 	 	 	 	 	 	 	 	 	 	 	 	 	1581532289	0.54	1.00
12/02/2020 18:31:30	120220	12022020	183130	82.64	12.418772	-56.733700	82.67	-0.190	0.640	1.460	82.64	-0.80	1.90	 	 	 	 	 	 	 	 	 	 	 	 	 	 	 	 	 	 	1581532290	0.64	1.19
12/02/2020 18:31:31	120220	12022020	183131	82.86	12.418772	-56.733695	82.89	-0.580	0.390	1.570	82.86	-1.00	2.00	 	 	 	 	 	 	 	 	 	 	 	 	 	 	 	 	 	 	1581532291	1.05	1.94
12/02/2020 18:31:32	120220	12022020	183132	83.06	12.418775	-56.733690	83.09	-0.660	0.110	1.470	83.06	-1.30	2.00	 	 	 	 	 	 	 	 	 	 	 	 	 	 	 	 	 	 	1581532292	1.17	2.17
12/02/2020 18:31:33	120220	12022020	183133	83.23	12.418777	-56.733685	83.32	-0.460	-0.100	1.110	83.23	-1.50	1.60	 	 	 	 	 	 	 	 	 	 	 	 	 	 	 	 	 	 	1581532293	1.06	1.96
12/02/2020 18:31:34	120220	12022020	183134	83.64	12.418780	-56.733682	83.67	-0.090	-0.420	0.770	83.64	-1.80	1.30	 	 	 	 	 	 	 	 	 	 	 	 	 	 	 	 	 	 	1581532294	1.05	1.94
12/02/2020 18:31:35	120220	12022020	183135	84.01	12.418782	-56.733677	84.12	0.340	-0.950	0.630	84.01	-2.30	1.10	 	 	 	 	 	 	 	 	 	 	 	 	 	 	 	 	 	 	1581532295	1.26	2.33
12/02/2020 18:31:36	120220	12022020	183136	84.49	12.418782	-56.733668	84.50	0.560	-1.270	0.750	84.49	-2.70	1.20	 	 	 	 	 	 	 	 	 	 	 	 	 	 	 	 	 	 	1581532296	1.60	2.96
12/02/2020 18:31:37	120220	12022020	183137	84.79	12.418780	-56.733663	84.81	0.370	-0.830	0.920	84.79	-2.40	1.40	 	 	 	 	 	 	 	 	 	 	 	 	 	 	 	 	 	 	1581532297	1.26	2.33
12/02/2020 18:31:38	120220	12022020	183138	84.98	12.418778	-56.733662	84.97	-0.060	0.200	0.970	84.98	-1.40	1.40	 	 	 	 	 	 	 	 	 	 	 	 	 	 	 	 	 	 	1581532298	0.47	0.87
12/02/2020 18:31:39	120220	12022020	183139	84.92	12.418778	-56.733662	84.91	-0.370	0.970	1.060	84.92	-0.50	1.50	 	 	 	 	 	 	 	 	 	 	 	 	 	 	 	 	 	 	1581532299	0.07	0.13
12/02/2020 18:31:40	120220	12022020	183140	84.73	12.418778	-56.733658	84.72	-0.360	0.970	1.190	84.73	-0.40	1.60	 	 	 	 	 	 	 	 	 	 	 	 	 	 	 	 	 	 	1581532300	0.51	0.94
12/02/2020 18:31:41	120220	12022020	183141	84.57	12.418780	-56.733653	84.56	-0.160	0.250	1.090	84.57	-1.10	1.60	 	 	 	 	 	 	 	 	 	 	 	 	 	 	 	 	 	 	1581532301	1.26	2.33
12/02/2020 18:31:42	120220	12022020	183142	84.46	12.418785	-56.733647	84.45	0.000	-0.630	0.740	84.46	-2.00	1.30	 	 	 	 	 	 	 	 	 	 	 	 	 	 	 	 	 	 	1581532302	1.77	3.28
12/02/2020 18:31:43	120220	12022020	183143	84.47	12.418788	-56.733640	84.46	-0.050	-0.940	0.350	84.47	-2.40	0.90	 	 	 	 	 	 	 	 	 	 	 	 	 	 	 	 	 	 	1581532303	1.67	3.09
12/02/2020 18:31:44	120220	12022020	183144	84.75	12.418792	-56.733637	84.77	-0.290	-0.510	0.040	84.75	-2.00	0.60	 	 	 	 	 	 	 	 	 	 	 	 	 	 	 	 	 	 	1581532304	0.87	1.61
12/02/2020 18:31:45	120220	12022020	183145	85.27	12.418793	-56.733637	85.29	-0.380	-0.140	-0.160	85.27	-1.60	0.30	 	 	 	 	 	 	 	 	 	 	 	 	 	 	 	 	 	 	1581532305	0.24	0.44
12/02/2020 18:31:46	120220	12022020	183146	85.67	12.418792	-56.733632	85.68	-0.050	-0.410	-0.090	85.67	-1.80	0.30	 	 	 	 	 	 	 	 	 	 	 	 	 	 	 	 	 	 	1581532306	0.85	1.57
12/02/2020 18:31:47	120220	12022020	183147	85.67	12.418790	-56.733625	85.65	0.500	-0.830	0.420	85.67	-2.20	0.80	 	 	 	 	 	 	 	 	 	 	 	 	 	 	 	 	 	 	1581532307	1.65	3.06
12/02/2020 18:31:48	120220	12022020	183148	85.30	12.418785	-56.733618	85.27	0.790	-0.780	1.270	85.30	-2.30	1.60	 	 	 	 	 	 	 	 	 	 	 	 	 	 	 	 	 	 	1581532308	1.74	3.22
12/02/2020 18:31:49	120220	12022020	183149	84.83	12.418780	-56.733613	84.80	0.630	-0.340	2.070	84.83	-1.90	2.40	 	 	 	 	 	 	 	 	 	 	 	 	 	 	 	 	 	 	1581532309	1.53	2.83
12/02/2020 18:31:50	120220	12022020	183150	84.37	12.418777	-56.733610	84.34	0.160	0.200	2.390	84.37	-1.30	2.80	 	 	 	 	 	 	 	 	 	 	 	 	 	 	 	 	 	 	1581532310	1.06	1.96
12/02/2020 18:31:51	120220	12022020	183151	84.07	12.418777	-56.733607	84.03	-0.380	0.780	2.140	84.07	-0.80	2.70	 	 	 	 	 	 	 	 	 	 	 	 	 	 	 	 	 	 	1581532311	0.54	1.00
12/02/2020 18:31:52	120220	12022020	183152	84.00	12.418780	-56.733607	83.96	-0.870	1.240	1.440	84.00	-0.30	2.00	 	 	 	 	 	 	 	 	 	 	 	 	 	 	 	 	 	 	1581532312	0.82	1.52
12/02/2020 18:31:53	120220	12022020	183153	84.14	12.418787	-56.733607	84.11	-1.090	1.120	0.400	84.14	-0.30	1.00	 	 	 	 	 	 	 	 	 	 	 	 	 	 	 	 	 	 	1581532313	1.36	2.52
12/02/2020 18:31:54	120220	12022020	183154	84.38	12.418793	-56.733605	84.33	-0.860	0.250	-0.600	84.38	-1.10	-0.00	 	 	 	 	 	 	 	 	 	 	 	 	 	 	 	 	 	 	1581532314	1.56	2.89
12/02/2020 18:31:55	120220	12022020	183155	84.58	12.418798	-56.733598	84.53	-0.150	-1.140	-1.180	84.58	-2.40	-0.70	 	 	 	 	 	 	 	 	 	 	 	 	 	 	 	 	 	 	1581532315	1.54	2.85
12/02/2020 18:31:56	120220	12022020	183156	84.62	12.418798	-56.733590	84.56	0.760	-2.470	-1.150	84.62	-3.80	-0.70	 	 	 	 	 	 	 	 	 	 	 	 	 	 	 	 	 	 	1581532316	1.87	3.46
12/02/2020 18:31:57	120220	12022020	183157	84.34	12.418793	-56.733582	84.27	1.370	-2.820	-0.500	84.34	-4.30	-0.10	 	 	 	 	 	 	 	 	 	 	 	 	 	 	 	 	 	 	1581532317	2.09	3.87
12/02/2020 18:31:58	120220	12022020	183158	83.91	12.418788	-56.733577	83.86	1.260	-1.680	0.330	83.91	-3.40	0.70	 	 	 	 	 	 	 	 	 	 	 	 	 	 	 	 	 	 	1581532318	1.48	2.74
12/02/2020 18:31:59	120220	12022020	183159	83.61	12.418783	-56.733578	83.53	0.550	0.340	1.070	83.61	-1.40	1.40	 	 	 	 	 	 	 	 	 	 	 	 	 	 	 	 	 	 	1581532319	1.00	1.85
12/02/2020 18:32:00	120220	12022020	183200	83.37	12.418780	-56.733582	83.38	-0.310	2.080	1.550	83.37	0.40	2.00	 	 	 	 	 	 	 	 	 	 	 	 	 	 	 	 	 	 	1581532320	1.05	1.94
12/02/2020 18:32:01	120220	12022020	183201	83.36	12.418778	-56.733583	83.38	-0.930	2.760	1.680	83.36	1.30	2.10	 	 	 	 	 	 	 	 	 	 	 	 	 	 	 	 	 	 	1581532321	0.54	1.00
12/02/2020 18:32:02	120220	12022020	183202	83.44	12.418780	-56.733582	83.45	-1.160	2.220	1.520	83.44	0.90	2.00	1014.80	25.00	25.10	20.70	20.80	652.0	77.0	77.0	428.0	27.2	336.00	14.00	57.00	13.40	45558	9321.0	27.4	27.3	1581532322	0.31	0.57
12/02/2020 18:32:03	120220	12022020	183203	83.64	12.418782	-56.733578	83.66	-0.990	0.730	1.130	83.64	-0.50	1.70	 	 	 	 	 	 	 	 	 	 	 	 	 	 	 	 	 	 	1581532323	0.99	1.83
12/02/2020 18:32:04	120220	12022020	183204	83.88	12.418785	-56.733572	83.88	-0.530	-1.240	0.750	83.88	-2.40	1.30	 	 	 	 	 	 	 	 	 	 	 	 	 	 	 	 	 	 	1581532324	1.43	2.65
12/02/2020 18:32:05	120220	12022020	183205	83.85	12.418783	-56.733563	83.83	0.110	-2.940	0.780	83.85	-4.20	1.20	 	 	 	 	 	 	 	 	 	 	 	 	 	 	 	 	 	 	1581532325	1.68	3.11
12/02/2020 18:32:06	120220	12022020	183206	83.45	12.418782	-56.733557	83.42	0.810	-3.620	1.190	83.45	-5.10	1.60	 	 	 	 	 	 	 	 	 	 	 	 	 	 	 	 	 	 	1581532326	1.68	3.11
12/02/2020 18:32:07	120220	12022020	183207	83.05	12.418778	-56.733552	83.04	1.370	-2.760	1.500	83.05	-4.40	1.90	 	 	 	 	 	 	 	 	 	 	 	 	 	 	 	 	 	 	1581532327	1.04	1.93
12/02/2020 18:32:08	120220	12022020	183208	82.87	12.418777	-56.733553	82.85	1.420	-0.600	1.520	82.87	-2.40	2.00	 	 	 	 	 	 	 	 	 	 	 	 	 	 	 	 	 	 	1581532328	0.44	0.81
12/02/2020 18:32:09	120220	12022020	183209	82.84	12.418777	-56.733558	82.85	0.780	1.760	1.200	82.84	0.00	1.70	 	 	 	 	 	 	 	 	 	 	 	 	 	 	 	 	 	 	1581532329	1.07	1.98
12/02/2020 18:32:10	120220	12022020	183210	82.92	12.418778	-56.733563	82.91	-0.320	3.100	0.610	82.92	1.50	1.20	 	 	 	 	 	 	 	 	 	 	 	 	 	 	 	 	 	 	1581532330	0.94	1.74
12/02/2020 18:32:11	120220	12022020	183211	82.92	12.418780	-56.733563	82.90	-1.340	2.910	0.030	82.92	1.50	0.60	 	 	 	 	 	 	 	 	 	 	 	 	 	 	 	 	 	 	1581532331	0.43	0.80
12/02/2020 18:32:12	120220	12022020	183212	82.81	12.418782	-56.733560	82.78	-1.680	1.340	-0.290	82.81	0.10	0.20	 	 	 	 	 	 	 	 	 	 	 	 	 	 	 	 	 	 	1581532332	0.84	1.56
12/02/2020 18:32:13	120220	12022020	183213	82.67	12.418783	-56.733553	82.62	-1.120	-0.850	-0.260	82.67	-2.00	0.20	 	 	 	 	 	 	 	 	 	 	 	 	 	 	 	 	 	 	1581532333	1.52	2.82
12/02/2020 18:32:14	120220	12022020	183214	82.58	12.418783	-56.733545	82.57	-0.020	-2.640	0.010	82.58	-3.90	0.40	 	 	 	 	 	 	 	 	 	 	 	 	 	 	 	 	 	 	1581532334	1.66	3.07
12/02/2020 18:32:15	120220	12022020	183215	82.63	12.418782	-56.733540	82.62	0.960	-3.210	0.310	82.63	-4.70	0.70	 	 	 	 	 	 	 	 	 	 	 	 	 	 	 	 	 	 	1581532335	1.17	2.17
12/02/2020 18:32:16	120220	12022020	183216	82.72	12.418780	-56.733538	82.70	1.340	-2.390	0.720	82.72	-4.00	1.10	 	 	 	 	 	 	 	 	 	 	 	 	 	 	 	 	 	 	1581532336	0.57	1.06
12/02/2020 18:32:17	120220	12022020	183217	82.63	12.418775	-56.733540	82.62	1.060	-0.590	1.500	82.63	-2.30	1.80	 	 	 	 	 	 	 	 	 	 	 	 	 	 	 	 	 	 	1581532337	1.10	2.04
12/02/2020 18:32:18	120220	12022020	183218	82.33	12.418770	-56.733543	82.33	0.430	1.210	2.440	82.33	-0.40	2.80	 	 	 	 	 	 	 	 	 	 	 	 	 	 	 	 	 	 	1581532338	1.54	2.85
12/02/2020 18:32:19	120220	12022020	183219	82.05	12.418765	-56.733545	82.08	-0.120	1.910	3.000	82.05	0.50	3.40	 	 	 	 	 	 	 	 	 	 	 	 	 	 	 	 	 	 	1581532339	1.05	1.94
12/02/2020 18:32:20	120220	12022020	183220	82.05	12.418763	-56.733540	82.09	-0.370	1.190	2.730	82.05	-0.10	3.30	 	 	 	 	 	 	 	 	 	 	 	 	 	 	 	 	 	 	1581532340	0.93	1.72
12/02/2020 18:32:21	120220	12022020	183221	82.24	12.418765	-56.733533	82.28	-0.420	-0.010	2.000	82.24	-1.30	2.60	 	 	 	 	 	 	 	 	 	 	 	 	 	 	 	 	 	 	1581532341	1.60	2.96
12/02/2020 18:32:22	120220	12022020	183222	82.35	12.418767	-56.733528	82.35	-0.520	-0.400	1.330	82.35	-1.90	1.90	 	 	 	 	 	 	 	 	 	 	 	 	 	 	 	 	 	 	1581532342	1.01	1.87
12/02/2020 18:32:23	120220	12022020	183223	82.29	12.418768	-56.733530	82.23	-0.670	0.050	0.740	82.29	-1.50	1.30	 	 	 	 	 	 	 	 	 	 	 	 	 	 	 	 	 	 	1581532343	0.63	1.17
12/02/2020 18:32:24	120220	12022020	183224	81.96	12.418772	-56.733535	81.91	-0.640	0.410	0.240	81.96	-1.00	0.80	 	 	 	 	 	 	 	 	 	 	 	 	 	 	 	 	 	 	1581532344	1.30	2.41
12/02/2020 18:32:25	120220	12022020	183225	81.63	12.418777	-56.733537	81.52	-0.150	-0.270	-0.240	81.63	-1.60	0.30	 	 	 	 	 	 	 	 	 	 	 	 	 	 	 	 	 	 	1581532345	1.08	2.00
12/02/2020 18:32:26	120220	12022020	183226	81.38	12.418782	-56.733532	81.38	0.700	-1.830	-0.650	81.38	-3.00	-0.10	 	 	 	 	 	 	 	 	 	 	 	 	 	 	 	 	 	 	1581532346	1.57	2.91
12/02/2020 18:32:27	120220	12022020	183227	81.60	12.418783	-56.733522	81.64	1.260	-2.740	-0.630	81.60	-4.10	-0.20	 	 	 	 	 	 	 	 	 	 	 	 	 	 	 	 	 	 	1581532347	1.93	3.57
12/02/2020 18:32:28	120220	12022020	183228	81.99	12.418780	-56.733518	82.01	1.120	-1.870	-0.080	81.99	-3.50	0.30	 	 	 	 	 	 	 	 	 	 	 	 	 	 	 	 	 	 	1581532348	1.15	2.13
12/02/2020 18:32:29	120220	12022020	183229	82.17	12.418773	-56.733522	82.17	0.560	0.140	0.630	82.17	-1.60	1.00	 	 	 	 	 	 	 	 	 	 	 	 	 	 	 	 	 	 	1581532349	1.58	2.93
12/02/2020 18:32:30	120220	12022020	183230	81.93	12.418768	-56.733527	81.92	-0.010	1.840	1.340	81.93	0.20	1.70	 	 	 	 	 	 	 	 	 	 	 	 	 	 	 	 	 	 	1581532350	1.65	3.06
12/02/2020 18:32:31	120220	12022020	183231	81.47	12.418765	-56.733530	81.47	-0.490	2.430	2.020	81.47	1.00	2.40	 	 	 	 	 	 	 	 	 	 	 	 	 	 	 	 	 	 	1581532351	0.89	1.65
12/02/2020 18:32:32	120220	12022020	183232	81.13	12.418763	-56.733530	81.16	-0.860	1.970	2.500	81.13	0.60	2.90	 	 	 	 	 	 	 	 	 	 	 	 	 	 	 	 	 	 	1581532352	0.44	0.81
12/02/2020 18:32:33	120220	12022020	183233	81.22	12.418763	-56.733528	81.30	-1.050	0.760	2.440	81.22	-0.50	3.00	 	 	 	 	 	 	 	 	 	 	 	 	 	 	 	 	 	 	1581532353	0.37	0.69
12/02/2020 18:32:34	120220	12022020	183234	81.68	12.418765	-56.733525	81.75	-0.910	-0.890	1.960	81.68	-2.10	2.50	 	 	 	 	 	 	 	 	 	 	 	 	 	 	 	 	 	 	1581532354	0.77	1.43
12/02/2020 18:32:35	120220	12022020	183235	82.09	12.418767	-56.733522	82.14	-0.350	-2.220	1.600	82.09	-3.50	2.10	 	 	 	 	 	 	 	 	 	 	 	 	 	 	 	 	 	 	1581532355	0.86	1.59
12/02/2020 18:32:36	120220	12022020	183236	82.13	12.418767	-56.733520	82.14	0.420	-2.550	1.620	82.13	-4.00	2.10	 	 	 	 	 	 	 	 	 	 	 	 	 	 	 	 	 	 	1581532356	0.44	0.81
12/02/2020 18:32:37	120220	12022020	183237	81.91	12.418763	-56.733520	81.82	1.040	-1.940	1.910	81.91	-3.50	2.30	 	 	 	 	 	 	 	 	 	 	 	 	 	 	 	 	 	 	1581532357	0.56	1.04
12/02/2020 18:32:38	120220	12022020	183238	81.53	12.418762	-56.733522	81.54	1.320	-0.960	2.190	81.53	-2.50	2.60	 	 	 	 	 	 	 	 	 	 	 	 	 	 	 	 	 	 	1581532358	0.63	1.17
12/02/2020 18:32:39	120220	12022020	183239	81.40	12.418762	-56.733523	81.43	1.190	-0.050	2.070	81.40	-1.60	2.60	 	 	 	 	 	 	 	 	 	 	 	 	 	 	 	 	 	 	1581532359	0.19	0.35
12/02/2020 18:32:40	120220	12022020	183240	81.60	12.418767	-56.733523	81.64	0.680	0.770	1.270	81.60	-0.80	1.90	 	 	 	 	 	 	 	 	 	 	 	 	 	 	 	 	 	 	1581532360	1.00	1.85
12/02/2020 18:32:41	120220	12022020	183241	82.10	12.418773	-56.733527	82.12	-0.120	1.580	0.220	82.10	0.00	0.90	 	 	 	 	 	 	 	 	 	 	 	 	 	 	 	 	 	 	1581532361	1.59	2.94
12/02/2020 18:32:42	120220	12022020	183242	82.58	12.418778	-56.733530	82.59	-0.980	2.030	-0.340	82.58	0.50	0.20	 	 	 	 	 	 	 	 	 	 	 	 	 	 	 	 	 	 	1581532362	1.36	2.52
12/02/2020 18:32:43	120220	12022020	183243	82.80	12.418777	-56.733533	82.79	-1.490	1.580	-0.070	82.80	0.20	0.30	 	 	 	 	 	 	 	 	 	 	 	 	 	 	 	 	 	 	1581532363	0.63	1.17
12/02/2020 18:32:44	120220	12022020	183244	82.72	12.418772	-56.733532	82.70	-1.320	0.170	0.690	82.72	-1.10	1.10	 	 	 	 	 	 	 	 	 	 	 	 	 	 	 	 	 	 	1581532364	1.05	1.94
12/02/2020 18:32:45	120220	12022020	183245	82.51	12.418767	-56.733528	82.52	-0.550	-1.600	1.410	82.51	-2.80	1.80	 	 	 	 	 	 	 	 	 	 	 	 	 	 	 	 	 	 	1581532365	1.53	2.83
12/02/2020 18:32:46	120220	12022020	183246	82.38	12.418763	-56.733523	82.38	0.400	-2.780	1.800	82.38	-4.10	2.20	 	 	 	 	 	 	 	 	 	 	 	 	 	 	 	 	 	 	1581532366	1.31	2.43
12/02/2020 18:32:47	120220	12022020	183247	82.32	12.418762	-56.733522	82.32	1.000	-2.600	2.070	82.32	-4.10	2.50	 	 	 	 	 	 	 	 	 	 	 	 	 	 	 	 	 	 	1581532367	0.45	0.83
12/02/2020 18:32:48	120220	12022020	183248	82.34	12.418762	-56.733525	82.35	0.950	-1.170	2.340	82.34	-2.80	2.80	 	 	 	 	 	 	 	 	 	 	 	 	 	 	 	 	 	 	1581532368	0.71	1.31
12/02/2020 18:32:49	120220	12022020	183249	82.48	12.418760	-56.733532	82.56	0.440	0.540	2.310	82.48	-1.10	2.80	 	 	 	 	 	 	 	 	 	 	 	 	 	 	 	 	 	 	1581532369	1.38	2.56
12/02/2020 18:32:50	120220	12022020	183250	82.82	12.418762	-56.733537	82.85	-0.070	1.440	1.800	82.82	-0.10	2.40	 	 	 	 	 	 	 	 	 	 	 	 	 	 	 	 	 	 	1581532370	1.09	2.02
12/02/2020 18:32:51	120220	12022020	183251	83.07	12.418763	-56.733537	83.07	-0.210	1.180	1.040	83.07	-0.20	1.60	 	 	 	 	 	 	 	 	 	 	 	 	 	 	 	 	 	 	1581532371	0.66	1.22
12/02/2020 18:32:52	120220	12022020	183252	83.16	12.418768	-56.733533	83.12	0.020	0.310	0.330	83.16	-1.00	0.90	 	 	 	 	 	 	 	 	 	 	 	 	 	 	 	 	 	 	1581532372	1.13	2.09
12/02/2020 18:32:53	120220	12022020	183253	83.02	12.418772	-56.733532	82.98	0.290	-0.320	0.010	83.02	-1.70	0.50	 	 	 	 	 	 	 	 	 	 	 	 	 	 	 	 	 	 	1581532373	0.98	1.81
12/02/2020 18:32:54	120220	12022020	183254	82.79	12.418773	-56.733532	82.74	0.220	-0.450	0.150	82.79	-1.90	0.60	 	 	 	 	 	 	 	 	 	 	 	 	 	 	 	 	 	 	1581532374	0.24	0.44
12/02/2020 18:32:55	120220	12022020	183255	82.60	12.418773	-56.733533	82.58	-0.270	-0.240	0.520	82.60	-1.70	1.00	 	 	 	 	 	 	 	 	 	 	 	 	 	 	 	 	 	 	1581532375	0.50	0.93
12/02/2020 18:32:56	120220	12022020	183256	82.63	12.418773	-56.733537	82.62	-0.870	0.040	0.790	82.63	-1.40	1.30	 	 	 	 	 	 	 	 	 	 	 	 	 	 	 	 	 	 	1581532376	0.80	1.48
12/02/2020 18:32:57	120220	12022020	183257	82.99	12.418772	-56.733542	83.01	-1.070	0.060	0.950	82.99	-1.40	1.40	 	 	 	 	 	 	 	 	 	 	 	 	 	 	 	 	 	 	1581532377	0.77	1.43
12/02/2020 18:32:58	120220	12022020	183258	83.42	12.418768	-56.733542	83.42	-0.640	-0.360	1.150	83.42	-1.70	1.60	 	 	 	 	 	 	 	 	 	 	 	 	 	 	 	 	 	 	1581532378	0.73	1.35
12/02/2020 18:32:59	120220	12022020	183259	83.58	12.418763	-56.733540	83.56	0.150	-0.870	1.660	83.58	-2.30	2.00	 	 	 	 	 	 	 	 	 	 	 	 	 	 	 	 	 	 	1581532379	1.18	2.19
12/02/2020 18:33:00	120220	12022020	183300	83.37	12.418757	-56.733538	83.33	0.790	-1.090	2.360	83.37	-2.50	2.70	 	 	 	 	 	 	 	 	 	 	 	 	 	 	 	 	 	 	1581532380	1.34	2.48
12/02/2020 18:33:01	120220	12022020	183301	83.08	12.418753	-56.733537	82.99	1.050	-0.980	2.710	83.08	-2.50	3.20	 	 	 	 	 	 	 	 	 	 	 	 	 	 	 	 	 	 	1581532381	0.75	1.39
12/02/2020 18:33:02	120220	12022020	183302	82.77	12.418757	-56.733537	82.76	0.980	-0.660	2.350	82.77	-2.20	2.90	1014.70	25.00	25.10	20.50	20.50	414.0	76.0	76.0	428.0	27.1	334.00	13.40	56.00	13.00	33872	10741.0	27.4	27.3	1581532382	0.46	0.85
12/02/2020 18:33:03	120220	12022020	183303	82.76	12.418763	-56.733538	82.75	0.640	-0.030	1.440	82.76	-1.60	2.10	 	 	 	 	 	 	 	 	 	 	 	 	 	 	 	 	 	 	1581532383	1.58	2.93
12/02/2020 18:33:04	120220	12022020	183304	82.94	12.418772	-56.733542	82.93	0.040	0.930	0.420	82.94	-0.70	1.00	 	 	 	 	 	 	 	 	 	 	 	 	 	 	 	 	 	 	1581532384	1.98	3.67
12/02/2020 18:33:05	120220	12022020	183305	83.21	12.418777	-56.733548	83.19	-0.700	1.650	-0.350	83.21	0.10	0.20	 	 	 	 	 	 	 	 	 	 	 	 	 	 	 	 	 	 	1581532385	1.72	3.19
12/02/2020 18:33:06	120220	12022020	183306	83.44	12.418778	-56.733552	83.41	-1.310	1.530	-0.640	83.44	0.10	-0.20	 	 	 	 	 	 	 	 	 	 	 	 	 	 	 	 	 	 	1581532386	0.92	1.70
12/02/2020 18:33:07	120220	12022020	183307	83.46	12.418775	-56.733552	83.43	-1.460	0.500	-0.350	83.46	-0.80	0.10	 	 	 	 	 	 	 	 	 	 	 	 	 	 	 	 	 	 	1581532387	0.59	1.09
12/02/2020 18:33:08	120220	12022020	183308	83.19	12.418770	-56.733548	83.16	-0.940	-1.020	0.380	83.19	-2.30	0.80	 	 	 	 	 	 	 	 	 	 	 	 	 	 	 	 	 	 	1581532388	1.29	2.39
12/02/2020 18:33:09	120220	12022020	183309	82.80	12.418765	-56.733545	82.77	0.100	-2.300	1.170	82.80	-3.60	1.60	 	 	 	 	 	 	 	 	 	 	 	 	 	 	 	 	 	 	1581532389	1.52	2.82
12/02/2020 18:33:10	120220	12022020	183310	82.55	12.418762	-56.733540	82.55	1.040	-2.610	1.700	82.55	-4.10	2.10	 	 	 	 	 	 	 	 	 	 	 	 	 	 	 	 	 	 	1581532390	1.05	1.94
12/02/2020 18:33:11	120220	12022020	183311	82.57	12.418762	-56.733542	82.57	1.390	-1.750	1.770	82.57	-3.40	2.30	 	 	 	 	 	 	 	 	 	 	 	 	 	 	 	 	 	 	1581532391	0.17	0.31
12/02/2020 18:33:12	120220	12022020	183312	82.63	12.418762	-56.733545	82.60	1.160	-0.300	1.620	82.63	-1.90	2.10	 	 	 	 	 	 	 	 	 	 	 	 	 	 	 	 	 	 	1581532392	0.82	1.52
12/02/2020 18:33:13	120220	12022020	183313	82.55	12.418763	-56.733548	82.48	0.650	1.010	1.450	82.55	-0.60	2.00	 	 	 	 	 	 	 	 	 	 	 	 	 	 	 	 	 	 	1581532393	0.92	1.70
12/02/2020 18:33:14	120220	12022020	183314	82.37	12.418767	-56.733552	82.35	-0.040	1.830	1.180	82.37	0.30	1.70	 	 	 	 	 	 	 	 	 	 	 	 	 	 	 	 	 	 	1581532394	0.84	1.56
12/02/2020 18:33:15	120220	12022020	183315	82.33	12.418768	-56.733555	82.32	-0.820	1.960	0.800	82.33	0.50	1.30	 	 	 	 	 	 	 	 	 	 	 	 	 	 	 	 	 	 	1581532395	0.75	1.39
12/02/2020 18:33:16	120220	12022020	183316	82.34	12.418770	-56.733557	82.34	-1.380	1.330	0.480	82.34	0.00	1.00	 	 	 	 	 	 	 	 	 	 	 	 	 	 	 	 	 	 	1581532396	0.41	0.76
12/02/2020 18:33:17	120220	12022020	183317	82.26	12.418770	-56.733555	82.23	-1.350	0.040	0.490	82.26	-1.20	0.90	 	 	 	 	 	 	 	 	 	 	 	 	 	 	 	 	 	 	1581532397	0.21	0.39
12/02/2020 18:33:18	120220	12022020	183318	81.95	12.418767	-56.733552	81.93	-0.650	-1.500	0.880	81.95	-2.70	1.30	 	 	 	 	 	 	 	 	 	 	 	 	 	 	 	 	 	 	1581532398	0.87	1.61
12/02/2020 18:33:19	120220	12022020	183319	81.59	12.418765	-56.733548	81.57	0.340	-2.560	1.250	81.59	-3.90	1.70	 	 	 	 	 	 	 	 	 	 	 	 	 	 	 	 	 	 	1581532399	1.07	1.98
12/02/2020 18:33:20	120220	12022020	183320	81.46	12.418763	-56.733545	81.47	1.030	-2.530	1.280	81.46	-4.00	1.80	 	 	 	 	 	 	 	 	 	 	 	 	 	 	 	 	 	 	1581532400	0.54	1.00
12/02/2020 18:33:21	120220	12022020	183321	81.58	12.418763	-56.733547	81.60	1.080	-1.360	1.180	81.58	-3.00	1.70	 	 	 	 	 	 	 	 	 	 	 	 	 	 	 	 	 	 	1581532401	0.38	0.70
12/02/2020 18:33:22	120220	12022020	183322	81.77	12.418763	-56.733552	81.79	0.670	0.330	1.150	81.77	-1.30	1.60	 	 	 	 	 	 	 	 	 	 	 	 	 	 	 	 	 	 	1581532402	1.10	2.04
12/02/2020 18:33:23	120220	12022020	183323	81.87	12.418762	-56.733557	81.88	0.170	1.530	1.140	81.87	-0.00	1.60	 	 	 	 	 	 	 	 	 	 	 	 	 	 	 	 	 	 	1581532403	1.13	2.09
12/02/2020 18:33:24	120220	12022020	183324	81.69	12.418762	-56.733558	81.67	-0.190	1.660	1.070	81.69	0.20	1.60	 	 	 	 	 	 	 	 	 	 	 	 	 	 	 	 	 	 	1581532404	0.37	0.69
12/02/2020 18:33:25	120220	12022020	183325	81.19	12.418762	-56.733557	81.14	-0.330	0.990	1.040	81.19	-0.40	1.50	 	 	 	 	 	 	 	 	 	 	 	 	 	 	 	 	 	 	1581532405	0.40	0.74
12/02/2020 18:33:26	120220	12022020	183326	80.66	12.418763	-56.733555	80.63	-0.350	0.030	1.040	80.66	-1.30	1.50	 	 	 	 	 	 	 	 	 	 	 	 	 	 	 	 	 	 	1581532406	0.70	1.30
12/02/2020 18:33:27	120220	12022020	183327	80.49	12.418767	-56.733552	80.54	-0.320	-0.860	0.940	80.49	-2.20	1.50	 	 	 	 	 	 	 	 	 	 	 	 	 	 	 	 	 	 	1581532407	0.78	1.44
12/02/2020 18:33:28	120220	12022020	183328	80.79	12.418770	-56.733550	80.84	-0.210	-1.400	0.690	80.79	-2.80	1.20	 	 	 	 	 	 	 	 	 	 	 	 	 	 	 	 	 	 	1581532408	0.66	1.22
12/02/2020 18:33:29	120220	12022020	183329	81.21	12.418770	-56.733550	81.26	0.060	-1.380	0.500	81.21	-2.90	1.00	 	 	 	 	 	 	 	 	 	 	 	 	 	 	 	 	 	 	1581532409	0.21	0.39
12/02/2020 18:33:30	120220	12022020	183330	81.52	12.418768	-56.733552	81.54	0.290	-0.730	0.630	81.52	-2.30	1.10	 	 	 	 	 	 	 	 	 	 	 	 	 	 	 	 	 	 	1581532410	0.48	0.89
12/02/2020 18:33:31	120220	12022020	183331	81.50	12.418763	-56.733553	81.51	0.300	0.100	1.190	81.50	-1.40	1.60	 	 	 	 	 	 	 	 	 	 	 	 	 	 	 	 	 	 	1581532411	1.10	2.04
12/02/2020 18:33:32	120220	12022020	183332	81.22	12.418758	-56.733555	81.22	0.110	0.500	1.880	81.22	-0.90	2.30	 	 	 	 	 	 	 	 	 	 	 	 	 	 	 	 	 	 	1581532412	1.09	2.02
12/02/2020 18:33:33	120220	12022020	183333	80.90	12.418757	-56.733553	80.92	-0.110	0.420	2.310	80.90	-1.00	2.80	 	 	 	 	 	 	 	 	 	 	 	 	 	 	 	 	 	 	1581532413	0.62	1.15
12/02/2020 18:33:34	120220	12022020	183334	80.69	12.418755	-56.733552	80.71	-0.260	0.150	2.380	80.69	-1.20	2.90	 	 	 	 	 	 	 	 	 	 	 	 	 	 	 	 	 	 	1581532414	0.39	0.72
12/02/2020 18:33:35	120220	12022020	183335	80.68	12.418757	-56.733550	80.72	-0.300	-0.150	2.040	80.68	-1.50	2.60	 	 	 	 	 	 	 	 	 	 	 	 	 	 	 	 	 	 	1581532415	0.41	0.76
12/02/2020 18:33:36	120220	12022020	183336	80.96	12.418762	-56.733550	81.01	-0.190	-0.360	1.270	80.96	-1.80	1.90	 	 	 	 	 	 	 	 	 	 	 	 	 	 	 	 	 	 	1581532416	0.78	1.44
12/02/2020 18:33:37	120220	12022020	183337	81.30	12.418767	-56.733552	81.42	0.040	-0.450	0.360	81.30	-1.90	1.00	 	 	 	 	 	 	 	 	 	 	 	 	 	 	 	 	 	 	1581532417	1.15	2.13
12/02/2020 18:33:38	120220	12022020	183338	81.62	12.418770	-56.733552	81.61	0.300	-0.450	-0.100	81.62	-1.90	0.40	 	 	 	 	 	 	 	 	 	 	 	 	 	 	 	 	 	 	1581532418	0.84	1.56
12/02/2020 18:33:39	120220	12022020	183339	81.50	12.418770	-56.733552	81.37	0.420	-0.410	0.060	81.50	-1.80	0.50	 	 	 	 	 	 	 	 	 	 	 	 	 	 	 	 	 	 	1581532419	0.06	0.11
12/02/2020 18:33:40	120220	12022020	183340	80.96	12.418768	-56.733550	80.91	0.300	-0.370	0.590	80.96	-1.80	1.00	 	 	 	 	 	 	 	 	 	 	 	 	 	 	 	 	 	 	1581532420	0.50	0.93
12/02/2020 18:33:41	120220	12022020	183341	80.69	12.418767	-56.733548	80.69	0.050	-0.370	1.040	80.69	-1.80	1.50	 	 	 	 	 	 	 	 	 	 	 	 	 	 	 	 	 	 	1581532421	0.45	0.83
12/02/2020 18:33:42	120220	12022020	183342	80.81	12.418767	-56.733548	80.84	-0.110	-0.330	1.090	80.81	-1.80	1.60	 	 	 	 	 	 	 	 	 	 	 	 	 	 	 	 	 	 	1581532422	0.29	0.54
12/02/2020 18:33:43	120220	12022020	183343	81.16	12.418768	-56.733547	81.19	-0.070	-0.150	0.970	81.16	-1.60	1.50	 	 	 	 	 	 	 	 	 	 	 	 	 	 	 	 	 	 	1581532423	0.41	0.76
12/02/2020 18:33:44	120220	12022020	183344	81.52	12.418770	-56.733547	81.54	0.050	0.150	0.970	81.52	-1.30	1.40	 	 	 	 	 	 	 	 	 	 	 	 	 	 	 	 	 	 	1581532424	0.13	0.24
12/02/2020 18:33:45	120220	12022020	183345	81.76	12.418768	-56.733548	81.78	0.070	0.340	1.160	81.76	-1.10	1.60	 	 	 	 	 	 	 	 	 	 	 	 	 	 	 	 	 	 	1581532425	0.33	0.61
12/02/2020 18:33:46	120220	12022020	183346	81.71	12.418765	-56.733547	81.71	-0.100	0.250	1.580	81.71	-1.20	2.00	 	 	 	 	 	 	 	 	 	 	 	 	 	 	 	 	 	 	1581532426	0.65	1.20
12/02/2020 18:33:47	120220	12022020	183347	81.49	12.418763	-56.733545	81.51	-0.350	-0.020	1.900	81.49	-1.40	2.40	 	 	 	 	 	 	 	 	 	 	 	 	 	 	 	 	 	 	1581532427	0.60	1.11
12/02/2020 18:33:48	120220	12022020	183348	81.40	12.418762	-56.733545	81.42	-0.480	-0.230	1.930	81.40	-1.60	2.40	 	 	 	 	 	 	 	 	 	 	 	 	 	 	 	 	 	 	1581532428	0.30	0.56
12/02/2020 18:33:49	120220	12022020	183349	81.35	12.418762	-56.733545	81.37	-0.420	-0.260	1.850	81.35	-1.70	2.30	 	 	 	 	 	 	 	 	 	 	 	 	 	 	 	 	 	 	1581532429	0.04	0.07
12/02/2020 18:33:50	120220	12022020	183350	81.21	12.418762	-56.733545	81.22	-0.260	-0.320	1.720	81.21	-1.70	2.20	 	 	 	 	 	 	 	 	 	 	 	 	 	 	 	 	 	 	1581532430	0.16	0.30
12/02/2020 18:33:51	120220	12022020	183351	81.12	12.418763	-56.733545	81.12	-0.010	-0.650	1.350	81.12	-2.00	1.90	 	 	 	 	 	 	 	 	 	 	 	 	 	 	 	 	 	 	1581532431	0.33	0.61
12/02/2020 18:33:52	120220	12022020	183352	81.13	12.418768	-56.733542	81.14	0.360	-1.190	0.760	81.13	-2.50	1.40	 	 	 	 	 	 	 	 	 	 	 	 	 	 	 	 	 	 	1581532432	1.00	1.85
12/02/2020 18:33:53	120220	12022020	183353	81.28	12.418773	-56.733538	81.28	0.750	-1.360	0.160	81.28	-2.80	0.70	 	 	 	 	 	 	 	 	 	 	 	 	 	 	 	 	 	 	1581532433	1.38	2.56
12/02/2020 18:33:54	120220	12022020	183354	81.48	12.418775	-56.733537	81.47	0.830	-0.530	-0.050	81.48	-2.10	0.40	 	 	 	 	 	 	 	 	 	 	 	 	 	 	 	 	 	 	1581532434	0.64	1.19
12/02/2020 18:33:55	120220	12022020	183355	81.57	12.418773	-56.733540	81.55	0.340	0.980	0.200	81.57	-0.70	0.60	 	 	 	 	 	 	 	 	 	 	 	 	 	 	 	 	 	 	1581532435	0.89	1.65
12/02/2020 18:33:56	120220	12022020	183356	81.40	12.418770	-56.733547	81.38	-0.450	1.950	0.670	81.40	0.40	1.10	 	 	 	 	 	 	 	 	 	 	 	 	 	 	 	 	 	 	1581532436	1.39	2.57
12/02/2020 18:33:57	120220	12022020	183357	81.12	12.418770	-56.733548	81.10	-0.930	1.380	1.150	81.12	0.10	1.60	 	 	 	 	 	 	 	 	 	 	 	 	 	 	 	 	 	 	1581532437	0.48	0.89
12/02/2020 18:33:58	120220	12022020	183358	80.87	12.418770	-56.733543	80.87	-0.740	-0.340	1.530	80.87	-1.50	2.00	 	 	 	 	 	 	 	 	 	 	 	 	 	 	 	 	 	 	1581532438	1.06	1.96
12/02/2020 18:33:59	120220	12022020	183359	80.79	12.418770	-56.733537	80.81	-0.150	-1.760	1.840	80.79	-3.10	2.30	 	 	 	 	 	 	 	 	 	 	 	 	 	 	 	 	 	 	1581532439	1.54	2.85
12/02/2020 18:34:00	120220	12022020	183400	80.88	12.418768	-56.733533	80.91	0.280	-1.880	2.040	80.88	-3.40	2.50	 	 	 	 	 	 	 	 	 	 	 	 	 	 	 	 	 	 	1581532440	0.76	1.41
12/02/2020 18:34:01	120220	12022020	183401	80.86	12.418765	-56.733535	80.87	0.250	-0.980	2.210	80.86	-2.60	2.70	 	 	 	 	 	 	 	 	 	 	 	 	 	 	 	 	 	 	1581532441	0.72	1.33
12/02/2020 18:34:02	120220	12022020	183402	80.57	12.418763	-56.733538	80.57	-0.050	0.010	2.350	80.57	-1.50	2.80	1014.80	25.10	25.20	20.30	20.40	279.0	75.0	75.0	421.0	26.9	335.00	12.40	56.00	12.10	28030	11082.0	27.4	27.4	1581532442	0.96	1.78
12/02/2020 18:34:03	120220	12022020	183403	80.35	12.418762	-56.733540	80.32	-0.260	0.540	2.190	80.35	-1.00	2.70	 	 	 	 	 	 	 	 	 	 	 	 	 	 	 	 	 	 	1581532443	0.51	0.94
12/02/2020 18:34:04	120220	12022020	183404	80.39	12.418763	-56.733542	80.40	-0.240	0.610	1.530	80.39	-0.80	2.10	 	 	 	 	 	 	 	 	 	 	 	 	 	 	 	 	 	 	1581532444	0.23	0.43
12/02/2020 18:34:05	120220	12022020	183405	80.66	12.418767	-56.733540	80.72	-0.040	0.400	0.530	80.66	-1.00	1.20	 	 	 	 	 	 	 	 	 	 	 	 	 	 	 	 	 	 	1581532445	0.70	1.30
12/02/2020 18:34:06	120220	12022020	183406	80.92	12.418772	-56.733540	80.85	0.230	-0.120	-0.430	80.92	-1.50	0.20	 	 	 	 	 	 	 	 	 	 	 	 	 	 	 	 	 	 	1581532446	1.12	2.07
12/02/2020 18:34:07	120220	12022020	183407	80.52	12.418777	-56.733538	80.41	0.530	-0.830	-0.840	80.52	-2.20	-0.30	 	 	 	 	 	 	 	 	 	 	 	 	 	 	 	 	 	 	1581532447	1.25	2.31
12/02/2020 18:34:08	120220	12022020	183408	79.82	12.418780	-56.733535	79.75	0.690	-1.210	-0.630	79.82	-2.60	-0.20	 	 	 	 	 	 	 	 	 	 	 	 	 	 	 	 	 	 	1581532448	1.00	1.85
12/02/2020 18:34:09	120220	12022020	183409	79.50	12.418782	-56.733533	79.48	0.580	-0.910	-0.160	79.50	-2.40	0.30	 	 	 	 	 	 	 	 	 	 	 	 	 	 	 	 	 	 	1581532449	0.35	0.65
12/02/2020 18:34:10	120220	12022020	183410	79.63	12.418780	-56.733535	79.65	0.130	0.060	0.350	79.63	-1.50	0.80	 	 	 	 	 	 	 	 	 	 	 	 	 	 	 	 	 	 	1581532450	0.47	0.87
12/02/2020 18:34:11	120220	12022020	183411	79.98	12.418777	-56.733540	80.00	-0.510	1.140	0.790	79.98	-0.40	1.20	 	 	 	 	 	 	 	 	 	 	 	 	 	 	 	 	 	 	1581532451	1.13	2.09
12/02/2020 18:34:12	120220	12022020	183412	80.28	12.418772	-56.733543	80.30	-1.030	1.360	1.230	80.28	-0.10	1.70	 	 	 	 	 	 	 	 	 	 	 	 	 	 	 	 	 	 	1581532452	1.16	2.15
12/02/2020 18:34:13	120220	12022020	183413	80.33	12.418767	-56.733542	80.35	-1.180	0.510	1.780	80.33	-0.80	2.20	 	 	 	 	 	 	 	 	 	 	 	 	 	 	 	 	 	 	1581532453	1.15	2.13
12/02/2020 18:34:14	120220	12022020	183414	80.17	12.418762	-56.733537	80.18	-0.860	-0.720	2.350	80.17	-2.00	2.80	 	 	 	 	 	 	 	 	 	 	 	 	 	 	 	 	 	 	1581532454	1.52	2.82
12/02/2020 18:34:15	120220	12022020	183415	79.94	12.418758	-56.733532	79.96	-0.120	-1.590	2.710	79.94	-3.00	3.20	 	 	 	 	 	 	 	 	 	 	 	 	 	 	 	 	 	 	1581532455	1.29	2.39
12/02/2020 18:34:16	120220	12022020	183416	79.76	12.418757	-56.733528	79.80	0.780	-1.820	2.740	79.76	-3.30	3.30	 	 	 	 	 	 	 	 	 	 	 	 	 	 	 	 	 	 	1581532456	0.70	1.30
12/02/2020 18:34:17	120220	12022020	183417	79.68	12.418758	-56.733528	79.73	1.350	-1.370	2.310	79.68	-2.90	2.90	 	 	 	 	 	 	 	 	 	 	 	 	 	 	 	 	 	 	1581532457	0.37	0.69
12/02/2020 18:34:18	120220	12022020	183418	79.72	12.418763	-56.733530	79.75	1.220	-0.330	1.380	79.72	-2.00	2.00	 	 	 	 	 	 	 	 	 	 	 	 	 	 	 	 	 	 	1581532458	1.06	1.96
12/02/2020 18:34:19	120220	12022020	183419	79.78	12.418768	-56.733535	79.77	0.390	1.070	0.240	79.78	-0.60	0.90	 	 	 	 	 	 	 	 	 	 	 	 	 	 	 	 	 	 	1581532459	1.72	3.19
12/02/2020 18:34:20	120220	12022020	183420	79.67	12.418773	-56.733542	79.61	-0.650	2.030	-0.520	79.67	0.50	0.10	 	 	 	 	 	 	 	 	 	 	 	 	 	 	 	 	 	 	1581532460	1.76	3.26
12/02/2020 18:34:21	120220	12022020	183421	79.37	12.418777	-56.733545	79.31	-1.260	1.710	-0.780	79.37	0.40	-0.30	 	 	 	 	 	 	 	 	 	 	 	 	 	 	 	 	 	 	1581532461	0.96	1.78
12/02/2020 18:34:22	120220	12022020	183422	79.24	12.418780	-56.733542	79.21	-1.100	0.090	-0.980	79.24	-1.10	-0.40	 	 	 	 	 	 	 	 	 	 	 	 	 	 	 	 	 	 	1581532462	0.76	1.41
12/02/2020 18:34:23	120220	12022020	183423	79.40	12.418782	-56.733535	79.38	-0.350	-1.820	-1.100	79.40	-3.00	-0.60	 	 	 	 	 	 	 	 	 	 	 	 	 	 	 	 	 	 	1581532463	1.58	2.93
12/02/2020 18:34:24	120220	12022020	183424	79.61	12.418782	-56.733528	79.60	0.400	-2.590	-0.810	79.61	-4.00	-0.40	 	 	 	 	 	 	 	 	 	 	 	 	 	 	 	 	 	 	1581532464	1.30	2.41
12/02/2020 18:34:25	120220	12022020	183425	79.76	12.418777	-56.733528	79.76	0.650	-1.700	-0.020	79.76	-3.30	0.30	 	 	 	 	 	 	 	 	 	 	 	 	 	 	 	 	 	 	1581532465	0.97	1.80
12/02/2020 18:34:26	120220	12022020	183426	79.74	12.418770	-56.733533	79.74	0.410	0.050	1.090	79.74	-1.60	1.40	 	 	 	 	 	 	 	 	 	 	 	 	 	 	 	 	 	 	1581532466	1.95	3.61
12/02/2020 18:34:27	120220	12022020	183427	79.52	12.418762	-56.733538	79.45	0.050	1.270	2.190	79.52	-0.30	2.50	 	 	 	 	 	 	 	 	 	 	 	 	 	 	 	 	 	 	1581532467	2.02	3.74
12/02/2020 18:34:28	120220	12022020	183428	79.11	12.418758	-56.733540	79.13	-0.060	1.180	2.740	79.11	-0.20	3.20	 	 	 	 	 	 	 	 	 	 	 	 	 	 	 	 	 	 	1581532468	0.90	1.67
12/02/2020 18:34:29	120220	12022020	183429	79.01	12.418758	-56.733537	79.05	0.120	0.190	2.660	79.01	-1.10	3.20	 	 	 	 	 	 	 	 	 	 	 	 	 	 	 	 	 	 	1581532469	0.84	1.56
12/02/2020 18:34:30	120220	12022020	183430	79.21	12.418763	-56.733532	79.27	0.310	-0.680	2.100	79.21	-2.00	2.70	 	 	 	 	 	 	 	 	 	 	 	 	 	 	 	 	 	 	1581532470	1.38	2.56
12/02/2020 18:34:31	120220	12022020	183431	79.61	12.418770	-56.733530	79.65	0.280	-0.890	1.290	79.61	-2.30	1.90	 	 	 	 	 	 	 	 	 	 	 	 	 	 	 	 	 	 	1581532471	1.22	2.26
12/02/2020 18:34:32	120220	12022020	183432	79.90	12.418773	-56.733532	79.91	0.010	-0.510	0.630	79.90	-2.00	1.20	 	 	 	 	 	 	 	 	 	 	 	 	 	 	 	 	 	 	1581532472	0.84	1.56
12/02/2020 18:34:33	120220	12022020	183433	79.76	12.418773	-56.733535	79.72	-0.320	0.010	0.560	79.76	-1.50	1.00	 	 	 	 	 	 	 	 	 	 	 	 	 	 	 	 	 	 	1581532473	0.61	1.13
12/02/2020 18:34:34	120220	12022020	183434	79.28	12.418770	-56.733537	79.24	-0.500	0.220	0.930	79.28	-1.20	1.40	 	 	 	 	 	 	 	 	 	 	 	 	 	 	 	 	 	 	1581532474	0.75	1.39
12/02/2020 18:34:35	120220	12022020	183435	78.92	12.418767	-56.733537	78.89	-0.450	0.040	1.170	78.92	-1.30	1.60	 	 	 	 	 	 	 	 	 	 	 	 	 	 	 	 	 	 	1581532475	0.67	1.24
12/02/2020 18:34:36	120220	12022020	183436	78.92	12.418767	-56.733535	78.93	-0.250	-0.230	0.920	78.92	-1.60	1.50	 	 	 	 	 	 	 	 	 	 	 	 	 	 	 	 	 	 	1581532476	0.25	0.46
12/02/2020 18:34:37	120220	12022020	183437	79.24	12.418770	-56.733535	79.25	-0.030	-0.370	0.290	79.24	-1.80	0.90	 	 	 	 	 	 	 	 	 	 	 	 	 	 	 	 	 	 	1581532477	0.64	1.19
12/02/2020 18:34:38	120220	12022020	183438	79.53	12.418773	-56.733535	79.51	0.160	-0.470	-0.240	79.53	-1.90	0.30	 	 	 	 	 	 	 	 	 	 	 	 	 	 	 	 	 	 	1581532478	0.90	1.67
12/02/2020 18:34:39	120220	12022020	183439	79.59	12.418777	-56.733535	79.56	0.340	-0.610	-0.310	79.59	-2.00	0.20	 	 	 	 	 	 	 	 	 	 	 	 	 	 	 	 	 	 	1581532479	0.50	0.93
12/02/2020 18:34:40	120220	12022020	183440	79.49	12.418775	-56.733533	79.46	0.500	-0.620	0.100	79.49	-2.00	0.50	 	 	 	 	 	 	 	 	 	 	 	 	 	 	 	 	 	 	1581532480	0.39	0.72
12/02/2020 18:34:41	120220	12022020	183441	79.36	12.418772	-56.733532	79.33	0.610	-0.380	0.810	79.36	-1.80	1.20	 	 	 	 	 	 	 	 	 	 	 	 	 	 	 	 	 	 	1581532481	0.74	1.37
12/02/2020 18:34:42	120220	12022020	183442	79.28	12.418768	-56.733532	79.29	0.560	-0.030	1.450	79.28	-1.50	1.90	 	 	 	 	 	 	 	 	 	 	 	 	 	 	 	 	 	 	1581532482	0.66	1.22
12/02/2020 18:34:43	120220	12022020	183443	79.34	12.418767	-56.733532	79.39	0.230	0.290	1.740	79.34	-1.20	2.20	 	 	 	 	 	 	 	 	 	 	 	 	 	 	 	 	 	 	1581532483	0.27	0.50
12/02/2020 18:34:44	120220	12022020	183444	79.38	12.418767	-56.733533	79.40	-0.340	0.550	1.810	79.38	-0.90	2.30	 	 	 	 	 	 	 	 	 	 	 	 	 	 	 	 	 	 	1581532484	0.24	0.44
12/02/2020 18:34:45	120220	12022020	183445	79.21	12.418767	-56.733535	79.22	-0.840	0.720	1.870	79.21	-0.70	2.30	 	 	 	 	 	 	 	 	 	 	 	 	 	 	 	 	 	 	1581532485	0.46	0.85
12/02/2020 18:34:46	120220	12022020	183446	79.02	12.418765	-56.733537	79.04	-0.970	0.500	1.860	79.02	-0.90	2.30	 	 	 	 	 	 	 	 	 	 	 	 	 	 	 	 	 	 	1581532486	0.44	0.81
12/02/2020 18:34:47	120220	12022020	183447	79.01	12.418763	-56.733535	79.04	-0.660	-0.310	1.590	79.01	-1.60	2.10	 	 	 	 	 	 	 	 	 	 	 	 	 	 	 	 	 	 	1581532487	0.19	0.35
12/02/2020 18:34:48	120220	12022020	183448	79.15	12.418765	-56.733532	79.16	-0.030	-1.460	1.090	79.15	-2.70	1.60	 	 	 	 	 	 	 	 	 	 	 	 	 	 	 	 	 	 	1581532488	0.82	1.52
12/02/2020 18:34:49	120220	12022020	183449	79.16	12.418768	-56.733527	79.15	0.640	-2.150	0.610	79.16	-3.50	1.10	 	 	 	 	 	 	 	 	 	 	 	 	 	 	 	 	 	 	1581532489	1.14	2.11
12/02/2020 18:34:50	120220	12022020	183450	79.05	12.418772	-56.733525	79.04	1.060	-1.660	0.270	79.05	-3.20	0.80	 	 	 	 	 	 	 	 	 	 	 	 	 	 	 	 	 	 	1581532490	0.78	1.44
12/02/2020 18:34:51	120220	12022020	183451	79.10	12.418773	-56.733528	79.11	0.970	-0.220	0.010	79.10	-1.80	0.50	 	 	 	 	 	 	 	 	 	 	 	 	 	 	 	 	 	 	1581532491	0.88	1.63
12/02/2020 18:34:52	120220	12022020	183452	79.34	12.418775	-56.733535	79.36	0.420	1.230	-0.100	79.34	-0.40	0.40	 	 	 	 	 	 	 	 	 	 	 	 	 	 	 	 	 	 	1581532492	1.29	2.39
12/02/2020 18:34:53	120220	12022020	183453	79.56	12.418773	-56.733538	79.61	-0.260	1.900	0.310	79.56	0.40	0.70	 	 	 	 	 	 	 	 	 	 	 	 	 	 	 	 	 	 	1581532493	0.97	1.80
12/02/2020 18:34:54	120220	12022020	183454	79.57	12.418768	-56.733540	79.58	-0.680	1.480	1.180	79.57	0.20	1.50	 	 	 	 	 	 	 	 	 	 	 	 	 	 	 	 	 	 	1581532494	1.10	2.04
12/02/2020 18:34:55	120220	12022020	183455	79.35	12.418762	-56.733535	79.28	-0.640	0.120	2.130	79.35	-1.10	2.50	 	 	 	 	 	 	 	 	 	 	 	 	 	 	 	 	 	 	1581532495	1.62	3.00
12/02/2020 18:34:56	120220	12022020	183456	78.81	12.418758	-56.733528	78.82	-0.270	-1.390	2.880	78.81	-2.60	3.30	 	 	 	 	 	 	 	 	 	 	 	 	 	 	 	 	 	 	1581532496	1.65	3.06
12/02/2020 18:34:57	120220	12022020	183457	78.41	12.418757	-56.733525	78.46	0.070	-1.950	3.200	78.41	-3.40	3.70	 	 	 	 	 	 	 	 	 	 	 	 	 	 	 	 	 	 	1581532497	0.98	1.81
12/02/2020 18:34:58	120220	12022020	183458	78.37	12.418758	-56.733525	78.45	0.120	-1.310	3.010	78.37	-2.90	3.50	 	 	 	 	 	 	 	 	 	 	 	 	 	 	 	 	 	 	1581532498	0.38	0.70
12/02/2020 18:34:59	120220	12022020	183459	78.72	12.418760	-56.733530	78.80	-0.010	-0.340	2.350	78.72	-1.90	2.90	 	 	 	 	 	 	 	 	 	 	 	 	 	 	 	 	 	 	1581532499	1.16	2.15
12/02/2020 18:35:00	120220	12022020	183500	79.24	12.418763	-56.733533	79.29	0.010	-0.020	1.420	79.24	-1.40	2.00	 	 	 	 	 	 	 	 	 	 	 	 	 	 	 	 	 	 	1581532500	0.85	1.57
12/02/2020 18:35:01	120220	12022020	183501	79.56	12.418765	-56.733532	79.58	0.280	-0.230	0.690	79.56	-1.60	1.20	 	 	 	 	 	 	 	 	 	 	 	 	 	 	 	 	 	 	1581532501	0.73	1.35
12/02/2020 18:35:02	120220	12022020	183502	79.71	12.418767	-56.733528	79.71	0.570	-0.210	0.270	79.71	-1.70	0.80	1014.80	25.10	25.20	20.50	20.60	260.0	75.0	75.0	414.0	26.8	337.00	11.40	56.00	11.00	27627	12222.0	27.4	27.4	1581532502	0.73	1.35
12/02/2020 18:35:03	120220	12022020	183503	79.79	12.418767	-56.733528	79.76	0.560	0.320	0.030	79.79	-1.20	0.50	 	 	 	 	 	 	 	 	 	 	 	 	 	 	 	 	 	 	1581532503	0.05	0.09
12/02/2020 18:35:04	120220	12022020	183504	79.60	12.418767	-56.733532	79.53	0.180	0.850	-0.030	79.60	-0.60	0.40	 	 	 	 	 	 	 	 	 	 	 	 	 	 	 	 	 	 	1581532504	0.57	1.06
12/02/2020 18:35:05	120220	12022020	183505	79.01	12.418768	-56.733533	78.92	-0.340	0.830	0.230	79.01	-0.60	0.70	 	 	 	 	 	 	 	 	 	 	 	 	 	 	 	 	 	 	1581532505	0.43	0.80
12/02/2020 18:35:06	120220	12022020	183506	78.52	12.418768	-56.733533	78.47	-0.720	0.360	0.600	78.52	-1.00	1.10	 	 	 	 	 	 	 	 	 	 	 	 	 	 	 	 	 	 	1581532506	0.11	0.20
12/02/2020 18:35:07	120220	12022020	183507	78.60	12.418768	-56.733532	78.61	-0.730	-0.400	0.790	78.60	-1.70	1.30	 	 	 	 	 	 	 	 	 	 	 	 	 	 	 	 	 	 	1581532507	0.26	0.48
12/02/2020 18:35:08	120220	12022020	183508	79.00	12.418768	-56.733530	79.03	-0.390	-1.280	0.860	79.00	-2.60	1.30	 	 	 	 	 	 	 	 	 	 	 	 	 	 	 	 	 	 	1581532508	0.54	1.00
12/02/2020 18:35:09	120220	12022020	183509	79.31	12.418768	-56.733525	79.32	0.060	-1.810	1.030	79.31	-3.20	1.50	 	 	 	 	 	 	 	 	 	 	 	 	 	 	 	 	 	 	1581532509	0.86	1.59
12/02/2020 18:35:10	120220	12022020	183510	79.40	12.418765	-56.733523	79.41	0.390	-1.500	1.470	79.40	-3.00	1.90	 	 	 	 	 	 	 	 	 	 	 	 	 	 	 	 	 	 	1581532510	0.91	1.69
12/02/2020 18:35:11	120220	12022020	183511	79.37	12.418760	-56.733523	79.39	0.510	-0.410	2.000	79.37	-2.00	2.40	 	 	 	 	 	 	 	 	 	 	 	 	 	 	 	 	 	 	1581532511	1.04	1.93
12/02/2020 18:35:12	120220	12022020	183512	79.29	12.418757	-56.733527	79.32	0.380	0.870	2.310	79.29	-0.70	2.70	 	 	 	 	 	 	 	 	 	 	 	 	 	 	 	 	 	 	1581532512	1.01	1.87
12/02/2020 18:35:13	120220	12022020	183513	79.25	12.418755	-56.733532	79.27	0.030	1.610	2.280	79.25	0.10	2.80	 	 	 	 	 	 	 	 	 	 	 	 	 	 	 	 	 	 	1581532513	0.85	1.57
12/02/2020 18:35:14	120220	12022020	183514	79.32	12.418757	-56.733533	79.35	-0.340	1.290	1.900	79.32	-0.10	2.40	 	 	 	 	 	 	 	 	 	 	 	 	 	 	 	 	 	 	1581532514	0.43	0.80
12/02/2020 18:35:15	120220	12022020	183515	79.45	12.418758	-56.733530	79.47	-0.450	-0.010	1.300	79.45	-1.30	1.80	 	 	 	 	 	 	 	 	 	 	 	 	 	 	 	 	 	 	1581532515	0.72	1.33
12/02/2020 18:35:16	120220	12022020	183516	79.40	12.418760	-56.733525	79.40	-0.240	-1.400	1.000	79.40	-2.70	1.50	 	 	 	 	 	 	 	 	 	 	 	 	 	 	 	 	 	 	1581532516	1.23	2.28
12/02/2020 18:35:17	120220	12022020	183517	79.16	12.418760	-56.733520	79.08	0.120	-1.930	1.110	79.16	-3.30	1.60	 	 	 	 	 	 	 	 	 	 	 	 	 	 	 	 	 	 	1581532517	0.97	1.80
12/02/2020 18:35:18	120220	12022020	183518	78.73	12.418760	-56.733520	78.73	0.370	-1.300	1.140	78.73	-2.90	1.60	 	 	 	 	 	 	 	 	 	 	 	 	 	 	 	 	 	 	1581532518	0.05	0.09
12/02/2020 18:35:19	120220	12022020	183519	78.56	12.418762	-56.733525	78.54	0.320	-0.140	0.930	78.56	-1.70	1.50	 	 	 	 	 	 	 	 	 	 	 	 	 	 	 	 	 	 	1581532519	0.93	1.72
12/02/2020 18:35:20	120220	12022020	183520	78.62	12.418763	-56.733530	78.65	0.010	0.770	0.610	78.62	-0.80	1.10	 	 	 	 	 	 	 	 	 	 	 	 	 	 	 	 	 	 	1581532520	1.15	2.13
12/02/2020 18:35:21	120220	12022020	183521	79.05	12.418767	-56.733532	79.10	-0.280	0.980	0.300	79.05	-0.40	0.80	 	 	 	 	 	 	 	 	 	 	 	 	 	 	 	 	 	 	1581532521	0.68	1.26
12/02/2020 18:35:22	120220	12022020	183522	79.58	12.418767	-56.733532	79.62	-0.320	0.550	0.230	79.58	-0.80	0.70	 	 	 	 	 	 	 	 	 	 	 	 	 	 	 	 	 	 	1581532522	0.19	0.35
12/02/2020 18:35:23	120220	12022020	183523	79.82	12.418763	-56.733528	79.83	-0.090	-0.130	0.630	79.82	-1.50	1.00	 	 	 	 	 	 	 	 	 	 	 	 	 	 	 	 	 	 	1581532523	0.92	1.70
12/02/2020 18:35:24	120220	12022020	183524	79.63	12.418758	-56.733525	79.64	0.230	-0.790	1.390	79.63	-2.10	1.80	 	 	 	 	 	 	 	 	 	 	 	 	 	 	 	 	 	 	1581532524	1.23	2.28
12/02/2020 18:35:25	120220	12022020	183525	79.27	12.418755	-56.733522	79.29	0.390	-1.230	2.130	79.27	-2.60	2.50	 	 	 	 	 	 	 	 	 	 	 	 	 	 	 	 	 	 	1581532525	1.02	1.89
12/02/2020 18:35:26	120220	12022020	183526	79.07	12.418753	-56.733520	79.13	0.270	-1.070	2.590	79.07	-2.50	3.00	 	 	 	 	 	 	 	 	 	 	 	 	 	 	 	 	 	 	1581532526	0.60	1.11
12/02/2020 18:35:27	120220	12022020	183527	79.09	12.418750	-56.733520	79.17	-0.070	-0.280	2.820	79.09	-1.80	3.30	 	 	 	 	 	 	 	 	 	 	 	 	 	 	 	 	 	 	1581532527	0.52	0.96
12/02/2020 18:35:28	120220	12022020	183528	79.17	12.418748	-56.733523	79.24	-0.430	0.560	2.720	79.17	-0.90	3.20	 	 	 	 	 	 	 	 	 	 	 	 	 	 	 	 	 	 	1581532528	0.78	1.44
12/02/2020 18:35:29	120220	12022020	183529	79.27	12.418748	-56.733527	79.32	-0.610	0.910	2.230	79.27	-0.50	2.80	 	 	 	 	 	 	 	 	 	 	 	 	 	 	 	 	 	 	1581532529	0.54	1.00
12/02/2020 18:35:30	120220	12022020	183530	79.29	12.418750	-56.733527	79.28	-0.470	0.580	1.540	79.29	-0.80	2.10	 	 	 	 	 	 	 	 	 	 	 	 	 	 	 	 	 	 	1581532530	0.37	0.69
12/02/2020 18:35:31	120220	12022020	183531	79.28	12.418755	-56.733525	79.28	-0.070	-0.240	0.620	79.28	-1.50	1.30	 	 	 	 	 	 	 	 	 	 	 	 	 	 	 	 	 	 	1581532531	1.02	1.89
12/02/2020 18:35:32	120220	12022020	183532	79.40	12.418762	-56.733523	79.38	0.370	-0.970	-0.380	79.40	-2.30	0.20	 	 	 	 	 	 	 	 	 	 	 	 	 	 	 	 	 	 	1581532532	1.68	3.11
12/02/2020 18:35:33	120220	12022020	183533	79.55	12.418768	-56.733522	79.57	0.610	-1.170	-0.990	79.55	-2.60	-0.50	 	 	 	 	 	 	 	 	 	 	 	 	 	 	 	 	 	 	1581532533	1.49	2.76
12/02/2020 18:35:34	120220	12022020	183534	79.82	12.418772	-56.733523	79.79	0.560	-0.840	-0.920	79.82	-2.30	-0.50	 	 	 	 	 	 	 	 	 	 	 	 	 	 	 	 	 	 	1581532534	0.49	0.91
12/02/2020 18:35:35	120220	12022020	183535	80.04	12.418768	-56.733523	80.02	0.330	-0.380	-0.170	80.04	-1.90	0.20	 	 	 	 	 	 	 	 	 	 	 	 	 	 	 	 	 	 	1581532535	0.74	1.37
12/02/2020 18:35:36	120220	12022020	183536	80.03	12.418760	-56.733522	80.03	0.060	-0.020	1.080	80.03	-1.50	1.40	 	 	 	 	 	 	 	 	 	 	 	 	 	 	 	 	 	 	1581532536	1.58	2.93
12/02/2020 18:35:37	120220	12022020	183537	79.75	12.418752	-56.733520	79.77	-0.200	0.350	2.470	79.75	-1.10	2.80	 	 	 	 	 	 	 	 	 	 	 	 	 	 	 	 	 	 	1581532537	1.87	3.46
12/02/2020 18:35:38	120220	12022020	183538	79.60	12.418743	-56.733520	79.67	-0.490	0.710	3.450	79.60	-0.70	3.80	 	 	 	 	 	 	 	 	 	 	 	 	 	 	 	 	 	 	1581532538	1.67	3.09
12/02/2020 18:35:39	120220	12022020	183539	79.68	12.418740	-56.733520	79.77	-0.670	0.790	3.690	79.68	-0.60	4.20	 	 	 	 	 	 	 	 	 	 	 	 	 	 	 	 	 	 	1581532539	0.98	1.81
12/02/2020 18:35:40	120220	12022020	183540	79.84	12.418740	-56.733522	79.93	-0.580	0.380	3.300	79.84	-1.00	3.90	 	 	 	 	 	 	 	 	 	 	 	 	 	 	 	 	 	 	1581532540	0.21	0.39
12/02/2020 18:35:41	120220	12022020	183541	79.87	12.418743	-56.733520	79.91	-0.140	-0.460	2.640	79.87	-1.80	3.20	 	 	 	 	 	 	 	 	 	 	 	 	 	 	 	 	 	 	1581532541	0.88	1.63
12/02/2020 18:35:42	120220	12022020	183542	79.84	12.418750	-56.733518	79.86	0.420	-1.230	1.750	79.84	-2.60	2.40	 	 	 	 	 	 	 	 	 	 	 	 	 	 	 	 	 	 	1581532542	1.37	2.54
12/02/2020 18:35:43	120220	12022020	183543	79.93	12.418757	-56.733518	79.98	0.750	-1.480	0.860	79.93	-2.90	1.50	 	 	 	 	 	 	 	 	 	 	 	 	 	 	 	 	 	 	1581532543	1.38	2.56
12/02/2020 18:35:44	120220	12022020	183544	80.24	12.418760	-56.733518	80.25	0.700	-1.190	0.330	80.24	-2.70	0.90	 	 	 	 	 	 	 	 	 	 	 	 	 	 	 	 	 	 	1581532544	0.72	1.33
12/02/2020 18:35:45	120220	12022020	183545	80.50	12.418760	-56.733518	80.56	0.340	-0.570	0.180	80.50	-2.10	0.70	 	 	 	 	 	 	 	 	 	 	 	 	 	 	 	 	 	 	1581532545	0.09	0.17
12/02/2020 18:35:46	120220	12022020	183546	80.80	12.418758	-56.733518	80.79	-0.120	0.310	0.210	80.80	-1.20	0.70	 	 	 	 	 	 	 	 	 	 	 	 	 	 	 	 	 	 	1581532546	0.45	0.83
12/02/2020 18:35:47	120220	12022020	183547	80.75	12.418755	-56.733522	80.70	-0.470	1.110	0.490	80.75	-0.40	0.90	 	 	 	 	 	 	 	 	 	 	 	 	 	 	 	 	 	 	1581532547	0.71	1.31
12/02/2020 18:35:48	120220	12022020	183548	80.43	12.418753	-56.733523	80.40	-0.540	1.250	0.930	80.43	-0.10	1.40	 	 	 	 	 	 	 	 	 	 	 	 	 	 	 	 	 	 	1581532548	0.60	1.11
12/02/2020 18:35:49	120220	12022020	183549	80.20	12.418752	-56.733523	80.18	-0.330	0.550	1.350	80.20	-0.70	1.80	 	 	 	 	 	 	 	 	 	 	 	 	 	 	 	 	 	 	1581532549	0.40	0.74
12/02/2020 18:35:50	120220	12022020	183550	80.09	12.418752	-56.733518	80.09	-0.050	-0.500	1.760	80.09	-1.80	2.20	 	 	 	 	 	 	 	 	 	 	 	 	 	 	 	 	 	 	1581532550	0.82	1.52
12/02/2020 18:35:51	120220	12022020	183551	80.10	12.418752	-56.733515	80.12	0.070	-1.220	1.990	80.10	-2.60	2.50	 	 	 	 	 	 	 	 	 	 	 	 	 	 	 	 	 	 	1581532551	0.75	1.39
12/02/2020 18:35:52	120220	12022020	183552	80.26	12.418752	-56.733515	80.31	0.020	-1.210	1.990	80.26	-2.70	2.50	 	 	 	 	 	 	 	 	 	 	 	 	 	 	 	 	 	 	1581532552	0.21	0.39
12/02/2020 18:35:53	120220	12022020	183553	80.55	12.418750	-56.733517	80.62	-0.020	-0.660	2.010	80.55	-2.20	2.50	 	 	 	 	 	 	 	 	 	 	 	 	 	 	 	 	 	 	1581532553	0.44	0.81
12/02/2020 18:35:54	120220	12022020	183554	80.87	12.418748	-56.733518	80.93	0.080	-0.110	1.960	80.87	-1.60	2.40	 	 	 	 	 	 	 	 	 	 	 	 	 	 	 	 	 	 	1581532554	0.64	1.19
12/02/2020 18:35:55	120220	12022020	183555	81.03	12.418748	-56.733518	81.07	0.260	0.060	1.740	81.03	-1.40	2.20	 	 	 	 	 	 	 	 	 	 	 	 	 	 	 	 	 	 	1581532555	0.22	0.41
12/02/2020 18:35:56	120220	12022020	183556	80.88	12.418748	-56.733518	80.88	0.330	-0.060	1.580	80.88	-1.50	2.10	 	 	 	 	 	 	 	 	 	 	 	 	 	 	 	 	 	 	1581532556	0.36	0.67
12/02/2020 18:35:57	120220	12022020	183557	80.63	12.418750	-56.733517	80.60	0.180	-0.120	1.490	80.63	-1.50	2.00	 	 	 	 	 	 	 	 	 	 	 	 	 	 	 	 	 	 	1581532557	0.50	0.93
12/02/2020 18:35:58	120220	12022020	183558	80.49	12.418752	-56.733515	80.51	-0.090	0.050	1.300	80.49	-1.40	1.80	 	 	 	 	 	 	 	 	 	 	 	 	 	 	 	 	 	 	1581532558	0.22	0.41
12/02/2020 18:35:59	120220	12022020	183559	80.61	12.418753	-56.733517	80.63	-0.300	0.260	0.920	80.61	-1.20	1.50	 	 	 	 	 	 	 	 	 	 	 	 	 	 	 	 	 	 	1581532559	0.43	0.80
12/02/2020 18:36:00	120220	12022020	183600	80.60	12.418755	-56.733518	80.60	-0.310	0.250	0.720	80.60	-1.20	1.20	 	 	 	 	 	 	 	 	 	 	 	 	 	 	 	 	 	 	1581532560	0.48	0.89
12/02/2020 18:36:01	120220	12022020	183601	80.39	12.418755	-56.733518	80.38	-0.170	-0.170	0.720	80.39	-1.50	1.20	 	 	 	 	 	 	 	 	 	 	 	 	 	 	 	 	 	 	1581532561	0.28	0.52
12/02/2020 18:36:02	120220	12022020	183602	80.28	12.418757	-56.733517	80.30	0.020	-0.750	0.730	80.28	-2.10	1.20	1014.80	25.10	25.20	20.70	20.80	314.0	76.0	76.0	411.0	26.7	334.00	11.40	53.00	11.10	30719	11433.0	27.4	27.4	1581532562	0.55	1.02
12/02/2020 18:36:03	120220	12022020	183603	80.41	12.418758	-56.733513	80.44	0.120	-0.900	0.760	80.41	-2.30	1.20	 	 	 	 	 	 	 	 	 	 	 	 	 	 	 	 	 	 	1581532563	0.49	0.91
12/02/2020 18:36:04	120220	12022020	183604	80.76	12.418757	-56.733513	80.81	0.010	-0.380	0.850	80.76	-1.90	1.30	 	 	 	 	 	 	 	 	 	 	 	 	 	 	 	 	 	 	1581532564	0.27	0.50
12/02/2020 18:36:05	120220	12022020	183605	81.11	12.418753	-56.733517	81.15	-0.230	0.250	1.050	81.11	-1.20	1.50	 	 	 	 	 	 	 	 	 	 	 	 	 	 	 	 	 	 	1581532565	0.78	1.44
12/02/2020 18:36:06	120220	12022020	183606	81.22	12.418750	-56.733518	81.24	-0.340	0.390	1.490	81.22	-1.00	1.90	 	 	 	 	 	 	 	 	 	 	 	 	 	 	 	 	 	 	1581532566	0.76	1.41
12/02/2020 18:36:07	120220	12022020	183607	81.01	12.418747	-56.733517	81.03	-0.100	-0.060	2.100	81.01	-1.40	2.50	 	 	 	 	 	 	 	 	 	 	 	 	 	 	 	 	 	 	1581532567	0.84	1.56
12/02/2020 18:36:08	120220	12022020	183608	80.49	12.418743	-56.733513	80.49	0.410	-0.750	2.550	80.49	-2.10	3.00	 	 	 	 	 	 	 	 	 	 	 	 	 	 	 	 	 	 	1581532568	1.02	1.89
12/02/2020 18:36:09	120220	12022020	183609	80.07	12.418745	-56.733508	80.03	0.880	-1.180	2.440	80.07	-2.60	3.00	 	 	 	 	 	 	 	 	 	 	 	 	 	 	 	 	 	 	1581532569	0.86	1.59
12/02/2020 18:36:10	120220	12022020	183610	80.03	12.418750	-56.733507	80.08	0.900	-0.860	1.740	80.03	-2.40	2.30	 	 	 	 	 	 	 	 	 	 	 	 	 	 	 	 	 	 	1581532570	1.14	2.11
12/02/2020 18:36:11	120220	12022020	183611	80.44	12.418755	-56.733510	80.49	0.270	0.230	0.980	80.44	-1.40	1.60	 	 	 	 	 	 	 	 	 	 	 	 	 	 	 	 	 	 	1581532571	1.42	2.63
12/02/2020 18:36:12	120220	12022020	183612	80.85	12.418758	-56.733517	80.88	-0.680	1.230	0.550	80.85	-0.30	1.10	 	 	 	 	 	 	 	 	 	 	 	 	 	 	 	 	 	 	1581532572	1.35	2.50
12/02/2020 18:36:13	120220	12022020	183613	80.93	12.418757	-56.733520	80.93	-1.250	1.320	0.640	80.93	-0.10	1.10	 	 	 	 	 	 	 	 	 	 	 	 	 	 	 	 	 	 	1581532573	0.79	1.46
12/02/2020 18:36:14	120220	12022020	183614	80.77	12.418753	-56.733518	80.76	-1.080	0.410	0.860	80.77	-0.80	1.30	 	 	 	 	 	 	 	 	 	 	 	 	 	 	 	 	 	 	1581532574	0.76	1.41
12/02/2020 18:36:15	120220	12022020	183615	80.55	12.418752	-56.733513	80.53	-0.450	-0.770	0.970	80.55	-2.00	1.40	 	 	 	 	 	 	 	 	 	 	 	 	 	 	 	 	 	 	1581532575	0.99	1.83
12/02/2020 18:36:16	120220	12022020	183616	80.21	12.418752	-56.733510	80.19	0.150	-1.380	1.220	80.21	-2.80	1.70	 	 	 	 	 	 	 	 	 	 	 	 	 	 	 	 	 	 	1581532576	0.67	1.24
12/02/2020 18:36:17	120220	12022020	183617	79.87	12.418752	-56.733512	79.87	0.440	-1.200	1.570	79.87	-2.70	2.00	 	 	 	 	 	 	 	 	 	 	 	 	 	 	 	 	 	 	1581532577	0.13	0.24
12/02/2020 18:36:18	120220	12022020	183618	79.88	12.418752	-56.733513	79.93	0.520	-0.790	1.620	79.88	-2.20	2.10	 	 	 	 	 	 	 	 	 	 	 	 	 	 	 	 	 	 	1581532578	0.43	0.80
12/02/2020 18:36:19	120220	12022020	183619	80.31	12.418752	-56.733513	80.37	0.590	-0.600	1.270	80.31	-2.00	1.80	 	 	 	 	 	 	 	 	 	 	 	 	 	 	 	 	 	 	1581532579	0.26	0.48
12/02/2020 18:36:20	120220	12022020	183620	80.66	12.418753	-56.733512	80.69	0.640	-0.450	1.080	80.66	-1.90	1.60	 	 	 	 	 	 	 	 	 	 	 	 	 	 	 	 	 	 	1581532580	0.32	0.59
12/02/2020 18:36:21	120220	12022020	183621	80.60	12.418750	-56.733510	80.51	0.510	-0.000	1.330	80.60	-1.50	1.80	 	 	 	 	 	 	 	 	 	 	 	 	 	 	 	 	 	 	1581532581	0.52	0.96
12/02/2020 18:36:22	120220	12022020	183622	79.98	12.418748	-56.733512	79.94	0.110	0.720	1.610	79.98	-0.80	2.10	 	 	 	 	 	 	 	 	 	 	 	 	 	 	 	 	 	 	1581532582	0.54	1.00
12/02/2020 18:36:23	120220	12022020	183623	79.39	12.418748	-56.733515	79.36	-0.500	1.350	1.600	79.39	-0.10	2.10	 	 	 	 	 	 	 	 	 	 	 	 	 	 	 	 	 	 	1581532583	0.60	1.11
12/02/2020 18:36:24	120220	12022020	183624	79.11	12.418752	-56.733518	79.11	-1.010	1.380	1.310	79.11	0.00	1.90	 	 	 	 	 	 	 	 	 	 	 	 	 	 	 	 	 	 	1581532584	0.99	1.83
12/02/2020 18:36:25	120220	12022020	183625	79.15	12.418755	-56.733520	79.16	-1.050	0.570	0.830	79.15	-0.70	1.40	 	 	 	 	 	 	 	 	 	 	 	 	 	 	 	 	 	 	1581532585	0.99	1.83
12/02/2020 18:36:26	120220	12022020	183626	79.34	12.418760	-56.733518	79.35	-0.540	-0.810	0.290	79.34	-2.00	0.90	 	 	 	 	 	 	 	 	 	 	 	 	 	 	 	 	 	 	1581532586	1.05	1.94
12/02/2020 18:36:27	120220	12022020	183627	79.56	12.418763	-56.733515	79.56	0.210	-2.050	-0.120	79.56	-3.30	0.40	 	 	 	 	 	 	 	 	 	 	 	 	 	 	 	 	 	 	1581532587	1.07	1.98
12/02/2020 18:36:28	120220	12022020	183628	79.70	12.418763	-56.733512	79.71	0.770	-2.400	-0.000	79.70	-3.80	0.40	 	 	 	 	 	 	 	 	 	 	 	 	 	 	 	 	 	 	1581532588	0.72	1.33
12/02/2020 18:36:29	120220	12022020	183629	79.76	12.418758	-56.733510	79.77	0.870	-1.590	0.740	79.76	-3.10	1.10	 	 	 	 	 	 	 	 	 	 	 	 	 	 	 	 	 	 	1581532589	1.13	2.09
12/02/2020 18:36:30	120220	12022020	183630	79.61	12.418750	-56.733512	79.61	0.560	-0.130	1.690	79.61	-1.70	2.00	 	 	 	 	 	 	 	 	 	 	 	 	 	 	 	 	 	 	1581532590	1.78	3.30
12/02/2020 18:36:31	120220	12022020	183631	79.14	12.418745	-56.733515	79.11	0.130	1.090	2.270	79.14	-0.50	2.70	 	 	 	 	 	 	 	 	 	 	 	 	 	 	 	 	 	 	1581532591	1.40	2.59
12/02/2020 18:36:32	120220	12022020	183632	78.54	12.418745	-56.733517	78.52	-0.210	1.530	2.170	78.54	0.10	2.70	 	 	 	 	 	 	 	 	 	 	 	 	 	 	 	 	 	 	1581532592	0.46	0.85
12/02/2020 18:36:33	120220	12022020	183633	78.19	12.418752	-56.733518	78.11	-0.340	1.210	1.610	78.19	-0.10	2.20	 	 	 	 	 	 	 	 	 	 	 	 	 	 	 	 	 	 	1581532593	1.21	2.24
12/02/2020 18:36:34	120220	12022020	183634	78.12	12.418758	-56.733518	78.15	-0.300	0.470	0.830	78.12	-0.80	1.40	 	 	 	 	 	 	 	 	 	 	 	 	 	 	 	 	 	 	1581532594	1.59	2.94
12/02/2020 18:36:35	120220	12022020	183635	78.46	12.418765	-56.733517	78.60	-0.240	-0.310	-0.080	78.46	-1.60	0.50	 	 	 	 	 	 	 	 	 	 	 	 	 	 	 	 	 	 	1581532595	1.40	2.59
12/02/2020 18:36:36	120220	12022020	183636	79.10	12.418768	-56.733517	79.11	-0.220	-0.940	-0.820	79.10	-2.30	-0.30	 	 	 	 	 	 	 	 	 	 	 	 	 	 	 	 	 	 	1581532596	0.85	1.57
12/02/2020 18:36:37	120220	12022020	183637	79.22	12.418770	-56.733517	79.18	-0.150	-1.320	-0.830	79.22	-2.70	-0.40	 	 	 	 	 	 	 	 	 	 	 	 	 	 	 	 	 	 	1581532597	0.15	0.28
12/02/2020 18:36:38	120220	12022020	183638	78.87	12.418765	-56.733515	78.84	0.010	-1.330	0.030	78.87	-2.80	0.30	 	 	 	 	 	 	 	 	 	 	 	 	 	 	 	 	 	 	1581532598	0.78	1.44
12/02/2020 18:36:39	120220	12022020	183639	78.53	12.418760	-56.733515	78.54	0.250	-0.950	1.170	78.53	-2.40	1.50	 	 	 	 	 	 	 	 	 	 	 	 	 	 	 	 	 	 	1581532599	1.38	2.56
12/02/2020 18:36:40	120220	12022020	183640	78.44	12.418753	-56.733513	78.49	0.490	-0.380	1.980	78.44	-1.90	2.40	 	 	 	 	 	 	 	 	 	 	 	 	 	 	 	 	 	 	1581532600	1.29	2.39
12/02/2020 18:36:41	120220	12022020	183641	78.36	12.418750	-56.733513	78.41	0.510	0.310	2.390	78.36	-1.20	2.80	 	 	 	 	 	 	 	 	 	 	 	 	 	 	 	 	 	 	1581532601	0.75	1.39
12/02/2020 18:36:42	120220	12022020	183642	78.22	12.418750	-56.733517	78.27	0.130	1.060	2.410	78.22	-0.50	2.90	 	 	 	 	 	 	 	 	 	 	 	 	 	 	 	 	 	 	1581532602	0.45	0.83
12/02/2020 18:36:43	120220	12022020	183643	78.21	12.418752	-56.733520	78.27	-0.480	1.380	2.030	78.21	-0.00	2.60	 	 	 	 	 	 	 	 	 	 	 	 	 	 	 	 	 	 	1581532603	0.85	1.57
12/02/2020 18:36:44	120220	12022020	183644	78.39	12.418755	-56.733522	78.43	-0.810	0.770	1.320	78.39	-0.50	1.90	 	 	 	 	 	 	 	 	 	 	 	 	 	 	 	 	 	 	1581532604	1.03	1.91
12/02/2020 18:36:45	120220	12022020	183645	78.59	12.418762	-56.733520	78.60	-0.480	-0.620	0.580	78.59	-1.80	1.10	 	 	 	 	 	 	 	 	 	 	 	 	 	 	 	 	 	 	1581532605	1.28	2.37
12/02/2020 18:36:46	120220	12022020	183646	78.70	12.418765	-56.733515	78.71	0.290	-1.850	0.150	78.70	-3.10	0.70	 	 	 	 	 	 	 	 	 	 	 	 	 	 	 	 	 	 	1581532606	1.29	2.39
12/02/2020 18:36:47	120220	12022020	183647	78.73	12.418765	-56.733513	78.73	0.830	-2.000	0.070	78.73	-3.50	0.50	 	 	 	 	 	 	 	 	 	 	 	 	 	 	 	 	 	 	1581532607	0.65	1.20
12/02/2020 18:36:48	120220	12022020	183648	78.66	12.418763	-56.733513	78.64	0.740	-1.050	0.220	78.66	-2.60	0.70	 	 	 	 	 	 	 	 	 	 	 	 	 	 	 	 	 	 	1581532608	0.42	0.78
12/02/2020 18:36:49	120220	12022020	183649	78.53	12.418762	-56.733518	78.52	0.200	0.260	0.510	78.53	-1.30	0.90	 	 	 	 	 	 	 	 	 	 	 	 	 	 	 	 	 	 	1581532609	0.96	1.78
12/02/2020 18:36:50	120220	12022020	183650	78.51	12.418762	-56.733522	78.52	-0.250	1.100	0.780	78.51	-0.40	1.20	 	 	 	 	 	 	 	 	 	 	 	 	 	 	 	 	 	 	1581532610	0.84	1.56
12/02/2020 18:36:51	120220	12022020	183651	78.62	12.418762	-56.733523	78.64	-0.400	1.200	0.910	78.62	-0.20	1.40	 	 	 	 	 	 	 	 	 	 	 	 	 	 	 	 	 	 	1581532611	0.30	0.56
12/02/2020 18:36:52	120220	12022020	183652	78.81	12.418762	-56.733523	78.83	-0.350	0.690	0.880	78.81	-0.60	1.40	 	 	 	 	 	 	 	 	 	 	 	 	 	 	 	 	 	 	1581532612	0.16	0.30
12/02/2020 18:36:53	120220	12022020	183653	79.01	12.418763	-56.733522	79.04	-0.210	-0.240	0.860	79.01	-1.50	1.30	 	 	 	 	 	 	 	 	 	 	 	 	 	 	 	 	 	 	1581532613	0.44	0.81
12/02/2020 18:36:54	120220	12022020	183654	78.98	12.418762	-56.733518	79.00	0.000	-1.140	1.160	78.98	-2.50	1.60	 	 	 	 	 	 	 	 	 	 	 	 	 	 	 	 	 	 	1581532614	0.73	1.35
12/02/2020 18:36:55	120220	12022020	183655	78.71	12.418760	-56.733515	78.73	0.280	-1.440	1.690	78.71	-2.90	2.10	 	 	 	 	 	 	 	 	 	 	 	 	 	 	 	 	 	 	1581532615	0.85	1.57
12/02/2020 18:36:56	120220	12022020	183656	78.53	12.418757	-56.733515	78.57	0.460	-1.000	2.100	78.53	-2.50	2.50	 	 	 	 	 	 	 	 	 	 	 	 	 	 	 	 	 	 	1581532616	0.63	1.17
12/02/2020 18:36:57	120220	12022020	183657	78.59	12.418755	-56.733517	78.64	0.410	-0.310	1.990	78.59	-1.80	2.50	 	 	 	 	 	 	 	 	 	 	 	 	 	 	 	 	 	 	1581532617	0.51	0.94
12/02/2020 18:36:58	120220	12022020	183658	78.80	12.418758	-56.733518	78.84	0.200	0.170	1.220	78.80	-1.30	1.80	 	 	 	 	 	 	 	 	 	 	 	 	 	 	 	 	 	 	1581532618	0.87	1.61
12/02/2020 18:36:59	120220	12022020	183659	78.99	12.418765	-56.733522	79.06	-0.060	0.560	0.350	78.99	-0.90	0.90	 	 	 	 	 	 	 	 	 	 	 	 	 	 	 	 	 	 	1581532619	1.26	2.33
12/02/2020 18:37:00	120220	12022020	183700	79.17	12.418768	-56.733523	79.17	-0.280	0.820	-0.070	79.17	-0.60	0.40	 	 	 	 	 	 	 	 	 	 	 	 	 	 	 	 	 	 	1581532620	0.91	1.69
12/02/2020 18:37:01	120220	12022020	183701	79.14	12.418770	-56.733525	79.12	-0.380	0.510	-0.150	79.14	-0.80	0.30	 	 	 	 	 	 	 	 	 	 	 	 	 	 	 	 	 	 	1581532621	0.45	0.83
12/02/2020 18:37:02	120220	12022020	183702	79.00	12.418772	-56.733522	78.99	-0.280	-0.430	-0.070	79.00	-1.70	0.40	1014.90	25.20	25.30	20.90	20.90	582.0	76.0	76.0	413.0	26.8	339.00	10.50	57.00	10.20	42990	10283.0	27.4	27.4	1581532622	0.53	0.98
12/02/2020 18:37:03	120220	12022020	183703	78.95	12.418772	-56.733518	78.97	-0.030	-1.320	0.130	78.95	-2.60	0.60	 	 	 	 	 	 	 	 	 	 	 	 	 	 	 	 	 	 	1581532623	0.94	1.74
12/02/2020 18:37:04	120220	12022020	183704	79.09	12.418770	-56.733515	79.13	0.150	-1.310	0.390	79.09	-2.80	0.80	 	 	 	 	 	 	 	 	 	 	 	 	 	 	 	 	 	 	1581532624	0.62	1.15
12/02/2020 18:37:05	120220	12022020	183705	79.20	12.418767	-56.733517	79.23	0.150	-0.500	0.790	79.20	-2.00	1.20	 	 	 	 	 	 	 	 	 	 	 	 	 	 	 	 	 	 	1581532625	0.71	1.31
12/02/2020 18:37:06	120220	12022020	183706	79.15	12.418763	-56.733520	79.18	0.050	0.420	1.350	79.15	-1.10	1.70	 	 	 	 	 	 	 	 	 	 	 	 	 	 	 	 	 	 	1581532626	1.03	1.91
12/02/2020 18:37:07	120220	12022020	183707	79.17	12.418762	-56.733523	79.21	0.020	0.700	1.670	79.17	-0.70	2.10	 	 	 	 	 	 	 	 	 	 	 	 	 	 	 	 	 	 	1581532627	0.68	1.26
12/02/2020 18:37:08	120220	12022020	183708	79.28	12.418762	-56.733522	79.31	0.120	0.180	1.600	79.28	-1.10	2.10	 	 	 	 	 	 	 	 	 	 	 	 	 	 	 	 	 	 	1581532628	0.29	0.54
12/02/2020 18:37:09	120220	12022020	183709	79.22	12.418763	-56.733517	79.23	0.260	-0.570	1.430	79.22	-1.90	1.90	 	 	 	 	 	 	 	 	 	 	 	 	 	 	 	 	 	 	1581532629	0.89	1.65
12/02/2020 18:37:10	120220	12022020	183710	79.09	12.418765	-56.733515	79.10	0.270	-0.790	1.310	79.09	-2.20	1.80	 	 	 	 	 	 	 	 	 	 	 	 	 	 	 	 	 	 	1581532630	0.76	1.41
12/02/2020 18:37:11	120220	12022020	183711	79.05	12.418767	-56.733515	79.07	0.020	-0.270	1.260	79.05	-1.80	1.70	 	 	 	 	 	 	 	 	 	 	 	 	 	 	 	 	 	 	1581532631	0.40	0.74
12/02/2020 18:37:12	120220	12022020	183712	79.01	12.418768	-56.733520	79.02	-0.350	0.380	1.110	79.01	-1.10	1.60	 	 	 	 	 	 	 	 	 	 	 	 	 	 	 	 	 	 	1581532632	0.90	1.67
12/02/2020 18:37:13	120220	12022020	183713	78.90	12.418770	-56.733522	78.89	-0.530	0.370	0.790	78.90	-1.00	1.30	 	 	 	 	 	 	 	 	 	 	 	 	 	 	 	 	 	 	1581532633	0.71	1.31
12/02/2020 18:37:14	120220	12022020	183714	78.78	12.418772	-56.733522	78.78	-0.350	-0.240	0.560	78.78	-1.60	1.10	 	 	 	 	 	 	 	 	 	 	 	 	 	 	 	 	 	 	1581532634	0.52	0.96
12/02/2020 18:37:15	120220	12022020	183715	78.84	12.418773	-56.733518	78.86	0.090	-0.770	0.420	78.84	-2.10	0.90	 	 	 	 	 	 	 	 	 	 	 	 	 	 	 	 	 	 	1581532635	0.66	1.22
12/02/2020 18:37:16	120220	12022020	183716	78.99	12.418773	-56.733517	79.01	0.450	-0.800	0.310	78.99	-2.20	0.80	 	 	 	 	 	 	 	 	 	 	 	 	 	 	 	 	 	 	1581532636	0.37	0.69
12/02/2020 18:37:17	120220	12022020	183717	79.03	12.418773	-56.733517	79.04	0.460	-0.430	0.320	79.03	-1.90	0.80	 	 	 	 	 	 	 	 	 	 	 	 	 	 	 	 	 	 	1581532637	0.09	0.17
12/02/2020 18:37:18	120220	12022020	183718	78.87	12.418772	-56.733518	78.87	0.160	0.040	0.620	78.87	-1.40	1.00	 	 	 	 	 	 	 	 	 	 	 	 	 	 	 	 	 	 	1581532638	0.39	0.72
12/02/2020 18:37:19	120220	12022020	183719	78.56	12.418770	-56.733518	78.57	-0.180	0.310	1.100	78.56	-1.10	1.50	 	 	 	 	 	 	 	 	 	 	 	 	 	 	 	 	 	 	1581532639	0.55	1.02
12/02/2020 18:37:20	120220	12022020	183720	78.32	12.418768	-56.733520	78.33	-0.360	0.270	1.330	78.32	-1.10	1.80	 	 	 	 	 	 	 	 	 	 	 	 	 	 	 	 	 	 	1581532640	0.33	0.61
12/02/2020 18:37:21	120220	12022020	183721	78.28	12.418768	-56.733518	78.31	-0.260	-0.020	1.230	78.28	-1.40	1.70	 	 	 	 	 	 	 	 	 	 	 	 	 	 	 	 	 	 	1581532641	0.16	0.30
12/02/2020 18:37:22	120220	12022020	183722	78.34	12.418770	-56.733518	78.37	0.050	-0.460	1.050	78.34	-1.80	1.50	 	 	 	 	 	 	 	 	 	 	 	 	 	 	 	 	 	 	1581532642	0.50	0.93
12/02/2020 18:37:23	120220	12022020	183723	78.33	12.418772	-56.733515	78.34	0.350	-0.810	1.070	78.33	-2.20	1.50	 	 	 	 	 	 	 	 	 	 	 	 	 	 	 	 	 	 	1581532643	0.61	1.13
12/02/2020 18:37:24	120220	12022020	183724	78.25	12.418773	-56.733513	78.28	0.380	-0.740	1.190	78.25	-2.20	1.60	 	 	 	 	 	 	 	 	 	 	 	 	 	 	 	 	 	 	1581532644	0.37	0.69
12/02/2020 18:37:25	120220	12022020	183725	78.23	12.418772	-56.733515	78.28	0.040	-0.190	1.280	78.23	-1.70	1.70	 	 	 	 	 	 	 	 	 	 	 	 	 	 	 	 	 	 	1581532645	0.28	0.52
12/02/2020 18:37:26	120220	12022020	183726	78.30	12.418770	-56.733518	78.35	-0.380	0.420	1.220	78.30	-1.10	1.70	 	 	 	 	 	 	 	 	 	 	 	 	 	 	 	 	 	 	1581532646	0.70	1.30
12/02/2020 18:37:27	120220	12022020	183727	78.32	12.418768	-56.733520	78.37	-0.560	0.640	1.190	78.32	-0.80	1.60	 	 	 	 	 	 	 	 	 	 	 	 	 	 	 	 	 	 	1581532647	0.58	1.07
12/02/2020 18:37:28	120220	12022020	183728	78.33	12.418768	-56.733520	78.38	-0.410	0.320	1.150	78.33	-1.00	1.60	 	 	 	 	 	 	 	 	 	 	 	 	 	 	 	 	 	 	1581532648	0.10	0.19
12/02/2020 18:37:29	120220	12022020	183729	78.38	12.418768	-56.733518	78.41	-0.090	-0.320	1.030	78.38	-1.60	1.50	 	 	 	 	 	 	 	 	 	 	 	 	 	 	 	 	 	 	1581532649	0.38	0.70
12/02/2020 18:37:30	120220	12022020	183730	78.29	12.418770	-56.733517	78.31	0.250	-0.910	0.860	78.29	-2.30	1.40	 	 	 	 	 	 	 	 	 	 	 	 	 	 	 	 	 	 	1581532650	0.58	1.07
12/02/2020 18:37:31	120220	12022020	183731	78.12	12.418772	-56.733515	78.14	0.500	-1.160	0.700	78.12	-2.60	1.20	 	 	 	 	 	 	 	 	 	 	 	 	 	 	 	 	 	 	1581532651	0.47	0.87
12/02/2020 18:37:32	120220	12022020	183732	78.01	12.418773	-56.733513	78.05	0.580	-0.950	0.650	78.01	-2.40	1.10	 	 	 	 	 	 	 	 	 	 	 	 	 	 	 	 	 	 	1581532652	0.23	0.43
12/02/2020 18:37:33	120220	12022020	183733	78.11	12.418773	-56.733515	78.17	0.370	-0.240	0.610	78.11	-1.80	1.10	 	 	 	 	 	 	 	 	 	 	 	 	 	 	 	 	 	 	1581532653	0.30	0.56
12/02/2020 18:37:34	120220	12022020	183734	78.44	12.418775	-56.733518	78.51	-0.180	0.750	0.480	78.44	-0.80	1.00	 	 	 	 	 	 	 	 	 	 	 	 	 	 	 	 	 	 	1581532654	0.85	1.57
12/02/2020 18:37:35	120220	12022020	183735	78.72	12.418775	-56.733523	78.78	-0.810	1.380	0.450	78.72	-0.10	0.90	 	 	 	 	 	 	 	 	 	 	 	 	 	 	 	 	 	 	1581532655	1.07	1.98
12/02/2020 18:37:36	120220	12022020	183736	78.72	12.418772	-56.733527	78.75	-0.980	0.980	0.700	78.72	-0.30	1.10	 	 	 	 	 	 	 	 	 	 	 	 	 	 	 	 	 	 	1581532656	0.68	1.26
12/02/2020 18:37:37	120220	12022020	183737	78.47	12.418768	-56.733522	78.50	-0.410	-0.470	1.110	78.47	-1.70	1.50	 	 	 	 	 	 	 	 	 	 	 	 	 	 	 	 	 	 	1581532657	1.04	1.93
12/02/2020 18:37:38	120220	12022020	183738	78.21	12.418767	-56.733515	78.27	0.480	-1.870	1.510	78.21	-3.10	1.90	 	 	 	 	 	 	 	 	 	 	 	 	 	 	 	 	 	 	1581532658	1.56	2.89
12/02/2020 18:37:39	120220	12022020	183739	78.15	12.418767	-56.733510	78.22	0.950	-2.060	1.750	78.15	-3.50	2.20	 	 	 	 	 	 	 	 	 	 	 	 	 	 	 	 	 	 	1581532659	0.92	1.70
12/02/2020 18:37:40	120220	12022020	183740	78.38	12.418767	-56.733513	78.46	0.660	-0.930	1.590	78.38	-2.60	2.10	 	 	 	 	 	 	 	 	 	 	 	 	 	 	 	 	 	 	1581532660	0.45	0.83
12/02/2020 18:37:41	120220	12022020	183741	78.73	12.418768	-56.733520	78.79	-0.100	0.720	1.160	78.73	-0.90	1.70	 	 	 	 	 	 	 	 	 	 	 	 	 	 	 	 	 	 	1581532661	1.46	2.70
12/02/2020 18:37:42	120220	12022020	183742	78.90	12.418768	-56.733527	78.94	-0.800	1.840	0.880	78.90	0.30	1.40	 	 	 	 	 	 	 	 	 	 	 	 	 	 	 	 	 	 	1581532662	1.61	2.98
12/02/2020 18:37:43	120220	12022020	183743	78.90	12.418767	-56.733532	78.93	-0.990	1.590	0.760	78.90	0.30	1.20	 	 	 	 	 	 	 	 	 	 	 	 	 	 	 	 	 	 	1581532663	0.79	1.46
12/02/2020 18:37:44	120220	12022020	183744	78.82	12.418767	-56.733528	78.83	-0.540	0.090	0.670	78.82	-1.10	1.10	 	 	 	 	 	 	 	 	 	 	 	 	 	 	 	 	 	 	1581532664	0.55	1.02
12/02/2020 18:37:45	120220	12022020	183745	78.67	12.418768	-56.733523	78.68	0.230	-1.430	0.640	78.67	-2.70	1.10	 	 	 	 	 	 	 	 	 	 	 	 	 	 	 	 	 	 	1581532665	1.24	2.30
12/02/2020 18:37:46	120220	12022020	183746	78.48	12.418770	-56.733520	78.50	0.760	-1.910	0.750	78.48	-3.30	1.20	 	 	 	 	 	 	 	 	 	 	 	 	 	 	 	 	 	 	1581532666	0.75	1.39
12/02/2020 18:37:47	120220	12022020	183747	78.37	12.418770	-56.733522	78.42	0.740	-1.350	0.980	78.37	-2.90	1.40	 	 	 	 	 	 	 	 	 	 	 	 	 	 	 	 	 	 	1581532667	0.32	0.59
12/02/2020 18:37:48	120220	12022020	183748	78.42	12.418768	-56.733525	78.48	0.350	-0.520	1.190	78.42	-2.00	1.60	 	 	 	 	 	 	 	 	 	 	 	 	 	 	 	 	 	 	1581532668	0.78	1.44
12/02/2020 18:37:49	120220	12022020	183749	78.53	12.418767	-56.733527	78.63	0.030	0.070	1.280	78.53	-1.40	1.70	 	 	 	 	 	 	 	 	 	 	 	 	 	 	 	 	 	 	1581532669	0.53	0.98
12/02/2020 18:37:50	120220	12022020	183750	78.59	12.418767	-56.733527	78.65	-0.030	0.490	1.350	78.59	-1.00	1.80	 	 	 	 	 	 	 	 	 	 	 	 	 	 	 	 	 	 	1581532670	0.23	0.43
12/02/2020 18:37:51	120220	12022020	183751	78.65	12.418767	-56.733527	78.71	-0.070	0.870	1.190	78.65	-0.60	1.70	 	 	 	 	 	 	 	 	 	 	 	 	 	 	 	 	 	 	1581532671	0.22	0.41
12/02/2020 18:37:52	120220	12022020	183752	78.87	12.418768	-56.733530	78.93	-0.270	0.950	0.850	78.87	-0.50	1.40	 	 	 	 	 	 	 	 	 	 	 	 	 	 	 	 	 	 	1581532672	0.56	1.04
12/02/2020 18:37:53	120220	12022020	183753	79.09	12.418768	-56.733532	79.12	-0.500	0.490	0.660	79.09	-0.80	1.10	 	 	 	 	 	 	 	 	 	 	 	 	 	 	 	 	 	 	1581532673	0.34	0.63
12/02/2020 18:37:54	120220	12022020	183754	79.09	12.418768	-56.733530	79.10	-0.450	-0.400	0.790	79.09	-1.70	1.20	 	 	 	 	 	 	 	 	 	 	 	 	 	 	 	 	 	 	1581532674	0.29	0.54
12/02/2020 18:37:55	120220	12022020	183755	78.85	12.418767	-56.733527	78.87	-0.110	-1.140	1.070	78.85	-2.50	1.50	 	 	 	 	 	 	 	 	 	 	 	 	 	 	 	 	 	 	1581532675	0.62	1.15
12/02/2020 18:37:56	120220	12022020	183756	78.53	12.418765	-56.733527	78.55	0.130	-1.100	1.350	78.53	-2.60	1.80	 	 	 	 	 	 	 	 	 	 	 	 	 	 	 	 	 	 	1581532676	0.35	0.65
12/02/2020 18:37:57	120220	12022020	183757	78.37	12.418763	-56.733530	78.43	0.050	-0.440	1.480	78.37	-1.90	1.90	 	 	 	 	 	 	 	 	 	 	 	 	 	 	 	 	 	 	1581532677	0.74	1.37
12/02/2020 18:37:58	120220	12022020	183758	78.49	12.418763	-56.733533	78.56	-0.120	-0.020	1.350	78.49	-1.40	1.80	 	 	 	 	 	 	 	 	 	 	 	 	 	 	 	 	 	 	1581532678	0.85	1.57
12/02/2020 18:37:59	120220	12022020	183759	78.67	12.418763	-56.733533	78.73	0.050	-0.480	0.980	78.67	-1.80	1.50	 	 	 	 	 	 	 	 	 	 	 	 	 	 	 	 	 	 	1581532679	0.30	0.56
12/02/2020 18:38:00	120220	12022020	183800	78.85	12.418768	-56.733528	78.91	0.530	-1.160	0.620	78.85	-2.50	1.10	 	 	 	 	 	 	 	 	 	 	 	 	 	 	 	 	 	 	1581532680	1.22	2.26
12/02/2020 18:38:01	120220	12022020	183801	79.03	12.418770	-56.733525	79.13	0.810	-0.840	0.350	79.03	-2.40	0.90	 	 	 	 	 	 	 	 	 	 	 	 	 	 	 	 	 	 	1581532681	0.88	1.63
12/02/2020 18:38:02	120220	12022020	183802	79.35	12.418772	-56.733528	79.39	0.540	0.390	0.280	79.35	-1.20	0.70	1014.90	25.50	25.50	21.20	21.20	519.0	77.0	77.0	420.0	26.9	344.00	10.10	62.00	9.80	40173	10511.0	27.4	27.4	1581532682	0.73	1.35
12/02/2020 18:38:03	120220	12022020	183803	79.51	12.418770	-56.733535	79.53	-0.070	1.410	0.520	79.51	-0.10	0.90	 	 	 	 	 	 	 	 	 	 	 	 	 	 	 	 	 	 	1581532683	1.29	2.39
12/02/2020 18:38:04	120220	12022020	183804	79.38	12.418765	-56.733537	79.37	-0.540	1.360	1.150	79.38	-0.00	1.50	 	 	 	 	 	 	 	 	 	 	 	 	 	 	 	 	 	 	1581532684	1.04	1.93
12/02/2020 18:38:05	120220	12022020	183805	79.04	12.418760	-56.733535	79.06	-0.630	0.500	1.890	79.04	-0.80	2.30	 	 	 	 	 	 	 	 	 	 	 	 	 	 	 	 	 	 	1581532685	1.05	1.94
12/02/2020 18:38:06	120220	12022020	183806	78.77	12.418758	-56.733532	78.81	-0.530	-0.390	2.290	78.77	-1.70	2.70	 	 	 	 	 	 	 	 	 	 	 	 	 	 	 	 	 	 	1581532686	0.83	1.54
12/02/2020 18:38:07	120220	12022020	183807	78.76	12.418758	-56.733532	78.82	-0.400	-0.930	2.130	78.76	-2.30	2.60	 	 	 	 	 	 	 	 	 	 	 	 	 	 	 	 	 	 	1581532687	0.17	0.31
12/02/2020 18:38:08	120220	12022020	183808	78.98	12.418762	-56.733532	79.06	-0.180	-1.180	1.540	78.98	-2.60	2.10	 	 	 	 	 	 	 	 	 	 	 	 	 	 	 	 	 	 	1581532688	0.76	1.41
12/02/2020 18:38:09	120220	12022020	183809	79.29	12.418767	-56.733533	79.36	0.220	-1.240	0.910	79.29	-2.70	1.40	 	 	 	 	 	 	 	 	 	 	 	 	 	 	 	 	 	 	1581532689	0.93	1.72
12/02/2020 18:38:10	120220	12022020	183810	79.59	12.418768	-56.733535	79.65	0.670	-1.130	0.470	79.59	-2.60	1.00	 	 	 	 	 	 	 	 	 	 	 	 	 	 	 	 	 	 	1581532690	0.57	1.06
12/02/2020 18:38:11	120220	12022020	183811	79.78	12.418768	-56.733533	79.81	0.930	-0.890	0.320	79.78	-2.40	0.80	 	 	 	 	 	 	 	 	 	 	 	 	 	 	 	 	 	 	1581532691	0.22	0.41
12/02/2020 18:38:12	120220	12022020	183812	79.77	12.418767	-56.733532	79.76	0.810	-0.380	0.520	79.77	-1.90	0.90	 	 	 	 	 	 	 	 	 	 	 	 	 	 	 	 	 	 	1581532692	0.52	0.96
12/02/2020 18:38:13	120220	12022020	183813	79.56	12.418765	-56.733532	79.48	0.260	0.590	0.840	79.56	-1.00	1.30	 	 	 	 	 	 	 	 	 	 	 	 	 	 	 	 	 	 	1581532693	0.54	1.00
12/02/2020 18:38:14	120220	12022020	183814	79.18	12.418763	-56.733537	79.17	-0.540	1.710	1.000	79.18	0.10	1.50	 	 	 	 	 	 	 	 	 	 	 	 	 	 	 	 	 	 	1581532694	0.95	1.76
12/02/2020 18:38:15	120220	12022020	183815	79.11	12.418763	-56.733542	79.15	-1.220	2.200	0.870	79.11	0.80	1.40	 	 	 	 	 	 	 	 	 	 	 	 	 	 	 	 	 	 	1581532695	1.25	2.31
12/02/2020 18:38:16	120220	12022020	183816	79.32	12.418765	-56.733545	79.36	-1.340	1.410	0.570	79.32	0.20	1.10	 	 	 	 	 	 	 	 	 	 	 	 	 	 	 	 	 	 	1581532696	0.75	1.39
12/02/2020 18:38:17	120220	12022020	183817	79.51	12.418767	-56.733543	79.53	-0.740	-0.570	0.400	79.51	-1.70	0.90	 	 	 	 	 	 	 	 	 	 	 	 	 	 	 	 	 	 	1581532697	0.70	1.30
12/02/2020 18:38:18	120220	12022020	183818	79.49	12.418768	-56.733537	79.52	0.230	-2.700	0.540	79.49	-3.90	1.00	 	 	 	 	 	 	 	 	 	 	 	 	 	 	 	 	 	 	1581532698	1.52	2.82
12/02/2020 18:38:19	120220	12022020	183819	79.44	12.418768	-56.733530	79.49	1.010	-3.540	0.920	79.44	-5.00	1.30	 	 	 	 	 	 	 	 	 	 	 	 	 	 	 	 	 	 	1581532699	1.41	2.61
12/02/2020 18:38:20	120220	12022020	183820	79.46	12.418765	-56.733528	79.54	1.260	-2.450	1.550	79.46	-4.10	1.90	 	 	 	 	 	 	 	 	 	 	 	 	 	 	 	 	 	 	1581532700	0.82	1.52
12/02/2020 18:38:21	120220	12022020	183821	79.57	12.418758	-56.733533	79.65	0.940	-0.250	2.150	79.57	-2.00	2.50	 	 	 	 	 	 	 	 	 	 	 	 	 	 	 	 	 	 	1581532701	1.69	3.13
12/02/2020 18:38:22	120220	12022020	183822	79.73	12.418753	-56.733540	79.82	0.260	1.690	2.350	79.73	0.00	2.80	 	 	 	 	 	 	 	 	 	 	 	 	 	 	 	 	 	 	1581532702	1.83	3.39
12/02/2020 18:38:23	120220	12022020	183823	79.89	12.418753	-56.733545	79.95	-0.460	2.480	2.050	79.89	1.00	2.60	 	 	 	 	 	 	 	 	 	 	 	 	 	 	 	 	 	 	1581532703	1.00	1.85
12/02/2020 18:38:24	120220	12022020	183824	79.85	12.418755	-56.733547	79.86	-0.870	2.100	1.450	79.85	0.80	2.00	 	 	 	 	 	 	 	 	 	 	 	 	 	 	 	 	 	 	1581532704	0.60	1.11
12/02/2020 18:38:25	120220	12022020	183825	79.59	12.418760	-56.733545	79.58	-0.850	0.850	0.690	79.59	-0.40	1.30	 	 	 	 	 	 	 	 	 	 	 	 	 	 	 	 	 	 	1581532705	1.06	1.96
12/02/2020 18:38:26	120220	12022020	183826	79.32	12.418767	-56.733542	79.30	-0.530	-0.740	-0.030	79.32	-2.00	0.50	 	 	 	 	 	 	 	 	 	 	 	 	 	 	 	 	 	 	1581532706	1.43	2.65
12/02/2020 18:38:27	120220	12022020	183827	79.26	12.418772	-56.733540	79.29	-0.140	-1.920	-0.530	79.26	-3.20	0.00	 	 	 	 	 	 	 	 	 	 	 	 	 	 	 	 	 	 	1581532707	1.25	2.31
12/02/2020 18:38:28	120220	12022020	183828	79.63	12.418773	-56.733538	79.68	0.180	-2.240	-0.780	79.63	-3.70	-0.30	 	 	 	 	 	 	 	 	 	 	 	 	 	 	 	 	 	 	1581532708	0.49	0.91
12/02/2020 18:38:29	120220	12022020	183829	80.23	12.418772	-56.733538	80.27	0.340	-1.690	-0.690	80.23	-3.20	-0.30	 	 	 	 	 	 	 	 	 	 	 	 	 	 	 	 	 	 	1581532709	0.40	0.74
12/02/2020 18:38:30	120220	12022020	183830	80.65	12.418767	-56.733540	80.66	0.370	-0.710	-0.200	80.65	-2.30	0.20	 	 	 	 	 	 	 	 	 	 	 	 	 	 	 	 	 	 	1581532710	1.15	2.13
12/02/2020 18:38:31	120220	12022020	183831	80.67	12.418758	-56.733542	80.67	0.370	0.180	0.600	80.67	-1.40	0.90	 	 	 	 	 	 	 	 	 	 	 	 	 	 	 	 	 	 	1581532711	1.56	2.89
12/02/2020 18:38:32	120220	12022020	183832	80.29	12.418752	-56.733540	80.28	0.420	0.640	1.520	80.29	-0.80	1.80	 	 	 	 	 	 	 	 	 	 	 	 	 	 	 	 	 	 	1581532712	1.47	2.72
12/02/2020 18:38:33	120220	12022020	183833	79.66	12.418748	-56.733538	79.67	0.430	0.770	2.290	79.66	-0.70	2.70	 	 	 	 	 	 	 	 	 	 	 	 	 	 	 	 	 	 	1581532713	0.94	1.74
12/02/2020 18:38:34	120220	12022020	183834	79.19	12.418748	-56.733538	79.22	0.230	0.840	2.620	79.19	-0.60	3.10	 	 	 	 	 	 	 	 	 	 	 	 	 	 	 	 	 	 	1581532714	0.16	0.30
12/02/2020 18:38:35	120220	12022020	183835	79.11	12.418752	-56.733540	79.16	-0.130	0.770	2.320	79.11	-0.60	2.90	 	 	 	 	 	 	 	 	 	 	 	 	 	 	 	 	 	 	1581532715	0.72	1.33
12/02/2020 18:38:36	120220	12022020	183836	79.46	12.418757	-56.733540	79.52	-0.410	0.240	1.460	79.46	-1.10	2.10	 	 	 	 	 	 	 	 	 	 	 	 	 	 	 	 	 	 	1581532716	1.08	2.00
12/02/2020 18:38:37	120220	12022020	183837	79.87	12.418760	-56.733540	79.99	-0.420	-0.710	0.600	79.87	-2.00	1.20	 	 	 	 	 	 	 	 	 	 	 	 	 	 	 	 	 	 	1581532717	0.98	1.81
12/02/2020 18:38:38	120220	12022020	183838	80.18	12.418762	-56.733537	80.19	-0.230	-1.460	0.240	80.18	-2.80	0.70	 	 	 	 	 	 	 	 	 	 	 	 	 	 	 	 	 	 	1581532718	0.75	1.39
12/02/2020 18:38:39	120220	12022020	183839	80.11	12.418760	-56.733535	80.08	-0.000	-1.430	0.460	80.11	-2.90	0.90	 	 	 	 	 	 	 	 	 	 	 	 	 	 	 	 	 	 	1581532719	0.60	1.11
12/02/2020 18:38:40	120220	12022020	183840	79.89	12.418757	-56.733535	79.90	0.140	-0.790	0.890	79.89	-2.30	1.30	 	 	 	 	 	 	 	 	 	 	 	 	 	 	 	 	 	 	1581532720	0.87	1.61
12/02/2020 18:38:41	120220	12022020	183841	79.68	12.418752	-56.733537	79.70	0.200	-0.090	1.340	79.68	-1.60	1.70	 	 	 	 	 	 	 	 	 	 	 	 	 	 	 	 	 	 	1581532721	0.88	1.63
12/02/2020 18:38:42	120220	12022020	183842	79.33	12.418750	-56.733537	79.34	0.210	0.300	1.720	79.33	-1.20	2.10	 	 	 	 	 	 	 	 	 	 	 	 	 	 	 	 	 	 	1581532722	0.62	1.15
12/02/2020 18:38:43	120220	12022020	183843	79.05	12.418748	-56.733535	79.09	0.160	0.370	1.750	79.05	-1.00	2.20	 	 	 	 	 	 	 	 	 	 	 	 	 	 	 	 	 	 	1581532723	0.35	0.65
12/02/2020 18:38:44	120220	12022020	183844	78.99	12.418750	-56.733535	79.03	0.080	0.300	1.340	78.99	-1.10	1.90	 	 	 	 	 	 	 	 	 	 	 	 	 	 	 	 	 	 	1581532724	0.36	0.67
12/02/2020 18:38:45	120220	12022020	183845	79.04	12.418753	-56.733535	79.08	0.030	0.160	0.800	79.04	-1.20	1.30	 	 	 	 	 	 	 	 	 	 	 	 	 	 	 	 	 	 	1581532725	0.73	1.35
12/02/2020 18:38:46	120220	12022020	183846	79.17	12.418757	-56.733533	79.21	0.060	-0.170	0.340	79.17	-1.50	0.90	 	 	 	 	 	 	 	 	 	 	 	 	 	 	 	 	 	 	1581532726	0.86	1.59
12/02/2020 18:38:47	120220	12022020	183847	79.40	12.418760	-56.733533	79.44	0.120	-0.510	0.090	79.40	-1.90	0.60	 	 	 	 	 	 	 	 	 	 	 	 	 	 	 	 	 	 	1581532727	0.73	1.35
12/02/2020 18:38:48	120220	12022020	183848	79.54	12.418760	-56.733532	79.56	-0.020	-0.330	0.180	79.54	-1.80	0.60	 	 	 	 	 	 	 	 	 	 	 	 	 	 	 	 	 	 	1581532728	0.16	0.30
12/02/2020 18:38:49	120220	12022020	183849	79.50	12.418757	-56.733533	79.52	-0.430	0.160	0.560	79.50	-1.30	1.00	 	 	 	 	 	 	 	 	 	 	 	 	 	 	 	 	 	 	1581532729	0.75	1.39
12/02/2020 18:38:50	120220	12022020	183850	79.40	12.418753	-56.733535	79.44	-0.690	0.090	1.070	79.40	-1.30	1.50	 	 	 	 	 	 	 	 	 	 	 	 	 	 	 	 	 	 	1581532730	0.86	1.59
12/02/2020 18:38:51	120220	12022020	183851	79.34	12.418750	-56.733532	79.39	-0.360	-0.800	1.530	79.34	-2.10	1.90	 	 	 	 	 	 	 	 	 	 	 	 	 	 	 	 	 	 	1581532731	0.95	1.76
12/02/2020 18:38:52	120220	12022020	183852	79.15	12.418748	-56.733525	79.21	0.390	-1.520	2.030	79.15	-2.90	2.40	 	 	 	 	 	 	 	 	 	 	 	 	 	 	 	 	 	 	1581532732	1.50	2.78
12/02/2020 18:38:53	120220	12022020	183853	78.90	12.418747	-56.733522	78.91	0.920	-1.210	2.330	78.90	-2.70	2.80	 	 	 	 	 	 	 	 	 	 	 	 	 	 	 	 	 	 	1581532733	0.87	1.61
12/02/2020 18:38:54	120220	12022020	183854	78.72	12.418747	-56.733523	78.81	0.810	-0.030	2.100	78.72	-1.60	2.60	 	 	 	 	 	 	 	 	 	 	 	 	 	 	 	 	 	 	1581532734	0.40	0.74
12/02/2020 18:38:55	120220	12022020	183855	78.99	12.418750	-56.733530	79.07	0.110	1.360	1.350	78.99	-0.30	1.90	 	 	 	 	 	 	 	 	 	 	 	 	 	 	 	 	 	 	1581532735	1.46	2.70
12/02/2020 18:38:56	120220	12022020	183856	79.48	12.418755	-56.733537	79.54	-0.730	2.160	0.470	79.48	0.70	1.10	 	 	 	 	 	 	 	 	 	 	 	 	 	 	 	 	 	 	1581532736	1.75	3.24
12/02/2020 18:38:57	120220	12022020	183857	79.87	12.418757	-56.733540	79.89	-1.150	1.510	-0.170	79.87	0.30	0.40	 	 	 	 	 	 	 	 	 	 	 	 	 	 	 	 	 	 	1581532737	0.91	1.69
12/02/2020 18:38:58	120220	12022020	183858	79.98	12.418757	-56.733537	79.98	-0.830	-0.690	-0.340	79.98	-1.80	0.10	 	 	 	 	 	 	 	 	 	 	 	 	 	 	 	 	 	 	1581532738	0.95	1.76
12/02/2020 18:38:59	120220	12022020	183859	79.77	12.418757	-56.733525	79.77	0.050	-2.990	0.030	79.77	-4.20	0.40	 	 	 	 	 	 	 	 	 	 	 	 	 	 	 	 	 	 	1581532739	2.24	4.15
12/02/2020 18:39:00	120220	12022020	183900	79.32	12.418753	-56.733517	79.32	0.920	-3.370	0.830	79.32	-4.90	1.20	 	 	 	 	 	 	 	 	 	 	 	 	 	 	 	 	 	 	1581532740	1.75	3.24
12/02/2020 18:39:01	120220	12022020	183901	78.86	12.418750	-56.733518	78.89	1.140	-1.560	1.590	78.86	-3.30	2.00	 	 	 	 	 	 	 	 	 	 	 	 	 	 	 	 	 	 	1581532741	0.87	1.61
12/02/2020 18:39:02	120220	12022020	183902	78.73	12.418748	-56.733528	78.80	0.630	0.800	1.880	78.73	-0.90	2.30	1014.90	25.50	25.60	21.10	21.20	586.0	76.0	76.0	426.0	26.9	345.00	11.30	64.00	10.90	43491	11497.0	27.4	27.4	1581532742	1.84	3.41
12/02/2020 18:39:03	120220	12022020	183903	79.02	12.418748	-56.733535	79.25	-0.180	2.120	1.580	79.02	0.60	2.10	 	 	 	 	 	 	 	 	 	 	 	 	 	 	 	 	 	 	1581532743	1.53	2.83
12/02/2020 18:39:04	120220	12022020	183904	79.94	12.418752	-56.733537	80.03	-0.780	2.130	1.060	79.94	0.70	1.60	 	 	 	 	 	 	 	 	 	 	 	 	 	 	 	 	 	 	1581532744	0.80	1.48
12/02/2020 18:39:05	120220	12022020	183905	80.45	12.418753	-56.733537	80.58	-0.930	1.280	0.760	80.45	-0.00	1.20	 	 	 	 	 	 	 	 	 	 	 	 	 	 	 	 	 	 	1581532745	0.40	0.74
12/02/2020 18:39:06	120220	12022020	183906	80.65	12.418753	-56.733533	80.66	-0.690	-0.100	0.710	80.65	-1.30	1.20	 	 	 	 	 	 	 	 	 	 	 	 	 	 	 	 	 	 	1581532746	0.62	1.15
12/02/2020 18:39:07	120220	12022020	183907	80.43	12.418752	-56.733528	80.43	-0.240	-1.560	0.900	80.43	-2.80	1.30	 	 	 	 	 	 	 	 	 	 	 	 	 	 	 	 	 	 	1581532747	1.02	1.89
12/02/2020 18:39:08	120220	12022020	183908	80.07	12.418748	-56.733525	80.09	0.300	-2.430	1.410	80.07	-3.80	1.80	 	 	 	 	 	 	 	 	 	 	 	 	 	 	 	 	 	 	1581532748	1.17	2.17
12/02/2020 18:39:09	120220	12022020	183909	79.66	12.418745	-56.733522	79.70	0.780	-2.210	2.010	79.66	-3.70	2.40	 	 	 	 	 	 	 	 	 	 	 	 	 	 	 	 	 	 	1581532749	0.86	1.59
12/02/2020 18:39:10	120220	12022020	183910	79.35	12.418743	-56.733523	79.42	0.910	-1.040	2.070	79.35	-2.60	2.60	 	 	 	 	 	 	 	 	 	 	 	 	 	 	 	 	 	 	1581532750	0.40	0.74
12/02/2020 18:39:11	120220	12022020	183911	79.39	12.418747	-56.733528	79.47	0.540	0.470	1.340	79.39	-1.20	1.90	 	 	 	 	 	 	 	 	 	 	 	 	 	 	 	 	 	 	1581532751	1.27	2.35
12/02/2020 18:39:12	120220	12022020	183912	79.77	12.418753	-56.733533	79.85	-0.110	1.540	0.290	79.77	0.00	0.90	 	 	 	 	 	 	 	 	 	 	 	 	 	 	 	 	 	 	1581532752	1.79	3.32
12/02/2020 18:39:13	120220	12022020	183913	80.28	12.418758	-56.733537	80.34	-0.660	1.710	-0.510	80.28	0.30	0.00	 	 	 	 	 	 	 	 	 	 	 	 	 	 	 	 	 	 	1581532753	1.25	2.31
12/02/2020 18:39:14	120220	12022020	183914	80.70	12.418762	-56.733537	80.73	-0.850	1.020	-0.840	80.70	-0.30	-0.40	 	 	 	 	 	 	 	 	 	 	 	 	 	 	 	 	 	 	1581532754	0.46	0.85
12/02/2020 18:39:15	120220	12022020	183915	80.82	12.418760	-56.733533	80.81	-0.610	-0.020	-0.610	80.82	-1.30	-0.20	 	 	 	 	 	 	 	 	 	 	 	 	 	 	 	 	 	 	1581532755	0.68	1.26
12/02/2020 18:39:16	120220	12022020	183916	80.51	12.418757	-56.733530	80.49	-0.070	-1.010	0.130	80.51	-2.30	0.50	 	 	 	 	 	 	 	 	 	 	 	 	 	 	 	 	 	 	1581532756	1.02	1.89
12/02/2020 18:39:17	120220	12022020	183917	79.99	12.418753	-56.733527	79.98	0.550	-1.750	1.070	79.99	-3.10	1.40	 	 	 	 	 	 	 	 	 	 	 	 	 	 	 	 	 	 	1581532757	0.97	1.80
12/02/2020 18:39:18	120220	12022020	183918	79.63	12.418752	-56.733523	79.67	0.920	-1.890	1.890	79.63	-3.30	2.30	 	 	 	 	 	 	 	 	 	 	 	 	 	 	 	 	 	 	1581532758	0.72	1.33
12/02/2020 18:39:19	120220	12022020	183919	79.59	12.418750	-56.733523	79.69	0.830	-1.150	2.330	79.59	-2.70	2.80	 	 	 	 	 	 	 	 	 	 	 	 	 	 	 	 	 	 	1581532759	0.20	0.37
12/02/2020 18:39:20	120220	12022020	183920	79.90	12.418750	-56.733525	80.00	0.330	0.070	2.300	79.90	-1.50	2.80	 	 	 	 	 	 	 	 	 	 	 	 	 	 	 	 	 	 	1581532760	0.54	1.00
12/02/2020 18:39:21	120220	12022020	183921	80.26	12.418750	-56.733528	80.35	-0.290	0.990	1.980	80.26	-0.50	2.50	 	 	 	 	 	 	 	 	 	 	 	 	 	 	 	 	 	 	1581532761	0.66	1.22
12/02/2020 18:39:22	120220	12022020	183922	80.43	12.418750	-56.733530	80.49	-0.700	1.190	1.630	80.43	-0.20	2.10	 	 	 	 	 	 	 	 	 	 	 	 	 	 	 	 	 	 	1581532762	0.23	0.43
12/02/2020 18:39:23	120220	12022020	183923	80.36	12.418750	-56.733528	80.40	-0.720	0.870	1.380	80.36	-0.50	1.90	 	 	 	 	 	 	 	 	 	 	 	 	 	 	 	 	 	 	1581532763	0.25	0.46
12/02/2020 18:39:24	120220	12022020	183924	80.18	12.418750	-56.733527	80.21	-0.500	0.390	1.090	80.18	-1.00	1.60	 	 	 	 	 	 	 	 	 	 	 	 	 	 	 	 	 	 	1581532764	0.32	0.59
12/02/2020 18:39:25	120220	12022020	183925	79.96	12.418752	-56.733527	79.97	-0.250	-0.160	0.720	79.96	-1.50	1.20	 	 	 	 	 	 	 	 	 	 	 	 	 	 	 	 	 	 	1581532765	0.36	0.67
12/02/2020 18:39:26	120220	12022020	183926	79.66	12.418755	-56.733527	79.67	0.020	-0.810	0.330	79.66	-2.10	0.90	 	 	 	 	 	 	 	 	 	 	 	 	 	 	 	 	 	 	1581532766	0.67	1.24
12/02/2020 18:39:27	120220	12022020	183927	79.39	12.418760	-56.733525	79.38	0.380	-1.470	-0.110	79.39	-2.80	0.40	 	 	 	 	 	 	 	 	 	 	 	 	 	 	 	 	 	 	1581532767	1.10	2.04
12/02/2020 18:39:28	120220	12022020	183928	79.38	12.418765	-56.733522	79.40	0.720	-1.660	-0.530	79.38	-3.10	-0.00	 	 	 	 	 	 	 	 	 	 	 	 	 	 	 	 	 	 	1581532768	1.29	2.39
12/02/2020 18:39:29	120220	12022020	183929	79.65	12.418770	-56.733522	79.81	0.770	-1.040	-0.760	79.65	-2.60	-0.30	 	 	 	 	 	 	 	 	 	 	 	 	 	 	 	 	 	 	1581532769	0.89	1.65
12/02/2020 18:39:30	120220	12022020	183930	80.38	12.418770	-56.733523	80.44	0.470	0.050	-0.570	80.38	-1.50	-0.20	 	 	 	 	 	 	 	 	 	 	 	 	 	 	 	 	 	 	1581532770	0.56	1.04
12/02/2020 18:39:31	120220	12022020	183931	80.72	12.418767	-56.733527	80.74	0.040	0.910	0.370	80.72	-0.60	0.70	 	 	 	 	 	 	 	 	 	 	 	 	 	 	 	 	 	 	1581532771	1.08	2.00
12/02/2020 18:39:32	120220	12022020	183932	80.43	12.418757	-56.733527	80.44	-0.270	1.090	1.900	80.43	-0.30	2.10	 	 	 	 	 	 	 	 	 	 	 	 	 	 	 	 	 	 	1581532772	1.88	3.48
12/02/2020 18:39:33	120220	12022020	183933	79.74	12.418748	-56.733523	79.78	-0.360	0.600	3.360	79.74	-0.70	3.60	 	 	 	 	 	 	 	 	 	 	 	 	 	 	 	 	 	 	1581532773	2.04	3.78
12/02/2020 18:39:34	120220	12022020	183934	79.17	12.418743	-56.733518	79.24	-0.280	-0.230	4.040	79.17	-1.50	4.50	 	 	 	 	 	 	 	 	 	 	 	 	 	 	 	 	 	 	1581532774	1.38	2.56
12/02/2020 18:39:35	120220	12022020	183935	79.13	12.418747	-56.733515	79.26	-0.150	-0.860	3.690	79.13	-2.20	4.20	 	 	 	 	 	 	 	 	 	 	 	 	 	 	 	 	 	 	1581532775	0.88	1.63
12/02/2020 18:39:36	120220	12022020	183936	79.67	12.418752	-56.733515	79.82	-0.180	-0.800	2.630	79.67	-2.30	3.30	 	 	 	 	 	 	 	 	 	 	 	 	 	 	 	 	 	 	1581532776	1.23	2.28
12/02/2020 18:39:37	120220	12022020	183937	80.50	12.418758	-56.733518	80.62	-0.380	-0.180	1.240	80.50	-1.70	1.90	 	 	 	 	 	 	 	 	 	 	 	 	 	 	 	 	 	 	1581532777	1.54	2.85
12/02/2020 18:39:38	120220	12022020	183938	81.14	12.418763	-56.733523	81.18	-0.500	0.290	-0.090	81.14	-1.20	0.50	 	 	 	 	 	 	 	 	 	 	 	 	 	 	 	 	 	 	1581532778	1.50	2.78
12/02/2020 18:39:39	120220	12022020	183939	81.10	12.418767	-56.733525	81.05	-0.230	0.070	-0.850	81.10	-1.30	-0.30	 	 	 	 	 	 	 	 	 	 	 	 	 	 	 	 	 	 	1581532779	0.88	1.63
12/02/2020 18:39:40	120220	12022020	183940	80.46	12.418768	-56.733523	80.38	0.380	-0.630	-0.900	80.46	-2.00	-0.40	 	 	 	 	 	 	 	 	 	 	 	 	 	 	 	 	 	 	1581532780	0.69	1.28
12/02/2020 18:39:41	120220	12022020	183941	79.97	12.418770	-56.733520	79.84	0.890	-1.170	-0.700	79.97	-2.50	-0.20	 	 	 	 	 	 	 	 	 	 	 	 	 	 	 	 	 	 	1581532781	0.90	1.67
12/02/2020 18:39:42	120220	12022020	183942	79.84	12.418773	-56.733517	79.86	0.940	-1.110	-0.600	79.84	-2.60	-0.10	 	 	 	 	 	 	 	 	 	 	 	 	 	 	 	 	 	 	1581532782	0.70	1.30
12/02/2020 18:39:43	120220	12022020	183943	80.15	12.418775	-56.733517	80.28	0.500	-0.410	-0.480	80.15	-2.00	-0.00	 	 	 	 	 	 	 	 	 	 	 	 	 	 	 	 	 	 	1581532783	0.36	0.67
12/02/2020 18:39:44	120220	12022020	183944	80.76	12.418773	-56.733520	80.79	-0.170	0.570	-0.080	80.76	-1.00	0.30	 	 	 	 	 	 	 	 	 	 	 	 	 	 	 	 	 	 	1581532784	0.58	1.07
12/02/2020 18:39:45	120220	12022020	183945	81.07	12.418768	-56.733522	81.10	-0.730	1.160	0.790	81.07	-0.30	1.10	 	 	 	 	 	 	 	 	 	 	 	 	 	 	 	 	 	 	1581532785	1.13	2.09
12/02/2020 18:39:46	120220	12022020	183946	81.02	12.418762	-56.733522	81.04	-0.900	1.000	1.860	81.02	-0.40	2.20	 	 	 	 	 	 	 	 	 	 	 	 	 	 	 	 	 	 	1581532786	1.59	2.94
12/02/2020 18:39:47	120220	12022020	183947	80.58	12.418755	-56.733520	80.61	-0.610	0.190	2.680	80.58	-1.10	3.00	 	 	 	 	 	 	 	 	 	 	 	 	 	 	 	 	 	 	1581532787	1.44	2.67
12/02/2020 18:39:48	120220	12022020	183948	80.09	12.418753	-56.733515	80.15	-0.040	-0.720	2.950	80.09	-2.00	3.40	 	 	 	 	 	 	 	 	 	 	 	 	 	 	 	 	 	 	1581532788	0.88	1.63
12/02/2020 18:39:49	120220	12022020	183949	80.02	12.418757	-56.733513	80.12	0.380	-1.170	2.640	80.02	-2.60	3.20	 	 	 	 	 	 	 	 	 	 	 	 	 	 	 	 	 	 	1581532789	0.76	1.41
12/02/2020 18:39:50	120220	12022020	183950	80.43	12.418762	-56.733515	80.53	0.420	-1.000	1.930	80.43	-2.50	2.50	 	 	 	 	 	 	 	 	 	 	 	 	 	 	 	 	 	 	1581532790	0.98	1.81
12/02/2020 18:39:51	120220	12022020	183951	80.95	12.418767	-56.733517	81.01	0.200	-0.600	0.980	80.95	-2.10	1.60	 	 	 	 	 	 	 	 	 	 	 	 	 	 	 	 	 	 	1581532791	1.17	2.17
12/02/2020 18:39:52	120220	12022020	183952	81.26	12.418772	-56.733518	81.28	0.000	-0.280	-0.020	81.26	-1.70	0.60	 	 	 	 	 	 	 	 	 	 	 	 	 	 	 	 	 	 	1581532792	1.18	2.19
12/02/2020 18:39:53	120220	12022020	183953	81.33	12.418775	-56.733520	81.30	-0.060	0.030	-0.600	81.33	-1.40	-0.10	 	 	 	 	 	 	 	 	 	 	 	 	 	 	 	 	 	 	1581532793	0.78	1.44
12/02/2020 18:39:54	120220	12022020	183954	81.13	12.418775	-56.733522	81.11	-0.040	0.360	-0.510	81.13	-1.10	-0.10	 	 	 	 	 	 	 	 	 	 	 	 	 	 	 	 	 	 	1581532794	0.22	0.41
12/02/2020 18:39:55	120220	12022020	183955	80.87	12.418772	-56.733522	80.79	0.010	0.450	0.020	80.87	-1.00	0.40	 	 	 	 	 	 	 	 	 	 	 	 	 	 	 	 	 	 	1581532795	0.65	1.20
12/02/2020 18:39:56	120220	12022020	183956	80.38	12.418770	-56.733520	80.38	0.080	0.050	0.580	80.38	-1.30	1.00	 	 	 	 	 	 	 	 	 	 	 	 	 	 	 	 	 	 	1581532796	0.47	0.87
12/02/2020 18:39:57	120220	12022020	183957	80.07	12.418770	-56.733518	80.09	0.140	-0.580	0.870	80.07	-1.90	1.30	 	 	 	 	 	 	 	 	 	 	 	 	 	 	 	 	 	 	1581532797	0.57	1.06
12/02/2020 18:39:58	120220	12022020	183958	80.22	12.418772	-56.733515	80.29	0.090	-0.930	0.810	80.22	-2.30	1.30	 	 	 	 	 	 	 	 	 	 	 	 	 	 	 	 	 	 	1581532798	0.72	1.33
12/02/2020 18:39:59	120220	12022020	183959	80.70	12.418773	-56.733515	80.78	-0.150	-0.680	0.660	80.70	-2.20	1.10	 	 	 	 	 	 	 	 	 	 	 	 	 	 	 	 	 	 	1581532799	0.33	0.61
12/02/2020 18:40:00	120220	12022020	184000	80.98	12.418772	-56.733518	81.03	-0.480	0.110	0.950	80.98	-1.40	1.30	 	 	 	 	 	 	 	 	 	 	 	 	 	 	 	 	 	 	1581532800	0.62	1.15
12/02/2020 18:40:01	120220	12022020	184001	80.80	12.418768	-56.733522	80.84	-0.660	0.870	1.650	80.80	-0.60	2.00	 	 	 	 	 	 	 	 	 	 	 	 	 	 	 	 	 	 	1581532801	1.31	2.43
12/02/2020 18:40:02	120220	12022020	184002	80.46	12.418763	-56.733525	80.50	-0.480	0.880	2.120	80.46	-0.50	2.50	1015.00	25.40	25.50	20.90	20.90	550.0	75.0	75.0	430.0	27.0	349.00	12.30	69.00	11.90	41166	9924.0	27.3	27.3	1581532802	1.02	1.89
12/02/2020 18:40:03	120220	12022020	184003	80.29	12.418763	-56.733523	80.35	0.040	-0.070	1.970	80.29	-1.30	2.50	 	 	 	 	 	 	 	 	 	 	 	 	 	 	 	 	 	 	1581532803	0.21	0.39
12/02/2020 18:40:04	120220	12022020	184004	80.34	12.418768	-56.733520	80.39	0.650	-1.350	1.360	80.34	-2.60	1.90	 	 	 	 	 	 	 	 	 	 	 	 	 	 	 	 	 	 	1581532804	1.26	2.33
12/02/2020 18:40:05	120220	12022020	184005	80.50	12.418773	-56.733515	80.54	0.930	-1.910	0.720	80.50	-3.30	1.20	 	 	 	 	 	 	 	 	 	 	 	 	 	 	 	 	 	 	1581532805	1.35	2.50
12/02/2020 18:40:06	120220	12022020	184006	80.55	12.418775	-56.733515	80.57	0.670	-1.240	0.460	80.55	-2.80	0.90	 	 	 	 	 	 	 	 	 	 	 	 	 	 	 	 	 	 	1581532806	0.33	0.61
12/02/2020 18:40:07	120220	12022020	184007	80.27	12.418773	-56.733518	80.25	0.080	0.030	0.700	80.27	-1.60	1.10	 	 	 	 	 	 	 	 	 	 	 	 	 	 	 	 	 	 	1581532807	0.87	1.61
12/02/2020 18:40:08	120220	12022020	184008	79.79	12.418770	-56.733523	79.77	-0.490	0.970	0.950	79.79	-0.50	1.40	 	 	 	 	 	 	 	 	 	 	 	 	 	 	 	 	 	 	1581532808	0.97	1.80
12/02/2020 18:40:09	120220	12022020	184009	79.57	12.418772	-56.733525	79.57	-0.760	1.210	0.470	79.57	-0.20	1.00	 	 	 	 	 	 	 	 	 	 	 	 	 	 	 	 	 	 	1581532809	0.67	1.24
12/02/2020 18:40:10	120220	12022020	184010	79.68	12.418778	-56.733527	79.68	-0.670	0.890	-0.410	79.68	-0.50	0.20	 	 	 	 	 	 	 	 	 	 	 	 	 	 	 	 	 	 	1581532810	1.39	2.57
12/02/2020 18:40:11	120220	12022020	184011	79.83	12.418783	-56.733527	79.84	-0.370	0.330	-0.960	79.83	-1.00	-0.40	 	 	 	 	 	 	 	 	 	 	 	 	 	 	 	 	 	 	1581532811	1.18	2.19
12/02/2020 18:40:12	120220	12022020	184012	79.84	12.418785	-56.733527	79.84	0.000	-0.440	-0.940	79.84	-1.70	-0.50	 	 	 	 	 	 	 	 	 	 	 	 	 	 	 	 	 	 	1581532812	0.37	0.69
12/02/2020 18:40:13	120220	12022020	184013	79.81	12.418785	-56.733525	79.82	0.330	-1.300	-0.580	79.81	-2.60	-0.20	 	 	 	 	 	 	 	 	 	 	 	 	 	 	 	 	 	 	1581532813	0.55	1.02
12/02/2020 18:40:14	120220	12022020	184014	79.99	12.418783	-56.733520	80.03	0.530	-1.840	-0.180	79.99	-3.20	0.20	 	 	 	 	 	 	 	 	 	 	 	 	 	 	 	 	 	 	1581532814	0.81	1.50
12/02/2020 18:40:15	120220	12022020	184015	80.28	12.418780	-56.733518	80.33	0.580	-1.580	0.330	80.28	-3.10	0.70	 	 	 	 	 	 	 	 	 	 	 	 	 	 	 	 	 	 	1581532815	0.72	1.33
12/02/2020 18:40:16	120220	12022020	184016	80.34	12.418775	-56.733520	80.39	0.420	-0.520	1.040	80.34	-2.10	1.40	 	 	 	 	 	 	 	 	 	 	 	 	 	 	 	 	 	 	1581532816	1.01	1.87
12/02/2020 18:40:17	120220	12022020	184017	80.00	12.418770	-56.733523	80.03	0.040	0.730	1.820	80.00	-0.90	2.20	 	 	 	 	 	 	 	 	 	 	 	 	 	 	 	 	 	 	1581532817	1.34	2.48
12/02/2020 18:40:18	120220	12022020	184018	79.36	12.418767	-56.733525	79.38	-0.400	1.500	2.420	79.36	0.00	2.80	 	 	 	 	 	 	 	 	 	 	 	 	 	 	 	 	 	 	1581532818	1.01	1.87
12/02/2020 18:40:19	120220	12022020	184019	78.92	12.418768	-56.733527	78.88	-0.620	1.400	2.400	78.92	0.00	2.90	 	 	 	 	 	 	 	 	 	 	 	 	 	 	 	 	 	 	1581532819	0.40	0.74
12/02/2020 18:40:20	120220	12022020	184020	78.82	12.418773	-56.733527	78.88	-0.480	0.530	1.670	78.82	-0.80	2.30	 	 	 	 	 	 	 	 	 	 	 	 	 	 	 	 	 	 	1581532820	1.33	2.46
12/02/2020 18:40:21	120220	12022020	184021	79.25	12.418782	-56.733525	79.32	-0.090	-0.660	0.540	79.25	-1.90	1.10	 	 	 	 	 	 	 	 	 	 	 	 	 	 	 	 	 	 	1581532821	1.71	3.17
12/02/2020 18:40:22	120220	12022020	184022	79.62	12.418787	-56.733523	79.66	0.240	-1.550	-0.230	79.62	-2.90	0.30	 	 	 	 	 	 	 	 	 	 	 	 	 	 	 	 	 	 	1581532822	1.12	2.07
12/02/2020 18:40:23	120220	12022020	184023	79.59	12.418785	-56.733522	79.58	0.320	-1.610	-0.360	79.59	-3.10	0.10	 	 	 	 	 	 	 	 	 	 	 	 	 	 	 	 	 	 	1581532823	0.33	0.61
12/02/2020 18:40:24	120220	12022020	184024	79.27	12.418783	-56.733523	79.28	0.220	-0.860	-0.170	79.27	-2.40	0.20	 	 	 	 	 	 	 	 	 	 	 	 	 	 	 	 	 	 	1581532824	0.63	1.17
12/02/2020 18:40:25	120220	12022020	184025	78.96	12.418782	-56.733525	78.97	0.100	-0.010	-0.010	78.96	-1.50	0.40	 	 	 	 	 	 	 	 	 	 	 	 	 	 	 	 	 	 	1581532825	0.75	1.39
12/02/2020 18:40:26	120220	12022020	184026	78.74	12.418782	-56.733527	78.76	0.070	0.300	0.080	78.74	-1.10	0.50	 	 	 	 	 	 	 	 	 	 	 	 	 	 	 	 	 	 	1581532826	0.30	0.56
12/02/2020 18:40:27	120220	12022020	184027	78.45	12.418783	-56.733527	78.46	0.060	0.210	0.290	78.45	-1.20	0.70	 	 	 	 	 	 	 	 	 	 	 	 	 	 	 	 	 	 	1581532827	0.39	0.72
12/02/2020 18:40:28	120220	12022020	184028	78.18	12.418783	-56.733525	78.22	-0.070	0.200	0.610	78.18	-1.20	1.00	 	 	 	 	 	 	 	 	 	 	 	 	 	 	 	 	 	 	1581532828	0.29	0.54
12/02/2020 18:40:29	120220	12022020	184029	78.18	12.418783	-56.733525	78.27	-0.260	0.360	0.780	78.18	-1.10	1.20	 	 	 	 	 	 	 	 	 	 	 	 	 	 	 	 	 	 	1581532829	0.17	0.31
12/02/2020 18:40:30	120220	12022020	184030	78.40	12.418782	-56.733527	78.46	-0.360	0.450	0.930	78.40	-1.00	1.30	 	 	 	 	 	 	 	 	 	 	 	 	 	 	 	 	 	 	1581532830	0.50	0.93
12/02/2020 18:40:31	120220	12022020	184031	78.38	12.418778	-56.733528	78.38	-0.260	0.190	1.290	78.38	-1.20	1.70	 	 	 	 	 	 	 	 	 	 	 	 	 	 	 	 	 	 	1581532831	0.67	1.24
12/02/2020 18:40:32	120220	12022020	184032	77.94	12.418775	-56.733525	77.95	0.060	-0.560	1.710	77.94	-1.90	2.10	 	 	 	 	 	 	 	 	 	 	 	 	 	 	 	 	 	 	1581532832	0.72	1.33
12/02/2020 18:40:33	120220	12022020	184033	77.40	12.418777	-56.733522	77.44	0.380	-1.350	1.850	77.40	-2.70	2.30	 	 	 	 	 	 	 	 	 	 	 	 	 	 	 	 	 	 	1581532833	0.78	1.44
12/02/2020 18:40:34	120220	12022020	184034	77.25	12.418780	-56.733520	77.33	0.480	-1.510	1.430	77.25	-2.90	2.00	 	 	 	 	 	 	 	 	 	 	 	 	 	 	 	 	 	 	1581532834	0.98	1.81
12/02/2020 18:40:35	120220	12022020	184035	77.67	12.418785	-56.733522	77.76	0.350	-0.910	0.730	77.67	-2.40	1.30	 	 	 	 	 	 	 	 	 	 	 	 	 	 	 	 	 	 	1581532835	1.19	2.20
12/02/2020 18:40:36	120220	12022020	184036	78.37	12.418788	-56.733525	78.45	0.140	0.030	0.200	78.37	-1.50	0.70	 	 	 	 	 	 	 	 	 	 	 	 	 	 	 	 	 	 	1581532836	0.95	1.76
12/02/2020 18:40:37	120220	12022020	184037	78.85	12.418787	-56.733527	78.89	0.000	0.680	0.100	78.85	-0.80	0.50	 	 	 	 	 	 	 	 	 	 	 	 	 	 	 	 	 	 	1581532837	0.58	1.07
12/02/2020 18:40:38	120220	12022020	184038	78.73	12.418783	-56.733527	78.73	-0.060	0.810	0.460	78.73	-0.60	0.80	 	 	 	 	 	 	 	 	 	 	 	 	 	 	 	 	 	 	1581532838	0.77	1.43
12/02/2020 18:40:39	120220	12022020	184039	78.17	12.418780	-56.733525	78.16	-0.180	0.680	0.950	78.17	-0.70	1.30	 	 	 	 	 	 	 	 	 	 	 	 	 	 	 	 	 	 	1581532839	0.90	1.67
12/02/2020 18:40:40	120220	12022020	184040	77.62	12.418778	-56.733525	77.63	-0.400	0.470	1.230	77.62	-0.90	1.70	 	 	 	 	 	 	 	 	 	 	 	 	 	 	 	 	 	 	1581532840	0.35	0.65
12/02/2020 18:40:41	120220	12022020	184041	77.32	12.418778	-56.733527	77.35	-0.590	0.170	1.270	77.32	-1.20	1.70	 	 	 	 	 	 	 	 	 	 	 	 	 	 	 	 	 	 	1581532841	0.35	0.65
12/02/2020 18:40:42	120220	12022020	184042	77.31	12.418782	-56.733528	77.37	-0.540	-0.370	1.110	77.31	-1.70	1.60	 	 	 	 	 	 	 	 	 	 	 	 	 	 	 	 	 	 	1581532842	0.57	1.06
12/02/2020 18:40:43	120220	12022020	184043	77.48	12.418785	-56.733527	77.61	-0.100	-1.250	0.660	77.48	-2.50	1.20	 	 	 	 	 	 	 	 	 	 	 	 	 	 	 	 	 	 	1581532843	0.67	1.24
12/02/2020 18:40:44	120220	12022020	184044	77.87	12.418788	-56.733523	77.93	0.630	-2.100	0.130	77.87	-3.40	0.60	 	 	 	 	 	 	 	 	 	 	 	 	 	 	 	 	 	 	1581532844	1.06	1.96
12/02/2020 18:40:45	120220	12022020	184045	78.06	12.418790	-56.733520	78.10	1.190	-2.030	-0.060	78.06	-3.50	0.40	 	 	 	 	 	 	 	 	 	 	 	 	 	 	 	 	 	 	1581532845	0.90	1.67
12/02/2020 18:40:46	120220	12022020	184046	78.09	12.418790	-56.733520	78.12	1.090	-0.730	0.180	78.09	-2.40	0.60	 	 	 	 	 	 	 	 	 	 	 	 	 	 	 	 	 	 	1581532846	0.12	0.22
12/02/2020 18:40:47	120220	12022020	184047	78.00	12.418787	-56.733525	78.03	0.360	1.070	0.850	78.00	-0.60	1.20	 	 	 	 	 	 	 	 	 	 	 	 	 	 	 	 	 	 	1581532847	1.18	2.19
12/02/2020 18:40:48	120220	12022020	184048	77.90	12.418783	-56.733530	77.95	-0.550	2.200	1.580	77.90	0.70	1.90	 	 	 	 	 	 	 	 	 	 	 	 	 	 	 	 	 	 	1581532848	1.45	2.69
12/02/2020 18:40:49	120220	12022020	184049	77.90	12.418778	-56.733532	77.95	-1.130	1.930	2.040	77.90	0.60	2.40	 	 	 	 	 	 	 	 	 	 	 	 	 	 	 	 	 	 	1581532849	0.95	1.76
12/02/2020 18:40:50	120220	12022020	184050	77.87	12.418775	-56.733528	77.92	-1.180	0.670	2.230	77.87	-0.60	2.60	 	 	 	 	 	 	 	 	 	 	 	 	 	 	 	 	 	 	1581532850	0.96	1.78
12/02/2020 18:40:51	120220	12022020	184051	77.64	12.418773	-56.733525	77.67	-0.830	-0.550	2.120	77.64	-1.80	2.60	 	 	 	 	 	 	 	 	 	 	 	 	 	 	 	 	 	 	1581532851	0.85	1.57
12/02/2020 18:40:52	120220	12022020	184052	77.18	12.418775	-56.733523	77.22	-0.230	-1.140	1.690	77.18	-2.50	2.20	 	 	 	 	 	 	 	 	 	 	 	 	 	 	 	 	 	 	1581532852	0.32	0.59
12/02/2020 18:40:53	120220	12022020	184053	76.79	12.418780	-56.733525	76.82	0.470	-1.400	0.990	76.79	-2.80	1.50	 	 	 	 	 	 	 	 	 	 	 	 	 	 	 	 	 	 	1581532853	1.01	1.87
12/02/2020 18:40:54	120220	12022020	184054	76.75	12.418787	-56.733527	76.79	1.020	-1.730	0.160	76.75	-3.10	0.70	 	 	 	 	 	 	 	 	 	 	 	 	 	 	 	 	 	 	1581532854	1.45	2.69
12/02/2020 18:40:55	120220	12022020	184055	77.09	12.418793	-56.733525	77.12	1.130	-1.830	-0.690	77.09	-3.30	-0.10	 	 	 	 	 	 	 	 	 	 	 	 	 	 	 	 	 	 	1581532855	1.57	2.91
12/02/2020 18:40:56	120220	12022020	184056	77.40	12.418798	-56.733525	77.46	0.750	-1.150	-1.290	77.45	-2.70	-0.80	 	 	 	 	 	 	 	 	 	 	 	 	 	 	 	 	 	 	1581532856	1.20	2.22
12/02/2020 18:40:57	120220	12022020	184057	77.53	12.418800	-56.733527	77.47	0.100	0.400	-1.230	77.53	-1.30	-0.80	 	 	 	 	 	 	 	 	 	 	 	 	 	 	 	 	 	 	1581532857	0.58	1.07
12/02/2020 18:40:58	120220	12022020	184058	77.25	12.418795	-56.733533	77.20	-0.520	2.030	-0.320	77.25	0.40	-0.00	 	 	 	 	 	 	 	 	 	 	 	 	 	 	 	 	 	 	1581532858	1.52	2.82
12/02/2020 18:40:59	120220	12022020	184059	76.71	12.418787	-56.733537	76.68	-0.900	2.630	1.090	76.71	1.20	1.30	 	 	 	 	 	 	 	 	 	 	 	 	 	 	 	 	 	 	1581532859	2.02	3.74
12/02/2020 18:41:00	120220	12022020	184100	76.03	12.418780	-56.733537	76.03	-0.920	1.740	2.380	76.03	0.50	2.70	 	 	 	 	 	 	 	 	 	 	 	 	 	 	 	 	 	 	1581532860	1.55	2.87
12/02/2020 18:41:01	120220	12022020	184101	75.70	12.418778	-56.733532	75.77	-0.560	-0.190	2.910	75.70	-1.30	3.30	 	 	 	 	 	 	 	 	 	 	 	 	 	 	 	 	 	 	1581532861	1.01	1.87
12/02/2020 18:41:02	120220	12022020	184102	75.84	12.418780	-56.733525	75.97	0.030	-2.210	2.700	75.84	-3.40	3.20	1014.80	25.50	25.50	20.70	20.80	492.0	75.0	74.0	430.0	27.0	355.00	11.50	73.00	11.10	38406	11475.0	27.3	27.3	1581532862	1.34	2.48
12/02/2020 18:41:03	120220	12022020	184103	76.09	12.418783	-56.733522	76.19	0.580	-3.220	2.300	76.09	-4.60	2.80	 	 	 	 	 	 	 	 	 	 	 	 	 	 	 	 	 	 	1581532863	1.22	2.26
12/02/2020 18:41:04	120220	12022020	184104	76.10	12.418785	-56.733520	76.18	0.780	-2.500	2.020	76.10	-4.10	2.50	 	 	 	 	 	 	 	 	 	 	 	 	 	 	 	 	 	 	1581532864	0.22	0.41
12/02/2020 18:41:05	120220	12022020	184105	75.83	12.418785	-56.733527	75.86	0.550	-0.510	1.740	75.83	-2.20	2.20	 	 	 	 	 	 	 	 	 	 	 	 	 	 	 	 	 	 	1581532865	1.32	2.44
12/02/2020 18:41:06	120220	12022020	184106	75.34	12.418785	-56.733537	75.34	0.130	1.340	1.310	75.34	-0.30	1.80	 	 	 	 	 	 	 	 	 	 	 	 	 	 	 	 	 	 	1581532866	1.95	3.61
12/02/2020 18:41:07	120220	12022020	184107	74.84	12.418790	-56.733542	74.82	-0.140	1.820	0.620	74.84	0.40	1.20	 	 	 	 	 	 	 	 	 	 	 	 	 	 	 	 	 	 	1581532867	1.56	2.89
12/02/2020 18:41:08	120220	12022020	184108	74.56	12.418797	-56.733542	74.58	-0.150	0.930	-0.340	74.56	-0.30	0.30	 	 	 	 	 	 	 	 	 	 	 	 	 	 	 	 	 	 	1581532868	1.56	2.89
12/02/2020 18:41:09	120220	12022020	184109	74.63	12.418803	-56.733537	74.69	-0.110	-0.290	-1.230	74.63	-1.60	-0.70	 	 	 	 	 	 	 	 	 	 	 	 	 	 	 	 	 	 	1581532869	1.67	3.09
12/02/2020 18:41:10	120220	12022020	184110	74.95	12.418807	-56.733535	74.93	-0.190	-0.800	-1.650	74.95	-2.20	-1.20	 	 	 	 	 	 	 	 	 	 	 	 	 	 	 	 	 	 	1581532870	0.84	1.56
12/02/2020 18:41:11	120220	12022020	184111	75.00	12.418807	-56.733537	74.94	-0.350	-0.470	-1.480	75.00	-2.00	-1.10	 	 	 	 	 	 	 	 	 	 	 	 	 	 	 	 	 	 	1581532871	0.38	0.70
12/02/2020 18:41:12	120220	12022020	184112	74.69	12.418803	-56.733540	74.60	-0.380	-0.040	-0.760	74.69	-1.50	-0.40	 	 	 	 	 	 	 	 	 	 	 	 	 	 	 	 	 	 	1581532872	1.02	1.89
12/02/2020 18:41:13	120220	12022020	184113	74.23	12.418800	-56.733542	74.18	-0.170	-0.140	0.180	74.23	-1.50	0.50	 	 	 	 	 	 	 	 	 	 	 	 	 	 	 	 	 	 	1581532873	0.86	1.59
12/02/2020 18:41:14	120220	12022020	184114	73.99	12.418797	-56.733538	73.98	0.180	-0.590	0.990	73.99	-1.90	1.30	 	 	 	 	 	 	 	 	 	 	 	 	 	 	 	 	 	 	1581532874	0.67	1.24
12/02/2020 18:41:15	120220	12022020	184115	74.02	12.418797	-56.733537	74.04	0.450	-0.880	1.540	74.02	-2.30	1.90	 	 	 	 	 	 	 	 	 	 	 	 	 	 	 	 	 	 	1581532875	0.55	1.02
12/02/2020 18:41:16	120220	12022020	184116	74.15	12.418795	-56.733535	74.20	0.490	-0.770	1.870	74.15	-2.20	2.30	 	 	 	 	 	 	 	 	 	 	 	 	 	 	 	 	 	 	1581532876	0.22	0.41
12/02/2020 18:41:17	120220	12022020	184117	74.32	12.418795	-56.733535	74.37	0.350	-0.460	1.960	74.32	-1.90	2.40	 	 	 	 	 	 	 	 	 	 	 	 	 	 	 	 	 	 	1581532877	0.14	0.26
12/02/2020 18:41:18	120220	12022020	184118	74.37	12.418793	-56.733537	74.41	0.130	0.050	1.960	74.37	-1.50	2.40	 	 	 	 	 	 	 	 	 	 	 	 	 	 	 	 	 	 	1581532878	0.21	0.39
12/02/2020 18:41:19	120220	12022020	184119	74.21	12.418793	-56.733538	74.23	-0.090	0.660	1.790	74.21	-0.80	2.30	 	 	 	 	 	 	 	 	 	 	 	 	 	 	 	 	 	 	1581532879	0.41	0.76
12/02/2020 18:41:20	120220	12022020	184120	74.00	12.418795	-56.733540	74.03	-0.280	0.830	1.290	74.00	-0.60	1.80	 	 	 	 	 	 	 	 	 	 	 	 	 	 	 	 	 	 	1581532880	0.70	1.30
12/02/2020 18:41:21	120220	12022020	184121	74.02	12.418802	-56.733542	74.05	-0.420	0.390	0.390	74.02	-1.00	1.00	 	 	 	 	 	 	 	 	 	 	 	 	 	 	 	 	 	 	1581532881	1.14	2.11
12/02/2020 18:41:22	120220	12022020	184122	74.41	12.418807	-56.733542	74.42	-0.410	-0.350	-0.700	74.41	-1.70	-0.10	 	 	 	 	 	 	 	 	 	 	 	 	 	 	 	 	 	 	1581532882	1.38	2.56
12/02/2020 18:41:23	120220	12022020	184123	74.75	12.418813	-56.733540	74.79	-0.210	-0.890	-1.450	74.75	-2.30	-0.90	 	 	 	 	 	 	 	 	 	 	 	 	 	 	 	 	 	 	1581532883	1.16	2.15
12/02/2020 18:41:24	120220	12022020	184124	74.86	12.418815	-56.733540	74.79	0.070	-0.860	-1.540	74.86	-2.30	-1.10	 	 	 	 	 	 	 	 	 	 	 	 	 	 	 	 	 	 	1581532884	0.50	0.93
12/02/2020 18:41:25	120220	12022020	184125	74.58	12.418813	-56.733542	74.51	0.270	-0.540	-1.070	74.58	-2.00	-0.70	 	 	 	 	 	 	 	 	 	 	 	 	 	 	 	 	 	 	1581532885	0.31	0.57
12/02/2020 18:41:26	120220	12022020	184126	74.28	12.418812	-56.733542	74.23	0.370	-0.410	-0.400	74.28	-1.80	-0.10	 	 	 	 	 	 	 	 	 	 	 	 	 	 	 	 	 	 	1581532886	0.49	0.91
12/02/2020 18:41:27	120220	12022020	184127	74.15	12.418810	-56.733540	74.13	0.280	-0.270	0.270	74.15	-1.70	0.60	 	 	 	 	 	 	 	 	 	 	 	 	 	 	 	 	 	 	1581532887	0.55	1.02
12/02/2020 18:41:28	120220	12022020	184128	74.21	12.418808	-56.733538	74.22	-0.000	0.080	0.830	74.21	-1.40	1.20	 	 	 	 	 	 	 	 	 	 	 	 	 	 	 	 	 	 	1581532888	0.36	0.67
12/02/2020 18:41:29	120220	12022020	184129	74.46	12.418807	-56.733540	74.50	-0.260	0.260	1.230	74.46	-1.10	1.60	 	 	 	 	 	 	 	 	 	 	 	 	 	 	 	 	 	 	1581532889	0.27	0.50
12/02/2020 18:41:30	120220	12022020	184130	74.82	12.418807	-56.733538	74.88	-0.230	-0.060	1.470	74.82	-1.40	1.90	 	 	 	 	 	 	 	 	 	 	 	 	 	 	 	 	 	 	1581532890	0.36	0.67
12/02/2020 18:41:31	120220	12022020	184131	75.08	12.418807	-56.733535	75.12	0.080	-0.500	1.500	75.08	-1.90	1.90	 	 	 	 	 	 	 	 	 	 	 	 	 	 	 	 	 	 	1581532891	0.68	1.26
12/02/2020 18:41:32	120220	12022020	184132	74.97	12.418807	-56.733533	74.97	0.380	-0.460	1.440	74.97	-1.90	1.90	 	 	 	 	 	 	 	 	 	 	 	 	 	 	 	 	 	 	1581532892	0.46	0.85
12/02/2020 18:41:33	120220	12022020	184133	74.68	12.418807	-56.733533	74.60	0.390	0.040	1.410	74.68	-1.50	1.80	 	 	 	 	 	 	 	 	 	 	 	 	 	 	 	 	 	 	1581532893	0.18	0.33
12/02/2020 18:41:34	120220	12022020	184134	74.33	12.418808	-56.733535	74.35	0.040	0.450	1.400	74.33	-1.00	1.80	 	 	 	 	 	 	 	 	 	 	 	 	 	 	 	 	 	 	1581532894	0.38	0.70
12/02/2020 18:41:35	120220	12022020	184135	74.47	12.418808	-56.733537	74.52	-0.450	0.370	1.060	74.47	-1.00	1.60	 	 	 	 	 	 	 	 	 	 	 	 	 	 	 	 	 	 	1581532895	0.39	0.72
12/02/2020 18:41:36	120220	12022020	184136	74.93	12.418813	-56.733537	74.98	-0.680	-0.210	0.160	74.93	-1.50	0.70	 	 	 	 	 	 	 	 	 	 	 	 	 	 	 	 	 	 	1581532896	1.01	1.87
12/02/2020 18:41:37	120220	12022020	184137	75.32	12.418820	-56.733535	75.32	-0.390	-0.930	-0.740	75.32	-2.30	-0.20	 	 	 	 	 	 	 	 	 	 	 	 	 	 	 	 	 	 	1581532897	1.45	2.69
12/02/2020 18:41:38	120220	12022020	184138	75.47	12.418825	-56.733532	75.43	0.220	-1.260	-1.120	75.47	-2.70	-0.70	 	 	 	 	 	 	 	 	 	 	 	 	 	 	 	 	 	 	1581532898	1.07	1.98
12/02/2020 18:41:39	120220	12022020	184139	75.33	12.418825	-56.733530	75.27	0.630	-0.910	-0.720	75.33	-2.40	-0.40	 	 	 	 	 	 	 	 	 	 	 	 	 	 	 	 	 	 	1581532899	0.33	0.61
12/02/2020 18:41:40	120220	12022020	184140	75.00	12.418820	-56.733530	74.95	0.520	-0.110	0.130	75.00	-1.60	0.40	 	 	 	 	 	 	 	 	 	 	 	 	 	 	 	 	 	 	1581532900	0.81	1.50
12/02/2020 18:41:41	120220	12022020	184141	74.79	12.418817	-56.733532	74.78	-0.000	0.700	0.740	74.79	-0.80	1.10	 	 	 	 	 	 	 	 	 	 	 	 	 	 	 	 	 	 	1581532901	0.96	1.78
12/02/2020 18:41:42	120220	12022020	184142	74.86	12.418815	-56.733533	74.88	-0.500	1.050	0.780	74.86	-0.40	1.20	 	 	 	 	 	 	 	 	 	 	 	 	 	 	 	 	 	 	1581532902	0.43	0.80
12/02/2020 18:41:43	120220	12022020	184143	75.08	12.418818	-56.733533	75.12	-0.590	0.580	0.520	75.08	-0.70	1.00	 	 	 	 	 	 	 	 	 	 	 	 	 	 	 	 	 	 	1581532903	0.66	1.22
12/02/2020 18:41:44	120220	12022020	184144	75.41	12.418823	-56.733532	75.45	-0.210	-0.510	0.300	75.41	-1.80	0.80	 	 	 	 	 	 	 	 	 	 	 	 	 	 	 	 	 	 	1581532904	1.17	2.17
12/02/2020 18:41:45	120220	12022020	184145	75.82	12.418827	-56.733527	75.87	0.270	-1.320	0.120	75.82	-2.70	0.60	 	 	 	 	 	 	 	 	 	 	 	 	 	 	 	 	 	 	1581532905	1.23	2.28
12/02/2020 18:41:46	120220	12022020	184146	76.07	12.418827	-56.733525	76.09	0.450	-1.160	0.200	76.07	-2.60	0.60	 	 	 	 	 	 	 	 	 	 	 	 	 	 	 	 	 	 	1581532906	0.43	0.80
12/02/2020 18:41:47	120220	12022020	184147	75.88	12.418825	-56.733525	75.87	0.280	-0.370	0.700	75.88	-1.90	1.00	 	 	 	 	 	 	 	 	 	 	 	 	 	 	 	 	 	 	1581532907	0.62	1.15
12/02/2020 18:41:48	120220	12022020	184148	75.44	12.418822	-56.733528	75.44	0.060	0.240	1.190	75.44	-1.20	1.60	 	 	 	 	 	 	 	 	 	 	 	 	 	 	 	 	 	 	1581532908	0.78	1.44
12/02/2020 18:41:49	120220	12022020	184149	75.21	12.418820	-56.733527	75.24	-0.020	0.240	1.230	75.21	-1.10	1.70	 	 	 	 	 	 	 	 	 	 	 	 	 	 	 	 	 	 	1581532909	0.21	0.39
12/02/2020 18:41:50	120220	12022020	184150	75.27	12.418822	-56.733525	75.31	-0.050	-0.060	0.910	75.27	-1.40	1.40	 	 	 	 	 	 	 	 	 	 	 	 	 	 	 	 	 	 	1581532910	0.68	1.26
12/02/2020 18:41:51	120220	12022020	184151	75.47	12.418827	-56.733523	75.49	-0.220	-0.070	0.370	75.47	-1.50	0.90	 	 	 	 	 	 	 	 	 	 	 	 	 	 	 	 	 	 	1581532911	0.82	1.52
12/02/2020 18:41:52	120220	12022020	184152	75.65	12.418830	-56.733525	75.66	-0.480	0.230	-0.250	75.65	-1.20	0.30	 	 	 	 	 	 	 	 	 	 	 	 	 	 	 	 	 	 	1581532912	0.88	1.63
12/02/2020 18:41:53	120220	12022020	184153	75.78	12.418832	-56.733528	75.76	-0.570	0.330	-0.750	75.78	-1.10	-0.30	 	 	 	 	 	 	 	 	 	 	 	 	 	 	 	 	 	 	1581532913	0.78	1.44
12/02/2020 18:41:54	120220	12022020	184154	75.89	12.418835	-56.733528	75.86	-0.280	-0.180	-1.110	75.89	-1.50	-0.60	 	 	 	 	 	 	 	 	 	 	 	 	 	 	 	 	 	 	1581532914	0.48	0.89
12/02/2020 18:41:55	120220	12022020	184155	76.08	12.418837	-56.733525	76.04	0.260	-0.960	-1.210	76.08	-2.30	-0.80	 	 	 	 	 	 	 	 	 	 	 	 	 	 	 	 	 	 	1581532915	0.89	1.65
12/02/2020 18:41:56	120220	12022020	184156	76.09	12.418838	-56.733522	76.05	0.630	-1.180	-0.770	76.09	-2.60	-0.40	 	 	 	 	 	 	 	 	 	 	 	 	 	 	 	 	 	 	1581532916	0.76	1.41
12/02/2020 18:41:57	120220	12022020	184157	75.86	12.418837	-56.733522	75.83	0.600	-0.710	0.030	75.86	-2.20	0.30	 	 	 	 	 	 	 	 	 	 	 	 	 	 	 	 	 	 	1581532917	0.35	0.65
12/02/2020 18:41:58	120220	12022020	184158	75.69	12.418833	-56.733522	75.69	0.330	-0.120	0.700	75.69	-1.60	1.00	 	 	 	 	 	 	 	 	 	 	 	 	 	 	 	 	 	 	1581532918	0.77	1.43
12/02/2020 18:41:59	120220	12022020	184159	75.72	12.418830	-56.733522	75.77	0.100	0.160	1.090	75.72	-1.30	1.40	 	 	 	 	 	 	 	 	 	 	 	 	 	 	 	 	 	 	1581532919	0.70	1.30
12/02/2020 18:42:00	120220	12022020	184200	75.73	12.418828	-56.733520	75.75	-0.070	0.270	1.500	75.73	-1.20	1.90	 	 	 	 	 	 	 	 	 	 	 	 	 	 	 	 	 	 	1581532920	0.64	1.19
12/02/2020 18:42:01	120220	12022020	184201	75.62	12.418827	-56.733518	75.64	-0.320	0.430	1.780	75.62	-1.00	2.20	 	 	 	 	 	 	 	 	 	 	 	 	 	 	 	 	 	 	1581532921	0.37	0.69
12/02/2020 18:42:02	120220	12022020	184202	75.62	12.418828	-56.733520	75.66	-0.610	0.560	1.510	75.62	-0.90	2.00	1014.80	25.60	25.70	20.80	20.80	430.0	74.0	74.0	430.0	27.0	359.00	11.30	74.00	10.90	35117	10912.0	27.3	27.3	1581532922	0.30	0.56
12/02/2020 18:42:03	120220	12022020	184203	75.90	12.418832	-56.733522	75.93	-0.740	0.340	0.680	75.90	-1.00	1.20	 	 	 	 	 	 	 	 	 	 	 	 	 	 	 	 	 	 	1581532923	0.98	1.81
12/02/2020 18:42:04	120220	12022020	184204	76.36	12.418837	-56.733522	76.39	-0.480	-0.340	-0.240	76.36	-1.70	0.30	 	 	 	 	 	 	 	 	 	 	 	 	 	 	 	 	 	 	1581532924	1.13	2.09
12/02/2020 18:42:05	120220	12022020	184205	76.73	12.418840	-56.733520	76.73	0.050	-1.060	-0.730	76.73	-2.40	-0.30	 	 	 	 	 	 	 	 	 	 	 	 	 	 	 	 	 	 	1581532925	0.85	1.57
12/02/2020 18:42:06	120220	12022020	184206	76.62	12.418840	-56.733517	76.59	0.560	-1.380	-0.660	76.62	-2.80	-0.30	 	 	 	 	 	 	 	 	 	 	 	 	 	 	 	 	 	 	1581532926	0.55	1.02
12/02/2020 18:42:07	120220	12022020	184207	76.10	12.418840	-56.733515	76.07	0.830	-1.220	-0.260	76.10	-2.70	0.10	 	 	 	 	 	 	 	 	 	 	 	 	 	 	 	 	 	 	1581532927	0.44	0.81
12/02/2020 18:42:08	120220	12022020	184208	75.70	12.418838	-56.733515	75.70	0.800	-0.750	0.110	75.70	-2.30	0.50	 	 	 	 	 	 	 	 	 	 	 	 	 	 	 	 	 	 	1581532928	0.25	0.46
12/02/2020 18:42:09	120220	12022020	184209	75.82	12.418838	-56.733515	75.87	0.430	0.030	0.200	75.82	-1.50	0.60	 	 	 	 	 	 	 	 	 	 	 	 	 	 	 	 	 	 	1581532929	0.05	0.09
12/02/2020 18:42:10	120220	12022020	184210	76.25	12.418838	-56.733518	76.31	-0.310	1.210	0.180	76.25	-0.40	0.60	 	 	 	 	 	 	 	 	 	 	 	 	 	 	 	 	 	 	1581532930	0.65	1.20
12/02/2020 18:42:11	120220	12022020	184211	76.62	12.418838	-56.733523	76.74	-1.150	2.140	0.120	76.62	0.60	0.60	 	 	 	 	 	 	 	 	 	 	 	 	 	 	 	 	 	 	1581532931	1.31	2.43
12/02/2020 18:42:12	120220	12022020	184212	77.00	12.418837	-56.733528	77.02	-1.430	1.700	0.090	77.00	0.40	0.50	 	 	 	 	 	 	 	 	 	 	 	 	 	 	 	 	 	 	1581532932	0.89	1.65
12/02/2020 18:42:13	120220	12022020	184213	77.14	12.418837	-56.733525	77.16	-0.750	-0.400	0.100	77.14	-1.50	0.50	 	 	 	 	 	 	 	 	 	 	 	 	 	 	 	 	 	 	1581532933	0.71	1.31
12/02/2020 18:42:14	120220	12022020	184214	77.19	12.418838	-56.733515	77.22	0.530	-2.780	0.230	77.19	-3.90	0.60	 	 	 	 	 	 	 	 	 	 	 	 	 	 	 	 	 	 	1581532934	2.07	3.83
12/02/2020 18:42:15	120220	12022020	184215	77.21	12.418838	-56.733507	77.26	1.490	-3.480	0.550	77.21	-4.90	0.90	 	 	 	 	 	 	 	 	 	 	 	 	 	 	 	 	 	 	1581532935	1.72	3.19
12/02/2020 18:42:16	120220	12022020	184216	77.19	12.418835	-56.733507	77.24	1.420	-1.940	0.980	77.19	-3.70	1.30	 	 	 	 	 	 	 	 	 	 	 	 	 	 	 	 	 	 	1581532936	0.56	1.04
12/02/2020 18:42:17	120220	12022020	184217	77.10	12.418832	-56.733515	77.13	0.490	0.510	1.150	77.10	-1.30	1.60	 	 	 	 	 	 	 	 	 	 	 	 	 	 	 	 	 	 	1581532937	1.78	3.30
12/02/2020 18:42:18	120220	12022020	184218	77.05	12.418832	-56.733523	77.10	-0.630	2.410	0.760	77.05	0.80	1.30	 	 	 	 	 	 	 	 	 	 	 	 	 	 	 	 	 	 	1581532938	1.95	3.61
12/02/2020 18:42:19	120220	12022020	184219	77.27	12.418833	-56.733530	77.34	-1.300	2.960	-0.020	77.27	1.50	0.50	 	 	 	 	 	 	 	 	 	 	 	 	 	 	 	 	 	 	1581532939	1.46	2.70
12/02/2020 18:42:20	120220	12022020	184220	77.62	12.418837	-56.733532	77.66	-1.230	1.950	-0.740	77.62	0.70	-0.20	 	 	 	 	 	 	 	 	 	 	 	 	 	 	 	 	 	 	1581532940	0.93	1.72
12/02/2020 18:42:21	120220	12022020	184221	77.93	12.418842	-56.733528	77.96	-0.600	-0.220	-1.160	77.93	-1.30	-0.70	 	 	 	 	 	 	 	 	 	 	 	 	 	 	 	 	 	 	1581532941	1.16	2.15
12/02/2020 18:42:22	120220	12022020	184222	78.21	12.418845	-56.733522	78.23	0.200	-2.530	-1.310	78.21	-3.70	-0.90	 	 	 	 	 	 	 	 	 	 	 	 	 	 	 	 	 	 	1581532942	1.68	3.11
12/02/2020 18:42:23	120220	12022020	184223	78.34	12.418847	-56.733515	78.36	0.800	-3.540	-0.990	78.34	-4.90	-0.70	 	 	 	 	 	 	 	 	 	 	 	 	 	 	 	 	 	 	1581532943	1.33	2.46
12/02/2020 18:42:24	120220	12022020	184224	78.30	12.418843	-56.733515	78.31	0.940	-2.500	-0.090	78.30	-4.20	0.20	 	 	 	 	 	 	 	 	 	 	 	 	 	 	 	 	 	 	1581532944	0.78	1.44
12/02/2020 18:42:25	120220	12022020	184225	78.19	12.418835	-56.733522	78.24	0.660	-0.310	1.060	78.19	-2.00	1.30	 	 	 	 	 	 	 	 	 	 	 	 	 	 	 	 	 	 	1581532945	2.15	3.98
12/02/2020 18:42:26	120220	12022020	184226	78.18	12.418827	-56.733527	78.26	0.270	1.330	1.870	78.18	-0.30	2.20	 	 	 	 	 	 	 	 	 	 	 	 	 	 	 	 	 	 	1581532946	2.19	4.06
12/02/2020 18:42:27	120220	12022020	184227	78.25	12.418822	-56.733528	78.32	0.030	1.600	2.160	78.25	0.20	2.50	 	 	 	 	 	 	 	 	 	 	 	 	 	 	 	 	 	 	1581532947	0.86	1.59
12/02/2020 18:42:28	120220	12022020	184228	78.32	12.418823	-56.733527	78.40	-0.170	1.130	1.920	78.32	-0.30	2.40	 	 	 	 	 	 	 	 	 	 	 	 	 	 	 	 	 	 	1581532948	0.57	1.06
12/02/2020 18:42:29	120220	12022020	184229	78.61	12.418828	-56.733525	78.69	-0.510	0.710	1.150	78.61	-0.70	1.70	 	 	 	 	 	 	 	 	 	 	 	 	 	 	 	 	 	 	1581532949	1.06	1.96
12/02/2020 18:42:30	120220	12022020	184230	79.11	12.418833	-56.733528	79.19	-0.850	0.470	0.160	79.11	-0.90	0.70	 	 	 	 	 	 	 	 	 	 	 	 	 	 	 	 	 	 	1581532950	1.31	2.43
12/02/2020 18:42:31	120220	12022020	184231	79.52	12.418837	-56.733532	79.58	-0.760	-0.150	-0.470	79.52	-1.50	-0.00	 	 	 	 	 	 	 	 	 	 	 	 	 	 	 	 	 	 	1581532951	0.91	1.69
12/02/2020 18:42:32	120220	12022020	184232	79.59	12.418837	-56.733530	79.61	-0.070	-1.370	-0.530	79.59	-2.60	-0.10	 	 	 	 	 	 	 	 	 	 	 	 	 	 	 	 	 	 	1581532952	0.26	0.48
12/02/2020 18:42:33	120220	12022020	184233	79.44	12.418837	-56.733527	79.46	0.800	-2.350	-0.270	79.44	-3.70	0.10	 	 	 	 	 	 	 	 	 	 	 	 	 	 	 	 	 	 	1581532953	1.00	1.85
12/02/2020 18:42:34	120220	12022020	184234	79.35	12.418835	-56.733523	79.40	1.160	-2.120	0.050	79.35	-3.70	0.40	 	 	 	 	 	 	 	 	 	 	 	 	 	 	 	 	 	 	1581532954	0.56	1.04
12/02/2020 18:42:35	120220	12022020	184235	79.46	12.418833	-56.733527	79.53	0.820	-0.740	0.340	79.46	-2.40	0.70	 	 	 	 	 	 	 	 	 	 	 	 	 	 	 	 	 	 	1581532955	0.66	1.22
12/02/2020 18:42:36	120220	12022020	184236	79.65	12.418832	-56.733532	79.71	0.140	0.890	0.650	79.65	-0.80	1.00	 	 	 	 	 	 	 	 	 	 	 	 	 	 	 	 	 	 	1581532956	1.35	2.50
12/02/2020 18:42:37	120220	12022020	184237	79.77	12.418828	-56.733537	79.83	-0.410	1.850	0.860	79.77	0.30	1.30	 	 	 	 	 	 	 	 	 	 	 	 	 	 	 	 	 	 	1581532957	1.23	2.28
12/02/2020 18:42:38	120220	12022020	184238	79.88	12.418828	-56.733540	79.95	-0.590	1.670	0.820	79.88	0.30	1.20	 	 	 	 	 	 	 	 	 	 	 	 	 	 	 	 	 	 	1581532958	0.45	0.83
12/02/2020 18:42:39	120220	12022020	184239	80.05	12.418830	-56.733537	80.12	-0.390	0.440	0.590	80.05	-0.80	1.00	 	 	 	 	 	 	 	 	 	 	 	 	 	 	 	 	 	 	1581532959	0.55	1.02
12/02/2020 18:42:40	120220	12022020	184240	80.27	12.418832	-56.733532	80.33	-0.020	-1.050	0.460	80.27	-2.30	0.90	 	 	 	 	 	 	 	 	 	 	 	 	 	 	 	 	 	 	1581532960	1.13	2.09
12/02/2020 18:42:41	120220	12022020	184241	80.40	12.418830	-56.733528	80.46	0.220	-1.750	0.560	80.40	-3.20	0.90	 	 	 	 	 	 	 	 	 	 	 	 	 	 	 	 	 	 	1581532961	0.85	1.57
12/02/2020 18:42:42	120220	12022020	184242	80.44	12.418830	-56.733528	80.51	0.280	-1.240	0.680	80.44	-2.80	1.10	 	 	 	 	 	 	 	 	 	 	 	 	 	 	 	 	 	 	1581532962	0.36	0.67
12/02/2020 18:42:43	120220	12022020	184243	80.49	12.418828	-56.733533	80.55	0.220	-0.240	0.520	80.49	-1.80	1.00	 	 	 	 	 	 	 	 	 	 	 	 	 	 	 	 	 	 	1581532963	1.10	2.04
12/02/2020 18:42:44	120220	12022020	184244	80.59	12.418830	-56.733538	80.63	0.140	0.370	0.190	80.59	-1.10	0.60	 	 	 	 	 	 	 	 	 	 	 	 	 	 	 	 	 	 	1581532964	1.03	1.91
12/02/2020 18:42:45	120220	12022020	184245	80.65	12.418832	-56.733540	80.70	0.060	0.330	0.030	80.65	-1.10	0.40	 	 	 	 	 	 	 	 	 	 	 	 	 	 	 	 	 	 	1581532965	0.56	1.04
12/02/2020 18:42:46	120220	12022020	184246	80.65	12.418833	-56.733538	80.68	-0.040	-0.070	0.130	80.65	-1.50	0.50	 	 	 	 	 	 	 	 	 	 	 	 	 	 	 	 	 	 	1581532966	0.34	0.63
12/02/2020 18:42:47	120220	12022020	184247	80.64	12.418832	-56.733537	80.70	-0.140	-0.420	0.310	80.64	-1.80	0.70	 	 	 	 	 	 	 	 	 	 	 	 	 	 	 	 	 	 	1581532967	0.49	0.91
12/02/2020 18:42:48	120220	12022020	184248	80.73	12.418830	-56.733535	80.77	-0.200	-0.390	0.570	80.73	-1.90	0.90	 	 	 	 	 	 	 	 	 	 	 	 	 	 	 	 	 	 	1581532968	0.66	1.22
12/02/2020 18:42:49	120220	12022020	184249	80.71	12.418825	-56.733537	80.75	-0.210	-0.040	0.830	80.71	-1.50	1.20	 	 	 	 	 	 	 	 	 	 	 	 	 	 	 	 	 	 	1581532969	0.80	1.48
12/02/2020 18:42:50	120220	12022020	184250	80.65	12.418825	-56.733538	80.69	-0.150	0.200	0.800	80.65	-1.30	1.20	 	 	 	 	 	 	 	 	 	 	 	 	 	 	 	 	 	 	1581532970	0.51	0.94
12/02/2020 18:42:51	120220	12022020	184251	80.70	12.418828	-56.733540	80.75	0.010	0.080	0.400	80.70	-1.30	0.90	 	 	 	 	 	 	 	 	 	 	 	 	 	 	 	 	 	 	1581532971	0.70	1.30
12/02/2020 18:42:52	120220	12022020	184252	80.90	12.418832	-56.733540	80.95	0.230	-0.230	-0.070	80.90	-1.60	0.40	 	 	 	 	 	 	 	 	 	 	 	 	 	 	 	 	 	 	1581532972	1.03	1.91
12/02/2020 18:42:53	120220	12022020	184253	81.27	12.418835	-56.733540	81.32	0.420	-0.560	-0.380	81.27	-2.00	0.10	 	 	 	 	 	 	 	 	 	 	 	 	 	 	 	 	 	 	1581532973	0.71	1.31
12/02/2020 18:42:54	120220	12022020	184254	81.54	12.418835	-56.733538	81.58	0.450	-0.820	-0.290	81.54	-2.20	0.10	 	 	 	 	 	 	 	 	 	 	 	 	 	 	 	 	 	 	1581532974	0.25	0.46
12/02/2020 18:42:55	120220	12022020	184255	81.33	12.418832	-56.733537	81.34	0.300	-0.840	0.370	81.33	-2.30	0.70	 	 	 	 	 	 	 	 	 	 	 	 	 	 	 	 	 	 	1581532975	0.86	1.59
12/02/2020 18:42:56	120220	12022020	184256	80.76	12.418827	-56.733535	80.78	0.060	-0.500	1.230	80.76	-2.00	1.50	 	 	 	 	 	 	 	 	 	 	 	 	 	 	 	 	 	 	1581532976	1.23	2.28
12/02/2020 18:42:57	120220	12022020	184257	80.39	12.418822	-56.733537	80.44	-0.180	0.180	1.630	80.39	-1.40	2.00	 	 	 	 	 	 	 	 	 	 	 	 	 	 	 	 	 	 	1581532977	0.88	1.63
12/02/2020 18:42:58	120220	12022020	184258	80.50	12.418822	-56.733538	80.56	-0.420	0.840	1.430	80.50	-0.70	1.90	 	 	 	 	 	 	 	 	 	 	 	 	 	 	 	 	 	 	1581532978	0.57	1.06
12/02/2020 18:42:59	120220	12022020	184259	80.85	12.418825	-56.733542	80.91	-0.600	1.080	0.840	80.85	-0.40	1.30	 	 	 	 	 	 	 	 	 	 	 	 	 	 	 	 	 	 	1581532979	0.93	1.72
12/02/2020 18:43:00	120220	12022020	184300	81.12	12.418830	-56.733543	81.16	-0.570	0.540	0.160	81.12	-0.80	0.70	 	 	 	 	 	 	 	 	 	 	 	 	 	 	 	 	 	 	1581532980	1.07	1.98
12/02/2020 18:43:01	120220	12022020	184301	81.27	12.418833	-56.733542	81.35	-0.250	-0.560	-0.390	81.27	-1.80	0.10	 	 	 	 	 	 	 	 	 	 	 	 	 	 	 	 	 	 	1581532981	1.03	1.91
12/02/2020 18:43:02	120220	12022020	184302	81.48	12.418835	-56.733538	81.51	0.210	-1.500	-0.580	81.48	-2.80	-0.20	1014.80	25.60	25.70	20.80	20.80	419.0	74.0	74.0	431.0	27.0	355.00	11.00	73.00	10.50	34611	11199.0	27.3	27.3	1581532982	0.90	1.67
12/02/2020 18:43:03	120220	12022020	184303	81.58	12.418833	-56.733535	81.60	0.560	-1.650	-0.290	81.58	-3.10	0.10	 	 	 	 	 	 	 	 	 	 	 	 	 	 	 	 	 	 	1581532983	0.74	1.37
12/02/2020 18:43:04	120220	12022020	184304	81.51	12.418828	-56.733535	81.52	0.650	-1.090	0.370	81.51	-2.60	0.70	 	 	 	 	 	 	 	 	 	 	 	 	 	 	 	 	 	 	1581532984	1.09	2.02
12/02/2020 18:43:05	120220	12022020	184305	81.26	12.418823	-56.733535	81.27	0.410	-0.210	0.980	81.26	-1.80	1.30	 	 	 	 	 	 	 	 	 	 	 	 	 	 	 	 	 	 	1581532985	1.08	2.00
12/02/2020 18:43:06	120220	12022020	184306	80.92	12.418820	-56.733537	80.93	-0.050	0.640	1.260	80.92	-0.90	1.60	 	 	 	 	 	 	 	 	 	 	 	 	 	 	 	 	 	 	1581532986	0.67	1.24
12/02/2020 18:43:07	120220	12022020	184307	80.74	12.418820	-56.733540	80.78	-0.520	1.050	1.160	80.74	-0.40	1.60	 	 	 	 	 	 	 	 	 	 	 	 	 	 	 	 	 	 	1581532987	0.39	0.72
12/02/2020 18:43:08	120220	12022020	184308	80.91	12.418823	-56.733540	80.97	-0.780	0.920	0.710	80.91	-0.50	1.20	 	 	 	 	 	 	 	 	 	 	 	 	 	 	 	 	 	 	1581532988	0.51	0.94
12/02/2020 18:43:09	120220	12022020	184309	81.22	12.418827	-56.733540	81.27	-0.740	0.500	0.170	81.22	-0.90	0.60	 	 	 	 	 	 	 	 	 	 	 	 	 	 	 	 	 	 	1581532989	0.71	1.31
12/02/2020 18:43:10	120220	12022020	184310	81.32	12.418828	-56.733540	81.36	-0.370	-0.170	-0.110	81.32	-1.50	0.30	 	 	 	 	 	 	 	 	 	 	 	 	 	 	 	 	 	 	1581532990	0.53	0.98
12/02/2020 18:43:11	120220	12022020	184311	81.27	12.418830	-56.733537	81.31	0.160	-0.950	-0.130	81.27	-2.30	0.30	 	 	 	 	 	 	 	 	 	 	 	 	 	 	 	 	 	 	1581532991	0.44	0.81
12/02/2020 18:43:12	120220	12022020	184312	81.23	12.418828	-56.733535	81.28	0.540	-1.440	0.040	81.23	-2.80	0.40	 	 	 	 	 	 	 	 	 	 	 	 	 	 	 	 	 	 	1581532992	0.55	1.02
12/02/2020 18:43:13	120220	12022020	184313	81.32	12.418827	-56.733533	81.40	0.630	-1.420	0.260	81.32	-2.90	0.60	 	 	 	 	 	 	 	 	 	 	 	 	 	 	 	 	 	 	1581532993	0.49	0.91
12/02/2020 18:43:14	120220	12022020	184314	81.44	12.418825	-56.733532	81.47	0.570	-1.070	0.600	81.44	-2.50	0.90	 	 	 	 	 	 	 	 	 	 	 	 	 	 	 	 	 	 	1581532994	0.62	1.15
12/02/2020 18:43:15	120220	12022020	184315	81.19	12.418822	-56.733530	81.21	0.480	-0.600	1.170	81.19	-2.10	1.50	 	 	 	 	 	 	 	 	 	 	 	 	 	 	 	 	 	 	1581532995	0.87	1.61
12/02/2020 18:43:16	120220	12022020	184316	80.68	12.418817	-56.733528	80.70	0.140	0.270	1.750	80.68	-1.30	2.10	 	 	 	 	 	 	 	 	 	 	 	 	 	 	 	 	 	 	1581532996	0.80	1.48
12/02/2020 18:43:17	120220	12022020	184317	80.37	12.418815	-56.733532	80.42	-0.640	1.760	1.890	80.37	0.10	2.30	 	 	 	 	 	 	 	 	 	 	 	 	 	 	 	 	 	 	1581532997	0.85	1.57
12/02/2020 18:43:18	120220	12022020	184318	80.60	12.418815	-56.733540	80.67	-1.530	2.990	1.260	80.60	1.50	1.80	 	 	 	 	 	 	 	 	 	 	 	 	 	 	 	 	 	 	1581532998	1.86	3.44
12/02/2020 18:43:19	120220	12022020	184319	81.15	12.418818	-56.733548	81.21	-1.870	2.580	0.200	81.15	1.40	0.80	 	 	 	 	 	 	 	 	 	 	 	 	 	 	 	 	 	 	1581532999	1.78	3.30
12/02/2020 18:43:20	120220	12022020	184320	81.62	12.418822	-56.733548	81.65	-1.130	-0.060	-0.650	81.62	-1.00	-0.20	 	 	 	 	 	 	 	 	 	 	 	 	 	 	 	 	 	 	1581533000	0.77	1.43
12/02/2020 18:43:21	120220	12022020	184321	81.76	12.418823	-56.733537	81.76	0.430	-3.710	-0.980	81.76	-4.70	-0.60	 	 	 	 	 	 	 	 	 	 	 	 	 	 	 	 	 	 	1581533001	2.33	4.32
12/02/2020 18:43:22	120220	12022020	184322	81.47	12.418823	-56.733523	81.45	1.950	-5.810	-0.730	81.47	-7.10	-0.40	 	 	 	 	 	 	 	 	 	 	 	 	 	 	 	 	 	 	1581533002	2.85	5.28
12/02/2020 18:43:23	120220	12022020	184323	80.94	12.418822	-56.733520	80.91	2.480	-4.320	-0.230	80.94	-6.10	0.10	 	 	 	 	 	 	 	 	 	 	 	 	 	 	 	 	 	 	1581533003	0.91	1.69
12/02/2020 18:43:24	120220	12022020	184324	80.55	12.418820	-56.733530	80.56	1.680	-0.140	0.300	80.55	-2.10	0.60	 	 	 	 	 	 	 	 	 	 	 	 	 	 	 	 	 	 	1581533004	2.23	4.13
12/02/2020 18:43:25	120220	12022020	184325	80.59	12.418815	-56.733547	80.67	0.030	3.820	0.860	80.59	2.00	1.20	 	 	 	 	 	 	 	 	 	 	 	 	 	 	 	 	 	 	1581533005	3.67	6.80
12/02/2020 18:43:26	120220	12022020	184326	80.96	12.418810	-56.733558	81.08	-1.620	5.330	1.290	80.96	3.90	1.70	 	 	 	 	 	 	 	 	 	 	 	 	 	 	 	 	 	 	1581533006	2.70	5.00
12/02/2020 18:43:27	120220	12022020	184327	81.40	12.418807	-56.733560	81.53	-2.420	4.020	1.400	81.40	2.90	1.80	 	 	 	 	 	 	 	 	 	 	 	 	 	 	 	 	 	 	1581533007	0.89	1.65
12/02/2020 18:43:28	120220	12022020	184328	81.75	12.418805	-56.733555	81.86	-2.020	0.870	1.290	81.75	-0.10	1.70	 	 	 	 	 	 	 	 	 	 	 	 	 	 	 	 	 	 	1581533008	1.25	2.31
12/02/2020 18:43:29	120220	12022020	184329	81.88	12.418803	-56.733547	81.94	-0.800	-2.510	1.300	81.88	-3.50	1.70	 	 	 	 	 	 	 	 	 	 	 	 	 	 	 	 	 	 	1581533009	1.93	3.57
12/02/2020 18:43:30	120220	12022020	184330	81.73	12.418800	-56.733538	81.80	0.450	-4.390	1.770	81.73	-5.60	2.10	 	 	 	 	 	 	 	 	 	 	 	 	 	 	 	 	 	 	1581533010	1.57	2.91
12/02/2020 18:43:31	120220	12022020	184331	81.54	12.418797	-56.733538	81.61	1.120	-4.020	2.410	81.54	-5.60	2.70	 	 	 	 	 	 	 	 	 	 	 	 	 	 	 	 	 	 	1581533011	0.92	1.70
12/02/2020 18:43:32	120220	12022020	184332	81.50	12.418793	-56.733545	81.58	1.270	-2.320	2.660	81.50	-4.00	3.10	 	 	 	 	 	 	 	 	 	 	 	 	 	 	 	 	 	 	1581533012	1.48	2.74
12/02/2020 18:43:33	120220	12022020	184333	81.50	12.418792	-56.733552	81.55	1.200	-0.370	2.400	81.50	-2.00	2.90	 	 	 	 	 	 	 	 	 	 	 	 	 	 	 	 	 	 	1581533013	1.41	2.61
12/02/2020 18:43:34	120220	12022020	184334	81.24	12.418792	-56.733557	81.24	0.880	1.210	1.700	81.24	-0.40	2.20	 	 	 	 	 	 	 	 	 	 	 	 	 	 	 	 	 	 	1581533014	1.04	1.93
12/02/2020 18:43:35	120220	12022020	184335	80.80	12.418797	-56.733558	80.78	0.320	2.050	0.830	80.80	0.60	1.40	 	 	 	 	 	 	 	 	 	 	 	 	 	 	 	 	 	 	1581533015	1.05	1.94
12/02/2020 18:43:36	120220	12022020	184336	80.59	12.418802	-56.733560	80.59	-0.250	1.980	-0.140	80.59	0.60	0.40	 	 	 	 	 	 	 	 	 	 	 	 	 	 	 	 	 	 	1581533016	1.22	2.26
12/02/2020 18:43:37	120220	12022020	184337	80.91	12.418808	-56.733560	80.95	-0.610	1.170	-1.240	80.91	-0.10	-0.70	 	 	 	 	 	 	 	 	 	 	 	 	 	 	 	 	 	 	1581533017	1.40	2.59
12/02/2020 18:43:38	120220	12022020	184338	81.46	12.418813	-56.733558	81.47	-0.660	0.000	-2.160	81.46	-1.20	-1.60	 	 	 	 	 	 	 	 	 	 	 	 	 	 	 	 	 	 	1581533018	1.31	2.43
12/02/2020 18:43:39	120220	12022020	184339	81.69	12.418817	-56.733557	81.65	-0.430	-1.080	-2.340	81.69	-2.40	-1.90	 	 	 	 	 	 	 	 	 	 	 	 	 	 	 	 	 	 	1581533019	0.80	1.48
12/02/2020 18:43:40	120220	12022020	184340	81.45	12.418815	-56.733555	81.40	-0.070	-1.550	-1.480	81.45	-2.90	-1.20	 	 	 	 	 	 	 	 	 	 	 	 	 	 	 	 	 	 	1581533020	0.46	0.85
12/02/2020 18:43:41	120220	12022020	184341	81.09	12.418810	-56.733555	81.08	0.200	-1.200	0.070	81.09	-2.70	0.20	 	 	 	 	 	 	 	 	 	 	 	 	 	 	 	 	 	 	1581533021	1.42	2.63
12/02/2020 18:43:42	120220	12022020	184342	81.04	12.418800	-56.733558	81.11	0.350	-0.580	1.600	81.04	-2.00	1.80	 	 	 	 	 	 	 	 	 	 	 	 	 	 	 	 	 	 	1581533022	2.01	3.72
12/02/2020 18:43:43	120220	12022020	184343	81.24	12.418792	-56.733558	81.34	0.410	-0.270	2.790	81.24	-1.70	3.00	 	 	 	 	 	 	 	 	 	 	 	 	 	 	 	 	 	 	1581533023	1.82	3.37
12/02/2020 18:43:44	120220	12022020	184344	81.38	12.418785	-56.733557	81.47	0.320	-0.240	3.560	81.38	-1.60	3.90	 	 	 	 	 	 	 	 	 	 	 	 	 	 	 	 	 	 	1581533024	1.42	2.63
12/02/2020 18:43:45	120220	12022020	184345	81.24	12.418782	-56.733555	81.32	0.150	-0.150	3.780	81.24	-1.60	4.20	 	 	 	 	 	 	 	 	 	 	 	 	 	 	 	 	 	 	1581533025	0.88	1.63
12/02/2020 18:43:46	120220	12022020	184346	80.94	12.418782	-56.733555	81.01	0.100	0.160	3.300	80.94	-1.30	3.80	 	 	 	 	 	 	 	 	 	 	 	 	 	 	 	 	 	 	1581533026	0.01	0.02
12/02/2020 18:43:47	120220	12022020	184347	80.67	12.418787	-56.733557	80.73	0.210	0.360	2.070	80.67	-1.00	2.70	 	 	 	 	 	 	 	 	 	 	 	 	 	 	 	 	 	 	1581533027	1.12	2.07
12/02/2020 18:43:48	120220	12022020	184348	80.65	12.418795	-56.733558	80.69	0.300	0.150	0.400	80.65	-1.20	1.00	 	 	 	 	 	 	 	 	 	 	 	 	 	 	 	 	 	 	1581533028	2.00	3.70
12/02/2020 18:43:49	120220	12022020	184349	80.93	12.418805	-56.733557	80.96	0.210	-0.280	-1.060	80.93	-1.60	-0.50	 	 	 	 	 	 	 	 	 	 	 	 	 	 	 	 	 	 	1581533029	2.13	3.94
12/02/2020 18:43:50	120220	12022020	184350	81.32	12.418812	-56.733557	81.31	-0.040	-0.400	-1.930	81.32	-1.80	-1.40	 	 	 	 	 	 	 	 	 	 	 	 	 	 	 	 	 	 	1581533030	1.43	2.65
12/02/2020 18:43:51	120220	12022020	184351	81.54	12.418815	-56.733557	81.55	-0.270	-0.120	-2.240	81.54	-1.60	-1.80	 	 	 	 	 	 	 	 	 	 	 	 	 	 	 	 	 	 	1581533031	0.67	1.24
12/02/2020 18:43:52	120220	12022020	184352	81.56	12.418815	-56.733560	81.51	-0.340	0.180	-1.970	81.56	-1.20	-1.60	 	 	 	 	 	 	 	 	 	 	 	 	 	 	 	 	 	 	1581533032	0.49	0.91
12/02/2020 18:43:53	120220	12022020	184353	81.38	12.418812	-56.733560	81.35	-0.180	0.140	-1.060	81.38	-1.20	-0.80	 	 	 	 	 	 	 	 	 	 	 	 	 	 	 	 	 	 	1581533033	0.76	1.41
12/02/2020 18:43:54	120220	12022020	184354	81.15	12.418805	-56.733558	81.16	0.100	-0.310	0.390	81.15	-1.60	0.60	 	 	 	 	 	 	 	 	 	 	 	 	 	 	 	 	 	 	1581533034	1.35	2.50
12/02/2020 18:43:55	120220	12022020	184355	80.93	12.418798	-56.733555	80.98	0.300	-0.870	1.900	80.93	-2.20	2.10	 	 	 	 	 	 	 	 	 	 	 	 	 	 	 	 	 	 	1581533035	1.70	3.15
12/02/2020 18:43:56	120220	12022020	184356	80.80	12.418793	-56.733552	80.90	0.380	-1.170	2.940	80.80	-2.50	3.20	 	 	 	 	 	 	 	 	 	 	 	 	 	 	 	 	 	 	1581533036	1.37	2.54
12/02/2020 18:43:57	120220	12022020	184357	80.86	12.418792	-56.733548	81.00	0.420	-1.090	3.310	80.86	-2.50	3.70	 	 	 	 	 	 	 	 	 	 	 	 	 	 	 	 	 	 	1581533037	0.77	1.43
12/02/2020 18:43:58	120220	12022020	184358	81.11	12.418790	-56.733547	81.25	0.410	-0.470	3.040	81.11	-2.00	3.50	 	 	 	 	 	 	 	 	 	 	 	 	 	 	 	 	 	 	1581533038	0.18	0.33
12/02/2020 18:43:59	120220	12022020	184359	81.37	12.418792	-56.733550	81.46	0.200	0.570	2.250	81.37	-1.00	2.80	 	 	 	 	 	 	 	 	 	 	 	 	 	 	 	 	 	 	1581533039	0.59	1.09
12/02/2020 18:44:00	120220	12022020	184400	81.41	12.418797	-56.733553	81.45	-0.230	1.420	1.210	81.41	-0.10	1.70	 	 	 	 	 	 	 	 	 	 	 	 	 	 	 	 	 	 	1581533040	1.24	2.30
12/02/2020 18:44:01	120220	12022020	184401	81.31	12.418802	-56.733557	81.30	-0.670	1.510	0.220	81.31	0.10	0.80	 	 	 	 	 	 	 	 	 	 	 	 	 	 	 	 	 	 	1581533041	1.37	2.54
12/02/2020 18:44:02	120220	12022020	184402	81.21	12.418808	-56.733558	81.22	-0.900	0.840	-0.710	81.21	-0.40	-0.20	1014.70	25.60	25.70	20.40	20.50	453.0	73.0	73.0	432.0	27.0	351.00	10.70	72.00	10.10	35973	12341.0	27.3	27.3	1581533042	1.25	2.31
12/02/2020 18:44:03	120220	12022020	184403	81.26	12.418813	-56.733557	81.25	-0.770	-0.370	-1.510	81.26	-1.60	-1.00	 	 	 	 	 	 	 	 	 	 	 	 	 	 	 	 	 	 	1581533043	1.20	2.22
12/02/2020 18:44:04	120220	12022020	184404	81.21	12.418817	-56.733553	81.18	-0.250	-1.760	-1.850	81.21	-3.00	-1.40	 	 	 	 	 	 	 	 	 	 	 	 	 	 	 	 	 	 	1581533044	1.15	2.13
12/02/2020 18:44:05	120220	12022020	184405	81.06	12.418818	-56.733547	81.03	0.470	-2.720	-1.630	81.06	-4.00	-1.30	 	 	 	 	 	 	 	 	 	 	 	 	 	 	 	 	 	 	1581533045	1.20	2.22
12/02/2020 18:44:06	120220	12022020	184406	80.93	12.418817	-56.733542	80.91	1.060	-2.500	-1.000	80.93	-4.00	-0.70	 	 	 	 	 	 	 	 	 	 	 	 	 	 	 	 	 	 	1581533046	1.04	1.93
12/02/2020 18:44:07	120220	12022020	184407	80.73	12.418812	-56.733543	80.73	1.190	-0.950	-0.200	80.73	-2.60	0.10	 	 	 	 	 	 	 	 	 	 	 	 	 	 	 	 	 	 	1581533047	0.78	1.44
12/02/2020 18:44:08	120220	12022020	184408	80.58	12.418808	-56.733547	80.60	0.710	1.100	0.540	80.58	-0.60	0.80	 	 	 	 	 	 	 	 	 	 	 	 	 	 	 	 	 	 	1581533048	1.22	2.26
12/02/2020 18:44:09	120220	12022020	184409	80.65	12.418807	-56.733552	80.71	-0.140	2.500	1.120	80.65	1.00	1.40	 	 	 	 	 	 	 	 	 	 	 	 	 	 	 	 	 	 	1581533049	1.25	2.31
12/02/2020 18:44:10	120220	12022020	184410	80.90	12.418803	-56.733555	80.98	-0.910	2.510	1.530	80.90	1.20	1.90	 	 	 	 	 	 	 	 	 	 	 	 	 	 	 	 	 	 	1581533050	0.64	1.19
12/02/2020 18:44:11	120220	12022020	184411	81.12	12.418803	-56.733552	81.20	-1.230	1.210	1.730	81.12	0.00	2.10	 	 	 	 	 	 	 	 	 	 	 	 	 	 	 	 	 	 	1581533051	0.60	1.11
12/02/2020 18:44:12	120220	12022020	184412	81.10	12.418802	-56.733547	81.15	-1.040	-0.670	1.880	81.10	-1.80	2.20	 	 	 	 	 	 	 	 	 	 	 	 	 	 	 	 	 	 	1581533052	1.26	2.33
12/02/2020 18:44:13	120220	12022020	184413	80.75	12.418800	-56.733540	80.80	-0.530	-2.090	2.130	80.75	-3.30	2.50	 	 	 	 	 	 	 	 	 	 	 	 	 	 	 	 	 	 	1581533053	1.31	2.43
12/02/2020 18:44:14	120220	12022020	184414	80.40	12.418798	-56.733538	80.46	0.120	-2.390	2.210	80.40	-3.80	2.60	 	 	 	 	 	 	 	 	 	 	 	 	 	 	 	 	 	 	1581533054	0.63	1.17
12/02/2020 18:44:15	120220	12022020	184415	80.32	12.418800	-56.733538	80.40	0.700	-1.780	1.870	80.32	-3.30	2.30	 	 	 	 	 	 	 	 	 	 	 	 	 	 	 	 	 	 	1581533055	0.28	0.52
12/02/2020 18:44:16	120220	12022020	184416	80.47	12.418803	-56.733540	80.55	0.930	-0.880	1.080	80.47	-2.40	1.60	 	 	 	 	 	 	 	 	 	 	 	 	 	 	 	 	 	 	1581533056	0.84	1.56
12/02/2020 18:44:17	120220	12022020	184417	80.61	12.418807	-56.733542	80.65	0.690	0.000	0.210	80.61	-1.50	0.70	 	 	 	 	 	 	 	 	 	 	 	 	 	 	 	 	 	 	1581533057	1.05	1.94
12/02/2020 18:44:18	120220	12022020	184418	80.55	12.418810	-56.733543	80.56	0.120	0.850	-0.270	80.55	-0.70	0.20	 	 	 	 	 	 	 	 	 	 	 	 	 	 	 	 	 	 	1581533058	0.78	1.44
12/02/2020 18:44:19	120220	12022020	184419	80.33	12.418812	-56.733545	80.33	-0.430	1.420	-0.360	80.33	-0.00	0.10	 	 	 	 	 	 	 	 	 	 	 	 	 	 	 	 	 	 	1581533059	0.31	0.57
12/02/2020 18:44:20	120220	12022020	184420	80.13	12.418812	-56.733545	80.15	-0.610	1.240	-0.410	80.13	-0.10	0.00	 	 	 	 	 	 	 	 	 	 	 	 	 	 	 	 	 	 	1581533060	0.07	0.13
12/02/2020 18:44:21	120220	12022020	184421	79.95	12.418812	-56.733542	79.96	-0.370	0.280	-0.480	79.95	-1.00	-0.10	 	 	 	 	 	 	 	 	 	 	 	 	 	 	 	 	 	 	1581533061	0.67	1.24
12/02/2020 18:44:22	120220	12022020	184422	79.89	12.418815	-56.733537	79.93	-0.040	-0.810	-0.480	79.89	-2.10	-0.10	 	 	 	 	 	 	 	 	 	 	 	 	 	 	 	 	 	 	1581533062	1.10	2.04
12/02/2020 18:44:23	120220	12022020	184423	80.01	12.418817	-56.733535	80.06	0.110	-1.330	-0.350	80.01	-2.70	0.00	 	 	 	 	 	 	 	 	 	 	 	 	 	 	 	 	 	 	1581533063	0.83	1.54
12/02/2020 18:44:24	120220	12022020	184424	80.17	12.418817	-56.733533	80.25	0.060	-1.090	0.020	80.17	-2.60	0.40	 	 	 	 	 	 	 	 	 	 	 	 	 	 	 	 	 	 	1581533064	0.17	0.31
12/02/2020 18:44:25	120220	12022020	184425	80.39	12.418815	-56.733535	80.47	-0.080	-0.390	0.650	80.39	-1.90	0.90	 	 	 	 	 	 	 	 	 	 	 	 	 	 	 	 	 	 	1581533065	0.65	1.20
12/02/2020 18:44:26	120220	12022020	184426	80.49	12.418808	-56.733537	80.56	-0.210	0.220	1.460	80.49	-1.20	1.70	 	 	 	 	 	 	 	 	 	 	 	 	 	 	 	 	 	 	1581533066	1.31	2.43
12/02/2020 18:44:27	120220	12022020	184427	80.41	12.418802	-56.733537	80.43	-0.210	0.280	2.240	80.41	-1.10	2.50	 	 	 	 	 	 	 	 	 	 	 	 	 	 	 	 	 	 	1581533067	1.54	2.85
12/02/2020 18:44:28	120220	12022020	184428	80.07	12.418797	-56.733533	80.13	0.000	-0.210	2.740	80.07	-1.50	3.10	 	 	 	 	 	 	 	 	 	 	 	 	 	 	 	 	 	 	1581533068	1.36	2.52
12/02/2020 18:44:29	120220	12022020	184429	79.72	12.418795	-56.733528	79.70	0.340	-0.720	2.810	79.72	-2.10	3.20	 	 	 	 	 	 	 	 	 	 	 	 	 	 	 	 	 	 	1581533069	1.10	2.04
12/02/2020 18:44:30	120220	12022020	184430	79.32	12.418798	-56.733525	79.40	0.470	-0.610	2.190	79.32	-2.10	2.70	 	 	 	 	 	 	 	 	 	 	 	 	 	 	 	 	 	 	1581533070	0.89	1.65
12/02/2020 18:44:31	120220	12022020	184431	79.45	12.418807	-56.733527	79.54	0.240	0.000	0.930	79.45	-1.50	1.50	 	 	 	 	 	 	 	 	 	 	 	 	 	 	 	 	 	 	1581533071	1.69	3.13
12/02/2020 18:44:32	120220	12022020	184432	79.95	12.418815	-56.733532	80.04	-0.100	0.370	-0.590	79.95	-1.10	0.00	 	 	 	 	 	 	 	 	 	 	 	 	 	 	 	 	 	 	1581533072	2.19	4.06
12/02/2020 18:44:33	120220	12022020	184433	80.44	12.418823	-56.733532	80.45	-0.210	0.120	-1.770	80.44	-1.20	-1.20	 	 	 	 	 	 	 	 	 	 	 	 	 	 	 	 	 	 	1581533073	1.80	3.33
12/02/2020 18:44:34	120220	12022020	184434	80.60	12.418827	-56.733530	80.59	-0.070	-0.330	-2.080	80.60	-1.70	-1.70	 	 	 	 	 	 	 	 	 	 	 	 	 	 	 	 	 	 	1581533074	0.94	1.74
12/02/2020 18:44:35	120220	12022020	184435	80.58	12.418825	-56.733527	80.58	0.020	-0.470	-1.490	80.58	-1.90	-1.20	 	 	 	 	 	 	 	 	 	 	 	 	 	 	 	 	 	 	1581533075	0.85	1.57
12/02/2020 18:44:36	120220	12022020	184436	80.39	12.418817	-56.733525	80.40	-0.140	-0.220	-0.270	80.39	-1.70	-0.00	 	 	 	 	 	 	 	 	 	 	 	 	 	 	 	 	 	 	1581533076	1.65	3.06
12/02/2020 18:44:37	120220	12022020	184437	79.94	12.418810	-56.733525	79.96	-0.380	0.180	0.950	79.94	-1.30	1.20	 	 	 	 	 	 	 	 	 	 	 	 	 	 	 	 	 	 	1581533077	1.71	3.17
12/02/2020 18:44:38	120220	12022020	184438	79.50	12.418805	-56.733525	79.55	-0.370	0.320	1.620	79.50	-1.10	2.00	 	 	 	 	 	 	 	 	 	 	 	 	 	 	 	 	 	 	1581533078	0.86	1.59
12/02/2020 18:44:39	120220	12022020	184439	79.50	12.418807	-56.733525	79.60	-0.060	-0.070	1.580	79.50	-1.40	2.00	 	 	 	 	 	 	 	 	 	 	 	 	 	 	 	 	 	 	1581533079	0.34	0.63
12/02/2020 18:44:40	120220	12022020	184440	80.03	12.418812	-56.733523	80.15	0.270	-0.790	1.230	80.03	-2.10	1.70	 	 	 	 	 	 	 	 	 	 	 	 	 	 	 	 	 	 	1581533080	1.05	1.94
12/02/2020 18:44:41	120220	12022020	184441	80.57	12.418813	-56.733520	80.77	0.390	-1.340	1.080	80.57	-2.70	1.50	 	 	 	 	 	 	 	 	 	 	 	 	 	 	 	 	 	 	1581533081	0.89	1.65
12/02/2020 18:44:42	120220	12022020	184442	80.78	12.418810	-56.733517	80.81	0.380	-1.140	1.440	80.78	-2.60	1.80	 	 	 	 	 	 	 	 	 	 	 	 	 	 	 	 	 	 	1581533082	0.81	1.50
12/02/2020 18:44:43	120220	12022020	184443	80.31	12.418807	-56.733517	80.31	0.330	-0.220	1.910	80.31	-1.80	2.30	 	 	 	 	 	 	 	 	 	 	 	 	 	 	 	 	 	 	1581533083	1.01	1.87
12/02/2020 18:44:44	120220	12022020	184444	79.82	12.418805	-56.733520	79.84	0.140	0.730	1.870	79.82	-0.80	2.30	 	 	 	 	 	 	 	 	 	 	 	 	 	 	 	 	 	 	1581533084	0.66	1.22
12/02/2020 18:44:45	120220	12022020	184445	79.61	12.418807	-56.733522	79.65	-0.220	1.040	1.320	79.61	-0.40	1.80	 	 	 	 	 	 	 	 	 	 	 	 	 	 	 	 	 	 	1581533085	0.82	1.52
12/02/2020 18:44:46	120220	12022020	184446	79.78	12.418813	-56.733522	79.84	-0.530	0.660	0.480	79.78	-0.70	1.00	 	 	 	 	 	 	 	 	 	 	 	 	 	 	 	 	 	 	1581533086	1.30	2.41
12/02/2020 18:44:47	120220	12022020	184447	80.22	12.418820	-56.733520	80.26	-0.540	-0.090	-0.330	80.22	-1.40	0.20	 	 	 	 	 	 	 	 	 	 	 	 	 	 	 	 	 	 	1581533087	1.29	2.39
12/02/2020 18:44:48	120220	12022020	184448	80.49	12.418822	-56.733518	80.49	-0.230	-0.770	-0.620	80.49	-2.10	-0.20	 	 	 	 	 	 	 	 	 	 	 	 	 	 	 	 	 	 	1581533088	0.79	1.46
12/02/2020 18:44:49	120220	12022020	184449	80.39	12.418822	-56.733517	80.38	0.080	-1.020	-0.520	80.39	-2.40	-0.10	 	 	 	 	 	 	 	 	 	 	 	 	 	 	 	 	 	 	1581533089	0.43	0.80
12/02/2020 18:44:50	120220	12022020	184450	80.18	12.418820	-56.733517	80.18	0.200	-0.850	-0.300	80.18	-2.30	0.10	 	 	 	 	 	 	 	 	 	 	 	 	 	 	 	 	 	 	1581533090	0.25	0.46
12/02/2020 18:44:51	120220	12022020	184451	80.02	12.418818	-56.733517	80.04	0.190	-0.460	0.190	80.02	-1.90	0.50	 	 	 	 	 	 	 	 	 	 	 	 	 	 	 	 	 	 	1581533091	0.40	0.74
12/02/2020 18:44:52	120220	12022020	184452	79.88	12.418815	-56.733518	79.93	0.170	-0.020	0.920	79.88	-1.50	1.20	 	 	 	 	 	 	 	 	 	 	 	 	 	 	 	 	 	 	1581533092	0.75	1.39
12/02/2020 18:44:53	120220	12022020	184453	79.86	12.418812	-56.733518	79.93	0.190	0.200	1.380	79.86	-1.20	1.70	 	 	 	 	 	 	 	 	 	 	 	 	 	 	 	 	 	 	1581533093	0.66	1.22
12/02/2020 18:44:54	120220	12022020	184454	79.93	12.418812	-56.733517	80.00	0.210	0.030	1.470	79.93	-1.30	1.90	 	 	 	 	 	 	 	 	 	 	 	 	 	 	 	 	 	 	1581533094	0.22	0.41
12/02/2020 18:44:55	120220	12022020	184455	79.96	12.418813	-56.733515	80.04	0.120	-0.270	1.400	79.96	-1.60	1.80	 	 	 	 	 	 	 	 	 	 	 	 	 	 	 	 	 	 	1581533095	0.63	1.17
12/02/2020 18:44:56	120220	12022020	184456	79.95	12.418815	-56.733513	80.01	-0.140	-0.310	1.370	79.95	-1.70	1.80	 	 	 	 	 	 	 	 	 	 	 	 	 	 	 	 	 	 	1581533096	0.46	0.85
12/02/2020 18:44:57	120220	12022020	184457	79.89	12.418815	-56.733513	79.94	-0.440	-0.120	1.330	79.89	-1.60	1.70	 	 	 	 	 	 	 	 	 	 	 	 	 	 	 	 	 	 	1581533097	0.08	0.15
12/02/2020 18:44:58	120220	12022020	184458	79.81	12.418815	-56.733515	79.86	-0.520	0.030	1.190	79.81	-1.40	1.60	 	 	 	 	 	 	 	 	 	 	 	 	 	 	 	 	 	 	1581533098	0.27	0.50
12/02/2020 18:44:59	120220	12022020	184459	79.78	12.418815	-56.733515	79.84	-0.310	0.060	0.910	79.78	-1.40	1.40	 	 	 	 	 	 	 	 	 	 	 	 	 	 	 	 	 	 	1581533099	0.21	0.39
12/02/2020 18:45:00	120220	12022020	184500	79.96	12.418817	-56.733517	80.03	0.020	-0.030	0.400	79.96	-1.40	0.90	 	 	 	 	 	 	 	 	 	 	 	 	 	 	 	 	 	 	1581533100	0.48	0.89
12/02/2020 18:45:01	120220	12022020	184501	80.22	12.418820	-56.733517	80.27	0.240	-0.200	-0.130	80.22	-1.60	0.30	 	 	 	 	 	 	 	 	 	 	 	 	 	 	 	 	 	 	1581533101	0.64	1.19
12/02/2020 18:45:02	120220	12022020	184502	80.31	12.418822	-56.733517	80.35	0.240	-0.400	-0.330	80.31	-1.80	0.10	1014.70	25.60	25.60	20.60	20.60	443.0	73.0	73.0	433.0	27.0	350.00	10.70	70.00	10.30	35060	11327.0	27.4	27.4	1581533102	0.42	0.78
12/02/2020 18:45:03	120220	12022020	184503	80.24	12.418822	-56.733515	80.28	0.110	-0.610	-0.240	80.24	-2.00	0.10	 	 	 	 	 	 	 	 	 	 	 	 	 	 	 	 	 	 	1581533103	0.17	0.31
12/02/2020 18:45:04	120220	12022020	184504	80.12	12.418820	-56.733513	80.17	0.010	-0.740	0.080	80.12	-2.10	0.40	 	 	 	 	 	 	 	 	 	 	 	 	 	 	 	 	 	 	1581533104	0.48	0.89
12/02/2020 18:45:05	120220	12022020	184505	79.82	12.418817	-56.733513	79.86	-0.010	-0.530	0.690	79.82	-2.00	1.00	 	 	 	 	 	 	 	 	 	 	 	 	 	 	 	 	 	 	1581533105	0.74	1.37
12/02/2020 18:45:06	120220	12022020	184506	79.41	12.418813	-56.733513	79.45	-0.020	-0.020	1.330	79.41	-1.50	1.70	 	 	 	 	 	 	 	 	 	 	 	 	 	 	 	 	 	 	1581533106	0.78	1.44
12/02/2020 18:45:07	120220	12022020	184507	79.27	12.418813	-56.733515	79.37	-0.080	0.420	1.420	79.27	-1.00	1.80	 	 	 	 	 	 	 	 	 	 	 	 	 	 	 	 	 	 	1581533107	0.46	0.85
12/02/2020 18:45:08	120220	12022020	184508	79.58	12.418815	-56.733517	79.65	-0.120	0.430	0.890	79.58	-0.90	1.40	 	 	 	 	 	 	 	 	 	 	 	 	 	 	 	 	 	 	1581533108	0.77	1.43
12/02/2020 18:45:09	120220	12022020	184509	79.89	12.418820	-56.733517	79.94	-0.070	-0.040	0.370	79.89	-1.40	0.80	 	 	 	 	 	 	 	 	 	 	 	 	 	 	 	 	 	 	1581533109	1.00	1.85
12/02/2020 18:45:10	120220	12022020	184510	79.99	12.418823	-56.733515	80.02	0.050	-0.620	0.220	79.99	-1.90	0.60	 	 	 	 	 	 	 	 	 	 	 	 	 	 	 	 	 	 	1581533110	0.73	1.35
12/02/2020 18:45:11	120220	12022020	184511	79.89	12.418822	-56.733512	79.92	0.180	-0.750	0.420	79.89	-2.20	0.80	 	 	 	 	 	 	 	 	 	 	 	 	 	 	 	 	 	 	1581533111	0.47	0.87
12/02/2020 18:45:12	120220	12022020	184512	79.77	12.418820	-56.733513	79.82	0.200	-0.350	0.750	79.77	-1.80	1.10	 	 	 	 	 	 	 	 	 	 	 	 	 	 	 	 	 	 	1581533112	0.59	1.09
12/02/2020 18:45:13	120220	12022020	184513	79.73	12.418817	-56.733515	79.82	0.030	0.150	0.980	79.73	-1.30	1.30	 	 	 	 	 	 	 	 	 	 	 	 	 	 	 	 	 	 	1581533113	0.78	1.44
12/02/2020 18:45:14	120220	12022020	184514	79.84	12.418815	-56.733517	79.91	-0.250	0.290	1.000	79.84	-1.10	1.40	 	 	 	 	 	 	 	 	 	 	 	 	 	 	 	 	 	 	1581533114	0.56	1.04
12/02/2020 18:45:15	120220	12022020	184515	79.88	12.418813	-56.733517	79.93	-0.390	-0.030	0.980	79.88	-1.40	1.40	 	 	 	 	 	 	 	 	 	 	 	 	 	 	 	 	 	 	1581533115	0.12	0.22
12/02/2020 18:45:16	120220	12022020	184516	79.66	12.418815	-56.733515	79.69	-0.200	-0.470	0.990	79.66	-1.80	1.40	 	 	 	 	 	 	 	 	 	 	 	 	 	 	 	 	 	 	1581533116	0.37	0.69
12/02/2020 18:45:17	120220	12022020	184517	79.43	12.418817	-56.733513	79.44	0.170	-0.750	0.790	79.43	-2.10	1.20	 	 	 	 	 	 	 	 	 	 	 	 	 	 	 	 	 	 	1581533117	0.49	0.91
12/02/2020 18:45:18	120220	12022020	184518	79.34	12.418818	-56.733512	79.37	0.430	-0.720	0.440	79.34	-2.10	0.90	 	 	 	 	 	 	 	 	 	 	 	 	 	 	 	 	 	 	1581533118	0.48	0.89
12/02/2020 18:45:19	120220	12022020	184519	79.35	12.418820	-56.733512	79.39	0.370	-0.390	0.240	79.35	-1.80	0.70	 	 	 	 	 	 	 	 	 	 	 	 	 	 	 	 	 	 	1581533119	0.36	0.67
12/02/2020 18:45:20	120220	12022020	184520	79.57	12.418822	-56.733513	79.62	0.080	0.050	0.110	79.57	-1.40	0.50	 	 	 	 	 	 	 	 	 	 	 	 	 	 	 	 	 	 	1581533120	0.40	0.74
12/02/2020 18:45:21	120220	12022020	184521	80.00	12.418823	-56.733515	80.07	-0.270	0.440	-0.040	80.00	-1.00	0.40	 	 	 	 	 	 	 	 	 	 	 	 	 	 	 	 	 	 	1581533121	0.45	0.83
12/02/2020 18:45:22	120220	12022020	184522	80.35	12.418822	-56.733517	80.41	-0.490	0.640	0.030	80.35	-0.80	0.40	 	 	 	 	 	 	 	 	 	 	 	 	 	 	 	 	 	 	1581533122	0.37	0.69
12/02/2020 18:45:23	120220	12022020	184523	80.34	12.418818	-56.733517	80.37	-0.480	0.410	0.470	80.34	-0.90	0.80	 	 	 	 	 	 	 	 	 	 	 	 	 	 	 	 	 	 	1581533123	0.71	1.31
12/02/2020 18:45:24	120220	12022020	184524	79.98	12.418813	-56.733515	80.01	-0.260	-0.230	1.250	79.98	-1.50	1.50	 	 	 	 	 	 	 	 	 	 	 	 	 	 	 	 	 	 	1581533124	1.17	2.17
12/02/2020 18:45:25	120220	12022020	184525	79.61	12.418810	-56.733512	79.66	0.060	-0.890	1.870	79.61	-2.20	2.20	 	 	 	 	 	 	 	 	 	 	 	 	 	 	 	 	 	 	1581533125	1.03	1.91
12/02/2020 18:45:26	120220	12022020	184526	79.67	12.418810	-56.733510	79.76	0.380	-1.320	1.780	79.67	-2.70	2.20	 	 	 	 	 	 	 	 	 	 	 	 	 	 	 	 	 	 	1581533126	0.51	0.94
12/02/2020 18:45:27	120220	12022020	184527	80.02	12.418813	-56.733508	80.09	0.650	-1.390	1.280	80.02	-2.80	1.70	 	 	 	 	 	 	 	 	 	 	 	 	 	 	 	 	 	 	1581533127	0.73	1.35
12/02/2020 18:45:28	120220	12022020	184528	80.13	12.418817	-56.733508	80.16	0.710	-0.810	0.870	80.13	-2.30	1.30	 	 	 	 	 	 	 	 	 	 	 	 	 	 	 	 	 	 	1581533128	0.63	1.17
12/02/2020 18:45:29	120220	12022020	184529	80.02	12.418818	-56.733512	80.03	0.320	0.480	0.490	80.02	-1.10	0.90	 	 	 	 	 	 	 	 	 	 	 	 	 	 	 	 	 	 	1581533129	0.84	1.56
12/02/2020 18:45:30	120220	12022020	184530	79.90	12.418822	-56.733517	79.92	-0.370	1.590	0.100	79.90	0.10	0.60	 	 	 	 	 	 	 	 	 	 	 	 	 	 	 	 	 	 	1581533130	1.35	2.50
12/02/2020 18:45:31	120220	12022020	184531	79.90	12.418823	-56.733520	79.94	-0.890	1.520	-0.290	79.90	0.20	0.20	 	 	 	 	 	 	 	 	 	 	 	 	 	 	 	 	 	 	1581533131	0.84	1.56
12/02/2020 18:45:32	120220	12022020	184532	80.18	12.418825	-56.733518	80.21	-0.910	0.310	-0.700	80.18	-0.90	-0.20	 	 	 	 	 	 	 	 	 	 	 	 	 	 	 	 	 	 	1581533132	0.61	1.13
12/02/2020 18:45:33	120220	12022020	184533	80.41	12.418825	-56.733513	80.45	-0.490	-1.020	-0.810	80.41	-2.30	-0.40	 	 	 	 	 	 	 	 	 	 	 	 	 	 	 	 	 	 	1581533133	1.14	2.11
12/02/2020 18:45:34	120220	12022020	184534	80.37	12.418823	-56.733510	80.37	0.030	-1.640	-0.400	80.37	-3.00	-0.10	 	 	 	 	 	 	 	 	 	 	 	 	 	 	 	 	 	 	1581533134	0.95	1.76
12/02/2020 18:45:35	120220	12022020	184535	80.03	12.418820	-56.733508	80.04	0.390	-1.440	0.300	80.03	-2.90	0.60	 	 	 	 	 	 	 	 	 	 	 	 	 	 	 	 	 	 	1581533135	0.78	1.44
12/02/2020 18:45:36	120220	12022020	184536	79.64	12.418817	-56.733510	79.65	0.490	-0.810	0.970	79.64	-2.30	1.30	 	 	 	 	 	 	 	 	 	 	 	 	 	 	 	 	 	 	1581533136	0.73	1.35
12/02/2020 18:45:37	120220	12022020	184537	79.32	12.418815	-56.733510	79.36	0.390	-0.100	1.300	79.32	-1.60	1.70	 	 	 	 	 	 	 	 	 	 	 	 	 	 	 	 	 	 	1581533137	0.44	0.81
12/02/2020 18:45:38	120220	12022020	184538	79.27	12.418817	-56.733512	79.33	0.170	0.470	1.100	79.27	-1.00	1.60	 	 	 	 	 	 	 	 	 	 	 	 	 	 	 	 	 	 	1581533138	0.43	0.80
12/02/2020 18:45:39	120220	12022020	184539	79.55	12.418820	-56.733513	79.62	-0.060	0.720	0.570	79.55	-0.70	1.00	 	 	 	 	 	 	 	 	 	 	 	 	 	 	 	 	 	 	1581533139	0.81	1.50
12/02/2020 18:45:40	120220	12022020	184540	79.98	12.418823	-56.733515	80.05	-0.230	0.630	0.180	79.98	-0.80	0.60	 	 	 	 	 	 	 	 	 	 	 	 	 	 	 	 	 	 	1581533140	0.70	1.30
12/02/2020 18:45:41	120220	12022020	184541	80.29	12.418823	-56.733513	80.36	-0.330	0.300	0.090	80.29	-1.00	0.50	 	 	 	 	 	 	 	 	 	 	 	 	 	 	 	 	 	 	1581533141	0.15	0.28
12/02/2020 18:45:42	120220	12022020	184542	80.27	12.418822	-56.733513	80.30	-0.340	-0.210	0.280	80.27	-1.50	0.60	 	 	 	 	 	 	 	 	 	 	 	 	 	 	 	 	 	 	1581533142	0.54	1.00
12/02/2020 18:45:43	120220	12022020	184543	79.85	12.418818	-56.733510	79.85	-0.210	-0.850	0.660	79.85	-2.20	1.00	 	 	 	 	 	 	 	 	 	 	 	 	 	 	 	 	 	 	1581533143	0.91	1.69
12/02/2020 18:45:44	120220	12022020	184544	79.32	12.418815	-56.733507	79.32	0.100	-1.370	1.030	79.32	-2.70	1.40	 	 	 	 	 	 	 	 	 	 	 	 	 	 	 	 	 	 	1581533144	0.97	1.80
12/02/2020 18:45:45	120220	12022020	184545	79.01	12.418815	-56.733503	79.06	0.440	-1.300	1.100	79.01	-2.70	1.50	 	 	 	 	 	 	 	 	 	 	 	 	 	 	 	 	 	 	1581533145	0.55	1.02
12/02/2020 18:45:46	120220	12022020	184546	79.13	12.418817	-56.733505	79.19	0.520	-0.410	0.650	79.13	-2.00	1.10	 	 	 	 	 	 	 	 	 	 	 	 	 	 	 	 	 	 	1581533146	0.60	1.11
12/02/2020 18:45:47	120220	12022020	184547	79.54	12.418822	-56.733510	79.59	0.220	0.710	-0.190	79.54	-0.80	0.30	 	 	 	 	 	 	 	 	 	 	 	 	 	 	 	 	 	 	1581533147	1.44	2.67
12/02/2020 18:45:48	120220	12022020	184548	79.92	12.418825	-56.733515	79.94	-0.220	1.110	-0.880	79.92	-0.30	-0.40	 	 	 	 	 	 	 	 	 	 	 	 	 	 	 	 	 	 	1581533148	1.26	2.33
12/02/2020 18:45:49	120220	12022020	184549	79.99	12.418827	-56.733513	79.97	-0.490	0.510	-0.900	79.99	-0.80	-0.50	 	 	 	 	 	 	 	 	 	 	 	 	 	 	 	 	 	 	1581533149	0.28	0.52
12/02/2020 18:45:50	120220	12022020	184550	79.66	12.418823	-56.733510	79.63	-0.470	-0.390	-0.200	79.66	-1.70	0.10	 	 	 	 	 	 	 	 	 	 	 	 	 	 	 	 	 	 	1581533150	1.19	2.20
12/02/2020 18:45:51	120220	12022020	184551	79.17	12.418820	-56.733505	79.17	-0.200	-0.840	0.550	79.17	-2.20	0.90	 	 	 	 	 	 	 	 	 	 	 	 	 	 	 	 	 	 	1581533151	1.18	2.19
12/02/2020 18:45:52	120220	12022020	184552	78.95	12.418818	-56.733505	78.98	0.110	-0.720	0.910	78.95	-2.10	1.30	 	 	 	 	 	 	 	 	 	 	 	 	 	 	 	 	 	 	1581533152	0.48	0.89
12/02/2020 18:45:53	120220	12022020	184553	79.18	12.418818	-56.733507	79.25	0.260	-0.410	0.840	79.18	-1.80	1.30	 	 	 	 	 	 	 	 	 	 	 	 	 	 	 	 	 	 	1581533153	0.31	0.57
12/02/2020 18:45:54	120220	12022020	184554	79.79	12.418818	-56.733508	79.88	0.150	-0.170	0.550	79.79	-1.60	1.00	 	 	 	 	 	 	 	 	 	 	 	 	 	 	 	 	 	 	1581533154	0.33	0.61
12/02/2020 18:45:55	120220	12022020	184555	80.40	12.418818	-56.733508	80.48	-0.100	-0.030	0.450	80.40	-1.40	0.80	 	 	 	 	 	 	 	 	 	 	 	 	 	 	 	 	 	 	1581533155	0.15	0.28
12/02/2020 18:45:56	120220	12022020	184556	80.52	12.418813	-56.733508	80.56	-0.230	-0.010	0.810	80.52	-1.40	1.10	 	 	 	 	 	 	 	 	 	 	 	 	 	 	 	 	 	 	1581533156	0.81	1.50
12/02/2020 18:45:57	120220	12022020	184557	79.96	12.418808	-56.733505	79.96	-0.060	-0.250	1.560	79.96	-1.60	1.80	 	 	 	 	 	 	 	 	 	 	 	 	 	 	 	 	 	 	1581533157	1.42	2.63
12/02/2020 18:45:58	120220	12022020	184558	79.09	12.418803	-56.733502	79.08	0.340	-0.640	2.100	79.09	-2.00	2.50	 	 	 	 	 	 	 	 	 	 	 	 	 	 	 	 	 	 	1581533158	1.37	2.54
12/02/2020 18:45:59	120220	12022020	184559	78.52	12.418803	-56.733498	78.55	0.620	-0.690	1.770	78.52	-2.10	2.30	 	 	 	 	 	 	 	 	 	 	 	 	 	 	 	 	 	 	1581533159	0.61	1.13
12/02/2020 18:46:00	120220	12022020	184600	78.60	12.418812	-56.733500	78.66	0.440	-0.170	0.520	78.60	-1.70	1.10	 	 	 	 	 	 	 	 	 	 	 	 	 	 	 	 	 	 	1581533160	1.69	3.13
12/02/2020 18:46:01	120220	12022020	184601	79.18	12.418822	-56.733505	79.23	-0.040	0.460	-1.030	79.18	-1.00	-0.40	 	 	 	 	 	 	 	 	 	 	 	 	 	 	 	 	 	 	1581533161	2.55	4.72
12/02/2020 18:46:02	120220	12022020	184602	79.83	12.418830	-56.733510	79.86	-0.350	0.530	-2.150	79.83	-0.80	-1.60	1014.70	25.60	25.70	20.30	20.40	412.0	72.0	72.0	434.0	27.0	351.00	10.40	71.00	10.00	33122	11156.0	27.4	27.4	1581533162	2.01	3.72
12/02/2020 18:46:03	120220	12022020	184603	80.33	12.418833	-56.733508	80.32	-0.380	0.030	-2.360	80.33	-1.30	-2.00	 	 	 	 	 	 	 	 	 	 	 	 	 	 	 	 	 	 	1581533163	0.64	1.19
12/02/2020 18:46:04	120220	12022020	184604	80.61	12.418828	-56.733505	80.60	-0.310	-0.450	-1.620	80.61	-1.80	-1.40	 	 	 	 	 	 	 	 	 	 	 	 	 	 	 	 	 	 	1581533164	1.21	2.24
12/02/2020 18:46:05	120220	12022020	184605	80.56	12.418818	-56.733502	80.55	-0.230	-0.560	-0.130	80.56	-1.90	0.00	 	 	 	 	 	 	 	 	 	 	 	 	 	 	 	 	 	 	1581533165	2.27	4.20
12/02/2020 18:46:06	120220	12022020	184606	80.12	12.418807	-56.733500	80.12	-0.030	-0.460	1.690	80.12	-1.80	1.80	 	 	 	 	 	 	 	 	 	 	 	 	 	 	 	 	 	 	1581533166	2.68	4.96
12/02/2020 18:46:07	120220	12022020	184607	79.61	12.418797	-56.733498	79.64	0.350	-0.510	3.080	79.61	-1.90	3.30	 	 	 	 	 	 	 	 	 	 	 	 	 	 	 	 	 	 	1581533167	2.22	4.11
12/02/2020 18:46:08	120220	12022020	184608	79.23	12.418792	-56.733497	79.29	0.610	-0.620	3.630	79.23	-2.00	4.00	 	 	 	 	 	 	 	 	 	 	 	 	 	 	 	 	 	 	1581533168	1.13	2.09
12/02/2020 18:46:09	120220	12022020	184609	79.07	12.418793	-56.733495	79.15	0.470	-0.400	3.280	79.07	-1.80	3.80	 	 	 	 	 	 	 	 	 	 	 	 	 	 	 	 	 	 	1581533169	0.41	0.76
12/02/2020 18:46:10	120220	12022020	184610	79.25	12.418800	-56.733497	79.34	-0.050	0.190	2.100	79.25	-1.30	2.70	 	 	 	 	 	 	 	 	 	 	 	 	 	 	 	 	 	 	1581533170	1.47	2.72
12/02/2020 18:46:11	120220	12022020	184611	79.74	12.418808	-56.733502	79.83	-0.530	0.570	0.520	79.74	-0.80	1.10	 	 	 	 	 	 	 	 	 	 	 	 	 	 	 	 	 	 	1581533171	2.05	3.80
12/02/2020 18:46:12	120220	12022020	184612	80.27	12.418815	-56.733503	80.32	-0.560	0.300	-0.730	80.27	-1.00	-0.20	 	 	 	 	 	 	 	 	 	 	 	 	 	 	 	 	 	 	1581533172	1.51	2.80
12/02/2020 18:46:13	120220	12022020	184613	80.56	12.418818	-56.733502	80.56	-0.170	-0.280	-1.290	80.56	-1.60	-0.90	 	 	 	 	 	 	 	 	 	 	 	 	 	 	 	 	 	 	1581533173	0.74	1.37
12/02/2020 18:46:14	120220	12022020	184614	80.50	12.418817	-56.733498	80.47	0.240	-0.600	-1.200	80.50	-2.00	-0.90	 	 	 	 	 	 	 	 	 	 	 	 	 	 	 	 	 	 	1581533174	0.49	0.91
12/02/2020 18:46:15	120220	12022020	184615	80.17	12.418815	-56.733498	80.15	0.390	-0.470	-0.670	80.17	-1.90	-0.40	 	 	 	 	 	 	 	 	 	 	 	 	 	 	 	 	 	 	1581533175	0.59	1.09
12/02/2020 18:46:16	120220	12022020	184616	79.91	12.418812	-56.733500	79.94	0.290	-0.200	-0.080	79.91	-1.60	0.20	 	 	 	 	 	 	 	 	 	 	 	 	 	 	 	 	 	 	1581533176	0.83	1.54
12/02/2020 18:46:17	120220	12022020	184617	79.75	12.418807	-56.733500	79.79	0.140	-0.180	0.560	79.75	-1.50	0.90	 	 	 	 	 	 	 	 	 	 	 	 	 	 	 	 	 	 	1581533177	0.77	1.43
12/02/2020 18:46:18	120220	12022020	184618	79.55	12.418805	-56.733498	79.60	0.060	-0.440	1.280	79.55	-1.80	1.60	 	 	 	 	 	 	 	 	 	 	 	 	 	 	 	 	 	 	1581533178	0.72	1.33
12/02/2020 18:46:19	120220	12022020	184619	79.44	12.418803	-56.733495	79.51	0.070	-0.730	1.860	79.44	-2.10	2.20	 	 	 	 	 	 	 	 	 	 	 	 	 	 	 	 	 	 	1581533179	0.78	1.44
12/02/2020 18:46:20	120220	12022020	184620	79.55	12.418802	-56.733492	79.64	0.150	-0.740	2.110	79.55	-2.10	2.50	 	 	 	 	 	 	 	 	 	 	 	 	 	 	 	 	 	 	1581533180	0.66	1.22
12/02/2020 18:46:21	120220	12022020	184621	79.76	12.418800	-56.733492	79.92	0.180	-0.330	1.880	79.76	-1.80	2.30	 	 	 	 	 	 	 	 	 	 	 	 	 	 	 	 	 	 	1581533181	0.21	0.39
12/02/2020 18:46:22	120220	12022020	184622	80.11	12.418802	-56.733493	80.18	0.010	0.420	1.290	80.11	-1.10	1.80	 	 	 	 	 	 	 	 	 	 	 	 	 	 	 	 	 	 	1581533182	0.53	0.98
12/02/2020 18:46:23	120220	12022020	184623	80.21	12.418803	-56.733497	80.26	-0.340	1.140	0.760	80.21	-0.30	1.20	 	 	 	 	 	 	 	 	 	 	 	 	 	 	 	 	 	 	1581533183	1.00	1.85
12/02/2020 18:46:24	120220	12022020	184624	80.16	12.418805	-56.733502	80.19	-0.640	1.310	0.460	80.16	-0.10	0.90	 	 	 	 	 	 	 	 	 	 	 	 	 	 	 	 	 	 	1581533184	0.89	1.65
12/02/2020 18:46:25	120220	12022020	184625	80.13	12.418807	-56.733502	80.16	-0.640	0.470	0.210	80.13	-0.70	0.60	 	 	 	 	 	 	 	 	 	 	 	 	 	 	 	 	 	 	1581533185	0.24	0.44
12/02/2020 18:46:26	120220	12022020	184626	80.10	12.418807	-56.733498	80.10	-0.300	-0.980	-0.050	80.10	-2.20	0.40	 	 	 	 	 	 	 	 	 	 	 	 	 	 	 	 	 	 	1581533186	0.79	1.46
12/02/2020 18:46:27	120220	12022020	184627	79.93	12.418808	-56.733493	79.93	0.210	-2.100	-0.110	79.93	-3.40	0.30	 	 	 	 	 	 	 	 	 	 	 	 	 	 	 	 	 	 	1581533187	1.11	2.06
12/02/2020 18:46:28	120220	12022020	184628	79.69	12.418807	-56.733490	79.69	0.640	-2.130	0.120	79.69	-3.50	0.50	 	 	 	 	 	 	 	 	 	 	 	 	 	 	 	 	 	 	1581533188	0.65	1.20
12/02/2020 18:46:29	120220	12022020	184629	79.62	12.418805	-56.733492	79.65	0.790	-1.150	0.460	79.62	-2.70	0.80	 	 	 	 	 	 	 	 	 	 	 	 	 	 	 	 	 	 	1581533189	0.38	0.70
12/02/2020 18:46:30	120220	12022020	184630	79.70	12.418805	-56.733495	79.74	0.600	0.150	0.640	79.70	-1.40	1.00	 	 	 	 	 	 	 	 	 	 	 	 	 	 	 	 	 	 	1581533190	0.85	1.57
12/02/2020 18:46:31	120220	12022020	184631	79.87	12.418805	-56.733498	79.94	0.240	0.970	0.590	79.87	-0.50	1.00	 	 	 	 	 	 	 	 	 	 	 	 	 	 	 	 	 	 	1581533191	0.74	1.37
12/02/2020 18:46:32	120220	12022020	184632	80.11	12.418807	-56.733498	80.18	-0.080	1.070	0.580	80.11	-0.30	1.00	 	 	 	 	 	 	 	 	 	 	 	 	 	 	 	 	 	 	1581533192	0.22	0.41
12/02/2020 18:46:33	120220	12022020	184633	80.30	12.418805	-56.733497	80.41	-0.320	0.770	0.760	80.30	-0.60	1.10	 	 	 	 	 	 	 	 	 	 	 	 	 	 	 	 	 	 	1581533193	0.35	0.65
12/02/2020 18:46:34	120220	12022020	184634	80.55	12.418803	-56.733497	80.60	-0.500	0.400	0.930	80.55	-0.90	1.30	 	 	 	 	 	 	 	 	 	 	 	 	 	 	 	 	 	 	1581533194	0.42	0.78
12/02/2020 18:46:35	120220	12022020	184635	80.60	12.418802	-56.733497	80.63	-0.570	-0.070	1.080	80.60	-1.40	1.40	 	 	 	 	 	 	 	 	 	 	 	 	 	 	 	 	 	 	1581533195	0.42	0.78
12/02/2020 18:46:36	120220	12022020	184636	80.44	12.418800	-56.733495	80.46	-0.410	-0.690	1.370	80.44	-2.00	1.70	 	 	 	 	 	 	 	 	 	 	 	 	 	 	 	 	 	 	1581533196	0.50	0.93
12/02/2020 18:46:37	120220	12022020	184637	80.23	12.418798	-56.733493	80.27	-0.060	-1.210	1.730	80.23	-2.50	2.10	 	 	 	 	 	 	 	 	 	 	 	 	 	 	 	 	 	 	1581533197	0.56	1.04
12/02/2020 18:46:38	120220	12022020	184638	80.18	12.418797	-56.733492	80.25	0.270	-1.200	1.770	80.18	-2.60	2.20	 	 	 	 	 	 	 	 	 	 	 	 	 	 	 	 	 	 	1581533198	0.25	0.46
12/02/2020 18:46:39	120220	12022020	184639	80.33	12.418798	-56.733493	80.40	0.430	-0.700	1.220	80.33	-2.20	1.70	 	 	 	 	 	 	 	 	 	 	 	 	 	 	 	 	 	 	1581533199	0.47	0.87
12/02/2020 18:46:40	120220	12022020	184640	80.50	12.418802	-56.733497	80.56	0.390	-0.080	0.410	80.50	-1.50	0.90	 	 	 	 	 	 	 	 	 	 	 	 	 	 	 	 	 	 	1581533200	0.99	1.83
12/02/2020 18:46:41	120220	12022020	184641	80.57	12.418807	-56.733498	80.61	0.220	0.340	-0.080	80.57	-1.10	0.30	 	 	 	 	 	 	 	 	 	 	 	 	 	 	 	 	 	 	1581533201	0.87	1.61
12/02/2020 18:46:42	120220	12022020	184642	80.66	12.418807	-56.733500	80.71	0.020	0.320	-0.090	80.66	-1.00	0.30	 	 	 	 	 	 	 	 	 	 	 	 	 	 	 	 	 	 	1581533202	0.23	0.43
12/02/2020 18:46:43	120220	12022020	184643	80.89	12.418807	-56.733498	80.92	-0.090	-0.080	-0.030	80.89	-1.40	0.30	 	 	 	 	 	 	 	 	 	 	 	 	 	 	 	 	 	 	1581533203	0.38	0.70
12/02/2020 18:46:44	120220	12022020	184644	80.98	12.418807	-56.733495	81.00	-0.080	-0.460	0.100	80.98	-1.80	0.50	 	 	 	 	 	 	 	 	 	 	 	 	 	 	 	 	 	 	1581533204	0.57	1.06
12/02/2020 18:46:45	120220	12022020	184645	80.91	12.418805	-56.733493	80.90	-0.010	-0.480	0.390	80.91	-1.90	0.70	 	 	 	 	 	 	 	 	 	 	 	 	 	 	 	 	 	 	1581533205	0.47	0.87
12/02/2020 18:46:46	120220	12022020	184646	80.68	12.418803	-56.733493	80.71	-0.030	-0.170	0.860	80.68	-1.60	1.20	 	 	 	 	 	 	 	 	 	 	 	 	 	 	 	 	 	 	1581533206	0.50	0.93
12/02/2020 18:46:47	120220	12022020	184647	80.55	12.418800	-56.733495	80.58	-0.140	0.210	1.320	80.55	-1.20	1.70	 	 	 	 	 	 	 	 	 	 	 	 	 	 	 	 	 	 	1581533207	0.58	1.07
12/02/2020 18:46:48	120220	12022020	184648	80.63	12.418800	-56.733497	80.72	-0.310	0.560	1.350	80.63	-0.90	1.80	 	 	 	 	 	 	 	 	 	 	 	 	 	 	 	 	 	 	1581533208	0.52	0.96
12/02/2020 18:46:49	120220	12022020	184649	81.04	12.418800	-56.733500	81.12	-0.430	0.660	0.970	81.04	-0.70	1.40	 	 	 	 	 	 	 	 	 	 	 	 	 	 	 	 	 	 	1581533209	0.69	1.28
12/02/2020 18:46:50	120220	12022020	184650	81.41	12.418802	-56.733502	81.48	-0.400	0.130	0.620	81.41	-1.10	1.00	 	 	 	 	 	 	 	 	 	 	 	 	 	 	 	 	 	 	1581533210	0.47	0.87
12/02/2020 18:46:51	120220	12022020	184651	81.49	12.418802	-56.733500	81.49	-0.070	-1.100	0.560	81.49	-2.30	0.90	 	 	 	 	 	 	 	 	 	 	 	 	 	 	 	 	 	 	1581533211	0.56	1.04
12/02/2020 18:46:52	120220	12022020	184652	81.14	12.418800	-56.733493	81.13	0.450	-2.310	0.850	81.14	-3.60	1.20	 	 	 	 	 	 	 	 	 	 	 	 	 	 	 	 	 	 	1581533212	1.46	2.70
12/02/2020 18:46:53	120220	12022020	184653	80.74	12.418797	-56.733487	80.77	0.820	-2.320	1.200	80.74	-3.80	1.60	 	 	 	 	 	 	 	 	 	 	 	 	 	 	 	 	 	 	1581533213	1.31	2.43
12/02/2020 18:46:54	120220	12022020	184654	80.62	12.418797	-56.733488	80.67	0.740	-0.710	1.120	80.62	-2.40	1.50	 	 	 	 	 	 	 	 	 	 	 	 	 	 	 	 	 	 	1581533214	0.46	0.85
12/02/2020 18:46:55	120220	12022020	184655	80.69	12.418797	-56.733498	80.74	0.240	1.440	0.620	80.69	-0.20	1.10	 	 	 	 	 	 	 	 	 	 	 	 	 	 	 	 	 	 	1581533215	1.88	3.48
12/02/2020 18:46:56	120220	12022020	184656	80.82	12.418802	-56.733507	80.85	-0.380	2.530	-0.090	80.82	1.10	0.40	 	 	 	 	 	 	 	 	 	 	 	 	 	 	 	 	 	 	1581533216	1.98	3.67
12/02/2020 18:46:57	120220	12022020	184657	81.05	12.418805	-56.733508	81.07	-0.840	2.010	-0.790	81.05	0.80	-0.30	 	 	 	 	 	 	 	 	 	 	 	 	 	 	 	 	 	 	1581533217	1.10	2.04
12/02/2020 18:46:58	120220	12022020	184658	81.41	12.418807	-56.733507	81.43	-1.010	0.500	-1.170	81.41	-0.70	-0.80	 	 	 	 	 	 	 	 	 	 	 	 	 	 	 	 	 	 	1581533218	0.66	1.22
12/02/2020 18:46:59	120220	12022020	184659	81.69	12.418805	-56.733502	81.77	-0.850	-1.020	-1.060	81.69	-2.20	-0.70	 	 	 	 	 	 	 	 	 	 	 	 	 	 	 	 	 	 	1581533219	0.94	1.74
12/02/2020 18:47:00	120220	12022020	184700	81.77	12.418802	-56.733500	81.76	-0.310	-1.940	-0.470	81.77	-3.20	-0.20	 	 	 	 	 	 	 	 	 	 	 	 	 	 	 	 	 	 	1581533220	1.11	2.06
12/02/2020 18:47:01	120220	12022020	184701	81.46	12.418797	-56.733500	81.45	0.490	-2.170	0.270	81.46	-3.50	0.50	 	 	 	 	 	 	 	 	 	 	 	 	 	 	 	 	 	 	1581533221	1.04	1.93
12/02/2020 18:47:02	120220	12022020	184702	81.06	12.418793	-56.733500	81.07	1.210	-1.860	1.010	81.06	-3.30	1.30	1014.70	25.70	25.70	20.20	20.30	389.0	71.0	72.0	435.0	27.0	350.00	10.00	70.00	9.60	31436	11494.0	27.4	27.4	1581533222	0.72	1.33
12/02/2020 18:47:03	120220	12022020	184703	80.78	12.418790	-56.733500	80.82	1.410	-1.140	1.660	80.78	-2.60	2.00	 	 	 	 	 	 	 	 	 	 	 	 	 	 	 	 	 	 	1581533223	0.42	0.78
12/02/2020 18:47:04	120220	12022020	184704	80.83	12.418790	-56.733500	80.92	0.840	0.010	1.900	80.83	-1.60	2.30	 	 	 	 	 	 	 	 	 	 	 	 	 	 	 	 	 	 	1581533224	0.26	0.48
12/02/2020 18:47:05	120220	12022020	184705	81.15	12.418790	-56.733503	81.26	-0.150	1.300	1.760	81.15	-0.20	2.20	 	 	 	 	 	 	 	 	 	 	 	 	 	 	 	 	 	 	1581533225	0.74	1.37
12/02/2020 18:47:06	120220	12022020	184706	81.50	12.418788	-56.733508	81.59	-0.940	2.030	1.520	81.50	0.60	1.90	 	 	 	 	 	 	 	 	 	 	 	 	 	 	 	 	 	 	1581533226	0.92	1.70
12/02/2020 18:47:07	120220	12022020	184707	81.68	12.418785	-56.733510	81.75	-1.240	1.950	1.240	81.68	0.60	1.70	 	 	 	 	 	 	 	 	 	 	 	 	 	 	 	 	 	 	1581533227	0.61	1.13
12/02/2020 18:47:08	120220	12022020	184708	81.75	12.418785	-56.733512	81.80	-1.180	1.310	0.840	81.75	0.00	1.30	 	 	 	 	 	 	 	 	 	 	 	 	 	 	 	 	 	 	1581533228	0.34	0.63
12/02/2020 18:47:09	120220	12022020	184709	81.80	12.418787	-56.733513	81.82	-0.840	0.080	0.340	81.80	-1.10	0.80	 	 	 	 	 	 	 	 	 	 	 	 	 	 	 	 	 	 	1581533229	0.31	0.57
12/02/2020 18:47:10	120220	12022020	184710	81.76	12.418788	-56.733512	81.73	-0.180	-1.720	-0.070	81.76	-2.80	0.40	 	 	 	 	 	 	 	 	 	 	 	 	 	 	 	 	 	 	1581533230	0.66	1.22
12/02/2020 18:47:11	120220	12022020	184711	81.62	12.418792	-56.733505	81.56	0.650	-3.330	-0.230	81.62	-4.50	0.20	 	 	 	 	 	 	 	 	 	 	 	 	 	 	 	 	 	 	1581533231	1.26	2.33
12/02/2020 18:47:12	120220	12022020	184712	81.37	12.418793	-56.733502	81.38	1.300	-3.540	0.060	81.37	-5.00	0.40	 	 	 	 	 	 	 	 	 	 	 	 	 	 	 	 	 	 	1581533232	0.98	1.81
12/02/2020 18:47:13	120220	12022020	184713	81.31	12.418790	-56.733502	81.34	1.450	-1.930	0.640	81.31	-3.60	0.90	 	 	 	 	 	 	 	 	 	 	 	 	 	 	 	 	 	 	1581533233	0.65	1.20
12/02/2020 18:47:14	120220	12022020	184714	81.49	12.418785	-56.733508	81.54	1.030	0.530	1.040	81.49	-1.20	1.40	 	 	 	 	 	 	 	 	 	 	 	 	 	 	 	 	 	 	1581533234	1.67	3.09
12/02/2020 18:47:15	120220	12022020	184715	81.74	12.418782	-56.733515	81.78	0.250	2.410	1.110	81.74	0.80	1.50	 	 	 	 	 	 	 	 	 	 	 	 	 	 	 	 	 	 	1581533235	1.68	3.11
12/02/2020 18:47:16	120220	12022020	184716	81.77	12.418782	-56.733520	81.78	-0.490	2.860	1.200	81.77	1.50	1.60	 	 	 	 	 	 	 	 	 	 	 	 	 	 	 	 	 	 	1581533236	0.85	1.57
12/02/2020 18:47:17	120220	12022020	184717	81.59	12.418782	-56.733518	81.59	-0.940	1.990	1.290	81.59	0.80	1.70	 	 	 	 	 	 	 	 	 	 	 	 	 	 	 	 	 	 	1581533237	0.17	0.31
12/02/2020 18:47:18	120220	12022020	184718	81.50	12.418783	-56.733517	81.53	-1.070	0.520	1.100	81.50	-0.70	1.50	 	 	 	 	 	 	 	 	 	 	 	 	 	 	 	 	 	 	1581533238	0.64	1.19
12/02/2020 18:47:19	120220	12022020	184719	81.72	12.418787	-56.733513	81.75	-0.880	-0.950	0.630	81.72	-2.20	1.10	 	 	 	 	 	 	 	 	 	 	 	 	 	 	 	 	 	 	1581533239	0.70	1.30
12/02/2020 18:47:20	120220	12022020	184720	82.10	12.418788	-56.733513	82.12	-0.390	-2.000	0.260	82.10	-3.30	0.70	 	 	 	 	 	 	 	 	 	 	 	 	 	 	 	 	 	 	1581533240	0.50	0.93
12/02/2020 18:47:21	120220	12022020	184721	82.28	12.418787	-56.733512	82.29	0.190	-2.280	0.390	82.28	-3.70	0.70	 	 	 	 	 	 	 	 	 	 	 	 	 	 	 	 	 	 	1581533241	0.14	0.26
12/02/2020 18:47:22	120220	12022020	184722	82.24	12.418783	-56.733513	82.25	0.550	-1.780	0.900	82.24	-3.30	1.20	 	 	 	 	 	 	 	 	 	 	 	 	 	 	 	 	 	 	1581533242	0.83	1.54
12/02/2020 18:47:23	120220	12022020	184723	82.18	12.418778	-56.733515	82.20	0.610	-0.900	1.270	82.18	-2.40	1.60	 	 	 	 	 	 	 	 	 	 	 	 	 	 	 	 	 	 	1581533243	1.07	1.98
12/02/2020 18:47:24	120220	12022020	184724	82.20	12.418777	-56.733517	82.21	0.590	-0.080	1.290	82.20	-1.50	1.70	 	 	 	 	 	 	 	 	 	 	 	 	 	 	 	 	 	 	1581533244	0.65	1.20
12/02/2020 18:47:25	120220	12022020	184725	82.23	12.418777	-56.733517	82.23	0.590	0.510	1.090	82.23	-0.90	1.50	 	 	 	 	 	 	 	 	 	 	 	 	 	 	 	 	 	 	1581533245	0.01	0.02
12/02/2020 18:47:26	120220	12022020	184726	82.13	12.418778	-56.733517	82.12	0.460	0.940	0.870	82.13	-0.50	1.30	 	 	 	 	 	 	 	 	 	 	 	 	 	 	 	 	 	 	1581533246	0.42	0.78
12/02/2020 18:47:27	120220	12022020	184727	81.97	12.418782	-56.733517	81.95	0.080	1.230	0.510	81.97	-0.20	1.00	 	 	 	 	 	 	 	 	 	 	 	 	 	 	 	 	 	 	1581533247	0.74	1.37
12/02/2020 18:47:28	120220	12022020	184728	81.95	12.418787	-56.733520	81.93	-0.360	1.170	-0.110	81.95	-0.20	0.40	 	 	 	 	 	 	 	 	 	 	 	 	 	 	 	 	 	 	1581533248	1.15	2.13
12/02/2020 18:47:29	120220	12022020	184729	82.15	12.418792	-56.733522	82.15	-0.580	0.460	-0.730	82.15	-0.80	-0.30	 	 	 	 	 	 	 	 	 	 	 	 	 	 	 	 	 	 	1581533249	1.13	2.09
12/02/2020 18:47:30	120220	12022020	184730	82.37	12.418793	-56.733520	82.35	-0.450	-0.770	-0.870	82.37	-2.00	-0.50	 	 	 	 	 	 	 	 	 	 	 	 	 	 	 	 	 	 	1581533250	0.71	1.31
12/02/2020 18:47:31	120220	12022020	184731	82.39	12.418793	-56.733517	82.37	-0.130	-1.780	-0.390	82.39	-3.00	-0.10	 	 	 	 	 	 	 	 	 	 	 	 	 	 	 	 	 	 	1581533251	0.85	1.57
12/02/2020 18:47:32	120220	12022020	184732	82.35	12.418790	-56.733513	82.35	0.110	-1.810	0.360	82.35	-3.20	0.60	 	 	 	 	 	 	 	 	 	 	 	 	 	 	 	 	 	 	1581533252	0.87	1.61
12/02/2020 18:47:33	120220	12022020	184733	82.32	12.418785	-56.733515	82.35	0.120	-0.990	1.220	82.32	-2.50	1.50	 	 	 	 	 	 	 	 	 	 	 	 	 	 	 	 	 	 	1581533253	1.21	2.24
12/02/2020 18:47:34	120220	12022020	184734	82.18	12.418778	-56.733517	82.20	0.040	-0.180	2.010	82.18	-1.60	2.30	 	 	 	 	 	 	 	 	 	 	 	 	 	 	 	 	 	 	1581533254	1.45	2.69
12/02/2020 18:47:35	120220	12022020	184735	81.91	12.418773	-56.733517	81.93	0.150	0.070	2.540	81.91	-1.30	2.90	 	 	 	 	 	 	 	 	 	 	 	 	 	 	 	 	 	 	1581533255	1.00	1.85
12/02/2020 18:47:36	120220	12022020	184736	81.73	12.418772	-56.733515	81.77	0.410	0.120	2.580	81.73	-1.30	3.00	 	 	 	 	 	 	 	 	 	 	 	 	 	 	 	 	 	 	1581533256	0.65	1.20
12/02/2020 18:47:37	120220	12022020	184737	81.78	12.418773	-56.733513	81.83	0.460	0.480	2.000	81.78	-1.00	2.50	 	 	 	 	 	 	 	 	 	 	 	 	 	 	 	 	 	 	1581533257	0.47	0.87
12/02/2020 18:47:38	120220	12022020	184738	82.01	12.418778	-56.733517	82.05	0.120	0.950	0.980	82.01	-0.50	1.50	 	 	 	 	 	 	 	 	 	 	 	 	 	 	 	 	 	 	1581533258	1.12	2.07
12/02/2020 18:47:39	120220	12022020	184739	82.21	12.418783	-56.733520	82.19	-0.310	0.880	-0.020	82.21	-0.40	0.50	 	 	 	 	 	 	 	 	 	 	 	 	 	 	 	 	 	 	1581533259	1.38	2.56
12/02/2020 18:47:40	120220	12022020	184740	82.15	12.418788	-56.733520	82.10	-0.410	-0.020	-0.610	82.15	-1.20	-0.10	 	 	 	 	 	 	 	 	 	 	 	 	 	 	 	 	 	 	1581533260	1.07	1.98
12/02/2020 18:47:41	120220	12022020	184741	81.97	12.418793	-56.733517	81.92	-0.140	-1.120	-0.900	81.97	-2.40	-0.50	 	 	 	 	 	 	 	 	 	 	 	 	 	 	 	 	 	 	1581533261	1.08	2.00
12/02/2020 18:47:42	120220	12022020	184742	81.87	12.418795	-56.733513	81.84	0.110	-1.500	-0.930	81.87	-2.90	-0.50	 	 	 	 	 	 	 	 	 	 	 	 	 	 	 	 	 	 	1581533262	0.72	1.33
12/02/2020 18:47:43	120220	12022020	184743	81.90	12.418793	-56.733513	81.90	0.100	-0.990	-0.550	81.90	-2.40	-0.20	 	 	 	 	 	 	 	 	 	 	 	 	 	 	 	 	 	 	1581533263	0.20	0.37
12/02/2020 18:47:44	120220	12022020	184744	81.99	12.418790	-56.733517	81.99	-0.070	-0.210	0.160	81.99	-1.70	0.50	 	 	 	 	 	 	 	 	 	 	 	 	 	 	 	 	 	 	1581533264	0.99	1.83
12/02/2020 18:47:45	120220	12022020	184745	82.03	12.418785	-56.733518	82.04	-0.070	0.190	0.810	82.03	-1.20	1.10	 	 	 	 	 	 	 	 	 	 	 	 	 	 	 	 	 	 	1581533265	1.06	1.96
12/02/2020 18:47:46	120220	12022020	184746	82.00	12.418783	-56.733517	82.01	0.240	0.010	1.170	82.00	-1.30	1.50	 	 	 	 	 	 	 	 	 	 	 	 	 	 	 	 	 	 	1581533266	0.69	1.28
12/02/2020 18:47:47	120220	12022020	184747	81.91	12.418782	-56.733513	81.93	0.550	-0.350	1.540	81.91	-1.70	1.90	 	 	 	 	 	 	 	 	 	 	 	 	 	 	 	 	 	 	1581533267	0.80	1.48
12/02/2020 18:47:48	120220	12022020	184748	81.94	12.418782	-56.733510	81.99	0.480	-0.390	1.900	81.94	-1.80	2.20	 	 	 	 	 	 	 	 	 	 	 	 	 	 	 	 	 	 	1581533268	0.65	1.20
12/02/2020 18:47:49	120220	12022020	184749	82.10	12.418780	-56.733510	82.21	-0.010	0.080	1.980	82.10	-1.40	2.40	 	 	 	 	 	 	 	 	 	 	 	 	 	 	 	 	 	 	1581533269	0.27	0.50
12/02/2020 18:47:50	120220	12022020	184750	82.32	12.418778	-56.733513	82.36	-0.510	0.760	1.630	82.32	-0.70	2.10	 	 	 	 	 	 	 	 	 	 	 	 	 	 	 	 	 	 	1581533270	0.78	1.44
12/02/2020 18:47:51	120220	12022020	184751	82.43	12.418780	-56.733518	82.46	-0.610	0.950	1.000	82.43	-0.40	1.50	 	 	 	 	 	 	 	 	 	 	 	 	 	 	 	 	 	 	1581533271	0.88	1.63
12/02/2020 18:47:52	120220	12022020	184752	82.44	12.418783	-56.733518	82.43	-0.300	0.230	0.500	82.44	-1.00	1.00	 	 	 	 	 	 	 	 	 	 	 	 	 	 	 	 	 	 	1581533272	0.58	1.07
12/02/2020 18:47:53	120220	12022020	184753	82.30	12.418785	-56.733515	82.28	0.130	-1.000	0.280	82.30	-2.20	0.70	 	 	 	 	 	 	 	 	 	 	 	 	 	 	 	 	 	 	1581533273	0.98	1.81
12/02/2020 18:47:54	120220	12022020	184754	82.28	12.418788	-56.733510	82.27	0.360	-1.800	0.050	82.28	-3.10	0.50	 	 	 	 	 	 	 	 	 	 	 	 	 	 	 	 	 	 	1581533274	1.16	2.15
12/02/2020 18:47:55	120220	12022020	184755	82.45	12.418792	-56.733510	82.45	0.310	-1.560	-0.170	82.45	-3.00	0.30	 	 	 	 	 	 	 	 	 	 	 	 	 	 	 	 	 	 	1581533275	0.63	1.17
12/02/2020 18:47:56	120220	12022020	184756	82.63	12.418792	-56.733512	82.62	0.050	-0.430	-0.030	82.63	-2.00	0.30	 	 	 	 	 	 	 	 	 	 	 	 	 	 	 	 	 	 	1581533276	0.63	1.17
12/02/2020 18:47:57	120220	12022020	184757	82.57	12.418787	-56.733517	82.56	-0.230	0.690	0.540	82.57	-0.80	0.90	 	 	 	 	 	 	 	 	 	 	 	 	 	 	 	 	 	 	1581533277	1.25	2.31
12/02/2020 18:47:58	120220	12022020	184758	82.37	12.418783	-56.733518	82.39	-0.350	1.050	1.080	82.37	-0.30	1.40	 	 	 	 	 	 	 	 	 	 	 	 	 	 	 	 	 	 	1581533278	0.96	1.78
12/02/2020 18:47:59	120220	12022020	184759	82.40	12.418782	-56.733518	82.45	-0.250	0.670	1.140	82.40	-0.60	1.60	 	 	 	 	 	 	 	 	 	 	 	 	 	 	 	 	 	 	1581533279	0.31	0.57
12/02/2020 18:48:00	120220	12022020	184800	82.70	12.418783	-56.733517	82.75	-0.060	0.060	0.950	82.70	-1.30	1.40	 	 	 	 	 	 	 	 	 	 	 	 	 	 	 	 	 	 	1581533280	0.47	0.87
12/02/2020 18:48:01	120220	12022020	184801	82.94	12.418783	-56.733515	83.02	0.120	-0.370	0.960	82.94	-1.70	1.30	 	 	 	 	 	 	 	 	 	 	 	 	 	 	 	 	 	 	1581533281	0.23	0.43
12/02/2020 18:48:02	120220	12022020	184802	83.05	12.418783	-56.733515	83.07	0.280	-0.650	1.130	83.05	-2.00	1.50	1014.70	25.80	25.80	20.30	20.40	362.0	71.0	71.0	436.0	27.0	345.00	9.60	67.00	9.20	29322	11830.0	27.4	27.4	1581533282	0.17	0.31
12/02/2020 18:48:03	120220	12022020	184803	82.97	12.418783	-56.733515	82.94	0.420	-0.970	1.140	82.97	-2.30	1.60	 	 	 	 	 	 	 	 	 	 	 	 	 	 	 	 	 	 	1581533283	0.12	0.22
12/02/2020 18:48:04	120220	12022020	184804	82.81	12.418783	-56.733512	82.80	0.490	-1.220	0.970	82.81	-2.60	1.40	 	 	 	 	 	 	 	 	 	 	 	 	 	 	 	 	 	 	1581533284	0.47	0.87
12/02/2020 18:48:05	120220	12022020	184805	82.72	12.418785	-56.733512	82.72	0.300	-0.890	0.920	82.72	-2.40	1.30	 	 	 	 	 	 	 	 	 	 	 	 	 	 	 	 	 	 	1581533285	0.35	0.65
12/02/2020 18:48:06	120220	12022020	184806	82.65	12.418785	-56.733513	82.64	-0.160	0.170	0.990	82.65	-1.40	1.40	 	 	 	 	 	 	 	 	 	 	 	 	 	 	 	 	 	 	1581533286	0.48	0.89
12/02/2020 18:48:07	120220	12022020	184807	82.67	12.418785	-56.733518	82.68	-0.660	1.250	0.890	82.67	-0.30	1.30	 	 	 	 	 	 	 	 	 	 	 	 	 	 	 	 	 	 	1581533287	1.12	2.07
12/02/2020 18:48:08	120220	12022020	184808	82.81	12.418785	-56.733523	82.82	-0.850	1.390	0.490	82.81	0.00	1.00	 	 	 	 	 	 	 	 	 	 	 	 	 	 	 	 	 	 	1581533288	0.86	1.59
12/02/2020 18:48:09	120220	12022020	184809	82.88	12.418788	-56.733522	82.87	-0.540	0.350	0.050	82.88	-0.90	0.50	 	 	 	 	 	 	 	 	 	 	 	 	 	 	 	 	 	 	1581533289	0.45	0.83
12/02/2020 18:48:10	120220	12022020	184810	82.80	12.418788	-56.733517	82.78	0.070	-1.050	-0.090	82.80	-2.30	0.30	 	 	 	 	 	 	 	 	 	 	 	 	 	 	 	 	 	 	1581533290	1.13	2.09
12/02/2020 18:48:11	120220	12022020	184811	82.71	12.418790	-56.733512	82.70	0.550	-1.730	-0.010	82.71	-3.10	0.40	 	 	 	 	 	 	 	 	 	 	 	 	 	 	 	 	 	 	1581533291	1.00	1.85
12/02/2020 18:48:12	120220	12022020	184812	82.80	12.418790	-56.733512	82.81	0.570	-1.160	0.130	82.80	-2.70	0.50	 	 	 	 	 	 	 	 	 	 	 	 	 	 	 	 	 	 	1581533292	0.06	0.11
12/02/2020 18:48:13	120220	12022020	184813	82.97	12.418788	-56.733517	82.97	0.170	0.080	0.380	82.97	-1.50	0.70	 	 	 	 	 	 	 	 	 	 	 	 	 	 	 	 	 	 	1581533293	1.14	2.11
12/02/2020 18:48:14	120220	12022020	184814	83.12	12.418785	-56.733522	83.12	-0.290	0.780	0.720	83.12	-0.60	1.10	 	 	 	 	 	 	 	 	 	 	 	 	 	 	 	 	 	 	1581533294	1.26	2.33
12/02/2020 18:48:15	120220	12022020	184815	83.12	12.418782	-56.733522	83.13	-0.420	0.380	1.130	83.12	-0.90	1.50	 	 	 	 	 	 	 	 	 	 	 	 	 	 	 	 	 	 	1581533295	0.77	1.43
12/02/2020 18:48:16	120220	12022020	184816	82.84	12.418778	-56.733518	82.83	-0.160	-0.490	1.640	82.84	-1.80	2.00	 	 	 	 	 	 	 	 	 	 	 	 	 	 	 	 	 	 	1581533296	1.17	2.17
12/02/2020 18:48:17	120220	12022020	184817	82.34	12.418777	-56.733513	82.33	0.150	-0.810	2.010	82.34	-2.20	2.40	 	 	 	 	 	 	 	 	 	 	 	 	 	 	 	 	 	 	1581533297	0.90	1.67
12/02/2020 18:48:18	120220	12022020	184818	81.95	12.418777	-56.733515	81.97	0.170	-0.370	2.000	81.95	-1.90	2.40	 	 	 	 	 	 	 	 	 	 	 	 	 	 	 	 	 	 	1581533298	0.17	0.31
12/02/2020 18:48:19	120220	12022020	184819	81.98	12.418778	-56.733518	82.02	-0.070	0.290	1.580	81.98	-1.20	2.10	 	 	 	 	 	 	 	 	 	 	 	 	 	 	 	 	 	 	1581533299	0.95	1.76
12/02/2020 18:48:20	120220	12022020	184820	82.38	12.418782	-56.733522	82.43	-0.260	0.500	0.860	82.38	-0.90	1.40	 	 	 	 	 	 	 	 	 	 	 	 	 	 	 	 	 	 	1581533300	1.03	1.91
12/02/2020 18:48:21	120220	12022020	184821	82.86	12.418785	-56.733523	82.88	-0.160	0.010	0.030	82.86	-1.30	0.50	 	 	 	 	 	 	 	 	 	 	 	 	 	 	 	 	 	 	1581533301	0.81	1.50
12/02/2020 18:48:22	120220	12022020	184822	83.09	12.418788	-56.733520	83.07	0.090	-0.700	-0.410	83.09	-2.00	0.00	 	 	 	 	 	 	 	 	 	 	 	 	 	 	 	 	 	 	1581533302	0.80	1.48
12/02/2020 18:48:23	120220	12022020	184823	82.86	12.418787	-56.733517	82.81	0.200	-0.940	-0.090	82.86	-2.30	0.20	 	 	 	 	 	 	 	 	 	 	 	 	 	 	 	 	 	 	1581533303	0.70	1.30
12/02/2020 18:48:24	120220	12022020	184824	82.49	12.418782	-56.733517	82.47	0.070	-0.540	0.590	82.49	-2.00	0.90	 	 	 	 	 	 	 	 	 	 	 	 	 	 	 	 	 	 	1581533304	1.03	1.91
12/02/2020 18:48:25	120220	12022020	184825	82.40	12.418778	-56.733520	82.43	-0.100	0.020	1.010	82.40	-1.40	1.40	 	 	 	 	 	 	 	 	 	 	 	 	 	 	 	 	 	 	1581533305	1.03	1.91
12/02/2020 18:48:26	120220	12022020	184826	82.56	12.418777	-56.733522	82.60	-0.060	0.250	1.030	82.56	-1.20	1.40	 	 	 	 	 	 	 	 	 	 	 	 	 	 	 	 	 	 	1581533306	0.52	0.96
12/02/2020 18:48:27	120220	12022020	184827	82.58	12.418778	-56.733522	82.59	0.150	0.050	1.010	82.58	-1.30	1.40	 	 	 	 	 	 	 	 	 	 	 	 	 	 	 	 	 	 	1581533307	0.31	0.57
12/02/2020 18:48:28	120220	12022020	184828	82.32	12.418780	-56.733520	82.32	0.220	-0.160	1.190	82.32	-1.50	1.60	 	 	 	 	 	 	 	 	 	 	 	 	 	 	 	 	 	 	1581533308	0.39	0.72
12/02/2020 18:48:29	120220	12022020	184829	82.18	12.418778	-56.733520	82.22	-0.010	-0.020	1.380	82.18	-1.40	1.80	 	 	 	 	 	 	 	 	 	 	 	 	 	 	 	 	 	 	1581533309	0.12	0.22
12/02/2020 18:48:30	120220	12022020	184830	82.41	12.418777	-56.733522	82.48	-0.310	0.140	1.310	82.41	-1.20	1.70	 	 	 	 	 	 	 	 	 	 	 	 	 	 	 	 	 	 	1581533310	0.52	0.96
12/02/2020 18:48:31	120220	12022020	184831	82.79	12.418777	-56.733523	82.85	-0.330	-0.200	1.130	82.79	-1.50	1.50	 	 	 	 	 	 	 	 	 	 	 	 	 	 	 	 	 	 	1581533311	0.21	0.39
12/02/2020 18:48:32	120220	12022020	184832	82.99	12.418777	-56.733520	83.03	-0.050	-0.850	1.070	82.99	-2.10	1.50	 	 	 	 	 	 	 	 	 	 	 	 	 	 	 	 	 	 	1581533312	0.53	0.98
12/02/2020 18:48:33	120220	12022020	184833	82.99	12.418775	-56.733517	83.02	0.290	-1.130	1.060	82.99	-2.50	1.50	 	 	 	 	 	 	 	 	 	 	 	 	 	 	 	 	 	 	1581533313	0.63	1.17
12/02/2020 18:48:34	120220	12022020	184834	82.84	12.418775	-56.733517	82.86	0.480	-0.750	1.040	82.84	-2.20	1.40	 	 	 	 	 	 	 	 	 	 	 	 	 	 	 	 	 	 	1581533314	0.17	0.31
12/02/2020 18:48:35	120220	12022020	184835	82.64	12.418775	-56.733518	82.66	0.450	-0.010	0.950	82.64	-1.50	1.40	 	 	 	 	 	 	 	 	 	 	 	 	 	 	 	 	 	 	1581533315	0.41	0.76
12/02/2020 18:48:36	120220	12022020	184836	82.61	12.418777	-56.733522	82.66	0.180	0.610	0.810	82.61	-0.80	1.20	 	 	 	 	 	 	 	 	 	 	 	 	 	 	 	 	 	 	1581533316	0.55	1.02
12/02/2020 18:48:37	120220	12022020	184837	82.86	12.418777	-56.733523	82.92	-0.290	0.840	0.650	82.86	-0.60	1.10	 	 	 	 	 	 	 	 	 	 	 	 	 	 	 	 	 	 	1581533317	0.35	0.65
12/02/2020 18:48:38	120220	12022020	184838	83.03	12.418777	-56.733523	83.08	-0.780	0.640	0.620	83.03	-0.70	1.00	 	 	 	 	 	 	 	 	 	 	 	 	 	 	 	 	 	 	1581533318	0.19	0.35
12/02/2020 18:48:39	120220	12022020	184839	82.95	12.418775	-56.733523	82.94	-0.950	0.120	0.670	82.95	-1.20	1.10	 	 	 	 	 	 	 	 	 	 	 	 	 	 	 	 	 	 	1581533319	0.29	0.54
12/02/2020 18:48:40	120220	12022020	184840	82.75	12.418773	-56.733522	82.77	-0.620	-0.530	0.620	82.75	-1.80	1.00	 	 	 	 	 	 	 	 	 	 	 	 	 	 	 	 	 	 	1581533320	0.30	0.56
12/02/2020 18:48:41	120220	12022020	184841	82.63	12.418775	-56.733520	82.63	0.080	-1.040	0.540	82.63	-2.40	1.00	 	 	 	 	 	 	 	 	 	 	 	 	 	 	 	 	 	 	1581533321	0.30	0.56
12/02/2020 18:48:42	120220	12022020	184842	82.54	12.418775	-56.733520	82.56	0.710	-1.250	0.600	82.54	-2.60	1.00	 	 	 	 	 	 	 	 	 	 	 	 	 	 	 	 	 	 	1581533322	0.31	0.57
12/02/2020 18:48:43	120220	12022020	184843	82.58	12.418775	-56.733518	82.60	0.910	-1.140	0.730	82.58	-2.50	1.10	 	 	 	 	 	 	 	 	 	 	 	 	 	 	 	 	 	 	1581533323	0.18	0.33
12/02/2020 18:48:44	120220	12022020	184844	82.64	12.418775	-56.733518	82.66	0.690	-0.710	0.850	82.64	-2.20	1.20	 	 	 	 	 	 	 	 	 	 	 	 	 	 	 	 	 	 	1581533324	0.20	0.37
12/02/2020 18:48:45	120220	12022020	184845	82.58	12.418773	-56.733518	82.60	0.310	-0.040	1.040	82.58	-1.50	1.40	 	 	 	 	 	 	 	 	 	 	 	 	 	 	 	 	 	 	1581533325	0.35	0.65
12/02/2020 18:48:46	120220	12022020	184846	82.42	12.418772	-56.733518	82.43	-0.020	0.550	1.260	82.42	-0.90	1.60	 	 	 	 	 	 	 	 	 	 	 	 	 	 	 	 	 	 	1581533326	0.44	0.81
12/02/2020 18:48:47	120220	12022020	184847	82.22	12.418770	-56.733518	82.23	-0.290	0.890	1.300	82.22	-0.50	1.70	 	 	 	 	 	 	 	 	 	 	 	 	 	 	 	 	 	 	1581533327	0.23	0.43
12/02/2020 18:48:48	120220	12022020	184848	82.04	12.418772	-56.733520	82.06	-0.540	1.090	1.100	82.04	-0.30	1.50	 	 	 	 	 	 	 	 	 	 	 	 	 	 	 	 	 	 	1581533328	0.33	0.61
12/02/2020 18:48:49	120220	12022020	184849	81.99	12.418773	-56.733522	82.00	-0.760	0.980	0.760	81.99	-0.40	1.20	 	 	 	 	 	 	 	 	 	 	 	 	 	 	 	 	 	 	1581533329	0.65	1.20
12/02/2020 18:48:50	120220	12022020	184850	82.13	12.418775	-56.733523	82.16	-0.840	0.310	0.380	82.13	-1.00	0.80	 	 	 	 	 	 	 	 	 	 	 	 	 	 	 	 	 	 	1581533330	0.52	0.96
12/02/2020 18:48:51	120220	12022020	184851	82.38	12.418777	-56.733522	82.46	-0.550	-0.970	0.100	82.38	-2.10	0.50	 	 	 	 	 	 	 	 	 	 	 	 	 	 	 	 	 	 	1581533331	0.41	0.76
12/02/2020 18:48:52	120220	12022020	184852	82.62	12.418775	-56.733517	82.62	0.150	-2.440	0.170	82.62	-3.60	0.50	 	 	 	 	 	 	 	 	 	 	 	 	 	 	 	 	 	 	1581533332	1.24	2.30
12/02/2020 18:48:53	120220	12022020	184853	82.46	12.418772	-56.733508	82.36	0.870	-2.900	0.740	82.46	-4.30	1.00	 	 	 	 	 	 	 	 	 	 	 	 	 	 	 	 	 	 	1581533333	1.62	3.00
12/02/2020 18:48:54	120220	12022020	184854	81.67	12.418767	-56.733508	81.65	1.070	-1.520	1.580	81.67	-3.20	1.90	 	 	 	 	 	 	 	 	 	 	 	 	 	 	 	 	 	 	1581533334	1.15	2.13
12/02/2020 18:48:55	120220	12022020	184855	80.88	12.418763	-56.733513	80.87	0.670	0.660	2.040	80.88	-1.00	2.40	 	 	 	 	 	 	 	 	 	 	 	 	 	 	 	 	 	 	1581533335	1.50	2.78
12/02/2020 18:48:56	120220	12022020	184856	80.55	12.418765	-56.733520	80.59	0.060	2.090	1.600	80.55	0.60	2.10	 	 	 	 	 	 	 	 	 	 	 	 	 	 	 	 	 	 	1581533336	1.47	2.72
12/02/2020 18:48:57	120220	12022020	184857	80.94	12.418772	-56.733525	81.01	-0.390	2.210	0.310	80.94	0.90	0.90	 	 	 	 	 	 	 	 	 	 	 	 	 	 	 	 	 	 	1581533337	1.85	3.43
12/02/2020 18:48:58	120220	12022020	184858	81.74	12.418782	-56.733525	81.79	-0.570	1.220	-1.040	81.74	-0.00	-0.50	 	 	 	 	 	 	 	 	 	 	 	 	 	 	 	 	 	 	1581533338	2.09	3.87
12/02/2020 18:48:59	120220	12022020	184859	82.29	12.418787	-56.733520	82.27	-0.540	-0.310	-1.610	82.29	-1.50	-1.20	 	 	 	 	 	 	 	 	 	 	 	 	 	 	 	 	 	 	1581533339	1.33	2.46
12/02/2020 18:49:00	120220	12022020	184900	82.11	12.418785	-56.733517	82.04	-0.410	-1.530	-1.110	82.11	-2.80	-0.80	 	 	 	 	 	 	 	 	 	 	 	 	 	 	 	 	 	 	1581533340	1.12	2.07
12/02/2020 18:49:01	120220	12022020	184901	81.32	12.418777	-56.733513	81.23	-0.170	-1.990	0.130	81.32	-3.30	0.40	 	 	 	 	 	 	 	 	 	 	 	 	 	 	 	 	 	 	1581533341	1.76	3.26
12/02/2020 18:49:02	120220	12022020	184902	80.41	12.418768	-56.733512	80.37	0.220	-1.740	1.420	80.41	-3.20	1.70	1014.70	25.80	25.80	19.90	20.00	336.0	70.0	70.0	436.0	27.0	346.00	10.20	68.00	9.90	27473	12127.0	27.4	27.4	1581533342	1.76	3.26
12/02/2020 18:49:03	120220	12022020	184903	79.92	12.418765	-56.733512	79.94	0.560	-1.020	2.150	79.92	-2.50	2.50	 	 	 	 	 	 	 	 	 	 	 	 	 	 	 	 	 	 	1581533343	1.01	1.87
12/02/2020 18:49:04	120220	12022020	184904	80.02	12.418765	-56.733513	80.21	0.600	-0.080	1.980	80.11	-1.60	2.50	 	 	 	 	 	 	 	 	 	 	 	 	 	 	 	 	 	 	1581533344	0.31	0.57
12/02/2020 18:49:05	120220	12022020	184905	80.72	12.418768	-56.733515	80.81	0.350	0.670	1.120	80.72	-0.80	1.70	 	 	 	 	 	 	 	 	 	 	 	 	 	 	 	 	 	 	1581533345	0.94	1.74
12/02/2020 18:49:06	120220	12022020	184906	81.14	12.418773	-56.733517	81.17	0.030	0.910	0.300	81.14	-0.50	0.80	 	 	 	 	 	 	 	 	 	 	 	 	 	 	 	 	 	 	1581533346	1.12	2.07
12/02/2020 18:49:07	120220	12022020	184907	81.13	12.418775	-56.733517	81.10	-0.200	0.750	0.060	81.13	-0.60	0.50	 	 	 	 	 	 	 	 	 	 	 	 	 	 	 	 	 	 	1581533347	0.61	1.13
12/02/2020 18:49:08	120220	12022020	184908	80.79	12.418775	-56.733515	80.75	-0.370	0.460	0.380	80.79	-0.90	0.70	 	 	 	 	 	 	 	 	 	 	 	 	 	 	 	 	 	 	1581533348	0.33	0.61
12/02/2020 18:49:09	120220	12022020	184909	80.41	12.418772	-56.733515	80.38	-0.480	0.060	0.760	80.41	-1.30	1.10	 	 	 	 	 	 	 	 	 	 	 	 	 	 	 	 	 	 	1581533349	0.65	1.20
12/02/2020 18:49:10	120220	12022020	184910	80.18	12.418770	-56.733513	80.19	-0.410	-0.500	0.920	80.18	-1.80	1.30	 	 	 	 	 	 	 	 	 	 	 	 	 	 	 	 	 	 	1581533350	0.40	0.74
12/02/2020 18:49:11	120220	12022020	184911	80.23	12.418770	-56.733512	80.27	-0.150	-0.980	0.870	80.23	-2.30	1.30	 	 	 	 	 	 	 	 	 	 	 	 	 	 	 	 	 	 	1581533351	0.28	0.52
12/02/2020 18:49:12	120220	12022020	184912	80.38	12.418770	-56.733512	80.40	0.230	-1.210	0.840	80.38	-2.60	1.30	 	 	 	 	 	 	 	 	 	 	 	 	 	 	 	 	 	 	1581533352	0.24	0.44
12/02/2020 18:49:13	120220	12022020	184913	80.37	12.418772	-56.733510	80.39	0.580	-1.220	0.880	80.37	-2.60	1.30	 	 	 	 	 	 	 	 	 	 	 	 	 	 	 	 	 	 	1581533353	0.31	0.57
12/02/2020 18:49:14	120220	12022020	184914	80.29	12.418773	-56.733510	80.32	0.750	-0.870	0.940	80.29	-2.30	1.30	 	 	 	 	 	 	 	 	 	 	 	 	 	 	 	 	 	 	1581533354	0.32	0.59
12/02/2020 18:49:15	120220	12022020	184915	80.29	12.418773	-56.733510	80.36	0.610	-0.090	1.040	80.30	-1.60	1.40	 	 	 	 	 	 	 	 	 	 	 	 	 	 	 	 	 	 	1581533355	0.13	0.24
12/02/2020 18:49:16	120220	12022020	184916	80.39	12.418772	-56.733512	80.44	0.210	0.690	1.220	80.39	-0.80	1.60	 	 	 	 	 	 	 	 	 	 	 	 	 	 	 	 	 	 	1581533356	0.48	0.89
12/02/2020 18:49:17	120220	12022020	184917	80.38	12.418770	-56.733513	80.42	-0.260	0.970	1.520	80.38	-0.40	1.90	 	 	 	 	 	 	 	 	 	 	 	 	 	 	 	 	 	 	1581533357	0.46	0.85
12/02/2020 18:49:18	120220	12022020	184918	80.23	12.418768	-56.733512	80.26	-0.610	0.720	1.750	80.23	-0.60	2.10	 	 	 	 	 	 	 	 	 	 	 	 	 	 	 	 	 	 	1581533358	0.42	0.78
12/02/2020 18:49:19	120220	12022020	184919	80.05	12.418768	-56.733510	80.08	-0.720	0.280	1.600	80.05	-1.00	2.10	 	 	 	 	 	 	 	 	 	 	 	 	 	 	 	 	 	 	1581533359	0.26	0.48
12/02/2020 18:49:20	120220	12022020	184920	80.00	12.418770	-56.733510	80.04	-0.520	-0.090	0.980	80.00	-1.40	1.50	 	 	 	 	 	 	 	 	 	 	 	 	 	 	 	 	 	 	1581533360	0.50	0.93
12/02/2020 18:49:21	120220	12022020	184921	80.08	12.418773	-56.733512	80.11	-0.090	-0.540	0.330	80.08	-1.80	0.80	 	 	 	 	 	 	 	 	 	 	 	 	 	 	 	 	 	 	1581533361	0.77	1.43
12/02/2020 18:49:22	120220	12022020	184922	80.17	12.418777	-56.733510	80.19	0.320	-1.100	0.040	80.17	-2.40	0.50	 	 	 	 	 	 	 	 	 	 	 	 	 	 	 	 	 	 	1581533362	0.61	1.13
12/02/2020 18:49:23	120220	12022020	184923	80.23	12.418777	-56.733508	80.23	0.470	-1.370	0.030	80.23	-2.70	0.40	 	 	 	 	 	 	 	 	 	 	 	 	 	 	 	 	 	 	1581533363	0.48	0.89
12/02/2020 18:49:24	120220	12022020	184924	80.31	12.418778	-56.733508	80.31	0.420	-1.110	-0.030	80.31	-2.50	0.40	 	 	 	 	 	 	 	 	 	 	 	 	 	 	 	 	 	 	1581533364	0.22	0.41
12/02/2020 18:49:25	120220	12022020	184925	80.39	12.418778	-56.733508	80.39	0.390	-0.520	0.030	80.39	-2.00	0.40	 	 	 	 	 	 	 	 	 	 	 	 	 	 	 	 	 	 	1581533365	0.17	0.31
12/02/2020 18:49:26	120220	12022020	184926	80.34	12.418777	-56.733508	80.28	0.360	0.200	0.460	80.31	-1.30	0.80	 	 	 	 	 	 	 	 	 	 	 	 	 	 	 	 	 	 	1581533366	0.36	0.67
12/02/2020 18:49:27	120220	12022020	184927	79.95	12.418773	-56.733510	79.92	0.130	0.840	1.190	79.95	-0.60	1.50	 	 	 	 	 	 	 	 	 	 	 	 	 	 	 	 	 	 	1581533367	0.73	1.35
12/02/2020 18:49:28	120220	12022020	184928	79.49	12.418772	-56.733512	79.49	-0.290	1.100	1.870	79.49	-0.30	2.20	 	 	 	 	 	 	 	 	 	 	 	 	 	 	 	 	 	 	1581533368	0.63	1.17
12/02/2020 18:49:29	120220	12022020	184929	79.38	12.418772	-56.733512	79.45	-0.660	0.750	1.970	79.38	-0.50	2.40	 	 	 	 	 	 	 	 	 	 	 	 	 	 	 	 	 	 	1581533369	0.07	0.13
12/02/2020 18:49:30	120220	12022020	184930	79.78	12.418773	-56.733510	79.88	-0.710	0.030	1.410	79.78	-1.20	1.90	 	 	 	 	 	 	 	 	 	 	 	 	 	 	 	 	 	 	1581533370	0.56	1.04
12/02/2020 18:49:31	120220	12022020	184931	80.35	12.418777	-56.733510	80.42	-0.430	-0.600	0.680	80.35	-1.90	1.20	 	 	 	 	 	 	 	 	 	 	 	 	 	 	 	 	 	 	1581533371	0.68	1.26
12/02/2020 18:49:32	120220	12022020	184932	80.62	12.418778	-56.733510	80.64	-0.010	-1.030	0.350	80.62	-2.30	0.80	 	 	 	 	 	 	 	 	 	 	 	 	 	 	 	 	 	 	1581533372	0.35	0.65
12/02/2020 18:49:33	120220	12022020	184933	80.48	12.418778	-56.733508	80.46	0.420	-1.370	0.460	80.48	-2.70	0.80	 	 	 	 	 	 	 	 	 	 	 	 	 	 	 	 	 	 	1581533373	0.21	0.39
12/02/2020 18:49:34	120220	12022020	184934	80.16	12.418777	-56.733505	80.15	0.800	-1.590	0.690	80.16	-2.90	1.10	 	 	 	 	 	 	 	 	 	 	 	 	 	 	 	 	 	 	1581533374	0.60	1.11
12/02/2020 18:49:35	120220	12022020	184935	79.92	12.418777	-56.733503	79.90	0.870	-1.210	0.850	79.92	-2.70	1.20	 	 	 	 	 	 	 	 	 	 	 	 	 	 	 	 	 	 	1581533375	0.64	1.19
12/02/2020 18:49:36	120220	12022020	184936	79.71	12.418777	-56.733503	79.68	0.500	0.080	0.850	79.71	-1.50	1.30	 	 	 	 	 	 	 	 	 	 	 	 	 	 	 	 	 	 	1581533376	0.20	0.37
12/02/2020 18:49:37	120220	12022020	184937	79.52	12.418778	-56.733510	79.47	-0.200	1.730	0.610	79.48	0.20	1.10	 	 	 	 	 	 	 	 	 	 	 	 	 	 	 	 	 	 	1581533377	1.34	2.48
12/02/2020 18:49:38	120220	12022020	184938	79.49	12.418782	-56.733517	79.52	-0.870	2.550	0.090	79.49	1.10	0.60	 	 	 	 	 	 	 	 	 	 	 	 	 	 	 	 	 	 	1581533378	1.74	3.22
12/02/2020 18:49:39	120220	12022020	184939	79.87	12.418787	-56.733520	79.89	-1.100	1.670	-0.600	79.87	0.50	-0.10	 	 	 	 	 	 	 	 	 	 	 	 	 	 	 	 	 	 	1581533379	1.25	2.31
12/02/2020 18:49:40	120220	12022020	184940	80.33	12.418792	-56.733517	80.33	-0.700	-0.600	-1.120	80.33	-1.60	-0.70	 	 	 	 	 	 	 	 	 	 	 	 	 	 	 	 	 	 	1581533380	1.31	2.43
12/02/2020 18:49:41	120220	12022020	184941	80.52	12.418792	-56.733507	80.49	0.040	-2.790	-1.050	80.52	-3.90	-0.70	 	 	 	 	 	 	 	 	 	 	 	 	 	 	 	 	 	 	1581533381	1.92	3.56
12/02/2020 18:49:42	120220	12022020	184942	80.27	12.418788	-56.733500	80.21	0.580	-3.200	-0.160	80.27	-4.60	0.10	 	 	 	 	 	 	 	 	 	 	 	 	 	 	 	 	 	 	1581533382	1.64	3.04
12/02/2020 18:49:43	120220	12022020	184943	79.84	12.418780	-56.733502	79.72	0.560	-1.550	1.060	79.84	-3.20	1.30	 	 	 	 	 	 	 	 	 	 	 	 	 	 	 	 	 	 	1581533383	1.73	3.20
12/02/2020 18:49:44	120220	12022020	184944	79.38	12.418773	-56.733510	79.40	0.150	0.680	1.750	79.38	-1.00	2.10	 	 	 	 	 	 	 	 	 	 	 	 	 	 	 	 	 	 	1581533384	2.26	4.19
12/02/2020 18:49:45	120220	12022020	184945	79.29	12.418773	-56.733517	79.33	-0.200	1.700	1.520	79.29	0.30	2.00	 	 	 	 	 	 	 	 	 	 	 	 	 	 	 	 	 	 	1581533385	1.46	2.70
12/02/2020 18:49:46	120220	12022020	184946	79.34	12.418777	-56.733517	79.38	-0.240	1.130	0.810	79.34	-0.10	1.30	 	 	 	 	 	 	 	 	 	 	 	 	 	 	 	 	 	 	1581533386	1.01	1.87
12/02/2020 18:49:47	120220	12022020	184947	79.44	12.418783	-56.733513	79.47	-0.060	-0.020	0.220	79.44	-1.20	0.70	 	 	 	 	 	 	 	 	 	 	 	 	 	 	 	 	 	 	1581533387	1.52	2.82
12/02/2020 18:49:48	120220	12022020	184948	79.53	12.418787	-56.733510	79.54	0.140	-0.680	-0.130	79.54	-2.00	0.30	 	 	 	 	 	 	 	 	 	 	 	 	 	 	 	 	 	 	1581533388	1.08	2.00
12/02/2020 18:49:49	120220	12022020	184949	79.56	12.418788	-56.733510	79.54	0.300	-0.750	-0.280	79.56	-2.10	0.10	 	 	 	 	 	 	 	 	 	 	 	 	 	 	 	 	 	 	1581533389	0.43	0.80
12/02/2020 18:49:50	120220	12022020	184950	79.51	12.418790	-56.733510	79.45	0.420	-0.700	-0.270	79.49	-2.10	0.10	 	 	 	 	 	 	 	 	 	 	 	 	 	 	 	 	 	 	1581533390	0.22	0.41
12/02/2020 18:49:51	120220	12022020	184951	79.39	12.418790	-56.733510	79.35	0.390	-0.640	-0.110	79.39	-2.00	0.30	 	 	 	 	 	 	 	 	 	 	 	 	 	 	 	 	 	 	1581533391	0.13	0.24
12/02/2020 18:49:52	120220	12022020	184952	79.35	12.418788	-56.733510	79.34	0.070	-0.190	0.240	79.35	-1.70	0.60	 	 	 	 	 	 	 	 	 	 	 	 	 	 	 	 	 	 	1581533392	0.22	0.41
12/02/2020 18:49:53	120220	12022020	184953	79.34	12.418787	-56.733512	79.35	-0.450	0.530	0.830	79.34	-0.90	1.10	 	 	 	 	 	 	 	 	 	 	 	 	 	 	 	 	 	 	1581533393	0.75	1.39
12/02/2020 18:49:54	120220	12022020	184954	79.36	12.418782	-56.733515	79.40	-0.840	0.780	1.390	79.36	-0.60	1.70	 	 	 	 	 	 	 	 	 	 	 	 	 	 	 	 	 	 	1581533394	0.99	1.83
12/02/2020 18:49:55	120220	12022020	184955	79.45	12.418780	-56.733513	79.50	-0.750	0.240	1.530	79.45	-1.00	1.90	 	 	 	 	 	 	 	 	 	 	 	 	 	 	 	 	 	 	1581533395	0.56	1.04
12/02/2020 18:49:56	120220	12022020	184956	79.57	12.418780	-56.733512	79.67	-0.180	-0.620	1.250	79.61	-1.90	1.70	 	 	 	 	 	 	 	 	 	 	 	 	 	 	 	 	 	 	1581533396	0.62	1.15
12/02/2020 18:49:57	120220	12022020	184957	79.76	12.418782	-56.733508	79.81	0.460	-1.070	0.890	79.78	-2.40	1.30	 	 	 	 	 	 	 	 	 	 	 	 	 	 	 	 	 	 	1581533397	0.68	1.26
12/02/2020 18:49:58	120220	12022020	184958	79.76	12.418782	-56.733508	79.72	0.730	-0.920	0.850	79.72	-2.30	1.20	 	 	 	 	 	 	 	 	 	 	 	 	 	 	 	 	 	 	1581533398	0.24	0.44
12/02/2020 18:49:59	120220	12022020	184959	79.53	12.418782	-56.733508	79.47	0.520	-0.470	0.960	79.48	-1.90	1.40	 	 	 	 	 	 	 	 	 	 	 	 	 	 	 	 	 	 	1581533399	0.20	0.37
12/02/2020 18:50:00	120220	12022020	185000	79.37	12.418782	-56.733510	79.38	0.130	-0.070	0.800	79.36	-1.50	1.20	 	 	 	 	 	 	 	 	 	 	 	 	 	 	 	 	 	 	1581533400	0.26	0.48
12/02/2020 18:50:01	120220	12022020	185001	79.43	12.418785	-56.733510	79.48	-0.080	0.120	0.420	79.46	-1.30	0.90	 	 	 	 	 	 	 	 	 	 	 	 	 	 	 	 	 	 	1581533401	0.56	1.04
12/02/2020 18:50:02	120220	12022020	185002	79.60	12.418788	-56.733510	79.64	-0.050	0.210	0.170	79.63	-1.20	0.60	1014.80	25.90	26.00	19.80	19.90	314.0	69.0	69.0	436.0	27.0	350.00	9.40	70.00	9.10	25908	13164.0	27.4	27.4	1581533402	0.57	1.06
12/02/2020 18:50:03	120220	12022020	185003	79.74	12.418788	-56.733510	79.75	0.030	0.210	0.040	79.74	-1.20	0.50	 	 	 	 	 	 	 	 	 	 	 	 	 	 	 	 	 	 	1581533403	0.33	0.61
12/02/2020 18:50:04	120220	12022020	185004	79.77	12.418790	-56.733510	79.76	-0.000	0.090	0.020	79.77	-1.30	0.40	 	 	 	 	 	 	 	 	 	 	 	 	 	 	 	 	 	 	1581533404	0.16	0.30
12/02/2020 18:50:05	120220	12022020	185005	79.75	12.418790	-56.733508	79.73	-0.120	-0.080	0.150	79.75	-1.40	0.50	 	 	 	 	 	 	 	 	 	 	 	 	 	 	 	 	 	 	1581533405	0.18	0.33
12/02/2020 18:50:06	120220	12022020	185006	79.77	12.418788	-56.733508	79.78	-0.210	-0.290	0.440	79.78	-1.60	0.80	 	 	 	 	 	 	 	 	 	 	 	 	 	 	 	 	 	 	1581533406	0.43	0.80
12/02/2020 18:50:07	120220	12022020	185007	79.86	12.418785	-56.733507	79.90	-0.140	-0.590	0.850	79.88	-1.90	1.20	 	 	 	 	 	 	 	 	 	 	 	 	 	 	 	 	 	 	1581533407	0.68	1.26
12/02/2020 18:50:08	120220	12022020	185008	79.97	12.418783	-56.733503	80.01	0.080	-0.830	1.120	79.99	-2.20	1.50	 	 	 	 	 	 	 	 	 	 	 	 	 	 	 	 	 	 	1581533408	0.68	1.26
12/02/2020 18:50:09	120220	12022020	185009	80.03	12.418783	-56.733502	80.05	0.230	-0.630	1.150	80.04	-2.10	1.50	 	 	 	 	 	 	 	 	 	 	 	 	 	 	 	 	 	 	1581533409	0.33	0.61
12/02/2020 18:50:10	120220	12022020	185010	80.00	12.418783	-56.733503	79.99	0.060	0.140	1.180	79.98	-1.40	1.60	 	 	 	 	 	 	 	 	 	 	 	 	 	 	 	 	 	 	1581533410	0.33	0.61
12/02/2020 18:50:11	120220	12022020	185011	79.85	12.418783	-56.733508	79.79	-0.330	0.840	1.220	79.81	-0.60	1.60	 	 	 	 	 	 	 	 	 	 	 	 	 	 	 	 	 	 	1581533411	0.82	1.52
12/02/2020 18:50:12	120220	12022020	185012	79.60	12.418782	-56.733510	79.55	-0.490	0.660	1.150	79.55	-0.60	1.60	 	 	 	 	 	 	 	 	 	 	 	 	 	 	 	 	 	 	1581533412	0.38	0.70
12/02/2020 18:50:13	120220	12022020	185013	79.48	12.418783	-56.733507	79.53	-0.200	-0.380	0.710	79.50	-1.60	1.20	 	 	 	 	 	 	 	 	 	 	 	 	 	 	 	 	 	 	1581533413	0.68	1.26
12/02/2020 18:50:14	120220	12022020	185014	79.73	12.418787	-56.733502	79.84	0.290	-1.340	0.040	79.81	-2.60	0.50	 	 	 	 	 	 	 	 	 	 	 	 	 	 	 	 	 	 	1581533414	1.28	2.37
12/02/2020 18:50:15	120220	12022020	185015	80.12	12.418790	-56.733498	80.12	0.590	-1.420	-0.400	80.12	-2.80	0.00	 	 	 	 	 	 	 	 	 	 	 	 	 	 	 	 	 	 	1581533415	0.89	1.65
12/02/2020 18:50:16	120220	12022020	185016	80.02	12.418792	-56.733498	79.97	0.560	-0.740	-0.360	80.02	-2.20	0.00	 	 	 	 	 	 	 	 	 	 	 	 	 	 	 	 	 	 	1581533416	0.23	0.43
12/02/2020 18:50:17	120220	12022020	185017	79.59	12.418790	-56.733502	79.52	0.310	0.140	-0.020	79.59	-1.30	0.30	 	 	 	 	 	 	 	 	 	 	 	 	 	 	 	 	 	 	1581533417	0.49	0.91
12/02/2020 18:50:18	120220	12022020	185018	79.28	12.418788	-56.733503	79.21	0.020	0.640	0.270	79.23	-0.80	0.60	 	 	 	 	 	 	 	 	 	 	 	 	 	 	 	 	 	 	1581533418	0.38	0.70
12/02/2020 18:50:19	120220	12022020	185019	79.16	12.418788	-56.733503	79.17	-0.210	0.780	0.490	79.16	-0.60	0.90	 	 	 	 	 	 	 	 	 	 	 	 	 	 	 	 	 	 	1581533419	0.04	0.07
12/02/2020 18:50:20	120220	12022020	185020	79.19	12.418788	-56.733503	79.25	-0.400	0.710	0.900	79.21	-0.60	1.20	 	 	 	 	 	 	 	 	 	 	 	 	 	 	 	 	 	 	1581533420	0.09	0.17
12/02/2020 18:50:21	120220	12022020	185021	79.37	12.418787	-56.733503	79.50	-0.480	0.240	1.230	79.43	-1.00	1.60	 	 	 	 	 	 	 	 	 	 	 	 	 	 	 	 	 	 	1581533421	0.25	0.46
12/02/2020 18:50:22	120220	12022020	185022	79.79	12.418787	-56.733500	79.96	-0.320	-0.760	1.190	79.88	-2.00	1.60	 	 	 	 	 	 	 	 	 	 	 	 	 	 	 	 	 	 	1581533422	0.56	1.04
12/02/2020 18:50:23	120220	12022020	185023	80.13	12.418787	-56.733495	80.16	0.100	-1.660	1.130	80.13	-2.90	1.50	 	 	 	 	 	 	 	 	 	 	 	 	 	 	 	 	 	 	1581533423	1.02	1.89
12/02/2020 18:50:24	120220	12022020	185024	79.90	12.418783	-56.733492	79.77	0.460	-1.560	1.580	79.79	-3.00	1.90	 	 	 	 	 	 	 	 	 	 	 	 	 	 	 	 	 	 	1581533424	0.95	1.76
12/02/2020 18:50:25	120220	12022020	185025	79.24	12.418778	-56.733493	79.07	0.390	-0.380	2.350	79.09	-1.90	2.60	 	 	 	 	 	 	 	 	 	 	 	 	 	 	 	 	 	 	1581533425	1.19	2.20
12/02/2020 18:50:26	120220	12022020	185026	78.58	12.418773	-56.733498	78.52	-0.050	0.890	2.660	78.49	-0.60	3.10	 	 	 	 	 	 	 	 	 	 	 	 	 	 	 	 	 	 	1581533426	1.39	2.57
12/02/2020 18:50:27	120220	12022020	185027	78.37	12.418775	-56.733502	78.46	-0.440	1.150	1.870	78.39	-0.20	2.40	 	 	 	 	 	 	 	 	 	 	 	 	 	 	 	 	 	 	1581533427	0.93	1.72
12/02/2020 18:50:28	120220	12022020	185028	78.67	12.418785	-56.733502	78.85	-0.440	0.250	0.310	78.77	-1.00	0.90	 	 	 	 	 	 	 	 	 	 	 	 	 	 	 	 	 	 	1581533428	1.97	3.65
12/02/2020 18:50:29	120220	12022020	185029	79.07	12.418795	-56.733497	79.31	-0.070	-0.890	-1.040	79.18	-2.10	-0.50	 	 	 	 	 	 	 	 	 	 	 	 	 	 	 	 	 	 	1581533429	2.36	4.37
12/02/2020 18:50:30	120220	12022020	185030	79.51	12.418800	-56.733493	79.52	0.290	-1.280	-1.600	79.54	-2.70	-1.20	 	 	 	 	 	 	 	 	 	 	 	 	 	 	 	 	 	 	1581533430	1.30	2.41
12/02/2020 18:50:31	120220	12022020	185031	79.55	12.418800	-56.733495	79.45	0.320	-0.720	-1.360	79.53	-2.20	-1.00	 	 	 	 	 	 	 	 	 	 	 	 	 	 	 	 	 	 	1581533431	0.21	0.39
12/02/2020 18:50:32	120220	12022020	185032	79.31	12.418795	-56.733497	79.21	0.100	0.120	-0.510	79.26	-1.40	-0.30	 	 	 	 	 	 	 	 	 	 	 	 	 	 	 	 	 	 	1581533432	1.18	2.19
12/02/2020 18:50:33	120220	12022020	185033	79.01	12.418788	-56.733498	78.93	-0.040	0.520	0.520	78.95	-0.90	0.80	 	 	 	 	 	 	 	 	 	 	 	 	 	 	 	 	 	 	1581533433	1.27	2.35
12/02/2020 18:50:34	120220	12022020	185034	78.73	12.418785	-56.733498	78.69	-0.050	0.330	1.390	78.68	-1.00	1.70	 	 	 	 	 	 	 	 	 	 	 	 	 	 	 	 	 	 	1581533434	0.95	1.76
12/02/2020 18:50:35	120220	12022020	185035	78.45	12.418783	-56.733495	78.43	-0.040	-0.090	1.940	78.40	-1.40	2.30	 	 	 	 	 	 	 	 	 	 	 	 	 	 	 	 	 	 	1581533435	0.73	1.35
12/02/2020 18:50:36	120220	12022020	185036	78.29	12.418783	-56.733493	78.34	-0.110	-0.360	2.040	78.29	-1.70	2.40	 	 	 	 	 	 	 	 	 	 	 	 	 	 	 	 	 	 	1581533436	0.36	0.67
12/02/2020 18:50:37	120220	12022020	185037	78.51	12.418785	-56.733493	78.69	-0.170	-0.460	1.720	78.61	-1.80	2.20	 	 	 	 	 	 	 	 	 	 	 	 	 	 	 	 	 	 	1581533437	0.43	0.80
12/02/2020 18:50:38	120220	12022020	185038	79.09	12.418787	-56.733495	79.30	-0.110	-0.550	1.230	79.21	-1.90	1.70	 	 	 	 	 	 	 	 	 	 	 	 	 	 	 	 	 	 	1581533438	0.55	1.02
12/02/2020 18:50:39	120220	12022020	185039	79.64	12.418788	-56.733495	79.76	0.050	-0.660	0.890	79.72	-2.00	1.30	 	 	 	 	 	 	 	 	 	 	 	 	 	 	 	 	 	 	1581533439	0.18	0.33
12/02/2020 18:50:40	120220	12022020	185040	79.81	12.418787	-56.733493	79.77	0.170	-0.600	0.830	79.78	-2.00	1.20	 	 	 	 	 	 	 	 	 	 	 	 	 	 	 	 	 	 	1581533440	0.47	0.87
12/02/2020 18:50:41	120220	12022020	185041	79.48	12.418783	-56.733492	79.34	0.160	-0.130	1.000	79.38	-1.60	1.40	 	 	 	 	 	 	 	 	 	 	 	 	 	 	 	 	 	 	1581533441	0.64	1.19
12/02/2020 18:50:42	120220	12022020	185042	78.95	12.418780	-56.733493	78.84	0.050	0.430	1.180	78.85	-1.00	1.60	 	 	 	 	 	 	 	 	 	 	 	 	 	 	 	 	 	 	1581533442	0.60	1.11
12/02/2020 18:50:43	120220	12022020	185043	78.64	12.418782	-56.733495	78.60	-0.020	0.500	1.030	78.60	-0.90	1.50	 	 	 	 	 	 	 	 	 	 	 	 	 	 	 	 	 	 	1581533443	0.28	0.52
12/02/2020 18:50:44	120220	12022020	185044	78.65	12.418787	-56.733495	78.76	-0.070	0.090	0.320	78.70	-1.20	0.80	 	 	 	 	 	 	 	 	 	 	 	 	 	 	 	 	 	 	1581533444	1.00	1.85
12/02/2020 18:50:45	120220	12022020	185045	78.98	12.418793	-56.733495	79.09	-0.160	-0.300	-0.630	79.05	-1.60	-0.10	 	 	 	 	 	 	 	 	 	 	 	 	 	 	 	 	 	 	1581533445	1.59	2.94
12/02/2020 18:50:46	120220	12022020	185046	79.35	12.418800	-56.733495	79.45	-0.310	-0.330	-1.270	79.42	-1.70	-0.80	 	 	 	 	 	 	 	 	 	 	 	 	 	 	 	 	 	 	1581533446	1.36	2.52
12/02/2020 18:50:47	120220	12022020	185047	79.71	12.418802	-56.733497	79.78	-0.370	-0.260	-1.310	79.78	-1.60	-0.90	 	 	 	 	 	 	 	 	 	 	 	 	 	 	 	 	 	 	1581533447	0.54	1.00
12/02/2020 18:50:48	120220	12022020	185048	80.01	12.418798	-56.733497	80.05	-0.180	-0.460	-0.710	80.05	-1.80	-0.40	 	 	 	 	 	 	 	 	 	 	 	 	 	 	 	 	 	 	1581533448	0.73	1.35
12/02/2020 18:50:49	120220	12022020	185049	80.11	12.418792	-56.733493	80.08	0.200	-0.910	0.300	80.10	-2.20	0.50	 	 	 	 	 	 	 	 	 	 	 	 	 	 	 	 	 	 	1581533449	1.58	2.93
12/02/2020 18:50:50	120220	12022020	185050	79.95	12.418785	-56.733488	79.87	0.540	-1.110	1.330	79.90	-2.50	1.60	 	 	 	 	 	 	 	 	 	 	 	 	 	 	 	 	 	 	1581533450	1.67	3.09
12/02/2020 18:50:51	120220	12022020	185051	79.67	12.418780	-56.733487	79.64	0.550	-0.590	2.180	79.63	-2.10	2.50	 	 	 	 	 	 	 	 	 	 	 	 	 	 	 	 	 	 	1581533451	1.10	2.04
12/02/2020 18:50:52	120220	12022020	185052	79.57	12.418777	-56.733490	79.65	0.150	0.590	2.530	79.60	-1.00	2.90	 	 	 	 	 	 	 	 	 	 	 	 	 	 	 	 	 	 	1581533452	0.81	1.50
12/02/2020 18:50:53	120220	12022020	185053	79.82	12.418777	-56.733495	79.98	-0.430	1.530	2.190	79.90	0.10	2.70	 	 	 	 	 	 	 	 	 	 	 	 	 	 	 	 	 	 	1581533453	1.23	2.28
12/02/2020 18:50:54	120220	12022020	185054	80.22	12.418778	-56.733498	80.36	-0.720	1.350	1.340	80.29	0.10	1.90	 	 	 	 	 	 	 	 	 	 	 	 	 	 	 	 	 	 	1581533454	0.98	1.81
12/02/2020 18:50:55	120220	12022020	185055	80.46	12.418783	-56.733498	80.54	-0.450	-0.010	0.380	80.50	-1.20	0.90	 	 	 	 	 	 	 	 	 	 	 	 	 	 	 	 	 	 	1581533455	1.10	2.04
12/02/2020 18:50:56	120220	12022020	185056	80.53	12.418790	-56.733493	80.51	0.150	-1.590	-0.270	80.52	-2.80	0.20	 	 	 	 	 	 	 	 	 	 	 	 	 	 	 	 	 	 	1581533456	1.68	3.11
12/02/2020 18:50:57	120220	12022020	185057	80.52	12.418795	-56.733488	80.56	0.550	-2.250	-0.580	80.54	-3.60	-0.10	 	 	 	 	 	 	 	 	 	 	 	 	 	 	 	 	 	 	1581533457	1.39	2.57
12/02/2020 18:50:58	120220	12022020	185058	80.73	12.418795	-56.733488	80.81	0.470	-1.610	-0.590	80.79	-3.20	-0.20	 	 	 	 	 	 	 	 	 	 	 	 	 	 	 	 	 	 	1581533458	0.32	0.59
12/02/2020 18:50:59	120220	12022020	185059	81.05	12.418793	-56.733492	81.09	0.070	-0.120	-0.190	81.09	-1.70	0.10	 	 	 	 	 	 	 	 	 	 	 	 	 	 	 	 	 	 	1581533459	1.04	1.93
12/02/2020 18:51:00	120220	12022020	185100	81.12	12.418787	-56.733498	81.08	-0.330	1.290	0.680	81.10	-0.30	0.90	 	 	 	 	 	 	 	 	 	 	 	 	 	 	 	 	 	 	1581533460	1.76	3.26
12/02/2020 18:51:01	120220	12022020	185101	80.93	12.418782	-56.733502	80.90	-0.520	1.700	1.510	80.88	0.30	1.80	 	 	 	 	 	 	 	 	 	 	 	 	 	 	 	 	 	 	1581533461	1.56	2.89
12/02/2020 18:51:02	120220	12022020	185102	80.79	12.418778	-56.733500	80.83	-0.380	0.850	1.660	80.79	-0.40	2.10	1014.80	26.00	26.00	19.80	19.90	300.0	69.0	69.0	436.0	27.0	353.00	8.80	72.00	8.40	24919	11604.0	27.4	27.4	1581533462	0.72	1.33
12/02/2020 18:51:03	120220	12022020	185103	80.87	12.418778	-56.733495	80.95	0.050	-0.660	1.320	80.90	-1.90	1.80	 	 	 	 	 	 	 	 	 	 	 	 	 	 	 	 	 	 	1581533463	1.03	1.91
12/02/2020 18:51:04	120220	12022020	185104	81.01	12.418782	-56.733490	81.05	0.520	-1.740	1.080	81.02	-3.00	1.50	 	 	 	 	 	 	 	 	 	 	 	 	 	 	 	 	 	 	1581533464	1.28	2.37
12/02/2020 18:51:05	120220	12022020	185105	80.96	12.418785	-56.733488	80.94	0.690	-1.710	0.990	80.94	-3.20	1.40	 	 	 	 	 	 	 	 	 	 	 	 	 	 	 	 	 	 	1581533465	0.73	1.35
12/02/2020 18:51:06	120220	12022020	185106	80.88	12.418788	-56.733492	80.89	0.400	-0.740	0.760	80.88	-2.30	1.20	 	 	 	 	 	 	 	 	 	 	 	 	 	 	 	 	 	 	1581533466	0.92	1.70
12/02/2020 18:51:07	120220	12022020	185107	81.02	12.418790	-56.733497	81.10	-0.180	0.440	0.340	81.08	-1.10	0.80	 	 	 	 	 	 	 	 	 	 	 	 	 	 	 	 	 	 	1581533467	1.25	2.31
12/02/2020 18:51:08	120220	12022020	185108	81.29	12.418790	-56.733502	81.33	-0.660	1.100	0.230	81.33	-0.30	0.60	 	 	 	 	 	 	 	 	 	 	 	 	 	 	 	 	 	 	1581533468	0.94	1.74
12/02/2020 18:51:09	120220	12022020	185109	81.39	12.418785	-56.733503	81.36	-0.760	1.000	0.630	81.39	-0.30	1.00	 	 	 	 	 	 	 	 	 	 	 	 	 	 	 	 	 	 	1581533469	0.84	1.56
12/02/2020 18:51:10	120220	12022020	185110	81.26	12.418782	-56.733502	81.21	-0.450	0.340	1.090	81.22	-0.90	1.40	 	 	 	 	 	 	 	 	 	 	 	 	 	 	 	 	 	 	1581533470	0.91	1.69
12/02/2020 18:51:11	120220	12022020	185111	81.02	12.418780	-56.733500	80.97	0.030	-0.520	1.250	80.97	-1.80	1.70	 	 	 	 	 	 	 	 	 	 	 	 	 	 	 	 	 	 	1581533471	0.59	1.09
12/02/2020 18:51:12	120220	12022020	185112	80.78	12.418782	-56.733497	80.74	0.450	-1.280	1.120	80.74	-2.60	1.60	 	 	 	 	 	 	 	 	 	 	 	 	 	 	 	 	 	 	1581533472	0.58	1.07
12/02/2020 18:51:13	120220	12022020	185113	80.59	12.418785	-56.733495	80.56	0.670	-1.630	0.960	80.56	-3.00	1.40	 	 	 	 	 	 	 	 	 	 	 	 	 	 	 	 	 	 	1581533473	0.77	1.43
12/02/2020 18:51:14	120220	12022020	185114	80.53	12.418787	-56.733495	80.59	0.630	-1.190	0.800	80.55	-2.70	1.20	 	 	 	 	 	 	 	 	 	 	 	 	 	 	 	 	 	 	1581533474	0.57	1.06
12/02/2020 18:51:15	120220	12022020	185115	80.74	12.418788	-56.733498	80.84	0.270	0.010	0.560	80.80	-1.50	1.00	 	 	 	 	 	 	 	 	 	 	 	 	 	 	 	 	 	 	1581533475	0.78	1.44
12/02/2020 18:51:16	120220	12022020	185116	81.11	12.418788	-56.733503	81.21	-0.280	1.170	0.240	81.19	-0.30	0.70	 	 	 	 	 	 	 	 	 	 	 	 	 	 	 	 	 	 	1581533476	1.27	2.35
12/02/2020 18:51:17	120220	12022020	185117	81.44	12.418788	-56.733508	81.49	-0.670	1.490	0.070	81.48	0.10	0.50	 	 	 	 	 	 	 	 	 	 	 	 	 	 	 	 	 	 	1581533477	0.95	1.76
12/02/2020 18:51:18	120220	12022020	185118	81.54	12.418787	-56.733508	81.53	-0.630	0.720	0.170	81.52	-0.50	0.50	 	 	 	 	 	 	 	 	 	 	 	 	 	 	 	 	 	 	1581533478	0.28	0.52
12/02/2020 18:51:19	120220	12022020	185119	81.43	12.418785	-56.733505	81.30	-0.200	-0.610	0.550	81.37	-1.80	0.90	 	 	 	 	 	 	 	 	 	 	 	 	 	 	 	 	 	 	1581533479	0.90	1.67
12/02/2020 18:51:20	120220	12022020	185120	81.01	12.418783	-56.733500	80.92	0.270	-1.550	1.080	80.93	-2.80	1.40	 	 	 	 	 	 	 	 	 	 	 	 	 	 	 	 	 	 	1581533480	1.06	1.96
12/02/2020 18:51:21	120220	12022020	185121	80.74	12.418782	-56.733498	80.66	0.460	-1.520	1.440	80.70	-3.00	1.80	 	 	 	 	 	 	 	 	 	 	 	 	 	 	 	 	 	 	1581533481	0.49	0.91
12/02/2020 18:51:22	120220	12022020	185122	80.59	12.418782	-56.733502	80.62	0.320	-0.750	1.440	80.59	-2.30	1.90	 	 	 	 	 	 	 	 	 	 	 	 	 	 	 	 	 	 	1581533482	0.53	0.98
12/02/2020 18:51:23	120220	12022020	185123	80.67	12.418783	-56.733505	80.81	0.100	-0.000	1.100	80.71	-1.50	1.60	 	 	 	 	 	 	 	 	 	 	 	 	 	 	 	 	 	 	1581533483	0.88	1.63
12/02/2020 18:51:24	120220	12022020	185124	81.10	12.418787	-56.733507	81.25	0.010	0.320	0.530	81.19	-1.10	1.00	 	 	 	 	 	 	 	 	 	 	 	 	 	 	 	 	 	 	1581533484	0.77	1.43
12/02/2020 18:51:25	120220	12022020	185125	81.66	12.418788	-56.733508	81.81	-0.050	0.530	0.050	81.77	-0.90	0.50	 	 	 	 	 	 	 	 	 	 	 	 	 	 	 	 	 	 	1581533485	0.54	1.00
12/02/2020 18:51:26	120220	12022020	185126	82.03	12.418788	-56.733510	82.06	-0.150	0.720	-0.030	82.05	-0.70	0.40	 	 	 	 	 	 	 	 	 	 	 	 	 	 	 	 	 	 	1581533486	0.43	0.80
12/02/2020 18:51:27	120220	12022020	185127	81.95	12.418787	-56.733512	81.87	-0.220	0.470	0.240	81.89	-0.90	0.60	 	 	 	 	 	 	 	 	 	 	 	 	 	 	 	 	 	 	1581533487	0.54	1.00
12/02/2020 18:51:28	120220	12022020	185128	81.54	12.418783	-56.733510	81.42	-0.090	-0.400	0.710	81.44	-1.70	1.00	 	 	 	 	 	 	 	 	 	 	 	 	 	 	 	 	 	 	1581533488	0.51	0.94
12/02/2020 18:51:29	120220	12022020	185129	81.06	12.418782	-56.733507	80.97	0.160	-1.290	1.210	80.98	-2.60	1.60	 	 	 	 	 	 	 	 	 	 	 	 	 	 	 	 	 	 	1581533489	0.88	1.63
12/02/2020 18:51:30	120220	12022020	185130	80.73	12.418782	-56.733505	80.74	0.370	-1.500	1.420	80.71	-2.90	1.80	 	 	 	 	 	 	 	 	 	 	 	 	 	 	 	 	 	 	1581533490	0.57	1.06
12/02/2020 18:51:31	120220	12022020	185131	80.74	12.418782	-56.733505	80.84	0.350	-0.890	1.110	80.79	-2.40	1.60	 	 	 	 	 	 	 	 	 	 	 	 	 	 	 	 	 	 	1581533491	0.34	0.63
12/02/2020 18:51:32	120220	12022020	185132	81.07	12.418785	-56.733510	81.20	0.070	0.080	0.450	81.16	-1.40	1.00	 	 	 	 	 	 	 	 	 	 	 	 	 	 	 	 	 	 	1581533492	1.09	2.02
12/02/2020 18:51:33	120220	12022020	185133	81.54	12.418788	-56.733513	81.67	-0.280	0.720	-0.240	81.63	-0.70	0.30	 	 	 	 	 	 	 	 	 	 	 	 	 	 	 	 	 	 	1581533493	1.21	2.24
12/02/2020 18:51:34	120220	12022020	185134	81.95	12.418792	-56.733517	82.00	-0.450	0.760	-0.520	82.00	-0.60	-0.10	 	 	 	 	 	 	 	 	 	 	 	 	 	 	 	 	 	 	1581533494	0.61	1.13
12/02/2020 18:51:35	120220	12022020	185135	82.04	12.418790	-56.733515	81.99	-0.310	0.370	-0.210	82.02	-1.00	0.10	 	 	 	 	 	 	 	 	 	 	 	 	 	 	 	 	 	 	1581533495	0.31	0.57
12/02/2020 18:51:36	120220	12022020	185136	81.84	12.418787	-56.733513	81.77	0.020	-0.140	0.380	81.79	-1.50	0.70	 	 	 	 	 	 	 	 	 	 	 	 	 	 	 	 	 	 	1581533496	0.90	1.67
12/02/2020 18:51:37	120220	12022020	185137	81.63	12.418782	-56.733512	81.62	0.330	-0.660	0.890	81.61	-2.00	1.20	 	 	 	 	 	 	 	 	 	 	 	 	 	 	 	 	 	 	1581533497	0.86	1.59
12/02/2020 18:51:38	120220	12022020	185138	81.55	12.418782	-56.733510	81.58	0.400	-0.990	1.160	81.54	-2.40	1.50	 	 	 	 	 	 	 	 	 	 	 	 	 	 	 	 	 	 	1581533498	0.44	0.81
12/02/2020 18:51:39	120220	12022020	185139	81.51	12.418782	-56.733510	81.51	0.150	-0.720	1.250	81.49	-2.20	1.70	 	 	 	 	 	 	 	 	 	 	 	 	 	 	 	 	 	 	1581533499	0.11	0.20
12/02/2020 18:51:40	120220	12022020	185140	81.38	12.418782	-56.733515	81.38	-0.300	0.000	1.240	81.35	-1.50	1.70	 	 	 	 	 	 	 	 	 	 	 	 	 	 	 	 	 	 	1581533500	0.73	1.35
12/02/2020 18:51:41	120220	12022020	185141	81.28	12.418783	-56.733518	81.32	-0.570	0.470	1.120	81.28	-0.90	1.60	 	 	 	 	 	 	 	 	 	 	 	 	 	 	 	 	 	 	1581533501	0.84	1.56
12/02/2020 18:51:42	120220	12022020	185142	81.38	12.418783	-56.733518	81.46	-0.360	0.170	0.780	81.42	-1.10	1.20	 	 	 	 	 	 	 	 	 	 	 	 	 	 	 	 	 	 	1581533502	0.24	0.44
12/02/2020 18:51:43	120220	12022020	185143	81.62	12.418785	-56.733517	81.71	0.230	-0.640	0.270	81.67	-1.90	0.80	 	 	 	 	 	 	 	 	 	 	 	 	 	 	 	 	 	 	1581533503	0.74	1.37
12/02/2020 18:51:44	120220	12022020	185144	81.88	12.418788	-56.733512	81.93	0.750	-1.240	-0.160	81.92	-2.60	0.30	 	 	 	 	 	 	 	 	 	 	 	 	 	 	 	 	 	 	1581533504	1.14	2.11
12/02/2020 18:51:45	120220	12022020	185145	81.98	12.418790	-56.733510	81.96	0.770	-0.930	-0.200	81.98	-2.40	0.20	 	 	 	 	 	 	 	 	 	 	 	 	 	 	 	 	 	 	1581533505	0.54	1.00
12/02/2020 18:51:46	120220	12022020	185146	81.82	12.418788	-56.733513	81.76	0.220	0.330	0.190	81.77	-1.30	0.50	 	 	 	 	 	 	 	 	 	 	 	 	 	 	 	 	 	 	1581533506	0.75	1.39
12/02/2020 18:51:47	120220	12022020	185147	81.60	12.418785	-56.733520	81.49	-0.540	1.530	0.810	81.55	0.00	1.10	 	 	 	 	 	 	 	 	 	 	 	 	 	 	 	 	 	 	1581533507	1.62	3.00
12/02/2020 18:51:48	120220	12022020	185148	81.33	12.418783	-56.733525	81.31	-0.920	1.500	1.170	81.30	0.20	1.60	 	 	 	 	 	 	 	 	 	 	 	 	 	 	 	 	 	 	1581533508	1.10	2.04
12/02/2020 18:51:49	120220	12022020	185149	81.26	12.418783	-56.733523	81.27	-0.620	0.110	1.090	81.25	-1.00	1.50	 	 	 	 	 	 	 	 	 	 	 	 	 	 	 	 	 	 	1581533509	0.43	0.80
12/02/2020 18:51:50	120220	12022020	185150	81.26	12.418787	-56.733518	81.28	0.000	-1.440	0.890	81.27	-2.70	1.30	 	 	 	 	 	 	 	 	 	 	 	 	 	 	 	 	 	 	1581533510	1.35	2.50
12/02/2020 18:51:51	120220	12022020	185151	81.30	12.418788	-56.733513	81.32	0.370	-1.960	0.850	81.31	-3.40	1.20	 	 	 	 	 	 	 	 	 	 	 	 	 	 	 	 	 	 	1581533511	0.82	1.52
12/02/2020 18:51:52	120220	12022020	185152	81.35	12.418787	-56.733515	81.40	0.300	-1.340	0.990	81.38	-2.90	1.40	 	 	 	 	 	 	 	 	 	 	 	 	 	 	 	 	 	 	1581533512	0.55	1.02
12/02/2020 18:51:53	120220	12022020	185153	81.51	12.418782	-56.733518	81.59	0.130	-0.340	1.080	81.56	-1.90	1.50	 	 	 	 	 	 	 	 	 	 	 	 	 	 	 	 	 	 	1581533513	1.13	2.09
12/02/2020 18:51:54	120220	12022020	185154	81.68	12.418780	-56.733522	81.70	0.170	0.250	0.940	81.69	-1.20	1.40	 	 	 	 	 	 	 	 	 	 	 	 	 	 	 	 	 	 	1581533514	0.71	1.31
12/02/2020 18:51:55	120220	12022020	185155	81.61	12.418782	-56.733522	81.56	0.340	0.410	0.570	81.57	-1.00	1.00	 	 	 	 	 	 	 	 	 	 	 	 	 	 	 	 	 	 	1581533515	0.39	0.72
12/02/2020 18:51:56	120220	12022020	185156	81.44	12.418787	-56.733522	81.43	0.290	0.510	0.060	81.43	-0.90	0.50	 	 	 	 	 	 	 	 	 	 	 	 	 	 	 	 	 	 	1581533516	0.98	1.81
12/02/2020 18:51:57	120220	12022020	185157	81.49	12.418790	-56.733523	81.52	-0.180	0.700	-0.240	81.52	-0.70	0.20	 	 	 	 	 	 	 	 	 	 	 	 	 	 	 	 	 	 	1581533517	0.92	1.70
12/02/2020 18:51:58	120220	12022020	185158	81.65	12.418790	-56.733527	81.66	-0.770	0.670	-0.070	81.67	-0.70	0.30	 	 	 	 	 	 	 	 	 	 	 	 	 	 	 	 	 	 	1581533518	0.55	1.02
12/02/2020 18:51:59	120220	12022020	185159	81.71	12.418788	-56.733527	81.71	-0.930	0.060	0.380	81.71	-1.20	0.70	 	 	 	 	 	 	 	 	 	 	 	 	 	 	 	 	 	 	1581533519	0.71	1.31
12/02/2020 18:52:00	120220	12022020	185200	81.69	12.418783	-56.733525	81.71	-0.410	-1.010	0.780	81.69	-2.30	1.10	 	 	 	 	 	 	 	 	 	 	 	 	 	 	 	 	 	 	1581533520	0.97	1.80
12/02/2020 18:52:01	120220	12022020	185201	81.67	12.418782	-56.733520	81.70	0.400	-1.790	1.090	81.66	-3.10	1.40	 	 	 	 	 	 	 	 	 	 	 	 	 	 	 	 	 	 	1581533521	1.09	2.02
12/02/2020 18:52:02	120220	12022020	185202	81.57	12.418778	-56.733518	81.58	0.920	-1.680	1.330	81.54	-3.10	1.70	1014.70	25.90	25.90	19.90	20.00	290.0	69.0	69.0	436.0	27.0	353.00	8.60	74.00	8.20	24232	10793.0	27.4	27.4	1581533522	0.70	1.30
12/02/2020 18:52:03	120220	12022020	185203	81.43	12.418778	-56.733520	81.44	0.830	-0.730	1.350	81.40	-2.30	1.80	 	 	 	 	 	 	 	 	 	 	 	 	 	 	 	 	 	 	1581533523	0.32	0.59
12/02/2020 18:52:04	120220	12022020	185204	81.40	12.418780	-56.733523	81.46	0.340	0.490	1.120	81.42	-1.10	1.60	 	 	 	 	 	 	 	 	 	 	 	 	 	 	 	 	 	 	1581533524	0.91	1.69
12/02/2020 18:52:05	120220	12022020	185205	81.52	12.418782	-56.733527	81.57	-0.120	1.200	0.720	81.55	-0.30	1.20	 	 	 	 	 	 	 	 	 	 	 	 	 	 	 	 	 	 	1581533525	0.93	1.72
12/02/2020 18:52:06	120220	12022020	185206	81.62	12.418783	-56.733528	81.65	-0.330	1.080	0.290	81.63	-0.30	0.80	 	 	 	 	 	 	 	 	 	 	 	 	 	 	 	 	 	 	1581533526	0.58	1.07
12/02/2020 18:52:07	120220	12022020	185207	81.72	12.418787	-56.733527	81.76	-0.360	0.460	-0.010	81.74	-0.90	0.40	 	 	 	 	 	 	 	 	 	 	 	 	 	 	 	 	 	 	1581533527	0.57	1.06
12/02/2020 18:52:08	120220	12022020	185208	81.84	12.418787	-56.733525	81.86	-0.330	-0.150	-0.030	81.87	-1.50	0.40	 	 	 	 	 	 	 	 	 	 	 	 	 	 	 	 	 	 	1581533528	0.35	0.65
12/02/2020 18:52:09	120220	12022020	185209	81.89	12.418785	-56.733525	81.87	-0.220	-0.570	0.130	81.88	-1.90	0.50	 	 	 	 	 	 	 	 	 	 	 	 	 	 	 	 	 	 	1581533529	0.37	0.69
12/02/2020 18:52:10	120220	12022020	185210	81.78	12.418782	-56.733523	81.72	-0.020	-0.950	0.380	81.74	-2.30	0.70	 	 	 	 	 	 	 	 	 	 	 	 	 	 	 	 	 	 	1581533530	0.50	0.93
12/02/2020 18:52:11	120220	12022020	185211	81.58	12.418780	-56.733522	81.42	0.180	-1.240	0.760	81.51	-2.60	1.10	 	 	 	 	 	 	 	 	 	 	 	 	 	 	 	 	 	 	1581533531	0.59	1.09
12/02/2020 18:52:12	120220	12022020	185212	81.18	12.418778	-56.733520	81.14	0.230	-1.110	1.210	81.13	-2.50	1.60	 	 	 	 	 	 	 	 	 	 	 	 	 	 	 	 	 	 	1581533532	0.64	1.19
12/02/2020 18:52:13	120220	12022020	185213	81.05	12.418775	-56.733520	81.08	0.130	-0.460	1.460	81.05	-2.00	1.80	 	 	 	 	 	 	 	 	 	 	 	 	 	 	 	 	 	 	1581533533	0.56	1.04
12/02/2020 18:52:14	120220	12022020	185214	81.09	12.418775	-56.733522	81.13	0.020	0.350	1.270	81.10	-1.10	1.70	 	 	 	 	 	 	 	 	 	 	 	 	 	 	 	 	 	 	1581533534	0.50	0.93
12/02/2020 18:52:15	120220	12022020	185215	81.13	12.418777	-56.733525	81.15	0.040	0.750	0.740	81.13	-0.70	1.20	 	 	 	 	 	 	 	 	 	 	 	 	 	 	 	 	 	 	1581533535	0.61	1.13
12/02/2020 18:52:16	120220	12022020	185216	81.14	12.418782	-56.733525	81.15	0.120	0.600	0.080	81.15	-0.80	0.60	 	 	 	 	 	 	 	 	 	 	 	 	 	 	 	 	 	 	1581533536	1.00	1.85
12/02/2020 18:52:17	120220	12022020	185217	81.23	12.418785	-56.733523	81.26	0.090	0.280	-0.450	81.26	-1.10	0.00	 	 	 	 	 	 	 	 	 	 	 	 	 	 	 	 	 	 	1581533537	1.05	1.94
12/02/2020 18:52:18	120220	12022020	185218	81.40	12.418788	-56.733523	81.43	-0.070	-0.050	-0.530	81.44	-1.40	-0.10	 	 	 	 	 	 	 	 	 	 	 	 	 	 	 	 	 	 	1581533538	0.41	0.76
12/02/2020 18:52:19	120220	12022020	185219	81.50	12.418785	-56.733522	81.47	-0.150	-0.540	-0.120	81.49	-1.80	0.20	 	 	 	 	 	 	 	 	 	 	 	 	 	 	 	 	 	 	1581533539	0.53	0.98
12/02/2020 18:52:20	120220	12022020	185220	81.38	12.418782	-56.733518	81.31	-0.020	-1.120	0.460	81.33	-2.40	0.80	 	 	 	 	 	 	 	 	 	 	 	 	 	 	 	 	 	 	1581533540	1.02	1.89
12/02/2020 18:52:21	120220	12022020	185221	81.16	12.418778	-56.733515	81.14	0.180	-1.300	0.980	81.13	-2.70	1.30	 	 	 	 	 	 	 	 	 	 	 	 	 	 	 	 	 	 	1581533541	0.97	1.80
12/02/2020 18:52:22	120220	12022020	185222	81.08	12.418777	-56.733515	81.14	0.160	-0.650	1.470	81.09	-2.20	1.80	 	 	 	 	 	 	 	 	 	 	 	 	 	 	 	 	 	 	1581533542	0.64	1.19
12/02/2020 18:52:23	120220	12022020	185223	81.17	12.418772	-56.733518	81.34	-0.150	0.540	1.870	81.21	-1.00	2.20	 	 	 	 	 	 	 	 	 	 	 	 	 	 	 	 	 	 	1581533543	1.11	2.06
12/02/2020 18:52:24	120220	12022020	185224	81.37	12.418768	-56.733522	81.42	-0.490	1.230	2.000	81.37	-0.20	2.40	 	 	 	 	 	 	 	 	 	 	 	 	 	 	 	 	 	 	1581533544	1.19	2.20
12/02/2020 18:52:25	120220	12022020	185225	81.30	12.418767	-56.733523	81.32	-0.470	0.840	1.690	81.29	-0.50	2.20	 	 	 	 	 	 	 	 	 	 	 	 	 	 	 	 	 	 	1581533545	0.21	0.39
12/02/2020 18:52:26	120220	12022020	185226	81.28	12.418772	-56.733520	81.32	-0.050	-0.280	0.930	81.29	-1.50	1.40	 	 	 	 	 	 	 	 	 	 	 	 	 	 	 	 	 	 	1581533546	1.08	2.00
12/02/2020 18:52:27	120220	12022020	185227	81.34	12.418777	-56.733515	81.34	0.410	-1.330	0.280	81.34	-2.60	0.80	 	 	 	 	 	 	 	 	 	 	 	 	 	 	 	 	 	 	1581533547	1.54	2.85
12/02/2020 18:52:28	120220	12022020	185228	81.33	12.418780	-56.733512	81.32	0.580	-1.590	-0.020	81.33	-3.00	0.40	 	 	 	 	 	 	 	 	 	 	 	 	 	 	 	 	 	 	1581533548	1.02	1.89
12/02/2020 18:52:29	120220	12022020	185229	81.39	12.418782	-56.733512	81.41	0.410	-0.960	-0.160	81.42	-2.50	0.30	 	 	 	 	 	 	 	 	 	 	 	 	 	 	 	 	 	 	1581533549	0.20	0.37
12/02/2020 18:52:30	120220	12022020	185230	81.49	12.418780	-56.733515	81.48	0.080	0.070	-0.140	81.49	-1.50	0.30	 	 	 	 	 	 	 	 	 	 	 	 	 	 	 	 	 	 	1581533550	0.61	1.13
12/02/2020 18:52:31	120220	12022020	185231	81.52	12.418780	-56.733518	81.54	-0.250	1.000	0.020	81.54	-0.50	0.40	 	 	 	 	 	 	 	 	 	 	 	 	 	 	 	 	 	 	1581533551	0.81	1.50
12/02/2020 18:52:32	120220	12022020	185232	81.63	12.418778	-56.733522	81.69	-0.480	1.370	0.350	81.67	-0.00	0.70	 	 	 	 	 	 	 	 	 	 	 	 	 	 	 	 	 	 	1581533552	0.70	1.30
12/02/2020 18:52:33	120220	12022020	185233	81.80	12.418775	-56.733522	81.85	-0.490	0.800	0.760	81.82	-0.50	1.10	 	 	 	 	 	 	 	 	 	 	 	 	 	 	 	 	 	 	1581533553	0.63	1.17
12/02/2020 18:52:34	120220	12022020	185234	81.83	12.418772	-56.733517	81.83	-0.190	-0.630	1.160	81.80	-1.80	1.50	 	 	 	 	 	 	 	 	 	 	 	 	 	 	 	 	 	 	1581533554	1.22	2.26
12/02/2020 18:52:35	120220	12022020	185235	81.67	12.418770	-56.733508	81.56	0.310	-2.160	1.590	81.60	-3.40	1.90	 	 	 	 	 	 	 	 	 	 	 	 	 	 	 	 	 	 	1581533555	1.77	3.28
12/02/2020 18:52:36	120220	12022020	185236	81.21	12.418767	-56.733502	81.19	0.640	-2.510	2.160	81.14	-3.90	2.50	 	 	 	 	 	 	 	 	 	 	 	 	 	 	 	 	 	 	1581533556	1.53	2.83
12/02/2020 18:52:37	120220	12022020	185237	80.97	12.418765	-56.733503	81.06	0.450	-1.100	2.400	80.96	-2.80	2.80	 	 	 	 	 	 	 	 	 	 	 	 	 	 	 	 	 	 	1581533557	0.46	0.85
12/02/2020 18:52:38	120220	12022020	185238	81.07	12.418765	-56.733512	81.22	-0.170	1.090	1.960	81.12	-0.60	2.50	 	 	 	 	 	 	 	 	 	 	 	 	 	 	 	 	 	 	1581533558	1.78	3.30
12/02/2020 18:52:39	120220	12022020	185239	81.36	12.418767	-56.733522	81.47	-0.760	2.540	0.970	81.41	1.00	1.50	 	 	 	 	 	 	 	 	 	 	 	 	 	 	 	 	 	 	1581533559	2.16	4.00
12/02/2020 18:52:40	120220	12022020	185240	81.60	12.418772	-56.733527	81.65	-0.840	2.280	-0.060	81.63	1.00	0.50	 	 	 	 	 	 	 	 	 	 	 	 	 	 	 	 	 	 	1581533560	1.38	2.56
12/02/2020 18:52:41	120220	12022020	185241	81.79	12.418775	-56.733523	81.83	-0.350	0.430	-0.900	81.84	-0.60	-0.40	 	 	 	 	 	 	 	 	 	 	 	 	 	 	 	 	 	 	1581533561	1.09	2.02
12/02/2020 18:52:42	120220	12022020	185242	82.03	12.418780	-56.733517	82.01	0.350	-1.920	-1.520	82.07	-3.00	-1.00	 	 	 	 	 	 	 	 	 	 	 	 	 	 	 	 	 	 	1581533562	1.86	3.44
12/02/2020 18:52:43	120220	12022020	185243	82.11	12.418783	-56.733510	81.97	0.810	-3.240	-1.560	82.07	-4.50	-1.20	 	 	 	 	 	 	 	 	 	 	 	 	 	 	 	 	 	 	1581533563	1.65	3.06
12/02/2020 18:52:44	120220	12022020	185244	81.81	12.418782	-56.733508	81.62	0.810	-2.730	-0.800	81.72	-4.30	-0.50	 	 	 	 	 	 	 	 	 	 	 	 	 	 	 	 	 	 	1581533564	0.42	0.78
12/02/2020 18:52:45	120220	12022020	185245	81.39	12.418777	-56.733512	81.27	0.410	-0.960	0.460	81.32	-2.60	0.70	 	 	 	 	 	 	 	 	 	 	 	 	 	 	 	 	 	 	1581533565	1.39	2.57
12/02/2020 18:52:46	120220	12022020	185246	81.25	12.418770	-56.733518	81.29	-0.110	0.980	1.570	81.28	-0.60	1.80	 	 	 	 	 	 	 	 	 	 	 	 	 	 	 	 	 	 	1581533566	2.07	3.83
12/02/2020 18:52:47	120220	12022020	185247	81.45	12.418763	-56.733522	81.69	-0.520	2.150	2.080	81.52	0.60	2.40	 	 	 	 	 	 	 	 	 	 	 	 	 	 	 	 	 	 	1581533567	1.73	3.20
12/02/2020 18:52:48	120220	12022020	185248	81.95	12.418760	-56.733525	82.08	-0.710	2.180	2.070	82.02	0.80	2.50	 	 	 	 	 	 	 	 	 	 	 	 	 	 	 	 	 	 	1581533568	0.79	1.46
12/02/2020 18:52:49	120220	12022020	185249	82.18	12.418760	-56.733523	82.30	-0.680	1.260	1.890	82.22	0.00	2.30	 	 	 	 	 	 	 	 	 	 	 	 	 	 	 	 	 	 	1581533569	0.12	0.22
12/02/2020 18:52:50	120220	12022020	185250	82.33	12.418762	-56.733522	82.39	-0.470	-0.090	1.670	82.34	-1.30	2.10	 	 	 	 	 	 	 	 	 	 	 	 	 	 	 	 	 	 	1581533570	0.54	1.00
12/02/2020 18:52:51	120220	12022020	185251	82.39	12.418763	-56.733520	82.44	-0.100	-1.400	1.380	82.39	-2.60	1.80	 	 	 	 	 	 	 	 	 	 	 	 	 	 	 	 	 	 	1581533571	0.65	1.20
12/02/2020 18:52:52	120220	12022020	185252	82.37	12.418765	-56.733518	82.38	0.390	-2.340	1.120	82.35	-3.60	1.60	 	 	 	 	 	 	 	 	 	 	 	 	 	 	 	 	 	 	1581533572	0.64	1.19
12/02/2020 18:52:53	120220	12022020	185253	82.26	12.418767	-56.733515	82.27	0.870	-2.510	0.940	82.24	-3.90	1.40	 	 	 	 	 	 	 	 	 	 	 	 	 	 	 	 	 	 	1581533573	0.50	0.93
12/02/2020 18:52:54	120220	12022020	185254	82.20	12.418768	-56.733517	82.23	1.000	-1.600	0.860	82.19	-3.20	1.30	 	 	 	 	 	 	 	 	 	 	 	 	 	 	 	 	 	 	1581533574	0.16	0.30
12/02/2020 18:52:55	120220	12022020	185255	82.22	12.418768	-56.733520	82.27	0.590	0.050	0.760	82.23	-1.60	1.20	 	 	 	 	 	 	 	 	 	 	 	 	 	 	 	 	 	 	1581533575	0.82	1.52
12/02/2020 18:52:56	120220	12022020	185256	82.34	12.418768	-56.733525	82.41	-0.090	1.460	0.390	82.38	-0.10	0.90	 	 	 	 	 	 	 	 	 	 	 	 	 	 	 	 	 	 	1581533576	1.16	2.15
12/02/2020 18:52:57	120220	12022020	185257	82.55	12.418770	-56.733528	82.58	-0.540	1.880	-0.050	82.57	0.50	0.40	 	 	 	 	 	 	 	 	 	 	 	 	 	 	 	 	 	 	1581533577	0.80	1.48
12/02/2020 18:52:58	120220	12022020	185258	82.55	12.418772	-56.733528	82.48	-0.610	1.320	-0.110	82.51	0.00	0.30	 	 	 	 	 	 	 	 	 	 	 	 	 	 	 	 	 	 	1581533578	0.34	0.63
12/02/2020 18:52:59	120220	12022020	185259	82.32	12.418772	-56.733525	82.27	-0.500	0.370	0.150	82.28	-0.90	0.50	 	 	 	 	 	 	 	 	 	 	 	 	 	 	 	 	 	 	1581533579	0.57	1.06
12/02/2020 18:53:00	120220	12022020	185300	82.23	12.418770	-56.733523	82.31	-0.390	-0.460	0.500	82.26	-1.80	0.90	 	 	 	 	 	 	 	 	 	 	 	 	 	 	 	 	 	 	1581533580	0.43	0.80
12/02/2020 18:53:01	120220	12022020	185301	82.40	12.418770	-56.733523	82.59	-0.250	-1.100	0.700	82.45	-2.40	1.10	 	 	 	 	 	 	 	 	 	 	 	 	 	 	 	 	 	 	1581533581	0.33	0.61
12/02/2020 18:53:02	120220	12022020	185302	82.71	12.418768	-56.733522	82.78	0.090	-1.510	0.930	82.73	-2.90	1.30	1014.80	26.00	26.10	20.00	20.10	282.0	69.0	69.0	437.0	27.0	349.00	10.80	70.00	10.40	23934	11599.0	27.4	27.4	1581533582	0.39	0.72
12/02/2020 18:53:03	120220	12022020	185303	82.74	12.418765	-56.733522	82.78	0.530	-1.540	1.320	82.73	-2.90	1.70	 	 	 	 	 	 	 	 	 	 	 	 	 	 	 	 	 	 	1581533583	0.49	0.91
12/02/2020 18:53:04	120220	12022020	185304	82.63	12.418765	-56.733520	82.69	0.760	-0.990	1.680	82.61	-2.50	2.00	 	 	 	 	 	 	 	 	 	 	 	 	 	 	 	 	 	 	1581533584	0.33	0.61
12/02/2020 18:53:05	120220	12022020	185305	82.58	12.418763	-56.733522	82.67	0.580	-0.010	1.810	82.58	-1.50	2.20	 	 	 	 	 	 	 	 	 	 	 	 	 	 	 	 	 	 	1581533585	0.44	0.81
12/02/2020 18:53:06	120220	12022020	185306	82.62	12.418765	-56.733525	82.68	0.190	0.690	1.620	82.62	-0.80	2.10	 	 	 	 	 	 	 	 	 	 	 	 	 	 	 	 	 	 	1581533586	0.58	1.07
12/02/2020 18:53:07	120220	12022020	185307	82.58	12.418765	-56.733525	82.61	-0.080	0.720	1.330	82.56	-0.60	1.80	 	 	 	 	 	 	 	 	 	 	 	 	 	 	 	 	 	 	1581533587	0.22	0.41
12/02/2020 18:53:08	120220	12022020	185308	82.39	12.418767	-56.733523	82.37	-0.190	0.420	1.150	82.33	-0.90	1.60	 	 	 	 	 	 	 	 	 	 	 	 	 	 	 	 	 	 	1581533588	0.48	0.89
12/02/2020 18:53:09	120220	12022020	185309	82.15	12.418767	-56.733522	82.19	-0.300	0.120	0.990	82.13	-1.20	1.40	 	 	 	 	 	 	 	 	 	 	 	 	 	 	 	 	 	 	1581533589	0.44	0.81
12/02/2020 18:53:10	120220	12022020	185310	82.19	12.418768	-56.733520	82.33	-0.450	-0.140	0.560	82.25	-1.50	1.00	 	 	 	 	 	 	 	 	 	 	 	 	 	 	 	 	 	 	1581533590	0.44	0.81
12/02/2020 18:53:11	120220	12022020	185311	82.58	12.418772	-56.733522	82.73	-0.460	-0.320	-0.140	82.68	-1.70	0.40	 	 	 	 	 	 	 	 	 	 	 	 	 	 	 	 	 	 	1581533591	0.75	1.39
12/02/2020 18:53:12	120220	12022020	185312	83.02	12.418775	-56.733522	83.09	-0.170	-0.440	-0.710	83.09	-1.80	-0.30	 	 	 	 	 	 	 	 	 	 	 	 	 	 	 	 	 	 	1581533592	0.67	1.24
12/02/2020 18:53:13	120220	12022020	185313	83.23	12.418777	-56.733522	83.20	0.310	-0.530	-0.680	83.24	-1.90	-0.30	 	 	 	 	 	 	 	 	 	 	 	 	 	 	 	 	 	 	1581533593	0.18	0.33
12/02/2020 18:53:14	120220	12022020	185314	83.15	12.418773	-56.733522	83.08	0.570	-0.460	-0.040	83.12	-1.90	0.30	 	 	 	 	 	 	 	 	 	 	 	 	 	 	 	 	 	 	1581533594	0.44	0.81
12/02/2020 18:53:15	120220	12022020	185315	82.95	12.418770	-56.733522	82.89	0.350	-0.190	0.810	82.90	-1.60	1.10	 	 	 	 	 	 	 	 	 	 	 	 	 	 	 	 	 	 	1581533595	0.81	1.50
12/02/2020 18:53:16	120220	12022020	185316	82.67	12.418767	-56.733522	82.62	-0.100	-0.100	1.570	82.61	-1.50	1.90	 	 	 	 	 	 	 	 	 	 	 	 	 	 	 	 	 	 	1581533596	0.77	1.43
12/02/2020 18:53:17	120220	12022020	185317	82.40	12.418765	-56.733522	82.42	-0.250	-0.430	2.020	82.37	-1.70	2.40	 	 	 	 	 	 	 	 	 	 	 	 	 	 	 	 	 	 	1581533597	0.49	0.91
12/02/2020 18:53:18	120220	12022020	185318	82.34	12.418765	-56.733518	82.44	0.100	-0.920	2.030	82.35	-2.20	2.40	 	 	 	 	 	 	 	 	 	 	 	 	 	 	 	 	 	 	1581533598	0.72	1.33
12/02/2020 18:53:19	120220	12022020	185319	82.54	12.418767	-56.733515	82.71	0.630	-0.940	1.660	82.61	-2.40	2.10	 	 	 	 	 	 	 	 	 	 	 	 	 	 	 	 	 	 	1581533599	0.81	1.50
12/02/2020 18:53:20	120220	12022020	185320	82.86	12.418770	-56.733515	82.98	0.720	-0.110	1.120	82.91	-1.60	1.60	 	 	 	 	 	 	 	 	 	 	 	 	 	 	 	 	 	 	1581533600	0.67	1.24
12/02/2020 18:53:21	120220	12022020	185321	83.01	12.418773	-56.733518	83.06	0.150	1.020	0.650	83.02	-0.50	1.10	 	 	 	 	 	 	 	 	 	 	 	 	 	 	 	 	 	 	1581533601	1.07	1.98
12/02/2020 18:53:22	120220	12022020	185322	83.07	12.418773	-56.733523	83.11	-0.720	1.530	0.310	83.08	0.10	0.80	 	 	 	 	 	 	 	 	 	 	 	 	 	 	 	 	 	 	1581533602	0.98	1.81
12/02/2020 18:53:23	120220	12022020	185323	83.12	12.418773	-56.733525	83.14	-1.230	1.100	0.210	83.13	-0.20	0.60	 	 	 	 	 	 	 	 	 	 	 	 	 	 	 	 	 	 	1581533603	0.36	0.67
12/02/2020 18:53:24	120220	12022020	185324	83.08	12.418772	-56.733523	83.05	-1.030	0.030	0.300	83.05	-1.20	0.70	 	 	 	 	 	 	 	 	 	 	 	 	 	 	 	 	 	 	1581533604	0.51	0.94
12/02/2020 18:53:25	120220	12022020	185325	82.90	12.418770	-56.733520	82.74	-0.290	-1.200	0.430	82.84	-2.40	0.80	 	 	 	 	 	 	 	 	 	 	 	 	 	 	 	 	 	 	1581533605	0.76	1.41
12/02/2020 18:53:26	120220	12022020	185326	82.44	12.418772	-56.733517	82.36	0.520	-2.100	0.630	82.37	-3.40	1.00	 	 	 	 	 	 	 	 	 	 	 	 	 	 	 	 	 	 	1581533606	0.82	1.52
12/02/2020 18:53:27	120220	12022020	185327	82.23	12.418773	-56.733513	82.27	1.010	-2.190	0.730	82.23	-3.60	1.10	 	 	 	 	 	 	 	 	 	 	 	 	 	 	 	 	 	 	1581533607	0.71	1.31
12/02/2020 18:53:28	120220	12022020	185328	82.38	12.418775	-56.733513	82.47	1.040	-1.260	0.660	82.43	-2.80	1.10	 	 	 	 	 	 	 	 	 	 	 	 	 	 	 	 	 	 	1581533608	0.30	0.56
12/02/2020 18:53:29	120220	12022020	185329	82.58	12.418775	-56.733517	82.60	0.640	0.270	0.650	82.60	-1.30	1.00	 	 	 	 	 	 	 	 	 	 	 	 	 	 	 	 	 	 	1581533609	0.76	1.41
12/02/2020 18:53:30	120220	12022020	185330	82.52	12.418773	-56.733522	82.46	0.060	1.380	0.880	82.47	-0.10	1.20	 	 	 	 	 	 	 	 	 	 	 	 	 	 	 	 	 	 	1581533610	0.92	1.70
12/02/2020 18:53:31	120220	12022020	185331	82.15	12.418772	-56.733522	82.05	-0.400	1.450	1.350	82.05	0.10	1.70	 	 	 	 	 	 	 	 	 	 	 	 	 	 	 	 	 	 	1581533611	0.41	0.76
12/02/2020 18:53:32	120220	12022020	185332	81.71	12.418770	-56.733520	81.69	-0.640	0.780	1.710	81.66	-0.50	2.10	 	 	 	 	 	 	 	 	 	 	 	 	 	 	 	 	 	 	1581533612	0.66	1.22
12/02/2020 18:53:33	120220	12022020	185333	81.67	12.418770	-56.733517	81.81	-0.720	0.260	1.590	81.73	-1.10	2.00	 	 	 	 	 	 	 	 	 	 	 	 	 	 	 	 	 	 	1581533613	0.52	0.96
12/02/2020 18:53:34	120220	12022020	185334	82.09	12.418772	-56.733518	82.27	-0.720	0.110	1.110	82.19	-1.20	1.60	 	 	 	 	 	 	 	 	 	 	 	 	 	 	 	 	 	 	1581533614	0.30	0.56
12/02/2020 18:53:35	120220	12022020	185335	82.51	12.418772	-56.733520	82.57	-0.540	-0.260	0.690	82.55	-1.50	1.10	 	 	 	 	 	 	 	 	 	 	 	 	 	 	 	 	 	 	1581533615	0.54	1.00
12/02/2020 18:53:36	120220	12022020	185336	82.49	12.418773	-56.733520	82.41	-0.050	-1.230	0.630	82.43	-2.40	1.00	 	 	 	 	 	 	 	 	 	 	 	 	 	 	 	 	 	 	1581533616	0.20	0.37
12/02/2020 18:53:37	120220	12022020	185337	82.15	12.418772	-56.733513	81.94	0.670	-2.340	0.930	82.05	-3.60	1.30	 	 	 	 	 	 	 	 	 	 	 	 	 	 	 	 	 	 	1581533617	1.12	2.07
12/02/2020 18:53:38	120220	12022020	185338	81.59	12.418772	-56.733508	81.51	1.230	-2.510	1.270	81.50	-3.90	1.60	 	 	 	 	 	 	 	 	 	 	 	 	 	 	 	 	 	 	1581533618	1.30	2.41
12/02/2020 18:53:39	120220	12022020	185339	81.24	12.418770	-56.733508	81.06	1.180	-0.980	1.480	81.15	-2.60	1.90	 	 	 	 	 	 	 	 	 	 	 	 	 	 	 	 	 	 	1581533619	0.27	0.50
12/02/2020 18:53:40	120220	12022020	185340	80.68	12.418770	-56.733515	80.60	0.450	1.430	1.190	80.60	-0.20	1.70	 	 	 	 	 	 	 	 	 	 	 	 	 	 	 	 	 	 	1581533620	1.52	2.82
12/02/2020 18:53:41	120220	12022020	185341	80.49	12.418775	-56.733523	80.53	-0.560	2.940	0.120	80.51	1.50	0.70	 	 	 	 	 	 	 	 	 	 	 	 	 	 	 	 	 	 	1581533621	2.29	4.24
12/02/2020 18:53:42	120220	12022020	185342	80.84	12.418785	-56.733528	80.99	-1.260	2.450	-1.180	80.95	1.30	-0.60	 	 	 	 	 	 	 	 	 	 	 	 	 	 	 	 	 	 	1581533622	2.10	3.89
12/02/2020 18:53:43	120220	12022020	185343	81.50	12.418792	-56.733525	81.64	-1.210	0.400	-1.910	81.63	-0.60	-1.50	 	 	 	 	 	 	 	 	 	 	 	 	 	 	 	 	 	 	1581533623	1.57	2.91
12/02/2020 18:53:44	120220	12022020	185344	81.97	12.418792	-56.733517	81.93	-0.480	-1.850	-1.680	82.00	-2.90	-1.40	 	 	 	 	 	 	 	 	 	 	 	 	 	 	 	 	 	 	1581533624	1.79	3.32
12/02/2020 18:53:45	120220	12022020	185345	81.89	12.418785	-56.733510	81.74	0.380	-2.810	-0.720	81.83	-4.10	-0.50	 	 	 	 	 	 	 	 	 	 	 	 	 	 	 	 	 	 	1581533625	1.89	3.50
12/02/2020 18:53:46	120220	12022020	185346	81.46	12.418778	-56.733510	81.29	0.760	-1.990	0.620	81.35	-3.50	0.80	 	 	 	 	 	 	 	 	 	 	 	 	 	 	 	 	 	 	1581533626	1.61	2.98
12/02/2020 18:53:47	120220	12022020	185347	81.01	12.418772	-56.733515	80.97	0.560	-0.350	1.890	80.95	-1.90	2.10	 	 	 	 	 	 	 	 	 	 	 	 	 	 	 	 	 	 	1581533627	1.88	3.48
12/02/2020 18:53:48	120220	12022020	185348	80.88	12.418767	-56.733520	80.96	0.190	0.720	2.740	80.90	-0.70	3.00	 	 	 	 	 	 	 	 	 	 	 	 	 	 	 	 	 	 	1581533628	1.55	2.87
12/02/2020 18:53:49	120220	12022020	185349	81.05	12.418763	-56.733520	81.17	-0.000	0.670	3.000	81.09	-0.60	3.40	 	 	 	 	 	 	 	 	 	 	 	 	 	 	 	 	 	 	1581533629	0.51	0.94
12/02/2020 18:53:50	120220	12022020	185350	81.16	12.418763	-56.733517	81.21	0.000	0.160	2.820	81.16	-1.10	3.30	 	 	 	 	 	 	 	 	 	 	 	 	 	 	 	 	 	 	1581533630	0.71	1.31
12/02/2020 18:53:51	120220	12022020	185351	81.14	12.418767	-56.733515	81.19	-0.010	-0.000	2.220	81.13	-1.40	2.70	 	 	 	 	 	 	 	 	 	 	 	 	 	 	 	 	 	 	1581533631	0.69	1.28
12/02/2020 18:53:52	120220	12022020	185352	81.18	12.418770	-56.733515	81.24	-0.150	0.220	1.330	81.21	-1.20	1.90	 	 	 	 	 	 	 	 	 	 	 	 	 	 	 	 	 	 	1581533632	0.89	1.65
12/02/2020 18:53:53	120220	12022020	185353	81.29	12.418773	-56.733518	81.35	-0.300	0.200	0.480	81.32	-1.10	1.00	 	 	 	 	 	 	 	 	 	 	 	 	 	 	 	 	 	 	1581533633	1.04	1.93
12/02/2020 18:53:54	120220	12022020	185354	81.34	12.418777	-56.733518	81.31	-0.210	-0.380	-0.080	81.33	-1.60	0.40	 	 	 	 	 	 	 	 	 	 	 	 	 	 	 	 	 	 	1581533634	0.71	1.31
12/02/2020 18:53:55	120220	12022020	185355	81.25	12.418780	-56.733517	81.22	0.170	-1.120	-0.340	81.24	-2.40	0.10	 	 	 	 	 	 	 	 	 	 	 	 	 	 	 	 	 	 	1581533635	0.89	1.65
12/02/2020 18:53:56	120220	12022020	185356	81.26	12.418783	-56.733513	81.26	0.500	-1.280	-0.570	81.29	-2.70	-0.10	 	 	 	 	 	 	 	 	 	 	 	 	 	 	 	 	 	 	1581533636	0.94	1.74
12/02/2020 18:53:57	120220	12022020	185357	81.54	12.418787	-56.733515	81.61	0.430	-0.610	-0.740	81.63	-2.10	-0.30	 	 	 	 	 	 	 	 	 	 	 	 	 	 	 	 	 	 	1581533637	0.62	1.15
12/02/2020 18:53:58	120220	12022020	185358	81.99	12.418785	-56.733518	82.05	0.010	0.490	-0.350	82.07	-1.00	-0.00	 	 	 	 	 	 	 	 	 	 	 	 	 	 	 	 	 	 	1581533638	0.89	1.65
12/02/2020 18:53:59	120220	12022020	185359	82.19	12.418778	-56.733522	82.17	-0.440	1.190	0.840	82.18	-0.20	1.10	 	 	 	 	 	 	 	 	 	 	 	 	 	 	 	 	 	 	1581533639	1.80	3.33
12/02/2020 18:54:00	120220	12022020	185400	81.98	12.418767	-56.733523	81.93	-0.590	0.890	2.340	81.91	-0.40	2.60	 	 	 	 	 	 	 	 	 	 	 	 	 	 	 	 	 	 	1581533640	2.28	4.22
12/02/2020 18:54:01	120220	12022020	185401	81.64	12.418758	-56.733518	81.61	-0.340	-0.240	3.340	81.57	-1.40	3.70	 	 	 	 	 	 	 	 	 	 	 	 	 	 	 	 	 	 	1581533641	1.98	3.67
12/02/2020 18:54:02	120220	12022020	185402	81.27	12.418757	-56.733513	81.24	0.130	-1.360	3.660	81.18	-2.60	4.10	1014.50	26.20	26.20	19.60	19.80	282.0	67.0	67.0	437.0	27.0	347.00	12.50	68.00	12.10	24188	12263.0	27.4	27.4	1581533642	1.32	2.44
12/02/2020 18:54:03	120220	12022020	185403	80.96	12.418758	-56.733510	80.92	0.510	-1.640	3.360	80.91	-3.00	3.80	 	 	 	 	 	 	 	 	 	 	 	 	 	 	 	 	 	 	1581533643	0.84	1.56
12/02/2020 18:54:04	120220	12022020	185404	80.87	12.418765	-56.733512	81.02	0.580	-0.970	2.450	80.93	-2.40	3.00	 	 	 	 	 	 	 	 	 	 	 	 	 	 	 	 	 	 	1581533644	1.41	2.61
12/02/2020 18:54:05	120220	12022020	185405	81.34	12.418772	-56.733517	81.57	0.350	-0.030	1.170	81.48	-1.50	1.80	 	 	 	 	 	 	 	 	 	 	 	 	 	 	 	 	 	 	1581533645	1.86	3.44
12/02/2020 18:54:06	120220	12022020	185406	82.05	12.418778	-56.733522	82.24	0.040	0.640	0.020	82.17	-0.80	0.60	 	 	 	 	 	 	 	 	 	 	 	 	 	 	 	 	 	 	1581533646	1.47	2.72
12/02/2020 18:54:07	120220	12022020	185407	82.58	12.418780	-56.733523	82.63	-0.140	0.870	-0.620	82.63	-0.50	-0.20	 	 	 	 	 	 	 	 	 	 	 	 	 	 	 	 	 	 	1581533647	0.68	1.26
12/02/2020 18:54:08	120220	12022020	185408	82.57	12.418778	-56.733523	82.43	-0.170	0.560	-0.530	82.50	-0.80	-0.20	 	 	 	 	 	 	 	 	 	 	 	 	 	 	 	 	 	 	1581533648	0.25	0.46
12/02/2020 18:54:09	120220	12022020	185409	82.04	12.418775	-56.733522	81.84	-0.230	-0.010	0.070	81.90	-1.30	0.40	 	 	 	 	 	 	 	 	 	 	 	 	 	 	 	 	 	 	1581533649	0.85	1.57
12/02/2020 18:54:10	120220	12022020	185410	81.48	12.418772	-56.733520	81.37	-0.390	-0.420	0.670	81.41	-1.70	1.00	 	 	 	 	 	 	 	 	 	 	 	 	 	 	 	 	 	 	1581533650	0.80	1.48
12/02/2020 18:54:11	120220	12022020	185411	81.29	12.418770	-56.733520	81.31	-0.420	-0.650	1.020	81.30	-2.00	1.40	 	 	 	 	 	 	 	 	 	 	 	 	 	 	 	 	 	 	1581533651	0.44	0.81
12/02/2020 18:54:12	120220	12022020	185412	81.43	12.418770	-56.733520	81.51	-0.070	-0.950	1.110	81.48	-2.30	1.50	 	 	 	 	 	 	 	 	 	 	 	 	 	 	 	 	 	 	1581533652	0.10	0.19
12/02/2020 18:54:13	120220	12022020	185413	81.64	12.418772	-56.733520	81.71	0.520	-1.290	1.100	81.67	-2.60	1.50	 	 	 	 	 	 	 	 	 	 	 	 	 	 	 	 	 	 	1581533653	0.42	0.78
12/02/2020 18:54:14	120220	12022020	185414	81.71	12.418772	-56.733517	81.74	0.850	-1.250	1.180	81.71	-2.70	1.60	 	 	 	 	 	 	 	 	 	 	 	 	 	 	 	 	 	 	1581533654	0.55	1.02
12/02/2020 18:54:15	120220	12022020	185415	81.69	12.418772	-56.733517	81.75	0.590	-0.390	1.410	81.70	-1.90	1.80	 	 	 	 	 	 	 	 	 	 	 	 	 	 	 	 	 	 	1581533655	0.33	0.61
12/02/2020 18:54:16	120220	12022020	185416	81.88	12.418767	-56.733520	82.04	-0.130	0.970	1.580	81.95	-0.60	2.00	 	 	 	 	 	 	 	 	 	 	 	 	 	 	 	 	 	 	1581533656	1.13	2.09
12/02/2020 18:54:17	120220	12022020	185417	82.24	12.418763	-56.733527	82.52	-0.820	1.970	1.440	82.34	0.50	1.90	 	 	 	 	 	 	 	 	 	 	 	 	 	 	 	 	 	 	1581533657	1.45	2.69
12/02/2020 18:54:18	120220	12022020	185418	82.69	12.418762	-56.733530	82.76	-1.090	1.920	1.200	82.72	0.60	1.60	 	 	 	 	 	 	 	 	 	 	 	 	 	 	 	 	 	 	1581533658	0.97	1.80
12/02/2020 18:54:19	120220	12022020	185419	82.62	12.418762	-56.733530	82.53	-0.840	0.720	0.880	82.55	-0.40	1.30	 	 	 	 	 	 	 	 	 	 	 	 	 	 	 	 	 	 	1581533659	0.11	0.20
12/02/2020 18:54:20	120220	12022020	185420	82.13	12.418765	-56.733527	81.96	-0.180	-1.190	0.570	82.01	-2.30	1.00	 	 	 	 	 	 	 	 	 	 	 	 	 	 	 	 	 	 	1581533660	0.92	1.70
12/02/2020 18:54:21	120220	12022020	185421	81.60	12.418768	-56.733522	81.52	0.580	-2.840	0.340	81.53	-4.00	0.80	 	 	 	 	 	 	 	 	 	 	 	 	 	 	 	 	 	 	1581533661	1.51	2.80
12/02/2020 18:54:22	120220	12022020	185422	81.51	12.418773	-56.733517	81.61	1.070	-3.220	0.050	81.58	-4.60	0.50	 	 	 	 	 	 	 	 	 	 	 	 	 	 	 	 	 	 	1581533662	1.31	2.43
12/02/2020 18:54:23	120220	12022020	185423	82.02	12.418777	-56.733518	82.18	1.050	-2.050	-0.340	82.16	-3.60	0.10	 	 	 	 	 	 	 	 	 	 	 	 	 	 	 	 	 	 	1581533663	0.72	1.33
12/02/2020 18:54:24	120220	12022020	185424	82.67	12.418775	-56.733523	82.75	0.460	0.190	-0.250	82.77	-1.50	0.10	 	 	 	 	 	 	 	 	 	 	 	 	 	 	 	 	 	 	1581533664	1.18	2.19
12/02/2020 18:54:25	120220	12022020	185425	82.99	12.418770	-56.733532	82.96	-0.460	2.310	0.520	83.00	0.70	0.80	 	 	 	 	 	 	 	 	 	 	 	 	 	 	 	 	 	 	1581533665	2.18	4.04
12/02/2020 18:54:26	120220	12022020	185426	82.90	12.418760	-56.733537	82.80	-1.190	3.070	1.620	82.84	1.70	1.90	 	 	 	 	 	 	 	 	 	 	 	 	 	 	 	 	 	 	1581533666	2.30	4.26
12/02/2020 18:54:27	120220	12022020	185427	82.54	12.418752	-56.733537	82.40	-1.290	2.220	2.560	82.44	1.00	2.90	 	 	 	 	 	 	 	 	 	 	 	 	 	 	 	 	 	 	1581533667	1.69	3.13
12/02/2020 18:54:28	120220	12022020	185428	82.06	12.418748	-56.733533	81.99	-0.720	0.360	3.120	81.98	-0.70	3.50	 	 	 	 	 	 	 	 	 	 	 	 	 	 	 	 	 	 	1581533668	1.12	2.07
12/02/2020 18:54:29	120220	12022020	185429	81.84	12.418750	-56.733528	81.92	0.180	-1.710	2.970	81.83	-2.80	3.50	 	 	 	 	 	 	 	 	 	 	 	 	 	 	 	 	 	 	1581533669	1.17	2.17
12/02/2020 18:54:30	120220	12022020	185430	82.06	12.418757	-56.733523	82.22	0.900	-3.090	2.240	82.12	-4.30	2.80	 	 	 	 	 	 	 	 	 	 	 	 	 	 	 	 	 	 	1581533670	1.53	2.83
12/02/2020 18:54:31	120220	12022020	185431	82.27	12.418762	-56.733522	82.33	1.140	-3.050	1.620	82.27	-4.50	2.10	 	 	 	 	 	 	 	 	 	 	 	 	 	 	 	 	 	 	1581533671	1.20	2.22
12/02/2020 18:54:32	120220	12022020	185432	82.16	12.418763	-56.733525	82.14	0.870	-1.580	1.370	82.12	-3.20	1.80	 	 	 	 	 	 	 	 	 	 	 	 	 	 	 	 	 	 	1581533672	0.79	1.46
12/02/2020 18:54:33	120220	12022020	185433	81.94	12.418763	-56.733532	81.94	0.270	0.570	1.130	81.91	-1.10	1.60	 	 	 	 	 	 	 	 	 	 	 	 	 	 	 	 	 	 	1581533673	1.50	2.78
12/02/2020 18:54:34	120220	12022020	185434	81.91	12.418765	-56.733540	81.97	-0.360	2.110	0.590	81.94	0.60	1.10	 	 	 	 	 	 	 	 	 	 	 	 	 	 	 	 	 	 	1581533674	1.61	2.98
12/02/2020 18:54:35	120220	12022020	185435	82.17	12.418767	-56.733543	82.26	-0.800	2.200	-0.120	82.24	0.90	0.40	 	 	 	 	 	 	 	 	 	 	 	 	 	 	 	 	 	 	1581533675	0.82	1.52
12/02/2020 18:54:36	120220	12022020	185436	82.49	12.418768	-56.733542	82.52	-0.920	1.110	-0.490	82.52	-0.10	-0.00	 	 	 	 	 	 	 	 	 	 	 	 	 	 	 	 	 	 	1581533676	0.44	0.81
12/02/2020 18:54:37	120220	12022020	185437	82.52	12.418767	-56.733537	82.45	-0.650	-0.360	-0.280	82.47	-1.50	0.10	 	 	 	 	 	 	 	 	 	 	 	 	 	 	 	 	 	 	1581533677	1.03	1.91
12/02/2020 18:54:38	120220	12022020	185438	82.19	12.418763	-56.733532	82.06	-0.010	-1.530	0.160	82.11	-2.80	0.50	 	 	 	 	 	 	 	 	 	 	 	 	 	 	 	 	 	 	1581533678	1.15	2.13
12/02/2020 18:54:39	120220	12022020	185439	81.80	12.418762	-56.733530	81.72	0.720	-1.910	0.530	81.75	-3.30	0.90	 	 	 	 	 	 	 	 	 	 	 	 	 	 	 	 	 	 	1581533679	0.63	1.17
12/02/2020 18:54:40	120220	12022020	185440	81.64	12.418763	-56.733530	81.63	1.040	-1.340	0.750	81.63	-2.80	1.10	 	 	 	 	 	 	 	 	 	 	 	 	 	 	 	 	 	 	1581533680	0.27	0.50
12/02/2020 18:54:41	120220	12022020	185441	81.66	12.418765	-56.733533	81.68	0.690	-0.190	0.930	81.67	-1.70	1.30	 	 	 	 	 	 	 	 	 	 	 	 	 	 	 	 	 	 	1581533681	0.97	1.80
12/02/2020 18:54:42	120220	12022020	185442	81.69	12.418765	-56.733538	81.72	-0.080	0.790	1.170	81.71	-0.70	1.60	 	 	 	 	 	 	 	 	 	 	 	 	 	 	 	 	 	 	1581533682	1.06	1.96
12/02/2020 18:54:43	120220	12022020	185443	81.77	12.418765	-56.733542	81.90	-0.760	1.000	1.270	81.80	-0.30	1.70	 	 	 	 	 	 	 	 	 	 	 	 	 	 	 	 	 	 	1581533683	0.60	1.11
12/02/2020 18:54:44	120220	12022020	185444	82.15	12.418763	-56.733540	82.28	-0.890	0.420	1.270	82.22	-0.80	1.70	 	 	 	 	 	 	 	 	 	 	 	 	 	 	 	 	 	 	1581533684	0.44	0.81
12/02/2020 18:54:45	120220	12022020	185445	82.50	12.418760	-56.733537	82.60	-0.430	-0.480	1.550	82.55	-1.70	1.90	 	 	 	 	 	 	 	 	 	 	 	 	 	 	 	 	 	 	1581533685	1.08	2.00
12/02/2020 18:54:46	120220	12022020	185446	82.59	12.418755	-56.733532	82.62	0.220	-1.030	2.040	82.56	-2.40	2.40	 	 	 	 	 	 	 	 	 	 	 	 	 	 	 	 	 	 	1581533686	1.44	2.67
12/02/2020 18:54:47	120220	12022020	185447	82.34	12.418750	-56.733530	82.31	0.590	-0.930	2.300	82.27	-2.30	2.70	 	 	 	 	 	 	 	 	 	 	 	 	 	 	 	 	 	 	1581533687	1.07	1.98
12/02/2020 18:54:48	120220	12022020	185448	81.94	12.418748	-56.733532	81.90	0.530	-0.360	2.110	81.87	-1.80	2.60	 	 	 	 	 	 	 	 	 	 	 	 	 	 	 	 	 	 	1581533688	0.30	0.56
12/02/2020 18:54:49	120220	12022020	185449	81.62	12.418752	-56.733533	81.62	0.280	0.200	1.560	81.57	-1.20	2.10	 	 	 	 	 	 	 	 	 	 	 	 	 	 	 	 	 	 	1581533689	0.83	1.54
12/02/2020 18:54:50	120220	12022020	185450	81.45	12.418758	-56.733535	81.48	0.080	0.420	0.720	81.44	-1.00	1.30	 	 	 	 	 	 	 	 	 	 	 	 	 	 	 	 	 	 	1581533690	1.41	2.61
12/02/2020 18:54:51	120220	12022020	185451	81.45	12.418767	-56.733537	81.48	-0.060	0.280	-0.240	81.46	-1.10	0.30	 	 	 	 	 	 	 	 	 	 	 	 	 	 	 	 	 	 	1581533691	1.77	3.28
12/02/2020 18:54:52	120220	12022020	185452	81.60	12.418773	-56.733537	81.66	-0.180	-0.080	-1.070	81.65	-1.40	-0.50	 	 	 	 	 	 	 	 	 	 	 	 	 	 	 	 	 	 	1581533692	1.55	2.87
12/02/2020 18:54:53	120220	12022020	185453	81.87	12.418777	-56.733535	81.90	-0.230	-0.590	-1.410	81.91	-1.90	-1.00	 	 	 	 	 	 	 	 	 	 	 	 	 	 	 	 	 	 	1581533693	0.87	1.61
12/02/2020 18:54:54	120220	12022020	185454	82.01	12.418777	-56.733532	81.96	-0.080	-0.890	-1.020	82.01	-2.20	-0.70	 	 	 	 	 	 	 	 	 	 	 	 	 	 	 	 	 	 	1581533694	0.63	1.17
12/02/2020 18:54:55	120220	12022020	185455	81.95	12.418772	-56.733530	81.90	0.170	-0.560	-0.100	81.93	-2.00	0.20	 	 	 	 	 	 	 	 	 	 	 	 	 	 	 	 	 	 	1581533695	1.07	1.98
12/02/2020 18:54:56	120220	12022020	185456	81.91	12.418765	-56.733530	81.93	0.300	-0.020	0.930	81.91	-1.40	1.20	 	 	 	 	 	 	 	 	 	 	 	 	 	 	 	 	 	 	1581533696	1.41	2.61
12/02/2020 18:54:57	120220	12022020	185457	81.96	12.418758	-56.733530	82.00	0.230	0.100	1.850	81.96	-1.20	2.10	 	 	 	 	 	 	 	 	 	 	 	 	 	 	 	 	 	 	1581533697	1.34	2.48
12/02/2020 18:54:58	120220	12022020	185458	81.94	12.418753	-56.733527	81.97	0.060	-0.150	2.580	81.91	-1.50	2.90	 	 	 	 	 	 	 	 	 	 	 	 	 	 	 	 	 	 	1581533698	1.25	2.31
12/02/2020 18:54:59	120220	12022020	185459	81.76	12.418750	-56.733523	81.76	-0.110	-0.170	3.010	81.71	-1.60	3.40	 	 	 	 	 	 	 	 	 	 	 	 	 	 	 	 	 	 	1581533699	1.04	1.93
12/02/2020 18:55:00	120220	12022020	185500	81.40	12.418748	-56.733523	81.33	-0.280	0.260	2.960	81.30	-1.20	3.40	 	 	 	 	 	 	 	 	 	 	 	 	 	 	 	 	 	 	1581533700	0.26	0.48
12/02/2020 18:55:01	120220	12022020	185501	80.90	12.418752	-56.733527	80.83	-0.400	0.630	2.350	80.80	-0.80	2.90	 	 	 	 	 	 	 	 	 	 	 	 	 	 	 	 	 	 	1581533701	0.91	1.69
12/02/2020 18:55:02	120220	12022020	185502	80.66	12.418760	-56.733528	80.74	-0.430	0.330	1.090	80.70	-1.00	1.70	1014.60	26.30	26.30	19.60	19.70	289.0	66.0	67.0	437.0	27.0	347.00	12.40	68.00	12.00	24632	12435.0	27.4	27.4	1581533702	1.81	3.35
12/02/2020 18:55:03	120220	12022020	185503	81.14	12.418772	-56.733528	81.36	-0.230	-0.650	-0.560	81.31	-1.90	0.10	 	 	 	 	 	 	 	 	 	 	 	 	 	 	 	 	 	 	1581533703	2.29	4.24
12/02/2020 18:55:04	120220	12022020	185504	81.99	12.418778	-56.733523	82.11	0.260	-1.670	-1.740	82.12	-2.90	-1.20	 	 	 	 	 	 	 	 	 	 	 	 	 	 	 	 	 	 	1581533704	1.87	3.46
12/02/2020 18:55:05	120220	12022020	185505	82.33	12.418780	-56.733518	82.22	0.820	-1.930	-1.870	82.34	-3.30	-1.50	 	 	 	 	 	 	 	 	 	 	 	 	 	 	 	 	 	 	1581533705	1.07	1.98
12/02/2020 18:55:06	120220	12022020	185506	81.99	12.418775	-56.733517	81.74	0.970	-1.040	-1.070	81.87	-2.60	-0.80	 	 	 	 	 	 	 	 	 	 	 	 	 	 	 	 	 	 	1581533706	1.00	1.85
12/02/2020 18:55:07	120220	12022020	185507	81.37	12.418768	-56.733520	81.17	0.480	0.450	0.160	81.24	-1.10	0.40	 	 	 	 	 	 	 	 	 	 	 	 	 	 	 	 	 	 	1581533707	1.52	2.82
12/02/2020 18:55:08	120220	12022020	185508	80.91	12.418763	-56.733523	80.85	-0.320	1.540	1.260	80.87	0.10	1.50	 	 	 	 	 	 	 	 	 	 	 	 	 	 	 	 	 	 	1581533708	1.36	2.52
12/02/2020 18:55:09	120220	12022020	185509	80.79	12.418762	-56.733525	80.84	-0.930	1.770	1.900	80.81	0.40	2.30	 	 	 	 	 	 	 	 	 	 	 	 	 	 	 	 	 	 	1581533709	0.58	1.07
12/02/2020 18:55:10	120220	12022020	185510	80.96	12.418762	-56.733525	81.07	-1.090	1.250	2.000	81.02	-0.00	2.40	 	 	 	 	 	 	 	 	 	 	 	 	 	 	 	 	 	 	1581533710	0.05	0.09
12/02/2020 18:55:11	120220	12022020	185511	81.24	12.418762	-56.733523	81.33	-0.880	0.180	1.830	81.28	-1.00	2.30	 	 	 	 	 	 	 	 	 	 	 	 	 	 	 	 	 	 	1581533711	0.37	0.69
12/02/2020 18:55:12	120220	12022020	185512	81.41	12.418762	-56.733520	81.47	-0.440	-1.140	1.770	81.43	-2.30	2.20	 	 	 	 	 	 	 	 	 	 	 	 	 	 	 	 	 	 	1581533712	0.66	1.22
12/02/2020 18:55:13	120220	12022020	185513	81.44	12.418762	-56.733515	81.49	0.150	-2.220	1.770	81.44	-3.50	2.20	 	 	 	 	 	 	 	 	 	 	 	 	 	 	 	 	 	 	1581533713	0.89	1.65
12/02/2020 18:55:14	120220	12022020	185514	81.44	12.418762	-56.733512	81.50	0.820	-2.560	1.570	81.44	-3.90	2.00	 	 	 	 	 	 	 	 	 	 	 	 	 	 	 	 	 	 	1581533714	0.78	1.44
12/02/2020 18:55:15	120220	12022020	185515	81.44	12.418763	-56.733510	81.46	1.330	-1.850	1.290	81.43	-3.40	1.70	 	 	 	 	 	 	 	 	 	 	 	 	 	 	 	 	 	 	1581533715	0.47	0.87
12/02/2020 18:55:16	120220	12022020	185516	81.35	12.418765	-56.733512	81.34	1.210	-0.190	1.110	81.32	-1.80	1.50	 	 	 	 	 	 	 	 	 	 	 	 	 	 	 	 	 	 	1581533716	0.44	0.81
12/02/2020 18:55:17	120220	12022020	185517	81.20	12.418763	-56.733517	81.09	0.370	1.560	1.000	81.15	-0.00	1.40	 	 	 	 	 	 	 	 	 	 	 	 	 	 	 	 	 	 	1581533717	1.10	2.04
12/02/2020 18:55:18	120220	12022020	185518	80.82	12.418765	-56.733522	80.72	-0.700	2.430	0.760	80.74	1.00	1.20	 	 	 	 	 	 	 	 	 	 	 	 	 	 	 	 	 	 	1581533718	1.07	1.98
12/02/2020 18:55:19	120220	12022020	185519	80.47	12.418768	-56.733525	80.40	-1.260	2.000	0.220	80.41	0.80	0.70	 	 	 	 	 	 	 	 	 	 	 	 	 	 	 	 	 	 	1581533719	0.83	1.54
12/02/2020 18:55:20	120220	12022020	185520	80.34	12.418773	-56.733522	80.37	-1.030	0.480	-0.550	80.37	-0.60	0.00	 	 	 	 	 	 	 	 	 	 	 	 	 	 	 	 	 	 	1581533720	1.29	2.39
12/02/2020 18:55:21	120220	12022020	185521	80.54	12.418778	-56.733518	80.58	-0.430	-1.190	-1.200	80.59	-2.40	-0.70	 	 	 	 	 	 	 	 	 	 	 	 	 	 	 	 	 	 	1581533721	1.57	2.91
12/02/2020 18:55:22	120220	12022020	185522	80.72	12.418782	-56.733515	80.69	0.030	-2.120	-1.310	80.72	-3.40	-0.90	 	 	 	 	 	 	 	 	 	 	 	 	 	 	 	 	 	 	1581533722	0.97	1.80
12/02/2020 18:55:23	120220	12022020	185523	80.67	12.418782	-56.733513	80.59	0.260	-2.110	-0.850	80.64	-3.50	-0.50	 	 	 	 	 	 	 	 	 	 	 	 	 	 	 	 	 	 	1581533723	0.13	0.24
12/02/2020 18:55:24	120220	12022020	185524	80.48	12.418778	-56.733515	80.37	0.420	-1.360	0.090	80.41	-2.90	0.40	 	 	 	 	 	 	 	 	 	 	 	 	 	 	 	 	 	 	1581533724	0.87	1.61
12/02/2020 18:55:25	120220	12022020	185525	80.13	12.418772	-56.733517	80.04	0.530	-0.180	1.230	80.05	-1.70	1.50	 	 	 	 	 	 	 	 	 	 	 	 	 	 	 	 	 	 	1581533725	1.55	2.87
12/02/2020 18:55:26	120220	12022020	185526	79.79	12.418763	-56.733520	79.77	0.470	0.760	2.150	79.74	-0.70	2.50	 	 	 	 	 	 	 	 	 	 	 	 	 	 	 	 	 	 	1581533726	1.50	2.78
12/02/2020 18:55:27	120220	12022020	185527	79.65	12.418760	-56.733520	79.68	0.200	0.950	2.630	79.64	-0.40	3.00	 	 	 	 	 	 	 	 	 	 	 	 	 	 	 	 	 	 	1581533727	0.81	1.50
12/02/2020 18:55:28	120220	12022020	185528	79.61	12.418760	-56.733517	79.65	-0.190	0.480	2.650	79.61	-0.80	3.10	 	 	 	 	 	 	 	 	 	 	 	 	 	 	 	 	 	 	1581533728	0.44	0.81
12/02/2020 18:55:29	120220	12022020	185529	79.65	12.418763	-56.733515	79.71	-0.480	-0.090	2.070	79.68	-1.40	2.60	 	 	 	 	 	 	 	 	 	 	 	 	 	 	 	 	 	 	1581533729	0.84	1.56
12/02/2020 18:55:30	120220	12022020	185530	79.84	12.418770	-56.733515	79.87	-0.480	-0.170	1.040	79.88	-1.60	1.60	 	 	 	 	 	 	 	 	 	 	 	 	 	 	 	 	 	 	1581533730	1.34	2.48
12/02/2020 18:55:31	120220	12022020	185531	79.96	12.418777	-56.733518	79.92	-0.290	0.060	0.100	79.96	-1.30	0.60	 	 	 	 	 	 	 	 	 	 	 	 	 	 	 	 	 	 	1581533731	1.58	2.93
12/02/2020 18:55:32	120220	12022020	185532	79.89	12.418780	-56.733522	79.82	-0.040	-0.040	-0.330	79.86	-1.40	0.10	 	 	 	 	 	 	 	 	 	 	 	 	 	 	 	 	 	 	1581533732	0.96	1.78
12/02/2020 18:55:33	120220	12022020	185533	79.76	12.418778	-56.733522	79.70	0.160	-0.600	-0.260	79.74	-1.90	0.10	 	 	 	 	 	 	 	 	 	 	 	 	 	 	 	 	 	 	1581533733	0.17	0.31
12/02/2020 18:55:34	120220	12022020	185534	79.72	12.418777	-56.733518	79.70	0.280	-1.120	-0.070	79.72	-2.40	0.30	 	 	 	 	 	 	 	 	 	 	 	 	 	 	 	 	 	 	1581533734	0.65	1.20
12/02/2020 18:55:35	120220	12022020	185535	79.72	12.418777	-56.733517	79.69	0.360	-1.190	0.140	79.71	-2.60	0.50	 	 	 	 	 	 	 	 	 	 	 	 	 	 	 	 	 	 	1581533735	0.41	0.76
12/02/2020 18:55:36	120220	12022020	185536	79.56	12.418777	-56.733517	79.48	0.340	-0.690	0.540	79.50	-2.10	0.90	 	 	 	 	 	 	 	 	 	 	 	 	 	 	 	 	 	 	1581533736	0.06	0.11
12/02/2020 18:55:37	120220	12022020	185537	79.26	12.418775	-56.733518	79.19	0.200	0.120	0.980	79.20	-1.40	1.40	 	 	 	 	 	 	 	 	 	 	 	 	 	 	 	 	 	 	1581533737	0.48	0.89
12/02/2020 18:55:38	120220	12022020	185538	79.04	12.418775	-56.733520	79.05	0.030	0.610	1.290	79.03	-0.80	1.70	 	 	 	 	 	 	 	 	 	 	 	 	 	 	 	 	 	 	1581533738	0.52	0.96
12/02/2020 18:55:39	120220	12022020	185539	79.11	12.418773	-56.733520	79.21	-0.030	0.500	1.430	79.16	-0.80	1.80	 	 	 	 	 	 	 	 	 	 	 	 	 	 	 	 	 	 	1581533739	0.14	0.26
12/02/2020 18:55:40	120220	12022020	185540	79.39	12.418775	-56.733518	79.50	-0.050	0.110	1.400	79.44	-1.20	1.80	 	 	 	 	 	 	 	 	 	 	 	 	 	 	 	 	 	 	1581533740	0.44	0.81
12/02/2020 18:55:41	120220	12022020	185541	79.54	12.418775	-56.733517	79.54	-0.210	0.020	1.330	79.54	-1.40	1.80	 	 	 	 	 	 	 	 	 	 	 	 	 	 	 	 	 	 	1581533741	0.31	0.57
12/02/2020 18:55:42	120220	12022020	185542	79.35	12.418775	-56.733518	79.26	-0.570	0.370	1.370	79.28	-1.00	1.80	 	 	 	 	 	 	 	 	 	 	 	 	 	 	 	 	 	 	1581533742	0.47	0.87
12/02/2020 18:55:43	120220	12022020	185543	78.98	12.418773	-56.733522	78.91	-0.820	0.510	1.310	78.92	-0.80	1.80	 	 	 	 	 	 	 	 	 	 	 	 	 	 	 	 	 	 	1581533743	0.85	1.57
12/02/2020 18:55:44	120220	12022020	185544	78.75	12.418773	-56.733523	78.72	-0.570	-0.160	0.900	78.73	-1.40	1.40	 	 	 	 	 	 	 	 	 	 	 	 	 	 	 	 	 	 	1581533744	0.35	0.65
12/02/2020 18:55:45	120220	12022020	185545	78.64	12.418777	-56.733522	78.59	0.220	-1.530	0.400	78.61	-2.70	0.90	 	 	 	 	 	 	 	 	 	 	 	 	 	 	 	 	 	 	1581533745	0.98	1.81
12/02/2020 18:55:46	120220	12022020	185546	78.45	12.418782	-56.733515	78.38	1.170	-2.580	0.080	78.42	-3.80	0.60	 	 	 	 	 	 	 	 	 	 	 	 	 	 	 	 	 	 	1581533746	1.65	3.06
12/02/2020 18:55:47	120220	12022020	185547	78.43	12.418787	-56.733512	78.45	1.520	-2.020	-0.250	78.47	-3.60	0.20	 	 	 	 	 	 	 	 	 	 	 	 	 	 	 	 	 	 	1581533747	1.18	2.19
12/02/2020 18:55:48	120220	12022020	185548	78.73	12.418788	-56.733517	78.80	0.850	0.180	-0.390	78.81	-1.50	0.00	 	 	 	 	 	 	 	 	 	 	 	 	 	 	 	 	 	 	1581533748	1.08	2.00
12/02/2020 18:55:49	120220	12022020	185549	79.09	12.418787	-56.733527	79.14	-0.450	2.400	-0.290	79.14	0.80	0.10	 	 	 	 	 	 	 	 	 	 	 	 	 	 	 	 	 	 	1581533749	2.19	4.06
12/02/2020 18:55:50	120220	12022020	185550	79.23	12.418783	-56.733533	79.19	-1.490	3.020	0.120	79.22	1.70	0.50	 	 	 	 	 	 	 	 	 	 	 	 	 	 	 	 	 	 	1581533750	1.71	3.17
12/02/2020 18:55:51	120220	12022020	185551	79.01	12.418780	-56.733533	78.92	-1.570	1.620	0.740	78.94	0.50	1.10	 	 	 	 	 	 	 	 	 	 	 	 	 	 	 	 	 	 	1581533751	0.75	1.39
12/02/2020 18:55:52	120220	12022020	185552	78.64	12.418778	-56.733527	78.56	-0.730	-0.800	1.300	78.57	-1.80	1.70	 	 	 	 	 	 	 	 	 	 	 	 	 	 	 	 	 	 	1581533752	1.61	2.98
12/02/2020 18:55:53	120220	12022020	185553	78.40	12.418778	-56.733518	78.41	0.370	-2.540	1.620	78.39	-3.70	2.00	 	 	 	 	 	 	 	 	 	 	 	 	 	 	 	 	 	 	1581533753	1.67	3.09
12/02/2020 18:55:54	120220	12022020	185554	78.52	12.418778	-56.733517	78.60	0.960	-2.600	1.660	78.57	-4.00	2.10	 	 	 	 	 	 	 	 	 	 	 	 	 	 	 	 	 	 	1581533754	0.50	0.93
12/02/2020 18:55:55	120220	12022020	185555	78.74	12.418777	-56.733520	78.83	0.800	-1.490	1.560	78.78	-3.00	2.00	 	 	 	 	 	 	 	 	 	 	 	 	 	 	 	 	 	 	1581533755	0.78	1.44
12/02/2020 18:55:56	120220	12022020	185556	78.86	12.418777	-56.733525	78.84	0.260	-0.220	1.430	78.85	-1.70	1.90	 	 	 	 	 	 	 	 	 	 	 	 	 	 	 	 	 	 	1581533756	1.06	1.96
12/02/2020 18:55:57	120220	12022020	185557	78.76	12.418777	-56.733528	78.70	-0.180	0.790	1.170	78.72	-0.70	1.60	 	 	 	 	 	 	 	 	 	 	 	 	 	 	 	 	 	 	1581533757	0.77	1.43
12/02/2020 18:55:58	120220	12022020	185558	78.60	12.418777	-56.733532	78.56	-0.360	1.440	0.700	78.57	0.00	1.20	 	 	 	 	 	 	 	 	 	 	 	 	 	 	 	 	 	 	1581533758	0.63	1.17
12/02/2020 18:55:59	120220	12022020	185559	78.51	12.418780	-56.733533	78.51	-0.280	1.400	0.090	78.51	0.10	0.60	 	 	 	 	 	 	 	 	 	 	 	 	 	 	 	 	 	 	1581533759	0.80	1.48
12/02/2020 18:56:00	120220	12022020	185600	78.59	12.418785	-56.733533	78.65	-0.070	0.430	-0.510	78.63	-0.70	0.00	 	 	 	 	 	 	 	 	 	 	 	 	 	 	 	 	 	 	1581533760	1.08	2.00
12/02/2020 18:56:01	120220	12022020	185601	78.82	12.418790	-56.733530	78.88	0.120	-0.980	-0.870	78.87	-2.10	-0.40	 	 	 	 	 	 	 	 	 	 	 	 	 	 	 	 	 	 	1581533761	1.36	2.52
12/02/2020 18:56:02	120220	12022020	185602	78.92	12.418793	-56.733525	78.86	0.240	-1.870	-0.740	78.89	-3.10	-0.40	1014.50	26.30	26.30	19.40	19.60	296.0	65.0	66.0	437.0	27.0	348.00	12.50	67.00	12.00	24784	11816.0	27.4	27.4	1581533762	1.10	2.04
12/02/2020 18:56:03	120220	12022020	185603	78.67	12.418792	-56.733523	78.58	0.260	-1.580	-0.010	78.60	-3.00	0.30	 	 	 	 	 	 	 	 	 	 	 	 	 	 	 	 	 	 	1581533763	0.53	0.98
12/02/2020 18:56:04	120220	12022020	185604	78.37	12.418785	-56.733527	78.33	0.080	-0.350	0.950	78.33	-1.90	1.20	 	 	 	 	 	 	 	 	 	 	 	 	 	 	 	 	 	 	1581533764	1.38	2.56
12/02/2020 18:56:05	120220	12022020	185605	78.26	12.418778	-56.733532	78.33	-0.340	1.010	1.880	78.28	-0.50	2.20	 	 	 	 	 	 	 	 	 	 	 	 	 	 	 	 	 	 	1581533765	1.92	3.56
12/02/2020 18:56:06	120220	12022020	185606	78.45	12.418772	-56.733535	78.60	-0.670	1.470	2.410	78.51	0.10	2.80	 	 	 	 	 	 	 	 	 	 	 	 	 	 	 	 	 	 	1581533766	1.62	3.00
12/02/2020 18:56:07	120220	12022020	185607	78.77	12.418770	-56.733535	78.89	-0.480	0.520	2.290	78.82	-0.60	2.80	 	 	 	 	 	 	 	 	 	 	 	 	 	 	 	 	 	 	1581533767	0.47	0.87
12/02/2020 18:56:08	120220	12022020	185608	78.89	12.418772	-56.733530	78.92	0.260	-1.080	1.800	78.88	-2.20	2.30	 	 	 	 	 	 	 	 	 	 	 	 	 	 	 	 	 	 	1581533768	1.29	2.39
12/02/2020 18:56:09	120220	12022020	185609	78.79	12.418778	-56.733523	78.77	0.980	-1.930	1.350	78.77	-3.20	1.80	 	 	 	 	 	 	 	 	 	 	 	 	 	 	 	 	 	 	1581533769	1.64	3.04
12/02/2020 18:56:10	120220	12022020	185610	78.77	12.418782	-56.733523	78.79	1.050	-1.340	1.090	78.79	-2.80	1.50	 	 	 	 	 	 	 	 	 	 	 	 	 	 	 	 	 	 	1581533770	1.00	1.85
12/02/2020 18:56:11	120220	12022020	185611	78.94	12.418783	-56.733528	78.99	0.400	0.050	1.040	78.99	-1.50	1.50	 	 	 	 	 	 	 	 	 	 	 	 	 	 	 	 	 	 	1581533771	1.14	2.11
12/02/2020 18:56:12	120220	12022020	185612	79.12	12.418782	-56.733535	79.13	-0.420	1.040	1.080	79.14	-0.40	1.50	 	 	 	 	 	 	 	 	 	 	 	 	 	 	 	 	 	 	1581533772	1.27	2.35
12/02/2020 18:56:13	120220	12022020	185613	79.11	12.418782	-56.733537	79.08	-0.760	1.060	1.150	79.09	-0.20	1.60	 	 	 	 	 	 	 	 	 	 	 	 	 	 	 	 	 	 	1581533773	0.57	1.06
12/02/2020 18:56:14	120220	12022020	185614	79.05	12.418780	-56.733535	79.06	-0.460	0.290	1.090	79.05	-0.90	1.50	 	 	 	 	 	 	 	 	 	 	 	 	 	 	 	 	 	 	1581533774	0.46	0.85
12/02/2020 18:56:15	120220	12022020	185615	79.17	12.418780	-56.733532	79.22	0.010	-0.490	0.850	79.21	-1.80	1.30	 	 	 	 	 	 	 	 	 	 	 	 	 	 	 	 	 	 	1581533775	0.79	1.46
12/02/2020 18:56:16	120220	12022020	185616	79.39	12.418780	-56.733530	79.44	0.150	-0.700	0.520	79.43	-2.00	1.00	 	 	 	 	 	 	 	 	 	 	 	 	 	 	 	 	 	 	1581533776	0.28	0.52
12/02/2020 18:56:17	120220	12022020	185617	79.54	12.418782	-56.733532	79.53	-0.050	-0.440	0.200	79.55	-1.80	0.70	 	 	 	 	 	 	 	 	 	 	 	 	 	 	 	 	 	 	1581533777	0.54	1.00
12/02/2020 18:56:18	120220	12022020	185618	79.49	12.418783	-56.733535	79.43	-0.200	-0.270	0.140	79.46	-1.60	0.60	 	 	 	 	 	 	 	 	 	 	 	 	 	 	 	 	 	 	1581533778	0.70	1.30
12/02/2020 18:56:19	120220	12022020	185619	79.33	12.418785	-56.733537	79.19	-0.070	-0.390	0.270	79.28	-1.70	0.70	 	 	 	 	 	 	 	 	 	 	 	 	 	 	 	 	 	 	1581533779	0.24	0.44
12/02/2020 18:56:20	120220	12022020	185620	78.98	12.418785	-56.733535	78.90	0.300	-0.670	0.460	78.93	-2.00	0.90	 	 	 	 	 	 	 	 	 	 	 	 	 	 	 	 	 	 	1581533780	0.31	0.57
12/02/2020 18:56:21	120220	12022020	185621	78.79	12.418785	-56.733532	78.77	0.650	-0.770	0.550	78.78	-2.10	1.00	 	 	 	 	 	 	 	 	 	 	 	 	 	 	 	 	 	 	1581533781	0.48	0.89
12/02/2020 18:56:22	120220	12022020	185622	78.89	12.418787	-56.733532	78.94	0.660	-0.330	0.450	78.94	-1.80	0.90	 	 	 	 	 	 	 	 	 	 	 	 	 	 	 	 	 	 	1581533782	0.31	0.57
12/02/2020 18:56:23	120220	12022020	185623	79.22	12.418788	-56.733535	79.31	0.170	0.480	0.310	79.29	-1.00	0.80	 	 	 	 	 	 	 	 	 	 	 	 	 	 	 	 	 	 	1581533783	0.68	1.26
12/02/2020 18:56:24	120220	12022020	185624	79.56	12.418788	-56.733538	79.62	-0.530	0.930	0.370	79.61	-0.40	0.80	 	 	 	 	 	 	 	 	 	 	 	 	 	 	 	 	 	 	1581533784	0.72	1.33
12/02/2020 18:56:25	120220	12022020	185625	79.67	12.418785	-56.733538	79.67	-0.960	0.700	0.690	79.66	-0.60	1.10	 	 	 	 	 	 	 	 	 	 	 	 	 	 	 	 	 	 	1581533785	0.58	1.07
12/02/2020 18:56:26	120220	12022020	185626	79.51	12.418782	-56.733537	79.47	-0.810	-0.030	1.060	79.46	-1.30	1.40	 	 	 	 	 	 	 	 	 	 	 	 	 	 	 	 	 	 	1581533786	0.81	1.50
12/02/2020 18:56:27	120220	12022020	185627	79.26	12.418780	-56.733533	79.22	-0.160	-0.820	1.320	79.22	-2.10	1.70	 	 	 	 	 	 	 	 	 	 	 	 	 	 	 	 	 	 	1581533787	0.86	1.59
12/02/2020 18:56:28	120220	12022020	185628	79.04	12.418778	-56.733530	79.01	0.500	-1.190	1.470	79.00	-2.50	1.90	 	 	 	 	 	 	 	 	 	 	 	 	 	 	 	 	 	 	1581533788	0.64	1.19
12/02/2020 18:56:29	120220	12022020	185629	78.88	12.418778	-56.733530	78.88	0.740	-0.970	1.470	78.88	-2.40	1.90	 	 	 	 	 	 	 	 	 	 	 	 	 	 	 	 	 	 	1581533789	0.17	0.31
12/02/2020 18:56:30	120220	12022020	185630	78.94	12.418778	-56.733532	78.98	0.490	-0.410	1.150	78.97	-1.80	1.70	 	 	 	 	 	 	 	 	 	 	 	 	 	 	 	 	 	 	1581533790	0.35	0.65
12/02/2020 18:56:31	120220	12022020	185631	79.11	12.418782	-56.733533	79.11	0.000	0.070	0.460	79.13	-1.30	1.00	 	 	 	 	 	 	 	 	 	 	 	 	 	 	 	 	 	 	1581533791	0.89	1.65
12/02/2020 18:56:32	120220	12022020	185632	79.12	12.418788	-56.733535	79.05	-0.350	0.220	-0.310	79.09	-1.10	0.20	 	 	 	 	 	 	 	 	 	 	 	 	 	 	 	 	 	 	1581533792	1.33	2.46
12/02/2020 18:56:33	120220	12022020	185633	78.99	12.418793	-56.733535	78.88	-0.340	0.180	-0.650	78.96	-1.20	-0.20	 	 	 	 	 	 	 	 	 	 	 	 	 	 	 	 	 	 	1581533793	1.10	2.04
12/02/2020 18:56:34	120220	12022020	185634	78.89	12.418793	-56.733535	78.87	-0.040	0.040	-0.430	78.90	-1.30	-0.00	 	 	 	 	 	 	 	 	 	 	 	 	 	 	 	 	 	 	1581533794	0.29	0.54
12/02/2020 18:56:35	120220	12022020	185635	78.93	12.418792	-56.733533	78.92	0.300	-0.230	0.130	78.93	-1.50	0.50	 	 	 	 	 	 	 	 	 	 	 	 	 	 	 	 	 	 	1581533795	0.72	1.33
12/02/2020 18:56:36	120220	12022020	185636	78.86	12.418788	-56.733530	78.84	0.380	-0.440	0.670	78.84	-1.80	1.00	 	 	 	 	 	 	 	 	 	 	 	 	 	 	 	 	 	 	1581533796	0.95	1.76
12/02/2020 18:56:37	120220	12022020	185637	78.82	12.418785	-56.733528	78.84	0.090	-0.310	0.920	78.83	-1.70	1.30	 	 	 	 	 	 	 	 	 	 	 	 	 	 	 	 	 	 	1581533797	0.52	0.96
12/02/2020 18:56:38	120220	12022020	185638	78.98	12.418785	-56.733530	79.05	-0.340	-0.020	0.990	79.03	-1.40	1.40	 	 	 	 	 	 	 	 	 	 	 	 	 	 	 	 	 	 	1581533798	0.25	0.46
12/02/2020 18:56:39	120220	12022020	185639	79.22	12.418783	-56.733530	79.29	-0.530	0.100	1.200	79.26	-1.20	1.60	 	 	 	 	 	 	 	 	 	 	 	 	 	 	 	 	 	 	1581533799	0.26	0.48
12/02/2020 18:56:40	120220	12022020	185640	79.29	12.418782	-56.733530	79.28	-0.410	-0.000	1.610	79.26	-1.30	2.00	 	 	 	 	 	 	 	 	 	 	 	 	 	 	 	 	 	 	1581533800	0.50	0.93
12/02/2020 18:56:41	120220	12022020	185641	79.07	12.418780	-56.733528	79.02	-0.190	-0.170	1.770	79.01	-1.50	2.20	 	 	 	 	 	 	 	 	 	 	 	 	 	 	 	 	 	 	1581533801	0.51	0.94
12/02/2020 18:56:42	120220	12022020	185642	78.80	12.418782	-56.733528	78.77	-0.000	-0.260	1.410	78.76	-1.60	1.90	 	 	 	 	 	 	 	 	 	 	 	 	 	 	 	 	 	 	1581533802	0.23	0.43
12/02/2020 18:56:43	120220	12022020	185643	78.64	12.418785	-56.733528	78.61	0.220	-0.370	0.880	78.61	-1.70	1.40	 	 	 	 	 	 	 	 	 	 	 	 	 	 	 	 	 	 	1581533803	0.76	1.41
12/02/2020 18:56:44	120220	12022020	185644	78.57	12.418788	-56.733528	78.56	0.500	-0.770	0.540	78.56	-2.00	1.00	 	 	 	 	 	 	 	 	 	 	 	 	 	 	 	 	 	 	1581533804	0.84	1.56
12/02/2020 18:56:45	120220	12022020	185645	78.56	12.418792	-56.733523	78.55	0.710	-1.260	0.230	78.57	-2.60	0.70	 	 	 	 	 	 	 	 	 	 	 	 	 	 	 	 	 	 	1581533805	1.08	2.00
12/02/2020 18:56:46	120220	12022020	185646	78.66	12.418795	-56.733522	78.68	0.590	-0.940	-0.220	78.70	-2.40	0.30	 	 	 	 	 	 	 	 	 	 	 	 	 	 	 	 	 	 	1581533806	1.00	1.85
12/02/2020 18:56:47	120220	12022020	185647	78.88	12.418797	-56.733523	78.93	0.010	0.450	-0.430	78.93	-1.10	0.00	 	 	 	 	 	 	 	 	 	 	 	 	 	 	 	 	 	 	1581533807	0.70	1.30
12/02/2020 18:56:48	120220	12022020	185648	79.13	12.418797	-56.733530	79.18	-0.790	1.830	-0.170	79.16	0.30	0.20	 	 	 	 	 	 	 	 	 	 	 	 	 	 	 	 	 	 	1581533808	1.46	2.70
12/02/2020 18:56:49	120220	12022020	185649	79.26	12.418792	-56.733535	79.28	-1.200	1.860	0.380	79.27	0.60	0.70	 	 	 	 	 	 	 	 	 	 	 	 	 	 	 	 	 	 	1581533809	1.21	2.24
12/02/2020 18:56:50	120220	12022020	185650	79.26	12.418788	-56.733532	79.27	-0.790	0.270	0.910	79.25	-0.80	1.30	 	 	 	 	 	 	 	 	 	 	 	 	 	 	 	 	 	 	1581533810	1.12	2.07
12/02/2020 18:56:51	120220	12022020	185651	79.12	12.418785	-56.733523	79.06	0.180	-1.800	1.470	79.06	-2.90	1.80	 	 	 	 	 	 	 	 	 	 	 	 	 	 	 	 	 	 	1581533811	2.05	3.80
12/02/2020 18:56:52	120220	12022020	185652	78.73	12.418783	-56.733515	78.64	0.840	-2.660	2.040	78.65	-4.00	2.40	 	 	 	 	 	 	 	 	 	 	 	 	 	 	 	 	 	 	1581533812	1.75	3.24
12/02/2020 18:56:53	120220	12022020	185653	78.46	12.418783	-56.733515	78.45	0.750	-1.680	2.170	78.45	-3.20	2.60	 	 	 	 	 	 	 	 	 	 	 	 	 	 	 	 	 	 	1581533813	0.04	0.07
12/02/2020 18:56:54	120220	12022020	185654	78.59	12.418785	-56.733522	78.68	0.270	0.050	1.660	78.66	-1.50	2.20	 	 	 	 	 	 	 	 	 	 	 	 	 	 	 	 	 	 	1581533814	1.47	2.72
12/02/2020 18:56:55	120220	12022020	185655	78.99	12.418788	-56.733528	79.07	-0.110	1.160	0.750	79.06	-0.30	1.30	 	 	 	 	 	 	 	 	 	 	 	 	 	 	 	 	 	 	1581533815	1.56	2.89
12/02/2020 18:56:56	120220	12022020	185656	79.23	12.418792	-56.733530	79.22	-0.240	1.210	0.070	79.24	-0.10	0.60	 	 	 	 	 	 	 	 	 	 	 	 	 	 	 	 	 	 	1581533816	0.85	1.57
12/02/2020 18:56:57	120220	12022020	185657	79.19	12.418793	-56.733528	79.14	-0.260	0.640	-0.210	79.17	-0.60	0.30	 	 	 	 	 	 	 	 	 	 	 	 	 	 	 	 	 	 	1581533817	0.66	1.22
12/02/2020 18:56:58	120220	12022020	185658	79.09	12.418795	-56.733527	79.11	-0.300	0.010	-0.330	79.09	-1.30	0.10	 	 	 	 	 	 	 	 	 	 	 	 	 	 	 	 	 	 	1581533818	0.56	1.04
12/02/2020 18:56:59	120220	12022020	185659	79.15	12.418795	-56.733525	79.24	-0.300	-0.510	-0.410	79.18	-1.80	0.00	 	 	 	 	 	 	 	 	 	 	 	 	 	 	 	 	 	 	1581533819	0.25	0.46
12/02/2020 18:57:00	120220	12022020	185700	79.33	12.418795	-56.733523	79.36	-0.140	-1.000	-0.220	79.34	-2.30	0.20	 	 	 	 	 	 	 	 	 	 	 	 	 	 	 	 	 	 	1581533820	0.29	0.54
12/02/2020 18:57:01	120220	12022020	185701	79.28	12.418793	-56.733522	79.23	0.130	-1.210	0.360	79.24	-2.60	0.70	 	 	 	 	 	 	 	 	 	 	 	 	 	 	 	 	 	 	1581533821	0.72	1.33
12/02/2020 18:57:02	120220	12022020	185702	79.01	12.418788	-56.733520	78.94	0.350	-0.930	1.080	78.95	-2.30	1.40	1014.50	26.40	26.40	19.40	19.60	290.0	65.0	66.0	437.0	27.0	348.00	12.00	66.00	11.60	24064	11233.0	27.4	27.4	1581533822	0.82	1.52
12/02/2020 18:57:03	120220	12022020	185703	78.70	12.418787	-56.733522	78.64	0.400	-0.350	1.530	78.65	-1.80	1.90	 	 	 	 	 	 	 	 	 	 	 	 	 	 	 	 	 	 	1581533823	0.51	0.94
12/02/2020 18:57:04	120220	12022020	185704	78.59	12.418787	-56.733522	78.66	0.300	0.220	1.550	78.61	-1.20	2.00	 	 	 	 	 	 	 	 	 	 	 	 	 	 	 	 	 	 	1581533824	0.31	0.57
12/02/2020 18:57:05	120220	12022020	185705	78.89	12.418788	-56.733523	79.07	0.110	0.620	1.270	79.00	-0.80	1.70	 	 	 	 	 	 	 	 	 	 	 	 	 	 	 	 	 	 	1581533825	0.46	0.85
12/02/2020 18:57:06	120220	12022020	185706	79.42	12.418790	-56.733525	79.58	-0.100	0.800	0.880	79.51	-0.60	1.40	 	 	 	 	 	 	 	 	 	 	 	 	 	 	 	 	 	 	1581533826	0.34	0.63
12/02/2020 18:57:07	120220	12022020	185707	79.75	12.418788	-56.733527	79.82	-0.250	0.520	0.560	79.78	-0.80	1.00	 	 	 	 	 	 	 	 	 	 	 	 	 	 	 	 	 	 	1581533827	0.14	0.26
12/02/2020 18:57:08	120220	12022020	185708	79.73	12.418788	-56.733525	79.68	-0.250	-0.300	0.530	79.68	-1.50	0.90	 	 	 	 	 	 	 	 	 	 	 	 	 	 	 	 	 	 	1581533828	0.34	0.63
12/02/2020 18:57:09	120220	12022020	185709	79.38	12.418788	-56.733520	79.27	-0.100	-1.250	0.840	79.28	-2.50	1.20	 	 	 	 	 	 	 	 	 	 	 	 	 	 	 	 	 	 	1581533829	0.87	1.61
12/02/2020 18:57:10	120220	12022020	185710	78.89	12.418788	-56.733517	78.78	0.070	-1.530	1.130	78.80	-2.90	1.50	 	 	 	 	 	 	 	 	 	 	 	 	 	 	 	 	 	 	1581533830	0.73	1.35
12/02/2020 18:57:11	120220	12022020	185711	78.60	12.418790	-56.733517	78.57	0.130	-0.930	1.050	78.57	-2.40	1.50	 	 	 	 	 	 	 	 	 	 	 	 	 	 	 	 	 	 	1581533831	0.27	0.50
12/02/2020 18:57:12	120220	12022020	185712	78.72	12.418792	-56.733520	78.84	0.060	-0.010	0.530	78.81	-1.50	1.10	 	 	 	 	 	 	 	 	 	 	 	 	 	 	 	 	 	 	1581533832	0.75	1.39
12/02/2020 18:57:13	120220	12022020	185713	79.07	12.418793	-56.733523	79.25	-0.110	0.690	0.040	79.15	-0.80	0.50	 	 	 	 	 	 	 	 	 	 	 	 	 	 	 	 	 	 	1581533833	0.67	1.24
12/02/2020 18:57:14	120220	12022020	185714	79.46	12.418793	-56.733525	79.53	-0.310	1.070	-0.110	79.50	-0.30	0.30	 	 	 	 	 	 	 	 	 	 	 	 	 	 	 	 	 	 	1581533834	0.37	0.69
12/02/2020 18:57:15	120220	12022020	185715	79.68	12.418792	-56.733527	79.76	-0.440	1.000	-0.060	79.72	-0.30	0.40	 	 	 	 	 	 	 	 	 	 	 	 	 	 	 	 	 	 	1581533835	0.40	0.74
12/02/2020 18:57:16	120220	12022020	185716	79.83	12.418792	-56.733525	79.87	-0.300	0.160	0.040	79.84	-1.00	0.40	 	 	 	 	 	 	 	 	 	 	 	 	 	 	 	 	 	 	1581533836	0.24	0.44
12/02/2020 18:57:17	120220	12022020	185717	79.78	12.418790	-56.733522	79.74	0.150	-1.290	0.280	79.73	-2.40	0.60	 	 	 	 	 	 	 	 	 	 	 	 	 	 	 	 	 	 	1581533837	0.96	1.78
12/02/2020 18:57:18	120220	12022020	185718	79.43	12.418790	-56.733513	79.33	0.670	-2.330	0.940	79.33	-3.60	1.20	 	 	 	 	 	 	 	 	 	 	 	 	 	 	 	 	 	 	1581533838	1.47	2.72
12/02/2020 18:57:19	120220	12022020	185719	78.95	12.418788	-56.733510	78.90	0.900	-1.960	1.780	78.87	-3.40	2.10	 	 	 	 	 	 	 	 	 	 	 	 	 	 	 	 	 	 	1581533839	1.00	1.85
12/02/2020 18:57:20	120220	12022020	185720	78.75	12.418785	-56.733512	78.84	0.600	-0.420	2.250	78.77	-2.00	2.60	 	 	 	 	 	 	 	 	 	 	 	 	 	 	 	 	 	 	1581533840	0.83	1.54
12/02/2020 18:57:21	120220	12022020	185721	79.02	12.418783	-56.733517	79.20	-0.110	1.140	1.870	79.11	-0.40	2.40	 	 	 	 	 	 	 	 	 	 	 	 	 	 	 	 	 	 	1581533841	1.17	2.17
12/02/2020 18:57:22	120220	12022020	185722	79.49	12.418785	-56.733522	79.63	-0.840	2.000	0.960	79.57	0.60	1.50	 	 	 	 	 	 	 	 	 	 	 	 	 	 	 	 	 	 	1581533842	1.22	2.26
12/02/2020 18:57:23	120220	12022020	185723	79.81	12.418788	-56.733527	79.86	-1.190	1.910	0.190	79.84	0.60	0.70	 	 	 	 	 	 	 	 	 	 	 	 	 	 	 	 	 	 	1581533843	1.10	2.04
12/02/2020 18:57:24	120220	12022020	185724	79.87	12.418792	-56.733527	79.86	-0.960	0.790	-0.290	79.85	-0.40	0.20	 	 	 	 	 	 	 	 	 	 	 	 	 	 	 	 	 	 	1581533844	0.76	1.41
12/02/2020 18:57:25	120220	12022020	185725	79.85	12.418795	-56.733522	79.87	-0.310	-1.010	-0.770	79.87	-2.10	-0.30	 	 	 	 	 	 	 	 	 	 	 	 	 	 	 	 	 	 	1581533845	1.09	2.02
12/02/2020 18:57:26	120220	12022020	185726	80.01	12.418798	-56.733517	80.05	0.430	-2.530	-1.090	80.05	-3.70	-0.60	 	 	 	 	 	 	 	 	 	 	 	 	 	 	 	 	 	 	1581533846	1.36	2.52
12/02/2020 18:57:27	120220	12022020	185727	80.18	12.418798	-56.733513	80.18	0.960	-2.800	-0.840	80.20	-4.20	-0.50	 	 	 	 	 	 	 	 	 	 	 	 	 	 	 	 	 	 	1581533847	0.83	1.54
12/02/2020 18:57:28	120220	12022020	185728	80.21	12.418795	-56.733513	80.19	1.160	-1.760	-0.170	80.21	-3.30	0.10	 	 	 	 	 	 	 	 	 	 	 	 	 	 	 	 	 	 	1581533848	0.70	1.30
12/02/2020 18:57:29	120220	12022020	185729	80.14	12.418792	-56.733517	80.12	0.960	-0.180	0.540	80.12	-1.80	0.90	 	 	 	 	 	 	 	 	 	 	 	 	 	 	 	 	 	 	1581533849	1.08	2.00
12/02/2020 18:57:30	120220	12022020	185730	80.07	12.418787	-56.733520	80.07	0.340	1.240	1.190	80.05	-0.30	1.50	 	 	 	 	 	 	 	 	 	 	 	 	 	 	 	 	 	 	1581533850	1.07	1.98
12/02/2020 18:57:31	120220	12022020	185731	79.95	12.418783	-56.733522	79.96	-0.580	2.140	1.770	79.93	0.70	2.10	 	 	 	 	 	 	 	 	 	 	 	 	 	 	 	 	 	 	1581533851	1.05	1.94
12/02/2020 18:57:32	120220	12022020	185732	79.89	12.418780	-56.733525	79.96	-1.410	2.230	2.020	79.90	0.90	2.40	 	 	 	 	 	 	 	 	 	 	 	 	 	 	 	 	 	 	1581533852	0.81	1.50
12/02/2020 18:57:33	120220	12022020	185733	80.02	12.418780	-56.733525	80.11	-1.580	1.290	1.850	80.05	0.10	2.30	 	 	 	 	 	 	 	 	 	 	 	 	 	 	 	 	 	 	1581533853	0.19	0.35
12/02/2020 18:57:34	120220	12022020	185734	80.16	12.418783	-56.733523	80.22	-0.860	-0.490	1.490	80.18	-1.60	2.00	 	 	 	 	 	 	 	 	 	 	 	 	 	 	 	 	 	 	1581533854	0.74	1.37
12/02/2020 18:57:35	120220	12022020	185735	80.22	12.418787	-56.733518	80.28	0.320	-2.320	1.000	80.23	-3.50	1.50	 	 	 	 	 	 	 	 	 	 	 	 	 	 	 	 	 	 	1581533855	1.39	2.57
12/02/2020 18:57:36	120220	12022020	185736	80.34	12.418792	-56.733513	80.41	1.240	-3.190	0.490	80.37	-4.50	1.00	 	 	 	 	 	 	 	 	 	 	 	 	 	 	 	 	 	 	1581533856	1.35	2.50
12/02/2020 18:57:37	120220	12022020	185737	80.49	12.418793	-56.733512	80.59	1.410	-2.550	0.400	80.52	-4.10	0.80	 	 	 	 	 	 	 	 	 	 	 	 	 	 	 	 	 	 	1581533857	0.43	0.80
12/02/2020 18:57:38	120220	12022020	185738	80.69	12.418790	-56.733515	80.76	0.810	-0.700	0.800	80.72	-2.40	1.20	 	 	 	 	 	 	 	 	 	 	 	 	 	 	 	 	 	 	1581533858	0.92	1.70
12/02/2020 18:57:39	120220	12022020	185739	80.80	12.418783	-56.733522	80.85	-0.040	1.460	1.230	80.81	-0.20	1.60	 	 	 	 	 	 	 	 	 	 	 	 	 	 	 	 	 	 	1581533859	1.81	3.35
12/02/2020 18:57:40	120220	12022020	185740	80.74	12.418780	-56.733528	80.72	-0.670	2.830	1.360	80.70	1.30	1.80	 	 	 	 	 	 	 	 	 	 	 	 	 	 	 	 	 	 	1581533860	1.69	3.13
12/02/2020 18:57:41	120220	12022020	185741	80.45	12.418778	-56.733532	80.38	-0.830	2.600	1.120	80.37	1.40	1.60	 	 	 	 	 	 	 	 	 	 	 	 	 	 	 	 	 	 	1581533861	0.69	1.28
12/02/2020 18:57:42	120220	12022020	185742	80.06	12.418783	-56.733528	80.01	-0.560	0.810	0.630	79.99	-0.20	1.10	 	 	 	 	 	 	 	 	 	 	 	 	 	 	 	 	 	 	1581533862	0.99	1.83
12/02/2020 18:57:43	120220	12022020	185743	79.84	12.418790	-56.733522	79.89	-0.110	-1.470	0.050	79.85	-2.60	0.60	 	 	 	 	 	 	 	 	 	 	 	 	 	 	 	 	 	 	1581533863	1.94	3.59
12/02/2020 18:57:44	120220	12022020	185744	80.09	12.418797	-56.733517	80.25	0.290	-2.810	-0.600	80.19	-4.10	-0.10	 	 	 	 	 	 	 	 	 	 	 	 	 	 	 	 	 	 	1581533864	1.80	3.33
12/02/2020 18:57:45	120220	12022020	185745	80.60	12.418800	-56.733517	80.72	0.480	-2.530	-0.960	80.68	-4.00	-0.50	 	 	 	 	 	 	 	 	 	 	 	 	 	 	 	 	 	 	1581533865	0.79	1.46
12/02/2020 18:57:46	120220	12022020	185746	80.89	12.418800	-56.733520	80.90	0.440	-1.330	-0.770	80.91	-2.90	-0.40	 	 	 	 	 	 	 	 	 	 	 	 	 	 	 	 	 	 	1581533866	0.81	1.50
12/02/2020 18:57:47	120220	12022020	185747	80.89	12.418797	-56.733525	80.87	0.270	-0.020	-0.210	80.88	-1.60	0.10	 	 	 	 	 	 	 	 	 	 	 	 	 	 	 	 	 	 	1581533867	1.09	2.02
12/02/2020 18:57:48	120220	12022020	185748	80.85	12.418790	-56.733527	80.89	0.050	1.060	0.600	80.85	-0.40	0.90	 	 	 	 	 	 	 	 	 	 	 	 	 	 	 	 	 	 	1581533868	1.32	2.44
12/02/2020 18:57:49	120220	12022020	185749	80.88	12.418783	-56.733527	80.95	-0.210	1.680	1.570	80.88	0.30	1.80	 	 	 	 	 	 	 	 	 	 	 	 	 	 	 	 	 	 	1581533869	1.63	3.02
12/02/2020 18:57:50	120220	12022020	185750	80.85	12.418777	-56.733527	80.89	-0.360	1.400	2.290	80.83	0.10	2.60	 	 	 	 	 	 	 	 	 	 	 	 	 	 	 	 	 	 	1581533870	1.30	2.41
12/02/2020 18:57:51	120220	12022020	185751	80.72	12.418775	-56.733525	80.69	-0.250	0.230	2.420	80.67	-1.00	2.90	 	 	 	 	 	 	 	 	 	 	 	 	 	 	 	 	 	 	1581533871	0.57	1.06
12/02/2020 18:57:52	120220	12022020	185752	80.50	12.418780	-56.733520	80.57	0.090	-1.060	1.910	80.50	-2.30	2.40	 	 	 	 	 	 	 	 	 	 	 	 	 	 	 	 	 	 	1581533872	1.31	2.43
12/02/2020 18:57:53	120220	12022020	185753	80.65	12.418787	-56.733518	80.80	0.350	-1.630	1.140	80.72	-3.00	1.70	 	 	 	 	 	 	 	 	 	 	 	 	 	 	 	 	 	 	1581533873	1.45	2.69
12/02/2020 18:57:54	120220	12022020	185754	81.04	12.418790	-56.733520	81.19	0.290	-1.240	0.500	81.12	-2.70	1.00	 	 	 	 	 	 	 	 	 	 	 	 	 	 	 	 	 	 	1581533874	0.86	1.59
12/02/2020 18:57:55	120220	12022020	185755	81.30	12.418792	-56.733523	81.32	-0.050	-0.320	0.180	81.30	-1.80	0.60	 	 	 	 	 	 	 	 	 	 	 	 	 	 	 	 	 	 	1581533875	0.80	1.48
12/02/2020 18:57:56	120220	12022020	185756	81.16	12.418790	-56.733527	81.08	-0.280	0.290	0.230	81.09	-1.10	0.60	 	 	 	 	 	 	 	 	 	 	 	 	 	 	 	 	 	 	1581533876	0.80	1.48
12/02/2020 18:57:57	120220	12022020	185757	80.77	12.418788	-56.733527	80.68	-0.070	0.190	0.350	80.68	-1.10	0.80	 	 	 	 	 	 	 	 	 	 	 	 	 	 	 	 	 	 	1581533877	0.29	0.54
12/02/2020 18:57:58	120220	12022020	185758	80.41	12.418788	-56.733523	80.39	0.370	-0.290	0.330	80.37	-1.60	0.80	 	 	 	 	 	 	 	 	 	 	 	 	 	 	 	 	 	 	1581533878	0.68	1.26
12/02/2020 18:57:59	120220	12022020	185759	80.37	12.418790	-56.733520	80.46	0.560	-0.480	0.130	80.40	-1.90	0.60	 	 	 	 	 	 	 	 	 	 	 	 	 	 	 	 	 	 	1581533879	0.75	1.39
12/02/2020 18:58:00	120220	12022020	185800	80.63	12.418792	-56.733520	80.76	0.260	-0.140	-0.050	80.70	-1.60	0.40	 	 	 	 	 	 	 	 	 	 	 	 	 	 	 	 	 	 	1581533880	0.34	0.63
12/02/2020 18:58:01	120220	12022020	185801	80.85	12.418793	-56.733523	80.93	-0.220	0.320	-0.080	80.89	-1.10	0.30	 	 	 	 	 	 	 	 	 	 	 	 	 	 	 	 	 	 	1581533881	0.52	0.96
12/02/2020 18:58:02	120220	12022020	185802	80.83	12.418793	-56.733525	80.79	-0.450	0.420	0.170	80.79	-0.90	0.50	1014.60	26.30	26.40	19.30	19.40	273.0	65.0	65.0	437.0	27.0	350.00	13.30	69.00	12.80	22959	12278.0	27.4	27.4	1581533882	0.36	0.67
12/02/2020 18:58:03	120220	12022020	185803	80.62	12.418792	-56.733523	80.55	-0.310	0.100	0.590	80.57	-1.20	0.90	 	 	 	 	 	 	 	 	 	 	 	 	 	 	 	 	 	 	1581533883	0.31	0.57
12/02/2020 18:58:04	120220	12022020	185804	80.44	12.418790	-56.733522	80.48	-0.050	-0.360	1.020	80.44	-1.70	1.40	 	 	 	 	 	 	 	 	 	 	 	 	 	 	 	 	 	 	1581533884	0.64	1.19
12/02/2020 18:58:05	120220	12022020	185805	80.47	12.418787	-56.733520	80.55	0.070	-0.680	1.280	80.49	-2.00	1.70	 	 	 	 	 	 	 	 	 	 	 	 	 	 	 	 	 	 	1581533885	0.61	1.13
12/02/2020 18:58:06	120220	12022020	185806	80.55	12.418787	-56.733520	80.63	0.060	-0.700	1.320	80.56	-2.10	1.70	 	 	 	 	 	 	 	 	 	 	 	 	 	 	 	 	 	 	1581533886	0.28	0.52
12/02/2020 18:58:07	120220	12022020	185807	80.57	12.418785	-56.733520	80.59	0.090	-0.450	1.280	80.55	-1.90	1.70	 	 	 	 	 	 	 	 	 	 	 	 	 	 	 	 	 	 	1581533887	0.16	0.30
12/02/2020 18:58:08	120220	12022020	185808	80.44	12.418785	-56.733520	80.42	0.250	-0.280	1.240	80.39	-1.60	1.70	 	 	 	 	 	 	 	 	 	 	 	 	 	 	 	 	 	 	1581533888	0.16	0.30
12/02/2020 18:58:09	120220	12022020	185809	80.21	12.418787	-56.733520	80.19	0.460	-0.350	1.070	80.16	-1.70	1.50	 	 	 	 	 	 	 	 	 	 	 	 	 	 	 	 	 	 	1581533889	0.24	0.44
12/02/2020 18:58:10	120220	12022020	185810	80.00	12.418788	-56.733518	80.01	0.500	-0.290	0.720	79.97	-1.70	1.20	 	 	 	 	 	 	 	 	 	 	 	 	 	 	 	 	 	 	1581533890	0.59	1.09
12/02/2020 18:58:11	120220	12022020	185811	80.00	12.418792	-56.733518	80.09	0.160	0.230	0.180	80.04	-1.20	0.70	 	 	 	 	 	 	 	 	 	 	 	 	 	 	 	 	 	 	1581533891	0.80	1.48
12/02/2020 18:58:12	120220	12022020	185812	80.30	12.418795	-56.733522	80.45	-0.420	0.760	-0.330	80.38	-0.70	0.20	 	 	 	 	 	 	 	 	 	 	 	 	 	 	 	 	 	 	1581533892	1.03	1.91
12/02/2020 18:58:13	120220	12022020	185813	80.67	12.418797	-56.733523	80.78	-0.780	0.600	-0.430	80.73	-0.70	-0.00	 	 	 	 	 	 	 	 	 	 	 	 	 	 	 	 	 	 	1581533893	0.52	0.96
12/02/2020 18:58:14	120220	12022020	185814	80.79	12.418795	-56.733522	80.80	-0.600	-0.310	-0.040	80.77	-1.50	0.30	 	 	 	 	 	 	 	 	 	 	 	 	 	 	 	 	 	 	1581533894	0.58	1.07
12/02/2020 18:58:15	120220	12022020	185815	80.57	12.418792	-56.733517	80.52	-0.040	-1.200	0.590	80.51	-2.50	0.90	 	 	 	 	 	 	 	 	 	 	 	 	 	 	 	 	 	 	1581533895	1.31	2.43
12/02/2020 18:58:16	120220	12022020	185816	80.24	12.418787	-56.733513	80.20	0.460	-1.350	1.340	80.18	-2.70	1.60	 	 	 	 	 	 	 	 	 	 	 	 	 	 	 	 	 	 	1581533896	1.25	2.31
12/02/2020 18:58:17	120220	12022020	185817	79.88	12.418782	-56.733513	79.85	0.550	-0.620	2.090	79.81	-2.10	2.40	 	 	 	 	 	 	 	 	 	 	 	 	 	 	 	 	 	 	1581533897	1.03	1.91
12/02/2020 18:58:18	120220	12022020	185818	79.57	12.418780	-56.733515	79.59	0.190	0.350	2.450	79.54	-1.10	2.90	 	 	 	 	 	 	 	 	 	 	 	 	 	 	 	 	 	 	1581533898	0.85	1.57
12/02/2020 18:58:19	120220	12022020	185819	79.59	12.418780	-56.733518	79.73	-0.310	0.830	2.000	79.66	-0.60	2.50	 	 	 	 	 	 	 	 	 	 	 	 	 	 	 	 	 	 	1581533899	0.72	1.33
12/02/2020 18:58:20	120220	12022020	185820	80.10	12.418785	-56.733520	80.29	-0.510	0.470	0.840	80.22	-0.80	1.40	 	 	 	 	 	 	 	 	 	 	 	 	 	 	 	 	 	 	1581533900	1.03	1.91
12/02/2020 18:58:21	120220	12022020	185821	80.65	12.418790	-56.733517	80.74	-0.180	-0.420	-0.130	80.71	-1.70	0.40	 	 	 	 	 	 	 	 	 	 	 	 	 	 	 	 	 	 	1581533901	1.19	2.20
12/02/2020 18:58:22	120220	12022020	185822	80.74	12.418793	-56.733513	80.68	0.440	-1.110	-0.330	80.70	-2.40	0.10	 	 	 	 	 	 	 	 	 	 	 	 	 	 	 	 	 	 	1581533902	1.01	1.87
12/02/2020 18:58:23	120220	12022020	185823	80.41	12.418793	-56.733510	80.29	0.760	-1.010	-0.020	80.33	-2.40	0.30	 	 	 	 	 	 	 	 	 	 	 	 	 	 	 	 	 	 	1581533903	0.56	1.04
12/02/2020 18:58:24	120220	12022020	185824	80.01	12.418793	-56.733512	79.92	0.400	-0.200	0.240	79.94	-1.70	0.60	 	 	 	 	 	 	 	 	 	 	 	 	 	 	 	 	 	 	1581533904	0.30	0.56
12/02/2020 18:58:25	120220	12022020	185825	79.80	12.418793	-56.733515	79.75	-0.350	0.600	0.280	79.77	-0.90	0.70	 	 	 	 	 	 	 	 	 	 	 	 	 	 	 	 	 	 	1581533905	0.80	1.48
12/02/2020 18:58:26	120220	12022020	185826	79.68	12.418793	-56.733518	79.72	-0.880	0.820	0.490	79.68	-0.50	0.90	 	 	 	 	 	 	 	 	 	 	 	 	 	 	 	 	 	 	1581533906	0.49	0.91
12/02/2020 18:58:27	120220	12022020	185827	79.74	12.418790	-56.733517	79.87	-0.890	0.390	0.870	79.78	-0.90	1.20	 	 	 	 	 	 	 	 	 	 	 	 	 	 	 	 	 	 	1581533907	0.51	0.94
12/02/2020 18:58:28	120220	12022020	185828	80.10	12.418788	-56.733513	80.31	-0.560	-0.370	1.090	80.20	-1.60	1.50	 	 	 	 	 	 	 	 	 	 	 	 	 	 	 	 	 	 	1581533908	0.84	1.56
12/02/2020 18:58:29	120220	12022020	185829	80.65	12.418787	-56.733510	80.82	-0.100	-1.000	0.940	80.74	-2.30	1.40	 	 	 	 	 	 	 	 	 	 	 	 	 	 	 	 	 	 	1581533909	0.71	1.31
12/02/2020 18:58:30	120220	12022020	185830	80.98	12.418787	-56.733508	81.03	0.380	-1.110	0.840	80.99	-2.50	1.20	 	 	 	 	 	 	 	 	 	 	 	 	 	 	 	 	 	 	1581533910	0.39	0.72
12/02/2020 18:58:31	120220	12022020	185831	80.84	12.418785	-56.733508	80.79	0.790	-0.680	1.150	80.77	-2.10	1.50	 	 	 	 	 	 	 	 	 	 	 	 	 	 	 	 	 	 	1581533911	0.29	0.54
12/02/2020 18:58:32	120220	12022020	185832	80.41	12.418783	-56.733510	80.34	0.970	-0.200	1.660	80.32	-1.60	2.00	 	 	 	 	 	 	 	 	 	 	 	 	 	 	 	 	 	 	1581533912	0.47	0.87
12/02/2020 18:58:33	120220	12022020	185833	80.07	12.418783	-56.733510	80.11	0.760	-0.060	1.820	80.05	-1.40	2.20	 	 	 	 	 	 	 	 	 	 	 	 	 	 	 	 	 	 	1581533913	0.10	0.19
12/02/2020 18:58:34	120220	12022020	185834	80.13	12.418787	-56.733508	80.25	0.200	-0.090	1.370	80.19	-1.50	1.90	 	 	 	 	 	 	 	 	 	 	 	 	 	 	 	 	 	 	1581533914	0.90	1.67
12/02/2020 18:58:35	120220	12022020	185835	80.46	12.418793	-56.733508	80.59	-0.460	0.110	0.670	80.54	-1.30	1.20	 	 	 	 	 	 	 	 	 	 	 	 	 	 	 	 	 	 	1581533915	1.30	2.41
12/02/2020 18:58:36	120220	12022020	185836	80.79	12.418797	-56.733510	80.87	-0.890	0.580	0.290	80.84	-0.90	0.70	 	 	 	 	 	 	 	 	 	 	 	 	 	 	 	 	 	 	1581533916	0.88	1.63
12/02/2020 18:58:37	120220	12022020	185837	80.95	12.418797	-56.733512	80.98	-0.940	0.900	0.330	80.96	-0.50	0.70	 	 	 	 	 	 	 	 	 	 	 	 	 	 	 	 	 	 	1581533917	0.63	1.17
12/02/2020 18:58:38	120220	12022020	185838	80.98	12.418793	-56.733513	81.01	-0.650	0.630	0.560	80.98	-0.70	0.90	 	 	 	 	 	 	 	 	 	 	 	 	 	 	 	 	 	 	1581533918	0.69	1.28
12/02/2020 18:58:39	120220	12022020	185839	80.90	12.418792	-56.733512	80.90	-0.230	-0.280	0.820	80.86	-1.50	1.20	 	 	 	 	 	 	 	 	 	 	 	 	 	 	 	 	 	 	1581533919	0.69	1.28
12/02/2020 18:58:40	120220	12022020	185840	80.72	12.418790	-56.733508	80.75	0.170	-1.430	1.040	80.71	-2.60	1.40	 	 	 	 	 	 	 	 	 	 	 	 	 	 	 	 	 	 	1581533920	0.90	1.67
12/02/2020 18:58:41	120220	12022020	185841	80.76	12.418790	-56.733503	80.95	0.510	-2.120	0.960	80.81	-3.40	1.40	 	 	 	 	 	 	 	 	 	 	 	 	 	 	 	 	 	 	1581533921	0.96	1.78
12/02/2020 18:58:42	120220	12022020	185842	81.21	12.418792	-56.733502	81.34	0.790	-1.880	0.730	81.28	-3.30	1.20	 	 	 	 	 	 	 	 	 	 	 	 	 	 	 	 	 	 	1581533922	0.55	1.02
12/02/2020 18:58:43	120220	12022020	185843	81.45	12.418792	-56.733502	81.45	0.880	-0.800	0.730	81.45	-2.30	1.10	 	 	 	 	 	 	 	 	 	 	 	 	 	 	 	 	 	 	1581533923	0.18	0.33
12/02/2020 18:58:44	120220	12022020	185844	81.21	12.418790	-56.733505	81.07	0.630	0.640	0.980	81.11	-0.90	1.40	 	 	 	 	 	 	 	 	 	 	 	 	 	 	 	 	 	 	1581533924	0.68	1.26
12/02/2020 18:58:45	120220	12022020	185845	80.59	12.418790	-56.733510	80.41	-0.010	1.790	1.100	80.45	0.30	1.50	 	 	 	 	 	 	 	 	 	 	 	 	 	 	 	 	 	 	1581533925	0.90	1.67
12/02/2020 18:58:46	120220	12022020	185846	79.98	12.418793	-56.733513	79.88	-0.800	2.140	0.780	79.89	0.80	1.30	 	 	 	 	 	 	 	 	 	 	 	 	 	 	 	 	 	 	1581533926	1.06	1.96
12/02/2020 18:58:47	120220	12022020	185847	79.75	12.418800	-56.733515	79.81	-1.310	1.460	0.210	79.77	0.20	0.70	 	 	 	 	 	 	 	 	 	 	 	 	 	 	 	 	 	 	1581533927	1.33	2.46
12/02/2020 18:58:48	120220	12022020	185848	80.09	12.418805	-56.733515	80.30	-1.200	-0.020	-0.370	80.21	-1.20	0.10	 	 	 	 	 	 	 	 	 	 	 	 	 	 	 	 	 	 	1581533928	1.19	2.20
12/02/2020 18:58:49	120220	12022020	185849	80.78	12.418807	-56.733512	80.98	-0.460	-1.730	-0.690	80.91	-2.90	-0.20	 	 	 	 	 	 	 	 	 	 	 	 	 	 	 	 	 	 	1581533929	0.98	1.81
12/02/2020 18:58:50	120220	12022020	185850	81.28	12.418807	-56.733507	81.32	0.510	-2.870	-0.470	81.32	-4.10	-0.10	 	 	 	 	 	 	 	 	 	 	 	 	 	 	 	 	 	 	1581533930	1.18	2.19
12/02/2020 18:58:51	120220	12022020	185851	81.24	12.418800	-56.733502	81.01	1.130	-2.700	0.350	81.17	-4.20	0.60	 	 	 	 	 	 	 	 	 	 	 	 	 	 	 	 	 	 	1581533931	1.47	2.72
12/02/2020 18:58:52	120220	12022020	185852	80.48	12.418792	-56.733503	80.24	1.080	-1.240	1.470	80.31	-2.80	1.70	 	 	 	 	 	 	 	 	 	 	 	 	 	 	 	 	 	 	1581533932	1.64	3.04
12/02/2020 18:58:53	120220	12022020	185853	79.79	12.418787	-56.733507	79.52	0.530	0.580	2.230	79.65	-1.00	2.60	 	 	 	 	 	 	 	 	 	 	 	 	 	 	 	 	 	 	1581533933	1.48	2.74
12/02/2020 18:58:54	120220	12022020	185854	79.23	12.418787	-56.733513	79.26	-0.180	1.950	2.090	79.22	0.40	2.60	 	 	 	 	 	 	 	 	 	 	 	 	 	 	 	 	 	 	1581533934	1.08	2.00
12/02/2020 18:58:55	120220	12022020	185855	79.40	12.418792	-56.733517	79.55	-0.780	2.340	1.070	79.50	1.00	1.70	 	 	 	 	 	 	 	 	 	 	 	 	 	 	 	 	 	 	1581533935	1.50	2.78
12/02/2020 18:58:56	120220	12022020	185856	79.89	12.418800	-56.733520	80.01	-1.030	1.540	-0.270	79.97	0.30	0.30	 	 	 	 	 	 	 	 	 	 	 	 	 	 	 	 	 	 	1581533936	1.85	3.43
12/02/2020 18:58:57	120220	12022020	185857	80.17	12.418807	-56.733517	80.19	-0.770	-0.190	-1.190	80.18	-1.30	-0.70	 	 	 	 	 	 	 	 	 	 	 	 	 	 	 	 	 	 	1581533937	1.57	2.91
12/02/2020 18:58:58	120220	12022020	185858	80.16	12.418810	-56.733512	80.12	-0.120	-1.990	-1.400	80.13	-3.20	-1.00	 	 	 	 	 	 	 	 	 	 	 	 	 	 	 	 	 	 	1581533938	1.38	2.56
12/02/2020 18:58:59	120220	12022020	185859	80.02	12.418808	-56.733507	79.97	0.560	-2.670	-1.000	79.99	-4.00	-0.70	 	 	 	 	 	 	 	 	 	 	 	 	 	 	 	 	 	 	1581533939	1.14	2.11
12/02/2020 18:59:00	120220	12022020	185900	79.84	12.418805	-56.733507	79.80	0.850	-1.680	-0.310	79.82	-3.20	0.00	 	 	 	 	 	 	 	 	 	 	 	 	 	 	 	 	 	 	1581533940	1.05	1.94
12/02/2020 18:59:01	120220	12022020	185901	79.76	12.418798	-56.733513	79.79	0.520	0.120	0.250	79.77	-1.50	0.60	 	 	 	 	 	 	 	 	 	 	 	 	 	 	 	 	 	 	1581533941	1.70	3.15
12/02/2020 18:59:02	120220	12022020	185902	79.88	12.418797	-56.733520	79.97	-0.180	1.420	0.600	79.93	-0.10	1.00	1014.50	26.30	26.40	19.10	19.30	258.0	64.0	64.0	437.0	27.0	349.00	13.40	69.00	13.00	22099	11244.0	27.4	27.4	1581533942	1.73	3.20
12/02/2020 18:59:03	120220	12022020	185903	80.06	12.418793	-56.733523	80.13	-0.650	1.290	0.940	80.08	0.00	1.30	 	 	 	 	 	 	 	 	 	 	 	 	 	 	 	 	 	 	1581533943	0.76	1.41
12/02/2020 18:59:04	120220	12022020	185904	80.10	12.418792	-56.733520	80.15	-0.430	-0.070	1.320	80.09	-1.20	1.70	 	 	 	 	 	 	 	 	 	 	 	 	 	 	 	 	 	 	1581533944	0.93	1.72
12/02/2020 18:59:05	120220	12022020	185905	80.00	12.418790	-56.733512	80.02	0.300	-1.380	1.690	79.97	-2.60	2.00	 	 	 	 	 	 	 	 	 	 	 	 	 	 	 	 	 	 	1581533945	1.63	3.02
12/02/2020 18:59:06	120220	12022020	185906	79.83	12.418790	-56.733507	79.86	0.810	-1.460	1.840	79.81	-2.90	2.20	 	 	 	 	 	 	 	 	 	 	 	 	 	 	 	 	 	 	1581533946	0.96	1.78
12/02/2020 18:59:07	120220	12022020	185907	79.81	12.418790	-56.733510	79.93	0.630	-0.350	1.640	79.85	-1.90	2.10	 	 	 	 	 	 	 	 	 	 	 	 	 	 	 	 	 	 	1581533947	0.66	1.22
12/02/2020 18:59:08	120220	12022020	185908	80.14	12.418792	-56.733518	80.33	0.000	0.810	1.260	80.24	-0.70	1.70	 	 	 	 	 	 	 	 	 	 	 	 	 	 	 	 	 	 	1581533948	1.54	2.85
12/02/2020 18:59:09	120220	12022020	185909	80.61	12.418792	-56.733523	80.77	-0.490	1.110	0.990	80.69	-0.30	1.40	 	 	 	 	 	 	 	 	 	 	 	 	 	 	 	 	 	 	1581533949	1.06	1.96
12/02/2020 18:59:10	120220	12022020	185910	80.89	12.418792	-56.733523	80.97	-0.530	0.500	0.840	80.90	-0.80	1.30	 	 	 	 	 	 	 	 	 	 	 	 	 	 	 	 	 	 	1581533950	0.17	0.31
12/02/2020 18:59:11	120220	12022020	185911	80.88	12.418790	-56.733520	80.88	-0.260	-0.440	0.730	80.84	-1.70	1.10	 	 	 	 	 	 	 	 	 	 	 	 	 	 	 	 	 	 	1581533951	0.66	1.22
12/02/2020 18:59:12	120220	12022020	185912	80.59	12.418788	-56.733517	80.51	0.050	-1.180	0.820	80.50	-2.50	1.20	 	 	 	 	 	 	 	 	 	 	 	 	 	 	 	 	 	 	1581533952	0.73	1.35
12/02/2020 18:59:13	120220	12022020	185913	80.18	12.418788	-56.733515	80.13	0.280	-1.460	0.930	80.12	-2.80	1.40	 	 	 	 	 	 	 	 	 	 	 	 	 	 	 	 	 	 	1581533953	0.45	0.83
12/02/2020 18:59:14	120220	12022020	185914	80.01	12.418790	-56.733513	80.05	0.450	-1.240	0.730	80.03	-2.70	1.20	 	 	 	 	 	 	 	 	 	 	 	 	 	 	 	 	 	 	1581533954	0.28	0.52
12/02/2020 18:59:15	120220	12022020	185915	80.13	12.418792	-56.733515	80.26	0.460	-0.370	0.350	80.18	-1.90	0.80	 	 	 	 	 	 	 	 	 	 	 	 	 	 	 	 	 	 	1581533955	0.71	1.31
12/02/2020 18:59:16	120220	12022020	185916	80.51	12.418795	-56.733520	80.64	0.200	0.790	-0.030	80.59	-0.70	0.40	 	 	 	 	 	 	 	 	 	 	 	 	 	 	 	 	 	 	1581533956	1.06	1.96
12/02/2020 18:59:17	120220	12022020	185917	80.89	12.418795	-56.733525	80.99	-0.180	1.390	-0.300	80.95	0.00	0.10	 	 	 	 	 	 	 	 	 	 	 	 	 	 	 	 	 	 	1581533957	0.97	1.80
12/02/2020 18:59:18	120220	12022020	185918	81.12	12.418793	-56.733525	81.18	-0.390	0.880	-0.280	81.15	-0.40	0.10	 	 	 	 	 	 	 	 	 	 	 	 	 	 	 	 	 	 	1581533958	0.26	0.48
12/02/2020 18:59:19	120220	12022020	185919	81.17	12.418792	-56.733522	81.19	-0.280	-0.290	0.170	81.16	-1.50	0.50	 	 	 	 	 	 	 	 	 	 	 	 	 	 	 	 	 	 	1581533959	1.09	2.02
12/02/2020 18:59:20	120220	12022020	185920	80.98	12.418787	-56.733517	80.91	0.050	-1.070	0.940	80.91	-2.40	1.20	 	 	 	 	 	 	 	 	 	 	 	 	 	 	 	 	 	 	1581533960	1.37	2.54
12/02/2020 18:59:21	120220	12022020	185921	80.54	12.418782	-56.733515	80.44	0.320	-1.100	1.740	80.44	-2.50	2.00	 	 	 	 	 	 	 	 	 	 	 	 	 	 	 	 	 	 	1581533961	0.96	1.78
12/02/2020 18:59:22	120220	12022020	185922	80.06	12.418780	-56.733517	79.99	0.310	-0.660	2.240	79.98	-2.10	2.60	 	 	 	 	 	 	 	 	 	 	 	 	 	 	 	 	 	 	1581533962	0.62	1.15
12/02/2020 18:59:23	120220	12022020	185923	79.72	12.418780	-56.733518	79.73	0.020	-0.180	2.280	79.68	-1.60	2.70	 	 	 	 	 	 	 	 	 	 	 	 	 	 	 	 	 	 	1581533963	0.44	0.81
12/02/2020 18:59:24	120220	12022020	185924	79.67	12.418782	-56.733520	79.79	-0.310	-0.000	1.790	79.71	-1.40	2.30	 	 	 	 	 	 	 	 	 	 	 	 	 	 	 	 	 	 	1581533964	0.49	0.91
12/02/2020 18:59:25	120220	12022020	185925	80.12	12.418785	-56.733520	80.38	-0.380	-0.090	0.830	80.27	-1.40	1.40	 	 	 	 	 	 	 	 	 	 	 	 	 	 	 	 	 	 	1581533965	0.80	1.48
12/02/2020 18:59:26	120220	12022020	185926	80.91	12.418788	-56.733520	81.13	-0.180	-0.090	-0.050	81.05	-1.50	0.50	 	 	 	 	 	 	 	 	 	 	 	 	 	 	 	 	 	 	1581533966	0.68	1.26
12/02/2020 18:59:27	120220	12022020	185927	81.33	12.418787	-56.733520	81.31	0.090	0.110	-0.300	81.32	-1.30	0.10	 	 	 	 	 	 	 	 	 	 	 	 	 	 	 	 	 	 	1581533967	0.13	0.24
12/02/2020 18:59:28	120220	12022020	185928	80.96	12.418785	-56.733520	80.74	0.290	0.220	-0.030	80.80	-1.10	0.30	 	 	 	 	 	 	 	 	 	 	 	 	 	 	 	 	 	 	1581533968	0.67	1.24
12/02/2020 18:59:29	120220	12022020	185929	80.13	12.418782	-56.733520	79.93	0.410	-0.130	0.340	79.98	-1.40	0.70	 	 	 	 	 	 	 	 	 	 	 	 	 	 	 	 	 	 	1581533969	0.51	0.94
12/02/2020 18:59:30	120220	12022020	185930	79.56	12.418783	-56.733517	79.54	0.560	-0.810	0.380	79.52	-2.10	0.80	 	 	 	 	 	 	 	 	 	 	 	 	 	 	 	 	 	 	1581533970	0.66	1.22
12/02/2020 18:59:31	120220	12022020	185931	79.59	12.418788	-56.733515	79.68	0.590	-1.070	0.140	79.63	-2.40	0.60	 	 	 	 	 	 	 	 	 	 	 	 	 	 	 	 	 	 	1581533971	1.17	2.17
12/02/2020 18:59:32	120220	12022020	185932	79.89	12.418792	-56.733515	80.00	0.220	-0.350	-0.020	79.95	-1.90	0.40	 	 	 	 	 	 	 	 	 	 	 	 	 	 	 	 	 	 	1581533972	0.97	1.80
12/02/2020 18:59:33	120220	12022020	185933	80.18	12.418793	-56.733522	80.26	-0.530	0.830	0.060	80.22	-0.70	0.50	 	 	 	 	 	 	 	 	 	 	 	 	 	 	 	 	 	 	1581533973	1.22	2.26
12/02/2020 18:59:34	120220	12022020	185934	80.37	12.418790	-56.733527	80.43	-1.170	1.260	0.330	80.38	-0.10	0.70	 	 	 	 	 	 	 	 	 	 	 	 	 	 	 	 	 	 	1581533974	1.26	2.33
12/02/2020 18:59:35	120220	12022020	185935	80.36	12.418785	-56.733525	80.40	-1.100	0.370	0.900	80.33	-0.80	1.20	 	 	 	 	 	 	 	 	 	 	 	 	 	 	 	 	 	 	1581533975	1.14	2.11
12/02/2020 18:59:36	120220	12022020	185936	80.23	12.418778	-56.733518	80.27	-0.310	-1.130	1.620	80.21	-2.30	1.90	 	 	 	 	 	 	 	 	 	 	 	 	 	 	 	 	 	 	1581533976	1.97	3.65
12/02/2020 18:59:37	120220	12022020	185937	80.11	12.418773	-56.733512	80.16	0.550	-1.930	2.160	80.09	-3.30	2.50	 	 	 	 	 	 	 	 	 	 	 	 	 	 	 	 	 	 	1581533977	1.88	3.48
12/02/2020 18:59:38	120220	12022020	185938	80.02	12.418772	-56.733510	80.08	0.850	-1.360	2.140	80.02	-2.90	2.60	 	 	 	 	 	 	 	 	 	 	 	 	 	 	 	 	 	 	1581533978	0.64	1.19
12/02/2020 18:59:39	120220	12022020	185939	79.98	12.418772	-56.733515	80.00	0.540	0.070	1.500	79.96	-1.50	2.00	 	 	 	 	 	 	 	 	 	 	 	 	 	 	 	 	 	 	1581533979	1.07	1.98
12/02/2020 18:59:40	120220	12022020	185940	79.86	12.418777	-56.733523	79.84	0.010	1.190	0.560	79.83	-0.30	1.10	 	 	 	 	 	 	 	 	 	 	 	 	 	 	 	 	 	 	1581533980	1.81	3.35
12/02/2020 18:59:41	120220	12022020	185941	79.72	12.418783	-56.733527	79.64	-0.310	1.140	-0.210	79.68	-0.20	0.30	 	 	 	 	 	 	 	 	 	 	 	 	 	 	 	 	 	 	1581533981	1.64	3.04
12/02/2020 18:59:42	120220	12022020	185942	79.44	12.418790	-56.733525	79.38	-0.320	0.230	-0.680	79.39	-1.00	-0.20	 	 	 	 	 	 	 	 	 	 	 	 	 	 	 	 	 	 	1581533982	1.46	2.70
12/02/2020 18:59:43	120220	12022020	185943	79.27	12.418795	-56.733523	79.22	-0.090	-0.660	-1.020	79.24	-1.90	-0.50	 	 	 	 	 	 	 	 	 	 	 	 	 	 	 	 	 	 	1581533983	1.38	2.56
12/02/2020 18:59:44	120220	12022020	185944	79.30	12.418800	-56.733522	79.34	0.200	-1.080	-1.250	79.34	-2.40	-0.80	 	 	 	 	 	 	 	 	 	 	 	 	 	 	 	 	 	 	1581533984	0.91	1.69
12/02/2020 18:59:45	120220	12022020	185945	79.59	12.418800	-56.733522	79.67	0.300	-1.050	-1.040	79.66	-2.40	-0.70	 	 	 	 	 	 	 	 	 	 	 	 	 	 	 	 	 	 	1581533985	0.12	0.22
12/02/2020 18:59:46	120220	12022020	185946	79.90	12.418795	-56.733522	79.98	0.150	-0.780	-0.070	79.95	-2.20	0.20	 	 	 	 	 	 	 	 	 	 	 	 	 	 	 	 	 	 	1581533986	1.09	2.02
12/02/2020 18:59:47	120220	12022020	185947	80.05	12.418785	-56.733520	80.09	-0.070	-0.390	1.330	80.05	-1.80	1.50	 	 	 	 	 	 	 	 	 	 	 	 	 	 	 	 	 	 	1581533987	2.07	3.83
12/02/2020 18:59:48	120220	12022020	185948	80.02	12.418775	-56.733518	80.06	-0.220	0.240	2.480	80.01	-1.20	2.80	 	 	 	 	 	 	 	 	 	 	 	 	 	 	 	 	 	 	1581533988	2.17	4.02
12/02/2020 18:59:49	120220	12022020	185949	79.92	12.418768	-56.733520	79.93	-0.330	0.890	2.900	79.89	-0.60	3.30	 	 	 	 	 	 	 	 	 	 	 	 	 	 	 	 	 	 	1581533989	1.50	2.78
12/02/2020 18:59:50	120220	12022020	185950	79.71	12.418767	-56.733522	79.66	-0.340	1.060	2.620	79.65	-0.30	3.10	 	 	 	 	 	 	 	 	 	 	 	 	 	 	 	 	 	 	1581533990	0.60	1.11
12/02/2020 18:59:51	120220	12022020	185951	79.36	12.418772	-56.733523	79.31	-0.130	0.500	1.980	79.30	-0.80	2.50	 	 	 	 	 	 	 	 	 	 	 	 	 	 	 	 	 	 	1581533991	0.90	1.67
12/02/2020 18:59:52	120220	12022020	185952	79.17	12.418780	-56.733522	79.21	0.210	-0.620	1.020	79.18	-1.80	1.60	 	 	 	 	 	 	 	 	 	 	 	 	 	 	 	 	 	 	1581533992	1.77	3.28
12/02/2020 18:59:53	120220	12022020	185953	79.35	12.418788	-56.733520	79.45	0.400	-1.490	-0.190	79.42	-2.80	0.40	 	 	 	 	 	 	 	 	 	 	 	 	 	 	 	 	 	 	1581533993	2.19	4.06
12/02/2020 18:59:54	120220	12022020	185954	79.68	12.418797	-56.733520	79.74	0.260	-1.430	-1.200	79.74	-2.90	-0.70	 	 	 	 	 	 	 	 	 	 	 	 	 	 	 	 	 	 	1581533994	1.69	3.13
12/02/2020 18:59:55	120220	12022020	185955	79.88	12.418800	-56.733523	79.88	-0.050	-0.680	-1.420	79.90	-2.20	-1.00	 	 	 	 	 	 	 	 	 	 	 	 	 	 	 	 	 	 	1581533995	0.83	1.54
12/02/2020 18:59:56	120220	12022020	185956	79.95	12.418797	-56.733525	79.95	-0.280	-0.050	-0.790	79.96	-1.50	-0.50	 	 	 	 	 	 	 	 	 	 	 	 	 	 	 	 	 	 	1581533996	0.84	1.56
12/02/2020 18:59:57	120220	12022020	185957	79.95	12.418788	-56.733523	79.96	-0.300	0.150	0.370	79.94	-1.20	0.60	 	 	 	 	 	 	 	 	 	 	 	 	 	 	 	 	 	 	1581533997	1.61	2.98
12/02/2020 18:59:58	120220	12022020	185958	79.88	12.418780	-56.733522	79.89	-0.140	0.200	1.510	79.85	-1.20	1.80	 	 	 	 	 	 	 	 	 	 	 	 	 	 	 	 	 	 	1581533998	1.99	3.69
12/02/2020 18:59:59	120220	12022020	185959	79.73	12.418773	-56.733520	79.75	0.110	0.330	2.200	79.70	-1.10	2.60	 	 	 	 	 	 	 	 	 	 	 	 	 	 	 	 	 	 	1581533999	1.44	2.67
12/02/2020 19:00:00	120220	12022020	190000	79.54	12.418772	-56.733518	79.53	0.330	0.350	2.360	79.49	-1.00	2.80	 	 	 	 	 	 	 	 	 	 	 	 	 	 	 	 	 	 	1581534000	0.48	0.89
12/02/2020 19:00:01	120220	12022020	190001	79.34	12.418773	-56.733518	79.35	0.410	0.050	2.150	79.32	-1.30	2.60	 	 	 	 	 	 	 	 	 	 	 	 	 	 	 	 	 	 	1581534001	0.47	0.87
12/02/2020 19:00:02	120220	12022020	190002	79.36	12.418780	-56.733518	79.48	0.280	-0.420	1.600	79.41	-1.70	2.10	1014.60	26.30	26.30	19.30	19.50	255.0	65.0	65.0	437.0	27.0	348.00	12.50	68.00	11.90	21756	10991.0	27.4	27.4	1581534002	1.20	2.22
12/02/2020 19:00:03	120220	12022020	190003	79.73	12.418787	-56.733518	79.90	0.020	-0.660	0.740	79.83	-2.00	1.30	 	 	 	 	 	 	 	 	 	 	 	 	 	 	 	 	 	 	1581534003	1.47	2.72
12/02/2020 19:00:04	120220	12022020	190004	80.25	12.418792	-56.733520	80.36	-0.230	-0.450	0.020	80.34	-1.80	0.50	 	 	 	 	 	 	 	 	 	 	 	 	 	 	 	 	 	 	1581534004	1.15	2.13
12/02/2020 19:00:05	120220	12022020	190005	80.53	12.418792	-56.733523	80.55	-0.430	0.030	-0.280	80.56	-1.40	0.10	 	 	 	 	 	 	 	 	 	 	 	 	 	 	 	 	 	 	1581534005	0.68	1.26
12/02/2020 19:00:06	120220	12022020	190006	80.28	12.418788	-56.733525	80.13	-0.390	0.000	0.270	80.16	-1.30	0.60	 	 	 	 	 	 	 	 	 	 	 	 	 	 	 	 	 	 	1581534006	0.78	1.44
12/02/2020 19:00:07	120220	12022020	190007	79.63	12.418783	-56.733522	79.53	-0.140	-0.660	1.060	79.53	-1.90	1.40	 	 	 	 	 	 	 	 	 	 	 	 	 	 	 	 	 	 	1581534007	1.27	2.35
12/02/2020 19:00:08	120220	12022020	190008	79.29	12.418782	-56.733515	79.33	0.110	-1.200	1.410	79.28	-2.50	1.80	 	 	 	 	 	 	 	 	 	 	 	 	 	 	 	 	 	 	1581534008	1.31	2.43
12/02/2020 19:00:09	120220	12022020	190009	79.39	12.418782	-56.733513	79.50	0.130	-0.770	1.180	79.44	-2.30	1.70	 	 	 	 	 	 	 	 	 	 	 	 	 	 	 	 	 	 	1581534009	0.42	0.78
12/02/2020 19:00:10	120220	12022020	190010	79.72	12.418783	-56.733517	79.86	-0.070	0.260	0.440	79.80	-1.30	1.00	 	 	 	 	 	 	 	 	 	 	 	 	 	 	 	 	 	 	1581534010	0.99	1.83
12/02/2020 19:00:11	120220	12022020	190011	80.09	12.418788	-56.733522	80.22	-0.200	0.950	-0.330	80.17	-0.50	0.20	 	 	 	 	 	 	 	 	 	 	 	 	 	 	 	 	 	 	1581534011	1.35	2.50
12/02/2020 19:00:12	120220	12022020	190012	80.44	12.418790	-56.733525	80.54	-0.040	0.800	-0.800	80.50	-0.50	-0.30	 	 	 	 	 	 	 	 	 	 	 	 	 	 	 	 	 	 	1581534012	0.73	1.35
12/02/2020 19:00:13	120220	12022020	190013	80.59	12.418792	-56.733522	80.58	0.270	0.150	-0.740	80.56	-1.20	-0.40	 	 	 	 	 	 	 	 	 	 	 	 	 	 	 	 	 	 	1581534013	0.46	0.85
12/02/2020 19:00:14	120220	12022020	190014	80.32	12.418792	-56.733520	80.23	0.380	-0.470	-0.160	80.23	-1.80	0.20	 	 	 	 	 	 	 	 	 	 	 	 	 	 	 	 	 	 	1581534014	0.54	1.00
12/02/2020 19:00:15	120220	12022020	190015	79.98	12.418790	-56.733518	79.96	0.120	-0.760	0.530	79.94	-2.10	0.90	 	 	 	 	 	 	 	 	 	 	 	 	 	 	 	 	 	 	1581534015	0.38	0.70
12/02/2020 19:00:16	120220	12022020	190016	79.89	12.418788	-56.733518	79.94	-0.230	-0.880	1.140	79.88	-2.30	1.50	 	 	 	 	 	 	 	 	 	 	 	 	 	 	 	 	 	 	1581534016	0.41	0.76
12/02/2020 19:00:17	120220	12022020	190017	79.88	12.418787	-56.733517	79.91	-0.260	-0.980	1.720	79.87	-2.40	2.10	 	 	 	 	 	 	 	 	 	 	 	 	 	 	 	 	 	 	1581534017	0.64	1.19
12/02/2020 19:00:18	120220	12022020	190018	79.82	12.418783	-56.733515	79.87	0.030	-0.820	2.090	79.81	-2.30	2.50	 	 	 	 	 	 	 	 	 	 	 	 	 	 	 	 	 	 	1581534018	0.85	1.57
12/02/2020 19:00:19	120220	12022020	190019	79.79	12.418780	-56.733515	79.87	0.180	-0.120	2.210	79.81	-1.60	2.60	 	 	 	 	 	 	 	 	 	 	 	 	 	 	 	 	 	 	1581534019	0.69	1.28
12/02/2020 19:00:20	120220	12022020	190020	79.89	12.418777	-56.733517	80.00	-0.080	0.800	2.050	79.92	-0.70	2.50	 	 	 	 	 	 	 	 	 	 	 	 	 	 	 	 	 	 	1581534020	0.71	1.31
12/02/2020 19:00:21	120220	12022020	190021	80.05	12.418778	-56.733522	80.13	-0.500	1.140	1.490	80.07	-0.20	2.00	 	 	 	 	 	 	 	 	 	 	 	 	 	 	 	 	 	 	1581534021	0.78	1.44
12/02/2020 19:00:22	120220	12022020	190022	80.13	12.418783	-56.733522	80.17	-0.630	0.600	0.570	80.14	-0.70	1.10	 	 	 	 	 	 	 	 	 	 	 	 	 	 	 	 	 	 	1581534022	1.13	2.09
12/02/2020 19:00:23	120220	12022020	190023	80.13	12.418790	-56.733520	80.14	-0.310	-0.390	-0.340	80.13	-1.60	0.20	 	 	 	 	 	 	 	 	 	 	 	 	 	 	 	 	 	 	1581534023	1.52	2.82
12/02/2020 19:00:24	120220	12022020	190024	80.20	12.418797	-56.733518	80.24	0.170	-1.020	-0.980	80.22	-2.40	-0.50	 	 	 	 	 	 	 	 	 	 	 	 	 	 	 	 	 	 	1581534024	1.30	2.41
12/02/2020 19:00:25	120220	12022020	190025	80.38	12.418798	-56.733518	80.43	0.410	-0.950	-1.150	80.41	-2.40	-0.70	 	 	 	 	 	 	 	 	 	 	 	 	 	 	 	 	 	 	1581534025	0.49	0.91
12/02/2020 19:00:26	120220	12022020	190026	80.52	12.418798	-56.733520	80.53	0.390	-0.570	-0.900	80.53	-2.00	-0.50	 	 	 	 	 	 	 	 	 	 	 	 	 	 	 	 	 	 	1581534026	0.46	0.85
12/02/2020 19:00:27	120220	12022020	190027	80.46	12.418795	-56.733520	80.42	0.320	-0.420	-0.320	80.41	-1.80	-0.00	 	 	 	 	 	 	 	 	 	 	 	 	 	 	 	 	 	 	1581534027	0.57	1.06
12/02/2020 19:00:28	120220	12022020	190028	80.17	12.418792	-56.733518	80.13	0.340	-0.620	0.550	80.10	-2.00	0.80	 	 	 	 	 	 	 	 	 	 	 	 	 	 	 	 	 	 	1581534028	0.77	1.43
12/02/2020 19:00:29	120220	12022020	190029	79.89	12.418790	-56.733515	79.94	0.320	-0.680	1.420	79.87	-2.10	1.70	 	 	 	 	 	 	 	 	 	 	 	 	 	 	 	 	 	 	1581534029	1.05	1.94
12/02/2020 19:00:30	120220	12022020	190030	79.94	12.418787	-56.733512	80.10	0.100	-0.120	1.880	79.99	-1.60	2.20	 	 	 	 	 	 	 	 	 	 	 	 	 	 	 	 	 	 	1581534030	0.72	1.33
12/02/2020 19:00:31	120220	12022020	190031	80.18	12.418783	-56.733515	80.42	-0.340	0.890	1.890	80.24	-0.70	2.30	 	 	 	 	 	 	 	 	 	 	 	 	 	 	 	 	 	 	1581534031	0.69	1.28
12/02/2020 19:00:32	120220	12022020	190032	80.49	12.418783	-56.733518	80.61	-0.750	1.550	1.710	80.51	0.10	2.10	 	 	 	 	 	 	 	 	 	 	 	 	 	 	 	 	 	 	1581534032	0.97	1.80
12/02/2020 19:00:33	120220	12022020	190033	80.52	12.418783	-56.733522	80.57	-0.830	1.160	1.510	80.51	-0.10	1.90	 	 	 	 	 	 	 	 	 	 	 	 	 	 	 	 	 	 	1581534033	0.47	0.87
12/02/2020 19:00:34	120220	12022020	190034	80.42	12.418785	-56.733518	80.46	-0.530	-0.130	1.100	80.40	-1.30	1.60	 	 	 	 	 	 	 	 	 	 	 	 	 	 	 	 	 	 	1581534034	0.59	1.09
12/02/2020 19:00:35	120220	12022020	190035	80.40	12.418788	-56.733515	80.48	-0.040	-1.320	0.440	80.43	-2.60	1.00	 	 	 	 	 	 	 	 	 	 	 	 	 	 	 	 	 	 	1581534035	1.19	2.20
12/02/2020 19:00:36	120220	12022020	190036	80.55	12.418793	-56.733513	80.60	0.370	-1.740	-0.220	80.58	-3.10	0.30	 	 	 	 	 	 	 	 	 	 	 	 	 	 	 	 	 	 	1581534036	1.09	2.02
12/02/2020 19:00:37	120220	12022020	190037	80.65	12.418797	-56.733513	80.65	0.620	-1.540	-0.530	80.65	-3.00	-0.10	 	 	 	 	 	 	 	 	 	 	 	 	 	 	 	 	 	 	1581534037	0.63	1.17
12/02/2020 19:00:38	120220	12022020	190038	80.56	12.418797	-56.733513	80.51	0.700	-1.120	-0.290	80.52	-2.60	0.10	 	 	 	 	 	 	 	 	 	 	 	 	 	 	 	 	 	 	1581534038	0.01	0.02
12/02/2020 19:00:39	120220	12022020	190039	80.35	12.418793	-56.733512	80.31	0.610	-0.610	0.400	80.31	-2.10	0.70	 	 	 	 	 	 	 	 	 	 	 	 	 	 	 	 	 	 	1581534039	0.78	1.44
12/02/2020 19:00:40	120220	12022020	190040	80.11	12.418788	-56.733512	80.08	0.350	0.150	1.100	80.06	-1.40	1.40	 	 	 	 	 	 	 	 	 	 	 	 	 	 	 	 	 	 	1581534040	1.10	2.04
12/02/2020 19:00:41	120220	12022020	190041	79.82	12.418785	-56.733512	79.78	-0.080	1.220	1.530	79.76	-0.30	1.90	 	 	 	 	 	 	 	 	 	 	 	 	 	 	 	 	 	 	1581534041	0.85	1.57
12/02/2020 19:00:42	120220	12022020	190042	79.53	12.418783	-56.733517	79.52	-0.600	2.030	1.550	79.49	0.60	2.00	 	 	 	 	 	 	 	 	 	 	 	 	 	 	 	 	 	 	1581534042	0.85	1.57
12/02/2020 19:00:43	120220	12022020	190043	79.37	12.418787	-56.733518	79.37	-0.960	1.760	1.110	79.35	0.50	1.60	 	 	 	 	 	 	 	 	 	 	 	 	 	 	 	 	 	 	1581534043	0.90	1.67
12/02/2020 19:00:44	120220	12022020	190044	79.41	12.418792	-56.733518	79.49	-0.860	0.190	0.340	79.46	-0.90	0.90	 	 	 	 	 	 	 	 	 	 	 	 	 	 	 	 	 	 	1581534044	1.17	2.17
12/02/2020 19:00:45	120220	12022020	190045	79.80	12.418798	-56.733512	79.97	-0.250	-1.920	-0.480	79.92	-3.00	0.00	 	 	 	 	 	 	 	 	 	 	 	 	 	 	 	 	 	 	1581534045	1.78	3.30
12/02/2020 19:00:46	120220	12022020	190046	80.35	12.418800	-56.733505	80.42	0.600	-3.230	-0.760	80.40	-4.50	-0.40	 	 	 	 	 	 	 	 	 	 	 	 	 	 	 	 	 	 	1581534046	1.72	3.19
12/02/2020 19:00:47	120220	12022020	190047	80.39	12.418798	-56.733502	80.30	1.030	-2.530	-0.270	80.33	-4.10	0.00	 	 	 	 	 	 	 	 	 	 	 	 	 	 	 	 	 	 	1581534047	0.85	1.57
12/02/2020 19:00:48	120220	12022020	190048	79.92	12.418792	-56.733507	79.75	0.600	-0.200	0.530	79.79	-2.00	0.80	 	 	 	 	 	 	 	 	 	 	 	 	 	 	 	 	 	 	1581534048	1.74	3.22
12/02/2020 19:00:49	120220	12022020	190049	79.23	12.418785	-56.733517	79.06	-0.260	2.030	1.170	79.09	0.40	1.50	 	 	 	 	 	 	 	 	 	 	 	 	 	 	 	 	 	 	1581534049	2.50	4.63
12/02/2020 19:00:50	120220	12022020	190050	78.56	12.418783	-56.733522	78.44	-0.720	2.400	1.320	78.44	1.10	1.70	 	 	 	 	 	 	 	 	 	 	 	 	 	 	 	 	 	 	1581534050	1.32	2.44
12/02/2020 19:00:51	120220	12022020	190051	78.10	12.418787	-56.733520	78.05	-0.410	0.760	1.070	78.05	-0.40	1.50	 	 	 	 	 	 	 	 	 	 	 	 	 	 	 	 	 	 	1581534051	1.11	2.06
12/02/2020 19:00:52	120220	12022020	190052	77.96	12.418795	-56.733512	78.00	0.210	-1.280	0.570	77.98	-2.40	1.10	 	 	 	 	 	 	 	 	 	 	 	 	 	 	 	 	 	 	1581534052	2.44	4.52
12/02/2020 19:00:53	120220	12022020	190053	78.21	12.418803	-56.733507	78.36	0.480	-1.990	-0.060	78.31	-3.40	0.40	 	 	 	 	 	 	 	 	 	 	 	 	 	 	 	 	 	 	1581534053	1.91	3.54
12/02/2020 19:00:54	120220	12022020	190054	78.79	12.418805	-56.733508	78.99	0.250	-1.090	-0.420	78.93	-2.70	0.00	 	 	 	 	 	 	 	 	 	 	 	 	 	 	 	 	 	 	1581534054	0.74	1.37
12/02/2020 19:00:55	120220	12022020	190055	79.41	12.418802	-56.733515	79.55	-0.150	0.190	-0.140	79.50	-1.40	0.20	 	 	 	 	 	 	 	 	 	 	 	 	 	 	 	 	 	 	1581534055	1.48	2.74
12/02/2020 19:00:56	120220	12022020	190056	79.71	12.418795	-56.733518	79.75	-0.380	0.780	0.830	79.71	-0.70	1.10	 	 	 	 	 	 	 	 	 	 	 	 	 	 	 	 	 	 	1581534056	1.68	3.11
12/02/2020 19:00:57	120220	12022020	190057	79.55	12.418787	-56.733517	79.52	-0.320	0.570	2.060	79.46	-0.80	2.30	 	 	 	 	 	 	 	 	 	 	 	 	 	 	 	 	 	 	1581534057	1.88	3.48
12/02/2020 19:00:58	120220	12022020	190058	79.00	12.418778	-56.733513	78.91	-0.050	-0.120	3.030	78.88	-1.40	3.30	 	 	 	 	 	 	 	 	 	 	 	 	 	 	 	 	 	 	1581534058	1.79	3.32
12/02/2020 19:00:59	120220	12022020	190059	78.33	12.418775	-56.733508	78.24	0.280	-0.890	3.380	78.22	-2.20	3.80	 	 	 	 	 	 	 	 	 	 	 	 	 	 	 	 	 	 	1581534059	1.23	2.28
12/02/2020 19:01:00	120220	12022020	190100	77.87	12.418778	-56.733507	77.87	0.540	-1.240	2.850	77.83	-2.60	3.40	 	 	 	 	 	 	 	 	 	 	 	 	 	 	 	 	 	 	1581534060	0.80	1.48
12/02/2020 19:01:01	120220	12022020	190101	77.85	12.418785	-56.733507	77.94	0.590	-0.850	1.500	77.89	-2.30	2.10	 	 	 	 	 	 	 	 	 	 	 	 	 	 	 	 	 	 	1581534061	1.72	3.19
12/02/2020 19:01:02	120220	12022020	190102	78.18	12.418797	-56.733512	78.29	0.380	0.030	-0.220	78.27	-1.50	0.40	1014.60	26.30	26.40	19.50	19.70	245.0	66.0	66.0	438.0	27.1	348.00	12.10	68.00	11.60	20959	12300.0	27.4	27.4	1581534062	2.57	4.76
12/02/2020 19:01:03	120220	12022020	190103	78.65	12.418807	-56.733517	78.76	0.040	0.690	-1.730	78.76	-0.80	-1.10	 	 	 	 	 	 	 	 	 	 	 	 	 	 	 	 	 	 	1581534063	2.47	4.57
12/02/2020 19:01:04	120220	12022020	190104	79.18	12.418813	-56.733520	79.28	-0.310	0.710	-2.480	79.28	-0.70	-2.00	 	 	 	 	 	 	 	 	 	 	 	 	 	 	 	 	 	 	1581534064	1.36	2.52
12/02/2020 19:01:05	120220	12022020	190105	79.55	12.418812	-56.733518	79.57	-0.550	0.230	-2.220	79.58	-1.10	-1.90	 	 	 	 	 	 	 	 	 	 	 	 	 	 	 	 	 	 	1581534065	0.29	0.54
12/02/2020 19:01:06	120220	12022020	190106	79.51	12.418807	-56.733515	79.44	-0.550	-0.340	-1.040	79.45	-1.70	-0.80	 	 	 	 	 	 	 	 	 	 	 	 	 	 	 	 	 	 	1581534066	1.47	2.72
12/02/2020 19:01:07	120220	12022020	190107	79.05	12.418797	-56.733512	78.95	-0.280	-0.710	0.600	78.94	-2.10	0.80	 	 	 	 	 	 	 	 	 	 	 	 	 	 	 	 	 	 	1581534067	2.19	4.06
12/02/2020 19:01:08	120220	12022020	190108	78.55	12.418787	-56.733508	78.55	0.090	-0.780	2.060	78.48	-2.20	2.30	 	 	 	 	 	 	 	 	 	 	 	 	 	 	 	 	 	 	1581534068	2.11	3.91
12/02/2020 19:01:09	120220	12022020	190109	78.37	12.418782	-56.733508	78.46	0.320	-0.590	2.880	78.38	-2.00	3.20	 	 	 	 	 	 	 	 	 	 	 	 	 	 	 	 	 	 	1581534069	1.26	2.33
12/02/2020 19:01:10	120220	12022020	190110	78.49	12.418780	-56.733508	78.60	0.360	-0.310	3.000	78.54	-1.70	3.40	 	 	 	 	 	 	 	 	 	 	 	 	 	 	 	 	 	 	1581534070	0.31	0.57
12/02/2020 19:01:11	120220	12022020	190111	78.69	12.418782	-56.733508	78.75	0.330	-0.220	2.500	78.72	-1.60	3.00	 	 	 	 	 	 	 	 	 	 	 	 	 	 	 	 	 	 	1581534071	0.50	0.93
12/02/2020 19:01:12	120220	12022020	190112	78.79	12.418787	-56.733508	78.80	0.320	-0.250	1.680	78.79	-1.60	2.20	 	 	 	 	 	 	 	 	 	 	 	 	 	 	 	 	 	 	1581534072	0.98	1.81
12/02/2020 19:01:13	120220	12022020	190113	78.78	12.418792	-56.733508	78.76	0.260	-0.100	0.890	78.77	-1.50	1.40	 	 	 	 	 	 	 	 	 	 	 	 	 	 	 	 	 	 	1581534073	1.02	1.89
12/02/2020 19:01:14	120220	12022020	190114	78.72	12.418795	-56.733508	78.69	0.080	0.180	0.260	78.70	-1.30	0.80	 	 	 	 	 	 	 	 	 	 	 	 	 	 	 	 	 	 	1581534074	0.85	1.57
12/02/2020 19:01:15	120220	12022020	190115	78.66	12.418798	-56.733510	78.67	-0.070	0.140	-0.230	78.67	-1.20	0.30	 	 	 	 	 	 	 	 	 	 	 	 	 	 	 	 	 	 	1581534075	0.79	1.46
12/02/2020 19:01:16	120220	12022020	190116	78.82	12.418803	-56.733508	78.89	-0.080	-0.260	-0.790	78.87	-1.60	-0.30	 	 	 	 	 	 	 	 	 	 	 	 	 	 	 	 	 	 	1581534076	0.94	1.74
12/02/2020 19:01:17	120220	12022020	190117	79.09	12.418807	-56.733507	79.14	-0.040	-0.460	-1.110	79.14	-1.90	-0.70	 	 	 	 	 	 	 	 	 	 	 	 	 	 	 	 	 	 	1581534077	0.82	1.52
12/02/2020 19:01:18	120220	12022020	190118	79.22	12.418805	-56.733507	79.23	-0.180	-0.150	-0.870	79.23	-1.60	-0.50	 	 	 	 	 	 	 	 	 	 	 	 	 	 	 	 	 	 	1581534078	0.19	0.35
12/02/2020 19:01:19	120220	12022020	190119	79.21	12.418800	-56.733508	79.22	-0.520	0.440	-0.050	79.20	-1.00	0.20	 	 	 	 	 	 	 	 	 	 	 	 	 	 	 	 	 	 	1581534079	1.21	2.24
12/02/2020 19:01:20	120220	12022020	190120	79.10	12.418793	-56.733510	79.12	-0.720	0.680	1.030	79.07	-0.70	1.30	 	 	 	 	 	 	 	 	 	 	 	 	 	 	 	 	 	 	1581534080	1.69	3.13
12/02/2020 19:01:21	120220	12022020	190121	78.94	12.418787	-56.733508	78.90	-0.450	0.040	1.940	78.90	-1.20	2.20	 	 	 	 	 	 	 	 	 	 	 	 	 	 	 	 	 	 	1581534081	1.31	2.43
12/02/2020 19:01:22	120220	12022020	190122	78.61	12.418785	-56.733503	78.60	0.240	-1.230	2.370	78.55	-2.40	2.80	 	 	 	 	 	 	 	 	 	 	 	 	 	 	 	 	 	 	1581534082	1.16	2.15
12/02/2020 19:01:23	120220	12022020	190123	78.42	12.418787	-56.733497	78.46	0.930	-2.170	2.260	78.40	-3.50	2.70	 	 	 	 	 	 	 	 	 	 	 	 	 	 	 	 	 	 	1581534083	1.49	2.76
12/02/2020 19:01:24	120220	12022020	190124	78.46	12.418792	-56.733493	78.56	1.190	-1.840	1.810	78.49	-3.40	2.30	 	 	 	 	 	 	 	 	 	 	 	 	 	 	 	 	 	 	1581534084	1.11	2.06
12/02/2020 19:01:25	120220	12022020	190125	78.71	12.418795	-56.733497	78.81	0.800	-0.240	1.180	78.76	-1.90	1.70	 	 	 	 	 	 	 	 	 	 	 	 	 	 	 	 	 	 	1581534085	0.89	1.65
12/02/2020 19:01:26	120220	12022020	190126	78.98	12.418797	-56.733503	79.06	-0.070	1.580	0.520	79.03	-0.10	1.00	 	 	 	 	 	 	 	 	 	 	 	 	 	 	 	 	 	 	1581534086	1.63	3.02
12/02/2020 19:01:27	120220	12022020	190127	79.18	12.418798	-56.733510	79.25	-0.930	2.390	-0.090	79.21	1.00	0.40	 	 	 	 	 	 	 	 	 	 	 	 	 	 	 	 	 	 	1581534087	1.47	2.72
12/02/2020 19:01:28	120220	12022020	190128	79.29	12.418800	-56.733512	79.34	-1.250	1.670	-0.490	79.31	0.40	-0.00	 	 	 	 	 	 	 	 	 	 	 	 	 	 	 	 	 	 	1581534088	0.35	0.65
12/02/2020 19:01:29	120220	12022020	190129	79.28	12.418798	-56.733507	79.28	-0.880	-0.080	-0.480	79.26	-1.20	-0.10	 	 	 	 	 	 	 	 	 	 	 	 	 	 	 	 	 	 	1581534089	1.01	1.87
12/02/2020 19:01:30	120220	12022020	190130	79.14	12.418797	-56.733500	79.10	-0.180	-1.660	-0.190	79.10	-2.90	0.20	 	 	 	 	 	 	 	 	 	 	 	 	 	 	 	 	 	 	1581534090	1.49	2.76
12/02/2020 19:01:31	120220	12022020	190131	78.94	12.418797	-56.733495	78.91	0.340	-2.200	0.160	78.90	-3.60	0.50	 	 	 	 	 	 	 	 	 	 	 	 	 	 	 	 	 	 	1581534091	0.92	1.70
12/02/2020 19:01:32	120220	12022020	190132	78.73	12.418795	-56.733495	78.70	0.460	-1.630	0.570	78.69	-3.10	0.90	 	 	 	 	 	 	 	 	 	 	 	 	 	 	 	 	 	 	1581534092	0.37	0.69
12/02/2020 19:01:33	120220	12022020	190133	78.52	12.418792	-56.733498	78.50	0.340	-0.690	1.060	78.48	-2.20	1.40	 	 	 	 	 	 	 	 	 	 	 	 	 	 	 	 	 	 	1581534093	0.79	1.46
12/02/2020 19:01:34	120220	12022020	190134	78.39	12.418790	-56.733500	78.41	0.310	-0.070	1.390	78.37	-1.50	1.80	 	 	 	 	 	 	 	 	 	 	 	 	 	 	 	 	 	 	1581534094	0.50	0.93
12/02/2020 19:01:35	120220	12022020	190135	78.38	12.418790	-56.733498	78.44	0.370	0.250	1.340	78.39	-1.20	1.80	 	 	 	 	 	 	 	 	 	 	 	 	 	 	 	 	 	 	1581534095	0.26	0.48
12/02/2020 19:01:36	120220	12022020	190136	78.57	12.418793	-56.733498	78.69	0.300	0.630	0.930	78.63	-0.80	1.40	 	 	 	 	 	 	 	 	 	 	 	 	 	 	 	 	 	 	1581534096	0.53	0.98
12/02/2020 19:01:37	120220	12022020	190137	78.91	12.418795	-56.733500	79.01	-0.040	1.000	0.450	78.96	-0.40	0.90	 	 	 	 	 	 	 	 	 	 	 	 	 	 	 	 	 	 	1581534097	0.48	0.89
12/02/2020 19:01:38	120220	12022020	190138	79.14	12.418795	-56.733502	79.20	-0.400	0.870	0.190	79.16	-0.50	0.60	 	 	 	 	 	 	 	 	 	 	 	 	 	 	 	 	 	 	1581534098	0.38	0.70
12/02/2020 19:01:39	120220	12022020	190139	79.25	12.418795	-56.733500	79.30	-0.490	0.050	0.270	79.27	-1.20	0.70	 	 	 	 	 	 	 	 	 	 	 	 	 	 	 	 	 	 	1581534099	0.27	0.50
12/02/2020 19:01:40	120220	12022020	190140	79.24	12.418795	-56.733495	79.23	-0.240	-0.930	0.650	79.21	-2.20	1.00	 	 	 	 	 	 	 	 	 	 	 	 	 	 	 	 	 	 	1581534100	0.90	1.67
12/02/2020 19:01:41	120220	12022020	190141	78.98	12.418792	-56.733492	78.94	0.110	-1.390	1.110	78.91	-2.80	1.50	 	 	 	 	 	 	 	 	 	 	 	 	 	 	 	 	 	 	1581534101	0.98	1.81
12/02/2020 19:01:42	120220	12022020	190142	78.69	12.418790	-56.733490	78.71	0.270	-1.190	1.420	78.66	-2.60	1.80	 	 	 	 	 	 	 	 	 	 	 	 	 	 	 	 	 	 	1581534102	0.64	1.19
12/02/2020 19:01:43	120220	12022020	190143	78.71	12.418788	-56.733492	78.83	0.170	-0.550	1.450	78.76	-2.00	1.90	 	 	 	 	 	 	 	 	 	 	 	 	 	 	 	 	 	 	1581534103	0.39	0.72
12/02/2020 19:01:44	120220	12022020	190144	79.05	12.418787	-56.733493	79.19	-0.100	0.230	1.150	79.13	-1.30	1.60	 	 	 	 	 	 	 	 	 	 	 	 	 	 	 	 	 	 	1581534104	0.52	0.96
12/02/2020 19:01:45	120220	12022020	190145	79.35	12.418788	-56.733497	79.40	-0.290	0.580	0.740	79.37	-0.80	1.20	 	 	 	 	 	 	 	 	 	 	 	 	 	 	 	 	 	 	1581534105	0.57	1.06
12/02/2020 19:01:46	120220	12022020	190146	79.26	12.418790	-56.733495	79.21	-0.250	0.350	0.630	79.21	-1.00	1.10	 	 	 	 	 	 	 	 	 	 	 	 	 	 	 	 	 	 	1581534106	0.40	0.74
12/02/2020 19:01:47	120220	12022020	190147	79.03	12.418792	-56.733493	79.05	-0.090	-0.110	0.630	79.03	-1.40	1.10	 	 	 	 	 	 	 	 	 	 	 	 	 	 	 	 	 	 	1581534107	0.55	1.02
12/02/2020 19:01:48	120220	12022020	190148	79.19	12.418792	-56.733492	79.31	0.040	-0.390	0.450	79.26	-1.80	0.90	 	 	 	 	 	 	 	 	 	 	 	 	 	 	 	 	 	 	1581534108	0.43	0.80
12/02/2020 19:01:49	120220	12022020	190149	79.55	12.418792	-56.733490	79.62	0.150	-0.390	0.240	79.59	-1.80	0.70	 	 	 	 	 	 	 	 	 	 	 	 	 	 	 	 	 	 	1581534109	0.09	0.17
12/02/2020 19:01:50	120220	12022020	190150	79.62	12.418792	-56.733490	79.59	0.280	-0.330	0.280	79.59	-1.70	0.70	 	 	 	 	 	 	 	 	 	 	 	 	 	 	 	 	 	 	1581534110	0.17	0.31
12/02/2020 19:01:51	120220	12022020	190151	79.44	12.418793	-56.733490	79.42	0.310	-0.330	0.520	79.42	-1.70	0.90	 	 	 	 	 	 	 	 	 	 	 	 	 	 	 	 	 	 	1581534111	0.20	0.37
12/02/2020 19:01:52	120220	12022020	190152	79.45	12.418793	-56.733490	79.54	0.190	-0.370	0.760	79.49	-1.80	1.20	 	 	 	 	 	 	 	 	 	 	 	 	 	 	 	 	 	 	1581534112	0.21	0.39
12/02/2020 19:01:53	120220	12022020	190153	79.78	12.418792	-56.733488	79.93	-0.040	-0.370	0.980	79.85	-1.80	1.40	 	 	 	 	 	 	 	 	 	 	 	 	 	 	 	 	 	 	1581534113	0.35	0.65
12/02/2020 19:01:54	120220	12022020	190154	80.06	12.418788	-56.733487	80.13	-0.180	-0.280	1.380	80.07	-1.70	1.70	 	 	 	 	 	 	 	 	 	 	 	 	 	 	 	 	 	 	1581534114	0.79	1.46
12/02/2020 19:01:55	120220	12022020	190155	79.98	12.418785	-56.733485	79.97	-0.160	-0.080	1.810	79.93	-1.50	2.20	 	 	 	 	 	 	 	 	 	 	 	 	 	 	 	 	 	 	1581534115	1.05	1.94
12/02/2020 19:01:56	120220	12022020	190156	79.79	12.418782	-56.733485	79.84	-0.080	0.250	1.860	79.78	-1.20	2.30	 	 	 	 	 	 	 	 	 	 	 	 	 	 	 	 	 	 	1581534116	0.56	1.04
12/02/2020 19:01:57	120220	12022020	190157	79.85	12.418782	-56.733487	79.97	-0.090	0.410	1.550	79.89	-1.00	2.00	 	 	 	 	 	 	 	 	 	 	 	 	 	 	 	 	 	 	1581534117	0.28	0.52
12/02/2020 19:01:58	120220	12022020	190158	80.04	12.418785	-56.733487	80.10	-0.150	0.130	1.050	80.06	-1.20	1.60	 	 	 	 	 	 	 	 	 	 	 	 	 	 	 	 	 	 	1581534118	0.55	1.02
12/02/2020 19:01:59	120220	12022020	190159	80.09	12.418788	-56.733487	80.07	-0.090	-0.480	0.660	80.07	-1.80	1.10	 	 	 	 	 	 	 	 	 	 	 	 	 	 	 	 	 	 	1581534119	0.71	1.31
12/02/2020 19:02:00	120220	12022020	190200	79.95	12.418790	-56.733483	79.93	0.140	-0.980	0.300	79.93	-2.30	0.80	 	 	 	 	 	 	 	 	 	 	 	 	 	 	 	 	 	 	1581534120	0.82	1.52
12/02/2020 19:02:01	120220	12022020	190201	79.91	12.418793	-56.733482	79.95	0.300	-0.940	-0.070	79.93	-2.40	0.40	 	 	 	 	 	 	 	 	 	 	 	 	 	 	 	 	 	 	1581534121	0.74	1.37
12/02/2020 19:02:02	120220	12022020	190202	80.09	12.418795	-56.733483	80.17	0.170	-0.360	-0.110	80.13	-1.90	0.30	1014.50	26.30	26.40	19.30	19.50	227.0	65.0	65.0	439.0	27.1	349.00	11.70	68.00	11.30	19862	11844.0	27.4	27.4	1581534122	0.39	0.72
12/02/2020 19:02:03	120220	12022020	190203	80.33	12.418793	-56.733485	80.42	-0.140	0.280	0.280	80.38	-1.20	0.60	 	 	 	 	 	 	 	 	 	 	 	 	 	 	 	 	 	 	1581534123	0.66	1.22
12/02/2020 19:02:04	120220	12022020	190204	80.51	12.418788	-56.733487	80.57	-0.330	0.480	0.890	80.53	-0.90	1.20	 	 	 	 	 	 	 	 	 	 	 	 	 	 	 	 	 	 	1581534124	0.95	1.76
12/02/2020 19:02:05	120220	12022020	190205	80.57	12.418785	-56.733485	80.63	-0.200	0.130	1.370	80.58	-1.20	1.70	 	 	 	 	 	 	 	 	 	 	 	 	 	 	 	 	 	 	1581534125	0.97	1.80
12/02/2020 19:02:06	120220	12022020	190206	80.64	12.418782	-56.733482	80.71	0.100	-0.350	1.550	80.66	-1.70	2.00	 	 	 	 	 	 	 	 	 	 	 	 	 	 	 	 	 	 	1581534126	0.85	1.57
12/02/2020 19:02:07	120220	12022020	190207	80.72	12.418780	-56.733480	80.77	0.320	-0.530	1.610	80.73	-1.90	2.00	 	 	 	 	 	 	 	 	 	 	 	 	 	 	 	 	 	 	1581534127	0.49	0.91
12/02/2020 19:02:08	120220	12022020	190208	80.70	12.418780	-56.733478	80.72	0.310	-0.470	1.740	80.68	-1.90	2.20	 	 	 	 	 	 	 	 	 	 	 	 	 	 	 	 	 	 	1581534128	0.07	0.13
12/02/2020 19:02:09	120220	12022020	190209	80.62	12.418782	-56.733480	80.66	0.080	-0.290	1.770	80.61	-1.70	2.20	 	 	 	 	 	 	 	 	 	 	 	 	 	 	 	 	 	 	1581534129	0.13	0.24
12/02/2020 19:02:10	120220	12022020	190210	80.60	12.418782	-56.733480	80.62	-0.210	-0.080	1.540	80.59	-1.50	2.00	 	 	 	 	 	 	 	 	 	 	 	 	 	 	 	 	 	 	1581534130	0.20	0.37
12/02/2020 19:02:11	120220	12022020	190211	80.56	12.418782	-56.733482	80.55	-0.400	0.090	1.160	80.56	-1.30	1.60	 	 	 	 	 	 	 	 	 	 	 	 	 	 	 	 	 	 	1581534131	0.30	0.56
12/02/2020 19:02:12	120220	12022020	190212	80.52	12.418783	-56.733482	80.55	-0.400	0.140	0.790	80.54	-1.30	1.30	 	 	 	 	 	 	 	 	 	 	 	 	 	 	 	 	 	 	1581534132	0.37	0.69
12/02/2020 19:02:13	120220	12022020	190213	80.67	12.418787	-56.733483	80.88	-0.220	-0.020	0.230	80.74	-1.40	0.80	 	 	 	 	 	 	 	 	 	 	 	 	 	 	 	 	 	 	1581534133	0.44	0.81
12/02/2020 19:02:14	120220	12022020	190214	81.24	12.418788	-56.733482	81.38	0.030	-0.470	-0.460	81.34	-1.80	0.10	 	 	 	 	 	 	 	 	 	 	 	 	 	 	 	 	 	 	1581534134	0.56	1.04
12/02/2020 19:02:15	120220	12022020	190215	81.66	12.418790	-56.733480	81.70	0.260	-0.910	-0.760	81.70	-2.30	-0.30	 	 	 	 	 	 	 	 	 	 	 	 	 	 	 	 	 	 	1581534135	0.58	1.07
12/02/2020 19:02:16	120220	12022020	190216	81.68	12.418788	-56.733478	81.63	0.400	-0.870	-0.330	81.65	-2.30	0.00	 	 	 	 	 	 	 	 	 	 	 	 	 	 	 	 	 	 	1581534136	0.53	0.98
12/02/2020 19:02:17	120220	12022020	190217	81.41	12.418785	-56.733478	81.34	0.330	-0.220	0.500	81.34	-1.70	0.80	 	 	 	 	 	 	 	 	 	 	 	 	 	 	 	 	 	 	1581534137	0.88	1.63
12/02/2020 19:02:18	120220	12022020	190218	81.12	12.418780	-56.733482	81.10	0.020	0.590	1.210	81.07	-0.90	1.60	 	 	 	 	 	 	 	 	 	 	 	 	 	 	 	 	 	 	1581534138	1.16	2.15
12/02/2020 19:02:19	120220	12022020	190219	80.96	12.418777	-56.733485	81.00	-0.340	0.920	1.560	80.95	-0.50	2.00	 	 	 	 	 	 	 	 	 	 	 	 	 	 	 	 	 	 	1581534139	0.94	1.74
12/02/2020 19:02:20	120220	12022020	190220	80.94	12.418775	-56.733485	81.01	-0.490	0.430	1.700	80.95	-0.90	2.10	 	 	 	 	 	 	 	 	 	 	 	 	 	 	 	 	 	 	1581534140	0.32	0.59
12/02/2020 19:02:21	120220	12022020	190221	81.03	12.418775	-56.733482	81.13	-0.290	-0.620	1.800	81.06	-1.90	2.20	 	 	 	 	 	 	 	 	 	 	 	 	 	 	 	 	 	 	1581534141	0.63	1.17
12/02/2020 19:02:22	120220	12022020	190222	81.16	12.418775	-56.733478	81.24	0.110	-1.410	1.830	81.18	-2.70	2.30	 	 	 	 	 	 	 	 	 	 	 	 	 	 	 	 	 	 	1581534142	0.89	1.65
12/02/2020 19:02:23	120220	12022020	190223	81.17	12.418775	-56.733477	81.17	0.360	-1.340	1.660	81.15	-2.80	2.10	 	 	 	 	 	 	 	 	 	 	 	 	 	 	 	 	 	 	1581534143	0.38	0.70
12/02/2020 19:02:24	120220	12022020	190224	81.05	12.418777	-56.733478	81.03	0.250	-0.480	1.330	81.02	-2.00	1.80	 	 	 	 	 	 	 	 	 	 	 	 	 	 	 	 	 	 	1581534144	0.51	0.94
12/02/2020 19:02:25	120220	12022020	190225	81.01	12.418777	-56.733483	81.07	-0.130	0.520	1.050	81.02	-1.00	1.50	 	 	 	 	 	 	 	 	 	 	 	 	 	 	 	 	 	 	1581534145	1.03	1.91
12/02/2020 19:02:26	120220	12022020	190226	81.17	12.418777	-56.733487	81.30	-0.440	0.930	0.790	81.23	-0.50	1.30	 	 	 	 	 	 	 	 	 	 	 	 	 	 	 	 	 	 	1581534146	0.79	1.46
12/02/2020 19:02:27	120220	12022020	190227	81.51	12.418777	-56.733488	81.64	-0.390	0.620	0.450	81.57	-0.70	0.90	 	 	 	 	 	 	 	 	 	 	 	 	 	 	 	 	 	 	1581534147	0.18	0.33
12/02/2020 19:02:28	120220	12022020	190228	81.76	12.418778	-56.733487	81.79	0.000	-0.030	0.200	81.77	-1.40	0.70	 	 	 	 	 	 	 	 	 	 	 	 	 	 	 	 	 	 	1581534148	0.32	0.59
12/02/2020 19:02:29	120220	12022020	190229	81.72	12.418777	-56.733485	81.67	0.410	-0.630	0.220	81.67	-2.00	0.60	 	 	 	 	 	 	 	 	 	 	 	 	 	 	 	 	 	 	1581534149	0.49	0.91
12/02/2020 19:02:30	120220	12022020	190230	81.35	12.418777	-56.733482	81.21	0.570	-0.990	0.590	81.24	-2.40	1.00	 	 	 	 	 	 	 	 	 	 	 	 	 	 	 	 	 	 	1581534150	0.42	0.78
12/02/2020 19:02:31	120220	12022020	190231	80.77	12.418775	-56.733482	80.66	0.390	-0.990	1.140	80.66	-2.40	1.50	 	 	 	 	 	 	 	 	 	 	 	 	 	 	 	 	 	 	1581534151	0.31	0.57
12/02/2020 19:02:32	120220	12022020	190232	80.39	12.418773	-56.733482	80.39	0.050	-0.650	1.460	80.36	-2.10	1.90	 	 	 	 	 	 	 	 	 	 	 	 	 	 	 	 	 	 	1581534152	0.16	0.30
12/02/2020 19:02:33	120220	12022020	190233	80.42	12.418775	-56.733483	80.53	-0.230	-0.140	1.310	80.47	-1.60	1.80	 	 	 	 	 	 	 	 	 	 	 	 	 	 	 	 	 	 	1581534153	0.30	0.56
12/02/2020 19:02:34	120220	12022020	190234	80.79	12.418777	-56.733485	80.98	-0.400	0.350	0.790	80.91	-1.10	1.30	 	 	 	 	 	 	 	 	 	 	 	 	 	 	 	 	 	 	1581534154	0.64	1.19
12/02/2020 19:02:35	120220	12022020	190235	81.32	12.418778	-56.733487	81.73	-0.510	0.720	0.180	81.48	-0.70	0.70	 	 	 	 	 	 	 	 	 	 	 	 	 	 	 	 	 	 	1581534155	0.63	1.17
12/02/2020 19:02:36	120220	12022020	190236	82.30	12.418778	-56.733488	82.51	-0.570	0.850	-0.210	82.44	-0.60	0.30	 	 	 	 	 	 	 	 	 	 	 	 	 	 	 	 	 	 	1581534156	0.45	0.83
12/02/2020 19:02:37	120220	12022020	190237	82.79	12.418777	-56.733490	82.83	-0.440	0.450	-0.080	82.82	-0.90	0.30	 	 	 	 	 	 	 	 	 	 	 	 	 	 	 	 	 	 	1581534157	0.53	0.98
12/02/2020 19:02:38	120220	12022020	190238	82.69	12.418772	-56.733488	82.60	-0.040	-0.490	0.630	82.63	-1.80	0.90	 	 	 	 	 	 	 	 	 	 	 	 	 	 	 	 	 	 	1581534158	1.06	1.96
12/02/2020 19:02:39	120220	12022020	190239	82.24	12.418767	-56.733483	82.12	0.470	-1.500	1.520	82.15	-2.80	1.80	 	 	 	 	 	 	 	 	 	 	 	 	 	 	 	 	 	 	1581534159	1.48	2.74
12/02/2020 19:02:40	120220	12022020	190240	81.78	12.418763	-56.733478	81.72	0.840	-1.880	2.110	81.71	-3.30	2.50	 	 	 	 	 	 	 	 	 	 	 	 	 	 	 	 	 	 	1581534160	1.20	2.22
12/02/2020 19:02:41	120220	12022020	190241	81.55	12.418763	-56.733478	81.57	0.840	-1.210	2.170	81.54	-2.80	2.60	 	 	 	 	 	 	 	 	 	 	 	 	 	 	 	 	 	 	1581534161	0.21	0.39
12/02/2020 19:02:42	120220	12022020	190242	81.62	12.418765	-56.733482	81.71	0.410	0.160	1.670	81.67	-1.40	2.20	 	 	 	 	 	 	 	 	 	 	 	 	 	 	 	 	 	 	1581534162	1.09	2.02
12/02/2020 19:02:43	120220	12022020	190243	81.94	12.418770	-56.733488	82.07	-0.250	1.240	0.830	82.02	-0.30	1.40	 	 	 	 	 	 	 	 	 	 	 	 	 	 	 	 	 	 	1581534163	1.63	3.02
12/02/2020 19:02:44	120220	12022020	190244	82.40	12.418775	-56.733492	82.53	-0.720	1.370	0.000	82.50	0.00	0.50	 	 	 	 	 	 	 	 	 	 	 	 	 	 	 	 	 	 	1581534164	1.23	2.28
12/02/2020 19:02:45	120220	12022020	190245	82.89	12.418778	-56.733492	83.00	-0.720	0.630	-0.450	82.99	-0.70	0.00	 	 	 	 	 	 	 	 	 	 	 	 	 	 	 	 	 	 	1581534165	0.56	1.04
12/02/2020 19:02:46	120220	12022020	190246	83.30	12.418777	-56.733488	83.34	-0.350	-0.430	-0.400	83.35	-1.70	-0.00	 	 	 	 	 	 	 	 	 	 	 	 	 	 	 	 	 	 	1581534166	0.77	1.43
12/02/2020 19:02:47	120220	12022020	190247	83.37	12.418772	-56.733483	83.29	0.020	-1.190	0.210	83.33	-2.50	0.50	 	 	 	 	 	 	 	 	 	 	 	 	 	 	 	 	 	 	1581534167	1.30	2.41
12/02/2020 19:02:48	120220	12022020	190248	83.02	12.418765	-56.733482	82.89	0.130	-1.230	1.080	82.93	-2.70	1.40	 	 	 	 	 	 	 	 	 	 	 	 	 	 	 	 	 	 	1581534168	1.50	2.78
12/02/2020 19:02:49	120220	12022020	190249	82.65	12.418760	-56.733483	82.48	0.080	-0.710	1.630	82.57	-2.20	2.00	 	 	 	 	 	 	 	 	 	 	 	 	 	 	 	 	 	 	1581534169	1.12	2.07
12/02/2020 19:02:50	120220	12022020	190250	82.32	12.418760	-56.733485	82.30	0.190	-0.130	1.600	82.29	-1.60	2.10	 	 	 	 	 	 	 	 	 	 	 	 	 	 	 	 	 	 	1581534170	0.64	1.19
12/02/2020 19:02:51	120220	12022020	190251	82.31	12.418763	-56.733488	82.35	0.480	0.130	1.160	82.34	-1.30	1.70	 	 	 	 	 	 	 	 	 	 	 	 	 	 	 	 	 	 	1581534171	0.92	1.70
12/02/2020 19:02:52	120220	12022020	190252	82.55	12.418770	-56.733488	82.61	0.650	0.150	0.430	82.61	-1.30	1.00	 	 	 	 	 	 	 	 	 	 	 	 	 	 	 	 	 	 	1581534172	1.25	2.31
12/02/2020 19:02:53	120220	12022020	190253	82.88	12.418775	-56.733488	82.94	0.460	0.050	-0.160	82.94	-1.30	0.30	 	 	 	 	 	 	 	 	 	 	 	 	 	 	 	 	 	 	1581534173	1.11	2.06
12/02/2020 19:02:54	120220	12022020	190254	83.09	12.418775	-56.733488	83.08	0.030	-0.180	-0.170	83.10	-1.50	0.20	 	 	 	 	 	 	 	 	 	 	 	 	 	 	 	 	 	 	1581534174	0.23	0.43
12/02/2020 19:02:55	120220	12022020	190255	83.02	12.418772	-56.733487	82.94	-0.380	-0.450	0.400	82.97	-1.80	0.70	 	 	 	 	 	 	 	 	 	 	 	 	 	 	 	 	 	 	1581534175	0.83	1.54
12/02/2020 19:02:56	120220	12022020	190256	82.71	12.418767	-56.733485	82.63	-0.570	-0.500	1.170	82.65	-1.90	1.50	 	 	 	 	 	 	 	 	 	 	 	 	 	 	 	 	 	 	1581534176	1.35	2.50
12/02/2020 19:02:57	120220	12022020	190257	82.45	12.418762	-56.733485	82.44	-0.540	-0.210	1.570	82.42	-1.70	2.00	 	 	 	 	 	 	 	 	 	 	 	 	 	 	 	 	 	 	1581534177	1.09	2.02
12/02/2020 19:02:58	120220	12022020	190258	82.44	12.418758	-56.733487	82.53	-0.350	0.160	1.450	82.48	-1.30	1.90	 	 	 	 	 	 	 	 	 	 	 	 	 	 	 	 	 	 	1581534178	0.57	1.06
12/02/2020 19:02:59	120220	12022020	190259	82.73	12.418760	-56.733488	82.86	-0.100	0.320	1.000	82.81	-1.10	1.50	 	 	 	 	 	 	 	 	 	 	 	 	 	 	 	 	 	 	1581534179	0.44	0.81
12/02/2020 19:03:00	120220	12022020	190300	83.09	12.418762	-56.733490	83.16	0.110	0.260	0.510	83.14	-1.10	1.00	 	 	 	 	 	 	 	 	 	 	 	 	 	 	 	 	 	 	1581534180	0.59	1.09
12/02/2020 19:03:01	120220	12022020	190301	83.23	12.418763	-56.733492	83.21	0.120	0.070	0.220	83.24	-1.30	0.70	 	 	 	 	 	 	 	 	 	 	 	 	 	 	 	 	 	 	1581534181	0.50	0.93
12/02/2020 19:03:02	120220	12022020	190302	83.16	12.418765	-56.733492	83.08	0.060	-0.350	0.120	83.13	-1.70	0.60	1014.60	26.40	26.40	18.60	18.80	219.0	62.0	62.0	439.0	27.1	348.00	11.30	70.00	11.00	19481	11356.0	27.4	27.4	1581534182	0.18	0.33
12/02/2020 19:03:03	120220	12022020	190303	83.01	12.418765	-56.733490	82.92	0.290	-1.160	0.110	82.97	-2.40	0.50	 	 	 	 	 	 	 	 	 	 	 	 	 	 	 	 	 	 	1581534183	0.33	0.61
12/02/2020 19:03:04	120220	12022020	190304	82.77	12.418765	-56.733487	82.65	0.840	-1.930	0.330	82.71	-3.30	0.70	 	 	 	 	 	 	 	 	 	 	 	 	 	 	 	 	 	 	1581534184	0.96	1.78
12/02/2020 19:03:05	120220	12022020	190305	82.44	12.418763	-56.733482	82.36	1.120	-1.690	0.730	82.39	-3.20	1.10	 	 	 	 	 	 	 	 	 	 	 	 	 	 	 	 	 	 	1581534185	0.87	1.61
12/02/2020 19:03:06	120220	12022020	190306	82.33	12.418763	-56.733483	82.37	0.570	-0.050	1.010	82.34	-1.80	1.40	 	 	 	 	 	 	 	 	 	 	 	 	 	 	 	 	 	 	1581534186	0.45	0.83
12/02/2020 19:03:07	120220	12022020	190307	82.54	12.418762	-56.733492	82.68	-0.560	1.920	1.010	82.62	0.30	1.50	 	 	 	 	 	 	 	 	 	 	 	 	 	 	 	 	 	 	1581534187	1.76	3.26
12/02/2020 19:03:08	120220	12022020	190308	83.04	12.418762	-56.733500	83.23	-1.430	2.760	0.790	83.15	1.30	1.20	 	 	 	 	 	 	 	 	 	 	 	 	 	 	 	 	 	 	1581534188	1.78	3.30
12/02/2020 19:03:09	120220	12022020	190309	83.60	12.418760	-56.733503	83.74	-1.400	1.780	0.590	83.69	0.60	1.00	 	 	 	 	 	 	 	 	 	 	 	 	 	 	 	 	 	 	1581534189	0.58	1.07
12/02/2020 19:03:10	120220	12022020	190310	83.90	12.418758	-56.733498	83.90	-0.590	-0.330	0.660	83.91	-1.40	1.10	 	 	 	 	 	 	 	 	 	 	 	 	 	 	 	 	 	 	1581534190	1.06	1.96
12/02/2020 19:03:11	120220	12022020	190311	83.73	12.418755	-56.733492	83.61	0.400	-2.170	1.170	83.64	-3.40	1.50	 	 	 	 	 	 	 	 	 	 	 	 	 	 	 	 	 	 	1581534191	1.56	2.89
12/02/2020 19:03:12	120220	12022020	190312	83.34	12.418752	-56.733488	83.28	1.000	-2.760	1.710	83.29	-4.10	2.10	 	 	 	 	 	 	 	 	 	 	 	 	 	 	 	 	 	 	1581534192	1.04	1.93
12/02/2020 19:03:13	120220	12022020	190313	83.15	12.418750	-56.733490	83.12	1.040	-2.090	2.000	83.12	-3.60	2.40	 	 	 	 	 	 	 	 	 	 	 	 	 	 	 	 	 	 	1581534193	0.52	0.96
12/02/2020 19:03:14	120220	12022020	190314	83.01	12.418748	-56.733493	82.96	0.670	-0.780	1.980	82.99	-2.40	2.40	 	 	 	 	 	 	 	 	 	 	 	 	 	 	 	 	 	 	1581534194	0.90	1.67
12/02/2020 19:03:15	120220	12022020	190315	82.88	12.418750	-56.733498	82.85	0.120	0.620	1.580	82.86	-1.00	2.10	 	 	 	 	 	 	 	 	 	 	 	 	 	 	 	 	 	 	1581534195	1.12	2.07
12/02/2020 19:03:16	120220	12022020	190316	82.84	12.418753	-56.733503	82.84	-0.410	1.710	0.840	82.85	0.20	1.40	 	 	 	 	 	 	 	 	 	 	 	 	 	 	 	 	 	 	1581534196	1.37	2.54
12/02/2020 19:03:17	120220	12022020	190317	82.95	12.418758	-56.733508	82.95	-0.740	1.910	-0.050	82.97	0.50	0.50	 	 	 	 	 	 	 	 	 	 	 	 	 	 	 	 	 	 	1581534197	1.31	2.43
12/02/2020 19:03:18	120220	12022020	190318	83.09	12.418762	-56.733508	83.07	-0.730	1.000	-0.680	83.11	-0.20	-0.20	 	 	 	 	 	 	 	 	 	 	 	 	 	 	 	 	 	 	1581534198	0.92	1.70
12/02/2020 19:03:19	120220	12022020	190319	83.17	12.418765	-56.733505	83.15	-0.350	-0.540	-0.820	83.19	-1.70	-0.40	 	 	 	 	 	 	 	 	 	 	 	 	 	 	 	 	 	 	1581534199	0.78	1.44
12/02/2020 19:03:20	120220	12022020	190320	83.35	12.418763	-56.733500	83.39	0.280	-1.850	-0.710	83.40	-3.10	-0.30	 	 	 	 	 	 	 	 	 	 	 	 	 	 	 	 	 	 	1581534200	1.04	1.93
12/02/2020 19:03:21	120220	12022020	190321	83.52	12.418762	-56.733498	83.52	0.750	-2.050	-0.330	83.54	-3.50	0.00	 	 	 	 	 	 	 	 	 	 	 	 	 	 	 	 	 	 	1581534201	0.73	1.35
12/02/2020 19:03:22	120220	12022020	190322	83.49	12.418758	-56.733500	83.41	0.690	-0.990	0.370	83.44	-2.60	0.70	 	 	 	 	 	 	 	 	 	 	 	 	 	 	 	 	 	 	1581534202	0.91	1.69
12/02/2020 19:03:23	120220	12022020	190323	83.20	12.418753	-56.733507	83.10	0.220	0.410	1.400	83.12	-1.10	1.70	 	 	 	 	 	 	 	 	 	 	 	 	 	 	 	 	 	 	1581534203	1.72	3.19
12/02/2020 19:03:24	120220	12022020	190324	82.83	12.418748	-56.733512	82.77	-0.210	0.950	2.370	82.77	-0.40	2.70	 	 	 	 	 	 	 	 	 	 	 	 	 	 	 	 	 	 	1581534204	1.45	2.69
12/02/2020 19:03:25	120220	12022020	190325	82.62	12.418747	-56.733510	82.64	-0.300	0.370	2.780	82.61	-0.90	3.20	 	 	 	 	 	 	 	 	 	 	 	 	 	 	 	 	 	 	1581534205	0.60	1.11
12/02/2020 19:03:26	120220	12022020	190326	82.67	12.418747	-56.733507	82.75	-0.180	-0.360	2.580	82.70	-1.70	3.10	 	 	 	 	 	 	 	 	 	 	 	 	 	 	 	 	 	 	1581534206	0.83	1.54
12/02/2020 19:03:27	120220	12022020	190327	82.76	12.418748	-56.733505	82.79	-0.120	-0.500	2.210	82.76	-1.90	2.70	 	 	 	 	 	 	 	 	 	 	 	 	 	 	 	 	 	 	1581534207	0.46	0.85
12/02/2020 19:03:28	120220	12022020	190328	82.74	12.418748	-56.733507	82.74	-0.150	-0.150	1.720	82.73	-1.60	2.20	 	 	 	 	 	 	 	 	 	 	 	 	 	 	 	 	 	 	1581534208	0.46	0.85
12/02/2020 19:03:29	120220	12022020	190329	82.73	12.418752	-56.733510	82.73	-0.150	0.090	0.970	82.74	-1.30	1.50	 	 	 	 	 	 	 	 	 	 	 	 	 	 	 	 	 	 	1581534209	0.83	1.54
12/02/2020 19:03:30	120220	12022020	190330	82.82	12.418757	-56.733512	82.84	-0.030	-0.040	0.100	82.85	-1.40	0.70	 	 	 	 	 	 	 	 	 	 	 	 	 	 	 	 	 	 	1581534210	1.02	1.89
12/02/2020 19:03:31	120220	12022020	190331	82.99	12.418760	-56.733512	83.01	0.110	-0.260	-0.560	83.03	-1.60	-0.00	 	 	 	 	 	 	 	 	 	 	 	 	 	 	 	 	 	 	1581534211	0.93	1.72
12/02/2020 19:03:32	120220	12022020	190332	83.16	12.418762	-56.733512	83.13	0.170	-0.310	-0.830	83.18	-1.70	-0.40	 	 	 	 	 	 	 	 	 	 	 	 	 	 	 	 	 	 	1581534212	0.47	0.87
12/02/2020 19:03:33	120220	12022020	190333	83.22	12.418762	-56.733513	83.13	0.220	-0.350	-0.640	83.20	-1.70	-0.20	 	 	 	 	 	 	 	 	 	 	 	 	 	 	 	 	 	 	1581534213	0.13	0.24
12/02/2020 19:03:34	120220	12022020	190334	83.02	12.418760	-56.733512	82.87	0.330	-0.650	-0.030	82.95	-2.00	0.30	 	 	 	 	 	 	 	 	 	 	 	 	 	 	 	 	 	 	1581534214	0.41	0.76
12/02/2020 19:03:35	120220	12022020	190335	82.63	12.418758	-56.733508	82.51	0.440	-0.900	0.810	82.56	-2.30	1.10	 	 	 	 	 	 	 	 	 	 	 	 	 	 	 	 	 	 	1581534215	0.83	1.54
12/02/2020 19:03:36	120220	12022020	190336	82.37	12.418755	-56.733507	82.35	0.320	-0.520	1.560	82.35	-2.00	1.90	 	 	 	 	 	 	 	 	 	 	 	 	 	 	 	 	 	 	1581534216	0.71	1.31
12/02/2020 19:03:37	120220	12022020	190337	82.43	12.418752	-56.733510	82.50	-0.090	0.370	2.120	82.46	-1.20	2.50	 	 	 	 	 	 	 	 	 	 	 	 	 	 	 	 	 	 	1581534217	0.86	1.59
12/02/2020 19:03:38	120220	12022020	190338	82.61	12.418748	-56.733513	82.67	-0.520	1.050	2.420	82.64	-0.40	2.80	 	 	 	 	 	 	 	 	 	 	 	 	 	 	 	 	 	 	1581534218	1.12	2.07
12/02/2020 19:03:39	120220	12022020	190339	82.69	12.418747	-56.733515	82.78	-0.590	0.910	2.380	82.71	-0.40	2.80	 	 	 	 	 	 	 	 	 	 	 	 	 	 	 	 	 	 	1581534219	0.50	0.93
12/02/2020 19:03:40	120220	12022020	190340	82.83	12.418748	-56.733513	82.91	-0.210	0.000	1.940	82.88	-1.20	2.50	 	 	 	 	 	 	 	 	 	 	 	 	 	 	 	 	 	 	1581534220	0.53	0.98
12/02/2020 19:03:41	120220	12022020	190341	83.05	12.418752	-56.733510	83.10	0.230	-1.020	1.350	83.07	-2.30	1.90	 	 	 	 	 	 	 	 	 	 	 	 	 	 	 	 	 	 	1581534221	1.10	2.04
12/02/2020 19:03:42	120220	12022020	190342	83.13	12.418755	-56.733507	83.13	0.350	-1.450	1.070	83.13	-2.80	1.50	 	 	 	 	 	 	 	 	 	 	 	 	 	 	 	 	 	 	1581534222	0.79	1.46
12/02/2020 19:03:43	120220	12022020	190343	83.02	12.418753	-56.733507	82.99	0.180	-1.130	1.190	82.99	-2.60	1.60	 	 	 	 	 	 	 	 	 	 	 	 	 	 	 	 	 	 	1581534223	0.31	0.57
12/02/2020 19:03:44	120220	12022020	190344	82.84	12.418752	-56.733508	82.82	0.070	-0.440	1.190	82.80	-1.90	1.70	 	 	 	 	 	 	 	 	 	 	 	 	 	 	 	 	 	 	1581534224	0.62	1.15
12/02/2020 19:03:45	120220	12022020	190345	82.76	12.418753	-56.733512	82.77	0.220	0.140	0.680	82.77	-1.30	1.20	 	 	 	 	 	 	 	 	 	 	 	 	 	 	 	 	 	 	1581534225	0.59	1.09
12/02/2020 19:03:46	120220	12022020	190346	82.84	12.418757	-56.733512	82.86	0.360	0.460	-0.020	82.86	-1.00	0.50	 	 	 	 	 	 	 	 	 	 	 	 	 	 	 	 	 	 	1581534226	1.02	1.89
12/02/2020 19:03:47	120220	12022020	190347	82.86	12.418760	-56.733513	82.80	0.130	0.700	-0.270	82.84	-0.70	0.20	 	 	 	 	 	 	 	 	 	 	 	 	 	 	 	 	 	 	1581534227	0.71	1.31
12/02/2020 19:03:48	120220	12022020	190348	82.68	12.418760	-56.733515	82.60	-0.430	0.750	-0.020	82.65	-0.60	0.40	 	 	 	 	 	 	 	 	 	 	 	 	 	 	 	 	 	 	1581534228	0.29	0.54
12/02/2020 19:03:49	120220	12022020	190349	82.51	12.418758	-56.733515	82.46	-0.850	0.330	0.320	82.49	-1.00	0.70	 	 	 	 	 	 	 	 	 	 	 	 	 	 	 	 	 	 	1581534229	0.42	0.78
12/02/2020 19:03:50	120220	12022020	190350	82.44	12.418757	-56.733513	82.41	-0.760	-0.570	0.640	82.43	-1.80	1.00	 	 	 	 	 	 	 	 	 	 	 	 	 	 	 	 	 	 	1581534230	0.66	1.22
12/02/2020 19:03:51	120220	12022020	190351	82.38	12.418753	-56.733508	82.34	-0.220	-1.480	0.960	82.37	-2.80	1.30	 	 	 	 	 	 	 	 	 	 	 	 	 	 	 	 	 	 	1581534231	0.97	1.80
12/02/2020 19:03:52	120220	12022020	190352	82.32	12.418752	-56.733505	82.32	0.460	-1.880	1.230	82.31	-3.30	1.60	 	 	 	 	 	 	 	 	 	 	 	 	 	 	 	 	 	 	1581534232	0.90	1.67
12/02/2020 19:03:53	120220	12022020	190353	82.32	12.418752	-56.733503	82.35	0.900	-1.380	1.360	82.33	-2.90	1.80	 	 	 	 	 	 	 	 	 	 	 	 	 	 	 	 	 	 	1581534233	0.40	0.74
12/02/2020 19:03:54	120220	12022020	190354	82.35	12.418752	-56.733505	82.37	0.870	-0.010	1.350	82.35	-1.60	1.80	 	 	 	 	 	 	 	 	 	 	 	 	 	 	 	 	 	 	1581534234	0.52	0.96
12/02/2020 19:03:55	120220	12022020	190355	82.31	12.418752	-56.733512	82.31	0.360	1.400	1.340	82.30	-0.20	1.80	 	 	 	 	 	 	 	 	 	 	 	 	 	 	 	 	 	 	1581534235	1.13	2.09
12/02/2020 19:03:56	120220	12022020	190356	82.24	12.418752	-56.733515	82.26	-0.380	1.890	1.320	82.24	0.50	1.80	 	 	 	 	 	 	 	 	 	 	 	 	 	 	 	 	 	 	1581534236	0.86	1.59
12/02/2020 19:03:57	120220	12022020	190357	82.23	12.418750	-56.733515	82.25	-0.870	1.110	1.140	82.23	-0.10	1.60	 	 	 	 	 	 	 	 	 	 	 	 	 	 	 	 	 	 	1581534237	0.14	0.26
12/02/2020 19:03:58	120220	12022020	190358	82.15	12.418752	-56.733510	82.10	-0.810	-0.410	0.850	82.10	-1.60	1.30	 	 	 	 	 	 	 	 	 	 	 	 	 	 	 	 	 	 	1581534238	0.93	1.72
12/02/2020 19:03:59	120220	12022020	190359	81.84	12.418752	-56.733505	81.76	-0.290	-1.640	0.670	81.78	-2.90	1.10	 	 	 	 	 	 	 	 	 	 	 	 	 	 	 	 	 	 	1581534239	1.18	2.19
12/02/2020 19:04:00	120220	12022020	190400	81.56	12.418753	-56.733502	81.54	0.240	-1.860	0.690	81.53	-3.30	1.10	 	 	 	 	 	 	 	 	 	 	 	 	 	 	 	 	 	 	1581534240	0.60	1.11
12/02/2020 19:04:01	120220	12022020	190401	81.49	12.418753	-56.733503	81.49	0.430	-1.160	0.640	81.49	-2.70	1.10	 	 	 	 	 	 	 	 	 	 	 	 	 	 	 	 	 	 	1581534241	0.31	0.57
12/02/2020 19:04:02	120220	12022020	190402	81.55	12.418755	-56.733507	81.58	0.250	-0.180	0.290	81.57	-1.70	0.80	1014.60	26.40	26.50	18.90	19.00	221.0	63.0	63.0	438.0	27.1	347.00	10.70	69.00	10.30	19642	12381.0	27.4	27.4	1581534242	0.90	1.67
12/02/2020 19:04:03	120220	12022020	190403	81.65	12.418758	-56.733510	81.71	-0.040	0.520	-0.100	81.67	-1.00	0.40	 	 	 	 	 	 	 	 	 	 	 	 	 	 	 	 	 	 	1581534243	0.94	1.74
12/02/2020 19:04:04	120220	12022020	190404	81.82	12.418760	-56.733512	81.86	-0.120	0.700	-0.100	81.84	-0.70	0.30	 	 	 	 	 	 	 	 	 	 	 	 	 	 	 	 	 	 	1581534244	0.29	0.54
12/02/2020 19:04:05	120220	12022020	190405	81.95	12.418757	-56.733510	81.99	0.070	0.380	0.360	81.97	-1.00	0.70	 	 	 	 	 	 	 	 	 	 	 	 	 	 	 	 	 	 	1581534245	0.60	1.11
12/02/2020 19:04:06	120220	12022020	190406	82.02	12.418753	-56.733507	82.03	0.260	-0.180	0.970	82.02	-1.50	1.30	 	 	 	 	 	 	 	 	 	 	 	 	 	 	 	 	 	 	1581534246	1.08	2.00
12/02/2020 19:04:07	120220	12022020	190407	81.96	12.418750	-56.733503	81.94	0.180	-0.550	1.510	81.94	-1.90	1.90	 	 	 	 	 	 	 	 	 	 	 	 	 	 	 	 	 	 	1581534247	0.91	1.69
12/02/2020 19:04:08	120220	12022020	190408	81.74	12.418748	-56.733502	81.69	-0.100	-0.540	1.950	81.68	-2.00	2.30	 	 	 	 	 	 	 	 	 	 	 	 	 	 	 	 	 	 	1581534248	0.44	0.81
12/02/2020 19:04:09	120220	12022020	190409	81.39	12.418748	-56.733503	81.34	-0.330	-0.290	2.190	81.33	-1.70	2.60	 	 	 	 	 	 	 	 	 	 	 	 	 	 	 	 	 	 	1581534249	0.26	0.48
12/02/2020 19:04:10	120220	12022020	190410	81.16	12.418748	-56.733503	81.15	-0.360	0.010	2.040	81.13	-1.40	2.50	 	 	 	 	 	 	 	 	 	 	 	 	 	 	 	 	 	 	1581534250	0.26	0.48
12/02/2020 19:04:11	120220	12022020	190411	81.17	12.418750	-56.733505	81.21	-0.270	0.190	1.490	81.19	-1.20	2.00	 	 	 	 	 	 	 	 	 	 	 	 	 	 	 	 	 	 	1581534251	0.57	1.06
12/02/2020 19:04:12	120220	12022020	190412	81.35	12.418755	-56.733507	81.39	-0.150	0.100	0.770	81.39	-1.30	1.30	 	 	 	 	 	 	 	 	 	 	 	 	 	 	 	 	 	 	1581534252	0.97	1.80
12/02/2020 19:04:13	120220	12022020	190413	81.57	12.418758	-56.733507	81.63	0.050	-0.300	0.120	81.62	-1.60	0.70	 	 	 	 	 	 	 	 	 	 	 	 	 	 	 	 	 	 	1581534253	1.01	1.87
12/02/2020 19:04:14	120220	12022020	190414	81.83	12.418762	-56.733505	81.89	0.340	-0.920	-0.430	81.88	-2.20	0.10	 	 	 	 	 	 	 	 	 	 	 	 	 	 	 	 	 	 	1581534254	0.87	1.61
12/02/2020 19:04:15	120220	12022020	190415	81.99	12.418763	-56.733500	81.95	0.610	-1.330	-0.610	81.99	-2.70	-0.20	 	 	 	 	 	 	 	 	 	 	 	 	 	 	 	 	 	 	1581534255	0.90	1.67
12/02/2020 19:04:16	120220	12022020	190416	81.77	12.418763	-56.733498	81.64	0.600	-0.910	-0.140	81.69	-2.40	0.20	 	 	 	 	 	 	 	 	 	 	 	 	 	 	 	 	 	 	1581534256	0.57	1.06
12/02/2020 19:04:17	120220	12022020	190417	81.35	12.418760	-56.733500	81.23	0.170	0.400	0.660	81.27	-1.20	1.00	 	 	 	 	 	 	 	 	 	 	 	 	 	 	 	 	 	 	1581534257	0.81	1.50
12/02/2020 19:04:18	120220	12022020	190418	81.04	12.418757	-56.733507	81.02	-0.510	1.670	1.330	81.02	0.10	1.70	 	 	 	 	 	 	 	 	 	 	 	 	 	 	 	 	 	 	1581534258	1.48	2.74
12/02/2020 19:04:19	120220	12022020	190419	81.05	12.418753	-56.733510	81.11	-1.030	1.710	1.560	81.09	0.40	2.00	 	 	 	 	 	 	 	 	 	 	 	 	 	 	 	 	 	 	1581534259	1.04	1.93
12/02/2020 19:04:20	120220	12022020	190420	81.24	12.418753	-56.733508	81.31	-0.970	0.220	1.470	81.28	-0.90	1.90	 	 	 	 	 	 	 	 	 	 	 	 	 	 	 	 	 	 	1581534260	0.40	0.74
12/02/2020 19:04:21	120220	12022020	190421	81.39	12.418755	-56.733502	81.40	-0.280	-1.680	1.450	81.40	-2.80	1.90	 	 	 	 	 	 	 	 	 	 	 	 	 	 	 	 	 	 	1581534261	1.57	2.91
12/02/2020 19:04:22	120220	12022020	190422	81.39	12.418755	-56.733495	81.37	0.570	-2.410	1.660	81.37	-3.80	2.10	 	 	 	 	 	 	 	 	 	 	 	 	 	 	 	 	 	 	1581534262	1.35	2.50
12/02/2020 19:04:23	120220	12022020	190423	81.26	12.418753	-56.733495	81.21	0.950	-1.530	1.890	81.22	-3.10	2.30	 	 	 	 	 	 	 	 	 	 	 	 	 	 	 	 	 	 	1581534263	0.37	0.69
12/02/2020 19:04:24	120220	12022020	190424	81.05	12.418752	-56.733500	81.01	0.660	0.040	1.940	81.02	-1.60	2.40	 	 	 	 	 	 	 	 	 	 	 	 	 	 	 	 	 	 	1581534264	1.20	2.22
12/02/2020 19:04:25	120220	12022020	190425	81.00	12.418752	-56.733507	81.01	0.030	1.150	1.640	81.01	-0.40	2.10	 	 	 	 	 	 	 	 	 	 	 	 	 	 	 	 	 	 	1581534265	1.29	2.39
12/02/2020 19:04:26	120220	12022020	190426	81.11	12.418753	-56.733508	81.12	-0.380	1.200	1.020	81.13	-0.20	1.60	 	 	 	 	 	 	 	 	 	 	 	 	 	 	 	 	 	 	1581534266	0.78	1.44
12/02/2020 19:04:27	120220	12022020	190427	81.18	12.418758	-56.733507	81.15	-0.300	0.260	0.380	81.17	-1.00	0.90	 	 	 	 	 	 	 	 	 	 	 	 	 	 	 	 	 	 	1581534267	1.01	1.87
12/02/2020 19:04:28	120220	12022020	190428	81.05	12.418763	-56.733502	80.96	0.060	-0.830	0.040	80.99	-2.10	0.50	 	 	 	 	 	 	 	 	 	 	 	 	 	 	 	 	 	 	1581534268	1.39	2.57
12/02/2020 19:04:29	120220	12022020	190429	80.80	12.418767	-56.733500	80.63	0.210	-1.000	-0.060	80.73	-2.40	0.40	 	 	 	 	 	 	 	 	 	 	 	 	 	 	 	 	 	 	1581534269	0.87	1.61
12/02/2020 19:04:30	120220	12022020	190430	80.41	12.418767	-56.733503	80.35	-0.090	-0.250	-0.020	80.37	-1.80	0.40	 	 	 	 	 	 	 	 	 	 	 	 	 	 	 	 	 	 	1581534270	0.70	1.30
12/02/2020 19:04:31	120220	12022020	190431	80.32	12.418767	-56.733508	80.36	-0.440	0.310	-0.000	80.34	-1.10	0.40	 	 	 	 	 	 	 	 	 	 	 	 	 	 	 	 	 	 	1581534271	1.07	1.98
12/02/2020 19:04:32	120220	12022020	190432	80.62	12.418767	-56.733508	80.75	-0.330	-0.110	0.020	80.71	-1.40	0.50	 	 	 	 	 	 	 	 	 	 	 	 	 	 	 	 	 	 	1581534272	0.19	0.35
12/02/2020 19:04:33	120220	12022020	190433	81.05	12.418765	-56.733503	81.13	0.150	-0.820	0.330	81.10	-2.10	0.70	 	 	 	 	 	 	 	 	 	 	 	 	 	 	 	 	 	 	1581534273	1.04	1.93
12/02/2020 19:04:34	120220	12022020	190434	81.12	12.418760	-56.733500	81.07	0.460	-0.790	0.910	81.07	-2.30	1.30	 	 	 	 	 	 	 	 	 	 	 	 	 	 	 	 	 	 	1581534274	1.14	2.11
12/02/2020 19:04:35	120220	12022020	190435	80.65	12.418757	-56.733502	80.46	0.300	-0.010	1.480	80.49	-1.60	1.80	 	 	 	 	 	 	 	 	 	 	 	 	 	 	 	 	 	 	1581534275	0.92	1.70
12/02/2020 19:04:36	120220	12022020	190436	79.81	12.418755	-56.733505	79.61	-0.100	0.720	1.750	79.65	-0.80	2.20	 	 	 	 	 	 	 	 	 	 	 	 	 	 	 	 	 	 	1581534276	0.95	1.76
12/02/2020 19:04:37	120220	12022020	190437	79.15	12.418757	-56.733508	79.07	-0.350	0.730	1.450	79.06	-0.60	2.00	 	 	 	 	 	 	 	 	 	 	 	 	 	 	 	 	 	 	1581534277	0.80	1.48
12/02/2020 19:04:38	120220	12022020	190438	78.94	12.418763	-56.733508	78.98	-0.320	0.060	0.770	78.95	-1.20	1.30	 	 	 	 	 	 	 	 	 	 	 	 	 	 	 	 	 	 	1581534278	1.29	2.39
12/02/2020 19:04:39	120220	12022020	190439	79.10	12.418770	-56.733508	79.19	-0.090	-0.840	-0.100	79.15	-2.10	0.50	 	 	 	 	 	 	 	 	 	 	 	 	 	 	 	 	 	 	1581534279	1.66	3.07
12/02/2020 19:04:40	120220	12022020	190440	79.38	12.418777	-56.733505	79.45	0.230	-1.450	-0.910	79.43	-2.80	-0.40	 	 	 	 	 	 	 	 	 	 	 	 	 	 	 	 	 	 	1581534280	1.52	2.82
12/02/2020 19:04:41	120220	12022020	190441	79.55	12.418780	-56.733505	79.60	0.530	-1.400	-1.210	79.58	-2.90	-0.80	 	 	 	 	 	 	 	 	 	 	 	 	 	 	 	 	 	 	1581534281	0.80	1.48
12/02/2020 19:04:42	120220	12022020	190442	79.60	12.418780	-56.733505	79.59	0.610	-0.540	-0.690	79.58	-2.10	-0.40	 	 	 	 	 	 	 	 	 	 	 	 	 	 	 	 	 	 	1581534282	0.33	0.61
12/02/2020 19:04:43	120220	12022020	190443	79.48	12.418773	-56.733508	79.41	0.200	0.790	0.490	79.43	-0.80	0.80	 	 	 	 	 	 	 	 	 	 	 	 	 	 	 	 	 	 	1581534283	1.55	2.87
12/02/2020 19:04:44	120220	12022020	190444	79.14	12.418765	-56.733512	79.13	-0.600	1.690	1.640	79.09	0.20	1.90	 	 	 	 	 	 	 	 	 	 	 	 	 	 	 	 	 	 	1581534284	2.03	3.76
12/02/2020 19:04:45	120220	12022020	190445	78.90	12.418758	-56.733515	78.94	-1.240	1.490	2.090	78.87	0.20	2.50	 	 	 	 	 	 	 	 	 	 	 	 	 	 	 	 	 	 	1581534285	1.32	2.44
12/02/2020 19:04:46	120220	12022020	190446	78.74	12.418757	-56.733513	78.74	-1.140	0.160	2.000	78.70	-1.00	2.50	 	 	 	 	 	 	 	 	 	 	 	 	 	 	 	 	 	 	1581534286	0.43	0.80
12/02/2020 19:04:47	120220	12022020	190447	78.46	12.418758	-56.733508	78.40	-0.200	-1.530	1.820	78.38	-2.70	2.30	 	 	 	 	 	 	 	 	 	 	 	 	 	 	 	 	 	 	1581534287	1.13	2.09
12/02/2020 19:04:48	120220	12022020	190448	78.07	12.418763	-56.733503	78.05	0.970	-2.480	1.570	78.01	-3.80	2.10	 	 	 	 	 	 	 	 	 	 	 	 	 	 	 	 	 	 	1581534288	1.35	2.50
12/02/2020 19:04:49	120220	12022020	190449	77.97	12.418768	-56.733502	78.08	1.570	-2.060	0.850	78.01	-3.60	1.40	 	 	 	 	 	 	 	 	 	 	 	 	 	 	 	 	 	 	1581534289	1.32	2.44
12/02/2020 19:04:50	120220	12022020	190450	78.29	12.418777	-56.733507	78.44	1.240	-0.640	-0.160	78.38	-2.30	0.40	 	 	 	 	 	 	 	 	 	 	 	 	 	 	 	 	 	 	1581534290	1.93	3.57
12/02/2020 19:04:51	120220	12022020	190451	78.69	12.418782	-56.733513	78.80	0.380	0.850	-0.810	78.75	-0.70	-0.30	 	 	 	 	 	 	 	 	 	 	 	 	 	 	 	 	 	 	1581534291	1.84	3.41
12/02/2020 19:04:52	120220	12022020	190452	78.90	12.418782	-56.733518	78.95	-0.440	1.690	-0.650	78.92	0.20	-0.30	 	 	 	 	 	 	 	 	 	 	 	 	 	 	 	 	 	 	1581534292	0.91	1.69
12/02/2020 19:04:53	120220	12022020	190453	78.90	12.418778	-56.733518	78.93	-0.980	1.640	0.120	78.89	0.30	0.50	 	 	 	 	 	 	 	 	 	 	 	 	 	 	 	 	 	 	1581534293	1.00	1.85
12/02/2020 19:04:54	120220	12022020	190454	78.82	12.418772	-56.733517	78.86	-1.140	0.890	0.900	78.81	-0.40	1.30	 	 	 	 	 	 	 	 	 	 	 	 	 	 	 	 	 	 	1581534294	1.49	2.76
12/02/2020 19:04:55	120220	12022020	190455	78.76	12.418767	-56.733513	78.81	-0.760	-0.400	1.400	78.75	-1.60	1.80	 	 	 	 	 	 	 	 	 	 	 	 	 	 	 	 	 	 	1581534295	1.32	2.44
12/02/2020 19:04:56	120220	12022020	190456	78.72	12.418763	-56.733508	78.78	0.110	-1.820	1.770	78.71	-3.00	2.20	 	 	 	 	 	 	 	 	 	 	 	 	 	 	 	 	 	 	1581534296	1.22	2.26
12/02/2020 19:04:57	120220	12022020	190457	78.55	12.418762	-56.733503	78.51	0.880	-2.300	2.300	78.48	-3.70	2.70	 	 	 	 	 	 	 	 	 	 	 	 	 	 	 	 	 	 	1581534297	1.08	2.00
12/02/2020 19:04:58	120220	12022020	190458	78.13	12.418762	-56.733503	78.06	0.980	-1.320	2.540	78.04	-2.90	3.00	 	 	 	 	 	 	 	 	 	 	 	 	 	 	 	 	 	 	1581534298	0.24	0.44
12/02/2020 19:04:59	120220	12022020	190459	77.77	12.418763	-56.733510	77.76	0.510	0.270	2.030	77.73	-1.40	2.60	 	 	 	 	 	 	 	 	 	 	 	 	 	 	 	 	 	 	1581534299	1.36	2.52
12/02/2020 19:05:00	120220	12022020	190500	77.73	12.418770	-56.733517	77.82	-0.000	1.230	0.870	77.78	-0.30	1.50	 	 	 	 	 	 	 	 	 	 	 	 	 	 	 	 	 	 	1581534300	2.07	3.83
12/02/2020 19:05:01	120220	12022020	190501	78.07	12.418778	-56.733520	78.19	-0.240	1.020	-0.320	78.16	-0.30	0.30	 	 	 	 	 	 	 	 	 	 	 	 	 	 	 	 	 	 	1581534301	2.10	3.89
12/02/2020 19:05:02	120220	12022020	190502	78.54	12.418785	-56.733518	78.64	-0.230	0.070	-1.040	78.62	-1.20	-0.50	1014.50	26.50	26.60	18.70	18.80	222.0	62.0	62.0	438.0	27.1	352.00	11.00	72.00	10.50	19646	11315.0	27.4	27.4	1581534302	1.59	2.94
12/02/2020 19:05:03	120220	12022020	190503	78.83	12.418788	-56.733515	78.86	-0.160	-0.790	-1.230	78.85	-2.10	-0.80	 	 	 	 	 	 	 	 	 	 	 	 	 	 	 	 	 	 	1581534303	0.98	1.81
12/02/2020 19:05:04	120220	12022020	190504	78.82	12.418785	-56.733512	78.79	-0.190	-0.970	-0.860	78.78	-2.40	-0.50	 	 	 	 	 	 	 	 	 	 	 	 	 	 	 	 	 	 	1581534304	0.85	1.57
12/02/2020 19:05:05	120220	12022020	190505	78.55	12.418778	-56.733512	78.48	-0.310	-0.480	0.060	78.46	-2.00	0.40	 	 	 	 	 	 	 	 	 	 	 	 	 	 	 	 	 	 	1581534305	1.43	2.65
12/02/2020 19:05:06	120220	12022020	190506	78.10	12.418772	-56.733513	78.04	-0.360	0.150	1.140	78.01	-1.30	1.50	 	 	 	 	 	 	 	 	 	 	 	 	 	 	 	 	 	 	1581534306	1.72	3.19
12/02/2020 19:05:07	120220	12022020	190507	77.71	12.418767	-56.733515	77.71	-0.170	0.270	1.750	77.66	-1.10	2.20	 	 	 	 	 	 	 	 	 	 	 	 	 	 	 	 	 	 	1581534307	1.11	2.06
12/02/2020 19:05:08	120220	12022020	190508	77.60	12.418767	-56.733513	77.68	0.200	-0.180	1.550	77.62	-1.50	2.10	 	 	 	 	 	 	 	 	 	 	 	 	 	 	 	 	 	 	1581534308	0.29	0.54
12/02/2020 19:05:09	120220	12022020	190509	77.81	12.418772	-56.733512	77.94	0.550	-0.660	0.890	77.87	-2.00	1.40	 	 	 	 	 	 	 	 	 	 	 	 	 	 	 	 	 	 	1581534309	1.23	2.28
12/02/2020 19:05:10	120220	12022020	190510	78.12	12.418778	-56.733512	78.20	0.690	-0.700	0.240	78.17	-2.10	0.80	 	 	 	 	 	 	 	 	 	 	 	 	 	 	 	 	 	 	1581534310	1.36	2.52
12/02/2020 19:05:11	120220	12022020	190511	78.31	12.418783	-56.733512	78.35	0.550	-0.340	-0.150	78.32	-1.80	0.30	 	 	 	 	 	 	 	 	 	 	 	 	 	 	 	 	 	 	1581534311	1.01	1.87
12/02/2020 19:05:12	120220	12022020	190512	78.32	12.418785	-56.733515	78.32	0.200	0.180	-0.110	78.31	-1.30	0.30	 	 	 	 	 	 	 	 	 	 	 	 	 	 	 	 	 	 	1581534312	0.55	1.02
12/02/2020 19:05:13	120220	12022020	190513	78.22	12.418783	-56.733515	78.22	-0.200	0.510	0.270	78.20	-0.90	0.70	 	 	 	 	 	 	 	 	 	 	 	 	 	 	 	 	 	 	1581534313	0.43	0.80
12/02/2020 19:05:14	120220	12022020	190514	78.13	12.418780	-56.733515	78.14	-0.450	0.260	0.780	78.11	-1.10	1.20	 	 	 	 	 	 	 	 	 	 	 	 	 	 	 	 	 	 	1581534314	0.61	1.13
12/02/2020 19:05:15	120220	12022020	190515	78.06	12.418778	-56.733512	78.09	-0.460	-0.570	1.150	78.05	-1.80	1.50	 	 	 	 	 	 	 	 	 	 	 	 	 	 	 	 	 	 	1581534315	0.91	1.69
12/02/2020 19:05:16	120220	12022020	190516	78.01	12.418777	-56.733507	78.06	-0.240	-1.270	1.350	78.00	-2.60	1.80	 	 	 	 	 	 	 	 	 	 	 	 	 	 	 	 	 	 	1581534316	1.19	2.20
12/02/2020 19:05:17	120220	12022020	190517	78.00	12.418775	-56.733503	78.09	0.010	-0.930	1.480	78.01	-2.40	1.90	 	 	 	 	 	 	 	 	 	 	 	 	 	 	 	 	 	 	1581534317	0.69	1.28
12/02/2020 19:05:18	120220	12022020	190518	78.13	12.418773	-56.733507	78.25	0.060	0.290	1.300	78.17	-1.30	1.80	 	 	 	 	 	 	 	 	 	 	 	 	 	 	 	 	 	 	1581534318	0.76	1.41
12/02/2020 19:05:19	120220	12022020	190519	78.37	12.418773	-56.733512	78.47	-0.060	1.090	0.760	78.42	-0.40	1.30	 	 	 	 	 	 	 	 	 	 	 	 	 	 	 	 	 	 	1581534319	1.17	2.17
12/02/2020 19:05:20	120220	12022020	190520	78.51	12.418777	-56.733513	78.51	-0.070	0.690	0.250	78.50	-0.60	0.80	 	 	 	 	 	 	 	 	 	 	 	 	 	 	 	 	 	 	1581534320	0.61	1.13
12/02/2020 19:05:21	120220	12022020	190521	78.34	12.418778	-56.733510	78.24	0.100	-0.290	0.030	78.27	-1.60	0.50	 	 	 	 	 	 	 	 	 	 	 	 	 	 	 	 	 	 	1581534321	0.94	1.74
12/02/2020 19:05:22	120220	12022020	190522	77.93	12.418782	-56.733507	77.81	0.270	-0.940	-0.000	77.85	-2.30	0.50	 	 	 	 	 	 	 	 	 	 	 	 	 	 	 	 	 	 	1581534322	0.98	1.81
12/02/2020 19:05:23	120220	12022020	190523	77.61	12.418785	-56.733507	77.60	0.230	-0.980	-0.110	77.60	-2.40	0.40	 	 	 	 	 	 	 	 	 	 	 	 	 	 	 	 	 	 	1581534323	0.67	1.24
12/02/2020 19:05:24	120220	12022020	190524	77.74	12.418788	-56.733508	77.88	0.090	-0.700	-0.340	77.83	-2.10	0.20	 	 	 	 	 	 	 	 	 	 	 	 	 	 	 	 	 	 	1581534324	0.77	1.43
12/02/2020 19:05:25	120220	12022020	190525	78.33	12.418790	-56.733508	78.56	0.060	-0.510	-0.430	78.48	-1.90	0.00	 	 	 	 	 	 	 	 	 	 	 	 	 	 	 	 	 	 	1581534325	0.40	0.74
12/02/2020 19:05:26	120220	12022020	190526	78.96	12.418788	-56.733507	79.11	0.150	-0.390	-0.080	79.04	-1.80	0.30	 	 	 	 	 	 	 	 	 	 	 	 	 	 	 	 	 	 	1581534326	0.48	0.89
12/02/2020 19:05:27	120220	12022020	190527	79.14	12.418783	-56.733505	79.14	0.130	0.020	0.750	79.11	-1.50	1.10	 	 	 	 	 	 	 	 	 	 	 	 	 	 	 	 	 	 	1581534327	1.28	2.37
12/02/2020 19:05:28	120220	12022020	190528	78.81	12.418775	-56.733505	78.72	-0.150	0.720	1.790	78.70	-0.80	2.10	 	 	 	 	 	 	 	 	 	 	 	 	 	 	 	 	 	 	1581534328	1.67	3.09
12/02/2020 19:05:29	120220	12022020	190529	78.21	12.418768	-56.733505	78.09	-0.460	1.040	2.500	78.08	-0.40	2.90	 	 	 	 	 	 	 	 	 	 	 	 	 	 	 	 	 	 	1581534329	1.33	2.46
12/02/2020 19:05:30	120220	12022020	190530	77.67	12.418768	-56.733505	77.64	-0.440	0.460	2.460	77.60	-0.80	3.00	 	 	 	 	 	 	 	 	 	 	 	 	 	 	 	 	 	 	1581534330	0.04	0.07
12/02/2020 19:05:31	120220	12022020	190531	77.52	12.418775	-56.733502	77.67	-0.020	-0.770	1.640	77.54	-2.00	2.30	 	 	 	 	 	 	 	 	 	 	 	 	 	 	 	 	 	 	1581534331	1.49	2.76
12/02/2020 19:05:32	120220	12022020	190532	78.00	12.418785	-56.733498	78.24	0.430	-1.670	0.270	78.15	-3.00	0.90	 	 	 	 	 	 	 	 	 	 	 	 	 	 	 	 	 	 	1581534332	2.19	4.06
12/02/2020 19:05:33	120220	12022020	190533	78.60	12.418792	-56.733498	78.90	0.470	-1.390	-0.890	78.73	-2.90	-0.30	 	 	 	 	 	 	 	 	 	 	 	 	 	 	 	 	 	 	1581534333	1.57	2.91
12/02/2020 19:05:34	120220	12022020	190534	79.11	12.418793	-56.733502	79.12	0.080	-0.200	-1.140	79.11	-1.80	-0.70	 	 	 	 	 	 	 	 	 	 	 	 	 	 	 	 	 	 	1581534334	0.77	1.43
12/02/2020 19:05:35	120220	12022020	190535	78.90	12.418788	-56.733505	78.80	-0.360	0.880	-0.470	78.82	-0.70	-0.20	 	 	 	 	 	 	 	 	 	 	 	 	 	 	 	 	 	 	1581534335	1.31	2.43
12/02/2020 19:05:36	120220	12022020	190536	78.40	12.418783	-56.733507	78.32	-0.560	1.140	0.380	78.31	-0.30	0.70	 	 	 	 	 	 	 	 	 	 	 	 	 	 	 	 	 	 	1581534336	1.31	2.43
12/02/2020 19:05:37	120220	12022020	190537	77.99	12.418780	-56.733507	77.95	-0.460	0.550	0.930	77.92	-0.70	1.30	 	 	 	 	 	 	 	 	 	 	 	 	 	 	 	 	 	 	1581534337	0.78	1.44
12/02/2020 19:05:38	120220	12022020	190538	77.73	12.418780	-56.733502	77.76	-0.170	-0.510	1.220	77.70	-1.80	1.60	 	 	 	 	 	 	 	 	 	 	 	 	 	 	 	 	 	 	1581534338	0.77	1.43
12/02/2020 19:05:39	120220	12022020	190539	77.66	12.418782	-56.733498	77.75	0.230	-1.450	1.260	77.67	-2.80	1.70	 	 	 	 	 	 	 	 	 	 	 	 	 	 	 	 	 	 	1581534339	1.00	1.85
12/02/2020 19:05:40	120220	12022020	190540	77.75	12.418783	-56.733495	77.85	0.590	-1.810	1.130	77.76	-3.20	1.60	 	 	 	 	 	 	 	 	 	 	 	 	 	 	 	 	 	 	1581534340	0.88	1.63
12/02/2020 19:05:41	120220	12022020	190541	77.83	12.418785	-56.733493	77.92	0.700	-1.260	1.050	77.84	-2.80	1.50	 	 	 	 	 	 	 	 	 	 	 	 	 	 	 	 	 	 	1581534341	0.41	0.76
12/02/2020 19:05:42	120220	12022020	190542	77.85	12.418785	-56.733495	77.90	0.380	0.170	1.050	77.84	-1.50	1.50	 	 	 	 	 	 	 	 	 	 	 	 	 	 	 	 	 	 	1581534342	0.57	1.06
12/02/2020 19:05:43	120220	12022020	190543	77.82	12.418783	-56.733502	77.86	-0.220	1.590	0.930	77.82	0.00	1.40	 	 	 	 	 	 	 	 	 	 	 	 	 	 	 	 	 	 	1581534343	1.31	2.43
12/02/2020 19:05:44	120220	12022020	190544	77.86	12.418783	-56.733507	77.92	-0.700	1.990	0.510	77.88	0.60	1.00	 	 	 	 	 	 	 	 	 	 	 	 	 	 	 	 	 	 	1581534344	1.07	1.98
12/02/2020 19:05:45	120220	12022020	190545	78.00	12.418785	-56.733507	78.06	-0.740	0.940	-0.040	78.03	-0.30	0.50	 	 	 	 	 	 	 	 	 	 	 	 	 	 	 	 	 	 	1581534345	0.44	0.81
12/02/2020 19:05:46	120220	12022020	190546	78.06	12.418788	-56.733502	78.06	-0.340	-0.950	-0.300	78.05	-2.10	0.20	 	 	 	 	 	 	 	 	 	 	 	 	 	 	 	 	 	 	1581534346	1.21	2.24
12/02/2020 19:05:47	120220	12022020	190547	77.92	12.418790	-56.733495	77.88	0.200	-2.400	-0.220	77.87	-3.70	0.20	 	 	 	 	 	 	 	 	 	 	 	 	 	 	 	 	 	 	1581534347	1.60	2.96
12/02/2020 19:05:48	120220	12022020	190548	77.68	12.418788	-56.733492	77.67	0.480	-2.260	0.100	77.65	-3.80	0.50	 	 	 	 	 	 	 	 	 	 	 	 	 	 	 	 	 	 	1581534348	0.74	1.37
12/02/2020 19:05:49	120220	12022020	190549	77.53	12.418787	-56.733495	77.54	0.370	-0.750	0.480	77.50	-2.40	0.90	 	 	 	 	 	 	 	 	 	 	 	 	 	 	 	 	 	 	1581534349	0.89	1.65
12/02/2020 19:05:50	120220	12022020	190550	77.44	12.418785	-56.733502	77.47	0.060	0.850	0.690	77.43	-0.70	1.10	 	 	 	 	 	 	 	 	 	 	 	 	 	 	 	 	 	 	1581534350	1.54	2.85
12/02/2020 19:05:51	120220	12022020	190551	77.48	12.418785	-56.733507	77.55	-0.190	1.390	0.480	77.50	-0.00	1.00	 	 	 	 	 	 	 	 	 	 	 	 	 	 	 	 	 	 	1581534351	0.99	1.83
12/02/2020 19:05:52	120220	12022020	190552	77.68	12.418788	-56.733505	77.80	-0.250	0.750	0.130	77.74	-0.50	0.60	 	 	 	 	 	 	 	 	 	 	 	 	 	 	 	 	 	 	1581534352	0.64	1.19
12/02/2020 19:05:53	120220	12022020	190553	78.00	12.418790	-56.733502	78.15	-0.120	-0.310	0.070	78.08	-1.60	0.50	 	 	 	 	 	 	 	 	 	 	 	 	 	 	 	 	 	 	1581534353	0.93	1.72
12/02/2020 19:05:54	120220	12022020	190554	78.36	12.418788	-56.733497	78.49	0.090	-1.020	0.260	78.42	-2.40	0.70	 	 	 	 	 	 	 	 	 	 	 	 	 	 	 	 	 	 	1581534354	0.94	1.74
12/02/2020 19:05:55	120220	12022020	190555	78.54	12.418787	-56.733495	78.63	0.150	-0.990	0.630	78.56	-2.40	1.00	 	 	 	 	 	 	 	 	 	 	 	 	 	 	 	 	 	 	1581534355	0.70	1.30
12/02/2020 19:05:56	120220	12022020	190556	78.53	12.418783	-56.733497	78.54	-0.070	-0.250	1.100	78.49	-1.80	1.50	 	 	 	 	 	 	 	 	 	 	 	 	 	 	 	 	 	 	1581534356	0.84	1.56
12/02/2020 19:05:57	120220	12022020	190557	78.40	12.418780	-56.733500	78.45	-0.370	0.520	1.380	78.39	-0.90	1.80	 	 	 	 	 	 	 	 	 	 	 	 	 	 	 	 	 	 	1581534357	1.12	2.07
12/02/2020 19:05:58	120220	12022020	190558	78.45	12.418778	-56.733503	78.52	-0.410	0.550	1.220	78.47	-0.80	1.70	 	 	 	 	 	 	 	 	 	 	 	 	 	 	 	 	 	 	1581534358	0.61	1.13
12/02/2020 19:05:59	120220	12022020	190559	78.55	12.418780	-56.733502	78.59	-0.030	-0.250	0.830	78.55	-1.50	1.30	 	 	 	 	 	 	 	 	 	 	 	 	 	 	 	 	 	 	1581534359	0.54	1.00
12/02/2020 19:06:00	120220	12022020	190600	78.50	12.418783	-56.733498	78.49	0.490	-1.120	0.510	78.47	-2.40	1.00	 	 	 	 	 	 	 	 	 	 	 	 	 	 	 	 	 	 	1581534360	1.15	2.13
12/02/2020 19:06:01	120220	12022020	190601	78.30	12.418787	-56.733495	78.29	0.720	-1.320	0.360	78.26	-2.70	0.80	 	 	 	 	 	 	 	 	 	 	 	 	 	 	 	 	 	 	1581534361	0.95	1.76
12/02/2020 19:06:02	120220	12022020	190602	78.22	12.418790	-56.733495	78.32	0.510	-0.740	0.170	78.26	-2.20	0.70	1014.50	26.60	26.70	18.40	18.50	218.0	60.0	61.0	439.0	27.1	356.00	10.70	74.00	10.20	19418	14806.0	27.4	27.4	1581534362	0.54	1.00
12/02/2020 19:06:03	120220	12022020	190603	78.64	12.418792	-56.733498	78.88	0.090	0.110	-0.250	78.78	-1.40	0.30	 	 	 	 	 	 	 	 	 	 	 	 	 	 	 	 	 	 	1581534363	0.73	1.35
12/02/2020 19:06:04	120220	12022020	190604	79.40	12.418793	-56.733502	79.62	-0.330	0.810	-0.590	79.54	-0.70	-0.10	 	 	 	 	 	 	 	 	 	 	 	 	 	 	 	 	 	 	1581534364	0.61	1.13
12/02/2020 19:06:05	120220	12022020	190605	79.87	12.418790	-56.733503	79.91	-0.690	1.170	-0.380	79.89	-0.30	0.00	 	 	 	 	 	 	 	 	 	 	 	 	 	 	 	 	 	 	1581534365	0.60	1.11
12/02/2020 19:06:06	120220	12022020	190606	79.71	12.418785	-56.733503	79.59	-0.840	1.060	0.490	79.61	-0.30	0.80	 	 	 	 	 	 	 	 	 	 	 	 	 	 	 	 	 	 	1581534366	1.27	2.35
12/02/2020 19:06:07	120220	12022020	190607	79.12	12.418778	-56.733502	78.98	-0.590	0.290	1.580	78.99	-0.90	1.90	 	 	 	 	 	 	 	 	 	 	 	 	 	 	 	 	 	 	1581534367	1.44	2.67
12/02/2020 19:06:08	120220	12022020	190608	78.59	12.418775	-56.733498	78.55	0.040	-1.040	2.120	78.52	-2.20	2.50	 	 	 	 	 	 	 	 	 	 	 	 	 	 	 	 	 	 	1581534368	0.92	1.70
12/02/2020 19:06:09	120220	12022020	190609	78.44	12.418778	-56.733493	78.51	0.720	-2.250	1.920	78.44	-3.50	2.40	 	 	 	 	 	 	 	 	 	 	 	 	 	 	 	 	 	 	1581534369	1.22	2.26
12/02/2020 19:06:10	120220	12022020	190610	78.56	12.418785	-56.733492	78.66	1.040	-2.330	1.350	78.60	-3.80	1.90	 	 	 	 	 	 	 	 	 	 	 	 	 	 	 	 	 	 	1581534370	1.44	2.67
12/02/2020 19:06:11	120220	12022020	190611	78.78	12.418788	-56.733493	78.90	0.830	-1.100	0.910	78.83	-2.70	1.40	 	 	 	 	 	 	 	 	 	 	 	 	 	 	 	 	 	 	1581534371	1.08	2.00
12/02/2020 19:06:12	120220	12022020	190612	79.12	12.418790	-56.733498	79.27	0.290	0.550	0.700	79.19	-1.10	1.20	 	 	 	 	 	 	 	 	 	 	 	 	 	 	 	 	 	 	1581534372	1.11	2.06
12/02/2020 19:06:13	120220	12022020	190613	79.48	12.418787	-56.733502	79.59	-0.280	1.600	0.640	79.54	0.10	1.10	 	 	 	 	 	 	 	 	 	 	 	 	 	 	 	 	 	 	1581534373	1.04	1.93
12/02/2020 19:06:14	120220	12022020	190614	79.66	12.418785	-56.733503	79.70	-0.700	1.770	0.540	79.66	0.40	1.00	 	 	 	 	 	 	 	 	 	 	 	 	 	 	 	 	 	 	1581534374	0.66	1.22
12/02/2020 19:06:15	120220	12022020	190615	79.51	12.418783	-56.733503	79.43	-0.910	1.210	0.620	79.44	-0.10	1.00	 	 	 	 	 	 	 	 	 	 	 	 	 	 	 	 	 	 	1581534375	0.31	0.57
12/02/2020 19:06:16	120220	12022020	190616	79.01	12.418782	-56.733502	78.88	-0.820	0.080	0.960	78.89	-1.20	1.40	 	 	 	 	 	 	 	 	 	 	 	 	 	 	 	 	 	 	1581534376	0.48	0.89
12/02/2020 19:06:17	120220	12022020	190617	78.45	12.418782	-56.733498	78.38	-0.410	-1.200	1.080	78.37	-2.40	1.50	 	 	 	 	 	 	 	 	 	 	 	 	 	 	 	 	 	 	1581534377	0.69	1.28
12/02/2020 19:06:18	120220	12022020	190618	78.21	12.418785	-56.733495	78.25	0.160	-1.990	0.720	78.21	-3.30	1.20	 	 	 	 	 	 	 	 	 	 	 	 	 	 	 	 	 	 	1581534378	0.87	1.61
12/02/2020 19:06:19	120220	12022020	190619	78.29	12.418790	-56.733497	78.47	0.660	-1.900	0.090	78.35	-3.40	0.60	 	 	 	 	 	 	 	 	 	 	 	 	 	 	 	 	 	 	1581534379	1.23	2.28
12/02/2020 19:06:20	120220	12022020	190620	78.78	12.418797	-56.733498	78.96	0.940	-1.150	-0.520	78.89	-2.70	0.00	 	 	 	 	 	 	 	 	 	 	 	 	 	 	 	 	 	 	1581534380	1.34	2.48
12/02/2020 19:06:21	120220	12022020	190621	79.23	12.418798	-56.733502	79.48	0.960	-0.250	-0.690	79.32	-1.80	-0.30	 	 	 	 	 	 	 	 	 	 	 	 	 	 	 	 	 	 	1581534381	0.80	1.48
12/02/2020 19:06:22	120220	12022020	190622	79.62	12.418797	-56.733502	79.67	0.650	0.520	-0.110	79.63	-1.00	0.20	 	 	 	 	 	 	 	 	 	 	 	 	 	 	 	 	 	 	1581534382	0.59	1.09
12/02/2020 19:06:23	120220	12022020	190623	79.55	12.418790	-56.733502	79.43	-0.070	1.130	0.970	79.49	-0.40	1.30	 	 	 	 	 	 	 	 	 	 	 	 	 	 	 	 	 	 	1581534383	1.55	2.87
12/02/2020 19:06:24	120220	12022020	190624	78.96	12.418782	-56.733503	78.84	-0.910	1.380	1.930	78.83	-0.00	2.30	 	 	 	 	 	 	 	 	 	 	 	 	 	 	 	 	 	 	1581534384	1.54	2.85
12/02/2020 19:06:25	120220	12022020	190625	78.31	12.418780	-56.733503	78.23	-1.370	1.000	2.270	78.21	-0.30	2.70	 	 	 	 	 	 	 	 	 	 	 	 	 	 	 	 	 	 	1581534385	0.59	1.09
12/02/2020 19:06:26	120220	12022020	190626	77.99	12.418782	-56.733503	78.06	-1.160	0.020	1.970	77.99	-1.20	2.50	 	 	 	 	 	 	 	 	 	 	 	 	 	 	 	 	 	 	1581534386	0.48	0.89
12/02/2020 19:06:27	120220	12022020	190627	78.16	12.418787	-56.733502	78.32	-0.430	-1.150	1.280	78.24	-2.40	1.90	 	 	 	 	 	 	 	 	 	 	 	 	 	 	 	 	 	 	1581534387	0.96	1.78
12/02/2020 19:06:28	120220	12022020	190628	78.57	12.418790	-56.733498	78.72	0.360	-1.910	0.450	78.66	-3.20	1.00	 	 	 	 	 	 	 	 	 	 	 	 	 	 	 	 	 	 	1581534388	0.95	1.76
12/02/2020 19:06:29	120220	12022020	190629	78.88	12.418792	-56.733498	78.92	0.800	-1.760	-0.260	78.90	-3.20	0.30	 	 	 	 	 	 	 	 	 	 	 	 	 	 	 	 	 	 	1581534389	0.61	1.13
12/02/2020 19:06:30	120220	12022020	190630	78.84	12.418795	-56.733500	78.77	0.800	-0.760	-0.620	78.79	-2.30	-0.10	 	 	 	 	 	 	 	 	 	 	 	 	 	 	 	 	 	 	1581534390	0.67	1.24
12/02/2020 19:06:31	120220	12022020	190631	78.55	12.418795	-56.733505	78.47	0.580	0.380	-0.600	78.49	-1.20	-0.20	 	 	 	 	 	 	 	 	 	 	 	 	 	 	 	 	 	 	1581534391	1.02	1.89
12/02/2020 19:06:32	120220	12022020	190632	78.29	12.418797	-56.733508	78.26	0.390	0.850	-0.350	78.26	-0.60	0.10	 	 	 	 	 	 	 	 	 	 	 	 	 	 	 	 	 	 	1581534392	0.66	1.22
12/02/2020 19:06:33	120220	12022020	190633	78.20	12.418798	-56.733507	78.21	0.280	0.460	-0.140	78.20	-0.80	0.30	 	 	 	 	 	 	 	 	 	 	 	 	 	 	 	 	 	 	1581534393	0.34	0.63
12/02/2020 19:06:34	120220	12022020	190634	78.16	12.418800	-56.733503	78.16	0.150	-0.230	0.020	78.15	-1.50	0.50	 	 	 	 	 	 	 	 	 	 	 	 	 	 	 	 	 	 	1581534394	0.90	1.67
12/02/2020 19:06:35	120220	12022020	190635	78.08	12.418802	-56.733502	78.11	-0.140	-0.420	0.350	78.07	-1.80	0.70	 	 	 	 	 	 	 	 	 	 	 	 	 	 	 	 	 	 	1581534395	0.63	1.17
12/02/2020 19:06:36	120220	12022020	190636	78.11	12.418798	-56.733502	78.23	-0.600	0.110	0.950	78.15	-1.40	1.30	 	 	 	 	 	 	 	 	 	 	 	 	 	 	 	 	 	 	1581534396	0.64	1.19
12/02/2020 19:06:37	120220	12022020	190637	78.42	12.418792	-56.733505	78.60	-1.010	0.710	1.560	78.49	-0.70	1.90	 	 	 	 	 	 	 	 	 	 	 	 	 	 	 	 	 	 	1581534397	1.56	2.89
12/02/2020 19:06:38	120220	12022020	190638	78.83	12.418785	-56.733508	79.01	-0.990	0.570	1.910	78.92	-0.70	2.30	 	 	 	 	 	 	 	 	 	 	 	 	 	 	 	 	 	 	1581534398	1.53	2.83
12/02/2020 19:06:39	120220	12022020	190639	79.16	12.418782	-56.733505	79.25	-0.420	-0.370	1.830	79.19	-1.60	2.30	 	 	 	 	 	 	 	 	 	 	 	 	 	 	 	 	 	 	1581534399	0.90	1.67
12/02/2020 19:06:40	120220	12022020	190640	79.16	12.418782	-56.733502	79.14	0.430	-1.380	1.520	79.12	-2.60	2.00	 	 	 	 	 	 	 	 	 	 	 	 	 	 	 	 	 	 	1581534400	0.85	1.57
12/02/2020 19:06:41	120220	12022020	190641	78.91	12.418785	-56.733500	78.85	1.040	-1.660	1.050	78.85	-3.00	1.60	 	 	 	 	 	 	 	 	 	 	 	 	 	 	 	 	 	 	1581534401	0.94	1.74
12/02/2020 19:06:42	120220	12022020	190642	78.69	12.418790	-56.733500	78.67	1.120	-1.110	0.510	78.66	-2.60	1.00	 	 	 	 	 	 	 	 	 	 	 	 	 	 	 	 	 	 	1581534402	1.21	2.24
12/02/2020 19:06:43	120220	12022020	190643	78.61	12.418797	-56.733503	78.62	0.760	-0.180	-0.000	78.61	-1.70	0.50	 	 	 	 	 	 	 	 	 	 	 	 	 	 	 	 	 	 	1581534403	1.34	2.48
12/02/2020 19:06:44	120220	12022020	190644	78.70	12.418800	-56.733507	78.77	0.220	0.580	-0.530	78.75	-0.90	0.00	 	 	 	 	 	 	 	 	 	 	 	 	 	 	 	 	 	 	1581534404	1.17	2.17
12/02/2020 19:06:45	120220	12022020	190645	79.03	12.418803	-56.733508	79.15	-0.250	0.800	-0.870	79.11	-0.60	-0.40	 	 	 	 	 	 	 	 	 	 	 	 	 	 	 	 	 	 	1581534405	0.57	1.06
12/02/2020 19:06:46	120220	12022020	190646	79.39	12.418802	-56.733507	79.46	-0.560	0.520	-0.710	79.44	-0.80	-0.30	 	 	 	 	 	 	 	 	 	 	 	 	 	 	 	 	 	 	1581534406	0.35	0.65
12/02/2020 19:06:47	120220	12022020	190647	79.48	12.418798	-56.733505	79.47	-0.720	0.160	-0.200	79.46	-1.20	0.20	 	 	 	 	 	 	 	 	 	 	 	 	 	 	 	 	 	 	1581534407	0.89	1.65
12/02/2020 19:06:48	120220	12022020	190648	79.37	12.418793	-56.733503	79.38	-0.750	-0.010	0.370	79.36	-1.40	0.70	 	 	 	 	 	 	 	 	 	 	 	 	 	 	 	 	 	 	1581534408	0.99	1.83
12/02/2020 19:06:49	120220	12022020	190649	79.40	12.418790	-56.733503	79.50	-0.620	-0.090	0.840	79.44	-1.40	1.20	 	 	 	 	 	 	 	 	 	 	 	 	 	 	 	 	 	 	1581534409	1.02	1.89
12/02/2020 19:06:50	120220	12022020	190650	79.63	12.418785	-56.733503	79.74	-0.330	-0.360	1.210	79.68	-1.70	1.60	 	 	 	 	 	 	 	 	 	 	 	 	 	 	 	 	 	 	1581534410	0.85	1.57
12/02/2020 19:06:51	120220	12022020	190651	79.79	12.418783	-56.733502	79.82	0.110	-0.790	1.510	79.79	-2.10	1.90	 	 	 	 	 	 	 	 	 	 	 	 	 	 	 	 	 	 	1581534411	0.49	0.91
12/02/2020 19:06:52	120220	12022020	190652	79.74	12.418783	-56.733500	79.73	0.630	-1.100	1.530	79.72	-2.50	2.00	 	 	 	 	 	 	 	 	 	 	 	 	 	 	 	 	 	 	1581534412	0.39	0.72
12/02/2020 19:06:53	120220	12022020	190653	79.62	12.418787	-56.733498	79.58	0.990	-0.970	1.170	79.59	-2.40	1.70	 	 	 	 	 	 	 	 	 	 	 	 	 	 	 	 	 	 	1581534413	0.53	0.98
12/02/2020 19:06:54	120220	12022020	190654	79.48	12.418790	-56.733500	79.44	0.950	-0.410	0.710	79.46	-1.90	1.20	 	 	 	 	 	 	 	 	 	 	 	 	 	 	 	 	 	 	1581534414	0.75	1.39
12/02/2020 19:06:55	120220	12022020	190655	79.39	12.418793	-56.733502	79.35	0.530	0.160	0.420	79.38	-1.30	0.90	 	 	 	 	 	 	 	 	 	 	 	 	 	 	 	 	 	 	1581534415	0.80	1.48
12/02/2020 19:06:56	120220	12022020	190656	79.39	12.418795	-56.733502	79.40	-0.060	0.460	0.270	79.41	-0.90	0.80	 	 	 	 	 	 	 	 	 	 	 	 	 	 	 	 	 	 	1581534416	0.71	1.31
12/02/2020 19:06:57	120220	12022020	190657	79.56	12.418798	-56.733502	79.64	-0.540	0.450	0.080	79.62	-0.90	0.60	 	 	 	 	 	 	 	 	 	 	 	 	 	 	 	 	 	 	1581534417	0.53	0.98
12/02/2020 19:06:58	120220	12022020	190658	79.87	12.418798	-56.733502	79.96	-0.740	0.250	-0.130	79.94	-1.10	0.40	 	 	 	 	 	 	 	 	 	 	 	 	 	 	 	 	 	 	1581534418	0.26	0.48
12/02/2020 19:06:59	120220	12022020	190659	80.14	12.418797	-56.733500	80.28	-0.630	-0.100	-0.170	80.20	-1.40	0.30	 	 	 	 	 	 	 	 	 	 	 	 	 	 	 	 	 	 	1581534419	0.53	0.98
12/02/2020 19:07:00	120220	12022020	190700	80.41	12.418793	-56.733497	80.42	-0.310	-0.430	0.150	80.41	-1.80	0.50	 	 	 	 	 	 	 	 	 	 	 	 	 	 	 	 	 	 	1581534420	0.88	1.63
12/02/2020 19:07:01	120220	12022020	190701	80.29	12.418790	-56.733497	80.24	0.040	-0.450	0.780	80.23	-1.80	1.10	 	 	 	 	 	 	 	 	 	 	 	 	 	 	 	 	 	 	1581534421	0.90	1.67
12/02/2020 19:07:02	120220	12022020	190702	79.89	12.418787	-56.733497	79.80	0.300	-0.320	1.310	79.82	-1.70	1.70	1014.50	26.80	26.90	17.80	17.90	218.0	58.0	58.0	439.0	27.1	357.00	10.80	76.00	10.30	19485	12159.0	27.4	27.4	1581534422	0.63	1.17
12/02/2020 19:07:03	120220	12022020	190703	79.61	12.418787	-56.733497	79.62	0.410	-0.350	1.280	79.61	-1.70	1.80	 	 	 	 	 	 	 	 	 	 	 	 	 	 	 	 	 	 	1581534423	0.04	0.07
12/02/2020 19:07:04	120220	12022020	190704	79.83	12.418790	-56.733495	79.95	0.360	-0.410	0.780	79.93	-1.80	1.30	 	 	 	 	 	 	 	 	 	 	 	 	 	 	 	 	 	 	1581534424	0.67	1.24
12/02/2020 19:07:05	120220	12022020	190705	80.31	12.418793	-56.733495	80.38	0.140	-0.200	0.400	80.37	-1.60	0.90	 	 	 	 	 	 	 	 	 	 	 	 	 	 	 	 	 	 	1581534425	0.73	1.35
12/02/2020 19:07:06	120220	12022020	190706	80.38	12.418793	-56.733497	80.29	-0.110	-0.030	0.560	80.33	-1.40	1.00	 	 	 	 	 	 	 	 	 	 	 	 	 	 	 	 	 	 	1581534426	0.28	0.52
12/02/2020 19:07:07	120220	12022020	190707	80.02	12.418793	-56.733497	79.89	-0.270	-0.120	0.870	79.94	-1.50	1.30	 	 	 	 	 	 	 	 	 	 	 	 	 	 	 	 	 	 	1581534427	0.35	0.65
12/02/2020 19:07:08	120220	12022020	190708	79.66	12.418792	-56.733495	79.59	-0.250	-0.270	0.870	79.61	-1.60	1.30	 	 	 	 	 	 	 	 	 	 	 	 	 	 	 	 	 	 	1581534428	0.42	0.78
12/02/2020 19:07:09	120220	12022020	190709	79.53	12.418792	-56.733493	79.52	-0.030	-0.370	0.720	79.53	-1.70	1.20	 	 	 	 	 	 	 	 	 	 	 	 	 	 	 	 	 	 	1581534429	0.23	0.43
12/02/2020 19:07:10	120220	12022020	190710	79.62	12.418793	-56.733493	79.67	0.290	-0.490	0.560	79.66	-1.90	1.00	 	 	 	 	 	 	 	 	 	 	 	 	 	 	 	 	 	 	1581534430	0.52	0.96
12/02/2020 19:07:11	120220	12022020	190711	79.83	12.418797	-56.733492	79.98	0.470	-0.460	0.270	79.89	-1.90	0.80	 	 	 	 	 	 	 	 	 	 	 	 	 	 	 	 	 	 	1581534431	0.69	1.28
12/02/2020 19:07:12	120220	12022020	190712	80.29	12.418800	-56.733492	80.38	0.320	-0.110	-0.070	80.37	-1.60	0.40	 	 	 	 	 	 	 	 	 	 	 	 	 	 	 	 	 	 	1581534432	0.50	0.93
12/02/2020 19:07:13	120220	12022020	190713	80.54	12.418798	-56.733493	80.58	-0.200	0.490	-0.010	80.57	-1.00	0.40	 	 	 	 	 	 	 	 	 	 	 	 	 	 	 	 	 	 	1581534433	0.41	0.76
12/02/2020 19:07:14	120220	12022020	190714	80.43	12.418793	-56.733497	80.33	-0.830	0.880	0.600	80.36	-0.50	0.90	 	 	 	 	 	 	 	 	 	 	 	 	 	 	 	 	 	 	1581534434	1.13	2.09
12/02/2020 19:07:15	120220	12022020	190715	79.94	12.418788	-56.733497	79.78	-1.030	0.600	1.380	79.83	-0.70	1.70	 	 	 	 	 	 	 	 	 	 	 	 	 	 	 	 	 	 	1581534435	1.30	2.41
12/02/2020 19:07:16	120220	12022020	190716	79.43	12.418785	-56.733495	79.35	-0.510	-0.390	1.710	79.37	-1.60	2.20	 	 	 	 	 	 	 	 	 	 	 	 	 	 	 	 	 	 	1581534436	0.77	1.43
12/02/2020 19:07:17	120220	12022020	190717	79.26	12.418788	-56.733492	79.26	0.370	-1.540	1.360	79.26	-2.80	1.90	 	 	 	 	 	 	 	 	 	 	 	 	 	 	 	 	 	 	1581534437	1.04	1.93
12/02/2020 19:07:18	120220	12022020	190718	79.38	12.418795	-56.733488	79.43	0.960	-1.930	0.590	79.43	-3.30	1.20	 	 	 	 	 	 	 	 	 	 	 	 	 	 	 	 	 	 	1581534438	1.58	2.93
12/02/2020 19:07:19	120220	12022020	190719	79.68	12.418800	-56.733488	79.77	0.890	-1.120	-0.140	79.76	-2.70	0.40	 	 	 	 	 	 	 	 	 	 	 	 	 	 	 	 	 	 	1581534439	1.32	2.44
12/02/2020 19:07:20	120220	12022020	190720	80.04	12.418803	-56.733493	80.09	0.340	0.250	-0.420	80.10	-1.30	0.00	 	 	 	 	 	 	 	 	 	 	 	 	 	 	 	 	 	 	1581534440	1.12	2.07
12/02/2020 19:07:21	120220	12022020	190721	80.11	12.418800	-56.733498	80.04	-0.280	1.200	0.020	80.06	-0.30	0.40	 	 	 	 	 	 	 	 	 	 	 	 	 	 	 	 	 	 	1581534441	1.11	2.06
12/02/2020 19:07:22	120220	12022020	190722	79.77	12.418795	-56.733500	79.67	-0.570	1.150	0.810	79.68	-0.20	1.20	 	 	 	 	 	 	 	 	 	 	 	 	 	 	 	 	 	 	1581534442	1.04	1.93
12/02/2020 19:07:23	120220	12022020	190723	79.43	12.418792	-56.733497	79.38	-0.460	0.300	1.200	79.39	-1.00	1.60	 	 	 	 	 	 	 	 	 	 	 	 	 	 	 	 	 	 	1581534443	1.01	1.87
12/02/2020 19:07:24	120220	12022020	190724	79.29	12.418792	-56.733492	79.30	-0.190	-0.540	1.200	79.28	-1.80	1.70	 	 	 	 	 	 	 	 	 	 	 	 	 	 	 	 	 	 	1581534444	0.86	1.59
12/02/2020 19:07:25	120220	12022020	190725	79.32	12.418792	-56.733492	79.38	-0.070	-0.700	1.050	79.35	-2.10	1.50	 	 	 	 	 	 	 	 	 	 	 	 	 	 	 	 	 	 	1581534445	0.30	0.56
12/02/2020 19:07:26	120220	12022020	190726	79.56	12.418793	-56.733495	79.66	-0.160	-0.400	0.770	79.62	-1.80	1.30	 	 	 	 	 	 	 	 	 	 	 	 	 	 	 	 	 	 	1581534446	0.63	1.17
12/02/2020 19:07:27	120220	12022020	190727	79.85	12.418795	-56.733497	79.90	-0.180	-0.210	0.380	79.89	-1.60	0.90	 	 	 	 	 	 	 	 	 	 	 	 	 	 	 	 	 	 	1581534447	0.76	1.41
12/02/2020 19:07:28	120220	12022020	190728	79.88	12.418795	-56.733498	79.82	0.080	-0.450	0.130	79.85	-1.80	0.60	 	 	 	 	 	 	 	 	 	 	 	 	 	 	 	 	 	 	1581534448	0.26	0.48
12/02/2020 19:07:29	120220	12022020	190729	79.65	12.418797	-56.733497	79.57	0.500	-0.920	0.050	79.59	-2.20	0.50	 	 	 	 	 	 	 	 	 	 	 	 	 	 	 	 	 	 	1581534449	0.50	0.93
12/02/2020 19:07:30	120220	12022020	190730	79.38	12.418797	-56.733493	79.34	0.790	-1.040	0.250	79.34	-2.40	0.70	 	 	 	 	 	 	 	 	 	 	 	 	 	 	 	 	 	 	1581534450	0.67	1.24
12/02/2020 19:07:31	120220	12022020	190731	79.21	12.418797	-56.733492	79.21	0.680	-0.460	0.550	79.20	-2.00	1.00	 	 	 	 	 	 	 	 	 	 	 	 	 	 	 	 	 	 	1581534451	0.15	0.28
12/02/2020 19:07:32	120220	12022020	190732	79.21	12.418797	-56.733495	79.26	0.160	0.490	0.500	79.23	-1.00	1.00	 	 	 	 	 	 	 	 	 	 	 	 	 	 	 	 	 	 	1581534452	0.57	1.06
12/02/2020 19:07:33	120220	12022020	190733	79.41	12.418798	-56.733500	79.50	-0.540	1.210	0.040	79.47	-0.30	0.60	 	 	 	 	 	 	 	 	 	 	 	 	 	 	 	 	 	 	1581534453	1.03	1.91
12/02/2020 19:07:34	120220	12022020	190734	79.78	12.418802	-56.733503	79.89	-1.050	1.380	-0.340	79.87	-0.00	0.10	 	 	 	 	 	 	 	 	 	 	 	 	 	 	 	 	 	 	1581534454	0.87	1.61
12/02/2020 19:07:35	120220	12022020	190735	80.10	12.418800	-56.733503	80.26	-1.060	0.800	-0.230	80.17	-0.50	0.20	 	 	 	 	 	 	 	 	 	 	 	 	 	 	 	 	 	 	1581534455	0.35	0.65
12/02/2020 19:07:36	120220	12022020	190736	80.39	12.418797	-56.733502	80.44	-0.540	-0.490	0.270	80.41	-1.70	0.60	 	 	 	 	 	 	 	 	 	 	 	 	 	 	 	 	 	 	1581534456	0.94	1.74
12/02/2020 19:07:37	120220	12022020	190737	80.41	12.418792	-56.733497	80.38	0.280	-1.950	0.820	80.38	-3.20	1.20	 	 	 	 	 	 	 	 	 	 	 	 	 	 	 	 	 	 	1581534457	1.49	2.76
12/02/2020 19:07:38	120220	12022020	190738	80.09	12.418788	-56.733490	79.98	0.970	-2.590	1.320	79.99	-4.00	1.70	 	 	 	 	 	 	 	 	 	 	 	 	 	 	 	 	 	 	1581534458	1.39	2.57
12/02/2020 19:07:39	120220	12022020	190739	79.57	12.418788	-56.733488	79.50	1.110	-1.830	1.590	79.49	-3.40	2.00	 	 	 	 	 	 	 	 	 	 	 	 	 	 	 	 	 	 	1581534459	0.35	0.65
12/02/2020 19:07:40	120220	12022020	190740	79.36	12.418790	-56.733493	79.44	0.640	-0.100	1.490	79.39	-1.80	2.00	 	 	 	 	 	 	 	 	 	 	 	 	 	 	 	 	 	 	1581534460	0.95	1.76
12/02/2020 19:07:41	120220	12022020	190741	79.73	12.418792	-56.733500	79.91	-0.140	1.560	0.830	79.85	-0.00	1.40	 	 	 	 	 	 	 	 	 	 	 	 	 	 	 	 	 	 	1581534461	1.59	2.94
12/02/2020 19:07:42	120220	12022020	190742	80.41	12.418795	-56.733507	80.57	-0.720	2.230	-0.170	80.54	0.80	0.40	 	 	 	 	 	 	 	 	 	 	 	 	 	 	 	 	 	 	1581534462	1.54	2.85
12/02/2020 19:07:43	120220	12022020	190743	80.96	12.418800	-56.733508	81.03	-0.800	1.580	-0.820	81.04	0.30	-0.30	 	 	 	 	 	 	 	 	 	 	 	 	 	 	 	 	 	 	1581534463	0.94	1.74
12/02/2020 19:07:44	120220	12022020	190744	81.22	12.418802	-56.733505	81.22	-0.490	0.020	-0.870	81.23	-1.20	-0.40	 	 	 	 	 	 	 	 	 	 	 	 	 	 	 	 	 	 	1581534464	0.80	1.48
12/02/2020 19:07:45	120220	12022020	190745	81.17	12.418800	-56.733498	81.13	-0.090	-1.470	-0.400	81.13	-2.70	-0.00	 	 	 	 	 	 	 	 	 	 	 	 	 	 	 	 	 	 	1581534465	1.27	2.35
12/02/2020 19:07:46	120220	12022020	190746	80.93	12.418795	-56.733495	80.90	0.200	-2.020	0.360	80.87	-3.40	0.70	 	 	 	 	 	 	 	 	 	 	 	 	 	 	 	 	 	 	1581534466	1.13	2.09
12/02/2020 19:07:47	120220	12022020	190747	80.73	12.418790	-56.733495	80.71	0.370	-1.590	1.060	80.70	-3.10	1.40	 	 	 	 	 	 	 	 	 	 	 	 	 	 	 	 	 	 	1581534467	1.00	1.85
12/02/2020 19:07:48	120220	12022020	190748	80.50	12.418787	-56.733498	80.51	0.440	-0.680	1.480	80.45	-2.20	1.90	 	 	 	 	 	 	 	 	 	 	 	 	 	 	 	 	 	 	1581534468	0.90	1.67
12/02/2020 19:07:49	120220	12022020	190749	80.31	12.418787	-56.733500	80.32	0.380	0.130	1.490	80.28	-1.40	2.00	 	 	 	 	 	 	 	 	 	 	 	 	 	 	 	 	 	 	1581534469	0.56	1.04
12/02/2020 19:07:50	120220	12022020	190750	80.37	12.418790	-56.733502	80.54	0.160	0.520	1.050	80.45	-0.90	1.60	 	 	 	 	 	 	 	 	 	 	 	 	 	 	 	 	 	 	1581534470	0.58	1.07
12/02/2020 19:07:51	120220	12022020	190751	80.88	12.418793	-56.733502	81.06	-0.090	0.470	0.380	80.98	-0.90	0.90	 	 	 	 	 	 	 	 	 	 	 	 	 	 	 	 	 	 	1581534471	0.76	1.41
12/02/2020 19:07:52	120220	12022020	190752	81.33	12.418795	-56.733500	81.44	-0.180	0.220	-0.100	81.39	-1.20	0.40	 	 	 	 	 	 	 	 	 	 	 	 	 	 	 	 	 	 	1581534472	0.61	1.13
12/02/2020 19:07:53	120220	12022020	190753	81.55	12.418797	-56.733500	81.59	-0.040	-0.020	-0.290	81.57	-1.40	0.20	 	 	 	 	 	 	 	 	 	 	 	 	 	 	 	 	 	 	1581534473	0.28	0.52
12/02/2020 19:07:54	120220	12022020	190754	81.56	12.418797	-56.733500	81.54	0.140	-0.100	-0.190	81.54	-1.50	0.20	 	 	 	 	 	 	 	 	 	 	 	 	 	 	 	 	 	 	1581534474	0.11	0.20
12/02/2020 19:07:55	120220	12022020	190755	81.32	12.418795	-56.733500	81.23	0.130	-0.050	0.260	81.24	-1.50	0.60	 	 	 	 	 	 	 	 	 	 	 	 	 	 	 	 	 	 	1581534475	0.26	0.48
12/02/2020 19:07:56	120220	12022020	190756	80.89	12.418793	-56.733500	80.81	-0.120	-0.080	0.850	80.80	-1.50	1.20	 	 	 	 	 	 	 	 	 	 	 	 	 	 	 	 	 	 	1581534476	0.44	0.81
12/02/2020 19:07:57	120220	12022020	190757	80.64	12.418792	-56.733500	80.72	-0.420	-0.320	1.110	80.66	-1.70	1.50	 	 	 	 	 	 	 	 	 	 	 	 	 	 	 	 	 	 	1581534477	0.34	0.63
12/02/2020 19:07:58	120220	12022020	190758	80.91	12.418790	-56.733500	81.08	-0.460	-0.630	1.020	81.01	-2.00	1.50	 	 	 	 	 	 	 	 	 	 	 	 	 	 	 	 	 	 	1581534478	0.22	0.41
12/02/2020 19:07:59	120220	12022020	190759	81.37	12.418790	-56.733498	81.47	-0.130	-0.800	0.980	81.43	-2.20	1.40	 	 	 	 	 	 	 	 	 	 	 	 	 	 	 	 	 	 	1581534479	0.26	0.48
12/02/2020 19:08:00	120220	12022020	190800	81.51	12.418788	-56.733498	81.51	0.330	-0.800	1.100	81.50	-2.20	1.50	 	 	 	 	 	 	 	 	 	 	 	 	 	 	 	 	 	 	1581534480	0.38	0.70
12/02/2020 19:08:01	120220	12022020	190801	81.40	12.418788	-56.733497	81.29	0.620	-0.660	1.050	81.36	-2.10	1.50	 	 	 	 	 	 	 	 	 	 	 	 	 	 	 	 	 	 	1581534481	0.25	0.46
12/02/2020 19:08:02	120220	12022020	190802	81.12	12.418790	-56.733497	81.06	0.610	-0.310	0.810	81.07	-1.80	1.30	1014.50	26.90	26.90	17.50	17.60	225.0	56.0	56.0	438.0	27.2	356.00	10.70	76.00	10.40	19875	13233.0	27.4	27.4	1581534482	0.34	0.63
12/02/2020 19:08:03	120220	12022020	190803	80.93	12.418792	-56.733498	80.83	0.340	0.460	0.630	80.89	-1.10	1.10	 	 	 	 	 	 	 	 	 	 	 	 	 	 	 	 	 	 	1581534483	0.61	1.13
12/02/2020 19:08:04	120220	12022020	190804	80.78	12.418793	-56.733502	80.80	-0.100	1.200	0.400	80.80	-0.30	0.90	 	 	 	 	 	 	 	 	 	 	 	 	 	 	 	 	 	 	1581534484	0.92	1.70
12/02/2020 19:08:05	120220	12022020	190805	81.05	12.418795	-56.733505	81.19	-0.490	1.070	-0.020	81.15	-0.20	0.50	 	 	 	 	 	 	 	 	 	 	 	 	 	 	 	 	 	 	1581534485	0.69	1.28
12/02/2020 19:08:06	120220	12022020	190806	81.62	12.418795	-56.733503	81.76	-0.580	0.000	-0.410	81.73	-1.20	0.10	 	 	 	 	 	 	 	 	 	 	 	 	 	 	 	 	 	 	1581534486	0.32	0.59
12/02/2020 19:08:07	120220	12022020	190807	81.90	12.418795	-56.733500	81.88	-0.260	-1.190	-0.220	81.88	-2.40	0.10	 	 	 	 	 	 	 	 	 	 	 	 	 	 	 	 	 	 	1581534487	0.93	1.72
12/02/2020 19:08:08	120220	12022020	190808	81.58	12.418793	-56.733495	81.46	0.200	-1.640	0.610	81.47	-3.00	0.90	 	 	 	 	 	 	 	 	 	 	 	 	 	 	 	 	 	 	1581534488	0.94	1.74
12/02/2020 19:08:09	120220	12022020	190809	81.04	12.418788	-56.733495	80.94	0.390	-1.160	1.650	80.94	-2.60	1.90	 	 	 	 	 	 	 	 	 	 	 	 	 	 	 	 	 	 	1581534489	0.92	1.70
12/02/2020 19:08:10	120220	12022020	190810	80.67	12.418783	-56.733497	80.67	0.220	-0.310	2.420	80.63	-1.80	2.80	 	 	 	 	 	 	 	 	 	 	 	 	 	 	 	 	 	 	1581534490	1.21	2.24
12/02/2020 19:08:11	120220	12022020	190811	80.63	12.418780	-56.733500	80.71	0.010	0.250	2.620	80.66	-1.20	3.10	 	 	 	 	 	 	 	 	 	 	 	 	 	 	 	 	 	 	1581534491	0.85	1.57
12/02/2020 19:08:12	120220	12022020	190812	80.83	12.418782	-56.733500	80.97	0.040	0.320	2.310	80.90	-1.10	2.80	 	 	 	 	 	 	 	 	 	 	 	 	 	 	 	 	 	 	1581534492	0.14	0.26
12/02/2020 19:08:13	120220	12022020	190813	81.25	12.418785	-56.733498	81.41	0.220	0.130	1.550	81.36	-1.20	2.10	 	 	 	 	 	 	 	 	 	 	 	 	 	 	 	 	 	 	1581534493	0.80	1.48
12/02/2020 19:08:14	120220	12022020	190814	81.80	12.418788	-56.733498	81.92	0.220	0.090	0.560	81.90	-1.30	1.10	 	 	 	 	 	 	 	 	 	 	 	 	 	 	 	 	 	 	1581534494	0.88	1.63
12/02/2020 19:08:15	120220	12022020	190815	82.13	12.418792	-56.733500	82.09	-0.100	0.330	-0.170	82.13	-1.10	0.30	 	 	 	 	 	 	 	 	 	 	 	 	 	 	 	 	 	 	1581534495	0.58	1.07
12/02/2020 19:08:16	120220	12022020	190816	81.83	12.418790	-56.733503	81.61	-0.500	0.430	-0.170	81.69	-1.00	0.20	 	 	 	 	 	 	 	 	 	 	 	 	 	 	 	 	 	 	1581534496	0.60	1.11
12/02/2020 19:08:17	120220	12022020	190817	80.98	12.418788	-56.733503	80.72	-0.590	-0.020	0.410	80.82	-1.30	0.80	 	 	 	 	 	 	 	 	 	 	 	 	 	 	 	 	 	 	1581534497	0.49	0.91
12/02/2020 19:08:18	120220	12022020	190818	80.28	12.418788	-56.733502	80.20	-0.280	-0.840	0.620	80.22	-2.10	1.10	 	 	 	 	 	 	 	 	 	 	 	 	 	 	 	 	 	 	1581534498	0.42	0.78
12/02/2020 19:08:19	120220	12022020	190819	80.35	12.418792	-56.733498	80.49	0.220	-1.490	0.010	80.45	-2.80	0.60	 	 	 	 	 	 	 	 	 	 	 	 	 	 	 	 	 	 	1581534499	1.00	1.85
12/02/2020 19:08:20	120220	12022020	190820	81.00	12.418797	-56.733497	81.20	0.590	-1.490	-0.770	81.14	-2.90	-0.20	 	 	 	 	 	 	 	 	 	 	 	 	 	 	 	 	 	 	1581534500	1.18	2.19
12/02/2020 19:08:21	120220	12022020	190821	81.53	12.418798	-56.733498	81.57	0.600	-0.790	-0.870	81.57	-2.30	-0.50	 	 	 	 	 	 	 	 	 	 	 	 	 	 	 	 	 	 	1581534501	0.26	0.48
12/02/2020 19:08:22	120220	12022020	190822	81.42	12.418793	-56.733500	81.30	0.310	0.210	-0.040	81.32	-1.30	0.20	 	 	 	 	 	 	 	 	 	 	 	 	 	 	 	 	 	 	1581534502	1.07	1.98
12/02/2020 19:08:23	120220	12022020	190823	80.87	12.418787	-56.733502	80.76	-0.130	1.030	1.140	80.76	-0.50	1.40	 	 	 	 	 	 	 	 	 	 	 	 	 	 	 	 	 	 	1581534503	1.65	3.06
12/02/2020 19:08:24	120220	12022020	190824	80.51	12.418780	-56.733503	80.53	-0.500	1.430	1.910	80.50	0.00	2.30	 	 	 	 	 	 	 	 	 	 	 	 	 	 	 	 	 	 	1581534504	1.34	2.48
12/02/2020 19:08:25	120220	12022020	190825	80.57	12.418777	-56.733505	80.66	-0.640	1.210	2.080	80.61	-0.10	2.50	 	 	 	 	 	 	 	 	 	 	 	 	 	 	 	 	 	 	1581534505	0.69	1.28
12/02/2020 19:08:26	120220	12022020	190826	80.76	12.418777	-56.733505	80.81	-0.480	0.260	1.900	80.78	-1.00	2.40	 	 	 	 	 	 	 	 	 	 	 	 	 	 	 	 	 	 	1581534506	0.10	0.19
12/02/2020 19:08:27	120220	12022020	190827	80.73	12.418778	-56.733502	80.67	-0.100	-1.160	1.660	80.68	-2.40	2.10	 	 	 	 	 	 	 	 	 	 	 	 	 	 	 	 	 	 	1581534507	0.65	1.20
12/02/2020 19:08:28	120220	12022020	190828	80.40	12.418780	-56.733497	80.30	0.350	-2.330	1.540	80.34	-3.60	2.00	 	 	 	 	 	 	 	 	 	 	 	 	 	 	 	 	 	 	1581534508	1.08	2.00
12/02/2020 19:08:29	120220	12022020	190829	80.15	12.418782	-56.733493	80.14	0.610	-2.350	1.460	80.13	-3.80	1.90	 	 	 	 	 	 	 	 	 	 	 	 	 	 	 	 	 	 	1581534509	0.72	1.33
12/02/2020 19:08:30	120220	12022020	190830	80.24	12.418782	-56.733497	80.33	0.500	-1.020	1.250	80.30	-2.70	1.70	 	 	 	 	 	 	 	 	 	 	 	 	 	 	 	 	 	 	1581534510	0.45	0.83
12/02/2020 19:08:31	120220	12022020	190831	80.56	12.418780	-56.733503	80.62	0.110	0.770	0.800	80.62	-0.90	1.30	 	 	 	 	 	 	 	 	 	 	 	 	 	 	 	 	 	 	1581534511	1.42	2.63
12/02/2020 19:08:32	120220	12022020	190832	80.81	12.418778	-56.733508	80.81	-0.170	1.720	0.190	80.84	0.30	0.70	 	 	 	 	 	 	 	 	 	 	 	 	 	 	 	 	 	 	1581534512	1.24	2.30
12/02/2020 19:08:33	120220	12022020	190833	80.84	12.418780	-56.733508	80.75	-0.150	1.290	-0.310	80.80	-0.00	0.20	 	 	 	 	 	 	 	 	 	 	 	 	 	 	 	 	 	 	1581534513	0.28	0.52
12/02/2020 19:08:34	120220	12022020	190834	80.60	12.418783	-56.733505	80.50	-0.090	0.130	-0.510	80.55	-1.10	-0.10	 	 	 	 	 	 	 	 	 	 	 	 	 	 	 	 	 	 	1581534514	1.04	1.93
12/02/2020 19:08:35	120220	12022020	190835	80.38	12.418787	-56.733502	80.36	-0.250	-0.730	-0.440	80.36	-2.10	-0.00	 	 	 	 	 	 	 	 	 	 	 	 	 	 	 	 	 	 	1581534515	1.01	1.87
12/02/2020 19:08:36	120220	12022020	190836	80.43	12.418787	-56.733502	80.54	-0.530	-0.750	-0.150	80.48	-2.20	0.30	 	 	 	 	 	 	 	 	 	 	 	 	 	 	 	 	 	 	1581534516	0.11	0.20
12/02/2020 19:08:37	120220	12022020	190837	80.82	12.418783	-56.733505	80.99	-0.630	-0.170	0.190	80.91	-1.70	0.60	 	 	 	 	 	 	 	 	 	 	 	 	 	 	 	 	 	 	1581534517	1.04	1.93
12/02/2020 19:08:38	120220	12022020	190838	81.29	12.418778	-56.733508	81.42	-0.380	0.080	0.580	81.37	-1.30	1.00	 	 	 	 	 	 	 	 	 	 	 	 	 	 	 	 	 	 	1581534518	1.40	2.59
12/02/2020 19:08:39	120220	12022020	190839	81.50	12.418773	-56.733508	81.53	0.230	-0.570	1.180	81.51	-1.80	1.50	 	 	 	 	 	 	 	 	 	 	 	 	 	 	 	 	 	 	1581534519	1.16	2.15
12/02/2020 19:08:40	120220	12022020	190840	81.38	12.418768	-56.733503	81.36	0.860	-1.530	1.950	81.33	-2.80	2.30	 	 	 	 	 	 	 	 	 	 	 	 	 	 	 	 	 	 	1581534520	1.49	2.76
12/02/2020 19:08:41	120220	12022020	190841	81.15	12.418767	-56.733498	81.14	1.060	-1.720	2.470	81.12	-3.20	2.90	 	 	 	 	 	 	 	 	 	 	 	 	 	 	 	 	 	 	1581534521	1.21	2.24
12/02/2020 19:08:42	120220	12022020	190842	81.07	12.418767	-56.733497	81.10	0.740	-0.780	2.470	81.08	-2.40	2.90	 	 	 	 	 	 	 	 	 	 	 	 	 	 	 	 	 	 	1581534522	0.10	0.19
12/02/2020 19:08:43	120220	12022020	190843	81.20	12.418767	-56.733502	81.27	0.130	0.790	2.070	81.25	-0.80	2.60	 	 	 	 	 	 	 	 	 	 	 	 	 	 	 	 	 	 	1581534523	0.97	1.80
12/02/2020 19:08:44	120220	12022020	190844	81.50	12.418768	-56.733508	81.58	-0.520	2.060	1.390	81.57	0.50	1.90	 	 	 	 	 	 	 	 	 	 	 	 	 	 	 	 	 	 	1581534524	1.44	2.67
12/02/2020 19:08:45	120220	12022020	190845	81.83	12.418770	-56.733513	81.88	-1.050	2.280	0.660	81.89	0.90	1.20	 	 	 	 	 	 	 	 	 	 	 	 	 	 	 	 	 	 	1581534525	1.27	2.35
12/02/2020 19:08:46	120220	12022020	190846	82.07	12.418773	-56.733515	82.06	-1.260	1.220	-0.070	82.10	-0.00	0.50	 	 	 	 	 	 	 	 	 	 	 	 	 	 	 	 	 	 	1581534526	0.71	1.31
12/02/2020 19:08:47	120220	12022020	190847	82.12	12.418777	-56.733513	82.04	-0.920	-0.700	-0.620	82.10	-1.80	-0.10	 	 	 	 	 	 	 	 	 	 	 	 	 	 	 	 	 	 	1581534527	0.82	1.52
12/02/2020 19:08:48	120220	12022020	190848	82.01	12.418778	-56.733508	81.95	-0.090	-2.560	-0.840	81.99	-3.80	-0.40	 	 	 	 	 	 	 	 	 	 	 	 	 	 	 	 	 	 	1581534528	1.23	2.28
12/02/2020 19:08:49	120220	12022020	190849	81.95	12.418778	-56.733503	81.93	0.800	-3.310	-0.700	81.93	-4.70	-0.30	 	 	 	 	 	 	 	 	 	 	 	 	 	 	 	 	 	 	1581534529	1.07	1.98
12/02/2020 19:08:50	120220	12022020	190850	81.84	12.418775	-56.733502	81.82	1.200	-2.440	-0.200	81.81	-4.00	0.20	 	 	 	 	 	 	 	 	 	 	 	 	 	 	 	 	 	 	1581534530	0.62	1.15
12/02/2020 19:08:51	120220	12022020	190851	81.75	12.418772	-56.733507	81.78	0.910	-0.500	0.190	81.76	-2.20	0.60	 	 	 	 	 	 	 	 	 	 	 	 	 	 	 	 	 	 	1581534531	1.15	2.13
12/02/2020 19:08:52	120220	12022020	190852	81.88	12.418772	-56.733513	81.96	0.210	1.410	0.190	81.93	-0.20	0.60	 	 	 	 	 	 	 	 	 	 	 	 	 	 	 	 	 	 	1581534532	1.54	2.85
12/02/2020 19:08:53	120220	12022020	190853	82.10	12.418772	-56.733518	82.21	-0.410	2.280	0.080	82.16	0.80	0.50	 	 	 	 	 	 	 	 	 	 	 	 	 	 	 	 	 	 	1581534533	1.14	2.11
12/02/2020 19:08:54	120220	12022020	190854	82.41	12.418770	-56.733520	82.44	-0.640	1.980	0.240	82.44	0.60	0.60	 	 	 	 	 	 	 	 	 	 	 	 	 	 	 	 	 	 	1581534534	0.26	0.48
12/02/2020 19:08:55	120220	12022020	190855	82.44	12.418768	-56.733517	82.37	-0.540	0.910	0.800	82.40	-0.30	1.10	 	 	 	 	 	 	 	 	 	 	 	 	 	 	 	 	 	 	1581534535	0.74	1.37
12/02/2020 19:08:56	120220	12022020	190856	82.13	12.418765	-56.733513	82.05	-0.320	-0.380	1.490	82.07	-1.60	1.80	 	 	 	 	 	 	 	 	 	 	 	 	 	 	 	 	 	 	1581534536	0.95	1.76
12/02/2020 19:08:57	120220	12022020	190857	81.91	12.418765	-56.733512	81.93	-0.110	-1.430	1.700	81.91	-2.70	2.10	 	 	 	 	 	 	 	 	 	 	 	 	 	 	 	 	 	 	1581534537	0.49	0.91
12/02/2020 19:08:58	120220	12022020	190858	82.13	12.418767	-56.733512	82.27	0.120	-1.980	1.440	82.23	-3.40	1.90	 	 	 	 	 	 	 	 	 	 	 	 	 	 	 	 	 	 	1581534538	0.52	0.96
12/02/2020 19:08:59	120220	12022020	190859	82.65	12.418768	-56.733512	82.80	0.350	-1.880	1.320	82.76	-3.30	1.80	 	 	 	 	 	 	 	 	 	 	 	 	 	 	 	 	 	 	1581534539	0.20	0.37
12/02/2020 19:09:00	120220	12022020	190900	83.09	12.418765	-56.733513	83.18	0.460	-1.110	1.400	83.15	-2.70	1.80	 	 	 	 	 	 	 	 	 	 	 	 	 	 	 	 	 	 	1581534540	0.62	1.15
12/02/2020 19:09:01	120220	12022020	190901	83.24	12.418763	-56.733517	83.22	0.390	0.060	1.380	83.23	-1.50	1.80	 	 	 	 	 	 	 	 	 	 	 	 	 	 	 	 	 	 	1581534541	0.90	1.67
12/02/2020 19:09:02	120220	12022020	190902	83.04	12.418762	-56.733520	82.90	0.160	1.030	1.200	82.96	-0.50	1.70	1014.50	26.90	27.00	17.70	17.80	232.0	57.0	57.0	438.0	27.2	352.00	11.40	73.00	11.00	20211	14468.0	27.4	27.4	1581534542	0.79	1.46
12/02/2020 19:09:03	120220	12022020	190903	82.60	12.418762	-56.733522	82.45	-0.150	1.250	1.030	82.51	-0.20	1.50	 	 	 	 	 	 	 	 	 	 	 	 	 	 	 	 	 	 	1581534543	0.43	0.80
12/02/2020 19:09:04	120220	12022020	190904	82.34	12.418763	-56.733520	82.32	-0.340	0.640	0.750	82.34	-0.70	1.30	 	 	 	 	 	 	 	 	 	 	 	 	 	 	 	 	 	 	1581534544	0.40	0.74
12/02/2020 19:09:05	120220	12022020	190905	82.51	12.418767	-56.733518	82.57	-0.270	-0.310	0.160	82.58	-1.60	0.70	 	 	 	 	 	 	 	 	 	 	 	 	 	 	 	 	 	 	1581534545	0.97	1.80
12/02/2020 19:09:06	120220	12022020	190906	82.93	12.418773	-56.733515	82.98	0.070	-1.080	-0.670	83.01	-2.40	-0.10	 	 	 	 	 	 	 	 	 	 	 	 	 	 	 	 	 	 	1581534546	1.33	2.46
12/02/2020 19:09:07	120220	12022020	190907	83.34	12.418778	-56.733515	83.36	0.400	-1.090	-1.320	83.40	-2.60	-0.80	 	 	 	 	 	 	 	 	 	 	 	 	 	 	 	 	 	 	1581534547	1.22	2.26
12/02/2020 19:09:08	120220	12022020	190908	83.57	12.418780	-56.733517	83.54	0.360	-0.270	-1.200	83.59	-1.80	-0.80	 	 	 	 	 	 	 	 	 	 	 	 	 	 	 	 	 	 	1581534548	0.76	1.41
12/02/2020 19:09:09	120220	12022020	190909	83.56	12.418777	-56.733522	83.48	-0.070	0.560	-0.180	83.52	-0.90	0.10	 	 	 	 	 	 	 	 	 	 	 	 	 	 	 	 	 	 	1581534549	1.28	2.37
12/02/2020 19:09:10	120220	12022020	190910	83.35	12.418770	-56.733523	83.29	-0.460	0.590	1.160	83.31	-0.80	1.40	 	 	 	 	 	 	 	 	 	 	 	 	 	 	 	 	 	 	1581534550	1.65	3.06
12/02/2020 19:09:11	120220	12022020	190911	83.21	12.418763	-56.733522	83.21	-0.460	-0.090	2.080	83.20	-1.40	2.40	 	 	 	 	 	 	 	 	 	 	 	 	 	 	 	 	 	 	1581534551	1.49	2.76
12/02/2020 19:09:12	120220	12022020	190912	83.27	12.418758	-56.733518	83.33	-0.130	-0.830	2.460	83.30	-2.20	2.90	 	 	 	 	 	 	 	 	 	 	 	 	 	 	 	 	 	 	1581534552	1.14	2.11
12/02/2020 19:09:13	120220	12022020	190913	83.49	12.418757	-56.733517	83.56	0.220	-1.120	2.520	83.53	-2.50	3.00	 	 	 	 	 	 	 	 	 	 	 	 	 	 	 	 	 	 	1581534553	0.67	1.24
12/02/2020 19:09:14	120220	12022020	190914	83.69	12.418757	-56.733515	83.73	0.400	-0.970	2.360	83.71	-2.40	2.80	 	 	 	 	 	 	 	 	 	 	 	 	 	 	 	 	 	 	1581534554	0.15	0.28
12/02/2020 19:09:15	120220	12022020	190915	83.73	12.418758	-56.733515	83.66	0.440	-0.650	2.050	83.72	-2.10	2.50	 	 	 	 	 	 	 	 	 	 	 	 	 	 	 	 	 	 	1581534555	0.18	0.33
12/02/2020 19:09:16	120220	12022020	190916	83.44	12.418760	-56.733515	83.30	0.330	-0.080	1.640	83.36	-1.60	2.20	 	 	 	 	 	 	 	 	 	 	 	 	 	 	 	 	 	 	1581534556	0.37	0.69
12/02/2020 19:09:17	120220	12022020	190917	83.12	12.418762	-56.733517	83.05	0.040	0.810	0.960	83.10	-0.70	1.50	 	 	 	 	 	 	 	 	 	 	 	 	 	 	 	 	 	 	1581534557	0.64	1.19
12/02/2020 19:09:18	120220	12022020	190918	83.19	12.418765	-56.733522	83.20	-0.320	1.450	-0.020	83.24	-0.00	0.60	 	 	 	 	 	 	 	 	 	 	 	 	 	 	 	 	 	 	1581534558	1.22	2.26
12/02/2020 19:09:19	120220	12022020	190919	83.56	12.418770	-56.733525	83.58	-0.460	1.030	-0.940	83.64	-0.30	-0.40	 	 	 	 	 	 	 	 	 	 	 	 	 	 	 	 	 	 	1581534559	1.30	2.41
12/02/2020 19:09:20	120220	12022020	190920	83.89	12.418775	-56.733523	83.85	-0.200	-0.440	-1.440	83.92	-1.60	-0.90	 	 	 	 	 	 	 	 	 	 	 	 	 	 	 	 	 	 	1581534560	1.28	2.37
12/02/2020 19:09:21	120220	12022020	190921	83.93	12.418778	-56.733517	83.82	0.190	-1.800	-1.380	83.90	-3.10	-1.00	 	 	 	 	 	 	 	 	 	 	 	 	 	 	 	 	 	 	1581534561	1.45	2.69
12/02/2020 19:09:22	120220	12022020	190922	83.72	12.418778	-56.733513	83.61	0.320	-1.970	-0.750	83.67	-3.40	-0.40	 	 	 	 	 	 	 	 	 	 	 	 	 	 	 	 	 	 	1581534562	0.82	1.52
12/02/2020 19:09:23	120220	12022020	190923	83.51	12.418773	-56.733513	83.49	0.150	-1.030	0.280	83.49	-2.60	0.60	 	 	 	 	 	 	 	 	 	 	 	 	 	 	 	 	 	 	1581534563	1.02	1.89
12/02/2020 19:09:24	120220	12022020	190924	83.57	12.418767	-56.733517	83.66	-0.050	0.010	1.240	83.63	-1.50	1.60	 	 	 	 	 	 	 	 	 	 	 	 	 	 	 	 	 	 	1581534564	1.47	2.72
12/02/2020 19:09:25	120220	12022020	190925	83.97	12.418762	-56.733518	84.10	-0.130	0.550	1.890	84.06	-0.90	2.30	 	 	 	 	 	 	 	 	 	 	 	 	 	 	 	 	 	 	1581534565	1.24	2.30
12/02/2020 19:09:26	120220	12022020	190926	84.35	12.418757	-56.733518	84.38	-0.160	0.710	2.250	84.38	-0.70	2.60	 	 	 	 	 	 	 	 	 	 	 	 	 	 	 	 	 	 	1581534566	1.17	2.17
12/02/2020 19:09:27	120220	12022020	190927	84.35	12.418752	-56.733517	84.27	-0.270	0.790	2.410	84.30	-0.60	2.80	 	 	 	 	 	 	 	 	 	 	 	 	 	 	 	 	 	 	1581534567	0.99	1.83
12/02/2020 19:09:28	120220	12022020	190928	84.08	12.418750	-56.733518	84.00	-0.390	0.700	2.190	84.03	-0.70	2.70	 	 	 	 	 	 	 	 	 	 	 	 	 	 	 	 	 	 	1581534568	0.38	0.70
12/02/2020 19:09:29	120220	12022020	190929	83.96	12.418753	-56.733518	83.94	-0.290	0.080	1.460	83.96	-1.20	2.00	 	 	 	 	 	 	 	 	 	 	 	 	 	 	 	 	 	 	1581534569	0.70	1.30
12/02/2020 19:09:30	120220	12022020	190930	84.07	12.418760	-56.733517	84.05	0.110	-1.070	0.570	84.10	-2.30	1.10	 	 	 	 	 	 	 	 	 	 	 	 	 	 	 	 	 	 	1581534570	1.46	2.70
12/02/2020 19:09:31	120220	12022020	190931	84.14	12.418767	-56.733512	84.07	0.630	-2.030	-0.120	84.14	-3.40	0.40	 	 	 	 	 	 	 	 	 	 	 	 	 	 	 	 	 	 	1581534571	1.66	3.07
12/02/2020 19:09:32	120220	12022020	190932	84.08	12.418770	-56.733508	83.99	0.910	-1.970	-0.590	84.07	-3.50	-0.10	 	 	 	 	 	 	 	 	 	 	 	 	 	 	 	 	 	 	1581534572	1.18	2.19
12/02/2020 19:09:33	120220	12022020	190933	83.97	12.418773	-56.733510	83.87	0.790	-0.820	-0.790	83.94	-2.40	-0.30	 	 	 	 	 	 	 	 	 	 	 	 	 	 	 	 	 	 	1581534573	0.78	1.44
12/02/2020 19:09:34	120220	12022020	190934	83.88	12.418775	-56.733515	83.83	0.280	0.700	-0.560	83.88	-0.90	-0.20	 	 	 	 	 	 	 	 	 	 	 	 	 	 	 	 	 	 	1581534574	1.06	1.96
12/02/2020 19:09:35	120220	12022020	190935	83.98	12.418773	-56.733520	84.01	-0.450	1.710	0.080	84.02	0.20	0.40	 	 	 	 	 	 	 	 	 	 	 	 	 	 	 	 	 	 	1581534575	1.06	1.96
12/02/2020 19:09:36	120220	12022020	190936	84.23	12.418767	-56.733522	84.28	-1.070	1.700	0.930	84.28	0.30	1.30	 	 	 	 	 	 	 	 	 	 	 	 	 	 	 	 	 	 	1581534576	1.25	2.31
12/02/2020 19:09:37	120220	12022020	190937	84.41	12.418760	-56.733518	84.43	-1.260	0.810	1.780	84.42	-0.50	2.10	 	 	 	 	 	 	 	 	 	 	 	 	 	 	 	 	 	 	1581534577	1.66	3.07
12/02/2020 19:09:38	120220	12022020	190938	84.39	12.418752	-56.733515	84.35	-0.890	-0.550	2.440	84.36	-1.80	2.80	 	 	 	 	 	 	 	 	 	 	 	 	 	 	 	 	 	 	1581534578	1.87	3.46
12/02/2020 19:09:39	120220	12022020	190939	84.09	12.418747	-56.733510	83.97	-0.130	-1.700	2.890	83.99	-3.00	3.30	 	 	 	 	 	 	 	 	 	 	 	 	 	 	 	 	 	 	1581534579	1.68	3.11
12/02/2020 19:09:40	120220	12022020	190940	83.55	12.418745	-56.733507	83.44	0.620	-2.030	2.880	83.46	-3.40	3.40	 	 	 	 	 	 	 	 	 	 	 	 	 	 	 	 	 	 	1581534580	0.81	1.50
12/02/2020 19:09:41	120220	12022020	190941	83.25	12.418748	-56.733507	83.20	1.010	-1.390	2.240	83.22	-2.90	2.80	 	 	 	 	 	 	 	 	 	 	 	 	 	 	 	 	 	 	1581534581	0.74	1.37
12/02/2020 19:09:42	120220	12022020	190942	83.16	12.418755	-56.733510	83.14	0.880	-0.300	1.100	83.16	-1.90	1.70	 	 	 	 	 	 	 	 	 	 	 	 	 	 	 	 	 	 	1581534582	1.75	3.24
12/02/2020 19:09:43	120220	12022020	190943	83.19	12.418765	-56.733515	83.20	0.440	0.520	-0.250	83.22	-1.00	0.40	 	 	 	 	 	 	 	 	 	 	 	 	 	 	 	 	 	 	1581534583	2.15	3.98
12/02/2020 19:09:44	120220	12022020	190944	83.41	12.418773	-56.733517	83.41	0.010	0.750	-1.310	83.46	-0.70	-0.80	 	 	 	 	 	 	 	 	 	 	 	 	 	 	 	 	 	 	1581534584	1.82	3.37
12/02/2020 19:09:45	120220	12022020	190945	83.63	12.418777	-56.733515	83.62	-0.240	0.490	-1.590	83.66	-0.90	-1.20	 	 	 	 	 	 	 	 	 	 	 	 	 	 	 	 	 	 	1581534585	0.92	1.70
12/02/2020 19:09:46	120220	12022020	190946	83.65	12.418775	-56.733512	83.56	-0.350	0.160	-1.020	83.61	-1.20	-0.70	 	 	 	 	 	 	 	 	 	 	 	 	 	 	 	 	 	 	1581534586	0.61	1.13
12/02/2020 19:09:47	120220	12022020	190947	83.36	12.418770	-56.733510	83.26	-0.460	0.040	-0.020	83.29	-1.40	0.30	 	 	 	 	 	 	 	 	 	 	 	 	 	 	 	 	 	 	1581534587	1.28	2.37
12/02/2020 19:09:48	120220	12022020	190948	83.05	12.418762	-56.733510	82.98	-0.620	0.010	1.000	83.00	-1.40	1.30	 	 	 	 	 	 	 	 	 	 	 	 	 	 	 	 	 	 	1581534588	1.60	2.96
12/02/2020 19:09:49	120220	12022020	190949	82.88	12.418755	-56.733510	82.86	-0.740	-0.110	1.810	82.87	-1.50	2.10	 	 	 	 	 	 	 	 	 	 	 	 	 	 	 	 	 	 	1581534589	1.57	2.91
12/02/2020 19:09:50	120220	12022020	190950	82.85	12.418750	-56.733510	82.86	-0.630	-0.360	2.280	82.86	-1.70	2.70	 	 	 	 	 	 	 	 	 	 	 	 	 	 	 	 	 	 	1581534590	1.12	2.07
12/02/2020 19:09:51	120220	12022020	190951	82.89	12.418748	-56.733510	82.89	-0.130	-0.770	2.340	82.89	-2.10	2.80	 	 	 	 	 	 	 	 	 	 	 	 	 	 	 	 	 	 	1581534591	0.40	0.74
12/02/2020 19:09:52	120220	12022020	190952	82.89	12.418750	-56.733507	82.85	0.640	-1.330	2.060	82.88	-2.70	2.50	 	 	 	 	 	 	 	 	 	 	 	 	 	 	 	 	 	 	1581534592	0.59	1.09
12/02/2020 19:09:53	120220	12022020	190953	82.71	12.418753	-56.733503	82.58	1.270	-1.510	1.670	82.65	-2.90	2.20	 	 	 	 	 	 	 	 	 	 	 	 	 	 	 	 	 	 	1581534593	1.04	1.93
12/02/2020 19:09:54	120220	12022020	190954	82.39	12.418757	-56.733503	82.26	1.270	-0.780	1.120	82.33	-2.30	1.70	 	 	 	 	 	 	 	 	 	 	 	 	 	 	 	 	 	 	1581534594	0.92	1.70
12/02/2020 19:09:55	120220	12022020	190955	82.21	12.418762	-56.733507	82.15	0.670	0.490	0.380	82.20	-1.10	0.90	 	 	 	 	 	 	 	 	 	 	 	 	 	 	 	 	 	 	1581534595	1.39	2.57
12/02/2020 19:09:56	120220	12022020	190956	82.29	12.418768	-56.733512	82.30	-0.200	1.430	-0.300	82.32	-0.10	0.20	 	 	 	 	 	 	 	 	 	 	 	 	 	 	 	 	 	 	1581534596	1.65	3.06
12/02/2020 19:09:57	120220	12022020	190957	82.55	12.418772	-56.733515	82.60	-0.960	1.590	-0.600	82.61	0.20	-0.10	 	 	 	 	 	 	 	 	 	 	 	 	 	 	 	 	 	 	1581534597	0.91	1.69
12/02/2020 19:09:58	120220	12022020	190958	82.88	12.418770	-56.733515	82.91	-1.340	1.030	-0.560	82.93	-0.30	-0.10	 	 	 	 	 	 	 	 	 	 	 	 	 	 	 	 	 	 	1581534598	0.27	0.50
12/02/2020 19:09:59	120220	12022020	190959	83.00	12.418765	-56.733513	82.95	-1.200	-0.120	-0.130	82.99	-1.30	0.20	 	 	 	 	 	 	 	 	 	 	 	 	 	 	 	 	 	 	1581534599	1.09	2.02
12/02/2020 19:10:00	120220	12022020	191000	82.82	12.418760	-56.733508	82.73	-0.570	-1.500	0.580	82.77	-2.70	0.90	 	 	 	 	 	 	 	 	 	 	 	 	 	 	 	 	 	 	1581534600	1.58	2.93
12/02/2020 19:10:01	120220	12022020	191001	82.52	12.418755	-56.733503	82.44	0.270	-2.270	1.330	82.46	-3.60	1.70	 	 	 	 	 	 	 	 	 	 	 	 	 	 	 	 	 	 	1581534601	1.53	2.83
12/02/2020 19:10:02	120220	12022020	191002	82.21	12.418752	-56.733502	82.11	0.830	-1.730	1.880	82.14	-3.30	2.30	1014.50	26.90	27.00	17.60	17.80	236.0	56.0	57.0	438.0	27.3	351.00	10.70	74.00	10.20	20373	14190.0	27.5	27.4	1581534602	0.81	1.50
12/02/2020 19:10:03	120220	12022020	191003	81.88	12.418750	-56.733507	81.78	0.770	-0.200	2.060	81.82	-1.80	2.50	 	 	 	 	 	 	 	 	 	 	 	 	 	 	 	 	 	 	1581534603	0.99	1.83
12/02/2020 19:10:04	120220	12022020	191004	81.67	12.418750	-56.733513	81.64	0.300	1.070	1.730	81.66	-0.50	2.30	 	 	 	 	 	 	 	 	 	 	 	 	 	 	 	 	 	 	1581534604	1.48	2.74
12/02/2020 19:10:05	120220	12022020	191005	81.74	12.418757	-56.733517	81.77	-0.040	1.020	0.930	81.78	-0.30	1.50	 	 	 	 	 	 	 	 	 	 	 	 	 	 	 	 	 	 	1581534605	1.28	2.37
12/02/2020 19:10:06	120220	12022020	191006	82.07	12.418763	-56.733513	82.16	0.070	-0.090	-0.120	82.16	-1.30	0.50	 	 	 	 	 	 	 	 	 	 	 	 	 	 	 	 	 	 	1581534606	1.75	3.24
12/02/2020 19:10:07	120220	12022020	191007	82.53	12.418770	-56.733508	82.58	0.430	-1.060	-0.820	82.60	-2.40	-0.30	 	 	 	 	 	 	 	 	 	 	 	 	 	 	 	 	 	 	1581534607	1.81	3.35
12/02/2020 19:10:08	120220	12022020	191008	82.73	12.418772	-56.733505	82.69	0.570	-1.050	-0.720	82.73	-2.50	-0.30	 	 	 	 	 	 	 	 	 	 	 	 	 	 	 	 	 	 	1581534608	0.74	1.37
12/02/2020 19:10:09	120220	12022020	191009	82.57	12.418768	-56.733507	82.48	0.200	-0.030	-0.070	82.51	-1.60	0.30	 	 	 	 	 	 	 	 	 	 	 	 	 	 	 	 	 	 	1581534609	0.88	1.63
12/02/2020 19:10:10	120220	12022020	191010	82.19	12.418762	-56.733512	82.07	-0.500	1.100	0.760	82.11	-0.40	1.10	 	 	 	 	 	 	 	 	 	 	 	 	 	 	 	 	 	 	1581534610	1.68	3.11
12/02/2020 19:10:11	120220	12022020	191011	81.79	12.418758	-56.733517	81.72	-0.950	1.270	1.350	81.73	-0.10	1.80	 	 	 	 	 	 	 	 	 	 	 	 	 	 	 	 	 	 	1581534611	1.25	2.31
12/02/2020 19:10:12	120220	12022020	191012	81.65	12.418758	-56.733515	81.69	-0.780	0.220	1.430	81.66	-1.00	1.90	 	 	 	 	 	 	 	 	 	 	 	 	 	 	 	 	 	 	1581534612	0.14	0.26
12/02/2020 19:10:13	120220	12022020	191013	81.79	12.418760	-56.733512	81.86	-0.160	-1.090	1.320	81.83	-2.40	1.80	 	 	 	 	 	 	 	 	 	 	 	 	 	 	 	 	 	 	1581534613	1.02	1.89
12/02/2020 19:10:14	120220	12022020	191014	81.98	12.418762	-56.733508	82.01	0.390	-1.610	1.210	82.00	-3.00	1.70	 	 	 	 	 	 	 	 	 	 	 	 	 	 	 	 	 	 	1581534614	0.73	1.35
12/02/2020 19:10:15	120220	12022020	191015	82.06	12.418762	-56.733508	82.08	0.530	-1.260	1.040	82.07	-2.80	1.50	 	 	 	 	 	 	 	 	 	 	 	 	 	 	 	 	 	 	1581534615	0.14	0.26
12/02/2020 19:10:16	120220	12022020	191016	82.10	12.418762	-56.733510	82.11	0.350	-0.650	0.850	82.10	-2.10	1.30	 	 	 	 	 	 	 	 	 	 	 	 	 	 	 	 	 	 	1581534616	0.50	0.93
12/02/2020 19:10:17	120220	12022020	191017	82.13	12.418762	-56.733512	82.13	0.130	-0.210	0.720	82.13	-1.70	1.20	 	 	 	 	 	 	 	 	 	 	 	 	 	 	 	 	 	 	1581534617	0.27	0.50
12/02/2020 19:10:18	120220	12022020	191018	82.06	12.418762	-56.733512	82.00	0.100	0.220	0.670	82.01	-1.30	1.10	 	 	 	 	 	 	 	 	 	 	 	 	 	 	 	 	 	 	1581534618	0.04	0.07
12/02/2020 19:10:19	120220	12022020	191019	81.79	12.418762	-56.733513	81.70	0.180	0.790	0.650	81.73	-0.70	1.10	 	 	 	 	 	 	 	 	 	 	 	 	 	 	 	 	 	 	1581534619	0.27	0.50
12/02/2020 19:10:20	120220	12022020	191020	81.56	12.418762	-56.733517	81.49	0.120	1.090	0.450	81.52	-0.30	0.90	 	 	 	 	 	 	 	 	 	 	 	 	 	 	 	 	 	 	1581534620	0.55	1.02
12/02/2020 19:10:21	120220	12022020	191021	81.38	12.418765	-56.733517	81.30	-0.060	0.590	0.170	81.34	-0.70	0.70	 	 	 	 	 	 	 	 	 	 	 	 	 	 	 	 	 	 	1581534621	0.64	1.19
12/02/2020 19:10:22	120220	12022020	191022	81.18	12.418770	-56.733515	81.11	-0.140	-0.580	-0.110	81.15	-1.80	0.40	 	 	 	 	 	 	 	 	 	 	 	 	 	 	 	 	 	 	1581534622	1.14	2.11
12/02/2020 19:10:23	120220	12022020	191023	81.15	12.418775	-56.733512	81.18	-0.040	-1.520	-0.370	81.18	-2.80	0.10	 	 	 	 	 	 	 	 	 	 	 	 	 	 	 	 	 	 	1581534623	1.42	2.63
12/02/2020 19:10:24	120220	12022020	191024	81.41	12.418778	-56.733510	81.51	0.050	-1.460	-0.350	81.49	-2.90	0.10	 	 	 	 	 	 	 	 	 	 	 	 	 	 	 	 	 	 	1581534624	0.66	1.22
12/02/2020 19:10:25	120220	12022020	191025	81.78	12.418775	-56.733512	81.88	-0.020	-0.540	0.130	81.84	-2.10	0.50	 	 	 	 	 	 	 	 	 	 	 	 	 	 	 	 	 	 	1581534625	0.65	1.20
12/02/2020 19:10:26	120220	12022020	191026	82.05	12.418770	-56.733515	82.10	-0.240	0.480	0.970	82.08	-1.10	1.30	 	 	 	 	 	 	 	 	 	 	 	 	 	 	 	 	 	 	1581534626	1.58	2.93
12/02/2020 19:10:27	120220	12022020	191027	82.11	12.418762	-56.733517	82.11	-0.400	0.780	1.710	82.10	-0.60	2.10	 	 	 	 	 	 	 	 	 	 	 	 	 	 	 	 	 	 	1581534627	1.70	3.15
12/02/2020 19:10:28	120220	12022020	191028	81.95	12.418757	-56.733515	81.89	-0.250	0.130	2.140	81.89	-1.20	2.50	 	 	 	 	 	 	 	 	 	 	 	 	 	 	 	 	 	 	1581534628	1.29	2.39
12/02/2020 19:10:29	120220	12022020	191029	81.57	12.418753	-56.733510	81.44	0.160	-0.700	2.230	81.46	-2.00	2.70	 	 	 	 	 	 	 	 	 	 	 	 	 	 	 	 	 	 	1581534629	1.16	2.15
12/02/2020 19:10:30	120220	12022020	191030	81.05	12.418757	-56.733507	80.92	0.470	-0.780	1.990	80.96	-2.20	2.50	 	 	 	 	 	 	 	 	 	 	 	 	 	 	 	 	 	 	1581534630	0.73	1.35
12/02/2020 19:10:31	120220	12022020	191031	80.78	12.418762	-56.733508	80.75	0.420	-0.140	1.250	80.77	-1.70	1.90	 	 	 	 	 	 	 	 	 	 	 	 	 	 	 	 	 	 	1581534631	1.22	2.26
12/02/2020 19:10:32	120220	12022020	191032	81.00	12.418770	-56.733513	81.07	0.080	0.400	-0.020	81.09	-1.10	0.60	 	 	 	 	 	 	 	 	 	 	 	 	 	 	 	 	 	 	1581534632	1.97	3.65
12/02/2020 19:10:33	120220	12022020	191033	81.31	12.418778	-56.733515	81.35	-0.280	0.290	-1.170	81.36	-1.10	-0.60	 	 	 	 	 	 	 	 	 	 	 	 	 	 	 	 	 	 	1581534633	1.87	3.46
12/02/2020 19:10:34	120220	12022020	191034	81.34	12.418782	-56.733515	81.25	-0.390	-0.360	-1.400	81.30	-1.70	-1.00	 	 	 	 	 	 	 	 	 	 	 	 	 	 	 	 	 	 	1581534634	0.96	1.78
12/02/2020 19:10:35	120220	12022020	191035	81.10	12.418780	-56.733510	81.03	-0.210	-0.870	-0.940	81.06	-2.20	-0.60	 	 	 	 	 	 	 	 	 	 	 	 	 	 	 	 	 	 	1581534635	0.86	1.59
12/02/2020 19:10:36	120220	12022020	191036	81.01	12.418777	-56.733508	81.05	0.070	-0.710	-0.400	81.02	-2.20	-0.00	 	 	 	 	 	 	 	 	 	 	 	 	 	 	 	 	 	 	1581534636	0.97	1.80
12/02/2020 19:10:37	120220	12022020	191037	81.17	12.418773	-56.733510	81.25	0.280	-0.200	0.060	81.21	-1.70	0.40	 	 	 	 	 	 	 	 	 	 	 	 	 	 	 	 	 	 	1581534637	0.74	1.37
12/02/2020 19:10:38	120220	12022020	191038	81.32	12.418770	-56.733510	81.35	0.400	-0.070	0.610	81.33	-1.50	1.00	 	 	 	 	 	 	 	 	 	 	 	 	 	 	 	 	 	 	1581534638	0.49	0.91
12/02/2020 19:10:39	120220	12022020	191039	81.24	12.418768	-56.733507	81.19	0.430	-0.480	1.360	81.19	-1.80	1.70	 	 	 	 	 	 	 	 	 	 	 	 	 	 	 	 	 	 	1581534639	0.91	1.69
12/02/2020 19:10:40	120220	12022020	191040	80.88	12.418763	-56.733502	80.78	0.190	-0.470	2.180	80.78	-1.90	2.50	 	 	 	 	 	 	 	 	 	 	 	 	 	 	 	 	 	 	1581534640	1.25	2.31
12/02/2020 19:10:41	120220	12022020	191041	80.43	12.418760	-56.733503	80.36	-0.380	0.470	2.610	80.35	-1.10	3.00	 	 	 	 	 	 	 	 	 	 	 	 	 	 	 	 	 	 	1581534641	0.86	1.59
12/02/2020 19:10:42	120220	12022020	191042	80.16	12.418758	-56.733508	80.15	-0.960	1.500	2.360	80.13	-0.00	2.90	 	 	 	 	 	 	 	 	 	 	 	 	 	 	 	 	 	 	1581534642	1.34	2.48
12/02/2020 19:10:43	120220	12022020	191043	80.15	12.418760	-56.733515	80.20	-1.130	1.420	1.500	80.18	0.10	2.10	 	 	 	 	 	 	 	 	 	 	 	 	 	 	 	 	 	 	1581534643	1.29	2.39
12/02/2020 19:10:44	120220	12022020	191044	80.37	12.418767	-56.733515	80.44	-0.620	-0.110	0.290	80.43	-1.20	0.90	 	 	 	 	 	 	 	 	 	 	 	 	 	 	 	 	 	 	1581534644	1.34	2.48
12/02/2020 19:10:45	120220	12022020	191045	80.69	12.418775	-56.733508	80.74	0.340	-2.170	-0.840	80.75	-3.30	-0.20	 	 	 	 	 	 	 	 	 	 	 	 	 	 	 	 	 	 	1581534645	2.09	3.87
12/02/2020 19:10:46	120220	12022020	191046	80.84	12.418780	-56.733502	80.78	1.170	-3.260	-1.420	80.83	-4.60	-0.90	 	 	 	 	 	 	 	 	 	 	 	 	 	 	 	 	 	 	1581534646	2.01	3.72
12/02/2020 19:10:47	120220	12022020	191047	80.59	12.418782	-56.733498	80.46	1.350	-2.380	-1.200	80.51	-4.00	-0.80	 	 	 	 	 	 	 	 	 	 	 	 	 	 	 	 	 	 	1581534647	0.55	1.02
12/02/2020 19:10:48	120220	12022020	191048	80.17	12.418778	-56.733503	80.08	0.820	-0.050	-0.380	80.10	-1.80	-0.10	 	 	 	 	 	 	 	 	 	 	 	 	 	 	 	 	 	 	1581534648	1.36	2.52
12/02/2020 19:10:49	120220	12022020	191049	79.92	12.418772	-56.733513	79.92	-0.010	2.120	0.530	79.90	0.50	0.90	 	 	 	 	 	 	 	 	 	 	 	 	 	 	 	 	 	 	1581534649	2.22	4.11
12/02/2020 19:10:50	120220	12022020	191050	79.91	12.418768	-56.733518	79.95	-0.610	2.760	1.150	79.92	1.40	1.50	 	 	 	 	 	 	 	 	 	 	 	 	 	 	 	 	 	 	1581534650	1.44	2.67
12/02/2020 19:10:51	120220	12022020	191051	79.98	12.418767	-56.733517	80.00	-0.760	1.680	1.450	79.99	0.50	1.90	 	 	 	 	 	 	 	 	 	 	 	 	 	 	 	 	 	 	1581534651	0.38	0.70
12/02/2020 19:10:52	120220	12022020	191052	80.02	12.418767	-56.733512	80.04	-0.670	-0.060	1.600	80.02	-1.20	2.00	 	 	 	 	 	 	 	 	 	 	 	 	 	 	 	 	 	 	1581534652	1.15	2.13
12/02/2020 19:10:53	120220	12022020	191053	80.00	12.418765	-56.733507	80.02	-0.610	-1.270	1.830	79.99	-2.50	2.20	 	 	 	 	 	 	 	 	 	 	 	 	 	 	 	 	 	 	1581534653	0.96	1.78
12/02/2020 19:10:54	120220	12022020	191054	79.93	12.418763	-56.733507	79.93	-0.560	-1.590	1.990	79.91	-3.00	2.40	 	 	 	 	 	 	 	 	 	 	 	 	 	 	 	 	 	 	1581534654	0.41	0.76
12/02/2020 19:10:55	120220	12022020	191055	79.83	12.418763	-56.733510	79.83	-0.300	-1.480	1.860	79.82	-2.90	2.30	 	 	 	 	 	 	 	 	 	 	 	 	 	 	 	 	 	 	1581534655	0.61	1.13
12/02/2020 19:10:56	120220	12022020	191056	79.78	12.418765	-56.733512	79.80	0.280	-1.400	1.520	79.78	-2.80	2.00	 	 	 	 	 	 	 	 	 	 	 	 	 	 	 	 	 	 	1581534656	0.49	0.91
12/02/2020 19:10:57	120220	12022020	191057	79.78	12.418767	-56.733512	79.79	0.930	-1.170	1.150	79.78	-2.60	1.70	 	 	 	 	 	 	 	 	 	 	 	 	 	 	 	 	 	 	1581534657	0.34	0.63
12/02/2020 19:10:58	120220	12022020	191058	79.78	12.418767	-56.733512	79.77	1.130	-0.420	0.720	79.78	-1.90	1.20	 	 	 	 	 	 	 	 	 	 	 	 	 	 	 	 	 	 	1581534658	0.23	0.43
12/02/2020 19:10:59	120220	12022020	191059	79.77	12.418768	-56.733513	79.76	0.720	0.690	0.200	79.77	-0.90	0.70	 	 	 	 	 	 	 	 	 	 	 	 	 	 	 	 	 	 	1581534659	0.66	1.22
12/02/2020 19:11:00	120220	12022020	191100	79.77	12.418770	-56.733518	79.75	0.050	1.480	-0.270	79.77	0.00	0.20	 	 	 	 	 	 	 	 	 	 	 	 	 	 	 	 	 	 	1581534660	1.07	1.98
12/02/2020 19:11:01	120220	12022020	191101	79.76	12.418773	-56.733522	79.74	-0.410	1.370	-0.440	79.76	0.10	0.00	 	 	 	 	 	 	 	 	 	 	 	 	 	 	 	 	 	 	1581534661	0.88	1.63
12/02/2020 19:11:02	120220	12022020	191102	79.76	12.418777	-56.733520	79.75	-0.550	0.460	-0.360	79.75	-0.80	0.10	1014.50	26.90	27.00	18.40	18.50	237.0	59.0	59.0	438.0	27.3	355.00	10.50	76.00	10.00	20337	12618.0	27.4	27.4	1581534662	0.61	1.13
12/02/2020 19:11:03	120220	12022020	191103	79.71	12.418778	-56.733517	79.70	-0.520	-0.590	-0.220	79.70	-1.80	0.20	 	 	 	 	 	 	 	 	 	 	 	 	 	 	 	 	 	 	1581534663	0.68	1.26
12/02/2020 19:11:04	120220	12022020	191104	79.66	12.418778	-56.733515	79.70	-0.440	-1.150	0.030	79.66	-2.50	0.40	 	 	 	 	 	 	 	 	 	 	 	 	 	 	 	 	 	 	1581534664	0.44	0.81
12/02/2020 19:11:05	120220	12022020	191105	79.77	12.418775	-56.733515	79.87	-0.340	-0.940	0.560	79.81	-2.40	0.90	 	 	 	 	 	 	 	 	 	 	 	 	 	 	 	 	 	 	1581534665	0.67	1.24
12/02/2020 19:11:06	120220	12022020	191106	79.98	12.418768	-56.733518	80.09	-0.160	-0.380	1.310	80.01	-1.80	1.60	 	 	 	 	 	 	 	 	 	 	 	 	 	 	 	 	 	 	1581534666	1.40	2.59
12/02/2020 19:11:07	120220	12022020	191107	80.06	12.418762	-56.733520	80.12	0.140	-0.160	1.950	80.06	-1.50	2.30	 	 	 	 	 	 	 	 	 	 	 	 	 	 	 	 	 	 	1581534667	1.47	2.72
12/02/2020 19:11:08	120220	12022020	191108	79.96	12.418758	-56.733518	79.96	0.500	-0.510	2.130	79.92	-1.80	2.60	 	 	 	 	 	 	 	 	 	 	 	 	 	 	 	 	 	 	1581534668	0.79	1.46
12/02/2020 19:11:09	120220	12022020	191109	79.77	12.418760	-56.733515	79.68	0.780	-0.980	1.930	79.72	-2.30	2.40	 	 	 	 	 	 	 	 	 	 	 	 	 	 	 	 	 	 	1581534669	0.78	1.44
12/02/2020 19:11:10	120220	12022020	191110	79.50	12.418767	-56.733513	79.48	0.810	-0.970	1.460	79.49	-2.40	2.00	 	 	 	 	 	 	 	 	 	 	 	 	 	 	 	 	 	 	1581534670	1.28	2.37
12/02/2020 19:11:11	120220	12022020	191111	79.54	12.418772	-56.733513	79.58	0.480	-0.170	0.810	79.57	-1.70	1.40	 	 	 	 	 	 	 	 	 	 	 	 	 	 	 	 	 	 	1581534671	1.34	2.48
12/02/2020 19:11:12	120220	12022020	191112	79.78	12.418775	-56.733518	79.84	-0.160	1.120	0.310	79.83	-0.40	0.80	 	 	 	 	 	 	 	 	 	 	 	 	 	 	 	 	 	 	1581534672	1.16	2.15
12/02/2020 19:11:13	120220	12022020	191113	80.02	12.418773	-56.733525	80.05	-0.830	1.960	0.080	80.05	0.50	0.50	 	 	 	 	 	 	 	 	 	 	 	 	 	 	 	 	 	 	1581534673	1.29	2.39
12/02/2020 19:11:14	120220	12022020	191114	80.14	12.418772	-56.733527	80.14	-1.050	1.360	0.030	80.15	0.20	0.50	 	 	 	 	 	 	 	 	 	 	 	 	 	 	 	 	 	 	1581534674	0.67	1.24
12/02/2020 19:11:15	120220	12022020	191115	80.16	12.418772	-56.733522	80.15	-0.620	-0.520	0.050	80.15	-1.60	0.50	 	 	 	 	 	 	 	 	 	 	 	 	 	 	 	 	 	 	1581534675	0.96	1.78
12/02/2020 19:11:16	120220	12022020	191116	80.12	12.418772	-56.733513	80.12	0.170	-2.280	0.170	80.11	-3.50	0.60	 	 	 	 	 	 	 	 	 	 	 	 	 	 	 	 	 	 	1581534676	1.73	3.20
12/02/2020 19:11:17	120220	12022020	191117	80.13	12.418772	-56.733508	80.16	0.730	-2.520	0.400	80.14	-3.90	0.80	 	 	 	 	 	 	 	 	 	 	 	 	 	 	 	 	 	 	1581534677	1.05	1.94
12/02/2020 19:11:18	120220	12022020	191118	80.16	12.418770	-56.733512	80.19	0.670	-1.110	0.680	80.16	-2.70	1.10	 	 	 	 	 	 	 	 	 	 	 	 	 	 	 	 	 	 	1581534678	0.61	1.13
12/02/2020 19:11:19	120220	12022020	191119	80.07	12.418768	-56.733518	80.04	0.130	0.730	0.950	80.03	-0.90	1.40	 	 	 	 	 	 	 	 	 	 	 	 	 	 	 	 	 	 	1581534679	1.65	3.06
12/02/2020 19:11:20	120220	12022020	191120	79.84	12.418767	-56.733525	79.79	-0.450	1.770	1.150	79.79	0.30	1.60	 	 	 	 	 	 	 	 	 	 	 	 	 	 	 	 	 	 	1581534680	1.42	2.63
12/02/2020 19:11:21	120220	12022020	191121	79.68	12.418767	-56.733527	79.68	-0.610	1.380	1.080	79.67	0.10	1.60	 	 	 	 	 	 	 	 	 	 	 	 	 	 	 	 	 	 	1581534681	0.38	0.70
12/02/2020 19:11:22	120220	12022020	191122	79.74	12.418770	-56.733523	79.80	-0.160	-0.100	0.810	79.78	-1.20	1.30	 	 	 	 	 	 	 	 	 	 	 	 	 	 	 	 	 	 	1581534682	0.91	1.69
12/02/2020 19:11:23	120220	12022020	191123	79.91	12.418772	-56.733517	80.01	0.520	-1.620	0.480	79.95	-2.80	1.00	 	 	 	 	 	 	 	 	 	 	 	 	 	 	 	 	 	 	1581534683	1.58	2.93
12/02/2020 19:11:24	120220	12022020	191124	80.11	12.418775	-56.733512	80.11	0.900	-2.090	0.200	80.11	-3.50	0.70	 	 	 	 	 	 	 	 	 	 	 	 	 	 	 	 	 	 	1581534684	1.21	2.24
12/02/2020 19:11:25	120220	12022020	191125	80.04	12.418775	-56.733512	79.99	0.750	-1.310	0.260	80.00	-2.80	0.70	 	 	 	 	 	 	 	 	 	 	 	 	 	 	 	 	 	 	1581534685	0.14	0.26
12/02/2020 19:11:26	120220	12022020	191126	79.82	12.418773	-56.733515	79.78	0.160	0.130	0.640	79.78	-1.50	1.00	 	 	 	 	 	 	 	 	 	 	 	 	 	 	 	 	 	 	1581534686	0.85	1.57
12/02/2020 19:11:27	120220	12022020	191127	79.67	12.418772	-56.733522	79.69	-0.610	1.540	0.900	79.67	0.00	1.30	 	 	 	 	 	 	 	 	 	 	 	 	 	 	 	 	 	 	1581534687	1.30	2.41
12/02/2020 19:11:28	120220	12022020	191128	79.71	12.418770	-56.733527	79.76	-1.180	2.210	0.930	79.73	0.80	1.40	 	 	 	 	 	 	 	 	 	 	 	 	 	 	 	 	 	 	1581534688	1.28	2.37
12/02/2020 19:11:29	120220	12022020	191129	79.84	12.418768	-56.733528	79.88	-1.180	1.470	0.800	79.87	0.30	1.30	 	 	 	 	 	 	 	 	 	 	 	 	 	 	 	 	 	 	1581534689	0.52	0.96
12/02/2020 19:11:30	120220	12022020	191130	79.92	12.418768	-56.733525	79.92	-0.570	-0.430	0.630	79.91	-1.50	1.10	 	 	 	 	 	 	 	 	 	 	 	 	 	 	 	 	 	 	1581534690	0.81	1.50
12/02/2020 19:11:31	120220	12022020	191131	79.78	12.418770	-56.733518	79.74	0.300	-2.300	0.630	79.73	-3.40	1.00	 	 	 	 	 	 	 	 	 	 	 	 	 	 	 	 	 	 	1581534691	1.55	2.87
12/02/2020 19:11:32	120220	12022020	191132	79.53	12.418770	-56.733512	79.51	0.930	-2.900	0.820	79.48	-4.30	1.20	 	 	 	 	 	 	 	 	 	 	 	 	 	 	 	 	 	 	1581534692	1.14	2.11
12/02/2020 19:11:33	120220	12022020	191133	79.34	12.418772	-56.733513	79.37	1.120	-2.060	1.020	79.32	-3.60	1.40	 	 	 	 	 	 	 	 	 	 	 	 	 	 	 	 	 	 	1581534693	0.16	0.30
12/02/2020 19:11:34	120220	12022020	191134	79.35	12.418772	-56.733517	79.45	0.950	-0.560	0.940	79.39	-2.10	1.40	 	 	 	 	 	 	 	 	 	 	 	 	 	 	 	 	 	 	1581534694	0.86	1.59
12/02/2020 19:11:35	120220	12022020	191135	79.66	12.418773	-56.733520	79.80	0.610	0.730	0.520	79.74	-0.80	1.00	 	 	 	 	 	 	 	 	 	 	 	 	 	 	 	 	 	 	1581534695	0.98	1.81
12/02/2020 19:11:36	120220	12022020	191136	80.06	12.418777	-56.733523	80.15	0.120	1.570	0.260	80.11	0.10	0.70	 	 	 	 	 	 	 	 	 	 	 	 	 	 	 	 	 	 	1581534696	0.64	1.19
12/02/2020 19:11:37	120220	12022020	191137	80.17	12.418775	-56.733525	80.14	-0.530	1.980	0.500	80.15	0.60	0.90	 	 	 	 	 	 	 	 	 	 	 	 	 	 	 	 	 	 	1581534697	0.40	0.74
12/02/2020 19:11:38	120220	12022020	191138	79.90	12.418772	-56.733525	79.81	-1.170	1.630	1.000	79.82	0.40	1.40	 	 	 	 	 	 	 	 	 	 	 	 	 	 	 	 	 	 	1581534698	0.88	1.63
12/02/2020 19:11:39	120220	12022020	191139	79.56	12.418768	-56.733523	79.53	-1.390	0.320	1.250	79.52	-0.80	1.70	 	 	 	 	 	 	 	 	 	 	 	 	 	 	 	 	 	 	1581534699	0.75	1.39
12/02/2020 19:11:40	120220	12022020	191140	79.48	12.418768	-56.733518	79.54	-0.900	-1.470	1.050	79.50	-2.60	1.50	 	 	 	 	 	 	 	 	 	 	 	 	 	 	 	 	 	 	1581534700	0.99	1.83
12/02/2020 19:11:41	120220	12022020	191141	79.69	12.418772	-56.733513	79.79	0.020	-2.550	0.660	79.75	-3.80	1.10	 	 	 	 	 	 	 	 	 	 	 	 	 	 	 	 	 	 	1581534701	1.23	2.28
12/02/2020 19:11:42	120220	12022020	191142	79.98	12.418773	-56.733513	80.04	0.830	-2.220	0.420	80.01	-3.70	0.90	 	 	 	 	 	 	 	 	 	 	 	 	 	 	 	 	 	 	1581534702	0.47	0.87
12/02/2020 19:11:43	120220	12022020	191143	80.05	12.418773	-56.733517	80.03	1.140	-1.000	0.440	80.03	-2.50	0.90	 	 	 	 	 	 	 	 	 	 	 	 	 	 	 	 	 	 	1581534703	0.68	1.26
12/02/2020 19:11:44	120220	12022020	191144	79.85	12.418773	-56.733520	79.78	0.990	0.030	0.560	79.79	-1.40	1.00	 	 	 	 	 	 	 	 	 	 	 	 	 	 	 	 	 	 	1581534704	0.67	1.24
12/02/2020 19:11:45	120220	12022020	191145	79.60	12.418773	-56.733520	79.51	0.580	0.480	0.680	79.55	-0.90	1.10	 	 	 	 	 	 	 	 	 	 	 	 	 	 	 	 	 	 	1581534705	0.16	0.30
12/02/2020 19:11:46	120220	12022020	191146	79.42	12.418775	-56.733518	79.47	0.070	0.770	0.800	79.42	-0.60	1.20	 	 	 	 	 	 	 	 	 	 	 	 	 	 	 	 	 	 	1581534706	0.38	0.70
12/02/2020 19:11:47	120220	12022020	191147	79.55	12.418775	-56.733518	79.68	-0.440	1.190	0.850	79.61	-0.20	1.30	 	 	 	 	 	 	 	 	 	 	 	 	 	 	 	 	 	 	1581534707	0.17	0.31
12/02/2020 19:11:48	120220	12022020	191148	79.89	12.418775	-56.733522	80.01	-0.820	1.270	0.710	79.95	-0.10	1.20	 	 	 	 	 	 	 	 	 	 	 	 	 	 	 	 	 	 	1581534708	0.52	0.96
12/02/2020 19:11:49	120220	12022020	191149	80.13	12.418775	-56.733522	80.16	-0.820	0.350	0.500	80.13	-0.80	1.00	 	 	 	 	 	 	 	 	 	 	 	 	 	 	 	 	 	 	1581534709	0.03	0.06
12/02/2020 19:11:50	120220	12022020	191150	80.02	12.418775	-56.733517	79.95	-0.360	-1.290	0.560	79.95	-2.40	1.00	 	 	 	 	 	 	 	 	 	 	 	 	 	 	 	 	 	 	1581534710	1.10	2.04
12/02/2020 19:11:51	120220	12022020	191151	79.60	12.418773	-56.733508	79.52	0.300	-2.430	0.960	79.51	-3.70	1.30	 	 	 	 	 	 	 	 	 	 	 	 	 	 	 	 	 	 	1581534711	1.70	3.15
12/02/2020 19:11:52	120220	12022020	191152	79.24	12.418770	-56.733505	79.24	0.640	-1.970	1.250	79.20	-3.50	1.70	 	 	 	 	 	 	 	 	 	 	 	 	 	 	 	 	 	 	1581534712	0.92	1.70
12/02/2020 19:11:53	120220	12022020	191153	79.21	12.418770	-56.733508	79.31	0.400	-0.270	1.010	79.26	-1.90	1.50	 	 	 	 	 	 	 	 	 	 	 	 	 	 	 	 	 	 	1581534713	0.88	1.63
12/02/2020 19:11:54	120220	12022020	191154	79.53	12.418772	-56.733517	79.65	-0.120	1.270	0.220	79.61	-0.30	0.80	 	 	 	 	 	 	 	 	 	 	 	 	 	 	 	 	 	 	1581534714	1.75	3.24
12/02/2020 19:11:55	120220	12022020	191155	79.86	12.418777	-56.733522	79.90	-0.410	1.590	-0.580	79.89	0.20	-0.10	 	 	 	 	 	 	 	 	 	 	 	 	 	 	 	 	 	 	1581534715	1.35	2.50
12/02/2020 19:11:56	120220	12022020	191156	79.87	12.418780	-56.733520	79.82	-0.200	0.530	-0.930	79.83	-0.70	-0.50	 	 	 	 	 	 	 	 	 	 	 	 	 	 	 	 	 	 	1581534716	0.78	1.44
12/02/2020 19:11:57	120220	12022020	191157	79.62	12.418782	-56.733513	79.57	0.330	-0.960	-0.750	79.57	-2.20	-0.40	 	 	 	 	 	 	 	 	 	 	 	 	 	 	 	 	 	 	1581534717	1.52	2.82
12/02/2020 19:11:58	120220	12022020	191158	79.49	12.418782	-56.733507	79.55	0.650	-1.550	-0.420	79.51	-2.90	-0.00	 	 	 	 	 	 	 	 	 	 	 	 	 	 	 	 	 	 	1581534718	1.28	2.37
12/02/2020 19:11:59	120220	12022020	191159	79.62	12.418782	-56.733507	79.81	0.430	-0.870	-0.050	79.68	-2.40	0.30	 	 	 	 	 	 	 	 	 	 	 	 	 	 	 	 	 	 	1581534719	0.05	0.09
12/02/2020 19:12:00	120220	12022020	191200	79.99	12.418778	-56.733512	80.10	-0.160	0.200	0.480	80.04	-1.30	0.80	 	 	 	 	 	 	 	 	 	 	 	 	 	 	 	 	 	 	1581534720	1.04	1.93
12/02/2020 19:12:01	120220	12022020	191201	80.18	12.418773	-56.733513	80.25	-0.600	0.650	1.130	80.20	-0.70	1.50	 	 	 	 	 	 	 	 	 	 	 	 	 	 	 	 	 	 	1581534721	1.20	2.22
12/02/2020 19:12:02	120220	12022020	191202	80.24	12.418768	-56.733512	80.29	-0.530	0.290	1.680	80.24	-1.00	2.00	1014.60	26.80	26.80	18.50	18.50	233.0	60.0	60.0	438.0	27.3	352.00	12.10	71.00	11.70	20016	11183.0	27.4	27.4	1581534722	1.19	2.20
12/02/2020 19:12:03	120220	12022020	191203	80.16	12.418765	-56.733508	80.15	-0.070	-0.290	2.220	80.11	-1.60	2.50	 	 	 	 	 	 	 	 	 	 	 	 	 	 	 	 	 	 	1581534723	1.27	2.35
12/02/2020 19:12:04	120220	12022020	191204	79.90	12.418762	-56.733505	79.87	0.350	-0.480	2.650	79.85	-1.80	3.00	 	 	 	 	 	 	 	 	 	 	 	 	 	 	 	 	 	 	1581534724	0.89	1.65
12/02/2020 19:12:05	120220	12022020	191205	79.72	12.418762	-56.733505	79.74	0.410	-0.370	2.470	79.72	-1.70	3.00	 	 	 	 	 	 	 	 	 	 	 	 	 	 	 	 	 	 	1581534725	0.07	0.13
12/02/2020 19:12:06	120220	12022020	191206	79.78	12.418765	-56.733507	79.83	0.220	-0.460	1.500	79.81	-1.80	2.10	 	 	 	 	 	 	 	 	 	 	 	 	 	 	 	 	 	 	1581534726	0.93	1.72
12/02/2020 19:12:07	120220	12022020	191207	80.01	12.418773	-56.733505	80.10	0.060	-0.670	0.210	80.08	-2.00	0.80	 	 	 	 	 	 	 	 	 	 	 	 	 	 	 	 	 	 	1581534727	1.71	3.17
12/02/2020 19:12:08	120220	12022020	191208	80.36	12.418780	-56.733505	80.43	0.010	-0.510	-0.760	80.42	-1.90	-0.20	 	 	 	 	 	 	 	 	 	 	 	 	 	 	 	 	 	 	1581534728	1.57	2.91
12/02/2020 19:12:09	120220	12022020	191209	80.57	12.418783	-56.733507	80.56	-0.090	0.070	-0.940	80.57	-1.40	-0.50	 	 	 	 	 	 	 	 	 	 	 	 	 	 	 	 	 	 	1581534729	0.66	1.22
12/02/2020 19:12:10	120220	12022020	191210	80.52	12.418782	-56.733508	80.47	-0.340	0.690	-0.570	80.49	-0.70	-0.20	 	 	 	 	 	 	 	 	 	 	 	 	 	 	 	 	 	 	1581534730	0.61	1.13
12/02/2020 19:12:11	120220	12022020	191211	80.44	12.418778	-56.733510	80.43	-0.580	0.830	-0.170	80.43	-0.50	0.20	 	 	 	 	 	 	 	 	 	 	 	 	 	 	 	 	 	 	1581534731	0.79	1.46
12/02/2020 19:12:12	120220	12022020	191212	80.40	12.418777	-56.733510	80.41	-0.500	0.230	0.250	80.39	-1.00	0.60	 	 	 	 	 	 	 	 	 	 	 	 	 	 	 	 	 	 	1581534732	0.56	1.04
12/02/2020 19:12:13	120220	12022020	191213	80.32	12.418773	-56.733507	80.28	-0.040	-0.790	0.890	80.29	-2.00	1.20	 	 	 	 	 	 	 	 	 	 	 	 	 	 	 	 	 	 	1581534733	1.02	1.89
12/02/2020 19:12:14	120220	12022020	191214	80.11	12.418770	-56.733502	80.11	0.480	-1.470	1.570	80.08	-2.80	1.90	 	 	 	 	 	 	 	 	 	 	 	 	 	 	 	 	 	 	1581534734	1.26	2.33
12/02/2020 19:12:15	120220	12022020	191215	79.99	12.418768	-56.733498	80.05	0.680	-1.310	1.960	79.99	-2.70	2.30	 	 	 	 	 	 	 	 	 	 	 	 	 	 	 	 	 	 	1581534735	0.68	1.26
12/02/2020 19:12:16	120220	12022020	191216	80.07	12.418768	-56.733500	80.18	0.560	-0.580	1.810	80.12	-2.00	2.30	 	 	 	 	 	 	 	 	 	 	 	 	 	 	 	 	 	 	1581534736	0.32	0.59
12/02/2020 19:12:17	120220	12022020	191217	80.30	12.418772	-56.733503	80.39	0.340	0.100	1.250	80.34	-1.30	1.80	 	 	 	 	 	 	 	 	 	 	 	 	 	 	 	 	 	 	1581534737	1.01	1.87
12/02/2020 19:12:18	120220	12022020	191218	80.45	12.418777	-56.733505	80.48	0.130	0.420	0.760	80.46	-1.00	1.20	 	 	 	 	 	 	 	 	 	 	 	 	 	 	 	 	 	 	1581534738	1.08	2.00
12/02/2020 19:12:19	120220	12022020	191219	80.45	12.418780	-56.733505	80.46	-0.140	0.540	0.480	80.45	-0.80	0.90	 	 	 	 	 	 	 	 	 	 	 	 	 	 	 	 	 	 	1581534739	0.61	1.13
12/02/2020 19:12:20	120220	12022020	191220	80.50	12.418780	-56.733505	80.56	-0.520	0.550	0.300	80.54	-0.80	0.70	 	 	 	 	 	 	 	 	 	 	 	 	 	 	 	 	 	 	1581534740	0.22	0.41
12/02/2020 19:12:21	120220	12022020	191221	80.76	12.418780	-56.733505	80.86	-0.810	0.420	0.260	80.83	-0.90	0.70	 	 	 	 	 	 	 	 	 	 	 	 	 	 	 	 	 	 	1581534741	0.20	0.37
12/02/2020 19:12:22	120220	12022020	191222	81.05	12.418777	-56.733505	81.12	-0.790	0.080	0.470	81.08	-1.20	0.80	 	 	 	 	 	 	 	 	 	 	 	 	 	 	 	 	 	 	1581534742	0.59	1.09
12/02/2020 19:12:23	120220	12022020	191223	81.11	12.418773	-56.733505	81.09	-0.440	-0.440	0.820	81.08	-1.70	1.20	 	 	 	 	 	 	 	 	 	 	 	 	 	 	 	 	 	 	1581534743	0.85	1.57
12/02/2020 19:12:24	120220	12022020	191224	80.85	12.418770	-56.733503	80.75	0.080	-1.030	1.160	80.77	-2.30	1.50	 	 	 	 	 	 	 	 	 	 	 	 	 	 	 	 	 	 	1581534744	0.73	1.35
12/02/2020 19:12:25	120220	12022020	191225	80.41	12.418772	-56.733500	80.30	0.540	-1.410	1.290	80.32	-2.70	1.70	 	 	 	 	 	 	 	 	 	 	 	 	 	 	 	 	 	 	1581534745	0.45	0.83
12/02/2020 19:12:26	120220	12022020	191226	80.10	12.418775	-56.733500	80.10	0.760	-1.300	1.120	80.09	-2.70	1.60	 	 	 	 	 	 	 	 	 	 	 	 	 	 	 	 	 	 	1581534746	0.84	1.56
12/02/2020 19:12:27	120220	12022020	191227	80.28	12.418780	-56.733502	80.47	0.720	-0.580	0.580	80.39	-2.10	1.10	 	 	 	 	 	 	 	 	 	 	 	 	 	 	 	 	 	 	1581534747	1.18	2.19
12/02/2020 19:12:28	120220	12022020	191228	81.05	12.418785	-56.733505	81.32	0.400	0.420	-0.130	81.24	-1.10	0.40	 	 	 	 	 	 	 	 	 	 	 	 	 	 	 	 	 	 	1581534748	1.21	2.24
12/02/2020 19:12:29	120220	12022020	191229	81.91	12.418785	-56.733507	82.07	-0.080	0.950	-0.380	82.02	-0.40	0.00	 	 	 	 	 	 	 	 	 	 	 	 	 	 	 	 	 	 	1581534749	0.56	1.04
12/02/2020 19:12:30	120220	12022020	191230	82.10	12.418780	-56.733505	82.01	-0.490	0.750	0.350	82.02	-0.60	0.60	 	 	 	 	 	 	 	 	 	 	 	 	 	 	 	 	 	 	1581534750	1.14	2.11
12/02/2020 19:12:31	120220	12022020	191231	81.37	12.418772	-56.733502	81.08	-0.690	0.300	1.600	81.15	-1.00	1.90	 	 	 	 	 	 	 	 	 	 	 	 	 	 	 	 	 	 	1581534751	2.09	3.87
12/02/2020 19:12:32	120220	12022020	191232	80.24	12.418765	-56.733500	80.00	-0.650	0.000	2.310	80.04	-1.30	2.70	 	 	 	 	 	 	 	 	 	 	 	 	 	 	 	 	 	 	1581534752	1.42	2.63
12/02/2020 19:12:33	120220	12022020	191233	79.50	12.418767	-56.733500	79.46	-0.450	-0.140	2.120	79.45	-1.50	2.60	 	 	 	 	 	 	 	 	 	 	 	 	 	 	 	 	 	 	1581534753	0.27	0.50
12/02/2020 19:12:34	120220	12022020	191234	79.56	12.418773	-56.733503	79.74	-0.180	-0.290	1.230	79.67	-1.60	1.80	 	 	 	 	 	 	 	 	 	 	 	 	 	 	 	 	 	 	1581534754	1.58	2.93
12/02/2020 19:12:35	120220	12022020	191235	80.31	12.418782	-56.733505	80.57	0.100	-0.720	-0.120	80.50	-2.00	0.50	 	 	 	 	 	 	 	 	 	 	 	 	 	 	 	 	 	 	1581534755	2.00	3.70
12/02/2020 19:12:36	120220	12022020	191236	81.19	12.418790	-56.733505	81.34	0.420	-1.410	-1.220	81.32	-2.70	-0.70	 	 	 	 	 	 	 	 	 	 	 	 	 	 	 	 	 	 	1581534756	1.59	2.94
12/02/2020 19:12:37	120220	12022020	191237	81.53	12.418792	-56.733500	81.46	0.760	-1.820	-1.130	81.50	-3.20	-0.80	 	 	 	 	 	 	 	 	 	 	 	 	 	 	 	 	 	 	1581534757	0.89	1.65
12/02/2020 19:12:38	120220	12022020	191238	81.07	12.418785	-56.733497	80.88	0.910	-1.260	0.130	80.93	-2.80	0.30	 	 	 	 	 	 	 	 	 	 	 	 	 	 	 	 	 	 	1581534758	1.49	2.76
12/02/2020 19:12:39	120220	12022020	191239	80.26	12.418775	-56.733498	80.08	0.600	0.170	1.700	80.11	-1.40	1.90	 	 	 	 	 	 	 	 	 	 	 	 	 	 	 	 	 	 	1581534759	2.10	3.89
12/02/2020 19:12:40	120220	12022020	191240	79.57	12.418767	-56.733502	79.49	-0.110	1.500	2.650	79.48	-0.00	3.00	 	 	 	 	 	 	 	 	 	 	 	 	 	 	 	 	 	 	1581534760	1.84	3.41
12/02/2020 19:12:41	120220	12022020	191241	79.20	12.418765	-56.733505	79.21	-0.870	2.020	2.560	79.18	0.60	3.00	 	 	 	 	 	 	 	 	 	 	 	 	 	 	 	 	 	 	1581534761	0.81	1.50
12/02/2020 19:12:42	120220	12022020	191242	79.25	12.418770	-56.733507	79.34	-1.230	1.550	1.580	79.31	0.30	2.20	 	 	 	 	 	 	 	 	 	 	 	 	 	 	 	 	 	 	1581534762	1.10	2.04
12/02/2020 19:12:43	120220	12022020	191243	79.63	12.418778	-56.733507	79.79	-0.950	0.250	0.250	79.73	-0.90	0.80	 	 	 	 	 	 	 	 	 	 	 	 	 	 	 	 	 	 	1581534763	1.85	3.43
12/02/2020 19:12:44	120220	12022020	191244	80.18	12.418787	-56.733505	80.34	-0.220	-1.350	-0.910	80.29	-2.50	-0.40	 	 	 	 	 	 	 	 	 	 	 	 	 	 	 	 	 	 	1581534764	1.94	3.59
12/02/2020 19:12:45	120220	12022020	191245	80.70	12.418792	-56.733500	80.80	0.440	-2.330	-1.390	80.78	-3.60	-1.00	 	 	 	 	 	 	 	 	 	 	 	 	 	 	 	 	 	 	1581534765	1.25	2.31
12/02/2020 19:12:46	120220	12022020	191246	80.89	12.418790	-56.733500	80.85	0.680	-2.020	-0.880	80.87	-3.50	-0.60	 	 	 	 	 	 	 	 	 	 	 	 	 	 	 	 	 	 	1581534766	0.45	0.83
12/02/2020 19:12:47	120220	12022020	191247	80.57	12.418783	-56.733502	80.40	0.560	-0.870	0.380	80.44	-2.40	0.60	 	 	 	 	 	 	 	 	 	 	 	 	 	 	 	 	 	 	1581534767	1.66	3.07
12/02/2020 19:12:48	120220	12022020	191248	79.88	12.418775	-56.733505	79.72	0.420	0.080	1.610	79.73	-1.40	1.90	 	 	 	 	 	 	 	 	 	 	 	 	 	 	 	 	 	 	1581534768	1.78	3.30
12/02/2020 19:12:49	120220	12022020	191249	79.29	12.418772	-56.733503	79.25	0.420	0.280	2.140	79.22	-1.10	2.50	 	 	 	 	 	 	 	 	 	 	 	 	 	 	 	 	 	 	1581534769	0.85	1.57
12/02/2020 19:12:50	120220	12022020	191250	79.15	12.418772	-56.733500	79.24	0.350	0.120	1.970	79.18	-1.20	2.40	 	 	 	 	 	 	 	 	 	 	 	 	 	 	 	 	 	 	1581534770	0.77	1.43
12/02/2020 19:12:51	120220	12022020	191251	79.43	12.418775	-56.733498	79.59	-0.050	0.370	1.380	79.51	-1.10	1.90	 	 	 	 	 	 	 	 	 	 	 	 	 	 	 	 	 	 	1581534771	0.82	1.52
12/02/2020 19:12:52	120220	12022020	191252	79.92	12.418778	-56.733503	80.08	-0.740	1.200	0.680	80.01	-0.30	1.20	 	 	 	 	 	 	 	 	 	 	 	 	 	 	 	 	 	 	1581534772	1.05	1.94
12/02/2020 19:12:53	120220	12022020	191253	80.40	12.418780	-56.733510	80.51	-1.330	1.780	-0.000	80.48	0.40	0.50	 	 	 	 	 	 	 	 	 	 	 	 	 	 	 	 	 	 	1581534773	1.58	2.93
12/02/2020 19:12:54	120220	12022020	191254	80.66	12.418782	-56.733515	80.67	-1.290	1.040	-0.600	80.67	-0.10	-0.10	 	 	 	 	 	 	 	 	 	 	 	 	 	 	 	 	 	 	1581534774	0.98	1.81
12/02/2020 19:12:55	120220	12022020	191255	80.60	12.418783	-56.733512	80.50	-0.450	-1.060	-0.870	80.54	-2.10	-0.40	 	 	 	 	 	 	 	 	 	 	 	 	 	 	 	 	 	 	1581534775	0.72	1.33
12/02/2020 19:12:56	120220	12022020	191256	80.25	12.418785	-56.733503	80.15	0.730	-3.100	-0.620	80.18	-4.30	-0.30	 	 	 	 	 	 	 	 	 	 	 	 	 	 	 	 	 	 	1581534776	1.82	3.37
12/02/2020 19:12:57	120220	12022020	191257	79.96	12.418785	-56.733497	79.92	1.450	-3.330	-0.180	79.93	-4.80	0.20	 	 	 	 	 	 	 	 	 	 	 	 	 	 	 	 	 	 	1581534777	1.29	2.39
12/02/2020 19:12:58	120220	12022020	191258	79.99	12.418783	-56.733500	80.08	1.290	-1.490	0.230	80.05	-3.20	0.60	 	 	 	 	 	 	 	 	 	 	 	 	 	 	 	 	 	 	1581534778	0.71	1.31
12/02/2020 19:12:59	120220	12022020	191259	80.41	12.418780	-56.733508	80.58	0.510	0.920	0.390	80.52	-0.70	0.80	 	 	 	 	 	 	 	 	 	 	 	 	 	 	 	 	 	 	1581534779	2.03	3.76
12/02/2020 19:13:00	120220	12022020	191300	80.90	12.418778	-56.733517	81.00	-0.300	2.190	0.520	80.96	0.70	0.90	 	 	 	 	 	 	 	 	 	 	 	 	 	 	 	 	 	 	1581534780	1.70	3.15
12/02/2020 19:13:01	120220	12022020	191301	81.05	12.418777	-56.733518	81.04	-0.750	1.910	0.910	81.05	0.60	1.20	 	 	 	 	 	 	 	 	 	 	 	 	 	 	 	 	 	 	1581534781	0.51	0.94
12/02/2020 19:13:02	120220	12022020	191302	80.87	12.418773	-56.733513	80.85	-0.900	0.860	1.480	80.83	-0.40	1.80	1014.50	26.70	26.70	18.40	18.40	224.0	60.0	60.0	437.0	27.3	349.00	12.30	69.00	11.80	19492	11875.0	27.4	27.4	1581534782	1.00	1.85
12/02/2020 19:13:03	120220	12022020	191303	80.77	12.418770	-56.733510	80.87	-0.880	-0.160	1.910	80.78	-1.40	2.30	 	 	 	 	 	 	 	 	 	 	 	 	 	 	 	 	 	 	1581534783	1.03	1.91
12/02/2020 19:13:04	120220	12022020	191304	81.05	12.418767	-56.733510	81.20	-0.620	-0.850	1.930	81.12	-2.10	2.30	 	 	 	 	 	 	 	 	 	 	 	 	 	 	 	 	 	 	1581534784	0.69	1.28
12/02/2020 19:13:05	120220	12022020	191305	81.35	12.418765	-56.733510	81.42	0.040	-1.340	1.730	81.38	-2.60	2.20	 	 	 	 	 	 	 	 	 	 	 	 	 	 	 	 	 	 	1581534785	0.35	0.65
12/02/2020 19:13:06	120220	12022020	191306	81.32	12.418767	-56.733510	81.27	0.910	-1.570	1.470	81.27	-2.90	1.90	 	 	 	 	 	 	 	 	 	 	 	 	 	 	 	 	 	 	1581534786	0.20	0.37
12/02/2020 19:13:07	120220	12022020	191307	81.15	12.418770	-56.733510	81.15	1.360	-1.170	0.920	81.15	-2.60	1.40	 	 	 	 	 	 	 	 	 	 	 	 	 	 	 	 	 	 	1581534787	0.95	1.76
12/02/2020 19:13:08	120220	12022020	191308	81.33	12.418777	-56.733515	81.47	0.930	-0.130	0.080	81.43	-1.60	0.60	 	 	 	 	 	 	 	 	 	 	 	 	 	 	 	 	 	 	1581534788	1.69	3.13
12/02/2020 19:13:09	120220	12022020	191309	81.92	12.418782	-56.733522	82.13	-0.030	0.730	-0.510	82.06	-0.70	-0.10	 	 	 	 	 	 	 	 	 	 	 	 	 	 	 	 	 	 	1581534789	1.69	3.13
12/02/2020 19:13:10	120220	12022020	191310	82.55	12.418782	-56.733523	82.71	-0.660	0.710	-0.270	82.65	-0.60	0.10	 	 	 	 	 	 	 	 	 	 	 	 	 	 	 	 	 	 	1581534790	0.59	1.09
12/02/2020 19:13:11	120220	12022020	191311	82.78	12.418775	-56.733522	82.79	-0.520	-0.030	0.740	82.76	-1.30	1.00	 	 	 	 	 	 	 	 	 	 	 	 	 	 	 	 	 	 	1581534791	1.59	2.94
12/02/2020 19:13:12	120220	12022020	191312	82.49	12.418767	-56.733517	82.40	-0.020	-0.620	1.890	82.39	-1.90	2.20	 	 	 	 	 	 	 	 	 	 	 	 	 	 	 	 	 	 	1581534792	2.21	4.09
12/02/2020 19:13:13	120220	12022020	191313	82.00	12.418760	-56.733513	81.95	0.200	-0.470	2.620	81.92	-1.90	3.00	 	 	 	 	 	 	 	 	 	 	 	 	 	 	 	 	 	 	1581534793	1.53	2.83
12/02/2020 19:13:14	120220	12022020	191314	81.73	12.418757	-56.733517	81.78	-0.060	0.220	2.670	81.73	-1.30	3.10	 	 	 	 	 	 	 	 	 	 	 	 	 	 	 	 	 	 	1581534794	0.82	1.52
12/02/2020 19:13:15	120220	12022020	191315	81.89	12.418758	-56.733522	82.07	-0.470	0.650	2.080	81.98	-0.70	2.60	 	 	 	 	 	 	 	 	 	 	 	 	 	 	 	 	 	 	1581534795	1.22	2.26
12/02/2020 19:13:16	120220	12022020	191316	82.47	12.418763	-56.733525	82.68	-0.550	0.260	1.000	82.61	-1.00	1.60	 	 	 	 	 	 	 	 	 	 	 	 	 	 	 	 	 	 	1581534796	1.36	2.52
12/02/2020 19:13:17	120220	12022020	191317	83.16	12.418770	-56.733525	83.32	-0.180	-0.600	-0.120	83.27	-1.90	0.40	 	 	 	 	 	 	 	 	 	 	 	 	 	 	 	 	 	 	1581534797	1.35	2.50
12/02/2020 19:13:18	120220	12022020	191318	83.57	12.418775	-56.733523	83.58	0.380	-1.170	-0.890	83.59	-2.50	-0.40	 	 	 	 	 	 	 	 	 	 	 	 	 	 	 	 	 	 	1581534798	0.99	1.83
12/02/2020 19:13:19	120220	12022020	191319	83.52	12.418777	-56.733522	83.45	0.770	-1.170	-1.030	83.47	-2.60	-0.60	 	 	 	 	 	 	 	 	 	 	 	 	 	 	 	 	 	 	1581534799	0.29	0.54
12/02/2020 19:13:20	120220	12022020	191320	83.25	12.418775	-56.733523	83.20	0.820	-0.850	-0.590	83.19	-2.30	-0.30	 	 	 	 	 	 	 	 	 	 	 	 	 	 	 	 	 	 	1581534800	0.29	0.54
12/02/2020 19:13:21	120220	12022020	191321	83.00	12.418773	-56.733523	82.96	0.570	-0.420	0.100	82.95	-1.90	0.40	 	 	 	 	 	 	 	 	 	 	 	 	 	 	 	 	 	 	1581534801	0.44	0.81
12/02/2020 19:13:22	120220	12022020	191322	82.86	12.418772	-56.733525	82.88	0.160	0.200	0.590	82.85	-1.30	0.90	 	 	 	 	 	 	 	 	 	 	 	 	 	 	 	 	 	 	1581534802	0.35	0.65
12/02/2020 19:13:23	120220	12022020	191323	82.94	12.418770	-56.733527	83.03	-0.240	0.840	0.870	82.98	-0.60	1.20	 	 	 	 	 	 	 	 	 	 	 	 	 	 	 	 	 	 	1581534803	0.52	0.96
12/02/2020 19:13:24	120220	12022020	191324	83.24	12.418768	-56.733528	83.39	-0.550	1.090	1.010	83.33	-0.30	1.40	 	 	 	 	 	 	 	 	 	 	 	 	 	 	 	 	 	 	1581534804	0.59	1.09
12/02/2020 19:13:25	120220	12022020	191325	83.67	12.418767	-56.733530	83.78	-0.720	0.780	1.050	83.73	-0.50	1.40	 	 	 	 	 	 	 	 	 	 	 	 	 	 	 	 	 	 	1581534805	0.47	0.87
12/02/2020 19:13:26	120220	12022020	191326	83.88	12.418765	-56.733530	83.86	-0.720	0.070	1.210	83.86	-1.20	1.60	 	 	 	 	 	 	 	 	 	 	 	 	 	 	 	 	 	 	1581534806	0.57	1.06
12/02/2020 19:13:27	120220	12022020	191327	83.68	12.418762	-56.733528	83.58	-0.470	-0.700	1.510	83.61	-2.00	1.90	 	 	 	 	 	 	 	 	 	 	 	 	 	 	 	 	 	 	1581534807	0.68	1.26
12/02/2020 19:13:28	120220	12022020	191328	83.40	12.418762	-56.733527	83.36	0.020	-1.270	1.540	83.38	-2.60	2.00	 	 	 	 	 	 	 	 	 	 	 	 	 	 	 	 	 	 	1581534808	0.36	0.67
12/02/2020 19:13:29	120220	12022020	191329	83.49	12.418763	-56.733525	83.56	0.540	-1.490	1.060	83.55	-2.80	1.60	 	 	 	 	 	 	 	 	 	 	 	 	 	 	 	 	 	 	1581534809	0.56	1.04
12/02/2020 19:13:30	120220	12022020	191330	83.84	12.418767	-56.733525	83.88	0.810	-1.260	0.410	83.89	-2.70	0.90	 	 	 	 	 	 	 	 	 	 	 	 	 	 	 	 	 	 	1581534810	0.85	1.57
12/02/2020 19:13:31	120220	12022020	191331	83.93	12.418770	-56.733527	83.83	0.780	-0.720	0.100	83.89	-2.20	0.50	 	 	 	 	 	 	 	 	 	 	 	 	 	 	 	 	 	 	1581534811	0.74	1.37
12/02/2020 19:13:32	120220	12022020	191332	83.63	12.418772	-56.733527	83.52	0.550	0.010	0.170	83.56	-1.50	0.60	 	 	 	 	 	 	 	 	 	 	 	 	 	 	 	 	 	 	1581534812	0.31	0.57
12/02/2020 19:13:33	120220	12022020	191333	83.39	12.418772	-56.733528	83.36	0.140	0.870	0.330	83.36	-0.60	0.70	 	 	 	 	 	 	 	 	 	 	 	 	 	 	 	 	 	 	1581534813	0.38	0.70
12/02/2020 19:13:34	120220	12022020	191334	83.38	12.418770	-56.733532	83.43	-0.420	1.500	0.460	83.41	0.10	0.80	 	 	 	 	 	 	 	 	 	 	 	 	 	 	 	 	 	 	1581534814	0.67	1.24
12/02/2020 19:13:35	120220	12022020	191335	83.54	12.418768	-56.733533	83.60	-0.920	1.440	0.540	83.57	0.10	0.90	 	 	 	 	 	 	 	 	 	 	 	 	 	 	 	 	 	 	1581534815	0.57	1.06
12/02/2020 19:13:36	120220	12022020	191336	83.65	12.418767	-56.733533	83.67	-1.050	0.510	0.680	83.66	-0.70	1.10	 	 	 	 	 	 	 	 	 	 	 	 	 	 	 	 	 	 	1581534816	0.18	0.33
12/02/2020 19:13:37	120220	12022020	191337	83.62	12.418767	-56.733530	83.61	-0.620	-0.870	0.840	83.61	-2.10	1.20	 	 	 	 	 	 	 	 	 	 	 	 	 	 	 	 	 	 	1581534817	0.72	1.33
12/02/2020 19:13:38	120220	12022020	191338	83.52	12.418767	-56.733525	83.51	0.190	-1.940	0.900	83.50	-3.20	1.30	 	 	 	 	 	 	 	 	 	 	 	 	 	 	 	 	 	 	1581534818	0.92	1.70
12/02/2020 19:13:39	120220	12022020	191339	83.47	12.418767	-56.733522	83.49	0.990	-2.170	0.880	83.47	-3.60	1.30	 	 	 	 	 	 	 	 	 	 	 	 	 	 	 	 	 	 	1581534819	0.63	1.17
12/02/2020 19:13:40	120220	12022020	191340	83.55	12.418768	-56.733522	83.61	1.350	-1.540	0.880	83.58	-3.00	1.30	 	 	 	 	 	 	 	 	 	 	 	 	 	 	 	 	 	 	1581534820	0.18	0.33
12/02/2020 19:13:41	120220	12022020	191341	83.62	12.418768	-56.733523	83.63	1.010	-0.270	0.990	83.62	-1.90	1.40	 	 	 	 	 	 	 	 	 	 	 	 	 	 	 	 	 	 	1581534821	0.38	0.70
12/02/2020 19:13:42	120220	12022020	191342	83.51	12.418768	-56.733528	83.47	0.090	1.180	1.110	83.47	-0.40	1.50	 	 	 	 	 	 	 	 	 	 	 	 	 	 	 	 	 	 	1581534822	0.87	1.61
12/02/2020 19:13:43	120220	12022020	191343	83.41	12.418768	-56.733532	83.45	-0.930	2.060	1.040	83.43	0.60	1.50	 	 	 	 	 	 	 	 	 	 	 	 	 	 	 	 	 	 	1581534823	1.03	1.91
12/02/2020 19:13:44	120220	12022020	191344	83.61	12.418768	-56.733535	83.71	-1.450	1.780	0.750	83.68	0.50	1.20	 	 	 	 	 	 	 	 	 	 	 	 	 	 	 	 	 	 	1581534824	0.54	1.00
12/02/2020 19:13:45	120220	12022020	191345	83.91	12.418767	-56.733533	83.93	-1.210	0.400	0.560	83.93	-0.70	1.00	 	 	 	 	 	 	 	 	 	 	 	 	 	 	 	 	 	 	1581534825	0.50	0.93
12/02/2020 19:13:46	120220	12022020	191346	83.80	12.418765	-56.733527	83.67	-0.470	-1.270	0.710	83.72	-2.50	1.10	 	 	 	 	 	 	 	 	 	 	 	 	 	 	 	 	 	 	1581534826	1.26	2.33
12/02/2020 19:13:47	120220	12022020	191347	83.29	12.418765	-56.733522	83.15	0.250	-2.260	0.840	83.19	-3.60	1.20	 	 	 	 	 	 	 	 	 	 	 	 	 	 	 	 	 	 	1581534827	1.20	2.22
12/02/2020 19:13:48	120220	12022020	191348	82.92	12.418765	-56.733520	82.90	0.660	-2.080	0.680	82.90	-3.50	1.10	 	 	 	 	 	 	 	 	 	 	 	 	 	 	 	 	 	 	1581534828	0.43	0.80
12/02/2020 19:13:49	120220	12022020	191349	83.06	12.418768	-56.733522	83.19	0.780	-1.120	0.230	83.16	-2.60	0.70	 	 	 	 	 	 	 	 	 	 	 	 	 	 	 	 	 	 	1581534829	0.76	1.41
12/02/2020 19:13:50	120220	12022020	191350	83.63	12.418772	-56.733525	83.80	0.740	0.060	-0.270	83.77	-1.50	0.20	 	 	 	 	 	 	 	 	 	 	 	 	 	 	 	 	 	 	1581534830	1.03	1.91
12/02/2020 19:13:51	120220	12022020	191351	84.11	12.418775	-56.733528	84.25	0.550	0.930	-0.570	84.19	-0.50	-0.10	 	 	 	 	 	 	 	 	 	 	 	 	 	 	 	 	 	 	1581534831	0.86	1.59
12/02/2020 19:13:52	120220	12022020	191352	84.34	12.418775	-56.733528	84.27	0.220	1.160	-0.480	84.31	-0.20	-0.10	 	 	 	 	 	 	 	 	 	 	 	 	 	 	 	 	 	 	1581534832	0.32	0.59
12/02/2020 19:13:53	120220	12022020	191353	84.15	12.418773	-56.733528	83.94	-0.210	0.840	0.140	84.07	-0.50	0.40	 	 	 	 	 	 	 	 	 	 	 	 	 	 	 	 	 	 	1581534833	0.43	0.80
12/02/2020 19:13:54	120220	12022020	191354	83.60	12.418770	-56.733525	83.53	-0.510	0.260	1.070	83.50	-1.10	1.40	 	 	 	 	 	 	 	 	 	 	 	 	 	 	 	 	 	 	1581534834	1.06	1.96
12/02/2020 19:13:55	120220	12022020	191355	83.19	12.418765	-56.733522	83.17	-0.530	-0.520	2.090	83.15	-1.80	2.40	 	 	 	 	 	 	 	 	 	 	 	 	 	 	 	 	 	 	1581534835	1.20	2.22
12/02/2020 19:13:56	120220	12022020	191356	83.12	12.418762	-56.733520	83.20	-0.310	-0.990	2.360	83.16	-2.30	2.80	 	 	 	 	 	 	 	 	 	 	 	 	 	 	 	 	 	 	1581534836	0.81	1.50
12/02/2020 19:13:57	120220	12022020	191357	83.33	12.418762	-56.733518	83.43	-0.110	-1.060	2.050	83.39	-2.40	2.50	 	 	 	 	 	 	 	 	 	 	 	 	 	 	 	 	 	 	1581534837	0.20	0.37
12/02/2020 19:13:58	120220	12022020	191358	83.52	12.418763	-56.733518	83.56	-0.020	-0.900	1.520	83.54	-2.30	2.00	 	 	 	 	 	 	 	 	 	 	 	 	 	 	 	 	 	 	1581534838	0.38	0.70
12/02/2020 19:13:59	120220	12022020	191359	83.58	12.418765	-56.733518	83.59	0.040	-0.550	1.000	83.59	-2.00	1.50	 	 	 	 	 	 	 	 	 	 	 	 	 	 	 	 	 	 	1581534839	0.41	0.76
12/02/2020 19:14:00	120220	12022020	191400	83.67	12.418767	-56.733518	83.68	0.100	0.000	0.490	83.69	-1.50	1.00	 	 	 	 	 	 	 	 	 	 	 	 	 	 	 	 	 	 	1581534840	0.28	0.52
12/02/2020 19:14:01	120220	12022020	191401	83.77	12.418767	-56.733520	83.73	0.120	0.560	0.130	83.78	-0.90	0.60	 	 	 	 	 	 	 	 	 	 	 	 	 	 	 	 	 	 	1581534841	0.27	0.50
12/02/2020 19:14:02	120220	12022020	191402	83.68	12.418768	-56.733522	83.55	0.070	0.840	-0.050	83.62	-0.60	0.40	1014.50	26.60	26.70	18.70	18.80	217.0	62.0	62.0	437.0	27.3	347.00	11.90	70.00	11.60	19266	13720.0	27.4	27.4	1581534842	0.36	0.67
12/02/2020 19:14:03	120220	12022020	191403	83.29	12.418770	-56.733522	83.13	0.040	0.590	-0.070	83.20	-0.70	0.40	 	 	 	 	 	 	 	 	 	 	 	 	 	 	 	 	 	 	1581534843	0.54	1.00
12/02/2020 19:14:04	120220	12022020	191404	82.90	12.418775	-56.733520	82.82	0.120	-0.260	-0.170	82.86	-1.50	0.30	 	 	 	 	 	 	 	 	 	 	 	 	 	 	 	 	 	 	1581534844	0.98	1.81
12/02/2020 19:14:05	120220	12022020	191405	82.85	12.418780	-56.733517	82.87	0.330	-1.280	-0.450	82.88	-2.50	0.00	 	 	 	 	 	 	 	 	 	 	 	 	 	 	 	 	 	 	1581534845	1.37	2.54
12/02/2020 19:14:06	120220	12022020	191406	83.08	12.418782	-56.733512	83.16	0.550	-1.740	-0.500	83.13	-3.10	-0.10	 	 	 	 	 	 	 	 	 	 	 	 	 	 	 	 	 	 	1581534846	1.10	2.04
12/02/2020 19:14:07	120220	12022020	191407	83.34	12.418782	-56.733510	83.41	0.530	-1.260	-0.040	83.37	-2.80	0.30	 	 	 	 	 	 	 	 	 	 	 	 	 	 	 	 	 	 	1581534847	0.54	1.00
12/02/2020 19:14:08	120220	12022020	191408	83.50	12.418777	-56.733512	83.54	0.090	-0.040	0.780	83.51	-1.60	1.00	 	 	 	 	 	 	 	 	 	 	 	 	 	 	 	 	 	 	1581534848	1.14	2.11
12/02/2020 19:14:09	120220	12022020	191409	83.49	12.418768	-56.733515	83.48	-0.670	1.180	1.720	83.46	-0.40	2.00	 	 	 	 	 	 	 	 	 	 	 	 	 	 	 	 	 	 	1581534849	1.85	3.43
12/02/2020 19:14:10	120220	12022020	191410	83.25	12.418760	-56.733517	83.21	-1.290	1.700	2.420	83.19	0.30	2.70	 	 	 	 	 	 	 	 	 	 	 	 	 	 	 	 	 	 	1581534850	1.82	3.37
12/02/2020 19:14:11	120220	12022020	191411	82.89	12.418755	-56.733518	82.85	-1.310	1.320	2.580	82.82	0.00	3.00	 	 	 	 	 	 	 	 	 	 	 	 	 	 	 	 	 	 	1581534851	0.97	1.80
12/02/2020 19:14:12	120220	12022020	191412	82.62	12.418757	-56.733515	82.62	-0.590	0.120	2.060	82.61	-1.10	2.60	 	 	 	 	 	 	 	 	 	 	 	 	 	 	 	 	 	 	1581534852	0.52	0.96
12/02/2020 19:14:13	120220	12022020	191413	82.62	12.418763	-56.733512	82.65	0.400	-1.270	1.180	82.65	-2.60	1.60	 	 	 	 	 	 	 	 	 	 	 	 	 	 	 	 	 	 	1581534853	1.73	3.20
12/02/2020 19:14:14	120220	12022020	191414	82.76	12.418773	-56.733507	82.80	1.310	-2.370	-0.000	82.80	-3.70	0.60	 	 	 	 	 	 	 	 	 	 	 	 	 	 	 	 	 	 	1581534854	2.24	4.15
12/02/2020 19:14:15	120220	12022020	191415	82.96	12.418782	-56.733505	82.98	1.370	-2.170	-0.740	83.01	-3.60	-0.30	 	 	 	 	 	 	 	 	 	 	 	 	 	 	 	 	 	 	1581534855	1.73	3.20
12/02/2020 19:14:16	120220	12022020	191416	83.17	12.418783	-56.733508	83.20	0.780	-0.810	-0.770	83.19	-2.40	-0.40	 	 	 	 	 	 	 	 	 	 	 	 	 	 	 	 	 	 	1581534856	0.68	1.26
12/02/2020 19:14:17	120220	12022020	191417	83.13	12.418778	-56.733512	83.06	0.100	0.670	0.020	83.07	-0.90	0.30	 	 	 	 	 	 	 	 	 	 	 	 	 	 	 	 	 	 	1581534857	1.37	2.54
12/02/2020 19:14:18	120220	12022020	191418	82.72	12.418772	-56.733515	82.66	-0.290	1.480	0.870	82.63	0.10	1.20	 	 	 	 	 	 	 	 	 	 	 	 	 	 	 	 	 	 	1581534858	1.55	2.87
12/02/2020 19:14:19	120220	12022020	191419	82.26	12.418768	-56.733513	82.20	-0.490	1.260	1.500	82.19	-0.00	1.90	 	 	 	 	 	 	 	 	 	 	 	 	 	 	 	 	 	 	1581534859	0.73	1.35
12/02/2020 19:14:20	120220	12022020	191420	82.04	12.418768	-56.733510	82.07	-0.540	0.440	1.710	82.03	-0.90	2.10	 	 	 	 	 	 	 	 	 	 	 	 	 	 	 	 	 	 	1581534860	0.83	1.54
12/02/2020 19:14:21	120220	12022020	191421	82.12	12.418768	-56.733507	82.22	-0.580	-0.360	1.610	82.16	-1.70	2.10	 	 	 	 	 	 	 	 	 	 	 	 	 	 	 	 	 	 	1581534861	0.76	1.41
12/02/2020 19:14:22	120220	12022020	191422	82.38	12.418768	-56.733507	82.47	-0.570	-0.480	1.200	82.44	-1.90	1.70	 	 	 	 	 	 	 	 	 	 	 	 	 	 	 	 	 	 	1581534862	0.07	0.13
12/02/2020 19:14:23	120220	12022020	191423	82.58	12.418768	-56.733508	82.58	-0.430	-0.420	0.750	82.60	-1.80	1.20	 	 	 	 	 	 	 	 	 	 	 	 	 	 	 	 	 	 	1581534863	0.46	0.85
12/02/2020 19:14:24	120220	12022020	191424	82.52	12.418770	-56.733508	82.48	-0.040	-0.680	0.510	82.48	-2.10	0.90	 	 	 	 	 	 	 	 	 	 	 	 	 	 	 	 	 	 	1581534864	0.24	0.44
12/02/2020 19:14:25	120220	12022020	191425	82.28	12.418770	-56.733507	82.21	0.460	-1.200	0.610	82.22	-2.60	1.00	 	 	 	 	 	 	 	 	 	 	 	 	 	 	 	 	 	 	1581534865	0.58	1.07
12/02/2020 19:14:26	120220	12022020	191426	82.04	12.418770	-56.733503	82.00	0.700	-1.240	0.650	82.00	-2.60	1.10	 	 	 	 	 	 	 	 	 	 	 	 	 	 	 	 	 	 	1581534866	0.65	1.20
12/02/2020 19:14:27	120220	12022020	191427	81.91	12.418770	-56.733505	81.87	0.490	-0.250	0.300	81.90	-1.80	0.80	 	 	 	 	 	 	 	 	 	 	 	 	 	 	 	 	 	 	1581534867	0.40	0.74
12/02/2020 19:14:28	120220	12022020	191428	81.88	12.418773	-56.733508	81.84	0.150	0.770	-0.030	81.87	-0.70	0.40	 	 	 	 	 	 	 	 	 	 	 	 	 	 	 	 	 	 	1581534868	1.11	2.06
12/02/2020 19:14:29	120220	12022020	191429	81.82	12.418775	-56.733512	81.76	-0.130	1.140	-0.090	81.79	-0.30	0.30	 	 	 	 	 	 	 	 	 	 	 	 	 	 	 	 	 	 	1581534869	0.73	1.35
12/02/2020 19:14:30	120220	12022020	191430	81.68	12.418775	-56.733510	81.68	-0.270	0.470	0.120	81.67	-0.80	0.50	 	 	 	 	 	 	 	 	 	 	 	 	 	 	 	 	 	 	1581534870	0.35	0.65
12/02/2020 19:14:31	120220	12022020	191431	81.72	12.418775	-56.733507	81.78	-0.310	-0.260	0.320	81.76	-1.60	0.70	 	 	 	 	 	 	 	 	 	 	 	 	 	 	 	 	 	 	1581534871	0.76	1.41
12/02/2020 19:14:32	120220	12022020	191432	81.89	12.418773	-56.733505	81.92	-0.290	-0.720	0.560	81.90	-2.10	0.90	 	 	 	 	 	 	 	 	 	 	 	 	 	 	 	 	 	 	1581534872	0.58	1.07
12/02/2020 19:14:33	120220	12022020	191433	81.84	12.418770	-56.733505	81.83	-0.150	-0.820	0.980	81.79	-2.20	1.40	 	 	 	 	 	 	 	 	 	 	 	 	 	 	 	 	 	 	1581534873	0.79	1.46
12/02/2020 19:14:34	120220	12022020	191434	81.56	12.418765	-56.733503	81.53	0.130	-0.800	1.520	81.49	-2.20	1.90	 	 	 	 	 	 	 	 	 	 	 	 	 	 	 	 	 	 	1581534874	0.95	1.76
12/02/2020 19:14:35	120220	12022020	191435	81.27	12.418762	-56.733502	81.25	0.430	-0.690	1.940	81.23	-2.10	2.30	 	 	 	 	 	 	 	 	 	 	 	 	 	 	 	 	 	 	1581534875	0.79	1.46
12/02/2020 19:14:36	120220	12022020	191436	81.10	12.418762	-56.733502	81.11	0.480	-0.390	2.000	81.09	-1.80	2.40	 	 	 	 	 	 	 	 	 	 	 	 	 	 	 	 	 	 	1581534876	0.24	0.44
12/02/2020 19:14:37	120220	12022020	191437	81.13	12.418763	-56.733502	81.15	0.160	0.110	1.470	81.16	-1.30	1.90	 	 	 	 	 	 	 	 	 	 	 	 	 	 	 	 	 	 	1581534877	0.57	1.06
12/02/2020 19:14:38	120220	12022020	191438	81.34	12.418768	-56.733505	81.37	-0.310	0.680	0.540	81.39	-0.70	1.00	 	 	 	 	 	 	 	 	 	 	 	 	 	 	 	 	 	 	1581534878	1.17	2.17
12/02/2020 19:14:39	120220	12022020	191439	81.46	12.418772	-56.733508	81.43	-0.600	0.990	-0.220	81.44	-0.40	0.20	 	 	 	 	 	 	 	 	 	 	 	 	 	 	 	 	 	 	1581534879	1.16	2.15
12/02/2020 19:14:40	120220	12022020	191440	81.28	12.418775	-56.733510	81.22	-0.450	0.520	-0.560	81.23	-0.80	-0.10	 	 	 	 	 	 	 	 	 	 	 	 	 	 	 	 	 	 	1581534880	0.66	1.22
12/02/2020 19:14:41	120220	12022020	191441	81.13	12.418777	-56.733507	81.10	0.010	-0.680	-0.660	81.12	-2.00	-0.20	 	 	 	 	 	 	 	 	 	 	 	 	 	 	 	 	 	 	1581534881	0.83	1.54
12/02/2020 19:14:42	120220	12022020	191442	81.18	12.418778	-56.733502	81.19	0.400	-1.720	-0.560	81.21	-3.10	-0.20	 	 	 	 	 	 	 	 	 	 	 	 	 	 	 	 	 	 	1581534882	1.19	2.20
12/02/2020 19:14:43	120220	12022020	191443	81.26	12.418777	-56.733498	81.26	0.400	-1.660	-0.210	81.26	-3.10	0.20	 	 	 	 	 	 	 	 	 	 	 	 	 	 	 	 	 	 	1581534883	0.73	1.35
12/02/2020 19:14:44	120220	12022020	191444	81.24	12.418773	-56.733502	81.25	0.040	-0.470	0.350	81.23	-1.90	0.70	 	 	 	 	 	 	 	 	 	 	 	 	 	 	 	 	 	 	1581534884	0.97	1.80
12/02/2020 19:14:45	120220	12022020	191445	81.18	12.418768	-56.733507	81.19	-0.460	0.940	1.000	81.17	-0.60	1.30	 	 	 	 	 	 	 	 	 	 	 	 	 	 	 	 	 	 	1581534885	1.61	2.98
12/02/2020 19:14:46	120220	12022020	191446	81.07	12.418763	-56.733512	81.07	-0.640	1.330	1.400	81.03	-0.10	1.80	 	 	 	 	 	 	 	 	 	 	 	 	 	 	 	 	 	 	1581534886	1.21	2.24
12/02/2020 19:14:47	120220	12022020	191447	80.87	12.418762	-56.733510	80.87	-0.400	0.780	1.700	80.83	-0.60	2.10	 	 	 	 	 	 	 	 	 	 	 	 	 	 	 	 	 	 	1581534887	0.43	0.80
12/02/2020 19:14:48	120220	12022020	191448	80.77	12.418763	-56.733508	80.79	0.150	-0.230	1.710	80.77	-1.60	2.10	 	 	 	 	 	 	 	 	 	 	 	 	 	 	 	 	 	 	1581534888	0.66	1.22
12/02/2020 19:14:49	120220	12022020	191449	80.84	12.418765	-56.733505	80.88	0.650	-1.050	1.460	80.86	-2.40	1.90	 	 	 	 	 	 	 	 	 	 	 	 	 	 	 	 	 	 	1581534889	0.86	1.59
12/02/2020 19:14:50	120220	12022020	191450	80.95	12.418770	-56.733503	80.99	0.810	-1.480	1.070	80.97	-2.90	1.50	 	 	 	 	 	 	 	 	 	 	 	 	 	 	 	 	 	 	1581534890	1.01	1.87
12/02/2020 19:14:51	120220	12022020	191451	81.08	12.418773	-56.733503	81.13	0.570	-1.390	0.780	81.11	-2.80	1.20	 	 	 	 	 	 	 	 	 	 	 	 	 	 	 	 	 	 	1581534891	0.80	1.48
12/02/2020 19:14:52	120220	12022020	191452	81.13	12.418773	-56.733503	81.15	0.050	-0.570	1.000	81.12	-2.00	1.40	 	 	 	 	 	 	 	 	 	 	 	 	 	 	 	 	 	 	1581534892	0.33	0.61
12/02/2020 19:14:53	120220	12022020	191453	81.02	12.418767	-56.733508	81.03	-0.510	0.670	1.490	80.99	-0.80	1.90	 	 	 	 	 	 	 	 	 	 	 	 	 	 	 	 	 	 	1581534893	1.36	2.52
12/02/2020 19:14:54	120220	12022020	191454	80.90	12.418763	-56.733512	80.93	-0.850	1.400	1.700	80.90	0.00	2.10	 	 	 	 	 	 	 	 	 	 	 	 	 	 	 	 	 	 	1581534894	1.31	2.43
12/02/2020 19:14:55	120220	12022020	191455	80.98	12.418762	-56.733513	81.02	-0.870	1.140	1.290	81.01	-0.20	1.70	 	 	 	 	 	 	 	 	 	 	 	 	 	 	 	 	 	 	1581534895	0.29	0.54
12/02/2020 19:14:56	120220	12022020	191456	81.15	12.418765	-56.733512	81.16	-0.600	0.280	0.550	81.16	-1.10	1.00	 	 	 	 	 	 	 	 	 	 	 	 	 	 	 	 	 	 	1581534896	0.64	1.19
12/02/2020 19:14:57	120220	12022020	191457	81.09	12.418768	-56.733510	81.03	-0.130	-0.580	0.110	81.04	-1.90	0.50	 	 	 	 	 	 	 	 	 	 	 	 	 	 	 	 	 	 	1581534897	0.75	1.39
12/02/2020 19:14:58	120220	12022020	191458	80.72	12.418770	-56.733508	80.61	0.410	-1.180	-0.020	80.62	-2.50	0.40	 	 	 	 	 	 	 	 	 	 	 	 	 	 	 	 	 	 	1581534898	0.56	1.04
12/02/2020 19:14:59	120220	12022020	191459	80.27	12.418773	-56.733508	80.20	0.860	-1.490	-0.150	80.21	-2.90	0.30	 	 	 	 	 	 	 	 	 	 	 	 	 	 	 	 	 	 	1581534899	0.77	1.43
12/02/2020 19:15:00	120220	12022020	191500	80.22	12.418778	-56.733507	80.25	1.040	-1.390	-0.570	80.28	-2.80	-0.10	 	 	 	 	 	 	 	 	 	 	 	 	 	 	 	 	 	 	1581534900	1.17	2.17
12/02/2020 19:15:01	120220	12022020	191501	80.67	12.418783	-56.733508	80.78	0.800	-0.730	-0.910	80.80	-2.10	-0.50	 	 	 	 	 	 	 	 	 	 	 	 	 	 	 	 	 	 	1581534901	1.03	1.91
12/02/2020 19:15:02	120220	12022020	191502	81.32	12.418783	-56.733510	81.43	0.240	0.280	-0.560	81.44	-1.10	-0.20	1014.50	26.60	26.60	19.20	19.20	218.0	64.0	64.0	437.0	27.3	347.00	11.50	69.00	11.10	19726	12924.0	27.4	27.4	1581534902	0.53	0.98
12/02/2020 19:15:03	120220	12022020	191503	81.80	12.418777	-56.733513	81.88	-0.350	1.130	0.550	81.85	-0.30	0.90	 	 	 	 	 	 	 	 	 	 	 	 	 	 	 	 	 	 	1581534903	1.44	2.67
12/02/2020 19:15:04	120220	12022020	191504	81.87	12.418767	-56.733513	81.88	-0.740	1.220	1.890	81.82	-0.20	2.30	 	 	 	 	 	 	 	 	 	 	 	 	 	 	 	 	 	 	1581534904	2.16	4.00
12/02/2020 19:15:05	120220	12022020	191505	81.45	12.418758	-56.733510	81.37	-0.820	0.520	3.030	81.31	-0.80	3.40	 	 	 	 	 	 	 	 	 	 	 	 	 	 	 	 	 	 	1581534905	2.21	4.09
12/02/2020 19:15:06	120220	12022020	191506	80.69	12.418750	-56.733505	80.59	-0.660	-0.310	3.850	80.53	-1.70	4.20	 	 	 	 	 	 	 	 	 	 	 	 	 	 	 	 	 	 	1581534906	1.76	3.26
12/02/2020 19:15:07	120220	12022020	191507	80.06	12.418748	-56.733503	80.04	-0.340	-0.780	4.010	79.99	-2.20	4.40	 	 	 	 	 	 	 	 	 	 	 	 	 	 	 	 	 	 	1581534907	0.73	1.35
12/02/2020 19:15:08	120220	12022020	191508	79.99	12.418752	-56.733503	80.06	0.040	-0.900	3.100	80.05	-2.30	3.60	 	 	 	 	 	 	 	 	 	 	 	 	 	 	 	 	 	 	1581534908	0.82	1.52
12/02/2020 19:15:09	120220	12022020	191509	80.48	12.418762	-56.733505	80.58	0.420	-0.960	1.170	80.60	-2.40	1.70	 	 	 	 	 	 	 	 	 	 	 	 	 	 	 	 	 	 	1581534909	2.20	4.07
12/02/2020 19:15:10	120220	12022020	191510	81.18	12.418775	-56.733507	81.25	0.730	-0.990	-1.130	81.31	-2.40	-0.60	 	 	 	 	 	 	 	 	 	 	 	 	 	 	 	 	 	 	1581534910	2.99	5.54
12/02/2020 19:15:11	120220	12022020	191511	81.75	12.418787	-56.733508	81.74	0.810	-0.650	-2.720	81.82	-2.10	-2.20	 	 	 	 	 	 	 	 	 	 	 	 	 	 	 	 	 	 	1581534911	2.51	4.65
12/02/2020 19:15:12	120220	12022020	191512	81.93	12.418792	-56.733510	81.81	0.480	0.210	-3.020	81.90	-1.20	-2.60	 	 	 	 	 	 	 	 	 	 	 	 	 	 	 	 	 	 	1581534912	1.00	1.85
12/02/2020 19:15:13	120220	12022020	191513	81.59	12.418788	-56.733513	81.42	-0.190	1.020	-2.030	81.46	-0.40	-1.60	 	 	 	 	 	 	 	 	 	 	 	 	 	 	 	 	 	 	1581534913	1.08	2.00
12/02/2020 19:15:14	120220	12022020	191514	80.89	12.418778	-56.733513	80.75	-0.740	1.060	-0.290	80.74	-0.30	0.10	 	 	 	 	 	 	 	 	 	 	 	 	 	 	 	 	 	 	1581534914	1.92	3.56
12/02/2020 19:15:15	120220	12022020	191515	80.29	12.418770	-56.733510	80.22	-0.720	0.020	1.230	80.20	-1.30	1.60	 	 	 	 	 	 	 	 	 	 	 	 	 	 	 	 	 	 	1581534915	1.97	3.65
12/02/2020 19:15:16	120220	12022020	191516	80.00	12.418767	-56.733502	80.01	-0.160	-1.400	2.210	79.98	-2.70	2.60	 	 	 	 	 	 	 	 	 	 	 	 	 	 	 	 	 	 	1581534916	1.85	3.43
12/02/2020 19:15:17	120220	12022020	191517	80.03	12.418765	-56.733497	80.13	0.410	-1.850	2.710	80.07	-3.20	3.10	 	 	 	 	 	 	 	 	 	 	 	 	 	 	 	 	 	 	1581534917	1.34	2.48
12/02/2020 19:15:18	120220	12022020	191518	80.33	12.418763	-56.733497	80.45	0.430	-0.770	2.730	80.40	-2.20	3.20	 	 	 	 	 	 	 	 	 	 	 	 	 	 	 	 	 	 	1581534918	0.48	0.89
12/02/2020 19:15:19	120220	12022020	191519	80.59	12.418762	-56.733505	80.69	-0.100	0.860	2.410	80.63	-0.60	2.80	 	 	 	 	 	 	 	 	 	 	 	 	 	 	 	 	 	 	1581534919	1.57	2.91
12/02/2020 19:15:20	120220	12022020	191520	80.70	12.418762	-56.733512	80.71	-0.640	1.700	1.910	80.70	0.30	2.40	 	 	 	 	 	 	 	 	 	 	 	 	 	 	 	 	 	 	1581534920	1.49	2.76
12/02/2020 19:15:21	120220	12022020	191521	80.66	12.418765	-56.733513	80.66	-0.630	1.120	1.250	80.66	-0.20	1.70	 	 	 	 	 	 	 	 	 	 	 	 	 	 	 	 	 	 	1581534921	0.85	1.57
12/02/2020 19:15:22	120220	12022020	191522	80.69	12.418770	-56.733510	80.69	0.020	-0.500	0.410	80.71	-1.80	0.90	 	 	 	 	 	 	 	 	 	 	 	 	 	 	 	 	 	 	1581534922	1.42	2.63
12/02/2020 19:15:23	120220	12022020	191523	80.69	12.418777	-56.733503	80.63	0.820	-1.980	-0.310	80.65	-3.30	0.20	 	 	 	 	 	 	 	 	 	 	 	 	 	 	 	 	 	 	1581534923	1.75	3.24
12/02/2020 19:15:24	120220	12022020	191524	80.35	12.418778	-56.733500	80.24	1.070	-2.210	-0.560	80.25	-3.60	-0.10	 	 	 	 	 	 	 	 	 	 	 	 	 	 	 	 	 	 	1581534924	0.91	1.69
12/02/2020 19:15:25	120220	12022020	191525	79.82	12.418778	-56.733503	79.73	0.590	-1.120	-0.340	79.73	-2.60	0.10	 	 	 	 	 	 	 	 	 	 	 	 	 	 	 	 	 	 	1581534925	0.48	0.89
12/02/2020 19:15:26	120220	12022020	191526	79.49	12.418775	-56.733508	79.46	-0.150	0.300	0.010	79.47	-1.10	0.40	 	 	 	 	 	 	 	 	 	 	 	 	 	 	 	 	 	 	1581534926	1.21	2.24
12/02/2020 19:15:27	120220	12022020	191527	79.51	12.418773	-56.733512	79.54	-0.590	1.100	0.270	79.54	-0.30	0.70	 	 	 	 	 	 	 	 	 	 	 	 	 	 	 	 	 	 	1581534927	0.87	1.61
12/02/2020 19:15:28	120220	12022020	191528	79.70	12.418772	-56.733512	79.75	-0.640	1.190	0.390	79.73	-0.20	0.80	 	 	 	 	 	 	 	 	 	 	 	 	 	 	 	 	 	 	1581534928	0.37	0.69
12/02/2020 19:15:29	120220	12022020	191529	79.84	12.418772	-56.733512	79.87	-0.510	0.850	0.350	79.85	-0.50	0.80	 	 	 	 	 	 	 	 	 	 	 	 	 	 	 	 	 	 	1581534929	0.25	0.46
12/02/2020 19:15:30	120220	12022020	191530	79.82	12.418770	-56.733510	79.81	-0.340	0.250	0.490	79.79	-1.10	0.90	 	 	 	 	 	 	 	 	 	 	 	 	 	 	 	 	 	 	1581534930	0.21	0.39
12/02/2020 19:15:31	120220	12022020	191531	79.69	12.418770	-56.733510	79.67	-0.100	-0.460	0.870	79.66	-1.80	1.30	 	 	 	 	 	 	 	 	 	 	 	 	 	 	 	 	 	 	1581534931	0.31	0.57
12/02/2020 19:15:32	120220	12022020	191532	79.66	12.418768	-56.733508	79.71	0.210	-1.070	1.070	79.68	-2.40	1.50	 	 	 	 	 	 	 	 	 	 	 	 	 	 	 	 	 	 	1581534932	0.32	0.59
12/02/2020 19:15:33	120220	12022020	191533	79.77	12.418768	-56.733508	79.85	0.440	-1.330	1.080	79.79	-2.70	1.50	 	 	 	 	 	 	 	 	 	 	 	 	 	 	 	 	 	 	1581534933	0.17	0.31
12/02/2020 19:15:34	120220	12022020	191534	79.77	12.418767	-56.733508	79.78	0.460	-1.190	1.260	79.73	-2.60	1.70	 	 	 	 	 	 	 	 	 	 	 	 	 	 	 	 	 	 	1581534934	0.32	0.59
12/02/2020 19:15:35	120220	12022020	191535	79.47	12.418765	-56.733508	79.45	0.340	-0.840	1.570	79.39	-2.30	2.00	 	 	 	 	 	 	 	 	 	 	 	 	 	 	 	 	 	 	1581534935	0.48	0.89
12/02/2020 19:15:36	120220	12022020	191536	79.05	12.418763	-56.733508	79.04	0.200	-0.260	1.630	78.98	-1.70	2.10	 	 	 	 	 	 	 	 	 	 	 	 	 	 	 	 	 	 	1581534936	0.13	0.24
12/02/2020 19:15:37	120220	12022020	191537	78.84	12.418765	-56.733510	78.90	0.060	0.500	1.240	78.85	-0.90	1.70	 	 	 	 	 	 	 	 	 	 	 	 	 	 	 	 	 	 	1581534937	0.54	1.00
12/02/2020 19:15:38	120220	12022020	191538	79.05	12.418768	-56.733513	79.15	-0.110	0.980	0.480	79.13	-0.40	0.90	 	 	 	 	 	 	 	 	 	 	 	 	 	 	 	 	 	 	1581534938	0.86	1.59
12/02/2020 19:15:39	120220	12022020	191539	79.45	12.418772	-56.733515	79.53	-0.290	0.950	-0.250	79.51	-0.50	0.20	 	 	 	 	 	 	 	 	 	 	 	 	 	 	 	 	 	 	1581534939	0.75	1.39
12/02/2020 19:15:40	120220	12022020	191540	79.67	12.418773	-56.733515	79.69	-0.440	0.540	-0.700	79.67	-0.90	-0.30	 	 	 	 	 	 	 	 	 	 	 	 	 	 	 	 	 	 	1581534940	0.51	0.94
12/02/2020 19:15:41	120220	12022020	191541	79.60	12.418775	-56.733515	79.60	-0.480	-0.040	-0.800	79.57	-1.40	-0.40	 	 	 	 	 	 	 	 	 	 	 	 	 	 	 	 	 	 	1581534941	0.21	0.39
12/02/2020 19:15:42	120220	12022020	191542	79.45	12.418775	-56.733515	79.45	-0.300	-0.690	-0.610	79.42	-2.10	-0.20	 	 	 	 	 	 	 	 	 	 	 	 	 	 	 	 	 	 	1581534942	0.16	0.30
12/02/2020 19:15:43	120220	12022020	191543	79.34	12.418773	-56.733513	79.35	0.130	-1.330	-0.150	79.32	-2.70	0.20	 	 	 	 	 	 	 	 	 	 	 	 	 	 	 	 	 	 	1581534943	0.52	0.96
12/02/2020 19:15:44	120220	12022020	191544	79.20	12.418770	-56.733510	79.22	0.610	-1.710	0.590	79.17	-3.10	1.00	 	 	 	 	 	 	 	 	 	 	 	 	 	 	 	 	 	 	1581534944	0.83	1.54
12/02/2020 19:15:45	120220	12022020	191545	79.13	12.418768	-56.733508	79.19	0.790	-1.440	1.160	79.15	-2.90	1.60	 	 	 	 	 	 	 	 	 	 	 	 	 	 	 	 	 	 	1581534945	0.61	1.13
12/02/2020 19:15:46	120220	12022020	191546	79.29	12.418768	-56.733510	79.37	0.520	-0.410	1.220	79.33	-1.90	1.60	 	 	 	 	 	 	 	 	 	 	 	 	 	 	 	 	 	 	1581534946	0.36	0.67
12/02/2020 19:15:47	120220	12022020	191547	79.50	12.418768	-56.733515	79.57	-0.010	1.000	1.120	79.53	-0.50	1.50	 	 	 	 	 	 	 	 	 	 	 	 	 	 	 	 	 	 	1581534947	1.07	1.98
12/02/2020 19:15:48	120220	12022020	191548	79.56	12.418767	-56.733520	79.62	-0.530	1.930	1.230	79.56	0.50	1.60	 	 	 	 	 	 	 	 	 	 	 	 	 	 	 	 	 	 	1581534948	1.17	2.17
12/02/2020 19:15:49	120220	12022020	191549	79.56	12.418765	-56.733522	79.63	-0.790	1.640	1.350	79.57	0.30	1.80	 	 	 	 	 	 	 	 	 	 	 	 	 	 	 	 	 	 	1581534949	0.56	1.04
12/02/2020 19:15:50	120220	12022020	191550	79.68	12.418765	-56.733518	79.78	-0.660	0.110	1.140	79.73	-1.20	1.60	 	 	 	 	 	 	 	 	 	 	 	 	 	 	 	 	 	 	1581534950	0.71	1.31
12/02/2020 19:15:51	120220	12022020	191551	79.91	12.418767	-56.733512	79.99	-0.170	-1.680	0.700	79.94	-3.00	1.10	 	 	 	 	 	 	 	 	 	 	 	 	 	 	 	 	 	 	1581534951	1.45	2.69
12/02/2020 19:15:52	120220	12022020	191552	79.97	12.418768	-56.733507	80.00	0.390	-2.390	0.440	79.96	-3.80	0.90	 	 	 	 	 	 	 	 	 	 	 	 	 	 	 	 	 	 	1581534952	1.12	2.07
12/02/2020 19:15:53	120220	12022020	191553	79.85	12.418770	-56.733508	79.86	0.610	-1.560	0.330	79.82	-3.00	0.80	 	 	 	 	 	 	 	 	 	 	 	 	 	 	 	 	 	 	1581534953	0.46	0.85
12/02/2020 19:15:54	120220	12022020	191554	79.65	12.418770	-56.733515	79.64	0.420	-0.060	0.280	79.60	-1.50	0.70	 	 	 	 	 	 	 	 	 	 	 	 	 	 	 	 	 	 	1581534954	1.35	2.50
12/02/2020 19:15:55	120220	12022020	191555	79.40	12.418772	-56.733520	79.38	0.080	0.890	0.320	79.35	-0.60	0.70	 	 	 	 	 	 	 	 	 	 	 	 	 	 	 	 	 	 	1581534955	1.12	2.07
12/02/2020 19:15:56	120220	12022020	191556	79.28	12.418773	-56.733522	79.31	-0.060	0.830	0.300	79.29	-0.60	0.70	 	 	 	 	 	 	 	 	 	 	 	 	 	 	 	 	 	 	1581534956	0.32	0.59
12/02/2020 19:15:57	120220	12022020	191557	79.45	12.418775	-56.733518	79.51	-0.000	0.300	0.160	79.51	-1.10	0.60	 	 	 	 	 	 	 	 	 	 	 	 	 	 	 	 	 	 	1581534957	0.73	1.35
12/02/2020 19:15:58	120220	12022020	191558	79.76	12.418777	-56.733517	79.81	0.070	-0.170	0.040	79.82	-1.60	0.50	 	 	 	 	 	 	 	 	 	 	 	 	 	 	 	 	 	 	1581534958	0.62	1.15
12/02/2020 19:15:59	120220	12022020	191559	79.94	12.418777	-56.733515	79.95	0.000	-0.410	0.180	79.94	-1.80	0.60	 	 	 	 	 	 	 	 	 	 	 	 	 	 	 	 	 	 	1581534959	0.29	0.54
12/02/2020 19:16:00	120220	12022020	191600	79.77	12.418773	-56.733515	79.73	-0.150	-0.520	0.690	79.71	-1.90	1.10	 	 	 	 	 	 	 	 	 	 	 	 	 	 	 	 	 	 	1581534960	0.60	1.11
12/02/2020 19:16:01	120220	12022020	191601	79.36	12.418772	-56.733513	79.31	-0.190	-0.610	1.350	79.28	-2.00	1.70	 	 	 	 	 	 	 	 	 	 	 	 	 	 	 	 	 	 	1581534961	0.69	1.28
12/02/2020 19:16:02	120220	12022020	191602	79.06	12.418770	-56.733512	79.07	-0.140	-0.480	1.720	79.04	-1.90	2.10	1014.50	26.60	26.60	19.90	19.90	229.0	66.0	66.0	437.0	27.3	355.00	10.10	75.00	9.60	20678	11209.0	27.4	27.4	1581534962	0.39	0.72
12/02/2020 19:16:03	120220	12022020	191603	79.07	12.418770	-56.733513	79.12	-0.200	0.060	1.580	79.11	-1.40	2.00	 	 	 	 	 	 	 	 	 	 	 	 	 	 	 	 	 	 	1581534963	0.31	0.57
12/02/2020 19:16:04	120220	12022020	191604	79.33	12.418772	-56.733517	79.43	-0.340	0.600	1.040	79.41	-0.80	1.50	 	 	 	 	 	 	 	 	 	 	 	 	 	 	 	 	 	 	1581534964	0.83	1.54
12/02/2020 19:16:05	120220	12022020	191605	79.67	12.418773	-56.733518	79.74	-0.300	0.460	0.380	79.73	-0.90	0.80	 	 	 	 	 	 	 	 	 	 	 	 	 	 	 	 	 	 	1581534965	0.57	1.06
12/02/2020 19:16:06	120220	12022020	191606	79.83	12.418775	-56.733517	79.83	0.050	-0.480	-0.090	79.82	-1.90	0.30	 	 	 	 	 	 	 	 	 	 	 	 	 	 	 	 	 	 	1581534966	0.65	1.20
12/02/2020 19:16:07	120220	12022020	191607	79.66	12.418775	-56.733510	79.60	0.530	-1.530	-0.220	79.59	-2.90	0.20	 	 	 	 	 	 	 	 	 	 	 	 	 	 	 	 	 	 	1581534967	1.32	2.44
12/02/2020 19:16:08	120220	12022020	191608	79.27	12.418778	-56.733505	79.20	0.810	-1.660	-0.150	79.18	-3.10	0.30	 	 	 	 	 	 	 	 	 	 	 	 	 	 	 	 	 	 	1581534968	1.02	1.89
12/02/2020 19:16:09	120220	12022020	191609	78.90	12.418780	-56.733507	78.87	0.670	-0.500	0.010	78.84	-2.00	0.40	 	 	 	 	 	 	 	 	 	 	 	 	 	 	 	 	 	 	1581534969	0.53	0.98
12/02/2020 19:16:10	120220	12022020	191610	78.78	12.418780	-56.733513	78.85	0.180	1.030	0.120	78.82	-0.40	0.50	 	 	 	 	 	 	 	 	 	 	 	 	 	 	 	 	 	 	1581534970	1.31	2.43
12/02/2020 19:16:11	120220	12022020	191611	79.15	12.418782	-56.733518	79.27	-0.470	1.690	0.010	79.26	0.30	0.40	 	 	 	 	 	 	 	 	 	 	 	 	 	 	 	 	 	 	1581534971	1.02	1.89
12/02/2020 19:16:12	120220	12022020	191612	79.75	12.418782	-56.733518	79.86	-1.000	1.220	-0.100	79.85	-0.10	0.30	 	 	 	 	 	 	 	 	 	 	 	 	 	 	 	 	 	 	1581534972	0.11	0.20
12/02/2020 19:16:13	120220	12022020	191613	80.11	12.418780	-56.733515	80.13	-1.110	0.040	0.050	80.13	-1.30	0.40	 	 	 	 	 	 	 	 	 	 	 	 	 	 	 	 	 	 	1581534973	0.78	1.44
12/02/2020 19:16:14	120220	12022020	191614	80.03	12.418775	-56.733510	79.99	-0.670	-1.230	0.630	79.97	-2.60	1.00	 	 	 	 	 	 	 	 	 	 	 	 	 	 	 	 	 	 	1581534974	1.39	2.57
12/02/2020 19:16:15	120220	12022020	191615	79.68	12.418770	-56.733505	79.65	0.230	-2.060	1.360	79.60	-3.40	1.70	 	 	 	 	 	 	 	 	 	 	 	 	 	 	 	 	 	 	1581534975	1.52	2.82
12/02/2020 19:16:16	120220	12022020	191616	79.33	12.418768	-56.733500	79.31	1.150	-2.110	1.810	79.27	-3.50	2.20	 	 	 	 	 	 	 	 	 	 	 	 	 	 	 	 	 	 	1581534976	0.96	1.78
12/02/2020 19:16:17	120220	12022020	191617	79.13	12.418768	-56.733500	79.15	1.450	-1.090	1.730	79.12	-2.50	2.20	 	 	 	 	 	 	 	 	 	 	 	 	 	 	 	 	 	 	1581534977	0.21	0.39
12/02/2020 19:16:18	120220	12022020	191618	79.19	12.418772	-56.733507	79.25	0.800	0.690	1.140	79.23	-0.80	1.60	 	 	 	 	 	 	 	 	 	 	 	 	 	 	 	 	 	 	1581534978	1.34	2.48
12/02/2020 19:16:19	120220	12022020	191619	79.44	12.418775	-56.733515	79.52	-0.430	2.210	0.360	79.51	0.80	0.80	 	 	 	 	 	 	 	 	 	 	 	 	 	 	 	 	 	 	1581534979	1.87	3.46
12/02/2020 19:16:20	120220	12022020	191620	79.75	12.418778	-56.733520	79.81	-1.490	2.340	-0.300	79.81	1.00	0.10	 	 	 	 	 	 	 	 	 	 	 	 	 	 	 	 	 	 	1581534980	1.21	2.24
12/02/2020 19:16:21	120220	12022020	191621	79.95	12.418778	-56.733518	80.02	-1.640	0.890	-0.560	79.99	-0.40	-0.10	 	 	 	 	 	 	 	 	 	 	 	 	 	 	 	 	 	 	1581534981	0.37	0.69
12/02/2020 19:16:22	120220	12022020	191622	80.11	12.418778	-56.733512	80.12	-0.700	-1.370	-0.540	80.11	-2.70	-0.10	 	 	 	 	 	 	 	 	 	 	 	 	 	 	 	 	 	 	1581534982	1.52	2.82
12/02/2020 19:16:23	120220	12022020	191623	80.05	12.418777	-56.733502	79.98	0.670	-3.060	-0.280	80.01	-4.40	0.10	 	 	 	 	 	 	 	 	 	 	 	 	 	 	 	 	 	 	1581534983	1.90	3.52
12/02/2020 19:16:24	120220	12022020	191624	79.69	12.418775	-56.733498	79.64	1.460	-2.900	0.180	79.62	-4.30	0.60	 	 	 	 	 	 	 	 	 	 	 	 	 	 	 	 	 	 	1581534984	1.00	1.85
12/02/2020 19:16:25	120220	12022020	191625	79.31	12.418773	-56.733502	79.28	1.090	-0.850	0.720	79.24	-2.40	1.10	 	 	 	 	 	 	 	 	 	 	 	 	 	 	 	 	 	 	1581534985	1.07	1.98
12/02/2020 19:16:26	120220	12022020	191626	79.01	12.418770	-56.733513	79.04	0.020	1.540	1.220	78.98	0.10	1.60	 	 	 	 	 	 	 	 	 	 	 	 	 	 	 	 	 	 	1581534986	2.24	4.15
12/02/2020 19:16:27	120220	12022020	191627	79.01	12.418770	-56.733520	79.11	-0.790	2.540	1.260	79.06	1.10	1.70	 	 	 	 	 	 	 	 	 	 	 	 	 	 	 	 	 	 	1581534987	1.66	3.07
12/02/2020 19:16:28	120220	12022020	191628	79.36	12.418772	-56.733520	79.49	-0.760	1.630	0.760	79.45	0.30	1.20	 	 	 	 	 	 	 	 	 	 	 	 	 	 	 	 	 	 	1581534988	0.52	0.96
12/02/2020 19:16:29	120220	12022020	191629	79.74	12.418777	-56.733515	79.82	-0.100	-0.210	0.250	79.80	-1.60	0.70	 	 	 	 	 	 	 	 	 	 	 	 	 	 	 	 	 	 	1581534989	1.45	2.69
12/02/2020 19:16:30	120220	12022020	191630	79.92	12.418778	-56.733510	79.96	0.500	-1.650	0.170	79.93	-3.00	0.60	 	 	 	 	 	 	 	 	 	 	 	 	 	 	 	 	 	 	1581534990	1.37	2.54
12/02/2020 19:16:31	120220	12022020	191631	79.86	12.418777	-56.733507	79.86	0.530	-1.870	0.590	79.82	-3.30	1.00	 	 	 	 	 	 	 	 	 	 	 	 	 	 	 	 	 	 	1581534991	0.65	1.20
12/02/2020 19:16:32	120220	12022020	191632	79.59	12.418772	-56.733508	79.56	0.040	-1.050	1.220	79.51	-2.50	1.60	 	 	 	 	 	 	 	 	 	 	 	 	 	 	 	 	 	 	1581534992	1.25	2.31
12/02/2020 19:16:33	120220	12022020	191633	79.23	12.418767	-56.733513	79.21	-0.470	-0.100	1.580	79.16	-1.50	2.00	 	 	 	 	 	 	 	 	 	 	 	 	 	 	 	 	 	 	1581534993	1.33	2.46
12/02/2020 19:16:34	120220	12022020	191634	78.92	12.418765	-56.733517	78.92	-0.500	0.350	1.530	78.87	-1.00	1.90	 	 	 	 	 	 	 	 	 	 	 	 	 	 	 	 	 	 	1581534994	0.62	1.15
12/02/2020 19:16:35	120220	12022020	191635	78.74	12.418767	-56.733517	78.77	-0.040	0.290	1.180	78.72	-1.10	1.60	 	 	 	 	 	 	 	 	 	 	 	 	 	 	 	 	 	 	1581534995	0.40	0.74
12/02/2020 19:16:36	120220	12022020	191636	78.74	12.418772	-56.733515	78.79	0.440	0.080	0.540	78.76	-1.30	1.00	 	 	 	 	 	 	 	 	 	 	 	 	 	 	 	 	 	 	1581534996	0.90	1.67
12/02/2020 19:16:37	120220	12022020	191637	78.89	12.418777	-56.733515	78.94	0.540	0.010	-0.230	78.92	-1.40	0.20	 	 	 	 	 	 	 	 	 	 	 	 	 	 	 	 	 	 	1581534997	1.05	1.94
12/02/2020 19:16:38	120220	12022020	191638	79.06	12.418780	-56.733517	79.09	0.290	0.060	-0.810	79.09	-1.30	-0.40	 	 	 	 	 	 	 	 	 	 	 	 	 	 	 	 	 	 	1581534998	0.90	1.67
12/02/2020 19:16:39	120220	12022020	191639	79.17	12.418782	-56.733518	79.18	0.080	-0.110	-0.950	79.18	-1.50	-0.50	 	 	 	 	 	 	 	 	 	 	 	 	 	 	 	 	 	 	1581534999	0.55	1.02
12/02/2020 19:16:40	120220	12022020	191640	79.20	12.418783	-56.733517	79.22	0.090	-0.590	-0.650	79.20	-2.00	-0.30	 	 	 	 	 	 	 	 	 	 	 	 	 	 	 	 	 	 	1581535000	0.32	0.59
12/02/2020 19:16:41	120220	12022020	191641	79.19	12.418783	-56.733515	79.23	0.140	-0.920	-0.030	79.19	-2.30	0.40	 	 	 	 	 	 	 	 	 	 	 	 	 	 	 	 	 	 	1581535001	0.56	1.04
12/02/2020 19:16:42	120220	12022020	191642	79.21	12.418780	-56.733513	79.26	-0.070	-0.490	0.850	79.21	-1.90	1.20	 	 	 	 	 	 	 	 	 	 	 	 	 	 	 	 	 	 	1581535002	0.73	1.35
12/02/2020 19:16:43	120220	12022020	191643	79.22	12.418772	-56.733518	79.29	-0.500	0.570	1.900	79.22	-0.90	2.30	 	 	 	 	 	 	 	 	 	 	 	 	 	 	 	 	 	 	1581535003	1.71	3.17
12/02/2020 19:16:44	120220	12022020	191644	79.26	12.418763	-56.733522	79.38	-0.800	1.190	2.740	79.29	-0.20	3.10	 	 	 	 	 	 	 	 	 	 	 	 	 	 	 	 	 	 	1581535004	2.00	3.70
12/02/2020 19:16:45	120220	12022020	191645	79.53	12.418760	-56.733522	79.68	-0.580	0.470	2.870	79.59	-0.90	3.30	 	 	 	 	 	 	 	 	 	 	 	 	 	 	 	 	 	 	1581535005	1.05	1.94
12/02/2020 19:16:46	120220	12022020	191646	79.79	12.418760	-56.733517	79.87	0.110	-1.080	2.500	79.81	-2.40	2.90	 	 	 	 	 	 	 	 	 	 	 	 	 	 	 	 	 	 	1581535006	1.13	2.09
12/02/2020 19:16:47	120220	12022020	191647	79.67	12.418762	-56.733510	79.65	0.870	-2.100	2.010	79.59	-3.50	2.40	 	 	 	 	 	 	 	 	 	 	 	 	 	 	 	 	 	 	1581535007	1.45	2.69
12/02/2020 19:16:48	120220	12022020	191648	79.22	12.418767	-56.733508	79.18	1.210	-1.770	1.440	79.15	-3.20	1.90	 	 	 	 	 	 	 	 	 	 	 	 	 	 	 	 	 	 	1581535008	1.05	1.94
12/02/2020 19:16:49	120220	12022020	191649	78.97	12.418773	-56.733513	78.97	0.950	-0.450	0.540	78.98	-1.90	1.00	 	 	 	 	 	 	 	 	 	 	 	 	 	 	 	 	 	 	1581535009	1.64	3.04
12/02/2020 19:16:50	120220	12022020	191650	79.20	12.418782	-56.733518	79.25	0.260	0.950	-0.540	79.28	-0.50	-0.10	 	 	 	 	 	 	 	 	 	 	 	 	 	 	 	 	 	 	1581535010	2.09	3.87
12/02/2020 19:16:51	120220	12022020	191651	79.66	12.418787	-56.733523	79.69	-0.520	1.760	-1.260	79.74	0.30	-0.80	 	 	 	 	 	 	 	 	 	 	 	 	 	 	 	 	 	 	1581535011	1.63	3.02
12/02/2020 19:16:52	120220	12022020	191652	79.95	12.418788	-56.733527	79.93	-1.030	1.670	-1.140	79.97	0.30	-0.80	 	 	 	 	 	 	 	 	 	 	 	 	 	 	 	 	 	 	1581535012	0.47	0.87
12/02/2020 19:16:53	120220	12022020	191653	80.00	12.418785	-56.733525	79.98	-1.010	0.640	-0.560	80.00	-0.70	-0.20	 	 	 	 	 	 	 	 	 	 	 	 	 	 	 	 	 	 	1581535013	0.76	1.41
12/02/2020 19:16:54	120220	12022020	191654	80.01	12.418780	-56.733520	80.00	-0.440	-0.910	0.110	80.01	-2.20	0.50	 	 	 	 	 	 	 	 	 	 	 	 	 	 	 	 	 	 	1581535014	1.32	2.44
12/02/2020 19:16:55	120220	12022020	191655	79.94	12.418777	-56.733513	79.93	0.300	-2.090	1.040	79.90	-3.40	1.40	 	 	 	 	 	 	 	 	 	 	 	 	 	 	 	 	 	 	1581535015	1.66	3.07
12/02/2020 19:16:56	120220	12022020	191656	79.68	12.418770	-56.733510	79.67	0.680	-2.170	2.200	79.62	-3.60	2.50	 	 	 	 	 	 	 	 	 	 	 	 	 	 	 	 	 	 	1581535016	1.64	3.04
12/02/2020 19:16:57	120220	12022020	191657	79.45	12.418763	-56.733510	79.39	0.520	-1.110	2.870	79.40	-2.50	3.20	 	 	 	 	 	 	 	 	 	 	 	 	 	 	 	 	 	 	1581535017	1.23	2.28
12/02/2020 19:16:58	120220	12022020	191658	79.20	12.418763	-56.733515	79.22	0.110	0.270	2.640	79.17	-1.20	3.10	 	 	 	 	 	 	 	 	 	 	 	 	 	 	 	 	 	 	1581535018	1.03	1.91
12/02/2020 19:16:59	120220	12022020	191659	79.08	12.418767	-56.733520	79.08	-0.150	1.070	1.850	79.06	-0.30	2.30	 	 	 	 	 	 	 	 	 	 	 	 	 	 	 	 	 	 	1581535019	1.31	2.43
12/02/2020 19:17:00	120220	12022020	191700	79.05	12.418773	-56.733520	79.12	-0.100	0.890	0.750	79.09	-0.50	1.20	 	 	 	 	 	 	 	 	 	 	 	 	 	 	 	 	 	 	1581535020	1.40	2.59
12/02/2020 19:17:01	120220	12022020	191701	79.34	12.418782	-56.733518	79.41	0.140	0.110	-0.570	79.42	-1.30	-0.10	 	 	 	 	 	 	 	 	 	 	 	 	 	 	 	 	 	 	1581535021	1.69	3.13
12/02/2020 19:17:02	120220	12022020	191702	79.66	12.418788	-56.733517	79.66	0.320	-0.550	-1.640	79.68	-1.90	-1.20	1014.50	26.50	26.50	20.10	20.10	241.0	68.0	68.0	436.0	27.3	353.00	10.80	73.00	10.30	21714	11659.0	27.4	27.4	1581535022	1.74	3.22
12/02/2020 19:17:03	120220	12022020	191703	79.65	12.418795	-56.733515	79.60	0.250	-0.560	-1.970	79.62	-2.00	-1.60	 	 	 	 	 	 	 	 	 	 	 	 	 	 	 	 	 	 	1581535023	1.12	2.07
12/02/2020 19:17:04	120220	12022020	191704	79.48	12.418795	-56.733518	79.42	-0.110	-0.050	-1.610	79.44	-1.50	-1.20	 	 	 	 	 	 	 	 	 	 	 	 	 	 	 	 	 	 	1581535024	0.57	1.06
12/02/2020 19:17:05	120220	12022020	191705	79.39	12.418792	-56.733522	79.39	-0.540	0.300	-0.740	79.39	-1.10	-0.40	 	 	 	 	 	 	 	 	 	 	 	 	 	 	 	 	 	 	1581535025	1.05	1.94
12/02/2020 19:17:06	120220	12022020	191706	79.44	12.418783	-56.733520	79.48	-0.680	0.020	0.430	79.46	-1.40	0.80	 	 	 	 	 	 	 	 	 	 	 	 	 	 	 	 	 	 	1581535026	1.65	3.06
12/02/2020 19:17:07	120220	12022020	191707	79.47	12.418775	-56.733517	79.51	-0.400	-0.610	1.630	79.46	-2.00	2.00	 	 	 	 	 	 	 	 	 	 	 	 	 	 	 	 	 	 	1581535027	1.88	3.48
12/02/2020 19:17:08	120220	12022020	191708	79.32	12.418770	-56.733515	79.35	0.150	-1.050	2.610	79.28	-2.40	3.00	 	 	 	 	 	 	 	 	 	 	 	 	 	 	 	 	 	 	1581535028	1.30	2.41
12/02/2020 19:17:09	120220	12022020	191709	79.14	12.418768	-56.733513	79.19	0.590	-1.020	3.130	79.11	-2.40	3.50	 	 	 	 	 	 	 	 	 	 	 	 	 	 	 	 	 	 	1581535029	0.41	0.76
12/02/2020 19:17:10	120220	12022020	191710	79.13	12.418770	-56.733513	79.24	0.670	-0.560	3.150	79.15	-2.00	3.60	 	 	 	 	 	 	 	 	 	 	 	 	 	 	 	 	 	 	1581535030	0.19	0.35
12/02/2020 19:17:11	120220	12022020	191711	79.23	12.418770	-56.733515	79.36	0.410	0.120	2.820	79.26	-1.30	3.20	 	 	 	 	 	 	 	 	 	 	 	 	 	 	 	 	 	 	1581535031	0.44	0.81
12/02/2020 19:17:12	120220	12022020	191712	79.28	12.418772	-56.733518	79.34	-0.030	0.680	2.320	79.27	-0.70	2.70	 	 	 	 	 	 	 	 	 	 	 	 	 	 	 	 	 	 	1581535032	0.57	1.06
12/02/2020 19:17:13	120220	12022020	191713	79.22	12.418773	-56.733520	79.26	-0.400	0.740	1.460	79.21	-0.70	1.90	 	 	 	 	 	 	 	 	 	 	 	 	 	 	 	 	 	 	1581535033	0.73	1.35
12/02/2020 19:17:14	120220	12022020	191714	79.27	12.418780	-56.733520	79.33	-0.490	0.310	0.140	79.30	-1.10	0.60	 	 	 	 	 	 	 	 	 	 	 	 	 	 	 	 	 	 	1581535034	1.44	2.67
12/02/2020 19:17:15	120220	12022020	191715	79.46	12.418788	-56.733522	79.47	-0.330	-0.230	-1.230	79.49	-1.60	-0.80	 	 	 	 	 	 	 	 	 	 	 	 	 	 	 	 	 	 	1581535035	1.86	3.44
12/02/2020 19:17:16	120220	12022020	191716	79.48	12.418795	-56.733522	79.41	-0.100	-0.580	-1.950	79.43	-2.00	-1.50	 	 	 	 	 	 	 	 	 	 	 	 	 	 	 	 	 	 	1581535036	1.41	2.61
12/02/2020 19:17:17	120220	12022020	191717	79.16	12.418798	-56.733523	79.08	0.040	-0.670	-1.860	79.09	-2.10	-1.50	 	 	 	 	 	 	 	 	 	 	 	 	 	 	 	 	 	 	1581535037	0.52	0.96
12/02/2020 19:17:18	120220	12022020	191718	78.93	12.418797	-56.733523	78.93	0.050	-0.630	-1.420	78.93	-2.00	-1.00	 	 	 	 	 	 	 	 	 	 	 	 	 	 	 	 	 	 	1581535038	0.28	0.52
12/02/2020 19:17:19	120220	12022020	191719	79.15	12.418795	-56.733523	79.23	0.090	-0.660	-0.900	79.23	-2.10	-0.50	 	 	 	 	 	 	 	 	 	 	 	 	 	 	 	 	 	 	1581535039	0.41	0.76
12/02/2020 19:17:20	120220	12022020	191720	79.59	12.418792	-56.733522	79.69	0.240	-0.690	-0.190	79.67	-2.10	0.20	 	 	 	 	 	 	 	 	 	 	 	 	 	 	 	 	 	 	1581535040	0.77	1.43
12/02/2020 19:17:21	120220	12022020	191721	79.85	12.418787	-56.733520	79.89	0.430	-0.490	0.830	79.84	-1.90	1.20	 	 	 	 	 	 	 	 	 	 	 	 	 	 	 	 	 	 	1581535041	1.25	2.31
12/02/2020 19:17:22	120220	12022020	191722	79.58	12.418780	-56.733520	79.55	0.440	0.060	2.180	79.46	-1.40	2.50	 	 	 	 	 	 	 	 	 	 	 	 	 	 	 	 	 	 	1581535042	1.50	2.78
12/02/2020 19:17:23	120220	12022020	191723	79.04	12.418773	-56.733520	79.05	0.160	0.650	3.290	78.96	-0.80	3.60	 	 	 	 	 	 	 	 	 	 	 	 	 	 	 	 	 	 	1581535043	1.19	2.20
12/02/2020 19:17:24	120220	12022020	191724	78.89	12.418773	-56.733522	79.02	-0.300	0.830	3.480	78.92	-0.60	3.90	 	 	 	 	 	 	 	 	 	 	 	 	 	 	 	 	 	 	1581535044	0.35	0.65
12/02/2020 19:17:25	120220	12022020	191725	79.20	12.418777	-56.733523	79.35	-0.670	0.600	2.710	79.27	-0.80	3.10	 	 	 	 	 	 	 	 	 	 	 	 	 	 	 	 	 	 	1581535045	0.91	1.69
12/02/2020 19:17:26	120220	12022020	191726	79.53	12.418783	-56.733523	79.62	-0.760	0.120	1.650	79.57	-1.30	2.10	 	 	 	 	 	 	 	 	 	 	 	 	 	 	 	 	 	 	1581535046	1.29	2.39
12/02/2020 19:17:27	120220	12022020	191727	79.71	12.418787	-56.733523	79.76	-0.590	-0.390	0.640	79.74	-1.80	1.10	 	 	 	 	 	 	 	 	 	 	 	 	 	 	 	 	 	 	1581535047	1.02	1.89
12/02/2020 19:17:28	120220	12022020	191728	79.94	12.418792	-56.733523	79.99	-0.240	-0.860	-0.310	80.00	-2.20	0.10	 	 	 	 	 	 	 	 	 	 	 	 	 	 	 	 	 	 	1581535048	0.79	1.46
12/02/2020 19:17:29	120220	12022020	191729	80.18	12.418795	-56.733523	80.20	0.260	-1.310	-1.000	80.20	-2.70	-0.60	 	 	 	 	 	 	 	 	 	 	 	 	 	 	 	 	 	 	1581535049	0.73	1.35
12/02/2020 19:17:30	120220	12022020	191730	80.10	12.418797	-56.733520	80.03	0.800	-1.530	-1.190	80.03	-2.90	-0.80	 	 	 	 	 	 	 	 	 	 	 	 	 	 	 	 	 	 	1581535050	0.80	1.48
12/02/2020 19:17:31	120220	12022020	191731	79.72	12.418798	-56.733518	79.66	1.110	-1.180	-0.860	79.65	-2.60	-0.50	 	 	 	 	 	 	 	 	 	 	 	 	 	 	 	 	 	 	1581535051	0.55	1.02
12/02/2020 19:17:32	120220	12022020	191732	79.49	12.418798	-56.733518	79.51	0.950	-0.290	-0.320	79.49	-1.70	0.10	 	 	 	 	 	 	 	 	 	 	 	 	 	 	 	 	 	 	1581535052	0.15	0.28
12/02/2020 19:17:33	120220	12022020	191733	79.63	12.418797	-56.733518	79.71	0.220	0.860	0.180	79.68	-0.60	0.60	 	 	 	 	 	 	 	 	 	 	 	 	 	 	 	 	 	 	1581535053	0.39	0.72
12/02/2020 19:17:34	120220	12022020	191734	79.96	12.418795	-56.733522	80.06	-0.800	1.850	0.510	80.03	0.40	0.90	 	 	 	 	 	 	 	 	 	 	 	 	 	 	 	 	 	 	1581535054	0.74	1.37
12/02/2020 19:17:35	120220	12022020	191735	80.26	12.418795	-56.733525	80.35	-1.500	2.170	0.820	80.31	0.80	1.20	 	 	 	 	 	 	 	 	 	 	 	 	 	 	 	 	 	 	1581535055	0.77	1.43
12/02/2020 19:17:36	120220	12022020	191736	80.44	12.418793	-56.733527	80.53	-1.460	1.380	1.270	80.46	0.00	1.60	 	 	 	 	 	 	 	 	 	 	 	 	 	 	 	 	 	 	1581535056	0.27	0.50
12/02/2020 19:17:37	120220	12022020	191737	80.51	12.418793	-56.733523	80.59	-0.710	-0.450	1.830	80.52	-1.80	2.20	 	 	 	 	 	 	 	 	 	 	 	 	 	 	 	 	 	 	1581535057	0.90	1.67
12/02/2020 19:17:38	120220	12022020	191738	80.61	12.418792	-56.733515	80.71	0.290	-2.440	2.160	80.64	-3.70	2.50	 	 	 	 	 	 	 	 	 	 	 	 	 	 	 	 	 	 	1581535058	1.70	3.15
12/02/2020 19:17:39	120220	12022020	191739	80.77	12.418788	-56.733507	80.84	1.050	-3.410	2.330	80.78	-4.80	2.70	 	 	 	 	 	 	 	 	 	 	 	 	 	 	 	 	 	 	1581535059	1.69	3.13
12/02/2020 19:17:40	120220	12022020	191740	80.71	12.418787	-56.733503	80.73	1.270	-2.730	2.500	80.67	-4.20	2.90	 	 	 	 	 	 	 	 	 	 	 	 	 	 	 	 	 	 	1581535060	0.89	1.65
12/02/2020 19:17:41	120220	12022020	191741	80.43	12.418785	-56.733505	80.40	1.050	-0.880	2.310	80.36	-2.40	2.70	 	 	 	 	 	 	 	 	 	 	 	 	 	 	 	 	 	 	1581535061	0.42	0.78
12/02/2020 19:17:42	120220	12022020	191742	80.12	12.418790	-56.733510	80.10	0.550	1.130	1.490	80.07	-0.40	1.90	 	 	 	 	 	 	 	 	 	 	 	 	 	 	 	 	 	 	1581535062	1.33	2.46
12/02/2020 19:17:43	120220	12022020	191743	79.94	12.418798	-56.733515	79.92	-0.170	2.430	0.170	79.93	1.00	0.60	 	 	 	 	 	 	 	 	 	 	 	 	 	 	 	 	 	 	1581535063	2.09	3.87
12/02/2020 19:17:44	120220	12022020	191744	79.98	12.418810	-56.733518	79.96	-0.910	2.750	-1.270	80.01	1.30	-0.80	 	 	 	 	 	 	 	 	 	 	 	 	 	 	 	 	 	 	1581535064	2.45	4.54
12/02/2020 19:17:45	120220	12022020	191745	80.27	12.418820	-56.733518	80.28	-1.340	1.980	-2.460	80.35	0.60	-2.00	 	 	 	 	 	 	 	 	 	 	 	 	 	 	 	 	 	 	1581535065	2.15	3.98
12/02/2020 19:17:46	120220	12022020	191746	80.75	12.418825	-56.733515	80.77	-1.190	0.090	-3.150	80.85	-1.20	-2.70	 	 	 	 	 	 	 	 	 	 	 	 	 	 	 	 	 	 	1581535066	1.60	2.96
12/02/2020 19:17:47	120220	12022020	191747	81.19	12.418827	-56.733507	81.19	-0.460	-2.130	-3.100	81.25	-3.40	-2.70	 	 	 	 	 	 	 	 	 	 	 	 	 	 	 	 	 	 	1581535067	1.74	3.22
12/02/2020 19:17:48	120220	12022020	191748	81.29	12.418823	-56.733498	81.24	0.450	-3.410	-2.120	81.26	-4.80	-1.80	 	 	 	 	 	 	 	 	 	 	 	 	 	 	 	 	 	 	1581535068	1.97	3.65
12/02/2020 19:17:49	120220	12022020	191749	81.09	12.418817	-56.733493	80.98	1.020	-3.000	-0.440	81.02	-4.40	-0.10	 	 	 	 	 	 	 	 	 	 	 	 	 	 	 	 	 	 	1581535069	1.94	3.59
12/02/2020 19:17:50	120220	12022020	191750	80.70	12.418807	-56.733493	80.69	0.950	-1.270	1.420	80.65	-2.70	1.70	 	 	 	 	 	 	 	 	 	 	 	 	 	 	 	 	 	 	1581535070	2.11	3.91
12/02/2020 19:17:51	120220	12022020	191751	80.49	12.418797	-56.733495	80.54	0.450	0.710	2.830	80.47	-0.80	3.20	 	 	 	 	 	 	 	 	 	 	 	 	 	 	 	 	 	 	1581535071	2.03	3.76
12/02/2020 19:17:52	120220	12022020	191752	80.35	12.418792	-56.733497	80.39	-0.100	2.010	3.450	80.32	0.60	3.80	 	 	 	 	 	 	 	 	 	 	 	 	 	 	 	 	 	 	1581535072	1.08	2.00
12/02/2020 19:17:53	120220	12022020	191753	80.14	12.418793	-56.733495	80.17	-0.440	2.150	3.180	80.11	0.80	3.60	 	 	 	 	 	 	 	 	 	 	 	 	 	 	 	 	 	 	1581535073	0.43	0.80
12/02/2020 19:17:54	120220	12022020	191754	80.13	12.418802	-56.733492	80.23	-0.460	1.070	2.090	80.18	-0.30	2.50	 	 	 	 	 	 	 	 	 	 	 	 	 	 	 	 	 	 	1581535074	2.01	3.72
12/02/2020 19:17:55	120220	12022020	191755	80.62	12.418815	-56.733485	80.78	-0.190	-0.490	0.500	80.77	-1.80	1.00	 	 	 	 	 	 	 	 	 	 	 	 	 	 	 	 	 	 	1581535075	2.87	5.32
12/02/2020 19:17:56	120220	12022020	191756	81.32	12.418823	-56.733478	81.40	0.130	-1.550	-0.830	81.42	-2.90	-0.40	 	 	 	 	 	 	 	 	 	 	 	 	 	 	 	 	 	 	1581535076	2.43	4.50
12/02/2020 19:17:57	120220	12022020	191757	81.50	12.418828	-56.733475	81.43	0.250	-1.550	-1.330	81.45	-3.00	-0.90	 	 	 	 	 	 	 	 	 	 	 	 	 	 	 	 	 	 	1581535077	1.14	2.11
12/02/2020 19:17:58	120220	12022020	191758	81.09	12.418828	-56.733475	80.97	0.160	-0.800	-1.180	80.98	-2.20	-0.80	 	 	 	 	 	 	 	 	 	 	 	 	 	 	 	 	 	 	1581535078	0.05	0.09
12/02/2020 19:17:59	120220	12022020	191759	80.63	12.418827	-56.733475	80.57	0.000	0.010	-0.800	80.57	-1.40	-0.40	 	 	 	 	 	 	 	 	 	 	 	 	 	 	 	 	 	 	1581535079	0.22	0.41
12/02/2020 19:18:00	120220	12022020	191800	80.47	12.418827	-56.733473	80.45	-0.050	0.280	-0.330	80.46	-1.10	0.00	 	 	 	 	 	 	 	 	 	 	 	 	 	 	 	 	 	 	1581535080	0.41	0.76
12/02/2020 19:18:01	120220	12022020	191801	80.49	12.418827	-56.733468	80.47	-0.020	0.020	0.270	80.50	-1.40	0.60	 	 	 	 	 	 	 	 	 	 	 	 	 	 	 	 	 	 	1581535081	1.12	2.07
12/02/2020 19:18:02	120220	12022020	191802	80.56	12.418825	-56.733462	80.57	-0.050	-0.240	0.770	80.57	-1.60	1.10	1014.50	26.40	26.50	19.70	19.80	254.0	66.0	66.0	435.0	27.3	350.00	11.30	70.00	10.80	22685	12960.0	27.4	27.3	1581535082	1.37	2.54
12/02/2020 19:18:03	120220	12022020	191803	80.63	12.418825	-56.733457	80.68	-0.130	-0.170	1.180	80.66	-1.60	1.50	 	 	 	 	 	 	 	 	 	 	 	 	 	 	 	 	 	 	1581535083	1.03	1.91
12/02/2020 19:18:04	120220	12022020	191804	80.79	12.418825	-56.733453	80.83	-0.040	-0.040	1.470	80.82	-1.40	1.80	 	 	 	 	 	 	 	 	 	 	 	 	 	 	 	 	 	 	1581535084	0.72	1.33
12/02/2020 19:18:05	120220	12022020	191805	80.93	12.418825	-56.733448	80.95	0.340	-0.370	1.690	80.94	-1.70	2.00	 	 	 	 	 	 	 	 	 	 	 	 	 	 	 	 	 	 	1581535085	1.07	1.98
12/02/2020 19:18:06	120220	12022020	191806	80.90	12.418825	-56.733440	80.90	0.780	-0.880	1.970	80.88	-2.20	2.30	 	 	 	 	 	 	 	 	 	 	 	 	 	 	 	 	 	 	1581535086	1.73	3.20
12/02/2020 19:18:07	120220	12022020	191807	80.82	12.418827	-56.733433	80.84	0.740	-0.640	2.030	80.82	-2.10	2.40	 	 	 	 	 	 	 	 	 	 	 	 	 	 	 	 	 	 	1581535087	1.45	2.69
12/02/2020 19:18:08	120220	12022020	191808	80.87	12.418827	-56.733433	80.91	-0.020	0.680	1.730	80.89	-0.80	2.10	 	 	 	 	 	 	 	 	 	 	 	 	 	 	 	 	 	 	1581535088	0.30	0.56
12/02/2020 19:18:09	120220	12022020	191809	81.00	12.418830	-56.733438	81.04	-1.060	2.060	1.100	81.02	0.60	1.50	 	 	 	 	 	 	 	 	 	 	 	 	 	 	 	 	 	 	1581535089	1.22	2.26
12/02/2020 19:18:10	120220	12022020	191810	81.07	12.418833	-56.733442	81.08	-1.510	1.850	0.350	81.07	0.50	0.80	 	 	 	 	 	 	 	 	 	 	 	 	 	 	 	 	 	 	1581535090	1.04	1.93
12/02/2020 19:18:11	120220	12022020	191811	81.02	12.418840	-56.733433	80.99	-0.790	-0.590	-0.390	80.99	-1.90	0.00	 	 	 	 	 	 	 	 	 	 	 	 	 	 	 	 	 	 	1581535091	2.17	4.02
12/02/2020 19:18:12	120220	12022020	191812	80.85	12.418848	-56.733417	80.80	0.570	-3.460	-0.940	80.83	-4.70	-0.50	 	 	 	 	 	 	 	 	 	 	 	 	 	 	 	 	 	 	1581535092	3.87	7.17
12/02/2020 19:18:13	120220	12022020	191813	80.77	12.418853	-56.733403	80.78	1.460	-3.940	-1.030	80.78	-5.30	-0.70	 	 	 	 	 	 	 	 	 	 	 	 	 	 	 	 	 	 	1581535093	2.94	5.44
12/02/2020 19:18:14	120220	12022020	191814	80.94	12.418853	-56.733403	81.01	1.280	-1.510	-0.670	81.01	-3.00	-0.30	 	 	 	 	 	 	 	 	 	 	 	 	 	 	 	 	 	 	1581535094	0.08	0.15
12/02/2020 19:18:15	120220	12022020	191815	81.38	12.418850	-56.733412	81.48	0.410	1.590	-0.250	81.48	0.10	0.10	 	 	 	 	 	 	 	 	 	 	 	 	 	 	 	 	 	 	1581535095	1.85	3.43
12/02/2020 19:18:16	120220	12022020	191816	81.90	12.418848	-56.733417	82.01	-0.400	3.060	0.150	81.99	1.60	0.50	 	 	 	 	 	 	 	 	 	 	 	 	 	 	 	 	 	 	1581535096	1.11	2.06
12/02/2020 19:18:17	120220	12022020	191817	82.26	12.418845	-56.733412	82.34	-0.730	2.360	0.780	82.28	1.00	1.10	 	 	 	 	 	 	 	 	 	 	 	 	 	 	 	 	 	 	1581535097	1.14	2.11
12/02/2020 19:18:18	120220	12022020	191818	82.22	12.418842	-56.733402	82.27	-0.690	0.530	1.770	82.17	-0.80	2.10	 	 	 	 	 	 	 	 	 	 	 	 	 	 	 	 	 	 	1581535098	2.55	4.72
12/02/2020 19:18:19	120220	12022020	191819	81.94	12.418837	-56.733390	81.98	-0.510	-0.960	2.700	81.88	-2.30	3.00	 	 	 	 	 	 	 	 	 	 	 	 	 	 	 	 	 	 	1581535099	2.48	4.59
12/02/2020 19:18:20	120220	12022020	191820	81.73	12.418835	-56.733385	81.81	-0.280	-1.390	3.150	81.71	-2.80	3.50	 	 	 	 	 	 	 	 	 	 	 	 	 	 	 	 	 	 	1581535100	1.23	2.28
12/02/2020 19:18:21	120220	12022020	191821	81.73	12.418837	-56.733383	81.83	0.080	-1.340	3.050	81.76	-2.70	3.40	 	 	 	 	 	 	 	 	 	 	 	 	 	 	 	 	 	 	1581535101	0.49	0.91
12/02/2020 19:18:22	120220	12022020	191822	81.84	12.418840	-56.733378	81.89	0.550	-1.500	2.570	81.84	-2.90	3.00	 	 	 	 	 	 	 	 	 	 	 	 	 	 	 	 	 	 	1581535102	1.16	2.15
12/02/2020 19:18:23	120220	12022020	191823	81.81	12.418845	-56.733372	81.82	0.860	-1.630	1.930	81.79	-3.00	2.40	 	 	 	 	 	 	 	 	 	 	 	 	 	 	 	 	 	 	1581535103	1.89	3.50
12/02/2020 19:18:24	120220	12022020	191824	81.79	12.418852	-56.733367	81.82	0.760	-0.850	1.040	81.82	-2.30	1.50	 	 	 	 	 	 	 	 	 	 	 	 	 	 	 	 	 	 	1581535104	1.79	3.32
12/02/2020 19:18:25	120220	12022020	191825	82.05	12.418858	-56.733367	82.11	0.300	0.750	-0.040	82.12	-0.70	0.40	 	 	 	 	 	 	 	 	 	 	 	 	 	 	 	 	 	 	1581535105	1.29	2.39
12/02/2020 19:18:26	120220	12022020	191826	82.45	12.418863	-56.733368	82.50	-0.220	1.780	-0.960	82.53	0.40	-0.50	 	 	 	 	 	 	 	 	 	 	 	 	 	 	 	 	 	 	1581535106	1.07	1.98
12/02/2020 19:18:27	120220	12022020	191827	82.74	12.418867	-56.733363	82.74	-0.540	1.440	-1.370	82.78	0.10	-1.00	 	 	 	 	 	 	 	 	 	 	 	 	 	 	 	 	 	 	1581535107	1.27	2.35
12/02/2020 19:18:28	120220	12022020	191828	82.84	12.418868	-56.733353	82.81	-0.680	0.420	-1.220	82.85	-0.90	-0.80	 	 	 	 	 	 	 	 	 	 	 	 	 	 	 	 	 	 	1581535108	1.94	3.59
12/02/2020 19:18:29	120220	12022020	191829	82.83	12.418868	-56.733347	82.79	-0.720	-0.220	-0.640	82.82	-1.60	-0.30	 	 	 	 	 	 	 	 	 	 	 	 	 	 	 	 	 	 	1581535109	1.62	3.00
12/02/2020 19:18:30	120220	12022020	191830	82.76	12.418863	-56.733342	82.75	-0.570	-0.410	0.210	82.74	-1.80	0.60	 	 	 	 	 	 	 	 	 	 	 	 	 	 	 	 	 	 	1581535110	1.22	2.26
12/02/2020 19:18:31	120220	12022020	191831	82.66	12.418858	-56.733337	82.66	-0.080	-0.870	1.200	82.63	-2.20	1.50	 	 	 	 	 	 	 	 	 	 	 	 	 	 	 	 	 	 	1581535111	1.50	2.78
12/02/2020 19:18:32	120220	12022020	191832	82.49	12.418855	-56.733328	82.50	0.590	-1.620	2.090	82.45	-3.00	2.40	 	 	 	 	 	 	 	 	 	 	 	 	 	 	 	 	 	 	1581535112	2.00	3.70
12/02/2020 19:18:33	120220	12022020	191833	82.36	12.418855	-56.733318	82.41	1.050	-1.860	2.550	82.35	-3.20	2.90	 	 	 	 	 	 	 	 	 	 	 	 	 	 	 	 	 	 	1581535113	2.03	3.76
12/02/2020 19:18:34	120220	12022020	191834	82.44	12.418858	-56.733312	82.51	1.030	-1.090	2.530	82.48	-2.50	2.90	 	 	 	 	 	 	 	 	 	 	 	 	 	 	 	 	 	 	1581535114	1.38	2.56
12/02/2020 19:18:35	120220	12022020	191835	82.73	12.418862	-56.733310	82.83	0.560	0.210	2.050	82.81	-1.20	2.50	 	 	 	 	 	 	 	 	 	 	 	 	 	 	 	 	 	 	1581535115	0.96	1.78
12/02/2020 19:18:36	120220	12022020	191836	83.08	12.418867	-56.733308	83.17	-0.110	1.240	1.330	83.13	-0.20	1.80	 	 	 	 	 	 	 	 	 	 	 	 	 	 	 	 	 	 	1581535116	1.11	2.06
12/02/2020 19:18:37	120220	12022020	191837	83.25	12.418872	-56.733305	83.29	-0.690	1.500	0.760	83.27	0.10	1.20	 	 	 	 	 	 	 	 	 	 	 	 	 	 	 	 	 	 	1581535117	1.28	2.37
12/02/2020 19:18:38	120220	12022020	191838	83.34	12.418873	-56.733298	83.40	-0.950	1.130	0.350	83.36	-0.20	0.80	 	 	 	 	 	 	 	 	 	 	 	 	 	 	 	 	 	 	1581535118	1.44	2.67
12/02/2020 19:18:39	120220	12022020	191839	83.46	12.418875	-56.733292	83.55	-0.820	0.410	-0.010	83.50	-0.90	0.40	 	 	 	 	 	 	 	 	 	 	 	 	 	 	 	 	 	 	1581535119	1.56	2.89
12/02/2020 19:18:40	120220	12022020	191840	83.60	12.418875	-56.733283	83.60	-0.440	-0.500	-0.240	83.59	-1.80	0.10	 	 	 	 	 	 	 	 	 	 	 	 	 	 	 	 	 	 	1581535120	1.68	3.11
12/02/2020 19:18:41	120220	12022020	191841	83.49	12.418875	-56.733275	83.47	0.000	-1.380	-0.180	83.45	-2.70	0.20	 	 	 	 	 	 	 	 	 	 	 	 	 	 	 	 	 	 	1581535121	1.88	3.48
12/02/2020 19:18:42	120220	12022020	191842	83.33	12.418877	-56.733265	83.34	0.390	-1.840	-0.020	83.31	-3.20	0.40	 	 	 	 	 	 	 	 	 	 	 	 	 	 	 	 	 	 	1581535122	1.87	3.46
12/02/2020 19:18:43	120220	12022020	191843	83.33	12.418878	-56.733258	83.36	0.730	-1.590	-0.010	83.33	-3.00	0.40	 	 	 	 	 	 	 	 	 	 	 	 	 	 	 	 	 	 	1581535123	1.62	3.00
12/02/2020 19:18:44	120220	12022020	191844	83.33	12.418882	-56.733253	83.34	0.940	-0.820	0.230	83.31	-2.20	0.60	 	 	 	 	 	 	 	 	 	 	 	 	 	 	 	 	 	 	1581535124	1.36	2.52
12/02/2020 19:18:45	120220	12022020	191845	83.25	12.418883	-56.733247	83.30	0.860	0.070	0.710	83.26	-1.30	1.10	 	 	 	 	 	 	 	 	 	 	 	 	 	 	 	 	 	 	1581535125	1.21	2.24
12/02/2020 19:18:46	120220	12022020	191846	83.41	12.418883	-56.733242	83.53	0.330	0.820	1.120	83.47	-0.60	1.50	 	 	 	 	 	 	 	 	 	 	 	 	 	 	 	 	 	 	1581535126	1.34	2.48
12/02/2020 19:18:47	120220	12022020	191847	83.72	12.418880	-56.733235	83.87	-0.540	1.360	1.520	83.79	-0.00	1.90	 	 	 	 	 	 	 	 	 	 	 	 	 	 	 	 	 	 	1581535127	1.32	2.44
12/02/2020 19:18:48	120220	12022020	191848	84.12	12.418878	-56.733230	84.29	-1.290	1.550	1.810	84.22	0.20	2.20	 	 	 	 	 	 	 	 	 	 	 	 	 	 	 	 	 	 	1581535128	1.15	2.13
12/02/2020 19:18:49	120220	12022020	191849	84.61	12.418875	-56.733225	84.76	-1.450	1.180	1.950	84.70	-0.20	2.30	 	 	 	 	 	 	 	 	 	 	 	 	 	 	 	 	 	 	1581535129	1.17	2.17
12/02/2020 19:18:50	120220	12022020	191850	84.88	12.418873	-56.733218	84.93	-0.860	-0.010	2.120	84.86	-1.30	2.50	 	 	 	 	 	 	 	 	 	 	 	 	 	 	 	 	 	 	1581535130	1.75	3.24
12/02/2020 19:18:51	120220	12022020	191851	84.55	12.418872	-56.733205	84.49	0.150	-1.690	2.390	84.42	-3.00	2.70	 	 	 	 	 	 	 	 	 	 	 	 	 	 	 	 	 	 	1581535131	2.59	4.80
12/02/2020 19:18:52	120220	12022020	191852	83.90	12.418872	-56.733192	83.85	1.060	-2.900	2.440	83.79	-4.20	2.80	 	 	 	 	 	 	 	 	 	 	 	 	 	 	 	 	 	 	1581535132	2.88	5.33
12/02/2020 19:18:53	120220	12022020	191853	83.58	12.418877	-56.733182	83.65	1.440	-2.670	1.950	83.61	-4.10	2.40	 	 	 	 	 	 	 	 	 	 	 	 	 	 	 	 	 	 	1581535133	2.34	4.33
12/02/2020 19:18:54	120220	12022020	191854	83.96	12.418885	-56.733178	84.12	1.220	-1.190	0.910	84.10	-2.60	1.30	 	 	 	 	 	 	 	 	 	 	 	 	 	 	 	 	 	 	1581535134	1.93	3.57
12/02/2020 19:18:55	120220	12022020	191855	84.72	12.418893	-56.733175	84.86	0.590	0.560	-0.290	84.86	-0.90	0.10	 	 	 	 	 	 	 	 	 	 	 	 	 	 	 	 	 	 	1581535135	1.82	3.37
12/02/2020 19:18:56	120220	12022020	191856	85.25	12.418898	-56.733172	85.28	-0.220	1.870	-1.000	85.29	0.40	-0.60	 	 	 	 	 	 	 	 	 	 	 	 	 	 	 	 	 	 	1581535136	1.29	2.39
12/02/2020 19:18:57	120220	12022020	191857	85.28	12.418898	-56.733167	85.24	-1.010	2.500	-0.970	85.25	1.10	-0.60	 	 	 	 	 	 	 	 	 	 	 	 	 	 	 	 	 	 	1581535137	1.03	1.91
12/02/2020 19:18:58	120220	12022020	191858	85.06	12.418895	-56.733162	85.03	-1.580	2.270	-0.280	85.01	0.90	0.10	 	 	 	 	 	 	 	 	 	 	 	 	 	 	 	 	 	 	1581535138	1.42	2.63
12/02/2020 19:18:59	120220	12022020	191859	84.85	12.418890	-56.733153	84.86	-1.620	0.910	0.710	84.83	-0.40	1.00	 	 	 	 	 	 	 	 	 	 	 	 	 	 	 	 	 	 	1581535139	2.14	3.96
12/02/2020 19:19:00	120220	12022020	191900	84.84	12.418885	-56.733140	84.90	-0.930	-1.270	1.420	84.85	-2.60	1.80	 	 	 	 	 	 	 	 	 	 	 	 	 	 	 	 	 	 	1581535140	2.88	5.33
12/02/2020 19:19:01	120220	12022020	191901	84.89	12.418883	-56.733125	84.93	0.310	-3.260	1.880	84.88	-4.60	2.20	 	 	 	 	 	 	 	 	 	 	 	 	 	 	 	 	 	 	1581535141	3.30	6.11
12/02/2020 19:19:02	120220	12022020	191902	84.80	12.418882	-56.733112	84.84	1.450	-3.770	2.350	84.78	-5.10	2.70	1014.40	26.40	26.50	20.00	20.00	263.0	67.0	67.0	433.0	27.3	348.00	12.10	70.00	11.30	23413	12574.0	27.4	27.4	1581535142	2.89	5.35
12/02/2020 19:19:03	120220	12022020	191903	84.68	12.418882	-56.733103	84.72	1.820	-2.300	2.740	84.66	-3.70	3.10	 	 	 	 	 	 	 	 	 	 	 	 	 	 	 	 	 	 	1581535143	1.49	2.76
12/02/2020 19:19:04	120220	12022020	191904	84.59	12.418883	-56.733102	84.62	1.330	0.110	2.840	84.58	-1.40	3.20	 	 	 	 	 	 	 	 	 	 	 	 	 	 	 	 	 	 	1581535144	0.31	0.57
12/02/2020 19:19:05	120220	12022020	191905	84.60	12.418885	-56.733102	84.66	0.340	2.090	2.390	84.62	0.60	2.80	 	 	 	 	 	 	 	 	 	 	 	 	 	 	 	 	 	 	1581535145	0.53	0.98
12/02/2020 19:19:06	120220	12022020	191906	84.77	12.418890	-56.733098	84.83	-0.750	2.920	1.510	84.81	1.50	1.90	 	 	 	 	 	 	 	 	 	 	 	 	 	 	 	 	 	 	1581535146	1.24	2.30
12/02/2020 19:19:07	120220	12022020	191907	84.95	12.418895	-56.733090	84.98	-1.510	2.400	0.530	84.97	1.10	1.00	 	 	 	 	 	 	 	 	 	 	 	 	 	 	 	 	 	 	1581535147	1.89	3.50
12/02/2020 19:19:08	120220	12022020	191908	85.01	12.418900	-56.733080	85.01	-1.550	0.730	-0.350	85.01	-0.60	0.10	 	 	 	 	 	 	 	 	 	 	 	 	 	 	 	 	 	 	1581535148	2.61	4.83
12/02/2020 19:19:09	120220	12022020	191909	85.01	12.418905	-56.733065	84.98	-0.900	-1.320	-1.010	85.01	-2.60	-0.60	 	 	 	 	 	 	 	 	 	 	 	 	 	 	 	 	 	 	1581535149	3.21	5.94
12/02/2020 19:19:10	120220	12022020	191910	85.01	12.418907	-56.733050	85.01	-0.060	-2.660	-1.300	85.02	-4.00	-0.90	 	 	 	 	 	 	 	 	 	 	 	 	 	 	 	 	 	 	1581535150	3.05	5.65
12/02/2020 19:19:11	120220	12022020	191911	84.97	12.418905	-56.733040	84.95	0.590	-2.760	-1.090	84.94	-4.10	-0.70	 	 	 	 	 	 	 	 	 	 	 	 	 	 	 	 	 	 	1581535151	2.29	4.24
12/02/2020 19:19:12	120220	12022020	191912	84.68	12.418903	-56.733032	84.65	0.950	-1.830	-0.350	84.61	-3.20	-0.00	 	 	 	 	 	 	 	 	 	 	 	 	 	 	 	 	 	 	1581535152	1.79	3.32
12/02/2020 19:19:13	120220	12022020	191913	84.34	12.418900	-56.733025	84.37	1.030	-0.340	0.440	84.30	-1.80	0.80	 	 	 	 	 	 	 	 	 	 	 	 	 	 	 	 	 	 	1581535153	1.47	2.72
12/02/2020 19:19:14	120220	12022020	191914	84.29	12.418900	-56.733020	84.39	0.750	1.110	0.850	84.32	-0.30	1.20	 	 	 	 	 	 	 	 	 	 	 	 	 	 	 	 	 	 	1581535154	1.20	2.22
12/02/2020 19:19:15	120220	12022020	191915	84.50	12.418902	-56.733013	84.62	0.110	1.810	1.080	84.56	0.40	1.40	 	 	 	 	 	 	 	 	 	 	 	 	 	 	 	 	 	 	1581535155	1.50	2.78
12/02/2020 19:19:16	120220	12022020	191916	84.80	12.418902	-56.733003	84.92	-0.590	1.430	1.350	84.87	0.10	1.70	 	 	 	 	 	 	 	 	 	 	 	 	 	 	 	 	 	 	1581535156	2.18	4.04
12/02/2020 19:19:17	120220	12022020	191917	85.07	12.418900	-56.732990	85.16	-0.970	0.480	1.720	85.10	-0.90	2.10	 	 	 	 	 	 	 	 	 	 	 	 	 	 	 	 	 	 	1581535157	2.83	5.24
12/02/2020 19:19:18	120220	12022020	191918	85.01	12.418895	-56.732977	85.00	-0.860	-0.310	2.320	84.93	-1.70	2.60	 	 	 	 	 	 	 	 	 	 	 	 	 	 	 	 	 	 	1581535158	2.97	5.50
12/02/2020 19:19:19	120220	12022020	191919	84.44	12.418892	-56.732965	84.38	-0.390	-0.770	2.910	84.30	-2.10	3.20	 	 	 	 	 	 	 	 	 	 	 	 	 	 	 	 	 	 	1581535159	2.57	4.76
12/02/2020 19:19:20	120220	12022020	191920	83.84	12.418892	-56.732953	83.85	0.160	-1.190	2.960	83.78	-2.50	3.30	 	 	 	 	 	 	 	 	 	 	 	 	 	 	 	 	 	 	1581535160	2.36	4.37
12/02/2020 19:19:21	120220	12022020	191921	83.78	12.418897	-56.732942	83.89	0.610	-1.590	2.290	83.84	-2.90	2.70	 	 	 	 	 	 	 	 	 	 	 	 	 	 	 	 	 	 	1581535161	2.79	5.17
12/02/2020 19:19:22	120220	12022020	191922	84.29	12.418905	-56.732928	84.47	0.930	-1.650	1.060	84.44	-3.00	1.50	 	 	 	 	 	 	 	 	 	 	 	 	 	 	 	 	 	 	1581535162	3.18	5.89
12/02/2020 19:19:23	120220	12022020	191923	84.95	12.418912	-56.732918	85.06	1.040	-0.950	-0.140	85.03	-2.40	0.30	 	 	 	 	 	 	 	 	 	 	 	 	 	 	 	 	 	 	1581535163	2.92	5.41
12/02/2020 19:19:24	120220	12022020	191924	85.07	12.418917	-56.732910	85.03	0.770	0.510	-0.660	85.01	-0.90	-0.30	 	 	 	 	 	 	 	 	 	 	 	 	 	 	 	 	 	 	1581535164	1.95	3.61
12/02/2020 19:19:25	120220	12022020	191925	84.61	12.418918	-56.732903	84.52	0.080	1.850	-0.390	84.49	0.40	-0.00	 	 	 	 	 	 	 	 	 	 	 	 	 	 	 	 	 	 	1581535165	1.31	2.43
12/02/2020 19:19:26	120220	12022020	191926	84.16	12.418917	-56.732895	84.14	-0.740	2.070	0.140	84.10	0.70	0.50	 	 	 	 	 	 	 	 	 	 	 	 	 	 	 	 	 	 	1581535166	1.76	3.26
12/02/2020 19:19:27	120220	12022020	191927	83.97	12.418918	-56.732882	84.01	-1.300	0.990	0.500	83.96	-0.30	0.90	 	 	 	 	 	 	 	 	 	 	 	 	 	 	 	 	 	 	1581535167	2.78	5.15
12/02/2020 19:19:28	120220	12022020	191928	83.98	12.418920	-56.732865	84.05	-1.260	-0.650	0.630	84.00	-2.00	1.00	 	 	 	 	 	 	 	 	 	 	 	 	 	 	 	 	 	 	1581535168	3.49	6.46
12/02/2020 19:19:29	120220	12022020	191929	84.11	12.418922	-56.732848	84.28	-0.540	-1.990	0.850	84.16	-3.30	1.20	 	 	 	 	 	 	 	 	 	 	 	 	 	 	 	 	 	 	1581535169	3.60	6.67
12/02/2020 19:19:30	120220	12022020	191930	84.42	12.418918	-56.732833	84.53	0.470	-2.410	1.410	84.45	-3.80	1.70	 	 	 	 	 	 	 	 	 	 	 	 	 	 	 	 	 	 	1581535170	3.38	6.26
12/02/2020 19:19:31	120220	12022020	191931	84.41	12.418913	-56.732820	84.45	1.110	-1.630	2.130	84.36	-3.00	2.50	 	 	 	 	 	 	 	 	 	 	 	 	 	 	 	 	 	 	1581535171	2.90	5.37
12/02/2020 19:19:32	120220	12022020	191932	84.03	12.418910	-56.732812	84.02	1.090	-0.280	2.500	83.94	-1.70	2.90	 	 	 	 	 	 	 	 	 	 	 	 	 	 	 	 	 	 	1581535172	2.13	3.94
12/02/2020 19:19:33	120220	12022020	191933	83.52	12.418912	-56.732802	83.52	0.630	0.750	2.260	83.44	-0.70	2.60	 	 	 	 	 	 	 	 	 	 	 	 	 	 	 	 	 	 	1581535173	2.11	3.91
12/02/2020 19:19:34	120220	12022020	191934	83.27	12.418920	-56.732790	83.31	0.060	1.140	1.380	83.26	-0.30	1.80	 	 	 	 	 	 	 	 	 	 	 	 	 	 	 	 	 	 	1581535174	3.01	5.57
12/02/2020 19:19:35	120220	12022020	191935	83.34	12.418932	-56.732778	83.40	-0.440	1.170	0.220	83.38	-0.20	0.60	 	 	 	 	 	 	 	 	 	 	 	 	 	 	 	 	 	 	1581535175	3.48	6.44
12/02/2020 19:19:36	120220	12022020	191936	83.57	12.418942	-56.732767	83.61	-0.740	0.990	-0.710	83.62	-0.40	-0.30	 	 	 	 	 	 	 	 	 	 	 	 	 	 	 	 	 	 	1581535176	3.23	5.98
12/02/2020 19:19:37	120220	12022020	191937	83.81	12.418948	-56.732755	83.85	-0.730	0.390	-1.190	83.86	-1.00	-0.80	 	 	 	 	 	 	 	 	 	 	 	 	 	 	 	 	 	 	1581535177	2.89	5.35
12/02/2020 19:19:38	120220	12022020	191938	84.02	12.418950	-56.732738	84.02	-0.390	-0.790	-1.220	84.05	-2.10	-0.90	 	 	 	 	 	 	 	 	 	 	 	 	 	 	 	 	 	 	1581535178	3.27	6.06
12/02/2020 19:19:39	120220	12022020	191939	84.05	12.418947	-56.732720	84.00	0.210	-2.140	-0.690	84.01	-3.40	-0.40	 	 	 	 	 	 	 	 	 	 	 	 	 	 	 	 	 	 	1581535179	4.10	7.59
12/02/2020 19:19:40	120220	12022020	191940	83.71	12.418942	-56.732700	83.63	0.790	-2.750	0.480	83.60	-4.10	0.80	 	 	 	 	 	 	 	 	 	 	 	 	 	 	 	 	 	 	1581535180	4.43	8.20
12/02/2020 19:19:41	120220	12022020	191941	83.22	12.418937	-56.732683	83.03	0.890	-1.750	1.740	83.10	-3.20	2.10	 	 	 	 	 	 	 	 	 	 	 	 	 	 	 	 	 	 	1581535181	3.59	6.65
12/02/2020 19:19:42	120220	12022020	191942	82.55	12.418933	-56.732675	82.55	0.370	0.480	2.420	82.47	-1.00	2.80	 	 	 	 	 	 	 	 	 	 	 	 	 	 	 	 	 	 	1581535182	1.94	3.59
12/02/2020 19:19:43	120220	12022020	191943	82.41	12.418935	-56.732670	82.52	-0.420	2.400	2.050	82.45	1.00	2.40	 	 	 	 	 	 	 	 	 	 	 	 	 	 	 	 	 	 	1581535183	1.16	2.15
12/02/2020 19:19:44	120220	12022020	191944	82.77	12.418943	-56.732662	82.91	-0.860	2.640	0.870	82.86	1.30	1.30	 	 	 	 	 	 	 	 	 	 	 	 	 	 	 	 	 	 	1581535184	2.48	4.59
12/02/2020 19:19:45	120220	12022020	191945	83.26	12.418955	-56.732645	83.36	-0.630	1.050	-0.340	83.33	-0.20	0.10	 	 	 	 	 	 	 	 	 	 	 	 	 	 	 	 	 	 	1581535185	4.16	7.70
12/02/2020 19:19:46	120220	12022020	191946	83.54	12.418963	-56.732623	83.56	-0.030	-1.120	-0.960	83.55	-2.40	-0.60	 	 	 	 	 	 	 	 	 	 	 	 	 	 	 	 	 	 	1581535186	5.03	9.32
12/02/2020 19:19:47	120220	12022020	191947	83.49	12.418967	-56.732603	83.45	0.370	-2.190	-0.850	83.45	-3.50	-0.50	 	 	 	 	 	 	 	 	 	 	 	 	 	 	 	 	 	 	1581535187	4.35	8.06
12/02/2020 19:19:48	120220	12022020	191948	83.19	12.418965	-56.732590	83.14	0.310	-1.640	-0.090	83.12	-3.00	0.20	 	 	 	 	 	 	 	 	 	 	 	 	 	 	 	 	 	 	1581535188	2.89	5.35
12/02/2020 19:19:49	120220	12022020	191949	82.83	12.418962	-56.732580	82.80	0.080	-0.540	0.820	82.76	-1.90	1.20	 	 	 	 	 	 	 	 	 	 	 	 	 	 	 	 	 	 	1581535189	2.25	4.17
12/02/2020 19:19:50	120220	12022020	191950	82.54	12.418958	-56.732567	82.55	0.110	-0.180	1.480	82.50	-1.60	1.80	 	 	 	 	 	 	 	 	 	 	 	 	 	 	 	 	 	 	1581535190	2.77	5.13
12/02/2020 19:19:51	120220	12022020	191951	82.51	12.418960	-56.732548	82.58	0.370	-0.480	1.740	82.53	-1.80	2.10	 	 	 	 	 	 	 	 	 	 	 	 	 	 	 	 	 	 	1581535191	3.88	7.19
12/02/2020 19:19:52	120220	12022020	191952	82.58	12.418963	-56.732530	82.64	0.460	-0.450	1.730	82.58	-1.80	2.10	 	 	 	 	 	 	 	 	 	 	 	 	 	 	 	 	 	 	1581535192	4.00	7.41
12/02/2020 19:19:53	120220	12022020	191953	82.54	12.418965	-56.732515	82.56	0.190	0.300	1.490	82.51	-1.10	1.90	 	 	 	 	 	 	 	 	 	 	 	 	 	 	 	 	 	 	1581535193	3.20	5.93
12/02/2020 19:19:54	120220	12022020	191954	82.41	12.418970	-56.732503	82.45	-0.310	1.240	1.240	82.39	-0.20	1.60	 	 	 	 	 	 	 	 	 	 	 	 	 	 	 	 	 	 	1581535194	2.48	4.59
12/02/2020 19:19:55	120220	12022020	191955	82.43	12.418973	-56.732493	82.53	-0.750	1.560	0.890	82.46	0.20	1.30	 	 	 	 	 	 	 	 	 	 	 	 	 	 	 	 	 	 	1581535195	2.53	4.69
12/02/2020 19:19:56	120220	12022020	191956	82.63	12.418978	-56.732478	82.71	-0.880	0.860	0.360	82.66	-0.50	0.80	 	 	 	 	 	 	 	 	 	 	 	 	 	 	 	 	 	 	1581535196	3.27	6.06
12/02/2020 19:19:57	120220	12022020	191957	82.67	12.418985	-56.732460	82.68	-0.580	-0.540	0.020	82.64	-1.90	0.40	 	 	 	 	 	 	 	 	 	 	 	 	 	 	 	 	 	 	1581535197	4.09	7.57
12/02/2020 19:19:58	120220	12022020	191958	82.49	12.418988	-56.732440	82.51	0.050	-1.820	0.080	82.45	-3.10	0.50	 	 	 	 	 	 	 	 	 	 	 	 	 	 	 	 	 	 	1581535198	4.41	8.17
12/02/2020 19:19:59	120220	12022020	191959	82.39	12.418990	-56.732420	82.43	0.770	-2.340	0.350	82.38	-3.70	0.70	 	 	 	 	 	 	 	 	 	 	 	 	 	 	 	 	 	 	1581535199	4.14	7.67
12/02/2020 19:20:00	120220	12022020	192000	82.28	12.418992	-56.732402	82.29	1.260	-2.020	0.790	82.23	-3.40	1.10	 	 	 	 	 	 	 	 	 	 	 	 	 	 	 	 	 	 	1581535200	3.80	7.04
12/02/2020 19:20:01	120220	12022020	192001	81.98	12.418992	-56.732387	81.93	1.180	-0.840	1.230	81.89	-2.30	1.60	 	 	 	 	 	 	 	 	 	 	 	 	 	 	 	 	 	 	1581535201	3.34	6.19
12/02/2020 19:20:02	120220	12022020	192002	81.51	12.418993	-56.732373	81.44	0.470	0.850	1.440	81.40	-0.60	1.80	1014.50	26.30	26.40	19.90	19.90	258.0	67.0	67.0	429.0	27.3	349.00	13.40	71.00	12.00	23600	12020.0	27.4	27.4	1581535202	2.68	4.96
12/02/2020 19:20:03	120220	12022020	192003	81.11	12.418997	-56.732362	81.12	-0.520	2.130	1.230	81.07	0.70	1.60	 	 	 	 	 	 	 	 	 	 	 	 	 	 	 	 	 	 	1581535203	2.47	4.57
12/02/2020 19:20:04	120220	12022020	192004	81.15	12.419003	-56.732348	81.25	-1.250	2.210	0.630	81.21	0.80	1.00	 	 	 	 	 	 	 	 	 	 	 	 	 	 	 	 	 	 	1581535204	3.16	5.85
12/02/2020 19:20:05	120220	12022020	192005	81.59	12.419012	-56.732332	81.73	-1.440	1.220	-0.090	81.70	-0.10	0.30	 	 	 	 	 	 	 	 	 	 	 	 	 	 	 	 	 	 	1581535205	4.07	7.54
12/02/2020 19:20:06	120220	12022020	192006	82.07	12.419017	-56.732312	82.15	-1.130	-0.140	-0.510	82.13	-1.50	-0.10	 	 	 	 	 	 	 	 	 	 	 	 	 	 	 	 	 	 	1581535206	4.30	7.96
12/02/2020 19:20:07	120220	12022020	192007	82.13	12.419018	-56.732292	82.09	-0.350	-1.550	-0.310	82.06	-2.90	0.00	 	 	 	 	 	 	 	 	 	 	 	 	 	 	 	 	 	 	1581535207	4.37	8.09
12/02/2020 19:20:08	120220	12022020	192008	81.61	12.419017	-56.732268	81.50	0.760	-2.730	0.470	81.48	-4.10	0.80	 	 	 	 	 	 	 	 	 	 	 	 	 	 	 	 	 	 	1581535208	4.81	8.91
12/02/2020 19:20:09	120220	12022020	192009	80.97	12.419017	-56.732245	80.92	1.730	-2.920	1.310	80.88	-4.30	1.70	 	 	 	 	 	 	 	 	 	 	 	 	 	 	 	 	 	 	1581535209	4.85	8.98
12/02/2020 19:20:10	120220	12022020	192010	80.68	12.419018	-56.732228	80.73	1.770	-1.410	1.750	80.68	-2.90	2.10	 	 	 	 	 	 	 	 	 	 	 	 	 	 	 	 	 	 	1581535210	3.73	6.91
12/02/2020 19:20:11	120220	12022020	192011	80.85	12.419022	-56.732218	80.95	0.690	1.080	1.490	80.91	-0.40	1.90	 	 	 	 	 	 	 	 	 	 	 	 	 	 	 	 	 	 	1581535211	2.27	4.20
12/02/2020 19:20:12	120220	12022020	192012	81.12	12.419028	-56.732210	81.19	-0.840	2.930	0.870	81.15	1.50	1.30	 	 	 	 	 	 	 	 	 	 	 	 	 	 	 	 	 	 	1581535212	2.14	3.96
12/02/2020 19:20:13	120220	12022020	192013	81.16	12.419035	-56.732198	81.18	-1.770	2.960	0.390	81.13	1.60	0.80	 	 	 	 	 	 	 	 	 	 	 	 	 	 	 	 	 	 	1581535213	3.02	5.59
12/02/2020 19:20:14	120220	12022020	192014	80.95	12.419040	-56.732177	80.95	-1.550	1.130	0.180	80.89	-0.20	0.60	 	 	 	 	 	 	 	 	 	 	 	 	 	 	 	 	 	 	1581535214	4.65	8.61
12/02/2020 19:20:15	120220	12022020	192015	80.72	12.419045	-56.732148	80.75	-0.520	-1.450	-0.010	80.71	-2.70	0.40	 	 	 	 	 	 	 	 	 	 	 	 	 	 	 	 	 	 	1581535215	5.86	10.85
12/02/2020 19:20:16	120220	12022020	192016	80.84	12.419052	-56.732122	80.92	0.470	-3.050	-0.350	80.91	-4.40	0.00	 	 	 	 	 	 	 	 	 	 	 	 	 	 	 	 	 	 	1581535216	5.82	10.78
12/02/2020 19:20:17	120220	12022020	192017	81.21	12.419055	-56.732103	81.29	0.800	-2.460	-0.380	81.28	-3.90	-0.00	 	 	 	 	 	 	 	 	 	 	 	 	 	 	 	 	 	 	1581535217	4.13	7.65
12/02/2020 19:20:18	120220	12022020	192018	81.45	12.419055	-56.732092	81.48	0.520	-0.480	0.060	81.46	-1.90	0.40	 	 	 	 	 	 	 	 	 	 	 	 	 	 	 	 	 	 	1581535218	2.39	4.43
12/02/2020 19:20:19	120220	12022020	192019	81.42	12.419053	-56.732082	81.38	0.150	1.080	0.640	81.39	-0.40	1.00	 	 	 	 	 	 	 	 	 	 	 	 	 	 	 	 	 	 	1581535219	2.33	4.32
12/02/2020 19:20:20	120220	12022020	192020	81.05	12.419055	-56.732065	81.01	0.090	1.210	1.020	80.95	-0.20	1.40	 	 	 	 	 	 	 	 	 	 	 	 	 	 	 	 	 	 	1581535220	3.53	6.54
12/02/2020 19:20:21	120220	12022020	192021	80.57	12.419060	-56.732040	80.56	0.410	0.150	1.280	80.48	-1.20	1.60	 	 	 	 	 	 	 	 	 	 	 	 	 	 	 	 	 	 	1581535221	5.08	9.41
12/02/2020 19:20:22	120220	12022020	192022	80.24	12.419065	-56.732015	80.29	0.670	-0.850	1.460	80.22	-2.20	1.80	 	 	 	 	 	 	 	 	 	 	 	 	 	 	 	 	 	 	1581535222	5.67	10.50
12/02/2020 19:20:23	120220	12022020	192023	80.30	12.419072	-56.731993	80.40	0.310	-0.750	1.360	80.35	-2.20	1.80	 	 	 	 	 	 	 	 	 	 	 	 	 	 	 	 	 	 	1581535223	4.77	8.83
12/02/2020 19:20:24	120220	12022020	192024	80.67	12.419078	-56.731978	80.79	-0.510	0.270	1.000	80.76	-1.20	1.40	 	 	 	 	 	 	 	 	 	 	 	 	 	 	 	 	 	 	1581535224	3.39	6.28
12/02/2020 19:20:25	120220	12022020	192025	81.10	12.419082	-56.731965	81.21	-1.130	1.140	0.830	81.16	-0.30	1.20	 	 	 	 	 	 	 	 	 	 	 	 	 	 	 	 	 	 	1581535225	2.80	5.19
12/02/2020 19:20:26	120220	12022020	192026	81.27	12.419082	-56.731948	81.35	-1.030	0.820	1.100	81.27	-0.50	1.50	 	 	 	 	 	 	 	 	 	 	 	 	 	 	 	 	 	 	1581535226	3.66	6.78
12/02/2020 19:20:27	120220	12022020	192027	81.21	12.419083	-56.731923	81.27	-0.330	-0.500	1.380	81.19	-1.80	1.70	 	 	 	 	 	 	 	 	 	 	 	 	 	 	 	 	 	 	1581535227	5.10	9.45
12/02/2020 19:20:28	120220	12022020	192028	81.17	12.419087	-56.731898	81.21	0.410	-1.650	1.410	81.17	-3.00	1.80	 	 	 	 	 	 	 	 	 	 	 	 	 	 	 	 	 	 	1581535228	5.58	10.33
12/02/2020 19:20:29	120220	12022020	192029	81.13	12.419090	-56.731875	81.13	0.770	-1.710	1.490	81.10	-3.10	1.90	 	 	 	 	 	 	 	 	 	 	 	 	 	 	 	 	 	 	1581535229	4.94	9.15
12/02/2020 19:20:30	120220	12022020	192030	80.89	12.419092	-56.731857	80.83	0.800	-0.750	1.560	80.81	-2.20	1.90	 	 	 	 	 	 	 	 	 	 	 	 	 	 	 	 	 	 	1581535230	3.90	7.22
12/02/2020 19:20:31	120220	12022020	192031	80.55	12.419097	-56.731838	80.42	0.730	0.110	1.320	80.48	-1.30	1.70	 	 	 	 	 	 	 	 	 	 	 	 	 	 	 	 	 	 	1581535231	3.78	7.00
12/02/2020 19:20:32	120220	12022020	192032	80.22	12.419107	-56.731818	80.24	0.620	0.360	0.660	80.23	-1.00	1.10	 	 	 	 	 	 	 	 	 	 	 	 	 	 	 	 	 	 	1581535232	4.71	8.72
12/02/2020 19:20:33	120220	12022020	192033	80.37	12.419117	-56.731798	80.52	0.280	0.510	-0.090	80.45	-0.90	0.30	 	 	 	 	 	 	 	 	 	 	 	 	 	 	 	 	 	 	1581535233	5.12	9.48
12/02/2020 19:20:34	120220	12022020	192034	80.93	12.419127	-56.731778	81.02	-0.360	0.890	-0.600	81.02	-0.50	-0.20	 	 	 	 	 	 	 	 	 	 	 	 	 	 	 	 	 	 	1581535234	4.58	8.48
12/02/2020 19:20:35	120220	12022020	192035	81.34	12.419132	-56.731760	81.39	-1.010	1.070	-0.690	81.39	-0.30	-0.30	 	 	 	 	 	 	 	 	 	 	 	 	 	 	 	 	 	 	1581535235	4.00	7.41
12/02/2020 19:20:36	120220	12022020	192036	81.50	12.419133	-56.731738	81.51	-1.180	0.320	-0.310	81.51	-1.00	0.10	 	 	 	 	 	 	 	 	 	 	 	 	 	 	 	 	 	 	1581535236	4.55	8.43
12/02/2020 19:20:37	120220	12022020	192037	81.46	12.419132	-56.731712	81.45	-0.660	-1.180	0.490	81.43	-2.50	0.80	 	 	 	 	 	 	 	 	 	 	 	 	 	 	 	 	 	 	1581535237	5.79	10.72
12/02/2020 19:20:38	120220	12022020	192038	81.19	12.419130	-56.731682	81.14	0.290	-2.250	1.320	81.11	-3.60	1.70	 	 	 	 	 	 	 	 	 	 	 	 	 	 	 	 	 	 	1581535238	6.19	11.46
12/02/2020 19:20:39	120220	12022020	192039	80.77	12.419132	-56.731657	80.72	1.030	-1.980	1.730	80.68	-3.40	2.10	 	 	 	 	 	 	 	 	 	 	 	 	 	 	 	 	 	 	1581535239	5.36	9.93
12/02/2020 19:20:40	120220	12022020	192040	80.47	12.419137	-56.731637	80.46	1.030	-0.510	1.730	80.45	-1.90	2.10	 	 	 	 	 	 	 	 	 	 	 	 	 	 	 	 	 	 	1581535240	4.21	7.80
12/02/2020 19:20:41	120220	12022020	192041	80.49	12.419142	-56.731622	80.57	0.360	1.020	1.490	80.53	-0.40	1.90	 	 	 	 	 	 	 	 	 	 	 	 	 	 	 	 	 	 	1581535241	3.63	6.72
12/02/2020 19:20:42	120220	12022020	192042	80.77	12.419148	-56.731602	80.87	-0.330	1.420	1.040	80.83	0.00	1.40	 	 	 	 	 	 	 	 	 	 	 	 	 	 	 	 	 	 	1581535242	4.34	8.04
12/02/2020 19:20:43	120220	12022020	192043	80.96	12.419157	-56.731577	80.99	-0.560	0.750	0.590	80.96	-0.60	1.00	 	 	 	 	 	 	 	 	 	 	 	 	 	 	 	 	 	 	1581535243	5.55	10.28
12/02/2020 19:20:44	120220	12022020	192044	80.85	12.419163	-56.731548	80.85	-0.400	-0.080	0.390	80.81	-1.40	0.80	 	 	 	 	 	 	 	 	 	 	 	 	 	 	 	 	 	 	1581535244	5.96	11.04
12/02/2020 19:20:45	120220	12022020	192045	80.66	12.419168	-56.731523	80.68	-0.170	-0.520	0.390	80.65	-1.90	0.80	 	 	 	 	 	 	 	 	 	 	 	 	 	 	 	 	 	 	1581535245	5.62	10.41
12/02/2020 19:20:46	120220	12022020	192046	80.73	12.419173	-56.731500	80.83	-0.100	-0.530	0.410	80.79	-1.90	0.80	 	 	 	 	 	 	 	 	 	 	 	 	 	 	 	 	 	 	1581535246	5.11	9.46
12/02/2020 19:20:47	120220	12022020	192047	81.15	12.419177	-56.731477	81.25	-0.190	-0.380	0.360	81.23	-1.80	0.80	 	 	 	 	 	 	 	 	 	 	 	 	 	 	 	 	 	 	1581535247	4.79	8.87
12/02/2020 19:20:48	120220	12022020	192048	81.43	12.419182	-56.731453	81.45	-0.150	-0.520	0.450	81.43	-1.90	0.80	 	 	 	 	 	 	 	 	 	 	 	 	 	 	 	 	 	 	1581535248	4.99	9.24
12/02/2020 19:20:49	120220	12022020	192049	81.21	12.419183	-56.731427	81.14	0.330	-1.040	0.960	81.11	-2.40	1.30	 	 	 	 	 	 	 	 	 	 	 	 	 	 	 	 	 	 	1581535249	5.76	10.67
12/02/2020 19:20:50	120220	12022020	192050	80.67	12.419185	-56.731398	80.61	0.900	-1.220	1.600	80.57	-2.60	1.90	 	 	 	 	 	 	 	 	 	 	 	 	 	 	 	 	 	 	1581535250	6.19	11.46
12/02/2020 19:20:51	120220	12022020	192051	80.28	12.419188	-56.731372	80.28	0.910	-0.520	1.870	80.24	-1.90	2.20	 	 	 	 	 	 	 	 	 	 	 	 	 	 	 	 	 	 	1581535251	5.56	10.30
12/02/2020 19:20:52	120220	12022020	192052	80.29	12.419195	-56.731350	80.37	0.200	0.620	1.390	80.33	-0.80	1.80	 	 	 	 	 	 	 	 	 	 	 	 	 	 	 	 	 	 	1581535252	4.77	8.83
12/02/2020 19:20:53	120220	12022020	192053	80.61	12.419205	-56.731330	80.73	-0.740	1.370	0.470	80.70	-0.10	0.90	 	 	 	 	 	 	 	 	 	 	 	 	 	 	 	 	 	 	1581535253	4.80	8.89
12/02/2020 19:20:54	120220	12022020	192054	81.09	12.419215	-56.731307	81.18	-1.300	1.310	-0.290	81.17	-0.10	0.10	 	 	 	 	 	 	 	 	 	 	 	 	 	 	 	 	 	 	1581535254	5.18	9.59
12/02/2020 19:20:55	120220	12022020	192055	81.37	12.419222	-56.731280	81.40	-1.090	0.400	-0.440	81.39	-1.00	-0.10	 	 	 	 	 	 	 	 	 	 	 	 	 	 	 	 	 	 	1581535255	5.79	10.72
12/02/2020 19:20:56	120220	12022020	192056	81.34	12.419225	-56.731250	81.33	-0.240	-0.990	-0.090	81.32	-2.30	0.30	 	 	 	 	 	 	 	 	 	 	 	 	 	 	 	 	 	 	1581535256	6.54	12.11
12/02/2020 19:20:57	120220	12022020	192057	81.17	12.419228	-56.731218	81.15	0.690	-1.990	0.400	81.13	-3.40	0.80	 	 	 	 	 	 	 	 	 	 	 	 	 	 	 	 	 	 	1581535257	6.78	12.56
12/02/2020 19:20:58	120220	12022020	192058	81.00	12.419232	-56.731188	80.97	1.110	-1.870	0.730	80.98	-3.30	1.10	 	 	 	 	 	 	 	 	 	 	 	 	 	 	 	 	 	 	1581535258	6.18	11.45
12/02/2020 19:20:59	120220	12022020	192059	80.92	12.419235	-56.731165	80.93	0.810	-0.600	1.090	80.92	-2.10	1.40	 	 	 	 	 	 	 	 	 	 	 	 	 	 	 	 	 	 	1581535259	5.07	9.39
12/02/2020 19:21:00	120220	12022020	192100	80.96	12.419235	-56.731143	81.01	0.070	0.830	1.500	80.98	-0.60	1.90	 	 	 	 	 	 	 	 	 	 	 	 	 	 	 	 	 	 	1581535260	4.44	8.22
12/02/2020 19:21:01	120220	12022020	192101	81.04	12.419240	-56.731122	81.10	-0.540	1.320	1.520	81.04	-0.10	1.90	 	 	 	 	 	 	 	 	 	 	 	 	 	 	 	 	 	 	1581535261	4.92	9.11
12/02/2020 19:21:02	120220	12022020	192102	81.05	12.419247	-56.731093	81.11	-0.670	0.650	1.140	81.04	-0.70	1.50	1014.40	26.30	26.40	20.00	20.10	257.0	68.0	68.0	423.0	27.2	353.00	13.90	72.00	11.60	24077	10511.0	27.4	27.4	1581535262	6.19	11.46
12/02/2020 19:21:03	120220	12022020	192103	80.99	12.419255	-56.731062	81.03	-0.490	-0.260	0.880	80.97	-1.60	1.30	 	 	 	 	 	 	 	 	 	 	 	 	 	 	 	 	 	 	1581535263	6.81	12.61
12/02/2020 19:21:04	120220	12022020	192104	80.92	12.419260	-56.731032	80.98	-0.270	-0.680	1.000	80.92	-2.10	1.40	 	 	 	 	 	 	 	 	 	 	 	 	 	 	 	 	 	 	1581535264	6.41	11.87
12/02/2020 19:21:05	120220	12022020	192105	81.00	12.419265	-56.731005	81.09	-0.100	-0.600	0.980	81.04	-2.00	1.40	 	 	 	 	 	 	 	 	 	 	 	 	 	 	 	 	 	 	1581535265	5.78	10.70
12/02/2020 19:21:06	120220	12022020	192106	81.22	12.419268	-56.730978	81.31	0.100	-0.550	0.760	81.26	-1.90	1.10	 	 	 	 	 	 	 	 	 	 	 	 	 	 	 	 	 	 	1581535266	5.73	10.61
12/02/2020 19:21:07	120220	12022020	192107	81.32	12.419273	-56.730948	81.34	0.380	-0.730	0.770	81.30	-2.10	1.10	 	 	 	 	 	 	 	 	 	 	 	 	 	 	 	 	 	 	1581535267	6.20	11.48
12/02/2020 19:21:08	120220	12022020	192108	81.04	12.419275	-56.730918	80.98	0.590	-0.740	1.170	80.94	-2.10	1.50	 	 	 	 	 	 	 	 	 	 	 	 	 	 	 	 	 	 	1581535268	6.54	12.11
12/02/2020 19:21:09	120220	12022020	192109	80.55	12.419280	-56.730890	80.52	0.480	-0.190	1.270	80.48	-1.60	1.60	 	 	 	 	 	 	 	 	 	 	 	 	 	 	 	 	 	 	1581535269	6.10	11.30
12/02/2020 19:21:10	120220	12022020	192110	80.37	12.419288	-56.730865	80.42	0.060	0.550	0.850	80.39	-0.90	1.30	 	 	 	 	 	 	 	 	 	 	 	 	 	 	 	 	 	 	1581535270	5.61	10.39
12/02/2020 19:21:11	120220	12022020	192111	80.66	12.419297	-56.730840	80.77	-0.370	0.860	0.440	80.73	-0.50	0.80	 	 	 	 	 	 	 	 	 	 	 	 	 	 	 	 	 	 	1581535271	5.66	10.48
12/02/2020 19:21:12	120220	12022020	192112	80.96	12.419303	-56.730812	81.01	-0.450	0.470	0.540	80.97	-0.90	0.90	 	 	 	 	 	 	 	 	 	 	 	 	 	 	 	 	 	 	1581535272	6.12	11.33
12/02/2020 19:21:13	120220	12022020	192113	80.87	12.419307	-56.730780	80.87	-0.200	-0.360	0.820	80.82	-1.70	1.20	 	 	 	 	 	 	 	 	 	 	 	 	 	 	 	 	 	 	1581535273	6.77	12.54
12/02/2020 19:21:14	120220	12022020	192114	80.52	12.419310	-56.730747	80.50	0.080	-1.140	1.160	80.44	-2.50	1.50	 	 	 	 	 	 	 	 	 	 	 	 	 	 	 	 	 	 	1581535274	7.04	13.04
12/02/2020 19:21:15	120220	12022020	192115	80.13	12.419313	-56.730713	80.13	0.210	-1.410	1.590	80.07	-2.80	1.90	 	 	 	 	 	 	 	 	 	 	 	 	 	 	 	 	 	 	1581535275	6.93	12.83
12/02/2020 19:21:16	120220	12022020	192116	79.94	12.419318	-56.730683	79.99	0.130	-0.840	1.640	79.94	-2.30	2.00	 	 	 	 	 	 	 	 	 	 	 	 	 	 	 	 	 	 	1581535276	6.29	11.65
12/02/2020 19:21:17	120220	12022020	192117	80.05	12.419325	-56.730658	80.14	-0.040	0.070	1.230	80.10	-1.40	1.60	 	 	 	 	 	 	 	 	 	 	 	 	 	 	 	 	 	 	1581535277	5.72	10.59
12/02/2020 19:21:18	120220	12022020	192118	80.23	12.419333	-56.730630	80.28	-0.070	0.490	0.910	80.24	-0.90	1.30	 	 	 	 	 	 	 	 	 	 	 	 	 	 	 	 	 	 	1581535278	5.99	11.09
12/02/2020 19:21:19	120220	12022020	192119	80.19	12.419338	-56.730600	80.21	0.030	0.330	0.910	80.16	-1.10	1.30	 	 	 	 	 	 	 	 	 	 	 	 	 	 	 	 	 	 	1581535279	6.68	12.37
12/02/2020 19:21:20	120220	12022020	192120	80.05	12.419343	-56.730567	80.08	0.070	0.050	0.960	80.03	-1.30	1.30	 	 	 	 	 	 	 	 	 	 	 	 	 	 	 	 	 	 	1581535280	6.96	12.89
12/02/2020 19:21:21	120220	12022020	192121	79.99	12.419348	-56.730537	80.02	-0.060	0.020	0.910	79.98	-1.40	1.30	 	 	 	 	 	 	 	 	 	 	 	 	 	 	 	 	 	 	1581535281	6.62	12.26
12/02/2020 19:21:22	120220	12022020	192122	79.90	12.419355	-56.730507	79.91	-0.270	0.150	0.870	79.87	-1.30	1.20	 	 	 	 	 	 	 	 	 	 	 	 	 	 	 	 	 	 	1581535282	6.24	11.56
12/02/2020 19:21:23	120220	12022020	192123	79.73	12.419360	-56.730478	79.69	-0.370	0.000	0.890	79.69	-1.40	1.30	 	 	 	 	 	 	 	 	 	 	 	 	 	 	 	 	 	 	1581535283	6.32	11.70
12/02/2020 19:21:24	120220	12022020	192124	79.49	12.419367	-56.730447	79.49	-0.160	-0.670	0.850	79.45	-2.00	1.20	 	 	 	 	 	 	 	 	 	 	 	 	 	 	 	 	 	 	1581535284	6.91	12.80
12/02/2020 19:21:25	120220	12022020	192125	79.28	12.419375	-56.730410	79.26	0.330	-1.600	0.880	79.23	-2.90	1.30	 	 	 	 	 	 	 	 	 	 	 	 	 	 	 	 	 	 	1581535285	7.66	14.19
12/02/2020 19:21:26	120220	12022020	192126	79.04	12.419383	-56.730375	79.05	0.740	-1.770	0.940	79.00	-3.20	1.30	 	 	 	 	 	 	 	 	 	 	 	 	 	 	 	 	 	 	1581535286	7.73	14.32
12/02/2020 19:21:27	120220	12022020	192127	78.94	12.419390	-56.730345	78.99	0.580	-0.520	1.030	78.95	-2.00	1.40	 	 	 	 	 	 	 	 	 	 	 	 	 	 	 	 	 	 	1581535287	6.48	12.00
12/02/2020 19:21:28	120220	12022020	192128	79.12	12.419395	-56.730320	79.20	-0.110	1.170	1.070	79.18	-0.30	1.50	 	 	 	 	 	 	 	 	 	 	 	 	 	 	 	 	 	 	1581535288	5.31	9.83
12/02/2020 19:21:29	120220	12022020	192129	79.45	12.419400	-56.730295	79.51	-0.810	1.870	0.980	79.50	0.50	1.40	 	 	 	 	 	 	 	 	 	 	 	 	 	 	 	 	 	 	1581535289	5.60	10.37
12/02/2020 19:21:30	120220	12022020	192130	79.54	12.419403	-56.730263	79.53	-0.960	1.150	0.990	79.50	-0.20	1.40	 	 	 	 	 	 	 	 	 	 	 	 	 	 	 	 	 	 	1581535290	6.85	12.69
12/02/2020 19:21:31	120220	12022020	192131	79.20	12.419408	-56.730225	79.14	-0.470	-0.450	1.300	79.10	-1.80	1.70	 	 	 	 	 	 	 	 	 	 	 	 	 	 	 	 	 	 	1581535291	8.03	14.87
12/02/2020 19:21:32	120220	12022020	192132	78.66	12.419413	-56.730185	78.63	0.250	-1.800	1.510	78.59	-3.10	1.90	 	 	 	 	 	 	 	 	 	 	 	 	 	 	 	 	 	 	1581535292	8.36	15.48
12/02/2020 19:21:33	120220	12022020	192133	78.49	12.419422	-56.730152	78.55	0.640	-1.920	1.160	78.52	-3.30	1.60	 	 	 	 	 	 	 	 	 	 	 	 	 	 	 	 	 	 	1581535293	7.59	14.06
12/02/2020 19:21:34	120220	12022020	192134	78.67	12.419432	-56.730123	78.73	0.510	-0.780	0.730	78.70	-2.20	1.10	 	 	 	 	 	 	 	 	 	 	 	 	 	 	 	 	 	 	1581535294	6.33	11.72
12/02/2020 19:21:35	120220	12022020	192135	78.72	12.419440	-56.730098	78.72	0.010	0.690	0.640	78.70	-0.80	1.00	 	 	 	 	 	 	 	 	 	 	 	 	 	 	 	 	 	 	1581535295	5.49	10.17
12/02/2020 19:21:36	120220	12022020	192136	78.55	12.419447	-56.730070	78.52	-0.460	1.190	0.780	78.50	-0.20	1.20	 	 	 	 	 	 	 	 	 	 	 	 	 	 	 	 	 	 	1581535296	5.90	10.93
12/02/2020 19:21:37	120220	12022020	192137	78.31	12.419453	-56.730037	78.30	-0.400	0.270	1.050	78.27	-1.10	1.40	 	 	 	 	 	 	 	 	 	 	 	 	 	 	 	 	 	 	1581535297	7.39	13.69
12/02/2020 19:21:38	120220	12022020	192138	78.17	12.419460	-56.729997	78.20	0.140	-1.050	1.250	78.16	-2.40	1.60	 	 	 	 	 	 	 	 	 	 	 	 	 	 	 	 	 	 	1581535298	8.49	15.72
12/02/2020 19:21:39	120220	12022020	192139	78.09	12.419467	-56.729960	78.11	0.620	-1.370	1.340	78.06	-2.80	1.70	 	 	 	 	 	 	 	 	 	 	 	 	 	 	 	 	 	 	1581535299	8.06	14.93
12/02/2020 19:21:40	120220	12022020	192140	77.88	12.419472	-56.729928	77.87	0.500	-0.450	1.410	77.82	-1.90	1.80	 	 	 	 	 	 	 	 	 	 	 	 	 	 	 	 	 	 	1581535300	6.72	12.45
12/02/2020 19:21:41	120220	12022020	192141	77.56	12.419477	-56.729902	77.53	-0.170	0.760	1.310	77.50	-0.70	1.70	 	 	 	 	 	 	 	 	 	 	 	 	 	 	 	 	 	 	1581535301	5.76	10.67
12/02/2020 19:21:42	120220	12022020	192142	77.38	12.419487	-56.729873	77.36	-0.670	0.890	0.910	77.37	-0.50	1.30	 	 	 	 	 	 	 	 	 	 	 	 	 	 	 	 	 	 	1581535302	6.30	11.67
12/02/2020 19:21:43	120220	12022020	192143	77.41	12.419500	-56.729838	77.41	-0.440	-0.290	0.400	77.44	-1.60	0.80	 	 	 	 	 	 	 	 	 	 	 	 	 	 	 	 	 	 	1581535303	7.90	14.63
12/02/2020 19:21:44	120220	12022020	192144	77.54	12.419512	-56.729800	77.54	0.170	-1.310	0.290	77.55	-2.70	0.70	 	 	 	 	 	 	 	 	 	 	 	 	 	 	 	 	 	 	1581535304	8.65	16.02
12/02/2020 19:21:45	120220	12022020	192145	77.51	12.419518	-56.729765	77.50	0.360	-0.890	0.820	77.48	-2.30	1.20	 	 	 	 	 	 	 	 	 	 	 	 	 	 	 	 	 	 	1581535305	7.43	13.76
12/02/2020 19:21:46	120220	12022020	192146	77.32	12.419520	-56.729735	77.30	-0.040	0.220	1.390	77.28	-1.20	1.70	 	 	 	 	 	 	 	 	 	 	 	 	 	 	 	 	 	 	1581535306	6.10	11.30
12/02/2020 19:21:47	120220	12022020	192147	77.17	12.419525	-56.729707	77.14	-0.480	0.640	1.710	77.15	-0.70	2.10	 	 	 	 	 	 	 	 	 	 	 	 	 	 	 	 	 	 	1581535307	6.27	11.61
12/02/2020 19:21:48	120220	12022020	192148	77.05	12.419532	-56.729672	77.07	-0.320	0.040	1.790	77.05	-1.30	2.20	 	 	 	 	 	 	 	 	 	 	 	 	 	 	 	 	 	 	1581535308	7.42	13.74
12/02/2020 19:21:49	120220	12022020	192149	77.07	12.419542	-56.729635	77.09	0.300	-0.800	1.530	77.08	-2.10	1.90	 	 	 	 	 	 	 	 	 	 	 	 	 	 	 	 	 	 	1581535309	8.22	15.22
12/02/2020 19:21:50	120220	12022020	192150	77.17	12.419553	-56.729600	77.21	0.620	-0.880	1.130	77.20	-2.30	1.50	 	 	 	 	 	 	 	 	 	 	 	 	 	 	 	 	 	 	1581535310	7.90	14.63
12/02/2020 19:21:51	120220	12022020	192151	77.37	12.419565	-56.729568	77.44	0.270	-0.250	1.060	77.43	-1.70	1.40	 	 	 	 	 	 	 	 	 	 	 	 	 	 	 	 	 	 	1581535311	6.85	12.69
12/02/2020 19:21:52	120220	12022020	192152	77.75	12.419572	-56.729538	77.85	-0.300	0.160	1.240	77.84	-1.20	1.60	 	 	 	 	 	 	 	 	 	 	 	 	 	 	 	 	 	 	1581535312	6.59	12.20
12/02/2020 19:21:53	120220	12022020	192153	78.17	12.419580	-56.729505	78.26	-0.480	-0.010	1.320	78.24	-1.40	1.70	 	 	 	 	 	 	 	 	 	 	 	 	 	 	 	 	 	 	1581535313	7.25	13.43
12/02/2020 19:21:54	120220	12022020	192154	78.40	12.419587	-56.729470	78.46	-0.220	-0.230	1.420	78.43	-1.60	1.80	 	 	 	 	 	 	 	 	 	 	 	 	 	 	 	 	 	 	1581535314	7.69	14.24
12/02/2020 19:21:55	120220	12022020	192155	78.51	12.419593	-56.729435	78.54	0.080	-0.090	1.450	78.53	-1.50	1.80	 	 	 	 	 	 	 	 	 	 	 	 	 	 	 	 	 	 	1581535315	7.36	13.63
12/02/2020 19:21:56	120220	12022020	192156	78.55	12.419603	-56.729403	78.57	0.140	0.060	1.440	78.56	-1.30	1.80	 	 	 	 	 	 	 	 	 	 	 	 	 	 	 	 	 	 	1581535316	7.07	13.09
12/02/2020 19:21:57	120220	12022020	192157	78.61	12.419612	-56.729370	78.65	0.110	-0.270	1.320	78.65	-1.60	1.70	 	 	 	 	 	 	 	 	 	 	 	 	 	 	 	 	 	 	1581535317	7.40	13.70
12/02/2020 19:21:58	120220	12022020	192158	78.89	12.419623	-56.729333	78.97	0.170	-1.030	0.990	78.97	-2.40	1.40	 	 	 	 	 	 	 	 	 	 	 	 	 	 	 	 	 	 	1581535318	8.19	15.17
12/02/2020 19:21:59	120220	12022020	192159	79.24	12.419635	-56.729295	79.43	0.250	-1.260	0.670	79.33	-2.60	1.10	 	 	 	 	 	 	 	 	 	 	 	 	 	 	 	 	 	 	1581535319	8.34	15.45
12/02/2020 19:22:00	120220	12022020	192200	79.88	12.419643	-56.729262	80.01	0.050	-0.390	0.570	80.01	-1.80	1.00	 	 	 	 	 	 	 	 	 	 	 	 	 	 	 	 	 	 	1581535320	7.29	13.50
12/02/2020 19:22:01	120220	12022020	192201	80.51	12.419650	-56.729233	80.62	-0.390	0.920	0.740	80.62	-0.50	1.10	 	 	 	 	 	 	 	 	 	 	 	 	 	 	 	 	 	 	1581535321	6.23	11.54
12/02/2020 19:22:02	120220	12022020	192202	81.02	12.419653	-56.729203	81.12	-0.710	1.500	0.910	81.10	0.10	1.30	1014.30	26.30	26.30	20.10	20.10	276.0	68.0	68.0	418.0	27.2	353.00	14.90	70.00	11.40	25475	12196.0	27.4	27.3	1581535322	6.26	11.59
12/02/2020 19:22:03	120220	12022020	192203	81.36	12.419660	-56.729168	81.44	-0.570	0.770	1.070	81.41	-0.60	1.50	 	 	 	 	 	 	 	 	 	 	 	 	 	 	 	 	 	 	1581535323	7.38	13.67
12/02/2020 19:22:04	120220	12022020	192204	81.56	12.419668	-56.729130	81.63	0.020	-0.810	1.160	81.59	-2.10	1.60	 	 	 	 	 	 	 	 	 	 	 	 	 	 	 	 	 	 	1581535324	8.58	15.89
12/02/2020 19:22:05	120220	12022020	192205	81.78	12.419680	-56.729088	81.87	0.720	-2.180	1.050	81.84	-3.50	1.50	 	 	 	 	 	 	 	 	 	 	 	 	 	 	 	 	 	 	1581535325	9.06	16.78
12/02/2020 19:22:06	120220	12022020	192206	82.23	12.419690	-56.729050	82.37	1.080	-2.250	0.970	82.34	-3.60	1.40	 	 	 	 	 	 	 	 	 	 	 	 	 	 	 	 	 	 	1581535326	8.43	15.61
12/02/2020 19:22:07	120220	12022020	192207	82.88	12.419697	-56.729018	83.05	0.780	-0.750	0.940	83.02	-2.20	1.30	 	 	 	 	 	 	 	 	 	 	 	 	 	 	 	 	 	 	1581535327	6.89	12.76
12/02/2020 19:22:08	120220	12022020	192208	83.61	12.419702	-56.728990	83.78	-0.050	1.100	0.750	83.77	-0.30	1.20	 	 	 	 	 	 	 	 	 	 	 	 	 	 	 	 	 	 	1581535328	5.83	10.80
12/02/2020 19:22:09	120220	12022020	192209	84.39	12.419708	-56.728962	84.55	-0.820	1.790	0.540	84.55	0.40	1.00	 	 	 	 	 	 	 	 	 	 	 	 	 	 	 	 	 	 	1581535329	6.39	11.83
12/02/2020 19:22:10	120220	12022020	192210	85.06	12.419717	-56.728925	85.16	-1.080	1.090	0.400	85.15	-0.30	0.80	 	 	 	 	 	 	 	 	 	 	 	 	 	 	 	 	 	 	1581535330	7.71	14.28
12/02/2020 19:22:11	120220	12022020	192211	85.37	12.419723	-56.728885	85.50	-0.680	-0.280	0.440	85.42	-1.60	0.80	 	 	 	 	 	 	 	 	 	 	 	 	 	 	 	 	 	 	1581535331	8.57	15.87
12/02/2020 19:22:12	120220	12022020	192212	85.84	12.419728	-56.728843	85.99	0.080	-1.500	0.470	85.96	-2.80	0.90	 	 	 	 	 	 	 	 	 	 	 	 	 	 	 	 	 	 	1581535332	8.82	16.33
12/02/2020 19:22:13	120220	12022020	192213	86.40	12.419733	-56.728805	86.76	0.540	-1.610	0.430	86.56	-3.00	0.80	 	 	 	 	 	 	 	 	 	 	 	 	 	 	 	 	 	 	1581535333	8.25	15.28
12/02/2020 19:22:14	120220	12022020	192214	87.38	12.419740	-56.728773	87.57	0.270	-0.530	0.170	87.52	-2.00	0.60	 	 	 	 	 	 	 	 	 	 	 	 	 	 	 	 	 	 	1581535334	6.84	12.67
12/02/2020 19:22:15	120220	12022020	192215	88.08	12.419745	-56.728745	88.26	-0.280	0.640	-0.160	88.21	-0.80	0.20	 	 	 	 	 	 	 	 	 	 	 	 	 	 	 	 	 	 	1581535335	6.17	11.43
12/02/2020 19:22:16	120220	12022020	192216	88.76	12.419750	-56.728712	88.94	-0.390	0.670	-0.330	88.89	-0.70	0.10	 	 	 	 	 	 	 	 	 	 	 	 	 	 	 	 	 	 	1581535336	6.95	12.87
12/02/2020 19:22:17	120220	12022020	192217	89.26	12.419755	-56.728673	89.38	0.090	-0.330	-0.130	89.34	-1.70	0.30	 	 	 	 	 	 	 	 	 	 	 	 	 	 	 	 	 	 	1581535337	8.38	15.52
12/02/2020 19:22:18	120220	12022020	192218	89.64	12.419758	-56.728632	89.78	0.590	-1.010	-0.020	89.74	-2.40	0.40	 	 	 	 	 	 	 	 	 	 	 	 	 	 	 	 	 	 	1581535338	8.74	16.19
12/02/2020 19:22:19	120220	12022020	192219	90.24	12.419765	-56.728595	90.43	0.500	-0.690	-0.040	90.40	-2.10	0.40	 	 	 	 	 	 	 	 	 	 	 	 	 	 	 	 	 	 	1581535339	7.83	14.50
12/02/2020 19:22:20	120220	12022020	192220	91.14	12.419768	-56.728563	91.41	-0.120	0.200	0.070	91.35	-1.20	0.50	 	 	 	 	 	 	 	 	 	 	 	 	 	 	 	 	 	 	1581535340	6.75	12.50
12/02/2020 19:22:21	120220	12022020	192221	92.14	12.419770	-56.728532	92.39	-0.560	0.680	0.290	92.33	-0.70	0.70	 	 	 	 	 	 	 	 	 	 	 	 	 	 	 	 	 	 	1581535341	6.62	12.26
12/02/2020 19:22:22	120220	12022020	192222	93.00	12.419772	-56.728497	93.21	-0.380	0.220	0.420	93.16	-1.10	0.80	 	 	 	 	 	 	 	 	 	 	 	 	 	 	 	 	 	 	1581535342	7.56	14.00
12/02/2020 19:22:23	120220	12022020	192223	93.73	12.419773	-56.728457	93.90	0.220	-0.830	0.430	93.86	-2.20	0.80	 	 	 	 	 	 	 	 	 	 	 	 	 	 	 	 	 	 	1581535343	8.53	15.80
12/02/2020 19:22:24	120220	12022020	192224	94.30	12.419773	-56.728415	94.45	0.720	-1.500	0.680	94.43	-2.90	1.10	 	 	 	 	 	 	 	 	 	 	 	 	 	 	 	 	 	 	1581535344	8.79	16.28
12/02/2020 19:22:25	120220	12022020	192225	95.05	12.419773	-56.728378	95.26	0.550	-0.830	0.790	95.25	-2.30	1.20	 	 	 	 	 	 	 	 	 	 	 	 	 	 	 	 	 	 	1581535345	7.69	14.24
12/02/2020 19:22:26	120220	12022020	192226	96.18	12.419775	-56.728348	96.39	-0.300	0.770	0.580	96.41	-0.70	1.00	 	 	 	 	 	 	 	 	 	 	 	 	 	 	 	 	 	 	1581535346	6.21	11.50
12/02/2020 19:22:27	120220	12022020	192227	97.39	12.419777	-56.728322	97.58	-1.200	1.880	0.270	97.60	0.50	0.70	 	 	 	 	 	 	 	 	 	 	 	 	 	 	 	 	 	 	1581535347	5.71	10.57
12/02/2020 19:22:28	120220	12022020	192228	98.38	12.419775	-56.728288	98.51	-1.300	1.130	0.160	98.53	-0.20	0.60	 	 	 	 	 	 	 	 	 	 	 	 	 	 	 	 	 	 	1581535348	6.99	12.95
12/02/2020 19:22:29	120220	12022020	192229	98.93	12.419770	-56.728247	99.00	-0.330	-1.170	0.260	99.00	-2.40	0.70	 	 	 	 	 	 	 	 	 	 	 	 	 	 	 	 	 	 	1581535349	9.05	16.76
12/02/2020 19:22:30	120220	12022020	192230	99.28	12.419765	-56.728200	99.38	1.030	-3.020	0.240	99.38	-4.30	0.60	 	 	 	 	 	 	 	 	 	 	 	 	 	 	 	 	 	 	1581535350	9.90	18.33
12/02/2020 19:22:31	120220	12022020	192231	99.99	12.419765	-56.728160	100.19	1.810	-2.410	-0.180	100.22	-3.80	0.20	 	 	 	 	 	 	 	 	 	 	 	 	 	 	 	 	 	 	1581535351	8.40	15.56
12/02/2020 19:22:32	120220	12022020	192232	101.36	12.419772	-56.728132	101.61	1.450	0.250	-0.850	101.67	-1.20	-0.40	 	 	 	 	 	 	 	 	 	 	 	 	 	 	 	 	 	 	1581535352	5.98	11.07
12/02/2020 19:22:33	120220	12022020	192233	102.80	12.419775	-56.728108	102.97	0.280	2.200	-0.980	103.02	0.80	-0.60	 	 	 	 	 	 	 	 	 	 	 	 	 	 	 	 	 	 	1581535353	5.29	9.80
12/02/2020 19:22:34	120220	12022020	192234	103.57	12.419772	-56.728077	103.63	-0.840	1.980	-0.190	103.66	0.60	0.20	 	 	 	 	 	 	 	 	 	 	 	 	 	 	 	 	 	 	1581535354	6.66	12.33
12/02/2020 19:22:35	120220	12022020	192235	104.04	12.419760	-56.728040	104.16	-1.420	0.660	0.680	104.16	-0.70	1.00	 	 	 	 	 	 	 	 	 	 	 	 	 	 	 	 	 	 	1581535355	8.18	15.15
12/02/2020 19:22:36	120220	12022020	192236	104.70	12.419748	-56.728003	104.87	-1.360	-0.500	1.360	104.85	-1.80	1.70	 	 	 	 	 	 	 	 	 	 	 	 	 	 	 	 	 	 	1581535356	8.12	15.04
12/02/2020 19:22:37	120220	12022020	192237	105.45	12.419737	-56.727968	105.60	-0.700	-1.490	1.590	105.58	-2.80	2.00	 	 	 	 	 	 	 	 	 	 	 	 	 	 	 	 	 	 	1581535357	7.72	14.30
12/02/2020 19:22:38	120220	12022020	192238	105.96	12.419727	-56.727932	106.06	0.400	-2.560	1.510	106.03	-3.90	1.90	 	 	 	 	 	 	 	 	 	 	 	 	 	 	 	 	 	 	1581535358	8.23	15.24
12/02/2020 19:22:39	120220	12022020	192239	106.33	12.419718	-56.727892	106.45	1.360	-2.730	1.300	106.44	-4.10	1.70	 	 	 	 	 	 	 	 	 	 	 	 	 	 	 	 	 	 	1581535359	8.55	15.83
12/02/2020 19:22:40	120220	12022020	192240	107.07	12.419715	-56.727858	107.26	1.490	-0.850	0.670	107.27	-2.40	1.10	 	 	 	 	 	 	 	 	 	 	 	 	 	 	 	 	 	 	1581535360	7.14	13.22
12/02/2020 19:22:41	120220	12022020	192241	108.27	12.419717	-56.727833	108.50	0.570	2.100	-0.160	108.54	0.60	0.30	 	 	 	 	 	 	 	 	 	 	 	 	 	 	 	 	 	 	1581535361	5.28	9.78
12/02/2020 19:22:42	120220	12022020	192242	109.64	12.419718	-56.727808	109.85	-0.770	3.690	-0.740	109.90	2.30	-0.30	 	 	 	 	 	 	 	 	 	 	 	 	 	 	 	 	 	 	1581535362	5.06	9.37
12/02/2020 19:22:43	120220	12022020	192243	110.73	12.419712	-56.727777	110.86	-1.480	2.490	-0.720	110.90	1.20	-0.30	 	 	 	 	 	 	 	 	 	 	 	 	 	 	 	 	 	 	1581535363	6.82	12.63
12/02/2020 19:22:44	120220	12022020	192244	111.45	12.419698	-56.727737	111.53	-1.070	-0.560	-0.200	111.56	-1.80	0.20	 	 	 	 	 	 	 	 	 	 	 	 	 	 	 	 	 	 	1581535364	9.04	16.74
12/02/2020 19:22:45	120220	12022020	192245	111.93	12.419682	-56.727695	112.02	0.090	-3.250	0.520	112.02	-4.60	0.90	 	 	 	 	 	 	 	 	 	 	 	 	 	 	 	 	 	 	1581535365	9.68	17.93
12/02/2020 19:22:46	120220	12022020	192246	112.35	12.419665	-56.727658	112.44	1.190	-3.870	1.050	112.43	-5.30	1.40	 	 	 	 	 	 	 	 	 	 	 	 	 	 	 	 	 	 	1581535366	8.48	15.70
12/02/2020 19:22:47	120220	12022020	192247	112.82	12.419655	-56.727628	112.95	1.590	-2.320	1.200	112.93	-3.80	1.60	 	 	 	 	 	 	 	 	 	 	 	 	 	 	 	 	 	 	1581535367	6.59	12.20
12/02/2020 19:22:48	120220	12022020	192248	113.54	12.419650	-56.727603	113.72	1.100	0.260	0.840	113.73	-1.20	1.30	 	 	 	 	 	 	 	 	 	 	 	 	 	 	 	 	 	 	1581535368	5.45	10.09
12/02/2020 19:22:49	120220	12022020	192249	114.54	12.419648	-56.727577	114.74	0.000	2.300	0.150	114.76	0.80	0.60	 	 	 	 	 	 	 	 	 	 	 	 	 	 	 	 	 	 	1581535369	5.41	10.02
12/02/2020 19:22:50	120220	12022020	192250	115.67	12.419642	-56.727548	115.88	-1.080	2.580	-0.380	115.91	1.20	0.00	 	 	 	 	 	 	 	 	 	 	 	 	 	 	 	 	 	 	1581535370	6.38	11.82
12/02/2020 19:22:51	120220	12022020	192251	116.81	12.419628	-56.727513	116.97	-1.470	1.120	-0.350	117.01	-0.20	0.00	 	 	 	 	 	 	 	 	 	 	 	 	 	 	 	 	 	 	1581535371	7.85	14.54
12/02/2020 19:22:52	120220	12022020	192252	117.70	12.419608	-56.727477	117.85	-1.010	-0.960	-0.050	117.84	-2.30	0.30	 	 	 	 	 	 	 	 	 	 	 	 	 	 	 	 	 	 	1581535372	8.87	16.43
12/02/2020 19:22:53	120220	12022020	192253	118.37	12.419588	-56.727442	118.49	-0.120	-2.080	0.130	118.49	-3.50	0.50	 	 	 	 	 	 	 	 	 	 	 	 	 	 	 	 	 	 	1581535373	8.56	15.85
12/02/2020 19:22:54	120220	12022020	192254	118.98	12.419575	-56.727412	119.11	0.550	-1.480	0.060	119.12	-2.90	0.50	 	 	 	 	 	 	 	 	 	 	 	 	 	 	 	 	 	 	1581535374	6.98	12.93
12/02/2020 19:22:55	120220	12022020	192255	119.77	12.419567	-56.727387	119.92	0.750	-0.020	-0.320	119.95	-1.50	0.10	 	 	 	 	 	 	 	 	 	 	 	 	 	 	 	 	 	 	1581535375	5.75	10.65
12/02/2020 19:22:56	120220	12022020	192256	120.68	12.419560	-56.727358	120.84	0.750	0.650	-0.630	120.86	-0.70	-0.20	 	 	 	 	 	 	 	 	 	 	 	 	 	 	 	 	 	 	1581535376	6.06	11.22
12/02/2020 19:22:57	120220	12022020	192257	121.53	12.419547	-56.727323	121.69	0.810	-0.220	-0.530	121.68	-1.60	-0.20	 	 	 	 	 	 	 	 	 	 	 	 	 	 	 	 	 	 	1581535377	7.67	14.20
12/02/2020 19:22:58	120220	12022020	192258	122.11	12.419528	-56.727287	122.21	0.760	-1.450	0.120	122.19	-2.80	0.50	 	 	 	 	 	 	 	 	 	 	 	 	 	 	 	 	 	 	1581535378	8.79	16.28
12/02/2020 19:22:59	120220	12022020	192259	122.42	12.419507	-56.727257	122.55	0.290	-1.280	1.020	122.50	-2.70	1.40	 	 	 	 	 	 	 	 	 	 	 	 	 	 	 	 	 	 	1581535379	8.01	14.83
12/02/2020 19:23:00	120220	12022020	192300	123.01	12.419492	-56.727233	123.25	-0.540	0.490	1.460	123.20	-1.00	1.80	 	 	 	 	 	 	 	 	 	 	 	 	 	 	 	 	 	 	1581535380	6.02	11.15
12/02/2020 19:23:01	120220	12022020	192301	124.13	12.419480	-56.727212	124.44	-1.320	2.110	1.290	124.39	0.70	1.70	 	 	 	 	 	 	 	 	 	 	 	 	 	 	 	 	 	 	1581535381	4.99	9.24
12/02/2020 19:23:02	120220	12022020	192302	125.39	12.419465	-56.727187	125.64	-1.420	1.620	0.930	125.61	0.30	1.30	1014.30	26.40	26.40	20.40	20.40	371.0	69.0	69.0	413.0	27.2	336.00	14.60	70.00	11.40	29804	20000.0	27.4	27.3	1581535382	6.29	11.65
12/02/2020 19:23:03	120220	12022020	192303	126.16	12.419442	-56.727152	126.42	-0.540	-0.930	0.760	126.29	-2.20	1.10	 	 	 	 	 	 	 	 	 	 	 	 	 	 	 	 	 	 	1581535383	8.85	16.39
12/02/2020 19:23:04	120220	12022020	192304	126.76	12.419415	-56.727113	126.87	0.770	-2.920	0.700	126.85	-4.30	1.10	 	 	 	 	 	 	 	 	 	 	 	 	 	 	 	 	 	 	1581535384	9.86	18.26
12/02/2020 19:23:05	120220	12022020	192305	127.42	12.419397	-56.727083	127.57	1.420	-2.030	0.480	127.58	-3.50	0.90	 	 	 	 	 	 	 	 	 	 	 	 	 	 	 	 	 	 	1581535385	7.69	14.24
12/02/2020 19:23:06	120220	12022020	192306	128.36	12.419387	-56.727062	128.53	0.900	0.450	0.280	128.56	-1.10	0.70	 	 	 	 	 	 	 	 	 	 	 	 	 	 	 	 	 	 	1581535386	5.04	9.33
12/02/2020 19:23:07	120220	12022020	192307	129.29	12.419377	-56.727042	129.43	-0.130	2.010	0.250	129.46	0.60	0.60	 	 	 	 	 	 	 	 	 	 	 	 	 	 	 	 	 	 	1581535387	4.75	8.80
12/02/2020 19:23:08	120220	12022020	192308	130.02	12.419360	-56.727015	130.13	-0.590	1.430	0.400	130.15	0.10	0.80	 	 	 	 	 	 	 	 	 	 	 	 	 	 	 	 	 	 	1581535388	6.59	12.20
12/02/2020 19:23:09	120220	12022020	192309	130.61	12.419335	-56.726983	130.74	-0.130	-0.290	0.700	130.73	-1.60	1.10	 	 	 	 	 	 	 	 	 	 	 	 	 	 	 	 	 	 	1581535389	8.41	15.58
12/02/2020 19:23:10	120220	12022020	192310	131.34	12.419312	-56.726952	131.55	0.550	-1.320	1.000	131.54	-2.70	1.40	 	 	 	 	 	 	 	 	 	 	 	 	 	 	 	 	 	 	1581535390	8.43	15.61
12/02/2020 19:23:11	120220	12022020	192311	132.40	12.419292	-56.726927	132.63	0.590	-1.050	1.190	132.63	-2.50	1.50	 	 	 	 	 	 	 	 	 	 	 	 	 	 	 	 	 	 	1581535391	6.97	12.91
12/02/2020 19:23:12	120220	12022020	192312	133.41	12.419272	-56.726905	133.59	-0.010	-0.380	1.390	133.57	-1.80	1.70	 	 	 	 	 	 	 	 	 	 	 	 	 	 	 	 	 	 	1581535392	5.96	11.04
12/02/2020 19:23:13	120220	12022020	192313	134.01	12.419252	-56.726883	134.11	-0.500	-0.300	1.600	134.07	-1.70	2.00	 	 	 	 	 	 	 	 	 	 	 	 	 	 	 	 	 	 	1581535393	6.36	11.78
12/02/2020 19:23:14	120220	12022020	192314	134.28	12.419228	-56.726858	134.37	-0.350	-0.880	1.890	134.33	-2.30	2.20	 	 	 	 	 	 	 	 	 	 	 	 	 	 	 	 	 	 	1581535394	7.57	14.02
12/02/2020 19:23:15	120220	12022020	192315	134.63	12.419202	-56.726832	134.81	0.020	-1.050	2.110	134.75	-2.50	2.50	 	 	 	 	 	 	 	 	 	 	 	 	 	 	 	 	 	 	1581535395	7.93	14.69
12/02/2020 19:23:16	120220	12022020	192316	135.37	12.419178	-56.726808	135.60	0.010	-0.240	1.830	135.54	-1.70	2.20	 	 	 	 	 	 	 	 	 	 	 	 	 	 	 	 	 	 	1581535396	7.03	13.02
12/02/2020 19:23:17	120220	12022020	192317	136.39	12.419160	-56.726787	136.64	-0.330	0.940	1.110	136.59	-0.50	1.50	 	 	 	 	 	 	 	 	 	 	 	 	 	 	 	 	 	 	1581535397	6.08	11.26
12/02/2020 19:23:18	120220	12022020	192318	137.48	12.419142	-56.726762	137.72	-0.400	1.380	0.330	137.70	-0.00	0.70	 	 	 	 	 	 	 	 	 	 	 	 	 	 	 	 	 	 	1581535398	6.34	11.74
12/02/2020 19:23:19	120220	12022020	192319	138.55	12.419122	-56.726733	138.76	0.010	0.710	-0.290	138.76	-0.70	0.10	 	 	 	 	 	 	 	 	 	 	 	 	 	 	 	 	 	 	1581535399	7.46	13.82
12/02/2020 19:23:20	120220	12022020	192320	139.57	12.419098	-56.726705	139.80	0.380	-0.400	-0.420	139.78	-1.80	-0.10	 	 	 	 	 	 	 	 	 	 	 	 	 	 	 	 	 	 	1581535400	8.12	15.04
12/02/2020 19:23:21	120220	12022020	192321	140.56	12.419070	-56.726682	140.78	0.350	-0.970	0.110	140.75	-2.40	0.40	 	 	 	 	 	 	 	 	 	 	 	 	 	 	 	 	 	 	1581535401	7.63	14.13
12/02/2020 19:23:22	120220	12022020	192322	141.43	12.419045	-56.726663	141.62	0.140	-0.690	0.740	141.58	-2.10	1.10	 	 	 	 	 	 	 	 	 	 	 	 	 	 	 	 	 	 	1581535402	6.63	12.28
12/02/2020 19:23:23	120220	12022020	192323	142.08	12.419022	-56.726647	142.26	0.190	-0.340	1.260	142.19	-1.80	1.60	 	 	 	 	 	 	 	 	 	 	 	 	 	 	 	 	 	 	1581535403	6.22	11.52
12/02/2020 19:23:24	120220	12022020	192324	142.63	12.418997	-56.726625	142.83	0.460	-0.430	1.610	142.75	-1.80	2.00	 	 	 	 	 	 	 	 	 	 	 	 	 	 	 	 	 	 	1581535404	6.88	12.74
12/02/2020 19:23:25	120220	12022020	192325	143.31	12.418970	-56.726603	143.56	0.550	-0.720	1.690	143.48	-2.10	2.10	 	 	 	 	 	 	 	 	 	 	 	 	 	 	 	 	 	 	1581535405	7.40	13.70
12/02/2020 19:23:26	120220	12022020	192326	144.14	12.418943	-56.726580	144.39	0.300	-0.900	1.570	144.30	-2.30	1.90	 	 	 	 	 	 	 	 	 	 	 	 	 	 	 	 	 	 	1581535406	7.51	13.91
12/02/2020 19:23:27	120220	12022020	192327	144.80	12.418917	-56.726560	144.97	-0.090	-0.770	1.600	144.89	-2.20	1.90	 	 	 	 	 	 	 	 	 	 	 	 	 	 	 	 	 	 	1581535407	7.33	13.58
12/02/2020 19:23:28	120220	12022020	192328	145.22	12.418888	-56.726540	145.39	-0.250	-0.220	1.660	145.32	-1.70	2.00	 	 	 	 	 	 	 	 	 	 	 	 	 	 	 	 	 	 	1581535408	7.11	13.17
12/02/2020 19:23:29	120220	12022020	192329	145.94	12.418865	-56.726520	146.20	-0.290	0.580	1.330	146.14	-0.90	1.70	 	 	 	 	 	 	 	 	 	 	 	 	 	 	 	 	 	 	1581535409	6.84	12.67
12/02/2020 19:23:30	120220	12022020	192330	147.10	12.418842	-56.726498	147.38	-0.480	0.880	0.960	147.32	-0.50	1.30	 	 	 	 	 	 	 	 	 	 	 	 	 	 	 	 	 	 	1581535410	6.87	12.72
12/02/2020 19:23:31	120220	12022020	192331	148.13	12.418812	-56.726478	148.35	-0.720	0.170	1.150	148.29	-1.20	1.50	 	 	 	 	 	 	 	 	 	 	 	 	 	 	 	 	 	 	1581535411	7.66	14.19
12/02/2020 19:23:32	120220	12022020	192332	148.92	12.418775	-56.726462	149.11	-0.700	-0.730	1.400	149.07	-2.10	1.70	 	 	 	 	 	 	 	 	 	 	 	 	 	 	 	 	 	 	1581535412	8.39	15.54
12/02/2020 19:23:33	120220	12022020	192333	149.71	12.418743	-56.726445	149.89	-0.340	-0.820	1.330	149.86	-2.20	1.70	 	 	 	 	 	 	 	 	 	 	 	 	 	 	 	 	 	 	1581535413	7.79	14.43
12/02/2020 19:23:34	120220	12022020	192334	150.48	12.418717	-56.726428	150.64	0.130	-0.190	1.110	150.62	-1.60	1.50	 	 	 	 	 	 	 	 	 	 	 	 	 	 	 	 	 	 	1581535414	6.84	12.67
12/02/2020 19:23:35	120220	12022020	192335	151.21	12.418692	-56.726410	151.36	0.430	0.470	0.670	151.37	-1.00	1.10	 	 	 	 	 	 	 	 	 	 	 	 	 	 	 	 	 	 	1581535415	6.45	11.95
12/02/2020 19:23:36	120220	12022020	192336	152.04	12.418667	-56.726390	152.17	0.500	0.490	0.050	152.21	-0.90	0.40	 	 	 	 	 	 	 	 	 	 	 	 	 	 	 	 	 	 	1581535416	6.89	12.76
12/02/2020 19:23:37	120220	12022020	192337	152.85	12.418637	-56.726368	152.96	0.580	-0.280	-0.210	153.00	-1.60	0.20	 	 	 	 	 	 	 	 	 	 	 	 	 	 	 	 	 	 	1581535417	7.70	14.26
12/02/2020 19:23:38	120220	12022020	192338	153.46	12.418605	-56.726348	153.56	0.840	-1.160	0.080	153.56	-2.50	0.40	 	 	 	 	 	 	 	 	 	 	 	 	 	 	 	 	 	 	1581535418	8.25	15.28
12/02/2020 19:23:39	120220	12022020	192339	153.78	12.418573	-56.726328	153.98	0.900	-1.290	0.630	153.85	-2.70	1.00	 	 	 	 	 	 	 	 	 	 	 	 	 	 	 	 	 	 	1581535419	7.99	14.80
12/02/2020 19:23:40	120220	12022020	192340	154.52	12.418543	-56.726313	154.75	0.250	-0.520	1.230	154.70	-2.00	1.60	 	 	 	 	 	 	 	 	 	 	 	 	 	 	 	 	 	 	1581535420	7.02	13.00
12/02/2020 19:23:41	120220	12022020	192341	155.52	12.418515	-56.726305	155.78	-0.850	0.210	1.700	155.70	-1.20	2.00	 	 	 	 	 	 	 	 	 	 	 	 	 	 	 	 	 	 	1581535421	6.62	12.26
12/02/2020 19:23:42	120220	12022020	192342	156.44	12.418482	-56.726297	156.68	-1.550	0.150	2.010	156.60	-1.30	2.40	 	 	 	 	 	 	 	 	 	 	 	 	 	 	 	 	 	 	1581535422	7.42	13.74
12/02/2020 19:23:43	120220	12022020	192343	157.38	12.418443	-56.726287	157.63	-1.280	-0.310	1.790	157.59	-1.70	2.20	 	 	 	 	 	 	 	 	 	 	 	 	 	 	 	 	 	 	1581535423	8.24	15.26
12/02/2020 19:23:44	120220	12022020	192344	158.39	12.418408	-56.726273	158.58	-0.370	-0.530	1.220	158.57	-1.90	1.60	 	 	 	 	 	 	 	 	 	 	 	 	 	 	 	 	 	 	1581535424	8.12	15.04
12/02/2020 19:23:45	120220	12022020	192345	159.08	12.418375	-56.726257	159.17	0.490	-0.510	0.810	159.17	-1.90	1.20	 	 	 	 	 	 	 	 	 	 	 	 	 	 	 	 	 	 	1581535425	7.90	14.63
12/02/2020 19:23:46	120220	12022020	192346	159.43	12.418343	-56.726240	159.51	0.790	-0.270	0.720	159.51	-1.70	1.10	 	 	 	 	 	 	 	 	 	 	 	 	 	 	 	 	 	 	1581535426	7.83	14.50
12/02/2020 19:23:47	120220	12022020	192347	160.01	12.418313	-56.726223	160.15	0.440	0.390	0.640	160.18	-1.10	1.00	 	 	 	 	 	 	 	 	 	 	 	 	 	 	 	 	 	 	1581535427	7.36	13.63
12/02/2020 19:23:48	120220	12022020	192348	160.92	12.418283	-56.726210	161.06	-0.070	0.920	0.390	161.10	-0.50	0.80	 	 	 	 	 	 	 	 	 	 	 	 	 	 	 	 	 	 	1581535428	6.94	12.85
12/02/2020 19:23:49	120220	12022020	192349	161.74	12.418250	-56.726197	161.83	-0.190	0.430	0.370	161.88	-1.00	0.70	 	 	 	 	 	 	 	 	 	 	 	 	 	 	 	 	 	 	1581535429	7.63	14.13
12/02/2020 19:23:50	120220	12022020	192350	162.51	12.418213	-56.726183	162.65	0.110	-0.500	0.520	162.70	-1.90	0.90	 	 	 	 	 	 	 	 	 	 	 	 	 	 	 	 	 	 	1581535430	8.53	15.80
12/02/2020 19:23:51	120220	12022020	192351	163.52	12.418177	-56.726172	163.71	0.290	-0.870	0.620	163.72	-2.30	1.00	 	 	 	 	 	 	 	 	 	 	 	 	 	 	 	 	 	 	1581535431	8.23	15.24
12/02/2020 19:23:52	120220	12022020	192352	164.46	12.418143	-56.726163	164.60	0.050	-0.740	0.810	164.61	-2.20	1.20	 	 	 	 	 	 	 	 	 	 	 	 	 	 	 	 	 	 	1581535432	7.49	13.87
12/02/2020 19:23:53	120220	12022020	192353	164.95	12.418108	-56.726157	165.08	-0.370	-0.660	1.280	165.03	-2.10	1.60	 	 	 	 	 	 	 	 	 	 	 	 	 	 	 	 	 	 	1581535433	7.42	13.74
12/02/2020 19:23:54	120220	12022020	192354	165.40	12.418073	-56.726152	165.45	-0.480	-0.660	1.640	165.48	-2.10	2.00	 	 	 	 	 	 	 	 	 	 	 	 	 	 	 	 	 	 	1581535434	7.83	14.50
12/02/2020 19:23:55	120220	12022020	192355	165.91	12.418037	-56.726143	166.00	-0.180	-0.560	1.580	166.02	-2.00	1.90	 	 	 	 	 	 	 	 	 	 	 	 	 	 	 	 	 	 	1581535435	7.92	14.67
12/02/2020 19:23:56	120220	12022020	192356	166.53	12.418002	-56.726133	166.63	0.220	-0.420	1.290	166.68	-1.80	1.70	 	 	 	 	 	 	 	 	 	 	 	 	 	 	 	 	 	 	1581535436	8.03	14.87
12/02/2020 19:23:57	120220	12022020	192357	167.33	12.417965	-56.726122	167.43	0.300	-0.180	0.870	167.50	-1.60	1.30	 	 	 	 	 	 	 	 	 	 	 	 	 	 	 	 	 	 	1581535437	8.07	14.95
12/02/2020 19:23:58	120220	12022020	192358	168.20	12.417930	-56.726110	168.31	0.040	0.180	0.560	168.37	-1.20	0.90	 	 	 	 	 	 	 	 	 	 	 	 	 	 	 	 	 	 	1581535438	7.83	14.50
12/02/2020 19:23:59	120220	12022020	192359	168.98	12.417895	-56.726100	169.08	-0.170	0.400	0.390	169.11	-1.00	0.80	 	 	 	 	 	 	 	 	 	 	 	 	 	 	 	 	 	 	1581535439	7.74	14.33
12/02/2020 19:24:00	120220	12022020	192400	169.65	12.417858	-56.726092	169.78	-0.060	0.250	0.270	169.81	-1.20	0.60	 	 	 	 	 	 	 	 	 	 	 	 	 	 	 	 	 	 	1581535440	8.13	15.06
12/02/2020 19:24:01	120220	12022020	192401	170.47	12.417822	-56.726082	170.64	0.110	-0.040	0.300	170.65	-1.40	0.70	 	 	 	 	 	 	 	 	 	 	 	 	 	 	 	 	 	 	1581535441	8.37	15.50
12/02/2020 19:24:02	120220	12022020	192402	171.39	12.417783	-56.726075	171.58	-0.030	-0.370	0.800	171.57	-1.80	1.10	1014.20	26.30	26.30	20.40	20.50	452.0	70.0	70.0	407.0	27.3	304.00	13.60	78.00	12.20	32745	5451.0	27.4	27.4	1581535442	8.32	15.41
12/02/2020 19:24:03	120220	12022020	192403	172.22	12.417745	-56.726073	172.40	-0.460	-0.670	1.670	172.35	-2.10	2.00	 	 	 	 	 	 	 	 	 	 	 	 	 	 	 	 	 	 	1581535443	8.31	15.39
12/02/2020 19:24:04	120220	12022020	192404	172.76	12.417707	-56.726078	172.92	-0.710	-0.850	2.480	172.84	-2.30	2.80	 	 	 	 	 	 	 	 	 	 	 	 	 	 	 	 	 	 	1581535444	8.39	15.54
12/02/2020 19:24:05	120220	12022020	192405	173.14	12.417668	-56.726080	173.29	-0.390	-0.660	2.650	173.22	-2.10	3.00	 	 	 	 	 	 	 	 	 	 	 	 	 	 	 	 	 	 	1581535445	8.20	15.19
12/02/2020 19:24:06	120220	12022020	192406	173.67	12.417632	-56.726075	173.85	0.280	-0.010	2.010	173.82	-1.50	2.40	 	 	 	 	 	 	 	 	 	 	 	 	 	 	 	 	 	 	1581535446	7.67	14.20
12/02/2020 19:24:07	120220	12022020	192407	174.55	12.417598	-56.726065	174.73	0.770	0.550	0.920	174.74	-0.90	1.30	 	 	 	 	 	 	 	 	 	 	 	 	 	 	 	 	 	 	1581535447	7.54	13.96
12/02/2020 19:24:08	120220	12022020	192408	175.50	12.417563	-56.726052	175.64	0.810	0.300	0.080	175.67	-1.10	0.50	 	 	 	 	 	 	 	 	 	 	 	 	 	 	 	 	 	 	1581535448	8.16	15.11
12/02/2020 19:24:09	120220	12022020	192409	176.35	12.417522	-56.726043	176.51	0.470	-0.650	-0.090	176.51	-2.00	0.30	 	 	 	 	 	 	 	 	 	 	 	 	 	 	 	 	 	 	1581535449	8.91	16.50
12/02/2020 19:24:10	120220	12022020	192410	177.15	12.417480	-56.726042	177.32	-0.010	-1.320	0.310	177.29	-2.70	0.70	 	 	 	 	 	 	 	 	 	 	 	 	 	 	 	 	 	 	1581535450	9.00	16.67
12/02/2020 19:24:11	120220	12022020	192411	177.79	12.417442	-56.726042	177.94	-0.340	-1.120	0.870	177.91	-2.60	1.20	 	 	 	 	 	 	 	 	 	 	 	 	 	 	 	 	 	 	1581535451	8.39	15.54
12/02/2020 19:24:12	120220	12022020	192412	178.34	12.417405	-56.726043	178.51	-0.480	-0.370	1.220	178.45	-1.80	1.60	 	 	 	 	 	 	 	 	 	 	 	 	 	 	 	 	 	 	1581535452	7.74	14.33
12/02/2020 19:24:13	120220	12022020	192413	178.94	12.417370	-56.726045	179.14	-0.510	0.190	1.170	179.08	-1.20	1.50	 	 	 	 	 	 	 	 	 	 	 	 	 	 	 	 	 	 	1581535453	7.82	14.48
12/02/2020 19:24:14	120220	12022020	192414	179.75	12.417330	-56.726043	180.01	-0.450	0.380	0.770	179.95	-1.00	1.10	 	 	 	 	 	 	 	 	 	 	 	 	 	 	 	 	 	 	1581535454	8.27	15.32
12/02/2020 19:24:15	120220	12022020	192415	180.83	12.417292	-56.726042	181.10	-0.260	0.320	0.100	181.04	-1.10	0.50	 	 	 	 	 	 	 	 	 	 	 	 	 	 	 	 	 	 	1581535455	8.45	15.65
12/02/2020 19:24:16	120220	12022020	192416	181.82	12.417252	-56.726038	182.06	0.090	-0.160	-0.360	182.00	-1.60	0.00	 	 	 	 	 	 	 	 	 	 	 	 	 	 	 	 	 	 	1581535456	8.78	16.26
12/02/2020 19:24:17	120220	12022020	192417	182.54	12.417208	-56.726037	182.72	0.430	-0.830	-0.200	182.65	-2.20	0.10	 	 	 	 	 	 	 	 	 	 	 	 	 	 	 	 	 	 	1581535457	9.15	16.95
12/02/2020 19:24:18	120220	12022020	192418	182.98	12.417167	-56.726038	183.14	0.400	-0.940	0.490	183.04	-2.40	0.80	 	 	 	 	 	 	 	 	 	 	 	 	 	 	 	 	 	 	1581535458	8.87	16.43
12/02/2020 19:24:19	120220	12022020	192419	183.34	12.417130	-56.726045	183.54	-0.060	-0.330	1.210	183.42	-1.80	1.50	 	 	 	 	 	 	 	 	 	 	 	 	 	 	 	 	 	 	1581535459	8.11	15.02
12/02/2020 19:24:20	120220	12022020	192420	183.86	12.417095	-56.726052	184.11	-0.550	0.470	1.520	183.98	-1.00	1.80	 	 	 	 	 	 	 	 	 	 	 	 	 	 	 	 	 	 	1581535460	7.69	14.24
12/02/2020 19:24:21	120220	12022020	192421	184.56	12.417058	-56.726058	184.83	-0.630	0.820	1.520	184.71	-0.60	1.80	 	 	 	 	 	 	 	 	 	 	 	 	 	 	 	 	 	 	1581535461	7.83	14.50
12/02/2020 19:24:22	120220	12022020	192422	185.43	12.417020	-56.726062	185.74	-0.180	0.500	1.070	185.65	-0.90	1.40	 	 	 	 	 	 	 	 	 	 	 	 	 	 	 	 	 	 	1581535462	8.48	15.70
12/02/2020 19:24:23	120220	12022020	192423	186.59	12.416978	-56.726063	186.92	0.420	-0.120	0.110	186.85	-1.50	0.50	 	 	 	 	 	 	 	 	 	 	 	 	 	 	 	 	 	 	1581535463	8.93	16.54
12/02/2020 19:24:24	120220	12022020	192424	187.88	12.416937	-56.726063	188.20	0.700	-0.620	-0.550	188.15	-2.00	-0.20	 	 	 	 	 	 	 	 	 	 	 	 	 	 	 	 	 	 	1581535464	8.82	16.33
12/02/2020 19:24:25	120220	12022020	192425	189.10	12.416898	-56.726065	189.37	0.630	-0.840	-0.760	189.30	-2.20	-0.40	 	 	 	 	 	 	 	 	 	 	 	 	 	 	 	 	 	 	1581535465	8.32	15.41
12/02/2020 19:24:26	120220	12022020	192426	189.82	12.416860	-56.726068	189.97	0.450	-1.190	-0.370	189.88	-2.60	-0.10	 	 	 	 	 	 	 	 	 	 	 	 	 	 	 	 	 	 	1581535466	8.34	15.45
12/02/2020 19:24:27	120220	12022020	192427	189.93	12.416818	-56.726075	190.03	0.350	-1.720	0.620	189.92	-3.10	0.90	 	 	 	 	 	 	 	 	 	 	 	 	 	 	 	 	 	 	1581535467	8.97	16.61
12/02/2020 19:24:28	120220	12022020	192428	189.89	12.416777	-56.726087	190.02	0.080	-1.670	1.710	189.90	-3.10	2.00	 	 	 	 	 	 	 	 	 	 	 	 	 	 	 	 	 	 	1581535468	9.25	17.13
12/02/2020 19:24:29	120220	12022020	192429	190.00	12.416738	-56.726098	190.26	-0.480	-0.600	2.340	190.06	-2.10	2.60	 	 	 	 	 	 	 	 	 	 	 	 	 	 	 	 	 	 	1581535469	8.56	15.85
12/02/2020 19:24:30	120220	12022020	192430	190.60	12.416703	-56.726110	190.85	-1.010	0.770	2.260	190.74	-0.70	2.60	 	 	 	 	 	 	 	 	 	 	 	 	 	 	 	 	 	 	1581535470	7.91	14.65
12/02/2020 19:24:31	120220	12022020	192431	191.44	12.416667	-56.726118	191.71	-1.230	1.430	1.760	191.63	0.00	2.10	 	 	 	 	 	 	 	 	 	 	 	 	 	 	 	 	 	 	1581535471	8.25	15.28
12/02/2020 19:24:32	120220	12022020	192432	192.57	12.416627	-56.726130	192.90	-1.020	1.290	1.220	192.81	-0.10	1.50	 	 	 	 	 	 	 	 	 	 	 	 	 	 	 	 	 	 	1581535472	8.95	16.58
12/02/2020 19:24:33	120220	12022020	192433	193.85	12.416585	-56.726142	194.16	-0.460	0.810	0.530	194.10	-0.60	0.90	 	 	 	 	 	 	 	 	 	 	 	 	 	 	 	 	 	 	1581535473	9.13	16.91
12/02/2020 19:24:34	120220	12022020	192434	195.01	12.416545	-56.726150	195.24	0.340	0.300	-0.270	195.21	-1.10	0.10	 	 	 	 	 	 	 	 	 	 	 	 	 	 	 	 	 	 	1581535474	8.91	16.50
12/02/2020 19:24:35	120220	12022020	192435	195.84	12.416503	-56.726155	196.00	1.190	-0.300	-0.780	195.99	-1.70	-0.50	 	 	 	 	 	 	 	 	 	 	 	 	 	 	 	 	 	 	1581535475	8.84	16.37
12/02/2020 19:24:36	120220	12022020	192436	196.61	12.416463	-56.726160	196.80	1.610	-0.690	-1.010	196.78	-2.10	-0.70	 	 	 	 	 	 	 	 	 	 	 	 	 	 	 	 	 	 	1581535476	8.74	16.19
12/02/2020 19:24:37	120220	12022020	192437	197.36	12.416425	-56.726165	197.51	1.310	-1.100	-0.760	197.48	-2.50	-0.50	 	 	 	 	 	 	 	 	 	 	 	 	 	 	 	 	 	 	1581535477	8.47	15.69
12/02/2020 19:24:38	120220	12022020	192438	197.78	12.416385	-56.726178	197.87	0.500	-1.730	0.180	197.83	-3.10	0.40	 	 	 	 	 	 	 	 	 	 	 	 	 	 	 	 	 	 	1581535478	8.87	16.43
12/02/2020 19:24:39	120220	12022020	192439	198.00	12.416347	-56.726198	198.09	-0.380	-1.950	1.350	198.04	-3.40	1.60	 	 	 	 	 	 	 	 	 	 	 	 	 	 	 	 	 	 	1581535479	9.25	17.13
12/02/2020 19:24:40	120220	12022020	192440	198.25	12.416310	-56.726220	198.38	-0.990	-1.370	2.280	198.33	-2.80	2.50	 	 	 	 	 	 	 	 	 	 	 	 	 	 	 	 	 	 	1581535480	9.04	16.74
12/02/2020 19:24:41	120220	12022020	192441	198.72	12.416275	-56.726240	198.89	-1.120	-0.340	2.420	198.84	-1.80	2.70	 	 	 	 	 	 	 	 	 	 	 	 	 	 	 	 	 	 	1581535481	8.60	15.93
12/02/2020 19:24:42	120220	12022020	192442	199.36	12.416238	-56.726255	199.54	-0.820	0.480	1.900	199.50	-1.00	2.20	 	 	 	 	 	 	 	 	 	 	 	 	 	 	 	 	 	 	1581535482	8.64	16.00
12/02/2020 19:24:43	120220	12022020	192443	199.95	12.416197	-56.726267	200.27	-0.390	0.740	1.020	200.11	-0.70	1.30	 	 	 	 	 	 	 	 	 	 	 	 	 	 	 	 	 	 	1581535483	9.19	17.02
12/02/2020 19:24:44	120220	12022020	192444	201.02	12.416153	-56.726277	201.21	-0.110	0.730	0.080	201.23	-0.70	0.40	 	 	 	 	 	 	 	 	 	 	 	 	 	 	 	 	 	 	1581535484	9.54	17.67
12/02/2020 19:24:45	120220	12022020	192445	202.22	12.416113	-56.726288	202.44	-0.010	0.800	-0.550	202.47	-0.60	-0.20	 	 	 	 	 	 	 	 	 	 	 	 	 	 	 	 	 	 	1581535485	9.20	17.04
12/02/2020 19:24:46	120220	12022020	192446	203.60	12.416075	-56.726302	203.83	0.090	0.900	-0.900	203.89	-0.50	-0.60	 	 	 	 	 	 	 	 	 	 	 	 	 	 	 	 	 	 	1581535486	8.67	16.06
12/02/2020 19:24:47	120220	12022020	192447	204.95	12.416038	-56.726317	205.12	0.400	0.660	-1.200	205.18	-0.70	-0.90	 	 	 	 	 	 	 	 	 	 	 	 	 	 	 	 	 	 	1581535487	8.45	15.65
12/02/2020 19:24:48	120220	12022020	192448	205.88	12.415998	-56.726332	205.95	0.880	-0.400	-1.090	206.02	-1.80	-0.80	 	 	 	 	 	 	 	 	 	 	 	 	 	 	 	 	 	 	1581535488	9.11	16.87
12/02/2020 19:24:49	120220	12022020	192449	206.36	12.415957	-56.726350	206.36	1.100	-1.620	-0.410	206.40	-3.00	-0.20	 	 	 	 	 	 	 	 	 	 	 	 	 	 	 	 	 	 	1581535489	9.62	17.82
12/02/2020 19:24:50	120220	12022020	192450	206.41	12.415918	-56.726372	206.38	0.840	-2.290	0.620	206.39	-3.70	0.90	 	 	 	 	 	 	 	 	 	 	 	 	 	 	 	 	 	 	1581535490	9.53	17.65
12/02/2020 19:24:51	120220	12022020	192451	206.40	12.415883	-56.726393	206.45	0.220	-1.990	1.440	206.45	-3.40	1.70	 	 	 	 	 	 	 	 	 	 	 	 	 	 	 	 	 	 	1581535491	9.06	16.78
12/02/2020 19:24:52	120220	12022020	192452	206.82	12.415850	-56.726415	206.96	-0.470	-0.880	1.730	206.96	-2.30	2.00	 	 	 	 	 	 	 	 	 	 	 	 	 	 	 	 	 	 	1581535492	8.43	15.61
12/02/2020 19:24:53	120220	12022020	192453	207.60	12.415817	-56.726437	207.79	-0.890	0.270	1.640	207.77	-1.20	1.90	 	 	 	 	 	 	 	 	 	 	 	 	 	 	 	 	 	 	1581535493	8.17	15.13
12/02/2020 19:24:54	120220	12022020	192454	208.43	12.415782	-56.726457	208.60	-0.840	0.620	1.130	208.59	-0.80	1.40	 	 	 	 	 	 	 	 	 	 	 	 	 	 	 	 	 	 	1581535494	8.84	16.37
12/02/2020 19:24:55	120220	12022020	192455	209.15	12.415740	-56.726478	209.32	-0.370	0.210	0.390	209.30	-1.20	0.70	 	 	 	 	 	 	 	 	 	 	 	 	 	 	 	 	 	 	1581535495	9.90	18.33
12/02/2020 19:24:56	120220	12022020	192456	209.96	12.415697	-56.726498	210.13	0.120	-0.050	-0.330	210.14	-1.40	-0.00	 	 	 	 	 	 	 	 	 	 	 	 	 	 	 	 	 	 	1581535496	10.19	18.87
12/02/2020 19:24:57	120220	12022020	192457	210.99	12.415657	-56.726517	211.19	0.280	0.290	-0.940	211.19	-1.10	-0.70	 	 	 	 	 	 	 	 	 	 	 	 	 	 	 	 	 	 	1581535497	9.44	17.48
12/02/2020 19:24:58	120220	12022020	192458	212.08	12.415620	-56.726533	212.30	0.080	0.680	-1.190	212.31	-0.70	-0.90	 	 	 	 	 	 	 	 	 	 	 	 	 	 	 	 	 	 	1581535498	8.84	16.37
12/02/2020 19:24:59	120220	12022020	192459	213.30	12.415585	-56.726555	213.59	-0.220	0.730	-1.120	213.58	-0.70	-0.90	 	 	 	 	 	 	 	 	 	 	 	 	 	 	 	 	 	 	1581535499	8.80	16.30
12/02/2020 19:25:00	120220	12022020	192500	214.73	12.415550	-56.726578	215.04	-0.290	0.410	-1.110	215.03	-1.00	-0.90	 	 	 	 	 	 	 	 	 	 	 	 	 	 	 	 	 	 	1581535500	8.90	16.48
12/02/2020 19:25:01	120220	12022020	192501	216.06	12.415515	-56.726603	216.30	0.060	-0.400	-1.070	216.28	-1.70	-0.80	 	 	 	 	 	 	 	 	 	 	 	 	 	 	 	 	 	 	1581535501	9.12	16.89
12/02/2020 19:25:02	120220	12022020	192502	216.87	12.415478	-56.726628	217.00	0.670	-1.540	-0.580	216.95	-2.90	-0.40	1014.40	26.30	26.30	20.60	20.60	341.0	70.0	70.0	403.0	27.3	266.00	9.20	74.00	10.80	28766	8468.0	27.4	27.4	1581535502	9.67	17.91
12/02/2020 19:25:03	120220	12022020	192503	217.05	12.415442	-56.726655	217.09	1.060	-2.270	0.340	217.02	-3.60	0.60	 	 	 	 	 	 	 	 	 	 	 	 	 	 	 	 	 	 	1581535503	9.83	18.21
12/02/2020 19:25:04	120220	12022020	192504	216.81	12.415407	-56.726683	216.85	0.800	-1.990	1.270	216.76	-3.40	1.50	 	 	 	 	 	 	 	 	 	 	 	 	 	 	 	 	 	 	1581535504	9.36	17.33
12/02/2020 19:25:05	120220	12022020	192505	216.77	12.415377	-56.726710	216.90	-0.020	-0.840	1.580	216.83	-2.30	1.80	 	 	 	 	 	 	 	 	 	 	 	 	 	 	 	 	 	 	1581535505	8.70	16.11
12/02/2020 19:25:06	120220	12022020	192506	217.29	12.415347	-56.726735	217.53	-0.850	0.400	1.320	217.46	-1.00	1.60	 	 	 	 	 	 	 	 	 	 	 	 	 	 	 	 	 	 	1581535506	8.48	15.70
12/02/2020 19:25:07	120220	12022020	192507	218.27	12.415313	-56.726763	218.56	-1.120	1.060	0.790	218.51	-0.30	1.10	 	 	 	 	 	 	 	 	 	 	 	 	 	 	 	 	 	 	1581535507	8.97	16.61
12/02/2020 19:25:08	120220	12022020	192508	219.63	12.415280	-56.726792	219.94	-0.740	1.120	-0.140	219.92	-0.20	0.20	 	 	 	 	 	 	 	 	 	 	 	 	 	 	 	 	 	 	1581535508	9.55	17.69
12/02/2020 19:25:09	120220	12022020	192509	221.16	12.415242	-56.726818	221.42	-0.040	0.700	-1.090	221.43	-0.60	-0.80	 	 	 	 	 	 	 	 	 	 	 	 	 	 	 	 	 	 	1581535509	9.90	18.33
12/02/2020 19:25:10	120220	12022020	192510	222.57	12.415203	-56.726847	222.79	0.510	0.010	-1.620	222.82	-1.30	-1.40	 	 	 	 	 	 	 	 	 	 	 	 	 	 	 	 	 	 	1581535510	10.07	18.65
12/02/2020 19:25:11	120220	12022020	192511	223.84	12.415168	-56.726875	224.02	0.620	-0.530	-1.650	224.07	-1.90	-1.40	 	 	 	 	 	 	 	 	 	 	 	 	 	 	 	 	 	 	1581535511	9.84	18.22
12/02/2020 19:25:12	120220	12022020	192512	224.83	12.415135	-56.726903	224.94	0.340	-0.640	-1.140	224.99	-2.00	-0.90	 	 	 	 	 	 	 	 	 	 	 	 	 	 	 	 	 	 	1581535512	9.27	17.17
12/02/2020 19:25:13	120220	12022020	192513	225.47	12.415107	-56.726933	225.55	0.020	-0.450	-0.310	225.56	-1.80	-0.10	 	 	 	 	 	 	 	 	 	 	 	 	 	 	 	 	 	 	1581535513	8.77	16.24
12/02/2020 19:25:14	120220	12022020	192514	225.77	12.415078	-56.726963	225.83	-0.080	-0.400	0.550	225.80	-1.80	0.80	 	 	 	 	 	 	 	 	 	 	 	 	 	 	 	 	 	 	1581535514	8.76	16.22
12/02/2020 19:25:15	120220	12022020	192515	225.85	12.415050	-56.726997	225.94	0.030	-0.730	1.220	225.87	-2.10	1.40	 	 	 	 	 	 	 	 	 	 	 	 	 	 	 	 	 	 	1581535515	9.31	17.24
12/02/2020 19:25:16	120220	12022020	192516	226.00	12.415020	-56.727030	226.13	0.170	-1.040	1.440	226.06	-2.40	1.70	 	 	 	 	 	 	 	 	 	 	 	 	 	 	 	 	 	 	1581535516	9.77	18.09
12/02/2020 19:25:17	120220	12022020	192517	226.50	12.414988	-56.727063	226.71	0.140	-0.740	1.060	226.66	-2.10	1.30	 	 	 	 	 	 	 	 	 	 	 	 	 	 	 	 	 	 	1581535517	9.50	17.59
12/02/2020 19:25:18	120220	12022020	192518	227.56	12.414958	-56.727092	227.87	-0.080	0.010	0.110	227.85	-1.40	0.40	 	 	 	 	 	 	 	 	 	 	 	 	 	 	 	 	 	 	1581535518	8.91	16.50
12/02/2020 19:25:19	120220	12022020	192519	229.16	12.414928	-56.727120	229.48	-0.250	0.540	-0.980	229.50	-0.80	-0.70	 	 	 	 	 	 	 	 	 	 	 	 	 	 	 	 	 	 	1581535519	8.80	16.30
12/02/2020 19:25:20	120220	12022020	192520	230.77	12.414897	-56.727150	231.04	-0.150	0.380	-1.640	231.07	-1.00	-1.40	 	 	 	 	 	 	 	 	 	 	 	 	 	 	 	 	 	 	1581535520	9.35	17.32
12/02/2020 19:25:21	120220	12022020	192521	232.13	12.414865	-56.727185	232.31	0.130	-0.330	-1.670	232.33	-1.60	-1.50	 	 	 	 	 	 	 	 	 	 	 	 	 	 	 	 	 	 	1581535521	10.02	18.56
12/02/2020 19:25:22	120220	12022020	192522	233.02	12.414835	-56.727222	233.13	0.310	-0.900	-1.200	233.14	-2.20	-1.00	 	 	 	 	 	 	 	 	 	 	 	 	 	 	 	 	 	 	1581535522	10.14	18.78
12/02/2020 19:25:23	120220	12022020	192523	233.49	12.414808	-56.727258	233.56	0.170	-0.860	-0.480	233.55	-2.20	-0.30	 	 	 	 	 	 	 	 	 	 	 	 	 	 	 	 	 	 	1581535523	9.62	17.82
12/02/2020 19:25:24	120220	12022020	192524	233.71	12.414783	-56.727293	233.79	-0.170	-0.400	0.110	233.75	-1.80	0.30	 	 	 	 	 	 	 	 	 	 	 	 	 	 	 	 	 	 	1581535524	9.11	16.87
12/02/2020 19:25:25	120220	12022020	192525	233.97	12.414758	-56.727328	234.11	-0.430	0.210	0.160	234.06	-1.20	0.40	 	 	 	 	 	 	 	 	 	 	 	 	 	 	 	 	 	 	1581535525	8.99	16.65
12/02/2020 19:25:26	120220	12022020	192526	234.56	12.414733	-56.727360	234.74	-0.390	0.720	-0.320	234.71	-0.70	-0.10	 	 	 	 	 	 	 	 	 	 	 	 	 	 	 	 	 	 	1581535526	8.91	16.50
12/02/2020 19:25:27	120220	12022020	192527	235.38	12.414705	-56.727393	235.58	-0.060	0.540	-1.030	235.56	-0.80	-0.80	 	 	 	 	 	 	 	 	 	 	 	 	 	 	 	 	 	 	1581535527	9.29	17.21
12/02/2020 19:25:28	120220	12022020	192528	236.27	12.414675	-56.727430	236.46	0.350	-0.390	-1.500	236.44	-1.70	-1.30	 	 	 	 	 	 	 	 	 	 	 	 	 	 	 	 	 	 	1581535528	10.06	18.63
12/02/2020 19:25:29	120220	12022020	192529	236.98	12.414647	-56.727470	237.12	0.580	-1.410	-1.300	237.09	-2.70	-1.10	 	 	 	 	 	 	 	 	 	 	 	 	 	 	 	 	 	 	1581535529	10.40	19.26
12/02/2020 19:25:30	120220	12022020	192530	237.32	12.414622	-56.727510	237.39	0.490	-1.740	-0.580	237.35	-3.10	-0.40	 	 	 	 	 	 	 	 	 	 	 	 	 	 	 	 	 	 	1581535530	10.08	18.67
12/02/2020 19:25:31	120220	12022020	192531	237.44	12.414600	-56.727550	237.58	0.110	-1.120	0.100	237.48	-2.50	0.30	 	 	 	 	 	 	 	 	 	 	 	 	 	 	 	 	 	 	1581535531	9.38	17.37
12/02/2020 19:25:32	120220	12022020	192532	237.90	12.414582	-56.727587	238.09	-0.390	-0.020	0.300	238.04	-1.40	0.50	 	 	 	 	 	 	 	 	 	 	 	 	 	 	 	 	 	 	1581535532	8.82	16.33
12/02/2020 19:25:33	120220	12022020	192533	238.55	12.414560	-56.727623	238.98	-0.750	0.840	-0.050	238.75	-0.50	0.20	 	 	 	 	 	 	 	 	 	 	 	 	 	 	 	 	 	 	1581535533	8.89	16.46
12/02/2020 19:25:34	120220	12022020	192534	239.75	12.414537	-56.727660	239.97	-0.720	1.110	-0.670	239.92	-0.20	-0.40	 	 	 	 	 	 	 	 	 	 	 	 	 	 	 	 	 	 	1581535534	9.34	17.30
12/02/2020 19:25:35	120220	12022020	192535	240.62	12.414510	-56.727698	240.80	-0.300	0.790	-1.310	240.78	-0.50	-1.10	 	 	 	 	 	 	 	 	 	 	 	 	 	 	 	 	 	 	1581535535	9.88	18.30
12/02/2020 19:25:36	120220	12022020	192536	241.41	12.414483	-56.727737	241.55	0.250	0.210	-1.700	241.55	-1.10	-1.50	 	 	 	 	 	 	 	 	 	 	 	 	 	 	 	 	 	 	1581535536	10.02	18.56
12/02/2020 19:25:37	120220	12022020	192537	241.98	12.414460	-56.727777	242.06	0.630	-0.400	-1.570	242.05	-1.70	-1.40	 	 	 	 	 	 	 	 	 	 	 	 	 	 	 	 	 	 	1581535537	9.82	18.19
12/02/2020 19:25:38	120220	12022020	192538	242.23	12.414438	-56.727817	242.28	0.760	-1.000	-1.120	242.27	-2.30	-0.90	 	 	 	 	 	 	 	 	 	 	 	 	 	 	 	 	 	 	1581535538	9.67	17.91
12/02/2020 19:25:39	120220	12022020	192539	242.45	12.414418	-56.727857	242.51	0.660	-1.490	-0.730	242.50	-2.80	-0.50	 	 	 	 	 	 	 	 	 	 	 	 	 	 	 	 	 	 	1581535539	9.73	18.02
12/02/2020 19:25:40	120220	12022020	192540	242.78	12.414397	-56.727898	242.87	0.330	-1.650	-0.600	242.86	-3.00	-0.40	 	 	 	 	 	 	 	 	 	 	 	 	 	 	 	 	 	 	1581535540	9.75	18.06
12/02/2020 19:25:41	120220	12022020	192541	243.19	12.414373	-56.727938	243.26	-0.180	-1.360	-0.650	243.27	-2.70	-0.40	 	 	 	 	 	 	 	 	 	 	 	 	 	 	 	 	 	 	1581535541	9.68	17.93
12/02/2020 19:25:42	120220	12022020	192542	243.54	12.414352	-56.727977	243.60	-0.620	-0.730	-0.630	243.60	-2.10	-0.40	 	 	 	 	 	 	 	 	 	 	 	 	 	 	 	 	 	 	1581535542	9.64	17.85
12/02/2020 19:25:43	120220	12022020	192543	243.82	12.414330	-56.728017	243.87	-0.820	0.060	-0.470	243.87	-1.30	-0.30	 	 	 	 	 	 	 	 	 	 	 	 	 	 	 	 	 	 	1581535543	9.62	17.82
12/02/2020 19:25:44	120220	12022020	192544	244.13	12.414310	-56.728058	244.22	-0.780	0.680	-0.320	244.22	-0.70	-0.10	 	 	 	 	 	 	 	 	 	 	 	 	 	 	 	 	 	 	1581535544	9.74	18.04
12/02/2020 19:25:45	120220	12022020	192545	244.63	12.414292	-56.728102	244.76	-0.570	1.000	-0.380	244.77	-0.40	-0.20	 	 	 	 	 	 	 	 	 	 	 	 	 	 	 	 	 	 	1581535545	9.92	18.37
12/02/2020 19:25:46	120220	12022020	192546	245.34	12.414273	-56.728145	245.45	-0.280	1.050	-0.630	245.48	-0.30	-0.40	 	 	 	 	 	 	 	 	 	 	 	 	 	 	 	 	 	 	1581535546	9.93	18.39
12/02/2020 19:25:47	120220	12022020	192547	246.07	12.414255	-56.728188	246.16	0.100	0.750	-1.030	246.19	-0.60	-0.80	 	 	 	 	 	 	 	 	 	 	 	 	 	 	 	 	 	 	1581535547	9.89	18.32
12/02/2020 19:25:48	120220	12022020	192548	246.63	12.414237	-56.728230	246.66	0.530	0.110	-1.310	246.71	-1.20	-1.10	 	 	 	 	 	 	 	 	 	 	 	 	 	 	 	 	 	 	1581535548	9.98	18.48
12/02/2020 19:25:49	120220	12022020	192549	246.85	12.414217	-56.728273	246.77	0.850	-0.720	-1.280	246.84	-2.00	-1.10	 	 	 	 	 	 	 	 	 	 	 	 	 	 	 	 	 	 	1581535549	10.08	18.67
12/02/2020 19:25:50	120220	12022020	192550	246.63	12.414198	-56.728318	246.47	0.870	-1.490	-0.960	246.55	-2.80	-0.80	 	 	 	 	 	 	 	 	 	 	 	 	 	 	 	 	 	 	1581535550	10.14	18.78
12/02/2020 19:25:51	120220	12022020	192551	246.14	12.414180	-56.728362	245.97	0.560	-1.750	-0.520	246.04	-3.10	-0.30	 	 	 	 	 	 	 	 	 	 	 	 	 	 	 	 	 	 	1581535551	9.99	18.50
12/02/2020 19:25:52	120220	12022020	192552	245.69	12.414165	-56.728403	245.56	0.130	-1.190	-0.320	245.63	-2.60	-0.10	 	 	 	 	 	 	 	 	 	 	 	 	 	 	 	 	 	 	1581535552	9.46	17.52
12/02/2020 19:25:53	120220	12022020	192553	245.43	12.414148	-56.728443	245.34	-0.240	-0.350	-0.510	245.40	-1.70	-0.30	 	 	 	 	 	 	 	 	 	 	 	 	 	 	 	 	 	 	1581535553	9.09	16.83
12/02/2020 19:25:54	120220	12022020	192554	245.40	12.414130	-56.728483	245.36	-0.540	0.050	-0.910	245.41	-1.30	-0.70	 	 	 	 	 	 	 	 	 	 	 	 	 	 	 	 	 	 	1581535554	9.49	17.58
12/02/2020 19:25:55	120220	12022020	192555	245.54	12.414110	-56.728528	245.51	-0.690	-0.040	-1.190	245.57	-1.40	-1.00	 	 	 	 	 	 	 	 	 	 	 	 	 	 	 	 	 	 	1581535555	10.19	18.87
12/02/2020 19:25:56	120220	12022020	192556	245.66	12.414090	-56.728573	245.60	-0.570	-0.130	-1.160	245.66	-1.50	-0.90	 	 	 	 	 	 	 	 	 	 	 	 	 	 	 	 	 	 	1581535556	10.45	19.35
12/02/2020 19:25:57	120220	12022020	192557	245.64	12.414072	-56.728617	245.57	-0.220	0.060	-0.780	245.63	-1.30	-0.60	 	 	 	 	 	 	 	 	 	 	 	 	 	 	 	 	 	 	1581535557	10.17	18.83
12/02/2020 19:25:58	120220	12022020	192558	245.51	12.414055	-56.728660	245.41	0.130	0.280	0.050	245.46	-1.10	0.20	 	 	 	 	 	 	 	 	 	 	 	 	 	 	 	 	 	 	1581535558	9.90	18.33
12/02/2020 19:25:59	120220	12022020	192559	245.15	12.414042	-56.728707	245.04	0.310	0.220	1.120	245.06	-1.10	1.30	 	 	 	 	 	 	 	 	 	 	 	 	 	 	 	 	 	 	1581535559	10.05	18.61
12/02/2020 19:26:00	120220	12022020	192600	244.62	12.414028	-56.728753	244.50	0.360	-0.120	1.920	244.50	-1.40	2.10	 	 	 	 	 	 	 	 	 	 	 	 	 	 	 	 	 	 	1581535560	10.34	19.15
12/02/2020 19:26:01	120220	12022020	192601	244.01	12.414015	-56.728800	243.91	0.370	-0.430	2.170	243.89	-1.80	2.40	 	 	 	 	 	 	 	 	 	 	 	 	 	 	 	 	 	 	1581535561	10.36	19.19
12/02/2020 19:26:02	120220	12022020	192602	243.49	12.413998	-56.728845	243.40	0.400	-0.560	1.940	243.40	-1.90	2.20	1014.60	26.30	26.40	20.60	20.70	298.0	71.0	71.0	400.0	27.3	217.00	5.60	75.00	10.20	27164	10234.0	27.4	27.4	1581535562	10.07	18.65
12/02/2020 19:26:03	120220	12022020	192603	243.12	12.413978	-56.728888	243.06	0.370	-0.650	1.420	243.06	-2.00	1.70	 	 	 	 	 	 	 	 	 	 	 	 	 	 	 	 	 	 	1581535563	9.92	18.37
12/02/2020 19:26:04	120220	12022020	192604	242.95	12.413958	-56.728930	242.93	0.200	-0.790	0.860	242.94	-2.10	1.10	 	 	 	 	 	 	 	 	 	 	 	 	 	 	 	 	 	 	1581535564	10.04	18.59
12/02/2020 19:26:05	120220	12022020	192605	242.98	12.413938	-56.728973	243.00	-0.060	-0.810	0.490	243.01	-2.20	0.70	 	 	 	 	 	 	 	 	 	 	 	 	 	 	 	 	 	 	1581535565	10.13	18.76
12/02/2020 19:26:06	120220	12022020	192606	243.24	12.413918	-56.729017	243.30	-0.340	-0.560	0.240	243.33	-1.90	0.50	 	 	 	 	 	 	 	 	 	 	 	 	 	 	 	 	 	 	1581535566	10.00	18.52
12/02/2020 19:26:07	120220	12022020	192607	243.80	12.413898	-56.729058	243.93	-0.550	-0.190	0.030	243.95	-1.50	0.30	 	 	 	 	 	 	 	 	 	 	 	 	 	 	 	 	 	 	1581535567	9.88	18.30
12/02/2020 19:26:08	120220	12022020	192608	244.58	12.413878	-56.729100	244.75	-0.530	0.170	-0.070	244.76	-1.20	0.20	 	 	 	 	 	 	 	 	 	 	 	 	 	 	 	 	 	 	1581535568	9.90	18.33
12/02/2020 19:26:09	120220	12022020	192609	245.28	12.413858	-56.729143	245.56	-0.190	0.400	-0.040	245.43	-0.90	0.20	 	 	 	 	 	 	 	 	 	 	 	 	 	 	 	 	 	 	1581535569	9.92	18.37
12/02/2020 19:26:10	120220	12022020	192610	246.01	12.413840	-56.729187	246.07	0.320	0.250	0.200	246.08	-1.10	0.40	 	 	 	 	 	 	 	 	 	 	 	 	 	 	 	 	 	 	1581535570	10.17	18.83
12/02/2020 19:26:11	120220	12022020	192611	246.21	12.413820	-56.729233	246.20	0.710	-0.280	0.670	246.21	-1.60	0.90	 	 	 	 	 	 	 	 	 	 	 	 	 	 	 	 	 	 	1581535571	10.56	19.56
12/02/2020 19:26:12	120220	12022020	192612	245.96	12.413803	-56.729280	245.86	0.780	-0.780	1.330	245.86	-2.10	1.50	 	 	 	 	 	 	 	 	 	 	 	 	 	 	 	 	 	 	1581535572	10.64	19.71
12/02/2020 19:26:13	120220	12022020	192613	245.21	12.413788	-56.729327	245.03	0.500	-0.980	2.000	245.01	-2.30	2.20	 	 	 	 	 	 	 	 	 	 	 	 	 	 	 	 	 	 	1581535573	10.46	19.37
12/02/2020 19:26:14	120220	12022020	192614	244.15	12.413773	-56.729373	243.95	0.050	-0.910	2.300	243.93	-2.30	2.50	 	 	 	 	 	 	 	 	 	 	 	 	 	 	 	 	 	 	1581535574	10.27	19.02
12/02/2020 19:26:15	120220	12022020	192615	243.15	12.413758	-56.729420	243.00	-0.370	-0.640	2.070	242.99	-2.00	2.30	 	 	 	 	 	 	 	 	 	 	 	 	 	 	 	 	 	 	1581535575	10.19	18.87
12/02/2020 19:26:16	120220	12022020	192616	242.52	12.413742	-56.729463	242.46	-0.620	-0.180	1.430	242.45	-1.50	1.70	 	 	 	 	 	 	 	 	 	 	 	 	 	 	 	 	 	 	1581535576	10.03	18.58
12/02/2020 19:26:17	120220	12022020	192617	242.32	12.413722	-56.729507	242.32	-0.660	0.200	0.620	242.33	-1.20	0.90	 	 	 	 	 	 	 	 	 	 	 	 	 	 	 	 	 	 	1581535577	9.96	18.45
12/02/2020 19:26:18	120220	12022020	192618	242.49	12.413700	-56.729548	242.56	-0.480	0.300	0.020	242.57	-1.00	0.30	 	 	 	 	 	 	 	 	 	 	 	 	 	 	 	 	 	 	1581535578	10.14	18.78
12/02/2020 19:26:19	120220	12022020	192619	243.01	12.413680	-56.729593	243.14	-0.170	0.190	-0.150	243.14	-1.10	0.10	 	 	 	 	 	 	 	 	 	 	 	 	 	 	 	 	 	 	1581535579	10.33	19.13
12/02/2020 19:26:20	120220	12022020	192620	243.76	12.413662	-56.729638	243.92	0.130	-0.010	0.090	243.93	-1.30	0.30	 	 	 	 	 	 	 	 	 	 	 	 	 	 	 	 	 	 	1581535580	10.35	19.17
12/02/2020 19:26:21	120220	12022020	192621	244.58	12.413645	-56.729683	244.75	0.270	-0.240	0.550	244.74	-1.60	0.80	 	 	 	 	 	 	 	 	 	 	 	 	 	 	 	 	 	 	1581535581	10.23	18.95
12/02/2020 19:26:22	120220	12022020	192622	245.27	12.413628	-56.729728	245.38	0.300	-0.560	1.070	245.38	-1.90	1.30	 	 	 	 	 	 	 	 	 	 	 	 	 	 	 	 	 	 	1581535582	10.19	18.87
12/02/2020 19:26:23	120220	12022020	192623	245.61	12.413612	-56.729775	245.71	0.370	-0.910	1.540	245.66	-2.20	1.80	 	 	 	 	 	 	 	 	 	 	 	 	 	 	 	 	 	 	1581535583	10.30	19.08
12/02/2020 19:26:24	120220	12022020	192624	245.61	12.413593	-56.729820	245.57	0.470	-1.120	2.060	245.54	-2.40	2.30	 	 	 	 	 	 	 	 	 	 	 	 	 	 	 	 	 	 	1581535584	10.41	19.28
12/02/2020 19:26:25	120220	12022020	192625	245.04	12.413577	-56.729867	244.92	0.370	-0.960	2.600	244.88	-2.30	2.80	 	 	 	 	 	 	 	 	 	 	 	 	 	 	 	 	 	 	1581535585	10.37	19.21
12/02/2020 19:26:26	120220	12022020	192626	244.09	12.413558	-56.729912	243.94	0.000	-0.540	2.820	243.88	-1.90	3.10	 	 	 	 	 	 	 	 	 	 	 	 	 	 	 	 	 	 	1581535586	10.27	19.02
12/02/2020 19:26:27	120220	12022020	192627	243.08	12.413540	-56.729957	242.97	-0.450	-0.070	2.550	242.91	-1.40	2.80	 	 	 	 	 	 	 	 	 	 	 	 	 	 	 	 	 	 	1581535587	10.30	19.08
12/02/2020 19:26:28	120220	12022020	192628	242.41	12.413520	-56.730000	242.37	-0.710	0.420	1.850	242.33	-0.90	2.10	 	 	 	 	 	 	 	 	 	 	 	 	 	 	 	 	 	 	1581535588	10.25	18.98
12/02/2020 19:26:29	120220	12022020	192629	242.17	12.413502	-56.730045	242.19	-0.660	0.730	0.950	242.17	-0.60	1.20	 	 	 	 	 	 	 	 	 	 	 	 	 	 	 	 	 	 	1581535589	10.15	18.80
12/02/2020 19:26:30	120220	12022020	192630	242.30	12.413482	-56.730088	242.39	-0.360	0.580	0.050	242.37	-0.80	0.40	 	 	 	 	 	 	 	 	 	 	 	 	 	 	 	 	 	 	1581535590	10.28	19.04
12/02/2020 19:26:31	120220	12022020	192631	242.80	12.413462	-56.730133	242.94	0.050	0.070	-0.600	242.94	-1.30	-0.30	 	 	 	 	 	 	 	 	 	 	 	 	 	 	 	 	 	 	1581535591	10.52	19.48
12/02/2020 19:26:32	120220	12022020	192632	243.47	12.413442	-56.730178	243.60	0.380	-0.540	-0.620	243.60	-1.90	-0.40	 	 	 	 	 	 	 	 	 	 	 	 	 	 	 	 	 	 	1581535592	10.52	19.48
12/02/2020 19:26:33	120220	12022020	192633	244.04	12.413423	-56.730225	244.15	0.490	-1.040	-0.050	244.13	-2.40	0.20	 	 	 	 	 	 	 	 	 	 	 	 	 	 	 	 	 	 	1581535593	10.44	19.33
12/02/2020 19:26:34	120220	12022020	192634	244.40	12.413407	-56.730272	244.49	0.330	-1.290	0.910	244.44	-2.60	1.10	 	 	 	 	 	 	 	 	 	 	 	 	 	 	 	 	 	 	1581535594	10.35	19.17
12/02/2020 19:26:35	120220	12022020	192635	244.44	12.413393	-56.730318	244.44	-0.010	-1.250	1.980	244.40	-2.60	2.20	 	 	 	 	 	 	 	 	 	 	 	 	 	 	 	 	 	 	1581535595	10.34	19.15
12/02/2020 19:26:36	120220	12022020	192636	244.11	12.413378	-56.730365	244.07	-0.290	-0.980	2.620	244.03	-2.30	2.90	 	 	 	 	 	 	 	 	 	 	 	 	 	 	 	 	 	 	1581535596	10.38	19.22
12/02/2020 19:26:37	120220	12022020	192637	243.65	12.413362	-56.730410	243.62	-0.380	-0.490	2.570	243.57	-1.90	2.80	 	 	 	 	 	 	 	 	 	 	 	 	 	 	 	 	 	 	1581535597	10.37	19.21
12/02/2020 19:26:38	120220	12022020	192638	243.32	12.413340	-56.730455	243.28	-0.300	0.040	2.000	243.26	-1.30	2.30	 	 	 	 	 	 	 	 	 	 	 	 	 	 	 	 	 	 	1581535598	10.34	19.15
12/02/2020 19:26:39	120220	12022020	192639	243.04	12.413317	-56.730498	242.97	-0.180	0.410	1.330	242.97	-1.00	1.60	 	 	 	 	 	 	 	 	 	 	 	 	 	 	 	 	 	 	1581535599	10.48	19.41
12/02/2020 19:26:40	120220	12022020	192640	242.70	12.413295	-56.730543	242.63	-0.120	0.600	0.940	242.64	-0.80	1.20	 	 	 	 	 	 	 	 	 	 	 	 	 	 	 	 	 	 	1581535600	10.64	19.71
12/02/2020 19:26:41	120220	12022020	192641	242.48	12.413275	-56.730588	242.47	-0.110	0.790	0.860	242.46	-0.60	1.10	 	 	 	 	 	 	 	 	 	 	 	 	 	 	 	 	 	 	1581535601	10.47	19.39
12/02/2020 19:26:42	120220	12022020	192642	242.47	12.413257	-56.730633	242.49	-0.050	0.750	0.940	242.48	-0.60	1.20	 	 	 	 	 	 	 	 	 	 	 	 	 	 	 	 	 	 	1581535602	10.22	18.93
12/02/2020 19:26:43	120220	12022020	192643	242.57	12.413238	-56.730678	242.63	0.100	0.160	1.040	242.60	-1.20	1.30	 	 	 	 	 	 	 	 	 	 	 	 	 	 	 	 	 	 	1581535603	10.39	19.24
12/02/2020 19:26:44	120220	12022020	192644	242.71	12.413218	-56.730725	242.76	0.270	-0.850	1.170	242.73	-2.20	1.40	 	 	 	 	 	 	 	 	 	 	 	 	 	 	 	 	 	 	1581535604	10.75	19.91
12/02/2020 19:26:45	120220	12022020	192645	242.78	12.413200	-56.730773	242.82	0.340	-1.750	1.220	242.78	-3.10	1.50	 	 	 	 	 	 	 	 	 	 	 	 	 	 	 	 	 	 	1581535605	10.88	20.15
12/02/2020 19:26:46	120220	12022020	192646	242.79	12.413180	-56.730818	242.82	0.220	-1.990	1.090	242.78	-3.30	1.40	 	 	 	 	 	 	 	 	 	 	 	 	 	 	 	 	 	 	1581535606	10.55	19.54
12/02/2020 19:26:47	120220	12022020	192647	242.80	12.413162	-56.730862	242.86	-0.030	-1.500	0.880	242.81	-2.90	1.20	 	 	 	 	 	 	 	 	 	 	 	 	 	 	 	 	 	 	1581535607	10.08	18.67
12/02/2020 19:26:48	120220	12022020	192648	242.87	12.413142	-56.730905	242.94	-0.240	-0.680	0.720	242.89	-2.10	1.00	 	 	 	 	 	 	 	 	 	 	 	 	 	 	 	 	 	 	1581535608	9.94	18.41
12/02/2020 19:26:49	120220	12022020	192649	243.01	12.413123	-56.730950	243.10	-0.330	0.050	0.610	243.05	-1.30	0.90	 	 	 	 	 	 	 	 	 	 	 	 	 	 	 	 	 	 	1581535609	10.21	18.91
12/02/2020 19:26:50	120220	12022020	192650	243.24	12.413103	-56.730995	243.35	-0.330	0.520	0.490	243.30	-0.90	0.80	 	 	 	 	 	 	 	 	 	 	 	 	 	 	 	 	 	 	1581535610	10.60	19.63
12/02/2020 19:26:51	120220	12022020	192651	243.51	12.413082	-56.731042	243.58	-0.300	0.680	0.350	243.54	-0.70	0.70	 	 	 	 	 	 	 	 	 	 	 	 	 	 	 	 	 	 	1581535611	10.84	20.08
12/02/2020 19:26:52	120220	12022020	192652	243.58	12.413062	-56.731088	243.60	-0.230	0.550	0.220	243.56	-0.80	0.50	 	 	 	 	 	 	 	 	 	 	 	 	 	 	 	 	 	 	1581535612	10.98	20.33
12/02/2020 19:26:53	120220	12022020	192653	243.38	12.413038	-56.731137	243.36	-0.160	0.190	0.180	243.30	-1.20	0.50	 	 	 	 	 	 	 	 	 	 	 	 	 	 	 	 	 	 	1581535613	11.02	20.41
12/02/2020 19:26:54	120220	12022020	192654	243.00	12.413015	-56.731183	242.96	-0.160	-0.270	0.360	242.90	-1.60	0.70	 	 	 	 	 	 	 	 	 	 	 	 	 	 	 	 	 	 	1581535614	11.03	20.43
12/02/2020 19:26:55	120220	12022020	192655	242.49	12.412995	-56.731230	242.43	-0.220	-0.590	0.880	242.37	-1.90	1.20	 	 	 	 	 	 	 	 	 	 	 	 	 	 	 	 	 	 	1581535615	10.82	20.04
12/02/2020 19:26:56	120220	12022020	192656	241.82	12.412978	-56.731277	241.75	-0.220	-0.690	1.450	241.68	-2.10	1.70	 	 	 	 	 	 	 	 	 	 	 	 	 	 	 	 	 	 	1581535616	10.60	19.63
12/02/2020 19:26:57	120220	12022020	192657	241.23	12.412962	-56.731323	241.22	-0.070	-0.580	1.600	241.15	-1.90	1.90	 	 	 	 	 	 	 	 	 	 	 	 	 	 	 	 	 	 	1581535617	10.41	19.28
12/02/2020 19:26:58	120220	12022020	192658	241.01	12.412943	-56.731367	241.08	0.200	-0.290	1.220	241.01	-1.70	1.50	 	 	 	 	 	 	 	 	 	 	 	 	 	 	 	 	 	 	1581535618	10.14	18.78
12/02/2020 19:26:59	120220	12022020	192659	241.08	12.412922	-56.731410	241.25	0.460	-0.180	0.660	241.12	-1.50	1.00	 	 	 	 	 	 	 	 	 	 	 	 	 	 	 	 	 	 	1581535619	10.16	18.82
12/02/2020 19:27:00	120220	12022020	192700	241.42	12.412900	-56.731455	241.54	0.600	-0.380	0.380	241.48	-1.70	0.70	 	 	 	 	 	 	 	 	 	 	 	 	 	 	 	 	 	 	1581535620	10.53	19.50
12/02/2020 19:27:01	120220	12022020	192701	241.57	12.412878	-56.731502	241.62	0.570	-0.680	0.660	241.56	-2.00	0.90	 	 	 	 	 	 	 	 	 	 	 	 	 	 	 	 	 	 	1581535621	10.85	20.09
12/02/2020 19:27:02	120220	12022020	192702	241.32	12.412858	-56.731548	241.33	0.370	-0.780	1.310	241.24	-2.10	1.60	1014.60	26.40	28.10	20.50	21.30	275.0	70.0	66.0	400.0	27.3	206.00	5.10	76.00	10.10	26062	11181.0	27.4	27.4	1581535622	10.92	20.22
12/02/2020 19:27:03	120220	12022020	192703	240.85	12.412840	-56.731597	240.87	0.050	-0.570	1.900	240.76	-1.90	2.20	 	 	 	 	 	 	 	 	 	 	 	 	 	 	 	 	 	 	1581535623	10.80	20.00
12/02/2020 19:27:04	120220	12022020	192704	240.43	12.412820	-56.731642	240.46	-0.340	-0.250	2.150	240.35	-1.60	2.50	 	 	 	 	 	 	 	 	 	 	 	 	 	 	 	 	 	 	1581535624	10.66	19.74
12/02/2020 19:27:05	120220	12022020	192705	240.15	12.412800	-56.731688	240.21	-0.620	-0.110	2.020	240.11	-1.50	2.30	 	 	 	 	 	 	 	 	 	 	 	 	 	 	 	 	 	 	1581535625	10.80	20.00
12/02/2020 19:27:06	120220	12022020	192706	240.07	12.412777	-56.731737	240.16	-0.680	-0.160	1.570	240.07	-1.50	1.90	 	 	 	 	 	 	 	 	 	 	 	 	 	 	 	 	 	 	1581535626	11.00	20.37
12/02/2020 19:27:07	120220	12022020	192707	240.17	12.412753	-56.731782	240.29	-0.540	-0.220	0.970	240.21	-1.60	1.30	 	 	 	 	 	 	 	 	 	 	 	 	 	 	 	 	 	 	1581535627	11.01	20.39
12/02/2020 19:27:08	120220	12022020	192708	240.38	12.412730	-56.731827	240.51	-0.270	-0.200	0.430	240.43	-1.60	0.80	 	 	 	 	 	 	 	 	 	 	 	 	 	 	 	 	 	 	1581535628	10.81	20.02
12/02/2020 19:27:09	120220	12022020	192709	240.57	12.412705	-56.731872	240.67	0.080	-0.220	0.120	240.59	-1.60	0.50	 	 	 	 	 	 	 	 	 	 	 	 	 	 	 	 	 	 	1581535629	10.69	19.80
12/02/2020 19:27:10	120220	12022020	192710	240.60	12.412680	-56.731915	240.67	0.360	-0.350	0.110	240.58	-1.70	0.50	 	 	 	 	 	 	 	 	 	 	 	 	 	 	 	 	 	 	1581535630	10.78	19.96
12/02/2020 19:27:11	120220	12022020	192711	240.48	12.412657	-56.731960	240.47	0.410	-0.490	0.470	240.43	-1.90	0.80	 	 	 	 	 	 	 	 	 	 	 	 	 	 	 	 	 	 	1581535631	10.86	20.11
12/02/2020 19:27:12	120220	12022020	192712	240.03	12.412635	-56.732007	240.03	0.250	-0.440	1.070	239.92	-1.80	1.40	 	 	 	 	 	 	 	 	 	 	 	 	 	 	 	 	 	 	1581535632	10.83	20.06
12/02/2020 19:27:13	120220	12022020	192713	239.60	12.412617	-56.732053	239.54	0.040	-0.140	1.580	239.50	-1.50	1.90	 	 	 	 	 	 	 	 	 	 	 	 	 	 	 	 	 	 	1581535633	10.69	19.80
12/02/2020 19:27:14	120220	12022020	192714	239.18	12.412598	-56.732100	239.27	-0.050	0.250	1.660	239.16	-1.10	2.00	 	 	 	 	 	 	 	 	 	 	 	 	 	 	 	 	 	 	1581535634	10.55	19.54
12/02/2020 19:27:15	120220	12022020	192715	239.08	12.412578	-56.732145	239.18	0.010	0.360	1.360	239.06	-1.00	1.70	 	 	 	 	 	 	 	 	 	 	 	 	 	 	 	 	 	 	1581535635	10.55	19.54
12/02/2020 19:27:16	120220	12022020	192716	239.03	12.412555	-56.732192	239.12	0.120	0.050	0.950	239.01	-1.30	1.30	 	 	 	 	 	 	 	 	 	 	 	 	 	 	 	 	 	 	1581535636	10.86	20.11
12/02/2020 19:27:17	120220	12022020	192717	238.92	12.412530	-56.732238	239.00	0.170	-0.490	0.620	238.88	-1.80	1.00	 	 	 	 	 	 	 	 	 	 	 	 	 	 	 	 	 	 	1581535637	11.11	20.58
12/02/2020 19:27:18	120220	12022020	192718	238.69	12.412507	-56.732283	238.73	0.120	-0.930	0.500	238.62	-2.30	0.90	 	 	 	 	 	 	 	 	 	 	 	 	 	 	 	 	 	 	1581535638	11.06	20.48
12/02/2020 19:27:19	120220	12022020	192719	238.32	12.412482	-56.732330	238.32	0.030	-1.170	0.660	238.22	-2.50	1.00	 	 	 	 	 	 	 	 	 	 	 	 	 	 	 	 	 	 	1581535639	10.94	20.26
12/02/2020 19:27:20	120220	12022020	192720	237.78	12.412458	-56.732375	237.77	-0.030	-1.180	1.020	237.66	-2.60	1.40	 	 	 	 	 	 	 	 	 	 	 	 	 	 	 	 	 	 	1581535640	10.87	20.13
12/02/2020 19:27:21	120220	12022020	192721	237.12	12.412435	-56.732420	237.12	-0.050	-0.990	1.470	236.99	-2.40	1.80	 	 	 	 	 	 	 	 	 	 	 	 	 	 	 	 	 	 	1581535641	10.90	20.19
12/02/2020 19:27:22	120220	12022020	192722	236.51	12.412412	-56.732467	236.55	-0.100	-0.670	1.860	236.41	-2.00	2.20	 	 	 	 	 	 	 	 	 	 	 	 	 	 	 	 	 	 	1581535642	10.97	20.32
12/02/2020 19:27:23	120220	12022020	192723	236.05	12.412390	-56.732513	236.14	-0.180	-0.290	2.000	235.99	-1.70	2.30	 	 	 	 	 	 	 	 	 	 	 	 	 	 	 	 	 	 	1581535643	11.06	20.48
12/02/2020 19:27:24	120220	12022020	192724	235.85	12.412367	-56.732560	236.00	-0.270	0.160	1.880	235.85	-1.20	2.20	 	 	 	 	 	 	 	 	 	 	 	 	 	 	 	 	 	 	1581535644	11.02	20.41
12/02/2020 19:27:25	120220	12022020	192725	235.94	12.412342	-56.732605	236.14	-0.330	0.600	1.540	235.98	-0.80	1.90	 	 	 	 	 	 	 	 	 	 	 	 	 	 	 	 	 	 	1581535645	10.84	20.08
12/02/2020 19:27:26	120220	12022020	192726	236.17	12.412317	-56.732650	236.37	-0.310	0.770	1.310	236.22	-0.60	1.70	 	 	 	 	 	 	 	 	 	 	 	 	 	 	 	 	 	 	1581535646	10.82	20.04
12/02/2020 19:27:27	120220	12022020	192727	236.35	12.412292	-56.732695	236.51	-0.140	0.580	1.420	236.36	-0.80	1.80	 	 	 	 	 	 	 	 	 	 	 	 	 	 	 	 	 	 	1581535647	10.96	20.30
12/02/2020 19:27:28	120220	12022020	192728	236.28	12.412267	-56.732740	236.42	0.180	0.110	1.810	236.24	-1.20	2.20	 	 	 	 	 	 	 	 	 	 	 	 	 	 	 	 	 	 	1581535648	11.07	20.50
12/02/2020 19:27:29	120220	12022020	192729	235.97	12.412242	-56.732787	236.07	0.480	-0.450	2.220	235.89	-1.80	2.60	 	 	 	 	 	 	 	 	 	 	 	 	 	 	 	 	 	 	1581535649	11.12	20.59
12/02/2020 19:27:30	120220	12022020	192730	235.56	12.412215	-56.732832	235.68	0.590	-0.900	2.250	235.50	-2.30	2.60	 	 	 	 	 	 	 	 	 	 	 	 	 	 	 	 	 	 	1581535650	11.05	20.46
12/02/2020 19:27:31	120220	12022020	192731	235.35	12.412188	-56.732873	235.51	0.430	-1.020	1.840	235.33	-2.40	2.20	 	 	 	 	 	 	 	 	 	 	 	 	 	 	 	 	 	 	1581535651	10.80	20.00
12/02/2020 19:27:32	120220	12022020	192732	235.33	12.412160	-56.732915	235.48	0.120	-0.910	1.330	235.33	-2.30	1.70	 	 	 	 	 	 	 	 	 	 	 	 	 	 	 	 	 	 	1581535652	10.56	19.56
12/02/2020 19:27:33	120220	12022020	192733	235.30	12.412133	-56.732958	235.41	-0.080	-0.830	1.090	235.27	-2.20	1.50	 	 	 	 	 	 	 	 	 	 	 	 	 	 	 	 	 	 	1581535653	10.65	19.72
12/02/2020 19:27:34	120220	12022020	192734	235.07	12.412107	-56.733003	235.13	-0.090	-0.810	1.350	234.99	-2.20	1.70	 	 	 	 	 	 	 	 	 	 	 	 	 	 	 	 	 	 	1581535654	10.97	20.32
12/02/2020 19:27:35	120220	12022020	192735	234.62	12.412083	-56.733048	234.67	-0.060	-0.690	1.850	234.52	-2.10	2.20	 	 	 	 	 	 	 	 	 	 	 	 	 	 	 	 	 	 	1581535655	11.15	20.65
12/02/2020 19:27:36	120220	12022020	192736	234.15	12.412058	-56.733095	234.21	-0.140	-0.440	2.220	234.07	-1.80	2.60	 	 	 	 	 	 	 	 	 	 	 	 	 	 	 	 	 	 	1581535656	11.14	20.63
12/02/2020 19:27:37	120220	12022020	192737	233.82	12.412033	-56.733142	233.93	-0.310	-0.140	2.310	233.79	-1.50	2.70	 	 	 	 	 	 	 	 	 	 	 	 	 	 	 	 	 	 	1581535657	11.11	20.58
12/02/2020 19:27:38	120220	12022020	192738	233.87	12.412008	-56.733187	234.07	-0.410	0.160	1.990	233.94	-1.20	2.40	 	 	 	 	 	 	 	 	 	 	 	 	 	 	 	 	 	 	1581535658	11.03	20.43
12/02/2020 19:27:39	120220	12022020	192739	234.49	12.411980	-56.733230	234.78	-0.330	0.320	1.270	234.66	-1.10	1.70	 	 	 	 	 	 	 	 	 	 	 	 	 	 	 	 	 	 	1581535659	10.95	20.28
12/02/2020 19:27:40	120220	12022020	192740	235.44	12.411950	-56.733273	235.74	-0.140	0.150	0.660	235.62	-1.20	1.10	 	 	 	 	 	 	 	 	 	 	 	 	 	 	 	 	 	 	1581535660	11.10	20.56
12/02/2020 19:27:41	120220	12022020	192741	236.34	12.411922	-56.733318	236.61	0.060	-0.190	0.420	236.49	-1.50	0.80	 	 	 	 	 	 	 	 	 	 	 	 	 	 	 	 	 	 	1581535661	11.28	20.89
12/02/2020 19:27:42	120220	12022020	192742	236.89	12.411893	-56.733362	237.06	0.240	-0.370	0.460	236.94	-1.70	0.80	 	 	 	 	 	 	 	 	 	 	 	 	 	 	 	 	 	 	1581535662	11.12	20.59
12/02/2020 19:27:43	120220	12022020	192743	236.93	12.411867	-56.733405	237.01	0.350	-0.410	0.700	236.88	-1.80	1.10	 	 	 	 	 	 	 	 	 	 	 	 	 	 	 	 	 	 	1581535663	10.91	20.21
12/02/2020 19:27:44	120220	12022020	192744	236.55	12.411838	-56.733448	236.57	0.300	-0.480	1.050	236.44	-1.90	1.40	 	 	 	 	 	 	 	 	 	 	 	 	 	 	 	 	 	 	1581535664	10.92	20.22
12/02/2020 19:27:45	120220	12022020	192745	235.87	12.411812	-56.733493	235.85	0.110	-0.560	1.400	235.70	-1.90	1.80	 	 	 	 	 	 	 	 	 	 	 	 	 	 	 	 	 	 	1581535665	11.01	20.39
12/02/2020 19:27:46	120220	12022020	192746	234.93	12.411785	-56.733538	234.89	-0.060	-0.610	1.600	234.72	-2.00	2.00	 	 	 	 	 	 	 	 	 	 	 	 	 	 	 	 	 	 	1581535666	11.08	20.52
12/02/2020 19:27:47	120220	12022020	192747	233.91	12.411758	-56.733583	233.88	-0.120	-0.540	1.560	233.72	-1.90	1.90	 	 	 	 	 	 	 	 	 	 	 	 	 	 	 	 	 	 	1581535667	11.11	20.58
12/02/2020 19:27:48	120220	12022020	192748	233.20	12.411732	-56.733628	233.26	-0.130	-0.310	1.330	233.13	-1.70	1.70	 	 	 	 	 	 	 	 	 	 	 	 	 	 	 	 	 	 	1581535668	10.97	20.32
12/02/2020 19:27:49	120220	12022020	192749	233.08	12.411707	-56.733672	233.22	-0.170	-0.050	1.020	233.11	-1.40	1.40	 	 	 	 	 	 	 	 	 	 	 	 	 	 	 	 	 	 	1581535669	10.79	19.98
12/02/2020 19:27:50	120220	12022020	192750	233.41	12.411680	-56.733715	233.61	-0.200	-0.000	0.770	233.51	-1.40	1.20	 	 	 	 	 	 	 	 	 	 	 	 	 	 	 	 	 	 	1581535670	10.83	20.06
12/02/2020 19:27:51	120220	12022020	192751	234.04	12.411653	-56.733760	234.28	-0.100	-0.270	0.660	234.18	-1.60	1.00	 	 	 	 	 	 	 	 	 	 	 	 	 	 	 	 	 	 	1581535671	11.09	20.54
12/02/2020 19:27:52	120220	12022020	192752	234.88	12.411627	-56.733805	235.17	0.050	-0.600	0.680	235.05	-2.00	1.10	 	 	 	 	 	 	 	 	 	 	 	 	 	 	 	 	 	 	1581535672	11.27	20.87
12/02/2020 19:27:53	120220	12022020	192753	235.70	12.411600	-56.733850	235.94	0.110	-0.780	0.860	235.82	-2.20	1.20	 	 	 	 	 	 	 	 	 	 	 	 	 	 	 	 	 	 	1581535673	11.14	20.63
12/02/2020 19:27:54	120220	12022020	192754	236.14	12.411573	-56.733895	236.31	0.060	-0.830	1.170	236.17	-2.20	1.50	 	 	 	 	 	 	 	 	 	 	 	 	 	 	 	 	 	 	1581535674	11.08	20.52
12/02/2020 19:27:55	120220	12022020	192755	236.14	12.411547	-56.733940	236.26	-0.020	-0.680	1.520	236.10	-2.10	1.90	 	 	 	 	 	 	 	 	 	 	 	 	 	 	 	 	 	 	1581535675	11.09	20.54
12/02/2020 19:27:56	120220	12022020	192756	235.91	12.411518	-56.733983	236.00	-0.080	-0.290	1.590	235.85	-1.70	2.00	 	 	 	 	 	 	 	 	 	 	 	 	 	 	 	 	 	 	1581535676	10.98	20.33
12/02/2020 19:27:57	120220	12022020	192757	235.60	12.411490	-56.734027	235.69	-0.090	0.090	1.340	235.53	-1.30	1.70	 	 	 	 	 	 	 	 	 	 	 	 	 	 	 	 	 	 	1581535677	10.92	20.22
12/02/2020 19:27:58	120220	12022020	192758	235.25	12.411458	-56.734070	235.32	0.000	0.180	1.000	235.18	-1.20	1.40	 	 	 	 	 	 	 	 	 	 	 	 	 	 	 	 	 	 	1581535678	11.11	20.58
12/02/2020 19:27:59	120220	12022020	192759	234.90	12.411428	-56.734113	234.98	0.100	-0.040	0.780	234.83	-1.40	1.20	 	 	 	 	 	 	 	 	 	 	 	 	 	 	 	 	 	 	1581535679	11.38	21.08
12/02/2020 19:28:00	120220	12022020	192800	234.60	12.411400	-56.734158	234.70	0.070	-0.380	0.770	234.55	-1.70	1.10	 	 	 	 	 	 	 	 	 	 	 	 	 	 	 	 	 	 	1581535680	11.52	21.34
12/02/2020 19:28:01	120220	12022020	192801	234.41	12.411373	-56.734207	234.52	-0.070	-0.540	0.920	234.38	-1.90	1.30	 	 	 	 	 	 	 	 	 	 	 	 	 	 	 	 	 	 	1581535681	11.42	21.15
12/02/2020 19:28:02	120220	12022020	192802	234.38	12.411348	-56.734252	234.53	-0.160	-0.410	1.030	234.40	-1.80	1.40	1014.60	26.30	27.20	20.50	20.70	319.0	70.0	67.0	401.0	27.4	226.00	4.40	77.00	9.30	27870	10192.0	27.4	27.4	1581535682	11.14	20.63
12/02/2020 19:28:03	120220	12022020	192803	234.49	12.411323	-56.734297	234.69	-0.120	-0.150	1.080	234.53	-1.50	1.50	 	 	 	 	 	 	 	 	 	 	 	 	 	 	 	 	 	 	1581535683	10.87	20.13
12/02/2020 19:28:04	120220	12022020	192804	234.78	12.411298	-56.734342	234.96	-0.030	0.080	1.040	234.84	-1.30	1.40	 	 	 	 	 	 	 	 	 	 	 	 	 	 	 	 	 	 	1581535684	10.85	20.09
12/02/2020 19:28:05	120220	12022020	192805	235.12	12.411272	-56.734385	235.31	0.000	0.200	0.820	235.18	-1.20	1.20	 	 	 	 	 	 	 	 	 	 	 	 	 	 	 	 	 	 	1581535685	10.81	20.02
12/02/2020 19:28:06	120220	12022020	192806	235.41	12.411243	-56.734427	235.58	0.010	0.080	0.540	235.46	-1.30	0.90	 	 	 	 	 	 	 	 	 	 	 	 	 	 	 	 	 	 	1581535686	10.84	20.08
12/02/2020 19:28:07	120220	12022020	192807	235.61	12.411213	-56.734470	235.77	0.090	-0.230	0.330	235.64	-1.60	0.70	 	 	 	 	 	 	 	 	 	 	 	 	 	 	 	 	 	 	1581535687	10.96	20.30
12/02/2020 19:28:08	120220	12022020	192808	235.64	12.411185	-56.734513	235.75	0.270	-0.750	0.440	235.61	-2.10	0.80	 	 	 	 	 	 	 	 	 	 	 	 	 	 	 	 	 	 	1581535688	11.10	20.56
12/02/2020 19:28:09	120220	12022020	192809	235.41	12.411158	-56.734560	235.48	0.450	-1.390	0.880	235.34	-2.80	1.30	 	 	 	 	 	 	 	 	 	 	 	 	 	 	 	 	 	 	1581535689	11.46	21.22
12/02/2020 19:28:10	120220	12022020	192810	235.06	12.411130	-56.734607	235.15	0.390	-1.730	1.320	235.00	-3.10	1.70	 	 	 	 	 	 	 	 	 	 	 	 	 	 	 	 	 	 	1581535690	11.60	21.48
12/02/2020 19:28:11	120220	12022020	192811	234.82	12.411103	-56.734653	234.94	0.030	-1.390	1.470	234.78	-2.80	1.80	 	 	 	 	 	 	 	 	 	 	 	 	 	 	 	 	 	 	1581535691	11.24	20.82
12/02/2020 19:28:12	120220	12022020	192812	234.72	12.411077	-56.734697	234.85	-0.420	-0.710	1.250	234.71	-2.10	1.60	 	 	 	 	 	 	 	 	 	 	 	 	 	 	 	 	 	 	1581535692	10.87	20.13
12/02/2020 19:28:13	120220	12022020	192813	234.74	12.411050	-56.734740	234.89	-0.630	-0.170	0.940	234.76	-1.60	1.30	 	 	 	 	 	 	 	 	 	 	 	 	 	 	 	 	 	 	1581535693	11.07	20.50
12/02/2020 19:28:14	120220	12022020	192814	234.89	12.411022	-56.734787	235.05	-0.530	0.150	0.680	234.92	-1.20	1.10	 	 	 	 	 	 	 	 	 	 	 	 	 	 	 	 	 	 	1581535694	11.45	21.21
12/02/2020 19:28:15	120220	12022020	192815	235.04	12.410992	-56.734833	235.21	-0.310	0.420	0.610	235.07	-1.00	1.00	 	 	 	 	 	 	 	 	 	 	 	 	 	 	 	 	 	 	1581535695	11.59	21.46
12/02/2020 19:28:16	120220	12022020	192816	235.11	12.410963	-56.734878	235.26	-0.180	0.640	0.870	235.11	-0.70	1.20	 	 	 	 	 	 	 	 	 	 	 	 	 	 	 	 	 	 	1581535696	11.44	21.19
12/02/2020 19:28:17	120220	12022020	192817	235.03	12.410937	-56.734925	235.17	-0.130	0.710	1.280	235.00	-0.70	1.70	 	 	 	 	 	 	 	 	 	 	 	 	 	 	 	 	 	 	1581535697	11.31	20.95
12/02/2020 19:28:18	120220	12022020	192818	234.87	12.410910	-56.734970	235.00	-0.040	0.560	1.550	234.83	-0.80	1.90	 	 	 	 	 	 	 	 	 	 	 	 	 	 	 	 	 	 	1581535698	11.23	20.80
12/02/2020 19:28:19	120220	12022020	192819	234.72	12.410883	-56.735015	234.86	0.150	0.270	1.530	234.71	-1.10	1.90	 	 	 	 	 	 	 	 	 	 	 	 	 	 	 	 	 	 	1581535699	11.14	20.63
12/02/2020 19:28:20	120220	12022020	192820	234.75	12.410855	-56.735058	234.93	0.310	-0.060	1.200	234.78	-1.40	1.60	 	 	 	 	 	 	 	 	 	 	 	 	 	 	 	 	 	 	1581535700	10.90	20.19
12/02/2020 19:28:21	120220	12022020	192821	234.98	12.410828	-56.735102	235.20	0.390	-0.510	0.750	235.05	-1.90	1.20	 	 	 	 	 	 	 	 	 	 	 	 	 	 	 	 	 	 	1581535701	10.75	19.91
12/02/2020 19:28:22	120220	12022020	192822	235.35	12.410800	-56.735143	235.55	0.400	-1.070	0.350	235.43	-2.40	0.80	 	 	 	 	 	 	 	 	 	 	 	 	 	 	 	 	 	 	1581535702	10.84	20.08
12/02/2020 19:28:23	120220	12022020	192823	235.69	12.410772	-56.735187	235.85	0.380	-1.570	0.230	235.74	-2.90	0.60	 	 	 	 	 	 	 	 	 	 	 	 	 	 	 	 	 	 	1581535703	11.01	20.39
12/02/2020 19:28:24	120220	12022020	192824	235.83	12.410743	-56.735230	235.97	0.340	-1.710	0.480	235.83	-3.10	0.90	 	 	 	 	 	 	 	 	 	 	 	 	 	 	 	 	 	 	1581535704	11.07	20.50
12/02/2020 19:28:25	120220	12022020	192825	235.84	12.410717	-56.735275	235.97	0.230	-1.410	0.820	235.85	-2.80	1.20	 	 	 	 	 	 	 	 	 	 	 	 	 	 	 	 	 	 	1581535705	10.99	20.35
12/02/2020 19:28:26	120220	12022020	192826	235.85	12.410690	-56.735320	235.95	0.030	-0.900	1.030	235.84	-2.30	1.40	 	 	 	 	 	 	 	 	 	 	 	 	 	 	 	 	 	 	1581535706	11.02	20.41
12/02/2020 19:28:27	120220	12022020	192827	235.77	12.410663	-56.735367	235.89	-0.210	-0.440	1.090	235.75	-1.80	1.50	 	 	 	 	 	 	 	 	 	 	 	 	 	 	 	 	 	 	1581535707	11.29	20.91
12/02/2020 19:28:28	120220	12022020	192828	235.66	12.410637	-56.735413	235.78	-0.410	-0.030	1.020	235.64	-1.40	1.40	 	 	 	 	 	 	 	 	 	 	 	 	 	 	 	 	 	 	1581535708	11.58	21.45
12/02/2020 19:28:29	120220	12022020	192829	235.61	12.410608	-56.735460	235.75	-0.530	0.400	0.890	235.60	-1.00	1.30	 	 	 	 	 	 	 	 	 	 	 	 	 	 	 	 	 	 	1581535709	11.52	21.34
12/02/2020 19:28:30	120220	12022020	192830	235.53	12.410580	-56.735505	235.65	-0.510	0.590	0.860	235.49	-0.80	1.20	 	 	 	 	 	 	 	 	 	 	 	 	 	 	 	 	 	 	1581535710	11.46	21.22
12/02/2020 19:28:31	120220	12022020	192831	235.30	12.410552	-56.735552	235.43	-0.360	0.430	1.020	235.24	-0.90	1.40	 	 	 	 	 	 	 	 	 	 	 	 	 	 	 	 	 	 	1581535711	11.66	21.59
12/02/2020 19:28:32	120220	12022020	192832	235.09	12.410525	-56.735600	235.25	-0.210	0.230	1.200	235.07	-1.10	1.60	 	 	 	 	 	 	 	 	 	 	 	 	 	 	 	 	 	 	1581535712	11.61	21.50
12/02/2020 19:28:33	120220	12022020	192833	235.04	12.410498	-56.735645	235.22	-0.080	0.160	1.190	235.04	-1.20	1.60	 	 	 	 	 	 	 	 	 	 	 	 	 	 	 	 	 	 	1581535713	11.18	20.71
12/02/2020 19:28:34	120220	12022020	192834	235.07	12.410472	-56.735688	235.26	0.060	0.100	1.050	235.09	-1.30	1.40	 	 	 	 	 	 	 	 	 	 	 	 	 	 	 	 	 	 	1581535714	10.85	20.09
12/02/2020 19:28:35	120220	12022020	192835	235.27	12.410445	-56.735732	235.52	0.230	-0.010	0.720	235.35	-1.40	1.10	 	 	 	 	 	 	 	 	 	 	 	 	 	 	 	 	 	 	1581535715	10.74	19.89
12/02/2020 19:28:36	120220	12022020	192836	235.75	12.410417	-56.735773	236.02	0.370	-0.140	0.330	235.87	-1.50	0.70	 	 	 	 	 	 	 	 	 	 	 	 	 	 	 	 	 	 	1581535716	10.64	19.71
12/02/2020 19:28:37	120220	12022020	192837	236.37	12.410388	-56.735815	236.63	0.450	-0.350	0.060	236.50	-1.70	0.50	 	 	 	 	 	 	 	 	 	 	 	 	 	 	 	 	 	 	1581535717	10.59	19.61
12/02/2020 19:28:38	120220	12022020	192838	236.93	12.410362	-56.735857	237.16	0.530	-0.720	0.100	237.03	-2.10	0.50	 	 	 	 	 	 	 	 	 	 	 	 	 	 	 	 	 	 	1581535718	10.71	19.83
12/02/2020 19:28:39	120220	12022020	192839	237.27	12.410335	-56.735902	237.44	0.610	-1.180	0.490	237.30	-2.50	0.90	 	 	 	 	 	 	 	 	 	 	 	 	 	 	 	 	 	 	1581535719	10.97	20.32
12/02/2020 19:28:40	120220	12022020	192840	237.33	12.410310	-56.735947	237.45	0.550	-1.460	1.070	237.31	-2.80	1.40	 	 	 	 	 	 	 	 	 	 	 	 	 	 	 	 	 	 	1581535720	11.12	20.59
12/02/2020 19:28:41	120220	12022020	192841	237.14	12.410285	-56.735993	237.23	0.300	-1.430	1.610	237.08	-2.80	2.00	 	 	 	 	 	 	 	 	 	 	 	 	 	 	 	 	 	 	1581535721	11.10	20.56
12/02/2020 19:28:42	120220	12022020	192842	236.76	12.410262	-56.736040	236.85	-0.070	-1.160	1.870	236.67	-2.50	2.20	 	 	 	 	 	 	 	 	 	 	 	 	 	 	 	 	 	 	1581535722	11.11	20.58
12/02/2020 19:28:43	120220	12022020	192843	236.26	12.410237	-56.736087	236.32	-0.360	-0.850	1.870	236.14	-2.20	2.30	 	 	 	 	 	 	 	 	 	 	 	 	 	 	 	 	 	 	1581535723	11.26	20.85
12/02/2020 19:28:44	120220	12022020	192844	235.65	12.410210	-56.736133	235.69	-0.480	-0.520	1.800	235.53	-1.90	2.20	 	 	 	 	 	 	 	 	 	 	 	 	 	 	 	 	 	 	1581535724	11.52	21.34
12/02/2020 19:28:45	120220	12022020	192845	235.13	12.410182	-56.736182	235.22	-0.540	-0.010	1.620	235.06	-1.40	2.00	 	 	 	 	 	 	 	 	 	 	 	 	 	 	 	 	 	 	1581535725	11.53	21.35
12/02/2020 19:28:46	120220	12022020	192846	234.91	12.410155	-56.736227	235.06	-0.640	0.610	1.250	234.91	-0.80	1.70	 	 	 	 	 	 	 	 	 	 	 	 	 	 	 	 	 	 	1581535726	11.25	20.84
12/02/2020 19:28:47	120220	12022020	192847	235.02	12.410127	-56.736270	235.23	-0.670	1.050	0.860	235.08	-0.30	1.30	 	 	 	 	 	 	 	 	 	 	 	 	 	 	 	 	 	 	1581535727	11.08	20.52
12/02/2020 19:28:48	120220	12022020	192848	235.50	12.410100	-56.736315	235.79	-0.520	1.190	0.520	235.65	-0.20	0.90	 	 	 	 	 	 	 	 	 	 	 	 	 	 	 	 	 	 	1581535728	11.00	20.37
12/02/2020 19:28:49	120220	12022020	192849	236.35	12.410073	-56.736358	236.67	-0.190	0.970	0.230	236.55	-0.40	0.60	 	 	 	 	 	 	 	 	 	 	 	 	 	 	 	 	 	 	1581535729	10.90	20.19
12/02/2020 19:28:50	120220	12022020	192850	237.37	12.410048	-56.736403	237.69	0.260	0.450	-0.010	237.58	-0.90	0.40	 	 	 	 	 	 	 	 	 	 	 	 	 	 	 	 	 	 	1581535730	10.78	19.96
12/02/2020 19:28:51	120220	12022020	192851	238.27	12.410022	-56.736445	238.51	0.750	-0.330	-0.060	238.41	-1.70	0.30	 	 	 	 	 	 	 	 	 	 	 	 	 	 	 	 	 	 	1581535731	10.70	19.82
12/02/2020 19:28:52	120220	12022020	192852	238.76	12.409995	-56.736488	238.90	1.110	-1.180	0.290	238.81	-2.50	0.70	 	 	 	 	 	 	 	 	 	 	 	 	 	 	 	 	 	 	1581535732	10.75	19.91
12/02/2020 19:28:53	120220	12022020	192853	238.82	12.409970	-56.736533	238.84	1.130	-1.780	0.980	238.79	-3.10	1.30	 	 	 	 	 	 	 	 	 	 	 	 	 	 	 	 	 	 	1581535733	10.76	19.93
12/02/2020 19:28:54	120220	12022020	192854	238.40	12.409948	-56.736578	238.38	0.730	-1.870	1.710	238.28	-3.20	2.10	 	 	 	 	 	 	 	 	 	 	 	 	 	 	 	 	 	 	1581535734	10.61	19.65
12/02/2020 19:28:55	120220	12022020	192855	237.65	12.409927	-56.736623	237.61	0.150	-1.600	2.260	237.49	-3.00	2.60	 	 	 	 	 	 	 	 	 	 	 	 	 	 	 	 	 	 	1581535735	10.63	19.69
12/02/2020 19:28:56	120220	12022020	192856	236.84	12.409905	-56.736670	236.83	-0.310	-1.120	2.350	236.70	-2.50	2.70	 	 	 	 	 	 	 	 	 	 	 	 	 	 	 	 	 	 	1581535736	10.85	20.09
12/02/2020 19:28:57	120220	12022020	192857	236.23	12.409882	-56.736715	236.26	-0.520	-0.520	2.060	236.13	-1.90	2.50	 	 	 	 	 	 	 	 	 	 	 	 	 	 	 	 	 	 	1581535737	10.95	20.28
12/02/2020 19:28:58	120220	12022020	192858	235.86	12.409857	-56.736762	235.95	-0.550	-0.020	1.500	235.82	-1.40	1.90	 	 	 	 	 	 	 	 	 	 	 	 	 	 	 	 	 	 	1581535738	11.08	20.52
12/02/2020 19:28:59	120220	12022020	192859	235.75	12.409828	-56.736807	235.90	-0.570	0.250	0.920	235.76	-1.10	1.30	 	 	 	 	 	 	 	 	 	 	 	 	 	 	 	 	 	 	1581535739	11.26	20.85
12/02/2020 19:29:00	120220	12022020	192900	235.92	12.409802	-56.736852	236.15	-0.590	0.380	0.530	235.99	-1.00	0.90	 	 	 	 	 	 	 	 	 	 	 	 	 	 	 	 	 	 	1581535740	11.31	20.95
12/02/2020 19:29:01	120220	12022020	192901	236.39	12.409775	-56.736897	236.68	-0.600	0.530	0.380	236.52	-0.90	0.80	 	 	 	 	 	 	 	 	 	 	 	 	 	 	 	 	 	 	1581535741	11.04	20.45
12/02/2020 19:29:02	120220	12022020	192902	237.05	12.409750	-56.736940	237.33	-0.520	0.540	0.480	237.18	-0.80	0.90	1014.60	26.40	26.60	20.80	20.80	363.0	71.0	70.0	400.0	27.4	230.00	5.60	81.00	10.30	29598	9408.0	27.5	27.4	1581535742	10.76	19.93
12/02/2020 19:29:03	120220	12022020	192903	237.61	12.409725	-56.736985	237.85	-0.250	0.300	0.900	237.70	-1.10	1.30	 	 	 	 	 	 	 	 	 	 	 	 	 	 	 	 	 	 	1581535743	10.77	19.95
12/02/2020 19:29:04	120220	12022020	192904	237.93	12.409703	-56.737032	238.12	0.260	-0.030	1.380	237.97	-1.40	1.80	 	 	 	 	 	 	 	 	 	 	 	 	 	 	 	 	 	 	1581535744	10.81	20.02
12/02/2020 19:29:05	120220	12022020	192905	238.04	12.409678	-56.737075	238.22	0.760	-0.150	1.580	238.05	-1.50	2.00	 	 	 	 	 	 	 	 	 	 	 	 	 	 	 	 	 	 	1581535745	10.55	19.54
12/02/2020 19:29:06	120220	12022020	192906	238.08	12.409653	-56.737115	238.24	0.940	-0.170	1.440	238.08	-1.60	1.90	 	 	 	 	 	 	 	 	 	 	 	 	 	 	 	 	 	 	1581535746	10.21	18.91
12/02/2020 19:29:07	120220	12022020	192907	238.08	12.409628	-56.737157	238.21	0.780	-0.450	1.150	238.08	-1.80	1.60	 	 	 	 	 	 	 	 	 	 	 	 	 	 	 	 	 	 	1581535747	10.26	19.00
12/02/2020 19:29:08	120220	12022020	192908	238.01	12.409603	-56.737200	238.11	0.530	-0.980	0.920	237.98	-2.30	1.30	 	 	 	 	 	 	 	 	 	 	 	 	 	 	 	 	 	 	1581535748	10.64	19.71
12/02/2020 19:29:09	120220	12022020	192909	237.80	12.409578	-56.737245	237.87	0.320	-1.300	0.840	237.73	-2.70	1.20	 	 	 	 	 	 	 	 	 	 	 	 	 	 	 	 	 	 	1581535749	10.79	19.98
12/02/2020 19:29:10	120220	12022020	192910	237.36	12.409555	-56.737288	237.38	0.080	-1.320	1.000	237.24	-2.70	1.40	 	 	 	 	 	 	 	 	 	 	 	 	 	 	 	 	 	 	1581535750	10.68	19.78
12/02/2020 19:29:11	120220	12022020	192911	236.78	12.409532	-56.737333	236.82	-0.250	-1.110	1.220	236.67	-2.50	1.60	 	 	 	 	 	 	 	 	 	 	 	 	 	 	 	 	 	 	1581535751	10.73	19.87
12/02/2020 19:29:12	120220	12022020	192912	236.39	12.409508	-56.737378	236.51	-0.640	-0.650	1.170	236.37	-2.10	1.60	 	 	 	 	 	 	 	 	 	 	 	 	 	 	 	 	 	 	1581535752	10.71	19.83
12/02/2020 19:29:13	120220	12022020	192913	236.49	12.409483	-56.737422	236.70	-0.930	-0.090	0.690	236.57	-1.50	1.10	 	 	 	 	 	 	 	 	 	 	 	 	 	 	 	 	 	 	1581535753	10.57	19.58
12/02/2020 19:29:14	120220	12022020	192914	237.02	12.409458	-56.737465	237.26	-0.870	0.260	0.150	237.15	-1.20	0.60	 	 	 	 	 	 	 	 	 	 	 	 	 	 	 	 	 	 	1581535754	10.65	19.72
12/02/2020 19:29:15	120220	12022020	192915	237.70	12.409432	-56.737508	237.95	-0.410	0.260	-0.100	237.83	-1.10	0.30	 	 	 	 	 	 	 	 	 	 	 	 	 	 	 	 	 	 	1581535755	10.93	20.24
12/02/2020 19:29:16	120220	12022020	192916	238.26	12.409405	-56.737555	238.46	0.120	0.040	0.150	238.34	-1.40	0.50	 	 	 	 	 	 	 	 	 	 	 	 	 	 	 	 	 	 	1581535756	11.13	20.61
12/02/2020 19:29:17	120220	12022020	192917	238.51	12.409382	-56.737600	238.71	0.370	-0.150	0.710	238.55	-1.50	1.10	 	 	 	 	 	 	 	 	 	 	 	 	 	 	 	 	 	 	1581535757	11.02	20.41
12/02/2020 19:29:18	120220	12022020	192918	238.54	12.409360	-56.737647	238.63	0.330	-0.270	1.360	238.50	-1.70	1.70	 	 	 	 	 	 	 	 	 	 	 	 	 	 	 	 	 	 	1581535758	10.75	19.91
12/02/2020 19:29:19	120220	12022020	192919	238.20	12.409338	-56.737692	238.25	0.260	-0.400	1.900	238.11	-1.80	2.30	 	 	 	 	 	 	 	 	 	 	 	 	 	 	 	 	 	 	1581535759	10.74	19.89
12/02/2020 19:29:20	120220	12022020	192920	237.75	12.409317	-56.737738	237.81	0.230	-0.410	2.060	237.67	-1.80	2.40	 	 	 	 	 	 	 	 	 	 	 	 	 	 	 	 	 	 	1581535760	10.72	19.85
12/02/2020 19:29:21	120220	12022020	192921	237.43	12.409293	-56.737782	237.54	0.180	-0.200	1.790	237.39	-1.60	2.20	 	 	 	 	 	 	 	 	 	 	 	 	 	 	 	 	 	 	1581535761	10.49	19.43
12/02/2020 19:29:22	120220	12022020	192922	237.30	12.409268	-56.737823	237.44	0.040	0.030	1.290	237.29	-1.40	1.70	 	 	 	 	 	 	 	 	 	 	 	 	 	 	 	 	 	 	1581535762	10.31	19.09
12/02/2020 19:29:23	120220	12022020	192923	237.27	12.409245	-56.737865	237.40	-0.120	0.140	0.920	237.27	-1.30	1.30	 	 	 	 	 	 	 	 	 	 	 	 	 	 	 	 	 	 	1581535763	10.32	19.11
12/02/2020 19:29:24	120220	12022020	192924	237.30	12.409220	-56.737908	237.45	-0.130	0.210	0.860	237.31	-1.20	1.30	 	 	 	 	 	 	 	 	 	 	 	 	 	 	 	 	 	 	1581535764	10.29	19.06
12/02/2020 19:29:25	120220	12022020	192925	237.32	12.409197	-56.737950	237.46	0.070	0.080	1.110	237.32	-1.30	1.50	 	 	 	 	 	 	 	 	 	 	 	 	 	 	 	 	 	 	1581535765	10.22	18.93
12/02/2020 19:29:26	120220	12022020	192926	237.24	12.409175	-56.737993	237.38	0.370	-0.480	1.430	237.21	-1.90	1.80	 	 	 	 	 	 	 	 	 	 	 	 	 	 	 	 	 	 	1581535766	10.51	19.46
12/02/2020 19:29:27	120220	12022020	192927	237.06	12.409150	-56.738040	237.19	0.540	-1.260	1.630	237.03	-2.60	2.00	 	 	 	 	 	 	 	 	 	 	 	 	 	 	 	 	 	 	1581535767	10.88	20.15
12/02/2020 19:29:28	120220	12022020	192928	236.92	12.409127	-56.738085	237.06	0.440	-1.660	1.610	236.90	-3.00	2.00	 	 	 	 	 	 	 	 	 	 	 	 	 	 	 	 	 	 	1581535768	10.80	20.00
12/02/2020 19:29:29	120220	12022020	192929	236.88	12.409105	-56.738128	237.05	0.140	-1.520	1.390	236.88	-2.90	1.80	 	 	 	 	 	 	 	 	 	 	 	 	 	 	 	 	 	 	1581535769	10.39	19.24
12/02/2020 19:29:30	120220	12022020	192930	236.87	12.409082	-56.738170	237.03	-0.150	-1.070	1.200	236.87	-2.50	1.60	 	 	 	 	 	 	 	 	 	 	 	 	 	 	 	 	 	 	1581535770	10.25	18.98
12/02/2020 19:29:31	120220	12022020	192931	236.84	12.409057	-56.738213	237.02	-0.280	-0.500	1.160	236.84	-1.90	1.60	 	 	 	 	 	 	 	 	 	 	 	 	 	 	 	 	 	 	1581535771	10.39	19.24
12/02/2020 19:29:32	120220	12022020	192932	236.87	12.409032	-56.738257	237.05	-0.310	0.050	1.170	236.88	-1.40	1.60	 	 	 	 	 	 	 	 	 	 	 	 	 	 	 	 	 	 	1581535772	10.55	19.54
12/02/2020 19:29:33	120220	12022020	192933	236.91	12.409007	-56.738300	237.09	-0.320	0.390	1.240	236.91	-1.00	1.60	 	 	 	 	 	 	 	 	 	 	 	 	 	 	 	 	 	 	1581535773	10.72	19.85
12/02/2020 19:29:34	120220	12022020	192934	236.90	12.408980	-56.738343	237.08	-0.360	0.490	1.400	236.90	-0.90	1.80	 	 	 	 	 	 	 	 	 	 	 	 	 	 	 	 	 	 	1581535774	10.90	20.19
12/02/2020 19:29:35	120220	12022020	192935	236.93	12.408955	-56.738388	237.14	-0.410	0.540	1.530	236.95	-0.90	1.90	 	 	 	 	 	 	 	 	 	 	 	 	 	 	 	 	 	 	1581535775	10.80	20.00
12/02/2020 19:29:36	120220	12022020	192936	237.02	12.408930	-56.738432	237.21	-0.380	0.530	1.600	237.02	-0.90	2.00	 	 	 	 	 	 	 	 	 	 	 	 	 	 	 	 	 	 	1581535776	10.52	19.48
12/02/2020 19:29:37	120220	12022020	192937	237.00	12.408907	-56.738475	237.18	-0.210	0.310	1.720	236.98	-1.10	2.10	 	 	 	 	 	 	 	 	 	 	 	 	 	 	 	 	 	 	1581535777	10.44	19.33
12/02/2020 19:29:38	120220	12022020	192938	236.82	12.408885	-56.738518	236.96	0.110	-0.130	1.870	236.76	-1.50	2.30	 	 	 	 	 	 	 	 	 	 	 	 	 	 	 	 	 	 	1581535778	10.53	19.50
12/02/2020 19:29:39	120220	12022020	192939	236.56	12.408862	-56.738562	236.70	0.430	-0.500	1.760	236.52	-1.90	2.20	 	 	 	 	 	 	 	 	 	 	 	 	 	 	 	 	 	 	1581535779	10.48	19.41
12/02/2020 19:29:40	120220	12022020	192940	236.37	12.408838	-56.738603	236.50	0.590	-0.620	1.240	236.34	-2.00	1.70	 	 	 	 	 	 	 	 	 	 	 	 	 	 	 	 	 	 	1581535780	10.13	18.76
12/02/2020 19:29:41	120220	12022020	192941	236.31	12.408812	-56.738643	236.48	0.550	-0.690	0.570	236.32	-2.10	1.00	 	 	 	 	 	 	 	 	 	 	 	 	 	 	 	 	 	 	1581535781	9.94	18.41
12/02/2020 19:29:42	120220	12022020	192942	236.50	12.408785	-56.738682	236.69	0.340	-0.850	0.020	236.56	-2.20	0.40	 	 	 	 	 	 	 	 	 	 	 	 	 	 	 	 	 	 	1581535782	10.01	18.54
12/02/2020 19:29:43	120220	12022020	192943	236.76	12.408758	-56.738722	237.01	0.120	-1.090	-0.140	236.82	-2.50	0.30	 	 	 	 	 	 	 	 	 	 	 	 	 	 	 	 	 	 	1581535783	10.24	18.96
12/02/2020 19:29:44	120220	12022020	192944	237.10	12.408733	-56.738763	237.26	-0.000	-1.220	0.110	237.14	-2.60	0.50	 	 	 	 	 	 	 	 	 	 	 	 	 	 	 	 	 	 	1581535784	10.46	19.37
12/02/2020 19:29:45	120220	12022020	192945	237.23	12.408710	-56.738808	237.35	-0.080	-1.080	0.590	237.23	-2.50	1.00	 	 	 	 	 	 	 	 	 	 	 	 	 	 	 	 	 	 	1581535785	10.51	19.46
12/02/2020 19:29:46	120220	12022020	192946	237.16	12.408688	-56.738852	237.27	-0.210	-0.630	1.120	237.12	-2.00	1.50	 	 	 	 	 	 	 	 	 	 	 	 	 	 	 	 	 	 	1581535786	10.41	19.28
12/02/2020 19:29:47	120220	12022020	192947	236.94	12.408665	-56.738895	237.05	-0.380	-0.120	1.470	236.89	-1.50	1.90	 	 	 	 	 	 	 	 	 	 	 	 	 	 	 	 	 	 	1581535787	10.38	19.22
12/02/2020 19:29:48	120220	12022020	192948	236.73	12.408643	-56.738938	236.85	-0.430	0.230	1.440	236.70	-1.20	1.80	 	 	 	 	 	 	 	 	 	 	 	 	 	 	 	 	 	 	1581535788	10.52	19.48
12/02/2020 19:29:49	120220	12022020	192949	236.59	12.408618	-56.738982	236.74	-0.270	0.350	1.180	236.56	-1.00	1.60	 	 	 	 	 	 	 	 	 	 	 	 	 	 	 	 	 	 	1581535789	10.68	19.78
12/02/2020 19:29:50	120220	12022020	192950	236.47	12.408592	-56.739025	236.62	-0.030	0.360	0.970	236.45	-1.00	1.40	 	 	 	 	 	 	 	 	 	 	 	 	 	 	 	 	 	 	1581535790	10.76	19.93
12/02/2020 19:29:51	120220	12022020	192951	236.41	12.408565	-56.739068	236.57	0.050	0.420	0.890	236.41	-1.00	1.30	 	 	 	 	 	 	 	 	 	 	 	 	 	 	 	 	 	 	1581535791	10.59	19.61
12/02/2020 19:29:52	120220	12022020	192952	236.51	12.408542	-56.739110	236.71	-0.070	0.490	0.920	236.55	-0.90	1.30	 	 	 	 	 	 	 	 	 	 	 	 	 	 	 	 	 	 	1581535792	10.21	18.91
12/02/2020 19:29:53	120220	12022020	192953	236.74	12.408520	-56.739152	236.96	-0.190	0.270	1.010	236.79	-1.10	1.40	 	 	 	 	 	 	 	 	 	 	 	 	 	 	 	 	 	 	1581535793	10.06	18.63
12/02/2020 19:29:54	120220	12022020	192954	236.98	12.408497	-56.739195	237.20	-0.120	-0.300	1.020	237.03	-1.70	1.40	 	 	 	 	 	 	 	 	 	 	 	 	 	 	 	 	 	 	1581535794	10.25	18.98
12/02/2020 19:29:55	120220	12022020	192955	237.22	12.408473	-56.739237	237.44	0.120	-0.880	0.820	237.28	-2.30	1.20	 	 	 	 	 	 	 	 	 	 	 	 	 	 	 	 	 	 	1581535795	10.33	19.13
12/02/2020 19:29:56	120220	12022020	192956	237.51	12.408448	-56.739277	237.72	0.370	-1.140	0.420	237.56	-2.50	0.80	 	 	 	 	 	 	 	 	 	 	 	 	 	 	 	 	 	 	1581535796	10.08	18.67
12/02/2020 19:29:57	120220	12022020	192957	237.72	12.408422	-56.739317	237.90	0.490	-1.220	0.210	237.75	-2.60	0.60	 	 	 	 	 	 	 	 	 	 	 	 	 	 	 	 	 	 	1581535797	9.94	18.41
12/02/2020 19:29:58	120220	12022020	192958	237.73	12.408397	-56.739357	237.85	0.430	-1.250	0.540	237.70	-2.60	0.90	 	 	 	 	 	 	 	 	 	 	 	 	 	 	 	 	 	 	1581535798	10.09	18.69
12/02/2020 19:29:59	120220	12022020	192959	237.43	12.408373	-56.739400	237.50	0.210	-1.170	1.190	237.33	-2.60	1.60	 	 	 	 	 	 	 	 	 	 	 	 	 	 	 	 	 	 	1581535799	10.41	19.28
12/02/2020 19:30:00	120220	12022020	193000	236.93	12.408353	-56.739445	236.99	-0.080	-0.760	1.750	236.83	-2.20	2.10	 	 	 	 	 	 	 	 	 	 	 	 	 	 	 	 	 	 	1581535800	10.52	19.48
12/02/2020 19:30:01	120220	12022020	193001	236.47	12.408332	-56.739488	236.55	-0.330	-0.050	1.920	236.39	-1.50	2.30	 	 	 	 	 	 	 	 	 	 	 	 	 	 	 	 	 	 	1581535801	10.36	19.19
12/02/2020 19:30:02	120220	12022020	193002	236.18	12.408308	-56.739532	236.32	-0.440	0.550	1.720	236.16	-0.90	2.10	1014.60	26.40	26.50	20.80	20.90	377.0	71.0	71.0	399.0	27.5	215.00	5.60	75.00	10.50	30094	8034.0	27.4	27.4	1581535802	10.24	18.96
12/02/2020 19:30:03	120220	12022020	193003	236.19	12.408285	-56.739575	236.38	-0.440	0.630	1.340	236.21	-0.80	1.80	 	 	 	 	 	 	 	 	 	 	 	 	 	 	 	 	 	 	1581535803	10.49	19.43
12/02/2020 19:30:04	120220	12022020	193004	236.37	12.408260	-56.739618	236.57	-0.330	0.270	1.030	236.41	-1.10	1.40	 	 	 	 	 	 	 	 	 	 	 	 	 	 	 	 	 	 	1581535804	10.83	20.06
12/02/2020 19:30:05	120220	12022020	193005	236.56	12.408235	-56.739663	236.77	-0.150	-0.040	0.910	236.60	-1.40	1.30	 	 	 	 	 	 	 	 	 	 	 	 	 	 	 	 	 	 	1581535805	10.82	20.04
12/02/2020 19:30:06	120220	12022020	193006	236.82	12.408212	-56.739707	237.05	0.020	0.040	0.790	236.88	-1.40	1.20	 	 	 	 	 	 	 	 	 	 	 	 	 	 	 	 	 	 	1581535806	10.31	19.09
12/02/2020 19:30:07	120220	12022020	193007	237.18	12.408188	-56.739745	237.41	0.090	0.340	0.630	237.26	-1.10	1.00	 	 	 	 	 	 	 	 	 	 	 	 	 	 	 	 	 	 	1581535807	9.65	17.87
12/02/2020 19:30:08	120220	12022020	193008	237.50	12.408163	-56.739783	237.69	0.170	0.280	0.580	237.53	-1.10	1.00	 	 	 	 	 	 	 	 	 	 	 	 	 	 	 	 	 	 	1581535808	9.54	17.67
12/02/2020 19:30:09	120220	12022020	193009	237.58	12.408140	-56.739823	237.73	0.310	-0.350	0.860	237.56	-1.70	1.20	 	 	 	 	 	 	 	 	 	 	 	 	 	 	 	 	 	 	1581535809	9.99	18.50
12/02/2020 19:30:10	120220	12022020	193010	237.38	12.408115	-56.739865	237.49	0.420	-1.220	1.390	237.32	-2.60	1.80	 	 	 	 	 	 	 	 	 	 	 	 	 	 	 	 	 	 	1581535810	10.39	19.24
12/02/2020 19:30:11	120220	12022020	193011	236.97	12.408093	-56.739910	237.07	0.390	-1.880	2.000	236.87	-3.30	2.40	 	 	 	 	 	 	 	 	 	 	 	 	 	 	 	 	 	 	1581535811	10.49	19.43
12/02/2020 19:30:12	120220	12022020	193012	236.46	12.408072	-56.739955	236.56	0.260	-2.040	2.350	236.36	-3.40	2.70	 	 	 	 	 	 	 	 	 	 	 	 	 	 	 	 	 	 	1581535812	10.45	19.35
12/02/2020 19:30:13	120220	12022020	193013	235.98	12.408052	-56.739998	236.11	0.090	-1.480	2.400	235.89	-2.90	2.80	 	 	 	 	 	 	 	 	 	 	 	 	 	 	 	 	 	 	1581535813	10.16	18.82
12/02/2020 19:30:14	120220	12022020	193014	235.62	12.408030	-56.740038	235.79	-0.130	-0.480	2.260	235.58	-1.90	2.70	 	 	 	 	 	 	 	 	 	 	 	 	 	 	 	 	 	 	1581535814	9.84	18.22
12/02/2020 19:30:15	120220	12022020	193015	235.49	12.408005	-56.740078	235.70	-0.420	0.430	1.870	235.50	-1.00	2.30	 	 	 	 	 	 	 	 	 	 	 	 	 	 	 	 	 	 	1581535815	9.89	18.32
12/02/2020 19:30:16	120220	12022020	193016	235.61	12.407982	-56.740120	235.87	-0.630	0.970	1.290	235.67	-0.50	1.70	 	 	 	 	 	 	 	 	 	 	 	 	 	 	 	 	 	 	1581535816	10.17	18.83
12/02/2020 19:30:17	120220	12022020	193017	235.99	12.407955	-56.740160	236.28	-0.600	1.140	0.730	236.10	-0.30	1.20	 	 	 	 	 	 	 	 	 	 	 	 	 	 	 	 	 	 	1581535817	10.33	19.13
12/02/2020 19:30:18	120220	12022020	193018	236.53	12.407928	-56.740202	236.82	-0.340	0.960	0.440	236.64	-0.40	0.90	 	 	 	 	 	 	 	 	 	 	 	 	 	 	 	 	 	 	1581535818	10.34	19.15
12/02/2020 19:30:19	120220	12022020	193019	237.04	12.407905	-56.740243	237.33	0.000	0.540	0.490	237.13	-0.90	0.90	 	 	 	 	 	 	 	 	 	 	 	 	 	 	 	 	 	 	1581535819	10.21	18.91
12/02/2020 19:30:20	120220	12022020	193020	237.36	12.407880	-56.740283	237.58	0.330	-0.060	0.710	237.39	-1.40	1.10	 	 	 	 	 	 	 	 	 	 	 	 	 	 	 	 	 	 	1581535820	9.98	18.48
12/02/2020 19:30:21	120220	12022020	193021	237.41	12.407857	-56.740323	237.56	0.580	-0.820	1.140	237.39	-2.20	1.50	 	 	 	 	 	 	 	 	 	 	 	 	 	 	 	 	 	 	1581535821	9.94	18.41
12/02/2020 19:30:22	120220	12022020	193022	237.21	12.407835	-56.740365	237.33	0.640	-1.540	1.700	237.14	-2.90	2.10	 	 	 	 	 	 	 	 	 	 	 	 	 	 	 	 	 	 	1581535822	9.98	18.48
12/02/2020 19:30:23	120220	12022020	193023	236.79	12.407813	-56.740408	236.89	0.440	-1.950	2.200	236.70	-3.30	2.60	 	 	 	 	 	 	 	 	 	 	 	 	 	 	 	 	 	 	1581535823	10.02	18.56
12/02/2020 19:30:24	120220	12022020	193024	236.42	12.407795	-56.740450	236.57	0.040	-1.770	2.390	236.37	-3.20	2.80	 	 	 	 	 	 	 	 	 	 	 	 	 	 	 	 	 	 	1581535824	9.93	18.39
12/02/2020 19:30:25	120220	12022020	193025	236.33	12.407775	-56.740492	236.55	-0.380	-1.010	2.130	236.36	-2.40	2.50	 	 	 	 	 	 	 	 	 	 	 	 	 	 	 	 	 	 	1581535825	9.60	17.78
12/02/2020 19:30:26	120220	12022020	193026	236.57	12.407755	-56.740532	236.81	-0.570	-0.120	1.470	236.65	-1.50	1.90	 	 	 	 	 	 	 	 	 	 	 	 	 	 	 	 	 	 	1581535826	9.44	17.48
12/02/2020 19:30:27	120220	12022020	193027	236.94	12.407732	-56.740570	237.17	-0.390	0.460	0.800	237.00	-1.00	1.20	 	 	 	 	 	 	 	 	 	 	 	 	 	 	 	 	 	 	1581535827	9.70	17.96
12/02/2020 19:30:28	120220	12022020	193028	237.18	12.407705	-56.740610	237.37	-0.020	0.630	0.520	237.21	-0.80	0.90	 	 	 	 	 	 	 	 	 	 	 	 	 	 	 	 	 	 	1581535828	10.17	18.83
12/02/2020 19:30:29	120220	12022020	193029	237.25	12.407678	-56.740652	237.41	0.180	0.650	0.660	237.24	-0.80	1.10	 	 	 	 	 	 	 	 	 	 	 	 	 	 	 	 	 	 	1581535829	10.32	19.11
12/02/2020 19:30:30	120220	12022020	193030	237.17	12.407655	-56.740692	237.30	0.100	0.680	1.060	237.14	-0.70	1.50	 	 	 	 	 	 	 	 	 	 	 	 	 	 	 	 	 	 	1581535830	10.01	18.54
12/02/2020 19:30:31	120220	12022020	193031	237.00	12.407633	-56.740732	237.07	-0.060	0.560	1.410	236.95	-0.80	1.80	 	 	 	 	 	 	 	 	 	 	 	 	 	 	 	 	 	 	1581535831	9.71	17.98
12/02/2020 19:30:32	120220	12022020	193032	236.70	12.407612	-56.740772	236.83	-0.060	0.020	1.490	236.66	-1.40	1.90	 	 	 	 	 	 	 	 	 	 	 	 	 	 	 	 	 	 	1581535832	9.74	18.04
12/02/2020 19:30:33	120220	12022020	193033	236.55	12.407588	-56.740813	236.65	0.080	-0.880	1.430	236.52	-2.20	1.80	 	 	 	 	 	 	 	 	 	 	 	 	 	 	 	 	 	 	1581535833	10.01	18.54
12/02/2020 19:30:34	120220	12022020	193034	236.42	12.407567	-56.740857	236.56	0.180	-1.710	1.350	236.42	-3.10	1.80	 	 	 	 	 	 	 	 	 	 	 	 	 	 	 	 	 	 	1581535834	10.13	18.76
12/02/2020 19:30:35	120220	12022020	193035	236.44	12.407545	-56.740897	236.60	0.130	-1.940	1.160	236.46	-3.30	1.60	 	 	 	 	 	 	 	 	 	 	 	 	 	 	 	 	 	 	1581535835	9.89	18.32
12/02/2020 19:30:36	120220	12022020	193036	236.60	12.407525	-56.740937	236.77	-0.020	-1.390	0.870	236.64	-2.80	1.30	 	 	 	 	 	 	 	 	 	 	 	 	 	 	 	 	 	 	1581535836	9.40	17.41
12/02/2020 19:30:37	120220	12022020	193037	236.84	12.407505	-56.740973	237.01	-0.140	-0.350	0.550	236.89	-1.80	1.00	 	 	 	 	 	 	 	 	 	 	 	 	 	 	 	 	 	 	1581535837	8.99	16.65
12/02/2020 19:30:38	120220	12022020	193038	237.03	12.407482	-56.741010	237.17	-0.090	0.560	0.290	237.05	-0.90	0.70	 	 	 	 	 	 	 	 	 	 	 	 	 	 	 	 	 	 	1581535838	9.00	16.67
12/02/2020 19:30:39	120220	12022020	193039	237.05	12.407457	-56.741047	237.18	0.100	0.830	0.330	237.04	-0.60	0.70	 	 	 	 	 	 	 	 	 	 	 	 	 	 	 	 	 	 	1581535839	9.52	17.63
12/02/2020 19:30:40	120220	12022020	193040	236.88	12.407432	-56.741088	236.98	0.250	0.470	0.750	236.82	-0.90	1.10	 	 	 	 	 	 	 	 	 	 	 	 	 	 	 	 	 	 	1581535840	10.17	18.83
12/02/2020 19:30:41	120220	12022020	193041	236.50	12.407408	-56.741132	236.59	0.210	-0.090	1.440	236.40	-1.50	1.80	 	 	 	 	 	 	 	 	 	 	 	 	 	 	 	 	 	 	1581535841	10.40	19.26
12/02/2020 19:30:42	120220	12022020	193042	235.97	12.407388	-56.741175	236.08	0.000	-0.460	2.150	235.86	-1.90	2.50	 	 	 	 	 	 	 	 	 	 	 	 	 	 	 	 	 	 	1581535842	10.22	18.93
12/02/2020 19:30:43	120220	12022020	193043	235.49	12.407368	-56.741217	235.65	-0.200	-0.510	2.520	235.43	-1.90	2.90	 	 	 	 	 	 	 	 	 	 	 	 	 	 	 	 	 	 	1581535843	9.80	18.15
12/02/2020 19:30:44	120220	12022020	193044	235.34	12.407348	-56.741257	235.58	-0.270	-0.390	2.380	235.36	-1.80	2.80	 	 	 	 	 	 	 	 	 	 	 	 	 	 	 	 	 	 	1581535844	9.39	17.39
12/02/2020 19:30:45	120220	12022020	193045	235.50	12.407327	-56.741295	235.75	-0.150	-0.350	1.870	235.55	-1.80	2.30	 	 	 	 	 	 	 	 	 	 	 	 	 	 	 	 	 	 	1581535845	9.27	17.17
12/02/2020 19:30:46	120220	12022020	193046	235.77	12.407303	-56.741332	236.00	0.040	-0.470	1.210	235.82	-1.90	1.60	 	 	 	 	 	 	 	 	 	 	 	 	 	 	 	 	 	 	1581535846	9.42	17.45
12/02/2020 19:30:47	120220	12022020	193047	236.05	12.407280	-56.741370	236.28	0.190	-0.600	0.620	236.11	-2.00	1.10	 	 	 	 	 	 	 	 	 	 	 	 	 	 	 	 	 	 	1581535847	9.54	17.67
12/02/2020 19:30:48	120220	12022020	193048	236.34	12.407257	-56.741408	236.56	0.240	-0.500	0.310	236.39	-1.90	0.70	 	 	 	 	 	 	 	 	 	 	 	 	 	 	 	 	 	 	1581535848	9.44	17.48
12/02/2020 19:30:49	120220	12022020	193049	236.62	12.407233	-56.741445	236.83	0.140	-0.230	0.300	236.67	-1.70	0.70	 	 	 	 	 	 	 	 	 	 	 	 	 	 	 	 	 	 	1581535849	9.23	17.09
12/02/2020 19:30:50	120220	12022020	193050	236.81	12.407212	-56.741482	236.98	-0.030	-0.020	0.580	236.82	-1.40	1.00	 	 	 	 	 	 	 	 	 	 	 	 	 	 	 	 	 	 	1581535850	9.18	17.00
12/02/2020 19:30:51	120220	12022020	193051	236.73	12.407190	-56.741522	236.85	-0.130	-0.160	1.010	236.69	-1.60	1.40	 	 	 	 	 	 	 	 	 	 	 	 	 	 	 	 	 	 	1581535851	9.47	17.54
12/02/2020 19:30:52	120220	12022020	193052	236.45	12.407167	-56.741562	236.56	-0.060	-0.570	1.390	236.38	-2.00	1.80	 	 	 	 	 	 	 	 	 	 	 	 	 	 	 	 	 	 	1581535852	9.91	18.35
12/02/2020 19:30:53	120220	12022020	193053	236.17	12.407143	-56.741603	236.28	0.090	-0.810	1.510	236.12	-2.20	1.90	 	 	 	 	 	 	 	 	 	 	 	 	 	 	 	 	 	 	1581535853	10.01	18.54
12/02/2020 19:30:54	120220	12022020	193054	235.94	12.407120	-56.741642	236.07	0.210	-0.700	1.400	235.89	-2.10	1.80	 	 	 	 	 	 	 	 	 	 	 	 	 	 	 	 	 	 	1581535854	9.76	18.08
12/02/2020 19:30:55	120220	12022020	193055	235.76	12.407097	-56.741680	235.91	0.170	-0.260	1.300	235.74	-1.70	1.70	 	 	 	 	 	 	 	 	 	 	 	 	 	 	 	 	 	 	1581535855	9.46	17.52
12/02/2020 19:30:56	120220	12022020	193056	235.76	12.407075	-56.741718	235.95	-0.110	0.340	1.230	235.78	-1.10	1.60	 	 	 	 	 	 	 	 	 	 	 	 	 	 	 	 	 	 	1581535856	9.16	16.96
12/02/2020 19:30:57	120220	12022020	193057	235.95	12.407057	-56.741757	236.17	-0.440	0.710	1.140	236.01	-0.70	1.50	 	 	 	 	 	 	 	 	 	 	 	 	 	 	 	 	 	 	1581535857	9.05	16.76
12/02/2020 19:30:58	120220	12022020	193058	236.25	12.407038	-56.741795	236.46	-0.510	0.610	1.000	236.31	-0.80	1.40	 	 	 	 	 	 	 	 	 	 	 	 	 	 	 	 	 	 	1581535858	9.30	17.22
12/02/2020 19:30:59	120220	12022020	193059	236.61	12.407017	-56.741835	236.84	-0.200	0.150	0.630	236.69	-1.20	1.10	 	 	 	 	 	 	 	 	 	 	 	 	 	 	 	 	 	 	1581535859	9.50	17.59
12/02/2020 19:31:00	120220	12022020	193100	237.03	12.406993	-56.741873	237.24	0.310	-0.460	0.070	237.10	-1.90	0.50	 	 	 	 	 	 	 	 	 	 	 	 	 	 	 	 	 	 	1581535860	9.49	17.58
12/02/2020 19:31:01	120220	12022020	193101	237.28	12.406967	-56.741910	237.42	0.690	-1.080	-0.200	237.29	-2.50	0.20	 	 	 	 	 	 	 	 	 	 	 	 	 	 	 	 	 	 	1581535861	9.53	17.65
12/02/2020 19:31:02	120220	12022020	193102	237.17	12.406942	-56.741947	237.24	0.690	-1.470	0.060	237.11	-2.90	0.40	1014.60	26.30	26.40	20.80	20.90	463.0	71.0	71.0	398.0	27.6	216.00	6.00	76.00	10.50	32859	9888.0	27.5	27.5	1581535862	9.53	17.65
12/02/2020 19:31:03	120220	12022020	193103	236.87	12.406920	-56.741985	236.94	0.340	-1.360	0.630	236.81	-2.80	1.00	 	 	 	 	 	 	 	 	 	 	 	 	 	 	 	 	 	 	1581535863	9.36	17.33
12/02/2020 19:31:04	120220	12022020	193104	236.61	12.406902	-56.742025	236.70	-0.140	-0.880	1.210	236.56	-2.30	1.60	 	 	 	 	 	 	 	 	 	 	 	 	 	 	 	 	 	 	1581535864	9.22	17.08
12/02/2020 19:31:05	120220	12022020	193105	236.44	12.406883	-56.742065	236.57	-0.480	-0.350	1.570	236.42	-1.80	2.00	 	 	 	 	 	 	 	 	 	 	 	 	 	 	 	 	 	 	1581535865	9.35	17.32
12/02/2020 19:31:06	120220	12022020	193106	236.39	12.406865	-56.742105	236.55	-0.530	0.080	1.490	236.39	-1.30	1.90	 	 	 	 	 	 	 	 	 	 	 	 	 	 	 	 	 	 	1581535866	9.51	17.61
12/02/2020 19:31:07	120220	12022020	193107	236.48	12.406842	-56.742143	236.66	-0.370	0.450	1.150	236.51	-1.00	1.60	 	 	 	 	 	 	 	 	 	 	 	 	 	 	 	 	 	 	1581535867	9.52	17.63
12/02/2020 19:31:08	120220	12022020	193108	236.67	12.406818	-56.742182	236.87	-0.210	0.630	0.800	236.71	-0.80	1.20	 	 	 	 	 	 	 	 	 	 	 	 	 	 	 	 	 	 	1581535868	9.47	17.54
12/02/2020 19:31:09	120220	12022020	193109	236.83	12.406795	-56.742220	237.05	-0.170	0.510	0.660	236.86	-0.90	1.10	 	 	 	 	 	 	 	 	 	 	 	 	 	 	 	 	 	 	1581535869	9.49	17.58
12/02/2020 19:31:10	120220	12022020	193110	236.95	12.406773	-56.742258	237.12	-0.200	0.180	0.770	236.95	-1.20	1.20	 	 	 	 	 	 	 	 	 	 	 	 	 	 	 	 	 	 	1581535870	9.49	17.58
12/02/2020 19:31:11	120220	12022020	193111	237.03	12.406752	-56.742298	237.20	-0.160	-0.180	0.860	237.05	-1.60	1.30	 	 	 	 	 	 	 	 	 	 	 	 	 	 	 	 	 	 	1581535871	9.36	17.33
12/02/2020 19:31:12	120220	12022020	193112	237.23	12.406732	-56.742337	237.40	0.020	-0.500	0.750	237.28	-1.90	1.20	 	 	 	 	 	 	 	 	 	 	 	 	 	 	 	 	 	 	1581535872	9.16	16.96
12/02/2020 19:31:13	120220	12022020	193113	237.45	12.406712	-56.742373	237.59	0.350	-0.750	0.580	237.48	-2.20	1.00	 	 	 	 	 	 	 	 	 	 	 	 	 	 	 	 	 	 	1581535873	9.07	16.80
12/02/2020 19:31:14	120220	12022020	193114	237.54	12.406690	-56.742410	237.66	0.680	-0.880	0.490	237.53	-2.30	0.90	 	 	 	 	 	 	 	 	 	 	 	 	 	 	 	 	 	 	1581535874	9.05	16.76
12/02/2020 19:31:15	120220	12022020	193115	237.42	12.406668	-56.742447	237.49	0.810	-0.890	0.610	237.36	-2.30	1.00	 	 	 	 	 	 	 	 	 	 	 	 	 	 	 	 	 	 	1581535875	9.11	16.87
12/02/2020 19:31:16	120220	12022020	193116	237.02	12.406647	-56.742485	237.07	0.610	-0.790	1.020	236.92	-2.20	1.40	 	 	 	 	 	 	 	 	 	 	 	 	 	 	 	 	 	 	1581535876	9.25	17.13
12/02/2020 19:31:17	120220	12022020	193117	236.63	12.406625	-56.742523	236.74	0.130	-0.450	1.380	236.59	-1.90	1.80	 	 	 	 	 	 	 	 	 	 	 	 	 	 	 	 	 	 	1581535877	9.27	17.17
12/02/2020 19:31:18	120220	12022020	193118	236.49	12.406607	-56.742562	236.65	-0.360	0.020	1.490	236.49	-1.40	1.90	 	 	 	 	 	 	 	 	 	 	 	 	 	 	 	 	 	 	1581535878	9.13	16.91
12/02/2020 19:31:19	120220	12022020	193119	236.56	12.406588	-56.742602	236.77	-0.570	0.270	1.320	236.61	-1.10	1.70	 	 	 	 	 	 	 	 	 	 	 	 	 	 	 	 	 	 	1581535879	9.18	17.00
12/02/2020 19:31:20	120220	12022020	193120	236.91	12.406567	-56.742640	237.16	-0.480	0.180	0.820	237.03	-1.20	1.20	 	 	 	 	 	 	 	 	 	 	 	 	 	 	 	 	 	 	1581535880	9.39	17.39
12/02/2020 19:31:21	120220	12022020	193121	237.43	12.406545	-56.742678	237.84	-0.260	-0.130	0.280	237.57	-1.50	0.70	 	 	 	 	 	 	 	 	 	 	 	 	 	 	 	 	 	 	1581535881	9.50	17.59
12/02/2020 19:31:22	120220	12022020	193122	238.30	12.406522	-56.742717	238.52	-0.130	-0.420	0.050	238.42	-1.80	0.40	 	 	 	 	 	 	 	 	 	 	 	 	 	 	 	 	 	 	1581535882	9.43	17.46
12/02/2020 19:31:23	120220	12022020	193123	238.67	12.406500	-56.742755	238.83	-0.090	-0.570	0.190	238.72	-2.00	0.60	 	 	 	 	 	 	 	 	 	 	 	 	 	 	 	 	 	 	1581535883	9.24	17.11
12/02/2020 19:31:24	120220	12022020	193124	238.67	12.406480	-56.742792	238.71	-0.070	-0.540	0.590	238.63	-2.00	1.00	 	 	 	 	 	 	 	 	 	 	 	 	 	 	 	 	 	 	1581535884	9.13	16.91
12/02/2020 19:31:25	120220	12022020	193125	238.43	12.406460	-56.742830	238.47	0.040	-0.300	0.940	238.38	-1.70	1.30	 	 	 	 	 	 	 	 	 	 	 	 	 	 	 	 	 	 	1581535885	8.93	16.54
12/02/2020 19:31:26	120220	12022020	193126	238.09	12.406440	-56.742867	238.12	0.210	-0.120	1.220	238.00	-1.50	1.60	 	 	 	 	 	 	 	 	 	 	 	 	 	 	 	 	 	 	1581535886	8.90	16.48
12/02/2020 19:31:27	120220	12022020	193127	237.60	12.406420	-56.742905	237.61	0.360	-0.160	1.450	237.49	-1.60	1.80	 	 	 	 	 	 	 	 	 	 	 	 	 	 	 	 	 	 	1581535887	9.15	16.95
12/02/2020 19:31:28	120220	12022020	193128	237.09	12.406400	-56.742943	237.14	0.390	-0.340	1.520	237.01	-1.70	1.90	 	 	 	 	 	 	 	 	 	 	 	 	 	 	 	 	 	 	1581535888	9.39	17.39
12/02/2020 19:31:29	120220	12022020	193129	236.85	12.406380	-56.742983	236.98	0.280	-0.390	1.350	236.87	-1.80	1.80	 	 	 	 	 	 	 	 	 	 	 	 	 	 	 	 	 	 	1581535889	9.41	17.43
12/02/2020 19:31:30	120220	12022020	193130	237.15	12.406360	-56.743022	237.39	0.050	-0.160	0.950	237.28	-1.60	1.40	 	 	 	 	 	 	 	 	 	 	 	 	 	 	 	 	 	 	1581535890	9.06	16.78
12/02/2020 19:31:31	120220	12022020	193131	237.87	12.406342	-56.743058	238.12	-0.200	0.080	0.470	238.03	-1.30	0.90	 	 	 	 	 	 	 	 	 	 	 	 	 	 	 	 	 	 	1581535891	8.76	16.22
12/02/2020 19:31:32	120220	12022020	193132	238.57	12.406322	-56.743095	238.78	-0.300	-0.040	0.170	238.68	-1.40	0.60	 	 	 	 	 	 	 	 	 	 	 	 	 	 	 	 	 	 	1581535892	8.92	16.52
12/02/2020 19:31:33	120220	12022020	193133	239.00	12.406300	-56.743133	239.15	-0.230	-0.360	0.190	239.05	-1.80	0.60	 	 	 	 	 	 	 	 	 	 	 	 	 	 	 	 	 	 	1581535893	9.21	17.06
12/02/2020 19:31:34	120220	12022020	193134	239.12	12.406280	-56.743172	239.21	-0.140	-0.580	0.370	239.11	-2.00	0.80	 	 	 	 	 	 	 	 	 	 	 	 	 	 	 	 	 	 	1581535894	9.17	16.98
12/02/2020 19:31:35	120220	12022020	193135	238.99	12.406260	-56.743208	239.04	-0.060	-0.620	0.560	238.94	-2.00	1.00	 	 	 	 	 	 	 	 	 	 	 	 	 	 	 	 	 	 	1581535895	9.02	16.71
12/02/2020 19:31:36	120220	12022020	193136	238.72	12.406240	-56.743245	238.74	0.090	-0.640	0.710	238.66	-2.00	1.10	 	 	 	 	 	 	 	 	 	 	 	 	 	 	 	 	 	 	1581535896	8.97	16.61
12/02/2020 19:31:37	120220	12022020	193137	238.31	12.406218	-56.743283	238.32	0.280	-0.820	1.050	238.22	-2.20	1.40	 	 	 	 	 	 	 	 	 	 	 	 	 	 	 	 	 	 	1581535897	9.23	17.09
12/02/2020 19:31:38	120220	12022020	193138	237.76	12.406198	-56.743325	237.76	0.340	-0.930	1.650	237.64	-2.30	2.00	 	 	 	 	 	 	 	 	 	 	 	 	 	 	 	 	 	 	1581535898	9.55	17.69
12/02/2020 19:31:39	120220	12022020	193139	237.25	12.406183	-56.743365	237.31	0.150	-0.500	2.090	237.19	-1.90	2.50	 	 	 	 	 	 	 	 	 	 	 	 	 	 	 	 	 	 	1581535899	9.42	17.45
12/02/2020 19:31:40	120220	12022020	193140	237.08	12.406168	-56.743405	237.19	-0.170	0.380	2.040	237.08	-1.10	2.40	 	 	 	 	 	 	 	 	 	 	 	 	 	 	 	 	 	 	1581535900	8.84	16.37
12/02/2020 19:31:41	120220	12022020	193141	237.18	12.406152	-56.743442	237.34	-0.300	1.060	1.570	237.23	-0.40	2.00	 	 	 	 	 	 	 	 	 	 	 	 	 	 	 	 	 	 	1581535901	8.53	15.80
12/02/2020 19:31:42	120220	12022020	193142	237.50	12.406132	-56.743478	237.69	-0.170	1.010	0.880	237.59	-0.40	1.30	 	 	 	 	 	 	 	 	 	 	 	 	 	 	 	 	 	 	1581535902	8.82	16.33
12/02/2020 19:31:43	120220	12022020	193143	237.90	12.406108	-56.743515	238.07	0.050	0.260	0.400	237.97	-1.10	0.80	 	 	 	 	 	 	 	 	 	 	 	 	 	 	 	 	 	 	1581535903	9.33	17.28
12/02/2020 19:31:44	120220	12022020	193144	238.13	12.406085	-56.743553	238.27	0.140	-0.750	0.380	238.15	-2.10	0.80	 	 	 	 	 	 	 	 	 	 	 	 	 	 	 	 	 	 	1581535904	9.61	17.80
12/02/2020 19:31:45	120220	12022020	193145	238.15	12.406063	-56.743593	238.27	0.080	-1.400	0.650	238.15	-2.80	1.10	 	 	 	 	 	 	 	 	 	 	 	 	 	 	 	 	 	 	1581535905	9.44	17.48
12/02/2020 19:31:46	120220	12022020	193146	238.13	12.406043	-56.743630	238.25	-0.020	-1.320	0.920	238.13	-2.70	1.30	 	 	 	 	 	 	 	 	 	 	 	 	 	 	 	 	 	 	1581535906	8.86	16.41
12/02/2020 19:31:47	120220	12022020	193147	238.11	12.406027	-56.743665	238.21	-0.040	-0.740	1.070	238.09	-2.20	1.50	 	 	 	 	 	 	 	 	 	 	 	 	 	 	 	 	 	 	1581535907	8.33	15.43
12/02/2020 19:31:48	120220	12022020	193148	237.95	12.406007	-56.743700	238.03	0.090	-0.250	1.130	237.92	-1.70	1.50	 	 	 	 	 	 	 	 	 	 	 	 	 	 	 	 	 	 	1581535908	8.36	15.48
12/02/2020 19:31:49	120220	12022020	193149	237.75	12.405987	-56.743737	237.84	0.290	-0.180	1.080	237.71	-1.60	1.50	 	 	 	 	 	 	 	 	 	 	 	 	 	 	 	 	 	 	1581535909	8.85	16.39
12/02/2020 19:31:50	120220	12022020	193150	237.48	12.405967	-56.743775	237.52	0.350	-0.470	1.270	237.41	-1.90	1.70	 	 	 	 	 	 	 	 	 	 	 	 	 	 	 	 	 	 	1581535910	9.39	17.39
12/02/2020 19:31:51	120220	12022020	193151	237.02	12.405947	-56.743817	237.04	0.140	-0.760	1.880	236.91	-2.20	2.30	 	 	 	 	 	 	 	 	 	 	 	 	 	 	 	 	 	 	1581535911	9.73	18.02
12/02/2020 19:31:52	120220	12022020	193152	236.48	12.405930	-56.743858	236.55	-0.290	-0.610	2.610	236.39	-2.00	3.00	 	 	 	 	 	 	 	 	 	 	 	 	 	 	 	 	 	 	1581535912	9.62	17.82
12/02/2020 19:31:53	120220	12022020	193153	236.13	12.405915	-56.743900	236.26	-0.720	-0.050	2.940	236.09	-1.50	3.30	 	 	 	 	 	 	 	 	 	 	 	 	 	 	 	 	 	 	1581535913	9.21	17.06
12/02/2020 19:31:54	120220	12022020	193154	236.11	12.405900	-56.743938	236.33	-0.860	0.600	2.590	236.16	-0.80	3.00	 	 	 	 	 	 	 	 	 	 	 	 	 	 	 	 	 	 	1581535914	8.82	16.33
12/02/2020 19:31:55	120220	12022020	193155	236.58	12.405880	-56.743973	236.87	-0.550	1.060	1.510	236.73	-0.40	2.00	 	 	 	 	 	 	 	 	 	 	 	 	 	 	 	 	 	 	1581535915	8.57	15.87
12/02/2020 19:31:56	120220	12022020	193156	237.39	12.405855	-56.744007	237.69	0.060	1.040	0.180	237.57	-0.40	0.60	 	 	 	 	 	 	 	 	 	 	 	 	 	 	 	 	 	 	1581535916	8.60	15.93
12/02/2020 19:31:57	120220	12022020	193157	238.18	12.405830	-56.744038	238.42	0.640	0.350	-0.680	238.31	-1.00	-0.20	 	 	 	 	 	 	 	 	 	 	 	 	 	 	 	 	 	 	1581535917	8.97	16.61
12/02/2020 19:31:58	120220	12022020	193158	238.62	12.405805	-56.744075	238.74	0.920	-0.730	-0.720	238.64	-2.10	-0.30	 	 	 	 	 	 	 	 	 	 	 	 	 	 	 	 	 	 	1581535918	9.23	17.09
12/02/2020 19:31:59	120220	12022020	193159	238.55	12.405783	-56.744113	238.49	0.860	-1.620	0.070	238.48	-3.00	0.40	 	 	 	 	 	 	 	 	 	 	 	 	 	 	 	 	 	 	1581535919	9.24	17.11
12/02/2020 19:32:00	120220	12022020	193200	237.86	12.405767	-56.744152	237.84	0.540	-1.850	1.340	237.71	-3.20	1.70	 	 	 	 	 	 	 	 	 	 	 	 	 	 	 	 	 	 	1581535920	8.97	16.61
12/02/2020 19:32:01	120220	12022020	193201	237.08	12.405753	-56.744190	237.10	0.060	-1.550	2.420	236.94	-3.00	2.80	 	 	 	 	 	 	 	 	 	 	 	 	 	 	 	 	 	 	1581535921	8.75	16.21
12/02/2020 19:32:02	120220	12022020	193202	236.46	12.405738	-56.744230	236.54	-0.370	-1.070	2.910	236.38	-2.50	3.30	1014.60	26.30	26.30	20.70	20.70	434.0	71.0	71.0	398.0	27.7	211.00	5.90	74.00	10.20	31831	10005.0	27.5	27.4	1581535922	8.81	16.32
12/02/2020 19:32:03	120220	12022020	193203	236.15	12.405722	-56.744268	236.31	-0.610	-0.570	2.830	236.14	-2.00	3.20	 	 	 	 	 	 	 	 	 	 	 	 	 	 	 	 	 	 	1581535923	9.01	16.69
12/02/2020 19:32:04	120220	12022020	193204	236.17	12.405702	-56.744307	236.36	-0.670	-0.040	2.350	236.20	-1.50	2.80	 	 	 	 	 	 	 	 	 	 	 	 	 	 	 	 	 	 	1581535924	9.09	16.83
12/02/2020 19:32:05	120220	12022020	193205	236.44	12.405680	-56.744343	236.69	-0.590	0.540	1.710	236.53	-0.90	2.10	 	 	 	 	 	 	 	 	 	 	 	 	 	 	 	 	 	 	1581535925	9.01	16.69
12/02/2020 19:32:06	120220	12022020	193206	236.97	12.405658	-56.744378	237.24	-0.470	1.070	1.000	237.09	-0.40	1.40	 	 	 	 	 	 	 	 	 	 	 	 	 	 	 	 	 	 	1581535926	8.81	16.32
12/02/2020 19:32:07	120220	12022020	193207	237.56	12.405637	-56.744413	237.80	-0.320	1.280	0.380	237.67	-0.10	0.80	 	 	 	 	 	 	 	 	 	 	 	 	 	 	 	 	 	 	1581535927	8.66	16.04
12/02/2020 19:32:08	120220	12022020	193208	237.98	12.405615	-56.744448	238.16	-0.050	0.840	0.040	238.04	-0.50	0.50	 	 	 	 	 	 	 	 	 	 	 	 	 	 	 	 	 	 	1581535928	8.81	16.32
12/02/2020 19:32:09	120220	12022020	193209	238.11	12.405595	-56.744487	238.23	0.380	-0.180	0.130	238.09	-1.50	0.50	 	 	 	 	 	 	 	 	 	 	 	 	 	 	 	 	 	 	1581535929	9.20	17.04
12/02/2020 19:32:10	120220	12022020	193210	237.93	12.405573	-56.744525	238.01	0.760	-1.200	0.480	237.87	-2.60	0.90	 	 	 	 	 	 	 	 	 	 	 	 	 	 	 	 	 	 	1581535930	9.37	17.35
12/02/2020 19:32:11	120220	12022020	193211	237.65	12.405553	-56.744562	237.72	0.810	-1.620	0.880	237.59	-3.00	1.30	 	 	 	 	 	 	 	 	 	 	 	 	 	 	 	 	 	 	1581535931	8.96	16.59
12/02/2020 19:32:12	120220	12022020	193212	237.33	12.405535	-56.744598	237.40	0.460	-1.500	1.310	237.26	-2.90	1.70	 	 	 	 	 	 	 	 	 	 	 	 	 	 	 	 	 	 	1581535932	8.48	15.70
12/02/2020 19:32:13	120220	12022020	193213	237.03	12.405518	-56.744633	237.03	-0.040	-1.170	1.810	236.95	-2.60	2.20	 	 	 	 	 	 	 	 	 	 	 	 	 	 	 	 	 	 	1581535933	8.50	15.74
12/02/2020 19:32:14	120220	12022020	193214	236.59	12.405500	-56.744672	236.70	-0.440	-0.650	2.210	236.54	-2.10	2.60	 	 	 	 	 	 	 	 	 	 	 	 	 	 	 	 	 	 	1581535934	8.68	16.08
12/02/2020 19:32:15	120220	12022020	193215	236.43	12.405483	-56.744708	236.60	-0.630	0.020	2.200	236.44	-1.40	2.60	 	 	 	 	 	 	 	 	 	 	 	 	 	 	 	 	 	 	1581535935	8.69	16.09
12/02/2020 19:32:16	120220	12022020	193216	236.57	12.405463	-56.744745	236.80	-0.580	0.580	1.750	236.63	-0.80	2.20	 	 	 	 	 	 	 	 	 	 	 	 	 	 	 	 	 	 	1581535936	8.71	16.13
12/02/2020 19:32:17	120220	12022020	193217	236.98	12.405443	-56.744780	237.23	-0.360	0.890	1.000	237.09	-0.50	1.40	 	 	 	 	 	 	 	 	 	 	 	 	 	 	 	 	 	 	1581535937	8.80	16.30
12/02/2020 19:32:18	120220	12022020	193218	237.49	12.405420	-56.744815	237.70	-0.070	0.880	0.240	237.58	-0.50	0.70	 	 	 	 	 	 	 	 	 	 	 	 	 	 	 	 	 	 	1581535938	8.78	16.26
12/02/2020 19:32:19	120220	12022020	193219	237.77	12.405398	-56.744850	237.91	0.260	0.350	0.010	237.78	-1.00	0.40	 	 	 	 	 	 	 	 	 	 	 	 	 	 	 	 	 	 	1581535939	8.89	16.46
12/02/2020 19:32:20	120220	12022020	193220	237.62	12.405377	-56.744888	237.68	0.550	-0.610	0.350	237.54	-2.00	0.70	 	 	 	 	 	 	 	 	 	 	 	 	 	 	 	 	 	 	1581535940	9.21	17.06
12/02/2020 19:32:21	120220	12022020	193221	237.04	12.405357	-56.744927	237.05	0.630	-1.470	1.050	236.88	-2.80	1.40	 	 	 	 	 	 	 	 	 	 	 	 	 	 	 	 	 	 	1581535941	9.33	17.28
12/02/2020 19:32:22	120220	12022020	193222	236.24	12.405338	-56.744965	236.28	0.380	-1.720	1.830	236.09	-3.10	2.20	 	 	 	 	 	 	 	 	 	 	 	 	 	 	 	 	 	 	1581535942	9.06	16.78
12/02/2020 19:32:23	120220	12022020	193223	235.64	12.405322	-56.745003	235.79	-0.110	-1.300	2.260	235.58	-2.70	2.70	 	 	 	 	 	 	 	 	 	 	 	 	 	 	 	 	 	 	1581535943	8.64	16.00
12/02/2020 19:32:24	120220	12022020	193224	235.56	12.405305	-56.745038	235.81	-0.540	-0.470	2.180	235.61	-1.90	2.60	 	 	 	 	 	 	 	 	 	 	 	 	 	 	 	 	 	 	1581535944	8.29	15.35
12/02/2020 19:32:25	120220	12022020	193225	235.93	12.405288	-56.745073	236.22	-0.640	0.280	1.740	236.04	-1.10	2.20	 	 	 	 	 	 	 	 	 	 	 	 	 	 	 	 	 	 	1581535945	8.21	15.20
12/02/2020 19:32:26	120220	12022020	193226	236.44	12.405268	-56.745108	236.69	-0.400	0.580	1.240	236.52	-0.80	1.70	 	 	 	 	 	 	 	 	 	 	 	 	 	 	 	 	 	 	1581535946	8.56	15.85
12/02/2020 19:32:27	120220	12022020	193227	236.83	12.405245	-56.745143	237.05	-0.040	0.500	0.750	236.89	-0.90	1.20	 	 	 	 	 	 	 	 	 	 	 	 	 	 	 	 	 	 	1581535947	8.97	16.61
12/02/2020 19:32:28	120220	12022020	193228	237.08	12.405222	-56.745178	237.25	0.270	0.380	0.350	237.10	-1.00	0.80	 	 	 	 	 	 	 	 	 	 	 	 	 	 	 	 	 	 	1581535948	8.98	16.63
12/02/2020 19:32:29	120220	12022020	193229	237.09	12.405198	-56.745213	237.22	0.490	0.290	0.190	237.06	-1.10	0.60	 	 	 	 	 	 	 	 	 	 	 	 	 	 	 	 	 	 	1581535949	8.71	16.13
12/02/2020 19:32:30	120220	12022020	193230	236.89	12.405177	-56.745247	236.99	0.520	0.000	0.410	236.84	-1.40	0.80	 	 	 	 	 	 	 	 	 	 	 	 	 	 	 	 	 	 	1581535950	8.62	15.96
12/02/2020 19:32:31	120220	12022020	193231	236.56	12.405158	-56.745283	236.63	0.350	-0.530	1.050	236.47	-1.90	1.40	 	 	 	 	 	 	 	 	 	 	 	 	 	 	 	 	 	 	1581535951	8.81	16.32
12/02/2020 19:32:32	120220	12022020	193232	236.11	12.405142	-56.745323	236.18	0.100	-1.030	1.740	236.02	-2.40	2.10	 	 	 	 	 	 	 	 	 	 	 	 	 	 	 	 	 	 	1581535952	8.97	16.61
12/02/2020 19:32:33	120220	12022020	193233	235.74	12.405125	-56.745360	235.87	-0.040	-1.230	2.050	235.69	-2.60	2.50	 	 	 	 	 	 	 	 	 	 	 	 	 	 	 	 	 	 	1581535953	8.76	16.22
12/02/2020 19:32:34	120220	12022020	193234	235.56	12.405107	-56.745397	235.73	-0.060	-1.220	1.970	235.55	-2.60	2.40	 	 	 	 	 	 	 	 	 	 	 	 	 	 	 	 	 	 	1581535954	8.56	15.85
12/02/2020 19:32:35	120220	12022020	193235	235.55	12.405085	-56.745432	235.74	-0.100	-1.130	1.670	235.56	-2.50	2.10	 	 	 	 	 	 	 	 	 	 	 	 	 	 	 	 	 	 	1581535955	8.68	16.08
12/02/2020 19:32:36	120220	12022020	193236	235.59	12.405063	-56.745468	235.77	-0.240	-0.860	1.360	235.59	-2.30	1.80	 	 	 	 	 	 	 	 	 	 	 	 	 	 	 	 	 	 	1581535956	8.85	16.39
12/02/2020 19:32:37	120220	12022020	193237	235.66	12.405043	-56.745503	235.86	-0.440	-0.210	1.040	235.70	-1.60	1.50	 	 	 	 	 	 	 	 	 	 	 	 	 	 	 	 	 	 	1581535957	8.76	16.22
12/02/2020 19:32:38	120220	12022020	193238	235.93	12.405023	-56.745537	236.17	-0.530	0.740	0.570	236.02	-0.70	1.00	 	 	 	 	 	 	 	 	 	 	 	 	 	 	 	 	 	 	1581535958	8.38	15.52
12/02/2020 19:32:39	120220	12022020	193239	236.41	12.405002	-56.745570	236.66	-0.350	1.380	-0.090	236.50	-0.00	0.40	 	 	 	 	 	 	 	 	 	 	 	 	 	 	 	 	 	 	1581535959	8.19	15.17
12/02/2020 19:32:40	120220	12022020	193240	236.82	12.404978	-56.745603	237.03	0.050	1.060	-0.500	236.87	-0.30	-0.10	 	 	 	 	 	 	 	 	 	 	 	 	 	 	 	 	 	 	1581535960	8.73	16.17
12/02/2020 19:32:41	120220	12022020	193241	236.92	12.404953	-56.745640	237.07	0.420	-0.030	-0.170	236.90	-1.40	0.20	 	 	 	 	 	 	 	 	 	 	 	 	 	 	 	 	 	 	1581535961	9.47	17.54
12/02/2020 19:32:42	120220	12022020	193242	236.73	12.404933	-56.745680	236.85	0.500	-0.940	0.800	236.66	-2.30	1.20	 	 	 	 	 	 	 	 	 	 	 	 	 	 	 	 	 	 	1581535962	9.57	17.72
12/02/2020 19:32:43	120220	12022020	193243	236.33	12.404917	-56.745720	236.46	0.290	-1.060	1.960	236.24	-2.40	2.30	 	 	 	 	 	 	 	 	 	 	 	 	 	 	 	 	 	 	1581535963	8.92	16.52
12/02/2020 19:32:44	120220	12022020	193244	235.94	12.404903	-56.745755	236.12	0.000	-0.600	2.650	235.89	-2.00	3.10	 	 	 	 	 	 	 	 	 	 	 	 	 	 	 	 	 	 	1581535964	8.20	15.19
12/02/2020 19:32:45	120220	12022020	193245	235.78	12.404890	-56.745790	236.00	-0.090	-0.170	2.570	235.78	-1.60	3.00	 	 	 	 	 	 	 	 	 	 	 	 	 	 	 	 	 	 	1581535965	7.91	14.65
12/02/2020 19:32:46	120220	12022020	193246	235.81	12.404870	-56.745823	236.02	0.080	-0.200	1.890	235.82	-1.60	2.30	 	 	 	 	 	 	 	 	 	 	 	 	 	 	 	 	 	 	1581535966	8.23	15.24
12/02/2020 19:32:47	120220	12022020	193247	235.92	12.404847	-56.745857	236.14	0.290	-0.600	1.040	235.95	-2.00	1.50	 	 	 	 	 	 	 	 	 	 	 	 	 	 	 	 	 	 	1581535967	8.78	16.26
12/02/2020 19:32:48	120220	12022020	193248	236.05	12.404822	-56.745892	236.25	0.270	-1.030	0.320	236.07	-2.40	0.80	 	 	 	 	 	 	 	 	 	 	 	 	 	 	 	 	 	 	1581535968	9.06	16.78
12/02/2020 19:32:49	120220	12022020	193249	236.11	12.404797	-56.745927	236.31	0.010	-1.100	-0.050	236.12	-2.50	0.40	 	 	 	 	 	 	 	 	 	 	 	 	 	 	 	 	 	 	1581535969	8.97	16.61
12/02/2020 19:32:50	120220	12022020	193250	236.16	12.404777	-56.745962	236.36	-0.310	-0.670	-0.100	236.18	-2.10	0.30	 	 	 	 	 	 	 	 	 	 	 	 	 	 	 	 	 	 	1581535970	8.63	15.98
12/02/2020 19:32:51	120220	12022020	193251	236.28	12.404757	-56.745995	236.48	-0.490	-0.020	0.110	236.30	-1.40	0.50	 	 	 	 	 	 	 	 	 	 	 	 	 	 	 	 	 	 	1581535971	8.37	15.50
12/02/2020 19:32:52	120220	12022020	193252	236.36	12.404738	-56.746032	236.54	-0.440	0.380	0.580	236.36	-1.00	1.00	 	 	 	 	 	 	 	 	 	 	 	 	 	 	 	 	 	 	1581535972	8.52	15.78
12/02/2020 19:32:53	120220	12022020	193253	236.38	12.404720	-56.746068	236.58	-0.230	0.410	1.110	236.38	-1.00	1.50	 	 	 	 	 	 	 	 	 	 	 	 	 	 	 	 	 	 	1581535973	8.92	16.52
12/02/2020 19:32:54	120220	12022020	193254	236.34	12.404702	-56.746108	236.51	-0.010	0.290	1.710	236.31	-1.10	2.10	 	 	 	 	 	 	 	 	 	 	 	 	 	 	 	 	 	 	1581535974	9.06	16.78
12/02/2020 19:32:55	120220	12022020	193255	236.07	12.404683	-56.746147	236.20	0.160	0.160	2.250	235.99	-1.20	2.60	 	 	 	 	 	 	 	 	 	 	 	 	 	 	 	 	 	 	1581535975	8.97	16.61
12/02/2020 19:32:56	120220	12022020	193256	235.73	12.404667	-56.746183	235.89	0.240	0.150	2.300	235.69	-1.20	2.70	 	 	 	 	 	 	 	 	 	 	 	 	 	 	 	 	 	 	1581535976	8.66	16.04
12/02/2020 19:32:57	120220	12022020	193257	235.72	12.404647	-56.746217	235.96	0.240	0.150	1.530	235.78	-1.20	2.00	 	 	 	 	 	 	 	 	 	 	 	 	 	 	 	 	 	 	1581535977	8.27	15.32
12/02/2020 19:32:58	120220	12022020	193258	236.14	12.404623	-56.746248	236.39	0.240	-0.240	0.190	236.24	-1.60	0.70	 	 	 	 	 	 	 	 	 	 	 	 	 	 	 	 	 	 	1581535978	8.31	15.39
12/02/2020 19:32:59	120220	12022020	193259	236.63	12.404597	-56.746280	236.85	0.290	-1.060	-0.830	236.70	-2.40	-0.40	 	 	 	 	 	 	 	 	 	 	 	 	 	 	 	 	 	 	1581535979	8.86	16.41
12/02/2020 19:33:00	120220	12022020	193300	236.88	12.404572	-56.746315	237.03	0.310	-1.720	-0.930	236.88	-3.10	-0.50	 	 	 	 	 	 	 	 	 	 	 	 	 	 	 	 	 	 	1581535980	9.10	16.85
12/02/2020 19:33:01	120220	12022020	193301	236.76	12.404550	-56.746350	236.87	0.150	-1.660	-0.200	236.70	-3.00	0.20	 	 	 	 	 	 	 	 	 	 	 	 	 	 	 	 	 	 	1581535981	8.79	16.28
12/02/2020 19:33:02	120220	12022020	193302	236.35	12.404533	-56.746387	236.45	-0.220	-0.840	0.870	236.26	-2.30	1.20	1014.60	26.20	26.30	20.50	20.60	456.0	70.0	70.0	397.0	27.8	217.00	6.30	78.00	10.30	32530	10586.0	27.5	27.5	1581535982	8.33	15.43
12/02/2020 19:33:03	120220	12022020	193303	236.03	12.404520	-56.746422	236.16	-0.580	0.210	1.690	235.99	-1.20	2.10	 	 	 	 	 	 	 	 	 	 	 	 	 	 	 	 	 	 	1581535983	8.14	15.08
12/02/2020 19:33:04	120220	12022020	193304	235.95	12.404505	-56.746458	236.16	-0.630	0.860	1.910	235.97	-0.50	2.30	 	 	 	 	 	 	 	 	 	 	 	 	 	 	 	 	 	 	1581535984	8.32	15.41
12/02/2020 19:33:05	120220	12022020	193305	236.04	12.404487	-56.746495	236.27	-0.260	0.780	1.740	236.06	-0.60	2.20	 	 	 	 	 	 	 	 	 	 	 	 	 	 	 	 	 	 	1581535985	8.82	16.33
12/02/2020 19:33:06	120220	12022020	193306	236.14	12.404465	-56.746533	236.33	0.280	0.190	1.390	236.15	-1.20	1.80	 	 	 	 	 	 	 	 	 	 	 	 	 	 	 	 	 	 	1581535986	9.27	17.17
12/02/2020 19:33:07	120220	12022020	193307	236.16	12.404442	-56.746570	236.34	0.560	-0.470	1.040	236.16	-1.80	1.50	 	 	 	 	 	 	 	 	 	 	 	 	 	 	 	 	 	 	1581535987	9.34	17.30
12/02/2020 19:33:08	120220	12022020	193308	236.16	12.404420	-56.746607	236.34	0.370	-0.780	0.720	236.16	-2.20	1.20	 	 	 	 	 	 	 	 	 	 	 	 	 	 	 	 	 	 	1581535988	9.02	16.71
12/02/2020 19:33:09	120220	12022020	193309	236.26	12.404398	-56.746640	236.44	-0.110	-0.570	0.430	236.29	-2.00	0.90	 	 	 	 	 	 	 	 	 	 	 	 	 	 	 	 	 	 	1581535989	8.42	15.59
12/02/2020 19:33:10	120220	12022020	193310	236.42	12.404380	-56.746673	236.60	-0.420	-0.220	0.200	236.44	-1.60	0.60	 	 	 	 	 	 	 	 	 	 	 	 	 	 	 	 	 	 	1581535990	8.06	14.93
12/02/2020 19:33:11	120220	12022020	193311	236.51	12.404358	-56.746707	236.68	-0.370	-0.110	0.200	236.52	-1.50	0.60	 	 	 	 	 	 	 	 	 	 	 	 	 	 	 	 	 	 	1581535991	8.27	15.32
12/02/2020 19:33:12	120220	12022020	193312	236.59	12.404338	-56.746742	236.79	-0.100	-0.170	0.410	236.61	-1.60	0.80	 	 	 	 	 	 	 	 	 	 	 	 	 	 	 	 	 	 	1581535992	8.58	15.89
12/02/2020 19:33:13	120220	12022020	193313	236.71	12.404320	-56.746777	236.90	0.190	-0.240	0.730	236.73	-1.60	1.10	 	 	 	 	 	 	 	 	 	 	 	 	 	 	 	 	 	 	1581535993	8.66	16.04
12/02/2020 19:33:14	120220	12022020	193314	236.82	12.404302	-56.746813	237.02	0.360	-0.120	1.040	236.85	-1.50	1.40	 	 	 	 	 	 	 	 	 	 	 	 	 	 	 	 	 	 	1581535994	8.53	15.80
12/02/2020 19:33:15	120220	12022020	193315	236.98	12.404282	-56.746847	237.17	0.390	0.050	1.280	237.00	-1.30	1.70	 	 	 	 	 	 	 	 	 	 	 	 	 	 	 	 	 	 	1581535995	8.28	15.33
12/02/2020 19:33:16	120220	12022020	193316	236.98	12.404263	-56.746882	237.11	0.310	-0.190	1.580	236.94	-1.60	2.00	 	 	 	 	 	 	 	 	 	 	 	 	 	 	 	 	 	 	1581535996	8.46	15.67
12/02/2020 19:33:17	120220	12022020	193317	236.71	12.404243	-56.746920	236.82	0.200	-0.850	1.730	236.66	-2.20	2.10	 	 	 	 	 	 	 	 	 	 	 	 	 	 	 	 	 	 	1581535997	9.10	16.85
12/02/2020 19:33:18	120220	12022020	193318	236.45	12.404222	-56.746958	236.59	0.020	-1.290	1.510	236.41	-2.70	1.90	 	 	 	 	 	 	 	 	 	 	 	 	 	 	 	 	 	 	1581535998	9.26	17.15
12/02/2020 19:33:19	120220	12022020	193319	236.31	12.404202	-56.746993	236.45	-0.220	-1.140	1.120	236.28	-2.50	1.60	 	 	 	 	 	 	 	 	 	 	 	 	 	 	 	 	 	 	1581535999	8.77	16.24
12/02/2020 19:33:20	120220	12022020	193320	236.18	12.404180	-56.747028	236.31	-0.410	-0.640	0.850	236.15	-2.00	1.30	 	 	 	 	 	 	 	 	 	 	 	 	 	 	 	 	 	 	1581536000	8.39	15.54
12/02/2020 19:33:21	120220	12022020	193321	236.07	12.404160	-56.747062	236.20	-0.450	-0.080	0.710	236.05	-1.50	1.10	 	 	 	 	 	 	 	 	 	 	 	 	 	 	 	 	 	 	1581536001	8.37	15.50
12/02/2020 19:33:22	120220	12022020	193322	236.05	12.404140	-56.747097	236.20	-0.390	0.340	0.650	236.06	-1.10	1.10	 	 	 	 	 	 	 	 	 	 	 	 	 	 	 	 	 	 	1581536002	8.52	15.78
12/02/2020 19:33:23	120220	12022020	193323	236.18	12.404122	-56.747133	236.37	-0.310	0.590	0.660	236.23	-0.80	1.10	 	 	 	 	 	 	 	 	 	 	 	 	 	 	 	 	 	 	1581536003	8.69	16.09
12/02/2020 19:33:24	120220	12022020	193324	236.51	12.404102	-56.747168	236.71	-0.200	0.740	0.710	236.60	-0.70	1.10	 	 	 	 	 	 	 	 	 	 	 	 	 	 	 	 	 	 	1581536004	8.66	16.04
12/02/2020 19:33:25	120220	12022020	193325	236.99	12.404083	-56.747203	237.20	0.020	0.820	0.710	237.10	-0.60	1.10	 	 	 	 	 	 	 	 	 	 	 	 	 	 	 	 	 	 	1581536005	8.42	15.59
12/02/2020 19:33:26	120220	12022020	193326	237.47	12.404063	-56.747238	237.68	0.400	0.550	0.650	237.55	-0.80	1.10	 	 	 	 	 	 	 	 	 	 	 	 	 	 	 	 	 	 	1581536006	8.31	15.39
12/02/2020 19:33:27	120220	12022020	193327	237.76	12.404043	-56.747272	237.91	0.790	-0.300	0.690	237.78	-1.60	1.10	 	 	 	 	 	 	 	 	 	 	 	 	 	 	 	 	 	 	1581536007	8.63	15.98
12/02/2020 19:33:28	120220	12022020	193328	237.72	12.404022	-56.747308	237.84	0.930	-1.320	0.920	237.69	-2.70	1.30	 	 	 	 	 	 	 	 	 	 	 	 	 	 	 	 	 	 	1581536008	8.98	16.63
12/02/2020 19:33:29	120220	12022020	193329	237.49	12.404002	-56.747345	237.61	0.660	-1.870	1.200	237.44	-3.20	1.60	 	 	 	 	 	 	 	 	 	 	 	 	 	 	 	 	 	 	1581536009	8.86	16.41
12/02/2020 19:33:30	120220	12022020	193330	237.21	12.403985	-56.747382	237.31	0.180	-1.740	1.440	237.16	-3.10	1.80	 	 	 	 	 	 	 	 	 	 	 	 	 	 	 	 	 	 	1581536010	8.42	15.59
12/02/2020 19:33:31	120220	12022020	193331	236.89	12.403967	-56.747415	236.97	-0.260	-1.150	1.580	236.82	-2.60	2.00	 	 	 	 	 	 	 	 	 	 	 	 	 	 	 	 	 	 	1581536011	8.17	15.13
12/02/2020 19:33:32	120220	12022020	193332	236.62	12.403948	-56.747450	236.73	-0.550	-0.500	1.480	236.59	-1.90	1.90	 	 	 	 	 	 	 	 	 	 	 	 	 	 	 	 	 	 	1581536012	8.29	15.35
12/02/2020 19:33:33	120220	12022020	193333	236.59	12.403928	-56.747485	236.74	-0.710	0.030	1.150	236.63	-1.40	1.60	 	 	 	 	 	 	 	 	 	 	 	 	 	 	 	 	 	 	1581536013	8.62	15.96
12/02/2020 19:33:34	120220	12022020	193334	236.88	12.403908	-56.747522	237.08	-0.750	0.530	0.670	236.97	-0.90	1.10	 	 	 	 	 	 	 	 	 	 	 	 	 	 	 	 	 	 	1581536014	8.75	16.21
12/02/2020 19:33:35	120220	12022020	193335	237.38	12.403887	-56.747555	237.60	-0.660	0.930	0.310	237.48	-0.50	0.70	 	 	 	 	 	 	 	 	 	 	 	 	 	 	 	 	 	 	1581536015	8.61	15.95
12/02/2020 19:33:36	120220	12022020	193336	237.83	12.403867	-56.747592	238.01	-0.370	0.920	0.350	237.90	-0.50	0.80	 	 	 	 	 	 	 	 	 	 	 	 	 	 	 	 	 	 	1581536016	8.65	16.02
12/02/2020 19:33:37	120220	12022020	193337	238.09	12.403847	-56.747628	238.25	0.020	0.440	0.740	238.11	-0.90	1.10	 	 	 	 	 	 	 	 	 	 	 	 	 	 	 	 	 	 	1581536017	8.91	16.50
12/02/2020 19:33:38	120220	12022020	193338	238.11	12.403830	-56.747667	238.23	0.390	-0.250	1.110	238.09	-1.60	1.50	 	 	 	 	 	 	 	 	 	 	 	 	 	 	 	 	 	 	1581536018	9.00	16.67
12/02/2020 19:33:39	120220	12022020	193339	237.99	12.403812	-56.747705	238.04	0.650	-0.800	1.200	237.95	-2.20	1.60	 	 	 	 	 	 	 	 	 	 	 	 	 	 	 	 	 	 	1581536019	8.82	16.33
12/02/2020 19:33:40	120220	12022020	193340	237.65	12.403792	-56.747738	237.72	0.720	-0.950	1.090	237.59	-2.30	1.50	 	 	 	 	 	 	 	 	 	 	 	 	 	 	 	 	 	 	1581536020	8.43	15.61
12/02/2020 19:33:41	120220	12022020	193341	237.41	12.403772	-56.747772	237.53	0.500	-0.790	0.850	237.41	-2.20	1.30	 	 	 	 	 	 	 	 	 	 	 	 	 	 	 	 	 	 	1581536021	8.13	15.06
12/02/2020 19:33:42	120220	12022020	193342	237.53	12.403753	-56.747805	237.69	0.050	-0.530	0.490	237.58	-1.90	0.90	 	 	 	 	 	 	 	 	 	 	 	 	 	 	 	 	 	 	1581536022	8.04	14.89
12/02/2020 19:33:43	120220	12022020	193343	237.90	12.403733	-56.747837	238.08	-0.390	-0.330	0.150	237.99	-1.70	0.60	 	 	 	 	 	 	 	 	 	 	 	 	 	 	 	 	 	 	1581536023	8.18	15.15
12/02/2020 19:33:44	120220	12022020	193344	238.36	12.403713	-56.747872	238.53	-0.560	-0.230	-0.050	238.44	-1.60	0.40	 	 	 	 	 	 	 	 	 	 	 	 	 	 	 	 	 	 	1581536024	8.40	15.56
12/02/2020 19:33:45	120220	12022020	193345	238.66	12.403693	-56.747907	238.78	-0.370	-0.270	0.170	238.67	-1.60	0.60	 	 	 	 	 	 	 	 	 	 	 	 	 	 	 	 	 	 	1581536025	8.59	15.91
12/02/2020 19:33:46	120220	12022020	193346	238.55	12.403675	-56.747945	238.60	-0.010	-0.410	0.890	238.47	-1.80	1.30	 	 	 	 	 	 	 	 	 	 	 	 	 	 	 	 	 	 	1581536026	8.84	16.37
12/02/2020 19:33:47	120220	12022020	193347	238.01	12.403660	-56.747983	238.00	0.250	-0.480	1.750	237.86	-1.90	2.10	 	 	 	 	 	 	 	 	 	 	 	 	 	 	 	 	 	 	1581536027	8.99	16.65
12/02/2020 19:33:48	120220	12022020	193348	237.22	12.403643	-56.748022	237.22	0.250	-0.260	2.360	237.07	-1.60	2.80	 	 	 	 	 	 	 	 	 	 	 	 	 	 	 	 	 	 	1581536028	8.80	16.30
12/02/2020 19:33:49	120220	12022020	193349	236.60	12.403628	-56.748058	236.68	0.050	0.160	2.350	236.53	-1.20	2.80	 	 	 	 	 	 	 	 	 	 	 	 	 	 	 	 	 	 	1581536029	8.36	15.48
12/02/2020 19:33:50	120220	12022020	193350	236.44	12.403610	-56.748092	236.62	-0.120	0.330	1.670	236.47	-1.00	2.10	 	 	 	 	 	 	 	 	 	 	 	 	 	 	 	 	 	 	1581536030	8.17	15.13
12/02/2020 19:33:51	120220	12022020	193351	236.75	12.403588	-56.748127	236.98	-0.130	-0.020	0.650	236.85	-1.40	1.10	 	 	 	 	 	 	 	 	 	 	 	 	 	 	 	 	 	 	1581536031	8.52	15.78
12/02/2020 19:33:52	120220	12022020	193352	237.35	12.403565	-56.748160	237.61	-0.030	-0.560	-0.330	237.50	-1.90	0.10	 	 	 	 	 	 	 	 	 	 	 	 	 	 	 	 	 	 	1581536032	8.85	16.39
12/02/2020 19:33:53	120220	12022020	193353	237.97	12.403542	-56.748195	238.38	0.060	-0.850	-0.960	238.14	-2.20	-0.50	 	 	 	 	 	 	 	 	 	 	 	 	 	 	 	 	 	 	1581536033	8.76	16.22
12/02/2020 19:33:54	120220	12022020	193354	238.79	12.403520	-56.748228	238.97	0.050	-0.790	-0.950	238.87	-2.20	-0.50	 	 	 	 	 	 	 	 	 	 	 	 	 	 	 	 	 	 	1581536034	8.45	15.65
12/02/2020 19:33:55	120220	12022020	193355	238.93	12.403502	-56.748263	239.02	-0.070	-0.550	-0.200	238.89	-1.90	0.20	 	 	 	 	 	 	 	 	 	 	 	 	 	 	 	 	 	 	1581536035	8.34	15.45
12/02/2020 19:33:56	120220	12022020	193356	238.54	12.403485	-56.748298	238.57	-0.200	-0.120	0.940	238.42	-1.50	1.30	 	 	 	 	 	 	 	 	 	 	 	 	 	 	 	 	 	 	1581536036	8.36	15.48
12/02/2020 19:33:57	120220	12022020	193357	237.93	12.403472	-56.748335	237.98	-0.220	0.380	1.950	237.80	-1.00	2.30	 	 	 	 	 	 	 	 	 	 	 	 	 	 	 	 	 	 	1581536037	8.29	15.35
12/02/2020 19:33:58	120220	12022020	193358	237.35	12.403457	-56.748372	237.44	-0.060	0.620	2.450	237.26	-0.80	2.90	 	 	 	 	 	 	 	 	 	 	 	 	 	 	 	 	 	 	1581536038	8.29	15.35
12/02/2020 19:33:59	120220	12022020	193359	236.99	12.403440	-56.748407	237.14	0.210	0.370	2.330	236.95	-1.00	2.70	 	 	 	 	 	 	 	 	 	 	 	 	 	 	 	 	 	 	1581536039	8.48	15.70
12/02/2020 19:34:00	120220	12022020	193400	236.94	12.403420	-56.748443	237.12	0.440	-0.280	1.790	236.96	-1.60	2.20	 	 	 	 	 	 	 	 	 	 	 	 	 	 	 	 	 	 	1581536040	8.70	16.11
12/02/2020 19:34:01	120220	12022020	193401	237.10	12.403398	-56.748478	237.29	0.520	-0.980	1.160	237.15	-2.30	1.60	 	 	 	 	 	 	 	 	 	 	 	 	 	 	 	 	 	 	1581536041	8.76	16.22
12/02/2020 19:34:02	120220	12022020	193402	237.26	12.403378	-56.748513	237.42	0.470	-1.370	0.790	237.28	-2.70	1.20	1014.60	26.30	26.40	20.60	20.70	521.0	71.0	71.0	398.0	27.9	210.00	6.50	75.00	10.50	34436	10217.0	27.5	27.5	1581536042	8.62	15.96
12/02/2020 19:34:03	120220	12022020	193403	237.28	12.403358	-56.748548	237.40	0.300	-1.290	0.790	237.27	-2.70	1.20	 	 	 	 	 	 	 	 	 	 	 	 	 	 	 	 	 	 	1581536043	8.40	15.56
12/02/2020 19:34:04	120220	12022020	193404	237.22	12.403342	-56.748583	237.36	-0.030	-0.850	0.910	237.22	-2.20	1.30	 	 	 	 	 	 	 	 	 	 	 	 	 	 	 	 	 	 	1581536044	8.26	15.30
12/02/2020 19:34:05	120220	12022020	193405	237.30	12.403323	-56.748617	237.51	-0.490	-0.220	0.890	237.36	-1.60	1.30	 	 	 	 	 	 	 	 	 	 	 	 	 	 	 	 	 	 	1581536045	8.21	15.20
12/02/2020 19:34:06	120220	12022020	193406	237.70	12.403303	-56.748652	237.96	-0.900	0.380	0.660	237.81	-1.00	1.10	 	 	 	 	 	 	 	 	 	 	 	 	 	 	 	 	 	 	1581536046	8.22	15.22
12/02/2020 19:34:07	120220	12022020	193407	238.33	12.403285	-56.748685	238.59	-0.960	0.750	0.410	238.45	-0.60	0.90	 	 	 	 	 	 	 	 	 	 	 	 	 	 	 	 	 	 	1581536047	8.30	15.37
12/02/2020 19:34:08	120220	12022020	193408	239.01	12.403267	-56.748720	239.27	-0.500	0.820	0.190	239.14	-0.60	0.60	 	 	 	 	 	 	 	 	 	 	 	 	 	 	 	 	 	 	1581536048	8.40	15.56
12/02/2020 19:34:09	120220	12022020	193409	239.50	12.403247	-56.748755	239.70	0.240	0.500	0.190	239.54	-0.90	0.60	 	 	 	 	 	 	 	 	 	 	 	 	 	 	 	 	 	 	1581536049	8.50	15.74
12/02/2020 19:34:10	120220	12022020	193410	239.51	12.403228	-56.748792	239.62	0.800	-0.250	0.640	239.44	-1.60	1.00	 	 	 	 	 	 	 	 	 	 	 	 	 	 	 	 	 	 	1581536050	8.74	16.19
12/02/2020 19:34:11	120220	12022020	193411	238.99	12.403210	-56.748830	239.04	0.880	-1.070	1.340	238.84	-2.40	1.70	 	 	 	 	 	 	 	 	 	 	 	 	 	 	 	 	 	 	1581536051	8.95	16.58
12/02/2020 19:34:12	120220	12022020	193412	238.21	12.403195	-56.748868	238.26	0.530	-1.410	2.000	238.05	-2.80	2.40	 	 	 	 	 	 	 	 	 	 	 	 	 	 	 	 	 	 	1581536052	8.80	16.30
12/02/2020 19:34:13	120220	12022020	193413	237.53	12.403180	-56.748905	237.62	0.000	-1.070	2.290	237.42	-2.50	2.70	 	 	 	 	 	 	 	 	 	 	 	 	 	 	 	 	 	 	1581536053	8.26	15.30
12/02/2020 19:34:14	120220	12022020	193414	237.12	12.403165	-56.748938	237.28	-0.360	-0.450	2.050	237.08	-1.90	2.50	 	 	 	 	 	 	 	 	 	 	 	 	 	 	 	 	 	 	1581536054	7.86	14.56
12/02/2020 19:34:15	120220	12022020	193415	237.03	12.403147	-56.748972	237.22	-0.390	-0.060	1.470	237.03	-1.40	1.90	 	 	 	 	 	 	 	 	 	 	 	 	 	 	 	 	 	 	1581536055	8.00	14.82
12/02/2020 19:34:16	120220	12022020	193416	237.09	12.403125	-56.749005	237.27	-0.170	-0.040	0.910	237.11	-1.40	1.40	 	 	 	 	 	 	 	 	 	 	 	 	 	 	 	 	 	 	1581536056	8.48	15.70
12/02/2020 19:34:17	120220	12022020	193417	237.28	12.403103	-56.749040	237.49	0.000	-0.100	0.600	237.34	-1.50	1.00	 	 	 	 	 	 	 	 	 	 	 	 	 	 	 	 	 	 	1581536057	8.78	16.26
12/02/2020 19:34:18	120220	12022020	193418	237.66	12.403085	-56.749077	237.90	-0.050	0.010	0.690	237.76	-1.40	1.10	 	 	 	 	 	 	 	 	 	 	 	 	 	 	 	 	 	 	1581536058	8.61	15.95
12/02/2020 19:34:19	120220	12022020	193419	238.22	12.403070	-56.749113	238.50	-0.190	0.280	0.840	238.34	-1.10	1.30	 	 	 	 	 	 	 	 	 	 	 	 	 	 	 	 	 	 	1581536059	8.31	15.39
12/02/2020 19:34:20	120220	12022020	193420	238.88	12.403055	-56.749148	239.15	-0.150	0.390	0.690	238.99	-1.00	1.10	 	 	 	 	 	 	 	 	 	 	 	 	 	 	 	 	 	 	1581536060	8.09	14.98
12/02/2020 19:34:21	120220	12022020	193421	239.34	12.403038	-56.749183	239.54	0.160	0.070	0.450	239.39	-1.30	0.90	 	 	 	 	 	 	 	 	 	 	 	 	 	 	 	 	 	 	1581536061	8.24	15.26
12/02/2020 19:34:22	120220	12022020	193422	239.31	12.403017	-56.749218	239.40	0.520	-0.640	0.600	239.22	-2.00	1.00	 	 	 	 	 	 	 	 	 	 	 	 	 	 	 	 	 	 	1581536062	8.65	16.02
12/02/2020 19:34:23	120220	12022020	193423	238.66	12.402998	-56.749255	238.68	0.580	-1.280	1.240	238.48	-2.60	1.60	 	 	 	 	 	 	 	 	 	 	 	 	 	 	 	 	 	 	1581536063	8.90	16.48
12/02/2020 19:34:24	120220	12022020	193424	237.72	12.402980	-56.749292	237.75	0.250	-1.310	1.900	237.53	-2.70	2.30	 	 	 	 	 	 	 	 	 	 	 	 	 	 	 	 	 	 	1581536064	8.70	16.11
12/02/2020 19:34:25	120220	12022020	193425	236.98	12.402963	-56.749327	237.09	-0.290	-0.610	2.150	236.88	-2.00	2.60	 	 	 	 	 	 	 	 	 	 	 	 	 	 	 	 	 	 	1581536065	8.13	15.06
12/02/2020 19:34:26	120220	12022020	193426	236.69	12.402948	-56.749360	236.87	-0.670	0.230	1.960	236.67	-1.20	2.40	 	 	 	 	 	 	 	 	 	 	 	 	 	 	 	 	 	 	1581536066	7.74	14.33
12/02/2020 19:34:27	120220	12022020	193427	236.73	12.402930	-56.749393	236.96	-0.640	0.590	1.480	236.77	-0.80	1.90	 	 	 	 	 	 	 	 	 	 	 	 	 	 	 	 	 	 	1581536067	8.00	14.82
12/02/2020 19:34:28	120220	12022020	193428	236.93	12.402910	-56.749428	237.17	-0.250	0.350	1.020	236.98	-1.00	1.50	 	 	 	 	 	 	 	 	 	 	 	 	 	 	 	 	 	 	1581536068	8.58	15.89
12/02/2020 19:34:29	120220	12022020	193429	237.16	12.402890	-56.749465	237.50	0.140	-0.110	0.780	237.23	-1.50	1.20	 	 	 	 	 	 	 	 	 	 	 	 	 	 	 	 	 	 	1581536069	8.89	16.46
12/02/2020 19:34:30	120220	12022020	193430	237.71	12.402872	-56.749502	238.00	0.270	-0.380	0.790	237.82	-1.70	1.20	 	 	 	 	 	 	 	 	 	 	 	 	 	 	 	 	 	 	1581536070	8.66	16.04
12/02/2020 19:34:31	120220	12022020	193431	238.24	12.402857	-56.749537	238.49	0.240	-0.490	1.010	238.32	-1.90	1.40	 	 	 	 	 	 	 	 	 	 	 	 	 	 	 	 	 	 	1581536071	8.29	15.35
12/02/2020 19:34:32	120220	12022020	193432	238.49	12.402842	-56.749573	238.68	0.300	-0.720	1.300	238.49	-2.10	1.70	 	 	 	 	 	 	 	 	 	 	 	 	 	 	 	 	 	 	1581536072	8.27	15.32
12/02/2020 19:34:33	120220	12022020	193433	238.34	12.402823	-56.749610	238.47	0.410	-1.040	1.570	238.27	-2.40	2.00	 	 	 	 	 	 	 	 	 	 	 	 	 	 	 	 	 	 	1581536073	8.54	15.82
12/02/2020 19:34:34	120220	12022020	193434	237.91	12.402803	-56.749645	238.01	0.360	-1.060	1.850	237.80	-2.40	2.30	 	 	 	 	 	 	 	 	 	 	 	 	 	 	 	 	 	 	1581536074	8.62	15.96
12/02/2020 19:34:35	120220	12022020	193435	237.36	12.402785	-56.749680	237.48	0.040	-0.560	2.100	237.26	-2.00	2.50	 	 	 	 	 	 	 	 	 	 	 	 	 	 	 	 	 	 	1581536075	8.40	15.56
12/02/2020 19:34:36	120220	12022020	193436	236.95	12.402768	-56.749713	237.12	-0.410	0.380	2.200	236.90	-1.00	2.60	 	 	 	 	 	 	 	 	 	 	 	 	 	 	 	 	 	 	1581536076	8.02	14.85
12/02/2020 19:34:37	120220	12022020	193437	236.87	12.402752	-56.749747	237.11	-0.700	1.340	2.060	236.89	-0.10	2.50	 	 	 	 	 	 	 	 	 	 	 	 	 	 	 	 	 	 	1581536077	7.71	14.28
12/02/2020 19:34:38	120220	12022020	193438	237.07	12.402735	-56.749778	237.33	-0.580	1.700	1.700	237.12	0.30	2.20	 	 	 	 	 	 	 	 	 	 	 	 	 	 	 	 	 	 	1581536078	7.76	14.37
12/02/2020 19:34:39	120220	12022020	193439	237.35	12.402717	-56.749813	237.60	-0.080	1.090	1.220	237.41	-0.20	1.70	 	 	 	 	 	 	 	 	 	 	 	 	 	 	 	 	 	 	1581536079	8.27	15.32
12/02/2020 19:34:40	120220	12022020	193440	237.63	12.402695	-56.749848	237.87	0.490	-0.310	0.720	237.69	-1.60	1.20	 	 	 	 	 	 	 	 	 	 	 	 	 	 	 	 	 	 	1581536080	8.83	16.35
12/02/2020 19:34:41	120220	12022020	193441	237.85	12.402673	-56.749885	238.13	0.770	-1.870	0.290	237.89	-3.20	0.70	 	 	 	 	 	 	 	 	 	 	 	 	 	 	 	 	 	 	1581536081	9.04	16.74
12/02/2020 19:34:42	120220	12022020	193442	238.08	12.402653	-56.749922	238.29	0.630	-2.900	0.090	238.10	-4.20	0.50	 	 	 	 	 	 	 	 	 	 	 	 	 	 	 	 	 	 	1581536082	8.84	16.37
12/02/2020 19:34:43	120220	12022020	193443	238.14	12.402635	-56.749957	238.31	0.260	-2.950	0.230	238.14	-4.30	0.70	 	 	 	 	 	 	 	 	 	 	 	 	 	 	 	 	 	 	1581536083	8.42	15.59
12/02/2020 19:34:44	120220	12022020	193444	238.03	12.402618	-56.749992	238.17	-0.110	-2.060	0.610	237.99	-3.50	1.00	 	 	 	 	 	 	 	 	 	 	 	 	 	 	 	 	 	 	1581536084	8.04	14.89
12/02/2020 19:34:45	120220	12022020	193445	237.77	12.402602	-56.750025	237.90	-0.440	-0.530	1.100	237.71	-2.00	1.50	 	 	 	 	 	 	 	 	 	 	 	 	 	 	 	 	 	 	1581536085	7.92	14.67
12/02/2020 19:34:46	120220	12022020	193446	237.51	12.402587	-56.750058	237.68	-0.780	1.100	1.570	237.48	-0.30	2.00	 	 	 	 	 	 	 	 	 	 	 	 	 	 	 	 	 	 	1581536086	7.93	14.69
12/02/2020 19:34:47	120220	12022020	193447	237.36	12.402572	-56.750093	237.55	-1.020	2.160	1.860	237.33	0.80	2.30	 	 	 	 	 	 	 	 	 	 	 	 	 	 	 	 	 	 	1581536087	8.18	15.15
12/02/2020 19:34:48	120220	12022020	193448	237.26	12.402553	-56.750132	237.47	-0.950	2.360	1.890	237.25	1.00	2.30	 	 	 	 	 	 	 	 	 	 	 	 	 	 	 	 	 	 	1581536088	8.65	16.02
12/02/2020 19:34:49	120220	12022020	193449	237.25	12.402535	-56.750168	237.46	-0.480	1.990	1.550	237.25	0.60	2.00	 	 	 	 	 	 	 	 	 	 	 	 	 	 	 	 	 	 	1581536089	8.72	16.15
12/02/2020 19:34:50	120220	12022020	193450	237.24	12.402515	-56.750202	237.44	0.290	1.160	0.960	237.23	-0.20	1.40	 	 	 	 	 	 	 	 	 	 	 	 	 	 	 	 	 	 	1581536090	8.46	15.67
12/02/2020 19:34:51	120220	12022020	193451	237.17	12.402493	-56.750235	237.35	1.000	-0.090	0.400	237.16	-1.40	0.90	 	 	 	 	 	 	 	 	 	 	 	 	 	 	 	 	 	 	1581536091	8.36	15.48
12/02/2020 19:34:52	120220	12022020	193452	237.20	12.402472	-56.750268	237.40	1.280	-1.450	0.110	237.22	-2.80	0.50	 	 	 	 	 	 	 	 	 	 	 	 	 	 	 	 	 	 	1581536092	8.27	15.32
12/02/2020 19:34:53	120220	12022020	193453	237.36	12.402453	-56.750302	237.58	1.110	-2.530	0.140	237.39	-3.90	0.60	 	 	 	 	 	 	 	 	 	 	 	 	 	 	 	 	 	 	1581536093	8.17	15.13
12/02/2020 19:34:54	120220	12022020	193454	237.54	12.402437	-56.750335	237.75	0.690	-2.930	0.390	237.57	-4.30	0.80	 	 	 	 	 	 	 	 	 	 	 	 	 	 	 	 	 	 	1581536094	8.02	14.85
12/02/2020 19:34:55	120220	12022020	193455	237.62	12.402422	-56.750368	237.81	0.190	-2.570	0.780	237.61	-3.90	1.20	 	 	 	 	 	 	 	 	 	 	 	 	 	 	 	 	 	 	1581536095	7.88	14.59
12/02/2020 19:34:56	120220	12022020	193456	237.45	12.402405	-56.750403	237.61	-0.320	-1.710	1.400	237.39	-3.10	1.80	 	 	 	 	 	 	 	 	 	 	 	 	 	 	 	 	 	 	1581536096	7.95	14.72
12/02/2020 19:34:57	120220	12022020	193457	237.05	12.402390	-56.750438	237.19	-0.800	-0.580	2.190	236.96	-2.00	2.60	 	 	 	 	 	 	 	 	 	 	 	 	 	 	 	 	 	 	1581536097	8.27	15.32
12/02/2020 19:34:58	120220	12022020	193458	236.58	12.402373	-56.750475	236.73	-1.110	0.600	2.840	236.49	-0.80	3.20	 	 	 	 	 	 	 	 	 	 	 	 	 	 	 	 	 	 	1581536098	8.53	15.80
12/02/2020 19:34:59	120220	12022020	193459	236.21	12.402358	-56.750513	236.40	-1.150	1.590	3.120	236.15	0.20	3.50	 	 	 	 	 	 	 	 	 	 	 	 	 	 	 	 	 	 	1581536099	8.59	15.91
12/02/2020 19:35:00	120220	12022020	193500	236.02	12.402340	-56.750550	236.26	-0.880	2.070	2.940	236.00	0.70	3.40	 	 	 	 	 	 	 	 	 	 	 	 	 	 	 	 	 	 	1581536100	8.60	15.93
12/02/2020 19:35:01	120220	12022020	193501	236.04	12.402320	-56.750583	236.32	-0.390	1.950	2.330	236.08	0.60	2.80	 	 	 	 	 	 	 	 	 	 	 	 	 	 	 	 	 	 	1581536101	8.61	15.95
12/02/2020 19:35:02	120220	12022020	193502	236.32	12.402298	-56.750618	236.62	0.200	1.330	1.360	236.42	-0.00	1.80	1014.60	26.50	26.60	21.00	21.00	547.0	72.0	71.0	398.0	28.0	216.00	5.50	78.00	9.30	34924	11158.0	27.5	27.5	1581536102	8.50	15.74
12/02/2020 19:35:03	120220	12022020	193503	236.84	12.402275	-56.750650	237.11	0.720	0.400	0.280	236.95	-0.90	0.80	 	 	 	 	 	 	 	 	 	 	 	 	 	 	 	 	 	 	1581536103	8.28	15.33
12/02/2020 19:35:04	120220	12022020	193504	237.37	12.402253	-56.750680	237.61	1.030	-0.680	-0.480	237.47	-2.00	-0.00	 	 	 	 	 	 	 	 	 	 	 	 	 	 	 	 	 	 	1581536104	8.06	14.93
12/02/2020 19:35:05	120220	12022020	193505	237.65	12.402233	-56.750712	237.85	1.080	-1.700	-0.560	237.69	-3.00	-0.10	 	 	 	 	 	 	 	 	 	 	 	 	 	 	 	 	 	 	1581536105	7.95	14.72
12/02/2020 19:35:06	120220	12022020	193506	237.67	12.402215	-56.750745	237.80	0.900	-2.350	0.010	237.64	-3.70	0.40	 	 	 	 	 	 	 	 	 	 	 	 	 	 	 	 	 	 	1581536106	7.91	14.65
12/02/2020 19:35:07	120220	12022020	193507	237.42	12.402200	-56.750778	237.53	0.530	-2.370	0.840	237.35	-3.70	1.20	 	 	 	 	 	 	 	 	 	 	 	 	 	 	 	 	 	 	1581536107	7.84	14.52
12/02/2020 19:35:08	120220	12022020	193508	237.03	12.402187	-56.750812	237.14	0.090	-1.860	1.630	236.95	-3.20	2.00	 	 	 	 	 	 	 	 	 	 	 	 	 	 	 	 	 	 	1581536108	7.85	14.54
12/02/2020 19:35:09	120220	12022020	193509	236.62	12.402172	-56.750848	236.76	-0.290	-1.030	2.200	236.55	-2.40	2.60	 	 	 	 	 	 	 	 	 	 	 	 	 	 	 	 	 	 	1581536109	8.05	14.91
12/02/2020 19:35:10	120220	12022020	193510	236.38	12.402157	-56.750883	236.55	-0.550	-0.020	2.470	236.36	-1.40	2.90	 	 	 	 	 	 	 	 	 	 	 	 	 	 	 	 	 	 	1581536110	8.16	15.11
12/02/2020 19:35:11	120220	12022020	193511	236.36	12.402140	-56.750917	236.59	-0.720	0.960	2.400	236.38	-0.40	2.80	 	 	 	 	 	 	 	 	 	 	 	 	 	 	 	 	 	 	1581536111	8.16	15.11
12/02/2020 19:35:12	120220	12022020	193512	236.49	12.402120	-56.750952	236.73	-0.780	1.560	1.990	236.52	0.20	2.40	 	 	 	 	 	 	 	 	 	 	 	 	 	 	 	 	 	 	1581536112	8.19	15.17
12/02/2020 19:35:13	120220	12022020	193513	236.69	12.402100	-56.750985	236.95	-0.660	1.450	1.410	236.75	0.10	1.90	 	 	 	 	 	 	 	 	 	 	 	 	 	 	 	 	 	 	1581536113	8.44	15.63
12/02/2020 19:35:14	120220	12022020	193514	237.01	12.402078	-56.751020	237.28	-0.330	0.650	0.800	237.09	-0.70	1.30	 	 	 	 	 	 	 	 	 	 	 	 	 	 	 	 	 	 	1581536114	8.76	16.22
12/02/2020 19:35:15	120220	12022020	193515	237.37	12.402058	-56.751057	237.62	0.140	-0.390	0.320	237.43	-1.70	0.80	 	 	 	 	 	 	 	 	 	 	 	 	 	 	 	 	 	 	1581536115	8.93	16.54
12/02/2020 19:35:16	120220	12022020	193516	237.66	12.402038	-56.751092	237.90	0.580	-0.900	0.030	237.71	-2.20	0.50	 	 	 	 	 	 	 	 	 	 	 	 	 	 	 	 	 	 	1581536116	8.46	15.67
12/02/2020 19:35:17	120220	12022020	193517	237.86	12.402020	-56.751123	238.07	0.790	-0.720	0.020	237.89	-2.10	0.50	 	 	 	 	 	 	 	 	 	 	 	 	 	 	 	 	 	 	1581536117	7.63	14.13
12/02/2020 19:35:18	120220	12022020	193518	237.92	12.402005	-56.751152	238.09	0.740	-0.290	0.200	237.90	-1.70	0.60	 	 	 	 	 	 	 	 	 	 	 	 	 	 	 	 	 	 	1581536118	7.13	13.20
12/02/2020 19:35:19	120220	12022020	193519	237.78	12.401988	-56.751183	237.83	0.560	-0.210	0.540	237.72	-1.60	1.00	 	 	 	 	 	 	 	 	 	 	 	 	 	 	 	 	 	 	1581536119	7.39	13.69
12/02/2020 19:35:20	120220	12022020	193520	237.27	12.401970	-56.751217	237.36	0.380	-0.520	1.000	237.17	-1.90	1.40	 	 	 	 	 	 	 	 	 	 	 	 	 	 	 	 	 	 	1581536120	8.02	14.85
12/02/2020 19:35:21	120220	12022020	193521	236.77	12.401952	-56.751252	236.89	0.150	-0.860	1.550	236.68	-2.20	2.00	 	 	 	 	 	 	 	 	 	 	 	 	 	 	 	 	 	 	1581536121	8.39	15.54
12/02/2020 19:35:22	120220	12022020	193522	236.32	12.401935	-56.751288	236.46	-0.150	-1.030	2.100	236.24	-2.40	2.50	 	 	 	 	 	 	 	 	 	 	 	 	 	 	 	 	 	 	1581536122	8.51	15.76
12/02/2020 19:35:23	120220	12022020	193523	236.02	12.401920	-56.751325	236.20	-0.450	-0.920	2.440	235.99	-2.30	2.90	 	 	 	 	 	 	 	 	 	 	 	 	 	 	 	 	 	 	1581536123	8.56	15.85
12/02/2020 19:35:24	120220	12022020	193524	236.03	12.401905	-56.751362	236.26	-0.620	-0.530	2.240	236.06	-1.90	2.70	 	 	 	 	 	 	 	 	 	 	 	 	 	 	 	 	 	 	1581536124	8.35	15.46
12/02/2020 19:35:25	120220	12022020	193525	236.28	12.401888	-56.751397	236.53	-0.540	-0.120	1.580	236.35	-1.50	2.10	 	 	 	 	 	 	 	 	 	 	 	 	 	 	 	 	 	 	1581536125	8.15	15.09
12/02/2020 19:35:26	120220	12022020	193526	236.62	12.401867	-56.751430	236.86	-0.240	0.120	0.830	236.70	-1.20	1.30	 	 	 	 	 	 	 	 	 	 	 	 	 	 	 	 	 	 	1581536126	8.24	15.26
12/02/2020 19:35:27	120220	12022020	193527	237.00	12.401845	-56.751462	237.24	0.050	0.220	0.260	237.08	-1.10	0.70	 	 	 	 	 	 	 	 	 	 	 	 	 	 	 	 	 	 	1581536127	8.37	15.50
12/02/2020 19:35:28	120220	12022020	193528	237.31	12.401825	-56.751495	237.48	0.180	0.220	0.050	237.33	-1.10	0.50	 	 	 	 	 	 	 	 	 	 	 	 	 	 	 	 	 	 	1581536128	8.31	15.39
12/02/2020 19:35:29	120220	12022020	193529	237.30	12.401805	-56.751528	237.43	0.130	0.150	0.290	237.27	-1.20	0.70	 	 	 	 	 	 	 	 	 	 	 	 	 	 	 	 	 	 	1581536129	8.30	15.37
12/02/2020 19:35:30	120220	12022020	193530	237.05	12.401787	-56.751563	237.15	-0.000	0.150	0.840	236.98	-1.20	1.30	 	 	 	 	 	 	 	 	 	 	 	 	 	 	 	 	 	 	1581536130	8.22	15.22
12/02/2020 19:35:31	120220	12022020	193531	236.64	12.401770	-56.751597	236.72	-0.100	0.260	1.590	236.54	-1.10	2.00	 	 	 	 	 	 	 	 	 	 	 	 	 	 	 	 	 	 	1581536131	8.06	14.93
12/02/2020 19:35:32	120220	12022020	193532	236.18	12.401755	-56.751632	236.29	-0.040	0.350	2.150	236.10	-1.00	2.60	 	 	 	 	 	 	 	 	 	 	 	 	 	 	 	 	 	 	1581536132	7.93	14.69
12/02/2020 19:35:33	120220	12022020	193533	235.93	12.401738	-56.751665	236.06	0.210	0.130	2.120	235.89	-1.20	2.60	 	 	 	 	 	 	 	 	 	 	 	 	 	 	 	 	 	 	1581536133	7.95	14.72
12/02/2020 19:35:34	120220	12022020	193534	235.88	12.401720	-56.751698	236.09	0.520	-0.480	1.510	235.92	-1.80	2.00	 	 	 	 	 	 	 	 	 	 	 	 	 	 	 	 	 	 	1581536134	8.20	15.19
12/02/2020 19:35:35	120220	12022020	193535	236.17	12.401698	-56.751732	236.39	0.670	-1.230	0.630	236.24	-2.50	1.10	 	 	 	 	 	 	 	 	 	 	 	 	 	 	 	 	 	 	1581536135	8.43	15.61
12/02/2020 19:35:36	120220	12022020	193536	236.52	12.401675	-56.751765	236.71	0.540	-1.830	0.060	236.56	-3.20	0.50	 	 	 	 	 	 	 	 	 	 	 	 	 	 	 	 	 	 	1581536136	8.52	15.78
12/02/2020 19:35:37	120220	12022020	193537	236.62	12.401655	-56.751800	236.77	0.140	-1.970	0.230	236.59	-3.30	0.70	 	 	 	 	 	 	 	 	 	 	 	 	 	 	 	 	 	 	1581536137	8.49	15.72
12/02/2020 19:35:38	120220	12022020	193538	236.38	12.401637	-56.751835	236.50	-0.380	-1.450	0.890	236.32	-2.80	1.30	 	 	 	 	 	 	 	 	 	 	 	 	 	 	 	 	 	 	1581536138	8.29	15.35
12/02/2020 19:35:39	120220	12022020	193539	236.09	12.401622	-56.751870	236.24	-0.820	-0.480	1.500	236.04	-1.90	1.90	 	 	 	 	 	 	 	 	 	 	 	 	 	 	 	 	 	 	1581536139	8.14	15.08
12/02/2020 19:35:40	120220	12022020	193540	235.94	12.401605	-56.751905	236.14	-1.010	0.530	1.720	235.94	-0.90	2.20	 	 	 	 	 	 	 	 	 	 	 	 	 	 	 	 	 	 	1581536140	8.16	15.11
12/02/2020 19:35:41	120220	12022020	193541	235.99	12.401587	-56.751938	236.23	-0.900	1.270	1.530	236.02	-0.10	2.00	 	 	 	 	 	 	 	 	 	 	 	 	 	 	 	 	 	 	1581536141	8.25	15.28
12/02/2020 19:35:42	120220	12022020	193542	236.10	12.401567	-56.751972	236.32	-0.550	1.560	1.230	236.11	0.20	1.70	 	 	 	 	 	 	 	 	 	 	 	 	 	 	 	 	 	 	1581536142	8.35	15.46
12/02/2020 19:35:43	120220	12022020	193543	236.02	12.401545	-56.752007	236.18	0.000	1.290	1.120	235.98	-0.00	1.60	 	 	 	 	 	 	 	 	 	 	 	 	 	 	 	 	 	 	1581536143	8.53	15.80
12/02/2020 19:35:44	120220	12022020	193544	235.77	12.401525	-56.752042	235.93	0.590	0.590	1.130	235.72	-0.70	1.60	 	 	 	 	 	 	 	 	 	 	 	 	 	 	 	 	 	 	1581536144	8.67	16.06
12/02/2020 19:35:45	120220	12022020	193545	235.65	12.401505	-56.752077	235.88	0.990	-0.240	0.990	235.66	-1.60	1.40	 	 	 	 	 	 	 	 	 	 	 	 	 	 	 	 	 	 	1581536145	8.57	15.87
12/02/2020 19:35:46	120220	12022020	193546	235.77	12.401485	-56.752110	236.01	0.990	-1.020	0.790	235.80	-2.30	1.20	 	 	 	 	 	 	 	 	 	 	 	 	 	 	 	 	 	 	1581536146	8.33	15.43
12/02/2020 19:35:47	120220	12022020	193547	235.91	12.401465	-56.752143	236.14	0.660	-1.670	0.770	235.93	-3.00	1.20	 	 	 	 	 	 	 	 	 	 	 	 	 	 	 	 	 	 	1581536147	8.25	15.28
12/02/2020 19:35:48	120220	12022020	193548	236.02	12.401445	-56.752178	236.25	0.180	-1.900	1.010	236.03	-3.20	1.40	 	 	 	 	 	 	 	 	 	 	 	 	 	 	 	 	 	 	1581536148	8.24	15.26
12/02/2020 19:35:49	120220	12022020	193549	236.00	12.401428	-56.752212	236.21	-0.280	-1.510	1.340	235.98	-2.90	1.80	 	 	 	 	 	 	 	 	 	 	 	 	 	 	 	 	 	 	1581536149	8.01	14.83
12/02/2020 19:35:50	120220	12022020	193550	235.86	12.401410	-56.752243	236.05	-0.590	-0.820	1.490	235.83	-2.20	1.90	 	 	 	 	 	 	 	 	 	 	 	 	 	 	 	 	 	 	1581536150	7.90	14.63
12/02/2020 19:35:51	120220	12022020	193551	235.79	12.401392	-56.752277	236.00	-0.690	-0.270	1.360	235.79	-1.60	1.80	 	 	 	 	 	 	 	 	 	 	 	 	 	 	 	 	 	 	1581536151	8.15	15.09
12/02/2020 19:35:52	120220	12022020	193552	235.80	12.401370	-56.752312	235.99	-0.600	-0.030	1.230	235.80	-1.40	1.70	 	 	 	 	 	 	 	 	 	 	 	 	 	 	 	 	 	 	1581536152	8.65	16.02
12/02/2020 19:35:53	120220	12022020	193553	235.75	12.401350	-56.752348	235.92	-0.410	0.210	1.310	235.74	-1.20	1.70	 	 	 	 	 	 	 	 	 	 	 	 	 	 	 	 	 	 	1581536153	8.89	16.46
12/02/2020 19:35:54	120220	12022020	193554	235.68	12.401332	-56.752385	235.88	-0.240	0.610	1.470	235.67	-0.80	1.90	 	 	 	 	 	 	 	 	 	 	 	 	 	 	 	 	 	 	1581536154	8.64	16.00
12/02/2020 19:35:55	120220	12022020	193555	235.65	12.401313	-56.752420	235.85	-0.100	0.930	1.570	235.65	-0.40	2.00	 	 	 	 	 	 	 	 	 	 	 	 	 	 	 	 	 	 	1581536155	8.36	15.48
12/02/2020 19:35:56	120220	12022020	193556	235.69	12.401293	-56.752453	235.90	0.090	0.850	1.470	235.70	-0.50	1.90	 	 	 	 	 	 	 	 	 	 	 	 	 	 	 	 	 	 	1581536156	8.35	15.46
12/02/2020 19:35:57	120220	12022020	193557	235.71	12.401273	-56.752488	235.87	0.350	0.220	1.270	235.70	-1.10	1.70	 	 	 	 	 	 	 	 	 	 	 	 	 	 	 	 	 	 	1581536157	8.58	15.89
12/02/2020 19:35:58	120220	12022020	193558	235.56	12.401250	-56.752523	235.72	0.570	-0.590	1.120	235.54	-1.90	1.60	 	 	 	 	 	 	 	 	 	 	 	 	 	 	 	 	 	 	1581536158	8.82	16.33
12/02/2020 19:35:59	120220	12022020	193559	235.46	12.401228	-56.752558	235.65	0.560	-1.040	0.950	235.46	-2.40	1.40	 	 	 	 	 	 	 	 	 	 	 	 	 	 	 	 	 	 	1581536159	8.63	15.98
12/02/2020 19:36:00	120220	12022020	193600	235.55	12.401210	-56.752592	235.77	0.290	-0.970	0.710	235.59	-2.30	1.20	 	 	 	 	 	 	 	 	 	 	 	 	 	 	 	 	 	 	1581536160	8.14	15.08
12/02/2020 19:36:01	120220	12022020	193601	235.78	12.401190	-56.752623	236.00	-0.020	-0.650	0.540	235.83	-2.00	1.00	 	 	 	 	 	 	 	 	 	 	 	 	 	 	 	 	 	 	1581536161	7.84	14.52
12/02/2020 19:36:02	120220	12022020	193602	236.03	12.401172	-56.752655	236.25	-0.230	-0.480	0.520	236.08	-1.80	1.00	1014.60	26.40	26.50	20.80	20.90	452.0	71.0	71.0	398.0	28.1	214.00	6.70	78.00	10.50	31589	10391.0	27.5	27.5	1581536162	8.01	14.83
12/02/2020 19:36:03	120220	12022020	193603	236.27	12.401152	-56.752690	236.49	-0.290	-0.560	0.580	236.31	-1.90	1.00	 	 	 	 	 	 	 	 	 	 	 	 	 	 	 	 	 	 	1581536163	8.45	15.65
12/02/2020 19:36:04	120220	12022020	193604	236.45	12.401132	-56.752725	236.65	-0.270	-0.660	0.690	236.48	-2.00	1.10	 	 	 	 	 	 	 	 	 	 	 	 	 	 	 	 	 	 	1581536164	8.71	16.13
12/02/2020 19:36:05	120220	12022020	193605	236.49	12.401112	-56.752762	236.66	-0.260	-0.600	0.970	236.48	-1.90	1.40	 	 	 	 	 	 	 	 	 	 	 	 	 	 	 	 	 	 	1581536165	8.68	16.08
12/02/2020 19:36:06	120220	12022020	193606	236.32	12.401092	-56.752797	236.46	-0.300	-0.450	1.420	236.27	-1.80	1.80	 	 	 	 	 	 	 	 	 	 	 	 	 	 	 	 	 	 	1581536166	8.66	16.04
12/02/2020 19:36:07	120220	12022020	193607	235.97	12.401072	-56.752833	236.09	-0.290	-0.240	1.850	235.88	-1.60	2.30	 	 	 	 	 	 	 	 	 	 	 	 	 	 	 	 	 	 	1581536167	8.68	16.08
12/02/2020 19:36:08	120220	12022020	193608	235.48	12.401052	-56.752868	235.59	-0.190	0.010	2.190	235.38	-1.30	2.60	 	 	 	 	 	 	 	 	 	 	 	 	 	 	 	 	 	 	1581536168	8.72	16.15
12/02/2020 19:36:09	120220	12022020	193609	235.14	12.401033	-56.752905	235.24	-0.030	0.290	2.250	235.08	-1.10	2.70	 	 	 	 	 	 	 	 	 	 	 	 	 	 	 	 	 	 	1581536169	8.69	16.09
12/02/2020 19:36:10	120220	12022020	193610	234.97	12.401013	-56.752940	235.19	0.140	0.480	2.020	234.98	-0.90	2.50	 	 	 	 	 	 	 	 	 	 	 	 	 	 	 	 	 	 	1581536170	8.60	15.93
12/02/2020 19:36:11	120220	12022020	193611	235.14	12.400993	-56.752975	235.38	0.280	0.520	1.560	235.19	-0.80	2.00	 	 	 	 	 	 	 	 	 	 	 	 	 	 	 	 	 	 	1581536171	8.51	15.76
12/02/2020 19:36:12	120220	12022020	193612	235.45	12.400973	-56.753010	235.70	0.340	0.340	1.010	235.51	-1.00	1.50	 	 	 	 	 	 	 	 	 	 	 	 	 	 	 	 	 	 	1581536172	8.41	15.58
12/02/2020 19:36:13	120220	12022020	193613	235.74	12.400952	-56.753043	235.96	0.330	-0.090	0.600	235.78	-1.40	1.10	 	 	 	 	 	 	 	 	 	 	 	 	 	 	 	 	 	 	1581536173	8.47	15.69
12/02/2020 19:36:14	120220	12022020	193614	235.95	12.400930	-56.753077	236.18	0.240	-0.600	0.370	236.00	-1.90	0.80	 	 	 	 	 	 	 	 	 	 	 	 	 	 	 	 	 	 	1581536174	8.58	15.89
12/02/2020 19:36:15	120220	12022020	193615	236.24	12.400910	-56.753112	236.48	0.080	-0.900	0.200	236.31	-2.20	0.70	 	 	 	 	 	 	 	 	 	 	 	 	 	 	 	 	 	 	1581536175	8.46	15.67
12/02/2020 19:36:16	120220	12022020	193616	236.56	12.400888	-56.753143	236.77	-0.070	-1.000	0.170	236.60	-2.30	0.60	 	 	 	 	 	 	 	 	 	 	 	 	 	 	 	 	 	 	1581536176	8.25	15.28
12/02/2020 19:36:17	120220	12022020	193617	236.59	12.400868	-56.753177	236.75	-0.070	-1.090	0.540	236.55	-2.40	1.00	 	 	 	 	 	 	 	 	 	 	 	 	 	 	 	 	 	 	1581536177	8.38	15.52
12/02/2020 19:36:18	120220	12022020	193618	236.40	12.400847	-56.753213	236.58	-0.050	-1.090	1.140	236.37	-2.40	1.60	 	 	 	 	 	 	 	 	 	 	 	 	 	 	 	 	 	 	1581536178	8.69	16.09
12/02/2020 19:36:19	120220	12022020	193619	236.30	12.400827	-56.753248	236.49	-0.170	-0.850	1.720	236.28	-2.20	2.10	 	 	 	 	 	 	 	 	 	 	 	 	 	 	 	 	 	 	1581536179	8.76	16.22
12/02/2020 19:36:20	120220	12022020	193620	236.16	12.400810	-56.753287	236.34	-0.350	-0.420	2.230	236.13	-1.80	2.70	 	 	 	 	 	 	 	 	 	 	 	 	 	 	 	 	 	 	1581536180	8.77	16.24
12/02/2020 19:36:21	120220	12022020	193621	236.00	12.400793	-56.753325	236.17	-0.400	0.100	2.440	235.97	-1.30	2.90	 	 	 	 	 	 	 	 	 	 	 	 	 	 	 	 	 	 	1581536181	8.74	16.19
12/02/2020 19:36:22	120220	12022020	193622	235.87	12.400775	-56.753362	236.08	-0.270	0.520	2.190	235.87	-0.80	2.60	 	 	 	 	 	 	 	 	 	 	 	 	 	 	 	 	 	 	1581536182	8.68	16.08
12/02/2020 19:36:23	120220	12022020	193623	235.85	12.400753	-56.753397	236.05	-0.040	0.630	1.660	235.85	-0.70	2.10	 	 	 	 	 	 	 	 	 	 	 	 	 	 	 	 	 	 	1581536183	8.76	16.22
12/02/2020 19:36:24	120220	12022020	193624	235.83	12.400730	-56.753432	236.02	0.120	0.420	1.160	235.82	-0.90	1.60	 	 	 	 	 	 	 	 	 	 	 	 	 	 	 	 	 	 	1581536184	8.90	16.48
12/02/2020 19:36:25	120220	12022020	193625	235.77	12.400708	-56.753467	235.95	0.160	0.090	0.940	235.76	-1.20	1.40	 	 	 	 	 	 	 	 	 	 	 	 	 	 	 	 	 	 	1581536185	8.94	16.56
12/02/2020 19:36:26	120220	12022020	193626	235.76	12.400687	-56.753502	235.96	0.120	-0.100	0.940	235.78	-1.40	1.40	 	 	 	 	 	 	 	 	 	 	 	 	 	 	 	 	 	 	1581536186	8.72	16.15
12/02/2020 19:36:27	120220	12022020	193627	235.99	12.400665	-56.753535	236.24	0.080	-0.130	0.800	236.06	-1.50	1.30	 	 	 	 	 	 	 	 	 	 	 	 	 	 	 	 	 	 	1581536187	8.37	15.50
12/02/2020 19:36:28	120220	12022020	193628	236.39	12.400645	-56.753568	236.64	0.140	-0.210	0.580	236.48	-1.50	1.00	 	 	 	 	 	 	 	 	 	 	 	 	 	 	 	 	 	 	1581536188	8.25	15.28
12/02/2020 19:36:29	120220	12022020	193629	236.72	12.400625	-56.753602	236.92	0.280	-0.460	0.560	236.75	-1.80	1.00	 	 	 	 	 	 	 	 	 	 	 	 	 	 	 	 	 	 	1581536189	8.40	15.56
12/02/2020 19:36:30	120220	12022020	193630	236.76	12.400605	-56.753638	236.92	0.360	-0.830	0.920	236.73	-2.10	1.40	 	 	 	 	 	 	 	 	 	 	 	 	 	 	 	 	 	 	1581536190	8.65	16.02
12/02/2020 19:36:31	120220	12022020	193631	236.53	12.400587	-56.753675	236.67	0.250	-1.120	1.530	236.46	-2.40	2.00	 	 	 	 	 	 	 	 	 	 	 	 	 	 	 	 	 	 	1581536191	8.84	16.37
12/02/2020 19:36:32	120220	12022020	193632	236.26	12.400570	-56.753713	236.46	-0.020	-1.100	1.870	236.24	-2.40	2.30	 	 	 	 	 	 	 	 	 	 	 	 	 	 	 	 	 	 	1581536192	8.79	16.28
12/02/2020 19:36:33	120220	12022020	193633	236.27	12.400552	-56.753748	236.50	-0.280	-0.790	1.670	236.30	-2.10	2.10	 	 	 	 	 	 	 	 	 	 	 	 	 	 	 	 	 	 	1581536193	8.50	15.74
12/02/2020 19:36:34	120220	12022020	193634	236.42	12.400530	-56.753783	236.63	-0.390	-0.570	1.260	236.43	-1.90	1.70	 	 	 	 	 	 	 	 	 	 	 	 	 	 	 	 	 	 	1581536194	8.54	15.82
12/02/2020 19:36:35	120220	12022020	193635	236.44	12.400507	-56.753818	236.64	-0.310	-0.550	0.940	236.44	-1.90	1.40	 	 	 	 	 	 	 	 	 	 	 	 	 	 	 	 	 	 	1581536195	8.97	16.61
12/02/2020 19:36:36	120220	12022020	193636	236.40	12.400483	-56.753853	236.59	-0.140	-0.430	0.830	236.39	-1.80	1.30	 	 	 	 	 	 	 	 	 	 	 	 	 	 	 	 	 	 	1581536196	9.21	17.06
12/02/2020 19:36:37	120220	12022020	193637	236.37	12.400460	-56.753890	236.56	-0.050	0.020	1.000	236.37	-1.30	1.50	 	 	 	 	 	 	 	 	 	 	 	 	 	 	 	 	 	 	1581536197	9.01	16.69
12/02/2020 19:36:38	120220	12022020	193638	236.37	12.400438	-56.753925	236.57	-0.150	0.620	1.360	236.37	-0.70	1.80	 	 	 	 	 	 	 	 	 	 	 	 	 	 	 	 	 	 	1581536198	8.72	16.15
12/02/2020 19:36:39	120220	12022020	193639	236.37	12.400422	-56.753962	236.57	-0.340	1.020	1.730	236.36	-0.30	2.20	 	 	 	 	 	 	 	 	 	 	 	 	 	 	 	 	 	 	1581536199	8.67	16.06
12/02/2020 19:36:40	120220	12022020	193640	236.30	12.400403	-56.754000	236.51	-0.420	0.990	1.910	236.28	-0.30	2.40	 	 	 	 	 	 	 	 	 	 	 	 	 	 	 	 	 	 	1581536200	8.83	16.35
12/02/2020 19:36:41	120220	12022020	193641	236.31	12.400385	-56.754037	236.55	-0.250	0.660	1.590	236.33	-0.70	2.10	 	 	 	 	 	 	 	 	 	 	 	 	 	 	 	 	 	 	1581536201	8.86	16.41
12/02/2020 19:36:42	120220	12022020	193642	236.56	12.400363	-56.754072	236.86	0.110	0.100	0.800	236.65	-1.20	1.30	 	 	 	 	 	 	 	 	 	 	 	 	 	 	 	 	 	 	1581536202	8.67	16.06
12/02/2020 19:36:43	120220	12022020	193643	237.04	12.400340	-56.754105	237.33	0.490	-0.740	-0.090	237.15	-2.00	0.40	 	 	 	 	 	 	 	 	 	 	 	 	 	 	 	 	 	 	1581536203	8.70	16.11
12/02/2020 19:36:44	120220	12022020	193644	237.53	12.400317	-56.754140	237.78	0.720	-1.610	-0.620	237.60	-2.90	-0.20	 	 	 	 	 	 	 	 	 	 	 	 	 	 	 	 	 	 	1581536204	8.84	16.37
12/02/2020 19:36:45	120220	12022020	193645	237.87	12.400295	-56.754175	238.11	0.690	-1.980	-0.660	237.93	-3.30	-0.20	 	 	 	 	 	 	 	 	 	 	 	 	 	 	 	 	 	 	1581536205	8.77	16.24
12/02/2020 19:36:46	120220	12022020	193646	238.16	12.400273	-56.754208	238.42	0.380	-1.550	-0.430	238.21	-2.90	0.00	 	 	 	 	 	 	 	 	 	 	 	 	 	 	 	 	 	 	1581536206	8.32	15.41
12/02/2020 19:36:47	120220	12022020	193647	238.30	12.400255	-56.754240	238.53	-0.030	-0.770	0.080	238.31	-2.10	0.50	 	 	 	 	 	 	 	 	 	 	 	 	 	 	 	 	 	 	1581536207	8.05	14.91
12/02/2020 19:36:48	120220	12022020	193648	238.13	12.400238	-56.754277	238.30	-0.350	-0.280	0.840	238.06	-1.60	1.30	 	 	 	 	 	 	 	 	 	 	 	 	 	 	 	 	 	 	1581536208	8.52	15.78
12/02/2020 19:36:49	120220	12022020	193649	237.65	12.400220	-56.754317	237.79	-0.510	-0.110	1.640	237.54	-1.40	2.10	 	 	 	 	 	 	 	 	 	 	 	 	 	 	 	 	 	 	1581536209	9.26	17.15
12/02/2020 19:36:50	120220	12022020	193650	237.02	12.400203	-56.754358	237.16	-0.530	0.040	2.230	236.89	-1.30	2.70	 	 	 	 	 	 	 	 	 	 	 	 	 	 	 	 	 	 	1581536210	9.53	17.65
12/02/2020 19:36:51	120220	12022020	193651	236.45	12.400185	-56.754398	236.64	-0.440	0.300	2.430	236.37	-1.00	2.90	 	 	 	 	 	 	 	 	 	 	 	 	 	 	 	 	 	 	1581536211	9.39	17.39
12/02/2020 19:36:52	120220	12022020	193652	236.19	12.400165	-56.754437	236.44	-0.360	0.580	2.070	236.20	-0.80	2.60	 	 	 	 	 	 	 	 	 	 	 	 	 	 	 	 	 	 	1581536212	9.09	16.83
12/02/2020 19:36:53	120220	12022020	193653	236.42	12.400143	-56.754472	236.74	-0.340	0.780	1.250	236.52	-0.60	1.70	 	 	 	 	 	 	 	 	 	 	 	 	 	 	 	 	 	 	1581536213	8.74	16.19
12/02/2020 19:36:54	120220	12022020	193654	237.05	12.400122	-56.754505	237.39	-0.280	0.750	0.290	237.19	-0.60	0.80	 	 	 	 	 	 	 	 	 	 	 	 	 	 	 	 	 	 	1581536214	8.48	15.70
12/02/2020 19:36:55	120220	12022020	193655	237.70	12.400100	-56.754538	238.00	-0.010	0.290	-0.310	237.81	-1.00	0.20	 	 	 	 	 	 	 	 	 	 	 	 	 	 	 	 	 	 	1581536215	8.54	15.82
12/02/2020 19:36:56	120220	12022020	193656	238.17	12.400078	-56.754573	238.45	0.390	-0.390	-0.360	238.24	-1.70	0.10	 	 	 	 	 	 	 	 	 	 	 	 	 	 	 	 	 	 	1581536216	8.74	16.19
12/02/2020 19:36:57	120220	12022020	193657	238.48	12.400058	-56.754610	238.74	0.680	-0.870	-0.100	238.53	-2.20	0.40	 	 	 	 	 	 	 	 	 	 	 	 	 	 	 	 	 	 	1581536217	8.64	16.00
12/02/2020 19:36:58	120220	12022020	193658	238.65	12.400040	-56.754645	238.90	0.710	-1.040	0.400	238.66	-2.40	0.80	 	 	 	 	 	 	 	 	 	 	 	 	 	 	 	 	 	 	1581536218	8.36	15.48
12/02/2020 19:36:59	120220	12022020	193659	238.65	12.400023	-56.754680	238.84	0.560	-1.080	1.040	238.62	-2.40	1.50	 	 	 	 	 	 	 	 	 	 	 	 	 	 	 	 	 	 	1581536219	8.37	15.50
12/02/2020 19:37:00	120220	12022020	193700	238.37	12.400005	-56.754717	238.55	0.330	-1.060	1.580	238.30	-2.40	2.00	 	 	 	 	 	 	 	 	 	 	 	 	 	 	 	 	 	 	1581536220	8.62	15.96
12/02/2020 19:37:01	120220	12022020	193701	237.99	12.399987	-56.754753	238.18	0.070	-1.000	1.870	237.92	-2.30	2.30	 	 	 	 	 	 	 	 	 	 	 	 	 	 	 	 	 	 	1581536221	8.87	16.43
12/02/2020 19:37:02	120220	12022020	193702	237.60	12.399967	-56.754792	237.78	-0.170	-0.770	1.930	237.53	-2.10	2.40	1014.60	26.20	26.30	20.20	20.40	357.0	69.0	70.0	396.0	28.1	221.00	7.10	82.00	10.90	28646	8960.0	27.5	27.5	1581536222	9.03	16.72
12/02/2020 19:37:03	120220	12022020	193703	237.32	12.399948	-56.754828	237.53	-0.390	-0.280	1.830	237.28	-1.60	2.30	 	 	 	 	 	 	 	 	 	 	 	 	 	 	 	 	 	 	1581536223	8.93	16.54
12/02/2020 19:37:04	120220	12022020	193704	237.19	12.399928	-56.754867	237.40	-0.590	0.200	1.680	237.17	-1.20	2.10	 	 	 	 	 	 	 	 	 	 	 	 	 	 	 	 	 	 	1581536224	8.78	16.26
12/02/2020 19:37:05	120220	12022020	193705	237.13	12.399910	-56.754903	237.34	-0.650	0.360	1.510	237.12	-1.00	2.00	 	 	 	 	 	 	 	 	 	 	 	 	 	 	 	 	 	 	1581536225	8.92	16.52
12/02/2020 19:37:06	120220	12022020	193706	237.12	12.399890	-56.754942	237.35	-0.500	0.180	1.240	237.13	-1.10	1.70	 	 	 	 	 	 	 	 	 	 	 	 	 	 	 	 	 	 	1581536226	9.20	17.04
12/02/2020 19:37:07	120220	12022020	193707	237.22	12.399868	-56.754980	237.46	-0.180	-0.060	0.850	237.26	-1.40	1.30	 	 	 	 	 	 	 	 	 	 	 	 	 	 	 	 	 	 	1581536227	9.34	17.30
12/02/2020 19:37:08	120220	12022020	193708	237.45	12.399845	-56.755017	237.73	0.120	0.050	0.520	237.53	-1.30	1.00	 	 	 	 	 	 	 	 	 	 	 	 	 	 	 	 	 	 	1581536228	9.05	16.76
12/02/2020 19:37:09	120220	12022020	193709	237.89	12.399823	-56.755050	238.20	0.230	0.490	0.330	238.01	-0.90	0.80	 	 	 	 	 	 	 	 	 	 	 	 	 	 	 	 	 	 	1581536229	8.45	15.65
12/02/2020 19:37:10	120220	12022020	193710	238.53	12.399805	-56.755083	238.87	0.210	0.780	0.250	238.67	-0.60	0.70	 	 	 	 	 	 	 	 	 	 	 	 	 	 	 	 	 	 	1581536230	8.13	15.06
12/02/2020 19:37:11	120220	12022020	193711	239.09	12.399787	-56.755118	239.52	0.230	0.520	0.300	239.21	-0.80	0.80	 	 	 	 	 	 	 	 	 	 	 	 	 	 	 	 	 	 	1581536231	8.30	15.37
12/02/2020 19:37:12	120220	12022020	193712	239.64	12.399768	-56.755153	239.86	0.460	-0.210	0.540	239.66	-1.50	1.00	 	 	 	 	 	 	 	 	 	 	 	 	 	 	 	 	 	 	1581536232	8.63	15.98
12/02/2020 19:37:13	120220	12022020	193713	239.57	12.399748	-56.755192	239.62	0.800	-1.270	1.130	239.49	-2.60	1.60	 	 	 	 	 	 	 	 	 	 	 	 	 	 	 	 	 	 	1581536233	9.06	16.78
12/02/2020 19:37:14	120220	12022020	193714	238.90	12.399728	-56.755230	239.03	0.870	-2.050	1.780	238.79	-3.40	2.20	 	 	 	 	 	 	 	 	 	 	 	 	 	 	 	 	 	 	1581536234	9.31	17.24
12/02/2020 19:37:15	120220	12022020	193715	238.34	12.399710	-56.755268	238.49	0.480	-2.050	2.190	238.25	-3.40	2.60	 	 	 	 	 	 	 	 	 	 	 	 	 	 	 	 	 	 	1581536235	9.01	16.69
12/02/2020 19:37:16	120220	12022020	193716	237.89	12.399692	-56.755305	238.05	-0.140	-1.380	2.400	237.81	-2.80	2.90	 	 	 	 	 	 	 	 	 	 	 	 	 	 	 	 	 	 	1581536236	8.58	15.89
12/02/2020 19:37:17	120220	12022020	193717	237.48	12.399677	-56.755342	237.63	-0.540	-0.590	2.440	237.41	-2.00	2.90	 	 	 	 	 	 	 	 	 	 	 	 	 	 	 	 	 	 	1581536237	8.60	15.93
12/02/2020 19:37:18	120220	12022020	193718	237.19	12.399658	-56.755382	237.39	-0.580	0.020	2.190	237.16	-1.40	2.70	 	 	 	 	 	 	 	 	 	 	 	 	 	 	 	 	 	 	1581536238	9.01	16.69
12/02/2020 19:37:19	120220	12022020	193719	237.21	12.399638	-56.755420	237.46	-0.480	0.500	1.630	237.25	-0.90	2.10	 	 	 	 	 	 	 	 	 	 	 	 	 	 	 	 	 	 	1581536239	9.25	17.13
12/02/2020 19:37:20	120220	12022020	193720	237.60	12.399617	-56.755457	237.91	-0.480	0.880	0.920	237.72	-0.50	1.40	 	 	 	 	 	 	 	 	 	 	 	 	 	 	 	 	 	 	1581536240	9.17	16.98
12/02/2020 19:37:21	120220	12022020	193721	238.31	12.399595	-56.755493	238.67	-0.540	1.070	0.400	238.48	-0.30	0.90	 	 	 	 	 	 	 	 	 	 	 	 	 	 	 	 	 	 	1581536241	8.97	16.61
12/02/2020 19:37:22	120220	12022020	193722	239.15	12.399573	-56.755530	239.51	-0.430	0.940	0.150	239.32	-0.40	0.60	 	 	 	 	 	 	 	 	 	 	 	 	 	 	 	 	 	 	1581536242	8.89	16.46
12/02/2020 19:37:23	120220	12022020	193723	239.89	12.399553	-56.755567	240.21	-0.010	0.450	0.110	240.02	-0.90	0.60	 	 	 	 	 	 	 	 	 	 	 	 	 	 	 	 	 	 	1581536243	8.91	16.50
12/02/2020 19:37:24	120220	12022020	193724	240.40	12.399532	-56.755603	240.65	0.520	-0.270	0.240	240.46	-1.60	0.70	 	 	 	 	 	 	 	 	 	 	 	 	 	 	 	 	 	 	1581536244	8.98	16.63
12/02/2020 19:37:25	120220	12022020	193725	240.57	12.399512	-56.755640	240.75	0.840	-0.940	0.510	240.56	-2.30	1.00	 	 	 	 	 	 	 	 	 	 	 	 	 	 	 	 	 	 	1581536245	8.92	16.52
12/02/2020 19:37:26	120220	12022020	193726	240.31	12.399493	-56.755677	240.41	0.810	-1.320	1.030	240.21	-2.60	1.50	 	 	 	 	 	 	 	 	 	 	 	 	 	 	 	 	 	 	1581536246	8.73	16.17
12/02/2020 19:37:27	120220	12022020	193727	239.65	12.399477	-56.755713	239.70	0.540	-1.390	1.760	239.50	-2.70	2.20	 	 	 	 	 	 	 	 	 	 	 	 	 	 	 	 	 	 	1581536247	8.67	16.06
12/02/2020 19:37:28	120220	12022020	193728	238.84	12.399460	-56.755752	238.91	0.190	-1.220	2.370	238.69	-2.60	2.80	 	 	 	 	 	 	 	 	 	 	 	 	 	 	 	 	 	 	1581536248	8.76	16.22
12/02/2020 19:37:29	120220	12022020	193729	238.20	12.399443	-56.755790	238.30	-0.140	-0.900	2.550	238.10	-2.30	3.00	 	 	 	 	 	 	 	 	 	 	 	 	 	 	 	 	 	 	1581536249	8.92	16.52
12/02/2020 19:37:30	120220	12022020	193730	237.85	12.399427	-56.755830	238.02	-0.430	-0.540	2.290	237.82	-1.90	2.80	 	 	 	 	 	 	 	 	 	 	 	 	 	 	 	 	 	 	1581536250	9.07	16.80
12/02/2020 19:37:31	120220	12022020	193731	237.80	12.399407	-56.755868	238.01	-0.590	-0.160	1.760	237.81	-1.50	2.20	 	 	 	 	 	 	 	 	 	 	 	 	 	 	 	 	 	 	1581536251	9.10	16.85
12/02/2020 19:37:32	120220	12022020	193732	237.94	12.399387	-56.755905	238.18	-0.530	0.180	1.080	237.99	-1.20	1.60	 	 	 	 	 	 	 	 	 	 	 	 	 	 	 	 	 	 	1581536252	9.08	16.82
12/02/2020 19:37:33	120220	12022020	193733	238.26	12.399363	-56.755942	238.55	-0.300	0.500	0.470	238.36	-0.90	0.90	 	 	 	 	 	 	 	 	 	 	 	 	 	 	 	 	 	 	1581536253	9.04	16.74
12/02/2020 19:37:34	120220	12022020	193734	238.85	12.399342	-56.755977	239.18	-0.100	0.700	0.070	238.99	-0.70	0.50	 	 	 	 	 	 	 	 	 	 	 	 	 	 	 	 	 	 	1581536254	8.91	16.50
12/02/2020 19:37:35	120220	12022020	193735	239.54	12.399322	-56.756013	239.85	-0.010	0.660	0.100	239.67	-0.70	0.60	 	 	 	 	 	 	 	 	 	 	 	 	 	 	 	 	 	 	1581536255	8.86	16.41
12/02/2020 19:37:36	120220	12022020	193736	240.10	12.399305	-56.756052	240.36	0.080	0.360	0.450	240.18	-1.00	0.90	 	 	 	 	 	 	 	 	 	 	 	 	 	 	 	 	 	 	1581536256	8.90	16.48
12/02/2020 19:37:37	120220	12022020	193737	240.40	12.399287	-56.756090	240.61	0.330	-0.120	0.760	240.43	-1.50	1.20	 	 	 	 	 	 	 	 	 	 	 	 	 	 	 	 	 	 	1581536257	8.89	16.46
12/02/2020 19:37:38	120220	12022020	193738	240.37	12.399268	-56.756127	240.51	0.650	-0.740	1.030	240.32	-2.10	1.50	 	 	 	 	 	 	 	 	 	 	 	 	 	 	 	 	 	 	1581536258	8.96	16.59
12/02/2020 19:37:39	120220	12022020	193739	239.95	12.399247	-56.756165	240.04	0.800	-1.330	1.330	239.83	-2.70	1.80	 	 	 	 	 	 	 	 	 	 	 	 	 	 	 	 	 	 	1581536259	9.12	16.89
12/02/2020 19:37:40	120220	12022020	193740	239.26	12.399227	-56.756203	239.31	0.570	-1.600	1.670	239.11	-2.90	2.10	 	 	 	 	 	 	 	 	 	 	 	 	 	 	 	 	 	 	1581536260	9.17	16.98
12/02/2020 19:37:41	120220	12022020	193741	238.49	12.399208	-56.756242	238.57	0.020	-1.330	2.020	238.35	-2.70	2.50	 	 	 	 	 	 	 	 	 	 	 	 	 	 	 	 	 	 	1581536261	8.99	16.65
12/02/2020 19:37:42	120220	12022020	193742	237.91	12.399192	-56.756278	238.03	-0.550	-0.630	2.150	237.83	-2.00	2.60	 	 	 	 	 	 	 	 	 	 	 	 	 	 	 	 	 	 	1581536262	8.75	16.21
12/02/2020 19:37:43	120220	12022020	193743	237.68	12.399175	-56.756317	237.86	-0.810	0.180	1.940	237.67	-1.20	2.40	 	 	 	 	 	 	 	 	 	 	 	 	 	 	 	 	 	 	1581536263	8.62	15.96
12/02/2020 19:37:44	120220	12022020	193744	237.81	12.399157	-56.756353	238.06	-0.690	0.690	1.450	237.88	-0.70	1.90	 	 	 	 	 	 	 	 	 	 	 	 	 	 	 	 	 	 	1581536264	8.77	16.24
12/02/2020 19:37:45	120220	12022020	193745	238.30	12.399137	-56.756392	238.63	-0.350	0.730	0.710	238.44	-0.60	1.20	 	 	 	 	 	 	 	 	 	 	 	 	 	 	 	 	 	 	1581536265	9.06	16.78
12/02/2020 19:37:46	120220	12022020	193746	239.00	12.399113	-56.756428	239.31	0.000	0.370	-0.020	239.14	-1.00	0.50	 	 	 	 	 	 	 	 	 	 	 	 	 	 	 	 	 	 	1581536266	9.29	17.21
12/02/2020 19:37:47	120220	12022020	193747	239.60	12.399092	-56.756467	239.86	0.260	-0.150	-0.460	239.70	-1.50	0.00	 	 	 	 	 	 	 	 	 	 	 	 	 	 	 	 	 	 	1581536267	9.34	17.30
12/02/2020 19:37:48	120220	12022020	193748	240.01	12.399068	-56.756503	240.25	0.400	-0.550	-0.480	240.08	-1.90	-0.00	 	 	 	 	 	 	 	 	 	 	 	 	 	 	 	 	 	 	1581536268	9.19	17.02
12/02/2020 19:37:49	120220	12022020	193749	240.26	12.399048	-56.756540	240.44	0.420	-0.700	-0.220	240.28	-2.00	0.20	 	 	 	 	 	 	 	 	 	 	 	 	 	 	 	 	 	 	1581536269	8.90	16.48
12/02/2020 19:37:50	120220	12022020	193750	240.29	12.399028	-56.756575	240.46	0.300	-0.740	0.350	240.27	-2.10	0.80	 	 	 	 	 	 	 	 	 	 	 	 	 	 	 	 	 	 	1581536270	8.77	16.24
12/02/2020 19:37:51	120220	12022020	193751	240.06	12.399010	-56.756613	240.19	0.090	-0.800	1.080	239.99	-2.10	1.50	 	 	 	 	 	 	 	 	 	 	 	 	 	 	 	 	 	 	1581536271	8.94	16.56
12/02/2020 19:37:52	120220	12022020	193752	239.59	12.398993	-56.756653	239.69	-0.120	-0.780	1.720	239.48	-2.10	2.20	 	 	 	 	 	 	 	 	 	 	 	 	 	 	 	 	 	 	1581536272	9.18	17.00
12/02/2020 19:37:53	120220	12022020	193753	239.00	12.398975	-56.756693	239.11	-0.270	-0.500	2.100	238.89	-1.90	2.50	 	 	 	 	 	 	 	 	 	 	 	 	 	 	 	 	 	 	1581536273	9.13	16.91
12/02/2020 19:37:54	120220	12022020	193754	238.50	12.398957	-56.756732	238.62	-0.330	-0.070	2.110	238.42	-1.40	2.60	 	 	 	 	 	 	 	 	 	 	 	 	 	 	 	 	 	 	1581536274	8.93	16.54
12/02/2020 19:37:55	120220	12022020	193755	238.20	12.398938	-56.756768	238.37	-0.280	0.200	1.790	238.18	-1.20	2.30	 	 	 	 	 	 	 	 	 	 	 	 	 	 	 	 	 	 	1581536275	8.96	16.59
12/02/2020 19:37:56	120220	12022020	193756	238.24	12.398918	-56.756807	238.47	-0.120	0.210	1.220	238.30	-1.10	1.70	 	 	 	 	 	 	 	 	 	 	 	 	 	 	 	 	 	 	1581536276	9.15	16.95
12/02/2020 19:37:57	120220	12022020	193757	238.61	12.398898	-56.756845	238.87	0.090	0.140	0.520	238.72	-1.20	1.00	 	 	 	 	 	 	 	 	 	 	 	 	 	 	 	 	 	 	1581536277	9.17	16.98
12/02/2020 19:37:58	120220	12022020	193758	239.13	12.398878	-56.756882	239.39	0.280	0.150	-0.050	239.23	-1.20	0.40	 	 	 	 	 	 	 	 	 	 	 	 	 	 	 	 	 	 	1581536278	8.95	16.58
12/02/2020 19:37:59	120220	12022020	193759	239.61	12.398857	-56.756918	239.84	0.400	0.100	-0.270	239.70	-1.20	0.20	 	 	 	 	 	 	 	 	 	 	 	 	 	 	 	 	 	 	1581536279	8.75	16.21
12/02/2020 19:38:00	120220	12022020	193800	239.95	12.398837	-56.756955	240.15	0.390	-0.240	-0.130	239.99	-1.60	0.30	 	 	 	 	 	 	 	 	 	 	 	 	 	 	 	 	 	 	1581536280	8.86	16.41
12/02/2020 19:38:01	120220	12022020	193801	240.05	12.398817	-56.756993	240.21	0.270	-0.800	0.290	240.04	-2.10	0.70	 	 	 	 	 	 	 	 	 	 	 	 	 	 	 	 	 	 	1581536281	9.17	16.98
12/02/2020 19:38:02	120220	12022020	193802	239.90	12.398798	-56.757032	240.04	0.150	-1.120	0.860	239.86	-2.50	1.30	1014.50	26.30	26.40	20.30	20.40	454.0	69.0	69.0	395.0	28.2	209.00	6.60	76.00	10.80	31767	10362.0	27.5	27.5	1581536282	9.22	17.08
12/02/2020 19:38:03	120220	12022020	193803	239.72	12.398778	-56.757070	239.83	0.030	-1.010	1.290	239.67	-2.40	1.70	 	 	 	 	 	 	 	 	 	 	 	 	 	 	 	 	 	 	1581536283	8.97	16.61
12/02/2020 19:38:04	120220	12022020	193804	239.46	12.398760	-56.757107	239.60	-0.120	-0.810	1.500	239.42	-2.20	1.90	 	 	 	 	 	 	 	 	 	 	 	 	 	 	 	 	 	 	1581536284	8.88	16.45
12/02/2020 19:38:05	120220	12022020	193805	239.21	12.398742	-56.757147	239.34	-0.270	-0.790	1.710	239.16	-2.10	2.20	 	 	 	 	 	 	 	 	 	 	 	 	 	 	 	 	 	 	1581536285	9.25	17.13
12/02/2020 19:38:06	120220	12022020	193806	238.92	12.398722	-56.757187	239.04	-0.370	-0.680	1.950	238.84	-2.00	2.40	 	 	 	 	 	 	 	 	 	 	 	 	 	 	 	 	 	 	1581536286	9.56	17.71
12/02/2020 19:38:07	120220	12022020	193807	238.56	12.398703	-56.757227	238.69	-0.440	-0.170	2.090	238.50	-1.50	2.50	 	 	 	 	 	 	 	 	 	 	 	 	 	 	 	 	 	 	1581536287	9.35	17.32
12/02/2020 19:38:08	120220	12022020	193808	238.34	12.398685	-56.757265	238.49	-0.450	0.520	1.840	238.33	-0.90	2.30	 	 	 	 	 	 	 	 	 	 	 	 	 	 	 	 	 	 	1581536288	8.99	16.65
12/02/2020 19:38:09	120220	12022020	193809	238.45	12.398665	-56.757302	238.68	-0.350	0.980	1.150	238.51	-0.40	1.60	 	 	 	 	 	 	 	 	 	 	 	 	 	 	 	 	 	 	1581536289	8.87	16.43
12/02/2020 19:38:10	120220	12022020	193810	238.87	12.398643	-56.757338	239.11	-0.080	0.960	0.400	238.97	-0.40	0.90	 	 	 	 	 	 	 	 	 	 	 	 	 	 	 	 	 	 	1581536290	9.01	16.69
12/02/2020 19:38:11	120220	12022020	193811	239.31	12.398620	-56.757375	239.52	0.310	0.460	-0.010	239.37	-0.90	0.50	 	 	 	 	 	 	 	 	 	 	 	 	 	 	 	 	 	 	1581536291	9.26	17.15
12/02/2020 19:38:12	120220	12022020	193812	239.58	12.398598	-56.757413	239.78	0.630	-0.280	0.090	239.62	-1.60	0.50	 	 	 	 	 	 	 	 	 	 	 	 	 	 	 	 	 	 	1581536292	9.38	17.37
12/02/2020 19:38:13	120220	12022020	193813	239.78	12.398578	-56.757453	239.97	0.650	-0.970	0.540	239.81	-2.30	1.00	 	 	 	 	 	 	 	 	 	 	 	 	 	 	 	 	 	 	1581536293	9.32	17.26
12/02/2020 19:38:14	120220	12022020	193814	239.85	12.398560	-56.757493	240.02	0.390	-1.440	1.200	239.83	-2.80	1.60	 	 	 	 	 	 	 	 	 	 	 	 	 	 	 	 	 	 	1581536294	9.21	17.06
12/02/2020 19:38:15	120220	12022020	193815	239.59	12.398545	-56.757533	239.69	0.090	-1.540	1.910	239.50	-2.90	2.30	 	 	 	 	 	 	 	 	 	 	 	 	 	 	 	 	 	 	1581536295	9.16	16.96
12/02/2020 19:38:16	120220	12022020	193816	239.09	12.398528	-56.757572	239.20	-0.120	-1.120	2.310	239.01	-2.50	2.80	 	 	 	 	 	 	 	 	 	 	 	 	 	 	 	 	 	 	1581536296	9.00	16.67
12/02/2020 19:38:17	120220	12022020	193817	238.72	12.398510	-56.757608	238.85	-0.240	-0.360	2.120	238.67	-1.70	2.60	 	 	 	 	 	 	 	 	 	 	 	 	 	 	 	 	 	 	1581536297	8.70	16.11
12/02/2020 19:38:18	120220	12022020	193818	238.62	12.398488	-56.757645	238.81	-0.320	0.140	1.560	238.64	-1.20	2.00	 	 	 	 	 	 	 	 	 	 	 	 	 	 	 	 	 	 	1581536298	8.83	16.35
12/02/2020 19:38:19	120220	12022020	193819	238.84	12.398467	-56.757682	239.06	-0.340	0.170	0.970	238.92	-1.20	1.50	 	 	 	 	 	 	 	 	 	 	 	 	 	 	 	 	 	 	1581536299	9.36	17.33
12/02/2020 19:38:20	120220	12022020	193820	239.29	12.398443	-56.757722	239.53	-0.310	0.090	0.610	239.40	-1.30	1.10	 	 	 	 	 	 	 	 	 	 	 	 	 	 	 	 	 	 	1581536300	9.62	17.82
12/02/2020 19:38:21	120220	12022020	193821	239.80	12.398423	-56.757760	240.02	-0.160	0.230	0.630	239.88	-1.10	1.10	 	 	 	 	 	 	 	 	 	 	 	 	 	 	 	 	 	 	1581536301	9.34	17.30
12/02/2020 19:38:22	120220	12022020	193822	240.04	12.398405	-56.757798	240.20	0.070	0.380	1.000	240.04	-1.00	1.40	 	 	 	 	 	 	 	 	 	 	 	 	 	 	 	 	 	 	1581536302	9.00	16.67
12/02/2020 19:38:23	120220	12022020	193823	239.87	12.398388	-56.757838	239.97	0.290	0.210	1.460	239.79	-1.10	1.90	 	 	 	 	 	 	 	 	 	 	 	 	 	 	 	 	 	 	1581536303	9.11	16.87
12/02/2020 19:38:24	120220	12022020	193824	239.49	12.398368	-56.757878	239.58	0.350	-0.270	1.610	239.41	-1.60	2.10	 	 	 	 	 	 	 	 	 	 	 	 	 	 	 	 	 	 	1581536304	9.32	17.26
12/02/2020 19:38:25	120220	12022020	193825	239.15	12.398348	-56.757917	239.28	0.210	-0.800	1.360	239.10	-2.10	1.80	 	 	 	 	 	 	 	 	 	 	 	 	 	 	 	 	 	 	1581536305	9.39	17.39
12/02/2020 19:38:26	120220	12022020	193826	239.00	12.398327	-56.757955	239.17	-0.070	-1.200	0.800	239.00	-2.50	1.30	 	 	 	 	 	 	 	 	 	 	 	 	 	 	 	 	 	 	1581536306	9.32	17.26
12/02/2020 19:38:27	120220	12022020	193827	239.10	12.398305	-56.757993	239.32	-0.320	-1.270	0.160	239.15	-2.60	0.60	 	 	 	 	 	 	 	 	 	 	 	 	 	 	 	 	 	 	1581536307	9.23	17.09
12/02/2020 19:38:28	120220	12022020	193828	239.44	12.398283	-56.758030	239.68	-0.390	-0.910	-0.320	239.52	-2.30	0.20	 	 	 	 	 	 	 	 	 	 	 	 	 	 	 	 	 	 	1581536308	9.05	16.76
12/02/2020 19:38:29	120220	12022020	193829	239.84	12.398262	-56.758067	240.05	-0.250	-0.240	-0.380	239.89	-1.60	0.10	 	 	 	 	 	 	 	 	 	 	 	 	 	 	 	 	 	 	1581536309	8.88	16.45
12/02/2020 19:38:30	120220	12022020	193830	240.06	12.398243	-56.758103	240.23	-0.040	0.480	0.000	240.07	-0.90	0.40	 	 	 	 	 	 	 	 	 	 	 	 	 	 	 	 	 	 	1581536310	8.83	16.35
12/02/2020 19:38:31	120220	12022020	193831	239.96	12.398225	-56.758142	240.08	0.140	0.890	0.760	239.90	-0.50	1.20	 	 	 	 	 	 	 	 	 	 	 	 	 	 	 	 	 	 	1581536311	8.96	16.59
12/02/2020 19:38:32	120220	12022020	193832	239.56	12.398208	-56.758182	239.65	0.200	0.790	1.560	239.47	-0.50	2.00	 	 	 	 	 	 	 	 	 	 	 	 	 	 	 	 	 	 	1581536312	9.27	17.17
12/02/2020 19:38:33	120220	12022020	193833	239.06	12.398190	-56.758222	239.15	0.170	0.290	2.030	238.98	-1.00	2.50	 	 	 	 	 	 	 	 	 	 	 	 	 	 	 	 	 	 	1581536313	9.49	17.58
12/02/2020 19:38:34	120220	12022020	193834	238.67	12.398172	-56.758263	238.78	0.170	-0.400	2.010	238.62	-1.70	2.50	 	 	 	 	 	 	 	 	 	 	 	 	 	 	 	 	 	 	1581536314	9.50	17.59
12/02/2020 19:38:35	120220	12022020	193835	238.47	12.398150	-56.758303	238.60	0.180	-1.050	1.550	238.45	-2.40	2.00	 	 	 	 	 	 	 	 	 	 	 	 	 	 	 	 	 	 	1581536315	9.41	17.43
12/02/2020 19:38:36	120220	12022020	193836	238.49	12.398128	-56.758340	238.69	0.130	-1.420	0.780	238.53	-2.80	1.30	 	 	 	 	 	 	 	 	 	 	 	 	 	 	 	 	 	 	1581536316	9.22	17.08
12/02/2020 19:38:37	120220	12022020	193837	238.76	12.398107	-56.758377	238.98	-0.010	-1.400	0.010	238.83	-2.80	0.50	 	 	 	 	 	 	 	 	 	 	 	 	 	 	 	 	 	 	1581536317	9.00	16.67
12/02/2020 19:38:38	120220	12022020	193838	239.07	12.398083	-56.758412	239.30	-0.160	-1.090	-0.310	239.12	-2.50	0.10	 	 	 	 	 	 	 	 	 	 	 	 	 	 	 	 	 	 	1581536318	8.93	16.54
12/02/2020 19:38:39	120220	12022020	193839	239.26	12.398063	-56.758448	239.47	-0.250	-0.590	-0.170	239.28	-2.00	0.30	 	 	 	 	 	 	 	 	 	 	 	 	 	 	 	 	 	 	1581536319	8.99	16.65
12/02/2020 19:38:40	120220	12022020	193840	239.32	12.398043	-56.758487	239.48	-0.270	-0.130	0.290	239.32	-1.50	0.70	 	 	 	 	 	 	 	 	 	 	 	 	 	 	 	 	 	 	1581536320	9.18	17.00
12/02/2020 19:38:41	120220	12022020	193841	239.22	12.398023	-56.758527	239.36	-0.260	0.160	0.890	239.20	-1.20	1.30	 	 	 	 	 	 	 	 	 	 	 	 	 	 	 	 	 	 	1581536321	9.47	17.54
12/02/2020 19:38:42	120220	12022020	193842	239.09	12.398005	-56.758568	239.21	-0.250	0.430	1.360	239.06	-0.90	1.80	 	 	 	 	 	 	 	 	 	 	 	 	 	 	 	 	 	 	1581536322	9.57	17.72
12/02/2020 19:38:43	120220	12022020	193843	238.91	12.397985	-56.758607	239.04	-0.200	0.750	1.570	238.87	-0.60	2.00	 	 	 	 	 	 	 	 	 	 	 	 	 	 	 	 	 	 	1581536323	9.33	17.28
12/02/2020 19:38:44	120220	12022020	193844	238.73	12.397967	-56.758645	238.88	-0.110	0.850	1.560	238.71	-0.50	2.00	 	 	 	 	 	 	 	 	 	 	 	 	 	 	 	 	 	 	1581536324	9.09	16.83
12/02/2020 19:38:45	120220	12022020	193845	238.69	12.397945	-56.758683	238.85	-0.020	0.430	1.340	238.69	-0.90	1.80	 	 	 	 	 	 	 	 	 	 	 	 	 	 	 	 	 	 	1581536325	9.21	17.06
12/02/2020 19:38:46	120220	12022020	193846	238.73	12.397925	-56.758723	238.89	0.020	-0.330	1.070	238.75	-1.70	1.50	 	 	 	 	 	 	 	 	 	 	 	 	 	 	 	 	 	 	1581536326	9.50	17.59
12/02/2020 19:38:47	120220	12022020	193847	238.78	12.397905	-56.758763	238.93	0.070	-0.850	0.780	238.78	-2.20	1.20	 	 	 	 	 	 	 	 	 	 	 	 	 	 	 	 	 	 	1581536327	9.39	17.39
12/02/2020 19:38:48	120220	12022020	193848	238.75	12.397885	-56.758800	238.90	0.220	-0.840	0.430	238.75	-2.20	0.90	 	 	 	 	 	 	 	 	 	 	 	 	 	 	 	 	 	 	1581536328	8.87	16.43
12/02/2020 19:38:49	120220	12022020	193849	238.78	12.397863	-56.758833	238.96	0.400	-0.640	0.040	238.81	-2.00	0.50	 	 	 	 	 	 	 	 	 	 	 	 	 	 	 	 	 	 	1581536329	8.58	15.89
12/02/2020 19:38:50	120220	12022020	193850	238.93	12.397842	-56.758870	239.11	0.470	-0.720	-0.100	238.96	-2.10	0.40	 	 	 	 	 	 	 	 	 	 	 	 	 	 	 	 	 	 	1581536330	8.84	16.37
12/02/2020 19:38:51	120220	12022020	193851	238.98	12.397820	-56.758908	239.11	0.380	-1.180	0.300	238.96	-2.50	0.70	 	 	 	 	 	 	 	 	 	 	 	 	 	 	 	 	 	 	1581536331	9.44	17.48
12/02/2020 19:38:52	120220	12022020	193852	238.78	12.397800	-56.758952	238.90	0.160	-1.620	1.170	238.72	-3.00	1.60	 	 	 	 	 	 	 	 	 	 	 	 	 	 	 	 	 	 	1581536332	9.97	18.46
12/02/2020 19:38:53	120220	12022020	193853	238.51	12.397782	-56.758995	238.58	-0.170	-1.500	2.100	238.45	-2.90	2.50	 	 	 	 	 	 	 	 	 	 	 	 	 	 	 	 	 	 	1581536333	10.02	18.56
12/02/2020 19:38:54	120220	12022020	193854	238.17	12.397765	-56.759037	238.31	-0.530	-0.570	2.850	238.13	-2.00	3.30	 	 	 	 	 	 	 	 	 	 	 	 	 	 	 	 	 	 	1581536334	9.54	17.67
12/02/2020 19:38:55	120220	12022020	193855	238.02	12.397750	-56.759077	238.20	-0.790	0.780	3.210	238.02	-0.60	3.60	 	 	 	 	 	 	 	 	 	 	 	 	 	 	 	 	 	 	1581536335	8.96	16.59
12/02/2020 19:38:56	120220	12022020	193856	238.09	12.397733	-56.759113	238.31	-0.780	1.670	2.960	238.13	0.30	3.40	 	 	 	 	 	 	 	 	 	 	 	 	 	 	 	 	 	 	1581536336	8.86	16.41
12/02/2020 19:38:57	120220	12022020	193857	238.30	12.397712	-56.759152	238.53	-0.450	1.660	2.090	238.34	0.30	2.60	 	 	 	 	 	 	 	 	 	 	 	 	 	 	 	 	 	 	1581536337	9.34	17.30
12/02/2020 19:38:58	120220	12022020	193858	238.53	12.397685	-56.759190	238.75	0.100	0.970	0.900	238.57	-0.40	1.40	 	 	 	 	 	 	 	 	 	 	 	 	 	 	 	 	 	 	1581536338	9.80	18.15
12/02/2020 19:38:59	120220	12022020	193859	238.72	12.397657	-56.759227	238.91	0.580	0.100	-0.120	238.75	-1.20	0.40	 	 	 	 	 	 	 	 	 	 	 	 	 	 	 	 	 	 	1581536339	9.78	18.11
12/02/2020 19:39:00	120220	12022020	193900	238.78	12.397632	-56.759263	238.94	0.770	-0.760	-0.500	238.77	-2.10	-0.00	 	 	 	 	 	 	 	 	 	 	 	 	 	 	 	 	 	 	1581536340	9.46	17.52
12/02/2020 19:39:01	120220	12022020	193901	238.61	12.397608	-56.759300	238.71	0.650	-1.610	0.010	238.54	-2.90	0.40	 	 	 	 	 	 	 	 	 	 	 	 	 	 	 	 	 	 	1581536341	9.33	17.28
12/02/2020 19:39:02	120220	12022020	193902	238.11	12.397592	-56.759342	238.19	0.390	-2.280	1.210	237.98	-3.60	1.60	1014.60	26.40	26.40	20.40	20.50	455.0	69.0	69.0	396.0	28.2	210.00	5.80	75.00	10.20	31827	12451.0	27.5	27.5	1581536342	9.58	17.74
12/02/2020 19:39:03	120220	12022020	193903	237.48	12.397577	-56.759385	237.59	0.070	-2.250	2.410	237.37	-3.60	2.80	 	 	 	 	 	 	 	 	 	 	 	 	 	 	 	 	 	 	1581536343	9.70	17.96
12/02/2020 19:39:04	120220	12022020	193904	237.05	12.397563	-56.759427	237.23	-0.280	-1.310	3.060	237.02	-2.70	3.50	 	 	 	 	 	 	 	 	 	 	 	 	 	 	 	 	 	 	1581536344	9.22	17.08
12/02/2020 19:39:05	120220	12022020	193905	237.03	12.397547	-56.759465	237.29	-0.560	0.080	3.010	237.09	-1.30	3.50	 	 	 	 	 	 	 	 	 	 	 	 	 	 	 	 	 	 	1581536345	8.71	16.13
12/02/2020 19:39:06	120220	12022020	193906	237.48	12.397528	-56.759502	237.77	-0.640	1.130	2.310	237.59	-0.30	2.80	 	 	 	 	 	 	 	 	 	 	 	 	 	 	 	 	 	 	1581536346	8.68	16.08
12/02/2020 19:39:07	120220	12022020	193907	238.06	12.397505	-56.759538	238.35	-0.400	1.280	1.390	238.16	-0.10	1.90	 	 	 	 	 	 	 	 	 	 	 	 	 	 	 	 	 	 	1581536347	9.27	17.17
12/02/2020 19:39:08	120220	12022020	193908	238.55	12.397478	-56.759577	238.82	0.060	0.610	0.720	238.64	-0.70	1.20	 	 	 	 	 	 	 	 	 	 	 	 	 	 	 	 	 	 	1581536348	10.02	18.56
12/02/2020 19:39:09	120220	12022020	193909	238.89	12.397450	-56.759617	239.11	0.420	-0.430	0.490	238.93	-1.70	0.90	 	 	 	 	 	 	 	 	 	 	 	 	 	 	 	 	 	 	1581536349	10.36	19.19
12/02/2020 19:39:10	120220	12022020	193910	238.97	12.397427	-56.759658	239.14	0.460	-1.130	0.630	238.95	-2.50	1.10	 	 	 	 	 	 	 	 	 	 	 	 	 	 	 	 	 	 	1581536350	10.15	18.80
12/02/2020 19:39:11	120220	12022020	193911	238.74	12.397405	-56.759698	238.84	0.240	-1.030	1.010	238.66	-2.40	1.40	 	 	 	 	 	 	 	 	 	 	 	 	 	 	 	 	 	 	1581536351	9.45	17.50
12/02/2020 19:39:12	120220	12022020	193912	238.28	12.397387	-56.759735	238.36	-0.000	-0.300	1.590	238.18	-1.70	2.00	 	 	 	 	 	 	 	 	 	 	 	 	 	 	 	 	 	 	1581536352	8.78	16.26
12/02/2020 19:39:13	120220	12022020	193913	237.86	12.397370	-56.759772	237.99	-0.150	0.370	2.070	237.80	-1.00	2.50	 	 	 	 	 	 	 	 	 	 	 	 	 	 	 	 	 	 	1581536353	8.68	16.08
12/02/2020 19:39:14	120220	12022020	193914	237.72	12.397353	-56.759812	237.95	-0.200	0.510	2.070	237.75	-0.80	2.50	 	 	 	 	 	 	 	 	 	 	 	 	 	 	 	 	 	 	1581536354	9.10	16.85
12/02/2020 19:39:15	120220	12022020	193915	237.97	12.397335	-56.759852	238.23	-0.190	0.220	1.550	238.05	-1.10	2.00	 	 	 	 	 	 	 	 	 	 	 	 	 	 	 	 	 	 	1581536355	9.47	17.54
12/02/2020 19:39:16	120220	12022020	193916	238.49	12.397313	-56.759892	238.76	-0.110	-0.190	0.650	238.61	-1.50	1.10	 	 	 	 	 	 	 	 	 	 	 	 	 	 	 	 	 	 	1581536356	9.47	17.54
12/02/2020 19:39:17	120220	12022020	193917	239.05	12.397288	-56.759928	239.27	0.060	-0.580	-0.250	239.14	-1.90	0.20	 	 	 	 	 	 	 	 	 	 	 	 	 	 	 	 	 	 	1581536357	9.33	17.28
12/02/2020 19:39:18	120220	12022020	193918	239.39	12.397263	-56.759965	239.56	0.290	-0.990	-0.570	239.42	-2.30	-0.10	 	 	 	 	 	 	 	 	 	 	 	 	 	 	 	 	 	 	1581536358	9.32	17.26
12/02/2020 19:39:19	120220	12022020	193919	239.45	12.397242	-56.760003	239.58	0.430	-1.290	-0.310	239.44	-2.60	0.10	 	 	 	 	 	 	 	 	 	 	 	 	 	 	 	 	 	 	1581536359	9.41	17.43
12/02/2020 19:39:20	120220	12022020	193920	239.28	12.397223	-56.760043	239.39	0.400	-1.260	0.350	239.23	-2.60	0.80	 	 	 	 	 	 	 	 	 	 	 	 	 	 	 	 	 	 	1581536360	9.42	17.45
12/02/2020 19:39:21	120220	12022020	193921	238.95	12.397207	-56.760083	239.04	0.250	-0.850	1.170	238.87	-2.20	1.60	 	 	 	 	 	 	 	 	 	 	 	 	 	 	 	 	 	 	1581536361	9.36	17.33
12/02/2020 19:39:22	120220	12022020	193922	238.58	12.397190	-56.760125	238.71	0.090	-0.310	1.750	238.52	-1.70	2.20	 	 	 	 	 	 	 	 	 	 	 	 	 	 	 	 	 	 	1581536362	9.36	17.33
12/02/2020 19:39:23	120220	12022020	193923	238.37	12.397172	-56.760165	238.52	-0.090	0.100	1.900	238.34	-1.30	2.30	 	 	 	 	 	 	 	 	 	 	 	 	 	 	 	 	 	 	1581536363	9.52	17.63
12/02/2020 19:39:24	120220	12022020	193924	238.27	12.397150	-56.760207	238.42	-0.330	0.350	1.830	238.25	-1.00	2.30	 	 	 	 	 	 	 	 	 	 	 	 	 	 	 	 	 	 	1581536364	9.69	17.95
12/02/2020 19:39:25	120220	12022020	193925	238.21	12.397128	-56.760247	238.38	-0.650	0.450	1.610	238.21	-0.90	2.10	 	 	 	 	 	 	 	 	 	 	 	 	 	 	 	 	 	 	1581536365	9.71	17.98
12/02/2020 19:39:26	120220	12022020	193926	238.27	12.397107	-56.760287	238.48	-0.830	0.440	1.270	238.30	-0.90	1.70	 	 	 	 	 	 	 	 	 	 	 	 	 	 	 	 	 	 	1581536366	9.64	17.85
12/02/2020 19:39:27	120220	12022020	193927	238.40	12.397085	-56.760325	238.63	-0.630	0.430	0.920	238.43	-0.90	1.40	 	 	 	 	 	 	 	 	 	 	 	 	 	 	 	 	 	 	1581536367	9.40	17.41
12/02/2020 19:39:28	120220	12022020	193928	238.53	12.397063	-56.760363	238.70	-0.090	0.240	0.640	238.52	-1.10	1.10	 	 	 	 	 	 	 	 	 	 	 	 	 	 	 	 	 	 	1581536368	9.23	17.09
12/02/2020 19:39:29	120220	12022020	193929	238.47	12.397042	-56.760402	238.59	0.490	-0.240	0.690	238.44	-1.60	1.10	 	 	 	 	 	 	 	 	 	 	 	 	 	 	 	 	 	 	1581536369	9.34	17.30
12/02/2020 19:39:30	120220	12022020	193930	238.22	12.397022	-56.760440	238.35	0.810	-0.770	1.040	238.16	-2.10	1.50	 	 	 	 	 	 	 	 	 	 	 	 	 	 	 	 	 	 	1581536370	9.39	17.39
12/02/2020 19:39:31	120220	12022020	193931	237.94	12.397002	-56.760480	237.99	0.850	-1.040	1.490	237.87	-2.40	1.90	 	 	 	 	 	 	 	 	 	 	 	 	 	 	 	 	 	 	1581536371	9.29	17.21
12/02/2020 19:39:32	120220	12022020	193932	237.53	12.396983	-56.760518	237.70	0.670	-0.900	1.880	237.49	-2.30	2.30	 	 	 	 	 	 	 	 	 	 	 	 	 	 	 	 	 	 	1581536372	9.08	16.82
12/02/2020 19:39:33	120220	12022020	193933	237.43	12.396967	-56.760557	237.66	0.390	-0.570	2.060	237.45	-2.00	2.50	 	 	 	 	 	 	 	 	 	 	 	 	 	 	 	 	 	 	1581536373	8.96	16.59
12/02/2020 19:39:34	120220	12022020	193934	237.61	12.396948	-56.760595	237.87	0.090	-0.370	1.950	237.66	-1.80	2.40	 	 	 	 	 	 	 	 	 	 	 	 	 	 	 	 	 	 	1581536374	9.12	16.89
12/02/2020 19:39:35	120220	12022020	193935	237.85	12.396928	-56.760635	238.09	-0.110	-0.440	1.700	237.88	-1.80	2.20	 	 	 	 	 	 	 	 	 	 	 	 	 	 	 	 	 	 	1581536375	9.46	17.52
12/02/2020 19:39:36	120220	12022020	193936	237.97	12.396907	-56.760677	238.17	-0.170	-0.690	1.350	237.97	-2.10	1.80	 	 	 	 	 	 	 	 	 	 	 	 	 	 	 	 	 	 	1581536376	9.82	18.19
12/02/2020 19:39:37	120220	12022020	193937	237.96	12.396882	-56.760717	238.14	-0.230	-0.840	0.990	237.94	-2.20	1.50	 	 	 	 	 	 	 	 	 	 	 	 	 	 	 	 	 	 	1581536377	9.99	18.50
12/02/2020 19:39:38	120220	12022020	193938	237.87	12.396857	-56.760755	238.05	-0.450	-0.590	0.780	237.85	-2.00	1.20	 	 	 	 	 	 	 	 	 	 	 	 	 	 	 	 	 	 	1581536378	9.77	18.09
12/02/2020 19:39:39	120220	12022020	193939	237.78	12.396833	-56.760793	237.96	-0.730	-0.020	0.770	237.77	-1.40	1.20	 	 	 	 	 	 	 	 	 	 	 	 	 	 	 	 	 	 	1581536379	9.36	17.33
12/02/2020 19:39:40	120220	12022020	193940	237.78	12.396813	-56.760830	238.01	-0.820	0.510	0.860	237.81	-0.90	1.30	 	 	 	 	 	 	 	 	 	 	 	 	 	 	 	 	 	 	1581536380	9.21	17.06
12/02/2020 19:39:41	120220	12022020	193941	237.89	12.396792	-56.760868	238.15	-0.570	0.750	0.920	237.92	-0.60	1.40	 	 	 	 	 	 	 	 	 	 	 	 	 	 	 	 	 	 	1581536381	9.29	17.21
12/02/2020 19:39:42	120220	12022020	193942	238.03	12.396770	-56.760908	238.22	-0.070	0.650	1.050	238.03	-0.70	1.50	 	 	 	 	 	 	 	 	 	 	 	 	 	 	 	 	 	 	1581536382	9.45	17.50
12/02/2020 19:39:43	120220	12022020	193943	237.99	12.396750	-56.760948	238.13	0.450	0.300	1.260	237.96	-1.10	1.70	 	 	 	 	 	 	 	 	 	 	 	 	 	 	 	 	 	 	1581536383	9.53	17.65
12/02/2020 19:39:44	120220	12022020	193944	237.75	12.396730	-56.760988	237.90	0.780	-0.200	1.470	237.70	-1.60	1.90	 	 	 	 	 	 	 	 	 	 	 	 	 	 	 	 	 	 	1581536384	9.54	17.67
12/02/2020 19:39:45	120220	12022020	193945	237.49	12.396708	-56.761028	237.67	0.800	-0.660	1.540	237.45	-2.00	2.00	 	 	 	 	 	 	 	 	 	 	 	 	 	 	 	 	 	 	1581536385	9.48	17.56
12/02/2020 19:39:46	120220	12022020	193946	237.37	12.396688	-56.761067	237.57	0.550	-0.870	1.300	237.39	-2.20	1.80	 	 	 	 	 	 	 	 	 	 	 	 	 	 	 	 	 	 	1581536386	9.30	17.22
12/02/2020 19:39:47	120220	12022020	193947	237.58	12.396668	-56.761103	237.81	0.190	-0.760	0.730	237.65	-2.10	1.20	 	 	 	 	 	 	 	 	 	 	 	 	 	 	 	 	 	 	1581536387	9.04	16.74
12/02/2020 19:39:48	120220	12022020	193948	237.94	12.396645	-56.761140	238.15	-0.030	-0.630	0.150	238.00	-2.00	0.60	 	 	 	 	 	 	 	 	 	 	 	 	 	 	 	 	 	 	1581536388	8.92	16.52
12/02/2020 19:39:49	120220	12022020	193949	238.16	12.396622	-56.761177	238.33	-0.100	-0.820	0.030	238.17	-2.20	0.50	 	 	 	 	 	 	 	 	 	 	 	 	 	 	 	 	 	 	1581536389	9.33	17.28
12/02/2020 19:39:50	120220	12022020	193950	238.10	12.396598	-56.761217	238.25	-0.130	-1.150	0.470	238.06	-2.50	0.90	 	 	 	 	 	 	 	 	 	 	 	 	 	 	 	 	 	 	1581536390	9.85	18.24
12/02/2020 19:39:51	120220	12022020	193951	237.81	12.396577	-56.761258	237.92	-0.240	-1.210	1.170	237.72	-2.60	1.60	 	 	 	 	 	 	 	 	 	 	 	 	 	 	 	 	 	 	1581536391	10.00	18.52
12/02/2020 19:39:52	120220	12022020	193952	237.37	12.396557	-56.761300	237.50	-0.360	-0.800	1.760	237.30	-2.20	2.20	 	 	 	 	 	 	 	 	 	 	 	 	 	 	 	 	 	 	1581536392	9.84	18.22
12/02/2020 19:39:53	120220	12022020	193953	237.10	12.396538	-56.761342	237.27	-0.430	-0.020	1.870	237.08	-1.40	2.30	 	 	 	 	 	 	 	 	 	 	 	 	 	 	 	 	 	 	1581536393	9.50	17.59
12/02/2020 19:39:54	120220	12022020	193954	237.10	12.396518	-56.761380	237.33	-0.380	0.670	1.570	237.13	-0.70	2.00	 	 	 	 	 	 	 	 	 	 	 	 	 	 	 	 	 	 	1581536394	9.33	17.28
12/02/2020 19:39:55	120220	12022020	193955	237.33	12.396497	-56.761420	237.57	-0.270	0.940	1.090	237.38	-0.40	1.50	 	 	 	 	 	 	 	 	 	 	 	 	 	 	 	 	 	 	1581536395	9.52	17.63
12/02/2020 19:39:56	120220	12022020	193956	237.64	12.396473	-56.761458	237.89	-0.160	0.900	0.710	237.70	-0.50	1.20	 	 	 	 	 	 	 	 	 	 	 	 	 	 	 	 	 	 	1581536396	9.64	17.85
12/02/2020 19:39:57	120220	12022020	193957	237.88	12.396450	-56.761497	238.11	-0.030	0.670	0.580	237.90	-0.70	1.00	 	 	 	 	 	 	 	 	 	 	 	 	 	 	 	 	 	 	1581536397	9.53	17.65
12/02/2020 19:39:58	120220	12022020	193958	237.97	12.396427	-56.761535	238.17	0.160	0.260	0.710	237.97	-1.10	1.10	 	 	 	 	 	 	 	 	 	 	 	 	 	 	 	 	 	 	1581536398	9.39	17.39
12/02/2020 19:39:59	120220	12022020	193959	237.86	12.396407	-56.761573	238.01	0.400	-0.410	1.060	237.81	-1.70	1.50	 	 	 	 	 	 	 	 	 	 	 	 	 	 	 	 	 	 	1581536399	9.43	17.46
12/02/2020 19:40:00	120220	12022020	194000	237.48	12.396385	-56.761615	237.60	0.620	-1.190	1.450	237.38	-2.50	1.90	 	 	 	 	 	 	 	 	 	 	 	 	 	 	 	 	 	 	1581536400	9.65	17.87
12/02/2020 19:40:01	120220	12022020	194001	237.01	12.396363	-56.761655	237.15	0.630	-1.680	1.600	236.94	-3.00	2.00	 	 	 	 	 	 	 	 	 	 	 	 	 	 	 	 	 	 	1581536401	9.72	18.00
12/02/2020 19:40:02	120220	12022020	194002	236.78	12.396342	-56.761693	236.99	0.380	-1.560	1.420	236.78	-2.90	1.90	1014.50	26.50	26.60	20.80	20.90	460.0	71.0	70.0	397.0	28.3	217.00	5.20	77.00	9.60	31840	11028.0	27.5	27.5	1581536402	9.39	17.39
12/02/2020 19:40:03	120220	12022020	194003	236.89	12.396320	-56.761730	237.14	0.040	-1.020	0.970	236.95	-2.40	1.40	 	 	 	 	 	 	 	 	 	 	 	 	 	 	 	 	 	 	1581536403	9.06	16.78
12/02/2020 19:40:04	120220	12022020	194004	237.26	12.396298	-56.761767	237.53	-0.260	-0.450	0.480	237.35	-1.80	0.90	 	 	 	 	 	 	 	 	 	 	 	 	 	 	 	 	 	 	1581536404	9.13	16.91
12/02/2020 19:40:05	120220	12022020	194005	237.69	12.396275	-56.761805	237.96	-0.450	-0.070	0.250	237.77	-1.50	0.70	 	 	 	 	 	 	 	 	 	 	 	 	 	 	 	 	 	 	1581536405	9.43	17.46
12/02/2020 19:40:06	120220	12022020	194006	237.98	12.396253	-56.761845	238.20	-0.550	0.050	0.470	238.01	-1.30	0.90	 	 	 	 	 	 	 	 	 	 	 	 	 	 	 	 	 	 	1581536406	9.80	18.15
12/02/2020 19:40:07	120220	12022020	194007	238.05	12.396232	-56.761888	238.24	-0.530	0.010	0.950	238.04	-1.40	1.40	 	 	 	 	 	 	 	 	 	 	 	 	 	 	 	 	 	 	1581536407	10.05	18.61
12/02/2020 19:40:08	120220	12022020	194008	237.93	12.396210	-56.761930	238.08	-0.420	0.010	1.480	237.88	-1.40	1.90	 	 	 	 	 	 	 	 	 	 	 	 	 	 	 	 	 	 	1581536408	10.05	18.61
12/02/2020 19:40:09	120220	12022020	194009	237.65	12.396190	-56.761972	237.78	-0.250	0.190	1.870	237.59	-1.20	2.30	 	 	 	 	 	 	 	 	 	 	 	 	 	 	 	 	 	 	1581536409	9.83	18.21
12/02/2020 19:40:10	120220	12022020	194010	237.37	12.396170	-56.762012	237.52	-0.090	0.490	1.850	237.33	-0.90	2.30	 	 	 	 	 	 	 	 	 	 	 	 	 	 	 	 	 	 	1581536410	9.49	17.58
12/02/2020 19:40:11	120220	12022020	194011	237.25	12.396147	-56.762048	237.44	0.030	0.640	1.360	237.23	-0.70	1.80	 	 	 	 	 	 	 	 	 	 	 	 	 	 	 	 	 	 	1581536411	9.28	17.19
12/02/2020 19:40:12	120220	12022020	194012	237.26	12.396123	-56.762085	237.47	0.160	0.360	0.780	237.27	-1.00	1.20	 	 	 	 	 	 	 	 	 	 	 	 	 	 	 	 	 	 	1581536412	9.36	17.33
12/02/2020 19:40:13	120220	12022020	194013	237.30	12.396098	-56.762125	237.50	0.320	-0.350	0.460	237.30	-1.70	0.90	 	 	 	 	 	 	 	 	 	 	 	 	 	 	 	 	 	 	1581536413	9.66	17.89
12/02/2020 19:40:14	120220	12022020	194014	237.31	12.396077	-56.762165	237.51	0.490	-1.040	0.420	237.32	-2.40	0.90	 	 	 	 	 	 	 	 	 	 	 	 	 	 	 	 	 	 	1581536414	9.80	18.15
12/02/2020 19:40:15	120220	12022020	194015	237.39	12.396055	-56.762203	237.60	0.610	-1.230	0.500	237.42	-2.60	0.90	 	 	 	 	 	 	 	 	 	 	 	 	 	 	 	 	 	 	1581536415	9.49	17.58
12/02/2020 19:40:16	120220	12022020	194016	237.53	12.396033	-56.762242	237.75	0.620	-0.940	0.590	237.55	-2.30	1.00	 	 	 	 	 	 	 	 	 	 	 	 	 	 	 	 	 	 	1581536416	9.02	16.71
12/02/2020 19:40:17	120220	12022020	194017	237.62	12.396013	-56.762278	237.84	0.420	-0.680	0.740	237.62	-2.10	1.20	 	 	 	 	 	 	 	 	 	 	 	 	 	 	 	 	 	 	1581536417	9.02	16.71
12/02/2020 19:40:18	120220	12022020	194018	237.62	12.395992	-56.762317	237.83	0.040	-0.710	1.030	237.61	-2.10	1.40	 	 	 	 	 	 	 	 	 	 	 	 	 	 	 	 	 	 	1581536418	9.55	17.69
12/02/2020 19:40:19	120220	12022020	194019	237.53	12.395970	-56.762360	237.66	-0.370	-0.730	1.440	237.49	-2.10	1.90	 	 	 	 	 	 	 	 	 	 	 	 	 	 	 	 	 	 	1581536419	9.96	18.45
12/02/2020 19:40:20	120220	12022020	194020	237.26	12.395950	-56.762402	237.43	-0.630	-0.430	1.770	237.21	-1.80	2.20	 	 	 	 	 	 	 	 	 	 	 	 	 	 	 	 	 	 	1581536420	9.93	18.39
12/02/2020 19:40:21	120220	12022020	194021	237.08	12.395928	-56.762442	237.22	-0.720	0.080	1.810	237.04	-1.30	2.30	 	 	 	 	 	 	 	 	 	 	 	 	 	 	 	 	 	 	1581536421	9.67	17.91
12/02/2020 19:40:22	120220	12022020	194022	236.99	12.395907	-56.762482	237.21	-0.650	0.450	1.440	237.00	-0.90	1.90	 	 	 	 	 	 	 	 	 	 	 	 	 	 	 	 	 	 	1581536422	9.56	17.71
12/02/2020 19:40:23	120220	12022020	194023	237.11	12.395883	-56.762520	237.34	-0.480	0.420	0.920	237.15	-0.90	1.40	 	 	 	 	 	 	 	 	 	 	 	 	 	 	 	 	 	 	1581536423	9.71	17.98
12/02/2020 19:40:24	120220	12022020	194024	237.30	12.395857	-56.762558	237.54	-0.220	0.090	0.530	237.33	-1.30	1.00	 	 	 	 	 	 	 	 	 	 	 	 	 	 	 	 	 	 	1581536424	9.91	18.35
12/02/2020 19:40:25	120220	12022020	194025	237.44	12.395832	-56.762598	237.66	0.070	-0.280	0.410	237.47	-1.60	0.90	 	 	 	 	 	 	 	 	 	 	 	 	 	 	 	 	 	 	1581536425	9.91	18.35
12/02/2020 19:40:26	120220	12022020	194026	237.54	12.395810	-56.762638	237.76	0.300	-0.450	0.470	237.57	-1.80	0.90	 	 	 	 	 	 	 	 	 	 	 	 	 	 	 	 	 	 	1581536426	9.70	17.96
12/02/2020 19:40:27	120220	12022020	194027	237.69	12.395788	-56.762677	237.89	0.390	-0.390	0.560	237.72	-1.80	1.00	 	 	 	 	 	 	 	 	 	 	 	 	 	 	 	 	 	 	1581536427	9.39	17.39
12/02/2020 19:40:28	120220	12022020	194028	237.85	12.395767	-56.762715	238.05	0.370	-0.280	0.690	237.88	-1.70	1.10	 	 	 	 	 	 	 	 	 	 	 	 	 	 	 	 	 	 	1581536428	9.23	17.09
12/02/2020 19:40:29	120220	12022020	194029	237.90	12.395747	-56.762753	238.05	0.300	-0.290	0.980	237.88	-1.70	1.40	 	 	 	 	 	 	 	 	 	 	 	 	 	 	 	 	 	 	1581536429	9.37	17.35
12/02/2020 19:40:30	120220	12022020	194030	237.72	12.395727	-56.762795	237.85	0.230	-0.390	1.390	237.67	-1.80	1.80	 	 	 	 	 	 	 	 	 	 	 	 	 	 	 	 	 	 	1581536430	9.60	17.78
12/02/2020 19:40:31	120220	12022020	194031	237.49	12.395705	-56.762835	237.60	0.110	-0.440	1.650	237.44	-1.80	2.10	 	 	 	 	 	 	 	 	 	 	 	 	 	 	 	 	 	 	1581536431	9.70	17.96
12/02/2020 19:40:32	120220	12022020	194032	237.28	12.395685	-56.762875	237.47	-0.020	-0.300	1.590	237.27	-1.70	2.00	 	 	 	 	 	 	 	 	 	 	 	 	 	 	 	 	 	 	1581536432	9.55	17.69
12/02/2020 19:40:33	120220	12022020	194033	237.30	12.395663	-56.762913	237.56	-0.040	-0.090	1.250	237.33	-1.50	1.70	 	 	 	 	 	 	 	 	 	 	 	 	 	 	 	 	 	 	1581536433	9.37	17.35
12/02/2020 19:40:34	120220	12022020	194034	237.57	12.395640	-56.762952	237.83	0.080	-0.030	0.800	237.64	-1.40	1.20	 	 	 	 	 	 	 	 	 	 	 	 	 	 	 	 	 	 	1581536434	9.39	17.39
12/02/2020 19:40:35	120220	12022020	194035	237.97	12.395617	-56.762990	238.22	0.210	-0.240	0.410	238.04	-1.60	0.90	 	 	 	 	 	 	 	 	 	 	 	 	 	 	 	 	 	 	1581536435	9.61	17.80
12/02/2020 19:40:36	120220	12022020	194036	238.34	12.395592	-56.763030	238.57	0.190	-0.670	0.320	238.39	-2.00	0.70	 	 	 	 	 	 	 	 	 	 	 	 	 	 	 	 	 	 	1581536436	9.84	18.22
12/02/2020 19:40:37	120220	12022020	194037	238.53	12.395570	-56.763070	238.73	-0.040	-1.120	0.600	238.54	-2.50	1.00	 	 	 	 	 	 	 	 	 	 	 	 	 	 	 	 	 	 	1581536437	10.03	18.58
12/02/2020 19:40:38	120220	12022020	194038	238.49	12.395547	-56.763112	238.65	-0.370	-1.230	1.010	238.45	-2.60	1.40	 	 	 	 	 	 	 	 	 	 	 	 	 	 	 	 	 	 	1581536438	9.97	18.46
12/02/2020 19:40:39	120220	12022020	194039	238.26	12.395527	-56.763153	238.40	-0.630	-0.850	1.400	238.21	-2.20	1.80	 	 	 	 	 	 	 	 	 	 	 	 	 	 	 	 	 	 	1581536439	9.72	18.00
12/02/2020 19:40:40	120220	12022020	194040	238.06	12.395507	-56.763193	238.21	-0.700	-0.180	1.550	238.04	-1.60	2.00	 	 	 	 	 	 	 	 	 	 	 	 	 	 	 	 	 	 	1581536440	9.50	17.59
12/02/2020 19:40:41	120220	12022020	194041	238.00	12.395487	-56.763233	238.18	-0.530	0.410	1.360	238.01	-1.00	1.80	 	 	 	 	 	 	 	 	 	 	 	 	 	 	 	 	 	 	1581536441	9.47	17.54
12/02/2020 19:40:42	120220	12022020	194042	238.07	12.395465	-56.763273	238.26	-0.140	0.650	1.060	238.10	-0.70	1.50	 	 	 	 	 	 	 	 	 	 	 	 	 	 	 	 	 	 	1581536442	9.69	17.95
12/02/2020 19:40:43	120220	12022020	194043	238.28	12.395443	-56.763313	238.48	0.330	0.590	0.690	238.33	-0.80	1.10	 	 	 	 	 	 	 	 	 	 	 	 	 	 	 	 	 	 	1581536443	9.86	18.26
12/02/2020 19:40:44	120220	12022020	194044	238.55	12.395418	-56.763353	238.75	0.630	0.370	0.430	238.60	-1.00	0.90	 	 	 	 	 	 	 	 	 	 	 	 	 	 	 	 	 	 	1581536444	9.83	18.21
12/02/2020 19:40:45	120220	12022020	194045	238.73	12.395395	-56.763393	238.89	0.640	0.020	0.510	238.75	-1.30	0.90	 	 	 	 	 	 	 	 	 	 	 	 	 	 	 	 	 	 	1581536445	9.71	17.98
12/02/2020 19:40:46	120220	12022020	194046	238.71	12.395373	-56.763433	238.84	0.410	-0.380	0.730	238.69	-1.70	1.10	 	 	 	 	 	 	 	 	 	 	 	 	 	 	 	 	 	 	1581536446	9.65	17.87
12/02/2020 19:40:47	120220	12022020	194047	238.59	12.395353	-56.763473	238.72	0.180	-0.640	0.910	238.58	-2.00	1.30	 	 	 	 	 	 	 	 	 	 	 	 	 	 	 	 	 	 	1581536447	9.56	17.71
12/02/2020 19:40:48	120220	12022020	194048	238.48	12.395333	-56.763512	238.60	0.110	-0.720	0.950	238.46	-2.10	1.40	 	 	 	 	 	 	 	 	 	 	 	 	 	 	 	 	 	 	1581536448	9.39	17.39
12/02/2020 19:40:49	120220	12022020	194049	238.41	12.395312	-56.763552	238.55	0.110	-0.840	0.910	238.41	-2.20	1.30	 	 	 	 	 	 	 	 	 	 	 	 	 	 	 	 	 	 	1581536449	9.47	17.54
12/02/2020 19:40:50	120220	12022020	194050	238.43	12.395290	-56.763592	238.56	0.030	-0.970	0.850	238.44	-2.30	1.30	 	 	 	 	 	 	 	 	 	 	 	 	 	 	 	 	 	 	1581536450	9.71	17.98
12/02/2020 19:40:51	120220	12022020	194051	238.49	12.395270	-56.763633	238.62	-0.190	-0.900	0.750	238.50	-2.30	1.20	 	 	 	 	 	 	 	 	 	 	 	 	 	 	 	 	 	 	1581536451	9.76	18.08
12/02/2020 19:40:52	120220	12022020	194052	238.56	12.395250	-56.763673	238.68	-0.400	-0.640	0.660	238.58	-2.00	1.10	 	 	 	 	 	 	 	 	 	 	 	 	 	 	 	 	 	 	1581536452	9.67	17.91
12/02/2020 19:40:53	120220	12022020	194053	238.64	12.395228	-56.763715	238.74	-0.430	-0.300	0.560	238.64	-1.70	1.00	 	 	 	 	 	 	 	 	 	 	 	 	 	 	 	 	 	 	1581536453	9.65	17.87
12/02/2020 19:40:54	120220	12022020	194054	238.68	12.395205	-56.763755	238.79	-0.250	-0.080	0.520	238.69	-1.50	0.90	 	 	 	 	 	 	 	 	 	 	 	 	 	 	 	 	 	 	1581536454	9.75	18.06
12/02/2020 19:40:55	120220	12022020	194055	238.70	12.395182	-56.763795	238.83	-0.010	-0.080	0.580	238.70	-1.40	1.00	 	 	 	 	 	 	 	 	 	 	 	 	 	 	 	 	 	 	1581536455	10.00	18.52
12/02/2020 19:40:56	120220	12022020	194056	238.74	12.395158	-56.763837	238.86	0.110	-0.040	0.690	238.75	-1.40	1.10	 	 	 	 	 	 	 	 	 	 	 	 	 	 	 	 	 	 	1581536456	10.04	18.59
12/02/2020 19:40:57	120220	12022020	194057	238.75	12.395137	-56.763877	238.84	0.060	0.080	0.840	238.74	-1.30	1.30	 	 	 	 	 	 	 	 	 	 	 	 	 	 	 	 	 	 	1581536457	9.77	18.09
12/02/2020 19:40:58	120220	12022020	194058	238.61	12.395117	-56.763918	238.68	-0.020	0.030	1.090	238.57	-1.30	1.50	 	 	 	 	 	 	 	 	 	 	 	 	 	 	 	 	 	 	1581536458	9.74	18.04
12/02/2020 19:40:59	120220	12022020	194059	238.37	12.395097	-56.763960	238.43	0.030	-0.220	1.340	238.32	-1.60	1.70	 	 	 	 	 	 	 	 	 	 	 	 	 	 	 	 	 	 	1581536459	9.98	18.48
12/02/2020 19:41:00	120220	12022020	194100	238.19	12.395077	-56.764003	238.29	0.150	-0.330	1.390	238.18	-1.70	1.80	 	 	 	 	 	 	 	 	 	 	 	 	 	 	 	 	 	 	1581536460	10.02	18.56
12/02/2020 19:41:01	120220	12022020	194101	238.32	12.395055	-56.764043	238.49	0.150	-0.090	1.210	238.38	-1.50	1.60	 	 	 	 	 	 	 	 	 	 	 	 	 	 	 	 	 	 	1581536461	9.61	17.80
12/02/2020 19:41:02	120220	12022020	194102	238.67	12.395033	-56.764082	238.85	-0.020	0.220	1.080	238.74	-1.20	1.50	1014.60	26.50	26.60	21.00	21.10	493.0	71.0	71.0	397.0	28.4	230.00	5.60	85.00	9.60	32763	8322.0	27.5	27.5	1581536462	9.31	17.24
12/02/2020 19:41:03	120220	12022020	194103	238.93	12.395013	-56.764120	239.05	-0.160	0.350	1.120	238.94	-1.00	1.50	 	 	 	 	 	 	 	 	 	 	 	 	 	 	 	 	 	 	1581536463	9.29	17.21
12/02/2020 19:41:04	120220	12022020	194104	238.93	12.394993	-56.764160	239.04	-0.080	0.120	1.220	238.92	-1.20	1.60	 	 	 	 	 	 	 	 	 	 	 	 	 	 	 	 	 	 	1581536464	9.51	17.61
12/02/2020 19:41:05	120220	12022020	194105	238.84	12.394972	-56.764202	238.94	0.190	-0.410	1.120	238.83	-1.80	1.60	 	 	 	 	 	 	 	 	 	 	 	 	 	 	 	 	 	 	1581536465	9.74	18.04
12/02/2020 19:41:06	120220	12022020	194106	238.78	12.394948	-56.764242	238.90	0.470	-1.070	0.760	238.77	-2.40	1.20	 	 	 	 	 	 	 	 	 	 	 	 	 	 	 	 	 	 	1581536466	9.86	18.26
12/02/2020 19:41:07	120220	12022020	194107	238.73	12.394923	-56.764282	238.85	0.550	-1.660	0.370	238.73	-3.00	0.80	 	 	 	 	 	 	 	 	 	 	 	 	 	 	 	 	 	 	1581536467	9.92	18.37
12/02/2020 19:41:08	120220	12022020	194108	238.77	12.394900	-56.764322	238.92	0.380	-1.920	0.150	238.79	-3.30	0.60	 	 	 	 	 	 	 	 	 	 	 	 	 	 	 	 	 	 	1581536468	9.95	18.43
12/02/2020 19:41:09	120220	12022020	194109	238.90	12.394878	-56.764362	239.11	0.050	-1.540	0.160	238.94	-2.90	0.60	 	 	 	 	 	 	 	 	 	 	 	 	 	 	 	 	 	 	1581536469	9.79	18.13
12/02/2020 19:41:10	120220	12022020	194110	239.12	12.394857	-56.764402	239.25	-0.270	-0.570	0.490	239.12	-2.00	0.90	 	 	 	 	 	 	 	 	 	 	 	 	 	 	 	 	 	 	1581536470	9.46	17.52
12/02/2020 19:41:11	120220	12022020	194111	238.99	12.394837	-56.764442	239.06	-0.470	0.360	1.130	238.93	-1.10	1.50	 	 	 	 	 	 	 	 	 	 	 	 	 	 	 	 	 	 	1581536471	9.50	17.59
12/02/2020 19:41:12	120220	12022020	194112	238.66	12.394818	-56.764485	238.76	-0.570	0.860	1.750	238.61	-0.50	2.10	 	 	 	 	 	 	 	 	 	 	 	 	 	 	 	 	 	 	1581536472	10.01	18.54
12/02/2020 19:41:13	120220	12022020	194113	238.45	12.394798	-56.764528	238.58	-0.600	1.070	2.030	238.44	-0.30	2.40	 	 	 	 	 	 	 	 	 	 	 	 	 	 	 	 	 	 	1581536473	10.29	19.06
12/02/2020 19:41:14	120220	12022020	194114	238.42	12.394778	-56.764572	238.56	-0.510	1.150	1.950	238.42	-0.20	2.40	 	 	 	 	 	 	 	 	 	 	 	 	 	 	 	 	 	 	1581536474	10.10	18.71
12/02/2020 19:41:15	120220	12022020	194115	238.51	12.394757	-56.764613	238.68	-0.280	0.980	1.460	238.55	-0.40	1.90	 	 	 	 	 	 	 	 	 	 	 	 	 	 	 	 	 	 	1581536475	9.82	18.19
12/02/2020 19:41:16	120220	12022020	194116	238.79	12.394733	-56.764652	238.98	0.080	0.490	0.560	238.87	-0.90	1.00	 	 	 	 	 	 	 	 	 	 	 	 	 	 	 	 	 	 	1581536476	9.65	17.87
12/02/2020 19:41:17	120220	12022020	194117	239.15	12.394708	-56.764690	239.31	0.470	-0.240	-0.400	239.21	-1.60	0.10	 	 	 	 	 	 	 	 	 	 	 	 	 	 	 	 	 	 	1581536477	9.60	17.78
12/02/2020 19:41:18	120220	12022020	194118	239.45	12.394683	-56.764727	239.59	0.750	-1.010	-0.910	239.49	-2.40	-0.50	 	 	 	 	 	 	 	 	 	 	 	 	 	 	 	 	 	 	1581536478	9.53	17.65
12/02/2020 19:41:19	120220	12022020	194119	239.62	12.394660	-56.764763	239.73	0.820	-1.680	-0.730	239.63	-3.00	-0.30	 	 	 	 	 	 	 	 	 	 	 	 	 	 	 	 	 	 	1581536479	9.42	17.45
12/02/2020 19:41:20	120220	12022020	194120	239.62	12.394638	-56.764803	239.73	0.680	-2.120	-0.030	239.60	-3.50	0.40	 	 	 	 	 	 	 	 	 	 	 	 	 	 	 	 	 	 	1581536480	9.55	17.69
12/02/2020 19:41:21	120220	12022020	194121	239.56	12.394622	-56.764847	239.67	0.340	-2.050	0.870	239.54	-3.40	1.30	 	 	 	 	 	 	 	 	 	 	 	 	 	 	 	 	 	 	1581536481	9.66	17.89
12/02/2020 19:41:22	120220	12022020	194122	239.42	12.394605	-56.764888	239.54	-0.120	-1.380	1.660	239.39	-2.80	2.00	 	 	 	 	 	 	 	 	 	 	 	 	 	 	 	 	 	 	1581536482	9.59	17.76
12/02/2020 19:41:23	120220	12022020	194123	239.21	12.394588	-56.764930	239.30	-0.540	-0.450	2.170	239.15	-1.90	2.60	 	 	 	 	 	 	 	 	 	 	 	 	 	 	 	 	 	 	1581536483	9.57	17.72
12/02/2020 19:41:24	120220	12022020	194124	238.88	12.394570	-56.764973	238.97	-0.780	0.300	2.300	238.81	-1.10	2.70	 	 	 	 	 	 	 	 	 	 	 	 	 	 	 	 	 	 	1581536484	9.83	18.21
12/02/2020 19:41:25	120220	12022020	194125	238.55	12.394548	-56.765015	238.66	-0.750	0.740	1.990	238.51	-0.70	2.40	 	 	 	 	 	 	 	 	 	 	 	 	 	 	 	 	 	 	1581536485	10.20	18.89
12/02/2020 19:41:26	120220	12022020	194126	238.46	12.394523	-56.765058	238.63	-0.560	1.040	1.330	238.49	-0.40	1.80	 	 	 	 	 	 	 	 	 	 	 	 	 	 	 	 	 	 	1581536486	10.26	19.00
12/02/2020 19:41:27	120220	12022020	194127	238.69	12.394498	-56.765097	238.90	-0.370	1.280	0.600	238.76	-0.10	1.10	 	 	 	 	 	 	 	 	 	 	 	 	 	 	 	 	 	 	1581536487	9.92	18.37
12/02/2020 19:41:28	120220	12022020	194128	239.12	12.394475	-56.765135	239.35	-0.210	1.200	0.110	239.22	-0.20	0.50	 	 	 	 	 	 	 	 	 	 	 	 	 	 	 	 	 	 	1581536488	9.59	17.76
12/02/2020 19:41:29	120220	12022020	194129	239.60	12.394452	-56.765173	239.82	0.040	0.700	0.070	239.70	-0.70	0.50	 	 	 	 	 	 	 	 	 	 	 	 	 	 	 	 	 	 	1581536489	9.48	17.56
12/02/2020 19:41:30	120220	12022020	194130	239.98	12.394433	-56.765215	240.17	0.420	-0.180	0.460	240.03	-1.50	0.90	 	 	 	 	 	 	 	 	 	 	 	 	 	 	 	 	 	 	1581536490	9.53	17.65
12/02/2020 19:41:31	120220	12022020	194131	240.06	12.394415	-56.765257	240.19	0.800	-1.180	1.110	240.04	-2.50	1.50	 	 	 	 	 	 	 	 	 	 	 	 	 	 	 	 	 	 	1581536491	9.66	17.89
12/02/2020 19:41:32	120220	12022020	194132	239.81	12.394397	-56.765298	239.90	0.970	-1.940	1.750	239.73	-3.30	2.10	 	 	 	 	 	 	 	 	 	 	 	 	 	 	 	 	 	 	1581536492	9.67	17.91
12/02/2020 19:41:33	120220	12022020	194133	239.38	12.394378	-56.765340	239.46	0.810	-2.140	2.170	239.29	-3.50	2.60	 	 	 	 	 	 	 	 	 	 	 	 	 	 	 	 	 	 	1581536493	9.50	17.59
12/02/2020 19:41:34	120220	12022020	194134	238.96	12.394360	-56.765378	239.05	0.340	-1.760	2.210	238.89	-3.20	2.60	 	 	 	 	 	 	 	 	 	 	 	 	 	 	 	 	 	 	1581536494	9.30	17.22
12/02/2020 19:41:35	120220	12022020	194135	238.75	12.394338	-56.765417	238.89	-0.200	-1.010	1.850	238.75	-2.40	2.30	 	 	 	 	 	 	 	 	 	 	 	 	 	 	 	 	 	 	1581536495	9.26	17.15
12/02/2020 19:41:36	120220	12022020	194136	238.86	12.394318	-56.765457	239.04	-0.580	-0.170	1.210	238.92	-1.60	1.70	 	 	 	 	 	 	 	 	 	 	 	 	 	 	 	 	 	 	1581536496	9.39	17.39
12/02/2020 19:41:37	120220	12022020	194137	239.27	12.394295	-56.765495	239.49	-0.650	0.530	0.440	239.38	-0.90	0.90	 	 	 	 	 	 	 	 	 	 	 	 	 	 	 	 	 	 	1581536497	9.62	17.82
12/02/2020 19:41:38	120220	12022020	194138	239.81	12.394270	-56.765535	240.01	-0.500	0.900	0.020	239.91	-0.50	0.40	 	 	 	 	 	 	 	 	 	 	 	 	 	 	 	 	 	 	1581536498	9.84	18.22
12/02/2020 19:41:39	120220	12022020	194139	240.21	12.394248	-56.765577	240.37	-0.340	0.900	0.260	240.25	-0.50	0.70	 	 	 	 	 	 	 	 	 	 	 	 	 	 	 	 	 	 	1581536499	10.03	18.58
12/02/2020 19:41:40	120220	12022020	194140	240.27	12.394230	-56.765620	240.35	-0.240	0.670	0.920	240.23	-0.70	1.30	 	 	 	 	 	 	 	 	 	 	 	 	 	 	 	 	 	 	1581536500	10.04	18.59
12/02/2020 19:41:41	120220	12022020	194141	239.92	12.394212	-56.765663	239.95	-0.150	0.320	1.630	239.81	-1.10	2.00	 	 	 	 	 	 	 	 	 	 	 	 	 	 	 	 	 	 	1581536501	9.84	18.22
12/02/2020 19:41:42	120220	12022020	194142	239.37	12.394195	-56.765705	239.41	0.030	-0.100	2.030	239.27	-1.50	2.40	 	 	 	 	 	 	 	 	 	 	 	 	 	 	 	 	 	 	1581536502	9.67	17.91
12/02/2020 19:41:43	120220	12022020	194143	238.95	12.394175	-56.765745	239.03	0.310	-0.470	1.830	238.90	-1.80	2.30	 	 	 	 	 	 	 	 	 	 	 	 	 	 	 	 	 	 	1581536503	9.41	17.43
12/02/2020 19:41:44	120220	12022020	194144	238.74	12.394153	-56.765783	238.83	0.570	-0.840	1.220	238.71	-2.20	1.70	 	 	 	 	 	 	 	 	 	 	 	 	 	 	 	 	 	 	1581536504	9.26	17.15
12/02/2020 19:41:45	120220	12022020	194145	238.68	12.394130	-56.765820	238.81	0.690	-1.080	0.520	238.70	-2.50	1.00	 	 	 	 	 	 	 	 	 	 	 	 	 	 	 	 	 	 	1581536505	9.29	17.21
12/02/2020 19:41:46	120220	12022020	194146	238.86	12.394107	-56.765857	239.02	0.570	-1.090	-0.090	238.93	-2.50	0.40	 	 	 	 	 	 	 	 	 	 	 	 	 	 	 	 	 	 	1581536506	9.25	17.13
12/02/2020 19:41:47	120220	12022020	194147	239.13	12.394083	-56.765893	239.33	0.260	-0.920	-0.280	239.18	-2.30	0.10	 	 	 	 	 	 	 	 	 	 	 	 	 	 	 	 	 	 	1581536507	9.28	17.19
12/02/2020 19:41:48	120220	12022020	194148	239.38	12.394062	-56.765932	239.48	-0.100	-0.640	0.070	239.39	-2.00	0.50	 	 	 	 	 	 	 	 	 	 	 	 	 	 	 	 	 	 	1581536508	9.40	17.41
12/02/2020 19:41:49	120220	12022020	194149	239.31	12.394042	-56.765973	239.38	-0.340	-0.340	0.800	239.26	-1.70	1.20	 	 	 	 	 	 	 	 	 	 	 	 	 	 	 	 	 	 	1581536509	9.58	17.74
12/02/2020 19:41:50	120220	12022020	194150	239.04	12.394025	-56.766017	239.10	-0.450	-0.120	1.710	238.98	-1.50	2.10	 	 	 	 	 	 	 	 	 	 	 	 	 	 	 	 	 	 	1581536510	9.82	18.19
12/02/2020 19:41:51	120220	12022020	194151	238.69	12.394008	-56.766060	238.75	-0.500	-0.000	2.360	238.62	-1.40	2.80	 	 	 	 	 	 	 	 	 	 	 	 	 	 	 	 	 	 	1581536511	10.00	18.52
12/02/2020 19:41:52	120220	12022020	194152	238.32	12.393992	-56.766103	238.38	-0.500	0.120	2.370	238.25	-1.30	2.80	 	 	 	 	 	 	 	 	 	 	 	 	 	 	 	 	 	 	1581536512	9.86	18.26
12/02/2020 19:41:53	120220	12022020	194153	238.00	12.393970	-56.766143	238.08	-0.350	0.220	1.890	237.95	-1.20	2.30	 	 	 	 	 	 	 	 	 	 	 	 	 	 	 	 	 	 	1581536513	9.63	17.83
12/02/2020 19:41:54	120220	12022020	194154	237.89	12.393947	-56.766182	238.01	-0.040	0.220	1.130	237.89	-1.20	1.60	 	 	 	 	 	 	 	 	 	 	 	 	 	 	 	 	 	 	1581536514	9.49	17.58
12/02/2020 19:41:55	120220	12022020	194155	237.97	12.393922	-56.766218	238.13	0.320	0.080	0.520	238.00	-1.30	1.00	 	 	 	 	 	 	 	 	 	 	 	 	 	 	 	 	 	 	1581536515	9.46	17.52
12/02/2020 19:41:56	120220	12022020	194156	238.17	12.393897	-56.766255	238.34	0.550	-0.120	0.240	238.22	-1.50	0.70	 	 	 	 	 	 	 	 	 	 	 	 	 	 	 	 	 	 	1581536516	9.44	17.48
12/02/2020 19:41:57	120220	12022020	194157	238.47	12.393875	-56.766293	238.64	0.510	-0.200	0.220	238.53	-1.60	0.60	 	 	 	 	 	 	 	 	 	 	 	 	 	 	 	 	 	 	1581536517	9.28	17.19
12/02/2020 19:41:58	120220	12022020	194158	238.79	12.393855	-56.766332	238.97	0.300	-0.250	0.470	238.86	-1.60	0.90	 	 	 	 	 	 	 	 	 	 	 	 	 	 	 	 	 	 	1581536518	9.13	16.91
12/02/2020 19:41:59	120220	12022020	194159	239.01	12.393837	-56.766372	239.21	0.100	-0.440	0.790	239.05	-1.80	1.20	 	 	 	 	 	 	 	 	 	 	 	 	 	 	 	 	 	 	1581536519	9.28	17.19
12/02/2020 19:42:00	120220	12022020	194200	239.25	12.393818	-56.766412	239.40	0.000	-0.610	0.910	239.28	-2.00	1.30	 	 	 	 	 	 	 	 	 	 	 	 	 	 	 	 	 	 	1581536520	9.45	17.50
12/02/2020 19:42:01	120220	12022020	194201	239.36	12.393798	-56.766450	239.48	-0.000	-0.660	0.860	239.36	-2.10	1.30	 	 	 	 	 	 	 	 	 	 	 	 	 	 	 	 	 	 	1581536521	9.36	17.33
12/02/2020 19:42:02	120220	12022020	194202	239.27	12.393777	-56.766488	239.35	0.020	-0.830	0.780	239.22	-2.20	1.20	1014.60	26.30	26.40	20.60	20.70	490.0	70.0	70.0	396.0	28.5	223.00	6.40	84.00	10.60	32623	9032.0	27.6	27.5	1581536522	9.42	17.45
12/02/2020 19:42:03	120220	12022020	194203	238.95	12.393752	-56.766528	238.99	-0.020	-1.160	0.750	238.87	-2.50	1.20	 	 	 	 	 	 	 	 	 	 	 	 	 	 	 	 	 	 	1581536523	9.79	18.13
12/02/2020 19:42:04	120220	12022020	194204	238.50	12.393728	-56.766570	238.53	-0.110	-1.330	0.890	238.41	-2.70	1.30	 	 	 	 	 	 	 	 	 	 	 	 	 	 	 	 	 	 	1581536524	10.00	18.52
12/02/2020 19:42:05	120220	12022020	194205	238.11	12.393707	-56.766610	238.19	-0.210	-0.980	1.090	238.06	-2.40	1.50	 	 	 	 	 	 	 	 	 	 	 	 	 	 	 	 	 	 	1581536525	9.86	18.26
12/02/2020 19:42:06	120220	12022020	194206	237.99	12.393687	-56.766650	238.15	-0.340	-0.020	1.180	238.00	-1.50	1.60	 	 	 	 	 	 	 	 	 	 	 	 	 	 	 	 	 	 	1581536526	9.40	17.41
12/02/2020 19:42:07	120220	12022020	194207	238.16	12.393670	-56.766688	238.35	-0.470	1.070	1.180	238.21	-0.40	1.60	 	 	 	 	 	 	 	 	 	 	 	 	 	 	 	 	 	 	1581536527	9.01	16.69
12/02/2020 19:42:08	120220	12022020	194208	238.51	12.393652	-56.766727	238.76	-0.470	1.720	1.070	238.61	0.30	1.50	 	 	 	 	 	 	 	 	 	 	 	 	 	 	 	 	 	 	1581536528	9.03	16.72
12/02/2020 19:42:09	120220	12022020	194209	238.99	12.393632	-56.766767	239.24	-0.220	1.520	0.830	239.09	0.10	1.30	 	 	 	 	 	 	 	 	 	 	 	 	 	 	 	 	 	 	1581536529	9.37	17.35
12/02/2020 19:42:10	120220	12022020	194210	239.43	12.393608	-56.766808	239.65	0.210	0.490	0.620	239.49	-0.90	1.00	 	 	 	 	 	 	 	 	 	 	 	 	 	 	 	 	 	 	1581536530	9.87	18.28
12/02/2020 19:42:11	120220	12022020	194211	239.62	12.393587	-56.766850	239.78	0.610	-0.880	0.610	239.64	-2.20	1.00	 	 	 	 	 	 	 	 	 	 	 	 	 	 	 	 	 	 	1581536531	10.18	18.85
12/02/2020 19:42:12	120220	12022020	194212	239.54	12.393565	-56.766892	239.64	0.770	-1.870	0.740	239.50	-3.20	1.10	 	 	 	 	 	 	 	 	 	 	 	 	 	 	 	 	 	 	1581536532	10.01	18.54
12/02/2020 19:42:13	120220	12022020	194213	239.29	12.393543	-56.766932	239.38	0.600	-2.000	0.860	239.25	-3.40	1.30	 	 	 	 	 	 	 	 	 	 	 	 	 	 	 	 	 	 	1581536533	9.44	17.48
12/02/2020 19:42:14	120220	12022020	194214	239.10	12.393525	-56.766968	239.21	0.220	-1.410	0.850	239.08	-2.80	1.30	 	 	 	 	 	 	 	 	 	 	 	 	 	 	 	 	 	 	1581536534	8.87	16.43
12/02/2020 19:42:15	120220	12022020	194215	239.05	12.393505	-56.767005	239.17	-0.180	-0.640	0.760	239.06	-2.10	1.20	 	 	 	 	 	 	 	 	 	 	 	 	 	 	 	 	 	 	1581536535	8.77	16.24
12/02/2020 19:42:16	120220	12022020	194216	239.16	12.393483	-56.767042	239.28	-0.420	-0.120	0.670	239.19	-1.50	1.10	 	 	 	 	 	 	 	 	 	 	 	 	 	 	 	 	 	 	1581536536	9.14	16.93
12/02/2020 19:42:17	120220	12022020	194217	239.30	12.393460	-56.767082	239.43	-0.420	0.060	0.670	239.32	-1.30	1.10	 	 	 	 	 	 	 	 	 	 	 	 	 	 	 	 	 	 	1581536537	9.64	17.85
12/02/2020 19:42:18	120220	12022020	194218	239.38	12.393438	-56.767122	239.49	-0.280	0.120	0.780	239.39	-1.30	1.20	 	 	 	 	 	 	 	 	 	 	 	 	 	 	 	 	 	 	1581536538	9.94	18.41
12/02/2020 19:42:19	120220	12022020	194219	239.39	12.393417	-56.767163	239.51	-0.190	0.310	0.980	239.39	-1.10	1.40	 	 	 	 	 	 	 	 	 	 	 	 	 	 	 	 	 	 	1581536539	9.83	18.21
12/02/2020 19:42:20	120220	12022020	194220	239.32	12.393397	-56.767203	239.40	-0.180	0.470	1.250	239.28	-0.90	1.60	 	 	 	 	 	 	 	 	 	 	 	 	 	 	 	 	 	 	1581536540	9.59	17.76
12/02/2020 19:42:21	120220	12022020	194221	239.12	12.393378	-56.767245	239.21	-0.160	0.380	1.520	239.08	-1.00	1.90	 	 	 	 	 	 	 	 	 	 	 	 	 	 	 	 	 	 	1581536541	9.61	17.80
12/02/2020 19:42:22	120220	12022020	194222	238.94	12.393360	-56.767288	239.04	-0.080	0.040	1.550	238.92	-1.30	2.00	 	 	 	 	 	 	 	 	 	 	 	 	 	 	 	 	 	 	1581536542	9.74	18.04
12/02/2020 19:42:23	120220	12022020	194223	238.92	12.393340	-56.767328	239.05	0.040	-0.360	1.160	238.94	-1.70	1.60	 	 	 	 	 	 	 	 	 	 	 	 	 	 	 	 	 	 	1581536543	9.71	17.98
12/02/2020 19:42:24	120220	12022020	194224	239.05	12.393320	-56.767368	239.17	0.180	-0.670	0.500	239.08	-2.00	0.90	 	 	 	 	 	 	 	 	 	 	 	 	 	 	 	 	 	 	1581536544	9.51	17.61
12/02/2020 19:42:25	120220	12022020	194225	239.16	12.393297	-56.767407	239.27	0.320	-0.910	-0.060	239.17	-2.30	0.40	 	 	 	 	 	 	 	 	 	 	 	 	 	 	 	 	 	 	1581536545	9.42	17.45
12/02/2020 19:42:26	120220	12022020	194226	239.17	12.393273	-56.767445	239.26	0.430	-1.030	-0.240	239.17	-2.40	0.20	 	 	 	 	 	 	 	 	 	 	 	 	 	 	 	 	 	 	1581536546	9.44	17.48
12/02/2020 19:42:27	120220	12022020	194227	239.13	12.393250	-56.767483	239.22	0.410	-0.960	-0.120	239.11	-2.40	0.30	 	 	 	 	 	 	 	 	 	 	 	 	 	 	 	 	 	 	1581536547	9.48	17.56
12/02/2020 19:42:28	120220	12022020	194228	239.05	12.393228	-56.767522	239.14	0.200	-0.720	0.250	239.04	-2.10	0.60	 	 	 	 	 	 	 	 	 	 	 	 	 	 	 	 	 	 	1581536548	9.53	17.65
12/02/2020 19:42:29	120220	12022020	194229	239.03	12.393208	-56.767563	239.16	-0.190	-0.310	0.710	239.04	-1.70	1.10	 	 	 	 	 	 	 	 	 	 	 	 	 	 	 	 	 	 	1581536549	9.58	17.74
12/02/2020 19:42:30	120220	12022020	194230	239.10	12.393190	-56.767603	239.23	-0.550	0.300	1.140	239.12	-1.10	1.50	 	 	 	 	 	 	 	 	 	 	 	 	 	 	 	 	 	 	1581536550	9.45	17.50
12/02/2020 19:42:31	120220	12022020	194231	239.18	12.393173	-56.767643	239.30	-0.660	0.740	1.380	239.20	-0.70	1.80	 	 	 	 	 	 	 	 	 	 	 	 	 	 	 	 	 	 	1581536551	9.36	17.33
12/02/2020 19:42:32	120220	12022020	194232	239.26	12.393153	-56.767685	239.39	-0.430	0.680	1.410	239.28	-0.70	1.80	 	 	 	 	 	 	 	 	 	 	 	 	 	 	 	 	 	 	1581536552	9.63	17.83
12/02/2020 19:42:33	120220	12022020	194233	239.38	12.393132	-56.767727	239.51	-0.060	0.230	1.250	239.41	-1.10	1.70	 	 	 	 	 	 	 	 	 	 	 	 	 	 	 	 	 	 	1581536553	9.90	18.33
12/02/2020 19:42:34	120220	12022020	194234	239.53	12.393110	-56.767767	239.65	0.240	-0.310	0.970	239.55	-1.70	1.40	 	 	 	 	 	 	 	 	 	 	 	 	 	 	 	 	 	 	1581536554	9.87	18.28
12/02/2020 19:42:35	120220	12022020	194235	239.56	12.393088	-56.767807	239.64	0.400	-0.820	0.740	239.53	-2.20	1.20	 	 	 	 	 	 	 	 	 	 	 	 	 	 	 	 	 	 	1581536555	9.68	17.93
12/02/2020 19:42:36	120220	12022020	194236	239.25	12.393067	-56.767847	239.24	0.480	-1.300	0.840	239.14	-2.70	1.20	 	 	 	 	 	 	 	 	 	 	 	 	 	 	 	 	 	 	1581536556	9.69	17.95
12/02/2020 19:42:37	120220	12022020	194237	238.65	12.393045	-56.767888	238.63	0.370	-1.520	1.310	238.51	-2.90	1.70	 	 	 	 	 	 	 	 	 	 	 	 	 	 	 	 	 	 	1581536557	9.84	18.22
12/02/2020 19:42:38	120220	12022020	194238	238.09	12.393027	-56.767930	238.13	0.040	-1.180	1.820	238.01	-2.60	2.20	 	 	 	 	 	 	 	 	 	 	 	 	 	 	 	 	 	 	1581536558	9.70	17.96
12/02/2020 19:42:39	120220	12022020	194239	237.89	12.393010	-56.767972	238.04	-0.340	-0.330	1.990	237.91	-1.80	2.40	 	 	 	 	 	 	 	 	 	 	 	 	 	 	 	 	 	 	1581536559	9.40	17.41
12/02/2020 19:42:40	120220	12022020	194240	238.23	12.392993	-56.768012	238.46	-0.560	0.640	1.660	238.35	-0.80	2.10	 	 	 	 	 	 	 	 	 	 	 	 	 	 	 	 	 	 	1581536560	9.05	16.76
12/02/2020 19:42:41	120220	12022020	194241	238.96	12.392973	-56.768048	239.22	-0.500	1.140	0.980	239.14	-0.30	1.40	 	 	 	 	 	 	 	 	 	 	 	 	 	 	 	 	 	 	1581536561	9.14	16.93
12/02/2020 19:42:42	120220	12022020	194242	239.80	12.392950	-56.768087	240.04	-0.210	0.970	0.270	239.95	-0.40	0.70	 	 	 	 	 	 	 	 	 	 	 	 	 	 	 	 	 	 	1581536562	9.62	17.82
12/02/2020 19:42:43	120220	12022020	194243	240.44	12.392923	-56.768127	240.63	0.160	0.340	-0.090	240.53	-1.00	0.30	 	 	 	 	 	 	 	 	 	 	 	 	 	 	 	 	 	 	1581536563	9.95	18.43
12/02/2020 19:42:44	120220	12022020	194244	240.67	12.392900	-56.768167	240.77	0.460	-0.410	0.130	240.65	-1.80	0.50	 	 	 	 	 	 	 	 	 	 	 	 	 	 	 	 	 	 	1581536564	9.96	18.45
12/02/2020 19:42:45	120220	12022020	194245	240.39	12.392880	-56.768208	240.41	0.600	-0.990	0.870	240.28	-2.40	1.30	 	 	 	 	 	 	 	 	 	 	 	 	 	 	 	 	 	 	1581536565	9.78	18.11
12/02/2020 19:42:46	120220	12022020	194246	239.79	12.392862	-56.768250	239.80	0.540	-1.260	1.690	239.66	-2.60	2.10	 	 	 	 	 	 	 	 	 	 	 	 	 	 	 	 	 	 	1581536566	9.60	17.78
12/02/2020 19:42:47	120220	12022020	194247	239.21	12.392843	-56.768292	239.25	0.280	-1.260	2.070	239.11	-2.60	2.50	 	 	 	 	 	 	 	 	 	 	 	 	 	 	 	 	 	 	1581536567	9.50	17.59
12/02/2020 19:42:48	120220	12022020	194248	238.84	12.392825	-56.768332	238.92	-0.080	-1.090	1.870	238.80	-2.50	2.30	 	 	 	 	 	 	 	 	 	 	 	 	 	 	 	 	 	 	1581536568	9.49	17.58
12/02/2020 19:42:49	120220	12022020	194249	238.71	12.392807	-56.768373	238.77	-0.400	-0.840	1.420	238.69	-2.20	1.80	 	 	 	 	 	 	 	 	 	 	 	 	 	 	 	 	 	 	1581536569	9.53	17.65
12/02/2020 19:42:50	120220	12022020	194250	238.59	12.392785	-56.768413	238.67	-0.570	-0.600	1.050	238.56	-2.00	1.50	 	 	 	 	 	 	 	 	 	 	 	 	 	 	 	 	 	 	1581536570	9.73	18.02
12/02/2020 19:42:51	120220	12022020	194251	238.51	12.392763	-56.768455	238.59	-0.590	-0.200	0.820	238.50	-1.60	1.30	 	 	 	 	 	 	 	 	 	 	 	 	 	 	 	 	 	 	1581536571	9.83	18.21
12/02/2020 19:42:52	120220	12022020	194252	238.53	12.392742	-56.768495	238.66	-0.480	0.450	0.640	238.56	-1.00	1.10	 	 	 	 	 	 	 	 	 	 	 	 	 	 	 	 	 	 	1581536572	9.59	17.76
12/02/2020 19:42:53	120220	12022020	194253	238.77	12.392722	-56.768533	238.96	-0.210	1.030	0.500	238.84	-0.40	0.90	 	 	 	 	 	 	 	 	 	 	 	 	 	 	 	 	 	 	1581536573	9.33	17.28
12/02/2020 19:42:54	120220	12022020	194254	239.17	12.392700	-56.768572	239.38	0.140	1.100	0.450	239.26	-0.30	0.90	 	 	 	 	 	 	 	 	 	 	 	 	 	 	 	 	 	 	1581536574	9.42	17.45
12/02/2020 19:42:55	120220	12022020	194255	239.60	12.392677	-56.768612	239.80	0.400	0.590	0.460	239.68	-0.80	0.90	 	 	 	 	 	 	 	 	 	 	 	 	 	 	 	 	 	 	1581536575	9.73	18.02
12/02/2020 19:42:56	120220	12022020	194256	239.90	12.392655	-56.768653	240.05	0.450	-0.230	0.670	239.94	-1.60	1.10	 	 	 	 	 	 	 	 	 	 	 	 	 	 	 	 	 	 	1581536576	9.93	18.39
12/02/2020 19:42:57	120220	12022020	194257	239.97	12.392635	-56.768695	240.07	0.350	-1.000	1.060	239.96	-2.40	1.50	 	 	 	 	 	 	 	 	 	 	 	 	 	 	 	 	 	 	1581536577	9.88	18.30
12/02/2020 19:42:58	120220	12022020	194258	239.84	12.392617	-56.768737	239.90	0.260	-1.440	1.480	239.78	-2.80	1.90	 	 	 	 	 	 	 	 	 	 	 	 	 	 	 	 	 	 	1581536578	9.68	17.93
12/02/2020 19:42:59	120220	12022020	194259	239.48	12.392598	-56.768778	239.51	0.210	-1.530	1.810	239.38	-2.90	2.20	 	 	 	 	 	 	 	 	 	 	 	 	 	 	 	 	 	 	1581536579	9.49	17.58
12/02/2020 19:43:00	120220	12022020	194300	238.90	12.392580	-56.768818	238.90	0.160	-1.310	1.990	238.77	-2.70	2.40	 	 	 	 	 	 	 	 	 	 	 	 	 	 	 	 	 	 	1581536580	9.44	17.48
12/02/2020 19:43:01	120220	12022020	194301	238.25	12.392560	-56.768858	238.25	0.030	-0.870	1.930	238.12	-2.30	2.40	 	 	 	 	 	 	 	 	 	 	 	 	 	 	 	 	 	 	1581536581	9.48	17.56
12/02/2020 19:43:02	120220	12022020	194302	237.73	12.392538	-56.768898	237.79	-0.160	-0.280	1.720	237.67	-1.70	2.20	1014.50	26.30	26.40	20.40	20.50	488.0	69.0	70.0	396.0	28.6	219.00	5.90	80.00	10.20	32395	9171.0	27.5	27.5	1581536582	9.50	17.59
12/02/2020 19:43:03	120220	12022020	194303	237.56	12.392517	-56.768937	237.72	-0.350	0.280	1.450	237.58	-1.10	1.90	 	 	 	 	 	 	 	 	 	 	 	 	 	 	 	 	 	 	1581536583	9.53	17.65
12/02/2020 19:43:04	120220	12022020	194304	237.79	12.392495	-56.768977	238.00	-0.440	0.570	1.200	237.87	-0.80	1.60	 	 	 	 	 	 	 	 	 	 	 	 	 	 	 	 	 	 	1581536584	9.65	17.87
12/02/2020 19:43:05	120220	12022020	194305	238.32	12.392475	-56.769018	238.58	-0.370	0.560	0.920	238.45	-0.80	1.40	 	 	 	 	 	 	 	 	 	 	 	 	 	 	 	 	 	 	1581536585	9.83	18.21
12/02/2020 19:43:06	120220	12022020	194306	239.05	12.392453	-56.769060	239.32	-0.170	0.350	0.520	239.21	-1.00	1.00	 	 	 	 	 	 	 	 	 	 	 	 	 	 	 	 	 	 	1581536586	9.87	18.28
12/02/2020 19:43:07	120220	12022020	194307	239.78	12.392430	-56.769100	240.01	0.060	0.040	0.160	239.90	-1.30	0.60	 	 	 	 	 	 	 	 	 	 	 	 	 	 	 	 	 	 	1581536587	9.78	18.11
12/02/2020 19:43:08	120220	12022020	194308	240.23	12.392408	-56.769140	240.38	0.200	-0.370	0.140	240.27	-1.80	0.60	 	 	 	 	 	 	 	 	 	 	 	 	 	 	 	 	 	 	1581536588	9.70	17.96
12/02/2020 19:43:09	120220	12022020	194309	240.26	12.392385	-56.769180	240.34	0.240	-0.770	0.480	240.21	-2.20	0.90	 	 	 	 	 	 	 	 	 	 	 	 	 	 	 	 	 	 	1581536589	9.69	17.95
12/02/2020 19:43:10	120220	12022020	194310	239.89	12.392365	-56.769220	239.92	0.180	-0.970	1.000	239.77	-2.40	1.40	 	 	 	 	 	 	 	 	 	 	 	 	 	 	 	 	 	 	1581536590	9.63	17.83
12/02/2020 19:43:11	120220	12022020	194311	239.25	12.392345	-56.769260	239.27	0.070	-0.890	1.500	239.12	-2.30	1.90	 	 	 	 	 	 	 	 	 	 	 	 	 	 	 	 	 	 	1581536591	9.54	17.67
12/02/2020 19:43:12	120220	12022020	194312	238.66	12.392327	-56.769300	238.70	-0.030	-0.600	1.700	238.56	-2.00	2.10	 	 	 	 	 	 	 	 	 	 	 	 	 	 	 	 	 	 	1581536592	9.45	17.50
12/02/2020 19:43:13	120220	12022020	194313	238.28	12.392307	-56.769342	238.34	-0.050	-0.270	1.650	238.23	-1.70	2.10	 	 	 	 	 	 	 	 	 	 	 	 	 	 	 	 	 	 	1581536593	9.46	17.52
12/02/2020 19:43:14	120220	12022020	194314	238.08	12.392287	-56.769382	238.18	0.010	-0.040	1.480	238.06	-1.40	1.90	 	 	 	 	 	 	 	 	 	 	 	 	 	 	 	 	 	 	1581536594	9.55	17.69
12/02/2020 19:43:15	120220	12022020	194315	238.05	12.392267	-56.769422	238.19	0.030	0.020	1.240	238.06	-1.40	1.70	 	 	 	 	 	 	 	 	 	 	 	 	 	 	 	 	 	 	1581536595	9.68	17.93
12/02/2020 19:43:16	120220	12022020	194316	238.19	12.392245	-56.769463	238.36	-0.060	-0.070	1.000	238.23	-1.50	1.40	 	 	 	 	 	 	 	 	 	 	 	 	 	 	 	 	 	 	1581536596	9.80	18.15
12/02/2020 19:43:17	120220	12022020	194317	238.47	12.392225	-56.769503	238.66	-0.210	-0.150	0.830	238.53	-1.50	1.30	 	 	 	 	 	 	 	 	 	 	 	 	 	 	 	 	 	 	1581536597	9.78	18.11
12/02/2020 19:43:18	120220	12022020	194318	238.86	12.392205	-56.769545	239.05	-0.230	-0.140	0.600	238.94	-1.50	1.00	 	 	 	 	 	 	 	 	 	 	 	 	 	 	 	 	 	 	1581536598	9.62	17.82
12/02/2020 19:43:19	120220	12022020	194319	239.28	12.392183	-56.769583	239.46	-0.050	-0.020	0.280	239.36	-1.40	0.70	 	 	 	 	 	 	 	 	 	 	 	 	 	 	 	 	 	 	1581536599	9.41	17.43
12/02/2020 19:43:20	120220	12022020	194320	239.59	12.392160	-56.769622	239.74	0.230	-0.040	0.130	239.63	-1.40	0.60	 	 	 	 	 	 	 	 	 	 	 	 	 	 	 	 	 	 	1581536600	9.37	17.35
12/02/2020 19:43:21	120220	12022020	194321	239.64	12.392138	-56.769660	239.73	0.390	-0.370	0.430	239.60	-1.70	0.80	 	 	 	 	 	 	 	 	 	 	 	 	 	 	 	 	 	 	1581536601	9.62	17.82
12/02/2020 19:43:22	120220	12022020	194322	239.28	12.392117	-56.769702	239.30	0.310	-0.840	1.080	239.16	-2.20	1.50	 	 	 	 	 	 	 	 	 	 	 	 	 	 	 	 	 	 	1581536602	9.90	18.33
12/02/2020 19:43:23	120220	12022020	194323	238.65	12.392095	-56.769745	238.65	0.060	-1.120	1.720	238.51	-2.50	2.10	 	 	 	 	 	 	 	 	 	 	 	 	 	 	 	 	 	 	1581536603	9.97	18.46
12/02/2020 19:43:24	120220	12022020	194324	238.06	12.392077	-56.769787	238.10	-0.240	-0.980	2.060	237.97	-2.40	2.50	 	 	 	 	 	 	 	 	 	 	 	 	 	 	 	 	 	 	1581536604	9.79	18.13
12/02/2020 19:43:25	120220	12022020	194325	237.75	12.392057	-56.769828	237.85	-0.460	-0.580	2.080	237.72	-2.00	2.50	 	 	 	 	 	 	 	 	 	 	 	 	 	 	 	 	 	 	1581536605	9.59	17.76
12/02/2020 19:43:26	120220	12022020	194326	237.70	12.392038	-56.769868	237.85	-0.470	-0.130	1.820	237.71	-1.50	2.30	 	 	 	 	 	 	 	 	 	 	 	 	 	 	 	 	 	 	1581536606	9.58	17.74
12/02/2020 19:43:27	120220	12022020	194327	237.82	12.392018	-56.769908	238.05	-0.290	0.310	1.340	237.87	-1.10	1.80	 	 	 	 	 	 	 	 	 	 	 	 	 	 	 	 	 	 	1581536607	9.54	17.67
12/02/2020 19:43:28	120220	12022020	194328	238.19	12.391997	-56.769948	238.37	-0.020	0.500	0.880	238.25	-0.90	1.30	 	 	 	 	 	 	 	 	 	 	 	 	 	 	 	 	 	 	1581536608	9.54	17.67
12/02/2020 19:43:29	120220	12022020	194329	238.41	12.391973	-56.769988	238.55	0.230	0.280	0.720	238.42	-1.10	1.20	 	 	 	 	 	 	 	 	 	 	 	 	 	 	 	 	 	 	1581536609	9.78	18.11
12/02/2020 19:43:30	120220	12022020	194330	238.39	12.391950	-56.770028	238.52	0.330	-0.100	0.810	238.37	-1.50	1.20	 	 	 	 	 	 	 	 	 	 	 	 	 	 	 	 	 	 	1581536610	10.00	18.52
12/02/2020 19:43:31	120220	12022020	194331	238.32	12.391927	-56.770068	238.45	0.210	-0.250	0.980	238.31	-1.60	1.40	 	 	 	 	 	 	 	 	 	 	 	 	 	 	 	 	 	 	1581536611	9.78	18.11
12/02/2020 19:43:32	120220	12022020	194332	238.33	12.391907	-56.770108	238.46	-0.010	-0.210	1.160	238.34	-1.60	1.60	 	 	 	 	 	 	 	 	 	 	 	 	 	 	 	 	 	 	1581536612	9.40	17.41
12/02/2020 19:43:33	120220	12022020	194333	238.44	12.391887	-56.770147	238.58	-0.130	-0.240	1.220	238.47	-1.60	1.60	 	 	 	 	 	 	 	 	 	 	 	 	 	 	 	 	 	 	1581536613	9.29	17.21
12/02/2020 19:43:34	120220	12022020	194334	238.58	12.391867	-56.770187	238.72	-0.030	-0.520	1.130	238.60	-1.90	1.60	 	 	 	 	 	 	 	 	 	 	 	 	 	 	 	 	 	 	1581536614	9.45	17.50
12/02/2020 19:43:35	120220	12022020	194335	238.62	12.391845	-56.770227	238.71	0.200	-0.980	0.940	238.61	-2.30	1.40	 	 	 	 	 	 	 	 	 	 	 	 	 	 	 	 	 	 	1581536615	9.76	18.08
12/02/2020 19:43:36	120220	12022020	194336	238.51	12.391822	-56.770268	238.57	0.350	-1.290	0.760	238.47	-2.70	1.20	 	 	 	 	 	 	 	 	 	 	 	 	 	 	 	 	 	 	1581536616	9.94	18.41
12/02/2020 19:43:37	120220	12022020	194337	238.34	12.391800	-56.770308	238.40	0.270	-1.160	0.650	238.31	-2.60	1.10	 	 	 	 	 	 	 	 	 	 	 	 	 	 	 	 	 	 	1581536617	9.80	18.15
12/02/2020 19:43:38	120220	12022020	194338	238.21	12.391778	-56.770348	238.29	-0.030	-0.640	0.690	238.19	-2.00	1.10	 	 	 	 	 	 	 	 	 	 	 	 	 	 	 	 	 	 	1581536618	9.56	17.71
12/02/2020 19:43:39	120220	12022020	194339	238.13	12.391758	-56.770388	238.21	-0.390	-0.050	0.950	238.11	-1.50	1.40	 	 	 	 	 	 	 	 	 	 	 	 	 	 	 	 	 	 	1581536619	9.53	17.65
12/02/2020 19:43:40	120220	12022020	194340	238.06	12.391738	-56.770430	238.18	-0.630	0.390	1.260	238.05	-1.00	1.70	 	 	 	 	 	 	 	 	 	 	 	 	 	 	 	 	 	 	1581536620	9.74	18.04
12/02/2020 19:43:41	120220	12022020	194341	238.09	12.391718	-56.770472	238.24	-0.620	0.710	1.360	238.11	-0.70	1.80	 	 	 	 	 	 	 	 	 	 	 	 	 	 	 	 	 	 	1581536621	9.80	18.15
12/02/2020 19:43:42	120220	12022020	194342	238.24	12.391697	-56.770512	238.42	-0.410	0.800	1.200	238.27	-0.60	1.60	 	 	 	 	 	 	 	 	 	 	 	 	 	 	 	 	 	 	1581536622	9.72	18.00
12/02/2020 19:43:43	120220	12022020	194343	238.37	12.391673	-56.770552	238.56	-0.130	0.450	1.020	238.39	-0.90	1.40	 	 	 	 	 	 	 	 	 	 	 	 	 	 	 	 	 	 	1581536623	9.80	18.15
12/02/2020 19:43:44	120220	12022020	194344	238.45	12.391650	-56.770593	238.62	0.120	-0.230	0.870	238.47	-1.60	1.30	 	 	 	 	 	 	 	 	 	 	 	 	 	 	 	 	 	 	1581536624	9.98	18.48
12/02/2020 19:43:45	120220	12022020	194345	238.46	12.391628	-56.770635	238.59	0.330	-0.910	0.800	238.45	-2.30	1.20	 	 	 	 	 	 	 	 	 	 	 	 	 	 	 	 	 	 	1581536625	9.98	18.48
12/02/2020 19:43:46	120220	12022020	194346	238.39	12.391607	-56.770675	238.50	0.500	-1.190	0.840	238.37	-2.60	1.30	 	 	 	 	 	 	 	 	 	 	 	 	 	 	 	 	 	 	1581536626	9.74	18.04
12/02/2020 19:43:47	120220	12022020	194347	238.27	12.391587	-56.770715	238.35	0.540	-1.050	0.980	238.22	-2.40	1.40	 	 	 	 	 	 	 	 	 	 	 	 	 	 	 	 	 	 	1581536627	9.39	17.39
12/02/2020 19:43:48	120220	12022020	194348	238.00	12.391568	-56.770755	238.08	0.410	-0.720	1.270	237.94	-2.10	1.70	 	 	 	 	 	 	 	 	 	 	 	 	 	 	 	 	 	 	1581536628	9.31	17.24
12/02/2020 19:43:49	120220	12022020	194349	237.75	12.391548	-56.770795	237.84	0.150	-0.350	1.460	237.71	-1.70	1.90	 	 	 	 	 	 	 	 	 	 	 	 	 	 	 	 	 	 	1581536629	9.44	17.48
12/02/2020 19:43:50	120220	12022020	194350	237.67	12.391528	-56.770835	237.80	-0.120	-0.010	1.380	237.67	-1.40	1.80	 	 	 	 	 	 	 	 	 	 	 	 	 	 	 	 	 	 	1581536630	9.55	17.69
12/02/2020 19:43:51	120220	12022020	194351	237.75	12.391505	-56.770873	237.90	-0.290	0.260	1.100	237.78	-1.10	1.50	 	 	 	 	 	 	 	 	 	 	 	 	 	 	 	 	 	 	1581536631	9.58	17.74
12/02/2020 19:43:52	120220	12022020	194352	237.91	12.391482	-56.770913	238.05	-0.310	0.290	0.790	237.94	-1.10	1.20	 	 	 	 	 	 	 	 	 	 	 	 	 	 	 	 	 	 	1581536632	9.68	17.93
12/02/2020 19:43:53	120220	12022020	194353	238.04	12.391458	-56.770953	238.17	-0.200	-0.060	0.730	238.05	-1.40	1.20	 	 	 	 	 	 	 	 	 	 	 	 	 	 	 	 	 	 	1581536633	9.93	18.39
12/02/2020 19:43:54	120220	12022020	194354	237.99	12.391435	-56.770995	238.07	-0.020	-0.590	1.130	237.94	-1.90	1.50	 	 	 	 	 	 	 	 	 	 	 	 	 	 	 	 	 	 	1581536634	10.22	18.93
12/02/2020 19:43:55	120220	12022020	194355	237.65	12.391415	-56.771038	237.73	0.080	-0.870	1.760	237.58	-2.20	2.20	 	 	 	 	 	 	 	 	 	 	 	 	 	 	 	 	 	 	1581536635	10.20	18.89
12/02/2020 19:43:56	120220	12022020	194356	237.28	12.391395	-56.771080	237.40	0.010	-0.650	2.170	237.22	-2.00	2.60	 	 	 	 	 	 	 	 	 	 	 	 	 	 	 	 	 	 	1581536636	9.78	18.11
12/02/2020 19:43:57	120220	12022020	194357	237.11	12.391377	-56.771120	237.29	-0.160	-0.130	2.040	237.11	-1.50	2.50	 	 	 	 	 	 	 	 	 	 	 	 	 	 	 	 	 	 	1581536637	9.33	17.28
12/02/2020 19:43:58	120220	12022020	194358	237.24	12.391358	-56.771158	237.45	-0.220	0.280	1.350	237.30	-1.10	1.80	 	 	 	 	 	 	 	 	 	 	 	 	 	 	 	 	 	 	1581536638	9.14	16.93
12/02/2020 19:43:59	120220	12022020	194359	237.59	12.391333	-56.771197	237.81	-0.060	0.160	0.430	237.67	-1.20	0.90	 	 	 	 	 	 	 	 	 	 	 	 	 	 	 	 	 	 	1581536639	9.41	17.43
12/02/2020 19:44:00	120220	12022020	194400	237.93	12.391307	-56.771235	238.10	0.220	-0.430	-0.090	237.98	-1.80	0.30	 	 	 	 	 	 	 	 	 	 	 	 	 	 	 	 	 	 	1581536640	10.00	18.52
12/02/2020 19:44:01	120220	12022020	194401	238.08	12.391282	-56.771277	238.21	0.370	-0.950	0.030	238.08	-2.30	0.40	 	 	 	 	 	 	 	 	 	 	 	 	 	 	 	 	 	 	1581536641	10.25	18.98
12/02/2020 19:44:02	120220	12022020	194402	238.01	12.391258	-56.771317	238.12	0.240	-0.880	0.660	237.98	-2.30	1.10	1014.50	26.50	26.60	20.80	20.90	463.0	71.0	71.0	396.0	28.6	230.00	5.50	85.00	9.50	31389	7089.0	27.5	27.5	1581536642	9.88	18.30
12/02/2020 19:44:03	120220	12022020	194403	237.82	12.391240	-56.771357	237.91	-0.060	-0.410	1.430	237.77	-1.80	1.80	 	 	 	 	 	 	 	 	 	 	 	 	 	 	 	 	 	 	1581536643	9.45	17.50
12/02/2020 19:44:04	120220	12022020	194404	237.56	12.391222	-56.771398	237.66	-0.270	0.040	2.050	237.50	-1.30	2.50	 	 	 	 	 	 	 	 	 	 	 	 	 	 	 	 	 	 	1581536644	9.45	17.50
12/02/2020 19:44:05	120220	12022020	194405	237.33	12.391203	-56.771440	237.44	-0.230	0.310	2.310	237.30	-1.10	2.70	 	 	 	 	 	 	 	 	 	 	 	 	 	 	 	 	 	 	1581536645	9.61	17.80
12/02/2020 19:44:06	120220	12022020	194406	237.19	12.391183	-56.771480	237.32	-0.050	0.310	2.120	237.17	-1.10	2.60	 	 	 	 	 	 	 	 	 	 	 	 	 	 	 	 	 	 	1581536646	9.69	17.95
12/02/2020 19:44:07	120220	12022020	194407	237.14	12.391162	-56.771520	237.28	0.100	0.050	1.690	237.13	-1.30	2.10	 	 	 	 	 	 	 	 	 	 	 	 	 	 	 	 	 	 	1581536647	9.80	18.15
12/02/2020 19:44:08	120220	12022020	194408	237.16	12.391138	-56.771560	237.31	0.190	-0.260	1.100	237.17	-1.60	1.60	 	 	 	 	 	 	 	 	 	 	 	 	 	 	 	 	 	 	1581536648	9.80	18.15
12/02/2020 19:44:09	120220	12022020	194409	237.28	12.391115	-56.771600	237.44	0.280	-0.430	0.530	237.31	-1.80	1.00	 	 	 	 	 	 	 	 	 	 	 	 	 	 	 	 	 	 	1581536649	9.59	17.76
12/02/2020 19:44:10	120220	12022020	194410	237.41	12.391092	-56.771637	237.57	0.330	-0.640	0.140	237.44	-2.00	0.60	 	 	 	 	 	 	 	 	 	 	 	 	 	 	 	 	 	 	1581536650	9.48	17.56
12/02/2020 19:44:11	120220	12022020	194411	237.55	12.391068	-56.771677	237.71	0.270	-0.960	0.030	237.58	-2.30	0.50	 	 	 	 	 	 	 	 	 	 	 	 	 	 	 	 	 	 	1581536651	9.68	17.93
12/02/2020 19:44:12	120220	12022020	194412	237.75	12.391045	-56.771717	237.94	0.070	-1.140	0.150	237.80	-2.50	0.60	 	 	 	 	 	 	 	 	 	 	 	 	 	 	 	 	 	 	1581536652	9.86	18.26
12/02/2020 19:44:13	120220	12022020	194413	238.04	12.391025	-56.771758	238.23	-0.170	-0.860	0.380	238.11	-2.20	0.80	 	 	 	 	 	 	 	 	 	 	 	 	 	 	 	 	 	 	1581536653	9.65	17.87
12/02/2020 19:44:14	120220	12022020	194414	238.28	12.391005	-56.771797	238.43	-0.340	-0.350	0.790	238.30	-1.70	1.20	 	 	 	 	 	 	 	 	 	 	 	 	 	 	 	 	 	 	1581536654	9.44	17.48
12/02/2020 19:44:15	120220	12022020	194415	238.26	12.390985	-56.771838	238.36	-0.360	0.020	1.300	238.22	-1.40	1.70	 	 	 	 	 	 	 	 	 	 	 	 	 	 	 	 	 	 	1581536655	9.59	17.76
12/02/2020 19:44:16	120220	12022020	194416	238.01	12.390963	-56.771880	238.12	-0.250	0.150	1.700	237.95	-1.20	2.10	 	 	 	 	 	 	 	 	 	 	 	 	 	 	 	 	 	 	1581536656	9.94	18.41
12/02/2020 19:44:17	120220	12022020	194417	237.75	12.390940	-56.771922	237.86	-0.140	0.180	1.790	237.70	-1.20	2.20	 	 	 	 	 	 	 	 	 	 	 	 	 	 	 	 	 	 	1581536657	10.09	18.69
12/02/2020 19:44:18	120220	12022020	194418	237.59	12.390918	-56.771962	237.74	-0.150	0.320	1.680	237.58	-1.10	2.10	 	 	 	 	 	 	 	 	 	 	 	 	 	 	 	 	 	 	1581536658	9.87	18.28
12/02/2020 19:44:19	120220	12022020	194419	237.52	12.390897	-56.772002	237.66	-0.220	0.490	1.500	237.50	-0.90	1.90	 	 	 	 	 	 	 	 	 	 	 	 	 	 	 	 	 	 	1581536659	9.52	17.63
12/02/2020 19:44:20	120220	12022020	194420	237.44	12.390877	-56.772042	237.58	-0.190	0.390	1.330	237.42	-1.00	1.80	 	 	 	 	 	 	 	 	 	 	 	 	 	 	 	 	 	 	1581536660	9.41	17.43
12/02/2020 19:44:21	120220	12022020	194421	237.36	12.390857	-56.772082	237.50	0.100	-0.220	1.030	237.34	-1.60	1.50	 	 	 	 	 	 	 	 	 	 	 	 	 	 	 	 	 	 	1581536661	9.69	17.95
12/02/2020 19:44:22	120220	12022020	194422	237.35	12.390833	-56.772123	237.52	0.530	-1.070	0.450	237.38	-2.40	0.90	 	 	 	 	 	 	 	 	 	 	 	 	 	 	 	 	 	 	1581536662	10.04	18.59
12/02/2020 19:44:23	120220	12022020	194423	237.55	12.390808	-56.772163	237.74	0.790	-1.630	-0.190	237.61	-3.00	0.30	 	 	 	 	 	 	 	 	 	 	 	 	 	 	 	 	 	 	1581536663	10.01	18.54
12/02/2020 19:44:24	120220	12022020	194424	237.87	12.390783	-56.772202	238.06	0.670	-1.630	-0.370	237.93	-3.00	0.10	 	 	 	 	 	 	 	 	 	 	 	 	 	 	 	 	 	 	1581536664	9.74	18.04
12/02/2020 19:44:25	120220	12022020	194425	238.09	12.390763	-56.772242	238.24	0.210	-1.070	0.040	238.11	-2.50	0.40	 	 	 	 	 	 	 	 	 	 	 	 	 	 	 	 	 	 	1581536665	9.46	17.52
12/02/2020 19:44:26	120220	12022020	194426	238.12	12.390743	-56.772280	238.25	-0.330	-0.150	0.710	238.12	-1.50	1.10	 	 	 	 	 	 	 	 	 	 	 	 	 	 	 	 	 	 	1581536666	9.28	17.19
12/02/2020 19:44:27	120220	12022020	194427	238.06	12.390725	-56.772320	238.19	-0.630	0.710	1.280	238.04	-0.70	1.70	 	 	 	 	 	 	 	 	 	 	 	 	 	 	 	 	 	 	1581536667	9.28	17.19
12/02/2020 19:44:28	120220	12022020	194428	237.87	12.390705	-56.772362	237.99	-0.560	1.040	1.550	237.83	-0.30	2.00	 	 	 	 	 	 	 	 	 	 	 	 	 	 	 	 	 	 	1581536668	9.61	17.80
12/02/2020 19:44:29	120220	12022020	194429	237.73	12.390683	-56.772403	237.88	-0.290	0.800	1.390	237.72	-0.60	1.80	 	 	 	 	 	 	 	 	 	 	 	 	 	 	 	 	 	 	1581536669	10.04	18.59
12/02/2020 19:44:30	120220	12022020	194430	237.75	12.390660	-56.772445	237.91	-0.050	0.260	1.040	237.76	-1.10	1.50	 	 	 	 	 	 	 	 	 	 	 	 	 	 	 	 	 	 	1581536670	10.15	18.80
12/02/2020 19:44:31	120220	12022020	194431	237.77	12.390637	-56.772485	237.89	0.130	-0.340	0.780	237.76	-1.70	1.20	 	 	 	 	 	 	 	 	 	 	 	 	 	 	 	 	 	 	1581536671	9.98	18.48
12/02/2020 19:44:32	120220	12022020	194432	237.57	12.390613	-56.772525	237.67	0.300	-0.840	0.690	237.51	-2.20	1.10	 	 	 	 	 	 	 	 	 	 	 	 	 	 	 	 	 	 	1581536672	9.80	18.15
12/02/2020 19:44:33	120220	12022020	194433	237.32	12.390592	-56.772565	237.44	0.380	-1.110	0.790	237.28	-2.50	1.20	 	 	 	 	 	 	 	 	 	 	 	 	 	 	 	 	 	 	1581536673	9.62	17.82
12/02/2020 19:44:34	120220	12022020	194434	237.22	12.390570	-56.772605	237.38	0.290	-1.200	1.000	237.22	-2.60	1.40	 	 	 	 	 	 	 	 	 	 	 	 	 	 	 	 	 	 	1581536674	9.53	17.65
12/02/2020 19:44:35	120220	12022020	194435	237.27	12.390552	-56.772647	237.45	0.070	-1.150	1.200	237.28	-2.50	1.60	 	 	 	 	 	 	 	 	 	 	 	 	 	 	 	 	 	 	1581536675	9.62	17.82
12/02/2020 19:44:36	120220	12022020	194436	237.27	12.390532	-56.772688	237.43	-0.130	-0.910	1.440	237.26	-2.30	1.80	 	 	 	 	 	 	 	 	 	 	 	 	 	 	 	 	 	 	1581536676	9.70	17.96
12/02/2020 19:44:37	120220	12022020	194437	237.16	12.390512	-56.772728	237.31	-0.190	-0.460	1.680	237.13	-1.90	2.10	 	 	 	 	 	 	 	 	 	 	 	 	 	 	 	 	 	 	1581536677	9.70	17.96
12/02/2020 19:44:38	120220	12022020	194438	237.08	12.390490	-56.772768	237.24	-0.190	0.090	1.710	237.08	-1.30	2.10	 	 	 	 	 	 	 	 	 	 	 	 	 	 	 	 	 	 	1581536678	9.67	17.91
12/02/2020 19:44:39	120220	12022020	194439	237.16	12.390468	-56.772808	237.37	-0.220	0.550	1.520	237.20	-0.80	2.00	 	 	 	 	 	 	 	 	 	 	 	 	 	 	 	 	 	 	1581536679	9.69	17.95
12/02/2020 19:44:40	120220	12022020	194440	237.40	12.390445	-56.772848	237.63	-0.270	0.810	1.260	237.47	-0.60	1.70	 	 	 	 	 	 	 	 	 	 	 	 	 	 	 	 	 	 	1581536680	9.72	18.00
12/02/2020 19:44:41	120220	12022020	194441	237.77	12.390422	-56.772887	238.01	-0.210	0.840	0.930	237.85	-0.50	1.40	 	 	 	 	 	 	 	 	 	 	 	 	 	 	 	 	 	 	1581536681	9.68	17.93
12/02/2020 19:44:42	120220	12022020	194442	238.10	12.390397	-56.772927	238.29	0.050	0.470	0.700	238.14	-0.90	1.10	 	 	 	 	 	 	 	 	 	 	 	 	 	 	 	 	 	 	1581536682	9.70	17.96
12/02/2020 19:44:43	120220	12022020	194443	238.19	12.390375	-56.772967	238.33	0.370	-0.340	0.780	238.17	-1.70	1.20	 	 	 	 	 	 	 	 	 	 	 	 	 	 	 	 	 	 	1581536683	10.02	18.56
12/02/2020 19:44:44	120220	12022020	194444	238.12	12.390353	-56.773010	238.25	0.520	-1.110	1.020	238.10	-2.50	1.40	 	 	 	 	 	 	 	 	 	 	 	 	 	 	 	 	 	 	1581536684	10.16	18.82
12/02/2020 19:44:45	120220	12022020	194445	238.08	12.390333	-56.773052	238.20	0.390	-1.360	1.210	238.07	-2.70	1.60	 	 	 	 	 	 	 	 	 	 	 	 	 	 	 	 	 	 	1581536685	9.78	18.11
12/02/2020 19:44:46	120220	12022020	194446	237.98	12.390315	-56.773092	238.08	0.110	-1.190	1.360	237.94	-2.60	1.80	 	 	 	 	 	 	 	 	 	 	 	 	 	 	 	 	 	 	1581536686	9.31	17.24
12/02/2020 19:44:47	120220	12022020	194447	237.69	12.390295	-56.773130	237.76	-0.080	-0.940	1.500	237.61	-2.30	1.90	 	 	 	 	 	 	 	 	 	 	 	 	 	 	 	 	 	 	1581536687	9.33	17.28
12/02/2020 19:44:48	120220	12022020	194448	237.33	12.390273	-56.773170	237.42	-0.150	-0.640	1.580	237.27	-2.00	2.00	 	 	 	 	 	 	 	 	 	 	 	 	 	 	 	 	 	 	1581536688	9.60	17.78
12/02/2020 19:44:49	120220	12022020	194449	237.14	12.390252	-56.773212	237.28	-0.190	-0.220	1.480	237.14	-1.60	1.90	 	 	 	 	 	 	 	 	 	 	 	 	 	 	 	 	 	 	1581536689	9.71	17.98
12/02/2020 19:44:50	120220	12022020	194450	237.26	12.390230	-56.773252	237.46	-0.240	0.280	1.160	237.32	-1.10	1.60	 	 	 	 	 	 	 	 	 	 	 	 	 	 	 	 	 	 	1581536690	9.64	17.85
12/02/2020 19:44:51	120220	12022020	194451	237.66	12.390208	-56.773290	237.89	-0.280	0.620	0.770	237.76	-0.80	1.20	 	 	 	 	 	 	 	 	 	 	 	 	 	 	 	 	 	 	1581536691	9.56	17.71
12/02/2020 19:44:52	120220	12022020	194452	238.16	12.390185	-56.773330	238.39	-0.220	0.520	0.570	238.25	-0.80	1.00	 	 	 	 	 	 	 	 	 	 	 	 	 	 	 	 	 	 	1581536692	9.76	18.08
12/02/2020 19:44:53	120220	12022020	194453	238.50	12.390163	-56.773372	238.68	-0.030	-0.020	0.670	238.53	-1.40	1.10	 	 	 	 	 	 	 	 	 	 	 	 	 	 	 	 	 	 	1581536693	10.07	18.65
12/02/2020 19:44:54	120220	12022020	194454	238.55	12.390142	-56.773415	238.68	0.210	-0.650	0.880	238.54	-2.00	1.30	 	 	 	 	 	 	 	 	 	 	 	 	 	 	 	 	 	 	1581536694	10.23	18.95
12/02/2020 19:44:55	120220	12022020	194455	238.45	12.390120	-56.773457	238.55	0.370	-0.980	1.030	238.42	-2.30	1.40	 	 	 	 	 	 	 	 	 	 	 	 	 	 	 	 	 	 	1581536695	10.02	18.56
12/02/2020 19:44:56	120220	12022020	194456	238.26	12.390098	-56.773497	238.33	0.350	-0.840	1.120	238.22	-2.20	1.50	 	 	 	 	 	 	 	 	 	 	 	 	 	 	 	 	 	 	1581536696	9.58	17.74
12/02/2020 19:44:57	120220	12022020	194457	237.99	12.390078	-56.773537	238.05	0.160	-0.520	1.300	237.93	-1.90	1.70	 	 	 	 	 	 	 	 	 	 	 	 	 	 	 	 	 	 	1581536697	9.35	17.32
12/02/2020 19:44:58	120220	12022020	194458	237.66	12.390058	-56.773577	237.72	-0.120	-0.240	1.590	237.59	-1.60	2.00	 	 	 	 	 	 	 	 	 	 	 	 	 	 	 	 	 	 	1581536698	9.50	17.59
12/02/2020 19:44:59	120220	12022020	194459	237.35	12.390040	-56.773618	237.44	-0.350	0.020	1.840	237.31	-1.40	2.20	 	 	 	 	 	 	 	 	 	 	 	 	 	 	 	 	 	 	1581536699	9.70	17.96
12/02/2020 19:45:00	120220	12022020	194500	237.27	12.390022	-56.773660	237.41	-0.430	0.320	1.730	237.30	-1.10	2.20	 	 	 	 	 	 	 	 	 	 	 	 	 	 	 	 	 	 	1581536700	9.64	17.85
12/02/2020 19:45:01	120220	12022020	194501	237.50	12.390000	-56.773700	237.67	-0.320	0.430	1.130	237.58	-0.90	1.60	 	 	 	 	 	 	 	 	 	 	 	 	 	 	 	 	 	 	1581536701	9.50	17.59
12/02/2020 19:45:02	120220	12022020	194502	237.86	12.389977	-56.773738	238.01	-0.040	0.160	0.470	237.93	-1.20	0.90	1014.60	26.50	26.50	20.90	20.90	480.0	71.0	71.0	395.0	28.7	231.00	5.90	86.00	9.90	31683	7485.0	27.5	27.5	1581536702	9.64	17.85
12/02/2020 19:45:03	120220	12022020	194503	238.05	12.389950	-56.773777	238.14	0.310	-0.450	0.200	238.05	-1.80	0.60	 	 	 	 	 	 	 	 	 	 	 	 	 	 	 	 	 	 	1581536703	9.91	18.35
12/02/2020 19:45:04	120220	12022020	194504	237.93	12.389927	-56.773818	237.97	0.540	-1.080	0.480	237.87	-2.40	0.90	 	 	 	 	 	 	 	 	 	 	 	 	 	 	 	 	 	 	1581536704	10.10	18.71
12/02/2020 19:45:05	120220	12022020	194505	237.66	12.389905	-56.773858	237.71	0.490	-1.260	1.010	237.60	-2.60	1.40	 	 	 	 	 	 	 	 	 	 	 	 	 	 	 	 	 	 	1581536705	9.88	18.30
12/02/2020 19:45:06	120220	12022020	194506	237.40	12.389887	-56.773900	237.48	0.190	-1.020	1.500	237.35	-2.40	1.90	 	 	 	 	 	 	 	 	 	 	 	 	 	 	 	 	 	 	1581536706	9.54	17.67
12/02/2020 19:45:07	120220	12022020	194507	237.22	12.389868	-56.773942	237.36	-0.100	-0.540	1.760	237.22	-1.90	2.20	 	 	 	 	 	 	 	 	 	 	 	 	 	 	 	 	 	 	1581536707	9.45	17.50
12/02/2020 19:45:08	120220	12022020	194508	237.27	12.389850	-56.773982	237.45	-0.200	-0.020	1.720	237.31	-1.40	2.10	 	 	 	 	 	 	 	 	 	 	 	 	 	 	 	 	 	 	1581536708	9.43	17.46
12/02/2020 19:45:09	120220	12022020	194509	237.45	12.389830	-56.774022	237.62	-0.150	0.300	1.520	237.48	-1.10	1.90	 	 	 	 	 	 	 	 	 	 	 	 	 	 	 	 	 	 	1581536709	9.56	17.71
12/02/2020 19:45:10	120220	12022020	194510	237.58	12.389807	-56.774062	237.72	-0.100	0.260	1.350	237.58	-1.10	1.80	 	 	 	 	 	 	 	 	 	 	 	 	 	 	 	 	 	 	1581536710	9.84	18.22
12/02/2020 19:45:11	120220	12022020	194511	237.55	12.389783	-56.774103	237.68	-0.130	-0.010	1.350	237.54	-1.40	1.80	 	 	 	 	 	 	 	 	 	 	 	 	 	 	 	 	 	 	1581536711	10.11	18.72
12/02/2020 19:45:12	120220	12022020	194512	237.50	12.389762	-56.774145	237.63	-0.210	-0.220	1.230	237.50	-1.60	1.70	 	 	 	 	 	 	 	 	 	 	 	 	 	 	 	 	 	 	1581536712	10.05	18.61
12/02/2020 19:45:13	120220	12022020	194513	237.51	12.389738	-56.774185	237.67	-0.210	-0.260	0.860	237.54	-1.60	1.30	 	 	 	 	 	 	 	 	 	 	 	 	 	 	 	 	 	 	1581536713	9.77	18.09
12/02/2020 19:45:14	120220	12022020	194514	237.64	12.389715	-56.774223	237.79	-0.070	-0.280	0.400	237.67	-1.60	0.90	 	 	 	 	 	 	 	 	 	 	 	 	 	 	 	 	 	 	1581536714	9.57	17.72
12/02/2020 19:45:15	120220	12022020	194515	237.70	12.389692	-56.774263	237.82	0.100	-0.410	0.270	237.69	-1.80	0.70	 	 	 	 	 	 	 	 	 	 	 	 	 	 	 	 	 	 	1581536715	9.59	17.76
12/02/2020 19:45:16	120220	12022020	194516	237.55	12.389670	-56.774303	237.64	0.150	-0.580	0.630	237.51	-1.90	1.00	 	 	 	 	 	 	 	 	 	 	 	 	 	 	 	 	 	 	1581536716	9.70	17.96
12/02/2020 19:45:17	120220	12022020	194517	237.33	12.389650	-56.774345	237.43	0.070	-0.600	1.130	237.29	-2.00	1.50	 	 	 	 	 	 	 	 	 	 	 	 	 	 	 	 	 	 	1581536717	9.71	17.98
12/02/2020 19:45:18	120220	12022020	194518	237.16	12.389632	-56.774385	237.27	0.010	-0.420	1.460	237.13	-1.80	1.90	 	 	 	 	 	 	 	 	 	 	 	 	 	 	 	 	 	 	1581536718	9.61	17.80
12/02/2020 19:45:19	120220	12022020	194519	237.09	12.389612	-56.774425	237.22	0.030	-0.150	1.500	237.08	-1.50	1.90	 	 	 	 	 	 	 	 	 	 	 	 	 	 	 	 	 	 	1581536719	9.48	17.56
12/02/2020 19:45:20	120220	12022020	194520	237.10	12.389590	-56.774465	237.24	0.070	-0.020	1.440	237.11	-1.40	1.90	 	 	 	 	 	 	 	 	 	 	 	 	 	 	 	 	 	 	1581536720	9.53	17.65
12/02/2020 19:45:21	120220	12022020	194521	237.14	12.389568	-56.774505	237.28	0.040	-0.140	1.340	237.15	-1.50	1.80	 	 	 	 	 	 	 	 	 	 	 	 	 	 	 	 	 	 	1581536721	9.74	18.04
12/02/2020 19:45:22	120220	12022020	194522	237.22	12.389547	-56.774547	237.37	0.030	-0.320	1.110	237.25	-1.70	1.60	 	 	 	 	 	 	 	 	 	 	 	 	 	 	 	 	 	 	1581536722	9.87	18.28
12/02/2020 19:45:23	120220	12022020	194523	237.34	12.389523	-56.774587	237.49	0.110	-0.430	0.820	237.36	-1.80	1.30	 	 	 	 	 	 	 	 	 	 	 	 	 	 	 	 	 	 	1581536723	9.78	18.11
12/02/2020 19:45:24	120220	12022020	194524	237.42	12.389500	-56.774627	237.56	0.270	-0.620	0.560	237.43	-2.00	1.00	 	 	 	 	 	 	 	 	 	 	 	 	 	 	 	 	 	 	1581536724	9.82	18.19
12/02/2020 19:45:25	120220	12022020	194525	237.44	12.389477	-56.774667	237.56	0.310	-0.810	0.530	237.43	-2.20	1.00	 	 	 	 	 	 	 	 	 	 	 	 	 	 	 	 	 	 	1581536725	10.01	18.54
12/02/2020 19:45:26	120220	12022020	194526	237.32	12.389453	-56.774708	237.41	0.050	-0.800	0.930	237.27	-2.20	1.30	 	 	 	 	 	 	 	 	 	 	 	 	 	 	 	 	 	 	1581536726	10.01	18.54
12/02/2020 19:45:27	120220	12022020	194527	237.04	12.389433	-56.774750	237.14	-0.440	-0.440	1.560	236.98	-1.80	2.00	 	 	 	 	 	 	 	 	 	 	 	 	 	 	 	 	 	 	1581536727	9.86	18.26
12/02/2020 19:45:28	120220	12022020	194528	236.81	12.389417	-56.774792	236.94	-0.850	0.230	1.930	236.78	-1.20	2.40	 	 	 	 	 	 	 	 	 	 	 	 	 	 	 	 	 	 	1581536728	9.60	17.78
12/02/2020 19:45:29	120220	12022020	194529	236.76	12.389398	-56.774832	236.94	-0.840	0.800	1.710	236.77	-0.60	2.20	 	 	 	 	 	 	 	 	 	 	 	 	 	 	 	 	 	 	1581536729	9.31	17.24
12/02/2020 19:45:30	120220	12022020	194530	236.86	12.389377	-56.774872	237.03	-0.340	0.720	1.090	236.88	-0.60	1.60	 	 	 	 	 	 	 	 	 	 	 	 	 	 	 	 	 	 	1581536730	9.52	17.63
12/02/2020 19:45:31	120220	12022020	194531	236.94	12.389352	-56.774912	237.08	0.350	0.020	0.530	236.95	-1.30	1.00	 	 	 	 	 	 	 	 	 	 	 	 	 	 	 	 	 	 	1581536731	10.07	18.65
12/02/2020 19:45:32	120220	12022020	194532	236.90	12.389325	-56.774952	237.00	0.780	-0.720	0.370	236.87	-2.10	0.80	 	 	 	 	 	 	 	 	 	 	 	 	 	 	 	 	 	 	1581536732	10.23	18.95
12/02/2020 19:45:33	120220	12022020	194533	236.75	12.389302	-56.774992	236.86	0.770	-1.010	0.630	236.71	-2.40	1.10	 	 	 	 	 	 	 	 	 	 	 	 	 	 	 	 	 	 	1581536733	9.87	18.28
12/02/2020 19:45:34	120220	12022020	194534	236.62	12.389282	-56.775032	236.76	0.440	-0.860	0.940	236.61	-2.20	1.40	 	 	 	 	 	 	 	 	 	 	 	 	 	 	 	 	 	 	1581536734	9.44	17.48
12/02/2020 19:45:35	120220	12022020	194535	236.61	12.389262	-56.775070	236.79	0.090	-0.550	1.110	236.63	-1.90	1.50	 	 	 	 	 	 	 	 	 	 	 	 	 	 	 	 	 	 	1581536735	9.30	17.22
12/02/2020 19:45:36	120220	12022020	194536	236.80	12.389242	-56.775110	237.01	-0.120	-0.360	1.110	236.86	-1.70	1.50	 	 	 	 	 	 	 	 	 	 	 	 	 	 	 	 	 	 	1581536736	9.47	17.54
12/02/2020 19:45:37	120220	12022020	194537	237.15	12.389220	-56.775152	237.38	-0.210	-0.350	0.990	237.23	-1.70	1.40	 	 	 	 	 	 	 	 	 	 	 	 	 	 	 	 	 	 	1581536737	9.76	18.08
12/02/2020 19:45:38	120220	12022020	194538	237.55	12.389198	-56.775192	237.75	-0.280	-0.380	0.830	237.62	-1.70	1.30	 	 	 	 	 	 	 	 	 	 	 	 	 	 	 	 	 	 	1581536738	9.93	18.39
12/02/2020 19:45:39	120220	12022020	194539	237.81	12.389175	-56.775233	237.96	-0.350	-0.290	0.760	237.83	-1.70	1.20	 	 	 	 	 	 	 	 	 	 	 	 	 	 	 	 	 	 	1581536739	9.88	18.30
12/02/2020 19:45:40	120220	12022020	194540	237.73	12.389153	-56.775273	237.82	-0.340	-0.170	0.870	237.67	-1.50	1.30	 	 	 	 	 	 	 	 	 	 	 	 	 	 	 	 	 	 	1581536740	9.77	18.09
12/02/2020 19:45:41	120220	12022020	194541	237.33	12.389132	-56.775315	237.38	-0.180	-0.130	1.190	237.22	-1.50	1.60	 	 	 	 	 	 	 	 	 	 	 	 	 	 	 	 	 	 	1581536741	9.85	18.24
12/02/2020 19:45:42	120220	12022020	194542	236.82	12.389110	-56.775355	236.89	0.020	-0.090	1.490	236.72	-1.40	1.90	 	 	 	 	 	 	 	 	 	 	 	 	 	 	 	 	 	 	1581536742	9.87	18.28
12/02/2020 19:45:43	120220	12022020	194543	236.41	12.389088	-56.775397	236.53	0.170	-0.070	1.480	236.35	-1.40	1.90	 	 	 	 	 	 	 	 	 	 	 	 	 	 	 	 	 	 	1581536743	9.76	18.08
12/02/2020 19:45:44	120220	12022020	194544	236.26	12.389067	-56.775437	236.42	0.230	-0.130	1.070	236.27	-1.50	1.50	 	 	 	 	 	 	 	 	 	 	 	 	 	 	 	 	 	 	1581536744	9.67	17.91
12/02/2020 19:45:45	120220	12022020	194545	236.41	12.389043	-56.775475	236.63	0.220	-0.350	0.560	236.47	-1.70	1.00	 	 	 	 	 	 	 	 	 	 	 	 	 	 	 	 	 	 	1581536745	9.70	17.96
12/02/2020 19:45:46	120220	12022020	194546	236.78	12.389020	-56.775515	237.00	0.140	-0.630	0.280	236.86	-2.00	0.70	 	 	 	 	 	 	 	 	 	 	 	 	 	 	 	 	 	 	1581536746	9.89	18.32
12/02/2020 19:45:47	120220	12022020	194547	237.23	12.388997	-56.775557	237.44	0.000	-0.680	0.310	237.31	-2.00	0.70	 	 	 	 	 	 	 	 	 	 	 	 	 	 	 	 	 	 	1581536747	9.86	18.26
12/02/2020 19:45:48	120220	12022020	194548	237.67	12.388977	-56.775597	237.87	-0.190	-0.370	0.560	237.74	-1.80	1.00	 	 	 	 	 	 	 	 	 	 	 	 	 	 	 	 	 	 	1581536748	9.61	17.80
12/02/2020 19:45:49	120220	12022020	194549	237.92	12.388958	-56.775637	238.06	-0.320	0.060	1.000	237.93	-1.30	1.40	 	 	 	 	 	 	 	 	 	 	 	 	 	 	 	 	 	 	1581536749	9.38	17.37
12/02/2020 19:45:50	120220	12022020	194550	237.86	12.388938	-56.775677	237.98	-0.290	0.230	1.370	237.83	-1.10	1.80	 	 	 	 	 	 	 	 	 	 	 	 	 	 	 	 	 	 	1581536750	9.47	17.54
12/02/2020 19:45:51	120220	12022020	194551	237.66	12.388917	-56.775718	237.78	-0.100	0.050	1.440	237.62	-1.30	1.90	 	 	 	 	 	 	 	 	 	 	 	 	 	 	 	 	 	 	1581536751	9.74	18.04
12/02/2020 19:45:52	120220	12022020	194552	237.42	12.388893	-56.775758	237.52	0.150	-0.330	1.220	237.37	-1.70	1.70	 	 	 	 	 	 	 	 	 	 	 	 	 	 	 	 	 	 	1581536752	9.95	18.43
12/02/2020 19:45:53	120220	12022020	194553	237.23	12.388870	-56.775798	237.36	0.320	-0.660	0.880	237.21	-2.00	1.30	 	 	 	 	 	 	 	 	 	 	 	 	 	 	 	 	 	 	1581536753	10.00	18.52
12/02/2020 19:45:54	120220	12022020	194554	237.22	12.388847	-56.775838	237.38	0.340	-0.710	0.480	237.25	-2.10	0.90	 	 	 	 	 	 	 	 	 	 	 	 	 	 	 	 	 	 	1581536754	9.76	18.08
12/02/2020 19:45:55	120220	12022020	194555	237.42	12.388825	-56.775877	237.58	0.250	-0.510	0.140	237.46	-1.90	0.60	 	 	 	 	 	 	 	 	 	 	 	 	 	 	 	 	 	 	1581536755	9.45	17.50
12/02/2020 19:45:56	120220	12022020	194556	237.61	12.388803	-56.775917	237.75	0.110	-0.370	0.170	237.62	-1.70	0.60	 	 	 	 	 	 	 	 	 	 	 	 	 	 	 	 	 	 	1581536756	9.41	17.43
12/02/2020 19:45:57	120220	12022020	194557	237.62	12.388783	-56.775957	237.72	-0.040	-0.470	0.560	237.60	-1.80	1.00	 	 	 	 	 	 	 	 	 	 	 	 	 	 	 	 	 	 	1581536757	9.75	18.06
12/02/2020 19:45:58	120220	12022020	194558	237.49	12.388763	-56.776000	237.59	-0.250	-0.570	1.070	237.46	-1.90	1.50	 	 	 	 	 	 	 	 	 	 	 	 	 	 	 	 	 	 	1581536758	10.06	18.63
12/02/2020 19:45:59	120220	12022020	194559	237.50	12.388743	-56.776043	237.69	-0.440	-0.390	1.290	237.55	-1.80	1.70	 	 	 	 	 	 	 	 	 	 	 	 	 	 	 	 	 	 	1581536759	10.02	18.56
12/02/2020 19:46:00	120220	12022020	194600	237.89	12.388725	-56.776083	238.13	-0.500	0.210	0.990	237.99	-1.20	1.40	 	 	 	 	 	 	 	 	 	 	 	 	 	 	 	 	 	 	1581536760	9.52	17.63
12/02/2020 19:46:01	120220	12022020	194601	238.44	12.388703	-56.776122	238.68	-0.320	0.670	0.440	238.55	-0.70	0.90	 	 	 	 	 	 	 	 	 	 	 	 	 	 	 	 	 	 	1581536761	9.15	16.95
12/02/2020 19:46:02	120220	12022020	194602	238.84	12.388680	-56.776160	239.02	0.050	0.370	0.150	238.89	-1.00	0.60	1014.60	26.40	26.50	20.50	20.70	447.0	70.0	70.0	395.0	28.8	229.00	5.90	84.00	9.90	30549	9428.0	27.5	27.5	1581536762	9.61	17.80
12/02/2020 19:46:03	120220	12022020	194603	238.85	12.388655	-56.776202	238.94	0.380	-0.520	0.480	238.79	-1.90	0.90	 	 	 	 	 	 	 	 	 	 	 	 	 	 	 	 	 	 	1581536763	10.29	19.06
12/02/2020 19:46:04	120220	12022020	194604	238.37	12.388633	-56.776247	238.39	0.450	-1.250	1.340	238.22	-2.60	1.70	 	 	 	 	 	 	 	 	 	 	 	 	 	 	 	 	 	 	1581536764	10.49	19.43
12/02/2020 19:46:05	120220	12022020	194605	237.58	12.388617	-56.776292	237.61	0.260	-1.230	2.360	237.42	-2.60	2.80	 	 	 	 	 	 	 	 	 	 	 	 	 	 	 	 	 	 	1581536765	10.09	18.69
12/02/2020 19:46:06	120220	12022020	194606	236.82	12.388603	-56.776333	236.90	0.010	-0.580	3.000	236.70	-2.00	3.40	 	 	 	 	 	 	 	 	 	 	 	 	 	 	 	 	 	 	1581536766	9.56	17.71
12/02/2020 19:46:07	120220	12022020	194607	236.40	12.388588	-56.776375	236.58	-0.110	0.100	2.840	236.38	-1.30	3.30	 	 	 	 	 	 	 	 	 	 	 	 	 	 	 	 	 	 	1581536767	9.27	17.17
12/02/2020 19:46:08	120220	12022020	194608	236.43	12.388570	-56.776415	236.69	-0.030	0.360	2.040	236.48	-1.00	2.50	 	 	 	 	 	 	 	 	 	 	 	 	 	 	 	 	 	 	1581536768	9.36	17.33
12/02/2020 19:46:09	120220	12022020	194609	236.68	12.388545	-56.776455	237.02	0.110	0.140	0.980	236.76	-1.20	1.50	 	 	 	 	 	 	 	 	 	 	 	 	 	 	 	 	 	 	1581536769	9.76	18.08
12/02/2020 19:46:10	120220	12022020	194610	237.17	12.388518	-56.776493	237.41	0.170	-0.280	0.130	237.25	-1.60	0.60	 	 	 	 	 	 	 	 	 	 	 	 	 	 	 	 	 	 	1581536770	10.01	18.54
12/02/2020 19:46:11	120220	12022020	194611	237.60	12.388492	-56.776532	237.83	0.100	-0.550	-0.230	237.68	-1.90	0.20	 	 	 	 	 	 	 	 	 	 	 	 	 	 	 	 	 	 	1581536771	9.92	18.37
12/02/2020 19:46:12	120220	12022020	194612	238.06	12.388468	-56.776570	238.29	-0.070	-0.560	-0.150	238.15	-1.90	0.30	 	 	 	 	 	 	 	 	 	 	 	 	 	 	 	 	 	 	1581536772	9.63	17.83
12/02/2020 19:46:13	120220	12022020	194613	238.47	12.388448	-56.776610	238.68	-0.200	-0.460	0.280	238.52	-1.80	0.70	 	 	 	 	 	 	 	 	 	 	 	 	 	 	 	 	 	 	1581536773	9.46	17.52
12/02/2020 19:46:14	120220	12022020	194614	238.56	12.388428	-56.776652	238.70	-0.200	-0.490	1.070	238.52	-1.80	1.50	 	 	 	 	 	 	 	 	 	 	 	 	 	 	 	 	 	 	1581536774	9.60	17.78
12/02/2020 19:46:15	120220	12022020	194615	238.24	12.388410	-56.776693	238.33	-0.120	-0.610	1.950	238.14	-2.00	2.30	 	 	 	 	 	 	 	 	 	 	 	 	 	 	 	 	 	 	1581536775	9.88	18.30
12/02/2020 19:46:16	120220	12022020	194616	237.62	12.388393	-56.776737	237.66	-0.050	-0.650	2.590	237.46	-2.00	3.00	 	 	 	 	 	 	 	 	 	 	 	 	 	 	 	 	 	 	1581536776	9.98	18.48
12/02/2020 19:46:17	120220	12022020	194617	236.81	12.388373	-56.776780	236.86	-0.010	-0.540	2.780	236.65	-1.90	3.20	 	 	 	 	 	 	 	 	 	 	 	 	 	 	 	 	 	 	1581536777	9.91	18.35
12/02/2020 19:46:18	120220	12022020	194618	236.09	12.388353	-56.776822	236.17	0.040	-0.320	2.540	235.97	-1.70	3.00	 	 	 	 	 	 	 	 	 	 	 	 	 	 	 	 	 	 	1581536778	9.78	18.11
12/02/2020 19:46:19	120220	12022020	194619	235.63	12.388333	-56.776863	235.75	0.090	-0.130	2.050	235.56	-1.50	2.50	 	 	 	 	 	 	 	 	 	 	 	 	 	 	 	 	 	 	1581536779	9.73	18.02
12/02/2020 19:46:20	120220	12022020	194620	235.49	12.388312	-56.776903	235.69	0.100	0.040	1.460	235.52	-1.30	1.90	 	 	 	 	 	 	 	 	 	 	 	 	 	 	 	 	 	 	1581536780	9.76	18.08
12/02/2020 19:46:21	120220	12022020	194621	235.86	12.388290	-56.776943	236.16	0.030	0.250	0.670	236.00	-1.10	1.10	 	 	 	 	 	 	 	 	 	 	 	 	 	 	 	 	 	 	1581536781	9.62	17.82
12/02/2020 19:46:22	120220	12022020	194622	236.72	12.388267	-56.776980	237.10	-0.110	0.490	-0.090	236.93	-0.90	0.40	 	 	 	 	 	 	 	 	 	 	 	 	 	 	 	 	 	 	1581536782	9.38	17.37
12/02/2020 19:46:23	120220	12022020	194623	237.73	12.388245	-56.777018	238.07	-0.140	0.530	-0.400	237.92	-0.80	0.00	 	 	 	 	 	 	 	 	 	 	 	 	 	 	 	 	 	 	1581536783	9.24	17.11
12/02/2020 19:46:24	120220	12022020	194624	238.48	12.388222	-56.777057	238.70	0.070	0.100	-0.140	238.56	-1.20	0.30	 	 	 	 	 	 	 	 	 	 	 	 	 	 	 	 	 	 	1581536784	9.43	17.46
12/02/2020 19:46:25	120220	12022020	194625	238.67	12.388202	-56.777098	238.80	0.420	-0.700	0.640	238.65	-2.00	1.00	 	 	 	 	 	 	 	 	 	 	 	 	 	 	 	 	 	 	1581536785	9.84	18.22
12/02/2020 19:46:26	120220	12022020	194626	238.38	12.388182	-56.777140	238.45	0.600	-1.410	1.630	238.28	-2.70	2.00	 	 	 	 	 	 	 	 	 	 	 	 	 	 	 	 	 	 	1581536786	10.05	18.61
12/02/2020 19:46:27	120220	12022020	194627	237.83	12.388163	-56.777183	237.89	0.380	-1.610	2.310	237.71	-3.00	2.70	 	 	 	 	 	 	 	 	 	 	 	 	 	 	 	 	 	 	1581536787	9.86	18.26
12/02/2020 19:46:28	120220	12022020	194628	237.24	12.388143	-56.777223	237.32	-0.110	-1.220	2.480	237.14	-2.60	2.90	 	 	 	 	 	 	 	 	 	 	 	 	 	 	 	 	 	 	1581536788	9.47	17.54
12/02/2020 19:46:29	120220	12022020	194629	236.82	12.388125	-56.777263	236.93	-0.540	-0.570	2.190	236.77	-1.90	2.60	 	 	 	 	 	 	 	 	 	 	 	 	 	 	 	 	 	 	1581536789	9.22	17.08
12/02/2020 19:46:30	120220	12022020	194630	236.69	12.388103	-56.777302	236.84	-0.620	-0.080	1.480	236.70	-1.40	1.90	 	 	 	 	 	 	 	 	 	 	 	 	 	 	 	 	 	 	1581536790	9.34	17.30
12/02/2020 19:46:31	120220	12022020	194631	236.88	12.388080	-56.777342	237.07	-0.370	0.020	0.670	236.95	-1.30	1.10	 	 	 	 	 	 	 	 	 	 	 	 	 	 	 	 	 	 	1581536791	9.78	18.11
12/02/2020 19:46:32	120220	12022020	194632	237.27	12.388057	-56.777383	237.45	-0.070	-0.110	0.090	237.36	-1.50	0.50	 	 	 	 	 	 	 	 	 	 	 	 	 	 	 	 	 	 	1581536792	10.12	18.74
12/02/2020 19:46:33	120220	12022020	194633	237.61	12.388033	-56.777425	237.76	0.040	-0.220	-0.000	237.66	-1.60	0.40	 	 	 	 	 	 	 	 	 	 	 	 	 	 	 	 	 	 	1581536793	10.19	18.87
12/02/2020 19:46:34	120220	12022020	194634	237.76	12.388013	-56.777467	237.89	-0.040	-0.030	0.380	237.77	-1.40	0.80	 	 	 	 	 	 	 	 	 	 	 	 	 	 	 	 	 	 	1581536794	9.96	18.45
12/02/2020 19:46:35	120220	12022020	194635	237.79	12.387995	-56.777508	237.92	-0.210	0.430	0.870	237.79	-1.00	1.30	 	 	 	 	 	 	 	 	 	 	 	 	 	 	 	 	 	 	1581536795	9.52	17.63
12/02/2020 19:46:36	120220	12022020	194636	237.72	12.387977	-56.777548	237.84	-0.280	0.700	1.240	237.70	-0.70	1.70	 	 	 	 	 	 	 	 	 	 	 	 	 	 	 	 	 	 	1581536796	9.32	17.26
12/02/2020 19:46:37	120220	12022020	194637	237.55	12.387957	-56.777588	237.65	-0.140	0.490	1.440	237.50	-0.90	1.90	 	 	 	 	 	 	 	 	 	 	 	 	 	 	 	 	 	 	1581536797	9.56	17.71
12/02/2020 19:46:38	120220	12022020	194638	237.28	12.387937	-56.777630	237.37	0.140	0.030	1.390	237.23	-1.30	1.80	 	 	 	 	 	 	 	 	 	 	 	 	 	 	 	 	 	 	1581536798	9.76	18.08
12/02/2020 19:46:39	120220	12022020	194639	237.04	12.387915	-56.777670	237.14	0.440	-0.280	1.090	237.01	-1.60	1.50	 	 	 	 	 	 	 	 	 	 	 	 	 	 	 	 	 	 	1581536799	9.54	17.67
12/02/2020 19:46:40	120220	12022020	194640	236.98	12.387893	-56.777707	237.10	0.650	-0.430	0.700	236.99	-1.80	1.20	 	 	 	 	 	 	 	 	 	 	 	 	 	 	 	 	 	 	1581536800	9.13	16.91
12/02/2020 19:46:41	120220	12022020	194641	237.03	12.387872	-56.777743	237.12	0.730	-0.770	0.410	237.03	-2.10	0.90	 	 	 	 	 	 	 	 	 	 	 	 	 	 	 	 	 	 	1581536801	9.11	16.87
12/02/2020 19:46:42	120220	12022020	194642	236.98	12.387850	-56.777783	237.07	0.620	-1.440	0.400	236.96	-2.80	0.80	 	 	 	 	 	 	 	 	 	 	 	 	 	 	 	 	 	 	1581536802	9.63	17.83
12/02/2020 19:46:43	120220	12022020	194643	236.89	12.387828	-56.777825	236.99	0.310	-1.940	0.540	236.88	-3.30	1.00	 	 	 	 	 	 	 	 	 	 	 	 	 	 	 	 	 	 	1581536803	10.07	18.65
12/02/2020 19:46:44	120220	12022020	194644	236.89	12.387807	-56.777867	237.00	-0.130	-1.790	0.710	236.88	-3.20	1.10	 	 	 	 	 	 	 	 	 	 	 	 	 	 	 	 	 	 	1581536804	9.92	18.37
12/02/2020 19:46:45	120220	12022020	194645	236.83	12.387787	-56.777908	236.93	-0.590	-1.150	1.070	236.81	-2.50	1.50	 	 	 	 	 	 	 	 	 	 	 	 	 	 	 	 	 	 	1581536805	9.71	17.98
12/02/2020 19:46:46	120220	12022020	194646	236.67	12.387768	-56.777950	236.79	-0.960	-0.330	1.590	236.64	-1.70	2.00	 	 	 	 	 	 	 	 	 	 	 	 	 	 	 	 	 	 	1581536806	9.82	18.19
12/02/2020 19:46:47	120220	12022020	194647	236.58	12.387750	-56.777993	236.72	-1.100	0.460	1.890	236.56	-0.90	2.30	 	 	 	 	 	 	 	 	 	 	 	 	 	 	 	 	 	 	1581536807	9.92	18.37
12/02/2020 19:46:48	120220	12022020	194648	236.56	12.387730	-56.778037	236.74	-0.900	1.000	1.860	236.56	-0.40	2.30	 	 	 	 	 	 	 	 	 	 	 	 	 	 	 	 	 	 	1581536808	9.95	18.43
12/02/2020 19:46:49	120220	12022020	194649	236.59	12.387708	-56.778078	236.79	-0.440	1.220	1.600	236.60	-0.20	2.00	 	 	 	 	 	 	 	 	 	 	 	 	 	 	 	 	 	 	1581536809	9.98	18.48
12/02/2020 19:46:50	120220	12022020	194650	236.66	12.387683	-56.778118	236.85	0.040	1.180	1.230	236.67	-0.20	1.70	 	 	 	 	 	 	 	 	 	 	 	 	 	 	 	 	 	 	1581536810	9.89	18.32
12/02/2020 19:46:51	120220	12022020	194651	236.72	12.387660	-56.778157	236.91	0.400	0.970	0.850	236.73	-0.40	1.30	 	 	 	 	 	 	 	 	 	 	 	 	 	 	 	 	 	 	1581536811	9.59	17.76
12/02/2020 19:46:52	120220	12022020	194652	236.77	12.387638	-56.778195	236.95	0.680	0.480	0.560	236.77	-0.90	1.00	 	 	 	 	 	 	 	 	 	 	 	 	 	 	 	 	 	 	1581536812	9.36	17.33
12/02/2020 19:46:53	120220	12022020	194653	236.74	12.387617	-56.778233	236.88	0.940	-0.320	0.540	236.72	-1.70	1.00	 	 	 	 	 	 	 	 	 	 	 	 	 	 	 	 	 	 	1581536813	9.37	17.35
12/02/2020 19:46:54	120220	12022020	194654	236.56	12.387595	-56.778273	236.68	1.060	-1.340	0.830	236.50	-2.70	1.30	 	 	 	 	 	 	 	 	 	 	 	 	 	 	 	 	 	 	1581536814	9.64	17.85
12/02/2020 19:46:55	120220	12022020	194655	236.25	12.387575	-56.778315	236.37	0.840	-2.130	1.240	236.19	-3.50	1.70	 	 	 	 	 	 	 	 	 	 	 	 	 	 	 	 	 	 	1581536815	9.86	18.26
12/02/2020 19:46:56	120220	12022020	194656	235.97	12.387555	-56.778357	236.10	0.260	-2.220	1.520	235.93	-3.60	1.90	 	 	 	 	 	 	 	 	 	 	 	 	 	 	 	 	 	 	1581536816	9.68	17.93
12/02/2020 19:46:57	120220	12022020	194657	235.86	12.387537	-56.778395	236.01	-0.360	-1.650	1.560	235.85	-3.00	2.00	 	 	 	 	 	 	 	 	 	 	 	 	 	 	 	 	 	 	1581536817	9.32	17.26
12/02/2020 19:46:58	120220	12022020	194658	235.87	12.387517	-56.778435	236.06	-0.680	-0.920	1.400	235.88	-2.30	1.80	 	 	 	 	 	 	 	 	 	 	 	 	 	 	 	 	 	 	1581536818	9.34	17.30
12/02/2020 19:46:59	120220	12022020	194659	235.93	12.387495	-56.778477	236.14	-0.630	-0.340	1.250	235.94	-1.70	1.70	 	 	 	 	 	 	 	 	 	 	 	 	 	 	 	 	 	 	1581536819	9.75	18.06
12/02/2020 19:47:00	120220	12022020	194700	236.15	12.387473	-56.778518	236.40	-0.460	0.130	1.140	236.22	-1.20	1.60	 	 	 	 	 	 	 	 	 	 	 	 	 	 	 	 	 	 	1581536820	10.10	18.71
12/02/2020 19:47:01	120220	12022020	194701	236.47	12.387450	-56.778560	236.84	-0.380	0.560	0.960	236.57	-0.80	1.40	 	 	 	 	 	 	 	 	 	 	 	 	 	 	 	 	 	 	1581536821	10.09	18.69
12/02/2020 19:47:02	120220	12022020	194702	237.03	12.387428	-56.778600	237.29	-0.390	0.960	0.720	237.11	-0.40	1.20	1014.60	26.40	26.50	20.60	20.70	465.0	70.0	70.0	396.0	28.8	229.00	6.10	84.00	10.10	30899	8447.0	27.5	27.5	1581536822	9.87	18.28
12/02/2020 19:47:03	120220	12022020	194703	237.39	12.387405	-56.778640	237.63	-0.320	1.160	0.470	237.45	-0.20	0.90	 	 	 	 	 	 	 	 	 	 	 	 	 	 	 	 	 	 	1581536823	9.63	17.83
12/02/2020 19:47:04	120220	12022020	194704	237.54	12.387382	-56.778678	237.73	-0.060	0.910	0.360	237.54	-0.40	0.80	 	 	 	 	 	 	 	 	 	 	 	 	 	 	 	 	 	 	1581536824	9.63	17.83
12/02/2020 19:47:05	120220	12022020	194705	237.37	12.387358	-56.778718	237.48	0.330	0.190	0.570	237.29	-1.10	1.00	 	 	 	 	 	 	 	 	 	 	 	 	 	 	 	 	 	 	1581536825	9.83	18.21
12/02/2020 19:47:06	120220	12022020	194706	236.84	12.387335	-56.778760	236.90	0.660	-0.720	1.150	236.70	-2.00	1.60	 	 	 	 	 	 	 	 	 	 	 	 	 	 	 	 	 	 	1581536826	9.99	18.50
12/02/2020 19:47:07	120220	12022020	194707	236.09	12.387315	-56.778802	236.15	0.800	-1.430	1.870	235.93	-2.80	2.30	 	 	 	 	 	 	 	 	 	 	 	 	 	 	 	 	 	 	1581536827	10.02	18.56
12/02/2020 19:47:08	120220	12022020	194708	235.33	12.387295	-56.778843	235.43	0.650	-1.610	2.470	235.20	-2.90	2.90	 	 	 	 	 	 	 	 	 	 	 	 	 	 	 	 	 	 	1581536828	9.84	18.22
12/02/2020 19:47:09	120220	12022020	194709	234.83	12.387277	-56.778885	235.00	0.200	-1.150	2.650	234.78	-2.50	3.10	 	 	 	 	 	 	 	 	 	 	 	 	 	 	 	 	 	 	1581536829	9.47	17.54
12/02/2020 19:47:10	120220	12022020	194710	234.76	12.387260	-56.778925	234.99	-0.300	-0.460	2.300	234.79	-1.80	2.80	 	 	 	 	 	 	 	 	 	 	 	 	 	 	 	 	 	 	1581536830	9.19	17.02
12/02/2020 19:47:11	120220	12022020	194711	235.05	12.387242	-56.778965	235.32	-0.480	0.040	1.550	235.15	-1.30	2.00	 	 	 	 	 	 	 	 	 	 	 	 	 	 	 	 	 	 	1581536831	9.28	17.19
12/02/2020 19:47:12	120220	12022020	194712	235.60	12.387220	-56.779003	235.89	-0.280	0.220	0.590	235.72	-1.10	1.10	 	 	 	 	 	 	 	 	 	 	 	 	 	 	 	 	 	 	1581536832	9.52	17.63
12/02/2020 19:47:13	120220	12022020	194713	236.25	12.387195	-56.779042	236.55	0.010	0.080	-0.220	236.39	-1.30	0.30	 	 	 	 	 	 	 	 	 	 	 	 	 	 	 	 	 	 	1581536833	9.79	18.13
12/02/2020 19:47:14	120220	12022020	194714	236.95	12.387168	-56.779082	237.24	0.120	-0.260	-0.540	237.08	-1.60	-0.10	 	 	 	 	 	 	 	 	 	 	 	 	 	 	 	 	 	 	1581536834	9.98	18.48
12/02/2020 19:47:15	120220	12022020	194715	237.53	12.387143	-56.779120	237.76	0.050	-0.540	-0.380	237.61	-1.90	0.10	 	 	 	 	 	 	 	 	 	 	 	 	 	 	 	 	 	 	1581536835	9.91	18.35
12/02/2020 19:47:16	120220	12022020	194716	237.77	12.387120	-56.779160	237.92	0.040	-0.640	0.170	237.76	-2.00	0.60	 	 	 	 	 	 	 	 	 	 	 	 	 	 	 	 	 	 	1581536836	9.72	18.00
12/02/2020 19:47:17	120220	12022020	194717	237.50	12.387100	-56.779202	237.56	0.140	-0.670	1.120	237.38	-2.00	1.50	 	 	 	 	 	 	 	 	 	 	 	 	 	 	 	 	 	 	1581536837	9.72	18.00
12/02/2020 19:47:18	120220	12022020	194718	236.76	12.387080	-56.779243	236.78	0.130	-0.600	2.230	236.57	-2.00	2.60	 	 	 	 	 	 	 	 	 	 	 	 	 	 	 	 	 	 	1581536838	9.86	18.26
12/02/2020 19:47:19	120220	12022020	194719	235.82	12.387062	-56.779287	235.88	-0.090	-0.370	3.020	235.64	-1.70	3.40	 	 	 	 	 	 	 	 	 	 	 	 	 	 	 	 	 	 	1581536839	9.94	18.41
12/02/2020 19:47:20	120220	12022020	194720	234.99	12.387043	-56.779330	235.08	-0.330	0.020	3.340	234.84	-1.30	3.80	 	 	 	 	 	 	 	 	 	 	 	 	 	 	 	 	 	 	1581536840	9.83	18.21
12/02/2020 19:47:21	120220	12022020	194721	234.38	12.387027	-56.779370	234.54	-0.330	0.460	3.140	234.31	-0.90	3.60	 	 	 	 	 	 	 	 	 	 	 	 	 	 	 	 	 	 	1581536841	9.62	17.82
12/02/2020 19:47:22	120220	12022020	194722	234.21	12.387005	-56.779410	234.44	-0.070	0.720	2.270	234.24	-0.60	2.80	 	 	 	 	 	 	 	 	 	 	 	 	 	 	 	 	 	 	1581536842	9.39	17.39
12/02/2020 19:47:23	120220	12022020	194723	234.54	12.386980	-56.779447	234.85	0.240	0.510	1.040	234.66	-0.80	1.50	 	 	 	 	 	 	 	 	 	 	 	 	 	 	 	 	 	 	1581536843	9.43	17.46
12/02/2020 19:47:24	120220	12022020	194724	235.25	12.386955	-56.779485	235.60	0.420	-0.120	0.050	235.42	-1.50	0.50	 	 	 	 	 	 	 	 	 	 	 	 	 	 	 	 	 	 	1581536844	9.65	17.87
12/02/2020 19:47:25	120220	12022020	194725	236.10	12.386932	-56.779523	236.43	0.470	-0.860	-0.320	236.27	-2.20	0.10	 	 	 	 	 	 	 	 	 	 	 	 	 	 	 	 	 	 	1581536845	9.70	17.96
12/02/2020 19:47:26	120220	12022020	194726	236.84	12.386912	-56.779563	237.10	0.450	-1.330	-0.160	236.95	-2.70	0.30	 	 	 	 	 	 	 	 	 	 	 	 	 	 	 	 	 	 	1581536846	9.57	17.72
12/02/2020 19:47:27	120220	12022020	194727	237.32	12.386892	-56.779603	237.52	0.410	-1.340	0.250	237.38	-2.70	0.70	 	 	 	 	 	 	 	 	 	 	 	 	 	 	 	 	 	 	1581536847	9.27	17.17
12/02/2020 19:47:28	120220	12022020	194728	237.46	12.386872	-56.779642	237.58	0.300	-1.120	0.830	237.43	-2.50	1.30	 	 	 	 	 	 	 	 	 	 	 	 	 	 	 	 	 	 	1581536848	9.12	16.89
12/02/2020 19:47:29	120220	12022020	194729	237.14	12.386852	-56.779680	237.20	0.030	-0.920	1.500	237.03	-2.30	1.90	 	 	 	 	 	 	 	 	 	 	 	 	 	 	 	 	 	 	1581536849	9.40	17.41
12/02/2020 19:47:30	120220	12022020	194730	236.57	12.386830	-56.779722	236.64	-0.360	-0.700	1.990	236.45	-2.10	2.40	 	 	 	 	 	 	 	 	 	 	 	 	 	 	 	 	 	 	1581536850	9.80	18.15
12/02/2020 19:47:31	120220	12022020	194731	236.04	12.386808	-56.779763	236.13	-0.720	-0.310	2.230	235.94	-1.70	2.70	 	 	 	 	 	 	 	 	 	 	 	 	 	 	 	 	 	 	1581536851	9.92	18.37
12/02/2020 19:47:32	120220	12022020	194732	235.54	12.386788	-56.779803	235.62	-0.850	0.270	2.290	235.43	-1.10	2.70	 	 	 	 	 	 	 	 	 	 	 	 	 	 	 	 	 	 	1581536852	9.79	18.13
12/02/2020 19:47:33	120220	12022020	194733	234.99	12.386768	-56.779845	235.07	-0.690	0.790	2.360	234.87	-0.60	2.80	 	 	 	 	 	 	 	 	 	 	 	 	 	 	 	 	 	 	1581536853	9.69	17.95
12/02/2020 19:47:34	120220	12022020	194734	234.46	12.386748	-56.779887	234.56	-0.310	1.060	2.270	234.37	-0.30	2.70	 	 	 	 	 	 	 	 	 	 	 	 	 	 	 	 	 	 	1581536854	9.69	17.95
12/02/2020 19:47:35	120220	12022020	194735	234.23	12.386728	-56.779927	234.40	0.140	1.030	1.660	234.22	-0.30	2.10	 	 	 	 	 	 	 	 	 	 	 	 	 	 	 	 	 	 	1581536855	9.55	17.69
12/02/2020 19:47:36	120220	12022020	194736	234.48	12.386705	-56.779963	234.74	0.530	0.670	0.730	234.59	-0.70	1.20	 	 	 	 	 	 	 	 	 	 	 	 	 	 	 	 	 	 	1581536856	9.28	17.19
12/02/2020 19:47:37	120220	12022020	194737	235.11	12.386682	-56.780000	235.42	0.780	-0.100	-0.070	235.26	-1.40	0.40	 	 	 	 	 	 	 	 	 	 	 	 	 	 	 	 	 	 	1581536857	9.26	17.15
12/02/2020 19:47:38	120220	12022020	194738	235.84	12.386657	-56.780037	236.11	0.830	-1.040	-0.370	235.97	-2.40	0.10	 	 	 	 	 	 	 	 	 	 	 	 	 	 	 	 	 	 	1581536858	9.42	17.45
12/02/2020 19:47:39	120220	12022020	194739	236.38	12.386637	-56.780077	236.57	0.660	-1.690	-0.120	236.44	-3.00	0.30	 	 	 	 	 	 	 	 	 	 	 	 	 	 	 	 	 	 	1581536859	9.37	17.35
12/02/2020 19:47:40	120220	12022020	194740	236.53	12.386617	-56.780115	236.64	0.330	-1.910	0.600	236.51	-3.30	1.00	 	 	 	 	 	 	 	 	 	 	 	 	 	 	 	 	 	 	1581536860	9.24	17.11
12/02/2020 19:47:41	120220	12022020	194741	236.31	12.386598	-56.780155	236.38	-0.070	-1.820	1.510	236.22	-3.20	1.90	 	 	 	 	 	 	 	 	 	 	 	 	 	 	 	 	 	 	1581536861	9.30	17.22
12/02/2020 19:47:42	120220	12022020	194742	235.82	12.386580	-56.780197	235.89	-0.460	-1.570	2.320	235.70	-2.90	2.70	 	 	 	 	 	 	 	 	 	 	 	 	 	 	 	 	 	 	1581536862	9.61	17.80
12/02/2020 19:47:43	120220	12022020	194743	235.20	12.386560	-56.780238	235.27	-0.810	-0.980	2.840	235.07	-2.40	3.30	 	 	 	 	 	 	 	 	 	 	 	 	 	 	 	 	 	 	1581536863	9.86	18.26
12/02/2020 19:47:44	120220	12022020	194744	234.65	12.386540	-56.780280	234.77	-1.070	0.040	2.910	234.57	-1.40	3.40	 	 	 	 	 	 	 	 	 	 	 	 	 	 	 	 	 	 	1581536864	9.68	17.93
12/02/2020 19:47:45	120220	12022020	194745	234.37	12.386520	-56.780318	234.54	-1.020	1.180	2.500	234.35	-0.20	3.00	 	 	 	 	 	 	 	 	 	 	 	 	 	 	 	 	 	 	1581536865	9.31	17.24
12/02/2020 19:47:46	120220	12022020	194746	234.35	12.386497	-56.780355	234.56	-0.560	1.780	1.750	234.37	0.40	2.20	 	 	 	 	 	 	 	 	 	 	 	 	 	 	 	 	 	 	1581536866	9.26	17.15
12/02/2020 19:47:47	120220	12022020	194747	234.50	12.386472	-56.780393	234.75	0.160	1.510	0.960	234.55	0.20	1.40	 	 	 	 	 	 	 	 	 	 	 	 	 	 	 	 	 	 	1581536867	9.70	17.96
12/02/2020 19:47:48	120220	12022020	194748	234.80	12.386445	-56.780432	235.08	0.810	0.680	0.460	234.87	-0.70	0.90	 	 	 	 	 	 	 	 	 	 	 	 	 	 	 	 	 	 	1581536868	9.98	18.48
12/02/2020 19:47:49	120220	12022020	194749	235.05	12.386420	-56.780472	235.37	1.080	-0.210	0.480	235.10	-1.50	0.90	 	 	 	 	 	 	 	 	 	 	 	 	 	 	 	 	 	 	1581536869	9.78	18.11
12/02/2020 19:47:50	120220	12022020	194750	235.24	12.386400	-56.780510	235.46	0.890	-0.850	0.970	235.23	-2.20	1.40	 	 	 	 	 	 	 	 	 	 	 	 	 	 	 	 	 	 	1581536870	9.36	17.33
12/02/2020 19:47:51	120220	12022020	194751	235.17	12.386383	-56.780550	235.33	0.430	-1.230	1.700	235.14	-2.60	2.10	 	 	 	 	 	 	 	 	 	 	 	 	 	 	 	 	 	 	1581536871	9.12	16.89
12/02/2020 19:47:52	120220	12022020	194752	234.98	12.386367	-56.780590	235.18	-0.010	-1.370	2.240	234.97	-2.70	2.70	 	 	 	 	 	 	 	 	 	 	 	 	 	 	 	 	 	 	1581536872	9.11	16.87
12/02/2020 19:47:53	120220	12022020	194753	234.99	12.386350	-56.780628	235.21	-0.220	-1.210	2.220	235.01	-2.60	2.70	 	 	 	 	 	 	 	 	 	 	 	 	 	 	 	 	 	 	1581536873	9.02	16.71
12/02/2020 19:47:54	120220	12022020	194754	235.09	12.386328	-56.780665	235.30	-0.230	-0.920	1.840	235.10	-2.30	2.30	 	 	 	 	 	 	 	 	 	 	 	 	 	 	 	 	 	 	1581536874	8.98	16.63
12/02/2020 19:47:55	120220	12022020	194755	235.10	12.386305	-56.780702	235.28	-0.200	-0.750	1.480	235.08	-2.10	1.90	 	 	 	 	 	 	 	 	 	 	 	 	 	 	 	 	 	 	1581536875	9.28	17.19
12/02/2020 19:47:56	120220	12022020	194756	234.86	12.386280	-56.780740	234.98	-0.250	-0.760	1.420	234.77	-2.10	1.90	 	 	 	 	 	 	 	 	 	 	 	 	 	 	 	 	 	 	1581536876	9.70	17.96
12/02/2020 19:47:57	120220	12022020	194757	234.38	12.386255	-56.780780	234.49	-0.390	-0.670	1.600	234.28	-2.00	2.00	 	 	 	 	 	 	 	 	 	 	 	 	 	 	 	 	 	 	1581536877	9.96	18.45
12/02/2020 19:47:58	120220	12022020	194758	233.96	12.386233	-56.780820	234.11	-0.530	-0.200	1.650	233.90	-1.60	2.10	 	 	 	 	 	 	 	 	 	 	 	 	 	 	 	 	 	 	1581536878	9.75	18.06
12/02/2020 19:47:59	120220	12022020	194759	233.78	12.386212	-56.780858	233.97	-0.540	0.490	1.440	233.77	-0.90	1.90	 	 	 	 	 	 	 	 	 	 	 	 	 	 	 	 	 	 	1581536879	9.30	17.22
12/02/2020 19:48:00	120220	12022020	194800	233.82	12.386188	-56.780895	234.04	-0.300	0.930	1.160	233.86	-0.40	1.60	 	 	 	 	 	 	 	 	 	 	 	 	 	 	 	 	 	 	1581536880	9.18	17.00
12/02/2020 19:48:01	120220	12022020	194801	234.08	12.386167	-56.780933	234.34	0.130	0.850	0.880	234.16	-0.50	1.30	 	 	 	 	 	 	 	 	 	 	 	 	 	 	 	 	 	 	1581536881	9.43	17.46
12/02/2020 19:48:02	120220	12022020	194802	234.49	12.386142	-56.780972	234.75	0.520	0.480	0.810	234.57	-0.90	1.30	1014.60	26.40	26.50	20.70	20.80	476.0	70.0	71.0	396.0	28.9	236.00	6.70	88.00	10.30	30925	8694.0	27.5	27.5	1581536882	9.60	17.78
12/02/2020 19:48:03	120220	12022020	194803	234.83	12.386120	-56.781010	235.08	0.700	0.090	1.140	234.88	-1.30	1.60	 	 	 	 	 	 	 	 	 	 	 	 	 	 	 	 	 	 	1581536883	9.45	17.50
12/02/2020 19:48:04	120220	12022020	194804	234.92	12.386098	-56.781048	235.11	0.690	-0.300	1.710	234.89	-1.60	2.10	 	 	 	 	 	 	 	 	 	 	 	 	 	 	 	 	 	 	1581536884	9.24	17.11
12/02/2020 19:48:05	120220	12022020	194805	234.63	12.386078	-56.781088	234.76	0.570	-0.900	2.340	234.54	-2.20	2.80	 	 	 	 	 	 	 	 	 	 	 	 	 	 	 	 	 	 	1581536885	9.39	17.39
12/02/2020 19:48:06	120220	12022020	194806	234.08	12.386058	-56.781128	234.18	0.290	-1.510	2.710	233.96	-2.80	3.20	 	 	 	 	 	 	 	 	 	 	 	 	 	 	 	 	 	 	1581536886	9.73	18.02
12/02/2020 19:48:07	120220	12022020	194807	233.54	12.386037	-56.781168	233.67	-0.140	-1.580	2.420	233.46	-2.90	2.90	 	 	 	 	 	 	 	 	 	 	 	 	 	 	 	 	 	 	1581536887	9.59	17.76
12/02/2020 19:48:08	120220	12022020	194808	233.33	12.386015	-56.781205	233.51	-0.550	-0.990	1.440	233.34	-2.40	1.90	 	 	 	 	 	 	 	 	 	 	 	 	 	 	 	 	 	 	1581536888	8.96	16.59
12/02/2020 19:48:09	120220	12022020	194809	233.50	12.385990	-56.781237	233.72	-0.690	-0.250	0.230	233.57	-1.60	0.70	 	 	 	 	 	 	 	 	 	 	 	 	 	 	 	 	 	 	1581536889	8.64	16.00
12/02/2020 19:48:10	120220	12022020	194810	233.85	12.385963	-56.781270	234.08	-0.440	0.040	-0.610	233.93	-1.30	-0.10	 	 	 	 	 	 	 	 	 	 	 	 	 	 	 	 	 	 	1581536890	9.02	16.71
12/02/2020 19:48:11	120220	12022020	194811	234.22	12.385935	-56.781305	234.46	0.010	-0.080	-0.690	234.28	-1.40	-0.20	 	 	 	 	 	 	 	 	 	 	 	 	 	 	 	 	 	 	1581536891	9.61	17.80
12/02/2020 19:48:12	120220	12022020	194812	234.56	12.385910	-56.781345	234.85	0.300	-0.190	-0.130	234.63	-1.60	0.30	 	 	 	 	 	 	 	 	 	 	 	 	 	 	 	 	 	 	1581536892	9.78	18.11
12/02/2020 19:48:13	120220	12022020	194813	234.81	12.385890	-56.781385	235.15	0.310	-0.100	0.760	234.87	-1.50	1.20	 	 	 	 	 	 	 	 	 	 	 	 	 	 	 	 	 	 	1581536893	9.59	17.76
12/02/2020 19:48:14	120220	12022020	194814	235.07	12.385870	-56.781425	235.33	0.160	0.090	1.710	235.10	-1.30	2.10	 	 	 	 	 	 	 	 	 	 	 	 	 	 	 	 	 	 	1581536894	9.46	17.52
12/02/2020 19:48:15	120220	12022020	194815	235.22	12.385853	-56.781465	235.48	0.000	0.190	2.270	235.25	-1.20	2.70	 	 	 	 	 	 	 	 	 	 	 	 	 	 	 	 	 	 	1581536895	9.40	17.41
12/02/2020 19:48:16	120220	12022020	194816	235.32	12.385833	-56.781505	235.55	-0.060	0.040	2.260	235.33	-1.30	2.70	 	 	 	 	 	 	 	 	 	 	 	 	 	 	 	 	 	 	1581536896	9.46	17.52
12/02/2020 19:48:17	120220	12022020	194817	235.24	12.385810	-56.781545	235.41	-0.040	-0.370	1.720	235.20	-1.70	2.20	 	 	 	 	 	 	 	 	 	 	 	 	 	 	 	 	 	 	1581536897	9.60	17.78
12/02/2020 19:48:18	120220	12022020	194818	235.00	12.385783	-56.781582	235.15	-0.030	-0.790	0.840	234.95	-2.10	1.30	 	 	 	 	 	 	 	 	 	 	 	 	 	 	 	 	 	 	1581536898	9.74	18.04
12/02/2020 19:48:19	120220	12022020	194819	234.74	12.385755	-56.781617	234.88	-0.090	-0.940	0.120	234.69	-2.30	0.60	 	 	 	 	 	 	 	 	 	 	 	 	 	 	 	 	 	 	1581536899	9.61	17.80
12/02/2020 19:48:20	120220	12022020	194820	234.50	12.385730	-56.781652	234.65	-0.190	-0.730	-0.120	234.46	-2.10	0.30	 	 	 	 	 	 	 	 	 	 	 	 	 	 	 	 	 	 	1581536900	9.30	17.22
12/02/2020 19:48:21	120220	12022020	194821	234.28	12.385707	-56.781688	234.45	-0.280	-0.270	0.070	234.24	-1.70	0.50	 	 	 	 	 	 	 	 	 	 	 	 	 	 	 	 	 	 	1581536901	9.03	16.72
12/02/2020 19:48:22	120220	12022020	194822	234.10	12.385685	-56.781725	234.30	-0.280	0.150	0.550	234.08	-1.20	1.00	 	 	 	 	 	 	 	 	 	 	 	 	 	 	 	 	 	 	1581536902	8.99	16.65
12/02/2020 19:48:23	120220	12022020	194823	234.10	12.385667	-56.781763	234.37	-0.140	0.310	1.080	234.14	-1.10	1.50	 	 	 	 	 	 	 	 	 	 	 	 	 	 	 	 	 	 	1581536903	9.21	17.06
12/02/2020 19:48:24	120220	12022020	194824	234.40	12.385647	-56.781803	234.72	0.090	0.200	1.360	234.49	-1.20	1.80	 	 	 	 	 	 	 	 	 	 	 	 	 	 	 	 	 	 	1581536904	9.41	17.43
12/02/2020 19:48:25	120220	12022020	194825	234.92	12.385627	-56.781843	235.25	0.360	0.000	1.340	235.03	-1.40	1.80	 	 	 	 	 	 	 	 	 	 	 	 	 	 	 	 	 	 	1581536905	9.41	17.43
12/02/2020 19:48:26	120220	12022020	194826	235.45	12.385605	-56.781882	235.75	0.560	-0.270	1.160	235.54	-1.60	1.60	 	 	 	 	 	 	 	 	 	 	 	 	 	 	 	 	 	 	1581536906	9.30	17.22
12/02/2020 19:48:27	120220	12022020	194827	235.83	12.385582	-56.781918	236.07	0.580	-0.660	0.870	235.88	-2.00	1.30	 	 	 	 	 	 	 	 	 	 	 	 	 	 	 	 	 	 	1581536907	9.35	17.32
12/02/2020 19:48:28	120220	12022020	194828	235.99	12.385558	-56.781957	236.20	0.390	-1.080	0.550	236.00	-2.40	1.00	 	 	 	 	 	 	 	 	 	 	 	 	 	 	 	 	 	 	1581536908	9.55	17.69
12/02/2020 19:48:29	120220	12022020	194829	236.03	12.385532	-56.781993	236.23	0.040	-1.180	0.170	236.04	-2.60	0.60	 	 	 	 	 	 	 	 	 	 	 	 	 	 	 	 	 	 	1581536909	9.60	17.78
12/02/2020 19:48:30	120220	12022020	194830	236.00	12.385507	-56.782030	236.17	-0.340	-0.870	0.010	235.98	-2.30	0.50	 	 	 	 	 	 	 	 	 	 	 	 	 	 	 	 	 	 	1581536910	9.35	17.32
12/02/2020 19:48:31	120220	12022020	194831	235.83	12.385483	-56.782067	235.98	-0.570	-0.410	0.320	235.78	-1.80	0.80	 	 	 	 	 	 	 	 	 	 	 	 	 	 	 	 	 	 	1581536911	9.26	17.15
12/02/2020 19:48:32	120220	12022020	194832	235.50	12.385462	-56.782105	235.63	-0.590	-0.030	0.970	235.42	-1.40	1.40	 	 	 	 	 	 	 	 	 	 	 	 	 	 	 	 	 	 	1581536912	9.37	17.35
12/02/2020 19:48:33	120220	12022020	194833	235.02	12.385440	-56.782145	235.14	-0.470	0.160	1.730	234.92	-1.20	2.20	 	 	 	 	 	 	 	 	 	 	 	 	 	 	 	 	 	 	1581536913	9.59	17.76
12/02/2020 19:48:34	120220	12022020	194834	234.57	12.385420	-56.782187	234.72	-0.360	0.190	2.290	234.49	-1.20	2.70	 	 	 	 	 	 	 	 	 	 	 	 	 	 	 	 	 	 	1581536914	9.76	18.08
12/02/2020 19:48:35	120220	12022020	194835	234.38	12.385402	-56.782228	234.60	-0.270	0.170	2.350	234.38	-1.20	2.80	 	 	 	 	 	 	 	 	 	 	 	 	 	 	 	 	 	 	1581536915	9.67	17.91
12/02/2020 19:48:36	120220	12022020	194836	234.53	12.385382	-56.782268	234.80	-0.070	0.080	1.920	234.60	-1.30	2.40	 	 	 	 	 	 	 	 	 	 	 	 	 	 	 	 	 	 	1581536916	9.47	17.54
12/02/2020 19:48:37	120220	12022020	194837	234.95	12.385358	-56.782305	235.26	0.280	-0.040	1.160	235.06	-1.40	1.60	 	 	 	 	 	 	 	 	 	 	 	 	 	 	 	 	 	 	1581536917	9.32	17.26
12/02/2020 19:48:38	120220	12022020	194838	235.59	12.385333	-56.782340	235.92	0.560	-0.150	0.370	235.74	-1.50	0.90	 	 	 	 	 	 	 	 	 	 	 	 	 	 	 	 	 	 	1581536918	9.24	17.11
12/02/2020 19:48:39	120220	12022020	194839	236.16	12.385308	-56.782375	236.57	0.550	-0.290	-0.050	236.28	-1.70	0.40	 	 	 	 	 	 	 	 	 	 	 	 	 	 	 	 	 	 	1581536919	9.17	16.98
12/02/2020 19:48:40	120220	12022020	194840	236.69	12.385285	-56.782412	236.90	0.340	-0.480	-0.010	236.74	-1.90	0.40	 	 	 	 	 	 	 	 	 	 	 	 	 	 	 	 	 	 	1581536920	9.21	17.06
12/02/2020 19:48:41	120220	12022020	194841	236.89	12.385262	-56.782448	237.06	0.120	-0.570	0.170	236.91	-1.90	0.60	 	 	 	 	 	 	 	 	 	 	 	 	 	 	 	 	 	 	1581536921	9.19	17.02
12/02/2020 19:48:42	120220	12022020	194842	236.86	12.385240	-56.782487	236.97	-0.000	-0.670	0.600	236.81	-2.00	1.00	 	 	 	 	 	 	 	 	 	 	 	 	 	 	 	 	 	 	1581536922	9.19	17.02
12/02/2020 19:48:43	120220	12022020	194843	236.48	12.385218	-56.782525	236.56	-0.020	-0.870	1.220	236.37	-2.20	1.60	 	 	 	 	 	 	 	 	 	 	 	 	 	 	 	 	 	 	1581536923	9.48	17.56
12/02/2020 19:48:44	120220	12022020	194844	235.85	12.385198	-56.782567	235.90	-0.010	-0.980	1.770	235.70	-2.40	2.20	 	 	 	 	 	 	 	 	 	 	 	 	 	 	 	 	 	 	1581536924	9.68	17.93
12/02/2020 19:48:45	120220	12022020	194845	235.08	12.385178	-56.782607	235.14	-0.050	-0.900	2.140	234.93	-2.30	2.60	 	 	 	 	 	 	 	 	 	 	 	 	 	 	 	 	 	 	1581536925	9.70	17.96
12/02/2020 19:48:46	120220	12022020	194846	234.50	12.385157	-56.782647	234.63	-0.200	-0.530	2.190	234.43	-1.90	2.60	 	 	 	 	 	 	 	 	 	 	 	 	 	 	 	 	 	 	1581536926	9.56	17.71
12/02/2020 19:48:47	120220	12022020	194847	234.33	12.385137	-56.782687	234.53	-0.390	-0.010	1.880	234.35	-1.40	2.30	 	 	 	 	 	 	 	 	 	 	 	 	 	 	 	 	 	 	1581536927	9.35	17.32
12/02/2020 19:48:48	120220	12022020	194848	234.66	12.385115	-56.782723	234.95	-0.480	0.460	1.210	234.79	-0.90	1.70	 	 	 	 	 	 	 	 	 	 	 	 	 	 	 	 	 	 	1581536928	9.25	17.13
12/02/2020 19:48:49	120220	12022020	194849	235.44	12.385092	-56.782760	235.78	-0.410	0.760	0.390	235.63	-0.60	0.90	 	 	 	 	 	 	 	 	 	 	 	 	 	 	 	 	 	 	1581536929	9.22	17.08
12/02/2020 19:48:50	120220	12022020	194850	236.37	12.385067	-56.782797	236.69	-0.190	0.730	-0.180	236.53	-0.70	0.30	 	 	 	 	 	 	 	 	 	 	 	 	 	 	 	 	 	 	1581536930	9.23	17.09
12/02/2020 19:48:51	120220	12022020	194851	237.07	12.385043	-56.782833	237.34	0.060	0.250	-0.240	237.17	-1.10	0.20	 	 	 	 	 	 	 	 	 	 	 	 	 	 	 	 	 	 	1581536931	9.42	17.45
12/02/2020 19:48:52	120220	12022020	194852	237.41	12.385020	-56.782872	237.60	0.260	-0.500	0.130	237.43	-1.90	0.60	 	 	 	 	 	 	 	 	 	 	 	 	 	 	 	 	 	 	1581536932	9.63	17.83
12/02/2020 19:48:53	120220	12022020	194853	237.37	12.384997	-56.782912	237.50	0.360	-1.150	0.810	237.33	-2.50	1.20	 	 	 	 	 	 	 	 	 	 	 	 	 	 	 	 	 	 	1581536933	9.65	17.87
12/02/2020 19:48:54	120220	12022020	194854	237.05	12.384977	-56.782952	237.16	0.360	-1.430	1.520	236.98	-2.80	1.90	 	 	 	 	 	 	 	 	 	 	 	 	 	 	 	 	 	 	1581536934	9.48	17.56
12/02/2020 19:48:55	120220	12022020	194855	236.71	12.384957	-56.782990	236.84	0.240	-1.210	1.830	236.67	-2.60	2.30	 	 	 	 	 	 	 	 	 	 	 	 	 	 	 	 	 	 	1581536935	9.23	17.09
12/02/2020 19:48:56	120220	12022020	194856	236.52	12.384938	-56.783028	236.65	0.060	-0.560	1.750	236.48	-2.00	2.20	 	 	 	 	 	 	 	 	 	 	 	 	 	 	 	 	 	 	1581536936	8.89	16.46
12/02/2020 19:48:57	120220	12022020	194857	236.31	12.384917	-56.783065	236.43	-0.100	0.100	1.620	236.26	-1.30	2.10	 	 	 	 	 	 	 	 	 	 	 	 	 	 	 	 	 	 	1581536937	8.84	16.37
12/02/2020 19:48:58	120220	12022020	194858	236.08	12.384897	-56.783102	236.19	-0.170	0.420	1.530	236.03	-1.00	2.00	 	 	 	 	 	 	 	 	 	 	 	 	 	 	 	 	 	 	1581536938	9.12	16.89
12/02/2020 19:48:59	120220	12022020	194859	235.90	12.384875	-56.783140	236.04	-0.180	0.320	1.490	235.88	-1.10	1.90	 	 	 	 	 	 	 	 	 	 	 	 	 	 	 	 	 	 	1581536939	9.53	17.65
12/02/2020 19:49:00	120220	12022020	194900	235.89	12.384853	-56.783182	236.08	-0.140	-0.030	1.370	235.92	-1.40	1.80	 	 	 	 	 	 	 	 	 	 	 	 	 	 	 	 	 	 	1581536940	9.75	18.06
12/02/2020 19:49:01	120220	12022020	194901	236.16	12.384830	-56.783222	236.41	-0.050	-0.410	0.970	236.26	-1.80	1.40	 	 	 	 	 	 	 	 	 	 	 	 	 	 	 	 	 	 	1581536941	9.71	17.98
12/02/2020 19:49:02	120220	12022020	194902	236.79	12.384808	-56.783260	237.11	0.040	-0.680	0.300	236.96	-2.10	0.80	1014.60	26.30	26.40	20.40	20.50	475.0	70.0	70.0	396.0	28.9	230.00	6.60	85.00	10.40	29935	8750.0	27.5	27.5	1581536942	9.54	17.67
12/02/2020 19:49:03	120220	12022020	194903	237.49	12.384785	-56.783297	237.99	0.020	-0.730	-0.210	237.68	-2.10	0.20	 	 	 	 	 	 	 	 	 	 	 	 	 	 	 	 	 	 	1581536943	9.30	17.22
12/02/2020 19:49:04	120220	12022020	194904	238.43	12.384763	-56.783335	238.66	-0.100	-0.630	-0.290	238.54	-2.00	0.20	 	 	 	 	 	 	 	 	 	 	 	 	 	 	 	 	 	 	1581536944	9.14	16.93
12/02/2020 19:49:05	120220	12022020	194905	238.76	12.384743	-56.783373	238.92	-0.180	-0.420	-0.030	238.79	-1.80	0.40	 	 	 	 	 	 	 	 	 	 	 	 	 	 	 	 	 	 	1581536945	9.13	16.91
12/02/2020 19:49:06	120220	12022020	194906	238.72	12.384722	-56.783410	238.79	-0.110	-0.090	0.430	238.66	-1.50	0.90	 	 	 	 	 	 	 	 	 	 	 	 	 	 	 	 	 	 	1581536946	9.13	16.91
12/02/2020 19:49:07	120220	12022020	194907	238.32	12.384700	-56.783447	238.34	0.010	0.240	1.020	238.21	-1.20	1.40	 	 	 	 	 	 	 	 	 	 	 	 	 	 	 	 	 	 	1581536947	9.10	16.85
12/02/2020 19:49:08	120220	12022020	194908	237.73	12.384682	-56.783487	237.75	0.050	0.270	1.650	237.60	-1.10	2.10	 	 	 	 	 	 	 	 	 	 	 	 	 	 	 	 	 	 	1581536948	9.27	17.17
12/02/2020 19:49:09	120220	12022020	194909	237.11	12.384662	-56.783527	237.15	0.060	0.000	2.100	237.00	-1.40	2.50	 	 	 	 	 	 	 	 	 	 	 	 	 	 	 	 	 	 	1581536949	9.58	17.74
12/02/2020 19:49:10	120220	12022020	194910	236.71	12.384643	-56.783568	236.82	0.120	-0.290	2.060	236.69	-1.70	2.50	 	 	 	 	 	 	 	 	 	 	 	 	 	 	 	 	 	 	1581536950	9.63	17.83
12/02/2020 19:49:11	120220	12022020	194911	236.75	12.384622	-56.783607	236.90	0.210	-0.410	1.470	236.79	-1.80	1.90	 	 	 	 	 	 	 	 	 	 	 	 	 	 	 	 	 	 	1581536951	9.32	17.26
12/02/2020 19:49:12	120220	12022020	194912	237.01	12.384600	-56.783643	237.18	0.210	-0.560	0.750	237.06	-1.90	1.20	 	 	 	 	 	 	 	 	 	 	 	 	 	 	 	 	 	 	1581536952	9.10	16.85
12/02/2020 19:49:13	120220	12022020	194913	237.28	12.384578	-56.783682	237.44	0.120	-0.950	0.360	237.33	-2.30	0.80	 	 	 	 	 	 	 	 	 	 	 	 	 	 	 	 	 	 	1581536953	9.35	17.32
12/02/2020 19:49:14	120220	12022020	194914	237.47	12.384557	-56.783722	237.62	0.010	-1.220	0.330	237.50	-2.60	0.80	 	 	 	 	 	 	 	 	 	 	 	 	 	 	 	 	 	 	1581536954	9.65	17.87
12/02/2020 19:49:15	120220	12022020	194915	237.60	12.384537	-56.783762	237.74	-0.100	-0.920	0.450	237.62	-2.30	0.90	 	 	 	 	 	 	 	 	 	 	 	 	 	 	 	 	 	 	1581536955	9.40	17.41
12/02/2020 19:49:16	120220	12022020	194916	237.71	12.384517	-56.783800	237.85	-0.210	-0.250	0.640	237.73	-1.70	1.10	 	 	 	 	 	 	 	 	 	 	 	 	 	 	 	 	 	 	1581536956	9.01	16.69
12/02/2020 19:49:17	120220	12022020	194917	237.80	12.384498	-56.783838	237.96	-0.240	0.270	0.810	237.81	-1.10	1.30	 	 	 	 	 	 	 	 	 	 	 	 	 	 	 	 	 	 	1581536957	9.03	16.72
12/02/2020 19:49:18	120220	12022020	194918	237.82	12.384477	-56.783877	237.95	-0.190	0.410	0.970	237.81	-1.00	1.40	 	 	 	 	 	 	 	 	 	 	 	 	 	 	 	 	 	 	1581536958	9.39	17.39
12/02/2020 19:49:19	120220	12022020	194919	237.78	12.384455	-56.783917	237.92	-0.080	0.270	1.070	237.78	-1.10	1.50	 	 	 	 	 	 	 	 	 	 	 	 	 	 	 	 	 	 	1581536959	9.68	17.93
12/02/2020 19:49:20	120220	12022020	194920	237.73	12.384433	-56.783957	237.88	-0.020	0.130	1.060	237.71	-1.20	1.50	 	 	 	 	 	 	 	 	 	 	 	 	 	 	 	 	 	 	1581536960	9.61	17.80
12/02/2020 19:49:21	120220	12022020	194921	237.57	12.384412	-56.783995	237.70	-0.020	0.020	1.000	237.53	-1.30	1.50	 	 	 	 	 	 	 	 	 	 	 	 	 	 	 	 	 	 	1581536961	9.36	17.33
12/02/2020 19:49:22	120220	12022020	194922	237.34	12.384390	-56.784033	237.46	-0.010	-0.130	0.950	237.30	-1.50	1.40	 	 	 	 	 	 	 	 	 	 	 	 	 	 	 	 	 	 	1581536962	9.25	17.13
12/02/2020 19:49:23	120220	12022020	194923	237.22	12.384368	-56.784070	237.37	0.070	-0.300	0.800	237.22	-1.70	1.30	 	 	 	 	 	 	 	 	 	 	 	 	 	 	 	 	 	 	1581536963	9.22	17.08
12/02/2020 19:49:24	120220	12022020	194924	237.31	12.384348	-56.784108	237.49	0.180	-0.520	0.550	237.35	-1.90	1.00	 	 	 	 	 	 	 	 	 	 	 	 	 	 	 	 	 	 	1581536964	9.19	17.02
12/02/2020 19:49:25	120220	12022020	194925	237.51	12.384327	-56.784147	237.68	0.230	-0.860	0.500	237.55	-2.20	0.90	 	 	 	 	 	 	 	 	 	 	 	 	 	 	 	 	 	 	1581536965	9.34	17.30
12/02/2020 19:49:26	120220	12022020	194926	237.74	12.384307	-56.784187	237.92	0.220	-1.100	0.670	237.80	-2.50	1.10	 	 	 	 	 	 	 	 	 	 	 	 	 	 	 	 	 	 	1581536966	9.53	17.65
12/02/2020 19:49:27	120220	12022020	194927	238.03	12.384288	-56.784227	238.21	0.130	-0.910	0.840	238.09	-2.30	1.30	 	 	 	 	 	 	 	 	 	 	 	 	 	 	 	 	 	 	1581536967	9.34	17.30
12/02/2020 19:49:28	120220	12022020	194928	238.26	12.384270	-56.784265	238.40	0.030	-0.520	1.020	238.28	-1.90	1.40	 	 	 	 	 	 	 	 	 	 	 	 	 	 	 	 	 	 	1581536968	9.10	16.85
12/02/2020 19:49:29	120220	12022020	194929	238.29	12.384250	-56.784305	238.38	-0.050	-0.260	1.220	238.28	-1.60	1.70	 	 	 	 	 	 	 	 	 	 	 	 	 	 	 	 	 	 	1581536969	9.24	17.11
12/02/2020 19:49:30	120220	12022020	194930	238.08	12.384230	-56.784345	238.15	-0.070	-0.240	1.390	238.01	-1.60	1.80	 	 	 	 	 	 	 	 	 	 	 	 	 	 	 	 	 	 	1581536970	9.58	17.74
12/02/2020 19:49:31	120220	12022020	194931	237.71	12.384208	-56.784387	237.78	-0.040	-0.240	1.530	237.64	-1.60	2.00	 	 	 	 	 	 	 	 	 	 	 	 	 	 	 	 	 	 	1581536971	9.83	18.21
12/02/2020 19:49:32	120220	12022020	194932	237.46	12.384187	-56.784427	237.59	-0.090	0.000	1.470	237.45	-1.40	1.90	 	 	 	 	 	 	 	 	 	 	 	 	 	 	 	 	 	 	1581536972	9.70	17.96
12/02/2020 19:49:33	120220	12022020	194933	237.60	12.384167	-56.784465	237.80	-0.330	0.440	1.070	237.67	-0.90	1.50	 	 	 	 	 	 	 	 	 	 	 	 	 	 	 	 	 	 	1581536973	9.32	17.26
12/02/2020 19:49:34	120220	12022020	194934	238.11	12.384147	-56.784503	238.35	-0.580	0.810	0.440	238.25	-0.60	0.90	 	 	 	 	 	 	 	 	 	 	 	 	 	 	 	 	 	 	1581536974	9.05	16.76
12/02/2020 19:49:35	120220	12022020	194935	238.86	12.384125	-56.784540	239.10	-0.500	0.810	-0.290	239.01	-0.60	0.20	 	 	 	 	 	 	 	 	 	 	 	 	 	 	 	 	 	 	1581536975	8.96	16.59
12/02/2020 19:49:36	120220	12022020	194936	239.49	12.384103	-56.784577	239.65	0.030	0.140	-0.700	239.57	-1.20	-0.30	 	 	 	 	 	 	 	 	 	 	 	 	 	 	 	 	 	 	1581536976	9.26	17.15
12/02/2020 19:49:37	120220	12022020	194937	239.66	12.384080	-56.784617	239.74	0.660	-1.070	-0.290	239.64	-2.40	0.10	 	 	 	 	 	 	 	 	 	 	 	 	 	 	 	 	 	 	1581536977	9.86	18.26
12/02/2020 19:49:38	120220	12022020	194938	239.35	12.384060	-56.784660	239.39	0.890	-2.000	0.720	239.23	-3.30	1.10	 	 	 	 	 	 	 	 	 	 	 	 	 	 	 	 	 	 	1581536978	10.06	18.63
12/02/2020 19:49:39	120220	12022020	194939	238.70	12.384043	-56.784703	238.72	0.560	-1.950	1.810	238.55	-3.30	2.20	 	 	 	 	 	 	 	 	 	 	 	 	 	 	 	 	 	 	1581536979	9.59	17.76
12/02/2020 19:49:40	120220	12022020	194940	238.08	12.384030	-56.784743	238.17	-0.030	-1.070	2.530	237.98	-2.50	2.90	 	 	 	 	 	 	 	 	 	 	 	 	 	 	 	 	 	 	1581536980	8.95	16.58
12/02/2020 19:49:41	120220	12022020	194941	237.70	12.384017	-56.784782	237.84	-0.430	-0.110	2.680	237.65	-1.50	3.10	 	 	 	 	 	 	 	 	 	 	 	 	 	 	 	 	 	 	1581536981	8.79	16.28
12/02/2020 19:49:42	120220	12022020	194942	237.55	12.383998	-56.784822	237.73	-0.470	0.400	2.380	237.55	-1.00	2.80	 	 	 	 	 	 	 	 	 	 	 	 	 	 	 	 	 	 	1581536982	9.24	17.11
12/02/2020 19:49:43	120220	12022020	194943	237.61	12.383978	-56.784862	237.83	-0.310	0.580	1.710	237.65	-0.80	2.20	 	 	 	 	 	 	 	 	 	 	 	 	 	 	 	 	 	 	1581536983	9.64	17.85
12/02/2020 19:49:44	120220	12022020	194944	237.93	12.383955	-56.784902	238.18	-0.160	0.610	0.820	238.00	-0.80	1.30	 	 	 	 	 	 	 	 	 	 	 	 	 	 	 	 	 	 	1581536984	9.60	17.78
12/02/2020 19:49:45	120220	12022020	194945	238.38	12.383932	-56.784938	238.63	-0.120	0.420	0.170	238.47	-0.90	0.60	 	 	 	 	 	 	 	 	 	 	 	 	 	 	 	 	 	 	1581536985	9.47	17.54
12/02/2020 19:49:46	120220	12022020	194946	238.80	12.383910	-56.784978	239.01	-0.100	-0.010	0.120	238.87	-1.40	0.60	 	 	 	 	 	 	 	 	 	 	 	 	 	 	 	 	 	 	1581536986	9.46	17.52
12/02/2020 19:49:47	120220	12022020	194947	238.99	12.383890	-56.785018	239.14	0.040	-0.560	0.530	238.98	-1.90	0.90	 	 	 	 	 	 	 	 	 	 	 	 	 	 	 	 	 	 	1581536987	9.51	17.61
12/02/2020 19:49:48	120220	12022020	194948	238.79	12.383872	-56.785058	238.87	0.310	-0.930	1.190	238.71	-2.30	1.60	 	 	 	 	 	 	 	 	 	 	 	 	 	 	 	 	 	 	1581536988	9.46	17.52
12/02/2020 19:49:49	120220	12022020	194949	238.30	12.383853	-56.785098	238.37	0.490	-0.940	1.880	238.19	-2.30	2.30	 	 	 	 	 	 	 	 	 	 	 	 	 	 	 	 	 	 	1581536989	9.24	17.11
12/02/2020 19:49:50	120220	12022020	194950	237.77	12.383837	-56.785137	237.90	0.390	-0.710	2.230	237.69	-2.10	2.70	 	 	 	 	 	 	 	 	 	 	 	 	 	 	 	 	 	 	1581536990	9.07	16.80
12/02/2020 19:49:51	120220	12022020	194951	237.44	12.383818	-56.785177	237.59	0.070	-0.400	2.120	237.40	-1.80	2.60	 	 	 	 	 	 	 	 	 	 	 	 	 	 	 	 	 	 	1581536991	9.04	16.74
12/02/2020 19:49:52	120220	12022020	194952	237.32	12.383800	-56.785215	237.49	-0.270	-0.180	1.700	237.32	-1.60	2.20	 	 	 	 	 	 	 	 	 	 	 	 	 	 	 	 	 	 	1581536992	9.15	16.95
12/02/2020 19:49:53	120220	12022020	194953	237.41	12.383780	-56.785253	237.61	-0.430	-0.060	1.200	237.44	-1.40	1.70	 	 	 	 	 	 	 	 	 	 	 	 	 	 	 	 	 	 	1581536993	9.28	17.19
12/02/2020 19:49:54	120220	12022020	194954	237.55	12.383758	-56.785293	237.74	-0.360	0.020	0.800	237.58	-1.30	1.30	 	 	 	 	 	 	 	 	 	 	 	 	 	 	 	 	 	 	1581536994	9.35	17.32
12/02/2020 19:49:55	120220	12022020	194955	237.69	12.383737	-56.785330	237.86	-0.130	0.070	0.520	237.72	-1.30	1.00	 	 	 	 	 	 	 	 	 	 	 	 	 	 	 	 	 	 	1581536995	9.28	17.19
12/02/2020 19:49:56	120220	12022020	194956	237.83	12.383715	-56.785368	238.01	0.100	-0.100	0.400	237.86	-1.50	0.90	 	 	 	 	 	 	 	 	 	 	 	 	 	 	 	 	 	 	1581536996	9.31	17.24
12/02/2020 19:49:57	120220	12022020	194957	237.91	12.383692	-56.785407	238.09	0.230	-0.430	0.570	237.92	-1.80	1.00	 	 	 	 	 	 	 	 	 	 	 	 	 	 	 	 	 	 	1581536997	9.48	17.56
12/02/2020 19:49:58	120220	12022020	194958	237.93	12.383672	-56.785447	238.09	0.220	-0.610	1.010	237.92	-2.00	1.40	 	 	 	 	 	 	 	 	 	 	 	 	 	 	 	 	 	 	1581536998	9.44	17.48
12/02/2020 19:49:59	120220	12022020	194959	237.84	12.383653	-56.785487	237.99	0.130	-0.510	1.560	237.81	-1.90	2.00	 	 	 	 	 	 	 	 	 	 	 	 	 	 	 	 	 	 	1581536999	9.22	17.08
12/02/2020 19:50:00	120220	12022020	195000	237.69	12.383638	-56.785527	237.83	0.090	-0.280	2.070	237.65	-1.70	2.50	 	 	 	 	 	 	 	 	 	 	 	 	 	 	 	 	 	 	1581537000	9.11	16.87
12/02/2020 19:50:01	120220	12022020	195001	237.49	12.383622	-56.785567	237.63	0.110	-0.130	2.260	237.44	-1.50	2.70	 	 	 	 	 	 	 	 	 	 	 	 	 	 	 	 	 	 	1581537001	9.16	16.96
12/02/2020 19:50:02	120220	12022020	195002	237.28	12.383602	-56.785605	237.41	0.140	-0.190	2.030	237.24	-1.60	2.50	1014.60	26.40	26.50	20.60	20.70	470.0	70.0	70.0	396.0	28.9	223.00	6.40	82.00	10.40	30432	9255.0	27.5	27.5	1581537002	9.33	17.28
12/02/2020 19:50:03	120220	12022020	195003	237.16	12.383582	-56.785645	237.32	0.120	-0.420	1.500	237.16	-1.80	2.00	 	 	 	 	 	 	 	 	 	 	 	 	 	 	 	 	 	 	1581537003	9.48	17.56
12/02/2020 19:50:04	120220	12022020	195004	237.23	12.383558	-56.785683	237.43	0.070	-0.630	0.700	237.27	-2.00	1.20	 	 	 	 	 	 	 	 	 	 	 	 	 	 	 	 	 	 	1581537004	9.53	17.65
12/02/2020 19:50:05	120220	12022020	195005	237.45	12.383535	-56.785722	237.66	-0.010	-0.590	-0.100	237.51	-2.00	0.40	 	 	 	 	 	 	 	 	 	 	 	 	 	 	 	 	 	 	1581537005	9.39	17.39
12/02/2020 19:50:06	120220	12022020	195006	237.78	12.383510	-56.785757	237.99	-0.180	-0.310	-0.580	237.86	-1.70	-0.10	 	 	 	 	 	 	 	 	 	 	 	 	 	 	 	 	 	 	1581537006	9.14	16.93
12/02/2020 19:50:07	120220	12022020	195007	238.05	12.383488	-56.785793	238.30	-0.380	-0.080	-0.430	238.10	-1.50	0.00	 	 	 	 	 	 	 	 	 	 	 	 	 	 	 	 	 	 	1581537007	9.09	16.83
12/02/2020 19:50:08	120220	12022020	195008	238.25	12.383468	-56.785832	238.40	-0.480	-0.020	0.240	238.23	-1.40	0.70	 	 	 	 	 	 	 	 	 	 	 	 	 	 	 	 	 	 	1581537008	9.27	17.17
12/02/2020 19:50:09	120220	12022020	195009	238.04	12.383450	-56.785873	238.14	-0.350	-0.080	1.110	237.96	-1.40	1.50	 	 	 	 	 	 	 	 	 	 	 	 	 	 	 	 	 	 	1581537009	9.48	17.56
12/02/2020 19:50:10	120220	12022020	195010	237.58	12.383433	-56.785915	237.68	-0.060	-0.150	1.820	237.49	-1.50	2.20	 	 	 	 	 	 	 	 	 	 	 	 	 	 	 	 	 	 	1581537010	9.59	17.76
12/02/2020 19:50:11	120220	12022020	195011	237.22	12.383415	-56.785955	237.37	0.210	-0.100	2.000	237.19	-1.50	2.40	 	 	 	 	 	 	 	 	 	 	 	 	 	 	 	 	 	 	1581537011	9.42	17.45
12/02/2020 19:50:12	120220	12022020	195012	237.12	12.383395	-56.785993	237.31	0.400	-0.020	1.690	237.13	-1.40	2.10	 	 	 	 	 	 	 	 	 	 	 	 	 	 	 	 	 	 	1581537012	9.12	16.89
12/02/2020 19:50:13	120220	12022020	195013	237.19	12.383375	-56.786032	237.38	0.480	-0.170	1.250	237.22	-1.50	1.70	 	 	 	 	 	 	 	 	 	 	 	 	 	 	 	 	 	 	1581537013	9.12	16.89
12/02/2020 19:50:14	120220	12022020	195014	237.32	12.383355	-56.786070	237.49	0.420	-0.520	0.960	237.34	-1.90	1.40	 	 	 	 	 	 	 	 	 	 	 	 	 	 	 	 	 	 	1581537014	9.30	17.22
12/02/2020 19:50:15	120220	12022020	195015	237.37	12.383335	-56.786110	237.51	0.280	-0.880	0.840	237.36	-2.20	1.30	 	 	 	 	 	 	 	 	 	 	 	 	 	 	 	 	 	 	1581537015	9.42	17.45
12/02/2020 19:50:16	120220	12022020	195016	237.35	12.383315	-56.786150	237.51	0.130	-1.060	0.760	237.36	-2.40	1.20	 	 	 	 	 	 	 	 	 	 	 	 	 	 	 	 	 	 	1581537016	9.41	17.43
12/02/2020 19:50:17	120220	12022020	195017	237.38	12.383293	-56.786188	237.55	-0.030	-0.950	0.740	237.38	-2.30	1.20	 	 	 	 	 	 	 	 	 	 	 	 	 	 	 	 	 	 	1581537017	9.32	17.26
12/02/2020 19:50:18	120220	12022020	195018	237.38	12.383272	-56.786227	237.55	-0.220	-0.600	0.810	237.37	-2.00	1.30	 	 	 	 	 	 	 	 	 	 	 	 	 	 	 	 	 	 	1581537018	9.25	17.13
12/02/2020 19:50:19	120220	12022020	195019	237.31	12.383252	-56.786265	237.44	-0.380	-0.110	1.010	237.29	-1.50	1.40	 	 	 	 	 	 	 	 	 	 	 	 	 	 	 	 	 	 	1581537019	9.24	17.11
12/02/2020 19:50:20	120220	12022020	195020	237.15	12.383232	-56.786303	237.30	-0.440	0.370	1.430	237.12	-1.00	1.90	 	 	 	 	 	 	 	 	 	 	 	 	 	 	 	 	 	 	1581537020	9.25	17.13
12/02/2020 19:50:21	120220	12022020	195021	237.02	12.383212	-56.786342	237.19	-0.380	0.630	1.840	237.00	-0.80	2.30	 	 	 	 	 	 	 	 	 	 	 	 	 	 	 	 	 	 	1581537021	9.34	17.30
12/02/2020 19:50:22	120220	12022020	195022	236.96	12.383192	-56.786383	237.15	-0.260	0.570	1.990	236.97	-0.80	2.40	 	 	 	 	 	 	 	 	 	 	 	 	 	 	 	 	 	 	1581537022	9.49	17.58
12/02/2020 19:50:23	120220	12022020	195023	237.03	12.383173	-56.786423	237.23	-0.110	0.280	1.800	237.05	-1.10	2.30	 	 	 	 	 	 	 	 	 	 	 	 	 	 	 	 	 	 	1581537023	9.50	17.59
12/02/2020 19:50:24	120220	12022020	195024	237.18	12.383152	-56.786462	237.38	0.100	-0.150	1.300	237.21	-1.50	1.80	 	 	 	 	 	 	 	 	 	 	 	 	 	 	 	 	 	 	1581537024	9.38	17.37
12/02/2020 19:50:25	120220	12022020	195025	237.32	12.383130	-56.786500	237.50	0.360	-0.690	0.650	237.34	-2.00	1.10	 	 	 	 	 	 	 	 	 	 	 	 	 	 	 	 	 	 	1581537025	9.31	17.24
12/02/2020 19:50:26	120220	12022020	195026	237.37	12.383107	-56.786537	237.51	0.540	-1.220	0.100	237.37	-2.60	0.60	 	 	 	 	 	 	 	 	 	 	 	 	 	 	 	 	 	 	1581537026	9.38	17.37
12/02/2020 19:50:27	120220	12022020	195027	237.32	12.383083	-56.786575	237.45	0.480	-1.460	-0.060	237.30	-2.80	0.40	 	 	 	 	 	 	 	 	 	 	 	 	 	 	 	 	 	 	1581537027	9.34	17.30
12/02/2020 19:50:28	120220	12022020	195028	237.16	12.383062	-56.786613	237.28	0.190	-1.310	0.210	237.12	-2.70	0.60	 	 	 	 	 	 	 	 	 	 	 	 	 	 	 	 	 	 	1581537028	9.23	17.09
12/02/2020 19:50:29	120220	12022020	195029	236.93	12.383043	-56.786652	237.04	-0.100	-0.790	0.830	236.88	-2.20	1.30	 	 	 	 	 	 	 	 	 	 	 	 	 	 	 	 	 	 	1581537029	9.19	17.02
12/02/2020 19:50:30	120220	12022020	195030	236.75	12.383027	-56.786692	236.89	-0.230	-0.090	1.450	236.73	-1.50	1.90	 	 	 	 	 	 	 	 	 	 	 	 	 	 	 	 	 	 	1581537030	9.22	17.08
12/02/2020 19:50:31	120220	12022020	195031	236.75	12.383008	-56.786732	236.93	-0.260	0.600	1.760	236.76	-0.80	2.20	 	 	 	 	 	 	 	 	 	 	 	 	 	 	 	 	 	 	1581537031	9.25	17.13
12/02/2020 19:50:32	120220	12022020	195032	236.82	12.382990	-56.786770	237.01	-0.280	1.000	1.760	236.83	-0.40	2.20	 	 	 	 	 	 	 	 	 	 	 	 	 	 	 	 	 	 	1581537032	9.26	17.15
12/02/2020 19:50:33	120220	12022020	195033	236.86	12.382968	-56.786810	237.06	-0.280	0.950	1.520	236.87	-0.40	2.00	 	 	 	 	 	 	 	 	 	 	 	 	 	 	 	 	 	 	1581537033	9.40	17.41
12/02/2020 19:50:34	120220	12022020	195034	236.94	12.382947	-56.786848	237.14	-0.180	0.520	1.080	236.96	-0.80	1.50	 	 	 	 	 	 	 	 	 	 	 	 	 	 	 	 	 	 	1581537034	9.51	17.61
12/02/2020 19:50:35	120220	12022020	195035	237.04	12.382923	-56.786887	237.23	0.020	-0.190	0.650	237.05	-1.50	1.10	 	 	 	 	 	 	 	 	 	 	 	 	 	 	 	 	 	 	1581537035	9.55	17.69
12/02/2020 19:50:36	120220	12022020	195036	237.10	12.382900	-56.786925	237.29	0.180	-0.980	0.370	237.11	-2.30	0.80	 	 	 	 	 	 	 	 	 	 	 	 	 	 	 	 	 	 	1581537036	9.60	17.78
12/02/2020 19:50:37	120220	12022020	195037	237.11	12.382877	-56.786965	237.28	0.200	-1.550	0.400	237.10	-2.90	0.80	 	 	 	 	 	 	 	 	 	 	 	 	 	 	 	 	 	 	1581537037	9.47	17.54
12/02/2020 19:50:38	120220	12022020	195038	237.08	12.382857	-56.787003	237.25	0.160	-1.690	0.680	237.07	-3.10	1.10	 	 	 	 	 	 	 	 	 	 	 	 	 	 	 	 	 	 	1581537038	9.26	17.15
12/02/2020 19:50:39	120220	12022020	195039	237.09	12.382838	-56.787042	237.28	0.090	-1.340	0.870	237.10	-2.70	1.30	 	 	 	 	 	 	 	 	 	 	 	 	 	 	 	 	 	 	1581537039	9.00	16.67
12/02/2020 19:50:40	120220	12022020	195040	237.11	12.382820	-56.787080	237.29	-0.000	-0.810	1.010	237.11	-2.20	1.40	 	 	 	 	 	 	 	 	 	 	 	 	 	 	 	 	 	 	1581537040	8.99	16.65
12/02/2020 19:50:41	120220	12022020	195041	237.10	12.382800	-56.787118	237.27	-0.100	-0.310	1.160	237.10	-1.70	1.60	 	 	 	 	 	 	 	 	 	 	 	 	 	 	 	 	 	 	1581537041	9.26	17.15
12/02/2020 19:50:42	120220	12022020	195042	237.08	12.382778	-56.787158	237.24	-0.170	0.150	1.410	237.07	-1.30	1.80	 	 	 	 	 	 	 	 	 	 	 	 	 	 	 	 	 	 	1581537042	9.51	17.61
12/02/2020 19:50:43	120220	12022020	195043	237.00	12.382758	-56.787198	237.09	-0.270	0.620	1.740	236.96	-0.80	2.20	 	 	 	 	 	 	 	 	 	 	 	 	 	 	 	 	 	 	1581537043	9.58	17.74
12/02/2020 19:50:44	120220	12022020	195044	236.70	12.382740	-56.787238	236.81	-0.370	1.030	1.970	236.64	-0.40	2.40	 	 	 	 	 	 	 	 	 	 	 	 	 	 	 	 	 	 	1581537044	9.44	17.48
12/02/2020 19:50:45	120220	12022020	195045	236.43	12.382720	-56.787278	236.54	-0.360	1.070	1.870	236.37	-0.30	2.30	 	 	 	 	 	 	 	 	 	 	 	 	 	 	 	 	 	 	1581537045	9.39	17.39
12/02/2020 19:50:46	120220	12022020	195046	236.21	12.382698	-56.787317	236.35	-0.180	0.650	1.400	236.20	-0.70	1.90	 	 	 	 	 	 	 	 	 	 	 	 	 	 	 	 	 	 	1581537046	9.51	17.61
12/02/2020 19:50:47	120220	12022020	195047	236.22	12.382673	-56.787355	236.42	0.120	0.090	0.720	236.26	-1.30	1.20	 	 	 	 	 	 	 	 	 	 	 	 	 	 	 	 	 	 	1581537047	9.48	17.56
12/02/2020 19:50:48	120220	12022020	195048	236.54	12.382650	-56.787392	236.77	0.420	-0.380	0.010	236.63	-1.70	0.50	 	 	 	 	 	 	 	 	 	 	 	 	 	 	 	 	 	 	1581537048	9.11	16.87
12/02/2020 19:50:49	120220	12022020	195049	237.02	12.382628	-56.787427	237.26	0.620	-0.860	-0.500	237.11	-2.20	-0.00	 	 	 	 	 	 	 	 	 	 	 	 	 	 	 	 	 	 	1581537049	8.85	16.39
12/02/2020 19:50:50	120220	12022020	195050	237.46	12.382607	-56.787463	237.68	0.640	-1.450	-0.550	237.54	-2.80	-0.10	 	 	 	 	 	 	 	 	 	 	 	 	 	 	 	 	 	 	1581537050	9.00	16.67
12/02/2020 19:50:51	120220	12022020	195051	237.74	12.382587	-56.787502	237.92	0.460	-1.960	-0.020	237.76	-3.30	0.40	 	 	 	 	 	 	 	 	 	 	 	 	 	 	 	 	 	 	1581537051	9.29	17.21
12/02/2020 19:50:52	120220	12022020	195052	237.72	12.382568	-56.787542	237.87	0.160	-2.070	1.030	237.67	-3.40	1.40	 	 	 	 	 	 	 	 	 	 	 	 	 	 	 	 	 	 	1581537052	9.49	17.58
12/02/2020 19:50:53	120220	12022020	195053	237.34	12.382553	-56.787585	237.46	-0.130	-1.610	2.310	237.23	-3.00	2.70	 	 	 	 	 	 	 	 	 	 	 	 	 	 	 	 	 	 	1581537053	9.53	17.65
12/02/2020 19:50:54	120220	12022020	195054	236.75	12.382538	-56.787627	236.86	-0.390	-0.710	3.270	236.63	-2.10	3.70	 	 	 	 	 	 	 	 	 	 	 	 	 	 	 	 	 	 	1581537054	9.51	17.61
12/02/2020 19:50:55	120220	12022020	195055	236.15	12.382523	-56.787670	236.27	-0.580	0.250	3.620	236.04	-1.20	4.00	 	 	 	 	 	 	 	 	 	 	 	 	 	 	 	 	 	 	1581537055	9.52	17.63
12/02/2020 19:50:56	120220	12022020	195056	235.75	12.382503	-56.787710	235.92	-0.680	0.990	3.280	235.70	-0.40	3.80	 	 	 	 	 	 	 	 	 	 	 	 	 	 	 	 	 	 	1581537056	9.61	17.80
12/02/2020 19:50:57	120220	12022020	195057	235.67	12.382480	-56.787748	235.93	-0.630	1.440	2.390	235.69	0.00	2.90	 	 	 	 	 	 	 	 	 	 	 	 	 	 	 	 	 	 	1581537057	9.60	17.78
12/02/2020 19:50:58	120220	12022020	195058	235.99	12.382455	-56.787785	236.30	-0.380	1.640	1.240	236.09	0.30	1.70	 	 	 	 	 	 	 	 	 	 	 	 	 	 	 	 	 	 	1581537058	9.45	17.50
12/02/2020 19:50:59	120220	12022020	195059	236.51	12.382428	-56.787820	236.81	-0.040	1.440	0.340	236.61	0.10	0.80	 	 	 	 	 	 	 	 	 	 	 	 	 	 	 	 	 	 	1581537059	9.19	17.02
12/02/2020 19:51:00	120220	12022020	195100	236.94	12.382405	-56.787855	237.17	0.310	0.580	0.060	236.99	-0.80	0.50	 	 	 	 	 	 	 	 	 	 	 	 	 	 	 	 	 	 	1581537060	9.18	17.00
12/02/2020 19:51:01	120220	12022020	195101	237.11	12.382383	-56.787895	237.30	0.560	-0.730	0.400	237.12	-2.00	0.80	 	 	 	 	 	 	 	 	 	 	 	 	 	 	 	 	 	 	1581537061	9.44	17.48
12/02/2020 19:51:02	120220	12022020	195102	237.11	12.382365	-56.787935	237.29	0.660	-1.870	1.010	237.10	-3.20	1.40	1014.60	26.40	26.50	20.60	20.70	371.0	70.0	70.0	396.0	28.9	221.00	5.70	79.00	9.80	27352	9331.0	27.5	27.5	1581537062	9.45	17.50
12/02/2020 19:51:03	120220	12022020	195103	237.06	12.382348	-56.787975	237.25	0.590	-2.380	1.670	237.05	-3.70	2.10	 	 	 	 	 	 	 	 	 	 	 	 	 	 	 	 	 	 	1581537063	9.14	16.93
12/02/2020 19:51:04	120220	12022020	195104	236.91	12.382332	-56.788013	237.06	0.400	-2.190	2.310	236.84	-3.60	2.70	 	 	 	 	 	 	 	 	 	 	 	 	 	 	 	 	 	 	1581537064	8.82	16.33
12/02/2020 19:51:05	120220	12022020	195105	236.58	12.382317	-56.788052	236.74	0.130	-1.540	2.690	236.52	-2.90	3.10	 	 	 	 	 	 	 	 	 	 	 	 	 	 	 	 	 	 	1581537065	8.74	16.19
12/02/2020 19:51:06	120220	12022020	195106	236.36	12.382298	-56.788090	236.54	-0.170	-0.740	2.570	236.33	-2.10	3.00	 	 	 	 	 	 	 	 	 	 	 	 	 	 	 	 	 	 	1581537066	8.90	16.48
12/02/2020 19:51:07	120220	12022020	195107	236.33	12.382277	-56.788127	236.53	-0.360	0.020	2.080	236.34	-1.40	2.50	 	 	 	 	 	 	 	 	 	 	 	 	 	 	 	 	 	 	1581537067	9.17	16.98
12/02/2020 19:51:08	120220	12022020	195108	236.46	12.382253	-56.788165	236.66	-0.410	0.620	1.390	236.50	-0.80	1.90	 	 	 	 	 	 	 	 	 	 	 	 	 	 	 	 	 	 	1581537068	9.37	17.35
12/02/2020 19:51:09	120220	12022020	195109	236.61	12.382228	-56.788202	236.81	-0.370	0.860	0.810	236.64	-0.50	1.30	 	 	 	 	 	 	 	 	 	 	 	 	 	 	 	 	 	 	1581537069	9.59	17.76
12/02/2020 19:51:10	120220	12022020	195110	236.73	12.382205	-56.788242	236.90	-0.330	0.770	0.610	236.75	-0.60	1.10	 	 	 	 	 	 	 	 	 	 	 	 	 	 	 	 	 	 	1581537070	9.79	18.13
12/02/2020 19:51:11	120220	12022020	195111	236.80	12.382183	-56.788282	237.01	-0.300	0.620	0.680	236.82	-0.70	1.10	 	 	 	 	 	 	 	 	 	 	 	 	 	 	 	 	 	 	1581537071	9.68	17.93
12/02/2020 19:51:12	120220	12022020	195112	236.99	12.382163	-56.788320	237.18	-0.260	0.530	0.780	237.02	-0.80	1.20	 	 	 	 	 	 	 	 	 	 	 	 	 	 	 	 	 	 	1581537072	9.25	17.13
12/02/2020 19:51:13	120220	12022020	195113	237.10	12.382143	-56.788358	237.27	-0.130	0.270	0.940	237.10	-1.10	1.40	 	 	 	 	 	 	 	 	 	 	 	 	 	 	 	 	 	 	1581537073	8.99	16.65
12/02/2020 19:51:14	120220	12022020	195114	237.08	12.382125	-56.788397	237.24	0.110	-0.150	1.060	237.07	-1.50	1.50	 	 	 	 	 	 	 	 	 	 	 	 	 	 	 	 	 	 	1581537074	9.00	16.67
12/02/2020 19:51:15	120220	12022020	195115	237.09	12.382107	-56.788433	237.28	0.400	-0.560	1.050	237.11	-1.90	1.50	 	 	 	 	 	 	 	 	 	 	 	 	 	 	 	 	 	 	1581537075	8.88	16.45
12/02/2020 19:51:16	120220	12022020	195116	237.17	12.382087	-56.788470	237.36	0.630	-1.020	0.980	237.17	-2.40	1.40	 	 	 	 	 	 	 	 	 	 	 	 	 	 	 	 	 	 	1581537076	8.86	16.41
12/02/2020 19:51:17	120220	12022020	195117	237.15	12.382067	-56.788508	237.31	0.670	-1.450	0.870	237.13	-2.80	1.30	 	 	 	 	 	 	 	 	 	 	 	 	 	 	 	 	 	 	1581537077	9.07	16.80
12/02/2020 19:51:18	120220	12022020	195118	237.03	12.382045	-56.788545	237.21	0.480	-1.500	0.790	237.01	-2.90	1.20	 	 	 	 	 	 	 	 	 	 	 	 	 	 	 	 	 	 	1581537078	9.11	16.87
12/02/2020 19:51:19	120220	12022020	195119	236.93	12.382025	-56.788583	237.11	0.110	-1.090	0.670	236.92	-2.50	1.10	 	 	 	 	 	 	 	 	 	 	 	 	 	 	 	 	 	 	1581537079	8.91	16.50
12/02/2020 19:51:20	120220	12022020	195120	236.89	12.382005	-56.788618	237.07	-0.240	-0.530	0.430	236.88	-1.90	0.90	 	 	 	 	 	 	 	 	 	 	 	 	 	 	 	 	 	 	1581537080	8.84	16.37
12/02/2020 19:51:21	120220	12022020	195121	236.84	12.381983	-56.788657	236.99	-0.400	-0.200	0.290	236.82	-1.60	0.70	 	 	 	 	 	 	 	 	 	 	 	 	 	 	 	 	 	 	1581537081	9.16	16.96
12/02/2020 19:51:22	120220	12022020	195122	236.72	12.381962	-56.788697	236.86	-0.400	-0.140	0.430	236.70	-1.50	0.90	 	 	 	 	 	 	 	 	 	 	 	 	 	 	 	 	 	 	1581537082	9.65	17.87
12/02/2020 19:51:23	120220	12022020	195123	236.60	12.381940	-56.788737	236.75	-0.370	-0.140	0.790	236.56	-1.50	1.20	 	 	 	 	 	 	 	 	 	 	 	 	 	 	 	 	 	 	1581537083	9.88	18.30
12/02/2020 19:51:24	120220	12022020	195124	236.43	12.381920	-56.788780	236.60	-0.380	0.020	1.230	236.41	-1.40	1.70	 	 	 	 	 	 	 	 	 	 	 	 	 	 	 	 	 	 	1581537084	9.82	18.19
12/02/2020 19:51:25	120220	12022020	195125	236.39	12.381902	-56.788820	236.59	-0.410	0.550	1.590	236.42	-0.90	2.00	 	 	 	 	 	 	 	 	 	 	 	 	 	 	 	 	 	 	1581537085	9.40	17.41
12/02/2020 19:51:26	120220	12022020	195126	236.57	12.381883	-56.788857	236.79	-0.370	1.210	1.750	236.61	-0.20	2.20	 	 	 	 	 	 	 	 	 	 	 	 	 	 	 	 	 	 	1581537086	8.74	16.19
12/02/2020 19:51:27	120220	12022020	195127	236.75	12.381865	-56.788893	236.96	-0.160	1.320	1.830	236.77	-0.10	2.30	 	 	 	 	 	 	 	 	 	 	 	 	 	 	 	 	 	 	1581537087	8.62	15.96
12/02/2020 19:51:28	120220	12022020	195128	236.80	12.381845	-56.788930	236.96	0.180	0.620	1.800	236.79	-0.70	2.20	 	 	 	 	 	 	 	 	 	 	 	 	 	 	 	 	 	 	1581537088	9.06	16.78
12/02/2020 19:51:29	120220	12022020	195129	236.73	12.381823	-56.788970	236.90	0.500	-0.550	1.500	236.72	-1.90	2.00	 	 	 	 	 	 	 	 	 	 	 	 	 	 	 	 	 	 	1581537089	9.47	17.54
12/02/2020 19:51:30	120220	12022020	195130	236.71	12.381802	-56.789008	236.87	0.720	-1.570	1.000	236.72	-2.90	1.50	 	 	 	 	 	 	 	 	 	 	 	 	 	 	 	 	 	 	1581537090	9.45	17.50
12/02/2020 19:51:31	120220	12022020	195131	236.76	12.381780	-56.789045	236.91	0.780	-2.010	0.490	236.77	-3.40	1.00	 	 	 	 	 	 	 	 	 	 	 	 	 	 	 	 	 	 	1581537091	9.05	16.76
12/02/2020 19:51:32	120220	12022020	195132	236.80	12.381760	-56.789080	236.96	0.680	-1.880	0.150	236.81	-3.30	0.60	 	 	 	 	 	 	 	 	 	 	 	 	 	 	 	 	 	 	1581537092	8.75	16.21
12/02/2020 19:51:33	120220	12022020	195133	236.83	12.381738	-56.789117	237.01	0.380	-1.390	0.130	236.83	-2.80	0.60	 	 	 	 	 	 	 	 	 	 	 	 	 	 	 	 	 	 	1581537093	8.75	16.21
12/02/2020 19:51:34	120220	12022020	195134	236.83	12.381718	-56.789153	236.99	-0.060	-0.760	0.380	236.82	-2.20	0.80	 	 	 	 	 	 	 	 	 	 	 	 	 	 	 	 	 	 	1581537094	8.98	16.63
12/02/2020 19:51:35	120220	12022020	195135	236.67	12.381698	-56.789192	236.80	-0.500	-0.090	0.850	236.62	-1.50	1.30	 	 	 	 	 	 	 	 	 	 	 	 	 	 	 	 	 	 	1581537095	9.23	17.09
12/02/2020 19:51:36	120220	12022020	195136	236.40	12.381678	-56.789232	236.55	-0.780	0.530	1.450	236.36	-0.90	1.90	 	 	 	 	 	 	 	 	 	 	 	 	 	 	 	 	 	 	1581537096	9.40	17.41
12/02/2020 19:51:37	120220	12022020	195137	236.22	12.381660	-56.789272	236.41	-0.850	0.970	1.950	236.21	-0.40	2.40	 	 	 	 	 	 	 	 	 	 	 	 	 	 	 	 	 	 	1581537097	9.44	17.48
12/02/2020 19:51:38	120220	12022020	195138	236.26	12.381640	-56.789312	236.51	-0.700	1.060	2.090	236.31	-0.30	2.50	 	 	 	 	 	 	 	 	 	 	 	 	 	 	 	 	 	 	1581537098	9.49	17.58
12/02/2020 19:51:39	120220	12022020	195139	236.58	12.381622	-56.789352	236.84	-0.370	0.880	1.730	236.67	-0.50	2.20	 	 	 	 	 	 	 	 	 	 	 	 	 	 	 	 	 	 	1581537099	9.40	17.41
12/02/2020 19:51:40	120220	12022020	195140	237.01	12.381600	-56.789390	237.24	0.080	0.410	1.040	237.09	-0.90	1.50	 	 	 	 	 	 	 	 	 	 	 	 	 	 	 	 	 	 	1581537100	9.23	17.09
12/02/2020 19:51:41	120220	12022020	195141	237.39	12.381577	-56.789427	237.62	0.480	-0.300	0.260	237.47	-1.70	0.70	 	 	 	 	 	 	 	 	 	 	 	 	 	 	 	 	 	 	1581537101	9.24	17.11
12/02/2020 19:51:42	120220	12022020	195142	237.76	12.381553	-56.789463	237.96	0.670	-1.010	-0.220	237.81	-2.40	0.20	 	 	 	 	 	 	 	 	 	 	 	 	 	 	 	 	 	 	1581537102	9.24	17.11
12/02/2020 19:51:43	120220	12022020	195143	237.89	12.381532	-56.789500	238.01	0.640	-1.520	0.000	237.86	-2.90	0.40	 	 	 	 	 	 	 	 	 	 	 	 	 	 	 	 	 	 	1581537103	9.12	16.89
12/02/2020 19:51:44	120220	12022020	195144	237.51	12.381513	-56.789540	237.57	0.490	-1.730	0.750	237.38	-3.10	1.20	 	 	 	 	 	 	 	 	 	 	 	 	 	 	 	 	 	 	1581537104	9.14	16.93
12/02/2020 19:51:45	120220	12022020	195145	236.73	12.381497	-56.789580	236.76	0.240	-1.520	1.650	236.55	-2.90	2.00	 	 	 	 	 	 	 	 	 	 	 	 	 	 	 	 	 	 	1581537105	9.21	17.06
12/02/2020 19:51:46	120220	12022020	195146	235.94	12.381480	-56.789620	236.03	-0.100	-0.850	2.240	235.82	-2.30	2.70	 	 	 	 	 	 	 	 	 	 	 	 	 	 	 	 	 	 	1581537106	9.17	16.98
12/02/2020 19:51:47	120220	12022020	195147	235.61	12.381462	-56.789658	235.78	-0.460	0.070	2.250	235.60	-1.30	2.70	 	 	 	 	 	 	 	 	 	 	 	 	 	 	 	 	 	 	1581537107	9.00	16.67
12/02/2020 19:51:48	120220	12022020	195148	235.88	12.381443	-56.789697	236.16	-0.620	0.840	1.720	235.99	-0.60	2.20	 	 	 	 	 	 	 	 	 	 	 	 	 	 	 	 	 	 	1581537108	8.95	16.58
12/02/2020 19:51:49	120220	12022020	195149	236.52	12.381423	-56.789733	236.79	-0.470	1.190	1.030	236.65	-0.20	1.50	 	 	 	 	 	 	 	 	 	 	 	 	 	 	 	 	 	 	1581537109	9.08	16.82
12/02/2020 19:51:50	120220	12022020	195150	237.21	12.381400	-56.789770	237.48	-0.100	1.110	0.540	237.34	-0.30	1.00	 	 	 	 	 	 	 	 	 	 	 	 	 	 	 	 	 	 	1581537110	9.23	17.09
12/02/2020 19:51:51	120220	12022020	195151	237.87	12.381378	-56.789808	238.14	0.250	0.610	0.500	237.99	-0.70	0.90	 	 	 	 	 	 	 	 	 	 	 	 	 	 	 	 	 	 	1581537111	9.26	17.15
12/02/2020 19:51:52	120220	12022020	195152	238.31	12.381358	-56.789847	238.51	0.490	-0.160	0.820	238.35	-1.50	1.20	 	 	 	 	 	 	 	 	 	 	 	 	 	 	 	 	 	 	1581537112	9.25	17.13
12/02/2020 19:51:53	120220	12022020	195153	238.28	12.381340	-56.789887	238.40	0.680	-1.050	1.360	238.21	-2.40	1.80	 	 	 	 	 	 	 	 	 	 	 	 	 	 	 	 	 	 	1581537113	9.31	17.24
12/02/2020 19:51:54	120220	12022020	195154	237.77	12.381322	-56.789927	237.85	0.770	-1.770	1.940	237.64	-3.10	2.40	 	 	 	 	 	 	 	 	 	 	 	 	 	 	 	 	 	 	1581537114	9.40	17.41
12/02/2020 19:51:55	120220	12022020	195155	237.15	12.381303	-56.789968	237.25	0.530	-2.070	2.190	237.04	-3.40	2.60	 	 	 	 	 	 	 	 	 	 	 	 	 	 	 	 	 	 	1581537115	9.39	17.39
12/02/2020 19:51:56	120220	12022020	195156	236.75	12.381283	-56.790007	236.90	-0.040	-1.790	2.020	236.70	-3.20	2.50	 	 	 	 	 	 	 	 	 	 	 	 	 	 	 	 	 	 	1581537116	9.22	17.08
12/02/2020 19:51:57	120220	12022020	195157	236.66	12.381265	-56.790045	236.83	-0.690	-1.040	1.670	236.66	-2.40	2.10	 	 	 	 	 	 	 	 	 	 	 	 	 	 	 	 	 	 	1581537117	8.99	16.65
12/02/2020 19:51:58	120220	12022020	195158	236.70	12.381245	-56.790082	236.84	-1.060	-0.200	1.360	236.70	-1.60	1.80	 	 	 	 	 	 	 	 	 	 	 	 	 	 	 	 	 	 	1581537118	9.03	16.72
12/02/2020 19:51:59	120220	12022020	195159	236.67	12.381225	-56.790122	236.76	-0.940	0.550	1.240	236.65	-0.90	1.70	 	 	 	 	 	 	 	 	 	 	 	 	 	 	 	 	 	 	1581537119	9.28	17.19
12/02/2020 19:52:00	120220	12022020	195200	236.56	12.381207	-56.790160	236.69	-0.490	1.270	1.190	236.56	-0.10	1.60	 	 	 	 	 	 	 	 	 	 	 	 	 	 	 	 	 	 	1581537120	9.29	17.21
12/02/2020 19:52:01	120220	12022020	195201	236.65	12.381185	-56.790198	236.80	0.040	1.750	1.030	236.69	0.30	1.50	 	 	 	 	 	 	 	 	 	 	 	 	 	 	 	 	 	 	1581537121	9.04	16.74
12/02/2020 19:52:02	120220	12022020	195202	236.92	12.381165	-56.790235	237.11	0.460	1.560	0.750	236.98	0.20	1.20	1014.60	26.40	26.50	20.70	20.80	341.0	70.0	70.0	395.0	28.9	233.00	6.40	88.00	10.00	26342	9035.0	27.5	27.5	1581537122	9.06	16.78
12/02/2020 19:52:03	120220	12022020	195203	237.28	12.381142	-56.790273	237.50	0.730	0.690	0.430	237.36	-0.70	0.90	 	 	 	 	 	 	 	 	 	 	 	 	 	 	 	 	 	 	1581537123	9.29	17.21
12/02/2020 19:52:04	120220	12022020	195204	237.61	12.381120	-56.790312	237.80	0.860	-0.610	0.380	237.66	-1.90	0.80	 	 	 	 	 	 	 	 	 	 	 	 	 	 	 	 	 	 	1581537124	9.48	17.56
12/02/2020 19:52:05	120220	12022020	195205	237.69	12.381100	-56.790352	237.85	0.810	-1.910	0.790	237.67	-3.20	1.20	 	 	 	 	 	 	 	 	 	 	 	 	 	 	 	 	 	 	1581537125	9.59	17.76
12/02/2020 19:52:06	120220	12022020	195206	237.45	12.381083	-56.790393	237.59	0.540	-2.560	1.470	237.36	-3.90	1.90	 	 	 	 	 	 	 	 	 	 	 	 	 	 	 	 	 	 	1581537126	9.42	17.45
12/02/2020 19:52:07	120220	12022020	195207	236.93	12.381067	-56.790432	237.04	0.100	-2.420	2.130	236.80	-3.80	2.50	 	 	 	 	 	 	 	 	 	 	 	 	 	 	 	 	 	 	1581537127	9.03	16.72
12/02/2020 19:52:08	120220	12022020	195208	236.27	12.381050	-56.790472	236.38	-0.350	-1.830	2.460	236.15	-3.20	2.90	 	 	 	 	 	 	 	 	 	 	 	 	 	 	 	 	 	 	1581537128	8.99	16.65
12/02/2020 19:52:09	120220	12022020	195209	235.77	12.381032	-56.790510	235.92	-0.640	-0.940	2.320	235.71	-2.40	2.80	 	 	 	 	 	 	 	 	 	 	 	 	 	 	 	 	 	 	1581537129	9.14	16.93
12/02/2020 19:52:10	120220	12022020	195210	235.61	12.381012	-56.790548	235.82	-0.750	0.190	1.910	235.63	-1.20	2.40	 	 	 	 	 	 	 	 	 	 	 	 	 	 	 	 	 	 	1581537130	9.12	16.89
12/02/2020 19:52:11	120220	12022020	195211	235.78	12.380990	-56.790585	236.04	-0.740	1.200	1.440	235.86	-0.20	1.90	 	 	 	 	 	 	 	 	 	 	 	 	 	 	 	 	 	 	1581537131	9.08	16.82
12/02/2020 19:52:12	120220	12022020	195212	236.22	12.380968	-56.790623	236.52	-0.570	1.690	1.160	236.33	0.30	1.60	 	 	 	 	 	 	 	 	 	 	 	 	 	 	 	 	 	 	1581537132	9.22	17.08
12/02/2020 19:52:13	120220	12022020	195213	236.76	12.380948	-56.790663	237.05	-0.150	1.450	1.160	236.86	0.10	1.60	 	 	 	 	 	 	 	 	 	 	 	 	 	 	 	 	 	 	1581537133	9.50	17.59
12/02/2020 19:52:14	120220	12022020	195214	237.14	12.380927	-56.790705	237.37	0.370	0.600	1.470	237.17	-0.70	1.90	 	 	 	 	 	 	 	 	 	 	 	 	 	 	 	 	 	 	1581537134	9.78	18.11
12/02/2020 19:52:15	120220	12022020	195215	237.20	12.380908	-56.790747	237.37	0.740	-0.480	1.880	237.18	-1.80	2.30	 	 	 	 	 	 	 	 	 	 	 	 	 	 	 	 	 	 	1581537135	9.89	18.32
12/02/2020 19:52:16	120220	12022020	195216	237.08	12.380888	-56.790788	237.23	0.770	-1.210	2.050	237.04	-2.60	2.50	 	 	 	 	 	 	 	 	 	 	 	 	 	 	 	 	 	 	1581537136	9.63	17.83
12/02/2020 19:52:17	120220	12022020	195217	236.91	12.380870	-56.790827	237.04	0.520	-1.270	1.850	236.87	-2.70	2.30	 	 	 	 	 	 	 	 	 	 	 	 	 	 	 	 	 	 	1581537137	8.97	16.61
12/02/2020 19:52:18	120220	12022020	195218	236.77	12.380852	-56.790862	236.89	0.190	-0.780	1.360	236.75	-2.20	1.80	 	 	 	 	 	 	 	 	 	 	 	 	 	 	 	 	 	 	1581537138	8.44	15.63
12/02/2020 19:52:19	120220	12022020	195219	236.69	12.380832	-56.790893	236.80	-0.070	-0.160	0.780	236.67	-1.60	1.30	 	 	 	 	 	 	 	 	 	 	 	 	 	 	 	 	 	 	1581537139	8.25	15.28
12/02/2020 19:52:20	120220	12022020	195220	236.67	12.380808	-56.790928	236.82	-0.160	0.080	0.340	236.67	-1.30	0.80	 	 	 	 	 	 	 	 	 	 	 	 	 	 	 	 	 	 	1581537140	8.56	15.85
12/02/2020 19:52:21	120220	12022020	195221	236.70	12.380787	-56.790965	236.84	-0.130	-0.230	0.310	236.69	-1.60	0.80	 	 	 	 	 	 	 	 	 	 	 	 	 	 	 	 	 	 	1581537141	9.15	16.95
12/02/2020 19:52:22	120220	12022020	195222	236.60	12.380765	-56.791005	236.73	0.010	-0.790	0.790	236.57	-2.10	1.20	 	 	 	 	 	 	 	 	 	 	 	 	 	 	 	 	 	 	1581537142	9.65	17.87
12/02/2020 19:52:23	120220	12022020	195223	236.43	12.380747	-56.791047	236.48	0.160	-1.190	1.480	236.37	-2.60	1.90	 	 	 	 	 	 	 	 	 	 	 	 	 	 	 	 	 	 	1581537143	9.81	18.17
12/02/2020 19:52:24	120220	12022020	195224	236.08	12.380730	-56.791090	236.19	0.180	-1.240	2.020	236.03	-2.60	2.40	 	 	 	 	 	 	 	 	 	 	 	 	 	 	 	 	 	 	1581537144	9.67	17.91
12/02/2020 19:52:25	120220	12022020	195225	235.81	12.380712	-56.791130	235.92	-0.020	-0.970	2.330	235.76	-2.40	2.80	 	 	 	 	 	 	 	 	 	 	 	 	 	 	 	 	 	 	1581537145	9.51	17.61
12/02/2020 19:52:26	120220	12022020	195226	235.54	12.380693	-56.791170	235.65	-0.340	-0.370	2.590	235.49	-1.80	3.00	 	 	 	 	 	 	 	 	 	 	 	 	 	 	 	 	 	 	1581537146	9.39	17.39
12/02/2020 19:52:27	120220	12022020	195227	235.25	12.380677	-56.791210	235.38	-0.610	0.580	2.840	235.20	-0.90	3.30	 	 	 	 	 	 	 	 	 	 	 	 	 	 	 	 	 	 	1581537147	9.11	16.87
12/02/2020 19:52:28	120220	12022020	195228	235.14	12.380658	-56.791247	235.33	-0.650	1.460	2.690	235.16	0.00	3.20	 	 	 	 	 	 	 	 	 	 	 	 	 	 	 	 	 	 	1581537148	8.74	16.19
12/02/2020 19:52:29	120220	12022020	195229	235.38	12.380638	-56.791283	235.64	-0.380	1.550	1.910	235.48	0.20	2.40	 	 	 	 	 	 	 	 	 	 	 	 	 	 	 	 	 	 	1581537149	8.83	16.35
12/02/2020 19:52:30	120220	12022020	195230	235.93	12.380613	-56.791320	236.20	0.120	0.760	0.720	236.05	-0.60	1.20	 	 	 	 	 	 	 	 	 	 	 	 	 	 	 	 	 	 	1581537150	9.40	17.41
12/02/2020 19:52:31	120220	12022020	195231	236.50	12.380587	-56.791357	236.74	0.600	-0.380	-0.250	236.59	-1.70	0.20	 	 	 	 	 	 	 	 	 	 	 	 	 	 	 	 	 	 	1581537151	9.71	17.98
12/02/2020 19:52:32	120220	12022020	195232	236.78	12.380560	-56.791393	236.94	0.860	-1.270	-0.490	236.78	-2.60	-0.00	 	 	 	 	 	 	 	 	 	 	 	 	 	 	 	 	 	 	1581537152	9.47	17.54
12/02/2020 19:52:33	120220	12022020	195233	236.63	12.380538	-56.791430	236.71	0.780	-1.670	0.070	236.55	-3.00	0.50	 	 	 	 	 	 	 	 	 	 	 	 	 	 	 	 	 	 	1581537153	9.05	16.76
12/02/2020 19:52:34	120220	12022020	195234	236.12	12.380520	-56.791467	236.18	0.430	-1.640	1.100	235.99	-3.00	1.50	 	 	 	 	 	 	 	 	 	 	 	 	 	 	 	 	 	 	1581537154	8.92	16.52
12/02/2020 19:52:35	120220	12022020	195235	235.50	12.380505	-56.791507	235.58	-0.080	-1.250	2.020	235.38	-2.60	2.40	 	 	 	 	 	 	 	 	 	 	 	 	 	 	 	 	 	 	1581537155	9.00	16.67
12/02/2020 19:52:36	120220	12022020	195236	235.04	12.380490	-56.791547	235.19	-0.530	-0.590	2.410	234.98	-2.00	2.80	 	 	 	 	 	 	 	 	 	 	 	 	 	 	 	 	 	 	1581537156	9.01	16.69
12/02/2020 19:52:37	120220	12022020	195237	234.89	12.380472	-56.791585	235.10	-0.720	0.110	2.330	234.89	-1.30	2.80	 	 	 	 	 	 	 	 	 	 	 	 	 	 	 	 	 	 	1581537157	8.92	16.52
12/02/2020 19:52:38	120220	12022020	195238	234.96	12.380452	-56.791622	235.18	-0.590	0.470	1.950	234.98	-0.90	2.40	 	 	 	 	 	 	 	 	 	 	 	 	 	 	 	 	 	 	1581537158	9.04	16.74
12/02/2020 19:52:39	120220	12022020	195239	235.06	12.380428	-56.791660	235.26	-0.270	0.290	1.460	235.08	-1.10	1.90	 	 	 	 	 	 	 	 	 	 	 	 	 	 	 	 	 	 	1581537159	9.51	17.61
12/02/2020 19:52:40	120220	12022020	195240	235.20	12.380403	-56.791700	235.40	0.030	-0.100	0.940	235.24	-1.50	1.40	 	 	 	 	 	 	 	 	 	 	 	 	 	 	 	 	 	 	1581537160	9.81	18.17
12/02/2020 19:52:41	120220	12022020	195241	235.44	12.380380	-56.791738	235.65	0.150	-0.280	0.550	235.49	-1.70	1.00	 	 	 	 	 	 	 	 	 	 	 	 	 	 	 	 	 	 	1581537161	9.60	17.78
12/02/2020 19:52:42	120220	12022020	195242	235.71	12.380358	-56.791775	235.93	0.080	-0.140	0.420	235.77	-1.50	0.90	 	 	 	 	 	 	 	 	 	 	 	 	 	 	 	 	 	 	1581537162	9.14	16.93
12/02/2020 19:52:43	120220	12022020	195243	235.95	12.380337	-56.791812	236.17	-0.050	0.120	0.540	236.00	-1.30	1.00	 	 	 	 	 	 	 	 	 	 	 	 	 	 	 	 	 	 	1581537163	8.79	16.28
12/02/2020 19:52:44	120220	12022020	195244	236.10	12.380318	-56.791848	236.28	-0.140	0.140	0.810	236.11	-1.20	1.30	 	 	 	 	 	 	 	 	 	 	 	 	 	 	 	 	 	 	1581537164	8.80	16.30
12/02/2020 19:52:45	120220	12022020	195245	235.99	12.380298	-56.791887	236.11	-0.060	-0.190	1.230	235.93	-1.60	1.70	 	 	 	 	 	 	 	 	 	 	 	 	 	 	 	 	 	 	1581537165	9.17	16.98
12/02/2020 19:52:46	120220	12022020	195246	235.64	12.380280	-56.791927	235.73	0.140	-0.530	1.610	235.56	-1.90	2.00	 	 	 	 	 	 	 	 	 	 	 	 	 	 	 	 	 	 	1581537166	9.41	17.43
12/02/2020 19:52:47	120220	12022020	195247	235.34	12.380260	-56.791965	235.47	0.330	-0.560	1.600	235.31	-1.90	2.10	 	 	 	 	 	 	 	 	 	 	 	 	 	 	 	 	 	 	1581537167	9.18	17.00
12/02/2020 19:52:48	120220	12022020	195248	235.32	12.380238	-56.792000	235.49	0.400	-0.490	1.160	235.35	-1.90	1.60	 	 	 	 	 	 	 	 	 	 	 	 	 	 	 	 	 	 	1581537168	8.87	16.43
12/02/2020 19:52:49	120220	12022020	195249	235.43	12.380215	-56.792037	235.60	0.330	-0.620	0.710	235.46	-2.00	1.20	 	 	 	 	 	 	 	 	 	 	 	 	 	 	 	 	 	 	1581537169	8.98	16.63
12/02/2020 19:52:50	120220	12022020	195250	235.50	12.380192	-56.792073	235.62	0.160	-0.900	0.590	235.50	-2.30	1.00	 	 	 	 	 	 	 	 	 	 	 	 	 	 	 	 	 	 	1581537170	9.35	17.32
12/02/2020 19:52:51	120220	12022020	195251	235.46	12.380170	-56.792113	235.58	-0.140	-0.980	0.750	235.44	-2.40	1.20	 	 	 	 	 	 	 	 	 	 	 	 	 	 	 	 	 	 	1581537171	9.49	17.58
12/02/2020 19:52:52	120220	12022020	195252	235.39	12.380150	-56.792152	235.52	-0.440	-0.560	0.980	235.38	-2.00	1.40	 	 	 	 	 	 	 	 	 	 	 	 	 	 	 	 	 	 	1581537172	9.21	17.06
12/02/2020 19:52:53	120220	12022020	195253	235.35	12.380132	-56.792188	235.51	-0.580	0.130	1.230	235.35	-1.30	1.70	 	 	 	 	 	 	 	 	 	 	 	 	 	 	 	 	 	 	1581537173	8.87	16.43
12/02/2020 19:52:54	120220	12022020	195254	235.41	12.380112	-56.792227	235.59	-0.410	0.570	1.400	235.42	-0.80	1.80	 	 	 	 	 	 	 	 	 	 	 	 	 	 	 	 	 	 	1581537174	8.89	16.46
12/02/2020 19:52:55	120220	12022020	195255	235.45	12.380092	-56.792265	235.61	-0.000	0.490	1.570	235.44	-0.90	2.00	 	 	 	 	 	 	 	 	 	 	 	 	 	 	 	 	 	 	1581537175	9.28	17.19
12/02/2020 19:52:56	120220	12022020	195256	235.35	12.380070	-56.792305	235.49	0.370	0.060	1.740	235.31	-1.30	2.20	 	 	 	 	 	 	 	 	 	 	 	 	 	 	 	 	 	 	1581537176	9.69	17.95
12/02/2020 19:52:57	120220	12022020	195257	235.15	12.380047	-56.792343	235.28	0.400	-0.290	1.850	235.11	-1.70	2.30	 	 	 	 	 	 	 	 	 	 	 	 	 	 	 	 	 	 	1581537177	9.63	17.83
12/02/2020 19:52:58	120220	12022020	195258	234.98	12.380027	-56.792383	235.12	0.110	-0.440	1.700	234.97	-1.80	2.20	 	 	 	 	 	 	 	 	 	 	 	 	 	 	 	 	 	 	1581537178	9.28	17.19
12/02/2020 19:52:59	120220	12022020	195259	234.91	12.380007	-56.792420	235.05	-0.140	-0.560	1.260	234.91	-1.90	1.70	 	 	 	 	 	 	 	 	 	 	 	 	 	 	 	 	 	 	1581537179	9.05	16.76
12/02/2020 19:53:00	120220	12022020	195300	234.92	12.379985	-56.792457	235.06	-0.120	-0.700	0.690	234.93	-2.10	1.20	 	 	 	 	 	 	 	 	 	 	 	 	 	 	 	 	 	 	1581537180	9.10	16.85
12/02/2020 19:53:01	120220	12022020	195301	235.01	12.379962	-56.792493	235.17	0.040	-0.760	0.180	235.04	-2.10	0.70	 	 	 	 	 	 	 	 	 	 	 	 	 	 	 	 	 	 	1581537181	9.14	16.93
12/02/2020 19:53:02	120220	12022020	195302	235.17	12.379938	-56.792528	235.33	0.150	-0.640	0.020	235.20	-2.00	0.50	1014.60	26.40	26.50	20.70	20.80	425.0	71.0	70.0	394.0	28.9	232.00	6.00	85.00	9.70	28429	8835.0	27.5	27.5	1581537182	9.07	16.80
12/02/2020 19:53:03	120220	12022020	195303	235.31	12.379917	-56.792565	235.47	0.110	-0.440	0.190	235.33	-1.80	0.60	 	 	 	 	 	 	 	 	 	 	 	 	 	 	 	 	 	 	1581537183	9.03	16.72
12/02/2020 19:53:04	120220	12022020	195304	235.39	12.379895	-56.792603	235.56	-0.000	-0.260	0.490	235.41	-1.60	0.90	 	 	 	 	 	 	 	 	 	 	 	 	 	 	 	 	 	 	1581537184	9.16	16.96
12/02/2020 19:53:05	120220	12022020	195305	235.49	12.379873	-56.792640	235.65	-0.100	-0.010	0.840	235.51	-1.40	1.30	 	 	 	 	 	 	 	 	 	 	 	 	 	 	 	 	 	 	1581537185	9.22	17.08
12/02/2020 19:53:06	120220	12022020	195306	235.52	12.379853	-56.792678	235.65	-0.150	0.160	1.260	235.52	-1.20	1.70	 	 	 	 	 	 	 	 	 	 	 	 	 	 	 	 	 	 	1581537186	9.22	17.08
12/02/2020 19:53:07	120220	12022020	195307	235.44	12.379833	-56.792718	235.55	-0.160	0.170	1.580	235.42	-1.20	2.00	 	 	 	 	 	 	 	 	 	 	 	 	 	 	 	 	 	 	1581537187	9.40	17.41
12/02/2020 19:53:08	120220	12022020	195308	235.33	12.379813	-56.792758	235.43	-0.160	0.030	1.490	235.31	-1.30	1.90	 	 	 	 	 	 	 	 	 	 	 	 	 	 	 	 	 	 	1581537188	9.44	17.48
12/02/2020 19:53:09	120220	12022020	195309	235.24	12.379792	-56.792797	235.33	-0.130	-0.230	1.190	235.22	-1.60	1.60	 	 	 	 	 	 	 	 	 	 	 	 	 	 	 	 	 	 	1581537189	9.43	17.46
12/02/2020 19:53:10	120220	12022020	195310	235.24	12.379770	-56.792835	235.35	-0.060	-0.470	0.920	235.25	-1.80	1.40	 	 	 	 	 	 	 	 	 	 	 	 	 	 	 	 	 	 	1581537190	9.34	17.30
12/02/2020 19:53:11	120220	12022020	195311	235.26	12.379748	-56.792873	235.35	0.030	-0.600	0.930	235.25	-2.00	1.40	 	 	 	 	 	 	 	 	 	 	 	 	 	 	 	 	 	 	1581537191	9.12	16.89
12/02/2020 19:53:12	120220	12022020	195312	235.08	12.379728	-56.792912	235.11	0.150	-0.770	1.330	235.00	-2.10	1.80	 	 	 	 	 	 	 	 	 	 	 	 	 	 	 	 	 	 	1581537192	9.11	16.87
12/02/2020 19:53:13	120220	12022020	195313	234.61	12.379708	-56.792950	234.65	0.230	-0.900	1.810	234.51	-2.30	2.20	 	 	 	 	 	 	 	 	 	 	 	 	 	 	 	 	 	 	1581537193	9.35	17.32
12/02/2020 19:53:14	120220	12022020	195314	234.20	12.379688	-56.792990	234.30	0.150	-0.760	1.950	234.15	-2.10	2.40	 	 	 	 	 	 	 	 	 	 	 	 	 	 	 	 	 	 	1581537194	9.38	17.37
12/02/2020 19:53:15	120220	12022020	195315	234.09	12.379668	-56.793027	234.29	-0.040	-0.270	1.710	234.10	-1.70	2.20	 	 	 	 	 	 	 	 	 	 	 	 	 	 	 	 	 	 	1581537195	9.10	16.85
12/02/2020 19:53:16	120220	12022020	195316	234.40	12.379647	-56.793063	234.64	-0.200	0.240	1.190	234.49	-1.20	1.70	 	 	 	 	 	 	 	 	 	 	 	 	 	 	 	 	 	 	1581537196	8.86	16.41
12/02/2020 19:53:17	120220	12022020	195317	234.98	12.379623	-56.793098	235.25	-0.240	0.360	0.640	235.10	-1.00	1.10	 	 	 	 	 	 	 	 	 	 	 	 	 	 	 	 	 	 	1581537197	9.07	16.80
12/02/2020 19:53:18	120220	12022020	195318	235.59	12.379600	-56.793137	235.82	-0.200	0.170	0.460	235.69	-1.20	0.90	 	 	 	 	 	 	 	 	 	 	 	 	 	 	 	 	 	 	1581537198	9.48	17.56
12/02/2020 19:53:19	120220	12022020	195319	236.01	12.379580	-56.793177	236.22	-0.110	0.150	0.690	236.06	-1.20	1.10	 	 	 	 	 	 	 	 	 	 	 	 	 	 	 	 	 	 	1581537199	9.41	17.43
12/02/2020 19:53:20	120220	12022020	195320	236.14	12.379560	-56.793213	236.30	0.000	0.310	1.200	236.13	-1.10	1.60	 	 	 	 	 	 	 	 	 	 	 	 	 	 	 	 	 	 	1581537200	8.93	16.54
12/02/2020 19:53:21	120220	12022020	195321	235.91	12.379543	-56.793252	235.99	0.140	0.190	1.730	235.82	-1.20	2.20	 	 	 	 	 	 	 	 	 	 	 	 	 	 	 	 	 	 	1581537201	8.83	16.35
12/02/2020 19:53:22	120220	12022020	195322	235.38	12.379523	-56.793290	235.43	0.300	-0.450	2.000	235.25	-1.80	2.50	 	 	 	 	 	 	 	 	 	 	 	 	 	 	 	 	 	 	1581537202	9.20	17.04
12/02/2020 19:53:23	120220	12022020	195323	234.77	12.379500	-56.793328	234.83	0.410	-1.240	1.900	234.65	-2.60	2.40	 	 	 	 	 	 	 	 	 	 	 	 	 	 	 	 	 	 	1581537203	9.55	17.69
12/02/2020 19:53:24	120220	12022020	195324	234.26	12.379477	-56.793367	234.35	0.350	-1.620	1.610	234.19	-3.00	2.10	 	 	 	 	 	 	 	 	 	 	 	 	 	 	 	 	 	 	1581537204	9.46	17.52
12/02/2020 19:53:25	120220	12022020	195325	234.01	12.379455	-56.793403	234.15	0.080	-1.430	1.280	234.00	-2.80	1.70	 	 	 	 	 	 	 	 	 	 	 	 	 	 	 	 	 	 	1581537205	9.10	16.85
12/02/2020 19:53:26	120220	12022020	195326	234.04	12.379433	-56.793438	234.22	-0.280	-0.910	0.930	234.08	-2.30	1.40	 	 	 	 	 	 	 	 	 	 	 	 	 	 	 	 	 	 	1581537206	8.90	16.48
12/02/2020 19:53:27	120220	12022020	195327	234.24	12.379412	-56.793475	234.51	-0.530	-0.320	0.690	234.30	-1.70	1.10	 	 	 	 	 	 	 	 	 	 	 	 	 	 	 	 	 	 	1581537207	9.02	16.71
12/02/2020 19:53:28	120220	12022020	195328	234.63	12.379390	-56.793513	234.84	-0.590	0.170	0.670	234.69	-1.20	1.10	 	 	 	 	 	 	 	 	 	 	 	 	 	 	 	 	 	 	1581537208	9.24	17.11
12/02/2020 19:53:29	120220	12022020	195329	234.86	12.379370	-56.793553	235.05	-0.480	0.520	0.930	234.88	-0.90	1.40	 	 	 	 	 	 	 	 	 	 	 	 	 	 	 	 	 	 	1581537209	9.44	17.48
12/02/2020 19:53:30	120220	12022020	195330	235.00	12.379348	-56.793592	235.22	-0.280	0.780	1.150	235.04	-0.60	1.60	 	 	 	 	 	 	 	 	 	 	 	 	 	 	 	 	 	 	1581537210	9.40	17.41
12/02/2020 19:53:31	120220	12022020	195331	235.22	12.379328	-56.793630	235.47	-0.050	0.860	1.170	235.28	-0.50	1.60	 	 	 	 	 	 	 	 	 	 	 	 	 	 	 	 	 	 	1581537211	9.17	16.98
12/02/2020 19:53:32	120220	12022020	195332	235.49	12.379305	-56.793667	235.72	0.200	0.550	1.010	235.53	-0.80	1.50	 	 	 	 	 	 	 	 	 	 	 	 	 	 	 	 	 	 	1581537212	9.11	16.87
12/02/2020 19:53:33	120220	12022020	195333	235.63	12.379283	-56.793705	235.81	0.420	-0.130	0.890	235.63	-1.50	1.40	 	 	 	 	 	 	 	 	 	 	 	 	 	 	 	 	 	 	1581537213	9.31	17.24
12/02/2020 19:53:34	120220	12022020	195334	235.60	12.379260	-56.793742	235.76	0.480	-0.750	0.850	235.59	-2.10	1.30	 	 	 	 	 	 	 	 	 	 	 	 	 	 	 	 	 	 	1581537214	9.34	17.30
12/02/2020 19:53:35	120220	12022020	195335	235.50	12.379240	-56.793780	235.65	0.380	-0.990	0.900	235.47	-2.40	1.30	 	 	 	 	 	 	 	 	 	 	 	 	 	 	 	 	 	 	1581537215	9.04	16.74
12/02/2020 19:53:36	120220	12022020	195336	235.31	12.379220	-56.793815	235.43	0.220	-0.900	1.050	235.26	-2.30	1.50	 	 	 	 	 	 	 	 	 	 	 	 	 	 	 	 	 	 	1581537216	8.75	16.21
12/02/2020 19:53:37	120220	12022020	195337	235.09	12.379200	-56.793852	235.22	0.080	-0.750	1.160	235.05	-2.10	1.60	 	 	 	 	 	 	 	 	 	 	 	 	 	 	 	 	 	 	1581537217	8.77	16.24
12/02/2020 19:53:38	120220	12022020	195338	234.92	12.379178	-56.793888	235.05	-0.030	-0.710	1.210	234.89	-2.10	1.70	 	 	 	 	 	 	 	 	 	 	 	 	 	 	 	 	 	 	1581537218	9.03	16.72
12/02/2020 19:53:39	120220	12022020	195339	234.84	12.379155	-56.793927	235.00	-0.120	-0.730	1.190	234.84	-2.10	1.70	 	 	 	 	 	 	 	 	 	 	 	 	 	 	 	 	 	 	1581537219	9.32	17.26
12/02/2020 19:53:40	120220	12022020	195340	234.89	12.379133	-56.793963	235.06	-0.230	-0.640	1.080	234.91	-2.00	1.50	 	 	 	 	 	 	 	 	 	 	 	 	 	 	 	 	 	 	1581537220	9.38	17.37
12/02/2020 19:53:41	120220	12022020	195341	234.95	12.379112	-56.794002	235.13	-0.350	-0.490	0.960	234.96	-1.90	1.40	 	 	 	 	 	 	 	 	 	 	 	 	 	 	 	 	 	 	1581537221	9.35	17.32
12/02/2020 19:53:42	120220	12022020	195342	235.01	12.379090	-56.794042	235.17	-0.390	-0.390	0.970	235.02	-1.80	1.40	 	 	 	 	 	 	 	 	 	 	 	 	 	 	 	 	 	 	1581537222	9.46	17.52
12/02/2020 19:53:43	120220	12022020	195343	235.00	12.379068	-56.794082	235.17	-0.310	-0.260	1.120	235.00	-1.60	1.60	 	 	 	 	 	 	 	 	 	 	 	 	 	 	 	 	 	 	1581537223	9.59	17.76
12/02/2020 19:53:44	120220	12022020	195344	235.02	12.379048	-56.794120	235.19	-0.180	0.070	1.330	235.04	-1.30	1.80	 	 	 	 	 	 	 	 	 	 	 	 	 	 	 	 	 	 	1581537224	9.47	17.54
12/02/2020 19:53:45	120220	12022020	195345	235.15	12.379028	-56.794160	235.35	-0.100	0.480	1.390	235.18	-0.90	1.80	 	 	 	 	 	 	 	 	 	 	 	 	 	 	 	 	 	 	1581537225	9.19	17.02
12/02/2020 19:53:46	120220	12022020	195346	235.27	12.379007	-56.794197	235.48	-0.050	0.660	1.280	235.28	-0.70	1.70	 	 	 	 	 	 	 	 	 	 	 	 	 	 	 	 	 	 	1581537226	9.11	16.87
12/02/2020 19:53:47	120220	12022020	195347	235.33	12.378985	-56.794233	235.54	0.020	0.570	0.970	235.35	-0.80	1.40	 	 	 	 	 	 	 	 	 	 	 	 	 	 	 	 	 	 	1581537227	9.21	17.06
12/02/2020 19:53:48	120220	12022020	195348	235.42	12.378962	-56.794270	235.62	0.130	0.320	0.570	235.44	-1.00	1.00	 	 	 	 	 	 	 	 	 	 	 	 	 	 	 	 	 	 	1581537228	9.22	17.08
12/02/2020 19:53:49	120220	12022020	195349	235.55	12.378938	-56.794307	235.77	0.240	-0.010	0.290	235.60	-1.40	0.80	 	 	 	 	 	 	 	 	 	 	 	 	 	 	 	 	 	 	1581537229	9.15	16.95
12/02/2020 19:53:50	120220	12022020	195350	235.76	12.378915	-56.794343	235.94	0.320	-0.340	0.170	235.80	-1.70	0.60	 	 	 	 	 	 	 	 	 	 	 	 	 	 	 	 	 	 	1581537230	9.00	16.67
12/02/2020 19:53:51	120220	12022020	195351	235.86	12.378893	-56.794378	236.00	0.390	-0.780	0.250	235.86	-2.10	0.70	 	 	 	 	 	 	 	 	 	 	 	 	 	 	 	 	 	 	1581537231	8.96	16.59
12/02/2020 19:53:52	120220	12022020	195352	235.74	12.378872	-56.794417	235.86	0.430	-1.440	0.640	235.69	-2.80	1.10	 	 	 	 	 	 	 	 	 	 	 	 	 	 	 	 	 	 	1581537232	9.24	17.11
12/02/2020 19:53:53	120220	12022020	195353	235.43	12.378850	-56.794457	235.52	0.330	-2.040	1.350	235.35	-3.40	1.80	 	 	 	 	 	 	 	 	 	 	 	 	 	 	 	 	 	 	1581537233	9.61	17.80
12/02/2020 19:53:54	120220	12022020	195354	234.98	12.378830	-56.794497	235.10	0.040	-2.060	2.180	234.90	-3.40	2.60	 	 	 	 	 	 	 	 	 	 	 	 	 	 	 	 	 	 	1581537234	9.67	17.91
12/02/2020 19:53:55	120220	12022020	195355	234.58	12.378813	-56.794538	234.74	-0.330	-1.290	2.770	234.52	-2.70	3.20	 	 	 	 	 	 	 	 	 	 	 	 	 	 	 	 	 	 	1581537235	9.37	17.35
12/02/2020 19:53:56	120220	12022020	195356	234.38	12.378797	-56.794577	234.60	-0.590	-0.090	2.920	234.37	-1.50	3.40	 	 	 	 	 	 	 	 	 	 	 	 	 	 	 	 	 	 	1581537236	9.04	16.74
12/02/2020 19:53:57	120220	12022020	195357	234.43	12.378778	-56.794615	234.69	-0.640	0.940	2.650	234.46	-0.50	3.10	 	 	 	 	 	 	 	 	 	 	 	 	 	 	 	 	 	 	1581537237	9.04	16.74
12/02/2020 19:53:58	120220	12022020	195358	234.69	12.378757	-56.794653	234.98	-0.460	1.300	2.000	234.76	-0.10	2.50	 	 	 	 	 	 	 	 	 	 	 	 	 	 	 	 	 	 	1581537238	9.41	17.43
12/02/2020 19:53:59	120220	12022020	195359	235.04	12.378730	-56.794693	235.30	-0.160	1.060	1.220	235.10	-0.30	1.70	 	 	 	 	 	 	 	 	 	 	 	 	 	 	 	 	 	 	1581537239	9.83	18.21
12/02/2020 19:54:00	120220	12022020	195400	235.32	12.378705	-56.794732	235.57	0.090	0.590	0.560	235.38	-0.80	1.00	 	 	 	 	 	 	 	 	 	 	 	 	 	 	 	 	 	 	1581537240	9.89	18.32
12/02/2020 19:54:01	120220	12022020	195401	235.69	12.378678	-56.794768	235.96	0.180	0.230	-0.040	235.78	-1.10	0.40	 	 	 	 	 	 	 	 	 	 	 	 	 	 	 	 	 	 	1581537241	9.51	17.61
12/02/2020 19:54:02	120220	12022020	195402	236.18	12.378655	-56.794803	236.44	0.130	-0.050	-0.340	236.28	-1.40	0.10	1014.60	26.30	26.40	20.30	20.50	427.0	69.0	70.0	393.0	28.9	232.00	7.10	86.00	10.70	27983	8528.0	27.5	27.5	1581537242	8.99	16.65
12/02/2020 19:54:03	120220	12022020	195403	236.60	12.378633	-56.794838	236.81	0.110	-0.450	-0.190	236.65	-1.80	0.30	 	 	 	 	 	 	 	 	 	 	 	 	 	 	 	 	 	 	1581537243	8.81	16.32
12/02/2020 19:54:04	120220	12022020	195404	236.74	12.378612	-56.794875	236.91	0.210	-0.990	0.310	236.73	-2.30	0.70	 	 	 	 	 	 	 	 	 	 	 	 	 	 	 	 	 	 	1581537244	8.98	16.63
12/02/2020 19:54:05	120220	12022020	195405	236.66	12.378593	-56.794913	236.77	0.390	-1.390	0.960	236.63	-2.80	1.40	 	 	 	 	 	 	 	 	 	 	 	 	 	 	 	 	 	 	1581537245	9.18	17.00
12/02/2020 19:54:06	120220	12022020	195406	236.44	12.378573	-56.794952	236.57	0.460	-1.360	1.380	236.40	-2.70	1.80	 	 	 	 	 	 	 	 	 	 	 	 	 	 	 	 	 	 	1581537246	9.06	16.78
12/02/2020 19:54:07	120220	12022020	195407	236.25	12.378553	-56.794988	236.38	0.280	-1.080	1.480	236.22	-2.50	1.90	 	 	 	 	 	 	 	 	 	 	 	 	 	 	 	 	 	 	1581537247	8.90	16.48
12/02/2020 19:54:08	120220	12022020	195408	236.05	12.378533	-56.795027	236.16	-0.030	-0.870	1.480	236.00	-2.20	1.90	 	 	 	 	 	 	 	 	 	 	 	 	 	 	 	 	 	 	1581537248	9.13	16.91
12/02/2020 19:54:09	120220	12022020	195409	235.81	12.378512	-56.795065	235.91	-0.210	-0.720	1.480	235.76	-2.10	1.90	 	 	 	 	 	 	 	 	 	 	 	 	 	 	 	 	 	 	1581537249	9.54	17.67
12/02/2020 19:54:10	120220	12022020	195410	235.58	12.378490	-56.795107	235.70	-0.240	-0.380	1.480	235.55	-1.80	1.90	 	 	 	 	 	 	 	 	 	 	 	 	 	 	 	 	 	 	1581537250	9.69	17.95
12/02/2020 19:54:11	120220	12022020	195411	235.47	12.378468	-56.795147	235.62	-0.290	0.140	1.490	235.48	-1.20	1.90	 	 	 	 	 	 	 	 	 	 	 	 	 	 	 	 	 	 	1581537251	9.60	17.78
12/02/2020 19:54:12	120220	12022020	195412	235.61	12.378448	-56.795187	235.84	-0.470	0.680	1.380	235.68	-0.70	1.80	 	 	 	 	 	 	 	 	 	 	 	 	 	 	 	 	 	 	1581537252	9.47	17.54
12/02/2020 19:54:13	120220	12022020	195413	236.03	12.378430	-56.795225	236.29	-0.630	1.000	1.140	236.13	-0.40	1.60	 	 	 	 	 	 	 	 	 	 	 	 	 	 	 	 	 	 	1581537253	9.35	17.32
12/02/2020 19:54:14	120220	12022020	195414	236.55	12.378408	-56.795265	236.81	-0.580	0.970	0.790	236.66	-0.40	1.30	 	 	 	 	 	 	 	 	 	 	 	 	 	 	 	 	 	 	1581537254	9.33	17.28
12/02/2020 19:54:15	120220	12022020	195415	237.04	12.378387	-56.795302	237.27	-0.230	0.700	0.280	237.12	-0.70	0.80	 	 	 	 	 	 	 	 	 	 	 	 	 	 	 	 	 	 	1581537255	9.24	17.11
12/02/2020 19:54:16	120220	12022020	195416	237.41	12.378363	-56.795338	237.61	0.260	0.210	-0.260	237.48	-1.10	0.20	 	 	 	 	 	 	 	 	 	 	 	 	 	 	 	 	 	 	1581537256	9.11	16.87
12/02/2020 19:54:17	120220	12022020	195417	237.64	12.378340	-56.795373	237.85	0.680	-0.540	-0.620	237.68	-1.90	-0.20	 	 	 	 	 	 	 	 	 	 	 	 	 	 	 	 	 	 	1581537257	9.09	16.83
12/02/2020 19:54:18	120220	12022020	195418	237.83	12.378317	-56.795410	237.97	0.880	-1.310	-0.640	237.84	-2.60	-0.20	 	 	 	 	 	 	 	 	 	 	 	 	 	 	 	 	 	 	1581537258	9.19	17.02
12/02/2020 19:54:19	120220	12022020	195419	237.82	12.378295	-56.795447	237.95	0.830	-1.810	-0.220	237.80	-3.20	0.20	 	 	 	 	 	 	 	 	 	 	 	 	 	 	 	 	 	 	1581537259	9.15	16.95
12/02/2020 19:54:20	120220	12022020	195420	237.70	12.378275	-56.795485	237.83	0.540	-1.880	0.510	237.66	-3.20	0.90	 	 	 	 	 	 	 	 	 	 	 	 	 	 	 	 	 	 	1581537260	9.14	16.93
12/02/2020 19:54:21	120220	12022020	195421	237.48	12.378257	-56.795525	237.58	0.070	-1.510	1.340	237.41	-2.90	1.70	 	 	 	 	 	 	 	 	 	 	 	 	 	 	 	 	 	 	1581537261	9.16	16.96
12/02/2020 19:54:22	120220	12022020	195422	237.02	12.378242	-56.795567	237.07	-0.430	-0.880	2.180	236.89	-2.30	2.60	 	 	 	 	 	 	 	 	 	 	 	 	 	 	 	 	 	 	1581537262	9.36	17.33
12/02/2020 19:54:23	120220	12022020	195423	236.36	12.378225	-56.795608	236.42	-0.760	-0.050	2.790	236.24	-1.40	3.20	 	 	 	 	 	 	 	 	 	 	 	 	 	 	 	 	 	 	1581537263	9.53	17.65
12/02/2020 19:54:24	120220	12022020	195424	235.91	12.378207	-56.795648	236.05	-0.870	0.840	2.770	235.88	-0.60	3.20	 	 	 	 	 	 	 	 	 	 	 	 	 	 	 	 	 	 	1581537264	9.44	17.48
12/02/2020 19:54:25	120220	12022020	195425	235.97	12.378188	-56.795688	236.20	-0.730	1.410	2.080	236.04	0.00	2.50	 	 	 	 	 	 	 	 	 	 	 	 	 	 	 	 	 	 	1581537265	9.27	17.17
12/02/2020 19:54:26	120220	12022020	195426	236.50	12.378165	-56.795727	236.79	-0.350	1.340	1.010	236.65	-0.00	1.50	 	 	 	 	 	 	 	 	 	 	 	 	 	 	 	 	 	 	1581537266	9.35	17.32
12/02/2020 19:54:27	120220	12022020	195427	237.24	12.378142	-56.795763	237.50	0.150	0.680	0.040	237.38	-0.70	0.50	 	 	 	 	 	 	 	 	 	 	 	 	 	 	 	 	 	 	1581537267	9.54	17.67
12/02/2020 19:54:28	120220	12022020	195428	237.85	12.378117	-56.795802	238.05	0.540	-0.230	-0.390	237.94	-1.60	0.10	 	 	 	 	 	 	 	 	 	 	 	 	 	 	 	 	 	 	1581537268	9.54	17.67
12/02/2020 19:54:29	120220	12022020	195429	238.12	12.378093	-56.795838	238.32	0.640	-1.000	-0.290	238.16	-2.40	0.10	 	 	 	 	 	 	 	 	 	 	 	 	 	 	 	 	 	 	1581537269	9.31	17.24
12/02/2020 19:54:30	120220	12022020	195430	238.18	12.378073	-56.795877	238.30	0.500	-1.470	0.170	238.16	-2.80	0.60	 	 	 	 	 	 	 	 	 	 	 	 	 	 	 	 	 	 	1581537270	9.07	16.80
12/02/2020 19:54:31	120220	12022020	195431	238.09	12.378057	-56.795915	238.21	0.280	-1.600	0.710	238.07	-3.00	1.10	 	 	 	 	 	 	 	 	 	 	 	 	 	 	 	 	 	 	1581537271	9.04	16.74
12/02/2020 19:54:32	120220	12022020	195432	238.06	12.378040	-56.795955	238.19	0.130	-1.320	1.040	238.06	-2.70	1.50	 	 	 	 	 	 	 	 	 	 	 	 	 	 	 	 	 	 	1581537272	9.04	16.74
12/02/2020 19:54:33	120220	12022020	195433	238.14	12.378022	-56.795992	238.28	0.030	-0.650	1.030	238.16	-2.10	1.50	 	 	 	 	 	 	 	 	 	 	 	 	 	 	 	 	 	 	1581537273	8.90	16.48
12/02/2020 19:54:34	120220	12022020	195434	238.22	12.378002	-56.796030	238.34	-0.090	0.130	0.950	238.23	-1.30	1.40	 	 	 	 	 	 	 	 	 	 	 	 	 	 	 	 	 	 	1581537274	8.83	16.35
12/02/2020 19:54:35	120220	12022020	195435	238.20	12.377983	-56.796067	238.28	-0.230	0.690	1.030	238.17	-0.70	1.40	 	 	 	 	 	 	 	 	 	 	 	 	 	 	 	 	 	 	1581537275	8.99	16.65
12/02/2020 19:54:36	120220	12022020	195436	237.94	12.377963	-56.796107	237.98	-0.260	0.920	1.250	237.87	-0.50	1.70	 	 	 	 	 	 	 	 	 	 	 	 	 	 	 	 	 	 	1581537276	9.21	17.06
12/02/2020 19:54:37	120220	12022020	195437	237.60	12.377945	-56.796145	237.64	-0.100	0.740	1.340	237.54	-0.60	1.80	 	 	 	 	 	 	 	 	 	 	 	 	 	 	 	 	 	 	1581537277	9.36	17.33
12/02/2020 19:54:38	120220	12022020	195438	237.36	12.377923	-56.796185	237.43	0.190	0.170	1.230	237.32	-1.20	1.70	 	 	 	 	 	 	 	 	 	 	 	 	 	 	 	 	 	 	1581537278	9.48	17.56
12/02/2020 19:54:39	120220	12022020	195439	237.25	12.377902	-56.796225	237.35	0.390	-0.550	1.100	237.24	-1.90	1.50	 	 	 	 	 	 	 	 	 	 	 	 	 	 	 	 	 	 	1581537279	9.53	17.65
12/02/2020 19:54:40	120220	12022020	195440	237.21	12.377882	-56.796263	237.30	0.370	-1.100	1.000	237.20	-2.50	1.40	 	 	 	 	 	 	 	 	 	 	 	 	 	 	 	 	 	 	1581537280	9.39	17.39
12/02/2020 19:54:41	120220	12022020	195441	237.20	12.377862	-56.796302	237.30	0.160	-1.280	0.860	237.21	-2.70	1.30	 	 	 	 	 	 	 	 	 	 	 	 	 	 	 	 	 	 	1581537281	9.10	16.85
12/02/2020 19:54:42	120220	12022020	195442	237.28	12.377843	-56.796340	237.41	-0.080	-1.170	0.630	237.32	-2.60	1.10	 	 	 	 	 	 	 	 	 	 	 	 	 	 	 	 	 	 	1581537282	8.94	16.56
12/02/2020 19:54:43	120220	12022020	195443	237.49	12.377823	-56.796377	237.64	-0.230	-0.870	0.430	237.54	-2.30	0.90	 	 	 	 	 	 	 	 	 	 	 	 	 	 	 	 	 	 	1581537283	8.98	16.63
12/02/2020 19:54:44	120220	12022020	195444	237.77	12.377802	-56.796415	237.91	-0.290	-0.440	0.380	237.82	-1.80	0.80	 	 	 	 	 	 	 	 	 	 	 	 	 	 	 	 	 	 	1581537284	9.08	16.82
12/02/2020 19:54:45	120220	12022020	195445	238.01	12.377783	-56.796453	238.14	-0.270	0.030	0.540	238.05	-1.40	1.00	 	 	 	 	 	 	 	 	 	 	 	 	 	 	 	 	 	 	1581537285	9.13	16.91
12/02/2020 19:54:46	120220	12022020	195446	238.12	12.377763	-56.796492	238.20	-0.130	0.350	0.910	238.12	-1.10	1.30	 	 	 	 	 	 	 	 	 	 	 	 	 	 	 	 	 	 	1581537286	9.22	17.08
12/02/2020 19:54:47	120220	12022020	195447	238.06	12.377745	-56.796532	238.14	0.080	0.340	1.190	238.04	-1.00	1.60	 	 	 	 	 	 	 	 	 	 	 	 	 	 	 	 	 	 	1581537287	9.43	17.46
12/02/2020 19:54:48	120220	12022020	195448	237.94	12.377725	-56.796572	238.00	0.270	0.130	1.220	237.91	-1.30	1.70	 	 	 	 	 	 	 	 	 	 	 	 	 	 	 	 	 	 	1581537288	9.59	17.76
12/02/2020 19:54:49	120220	12022020	195449	237.73	12.377703	-56.796612	237.78	0.320	-0.010	1.160	237.69	-1.40	1.60	 	 	 	 	 	 	 	 	 	 	 	 	 	 	 	 	 	 	1581537289	9.46	17.52
12/02/2020 19:54:50	120220	12022020	195450	237.49	12.377683	-56.796650	237.52	0.190	0.050	1.040	237.44	-1.30	1.50	 	 	 	 	 	 	 	 	 	 	 	 	 	 	 	 	 	 	1581537290	9.10	16.85
12/02/2020 19:54:51	120220	12022020	195451	237.28	12.377663	-56.796687	237.31	0.010	0.100	0.880	237.24	-1.30	1.30	 	 	 	 	 	 	 	 	 	 	 	 	 	 	 	 	 	 	1581537291	8.84	16.37
12/02/2020 19:54:52	120220	12022020	195452	237.13	12.377643	-56.796723	237.19	-0.040	-0.050	0.820	237.11	-1.40	1.30	 	 	 	 	 	 	 	 	 	 	 	 	 	 	 	 	 	 	1581537292	8.94	16.56
12/02/2020 19:54:53	120220	12022020	195453	237.12	12.377623	-56.796762	237.25	0.050	-0.360	0.850	237.14	-1.70	1.30	 	 	 	 	 	 	 	 	 	 	 	 	 	 	 	 	 	 	1581537293	9.10	16.85
12/02/2020 19:54:54	120220	12022020	195454	237.19	12.377603	-56.796800	237.27	0.200	-0.810	1.150	237.18	-2.20	1.60	 	 	 	 	 	 	 	 	 	 	 	 	 	 	 	 	 	 	1581537294	9.26	17.15
12/02/2020 19:54:55	120220	12022020	195455	237.12	12.377585	-56.796842	237.20	0.290	-1.220	1.580	237.10	-2.60	2.00	 	 	 	 	 	 	 	 	 	 	 	 	 	 	 	 	 	 	1581537295	9.46	17.52
12/02/2020 19:54:56	120220	12022020	195456	237.02	12.377568	-56.796882	237.10	0.200	-1.290	1.810	237.00	-2.70	2.20	 	 	 	 	 	 	 	 	 	 	 	 	 	 	 	 	 	 	1581537296	9.44	17.48
12/02/2020 19:54:57	120220	12022020	195457	236.99	12.377552	-56.796922	237.11	-0.010	-0.870	1.750	237.01	-2.30	2.20	 	 	 	 	 	 	 	 	 	 	 	 	 	 	 	 	 	 	1581537297	9.11	16.87
12/02/2020 19:54:58	120220	12022020	195458	237.17	12.377533	-56.796958	237.32	-0.160	-0.180	1.390	237.23	-1.60	1.80	 	 	 	 	 	 	 	 	 	 	 	 	 	 	 	 	 	 	1581537298	8.75	16.21
12/02/2020 19:54:59	120220	12022020	195459	237.55	12.377513	-56.796995	237.71	-0.100	0.250	0.830	237.64	-1.20	1.30	 	 	 	 	 	 	 	 	 	 	 	 	 	 	 	 	 	 	1581537299	8.84	16.37
12/02/2020 19:55:00	120220	12022020	195500	238.00	12.377490	-56.797033	238.16	0.050	0.210	0.340	238.09	-1.20	0.80	 	 	 	 	 	 	 	 	 	 	 	 	 	 	 	 	 	 	1581537300	9.33	17.28
12/02/2020 19:55:01	120220	12022020	195501	238.38	12.377467	-56.797072	238.50	0.080	-0.090	0.130	238.44	-1.50	0.60	 	 	 	 	 	 	 	 	 	 	 	 	 	 	 	 	 	 	1581537301	9.72	18.00
12/02/2020 19:55:02	120220	12022020	195502	238.57	12.377443	-56.797110	238.64	-0.090	-0.290	0.300	238.58	-1.70	0.70	1014.60	26.40	26.50	20.30	20.40	422.0	69.0	69.0	393.0	28.9	228.00	6.70	86.00	10.50	28104	9694.0	27.5	27.5	1581537302	9.68	17.93
12/02/2020 19:55:03	120220	12022020	195503	238.47	12.377422	-56.797150	238.48	-0.370	-0.320	0.960	238.40	-1.70	1.40	 	 	 	 	 	 	 	 	 	 	 	 	 	 	 	 	 	 	1581537303	9.44	17.48
12/02/2020 19:55:04	120220	12022020	195504	238.02	12.377403	-56.797190	237.99	-0.540	-0.220	1.910	237.89	-1.60	2.30	 	 	 	 	 	 	 	 	 	 	 	 	 	 	 	 	 	 	1581537304	9.35	17.32
12/02/2020 19:55:05	120220	12022020	195505	237.37	12.377388	-56.797232	237.35	-0.420	0.040	2.630	237.23	-1.40	3.00	 	 	 	 	 	 	 	 	 	 	 	 	 	 	 	 	 	 	1581537305	9.29	17.21
12/02/2020 19:55:06	120220	12022020	195506	236.78	12.377373	-56.797272	236.78	-0.060	0.310	2.650	236.69	-1.10	3.10	 	 	 	 	 	 	 	 	 	 	 	 	 	 	 	 	 	 	1581537306	9.07	16.80
12/02/2020 19:55:07	120220	12022020	195507	236.42	12.377353	-56.797308	236.46	0.410	0.270	1.980	236.38	-1.10	2.40	 	 	 	 	 	 	 	 	 	 	 	 	 	 	 	 	 	 	1581537307	8.93	16.54
12/02/2020 19:55:08	120220	12022020	195508	236.27	12.377330	-56.797345	236.34	0.780	-0.240	1.040	236.26	-1.60	1.50	 	 	 	 	 	 	 	 	 	 	 	 	 	 	 	 	 	 	1581537308	9.19	17.02
12/02/2020 19:55:09	120220	12022020	195509	236.26	12.377307	-56.797382	236.33	0.870	-0.840	0.310	236.26	-2.20	0.80	 	 	 	 	 	 	 	 	 	 	 	 	 	 	 	 	 	 	1581537309	9.46	17.52
12/02/2020 19:55:10	120220	12022020	195510	236.33	12.377283	-56.797420	236.45	0.580	-1.070	0.070	236.37	-2.50	0.50	 	 	 	 	 	 	 	 	 	 	 	 	 	 	 	 	 	 	1581537310	9.31	17.24
12/02/2020 19:55:11	120220	12022020	195511	236.64	12.377265	-56.797458	236.81	0.010	-0.840	0.090	236.74	-2.30	0.50	 	 	 	 	 	 	 	 	 	 	 	 	 	 	 	 	 	 	1581537311	8.98	16.63
12/02/2020 19:55:12	120220	12022020	195512	237.22	12.377247	-56.797495	237.46	-0.540	-0.470	0.180	237.37	-1.90	0.60	 	 	 	 	 	 	 	 	 	 	 	 	 	 	 	 	 	 	1581537312	8.81	16.32
12/02/2020 19:55:13	120220	12022020	195513	237.97	12.377228	-56.797533	238.22	-0.790	-0.260	0.200	238.12	-1.70	0.60	 	 	 	 	 	 	 	 	 	 	 	 	 	 	 	 	 	 	1581537313	8.99	16.65
12/02/2020 19:55:14	120220	12022020	195514	238.64	12.377208	-56.797572	238.83	-0.670	-0.210	0.200	238.75	-1.60	0.60	 	 	 	 	 	 	 	 	 	 	 	 	 	 	 	 	 	 	1581537314	9.24	17.11
12/02/2020 19:55:15	120220	12022020	195515	239.04	12.377187	-56.797612	239.15	-0.330	-0.250	0.280	239.07	-1.60	0.70	 	 	 	 	 	 	 	 	 	 	 	 	 	 	 	 	 	 	1581537315	9.37	17.35
12/02/2020 19:55:16	120220	12022020	195516	239.06	12.377165	-56.797650	239.12	0.000	-0.330	0.550	239.03	-1.70	1.00	 	 	 	 	 	 	 	 	 	 	 	 	 	 	 	 	 	 	1581537316	9.42	17.45
12/02/2020 19:55:17	120220	12022020	195517	238.75	12.377143	-56.797688	238.74	0.220	-0.450	1.030	238.64	-1.80	1.40	 	 	 	 	 	 	 	 	 	 	 	 	 	 	 	 	 	 	1581537317	9.47	17.54
12/02/2020 19:55:18	120220	12022020	195518	238.08	12.377125	-56.797730	238.01	0.310	-0.570	1.690	237.91	-2.00	2.10	 	 	 	 	 	 	 	 	 	 	 	 	 	 	 	 	 	 	1581537318	9.58	17.74
12/02/2020 19:55:19	120220	12022020	195519	237.37	12.377105	-56.797772	237.15	0.260	-0.520	2.240	237.20	-1.90	2.70	 	 	 	 	 	 	 	 	 	 	 	 	 	 	 	 	 	 	1581537319	9.66	17.89
12/02/2020 19:55:20	120220	12022020	195520	236.43	12.377087	-56.797812	236.43	0.060	-0.150	2.320	236.31	-1.60	2.80	 	 	 	 	 	 	 	 	 	 	 	 	 	 	 	 	 	 	1581537320	9.47	17.54
12/02/2020 19:55:21	120220	12022020	195521	236.05	12.377070	-56.797850	236.11	-0.200	0.400	1.930	236.02	-1.00	2.40	 	 	 	 	 	 	 	 	 	 	 	 	 	 	 	 	 	 	1581537321	9.10	16.85
12/02/2020 19:55:22	120220	12022020	195522	236.10	12.377050	-56.797888	236.27	-0.360	0.710	1.250	236.17	-0.70	1.70	 	 	 	 	 	 	 	 	 	 	 	 	 	 	 	 	 	 	1581537322	8.95	16.58
12/02/2020 19:55:23	120220	12022020	195523	236.62	12.377028	-56.797925	236.85	-0.340	0.540	0.470	236.75	-0.80	0.90	 	 	 	 	 	 	 	 	 	 	 	 	 	 	 	 	 	 	1581537323	9.13	16.91
12/02/2020 19:55:24	120220	12022020	195524	237.31	12.377007	-56.797963	237.56	-0.180	0.020	-0.040	237.45	-1.40	0.40	 	 	 	 	 	 	 	 	 	 	 	 	 	 	 	 	 	 	1581537324	9.37	17.35
12/02/2020 19:55:25	120220	12022020	195525	237.95	12.376985	-56.798002	238.18	0.030	-0.490	-0.090	238.06	-1.90	0.40	 	 	 	 	 	 	 	 	 	 	 	 	 	 	 	 	 	 	1581537325	9.36	17.33
12/02/2020 19:55:26	120220	12022020	195526	238.38	12.376965	-56.798040	238.56	0.230	-0.750	0.250	238.43	-2.20	0.70	 	 	 	 	 	 	 	 	 	 	 	 	 	 	 	 	 	 	1581537326	9.05	16.76
12/02/2020 19:55:27	120220	12022020	195527	238.52	12.376947	-56.798078	238.66	0.360	-0.920	0.780	238.52	-2.30	1.20	 	 	 	 	 	 	 	 	 	 	 	 	 	 	 	 	 	 	1581537327	8.87	16.43
12/02/2020 19:55:28	120220	12022020	195528	238.45	12.376928	-56.798117	238.56	0.410	-1.170	1.270	238.43	-2.60	1.70	 	 	 	 	 	 	 	 	 	 	 	 	 	 	 	 	 	 	1581537328	9.08	16.82
12/02/2020 19:55:29	120220	12022020	195529	238.30	12.376910	-56.798157	238.39	0.380	-1.350	1.500	238.27	-2.80	1.90	 	 	 	 	 	 	 	 	 	 	 	 	 	 	 	 	 	 	1581537329	9.37	17.35
12/02/2020 19:55:30	120220	12022020	195530	238.12	12.376890	-56.798197	238.19	0.280	-1.130	1.470	238.08	-2.50	1.90	 	 	 	 	 	 	 	 	 	 	 	 	 	 	 	 	 	 	1581537330	9.36	17.33
12/02/2020 19:55:31	120220	12022020	195531	237.93	12.376870	-56.798235	237.99	0.070	-0.530	1.290	237.90	-2.00	1.70	 	 	 	 	 	 	 	 	 	 	 	 	 	 	 	 	 	 	1581537331	9.18	17.00
12/02/2020 19:55:32	120220	12022020	195532	237.82	12.376850	-56.798272	237.88	-0.240	0.120	1.050	237.80	-1.30	1.50	 	 	 	 	 	 	 	 	 	 	 	 	 	 	 	 	 	 	1581537332	9.14	16.93
12/02/2020 19:55:33	120220	12022020	195533	237.67	12.376828	-56.798310	237.72	-0.500	0.560	0.990	237.63	-0.90	1.40	 	 	 	 	 	 	 	 	 	 	 	 	 	 	 	 	 	 	1581537333	9.33	17.28
12/02/2020 19:55:34	120220	12022020	195534	237.44	12.376808	-56.798350	237.48	-0.580	0.740	1.160	237.39	-0.70	1.60	 	 	 	 	 	 	 	 	 	 	 	 	 	 	 	 	 	 	1581537334	9.51	17.61
12/02/2020 19:55:35	120220	12022020	195535	237.14	12.376788	-56.798392	237.17	-0.530	0.690	1.470	237.08	-0.70	1.90	 	 	 	 	 	 	 	 	 	 	 	 	 	 	 	 	 	 	1581537335	9.58	17.74
12/02/2020 19:55:36	120220	12022020	195536	236.87	12.376768	-56.798432	236.94	-0.400	0.460	1.650	236.83	-0.90	2.10	 	 	 	 	 	 	 	 	 	 	 	 	 	 	 	 	 	 	1581537336	9.50	17.59
12/02/2020 19:55:37	120220	12022020	195537	236.84	12.376750	-56.798472	236.96	-0.200	0.070	1.510	236.88	-1.30	2.00	 	 	 	 	 	 	 	 	 	 	 	 	 	 	 	 	 	 	1581537337	9.33	17.28
12/02/2020 19:55:38	120220	12022020	195538	237.15	12.376732	-56.798510	237.32	0.110	-0.400	1.040	237.24	-1.80	1.50	 	 	 	 	 	 	 	 	 	 	 	 	 	 	 	 	 	 	1581537338	9.16	16.96
12/02/2020 19:55:39	120220	12022020	195539	237.65	12.376710	-56.798548	237.82	0.460	-0.910	0.430	237.76	-2.30	0.90	 	 	 	 	 	 	 	 	 	 	 	 	 	 	 	 	 	 	1581537339	9.03	16.72
12/02/2020 19:55:40	120220	12022020	195540	238.08	12.376690	-56.798585	238.22	0.690	-1.370	0.080	238.15	-2.80	0.50	 	 	 	 	 	 	 	 	 	 	 	 	 	 	 	 	 	 	1581537340	9.14	16.93
12/02/2020 19:55:41	120220	12022020	195541	238.31	12.376668	-56.798623	238.40	0.630	-1.450	0.100	238.32	-2.90	0.50	 	 	 	 	 	 	 	 	 	 	 	 	 	 	 	 	 	 	1581537341	9.18	17.00
12/02/2020 19:55:42	120220	12022020	195542	238.34	12.376650	-56.798660	238.42	0.280	-0.950	0.310	238.33	-2.40	0.70	 	 	 	 	 	 	 	 	 	 	 	 	 	 	 	 	 	 	1581537342	8.95	16.58
12/02/2020 19:55:43	120220	12022020	195543	238.31	12.376632	-56.798698	238.37	-0.160	-0.130	0.640	238.30	-1.60	1.10	 	 	 	 	 	 	 	 	 	 	 	 	 	 	 	 	 	 	1581537343	8.74	16.19
12/02/2020 19:55:44	120220	12022020	195544	238.24	12.376615	-56.798735	238.31	-0.420	0.520	0.930	238.23	-0.90	1.30	 	 	 	 	 	 	 	 	 	 	 	 	 	 	 	 	 	 	1581537344	8.86	16.41
12/02/2020 19:55:45	120220	12022020	195545	238.15	12.376595	-56.798775	238.21	-0.410	0.660	1.060	238.12	-0.70	1.50	 	 	 	 	 	 	 	 	 	 	 	 	 	 	 	 	 	 	1581537345	9.22	17.08
12/02/2020 19:55:46	120220	12022020	195546	237.95	12.376573	-56.798815	238.01	-0.230	0.270	1.070	237.91	-1.10	1.50	 	 	 	 	 	 	 	 	 	 	 	 	 	 	 	 	 	 	1581537346	9.67	17.91
12/02/2020 19:55:47	120220	12022020	195547	237.67	12.376550	-56.798855	237.72	-0.100	-0.290	1.010	237.61	-1.70	1.40	 	 	 	 	 	 	 	 	 	 	 	 	 	 	 	 	 	 	1581537347	9.85	18.24
12/02/2020 19:55:48	120220	12022020	195548	237.38	12.376527	-56.798893	237.43	-0.110	-0.600	0.960	237.32	-2.00	1.40	 	 	 	 	 	 	 	 	 	 	 	 	 	 	 	 	 	 	1581537348	9.61	17.80
12/02/2020 19:55:49	120220	12022020	195549	237.17	12.376508	-56.798932	237.24	-0.180	-0.570	0.970	237.14	-2.00	1.40	 	 	 	 	 	 	 	 	 	 	 	 	 	 	 	 	 	 	1581537349	9.14	16.93
12/02/2020 19:55:50	120220	12022020	195550	237.04	12.376490	-56.798970	237.12	-0.190	-0.530	1.110	237.01	-1.90	1.50	 	 	 	 	 	 	 	 	 	 	 	 	 	 	 	 	 	 	1581537350	8.99	16.65
12/02/2020 19:55:51	120220	12022020	195551	236.92	12.376473	-56.799010	237.02	-0.100	-0.550	1.340	236.90	-1.90	1.80	 	 	 	 	 	 	 	 	 	 	 	 	 	 	 	 	 	 	1581537351	9.20	17.04
12/02/2020 19:55:52	120220	12022020	195552	236.91	12.376455	-56.799052	237.03	0.030	-0.480	1.450	236.93	-1.90	1.90	 	 	 	 	 	 	 	 	 	 	 	 	 	 	 	 	 	 	1581537352	9.30	17.22
12/02/2020 19:55:53	120220	12022020	195553	237.11	12.376437	-56.799090	237.27	0.150	-0.260	1.220	237.18	-1.70	1.70	 	 	 	 	 	 	 	 	 	 	 	 	 	 	 	 	 	 	1581537353	9.17	16.98
12/02/2020 19:55:54	120220	12022020	195554	237.51	12.376418	-56.799128	237.68	0.250	0.030	0.720	237.61	-1.40	1.20	 	 	 	 	 	 	 	 	 	 	 	 	 	 	 	 	 	 	1581537354	9.01	16.69
12/02/2020 19:55:55	120220	12022020	195555	238.04	12.376397	-56.799165	238.22	0.290	0.220	0.040	238.16	-1.20	0.50	 	 	 	 	 	 	 	 	 	 	 	 	 	 	 	 	 	 	1581537355	8.97	16.61
12/02/2020 19:55:56	120220	12022020	195556	238.55	12.376373	-56.799200	238.67	0.230	0.110	-0.440	238.61	-1.30	0.00	 	 	 	 	 	 	 	 	 	 	 	 	 	 	 	 	 	 	1581537356	9.13	16.91
12/02/2020 19:55:57	120220	12022020	195557	238.67	12.376350	-56.799238	238.70	0.140	-0.210	-0.330	238.64	-1.60	0.10	 	 	 	 	 	 	 	 	 	 	 	 	 	 	 	 	 	 	1581537357	9.39	17.39
12/02/2020 19:55:58	120220	12022020	195558	238.41	12.376328	-56.799277	238.41	0.020	-0.410	0.230	238.33	-1.80	0.60	 	 	 	 	 	 	 	 	 	 	 	 	 	 	 	 	 	 	1581537358	9.41	17.43
12/02/2020 19:55:59	120220	12022020	195559	237.92	12.376310	-56.799317	237.90	-0.070	-0.330	1.050	237.80	-1.70	1.40	 	 	 	 	 	 	 	 	 	 	 	 	 	 	 	 	 	 	1581537359	9.14	16.93
12/02/2020 19:56:00	120220	12022020	195600	237.25	12.376292	-56.799355	237.24	-0.110	-0.240	1.880	237.12	-1.60	2.30	 	 	 	 	 	 	 	 	 	 	 	 	 	 	 	 	 	 	1581537360	9.00	16.67
12/02/2020 19:56:01	120220	12022020	195601	236.61	12.376275	-56.799395	236.65	-0.070	-0.430	2.260	236.51	-1.80	2.70	 	 	 	 	 	 	 	 	 	 	 	 	 	 	 	 	 	 	1581537361	9.21	17.06
12/02/2020 19:56:02	120220	12022020	195602	236.25	12.376255	-56.799435	236.34	-0.010	-0.830	2.030	236.21	-2.20	2.50	1014.70	26.40	26.50	20.30	20.40	412.0	69.0	69.0	393.0	29.0	224.00	6.90	84.00	10.80	27691	8186.0	27.5	27.5	1581537362	9.51	17.61
12/02/2020 19:56:03	120220	12022020	195603	236.24	12.376233	-56.799475	236.39	0.030	-1.090	1.380	236.28	-2.50	1.80	 	 	 	 	 	 	 	 	 	 	 	 	 	 	 	 	 	 	1581537363	9.52	17.63
12/02/2020 19:56:04	120220	12022020	195604	236.50	12.376212	-56.799512	236.67	0.060	-0.990	0.660	236.57	-2.40	1.10	 	 	 	 	 	 	 	 	 	 	 	 	 	 	 	 	 	 	1581537364	9.30	17.22
12/02/2020 19:56:05	120220	12022020	195605	236.87	12.376192	-56.799550	237.05	0.090	-0.530	0.320	236.95	-1.90	0.80	 	 	 	 	 	 	 	 	 	 	 	 	 	 	 	 	 	 	1581537365	9.10	16.85
12/02/2020 19:56:06	120220	12022020	195606	237.28	12.376172	-56.799587	237.46	0.020	0.090	0.370	237.37	-1.30	0.80	 	 	 	 	 	 	 	 	 	 	 	 	 	 	 	 	 	 	1581537366	8.98	16.63
12/02/2020 19:56:07	120220	12022020	195607	237.69	12.376153	-56.799625	237.87	-0.160	0.530	0.540	237.76	-0.90	1.00	 	 	 	 	 	 	 	 	 	 	 	 	 	 	 	 	 	 	1581537367	9.08	16.82
12/02/2020 19:56:08	120220	12022020	195608	238.01	12.376133	-56.799665	238.17	-0.310	0.630	0.690	238.06	-0.80	1.10	 	 	 	 	 	 	 	 	 	 	 	 	 	 	 	 	 	 	1581537368	9.30	17.22
12/02/2020 19:56:09	120220	12022020	195609	238.16	12.376113	-56.799705	238.26	-0.280	0.420	0.810	238.16	-1.00	1.20	 	 	 	 	 	 	 	 	 	 	 	 	 	 	 	 	 	 	1581537369	9.42	17.45
12/02/2020 19:56:10	120220	12022020	195610	238.03	12.376092	-56.799743	238.06	-0.070	-0.040	0.940	237.97	-1.40	1.40	 	 	 	 	 	 	 	 	 	 	 	 	 	 	 	 	 	 	1581537370	9.50	17.59
12/02/2020 19:56:11	120220	12022020	195611	237.71	12.376070	-56.799783	237.60	0.160	-0.480	1.050	237.60	-1.90	1.50	 	 	 	 	 	 	 	 	 	 	 	 	 	 	 	 	 	 	1581537371	9.50	17.59
12/02/2020 19:56:12	120220	12022020	195612	237.10	12.376048	-56.799820	237.10	0.260	-0.590	1.010	237.02	-2.00	1.50	 	 	 	 	 	 	 	 	 	 	 	 	 	 	 	 	 	 	1581537372	9.20	17.04
12/02/2020 19:56:13	120220	12022020	195613	236.80	12.376028	-56.799857	236.88	0.240	-0.410	0.790	236.78	-1.80	1.20	 	 	 	 	 	 	 	 	 	 	 	 	 	 	 	 	 	 	1581537373	8.85	16.39
12/02/2020 19:56:14	120220	12022020	195614	236.82	12.376008	-56.799893	236.95	0.190	-0.200	0.480	236.86	-1.60	0.90	 	 	 	 	 	 	 	 	 	 	 	 	 	 	 	 	 	 	1581537374	8.66	16.04
12/02/2020 19:56:15	120220	12022020	195615	237.13	12.375988	-56.799930	237.29	0.190	-0.300	0.220	237.21	-1.70	0.70	 	 	 	 	 	 	 	 	 	 	 	 	 	 	 	 	 	 	1581537375	8.88	16.45
12/02/2020 19:56:16	120220	12022020	195616	237.50	12.375970	-56.799968	237.64	0.250	-0.690	0.280	237.56	-2.10	0.70	 	 	 	 	 	 	 	 	 	 	 	 	 	 	 	 	 	 	1581537376	9.30	17.22
12/02/2020 19:56:17	120220	12022020	195617	237.71	12.375950	-56.800010	237.81	0.250	-1.080	0.690	237.72	-2.50	1.10	 	 	 	 	 	 	 	 	 	 	 	 	 	 	 	 	 	 	1581537377	9.60	17.78
12/02/2020 19:56:18	120220	12022020	195618	237.79	12.375932	-56.800052	237.90	0.110	-1.120	1.060	237.81	-2.50	1.50	 	 	 	 	 	 	 	 	 	 	 	 	 	 	 	 	 	 	1581537378	9.59	17.76
12/02/2020 19:56:19	120220	12022020	195619	237.90	12.375912	-56.800090	238.00	-0.190	-0.700	1.110	237.93	-2.10	1.50	 	 	 	 	 	 	 	 	 	 	 	 	 	 	 	 	 	 	1581537379	9.24	17.11
12/02/2020 19:56:20	120220	12022020	195620	238.00	12.375892	-56.800128	238.09	-0.490	-0.220	0.960	238.00	-1.60	1.40	 	 	 	 	 	 	 	 	 	 	 	 	 	 	 	 	 	 	1581537380	9.04	16.74
12/02/2020 19:56:21	120220	12022020	195621	237.92	12.375870	-56.800167	237.96	-0.600	-0.100	0.950	237.87	-1.50	1.40	 	 	 	 	 	 	 	 	 	 	 	 	 	 	 	 	 	 	1581537381	9.41	17.43
12/02/2020 19:56:22	120220	12022020	195622	237.60	12.375850	-56.800208	237.62	-0.550	-0.140	1.180	237.53	-1.50	1.60	 	 	 	 	 	 	 	 	 	 	 	 	 	 	 	 	 	 	1581537382	9.85	18.24
12/02/2020 19:56:23	120220	12022020	195623	237.22	12.375830	-56.800250	237.24	-0.430	0.100	1.390	237.16	-1.30	1.80	 	 	 	 	 	 	 	 	 	 	 	 	 	 	 	 	 	 	1581537383	9.74	18.04
12/02/2020 19:56:24	120220	12022020	195624	236.97	12.375812	-56.800288	237.01	-0.300	0.620	1.330	236.94	-0.80	1.80	 	 	 	 	 	 	 	 	 	 	 	 	 	 	 	 	 	 	1581537384	9.19	17.02
12/02/2020 19:56:25	120220	12022020	195625	236.94	12.375792	-56.800325	237.04	-0.070	0.960	1.030	236.96	-0.40	1.50	 	 	 	 	 	 	 	 	 	 	 	 	 	 	 	 	 	 	1581537385	8.86	16.41
12/02/2020 19:56:26	120220	12022020	195626	237.08	12.375772	-56.800362	237.20	0.310	0.780	0.640	237.12	-0.60	1.10	 	 	 	 	 	 	 	 	 	 	 	 	 	 	 	 	 	 	1581537386	9.01	16.69
12/02/2020 19:56:27	120220	12022020	195627	237.28	12.375748	-56.800400	237.40	0.720	0.160	0.330	237.32	-1.20	0.80	 	 	 	 	 	 	 	 	 	 	 	 	 	 	 	 	 	 	1581537387	9.27	17.17
12/02/2020 19:56:28	120220	12022020	195628	237.48	12.375727	-56.800438	237.60	0.980	-0.600	0.250	237.51	-2.00	0.70	 	 	 	 	 	 	 	 	 	 	 	 	 	 	 	 	 	 	1581537388	9.37	17.35
12/02/2020 19:56:29	120220	12022020	195629	237.61	12.375707	-56.800477	237.70	0.920	-1.220	0.440	237.62	-2.60	0.90	 	 	 	 	 	 	 	 	 	 	 	 	 	 	 	 	 	 	1581537389	9.28	17.19
12/02/2020 19:56:30	120220	12022020	195630	237.59	12.375688	-56.800517	237.64	0.570	-1.590	0.880	237.56	-3.00	1.30	 	 	 	 	 	 	 	 	 	 	 	 	 	 	 	 	 	 	1581537390	9.22	17.08
12/02/2020 19:56:31	120220	12022020	195631	237.39	12.375670	-56.800557	237.43	0.060	-1.640	1.370	237.34	-3.00	1.80	 	 	 	 	 	 	 	 	 	 	 	 	 	 	 	 	 	 	1581537391	9.26	17.15
12/02/2020 19:56:32	120220	12022020	195632	237.14	12.375652	-56.800597	237.19	-0.400	-1.410	1.640	237.09	-2.80	2.10	 	 	 	 	 	 	 	 	 	 	 	 	 	 	 	 	 	 	1581537392	9.32	17.26
12/02/2020 19:56:33	120220	12022020	195633	236.99	12.375632	-56.800637	237.06	-0.700	-0.910	1.600	236.97	-2.30	2.00	 	 	 	 	 	 	 	 	 	 	 	 	 	 	 	 	 	 	1581537393	9.39	17.39
12/02/2020 19:56:34	120220	12022020	195634	236.96	12.375612	-56.800675	237.07	-0.870	-0.230	1.300	236.98	-1.70	1.80	 	 	 	 	 	 	 	 	 	 	 	 	 	 	 	 	 	 	1581537394	9.35	17.32
12/02/2020 19:56:35	120220	12022020	195635	237.14	12.375590	-56.800713	237.28	-0.910	0.340	0.890	237.20	-1.10	1.40	 	 	 	 	 	 	 	 	 	 	 	 	 	 	 	 	 	 	1581537395	9.37	17.35
12/02/2020 19:56:36	120220	12022020	195636	237.40	12.375567	-56.800752	237.53	-0.750	0.570	0.580	237.43	-0.80	1.00	 	 	 	 	 	 	 	 	 	 	 	 	 	 	 	 	 	 	1581537396	9.53	17.65
12/02/2020 19:56:37	120220	12022020	195637	237.47	12.375545	-56.800792	237.56	-0.360	0.470	0.620	237.45	-0.90	1.10	 	 	 	 	 	 	 	 	 	 	 	 	 	 	 	 	 	 	1581537397	9.78	18.11
12/02/2020 19:56:38	120220	12022020	195638	237.34	12.375523	-56.800833	237.41	0.120	0.320	0.890	237.30	-1.10	1.30	 	 	 	 	 	 	 	 	 	 	 	 	 	 	 	 	 	 	1581537398	9.83	18.21
12/02/2020 19:56:39	120220	12022020	195639	237.16	12.375503	-56.800873	237.22	0.460	0.400	1.120	237.14	-1.00	1.60	 	 	 	 	 	 	 	 	 	 	 	 	 	 	 	 	 	 	1581537399	9.50	17.59
12/02/2020 19:56:40	120220	12022020	195640	237.07	12.375485	-56.800912	237.16	0.590	0.540	1.130	237.08	-0.90	1.60	 	 	 	 	 	 	 	 	 	 	 	 	 	 	 	 	 	 	1581537400	9.06	16.78
12/02/2020 19:56:41	120220	12022020	195641	237.16	12.375465	-56.800948	237.26	0.580	0.430	0.860	237.20	-1.00	1.30	 	 	 	 	 	 	 	 	 	 	 	 	 	 	 	 	 	 	1581537401	8.95	16.58
12/02/2020 19:56:42	120220	12022020	195642	237.33	12.375443	-56.800987	237.43	0.520	-0.040	0.570	237.36	-1.40	1.00	 	 	 	 	 	 	 	 	 	 	 	 	 	 	 	 	 	 	1581537402	9.10	16.85
12/02/2020 19:56:43	120220	12022020	195643	237.51	12.375422	-56.801025	237.62	0.450	-0.730	0.420	237.55	-2.10	0.90	 	 	 	 	 	 	 	 	 	 	 	 	 	 	 	 	 	 	1581537403	9.32	17.26
12/02/2020 19:56:44	120220	12022020	195644	237.71	12.375402	-56.801065	237.82	0.320	-1.380	0.530	237.73	-2.80	1.00	 	 	 	 	 	 	 	 	 	 	 	 	 	 	 	 	 	 	1581537404	9.43	17.46
12/02/2020 19:56:45	120220	12022020	195645	237.75	12.375383	-56.801105	237.83	0.100	-1.740	0.920	237.73	-3.10	1.30	 	 	 	 	 	 	 	 	 	 	 	 	 	 	 	 	 	 	1581537405	9.41	17.43
12/02/2020 19:56:46	120220	12022020	195646	237.58	12.375367	-56.801145	237.63	-0.110	-1.730	1.200	237.53	-3.10	1.60	 	 	 	 	 	 	 	 	 	 	 	 	 	 	 	 	 	 	1581537406	9.35	17.32
12/02/2020 19:56:47	120220	12022020	195647	237.38	12.375347	-56.801183	237.39	-0.260	-1.290	1.200	237.34	-2.70	1.60	 	 	 	 	 	 	 	 	 	 	 	 	 	 	 	 	 	 	1581537407	9.24	17.11
12/02/2020 19:56:48	120220	12022020	195648	237.21	12.375325	-56.801222	237.28	-0.330	-0.580	0.980	237.19	-2.00	1.40	 	 	 	 	 	 	 	 	 	 	 	 	 	 	 	 	 	 	1581537408	9.17	16.98
12/02/2020 19:56:49	120220	12022020	195649	237.15	12.375303	-56.801260	237.23	-0.380	0.050	0.880	237.15	-1.40	1.30	 	 	 	 	 	 	 	 	 	 	 	 	 	 	 	 	 	 	1581537409	9.34	17.30
12/02/2020 19:56:50	120220	12022020	195650	237.12	12.375282	-56.801300	237.21	-0.410	0.450	1.060	237.12	-1.00	1.50	 	 	 	 	 	 	 	 	 	 	 	 	 	 	 	 	 	 	1581537410	9.62	17.82
12/02/2020 19:56:51	120220	12022020	195651	237.13	12.375262	-56.801342	237.21	-0.360	0.600	1.430	237.13	-0.80	1.80	 	 	 	 	 	 	 	 	 	 	 	 	 	 	 	 	 	 	1581537411	9.84	18.22
12/02/2020 19:56:52	120220	12022020	195652	237.14	12.375242	-56.801383	237.22	-0.190	0.530	1.740	237.14	-0.90	2.20	 	 	 	 	 	 	 	 	 	 	 	 	 	 	 	 	 	 	1581537412	9.93	18.39
12/02/2020 19:56:53	120220	12022020	195653	237.15	12.375222	-56.801427	237.24	0.050	0.360	1.790	237.16	-1.00	2.20	 	 	 	 	 	 	 	 	 	 	 	 	 	 	 	 	 	 	1581537413	9.89	18.32
12/02/2020 19:56:54	120220	12022020	195654	237.23	12.375202	-56.801467	237.34	0.200	0.320	1.490	237.26	-1.10	1.90	 	 	 	 	 	 	 	 	 	 	 	 	 	 	 	 	 	 	1581537414	9.58	17.74
12/02/2020 19:56:55	120220	12022020	195655	237.38	12.375182	-56.801505	237.48	0.140	0.360	0.960	237.41	-1.10	1.40	 	 	 	 	 	 	 	 	 	 	 	 	 	 	 	 	 	 	1581537415	9.08	16.82
12/02/2020 19:56:56	120220	12022020	195656	237.50	12.375160	-56.801540	237.58	0.050	0.130	0.450	237.53	-1.30	0.90	 	 	 	 	 	 	 	 	 	 	 	 	 	 	 	 	 	 	1581537416	8.94	16.56
12/02/2020 19:56:57	120220	12022020	195657	237.58	12.375138	-56.801578	237.66	0.170	-0.450	-0.040	237.59	-1.80	0.40	 	 	 	 	 	 	 	 	 	 	 	 	 	 	 	 	 	 	1581537417	9.20	17.04
12/02/2020 19:56:58	120220	12022020	195658	237.59	12.375113	-56.801615	237.67	0.430	-1.070	-0.390	237.59	-2.50	0.10	 	 	 	 	 	 	 	 	 	 	 	 	 	 	 	 	 	 	1581537418	9.43	17.46
12/02/2020 19:56:59	120220	12022020	195659	237.59	12.375090	-56.801652	237.65	0.540	-1.420	-0.310	237.58	-2.80	0.10	 	 	 	 	 	 	 	 	 	 	 	 	 	 	 	 	 	 	1581537419	9.35	17.32
12/02/2020 19:57:00	120220	12022020	195700	237.51	12.375070	-56.801690	237.57	0.340	-1.430	0.280	237.49	-2.80	0.70	 	 	 	 	 	 	 	 	 	 	 	 	 	 	 	 	 	 	1581537420	9.25	17.13
12/02/2020 19:57:01	120220	12022020	195701	237.39	12.375052	-56.801732	237.38	0.010	-1.170	1.180	237.34	-2.60	1.60	 	 	 	 	 	 	 	 	 	 	 	 	 	 	 	 	 	 	1581537421	9.32	17.26
12/02/2020 19:57:02	120220	12022020	195702	236.99	12.375037	-56.801773	236.98	-0.230	-0.750	2.110	236.89	-2.20	2.50	1014.70	26.40	26.50	20.20	20.30	406.0	68.0	69.0	392.0	29.0	222.00	6.80	82.00	10.90	27367	9777.0	27.5	27.5	1581537422	9.50	17.59
12/02/2020 19:57:03	120220	12022020	195703	236.45	12.375022	-56.801817	236.44	-0.270	-0.390	2.730	236.33	-1.80	3.10	 	 	 	 	 	 	 	 	 	 	 	 	 	 	 	 	 	 	1581537423	9.72	18.00
12/02/2020 19:57:04	120220	12022020	195704	235.89	12.375002	-56.801858	235.92	-0.180	-0.150	2.810	235.79	-1.60	3.20	 	 	 	 	 	 	 	 	 	 	 	 	 	 	 	 	 	 	1581537424	9.92	18.37
12/02/2020 19:57:05	120220	12022020	195705	235.52	12.374980	-56.801902	235.63	-0.120	0.050	2.390	235.50	-1.40	2.90	 	 	 	 	 	 	 	 	 	 	 	 	 	 	 	 	 	 	1581537425	9.98	18.48
12/02/2020 19:57:06	120220	12022020	195706	235.63	12.374958	-56.801940	235.84	-0.170	0.350	1.510	235.71	-1.10	2.00	 	 	 	 	 	 	 	 	 	 	 	 	 	 	 	 	 	 	1581537426	9.78	18.11
12/02/2020 19:57:07	120220	12022020	195707	236.21	12.374935	-56.801978	236.48	-0.330	0.740	0.510	236.36	-0.70	1.00	 	 	 	 	 	 	 	 	 	 	 	 	 	 	 	 	 	 	1581537427	9.39	17.39
12/02/2020 19:57:08	120220	12022020	195708	237.00	12.374910	-56.802013	237.29	-0.460	0.950	-0.230	237.17	-0.50	0.20	 	 	 	 	 	 	 	 	 	 	 	 	 	 	 	 	 	 	1581537428	9.11	16.87
12/02/2020 19:57:09	120220	12022020	195709	237.78	12.374887	-56.802050	238.02	-0.340	0.750	-0.470	237.90	-0.60	-0.00	 	 	 	 	 	 	 	 	 	 	 	 	 	 	 	 	 	 	1581537429	9.10	16.85
12/02/2020 19:57:10	120220	12022020	195710	238.21	12.374865	-56.802088	238.37	0.100	0.130	-0.110	238.25	-1.30	0.30	 	 	 	 	 	 	 	 	 	 	 	 	 	 	 	 	 	 	1581537430	9.31	17.24
12/02/2020 19:57:11	120220	12022020	195711	238.17	12.374845	-56.802128	238.24	0.610	-0.710	0.770	238.11	-2.10	1.20	 	 	 	 	 	 	 	 	 	 	 	 	 	 	 	 	 	 	1581537431	9.53	17.65
12/02/2020 19:57:12	120220	12022020	195712	237.75	12.374827	-56.802168	237.76	0.890	-1.410	1.690	237.63	-2.80	2.10	 	 	 	 	 	 	 	 	 	 	 	 	 	 	 	 	 	 	1581537432	9.59	17.76
12/02/2020 19:57:13	120220	12022020	195713	237.17	12.374808	-56.802208	237.17	0.750	-1.670	2.170	237.05	-3.10	2.60	 	 	 	 	 	 	 	 	 	 	 	 	 	 	 	 	 	 	1581537433	9.38	17.37
12/02/2020 19:57:14	120220	12022020	195714	236.65	12.374788	-56.802248	236.69	0.330	-1.550	2.180	236.57	-3.00	2.60	 	 	 	 	 	 	 	 	 	 	 	 	 	 	 	 	 	 	1581537434	9.20	17.04
12/02/2020 19:57:15	120220	12022020	195715	236.36	12.374768	-56.802287	236.44	-0.120	-1.120	1.910	236.34	-2.60	2.40	 	 	 	 	 	 	 	 	 	 	 	 	 	 	 	 	 	 	1581537435	9.22	17.08
12/02/2020 19:57:16	120220	12022020	195716	236.36	12.374748	-56.802325	236.48	-0.440	-0.530	1.480	236.39	-2.00	1.90	 	 	 	 	 	 	 	 	 	 	 	 	 	 	 	 	 	 	1581537436	9.27	17.17
12/02/2020 19:57:17	120220	12022020	195717	236.61	12.374727	-56.802365	236.76	-0.630	-0.090	0.870	236.68	-1.50	1.30	 	 	 	 	 	 	 	 	 	 	 	 	 	 	 	 	 	 	1581537437	9.45	17.50
12/02/2020 19:57:18	120220	12022020	195718	236.97	12.374705	-56.802405	237.13	-0.700	0.110	0.330	237.05	-1.30	0.80	 	 	 	 	 	 	 	 	 	 	 	 	 	 	 	 	 	 	1581537438	9.78	18.11
12/02/2020 19:57:19	120220	12022020	195719	237.30	12.374682	-56.802445	237.44	-0.650	0.230	0.090	237.35	-1.20	0.50	 	 	 	 	 	 	 	 	 	 	 	 	 	 	 	 	 	 	1581537439	9.87	18.28
12/02/2020 19:57:20	120220	12022020	195720	237.46	12.374660	-56.802485	237.56	-0.450	0.360	0.260	237.47	-1.10	0.70	 	 	 	 	 	 	 	 	 	 	 	 	 	 	 	 	 	 	1581537440	9.76	18.08
12/02/2020 19:57:21	120220	12022020	195721	237.43	12.374638	-56.802525	237.51	-0.140	0.500	0.640	237.41	-0.90	1.10	 	 	 	 	 	 	 	 	 	 	 	 	 	 	 	 	 	 	1581537441	9.57	17.72
12/02/2020 19:57:22	120220	12022020	195722	237.31	12.374620	-56.802565	237.36	0.180	0.580	0.970	237.28	-0.80	1.40	 	 	 	 	 	 	 	 	 	 	 	 	 	 	 	 	 	 	1581537442	9.40	17.41
12/02/2020 19:57:23	120220	12022020	195723	237.21	12.374598	-56.802605	237.27	0.430	0.480	1.000	237.19	-0.90	1.40	 	 	 	 	 	 	 	 	 	 	 	 	 	 	 	 	 	 	1581537443	9.29	17.21
12/02/2020 19:57:24	120220	12022020	195724	237.16	12.374578	-56.802643	237.24	0.550	0.190	0.810	237.17	-1.20	1.30	 	 	 	 	 	 	 	 	 	 	 	 	 	 	 	 	 	 	1581537444	9.27	17.17
12/02/2020 19:57:25	120220	12022020	195725	237.25	12.374557	-56.802680	237.34	0.530	-0.220	0.610	237.27	-1.60	1.10	 	 	 	 	 	 	 	 	 	 	 	 	 	 	 	 	 	 	1581537445	9.17	16.98
12/02/2020 19:57:26	120220	12022020	195726	237.33	12.374535	-56.802718	237.41	0.430	-0.780	0.600	237.33	-2.20	1.00	 	 	 	 	 	 	 	 	 	 	 	 	 	 	 	 	 	 	1581537446	9.20	17.04
12/02/2020 19:57:27	120220	12022020	195727	237.31	12.374515	-56.802757	237.37	0.320	-1.310	0.830	237.30	-2.70	1.20	 	 	 	 	 	 	 	 	 	 	 	 	 	 	 	 	 	 	1581537447	9.37	17.35
12/02/2020 19:57:28	120220	12022020	195728	237.23	12.374497	-56.802798	237.28	0.230	-1.560	1.120	237.20	-3.00	1.50	 	 	 	 	 	 	 	 	 	 	 	 	 	 	 	 	 	 	1581537448	9.40	17.41
12/02/2020 19:57:29	120220	12022020	195729	237.01	12.374478	-56.802837	237.01	0.160	-1.490	1.410	236.93	-2.90	1.80	 	 	 	 	 	 	 	 	 	 	 	 	 	 	 	 	 	 	1581537449	9.36	17.33
12/02/2020 19:57:30	120220	12022020	195730	236.53	12.374458	-56.802877	236.51	0.070	-1.190	1.730	236.42	-2.60	2.10	 	 	 	 	 	 	 	 	 	 	 	 	 	 	 	 	 	 	1581537450	9.43	17.46
12/02/2020 19:57:31	120220	12022020	195731	235.95	12.374437	-56.802917	235.95	-0.100	-0.710	1.960	235.85	-2.10	2.40	 	 	 	 	 	 	 	 	 	 	 	 	 	 	 	 	 	 	1581537451	9.57	17.72
12/02/2020 19:57:32	120220	12022020	195732	235.50	12.374417	-56.802958	235.54	-0.320	-0.120	1.960	235.44	-1.60	2.40	 	 	 	 	 	 	 	 	 	 	 	 	 	 	 	 	 	 	1581537452	9.63	17.83
12/02/2020 19:57:33	120220	12022020	195733	235.34	12.374397	-56.802998	235.48	-0.520	0.410	1.600	235.36	-1.00	2.10	 	 	 	 	 	 	 	 	 	 	 	 	 	 	 	 	 	 	1581537453	9.62	17.82
12/02/2020 19:57:34	120220	12022020	195734	235.61	12.374373	-56.803037	235.85	-0.630	0.720	1.030	235.72	-0.70	1.50	 	 	 	 	 	 	 	 	 	 	 	 	 	 	 	 	 	 	1581537454	9.62	17.82
12/02/2020 19:57:35	120220	12022020	195735	236.25	12.374350	-56.803077	236.53	-0.610	0.750	0.460	236.41	-0.70	0.90	 	 	 	 	 	 	 	 	 	 	 	 	 	 	 	 	 	 	1581537455	9.68	17.93
12/02/2020 19:57:36	120220	12022020	195736	237.00	12.374327	-56.803115	237.26	-0.430	0.610	0.160	237.15	-0.80	0.60	 	 	 	 	 	 	 	 	 	 	 	 	 	 	 	 	 	 	1581537456	9.67	17.91
12/02/2020 19:57:37	120220	12022020	195737	237.60	12.374305	-56.803155	237.80	-0.120	0.410	0.230	237.69	-1.00	0.70	 	 	 	 	 	 	 	 	 	 	 	 	 	 	 	 	 	 	1581537457	9.50	17.59
12/02/2020 19:57:38	120220	12022020	195738	237.89	12.374285	-56.803193	238.02	0.230	0.090	0.590	237.91	-1.30	1.00	 	 	 	 	 	 	 	 	 	 	 	 	 	 	 	 	 	 	1581537458	9.29	17.21
12/02/2020 19:57:39	120220	12022020	195739	237.88	12.374265	-56.803233	237.95	0.570	-0.480	1.040	237.84	-1.90	1.50	 	 	 	 	 	 	 	 	 	 	 	 	 	 	 	 	 	 	1581537459	9.33	17.28
12/02/2020 19:57:40	120220	12022020	195740	237.58	12.374245	-56.803273	237.59	0.810	-1.090	1.390	237.50	-2.50	1.80	 	 	 	 	 	 	 	 	 	 	 	 	 	 	 	 	 	 	1581537460	9.48	17.56
12/02/2020 19:57:41	120220	12022020	195741	237.05	12.374223	-56.803312	237.03	0.790	-1.410	1.620	236.93	-2.80	2.10	 	 	 	 	 	 	 	 	 	 	 	 	 	 	 	 	 	 	1581537461	9.43	17.46
12/02/2020 19:57:42	120220	12022020	195742	236.44	12.374202	-56.803350	236.42	0.460	-1.280	1.730	236.33	-2.70	2.20	 	 	 	 	 	 	 	 	 	 	 	 	 	 	 	 	 	 	1581537462	9.25	17.13
12/02/2020 19:57:43	120220	12022020	195743	236.00	12.374183	-56.803388	236.05	-0.020	-0.850	1.670	235.94	-2.30	2.10	 	 	 	 	 	 	 	 	 	 	 	 	 	 	 	 	 	 	1581537463	9.13	16.91
12/02/2020 19:57:44	120220	12022020	195744	235.86	12.374165	-56.803428	235.96	-0.380	-0.400	1.430	235.87	-1.80	1.90	 	 	 	 	 	 	 	 	 	 	 	 	 	 	 	 	 	 	1581537464	9.23	17.09
12/02/2020 19:57:45	120220	12022020	195745	236.03	12.374145	-56.803468	236.19	-0.500	-0.060	1.000	236.10	-1.50	1.40	 	 	 	 	 	 	 	 	 	 	 	 	 	 	 	 	 	 	1581537465	9.46	17.52
12/02/2020 19:57:46	120220	12022020	195746	236.47	12.374123	-56.803507	236.66	-0.420	0.210	0.510	236.58	-1.20	1.00	 	 	 	 	 	 	 	 	 	 	 	 	 	 	 	 	 	 	1581537466	9.53	17.65
12/02/2020 19:57:47	120220	12022020	195747	236.98	12.374102	-56.803547	237.15	-0.260	0.330	0.230	237.08	-1.10	0.70	 	 	 	 	 	 	 	 	 	 	 	 	 	 	 	 	 	 	1581537467	9.54	17.67
12/02/2020 19:57:48	120220	12022020	195748	237.36	12.374080	-56.803587	237.49	-0.100	0.200	0.290	237.41	-1.20	0.70	 	 	 	 	 	 	 	 	 	 	 	 	 	 	 	 	 	 	1581537468	9.64	17.85
12/02/2020 19:57:49	120220	12022020	195749	237.48	12.374058	-56.803627	237.57	-0.000	-0.050	0.600	237.49	-1.40	1.00	 	 	 	 	 	 	 	 	 	 	 	 	 	 	 	 	 	 	1581537469	9.72	18.00
12/02/2020 19:57:50	120220	12022020	195750	237.42	12.374037	-56.803667	237.49	0.010	-0.240	0.930	237.40	-1.60	1.40	 	 	 	 	 	 	 	 	 	 	 	 	 	 	 	 	 	 	1581537470	9.62	17.82
12/02/2020 19:57:51	120220	12022020	195751	237.37	12.374015	-56.803705	237.46	-0.010	-0.300	1.020	237.37	-1.70	1.50	 	 	 	 	 	 	 	 	 	 	 	 	 	 	 	 	 	 	1581537471	9.39	17.39
12/02/2020 19:57:52	120220	12022020	195752	237.38	12.373995	-56.803743	237.45	0.030	-0.370	0.860	237.38	-1.80	1.30	 	 	 	 	 	 	 	 	 	 	 	 	 	 	 	 	 	 	1581537472	9.24	17.11
12/02/2020 19:57:53	120220	12022020	195753	237.34	12.373973	-56.803782	237.39	0.160	-0.530	0.710	237.32	-1.90	1.20	 	 	 	 	 	 	 	 	 	 	 	 	 	 	 	 	 	 	1581537473	9.34	17.30
12/02/2020 19:57:54	120220	12022020	195754	237.17	12.373952	-56.803822	237.19	0.250	-0.700	0.820	237.11	-2.10	1.20	 	 	 	 	 	 	 	 	 	 	 	 	 	 	 	 	 	 	1581537474	9.51	17.61
12/02/2020 19:57:55	120220	12022020	195755	236.83	12.373932	-56.803862	236.83	0.200	-0.760	1.300	236.74	-2.20	1.70	 	 	 	 	 	 	 	 	 	 	 	 	 	 	 	 	 	 	1581537475	9.58	17.74
12/02/2020 19:57:56	120220	12022020	195756	236.41	12.373913	-56.803903	236.41	0.040	-0.640	1.770	236.33	-2.00	2.20	 	 	 	 	 	 	 	 	 	 	 	 	 	 	 	 	 	 	1581537476	9.60	17.78
12/02/2020 19:57:57	120220	12022020	195757	236.16	12.373895	-56.803945	236.24	-0.150	-0.320	1.890	236.15	-1.70	2.30	 	 	 	 	 	 	 	 	 	 	 	 	 	 	 	 	 	 	1581537477	9.46	17.52
12/02/2020 19:57:58	120220	12022020	195758	236.18	12.373877	-56.803983	236.28	-0.280	0.040	1.620	236.20	-1.40	2.10	 	 	 	 	 	 	 	 	 	 	 	 	 	 	 	 	 	 	1581537478	9.29	17.21
12/02/2020 19:57:59	120220	12022020	195759	236.32	12.373855	-56.804023	236.43	-0.240	0.190	1.080	236.36	-1.20	1.50	 	 	 	 	 	 	 	 	 	 	 	 	 	 	 	 	 	 	1581537479	9.32	17.26
12/02/2020 19:58:00	120220	12022020	195800	236.48	12.373832	-56.804060	236.57	-0.050	0.070	0.570	236.50	-1.30	1.00	 	 	 	 	 	 	 	 	 	 	 	 	 	 	 	 	 	 	1581537480	9.56	17.71
12/02/2020 19:58:01	120220	12022020	195801	236.54	12.373807	-56.804098	236.64	0.110	-0.070	0.350	236.55	-1.50	0.80	 	 	 	 	 	 	 	 	 	 	 	 	 	 	 	 	 	 	1581537481	9.68	17.93
12/02/2020 19:58:02	120220	12022020	195802	236.60	12.373783	-56.804137	236.72	0.110	-0.030	0.430	236.62	-1.40	0.90	1014.60	26.40	26.50	20.20	20.30	398.0	68.0	68.0	392.0	29.0	221.00	6.30	80.00	10.50	26976	10176.0	27.5	27.5	1581537482	9.44	17.48
12/02/2020 19:58:03	120220	12022020	195803	236.77	12.373763	-56.804175	236.93	0.040	-0.000	0.670	236.82	-1.40	1.10	 	 	 	 	 	 	 	 	 	 	 	 	 	 	 	 	 	 	1581537483	9.19	17.02
12/02/2020 19:58:04	120220	12022020	195804	236.99	12.373743	-56.804215	237.12	0.050	-0.310	0.970	237.02	-1.70	1.40	 	 	 	 	 	 	 	 	 	 	 	 	 	 	 	 	 	 	1581537484	9.33	17.28
12/02/2020 19:58:05	120220	12022020	195805	237.07	12.373723	-56.804257	237.17	0.130	-0.990	1.320	237.06	-2.40	1.70	 	 	 	 	 	 	 	 	 	 	 	 	 	 	 	 	 	 	1581537485	9.78	18.11
12/02/2020 19:58:06	120220	12022020	195806	237.00	12.373705	-56.804300	237.09	0.140	-1.550	1.630	236.98	-2.90	2.00	 	 	 	 	 	 	 	 	 	 	 	 	 	 	 	 	 	 	1581537486	10.06	18.63
12/02/2020 19:58:07	120220	12022020	195807	236.91	12.373685	-56.804342	237.00	-0.010	-1.450	1.650	236.90	-2.90	2.10	 	 	 	 	 	 	 	 	 	 	 	 	 	 	 	 	 	 	1581537487	9.73	18.02
12/02/2020 19:58:08	120220	12022020	195808	236.92	12.373665	-56.804380	237.04	-0.210	-0.700	1.330	236.94	-2.10	1.80	 	 	 	 	 	 	 	 	 	 	 	 	 	 	 	 	 	 	1581537488	9.15	16.95
12/02/2020 19:58:09	120220	12022020	195809	237.03	12.373643	-56.804415	237.12	-0.290	0.140	0.880	237.04	-1.30	1.30	 	 	 	 	 	 	 	 	 	 	 	 	 	 	 	 	 	 	1581537489	8.91	16.50
12/02/2020 19:58:10	120220	12022020	195810	237.02	12.373620	-56.804453	237.07	-0.190	0.490	0.630	236.99	-0.90	1.10	 	 	 	 	 	 	 	 	 	 	 	 	 	 	 	 	 	 	1581537490	9.38	17.37
12/02/2020 19:58:11	120220	12022020	195811	236.82	12.373597	-56.804493	236.86	-0.080	0.510	0.690	236.76	-0.90	1.10	 	 	 	 	 	 	 	 	 	 	 	 	 	 	 	 	 	 	1581537491	9.88	18.30
12/02/2020 19:58:12	120220	12022020	195812	236.55	12.373575	-56.804533	236.60	-0.110	0.560	0.950	236.50	-0.80	1.40	 	 	 	 	 	 	 	 	 	 	 	 	 	 	 	 	 	 	1581537492	9.81	18.17
12/02/2020 19:58:13	120220	12022020	195813	236.29	12.373555	-56.804573	236.36	-0.200	0.600	1.320	236.24	-0.80	1.70	 	 	 	 	 	 	 	 	 	 	 	 	 	 	 	 	 	 	1581537493	9.43	17.46
12/02/2020 19:58:14	120220	12022020	195814	236.02	12.373537	-56.804613	236.10	-0.140	0.250	1.650	235.97	-1.10	2.10	 	 	 	 	 	 	 	 	 	 	 	 	 	 	 	 	 	 	1581537494	9.43	17.46
12/02/2020 19:58:15	120220	12022020	195815	235.83	12.373517	-56.804655	235.95	0.090	-0.390	1.680	235.83	-1.80	2.10	 	 	 	 	 	 	 	 	 	 	 	 	 	 	 	 	 	 	1581537495	9.67	17.91
12/02/2020 19:58:16	120220	12022020	195816	235.92	12.373495	-56.804695	236.06	0.350	-0.900	1.310	235.96	-2.30	1.80	 	 	 	 	 	 	 	 	 	 	 	 	 	 	 	 	 	 	1581537496	9.53	17.65
12/02/2020 19:58:17	120220	12022020	195817	236.19	12.373473	-56.804732	236.33	0.510	-1.190	0.800	236.25	-2.60	1.30	 	 	 	 	 	 	 	 	 	 	 	 	 	 	 	 	 	 	1581537497	9.22	17.08
12/02/2020 19:58:18	120220	12022020	195818	236.48	12.373452	-56.804770	236.61	0.490	-1.350	0.400	236.54	-2.70	0.90	 	 	 	 	 	 	 	 	 	 	 	 	 	 	 	 	 	 	1581537498	9.19	17.02
12/02/2020 19:58:19	120220	12022020	195819	236.67	12.373428	-56.804807	236.76	0.290	-1.370	0.290	236.70	-2.80	0.70	 	 	 	 	 	 	 	 	 	 	 	 	 	 	 	 	 	 	1581537499	9.38	17.37
12/02/2020 19:58:20	120220	12022020	195820	236.75	12.373407	-56.804847	236.81	-0.050	-1.040	0.390	236.75	-2.50	0.80	 	 	 	 	 	 	 	 	 	 	 	 	 	 	 	 	 	 	1581537500	9.49	17.58
12/02/2020 19:58:21	120220	12022020	195821	236.73	12.373387	-56.804885	236.80	-0.430	-0.340	0.580	236.72	-1.80	1.00	 	 	 	 	 	 	 	 	 	 	 	 	 	 	 	 	 	 	1581537501	9.37	17.35
12/02/2020 19:58:22	120220	12022020	195822	236.70	12.373365	-56.804923	236.78	-0.710	0.400	0.800	236.70	-1.00	1.20	 	 	 	 	 	 	 	 	 	 	 	 	 	 	 	 	 	 	1581537502	9.32	17.26
12/02/2020 19:58:23	120220	12022020	195823	236.68	12.373345	-56.804963	236.76	-0.760	0.820	0.980	236.67	-0.60	1.40	 	 	 	 	 	 	 	 	 	 	 	 	 	 	 	 	 	 	1581537503	9.48	17.56
12/02/2020 19:58:24	120220	12022020	195824	236.64	12.373323	-56.805005	236.71	-0.530	0.780	1.100	236.62	-0.60	1.50	 	 	 	 	 	 	 	 	 	 	 	 	 	 	 	 	 	 	1581537504	9.75	18.06
12/02/2020 19:58:25	120220	12022020	195825	236.48	12.373302	-56.805047	236.54	-0.120	0.360	1.170	236.43	-1.00	1.60	 	 	 	 	 	 	 	 	 	 	 	 	 	 	 	 	 	 	1581537505	9.97	18.46
12/02/2020 19:58:26	120220	12022020	195826	236.20	12.373280	-56.805087	236.25	0.250	-0.100	1.130	236.14	-1.50	1.60	 	 	 	 	 	 	 	 	 	 	 	 	 	 	 	 	 	 	1581537506	9.92	18.37
12/02/2020 19:58:27	120220	12022020	195827	235.86	12.373257	-56.805127	235.90	0.400	-0.330	0.990	235.78	-1.70	1.40	 	 	 	 	 	 	 	 	 	 	 	 	 	 	 	 	 	 	1581537507	9.51	17.61
12/02/2020 19:58:28	120220	12022020	195828	235.48	12.373235	-56.805163	235.54	0.370	-0.400	0.930	235.41	-1.80	1.40	 	 	 	 	 	 	 	 	 	 	 	 	 	 	 	 	 	 	1581537508	9.11	16.87
12/02/2020 19:58:29	120220	12022020	195829	235.21	12.373215	-56.805200	235.33	0.320	-0.530	1.020	235.19	-1.90	1.40	 	 	 	 	 	 	 	 	 	 	 	 	 	 	 	 	 	 	1581537509	9.08	16.82
12/02/2020 19:58:30	120220	12022020	195830	235.24	12.373197	-56.805240	235.42	0.280	-0.700	1.040	235.28	-2.10	1.50	 	 	 	 	 	 	 	 	 	 	 	 	 	 	 	 	 	 	1581537510	9.25	17.13
12/02/2020 19:58:31	120220	12022020	195831	235.57	12.373177	-56.805278	235.80	0.220	-0.810	0.860	235.66	-2.20	1.30	 	 	 	 	 	 	 	 	 	 	 	 	 	 	 	 	 	 	1581537511	9.32	17.26
12/02/2020 19:58:32	120220	12022020	195832	236.09	12.373155	-56.805318	236.34	0.170	-0.770	0.510	236.21	-2.20	1.00	 	 	 	 	 	 	 	 	 	 	 	 	 	 	 	 	 	 	1581537512	9.35	17.32
12/02/2020 19:58:33	120220	12022020	195833	236.70	12.373132	-56.805355	236.94	0.050	-0.480	0.110	236.82	-1.90	0.60	 	 	 	 	 	 	 	 	 	 	 	 	 	 	 	 	 	 	1581537513	9.23	17.09
12/02/2020 19:58:34	120220	12022020	195834	237.21	12.373110	-56.805392	237.38	-0.160	-0.260	-0.070	237.29	-1.70	0.40	 	 	 	 	 	 	 	 	 	 	 	 	 	 	 	 	 	 	1581537514	9.23	17.09
12/02/2020 19:58:35	120220	12022020	195835	237.50	12.373087	-56.805430	237.61	-0.350	-0.280	0.230	237.52	-1.70	0.60	 	 	 	 	 	 	 	 	 	 	 	 	 	 	 	 	 	 	1581537515	9.54	17.67
12/02/2020 19:58:36	120220	12022020	195836	237.48	12.373067	-56.805472	237.52	-0.400	-0.370	0.760	237.42	-1.80	1.20	 	 	 	 	 	 	 	 	 	 	 	 	 	 	 	 	 	 	1581537516	9.79	18.13
12/02/2020 19:58:37	120220	12022020	195837	237.05	12.373045	-56.805513	237.03	-0.310	-0.320	1.330	236.92	-1.70	1.70	 	 	 	 	 	 	 	 	 	 	 	 	 	 	 	 	 	 	1581537517	9.74	18.04
12/02/2020 19:58:38	120220	12022020	195838	236.34	12.373025	-56.805553	236.30	-0.160	-0.160	1.760	236.19	-1.60	2.20	 	 	 	 	 	 	 	 	 	 	 	 	 	 	 	 	 	 	1581537518	9.58	17.74
12/02/2020 19:58:39	120220	12022020	195839	235.78	12.373002	-56.805592	235.68	-0.010	-0.060	1.860	235.66	-1.50	2.30	 	 	 	 	 	 	 	 	 	 	 	 	 	 	 	 	 	 	1581537519	9.52	17.63
12/02/2020 19:58:40	120220	12022020	195840	235.20	12.372980	-56.805632	235.28	0.080	-0.080	1.650	235.15	-1.50	2.10	 	 	 	 	 	 	 	 	 	 	 	 	 	 	 	 	 	 	1581537520	9.57	17.72
12/02/2020 19:58:41	120220	12022020	195841	235.07	12.372958	-56.805670	235.19	0.140	-0.110	1.180	235.07	-1.50	1.60	 	 	 	 	 	 	 	 	 	 	 	 	 	 	 	 	 	 	1581537521	9.54	17.67
12/02/2020 19:58:42	120220	12022020	195842	235.14	12.372937	-56.805710	235.30	0.180	-0.160	0.710	235.17	-1.60	1.10	 	 	 	 	 	 	 	 	 	 	 	 	 	 	 	 	 	 	1581537522	9.46	17.52
12/02/2020 19:58:43	120220	12022020	195843	235.41	12.372915	-56.805748	235.62	0.200	-0.220	0.410	235.49	-1.60	0.80	 	 	 	 	 	 	 	 	 	 	 	 	 	 	 	 	 	 	1581537523	9.46	17.52
12/02/2020 19:58:44	120220	12022020	195844	235.91	12.372895	-56.805787	236.15	0.130	-0.140	0.240	236.03	-1.50	0.70	 	 	 	 	 	 	 	 	 	 	 	 	 	 	 	 	 	 	1581537524	9.37	17.35
12/02/2020 19:58:45	120220	12022020	195845	236.53	12.372875	-56.805825	236.76	0.010	0.090	0.250	236.66	-1.30	0.70	 	 	 	 	 	 	 	 	 	 	 	 	 	 	 	 	 	 	1581537525	9.12	16.89
12/02/2020 19:58:46	120220	12022020	195846	237.12	12.372855	-56.805863	237.32	-0.010	0.260	0.300	237.22	-1.10	0.70	 	 	 	 	 	 	 	 	 	 	 	 	 	 	 	 	 	 	1581537526	8.95	16.58
12/02/2020 19:58:47	120220	12022020	195847	237.58	12.372833	-56.805900	237.75	0.180	0.100	0.270	237.66	-1.30	0.70	 	 	 	 	 	 	 	 	 	 	 	 	 	 	 	 	 	 	1581537527	9.03	16.72
12/02/2020 19:58:48	120220	12022020	195848	237.88	12.372810	-56.805937	237.98	0.400	-0.510	0.320	237.92	-1.90	0.80	 	 	 	 	 	 	 	 	 	 	 	 	 	 	 	 	 	 	1581537528	9.42	17.45
12/02/2020 19:58:49	120220	12022020	195849	237.86	12.372787	-56.805977	237.85	0.450	-1.320	0.670	237.80	-2.70	1.10	 	 	 	 	 	 	 	 	 	 	 	 	 	 	 	 	 	 	1581537529	9.82	18.19
12/02/2020 19:58:50	120220	12022020	195850	237.33	12.372765	-56.806018	237.24	0.260	-1.750	1.290	237.19	-3.10	1.70	 	 	 	 	 	 	 	 	 	 	 	 	 	 	 	 	 	 	1581537530	9.92	18.37
12/02/2020 19:58:51	120220	12022020	195851	236.58	12.372745	-56.806058	236.49	-0.070	-1.450	1.890	236.43	-2.90	2.30	 	 	 	 	 	 	 	 	 	 	 	 	 	 	 	 	 	 	1581537531	9.57	17.72
12/02/2020 19:58:52	120220	12022020	195852	235.93	12.372727	-56.806098	235.89	-0.390	-0.690	2.100	235.83	-2.10	2.50	 	 	 	 	 	 	 	 	 	 	 	 	 	 	 	 	 	 	1581537532	9.22	17.08
12/02/2020 19:58:53	120220	12022020	195853	235.50	12.372707	-56.806137	235.52	-0.520	-0.010	1.890	235.44	-1.40	2.30	 	 	 	 	 	 	 	 	 	 	 	 	 	 	 	 	 	 	1581537533	9.24	17.11
12/02/2020 19:58:54	120220	12022020	195854	235.36	12.372685	-56.806177	235.45	-0.450	0.320	1.380	235.38	-1.10	1.80	 	 	 	 	 	 	 	 	 	 	 	 	 	 	 	 	 	 	1581537534	9.56	17.71
12/02/2020 19:58:55	120220	12022020	195855	235.61	12.372662	-56.806217	235.78	-0.320	0.290	0.730	235.70	-1.10	1.20	 	 	 	 	 	 	 	 	 	 	 	 	 	 	 	 	 	 	1581537535	9.89	18.32
12/02/2020 19:58:56	120220	12022020	195856	236.17	12.372638	-56.806258	236.36	-0.270	0.210	0.120	236.30	-1.20	0.60	 	 	 	 	 	 	 	 	 	 	 	 	 	 	 	 	 	 	1581537536	9.98	18.48
12/02/2020 19:58:57	120220	12022020	195857	236.83	12.372617	-56.806297	237.04	-0.290	0.320	-0.230	236.97	-1.10	0.20	 	 	 	 	 	 	 	 	 	 	 	 	 	 	 	 	 	 	1581537537	9.66	17.89
12/02/2020 19:58:58	120220	12022020	195858	237.46	12.372595	-56.806335	237.64	-0.230	0.540	-0.270	237.57	-0.90	0.20	 	 	 	 	 	 	 	 	 	 	 	 	 	 	 	 	 	 	1581537538	9.22	17.08
12/02/2020 19:58:59	120220	12022020	195859	237.86	12.372573	-56.806373	237.97	0.070	0.480	0.040	237.90	-0.90	0.40	 	 	 	 	 	 	 	 	 	 	 	 	 	 	 	 	 	 	1581537539	9.12	16.89
12/02/2020 19:59:00	120220	12022020	195900	237.93	12.372553	-56.806412	237.98	0.500	0.070	0.540	237.90	-1.30	0.90	 	 	 	 	 	 	 	 	 	 	 	 	 	 	 	 	 	 	1581537540	9.35	17.32
12/02/2020 19:59:01	120220	12022020	195901	237.69	12.372532	-56.806452	237.69	0.760	-0.440	1.030	237.61	-1.80	1.40	 	 	 	 	 	 	 	 	 	 	 	 	 	 	 	 	 	 	1581537541	9.48	17.56
12/02/2020 19:59:02	120220	12022020	195902	237.25	12.372512	-56.806490	237.24	0.680	-0.730	1.330	237.15	-2.10	1.80	1014.60	26.50	26.60	20.50	20.50	395.0	69.0	69.0	392.0	29.0	224.00	5.60	80.00	9.70	26720	9274.0	27.5	27.5	1581537542	9.29	17.21
12/02/2020 19:59:03	120220	12022020	195903	236.78	12.372492	-56.806527	236.78	0.400	-0.890	1.400	236.70	-2.30	1.80	 	 	 	 	 	 	 	 	 	 	 	 	 	 	 	 	 	 	1581537543	9.05	16.76
12/02/2020 19:59:04	120220	12022020	195904	236.44	12.372472	-56.806565	236.48	0.190	-1.110	1.300	236.39	-2.50	1.70	 	 	 	 	 	 	 	 	 	 	 	 	 	 	 	 	 	 	1581537544	9.17	16.98
12/02/2020 19:59:05	120220	12022020	195905	236.26	12.372450	-56.806605	236.33	0.110	-1.360	1.180	236.24	-2.70	1.60	 	 	 	 	 	 	 	 	 	 	 	 	 	 	 	 	 	 	1581537545	9.51	17.61
12/02/2020 19:59:06	120220	12022020	195906	236.22	12.372428	-56.806645	236.31	0.030	-1.320	1.130	236.23	-2.70	1.50	 	 	 	 	 	 	 	 	 	 	 	 	 	 	 	 	 	 	1581537546	9.69	17.95
12/02/2020 19:59:07	120220	12022020	195907	236.33	12.372408	-56.806685	236.46	-0.190	-0.840	1.150	236.38	-2.30	1.60	 	 	 	 	 	 	 	 	 	 	 	 	 	 	 	 	 	 	1581537547	9.51	17.61
12/02/2020 19:59:08	120220	12022020	195908	236.60	12.372388	-56.806725	236.74	-0.500	-0.240	1.050	236.66	-1.70	1.50	 	 	 	 	 	 	 	 	 	 	 	 	 	 	 	 	 	 	1581537548	9.37	17.35
12/02/2020 19:59:09	120220	12022020	195909	236.94	12.372367	-56.806765	237.09	-0.720	0.080	0.760	237.02	-1.30	1.20	 	 	 	 	 	 	 	 	 	 	 	 	 	 	 	 	 	 	1581537549	9.59	17.76
12/02/2020 19:59:10	120220	12022020	195910	237.29	12.372343	-56.806805	237.40	-0.670	0.200	0.390	237.35	-1.20	0.80	 	 	 	 	 	 	 	 	 	 	 	 	 	 	 	 	 	 	1581537550	9.92	18.37
12/02/2020 19:59:11	120220	12022020	195911	237.52	12.372318	-56.806845	237.59	-0.400	0.330	0.160	237.54	-1.10	0.60	 	 	 	 	 	 	 	 	 	 	 	 	 	 	 	 	 	 	1581537551	9.95	18.43
12/02/2020 19:59:12	120220	12022020	195912	237.54	12.372295	-56.806883	237.57	-0.140	0.530	0.310	237.51	-0.90	0.70	 	 	 	 	 	 	 	 	 	 	 	 	 	 	 	 	 	 	1581537552	9.73	18.02
12/02/2020 19:59:13	120220	12022020	195913	237.37	12.372273	-56.806923	237.39	-0.040	0.690	0.780	237.32	-0.70	1.20	 	 	 	 	 	 	 	 	 	 	 	 	 	 	 	 	 	 	1581537553	9.44	17.48
12/02/2020 19:59:14	120220	12022020	195914	237.08	12.372255	-56.806962	237.10	0.010	0.680	1.280	237.02	-0.70	1.70	 	 	 	 	 	 	 	 	 	 	 	 	 	 	 	 	 	 	1581537554	9.28	17.19
12/02/2020 19:59:15	120220	12022020	195915	236.79	12.372237	-56.807002	236.84	0.200	0.420	1.450	236.74	-1.00	1.90	 	 	 	 	 	 	 	 	 	 	 	 	 	 	 	 	 	 	1581537555	9.24	17.11
12/02/2020 19:59:16	120220	12022020	195916	236.63	12.372218	-56.807042	236.73	0.550	-0.110	1.180	236.62	-1.50	1.60	 	 	 	 	 	 	 	 	 	 	 	 	 	 	 	 	 	 	1581537556	9.23	17.09
12/02/2020 19:59:17	120220	12022020	195917	236.64	12.372195	-56.807078	236.78	0.880	-0.830	0.690	236.66	-2.20	1.10	 	 	 	 	 	 	 	 	 	 	 	 	 	 	 	 	 	 	1581537557	9.31	17.24
12/02/2020 19:59:18	120220	12022020	195918	236.78	12.372173	-56.807117	236.88	0.920	-1.560	0.320	236.80	-2.90	0.80	 	 	 	 	 	 	 	 	 	 	 	 	 	 	 	 	 	 	1581537558	9.48	17.56
12/02/2020 19:59:19	120220	12022020	195919	236.86	12.372150	-56.807155	236.94	0.600	-1.860	0.240	236.87	-3.30	0.70	 	 	 	 	 	 	 	 	 	 	 	 	 	 	 	 	 	 	1581537559	9.48	17.56
12/02/2020 19:59:20	120220	12022020	195920	237.00	12.372130	-56.807193	237.11	0.110	-1.440	0.260	237.05	-2.90	0.70	 	 	 	 	 	 	 	 	 	 	 	 	 	 	 	 	 	 	1581537560	9.15	16.95
12/02/2020 19:59:21	120220	12022020	195921	237.27	12.372110	-56.807230	237.38	-0.300	-0.620	0.390	237.32	-2.00	0.80	 	 	 	 	 	 	 	 	 	 	 	 	 	 	 	 	 	 	1581537561	8.88	16.45
12/02/2020 19:59:22	120220	12022020	195922	237.46	12.372090	-56.807268	237.54	-0.490	-0.040	0.720	237.48	-1.50	1.10	 	 	 	 	 	 	 	 	 	 	 	 	 	 	 	 	 	 	1581537562	9.14	16.93
12/02/2020 19:59:23	120220	12022020	195923	237.51	12.372068	-56.807310	237.56	-0.470	0.030	1.130	237.50	-1.40	1.50	 	 	 	 	 	 	 	 	 	 	 	 	 	 	 	 	 	 	1581537563	9.80	18.15
12/02/2020 19:59:24	120220	12022020	195924	237.38	12.372048	-56.807353	237.39	-0.410	-0.170	1.430	237.33	-1.60	1.80	 	 	 	 	 	 	 	 	 	 	 	 	 	 	 	 	 	 	1581537564	10.26	19.00
12/02/2020 19:59:25	120220	12022020	195925	237.04	12.372027	-56.807397	237.02	-0.420	-0.240	1.520	236.95	-1.60	1.90	 	 	 	 	 	 	 	 	 	 	 	 	 	 	 	 	 	 	1581537565	10.20	18.89
12/02/2020 19:59:26	120220	12022020	195926	236.62	12.372005	-56.807437	236.61	-0.470	0.010	1.410	236.54	-1.40	1.80	 	 	 	 	 	 	 	 	 	 	 	 	 	 	 	 	 	 	1581537566	9.71	17.98
12/02/2020 19:59:27	120220	12022020	195927	236.27	12.371983	-56.807475	236.30	-0.420	0.290	1.170	236.21	-1.10	1.60	 	 	 	 	 	 	 	 	 	 	 	 	 	 	 	 	 	 	1581537567	9.36	17.33
12/02/2020 19:59:28	120220	12022020	195928	236.08	12.371962	-56.807513	236.15	-0.210	0.340	0.870	236.07	-1.10	1.30	 	 	 	 	 	 	 	 	 	 	 	 	 	 	 	 	 	 	1581537568	9.37	17.35
12/02/2020 19:59:29	120220	12022020	195929	236.11	12.371940	-56.807553	236.29	0.080	0.290	0.530	236.15	-1.10	1.00	 	 	 	 	 	 	 	 	 	 	 	 	 	 	 	 	 	 	1581537569	9.46	17.52
12/02/2020 19:59:30	120220	12022020	195930	236.53	12.371918	-56.807590	236.71	0.330	0.400	0.220	236.63	-1.00	0.70	 	 	 	 	 	 	 	 	 	 	 	 	 	 	 	 	 	 	1581537570	9.22	17.08
12/02/2020 19:59:31	120220	12022020	195931	237.00	12.371897	-56.807627	237.33	0.420	0.520	0.050	237.12	-0.90	0.50	 	 	 	 	 	 	 	 	 	 	 	 	 	 	 	 	 	 	1581537571	8.84	16.37
12/02/2020 19:59:32	120220	12022020	195932	237.76	12.371877	-56.807662	237.94	0.430	0.300	0.070	237.86	-1.10	0.50	 	 	 	 	 	 	 	 	 	 	 	 	 	 	 	 	 	 	1581537572	8.83	16.35
12/02/2020 19:59:33	120220	12022020	195933	238.23	12.371857	-56.807700	238.35	0.500	-0.350	0.320	238.30	-1.70	0.70	 	 	 	 	 	 	 	 	 	 	 	 	 	 	 	 	 	 	1581537573	9.13	16.91
12/02/2020 19:59:34	120220	12022020	195934	238.45	12.371837	-56.807740	238.50	0.650	-1.210	0.700	238.45	-2.60	1.10	 	 	 	 	 	 	 	 	 	 	 	 	 	 	 	 	 	 	1581537574	9.48	17.56
12/02/2020 19:59:35	120220	12022020	195935	238.33	12.371817	-56.807782	238.33	0.740	-1.910	1.090	238.27	-3.30	1.50	 	 	 	 	 	 	 	 	 	 	 	 	 	 	 	 	 	 	1581537575	9.65	17.87
12/02/2020 19:59:36	120220	12022020	195936	237.97	12.371797	-56.807822	237.94	0.550	-2.110	1.410	237.88	-3.50	1.80	 	 	 	 	 	 	 	 	 	 	 	 	 	 	 	 	 	 	1581537576	9.55	17.69
12/02/2020 19:59:37	120220	12022020	195937	237.48	12.371777	-56.807860	237.42	0.070	-1.830	1.690	237.36	-3.20	2.10	 	 	 	 	 	 	 	 	 	 	 	 	 	 	 	 	 	 	1581537577	9.40	17.41
12/02/2020 19:59:38	120220	12022020	195938	236.86	12.371755	-56.807900	236.80	-0.540	-1.250	1.900	236.72	-2.70	2.30	 	 	 	 	 	 	 	 	 	 	 	 	 	 	 	 	 	 	1581537578	9.49	17.58
12/02/2020 19:59:39	120220	12022020	195939	236.32	12.371735	-56.807942	236.33	-1.080	-0.500	1.880	236.26	-1.90	2.30	 	 	 	 	 	 	 	 	 	 	 	 	 	 	 	 	 	 	1581537579	9.68	17.93
12/02/2020 19:59:40	120220	12022020	195940	236.16	12.371715	-56.807983	236.24	-1.330	0.310	1.590	236.18	-1.10	2.00	 	 	 	 	 	 	 	 	 	 	 	 	 	 	 	 	 	 	1581537580	9.75	18.06
12/02/2020 19:59:41	120220	12022020	195941	236.40	12.371695	-56.808023	236.56	-1.190	0.990	1.060	236.49	-0.40	1.50	 	 	 	 	 	 	 	 	 	 	 	 	 	 	 	 	 	 	1581537581	9.78	18.11
12/02/2020 19:59:42	120220	12022020	195942	236.97	12.371672	-56.808063	237.19	-0.700	1.490	0.440	237.11	0.10	0.90	 	 	 	 	 	 	 	 	 	 	 	 	 	 	 	 	 	 	1581537582	9.70	17.96
12/02/2020 19:59:43	120220	12022020	195943	237.71	12.371648	-56.808102	237.94	-0.080	1.770	-0.080	237.87	0.40	0.40	 	 	 	 	 	 	 	 	 	 	 	 	 	 	 	 	 	 	1581537583	9.48	17.56
12/02/2020 19:59:44	120220	12022020	195944	238.49	12.371627	-56.808140	238.70	0.450	1.750	-0.260	238.62	0.40	0.20	 	 	 	 	 	 	 	 	 	 	 	 	 	 	 	 	 	 	1581537584	9.19	17.02
12/02/2020 19:59:45	120220	12022020	195945	239.08	12.371607	-56.808177	239.22	0.830	1.220	0.040	239.15	-0.10	0.40	 	 	 	 	 	 	 	 	 	 	 	 	 	 	 	 	 	 	1581537585	8.97	16.61
12/02/2020 19:59:46	120220	12022020	195946	239.29	12.371588	-56.808215	239.34	1.110	-0.010	0.660	239.29	-1.30	1.00	 	 	 	 	 	 	 	 	 	 	 	 	 	 	 	 	 	 	1581537586	9.16	16.96
12/02/2020 19:59:47	120220	12022020	195947	239.16	12.371570	-56.808257	239.16	1.300	-1.670	1.200	239.10	-3.00	1.60	 	 	 	 	 	 	 	 	 	 	 	 	 	 	 	 	 	 	1581537587	9.60	17.78
12/02/2020 19:59:48	120220	12022020	195948	238.84	12.371550	-56.808298	238.83	1.230	-3.020	1.390	238.78	-4.40	1.80	 	 	 	 	 	 	 	 	 	 	 	 	 	 	 	 	 	 	1581537588	9.73	18.02
12/02/2020 19:59:49	120220	12022020	195949	238.51	12.371530	-56.808338	238.51	0.760	-3.470	1.380	238.45	-4.90	1.80	 	 	 	 	 	 	 	 	 	 	 	 	 	 	 	 	 	 	1581537589	9.40	17.41
12/02/2020 19:59:50	120220	12022020	195950	238.15	12.371510	-56.808377	238.14	0.020	-2.970	1.410	238.06	-4.40	1.80	 	 	 	 	 	 	 	 	 	 	 	 	 	 	 	 	 	 	1581537590	9.10	16.85
12/02/2020 19:59:51	120220	12022020	195951	237.67	12.371492	-56.808415	237.64	-0.770	-1.750	1.560	237.56	-3.20	2.00	 	 	 	 	 	 	 	 	 	 	 	 	 	 	 	 	 	 	1581537591	9.06	16.78
12/02/2020 19:59:52	120220	12022020	195952	237.27	12.371472	-56.808453	237.30	-1.330	-0.220	1.600	237.23	-1.70	2.00	 	 	 	 	 	 	 	 	 	 	 	 	 	 	 	 	 	 	1581537592	9.21	17.06
12/02/2020 19:59:53	120220	12022020	195953	237.22	12.371452	-56.808493	237.37	-1.470	1.190	1.350	237.25	-0.30	1.80	 	 	 	 	 	 	 	 	 	 	 	 	 	 	 	 	 	 	1581537593	9.42	17.45
12/02/2020 19:59:54	120220	12022020	195954	237.59	12.371430	-56.808533	237.76	-1.200	2.030	0.840	237.68	0.60	1.30	 	 	 	 	 	 	 	 	 	 	 	 	 	 	 	 	 	 	1581537594	9.66	17.89
12/02/2020 19:59:55	120220	12022020	195955	238.11	12.371408	-56.808575	238.29	-0.630	2.020	0.390	238.22	0.60	0.80	 	 	 	 	 	 	 	 	 	 	 	 	 	 	 	 	 	 	1581537595	10.06	18.63
12/02/2020 19:59:56	120220	12022020	195956	238.71	12.371385	-56.808617	238.86	0.010	1.400	0.280	238.81	0.00	0.70	 	 	 	 	 	 	 	 	 	 	 	 	 	 	 	 	 	 	1581537596	10.28	19.04
12/02/2020 19:59:57	120220	12022020	195957	239.20	12.371365	-56.808660	239.29	0.490	0.640	0.570	239.26	-0.70	1.00	 	 	 	 	 	 	 	 	 	 	 	 	 	 	 	 	 	 	1581537597	10.04	18.59
12/02/2020 19:59:58	120220	12022020	195958	239.37	12.371348	-56.808702	239.39	0.740	-0.050	1.090	239.36	-1.40	1.50	 	 	 	 	 	 	 	 	 	 	 	 	 	 	 	 	 	 	1581537598	9.51	17.61
12/02/2020 19:59:59	120220	12022020	195959	239.15	12.371332	-56.808742	239.10	0.830	-0.620	1.600	239.06	-2.00	2.00	 	 	 	 	 	 	 	 	 	 	 	 	 	 	 	 	 	 	1581537599	9.11	16.87
12/02/2020 20:00:00	120220	12022020	200000	238.71	12.371315	-56.808780	238.65	0.800	-1.050	1.830	238.62	-2.40	2.20	 	 	 	 	 	 	 	 	 	 	 	 	 	 	 	 	 	 	1581537600	8.91	16.50
12/02/2020 20:00:01	120220	12022020	200001	238.34	12.371297	-56.808818	238.31	0.650	-1.350	1.530	238.30	-2.70	2.00	 	 	 	 	 	 	 	 	 	 	 	 	 	 	 	 	 	 	1581537601	8.87	16.43
12/02/2020 20:00:02	120220	12022020	200002	238.23	12.371275	-56.808853	238.25	0.380	-1.480	0.820	238.25	-2.90	1.30	1014.60	26.50	26.60	20.70	20.70	389.0	70.0	70.0	392.0	29.0	230.00	5.40	84.00	9.40	26396	8346.0	27.5	27.5	1581537602	8.95	16.58
12/02/2020 20:00:03	120220	12022020	200003	238.37	12.371252	-56.808890	238.39	0.060	-1.380	0.160	238.40	-2.80	0.60	 	 	 	 	 	 	 	 	 	 	 	 	 	 	 	 	 	 	1581537603	9.05	16.76
12/02/2020 20:00:04	120220	12022020	200004	238.50	12.371230	-56.808927	238.50	-0.210	-1.060	0.010	238.51	-2.50	0.40	 	 	 	 	 	 	 	 	 	 	 	 	 	 	 	 	 	 	1581537604	9.10	16.85
12/02/2020 20:00:05	120220	12022020	200005	238.44	12.371208	-56.808965	238.39	-0.330	-0.690	0.440	238.39	-2.10	0.80	 	 	 	 	 	 	 	 	 	 	 	 	 	 	 	 	 	 	1581537605	9.27	17.17
12/02/2020 20:00:06	120220	12022020	200006	238.15	12.371192	-56.809007	238.09	-0.250	-0.380	1.180	238.08	-1.80	1.60	 	 	 	 	 	 	 	 	 	 	 	 	 	 	 	 	 	 	1581537606	9.63	17.83
12/02/2020 20:00:07	120220	12022020	200007	237.77	12.371173	-56.809050	237.73	-0.100	-0.040	1.820	237.69	-1.50	2.20	 	 	 	 	 	 	 	 	 	 	 	 	 	 	 	 	 	 	1581537607	9.91	18.35
12/02/2020 20:00:08	120220	12022020	200008	237.48	12.371158	-56.809093	237.48	-0.080	0.420	2.080	237.44	-1.00	2.50	 	 	 	 	 	 	 	 	 	 	 	 	 	 	 	 	 	 	1581537608	9.80	18.15
12/02/2020 20:00:09	120220	12022020	200009	237.38	12.371140	-56.809135	237.43	-0.210	0.790	1.930	237.38	-0.60	2.40	 	 	 	 	 	 	 	 	 	 	 	 	 	 	 	 	 	 	1581537609	9.52	17.63
12/02/2020 20:00:10	120220	12022020	200010	237.44	12.371120	-56.809175	237.52	-0.330	0.800	1.450	237.48	-0.60	1.90	 	 	 	 	 	 	 	 	 	 	 	 	 	 	 	 	 	 	1581537610	9.46	17.52
12/02/2020 20:00:11	120220	12022020	200011	237.66	12.371098	-56.809213	237.74	-0.290	0.480	0.730	237.71	-0.90	1.20	 	 	 	 	 	 	 	 	 	 	 	 	 	 	 	 	 	 	1581537611	9.54	17.67
12/02/2020 20:00:12	120220	12022020	200012	237.86	12.371075	-56.809252	237.89	-0.090	0.050	0.190	237.88	-1.30	0.60	 	 	 	 	 	 	 	 	 	 	 	 	 	 	 	 	 	 	1581537612	9.50	17.59
12/02/2020 20:00:13	120220	12022020	200013	237.87	12.371053	-56.809290	237.88	0.140	-0.350	0.140	237.86	-1.70	0.60	 	 	 	 	 	 	 	 	 	 	 	 	 	 	 	 	 	 	1581537613	9.31	17.24
12/02/2020 20:00:14	120220	12022020	200014	237.75	12.371032	-56.809328	237.74	0.340	-0.690	0.440	237.72	-2.10	0.90	 	 	 	 	 	 	 	 	 	 	 	 	 	 	 	 	 	 	1581537614	9.11	16.87
12/02/2020 20:00:15	120220	12022020	200015	237.58	12.371013	-56.809367	237.58	0.510	-1.040	0.820	237.55	-2.40	1.20	 	 	 	 	 	 	 	 	 	 	 	 	 	 	 	 	 	 	1581537615	9.15	16.95
12/02/2020 20:00:16	120220	12022020	200016	237.49	12.370995	-56.809405	237.52	0.600	-1.170	1.000	237.49	-2.60	1.40	 	 	 	 	 	 	 	 	 	 	 	 	 	 	 	 	 	 	1581537616	9.23	17.09
12/02/2020 20:00:17	120220	12022020	200017	237.49	12.370975	-56.809443	237.52	0.510	-0.900	1.030	237.49	-2.30	1.40	 	 	 	 	 	 	 	 	 	 	 	 	 	 	 	 	 	 	1581537617	9.05	16.76
12/02/2020 20:00:18	120220	12022020	200018	237.49	12.370957	-56.809482	237.54	0.220	-0.470	1.030	237.50	-1.90	1.40	 	 	 	 	 	 	 	 	 	 	 	 	 	 	 	 	 	 	1581537618	8.92	16.52
12/02/2020 20:00:19	120220	12022020	200019	237.51	12.370937	-56.809518	237.54	-0.090	-0.170	1.160	237.51	-1.60	1.60	 	 	 	 	 	 	 	 	 	 	 	 	 	 	 	 	 	 	1581537619	9.14	16.93
12/02/2020 20:00:20	120220	12022020	200020	237.43	12.370917	-56.809558	237.43	-0.280	0.000	1.490	237.39	-1.40	1.90	 	 	 	 	 	 	 	 	 	 	 	 	 	 	 	 	 	 	1581537620	9.40	17.41
12/02/2020 20:00:21	120220	12022020	200021	237.23	12.370898	-56.809600	237.16	-0.300	-0.060	1.890	237.17	-1.40	2.30	 	 	 	 	 	 	 	 	 	 	 	 	 	 	 	 	 	 	1581537621	9.64	17.85
12/02/2020 20:00:22	120220	12022020	200022	236.81	12.370880	-56.809643	236.80	-0.230	-0.380	2.130	236.74	-1.80	2.50	 	 	 	 	 	 	 	 	 	 	 	 	 	 	 	 	 	 	1581537622	9.96	18.45
12/02/2020 20:00:23	120220	12022020	200023	236.50	12.370860	-56.809687	236.54	-0.180	-0.650	2.040	236.46	-2.00	2.50	 	 	 	 	 	 	 	 	 	 	 	 	 	 	 	 	 	 	1581537623	10.02	18.56
12/02/2020 20:00:24	120220	12022020	200024	236.39	12.370838	-56.809727	236.46	-0.230	-0.560	1.600	236.39	-2.00	2.00	 	 	 	 	 	 	 	 	 	 	 	 	 	 	 	 	 	 	1581537624	9.69	17.95
12/02/2020 20:00:25	120220	12022020	200025	236.46	12.370817	-56.809765	236.56	-0.270	-0.090	1.020	236.50	-1.50	1.50	 	 	 	 	 	 	 	 	 	 	 	 	 	 	 	 	 	 	1581537625	9.20	17.04
12/02/2020 20:00:26	120220	12022020	200026	236.72	12.370793	-56.809800	236.86	-0.220	0.450	0.460	236.80	-1.00	0.90	 	 	 	 	 	 	 	 	 	 	 	 	 	 	 	 	 	 	1581537626	8.87	16.43
12/02/2020 20:00:27	120220	12022020	200027	237.05	12.370772	-56.809835	237.17	-0.040	0.570	0.190	237.11	-0.80	0.60	 	 	 	 	 	 	 	 	 	 	 	 	 	 	 	 	 	 	1581537627	8.96	16.59
12/02/2020 20:00:28	120220	12022020	200028	237.28	12.370750	-56.809873	237.37	0.200	0.170	0.200	237.31	-1.20	0.60	 	 	 	 	 	 	 	 	 	 	 	 	 	 	 	 	 	 	1581537628	9.39	17.39
12/02/2020 20:00:29	120220	12022020	200029	237.36	12.370728	-56.809913	237.43	0.400	-0.340	0.350	237.36	-1.70	0.80	 	 	 	 	 	 	 	 	 	 	 	 	 	 	 	 	 	 	1581537629	9.60	17.78
12/02/2020 20:00:30	120220	12022020	200030	237.32	12.370707	-56.809952	237.37	0.510	-0.490	0.620	237.31	-1.90	1.00	 	 	 	 	 	 	 	 	 	 	 	 	 	 	 	 	 	 	1581537630	9.33	17.28
12/02/2020 20:00:31	120220	12022020	200031	237.21	12.370688	-56.809990	237.25	0.470	-0.380	1.010	237.18	-1.80	1.40	 	 	 	 	 	 	 	 	 	 	 	 	 	 	 	 	 	 	1581537631	8.97	16.61
12/02/2020 20:00:32	120220	12022020	200032	237.02	12.370672	-56.810030	237.05	0.330	-0.380	1.480	236.98	-1.80	1.90	 	 	 	 	 	 	 	 	 	 	 	 	 	 	 	 	 	 	1581537632	9.03	16.72
12/02/2020 20:00:33	120220	12022020	200033	236.82	12.370653	-56.810070	236.85	0.150	-0.660	1.780	236.78	-2.00	2.20	 	 	 	 	 	 	 	 	 	 	 	 	 	 	 	 	 	 	1581537633	9.41	17.43
12/02/2020 20:00:34	120220	12022020	200034	236.66	12.370633	-56.810112	236.70	-0.060	-1.060	1.680	236.65	-2.40	2.10	 	 	 	 	 	 	 	 	 	 	 	 	 	 	 	 	 	 	1581537634	9.72	18.00
12/02/2020 20:00:35	120220	12022020	200035	236.59	12.370612	-56.810152	236.64	-0.300	-1.250	1.350	236.58	-2.60	1.80	 	 	 	 	 	 	 	 	 	 	 	 	 	 	 	 	 	 	1581537635	9.78	18.11
12/02/2020 20:00:36	120220	12022020	200036	236.61	12.370590	-56.810190	236.68	-0.500	-1.010	0.970	236.64	-2.40	1.40	 	 	 	 	 	 	 	 	 	 	 	 	 	 	 	 	 	 	1581537636	9.52	17.63
12/02/2020 20:00:37	120220	12022020	200037	236.74	12.370568	-56.810228	236.80	-0.560	-0.550	0.610	236.77	-2.00	1.10	 	 	 	 	 	 	 	 	 	 	 	 	 	 	 	 	 	 	1581537637	9.24	17.11
12/02/2020 20:00:38	120220	12022020	200038	236.91	12.370545	-56.810267	236.99	-0.460	-0.170	0.330	236.95	-1.60	0.80	 	 	 	 	 	 	 	 	 	 	 	 	 	 	 	 	 	 	1581537638	9.37	17.35
12/02/2020 20:00:39	120220	12022020	200039	237.15	12.370523	-56.810305	237.22	-0.360	0.130	0.120	237.19	-1.30	0.60	 	 	 	 	 	 	 	 	 	 	 	 	 	 	 	 	 	 	1581537639	9.53	17.65
12/02/2020 20:00:40	120220	12022020	200040	237.33	12.370500	-56.810343	237.41	-0.310	0.360	0.080	237.36	-1.10	0.50	 	 	 	 	 	 	 	 	 	 	 	 	 	 	 	 	 	 	1581537640	9.56	17.71
12/02/2020 20:00:41	120220	12022020	200041	237.36	12.370477	-56.810382	237.40	-0.280	0.500	0.350	237.34	-0.90	0.80	 	 	 	 	 	 	 	 	 	 	 	 	 	 	 	 	 	 	1581537641	9.54	17.67
12/02/2020 20:00:42	120220	12022020	200042	237.12	12.370457	-56.810423	237.13	-0.210	0.610	0.970	237.05	-0.80	1.40	 	 	 	 	 	 	 	 	 	 	 	 	 	 	 	 	 	 	1581537642	9.50	17.59
12/02/2020 20:00:43	120220	12022020	200043	236.80	12.370440	-56.810463	236.72	-0.040	0.680	1.590	236.71	-0.70	2.00	 	 	 	 	 	 	 	 	 	 	 	 	 	 	 	 	 	 	1581537643	9.43	17.46
12/02/2020 20:00:44	120220	12022020	200044	236.36	12.370423	-56.810505	236.42	0.230	0.510	1.780	236.32	-0.90	2.20	 	 	 	 	 	 	 	 	 	 	 	 	 	 	 	 	 	 	1581537644	9.33	17.28
12/02/2020 20:00:45	120220	12022020	200045	236.22	12.370403	-56.810545	236.31	0.490	-0.110	1.410	236.22	-1.50	1.90	 	 	 	 	 	 	 	 	 	 	 	 	 	 	 	 	 	 	1581537645	9.39	17.39
12/02/2020 20:00:46	120220	12022020	200046	236.30	12.370382	-56.810583	236.42	0.630	-0.950	0.650	236.34	-2.30	1.10	 	 	 	 	 	 	 	 	 	 	 	 	 	 	 	 	 	 	1581537646	9.55	17.69
12/02/2020 20:00:47	120220	12022020	200047	236.65	12.370357	-56.810620	236.81	0.560	-1.560	-0.260	236.75	-2.90	0.20	 	 	 	 	 	 	 	 	 	 	 	 	 	 	 	 	 	 	1581537647	9.48	17.56
12/02/2020 20:00:48	120220	12022020	200048	237.21	12.370332	-56.810655	237.35	0.320	-1.690	-0.940	237.33	-3.10	-0.50	 	 	 	 	 	 	 	 	 	 	 	 	 	 	 	 	 	 	1581537648	9.17	16.98
12/02/2020 20:00:49	120220	12022020	200049	237.70	12.370310	-56.810692	237.81	0.050	-1.430	-1.030	237.76	-2.80	-0.60	 	 	 	 	 	 	 	 	 	 	 	 	 	 	 	 	 	 	1581537649	8.95	16.58
12/02/2020 20:00:50	120220	12022020	200050	237.84	12.370288	-56.810728	237.88	-0.190	-1.170	-0.460	237.81	-2.60	-0.10	 	 	 	 	 	 	 	 	 	 	 	 	 	 	 	 	 	 	1581537650	9.15	16.95
12/02/2020 20:00:51	120220	12022020	200051	237.49	12.370268	-56.810770	237.46	-0.410	-1.000	0.630	237.36	-2.40	1.00	 	 	 	 	 	 	 	 	 	 	 	 	 	 	 	 	 	 	1581537651	9.70	17.96
12/02/2020 20:00:52	120220	12022020	200052	236.77	12.370250	-56.810815	236.71	-0.620	-0.680	1.910	236.60	-2.10	2.30	 	 	 	 	 	 	 	 	 	 	 	 	 	 	 	 	 	 	1581537652	10.15	18.80
12/02/2020 20:00:53	120220	12022020	200053	235.95	12.370233	-56.810860	235.95	-0.780	0.080	2.950	235.82	-1.30	3.30	 	 	 	 	 	 	 	 	 	 	 	 	 	 	 	 	 	 	1581537653	10.15	18.80
12/02/2020 20:00:54	120220	12022020	200054	235.46	12.370218	-56.810902	235.54	-0.810	1.200	3.270	235.41	-0.20	3.70	 	 	 	 	 	 	 	 	 	 	 	 	 	 	 	 	 	 	1581537654	9.63	17.83
12/02/2020 20:00:55	120220	12022020	200055	235.41	12.370202	-56.810942	235.55	-0.600	2.010	2.830	235.44	0.60	3.30	 	 	 	 	 	 	 	 	 	 	 	 	 	 	 	 	 	 	1581537655	9.14	16.93
12/02/2020 20:00:56	120220	12022020	200056	235.71	12.370180	-56.810980	235.86	-0.110	1.910	1.750	235.80	0.50	2.20	 	 	 	 	 	 	 	 	 	 	 	 	 	 	 	 	 	 	1581537656	9.24	17.11
12/02/2020 20:00:57	120220	12022020	200057	236.10	12.370155	-56.811017	236.39	0.490	0.880	0.560	236.21	-0.50	1.00	 	 	 	 	 	 	 	 	 	 	 	 	 	 	 	 	 	 	1581537657	9.65	17.87
12/02/2020 20:00:58	120220	12022020	200058	236.74	12.370128	-56.811057	236.91	0.880	-0.590	-0.110	236.83	-1.90	0.30	 	 	 	 	 	 	 	 	 	 	 	 	 	 	 	 	 	 	1581537658	9.90	18.33
12/02/2020 20:00:59	120220	12022020	200059	237.09	12.370105	-56.811095	237.19	0.870	-1.720	-0.040	237.12	-3.10	0.40	 	 	 	 	 	 	 	 	 	 	 	 	 	 	 	 	 	 	1581537659	9.63	17.83
12/02/2020 20:01:00	120220	12022020	200100	237.12	12.370085	-56.811133	237.19	0.580	-2.100	0.440	237.10	-3.50	0.80	 	 	 	 	 	 	 	 	 	 	 	 	 	 	 	 	 	 	1581537660	9.05	16.76
12/02/2020 20:01:01	120220	12022020	200101	236.93	12.370068	-56.811170	236.97	0.280	-1.890	0.960	236.89	-3.30	1.40	 	 	 	 	 	 	 	 	 	 	 	 	 	 	 	 	 	 	1581537661	8.67	16.06
12/02/2020 20:01:02	120220	12022020	200102	236.72	12.370048	-56.811207	236.77	0.060	-1.480	1.310	236.68	-2.90	1.70	1014.70	26.50	26.50	20.40	20.50	383.0	69.0	69.0	391.0	29.0	223.00	6.80	83.00	10.90	26062	8537.0	27.5	27.5	1581537662	8.75	16.21
12/02/2020 20:01:03	120220	12022020	200103	236.52	12.370028	-56.811245	236.57	-0.180	-1.110	1.610	236.47	-2.50	2.00	 	 	 	 	 	 	 	 	 	 	 	 	 	 	 	 	 	 	1581537663	9.22	17.08
12/02/2020 20:01:04	120220	12022020	200104	236.31	12.370008	-56.811285	236.36	-0.510	-0.660	1.870	236.27	-2.10	2.30	 	 	 	 	 	 	 	 	 	 	 	 	 	 	 	 	 	 	1581537664	9.64	17.85
12/02/2020 20:01:05	120220	12022020	200105	236.15	12.369988	-56.811327	236.20	-0.810	0.060	1.980	236.11	-1.40	2.40	 	 	 	 	 	 	 	 	 	 	 	 	 	 	 	 	 	 	1581537665	9.68	17.93
12/02/2020 20:01:06	120220	12022020	200106	235.95	12.369968	-56.811367	235.99	-0.880	0.940	1.990	235.90	-0.50	2.40	 	 	 	 	 	 	 	 	 	 	 	 	 	 	 	 	 	 	1581537666	9.43	17.46
12/02/2020 20:01:07	120220	12022020	200107	235.74	12.369950	-56.811407	235.81	-0.550	1.500	1.830	235.71	0.10	2.30	 	 	 	 	 	 	 	 	 	 	 	 	 	 	 	 	 	 	1581537667	9.32	17.26
12/02/2020 20:01:08	120220	12022020	200108	235.66	12.369930	-56.811447	235.76	0.090	1.340	1.390	235.66	-0.00	1.80	 	 	 	 	 	 	 	 	 	 	 	 	 	 	 	 	 	 	1581537668	9.53	17.65
12/02/2020 20:01:09	120220	12022020	200109	235.70	12.369905	-56.811487	235.85	0.690	0.550	0.820	235.71	-0.80	1.30	 	 	 	 	 	 	 	 	 	 	 	 	 	 	 	 	 	 	1581537669	9.87	18.28
12/02/2020 20:01:10	120220	12022020	200110	235.82	12.369882	-56.811525	235.98	0.850	-0.240	0.380	235.85	-1.60	0.80	 	 	 	 	 	 	 	 	 	 	 	 	 	 	 	 	 	 	1581537670	9.81	18.17
12/02/2020 20:01:11	120220	12022020	200111	236.01	12.369860	-56.811563	236.27	0.530	-0.670	0.190	236.08	-2.00	0.60	 	 	 	 	 	 	 	 	 	 	 	 	 	 	 	 	 	 	1581537671	9.19	17.02
12/02/2020 20:01:12	120220	12022020	200112	236.40	12.369840	-56.811600	236.57	0.060	-1.060	0.300	236.45	-2.40	0.70	 	 	 	 	 	 	 	 	 	 	 	 	 	 	 	 	 	 	1581537672	8.86	16.41
12/02/2020 20:01:13	120220	12022020	200113	236.53	12.369820	-56.811638	236.64	-0.190	-1.600	0.710	236.52	-2.90	1.10	 	 	 	 	 	 	 	 	 	 	 	 	 	 	 	 	 	 	1581537673	9.20	17.04
12/02/2020 20:01:14	120220	12022020	200114	236.38	12.369800	-56.811678	236.46	-0.160	-1.810	1.260	236.33	-3.20	1.70	 	 	 	 	 	 	 	 	 	 	 	 	 	 	 	 	 	 	1581537674	9.50	17.59
12/02/2020 20:01:15	120220	12022020	200115	236.14	12.369780	-56.811717	236.21	-0.050	-1.330	1.610	236.09	-2.70	2.00	 	 	 	 	 	 	 	 	 	 	 	 	 	 	 	 	 	 	1581537675	9.22	17.08
12/02/2020 20:01:16	120220	12022020	200116	235.94	12.369760	-56.811753	236.03	-0.030	-0.440	1.640	235.91	-1.80	2.10	 	 	 	 	 	 	 	 	 	 	 	 	 	 	 	 	 	 	1581537676	8.91	16.50
12/02/2020 20:01:17	120220	12022020	200117	235.83	12.369738	-56.811790	235.94	-0.090	0.340	1.390	235.82	-1.10	1.80	 	 	 	 	 	 	 	 	 	 	 	 	 	 	 	 	 	 	1581537677	8.98	16.63
12/02/2020 20:01:18	120220	12022020	200118	235.76	12.369715	-56.811828	235.87	-0.100	0.710	1.110	235.74	-0.70	1.60	 	 	 	 	 	 	 	 	 	 	 	 	 	 	 	 	 	 	1581537678	9.30	17.22
12/02/2020 20:01:19	120220	12022020	200119	235.61	12.369693	-56.811867	235.68	0.020	0.660	1.040	235.58	-0.70	1.50	 	 	 	 	 	 	 	 	 	 	 	 	 	 	 	 	 	 	1581537679	9.66	17.89
12/02/2020 20:01:20	120220	12022020	200120	235.44	12.369672	-56.811908	235.52	0.170	0.340	1.160	235.41	-1.00	1.60	 	 	 	 	 	 	 	 	 	 	 	 	 	 	 	 	 	 	1581537680	9.85	18.24
12/02/2020 20:01:21	120220	12022020	200121	235.38	12.369652	-56.811950	235.51	0.210	-0.020	1.310	235.39	-1.40	1.70	 	 	 	 	 	 	 	 	 	 	 	 	 	 	 	 	 	 	1581537681	9.76	18.08
12/02/2020 20:01:22	120220	12022020	200122	235.53	12.369630	-56.811990	235.69	0.140	-0.330	1.290	235.58	-1.70	1.70	 	 	 	 	 	 	 	 	 	 	 	 	 	 	 	 	 	 	1581537682	9.50	17.59
12/02/2020 20:01:23	120220	12022020	200123	235.75	12.369610	-56.812028	235.88	0.010	-0.690	1.230	235.78	-2.00	1.70	 	 	 	 	 	 	 	 	 	 	 	 	 	 	 	 	 	 	1581537683	9.35	17.32
12/02/2020 20:01:24	120220	12022020	200124	235.82	12.369587	-56.812067	235.93	-0.090	-1.020	1.210	235.81	-2.40	1.60	 	 	 	 	 	 	 	 	 	 	 	 	 	 	 	 	 	 	1581537684	9.49	17.58
12/02/2020 20:01:25	120220	12022020	200125	235.67	12.369565	-56.812105	235.75	-0.140	-1.020	1.190	235.63	-2.40	1.60	 	 	 	 	 	 	 	 	 	 	 	 	 	 	 	 	 	 	1581537685	9.43	17.46
12/02/2020 20:01:26	120220	12022020	200126	235.39	12.369542	-56.812142	235.47	-0.130	-0.650	1.100	235.34	-2.00	1.50	 	 	 	 	 	 	 	 	 	 	 	 	 	 	 	 	 	 	1581537686	9.20	17.04
12/02/2020 20:01:27	120220	12022020	200127	235.14	12.369520	-56.812178	235.21	-0.100	-0.080	0.890	235.10	-1.50	1.30	 	 	 	 	 	 	 	 	 	 	 	 	 	 	 	 	 	 	1581537687	9.01	16.69
12/02/2020 20:01:28	120220	12022020	200128	234.99	12.369500	-56.812215	235.09	-0.060	0.390	0.670	234.99	-1.00	1.10	 	 	 	 	 	 	 	 	 	 	 	 	 	 	 	 	 	 	1581537688	8.98	16.63
12/02/2020 20:01:29	120220	12022020	200129	235.09	12.369478	-56.812252	235.23	0.000	0.530	0.420	235.15	-0.80	0.90	 	 	 	 	 	 	 	 	 	 	 	 	 	 	 	 	 	 	1581537689	9.12	16.89
12/02/2020 20:01:30	120220	12022020	200130	235.48	12.369457	-56.812290	235.68	0.160	0.260	0.150	235.57	-1.10	0.60	 	 	 	 	 	 	 	 	 	 	 	 	 	 	 	 	 	 	1581537690	9.35	17.32
12/02/2020 20:01:31	120220	12022020	200131	235.87	12.369433	-56.812330	236.04	0.370	-0.310	0.180	235.92	-1.70	0.60	 	 	 	 	 	 	 	 	 	 	 	 	 	 	 	 	 	 	1581537691	9.61	17.80
12/02/2020 20:01:32	120220	12022020	200132	235.99	12.369412	-56.812370	236.11	0.500	-0.900	0.590	235.98	-2.20	1.00	 	 	 	 	 	 	 	 	 	 	 	 	 	 	 	 	 	 	1581537692	9.76	18.08
12/02/2020 20:01:33	120220	12022020	200133	235.91	12.369390	-56.812412	235.97	0.400	-1.130	1.130	235.87	-2.50	1.50	 	 	 	 	 	 	 	 	 	 	 	 	 	 	 	 	 	 	1581537693	9.68	17.93
12/02/2020 20:01:34	120220	12022020	200134	235.67	12.369370	-56.812450	235.80	0.060	-0.730	1.550	235.65	-2.10	2.00	 	 	 	 	 	 	 	 	 	 	 	 	 	 	 	 	 	 	1581537694	9.25	17.13
12/02/2020 20:01:35	120220	12022020	200135	235.56	12.369352	-56.812487	235.68	-0.340	-0.120	1.690	235.55	-1.50	2.10	 	 	 	 	 	 	 	 	 	 	 	 	 	 	 	 	 	 	1581537695	8.81	16.32
12/02/2020 20:01:36	120220	12022020	200136	235.48	12.369330	-56.812523	235.59	-0.580	-0.010	1.570	235.47	-1.40	2.00	 	 	 	 	 	 	 	 	 	 	 	 	 	 	 	 	 	 	1581537696	9.09	16.83
12/02/2020 20:01:37	120220	12022020	200137	235.38	12.369307	-56.812563	235.49	-0.550	-0.450	1.380	235.36	-1.80	1.80	 	 	 	 	 	 	 	 	 	 	 	 	 	 	 	 	 	 	1581537697	9.81	18.17
12/02/2020 20:01:38	120220	12022020	200138	235.23	12.369282	-56.812605	235.31	-0.330	-0.840	1.250	235.19	-2.20	1.70	 	 	 	 	 	 	 	 	 	 	 	 	 	 	 	 	 	 	1581537698	10.15	18.80
12/02/2020 20:01:39	120220	12022020	200139	235.03	12.369258	-56.812645	235.13	-0.110	-0.700	1.170	235.00	-2.10	1.60	 	 	 	 	 	 	 	 	 	 	 	 	 	 	 	 	 	 	1581537699	9.81	18.17
12/02/2020 20:01:40	120220	12022020	200140	234.92	12.369237	-56.812682	235.05	-0.000	-0.170	1.130	234.92	-1.60	1.60	 	 	 	 	 	 	 	 	 	 	 	 	 	 	 	 	 	 	1581537700	9.28	17.19
12/02/2020 20:01:41	120220	12022020	200141	234.93	12.369215	-56.812720	235.07	0.030	0.310	1.120	234.93	-1.10	1.50	 	 	 	 	 	 	 	 	 	 	 	 	 	 	 	 	 	 	1581537701	9.15	16.95
12/02/2020 20:01:42	120220	12022020	200142	234.99	12.369195	-56.812758	235.13	0.070	0.500	1.050	235.02	-0.90	1.50	 	 	 	 	 	 	 	 	 	 	 	 	 	 	 	 	 	 	1581537702	9.30	17.22
12/02/2020 20:01:43	120220	12022020	200143	235.13	12.369173	-56.812797	235.28	0.140	0.450	0.850	235.16	-0.90	1.30	 	 	 	 	 	 	 	 	 	 	 	 	 	 	 	 	 	 	1581537703	9.43	17.46
12/02/2020 20:01:44	120220	12022020	200144	235.35	12.369152	-56.812835	235.52	0.220	0.280	0.600	235.41	-1.10	1.00	 	 	 	 	 	 	 	 	 	 	 	 	 	 	 	 	 	 	1581537704	9.42	17.45
12/02/2020 20:01:45	120220	12022020	200145	235.69	12.369128	-56.812873	235.89	0.250	0.050	0.370	235.77	-1.30	0.80	 	 	 	 	 	 	 	 	 	 	 	 	 	 	 	 	 	 	1581537705	9.26	17.15
12/02/2020 20:01:46	120220	12022020	200146	236.02	12.369107	-56.812910	236.18	0.270	-0.390	0.380	236.05	-1.70	0.80	 	 	 	 	 	 	 	 	 	 	 	 	 	 	 	 	 	 	1581537706	9.26	17.15
12/02/2020 20:01:47	120220	12022020	200147	236.10	12.369083	-56.812950	236.21	0.340	-0.970	0.680	236.09	-2.30	1.10	 	 	 	 	 	 	 	 	 	 	 	 	 	 	 	 	 	 	1581537707	9.51	17.61
12/02/2020 20:01:48	120220	12022020	200148	235.93	12.369062	-56.812988	236.03	0.400	-1.360	0.980	235.88	-2.70	1.40	 	 	 	 	 	 	 	 	 	 	 	 	 	 	 	 	 	 	1581537708	9.61	17.80
12/02/2020 20:01:49	120220	12022020	200149	235.64	12.369040	-56.813027	235.71	0.310	-1.320	1.190	235.57	-2.70	1.60	 	 	 	 	 	 	 	 	 	 	 	 	 	 	 	 	 	 	1581537709	9.46	17.52
12/02/2020 20:01:50	120220	12022020	200150	235.30	12.369017	-56.813065	235.38	-0.030	-0.910	1.380	235.23	-2.30	1.80	 	 	 	 	 	 	 	 	 	 	 	 	 	 	 	 	 	 	1581537710	9.29	17.21
12/02/2020 20:01:51	120220	12022020	200151	235.00	12.368995	-56.813103	235.13	-0.480	-0.360	1.550	234.97	-1.80	2.00	 	 	 	 	 	 	 	 	 	 	 	 	 	 	 	 	 	 	1581537711	9.25	17.13
12/02/2020 20:01:52	120220	12022020	200152	234.87	12.368975	-56.813142	235.02	-0.730	0.090	1.550	234.87	-1.30	2.00	 	 	 	 	 	 	 	 	 	 	 	 	 	 	 	 	 	 	1581537712	9.36	17.33
12/02/2020 20:01:53	120220	12022020	200153	234.92	12.368953	-56.813182	235.09	-0.590	0.270	1.320	234.96	-1.10	1.80	 	 	 	 	 	 	 	 	 	 	 	 	 	 	 	 	 	 	1581537713	9.59	17.76
12/02/2020 20:01:54	120220	12022020	200154	235.12	12.368930	-56.813222	235.32	-0.210	0.170	0.920	235.18	-1.20	1.40	 	 	 	 	 	 	 	 	 	 	 	 	 	 	 	 	 	 	1581537714	9.81	18.17
12/02/2020 20:01:55	120220	12022020	200155	235.49	12.368907	-56.813262	235.70	0.080	-0.040	0.380	235.59	-1.40	0.80	 	 	 	 	 	 	 	 	 	 	 	 	 	 	 	 	 	 	1581537715	9.86	18.26
12/02/2020 20:01:56	120220	12022020	200156	235.94	12.368882	-56.813300	236.14	0.110	-0.230	-0.020	236.03	-1.60	0.40	 	 	 	 	 	 	 	 	 	 	 	 	 	 	 	 	 	 	1581537716	9.74	18.04
12/02/2020 20:01:57	120220	12022020	200157	236.28	12.368860	-56.813338	236.45	-0.020	-0.270	-0.050	236.33	-1.60	0.40	 	 	 	 	 	 	 	 	 	 	 	 	 	 	 	 	 	 	1581537717	9.56	17.71
12/02/2020 20:01:58	120220	12022020	200158	236.46	12.368837	-56.813377	236.61	-0.100	-0.090	0.150	236.48	-1.50	0.60	 	 	 	 	 	 	 	 	 	 	 	 	 	 	 	 	 	 	1581537718	9.28	17.19
12/02/2020 20:01:59	120220	12022020	200159	236.49	12.368817	-56.813413	236.60	-0.010	0.040	0.440	236.48	-1.30	0.90	 	 	 	 	 	 	 	 	 	 	 	 	 	 	 	 	 	 	1581537719	9.16	16.96
12/02/2020 20:02:00	120220	12022020	200200	236.32	12.368793	-56.813453	236.43	0.170	-0.130	0.920	236.27	-1.50	1.30	 	 	 	 	 	 	 	 	 	 	 	 	 	 	 	 	 	 	1581537720	9.41	17.43
12/02/2020 20:02:01	120220	12022020	200201	236.11	12.368772	-56.813493	236.16	0.260	-0.440	1.450	236.06	-1.80	1.90	 	 	 	 	 	 	 	 	 	 	 	 	 	 	 	 	 	 	1581537721	9.69	17.95
12/02/2020 20:02:02	120220	12022020	200202	235.89	12.368752	-56.813533	236.00	0.180	-0.550	1.750	235.87	-1.90	2.20	1014.60	26.50	26.60	20.50	20.50	378.0	69.0	69.0	391.0	29.0	222.00	6.10	79.00	10.20	25136	9416.0	27.5	27.5	1581537722	9.66	17.89
12/02/2020 20:02:03	120220	12022020	200203	235.87	12.368732	-56.813572	235.99	-0.010	-0.350	1.770	235.88	-1.70	2.20	 	 	 	 	 	 	 	 	 	 	 	 	 	 	 	 	 	 	1581537723	9.31	17.24
12/02/2020 20:02:04	120220	12022020	200204	235.93	12.368712	-56.813610	236.04	-0.100	-0.110	1.550	235.94	-1.50	2.00	 	 	 	 	 	 	 	 	 	 	 	 	 	 	 	 	 	 	1581537724	9.07	16.80
12/02/2020 20:02:05	120220	12022020	200205	235.96	12.368692	-56.813648	236.07	0.040	-0.200	1.120	235.96	-1.60	1.60	 	 	 	 	 	 	 	 	 	 	 	 	 	 	 	 	 	 	1581537725	9.22	17.08
12/02/2020 20:02:06	120220	12022020	200206	236.02	12.368667	-56.813687	236.14	0.290	-0.650	0.560	236.04	-2.00	1.00	 	 	 	 	 	 	 	 	 	 	 	 	 	 	 	 	 	 	1581537726	9.66	17.89
12/02/2020 20:02:07	120220	12022020	200207	236.16	12.368642	-56.813727	236.29	0.370	-1.060	0.060	236.21	-2.40	0.50	 	 	 	 	 	 	 	 	 	 	 	 	 	 	 	 	 	 	1581537727	9.90	18.33
12/02/2020 20:02:08	120220	12022020	200208	236.39	12.368617	-56.813765	236.53	0.150	-1.050	-0.200	236.44	-2.40	0.20	 	 	 	 	 	 	 	 	 	 	 	 	 	 	 	 	 	 	1581537728	9.70	17.96
12/02/2020 20:02:09	120220	12022020	200209	236.66	12.368595	-56.813803	236.81	-0.220	-0.640	-0.140	236.72	-2.00	0.30	 	 	 	 	 	 	 	 	 	 	 	 	 	 	 	 	 	 	1581537729	9.36	17.33
12/02/2020 20:02:10	120220	12022020	200210	236.87	12.368573	-56.813842	237.00	-0.450	-0.150	0.200	236.88	-1.50	0.60	 	 	 	 	 	 	 	 	 	 	 	 	 	 	 	 	 	 	1581537730	9.30	17.22
12/02/2020 20:02:11	120220	12022020	200211	236.90	12.368553	-56.813882	237.02	-0.420	0.160	0.700	236.89	-1.20	1.10	 	 	 	 	 	 	 	 	 	 	 	 	 	 	 	 	 	 	1581537731	9.54	17.67
12/02/2020 20:02:12	120220	12022020	200212	236.85	12.368532	-56.813922	236.97	-0.270	0.290	1.170	236.83	-1.10	1.60	 	 	 	 	 	 	 	 	 	 	 	 	 	 	 	 	 	 	1581537732	9.78	18.11
12/02/2020 20:02:13	120220	12022020	200213	236.76	12.368512	-56.813963	236.87	-0.170	0.330	1.510	236.74	-1.00	1.90	 	 	 	 	 	 	 	 	 	 	 	 	 	 	 	 	 	 	1581537733	9.80	18.15
12/02/2020 20:02:14	120220	12022020	200214	236.69	12.368490	-56.814003	236.81	-0.130	0.350	1.540	236.69	-1.00	2.00	 	 	 	 	 	 	 	 	 	 	 	 	 	 	 	 	 	 	1581537734	9.62	17.82
12/02/2020 20:02:15	120220	12022020	200215	236.67	12.368470	-56.814043	236.80	-0.010	0.210	1.350	236.67	-1.20	1.80	 	 	 	 	 	 	 	 	 	 	 	 	 	 	 	 	 	 	1581537735	9.45	17.50
12/02/2020 20:02:16	120220	12022020	200216	236.68	12.368450	-56.814083	236.79	0.210	-0.180	0.990	236.69	-1.50	1.40	 	 	 	 	 	 	 	 	 	 	 	 	 	 	 	 	 	 	1581537736	9.53	17.65
12/02/2020 20:02:17	120220	12022020	200217	236.74	12.368427	-56.814122	236.86	0.370	-0.610	0.470	236.77	-2.00	0.90	 	 	 	 	 	 	 	 	 	 	 	 	 	 	 	 	 	 	1581537737	9.58	17.74
12/02/2020 20:02:18	120220	12022020	200218	236.86	12.368403	-56.814160	236.96	0.350	-0.870	-0.010	236.88	-2.20	0.40	 	 	 	 	 	 	 	 	 	 	 	 	 	 	 	 	 	 	1581537738	9.48	17.56
12/02/2020 20:02:19	120220	12022020	200219	236.96	12.368380	-56.814197	237.04	0.200	-0.820	-0.260	236.98	-2.20	0.20	 	 	 	 	 	 	 	 	 	 	 	 	 	 	 	 	 	 	1581537739	9.32	17.26
12/02/2020 20:02:20	120220	12022020	200220	237.03	12.368358	-56.814233	237.13	0.080	-0.460	-0.260	237.04	-1.90	0.20	 	 	 	 	 	 	 	 	 	 	 	 	 	 	 	 	 	 	1581537740	9.07	16.80
12/02/2020 20:02:21	120220	12022020	200221	237.04	12.368337	-56.814270	237.13	0.070	-0.140	-0.040	237.03	-1.50	0.40	 	 	 	 	 	 	 	 	 	 	 	 	 	 	 	 	 	 	1581537741	9.01	16.69
12/02/2020 20:02:22	120220	12022020	200222	237.02	12.368315	-56.814308	237.09	0.130	-0.260	0.380	237.01	-1.60	0.80	 	 	 	 	 	 	 	 	 	 	 	 	 	 	 	 	 	 	1581537742	9.42	17.45
12/02/2020 20:02:23	120220	12022020	200223	237.00	12.368293	-56.814350	237.09	0.100	-0.670	1.060	236.99	-2.00	1.50	 	 	 	 	 	 	 	 	 	 	 	 	 	 	 	 	 	 	1581537743	9.96	18.45
12/02/2020 20:02:24	120220	12022020	200224	237.00	12.368273	-56.814395	237.10	-0.080	-0.950	1.830	237.00	-2.30	2.20	 	 	 	 	 	 	 	 	 	 	 	 	 	 	 	 	 	 	1581537744	10.13	18.76
12/02/2020 20:02:25	120220	12022020	200225	236.99	12.368257	-56.814438	237.06	-0.300	-0.920	2.370	236.98	-2.30	2.80	 	 	 	 	 	 	 	 	 	 	 	 	 	 	 	 	 	 	1581537745	10.01	18.54
12/02/2020 20:02:26	120220	12022020	200226	236.92	12.368238	-56.814482	236.96	-0.410	-0.600	2.530	236.89	-2.00	2.90	 	 	 	 	 	 	 	 	 	 	 	 	 	 	 	 	 	 	1581537746	9.81	18.17
12/02/2020 20:02:27	120220	12022020	200227	236.76	12.368218	-56.814522	236.79	-0.420	-0.120	2.340	236.73	-1.50	2.80	 	 	 	 	 	 	 	 	 	 	 	 	 	 	 	 	 	 	1581537747	9.62	17.82
12/02/2020 20:02:28	120220	12022020	200228	236.63	12.368197	-56.814560	236.67	-0.370	0.370	1.740	236.61	-1.00	2.20	 	 	 	 	 	 	 	 	 	 	 	 	 	 	 	 	 	 	1581537748	9.51	17.61
12/02/2020 20:02:29	120220	12022020	200229	236.66	12.368173	-56.814598	236.74	-0.240	0.740	0.870	236.69	-0.70	1.40	 	 	 	 	 	 	 	 	 	 	 	 	 	 	 	 	 	 	1581537749	9.43	17.46
12/02/2020 20:02:30	120220	12022020	200230	236.84	12.368148	-56.814635	236.92	-0.020	0.780	0.010	236.88	-0.60	0.50	 	 	 	 	 	 	 	 	 	 	 	 	 	 	 	 	 	 	1581537750	9.41	17.43
12/02/2020 20:02:31	120220	12022020	200231	236.97	12.368122	-56.814672	237.04	0.240	0.350	-0.490	236.98	-1.00	-0.00	 	 	 	 	 	 	 	 	 	 	 	 	 	 	 	 	 	 	1581537751	9.61	17.80
12/02/2020 20:02:32	120220	12022020	200232	237.02	12.368097	-56.814710	237.09	0.420	-0.240	-0.510	237.02	-1.60	-0.10	 	 	 	 	 	 	 	 	 	 	 	 	 	 	 	 	 	 	1581537752	9.75	18.06
12/02/2020 20:02:33	120220	12022020	200233	237.09	12.368075	-56.814748	237.18	0.470	-0.520	-0.120	237.11	-1.90	0.30	 	 	 	 	 	 	 	 	 	 	 	 	 	 	 	 	 	 	1581537753	9.48	17.56
12/02/2020 20:02:34	120220	12022020	200234	237.20	12.368057	-56.814788	237.32	0.420	-0.550	0.570	237.22	-1.90	1.00	 	 	 	 	 	 	 	 	 	 	 	 	 	 	 	 	 	 	1581537754	9.09	16.83
12/02/2020 20:02:35	120220	12022020	200235	237.30	12.368040	-56.814828	237.42	0.380	-0.720	1.380	237.32	-2.10	1.80	 	 	 	 	 	 	 	 	 	 	 	 	 	 	 	 	 	 	1581537755	9.19	17.02
12/02/2020 20:02:36	120220	12022020	200236	237.39	12.368023	-56.814870	237.49	0.370	-1.130	2.010	237.41	-2.50	2.40	 	 	 	 	 	 	 	 	 	 	 	 	 	 	 	 	 	 	1581537756	9.65	17.87
12/02/2020 20:02:37	120220	12022020	200237	237.46	12.368005	-56.814913	237.55	0.310	-1.490	2.180	237.47	-2.80	2.60	 	 	 	 	 	 	 	 	 	 	 	 	 	 	 	 	 	 	1581537757	9.94	18.41
12/02/2020 20:02:38	120220	12022020	200238	237.45	12.367985	-56.814955	237.49	0.100	-1.470	2.030	237.43	-2.80	2.50	 	 	 	 	 	 	 	 	 	 	 	 	 	 	 	 	 	 	1581537758	9.87	18.28
12/02/2020 20:02:39	120220	12022020	200239	237.30	12.367963	-56.814995	237.31	-0.240	-1.000	1.710	237.26	-2.40	2.20	 	 	 	 	 	 	 	 	 	 	 	 	 	 	 	 	 	 	1581537759	9.67	17.91
12/02/2020 20:02:40	120220	12022020	200240	237.05	12.367940	-56.815033	237.05	-0.580	-0.260	1.360	237.00	-1.70	1.80	 	 	 	 	 	 	 	 	 	 	 	 	 	 	 	 	 	 	1581537760	9.52	17.63
12/02/2020 20:02:41	120220	12022020	200241	236.77	12.367917	-56.815072	236.75	-0.770	0.440	0.980	236.73	-1.00	1.40	 	 	 	 	 	 	 	 	 	 	 	 	 	 	 	 	 	 	1581537761	9.55	17.69
12/02/2020 20:02:42	120220	12022020	200242	236.67	12.367892	-56.815110	236.73	-0.760	0.940	0.520	236.69	-0.40	1.00	 	 	 	 	 	 	 	 	 	 	 	 	 	 	 	 	 	 	1581537762	9.62	17.82
12/02/2020 20:02:43	120220	12022020	200243	236.89	12.367870	-56.815150	237.02	-0.560	1.150	0.170	236.97	-0.20	0.60	 	 	 	 	 	 	 	 	 	 	 	 	 	 	 	 	 	 	1581537763	9.63	17.83
12/02/2020 20:02:44	120220	12022020	200244	237.42	12.367848	-56.815188	237.59	-0.210	0.980	-0.080	237.55	-0.40	0.40	 	 	 	 	 	 	 	 	 	 	 	 	 	 	 	 	 	 	1581537764	9.62	17.82
12/02/2020 20:02:45	120220	12022020	200245	238.05	12.367827	-56.815228	238.22	0.220	0.490	-0.120	238.17	-0.90	0.30	 	 	 	 	 	 	 	 	 	 	 	 	 	 	 	 	 	 	1581537765	9.60	17.78
12/02/2020 20:02:46	120220	12022020	200246	238.50	12.367805	-56.815268	238.61	0.650	-0.230	0.190	238.55	-1.60	0.60	 	 	 	 	 	 	 	 	 	 	 	 	 	 	 	 	 	 	1581537766	9.58	17.74
12/02/2020 20:02:47	120220	12022020	200247	238.51	12.367785	-56.815308	238.53	0.920	-1.010	1.000	238.45	-2.30	1.40	 	 	 	 	 	 	 	 	 	 	 	 	 	 	 	 	 	 	1581537767	9.58	17.74
12/02/2020 20:02:48	120220	12022020	200248	238.01	12.367767	-56.815352	237.98	0.870	-1.640	2.080	237.87	-3.00	2.50	 	 	 	 	 	 	 	 	 	 	 	 	 	 	 	 	 	 	1581537768	9.71	17.98
12/02/2020 20:02:49	120220	12022020	200249	237.45	12.367750	-56.815395	237.33	0.510	-1.810	2.880	237.33	-3.20	3.30	 	 	 	 	 	 	 	 	 	 	 	 	 	 	 	 	 	 	1581537769	9.75	18.06
12/02/2020 20:02:50	120220	12022020	200250	236.92	12.367735	-56.815437	236.96	-0.020	-1.350	2.920	236.88	-2.70	3.40	 	 	 	 	 	 	 	 	 	 	 	 	 	 	 	 	 	 	1581537770	9.47	17.54
12/02/2020 20:02:51	120220	12022020	200251	236.89	12.367717	-56.815475	237.04	-0.440	-0.570	2.130	236.93	-2.00	2.60	 	 	 	 	 	 	 	 	 	 	 	 	 	 	 	 	 	 	1581537771	9.10	16.85
12/02/2020 20:02:52	120220	12022020	200252	237.36	12.367695	-56.815512	237.50	-0.570	0.090	0.870	237.45	-1.30	1.40	 	 	 	 	 	 	 	 	 	 	 	 	 	 	 	 	 	 	1581537772	9.13	16.91
12/02/2020 20:02:53	120220	12022020	200253	237.87	12.367670	-56.815548	237.99	-0.430	0.310	-0.120	237.95	-1.10	0.40	 	 	 	 	 	 	 	 	 	 	 	 	 	 	 	 	 	 	1581537773	9.56	17.71
12/02/2020 20:02:54	120220	12022020	200254	238.20	12.367643	-56.815588	238.30	-0.230	0.180	-0.400	238.24	-1.20	0.00	 	 	 	 	 	 	 	 	 	 	 	 	 	 	 	 	 	 	1581537774	9.98	18.48
12/02/2020 20:02:55	120220	12022020	200255	238.27	12.367620	-56.815628	238.31	-0.120	0.080	-0.060	238.25	-1.30	0.30	 	 	 	 	 	 	 	 	 	 	 	 	 	 	 	 	 	 	1581537775	9.96	18.45
12/02/2020 20:02:56	120220	12022020	200256	237.96	12.367600	-56.815670	237.93	-0.060	0.090	0.670	237.85	-1.30	1.10	 	 	 	 	 	 	 	 	 	 	 	 	 	 	 	 	 	 	1581537776	9.69	17.95
12/02/2020 20:02:57	120220	12022020	200257	237.37	12.367582	-56.815712	237.35	0.010	0.080	1.420	237.26	-1.30	1.80	 	 	 	 	 	 	 	 	 	 	 	 	 	 	 	 	 	 	1581537777	9.61	17.80
12/02/2020 20:02:58	120220	12022020	200258	236.98	12.367562	-56.815752	237.01	0.100	0.010	1.710	236.94	-1.30	2.10	 	 	 	 	 	 	 	 	 	 	 	 	 	 	 	 	 	 	1581537778	9.55	17.69
12/02/2020 20:02:59	120220	12022020	200259	236.88	12.367542	-56.815792	236.95	0.180	-0.130	1.650	236.88	-1.50	2.10	 	 	 	 	 	 	 	 	 	 	 	 	 	 	 	 	 	 	1581537779	9.48	17.56
12/02/2020 20:03:00	120220	12022020	200300	236.91	12.367522	-56.815832	236.99	0.210	-0.300	1.490	236.92	-1.70	1.90	 	 	 	 	 	 	 	 	 	 	 	 	 	 	 	 	 	 	1581537780	9.45	17.50
12/02/2020 20:03:01	120220	12022020	200301	237.04	12.367502	-56.815870	237.15	0.190	-0.370	1.240	237.09	-1.70	1.70	 	 	 	 	 	 	 	 	 	 	 	 	 	 	 	 	 	 	1581537781	9.37	17.35
12/02/2020 20:03:02	120220	12022020	200302	237.38	12.367482	-56.815910	237.54	0.110	-0.430	0.910	237.47	-1.80	1.30	1014.60	26.50	26.50	20.30	20.40	371.0	68.0	69.0	391.0	29.0	222.00	5.70	79.00	9.90	25398	9119.0	27.5	27.5	1581537782	9.24	17.11
12/02/2020 20:03:03	120220	12022020	200303	237.83	12.367462	-56.815948	237.99	0.030	-0.650	0.540	237.92	-2.00	1.00	 	 	 	 	 	 	 	 	 	 	 	 	 	 	 	 	 	 	1581537783	9.30	17.22
12/02/2020 20:03:04	120220	12022020	200304	238.13	12.367442	-56.815988	238.23	0.030	-1.000	0.270	238.16	-2.30	0.70	 	 	 	 	 	 	 	 	 	 	 	 	 	 	 	 	 	 	1581537784	9.56	17.71
12/02/2020 20:03:05	120220	12022020	200305	238.17	12.367418	-56.816028	238.23	0.070	-1.130	0.270	238.15	-2.50	0.70	 	 	 	 	 	 	 	 	 	 	 	 	 	 	 	 	 	 	1581537785	9.69	17.95
12/02/2020 20:03:06	120220	12022020	200306	237.98	12.367397	-56.816067	238.00	0.040	-0.890	0.600	237.91	-2.30	1.00	 	 	 	 	 	 	 	 	 	 	 	 	 	 	 	 	 	 	1581537786	9.52	17.63
12/02/2020 20:03:07	120220	12022020	200307	237.55	12.367375	-56.816107	237.55	-0.120	-0.520	1.140	237.45	-1.90	1.50	 	 	 	 	 	 	 	 	 	 	 	 	 	 	 	 	 	 	1581537787	9.49	17.58
12/02/2020 20:03:08	120220	12022020	200308	237.00	12.367355	-56.816147	237.01	-0.320	-0.140	1.750	236.89	-1.50	2.20	 	 	 	 	 	 	 	 	 	 	 	 	 	 	 	 	 	 	1581537788	9.67	17.91
12/02/2020 20:03:09	120220	12022020	200309	236.53	12.367335	-56.816188	236.57	-0.420	0.300	2.260	236.47	-1.10	2.70	 	 	 	 	 	 	 	 	 	 	 	 	 	 	 	 	 	 	1581537789	9.78	18.11
12/02/2020 20:03:10	120220	12022020	200310	236.41	12.367317	-56.816230	236.55	-0.350	0.800	2.260	236.44	-0.60	2.70	 	 	 	 	 	 	 	 	 	 	 	 	 	 	 	 	 	 	1581537790	9.59	17.76
12/02/2020 20:03:11	120220	12022020	200311	236.70	12.367297	-56.816270	236.88	-0.170	1.000	1.770	236.79	-0.40	2.20	 	 	 	 	 	 	 	 	 	 	 	 	 	 	 	 	 	 	1581537791	9.36	17.33
12/02/2020 20:03:12	120220	12022020	200312	237.19	12.367275	-56.816308	237.38	0.050	0.600	1.140	237.30	-0.70	1.60	 	 	 	 	 	 	 	 	 	 	 	 	 	 	 	 	 	 	1581537792	9.51	17.61
12/02/2020 20:03:13	120220	12022020	200313	237.74	12.367253	-56.816350	237.92	0.290	-0.130	0.530	237.85	-1.50	1.00	 	 	 	 	 	 	 	 	 	 	 	 	 	 	 	 	 	 	1581537793	9.72	18.00
12/02/2020 20:03:14	120220	12022020	200314	238.23	12.367232	-56.816388	238.37	0.490	-0.720	0.140	238.31	-2.10	0.60	 	 	 	 	 	 	 	 	 	 	 	 	 	 	 	 	 	 	1581537794	9.55	17.69
12/02/2020 20:03:15	120220	12022020	200315	238.51	12.367210	-56.816427	238.57	0.560	-1.080	0.080	238.53	-2.40	0.50	 	 	 	 	 	 	 	 	 	 	 	 	 	 	 	 	 	 	1581537795	9.27	17.17
12/02/2020 20:03:16	120220	12022020	200316	238.44	12.367188	-56.816465	238.46	0.410	-1.290	0.350	238.40	-2.60	0.80	 	 	 	 	 	 	 	 	 	 	 	 	 	 	 	 	 	 	1581537796	9.25	17.13
12/02/2020 20:03:17	120220	12022020	200317	238.12	12.367168	-56.816503	238.11	0.060	-1.390	0.850	238.05	-2.70	1.30	 	 	 	 	 	 	 	 	 	 	 	 	 	 	 	 	 	 	1581537797	9.46	17.52
12/02/2020 20:03:18	120220	12022020	200318	237.73	12.367148	-56.816545	237.71	-0.330	-1.270	1.380	237.65	-2.60	1.80	 	 	 	 	 	 	 	 	 	 	 	 	 	 	 	 	 	 	1581537798	9.66	17.89
12/02/2020 20:03:19	120220	12022020	200319	237.35	12.367130	-56.816587	237.34	-0.570	-0.800	1.710	237.28	-2.20	2.10	 	 	 	 	 	 	 	 	 	 	 	 	 	 	 	 	 	 	1581537799	9.69	17.95
12/02/2020 20:03:20	120220	12022020	200320	237.08	12.367110	-56.816627	237.09	-0.590	-0.010	1.650	237.04	-1.40	2.10	 	 	 	 	 	 	 	 	 	 	 	 	 	 	 	 	 	 	1581537800	9.48	17.56
12/02/2020 20:03:21	120220	12022020	200321	237.04	12.367090	-56.816665	237.12	-0.460	0.740	1.330	237.06	-0.60	1.80	 	 	 	 	 	 	 	 	 	 	 	 	 	 	 	 	 	 	1581537801	9.28	17.19
12/02/2020 20:03:22	120220	12022020	200322	237.22	12.367068	-56.816705	237.35	-0.240	0.980	0.960	237.28	-0.40	1.40	 	 	 	 	 	 	 	 	 	 	 	 	 	 	 	 	 	 	1581537802	9.43	17.46
12/02/2020 20:03:23	120220	12022020	200323	237.53	12.367045	-56.816745	237.64	0.050	0.610	0.660	237.59	-0.70	1.10	 	 	 	 	 	 	 	 	 	 	 	 	 	 	 	 	 	 	1581537803	9.82	18.19
12/02/2020 20:03:24	120220	12022020	200324	237.84	12.367023	-56.816787	237.92	0.300	0.070	0.500	237.89	-1.30	0.90	 	 	 	 	 	 	 	 	 	 	 	 	 	 	 	 	 	 	1581537804	9.99	18.50
12/02/2020 20:03:25	120220	12022020	200325	238.05	12.367002	-56.816827	238.12	0.360	-0.280	0.610	238.08	-1.60	1.00	 	 	 	 	 	 	 	 	 	 	 	 	 	 	 	 	 	 	1581537805	9.69	17.95
12/02/2020 20:03:26	120220	12022020	200326	238.11	12.366982	-56.816865	238.15	0.210	-0.460	0.910	238.10	-1.80	1.30	 	 	 	 	 	 	 	 	 	 	 	 	 	 	 	 	 	 	1581537806	9.34	17.30
12/02/2020 20:03:27	120220	12022020	200327	237.97	12.366963	-56.816905	237.96	0.020	-0.690	1.290	237.92	-2.00	1.70	 	 	 	 	 	 	 	 	 	 	 	 	 	 	 	 	 	 	1581537807	9.34	17.30
12/02/2020 20:03:28	120220	12022020	200328	237.60	12.366943	-56.816947	237.52	-0.040	-0.930	1.570	237.50	-2.30	2.00	 	 	 	 	 	 	 	 	 	 	 	 	 	 	 	 	 	 	1581537808	9.54	17.67
12/02/2020 20:03:29	120220	12022020	200329	237.15	12.366923	-56.816987	237.12	0.040	-0.910	1.490	237.09	-2.30	1.90	 	 	 	 	 	 	 	 	 	 	 	 	 	 	 	 	 	 	1581537809	9.53	17.65
12/02/2020 20:03:30	120220	12022020	200330	236.94	12.366902	-56.817025	236.96	0.150	-0.640	1.090	236.93	-2.00	1.50	 	 	 	 	 	 	 	 	 	 	 	 	 	 	 	 	 	 	1581537810	9.31	17.24
12/02/2020 20:03:31	120220	12022020	200331	236.97	12.366880	-56.817062	237.02	0.220	-0.400	0.680	237.00	-1.80	1.10	 	 	 	 	 	 	 	 	 	 	 	 	 	 	 	 	 	 	1581537811	9.27	17.17
12/02/2020 20:03:32	120220	12022020	200332	237.16	12.366858	-56.817102	237.24	0.160	-0.350	0.500	237.22	-1.70	0.90	 	 	 	 	 	 	 	 	 	 	 	 	 	 	 	 	 	 	1581537812	9.50	17.59
12/02/2020 20:03:33	120220	12022020	200333	237.43	12.366837	-56.817142	237.52	-0.040	-0.350	0.570	237.49	-1.70	1.00	 	 	 	 	 	 	 	 	 	 	 	 	 	 	 	 	 	 	1581537813	9.74	18.04
12/02/2020 20:03:34	120220	12022020	200334	237.76	12.366815	-56.817182	237.87	-0.260	-0.160	0.580	237.84	-1.50	1.00	 	 	 	 	 	 	 	 	 	 	 	 	 	 	 	 	 	 	1581537814	9.65	17.87
12/02/2020 20:03:35	120220	12022020	200335	238.13	12.366793	-56.817222	238.24	-0.360	0.130	0.450	238.19	-1.20	0.90	 	 	 	 	 	 	 	 	 	 	 	 	 	 	 	 	 	 	1581537815	9.41	17.43
12/02/2020 20:03:36	120220	12022020	200336	238.29	12.366772	-56.817258	238.34	-0.300	0.210	0.470	238.27	-1.20	0.90	 	 	 	 	 	 	 	 	 	 	 	 	 	 	 	 	 	 	1581537816	9.44	17.48
12/02/2020 20:03:37	120220	12022020	200337	238.01	12.366748	-56.817298	237.97	-0.130	-0.010	0.930	237.90	-1.40	1.30	 	 	 	 	 	 	 	 	 	 	 	 	 	 	 	 	 	 	1581537817	9.72	18.00
12/02/2020 20:03:38	120220	12022020	200338	237.40	12.366728	-56.817342	237.35	0.020	-0.260	1.560	237.26	-1.60	2.00	 	 	 	 	 	 	 	 	 	 	 	 	 	 	 	 	 	 	1581537818	9.87	18.28
12/02/2020 20:03:39	120220	12022020	200339	236.74	12.366710	-56.817382	236.71	0.090	-0.320	1.990	236.63	-1.70	2.40	 	 	 	 	 	 	 	 	 	 	 	 	 	 	 	 	 	 	1581537819	9.70	17.96
12/02/2020 20:03:40	120220	12022020	200340	236.28	12.366690	-56.817423	236.30	0.130	-0.260	1.990	236.22	-1.60	2.40	 	 	 	 	 	 	 	 	 	 	 	 	 	 	 	 	 	 	1581537820	9.48	17.56
12/02/2020 20:03:41	120220	12022020	200341	236.14	12.366670	-56.817462	236.21	0.170	-0.250	1.600	236.14	-1.60	2.10	 	 	 	 	 	 	 	 	 	 	 	 	 	 	 	 	 	 	1581537821	9.37	17.35
12/02/2020 20:03:42	120220	12022020	200342	236.29	12.366650	-56.817502	236.40	0.210	-0.310	1.030	236.34	-1.70	1.50	 	 	 	 	 	 	 	 	 	 	 	 	 	 	 	 	 	 	1581537822	9.41	17.43
12/02/2020 20:03:43	120220	12022020	200343	236.65	12.366627	-56.817540	236.77	0.290	-0.390	0.440	236.73	-1.80	0.90	 	 	 	 	 	 	 	 	 	 	 	 	 	 	 	 	 	 	1581537823	9.40	17.41
12/02/2020 20:03:44	120220	12022020	200344	237.05	12.366605	-56.817578	237.17	0.380	-0.520	0.010	237.11	-1.90	0.50	 	 	 	 	 	 	 	 	 	 	 	 	 	 	 	 	 	 	1581537824	9.42	17.45
12/02/2020 20:03:45	120220	12022020	200345	237.34	12.366582	-56.817617	237.44	0.370	-0.690	-0.070	237.38	-2.10	0.40	 	 	 	 	 	 	 	 	 	 	 	 	 	 	 	 	 	 	1581537825	9.55	17.69
12/02/2020 20:03:46	120220	12022020	200346	237.50	12.366558	-56.817655	237.61	0.160	-0.800	0.130	237.52	-2.20	0.60	 	 	 	 	 	 	 	 	 	 	 	 	 	 	 	 	 	 	1581537826	9.67	17.91
12/02/2020 20:03:47	120220	12022020	200347	237.56	12.366537	-56.817695	237.66	-0.240	-0.670	0.500	237.55	-2.00	0.90	 	 	 	 	 	 	 	 	 	 	 	 	 	 	 	 	 	 	1581537827	9.61	17.80
12/02/2020 20:03:48	120220	12022020	200348	237.51	12.366517	-56.817735	237.58	-0.620	-0.310	0.910	237.49	-1.70	1.30	 	 	 	 	 	 	 	 	 	 	 	 	 	 	 	 	 	 	1581537828	9.44	17.48
12/02/2020 20:03:49	120220	12022020	200349	237.39	12.366497	-56.817775	237.44	-0.760	0.070	1.180	237.36	-1.30	1.60	 	 	 	 	 	 	 	 	 	 	 	 	 	 	 	 	 	 	1581537829	9.34	17.30
12/02/2020 20:03:50	120220	12022020	200350	237.19	12.366475	-56.817813	237.23	-0.570	0.080	1.290	237.14	-1.30	1.70	 	 	 	 	 	 	 	 	 	 	 	 	 	 	 	 	 	 	1581537830	9.58	17.74
12/02/2020 20:03:51	120220	12022020	200351	236.92	12.366452	-56.817855	236.94	-0.200	-0.190	1.340	236.86	-1.50	1.80	 	 	 	 	 	 	 	 	 	 	 	 	 	 	 	 	 	 	1581537831	10.01	18.54
12/02/2020 20:03:52	120220	12022020	200352	236.61	12.366430	-56.817897	236.63	0.110	-0.300	1.460	236.56	-1.70	1.90	 	 	 	 	 	 	 	 	 	 	 	 	 	 	 	 	 	 	1581537832	10.04	18.59
12/02/2020 20:03:53	120220	12022020	200353	236.34	12.366410	-56.817938	236.36	0.210	-0.050	1.610	236.30	-1.40	2.00	 	 	 	 	 	 	 	 	 	 	 	 	 	 	 	 	 	 	1581537833	9.59	17.76
12/02/2020 20:03:54	120220	12022020	200354	236.15	12.366390	-56.817977	236.19	0.200	0.220	1.590	236.13	-1.20	2.00	 	 	 	 	 	 	 	 	 	 	 	 	 	 	 	 	 	 	1581537834	9.28	17.19
12/02/2020 20:03:55	120220	12022020	200355	236.14	12.366372	-56.818017	236.22	0.270	0.180	1.230	236.17	-1.20	1.70	 	 	 	 	 	 	 	 	 	 	 	 	 	 	 	 	 	 	1581537835	9.33	17.28
12/02/2020 20:03:56	120220	12022020	200356	236.38	12.366348	-56.818057	236.49	0.410	-0.280	0.630	236.45	-1.60	1.10	 	 	 	 	 	 	 	 	 	 	 	 	 	 	 	 	 	 	1581537836	9.66	17.89
12/02/2020 20:03:57	120220	12022020	200357	236.75	12.366325	-56.818095	236.89	0.430	-0.740	0.050	236.83	-2.10	0.50	 	 	 	 	 	 	 	 	 	 	 	 	 	 	 	 	 	 	1581537837	9.82	18.19
12/02/2020 20:03:58	120220	12022020	200358	237.16	12.366300	-56.818133	237.29	0.200	-0.800	-0.260	237.25	-2.20	0.20	 	 	 	 	 	 	 	 	 	 	 	 	 	 	 	 	 	 	1581537838	9.55	17.69
12/02/2020 20:03:59	120220	12022020	200359	237.55	12.366278	-56.818170	237.67	-0.120	-0.520	-0.190	237.62	-1.90	0.20	 	 	 	 	 	 	 	 	 	 	 	 	 	 	 	 	 	 	1581537839	9.12	16.89
12/02/2020 20:04:00	120220	12022020	200400	237.77	12.366257	-56.818207	237.83	-0.290	-0.310	0.170	237.78	-1.70	0.60	 	 	 	 	 	 	 	 	 	 	 	 	 	 	 	 	 	 	1581537840	9.07	16.80
12/02/2020 20:04:01	120220	12022020	200401	237.70	12.366237	-56.818247	237.71	-0.190	-0.360	0.750	237.65	-1.70	1.20	 	 	 	 	 	 	 	 	 	 	 	 	 	 	 	 	 	 	1581537841	9.47	17.54
12/02/2020 20:04:02	120220	12022020	200402	237.39	12.366217	-56.818288	237.35	0.050	-0.460	1.280	237.30	-1.80	1.70	1014.70	26.50	26.60	20.50	20.60	368.0	69.0	69.0	391.0	29.0	225.00	5.70	82.00	9.70	25178	9197.0	27.5	27.5	1581537842	9.77	18.09
12/02/2020 20:04:03	120220	12022020	200403	236.92	12.366195	-56.818330	236.88	0.230	-0.480	1.650	236.83	-1.90	2.10	 	 	 	 	 	 	 	 	 	 	 	 	 	 	 	 	 	 	1581537843	9.83	18.21
12/02/2020 20:04:04	120220	12022020	200404	236.50	12.366175	-56.818370	236.47	0.180	-0.380	1.790	236.43	-1.80	2.20	 	 	 	 	 	 	 	 	 	 	 	 	 	 	 	 	 	 	1581537844	9.77	18.09
12/02/2020 20:04:05	120220	12022020	200405	236.24	12.366153	-56.818412	236.24	-0.070	-0.240	1.700	236.20	-1.60	2.10	 	 	 	 	 	 	 	 	 	 	 	 	 	 	 	 	 	 	1581537845	9.67	17.91
12/02/2020 20:04:06	120220	12022020	200406	236.15	12.366133	-56.818452	236.18	-0.300	-0.140	1.380	236.16	-1.50	1.80	 	 	 	 	 	 	 	 	 	 	 	 	 	 	 	 	 	 	1581537846	9.66	17.89
12/02/2020 20:04:07	120220	12022020	200407	236.28	12.366112	-56.818492	236.36	-0.360	-0.120	0.830	236.33	-1.50	1.30	 	 	 	 	 	 	 	 	 	 	 	 	 	 	 	 	 	 	1581537847	9.61	17.80
12/02/2020 20:04:08	120220	12022020	200408	236.59	12.366088	-56.818530	236.70	-0.260	-0.280	0.240	236.66	-1.60	0.70	 	 	 	 	 	 	 	 	 	 	 	 	 	 	 	 	 	 	1581537848	9.69	17.95
12/02/2020 20:04:09	120220	12022020	200409	236.98	12.366063	-56.818570	237.10	-0.120	-0.400	-0.210	237.07	-1.80	0.20	 	 	 	 	 	 	 	 	 	 	 	 	 	 	 	 	 	 	1581537849	9.80	18.15
12/02/2020 20:04:10	120220	12022020	200410	237.37	12.366040	-56.818608	237.48	-0.050	-0.220	-0.320	237.42	-1.60	0.10	 	 	 	 	 	 	 	 	 	 	 	 	 	 	 	 	 	 	1581537850	9.54	17.67
12/02/2020 20:04:11	120220	12022020	200411	237.55	12.366017	-56.818645	237.62	-0.020	0.030	0.030	237.56	-1.40	0.40	 	 	 	 	 	 	 	 	 	 	 	 	 	 	 	 	 	 	1581537851	9.27	17.17
12/02/2020 20:04:12	120220	12022020	200412	237.54	12.365997	-56.818685	237.58	0.070	0.110	0.570	237.51	-1.30	1.00	 	 	 	 	 	 	 	 	 	 	 	 	 	 	 	 	 	 	1581537852	9.35	17.32
12/02/2020 20:04:13	120220	12022020	200413	237.38	12.365977	-56.818725	237.40	0.250	-0.010	1.170	237.33	-1.40	1.60	 	 	 	 	 	 	 	 	 	 	 	 	 	 	 	 	 	 	1581537853	9.53	17.65
12/02/2020 20:04:14	120220	12022020	200414	237.12	12.365958	-56.818767	237.14	0.400	-0.260	1.680	237.05	-1.60	2.10	 	 	 	 	 	 	 	 	 	 	 	 	 	 	 	 	 	 	1581537854	9.67	17.91
12/02/2020 20:04:15	120220	12022020	200415	236.77	12.365938	-56.818808	236.76	0.380	-0.580	1.990	236.69	-1.90	2.40	 	 	 	 	 	 	 	 	 	 	 	 	 	 	 	 	 	 	1581537855	9.77	18.09
12/02/2020 20:04:16	120220	12022020	200416	236.41	12.365920	-56.818850	236.40	0.240	-0.790	2.010	236.36	-2.10	2.40	 	 	 	 	 	 	 	 	 	 	 	 	 	 	 	 	 	 	1581537856	9.76	18.08
12/02/2020 20:04:17	120220	12022020	200417	236.24	12.365898	-56.818890	236.25	0.050	-0.730	1.700	236.22	-2.10	2.10	 	 	 	 	 	 	 	 	 	 	 	 	 	 	 	 	 	 	1581537857	9.55	17.69
12/02/2020 20:04:18	120220	12022020	200418	236.23	12.365875	-56.818927	236.27	-0.090	-0.600	1.160	236.25	-2.00	1.60	 	 	 	 	 	 	 	 	 	 	 	 	 	 	 	 	 	 	1581537858	9.40	17.41
12/02/2020 20:04:19	120220	12022020	200419	236.28	12.365850	-56.818965	236.32	-0.130	-0.620	0.700	236.30	-2.00	1.10	 	 	 	 	 	 	 	 	 	 	 	 	 	 	 	 	 	 	1581537859	9.64	17.85
12/02/2020 20:04:20	120220	12022020	200420	236.39	12.365825	-56.819005	236.46	-0.190	-0.680	0.500	236.42	-2.00	0.90	 	 	 	 	 	 	 	 	 	 	 	 	 	 	 	 	 	 	1581537860	9.92	18.37
12/02/2020 20:04:21	120220	12022020	200421	236.69	12.365802	-56.819045	236.82	-0.370	-0.520	0.500	236.77	-1.90	0.90	 	 	 	 	 	 	 	 	 	 	 	 	 	 	 	 	 	 	1581537861	9.89	18.32
12/02/2020 20:04:22	120220	12022020	200422	237.14	12.365780	-56.819083	237.28	-0.560	-0.060	0.620	237.23	-1.50	1.00	 	 	 	 	 	 	 	 	 	 	 	 	 	 	 	 	 	 	1581537862	9.55	17.69
12/02/2020 20:04:23	120220	12022020	200423	237.49	12.365760	-56.819123	237.59	-0.510	0.400	0.840	237.53	-1.00	1.30	 	 	 	 	 	 	 	 	 	 	 	 	 	 	 	 	 	 	1581537863	9.32	17.26
12/02/2020 20:04:24	120220	12022020	200424	237.63	12.365740	-56.819163	237.68	-0.120	0.570	1.030	237.64	-0.80	1.40	 	 	 	 	 	 	 	 	 	 	 	 	 	 	 	 	 	 	1581537864	9.42	17.45
12/02/2020 20:04:25	120220	12022020	200425	237.59	12.365720	-56.819203	237.60	0.350	0.430	1.190	237.56	-0.90	1.60	 	 	 	 	 	 	 	 	 	 	 	 	 	 	 	 	 	 	1581537865	9.63	17.83
12/02/2020 20:04:26	120220	12022020	200426	237.38	12.365700	-56.819245	237.36	0.630	0.120	1.310	237.32	-1.20	1.70	 	 	 	 	 	 	 	 	 	 	 	 	 	 	 	 	 	 	1581537866	9.71	17.98
12/02/2020 20:04:27	120220	12022020	200427	237.09	12.365678	-56.819285	237.09	0.670	-0.200	1.310	237.04	-1.60	1.70	 	 	 	 	 	 	 	 	 	 	 	 	 	 	 	 	 	 	1581537867	9.60	17.78
12/02/2020 20:04:28	120220	12022020	200428	236.92	12.365657	-56.819323	236.95	0.590	-0.520	1.090	236.91	-1.90	1.50	 	 	 	 	 	 	 	 	 	 	 	 	 	 	 	 	 	 	1581537868	9.48	17.56
12/02/2020 20:04:29	120220	12022020	200429	236.88	12.365633	-56.819362	236.90	0.440	-0.930	0.870	236.88	-2.30	1.30	 	 	 	 	 	 	 	 	 	 	 	 	 	 	 	 	 	 	1581537869	9.56	17.71
12/02/2020 20:04:30	120220	12022020	200430	236.76	12.365610	-56.819402	236.80	0.180	-1.310	0.970	236.73	-2.70	1.40	 	 	 	 	 	 	 	 	 	 	 	 	 	 	 	 	 	 	1581537870	9.81	18.17
12/02/2020 20:04:31	120220	12022020	200431	236.65	12.365590	-56.819443	236.68	-0.190	-1.300	1.180	236.63	-2.70	1.60	 	 	 	 	 	 	 	 	 	 	 	 	 	 	 	 	 	 	1581537871	9.84	18.22
12/02/2020 20:04:32	120220	12022020	200432	236.63	12.365570	-56.819485	236.70	-0.550	-0.890	1.280	236.65	-2.30	1.70	 	 	 	 	 	 	 	 	 	 	 	 	 	 	 	 	 	 	1581537872	9.62	17.82
12/02/2020 20:04:33	120220	12022020	200433	236.80	12.365550	-56.819525	236.90	-0.730	-0.270	1.120	236.85	-1.70	1.60	 	 	 	 	 	 	 	 	 	 	 	 	 	 	 	 	 	 	1581537873	9.45	17.50
12/02/2020 20:04:34	120220	12022020	200434	237.09	12.365528	-56.819563	237.19	-0.680	0.260	0.670	237.15	-1.10	1.10	 	 	 	 	 	 	 	 	 	 	 	 	 	 	 	 	 	 	1581537874	9.40	17.41
12/02/2020 20:04:35	120220	12022020	200435	237.38	12.365505	-56.819602	237.47	-0.440	0.450	0.220	237.43	-0.90	0.70	 	 	 	 	 	 	 	 	 	 	 	 	 	 	 	 	 	 	1581537875	9.59	17.76
12/02/2020 20:04:36	120220	12022020	200436	237.65	12.365478	-56.819640	237.76	-0.140	0.280	-0.020	237.71	-1.10	0.40	 	 	 	 	 	 	 	 	 	 	 	 	 	 	 	 	 	 	1581537876	9.88	18.30
12/02/2020 20:04:37	120220	12022020	200437	237.93	12.365455	-56.819680	238.04	0.150	-0.030	0.050	237.98	-1.40	0.50	 	 	 	 	 	 	 	 	 	 	 	 	 	 	 	 	 	 	1581537877	9.94	18.41
12/02/2020 20:04:38	120220	12022020	200438	238.05	12.365433	-56.819720	238.11	0.370	-0.310	0.510	238.03	-1.70	0.90	 	 	 	 	 	 	 	 	 	 	 	 	 	 	 	 	 	 	1581537878	9.84	18.22
12/02/2020 20:04:39	120220	12022020	200439	237.86	12.365413	-56.819763	237.89	0.440	-0.470	1.210	237.80	-1.80	1.60	 	 	 	 	 	 	 	 	 	 	 	 	 	 	 	 	 	 	1581537879	9.79	18.13
12/02/2020 20:04:40	120220	12022020	200440	237.55	12.365397	-56.819805	237.56	0.330	-0.420	1.810	237.48	-1.80	2.20	 	 	 	 	 	 	 	 	 	 	 	 	 	 	 	 	 	 	1581537880	9.70	17.96
12/02/2020 20:04:41	120220	12022020	200441	237.17	12.365378	-56.819847	237.16	0.110	-0.190	2.120	237.09	-1.60	2.50	 	 	 	 	 	 	 	 	 	 	 	 	 	 	 	 	 	 	1581537881	9.51	17.61
12/02/2020 20:04:42	120220	12022020	200442	236.84	12.365360	-56.819887	236.86	-0.040	0.040	1.890	236.81	-1.30	2.30	 	 	 	 	 	 	 	 	 	 	 	 	 	 	 	 	 	 	1581537882	9.37	17.35
12/02/2020 20:04:43	120220	12022020	200443	236.78	12.365337	-56.819925	236.84	-0.070	0.080	1.150	236.81	-1.30	1.60	 	 	 	 	 	 	 	 	 	 	 	 	 	 	 	 	 	 	1581537883	9.41	17.43
12/02/2020 20:04:44	120220	12022020	200444	236.97	12.365312	-56.819962	237.05	-0.000	-0.120	0.390	237.01	-1.50	0.90	 	 	 	 	 	 	 	 	 	 	 	 	 	 	 	 	 	 	1581537884	9.51	17.61
12/02/2020 20:04:45	120220	12022020	200445	237.17	12.365288	-56.820000	237.23	0.120	-0.480	0.030	237.20	-1.80	0.50	 	 	 	 	 	 	 	 	 	 	 	 	 	 	 	 	 	 	1581537885	9.63	17.83
12/02/2020 20:04:46	120220	12022020	200446	237.23	12.365265	-56.820040	237.27	0.220	-0.870	0.100	237.23	-2.20	0.50	 	 	 	 	 	 	 	 	 	 	 	 	 	 	 	 	 	 	1581537886	9.72	18.00
12/02/2020 20:04:47	120220	12022020	200447	237.26	12.365243	-56.820080	237.32	0.190	-1.080	0.310	237.27	-2.40	0.70	 	 	 	 	 	 	 	 	 	 	 	 	 	 	 	 	 	 	1581537887	9.75	18.06
12/02/2020 20:04:48	120220	12022020	200448	237.42	12.365223	-56.820122	237.52	-0.000	-1.010	0.520	237.47	-2.40	0.90	 	 	 	 	 	 	 	 	 	 	 	 	 	 	 	 	 	 	1581537888	9.65	17.87
12/02/2020 20:04:49	120220	12022020	200449	237.71	12.365205	-56.820162	237.82	-0.240	-0.730	0.730	237.78	-2.10	1.10	 	 	 	 	 	 	 	 	 	 	 	 	 	 	 	 	 	 	1581537889	9.59	17.76
12/02/2020 20:04:50	120220	12022020	200450	238.06	12.365185	-56.820203	238.18	-0.420	-0.320	0.880	238.13	-1.70	1.30	 	 	 	 	 	 	 	 	 	 	 	 	 	 	 	 	 	 	1581537890	9.57	17.72
12/02/2020 20:04:51	120220	12022020	200451	238.37	12.365165	-56.820243	238.47	-0.440	0.130	0.920	238.42	-1.30	1.30	 	 	 	 	 	 	 	 	 	 	 	 	 	 	 	 	 	 	1581537891	9.49	17.58
12/02/2020 20:04:52	120220	12022020	200452	238.44	12.365143	-56.820282	238.48	-0.270	0.350	0.860	238.42	-1.00	1.30	 	 	 	 	 	 	 	 	 	 	 	 	 	 	 	 	 	 	1581537892	9.56	17.71
12/02/2020 20:04:53	120220	12022020	200453	238.16	12.365120	-56.820322	238.14	0.040	0.240	0.800	238.08	-1.10	1.20	 	 	 	 	 	 	 	 	 	 	 	 	 	 	 	 	 	 	1581537893	9.84	18.22
12/02/2020 20:04:54	120220	12022020	200454	237.67	12.365095	-56.820363	237.62	0.300	-0.010	0.760	237.57	-1.40	1.20	 	 	 	 	 	 	 	 	 	 	 	 	 	 	 	 	 	 	1581537894	10.02	18.56
12/02/2020 20:04:55	120220	12022020	200455	237.20	12.365072	-56.820403	237.19	0.330	-0.210	0.720	237.12	-1.60	1.10	 	 	 	 	 	 	 	 	 	 	 	 	 	 	 	 	 	 	1581537895	9.92	18.37
12/02/2020 20:04:56	120220	12022020	200456	236.87	12.365052	-56.820443	236.87	0.130	-0.220	0.710	236.83	-1.60	1.10	 	 	 	 	 	 	 	 	 	 	 	 	 	 	 	 	 	 	1581537896	9.69	17.95
12/02/2020 20:04:57	120220	12022020	200457	236.67	12.365032	-56.820483	236.71	-0.090	-0.080	0.770	236.65	-1.50	1.20	 	 	 	 	 	 	 	 	 	 	 	 	 	 	 	 	 	 	1581537897	9.47	17.54
12/02/2020 20:04:58	120220	12022020	200458	236.68	12.365013	-56.820523	236.77	-0.150	0.060	0.770	236.71	-1.30	1.20	 	 	 	 	 	 	 	 	 	 	 	 	 	 	 	 	 	 	1581537898	9.36	17.33
12/02/2020 20:04:59	120220	12022020	200459	236.94	12.364995	-56.820563	237.06	-0.060	-0.030	0.600	237.02	-1.40	1.00	 	 	 	 	 	 	 	 	 	 	 	 	 	 	 	 	 	 	1581537899	9.36	17.33
12/02/2020 20:05:00	120220	12022020	200500	237.31	12.364975	-56.820603	237.43	0.100	-0.450	0.490	237.38	-1.80	0.90	 	 	 	 	 	 	 	 	 	 	 	 	 	 	 	 	 	 	1581537900	9.56	17.71
12/02/2020 20:05:01	120220	12022020	200501	237.60	12.364953	-56.820645	237.72	0.220	-0.940	0.590	237.64	-2.30	1.00	 	 	 	 	 	 	 	 	 	 	 	 	 	 	 	 	 	 	1581537901	9.77	18.09
12/02/2020 20:05:02	120220	12022020	200502	237.77	12.364933	-56.820687	237.87	0.250	-1.190	0.800	237.78	-2.50	1.20	1014.60	26.50	26.60	20.30	20.40	362.0	68.0	68.0	390.0	29.0	224.00	5.70	81.00	9.90	24842	8828.0	27.5	27.5	1581537902	9.71	17.98
12/02/2020 20:05:03	120220	12022020	200503	237.83	12.364913	-56.820727	237.91	0.210	-1.040	1.000	237.83	-2.40	1.40	 	 	 	 	 	 	 	 	 	 	 	 	 	 	 	 	 	 	1581537903	9.49	17.58
12/02/2020 20:05:04	120220	12022020	200504	237.83	12.364893	-56.820765	237.91	0.110	-0.620	1.130	237.81	-2.00	1.50	 	 	 	 	 	 	 	 	 	 	 	 	 	 	 	 	 	 	1581537904	9.31	17.24
12/02/2020 20:05:05	120220	12022020	200505	237.72	12.364872	-56.820803	237.78	-0.010	-0.220	1.210	237.69	-1.60	1.60	 	 	 	 	 	 	 	 	 	 	 	 	 	 	 	 	 	 	1581537905	9.35	17.32
12/02/2020 20:05:06	120220	12022020	200506	237.55	12.364850	-56.820843	237.60	-0.090	-0.120	1.230	237.52	-1.50	1.70	 	 	 	 	 	 	 	 	 	 	 	 	 	 	 	 	 	 	1581537906	9.69	17.95
12/02/2020 20:05:07	120220	12022020	200507	237.44	12.364828	-56.820887	237.51	-0.120	-0.290	1.100	237.44	-1.70	1.50	 	 	 	 	 	 	 	 	 	 	 	 	 	 	 	 	 	 	1581537907	10.13	18.76
12/02/2020 20:05:08	120220	12022020	200508	237.50	12.364805	-56.820928	237.58	-0.180	-0.390	0.870	237.53	-1.80	1.30	 	 	 	 	 	 	 	 	 	 	 	 	 	 	 	 	 	 	1581537908	10.27	19.02
12/02/2020 20:05:09	120220	12022020	200509	237.61	12.364782	-56.820970	237.69	-0.350	-0.070	0.720	237.62	-1.50	1.20	 	 	 	 	 	 	 	 	 	 	 	 	 	 	 	 	 	 	1581537909	9.92	18.37
12/02/2020 20:05:10	120220	12022020	200510	237.60	12.364762	-56.821008	237.65	-0.490	0.550	0.830	237.58	-0.90	1.30	 	 	 	 	 	 	 	 	 	 	 	 	 	 	 	 	 	 	1581537910	9.36	17.33
12/02/2020 20:05:11	120220	12022020	200511	237.39	12.364743	-56.821048	237.40	-0.380	0.870	1.160	237.33	-0.50	1.60	 	 	 	 	 	 	 	 	 	 	 	 	 	 	 	 	 	 	1581537911	9.22	17.08
12/02/2020 20:05:12	120220	12022020	200512	237.04	12.364723	-56.821088	237.02	-0.010	0.590	1.430	236.96	-0.80	1.90	 	 	 	 	 	 	 	 	 	 	 	 	 	 	 	 	 	 	1581537912	9.60	17.78
12/02/2020 20:05:13	120220	12022020	200513	236.69	12.364702	-56.821130	236.68	0.360	-0.050	1.440	236.64	-1.40	1.90	 	 	 	 	 	 	 	 	 	 	 	 	 	 	 	 	 	 	1581537913	9.89	18.32
12/02/2020 20:05:14	120220	12022020	200514	236.50	12.364682	-56.821172	236.52	0.520	-0.650	1.260	236.49	-2.00	1.70	 	 	 	 	 	 	 	 	 	 	 	 	 	 	 	 	 	 	1581537914	9.78	18.11
12/02/2020 20:05:15	120220	12022020	200515	236.54	12.364660	-56.821210	236.61	0.450	-1.020	1.050	236.57	-2.40	1.50	 	 	 	 	 	 	 	 	 	 	 	 	 	 	 	 	 	 	1581537915	9.49	17.58
12/02/2020 20:05:16	120220	12022020	200516	236.72	12.364640	-56.821248	236.80	0.300	-1.120	0.840	236.76	-2.50	1.30	 	 	 	 	 	 	 	 	 	 	 	 	 	 	 	 	 	 	1581537916	9.26	17.15
12/02/2020 20:05:17	120220	12022020	200517	236.92	12.364618	-56.821287	237.01	0.190	-1.070	0.590	236.96	-2.40	1.00	 	 	 	 	 	 	 	 	 	 	 	 	 	 	 	 	 	 	1581537917	9.22	17.08
12/02/2020 20:05:18	120220	12022020	200518	237.10	12.364597	-56.821325	237.16	0.130	-1.000	0.370	237.12	-2.40	0.80	 	 	 	 	 	 	 	 	 	 	 	 	 	 	 	 	 	 	1581537918	9.40	17.41
12/02/2020 20:05:19	120220	12022020	200519	237.19	12.364573	-56.821365	237.28	0.100	-0.860	0.350	237.21	-2.30	0.80	 	 	 	 	 	 	 	 	 	 	 	 	 	 	 	 	 	 	1581537919	9.66	17.89
12/02/2020 20:05:20	120220	12022020	200520	237.22	12.364550	-56.821405	237.27	0.020	-0.590	0.670	237.21	-2.00	1.10	 	 	 	 	 	 	 	 	 	 	 	 	 	 	 	 	 	 	1581537920	9.77	18.09
12/02/2020 20:05:21	120220	12022020	200521	237.09	12.364530	-56.821447	237.06	-0.130	-0.320	1.210	237.04	-1.70	1.60	 	 	 	 	 	 	 	 	 	 	 	 	 	 	 	 	 	 	1581537921	9.89	18.32
12/02/2020 20:05:22	120220	12022020	200522	236.81	12.364510	-56.821490	236.83	-0.310	-0.080	1.620	236.78	-1.50	2.00	 	 	 	 	 	 	 	 	 	 	 	 	 	 	 	 	 	 	1581537922	10.08	18.67
12/02/2020 20:05:23	120220	12022020	200523	236.67	12.364490	-56.821532	236.72	-0.440	0.250	1.700	236.66	-1.20	2.10	 	 	 	 	 	 	 	 	 	 	 	 	 	 	 	 	 	 	1581537923	10.07	18.65
12/02/2020 20:05:24	120220	12022020	200524	236.67	12.364468	-56.821573	236.72	-0.490	0.770	1.420	236.69	-0.60	1.90	 	 	 	 	 	 	 	 	 	 	 	 	 	 	 	 	 	 	1581537924	9.71	17.98
12/02/2020 20:05:25	120220	12022020	200525	236.76	12.364445	-56.821610	236.82	-0.490	1.160	0.930	236.78	-0.20	1.40	 	 	 	 	 	 	 	 	 	 	 	 	 	 	 	 	 	 	1581537925	9.27	17.17
12/02/2020 20:05:26	120220	12022020	200526	236.87	12.364423	-56.821648	236.92	-0.370	0.890	0.560	236.88	-0.50	1.00	 	 	 	 	 	 	 	 	 	 	 	 	 	 	 	 	 	 	1581537926	9.34	17.30
12/02/2020 20:05:27	120220	12022020	200527	236.87	12.364400	-56.821688	236.88	-0.020	0.040	0.550	236.84	-1.30	1.00	 	 	 	 	 	 	 	 	 	 	 	 	 	 	 	 	 	 	1581537927	9.78	18.11
12/02/2020 20:05:28	120220	12022020	200528	236.67	12.364378	-56.821728	236.67	0.470	-0.760	0.820	236.61	-2.10	1.20	 	 	 	 	 	 	 	 	 	 	 	 	 	 	 	 	 	 	1581537928	9.89	18.32
12/02/2020 20:05:29	120220	12022020	200529	236.37	12.364358	-56.821768	236.36	0.840	-1.140	1.160	236.31	-2.50	1.60	 	 	 	 	 	 	 	 	 	 	 	 	 	 	 	 	 	 	1581537929	9.49	17.58
12/02/2020 20:05:30	120220	12022020	200530	236.10	12.364338	-56.821808	236.15	0.860	-1.300	1.390	236.07	-2.70	1.80	 	 	 	 	 	 	 	 	 	 	 	 	 	 	 	 	 	 	1581537930	9.21	17.06
12/02/2020 20:05:31	120220	12022020	200531	236.03	12.364318	-56.821847	236.10	0.530	-1.380	1.430	236.04	-2.80	1.90	 	 	 	 	 	 	 	 	 	 	 	 	 	 	 	 	 	 	1581537931	9.34	17.30
12/02/2020 20:05:32	120220	12022020	200532	236.14	12.364297	-56.821887	236.24	0.060	-1.310	1.280	236.18	-2.70	1.70	 	 	 	 	 	 	 	 	 	 	 	 	 	 	 	 	 	 	1581537932	9.59	17.76
12/02/2020 20:05:33	120220	12022020	200533	236.44	12.364275	-56.821927	236.57	-0.350	-0.920	0.930	236.52	-2.30	1.40	 	 	 	 	 	 	 	 	 	 	 	 	 	 	 	 	 	 	1581537933	9.67	17.91
12/02/2020 20:05:34	120220	12022020	200534	236.90	12.364253	-56.821965	237.04	-0.620	-0.190	0.490	236.99	-1.60	0.90	 	 	 	 	 	 	 	 	 	 	 	 	 	 	 	 	 	 	1581537934	9.52	17.63
12/02/2020 20:05:35	120220	12022020	200535	237.42	12.364230	-56.822003	237.55	-0.750	0.520	0.080	237.51	-0.90	0.50	 	 	 	 	 	 	 	 	 	 	 	 	 	 	 	 	 	 	1581537935	9.38	17.37
12/02/2020 20:05:36	120220	12022020	200536	237.85	12.364208	-56.822043	237.95	-0.740	0.720	0.020	237.91	-0.70	0.40	 	 	 	 	 	 	 	 	 	 	 	 	 	 	 	 	 	 	1581537936	9.62	17.82
12/02/2020 20:05:37	120220	12022020	200537	238.00	12.364185	-56.822085	238.04	-0.490	0.420	0.340	237.98	-0.90	0.70	 	 	 	 	 	 	 	 	 	 	 	 	 	 	 	 	 	 	1581537937	10.04	18.59
12/02/2020 20:05:38	120220	12022020	200538	237.76	12.364163	-56.822127	237.76	-0.070	-0.050	0.770	237.66	-1.40	1.20	 	 	 	 	 	 	 	 	 	 	 	 	 	 	 	 	 	 	1581537938	10.20	18.89
12/02/2020 20:05:39	120220	12022020	200539	237.22	12.364140	-56.822168	237.18	0.310	-0.310	1.200	237.09	-1.70	1.60	 	 	 	 	 	 	 	 	 	 	 	 	 	 	 	 	 	 	1581537939	9.96	18.45
12/02/2020 20:05:40	120220	12022020	200540	236.64	12.364118	-56.822208	236.62	0.440	-0.350	1.440	236.54	-1.70	1.90	 	 	 	 	 	 	 	 	 	 	 	 	 	 	 	 	 	 	1581537940	9.60	17.78
12/02/2020 20:05:41	120220	12022020	200541	236.24	12.364098	-56.822247	236.25	0.310	-0.270	1.480	236.19	-1.60	1.90	 	 	 	 	 	 	 	 	 	 	 	 	 	 	 	 	 	 	1581537941	9.39	17.39
12/02/2020 20:05:42	120220	12022020	200542	236.04	12.364078	-56.822287	236.06	0.090	-0.190	1.540	236.01	-1.60	2.00	 	 	 	 	 	 	 	 	 	 	 	 	 	 	 	 	 	 	1581537942	9.33	17.28
12/02/2020 20:05:43	120220	12022020	200543	235.92	12.364060	-56.822327	235.91	-0.050	-0.180	1.640	235.89	-1.60	2.10	 	 	 	 	 	 	 	 	 	 	 	 	 	 	 	 	 	 	1581537943	9.47	17.54
12/02/2020 20:05:44	120220	12022020	200544	235.88	12.364042	-56.822367	235.96	-0.070	-0.070	1.530	235.92	-1.40	2.00	 	 	 	 	 	 	 	 	 	 	 	 	 	 	 	 	 	 	1581537944	9.44	17.48
12/02/2020 20:05:45	120220	12022020	200545	236.22	12.364022	-56.822405	236.37	-0.030	0.090	1.050	236.33	-1.30	1.50	 	 	 	 	 	 	 	 	 	 	 	 	 	 	 	 	 	 	1581537945	9.15	16.95
12/02/2020 20:05:46	120220	12022020	200546	236.85	12.364000	-56.822443	237.02	0.120	-0.060	0.410	236.98	-1.40	0.90	 	 	 	 	 	 	 	 	 	 	 	 	 	 	 	 	 	 	1581537946	9.14	16.93
12/02/2020 20:05:47	120220	12022020	200547	237.53	12.363975	-56.822480	237.71	0.340	-0.570	-0.070	237.64	-1.90	0.40	 	 	 	 	 	 	 	 	 	 	 	 	 	 	 	 	 	 	1581537947	9.47	17.54
12/02/2020 20:05:48	120220	12022020	200548	238.02	12.363952	-56.822520	238.16	0.510	-1.250	-0.190	238.09	-2.60	0.20	 	 	 	 	 	 	 	 	 	 	 	 	 	 	 	 	 	 	1581537948	9.82	18.19
12/02/2020 20:05:49	120220	12022020	200549	238.30	12.363927	-56.822560	238.41	0.460	-1.740	-0.020	238.33	-3.10	0.40	 	 	 	 	 	 	 	 	 	 	 	 	 	 	 	 	 	 	1581537949	9.97	18.46
12/02/2020 20:05:50	120220	12022020	200550	238.37	12.363905	-56.822600	238.40	0.130	-1.680	0.450	238.35	-3.10	0.80	 	 	 	 	 	 	 	 	 	 	 	 	 	 	 	 	 	 	1581537950	9.84	18.22
12/02/2020 20:05:51	120220	12022020	200551	238.04	12.363885	-56.822642	237.99	-0.370	-1.050	1.290	237.91	-2.50	1.70	 	 	 	 	 	 	 	 	 	 	 	 	 	 	 	 	 	 	1581537951	9.61	17.80
12/02/2020 20:05:52	120220	12022020	200552	237.25	12.363867	-56.822683	237.14	-0.760	-0.120	2.260	237.05	-1.50	2.70	 	 	 	 	 	 	 	 	 	 	 	 	 	 	 	 	 	 	1581537952	9.56	17.71
12/02/2020 20:05:53	120220	12022020	200553	236.31	12.363850	-56.822725	236.23	-0.820	0.720	2.800	236.15	-0.70	3.20	 	 	 	 	 	 	 	 	 	 	 	 	 	 	 	 	 	 	1581537953	9.67	17.91
12/02/2020 20:05:54	120220	12022020	200554	235.69	12.363832	-56.822768	235.67	-0.540	1.190	2.690	235.62	-0.20	3.10	 	 	 	 	 	 	 	 	 	 	 	 	 	 	 	 	 	 	1581537954	9.81	18.17
12/02/2020 20:05:55	120220	12022020	200555	235.54	12.363810	-56.822810	235.61	-0.100	1.130	2.120	235.57	-0.20	2.60	 	 	 	 	 	 	 	 	 	 	 	 	 	 	 	 	 	 	1581537955	9.93	18.39
12/02/2020 20:05:56	120220	12022020	200556	235.84	12.363787	-56.822850	235.98	0.260	0.760	1.280	235.95	-0.60	1.70	 	 	 	 	 	 	 	 	 	 	 	 	 	 	 	 	 	 	1581537956	9.86	18.26
12/02/2020 20:05:57	120220	12022020	200557	236.52	12.363763	-56.822888	236.70	0.400	0.290	0.520	236.69	-1.10	1.00	 	 	 	 	 	 	 	 	 	 	 	 	 	 	 	 	 	 	1581537957	9.56	17.71
12/02/2020 20:05:58	120220	12022020	200558	237.37	12.363740	-56.822925	237.55	0.410	-0.270	0.040	237.53	-1.60	0.50	 	 	 	 	 	 	 	 	 	 	 	 	 	 	 	 	 	 	1581537958	9.31	17.24
12/02/2020 20:05:59	120220	12022020	200559	238.12	12.363718	-56.822962	238.25	0.410	-0.830	-0.150	238.24	-2.20	0.30	 	 	 	 	 	 	 	 	 	 	 	 	 	 	 	 	 	 	1581537959	9.27	17.17
12/02/2020 20:06:00	120220	12022020	200600	238.71	12.363697	-56.823000	238.83	0.410	-1.230	-0.160	238.79	-2.60	0.30	 	 	 	 	 	 	 	 	 	 	 	 	 	 	 	 	 	 	1581537960	9.22	17.08
12/02/2020 20:06:01	120220	12022020	200601	239.08	12.363677	-56.823038	239.14	0.320	-1.490	0.170	239.10	-2.90	0.60	 	 	 	 	 	 	 	 	 	 	 	 	 	 	 	 	 	 	1581537961	9.19	17.02
12/02/2020 20:06:02	120220	12022020	200602	238.97	12.363657	-56.823078	238.94	0.150	-1.720	0.930	238.88	-3.10	1.30	1014.60	26.50	26.60	20.20	20.30	355.0	68.0	68.0	391.0	29.0	224.00	6.70	82.00	10.90	24491	8675.0	27.5	27.5	1581537962	9.46	17.52
12/02/2020 20:06:03	120220	12022020	200603	238.30	12.363638	-56.823122	238.16	-0.020	-1.720	1.970	238.10	-3.10	2.30	 	 	 	 	 	 	 	 	 	 	 	 	 	 	 	 	 	 	1581537963	9.84	18.22
12/02/2020 20:06:04	120220	12022020	200604	237.23	12.363622	-56.823165	237.08	-0.140	-1.180	2.880	237.01	-2.60	3.30	 	 	 	 	 	 	 	 	 	 	 	 	 	 	 	 	 	 	1581537964	9.90	18.33
12/02/2020 20:06:05	120220	12022020	200605	236.27	12.363603	-56.823207	236.20	-0.210	-0.210	3.220	236.13	-1.60	3.60	 	 	 	 	 	 	 	 	 	 	 	 	 	 	 	 	 	 	1581537965	9.66	17.89
12/02/2020 20:06:06	120220	12022020	200606	235.86	12.363585	-56.823247	235.92	-0.220	0.700	2.830	235.86	-0.70	3.30	 	 	 	 	 	 	 	 	 	 	 	 	 	 	 	 	 	 	1581537966	9.51	17.61
12/02/2020 20:06:07	120220	12022020	200607	236.00	12.363562	-56.823287	236.24	-0.180	1.150	1.950	236.10	-0.20	2.40	 	 	 	 	 	 	 	 	 	 	 	 	 	 	 	 	 	 	1581537967	9.64	17.85
12/02/2020 20:06:08	120220	12022020	200608	236.72	12.363538	-56.823327	236.91	-0.100	1.030	1.130	236.87	-0.40	1.60	 	 	 	 	 	 	 	 	 	 	 	 	 	 	 	 	 	 	1581537968	9.91	18.35
12/02/2020 20:06:09	120220	12022020	200609	237.27	12.363513	-56.823367	237.54	-0.060	0.550	0.810	237.38	-0.80	1.20	 	 	 	 	 	 	 	 	 	 	 	 	 	 	 	 	 	 	1581537969	10.04	18.59
12/02/2020 20:06:10	120220	12022020	200610	237.82	12.363492	-56.823408	237.94	-0.110	0.010	0.990	237.88	-1.40	1.40	 	 	 	 	 	 	 	 	 	 	 	 	 	 	 	 	 	 	1581537970	9.93	18.39
12/02/2020 20:06:11	120220	12022020	200611	238.00	12.363473	-56.823450	238.13	-0.180	-0.330	1.340	238.04	-1.70	1.80	 	 	 	 	 	 	 	 	 	 	 	 	 	 	 	 	 	 	1581537971	9.61	17.80
12/02/2020 20:06:12	120220	12022020	200612	238.11	12.363455	-56.823490	238.14	-0.140	-0.460	1.620	238.09	-1.80	2.00	 	 	 	 	 	 	 	 	 	 	 	 	 	 	 	 	 	 	1581537972	9.18	17.00
12/02/2020 20:06:13	120220	12022020	200613	237.91	12.363437	-56.823528	237.90	0.070	-0.640	1.670	237.84	-2.00	2.10	 	 	 	 	 	 	 	 	 	 	 	 	 	 	 	 	 	 	1581537973	9.10	16.85
12/02/2020 20:06:14	120220	12022020	200614	237.52	12.363415	-56.823565	237.49	0.370	-0.860	1.330	237.43	-2.20	1.80	 	 	 	 	 	 	 	 	 	 	 	 	 	 	 	 	 	 	1581537974	9.27	17.17
12/02/2020 20:06:15	120220	12022020	200615	237.11	12.363392	-56.823603	237.11	0.570	-1.010	0.850	237.04	-2.40	1.30	 	 	 	 	 	 	 	 	 	 	 	 	 	 	 	 	 	 	1581537975	9.39	17.39
12/02/2020 20:06:16	120220	12022020	200616	236.84	12.363367	-56.823640	236.85	0.530	-1.000	0.520	236.81	-2.40	1.00	 	 	 	 	 	 	 	 	 	 	 	 	 	 	 	 	 	 	1581537976	9.40	17.41
12/02/2020 20:06:17	120220	12022020	200617	236.78	12.363345	-56.823678	236.85	0.260	-0.930	0.490	236.81	-2.30	0.90	 	 	 	 	 	 	 	 	 	 	 	 	 	 	 	 	 	 	1581537977	9.48	17.56
12/02/2020 20:06:18	120220	12022020	200618	236.94	12.363325	-56.823720	237.04	-0.070	-0.780	0.710	236.99	-2.20	1.10	 	 	 	 	 	 	 	 	 	 	 	 	 	 	 	 	 	 	1581537978	9.67	17.91
12/02/2020 20:06:19	120220	12022020	200619	237.19	12.363307	-56.823762	237.30	-0.290	-0.420	1.040	237.24	-1.80	1.40	 	 	 	 	 	 	 	 	 	 	 	 	 	 	 	 	 	 	1581537979	9.73	18.02
12/02/2020 20:06:20	120220	12022020	200620	237.36	12.363288	-56.823803	237.43	-0.360	0.110	1.370	237.37	-1.30	1.80	 	 	 	 	 	 	 	 	 	 	 	 	 	 	 	 	 	 	1581537980	9.61	17.80
12/02/2020 20:06:21	120220	12022020	200621	237.37	12.363270	-56.823845	237.41	-0.350	0.560	1.610	237.36	-0.80	2.00	 	 	 	 	 	 	 	 	 	 	 	 	 	 	 	 	 	 	1581537981	9.56	17.71
12/02/2020 20:06:22	120220	12022020	200622	237.28	12.363250	-56.823885	237.30	-0.310	0.790	1.570	237.27	-0.60	2.00	 	 	 	 	 	 	 	 	 	 	 	 	 	 	 	 	 	 	1581537982	9.58	17.74
12/02/2020 20:06:23	120220	12022020	200623	237.20	12.363227	-56.823923	237.21	-0.220	0.820	1.250	237.17	-0.60	1.70	 	 	 	 	 	 	 	 	 	 	 	 	 	 	 	 	 	 	1581537983	9.52	17.63
12/02/2020 20:06:24	120220	12022020	200624	237.02	12.363203	-56.823962	237.01	-0.020	0.470	0.970	236.97	-0.90	1.40	 	 	 	 	 	 	 	 	 	 	 	 	 	 	 	 	 	 	1581537984	9.50	17.59
12/02/2020 20:06:25	120220	12022020	200625	236.67	12.363180	-56.824002	236.63	0.250	-0.300	0.910	236.60	-1.60	1.30	 	 	 	 	 	 	 	 	 	 	 	 	 	 	 	 	 	 	1581537985	9.77	18.09
12/02/2020 20:06:26	120220	12022020	200626	236.21	12.363158	-56.824042	236.17	0.400	-1.120	1.000	236.12	-2.50	1.40	 	 	 	 	 	 	 	 	 	 	 	 	 	 	 	 	 	 	1581537986	9.95	18.43
12/02/2020 20:06:27	120220	12022020	200627	235.85	12.363137	-56.824083	235.84	0.330	-1.490	1.090	235.81	-2.90	1.50	 	 	 	 	 	 	 	 	 	 	 	 	 	 	 	 	 	 	1581537987	9.72	18.00
12/02/2020 20:06:28	120220	12022020	200628	235.86	12.363117	-56.824122	235.92	0.060	-1.350	1.080	235.92	-2.70	1.50	 	 	 	 	 	 	 	 	 	 	 	 	 	 	 	 	 	 	1581537988	9.21	17.06
12/02/2020 20:06:29	120220	12022020	200629	236.19	12.363097	-56.824160	236.27	-0.170	-1.060	1.070	236.26	-2.50	1.50	 	 	 	 	 	 	 	 	 	 	 	 	 	 	 	 	 	 	1581537989	9.07	16.80
12/02/2020 20:06:30	120220	12022020	200630	236.44	12.363077	-56.824200	236.50	-0.210	-0.900	1.230	236.46	-2.30	1.70	 	 	 	 	 	 	 	 	 	 	 	 	 	 	 	 	 	 	1581537990	9.42	17.45
12/02/2020 20:06:31	120220	12022020	200631	236.50	12.363057	-56.824240	236.54	-0.130	-0.680	1.420	236.50	-2.10	1.80	 	 	 	 	 	 	 	 	 	 	 	 	 	 	 	 	 	 	1581537991	9.85	18.24
12/02/2020 20:06:32	120220	12022020	200632	236.54	12.363035	-56.824282	236.59	-0.130	-0.030	1.420	236.55	-1.50	1.90	 	 	 	 	 	 	 	 	 	 	 	 	 	 	 	 	 	 	1581537992	9.70	17.96
12/02/2020 20:06:33	120220	12022020	200633	236.64	12.363012	-56.824318	236.71	-0.250	0.890	1.230	236.66	-0.60	1.70	 	 	 	 	 	 	 	 	 	 	 	 	 	 	 	 	 	 	1581537993	9.23	17.09
12/02/2020 20:06:34	120220	12022020	200634	236.72	12.362990	-56.824355	236.75	-0.300	1.460	1.010	236.72	0.10	1.50	 	 	 	 	 	 	 	 	 	 	 	 	 	 	 	 	 	 	1581537994	9.09	16.83
12/02/2020 20:06:35	120220	12022020	200635	236.68	12.362967	-56.824393	236.67	-0.110	1.280	0.860	236.66	-0.10	1.30	 	 	 	 	 	 	 	 	 	 	 	 	 	 	 	 	 	 	1581537995	9.42	17.45
12/02/2020 20:06:36	120220	12022020	200636	236.53	12.362943	-56.824433	236.54	0.280	0.300	0.780	236.50	-1.00	1.20	 	 	 	 	 	 	 	 	 	 	 	 	 	 	 	 	 	 	1581537996	9.97	18.46
12/02/2020 20:06:37	120220	12022020	200637	236.38	12.362920	-56.824475	236.38	0.560	-0.910	0.780	236.36	-2.20	1.20	 	 	 	 	 	 	 	 	 	 	 	 	 	 	 	 	 	 	1581537997	10.32	19.11
12/02/2020 20:06:38	120220	12022020	200638	236.24	12.362897	-56.824517	236.25	0.470	-1.570	0.940	236.22	-2.90	1.40	 	 	 	 	 	 	 	 	 	 	 	 	 	 	 	 	 	 	1581537998	9.99	18.50
12/02/2020 20:06:39	120220	12022020	200639	236.14	12.362877	-56.824555	236.16	0.090	-1.480	1.280	236.13	-2.90	1.70	 	 	 	 	 	 	 	 	 	 	 	 	 	 	 	 	 	 	1581537999	9.23	17.09
12/02/2020 20:06:40	120220	12022020	200640	236.08	12.362858	-56.824593	236.09	-0.200	-1.130	1.600	236.07	-2.50	2.00	 	 	 	 	 	 	 	 	 	 	 	 	 	 	 	 	 	 	1581538000	8.90	16.48
12/02/2020 20:06:41	120220	12022020	200641	236.00	12.362840	-56.824633	236.00	-0.200	-0.930	1.770	235.98	-2.30	2.20	 	 	 	 	 	 	 	 	 	 	 	 	 	 	 	 	 	 	1581538001	9.20	17.04
12/02/2020 20:06:42	120220	12022020	200642	235.88	12.362820	-56.824673	235.88	-0.030	-0.830	1.760	235.86	-2.20	2.20	 	 	 	 	 	 	 	 	 	 	 	 	 	 	 	 	 	 	1581538002	9.64	17.85
12/02/2020 20:06:43	120220	12022020	200643	235.80	12.362798	-56.824713	235.83	0.060	-0.570	1.590	235.80	-2.00	2.00	 	 	 	 	 	 	 	 	 	 	 	 	 	 	 	 	 	 	1581538003	9.76	18.08
12/02/2020 20:06:44	120220	12022020	200644	235.93	12.362777	-56.824753	236.03	-0.020	-0.140	1.190	235.99	-1.50	1.60	 	 	 	 	 	 	 	 	 	 	 	 	 	 	 	 	 	 	1581538004	9.66	17.89
12/02/2020 20:06:45	120220	12022020	200645	236.34	12.362753	-56.824792	236.47	-0.190	0.410	0.700	236.44	-1.00	1.20	 	 	 	 	 	 	 	 	 	 	 	 	 	 	 	 	 	 	1581538005	9.56	17.71
12/02/2020 20:06:46	120220	12022020	200646	236.84	12.362728	-56.824828	236.97	-0.310	0.940	0.390	236.94	-0.50	0.80	 	 	 	 	 	 	 	 	 	 	 	 	 	 	 	 	 	 	1581538006	9.42	17.45
12/02/2020 20:06:47	120220	12022020	200647	237.20	12.362705	-56.824867	237.37	-0.320	1.150	0.450	237.26	-0.20	0.90	 	 	 	 	 	 	 	 	 	 	 	 	 	 	 	 	 	 	1581538007	9.37	17.35
12/02/2020 20:06:48	120220	12022020	200648	237.42	12.362683	-56.824905	237.49	-0.250	0.780	0.910	237.41	-0.60	1.30	 	 	 	 	 	 	 	 	 	 	 	 	 	 	 	 	 	 	1581538008	9.57	17.72
12/02/2020 20:06:49	120220	12022020	200649	237.25	12.362662	-56.824947	237.24	-0.080	-0.050	1.480	237.18	-1.40	1.90	 	 	 	 	 	 	 	 	 	 	 	 	 	 	 	 	 	 	1581538009	9.85	18.24
12/02/2020 20:06:50	120220	12022020	200650	236.82	12.362642	-56.824988	236.79	0.200	-0.920	1.830	236.72	-2.30	2.30	 	 	 	 	 	 	 	 	 	 	 	 	 	 	 	 	 	 	1581538010	9.84	18.22
12/02/2020 20:06:51	120220	12022020	200651	236.26	12.362620	-56.825028	236.22	0.520	-1.500	1.800	236.15	-2.90	2.20	 	 	 	 	 	 	 	 	 	 	 	 	 	 	 	 	 	 	1581538011	9.58	17.74
12/02/2020 20:06:52	120220	12022020	200652	235.77	12.362598	-56.825067	235.78	0.660	-1.610	1.470	235.71	-3.00	1.90	 	 	 	 	 	 	 	 	 	 	 	 	 	 	 	 	 	 	1581538012	9.29	17.21
12/02/2020 20:06:53	120220	12022020	200653	235.63	12.362577	-56.825103	235.70	0.470	-1.240	0.990	235.65	-2.60	1.40	 	 	 	 	 	 	 	 	 	 	 	 	 	 	 	 	 	 	1581538013	9.00	16.67
12/02/2020 20:06:54	120220	12022020	200654	235.83	12.362555	-56.825138	235.94	0.050	-0.700	0.530	235.89	-2.10	1.00	 	 	 	 	 	 	 	 	 	 	 	 	 	 	 	 	 	 	1581538014	8.93	16.54
12/02/2020 20:06:55	120220	12022020	200655	236.19	12.362533	-56.825177	236.32	-0.320	-0.300	0.370	236.27	-1.70	0.80	 	 	 	 	 	 	 	 	 	 	 	 	 	 	 	 	 	 	1581538015	9.27	17.17
12/02/2020 20:06:56	120220	12022020	200656	236.58	12.362512	-56.825217	236.72	-0.460	0.030	0.500	236.65	-1.40	0.90	 	 	 	 	 	 	 	 	 	 	 	 	 	 	 	 	 	 	1581538016	9.60	17.78
12/02/2020 20:06:57	120220	12022020	200657	236.86	12.362492	-56.825257	236.98	-0.410	0.340	0.800	236.89	-1.10	1.20	 	 	 	 	 	 	 	 	 	 	 	 	 	 	 	 	 	 	1581538017	9.65	17.87
12/02/2020 20:06:58	120220	12022020	200658	236.95	12.362470	-56.825298	237.04	-0.340	0.510	1.110	236.95	-0.90	1.50	 	 	 	 	 	 	 	 	 	 	 	 	 	 	 	 	 	 	1581538018	9.66	17.89
12/02/2020 20:06:59	120220	12022020	200659	236.93	12.362450	-56.825338	236.98	-0.300	0.510	1.150	236.92	-0.90	1.60	 	 	 	 	 	 	 	 	 	 	 	 	 	 	 	 	 	 	1581538019	9.64	17.85
12/02/2020 20:07:00	120220	12022020	200700	236.83	12.362427	-56.825377	236.89	-0.190	0.390	0.860	236.82	-1.00	1.30	 	 	 	 	 	 	 	 	 	 	 	 	 	 	 	 	 	 	1581538020	9.54	17.67
12/02/2020 20:07:01	120220	12022020	200701	236.82	12.362403	-56.825415	236.92	0.030	0.160	0.290	236.83	-1.20	0.80	 	 	 	 	 	 	 	 	 	 	 	 	 	 	 	 	 	 	1581538021	9.39	17.39
12/02/2020 20:07:02	120220	12022020	200702	237.09	12.362380	-56.825450	237.23	0.250	-0.200	-0.350	237.16	-1.60	0.10	1014.60	26.50	26.60	20.30	20.40	342.0	68.0	68.0	390.0	29.0	224.00	5.70	80.00	9.90	23853	7835.0	27.5	27.5	1581538022	9.28	17.19
12/02/2020 20:07:03	120220	12022020	200703	237.46	12.362357	-56.825488	237.59	0.400	-0.710	-0.600	237.51	-2.10	-0.20	 	 	 	 	 	 	 	 	 	 	 	 	 	 	 	 	 	 	1581538023	9.32	17.26
12/02/2020 20:07:04	120220	12022020	200704	237.66	12.362333	-56.825527	237.76	0.460	-1.220	-0.290	237.67	-2.60	0.10	 	 	 	 	 	 	 	 	 	 	 	 	 	 	 	 	 	 	1581538024	9.44	17.48
12/02/2020 20:07:05	120220	12022020	200705	237.61	12.362313	-56.825567	237.69	0.390	-1.410	0.360	237.58	-2.80	0.80	 	 	 	 	 	 	 	 	 	 	 	 	 	 	 	 	 	 	1581538025	9.48	17.56
12/02/2020 20:07:06	120220	12022020	200706	237.42	12.362295	-56.825605	237.47	0.140	-1.090	1.130	237.37	-2.50	1.50	 	 	 	 	 	 	 	 	 	 	 	 	 	 	 	 	 	 	1581538026	9.26	17.15
12/02/2020 20:07:07	120220	12022020	200707	237.14	12.362278	-56.825645	237.20	-0.140	-0.560	1.830	237.08	-2.00	2.20	 	 	 	 	 	 	 	 	 	 	 	 	 	 	 	 	 	 	1581538027	9.17	16.98
12/02/2020 20:07:08	120220	12022020	200708	236.83	12.362262	-56.825687	236.89	-0.280	-0.110	2.350	236.77	-1.50	2.80	 	 	 	 	 	 	 	 	 	 	 	 	 	 	 	 	 	 	1581538028	9.37	17.35
12/02/2020 20:07:09	120220	12022020	200709	236.61	12.362243	-56.825728	236.68	-0.240	0.160	2.420	236.58	-1.20	2.90	 	 	 	 	 	 	 	 	 	 	 	 	 	 	 	 	 	 	1581538029	9.63	17.83
12/02/2020 20:07:10	120220	12022020	200710	236.58	12.362222	-56.825768	236.67	-0.120	0.270	1.950	236.59	-1.10	2.40	 	 	 	 	 	 	 	 	 	 	 	 	 	 	 	 	 	 	1581538030	9.73	18.02
12/02/2020 20:07:11	120220	12022020	200711	236.70	12.362197	-56.825807	236.80	-0.080	0.250	1.120	236.73	-1.10	1.60	 	 	 	 	 	 	 	 	 	 	 	 	 	 	 	 	 	 	1581538031	9.73	18.02
12/02/2020 20:07:12	120220	12022020	200712	236.93	12.362172	-56.825845	237.05	-0.150	0.140	0.320	236.99	-1.20	0.80	 	 	 	 	 	 	 	 	 	 	 	 	 	 	 	 	 	 	1581538032	9.64	17.85
12/02/2020 20:07:13	120220	12022020	200713	237.21	12.362147	-56.825883	237.31	-0.220	-0.080	-0.030	237.26	-1.50	0.40	 	 	 	 	 	 	 	 	 	 	 	 	 	 	 	 	 	 	1581538033	9.55	17.69
12/02/2020 20:07:14	120220	12022020	200714	237.46	12.362127	-56.825922	237.57	-0.170	-0.350	0.040	237.50	-1.70	0.50	 	 	 	 	 	 	 	 	 	 	 	 	 	 	 	 	 	 	1581538034	9.50	17.59
12/02/2020 20:07:15	120220	12022020	200715	237.56	12.362107	-56.825962	237.63	0.040	-0.520	0.290	237.57	-1.90	0.70	 	 	 	 	 	 	 	 	 	 	 	 	 	 	 	 	 	 	1581538035	9.39	17.39
12/02/2020 20:07:16	120220	12022020	200716	237.58	12.362087	-56.826000	237.65	0.280	-0.520	0.490	237.58	-1.90	0.90	 	 	 	 	 	 	 	 	 	 	 	 	 	 	 	 	 	 	1581538036	9.23	17.09
12/02/2020 20:07:17	120220	12022020	200717	237.69	12.362067	-56.826038	237.79	0.430	-0.400	0.490	237.72	-1.80	0.90	 	 	 	 	 	 	 	 	 	 	 	 	 	 	 	 	 	 	1581538037	9.07	16.80
12/02/2020 20:07:18	120220	12022020	200718	237.88	12.362045	-56.826075	237.99	0.410	-0.350	0.420	237.90	-1.70	0.90	 	 	 	 	 	 	 	 	 	 	 	 	 	 	 	 	 	 	1581538038	9.12	16.89
12/02/2020 20:07:19	120220	12022020	200719	237.93	12.362023	-56.826113	238.00	0.250	-0.400	0.580	237.90	-1.80	1.00	 	 	 	 	 	 	 	 	 	 	 	 	 	 	 	 	 	 	1581538039	9.35	17.32
12/02/2020 20:07:20	120220	12022020	200720	237.73	12.362002	-56.826153	237.78	0.050	-0.410	0.970	237.67	-1.80	1.40	 	 	 	 	 	 	 	 	 	 	 	 	 	 	 	 	 	 	1581538040	9.49	17.58
12/02/2020 20:07:21	120220	12022020	200721	237.39	12.361983	-56.826193	237.42	-0.110	-0.380	1.280	237.31	-1.80	1.70	 	 	 	 	 	 	 	 	 	 	 	 	 	 	 	 	 	 	1581538041	9.49	17.58
12/02/2020 20:07:22	120220	12022020	200722	237.00	12.361963	-56.826233	237.01	-0.150	-0.440	1.350	236.92	-1.80	1.80	 	 	 	 	 	 	 	 	 	 	 	 	 	 	 	 	 	 	1581538042	9.58	17.74
12/02/2020 20:07:23	120220	12022020	200723	236.68	12.361942	-56.826275	236.59	-0.080	-0.660	1.290	236.60	-2.00	1.70	 	 	 	 	 	 	 	 	 	 	 	 	 	 	 	 	 	 	1581538043	9.79	18.13
12/02/2020 20:07:24	120220	12022020	200724	236.30	12.361920	-56.826317	236.34	-0.060	-0.740	1.200	236.27	-2.10	1.60	 	 	 	 	 	 	 	 	 	 	 	 	 	 	 	 	 	 	1581538044	9.91	18.35
12/02/2020 20:07:25	120220	12022020	200725	236.32	12.361898	-56.826355	236.43	-0.180	-0.380	1.010	236.38	-1.80	1.40	 	 	 	 	 	 	 	 	 	 	 	 	 	 	 	 	 	 	1581538045	9.58	17.74
12/02/2020 20:07:26	120220	12022020	200726	236.73	12.361878	-56.826393	236.88	-0.300	0.240	0.630	236.83	-1.20	1.10	 	 	 	 	 	 	 	 	 	 	 	 	 	 	 	 	 	 	1581538046	9.07	16.80
12/02/2020 20:07:27	120220	12022020	200727	237.31	12.361857	-56.826430	237.47	-0.240	0.570	0.160	237.42	-0.80	0.60	 	 	 	 	 	 	 	 	 	 	 	 	 	 	 	 	 	 	1581538047	9.02	16.71
12/02/2020 20:07:28	120220	12022020	200728	237.86	12.361833	-56.826467	238.00	-0.020	0.400	-0.180	237.94	-1.00	0.30	 	 	 	 	 	 	 	 	 	 	 	 	 	 	 	 	 	 	1581538048	9.42	17.45
12/02/2020 20:07:29	120220	12022020	200729	238.21	12.361808	-56.826507	238.32	0.200	0.010	-0.200	238.26	-1.40	0.20	 	 	 	 	 	 	 	 	 	 	 	 	 	 	 	 	 	 	1581538049	9.69	17.95
12/02/2020 20:07:30	120220	12022020	200730	238.43	12.361788	-56.826547	238.54	0.290	-0.240	0.080	238.47	-1.60	0.50	 	 	 	 	 	 	 	 	 	 	 	 	 	 	 	 	 	 	1581538050	9.54	17.67
12/02/2020 20:07:31	120220	12022020	200731	238.51	12.361768	-56.826585	238.59	0.260	-0.480	0.600	238.50	-1.90	1.00	 	 	 	 	 	 	 	 	 	 	 	 	 	 	 	 	 	 	1581538051	9.30	17.22
12/02/2020 20:07:32	120220	12022020	200732	238.34	12.361750	-56.826627	238.38	0.220	-0.940	1.270	238.28	-2.30	1.70	 	 	 	 	 	 	 	 	 	 	 	 	 	 	 	 	 	 	1581538052	9.51	17.61
12/02/2020 20:07:33	120220	12022020	200733	237.94	12.361730	-56.826668	237.94	0.190	-1.420	1.870	237.84	-2.80	2.30	 	 	 	 	 	 	 	 	 	 	 	 	 	 	 	 	 	 	1581538053	9.86	18.26
12/02/2020 20:07:34	120220	12022020	200734	237.44	12.361712	-56.826712	237.41	0.050	-1.520	2.150	237.33	-2.90	2.60	 	 	 	 	 	 	 	 	 	 	 	 	 	 	 	 	 	 	1581538054	9.90	18.33
12/02/2020 20:07:35	120220	12022020	200735	236.98	12.361692	-56.826752	236.98	-0.190	-1.010	2.040	236.92	-2.40	2.50	 	 	 	 	 	 	 	 	 	 	 	 	 	 	 	 	 	 	1581538055	9.60	17.78
12/02/2020 20:07:36	120220	12022020	200736	236.81	12.361672	-56.826790	236.89	-0.390	0.010	1.600	236.83	-1.40	2.10	 	 	 	 	 	 	 	 	 	 	 	 	 	 	 	 	 	 	1581538056	9.14	16.93
12/02/2020 20:07:37	120220	12022020	200737	237.08	12.361652	-56.826827	237.21	-0.410	0.970	0.870	237.18	-0.50	1.30	 	 	 	 	 	 	 	 	 	 	 	 	 	 	 	 	 	 	1581538057	8.86	16.41
12/02/2020 20:07:38	120220	12022020	200738	237.64	12.361628	-56.826862	237.77	-0.240	1.250	0.240	237.76	-0.10	0.70	 	 	 	 	 	 	 	 	 	 	 	 	 	 	 	 	 	 	1581538058	9.18	17.00
12/02/2020 20:07:39	120220	12022020	200739	238.19	12.361603	-56.826902	238.31	0.020	0.730	0.040	238.27	-0.60	0.50	 	 	 	 	 	 	 	 	 	 	 	 	 	 	 	 	 	 	1581538059	9.75	18.06
12/02/2020 20:07:40	120220	12022020	200740	238.52	12.361580	-56.826943	238.61	0.250	-0.170	0.180	238.56	-1.50	0.60	 	 	 	 	 	 	 	 	 	 	 	 	 	 	 	 	 	 	1581538060	10.11	18.72
12/02/2020 20:07:41	120220	12022020	200741	238.62	12.361560	-56.826985	238.69	0.340	-0.880	0.520	238.62	-2.20	0.90	 	 	 	 	 	 	 	 	 	 	 	 	 	 	 	 	 	 	1581538061	9.96	18.45
12/02/2020 20:07:42	120220	12022020	200742	238.55	12.361540	-56.827025	238.58	0.280	-1.210	0.900	238.53	-2.60	1.30	 	 	 	 	 	 	 	 	 	 	 	 	 	 	 	 	 	 	1581538062	9.58	17.74
12/02/2020 20:07:43	120220	12022020	200743	238.40	12.361520	-56.827065	238.42	0.120	-1.130	1.220	238.37	-2.50	1.60	 	 	 	 	 	 	 	 	 	 	 	 	 	 	 	 	 	 	1581538063	9.31	17.24
12/02/2020 20:07:44	120220	12022020	200744	238.25	12.361502	-56.827103	238.26	-0.070	-0.710	1.420	238.22	-2.10	1.80	 	 	 	 	 	 	 	 	 	 	 	 	 	 	 	 	 	 	1581538064	9.09	16.83
12/02/2020 20:07:45	120220	12022020	200745	238.18	12.361483	-56.827142	238.21	-0.200	-0.260	1.320	238.18	-1.70	1.80	 	 	 	 	 	 	 	 	 	 	 	 	 	 	 	 	 	 	1581538065	9.03	16.72
12/02/2020 20:07:46	120220	12022020	200746	238.19	12.361463	-56.827182	238.22	-0.180	-0.130	1.000	238.20	-1.50	1.40	 	 	 	 	 	 	 	 	 	 	 	 	 	 	 	 	 	 	1581538066	9.33	17.28
12/02/2020 20:07:47	120220	12022020	200747	238.19	12.361442	-56.827222	238.21	-0.040	-0.300	0.550	238.19	-1.70	1.00	 	 	 	 	 	 	 	 	 	 	 	 	 	 	 	 	 	 	1581538067	9.76	18.08
12/02/2020 20:07:48	120220	12022020	200748	238.21	12.361417	-56.827262	238.25	0.040	-0.480	0.060	238.22	-1.90	0.50	 	 	 	 	 	 	 	 	 	 	 	 	 	 	 	 	 	 	1581538068	9.95	18.43
12/02/2020 20:07:49	120220	12022020	200749	238.27	12.361393	-56.827302	238.32	-0.020	-0.430	-0.280	238.28	-1.80	0.20	 	 	 	 	 	 	 	 	 	 	 	 	 	 	 	 	 	 	1581538069	9.81	18.17
12/02/2020 20:07:50	120220	12022020	200750	238.29	12.361370	-56.827340	238.30	-0.170	-0.130	-0.140	238.27	-1.50	0.30	 	 	 	 	 	 	 	 	 	 	 	 	 	 	 	 	 	 	1581538070	9.51	17.61
12/02/2020 20:07:51	120220	12022020	200751	238.14	12.361352	-56.827380	238.09	-0.250	0.230	0.470	238.08	-1.20	0.90	 	 	 	 	 	 	 	 	 	 	 	 	 	 	 	 	 	 	1581538071	9.37	17.35
12/02/2020 20:07:52	120220	12022020	200752	237.69	12.361333	-56.827420	237.69	-0.170	0.410	1.180	237.62	-1.00	1.60	 	 	 	 	 	 	 	 	 	 	 	 	 	 	 	 	 	 	1581538072	9.45	17.50
12/02/2020 20:07:53	120220	12022020	200753	237.43	12.361317	-56.827463	237.47	0.080	0.300	1.530	237.41	-1.10	1.90	 	 	 	 	 	 	 	 	 	 	 	 	 	 	 	 	 	 	1581538073	9.63	17.83
12/02/2020 20:07:54	120220	12022020	200754	237.48	12.361298	-56.827505	237.56	0.360	-0.020	1.330	237.53	-1.40	1.80	 	 	 	 	 	 	 	 	 	 	 	 	 	 	 	 	 	 	1581538074	9.67	17.91
12/02/2020 20:07:55	120220	12022020	200755	237.80	12.361277	-56.827545	237.90	0.470	-0.350	0.800	237.87	-1.70	1.30	 	 	 	 	 	 	 	 	 	 	 	 	 	 	 	 	 	 	1581538075	9.56	17.71
12/02/2020 20:07:56	120220	12022020	200756	238.20	12.361255	-56.827583	238.32	0.320	-0.590	0.290	238.30	-2.00	0.70	 	 	 	 	 	 	 	 	 	 	 	 	 	 	 	 	 	 	1581538076	9.42	17.45
12/02/2020 20:07:57	120220	12022020	200757	238.66	12.361232	-56.827620	238.76	0.030	-0.700	-0.060	238.75	-2.10	0.40	 	 	 	 	 	 	 	 	 	 	 	 	 	 	 	 	 	 	1581538077	9.26	17.15
12/02/2020 20:07:58	120220	12022020	200758	238.95	12.361210	-56.827657	239.02	-0.150	-0.800	-0.020	238.97	-2.20	0.40	 	 	 	 	 	 	 	 	 	 	 	 	 	 	 	 	 	 	1581538078	9.23	17.09
12/02/2020 20:07:59	120220	12022020	200759	238.93	12.361190	-56.827697	238.95	-0.160	-0.960	0.350	238.89	-2.30	0.80	 	 	 	 	 	 	 	 	 	 	 	 	 	 	 	 	 	 	1581538079	9.48	17.56
12/02/2020 20:08:00	120220	12022020	200800	238.64	12.361168	-56.827738	238.60	-0.070	-1.090	0.870	238.54	-2.50	1.30	 	 	 	 	 	 	 	 	 	 	 	 	 	 	 	 	 	 	1581538080	9.73	18.02
12/02/2020 20:08:01	120220	12022020	200801	238.14	12.361148	-56.827780	238.08	-0.020	-1.100	1.340	238.03	-2.50	1.70	 	 	 	 	 	 	 	 	 	 	 	 	 	 	 	 	 	 	1581538081	9.92	18.37
12/02/2020 20:08:02	120220	12022020	200802	237.60	12.361127	-56.827822	237.54	-0.110	-0.820	1.610	237.50	-2.20	2.00	1014.60	26.50	26.60	20.30	20.50	346.0	68.0	69.0	391.0	29.0	211.00	5.20	74.00	9.70	23937	9598.0	27.5	27.5	1581538082	9.96	18.45
12/02/2020 20:08:03	120220	12022020	200803	237.20	12.361107	-56.827863	237.19	-0.330	-0.200	1.690	237.15	-1.60	2.10	 	 	 	 	 	 	 	 	 	 	 	 	 	 	 	 	 	 	1581538083	9.78	18.11
12/02/2020 20:08:04	120220	12022020	200804	237.09	12.361087	-56.827903	237.13	-0.540	0.580	1.570	237.10	-0.90	2.00	 	 	 	 	 	 	 	 	 	 	 	 	 	 	 	 	 	 	1581538084	9.51	17.61
12/02/2020 20:08:05	120220	12022020	200805	237.22	12.361068	-56.827943	237.29	-0.520	1.100	1.300	237.27	-0.30	1.70	 	 	 	 	 	 	 	 	 	 	 	 	 	 	 	 	 	 	1581538085	9.43	17.46
12/02/2020 20:08:06	120220	12022020	200806	237.48	12.361047	-56.827983	237.54	-0.240	1.130	1.050	237.53	-0.30	1.50	 	 	 	 	 	 	 	 	 	 	 	 	 	 	 	 	 	 	1581538086	9.59	17.76
12/02/2020 20:08:07	120220	12022020	200807	237.71	12.361027	-56.828025	237.76	0.170	0.710	0.860	237.75	-0.70	1.30	 	 	 	 	 	 	 	 	 	 	 	 	 	 	 	 	 	 	1581538087	9.79	18.13
12/02/2020 20:08:08	120220	12022020	200808	237.92	12.361007	-56.828067	237.97	0.520	0.140	0.630	237.96	-1.20	1.10	 	 	 	 	 	 	 	 	 	 	 	 	 	 	 	 	 	 	1581538088	9.77	18.09
12/02/2020 20:08:09	120220	12022020	200809	238.09	12.360985	-56.828105	238.15	0.690	-0.340	0.450	238.12	-1.70	0.90	 	 	 	 	 	 	 	 	 	 	 	 	 	 	 	 	 	 	1581538089	9.45	17.50
12/02/2020 20:08:10	120220	12022020	200810	238.19	12.360963	-56.828143	238.25	0.680	-0.720	0.390	238.21	-2.10	0.80	 	 	 	 	 	 	 	 	 	 	 	 	 	 	 	 	 	 	1581538090	9.19	17.02
12/02/2020 20:08:11	120220	12022020	200811	238.23	12.360943	-56.828182	238.28	0.600	-1.090	0.420	238.23	-2.50	0.90	 	 	 	 	 	 	 	 	 	 	 	 	 	 	 	 	 	 	1581538091	9.18	17.00
12/02/2020 20:08:12	120220	12022020	200812	238.22	12.360922	-56.828220	238.29	0.470	-1.430	0.510	238.22	-2.80	0.90	 	 	 	 	 	 	 	 	 	 	 	 	 	 	 	 	 	 	1581538092	9.38	17.37
12/02/2020 20:08:13	120220	12022020	200813	238.22	12.360900	-56.828260	238.28	0.220	-1.610	0.660	238.22	-3.00	1.10	 	 	 	 	 	 	 	 	 	 	 	 	 	 	 	 	 	 	1581538093	9.52	17.63
12/02/2020 20:08:14	120220	12022020	200814	238.16	12.360878	-56.828300	238.20	-0.170	-1.590	0.970	238.14	-3.00	1.40	 	 	 	 	 	 	 	 	 	 	 	 	 	 	 	 	 	 	1581538094	9.69	17.95
12/02/2020 20:08:15	120220	12022020	200815	238.01	12.360858	-56.828342	238.02	-0.590	-1.290	1.340	237.97	-2.70	1.80	 	 	 	 	 	 	 	 	 	 	 	 	 	 	 	 	 	 	1581538095	9.86	18.26
12/02/2020 20:08:16	120220	12022020	200816	237.75	12.360837	-56.828383	237.75	-0.890	-0.610	1.680	237.69	-2.00	2.10	 	 	 	 	 	 	 	 	 	 	 	 	 	 	 	 	 	 	1581538096	9.87	18.28
12/02/2020 20:08:17	120220	12022020	200817	237.45	12.360817	-56.828423	237.47	-1.000	0.310	1.930	237.41	-1.10	2.30	 	 	 	 	 	 	 	 	 	 	 	 	 	 	 	 	 	 	1581538097	9.71	17.98
12/02/2020 20:08:18	120220	12022020	200818	237.27	12.360797	-56.828465	237.32	-0.850	1.020	1.980	237.25	-0.40	2.40	 	 	 	 	 	 	 	 	 	 	 	 	 	 	 	 	 	 	1581538098	9.70	17.96
12/02/2020 20:08:19	120220	12022020	200819	237.26	12.360775	-56.828507	237.32	-0.500	1.270	1.800	237.27	-0.10	2.20	 	 	 	 	 	 	 	 	 	 	 	 	 	 	 	 	 	 	1581538099	9.91	18.35
12/02/2020 20:08:20	120220	12022020	200820	237.39	12.360755	-56.828548	237.47	-0.060	1.130	1.460	237.43	-0.30	1.90	 	 	 	 	 	 	 	 	 	 	 	 	 	 	 	 	 	 	1581538100	9.99	18.50
12/02/2020 20:08:21	120220	12022020	200821	237.57	12.360733	-56.828590	237.65	0.350	0.710	1.000	237.60	-0.70	1.40	 	 	 	 	 	 	 	 	 	 	 	 	 	 	 	 	 	 	1581538101	9.84	18.22
12/02/2020 20:08:22	120220	12022020	200822	237.63	12.360712	-56.828630	237.66	0.660	0.140	0.570	237.62	-1.20	1.00	 	 	 	 	 	 	 	 	 	 	 	 	 	 	 	 	 	 	1581538102	9.64	17.85
12/02/2020 20:08:23	120220	12022020	200823	237.58	12.360690	-56.828668	237.61	0.810	-0.430	0.250	237.57	-1.80	0.70	 	 	 	 	 	 	 	 	 	 	 	 	 	 	 	 	 	 	1581538103	9.46	17.52
12/02/2020 20:08:24	120220	12022020	200824	237.59	12.360668	-56.828707	237.66	0.770	-0.880	0.050	237.61	-2.30	0.50	 	 	 	 	 	 	 	 	 	 	 	 	 	 	 	 	 	 	1581538104	9.31	17.24
12/02/2020 20:08:25	120220	12022020	200825	237.76	12.360647	-56.828743	237.84	0.540	-1.080	-0.030	237.80	-2.50	0.40	 	 	 	 	 	 	 	 	 	 	 	 	 	 	 	 	 	 	1581538105	9.15	16.95
12/02/2020 20:08:26	120220	12022020	200826	238.00	12.360627	-56.828782	238.08	0.220	-1.080	0.020	238.05	-2.50	0.40	 	 	 	 	 	 	 	 	 	 	 	 	 	 	 	 	 	 	1581538106	9.03	16.72
12/02/2020 20:08:27	120220	12022020	200827	238.21	12.360605	-56.828818	238.36	0.020	-1.080	0.180	238.26	-2.50	0.60	 	 	 	 	 	 	 	 	 	 	 	 	 	 	 	 	 	 	1581538107	9.16	16.96
12/02/2020 20:08:28	120220	12022020	200828	238.48	12.360583	-56.828858	238.55	-0.040	-1.180	0.480	238.50	-2.60	0.90	 	 	 	 	 	 	 	 	 	 	 	 	 	 	 	 	 	 	1581538108	9.56	17.71
12/02/2020 20:08:29	120220	12022020	200829	238.50	12.360562	-56.828900	238.55	-0.090	-1.210	0.990	238.48	-2.60	1.40	 	 	 	 	 	 	 	 	 	 	 	 	 	 	 	 	 	 	1581538109	9.93	18.39
12/02/2020 20:08:30	120220	12022020	200830	238.30	12.360543	-56.828943	238.32	-0.270	-0.960	1.540	238.25	-2.40	1.90	 	 	 	 	 	 	 	 	 	 	 	 	 	 	 	 	 	 	1581538110	10.04	18.59
12/02/2020 20:08:31	120220	12022020	200831	237.91	12.360523	-56.828985	237.88	-0.510	-0.430	1.950	237.80	-1.80	2.40	 	 	 	 	 	 	 	 	 	 	 	 	 	 	 	 	 	 	1581538111	9.90	18.33
12/02/2020 20:08:32	120220	12022020	200832	237.33	12.360505	-56.829028	237.29	-0.620	0.150	2.210	237.22	-1.30	2.60	 	 	 	 	 	 	 	 	 	 	 	 	 	 	 	 	 	 	1581538112	9.85	18.24
12/02/2020 20:08:33	120220	12022020	200833	236.82	12.360485	-56.829070	236.80	-0.560	0.670	2.160	236.74	-0.70	2.60	 	 	 	 	 	 	 	 	 	 	 	 	 	 	 	 	 	 	1581538113	9.89	18.32
12/02/2020 20:08:34	120220	12022020	200834	236.58	12.360465	-56.829112	236.60	-0.400	1.090	1.760	236.57	-0.30	2.20	 	 	 	 	 	 	 	 	 	 	 	 	 	 	 	 	 	 	1581538114	9.76	18.08
12/02/2020 20:08:35	120220	12022020	200835	236.71	12.360443	-56.829152	236.80	-0.210	1.230	1.090	236.78	-0.20	1.60	 	 	 	 	 	 	 	 	 	 	 	 	 	 	 	 	 	 	1581538115	9.54	17.67
12/02/2020 20:08:36	120220	12022020	200836	237.16	12.360418	-56.829188	237.28	-0.020	0.850	0.370	237.26	-0.50	0.80	 	 	 	 	 	 	 	 	 	 	 	 	 	 	 	 	 	 	1581538116	9.53	17.65
12/02/2020 20:08:37	120220	12022020	200837	237.63	12.360395	-56.829228	237.74	0.190	0.030	0.030	237.71	-1.30	0.50	 	 	 	 	 	 	 	 	 	 	 	 	 	 	 	 	 	 	1581538117	9.70	17.96
12/02/2020 20:08:38	120220	12022020	200838	237.98	12.360373	-56.829268	238.08	0.410	-0.830	0.100	238.03	-2.20	0.50	 	 	 	 	 	 	 	 	 	 	 	 	 	 	 	 	 	 	1581538118	9.72	18.00
12/02/2020 20:08:39	120220	12022020	200839	238.15	12.360353	-56.829308	238.30	0.580	-1.380	0.240	238.19	-2.70	0.70	 	 	 	 	 	 	 	 	 	 	 	 	 	 	 	 	 	 	1581538119	9.51	17.61
12/02/2020 20:08:40	120220	12022020	200840	238.42	12.360332	-56.829347	238.53	0.630	-1.510	0.210	238.48	-2.90	0.70	 	 	 	 	 	 	 	 	 	 	 	 	 	 	 	 	 	 	1581538120	9.20	17.04
12/02/2020 20:08:41	120220	12022020	200841	238.68	12.360310	-56.829383	238.88	0.520	-1.380	0.030	238.75	-2.80	0.50	 	 	 	 	 	 	 	 	 	 	 	 	 	 	 	 	 	 	1581538121	9.06	16.78
12/02/2020 20:08:42	120220	12022020	200842	239.01	12.360288	-56.829420	239.10	0.290	-1.170	0.040	239.03	-2.60	0.50	 	 	 	 	 	 	 	 	 	 	 	 	 	 	 	 	 	 	1581538122	9.22	17.08
12/02/2020 20:08:43	120220	12022020	200843	239.00	12.360267	-56.829460	239.03	0.030	-0.890	0.500	238.95	-2.30	0.90	 	 	 	 	 	 	 	 	 	 	 	 	 	 	 	 	 	 	1581538123	9.54	17.67
12/02/2020 20:08:44	120220	12022020	200844	238.60	12.360248	-56.829502	238.55	-0.220	-0.470	1.370	238.47	-1.90	1.80	 	 	 	 	 	 	 	 	 	 	 	 	 	 	 	 	 	 	1581538124	9.78	18.11
12/02/2020 20:08:45	120220	12022020	200845	237.82	12.360232	-56.829545	237.73	-0.430	0.010	2.280	237.64	-1.40	2.70	 	 	 	 	 	 	 	 	 	 	 	 	 	 	 	 	 	 	1581538125	9.97	18.46
12/02/2020 20:08:46	120220	12022020	200846	236.91	12.360213	-56.829590	236.84	-0.570	0.520	2.770	236.73	-0.90	3.20	 	 	 	 	 	 	 	 	 	 	 	 	 	 	 	 	 	 	1581538126	9.99	18.50
12/02/2020 20:08:47	120220	12022020	200847	236.22	12.360195	-56.829632	236.24	-0.610	0.960	2.570	236.14	-0.40	3.00	 	 	 	 	 	 	 	 	 	 	 	 	 	 	 	 	 	 	1581538127	9.80	18.15
12/02/2020 20:08:48	120220	12022020	200848	236.07	12.360175	-56.829672	236.18	-0.530	1.130	1.680	236.11	-0.30	2.20	 	 	 	 	 	 	 	 	 	 	 	 	 	 	 	 	 	 	1581538128	9.53	17.65
12/02/2020 20:08:49	120220	12022020	200849	236.50	12.360152	-56.829710	236.68	-0.230	0.830	0.400	236.64	-0.50	0.90	 	 	 	 	 	 	 	 	 	 	 	 	 	 	 	 	 	 	1581538129	9.46	17.52
12/02/2020 20:08:50	120220	12022020	200850	237.31	12.360128	-56.829748	237.51	0.270	0.150	-0.780	237.50	-1.20	-0.30	 	 	 	 	 	 	 	 	 	 	 	 	 	 	 	 	 	 	1581538130	9.54	17.67
12/02/2020 20:08:51	120220	12022020	200851	238.23	12.360103	-56.829785	238.44	0.760	-0.660	-1.460	238.42	-2.00	-1.00	 	 	 	 	 	 	 	 	 	 	 	 	 	 	 	 	 	 	1581538131	9.54	17.67
12/02/2020 20:08:52	120220	12022020	200852	239.12	12.360080	-56.829823	239.32	0.900	-1.370	-1.470	239.28	-2.70	-1.00	 	 	 	 	 	 	 	 	 	 	 	 	 	 	 	 	 	 	1581538132	9.43	17.46
12/02/2020 20:08:53	120220	12022020	200853	239.87	12.360060	-56.829862	240.04	0.620	-1.770	-0.910	239.99	-3.10	-0.50	 	 	 	 	 	 	 	 	 	 	 	 	 	 	 	 	 	 	1581538133	9.28	17.19
12/02/2020 20:08:54	120220	12022020	200854	240.29	12.360042	-56.829902	240.36	0.140	-1.770	0.020	240.32	-3.20	0.40	 	 	 	 	 	 	 	 	 	 	 	 	 	 	 	 	 	 	1581538134	9.21	17.06
12/02/2020 20:08:55	120220	12022020	200855	240.20	12.360025	-56.829942	240.17	-0.250	-1.380	1.160	240.12	-2.80	1.50	 	 	 	 	 	 	 	 	 	 	 	 	 	 	 	 	 	 	1581538135	9.21	17.06
12/02/2020 20:08:56	120220	12022020	200856	239.57	12.360008	-56.829982	239.47	-0.400	-0.790	2.400	239.39	-2.20	2.80	 	 	 	 	 	 	 	 	 	 	 	 	 	 	 	 	 	 	1581538136	9.39	17.39
12/02/2020 20:08:57	120220	12022020	200857	238.50	12.359992	-56.830025	238.35	-0.400	-0.160	3.420	238.25	-1.60	3.80	 	 	 	 	 	 	 	 	 	 	 	 	 	 	 	 	 	 	1581538137	9.70	17.96
12/02/2020 20:08:58	120220	12022020	200858	237.22	12.359973	-56.830068	237.07	-0.390	0.430	3.860	236.97	-1.00	4.30	 	 	 	 	 	 	 	 	 	 	 	 	 	 	 	 	 	 	1581538138	9.88	18.30
12/02/2020 20:08:59	120220	12022020	200859	236.19	12.359953	-56.830110	236.14	-0.410	0.880	3.470	236.05	-0.50	3.90	 	 	 	 	 	 	 	 	 	 	 	 	 	 	 	 	 	 	1581538139	9.81	18.17
12/02/2020 20:09:00	120220	12022020	200900	235.82	12.359933	-56.830150	235.88	-0.370	1.040	2.400	235.83	-0.30	2.90	 	 	 	 	 	 	 	 	 	 	 	 	 	 	 	 	 	 	1581538140	9.63	17.83
12/02/2020 20:09:01	120220	12022020	200901	236.11	12.359912	-56.830190	236.26	-0.210	0.930	1.070	236.24	-0.40	1.60	 	 	 	 	 	 	 	 	 	 	 	 	 	 	 	 	 	 	1581538141	9.47	17.54
12/02/2020 20:09:02	120220	12022020	200902	236.88	12.359888	-56.830227	237.07	0.020	0.590	-0.150	237.06	-0.80	0.30	1014.60	26.60	26.70	20.60	20.70	341.0	69.0	69.0	391.0	29.0	221.00	4.70	78.00	9.00	23582	8602.0	27.5	27.5	1581538142	9.25	17.13
12/02/2020 20:09:03	120220	12022020	200903	237.86	12.359867	-56.830263	238.08	0.290	0.040	-0.970	238.07	-1.30	-0.50	 	 	 	 	 	 	 	 	 	 	 	 	 	 	 	 	 	 	1581538143	9.11	16.87
12/02/2020 20:09:04	120220	12022020	200904	238.85	12.359847	-56.830302	239.07	0.550	-0.640	-1.220	239.03	-2.00	-0.80	 	 	 	 	 	 	 	 	 	 	 	 	 	 	 	 	 	 	1581538144	9.08	16.82
12/02/2020 20:09:05	120220	12022020	200905	239.48	12.359825	-56.830338	239.74	0.710	-1.310	-0.870	239.58	-2.70	-0.50	 	 	 	 	 	 	 	 	 	 	 	 	 	 	 	 	 	 	1581538145	9.10	16.85
12/02/2020 20:09:06	120220	12022020	200906	239.87	12.359805	-56.830377	239.94	0.680	-1.770	0.020	239.87	-3.10	0.40	 	 	 	 	 	 	 	 	 	 	 	 	 	 	 	 	 	 	1581538146	9.13	16.91
12/02/2020 20:09:07	120220	12022020	200907	239.68	12.359787	-56.830417	239.67	0.440	-1.840	1.170	239.60	-3.20	1.60	 	 	 	 	 	 	 	 	 	 	 	 	 	 	 	 	 	 	1581538147	9.17	16.98
12/02/2020 20:09:08	120220	12022020	200908	239.14	12.359772	-56.830457	239.08	0.010	-1.470	2.150	239.01	-2.90	2.50	 	 	 	 	 	 	 	 	 	 	 	 	 	 	 	 	 	 	1581538148	9.21	17.06
12/02/2020 20:09:09	120220	12022020	200909	238.42	12.359755	-56.830497	238.35	-0.460	-0.840	2.570	238.27	-2.30	3.00	 	 	 	 	 	 	 	 	 	 	 	 	 	 	 	 	 	 	1581538149	9.31	17.24
12/02/2020 20:09:10	120220	12022020	200910	237.75	12.359735	-56.830537	237.69	-0.770	-0.100	2.460	237.64	-1.50	2.90	 	 	 	 	 	 	 	 	 	 	 	 	 	 	 	 	 	 	1581538150	9.43	17.46
12/02/2020 20:09:11	120220	12022020	200911	237.30	12.359717	-56.830577	237.28	-0.820	0.630	2.070	237.23	-0.80	2.50	 	 	 	 	 	 	 	 	 	 	 	 	 	 	 	 	 	 	1581538151	9.46	17.52
12/02/2020 20:09:12	120220	12022020	200912	237.04	12.359697	-56.830617	237.06	-0.620	1.130	1.600	237.01	-0.30	2.10	 	 	 	 	 	 	 	 	 	 	 	 	 	 	 	 	 	 	1581538152	9.42	17.45
12/02/2020 20:09:13	120220	12022020	200913	236.90	12.359675	-56.830657	236.93	-0.230	1.140	1.340	236.88	-0.20	1.80	 	 	 	 	 	 	 	 	 	 	 	 	 	 	 	 	 	 	1581538153	9.51	17.61
12/02/2020 20:09:14	120220	12022020	200914	236.81	12.359655	-56.830697	236.86	0.180	0.730	1.350	236.81	-0.60	1.80	 	 	 	 	 	 	 	 	 	 	 	 	 	 	 	 	 	 	1581538154	9.66	17.89
12/02/2020 20:09:15	120220	12022020	200915	236.90	12.359637	-56.830738	237.01	0.430	0.230	1.350	236.95	-1.10	1.80	 	 	 	 	 	 	 	 	 	 	 	 	 	 	 	 	 	 	1581538155	9.52	17.63
12/02/2020 20:09:16	120220	12022020	200916	237.31	12.359618	-56.830777	237.46	0.460	-0.210	1.120	237.42	-1.60	1.60	 	 	 	 	 	 	 	 	 	 	 	 	 	 	 	 	 	 	1581538156	9.11	16.87
12/02/2020 20:09:17	120220	12022020	200917	237.78	12.359600	-56.830815	238.02	0.390	-0.710	0.760	237.89	-2.10	1.20	 	 	 	 	 	 	 	 	 	 	 	 	 	 	 	 	 	 	1581538157	8.85	16.39
12/02/2020 20:09:18	120220	12022020	200918	238.38	12.359580	-56.830852	238.47	0.360	-1.310	0.410	238.45	-2.70	0.90	 	 	 	 	 	 	 	 	 	 	 	 	 	 	 	 	 	 	1581538158	9.00	16.67
12/02/2020 20:09:19	120220	12022020	200919	238.64	12.359558	-56.830890	238.67	0.330	-1.650	0.190	238.65	-3.00	0.60	 	 	 	 	 	 	 	 	 	 	 	 	 	 	 	 	 	 	1581538159	9.18	17.00
12/02/2020 20:09:20	120220	12022020	200920	238.59	12.359537	-56.830927	238.59	0.160	-1.470	0.180	238.56	-2.90	0.60	 	 	 	 	 	 	 	 	 	 	 	 	 	 	 	 	 	 	1581538160	9.06	16.78
12/02/2020 20:09:21	120220	12022020	200921	238.34	12.359515	-56.830963	238.33	-0.160	-0.930	0.310	238.28	-2.30	0.70	 	 	 	 	 	 	 	 	 	 	 	 	 	 	 	 	 	 	1581538161	8.93	16.54
12/02/2020 20:09:22	120220	12022020	200922	237.97	12.359495	-56.831000	237.92	-0.430	-0.290	0.650	237.87	-1.70	1.10	 	 	 	 	 	 	 	 	 	 	 	 	 	 	 	 	 	 	1581538162	9.00	16.67
12/02/2020 20:09:23	120220	12022020	200923	237.45	12.359477	-56.831040	237.40	-0.480	0.270	1.240	237.34	-1.10	1.60	 	 	 	 	 	 	 	 	 	 	 	 	 	 	 	 	 	 	1581538163	9.24	17.11
12/02/2020 20:09:24	120220	12022020	200924	236.99	12.359458	-56.831080	236.99	-0.290	0.690	1.890	236.93	-0.70	2.30	 	 	 	 	 	 	 	 	 	 	 	 	 	 	 	 	 	 	1581538164	9.41	17.43
12/02/2020 20:09:25	120220	12022020	200925	236.74	12.359442	-56.831122	236.78	-0.010	0.790	2.410	236.71	-0.60	2.80	 	 	 	 	 	 	 	 	 	 	 	 	 	 	 	 	 	 	1581538165	9.51	17.61
12/02/2020 20:09:26	120220	12022020	200926	236.63	12.359425	-56.831163	236.70	0.190	0.500	2.650	236.62	-0.90	3.10	 	 	 	 	 	 	 	 	 	 	 	 	 	 	 	 	 	 	1581538166	9.66	17.89
12/02/2020 20:09:27	120220	12022020	200927	236.63	12.359408	-56.831205	236.72	0.250	-0.020	2.450	236.64	-1.40	2.90	 	 	 	 	 	 	 	 	 	 	 	 	 	 	 	 	 	 	1581538167	9.64	17.85
12/02/2020 20:09:28	120220	12022020	200928	236.73	12.359388	-56.831247	236.83	0.200	-0.560	1.780	236.76	-1.90	2.20	 	 	 	 	 	 	 	 	 	 	 	 	 	 	 	 	 	 	1581538168	9.45	17.50
12/02/2020 20:09:29	120220	12022020	200929	236.84	12.359367	-56.831285	236.95	0.160	-1.000	0.920	236.87	-2.40	1.40	 	 	 	 	 	 	 	 	 	 	 	 	 	 	 	 	 	 	1581538169	9.28	17.19
12/02/2020 20:09:30	120220	12022020	200930	236.97	12.359345	-56.831322	237.05	0.130	-1.180	0.140	237.00	-2.60	0.60	 	 	 	 	 	 	 	 	 	 	 	 	 	 	 	 	 	 	1581538170	9.20	17.04
12/02/2020 20:09:31	120220	12022020	200931	237.15	12.359322	-56.831357	237.36	-0.020	-0.930	-0.470	237.21	-2.30	0.00	 	 	 	 	 	 	 	 	 	 	 	 	 	 	 	 	 	 	1581538171	8.97	16.61
12/02/2020 20:09:32	120220	12022020	200932	237.64	12.359298	-56.831390	237.80	-0.290	-0.460	-0.670	237.72	-1.90	-0.20	 	 	 	 	 	 	 	 	 	 	 	 	 	 	 	 	 	 	1581538172	8.75	16.21
12/02/2020 20:09:33	120220	12022020	200933	237.98	12.359278	-56.831427	238.08	-0.470	-0.060	-0.270	238.01	-1.50	0.10	 	 	 	 	 	 	 	 	 	 	 	 	 	 	 	 	 	 	1581538173	8.86	16.41
12/02/2020 20:09:34	120220	12022020	200934	238.01	12.359258	-56.831465	238.06	-0.400	0.170	0.570	237.98	-1.20	1.00	 	 	 	 	 	 	 	 	 	 	 	 	 	 	 	 	 	 	1581538174	9.18	17.00
12/02/2020 20:09:35	120220	12022020	200935	237.75	12.359242	-56.831507	237.75	-0.080	0.300	1.400	237.68	-1.10	1.80	 	 	 	 	 	 	 	 	 	 	 	 	 	 	 	 	 	 	1581538175	9.36	17.33
12/02/2020 20:09:36	120220	12022020	200936	237.43	12.359223	-56.831547	237.47	0.260	0.370	1.810	237.38	-1.00	2.20	 	 	 	 	 	 	 	 	 	 	 	 	 	 	 	 	 	 	1581538176	9.34	17.30
12/02/2020 20:09:37	120220	12022020	200937	237.23	12.359205	-56.831587	237.28	0.420	0.200	1.790	237.20	-1.20	2.20	 	 	 	 	 	 	 	 	 	 	 	 	 	 	 	 	 	 	1581538177	9.21	17.06
12/02/2020 20:09:38	120220	12022020	200938	237.06	12.359185	-56.831625	237.08	0.380	-0.330	1.530	237.02	-1.70	2.00	 	 	 	 	 	 	 	 	 	 	 	 	 	 	 	 	 	 	1581538178	9.33	17.28
12/02/2020 20:09:39	120220	12022020	200939	236.80	12.359165	-56.831665	236.78	0.260	-0.950	1.250	236.72	-2.30	1.70	 	 	 	 	 	 	 	 	 	 	 	 	 	 	 	 	 	 	1581538179	9.53	17.65
12/02/2020 20:09:40	120220	12022020	200940	236.42	12.359143	-56.831705	236.38	0.150	-1.230	1.090	236.34	-2.60	1.50	 	 	 	 	 	 	 	 	 	 	 	 	 	 	 	 	 	 	1581538180	9.44	17.48
12/02/2020 20:09:41	120220	12022020	200941	236.03	12.359125	-56.831743	236.00	0.100	-1.060	1.050	235.95	-2.50	1.50	 	 	 	 	 	 	 	 	 	 	 	 	 	 	 	 	 	 	1581538181	9.16	16.96
12/02/2020 20:09:42	120220	12022020	200942	235.80	12.359105	-56.831780	235.85	0.060	-0.600	1.040	235.79	-2.00	1.50	 	 	 	 	 	 	 	 	 	 	 	 	 	 	 	 	 	 	1581538182	8.98	16.63
12/02/2020 20:09:43	120220	12022020	200943	235.85	12.359085	-56.831818	235.94	-0.060	-0.120	1.040	235.88	-1.50	1.50	 	 	 	 	 	 	 	 	 	 	 	 	 	 	 	 	 	 	1581538183	8.98	16.63
12/02/2020 20:09:44	120220	12022020	200944	236.10	12.359065	-56.831855	236.21	-0.280	0.230	1.040	236.15	-1.20	1.50	 	 	 	 	 	 	 	 	 	 	 	 	 	 	 	 	 	 	1581538184	9.10	16.85
12/02/2020 20:09:45	120220	12022020	200945	236.43	12.359045	-56.831895	236.55	-0.450	0.420	1.080	236.49	-1.00	1.50	 	 	 	 	 	 	 	 	 	 	 	 	 	 	 	 	 	 	1581538185	9.24	17.11
12/02/2020 20:09:46	120220	12022020	200946	236.80	12.359027	-56.831933	236.93	-0.430	0.460	1.050	236.87	-0.90	1.50	 	 	 	 	 	 	 	 	 	 	 	 	 	 	 	 	 	 	1581538186	9.28	17.19
12/02/2020 20:09:47	120220	12022020	200947	237.09	12.359007	-56.831973	237.19	-0.210	0.300	0.930	237.12	-1.10	1.40	 	 	 	 	 	 	 	 	 	 	 	 	 	 	 	 	 	 	1581538187	9.24	17.11
12/02/2020 20:09:48	120220	12022020	200948	237.18	12.358985	-56.832010	237.25	0.110	-0.110	0.740	237.17	-1.50	1.20	 	 	 	 	 	 	 	 	 	 	 	 	 	 	 	 	 	 	1581538188	9.31	17.24
12/02/2020 20:09:49	120220	12022020	200949	237.07	12.358962	-56.832048	237.10	0.340	-0.630	0.560	237.03	-2.00	1.00	 	 	 	 	 	 	 	 	 	 	 	 	 	 	 	 	 	 	1581538189	9.41	17.43
12/02/2020 20:09:50	120220	12022020	200950	236.86	12.358938	-56.832087	236.88	0.390	-1.020	0.550	236.81	-2.40	1.00	 	 	 	 	 	 	 	 	 	 	 	 	 	 	 	 	 	 	1581538190	9.35	17.32
12/02/2020 20:09:51	120220	12022020	200951	236.58	12.358917	-56.832123	236.57	0.280	-1.050	0.770	236.51	-2.40	1.20	 	 	 	 	 	 	 	 	 	 	 	 	 	 	 	 	 	 	1581538191	9.16	16.96
12/02/2020 20:09:52	120220	12022020	200952	236.24	12.358898	-56.832162	236.23	0.090	-0.760	1.070	236.17	-2.20	1.50	 	 	 	 	 	 	 	 	 	 	 	 	 	 	 	 	 	 	1581538192	8.95	16.58
12/02/2020 20:09:53	120220	12022020	200953	235.98	12.358878	-56.832198	235.92	-0.050	-0.430	1.250	235.91	-1.80	1.70	 	 	 	 	 	 	 	 	 	 	 	 	 	 	 	 	 	 	1581538193	8.95	16.58
12/02/2020 20:09:54	120220	12022020	200954	235.56	12.358858	-56.832237	235.57	-0.090	-0.260	1.330	235.49	-1.70	1.80	 	 	 	 	 	 	 	 	 	 	 	 	 	 	 	 	 	 	1581538194	9.24	17.11
12/02/2020 20:09:55	120220	12022020	200955	235.21	12.358838	-56.832277	235.23	-0.050	-0.160	1.300	235.15	-1.50	1.70	 	 	 	 	 	 	 	 	 	 	 	 	 	 	 	 	 	 	1581538195	9.46	17.52
12/02/2020 20:09:56	120220	12022020	200956	235.05	12.358817	-56.832315	235.13	-0.070	0.020	1.200	235.05	-1.40	1.60	 	 	 	 	 	 	 	 	 	 	 	 	 	 	 	 	 	 	1581538196	9.48	17.56
12/02/2020 20:09:57	120220	12022020	200957	235.19	12.358797	-56.832355	235.31	-0.200	0.280	1.190	235.24	-1.10	1.60	 	 	 	 	 	 	 	 	 	 	 	 	 	 	 	 	 	 	1581538197	9.29	17.21
12/02/2020 20:09:58	120220	12022020	200958	235.53	12.358778	-56.832393	235.68	-0.310	0.460	1.200	235.61	-0.90	1.60	 	 	 	 	 	 	 	 	 	 	 	 	 	 	 	 	 	 	1581538198	9.15	16.95
12/02/2020 20:09:59	120220	12022020	200959	236.03	12.358760	-56.832433	236.18	-0.250	0.330	0.960	236.14	-1.00	1.40	 	 	 	 	 	 	 	 	 	 	 	 	 	 	 	 	 	 	1581538199	9.12	16.89
12/02/2020 20:10:00	120220	12022020	201000	236.54	12.358738	-56.832472	236.68	-0.010	-0.200	0.550	236.64	-1.60	1.00	 	 	 	 	 	 	 	 	 	 	 	 	 	 	 	 	 	 	1581538200	9.33	17.28
12/02/2020 20:10:01	120220	12022020	201001	236.90	12.358715	-56.832508	236.97	0.270	-0.790	0.160	236.94	-2.20	0.60	 	 	 	 	 	 	 	 	 	 	 	 	 	 	 	 	 	 	1581538201	9.52	17.63
12/02/2020 20:10:02	120220	12022020	201002	236.98	12.358690	-56.832545	236.99	0.390	-1.040	0.080	236.96	-2.40	0.50	1014.60	26.60	26.70	21.00	21.00	315.0	71.0	71.0	391.0	29.0	231.00	5.10	84.00	8.90	22244	10753.0	27.5	27.5	1581538202	9.31	17.24
12/02/2020 20:10:03	120220	12022020	201003	236.78	12.358667	-56.832582	236.75	0.310	-0.950	0.420	236.71	-2.40	0.80	 	 	 	 	 	 	 	 	 	 	 	 	 	 	 	 	 	 	1581538203	9.00	16.67
12/02/2020 20:10:04	120220	12022020	201004	236.37	12.358647	-56.832618	236.35	0.080	-0.760	0.920	236.29	-2.20	1.30	 	 	 	 	 	 	 	 	 	 	 	 	 	 	 	 	 	 	1581538204	9.03	16.72
12/02/2020 20:10:05	120220	12022020	201005	236.03	12.358628	-56.832657	236.05	-0.180	-0.420	1.270	235.99	-1.80	1.70	 	 	 	 	 	 	 	 	 	 	 	 	 	 	 	 	 	 	1581538205	9.16	16.96
12/02/2020 20:10:06	120220	12022020	201006	235.91	12.358610	-56.832697	235.98	-0.350	-0.000	1.290	235.91	-1.40	1.70	 	 	 	 	 	 	 	 	 	 	 	 	 	 	 	 	 	 	1581538206	9.16	16.96
12/02/2020 20:10:07	120220	12022020	201007	235.93	12.358590	-56.832735	236.02	-0.330	0.330	1.100	235.94	-1.10	1.50	 	 	 	 	 	 	 	 	 	 	 	 	 	 	 	 	 	 	1581538207	9.16	16.96
12/02/2020 20:10:08	120220	12022020	201008	235.98	12.358568	-56.832773	236.07	-0.170	0.430	0.970	235.98	-1.00	1.40	 	 	 	 	 	 	 	 	 	 	 	 	 	 	 	 	 	 	1581538208	9.25	17.13
12/02/2020 20:10:09	120220	12022020	201009	235.96	12.358547	-56.832812	236.02	0.040	0.250	0.920	235.95	-1.10	1.30	 	 	 	 	 	 	 	 	 	 	 	 	 	 	 	 	 	 	1581538209	9.37	17.35
12/02/2020 20:10:10	120220	12022020	201010	235.92	12.358527	-56.832852	235.97	0.240	-0.220	0.820	235.91	-1.60	1.30	 	 	 	 	 	 	 	 	 	 	 	 	 	 	 	 	 	 	1581538210	9.54	17.67
12/02/2020 20:10:11	120220	12022020	201011	235.87	12.358505	-56.832892	235.92	0.300	-0.700	0.710	235.86	-2.10	1.10	 	 	 	 	 	 	 	 	 	 	 	 	 	 	 	 	 	 	1581538211	9.58	17.74
12/02/2020 20:10:12	120220	12022020	201012	235.82	12.358483	-56.832930	235.87	0.190	-1.050	0.680	235.81	-2.40	1.10	 	 	 	 	 	 	 	 	 	 	 	 	 	 	 	 	 	 	1581538212	9.47	17.54
12/02/2020 20:10:13	120220	12022020	201013	235.78	12.358462	-56.832968	235.84	-0.020	-1.140	0.820	235.78	-2.50	1.20	 	 	 	 	 	 	 	 	 	 	 	 	 	 	 	 	 	 	1581538213	9.37	17.35
12/02/2020 20:10:14	120220	12022020	201014	235.72	12.358443	-56.833008	235.78	-0.230	-0.810	1.180	235.70	-2.20	1.60	 	 	 	 	 	 	 	 	 	 	 	 	 	 	 	 	 	 	1581538214	9.23	17.09
12/02/2020 20:10:15	120220	12022020	201015	235.56	12.358425	-56.833047	235.63	-0.390	-0.190	1.530	235.53	-1.60	1.90	 	 	 	 	 	 	 	 	 	 	 	 	 	 	 	 	 	 	1581538215	9.04	16.74
12/02/2020 20:10:16	120220	12022020	201016	235.43	12.358405	-56.833083	235.52	-0.430	0.490	1.500	235.42	-0.90	1.90	 	 	 	 	 	 	 	 	 	 	 	 	 	 	 	 	 	 	1581538216	8.89	16.46
12/02/2020 20:10:17	120220	12022020	201017	235.44	12.358383	-56.833120	235.55	-0.290	0.880	1.130	235.46	-0.50	1.60	 	 	 	 	 	 	 	 	 	 	 	 	 	 	 	 	 	 	1581538217	8.92	16.52
12/02/2020 20:10:18	120220	12022020	201018	235.55	12.358360	-56.833155	235.65	0.010	0.770	0.730	235.58	-0.60	1.20	 	 	 	 	 	 	 	 	 	 	 	 	 	 	 	 	 	 	1581538218	9.17	16.98
12/02/2020 20:10:19	120220	12022020	201019	235.63	12.358337	-56.833193	235.69	0.330	0.180	0.710	235.63	-1.20	1.10	 	 	 	 	 	 	 	 	 	 	 	 	 	 	 	 	 	 	1581538219	9.45	17.50
12/02/2020 20:10:20	120220	12022020	201020	235.56	12.358313	-56.833233	235.59	0.570	-0.670	1.200	235.53	-2.00	1.60	 	 	 	 	 	 	 	 	 	 	 	 	 	 	 	 	 	 	1581538220	9.68	17.93
12/02/2020 20:10:21	120220	12022020	201021	235.42	12.358293	-56.833275	235.40	0.610	-1.440	1.820	235.37	-2.80	2.20	 	 	 	 	 	 	 	 	 	 	 	 	 	 	 	 	 	 	1581538221	9.76	18.08
12/02/2020 20:10:22	120220	12022020	201022	235.17	12.358275	-56.833315	235.22	0.420	-1.780	2.280	235.13	-3.10	2.70	 	 	 	 	 	 	 	 	 	 	 	 	 	 	 	 	 	 	1581538222	9.58	17.74
12/02/2020 20:10:23	120220	12022020	201023	234.98	12.358255	-56.833355	235.04	0.090	-1.480	2.440	234.94	-2.90	2.90	 	 	 	 	 	 	 	 	 	 	 	 	 	 	 	 	 	 	1581538223	9.26	17.15
12/02/2020 20:10:24	120220	12022020	201024	234.76	12.358237	-56.833392	234.82	-0.280	-0.610	2.420	234.72	-2.00	2.90	 	 	 	 	 	 	 	 	 	 	 	 	 	 	 	 	 	 	1581538224	8.86	16.41
12/02/2020 20:10:25	120220	12022020	201025	234.56	12.358217	-56.833428	234.63	-0.530	0.300	2.240	234.53	-1.10	2.70	 	 	 	 	 	 	 	 	 	 	 	 	 	 	 	 	 	 	1581538225	8.69	16.09
12/02/2020 20:10:26	120220	12022020	201026	234.46	12.358195	-56.833465	234.55	-0.510	0.610	1.830	234.46	-0.80	2.30	 	 	 	 	 	 	 	 	 	 	 	 	 	 	 	 	 	 	1581538226	9.09	16.83
12/02/2020 20:10:27	120220	12022020	201027	234.48	12.358172	-56.833503	234.59	-0.280	0.330	1.350	234.50	-1.00	1.80	 	 	 	 	 	 	 	 	 	 	 	 	 	 	 	 	 	 	1581538227	9.79	18.13
12/02/2020 20:10:28	120220	12022020	201028	234.67	12.358147	-56.833543	234.79	-0.050	0.130	0.900	234.72	-1.30	1.40	 	 	 	 	 	 	 	 	 	 	 	 	 	 	 	 	 	 	1581538228	9.88	18.30
12/02/2020 20:10:29	120220	12022020	201029	234.91	12.358123	-56.833580	234.99	0.040	0.220	0.790	234.94	-1.20	1.20	 	 	 	 	 	 	 	 	 	 	 	 	 	 	 	 	 	 	1581538229	9.33	17.28
12/02/2020 20:10:30	120220	12022020	201030	234.97	12.358102	-56.833617	235.01	0.080	0.340	1.180	234.97	-1.10	1.60	 	 	 	 	 	 	 	 	 	 	 	 	 	 	 	 	 	 	1581538230	8.94	16.56
12/02/2020 20:10:31	120220	12022020	201031	234.89	12.358083	-56.833655	234.94	0.150	0.250	1.650	234.86	-1.10	2.10	 	 	 	 	 	 	 	 	 	 	 	 	 	 	 	 	 	 	1581538231	8.92	16.52
12/02/2020 20:10:32	120220	12022020	201032	234.78	12.358063	-56.833693	234.83	0.280	-0.230	1.790	234.77	-1.60	2.20	 	 	 	 	 	 	 	 	 	 	 	 	 	 	 	 	 	 	1581538232	9.11	16.87
12/02/2020 20:10:33	120220	12022020	201033	234.76	12.358043	-56.833732	234.84	0.400	-0.960	1.490	234.78	-2.30	1.90	 	 	 	 	 	 	 	 	 	 	 	 	 	 	 	 	 	 	1581538233	9.37	17.35
12/02/2020 20:10:34	120220	12022020	201034	234.93	12.358020	-56.833770	235.03	0.460	-1.400	0.870	234.99	-2.80	1.30	 	 	 	 	 	 	 	 	 	 	 	 	 	 	 	 	 	 	1581538234	9.35	17.32
12/02/2020 20:10:35	120220	12022020	201035	235.26	12.357997	-56.833805	235.37	0.400	-1.360	0.230	235.33	-2.70	0.70	 	 	 	 	 	 	 	 	 	 	 	 	 	 	 	 	 	 	1581538235	9.03	16.72
12/02/2020 20:10:36	120220	12022020	201036	235.59	12.357973	-56.833840	235.66	0.200	-1.130	-0.130	235.63	-2.50	0.30	 	 	 	 	 	 	 	 	 	 	 	 	 	 	 	 	 	 	1581538236	8.97	16.61
12/02/2020 20:10:37	120220	12022020	201037	235.67	12.357948	-56.833877	235.70	-0.080	-0.930	0.050	235.65	-2.30	0.50	 	 	 	 	 	 	 	 	 	 	 	 	 	 	 	 	 	 	1581538237	9.31	17.24
12/02/2020 20:10:38	120220	12022020	201038	235.41	12.357925	-56.833915	235.39	-0.400	-0.590	0.760	235.31	-2.00	1.20	 	 	 	 	 	 	 	 	 	 	 	 	 	 	 	 	 	 	1581538238	9.61	17.80
12/02/2020 20:10:39	120220	12022020	201039	234.90	12.357905	-56.833955	234.88	-0.750	0.000	1.730	234.79	-1.40	2.10	 	 	 	 	 	 	 	 	 	 	 	 	 	 	 	 	 	 	1581538239	9.62	17.82
12/02/2020 20:10:40	120220	12022020	201040	234.36	12.357887	-56.833997	234.35	-0.990	0.660	2.620	234.25	-0.80	3.00	 	 	 	 	 	 	 	 	 	 	 	 	 	 	 	 	 	 	1581538240	9.52	17.63
12/02/2020 20:10:41	120220	12022020	201041	233.86	12.357870	-56.834038	233.87	-0.920	1.080	3.080	233.77	-0.30	3.50	 	 	 	 	 	 	 	 	 	 	 	 	 	 	 	 	 	 	1581538241	9.54	17.67
12/02/2020 20:10:42	120220	12022020	201042	233.54	12.357852	-56.834080	233.60	-0.490	1.080	2.770	233.52	-0.30	3.20	 	 	 	 	 	 	 	 	 	 	 	 	 	 	 	 	 	 	1581538242	9.53	17.65
12/02/2020 20:10:43	120220	12022020	201043	233.57	12.357828	-56.834117	233.69	0.150	0.710	1.720	233.62	-0.70	2.20	 	 	 	 	 	 	 	 	 	 	 	 	 	 	 	 	 	 	1581538243	9.42	17.45
12/02/2020 20:10:44	120220	12022020	201044	233.99	12.357803	-56.834152	234.16	0.680	0.110	0.410	234.11	-1.30	0.90	 	 	 	 	 	 	 	 	 	 	 	 	 	 	 	 	 	 	1581538244	9.31	17.24
12/02/2020 20:10:45	120220	12022020	201045	234.65	12.357777	-56.834187	234.80	0.910	-0.510	-0.530	234.78	-1.90	-0.10	 	 	 	 	 	 	 	 	 	 	 	 	 	 	 	 	 	 	1581538245	9.13	16.91
12/02/2020 20:10:46	120220	12022020	201046	235.25	12.357752	-56.834220	235.35	0.890	-0.970	-0.850	235.35	-2.30	-0.40	 	 	 	 	 	 	 	 	 	 	 	 	 	 	 	 	 	 	1581538246	8.90	16.48
12/02/2020 20:10:47	120220	12022020	201047	235.70	12.357730	-56.834255	235.79	0.760	-1.200	-0.720	235.77	-2.60	-0.30	 	 	 	 	 	 	 	 	 	 	 	 	 	 	 	 	 	 	1581538247	8.76	16.22
12/02/2020 20:10:48	120220	12022020	201048	236.02	12.357708	-56.834292	236.08	0.550	-1.300	-0.290	236.05	-2.70	0.10	 	 	 	 	 	 	 	 	 	 	 	 	 	 	 	 	 	 	1581538248	8.83	16.35
12/02/2020 20:10:49	120220	12022020	201049	236.03	12.357688	-56.834328	236.06	0.220	-1.440	0.540	235.99	-2.80	0.90	 	 	 	 	 	 	 	 	 	 	 	 	 	 	 	 	 	 	1581538249	9.17	16.98
12/02/2020 20:10:50	120220	12022020	201050	235.72	12.357667	-56.834368	235.74	-0.200	-1.480	1.590	235.64	-2.90	2.00	 	 	 	 	 	 	 	 	 	 	 	 	 	 	 	 	 	 	1581538250	9.61	17.80
12/02/2020 20:10:51	120220	12022020	201051	235.23	12.357648	-56.834410	235.25	-0.670	-1.160	2.490	235.11	-2.60	2.90	 	 	 	 	 	 	 	 	 	 	 	 	 	 	 	 	 	 	1581538251	9.79	18.13
12/02/2020 20:10:52	120220	12022020	201052	234.69	12.357628	-56.834452	234.72	-1.040	-0.430	2.890	234.59	-1.80	3.30	 	 	 	 	 	 	 	 	 	 	 	 	 	 	 	 	 	 	1581538252	9.68	17.93
12/02/2020 20:10:53	120220	12022020	201053	234.22	12.357610	-56.834493	234.28	-1.110	0.400	2.740	234.15	-1.00	3.20	 	 	 	 	 	 	 	 	 	 	 	 	 	 	 	 	 	 	1581538253	9.50	17.59
12/02/2020 20:10:54	120220	12022020	201054	233.97	12.357588	-56.834532	234.06	-0.820	0.950	2.120	233.96	-0.50	2.60	 	 	 	 	 	 	 	 	 	 	 	 	 	 	 	 	 	 	1581538254	9.50	17.59
12/02/2020 20:10:55	120220	12022020	201055	234.04	12.357565	-56.834570	234.16	-0.330	1.140	1.140	234.09	-0.30	1.60	 	 	 	 	 	 	 	 	 	 	 	 	 	 	 	 	 	 	1581538255	9.57	17.72
12/02/2020 20:10:56	120220	12022020	201056	234.40	12.357538	-56.834607	234.56	0.140	1.120	0.170	234.50	-0.30	0.70	 	 	 	 	 	 	 	 	 	 	 	 	 	 	 	 	 	 	1581538256	9.46	17.52
12/02/2020 20:10:57	120220	12022020	201057	234.86	12.357513	-56.834642	235.15	0.450	0.930	-0.400	234.97	-0.50	0.10	 	 	 	 	 	 	 	 	 	 	 	 	 	 	 	 	 	 	1581538257	9.14	16.93
12/02/2020 20:10:58	120220	12022020	201058	235.60	12.357490	-56.834677	235.75	0.660	0.400	-0.380	235.71	-1.00	0.10	 	 	 	 	 	 	 	 	 	 	 	 	 	 	 	 	 	 	1581538258	8.97	16.61
12/02/2020 20:10:59	120220	12022020	201059	236.11	12.357468	-56.834713	236.24	0.830	-0.460	0.090	236.19	-1.80	0.50	 	 	 	 	 	 	 	 	 	 	 	 	 	 	 	 	 	 	1581538259	9.12	16.89
12/02/2020 20:11:00	120220	12022020	201100	236.44	12.357450	-56.834753	236.55	0.880	-1.300	0.750	236.48	-2.70	1.20	 	 	 	 	 	 	 	 	 	 	 	 	 	 	 	 	 	 	1581538260	9.23	17.09
12/02/2020 20:11:01	120220	12022020	201101	236.56	12.357430	-56.834792	236.64	0.690	-1.810	1.290	236.56	-3.20	1.70	 	 	 	 	 	 	 	 	 	 	 	 	 	 	 	 	 	 	1581538261	9.16	16.96
12/02/2020 20:11:02	120220	12022020	201102	236.43	12.357412	-56.834830	236.48	0.280	-1.970	1.620	236.38	-3.30	2.00	1014.60	26.50	26.50	20.70	20.80	332.0	70.0	70.0	391.0	29.0	233.00	5.90	85.00	9.60	19829	8417.0	27.5	27.5	1581538262	9.10	16.85
12/02/2020 20:11:03	120220	12022020	201103	236.19	12.357392	-56.834868	236.26	-0.170	-1.750	1.630	236.16	-3.10	2.10	 	 	 	 	 	 	 	 	 	 	 	 	 	 	 	 	 	 	1581538263	9.22	17.08
12/02/2020 20:11:04	120220	12022020	201104	236.09	12.357370	-56.834907	236.19	-0.510	-1.010	1.330	236.09	-2.40	1.80	 	 	 	 	 	 	 	 	 	 	 	 	 	 	 	 	 	 	1581538264	9.14	16.93
12/02/2020 20:11:05	120220	12022020	201105	236.05	12.357348	-56.834943	236.14	-0.670	-0.130	1.010	236.04	-1.50	1.50	 	 	 	 	 	 	 	 	 	 	 	 	 	 	 	 	 	 	1581538265	9.02	16.71
12/02/2020 20:11:06	120220	12022020	201106	235.94	12.357327	-56.834980	235.99	-0.610	0.340	0.850	235.91	-1.00	1.30	 	 	 	 	 	 	 	 	 	 	 	 	 	 	 	 	 	 	1581538266	9.38	17.37
12/02/2020 20:11:07	120220	12022020	201107	235.78	12.357303	-56.835022	235.85	-0.410	0.300	0.860	235.76	-1.10	1.30	 	 	 	 	 	 	 	 	 	 	 	 	 	 	 	 	 	 	1581538267	9.96	18.45
12/02/2020 20:11:08	120220	12022020	201108	235.76	12.357280	-56.835063	235.87	-0.270	0.220	0.910	235.78	-1.20	1.40	 	 	 	 	 	 	 	 	 	 	 	 	 	 	 	 	 	 	1581538268	10.16	18.82
12/02/2020 20:11:09	120220	12022020	201109	235.89	12.357257	-56.835103	236.06	-0.240	0.440	0.850	235.94	-1.00	1.30	 	 	 	 	 	 	 	 	 	 	 	 	 	 	 	 	 	 	1581538269	9.70	17.96
12/02/2020 20:11:10	120220	12022020	201110	236.27	12.357237	-56.835140	236.40	-0.200	0.810	0.660	236.34	-0.60	1.10	 	 	 	 	 	 	 	 	 	 	 	 	 	 	 	 	 	 	1581538270	9.13	16.91
12/02/2020 20:11:11	120220	12022020	201111	236.56	12.357215	-56.835177	236.73	-0.030	0.950	0.470	236.63	-0.40	0.90	 	 	 	 	 	 	 	 	 	 	 	 	 	 	 	 	 	 	1581538271	8.93	16.54
12/02/2020 20:11:12	120220	12022020	201112	236.88	12.357195	-56.835213	236.95	0.270	0.650	0.380	236.90	-0.70	0.80	 	 	 	 	 	 	 	 	 	 	 	 	 	 	 	 	 	 	1581538272	9.03	16.72
12/02/2020 20:11:13	120220	12022020	201113	236.92	12.357173	-56.835252	236.95	0.560	-0.020	0.440	236.90	-1.40	0.90	 	 	 	 	 	 	 	 	 	 	 	 	 	 	 	 	 	 	1581538273	9.24	17.11
12/02/2020 20:11:14	120220	12022020	201114	236.74	12.357153	-56.835292	236.76	0.700	-0.760	0.580	236.68	-2.10	1.00	 	 	 	 	 	 	 	 	 	 	 	 	 	 	 	 	 	 	1581538274	9.34	17.30
12/02/2020 20:11:15	120220	12022020	201115	236.43	12.357133	-56.835330	236.45	0.660	-1.340	0.760	236.36	-2.70	1.20	 	 	 	 	 	 	 	 	 	 	 	 	 	 	 	 	 	 	1581538275	9.25	17.13
12/02/2020 20:11:16	120220	12022020	201116	236.14	12.357112	-56.835368	236.19	0.470	-1.680	0.840	236.10	-3.00	1.30	 	 	 	 	 	 	 	 	 	 	 	 	 	 	 	 	 	 	1581538276	9.18	17.00
12/02/2020 20:11:17	120220	12022020	201117	235.98	12.357092	-56.835405	236.06	0.230	-1.770	0.770	235.95	-3.10	1.20	 	 	 	 	 	 	 	 	 	 	 	 	 	 	 	 	 	 	1581538277	9.21	17.06
12/02/2020 20:11:18	120220	12022020	201118	235.92	12.357068	-56.835443	236.02	-0.030	-1.560	0.640	235.92	-2.90	1.10	 	 	 	 	 	 	 	 	 	 	 	 	 	 	 	 	 	 	1581538278	9.33	17.28
12/02/2020 20:11:19	120220	12022020	201119	235.99	12.357047	-56.835482	236.11	-0.300	-1.050	0.500	236.02	-2.40	0.90	 	 	 	 	 	 	 	 	 	 	 	 	 	 	 	 	 	 	1581538279	9.38	17.37
12/02/2020 20:11:20	120220	12022020	201120	236.14	12.357025	-56.835520	236.26	-0.530	-0.400	0.690	236.17	-1.80	1.10	 	 	 	 	 	 	 	 	 	 	 	 	 	 	 	 	 	 	1581538280	9.45	17.50
12/02/2020 20:11:21	120220	12022020	201121	236.25	12.357005	-56.835562	236.36	-0.620	0.180	1.160	236.26	-1.20	1.60	 	 	 	 	 	 	 	 	 	 	 	 	 	 	 	 	 	 	1581538281	9.64	17.85
12/02/2020 20:11:22	120220	12022020	201122	236.29	12.356985	-56.835603	236.40	-0.530	0.620	1.590	236.29	-0.80	2.00	 	 	 	 	 	 	 	 	 	 	 	 	 	 	 	 	 	 	1581538282	9.79	18.13
12/02/2020 20:11:23	120220	12022020	201123	236.25	12.356965	-56.835645	236.33	-0.330	0.990	1.810	236.23	-0.40	2.20	 	 	 	 	 	 	 	 	 	 	 	 	 	 	 	 	 	 	1581538283	9.77	18.09
12/02/2020 20:11:24	120220	12022020	201124	236.17	12.356943	-56.835683	236.27	-0.090	1.280	1.700	236.17	-0.10	2.10	 	 	 	 	 	 	 	 	 	 	 	 	 	 	 	 	 	 	1581538284	9.48	17.56
12/02/2020 20:11:25	120220	12022020	201125	236.15	12.356922	-56.835722	236.25	0.150	1.190	1.260	236.16	-0.20	1.70	 	 	 	 	 	 	 	 	 	 	 	 	 	 	 	 	 	 	1581538285	9.30	17.22
12/02/2020 20:11:26	120220	12022020	201126	236.20	12.356898	-56.835758	236.28	0.370	0.570	0.680	236.20	-0.80	1.10	 	 	 	 	 	 	 	 	 	 	 	 	 	 	 	 	 	 	1581538286	9.40	17.41
12/02/2020 20:11:27	120220	12022020	201127	236.17	12.356873	-56.835797	236.22	0.510	-0.380	0.370	236.16	-1.70	0.80	 	 	 	 	 	 	 	 	 	 	 	 	 	 	 	 	 	 	1581538287	9.55	17.69
12/02/2020 20:11:28	120220	12022020	201128	236.06	12.356852	-56.835835	236.10	0.520	-1.200	0.470	236.04	-2.60	0.90	 	 	 	 	 	 	 	 	 	 	 	 	 	 	 	 	 	 	1581538288	9.49	17.58
12/02/2020 20:11:29	120220	12022020	201129	236.00	12.356833	-56.835875	236.07	0.450	-1.540	0.670	236.01	-2.90	1.10	 	 	 	 	 	 	 	 	 	 	 	 	 	 	 	 	 	 	1581538289	9.14	16.93
12/02/2020 20:11:30	120220	12022020	201130	236.04	12.356813	-56.835912	236.13	0.370	-1.480	0.740	236.05	-2.90	1.20	 	 	 	 	 	 	 	 	 	 	 	 	 	 	 	 	 	 	1581538290	8.80	16.30
12/02/2020 20:11:31	120220	12022020	201131	236.13	12.356793	-56.835948	236.21	0.290	-1.330	0.720	236.14	-2.70	1.20	 	 	 	 	 	 	 	 	 	 	 	 	 	 	 	 	 	 	1581538291	8.81	16.32
12/02/2020 20:11:32	120220	12022020	201132	236.13	12.356772	-56.835985	236.19	0.160	-1.330	0.790	236.10	-2.70	1.20	 	 	 	 	 	 	 	 	 	 	 	 	 	 	 	 	 	 	1581538292	9.27	17.17
12/02/2020 20:11:33	120220	12022020	201133	235.89	12.356748	-56.836025	235.92	-0.040	-1.300	1.090	235.83	-2.70	1.50	 	 	 	 	 	 	 	 	 	 	 	 	 	 	 	 	 	 	1581538293	9.84	18.22
12/02/2020 20:11:34	120220	12022020	201134	235.63	12.356725	-56.836067	235.71	-0.380	-0.760	1.370	235.61	-2.20	1.80	 	 	 	 	 	 	 	 	 	 	 	 	 	 	 	 	 	 	1581538294	9.95	18.43
12/02/2020 20:11:35	120220	12022020	201135	235.70	12.356705	-56.836107	235.84	-0.790	0.250	1.380	235.76	-1.20	1.80	 	 	 	 	 	 	 	 	 	 	 	 	 	 	 	 	 	 	1581538295	9.54	17.67
12/02/2020 20:11:36	120220	12022020	201136	236.16	12.356687	-56.836147	236.36	-0.990	1.150	1.170	236.27	-0.30	1.60	 	 	 	 	 	 	 	 	 	 	 	 	 	 	 	 	 	 	1581538296	9.33	17.28
12/02/2020 20:11:37	120220	12022020	201137	236.83	12.356667	-56.836185	237.05	-0.790	1.510	0.790	236.96	0.10	1.20	 	 	 	 	 	 	 	 	 	 	 	 	 	 	 	 	 	 	1581538297	9.45	17.50
12/02/2020 20:11:38	120220	12022020	201138	237.43	12.356643	-56.836225	237.59	-0.250	1.230	0.470	237.51	-0.10	0.90	 	 	 	 	 	 	 	 	 	 	 	 	 	 	 	 	 	 	1581538298	9.69	17.95
12/02/2020 20:11:39	120220	12022020	201139	237.66	12.356620	-56.836265	237.74	0.370	0.560	0.480	237.65	-0.80	0.90	 	 	 	 	 	 	 	 	 	 	 	 	 	 	 	 	 	 	1581538299	9.85	18.24
12/02/2020 20:11:40	120220	12022020	201140	237.46	12.356597	-56.836305	237.48	0.730	-0.110	0.780	237.37	-1.50	1.20	 	 	 	 	 	 	 	 	 	 	 	 	 	 	 	 	 	 	1581538300	9.67	17.91
12/02/2020 20:11:41	120220	12022020	201141	236.98	12.356577	-56.836343	236.99	0.720	-0.630	1.180	236.87	-2.00	1.60	 	 	 	 	 	 	 	 	 	 	 	 	 	 	 	 	 	 	1581538301	9.27	17.17
12/02/2020 20:11:42	120220	12022020	201142	236.48	12.356557	-56.836382	236.51	0.490	-1.060	1.520	236.39	-2.40	1.90	 	 	 	 	 	 	 	 	 	 	 	 	 	 	 	 	 	 	1581538302	9.19	17.02
12/02/2020 20:11:43	120220	12022020	201143	236.14	12.356538	-56.836422	236.21	0.220	-1.250	1.660	236.09	-2.60	2.10	 	 	 	 	 	 	 	 	 	 	 	 	 	 	 	 	 	 	1581538303	9.20	17.04
12/02/2020 20:11:44	120220	12022020	201144	236.02	12.356518	-56.836460	236.15	0.030	-1.130	1.480	236.03	-2.50	1.90	 	 	 	 	 	 	 	 	 	 	 	 	 	 	 	 	 	 	1581538304	9.08	16.82
12/02/2020 20:11:45	120220	12022020	201145	236.21	12.356500	-56.836497	236.40	-0.050	-0.830	0.920	236.30	-2.20	1.40	 	 	 	 	 	 	 	 	 	 	 	 	 	 	 	 	 	 	1581538305	8.99	16.65
12/02/2020 20:11:46	120220	12022020	201146	236.76	12.356478	-56.836533	236.99	-0.080	-0.580	0.240	236.89	-2.00	0.70	 	 	 	 	 	 	 	 	 	 	 	 	 	 	 	 	 	 	1581538306	9.10	16.85
12/02/2020 20:11:47	120220	12022020	201147	237.27	12.356455	-56.836572	237.57	-0.140	-0.570	-0.100	237.38	-2.00	0.40	 	 	 	 	 	 	 	 	 	 	 	 	 	 	 	 	 	 	1581538307	9.44	17.48
12/02/2020 20:11:48	120220	12022020	201148	237.82	12.356433	-56.836613	237.96	-0.250	-0.660	-0.040	237.89	-2.10	0.40	 	 	 	 	 	 	 	 	 	 	 	 	 	 	 	 	 	 	1581538308	9.84	18.22
12/02/2020 20:11:49	120220	12022020	201149	238.12	12.356412	-56.836653	238.22	-0.370	-0.540	0.140	238.16	-2.00	0.60	 	 	 	 	 	 	 	 	 	 	 	 	 	 	 	 	 	 	1581538309	9.88	18.30
12/02/2020 20:11:50	120220	12022020	201150	238.21	12.356390	-56.836695	238.24	-0.400	-0.180	0.400	238.19	-1.60	0.80	 	 	 	 	 	 	 	 	 	 	 	 	 	 	 	 	 	 	1581538310	9.67	17.91
12/02/2020 20:11:51	120220	12022020	201151	237.98	12.356368	-56.836733	237.97	-0.290	0.260	0.780	237.90	-1.20	1.20	 	 	 	 	 	 	 	 	 	 	 	 	 	 	 	 	 	 	1581538311	9.53	17.65
12/02/2020 20:11:52	120220	12022020	201152	237.56	12.356347	-56.836773	237.54	-0.140	0.620	1.180	237.46	-0.80	1.60	 	 	 	 	 	 	 	 	 	 	 	 	 	 	 	 	 	 	1581538312	9.49	17.58
12/02/2020 20:11:53	120220	12022020	201153	237.05	12.356327	-56.836813	237.01	-0.060	0.770	1.500	236.93	-0.60	1.90	 	 	 	 	 	 	 	 	 	 	 	 	 	 	 	 	 	 	1581538313	9.47	17.54
12/02/2020 20:11:54	120220	12022020	201154	236.46	12.356307	-56.836853	236.43	-0.070	0.580	1.730	236.33	-0.80	2.20	 	 	 	 	 	 	 	 	 	 	 	 	 	 	 	 	 	 	1581538314	9.52	17.63
12/02/2020 20:11:55	120220	12022020	201155	235.93	12.356285	-56.836893	235.94	-0.070	0.170	1.790	235.85	-1.20	2.20	 	 	 	 	 	 	 	 	 	 	 	 	 	 	 	 	 	 	1581538315	9.63	17.83
12/02/2020 20:11:56	120220	12022020	201156	235.74	12.356265	-56.836933	235.83	0.000	-0.110	1.400	235.75	-1.50	1.90	 	 	 	 	 	 	 	 	 	 	 	 	 	 	 	 	 	 	1581538316	9.47	17.54
12/02/2020 20:11:57	120220	12022020	201157	236.04	12.356245	-56.836970	236.22	0.140	-0.190	0.590	236.16	-1.60	1.10	 	 	 	 	 	 	 	 	 	 	 	 	 	 	 	 	 	 	1581538317	8.98	16.63
12/02/2020 20:11:58	120220	12022020	201158	236.76	12.356223	-56.837005	236.97	0.350	-0.510	-0.200	236.92	-1.90	0.30	 	 	 	 	 	 	 	 	 	 	 	 	 	 	 	 	 	 	1581538318	8.81	16.32
12/02/2020 20:11:59	120220	12022020	201159	237.39	12.356202	-56.837043	237.67	0.630	-1.360	-0.370	237.51	-2.70	0.10	 	 	 	 	 	 	 	 	 	 	 	 	 	 	 	 	 	 	1581538319	9.32	17.26
12/02/2020 20:12:00	120220	12022020	201200	237.87	12.356180	-56.837085	237.94	0.830	-2.260	0.140	237.88	-3.60	0.50	 	 	 	 	 	 	 	 	 	 	 	 	 	 	 	 	 	 	1581538320	9.94	18.41
12/02/2020 20:12:01	120220	12022020	201201	237.77	12.356160	-56.837128	237.71	0.700	-2.370	1.040	237.71	-3.80	1.40	 	 	 	 	 	 	 	 	 	 	 	 	 	 	 	 	 	 	1581538321	9.94	18.41
12/02/2020 20:12:02	120220	12022020	201202	237.32	12.356143	-56.837168	237.33	0.130	-1.460	1.900	237.25	-2.90	2.30	1014.60	26.40	26.50	20.60	20.70	329.0	70.0	70.0	390.0	28.9	234.00	5.70	86.00	9.40	21333	9295.0	27.5	27.5	1581538322	9.41	17.43
12/02/2020 20:12:03	120220	12022020	201203	237.01	12.356127	-56.837208	237.06	-0.640	-0.110	2.380	236.96	-1.60	2.80	 	 	 	 	 	 	 	 	 	 	 	 	 	 	 	 	 	 	1581538323	9.06	16.78
12/02/2020 20:12:04	120220	12022020	201204	236.78	12.356108	-56.837247	236.88	-1.180	1.060	2.450	236.75	-0.40	2.90	 	 	 	 	 	 	 	 	 	 	 	 	 	 	 	 	 	 	1581538324	9.20	17.04
12/02/2020 20:12:05	120220	12022020	201205	236.66	12.356088	-56.837287	236.76	-1.230	1.710	2.220	236.64	0.30	2.70	 	 	 	 	 	 	 	 	 	 	 	 	 	 	 	 	 	 	1581538325	9.47	17.54
12/02/2020 20:12:06	120220	12022020	201206	236.54	12.356065	-56.837327	236.61	-0.770	1.650	1.790	236.51	0.30	2.30	 	 	 	 	 	 	 	 	 	 	 	 	 	 	 	 	 	 	1581538326	9.77	18.09
12/02/2020 20:12:07	120220	12022020	201207	236.33	12.356042	-56.837368	236.37	-0.080	1.050	1.480	236.27	-0.30	1.90	 	 	 	 	 	 	 	 	 	 	 	 	 	 	 	 	 	 	1581538327	9.99	18.50
12/02/2020 20:12:08	120220	12022020	201208	236.02	12.356018	-56.837408	236.06	0.480	0.230	1.480	235.95	-1.10	1.90	 	 	 	 	 	 	 	 	 	 	 	 	 	 	 	 	 	 	1581538328	9.87	18.28
12/02/2020 20:12:09	120220	12022020	201209	235.72	12.355998	-56.837448	235.79	0.740	-0.460	1.600	235.69	-1.80	2.00	 	 	 	 	 	 	 	 	 	 	 	 	 	 	 	 	 	 	1581538329	9.47	17.54
12/02/2020 20:12:10	120220	12022020	201210	235.67	12.355980	-56.837485	235.79	0.830	-0.960	1.460	235.70	-2.30	1.90	 	 	 	 	 	 	 	 	 	 	 	 	 	 	 	 	 	 	1581538330	8.99	16.65
12/02/2020 20:12:11	120220	12022020	201211	235.94	12.355960	-56.837522	236.12	0.830	-1.390	0.980	236.03	-2.80	1.40	 	 	 	 	 	 	 	 	 	 	 	 	 	 	 	 	 	 	1581538331	8.82	16.33
12/02/2020 20:12:12	120220	12022020	201212	236.43	12.355938	-56.837558	236.61	0.650	-1.730	0.400	236.54	-3.10	0.90	 	 	 	 	 	 	 	 	 	 	 	 	 	 	 	 	 	 	1581538332	8.99	16.65
12/02/2020 20:12:13	120220	12022020	201213	236.93	12.355915	-56.837595	237.08	0.250	-1.800	-0.040	237.02	-3.20	0.40	 	 	 	 	 	 	 	 	 	 	 	 	 	 	 	 	 	 	1581538333	9.21	17.06
12/02/2020 20:12:14	120220	12022020	201214	237.23	12.355893	-56.837633	237.32	-0.250	-1.440	-0.100	237.26	-2.90	0.30	 	 	 	 	 	 	 	 	 	 	 	 	 	 	 	 	 	 	1581538334	9.29	17.21
12/02/2020 20:12:15	120220	12022020	201215	237.22	12.355872	-56.837672	237.24	-0.660	-0.650	0.290	237.17	-2.10	0.70	 	 	 	 	 	 	 	 	 	 	 	 	 	 	 	 	 	 	1581538335	9.25	17.13
12/02/2020 20:12:16	120220	12022020	201216	236.86	12.355852	-56.837710	236.84	-0.880	0.210	0.960	236.75	-1.20	1.40	 	 	 	 	 	 	 	 	 	 	 	 	 	 	 	 	 	 	1581538336	9.28	17.19
12/02/2020 20:12:17	120220	12022020	201217	236.25	12.355832	-56.837750	236.25	-0.890	0.720	1.620	236.13	-0.70	2.00	 	 	 	 	 	 	 	 	 	 	 	 	 	 	 	 	 	 	1581538337	9.60	17.78
12/02/2020 20:12:18	120220	12022020	201218	235.71	12.355812	-56.837793	235.75	-0.750	0.940	2.020	235.63	-0.50	2.40	 	 	 	 	 	 	 	 	 	 	 	 	 	 	 	 	 	 	1581538338	9.91	18.35
12/02/2020 20:12:19	120220	12022020	201219	235.40	12.355790	-56.837833	235.48	-0.510	1.060	2.130	235.37	-0.30	2.60	 	 	 	 	 	 	 	 	 	 	 	 	 	 	 	 	 	 	1581538339	9.72	18.00
12/02/2020 20:12:20	120220	12022020	201220	235.37	12.355770	-56.837873	235.48	-0.150	1.020	1.900	235.39	-0.40	2.30	 	 	 	 	 	 	 	 	 	 	 	 	 	 	 	 	 	 	1581538340	9.35	17.32
12/02/2020 20:12:21	120220	12022020	201221	235.55	12.355750	-56.837910	235.66	0.340	0.580	1.310	235.60	-0.80	1.80	 	 	 	 	 	 	 	 	 	 	 	 	 	 	 	 	 	 	1581538341	9.16	16.96
12/02/2020 20:12:22	120220	12022020	201222	235.82	12.355727	-56.837948	235.92	0.840	-0.290	0.550	235.88	-1.60	1.00	 	 	 	 	 	 	 	 	 	 	 	 	 	 	 	 	 	 	1581538342	9.31	17.24
12/02/2020 20:12:23	120220	12022020	201223	236.12	12.355703	-56.837985	236.22	1.110	-1.190	0.020	236.18	-2.60	0.50	 	 	 	 	 	 	 	 	 	 	 	 	 	 	 	 	 	 	1581538343	9.37	17.35
12/02/2020 20:12:24	120220	12022020	201224	236.42	12.355680	-56.838022	236.53	1.020	-1.680	-0.080	236.48	-3.10	0.40	 	 	 	 	 	 	 	 	 	 	 	 	 	 	 	 	 	 	1581538344	9.18	17.00
12/02/2020 20:12:25	120220	12022020	201225	236.63	12.355660	-56.838058	236.74	0.580	-1.600	0.090	236.66	-3.00	0.50	 	 	 	 	 	 	 	 	 	 	 	 	 	 	 	 	 	 	1581538345	8.87	16.43
12/02/2020 20:12:26	120220	12022020	201226	236.73	12.355640	-56.838095	236.82	0.020	-1.170	0.420	236.73	-2.60	0.80	 	 	 	 	 	 	 	 	 	 	 	 	 	 	 	 	 	 	1581538346	8.80	16.30
12/02/2020 20:12:27	120220	12022020	201227	236.70	12.355620	-56.838133	236.77	-0.400	-0.620	0.800	236.67	-2.00	1.20	 	 	 	 	 	 	 	 	 	 	 	 	 	 	 	 	 	 	1581538347	9.00	16.67
12/02/2020 20:12:28	120220	12022020	201228	236.51	12.355602	-56.838172	236.55	-0.580	-0.100	1.180	236.45	-1.50	1.60	 	 	 	 	 	 	 	 	 	 	 	 	 	 	 	 	 	 	1581538348	9.23	17.09
12/02/2020 20:12:29	120220	12022020	201229	236.14	12.355580	-56.838212	236.15	-0.560	0.190	1.510	236.05	-1.20	1.90	 	 	 	 	 	 	 	 	 	 	 	 	 	 	 	 	 	 	1581538349	9.52	17.63
12/02/2020 20:12:30	120220	12022020	201230	235.72	12.355560	-56.838252	235.79	-0.440	0.280	1.720	235.66	-1.10	2.10	 	 	 	 	 	 	 	 	 	 	 	 	 	 	 	 	 	 	1581538350	9.77	18.09
12/02/2020 20:12:31	120220	12022020	201231	235.54	12.355538	-56.838293	235.65	-0.350	0.310	1.690	235.54	-1.10	2.10	 	 	 	 	 	 	 	 	 	 	 	 	 	 	 	 	 	 	1581538351	9.73	18.02
12/02/2020 20:12:32	120220	12022020	201232	235.65	12.355518	-56.838332	235.80	-0.260	0.380	1.270	235.70	-1.00	1.70	 	 	 	 	 	 	 	 	 	 	 	 	 	 	 	 	 	 	1581538352	9.39	17.39
12/02/2020 20:12:33	120220	12022020	201233	235.92	12.355495	-56.838368	236.08	-0.090	0.350	0.710	235.98	-1.00	1.20	 	 	 	 	 	 	 	 	 	 	 	 	 	 	 	 	 	 	1581538353	9.09	16.83
12/02/2020 20:12:34	120220	12022020	201234	236.20	12.355473	-56.838405	236.33	0.200	0.080	0.350	236.25	-1.30	0.80	 	 	 	 	 	 	 	 	 	 	 	 	 	 	 	 	 	 	1581538354	9.12	16.89
12/02/2020 20:12:35	120220	12022020	201235	236.38	12.355450	-56.838442	236.51	0.460	-0.370	0.370	236.40	-1.80	0.80	 	 	 	 	 	 	 	 	 	 	 	 	 	 	 	 	 	 	1581538355	9.26	17.15
12/02/2020 20:12:36	120220	12022020	201236	236.39	12.355428	-56.838480	236.48	0.540	-0.790	0.730	236.38	-2.20	1.10	 	 	 	 	 	 	 	 	 	 	 	 	 	 	 	 	 	 	1581538356	9.32	17.26
12/02/2020 20:12:37	120220	12022020	201237	236.32	12.355408	-56.838518	236.42	0.420	-1.000	1.040	236.32	-2.40	1.50	 	 	 	 	 	 	 	 	 	 	 	 	 	 	 	 	 	 	1581538357	9.27	17.17
12/02/2020 20:12:38	120220	12022020	201238	236.37	12.355388	-56.838557	236.52	0.190	-0.950	1.070	236.40	-2.40	1.50	 	 	 	 	 	 	 	 	 	 	 	 	 	 	 	 	 	 	1581538358	9.11	16.87
12/02/2020 20:12:39	120220	12022020	201239	236.52	12.355368	-56.838593	236.65	0.000	-0.710	1.020	236.54	-2.10	1.40	 	 	 	 	 	 	 	 	 	 	 	 	 	 	 	 	 	 	1581538359	9.03	16.72
12/02/2020 20:12:40	120220	12022020	201240	236.56	12.355347	-56.838632	236.67	-0.090	-0.470	1.160	236.55	-1.90	1.60	 	 	 	 	 	 	 	 	 	 	 	 	 	 	 	 	 	 	1581538360	9.17	16.98
12/02/2020 20:12:41	120220	12022020	201241	236.45	12.355328	-56.838672	236.52	-0.100	-0.270	1.490	236.41	-1.70	1.90	 	 	 	 	 	 	 	 	 	 	 	 	 	 	 	 	 	 	1581538361	9.38	17.37
12/02/2020 20:12:42	120220	12022020	201242	236.21	12.355308	-56.838713	236.27	-0.080	-0.120	1.830	236.15	-1.50	2.20	 	 	 	 	 	 	 	 	 	 	 	 	 	 	 	 	 	 	1581538362	9.54	17.67
12/02/2020 20:12:43	120220	12022020	201243	235.92	12.355288	-56.838753	236.00	-0.090	0.070	1.940	235.87	-1.30	2.40	 	 	 	 	 	 	 	 	 	 	 	 	 	 	 	 	 	 	1581538363	9.57	17.72
12/02/2020 20:12:44	120220	12022020	201244	235.74	12.355267	-56.838792	235.86	-0.190	0.390	1.740	235.72	-1.00	2.20	 	 	 	 	 	 	 	 	 	 	 	 	 	 	 	 	 	 	1581538364	9.33	17.28
12/02/2020 20:12:45	120220	12022020	201245	235.75	12.355245	-56.838828	235.89	-0.340	0.590	1.330	235.77	-0.80	1.80	 	 	 	 	 	 	 	 	 	 	 	 	 	 	 	 	 	 	1581538365	9.05	16.76
12/02/2020 20:12:46	120220	12022020	201246	235.98	12.355222	-56.838865	236.16	-0.360	0.370	0.740	236.06	-1.00	1.20	 	 	 	 	 	 	 	 	 	 	 	 	 	 	 	 	 	 	1581538366	9.10	16.85
12/02/2020 20:12:47	120220	12022020	201247	236.48	12.355198	-56.838902	236.66	-0.140	-0.240	-0.020	236.59	-1.60	0.40	 	 	 	 	 	 	 	 	 	 	 	 	 	 	 	 	 	 	1581538367	9.37	17.35
12/02/2020 20:12:48	120220	12022020	201248	237.00	12.355175	-56.838940	237.15	0.250	-0.920	-0.560	237.09	-2.30	-0.10	 	 	 	 	 	 	 	 	 	 	 	 	 	 	 	 	 	 	1581538368	9.55	17.69
12/02/2020 20:12:49	120220	12022020	201249	237.28	12.355150	-56.838977	237.43	0.580	-1.200	-0.610	237.32	-2.60	-0.20	 	 	 	 	 	 	 	 	 	 	 	 	 	 	 	 	 	 	1581538369	9.40	17.41
12/02/2020 20:12:50	120220	12022020	201250	237.41	12.355128	-56.839013	237.46	0.640	-1.050	-0.140	237.39	-2.50	0.30	 	 	 	 	 	 	 	 	 	 	 	 	 	 	 	 	 	 	1581538370	9.00	16.67
12/02/2020 20:12:51	120220	12022020	201251	237.26	12.355110	-56.839052	237.20	0.400	-0.850	0.680	237.19	-2.30	1.10	 	 	 	 	 	 	 	 	 	 	 	 	 	 	 	 	 	 	1581538371	9.04	16.74
12/02/2020 20:12:52	120220	12022020	201252	236.78	12.355092	-56.839092	236.82	0.000	-0.720	1.520	236.70	-2.10	1.90	 	 	 	 	 	 	 	 	 	 	 	 	 	 	 	 	 	 	1581538372	9.48	17.56
12/02/2020 20:12:53	120220	12022020	201253	236.38	12.355073	-56.839135	236.45	-0.390	-0.490	2.090	236.32	-1.90	2.50	 	 	 	 	 	 	 	 	 	 	 	 	 	 	 	 	 	 	1581538373	9.72	18.00
12/02/2020 20:12:54	120220	12022020	201254	236.15	12.355055	-56.839177	236.25	-0.610	-0.040	2.250	236.13	-1.50	2.70	 	 	 	 	 	 	 	 	 	 	 	 	 	 	 	 	 	 	1581538374	9.62	17.82
12/02/2020 20:12:55	120220	12022020	201255	236.08	12.355037	-56.839215	236.21	-0.580	0.460	2.020	236.08	-1.00	2.50	 	 	 	 	 	 	 	 	 	 	 	 	 	 	 	 	 	 	1581538375	9.38	17.37
12/02/2020 20:12:56	120220	12022020	201256	236.11	12.355015	-56.839253	236.25	-0.340	0.740	1.490	236.12	-0.70	1.90	 	 	 	 	 	 	 	 	 	 	 	 	 	 	 	 	 	 	1581538376	9.30	17.22
12/02/2020 20:12:57	120220	12022020	201257	236.15	12.354992	-56.839292	236.27	-0.020	0.570	0.970	236.15	-0.80	1.40	 	 	 	 	 	 	 	 	 	 	 	 	 	 	 	 	 	 	1581538377	9.43	17.46
12/02/2020 20:12:58	120220	12022020	201258	236.24	12.354968	-56.839330	236.40	0.170	0.010	0.540	236.28	-1.40	1.00	 	 	 	 	 	 	 	 	 	 	 	 	 	 	 	 	 	 	1581538378	9.66	17.89
12/02/2020 20:12:59	120220	12022020	201259	236.54	12.354945	-56.839368	236.72	0.180	-0.480	0.130	236.62	-1.90	0.60	 	 	 	 	 	 	 	 	 	 	 	 	 	 	 	 	 	 	1581538379	9.60	17.78
12/02/2020 20:13:00	120220	12022020	201300	236.96	12.354922	-56.839405	237.15	0.110	-0.570	-0.180	237.05	-2.00	0.30	 	 	 	 	 	 	 	 	 	 	 	 	 	 	 	 	 	 	1581538380	9.17	16.98
12/02/2020 20:13:01	120220	12022020	201301	237.37	12.354900	-56.839442	237.53	0.130	-0.380	-0.230	237.44	-1.80	0.20	 	 	 	 	 	 	 	 	 	 	 	 	 	 	 	 	 	 	1581538381	8.77	16.24
12/02/2020 20:13:02	120220	12022020	201302	237.67	12.354880	-56.839477	237.80	0.220	-0.270	0.060	237.71	-1.70	0.50	1014.60	26.40	26.40	20.30	20.50	325.0	69.0	69.0	390.0	28.9	228.00	6.10	83.00	10.00	21089	9201.0	27.5	27.5	1581538382	8.73	16.17
12/02/2020 20:13:03	120220	12022020	201303	237.69	12.354860	-56.839515	237.75	0.310	-0.510	0.650	237.64	-1.90	1.10	 	 	 	 	 	 	 	 	 	 	 	 	 	 	 	 	 	 	1581538383	9.11	16.87
12/02/2020 20:13:04	120220	12022020	201304	237.31	12.354840	-56.839555	237.34	0.330	-0.930	1.330	237.21	-2.30	1.70	 	 	 	 	 	 	 	 	 	 	 	 	 	 	 	 	 	 	1581538384	9.61	17.80
12/02/2020 20:13:05	120220	12022020	201305	236.76	12.354822	-56.839598	236.80	0.220	-1.190	1.870	236.66	-2.60	2.30	 	 	 	 	 	 	 	 	 	 	 	 	 	 	 	 	 	 	1581538385	9.78	18.11
12/02/2020 20:13:06	120220	12022020	201306	236.19	12.354802	-56.839638	236.24	0.040	-1.130	2.160	236.09	-2.50	2.60	 	 	 	 	 	 	 	 	 	 	 	 	 	 	 	 	 	 	1581538386	9.67	17.91
12/02/2020 20:13:07	120220	12022020	201307	235.78	12.354782	-56.839680	235.88	-0.140	-0.840	2.080	235.74	-2.20	2.50	 	 	 	 	 	 	 	 	 	 	 	 	 	 	 	 	 	 	1581538387	9.56	17.71
12/02/2020 20:13:08	120220	12022020	201308	235.64	12.354760	-56.839718	235.78	-0.280	-0.540	1.730	235.64	-1.90	2.20	 	 	 	 	 	 	 	 	 	 	 	 	 	 	 	 	 	 	1581538388	9.60	17.78
12/02/2020 20:13:09	120220	12022020	201309	235.69	12.354737	-56.839758	235.85	-0.410	-0.200	1.340	235.72	-1.60	1.80	 	 	 	 	 	 	 	 	 	 	 	 	 	 	 	 	 	 	1581538389	9.76	18.08
12/02/2020 20:13:10	120220	12022020	201310	235.95	12.354713	-56.839797	236.17	-0.560	0.400	0.910	236.04	-1.00	1.40	 	 	 	 	 	 	 	 	 	 	 	 	 	 	 	 	 	 	1581538390	9.62	17.82
12/02/2020 20:13:11	120220	12022020	201311	236.47	12.354692	-56.839833	236.71	-0.680	1.200	0.520	236.59	-0.20	1.00	 	 	 	 	 	 	 	 	 	 	 	 	 	 	 	 	 	 	1581538391	9.12	16.89
12/02/2020 20:13:12	120220	12022020	201312	237.09	12.354670	-56.839870	237.30	-0.630	1.580	0.370	237.20	0.20	0.80	 	 	 	 	 	 	 	 	 	 	 	 	 	 	 	 	 	 	1581538392	8.92	16.52
12/02/2020 20:13:13	120220	12022020	201313	237.59	12.354648	-56.839908	237.77	-0.270	1.140	0.500	237.67	-0.20	0.90	 	 	 	 	 	 	 	 	 	 	 	 	 	 	 	 	 	 	1581538393	9.25	17.13
12/02/2020 20:13:14	120220	12022020	201314	237.85	12.354628	-56.839948	237.98	0.360	0.090	0.690	237.87	-1.30	1.10	 	 	 	 	 	 	 	 	 	 	 	 	 	 	 	 	 	 	1581538394	9.68	17.93
12/02/2020 20:13:15	120220	12022020	201315	237.81	12.354607	-56.839990	237.88	0.930	-1.060	0.970	237.77	-2.40	1.40	 	 	 	 	 	 	 	 	 	 	 	 	 	 	 	 	 	 	1581538395	9.78	18.11
12/02/2020 20:13:16	120220	12022020	201316	237.49	12.354585	-56.840028	237.52	1.120	-1.790	1.310	237.40	-3.10	1.70	 	 	 	 	 	 	 	 	 	 	 	 	 	 	 	 	 	 	1581538396	9.53	17.65
12/02/2020 20:13:17	120220	12022020	201317	237.03	12.354565	-56.840067	237.08	0.860	-1.850	1.480	236.96	-3.20	1.90	 	 	 	 	 	 	 	 	 	 	 	 	 	 	 	 	 	 	1581538397	9.11	16.87
12/02/2020 20:13:18	120220	12022020	201318	236.73	12.354545	-56.840103	236.83	0.340	-1.390	1.320	236.71	-2.80	1.80	 	 	 	 	 	 	 	 	 	 	 	 	 	 	 	 	 	 	1581538398	8.78	16.26
12/02/2020 20:13:19	120220	12022020	201319	236.73	12.354525	-56.840140	236.87	-0.110	-0.910	0.900	236.76	-2.30	1.40	 	 	 	 	 	 	 	 	 	 	 	 	 	 	 	 	 	 	1581538399	8.88	16.45
12/02/2020 20:13:20	120220	12022020	201320	236.97	12.354502	-56.840178	237.13	-0.370	-0.620	0.410	237.03	-2.00	0.90	 	 	 	 	 	 	 	 	 	 	 	 	 	 	 	 	 	 	1581538400	9.39	17.39
12/02/2020 20:13:21	120220	12022020	201321	237.27	12.354478	-56.840218	237.42	-0.500	-0.470	0.150	237.32	-1.90	0.60	 	 	 	 	 	 	 	 	 	 	 	 	 	 	 	 	 	 	1581538401	9.85	18.24
12/02/2020 20:13:22	120220	12022020	201322	237.43	12.354455	-56.840260	237.54	-0.600	-0.280	0.270	237.43	-1.70	0.70	 	 	 	 	 	 	 	 	 	 	 	 	 	 	 	 	 	 	1581538402	10.08	18.67
12/02/2020 20:13:23	120220	12022020	201323	237.41	12.354433	-56.840302	237.48	-0.730	0.080	0.550	237.39	-1.30	1.00	 	 	 	 	 	 	 	 	 	 	 	 	 	 	 	 	 	 	1581538403	9.99	18.50
12/02/2020 20:13:24	120220	12022020	201324	237.27	12.354413	-56.840342	237.32	-0.800	0.590	0.850	237.23	-0.80	1.30	 	 	 	 	 	 	 	 	 	 	 	 	 	 	 	 	 	 	1581538404	9.74	18.04
12/02/2020 20:13:25	120220	12022020	201325	237.15	12.354393	-56.840382	237.23	-0.640	1.210	1.010	237.14	-0.20	1.40	 	 	 	 	 	 	 	 	 	 	 	 	 	 	 	 	 	 	1581538405	9.40	17.41
12/02/2020 20:13:26	120220	12022020	201326	237.21	12.354375	-56.840420	237.35	-0.240	1.630	0.840	237.26	0.20	1.30	 	 	 	 	 	 	 	 	 	 	 	 	 	 	 	 	 	 	1581538406	8.99	16.65
12/02/2020 20:13:27	120220	12022020	201327	237.47	12.354353	-56.840457	237.71	0.280	1.310	0.410	237.55	-0.00	0.90	 	 	 	 	 	 	 	 	 	 	 	 	 	 	 	 	 	 	1581538407	8.99	16.65
12/02/2020 20:13:28	120220	12022020	201328	237.95	12.354330	-56.840495	238.08	0.760	0.080	0.160	238.00	-1.20	0.60	 	 	 	 	 	 	 	 	 	 	 	 	 	 	 	 	 	 	1581538408	9.49	17.58
12/02/2020 20:13:29	120220	12022020	201329	238.11	12.354308	-56.840537	238.19	1.030	-1.390	0.340	238.10	-2.70	0.80	 	 	 	 	 	 	 	 	 	 	 	 	 	 	 	 	 	 	1581538409	9.93	18.39
12/02/2020 20:13:30	120220	12022020	201330	237.94	12.354288	-56.840577	237.97	0.990	-2.190	0.840	237.88	-3.50	1.20	 	 	 	 	 	 	 	 	 	 	 	 	 	 	 	 	 	 	1581538410	9.69	17.95
12/02/2020 20:13:31	120220	12022020	201331	237.54	12.354270	-56.840617	237.54	0.650	-2.010	1.530	237.44	-3.40	1.90	 	 	 	 	 	 	 	 	 	 	 	 	 	 	 	 	 	 	1581538411	9.07	16.80
12/02/2020 20:13:32	120220	12022020	201332	237.13	12.354255	-56.840653	237.18	0.190	-1.300	2.020	237.07	-2.70	2.40	 	 	 	 	 	 	 	 	 	 	 	 	 	 	 	 	 	 	1581538412	8.71	16.13
12/02/2020 20:13:33	120220	12022020	201333	236.95	12.354237	-56.840692	237.06	-0.200	-0.630	1.930	236.95	-2.00	2.40	 	 	 	 	 	 	 	 	 	 	 	 	 	 	 	 	 	 	1581538413	8.87	16.43
12/02/2020 20:13:34	120220	12022020	201334	237.09	12.354217	-56.840730	237.25	-0.390	-0.260	1.340	237.15	-1.70	1.80	 	 	 	 	 	 	 	 	 	 	 	 	 	 	 	 	 	 	1581538414	9.35	17.32
12/02/2020 20:13:35	120220	12022020	201335	237.54	12.354192	-56.840770	237.73	-0.410	-0.130	0.510	237.66	-1.50	1.00	 	 	 	 	 	 	 	 	 	 	 	 	 	 	 	 	 	 	1581538415	9.74	18.04
12/02/2020 20:13:36	120220	12022020	201336	238.19	12.354165	-56.840808	238.37	-0.410	-0.210	-0.140	238.31	-1.60	0.30	 	 	 	 	 	 	 	 	 	 	 	 	 	 	 	 	 	 	1581538416	10.00	18.52
12/02/2020 20:13:37	120220	12022020	201337	238.71	12.354140	-56.840848	238.82	-0.460	-0.400	-0.300	238.78	-1.80	0.10	 	 	 	 	 	 	 	 	 	 	 	 	 	 	 	 	 	 	1581538417	10.15	18.80
12/02/2020 20:13:38	120220	12022020	201338	238.87	12.354117	-56.840890	238.88	-0.580	-0.410	0.110	238.84	-1.80	0.50	 	 	 	 	 	 	 	 	 	 	 	 	 	 	 	 	 	 	1581538418	10.10	18.71
12/02/2020 20:13:39	120220	12022020	201339	238.59	12.354097	-56.840932	238.55	-0.640	-0.000	0.960	238.50	-1.40	1.40	 	 	 	 	 	 	 	 	 	 	 	 	 	 	 	 	 	 	1581538419	9.80	18.15
12/02/2020 20:13:40	120220	12022020	201340	238.08	12.354082	-56.840973	238.04	-0.550	0.780	1.860	237.96	-0.70	2.30	 	 	 	 	 	 	 	 	 	 	 	 	 	 	 	 	 	 	1581538420	9.35	17.32
12/02/2020 20:13:41	120220	12022020	201341	237.66	12.354067	-56.841013	237.61	-0.270	1.440	2.300	237.59	0.00	2.70	 	 	 	 	 	 	 	 	 	 	 	 	 	 	 	 	 	 	1581538421	9.05	16.76
12/02/2020 20:13:42	120220	12022020	201342	237.44	12.354052	-56.841053	237.55	0.190	1.460	1.960	237.46	0.10	2.40	 	 	 	 	 	 	 	 	 	 	 	 	 	 	 	 	 	 	1581538422	9.05	16.76
12/02/2020 20:13:43	120220	12022020	201343	237.70	12.354030	-56.841092	237.88	0.730	0.720	1.020	237.78	-0.60	1.50	 	 	 	 	 	 	 	 	 	 	 	 	 	 	 	 	 	 	1581538423	9.34	17.30
12/02/2020 20:13:44	120220	12022020	201344	238.22	12.354007	-56.841130	238.40	1.170	-0.340	-0.090	238.33	-1.70	0.40	 	 	 	 	 	 	 	 	 	 	 	 	 	 	 	 	 	 	1581538424	9.53	17.65
12/02/2020 20:13:45	120220	12022020	201345	238.65	12.353982	-56.841167	238.77	1.330	-1.340	-0.720	238.71	-2.70	-0.30	 	 	 	 	 	 	 	 	 	 	 	 	 	 	 	 	 	 	1581538425	9.48	17.56
12/02/2020 20:13:46	120220	12022020	201346	238.80	12.353958	-56.841205	238.84	1.070	-2.000	-0.600	238.79	-3.40	-0.20	 	 	 	 	 	 	 	 	 	 	 	 	 	 	 	 	 	 	1581538426	9.25	17.13
12/02/2020 20:13:47	120220	12022020	201347	238.66	12.353940	-56.841243	238.64	0.490	-2.170	-0.040	238.61	-3.50	0.40	 	 	 	 	 	 	 	 	 	 	 	 	 	 	 	 	 	 	1581538427	9.15	16.95
12/02/2020 20:13:48	120220	12022020	201348	238.39	12.353922	-56.841282	238.39	-0.170	-1.860	0.630	238.34	-3.30	1.00	 	 	 	 	 	 	 	 	 	 	 	 	 	 	 	 	 	 	1581538428	9.12	16.89
12/02/2020 20:13:49	120220	12022020	201349	238.18	12.353905	-56.841322	238.20	-0.660	-1.280	1.140	238.15	-2.70	1.50	 	 	 	 	 	 	 	 	 	 	 	 	 	 	 	 	 	 	1581538429	9.25	17.13
12/02/2020 20:13:50	120220	12022020	201350	238.10	12.353887	-56.841363	238.14	-0.850	-0.730	1.400	238.10	-2.10	1.80	 	 	 	 	 	 	 	 	 	 	 	 	 	 	 	 	 	 	1581538430	9.54	17.67
12/02/2020 20:13:51	120220	12022020	201351	238.13	12.353865	-56.841405	238.20	-0.780	-0.300	1.530	238.14	-1.70	2.00	 	 	 	 	 	 	 	 	 	 	 	 	 	 	 	 	 	 	1581538431	9.94	18.41
12/02/2020 20:13:52	120220	12022020	201352	238.17	12.353845	-56.841448	238.24	-0.630	0.180	1.700	238.17	-1.20	2.10	 	 	 	 	 	 	 	 	 	 	 	 	 	 	 	 	 	 	1581538432	10.15	18.80
12/02/2020 20:13:53	120220	12022020	201353	238.20	12.353825	-56.841492	238.26	-0.590	0.820	1.810	238.20	-0.60	2.20	 	 	 	 	 	 	 	 	 	 	 	 	 	 	 	 	 	 	1581538433	9.96	18.45
12/02/2020 20:13:54	120220	12022020	201354	238.17	12.353807	-56.841532	238.23	-0.570	1.410	1.710	238.17	0.00	2.10	 	 	 	 	 	 	 	 	 	 	 	 	 	 	 	 	 	 	1581538434	9.63	17.83
12/02/2020 20:13:55	120220	12022020	201355	238.13	12.353787	-56.841572	238.19	-0.370	1.650	1.290	238.13	0.30	1.70	 	 	 	 	 	 	 	 	 	 	 	 	 	 	 	 	 	 	1581538435	9.44	17.48
12/02/2020 20:13:56	120220	12022020	201356	238.18	12.353763	-56.841610	238.25	0.060	1.350	0.600	238.21	-0.00	1.10	 	 	 	 	 	 	 	 	 	 	 	 	 	 	 	 	 	 	1581538436	9.43	17.46
12/02/2020 20:13:57	120220	12022020	201357	238.31	12.353738	-56.841648	238.38	0.570	0.540	0.020	238.34	-0.80	0.50	 	 	 	 	 	 	 	 	 	 	 	 	 	 	 	 	 	 	1581538437	9.53	17.65
12/02/2020 20:13:58	120220	12022020	201358	238.39	12.353717	-56.841687	238.43	0.950	-0.460	-0.110	238.39	-1.80	0.30	 	 	 	 	 	 	 	 	 	 	 	 	 	 	 	 	 	 	1581538438	9.48	17.56
12/02/2020 20:13:59	120220	12022020	201359	238.36	12.353697	-56.841725	238.38	1.090	-1.350	0.180	238.34	-2.70	0.60	 	 	 	 	 	 	 	 	 	 	 	 	 	 	 	 	 	 	1581538439	9.32	17.26
12/02/2020 20:14:00	120220	12022020	201400	238.15	12.353678	-56.841765	238.14	0.960	-1.960	0.690	238.09	-3.30	1.10	 	 	 	 	 	 	 	 	 	 	 	 	 	 	 	 	 	 	1581538440	9.21	17.06
12/02/2020 20:14:01	120220	12022020	201401	237.82	12.353660	-56.841805	237.83	0.620	-2.140	1.190	237.76	-3.50	1.60	 	 	 	 	 	 	 	 	 	 	 	 	 	 	 	 	 	 	1581538441	9.24	17.11
12/02/2020 20:14:02	120220	12022020	201402	237.64	12.353640	-56.841843	237.70	0.100	-1.790	1.320	237.64	-3.20	1.70	1014.60	26.40	26.50	20.50	20.60	321.0	69.0	69.0	391.0	28.9	220.00	5.40	79.00	9.60	21951	9920.0	27.5	27.5	1581538442	9.20	17.04
12/02/2020 20:14:03	120220	12022020	201403	237.74	12.353622	-56.841882	237.83	-0.480	-1.100	1.220	237.78	-2.50	1.60	 	 	 	 	 	 	 	 	 	 	 	 	 	 	 	 	 	 	1581538443	9.16	16.96
12/02/2020 20:14:04	120220	12022020	201404	237.92	12.353602	-56.841922	238.00	-0.840	-0.410	1.220	237.94	-1.80	1.60	 	 	 	 	 	 	 	 	 	 	 	 	 	 	 	 	 	 	1581538444	9.37	17.35
12/02/2020 20:14:05	120220	12022020	201405	238.00	12.353583	-56.841963	238.06	-0.820	0.080	1.380	238.00	-1.30	1.80	 	 	 	 	 	 	 	 	 	 	 	 	 	 	 	 	 	 	1581538445	9.80	18.15
12/02/2020 20:14:06	120220	12022020	201406	238.00	12.353565	-56.842008	238.06	-0.520	0.430	1.570	238.01	-1.00	2.00	 	 	 	 	 	 	 	 	 	 	 	 	 	 	 	 	 	 	1581538446	10.09	18.69
12/02/2020 20:14:07	120220	12022020	201407	238.07	12.353545	-56.842050	238.13	-0.200	0.740	1.380	238.09	-0.70	1.80	 	 	 	 	 	 	 	 	 	 	 	 	 	 	 	 	 	 	1581538447	10.02	18.56
12/02/2020 20:14:08	120220	12022020	201408	238.20	12.353522	-56.842090	238.24	-0.020	0.950	0.820	238.23	-0.40	1.30	 	 	 	 	 	 	 	 	 	 	 	 	 	 	 	 	 	 	1581538448	9.72	18.00
12/02/2020 20:14:09	120220	12022020	201409	238.30	12.353497	-56.842127	238.33	0.070	0.840	0.310	238.31	-0.50	0.80	 	 	 	 	 	 	 	 	 	 	 	 	 	 	 	 	 	 	1581538449	9.57	17.72
12/02/2020 20:14:10	120220	12022020	201410	238.31	12.353472	-56.842165	238.33	0.150	0.250	0.160	238.31	-1.10	0.60	 	 	 	 	 	 	 	 	 	 	 	 	 	 	 	 	 	 	1581538450	9.71	17.98
12/02/2020 20:14:11	120220	12022020	201411	238.30	12.353448	-56.842207	238.31	0.200	-0.520	0.490	238.28	-1.90	0.90	 	 	 	 	 	 	 	 	 	 	 	 	 	 	 	 	 	 	1581538451	9.90	18.33
12/02/2020 20:14:12	120220	12022020	201412	238.21	12.353430	-56.842248	238.21	0.190	-0.900	1.020	238.17	-2.30	1.40	 	 	 	 	 	 	 	 	 	 	 	 	 	 	 	 	 	 	1581538452	9.72	18.00
12/02/2020 20:14:13	120220	12022020	201413	237.98	12.353413	-56.842288	237.96	0.150	-0.840	1.480	237.92	-2.20	1.90	 	 	 	 	 	 	 	 	 	 	 	 	 	 	 	 	 	 	1581538453	9.24	17.11
12/02/2020 20:14:14	120220	12022020	201414	237.67	12.353397	-56.842327	237.64	0.150	-0.550	1.700	237.60	-2.00	2.10	 	 	 	 	 	 	 	 	 	 	 	 	 	 	 	 	 	 	1581538454	8.98	16.63
12/02/2020 20:14:15	120220	12022020	201415	237.32	12.353378	-56.842365	237.29	0.220	-0.300	1.660	237.25	-1.70	2.10	 	 	 	 	 	 	 	 	 	 	 	 	 	 	 	 	 	 	1581538455	8.99	16.65
12/02/2020 20:14:16	120220	12022020	201416	237.00	12.353357	-56.842403	237.00	0.360	-0.290	1.470	236.95	-1.70	1.90	 	 	 	 	 	 	 	 	 	 	 	 	 	 	 	 	 	 	1581538456	9.25	17.13
12/02/2020 20:14:17	120220	12022020	201417	236.88	12.353335	-56.842443	236.95	0.430	-0.480	1.210	236.88	-1.90	1.60	 	 	 	 	 	 	 	 	 	 	 	 	 	 	 	 	 	 	1581538457	9.54	17.67
12/02/2020 20:14:18	120220	12022020	201418	237.05	12.353313	-56.842483	237.16	0.330	-0.760	0.960	237.11	-2.10	1.40	 	 	 	 	 	 	 	 	 	 	 	 	 	 	 	 	 	 	1581538458	9.71	17.98
12/02/2020 20:14:19	120220	12022020	201419	237.40	12.353292	-56.842525	237.51	0.080	-0.980	0.830	237.47	-2.40	1.30	 	 	 	 	 	 	 	 	 	 	 	 	 	 	 	 	 	 	1581538459	9.84	18.22
12/02/2020 20:14:20	120220	12022020	201420	237.79	12.353272	-56.842565	237.90	-0.180	-0.820	0.780	237.86	-2.20	1.20	 	 	 	 	 	 	 	 	 	 	 	 	 	 	 	 	 	 	1581538460	9.74	18.04
12/02/2020 20:14:21	120220	12022020	201421	238.15	12.353252	-56.842605	238.25	-0.360	-0.260	0.750	238.21	-1.70	1.20	 	 	 	 	 	 	 	 	 	 	 	 	 	 	 	 	 	 	1581538461	9.36	17.33
12/02/2020 20:14:22	120220	12022020	201422	238.36	12.353232	-56.842643	238.42	-0.430	0.200	0.760	238.39	-1.20	1.20	 	 	 	 	 	 	 	 	 	 	 	 	 	 	 	 	 	 	1581538462	9.26	17.15
12/02/2020 20:14:23	120220	12022020	201423	238.43	12.353210	-56.842683	238.46	-0.340	0.270	0.800	238.42	-1.10	1.20	 	 	 	 	 	 	 	 	 	 	 	 	 	 	 	 	 	 	1581538463	9.60	17.78
12/02/2020 20:14:24	120220	12022020	201424	238.37	12.353187	-56.842723	238.38	-0.140	0.060	0.840	238.34	-1.30	1.30	 	 	 	 	 	 	 	 	 	 	 	 	 	 	 	 	 	 	1581538464	9.94	18.41
12/02/2020 20:14:25	120220	12022020	201425	238.20	12.353163	-56.842765	238.19	0.040	-0.130	0.950	238.15	-1.50	1.40	 	 	 	 	 	 	 	 	 	 	 	 	 	 	 	 	 	 	1581538465	9.96	18.45
12/02/2020 20:14:26	120220	12022020	201426	237.91	12.353140	-56.842805	237.88	0.060	-0.120	1.130	237.84	-1.50	1.60	 	 	 	 	 	 	 	 	 	 	 	 	 	 	 	 	 	 	1581538466	9.71	17.98
12/02/2020 20:14:27	120220	12022020	201427	237.55	12.353120	-56.842843	237.53	-0.070	0.060	1.400	237.48	-1.40	1.80	 	 	 	 	 	 	 	 	 	 	 	 	 	 	 	 	 	 	1581538467	9.37	17.35
12/02/2020 20:14:28	120220	12022020	201428	237.27	12.353102	-56.842883	237.28	-0.140	0.190	1.590	237.23	-1.20	2.00	 	 	 	 	 	 	 	 	 	 	 	 	 	 	 	 	 	 	1581538468	9.23	17.09
12/02/2020 20:14:29	120220	12022020	201429	237.15	12.353083	-56.842923	237.14	-0.030	0.080	1.620	237.12	-1.30	2.00	 	 	 	 	 	 	 	 	 	 	 	 	 	 	 	 	 	 	1581538469	9.32	17.26
12/02/2020 20:14:30	120220	12022020	201430	237.06	12.353063	-56.842963	237.10	0.210	-0.260	1.410	237.06	-1.60	1.80	 	 	 	 	 	 	 	 	 	 	 	 	 	 	 	 	 	 	1581538470	9.52	17.63
12/02/2020 20:14:31	120220	12022020	201431	237.10	12.353043	-56.843003	237.20	0.420	-0.660	0.960	237.12	-2.00	1.40	 	 	 	 	 	 	 	 	 	 	 	 	 	 	 	 	 	 	1581538471	9.57	17.72
12/02/2020 20:14:32	120220	12022020	201432	237.41	12.353022	-56.843043	237.53	0.460	-0.950	0.420	237.48	-2.30	0.90	 	 	 	 	 	 	 	 	 	 	 	 	 	 	 	 	 	 	1581538472	9.51	17.61
12/02/2020 20:14:33	120220	12022020	201433	237.85	12.353000	-56.843082	237.96	0.290	-1.030	0.030	237.93	-2.40	0.50	 	 	 	 	 	 	 	 	 	 	 	 	 	 	 	 	 	 	1581538473	9.41	17.43
12/02/2020 20:14:34	120220	12022020	201434	238.23	12.352978	-56.843120	238.31	0.010	-0.990	-0.100	238.28	-2.40	0.30	 	 	 	 	 	 	 	 	 	 	 	 	 	 	 	 	 	 	1581538474	9.42	17.45
12/02/2020 20:14:35	120220	12022020	201435	238.38	12.352957	-56.843160	238.41	-0.250	-0.890	0.100	238.37	-2.30	0.50	 	 	 	 	 	 	 	 	 	 	 	 	 	 	 	 	 	 	1581538475	9.60	17.78
12/02/2020 20:14:36	120220	12022020	201436	238.27	12.352935	-56.843200	238.27	-0.440	-0.670	0.430	238.22	-2.10	0.90	 	 	 	 	 	 	 	 	 	 	 	 	 	 	 	 	 	 	1581538476	9.73	18.02
12/02/2020 20:14:37	120220	12022020	201437	237.99	12.352913	-56.843240	237.99	-0.540	-0.330	0.730	237.93	-1.70	1.20	 	 	 	 	 	 	 	 	 	 	 	 	 	 	 	 	 	 	1581538477	9.79	18.13
12/02/2020 20:14:38	120220	12022020	201438	237.75	12.352892	-56.843282	237.79	-0.490	0.120	0.860	237.72	-1.30	1.30	 	 	 	 	 	 	 	 	 	 	 	 	 	 	 	 	 	 	1581538478	9.71	17.98
12/02/2020 20:14:39	120220	12022020	201439	237.66	12.352870	-56.843322	237.71	-0.270	0.460	0.760	237.66	-0.90	1.20	 	 	 	 	 	 	 	 	 	 	 	 	 	 	 	 	 	 	1581538479	9.63	17.83
12/02/2020 20:14:40	120220	12022020	201440	237.66	12.352848	-56.843362	237.72	0.020	0.470	0.640	237.67	-0.90	1.10	 	 	 	 	 	 	 	 	 	 	 	 	 	 	 	 	 	 	1581538480	9.79	18.13
12/02/2020 20:14:41	120220	12022020	201441	237.68	12.352827	-56.843403	237.72	0.150	0.290	0.760	237.68	-1.10	1.20	 	 	 	 	 	 	 	 	 	 	 	 	 	 	 	 	 	 	1581538481	9.94	18.41
12/02/2020 20:14:42	120220	12022020	201442	237.65	12.352807	-56.843445	237.67	0.060	0.180	1.120	237.64	-1.20	1.50	 	 	 	 	 	 	 	 	 	 	 	 	 	 	 	 	 	 	1581538482	9.80	18.15
12/02/2020 20:14:43	120220	12022020	201443	237.58	12.352788	-56.843487	237.59	-0.080	0.260	1.530	237.55	-1.20	1.90	 	 	 	 	 	 	 	 	 	 	 	 	 	 	 	 	 	 	1581538483	9.45	17.50
12/02/2020 20:14:44	120220	12022020	201444	237.42	12.352772	-56.843525	237.45	-0.070	0.280	1.730	237.39	-1.10	2.10	 	 	 	 	 	 	 	 	 	 	 	 	 	 	 	 	 	 	1581538484	9.15	16.95
12/02/2020 20:14:45	120220	12022020	201445	237.33	12.352752	-56.843563	237.38	0.110	-0.050	1.550	237.32	-1.40	2.00	 	 	 	 	 	 	 	 	 	 	 	 	 	 	 	 	 	 	1581538485	9.21	17.06
12/02/2020 20:14:46	120220	12022020	201446	237.28	12.352730	-56.843603	237.31	0.350	-0.790	1.110	237.27	-2.10	1.60	 	 	 	 	 	 	 	 	 	 	 	 	 	 	 	 	 	 	1581538486	9.52	17.63
12/02/2020 20:14:47	120220	12022020	201447	237.20	12.352707	-56.843643	237.21	0.540	-1.620	0.660	237.18	-3.00	1.10	 	 	 	 	 	 	 	 	 	 	 	 	 	 	 	 	 	 	1581538487	9.84	18.22
12/02/2020 20:14:48	120220	12022020	201448	237.17	12.352683	-56.843683	237.23	0.560	-2.040	0.310	237.20	-3.40	0.80	 	 	 	 	 	 	 	 	 	 	 	 	 	 	 	 	 	 	1581538488	9.84	18.22
12/02/2020 20:14:49	120220	12022020	201449	237.31	12.352660	-56.843722	237.39	0.330	-1.840	0.110	237.35	-3.20	0.50	 	 	 	 	 	 	 	 	 	 	 	 	 	 	 	 	 	 	1581538489	9.59	17.76
12/02/2020 20:14:50	120220	12022020	201450	237.45	12.352640	-56.843762	237.53	-0.050	-1.170	0.220	237.47	-2.60	0.60	 	 	 	 	 	 	 	 	 	 	 	 	 	 	 	 	 	 	1581538490	9.43	17.46
12/02/2020 20:14:51	120220	12022020	201451	237.53	12.352620	-56.843802	237.58	-0.430	-0.310	0.590	237.54	-1.70	1.00	 	 	 	 	 	 	 	 	 	 	 	 	 	 	 	 	 	 	1581538491	9.55	17.69
12/02/2020 20:14:52	120220	12022020	201452	237.61	12.352600	-56.843843	237.68	-0.700	0.510	0.910	237.64	-0.90	1.30	 	 	 	 	 	 	 	 	 	 	 	 	 	 	 	 	 	 	1581538492	9.71	17.98
12/02/2020 20:14:53	120220	12022020	201453	237.67	12.352578	-56.843885	237.73	-0.760	1.020	1.090	237.66	-0.40	1.50	 	 	 	 	 	 	 	 	 	 	 	 	 	 	 	 	 	 	1581538493	9.90	18.33
12/02/2020 20:14:54	120220	12022020	201454	237.55	12.352557	-56.843927	237.58	-0.590	1.160	1.180	237.51	-0.20	1.60	 	 	 	 	 	 	 	 	 	 	 	 	 	 	 	 	 	 	1581538494	10.09	18.69
12/02/2020 20:14:55	120220	12022020	201455	237.34	12.352533	-56.843968	237.33	-0.310	1.150	1.180	237.30	-0.30	1.60	 	 	 	 	 	 	 	 	 	 	 	 	 	 	 	 	 	 	1581538495	10.02	18.56
12/02/2020 20:14:56	120220	12022020	201456	237.05	12.352510	-56.844007	237.09	-0.060	1.000	1.170	237.00	-0.40	1.60	 	 	 	 	 	 	 	 	 	 	 	 	 	 	 	 	 	 	1581538496	9.63	17.83
12/02/2020 20:14:57	120220	12022020	201457	236.85	12.352488	-56.844047	236.91	0.160	0.400	1.170	236.82	-1.00	1.60	 	 	 	 	 	 	 	 	 	 	 	 	 	 	 	 	 	 	1581538497	9.46	17.52
12/02/2020 20:14:58	120220	12022020	201458	236.69	12.352468	-56.844087	236.76	0.400	-0.610	1.100	236.66	-1.90	1.50	 	 	 	 	 	 	 	 	 	 	 	 	 	 	 	 	 	 	1581538498	9.67	17.91
12/02/2020 20:14:59	120220	12022020	201459	236.61	12.352447	-56.844127	236.68	0.600	-1.620	0.860	236.60	-3.00	1.30	 	 	 	 	 	 	 	 	 	 	 	 	 	 	 	 	 	 	1581538499	9.76	18.08
12/02/2020 20:15:00	120220	12022020	201500	236.61	12.352425	-56.844167	236.69	0.660	-2.190	0.610	236.64	-3.60	1.00	 	 	 	 	 	 	 	 	 	 	 	 	 	 	 	 	 	 	1581538500	9.66	17.89
12/02/2020 20:15:01	120220	12022020	201501	236.77	12.352405	-56.844207	236.87	0.490	-2.010	0.500	236.80	-3.40	0.90	 	 	 	 	 	 	 	 	 	 	 	 	 	 	 	 	 	 	1581538501	9.32	17.26
12/02/2020 20:15:02	120220	12022020	201502	236.92	12.352385	-56.844245	237.00	0.130	-1.330	0.660	236.93	-2.70	1.10	1014.60	26.60	26.70	21.10	21.10	318.0	71.0	71.0	391.0	28.9	227.00	4.10	79.00	8.30	21719	10050.0	27.5	27.5	1581538502	9.09	16.83
12/02/2020 20:15:03	120220	12022020	201503	236.93	12.352367	-56.844283	237.00	-0.200	-0.590	1.080	236.92	-2.00	1.50	 	 	 	 	 	 	 	 	 	 	 	 	 	 	 	 	 	 	1581538503	9.35	17.32
12/02/2020 20:15:04	120220	12022020	201504	236.90	12.352347	-56.844325	237.00	-0.420	0.080	1.500	236.91	-1.30	1.90	 	 	 	 	 	 	 	 	 	 	 	 	 	 	 	 	 	 	1581538504	9.75	18.06
12/02/2020 20:15:05	120220	12022020	201505	236.95	12.352325	-56.844367	237.07	-0.540	0.640	1.670	236.97	-0.80	2.10	 	 	 	 	 	 	 	 	 	 	 	 	 	 	 	 	 	 	1581538505	9.91	18.35
12/02/2020 20:15:06	120220	12022020	201506	237.06	12.352302	-56.844407	237.19	-0.570	1.000	1.450	237.09	-0.40	1.90	 	 	 	 	 	 	 	 	 	 	 	 	 	 	 	 	 	 	1581538506	9.92	18.37
12/02/2020 20:15:07	120220	12022020	201507	237.17	12.352277	-56.844447	237.31	-0.450	1.140	1.030	237.19	-0.30	1.50	 	 	 	 	 	 	 	 	 	 	 	 	 	 	 	 	 	 	1581538507	9.81	18.17
12/02/2020 20:15:08	120220	12022020	201508	237.27	12.352253	-56.844485	237.37	-0.150	0.890	0.530	237.28	-0.50	1.00	 	 	 	 	 	 	 	 	 	 	 	 	 	 	 	 	 	 	1581538508	9.66	17.89
12/02/2020 20:15:09	120220	12022020	201509	237.26	12.352227	-56.844523	237.33	0.230	0.120	0.190	237.25	-1.20	0.60	 	 	 	 	 	 	 	 	 	 	 	 	 	 	 	 	 	 	1581538509	9.84	18.22
12/02/2020 20:15:10	120220	12022020	201510	237.14	12.352202	-56.844563	237.17	0.460	-0.810	0.310	237.10	-2.20	0.70	 	 	 	 	 	 	 	 	 	 	 	 	 	 	 	 	 	 	1581538510	10.01	18.54
12/02/2020 20:15:11	120220	12022020	201511	236.87	12.352182	-56.844605	236.88	0.450	-1.260	0.900	236.80	-2.60	1.30	 	 	 	 	 	 	 	 	 	 	 	 	 	 	 	 	 	 	1581538511	9.73	18.02
12/02/2020 20:15:12	120220	12022020	201512	236.48	12.352165	-56.844645	236.49	0.300	-1.120	1.640	236.39	-2.50	2.00	 	 	 	 	 	 	 	 	 	 	 	 	 	 	 	 	 	 	1581538512	9.27	17.17
12/02/2020 20:15:13	120220	12022020	201513	236.08	12.352148	-56.844685	236.09	0.150	-0.780	2.220	235.99	-2.20	2.60	 	 	 	 	 	 	 	 	 	 	 	 	 	 	 	 	 	 	1581538513	9.10	16.85
12/02/2020 20:15:14	120220	12022020	201514	235.70	12.352132	-56.844725	235.74	0.080	-0.620	2.420	235.64	-2.00	2.90	 	 	 	 	 	 	 	 	 	 	 	 	 	 	 	 	 	 	1581538514	9.33	17.28
12/02/2020 20:15:15	120220	12022020	201515	235.53	12.352110	-56.844765	235.62	0.040	-0.640	2.100	235.53	-2.00	2.50	 	 	 	 	 	 	 	 	 	 	 	 	 	 	 	 	 	 	1581538515	9.68	17.93
12/02/2020 20:15:16	120220	12022020	201516	235.66	12.352087	-56.844805	235.82	-0.020	-0.630	1.410	235.73	-2.00	1.90	 	 	 	 	 	 	 	 	 	 	 	 	 	 	 	 	 	 	1581538516	9.83	18.21
12/02/2020 20:15:17	120220	12022020	201517	236.10	12.352063	-56.844845	236.30	-0.150	-0.390	0.580	236.22	-1.80	1.10	 	 	 	 	 	 	 	 	 	 	 	 	 	 	 	 	 	 	1581538517	9.76	18.08
12/02/2020 20:15:18	120220	12022020	201518	236.77	12.352038	-56.844882	237.00	-0.290	0.080	-0.250	236.93	-1.30	0.20	 	 	 	 	 	 	 	 	 	 	 	 	 	 	 	 	 	 	1581538518	9.48	17.56
12/02/2020 20:15:19	120220	12022020	201519	237.39	12.352013	-56.844918	237.74	-0.340	0.480	-0.800	237.53	-0.90	-0.30	 	 	 	 	 	 	 	 	 	 	 	 	 	 	 	 	 	 	1581538519	9.35	17.32
12/02/2020 20:15:20	120220	12022020	201520	238.19	12.351988	-56.844955	238.35	-0.230	0.610	-0.860	238.30	-0.80	-0.40	 	 	 	 	 	 	 	 	 	 	 	 	 	 	 	 	 	 	1581538520	9.42	17.45
12/02/2020 20:15:21	120220	12022020	201521	238.58	12.351965	-56.844993	238.73	-0.010	0.400	-0.550	238.64	-1.00	-0.10	 	 	 	 	 	 	 	 	 	 	 	 	 	 	 	 	 	 	1581538521	9.50	17.59
12/02/2020 20:15:22	120220	12022020	201522	238.66	12.351942	-56.845033	238.69	0.220	-0.250	0.220	238.61	-1.60	0.60	 	 	 	 	 	 	 	 	 	 	 	 	 	 	 	 	 	 	1581538522	9.74	18.04
12/02/2020 20:15:23	120220	12022020	201523	238.22	12.351922	-56.845075	238.19	0.360	-1.020	1.310	238.09	-2.40	1.70	 	 	 	 	 	 	 	 	 	 	 	 	 	 	 	 	 	 	1581538523	10.07	18.65
12/02/2020 20:15:24	120220	12022020	201524	237.36	12.351903	-56.845118	237.30	0.340	-1.320	2.470	237.16	-2.70	2.80	 	 	 	 	 	 	 	 	 	 	 	 	 	 	 	 	 	 	1581538524	10.00	18.52
12/02/2020 20:15:25	120220	12022020	201525	236.34	12.351887	-56.845162	236.28	0.120	-0.980	3.310	236.15	-2.40	3.70	 	 	 	 	 	 	 	 	 	 	 	 	 	 	 	 	 	 	1581538525	9.62	17.82
12/02/2020 20:15:26	120220	12022020	201526	235.50	12.351872	-56.845202	235.52	-0.150	-0.400	3.520	235.38	-1.80	3.90	 	 	 	 	 	 	 	 	 	 	 	 	 	 	 	 	 	 	1581538526	9.35	17.32
12/02/2020 20:15:27	120220	12022020	201527	235.15	12.351853	-56.845243	235.27	-0.280	-0.060	2.880	235.14	-1.40	3.30	 	 	 	 	 	 	 	 	 	 	 	 	 	 	 	 	 	 	1581538527	9.39	17.39
12/02/2020 20:15:28	120220	12022020	201528	235.30	12.351833	-56.845283	235.47	-0.190	-0.020	1.610	235.38	-1.40	2.10	 	 	 	 	 	 	 	 	 	 	 	 	 	 	 	 	 	 	1581538528	9.60	17.78
12/02/2020 20:15:29	120220	12022020	201529	235.85	12.351807	-56.845322	236.05	0.020	-0.020	0.180	235.99	-1.40	0.70	 	 	 	 	 	 	 	 	 	 	 	 	 	 	 	 	 	 	1581538529	9.68	17.93
12/02/2020 20:15:30	120220	12022020	201530	236.66	12.351780	-56.845357	236.89	0.130	0.070	-0.920	236.84	-1.30	-0.40	 	 	 	 	 	 	 	 	 	 	 	 	 	 	 	 	 	 	1581538530	9.54	17.67
12/02/2020 20:15:31	120220	12022020	201531	237.58	12.351755	-56.845392	237.81	0.090	0.160	-1.390	237.77	-1.20	-0.90	 	 	 	 	 	 	 	 	 	 	 	 	 	 	 	 	 	 	1581538531	9.33	17.28
12/02/2020 20:15:32	120220	12022020	201532	238.45	12.351730	-56.845428	238.62	0.040	0.040	-1.230	238.59	-1.30	-0.80	 	 	 	 	 	 	 	 	 	 	 	 	 	 	 	 	 	 	1581538532	9.29	17.21
12/02/2020 20:15:33	120220	12022020	201533	238.95	12.351708	-56.845467	239.02	0.080	-0.370	-0.360	238.99	-1.70	0.00	 	 	 	 	 	 	 	 	 	 	 	 	 	 	 	 	 	 	1581538533	9.50	17.59
12/02/2020 20:15:34	120220	12022020	201534	238.91	12.351688	-56.845508	238.91	0.120	-0.750	1.020	238.85	-2.10	1.40	 	 	 	 	 	 	 	 	 	 	 	 	 	 	 	 	 	 	1581538534	9.71	17.98
12/02/2020 20:15:35	120220	12022020	201535	238.46	12.351672	-56.845550	238.43	0.050	-0.790	2.350	238.35	-2.20	2.70	 	 	 	 	 	 	 	 	 	 	 	 	 	 	 	 	 	 	1581538535	9.55	17.69
12/02/2020 20:15:36	120220	12022020	201536	237.83	12.351657	-56.845592	237.78	-0.030	-0.660	3.080	237.70	-2.00	3.50	 	 	 	 	 	 	 	 	 	 	 	 	 	 	 	 	 	 	1581538536	9.34	17.30
12/02/2020 20:15:37	120220	12022020	201537	237.21	12.351638	-56.845633	237.14	0.040	-0.650	3.030	237.09	-2.00	3.50	 	 	 	 	 	 	 	 	 	 	 	 	 	 	 	 	 	 	1581538537	9.43	17.46
12/02/2020 20:15:38	120220	12022020	201538	236.69	12.351617	-56.845673	236.66	0.200	-0.700	2.360	236.62	-2.10	2.80	 	 	 	 	 	 	 	 	 	 	 	 	 	 	 	 	 	 	1581538538	9.65	17.87
12/02/2020 20:15:39	120220	12022020	201539	236.47	12.351593	-56.845712	236.50	0.230	-0.650	1.310	236.46	-2.00	1.80	 	 	 	 	 	 	 	 	 	 	 	 	 	 	 	 	 	 	1581538539	9.69	17.95
12/02/2020 20:15:40	120220	12022020	201540	236.54	12.351568	-56.845748	236.62	0.010	-0.450	0.350	236.58	-1.80	0.80	 	 	 	 	 	 	 	 	 	 	 	 	 	 	 	 	 	 	1581538540	9.61	17.80
12/02/2020 20:15:41	120220	12022020	201541	236.81	12.351543	-56.845787	236.92	-0.360	-0.140	-0.150	236.87	-1.50	0.30	 	 	 	 	 	 	 	 	 	 	 	 	 	 	 	 	 	 	1581538541	9.51	17.61
12/02/2020 20:15:42	120220	12022020	201542	237.10	12.351523	-56.845827	237.21	-0.670	0.220	-0.100	237.16	-1.20	0.30	 	 	 	 	 	 	 	 	 	 	 	 	 	 	 	 	 	 	1581538542	9.46	17.52
12/02/2020 20:15:43	120220	12022020	201543	237.40	12.351503	-56.845867	237.55	-0.720	0.540	0.160	237.48	-0.90	0.60	 	 	 	 	 	 	 	 	 	 	 	 	 	 	 	 	 	 	1581538543	9.41	17.43
12/02/2020 20:15:44	120220	12022020	201544	237.82	12.351485	-56.845907	237.99	-0.460	0.660	0.270	237.92	-0.70	0.70	 	 	 	 	 	 	 	 	 	 	 	 	 	 	 	 	 	 	1581538544	9.34	17.30
12/02/2020 20:15:45	120220	12022020	201545	238.31	12.351463	-56.845945	238.47	0.010	0.430	0.130	238.40	-0.90	0.60	 	 	 	 	 	 	 	 	 	 	 	 	 	 	 	 	 	 	1581538545	9.38	17.37
12/02/2020 20:15:46	120220	12022020	201546	238.77	12.351442	-56.845983	238.90	0.460	0.010	-0.130	238.84	-1.40	0.30	 	 	 	 	 	 	 	 	 	 	 	 	 	 	 	 	 	 	1581538546	9.46	17.52
12/02/2020 20:15:47	120220	12022020	201547	239.03	12.351418	-56.846020	239.10	0.700	-0.410	-0.170	239.04	-1.80	0.30	 	 	 	 	 	 	 	 	 	 	 	 	 	 	 	 	 	 	1581538547	9.34	17.30
12/02/2020 20:15:48	120220	12022020	201548	238.98	12.351397	-56.846058	238.97	0.700	-0.840	0.180	238.94	-2.20	0.60	 	 	 	 	 	 	 	 	 	 	 	 	 	 	 	 	 	 	1581538548	9.29	17.21
12/02/2020 20:15:49	120220	12022020	201549	238.67	12.351377	-56.846098	238.64	0.520	-1.210	0.790	238.58	-2.60	1.20	 	 	 	 	 	 	 	 	 	 	 	 	 	 	 	 	 	 	1581538549	9.38	17.37
12/02/2020 20:15:50	120220	12022020	201550	238.15	12.351360	-56.846140	238.10	0.360	-1.350	1.440	238.03	-2.70	1.80	 	 	 	 	 	 	 	 	 	 	 	 	 	 	 	 	 	 	1581538550	9.48	17.56
12/02/2020 20:15:51	120220	12022020	201551	237.54	12.351342	-56.846180	237.49	0.240	-1.250	1.900	237.43	-2.60	2.30	 	 	 	 	 	 	 	 	 	 	 	 	 	 	 	 	 	 	1581538551	9.51	17.61
12/02/2020 20:15:52	120220	12022020	201552	237.04	12.351322	-56.846222	237.04	0.040	-1.070	2.020	236.97	-2.40	2.40	 	 	 	 	 	 	 	 	 	 	 	 	 	 	 	 	 	 	1581538552	9.67	17.91
12/02/2020 20:15:53	120220	12022020	201553	236.78	12.351302	-56.846263	236.83	-0.360	-0.740	1.920	236.75	-2.10	2.30	 	 	 	 	 	 	 	 	 	 	 	 	 	 	 	 	 	 	1581538553	9.85	18.24
12/02/2020 20:15:54	120220	12022020	201554	236.68	12.351282	-56.846305	236.75	-0.840	-0.130	1.750	236.69	-1.50	2.20	 	 	 	 	 	 	 	 	 	 	 	 	 	 	 	 	 	 	1581538554	9.77	18.09
12/02/2020 20:15:55	120220	12022020	201555	236.77	12.351263	-56.846345	236.96	-1.110	0.650	1.460	236.83	-0.80	1.90	 	 	 	 	 	 	 	 	 	 	 	 	 	 	 	 	 	 	1581538555	9.52	17.63
12/02/2020 20:15:56	120220	12022020	201556	237.27	12.351242	-56.846385	237.44	-0.930	1.230	0.870	237.38	-0.20	1.30	 	 	 	 	 	 	 	 	 	 	 	 	 	 	 	 	 	 	1581538556	9.34	17.30
12/02/2020 20:15:57	120220	12022020	201557	237.76	12.351220	-56.846423	238.05	-0.340	1.290	0.050	237.88	-0.10	0.50	 	 	 	 	 	 	 	 	 	 	 	 	 	 	 	 	 	 	1581538557	9.42	17.45
12/02/2020 20:15:58	120220	12022020	201558	238.47	12.351193	-56.846460	238.60	0.330	0.800	-0.600	238.56	-0.60	-0.20	 	 	 	 	 	 	 	 	 	 	 	 	 	 	 	 	 	 	1581538558	9.65	17.87
12/02/2020 20:15:59	120220	12022020	201559	238.88	12.351168	-56.846498	238.96	0.760	0.020	-0.690	238.93	-1.30	-0.30	 	 	 	 	 	 	 	 	 	 	 	 	 	 	 	 	 	 	1581538559	9.69	17.95
12/02/2020 20:16:00	120220	12022020	201600	239.01	12.351147	-56.846537	239.03	0.820	-0.710	-0.200	239.01	-2.10	0.20	 	 	 	 	 	 	 	 	 	 	 	 	 	 	 	 	 	 	1581538560	9.48	17.56
12/02/2020 20:16:01	120220	12022020	201601	238.90	12.351128	-56.846577	238.89	0.650	-1.230	0.660	238.86	-2.60	1.00	 	 	 	 	 	 	 	 	 	 	 	 	 	 	 	 	 	 	1581538561	9.31	17.24
12/02/2020 20:16:02	120220	12022020	201602	238.66	12.351112	-56.846618	238.64	0.450	-1.450	1.550	238.61	-2.80	1.90	1014.60	26.60	26.70	21.10	21.20	313.0	71.0	71.0	391.0	28.9	227.00	4.80	81.00	8.90	20833	10674.0	27.5	27.5	1581538562	9.26	17.15
12/02/2020 20:16:03	120220	12022020	201603	238.36	12.351097	-56.846658	238.31	0.320	-1.490	2.120	238.28	-2.90	2.50	 	 	 	 	 	 	 	 	 	 	 	 	 	 	 	 	 	 	1581538563	9.29	17.21
12/02/2020 20:16:04	120220	12022020	201604	237.90	12.351078	-56.846700	237.82	0.250	-1.470	2.350	237.79	-2.90	2.80	 	 	 	 	 	 	 	 	 	 	 	 	 	 	 	 	 	 	1581538564	9.55	17.69
12/02/2020 20:16:05	120220	12022020	201605	237.34	12.351057	-56.846742	237.25	0.050	-1.160	2.350	237.23	-2.60	2.80	 	 	 	 	 	 	 	 	 	 	 	 	 	 	 	 	 	 	1581538565	9.81	18.17
12/02/2020 20:16:06	120220	12022020	201606	236.89	12.351037	-56.846782	236.85	-0.380	-0.350	2.060	236.83	-1.80	2.50	 	 	 	 	 	 	 	 	 	 	 	 	 	 	 	 	 	 	1581538566	9.55	17.69
12/02/2020 20:16:07	120220	12022020	201607	236.78	12.351017	-56.846820	236.86	-0.830	0.560	1.460	236.82	-0.90	1.90	 	 	 	 	 	 	 	 	 	 	 	 	 	 	 	 	 	 	1581538567	9.29	17.21
12/02/2020 20:16:08	120220	12022020	201608	237.19	12.350995	-56.846858	237.34	-1.000	1.100	0.620	237.32	-0.30	1.10	 	 	 	 	 	 	 	 	 	 	 	 	 	 	 	 	 	 	1581538568	9.35	17.32
12/02/2020 20:16:09	120220	12022020	201609	237.82	12.350972	-56.846897	238.19	-0.810	1.080	-0.110	237.99	-0.30	0.30	 	 	 	 	 	 	 	 	 	 	 	 	 	 	 	 	 	 	1581538569	9.63	17.83
12/02/2020 20:16:10	120220	12022020	201610	238.84	12.350950	-56.846938	239.00	-0.330	0.650	-0.370	238.98	-0.70	0.10	 	 	 	 	 	 	 	 	 	 	 	 	 	 	 	 	 	 	1581538570	9.81	18.17
12/02/2020 20:16:11	120220	12022020	201611	239.28	12.350928	-56.846978	239.41	0.300	0.110	-0.160	239.34	-1.30	0.30	 	 	 	 	 	 	 	 	 	 	 	 	 	 	 	 	 	 	1581538571	9.73	18.02
12/02/2020 20:16:12	120220	12022020	201612	239.38	12.350908	-56.847018	239.40	0.850	-0.330	0.300	239.35	-1.70	0.70	 	 	 	 	 	 	 	 	 	 	 	 	 	 	 	 	 	 	1581538572	9.47	17.54
12/02/2020 20:16:13	120220	12022020	201613	239.18	12.350888	-56.847057	239.19	1.040	-0.640	0.800	239.14	-2.00	1.20	 	 	 	 	 	 	 	 	 	 	 	 	 	 	 	 	 	 	1581538573	9.22	17.08
12/02/2020 20:16:14	120220	12022020	201614	238.95	12.350868	-56.847095	238.97	0.830	-0.910	1.120	238.90	-2.30	1.50	 	 	 	 	 	 	 	 	 	 	 	 	 	 	 	 	 	 	1581538574	9.16	16.96
12/02/2020 20:16:15	120220	12022020	201615	238.68	12.350848	-56.847135	238.68	0.390	-1.160	1.300	238.61	-2.50	1.70	 	 	 	 	 	 	 	 	 	 	 	 	 	 	 	 	 	 	1581538575	9.30	17.22
12/02/2020 20:16:16	120220	12022020	201616	238.27	12.350830	-56.847175	238.24	-0.040	-1.200	1.560	238.17	-2.60	2.00	 	 	 	 	 	 	 	 	 	 	 	 	 	 	 	 	 	 	1581538576	9.46	17.52
12/02/2020 20:16:17	120220	12022020	201617	237.74	12.350812	-56.847217	237.71	-0.360	-0.930	1.870	237.64	-2.30	2.30	 	 	 	 	 	 	 	 	 	 	 	 	 	 	 	 	 	 	1581538577	9.49	17.58
12/02/2020 20:16:18	120220	12022020	201618	237.34	12.350795	-56.847257	237.35	-0.570	-0.410	1.990	237.31	-1.80	2.40	 	 	 	 	 	 	 	 	 	 	 	 	 	 	 	 	 	 	1581538578	9.45	17.50
12/02/2020 20:16:19	120220	12022020	201619	237.27	12.350778	-56.847298	237.33	-0.620	0.190	1.780	237.29	-1.20	2.20	 	 	 	 	 	 	 	 	 	 	 	 	 	 	 	 	 	 	1581538579	9.32	17.26
12/02/2020 20:16:20	120220	12022020	201620	237.44	12.350758	-56.847337	237.52	-0.390	0.490	1.200	237.49	-0.90	1.70	 	 	 	 	 	 	 	 	 	 	 	 	 	 	 	 	 	 	1581538580	9.28	17.19
12/02/2020 20:16:21	120220	12022020	201621	237.72	12.350735	-56.847375	237.81	0.060	0.320	0.480	237.78	-1.10	0.90	 	 	 	 	 	 	 	 	 	 	 	 	 	 	 	 	 	 	1581538581	9.60	17.78
12/02/2020 20:16:22	120220	12022020	201622	238.08	12.350710	-56.847415	238.18	0.410	-0.120	-0.030	238.16	-1.50	0.40	 	 	 	 	 	 	 	 	 	 	 	 	 	 	 	 	 	 	1581538582	9.88	18.30
12/02/2020 20:16:23	120220	12022020	201623	238.48	12.350685	-56.847453	238.59	0.390	-0.490	-0.120	238.55	-1.90	0.30	 	 	 	 	 	 	 	 	 	 	 	 	 	 	 	 	 	 	1581538583	9.80	18.15
12/02/2020 20:16:24	120220	12022020	201624	238.73	12.350663	-56.847493	238.77	0.040	-0.650	0.320	238.73	-2.00	0.70	 	 	 	 	 	 	 	 	 	 	 	 	 	 	 	 	 	 	1581538584	9.56	17.71
12/02/2020 20:16:25	120220	12022020	201625	238.61	12.350645	-56.847533	238.61	-0.330	-0.550	1.210	238.55	-2.00	1.60	 	 	 	 	 	 	 	 	 	 	 	 	 	 	 	 	 	 	1581538585	9.41	17.43
12/02/2020 20:16:26	120220	12022020	201626	238.20	12.350630	-56.847575	238.17	-0.460	-0.260	2.110	238.09	-1.70	2.50	 	 	 	 	 	 	 	 	 	 	 	 	 	 	 	 	 	 	1581538586	9.29	17.21
12/02/2020 20:16:27	120220	12022020	201627	237.63	12.350613	-56.847615	237.61	-0.240	-0.070	2.480	237.51	-1.50	2.90	 	 	 	 	 	 	 	 	 	 	 	 	 	 	 	 	 	 	1581538587	9.31	17.24
12/02/2020 20:16:28	120220	12022020	201628	237.15	12.350595	-56.847657	237.17	0.150	-0.060	2.190	237.09	-1.40	2.60	 	 	 	 	 	 	 	 	 	 	 	 	 	 	 	 	 	 	1581538588	9.49	17.58
12/02/2020 20:16:29	120220	12022020	201629	236.98	12.350573	-56.847695	237.06	0.440	-0.060	1.440	236.99	-1.50	1.90	 	 	 	 	 	 	 	 	 	 	 	 	 	 	 	 	 	 	1581538589	9.50	17.59
12/02/2020 20:16:30	120220	12022020	201630	237.16	12.350550	-56.847732	237.28	0.490	0.020	0.550	237.23	-1.40	1.00	 	 	 	 	 	 	 	 	 	 	 	 	 	 	 	 	 	 	1581538590	9.30	17.22
12/02/2020 20:16:31	120220	12022020	201631	237.59	12.350527	-56.847768	237.73	0.350	0.030	-0.060	237.70	-1.40	0.40	 	 	 	 	 	 	 	 	 	 	 	 	 	 	 	 	 	 	1581538591	9.12	16.89
12/02/2020 20:16:32	120220	12022020	201632	238.14	12.350503	-56.847805	238.27	0.170	-0.300	-0.110	238.23	-1.70	0.30	 	 	 	 	 	 	 	 	 	 	 	 	 	 	 	 	 	 	1581538592	9.24	17.11
12/02/2020 20:16:33	120220	12022020	201633	238.57	12.350483	-56.847847	238.65	0.060	-0.940	0.350	238.62	-2.30	0.80	 	 	 	 	 	 	 	 	 	 	 	 	 	 	 	 	 	 	1581538593	9.65	17.87
12/02/2020 20:16:34	120220	12022020	201634	238.68	12.350465	-56.847888	238.70	0.040	-1.430	1.080	238.65	-2.80	1.50	 	 	 	 	 	 	 	 	 	 	 	 	 	 	 	 	 	 	1581538594	9.90	18.33
12/02/2020 20:16:35	120220	12022020	201635	238.46	12.350447	-56.847930	238.33	-0.010	-1.300	1.800	238.37	-2.70	2.20	 	 	 	 	 	 	 	 	 	 	 	 	 	 	 	 	 	 	1581538595	9.67	17.91
12/02/2020 20:16:36	120220	12022020	201636	237.84	12.350430	-56.847972	237.80	-0.160	-0.610	2.310	237.75	-2.00	2.70	 	 	 	 	 	 	 	 	 	 	 	 	 	 	 	 	 	 	1581538596	9.23	17.09
12/02/2020 20:16:37	120220	12022020	201637	237.43	12.350413	-56.848010	237.43	-0.300	0.120	2.380	237.37	-1.30	2.80	 	 	 	 	 	 	 	 	 	 	 	 	 	 	 	 	 	 	1581538597	9.11	16.87
12/02/2020 20:16:38	120220	12022020	201638	237.22	12.350393	-56.848050	237.26	-0.330	0.540	2.090	237.22	-0.90	2.50	 	 	 	 	 	 	 	 	 	 	 	 	 	 	 	 	 	 	1581538598	9.32	17.26
12/02/2020 20:16:39	120220	12022020	201639	237.30	12.350372	-56.848090	237.39	-0.260	0.570	1.520	237.36	-0.80	2.00	 	 	 	 	 	 	 	 	 	 	 	 	 	 	 	 	 	 	1581538599	9.56	17.71
12/02/2020 20:16:40	120220	12022020	201640	237.73	12.350350	-56.848130	237.87	-0.170	0.300	0.730	237.85	-1.10	1.20	 	 	 	 	 	 	 	 	 	 	 	 	 	 	 	 	 	 	1581538600	9.70	17.96
12/02/2020 20:16:41	120220	12022020	201641	238.40	12.350325	-56.848168	238.55	-0.040	-0.080	-0.130	238.55	-1.50	0.30	 	 	 	 	 	 	 	 	 	 	 	 	 	 	 	 	 	 	1581538601	9.68	17.93
12/02/2020 20:16:42	120220	12022020	201642	239.12	12.350302	-56.848205	239.26	0.110	-0.380	-0.660	239.26	-1.80	-0.20	 	 	 	 	 	 	 	 	 	 	 	 	 	 	 	 	 	 	1581538602	9.55	17.69
12/02/2020 20:16:43	120220	12022020	201643	239.63	12.350278	-56.848243	239.68	0.200	-0.600	-0.460	239.67	-2.00	-0.10	 	 	 	 	 	 	 	 	 	 	 	 	 	 	 	 	 	 	1581538603	9.37	17.35
12/02/2020 20:16:44	120220	12022020	201644	239.62	12.350260	-56.848283	239.57	0.180	-0.750	0.450	239.54	-2.10	0.80	 	 	 	 	 	 	 	 	 	 	 	 	 	 	 	 	 	 	1581538604	9.34	17.30
12/02/2020 20:16:45	120220	12022020	201645	239.02	12.350245	-56.848325	238.91	0.110	-0.760	1.690	238.84	-2.10	2.10	 	 	 	 	 	 	 	 	 	 	 	 	 	 	 	 	 	 	1581538605	9.44	17.48
12/02/2020 20:16:46	120220	12022020	201646	238.11	12.350230	-56.848368	238.00	0.040	-0.640	2.600	237.93	-2.00	3.00	 	 	 	 	 	 	 	 	 	 	 	 	 	 	 	 	 	 	1581538606	9.51	17.61
12/02/2020 20:16:47	120220	12022020	201647	237.45	12.350213	-56.848408	237.32	0.030	-0.400	2.760	237.34	-1.80	3.20	 	 	 	 	 	 	 	 	 	 	 	 	 	 	 	 	 	 	1581538607	9.45	17.50
12/02/2020 20:16:48	120220	12022020	201648	237.02	12.350193	-56.848448	237.06	0.050	-0.140	2.300	237.00	-1.50	2.70	 	 	 	 	 	 	 	 	 	 	 	 	 	 	 	 	 	 	1581538608	9.30	17.22
12/02/2020 20:16:49	120220	12022020	201649	237.02	12.350172	-56.848487	237.12	0.050	-0.090	1.600	237.04	-1.50	2.10	 	 	 	 	 	 	 	 	 	 	 	 	 	 	 	 	 	 	1581538609	9.36	17.33
12/02/2020 20:16:50	120220	12022020	201650	237.17	12.350150	-56.848527	237.29	0.030	-0.280	0.970	237.22	-1.70	1.40	 	 	 	 	 	 	 	 	 	 	 	 	 	 	 	 	 	 	1581538610	9.65	17.87
12/02/2020 20:16:51	120220	12022020	201651	237.44	12.350128	-56.848567	237.56	-0.040	-0.390	0.620	237.51	-1.80	1.10	 	 	 	 	 	 	 	 	 	 	 	 	 	 	 	 	 	 	1581538611	9.75	18.06
12/02/2020 20:16:52	120220	12022020	201652	237.74	12.350108	-56.848607	237.84	-0.170	-0.240	0.600	237.79	-1.70	1.00	 	 	 	 	 	 	 	 	 	 	 	 	 	 	 	 	 	 	1581538612	9.50	17.59
12/02/2020 20:16:53	120220	12022020	201653	237.94	12.350088	-56.848647	238.03	-0.270	0.010	0.700	237.97	-1.40	1.10	 	 	 	 	 	 	 	 	 	 	 	 	 	 	 	 	 	 	1581538613	9.25	17.13
12/02/2020 20:16:54	120220	12022020	201654	238.00	12.350068	-56.848685	238.07	-0.210	0.160	0.850	237.99	-1.20	1.30	 	 	 	 	 	 	 	 	 	 	 	 	 	 	 	 	 	 	1581538614	9.20	17.04
12/02/2020 20:16:55	120220	12022020	201655	237.89	12.350048	-56.848723	237.91	0.000	0.080	1.080	237.84	-1.30	1.50	 	 	 	 	 	 	 	 	 	 	 	 	 	 	 	 	 	 	1581538615	9.28	17.19
12/02/2020 20:16:56	120220	12022020	201656	237.58	12.350028	-56.848763	237.57	0.270	-0.280	1.320	237.49	-1.70	1.80	 	 	 	 	 	 	 	 	 	 	 	 	 	 	 	 	 	 	1581538616	9.48	17.56
12/02/2020 20:16:57	120220	12022020	201657	237.11	12.350007	-56.848803	237.11	0.430	-0.750	1.460	237.03	-2.10	1.90	 	 	 	 	 	 	 	 	 	 	 	 	 	 	 	 	 	 	1581538617	9.72	18.00
12/02/2020 20:16:58	120220	12022020	201658	236.75	12.349985	-56.848843	236.80	0.320	-0.920	1.360	236.71	-2.30	1.80	 	 	 	 	 	 	 	 	 	 	 	 	 	 	 	 	 	 	1581538618	9.69	17.95
12/02/2020 20:16:59	120220	12022020	201659	236.63	12.349965	-56.848883	236.71	-0.000	-0.670	1.170	236.63	-2.10	1.60	 	 	 	 	 	 	 	 	 	 	 	 	 	 	 	 	 	 	1581538619	9.31	17.24
12/02/2020 20:17:00	120220	12022020	201700	236.72	12.349945	-56.848920	236.85	-0.320	-0.240	1.030	236.76	-1.70	1.50	 	 	 	 	 	 	 	 	 	 	 	 	 	 	 	 	 	 	1581538620	9.11	16.87
12/02/2020 20:17:01	120220	12022020	201701	236.91	12.349925	-56.848958	237.10	-0.480	0.020	1.020	236.96	-1.40	1.40	 	 	 	 	 	 	 	 	 	 	 	 	 	 	 	 	 	 	1581538621	9.18	17.00
12/02/2020 20:17:02	120220	12022020	201702	237.20	12.349905	-56.849000	237.34	-0.430	-0.050	1.140	237.23	-1.40	1.60	1014.60	26.40	26.50	20.70	20.80	308.0	70.0	71.0	390.0	28.9	226.00	6.10	83.00	10.10	21214	8643.0	27.5	27.5	1581538622	9.50	17.59
12/02/2020 20:17:03	120220	12022020	201703	237.30	12.349885	-56.849040	237.38	-0.230	-0.320	1.320	237.28	-1.70	1.70	 	 	 	 	 	 	 	 	 	 	 	 	 	 	 	 	 	 	1581538623	9.74	18.04
12/02/2020 20:17:04	120220	12022020	201704	237.15	12.349863	-56.849082	237.21	0.040	-0.600	1.440	237.10	-2.00	1.90	 	 	 	 	 	 	 	 	 	 	 	 	 	 	 	 	 	 	1581538624	9.80	18.15
12/02/2020 20:17:05	120220	12022020	201705	236.86	12.349842	-56.849122	236.88	0.220	-0.740	1.410	236.80	-2.10	1.90	 	 	 	 	 	 	 	 	 	 	 	 	 	 	 	 	 	 	1581538625	9.75	18.06
12/02/2020 20:17:06	120220	12022020	201706	236.60	12.349820	-56.849162	236.65	0.200	-0.580	1.240	236.57	-2.00	1.70	 	 	 	 	 	 	 	 	 	 	 	 	 	 	 	 	 	 	1581538626	9.58	17.74
12/02/2020 20:17:07	120220	12022020	201707	236.49	12.349798	-56.849200	236.55	0.020	-0.090	1.090	236.48	-1.50	1.50	 	 	 	 	 	 	 	 	 	 	 	 	 	 	 	 	 	 	1581538627	9.28	17.19
12/02/2020 20:17:08	120220	12022020	201708	236.49	12.349780	-56.849238	236.57	-0.180	0.480	1.140	236.50	-0.90	1.60	 	 	 	 	 	 	 	 	 	 	 	 	 	 	 	 	 	 	1581538628	9.09	16.83
12/02/2020 20:17:09	120220	12022020	201709	236.63	12.349762	-56.849277	236.73	-0.260	0.860	1.200	236.67	-0.60	1.60	 	 	 	 	 	 	 	 	 	 	 	 	 	 	 	 	 	 	1581538629	9.12	16.89
12/02/2020 20:17:10	120220	12022020	201710	236.92	12.349743	-56.849317	237.03	-0.130	0.720	1.040	237.00	-0.70	1.50	 	 	 	 	 	 	 	 	 	 	 	 	 	 	 	 	 	 	1581538630	9.27	17.17
12/02/2020 20:17:11	120220	12022020	201711	237.27	12.349722	-56.849357	237.38	0.170	0.050	0.700	237.32	-1.30	1.10	 	 	 	 	 	 	 	 	 	 	 	 	 	 	 	 	 	 	1581538631	9.58	17.74
12/02/2020 20:17:12	120220	12022020	201712	237.43	12.349698	-56.849397	237.49	0.420	-0.820	0.450	237.43	-2.20	0.90	 	 	 	 	 	 	 	 	 	 	 	 	 	 	 	 	 	 	1581538632	9.80	18.15
12/02/2020 20:17:13	120220	12022020	201713	237.33	12.349675	-56.849435	237.35	0.440	-1.430	0.400	237.30	-2.80	0.80	 	 	 	 	 	 	 	 	 	 	 	 	 	 	 	 	 	 	1581538633	9.70	17.96
12/02/2020 20:17:14	120220	12022020	201714	237.12	12.349653	-56.849473	237.13	0.210	-1.630	0.550	237.09	-3.00	1.00	 	 	 	 	 	 	 	 	 	 	 	 	 	 	 	 	 	 	1581538634	9.43	17.46
12/02/2020 20:17:15	120220	12022020	201715	236.99	12.349632	-56.849512	237.01	-0.140	-1.470	0.720	236.98	-2.90	1.10	 	 	 	 	 	 	 	 	 	 	 	 	 	 	 	 	 	 	1581538635	9.34	17.30
12/02/2020 20:17:16	120220	12022020	201716	236.98	12.349612	-56.849552	237.00	-0.460	-1.010	0.840	236.98	-2.40	1.30	 	 	 	 	 	 	 	 	 	 	 	 	 	 	 	 	 	 	1581538636	9.37	17.35
12/02/2020 20:17:17	120220	12022020	201717	237.03	12.349592	-56.849592	237.08	-0.680	-0.440	0.940	237.05	-1.90	1.40	 	 	 	 	 	 	 	 	 	 	 	 	 	 	 	 	 	 	1581538637	9.50	17.59
12/02/2020 20:17:18	120220	12022020	201718	237.11	12.349570	-56.849632	237.16	-0.730	0.160	1.110	237.12	-1.30	1.50	 	 	 	 	 	 	 	 	 	 	 	 	 	 	 	 	 	 	1581538638	9.62	17.82
12/02/2020 20:17:19	120220	12022020	201719	237.09	12.349552	-56.849673	237.11	-0.590	0.620	1.360	237.07	-0.80	1.80	 	 	 	 	 	 	 	 	 	 	 	 	 	 	 	 	 	 	1581538639	9.67	17.91
12/02/2020 20:17:20	120220	12022020	201720	236.93	12.349530	-56.849715	236.93	-0.310	0.790	1.590	236.89	-0.60	2.00	 	 	 	 	 	 	 	 	 	 	 	 	 	 	 	 	 	 	1581538640	9.82	18.19
12/02/2020 20:17:21	120220	12022020	201721	236.72	12.349510	-56.849757	236.72	0.020	0.810	1.660	236.68	-0.60	2.10	 	 	 	 	 	 	 	 	 	 	 	 	 	 	 	 	 	 	1581538641	9.82	18.19
12/02/2020 20:17:22	120220	12022020	201722	236.49	12.349490	-56.849797	236.48	0.360	0.760	1.540	236.43	-0.60	2.00	 	 	 	 	 	 	 	 	 	 	 	 	 	 	 	 	 	 	1581538642	9.52	17.63
12/02/2020 20:17:23	120220	12022020	201723	236.19	12.349468	-56.849835	236.17	0.630	0.440	1.400	236.14	-0.90	1.80	 	 	 	 	 	 	 	 	 	 	 	 	 	 	 	 	 	 	1581538643	9.35	17.32
12/02/2020 20:17:24	120220	12022020	201724	235.97	12.349447	-56.849873	235.98	0.750	-0.200	1.210	235.94	-1.60	1.60	 	 	 	 	 	 	 	 	 	 	 	 	 	 	 	 	 	 	1581538644	9.44	17.48
12/02/2020 20:17:25	120220	12022020	201725	235.82	12.349425	-56.849913	235.86	0.690	-0.900	0.940	235.80	-2.30	1.40	 	 	 	 	 	 	 	 	 	 	 	 	 	 	 	 	 	 	1581538645	9.51	17.61
12/02/2020 20:17:26	120220	12022020	201726	235.79	12.349402	-56.849950	235.87	0.470	-1.340	0.550	235.81	-2.70	1.00	 	 	 	 	 	 	 	 	 	 	 	 	 	 	 	 	 	 	1581538646	9.41	17.43
12/02/2020 20:17:27	120220	12022020	201727	235.95	12.349380	-56.849988	236.06	0.140	-1.450	0.250	236.00	-2.80	0.70	 	 	 	 	 	 	 	 	 	 	 	 	 	 	 	 	 	 	1581538647	9.22	17.08
12/02/2020 20:17:28	120220	12022020	201728	236.28	12.349358	-56.850025	236.40	-0.170	-1.360	0.220	236.36	-2.80	0.70	 	 	 	 	 	 	 	 	 	 	 	 	 	 	 	 	 	 	1581538648	9.24	17.11
12/02/2020 20:17:29	120220	12022020	201729	236.70	12.349338	-56.850065	236.82	-0.340	-1.120	0.390	236.78	-2.50	0.80	 	 	 	 	 	 	 	 	 	 	 	 	 	 	 	 	 	 	1581538649	9.41	17.43
12/02/2020 20:17:30	120220	12022020	201730	237.07	12.349318	-56.850105	237.17	-0.330	-0.820	0.630	237.12	-2.20	1.00	 	 	 	 	 	 	 	 	 	 	 	 	 	 	 	 	 	 	1581538650	9.57	17.72
12/02/2020 20:17:31	120220	12022020	201731	237.21	12.349297	-56.850147	237.27	-0.250	-0.570	0.950	237.20	-2.00	1.40	 	 	 	 	 	 	 	 	 	 	 	 	 	 	 	 	 	 	1581538651	9.81	18.17
12/02/2020 20:17:32	120220	12022020	201732	237.02	12.349275	-56.850188	237.05	-0.320	-0.240	1.360	236.95	-1.60	1.80	 	 	 	 	 	 	 	 	 	 	 	 	 	 	 	 	 	 	1581538652	10.00	18.52
12/02/2020 20:17:33	120220	12022020	201733	236.60	12.349252	-56.850228	236.61	-0.540	0.240	1.680	236.50	-1.20	2.10	 	 	 	 	 	 	 	 	 	 	 	 	 	 	 	 	 	 	1581538653	9.87	18.28
12/02/2020 20:17:34	120220	12022020	201734	236.11	12.349230	-56.850270	236.10	-0.670	0.770	1.860	236.00	-0.60	2.30	 	 	 	 	 	 	 	 	 	 	 	 	 	 	 	 	 	 	1581538654	9.71	17.98
12/02/2020 20:17:35	120220	12022020	201735	235.63	12.349210	-56.850310	235.63	-0.480	1.100	1.900	235.54	-0.30	2.30	 	 	 	 	 	 	 	 	 	 	 	 	 	 	 	 	 	 	1581538655	9.61	17.80
12/02/2020 20:17:36	120220	12022020	201736	235.28	12.349188	-56.850350	235.32	-0.020	1.050	1.730	235.24	-0.30	2.20	 	 	 	 	 	 	 	 	 	 	 	 	 	 	 	 	 	 	1581538656	9.63	17.83
12/02/2020 20:17:37	120220	12022020	201737	235.19	12.349165	-56.850388	235.30	0.430	0.660	1.330	235.20	-0.70	1.80	 	 	 	 	 	 	 	 	 	 	 	 	 	 	 	 	 	 	1581538657	9.66	17.89
12/02/2020 20:17:38	120220	12022020	201738	235.39	12.349143	-56.850428	235.54	0.680	0.080	0.950	235.46	-1.30	1.40	 	 	 	 	 	 	 	 	 	 	 	 	 	 	 	 	 	 	1581538658	9.54	17.67
12/02/2020 20:17:39	120220	12022020	201739	235.76	12.349122	-56.850467	235.91	0.740	-0.530	0.650	235.83	-1.90	1.10	 	 	 	 	 	 	 	 	 	 	 	 	 	 	 	 	 	 	1581538659	9.38	17.37
12/02/2020 20:17:40	120220	12022020	201740	236.13	12.349102	-56.850505	236.25	0.730	-1.130	0.520	236.19	-2.50	1.00	 	 	 	 	 	 	 	 	 	 	 	 	 	 	 	 	 	 	1581538660	9.26	17.15
12/02/2020 20:17:41	120220	12022020	201741	236.37	12.349080	-56.850543	236.46	0.670	-1.680	0.600	236.39	-3.00	1.00	 	 	 	 	 	 	 	 	 	 	 	 	 	 	 	 	 	 	1581538661	9.36	17.33
12/02/2020 20:17:42	120220	12022020	201742	236.41	12.349058	-56.850583	236.46	0.440	-2.030	0.900	236.39	-3.40	1.30	 	 	 	 	 	 	 	 	 	 	 	 	 	 	 	 	 	 	1581538662	9.53	17.65
12/02/2020 20:17:43	120220	12022020	201743	236.22	12.349038	-56.850623	236.23	0.050	-1.990	1.320	236.16	-3.40	1.70	 	 	 	 	 	 	 	 	 	 	 	 	 	 	 	 	 	 	1581538663	9.70	17.96
12/02/2020 20:17:44	120220	12022020	201744	235.96	12.349018	-56.850665	235.98	-0.410	-1.340	1.630	235.92	-2.80	2.10	 	 	 	 	 	 	 	 	 	 	 	 	 	 	 	 	 	 	1581538664	9.66	17.89
12/02/2020 20:17:45	120220	12022020	201745	235.82	12.348997	-56.850703	235.87	-0.730	-0.190	1.640	235.81	-1.60	2.10	 	 	 	 	 	 	 	 	 	 	 	 	 	 	 	 	 	 	1581538665	9.37	17.35
12/02/2020 20:17:46	120220	12022020	201746	235.81	12.348975	-56.850742	235.87	-0.770	0.860	1.390	235.81	-0.60	1.80	 	 	 	 	 	 	 	 	 	 	 	 	 	 	 	 	 	 	1581538666	9.28	17.19
12/02/2020 20:17:47	120220	12022020	201747	235.82	12.348950	-56.850780	235.89	-0.610	1.310	1.210	235.82	-0.10	1.60	 	 	 	 	 	 	 	 	 	 	 	 	 	 	 	 	 	 	1581538667	9.67	17.91
12/02/2020 20:17:48	120220	12022020	201748	235.80	12.348925	-56.850820	235.84	-0.380	1.160	1.340	235.77	-0.20	1.80	 	 	 	 	 	 	 	 	 	 	 	 	 	 	 	 	 	 	1581538668	10.08	18.67
12/02/2020 20:17:49	120220	12022020	201749	235.70	12.348903	-56.850862	235.71	-0.120	0.780	1.750	235.66	-0.60	2.20	 	 	 	 	 	 	 	 	 	 	 	 	 	 	 	 	 	 	1581538669	10.14	18.78
12/02/2020 20:17:50	120220	12022020	201750	235.50	12.348883	-56.850905	235.56	0.220	0.390	1.980	235.48	-1.00	2.40	 	 	 	 	 	 	 	 	 	 	 	 	 	 	 	 	 	 	1581538670	9.83	18.21
12/02/2020 20:17:51	120220	12022020	201751	235.39	12.348863	-56.850945	235.41	0.600	-0.160	1.810	235.37	-1.50	2.30	 	 	 	 	 	 	 	 	 	 	 	 	 	 	 	 	 	 	1581538671	9.55	17.69
12/02/2020 20:17:52	120220	12022020	201752	235.22	12.348840	-56.850983	235.27	0.840	-0.870	1.390	235.20	-2.20	1.80	 	 	 	 	 	 	 	 	 	 	 	 	 	 	 	 	 	 	1581538672	9.57	17.72
12/02/2020 20:17:53	120220	12022020	201753	235.13	12.348817	-56.851022	235.18	0.740	-1.420	0.920	235.11	-2.80	1.40	 	 	 	 	 	 	 	 	 	 	 	 	 	 	 	 	 	 	1581538673	9.58	17.74
12/02/2020 20:17:54	120220	12022020	201754	235.12	12.348793	-56.851060	235.19	0.340	-1.530	0.540	235.13	-2.90	1.00	 	 	 	 	 	 	 	 	 	 	 	 	 	 	 	 	 	 	1581538674	9.38	17.37
12/02/2020 20:17:55	120220	12022020	201755	235.19	12.348770	-56.851095	235.26	-0.130	-1.180	0.310	235.21	-2.60	0.80	 	 	 	 	 	 	 	 	 	 	 	 	 	 	 	 	 	 	1581538675	9.15	16.95
12/02/2020 20:17:56	120220	12022020	201756	235.29	12.348748	-56.851133	235.38	-0.460	-0.560	0.320	235.32	-2.00	0.80	 	 	 	 	 	 	 	 	 	 	 	 	 	 	 	 	 	 	1581538676	9.07	16.80
12/02/2020 20:17:57	120220	12022020	201757	235.50	12.348728	-56.851170	235.60	-0.570	-0.070	0.490	235.55	-1.50	0.90	 	 	 	 	 	 	 	 	 	 	 	 	 	 	 	 	 	 	1581538677	9.18	17.00
12/02/2020 20:17:58	120220	12022020	201758	235.78	12.348705	-56.851210	235.90	-0.470	0.010	0.650	235.84	-1.40	1.10	 	 	 	 	 	 	 	 	 	 	 	 	 	 	 	 	 	 	1581538678	9.62	17.82
12/02/2020 20:17:59	120220	12022020	201759	235.98	12.348682	-56.851250	236.06	-0.220	-0.160	0.780	235.99	-1.50	1.20	 	 	 	 	 	 	 	 	 	 	 	 	 	 	 	 	 	 	1581538679	10.03	18.58
12/02/2020 20:18:00	120220	12022020	201800	235.98	12.348658	-56.851292	236.03	0.030	-0.190	1.010	235.97	-1.60	1.40	 	 	 	 	 	 	 	 	 	 	 	 	 	 	 	 	 	 	1581538680	10.07	18.65
12/02/2020 20:18:01	120220	12022020	201801	235.82	12.348637	-56.851332	235.83	0.160	0.080	1.340	235.76	-1.30	1.80	 	 	 	 	 	 	 	 	 	 	 	 	 	 	 	 	 	 	1581538681	9.69	17.95
12/02/2020 20:18:02	120220	12022020	201802	235.49	12.348615	-56.851372	235.51	0.140	0.360	1.690	235.42	-1.00	2.10	1014.60	26.40	26.50	20.50	20.70	303.0	70.0	70.0	390.0	28.9	226.00	5.70	81.00	9.80	18797	8929.0	27.5	27.5	1581538682	9.41	17.43
12/02/2020 20:18:03	120220	12022020	201803	235.17	12.348595	-56.851412	235.20	0.090	0.270	1.760	235.13	-1.10	2.20	 	 	 	 	 	 	 	 	 	 	 	 	 	 	 	 	 	 	1581538683	9.55	17.69
12/02/2020 20:18:04	120220	12022020	201804	235.03	12.348573	-56.851452	235.11	0.080	-0.060	1.460	235.03	-1.40	1.90	 	 	 	 	 	 	 	 	 	 	 	 	 	 	 	 	 	 	1581538684	9.77	18.09
12/02/2020 20:18:05	120220	12022020	201805	235.12	12.348550	-56.851490	235.22	0.110	-0.300	0.960	235.16	-1.70	1.40	 	 	 	 	 	 	 	 	 	 	 	 	 	 	 	 	 	 	1581538685	9.66	17.89
12/02/2020 20:18:06	120220	12022020	201806	235.39	12.348525	-56.851527	235.53	0.120	-0.420	0.420	235.47	-1.80	0.90	 	 	 	 	 	 	 	 	 	 	 	 	 	 	 	 	 	 	1581538686	9.40	17.41
12/02/2020 20:18:07	120220	12022020	201807	235.77	12.348502	-56.851565	235.88	0.130	-0.530	0.100	235.83	-1.90	0.60	 	 	 	 	 	 	 	 	 	 	 	 	 	 	 	 	 	 	1581538687	9.33	17.28
12/02/2020 20:18:08	120220	12022020	201808	236.02	12.348478	-56.851602	236.08	0.130	-0.620	0.090	236.05	-2.00	0.50	 	 	 	 	 	 	 	 	 	 	 	 	 	 	 	 	 	 	1581538688	9.38	17.37
12/02/2020 20:18:09	120220	12022020	201809	236.14	12.348457	-56.851642	236.18	0.070	-0.720	0.370	236.15	-2.10	0.80	 	 	 	 	 	 	 	 	 	 	 	 	 	 	 	 	 	 	1581538689	9.46	17.52
12/02/2020 20:18:10	120220	12022020	201810	236.15	12.348435	-56.851682	236.18	-0.030	-0.900	0.790	236.14	-2.30	1.20	 	 	 	 	 	 	 	 	 	 	 	 	 	 	 	 	 	 	1581538690	9.67	17.91
12/02/2020 20:18:11	120220	12022020	201811	236.04	12.348413	-56.851722	236.04	-0.120	-0.970	1.140	236.00	-2.40	1.60	 	 	 	 	 	 	 	 	 	 	 	 	 	 	 	 	 	 	1581538691	9.84	18.22
12/02/2020 20:18:12	120220	12022020	201812	235.86	12.348392	-56.851763	235.87	-0.180	-0.800	1.290	235.82	-2.20	1.70	 	 	 	 	 	 	 	 	 	 	 	 	 	 	 	 	 	 	1581538692	9.80	18.15
12/02/2020 20:18:13	120220	12022020	201813	235.70	12.348368	-56.851802	235.72	-0.260	-0.420	1.300	235.67	-1.80	1.70	 	 	 	 	 	 	 	 	 	 	 	 	 	 	 	 	 	 	1581538693	9.71	17.98
12/02/2020 20:18:14	120220	12022020	201814	235.61	12.348347	-56.851842	235.64	-0.320	0.030	1.260	235.60	-1.40	1.70	 	 	 	 	 	 	 	 	 	 	 	 	 	 	 	 	 	 	1581538694	9.64	17.85
12/02/2020 20:18:15	120220	12022020	201815	235.60	12.348325	-56.851882	235.65	-0.290	0.510	1.200	235.60	-0.90	1.60	 	 	 	 	 	 	 	 	 	 	 	 	 	 	 	 	 	 	1581538695	9.60	17.78
12/02/2020 20:18:16	120220	12022020	201816	235.63	12.348302	-56.851920	235.69	-0.140	0.870	1.040	235.64	-0.50	1.50	 	 	 	 	 	 	 	 	 	 	 	 	 	 	 	 	 	 	1581538696	9.43	17.46
12/02/2020 20:18:17	120220	12022020	201817	235.66	12.348278	-56.851958	235.72	0.110	0.760	0.900	235.66	-0.60	1.30	 	 	 	 	 	 	 	 	 	 	 	 	 	 	 	 	 	 	1581538697	9.54	17.67
12/02/2020 20:18:18	120220	12022020	201818	235.70	12.348255	-56.851998	235.77	0.360	0.210	0.810	235.71	-1.20	1.30	 	 	 	 	 	 	 	 	 	 	 	 	 	 	 	 	 	 	1581538698	9.91	18.35
12/02/2020 20:18:19	120220	12022020	201819	235.84	12.348232	-56.852038	235.91	0.490	-0.340	0.690	235.88	-1.70	1.10	 	 	 	 	 	 	 	 	 	 	 	 	 	 	 	 	 	 	1581538699	9.93	18.39
12/02/2020 20:18:20	120220	12022020	201820	235.97	12.348210	-56.852078	236.01	0.420	-0.640	0.670	235.99	-2.00	1.10	 	 	 	 	 	 	 	 	 	 	 	 	 	 	 	 	 	 	1581538700	9.59	17.76
12/02/2020 20:18:21	120220	12022020	201821	236.02	12.348188	-56.852117	236.07	0.220	-0.750	0.700	236.03	-2.20	1.10	 	 	 	 	 	 	 	 	 	 	 	 	 	 	 	 	 	 	1581538701	9.28	17.19
12/02/2020 20:18:22	120220	12022020	201822	236.09	12.348168	-56.852155	236.17	0.030	-0.870	0.550	236.11	-2.30	1.00	 	 	 	 	 	 	 	 	 	 	 	 	 	 	 	 	 	 	1581538702	9.21	17.06
12/02/2020 20:18:23	120220	12022020	201823	236.27	12.348143	-56.852192	236.38	-0.020	-1.070	0.200	236.32	-2.50	0.70	 	 	 	 	 	 	 	 	 	 	 	 	 	 	 	 	 	 	1581538703	9.43	17.46
12/02/2020 20:18:24	120220	12022020	201824	236.60	12.348120	-56.852230	236.74	0.010	-1.150	-0.060	236.67	-2.60	0.40	 	 	 	 	 	 	 	 	 	 	 	 	 	 	 	 	 	 	1581538704	9.61	17.80
12/02/2020 20:18:25	120220	12022020	201825	236.91	12.348095	-56.852268	237.02	0.000	-1.050	0.050	236.94	-2.50	0.50	 	 	 	 	 	 	 	 	 	 	 	 	 	 	 	 	 	 	1581538705	9.65	17.87
12/02/2020 20:18:26	120220	12022020	201826	236.82	12.348073	-56.852310	236.80	-0.080	-0.860	0.690	236.73	-2.30	1.10	 	 	 	 	 	 	 	 	 	 	 	 	 	 	 	 	 	 	1581538706	9.83	18.21
12/02/2020 20:18:27	120220	12022020	201827	236.26	12.348052	-56.852352	236.20	-0.270	-0.500	1.570	236.12	-1.90	2.00	 	 	 	 	 	 	 	 	 	 	 	 	 	 	 	 	 	 	1581538707	10.08	18.67
12/02/2020 20:18:28	120220	12022020	201828	235.60	12.348032	-56.852395	235.57	-0.550	0.160	2.220	235.49	-1.30	2.60	 	 	 	 	 	 	 	 	 	 	 	 	 	 	 	 	 	 	1581538708	10.02	18.56
12/02/2020 20:18:29	120220	12022020	201829	235.20	12.348013	-56.852437	235.28	-0.730	0.870	2.290	235.19	-0.60	2.70	 	 	 	 	 	 	 	 	 	 	 	 	 	 	 	 	 	 	1581538709	9.78	18.11
12/02/2020 20:18:30	120220	12022020	201830	235.36	12.347993	-56.852478	235.55	-0.630	1.310	1.670	235.46	-0.10	2.20	 	 	 	 	 	 	 	 	 	 	 	 	 	 	 	 	 	 	1581538710	9.57	17.72
12/02/2020 20:18:31	120220	12022020	201831	236.03	12.347972	-56.852517	236.27	-0.230	1.140	0.520	236.21	-0.30	1.00	 	 	 	 	 	 	 	 	 	 	 	 	 	 	 	 	 	 	1581538711	9.56	17.71
12/02/2020 20:18:32	120220	12022020	201832	236.89	12.347945	-56.852555	237.09	0.290	0.290	-0.540	237.06	-1.10	-0.10	 	 	 	 	 	 	 	 	 	 	 	 	 	 	 	 	 	 	1581538712	9.90	18.33
12/02/2020 20:18:33	120220	12022020	201833	237.60	12.347917	-56.852593	237.73	0.660	-0.640	-0.960	237.70	-2.00	-0.50	 	 	 	 	 	 	 	 	 	 	 	 	 	 	 	 	 	 	1581538713	10.08	18.67
12/02/2020 20:18:34	120220	12022020	201834	237.97	12.347893	-56.852632	238.04	0.650	-1.020	-0.690	238.00	-2.40	-0.30	 	 	 	 	 	 	 	 	 	 	 	 	 	 	 	 	 	 	1581538714	9.57	17.72
12/02/2020 20:18:35	120220	12022020	201835	237.98	12.347873	-56.852668	238.01	0.360	-0.940	0.050	237.95	-2.40	0.50	 	 	 	 	 	 	 	 	 	 	 	 	 	 	 	 	 	 	1581538715	8.96	16.59
12/02/2020 20:18:36	120220	12022020	201836	237.68	12.347857	-56.852707	237.66	0.140	-0.770	0.980	237.59	-2.20	1.40	 	 	 	 	 	 	 	 	 	 	 	 	 	 	 	 	 	 	1581538716	8.92	16.52
12/02/2020 20:18:37	120220	12022020	201837	237.20	12.347840	-56.852747	237.16	0.150	-0.710	1.740	237.09	-2.10	2.10	 	 	 	 	 	 	 	 	 	 	 	 	 	 	 	 	 	 	1581538717	9.26	17.15
12/02/2020 20:18:38	120220	12022020	201838	236.71	12.347820	-56.852788	236.70	0.290	-0.790	2.120	236.64	-2.20	2.50	 	 	 	 	 	 	 	 	 	 	 	 	 	 	 	 	 	 	1581538718	9.65	17.87
12/02/2020 20:18:39	120220	12022020	201839	236.52	12.347800	-56.852832	236.55	0.240	-0.890	1.980	236.50	-2.30	2.40	 	 	 	 	 	 	 	 	 	 	 	 	 	 	 	 	 	 	1581538719	9.88	18.30
12/02/2020 20:18:40	120220	12022020	201840	236.61	12.347778	-56.852873	236.68	-0.080	-0.920	1.510	236.65	-2.30	2.00	 	 	 	 	 	 	 	 	 	 	 	 	 	 	 	 	 	 	1581538720	9.94	18.41
12/02/2020 20:18:41	120220	12022020	201841	236.81	12.347757	-56.852913	236.92	-0.470	-0.720	0.930	236.86	-2.10	1.40	 	 	 	 	 	 	 	 	 	 	 	 	 	 	 	 	 	 	1581538721	9.91	18.35
12/02/2020 20:18:42	120220	12022020	201842	237.16	12.347733	-56.852953	237.22	-0.710	-0.230	0.370	237.21	-1.70	0.80	 	 	 	 	 	 	 	 	 	 	 	 	 	 	 	 	 	 	1581538722	9.74	18.04
12/02/2020 20:18:43	120220	12022020	201843	237.42	12.347710	-56.852992	237.46	-0.750	0.340	0.080	237.45	-1.10	0.50	 	 	 	 	 	 	 	 	 	 	 	 	 	 	 	 	 	 	1581538723	9.51	17.61
12/02/2020 20:18:44	120220	12022020	201844	237.53	12.347688	-56.853030	237.56	-0.580	0.630	0.100	237.53	-0.80	0.50	 	 	 	 	 	 	 	 	 	 	 	 	 	 	 	 	 	 	1581538724	9.57	17.72
12/02/2020 20:18:45	120220	12022020	201845	237.54	12.347665	-56.853070	237.58	-0.240	0.630	0.250	237.55	-0.80	0.70	 	 	 	 	 	 	 	 	 	 	 	 	 	 	 	 	 	 	1581538725	9.75	18.06
12/02/2020 20:18:46	120220	12022020	201846	237.54	12.347642	-56.853110	237.58	0.100	0.490	0.520	237.54	-0.90	0.90	 	 	 	 	 	 	 	 	 	 	 	 	 	 	 	 	 	 	1581538726	9.78	18.11
12/02/2020 20:18:47	120220	12022020	201847	237.54	12.347620	-56.853150	237.59	0.290	0.360	0.870	237.55	-1.00	1.30	 	 	 	 	 	 	 	 	 	 	 	 	 	 	 	 	 	 	1581538727	9.60	17.78
12/02/2020 20:18:48	120220	12022020	201848	237.64	12.347602	-56.853190	237.69	0.360	0.270	1.140	237.66	-1.10	1.60	 	 	 	 	 	 	 	 	 	 	 	 	 	 	 	 	 	 	1581538728	9.29	17.21
12/02/2020 20:18:49	120220	12022020	201849	237.73	12.347583	-56.853228	237.77	0.490	0.040	1.270	237.74	-1.40	1.70	 	 	 	 	 	 	 	 	 	 	 	 	 	 	 	 	 	 	1581538729	9.09	16.83
12/02/2020 20:18:50	120220	12022020	201850	237.67	12.347563	-56.853268	237.65	0.750	-0.630	1.400	237.62	-2.00	1.80	 	 	 	 	 	 	 	 	 	 	 	 	 	 	 	 	 	 	1581538730	9.31	17.24
12/02/2020 20:18:51	120220	12022020	201851	237.36	12.347543	-56.853310	237.29	0.940	-1.560	1.660	237.27	-2.90	2.10	 	 	 	 	 	 	 	 	 	 	 	 	 	 	 	 	 	 	1581538731	9.84	18.22
12/02/2020 20:18:52	120220	12022020	201852	236.88	12.347523	-56.853353	236.78	0.810	-2.130	1.850	236.77	-3.50	2.30	 	 	 	 	 	 	 	 	 	 	 	 	 	 	 	 	 	 	1581538732	10.03	18.58
12/02/2020 20:18:53	120220	12022020	201853	236.37	12.347503	-56.853393	236.29	0.310	-2.000	1.750	236.27	-3.40	2.20	 	 	 	 	 	 	 	 	 	 	 	 	 	 	 	 	 	 	1581538733	9.73	18.02
12/02/2020 20:18:54	120220	12022020	201854	235.99	12.347483	-56.853432	235.98	-0.330	-1.210	1.380	235.95	-2.70	1.80	 	 	 	 	 	 	 	 	 	 	 	 	 	 	 	 	 	 	1581538734	9.39	17.39
12/02/2020 20:18:55	120220	12022020	201855	236.02	12.347460	-56.853470	236.10	-0.850	-0.120	0.870	236.07	-1.60	1.30	 	 	 	 	 	 	 	 	 	 	 	 	 	 	 	 	 	 	1581538735	9.22	17.08
12/02/2020 20:18:56	120220	12022020	201856	236.46	12.347437	-56.853507	236.60	-1.080	0.760	0.470	236.59	-0.70	0.90	 	 	 	 	 	 	 	 	 	 	 	 	 	 	 	 	 	 	1581538736	9.34	17.30
12/02/2020 20:18:57	120220	12022020	201857	237.11	12.347415	-56.853547	237.27	-0.990	1.080	0.460	237.25	-0.30	0.90	 	 	 	 	 	 	 	 	 	 	 	 	 	 	 	 	 	 	1581538737	9.75	18.06
12/02/2020 20:18:58	120220	12022020	201858	237.77	12.347393	-56.853590	237.96	-0.660	0.910	0.720	237.90	-0.50	1.10	 	 	 	 	 	 	 	 	 	 	 	 	 	 	 	 	 	 	1581538738	10.08	18.67
12/02/2020 20:18:59	120220	12022020	201859	238.39	12.347372	-56.853632	238.54	-0.220	0.460	1.010	238.50	-0.90	1.40	 	 	 	 	 	 	 	 	 	 	 	 	 	 	 	 	 	 	1581538739	10.09	18.69
12/02/2020 20:19:00	120220	12022020	201900	238.83	12.347352	-56.853675	238.94	0.180	-0.010	1.320	238.88	-1.40	1.70	 	 	 	 	 	 	 	 	 	 	 	 	 	 	 	 	 	 	1581538740	9.88	18.30
12/02/2020 20:19:01	120220	12022020	201901	238.87	12.347332	-56.853715	238.86	0.480	-0.330	1.660	238.81	-1.70	2.10	 	 	 	 	 	 	 	 	 	 	 	 	 	 	 	 	 	 	1581538741	9.55	17.69
12/02/2020 20:19:02	120220	12022020	201902	238.44	12.347312	-56.853753	238.39	0.670	-0.480	1.920	238.32	-1.90	2.30	1014.60	26.50	26.60	20.60	20.70	302.0	70.0	70.0	390.0	28.9	232.00	5.30	84.00	9.20	18531	8479.0	27.5	27.5	1581538742	9.30	17.22
12/02/2020 20:19:03	120220	12022020	201903	237.81	12.347292	-56.853792	237.72	0.690	-0.520	2.040	237.67	-1.90	2.50	 	 	 	 	 	 	 	 	 	 	 	 	 	 	 	 	 	 	1581538743	9.22	17.08
12/02/2020 20:19:04	120220	12022020	201904	237.15	12.347270	-56.853830	237.07	0.550	-0.530	1.900	237.03	-1.90	2.30	 	 	 	 	 	 	 	 	 	 	 	 	 	 	 	 	 	 	1581538744	9.20	17.04
12/02/2020 20:19:05	120220	12022020	201905	236.63	12.347250	-56.853868	236.60	0.350	-0.610	1.450	236.55	-2.00	1.90	 	 	 	 	 	 	 	 	 	 	 	 	 	 	 	 	 	 	1581538745	9.29	17.21
12/02/2020 20:19:06	120220	12022020	201906	236.44	12.347228	-56.853908	236.50	0.200	-0.760	0.830	236.47	-2.10	1.30	 	 	 	 	 	 	 	 	 	 	 	 	 	 	 	 	 	 	1581538746	9.48	17.56
12/02/2020 20:19:07	120220	12022020	201907	236.75	12.347207	-56.853948	236.87	0.080	-0.820	0.160	236.86	-2.20	0.60	 	 	 	 	 	 	 	 	 	 	 	 	 	 	 	 	 	 	1581538747	9.61	17.80
12/02/2020 20:19:08	120220	12022020	201908	237.45	12.347185	-56.853987	237.61	-0.140	-0.640	-0.310	237.59	-2.00	0.10	 	 	 	 	 	 	 	 	 	 	 	 	 	 	 	 	 	 	1581538748	9.52	17.63
12/02/2020 20:19:09	120220	12022020	201909	238.18	12.347165	-56.854027	238.32	-0.430	-0.360	-0.240	238.30	-1.80	0.20	 	 	 	 	 	 	 	 	 	 	 	 	 	 	 	 	 	 	1581538749	9.40	17.41
12/02/2020 20:19:10	120220	12022020	201910	238.61	12.347147	-56.854067	238.68	-0.560	-0.190	0.310	238.64	-1.60	0.70	 	 	 	 	 	 	 	 	 	 	 	 	 	 	 	 	 	 	1581538750	9.53	17.65
12/02/2020 20:19:11	120220	12022020	201911	238.59	12.347127	-56.854108	238.59	-0.410	-0.110	1.040	238.53	-1.50	1.40	 	 	 	 	 	 	 	 	 	 	 	 	 	 	 	 	 	 	1581538751	9.72	18.00
12/02/2020 20:19:12	120220	12022020	201912	238.21	12.347108	-56.854150	238.19	-0.130	-0.000	1.570	238.11	-1.40	2.00	 	 	 	 	 	 	 	 	 	 	 	 	 	 	 	 	 	 	1581538752	9.74	18.04
12/02/2020 20:19:13	120220	12022020	201913	237.74	12.347087	-56.854190	237.72	0.070	0.080	1.650	237.65	-1.30	2.10	 	 	 	 	 	 	 	 	 	 	 	 	 	 	 	 	 	 	1581538753	9.60	17.78
12/02/2020 20:19:14	120220	12022020	201914	237.30	12.347065	-56.854230	237.28	0.130	0.040	1.380	237.22	-1.40	1.80	 	 	 	 	 	 	 	 	 	 	 	 	 	 	 	 	 	 	1581538754	9.55	17.69
12/02/2020 20:19:15	120220	12022020	201915	236.98	12.347042	-56.854268	237.00	0.100	-0.100	0.950	236.95	-1.50	1.40	 	 	 	 	 	 	 	 	 	 	 	 	 	 	 	 	 	 	1581538755	9.57	17.72
12/02/2020 20:19:16	120220	12022020	201916	236.93	12.347018	-56.854307	236.97	0.090	-0.270	0.550	236.94	-1.70	1.00	 	 	 	 	 	 	 	 	 	 	 	 	 	 	 	 	 	 	1581538756	9.54	17.67
12/02/2020 20:19:17	120220	12022020	201917	237.03	12.346997	-56.854345	237.15	0.130	-0.350	0.390	237.06	-1.70	0.80	 	 	 	 	 	 	 	 	 	 	 	 	 	 	 	 	 	 	1581538757	9.51	17.61
12/02/2020 20:19:18	120220	12022020	201918	237.30	12.346975	-56.854383	237.38	0.130	-0.290	0.560	237.35	-1.70	1.00	 	 	 	 	 	 	 	 	 	 	 	 	 	 	 	 	 	 	1581538758	9.39	17.39
12/02/2020 20:19:19	120220	12022020	201919	237.49	12.346955	-56.854423	237.55	0.050	-0.140	0.890	237.52	-1.50	1.30	 	 	 	 	 	 	 	 	 	 	 	 	 	 	 	 	 	 	1581538759	9.23	17.09
12/02/2020 20:19:20	120220	12022020	201920	237.59	12.346937	-56.854463	237.65	0.020	-0.120	1.210	237.60	-1.50	1.60	 	 	 	 	 	 	 	 	 	 	 	 	 	 	 	 	 	 	1581538760	9.23	17.09
12/02/2020 20:19:21	120220	12022020	201921	237.66	12.346918	-56.854503	237.71	0.130	-0.400	1.420	237.67	-1.80	1.80	 	 	 	 	 	 	 	 	 	 	 	 	 	 	 	 	 	 	1581538761	9.47	17.54
12/02/2020 20:19:22	120220	12022020	201922	237.66	12.346898	-56.854545	237.68	0.270	-0.910	1.390	237.63	-2.30	1.80	 	 	 	 	 	 	 	 	 	 	 	 	 	 	 	 	 	 	1581538762	9.83	18.21
12/02/2020 20:19:23	120220	12022020	201923	237.47	12.346875	-56.854587	237.45	0.220	-1.230	1.310	237.41	-2.60	1.70	 	 	 	 	 	 	 	 	 	 	 	 	 	 	 	 	 	 	1581538763	10.00	18.52
12/02/2020 20:19:24	120220	12022020	201924	237.06	12.346855	-56.854627	236.99	-0.080	-1.010	1.390	236.95	-2.40	1.80	 	 	 	 	 	 	 	 	 	 	 	 	 	 	 	 	 	 	1581538764	9.73	18.02
12/02/2020 20:19:25	120220	12022020	201925	236.49	12.346835	-56.854667	236.41	-0.450	-0.340	1.590	236.37	-1.80	2.00	 	 	 	 	 	 	 	 	 	 	 	 	 	 	 	 	 	 	1581538765	9.32	17.26
12/02/2020 20:19:26	120220	12022020	201926	235.98	12.346815	-56.854705	235.97	-0.600	0.260	1.670	235.92	-1.10	2.10	 	 	 	 	 	 	 	 	 	 	 	 	 	 	 	 	 	 	1581538766	9.23	17.09
12/02/2020 20:19:27	120220	12022020	201927	235.91	12.346793	-56.854745	236.00	-0.390	0.470	1.380	235.96	-0.90	1.80	 	 	 	 	 	 	 	 	 	 	 	 	 	 	 	 	 	 	1581538767	9.48	17.56
12/02/2020 20:19:28	120220	12022020	201928	236.42	12.346772	-56.854783	236.59	0.000	0.310	0.740	236.58	-1.10	1.20	 	 	 	 	 	 	 	 	 	 	 	 	 	 	 	 	 	 	1581538768	9.72	18.00
12/02/2020 20:19:29	120220	12022020	201929	237.14	12.346745	-56.854823	237.52	0.300	-0.030	0.070	237.32	-1.40	0.50	 	 	 	 	 	 	 	 	 	 	 	 	 	 	 	 	 	 	1581538769	9.82	18.19
12/02/2020 20:19:30	120220	12022020	201930	238.15	12.346720	-56.854862	238.30	0.340	-0.250	-0.170	238.28	-1.60	0.30	 	 	 	 	 	 	 	 	 	 	 	 	 	 	 	 	 	 	1581538770	9.74	18.04
12/02/2020 20:19:31	120220	12022020	201931	238.58	12.346697	-56.854898	238.72	0.170	-0.220	0.070	238.65	-1.60	0.50	 	 	 	 	 	 	 	 	 	 	 	 	 	 	 	 	 	 	1581538771	9.38	17.37
12/02/2020 20:19:32	120220	12022020	201932	238.70	12.346677	-56.854937	238.71	-0.020	-0.260	0.700	238.66	-1.60	1.10	 	 	 	 	 	 	 	 	 	 	 	 	 	 	 	 	 	 	1581538772	9.23	17.09
12/02/2020 20:19:33	120220	12022020	201933	238.31	12.346658	-56.854978	238.26	-0.050	-0.560	1.600	238.19	-1.90	2.00	 	 	 	 	 	 	 	 	 	 	 	 	 	 	 	 	 	 	1581538773	9.57	17.72
12/02/2020 20:19:34	120220	12022020	201934	237.60	12.346640	-56.855022	237.53	0.050	-0.840	2.370	237.44	-2.20	2.80	 	 	 	 	 	 	 	 	 	 	 	 	 	 	 	 	 	 	1581538774	9.89	18.32
12/02/2020 20:19:35	120220	12022020	201935	236.84	12.346622	-56.855063	236.80	0.130	-0.830	2.610	236.72	-2.20	3.00	 	 	 	 	 	 	 	 	 	 	 	 	 	 	 	 	 	 	1581538775	9.76	18.08
12/02/2020 20:19:36	120220	12022020	201936	236.38	12.346602	-56.855103	236.41	0.110	-0.620	2.160	236.35	-2.00	2.60	 	 	 	 	 	 	 	 	 	 	 	 	 	 	 	 	 	 	1581538776	9.48	17.56
12/02/2020 20:19:37	120220	12022020	201937	236.44	12.346580	-56.855142	236.54	0.020	-0.320	1.200	236.51	-1.70	1.70	 	 	 	 	 	 	 	 	 	 	 	 	 	 	 	 	 	 	1581538777	9.34	17.30
12/02/2020 20:19:38	120220	12022020	201938	236.87	12.346555	-56.855178	236.98	-0.120	-0.120	0.170	236.97	-1.50	0.60	 	 	 	 	 	 	 	 	 	 	 	 	 	 	 	 	 	 	1581538778	9.36	17.33
12/02/2020 20:19:39	120220	12022020	201939	237.37	12.346530	-56.855215	237.46	-0.250	-0.130	-0.350	237.46	-1.50	0.10	 	 	 	 	 	 	 	 	 	 	 	 	 	 	 	 	 	 	1581538779	9.57	17.72
12/02/2020 20:19:40	120220	12022020	201940	237.80	12.346507	-56.855255	237.90	-0.250	-0.200	-0.260	237.88	-1.60	0.20	 	 	 	 	 	 	 	 	 	 	 	 	 	 	 	 	 	 	1581538780	9.73	18.02
12/02/2020 20:19:41	120220	12022020	201941	238.14	12.346487	-56.855295	238.22	-0.130	-0.180	0.150	238.19	-1.60	0.60	 	 	 	 	 	 	 	 	 	 	 	 	 	 	 	 	 	 	1581538781	9.70	17.96
12/02/2020 20:19:42	120220	12022020	201942	238.28	12.346467	-56.855337	238.34	0.030	-0.030	0.620	238.28	-1.40	1.00	 	 	 	 	 	 	 	 	 	 	 	 	 	 	 	 	 	 	1581538782	9.56	17.71
12/02/2020 20:19:43	120220	12022020	201943	238.26	12.346447	-56.855375	238.29	0.130	0.140	0.900	238.25	-1.30	1.30	 	 	 	 	 	 	 	 	 	 	 	 	 	 	 	 	 	 	1581538783	9.36	17.33
12/02/2020 20:19:44	120220	12022020	201944	238.21	12.346427	-56.855415	238.25	0.130	0.040	0.930	238.20	-1.30	1.40	 	 	 	 	 	 	 	 	 	 	 	 	 	 	 	 	 	 	1581538784	9.40	17.41
12/02/2020 20:19:45	120220	12022020	201945	238.19	12.346407	-56.855455	238.23	0.090	-0.320	0.770	238.19	-1.70	1.20	 	 	 	 	 	 	 	 	 	 	 	 	 	 	 	 	 	 	1581538785	9.64	17.85
12/02/2020 20:19:46	120220	12022020	201946	238.22	12.346383	-56.855495	238.27	0.080	-0.570	0.460	238.24	-2.00	0.90	 	 	 	 	 	 	 	 	 	 	 	 	 	 	 	 	 	 	1581538786	9.70	17.96
12/02/2020 20:19:47	120220	12022020	201947	238.32	12.346362	-56.855533	238.36	0.040	-0.570	0.150	238.34	-2.00	0.60	 	 	 	 	 	 	 	 	 	 	 	 	 	 	 	 	 	 	1581538787	9.45	17.50
12/02/2020 20:19:48	120220	12022020	201948	238.41	12.346338	-56.855572	238.44	-0.020	-0.530	0.040	238.41	-1.90	0.50	 	 	 	 	 	 	 	 	 	 	 	 	 	 	 	 	 	 	1581538788	9.33	17.28
12/02/2020 20:19:49	120220	12022020	201949	238.36	12.346317	-56.855610	238.36	-0.050	-0.550	0.320	238.32	-1.90	0.70	 	 	 	 	 	 	 	 	 	 	 	 	 	 	 	 	 	 	1581538789	9.46	17.52
12/02/2020 20:19:50	120220	12022020	201950	238.10	12.346297	-56.855650	238.07	-0.020	-0.560	0.910	238.03	-2.00	1.30	 	 	 	 	 	 	 	 	 	 	 	 	 	 	 	 	 	 	1581538790	9.64	17.85
12/02/2020 20:19:51	120220	12022020	201951	237.70	12.346278	-56.855692	237.66	-0.030	-0.510	1.610	237.62	-1.90	2.00	 	 	 	 	 	 	 	 	 	 	 	 	 	 	 	 	 	 	1581538791	9.72	18.00
12/02/2020 20:19:52	120220	12022020	201952	237.30	12.346260	-56.855735	237.29	-0.100	-0.430	2.080	237.23	-1.80	2.50	 	 	 	 	 	 	 	 	 	 	 	 	 	 	 	 	 	 	1581538792	9.76	18.08
12/02/2020 20:19:53	120220	12022020	201953	237.06	12.346242	-56.855778	237.10	-0.170	-0.370	1.980	237.06	-1.80	2.40	 	 	 	 	 	 	 	 	 	 	 	 	 	 	 	 	 	 	1581538793	9.81	18.17
12/02/2020 20:19:54	120220	12022020	201954	237.17	12.346222	-56.855818	237.26	-0.220	-0.250	1.360	237.23	-1.60	1.80	 	 	 	 	 	 	 	 	 	 	 	 	 	 	 	 	 	 	1581538794	9.75	18.06
12/02/2020 20:19:55	120220	12022020	201955	237.49	12.346200	-56.855858	237.69	-0.230	0.010	0.520	237.58	-1.40	1.00	 	 	 	 	 	 	 	 	 	 	 	 	 	 	 	 	 	 	1581538795	9.56	17.71
12/02/2020 20:19:56	120220	12022020	201956	238.12	12.346175	-56.855895	238.23	-0.170	0.300	-0.170	238.22	-1.10	0.30	 	 	 	 	 	 	 	 	 	 	 	 	 	 	 	 	 	 	1581538796	9.37	17.35
12/02/2020 20:19:57	120220	12022020	201957	238.58	12.346152	-56.855932	238.64	-0.050	0.450	-0.410	238.64	-0.90	0.00	 	 	 	 	 	 	 	 	 	 	 	 	 	 	 	 	 	 	1581538797	9.36	17.33
12/02/2020 20:19:58	120220	12022020	201958	238.79	12.346130	-56.855972	238.81	0.100	0.340	-0.210	238.81	-1.00	0.20	 	 	 	 	 	 	 	 	 	 	 	 	 	 	 	 	 	 	1581538798	9.47	17.54
12/02/2020 20:19:59	120220	12022020	201959	238.82	12.346108	-56.856012	238.83	0.250	-0.010	0.170	238.82	-1.40	0.60	 	 	 	 	 	 	 	 	 	 	 	 	 	 	 	 	 	 	1581538799	9.59	17.76
12/02/2020 20:20:00	120220	12022020	202000	238.77	12.346088	-56.856052	238.77	0.380	-0.460	0.540	238.75	-1.80	0.90	 	 	 	 	 	 	 	 	 	 	 	 	 	 	 	 	 	 	1581538800	9.62	17.82
12/02/2020 20:20:01	120220	12022020	202001	238.60	12.346068	-56.856092	238.56	0.400	-0.950	0.970	238.54	-2.30	1.40	 	 	 	 	 	 	 	 	 	 	 	 	 	 	 	 	 	 	1581538801	9.61	17.80
12/02/2020 20:20:02	120220	12022020	202002	238.19	12.346048	-56.856133	238.09	0.290	-1.320	1.560	238.08	-2.70	2.00	1014.60	26.40	26.50	20.50	20.60	297.0	69.0	69.0	390.0	28.9	223.00	5.80	81.00	10.00	19822	9011.0	27.5	27.5	1581538802	9.67	17.91
12/02/2020 20:20:03	120220	12022020	202003	237.60	12.346030	-56.856175	237.50	0.090	-1.370	2.150	237.48	-2.80	2.50	 	 	 	 	 	 	 	 	 	 	 	 	 	 	 	 	 	 	1581538803	9.73	18.02
12/02/2020 20:20:04	120220	12022020	202004	237.12	12.346012	-56.856217	237.07	-0.120	-1.030	2.360	237.05	-2.40	2.80	 	 	 	 	 	 	 	 	 	 	 	 	 	 	 	 	 	 	1581538804	9.65	17.87
12/02/2020 20:20:05	120220	12022020	202005	236.94	12.345993	-56.856258	236.99	-0.290	-0.460	1.980	236.96	-1.90	2.40	 	 	 	 	 	 	 	 	 	 	 	 	 	 	 	 	 	 	1581538805	9.53	17.65
12/02/2020 20:20:06	120220	12022020	202006	237.17	12.345972	-56.856297	237.27	-0.400	0.120	1.190	237.25	-1.30	1.70	 	 	 	 	 	 	 	 	 	 	 	 	 	 	 	 	 	 	1581538806	9.47	17.54
12/02/2020 20:20:07	120220	12022020	202007	237.52	12.345947	-56.856335	237.72	-0.430	0.510	0.530	237.61	-0.90	1.00	 	 	 	 	 	 	 	 	 	 	 	 	 	 	 	 	 	 	1581538807	9.55	17.69
12/02/2020 20:20:08	120220	12022020	202008	238.08	12.345923	-56.856373	238.18	-0.380	0.620	0.280	238.16	-0.80	0.70	 	 	 	 	 	 	 	 	 	 	 	 	 	 	 	 	 	 	1581538808	9.70	17.96
12/02/2020 20:20:09	120220	12022020	202009	238.52	12.345902	-56.856415	238.61	-0.220	0.540	0.320	238.60	-0.90	0.70	 	 	 	 	 	 	 	 	 	 	 	 	 	 	 	 	 	 	1581538809	9.76	18.08
12/02/2020 20:20:10	120220	12022020	202010	238.92	12.345882	-56.856455	239.01	-0.010	0.340	0.440	238.99	-1.00	0.90	 	 	 	 	 	 	 	 	 	 	 	 	 	 	 	 	 	 	1581538810	9.63	17.83
12/02/2020 20:20:11	120220	12022020	202011	239.23	12.345863	-56.856495	239.29	0.210	-0.050	0.560	239.27	-1.40	1.00	 	 	 	 	 	 	 	 	 	 	 	 	 	 	 	 	 	 	1581538811	9.53	17.65
12/02/2020 20:20:12	120220	12022020	202012	239.32	12.345843	-56.856537	239.33	0.380	-0.560	0.690	239.29	-1.90	1.10	 	 	 	 	 	 	 	 	 	 	 	 	 	 	 	 	 	 	1581538812	9.56	17.71
12/02/2020 20:20:13	120220	12022020	202013	239.12	12.345822	-56.856577	239.10	0.480	-0.940	0.830	239.05	-2.30	1.20	 	 	 	 	 	 	 	 	 	 	 	 	 	 	 	 	 	 	1581538813	9.52	17.63
12/02/2020 20:20:14	120220	12022020	202014	238.74	12.345802	-56.856615	238.71	0.470	-1.120	1.020	238.65	-2.50	1.40	 	 	 	 	 	 	 	 	 	 	 	 	 	 	 	 	 	 	1581538814	9.44	17.48
12/02/2020 20:20:15	120220	12022020	202015	238.30	12.345782	-56.856655	238.27	0.350	-1.090	1.200	238.22	-2.50	1.60	 	 	 	 	 	 	 	 	 	 	 	 	 	 	 	 	 	 	1581538815	9.47	17.54
12/02/2020 20:20:16	120220	12022020	202016	237.92	12.345760	-56.856695	237.89	0.130	-0.830	1.220	237.86	-2.20	1.60	 	 	 	 	 	 	 	 	 	 	 	 	 	 	 	 	 	 	1581538816	9.52	17.63
12/02/2020 20:20:17	120220	12022020	202017	237.70	12.345740	-56.856735	237.72	-0.150	-0.350	1.040	237.69	-1.80	1.50	 	 	 	 	 	 	 	 	 	 	 	 	 	 	 	 	 	 	1581538817	9.48	17.56
12/02/2020 20:20:18	120220	12022020	202018	237.75	12.345720	-56.856775	237.80	-0.420	0.190	0.730	237.78	-1.20	1.20	 	 	 	 	 	 	 	 	 	 	 	 	 	 	 	 	 	 	1581538818	9.41	17.43
12/02/2020 20:20:19	120220	12022020	202019	237.95	12.345700	-56.856813	238.12	-0.600	0.500	0.420	238.03	-0.90	0.90	 	 	 	 	 	 	 	 	 	 	 	 	 	 	 	 	 	 	1581538819	9.45	17.50
12/02/2020 20:20:20	120220	12022020	202020	238.47	12.345678	-56.856855	238.59	-0.590	0.370	0.240	238.57	-1.00	0.70	 	 	 	 	 	 	 	 	 	 	 	 	 	 	 	 	 	 	1581538820	9.66	17.89
12/02/2020 20:20:21	120220	12022020	202021	238.87	12.345658	-56.856897	239.10	-0.400	-0.120	0.290	238.98	-1.50	0.70	 	 	 	 	 	 	 	 	 	 	 	 	 	 	 	 	 	 	1581538821	9.96	18.45
12/02/2020 20:20:22	120220	12022020	202022	239.43	12.345638	-56.856938	239.55	-0.180	-0.570	0.510	239.49	-2.00	0.90	 	 	 	 	 	 	 	 	 	 	 	 	 	 	 	 	 	 	1581538822	9.99	18.50
12/02/2020 20:20:23	120220	12022020	202023	239.64	12.345618	-56.856980	239.71	-0.020	-0.700	0.830	239.64	-2.10	1.20	 	 	 	 	 	 	 	 	 	 	 	 	 	 	 	 	 	 	1581538823	9.68	17.93
12/02/2020 20:20:24	120220	12022020	202024	239.53	12.345602	-56.857020	239.55	0.150	-0.500	1.160	239.47	-1.90	1.60	 	 	 	 	 	 	 	 	 	 	 	 	 	 	 	 	 	 	1581538824	9.29	17.21
12/02/2020 20:20:25	120220	12022020	202025	239.11	12.345582	-56.857060	239.07	0.410	-0.200	1.500	238.99	-1.60	1.90	 	 	 	 	 	 	 	 	 	 	 	 	 	 	 	 	 	 	1581538825	9.14	16.93
12/02/2020 20:20:26	120220	12022020	202026	238.51	12.345563	-56.857100	238.47	0.670	-0.100	1.660	238.39	-1.50	2.10	 	 	 	 	 	 	 	 	 	 	 	 	 	 	 	 	 	 	1581538826	9.34	17.30
12/02/2020 20:20:27	120220	12022020	202027	238.02	12.345543	-56.857140	238.00	0.700	-0.190	1.470	237.95	-1.60	1.90	 	 	 	 	 	 	 	 	 	 	 	 	 	 	 	 	 	 	1581538827	9.64	17.85
12/02/2020 20:20:28	120220	12022020	202028	237.83	12.345522	-56.857180	237.87	0.410	-0.340	1.070	237.83	-1.70	1.50	 	 	 	 	 	 	 	 	 	 	 	 	 	 	 	 	 	 	1581538828	9.73	18.02
12/02/2020 20:20:29	120220	12022020	202029	237.99	12.345498	-56.857220	238.08	-0.080	-0.430	0.690	238.05	-1.80	1.10	 	 	 	 	 	 	 	 	 	 	 	 	 	 	 	 	 	 	1581538829	9.65	17.87
12/02/2020 20:20:30	120220	12022020	202030	238.33	12.345478	-56.857260	238.42	-0.500	-0.440	0.550	238.39	-1.80	1.00	 	 	 	 	 	 	 	 	 	 	 	 	 	 	 	 	 	 	1581538830	9.57	17.72
12/02/2020 20:20:31	120220	12022020	202031	238.59	12.345458	-56.857300	238.65	-0.660	-0.340	0.840	238.62	-1.80	1.20	 	 	 	 	 	 	 	 	 	 	 	 	 	 	 	 	 	 	1581538831	9.49	17.58
12/02/2020 20:20:32	120220	12022020	202032	238.62	12.345440	-56.857342	238.64	-0.580	-0.220	1.410	238.59	-1.60	1.80	 	 	 	 	 	 	 	 	 	 	 	 	 	 	 	 	 	 	1581538832	9.50	17.59
12/02/2020 20:20:33	120220	12022020	202033	238.34	12.345423	-56.857383	238.30	-0.360	-0.180	1.900	238.26	-1.60	2.30	 	 	 	 	 	 	 	 	 	 	 	 	 	 	 	 	 	 	1581538833	9.54	17.67
12/02/2020 20:20:34	120220	12022020	202034	237.86	12.345405	-56.857425	237.80	-0.060	-0.250	1.970	237.76	-1.60	2.40	 	 	 	 	 	 	 	 	 	 	 	 	 	 	 	 	 	 	1581538834	9.60	17.78
12/02/2020 20:20:35	120220	12022020	202035	237.34	12.345385	-56.857465	237.28	0.290	-0.360	1.650	237.26	-1.80	2.10	 	 	 	 	 	 	 	 	 	 	 	 	 	 	 	 	 	 	1581538835	9.58	17.74
12/02/2020 20:20:36	120220	12022020	202036	237.07	12.345362	-56.857503	237.08	0.600	-0.450	1.100	237.06	-1.80	1.60	 	 	 	 	 	 	 	 	 	 	 	 	 	 	 	 	 	 	1581538836	9.51	17.61
12/02/2020 20:20:37	120220	12022020	202037	237.25	12.345338	-56.857542	237.34	0.670	-0.560	0.520	237.33	-1.90	1.00	 	 	 	 	 	 	 	 	 	 	 	 	 	 	 	 	 	 	1581538837	9.52	17.63
12/02/2020 20:20:38	120220	12022020	202038	237.77	12.345317	-56.857580	237.88	0.430	-0.620	0.160	237.89	-2.00	0.60	 	 	 	 	 	 	 	 	 	 	 	 	 	 	 	 	 	 	1581538838	9.60	17.78
12/02/2020 20:20:39	120220	12022020	202039	238.25	12.345295	-56.857620	238.30	0.020	-0.500	0.250	238.30	-1.90	0.70	 	 	 	 	 	 	 	 	 	 	 	 	 	 	 	 	 	 	1581538839	9.59	17.76
12/02/2020 20:20:40	120220	12022020	202040	238.37	12.345277	-56.857662	238.37	-0.330	-0.040	0.630	238.35	-1.50	1.00	 	 	 	 	 	 	 	 	 	 	 	 	 	 	 	 	 	 	1581538840	9.43	17.46
12/02/2020 20:20:41	120220	12022020	202041	238.21	12.345258	-56.857700	238.19	-0.520	0.500	0.880	238.16	-0.90	1.30	 	 	 	 	 	 	 	 	 	 	 	 	 	 	 	 	 	 	1581538841	9.16	16.96
12/02/2020 20:20:42	120220	12022020	202042	237.91	12.345238	-56.857738	237.86	-0.490	0.600	0.860	237.84	-0.80	1.30	 	 	 	 	 	 	 	 	 	 	 	 	 	 	 	 	 	 	1581538842	9.24	17.11
12/02/2020 20:20:43	120220	12022020	202043	237.51	12.345215	-56.857778	237.42	-0.270	0.120	0.760	237.41	-1.20	1.20	 	 	 	 	 	 	 	 	 	 	 	 	 	 	 	 	 	 	1581538843	9.65	17.87
12/02/2020 20:20:44	120220	12022020	202044	236.99	12.345190	-56.857818	236.89	0.040	-0.710	0.770	236.88	-2.10	1.20	 	 	 	 	 	 	 	 	 	 	 	 	 	 	 	 	 	 	1581538844	10.01	18.54
12/02/2020 20:20:45	120220	12022020	202045	236.44	12.345167	-56.857860	236.37	0.230	-1.400	1.020	236.34	-2.80	1.40	 	 	 	 	 	 	 	 	 	 	 	 	 	 	 	 	 	 	1581538845	10.10	18.71
12/02/2020 20:20:46	120220	12022020	202046	235.99	12.345147	-56.857902	235.98	0.180	-1.470	1.460	235.94	-2.90	1.90	 	 	 	 	 	 	 	 	 	 	 	 	 	 	 	 	 	 	1581538846	9.79	18.13
12/02/2020 20:20:47	120220	12022020	202047	235.77	12.345130	-56.857942	235.81	-0.030	-0.890	1.840	235.75	-2.30	2.20	 	 	 	 	 	 	 	 	 	 	 	 	 	 	 	 	 	 	1581538847	9.34	17.30
12/02/2020 20:20:48	120220	12022020	202048	235.85	12.345113	-56.857982	235.97	-0.240	-0.070	1.850	235.91	-1.50	2.30	 	 	 	 	 	 	 	 	 	 	 	 	 	 	 	 	 	 	1581538848	9.09	16.83
12/02/2020 20:20:49	120220	12022020	202049	236.38	12.345095	-56.858020	236.58	-0.270	0.520	1.320	236.54	-0.90	1.80	 	 	 	 	 	 	 	 	 	 	 	 	 	 	 	 	 	 	1581538849	9.10	16.85
12/02/2020 20:20:50	120220	12022020	202050	237.26	12.345073	-56.858058	237.47	-0.100	0.710	0.520	237.44	-0.70	1.00	 	 	 	 	 	 	 	 	 	 	 	 	 	 	 	 	 	 	1581538850	9.38	17.37
12/02/2020 20:20:51	120220	12022020	202051	238.15	12.345048	-56.858097	238.30	0.130	0.550	-0.220	238.30	-0.90	0.20	 	 	 	 	 	 	 	 	 	 	 	 	 	 	 	 	 	 	1581538851	9.59	17.76
12/02/2020 20:20:52	120220	12022020	202052	238.73	12.345023	-56.858135	238.79	0.260	0.100	-0.450	238.79	-1.30	-0.00	 	 	 	 	 	 	 	 	 	 	 	 	 	 	 	 	 	 	1581538852	9.72	18.00
12/02/2020 20:20:53	120220	12022020	202053	238.78	12.345000	-56.858173	238.74	0.290	-0.480	0.030	238.72	-1.90	0.40	 	 	 	 	 	 	 	 	 	 	 	 	 	 	 	 	 	 	1581538853	9.74	18.04
12/02/2020 20:20:54	120220	12022020	202054	238.28	12.344978	-56.858213	238.17	0.240	-0.930	0.960	238.14	-2.30	1.30	 	 	 	 	 	 	 	 	 	 	 	 	 	 	 	 	 	 	1581538854	9.72	18.00
12/02/2020 20:20:55	120220	12022020	202055	237.53	12.344960	-56.858255	237.41	0.130	-1.030	1.860	237.37	-2.40	2.30	 	 	 	 	 	 	 	 	 	 	 	 	 	 	 	 	 	 	1581538855	9.59	17.76
12/02/2020 20:20:56	120220	12022020	202056	236.81	12.344943	-56.858297	236.74	-0.020	-0.770	2.240	236.69	-2.20	2.70	 	 	 	 	 	 	 	 	 	 	 	 	 	 	 	 	 	 	1581538856	9.36	17.33
12/02/2020 20:20:57	120220	12022020	202057	236.41	12.344923	-56.858335	236.32	-0.140	-0.390	2.080	236.34	-1.80	2.50	 	 	 	 	 	 	 	 	 	 	 	 	 	 	 	 	 	 	1581538857	9.13	16.91
12/02/2020 20:20:58	120220	12022020	202058	236.07	12.344903	-56.858373	236.08	-0.150	-0.220	1.610	236.04	-1.60	2.10	 	 	 	 	 	 	 	 	 	 	 	 	 	 	 	 	 	 	1581538858	9.26	17.15
12/02/2020 20:20:59	120220	12022020	202059	236.00	12.344880	-56.858412	236.06	-0.070	-0.320	1.020	236.03	-1.70	1.50	 	 	 	 	 	 	 	 	 	 	 	 	 	 	 	 	 	 	1581538859	9.60	17.78
12/02/2020 20:21:00	120220	12022020	202100	236.22	12.344857	-56.858452	236.31	-0.020	-0.460	0.560	236.28	-1.90	1.00	 	 	 	 	 	 	 	 	 	 	 	 	 	 	 	 	 	 	1581538860	9.79	18.13
12/02/2020 20:21:01	120220	12022020	202101	236.63	12.344835	-56.858492	236.72	-0.060	-0.420	0.350	236.73	-1.80	0.80	 	 	 	 	 	 	 	 	 	 	 	 	 	 	 	 	 	 	1581538861	9.72	18.00
12/02/2020 20:21:02	120220	12022020	202102	237.17	12.344813	-56.858532	237.28	-0.150	-0.040	0.280	237.29	-1.50	0.70	1014.60	26.50	26.60	20.60	20.70	293.0	70.0	70.0	389.0	28.9	216.00	5.30	76.00	9.80	19445	9955.0	27.5	27.5	1581538862	9.42	17.45
12/02/2020 20:21:03	120220	12022020	202103	237.83	12.344795	-56.858570	237.96	-0.180	0.450	0.100	237.98	-1.00	0.50	 	 	 	 	 	 	 	 	 	 	 	 	 	 	 	 	 	 	1581538863	9.06	16.78
12/02/2020 20:21:04	120220	12022020	202104	238.57	12.344775	-56.858607	238.62	-0.030	0.590	-0.160	238.70	-0.80	0.30	 	 	 	 	 	 	 	 	 	 	 	 	 	 	 	 	 	 	1581538864	9.07	16.80
12/02/2020 20:21:05	120220	12022020	202105	239.05	12.344752	-56.858645	239.09	0.320	0.140	-0.320	239.09	-1.20	0.10	 	 	 	 	 	 	 	 	 	 	 	 	 	 	 	 	 	 	1581538865	9.51	17.61
12/02/2020 20:21:06	120220	12022020	202106	238.99	12.344728	-56.858685	238.94	0.510	-0.540	0.040	238.91	-1.90	0.40	 	 	 	 	 	 	 	 	 	 	 	 	 	 	 	 	 	 	1581538866	9.89	18.32
12/02/2020 20:21:07	120220	12022020	202107	238.41	12.344707	-56.858727	238.29	0.380	-0.960	0.760	238.26	-2.40	1.10	 	 	 	 	 	 	 	 	 	 	 	 	 	 	 	 	 	 	1581538867	9.84	18.22
12/02/2020 20:21:08	120220	12022020	202108	237.58	12.344688	-56.858767	237.44	0.060	-0.940	1.490	237.41	-2.40	1.90	 	 	 	 	 	 	 	 	 	 	 	 	 	 	 	 	 	 	1581538868	9.51	17.61
12/02/2020 20:21:09	120220	12022020	202109	236.78	12.344670	-56.858807	236.69	-0.170	-0.570	1.850	236.65	-2.00	2.30	 	 	 	 	 	 	 	 	 	 	 	 	 	 	 	 	 	 	1581538869	9.21	17.06
12/02/2020 20:21:10	120220	12022020	202110	236.21	12.344650	-56.858845	236.17	-0.190	-0.170	1.750	236.13	-1.60	2.20	 	 	 	 	 	 	 	 	 	 	 	 	 	 	 	 	 	 	1581538870	9.02	16.71
12/02/2020 20:21:11	120220	12022020	202111	235.95	12.344630	-56.858883	235.97	-0.080	-0.120	1.360	235.93	-1.50	1.80	 	 	 	 	 	 	 	 	 	 	 	 	 	 	 	 	 	 	1581538871	9.25	17.13
12/02/2020 20:21:12	120220	12022020	202112	235.99	12.344608	-56.858923	236.06	0.010	-0.390	0.920	236.03	-1.80	1.40	 	 	 	 	 	 	 	 	 	 	 	 	 	 	 	 	 	 	1581538872	9.64	17.85
12/02/2020 20:21:13	120220	12022020	202113	236.25	12.344587	-56.858963	236.34	0.050	-0.690	0.480	236.32	-2.10	0.90	 	 	 	 	 	 	 	 	 	 	 	 	 	 	 	 	 	 	1581538873	9.78	18.11
12/02/2020 20:21:14	120220	12022020	202114	236.63	12.344565	-56.859003	236.74	0.090	-0.770	0.190	236.72	-2.20	0.60	 	 	 	 	 	 	 	 	 	 	 	 	 	 	 	 	 	 	1581538874	9.69	17.95
12/02/2020 20:21:15	120220	12022020	202115	237.08	12.344542	-56.859043	237.18	0.100	-0.590	0.130	237.18	-2.00	0.60	 	 	 	 	 	 	 	 	 	 	 	 	 	 	 	 	 	 	1581538875	9.57	17.72
12/02/2020 20:21:16	120220	12022020	202116	237.53	12.344522	-56.859082	237.62	-0.040	-0.250	0.350	237.61	-1.70	0.80	 	 	 	 	 	 	 	 	 	 	 	 	 	 	 	 	 	 	1581538876	9.46	17.52
12/02/2020 20:21:17	120220	12022020	202117	237.82	12.344502	-56.859122	237.87	-0.300	0.170	0.820	237.84	-1.20	1.20	 	 	 	 	 	 	 	 	 	 	 	 	 	 	 	 	 	 	1581538877	9.42	17.45
12/02/2020 20:21:18	120220	12022020	202118	237.80	12.344482	-56.859162	237.80	-0.500	0.580	1.390	237.75	-0.80	1.80	 	 	 	 	 	 	 	 	 	 	 	 	 	 	 	 	 	 	1581538878	9.36	17.33
12/02/2020 20:21:19	120220	12022020	202119	237.46	12.344462	-56.859200	237.42	-0.470	0.790	1.750	237.37	-0.60	2.20	 	 	 	 	 	 	 	 	 	 	 	 	 	 	 	 	 	 	1581538879	9.30	17.22
12/02/2020 20:21:20	120220	12022020	202120	236.95	12.344440	-56.859240	236.90	-0.170	0.570	1.690	236.84	-0.80	2.10	 	 	 	 	 	 	 	 	 	 	 	 	 	 	 	 	 	 	1581538880	9.41	17.43
12/02/2020 20:21:21	120220	12022020	202121	236.42	12.344417	-56.859278	236.38	0.270	-0.030	1.340	236.33	-1.40	1.80	 	 	 	 	 	 	 	 	 	 	 	 	 	 	 	 	 	 	1581538881	9.62	17.82
12/02/2020 20:21:22	120220	12022020	202122	236.05	12.344392	-56.859317	236.04	0.650	-0.630	0.850	236.00	-2.00	1.30	 	 	 	 	 	 	 	 	 	 	 	 	 	 	 	 	 	 	1581538882	9.56	17.71
12/02/2020 20:21:23	120220	12022020	202123	235.89	12.344368	-56.859353	235.91	0.780	-1.090	0.410	235.88	-2.50	0.90	 	 	 	 	 	 	 	 	 	 	 	 	 	 	 	 	 	 	1581538883	9.27	17.17
12/02/2020 20:21:24	120220	12022020	202124	235.93	12.344347	-56.859390	235.98	0.700	-1.410	0.200	235.95	-2.80	0.60	 	 	 	 	 	 	 	 	 	 	 	 	 	 	 	 	 	 	1581538884	9.24	17.11
12/02/2020 20:21:25	120220	12022020	202125	236.07	12.344327	-56.859430	236.12	0.440	-1.510	0.240	236.10	-2.90	0.70	 	 	 	 	 	 	 	 	 	 	 	 	 	 	 	 	 	 	1581538885	9.37	17.35
12/02/2020 20:21:26	120220	12022020	202126	236.22	12.344307	-56.859470	236.28	0.070	-1.200	0.510	236.26	-2.60	0.90	 	 	 	 	 	 	 	 	 	 	 	 	 	 	 	 	 	 	1581538886	9.42	17.45
12/02/2020 20:21:27	120220	12022020	202127	236.42	12.344287	-56.859508	236.48	-0.320	-0.480	0.860	236.45	-1.80	1.30	 	 	 	 	 	 	 	 	 	 	 	 	 	 	 	 	 	 	1581538887	9.31	17.24
12/02/2020 20:21:28	120220	12022020	202128	236.63	12.344268	-56.859548	236.73	-0.640	0.440	1.150	236.67	-1.00	1.60	 	 	 	 	 	 	 	 	 	 	 	 	 	 	 	 	 	 	1581538888	9.20	17.04
12/02/2020 20:21:29	120220	12022020	202129	236.84	12.344247	-56.859587	236.95	-0.740	0.910	1.140	236.89	-0.50	1.60	 	 	 	 	 	 	 	 	 	 	 	 	 	 	 	 	 	 	1581538889	9.31	17.24
12/02/2020 20:21:30	120220	12022020	202130	237.06	12.344223	-56.859625	237.17	-0.660	0.860	0.840	237.11	-0.50	1.30	 	 	 	 	 	 	 	 	 	 	 	 	 	 	 	 	 	 	1581538890	9.62	17.82
12/02/2020 20:21:31	120220	12022020	202131	237.22	12.344200	-56.859665	237.29	-0.410	0.400	0.400	237.23	-1.00	0.90	 	 	 	 	 	 	 	 	 	 	 	 	 	 	 	 	 	 	1581538891	9.78	18.11
12/02/2020 20:21:32	120220	12022020	202132	237.22	12.344175	-56.859703	237.25	-0.040	-0.250	0.010	237.20	-1.60	0.50	 	 	 	 	 	 	 	 	 	 	 	 	 	 	 	 	 	 	1581538892	9.76	18.08
12/02/2020 20:21:33	120220	12022020	202133	237.08	12.344150	-56.859742	237.07	0.350	-0.870	-0.120	237.04	-2.20	0.30	 	 	 	 	 	 	 	 	 	 	 	 	 	 	 	 	 	 	1581538893	9.68	17.93
12/02/2020 20:21:34	120220	12022020	202134	236.84	12.344128	-56.859780	236.81	0.530	-1.160	0.060	236.79	-2.50	0.50	 	 	 	 	 	 	 	 	 	 	 	 	 	 	 	 	 	 	1581538894	9.47	17.54
12/02/2020 20:21:35	120220	12022020	202135	236.64	12.344107	-56.859818	236.63	0.430	-1.020	0.410	236.61	-2.40	0.80	 	 	 	 	 	 	 	 	 	 	 	 	 	 	 	 	 	 	1581538895	9.17	16.98
12/02/2020 20:21:36	120220	12022020	202136	236.58	12.344088	-56.859855	236.62	0.180	-0.560	0.870	236.59	-2.00	1.30	 	 	 	 	 	 	 	 	 	 	 	 	 	 	 	 	 	 	1581538896	9.01	16.69
12/02/2020 20:21:37	120220	12022020	202137	236.65	12.344070	-56.859895	236.69	-0.070	0.010	1.280	236.66	-1.40	1.70	 	 	 	 	 	 	 	 	 	 	 	 	 	 	 	 	 	 	1581538897	9.01	16.69
12/02/2020 20:21:38	120220	12022020	202138	236.75	12.344053	-56.859933	236.80	-0.190	0.410	1.510	236.78	-1.00	1.90	 	 	 	 	 	 	 	 	 	 	 	 	 	 	 	 	 	 	1581538898	9.14	16.93
12/02/2020 20:21:39	120220	12022020	202139	236.92	12.344033	-56.859973	236.98	-0.180	0.700	1.460	236.97	-0.70	1.90	 	 	 	 	 	 	 	 	 	 	 	 	 	 	 	 	 	 	1581538899	9.22	17.08
12/02/2020 20:21:40	120220	12022020	202140	237.21	12.344013	-56.860010	237.26	-0.020	0.690	1.000	237.27	-0.70	1.40	 	 	 	 	 	 	 	 	 	 	 	 	 	 	 	 	 	 	1581538900	9.16	16.96
12/02/2020 20:21:41	120220	12022020	202141	237.43	12.343990	-56.860048	237.47	0.280	0.060	0.470	237.44	-1.40	0.90	 	 	 	 	 	 	 	 	 	 	 	 	 	 	 	 	 	 	1581538901	9.45	17.50
12/02/2020 20:21:42	120220	12022020	202142	237.43	12.343965	-56.860088	237.46	0.550	-1.010	0.180	237.42	-2.50	0.60	 	 	 	 	 	 	 	 	 	 	 	 	 	 	 	 	 	 	1581538902	9.97	18.46
12/02/2020 20:21:43	120220	12022020	202143	237.31	12.343942	-56.860128	237.32	0.540	-1.780	0.180	237.27	-3.20	0.60	 	 	 	 	 	 	 	 	 	 	 	 	 	 	 	 	 	 	1581538903	9.99	18.50
12/02/2020 20:21:44	120220	12022020	202144	237.16	12.343920	-56.860168	237.19	0.150	-1.760	0.310	237.15	-3.10	0.70	 	 	 	 	 	 	 	 	 	 	 	 	 	 	 	 	 	 	1581538904	9.44	17.48
12/02/2020 20:21:45	120220	12022020	202145	237.14	12.343900	-56.860205	237.16	-0.410	-1.110	0.320	237.15	-2.50	0.70	 	 	 	 	 	 	 	 	 	 	 	 	 	 	 	 	 	 	1581538905	8.95	16.58
12/02/2020 20:21:46	120220	12022020	202146	237.27	12.343880	-56.860242	237.30	-0.800	-0.270	0.200	237.32	-1.60	0.60	 	 	 	 	 	 	 	 	 	 	 	 	 	 	 	 	 	 	1581538906	8.87	16.43
12/02/2020 20:21:47	120220	12022020	202147	237.54	12.343858	-56.860278	237.65	-0.830	0.380	-0.030	237.61	-1.00	0.40	 	 	 	 	 	 	 	 	 	 	 	 	 	 	 	 	 	 	1581538907	9.09	16.83
12/02/2020 20:21:48	120220	12022020	202148	238.01	12.343835	-56.860317	238.04	-0.530	0.650	-0.090	238.08	-0.80	0.30	 	 	 	 	 	 	 	 	 	 	 	 	 	 	 	 	 	 	1581538908	9.42	17.45
12/02/2020 20:21:49	120220	12022020	202149	238.29	12.343813	-56.860357	238.30	-0.120	0.540	0.230	238.32	-0.90	0.70	 	 	 	 	 	 	 	 	 	 	 	 	 	 	 	 	 	 	1581538909	9.76	18.08
12/02/2020 20:21:50	120220	12022020	202150	238.33	12.343793	-56.860398	238.32	0.230	0.310	0.880	238.30	-1.10	1.30	 	 	 	 	 	 	 	 	 	 	 	 	 	 	 	 	 	 	1581538910	9.86	18.26
12/02/2020 20:21:51	120220	12022020	202151	238.03	12.343775	-56.860442	237.95	0.430	0.170	1.660	237.94	-1.20	2.00	 	 	 	 	 	 	 	 	 	 	 	 	 	 	 	 	 	 	1581538911	9.67	17.91
12/02/2020 20:21:52	120220	12022020	202152	237.58	12.343758	-56.860482	237.55	0.490	0.180	2.000	237.49	-1.20	2.40	 	 	 	 	 	 	 	 	 	 	 	 	 	 	 	 	 	 	1581538912	9.33	17.28
12/02/2020 20:21:53	120220	12022020	202153	237.20	12.343738	-56.860520	237.17	0.510	0.100	1.780	237.15	-1.30	2.20	 	 	 	 	 	 	 	 	 	 	 	 	 	 	 	 	 	 	1581538913	9.06	16.78
12/02/2020 20:21:54	120220	12022020	202154	237.04	12.343717	-56.860557	237.02	0.480	-0.320	1.120	237.04	-1.80	1.50	 	 	 	 	 	 	 	 	 	 	 	 	 	 	 	 	 	 	1581538914	9.16	16.96
12/02/2020 20:21:55	120220	12022020	202155	237.13	12.343693	-56.860595	237.13	0.390	-0.960	0.300	237.17	-2.40	0.70	 	 	 	 	 	 	 	 	 	 	 	 	 	 	 	 	 	 	1581538915	9.42	17.45
12/02/2020 20:21:56	120220	12022020	202156	237.38	12.343670	-56.860633	237.38	0.230	-1.400	-0.410	237.44	-2.80	-0.00	 	 	 	 	 	 	 	 	 	 	 	 	 	 	 	 	 	 	1581538916	9.46	17.52
12/02/2020 20:21:57	120220	12022020	202157	237.67	12.343647	-56.860670	237.68	0.030	-1.420	-0.770	237.73	-2.80	-0.40	 	 	 	 	 	 	 	 	 	 	 	 	 	 	 	 	 	 	1581538917	9.24	17.11
12/02/2020 20:21:58	120220	12022020	202158	237.89	12.343625	-56.860707	237.89	-0.180	-1.170	-0.640	237.91	-2.50	-0.20	 	 	 	 	 	 	 	 	 	 	 	 	 	 	 	 	 	 	1581538918	9.16	16.96
12/02/2020 20:21:59	120220	12022020	202159	237.94	12.343603	-56.860745	237.95	-0.340	-0.860	-0.100	237.94	-2.20	0.40	 	 	 	 	 	 	 	 	 	 	 	 	 	 	 	 	 	 	1581538919	9.37	17.35
12/02/2020 20:22:00	120220	12022020	202200	237.89	12.343583	-56.860787	237.92	-0.440	-0.490	0.550	237.88	-1.90	1.00	 	 	 	 	 	 	 	 	 	 	 	 	 	 	 	 	 	 	1581538920	9.65	17.87
12/02/2020 20:22:01	120220	12022020	202201	237.88	12.343565	-56.860827	237.94	-0.470	0.050	1.090	237.89	-1.30	1.50	 	 	 	 	 	 	 	 	 	 	 	 	 	 	 	 	 	 	1581538921	9.65	17.87
12/02/2020 20:22:02	120220	12022020	202202	237.92	12.343547	-56.860868	237.97	-0.400	0.590	1.460	237.92	-0.80	1.90	1014.60	26.50	26.60	20.70	20.80	289.0	70.0	70.0	389.0	28.8	220.00	5.30	78.00	9.50	18366	8909.0	27.5	27.5	1581538922	9.56	17.71
12/02/2020 20:22:03	120220	12022020	202203	237.96	12.343527	-56.860908	238.01	-0.240	0.970	1.590	237.97	-0.40	2.00	 	 	 	 	 	 	 	 	 	 	 	 	 	 	 	 	 	 	1581538923	9.53	17.65
12/02/2020 20:22:04	120220	12022020	202204	238.00	12.343507	-56.860948	238.05	-0.010	1.050	1.560	238.00	-0.40	2.00	 	 	 	 	 	 	 	 	 	 	 	 	 	 	 	 	 	 	1581538924	9.48	17.56
12/02/2020 20:22:05	120220	12022020	202205	237.98	12.343487	-56.860988	238.02	0.260	0.720	1.340	237.97	-0.70	1.70	 	 	 	 	 	 	 	 	 	 	 	 	 	 	 	 	 	 	1581538925	9.49	17.58
12/02/2020 20:22:06	120220	12022020	202206	237.92	12.343465	-56.861028	237.95	0.530	0.080	0.850	237.90	-1.40	1.20	 	 	 	 	 	 	 	 	 	 	 	 	 	 	 	 	 	 	1581538926	9.51	17.61
12/02/2020 20:22:07	120220	12022020	202207	237.82	12.343442	-56.861067	237.84	0.730	-0.670	0.300	237.80	-2.10	0.70	 	 	 	 	 	 	 	 	 	 	 	 	 	 	 	 	 	 	1581538927	9.51	17.61
12/02/2020 20:22:08	120220	12022020	202208	237.75	12.343418	-56.861103	237.77	0.720	-1.310	-0.060	237.75	-2.70	0.40	 	 	 	 	 	 	 	 	 	 	 	 	 	 	 	 	 	 	1581538928	9.46	17.52
12/02/2020 20:22:09	120220	12022020	202209	237.76	12.343397	-56.861142	237.79	0.430	-1.570	-0.100	237.77	-3.00	0.30	 	 	 	 	 	 	 	 	 	 	 	 	 	 	 	 	 	 	1581538929	9.31	17.24
12/02/2020 20:22:10	120220	12022020	202210	237.77	12.343377	-56.861180	237.79	-0.020	-1.390	0.190	237.76	-2.80	0.60	 	 	 	 	 	 	 	 	 	 	 	 	 	 	 	 	 	 	1581538930	9.16	16.96
12/02/2020 20:22:11	120220	12022020	202211	237.77	12.343358	-56.861220	237.78	-0.400	-0.890	0.620	237.77	-2.30	1.10	 	 	 	 	 	 	 	 	 	 	 	 	 	 	 	 	 	 	1581538931	9.09	16.83
12/02/2020 20:22:12	120220	12022020	202212	237.84	12.343340	-56.861258	237.87	-0.600	-0.400	0.850	237.86	-1.80	1.30	 	 	 	 	 	 	 	 	 	 	 	 	 	 	 	 	 	 	1581538932	9.25	17.13
12/02/2020 20:22:13	120220	12022020	202213	237.97	12.343322	-56.861300	238.00	-0.560	-0.080	0.830	238.00	-1.50	1.20	 	 	 	 	 	 	 	 	 	 	 	 	 	 	 	 	 	 	1581538933	9.54	17.67
12/02/2020 20:22:14	120220	12022020	202214	238.19	12.343300	-56.861340	238.22	-0.340	0.170	0.680	238.24	-1.20	1.10	 	 	 	 	 	 	 	 	 	 	 	 	 	 	 	 	 	 	1581538934	9.67	17.91
12/02/2020 20:22:15	120220	12022020	202215	238.43	12.343277	-56.861378	238.45	-0.050	0.310	0.670	238.45	-1.10	1.10	 	 	 	 	 	 	 	 	 	 	 	 	 	 	 	 	 	 	1581538935	9.59	17.76
12/02/2020 20:22:16	120220	12022020	202216	238.42	12.343257	-56.861420	238.42	0.180	0.100	0.930	238.37	-1.30	1.40	 	 	 	 	 	 	 	 	 	 	 	 	 	 	 	 	 	 	1581538936	9.79	18.13
12/02/2020 20:22:17	120220	12022020	202217	238.15	12.343237	-56.861463	238.16	0.290	-0.270	1.200	238.09	-1.70	1.60	 	 	 	 	 	 	 	 	 	 	 	 	 	 	 	 	 	 	1581538937	10.04	18.59
12/02/2020 20:22:18	120220	12022020	202218	237.86	12.343215	-56.861503	237.88	0.260	-0.260	1.230	237.81	-1.60	1.60	 	 	 	 	 	 	 	 	 	 	 	 	 	 	 	 	 	 	1581538938	9.75	18.06
12/02/2020 20:22:19	120220	12022020	202219	237.61	12.343197	-56.861543	237.63	0.080	0.170	1.140	237.57	-1.20	1.50	 	 	 	 	 	 	 	 	 	 	 	 	 	 	 	 	 	 	1581538939	9.18	17.00
12/02/2020 20:22:20	120220	12022020	202220	237.47	12.343177	-56.861580	237.49	-0.100	0.600	0.940	237.46	-0.80	1.30	 	 	 	 	 	 	 	 	 	 	 	 	 	 	 	 	 	 	1581538940	8.89	16.46
12/02/2020 20:22:21	120220	12022020	202221	237.46	12.343157	-56.861617	237.49	-0.130	0.640	0.610	237.48	-0.80	1.00	 	 	 	 	 	 	 	 	 	 	 	 	 	 	 	 	 	 	1581538941	8.98	16.63
12/02/2020 20:22:22	120220	12022020	202222	237.62	12.343135	-56.861655	237.65	0.050	0.140	0.200	237.67	-1.30	0.60	 	 	 	 	 	 	 	 	 	 	 	 	 	 	 	 	 	 	1581538942	9.26	17.15
12/02/2020 20:22:23	120220	12022020	202223	237.87	12.343112	-56.861693	237.89	0.290	-0.830	-0.010	237.91	-2.30	0.40	 	 	 	 	 	 	 	 	 	 	 	 	 	 	 	 	 	 	1581538943	9.62	17.82
12/02/2020 20:22:24	120220	12022020	202224	238.05	12.343090	-56.861735	238.07	0.410	-1.890	0.220	238.08	-3.30	0.70	 	 	 	 	 	 	 	 	 	 	 	 	 	 	 	 	 	 	1581538944	9.95	18.43
12/02/2020 20:22:25	120220	12022020	202225	238.14	12.343070	-56.861777	238.17	0.310	-2.360	0.750	238.15	-3.80	1.20	 	 	 	 	 	 	 	 	 	 	 	 	 	 	 	 	 	 	1581538945	9.89	18.32
12/02/2020 20:22:26	120220	12022020	202226	238.13	12.343053	-56.861818	238.14	0.000	-1.900	1.330	238.11	-3.20	1.80	 	 	 	 	 	 	 	 	 	 	 	 	 	 	 	 	 	 	1581538946	9.39	17.39
12/02/2020 20:22:27	120220	12022020	202227	237.98	12.343037	-56.861857	237.99	-0.310	-0.820	1.800	237.94	-2.20	2.20	 	 	 	 	 	 	 	 	 	 	 	 	 	 	 	 	 	 	1581538947	9.00	16.67
12/02/2020 20:22:28	120220	12022020	202228	237.70	12.343018	-56.861897	237.71	-0.470	0.200	1.970	237.64	-1.20	2.40	 	 	 	 	 	 	 	 	 	 	 	 	 	 	 	 	 	 	1581538948	9.14	16.93
12/02/2020 20:22:29	120220	12022020	202229	237.38	12.342998	-56.861937	237.38	-0.510	0.850	1.780	237.32	-0.50	2.20	 	 	 	 	 	 	 	 	 	 	 	 	 	 	 	 	 	 	1581538949	9.55	17.69
12/02/2020 20:22:30	120220	12022020	202230	237.12	12.342975	-56.861977	237.14	-0.420	1.110	1.320	237.09	-0.30	1.70	 	 	 	 	 	 	 	 	 	 	 	 	 	 	 	 	 	 	1581538950	9.85	18.24
12/02/2020 20:22:31	120220	12022020	202231	237.06	12.342952	-56.862017	237.08	-0.230	1.160	0.700	237.08	-0.30	1.10	 	 	 	 	 	 	 	 	 	 	 	 	 	 	 	 	 	 	1581538951	9.80	18.15
12/02/2020 20:22:32	120220	12022020	202232	237.27	12.342928	-56.862055	237.30	-0.000	1.020	0.160	237.34	-0.40	0.60	 	 	 	 	 	 	 	 	 	 	 	 	 	 	 	 	 	 	1581538952	9.54	17.67
12/02/2020 20:22:33	120220	12022020	202233	237.68	12.342907	-56.862093	237.72	0.200	0.520	-0.100	237.77	-0.90	0.30	 	 	 	 	 	 	 	 	 	 	 	 	 	 	 	 	 	 	1581538953	9.37	17.35
12/02/2020 20:22:34	120220	12022020	202234	238.10	12.342885	-56.862133	238.14	0.340	-0.400	-0.010	238.16	-1.90	0.40	 	 	 	 	 	 	 	 	 	 	 	 	 	 	 	 	 	 	1581538954	9.48	17.56
12/02/2020 20:22:35	120220	12022020	202235	238.27	12.342865	-56.862173	238.30	0.410	-1.450	0.500	238.27	-2.90	1.00	 	 	 	 	 	 	 	 	 	 	 	 	 	 	 	 	 	 	1581538955	9.69	17.95
12/02/2020 20:22:36	120220	12022020	202236	238.17	12.342847	-56.862215	238.19	0.390	-2.050	1.280	238.13	-3.40	1.70	 	 	 	 	 	 	 	 	 	 	 	 	 	 	 	 	 	 	1581538956	9.63	17.83
12/02/2020 20:22:37	120220	12022020	202237	237.95	12.342830	-56.862255	237.91	0.220	-1.780	2.070	237.89	-3.10	2.50	 	 	 	 	 	 	 	 	 	 	 	 	 	 	 	 	 	 	1581538957	9.18	17.00
12/02/2020 20:22:38	120220	12022020	202238	237.54	12.342817	-56.862295	237.55	-0.020	-0.960	2.500	237.47	-2.30	2.90	 	 	 	 	 	 	 	 	 	 	 	 	 	 	 	 	 	 	1581538958	8.78	16.26
12/02/2020 20:22:39	120220	12022020	202239	237.23	12.342798	-56.862333	237.26	-0.170	-0.260	2.380	237.19	-1.60	2.80	 	 	 	 	 	 	 	 	 	 	 	 	 	 	 	 	 	 	1581538959	8.93	16.54
12/02/2020 20:22:40	120220	12022020	202240	237.08	12.342777	-56.862372	237.14	-0.160	0.030	1.830	237.08	-1.40	2.20	 	 	 	 	 	 	 	 	 	 	 	 	 	 	 	 	 	 	1581538960	9.45	17.50
12/02/2020 20:22:41	120220	12022020	202241	237.10	12.342752	-56.862412	237.16	-0.080	0.000	1.150	237.11	-1.40	1.50	 	 	 	 	 	 	 	 	 	 	 	 	 	 	 	 	 	 	1581538961	9.88	18.30
12/02/2020 20:22:42	120220	12022020	202242	237.15	12.342727	-56.862452	237.19	-0.110	-0.110	0.730	237.16	-1.50	1.20	 	 	 	 	 	 	 	 	 	 	 	 	 	 	 	 	 	 	1581538962	10.05	18.61
12/02/2020 20:22:43	120220	12022020	202243	237.17	12.342705	-56.862492	237.20	-0.310	-0.040	0.760	237.17	-1.40	1.20	 	 	 	 	 	 	 	 	 	 	 	 	 	 	 	 	 	 	1581538963	9.91	18.35
12/02/2020 20:22:44	120220	12022020	202244	237.17	12.342685	-56.862533	237.21	-0.530	0.290	1.000	237.18	-1.10	1.40	 	 	 	 	 	 	 	 	 	 	 	 	 	 	 	 	 	 	1581538964	9.56	17.71
12/02/2020 20:22:45	120220	12022020	202245	237.22	12.342668	-56.862573	237.26	-0.540	0.590	1.160	237.25	-0.80	1.60	 	 	 	 	 	 	 	 	 	 	 	 	 	 	 	 	 	 	1581538965	9.29	17.21
12/02/2020 20:22:46	120220	12022020	202246	237.33	12.342648	-56.862612	237.38	-0.270	0.590	1.010	237.36	-0.80	1.40	 	 	 	 	 	 	 	 	 	 	 	 	 	 	 	 	 	 	1581538966	9.26	17.15
12/02/2020 20:22:47	120220	12022020	202247	237.48	12.342627	-56.862650	237.52	0.180	0.240	0.550	237.51	-1.20	0.90	 	 	 	 	 	 	 	 	 	 	 	 	 	 	 	 	 	 	1581538967	9.34	17.30
12/02/2020 20:22:48	120220	12022020	202248	237.64	12.342602	-56.862688	237.68	0.610	-0.320	0.090	237.68	-1.80	0.50	 	 	 	 	 	 	 	 	 	 	 	 	 	 	 	 	 	 	1581538968	9.47	17.54
12/02/2020 20:22:49	120220	12022020	202249	237.81	12.342578	-56.862725	237.88	0.740	-0.850	-0.070	237.85	-2.30	0.40	 	 	 	 	 	 	 	 	 	 	 	 	 	 	 	 	 	 	1581538969	9.44	17.48
12/02/2020 20:22:50	120220	12022020	202250	237.94	12.342558	-56.862765	237.96	0.510	-1.240	0.410	237.93	-2.70	0.90	 	 	 	 	 	 	 	 	 	 	 	 	 	 	 	 	 	 	1581538970	9.37	17.35
12/02/2020 20:22:51	120220	12022020	202251	237.69	12.342542	-56.862805	237.68	0.110	-1.430	1.390	237.59	-2.80	1.90	 	 	 	 	 	 	 	 	 	 	 	 	 	 	 	 	 	 	1581538971	9.49	17.58
12/02/2020 20:22:52	120220	12022020	202252	237.09	12.342525	-56.862848	237.08	-0.200	-1.390	2.400	236.96	-2.80	2.90	 	 	 	 	 	 	 	 	 	 	 	 	 	 	 	 	 	 	1581538972	9.69	17.95
12/02/2020 20:22:53	120220	12022020	202253	236.36	12.342508	-56.862892	236.36	-0.280	-1.000	3.010	236.24	-2.40	3.40	 	 	 	 	 	 	 	 	 	 	 	 	 	 	 	 	 	 	1581538973	9.71	17.98
12/02/2020 20:22:54	120220	12022020	202254	235.80	12.342490	-56.862932	235.84	-0.240	-0.290	2.910	235.74	-1.70	3.30	 	 	 	 	 	 	 	 	 	 	 	 	 	 	 	 	 	 	1581538974	9.52	17.63
12/02/2020 20:22:55	120220	12022020	202255	235.70	12.342468	-56.862970	235.77	-0.230	0.400	2.180	235.74	-1.00	2.60	 	 	 	 	 	 	 	 	 	 	 	 	 	 	 	 	 	 	1581538975	9.37	17.35
12/02/2020 20:22:56	120220	12022020	202256	236.02	12.342443	-56.863008	236.11	-0.310	0.780	1.260	236.12	-0.60	1.60	 	 	 	 	 	 	 	 	 	 	 	 	 	 	 	 	 	 	1581538976	9.45	17.50
12/02/2020 20:22:57	120220	12022020	202257	236.52	12.342420	-56.863047	236.61	-0.350	0.800	0.630	236.63	-0.60	1.00	 	 	 	 	 	 	 	 	 	 	 	 	 	 	 	 	 	 	1581538977	9.59	17.76
12/02/2020 20:22:58	120220	12022020	202258	237.02	12.342397	-56.863085	237.09	-0.240	0.540	0.400	237.10	-0.90	0.80	 	 	 	 	 	 	 	 	 	 	 	 	 	 	 	 	 	 	1581538978	9.61	17.80
12/02/2020 20:22:59	120220	12022020	202259	237.30	12.342373	-56.863123	237.35	-0.010	0.080	0.500	237.32	-1.40	0.90	 	 	 	 	 	 	 	 	 	 	 	 	 	 	 	 	 	 	1581538979	9.59	17.76
12/02/2020 20:23:00	120220	12022020	202300	237.34	12.342353	-56.863163	237.38	0.250	-0.510	0.750	237.33	-1.90	1.20	 	 	 	 	 	 	 	 	 	 	 	 	 	 	 	 	 	 	1581538980	9.59	17.76
12/02/2020 20:23:01	120220	12022020	202301	237.32	12.342332	-56.863203	237.36	0.440	-0.970	0.900	237.33	-2.40	1.30	 	 	 	 	 	 	 	 	 	 	 	 	 	 	 	 	 	 	1581538981	9.54	17.67
12/02/2020 20:23:02	120220	12022020	202302	237.36	12.342312	-56.863242	237.42	0.520	-1.070	0.880	237.37	-2.50	1.30	1014.60	26.50	26.50	20.50	20.70	284.0	69.0	70.0	389.0	28.8	220.00	6.10	80.00	10.30	19012	9158.0	27.5	27.5	1581538982	9.28	17.19
12/02/2020 20:23:03	120220	12022020	202303	237.35	12.342290	-56.863280	237.40	0.430	-0.920	0.890	237.32	-2.30	1.30	 	 	 	 	 	 	 	 	 	 	 	 	 	 	 	 	 	 	1581538983	9.09	16.83
12/02/2020 20:23:04	120220	12022020	202304	237.12	12.342270	-56.863318	237.15	0.160	-0.770	1.110	237.05	-2.20	1.60	 	 	 	 	 	 	 	 	 	 	 	 	 	 	 	 	 	 	1581538984	9.29	17.21
12/02/2020 20:23:05	120220	12022020	202305	236.69	12.342250	-56.863358	236.72	-0.200	-0.570	1.500	236.60	-2.00	1.90	 	 	 	 	 	 	 	 	 	 	 	 	 	 	 	 	 	 	1581538985	9.58	17.74
12/02/2020 20:23:06	120220	12022020	202306	236.22	12.342232	-56.863400	236.26	-0.480	-0.200	1.800	236.14	-1.60	2.20	 	 	 	 	 	 	 	 	 	 	 	 	 	 	 	 	 	 	1581538986	9.62	17.82
12/02/2020 20:23:07	120220	12022020	202307	235.92	12.342212	-56.863440	235.99	-0.550	0.220	1.800	235.90	-1.20	2.20	 	 	 	 	 	 	 	 	 	 	 	 	 	 	 	 	 	 	1581538987	9.46	17.52
12/02/2020 20:23:08	120220	12022020	202308	235.91	12.342190	-56.863480	236.00	-0.390	0.370	1.480	235.94	-1.00	1.90	 	 	 	 	 	 	 	 	 	 	 	 	 	 	 	 	 	 	1581538988	9.48	17.56
12/02/2020 20:23:09	120220	12022020	202309	236.15	12.342167	-56.863518	236.27	-0.140	0.170	1.030	236.23	-1.30	1.40	 	 	 	 	 	 	 	 	 	 	 	 	 	 	 	 	 	 	1581538989	9.71	17.98
12/02/2020 20:23:10	120220	12022020	202310	236.56	12.342143	-56.863558	236.67	0.080	-0.080	0.590	236.66	-1.50	1.00	 	 	 	 	 	 	 	 	 	 	 	 	 	 	 	 	 	 	1581538990	9.69	17.95
12/02/2020 20:23:11	120220	12022020	202311	237.02	12.342120	-56.863597	237.11	0.270	-0.210	0.300	237.11	-1.60	0.70	 	 	 	 	 	 	 	 	 	 	 	 	 	 	 	 	 	 	1581538991	9.44	17.48
12/02/2020 20:23:12	120220	12022020	202312	237.45	12.342100	-56.863633	237.55	0.410	-0.170	0.300	237.54	-1.60	0.70	 	 	 	 	 	 	 	 	 	 	 	 	 	 	 	 	 	 	1581538992	9.16	16.96
12/02/2020 20:23:13	120220	12022020	202313	237.81	12.342078	-56.863672	237.88	0.430	-0.170	0.490	237.86	-1.60	0.90	 	 	 	 	 	 	 	 	 	 	 	 	 	 	 	 	 	 	1581538993	9.03	16.72
12/02/2020 20:23:14	120220	12022020	202314	237.85	12.342060	-56.863710	237.88	0.360	-0.430	0.920	237.81	-1.90	1.40	 	 	 	 	 	 	 	 	 	 	 	 	 	 	 	 	 	 	1581538994	9.27	17.17
12/02/2020 20:23:15	120220	12022020	202315	237.50	12.342040	-56.863752	237.52	0.280	-0.880	1.490	237.40	-2.30	1.90	 	 	 	 	 	 	 	 	 	 	 	 	 	 	 	 	 	 	1581538995	9.68	17.93
12/02/2020 20:23:16	120220	12022020	202316	236.93	12.342020	-56.863793	236.95	0.130	-1.220	1.880	236.82	-2.60	2.30	 	 	 	 	 	 	 	 	 	 	 	 	 	 	 	 	 	 	1581538996	9.89	18.32
12/02/2020 20:23:17	120220	12022020	202317	236.38	12.341998	-56.863835	236.41	-0.180	-1.180	1.840	236.30	-2.60	2.20	 	 	 	 	 	 	 	 	 	 	 	 	 	 	 	 	 	 	1581538997	9.78	18.11
12/02/2020 20:23:18	120220	12022020	202318	236.05	12.341977	-56.863873	236.10	-0.540	-0.750	1.440	236.02	-2.10	1.80	 	 	 	 	 	 	 	 	 	 	 	 	 	 	 	 	 	 	1581538998	9.53	17.65
12/02/2020 20:23:19	120220	12022020	202319	236.00	12.341953	-56.863912	236.05	-0.740	-0.130	0.950	236.02	-1.50	1.40	 	 	 	 	 	 	 	 	 	 	 	 	 	 	 	 	 	 	1581538999	9.35	17.32
12/02/2020 20:23:20	120220	12022020	202320	236.13	12.341932	-56.863948	236.18	-0.660	0.410	0.600	236.16	-1.00	1.00	 	 	 	 	 	 	 	 	 	 	 	 	 	 	 	 	 	 	1581539000	9.36	17.33
12/02/2020 20:23:21	120220	12022020	202321	236.31	12.341908	-56.863988	236.38	-0.400	0.660	0.490	236.36	-0.70	0.90	 	 	 	 	 	 	 	 	 	 	 	 	 	 	 	 	 	 	1581539001	9.49	17.58
12/02/2020 20:23:22	120220	12022020	202322	236.56	12.341887	-56.864027	236.65	-0.100	0.650	0.530	236.62	-0.80	1.00	 	 	 	 	 	 	 	 	 	 	 	 	 	 	 	 	 	 	1581539002	9.55	17.69
12/02/2020 20:23:23	120220	12022020	202323	236.83	12.341865	-56.864067	236.93	0.180	0.420	0.700	236.88	-1.00	1.10	 	 	 	 	 	 	 	 	 	 	 	 	 	 	 	 	 	 	1581539003	9.50	17.59
12/02/2020 20:23:24	120220	12022020	202324	237.03	12.341845	-56.864105	237.12	0.420	0.000	0.980	237.05	-1.40	1.40	 	 	 	 	 	 	 	 	 	 	 	 	 	 	 	 	 	 	1581539004	9.51	17.61
12/02/2020 20:23:25	120220	12022020	202325	237.12	12.341825	-56.864147	237.21	0.560	-0.410	1.320	237.14	-1.80	1.80	 	 	 	 	 	 	 	 	 	 	 	 	 	 	 	 	 	 	1581539005	9.51	17.61
12/02/2020 20:23:26	120220	12022020	202326	237.23	12.341807	-56.864187	237.32	0.540	-0.650	1.510	237.26	-2.10	1.90	 	 	 	 	 	 	 	 	 	 	 	 	 	 	 	 	 	 	1581539006	9.34	17.30
12/02/2020 20:23:27	120220	12022020	202327	237.34	12.341788	-56.864225	237.45	0.440	-0.760	1.340	237.36	-2.20	1.70	 	 	 	 	 	 	 	 	 	 	 	 	 	 	 	 	 	 	1581539007	9.17	16.98
12/02/2020 20:23:28	120220	12022020	202328	237.39	12.341765	-56.864262	237.45	0.350	-0.850	0.880	237.37	-2.30	1.30	 	 	 	 	 	 	 	 	 	 	 	 	 	 	 	 	 	 	1581539008	9.21	17.06
12/02/2020 20:23:29	120220	12022020	202329	237.17	12.341740	-56.864300	237.20	0.220	-0.990	0.490	237.10	-2.40	0.90	 	 	 	 	 	 	 	 	 	 	 	 	 	 	 	 	 	 	1581539009	9.45	17.50
12/02/2020 20:23:30	120220	12022020	202330	236.76	12.341717	-56.864337	236.77	-0.020	-1.040	0.440	236.69	-2.40	0.90	 	 	 	 	 	 	 	 	 	 	 	 	 	 	 	 	 	 	1581539010	9.67	17.91
12/02/2020 20:23:31	120220	12022020	202331	236.39	12.341693	-56.864377	236.42	-0.330	-0.830	0.680	236.34	-2.20	1.10	 	 	 	 	 	 	 	 	 	 	 	 	 	 	 	 	 	 	1581539011	9.66	17.89
12/02/2020 20:23:32	120220	12022020	202332	236.22	12.341673	-56.864417	236.27	-0.570	-0.380	0.980	236.21	-1.80	1.40	 	 	 	 	 	 	 	 	 	 	 	 	 	 	 	 	 	 	1581539012	9.56	17.71
12/02/2020 20:23:33	120220	12022020	202333	236.22	12.341655	-56.864458	236.28	-0.620	0.060	1.220	236.24	-1.30	1.70	 	 	 	 	 	 	 	 	 	 	 	 	 	 	 	 	 	 	1581539013	9.57	17.72
12/02/2020 20:23:34	120220	12022020	202334	236.28	12.341635	-56.864500	236.36	-0.480	0.230	1.370	236.30	-1.20	1.80	 	 	 	 	 	 	 	 	 	 	 	 	 	 	 	 	 	 	1581539014	9.74	18.04
12/02/2020 20:23:35	120220	12022020	202335	236.31	12.341615	-56.864542	236.39	-0.280	0.210	1.420	236.31	-1.20	1.80	 	 	 	 	 	 	 	 	 	 	 	 	 	 	 	 	 	 	1581539015	9.89	18.32
12/02/2020 20:23:36	120220	12022020	202336	236.33	12.341592	-56.864582	236.41	-0.130	0.220	1.250	236.36	-1.20	1.70	 	 	 	 	 	 	 	 	 	 	 	 	 	 	 	 	 	 	1581539016	9.77	18.09
12/02/2020 20:23:37	120220	12022020	202337	236.49	12.341570	-56.864622	236.58	-0.060	0.320	0.830	236.54	-1.10	1.20	 	 	 	 	 	 	 	 	 	 	 	 	 	 	 	 	 	 	1581539017	9.45	17.50
12/02/2020 20:23:38	120220	12022020	202338	236.72	12.341548	-56.864658	236.82	-0.030	0.310	0.420	236.77	-1.10	0.80	 	 	 	 	 	 	 	 	 	 	 	 	 	 	 	 	 	 	1581539018	9.28	17.19
12/02/2020 20:23:39	120220	12022020	202339	236.90	12.341525	-56.864695	237.03	0.060	0.140	0.190	236.94	-1.30	0.60	 	 	 	 	 	 	 	 	 	 	 	 	 	 	 	 	 	 	1581539019	9.30	17.22
12/02/2020 20:23:40	120220	12022020	202340	237.15	12.341503	-56.864733	237.23	0.240	-0.070	0.160	237.19	-1.50	0.60	 	 	 	 	 	 	 	 	 	 	 	 	 	 	 	 	 	 	1581539020	9.27	17.17
12/02/2020 20:23:41	120220	12022020	202341	237.26	12.341482	-56.864770	237.34	0.470	-0.320	0.330	237.27	-1.70	0.80	 	 	 	 	 	 	 	 	 	 	 	 	 	 	 	 	 	 	1581539021	9.19	17.02
12/02/2020 20:23:42	120220	12022020	202342	237.20	12.341460	-56.864808	237.26	0.670	-0.760	0.620	237.16	-2.20	1.10	 	 	 	 	 	 	 	 	 	 	 	 	 	 	 	 	 	 	1581539022	9.34	17.30
12/02/2020 20:23:43	120220	12022020	202343	236.92	12.341438	-56.864850	236.98	0.710	-1.380	1.050	236.84	-2.80	1.50	 	 	 	 	 	 	 	 	 	 	 	 	 	 	 	 	 	 	1581539023	9.70	17.96
12/02/2020 20:23:44	120220	12022020	202344	236.43	12.341417	-56.864892	236.49	0.500	-1.820	1.640	236.32	-3.20	2.10	 	 	 	 	 	 	 	 	 	 	 	 	 	 	 	 	 	 	1581539024	9.98	18.48
12/02/2020 20:23:45	120220	12022020	202345	235.92	12.341398	-56.864933	236.00	0.020	-1.590	2.120	235.84	-2.90	2.60	 	 	 	 	 	 	 	 	 	 	 	 	 	 	 	 	 	 	1581539025	9.80	18.15
12/02/2020 20:23:46	120220	12022020	202346	235.56	12.341380	-56.864973	235.64	-0.540	-0.790	2.290	235.50	-2.10	2.70	 	 	 	 	 	 	 	 	 	 	 	 	 	 	 	 	 	 	1581539026	9.36	17.33
12/02/2020 20:23:47	120220	12022020	202347	235.36	12.341360	-56.865013	235.44	-0.860	0.020	2.140	235.34	-1.30	2.60	 	 	 	 	 	 	 	 	 	 	 	 	 	 	 	 	 	 	1581539027	9.35	17.32
12/02/2020 20:23:48	120220	12022020	202348	235.36	12.341338	-56.865053	235.45	-0.780	0.530	1.710	235.38	-0.90	2.10	 	 	 	 	 	 	 	 	 	 	 	 	 	 	 	 	 	 	1581539028	9.66	17.89
12/02/2020 20:23:49	120220	12022020	202349	235.55	12.341315	-56.865093	235.67	-0.490	0.770	1.190	235.62	-0.60	1.60	 	 	 	 	 	 	 	 	 	 	 	 	 	 	 	 	 	 	1581539029	9.88	18.30
12/02/2020 20:23:50	120220	12022020	202350	235.99	12.341290	-56.865132	236.13	-0.280	0.860	0.610	236.11	-0.50	1.00	 	 	 	 	 	 	 	 	 	 	 	 	 	 	 	 	 	 	1581539030	9.80	18.15
12/02/2020 20:23:51	120220	12022020	202351	236.66	12.341265	-56.865170	236.81	-0.210	0.820	0.010	236.82	-0.60	0.40	 	 	 	 	 	 	 	 	 	 	 	 	 	 	 	 	 	 	1581539031	9.52	17.63
12/02/2020 20:23:52	120220	12022020	202352	237.36	12.341242	-56.865207	237.49	-0.080	0.500	-0.260	237.47	-0.90	0.20	 	 	 	 	 	 	 	 	 	 	 	 	 	 	 	 	 	 	1581539032	9.35	17.32
12/02/2020 20:23:53	120220	12022020	202353	237.75	12.341218	-56.865245	237.83	0.270	-0.210	0.080	237.77	-1.70	0.50	 	 	 	 	 	 	 	 	 	 	 	 	 	 	 	 	 	 	1581539033	9.52	17.63
12/02/2020 20:23:54	120220	12022020	202354	237.66	12.341197	-56.865287	237.71	0.700	-1.030	0.770	237.60	-2.50	1.30	 	 	 	 	 	 	 	 	 	 	 	 	 	 	 	 	 	 	1581539034	9.74	18.04
12/02/2020 20:23:55	120220	12022020	202355	237.18	12.341178	-56.865327	237.23	0.890	-1.490	1.560	237.06	-2.90	2.00	 	 	 	 	 	 	 	 	 	 	 	 	 	 	 	 	 	 	1581539035	9.63	17.83
12/02/2020 20:23:56	120220	12022020	202356	236.55	12.341160	-56.865367	236.61	0.680	-1.420	2.030	236.43	-2.80	2.50	 	 	 	 	 	 	 	 	 	 	 	 	 	 	 	 	 	 	1581539036	9.33	17.28
12/02/2020 20:23:57	120220	12022020	202357	236.10	12.341140	-56.865405	236.18	0.210	-0.970	1.940	236.06	-2.30	2.40	 	 	 	 	 	 	 	 	 	 	 	 	 	 	 	 	 	 	1581539037	9.10	16.85
12/02/2020 20:23:58	120220	12022020	202358	236.08	12.341118	-56.865442	236.20	-0.220	-0.380	1.360	236.12	-1.80	1.80	 	 	 	 	 	 	 	 	 	 	 	 	 	 	 	 	 	 	1581539038	9.05	16.76
12/02/2020 20:23:59	120220	12022020	202359	236.36	12.341095	-56.865478	236.46	-0.450	0.000	0.700	236.43	-1.40	1.10	 	 	 	 	 	 	 	 	 	 	 	 	 	 	 	 	 	 	1581539039	9.23	17.09
12/02/2020 20:24:00	120220	12022020	202400	236.70	12.341072	-56.865518	236.79	-0.490	-0.030	0.340	236.76	-1.40	0.80	 	 	 	 	 	 	 	 	 	 	 	 	 	 	 	 	 	 	1581539040	9.67	17.91
12/02/2020 20:24:01	120220	12022020	202401	236.91	12.341048	-56.865558	236.98	-0.350	-0.350	0.490	236.92	-1.80	1.00	 	 	 	 	 	 	 	 	 	 	 	 	 	 	 	 	 	 	1581539041	10.09	18.69
12/02/2020 20:24:02	120220	12022020	202402	236.84	12.341027	-56.865602	236.90	-0.110	-0.590	1.110	236.80	-2.00	1.60	1014.60	26.40	26.50	20.20	20.30	281.0	68.0	68.0	389.0	28.8	213.00	6.40	75.00	10.90	16639	11980.0	27.5	27.5	1581539042	10.21	18.91
12/02/2020 20:24:03	120220	12022020	202403	236.63	12.341008	-56.865645	236.68	0.050	-0.470	1.770	236.58	-1.80	2.20	 	 	 	 	 	 	 	 	 	 	 	 	 	 	 	 	 	 	1581539043	10.01	18.54
12/02/2020 20:24:04	120220	12022020	202404	236.47	12.340988	-56.865687	236.54	0.010	0.040	1.900	236.45	-1.30	2.30	 	 	 	 	 	 	 	 	 	 	 	 	 	 	 	 	 	 	1581539044	9.58	17.74
12/02/2020 20:24:05	120220	12022020	202405	236.47	12.340970	-56.865725	236.60	-0.130	0.660	1.440	236.50	-0.70	1.80	 	 	 	 	 	 	 	 	 	 	 	 	 	 	 	 	 	 	1581539045	9.13	16.91
12/02/2020 20:24:06	120220	12022020	202406	236.84	12.340947	-56.865760	236.96	-0.170	0.910	0.550	236.94	-0.50	0.90	 	 	 	 	 	 	 	 	 	 	 	 	 	 	 	 	 	 	1581539046	9.06	16.78
12/02/2020 20:24:07	120220	12022020	202407	237.34	12.340920	-56.865797	237.44	-0.040	0.460	-0.240	237.42	-1.00	0.20	 	 	 	 	 	 	 	 	 	 	 	 	 	 	 	 	 	 	1581539047	9.50	17.59
12/02/2020 20:24:08	120220	12022020	202408	237.65	12.340895	-56.865837	237.71	0.200	-0.360	-0.390	237.68	-1.80	0.10	 	 	 	 	 	 	 	 	 	 	 	 	 	 	 	 	 	 	1581539048	9.87	18.28
12/02/2020 20:24:09	120220	12022020	202409	237.65	12.340873	-56.865877	237.67	0.400	-0.960	0.040	237.60	-2.40	0.50	 	 	 	 	 	 	 	 	 	 	 	 	 	 	 	 	 	 	1581539049	9.74	18.04
12/02/2020 20:24:10	120220	12022020	202410	237.22	12.340855	-56.865917	237.24	0.440	-1.110	0.930	237.10	-2.50	1.40	 	 	 	 	 	 	 	 	 	 	 	 	 	 	 	 	 	 	1581539050	9.42	17.45
12/02/2020 20:24:11	120220	12022020	202411	236.64	12.340837	-56.865957	236.69	0.320	-0.890	1.710	236.55	-2.30	2.20	 	 	 	 	 	 	 	 	 	 	 	 	 	 	 	 	 	 	1581539051	9.22	17.08
12/02/2020 20:24:12	120220	12022020	202412	236.31	12.340818	-56.865995	236.40	0.120	-0.630	1.850	236.27	-2.00	2.30	 	 	 	 	 	 	 	 	 	 	 	 	 	 	 	 	 	 	1581539052	9.15	16.95
12/02/2020 20:24:13	120220	12022020	202413	236.24	12.340797	-56.866035	236.36	-0.010	-0.690	1.520	236.26	-2.10	1.90	 	 	 	 	 	 	 	 	 	 	 	 	 	 	 	 	 	 	1581539053	9.49	17.58
12/02/2020 20:24:14	120220	12022020	202414	236.45	12.340773	-56.866075	236.58	-0.070	-0.880	1.000	236.53	-2.30	1.40	 	 	 	 	 	 	 	 	 	 	 	 	 	 	 	 	 	 	1581539054	9.94	18.41
12/02/2020 20:24:15	120220	12022020	202415	236.88	12.340748	-56.866115	236.99	-0.100	-0.770	0.500	236.97	-2.10	0.90	 	 	 	 	 	 	 	 	 	 	 	 	 	 	 	 	 	 	1581539055	9.89	18.32
12/02/2020 20:24:16	120220	12022020	202416	237.34	12.340725	-56.866153	237.45	-0.170	-0.330	0.230	237.44	-1.70	0.70	 	 	 	 	 	 	 	 	 	 	 	 	 	 	 	 	 	 	1581539056	9.59	17.76
12/02/2020 20:24:17	120220	12022020	202417	237.69	12.340703	-56.866192	237.85	-0.280	0.160	0.250	237.76	-1.20	0.70	 	 	 	 	 	 	 	 	 	 	 	 	 	 	 	 	 	 	1581539057	9.47	17.54
12/02/2020 20:24:18	120220	12022020	202418	237.96	12.340683	-56.866233	238.02	-0.400	0.410	0.620	237.95	-1.00	1.10	 	 	 	 	 	 	 	 	 	 	 	 	 	 	 	 	 	 	1581539058	9.61	17.80
12/02/2020 20:24:19	120220	12022020	202419	237.78	12.340665	-56.866275	237.71	-0.410	0.390	1.300	237.69	-1.00	1.80	 	 	 	 	 	 	 	 	 	 	 	 	 	 	 	 	 	 	1581539059	9.89	18.32
12/02/2020 20:24:20	120220	12022020	202420	237.00	12.340647	-56.866318	237.02	-0.250	0.280	1.910	236.86	-1.10	2.40	 	 	 	 	 	 	 	 	 	 	 	 	 	 	 	 	 	 	1581539060	9.98	18.48
12/02/2020 20:24:21	120220	12022020	202421	236.33	12.340627	-56.866360	236.37	0.000	0.330	2.070	236.24	-1.10	2.50	 	 	 	 	 	 	 	 	 	 	 	 	 	 	 	 	 	 	1581539061	9.66	17.89
12/02/2020 20:24:22	120220	12022020	202422	236.08	12.340605	-56.866397	236.17	0.250	0.450	1.640	236.09	-0.90	2.00	 	 	 	 	 	 	 	 	 	 	 	 	 	 	 	 	 	 	1581539062	9.19	17.02
12/02/2020 20:24:23	120220	12022020	202423	236.26	12.340582	-56.866432	236.36	0.430	0.290	0.860	236.33	-1.10	1.30	 	 	 	 	 	 	 	 	 	 	 	 	 	 	 	 	 	 	1581539063	9.03	16.72
12/02/2020 20:24:24	120220	12022020	202424	236.70	12.340557	-56.866468	236.81	0.550	-0.340	0.120	236.81	-1.80	0.50	 	 	 	 	 	 	 	 	 	 	 	 	 	 	 	 	 	 	1581539064	9.32	17.26
12/02/2020 20:24:25	120220	12022020	202425	237.20	12.340533	-56.866507	237.31	0.560	-1.210	-0.200	237.28	-2.60	0.20	 	 	 	 	 	 	 	 	 	 	 	 	 	 	 	 	 	 	1581539065	9.63	17.83
12/02/2020 20:24:26	120220	12022020	202426	237.38	12.340510	-56.866547	237.46	0.460	-1.910	0.160	237.36	-3.30	0.60	 	 	 	 	 	 	 	 	 	 	 	 	 	 	 	 	 	 	1581539066	9.75	18.06
12/02/2020 20:24:27	120220	12022020	202427	237.10	12.340490	-56.866588	237.16	0.300	-2.020	0.990	237.01	-3.40	1.50	 	 	 	 	 	 	 	 	 	 	 	 	 	 	 	 	 	 	1581539067	9.70	17.96
12/02/2020 20:24:28	120220	12022020	202428	236.65	12.340472	-56.866630	236.74	0.030	-1.450	1.740	236.58	-2.80	2.20	 	 	 	 	 	 	 	 	 	 	 	 	 	 	 	 	 	 	1581539068	9.46	17.52
12/02/2020 20:24:29	120220	12022020	202429	236.43	12.340453	-56.866670	236.53	-0.300	-0.610	2.010	236.42	-1.90	2.40	 	 	 	 	 	 	 	 	 	 	 	 	 	 	 	 	 	 	1581539069	9.37	17.35
12/02/2020 20:24:30	120220	12022020	202430	236.45	12.340433	-56.866710	236.56	-0.600	0.130	1.940	236.47	-1.20	2.40	 	 	 	 	 	 	 	 	 	 	 	 	 	 	 	 	 	 	1581539070	9.57	17.72
12/02/2020 20:24:31	120220	12022020	202431	236.53	12.340412	-56.866750	236.63	-0.750	0.650	1.720	236.55	-0.70	2.10	 	 	 	 	 	 	 	 	 	 	 	 	 	 	 	 	 	 	1581539071	9.80	18.15
12/02/2020 20:24:32	120220	12022020	202432	236.61	12.340388	-56.866792	236.71	-0.720	0.920	1.410	236.63	-0.50	1.80	 	 	 	 	 	 	 	 	 	 	 	 	 	 	 	 	 	 	1581539072	9.89	18.32
12/02/2020 20:24:33	120220	12022020	202433	236.66	12.340365	-56.866830	236.76	-0.560	0.980	1.110	236.67	-0.40	1.50	 	 	 	 	 	 	 	 	 	 	 	 	 	 	 	 	 	 	1581539073	9.83	18.21
12/02/2020 20:24:34	120220	12022020	202434	236.70	12.340342	-56.866870	236.80	-0.290	0.860	0.870	236.71	-0.50	1.30	 	 	 	 	 	 	 	 	 	 	 	 	 	 	 	 	 	 	1581539074	9.65	17.87
12/02/2020 20:24:35	120220	12022020	202435	236.75	12.340320	-56.866908	236.84	0.080	0.590	0.680	236.76	-0.80	1.10	 	 	 	 	 	 	 	 	 	 	 	 	 	 	 	 	 	 	1581539075	9.42	17.45
12/02/2020 20:24:36	120220	12022020	202436	236.77	12.340298	-56.866947	236.85	0.490	0.130	0.590	236.77	-1.30	1.00	 	 	 	 	 	 	 	 	 	 	 	 	 	 	 	 	 	 	1581539076	9.26	17.15
12/02/2020 20:24:37	120220	12022020	202437	236.75	12.340277	-56.866985	236.82	0.840	-0.600	0.650	236.73	-2.00	1.10	 	 	 	 	 	 	 	 	 	 	 	 	 	 	 	 	 	 	1581539077	9.35	17.32
12/02/2020 20:24:38	120220	12022020	202438	236.75	12.340255	-56.867025	236.85	0.980	-1.430	0.780	236.76	-2.90	1.20	 	 	 	 	 	 	 	 	 	 	 	 	 	 	 	 	 	 	1581539078	9.59	17.76
12/02/2020 20:24:39	120220	12022020	202439	236.84	12.340233	-56.867065	236.96	0.830	-1.970	0.850	236.87	-3.40	1.30	 	 	 	 	 	 	 	 	 	 	 	 	 	 	 	 	 	 	1581539079	9.67	17.91
12/02/2020 20:24:40	120220	12022020	202440	236.98	12.340213	-56.867103	237.10	0.390	-1.870	0.850	237.00	-3.20	1.30	 	 	 	 	 	 	 	 	 	 	 	 	 	 	 	 	 	 	1581539080	9.46	17.52
12/02/2020 20:24:41	120220	12022020	202441	237.11	12.340192	-56.867142	237.23	-0.170	-1.190	0.810	237.15	-2.50	1.30	 	 	 	 	 	 	 	 	 	 	 	 	 	 	 	 	 	 	1581539081	9.17	16.98
12/02/2020 20:24:42	120220	12022020	202442	237.30	12.340170	-56.867180	237.44	-0.640	-0.380	0.720	237.34	-1.70	1.20	 	 	 	 	 	 	 	 	 	 	 	 	 	 	 	 	 	 	1581539082	9.20	17.04
12/02/2020 20:24:43	120220	12022020	202443	237.49	12.340148	-56.867218	237.62	-0.850	0.200	0.630	237.51	-1.20	1.10	 	 	 	 	 	 	 	 	 	 	 	 	 	 	 	 	 	 	1581539083	9.54	17.67
12/02/2020 20:24:44	120220	12022020	202444	237.51	12.340127	-56.867260	237.61	-0.800	0.450	0.670	237.49	-0.90	1.10	 	 	 	 	 	 	 	 	 	 	 	 	 	 	 	 	 	 	1581539084	9.90	18.33
12/02/2020 20:24:45	120220	12022020	202445	237.36	12.340103	-56.867300	237.46	-0.560	0.560	0.790	237.32	-0.80	1.20	 	 	 	 	 	 	 	 	 	 	 	 	 	 	 	 	 	 	1581539085	10.00	18.52
12/02/2020 20:24:46	120220	12022020	202446	237.09	12.340080	-56.867342	237.19	-0.270	0.580	1.000	237.03	-0.80	1.40	 	 	 	 	 	 	 	 	 	 	 	 	 	 	 	 	 	 	1581539086	9.84	18.22
12/02/2020 20:24:47	120220	12022020	202447	236.70	12.340058	-56.867382	236.78	-0.010	0.400	1.200	236.61	-1.00	1.60	 	 	 	 	 	 	 	 	 	 	 	 	 	 	 	 	 	 	1581539087	9.82	18.19
12/02/2020 20:24:48	120220	12022020	202448	236.30	12.340038	-56.867423	236.38	0.180	0.180	1.190	236.24	-1.20	1.60	 	 	 	 	 	 	 	 	 	 	 	 	 	 	 	 	 	 	1581539088	9.74	18.04
12/02/2020 20:24:49	120220	12022020	202449	236.17	12.340018	-56.867463	236.28	0.280	0.030	0.890	236.19	-1.40	1.30	 	 	 	 	 	 	 	 	 	 	 	 	 	 	 	 	 	 	1581539089	9.47	17.54
12/02/2020 20:24:50	120220	12022020	202450	236.43	12.339997	-56.867502	236.56	0.320	-0.170	0.340	236.53	-1.60	0.80	 	 	 	 	 	 	 	 	 	 	 	 	 	 	 	 	 	 	1581539090	9.24	17.11
12/02/2020 20:24:51	120220	12022020	202451	237.03	12.339975	-56.867540	237.16	0.390	-0.560	-0.210	237.16	-2.00	0.20	 	 	 	 	 	 	 	 	 	 	 	 	 	 	 	 	 	 	1581539091	9.29	17.21
12/02/2020 20:24:52	120220	12022020	202452	237.64	12.339953	-56.867578	237.76	0.490	-1.030	-0.430	237.73	-2.40	0.00	 	 	 	 	 	 	 	 	 	 	 	 	 	 	 	 	 	 	1581539092	9.50	17.59
12/02/2020 20:24:53	120220	12022020	202453	237.93	12.339932	-56.867617	238.03	0.500	-1.280	-0.200	237.94	-2.70	0.30	 	 	 	 	 	 	 	 	 	 	 	 	 	 	 	 	 	 	1581539093	9.52	17.63
12/02/2020 20:24:54	120220	12022020	202454	237.89	12.339910	-56.867657	237.99	0.330	-1.180	0.230	237.86	-2.50	0.70	 	 	 	 	 	 	 	 	 	 	 	 	 	 	 	 	 	 	1581539094	9.43	17.46
12/02/2020 20:24:55	120220	12022020	202455	237.64	12.339888	-56.867693	237.72	0.010	-0.830	0.770	237.56	-2.20	1.20	 	 	 	 	 	 	 	 	 	 	 	 	 	 	 	 	 	 	1581539095	9.36	17.33
12/02/2020 20:24:56	120220	12022020	202456	237.21	12.339867	-56.867733	237.29	-0.290	-0.400	1.340	237.11	-1.70	1.80	 	 	 	 	 	 	 	 	 	 	 	 	 	 	 	 	 	 	1581539096	9.49	17.58
12/02/2020 20:24:57	120220	12022020	202457	236.75	12.339847	-56.867773	236.85	-0.480	0.070	1.820	236.67	-1.30	2.30	 	 	 	 	 	 	 	 	 	 	 	 	 	 	 	 	 	 	1581539097	9.63	17.83
12/02/2020 20:24:58	120220	12022020	202458	236.38	12.339827	-56.867815	236.49	-0.520	0.470	2.120	236.33	-0.90	2.60	 	 	 	 	 	 	 	 	 	 	 	 	 	 	 	 	 	 	1581539098	9.69	17.95
12/02/2020 20:24:59	120220	12022020	202459	236.13	12.339808	-56.867858	236.25	-0.420	0.580	2.100	236.10	-0.80	2.50	 	 	 	 	 	 	 	 	 	 	 	 	 	 	 	 	 	 	1581539099	9.77	18.09
12/02/2020 20:25:00	120220	12022020	202500	236.11	12.339788	-56.867900	236.24	-0.190	0.310	1.570	236.14	-1.10	2.00	 	 	 	 	 	 	 	 	 	 	 	 	 	 	 	 	 	 	1581539100	9.87	18.28
12/02/2020 20:25:01	120220	12022020	202501	236.39	12.339765	-56.867940	236.54	0.140	-0.250	0.720	236.48	-1.70	1.10	 	 	 	 	 	 	 	 	 	 	 	 	 	 	 	 	 	 	1581539101	9.93	18.39
12/02/2020 20:25:02	120220	12022020	202502	236.87	12.339740	-56.867980	237.01	0.400	-0.800	-0.090	236.97	-2.20	0.30	1014.50	26.50	26.50	20.20	20.30	277.0	68.0	68.0	390.0	28.8	210.00	6.00	74.00	10.50	16313	11117.0	27.5	27.5	1581539102	9.93	18.39
12/02/2020 20:25:03	120220	12022020	202503	237.37	12.339717	-56.868018	237.52	0.440	-0.880	-0.560	237.47	-2.20	-0.10	 	 	 	 	 	 	 	 	 	 	 	 	 	 	 	 	 	 	1581539103	9.57	17.72
12/02/2020 20:25:04	120220	12022020	202504	237.74	12.339695	-56.868055	237.85	0.290	-0.460	-0.600	237.78	-1.80	-0.10	 	 	 	 	 	 	 	 	 	 	 	 	 	 	 	 	 	 	1581539104	9.03	16.72
12/02/2020 20:25:05	120220	12022020	202505	237.86	12.339673	-56.868090	237.95	0.100	-0.020	-0.240	237.86	-1.40	0.20	 	 	 	 	 	 	 	 	 	 	 	 	 	 	 	 	 	 	1581539105	8.90	16.48
12/02/2020 20:25:06	120220	12022020	202506	237.80	12.339653	-56.868130	237.89	-0.010	0.070	0.330	237.78	-1.30	0.80	 	 	 	 	 	 	 	 	 	 	 	 	 	 	 	 	 	 	1581539106	9.31	17.24
12/02/2020 20:25:07	120220	12022020	202507	237.70	12.339632	-56.868170	237.76	-0.070	-0.050	0.840	237.67	-1.40	1.30	 	 	 	 	 	 	 	 	 	 	 	 	 	 	 	 	 	 	1581539107	9.67	17.91
12/02/2020 20:25:08	120220	12022020	202508	237.54	12.339612	-56.868212	237.63	-0.130	-0.240	1.200	237.50	-1.60	1.70	 	 	 	 	 	 	 	 	 	 	 	 	 	 	 	 	 	 	1581539108	9.71	17.98
12/02/2020 20:25:09	120220	12022020	202509	237.32	12.339592	-56.868252	237.40	-0.150	-0.460	1.490	237.27	-1.80	1.90	 	 	 	 	 	 	 	 	 	 	 	 	 	 	 	 	 	 	1581539109	9.69	17.95
12/02/2020 20:25:10	120220	12022020	202510	237.04	12.339570	-56.868293	237.10	-0.110	-0.640	1.670	236.98	-2.00	2.10	 	 	 	 	 	 	 	 	 	 	 	 	 	 	 	 	 	 	1581539110	9.71	17.98
12/02/2020 20:25:11	120220	12022020	202511	236.83	12.339552	-56.868333	236.90	0.010	-0.690	1.600	236.81	-2.10	2.00	 	 	 	 	 	 	 	 	 	 	 	 	 	 	 	 	 	 	1581539111	9.64	17.85
12/02/2020 20:25:12	120220	12022020	202512	236.86	12.339532	-56.868373	236.96	0.140	-0.530	1.180	236.91	-1.90	1.60	 	 	 	 	 	 	 	 	 	 	 	 	 	 	 	 	 	 	1581539112	9.47	17.54
12/02/2020 20:25:13	120220	12022020	202513	237.15	12.339510	-56.868412	237.27	0.200	-0.240	0.500	237.23	-1.60	0.90	 	 	 	 	 	 	 	 	 	 	 	 	 	 	 	 	 	 	1581539113	9.28	17.19
12/02/2020 20:25:14	120220	12022020	202514	237.50	12.339485	-56.868448	237.60	0.140	-0.060	-0.060	237.56	-1.40	0.40	 	 	 	 	 	 	 	 	 	 	 	 	 	 	 	 	 	 	1581539114	9.31	17.24
12/02/2020 20:25:15	120220	12022020	202515	237.66	12.339462	-56.868487	237.75	0.040	-0.200	-0.040	237.66	-1.60	0.40	 	 	 	 	 	 	 	 	 	 	 	 	 	 	 	 	 	 	1581539115	9.64	17.85
12/02/2020 20:25:16	120220	12022020	202516	237.50	12.339442	-56.868530	237.55	-0.020	-0.480	0.440	237.44	-1.90	0.90	 	 	 	 	 	 	 	 	 	 	 	 	 	 	 	 	 	 	1581539116	9.98	18.48
12/02/2020 20:25:17	120220	12022020	202517	237.09	12.339422	-56.868572	237.12	-0.030	-0.600	1.000	236.98	-2.00	1.50	 	 	 	 	 	 	 	 	 	 	 	 	 	 	 	 	 	 	1581539117	10.01	18.54
12/02/2020 20:25:18	120220	12022020	202518	236.65	12.339402	-56.868613	236.71	-0.110	-0.490	1.310	236.59	-1.90	1.70	 	 	 	 	 	 	 	 	 	 	 	 	 	 	 	 	 	 	1581539118	9.80	18.15
12/02/2020 20:25:19	120220	12022020	202519	236.50	12.339380	-56.868653	236.59	-0.280	-0.250	1.260	236.52	-1.60	1.70	 	 	 	 	 	 	 	 	 	 	 	 	 	 	 	 	 	 	1581539119	9.58	17.74
12/02/2020 20:25:20	120220	12022020	202520	236.70	12.339358	-56.868693	236.82	-0.440	0.020	0.970	236.78	-1.30	1.40	 	 	 	 	 	 	 	 	 	 	 	 	 	 	 	 	 	 	1581539120	9.47	17.54
12/02/2020 20:25:21	120220	12022020	202521	237.14	12.339337	-56.868730	237.27	-0.430	0.360	0.640	237.24	-1.00	1.10	 	 	 	 	 	 	 	 	 	 	 	 	 	 	 	 	 	 	1581539121	9.31	17.24
12/02/2020 20:25:22	120220	12022020	202522	237.65	12.339313	-56.868767	237.78	-0.210	0.660	0.380	237.75	-0.70	0.80	 	 	 	 	 	 	 	 	 	 	 	 	 	 	 	 	 	 	1581539122	9.14	16.93
12/02/2020 20:25:23	120220	12022020	202523	238.08	12.339290	-56.868803	238.17	0.180	0.540	0.320	238.13	-0.90	0.80	 	 	 	 	 	 	 	 	 	 	 	 	 	 	 	 	 	 	1581539123	9.22	17.08
12/02/2020 20:25:24	120220	12022020	202524	238.20	12.339268	-56.868843	238.26	0.570	-0.190	0.590	238.18	-1.60	1.10	 	 	 	 	 	 	 	 	 	 	 	 	 	 	 	 	 	 	1581539124	9.70	17.96
12/02/2020 20:25:25	120220	12022020	202525	237.93	12.339248	-56.868887	237.95	0.780	-1.090	1.180	237.82	-2.50	1.60	 	 	 	 	 	 	 	 	 	 	 	 	 	 	 	 	 	 	1581539125	10.07	18.65
12/02/2020 20:25:26	120220	12022020	202526	237.34	12.339228	-56.868930	237.35	0.710	-1.520	1.720	237.22	-2.90	2.20	 	 	 	 	 	 	 	 	 	 	 	 	 	 	 	 	 	 	1581539126	9.92	18.37
12/02/2020 20:25:27	120220	12022020	202527	236.78	12.339210	-56.868968	236.82	0.380	-1.340	1.890	236.68	-2.70	2.30	 	 	 	 	 	 	 	 	 	 	 	 	 	 	 	 	 	 	1581539127	9.36	17.33
12/02/2020 20:25:28	120220	12022020	202528	236.34	12.339190	-56.869008	236.39	-0.070	-1.000	1.770	236.27	-2.40	2.20	 	 	 	 	 	 	 	 	 	 	 	 	 	 	 	 	 	 	1581539128	9.25	17.13
12/02/2020 20:25:29	120220	12022020	202529	236.06	12.339170	-56.869048	236.11	-0.400	-0.760	1.560	236.03	-2.10	2.00	 	 	 	 	 	 	 	 	 	 	 	 	 	 	 	 	 	 	1581539129	9.64	17.85
12/02/2020 20:25:30	120220	12022020	202530	236.08	12.339148	-56.869090	236.17	-0.540	-0.390	1.220	236.14	-1.70	1.60	 	 	 	 	 	 	 	 	 	 	 	 	 	 	 	 	 	 	1581539130	9.82	18.19
12/02/2020 20:25:31	120220	12022020	202531	236.56	12.339125	-56.869128	236.70	-0.520	0.160	0.670	236.71	-1.20	1.10	 	 	 	 	 	 	 	 	 	 	 	 	 	 	 	 	 	 	1581539131	9.61	17.80
12/02/2020 20:25:32	120220	12022020	202532	237.39	12.339102	-56.869167	237.55	-0.380	0.540	0.130	237.58	-0.80	0.50	 	 	 	 	 	 	 	 	 	 	 	 	 	 	 	 	 	 	1581539132	9.56	17.71
12/02/2020 20:25:33	120220	12022020	202533	238.28	12.339078	-56.869207	238.41	-0.180	0.510	-0.100	238.43	-0.90	0.30	 	 	 	 	 	 	 	 	 	 	 	 	 	 	 	 	 	 	1581539133	9.80	18.15
12/02/2020 20:25:34	120220	12022020	202534	238.89	12.339053	-56.869247	238.97	-0.020	0.220	0.100	238.95	-1.20	0.60	 	 	 	 	 	 	 	 	 	 	 	 	 	 	 	 	 	 	1581539134	9.99	18.50
12/02/2020 20:25:35	120220	12022020	202535	238.98	12.339030	-56.869287	239.01	-0.000	0.020	0.730	238.94	-1.40	1.20	 	 	 	 	 	 	 	 	 	 	 	 	 	 	 	 	 	 	1581539135	9.80	18.15
12/02/2020 20:25:36	120220	12022020	202536	238.59	12.339012	-56.869327	238.60	-0.050	-0.010	1.500	238.48	-1.40	2.00	 	 	 	 	 	 	 	 	 	 	 	 	 	 	 	 	 	 	1581539136	9.46	17.52
12/02/2020 20:25:37	120220	12022020	202537	238.10	12.338993	-56.869367	238.13	-0.050	-0.060	1.880	238.03	-1.40	2.30	 	 	 	 	 	 	 	 	 	 	 	 	 	 	 	 	 	 	1581539137	9.32	17.26
12/02/2020 20:25:38	120220	12022020	202538	237.84	12.338973	-56.869407	237.90	0.060	-0.300	1.620	237.82	-1.70	2.00	 	 	 	 	 	 	 	 	 	 	 	 	 	 	 	 	 	 	1581539138	9.35	17.32
12/02/2020 20:25:39	120220	12022020	202539	237.74	12.338953	-56.869447	237.80	0.250	-0.710	1.040	237.72	-2.10	1.40	 	 	 	 	 	 	 	 	 	 	 	 	 	 	 	 	 	 	1581539139	9.51	17.61
12/02/2020 20:25:40	120220	12022020	202540	237.58	12.338930	-56.869485	237.63	0.450	-1.080	0.540	237.53	-2.50	1.00	 	 	 	 	 	 	 	 	 	 	 	 	 	 	 	 	 	 	1581539140	9.63	17.83
12/02/2020 20:25:41	120220	12022020	202541	237.26	12.338907	-56.869525	237.32	0.520	-1.190	0.420	237.20	-2.60	0.90	 	 	 	 	 	 	 	 	 	 	 	 	 	 	 	 	 	 	1581539141	9.57	17.72
12/02/2020 20:25:42	120220	12022020	202542	237.01	12.338885	-56.869563	237.09	0.400	-1.070	0.520	236.99	-2.40	1.00	 	 	 	 	 	 	 	 	 	 	 	 	 	 	 	 	 	 	1581539142	9.53	17.65
12/02/2020 20:25:43	120220	12022020	202543	237.00	12.338863	-56.869603	237.11	0.120	-0.740	0.610	237.03	-2.10	1.00	 	 	 	 	 	 	 	 	 	 	 	 	 	 	 	 	 	 	1581539143	9.56	17.71
12/02/2020 20:25:44	120220	12022020	202544	237.29	12.338843	-56.869643	237.44	-0.190	-0.280	0.540	237.39	-1.60	0.90	 	 	 	 	 	 	 	 	 	 	 	 	 	 	 	 	 	 	1581539144	9.58	17.74
12/02/2020 20:25:45	120220	12022020	202545	237.80	12.338822	-56.869683	238.11	-0.410	0.160	0.210	237.94	-1.20	0.60	 	 	 	 	 	 	 	 	 	 	 	 	 	 	 	 	 	 	1581539145	9.57	17.72
12/02/2020 20:25:46	120220	12022020	202546	238.75	12.338800	-56.869723	238.89	-0.470	0.400	-0.130	238.89	-1.00	0.30	 	 	 	 	 	 	 	 	 	 	 	 	 	 	 	 	 	 	1581539146	9.67	17.91
12/02/2020 20:25:47	120220	12022020	202547	239.26	12.338777	-56.869763	239.33	-0.380	0.310	-0.160	239.30	-1.10	0.30	 	 	 	 	 	 	 	 	 	 	 	 	 	 	 	 	 	 	1581539147	9.91	18.35
12/02/2020 20:25:48	120220	12022020	202548	239.29	12.338755	-56.869807	239.32	-0.270	0.080	0.240	239.25	-1.30	0.70	 	 	 	 	 	 	 	 	 	 	 	 	 	 	 	 	 	 	1581539148	10.05	18.61
12/02/2020 20:25:49	120220	12022020	202549	238.99	12.338735	-56.869848	239.01	-0.210	-0.020	0.840	238.90	-1.40	1.30	 	 	 	 	 	 	 	 	 	 	 	 	 	 	 	 	 	 	1581539149	9.87	18.28
12/02/2020 20:25:50	120220	12022020	202550	238.58	12.338717	-56.869888	238.59	-0.150	0.010	1.280	238.49	-1.40	1.70	 	 	 	 	 	 	 	 	 	 	 	 	 	 	 	 	 	 	1581539150	9.53	17.65
12/02/2020 20:25:51	120220	12022020	202551	238.17	12.338697	-56.869928	238.18	-0.020	-0.040	1.330	238.09	-1.40	1.80	 	 	 	 	 	 	 	 	 	 	 	 	 	 	 	 	 	 	1581539151	9.38	17.37
12/02/2020 20:25:52	120220	12022020	202552	237.82	12.338675	-56.869967	237.84	0.180	-0.250	1.100	237.76	-1.70	1.50	 	 	 	 	 	 	 	 	 	 	 	 	 	 	 	 	 	 	1581539152	9.40	17.41
12/02/2020 20:25:53	120220	12022020	202553	237.65	12.338653	-56.870007	237.68	0.390	-0.480	0.730	237.64	-1.90	1.10	 	 	 	 	 	 	 	 	 	 	 	 	 	 	 	 	 	 	1581539153	9.43	17.46
12/02/2020 20:25:54	120220	12022020	202554	237.70	12.338632	-56.870045	237.73	0.530	-0.650	0.370	237.71	-2.10	0.80	 	 	 	 	 	 	 	 	 	 	 	 	 	 	 	 	 	 	1581539154	9.38	17.37
12/02/2020 20:25:55	120220	12022020	202555	237.75	12.338610	-56.870083	237.79	0.570	-0.790	0.320	237.74	-2.20	0.80	 	 	 	 	 	 	 	 	 	 	 	 	 	 	 	 	 	 	1581539155	9.43	17.46
12/02/2020 20:25:56	120220	12022020	202556	237.70	12.338590	-56.870123	237.76	0.480	-0.910	0.580	237.70	-2.30	1.00	 	 	 	 	 	 	 	 	 	 	 	 	 	 	 	 	 	 	1581539156	9.63	17.83
12/02/2020 20:25:57	120220	12022020	202557	237.75	12.338568	-56.870165	237.83	0.210	-0.860	0.780	237.78	-2.30	1.20	 	 	 	 	 	 	 	 	 	 	 	 	 	 	 	 	 	 	1581539157	9.70	17.96
12/02/2020 20:25:58	120220	12022020	202558	238.03	12.338548	-56.870205	238.13	-0.160	-0.690	0.690	238.11	-2.10	1.10	 	 	 	 	 	 	 	 	 	 	 	 	 	 	 	 	 	 	1581539158	9.69	17.95
12/02/2020 20:25:59	120220	12022020	202559	238.46	12.338527	-56.870247	238.56	-0.500	-0.500	0.480	238.54	-1.90	0.90	 	 	 	 	 	 	 	 	 	 	 	 	 	 	 	 	 	 	1581539159	9.78	18.11
12/02/2020 20:26:00	120220	12022020	202600	238.87	12.338505	-56.870287	238.94	-0.710	-0.270	0.400	238.93	-1.70	0.80	 	 	 	 	 	 	 	 	 	 	 	 	 	 	 	 	 	 	1581539160	9.87	18.28
12/02/2020 20:26:01	120220	12022020	202601	239.07	12.338483	-56.870328	239.10	-0.770	0.020	0.580	239.08	-1.40	1.00	 	 	 	 	 	 	 	 	 	 	 	 	 	 	 	 	 	 	1581539161	9.85	18.24
12/02/2020 20:26:02	120220	12022020	202602	238.99	12.338463	-56.870370	239.00	-0.670	0.260	0.900	238.94	-1.10	1.30	1014.60	26.50	26.60	20.10	20.20	256.0	68.0	68.0	390.0	28.8	208.00	5.70	73.00	10.30	17151	10200.0	27.5	27.5	1581539162	9.80	18.15
12/02/2020 20:26:03	120220	12022020	202603	238.71	12.338442	-56.870410	238.70	-0.440	0.320	1.110	238.64	-1.10	1.50	 	 	 	 	 	 	 	 	 	 	 	 	 	 	 	 	 	 	1581539163	9.80	18.15
12/02/2020 20:26:04	120220	12022020	202604	238.33	12.338420	-56.870452	238.32	-0.160	0.250	1.160	238.26	-1.20	1.60	 	 	 	 	 	 	 	 	 	 	 	 	 	 	 	 	 	 	1581539164	9.81	18.17
12/02/2020 20:26:05	120220	12022020	202605	238.00	12.338398	-56.870490	238.00	0.120	0.210	1.090	237.95	-1.20	1.50	 	 	 	 	 	 	 	 	 	 	 	 	 	 	 	 	 	 	1581539165	9.62	17.82
12/02/2020 20:26:06	120220	12022020	202606	237.79	12.338377	-56.870530	237.80	0.370	0.210	0.940	237.76	-1.20	1.30	 	 	 	 	 	 	 	 	 	 	 	 	 	 	 	 	 	 	1581539166	9.33	17.28
12/02/2020 20:26:07	120220	12022020	202607	237.70	12.338355	-56.870568	237.72	0.580	-0.000	0.720	237.69	-1.40	1.10	 	 	 	 	 	 	 	 	 	 	 	 	 	 	 	 	 	 	1581539167	9.33	17.28
12/02/2020 20:26:08	120220	12022020	202608	237.71	12.338335	-56.870608	237.74	0.710	-0.460	0.590	237.72	-1.90	1.00	 	 	 	 	 	 	 	 	 	 	 	 	 	 	 	 	 	 	1581539168	9.60	17.78
12/02/2020 20:26:09	120220	12022020	202609	237.80	12.338315	-56.870648	237.86	0.730	-0.810	0.670	237.83	-2.20	1.10	 	 	 	 	 	 	 	 	 	 	 	 	 	 	 	 	 	 	1581539169	9.67	17.91
12/02/2020 20:26:10	120220	12022020	202610	237.99	12.338295	-56.870690	238.05	0.610	-0.890	0.880	238.04	-2.30	1.30	 	 	 	 	 	 	 	 	 	 	 	 	 	 	 	 	 	 	1581539170	9.44	17.48
12/02/2020 20:26:11	120220	12022020	202611	238.23	12.338277	-56.870730	238.28	0.370	-0.900	1.120	238.27	-2.30	1.50	 	 	 	 	 	 	 	 	 	 	 	 	 	 	 	 	 	 	1581539171	9.41	17.43
12/02/2020 20:26:12	120220	12022020	202612	238.35	12.338257	-56.870772	238.39	0.070	-1.010	1.220	238.36	-2.40	1.60	 	 	 	 	 	 	 	 	 	 	 	 	 	 	 	 	 	 	1581539172	9.68	17.93
12/02/2020 20:26:13	120220	12022020	202613	238.38	12.338235	-56.870812	238.41	-0.270	-1.030	1.080	238.39	-2.40	1.50	 	 	 	 	 	 	 	 	 	 	 	 	 	 	 	 	 	 	1581539173	9.90	18.33
12/02/2020 20:26:14	120220	12022020	202614	238.51	12.338212	-56.870852	238.54	-0.620	-0.750	0.670	238.55	-2.10	1.10	 	 	 	 	 	 	 	 	 	 	 	 	 	 	 	 	 	 	1581539174	9.82	18.19
12/02/2020 20:26:15	120220	12022020	202615	238.65	12.338188	-56.870890	238.67	-0.850	-0.280	0.300	238.65	-1.60	0.70	 	 	 	 	 	 	 	 	 	 	 	 	 	 	 	 	 	 	1581539175	9.63	17.83
12/02/2020 20:26:16	120220	12022020	202616	238.58	12.338165	-56.870930	238.59	-0.870	0.110	0.190	238.54	-1.30	0.60	 	 	 	 	 	 	 	 	 	 	 	 	 	 	 	 	 	 	1581539176	9.68	17.93
12/02/2020 20:26:17	120220	12022020	202617	238.37	12.338143	-56.870970	238.37	-0.680	0.330	0.320	238.33	-1.00	0.80	 	 	 	 	 	 	 	 	 	 	 	 	 	 	 	 	 	 	1581539177	9.88	18.30
12/02/2020 20:26:18	120220	12022020	202618	238.17	12.338122	-56.871012	238.17	-0.360	0.530	0.460	238.13	-0.90	0.90	 	 	 	 	 	 	 	 	 	 	 	 	 	 	 	 	 	 	1581539178	9.85	18.24
12/02/2020 20:26:19	120220	12022020	202619	238.00	12.338100	-56.871052	238.01	0.010	0.650	0.610	237.97	-0.70	1.00	 	 	 	 	 	 	 	 	 	 	 	 	 	 	 	 	 	 	1581539179	9.63	17.83
12/02/2020 20:26:20	120220	12022020	202620	237.89	12.338080	-56.871093	237.91	0.410	0.470	0.820	237.88	-0.90	1.30	 	 	 	 	 	 	 	 	 	 	 	 	 	 	 	 	 	 	1581539180	9.65	17.87
12/02/2020 20:26:21	120220	12022020	202621	237.83	12.338060	-56.871135	237.85	0.710	-0.100	1.190	237.81	-1.50	1.60	 	 	 	 	 	 	 	 	 	 	 	 	 	 	 	 	 	 	1581539181	9.88	18.30
12/02/2020 20:26:22	120220	12022020	202622	237.76	12.338042	-56.871178	237.80	0.750	-0.780	1.630	237.76	-2.20	2.10	 	 	 	 	 	 	 	 	 	 	 	 	 	 	 	 	 	 	1581539182	10.09	18.69
12/02/2020 20:26:23	120220	12022020	202623	237.78	12.338023	-56.871222	237.84	0.470	-1.080	1.920	237.80	-2.50	2.30	 	 	 	 	 	 	 	 	 	 	 	 	 	 	 	 	 	 	1581539183	9.87	18.28
12/02/2020 20:26:24	120220	12022020	202624	237.87	12.338005	-56.871262	237.91	0.060	-0.820	1.820	237.88	-2.20	2.20	 	 	 	 	 	 	 	 	 	 	 	 	 	 	 	 	 	 	1581539184	9.29	17.21
12/02/2020 20:26:25	120220	12022020	202625	237.87	12.337985	-56.871298	237.91	-0.180	-0.440	1.370	237.87	-1.80	1.80	 	 	 	 	 	 	 	 	 	 	 	 	 	 	 	 	 	 	1581539185	9.01	16.69
12/02/2020 20:26:26	120220	12022020	202626	237.87	12.337960	-56.871335	237.89	-0.180	-0.420	0.750	237.88	-1.80	1.10	 	 	 	 	 	 	 	 	 	 	 	 	 	 	 	 	 	 	1581539186	9.39	17.39
12/02/2020 20:26:27	120220	12022020	202627	237.94	12.337935	-56.871375	237.97	-0.040	-0.650	0.200	237.96	-2.10	0.60	 	 	 	 	 	 	 	 	 	 	 	 	 	 	 	 	 	 	1581539187	9.87	18.28
12/02/2020 20:26:28	120220	12022020	202628	238.05	12.337910	-56.871413	238.07	0.080	-0.760	-0.110	238.08	-2.10	0.30	 	 	 	 	 	 	 	 	 	 	 	 	 	 	 	 	 	 	1581539188	9.96	18.45
12/02/2020 20:26:29	120220	12022020	202629	238.21	12.337887	-56.871453	238.24	0.080	-0.590	-0.130	238.26	-2.00	0.30	 	 	 	 	 	 	 	 	 	 	 	 	 	 	 	 	 	 	1581539189	9.77	18.09
12/02/2020 20:26:30	120220	12022020	202630	238.40	12.337865	-56.871493	238.43	-0.030	-0.280	0.220	238.42	-1.60	0.70	 	 	 	 	 	 	 	 	 	 	 	 	 	 	 	 	 	 	1581539190	9.64	17.85
12/02/2020 20:26:31	120220	12022020	202631	238.40	12.337847	-56.871535	238.43	-0.220	0.050	0.900	238.38	-1.30	1.40	 	 	 	 	 	 	 	 	 	 	 	 	 	 	 	 	 	 	1581539191	9.73	18.02
12/02/2020 20:26:32	120220	12022020	202632	238.25	12.337828	-56.871578	238.27	-0.360	0.390	1.590	238.22	-1.00	2.00	 	 	 	 	 	 	 	 	 	 	 	 	 	 	 	 	 	 	1581539192	9.79	18.13
12/02/2020 20:26:33	120220	12022020	202633	238.16	12.337812	-56.871622	238.19	-0.350	0.650	1.820	238.16	-0.70	2.20	 	 	 	 	 	 	 	 	 	 	 	 	 	 	 	 	 	 	1581539193	9.70	17.96
12/02/2020 20:26:34	120220	12022020	202634	238.26	12.337793	-56.871662	238.29	-0.130	0.620	1.350	238.30	-0.80	1.70	 	 	 	 	 	 	 	 	 	 	 	 	 	 	 	 	 	 	1581539194	9.60	17.78
12/02/2020 20:26:35	120220	12022020	202635	238.40	12.337768	-56.871702	238.44	0.200	0.060	0.440	238.43	-1.40	0.80	 	 	 	 	 	 	 	 	 	 	 	 	 	 	 	 	 	 	1581539195	9.80	18.15
12/02/2020 20:26:36	120220	12022020	202636	238.51	12.337740	-56.871740	238.50	0.410	-0.840	-0.340	238.51	-2.30	0.00	 	 	 	 	 	 	 	 	 	 	 	 	 	 	 	 	 	 	1581539196	10.16	18.82
12/02/2020 20:26:37	120220	12022020	202637	238.49	12.337715	-56.871778	238.47	0.340	-1.490	-0.570	238.48	-2.90	-0.10	 	 	 	 	 	 	 	 	 	 	 	 	 	 	 	 	 	 	1581539197	10.06	18.63
12/02/2020 20:26:38	120220	12022020	202638	238.42	12.337693	-56.871818	238.42	0.070	-1.560	-0.280	238.41	-2.90	0.20	 	 	 	 	 	 	 	 	 	 	 	 	 	 	 	 	 	 	1581539198	9.60	17.78
12/02/2020 20:26:39	120220	12022020	202639	238.32	12.337675	-56.871858	238.33	-0.180	-1.200	0.190	238.29	-2.60	0.60	 	 	 	 	 	 	 	 	 	 	 	 	 	 	 	 	 	 	1581539199	9.36	17.33
12/02/2020 20:26:40	120220	12022020	202640	238.17	12.337657	-56.871900	238.18	-0.250	-0.670	0.650	238.15	-2.00	1.10	 	 	 	 	 	 	 	 	 	 	 	 	 	 	 	 	 	 	1581539200	9.46	17.52
12/02/2020 20:26:41	120220	12022020	202641	238.11	12.337637	-56.871942	238.14	-0.210	-0.090	0.970	238.12	-1.40	1.40	 	 	 	 	 	 	 	 	 	 	 	 	 	 	 	 	 	 	1581539201	9.66	17.89
12/02/2020 20:26:42	120220	12022020	202642	238.21	12.337618	-56.871983	238.25	-0.210	0.550	1.160	238.25	-0.80	1.60	 	 	 	 	 	 	 	 	 	 	 	 	 	 	 	 	 	 	1581539202	9.70	17.96
12/02/2020 20:26:43	120220	12022020	202643	238.47	12.337602	-56.872025	238.53	-0.230	1.160	1.180	238.55	-0.20	1.60	 	 	 	 	 	 	 	 	 	 	 	 	 	 	 	 	 	 	1581539203	9.50	17.59
12/02/2020 20:26:44	120220	12022020	202644	238.88	12.337582	-56.872063	238.92	-0.120	1.370	0.870	238.96	-0.00	1.20	 	 	 	 	 	 	 	 	 	 	 	 	 	 	 	 	 	 	1581539204	9.31	17.24
12/02/2020 20:26:45	120220	12022020	202645	239.14	12.337560	-56.872103	239.19	0.230	0.710	0.430	239.17	-0.70	0.80	 	 	 	 	 	 	 	 	 	 	 	 	 	 	 	 	 	 	1581539205	9.69	17.95
12/02/2020 20:26:46	120220	12022020	202646	239.12	12.337535	-56.872145	239.10	0.620	-0.600	0.270	239.06	-2.10	0.70	 	 	 	 	 	 	 	 	 	 	 	 	 	 	 	 	 	 	1581539206	10.29	19.06
12/02/2020 20:26:47	120220	12022020	202647	238.79	12.337510	-56.872188	238.64	0.740	-1.750	0.450	238.69	-3.20	0.90	 	 	 	 	 	 	 	 	 	 	 	 	 	 	 	 	 	 	1581539207	10.40	19.26
12/02/2020 20:26:48	120220	12022020	202648	238.10	12.337488	-56.872228	238.07	0.440	-1.990	0.760	237.99	-3.30	1.20	 	 	 	 	 	 	 	 	 	 	 	 	 	 	 	 	 	 	1581539208	9.82	18.19
12/02/2020 20:26:49	120220	12022020	202649	237.74	12.337470	-56.872267	237.70	-0.070	-1.320	0.970	237.68	-2.70	1.40	 	 	 	 	 	 	 	 	 	 	 	 	 	 	 	 	 	 	1581539209	9.01	16.69
12/02/2020 20:26:50	120220	12022020	202650	237.56	12.337452	-56.872305	237.61	-0.420	-0.570	1.020	237.57	-1.90	1.40	 	 	 	 	 	 	 	 	 	 	 	 	 	 	 	 	 	 	1581539210	8.87	16.43
12/02/2020 20:26:51	120220	12022020	202651	237.70	12.337433	-56.872345	237.77	-0.470	-0.240	0.930	237.75	-1.60	1.30	 	 	 	 	 	 	 	 	 	 	 	 	 	 	 	 	 	 	1581539211	9.49	17.58
12/02/2020 20:26:52	120220	12022020	202652	238.03	12.337412	-56.872387	238.10	-0.350	-0.130	0.740	238.11	-1.50	1.10	 	 	 	 	 	 	 	 	 	 	 	 	 	 	 	 	 	 	1581539212	10.01	18.54
12/02/2020 20:26:53	120220	12022020	202653	238.42	12.337390	-56.872428	238.48	-0.250	0.170	0.680	238.48	-1.20	1.10	 	 	 	 	 	 	 	 	 	 	 	 	 	 	 	 	 	 	1581539213	9.90	18.33
12/02/2020 20:26:54	120220	12022020	202654	238.59	12.337370	-56.872470	238.62	-0.210	0.450	0.860	238.58	-0.90	1.30	 	 	 	 	 	 	 	 	 	 	 	 	 	 	 	 	 	 	1581539214	9.65	17.87
12/02/2020 20:26:55	120220	12022020	202655	238.40	12.337350	-56.872512	238.41	-0.150	0.380	1.160	238.34	-1.00	1.60	 	 	 	 	 	 	 	 	 	 	 	 	 	 	 	 	 	 	1581539215	9.82	18.19
12/02/2020 20:26:56	120220	12022020	202656	238.04	12.337328	-56.872553	238.04	0.030	0.090	1.270	237.97	-1.30	1.70	 	 	 	 	 	 	 	 	 	 	 	 	 	 	 	 	 	 	1581539216	10.00	18.52
12/02/2020 20:26:57	120220	12022020	202657	237.67	12.337305	-56.872593	237.68	0.290	-0.050	1.120	237.62	-1.40	1.50	 	 	 	 	 	 	 	 	 	 	 	 	 	 	 	 	 	 	1581539217	9.81	18.17
12/02/2020 20:26:58	120220	12022020	202658	237.50	12.337283	-56.872632	237.51	0.490	-0.080	0.810	237.50	-1.50	1.20	 	 	 	 	 	 	 	 	 	 	 	 	 	 	 	 	 	 	1581539218	9.45	17.50
12/02/2020 20:26:59	120220	12022020	202659	237.60	12.337260	-56.872670	237.70	0.490	-0.240	0.540	237.65	-1.60	0.90	 	 	 	 	 	 	 	 	 	 	 	 	 	 	 	 	 	 	1581539219	9.37	17.35
12/02/2020 20:27:00	120220	12022020	202700	238.05	12.337238	-56.872708	238.13	0.350	-0.600	0.330	238.14	-2.00	0.70	 	 	 	 	 	 	 	 	 	 	 	 	 	 	 	 	 	 	1581539220	9.54	17.67
12/02/2020 20:27:01	120220	12022020	202701	238.48	12.337217	-56.872748	238.56	0.180	-0.930	0.340	238.56	-2.30	0.80	 	 	 	 	 	 	 	 	 	 	 	 	 	 	 	 	 	 	1581539221	9.67	17.91
12/02/2020 20:27:02	120220	12022020	202702	238.74	12.337197	-56.872790	238.78	-0.000	-0.960	0.690	238.75	-2.30	1.10	1014.60	26.60	26.70	20.40	20.40	263.0	69.0	68.0	391.0	28.8	211.00	5.20	74.00	9.80	18170	10461.0	27.5	27.5	1581539222	9.62	17.82
12/02/2020 20:27:03	120220	12022020	202703	238.69	12.337180	-56.872830	238.70	-0.180	-0.660	1.120	238.64	-2.00	1.50	 	 	 	 	 	 	 	 	 	 	 	 	 	 	 	 	 	 	1581539223	9.41	17.43
12/02/2020 20:27:04	120220	12022020	202704	238.42	12.337162	-56.872870	238.44	-0.250	-0.310	1.390	238.37	-1.70	1.80	 	 	 	 	 	 	 	 	 	 	 	 	 	 	 	 	 	 	1581539224	9.37	17.35
12/02/2020 20:27:05	120220	12022020	202705	238.23	12.337140	-56.872910	238.26	-0.230	-0.170	1.310	238.22	-1.50	1.70	 	 	 	 	 	 	 	 	 	 	 	 	 	 	 	 	 	 	1581539225	9.59	17.76
12/02/2020 20:27:06	120220	12022020	202706	238.23	12.337118	-56.872952	238.27	-0.170	-0.290	0.980	238.26	-1.70	1.40	 	 	 	 	 	 	 	 	 	 	 	 	 	 	 	 	 	 	1581539226	9.88	18.30
12/02/2020 20:27:07	120220	12022020	202707	238.37	12.337095	-56.872993	238.41	-0.120	-0.470	0.630	238.41	-1.90	1.00	 	 	 	 	 	 	 	 	 	 	 	 	 	 	 	 	 	 	1581539227	10.05	18.61
12/02/2020 20:27:08	120220	12022020	202708	238.51	12.337072	-56.873033	238.54	-0.080	-0.520	0.420	238.53	-1.90	0.80	 	 	 	 	 	 	 	 	 	 	 	 	 	 	 	 	 	 	1581539228	9.97	18.46
12/02/2020 20:27:09	120220	12022020	202709	238.52	12.337050	-56.873075	238.53	-0.040	-0.430	0.450	238.50	-1.80	0.90	 	 	 	 	 	 	 	 	 	 	 	 	 	 	 	 	 	 	1581539229	9.84	18.22
12/02/2020 20:27:10	120220	12022020	202710	238.47	12.337028	-56.873115	238.49	-0.040	-0.230	0.610	238.47	-1.60	1.00	 	 	 	 	 	 	 	 	 	 	 	 	 	 	 	 	 	 	1581539230	9.76	18.08
12/02/2020 20:27:11	120220	12022020	202711	238.48	12.337010	-56.873157	238.50	-0.110	0.070	0.770	238.48	-1.30	1.20	 	 	 	 	 	 	 	 	 	 	 	 	 	 	 	 	 	 	1581539231	9.63	17.83
12/02/2020 20:27:12	120220	12022020	202712	238.48	12.336990	-56.873197	238.49	-0.140	0.430	0.900	238.47	-0.90	1.30	 	 	 	 	 	 	 	 	 	 	 	 	 	 	 	 	 	 	1581539232	9.47	17.54
12/02/2020 20:27:13	120220	12022020	202713	238.44	12.336972	-56.873237	238.45	-0.030	0.670	0.940	238.43	-0.70	1.30	 	 	 	 	 	 	 	 	 	 	 	 	 	 	 	 	 	 	1581539233	9.34	17.30
12/02/2020 20:27:14	120220	12022020	202714	238.43	12.336950	-56.873275	238.45	0.240	0.570	0.900	238.43	-0.80	1.30	 	 	 	 	 	 	 	 	 	 	 	 	 	 	 	 	 	 	1581539234	9.40	17.41
12/02/2020 20:27:15	120220	12022020	202715	238.42	12.336928	-56.873317	238.43	0.530	0.010	0.880	238.39	-1.40	1.30	 	 	 	 	 	 	 	 	 	 	 	 	 	 	 	 	 	 	1581539235	9.71	17.98
12/02/2020 20:27:16	120220	12022020	202716	238.22	12.336907	-56.873358	238.22	0.600	-0.670	1.010	238.16	-2.10	1.40	 	 	 	 	 	 	 	 	 	 	 	 	 	 	 	 	 	 	1581539236	9.95	18.43
12/02/2020 20:27:17	120220	12022020	202717	237.95	12.336887	-56.873398	237.95	0.390	-0.990	1.070	237.90	-2.40	1.50	 	 	 	 	 	 	 	 	 	 	 	 	 	 	 	 	 	 	1581539237	9.68	17.93
12/02/2020 20:27:18	120220	12022020	202718	237.81	12.336867	-56.873438	237.83	0.090	-1.050	0.870	237.81	-2.40	1.30	 	 	 	 	 	 	 	 	 	 	 	 	 	 	 	 	 	 	1581539238	9.31	17.24
12/02/2020 20:27:19	120220	12022020	202719	237.89	12.336847	-56.873477	237.93	-0.070	-1.280	0.440	237.93	-2.70	0.80	 	 	 	 	 	 	 	 	 	 	 	 	 	 	 	 	 	 	1581539239	9.52	17.63
12/02/2020 20:27:20	120220	12022020	202720	238.10	12.336823	-56.873518	238.15	-0.130	-1.600	0.070	238.14	-3.00	0.50	 	 	 	 	 	 	 	 	 	 	 	 	 	 	 	 	 	 	1581539240	10.01	18.54
12/02/2020 20:27:21	120220	12022020	202721	238.24	12.336800	-56.873560	238.28	-0.230	-1.530	0.120	238.25	-2.90	0.60	 	 	 	 	 	 	 	 	 	 	 	 	 	 	 	 	 	 	1581539241	10.11	18.72
12/02/2020 20:27:22	120220	12022020	202722	238.16	12.336780	-56.873602	238.16	-0.410	-0.850	0.680	238.12	-2.20	1.10	 	 	 	 	 	 	 	 	 	 	 	 	 	 	 	 	 	 	1581539242	9.83	18.21
12/02/2020 20:27:23	120220	12022020	202723	237.92	12.336762	-56.873643	237.92	-0.610	0.210	1.390	237.86	-1.10	1.80	 	 	 	 	 	 	 	 	 	 	 	 	 	 	 	 	 	 	1581539243	9.54	17.67
12/02/2020 20:27:24	120220	12022020	202724	237.62	12.336743	-56.873685	237.62	-0.660	1.130	1.890	237.57	-0.20	2.30	 	 	 	 	 	 	 	 	 	 	 	 	 	 	 	 	 	 	1581539244	9.51	17.61
12/02/2020 20:27:25	120220	12022020	202725	237.44	12.336725	-56.873727	237.42	-0.430	1.470	1.950	237.42	0.10	2.40	 	 	 	 	 	 	 	 	 	 	 	 	 	 	 	 	 	 	1581539245	9.75	18.06
12/02/2020 20:27:26	120220	12022020	202726	237.34	12.336702	-56.873768	237.35	-0.020	1.170	1.640	237.34	-0.20	2.00	 	 	 	 	 	 	 	 	 	 	 	 	 	 	 	 	 	 	1581539246	10.09	18.69
12/02/2020 20:27:27	120220	12022020	202727	237.45	12.336678	-56.873808	237.46	0.330	0.640	1.040	237.49	-0.80	1.40	 	 	 	 	 	 	 	 	 	 	 	 	 	 	 	 	 	 	1581539247	10.04	18.59
12/02/2020 20:27:28	120220	12022020	202728	237.69	12.336655	-56.873847	237.69	0.500	0.080	0.390	237.73	-1.30	0.80	 	 	 	 	 	 	 	 	 	 	 	 	 	 	 	 	 	 	1581539248	9.67	17.91
12/02/2020 20:27:29	120220	12022020	202729	237.89	12.336632	-56.873885	237.90	0.530	-0.530	0.030	237.92	-1.90	0.40	 	 	 	 	 	 	 	 	 	 	 	 	 	 	 	 	 	 	1581539249	9.47	17.54
12/02/2020 20:27:30	120220	12022020	202730	238.01	12.336610	-56.873925	238.03	0.470	-1.210	0.050	238.04	-2.60	0.50	 	 	 	 	 	 	 	 	 	 	 	 	 	 	 	 	 	 	1581539250	9.50	17.59
12/02/2020 20:27:31	120220	12022020	202731	238.17	12.336588	-56.873965	238.20	0.310	-1.860	0.300	238.20	-3.30	0.70	 	 	 	 	 	 	 	 	 	 	 	 	 	 	 	 	 	 	1581539251	9.66	17.89
12/02/2020 20:27:32	120220	12022020	202732	238.28	12.336568	-56.874007	238.31	0.110	-2.270	0.730	238.28	-3.60	1.20	 	 	 	 	 	 	 	 	 	 	 	 	 	 	 	 	 	 	1581539252	9.90	18.33
12/02/2020 20:27:33	120220	12022020	202733	238.20	12.336548	-56.874050	238.22	-0.100	-1.940	1.350	238.15	-3.30	1.80	 	 	 	 	 	 	 	 	 	 	 	 	 	 	 	 	 	 	1581539253	9.85	18.24
12/02/2020 20:27:34	120220	12022020	202734	237.90	12.336532	-56.874090	237.91	-0.390	-0.760	1.950	237.83	-2.00	2.40	 	 	 	 	 	 	 	 	 	 	 	 	 	 	 	 	 	 	1581539254	9.39	17.39
12/02/2020 20:27:35	120220	12022020	202735	237.55	12.336515	-56.874130	237.56	-0.700	0.640	2.120	237.49	-0.70	2.50	 	 	 	 	 	 	 	 	 	 	 	 	 	 	 	 	 	 	1581539255	9.08	16.82
12/02/2020 20:27:36	120220	12022020	202736	237.27	12.336495	-56.874168	237.25	-0.720	1.390	1.730	237.22	0.00	2.10	 	 	 	 	 	 	 	 	 	 	 	 	 	 	 	 	 	 	1581539256	9.41	17.43
12/02/2020 20:27:37	120220	12022020	202737	237.14	12.336470	-56.874210	237.14	-0.290	1.300	1.000	237.14	-0.10	1.40	 	 	 	 	 	 	 	 	 	 	 	 	 	 	 	 	 	 	1581539257	10.04	18.59
12/02/2020 20:27:38	120220	12022020	202738	237.17	12.336445	-56.874250	237.17	0.330	0.710	0.290	237.19	-0.70	0.70	 	 	 	 	 	 	 	 	 	 	 	 	 	 	 	 	 	 	1581539258	10.34	19.15
12/02/2020 20:27:39	120220	12022020	202739	237.25	12.336418	-56.874292	237.25	0.670	-0.080	0.030	237.25	-1.50	0.50	 	 	 	 	 	 	 	 	 	 	 	 	 	 	 	 	 	 	1581539259	10.26	19.00
12/02/2020 20:27:40	120220	12022020	202740	237.27	12.336397	-56.874333	237.28	0.540	-0.840	0.340	237.27	-2.20	0.80	 	 	 	 	 	 	 	 	 	 	 	 	 	 	 	 	 	 	1581539260	10.05	18.61
12/02/2020 20:27:41	120220	12022020	202741	237.23	12.336378	-56.874377	237.26	0.140	-1.340	1.020	237.22	-2.70	1.50	 	 	 	 	 	 	 	 	 	 	 	 	 	 	 	 	 	 	1581539261	9.90	18.33
12/02/2020 20:27:42	120220	12022020	202742	237.16	12.336362	-56.874418	237.20	-0.150	-1.320	1.660	237.16	-2.70	2.10	 	 	 	 	 	 	 	 	 	 	 	 	 	 	 	 	 	 	1581539262	9.69	17.95
12/02/2020 20:27:43	120220	12022020	202743	237.19	12.336343	-56.874458	237.23	-0.210	-0.720	1.900	237.22	-2.00	2.30	 	 	 	 	 	 	 	 	 	 	 	 	 	 	 	 	 	 	1581539263	9.29	17.21
12/02/2020 20:27:44	120220	12022020	202744	237.34	12.336323	-56.874497	237.39	-0.150	0.040	1.740	237.37	-1.30	2.10	 	 	 	 	 	 	 	 	 	 	 	 	 	 	 	 	 	 	1581539264	9.01	16.69
12/02/2020 20:27:45	120220	12022020	202745	237.42	12.336300	-56.874533	237.44	-0.100	0.410	1.470	237.42	-1.00	1.90	 	 	 	 	 	 	 	 	 	 	 	 	 	 	 	 	 	 	1581539265	9.28	17.19
12/02/2020 20:27:46	120220	12022020	202746	237.36	12.336277	-56.874573	237.39	-0.080	0.280	1.280	237.33	-1.10	1.70	 	 	 	 	 	 	 	 	 	 	 	 	 	 	 	 	 	 	1581539266	9.74	18.04
12/02/2020 20:27:47	120220	12022020	202747	237.22	12.336255	-56.874613	237.24	-0.040	-0.070	1.210	237.19	-1.50	1.60	 	 	 	 	 	 	 	 	 	 	 	 	 	 	 	 	 	 	1581539267	9.92	18.37
12/02/2020 20:27:48	120220	12022020	202748	237.05	12.336233	-56.874655	237.07	0.040	-0.430	1.210	237.01	-1.80	1.60	 	 	 	 	 	 	 	 	 	 	 	 	 	 	 	 	 	 	1581539268	9.83	18.21
12/02/2020 20:27:49	120220	12022020	202749	236.81	12.336212	-56.874695	236.81	0.150	-0.640	1.260	236.75	-2.00	1.70	 	 	 	 	 	 	 	 	 	 	 	 	 	 	 	 	 	 	1581539269	9.66	17.89
12/02/2020 20:27:50	120220	12022020	202750	236.52	12.336192	-56.874735	236.53	0.260	-0.710	1.270	236.47	-2.10	1.70	 	 	 	 	 	 	 	 	 	 	 	 	 	 	 	 	 	 	1581539270	9.53	17.65
12/02/2020 20:27:51	120220	12022020	202751	236.36	12.336170	-56.874775	236.38	0.320	-0.710	1.220	236.34	-2.10	1.60	 	 	 	 	 	 	 	 	 	 	 	 	 	 	 	 	 	 	1581539271	9.52	17.63
12/02/2020 20:27:52	120220	12022020	202752	236.32	12.336148	-56.874815	236.35	0.300	-0.660	1.220	236.31	-2.00	1.60	 	 	 	 	 	 	 	 	 	 	 	 	 	 	 	 	 	 	1581539272	9.64	17.85
12/02/2020 20:27:53	120220	12022020	202753	236.31	12.336127	-56.874855	236.35	0.150	-0.500	1.330	236.32	-1.90	1.80	 	 	 	 	 	 	 	 	 	 	 	 	 	 	 	 	 	 	1581539273	9.73	18.02
12/02/2020 20:27:54	120220	12022020	202754	236.37	12.336105	-56.874895	236.42	-0.100	-0.150	1.560	236.38	-1.50	2.00	 	 	 	 	 	 	 	 	 	 	 	 	 	 	 	 	 	 	1581539274	9.67	17.91
12/02/2020 20:27:55	120220	12022020	202755	236.45	12.336085	-56.874937	236.50	-0.350	0.210	1.690	236.48	-1.20	2.10	 	 	 	 	 	 	 	 	 	 	 	 	 	 	 	 	 	 	1581539275	9.55	17.69
12/02/2020 20:27:56	120220	12022020	202756	236.59	12.336065	-56.874977	236.64	-0.460	0.360	1.550	236.63	-1.00	1.90	 	 	 	 	 	 	 	 	 	 	 	 	 	 	 	 	 	 	1581539276	9.61	17.80
12/02/2020 20:27:57	120220	12022020	202757	236.78	12.336043	-56.875017	236.84	-0.370	0.270	1.110	236.83	-1.10	1.50	 	 	 	 	 	 	 	 	 	 	 	 	 	 	 	 	 	 	1581539277	9.68	17.93
12/02/2020 20:27:58	120220	12022020	202758	236.99	12.336018	-56.875055	237.04	-0.130	-0.040	0.600	237.03	-1.40	1.00	 	 	 	 	 	 	 	 	 	 	 	 	 	 	 	 	 	 	1581539278	9.71	17.98
12/02/2020 20:27:59	120220	12022020	202759	237.16	12.335995	-56.875093	237.21	0.120	-0.490	0.200	237.20	-1.90	0.60	 	 	 	 	 	 	 	 	 	 	 	 	 	 	 	 	 	 	1581539279	9.78	18.11
12/02/2020 20:28:00	120220	12022020	202800	237.30	12.335970	-56.875133	237.34	0.230	-0.820	0.020	237.31	-2.20	0.50	 	 	 	 	 	 	 	 	 	 	 	 	 	 	 	 	 	 	1581539280	9.75	18.06
12/02/2020 20:28:01	120220	12022020	202801	237.30	12.335948	-56.875172	237.31	0.160	-0.810	0.240	237.27	-2.20	0.70	 	 	 	 	 	 	 	 	 	 	 	 	 	 	 	 	 	 	1581539281	9.55	17.69
12/02/2020 20:28:02	120220	12022020	202802	237.10	12.335928	-56.875212	237.12	-0.040	-0.460	0.700	237.05	-1.80	1.10	1014.60	26.60	26.70	20.60	20.60	273.0	69.0	69.0	392.0	28.8	222.00	5.30	79.00	9.60	17033	8797.0	27.5	27.5	1581539282	9.30	17.22
12/02/2020 20:28:03	120220	12022020	202803	236.92	12.335910	-56.875250	236.94	-0.240	-0.060	1.050	236.89	-1.40	1.50	 	 	 	 	 	 	 	 	 	 	 	 	 	 	 	 	 	 	1581539283	9.21	17.06
12/02/2020 20:28:04	120220	12022020	202804	236.83	12.335890	-56.875290	236.85	-0.220	0.020	1.120	236.82	-1.40	1.50	 	 	 	 	 	 	 	 	 	 	 	 	 	 	 	 	 	 	1581539284	9.45	17.50
12/02/2020 20:28:05	120220	12022020	202805	236.80	12.335868	-56.875330	236.82	0.060	-0.200	1.020	236.78	-1.60	1.40	 	 	 	 	 	 	 	 	 	 	 	 	 	 	 	 	 	 	1581539285	9.78	18.11
12/02/2020 20:28:06	120220	12022020	202806	236.65	12.335845	-56.875372	236.66	0.410	-0.540	1.040	236.59	-1.90	1.50	 	 	 	 	 	 	 	 	 	 	 	 	 	 	 	 	 	 	1581539286	9.96	18.45
12/02/2020 20:28:07	120220	12022020	202807	236.28	12.335822	-56.875413	236.29	0.530	-0.830	1.350	236.19	-2.20	1.80	 	 	 	 	 	 	 	 	 	 	 	 	 	 	 	 	 	 	1581539287	10.04	18.59
12/02/2020 20:28:08	120220	12022020	202808	235.86	12.335802	-56.875455	235.90	0.310	-0.810	1.720	235.79	-2.20	2.10	 	 	 	 	 	 	 	 	 	 	 	 	 	 	 	 	 	 	1581539288	9.99	18.50
12/02/2020 20:28:09	120220	12022020	202809	235.71	12.335782	-56.875497	235.81	-0.150	-0.300	1.760	235.75	-1.60	2.20	 	 	 	 	 	 	 	 	 	 	 	 	 	 	 	 	 	 	1581539289	9.61	17.80
12/02/2020 20:28:10	120220	12022020	202810	236.10	12.335762	-56.875535	236.22	-0.570	0.440	1.310	236.22	-0.90	1.70	 	 	 	 	 	 	 	 	 	 	 	 	 	 	 	 	 	 	1581539290	9.14	16.93
12/02/2020 20:28:11	120220	12022020	202811	236.77	12.335740	-56.875572	236.89	-0.650	0.760	0.710	236.91	-0.60	1.10	 	 	 	 	 	 	 	 	 	 	 	 	 	 	 	 	 	 	1581539291	9.14	16.93
12/02/2020 20:28:12	120220	12022020	202812	237.33	12.335718	-56.875612	237.40	-0.350	0.330	0.420	237.40	-1.10	0.80	 	 	 	 	 	 	 	 	 	 	 	 	 	 	 	 	 	 	1581539292	9.73	18.02
12/02/2020 20:28:13	120220	12022020	202813	237.54	12.335695	-56.875653	237.58	0.120	-0.410	0.480	237.55	-1.80	0.90	 	 	 	 	 	 	 	 	 	 	 	 	 	 	 	 	 	 	1581539293	10.17	18.83
12/02/2020 20:28:14	120220	12022020	202814	237.51	12.335673	-56.875695	237.53	0.460	-0.800	0.660	237.48	-2.20	1.10	 	 	 	 	 	 	 	 	 	 	 	 	 	 	 	 	 	 	1581539294	9.91	18.35
12/02/2020 20:28:15	120220	12022020	202815	237.32	12.335652	-56.875733	237.32	0.520	-0.690	0.840	237.27	-2.00	1.30	 	 	 	 	 	 	 	 	 	 	 	 	 	 	 	 	 	 	1581539295	9.30	17.22
12/02/2020 20:28:16	120220	12022020	202816	237.09	12.335630	-56.875770	237.08	0.380	-0.510	0.880	237.04	-1.90	1.30	 	 	 	 	 	 	 	 	 	 	 	 	 	 	 	 	 	 	1581539296	9.10	16.85
12/02/2020 20:28:17	120220	12022020	202817	236.86	12.335607	-56.875808	236.87	0.170	-0.610	0.860	236.82	-2.00	1.30	 	 	 	 	 	 	 	 	 	 	 	 	 	 	 	 	 	 	1581539297	9.46	17.52
12/02/2020 20:28:18	120220	12022020	202818	236.64	12.335583	-56.875850	236.65	-0.080	-0.900	1.070	236.59	-2.30	1.50	 	 	 	 	 	 	 	 	 	 	 	 	 	 	 	 	 	 	1581539298	10.00	18.52
12/02/2020 20:28:19	120220	12022020	202819	236.44	12.335563	-56.875892	236.48	-0.360	-0.810	1.450	236.41	-2.20	1.90	 	 	 	 	 	 	 	 	 	 	 	 	 	 	 	 	 	 	1581539299	10.08	18.67
12/02/2020 20:28:20	120220	12022020	202820	236.39	12.335545	-56.875933	236.47	-0.530	-0.090	1.710	236.42	-1.40	2.10	 	 	 	 	 	 	 	 	 	 	 	 	 	 	 	 	 	 	1581539300	9.56	17.71
12/02/2020 20:28:21	120220	12022020	202821	236.61	12.335528	-56.875973	236.69	-0.420	0.680	1.520	236.67	-0.70	1.90	 	 	 	 	 	 	 	 	 	 	 	 	 	 	 	 	 	 	1581539301	9.11	16.87
12/02/2020 20:28:22	120220	12022020	202822	236.89	12.335507	-56.876012	236.94	-0.060	0.640	1.050	236.94	-0.80	1.40	 	 	 	 	 	 	 	 	 	 	 	 	 	 	 	 	 	 	1581539302	9.48	17.56
12/02/2020 20:28:23	120220	12022020	202823	237.07	12.335482	-56.876053	237.11	0.290	-0.140	0.670	237.10	-1.60	1.10	 	 	 	 	 	 	 	 	 	 	 	 	 	 	 	 	 	 	1581539303	10.25	18.98
12/02/2020 20:28:24	120220	12022020	202824	237.12	12.335457	-56.876095	237.16	0.370	-0.810	0.470	237.11	-2.20	0.90	 	 	 	 	 	 	 	 	 	 	 	 	 	 	 	 	 	 	1581539304	10.33	19.13
12/02/2020 20:28:25	120220	12022020	202825	236.99	12.335435	-56.876135	237.01	0.190	-0.790	0.480	236.95	-2.10	0.90	 	 	 	 	 	 	 	 	 	 	 	 	 	 	 	 	 	 	1581539305	9.65	17.87
12/02/2020 20:28:26	120220	12022020	202826	236.82	12.335415	-56.876172	236.84	-0.050	-0.280	0.590	236.80	-1.60	1.00	 	 	 	 	 	 	 	 	 	 	 	 	 	 	 	 	 	 	1581539306	9.00	16.67
12/02/2020 20:28:27	120220	12022020	202827	236.76	12.335395	-56.876210	236.76	-0.100	0.020	0.720	236.74	-1.40	1.20	 	 	 	 	 	 	 	 	 	 	 	 	 	 	 	 	 	 	1581539307	8.98	16.63
12/02/2020 20:28:28	120220	12022020	202828	236.56	12.335373	-56.876250	236.59	0.070	-0.230	1.050	236.52	-1.60	1.50	 	 	 	 	 	 	 	 	 	 	 	 	 	 	 	 	 	 	1581539308	9.64	17.85
12/02/2020 20:28:29	120220	12022020	202829	236.37	12.335352	-56.876293	236.42	0.200	-0.620	1.430	236.35	-2.00	1.90	 	 	 	 	 	 	 	 	 	 	 	 	 	 	 	 	 	 	1581539309	10.14	18.78
12/02/2020 20:28:30	120220	12022020	202830	236.37	12.335332	-56.876335	236.45	0.110	-0.610	1.690	236.38	-2.00	2.10	 	 	 	 	 	 	 	 	 	 	 	 	 	 	 	 	 	 	1581539310	9.92	18.37
12/02/2020 20:28:31	120220	12022020	202831	236.54	12.335313	-56.876375	236.62	-0.130	-0.220	1.660	236.59	-1.60	2.10	 	 	 	 	 	 	 	 	 	 	 	 	 	 	 	 	 	 	1581539311	9.45	17.50
12/02/2020 20:28:32	120220	12022020	202832	236.83	12.335292	-56.876413	236.93	-0.270	0.240	1.200	236.91	-1.10	1.60	 	 	 	 	 	 	 	 	 	 	 	 	 	 	 	 	 	 	1581539312	9.15	16.95
12/02/2020 20:28:33	120220	12022020	202833	237.14	12.335268	-56.876450	237.20	-0.160	0.450	0.580	237.19	-0.90	1.00	 	 	 	 	 	 	 	 	 	 	 	 	 	 	 	 	 	 	1581539313	9.18	17.00
12/02/2020 20:28:34	120220	12022020	202834	237.23	12.335245	-56.876487	237.25	0.120	0.190	0.230	237.21	-1.20	0.70	 	 	 	 	 	 	 	 	 	 	 	 	 	 	 	 	 	 	1581539314	9.47	17.54
12/02/2020 20:28:35	120220	12022020	202835	236.93	12.335220	-56.876527	236.91	0.360	-0.500	0.450	236.82	-1.90	0.90	 	 	 	 	 	 	 	 	 	 	 	 	 	 	 	 	 	 	1581539315	9.83	18.21
12/02/2020 20:28:36	120220	12022020	202836	236.23	12.335198	-56.876568	236.20	0.440	-1.300	1.120	236.06	-2.70	1.60	 	 	 	 	 	 	 	 	 	 	 	 	 	 	 	 	 	 	1581539316	10.10	18.71
12/02/2020 20:28:37	120220	12022020	202837	235.41	12.335178	-56.876612	235.40	0.310	-1.660	1.860	235.27	-3.00	2.30	 	 	 	 	 	 	 	 	 	 	 	 	 	 	 	 	 	 	1581539317	10.10	18.71
12/02/2020 20:28:38	120220	12022020	202838	234.91	12.335158	-56.876653	234.97	0.020	-1.240	2.180	234.87	-2.60	2.60	 	 	 	 	 	 	 	 	 	 	 	 	 	 	 	 	 	 	1581539318	9.65	17.87
12/02/2020 20:28:39	120220	12022020	202839	234.99	12.335142	-56.876692	235.09	-0.280	-0.240	2.010	235.06	-1.60	2.40	 	 	 	 	 	 	 	 	 	 	 	 	 	 	 	 	 	 	1581539319	9.10	16.85
12/02/2020 20:28:40	120220	12022020	202840	235.44	12.335122	-56.876730	235.55	-0.450	0.620	1.620	235.54	-0.70	2.00	 	 	 	 	 	 	 	 	 	 	 	 	 	 	 	 	 	 	1581539320	9.01	16.69
12/02/2020 20:28:41	120220	12022020	202841	235.94	12.335100	-56.876768	236.04	-0.430	0.850	1.240	236.03	-0.50	1.60	 	 	 	 	 	 	 	 	 	 	 	 	 	 	 	 	 	 	1581539321	9.49	17.58
12/02/2020 20:28:42	120220	12022020	202842	236.25	12.335075	-56.876808	236.31	-0.280	0.600	1.020	236.27	-0.80	1.40	 	 	 	 	 	 	 	 	 	 	 	 	 	 	 	 	 	 	1581539322	9.90	18.33
12/02/2020 20:28:43	120220	12022020	202843	236.26	12.335050	-56.876848	236.30	-0.080	0.190	0.970	236.25	-1.20	1.40	 	 	 	 	 	 	 	 	 	 	 	 	 	 	 	 	 	 	1581539323	9.94	18.41
12/02/2020 20:28:44	120220	12022020	202844	236.18	12.335025	-56.876887	236.23	0.060	-0.190	0.950	236.17	-1.60	1.40	 	 	 	 	 	 	 	 	 	 	 	 	 	 	 	 	 	 	1581539324	9.67	17.91
12/02/2020 20:28:45	120220	12022020	202845	236.16	12.335003	-56.876923	236.22	0.170	-0.510	0.850	236.17	-1.90	1.30	 	 	 	 	 	 	 	 	 	 	 	 	 	 	 	 	 	 	1581539325	9.40	17.41
12/02/2020 20:28:46	120220	12022020	202846	236.15	12.334980	-56.876962	236.18	0.330	-0.810	0.750	236.14	-2.20	1.20	 	 	 	 	 	 	 	 	 	 	 	 	 	 	 	 	 	 	1581539326	9.31	17.24
12/02/2020 20:28:47	120220	12022020	202847	236.05	12.334958	-56.876998	236.07	0.450	-0.990	0.890	236.02	-2.40	1.30	 	 	 	 	 	 	 	 	 	 	 	 	 	 	 	 	 	 	1581539327	9.32	17.26
12/02/2020 20:28:48	120220	12022020	202848	235.87	12.334937	-56.877038	235.90	0.410	-0.920	1.210	235.83	-2.30	1.70	 	 	 	 	 	 	 	 	 	 	 	 	 	 	 	 	 	 	1581539328	9.33	17.28
12/02/2020 20:28:49	120220	12022020	202849	235.72	12.334917	-56.877077	235.78	0.170	-0.510	1.520	235.70	-1.90	1.90	 	 	 	 	 	 	 	 	 	 	 	 	 	 	 	 	 	 	1581539329	9.21	17.06
12/02/2020 20:28:50	120220	12022020	202850	235.74	12.334898	-56.877115	235.82	-0.130	-0.030	1.510	235.77	-1.40	1.90	 	 	 	 	 	 	 	 	 	 	 	 	 	 	 	 	 	 	1581539330	9.12	16.89
12/02/2020 20:28:51	120220	12022020	202851	235.95	12.334877	-56.877153	236.04	-0.280	0.180	1.080	236.02	-1.20	1.50	 	 	 	 	 	 	 	 	 	 	 	 	 	 	 	 	 	 	1581539331	9.28	17.19
12/02/2020 20:28:52	120220	12022020	202852	236.31	12.334852	-56.877192	236.39	-0.230	0.060	0.440	236.39	-1.30	0.80	 	 	 	 	 	 	 	 	 	 	 	 	 	 	 	 	 	 	1581539332	9.61	17.80
12/02/2020 20:28:53	120220	12022020	202853	236.72	12.334827	-56.877230	236.79	-0.090	-0.190	-0.140	236.81	-1.60	0.30	 	 	 	 	 	 	 	 	 	 	 	 	 	 	 	 	 	 	1581539333	9.80	18.15
12/02/2020 20:28:54	120220	12022020	202854	237.16	12.334802	-56.877268	237.22	-0.020	-0.420	-0.390	237.23	-1.80	0.00	 	 	 	 	 	 	 	 	 	 	 	 	 	 	 	 	 	 	1581539334	9.76	18.08
12/02/2020 20:28:55	120220	12022020	202855	237.43	12.334780	-56.877308	237.47	-0.060	-0.570	-0.150	237.45	-1.90	0.30	 	 	 	 	 	 	 	 	 	 	 	 	 	 	 	 	 	 	1581539335	9.65	17.87
12/02/2020 20:28:56	120220	12022020	202856	237.38	12.334758	-56.877348	237.39	-0.100	-0.620	0.460	237.33	-2.00	0.90	 	 	 	 	 	 	 	 	 	 	 	 	 	 	 	 	 	 	1581539336	9.60	17.78
12/02/2020 20:28:57	120220	12022020	202857	237.03	12.334740	-56.877388	237.03	-0.100	-0.520	1.250	236.95	-1.90	1.70	 	 	 	 	 	 	 	 	 	 	 	 	 	 	 	 	 	 	1581539337	9.55	17.69
12/02/2020 20:28:58	120220	12022020	202858	236.61	12.334722	-56.877430	236.63	-0.120	-0.240	1.860	236.54	-1.60	2.30	 	 	 	 	 	 	 	 	 	 	 	 	 	 	 	 	 	 	1581539338	9.43	17.46
12/02/2020 20:28:59	120220	12022020	202859	236.29	12.334705	-56.877470	236.31	-0.130	0.090	2.050	236.23	-1.30	2.50	 	 	 	 	 	 	 	 	 	 	 	 	 	 	 	 	 	 	1581539339	9.25	17.13
12/02/2020 20:29:00	120220	12022020	202900	236.03	12.334683	-56.877508	236.04	-0.080	0.190	1.920	235.98	-1.20	2.30	 	 	 	 	 	 	 	 	 	 	 	 	 	 	 	 	 	 	1581539340	9.30	17.22
12/02/2020 20:29:01	120220	12022020	202901	235.83	12.334662	-56.877547	235.86	0.070	0.010	1.580	235.82	-1.40	2.00	 	 	 	 	 	 	 	 	 	 	 	 	 	 	 	 	 	 	1581539341	9.52	17.63
12/02/2020 20:29:02	120220	12022020	202902	235.90	12.334637	-56.877585	235.96	0.220	-0.240	1.000	235.97	-1.60	1.40	1014.60	26.50	26.60	20.60	20.70	270.0	70.0	70.0	392.0	28.7	221.00	5.50	78.00	9.70	15919	9620.0	27.5	27.5	1581539342	9.60	17.78
12/02/2020 20:29:03	120220	12022020	202903	236.23	12.334612	-56.877622	236.43	0.280	-0.360	0.270	236.34	-1.70	0.70	 	 	 	 	 	 	 	 	 	 	 	 	 	 	 	 	 	 	1581539343	9.48	17.56
12/02/2020 20:29:04	120220	12022020	202904	236.95	12.334588	-56.877658	237.04	0.250	-0.380	-0.200	237.07	-1.80	0.20	 	 	 	 	 	 	 	 	 	 	 	 	 	 	 	 	 	 	1581539344	9.32	17.26
12/02/2020 20:29:05	120220	12022020	202905	237.34	12.334567	-56.877697	237.46	0.170	-0.450	-0.060	237.41	-1.80	0.40	 	 	 	 	 	 	 	 	 	 	 	 	 	 	 	 	 	 	1581539345	9.35	17.32
12/02/2020 20:29:06	120220	12022020	202906	237.53	12.334547	-56.877738	237.56	0.060	-0.600	0.580	237.50	-2.00	1.00	 	 	 	 	 	 	 	 	 	 	 	 	 	 	 	 	 	 	1581539346	9.55	17.69
12/02/2020 20:29:07	120220	12022020	202907	237.29	12.334527	-56.877778	237.32	-0.080	-0.680	1.330	237.22	-2.00	1.80	 	 	 	 	 	 	 	 	 	 	 	 	 	 	 	 	 	 	1581539347	9.65	17.87
12/02/2020 20:29:08	120220	12022020	202908	236.92	12.334508	-56.877820	236.96	-0.210	-0.590	1.730	236.86	-2.00	2.10	 	 	 	 	 	 	 	 	 	 	 	 	 	 	 	 	 	 	1581539348	9.52	17.63
12/02/2020 20:29:09	120220	12022020	202909	236.58	12.334487	-56.877858	236.61	-0.280	-0.490	1.700	236.52	-1.90	2.10	 	 	 	 	 	 	 	 	 	 	 	 	 	 	 	 	 	 	1581539349	9.44	17.48
12/02/2020 20:29:10	120220	12022020	202910	236.25	12.334463	-56.877898	236.27	-0.270	-0.550	1.550	236.17	-1.90	2.00	 	 	 	 	 	 	 	 	 	 	 	 	 	 	 	 	 	 	1581539350	9.64	17.85
12/02/2020 20:29:11	120220	12022020	202911	235.89	12.334442	-56.877938	235.92	-0.230	-0.570	1.500	235.82	-1.90	1.90	 	 	 	 	 	 	 	 	 	 	 	 	 	 	 	 	 	 	1581539351	9.84	18.22
12/02/2020 20:29:12	120220	12022020	202912	235.64	12.334420	-56.877978	235.69	-0.220	-0.200	1.490	235.61	-1.50	1.90	 	 	 	 	 	 	 	 	 	 	 	 	 	 	 	 	 	 	1581539352	9.62	17.82
12/02/2020 20:29:13	120220	12022020	202913	235.64	12.334398	-56.878015	235.72	-0.270	0.480	1.350	235.69	-0.90	1.80	 	 	 	 	 	 	 	 	 	 	 	 	 	 	 	 	 	 	1581539353	9.15	16.95
12/02/2020 20:29:14	120220	12022020	202914	235.95	12.334378	-56.878053	236.05	-0.250	0.920	1.050	236.05	-0.40	1.40	 	 	 	 	 	 	 	 	 	 	 	 	 	 	 	 	 	 	1581539354	9.02	16.71
12/02/2020 20:29:15	120220	12022020	202915	236.46	12.334357	-56.878092	236.56	0.020	0.800	0.660	236.57	-0.60	1.00	 	 	 	 	 	 	 	 	 	 	 	 	 	 	 	 	 	 	1581539355	9.29	17.21
12/02/2020 20:29:16	120220	12022020	202916	236.98	12.334333	-56.878130	237.05	0.480	0.230	0.260	237.07	-1.20	0.70	 	 	 	 	 	 	 	 	 	 	 	 	 	 	 	 	 	 	1581539356	9.58	17.74
12/02/2020 20:29:17	120220	12022020	202917	237.30	12.334308	-56.878168	237.38	0.870	-0.550	0.100	237.34	-2.00	0.50	 	 	 	 	 	 	 	 	 	 	 	 	 	 	 	 	 	 	1581539357	9.71	17.98
12/02/2020 20:29:18	120220	12022020	202918	237.54	12.334287	-56.878208	237.57	0.870	-1.220	0.300	237.57	-2.60	0.70	 	 	 	 	 	 	 	 	 	 	 	 	 	 	 	 	 	 	1581539358	9.69	17.95
12/02/2020 20:29:19	120220	12022020	202919	237.60	12.334265	-56.878248	237.62	0.410	-1.540	0.740	237.60	-2.90	1.20	 	 	 	 	 	 	 	 	 	 	 	 	 	 	 	 	 	 	1581539359	9.51	17.61
12/02/2020 20:29:20	120220	12022020	202920	237.47	12.334247	-56.878288	237.48	-0.220	-1.470	1.250	237.43	-2.80	1.70	 	 	 	 	 	 	 	 	 	 	 	 	 	 	 	 	 	 	1581539360	9.37	17.35
12/02/2020 20:29:21	120220	12022020	202921	237.18	12.334228	-56.878328	237.19	-0.630	-1.040	1.710	237.11	-2.40	2.10	 	 	 	 	 	 	 	 	 	 	 	 	 	 	 	 	 	 	1581539361	9.35	17.32
12/02/2020 20:29:22	120220	12022020	202922	236.87	12.334208	-56.878367	236.89	-0.710	-0.350	1.960	236.81	-1.70	2.40	 	 	 	 	 	 	 	 	 	 	 	 	 	 	 	 	 	 	1581539362	9.29	17.21
12/02/2020 20:29:23	120220	12022020	202923	236.61	12.334188	-56.878405	236.64	-0.580	0.280	1.880	236.57	-1.10	2.30	 	 	 	 	 	 	 	 	 	 	 	 	 	 	 	 	 	 	1581539363	9.30	17.22
12/02/2020 20:29:24	120220	12022020	202924	236.49	12.334165	-56.878443	236.52	-0.400	0.490	1.520	236.50	-0.90	1.90	 	 	 	 	 	 	 	 	 	 	 	 	 	 	 	 	 	 	1581539364	9.56	17.71
12/02/2020 20:29:25	120220	12022020	202925	236.62	12.334140	-56.878483	236.67	-0.250	0.240	0.960	236.67	-1.20	1.30	 	 	 	 	 	 	 	 	 	 	 	 	 	 	 	 	 	 	1581539365	9.92	18.37
12/02/2020 20:29:26	120220	12022020	202926	236.93	12.334113	-56.878523	236.99	-0.130	-0.130	0.440	237.00	-1.50	0.80	 	 	 	 	 	 	 	 	 	 	 	 	 	 	 	 	 	 	1581539366	10.01	18.54
12/02/2020 20:29:27	120220	12022020	202927	237.24	12.334090	-56.878562	237.29	-0.010	-0.350	0.230	237.29	-1.70	0.70	 	 	 	 	 	 	 	 	 	 	 	 	 	 	 	 	 	 	1581539367	9.79	18.13
12/02/2020 20:29:28	120220	12022020	202928	237.41	12.334068	-56.878602	237.45	0.120	-0.330	0.410	237.42	-1.70	0.80	 	 	 	 	 	 	 	 	 	 	 	 	 	 	 	 	 	 	1581539368	9.50	17.59
12/02/2020 20:29:29	120220	12022020	202929	237.47	12.334050	-56.878642	237.50	0.250	-0.180	0.770	237.48	-1.50	1.20	 	 	 	 	 	 	 	 	 	 	 	 	 	 	 	 	 	 	1581539369	9.40	17.41
12/02/2020 20:29:30	120220	12022020	202930	237.56	12.334033	-56.878682	237.59	0.300	0.070	1.020	237.58	-1.30	1.40	 	 	 	 	 	 	 	 	 	 	 	 	 	 	 	 	 	 	1581539370	9.29	17.21
12/02/2020 20:29:31	120220	12022020	202931	237.62	12.334015	-56.878722	237.65	0.290	0.180	1.060	237.62	-1.20	1.50	 	 	 	 	 	 	 	 	 	 	 	 	 	 	 	 	 	 	1581539371	9.21	17.06
12/02/2020 20:29:32	120220	12022020	202932	237.56	12.333993	-56.878760	237.58	0.280	-0.070	0.940	237.54	-1.50	1.30	 	 	 	 	 	 	 	 	 	 	 	 	 	 	 	 	 	 	1581539372	9.43	17.46
12/02/2020 20:29:33	120220	12022020	202933	237.45	12.333970	-56.878800	237.48	0.240	-0.510	0.710	237.44	-1.90	1.10	 	 	 	 	 	 	 	 	 	 	 	 	 	 	 	 	 	 	1581539373	9.69	17.95
12/02/2020 20:29:34	120220	12022020	202934	237.44	12.333947	-56.878838	237.47	0.070	-0.800	0.430	237.45	-2.20	0.80	 	 	 	 	 	 	 	 	 	 	 	 	 	 	 	 	 	 	1581539374	9.65	17.87
12/02/2020 20:29:35	120220	12022020	202935	237.52	12.333923	-56.878875	237.55	-0.140	-0.770	0.190	237.54	-2.10	0.60	 	 	 	 	 	 	 	 	 	 	 	 	 	 	 	 	 	 	1581539375	9.37	17.35
12/02/2020 20:29:36	120220	12022020	202936	237.62	12.333900	-56.878913	237.64	-0.250	-0.610	0.040	237.64	-2.00	0.50	 	 	 	 	 	 	 	 	 	 	 	 	 	 	 	 	 	 	1581539376	9.19	17.02
12/02/2020 20:29:37	120220	12022020	202937	237.70	12.333878	-56.878952	237.72	-0.120	-0.650	0.190	237.70	-2.00	0.60	 	 	 	 	 	 	 	 	 	 	 	 	 	 	 	 	 	 	1581539377	9.43	17.46
12/02/2020 20:29:38	120220	12022020	202938	237.70	12.333857	-56.878993	237.72	0.110	-0.860	0.650	237.69	-2.20	1.10	 	 	 	 	 	 	 	 	 	 	 	 	 	 	 	 	 	 	1581539378	9.87	18.28
12/02/2020 20:29:39	120220	12022020	202939	237.64	12.333837	-56.879035	237.66	0.190	-0.850	1.140	237.61	-2.20	1.60	 	 	 	 	 	 	 	 	 	 	 	 	 	 	 	 	 	 	1581539379	10.00	18.52
12/02/2020 20:29:40	120220	12022020	202940	237.49	12.333818	-56.879078	237.49	0.040	-0.470	1.560	237.44	-1.80	2.00	 	 	 	 	 	 	 	 	 	 	 	 	 	 	 	 	 	 	1581539380	9.78	18.11
12/02/2020 20:29:41	120220	12022020	202941	237.27	12.333800	-56.879118	237.19	-0.210	0.110	1.960	237.20	-1.20	2.40	 	 	 	 	 	 	 	 	 	 	 	 	 	 	 	 	 	 	1581539381	9.56	17.71
12/02/2020 20:29:42	120220	12022020	202942	236.77	12.333783	-56.879160	236.77	-0.340	0.480	2.230	236.69	-0.90	2.60	 	 	 	 	 	 	 	 	 	 	 	 	 	 	 	 	 	 	1581539382	9.64	17.85
12/02/2020 20:29:43	120220	12022020	202943	236.38	12.333762	-56.879202	236.39	-0.270	0.560	2.130	236.33	-0.80	2.50	 	 	 	 	 	 	 	 	 	 	 	 	 	 	 	 	 	 	1581539383	9.85	18.24
12/02/2020 20:29:44	120220	12022020	202944	236.31	12.333738	-56.879242	236.34	-0.090	0.520	1.520	236.34	-0.90	1.90	 	 	 	 	 	 	 	 	 	 	 	 	 	 	 	 	 	 	1581539384	9.78	18.11
12/02/2020 20:29:45	120220	12022020	202945	236.64	12.333713	-56.879280	236.69	0.030	0.380	0.590	236.74	-1.00	1.00	 	 	 	 	 	 	 	 	 	 	 	 	 	 	 	 	 	 	1581539385	9.52	17.63
12/02/2020 20:29:46	120220	12022020	202946	237.23	12.333688	-56.879315	237.27	0.080	-0.020	-0.130	237.36	-1.40	0.30	 	 	 	 	 	 	 	 	 	 	 	 	 	 	 	 	 	 	1581539386	9.44	17.48
12/02/2020 20:29:47	120220	12022020	202947	237.81	12.333663	-56.879353	237.84	0.160	-0.650	-0.290	237.90	-2.10	0.10	 	 	 	 	 	 	 	 	 	 	 	 	 	 	 	 	 	 	1581539387	9.58	17.74
12/02/2020 20:29:48	120220	12022020	202948	238.21	12.333642	-56.879393	238.25	0.310	-1.170	0.070	238.26	-2.60	0.50	 	 	 	 	 	 	 	 	 	 	 	 	 	 	 	 	 	 	1581539388	9.60	17.78
12/02/2020 20:29:49	120220	12022020	202949	238.34	12.333622	-56.879433	238.37	0.400	-1.390	0.730	238.33	-2.80	1.20	 	 	 	 	 	 	 	 	 	 	 	 	 	 	 	 	 	 	1581539389	9.48	17.56
12/02/2020 20:29:50	120220	12022020	202950	238.11	12.333603	-56.879473	238.11	0.360	-1.330	1.550	238.02	-2.70	2.00	 	 	 	 	 	 	 	 	 	 	 	 	 	 	 	 	 	 	1581539390	9.45	17.50
12/02/2020 20:29:51	120220	12022020	202951	237.56	12.333585	-56.879515	237.55	0.200	-1.130	2.260	237.43	-2.50	2.70	 	 	 	 	 	 	 	 	 	 	 	 	 	 	 	 	 	 	1581539391	9.65	17.87
12/02/2020 20:29:52	120220	12022020	202952	236.93	12.333567	-56.879558	236.93	-0.050	-0.790	2.580	236.81	-2.10	3.00	 	 	 	 	 	 	 	 	 	 	 	 	 	 	 	 	 	 	1581539392	9.86	18.26
12/02/2020 20:29:53	120220	12022020	202953	236.51	12.333545	-56.879600	236.56	-0.310	-0.260	2.380	236.48	-1.60	2.80	 	 	 	 	 	 	 	 	 	 	 	 	 	 	 	 	 	 	1581539393	9.87	18.28
12/02/2020 20:29:54	120220	12022020	202954	236.50	12.333523	-56.879640	236.55	-0.520	0.460	1.770	236.53	-0.90	2.10	 	 	 	 	 	 	 	 	 	 	 	 	 	 	 	 	 	 	1581539394	9.65	17.87
12/02/2020 20:29:55	120220	12022020	202955	236.69	12.333502	-56.879678	236.75	-0.560	1.090	1.060	236.75	-0.30	1.40	 	 	 	 	 	 	 	 	 	 	 	 	 	 	 	 	 	 	1581539395	9.40	17.41
12/02/2020 20:29:56	120220	12022020	202956	236.98	12.333477	-56.879715	237.03	-0.390	1.240	0.530	237.04	-0.20	0.90	 	 	 	 	 	 	 	 	 	 	 	 	 	 	 	 	 	 	1581539396	9.46	17.52
12/02/2020 20:29:57	120220	12022020	202957	237.24	12.333453	-56.879755	237.29	-0.090	0.750	0.420	237.28	-0.70	0.80	 	 	 	 	 	 	 	 	 	 	 	 	 	 	 	 	 	 	1581539397	9.76	18.08
12/02/2020 20:29:58	120220	12022020	202958	237.44	12.333432	-56.879797	237.49	0.200	-0.140	0.570	237.48	-1.60	1.00	 	 	 	 	 	 	 	 	 	 	 	 	 	 	 	 	 	 	1581539398	10.03	18.58
12/02/2020 20:29:59	120220	12022020	202959	237.71	12.333410	-56.879838	237.77	0.370	-0.900	0.640	237.77	-2.30	1.10	 	 	 	 	 	 	 	 	 	 	 	 	 	 	 	 	 	 	1581539399	9.93	18.39
12/02/2020 20:30:00	120220	12022020	203000	238.09	12.333388	-56.879877	238.15	0.380	-1.190	0.520	238.16	-2.60	0.90	 	 	 	 	 	 	 	 	 	 	 	 	 	 	 	 	 	 	1581539400	9.44	17.48
12/02/2020 20:30:01	120220	12022020	203001	238.39	12.333368	-56.879915	238.44	0.310	-1.220	0.370	238.43	-2.60	0.80	 	 	 	 	 	 	 	 	 	 	 	 	 	 	 	 	 	 	1581539401	9.18	17.00
12/02/2020 20:30:02	120220	12022020	203002	238.43	12.333347	-56.879953	238.47	0.240	-1.210	0.460	238.40	-2.60	0.90	1014.60	26.50	26.50	20.50	20.60	261.0	69.0	70.0	392.0	28.7	217.00	5.40	76.00	9.80	15520	8810.0	27.5	27.5	1581539402	9.34	17.30
12/02/2020 20:30:03	120220	12022020	203003	238.14	12.333325	-56.879993	238.14	0.140	-1.050	0.860	238.04	-2.40	1.30	 	 	 	 	 	 	 	 	 	 	 	 	 	 	 	 	 	 	1581539403	9.56	17.71
12/02/2020 20:30:04	120220	12022020	203004	237.65	12.333305	-56.880033	237.65	-0.010	-0.600	1.220	237.56	-1.90	1.60	 	 	 	 	 	 	 	 	 	 	 	 	 	 	 	 	 	 	1581539404	9.57	17.72
12/02/2020 20:30:05	120220	12022020	203005	237.28	12.333285	-56.880073	237.29	-0.190	-0.030	1.260	237.23	-1.40	1.70	 	 	 	 	 	 	 	 	 	 	 	 	 	 	 	 	 	 	1581539405	9.46	17.52
12/02/2020 20:30:06	120220	12022020	203006	237.15	12.333263	-56.880113	237.18	-0.320	0.270	1.060	237.15	-1.10	1.50	 	 	 	 	 	 	 	 	 	 	 	 	 	 	 	 	 	 	1581539406	9.65	17.87
12/02/2020 20:30:07	120220	12022020	203007	237.17	12.333242	-56.880155	237.23	-0.330	0.290	0.870	237.19	-1.10	1.30	 	 	 	 	 	 	 	 	 	 	 	 	 	 	 	 	 	 	1581539407	9.94	18.41
12/02/2020 20:30:08	120220	12022020	203008	237.36	12.333218	-56.880197	237.40	-0.210	0.250	0.680	237.41	-1.10	1.10	 	 	 	 	 	 	 	 	 	 	 	 	 	 	 	 	 	 	1581539408	9.97	18.46
12/02/2020 20:30:09	120220	12022020	203009	237.57	12.333197	-56.880237	237.59	-0.060	0.200	0.590	237.59	-1.20	1.00	 	 	 	 	 	 	 	 	 	 	 	 	 	 	 	 	 	 	1581539409	9.81	18.17
12/02/2020 20:30:10	120220	12022020	203010	237.50	12.333175	-56.880277	237.50	0.040	0.030	0.860	237.46	-1.40	1.30	 	 	 	 	 	 	 	 	 	 	 	 	 	 	 	 	 	 	1581539410	9.75	18.06
12/02/2020 20:30:11	120220	12022020	203011	237.22	12.333155	-56.880318	237.22	0.080	-0.190	1.350	237.17	-1.60	1.80	 	 	 	 	 	 	 	 	 	 	 	 	 	 	 	 	 	 	1581539411	9.78	18.11
12/02/2020 20:30:12	120220	12022020	203012	237.04	12.333137	-56.880360	237.04	0.120	-0.360	1.650	237.02	-1.70	2.10	 	 	 	 	 	 	 	 	 	 	 	 	 	 	 	 	 	 	1581539412	9.67	17.91
12/02/2020 20:30:13	120220	12022020	203013	237.04	12.333117	-56.880400	237.06	0.140	-0.490	1.540	237.06	-1.90	1.90	 	 	 	 	 	 	 	 	 	 	 	 	 	 	 	 	 	 	1581539413	9.49	17.58
12/02/2020 20:30:14	120220	12022020	203014	237.17	12.333093	-56.880438	237.18	0.160	-0.670	1.150	237.20	-2.00	1.50	 	 	 	 	 	 	 	 	 	 	 	 	 	 	 	 	 	 	1581539414	9.46	17.52
12/02/2020 20:30:15	120220	12022020	203015	237.35	12.333070	-56.880478	237.36	0.170	-0.900	0.680	237.39	-2.30	1.10	 	 	 	 	 	 	 	 	 	 	 	 	 	 	 	 	 	 	1581539415	9.62	17.82
12/02/2020 20:30:16	120220	12022020	203016	237.58	12.333047	-56.880517	237.59	0.170	-0.970	0.290	237.62	-2.30	0.70	 	 	 	 	 	 	 	 	 	 	 	 	 	 	 	 	 	 	1581539416	9.69	17.95
12/02/2020 20:30:17	120220	12022020	203017	237.77	12.333023	-56.880555	237.79	0.080	-0.660	0.200	237.81	-2.00	0.60	 	 	 	 	 	 	 	 	 	 	 	 	 	 	 	 	 	 	1581539417	9.56	17.71
12/02/2020 20:30:18	120220	12022020	203018	237.90	12.333002	-56.880593	237.91	-0.100	-0.060	0.330	237.91	-1.40	0.80	 	 	 	 	 	 	 	 	 	 	 	 	 	 	 	 	 	 	1581539418	9.29	17.21
12/02/2020 20:30:19	120220	12022020	203019	237.89	12.332982	-56.880632	237.89	-0.230	0.450	0.530	237.88	-0.90	1.00	 	 	 	 	 	 	 	 	 	 	 	 	 	 	 	 	 	 	1581539419	9.23	17.09
12/02/2020 20:30:20	120220	12022020	203020	237.75	12.332960	-56.880672	237.72	-0.130	0.410	0.630	237.70	-1.00	1.00	 	 	 	 	 	 	 	 	 	 	 	 	 	 	 	 	 	 	1581539420	9.57	17.72
12/02/2020 20:30:21	120220	12022020	203021	237.44	12.332937	-56.880713	237.41	0.120	-0.190	0.780	237.37	-1.60	1.20	 	 	 	 	 	 	 	 	 	 	 	 	 	 	 	 	 	 	1581539421	10.15	18.80
12/02/2020 20:30:22	120220	12022020	203022	237.02	12.332913	-56.880757	236.99	0.260	-0.930	1.240	236.94	-2.30	1.70	 	 	 	 	 	 	 	 	 	 	 	 	 	 	 	 	 	 	1581539422	10.50	19.45
12/02/2020 20:30:23	120220	12022020	203023	236.64	12.332892	-56.880800	236.66	0.070	-1.140	1.890	236.58	-2.50	2.30	 	 	 	 	 	 	 	 	 	 	 	 	 	 	 	 	 	 	1581539423	10.29	19.06
12/02/2020 20:30:24	120220	12022020	203024	236.47	12.332875	-56.880842	236.53	-0.310	-0.610	2.340	236.48	-1.90	2.80	 	 	 	 	 	 	 	 	 	 	 	 	 	 	 	 	 	 	1581539424	9.63	17.83
12/02/2020 20:30:25	120220	12022020	203025	236.64	12.332858	-56.880882	236.73	-0.550	0.160	2.190	236.72	-1.20	2.60	 	 	 	 	 	 	 	 	 	 	 	 	 	 	 	 	 	 	1581539425	9.13	16.91
12/02/2020 20:30:26	120220	12022020	203026	237.10	12.332837	-56.880920	237.18	-0.420	0.510	1.550	237.21	-0.90	1.90	 	 	 	 	 	 	 	 	 	 	 	 	 	 	 	 	 	 	1581539426	9.18	17.00
12/02/2020 20:30:27	120220	12022020	203027	237.64	12.332813	-56.880958	237.71	-0.040	0.230	0.780	237.73	-1.20	1.10	 	 	 	 	 	 	 	 	 	 	 	 	 	 	 	 	 	 	1581539427	9.72	18.00
12/02/2020 20:30:28	120220	12022020	203028	238.05	12.332788	-56.880998	238.09	0.310	-0.360	0.170	238.10	-1.80	0.60	 	 	 	 	 	 	 	 	 	 	 	 	 	 	 	 	 	 	1581539428	10.12	18.74
12/02/2020 20:30:29	120220	12022020	203029	238.24	12.332762	-56.881038	238.26	0.400	-0.630	-0.150	238.26	-2.00	0.30	 	 	 	 	 	 	 	 	 	 	 	 	 	 	 	 	 	 	1581539429	9.93	18.39
12/02/2020 20:30:30	120220	12022020	203030	238.30	12.332740	-56.881075	238.31	0.250	-0.420	-0.140	238.30	-1.80	0.30	 	 	 	 	 	 	 	 	 	 	 	 	 	 	 	 	 	 	1581539430	9.37	17.35
12/02/2020 20:30:31	120220	12022020	203031	238.31	12.332718	-56.881113	238.31	0.050	-0.170	0.030	238.31	-1.50	0.50	 	 	 	 	 	 	 	 	 	 	 	 	 	 	 	 	 	 	1581539431	9.18	17.00
12/02/2020 20:30:32	120220	12022020	203032	238.26	12.332697	-56.881153	238.24	-0.010	-0.200	0.310	238.25	-1.60	0.70	 	 	 	 	 	 	 	 	 	 	 	 	 	 	 	 	 	 	1581539432	9.48	17.56
12/02/2020 20:30:33	120220	12022020	203033	238.12	12.332677	-56.881195	238.10	0.050	-0.500	0.830	238.09	-1.90	1.30	 	 	 	 	 	 	 	 	 	 	 	 	 	 	 	 	 	 	1581539433	9.89	18.32
12/02/2020 20:30:34	120220	12022020	203034	237.90	12.332657	-56.881237	237.88	0.080	-0.760	1.400	237.86	-2.10	1.80	 	 	 	 	 	 	 	 	 	 	 	 	 	 	 	 	 	 	1581539434	10.05	18.61
12/02/2020 20:30:35	120220	12022020	203035	237.71	12.332637	-56.881280	237.70	0.010	-0.790	1.690	237.69	-2.10	2.10	 	 	 	 	 	 	 	 	 	 	 	 	 	 	 	 	 	 	1581539435	9.90	18.33
12/02/2020 20:30:36	120220	12022020	203036	237.65	12.332617	-56.881320	237.65	-0.080	-0.570	1.630	237.65	-1.90	2.00	 	 	 	 	 	 	 	 	 	 	 	 	 	 	 	 	 	 	1581539436	9.66	17.89
12/02/2020 20:30:37	120220	12022020	203037	237.72	12.332597	-56.881360	237.72	-0.110	-0.170	1.360	237.75	-1.50	1.80	 	 	 	 	 	 	 	 	 	 	 	 	 	 	 	 	 	 	1581539437	9.46	17.52
12/02/2020 20:30:38	120220	12022020	203038	237.80	12.332575	-56.881398	237.79	-0.060	0.150	1.130	237.80	-1.20	1.50	 	 	 	 	 	 	 	 	 	 	 	 	 	 	 	 	 	 	1581539438	9.43	17.46
12/02/2020 20:30:39	120220	12022020	203039	237.72	12.332553	-56.881440	237.70	0.000	0.100	1.020	237.69	-1.30	1.40	 	 	 	 	 	 	 	 	 	 	 	 	 	 	 	 	 	 	1581539439	9.72	18.00
12/02/2020 20:30:40	120220	12022020	203040	237.51	12.332530	-56.881482	237.50	-0.000	-0.150	0.980	237.47	-1.50	1.40	 	 	 	 	 	 	 	 	 	 	 	 	 	 	 	 	 	 	1581539440	10.05	18.61
12/02/2020 20:30:41	120220	12022020	203041	237.37	12.332508	-56.881522	237.37	-0.110	-0.270	0.830	237.37	-1.60	1.20	 	 	 	 	 	 	 	 	 	 	 	 	 	 	 	 	 	 	1581539441	9.93	18.39
12/02/2020 20:30:42	120220	12022020	203042	237.51	12.332487	-56.881562	237.54	-0.260	-0.190	0.460	237.59	-1.60	0.80	 	 	 	 	 	 	 	 	 	 	 	 	 	 	 	 	 	 	1581539442	9.61	17.80
12/02/2020 20:30:43	120220	12022020	203043	237.96	12.332465	-56.881600	238.01	-0.320	-0.150	-0.010	238.06	-1.50	0.40	 	 	 	 	 	 	 	 	 	 	 	 	 	 	 	 	 	 	1581539443	9.48	17.56
12/02/2020 20:30:44	120220	12022020	203044	238.40	12.332442	-56.881640	238.44	-0.220	-0.260	-0.210	238.48	-1.60	0.20	 	 	 	 	 	 	 	 	 	 	 	 	 	 	 	 	 	 	1581539444	9.59	17.76
12/02/2020 20:30:45	120220	12022020	203045	238.70	12.332418	-56.881678	238.73	0.010	-0.380	-0.050	238.75	-1.70	0.40	 	 	 	 	 	 	 	 	 	 	 	 	 	 	 	 	 	 	1581539445	9.63	17.83
12/02/2020 20:30:46	120220	12022020	203046	238.90	12.332397	-56.881718	238.94	0.270	-0.410	0.280	238.93	-1.80	0.70	 	 	 	 	 	 	 	 	 	 	 	 	 	 	 	 	 	 	1581539446	9.54	17.67
12/02/2020 20:30:47	120220	12022020	203047	238.98	12.332377	-56.881758	239.00	0.480	-0.380	0.780	238.96	-1.70	1.20	 	 	 	 	 	 	 	 	 	 	 	 	 	 	 	 	 	 	1581539447	9.45	17.50
12/02/2020 20:30:48	120220	12022020	203048	238.71	12.332358	-56.881798	238.70	0.580	-0.390	1.550	238.61	-1.80	2.00	 	 	 	 	 	 	 	 	 	 	 	 	 	 	 	 	 	 	1581539448	9.53	17.65
12/02/2020 20:30:49	120220	12022020	203049	238.06	12.332340	-56.881842	238.04	0.520	-0.500	2.390	237.90	-1.90	2.80	 	 	 	 	 	 	 	 	 	 	 	 	 	 	 	 	 	 	1581539449	9.77	18.09
12/02/2020 20:30:50	120220	12022020	203050	237.30	12.332322	-56.881885	237.30	0.280	-0.680	2.750	237.17	-2.00	3.20	 	 	 	 	 	 	 	 	 	 	 	 	 	 	 	 	 	 	1581539450	10.02	18.56
12/02/2020 20:30:51	120220	12022020	203051	236.83	12.332300	-56.881928	236.88	-0.110	-0.820	2.330	236.81	-2.20	2.70	 	 	 	 	 	 	 	 	 	 	 	 	 	 	 	 	 	 	1581539451	10.10	18.71
12/02/2020 20:30:52	120220	12022020	203052	236.97	12.332278	-56.881968	237.05	-0.530	-0.660	1.290	237.06	-2.00	1.60	 	 	 	 	 	 	 	 	 	 	 	 	 	 	 	 	 	 	1581539452	9.91	18.35
12/02/2020 20:30:53	120220	12022020	203053	237.56	12.332255	-56.882007	237.64	-0.800	-0.110	0.160	237.70	-1.40	0.50	 	 	 	 	 	 	 	 	 	 	 	 	 	 	 	 	 	 	1581539453	9.48	17.56
12/02/2020 20:30:54	120220	12022020	203054	238.22	12.332232	-56.882043	238.28	-0.800	0.440	-0.470	238.33	-0.90	-0.10	 	 	 	 	 	 	 	 	 	 	 	 	 	 	 	 	 	 	1581539454	9.23	17.09
12/02/2020 20:30:55	120220	12022020	203055	238.65	12.332210	-56.882083	238.69	-0.500	0.520	-0.420	238.71	-0.90	0.00	 	 	 	 	 	 	 	 	 	 	 	 	 	 	 	 	 	 	1581539455	9.47	17.54
12/02/2020 20:30:56	120220	12022020	203056	238.79	12.332190	-56.882125	238.79	-0.030	0.110	-0.020	238.78	-1.30	0.40	 	 	 	 	 	 	 	 	 	 	 	 	 	 	 	 	 	 	1581539456	9.93	18.39
12/02/2020 20:30:57	120220	12022020	203057	238.72	12.332168	-56.882167	238.70	0.430	-0.290	0.470	238.69	-1.70	0.90	 	 	 	 	 	 	 	 	 	 	 	 	 	 	 	 	 	 	1581539457	9.97	18.46
12/02/2020 20:30:58	120220	12022020	203058	238.48	12.332147	-56.882207	238.50	0.660	-0.440	0.930	238.42	-1.80	1.40	 	 	 	 	 	 	 	 	 	 	 	 	 	 	 	 	 	 	1581539458	9.61	17.80
12/02/2020 20:30:59	120220	12022020	203059	238.19	12.332127	-56.882245	238.21	0.610	-0.470	1.380	238.13	-1.80	1.80	 	 	 	 	 	 	 	 	 	 	 	 	 	 	 	 	 	 	1581539459	9.39	17.39
12/02/2020 20:31:00	120220	12022020	203100	237.85	12.332107	-56.882285	237.87	0.400	-0.540	1.780	237.78	-1.90	2.20	 	 	 	 	 	 	 	 	 	 	 	 	 	 	 	 	 	 	1581539460	9.44	17.48
12/02/2020 20:31:01	120220	12022020	203101	237.54	12.332088	-56.882327	237.55	0.170	-0.660	1.950	237.49	-2.00	2.40	 	 	 	 	 	 	 	 	 	 	 	 	 	 	 	 	 	 	1581539461	9.68	17.93
12/02/2020 20:31:02	120220	12022020	203102	237.38	12.332068	-56.882368	237.40	0.040	-0.710	1.740	237.37	-2.10	2.10	1014.60	26.50	26.60	20.60	20.60	215.0	69.0	69.0	392.0	28.7	213.00	4.90	74.00	9.40	15347	8888.0	27.5	27.5	1581539462	9.77	18.09
12/02/2020 20:31:03	120220	12022020	203103	237.32	12.332047	-56.882410	237.34	-0.030	-0.630	1.300	237.31	-2.00	1.70	 	 	 	 	 	 	 	 	 	 	 	 	 	 	 	 	 	 	1581539463	9.73	18.02
12/02/2020 20:31:04	120220	12022020	203104	237.23	12.332025	-56.882450	237.24	-0.150	-0.440	0.980	237.20	-1.80	1.40	 	 	 	 	 	 	 	 	 	 	 	 	 	 	 	 	 	 	1581539464	9.72	18.00
12/02/2020 20:31:05	120220	12022020	203105	237.03	12.332003	-56.882490	237.04	-0.360	-0.160	1.050	236.97	-1.50	1.50	 	 	 	 	 	 	 	 	 	 	 	 	 	 	 	 	 	 	1581539465	9.67	17.91
12/02/2020 20:31:06	120220	12022020	203106	236.74	12.331983	-56.882530	236.75	-0.520	0.180	1.280	236.69	-1.20	1.70	 	 	 	 	 	 	 	 	 	 	 	 	 	 	 	 	 	 	1581539466	9.58	17.74
12/02/2020 20:31:07	120220	12022020	203107	236.60	12.331963	-56.882570	236.61	-0.460	0.490	1.170	236.61	-0.90	1.60	 	 	 	 	 	 	 	 	 	 	 	 	 	 	 	 	 	 	1581539467	9.42	17.45
12/02/2020 20:31:08	120220	12022020	203108	236.77	12.331942	-56.882608	236.79	-0.140	0.460	0.620	236.84	-0.90	1.00	 	 	 	 	 	 	 	 	 	 	 	 	 	 	 	 	 	 	1581539468	9.40	17.41
12/02/2020 20:31:09	120220	12022020	203109	237.20	12.331917	-56.882647	237.21	0.250	-0.150	0.060	237.30	-1.60	0.50	 	 	 	 	 	 	 	 	 	 	 	 	 	 	 	 	 	 	1581539469	9.76	18.08
12/02/2020 20:31:10	120220	12022020	203110	237.62	12.331892	-56.882687	237.64	0.510	-1.000	0.050	237.69	-2.40	0.50	 	 	 	 	 	 	 	 	 	 	 	 	 	 	 	 	 	 	1581539470	10.11	18.72
12/02/2020 20:31:11	120220	12022020	203111	237.85	12.331868	-56.882728	237.86	0.520	-1.420	0.570	237.88	-2.80	1.00	 	 	 	 	 	 	 	 	 	 	 	 	 	 	 	 	 	 	1581539471	9.97	18.46
12/02/2020 20:31:12	120220	12022020	203112	237.90	12.331850	-56.882768	237.91	0.360	-1.100	1.330	237.88	-2.40	1.80	 	 	 	 	 	 	 	 	 	 	 	 	 	 	 	 	 	 	1581539472	9.45	17.50
12/02/2020 20:31:13	120220	12022020	203113	237.71	12.331833	-56.882808	237.73	0.150	-0.490	2.130	237.64	-1.80	2.60	 	 	 	 	 	 	 	 	 	 	 	 	 	 	 	 	 	 	1581539473	9.21	17.06
12/02/2020 20:31:14	120220	12022020	203114	237.26	12.331815	-56.882850	237.29	-0.060	-0.100	2.610	237.17	-1.50	3.00	 	 	 	 	 	 	 	 	 	 	 	 	 	 	 	 	 	 	1581539474	9.53	17.65
12/02/2020 20:31:15	120220	12022020	203115	236.90	12.331793	-56.882892	236.95	-0.290	0.060	2.410	236.87	-1.30	2.80	 	 	 	 	 	 	 	 	 	 	 	 	 	 	 	 	 	 	1581539475	9.85	18.24
12/02/2020 20:31:16	120220	12022020	203116	236.88	12.331770	-56.882930	236.96	-0.460	0.240	1.740	236.91	-1.10	2.10	 	 	 	 	 	 	 	 	 	 	 	 	 	 	 	 	 	 	1581539476	9.79	18.13
12/02/2020 20:31:17	120220	12022020	203117	237.07	12.331745	-56.882968	237.14	-0.430	0.450	1.010	237.11	-0.90	1.40	 	 	 	 	 	 	 	 	 	 	 	 	 	 	 	 	 	 	1581539477	9.53	17.65
12/02/2020 20:31:18	120220	12022020	203118	237.21	12.331722	-56.883007	237.25	-0.190	0.380	0.550	237.22	-1.00	1.00	 	 	 	 	 	 	 	 	 	 	 	 	 	 	 	 	 	 	1581539478	9.51	17.61
12/02/2020 20:31:19	120220	12022020	203119	237.25	12.331698	-56.883047	237.27	0.100	-0.120	0.510	237.24	-1.50	0.90	 	 	 	 	 	 	 	 	 	 	 	 	 	 	 	 	 	 	1581539479	9.78	18.11
12/02/2020 20:31:20	120220	12022020	203120	237.21	12.331677	-56.883088	237.22	0.280	-0.800	0.710	237.20	-2.20	1.10	 	 	 	 	 	 	 	 	 	 	 	 	 	 	 	 	 	 	1581539480	10.01	18.54
12/02/2020 20:31:21	120220	12022020	203121	237.17	12.331657	-56.883130	237.21	0.290	-1.120	0.940	237.17	-2.50	1.40	 	 	 	 	 	 	 	 	 	 	 	 	 	 	 	 	 	 	1581539481	9.87	18.28
12/02/2020 20:31:22	120220	12022020	203122	237.24	12.331637	-56.883170	237.29	0.160	-0.810	1.160	237.26	-2.20	1.60	 	 	 	 	 	 	 	 	 	 	 	 	 	 	 	 	 	 	1581539482	9.33	17.28
12/02/2020 20:31:23	120220	12022020	203123	237.37	12.331618	-56.883207	237.41	0.060	-0.240	1.180	237.40	-1.60	1.60	 	 	 	 	 	 	 	 	 	 	 	 	 	 	 	 	 	 	1581539483	8.94	16.56
12/02/2020 20:31:24	120220	12022020	203124	237.58	12.331598	-56.883245	237.63	0.080	0.090	0.940	237.63	-1.30	1.30	 	 	 	 	 	 	 	 	 	 	 	 	 	 	 	 	 	 	1581539484	9.07	16.80
12/02/2020 20:31:25	120220	12022020	203125	237.87	12.331577	-56.883283	237.91	0.180	-0.020	0.620	237.92	-1.40	1.00	 	 	 	 	 	 	 	 	 	 	 	 	 	 	 	 	 	 	1581539485	9.51	17.61
12/02/2020 20:31:26	120220	12022020	203126	238.09	12.331552	-56.883323	238.12	0.260	-0.430	0.370	238.12	-1.80	0.80	 	 	 	 	 	 	 	 	 	 	 	 	 	 	 	 	 	 	1581539486	9.98	18.48
12/02/2020 20:31:27	120220	12022020	203127	238.14	12.331527	-56.883365	238.15	0.240	-0.680	0.250	238.11	-2.10	0.70	 	 	 	 	 	 	 	 	 	 	 	 	 	 	 	 	 	 	1581539487	10.03	18.58
12/02/2020 20:31:28	120220	12022020	203128	237.93	12.331503	-56.883403	237.92	0.070	-0.620	0.390	237.85	-2.00	0.80	 	 	 	 	 	 	 	 	 	 	 	 	 	 	 	 	 	 	1581539488	9.77	18.09
12/02/2020 20:31:29	120220	12022020	203129	237.49	12.331482	-56.883443	237.49	-0.210	-0.410	0.830	237.39	-1.80	1.30	 	 	 	 	 	 	 	 	 	 	 	 	 	 	 	 	 	 	1581539489	9.66	17.89
12/02/2020 20:31:30	120220	12022020	203130	236.99	12.331460	-56.883483	237.00	-0.460	-0.160	1.380	236.89	-1.50	1.80	 	 	 	 	 	 	 	 	 	 	 	 	 	 	 	 	 	 	1581539490	9.69	17.95
12/02/2020 20:31:31	120220	12022020	203131	236.63	12.331442	-56.883525	236.68	-0.570	0.050	1.730	236.59	-1.30	2.20	 	 	 	 	 	 	 	 	 	 	 	 	 	 	 	 	 	 	1581539491	9.70	17.96
12/02/2020 20:31:32	120220	12022020	203132	236.56	12.331422	-56.883567	236.62	-0.520	0.110	1.810	236.57	-1.30	2.20	 	 	 	 	 	 	 	 	 	 	 	 	 	 	 	 	 	 	1581539492	9.67	17.91
12/02/2020 20:31:33	120220	12022020	203133	236.66	12.331403	-56.883608	236.73	-0.320	-0.070	1.660	236.69	-1.50	2.10	 	 	 	 	 	 	 	 	 	 	 	 	 	 	 	 	 	 	1581539493	9.73	18.02
12/02/2020 20:31:34	120220	12022020	203134	236.74	12.331382	-56.883650	236.80	0.010	-0.390	1.380	236.75	-1.80	1.80	 	 	 	 	 	 	 	 	 	 	 	 	 	 	 	 	 	 	1581539494	9.82	18.19
12/02/2020 20:31:35	120220	12022020	203135	236.80	12.331360	-56.883690	236.89	0.310	-0.530	1.030	236.82	-1.90	1.40	 	 	 	 	 	 	 	 	 	 	 	 	 	 	 	 	 	 	1581539495	9.71	17.98
12/02/2020 20:31:36	120220	12022020	203136	237.09	12.331337	-56.883727	237.18	0.440	-0.340	0.490	237.17	-1.70	0.90	 	 	 	 	 	 	 	 	 	 	 	 	 	 	 	 	 	 	1581539496	9.37	17.35
12/02/2020 20:31:37	120220	12022020	203137	237.54	12.331312	-56.883763	237.60	0.450	-0.120	-0.010	237.62	-1.50	0.40	 	 	 	 	 	 	 	 	 	 	 	 	 	 	 	 	 	 	1581539497	9.21	17.06
12/02/2020 20:31:38	120220	12022020	203138	237.89	12.331288	-56.883802	237.94	0.390	-0.110	-0.110	237.94	-1.50	0.30	 	 	 	 	 	 	 	 	 	 	 	 	 	 	 	 	 	 	1581539498	9.41	17.43
12/02/2020 20:31:39	120220	12022020	203139	238.10	12.331267	-56.883840	238.15	0.270	-0.270	0.200	238.13	-1.60	0.70	 	 	 	 	 	 	 	 	 	 	 	 	 	 	 	 	 	 	1581539499	9.68	17.93
12/02/2020 20:31:40	120220	12022020	203140	238.17	12.331245	-56.883882	238.22	0.040	-0.420	0.760	238.16	-1.80	1.20	 	 	 	 	 	 	 	 	 	 	 	 	 	 	 	 	 	 	1581539500	9.75	18.06
12/02/2020 20:31:41	120220	12022020	203141	238.03	12.331225	-56.883923	238.06	-0.240	-0.550	1.360	237.97	-1.90	1.80	 	 	 	 	 	 	 	 	 	 	 	 	 	 	 	 	 	 	1581539501	9.78	18.11
12/02/2020 20:31:42	120220	12022020	203142	237.69	12.331205	-56.883965	237.72	-0.430	-0.620	1.680	237.61	-2.00	2.10	 	 	 	 	 	 	 	 	 	 	 	 	 	 	 	 	 	 	1581539502	9.80	18.15
12/02/2020 20:31:43	120220	12022020	203143	237.22	12.331183	-56.884005	237.24	-0.450	-0.620	1.730	237.11	-2.00	2.10	 	 	 	 	 	 	 	 	 	 	 	 	 	 	 	 	 	 	1581539503	9.75	18.06
12/02/2020 20:31:44	120220	12022020	203144	236.72	12.331162	-56.884045	236.75	-0.330	-0.610	1.550	236.65	-2.00	2.00	 	 	 	 	 	 	 	 	 	 	 	 	 	 	 	 	 	 	1581539504	9.80	18.15
12/02/2020 20:31:45	120220	12022020	203145	236.43	12.331138	-56.884085	236.47	-0.170	-0.530	1.290	236.39	-1.90	1.70	 	 	 	 	 	 	 	 	 	 	 	 	 	 	 	 	 	 	1581539505	9.82	18.19
12/02/2020 20:31:46	120220	12022020	203146	236.30	12.331117	-56.884127	236.34	-0.030	-0.360	1.150	236.29	-1.70	1.60	 	 	 	 	 	 	 	 	 	 	 	 	 	 	 	 	 	 	1581539506	9.71	17.98
12/02/2020 20:31:47	120220	12022020	203147	236.28	12.331095	-56.884167	236.33	0.040	-0.200	1.190	236.29	-1.60	1.60	 	 	 	 	 	 	 	 	 	 	 	 	 	 	 	 	 	 	1581539507	9.72	18.00
12/02/2020 20:31:48	120220	12022020	203148	236.44	12.331075	-56.884208	236.52	0.050	-0.080	1.210	236.50	-1.40	1.60	 	 	 	 	 	 	 	 	 	 	 	 	 	 	 	 	 	 	1581539508	9.82	18.19
12/02/2020 20:31:49	120220	12022020	203149	236.87	12.331055	-56.884248	236.96	0.020	0.250	0.920	236.98	-1.10	1.30	 	 	 	 	 	 	 	 	 	 	 	 	 	 	 	 	 	 	1581539509	9.63	17.83
12/02/2020 20:31:50	120220	12022020	203150	237.50	12.331033	-56.884287	237.60	0.050	0.650	0.380	237.62	-0.70	0.80	 	 	 	 	 	 	 	 	 	 	 	 	 	 	 	 	 	 	1581539510	9.24	17.11
12/02/2020 20:31:51	120220	12022020	203151	238.04	12.331008	-56.884323	238.11	0.170	0.650	-0.030	238.11	-0.80	0.40	 	 	 	 	 	 	 	 	 	 	 	 	 	 	 	 	 	 	1581539511	9.32	17.26
12/02/2020 20:31:52	120220	12022020	203152	238.25	12.330983	-56.884362	238.31	0.310	0.050	-0.060	238.25	-1.40	0.40	 	 	 	 	 	 	 	 	 	 	 	 	 	 	 	 	 	 	1581539512	9.79	18.13
12/02/2020 20:31:53	120220	12022020	203153	238.16	12.330960	-56.884403	238.20	0.340	-0.800	0.360	238.11	-2.20	0.80	 	 	 	 	 	 	 	 	 	 	 	 	 	 	 	 	 	 	1581539513	10.13	18.76
12/02/2020 20:31:54	120220	12022020	203154	237.86	12.330938	-56.884445	237.88	0.220	-1.330	0.940	237.77	-2.70	1.40	 	 	 	 	 	 	 	 	 	 	 	 	 	 	 	 	 	 	1581539514	10.01	18.54
12/02/2020 20:31:55	120220	12022020	203155	237.42	12.330918	-56.884487	237.45	0.040	-1.400	1.390	237.32	-2.80	1.80	 	 	 	 	 	 	 	 	 	 	 	 	 	 	 	 	 	 	1581539515	9.65	17.87
12/02/2020 20:31:56	120220	12022020	203156	237.00	12.330897	-56.884525	237.05	-0.150	-1.160	1.540	236.93	-2.50	2.00	 	 	 	 	 	 	 	 	 	 	 	 	 	 	 	 	 	 	1581539516	9.49	17.58
12/02/2020 20:31:57	120220	12022020	203157	236.74	12.330875	-56.884563	236.81	-0.310	-0.730	1.500	236.71	-2.10	1.90	 	 	 	 	 	 	 	 	 	 	 	 	 	 	 	 	 	 	1581539517	9.46	17.52
12/02/2020 20:31:58	120220	12022020	203158	236.64	12.330853	-56.884603	236.72	-0.380	-0.270	1.470	236.64	-1.60	1.90	 	 	 	 	 	 	 	 	 	 	 	 	 	 	 	 	 	 	1581539518	9.55	17.69
12/02/2020 20:31:59	120220	12022020	203159	236.60	12.330832	-56.884643	236.67	-0.340	0.110	1.530	236.59	-1.30	1.90	 	 	 	 	 	 	 	 	 	 	 	 	 	 	 	 	 	 	1581539519	9.66	17.89
12/02/2020 20:32:00	120220	12022020	203200	236.58	12.330812	-56.884687	236.63	-0.190	0.240	1.590	236.58	-1.10	2.00	 	 	 	 	 	 	 	 	 	 	 	 	 	 	 	 	 	 	1581539520	9.89	18.32
12/02/2020 20:32:01	120220	12022020	203201	236.61	12.330792	-56.884728	236.66	-0.000	0.170	1.560	236.62	-1.20	2.00	 	 	 	 	 	 	 	 	 	 	 	 	 	 	 	 	 	 	1581539521	10.08	18.67
12/02/2020 20:32:02	120220	12022020	203202	236.73	12.330770	-56.884770	236.79	0.160	0.090	1.270	236.77	-1.30	1.70	1014.60	26.40	26.60	20.20	20.40	129.0	68.0	68.0	391.0	28.6	211.00	5.60	74.00	10.20	13914	10405.0	27.5	27.5	1581539522	10.02	18.56
12/02/2020 20:32:03	120220	12022020	203203	237.05	12.330747	-56.884810	237.11	0.230	0.040	0.660	237.13	-1.30	1.00	 	 	 	 	 	 	 	 	 	 	 	 	 	 	 	 	 	 	1581539523	9.82	18.19
12/02/2020 20:32:04	120220	12022020	203204	237.59	12.330722	-56.884848	237.66	0.210	-0.020	-0.100	237.72	-1.40	0.30	 	 	 	 	 	 	 	 	 	 	 	 	 	 	 	 	 	 	1581539524	9.70	17.96
12/02/2020 20:32:05	120220	12022020	203205	238.23	12.330695	-56.884885	238.27	0.130	-0.060	-0.650	238.34	-1.40	-0.30	 	 	 	 	 	 	 	 	 	 	 	 	 	 	 	 	 	 	1581539525	9.57	17.72
12/02/2020 20:32:06	120220	12022020	203206	238.62	12.330672	-56.884923	238.64	0.050	-0.160	-0.620	238.65	-1.50	-0.20	 	 	 	 	 	 	 	 	 	 	 	 	 	 	 	 	 	 	1581539526	9.50	17.59
12/02/2020 20:32:07	120220	12022020	203207	238.54	12.330648	-56.884962	238.53	-0.000	-0.360	0.100	238.46	-1.80	0.60	 	 	 	 	 	 	 	 	 	 	 	 	 	 	 	 	 	 	1581539527	9.55	17.69
12/02/2020 20:32:08	120220	12022020	203208	238.04	12.330628	-56.885003	238.04	-0.040	-0.660	1.070	237.93	-2.00	1.50	 	 	 	 	 	 	 	 	 	 	 	 	 	 	 	 	 	 	1581539528	9.76	18.08
12/02/2020 20:32:09	120220	12022020	203209	237.47	12.330608	-56.885045	237.48	-0.040	-0.820	1.770	237.37	-2.20	2.20	 	 	 	 	 	 	 	 	 	 	 	 	 	 	 	 	 	 	1581539529	9.82	18.19
12/02/2020 20:32:10	120220	12022020	203210	237.06	12.330590	-56.885087	237.08	0.060	-0.750	2.020	237.00	-2.10	2.40	 	 	 	 	 	 	 	 	 	 	 	 	 	 	 	 	 	 	1581539530	9.62	17.82
12/02/2020 20:32:11	120220	12022020	203211	236.91	12.330568	-56.885127	236.94	0.230	-0.610	1.850	236.89	-2.00	2.20	 	 	 	 	 	 	 	 	 	 	 	 	 	 	 	 	 	 	1581539531	9.49	17.58
12/02/2020 20:32:12	120220	12022020	203212	236.94	12.330547	-56.885165	237.02	0.300	-0.620	1.340	236.98	-2.00	1.70	 	 	 	 	 	 	 	 	 	 	 	 	 	 	 	 	 	 	1581539532	9.64	17.85
12/02/2020 20:32:13	120220	12022020	203213	237.23	12.330522	-56.885205	237.32	0.150	-0.730	0.720	237.30	-2.10	1.10	 	 	 	 	 	 	 	 	 	 	 	 	 	 	 	 	 	 	1581539533	9.88	18.30
12/02/2020 20:32:14	120220	12022020	203214	237.58	12.330498	-56.885247	237.65	-0.130	-0.720	0.310	237.64	-2.10	0.70	 	 	 	 	 	 	 	 	 	 	 	 	 	 	 	 	 	 	1581539534	10.03	18.58
12/02/2020 20:32:15	120220	12022020	203215	237.86	12.330475	-56.885287	237.92	-0.400	-0.390	0.150	237.90	-1.70	0.60	 	 	 	 	 	 	 	 	 	 	 	 	 	 	 	 	 	 	1581539535	9.89	18.32
12/02/2020 20:32:16	120220	12022020	203216	238.10	12.330455	-56.885327	238.16	-0.530	0.170	0.130	238.15	-1.20	0.50	 	 	 	 	 	 	 	 	 	 	 	 	 	 	 	 	 	 	1581539536	9.68	17.93
12/02/2020 20:32:17	120220	12022020	203217	238.31	12.330435	-56.885368	238.37	-0.460	0.650	0.200	238.34	-0.70	0.60	 	 	 	 	 	 	 	 	 	 	 	 	 	 	 	 	 	 	1581539537	9.62	17.82
12/02/2020 20:32:18	120220	12022020	203218	238.42	12.330413	-56.885408	238.46	-0.200	0.850	0.360	238.42	-0.50	0.80	 	 	 	 	 	 	 	 	 	 	 	 	 	 	 	 	 	 	1581539538	9.69	17.95
12/02/2020 20:32:19	120220	12022020	203219	238.38	12.330390	-56.885448	238.41	0.130	0.650	0.510	238.35	-0.80	0.90	 	 	 	 	 	 	 	 	 	 	 	 	 	 	 	 	 	 	1581539539	9.81	18.17
12/02/2020 20:32:20	120220	12022020	203220	238.23	12.330367	-56.885488	238.26	0.350	0.080	0.680	238.20	-1.30	1.10	 	 	 	 	 	 	 	 	 	 	 	 	 	 	 	 	 	 	1581539540	9.95	18.43
12/02/2020 20:32:21	120220	12022020	203221	238.10	12.330343	-56.885530	238.13	0.350	-0.620	0.870	238.08	-2.00	1.30	 	 	 	 	 	 	 	 	 	 	 	 	 	 	 	 	 	 	1581539541	10.00	18.52
12/02/2020 20:32:22	120220	12022020	203222	238.02	12.330322	-56.885570	238.06	0.200	-1.070	1.010	238.03	-2.40	1.40	 	 	 	 	 	 	 	 	 	 	 	 	 	 	 	 	 	 	1581539542	9.77	18.09
12/02/2020 20:32:23	120220	12022020	203223	238.10	12.330302	-56.885610	238.15	0.040	-1.110	0.910	238.14	-2.50	1.30	 	 	 	 	 	 	 	 	 	 	 	 	 	 	 	 	 	 	1581539543	9.40	17.41
12/02/2020 20:32:24	120220	12022020	203224	238.33	12.330282	-56.885648	238.37	-0.030	-0.900	0.610	238.38	-2.30	1.00	 	 	 	 	 	 	 	 	 	 	 	 	 	 	 	 	 	 	1581539544	9.20	17.04
12/02/2020 20:32:25	120220	12022020	203225	238.51	12.330260	-56.885687	238.57	0.040	-0.730	0.350	238.54	-2.10	0.80	 	 	 	 	 	 	 	 	 	 	 	 	 	 	 	 	 	 	1581539545	9.35	17.32
12/02/2020 20:32:26	120220	12022020	203226	238.61	12.330237	-56.885727	238.63	0.180	-0.660	0.280	238.60	-2.00	0.70	 	 	 	 	 	 	 	 	 	 	 	 	 	 	 	 	 	 	1581539546	9.73	18.02
12/02/2020 20:32:27	120220	12022020	203227	238.57	12.330215	-56.885768	238.58	0.240	-0.550	0.430	238.55	-1.90	0.90	 	 	 	 	 	 	 	 	 	 	 	 	 	 	 	 	 	 	1581539547	9.96	18.45
12/02/2020 20:32:28	120220	12022020	203228	238.45	12.330193	-56.885808	238.46	0.100	-0.260	0.750	238.42	-1.60	1.20	 	 	 	 	 	 	 	 	 	 	 	 	 	 	 	 	 	 	1581539548	9.93	18.39
12/02/2020 20:32:29	120220	12022020	203229	238.21	12.330173	-56.885852	238.22	-0.220	0.060	1.240	238.16	-1.30	1.70	 	 	 	 	 	 	 	 	 	 	 	 	 	 	 	 	 	 	1581539549	9.88	18.30
12/02/2020 20:32:30	120220	12022020	203230	237.91	12.330153	-56.885893	237.91	-0.510	0.280	1.680	237.85	-1.10	2.10	 	 	 	 	 	 	 	 	 	 	 	 	 	 	 	 	 	 	1581539550	9.92	18.37
12/02/2020 20:32:31	120220	12022020	203231	237.65	12.330135	-56.885937	237.66	-0.570	0.400	1.900	237.60	-1.00	2.30	 	 	 	 	 	 	 	 	 	 	 	 	 	 	 	 	 	 	1581539551	9.93	18.39
12/02/2020 20:32:32	120220	12022020	203232	237.50	12.330117	-56.885978	237.54	-0.350	0.410	1.780	237.51	-1.00	2.20	 	 	 	 	 	 	 	 	 	 	 	 	 	 	 	 	 	 	1581539552	9.83	18.21
12/02/2020 20:32:33	120220	12022020	203233	237.69	12.330095	-56.886020	237.75	0.020	0.230	1.110	237.77	-1.20	1.50	 	 	 	 	 	 	 	 	 	 	 	 	 	 	 	 	 	 	1581539553	9.70	17.96
12/02/2020 20:32:34	120220	12022020	203234	238.20	12.330070	-56.886057	238.27	0.340	-0.180	0.110	238.32	-1.60	0.50	 	 	 	 	 	 	 	 	 	 	 	 	 	 	 	 	 	 	1581539554	9.70	17.96
12/02/2020 20:32:35	120220	12022020	203235	238.73	12.330042	-56.886095	238.78	0.500	-0.730	-0.670	238.82	-2.10	-0.30	 	 	 	 	 	 	 	 	 	 	 	 	 	 	 	 	 	 	1581539555	9.83	18.21
12/02/2020 20:32:36	120220	12022020	203236	239.09	12.330017	-56.886133	239.10	0.490	-1.150	-0.780	239.12	-2.50	-0.40	 	 	 	 	 	 	 	 	 	 	 	 	 	 	 	 	 	 	1581539556	9.83	18.21
12/02/2020 20:32:37	120220	12022020	203237	239.17	12.329995	-56.886173	239.15	0.330	-1.240	-0.270	239.16	-2.60	0.20	 	 	 	 	 	 	 	 	 	 	 	 	 	 	 	 	 	 	1581539557	9.69	17.95
12/02/2020 20:32:38	120220	12022020	203238	238.88	12.329975	-56.886215	238.85	0.040	-0.990	0.630	238.79	-2.30	1.10	 	 	 	 	 	 	 	 	 	 	 	 	 	 	 	 	 	 	1581539558	9.63	17.83
12/02/2020 20:32:39	120220	12022020	203239	238.45	12.329957	-56.886255	238.45	-0.300	-0.450	1.460	238.39	-1.80	1.90	 	 	 	 	 	 	 	 	 	 	 	 	 	 	 	 	 	 	1581539559	9.53	17.65
12/02/2020 20:32:40	120220	12022020	203240	238.15	12.329940	-56.886297	238.16	-0.520	0.060	1.860	238.10	-1.30	2.30	 	 	 	 	 	 	 	 	 	 	 	 	 	 	 	 	 	 	1581539560	9.53	17.65
12/02/2020 20:32:41	120220	12022020	203241	237.95	12.329920	-56.886338	237.97	-0.440	0.230	1.880	237.92	-1.10	2.30	 	 	 	 	 	 	 	 	 	 	 	 	 	 	 	 	 	 	1581539561	9.81	18.17
12/02/2020 20:32:42	120220	12022020	203242	237.83	12.329898	-56.886382	237.87	-0.120	0.150	1.660	237.82	-1.20	2.00	 	 	 	 	 	 	 	 	 	 	 	 	 	 	 	 	 	 	1581539562	10.10	18.71
12/02/2020 20:32:43	120220	12022020	203243	237.87	12.329877	-56.886423	237.93	0.210	0.090	1.240	237.90	-1.30	1.60	 	 	 	 	 	 	 	 	 	 	 	 	 	 	 	 	 	 	1581539563	10.03	18.58
12/02/2020 20:32:44	120220	12022020	203244	238.06	12.329853	-56.886463	238.10	0.370	0.160	0.760	238.11	-1.20	1.10	 	 	 	 	 	 	 	 	 	 	 	 	 	 	 	 	 	 	1581539564	9.69	17.95
12/02/2020 20:32:45	120220	12022020	203245	238.38	12.329832	-56.886502	238.42	0.380	0.240	0.320	238.45	-1.10	0.70	 	 	 	 	 	 	 	 	 	 	 	 	 	 	 	 	 	 	1581539565	9.41	17.43
12/02/2020 20:32:46	120220	12022020	203246	238.73	12.329810	-56.886540	238.76	0.330	0.090	0.050	238.78	-1.30	0.50	 	 	 	 	 	 	 	 	 	 	 	 	 	 	 	 	 	 	1581539566	9.38	17.37
12/02/2020 20:32:47	120220	12022020	203247	238.97	12.329787	-56.886580	238.99	0.250	-0.510	0.080	239.01	-1.90	0.50	 	 	 	 	 	 	 	 	 	 	 	 	 	 	 	 	 	 	1581539567	9.76	18.08
12/02/2020 20:32:48	120220	12022020	203248	239.10	12.329765	-56.886622	239.12	0.130	-1.310	0.270	239.11	-2.70	0.70	 	 	 	 	 	 	 	 	 	 	 	 	 	 	 	 	 	 	1581539568	10.16	18.82
12/02/2020 20:32:49	120220	12022020	203249	239.12	12.329743	-56.886665	239.13	-0.010	-1.810	0.590	239.12	-3.20	1.00	 	 	 	 	 	 	 	 	 	 	 	 	 	 	 	 	 	 	1581539569	10.24	18.96
12/02/2020 20:32:50	120220	12022020	203250	239.08	12.329723	-56.886707	239.07	-0.160	-1.660	0.990	239.05	-3.00	1.40	 	 	 	 	 	 	 	 	 	 	 	 	 	 	 	 	 	 	1581539570	9.96	18.45
12/02/2020 20:32:51	120220	12022020	203251	238.91	12.329703	-56.886748	238.89	-0.320	-0.880	1.320	238.86	-2.20	1.70	 	 	 	 	 	 	 	 	 	 	 	 	 	 	 	 	 	 	1581539571	9.58	17.74
12/02/2020 20:32:52	120220	12022020	203252	238.62	12.329682	-56.886787	238.61	-0.500	0.140	1.460	238.58	-1.20	1.90	 	 	 	 	 	 	 	 	 	 	 	 	 	 	 	 	 	 	1581539572	9.39	17.39
12/02/2020 20:32:53	120220	12022020	203253	238.37	12.329662	-56.886827	238.36	-0.600	0.910	1.360	238.34	-0.50	1.80	 	 	 	 	 	 	 	 	 	 	 	 	 	 	 	 	 	 	1581539573	9.49	17.58
12/02/2020 20:32:54	120220	12022020	203254	238.23	12.329638	-56.886867	238.22	-0.480	1.100	1.060	238.22	-0.30	1.40	 	 	 	 	 	 	 	 	 	 	 	 	 	 	 	 	 	 	1581539574	9.87	18.28
12/02/2020 20:32:55	120220	12022020	203255	238.28	12.329615	-56.886908	238.28	-0.110	0.880	0.660	238.31	-0.50	1.00	 	 	 	 	 	 	 	 	 	 	 	 	 	 	 	 	 	 	1581539575	10.13	18.76
12/02/2020 20:32:56	120220	12022020	203256	238.51	12.329593	-56.886950	238.53	0.350	0.550	0.320	238.58	-0.90	0.70	 	 	 	 	 	 	 	 	 	 	 	 	 	 	 	 	 	 	1581539576	9.99	18.50
12/02/2020 20:32:57	120220	12022020	203257	238.81	12.329570	-56.886990	238.83	0.680	0.120	0.270	238.86	-1.30	0.70	 	 	 	 	 	 	 	 	 	 	 	 	 	 	 	 	 	 	1581539577	9.73	18.02
12/02/2020 20:32:58	120220	12022020	203258	239.03	12.329550	-56.887032	239.04	0.760	-0.500	0.550	239.05	-1.90	1.00	 	 	 	 	 	 	 	 	 	 	 	 	 	 	 	 	 	 	1581539578	9.72	18.00
12/02/2020 20:32:59	120220	12022020	203259	239.12	12.329532	-56.887073	239.13	0.680	-1.230	0.890	239.12	-2.60	1.30	 	 	 	 	 	 	 	 	 	 	 	 	 	 	 	 	 	 	1581539579	9.88	18.30
12/02/2020 20:33:00	120220	12022020	203300	239.06	12.329512	-56.887117	239.05	0.450	-1.710	1.090	239.03	-3.10	1.50	 	 	 	 	 	 	 	 	 	 	 	 	 	 	 	 	 	 	1581539580	9.91	18.35
12/02/2020 20:33:01	120220	12022020	203301	238.90	12.329490	-56.887157	238.89	0.070	-1.650	0.920	238.88	-3.00	1.30	 	 	 	 	 	 	 	 	 	 	 	 	 	 	 	 	 	 	1581539581	9.68	17.93
12/02/2020 20:33:02	120220	12022020	203302	238.86	12.329467	-56.887195	238.85	-0.390	-1.160	0.500	238.87	-2.50	0.90	1014.60	26.50	26.60	20.10	20.20	131.0	68.0	68.0	390.0	28.5	207.00	5.30	72.00	10.10	14077	10769.0	27.5	27.5	1581539582	9.44	17.48
12/02/2020 20:33:03	120220	12022020	203303	238.97	12.329443	-56.887233	238.97	-0.720	-0.600	0.190	239.00	-1.90	0.60	 	 	 	 	 	 	 	 	 	 	 	 	 	 	 	 	 	 	1581539583	9.53	17.65
12/02/2020 20:33:04	120220	12022020	203304	239.09	12.329422	-56.887273	239.09	-0.750	-0.150	0.190	239.10	-1.50	0.60	 	 	 	 	 	 	 	 	 	 	 	 	 	 	 	 	 	 	1581539584	9.85	18.24
12/02/2020 20:33:05	120220	12022020	203305	239.12	12.329398	-56.887315	239.11	-0.510	0.200	0.430	239.11	-1.20	0.90	 	 	 	 	 	 	 	 	 	 	 	 	 	 	 	 	 	 	1581539585	10.08	18.67
12/02/2020 20:33:06	120220	12022020	203306	239.01	12.329378	-56.887358	239.01	-0.200	0.510	0.820	238.99	-0.90	1.20	 	 	 	 	 	 	 	 	 	 	 	 	 	 	 	 	 	 	1581539586	10.11	18.72
12/02/2020 20:33:07	120220	12022020	203307	238.88	12.329357	-56.887402	238.89	0.020	0.650	1.090	238.86	-0.70	1.50	 	 	 	 	 	 	 	 	 	 	 	 	 	 	 	 	 	 	1581539587	10.06	18.63
12/02/2020 20:33:08	120220	12022020	203308	238.78	12.329337	-56.887443	238.80	0.150	0.580	1.150	238.77	-0.80	1.50	 	 	 	 	 	 	 	 	 	 	 	 	 	 	 	 	 	 	1581539588	10.04	18.59
12/02/2020 20:33:09	120220	12022020	203309	238.75	12.329317	-56.887485	238.78	0.240	0.380	1.080	238.77	-1.00	1.50	 	 	 	 	 	 	 	 	 	 	 	 	 	 	 	 	 	 	1581539589	9.93	18.39
12/02/2020 20:33:10	120220	12022020	203310	238.93	12.329297	-56.887527	238.98	0.280	0.090	0.820	238.99	-1.30	1.20	 	 	 	 	 	 	 	 	 	 	 	 	 	 	 	 	 	 	1581539590	9.74	18.04
12/02/2020 20:33:11	120220	12022020	203311	239.33	12.329275	-56.887567	239.39	0.330	-0.320	0.250	239.42	-1.70	0.60	 	 	 	 	 	 	 	 	 	 	 	 	 	 	 	 	 	 	1581539591	9.60	17.78
12/02/2020 20:33:12	120220	12022020	203312	239.76	12.329252	-56.887607	239.81	0.410	-0.900	-0.390	239.83	-2.30	-0.00	 	 	 	 	 	 	 	 	 	 	 	 	 	 	 	 	 	 	1581539592	9.73	18.02
12/02/2020 20:33:13	120220	12022020	203313	240.00	12.329227	-56.887645	240.03	0.420	-1.410	-0.650	240.01	-2.80	-0.20	 	 	 	 	 	 	 	 	 	 	 	 	 	 	 	 	 	 	1581539593	9.90	18.33
12/02/2020 20:33:14	120220	12022020	203314	239.93	12.329203	-56.887685	239.92	0.220	-1.480	-0.290	239.88	-2.90	0.20	 	 	 	 	 	 	 	 	 	 	 	 	 	 	 	 	 	 	1581539594	9.77	18.09
12/02/2020 20:33:15	120220	12022020	203315	239.63	12.329183	-56.887727	239.53	-0.120	-1.050	0.460	239.55	-2.40	0.90	 	 	 	 	 	 	 	 	 	 	 	 	 	 	 	 	 	 	1581539595	9.57	17.72
12/02/2020 20:33:16	120220	12022020	203316	239.15	12.329167	-56.887767	239.16	-0.420	-0.300	1.090	239.10	-1.60	1.50	 	 	 	 	 	 	 	 	 	 	 	 	 	 	 	 	 	 	1581539596	9.46	17.52
12/02/2020 20:33:17	120220	12022020	203317	238.92	12.329150	-56.887808	238.95	-0.510	0.290	1.370	238.88	-1.10	1.80	 	 	 	 	 	 	 	 	 	 	 	 	 	 	 	 	 	 	1581539597	9.57	17.72
12/02/2020 20:33:18	120220	12022020	203318	238.77	12.329132	-56.887852	238.80	-0.360	0.390	1.380	238.75	-1.00	1.80	 	 	 	 	 	 	 	 	 	 	 	 	 	 	 	 	 	 	1581539598	9.96	18.45
12/02/2020 20:33:19	120220	12022020	203319	238.70	12.329110	-56.887897	238.72	-0.080	0.090	1.140	238.70	-1.30	1.50	 	 	 	 	 	 	 	 	 	 	 	 	 	 	 	 	 	 	1581539599	10.32	19.11
12/02/2020 20:33:20	120220	12022020	203320	238.75	12.329087	-56.887938	238.78	0.220	-0.210	0.780	238.78	-1.60	1.20	 	 	 	 	 	 	 	 	 	 	 	 	 	 	 	 	 	 	1581539600	10.28	19.04
12/02/2020 20:33:21	120220	12022020	203321	238.98	12.329065	-56.887980	239.02	0.400	-0.270	0.430	239.05	-1.60	0.80	 	 	 	 	 	 	 	 	 	 	 	 	 	 	 	 	 	 	1581539601	9.96	18.45
12/02/2020 20:33:22	120220	12022020	203322	239.38	12.329043	-56.888020	239.42	0.380	-0.080	0.260	239.47	-1.50	0.70	 	 	 	 	 	 	 	 	 	 	 	 	 	 	 	 	 	 	1581539602	9.56	17.71
12/02/2020 20:33:23	120220	12022020	203323	239.76	12.329023	-56.888058	239.80	0.170	0.040	0.380	239.81	-1.30	0.80	 	 	 	 	 	 	 	 	 	 	 	 	 	 	 	 	 	 	1581539603	9.37	17.35
12/02/2020 20:33:24	120220	12022020	203324	239.86	12.329003	-56.888100	239.86	-0.010	-0.230	0.780	239.83	-1.60	1.20	 	 	 	 	 	 	 	 	 	 	 	 	 	 	 	 	 	 	1581539604	9.71	17.98
12/02/2020 20:33:25	120220	12022020	203325	239.64	12.328983	-56.888143	239.63	-0.050	-0.560	1.200	239.57	-1.90	1.60	 	 	 	 	 	 	 	 	 	 	 	 	 	 	 	 	 	 	1581539605	10.04	18.59
12/02/2020 20:33:26	120220	12022020	203326	239.29	12.328963	-56.888185	239.28	-0.020	-0.550	1.410	239.22	-1.90	1.80	 	 	 	 	 	 	 	 	 	 	 	 	 	 	 	 	 	 	1581539606	9.78	18.11
12/02/2020 20:33:27	120220	12022020	203327	239.02	12.328943	-56.888225	238.95	-0.010	-0.370	1.350	238.95	-1.70	1.70	 	 	 	 	 	 	 	 	 	 	 	 	 	 	 	 	 	 	1581539607	9.48	17.56
12/02/2020 20:33:28	120220	12022020	203328	238.59	12.328922	-56.888265	238.58	0.020	-0.390	1.140	238.52	-1.80	1.50	 	 	 	 	 	 	 	 	 	 	 	 	 	 	 	 	 	 	1581539608	9.59	17.76
12/02/2020 20:33:29	120220	12022020	203329	238.26	12.328898	-56.888305	238.26	0.040	-0.650	0.950	238.21	-2.00	1.30	 	 	 	 	 	 	 	 	 	 	 	 	 	 	 	 	 	 	1581539609	9.95	18.43
12/02/2020 20:33:30	120220	12022020	203330	238.10	12.328877	-56.888347	238.13	-0.040	-0.820	0.840	238.11	-2.20	1.20	 	 	 	 	 	 	 	 	 	 	 	 	 	 	 	 	 	 	1581539610	10.10	18.71
12/02/2020 20:33:31	120220	12022020	203331	238.32	12.328855	-56.888388	238.39	-0.230	-0.610	0.710	238.42	-2.00	1.10	 	 	 	 	 	 	 	 	 	 	 	 	 	 	 	 	 	 	1581539611	9.87	18.28
12/02/2020 20:33:32	120220	12022020	203332	238.94	12.328835	-56.888428	239.04	-0.380	-0.020	0.490	239.09	-1.40	0.90	 	 	 	 	 	 	 	 	 	 	 	 	 	 	 	 	 	 	1581539612	9.41	17.43
12/02/2020 20:33:33	120220	12022020	203333	239.59	12.328815	-56.888467	239.65	-0.330	0.400	0.370	239.67	-1.00	0.80	 	 	 	 	 	 	 	 	 	 	 	 	 	 	 	 	 	 	1581539613	9.30	17.22
12/02/2020 20:33:34	120220	12022020	203334	239.86	12.328795	-56.888508	239.89	-0.060	0.290	0.620	239.86	-1.10	1.00	 	 	 	 	 	 	 	 	 	 	 	 	 	 	 	 	 	 	1581539614	9.80	18.15
12/02/2020 20:33:35	120220	12022020	203335	239.74	12.328773	-56.888552	239.75	0.200	-0.060	1.020	239.68	-1.50	1.40	 	 	 	 	 	 	 	 	 	 	 	 	 	 	 	 	 	 	1581539615	10.17	18.83
12/02/2020 20:33:36	120220	12022020	203336	239.32	12.328753	-56.888593	239.30	0.280	-0.210	1.350	239.20	-1.60	1.80	 	 	 	 	 	 	 	 	 	 	 	 	 	 	 	 	 	 	1581539616	9.96	18.45
12/02/2020 20:33:37	120220	12022020	203337	238.66	12.328732	-56.888633	238.62	0.270	-0.190	1.500	238.51	-1.60	1.90	 	 	 	 	 	 	 	 	 	 	 	 	 	 	 	 	 	 	1581539617	9.61	17.80
12/02/2020 20:33:38	120220	12022020	203338	237.99	12.328710	-56.888673	237.96	0.290	-0.250	1.410	237.88	-1.60	1.80	 	 	 	 	 	 	 	 	 	 	 	 	 	 	 	 	 	 	1581539618	9.54	17.67
12/02/2020 20:33:39	120220	12022020	203339	237.59	12.328688	-56.888713	237.61	0.370	-0.520	1.100	237.56	-1.90	1.50	 	 	 	 	 	 	 	 	 	 	 	 	 	 	 	 	 	 	1581539619	9.71	17.98
12/02/2020 20:33:40	120220	12022020	203340	237.56	12.328667	-56.888755	237.61	0.350	-0.880	0.650	237.60	-2.30	1.00	 	 	 	 	 	 	 	 	 	 	 	 	 	 	 	 	 	 	1581539620	9.89	18.32
12/02/2020 20:33:41	120220	12022020	203341	237.89	12.328645	-56.888797	237.95	0.130	-1.040	0.190	237.99	-2.40	0.60	 	 	 	 	 	 	 	 	 	 	 	 	 	 	 	 	 	 	1581539621	9.90	18.33
12/02/2020 20:33:42	120220	12022020	203342	238.47	12.328623	-56.888837	238.53	-0.230	-0.830	-0.110	238.59	-2.20	0.30	 	 	 	 	 	 	 	 	 	 	 	 	 	 	 	 	 	 	1581539622	9.71	17.98
12/02/2020 20:33:43	120220	12022020	203343	239.08	12.328603	-56.888877	239.12	-0.530	-0.290	-0.130	239.17	-1.60	0.30	 	 	 	 	 	 	 	 	 	 	 	 	 	 	 	 	 	 	1581539623	9.47	17.54
12/02/2020 20:33:44	120220	12022020	203344	239.53	12.328583	-56.888915	239.56	-0.630	0.290	0.030	239.59	-1.10	0.40	 	 	 	 	 	 	 	 	 	 	 	 	 	 	 	 	 	 	1581539624	9.36	17.33
12/02/2020 20:33:45	120220	12022020	203345	239.73	12.328560	-56.888953	239.74	-0.520	0.510	0.320	239.73	-0.90	0.70	 	 	 	 	 	 	 	 	 	 	 	 	 	 	 	 	 	 	1581539625	9.55	17.69
12/02/2020 20:33:46	120220	12022020	203346	239.62	12.328538	-56.888995	239.62	-0.280	0.280	0.820	239.56	-1.10	1.30	 	 	 	 	 	 	 	 	 	 	 	 	 	 	 	 	 	 	1581539626	9.93	18.39
12/02/2020 20:33:47	120220	12022020	203347	239.29	12.328517	-56.889037	239.28	-0.040	-0.070	1.250	239.21	-1.50	1.70	 	 	 	 	 	 	 	 	 	 	 	 	 	 	 	 	 	 	1581539627	10.06	18.63
12/02/2020 20:33:48	120220	12022020	203348	238.90	12.328495	-56.889078	238.90	0.100	-0.260	1.340	238.82	-1.60	1.70	 	 	 	 	 	 	 	 	 	 	 	 	 	 	 	 	 	 	1581539628	9.79	18.13
12/02/2020 20:33:49	120220	12022020	203349	238.48	12.328472	-56.889117	238.47	0.230	-0.420	1.250	238.39	-1.80	1.60	 	 	 	 	 	 	 	 	 	 	 	 	 	 	 	 	 	 	1581539629	9.54	17.67
12/02/2020 20:33:50	120220	12022020	203350	238.03	12.328450	-56.889157	238.01	0.430	-0.740	1.200	237.94	-2.10	1.60	 	 	 	 	 	 	 	 	 	 	 	 	 	 	 	 	 	 	1581539630	9.68	17.93
12/02/2020 20:33:51	120220	12022020	203351	237.75	12.328430	-56.889198	237.71	0.590	-1.020	1.130	237.70	-2.40	1.50	 	 	 	 	 	 	 	 	 	 	 	 	 	 	 	 	 	 	1581539631	9.91	18.35
12/02/2020 20:33:52	120220	12022020	203352	237.69	12.328408	-56.889240	237.72	0.500	-0.900	0.950	237.72	-2.30	1.30	 	 	 	 	 	 	 	 	 	 	 	 	 	 	 	 	 	 	1581539632	9.74	18.04
12/02/2020 20:33:53	120220	12022020	203353	237.87	12.328390	-56.889280	237.98	0.130	-0.460	0.790	237.92	-1.80	1.20	 	 	 	 	 	 	 	 	 	 	 	 	 	 	 	 	 	 	1581539633	9.45	17.50
12/02/2020 20:33:54	120220	12022020	203354	238.34	12.328370	-56.889320	238.39	-0.250	-0.020	0.640	238.43	-1.40	1.00	 	 	 	 	 	 	 	 	 	 	 	 	 	 	 	 	 	 	1581539634	9.43	17.46
12/02/2020 20:33:55	120220	12022020	203355	238.80	12.328350	-56.889362	238.85	-0.400	0.230	0.560	238.88	-1.10	0.90	 	 	 	 	 	 	 	 	 	 	 	 	 	 	 	 	 	 	1581539635	9.60	17.78
12/02/2020 20:33:56	120220	12022020	203356	239.17	12.328328	-56.889402	239.23	-0.320	0.250	0.530	239.23	-1.10	0.90	 	 	 	 	 	 	 	 	 	 	 	 	 	 	 	 	 	 	1581539636	9.83	18.21
12/02/2020 20:33:57	120220	12022020	203357	239.39	12.328305	-56.889442	239.42	-0.190	0.180	0.480	239.40	-1.20	0.90	 	 	 	 	 	 	 	 	 	 	 	 	 	 	 	 	 	 	1581539637	9.87	18.28
12/02/2020 20:33:58	120220	12022020	203358	239.38	12.328282	-56.889482	239.39	-0.130	0.010	0.440	239.34	-1.40	0.80	 	 	 	 	 	 	 	 	 	 	 	 	 	 	 	 	 	 	1581539638	9.77	18.09
12/02/2020 20:33:59	120220	12022020	203359	239.12	12.328257	-56.889520	239.12	-0.120	-0.290	0.430	239.05	-1.70	0.80	 	 	 	 	 	 	 	 	 	 	 	 	 	 	 	 	 	 	1581539639	9.78	18.11
12/02/2020 20:34:00	120220	12022020	203400	238.72	12.328233	-56.889558	238.71	-0.070	-0.590	0.430	238.64	-2.00	0.80	 	 	 	 	 	 	 	 	 	 	 	 	 	 	 	 	 	 	1581539640	9.74	18.04
12/02/2020 20:34:01	120220	12022020	203401	238.38	12.328210	-56.889598	238.38	0.000	-0.730	0.470	238.34	-2.10	0.90	 	 	 	 	 	 	 	 	 	 	 	 	 	 	 	 	 	 	1581539641	9.60	17.78
12/02/2020 20:34:02	120220	12022020	203402	238.30	12.328190	-56.889638	238.31	0.050	-0.720	0.620	238.31	-2.10	1.00	1014.60	26.60	26.80	20.60	20.70	203.0	69.0	69.0	391.0	28.5	213.00	4.70	75.00	9.30	15196	11356.0	27.5	27.5	1581539642	9.48	17.56
12/02/2020 20:34:03	120220	12022020	203403	238.38	12.328170	-56.889678	238.40	0.070	-0.670	0.860	238.40	-2.00	1.30	 	 	 	 	 	 	 	 	 	 	 	 	 	 	 	 	 	 	1581539643	9.55	17.69
12/02/2020 20:34:04	120220	12022020	203404	238.49	12.328152	-56.889720	238.50	0.110	-0.520	1.080	238.51	-1.90	1.50	 	 	 	 	 	 	 	 	 	 	 	 	 	 	 	 	 	 	1581539644	9.68	17.93
12/02/2020 20:34:05	120220	12022020	203405	238.58	12.328133	-56.889762	238.62	0.140	-0.250	1.180	238.60	-1.60	1.60	 	 	 	 	 	 	 	 	 	 	 	 	 	 	 	 	 	 	1581539645	9.63	17.83
12/02/2020 20:34:06	120220	12022020	203406	238.62	12.328112	-56.889802	238.63	0.110	-0.120	1.120	238.60	-1.50	1.50	 	 	 	 	 	 	 	 	 	 	 	 	 	 	 	 	 	 	1581539646	9.67	17.91
12/02/2020 20:34:07	120220	12022020	203407	238.48	12.328088	-56.889843	238.46	0.060	-0.240	0.870	238.45	-1.60	1.20	 	 	 	 	 	 	 	 	 	 	 	 	 	 	 	 	 	 	1581539647	9.95	18.43
12/02/2020 20:34:08	120220	12022020	203408	238.35	12.328063	-56.889883	238.34	-0.030	-0.380	0.490	238.34	-1.80	0.90	 	 	 	 	 	 	 	 	 	 	 	 	 	 	 	 	 	 	1581539648	10.12	18.74
12/02/2020 20:34:09	120220	12022020	203409	238.37	12.328040	-56.889923	238.37	-0.150	-0.230	0.210	238.40	-1.60	0.60	 	 	 	 	 	 	 	 	 	 	 	 	 	 	 	 	 	 	1581539649	9.90	18.33
12/02/2020 20:34:10	120220	12022020	203410	238.56	12.328018	-56.889962	238.56	-0.220	0.170	0.100	238.61	-1.20	0.50	 	 	 	 	 	 	 	 	 	 	 	 	 	 	 	 	 	 	1581539650	9.49	17.58
12/02/2020 20:34:11	120220	12022020	203411	238.89	12.327997	-56.890002	238.91	-0.160	0.480	0.020	238.99	-0.90	0.40	 	 	 	 	 	 	 	 	 	 	 	 	 	 	 	 	 	 	1581539651	9.36	17.33
12/02/2020 20:34:12	120220	12022020	203412	239.41	12.327975	-56.890040	239.43	-0.070	0.440	-0.210	239.52	-0.90	0.20	 	 	 	 	 	 	 	 	 	 	 	 	 	 	 	 	 	 	1581539652	9.48	17.56
12/02/2020 20:34:13	120220	12022020	203413	239.88	12.327953	-56.890080	239.87	-0.020	0.030	-0.280	239.94	-1.40	0.10	 	 	 	 	 	 	 	 	 	 	 	 	 	 	 	 	 	 	1581539653	9.67	17.91
12/02/2020 20:34:14	120220	12022020	203414	240.10	12.327932	-56.890122	240.08	-0.010	-0.580	0.050	240.11	-2.00	0.50	 	 	 	 	 	 	 	 	 	 	 	 	 	 	 	 	 	 	1581539654	9.83	18.21
12/02/2020 20:34:15	120220	12022020	203415	240.05	12.327912	-56.890162	240.01	0.050	-1.020	0.600	240.01	-2.40	1.00	 	 	 	 	 	 	 	 	 	 	 	 	 	 	 	 	 	 	1581539655	9.75	18.06
12/02/2020 20:34:16	120220	12022020	203416	239.75	12.327892	-56.890203	239.70	0.180	-1.120	1.120	239.66	-2.50	1.50	 	 	 	 	 	 	 	 	 	 	 	 	 	 	 	 	 	 	1581539656	9.56	17.71
12/02/2020 20:34:17	120220	12022020	203417	239.41	12.327873	-56.890243	239.31	0.330	-1.020	1.440	239.33	-2.40	1.80	 	 	 	 	 	 	 	 	 	 	 	 	 	 	 	 	 	 	1581539657	9.50	17.59
12/02/2020 20:34:18	120220	12022020	203418	239.05	12.327853	-56.890285	239.05	0.350	-0.840	1.450	239.03	-2.20	1.80	 	 	 	 	 	 	 	 	 	 	 	 	 	 	 	 	 	 	1581539658	9.66	17.89
12/02/2020 20:34:19	120220	12022020	203419	239.02	12.327832	-56.890325	239.04	0.190	-0.620	1.180	239.04	-2.00	1.60	 	 	 	 	 	 	 	 	 	 	 	 	 	 	 	 	 	 	1581539659	9.80	18.15
12/02/2020 20:34:20	120220	12022020	203420	239.16	12.327810	-56.890367	239.18	-0.110	-0.390	0.810	239.20	-1.80	1.20	 	 	 	 	 	 	 	 	 	 	 	 	 	 	 	 	 	 	1581539660	9.92	18.37
12/02/2020 20:34:21	120220	12022020	203421	239.38	12.327788	-56.890408	239.37	-0.410	-0.190	0.540	239.42	-1.60	0.90	 	 	 	 	 	 	 	 	 	 	 	 	 	 	 	 	 	 	1581539661	10.04	18.59
12/02/2020 20:34:22	120220	12022020	203422	239.55	12.327767	-56.890452	239.54	-0.550	0.010	0.450	239.59	-1.40	0.80	 	 	 	 	 	 	 	 	 	 	 	 	 	 	 	 	 	 	1581539662	10.11	18.72
12/02/2020 20:34:23	120220	12022020	203423	239.72	12.327747	-56.890493	239.71	-0.540	0.420	0.430	239.76	-0.90	0.80	 	 	 	 	 	 	 	 	 	 	 	 	 	 	 	 	 	 	1581539663	9.93	18.39
12/02/2020 20:34:24	120220	12022020	203424	239.90	12.327727	-56.890533	239.91	-0.470	0.970	0.330	239.94	-0.40	0.70	 	 	 	 	 	 	 	 	 	 	 	 	 	 	 	 	 	 	1581539664	9.43	17.46
12/02/2020 20:34:25	120220	12022020	203425	240.08	12.327705	-56.890572	240.09	-0.280	1.140	0.180	240.11	-0.30	0.60	 	 	 	 	 	 	 	 	 	 	 	 	 	 	 	 	 	 	1581539665	9.28	17.19
12/02/2020 20:34:26	120220	12022020	203426	240.22	12.327682	-56.890610	240.22	0.100	0.620	0.140	240.23	-0.80	0.50	 	 	 	 	 	 	 	 	 	 	 	 	 	 	 	 	 	 	1581539666	9.60	17.78
12/02/2020 20:34:27	120220	12022020	203427	240.26	12.327660	-56.890652	240.25	0.550	-0.390	0.380	240.25	-1.80	0.80	 	 	 	 	 	 	 	 	 	 	 	 	 	 	 	 	 	 	1581539667	9.97	18.46
12/02/2020 20:34:28	120220	12022020	203428	240.20	12.327638	-56.890695	240.19	0.810	-1.350	0.820	240.17	-2.80	1.20	 	 	 	 	 	 	 	 	 	 	 	 	 	 	 	 	 	 	1581539668	10.05	18.61
12/02/2020 20:34:29	120220	12022020	203429	240.07	12.327620	-56.890737	240.02	0.770	-1.770	1.330	240.03	-3.20	1.70	 	 	 	 	 	 	 	 	 	 	 	 	 	 	 	 	 	 	1581539669	9.73	18.02
12/02/2020 20:34:30	120220	12022020	203430	239.65	12.327603	-56.890778	239.64	0.490	-1.700	1.860	239.55	-3.10	2.30	 	 	 	 	 	 	 	 	 	 	 	 	 	 	 	 	 	 	1581539670	9.49	17.58
12/02/2020 20:34:31	120220	12022020	203431	239.12	12.327585	-56.890820	239.12	0.170	-1.390	2.190	239.02	-2.70	2.60	 	 	 	 	 	 	 	 	 	 	 	 	 	 	 	 	 	 	1581539671	9.60	17.78
12/02/2020 20:34:32	120220	12022020	203432	238.66	12.327567	-56.890862	238.69	-0.100	-0.910	2.120	238.60	-2.30	2.50	 	 	 	 	 	 	 	 	 	 	 	 	 	 	 	 	 	 	1581539672	9.82	18.19
12/02/2020 20:34:33	120220	12022020	203433	238.44	12.327547	-56.890903	238.49	-0.330	-0.280	1.780	238.43	-1.60	2.20	 	 	 	 	 	 	 	 	 	 	 	 	 	 	 	 	 	 	1581539673	9.93	18.39
12/02/2020 20:34:34	120220	12022020	203434	238.48	12.327525	-56.890945	238.55	-0.560	0.430	1.270	238.51	-0.90	1.60	 	 	 	 	 	 	 	 	 	 	 	 	 	 	 	 	 	 	1581539674	9.87	18.28
12/02/2020 20:34:35	120220	12022020	203435	238.78	12.327502	-56.890985	238.85	-0.730	0.980	0.630	238.88	-0.40	1.00	 	 	 	 	 	 	 	 	 	 	 	 	 	 	 	 	 	 	1581539675	9.75	18.06
12/02/2020 20:34:36	120220	12022020	203436	239.28	12.327478	-56.891025	239.35	-0.700	1.100	0.010	239.39	-0.30	0.40	 	 	 	 	 	 	 	 	 	 	 	 	 	 	 	 	 	 	1581539676	9.79	18.13
12/02/2020 20:34:37	120220	12022020	203437	239.71	12.327455	-56.891065	239.74	-0.370	0.750	-0.220	239.77	-0.70	0.20	 	 	 	 	 	 	 	 	 	 	 	 	 	 	 	 	 	 	1581539677	9.97	18.46
12/02/2020 20:34:38	120220	12022020	203438	239.95	12.327432	-56.891107	239.96	0.130	0.200	-0.060	239.99	-1.20	0.40	 	 	 	 	 	 	 	 	 	 	 	 	 	 	 	 	 	 	1581539678	9.96	18.45
12/02/2020 20:34:39	120220	12022020	203439	240.10	12.327410	-56.891147	240.11	0.550	-0.330	0.270	240.11	-1.70	0.70	 	 	 	 	 	 	 	 	 	 	 	 	 	 	 	 	 	 	1581539679	9.73	18.02
12/02/2020 20:34:40	120220	12022020	203440	240.12	12.327392	-56.891187	240.13	0.720	-0.800	0.710	240.11	-2.20	1.10	 	 	 	 	 	 	 	 	 	 	 	 	 	 	 	 	 	 	1581539680	9.58	17.74
12/02/2020 20:34:41	120220	12022020	203441	240.06	12.327372	-56.891228	240.05	0.640	-1.110	1.120	240.05	-2.50	1.50	 	 	 	 	 	 	 	 	 	 	 	 	 	 	 	 	 	 	1581539681	9.59	17.76
12/02/2020 20:34:42	120220	12022020	203442	239.96	12.327355	-56.891270	239.97	0.410	-1.050	1.340	239.93	-2.40	1.70	 	 	 	 	 	 	 	 	 	 	 	 	 	 	 	 	 	 	1581539682	9.49	17.58
12/02/2020 20:34:43	120220	12022020	203443	239.79	12.327337	-56.891310	239.78	0.130	-0.780	1.300	239.75	-2.20	1.70	 	 	 	 	 	 	 	 	 	 	 	 	 	 	 	 	 	 	1581539683	9.36	17.33
12/02/2020 20:34:44	120220	12022020	203444	239.51	12.327317	-56.891350	239.49	-0.090	-0.640	1.070	239.45	-2.00	1.40	 	 	 	 	 	 	 	 	 	 	 	 	 	 	 	 	 	 	1581539684	9.55	17.69
12/02/2020 20:34:45	120220	12022020	203445	239.20	12.327295	-56.891392	239.17	-0.180	-0.700	0.730	239.15	-2.10	1.10	 	 	 	 	 	 	 	 	 	 	 	 	 	 	 	 	 	 	1581539685	9.94	18.41
12/02/2020 20:34:46	120220	12022020	203446	238.94	12.327272	-56.891433	238.91	-0.190	-0.700	0.490	238.89	-2.10	0.90	 	 	 	 	 	 	 	 	 	 	 	 	 	 	 	 	 	 	1581539686	10.15	18.80
12/02/2020 20:34:47	120220	12022020	203447	238.73	12.327248	-56.891475	238.71	-0.240	-0.430	0.480	238.70	-1.80	0.90	 	 	 	 	 	 	 	 	 	 	 	 	 	 	 	 	 	 	1581539687	10.01	18.54
12/02/2020 20:34:48	120220	12022020	203448	238.62	12.327228	-56.891517	238.62	-0.370	0.040	0.730	238.63	-1.30	1.10	 	 	 	 	 	 	 	 	 	 	 	 	 	 	 	 	 	 	1581539688	9.76	18.08
12/02/2020 20:34:49	120220	12022020	203449	238.72	12.327210	-56.891557	238.75	-0.460	0.460	1.110	238.77	-0.90	1.50	 	 	 	 	 	 	 	 	 	 	 	 	 	 	 	 	 	 	1581539689	9.65	17.87
12/02/2020 20:34:50	120220	12022020	203450	238.98	12.327192	-56.891600	239.03	-0.370	0.550	1.430	239.04	-0.80	1.80	 	 	 	 	 	 	 	 	 	 	 	 	 	 	 	 	 	 	1581539690	9.80	18.15
12/02/2020 20:34:51	120220	12022020	203451	239.32	12.327172	-56.891643	239.39	-0.140	0.380	1.440	239.39	-1.00	1.80	 	 	 	 	 	 	 	 	 	 	 	 	 	 	 	 	 	 	1581539691	9.99	18.50
12/02/2020 20:34:52	120220	12022020	203452	239.66	12.327152	-56.891685	239.72	0.140	0.270	1.030	239.72	-1.10	1.40	 	 	 	 	 	 	 	 	 	 	 	 	 	 	 	 	 	 	1581539692	9.79	18.13
12/02/2020 20:34:53	120220	12022020	203453	239.97	12.327130	-56.891723	240.02	0.370	0.270	0.360	240.03	-1.10	0.70	 	 	 	 	 	 	 	 	 	 	 	 	 	 	 	 	 	 	1581539693	9.36	17.33
12/02/2020 20:34:54	120220	12022020	203454	240.22	12.327107	-56.891760	240.23	0.560	-0.010	-0.160	240.24	-1.40	0.20	 	 	 	 	 	 	 	 	 	 	 	 	 	 	 	 	 	 	1581539694	9.32	17.26
12/02/2020 20:34:55	120220	12022020	203455	240.21	12.327085	-56.891800	240.16	0.660	-0.670	-0.110	240.18	-2.10	0.30	 	 	 	 	 	 	 	 	 	 	 	 	 	 	 	 	 	 	1581539695	9.72	18.00
12/02/2020 20:34:56	120220	12022020	203456	239.88	12.327063	-56.891842	239.83	0.600	-1.320	0.300	239.78	-2.70	0.70	 	 	 	 	 	 	 	 	 	 	 	 	 	 	 	 	 	 	1581539696	9.97	18.46
12/02/2020 20:34:57	120220	12022020	203457	239.33	12.327043	-56.891883	239.28	0.340	-1.620	0.880	239.21	-3.00	1.30	 	 	 	 	 	 	 	 	 	 	 	 	 	 	 	 	 	 	1581539697	9.90	18.33
12/02/2020 20:34:58	120220	12022020	203458	238.69	12.327023	-56.891927	238.67	-0.030	-1.570	1.430	238.60	-2.90	1.80	 	 	 	 	 	 	 	 	 	 	 	 	 	 	 	 	 	 	1581539698	9.85	18.24
12/02/2020 20:34:59	120220	12022020	203459	238.31	12.327003	-56.891968	238.32	-0.410	-1.140	1.760	238.27	-2.50	2.10	 	 	 	 	 	 	 	 	 	 	 	 	 	 	 	 	 	 	1581539699	9.81	18.17
12/02/2020 20:35:00	120220	12022020	203500	238.26	12.326985	-56.892010	238.31	-0.710	-0.410	1.730	238.28	-1.80	2.10	 	 	 	 	 	 	 	 	 	 	 	 	 	 	 	 	 	 	1581539700	9.67	17.91
12/02/2020 20:35:01	120220	12022020	203501	238.47	12.326965	-56.892050	238.54	-0.840	0.260	1.430	238.53	-1.10	1.80	 	 	 	 	 	 	 	 	 	 	 	 	 	 	 	 	 	 	1581539701	9.62	17.82
12/02/2020 20:35:02	120220	12022020	203502	238.71	12.326945	-56.892092	238.77	-0.680	0.570	1.050	238.75	-0.80	1.40	1014.60	26.50	26.60	20.50	20.60	213.0	69.0	69.0	391.0	28.5	218.00	5.50	79.00	10.00	15403	9300.0	27.5	27.5	1581539702	9.84	18.22
12/02/2020 20:35:03	120220	12022020	203503	238.83	12.326922	-56.892133	238.89	-0.260	0.540	0.820	238.84	-0.90	1.20	 	 	 	 	 	 	 	 	 	 	 	 	 	 	 	 	 	 	1581539703	10.13	18.76
12/02/2020 20:35:04	120220	12022020	203504	238.84	12.326900	-56.892177	238.88	0.230	0.430	0.830	238.83	-1.00	1.20	 	 	 	 	 	 	 	 	 	 	 	 	 	 	 	 	 	 	1581539704	10.18	18.85
12/02/2020 20:35:05	120220	12022020	203505	238.84	12.326880	-56.892218	238.88	0.510	0.410	0.910	238.85	-1.00	1.30	 	 	 	 	 	 	 	 	 	 	 	 	 	 	 	 	 	 	1581539705	9.90	18.33
12/02/2020 20:35:06	120220	12022020	203506	238.95	12.326860	-56.892260	239.02	0.490	0.400	0.800	239.00	-1.00	1.20	 	 	 	 	 	 	 	 	 	 	 	 	 	 	 	 	 	 	1581539706	9.60	17.78
12/02/2020 20:35:07	120220	12022020	203507	239.17	12.326840	-56.892298	239.30	0.370	0.270	0.340	239.23	-1.10	0.70	 	 	 	 	 	 	 	 	 	 	 	 	 	 	 	 	 	 	1581539707	9.44	17.48
12/02/2020 20:35:08	120220	12022020	203508	239.60	12.326818	-56.892337	239.65	0.320	-0.060	-0.280	239.67	-1.50	0.10	 	 	 	 	 	 	 	 	 	 	 	 	 	 	 	 	 	 	1581539708	9.41	17.43
12/02/2020 20:35:09	120220	12022020	203509	239.87	12.326793	-56.892375	239.94	0.310	-0.680	-0.650	239.91	-2.10	-0.30	 	 	 	 	 	 	 	 	 	 	 	 	 	 	 	 	 	 	1581539709	9.62	17.82
12/02/2020 20:35:10	120220	12022020	203510	239.95	12.326768	-56.892415	239.94	0.270	-1.420	-0.300	239.92	-2.80	0.10	 	 	 	 	 	 	 	 	 	 	 	 	 	 	 	 	 	 	1581539710	9.85	18.24
12/02/2020 20:35:11	120220	12022020	203511	239.55	12.326748	-56.892457	239.50	0.130	-1.990	0.710	239.41	-3.40	1.20	 	 	 	 	 	 	 	 	 	 	 	 	 	 	 	 	 	 	1581539711	10.00	18.52
12/02/2020 20:35:12	120220	12022020	203512	238.71	12.326730	-56.892502	238.67	-0.100	-2.130	2.000	238.51	-3.50	2.40	 	 	 	 	 	 	 	 	 	 	 	 	 	 	 	 	 	 	1581539712	10.12	18.74
12/02/2020 20:35:13	120220	12022020	203513	237.75	12.326715	-56.892547	237.73	-0.400	-1.740	3.020	237.58	-3.10	3.40	 	 	 	 	 	 	 	 	 	 	 	 	 	 	 	 	 	 	1581539713	10.16	18.82
12/02/2020 20:35:14	120220	12022020	203514	237.09	12.326698	-56.892592	237.12	-0.660	-0.890	3.290	237.02	-2.20	3.70	 	 	 	 	 	 	 	 	 	 	 	 	 	 	 	 	 	 	1581539714	10.06	18.63
12/02/2020 20:35:15	120220	12022020	203515	236.95	12.326682	-56.892635	237.03	-0.730	0.230	2.830	236.99	-1.10	3.20	 	 	 	 	 	 	 	 	 	 	 	 	 	 	 	 	 	 	1581539715	9.85	18.24
12/02/2020 20:35:16	120220	12022020	203516	237.26	12.326662	-56.892675	237.35	-0.540	1.270	1.880	237.36	-0.10	2.20	 	 	 	 	 	 	 	 	 	 	 	 	 	 	 	 	 	 	1581539716	9.61	17.80
12/02/2020 20:35:17	120220	12022020	203517	237.76	12.326638	-56.892715	237.83	-0.170	1.720	0.910	237.85	0.30	1.30	 	 	 	 	 	 	 	 	 	 	 	 	 	 	 	 	 	 	1581539717	9.74	18.04
12/02/2020 20:35:18	120220	12022020	203518	238.15	12.326612	-56.892755	238.19	0.210	1.440	0.430	238.20	0.00	0.80	 	 	 	 	 	 	 	 	 	 	 	 	 	 	 	 	 	 	1581539718	10.10	18.71
12/02/2020 20:35:19	120220	12022020	203519	238.32	12.326588	-56.892797	238.38	0.430	0.760	0.430	238.35	-0.70	0.80	 	 	 	 	 	 	 	 	 	 	 	 	 	 	 	 	 	 	1581539719	10.19	18.87
12/02/2020 20:35:20	120220	12022020	203520	238.50	12.326565	-56.892837	238.53	0.500	0.110	0.540	238.53	-1.30	1.00	 	 	 	 	 	 	 	 	 	 	 	 	 	 	 	 	 	 	1581539720	9.85	18.24
12/02/2020 20:35:21	120220	12022020	203521	238.67	12.326543	-56.892875	238.71	0.510	-0.430	0.630	238.71	-1.90	1.00	 	 	 	 	 	 	 	 	 	 	 	 	 	 	 	 	 	 	1581539721	9.42	17.45
12/02/2020 20:35:22	120220	12022020	203522	238.78	12.326523	-56.892913	238.83	0.510	-1.090	0.830	238.77	-2.50	1.30	 	 	 	 	 	 	 	 	 	 	 	 	 	 	 	 	 	 	1581539722	9.36	17.33
12/02/2020 20:35:23	120220	12022020	203523	238.54	12.326502	-56.892955	238.55	0.440	-1.870	1.350	238.44	-3.30	1.80	 	 	 	 	 	 	 	 	 	 	 	 	 	 	 	 	 	 	1581539723	9.76	18.08
12/02/2020 20:35:24	120220	12022020	203524	237.89	12.326482	-56.892998	237.89	0.190	-2.270	2.020	237.73	-3.60	2.40	 	 	 	 	 	 	 	 	 	 	 	 	 	 	 	 	 	 	1581539724	10.00	18.52
12/02/2020 20:35:25	120220	12022020	203525	237.18	12.326463	-56.893040	237.20	-0.170	-1.860	2.390	237.06	-3.20	2.80	 	 	 	 	 	 	 	 	 	 	 	 	 	 	 	 	 	 	1581539725	9.72	18.00
12/02/2020 20:35:26	120220	12022020	203526	236.73	12.326447	-56.893080	236.76	-0.400	-0.900	2.220	236.68	-2.20	2.60	 	 	 	 	 	 	 	 	 	 	 	 	 	 	 	 	 	 	1581539726	9.29	17.21
12/02/2020 20:35:27	120220	12022020	203527	236.55	12.326425	-56.893120	236.59	-0.340	-0.070	1.750	236.52	-1.40	2.10	 	 	 	 	 	 	 	 	 	 	 	 	 	 	 	 	 	 	1581539727	9.38	17.37
12/02/2020 20:35:28	120220	12022020	203528	236.46	12.326402	-56.893160	236.52	-0.150	0.230	1.350	236.45	-1.20	1.70	 	 	 	 	 	 	 	 	 	 	 	 	 	 	 	 	 	 	1581539728	9.98	18.48
12/02/2020 20:35:29	120220	12022020	203529	236.48	12.326377	-56.893203	236.55	-0.110	0.120	1.150	236.50	-1.30	1.60	 	 	 	 	 	 	 	 	 	 	 	 	 	 	 	 	 	 	1581539729	10.56	19.56
12/02/2020 20:35:30	120220	12022020	203530	236.67	12.326352	-56.893247	236.77	-0.300	0.110	1.080	236.74	-1.30	1.50	 	 	 	 	 	 	 	 	 	 	 	 	 	 	 	 	 	 	1581539730	10.55	19.54
12/02/2020 20:35:31	120220	12022020	203531	237.01	12.326330	-56.893287	237.23	-0.530	0.500	0.970	237.12	-0.90	1.40	 	 	 	 	 	 	 	 	 	 	 	 	 	 	 	 	 	 	1581539731	10.00	18.52
12/02/2020 20:35:32	120220	12022020	203532	237.70	12.326308	-56.893327	237.81	-0.550	1.020	0.840	237.81	-0.40	1.20	 	 	 	 	 	 	 	 	 	 	 	 	 	 	 	 	 	 	1581539732	9.47	17.54
12/02/2020 20:35:33	120220	12022020	203533	238.16	12.326287	-56.893365	238.25	-0.250	1.210	0.810	238.22	-0.20	1.20	 	 	 	 	 	 	 	 	 	 	 	 	 	 	 	 	 	 	1581539733	9.32	17.26
12/02/2020 20:35:34	120220	12022020	203534	238.37	12.326265	-56.893405	238.42	0.270	0.750	0.780	238.38	-0.70	1.20	 	 	 	 	 	 	 	 	 	 	 	 	 	 	 	 	 	 	1581539734	9.58	17.74
12/02/2020 20:35:35	120220	12022020	203535	238.33	12.326242	-56.893445	238.36	0.750	-0.140	0.720	238.29	-1.60	1.10	 	 	 	 	 	 	 	 	 	 	 	 	 	 	 	 	 	 	1581539735	9.83	18.21
12/02/2020 20:35:36	120220	12022020	203536	238.00	12.326218	-56.893485	238.00	0.950	-1.090	0.870	237.89	-2.50	1.30	 	 	 	 	 	 	 	 	 	 	 	 	 	 	 	 	 	 	1581539736	9.84	18.22
12/02/2020 20:35:37	120220	12022020	203537	237.42	12.326197	-56.893523	237.42	0.810	-1.710	1.200	237.29	-3.10	1.60	 	 	 	 	 	 	 	 	 	 	 	 	 	 	 	 	 	 	1581539737	9.65	17.87
12/02/2020 20:35:38	120220	12022020	203538	236.85	12.326177	-56.893563	236.86	0.480	-1.910	1.480	236.76	-3.30	1.90	 	 	 	 	 	 	 	 	 	 	 	 	 	 	 	 	 	 	1581539738	9.51	17.61
12/02/2020 20:35:39	120220	12022020	203539	236.55	12.326157	-56.893605	236.60	0.090	-1.680	1.540	236.54	-3.00	1.90	 	 	 	 	 	 	 	 	 	 	 	 	 	 	 	 	 	 	1581539739	9.49	17.58
12/02/2020 20:35:40	120220	12022020	203540	236.66	12.326137	-56.893645	236.72	-0.290	-1.160	1.290	236.72	-2.50	1.70	 	 	 	 	 	 	 	 	 	 	 	 	 	 	 	 	 	 	1581539740	9.51	17.61
12/02/2020 20:35:41	120220	12022020	203541	237.01	12.326115	-56.893685	237.07	-0.570	-0.560	0.940	237.08	-1.90	1.30	 	 	 	 	 	 	 	 	 	 	 	 	 	 	 	 	 	 	1581539741	9.65	17.87
12/02/2020 20:35:42	120220	12022020	203542	237.26	12.326093	-56.893725	237.30	-0.650	-0.080	0.840	237.26	-1.40	1.30	 	 	 	 	 	 	 	 	 	 	 	 	 	 	 	 	 	 	1581539742	9.88	18.30
12/02/2020 20:35:43	120220	12022020	203543	237.09	12.326070	-56.893768	237.11	-0.550	0.170	1.190	237.01	-1.20	1.60	 	 	 	 	 	 	 	 	 	 	 	 	 	 	 	 	 	 	1581539743	10.23	18.95
12/02/2020 20:35:44	120220	12022020	203544	236.62	12.326048	-56.893812	236.64	-0.400	0.330	1.550	236.53	-1.00	2.00	 	 	 	 	 	 	 	 	 	 	 	 	 	 	 	 	 	 	1581539744	10.43	19.32
12/02/2020 20:35:45	120220	12022020	203545	236.32	12.326025	-56.893853	236.34	-0.340	0.700	1.480	236.28	-0.70	1.90	 	 	 	 	 	 	 	 	 	 	 	 	 	 	 	 	 	 	1581539745	10.15	18.80
12/02/2020 20:35:46	120220	12022020	203546	236.36	12.326002	-56.893892	236.46	-0.370	1.250	0.960	236.43	-0.10	1.40	 	 	 	 	 	 	 	 	 	 	 	 	 	 	 	 	 	 	1581539746	9.49	17.58
12/02/2020 20:35:47	120220	12022020	203547	236.84	12.325980	-56.893928	236.96	-0.260	1.440	0.380	236.95	0.00	0.80	 	 	 	 	 	 	 	 	 	 	 	 	 	 	 	 	 	 	1581539747	9.10	16.85
12/02/2020 20:35:48	120220	12022020	203548	237.39	12.325957	-56.893967	237.49	0.200	0.790	0.070	237.48	-0.70	0.50	 	 	 	 	 	 	 	 	 	 	 	 	 	 	 	 	 	 	1581539748	9.42	17.45
12/02/2020 20:35:49	120220	12022020	203549	237.71	12.325933	-56.894007	237.77	0.820	-0.510	0.270	237.73	-2.00	0.70	 	 	 	 	 	 	 	 	 	 	 	 	 	 	 	 	 	 	1581539749	9.98	18.48
12/02/2020 20:35:50	120220	12022020	203550	237.69	12.325912	-56.894050	237.72	1.180	-1.730	0.830	237.64	-3.20	1.30	 	 	 	 	 	 	 	 	 	 	 	 	 	 	 	 	 	 	1581539750	10.14	18.78
12/02/2020 20:35:51	120220	12022020	203551	237.37	12.325890	-56.894092	237.39	1.000	-2.300	1.460	237.28	-3.70	1.90	 	 	 	 	 	 	 	 	 	 	 	 	 	 	 	 	 	 	1581539751	9.84	18.22
12/02/2020 20:35:52	120220	12022020	203552	236.94	12.325870	-56.894130	236.98	0.430	-2.080	1.900	236.87	-3.40	2.30	 	 	 	 	 	 	 	 	 	 	 	 	 	 	 	 	 	 	1581539752	9.42	17.45
12/02/2020 20:35:53	120220	12022020	203553	236.56	12.325852	-56.894170	236.60	-0.170	-1.260	2.000	236.49	-2.60	2.40	 	 	 	 	 	 	 	 	 	 	 	 	 	 	 	 	 	 	1581539753	9.18	17.00
12/02/2020 20:35:54	120220	12022020	203554	236.26	12.325832	-56.894208	236.31	-0.510	-0.320	1.800	236.22	-1.70	2.20	 	 	 	 	 	 	 	 	 	 	 	 	 	 	 	 	 	 	1581539754	9.21	17.06
12/02/2020 20:35:55	120220	12022020	203555	236.16	12.325810	-56.894247	236.22	-0.580	0.340	1.350	236.17	-1.00	1.70	 	 	 	 	 	 	 	 	 	 	 	 	 	 	 	 	 	 	1581539755	9.52	17.63
12/02/2020 20:35:56	120220	12022020	203556	236.23	12.325785	-56.894287	236.29	-0.490	0.470	0.940	236.24	-0.90	1.40	 	 	 	 	 	 	 	 	 	 	 	 	 	 	 	 	 	 	1581539756	9.99	18.50
12/02/2020 20:35:57	120220	12022020	203557	236.24	12.325760	-56.894330	236.27	-0.350	0.260	0.920	236.24	-1.10	1.40	 	 	 	 	 	 	 	 	 	 	 	 	 	 	 	 	 	 	1581539757	10.39	19.24
12/02/2020 20:35:58	120220	12022020	203558	236.21	12.325738	-56.894372	236.26	-0.230	0.190	1.210	236.22	-1.20	1.60	 	 	 	 	 	 	 	 	 	 	 	 	 	 	 	 	 	 	1581539758	10.25	18.98
12/02/2020 20:35:59	120220	12022020	203559	236.36	12.325717	-56.894413	236.44	-0.200	0.230	1.420	236.41	-1.20	1.80	 	 	 	 	 	 	 	 	 	 	 	 	 	 	 	 	 	 	1581539759	9.85	18.24
12/02/2020 20:36:00	120220	12022020	203600	236.70	12.325697	-56.894455	236.82	-0.170	0.120	1.310	236.78	-1.30	1.70	 	 	 	 	 	 	 	 	 	 	 	 	 	 	 	 	 	 	1581539760	9.74	18.04
12/02/2020 20:36:01	120220	12022020	203601	237.24	12.325673	-56.894493	237.37	-0.060	-0.010	0.880	237.37	-1.40	1.30	 	 	 	 	 	 	 	 	 	 	 	 	 	 	 	 	 	 	1581539761	9.68	17.93
12/02/2020 20:36:02	120220	12022020	203602	237.86	12.325650	-56.894532	237.96	0.120	-0.080	0.390	237.96	-1.50	0.80	1014.60	26.50	26.50	20.30	20.40	162.0	69.0	69.0	391.0	28.5	219.00	5.40	78.00	9.90	13957	9171.0	27.5	27.5	1581539762	9.43	17.46
12/02/2020 20:36:03	120220	12022020	203603	238.21	12.325627	-56.894568	238.27	0.310	-0.240	0.250	238.23	-1.60	0.70	 	 	 	 	 	 	 	 	 	 	 	 	 	 	 	 	 	 	1581539763	9.36	17.33
12/02/2020 20:36:04	120220	12022020	203604	238.15	12.325603	-56.894607	238.19	0.460	-0.530	0.420	238.09	-1.90	0.90	 	 	 	 	 	 	 	 	 	 	 	 	 	 	 	 	 	 	1581539764	9.49	17.58
12/02/2020 20:36:05	120220	12022020	203605	237.79	12.325580	-56.894647	237.81	0.490	-0.850	0.600	237.70	-2.30	1.00	 	 	 	 	 	 	 	 	 	 	 	 	 	 	 	 	 	 	1581539765	9.63	17.83
12/02/2020 20:36:06	120220	12022020	203606	237.28	12.325558	-56.894687	237.28	0.380	-1.020	0.760	237.17	-2.40	1.20	 	 	 	 	 	 	 	 	 	 	 	 	 	 	 	 	 	 	1581539766	9.65	17.87
12/02/2020 20:36:07	120220	12022020	203607	236.75	12.325537	-56.894727	236.74	0.170	-1.040	1.030	236.65	-2.40	1.50	 	 	 	 	 	 	 	 	 	 	 	 	 	 	 	 	 	 	1581539767	9.67	17.91
12/02/2020 20:36:08	120220	12022020	203608	236.44	12.325515	-56.894767	236.47	-0.080	-0.900	1.230	236.43	-2.30	1.70	 	 	 	 	 	 	 	 	 	 	 	 	 	 	 	 	 	 	1581539768	9.77	18.09
12/02/2020 20:36:09	120220	12022020	203609	236.49	12.325495	-56.894808	236.54	-0.310	-0.560	1.300	236.52	-1.90	1.70	 	 	 	 	 	 	 	 	 	 	 	 	 	 	 	 	 	 	1581539769	9.74	18.04
12/02/2020 20:36:10	120220	12022020	203610	236.65	12.325475	-56.894850	236.71	-0.420	-0.170	1.380	236.69	-1.50	1.80	 	 	 	 	 	 	 	 	 	 	 	 	 	 	 	 	 	 	1581539770	9.75	18.06
12/02/2020 20:36:11	120220	12022020	203611	236.78	12.325453	-56.894892	236.84	-0.360	0.150	1.530	236.80	-1.20	1.90	 	 	 	 	 	 	 	 	 	 	 	 	 	 	 	 	 	 	1581539771	9.88	18.30
12/02/2020 20:36:12	120220	12022020	203612	236.89	12.325433	-56.894933	236.95	-0.260	0.360	1.590	236.91	-1.00	2.00	 	 	 	 	 	 	 	 	 	 	 	 	 	 	 	 	 	 	1581539772	9.93	18.39
12/02/2020 20:36:13	120220	12022020	203613	236.97	12.325412	-56.894975	237.02	-0.190	0.440	1.430	236.97	-0.90	1.80	 	 	 	 	 	 	 	 	 	 	 	 	 	 	 	 	 	 	1581539773	9.91	18.35
12/02/2020 20:36:14	120220	12022020	203614	237.02	12.325388	-56.895013	237.08	-0.130	0.490	1.010	237.04	-0.90	1.40	 	 	 	 	 	 	 	 	 	 	 	 	 	 	 	 	 	 	1581539774	9.77	18.09
12/02/2020 20:36:15	120220	12022020	203615	237.19	12.325363	-56.895052	237.27	-0.030	0.510	0.420	237.25	-0.90	0.80	 	 	 	 	 	 	 	 	 	 	 	 	 	 	 	 	 	 	1581539775	9.47	17.54
12/02/2020 20:36:16	120220	12022020	203616	237.45	12.325338	-56.895088	237.50	0.190	0.160	-0.120	237.49	-1.30	0.30	 	 	 	 	 	 	 	 	 	 	 	 	 	 	 	 	 	 	1581539776	9.42	17.45
12/02/2020 20:36:17	120220	12022020	203617	237.59	12.325313	-56.895127	237.62	0.480	-0.620	-0.240	237.60	-2.10	0.20	 	 	 	 	 	 	 	 	 	 	 	 	 	 	 	 	 	 	1581539777	9.75	18.06
12/02/2020 20:36:18	120220	12022020	203618	237.55	12.325290	-56.895167	237.56	0.620	-1.430	0.170	237.51	-2.90	0.60	 	 	 	 	 	 	 	 	 	 	 	 	 	 	 	 	 	 	1581539778	9.95	18.43
12/02/2020 20:36:19	120220	12022020	203619	237.28	12.325270	-56.895208	237.27	0.490	-1.830	0.880	237.20	-3.20	1.30	 	 	 	 	 	 	 	 	 	 	 	 	 	 	 	 	 	 	1581539779	9.90	18.33
12/02/2020 20:36:20	120220	12022020	203620	236.85	12.325250	-56.895250	236.86	0.150	-1.640	1.580	236.76	-3.00	2.00	 	 	 	 	 	 	 	 	 	 	 	 	 	 	 	 	 	 	1581539780	9.70	17.96
12/02/2020 20:36:21	120220	12022020	203621	236.41	12.325232	-56.895292	236.44	-0.250	-0.980	2.140	236.33	-2.30	2.60	 	 	 	 	 	 	 	 	 	 	 	 	 	 	 	 	 	 	1581539781	9.57	17.72
12/02/2020 20:36:22	120220	12022020	203622	236.11	12.325212	-56.895332	236.17	-0.520	-0.080	2.390	236.08	-1.40	2.80	 	 	 	 	 	 	 	 	 	 	 	 	 	 	 	 	 	 	1581539782	9.52	17.63
12/02/2020 20:36:23	120220	12022020	203623	236.05	12.325190	-56.895372	236.13	-0.600	0.710	2.290	236.06	-0.70	2.70	 	 	 	 	 	 	 	 	 	 	 	 	 	 	 	 	 	 	1581539783	9.55	17.69
12/02/2020 20:36:24	120220	12022020	203624	236.20	12.325168	-56.895412	236.31	-0.490	1.010	1.910	236.25	-0.40	2.30	 	 	 	 	 	 	 	 	 	 	 	 	 	 	 	 	 	 	1581539784	9.79	18.13
12/02/2020 20:36:25	120220	12022020	203625	236.51	12.325143	-56.895453	236.63	-0.310	0.790	1.400	236.58	-0.60	1.80	 	 	 	 	 	 	 	 	 	 	 	 	 	 	 	 	 	 	1581539785	10.09	18.69
12/02/2020 20:36:26	120220	12022020	203626	236.93	12.325118	-56.895493	237.06	-0.130	0.350	0.860	237.03	-1.10	1.30	 	 	 	 	 	 	 	 	 	 	 	 	 	 	 	 	 	 	1581539786	10.11	18.72
12/02/2020 20:36:27	120220	12022020	203627	237.41	12.325095	-56.895532	237.49	0.040	0.030	0.430	237.48	-1.40	0.90	 	 	 	 	 	 	 	 	 	 	 	 	 	 	 	 	 	 	1581539787	9.73	18.02
12/02/2020 20:36:28	120220	12022020	203628	237.66	12.325072	-56.895570	237.71	0.260	-0.350	0.410	237.66	-1.80	0.90	 	 	 	 	 	 	 	 	 	 	 	 	 	 	 	 	 	 	1581539788	9.42	17.45
12/02/2020 20:36:29	120220	12022020	203629	237.50	12.325052	-56.895610	237.52	0.500	-0.860	0.800	237.43	-2.30	1.30	 	 	 	 	 	 	 	 	 	 	 	 	 	 	 	 	 	 	1581539789	9.55	17.69
12/02/2020 20:36:30	120220	12022020	203630	237.08	12.325030	-56.895650	237.08	0.580	-1.290	1.170	236.99	-2.70	1.60	 	 	 	 	 	 	 	 	 	 	 	 	 	 	 	 	 	 	1581539790	9.67	17.91
12/02/2020 20:36:31	120220	12022020	203631	236.73	12.325008	-56.895690	236.76	0.420	-1.410	1.120	236.70	-2.80	1.50	 	 	 	 	 	 	 	 	 	 	 	 	 	 	 	 	 	 	1581539791	9.59	17.76
12/02/2020 20:36:32	120220	12022020	203632	236.68	12.324985	-56.895728	236.73	0.090	-1.240	0.760	236.70	-2.60	1.20	 	 	 	 	 	 	 	 	 	 	 	 	 	 	 	 	 	 	1581539792	9.53	17.65
12/02/2020 20:36:33	120220	12022020	203633	236.81	12.324962	-56.895768	236.87	-0.200	-0.820	0.430	236.84	-2.20	0.90	 	 	 	 	 	 	 	 	 	 	 	 	 	 	 	 	 	 	1581539793	9.62	17.82
12/02/2020 20:36:34	120220	12022020	203634	237.00	12.324938	-56.895807	237.06	-0.400	-0.060	0.380	237.05	-1.40	0.80	 	 	 	 	 	 	 	 	 	 	 	 	 	 	 	 	 	 	1581539794	9.55	17.69
12/02/2020 20:36:35	120220	12022020	203635	237.16	12.324918	-56.895845	237.28	-0.510	0.780	0.700	237.20	-0.60	1.20	 	 	 	 	 	 	 	 	 	 	 	 	 	 	 	 	 	 	1581539795	9.36	17.33
12/02/2020 20:36:36	120220	12022020	203636	237.38	12.324898	-56.895885	237.46	-0.500	1.160	1.150	237.41	-0.20	1.60	 	 	 	 	 	 	 	 	 	 	 	 	 	 	 	 	 	 	1581539796	9.54	17.67
12/02/2020 20:36:37	120220	12022020	203637	237.43	12.324878	-56.895927	237.49	-0.330	0.930	1.510	237.43	-0.50	1.90	 	 	 	 	 	 	 	 	 	 	 	 	 	 	 	 	 	 	1581539797	9.91	18.35
12/02/2020 20:36:38	120220	12022020	203638	237.45	12.324857	-56.895970	237.52	-0.050	0.360	1.500	237.47	-1.10	1.90	 	 	 	 	 	 	 	 	 	 	 	 	 	 	 	 	 	 	1581539798	10.06	18.63
12/02/2020 20:36:39	120220	12022020	203639	237.60	12.324833	-56.896010	237.68	0.240	-0.190	1.040	237.64	-1.60	1.40	 	 	 	 	 	 	 	 	 	 	 	 	 	 	 	 	 	 	1581539799	9.76	18.08
12/02/2020 20:36:40	120220	12022020	203640	237.72	12.324810	-56.896047	237.78	0.480	-0.720	0.470	237.73	-2.10	0.90	 	 	 	 	 	 	 	 	 	 	 	 	 	 	 	 	 	 	1581539800	9.46	17.52
12/02/2020 20:36:41	120220	12022020	203641	237.71	12.324787	-56.896085	237.74	0.630	-1.320	0.100	237.69	-2.70	0.50	 	 	 	 	 	 	 	 	 	 	 	 	 	 	 	 	 	 	1581539801	9.52	17.63
12/02/2020 20:36:42	120220	12022020	203642	237.50	12.324762	-56.896123	237.51	0.570	-1.820	0.210	237.44	-3.20	0.70	 	 	 	 	 	 	 	 	 	 	 	 	 	 	 	 	 	 	1581539802	9.71	17.98
12/02/2020 20:36:43	120220	12022020	203643	237.09	12.324742	-56.896165	237.08	0.230	-1.800	0.720	236.99	-3.20	1.20	 	 	 	 	 	 	 	 	 	 	 	 	 	 	 	 	 	 	1581539803	9.72	18.00
12/02/2020 20:36:44	120220	12022020	203644	236.58	12.324722	-56.896205	236.58	-0.260	-1.140	1.300	236.48	-2.50	1.80	 	 	 	 	 	 	 	 	 	 	 	 	 	 	 	 	 	 	1581539804	9.51	17.61
12/02/2020 20:36:45	120220	12022020	203645	236.20	12.324703	-56.896245	236.23	-0.640	-0.150	1.700	236.15	-1.50	2.10	 	 	 	 	 	 	 	 	 	 	 	 	 	 	 	 	 	 	1581539805	9.39	17.39
12/02/2020 20:36:46	120220	12022020	203646	236.15	12.324685	-56.896287	236.24	-0.760	0.800	1.720	236.20	-0.50	2.10	 	 	 	 	 	 	 	 	 	 	 	 	 	 	 	 	 	 	1581539806	9.44	17.48
12/02/2020 20:36:47	120220	12022020	203647	236.42	12.324663	-56.896325	236.63	-0.610	1.370	1.370	236.50	0.00	1.80	 	 	 	 	 	 	 	 	 	 	 	 	 	 	 	 	 	 	1581539807	9.51	17.61
12/02/2020 20:36:48	120220	12022020	203648	237.06	12.324640	-56.896365	237.20	-0.260	1.320	0.990	237.18	-0.10	1.40	 	 	 	 	 	 	 	 	 	 	 	 	 	 	 	 	 	 	1581539808	9.71	17.98
12/02/2020 20:36:49	120220	12022020	203649	237.61	12.324617	-56.896405	237.73	0.170	0.680	0.790	237.70	-0.80	1.20	 	 	 	 	 	 	 	 	 	 	 	 	 	 	 	 	 	 	1581539809	9.96	18.45
12/02/2020 20:36:50	120220	12022020	203650	238.04	12.324593	-56.896445	238.15	0.540	-0.240	0.840	238.10	-1.70	1.30	 	 	 	 	 	 	 	 	 	 	 	 	 	 	 	 	 	 	1581539810	9.99	18.50
12/02/2020 20:36:51	120220	12022020	203651	238.27	12.324572	-56.896487	238.36	0.730	-1.050	1.070	238.29	-2.50	1.50	 	 	 	 	 	 	 	 	 	 	 	 	 	 	 	 	 	 	1581539811	9.79	18.13
12/02/2020 20:36:52	120220	12022020	203652	238.22	12.324550	-56.896527	238.28	0.650	-1.510	1.370	238.18	-2.90	1.80	 	 	 	 	 	 	 	 	 	 	 	 	 	 	 	 	 	 	1581539812	9.52	17.63
12/02/2020 20:36:53	120220	12022020	203653	237.94	12.324530	-56.896565	237.99	0.330	-1.520	1.610	237.87	-2.90	2.00	 	 	 	 	 	 	 	 	 	 	 	 	 	 	 	 	 	 	1581539813	9.31	17.24
12/02/2020 20:36:54	120220	12022020	203654	237.54	12.324510	-56.896603	237.58	-0.060	-1.090	1.640	237.45	-2.40	2.10	 	 	 	 	 	 	 	 	 	 	 	 	 	 	 	 	 	 	1581539814	9.16	16.96
12/02/2020 20:36:55	120220	12022020	203655	237.16	12.324488	-56.896640	237.20	-0.340	-0.360	1.440	237.09	-1.70	1.90	 	 	 	 	 	 	 	 	 	 	 	 	 	 	 	 	 	 	1581539815	9.05	16.76
12/02/2020 20:36:56	120220	12022020	203656	236.93	12.324467	-56.896678	236.99	-0.470	0.210	1.120	236.91	-1.20	1.50	 	 	 	 	 	 	 	 	 	 	 	 	 	 	 	 	 	 	1581539816	9.19	17.02
12/02/2020 20:36:57	120220	12022020	203657	236.93	12.324443	-56.896717	237.02	-0.500	0.320	0.870	236.95	-1.10	1.30	 	 	 	 	 	 	 	 	 	 	 	 	 	 	 	 	 	 	1581539817	9.60	17.78
12/02/2020 20:36:58	120220	12022020	203658	237.14	12.324422	-56.896758	237.24	-0.420	0.130	0.670	237.20	-1.30	1.10	 	 	 	 	 	 	 	 	 	 	 	 	 	 	 	 	 	 	1581539818	9.93	18.39
12/02/2020 20:36:59	120220	12022020	203659	237.42	12.324400	-56.896798	237.59	-0.210	-0.100	0.500	237.49	-1.50	0.90	 	 	 	 	 	 	 	 	 	 	 	 	 	 	 	 	 	 	1581539819	9.92	18.37
12/02/2020 20:37:00	120220	12022020	203700	237.90	12.324378	-56.896840	238.00	0.120	-0.290	0.400	237.98	-1.70	0.80	 	 	 	 	 	 	 	 	 	 	 	 	 	 	 	 	 	 	1581539820	9.77	18.09
12/02/2020 20:37:01	120220	12022020	203701	238.27	12.324357	-56.896880	238.34	0.420	-0.390	0.460	238.33	-1.80	0.90	 	 	 	 	 	 	 	 	 	 	 	 	 	 	 	 	 	 	1581539821	9.65	17.87
12/02/2020 20:37:02	120220	12022020	203702	238.53	12.324337	-56.896920	238.60	0.540	-0.360	0.650	238.56	-1.80	1.10	1014.60	26.50	26.60	20.40	20.50	114.0	69.0	69.0	390.0	28.4	222.00	5.40	79.00	9.70	13010	8777.0	27.5	27.5	1581539822	9.52	17.63
12/02/2020 20:37:03	120220	12022020	203703	238.65	12.324317	-56.896960	238.71	0.380	-0.210	0.870	238.66	-1.60	1.30	 	 	 	 	 	 	 	 	 	 	 	 	 	 	 	 	 	 	1581539823	9.39	17.39
12/02/2020 20:37:04	120220	12022020	203704	238.66	12.324297	-56.896998	238.71	0.060	-0.040	1.140	238.64	-1.40	1.60	 	 	 	 	 	 	 	 	 	 	 	 	 	 	 	 	 	 	1581539824	9.29	17.21
12/02/2020 20:37:05	120220	12022020	203705	238.48	12.324277	-56.897038	238.53	-0.190	-0.010	1.390	238.42	-1.40	1.80	 	 	 	 	 	 	 	 	 	 	 	 	 	 	 	 	 	 	1581539825	9.34	17.30
12/02/2020 20:37:06	120220	12022020	203706	238.17	12.324255	-56.897078	238.22	-0.240	-0.150	1.430	238.12	-1.60	1.80	 	 	 	 	 	 	 	 	 	 	 	 	 	 	 	 	 	 	1581539826	9.55	17.69
12/02/2020 20:37:07	120220	12022020	203707	237.92	12.324233	-56.897117	237.96	-0.140	-0.300	1.120	237.87	-1.70	1.50	 	 	 	 	 	 	 	 	 	 	 	 	 	 	 	 	 	 	1581539827	9.59	17.76
12/02/2020 20:37:08	120220	12022020	203708	237.65	12.324210	-56.897155	237.69	0.010	-0.360	0.700	237.60	-1.80	1.10	 	 	 	 	 	 	 	 	 	 	 	 	 	 	 	 	 	 	1581539828	9.48	17.56
12/02/2020 20:37:09	120220	12022020	203709	237.41	12.324187	-56.897192	237.46	0.150	-0.390	0.380	237.36	-1.80	0.80	 	 	 	 	 	 	 	 	 	 	 	 	 	 	 	 	 	 	1581539829	9.37	17.35
12/02/2020 20:37:10	120220	12022020	203710	237.19	12.324163	-56.897230	237.23	0.240	-0.580	0.400	237.14	-2.00	0.80	 	 	 	 	 	 	 	 	 	 	 	 	 	 	 	 	 	 	1581539830	9.44	17.48
12/02/2020 20:37:11	120220	12022020	203711	237.02	12.324142	-56.897272	237.03	0.220	-1.000	0.790	236.99	-2.40	1.20	 	 	 	 	 	 	 	 	 	 	 	 	 	 	 	 	 	 	1581539831	9.85	18.24
12/02/2020 20:37:12	120220	12022020	203712	236.94	12.324123	-56.897315	237.02	0.080	-1.230	1.270	236.97	-2.60	1.70	 	 	 	 	 	 	 	 	 	 	 	 	 	 	 	 	 	 	1581539832	10.09	18.69
12/02/2020 20:37:13	120220	12022020	203713	237.21	12.324105	-56.897358	237.33	-0.140	-0.940	1.510	237.31	-2.30	1.90	 	 	 	 	 	 	 	 	 	 	 	 	 	 	 	 	 	 	1581539833	9.86	18.26
12/02/2020 20:37:14	120220	12022020	203714	237.83	12.324087	-56.897398	237.97	-0.340	-0.190	1.290	237.97	-1.50	1.70	 	 	 	 	 	 	 	 	 	 	 	 	 	 	 	 	 	 	1581539834	9.38	17.37
12/02/2020 20:37:15	120220	12022020	203715	238.49	12.324065	-56.897435	238.61	-0.460	0.590	0.810	238.59	-0.80	1.20	 	 	 	 	 	 	 	 	 	 	 	 	 	 	 	 	 	 	1581539835	9.11	16.87
12/02/2020 20:37:16	120220	12022020	203716	238.83	12.324042	-56.897473	238.91	-0.370	0.880	0.440	238.84	-0.50	0.90	 	 	 	 	 	 	 	 	 	 	 	 	 	 	 	 	 	 	1581539836	9.35	17.32
12/02/2020 20:37:17	120220	12022020	203717	238.70	12.324017	-56.897512	238.73	-0.090	0.580	0.400	238.62	-0.80	0.80	 	 	 	 	 	 	 	 	 	 	 	 	 	 	 	 	 	 	1581539837	9.84	18.22
12/02/2020 20:37:18	120220	12022020	203718	238.12	12.323992	-56.897552	238.12	0.240	0.020	0.740	237.97	-1.40	1.20	 	 	 	 	 	 	 	 	 	 	 	 	 	 	 	 	 	 	1581539838	10.06	18.63
12/02/2020 20:37:19	120220	12022020	203719	237.35	12.323970	-56.897593	237.36	0.410	-0.420	1.230	237.21	-1.80	1.70	 	 	 	 	 	 	 	 	 	 	 	 	 	 	 	 	 	 	1581539839	9.88	18.30
12/02/2020 20:37:20	120220	12022020	203720	236.82	12.323948	-56.897633	236.87	0.350	-0.650	1.500	236.76	-2.00	1.90	 	 	 	 	 	 	 	 	 	 	 	 	 	 	 	 	 	 	1581539840	9.54	17.67
12/02/2020 20:37:21	120220	12022020	203721	236.69	12.323928	-56.897672	236.76	0.180	-0.800	1.450	236.70	-2.20	1.90	 	 	 	 	 	 	 	 	 	 	 	 	 	 	 	 	 	 	1581539841	9.40	17.41
12/02/2020 20:37:22	120220	12022020	203722	236.80	12.323908	-56.897712	236.89	0.030	-0.850	1.230	236.83	-2.20	1.60	 	 	 	 	 	 	 	 	 	 	 	 	 	 	 	 	 	 	1581539842	9.48	17.56
12/02/2020 20:37:23	120220	12022020	203723	237.04	12.323887	-56.897750	237.14	-0.080	-0.560	0.940	237.11	-1.90	1.30	 	 	 	 	 	 	 	 	 	 	 	 	 	 	 	 	 	 	1581539843	9.37	17.35
12/02/2020 20:37:24	120220	12022020	203724	237.38	12.323867	-56.897788	237.47	-0.140	-0.080	0.690	237.45	-1.50	1.10	 	 	 	 	 	 	 	 	 	 	 	 	 	 	 	 	 	 	1581539844	9.11	16.87
12/02/2020 20:37:25	120220	12022020	203725	237.63	12.323845	-56.897825	237.77	-0.100	0.150	0.600	237.68	-1.20	1.00	 	 	 	 	 	 	 	 	 	 	 	 	 	 	 	 	 	 	1581539845	9.21	17.06
12/02/2020 20:37:26	120220	12022020	203726	237.89	12.323823	-56.897865	237.97	0.060	-0.050	0.710	237.92	-1.50	1.20	 	 	 	 	 	 	 	 	 	 	 	 	 	 	 	 	 	 	1581539846	9.62	17.82
12/02/2020 20:37:27	120220	12022020	203727	238.01	12.323800	-56.897907	238.09	0.200	-0.430	0.870	238.03	-1.80	1.30	 	 	 	 	 	 	 	 	 	 	 	 	 	 	 	 	 	 	1581539847	9.90	18.33
12/02/2020 20:37:28	120220	12022020	203728	238.09	12.323778	-56.897947	238.16	0.200	-0.670	0.920	238.10	-2.10	1.40	 	 	 	 	 	 	 	 	 	 	 	 	 	 	 	 	 	 	1581539848	9.80	18.15
12/02/2020 20:37:29	120220	12022020	203729	238.14	12.323757	-56.897987	238.21	0.060	-0.760	0.900	238.14	-2.20	1.30	 	 	 	 	 	 	 	 	 	 	 	 	 	 	 	 	 	 	1581539849	9.64	17.85
12/02/2020 20:37:30	120220	12022020	203730	238.06	12.323733	-56.898027	238.13	-0.100	-0.750	0.850	238.03	-2.10	1.30	 	 	 	 	 	 	 	 	 	 	 	 	 	 	 	 	 	 	1581539850	9.62	17.82
12/02/2020 20:37:31	120220	12022020	203731	237.77	12.323712	-56.898065	237.82	-0.200	-0.690	0.900	237.68	-2.10	1.30	 	 	 	 	 	 	 	 	 	 	 	 	 	 	 	 	 	 	1581539851	9.74	18.04
12/02/2020 20:37:32	120220	12022020	203732	237.31	12.323688	-56.898107	237.36	-0.290	-0.490	1.120	237.22	-1.90	1.60	 	 	 	 	 	 	 	 	 	 	 	 	 	 	 	 	 	 	1581539852	9.84	18.22
12/02/2020 20:37:33	120220	12022020	203733	236.93	12.323668	-56.898147	236.99	-0.400	-0.050	1.290	236.88	-1.40	1.70	 	 	 	 	 	 	 	 	 	 	 	 	 	 	 	 	 	 	1581539853	9.74	18.04
12/02/2020 20:37:34	120220	12022020	203734	236.87	12.323648	-56.898188	236.97	-0.450	0.530	1.090	236.91	-0.80	1.50	 	 	 	 	 	 	 	 	 	 	 	 	 	 	 	 	 	 	1581539854	9.47	17.54
12/02/2020 20:37:35	120220	12022020	203735	237.27	12.323628	-56.898227	237.40	-0.310	0.970	0.540	237.40	-0.40	0.90	 	 	 	 	 	 	 	 	 	 	 	 	 	 	 	 	 	 	1581539855	9.28	17.19
12/02/2020 20:37:36	120220	12022020	203736	238.01	12.323605	-56.898263	238.16	0.000	0.960	0.020	238.17	-0.40	0.40	 	 	 	 	 	 	 	 	 	 	 	 	 	 	 	 	 	 	1581539856	9.34	17.30
12/02/2020 20:37:37	120220	12022020	203737	238.61	12.323582	-56.898302	238.84	0.340	0.430	0.030	238.72	-1.00	0.50	 	 	 	 	 	 	 	 	 	 	 	 	 	 	 	 	 	 	1581539857	9.58	17.74
12/02/2020 20:37:38	120220	12022020	203738	239.14	12.323560	-56.898343	239.23	0.560	-0.420	0.520	239.18	-1.90	1.00	 	 	 	 	 	 	 	 	 	 	 	 	 	 	 	 	 	 	1581539858	9.74	18.04
12/02/2020 20:37:39	120220	12022020	203739	239.22	12.323540	-56.898383	239.30	0.590	-1.220	1.170	239.20	-2.60	1.60	 	 	 	 	 	 	 	 	 	 	 	 	 	 	 	 	 	 	1581539859	9.72	18.00
12/02/2020 20:37:40	120220	12022020	203740	238.98	12.323523	-56.898425	239.04	0.460	-1.700	1.830	238.89	-3.10	2.30	 	 	 	 	 	 	 	 	 	 	 	 	 	 	 	 	 	 	1581539860	9.55	17.69
12/02/2020 20:37:41	120220	12022020	203741	238.45	12.323505	-56.898467	238.51	0.270	-1.800	2.410	238.33	-3.20	2.90	 	 	 	 	 	 	 	 	 	 	 	 	 	 	 	 	 	 	1581539861	9.47	17.54
12/02/2020 20:37:42	120220	12022020	203742	237.87	12.323487	-56.898507	237.93	0.080	-1.530	2.630	237.78	-2.90	3.00	 	 	 	 	 	 	 	 	 	 	 	 	 	 	 	 	 	 	1581539862	9.52	17.63
12/02/2020 20:37:43	120220	12022020	203743	237.57	12.323467	-56.898547	237.65	-0.130	-0.900	2.250	237.55	-2.30	2.60	 	 	 	 	 	 	 	 	 	 	 	 	 	 	 	 	 	 	1581539863	9.50	17.59
12/02/2020 20:37:44	120220	12022020	203744	237.52	12.323443	-56.898585	237.59	-0.360	-0.110	1.520	237.53	-1.50	1.90	 	 	 	 	 	 	 	 	 	 	 	 	 	 	 	 	 	 	1581539864	9.46	17.52
12/02/2020 20:37:45	120220	12022020	203745	237.62	12.323418	-56.898623	237.70	-0.580	0.470	0.710	237.67	-0.90	1.10	 	 	 	 	 	 	 	 	 	 	 	 	 	 	 	 	 	 	1581539865	9.64	17.85
12/02/2020 20:37:46	120220	12022020	203746	237.94	12.323393	-56.898663	238.04	-0.710	0.650	0.090	238.04	-0.80	0.50	 	 	 	 	 	 	 	 	 	 	 	 	 	 	 	 	 	 	1581539866	9.95	18.43
12/02/2020 20:37:47	120220	12022020	203747	238.48	12.323370	-56.898705	238.57	-0.690	0.630	-0.100	238.60	-0.80	0.30	 	 	 	 	 	 	 	 	 	 	 	 	 	 	 	 	 	 	1581539867	10.06	18.63
12/02/2020 20:37:48	120220	12022020	203748	239.05	12.323350	-56.898745	239.14	-0.490	0.700	0.150	239.15	-0.70	0.60	 	 	 	 	 	 	 	 	 	 	 	 	 	 	 	 	 	 	1581539868	9.74	18.04
12/02/2020 20:37:49	120220	12022020	203749	239.35	12.323333	-56.898787	239.46	-0.150	0.800	0.710	239.39	-0.60	1.20	 	 	 	 	 	 	 	 	 	 	 	 	 	 	 	 	 	 	1581539869	9.31	17.24
12/02/2020 20:37:50	120220	12022020	203750	239.40	12.323317	-56.898825	239.48	0.290	0.690	1.310	239.38	-0.70	1.80	 	 	 	 	 	 	 	 	 	 	 	 	 	 	 	 	 	 	1581539870	9.07	16.80
12/02/2020 20:37:51	120220	12022020	203751	239.21	12.323298	-56.898865	239.20	0.750	0.130	1.800	239.13	-1.30	2.20	 	 	 	 	 	 	 	 	 	 	 	 	 	 	 	 	 	 	1581539871	9.16	16.96
12/02/2020 20:37:52	120220	12022020	203752	238.60	12.323277	-56.898905	238.65	1.060	-0.860	1.970	238.48	-2.30	2.40	 	 	 	 	 	 	 	 	 	 	 	 	 	 	 	 	 	 	1581539872	9.58	17.74
12/02/2020 20:37:53	120220	12022020	203753	238.00	12.323253	-56.898945	238.05	0.980	-1.760	1.770	237.90	-3.20	2.20	 	 	 	 	 	 	 	 	 	 	 	 	 	 	 	 	 	 	1581539873	9.81	18.17
12/02/2020 20:37:54	120220	12022020	203754	237.56	12.323232	-56.898983	237.62	0.480	-2.040	1.370	237.50	-3.40	1.80	 	 	 	 	 	 	 	 	 	 	 	 	 	 	 	 	 	 	1581539874	9.52	17.63
12/02/2020 20:37:55	120220	12022020	203755	237.43	12.323212	-56.899022	237.50	-0.160	-1.700	0.700	237.45	-3.10	1.10	 	 	 	 	 	 	 	 	 	 	 	 	 	 	 	 	 	 	1581539875	9.16	16.96
12/02/2020 20:37:56	120220	12022020	203756	237.65	12.323190	-56.899058	237.73	-0.620	-1.100	-0.060	237.73	-2.50	0.30	 	 	 	 	 	 	 	 	 	 	 	 	 	 	 	 	 	 	1581539876	9.11	16.87
12/02/2020 20:37:57	120220	12022020	203757	238.09	12.323167	-56.899097	238.17	-0.750	-0.560	-0.470	238.19	-1.90	-0.00	 	 	 	 	 	 	 	 	 	 	 	 	 	 	 	 	 	 	1581539877	9.43	17.46
12/02/2020 20:37:58	120220	12022020	203758	238.51	12.323145	-56.899138	238.58	-0.680	-0.110	-0.230	238.59	-1.50	0.20	 	 	 	 	 	 	 	 	 	 	 	 	 	 	 	 	 	 	1581539878	9.81	18.17
12/02/2020 20:37:59	120220	12022020	203759	238.79	12.323125	-56.899180	238.85	-0.560	0.370	0.430	238.82	-1.00	0.90	 	 	 	 	 	 	 	 	 	 	 	 	 	 	 	 	 	 	1581539879	9.92	18.37
12/02/2020 20:38:00	120220	12022020	203800	238.80	12.323107	-56.899222	238.86	-0.430	0.900	1.220	238.77	-0.50	1.70	 	 	 	 	 	 	 	 	 	 	 	 	 	 	 	 	 	 	1581539880	9.74	18.04
12/02/2020 20:38:01	120220	12022020	203801	238.60	12.323088	-56.899263	238.57	-0.270	1.230	1.890	238.52	-0.20	2.30	 	 	 	 	 	 	 	 	 	 	 	 	 	 	 	 	 	 	1581539881	9.57	17.72
12/02/2020 20:38:02	120220	12022020	203802	238.08	12.323068	-56.899303	238.14	-0.040	1.180	2.180	237.99	-0.20	2.60	1014.60	26.50	26.50	20.30	20.40	131.0	68.0	69.0	390.0	28.3	220.00	5.40	79.00	9.70	13113	9394.0	27.5	27.5	1581539882	9.54	17.67
12/02/2020 20:38:03	120220	12022020	203803	237.70	12.323048	-56.899343	237.78	0.260	0.750	2.000	237.65	-0.70	2.40	 	 	 	 	 	 	 	 	 	 	 	 	 	 	 	 	 	 	1581539883	9.50	17.59
12/02/2020 20:38:04	120220	12022020	203804	237.58	12.323027	-56.899382	237.67	0.560	-0.010	1.380	237.58	-1.50	1.80	 	 	 	 	 	 	 	 	 	 	 	 	 	 	 	 	 	 	1581539884	9.46	17.52
12/02/2020 20:38:05	120220	12022020	203805	237.64	12.323002	-56.899420	237.73	0.750	-0.970	0.550	237.65	-2.40	0.90	 	 	 	 	 	 	 	 	 	 	 	 	 	 	 	 	 	 	1581539885	9.49	17.58
12/02/2020 20:38:06	120220	12022020	203806	237.73	12.322978	-56.899457	237.81	0.740	-1.820	-0.070	237.75	-3.20	0.40	 	 	 	 	 	 	 	 	 	 	 	 	 	 	 	 	 	 	1581539886	9.52	17.63
12/02/2020 20:38:07	120220	12022020	203807	237.82	12.322955	-56.899495	237.89	0.530	-2.260	-0.180	237.83	-3.70	0.30	 	 	 	 	 	 	 	 	 	 	 	 	 	 	 	 	 	 	1581539887	9.50	17.59
12/02/2020 20:38:08	120220	12022020	203808	237.86	12.322935	-56.899535	237.93	0.160	-2.020	0.160	237.86	-3.40	0.60	 	 	 	 	 	 	 	 	 	 	 	 	 	 	 	 	 	 	1581539888	9.38	17.37
12/02/2020 20:38:09	120220	12022020	203809	237.84	12.322917	-56.899575	237.90	-0.290	-1.110	0.670	237.82	-2.40	1.10	 	 	 	 	 	 	 	 	 	 	 	 	 	 	 	 	 	 	1581539889	9.22	17.08
12/02/2020 20:38:10	120220	12022020	203810	237.77	12.322900	-56.899615	237.84	-0.680	0.090	1.100	237.75	-1.20	1.50	 	 	 	 	 	 	 	 	 	 	 	 	 	 	 	 	 	 	1581539890	9.11	16.87
12/02/2020 20:38:11	120220	12022020	203811	237.67	12.322882	-56.899653	237.76	-0.870	1.000	1.300	237.65	-0.40	1.70	 	 	 	 	 	 	 	 	 	 	 	 	 	 	 	 	 	 	1581539891	9.25	17.13
12/02/2020 20:38:12	120220	12022020	203812	237.58	12.322858	-56.899693	237.67	-0.760	1.330	1.300	237.56	-0.10	1.70	 	 	 	 	 	 	 	 	 	 	 	 	 	 	 	 	 	 	1581539892	9.58	17.74
12/02/2020 20:38:13	120220	12022020	203813	237.50	12.322835	-56.899732	237.61	-0.420	1.030	1.150	237.48	-0.40	1.60	 	 	 	 	 	 	 	 	 	 	 	 	 	 	 	 	 	 	1581539893	9.91	18.35
12/02/2020 20:38:14	120220	12022020	203814	237.44	12.322810	-56.899773	237.54	0.060	0.330	0.930	237.43	-1.10	1.40	 	 	 	 	 	 	 	 	 	 	 	 	 	 	 	 	 	 	1581539894	10.06	18.63
12/02/2020 20:38:15	120220	12022020	203815	237.42	12.322785	-56.899813	237.50	0.520	-0.430	0.760	237.42	-1.90	1.20	 	 	 	 	 	 	 	 	 	 	 	 	 	 	 	 	 	 	1581539895	9.94	18.41
12/02/2020 20:38:16	120220	12022020	203816	237.38	12.322763	-56.899853	237.45	0.730	-1.050	0.790	237.37	-2.50	1.20	 	 	 	 	 	 	 	 	 	 	 	 	 	 	 	 	 	 	1581539896	9.74	18.04
12/02/2020 20:38:17	120220	12022020	203817	237.31	12.322743	-56.899893	237.36	0.600	-1.310	0.990	237.29	-2.70	1.40	 	 	 	 	 	 	 	 	 	 	 	 	 	 	 	 	 	 	1581539897	9.55	17.69
12/02/2020 20:38:18	120220	12022020	203818	237.27	12.322725	-56.899933	237.34	0.210	-1.090	1.150	237.28	-2.50	1.60	 	 	 	 	 	 	 	 	 	 	 	 	 	 	 	 	 	 	1581539898	9.27	17.17
12/02/2020 20:38:19	120220	12022020	203819	237.38	12.322707	-56.899972	237.46	-0.180	-0.580	1.040	237.42	-1.90	1.50	 	 	 	 	 	 	 	 	 	 	 	 	 	 	 	 	 	 	1581539899	9.07	16.80
12/02/2020 20:38:20	120220	12022020	203820	237.57	12.322687	-56.900010	237.64	-0.340	-0.070	0.760	237.61	-1.50	1.20	 	 	 	 	 	 	 	 	 	 	 	 	 	 	 	 	 	 	1581539900	9.09	16.83
12/02/2020 20:38:21	120220	12022020	203821	237.70	12.322663	-56.900047	237.76	-0.220	0.160	0.670	237.70	-1.20	1.10	 	 	 	 	 	 	 	 	 	 	 	 	 	 	 	 	 	 	1581539901	9.37	17.35
12/02/2020 20:38:22	120220	12022020	203822	237.63	12.322640	-56.900087	237.69	-0.030	0.140	0.900	237.59	-1.30	1.40	 	 	 	 	 	 	 	 	 	 	 	 	 	 	 	 	 	 	1581539902	9.71	17.98
12/02/2020 20:38:23	120220	12022020	203823	237.36	12.322618	-56.900127	237.41	0.030	0.110	1.240	237.30	-1.30	1.70	 	 	 	 	 	 	 	 	 	 	 	 	 	 	 	 	 	 	1581539903	9.76	18.08
12/02/2020 20:38:24	120220	12022020	203824	237.11	12.322597	-56.900165	237.18	-0.010	0.210	1.390	237.09	-1.20	1.80	 	 	 	 	 	 	 	 	 	 	 	 	 	 	 	 	 	 	1581539904	9.47	17.54
12/02/2020 20:38:25	120220	12022020	203825	237.04	12.322575	-56.900203	237.11	-0.010	0.190	1.280	237.03	-1.20	1.70	 	 	 	 	 	 	 	 	 	 	 	 	 	 	 	 	 	 	1581539905	9.24	17.11
12/02/2020 20:38:26	120220	12022020	203826	237.03	12.322553	-56.900242	237.11	0.160	-0.220	1.020	237.05	-1.70	1.40	 	 	 	 	 	 	 	 	 	 	 	 	 	 	 	 	 	 	1581539906	9.45	17.50
12/02/2020 20:38:27	120220	12022020	203827	237.14	12.322530	-56.900282	237.28	0.400	-0.850	0.650	237.19	-2.30	1.10	 	 	 	 	 	 	 	 	 	 	 	 	 	 	 	 	 	 	1581539907	9.71	17.98
12/02/2020 20:38:28	120220	12022020	203828	237.48	12.322507	-56.900322	237.56	0.510	-1.340	0.300	237.55	-2.70	0.70	 	 	 	 	 	 	 	 	 	 	 	 	 	 	 	 	 	 	1581539908	9.76	18.08
12/02/2020 20:38:29	120220	12022020	203829	237.81	12.322483	-56.900360	237.88	0.320	-1.400	0.200	237.86	-2.80	0.60	 	 	 	 	 	 	 	 	 	 	 	 	 	 	 	 	 	 	1581539909	9.60	17.78
12/02/2020 20:38:30	120220	12022020	203830	237.94	12.322463	-56.900400	237.99	-0.090	-0.940	0.500	237.93	-2.30	0.90	 	 	 	 	 	 	 	 	 	 	 	 	 	 	 	 	 	 	1581539910	9.37	17.35
12/02/2020 20:38:31	120220	12022020	203831	237.81	12.322445	-56.900438	237.84	-0.460	-0.140	1.060	237.76	-1.50	1.50	 	 	 	 	 	 	 	 	 	 	 	 	 	 	 	 	 	 	1581539911	9.18	17.00
12/02/2020 20:38:32	120220	12022020	203832	237.51	12.322427	-56.900478	237.54	-0.550	0.560	1.580	237.44	-0.80	2.00	 	 	 	 	 	 	 	 	 	 	 	 	 	 	 	 	 	 	1581539912	9.20	17.04
12/02/2020 20:38:33	120220	12022020	203833	237.19	12.322405	-56.900518	237.22	-0.330	0.660	1.840	237.12	-0.80	2.30	 	 	 	 	 	 	 	 	 	 	 	 	 	 	 	 	 	 	1581539913	9.64	17.85
12/02/2020 20:38:34	120220	12022020	203834	236.93	12.322383	-56.900560	236.99	-0.040	0.180	1.720	236.89	-1.20	2.10	 	 	 	 	 	 	 	 	 	 	 	 	 	 	 	 	 	 	1581539914	10.18	18.85
12/02/2020 20:38:35	120220	12022020	203835	236.82	12.322358	-56.900602	236.90	0.130	-0.320	1.260	236.83	-1.70	1.60	 	 	 	 	 	 	 	 	 	 	 	 	 	 	 	 	 	 	1581539915	10.23	18.95
12/02/2020 20:38:36	120220	12022020	203836	236.93	12.322333	-56.900640	237.01	0.110	-0.360	0.650	236.98	-1.70	1.00	 	 	 	 	 	 	 	 	 	 	 	 	 	 	 	 	 	 	1581539916	9.73	18.02
12/02/2020 20:38:37	120220	12022020	203837	237.25	12.322312	-56.900677	237.35	-0.020	0.050	0.130	237.34	-1.30	0.50	 	 	 	 	 	 	 	 	 	 	 	 	 	 	 	 	 	 	1581539917	8.99	16.65
12/02/2020 20:38:38	120220	12022020	203838	237.73	12.322288	-56.900712	237.84	-0.070	0.210	-0.230	237.83	-1.20	0.20	 	 	 	 	 	 	 	 	 	 	 	 	 	 	 	 	 	 	1581539918	8.82	16.33
12/02/2020 20:38:39	120220	12022020	203839	238.15	12.322267	-56.900750	238.22	0.050	-0.310	-0.110	238.20	-1.80	0.30	 	 	 	 	 	 	 	 	 	 	 	 	 	 	 	 	 	 	1581539919	9.44	17.48
12/02/2020 20:38:40	120220	12022020	203840	238.31	12.322247	-56.900793	238.38	0.260	-1.070	0.470	238.32	-2.50	0.90	 	 	 	 	 	 	 	 	 	 	 	 	 	 	 	 	 	 	1581539920	10.04	18.59
12/02/2020 20:38:41	120220	12022020	203841	238.25	12.322227	-56.900835	238.29	0.380	-1.310	1.210	238.21	-2.70	1.70	 	 	 	 	 	 	 	 	 	 	 	 	 	 	 	 	 	 	1581539921	9.88	18.30
12/02/2020 20:38:42	120220	12022020	203842	237.97	12.322210	-56.900875	238.01	0.340	-0.920	1.890	237.89	-2.30	2.30	 	 	 	 	 	 	 	 	 	 	 	 	 	 	 	 	 	 	1581539922	9.32	17.26
12/02/2020 20:38:43	120220	12022020	203843	237.49	12.322192	-56.900915	237.51	0.220	-0.320	2.280	237.38	-1.70	2.70	 	 	 	 	 	 	 	 	 	 	 	 	 	 	 	 	 	 	1581539923	9.12	16.89
12/02/2020 20:38:44	120220	12022020	203844	236.97	12.322172	-56.900953	237.00	0.140	0.110	2.260	236.88	-1.30	2.70	 	 	 	 	 	 	 	 	 	 	 	 	 	 	 	 	 	 	1581539924	9.31	17.24
12/02/2020 20:38:45	120220	12022020	203845	236.67	12.322148	-56.900992	236.72	0.080	0.200	1.850	236.65	-1.20	2.20	 	 	 	 	 	 	 	 	 	 	 	 	 	 	 	 	 	 	1581539925	9.62	17.82
12/02/2020 20:38:46	120220	12022020	203846	236.61	12.322123	-56.901032	236.68	0.010	0.040	1.270	236.63	-1.40	1.70	 	 	 	 	 	 	 	 	 	 	 	 	 	 	 	 	 	 	1581539926	9.85	18.24
12/02/2020 20:38:47	120220	12022020	203847	236.77	12.322098	-56.901070	236.86	-0.160	-0.190	0.700	236.83	-1.60	1.10	 	 	 	 	 	 	 	 	 	 	 	 	 	 	 	 	 	 	1581539927	9.88	18.30
12/02/2020 20:38:48	120220	12022020	203848	237.15	12.322075	-56.901110	237.24	-0.380	-0.380	0.420	237.24	-1.80	0.80	 	 	 	 	 	 	 	 	 	 	 	 	 	 	 	 	 	 	1581539928	9.76	18.08
12/02/2020 20:38:49	120220	12022020	203849	237.64	12.322053	-56.901150	237.73	-0.510	-0.510	0.470	237.73	-1.90	0.90	 	 	 	 	 	 	 	 	 	 	 	 	 	 	 	 	 	 	1581539929	9.65	17.87
12/02/2020 20:38:50	120220	12022020	203850	238.07	12.322033	-56.901192	238.16	-0.470	-0.600	0.620	238.14	-2.00	1.10	 	 	 	 	 	 	 	 	 	 	 	 	 	 	 	 	 	 	1581539930	9.62	17.82
12/02/2020 20:38:51	120220	12022020	203851	238.27	12.322013	-56.901232	238.36	-0.260	-0.580	0.820	238.30	-2.00	1.30	 	 	 	 	 	 	 	 	 	 	 	 	 	 	 	 	 	 	1581539931	9.59	17.76
12/02/2020 20:38:52	120220	12022020	203852	238.27	12.321993	-56.901272	238.34	0.030	-0.400	1.050	238.25	-1.80	1.50	 	 	 	 	 	 	 	 	 	 	 	 	 	 	 	 	 	 	1581539932	9.51	17.61
12/02/2020 20:38:53	120220	12022020	203853	238.16	12.321972	-56.901310	238.23	0.280	-0.120	1.100	238.13	-1.50	1.50	 	 	 	 	 	 	 	 	 	 	 	 	 	 	 	 	 	 	1581539933	9.41	17.43
12/02/2020 20:38:54	120220	12022020	203854	237.97	12.321948	-56.901348	238.02	0.400	0.120	1.040	237.92	-1.30	1.50	 	 	 	 	 	 	 	 	 	 	 	 	 	 	 	 	 	 	1581539934	9.38	17.37
12/02/2020 20:38:55	120220	12022020	203855	237.67	12.321927	-56.901387	237.72	0.360	0.130	1.080	237.60	-1.30	1.50	 	 	 	 	 	 	 	 	 	 	 	 	 	 	 	 	 	 	1581539935	9.53	17.65
12/02/2020 20:38:56	120220	12022020	203856	237.26	12.321903	-56.901427	237.29	0.220	-0.150	1.330	237.16	-1.60	1.80	 	 	 	 	 	 	 	 	 	 	 	 	 	 	 	 	 	 	1581539936	9.82	18.19
12/02/2020 20:38:57	120220	12022020	203857	236.81	12.321883	-56.901470	236.86	0.060	-0.320	1.610	236.73	-1.70	2.00	 	 	 	 	 	 	 	 	 	 	 	 	 	 	 	 	 	 	1581539937	9.92	18.37
12/02/2020 20:38:58	120220	12022020	203858	236.65	12.321865	-56.901510	236.74	-0.020	-0.060	1.520	236.68	-1.40	1.90	 	 	 	 	 	 	 	 	 	 	 	 	 	 	 	 	 	 	1581539938	9.47	17.54
12/02/2020 20:38:59	120220	12022020	203859	237.04	12.321845	-56.901548	237.17	0.030	0.290	0.850	237.18	-1.10	1.20	 	 	 	 	 	 	 	 	 	 	 	 	 	 	 	 	 	 	1581539939	8.95	16.58
12/02/2020 20:39:00	120220	12022020	203900	237.77	12.321823	-56.901583	237.89	0.190	0.090	0.030	237.92	-1.40	0.40	 	 	 	 	 	 	 	 	 	 	 	 	 	 	 	 	 	 	1581539940	9.11	16.87
12/02/2020 20:39:01	120220	12022020	203901	238.39	12.321798	-56.901623	238.46	0.330	-0.820	-0.230	238.48	-2.30	0.20	 	 	 	 	 	 	 	 	 	 	 	 	 	 	 	 	 	 	1581539941	9.87	18.28
12/02/2020 20:39:02	120220	12022020	203902	238.65	12.321775	-56.901667	238.70	0.290	-1.740	0.170	238.66	-3.20	0.60	1014.60	26.50	26.50	20.20	20.30	218.0	68.0	68.0	390.0	28.3	224.00	5.70	81.00	9.80	13408	8340.0	27.5	27.5	1581539942	10.34	19.15
12/02/2020 20:39:03	120220	12022020	203903	238.52	12.321753	-56.901708	238.55	-0.000	-1.830	0.940	238.45	-3.20	1.40	 	 	 	 	 	 	 	 	 	 	 	 	 	 	 	 	 	 	1581539943	9.97	18.46
12/02/2020 20:39:04	120220	12022020	203904	238.12	12.321737	-56.901748	238.14	-0.400	-1.110	1.720	238.03	-2.50	2.20	 	 	 	 	 	 	 	 	 	 	 	 	 	 	 	 	 	 	1581539944	9.37	17.35
12/02/2020 20:39:05	120220	12022020	203905	237.76	12.321718	-56.901788	237.71	-0.700	-0.270	2.100	237.68	-1.60	2.50	 	 	 	 	 	 	 	 	 	 	 	 	 	 	 	 	 	 	1581539945	9.25	17.13
12/02/2020 20:39:06	120220	12022020	203906	237.33	12.321698	-56.901828	237.38	-0.730	0.190	1.940	237.28	-1.20	2.40	 	 	 	 	 	 	 	 	 	 	 	 	 	 	 	 	 	 	1581539946	9.67	17.91
12/02/2020 20:39:07	120220	12022020	203907	237.15	12.321675	-56.901870	237.19	-0.510	0.350	1.440	237.12	-1.10	1.80	 	 	 	 	 	 	 	 	 	 	 	 	 	 	 	 	 	 	1581539947	10.06	18.63
12/02/2020 20:39:08	120220	12022020	203908	237.11	12.321652	-56.901912	237.18	-0.190	0.510	0.890	237.13	-0.90	1.30	 	 	 	 	 	 	 	 	 	 	 	 	 	 	 	 	 	 	1581539948	9.99	18.50
12/02/2020 20:39:09	120220	12022020	203909	237.27	12.321628	-56.901950	237.35	0.060	0.780	0.510	237.32	-0.60	0.90	 	 	 	 	 	 	 	 	 	 	 	 	 	 	 	 	 	 	1581539949	9.60	17.78
12/02/2020 20:39:10	120220	12022020	203910	237.61	12.321605	-56.901987	237.71	0.210	0.910	0.290	237.71	-0.50	0.70	 	 	 	 	 	 	 	 	 	 	 	 	 	 	 	 	 	 	1581539950	9.28	17.19
12/02/2020 20:39:11	120220	12022020	203911	238.12	12.321583	-56.902025	238.22	0.300	0.630	0.150	238.23	-0.80	0.60	 	 	 	 	 	 	 	 	 	 	 	 	 	 	 	 	 	 	1581539951	9.28	17.19
12/02/2020 20:39:12	120220	12022020	203912	238.61	12.321562	-56.902065	238.68	0.410	-0.080	0.220	238.67	-1.50	0.70	 	 	 	 	 	 	 	 	 	 	 	 	 	 	 	 	 	 	1581539952	9.51	17.61
12/02/2020 20:39:13	120220	12022020	203913	238.78	12.321540	-56.902105	238.85	0.540	-0.950	0.650	238.78	-2.40	1.10	 	 	 	 	 	 	 	 	 	 	 	 	 	 	 	 	 	 	1581539953	9.74	18.04
12/02/2020 20:39:14	120220	12022020	203914	238.69	12.321520	-56.902147	238.74	0.560	-1.510	1.230	238.65	-2.90	1.70	 	 	 	 	 	 	 	 	 	 	 	 	 	 	 	 	 	 	1581539954	9.74	18.04
12/02/2020 20:39:15	120220	12022020	203915	238.45	12.321502	-56.902187	238.51	0.420	-1.490	1.820	238.39	-2.90	2.30	 	 	 	 	 	 	 	 	 	 	 	 	 	 	 	 	 	 	1581539955	9.39	17.39
12/02/2020 20:39:16	120220	12022020	203916	238.16	12.321485	-56.902227	238.21	0.150	-1.190	2.050	238.11	-2.60	2.50	 	 	 	 	 	 	 	 	 	 	 	 	 	 	 	 	 	 	1581539956	9.16	16.96
12/02/2020 20:39:17	120220	12022020	203917	237.95	12.321463	-56.902265	237.96	-0.100	-1.030	1.690	237.92	-2.40	2.10	 	 	 	 	 	 	 	 	 	 	 	 	 	 	 	 	 	 	1581539957	9.43	17.46
12/02/2020 20:39:18	120220	12022020	203918	237.80	12.321440	-56.902305	237.84	-0.280	-1.030	1.020	237.79	-2.40	1.40	 	 	 	 	 	 	 	 	 	 	 	 	 	 	 	 	 	 	1581539958	9.91	18.35
12/02/2020 20:39:19	120220	12022020	203919	237.81	12.321415	-56.902347	237.87	-0.440	-0.940	0.340	237.83	-2.30	0.80	 	 	 	 	 	 	 	 	 	 	 	 	 	 	 	 	 	 	1581539959	10.19	18.87
12/02/2020 20:39:20	120220	12022020	203920	237.98	12.321390	-56.902387	238.02	-0.640	-0.540	-0.050	238.01	-1.90	0.40	 	 	 	 	 	 	 	 	 	 	 	 	 	 	 	 	 	 	1581539960	10.16	18.82
12/02/2020 20:39:21	120220	12022020	203921	238.10	12.321367	-56.902427	238.12	-0.840	0.300	0.040	238.10	-1.10	0.50	 	 	 	 	 	 	 	 	 	 	 	 	 	 	 	 	 	 	1581539961	9.81	18.17
12/02/2020 20:39:22	120220	12022020	203922	238.11	12.321347	-56.902467	238.16	-0.930	1.260	0.390	238.11	-0.10	0.90	 	 	 	 	 	 	 	 	 	 	 	 	 	 	 	 	 	 	1581539962	9.43	17.46
12/02/2020 20:39:23	120220	12022020	203923	238.21	12.321327	-56.902505	238.31	-0.720	1.850	0.560	238.26	0.40	1.00	 	 	 	 	 	 	 	 	 	 	 	 	 	 	 	 	 	 	1581539963	9.33	17.28
12/02/2020 20:39:24	120220	12022020	203924	238.53	12.321305	-56.902545	238.64	-0.190	1.690	0.460	238.61	0.20	0.90	 	 	 	 	 	 	 	 	 	 	 	 	 	 	 	 	 	 	1581539964	9.52	17.63
12/02/2020 20:39:25	120220	12022020	203925	238.96	12.321283	-56.902587	239.08	0.460	0.790	0.320	239.04	-0.70	0.70	 	 	 	 	 	 	 	 	 	 	 	 	 	 	 	 	 	 	1581539965	9.83	18.21
12/02/2020 20:39:26	120220	12022020	203926	239.24	12.321260	-56.902627	239.34	0.980	-0.440	0.450	239.26	-1.90	0.90	 	 	 	 	 	 	 	 	 	 	 	 	 	 	 	 	 	 	1581539966	9.98	18.48
12/02/2020 20:39:27	120220	12022020	203927	239.20	12.321240	-56.902668	239.28	1.170	-1.550	0.960	239.15	-3.00	1.40	 	 	 	 	 	 	 	 	 	 	 	 	 	 	 	 	 	 	1581539967	9.86	18.26
12/02/2020 20:39:28	120220	12022020	203928	238.89	12.321222	-56.902710	238.95	0.990	-2.180	1.500	238.80	-3.60	2.00	 	 	 	 	 	 	 	 	 	 	 	 	 	 	 	 	 	 	1581539968	9.64	17.85
12/02/2020 20:39:29	120220	12022020	203929	238.54	12.321203	-56.902752	238.52	0.580	-2.210	1.750	238.45	-3.60	2.20	 	 	 	 	 	 	 	 	 	 	 	 	 	 	 	 	 	 	1581539969	9.39	17.39
12/02/2020 20:39:30	120220	12022020	203930	238.12	12.321183	-56.902790	238.19	0.100	-1.710	1.520	238.08	-3.10	1.90	 	 	 	 	 	 	 	 	 	 	 	 	 	 	 	 	 	 	1581539970	9.22	17.08
12/02/2020 20:39:31	120220	12022020	203931	237.99	12.321162	-56.902827	238.07	-0.340	-0.940	1.050	237.99	-2.30	1.50	 	 	 	 	 	 	 	 	 	 	 	 	 	 	 	 	 	 	1581539971	9.26	17.15
12/02/2020 20:39:32	120220	12022020	203932	238.08	12.321138	-56.902867	238.16	-0.670	-0.190	0.660	238.10	-1.60	1.10	 	 	 	 	 	 	 	 	 	 	 	 	 	 	 	 	 	 	1581539972	9.50	17.59
12/02/2020 20:39:33	120220	12022020	203933	238.19	12.321117	-56.902907	238.27	-0.860	0.320	0.590	238.21	-1.10	1.00	 	 	 	 	 	 	 	 	 	 	 	 	 	 	 	 	 	 	1581539973	9.82	18.19
12/02/2020 20:39:34	120220	12022020	203934	238.24	12.321093	-56.902948	238.33	-0.870	0.570	0.840	238.25	-0.80	1.30	 	 	 	 	 	 	 	 	 	 	 	 	 	 	 	 	 	 	1581539974	10.12	18.74
12/02/2020 20:39:35	120220	12022020	203935	238.32	12.321072	-56.902992	238.42	-0.690	0.680	1.180	238.35	-0.70	1.60	 	 	 	 	 	 	 	 	 	 	 	 	 	 	 	 	 	 	1581539975	10.18	18.85
12/02/2020 20:39:36	120220	12022020	203936	238.54	12.321052	-56.903033	238.66	-0.340	0.740	1.300	238.60	-0.70	1.70	 	 	 	 	 	 	 	 	 	 	 	 	 	 	 	 	 	 	1581539976	9.95	18.43
12/02/2020 20:39:37	120220	12022020	203937	238.86	12.321030	-56.903073	238.98	0.100	0.630	1.020	238.92	-0.80	1.40	 	 	 	 	 	 	 	 	 	 	 	 	 	 	 	 	 	 	1581539977	9.72	18.00
12/02/2020 20:39:38	120220	12022020	203938	239.16	12.321008	-56.903113	239.26	0.460	0.260	0.530	239.21	-1.20	0.90	 	 	 	 	 	 	 	 	 	 	 	 	 	 	 	 	 	 	1581539978	9.68	17.93
12/02/2020 20:39:39	120220	12022020	203939	239.34	12.320983	-56.903152	239.44	0.630	-0.230	0.170	239.37	-1.70	0.60	 	 	 	 	 	 	 	 	 	 	 	 	 	 	 	 	 	 	1581539979	9.69	17.95
12/02/2020 20:39:40	120220	12022020	203940	239.45	12.320962	-56.903192	239.55	0.590	-0.570	0.130	239.46	-2.00	0.60	 	 	 	 	 	 	 	 	 	 	 	 	 	 	 	 	 	 	1581539980	9.50	17.59
12/02/2020 20:39:41	120220	12022020	203941	239.47	12.320942	-56.903230	239.54	0.440	-0.770	0.350	239.45	-2.20	0.80	 	 	 	 	 	 	 	 	 	 	 	 	 	 	 	 	 	 	1581539981	9.28	17.19
12/02/2020 20:39:42	120220	12022020	203942	239.32	12.320923	-56.903270	239.39	0.310	-0.960	0.680	239.27	-2.40	1.10	 	 	 	 	 	 	 	 	 	 	 	 	 	 	 	 	 	 	1581539982	9.34	17.30
12/02/2020 20:39:43	120220	12022020	203943	239.05	12.320905	-56.903312	239.12	0.240	-1.100	0.970	239.00	-2.50	1.40	 	 	 	 	 	 	 	 	 	 	 	 	 	 	 	 	 	 	1581539983	9.54	17.67
12/02/2020 20:39:44	120220	12022020	203944	238.89	12.320885	-56.903352	238.98	0.140	-0.970	1.080	238.89	-2.40	1.50	 	 	 	 	 	 	 	 	 	 	 	 	 	 	 	 	 	 	1581539984	9.55	17.69
12/02/2020 20:39:45	120220	12022020	203945	238.84	12.320865	-56.903392	238.92	-0.020	-0.650	1.080	238.82	-2.00	1.50	 	 	 	 	 	 	 	 	 	 	 	 	 	 	 	 	 	 	1581539985	9.47	17.54
12/02/2020 20:39:46	120220	12022020	203946	238.73	12.320843	-56.903432	238.82	-0.200	-0.370	1.050	238.71	-1.80	1.50	 	 	 	 	 	 	 	 	 	 	 	 	 	 	 	 	 	 	1581539986	9.61	17.80
12/02/2020 20:39:47	120220	12022020	203947	238.54	12.320820	-56.903472	238.60	-0.350	-0.250	1.020	238.49	-1.70	1.50	 	 	 	 	 	 	 	 	 	 	 	 	 	 	 	 	 	 	1581539987	9.86	18.26
12/02/2020 20:39:48	120220	12022020	203948	238.29	12.320798	-56.903513	238.35	-0.380	-0.270	1.000	238.25	-1.70	1.40	 	 	 	 	 	 	 	 	 	 	 	 	 	 	 	 	 	 	1581539988	10.09	18.69
12/02/2020 20:39:49	120220	12022020	203949	238.16	12.320775	-56.903555	238.23	-0.310	-0.270	0.920	238.16	-1.70	1.30	 	 	 	 	 	 	 	 	 	 	 	 	 	 	 	 	 	 	1581539989	10.16	18.82
12/02/2020 20:39:50	120220	12022020	203950	238.32	12.320753	-56.903598	238.41	-0.230	-0.160	0.720	238.39	-1.50	1.10	 	 	 	 	 	 	 	 	 	 	 	 	 	 	 	 	 	 	1581539990	10.03	18.58
12/02/2020 20:39:51	120220	12022020	203951	238.76	12.320733	-56.903638	238.87	-0.150	0.090	0.550	238.87	-1.30	1.00	 	 	 	 	 	 	 	 	 	 	 	 	 	 	 	 	 	 	1581539991	9.82	18.19
12/02/2020 20:39:52	120220	12022020	203952	239.28	12.320713	-56.903680	239.40	-0.060	0.440	0.450	239.38	-1.00	0.90	 	 	 	 	 	 	 	 	 	 	 	 	 	 	 	 	 	 	1581539992	9.58	17.74
12/02/2020 20:39:53	120220	12022020	203953	239.71	12.320693	-56.903718	239.82	0.020	0.740	0.350	239.78	-0.70	0.80	 	 	 	 	 	 	 	 	 	 	 	 	 	 	 	 	 	 	1581539993	9.36	17.33
12/02/2020 20:39:54	120220	12022020	203954	239.94	12.320672	-56.903758	240.02	0.080	0.710	0.300	239.95	-0.70	0.70	 	 	 	 	 	 	 	 	 	 	 	 	 	 	 	 	 	 	1581539994	9.31	17.24
12/02/2020 20:39:55	120220	12022020	203955	239.87	12.320650	-56.903797	239.86	0.180	0.110	0.420	239.81	-1.40	0.90	 	 	 	 	 	 	 	 	 	 	 	 	 	 	 	 	 	 	1581539995	9.63	17.83
12/02/2020 20:39:56	120220	12022020	203956	239.31	12.320627	-56.903838	239.35	0.340	-0.760	0.790	239.18	-2.20	1.30	 	 	 	 	 	 	 	 	 	 	 	 	 	 	 	 	 	 	1581539996	9.99	18.50
12/02/2020 20:39:57	120220	12022020	203957	238.69	12.320605	-56.903878	238.75	0.470	-1.310	1.190	238.57	-2.70	1.60	 	 	 	 	 	 	 	 	 	 	 	 	 	 	 	 	 	 	1581539997	9.88	18.30
12/02/2020 20:39:58	120220	12022020	203958	238.15	12.320585	-56.903918	238.21	0.450	-1.340	1.430	238.07	-2.70	1.90	 	 	 	 	 	 	 	 	 	 	 	 	 	 	 	 	 	 	1581539998	9.49	17.58
12/02/2020 20:39:59	120220	12022020	203959	237.81	12.320565	-56.903958	237.88	0.310	-1.040	1.560	237.76	-2.40	2.00	 	 	 	 	 	 	 	 	 	 	 	 	 	 	 	 	 	 	1581539999	9.26	17.15
12/02/2020 20:40:00	120220	12022020	204000	237.61	12.320547	-56.903998	237.67	0.150	-0.750	1.630	237.59	-2.10	2.10	 	 	 	 	 	 	 	 	 	 	 	 	 	 	 	 	 	 	1581540000	9.43	17.46
12/02/2020 20:40:01	120220	12022020	204001	237.62	12.320527	-56.904040	237.70	0.020	-0.580	1.540	237.66	-2.00	2.00	 	 	 	 	 	 	 	 	 	 	 	 	 	 	 	 	 	 	1581540001	9.78	18.11
12/02/2020 20:40:02	120220	12022020	204002	237.97	12.320505	-56.904082	238.08	-0.120	-0.430	1.170	238.08	-1.80	1.60	1014.60	26.50	26.60	20.20	20.30	219.0	68.0	68.0	390.0	28.3	224.00	6.30	83.00	10.40	13720	8543.0	27.5	27.5	1581540002	9.97	18.46
12/02/2020 20:40:03	120220	12022020	204003	238.62	12.320483	-56.904123	238.73	-0.310	-0.250	0.600	238.76	-1.70	1.00	 	 	 	 	 	 	 	 	 	 	 	 	 	 	 	 	 	 	1581540003	9.96	18.45
12/02/2020 20:40:04	120220	12022020	204004	239.29	12.320460	-56.904163	239.40	-0.460	-0.080	0.220	239.39	-1.50	0.60	 	 	 	 	 	 	 	 	 	 	 	 	 	 	 	 	 	 	1581540004	9.95	18.43
12/02/2020 20:40:05	120220	12022020	204005	239.65	12.320437	-56.904205	239.73	-0.490	0.180	0.270	239.67	-1.20	0.70	 	 	 	 	 	 	 	 	 	 	 	 	 	 	 	 	 	 	1581540005	9.90	18.33
12/02/2020 20:40:06	120220	12022020	204006	239.62	12.320415	-56.904245	239.68	-0.430	0.540	0.600	239.57	-0.90	1.10	 	 	 	 	 	 	 	 	 	 	 	 	 	 	 	 	 	 	1581540006	9.65	17.87
12/02/2020 20:40:07	120220	12022020	204007	239.42	12.320395	-56.904285	239.43	-0.340	0.750	0.940	239.36	-0.70	1.40	 	 	 	 	 	 	 	 	 	 	 	 	 	 	 	 	 	 	1581540007	9.51	17.61
12/02/2020 20:40:08	120220	12022020	204008	239.08	12.320373	-56.904323	239.16	-0.160	0.560	1.000	239.02	-0.90	1.40	 	 	 	 	 	 	 	 	 	 	 	 	 	 	 	 	 	 	1581540008	9.61	17.80
12/02/2020 20:40:09	120220	12022020	204009	238.88	12.320350	-56.904365	238.93	0.130	-0.000	0.820	238.84	-1.40	1.20	 	 	 	 	 	 	 	 	 	 	 	 	 	 	 	 	 	 	1581540009	9.86	18.26
12/02/2020 20:40:10	120220	12022020	204010	238.77	12.320327	-56.904405	238.87	0.420	-0.570	0.580	238.77	-2.00	1.00	 	 	 	 	 	 	 	 	 	 	 	 	 	 	 	 	 	 	1581540010	9.89	18.32
12/02/2020 20:40:11	120220	12022020	204011	238.79	12.320305	-56.904445	238.88	0.560	-0.860	0.510	238.80	-2.30	0.90	 	 	 	 	 	 	 	 	 	 	 	 	 	 	 	 	 	 	1581540011	9.57	17.72
12/02/2020 20:40:12	120220	12022020	204012	238.78	12.320287	-56.904483	238.86	0.550	-0.940	0.650	238.77	-2.40	1.10	 	 	 	 	 	 	 	 	 	 	 	 	 	 	 	 	 	 	1581540012	9.30	17.22
12/02/2020 20:40:13	120220	12022020	204013	238.75	12.320267	-56.904523	238.81	0.470	-1.080	0.910	238.74	-2.50	1.30	 	 	 	 	 	 	 	 	 	 	 	 	 	 	 	 	 	 	1581540013	9.42	17.45
12/02/2020 20:40:14	120220	12022020	204014	238.74	12.320247	-56.904565	238.82	0.300	-1.200	1.080	238.75	-2.60	1.50	 	 	 	 	 	 	 	 	 	 	 	 	 	 	 	 	 	 	1581540014	9.72	18.00
12/02/2020 20:40:15	120220	12022020	204015	238.75	12.320227	-56.904607	238.81	0.020	-1.060	1.150	238.73	-2.40	1.60	 	 	 	 	 	 	 	 	 	 	 	 	 	 	 	 	 	 	1581540015	9.77	18.09
12/02/2020 20:40:16	120220	12022020	204016	238.62	12.320207	-56.904648	238.68	-0.290	-0.680	1.280	238.58	-2.10	1.70	 	 	 	 	 	 	 	 	 	 	 	 	 	 	 	 	 	 	1581540016	9.77	18.09
12/02/2020 20:40:17	120220	12022020	204017	238.44	12.320187	-56.904690	238.51	-0.540	-0.120	1.410	238.42	-1.50	1.80	 	 	 	 	 	 	 	 	 	 	 	 	 	 	 	 	 	 	1581540017	9.81	18.17
12/02/2020 20:40:18	120220	12022020	204018	238.40	12.320167	-56.904732	238.50	-0.680	0.560	1.270	238.42	-0.80	1.70	 	 	 	 	 	 	 	 	 	 	 	 	 	 	 	 	 	 	1581540018	9.67	17.91
12/02/2020 20:40:19	120220	12022020	204019	238.53	12.320145	-56.904770	238.63	-0.640	1.090	0.860	238.57	-0.30	1.30	 	 	 	 	 	 	 	 	 	 	 	 	 	 	 	 	 	 	1581540019	9.52	17.63
12/02/2020 20:40:20	120220	12022020	204020	238.73	12.320122	-56.904808	238.83	-0.390	1.150	0.330	238.77	-0.30	0.70	 	 	 	 	 	 	 	 	 	 	 	 	 	 	 	 	 	 	1581540020	9.58	17.74
12/02/2020 20:40:21	120220	12022020	204021	238.82	12.320097	-56.904848	238.92	0.000	0.510	0.050	238.82	-0.90	0.50	 	 	 	 	 	 	 	 	 	 	 	 	 	 	 	 	 	 	1581540021	9.91	18.35
12/02/2020 20:40:22	120220	12022020	204022	238.77	12.320072	-56.904888	238.86	0.340	-0.560	0.170	238.75	-2.00	0.60	 	 	 	 	 	 	 	 	 	 	 	 	 	 	 	 	 	 	1581540022	10.25	18.98
12/02/2020 20:40:23	120220	12022020	204023	238.66	12.320048	-56.904932	238.73	0.480	-1.480	0.570	238.63	-2.90	1.00	 	 	 	 	 	 	 	 	 	 	 	 	 	 	 	 	 	 	1581540023	10.18	18.85
12/02/2020 20:40:24	120220	12022020	204024	238.53	12.320028	-56.904973	238.61	0.360	-1.790	1.040	238.50	-3.20	1.50	 	 	 	 	 	 	 	 	 	 	 	 	 	 	 	 	 	 	1581540024	9.82	18.19
12/02/2020 20:40:25	120220	12022020	204025	238.37	12.320012	-56.905013	238.43	0.050	-1.370	1.540	238.32	-2.70	2.00	 	 	 	 	 	 	 	 	 	 	 	 	 	 	 	 	 	 	1581540025	9.36	17.33
12/02/2020 20:40:26	120220	12022020	204026	238.15	12.319995	-56.905053	238.20	-0.250	-0.520	1.910	238.11	-1.90	2.30	 	 	 	 	 	 	 	 	 	 	 	 	 	 	 	 	 	 	1581540026	9.07	16.80
12/02/2020 20:40:27	120220	12022020	204027	238.00	12.319977	-56.905092	238.06	-0.380	0.270	1.970	237.98	-1.10	2.40	 	 	 	 	 	 	 	 	 	 	 	 	 	 	 	 	 	 	1581540027	9.13	16.91
12/02/2020 20:40:28	120220	12022020	204028	237.97	12.319957	-56.905132	238.05	-0.250	0.570	1.610	237.98	-0.80	2.00	 	 	 	 	 	 	 	 	 	 	 	 	 	 	 	 	 	 	1581540028	9.51	17.61
12/02/2020 20:40:29	120220	12022020	204029	238.04	12.319932	-56.905172	238.12	0.080	0.390	0.990	238.06	-1.00	1.40	 	 	 	 	 	 	 	 	 	 	 	 	 	 	 	 	 	 	1581540029	9.95	18.43
12/02/2020 20:40:30	120220	12022020	204030	238.15	12.319907	-56.905213	238.23	0.400	-0.050	0.440	238.17	-1.50	0.80	 	 	 	 	 	 	 	 	 	 	 	 	 	 	 	 	 	 	1581540030	10.16	18.82
12/02/2020 20:40:31	120220	12022020	204031	238.20	12.319882	-56.905253	238.26	0.470	-0.490	0.290	238.20	-1.90	0.70	 	 	 	 	 	 	 	 	 	 	 	 	 	 	 	 	 	 	1581540031	10.16	18.82
12/02/2020 20:40:32	120220	12022020	204032	238.17	12.319860	-56.905295	238.23	0.220	-0.580	0.480	238.17	-2.00	0.90	 	 	 	 	 	 	 	 	 	 	 	 	 	 	 	 	 	 	1581540032	9.87	18.28
12/02/2020 20:40:33	120220	12022020	204033	238.20	12.319840	-56.905333	238.26	-0.150	-0.170	0.630	238.22	-1.50	1.10	 	 	 	 	 	 	 	 	 	 	 	 	 	 	 	 	 	 	1581540033	9.34	17.30
12/02/2020 20:40:34	120220	12022020	204034	238.30	12.319820	-56.905372	238.36	-0.350	0.290	0.600	238.32	-1.10	1.00	 	 	 	 	 	 	 	 	 	 	 	 	 	 	 	 	 	 	1581540034	9.00	16.67
12/02/2020 20:40:35	120220	12022020	204035	238.45	12.319800	-56.905410	238.52	-0.270	0.310	0.390	238.49	-1.10	0.80	 	 	 	 	 	 	 	 	 	 	 	 	 	 	 	 	 	 	1581540035	9.23	17.09
12/02/2020 20:40:36	120220	12022020	204036	238.70	12.319777	-56.905450	238.78	-0.040	-0.170	0.180	238.76	-1.60	0.60	 	 	 	 	 	 	 	 	 	 	 	 	 	 	 	 	 	 	1581540036	9.72	18.00
12/02/2020 20:40:37	120220	12022020	204037	239.03	12.319753	-56.905490	239.11	0.130	-0.780	0.100	239.09	-2.20	0.50	 	 	 	 	 	 	 	 	 	 	 	 	 	 	 	 	 	 	1581540037	9.96	18.45
12/02/2020 20:40:38	120220	12022020	204038	239.28	12.319732	-56.905530	239.36	0.150	-1.140	0.340	239.31	-2.60	0.80	 	 	 	 	 	 	 	 	 	 	 	 	 	 	 	 	 	 	1581540038	9.81	18.17
12/02/2020 20:40:39	120220	12022020	204039	239.27	12.319712	-56.905572	239.34	0.080	-1.250	0.850	239.24	-2.60	1.30	 	 	 	 	 	 	 	 	 	 	 	 	 	 	 	 	 	 	1581540039	9.62	17.82
12/02/2020 20:40:40	120220	12022020	204040	239.01	12.319693	-56.905613	239.08	0.010	-1.290	1.370	238.94	-2.70	1.80	 	 	 	 	 	 	 	 	 	 	 	 	 	 	 	 	 	 	1581540040	9.76	18.08
12/02/2020 20:40:41	120220	12022020	204041	238.66	12.319673	-56.905657	238.71	-0.050	-1.210	1.720	238.59	-2.60	2.10	 	 	 	 	 	 	 	 	 	 	 	 	 	 	 	 	 	 	1581540041	10.03	18.58
12/02/2020 20:40:42	120220	12022020	204042	238.34	12.319653	-56.905700	238.39	-0.100	-0.790	1.810	238.28	-2.20	2.20	 	 	 	 	 	 	 	 	 	 	 	 	 	 	 	 	 	 	1581540042	10.07	18.65
12/02/2020 20:40:43	120220	12022020	204043	238.12	12.319632	-56.905740	238.18	-0.180	0.080	1.680	238.10	-1.30	2.10	 	 	 	 	 	 	 	 	 	 	 	 	 	 	 	 	 	 	1581540043	9.78	18.11
12/02/2020 20:40:44	120220	12022020	204044	238.13	12.319610	-56.905780	238.21	-0.320	1.070	1.310	238.17	-0.30	1.70	 	 	 	 	 	 	 	 	 	 	 	 	 	 	 	 	 	 	1581540044	9.44	17.48
12/02/2020 20:40:45	120220	12022020	204045	238.38	12.319588	-56.905818	238.59	-0.400	1.610	0.790	238.47	0.20	1.20	 	 	 	 	 	 	 	 	 	 	 	 	 	 	 	 	 	 	1581540045	9.45	17.50
12/02/2020 20:40:46	120220	12022020	204046	239.01	12.319567	-56.905858	239.13	-0.270	1.510	0.410	239.13	0.10	0.80	 	 	 	 	 	 	 	 	 	 	 	 	 	 	 	 	 	 	1581540046	9.71	17.98
12/02/2020 20:40:47	120220	12022020	204047	239.53	12.319545	-56.905898	239.62	0.080	0.910	0.310	239.60	-0.50	0.70	 	 	 	 	 	 	 	 	 	 	 	 	 	 	 	 	 	 	1581540047	9.80	18.15
12/02/2020 20:40:48	120220	12022020	204048	239.76	12.319523	-56.905940	239.83	0.510	-0.040	0.580	239.77	-1.50	1.00	 	 	 	 	 	 	 	 	 	 	 	 	 	 	 	 	 	 	1581540048	9.82	18.19
12/02/2020 20:40:49	120220	12022020	204049	239.67	12.319503	-56.905982	239.73	0.790	-1.040	1.050	239.62	-2.50	1.50	 	 	 	 	 	 	 	 	 	 	 	 	 	 	 	 	 	 	1581540049	9.79	18.13
12/02/2020 20:40:50	120220	12022020	204050	239.42	12.319485	-56.906023	239.49	0.790	-1.760	1.340	239.37	-3.20	1.80	 	 	 	 	 	 	 	 	 	 	 	 	 	 	 	 	 	 	1581540050	9.57	17.72
12/02/2020 20:40:51	120220	12022020	204051	239.22	12.319465	-56.906062	239.29	0.520	-2.080	1.200	239.20	-3.50	1.60	 	 	 	 	 	 	 	 	 	 	 	 	 	 	 	 	 	 	1581540051	9.39	17.39
12/02/2020 20:40:52	120220	12022020	204052	239.11	12.319443	-56.906100	239.17	0.110	-2.000	0.850	239.09	-3.40	1.30	 	 	 	 	 	 	 	 	 	 	 	 	 	 	 	 	 	 	1581540052	9.38	17.37
12/02/2020 20:40:53	120220	12022020	204053	239.00	12.319420	-56.906140	239.06	-0.260	-1.540	0.590	238.98	-2.90	1.00	 	 	 	 	 	 	 	 	 	 	 	 	 	 	 	 	 	 	1581540053	9.47	17.54
12/02/2020 20:40:54	120220	12022020	204054	238.84	12.319398	-56.906180	238.89	-0.490	-0.800	0.580	238.81	-2.20	1.00	 	 	 	 	 	 	 	 	 	 	 	 	 	 	 	 	 	 	1581540054	9.65	17.87
12/02/2020 20:40:55	120220	12022020	204055	238.72	12.319378	-56.906220	238.77	-0.590	0.070	0.730	238.71	-1.30	1.20	 	 	 	 	 	 	 	 	 	 	 	 	 	 	 	 	 	 	1581540055	9.76	18.08
12/02/2020 20:40:56	120220	12022020	204056	238.79	12.319358	-56.906263	238.88	-0.590	0.700	0.780	238.82	-0.70	1.20	 	 	 	 	 	 	 	 	 	 	 	 	 	 	 	 	 	 	1581540056	9.90	18.33
12/02/2020 20:40:57	120220	12022020	204057	238.94	12.319338	-56.906307	239.06	-0.480	0.820	0.810	238.98	-0.60	1.20	 	 	 	 	 	 	 	 	 	 	 	 	 	 	 	 	 	 	1581540057	10.22	18.93
12/02/2020 20:40:58	120220	12022020	204058	239.14	12.319317	-56.906352	239.24	-0.280	0.640	0.980	239.17	-0.80	1.40	 	 	 	 	 	 	 	 	 	 	 	 	 	 	 	 	 	 	1581540058	10.47	19.39
12/02/2020 20:40:59	120220	12022020	204059	239.26	12.319297	-56.906393	239.39	-0.060	0.580	1.210	239.28	-0.80	1.60	 	 	 	 	 	 	 	 	 	 	 	 	 	 	 	 	 	 	1581540059	10.17	18.83
12/02/2020 20:41:00	120220	12022020	204100	239.33	12.319277	-56.906435	239.44	0.100	0.670	1.380	239.33	-0.70	1.80	 	 	 	 	 	 	 	 	 	 	 	 	 	 	 	 	 	 	1581540060	9.67	17.91
12/02/2020 20:41:01	120220	12022020	204101	239.32	12.319257	-56.906473	239.44	0.160	0.720	1.210	239.33	-0.70	1.60	 	 	 	 	 	 	 	 	 	 	 	 	 	 	 	 	 	 	1581540061	9.30	17.22
12/02/2020 20:41:02	120220	12022020	204102	239.42	12.319233	-56.906512	239.54	0.210	0.540	0.600	239.45	-0.90	1.00	1014.60	26.40	26.50	20.00	20.10	216.0	67.0	68.0	390.0	28.3	220.00	5.70	80.00	10.00	13773	9929.0	27.5	27.5	1581540062	9.10	16.85
12/02/2020 20:41:03	120220	12022020	204103	239.57	12.319210	-56.906547	239.66	0.370	-0.050	-0.060	239.57	-1.50	0.40	 	 	 	 	 	 	 	 	 	 	 	 	 	 	 	 	 	 	1581540063	9.17	16.98
12/02/2020 20:41:04	120220	12022020	204104	239.49	12.319187	-56.906585	239.57	0.610	-1.070	-0.200	239.43	-2.50	0.30	 	 	 	 	 	 	 	 	 	 	 	 	 	 	 	 	 	 	1581540064	9.53	17.65
12/02/2020 20:41:05	120220	12022020	204105	239.09	12.319165	-56.906627	239.15	0.750	-2.090	0.310	238.98	-3.50	0.80	 	 	 	 	 	 	 	 	 	 	 	 	 	 	 	 	 	 	1581540065	9.87	18.28
12/02/2020 20:41:06	120220	12022020	204106	238.50	12.319147	-56.906668	238.54	0.680	-2.540	1.110	238.38	-3.90	1.60	 	 	 	 	 	 	 	 	 	 	 	 	 	 	 	 	 	 	1581540066	9.87	18.28
12/02/2020 20:41:07	120220	12022020	204107	237.98	12.319130	-56.906712	238.04	0.390	-2.300	1.710	237.90	-3.70	2.20	 	 	 	 	 	 	 	 	 	 	 	 	 	 	 	 	 	 	1581540067	9.72	18.00
12/02/2020 20:41:08	120220	12022020	204108	237.66	12.319113	-56.906755	237.74	-0.030	-1.590	1.950	237.63	-2.90	2.40	 	 	 	 	 	 	 	 	 	 	 	 	 	 	 	 	 	 	1581540068	9.70	17.96
12/02/2020 20:41:09	120220	12022020	204109	237.60	12.319095	-56.906797	237.70	-0.470	-0.610	1.930	237.62	-2.00	2.40	 	 	 	 	 	 	 	 	 	 	 	 	 	 	 	 	 	 	1581540069	9.87	18.28
12/02/2020 20:41:10	120220	12022020	204110	237.84	12.319073	-56.906838	237.96	-0.830	0.630	1.640	237.92	-0.70	2.10	 	 	 	 	 	 	 	 	 	 	 	 	 	 	 	 	 	 	1581540070	9.77	18.09
12/02/2020 20:41:11	120220	12022020	204111	238.28	12.319052	-56.906877	238.43	-1.010	1.760	1.240	238.39	0.40	1.70	 	 	 	 	 	 	 	 	 	 	 	 	 	 	 	 	 	 	1581540071	9.53	17.65
12/02/2020 20:41:12	120220	12022020	204112	238.79	12.319028	-56.906917	238.93	-0.930	2.140	0.860	238.88	0.70	1.30	 	 	 	 	 	 	 	 	 	 	 	 	 	 	 	 	 	 	1581540072	9.70	17.96
12/02/2020 20:41:13	120220	12022020	204113	239.07	12.319003	-56.906957	239.16	-0.550	1.540	0.720	239.08	0.10	1.20	 	 	 	 	 	 	 	 	 	 	 	 	 	 	 	 	 	 	1581540073	10.17	18.83
12/02/2020 20:41:14	120220	12022020	204114	238.97	12.318980	-56.907000	239.05	0.020	0.370	0.850	238.91	-1.10	1.30	 	 	 	 	 	 	 	 	 	 	 	 	 	 	 	 	 	 	1581540074	10.45	19.35
12/02/2020 20:41:15	120220	12022020	204115	238.61	12.318957	-56.907042	238.67	0.520	-0.750	1.110	238.52	-2.20	1.60	 	 	 	 	 	 	 	 	 	 	 	 	 	 	 	 	 	 	1581540075	10.23	18.95
12/02/2020 20:41:16	120220	12022020	204116	238.13	12.318935	-56.907083	238.19	0.750	-1.420	1.350	238.04	-2.80	1.80	 	 	 	 	 	 	 	 	 	 	 	 	 	 	 	 	 	 	1581540076	9.75	18.06
12/02/2020 20:41:17	120220	12022020	204117	237.76	12.318915	-56.907122	237.82	0.650	-1.440	1.320	237.72	-2.80	1.70	 	 	 	 	 	 	 	 	 	 	 	 	 	 	 	 	 	 	1581540077	9.20	17.04
12/02/2020 20:41:18	120220	12022020	204118	237.76	12.318895	-56.907158	237.86	0.390	-0.960	0.950	237.81	-2.30	1.40	 	 	 	 	 	 	 	 	 	 	 	 	 	 	 	 	 	 	1581540078	8.75	16.21
12/02/2020 20:41:19	120220	12022020	204119	238.06	12.318877	-56.907193	238.13	0.230	-0.400	0.500	238.12	-1.80	0.90	 	 	 	 	 	 	 	 	 	 	 	 	 	 	 	 	 	 	1581540079	8.69	16.09
12/02/2020 20:41:20	120220	12022020	204120	238.26	12.318855	-56.907232	238.30	0.280	-0.150	0.340	238.27	-1.60	0.80	 	 	 	 	 	 	 	 	 	 	 	 	 	 	 	 	 	 	1581540080	9.09	16.83
12/02/2020 20:41:21	120220	12022020	204121	238.21	12.318835	-56.907272	238.20	0.380	-0.250	0.560	238.17	-1.70	1.00	 	 	 	 	 	 	 	 	 	 	 	 	 	 	 	 	 	 	1581540081	9.66	17.89
12/02/2020 20:41:22	120220	12022020	204122	237.93	12.318813	-56.907313	237.96	0.290	-0.480	0.910	237.88	-1.90	1.40	 	 	 	 	 	 	 	 	 	 	 	 	 	 	 	 	 	 	1581540082	10.01	18.54
12/02/2020 20:41:23	120220	12022020	204123	237.75	12.318793	-56.907357	237.81	-0.030	-0.570	1.190	237.72	-2.00	1.60	 	 	 	 	 	 	 	 	 	 	 	 	 	 	 	 	 	 	1581540083	9.98	18.48
12/02/2020 20:41:24	120220	12022020	204124	237.74	12.318772	-56.907398	237.82	-0.400	-0.510	1.130	237.76	-1.90	1.50	 	 	 	 	 	 	 	 	 	 	 	 	 	 	 	 	 	 	1581540084	9.82	18.19
12/02/2020 20:41:25	120220	12022020	204125	237.90	12.318750	-56.907438	237.98	-0.580	-0.340	0.660	237.95	-1.80	1.10	 	 	 	 	 	 	 	 	 	 	 	 	 	 	 	 	 	 	1581540085	9.67	17.91
12/02/2020 20:41:26	120220	12022020	204126	238.23	12.318725	-56.907477	238.32	-0.550	-0.220	0.030	238.32	-1.60	0.40	 	 	 	 	 	 	 	 	 	 	 	 	 	 	 	 	 	 	1581540086	9.66	17.89
12/02/2020 20:41:27	120220	12022020	204127	238.67	12.318702	-56.907515	238.74	-0.430	-0.280	-0.400	238.75	-1.70	0.00	 	 	 	 	 	 	 	 	 	 	 	 	 	 	 	 	 	 	1581540087	9.80	18.15
12/02/2020 20:41:28	120220	12022020	204128	238.97	12.318677	-56.907555	239.03	-0.300	-0.390	-0.270	239.00	-1.80	0.20	 	 	 	 	 	 	 	 	 	 	 	 	 	 	 	 	 	 	1581540088	9.94	18.41
12/02/2020 20:41:29	120220	12022020	204129	239.05	12.318655	-56.907597	239.09	-0.200	-0.210	0.220	239.04	-1.60	0.70	 	 	 	 	 	 	 	 	 	 	 	 	 	 	 	 	 	 	1581540089	9.78	18.11
12/02/2020 20:41:30	120220	12022020	204130	238.89	12.318637	-56.907637	238.94	-0.100	0.330	0.830	238.84	-1.10	1.30	 	 	 	 	 	 	 	 	 	 	 	 	 	 	 	 	 	 	1581540090	9.35	17.32
12/02/2020 20:41:31	120220	12022020	204131	238.52	12.318618	-56.907675	238.57	0.090	0.790	1.340	238.43	-0.60	1.80	 	 	 	 	 	 	 	 	 	 	 	 	 	 	 	 	 	 	1581540091	9.12	16.89
12/02/2020 20:41:32	120220	12022020	204132	238.01	12.318600	-56.907715	238.05	0.380	0.770	1.590	237.90	-0.70	2.00	 	 	 	 	 	 	 	 	 	 	 	 	 	 	 	 	 	 	1581540092	9.35	17.32
12/02/2020 20:41:33	120220	12022020	204133	237.51	12.318578	-56.907755	237.56	0.640	0.220	1.530	237.44	-1.20	1.90	 	 	 	 	 	 	 	 	 	 	 	 	 	 	 	 	 	 	1581540093	9.71	17.98
12/02/2020 20:41:34	120220	12022020	204134	237.31	12.318557	-56.907797	237.40	0.710	-0.530	1.140	237.32	-2.00	1.50	 	 	 	 	 	 	 	 	 	 	 	 	 	 	 	 	 	 	1581540094	9.83	18.21
12/02/2020 20:41:35	120220	12022020	204135	237.44	12.318535	-56.907837	237.60	0.520	-1.140	0.500	237.50	-2.60	0.90	 	 	 	 	 	 	 	 	 	 	 	 	 	 	 	 	 	 	1581540095	9.67	17.91
12/02/2020 20:41:36	120220	12022020	204136	237.98	12.318513	-56.907875	238.06	0.150	-1.390	-0.250	238.09	-2.80	0.20	 	 	 	 	 	 	 	 	 	 	 	 	 	 	 	 	 	 	1581540096	9.39	17.39
12/02/2020 20:41:37	120220	12022020	204137	238.53	12.318490	-56.907912	238.59	-0.160	-1.330	-0.780	238.62	-2.70	-0.40	 	 	 	 	 	 	 	 	 	 	 	 	 	 	 	 	 	 	1581540097	9.21	17.06
12/02/2020 20:41:38	120220	12022020	204138	238.94	12.318468	-56.907950	238.99	-0.270	-1.140	-0.790	239.00	-2.50	-0.30	 	 	 	 	 	 	 	 	 	 	 	 	 	 	 	 	 	 	1581540098	9.33	17.28
12/02/2020 20:41:39	120220	12022020	204139	239.11	12.318445	-56.907988	239.14	-0.230	-0.890	-0.230	239.10	-2.30	0.20	 	 	 	 	 	 	 	 	 	 	 	 	 	 	 	 	 	 	1581540099	9.58	17.74
12/02/2020 20:41:40	120220	12022020	204140	238.93	12.318425	-56.908030	238.96	-0.200	-0.560	0.780	238.85	-2.00	1.30	 	 	 	 	 	 	 	 	 	 	 	 	 	 	 	 	 	 	1581540100	9.81	18.17
12/02/2020 20:41:41	120220	12022020	204141	238.45	12.318407	-56.908073	238.49	-0.280	-0.150	1.870	238.34	-1.60	2.30	 	 	 	 	 	 	 	 	 	 	 	 	 	 	 	 	 	 	1581540101	9.97	18.46
12/02/2020 20:41:42	120220	12022020	204142	237.93	12.318390	-56.908117	238.00	-0.430	0.350	2.540	237.86	-1.00	3.00	 	 	 	 	 	 	 	 	 	 	 	 	 	 	 	 	 	 	1581540102	9.97	18.46
12/02/2020 20:41:43	120220	12022020	204143	237.68	12.318372	-56.908158	237.77	-0.500	0.850	2.410	237.66	-0.50	2.80	 	 	 	 	 	 	 	 	 	 	 	 	 	 	 	 	 	 	1581540103	9.68	17.93
12/02/2020 20:41:44	120220	12022020	204144	237.65	12.318350	-56.908198	237.75	-0.350	1.030	1.680	237.66	-0.40	2.10	 	 	 	 	 	 	 	 	 	 	 	 	 	 	 	 	 	 	1581540104	9.54	17.67
12/02/2020 20:41:45	120220	12022020	204145	237.67	12.318325	-56.908237	237.78	-0.040	0.710	0.880	237.67	-0.70	1.30	 	 	 	 	 	 	 	 	 	 	 	 	 	 	 	 	 	 	1581540105	9.72	18.00
12/02/2020 20:41:46	120220	12022020	204146	237.68	12.318300	-56.908277	237.76	0.250	0.110	0.320	237.67	-1.40	0.70	 	 	 	 	 	 	 	 	 	 	 	 	 	 	 	 	 	 	1581540106	9.81	18.17
12/02/2020 20:41:47	120220	12022020	204147	237.67	12.318278	-56.908315	237.73	0.410	-0.500	0.130	237.67	-1.90	0.60	 	 	 	 	 	 	 	 	 	 	 	 	 	 	 	 	 	 	1581540107	9.68	17.93
12/02/2020 20:41:48	120220	12022020	204148	237.73	12.318257	-56.908355	237.80	0.470	-0.850	0.140	237.75	-2.30	0.60	 	 	 	 	 	 	 	 	 	 	 	 	 	 	 	 	 	 	1581540108	9.40	17.41
12/02/2020 20:41:49	120220	12022020	204149	237.81	12.318237	-56.908392	237.90	0.480	-0.890	0.260	237.83	-2.30	0.70	 	 	 	 	 	 	 	 	 	 	 	 	 	 	 	 	 	 	1581540109	9.09	16.83
12/02/2020 20:41:50	120220	12022020	204150	237.94	12.318217	-56.908430	238.01	0.480	-0.830	0.500	237.95	-2.20	1.00	 	 	 	 	 	 	 	 	 	 	 	 	 	 	 	 	 	 	1581540110	9.04	16.74
12/02/2020 20:41:51	120220	12022020	204151	237.97	12.318195	-56.908468	238.03	0.390	-0.820	0.950	237.96	-2.20	1.40	 	 	 	 	 	 	 	 	 	 	 	 	 	 	 	 	 	 	1581540111	9.29	17.21
12/02/2020 20:41:52	120220	12022020	204152	237.92	12.318177	-56.908508	237.99	0.160	-0.790	1.450	237.91	-2.20	1.90	 	 	 	 	 	 	 	 	 	 	 	 	 	 	 	 	 	 	1581540112	9.54	17.67
12/02/2020 20:41:53	120220	12022020	204153	237.88	12.318158	-56.908550	237.95	-0.100	-0.720	1.780	237.87	-2.10	2.20	 	 	 	 	 	 	 	 	 	 	 	 	 	 	 	 	 	 	1581540113	9.66	17.89
12/02/2020 20:41:54	120220	12022020	204154	237.78	12.318138	-56.908593	237.85	-0.250	-0.700	1.840	237.75	-2.10	2.30	 	 	 	 	 	 	 	 	 	 	 	 	 	 	 	 	 	 	1581540114	9.87	18.28
12/02/2020 20:41:55	120220	12022020	204155	237.59	12.318117	-56.908635	237.65	-0.310	-0.530	1.520	237.55	-1.90	1.90	 	 	 	 	 	 	 	 	 	 	 	 	 	 	 	 	 	 	1581540115	9.95	18.43
12/02/2020 20:41:56	120220	12022020	204156	237.42	12.318093	-56.908673	237.46	-0.380	-0.130	0.900	237.39	-1.50	1.30	 	 	 	 	 	 	 	 	 	 	 	 	 	 	 	 	 	 	1581540116	9.72	18.00
12/02/2020 20:41:57	120220	12022020	204157	237.27	12.318068	-56.908712	237.31	-0.470	0.210	0.420	237.24	-1.20	0.80	 	 	 	 	 	 	 	 	 	 	 	 	 	 	 	 	 	 	1581540117	9.62	17.82
12/02/2020 20:41:58	120220	12022020	204158	237.08	12.318043	-56.908750	237.11	-0.500	0.290	0.360	237.04	-1.10	0.80	 	 	 	 	 	 	 	 	 	 	 	 	 	 	 	 	 	 	1581540118	9.78	18.11
12/02/2020 20:41:59	120220	12022020	204159	236.90	12.318020	-56.908790	236.91	-0.420	0.210	0.610	236.87	-1.20	1.10	 	 	 	 	 	 	 	 	 	 	 	 	 	 	 	 	 	 	1581540119	9.91	18.35
12/02/2020 20:42:00	120220	12022020	204200	236.97	12.317998	-56.908832	237.05	-0.290	0.340	0.790	237.04	-1.10	1.20	 	 	 	 	 	 	 	 	 	 	 	 	 	 	 	 	 	 	1581540120	9.67	17.91
12/02/2020 20:42:01	120220	12022020	204201	237.33	12.317978	-56.908870	237.53	-0.120	0.640	0.760	237.44	-0.80	1.20	 	 	 	 	 	 	 	 	 	 	 	 	 	 	 	 	 	 	1581540121	9.13	16.91
12/02/2020 20:42:02	120220	12022020	204202	237.97	12.317960	-56.908907	238.06	0.190	0.560	0.630	238.05	-0.90	1.10	1014.70	26.40	26.50	20.00	20.10	210.0	67.0	68.0	390.0	28.3	216.00	5.10	76.00	9.60	12845	9045.0	27.5	27.5	1581540122	9.01	16.69
12/02/2020 20:42:03	120220	12022020	204203	238.27	12.317938	-56.908947	238.35	0.640	-0.180	0.640	238.28	-1.60	1.10	 	 	 	 	 	 	 	 	 	 	 	 	 	 	 	 	 	 	1581540123	9.47	17.54
12/02/2020 20:42:04	120220	12022020	204204	238.16	12.317917	-56.908988	238.22	0.990	-1.240	0.940	238.09	-2.70	1.40	 	 	 	 	 	 	 	 	 	 	 	 	 	 	 	 	 	 	1581540124	10.00	18.52
12/02/2020 20:42:05	120220	12022020	204205	237.76	12.317895	-56.909030	237.81	0.930	-1.840	1.330	237.67	-3.30	1.80	 	 	 	 	 	 	 	 	 	 	 	 	 	 	 	 	 	 	1581540125	9.99	18.50
12/02/2020 20:42:06	120220	12022020	204206	237.44	12.317875	-56.909070	237.53	0.440	-1.600	1.470	237.41	-3.00	1.90	 	 	 	 	 	 	 	 	 	 	 	 	 	 	 	 	 	 	1581540126	9.42	17.45
12/02/2020 20:42:07	120220	12022020	204207	237.36	12.317855	-56.909107	237.46	-0.160	-0.870	1.320	237.36	-2.20	1.70	 	 	 	 	 	 	 	 	 	 	 	 	 	 	 	 	 	 	1581540127	9.02	16.71
12/02/2020 20:42:08	120220	12022020	204208	237.43	12.317833	-56.909143	237.53	-0.540	-0.200	0.980	237.45	-1.60	1.40	 	 	 	 	 	 	 	 	 	 	 	 	 	 	 	 	 	 	1581540128	9.15	16.95
12/02/2020 20:42:09	120220	12022020	204209	237.60	12.317810	-56.909183	237.71	-0.660	0.120	0.560	237.65	-1.30	1.00	 	 	 	 	 	 	 	 	 	 	 	 	 	 	 	 	 	 	1581540129	9.58	17.74
12/02/2020 20:42:10	120220	12022020	204210	237.80	12.317785	-56.909223	237.88	-0.630	0.130	0.300	237.83	-1.30	0.70	 	 	 	 	 	 	 	 	 	 	 	 	 	 	 	 	 	 	1581540130	9.97	18.46
12/02/2020 20:42:11	120220	12022020	204211	237.89	12.317763	-56.909265	237.96	-0.480	0.030	0.370	237.89	-1.40	0.80	 	 	 	 	 	 	 	 	 	 	 	 	 	 	 	 	 	 	1581540131	10.10	18.71
12/02/2020 20:42:12	120220	12022020	204212	237.77	12.317742	-56.909307	237.80	-0.250	0.060	0.770	237.71	-1.40	1.20	 	 	 	 	 	 	 	 	 	 	 	 	 	 	 	 	 	 	1581540132	9.95	18.43
12/02/2020 20:42:13	120220	12022020	204213	237.42	12.317722	-56.909348	237.47	-0.030	0.190	1.280	237.36	-1.20	1.70	 	 	 	 	 	 	 	 	 	 	 	 	 	 	 	 	 	 	1581540133	9.70	17.96
12/02/2020 20:42:14	120220	12022020	204214	237.21	12.317702	-56.909388	237.31	0.120	0.260	1.380	237.22	-1.20	1.80	 	 	 	 	 	 	 	 	 	 	 	 	 	 	 	 	 	 	1581540134	9.53	17.65
12/02/2020 20:42:15	120220	12022020	204215	237.40	12.317680	-56.909427	237.51	0.200	0.130	0.910	237.47	-1.30	1.30	 	 	 	 	 	 	 	 	 	 	 	 	 	 	 	 	 	 	1581540135	9.43	17.46
12/02/2020 20:42:16	120220	12022020	204216	237.80	12.317655	-56.909465	237.91	0.240	-0.350	0.230	237.88	-1.80	0.60	 	 	 	 	 	 	 	 	 	 	 	 	 	 	 	 	 	 	1581540136	9.63	17.83
12/02/2020 20:42:17	120220	12022020	204217	238.11	12.317630	-56.909503	238.21	0.190	-0.940	-0.120	238.15	-2.40	0.30	 	 	 	 	 	 	 	 	 	 	 	 	 	 	 	 	 	 	1581540137	9.94	18.41
12/02/2020 20:42:18	120220	12022020	204218	238.19	12.317607	-56.909543	238.27	0.010	-1.050	0.110	238.17	-2.50	0.60	 	 	 	 	 	 	 	 	 	 	 	 	 	 	 	 	 	 	1581540138	9.77	18.09
12/02/2020 20:42:19	120220	12022020	204219	238.06	12.317587	-56.909582	238.15	-0.190	-0.560	0.640	238.03	-1.90	1.10	 	 	 	 	 	 	 	 	 	 	 	 	 	 	 	 	 	 	1581540139	9.21	17.06
12/02/2020 20:42:20	120220	12022020	204220	237.82	12.317570	-56.909622	237.90	-0.200	-0.030	1.200	237.76	-1.40	1.60	 	 	 	 	 	 	 	 	 	 	 	 	 	 	 	 	 	 	1581540140	9.05	16.76
12/02/2020 20:42:21	120220	12022020	204221	237.48	12.317550	-56.909662	237.56	0.080	0.090	1.590	237.43	-1.30	2.00	 	 	 	 	 	 	 	 	 	 	 	 	 	 	 	 	 	 	1581540141	9.46	17.52
12/02/2020 20:42:22	120220	12022020	204222	237.27	12.317528	-56.909702	237.37	0.400	-0.010	1.620	237.25	-1.40	2.00	 	 	 	 	 	 	 	 	 	 	 	 	 	 	 	 	 	 	1581540142	9.77	18.09
12/02/2020 20:42:23	120220	12022020	204223	237.22	12.317507	-56.909742	237.33	0.510	-0.150	1.350	237.22	-1.60	1.70	 	 	 	 	 	 	 	 	 	 	 	 	 	 	 	 	 	 	1581540143	9.70	17.96
12/02/2020 20:42:24	120220	12022020	204224	237.27	12.317485	-56.909782	237.38	0.340	-0.440	0.890	237.30	-1.90	1.30	 	 	 	 	 	 	 	 	 	 	 	 	 	 	 	 	 	 	1581540144	9.68	17.93
12/02/2020 20:42:25	120220	12022020	204225	237.38	12.317460	-56.909822	237.50	0.060	-0.890	0.480	237.42	-2.30	0.90	 	 	 	 	 	 	 	 	 	 	 	 	 	 	 	 	 	 	1581540145	9.86	18.26
12/02/2020 20:42:26	120220	12022020	204226	237.54	12.317437	-56.909863	237.62	-0.190	-1.260	0.380	237.56	-2.70	0.80	 	 	 	 	 	 	 	 	 	 	 	 	 	 	 	 	 	 	1581540146	10.03	18.58
12/02/2020 20:42:27	120220	12022020	204227	237.67	12.317415	-56.909903	237.76	-0.380	-1.140	0.480	237.71	-2.50	0.90	 	 	 	 	 	 	 	 	 	 	 	 	 	 	 	 	 	 	1581540147	9.93	18.39
12/02/2020 20:42:28	120220	12022020	204228	237.89	12.317393	-56.909943	238.00	-0.550	-0.360	0.570	237.94	-1.70	1.00	 	 	 	 	 	 	 	 	 	 	 	 	 	 	 	 	 	 	1581540148	9.42	17.45
12/02/2020 20:42:29	120220	12022020	204229	238.11	12.317373	-56.909980	238.20	-0.610	0.580	0.640	238.14	-0.80	1.10	 	 	 	 	 	 	 	 	 	 	 	 	 	 	 	 	 	 	1581540149	9.04	16.74
12/02/2020 20:42:30	120220	12022020	204230	238.14	12.317352	-56.910018	238.21	-0.450	0.980	0.760	238.11	-0.40	1.20	 	 	 	 	 	 	 	 	 	 	 	 	 	 	 	 	 	 	1581540150	9.30	17.22
12/02/2020 20:42:31	120220	12022020	204231	237.98	12.317327	-56.910058	238.04	-0.130	0.710	0.900	237.94	-0.70	1.30	 	 	 	 	 	 	 	 	 	 	 	 	 	 	 	 	 	 	1581540151	9.91	18.35
12/02/2020 20:42:32	120220	12022020	204232	237.83	12.317305	-56.910100	237.93	0.190	0.180	1.030	237.81	-1.30	1.50	 	 	 	 	 	 	 	 	 	 	 	 	 	 	 	 	 	 	1581540152	10.13	18.76
12/02/2020 20:42:33	120220	12022020	204233	237.77	12.317283	-56.910142	237.86	0.410	-0.270	1.130	237.75	-1.70	1.60	 	 	 	 	 	 	 	 	 	 	 	 	 	 	 	 	 	 	1581540153	9.87	18.28
12/02/2020 20:42:34	120220	12022020	204234	237.65	12.317263	-56.910182	237.73	0.520	-0.650	1.180	237.61	-2.10	1.60	 	 	 	 	 	 	 	 	 	 	 	 	 	 	 	 	 	 	1581540154	9.60	17.78
12/02/2020 20:42:35	120220	12022020	204235	237.50	12.317243	-56.910222	237.59	0.510	-0.960	1.150	237.49	-2.40	1.60	 	 	 	 	 	 	 	 	 	 	 	 	 	 	 	 	 	 	1581540155	9.55	17.69
12/02/2020 20:42:36	120220	12022020	204236	237.45	12.317222	-56.910262	237.55	0.360	-1.040	1.020	237.45	-2.40	1.40	 	 	 	 	 	 	 	 	 	 	 	 	 	 	 	 	 	 	1581540156	9.45	17.50
12/02/2020 20:42:37	120220	12022020	204237	237.46	12.317200	-56.910300	237.56	0.130	-0.850	0.810	237.47	-2.20	1.20	 	 	 	 	 	 	 	 	 	 	 	 	 	 	 	 	 	 	1581540157	9.32	17.26
12/02/2020 20:42:38	120220	12022020	204238	237.53	12.317178	-56.910338	237.62	-0.090	-0.580	0.580	237.54	-2.00	1.00	 	 	 	 	 	 	 	 	 	 	 	 	 	 	 	 	 	 	1581540158	9.34	17.30
12/02/2020 20:42:39	120220	12022020	204239	237.56	12.317157	-56.910378	237.66	-0.240	-0.510	0.450	237.56	-1.90	0.90	 	 	 	 	 	 	 	 	 	 	 	 	 	 	 	 	 	 	1581540159	9.65	17.87
12/02/2020 20:42:40	120220	12022020	204240	237.60	12.317132	-56.910418	237.69	-0.320	-0.590	0.410	237.61	-2.00	0.90	 	 	 	 	 	 	 	 	 	 	 	 	 	 	 	 	 	 	1581540160	10.05	18.61
12/02/2020 20:42:41	120220	12022020	204241	237.69	12.317108	-56.910460	237.79	-0.370	-0.510	0.420	237.72	-1.90	0.90	 	 	 	 	 	 	 	 	 	 	 	 	 	 	 	 	 	 	1581540161	10.14	18.78
12/02/2020 20:42:42	120220	12022020	204242	237.84	12.317085	-56.910500	237.94	-0.380	-0.040	0.610	237.88	-1.40	1.10	 	 	 	 	 	 	 	 	 	 	 	 	 	 	 	 	 	 	1581540162	9.83	18.21
12/02/2020 20:42:43	120220	12022020	204243	238.05	12.317065	-56.910540	238.14	-0.290	0.670	0.840	238.09	-0.70	1.30	 	 	 	 	 	 	 	 	 	 	 	 	 	 	 	 	 	 	1581540163	9.38	17.37
12/02/2020 20:42:44	120220	12022020	204244	238.22	12.317045	-56.910578	238.32	-0.070	1.070	1.040	238.24	-0.30	1.50	 	 	 	 	 	 	 	 	 	 	 	 	 	 	 	 	 	 	1581540164	9.24	17.11
12/02/2020 20:42:45	120220	12022020	204245	238.23	12.317023	-56.910618	238.31	0.190	0.730	1.210	238.21	-0.70	1.60	 	 	 	 	 	 	 	 	 	 	 	 	 	 	 	 	 	 	1581540165	9.62	17.82
12/02/2020 20:42:46	120220	12022020	204246	238.04	12.317002	-56.910660	238.10	0.390	-0.130	1.390	237.97	-1.60	1.80	 	 	 	 	 	 	 	 	 	 	 	 	 	 	 	 	 	 	1581540166	10.04	18.59
12/02/2020 20:42:47	120220	12022020	204247	237.65	12.316980	-56.910703	237.70	0.480	-1.000	1.620	237.56	-2.40	2.10	 	 	 	 	 	 	 	 	 	 	 	 	 	 	 	 	 	 	1581540167	10.11	18.72
12/02/2020 20:42:48	120220	12022020	204248	237.28	12.316960	-56.910745	237.34	0.410	-1.510	1.650	237.23	-2.90	2.10	 	 	 	 	 	 	 	 	 	 	 	 	 	 	 	 	 	 	1581540168	9.92	18.37
12/02/2020 20:42:49	120220	12022020	204249	237.08	12.316938	-56.910785	237.15	0.180	-1.420	1.390	237.06	-2.80	1.80	 	 	 	 	 	 	 	 	 	 	 	 	 	 	 	 	 	 	1581540169	9.56	17.71
12/02/2020 20:42:50	120220	12022020	204250	237.03	12.316917	-56.910822	237.10	-0.100	-0.870	0.930	237.05	-2.20	1.30	 	 	 	 	 	 	 	 	 	 	 	 	 	 	 	 	 	 	1581540170	9.23	17.09
12/02/2020 20:42:51	120220	12022020	204251	237.21	12.316893	-56.910858	237.29	-0.300	-0.250	0.300	237.28	-1.60	0.70	 	 	 	 	 	 	 	 	 	 	 	 	 	 	 	 	 	 	1581540171	9.20	17.04
12/02/2020 20:42:52	120220	12022020	204252	237.55	12.316868	-56.910895	237.62	-0.350	0.050	-0.130	237.61	-1.40	0.30	 	 	 	 	 	 	 	 	 	 	 	 	 	 	 	 	 	 	1581540172	9.53	17.65
12/02/2020 20:42:53	120220	12022020	204253	237.82	12.316843	-56.910937	237.90	-0.290	-0.010	-0.080	237.86	-1.40	0.40	 	 	 	 	 	 	 	 	 	 	 	 	 	 	 	 	 	 	1581540173	9.97	18.46
12/02/2020 20:42:54	120220	12022020	204254	238.08	12.316822	-56.910977	238.17	-0.220	-0.050	0.230	238.14	-1.50	0.70	 	 	 	 	 	 	 	 	 	 	 	 	 	 	 	 	 	 	1581540174	10.08	18.67
12/02/2020 20:42:55	120220	12022020	204255	238.49	12.316800	-56.911018	238.62	-0.170	0.120	0.540	238.60	-1.30	1.00	 	 	 	 	 	 	 	 	 	 	 	 	 	 	 	 	 	 	1581540175	9.75	18.06
12/02/2020 20:42:56	120220	12022020	204256	239.00	12.316778	-56.911058	239.11	-0.080	0.190	0.750	239.08	-1.20	1.20	 	 	 	 	 	 	 	 	 	 	 	 	 	 	 	 	 	 	1581540176	9.52	17.63
12/02/2020 20:42:57	120220	12022020	204257	239.20	12.316758	-56.911098	239.26	0.110	-0.120	1.160	239.17	-1.60	1.60	 	 	 	 	 	 	 	 	 	 	 	 	 	 	 	 	 	 	1581540177	9.74	18.04
12/02/2020 20:42:58	120220	12022020	204258	238.77	12.316738	-56.911142	238.78	0.310	-0.710	1.830	238.60	-2.20	2.30	 	 	 	 	 	 	 	 	 	 	 	 	 	 	 	 	 	 	1581540178	10.16	18.82
12/02/2020 20:42:59	120220	12022020	204259	237.86	12.316718	-56.911187	237.86	0.320	-1.010	2.370	237.66	-2.40	2.80	 	 	 	 	 	 	 	 	 	 	 	 	 	 	 	 	 	 	1581540179	10.21	18.91
12/02/2020 20:43:00	120220	12022020	204300	237.02	12.316698	-56.911227	237.04	0.110	-0.700	2.390	236.89	-2.10	2.80	 	 	 	 	 	 	 	 	 	 	 	 	 	 	 	 	 	 	1581540180	9.73	18.02
12/02/2020 20:43:01	120220	12022020	204301	236.67	12.316678	-56.911267	236.73	-0.090	-0.070	1.810	236.65	-1.50	2.20	 	 	 	 	 	 	 	 	 	 	 	 	 	 	 	 	 	 	1581540181	9.23	17.09
12/02/2020 20:43:02	120220	12022020	204302	236.86	12.316657	-56.911303	236.98	-0.120	0.400	0.840	236.97	-1.00	1.20	1014.60	26.50	26.60	20.30	20.30	204.0	68.0	68.0	390.0	28.3	219.00	4.70	77.00	9.10	12641	9717.0	27.5	27.5	1581540182	9.13	16.91
12/02/2020 20:43:03	120220	12022020	204303	237.51	12.316632	-56.911340	237.66	0.030	0.330	-0.120	237.67	-1.10	0.30	 	 	 	 	 	 	 	 	 	 	 	 	 	 	 	 	 	 	1581540183	9.51	17.61
12/02/2020 20:43:04	120220	12022020	204304	238.33	12.316605	-56.911378	238.46	0.150	-0.150	-0.570	238.47	-1.60	-0.10	 	 	 	 	 	 	 	 	 	 	 	 	 	 	 	 	 	 	1581540184	9.96	18.45
12/02/2020 20:43:05	120220	12022020	204305	238.93	12.316582	-56.911420	239.03	0.110	-0.590	-0.240	238.99	-2.00	0.20	 	 	 	 	 	 	 	 	 	 	 	 	 	 	 	 	 	 	1581540185	9.96	18.45
12/02/2020 20:43:06	120220	12022020	204306	239.17	12.316563	-56.911462	239.27	-0.070	-0.690	0.590	239.19	-2.10	1.10	 	 	 	 	 	 	 	 	 	 	 	 	 	 	 	 	 	 	1581540186	9.66	17.89
12/02/2020 20:43:07	120220	12022020	204307	239.21	12.316547	-56.911502	239.29	-0.180	-0.560	1.420	239.20	-2.00	1.90	 	 	 	 	 	 	 	 	 	 	 	 	 	 	 	 	 	 	1581540187	9.40	17.41
12/02/2020 20:43:08	120220	12022020	204308	239.15	12.316530	-56.911543	239.23	-0.100	-0.500	1.780	239.14	-1.90	2.20	 	 	 	 	 	 	 	 	 	 	 	 	 	 	 	 	 	 	1581540188	9.41	17.43
12/02/2020 20:43:09	120220	12022020	204309	239.01	12.316508	-56.911583	239.07	0.130	-0.690	1.640	238.97	-2.10	2.10	 	 	 	 	 	 	 	 	 	 	 	 	 	 	 	 	 	 	1581540189	9.68	17.93
12/02/2020 20:43:10	120220	12022020	204310	238.75	12.316483	-56.911625	238.78	0.320	-0.990	1.300	238.68	-2.40	1.70	 	 	 	 	 	 	 	 	 	 	 	 	 	 	 	 	 	 	1581540190	10.05	18.61
12/02/2020 20:43:11	120220	12022020	204311	238.39	12.316458	-56.911665	238.43	0.260	-1.020	1.050	238.32	-2.40	1.50	 	 	 	 	 	 	 	 	 	 	 	 	 	 	 	 	 	 	1581540191	10.13	18.76
12/02/2020 20:43:12	120220	12022020	204312	238.00	12.316435	-56.911705	238.04	-0.070	-0.540	1.050	237.92	-1.90	1.50	 	 	 	 	 	 	 	 	 	 	 	 	 	 	 	 	 	 	1581540192	9.80	18.15
12/02/2020 20:43:13	120220	12022020	204313	237.65	12.316415	-56.911743	237.71	-0.450	0.320	1.230	237.61	-1.10	1.70	 	 	 	 	 	 	 	 	 	 	 	 	 	 	 	 	 	 	1581540193	9.42	17.45
12/02/2020 20:43:14	120220	12022020	204314	237.61	12.316397	-56.911783	237.71	-0.640	1.020	1.280	237.65	-0.40	1.70	 	 	 	 	 	 	 	 	 	 	 	 	 	 	 	 	 	 	1581540194	9.33	17.28
12/02/2020 20:43:15	120220	12022020	204315	237.84	12.316377	-56.911825	238.04	-0.480	1.130	0.930	237.92	-0.30	1.30	 	 	 	 	 	 	 	 	 	 	 	 	 	 	 	 	 	 	1581540195	9.61	17.80
12/02/2020 20:43:16	120220	12022020	204316	238.49	12.316355	-56.911867	238.62	-0.080	0.630	0.240	238.63	-0.80	0.60	 	 	 	 	 	 	 	 	 	 	 	 	 	 	 	 	 	 	1581540196	9.93	18.39
12/02/2020 20:43:17	120220	12022020	204317	239.17	12.316332	-56.911907	239.27	0.280	-0.080	-0.320	239.29	-1.50	0.10	 	 	 	 	 	 	 	 	 	 	 	 	 	 	 	 	 	 	1581540197	10.00	18.52
12/02/2020 20:43:18	120220	12022020	204318	239.72	12.316308	-56.911947	239.80	0.420	-0.580	-0.440	239.79	-2.00	0.00	 	 	 	 	 	 	 	 	 	 	 	 	 	 	 	 	 	 	1581540198	9.66	17.89
12/02/2020 20:43:19	120220	12022020	204319	240.01	12.316288	-56.911985	240.09	0.380	-0.810	-0.070	240.03	-2.20	0.40	 	 	 	 	 	 	 	 	 	 	 	 	 	 	 	 	 	 	1581540199	9.21	17.06
12/02/2020 20:43:20	120220	12022020	204320	239.93	12.316268	-56.912023	239.99	0.350	-1.080	0.600	239.86	-2.50	1.10	 	 	 	 	 	 	 	 	 	 	 	 	 	 	 	 	 	 	1581540200	9.20	17.04
12/02/2020 20:43:21	120220	12022020	204321	239.42	12.316248	-56.912063	239.45	0.370	-1.490	1.320	239.28	-2.90	1.80	 	 	 	 	 	 	 	 	 	 	 	 	 	 	 	 	 	 	1581540201	9.63	17.83
12/02/2020 20:43:22	120220	12022020	204322	238.72	12.316227	-56.912107	238.75	0.280	-1.750	1.820	238.59	-3.20	2.30	 	 	 	 	 	 	 	 	 	 	 	 	 	 	 	 	 	 	1581540202	10.01	18.54
12/02/2020 20:43:23	120220	12022020	204323	238.20	12.316207	-56.912148	238.26	-0.030	-1.420	1.870	238.14	-2.80	2.30	 	 	 	 	 	 	 	 	 	 	 	 	 	 	 	 	 	 	1581540203	9.93	18.39
12/02/2020 20:43:24	120220	12022020	204324	238.09	12.316185	-56.912188	238.20	-0.420	-0.480	1.640	238.11	-1.80	2.10	 	 	 	 	 	 	 	 	 	 	 	 	 	 	 	 	 	 	1581540204	9.52	17.63
12/02/2020 20:43:25	120220	12022020	204325	238.31	12.316165	-56.912227	238.43	-0.690	0.520	1.330	238.38	-0.90	1.70	 	 	 	 	 	 	 	 	 	 	 	 	 	 	 	 	 	 	1581540205	9.37	17.35
12/02/2020 20:43:26	120220	12022020	204326	238.67	12.316145	-56.912268	238.80	-0.700	1.070	1.060	238.75	-0.40	1.50	 	 	 	 	 	 	 	 	 	 	 	 	 	 	 	 	 	 	1581540206	9.66	17.89
12/02/2020 20:43:27	120220	12022020	204327	238.98	12.316123	-56.912310	239.16	-0.470	1.040	0.890	239.04	-0.40	1.30	 	 	 	 	 	 	 	 	 	 	 	 	 	 	 	 	 	 	1581540207	10.05	18.61
12/02/2020 20:43:28	120220	12022020	204328	239.38	12.316102	-56.912353	239.47	-0.110	0.660	0.710	239.44	-0.80	1.10	 	 	 	 	 	 	 	 	 	 	 	 	 	 	 	 	 	 	1581540208	10.18	18.85
12/02/2020 20:43:29	120220	12022020	204329	239.57	12.316080	-56.912395	239.65	0.210	0.220	0.610	239.59	-1.20	1.00	 	 	 	 	 	 	 	 	 	 	 	 	 	 	 	 	 	 	1581540209	9.98	18.48
12/02/2020 20:43:30	120220	12022020	204330	239.52	12.316058	-56.912435	239.55	0.410	-0.090	0.810	239.47	-1.50	1.30	 	 	 	 	 	 	 	 	 	 	 	 	 	 	 	 	 	 	1581540210	9.61	17.80
12/02/2020 20:43:31	120220	12022020	204331	239.22	12.316038	-56.912473	239.24	0.480	-0.250	1.060	239.15	-1.70	1.50	 	 	 	 	 	 	 	 	 	 	 	 	 	 	 	 	 	 	1581540211	9.26	17.15
12/02/2020 20:43:32	120220	12022020	204332	238.97	12.316018	-56.912510	239.00	0.500	-0.380	0.950	238.94	-1.80	1.40	 	 	 	 	 	 	 	 	 	 	 	 	 	 	 	 	 	 	1581540212	9.08	16.82
12/02/2020 20:43:33	120220	12022020	204333	238.93	12.315997	-56.912548	238.99	0.500	-0.620	0.460	238.94	-2.10	0.90	 	 	 	 	 	 	 	 	 	 	 	 	 	 	 	 	 	 	1581540213	9.16	16.96
12/02/2020 20:43:34	120220	12022020	204334	238.99	12.315972	-56.912585	239.05	0.440	-1.000	0.080	238.99	-2.40	0.50	 	 	 	 	 	 	 	 	 	 	 	 	 	 	 	 	 	 	1581540214	9.41	17.43
12/02/2020 20:43:35	120220	12022020	204335	238.88	12.315950	-56.912625	238.92	0.260	-1.470	0.320	238.82	-2.90	0.80	 	 	 	 	 	 	 	 	 	 	 	 	 	 	 	 	 	 	1581540215	9.73	18.02
12/02/2020 20:43:36	120220	12022020	204336	238.55	12.315930	-56.912668	238.60	-0.010	-1.810	0.990	238.48	-3.20	1.50	 	 	 	 	 	 	 	 	 	 	 	 	 	 	 	 	 	 	1581540216	10.06	18.63
12/02/2020 20:43:37	120220	12022020	204337	238.21	12.315912	-56.912712	238.29	-0.280	-1.700	1.700	238.16	-3.10	2.20	 	 	 	 	 	 	 	 	 	 	 	 	 	 	 	 	 	 	1581540217	10.17	18.83
12/02/2020 20:43:38	120220	12022020	204338	238.03	12.315895	-56.912757	238.12	-0.490	-0.960	2.070	238.01	-2.30	2.50	 	 	 	 	 	 	 	 	 	 	 	 	 	 	 	 	 	 	1581540218	9.96	18.45
12/02/2020 20:43:39	120220	12022020	204339	238.05	12.315877	-56.912797	238.17	-0.620	0.110	1.890	238.08	-1.30	2.30	 	 	 	 	 	 	 	 	 	 	 	 	 	 	 	 	 	 	1581540219	9.58	17.74
12/02/2020 20:43:40	120220	12022020	204340	238.19	12.315855	-56.912837	238.30	-0.610	0.970	1.440	238.21	-0.40	1.90	 	 	 	 	 	 	 	 	 	 	 	 	 	 	 	 	 	 	1581540220	9.52	17.63
12/02/2020 20:43:41	120220	12022020	204341	238.22	12.315830	-56.912875	238.30	-0.460	1.250	1.110	238.21	-0.20	1.50	 	 	 	 	 	 	 	 	 	 	 	 	 	 	 	 	 	 	1581540221	9.87	18.28
12/02/2020 20:43:42	120220	12022020	204342	238.14	12.315805	-56.912917	238.20	-0.220	1.050	0.920	238.12	-0.40	1.40	 	 	 	 	 	 	 	 	 	 	 	 	 	 	 	 	 	 	1581540222	10.17	18.83
12/02/2020 20:43:43	120220	12022020	204343	238.05	12.315782	-56.912957	238.11	0.050	0.860	0.860	238.04	-0.60	1.30	 	 	 	 	 	 	 	 	 	 	 	 	 	 	 	 	 	 	1581540223	9.98	18.48
12/02/2020 20:43:44	120220	12022020	204344	238.08	12.315760	-56.912997	238.15	0.300	0.770	0.870	238.10	-0.70	1.30	 	 	 	 	 	 	 	 	 	 	 	 	 	 	 	 	 	 	1581540224	9.38	17.37
12/02/2020 20:43:45	120220	12022020	204345	238.20	12.315738	-56.913033	238.28	0.500	0.330	0.850	238.22	-1.10	1.30	 	 	 	 	 	 	 	 	 	 	 	 	 	 	 	 	 	 	1581540225	9.17	16.98
12/02/2020 20:43:46	120220	12022020	204346	238.27	12.315717	-56.913073	238.36	0.670	-0.650	0.920	238.28	-2.10	1.40	 	 	 	 	 	 	 	 	 	 	 	 	 	 	 	 	 	 	1581540226	9.52	17.63
12/02/2020 20:43:47	120220	12022020	204347	238.25	12.315695	-56.913113	238.33	0.760	-1.790	1.090	238.23	-3.30	1.50	 	 	 	 	 	 	 	 	 	 	 	 	 	 	 	 	 	 	1581540227	9.89	18.32
12/02/2020 20:43:48	120220	12022020	204348	238.12	12.315675	-56.913155	238.19	0.700	-2.460	1.330	238.08	-3.90	1.80	 	 	 	 	 	 	 	 	 	 	 	 	 	 	 	 	 	 	1581540228	9.85	18.24
12/02/2020 20:43:49	120220	12022020	204349	237.91	12.315655	-56.913197	237.99	0.480	-2.350	1.510	237.87	-3.70	1.90	 	 	 	 	 	 	 	 	 	 	 	 	 	 	 	 	 	 	1581540229	9.51	17.61
12/02/2020 20:43:50	120220	12022020	204350	237.74	12.315635	-56.913235	237.82	0.150	-1.650	1.540	237.71	-3.00	2.00	 	 	 	 	 	 	 	 	 	 	 	 	 	 	 	 	 	 	1581540230	9.28	17.19
12/02/2020 20:43:51	120220	12022020	204351	237.64	12.315615	-56.913275	237.71	-0.230	-0.820	1.510	237.61	-2.20	1.90	 	 	 	 	 	 	 	 	 	 	 	 	 	 	 	 	 	 	1581540231	9.49	17.58
12/02/2020 20:43:52	120220	12022020	204352	237.54	12.315592	-56.913315	237.66	-0.610	-0.040	1.530	237.54	-1.40	2.00	 	 	 	 	 	 	 	 	 	 	 	 	 	 	 	 	 	 	1581540232	9.93	18.39
12/02/2020 20:43:53	120220	12022020	204353	237.58	12.315568	-56.913357	237.73	-0.940	0.780	1.490	237.60	-0.60	1.90	 	 	 	 	 	 	 	 	 	 	 	 	 	 	 	 	 	 	1581540233	10.02	18.56
12/02/2020 20:43:54	120220	12022020	204354	237.84	12.315547	-56.913397	237.99	-1.070	1.510	1.250	237.90	0.10	1.70	 	 	 	 	 	 	 	 	 	 	 	 	 	 	 	 	 	 	1581540234	9.86	18.26
12/02/2020 20:43:55	120220	12022020	204355	238.26	12.315523	-56.913437	238.41	-0.830	1.810	0.710	238.36	0.40	1.10	 	 	 	 	 	 	 	 	 	 	 	 	 	 	 	 	 	 	1581540235	9.74	18.04
12/02/2020 20:43:56	120220	12022020	204356	238.73	12.315498	-56.913477	238.84	-0.230	1.380	0.130	238.80	-0.10	0.60	 	 	 	 	 	 	 	 	 	 	 	 	 	 	 	 	 	 	1581540236	9.89	18.32
12/02/2020 20:43:57	120220	12022020	204357	238.94	12.315473	-56.913517	239.02	0.460	0.280	-0.020	238.95	-1.20	0.40	 	 	 	 	 	 	 	 	 	 	 	 	 	 	 	 	 	 	1581540237	10.19	18.87
12/02/2020 20:43:58	120220	12022020	204358	238.83	12.315450	-56.913558	238.88	0.880	-0.870	0.370	238.77	-2.30	0.90	 	 	 	 	 	 	 	 	 	 	 	 	 	 	 	 	 	 	1581540238	10.18	18.85
12/02/2020 20:43:59	120220	12022020	204359	238.49	12.315430	-56.913600	238.54	0.890	-1.440	1.130	238.42	-2.90	1.60	 	 	 	 	 	 	 	 	 	 	 	 	 	 	 	 	 	 	1581540239	9.67	17.91
12/02/2020 20:44:00	120220	12022020	204400	238.14	12.315415	-56.913640	238.20	0.620	-1.440	1.720	238.08	-2.90	2.20	 	 	 	 	 	 	 	 	 	 	 	 	 	 	 	 	 	 	1581540240	9.12	16.89
12/02/2020 20:44:01	120220	12022020	204401	237.89	12.315397	-56.913678	237.99	0.260	-1.240	1.860	237.87	-2.70	2.30	 	 	 	 	 	 	 	 	 	 	 	 	 	 	 	 	 	 	1581540241	9.00	16.67
12/02/2020 20:44:02	120220	12022020	204402	237.84	12.315377	-56.913718	237.96	-0.070	-1.090	1.570	237.86	-2.50	2.00	1014.70	26.60	26.70	20.90	20.90	198.0	70.0	70.0	390.0	28.3	227.00	4.40	80.00	8.60	12343	8481.0	27.5	27.5	1581540242	9.32	17.26
12/02/2020 20:44:03	120220	12022020	204403	237.97	12.315353	-56.913757	238.14	-0.300	-0.890	1.020	238.02	-2.30	1.40	 	 	 	 	 	 	 	 	 	 	 	 	 	 	 	 	 	 	1581540243	9.64	17.85
12/02/2020 20:44:04	120220	12022020	204404	238.34	12.315330	-56.913797	238.46	-0.420	-0.480	0.410	238.41	-1.90	0.80	 	 	 	 	 	 	 	 	 	 	 	 	 	 	 	 	 	 	1581540244	9.72	18.00
12/02/2020 20:44:05	120220	12022020	204405	238.61	12.315307	-56.913835	238.79	-0.410	0.060	-0.060	238.68	-1.30	0.40	 	 	 	 	 	 	 	 	 	 	 	 	 	 	 	 	 	 	1581540245	9.63	17.83
12/02/2020 20:44:06	120220	12022020	204406	239.03	12.315282	-56.913873	239.12	-0.280	0.470	-0.340	239.09	-0.90	0.10	 	 	 	 	 	 	 	 	 	 	 	 	 	 	 	 	 	 	1581540246	9.64	17.85
12/02/2020 20:44:07	120220	12022020	204407	239.28	12.315258	-56.913913	239.35	-0.080	0.520	-0.220	239.29	-0.90	0.20	 	 	 	 	 	 	 	 	 	 	 	 	 	 	 	 	 	 	1581540247	9.81	18.17
12/02/2020 20:44:08	120220	12022020	204408	239.22	12.315235	-56.913955	239.25	0.040	0.200	0.310	239.17	-1.30	0.80	 	 	 	 	 	 	 	 	 	 	 	 	 	 	 	 	 	 	1581540248	10.07	18.65
12/02/2020 20:44:09	120220	12022020	204409	238.88	12.315213	-56.913997	238.91	0.000	-0.190	1.060	238.79	-1.60	1.50	 	 	 	 	 	 	 	 	 	 	 	 	 	 	 	 	 	 	1581540249	10.11	18.72
12/02/2020 20:44:10	120220	12022020	204410	238.45	12.315195	-56.914040	238.50	-0.080	-0.330	1.730	238.37	-1.80	2.20	 	 	 	 	 	 	 	 	 	 	 	 	 	 	 	 	 	 	1581540250	9.86	18.26
12/02/2020 20:44:11	120220	12022020	204411	238.05	12.315178	-56.914082	238.13	-0.070	-0.240	2.160	237.98	-1.70	2.60	 	 	 	 	 	 	 	 	 	 	 	 	 	 	 	 	 	 	1581540251	9.51	17.61
12/02/2020 20:44:12	120220	12022020	204412	237.80	12.315160	-56.914122	237.90	0.100	-0.170	2.170	237.76	-1.60	2.60	 	 	 	 	 	 	 	 	 	 	 	 	 	 	 	 	 	 	1581540252	9.38	17.37
12/02/2020 20:44:13	120220	12022020	204413	237.69	12.315140	-56.914162	237.79	0.310	-0.260	1.760	237.68	-1.70	2.20	 	 	 	 	 	 	 	 	 	 	 	 	 	 	 	 	 	 	1581540253	9.47	17.54
12/02/2020 20:44:14	120220	12022020	204414	237.70	12.315118	-56.914200	237.83	0.410	-0.390	1.040	237.72	-1.80	1.40	 	 	 	 	 	 	 	 	 	 	 	 	 	 	 	 	 	 	1581540254	9.57	17.72
12/02/2020 20:44:15	120220	12022020	204415	237.86	12.315093	-56.914238	237.99	0.350	-0.440	0.200	237.90	-1.90	0.60	 	 	 	 	 	 	 	 	 	 	 	 	 	 	 	 	 	 	1581540255	9.50	17.59
12/02/2020 20:44:16	120220	12022020	204416	238.15	12.315070	-56.914275	238.31	0.200	-0.460	-0.470	238.23	-1.90	-0.00	 	 	 	 	 	 	 	 	 	 	 	 	 	 	 	 	 	 	1581540256	9.44	17.48
12/02/2020 20:44:17	120220	12022020	204417	238.48	12.315045	-56.914313	238.73	0.000	-0.520	-0.730	238.56	-1.90	-0.30	 	 	 	 	 	 	 	 	 	 	 	 	 	 	 	 	 	 	1581540257	9.50	17.59
12/02/2020 20:44:18	120220	12022020	204418	238.94	12.315023	-56.914352	239.09	-0.140	-0.590	-0.560	239.00	-2.00	-0.10	 	 	 	 	 	 	 	 	 	 	 	 	 	 	 	 	 	 	1581540258	9.58	17.74
12/02/2020 20:44:19	120220	12022020	204419	239.13	12.315002	-56.914392	239.29	-0.180	-0.640	-0.120	239.16	-2.10	0.40	 	 	 	 	 	 	 	 	 	 	 	 	 	 	 	 	 	 	1581540259	9.63	17.83
12/02/2020 20:44:20	120220	12022020	204420	239.21	12.314980	-56.914433	239.33	-0.140	-0.640	0.450	239.20	-2.10	0.90	 	 	 	 	 	 	 	 	 	 	 	 	 	 	 	 	 	 	1581540260	9.68	17.93
12/02/2020 20:44:21	120220	12022020	204421	239.01	12.314960	-56.914473	239.13	-0.090	-0.620	1.070	238.94	-2.00	1.50	 	 	 	 	 	 	 	 	 	 	 	 	 	 	 	 	 	 	1581540261	9.80	18.15
12/02/2020 20:44:22	120220	12022020	204422	238.62	12.314940	-56.914517	238.72	-0.130	-0.530	1.640	238.53	-2.00	2.10	 	 	 	 	 	 	 	 	 	 	 	 	 	 	 	 	 	 	1581540262	9.94	18.41
12/02/2020 20:44:23	120220	12022020	204423	238.26	12.314920	-56.914558	238.37	-0.280	-0.240	1.930	238.21	-1.70	2.40	 	 	 	 	 	 	 	 	 	 	 	 	 	 	 	 	 	 	1581540263	9.88	18.30
12/02/2020 20:44:24	120220	12022020	204424	238.04	12.314900	-56.914600	238.16	-0.400	0.160	1.980	238.00	-1.20	2.40	 	 	 	 	 	 	 	 	 	 	 	 	 	 	 	 	 	 	1581540264	9.68	17.93
12/02/2020 20:44:25	120220	12022020	204425	237.89	12.314880	-56.914640	238.02	-0.330	0.470	1.810	237.87	-0.90	2.20	 	 	 	 	 	 	 	 	 	 	 	 	 	 	 	 	 	 	1581540265	9.62	17.82
12/02/2020 20:44:26	120220	12022020	204426	237.77	12.314858	-56.914680	237.87	-0.090	0.590	1.520	237.74	-0.80	1.90	 	 	 	 	 	 	 	 	 	 	 	 	 	 	 	 	 	 	1581540266	9.63	17.83
12/02/2020 20:44:27	120220	12022020	204427	237.61	12.314837	-56.914720	237.72	0.170	0.490	1.230	237.58	-1.00	1.70	 	 	 	 	 	 	 	 	 	 	 	 	 	 	 	 	 	 	1581540267	9.64	17.85
12/02/2020 20:44:28	120220	12022020	204428	237.51	12.314815	-56.914760	237.62	0.330	0.280	0.900	237.51	-1.20	1.30	 	 	 	 	 	 	 	 	 	 	 	 	 	 	 	 	 	 	1581540268	9.53	17.65
12/02/2020 20:44:29	120220	12022020	204429	237.56	12.314793	-56.914798	237.71	0.430	-0.150	0.480	237.60	-1.60	0.90	 	 	 	 	 	 	 	 	 	 	 	 	 	 	 	 	 	 	1581540269	9.41	17.43
12/02/2020 20:44:30	120220	12022020	204430	237.93	12.314770	-56.914837	238.06	0.520	-0.880	0.010	238.03	-2.40	0.40	 	 	 	 	 	 	 	 	 	 	 	 	 	 	 	 	 	 	1581540270	9.64	17.85
12/02/2020 20:44:31	120220	12022020	204431	238.44	12.314747	-56.914877	238.56	0.490	-1.510	-0.290	238.56	-3.00	0.20	 	 	 	 	 	 	 	 	 	 	 	 	 	 	 	 	 	 	1581540271	9.83	18.21
12/02/2020 20:44:32	120220	12022020	204432	238.98	12.314725	-56.914917	239.08	0.270	-1.580	-0.280	239.06	-3.00	0.20	 	 	 	 	 	 	 	 	 	 	 	 	 	 	 	 	 	 	1581540272	9.60	17.78
12/02/2020 20:44:33	120220	12022020	204433	239.34	12.314703	-56.914955	239.43	-0.030	-1.140	0.070	239.39	-2.50	0.50	 	 	 	 	 	 	 	 	 	 	 	 	 	 	 	 	 	 	1581540273	9.23	17.09
12/02/2020 20:44:34	120220	12022020	204434	239.48	12.314683	-56.914993	239.57	-0.300	-0.630	0.520	239.49	-2.00	1.00	 	 	 	 	 	 	 	 	 	 	 	 	 	 	 	 	 	 	1581540274	9.28	17.19
12/02/2020 20:44:35	120220	12022020	204435	239.44	12.314662	-56.915033	239.51	-0.470	-0.310	0.920	239.40	-1.70	1.40	 	 	 	 	 	 	 	 	 	 	 	 	 	 	 	 	 	 	1581540275	9.65	17.87
12/02/2020 20:44:36	120220	12022020	204436	239.12	12.314640	-56.915075	239.17	-0.540	-0.140	1.320	239.02	-1.50	1.80	 	 	 	 	 	 	 	 	 	 	 	 	 	 	 	 	 	 	1581540276	9.98	18.48
12/02/2020 20:44:37	120220	12022020	204437	238.52	12.314618	-56.915117	238.55	-0.470	0.090	1.720	238.37	-1.30	2.20	 	 	 	 	 	 	 	 	 	 	 	 	 	 	 	 	 	 	1581540277	10.08	18.67
12/02/2020 20:44:38	120220	12022020	204438	237.75	12.314598	-56.915160	237.78	-0.310	0.420	2.100	237.59	-1.00	2.60	 	 	 	 	 	 	 	 	 	 	 	 	 	 	 	 	 	 	1581540278	9.97	18.46
12/02/2020 20:44:39	120220	12022020	204439	237.02	12.314582	-56.915203	237.08	-0.080	0.700	2.270	236.89	-0.70	2.70	 	 	 	 	 	 	 	 	 	 	 	 	 	 	 	 	 	 	1581540279	9.84	18.22
12/02/2020 20:44:40	120220	12022020	204440	236.58	12.314562	-56.915245	236.67	0.180	0.810	1.980	236.55	-0.60	2.40	 	 	 	 	 	 	 	 	 	 	 	 	 	 	 	 	 	 	1581540280	9.66	17.89
12/02/2020 20:44:41	120220	12022020	204441	236.59	12.314540	-56.915283	236.78	0.390	0.560	1.140	236.66	-0.90	1.50	 	 	 	 	 	 	 	 	 	 	 	 	 	 	 	 	 	 	1581540281	9.51	17.61
12/02/2020 20:44:42	120220	12022020	204442	237.34	12.314517	-56.915322	237.49	0.480	-0.170	-0.010	237.54	-1.60	0.40	 	 	 	 	 	 	 	 	 	 	 	 	 	 	 	 	 	 	1581540282	9.68	17.93
12/02/2020 20:44:43	120220	12022020	204443	238.37	12.314490	-56.915360	238.53	0.430	-1.050	-0.980	238.58	-2.50	-0.60	 	 	 	 	 	 	 	 	 	 	 	 	 	 	 	 	 	 	1581540283	9.87	18.28
12/02/2020 20:44:44	120220	12022020	204444	239.41	12.314463	-56.915398	239.55	0.250	-1.650	-1.330	239.57	-3.10	-0.90	 	 	 	 	 	 	 	 	 	 	 	 	 	 	 	 	 	 	1581540284	9.72	18.00
12/02/2020 20:44:45	120220	12022020	204445	240.14	12.314442	-56.915437	240.22	-0.050	-1.750	-0.990	240.22	-3.20	-0.50	 	 	 	 	 	 	 	 	 	 	 	 	 	 	 	 	 	 	1581540285	9.45	17.50
12/02/2020 20:44:46	120220	12022020	204446	240.39	12.314422	-56.915475	240.43	-0.360	-1.410	-0.100	240.38	-2.80	0.40	 	 	 	 	 	 	 	 	 	 	 	 	 	 	 	 	 	 	1581540286	9.24	17.11
12/02/2020 20:44:47	120220	12022020	204447	240.18	12.314405	-56.915517	240.21	-0.510	-0.870	1.000	240.10	-2.30	1.50	 	 	 	 	 	 	 	 	 	 	 	 	 	 	 	 	 	 	1581540287	9.35	17.32
12/02/2020 20:44:48	120220	12022020	204448	239.64	12.314388	-56.915558	239.66	-0.370	-0.270	1.910	239.49	-1.70	2.40	 	 	 	 	 	 	 	 	 	 	 	 	 	 	 	 	 	 	1581540288	9.62	17.82
12/02/2020 20:44:49	120220	12022020	204449	238.84	12.314370	-56.915602	238.88	-0.060	0.300	2.480	238.67	-1.10	2.90	 	 	 	 	 	 	 	 	 	 	 	 	 	 	 	 	 	 	1581540289	9.80	18.15
12/02/2020 20:44:50	120220	12022020	204450	237.99	12.314352	-56.915643	238.03	0.230	0.640	2.580	237.83	-0.80	3.00	 	 	 	 	 	 	 	 	 	 	 	 	 	 	 	 	 	 	1581540290	9.93	18.39
12/02/2020 20:44:51	120220	12022020	204451	237.33	12.314328	-56.915685	237.40	0.330	0.660	2.210	237.23	-0.80	2.60	 	 	 	 	 	 	 	 	 	 	 	 	 	 	 	 	 	 	1581540291	10.04	18.59
12/02/2020 20:44:52	120220	12022020	204452	237.01	12.314307	-56.915727	237.09	0.260	0.420	1.560	236.98	-1.00	2.00	 	 	 	 	 	 	 	 	 	 	 	 	 	 	 	 	 	 	1581540292	10.01	18.54
12/02/2020 20:44:53	120220	12022020	204453	236.98	12.314283	-56.915767	237.11	0.080	0.120	0.880	237.00	-1.30	1.30	 	 	 	 	 	 	 	 	 	 	 	 	 	 	 	 	 	 	1581540293	9.85	18.24
12/02/2020 20:44:54	120220	12022020	204454	237.31	12.314262	-56.915807	237.42	-0.100	-0.050	0.260	237.41	-1.50	0.70	 	 	 	 	 	 	 	 	 	 	 	 	 	 	 	 	 	 	1581540294	9.49	17.58
12/02/2020 20:44:55	120220	12022020	204455	237.78	12.314240	-56.915843	238.05	-0.220	-0.190	-0.230	237.91	-1.60	0.20	 	 	 	 	 	 	 	 	 	 	 	 	 	 	 	 	 	 	1581540295	9.18	17.00
12/02/2020 20:44:56	120220	12022020	204456	238.69	12.314220	-56.915882	238.82	-0.220	-0.480	-0.460	238.85	-1.90	-0.00	 	 	 	 	 	 	 	 	 	 	 	 	 	 	 	 	 	 	1581540296	9.16	16.96
12/02/2020 20:44:57	120220	12022020	204457	239.46	12.314198	-56.915920	239.58	-0.070	-0.950	-0.430	239.58	-2.40	0.00	 	 	 	 	 	 	 	 	 	 	 	 	 	 	 	 	 	 	1581540297	9.40	17.41
12/02/2020 20:44:58	120220	12022020	204458	239.96	12.314177	-56.915960	240.04	0.140	-1.310	-0.150	240.01	-2.70	0.30	 	 	 	 	 	 	 	 	 	 	 	 	 	 	 	 	 	 	1581540298	9.58	17.74
12/02/2020 20:44:59	120220	12022020	204459	240.03	12.314157	-56.916000	240.07	0.300	-1.340	0.380	239.99	-2.70	0.90	 	 	 	 	 	 	 	 	 	 	 	 	 	 	 	 	 	 	1581540299	9.53	17.65
12/02/2020 20:45:00	120220	12022020	204500	239.70	12.314135	-56.916040	239.72	0.300	-1.060	1.050	239.59	-2.50	1.50	 	 	 	 	 	 	 	 	 	 	 	 	 	 	 	 	 	 	1581540300	9.45	17.50
12/02/2020 20:45:01	120220	12022020	204501	239.08	12.314113	-56.916080	239.09	0.120	-0.730	1.740	238.92	-2.10	2.20	 	 	 	 	 	 	 	 	 	 	 	 	 	 	 	 	 	 	1581540301	9.61	17.80
12/02/2020 20:45:02	120220	12022020	204502	238.20	12.314095	-56.916122	238.22	-0.170	-0.410	2.440	238.00	-1.80	2.90	1014.70	26.50	26.60	20.80	20.80	192.0	70.0	70.0	390.0	28.2	234.00	4.90	86.00	8.80	12375	8545.0	27.5	27.5	1581540302	9.95	18.43
12/02/2020 20:45:03	120220	12022020	204503	237.15	12.314077	-56.916165	237.19	-0.430	0.110	3.100	236.94	-1.30	3.60	 	 	 	 	 	 	 	 	 	 	 	 	 	 	 	 	 	 	1581540303	10.05	18.61
12/02/2020 20:45:04	120220	12022020	204504	236.29	12.314058	-56.916208	236.37	-0.540	0.800	3.360	236.19	-0.60	3.80	 	 	 	 	 	 	 	 	 	 	 	 	 	 	 	 	 	 	1581540304	9.82	18.19
12/02/2020 20:45:05	120220	12022020	204505	236.05	12.314040	-56.916250	236.21	-0.460	1.250	2.830	236.09	-0.20	3.20	 	 	 	 	 	 	 	 	 	 	 	 	 	 	 	 	 	 	1581540305	9.53	17.65
12/02/2020 20:45:06	120220	12022020	204506	236.53	12.314018	-56.916288	236.72	-0.200	1.120	1.570	236.70	-0.30	1.90	 	 	 	 	 	 	 	 	 	 	 	 	 	 	 	 	 	 	1581540306	9.53	17.65
12/02/2020 20:45:07	120220	12022020	204507	237.32	12.313993	-56.916327	237.70	0.190	0.400	0.040	237.52	-1.10	0.40	 	 	 	 	 	 	 	 	 	 	 	 	 	 	 	 	 	 	1581540307	9.72	18.00
12/02/2020 20:45:08	120220	12022020	204508	238.55	12.313968	-56.916365	238.69	0.530	-0.560	-0.970	238.73	-2.00	-0.50	 	 	 	 	 	 	 	 	 	 	 	 	 	 	 	 	 	 	1581540308	9.86	18.26
12/02/2020 20:45:09	120220	12022020	204509	239.15	12.313945	-56.916405	239.33	0.610	-1.240	-1.060	239.26	-2.70	-0.60	 	 	 	 	 	 	 	 	 	 	 	 	 	 	 	 	 	 	1581540309	9.61	17.80
12/02/2020 20:45:10	120220	12022020	204510	239.52	12.313923	-56.916442	239.57	0.390	-1.370	-0.510	239.53	-2.80	-0.00	 	 	 	 	 	 	 	 	 	 	 	 	 	 	 	 	 	 	1581540310	9.11	16.87
12/02/2020 20:45:11	120220	12022020	204511	239.42	12.313905	-56.916478	239.46	0.060	-1.110	0.330	239.37	-2.50	0.80	 	 	 	 	 	 	 	 	 	 	 	 	 	 	 	 	 	 	1581540311	8.78	16.26
12/02/2020 20:45:12	120220	12022020	204512	239.08	12.313887	-56.916517	239.13	-0.120	-0.870	1.160	238.99	-2.30	1.60	 	 	 	 	 	 	 	 	 	 	 	 	 	 	 	 	 	 	1581540312	8.97	16.61
12/02/2020 20:45:13	120220	12022020	204513	238.61	12.313867	-56.916557	238.68	-0.080	-0.830	1.760	238.51	-2.20	2.20	 	 	 	 	 	 	 	 	 	 	 	 	 	 	 	 	 	 	1581540313	9.47	17.54
12/02/2020 20:45:14	120220	12022020	204514	238.14	12.313845	-56.916598	238.23	0.070	-0.830	2.070	238.06	-2.20	2.50	 	 	 	 	 	 	 	 	 	 	 	 	 	 	 	 	 	 	1581540314	9.90	18.33
12/02/2020 20:45:15	120220	12022020	204515	237.84	12.313825	-56.916642	237.97	0.090	-0.550	2.130	237.82	-1.90	2.60	 	 	 	 	 	 	 	 	 	 	 	 	 	 	 	 	 	 	1581540315	9.97	18.46
12/02/2020 20:45:16	120220	12022020	204516	237.81	12.313807	-56.916682	237.94	-0.130	0.040	1.950	237.83	-1.30	2.40	 	 	 	 	 	 	 	 	 	 	 	 	 	 	 	 	 	 	1581540316	9.66	17.89
12/02/2020 20:45:17	120220	12022020	204517	237.91	12.313787	-56.916722	238.04	-0.480	0.610	1.700	237.93	-0.80	2.10	 	 	 	 	 	 	 	 	 	 	 	 	 	 	 	 	 	 	1581540317	9.47	17.54
12/02/2020 20:45:18	120220	12022020	204518	237.99	12.313767	-56.916763	238.12	-0.680	0.870	1.490	238.00	-0.50	1.90	 	 	 	 	 	 	 	 	 	 	 	 	 	 	 	 	 	 	1581540318	9.55	17.69
12/02/2020 20:45:19	120220	12022020	204519	238.08	12.313745	-56.916803	238.20	-0.590	0.780	1.200	238.11	-0.60	1.60	 	 	 	 	 	 	 	 	 	 	 	 	 	 	 	 	 	 	1581540319	9.68	17.93
12/02/2020 20:45:20	120220	12022020	204520	238.25	12.313723	-56.916843	238.35	-0.250	0.580	0.690	238.28	-0.90	1.10	 	 	 	 	 	 	 	 	 	 	 	 	 	 	 	 	 	 	1581540320	9.54	17.67
12/02/2020 20:45:21	120220	12022020	204521	238.47	12.313700	-56.916880	238.57	0.200	0.260	0.060	238.51	-1.20	0.50	 	 	 	 	 	 	 	 	 	 	 	 	 	 	 	 	 	 	1581540321	9.29	17.21
12/02/2020 20:45:22	120220	12022020	204522	238.62	12.313677	-56.916917	238.70	0.640	-0.310	-0.340	238.62	-1.80	0.10	 	 	 	 	 	 	 	 	 	 	 	 	 	 	 	 	 	 	1581540322	9.27	17.17
12/02/2020 20:45:23	120220	12022020	204523	238.56	12.313653	-56.916953	238.62	0.880	-1.110	-0.150	238.53	-2.60	0.30	 	 	 	 	 	 	 	 	 	 	 	 	 	 	 	 	 	 	1581540323	9.50	17.59
12/02/2020 20:45:24	120220	12022020	204524	238.39	12.313632	-56.916993	238.46	0.740	-1.720	0.460	238.36	-3.10	0.90	 	 	 	 	 	 	 	 	 	 	 	 	 	 	 	 	 	 	1581540324	9.64	17.85
12/02/2020 20:45:25	120220	12022020	204525	238.26	12.313613	-56.917035	238.35	0.320	-1.770	1.130	238.25	-3.20	1.60	 	 	 	 	 	 	 	 	 	 	 	 	 	 	 	 	 	 	1581540325	9.48	17.56
12/02/2020 20:45:26	120220	12022020	204526	238.20	12.313597	-56.917075	238.31	-0.100	-1.380	1.590	238.19	-2.80	2.00	 	 	 	 	 	 	 	 	 	 	 	 	 	 	 	 	 	 	1581540326	9.28	17.19
12/02/2020 20:45:27	120220	12022020	204527	238.08	12.313580	-56.917117	238.19	-0.320	-0.880	1.830	238.03	-2.30	2.30	 	 	 	 	 	 	 	 	 	 	 	 	 	 	 	 	 	 	1581540327	9.42	17.45
12/02/2020 20:45:28	120220	12022020	204528	237.77	12.313560	-56.917158	237.86	-0.380	-0.370	2.000	237.69	-1.70	2.50	 	 	 	 	 	 	 	 	 	 	 	 	 	 	 	 	 	 	1581540328	9.73	18.02
12/02/2020 20:45:29	120220	12022020	204529	237.41	12.313540	-56.917198	237.50	-0.450	0.280	2.090	237.34	-1.10	2.50	 	 	 	 	 	 	 	 	 	 	 	 	 	 	 	 	 	 	1581540329	9.78	18.11
12/02/2020 20:45:30	120220	12022020	204530	237.22	12.313518	-56.917238	237.33	-0.530	1.010	1.970	237.21	-0.40	2.40	 	 	 	 	 	 	 	 	 	 	 	 	 	 	 	 	 	 	1581540330	9.54	17.67
12/02/2020 20:45:31	120220	12022020	204531	237.26	12.313497	-56.917277	237.42	-0.470	1.440	1.580	237.29	0.00	2.00	 	 	 	 	 	 	 	 	 	 	 	 	 	 	 	 	 	 	1581540331	9.40	17.41
12/02/2020 20:45:32	120220	12022020	204532	237.55	12.313472	-56.917315	237.66	-0.160	1.320	1.080	237.62	-0.10	1.50	 	 	 	 	 	 	 	 	 	 	 	 	 	 	 	 	 	 	1581540332	9.46	17.52
12/02/2020 20:45:33	120220	12022020	204533	237.82	12.313448	-56.917353	237.97	0.280	0.540	0.780	237.87	-0.90	1.20	 	 	 	 	 	 	 	 	 	 	 	 	 	 	 	 	 	 	1581540333	9.68	17.93
12/02/2020 20:45:34	120220	12022020	204534	238.14	12.313427	-56.917393	238.21	0.610	-0.550	0.850	238.17	-2.00	1.30	 	 	 	 	 	 	 	 	 	 	 	 	 	 	 	 	 	 	1581540334	9.83	18.21
12/02/2020 20:45:35	120220	12022020	204535	238.27	12.313405	-56.917435	238.33	0.690	-1.370	1.110	238.27	-2.80	1.60	 	 	 	 	 	 	 	 	 	 	 	 	 	 	 	 	 	 	1581540335	9.64	17.85
12/02/2020 20:45:36	120220	12022020	204536	238.21	12.313388	-56.917473	238.26	0.550	-1.600	1.360	238.17	-3.00	1.80	 	 	 	 	 	 	 	 	 	 	 	 	 	 	 	 	 	 	1581540336	9.15	16.95
12/02/2020 20:45:37	120220	12022020	204537	237.99	12.313370	-56.917512	238.05	0.320	-1.510	1.520	237.92	-2.90	2.00	 	 	 	 	 	 	 	 	 	 	 	 	 	 	 	 	 	 	1581540337	8.92	16.52
12/02/2020 20:45:38	120220	12022020	204538	237.64	12.313350	-56.917550	237.71	0.060	-1.410	1.650	237.56	-2.80	2.10	 	 	 	 	 	 	 	 	 	 	 	 	 	 	 	 	 	 	1581540338	9.25	17.13
12/02/2020 20:45:39	120220	12022020	204539	237.27	12.313328	-56.917592	237.35	-0.200	-1.200	1.660	237.21	-2.60	2.10	 	 	 	 	 	 	 	 	 	 	 	 	 	 	 	 	 	 	1581540339	9.63	17.83
12/02/2020 20:45:40	120220	12022020	204540	237.07	12.313307	-56.917632	237.19	-0.430	-0.760	1.510	237.06	-2.10	2.00	 	 	 	 	 	 	 	 	 	 	 	 	 	 	 	 	 	 	1581540340	9.75	18.06
12/02/2020 20:45:41	120220	12022020	204541	237.16	12.313285	-56.917672	237.30	-0.540	-0.070	1.190	237.21	-1.40	1.60	 	 	 	 	 	 	 	 	 	 	 	 	 	 	 	 	 	 	1581540341	9.68	17.93
12/02/2020 20:45:42	120220	12022020	204542	237.55	12.313262	-56.917710	237.70	-0.540	0.750	0.830	237.65	-0.60	1.30	 	 	 	 	 	 	 	 	 	 	 	 	 	 	 	 	 	 	1581540342	9.48	17.56
12/02/2020 20:45:43	120220	12022020	204543	238.01	12.313238	-56.917747	238.15	-0.450	1.300	0.660	238.09	-0.10	1.10	 	 	 	 	 	 	 	 	 	 	 	 	 	 	 	 	 	 	1581540343	9.37	17.35
12/02/2020 20:45:44	120220	12022020	204544	238.30	12.313217	-56.917787	238.41	-0.290	1.300	0.830	238.33	-0.10	1.30	 	 	 	 	 	 	 	 	 	 	 	 	 	 	 	 	 	 	1581540344	9.56	17.71
12/02/2020 20:45:45	120220	12022020	204545	238.35	12.313195	-56.917827	238.41	-0.040	0.860	1.190	238.34	-0.60	1.70	 	 	 	 	 	 	 	 	 	 	 	 	 	 	 	 	 	 	1581540345	9.77	18.09
12/02/2020 20:45:46	120220	12022020	204546	238.19	12.313175	-56.917868	238.24	0.300	0.280	1.390	238.14	-1.10	1.80	 	 	 	 	 	 	 	 	 	 	 	 	 	 	 	 	 	 	1581540346	9.61	17.80
12/02/2020 20:45:47	120220	12022020	204547	237.90	12.313155	-56.917907	237.96	0.660	-0.400	1.350	237.84	-1.80	1.80	 	 	 	 	 	 	 	 	 	 	 	 	 	 	 	 	 	 	1581540347	9.41	17.43
12/02/2020 20:45:48	120220	12022020	204548	237.58	12.313133	-56.917947	237.65	0.850	-1.230	1.160	237.53	-2.70	1.60	 	 	 	 	 	 	 	 	 	 	 	 	 	 	 	 	 	 	1581540348	9.46	17.52
12/02/2020 20:45:49	120220	12022020	204549	237.26	12.313112	-56.917985	237.31	0.730	-1.880	1.010	237.18	-3.30	1.50	 	 	 	 	 	 	 	 	 	 	 	 	 	 	 	 	 	 	1581540349	9.52	17.63
12/02/2020 20:45:50	120220	12022020	204550	236.87	12.313092	-56.918025	236.94	0.400	-2.030	1.000	236.80	-3.40	1.40	 	 	 	 	 	 	 	 	 	 	 	 	 	 	 	 	 	 	1581540350	9.40	17.41
12/02/2020 20:45:51	120220	12022020	204551	236.59	12.313072	-56.918063	236.66	0.020	-1.550	1.060	236.54	-2.90	1.50	 	 	 	 	 	 	 	 	 	 	 	 	 	 	 	 	 	 	1581540351	9.23	17.09
12/02/2020 20:45:52	120220	12022020	204552	236.47	12.313052	-56.918102	236.59	-0.290	-0.530	1.140	236.47	-1.90	1.60	 	 	 	 	 	 	 	 	 	 	 	 	 	 	 	 	 	 	1581540352	8.97	16.61
12/02/2020 20:45:53	120220	12022020	204553	236.62	12.313032	-56.918138	236.76	-0.500	0.460	1.070	236.69	-0.90	1.50	 	 	 	 	 	 	 	 	 	 	 	 	 	 	 	 	 	 	1581540353	8.96	16.59
12/02/2020 20:45:54	120220	12022020	204554	237.04	12.313008	-56.918177	237.17	-0.570	0.810	0.940	237.14	-0.60	1.40	 	 	 	 	 	 	 	 	 	 	 	 	 	 	 	 	 	 	1581540354	9.41	17.43
12/02/2020 20:45:55	120220	12022020	204555	237.47	12.312985	-56.918217	237.58	-0.470	0.460	0.880	237.53	-1.00	1.30	 	 	 	 	 	 	 	 	 	 	 	 	 	 	 	 	 	 	1581540355	10.10	18.71
12/02/2020 20:45:56	120220	12022020	204556	237.71	12.312960	-56.918258	237.83	-0.300	-0.010	0.930	237.73	-1.40	1.40	 	 	 	 	 	 	 	 	 	 	 	 	 	 	 	 	 	 	1581540356	10.29	19.06
12/02/2020 20:45:57	120220	12022020	204557	237.82	12.312937	-56.918298	237.98	-0.160	-0.160	0.980	237.84	-1.60	1.40	 	 	 	 	 	 	 	 	 	 	 	 	 	 	 	 	 	 	1581540357	9.83	18.21
12/02/2020 20:45:58	120220	12022020	204558	237.92	12.312915	-56.918337	238.04	-0.050	-0.080	1.090	237.92	-1.50	1.60	 	 	 	 	 	 	 	 	 	 	 	 	 	 	 	 	 	 	1581540358	9.32	17.26
12/02/2020 20:45:59	120220	12022020	204559	237.85	12.312893	-56.918375	237.92	0.100	-0.050	1.340	237.81	-1.50	1.80	 	 	 	 	 	 	 	 	 	 	 	 	 	 	 	 	 	 	1581540359	9.19	17.02
12/02/2020 20:46:00	120220	12022020	204600	237.54	12.312873	-56.918413	237.65	0.280	-0.170	1.660	237.48	-1.60	2.10	 	 	 	 	 	 	 	 	 	 	 	 	 	 	 	 	 	 	1581540360	9.32	17.26
12/02/2020 20:46:01	120220	12022020	204601	237.19	12.312855	-56.918453	237.28	0.370	-0.340	1.850	237.12	-1.70	2.30	 	 	 	 	 	 	 	 	 	 	 	 	 	 	 	 	 	 	1581540361	9.44	17.48
12/02/2020 20:46:02	120220	12022020	204602	236.83	12.312835	-56.918493	236.92	0.300	-0.470	1.720	236.76	-1.90	2.20	1014.70	26.40	26.40	20.40	20.50	184.0	69.0	69.0	390.0	28.2	236.00	5.10	86.00	8.90	11945	8510.0	27.5	27.5	1581540362	9.41	17.43
12/02/2020 20:46:03	120220	12022020	204603	236.52	12.312813	-56.918532	236.61	0.200	-0.530	1.320	236.46	-1.90	1.80	 	 	 	 	 	 	 	 	 	 	 	 	 	 	 	 	 	 	1581540363	9.35	17.32
12/02/2020 20:46:04	120220	12022020	204604	236.33	12.312788	-56.918568	236.45	0.180	-0.500	0.790	236.33	-1.90	1.20	 	 	 	 	 	 	 	 	 	 	 	 	 	 	 	 	 	 	1581540364	9.31	17.24
12/02/2020 20:46:05	120220	12022020	204605	236.51	12.312763	-56.918605	236.66	0.170	-0.430	0.230	236.59	-1.80	0.70	 	 	 	 	 	 	 	 	 	 	 	 	 	 	 	 	 	 	1581540365	9.28	17.19
12/02/2020 20:46:06	120220	12022020	204606	236.96	12.312740	-56.918642	237.11	0.040	-0.540	-0.050	237.05	-1.90	0.40	 	 	 	 	 	 	 	 	 	 	 	 	 	 	 	 	 	 	1581540366	9.41	17.43
12/02/2020 20:46:07	120220	12022020	204607	237.38	12.312717	-56.918680	237.53	-0.150	-0.770	0.100	237.46	-2.20	0.60	 	 	 	 	 	 	 	 	 	 	 	 	 	 	 	 	 	 	1581540367	9.68	17.93
12/02/2020 20:46:08	120220	12022020	204608	237.72	12.312695	-56.918722	237.86	-0.260	-0.850	0.360	237.78	-2.20	0.80	 	 	 	 	 	 	 	 	 	 	 	 	 	 	 	 	 	 	1581540368	9.78	18.11
12/02/2020 20:46:09	120220	12022020	204609	238.04	12.312675	-56.918762	238.16	-0.240	-0.580	0.540	238.10	-2.00	1.00	 	 	 	 	 	 	 	 	 	 	 	 	 	 	 	 	 	 	1581540369	9.57	17.72
12/02/2020 20:46:10	120220	12022020	204610	238.21	12.312655	-56.918800	238.31	-0.170	-0.120	0.830	238.20	-1.50	1.30	 	 	 	 	 	 	 	 	 	 	 	 	 	 	 	 	 	 	1581540370	9.34	17.30
12/02/2020 20:46:11	120220	12022020	204611	237.97	12.312635	-56.918840	238.04	-0.140	0.180	1.360	237.87	-1.20	1.80	 	 	 	 	 	 	 	 	 	 	 	 	 	 	 	 	 	 	1581540371	9.41	17.43
12/02/2020 20:46:12	120220	12022020	204612	237.36	12.312613	-56.918882	237.43	-0.160	0.240	1.840	237.23	-1.20	2.30	 	 	 	 	 	 	 	 	 	 	 	 	 	 	 	 	 	 	1581540372	9.72	18.00
12/02/2020 20:46:13	120220	12022020	204613	236.66	12.312592	-56.918922	236.74	-0.150	0.250	2.010	236.55	-1.20	2.50	 	 	 	 	 	 	 	 	 	 	 	 	 	 	 	 	 	 	1581540373	9.74	18.04
12/02/2020 20:46:14	120220	12022020	204614	236.24	12.312570	-56.918962	236.33	-0.050	0.290	1.740	236.21	-1.10	2.20	 	 	 	 	 	 	 	 	 	 	 	 	 	 	 	 	 	 	1581540374	9.55	17.69
12/02/2020 20:46:15	120220	12022020	204615	236.27	12.312547	-56.918998	236.38	0.120	0.250	1.070	236.32	-1.20	1.50	 	 	 	 	 	 	 	 	 	 	 	 	 	 	 	 	 	 	1581540375	9.33	17.28
12/02/2020 20:46:16	120220	12022020	204616	236.63	12.312522	-56.919033	236.75	0.300	0.020	0.300	236.72	-1.40	0.70	 	 	 	 	 	 	 	 	 	 	 	 	 	 	 	 	 	 	1581540376	9.26	17.15
12/02/2020 20:46:17	120220	12022020	204617	237.09	12.312497	-56.919070	237.22	0.390	-0.430	-0.120	237.18	-1.90	0.30	 	 	 	 	 	 	 	 	 	 	 	 	 	 	 	 	 	 	1581540377	9.40	17.41
12/02/2020 20:46:18	120220	12022020	204618	237.49	12.312473	-56.919108	237.62	0.310	-0.940	-0.020	237.56	-2.40	0.50	 	 	 	 	 	 	 	 	 	 	 	 	 	 	 	 	 	 	1581540378	9.52	17.63
12/02/2020 20:46:19	120220	12022020	204619	237.75	12.312453	-56.919150	237.87	0.050	-1.320	0.540	237.78	-2.70	1.00	 	 	 	 	 	 	 	 	 	 	 	 	 	 	 	 	 	 	1581540379	9.57	17.72
12/02/2020 20:46:20	120220	12022020	204620	237.77	12.312435	-56.919190	237.88	-0.200	-1.480	1.290	237.75	-2.90	1.80	 	 	 	 	 	 	 	 	 	 	 	 	 	 	 	 	 	 	1581540380	9.63	17.83
12/02/2020 20:46:21	120220	12022020	204621	237.61	12.312417	-56.919233	237.66	-0.290	-1.320	1.940	237.55	-2.70	2.40	 	 	 	 	 	 	 	 	 	 	 	 	 	 	 	 	 	 	1581540381	9.66	17.89
12/02/2020 20:46:22	120220	12022020	204622	237.21	12.312397	-56.919273	237.32	-0.240	-0.770	2.290	237.13	-2.10	2.80	 	 	 	 	 	 	 	 	 	 	 	 	 	 	 	 	 	 	1581540382	9.52	17.63
12/02/2020 20:46:23	120220	12022020	204623	236.92	12.312377	-56.919312	236.99	-0.190	0.010	2.220	236.87	-1.40	2.70	 	 	 	 	 	 	 	 	 	 	 	 	 	 	 	 	 	 	1581540383	9.38	17.37
12/02/2020 20:46:24	120220	12022020	204624	236.68	12.312353	-56.919350	236.81	-0.220	0.690	1.760	236.67	-0.70	2.20	 	 	 	 	 	 	 	 	 	 	 	 	 	 	 	 	 	 	1581540384	9.37	17.35
12/02/2020 20:46:25	120220	12022020	204625	236.73	12.312330	-56.919387	236.86	-0.250	1.010	1.060	236.76	-0.40	1.50	 	 	 	 	 	 	 	 	 	 	 	 	 	 	 	 	 	 	1581540385	9.51	17.61
12/02/2020 20:46:26	120220	12022020	204626	236.98	12.312305	-56.919425	237.09	-0.150	0.890	0.330	237.03	-0.50	0.80	 	 	 	 	 	 	 	 	 	 	 	 	 	 	 	 	 	 	1581540386	9.64	17.85
12/02/2020 20:46:27	120220	12022020	204627	237.25	12.312278	-56.919463	237.34	0.060	0.330	-0.040	237.28	-1.10	0.40	 	 	 	 	 	 	 	 	 	 	 	 	 	 	 	 	 	 	1581540387	9.80	18.15
12/02/2020 20:46:28	120220	12022020	204628	237.37	12.312255	-56.919505	237.45	0.280	-0.460	0.200	237.39	-1.90	0.70	 	 	 	 	 	 	 	 	 	 	 	 	 	 	 	 	 	 	1581540388	9.97	18.46
12/02/2020 20:46:29	120220	12022020	204629	237.48	12.312235	-56.919545	237.57	0.340	-0.950	0.700	237.51	-2.40	1.20	 	 	 	 	 	 	 	 	 	 	 	 	 	 	 	 	 	 	1581540389	9.83	18.21
12/02/2020 20:46:30	120220	12022020	204630	237.69	12.312217	-56.919585	237.80	0.180	-0.860	1.110	237.73	-2.30	1.60	 	 	 	 	 	 	 	 	 	 	 	 	 	 	 	 	 	 	1581540390	9.29	17.21
12/02/2020 20:46:31	120220	12022020	204631	237.83	12.312197	-56.919622	237.94	-0.090	-0.420	1.280	237.84	-1.80	1.70	 	 	 	 	 	 	 	 	 	 	 	 	 	 	 	 	 	 	1581540391	8.81	16.32
12/02/2020 20:46:32	120220	12022020	204632	237.80	12.312177	-56.919658	237.89	-0.210	-0.180	1.220	237.77	-1.60	1.70	 	 	 	 	 	 	 	 	 	 	 	 	 	 	 	 	 	 	1581540392	8.87	16.43
12/02/2020 20:46:33	120220	12022020	204633	237.68	12.312153	-56.919697	237.75	-0.080	-0.330	1.020	237.65	-1.80	1.50	 	 	 	 	 	 	 	 	 	 	 	 	 	 	 	 	 	 	1581540393	9.36	17.33
12/02/2020 20:46:34	120220	12022020	204634	237.50	12.312130	-56.919735	237.61	0.160	-0.710	0.780	237.48	-2.10	1.20	 	 	 	 	 	 	 	 	 	 	 	 	 	 	 	 	 	 	1581540394	9.76	18.08
12/02/2020 20:46:35	120220	12022020	204635	237.41	12.312107	-56.919775	237.49	0.290	-0.990	0.680	237.38	-2.40	1.10	 	 	 	 	 	 	 	 	 	 	 	 	 	 	 	 	 	 	1581540395	9.86	18.26
12/02/2020 20:46:36	120220	12022020	204636	237.24	12.312085	-56.919815	237.33	0.190	-0.970	0.850	237.21	-2.40	1.30	 	 	 	 	 	 	 	 	 	 	 	 	 	 	 	 	 	 	1581540396	9.70	17.96
12/02/2020 20:46:37	120220	12022020	204637	237.05	12.312065	-56.919857	237.13	-0.050	-0.670	1.190	237.01	-2.10	1.70	 	 	 	 	 	 	 	 	 	 	 	 	 	 	 	 	 	 	1581540397	9.57	17.72
12/02/2020 20:46:38	120220	12022020	204638	236.91	12.312045	-56.919897	237.01	-0.330	-0.270	1.440	236.91	-1.70	1.90	 	 	 	 	 	 	 	 	 	 	 	 	 	 	 	 	 	 	1581540398	9.57	17.72
12/02/2020 20:46:39	120220	12022020	204639	236.98	12.312025	-56.919937	237.09	-0.510	0.090	1.410	237.00	-1.30	1.90	 	 	 	 	 	 	 	 	 	 	 	 	 	 	 	 	 	 	1581540399	9.62	17.82
12/02/2020 20:46:40	120220	12022020	204640	237.15	12.312002	-56.919977	237.26	-0.470	0.340	1.140	237.19	-1.10	1.60	 	 	 	 	 	 	 	 	 	 	 	 	 	 	 	 	 	 	1581540400	9.68	17.93
12/02/2020 20:46:41	120220	12022020	204641	237.32	12.311977	-56.920015	237.41	-0.250	0.440	0.810	237.34	-1.00	1.30	 	 	 	 	 	 	 	 	 	 	 	 	 	 	 	 	 	 	1581540401	9.71	17.98
12/02/2020 20:46:42	120220	12022020	204642	237.37	12.311952	-56.920053	237.46	-0.020	0.410	0.610	237.37	-1.00	1.10	 	 	 	 	 	 	 	 	 	 	 	 	 	 	 	 	 	 	1581540402	9.70	17.96
12/02/2020 20:46:43	120220	12022020	204643	237.39	12.311928	-56.920092	237.48	0.080	0.300	0.600	237.41	-1.10	1.10	 	 	 	 	 	 	 	 	 	 	 	 	 	 	 	 	 	 	1581540403	9.59	17.76
12/02/2020 20:46:44	120220	12022020	204644	237.46	12.311907	-56.920130	237.55	0.100	0.190	0.720	237.46	-1.20	1.20	 	 	 	 	 	 	 	 	 	 	 	 	 	 	 	 	 	 	1581540404	9.37	17.35
12/02/2020 20:46:45	120220	12022020	204645	237.64	12.311887	-56.920168	237.76	0.160	-0.050	0.850	237.64	-1.50	1.30	 	 	 	 	 	 	 	 	 	 	 	 	 	 	 	 	 	 	1581540405	9.23	17.09
12/02/2020 20:46:46	120220	12022020	204646	237.93	12.311865	-56.920208	238.07	0.310	-0.520	0.890	237.93	-2.00	1.30	 	 	 	 	 	 	 	 	 	 	 	 	 	 	 	 	 	 	1581540406	9.34	17.30
12/02/2020 20:46:47	120220	12022020	204647	238.19	12.311845	-56.920247	238.36	0.450	-1.050	0.790	238.24	-2.50	1.20	 	 	 	 	 	 	 	 	 	 	 	 	 	 	 	 	 	 	1581540407	9.49	17.58
12/02/2020 20:46:48	120220	12022020	204648	238.40	12.311822	-56.920287	238.51	0.480	-1.420	0.810	238.40	-2.80	1.30	 	 	 	 	 	 	 	 	 	 	 	 	 	 	 	 	 	 	1581540408	9.53	17.65
12/02/2020 20:46:49	120220	12022020	204649	238.30	12.311800	-56.920325	238.32	0.280	-1.520	1.150	238.24	-2.90	1.60	 	 	 	 	 	 	 	 	 	 	 	 	 	 	 	 	 	 	1581540409	9.56	17.71
12/02/2020 20:46:50	120220	12022020	204650	237.79	12.311780	-56.920367	237.87	-0.060	-1.370	1.580	237.69	-2.80	2.00	 	 	 	 	 	 	 	 	 	 	 	 	 	 	 	 	 	 	1581540410	9.64	17.85
12/02/2020 20:46:51	120220	12022020	204651	237.22	12.311758	-56.920407	237.30	-0.370	-0.990	1.740	237.12	-2.40	2.20	 	 	 	 	 	 	 	 	 	 	 	 	 	 	 	 	 	 	1581540411	9.78	18.11
12/02/2020 20:46:52	120220	12022020	204652	236.79	12.311737	-56.920447	236.90	-0.530	-0.360	1.520	236.74	-1.70	1.90	 	 	 	 	 	 	 	 	 	 	 	 	 	 	 	 	 	 	1581540412	9.76	18.08
12/02/2020 20:46:53	120220	12022020	204653	236.74	12.311712	-56.920487	236.88	-0.550	0.280	1.020	236.78	-1.10	1.40	 	 	 	 	 	 	 	 	 	 	 	 	 	 	 	 	 	 	1581540413	9.78	18.11
12/02/2020 20:46:54	120220	12022020	204654	237.15	12.311688	-56.920525	237.33	-0.540	0.760	0.470	237.28	-0.60	0.90	 	 	 	 	 	 	 	 	 	 	 	 	 	 	 	 	 	 	1581540414	9.83	18.21
12/02/2020 20:46:55	120220	12022020	204655	237.90	12.311665	-56.920565	238.08	-0.510	1.030	0.110	238.08	-0.40	0.50	 	 	 	 	 	 	 	 	 	 	 	 	 	 	 	 	 	 	1581540415	9.80	18.15
12/02/2020 20:46:56	120220	12022020	204656	238.78	12.311642	-56.920605	238.94	-0.370	1.080	0.000	238.94	-0.30	0.50	 	 	 	 	 	 	 	 	 	 	 	 	 	 	 	 	 	 	1581540416	9.67	17.91
12/02/2020 20:46:57	120220	12022020	204657	239.51	12.311622	-56.920645	239.66	-0.040	0.910	0.180	239.51	-0.50	0.60	 	 	 	 	 	 	 	 	 	 	 	 	 	 	 	 	 	 	1581540417	9.49	17.58
12/02/2020 20:46:58	120220	12022020	204658	239.84	12.311600	-56.920683	239.95	0.360	0.400	0.650	239.84	-1.10	1.10	 	 	 	 	 	 	 	 	 	 	 	 	 	 	 	 	 	 	1581540418	9.41	17.43
12/02/2020 20:46:59	120220	12022020	204659	239.62	12.311580	-56.920723	239.70	0.670	-0.450	1.320	239.62	-1.90	1.80	 	 	 	 	 	 	 	 	 	 	 	 	 	 	 	 	 	 	1581540419	9.56	17.71
12/02/2020 20:47:00	120220	12022020	204700	239.07	12.311560	-56.920765	239.15	0.810	-1.320	1.900	239.07	-2.80	2.40	 	 	 	 	 	 	 	 	 	 	 	 	 	 	 	 	 	 	1581540420	9.71	17.98
12/02/2020 20:47:01	120220	12022020	204701	238.58	12.311542	-56.920807	238.68	0.760	-1.770	1.900	238.51	-3.20	2.30	 	 	 	 	 	 	 	 	 	 	 	 	 	 	 	 	 	 	1581540421	9.51	17.61
12/02/2020 20:47:02	120220	12022020	204702	238.43	12.311520	-56.920843	238.57	0.530	-1.850	1.220	238.45	-3.20	1.60	1014.70	26.50	26.50	20.50	20.60	187.0	69.0	69.0	391.0	28.2	234.00	4.70	84.00	8.60	12236	9377.0	27.5	27.5	1581540422	9.27	17.17
12/02/2020 20:47:03	120220	12022020	204703	238.68	12.311495	-56.920882	238.82	0.190	-1.790	0.290	238.75	-3.20	0.70	 	 	 	 	 	 	 	 	 	 	 	 	 	 	 	 	 	 	1581540423	9.52	17.63
12/02/2020 20:47:04	120220	12022020	204704	239.09	12.311470	-56.920920	239.21	-0.240	-1.460	-0.250	239.15	-2.80	0.20	 	 	 	 	 	 	 	 	 	 	 	 	 	 	 	 	 	 	1581540424	9.81	18.17
12/02/2020 20:47:05	120220	12022020	204705	239.32	12.311447	-56.920960	239.42	-0.710	-0.670	-0.210	239.34	-2.00	0.30	 	 	 	 	 	 	 	 	 	 	 	 	 	 	 	 	 	 	1581540425	9.75	18.06
12/02/2020 20:47:06	120220	12022020	204706	239.30	12.311427	-56.921000	239.37	-1.040	0.370	0.170	239.27	-1.00	0.60	 	 	 	 	 	 	 	 	 	 	 	 	 	 	 	 	 	 	1581540426	9.57	17.72
12/02/2020 20:47:07	120220	12022020	204707	239.10	12.311407	-56.921042	239.17	-1.040	1.210	0.610	239.05	-0.20	1.10	 	 	 	 	 	 	 	 	 	 	 	 	 	 	 	 	 	 	1581540427	9.62	17.82
12/02/2020 20:47:08	120220	12022020	204708	238.89	12.311385	-56.921082	238.97	-0.710	1.440	0.870	238.86	0.00	1.30	 	 	 	 	 	 	 	 	 	 	 	 	 	 	 	 	 	 	1581540428	9.86	18.26
12/02/2020 20:47:09	120220	12022020	204709	238.72	12.311363	-56.921125	238.80	-0.220	1.070	0.950	238.72	-0.40	1.40	 	 	 	 	 	 	 	 	 	 	 	 	 	 	 	 	 	 	1581540429	10.18	18.85
12/02/2020 20:47:10	120220	12022020	204710	238.60	12.311343	-56.921167	238.67	0.240	0.560	0.980	238.60	-0.90	1.40	 	 	 	 	 	 	 	 	 	 	 	 	 	 	 	 	 	 	1581540430	10.08	18.67
12/02/2020 20:47:11	120220	12022020	204711	238.56	12.311322	-56.921208	238.67	0.570	0.200	0.920	238.57	-1.20	1.40	 	 	 	 	 	 	 	 	 	 	 	 	 	 	 	 	 	 	1581540431	9.56	17.71
12/02/2020 20:47:12	120220	12022020	204712	238.75	12.311302	-56.921245	238.87	0.750	-0.220	0.640	238.75	-1.60	1.10	 	 	 	 	 	 	 	 	 	 	 	 	 	 	 	 	 	 	1581540432	9.23	17.09
12/02/2020 20:47:13	120220	12022020	204713	239.05	12.311278	-56.921283	239.24	0.800	-0.780	0.210	239.13	-2.20	0.60	 	 	 	 	 	 	 	 	 	 	 	 	 	 	 	 	 	 	1581540433	9.30	17.22
12/02/2020 20:47:14	120220	12022020	204714	239.49	12.311257	-56.921322	239.58	0.710	-1.300	-0.070	239.49	-2.70	0.40	 	 	 	 	 	 	 	 	 	 	 	 	 	 	 	 	 	 	1581540434	9.41	17.43
12/02/2020 20:47:15	120220	12022020	204715	239.64	12.311233	-56.921360	239.71	0.480	-1.550	0.010	239.65	-2.90	0.50	 	 	 	 	 	 	 	 	 	 	 	 	 	 	 	 	 	 	1581540435	9.43	17.46
12/02/2020 20:47:16	120220	12022020	204716	239.57	12.311213	-56.921398	239.62	0.150	-1.480	0.400	239.53	-2.90	0.90	 	 	 	 	 	 	 	 	 	 	 	 	 	 	 	 	 	 	1581540436	9.39	17.39
12/02/2020 20:47:17	120220	12022020	204717	239.24	12.311193	-56.921438	239.29	-0.170	-1.270	0.990	239.15	-2.70	1.50	 	 	 	 	 	 	 	 	 	 	 	 	 	 	 	 	 	 	1581540437	9.55	17.69
12/02/2020 20:47:18	120220	12022020	204718	238.78	12.311173	-56.921482	238.84	-0.410	-0.960	1.610	238.78	-2.30	2.10	 	 	 	 	 	 	 	 	 	 	 	 	 	 	 	 	 	 	1581540438	9.81	18.17
12/02/2020 20:47:19	120220	12022020	204719	238.39	12.311155	-56.921523	238.47	-0.530	-0.600	1.980	238.39	-2.00	2.40	 	 	 	 	 	 	 	 	 	 	 	 	 	 	 	 	 	 	1581540439	10.01	18.54
12/02/2020 20:47:20	120220	12022020	204720	238.23	12.311133	-56.921567	238.35	-0.550	-0.210	1.930	238.23	-1.60	2.30	 	 	 	 	 	 	 	 	 	 	 	 	 	 	 	 	 	 	1581540440	10.10	18.71
12/02/2020 20:47:21	120220	12022020	204721	238.33	12.311113	-56.921610	238.46	-0.520	0.250	1.590	238.33	-1.10	2.00	 	 	 	 	 	 	 	 	 	 	 	 	 	 	 	 	 	 	1581540441	10.03	18.58
12/02/2020 20:47:22	120220	12022020	204722	238.54	12.311090	-56.921650	238.67	-0.440	0.790	1.270	238.54	-0.60	1.70	 	 	 	 	 	 	 	 	 	 	 	 	 	 	 	 	 	 	1581540442	9.81	18.17
12/02/2020 20:47:23	120220	12022020	204723	238.73	12.311068	-56.921688	238.85	-0.270	1.370	1.060	238.73	-0.00	1.50	 	 	 	 	 	 	 	 	 	 	 	 	 	 	 	 	 	 	1581540443	9.49	17.58
12/02/2020 20:47:24	120220	12022020	204724	238.87	12.311045	-56.921725	238.99	-0.030	1.640	0.890	238.87	0.20	1.30	 	 	 	 	 	 	 	 	 	 	 	 	 	 	 	 	 	 	1581540444	9.26	17.15
12/02/2020 20:47:25	120220	12022020	204725	239.02	12.311022	-56.921763	239.19	0.340	1.180	0.650	239.06	-0.30	1.10	 	 	 	 	 	 	 	 	 	 	 	 	 	 	 	 	 	 	1581540445	9.43	17.46
12/02/2020 20:47:26	120220	12022020	204726	239.41	12.310998	-56.921803	239.54	0.780	0.040	0.330	239.41	-1.40	0.80	 	 	 	 	 	 	 	 	 	 	 	 	 	 	 	 	 	 	1581540446	9.80	18.15
12/02/2020 20:47:27	120220	12022020	204727	239.75	12.310975	-56.921845	239.86	1.100	-1.330	0.250	239.75	-2.80	0.70	 	 	 	 	 	 	 	 	 	 	 	 	 	 	 	 	 	 	1581540447	10.00	18.52
12/02/2020 20:47:28	120220	12022020	204728	239.85	12.310955	-56.921887	239.94	1.060	-2.320	0.670	239.85	-3.70	1.10	 	 	 	 	 	 	 	 	 	 	 	 	 	 	 	 	 	 	1581540448	9.87	18.28
12/02/2020 20:47:29	120220	12022020	204729	239.65	12.310937	-56.921928	239.73	0.640	-2.590	1.430	239.65	-4.00	1.90	 	 	 	 	 	 	 	 	 	 	 	 	 	 	 	 	 	 	1581540449	9.54	17.67
12/02/2020 20:47:30	120220	12022020	204730	239.19	12.310920	-56.921968	239.28	0.060	-2.250	2.170	239.19	-3.60	2.60	 	 	 	 	 	 	 	 	 	 	 	 	 	 	 	 	 	 	1581540450	9.41	17.43
12/02/2020 20:47:31	120220	12022020	204731	238.71	12.310903	-56.922010	238.82	-0.430	-1.500	2.500	238.71	-2.90	2.90	 	 	 	 	 	 	 	 	 	 	 	 	 	 	 	 	 	 	1581540451	9.52	17.63
12/02/2020 20:47:32	120220	12022020	204732	238.38	12.310882	-56.922050	238.52	-0.710	-0.570	2.420	238.38	-1.90	2.80	 	 	 	 	 	 	 	 	 	 	 	 	 	 	 	 	 	 	1581540452	9.68	17.93
12/02/2020 20:47:33	120220	12022020	204733	238.38	12.310860	-56.922092	238.55	-0.780	0.410	1.930	238.38	-1.00	2.30	 	 	 	 	 	 	 	 	 	 	 	 	 	 	 	 	 	 	1581540453	9.84	18.22
12/02/2020 20:47:34	120220	12022020	204734	238.72	12.310835	-56.922130	238.91	-0.730	1.290	1.190	238.72	-0.10	1.60	 	 	 	 	 	 	 	 	 	 	 	 	 	 	 	 	 	 	1581540454	9.81	18.17
12/02/2020 20:47:35	120220	12022020	204735	239.22	12.310810	-56.922168	239.39	-0.620	1.870	0.480	239.22	0.50	0.90	 	 	 	 	 	 	 	 	 	 	 	 	 	 	 	 	 	 	1581540455	9.69	17.95
12/02/2020 20:47:36	120220	12022020	204736	239.70	12.310787	-56.922207	239.84	-0.410	1.800	0.040	239.70	0.30	0.50	 	 	 	 	 	 	 	 	 	 	 	 	 	 	 	 	 	 	1581540456	9.70	17.96
12/02/2020 20:47:37	120220	12022020	204737	239.99	12.310763	-56.922248	240.18	-0.020	0.950	0.120	240.04	-0.50	0.60	 	 	 	 	 	 	 	 	 	 	 	 	 	 	 	 	 	 	1581540457	9.94	18.41
12/02/2020 20:47:38	120220	12022020	204738	240.22	12.310742	-56.922290	240.35	0.520	-0.320	0.570	240.22	-1.80	1.00	 	 	 	 	 	 	 	 	 	 	 	 	 	 	 	 	 	 	1581540458	10.17	18.83
12/02/2020 20:47:39	120220	12022020	204739	240.27	12.310722	-56.922333	240.38	0.990	-1.430	1.140	240.27	-2.90	1.60	 	 	 	 	 	 	 	 	 	 	 	 	 	 	 	 	 	 	1581540459	10.05	18.61
12/02/2020 20:47:40	120220	12022020	204740	240.17	12.310705	-56.922377	240.25	1.080	-1.980	1.590	240.17	-3.40	2.00	 	 	 	 	 	 	 	 	 	 	 	 	 	 	 	 	 	 	1581540460	9.72	18.00
12/02/2020 20:47:41	120220	12022020	204741	239.96	12.310687	-56.922417	240.05	0.730	-1.820	1.610	239.96	-3.20	2.00	 	 	 	 	 	 	 	 	 	 	 	 	 	 	 	 	 	 	1581540461	9.28	17.19
12/02/2020 20:47:42	120220	12022020	204742	239.83	12.310667	-56.922455	239.91	0.190	-1.210	1.260	239.83	-2.60	1.70	 	 	 	 	 	 	 	 	 	 	 	 	 	 	 	 	 	 	1581540462	9.02	16.71
12/02/2020 20:47:43	120220	12022020	204743	239.78	12.310647	-56.922492	239.84	-0.210	-0.570	0.770	239.78	-2.00	1.20	 	 	 	 	 	 	 	 	 	 	 	 	 	 	 	 	 	 	1581540463	9.17	16.98
12/02/2020 20:47:44	120220	12022020	204744	239.78	12.310625	-56.922532	239.83	-0.420	-0.130	0.230	239.78	-1.50	0.60	 	 	 	 	 	 	 	 	 	 	 	 	 	 	 	 	 	 	1581540464	9.54	17.67
12/02/2020 20:47:45	120220	12022020	204745	239.77	12.310600	-56.922570	239.82	-0.500	0.070	-0.160	239.77	-1.30	0.30	 	 	 	 	 	 	 	 	 	 	 	 	 	 	 	 	 	 	1581540465	9.90	18.33
12/02/2020 20:47:46	120220	12022020	204746	239.87	12.310575	-56.922612	239.93	-0.500	0.190	-0.290	239.87	-1.20	0.20	 	 	 	 	 	 	 	 	 	 	 	 	 	 	 	 	 	 	1581540466	10.03	18.58
12/02/2020 20:47:47	120220	12022020	204747	240.11	12.310553	-56.922652	240.18	-0.430	0.330	-0.100	240.11	-1.10	0.40	 	 	 	 	 	 	 	 	 	 	 	 	 	 	 	 	 	 	1581540467	9.88	18.30
12/02/2020 20:47:48	120220	12022020	204748	240.35	12.310532	-56.922693	240.41	-0.300	0.450	0.350	240.35	-1.00	0.80	 	 	 	 	 	 	 	 	 	 	 	 	 	 	 	 	 	 	1581540468	9.73	18.02
12/02/2020 20:47:49	120220	12022020	204749	240.45	12.310513	-56.922735	240.54	-0.120	0.430	0.910	240.45	-1.00	1.40	 	 	 	 	 	 	 	 	 	 	 	 	 	 	 	 	 	 	1581540469	9.69	17.95
12/02/2020 20:47:50	120220	12022020	204750	240.44	12.310497	-56.922777	240.54	0.120	0.240	1.350	240.44	-1.20	1.80	 	 	 	 	 	 	 	 	 	 	 	 	 	 	 	 	 	 	1581540470	9.69	17.95
12/02/2020 20:47:51	120220	12022020	204751	240.33	12.310478	-56.922820	240.43	0.400	-0.170	1.510	240.33	-1.60	1.90	 	 	 	 	 	 	 	 	 	 	 	 	 	 	 	 	 	 	1581540471	9.72	18.00
12/02/2020 20:47:52	120220	12022020	204752	240.23	12.310458	-56.922862	240.31	0.640	-0.680	1.290	240.23	-2.10	1.70	 	 	 	 	 	 	 	 	 	 	 	 	 	 	 	 	 	 	1581540472	9.78	18.11
12/02/2020 20:47:53	120220	12022020	204753	240.11	12.310438	-56.922902	240.18	0.700	-1.080	0.930	240.11	-2.50	1.40	 	 	 	 	 	 	 	 	 	 	 	 	 	 	 	 	 	 	1581540473	9.76	18.08
12/02/2020 20:47:54	120220	12022020	204754	239.92	12.310417	-56.922942	239.97	0.500	-1.180	0.630	239.92	-2.60	1.10	 	 	 	 	 	 	 	 	 	 	 	 	 	 	 	 	 	 	1581540474	9.62	17.82
12/02/2020 20:47:55	120220	12022020	204755	239.72	12.310395	-56.922980	239.77	0.080	-0.990	0.380	239.72	-2.40	0.80	 	 	 	 	 	 	 	 	 	 	 	 	 	 	 	 	 	 	1581540475	9.44	17.48
12/02/2020 20:47:56	120220	12022020	204756	239.55	12.310372	-56.923018	239.60	-0.350	-0.700	0.290	239.55	-2.10	0.80	 	 	 	 	 	 	 	 	 	 	 	 	 	 	 	 	 	 	1581540476	9.48	17.56
12/02/2020 20:47:57	120220	12022020	204757	239.41	12.310352	-56.923060	239.48	-0.620	-0.440	0.540	239.41	-1.80	1.00	 	 	 	 	 	 	 	 	 	 	 	 	 	 	 	 	 	 	1581540477	9.70	17.96
12/02/2020 20:47:58	120220	12022020	204758	239.38	12.310332	-56.923102	239.47	-0.650	-0.110	0.890	239.38	-1.50	1.30	 	 	 	 	 	 	 	 	 	 	 	 	 	 	 	 	 	 	1581540478	9.83	18.21
12/02/2020 20:47:59	120220	12022020	204759	239.57	12.310312	-56.923143	239.70	-0.500	0.250	1.000	239.57	-1.10	1.40	 	 	 	 	 	 	 	 	 	 	 	 	 	 	 	 	 	 	1581540479	9.74	18.04
12/02/2020 20:48:00	120220	12022020	204800	239.98	12.310290	-56.923183	240.12	-0.240	0.460	0.870	239.98	-1.00	1.30	 	 	 	 	 	 	 	 	 	 	 	 	 	 	 	 	 	 	1581540480	9.67	17.91
12/02/2020 20:48:01	120220	12022020	204801	240.32	12.310270	-56.923225	240.44	0.090	0.310	0.810	240.32	-1.10	1.30	 	 	 	 	 	 	 	 	 	 	 	 	 	 	 	 	 	 	1581540481	9.78	18.11
12/02/2020 20:48:02	120220	12022020	204802	240.43	12.310248	-56.923267	240.54	0.380	-0.100	0.930	240.43	-1.50	1.40	1014.70	26.40	26.50	20.50	20.60	187.0	69.0	70.0	392.0	28.2	233.00	5.50	88.00	9.40	12025	9438.0	27.5	27.5	1581540482	9.99	18.50
12/02/2020 20:48:03	120220	12022020	204803	240.34	12.310227	-56.923308	240.43	0.470	-0.410	1.230	240.34	-1.80	1.70	 	 	 	 	 	 	 	 	 	 	 	 	 	 	 	 	 	 	1581540483	9.93	18.39
12/02/2020 20:48:04	120220	12022020	204804	240.05	12.310208	-56.923350	240.12	0.340	-0.480	1.590	240.05	-1.90	2.00	 	 	 	 	 	 	 	 	 	 	 	 	 	 	 	 	 	 	1581540484	9.68	17.93
12/02/2020 20:48:05	120220	12022020	204805	239.64	12.310188	-56.923390	239.70	0.160	-0.410	1.780	239.64	-1.80	2.20	 	 	 	 	 	 	 	 	 	 	 	 	 	 	 	 	 	 	1581540485	9.52	17.63
12/02/2020 20:48:06	120220	12022020	204806	239.26	12.310168	-56.923430	239.35	0.050	-0.310	1.620	239.26	-1.70	2.00	 	 	 	 	 	 	 	 	 	 	 	 	 	 	 	 	 	 	1581540486	9.48	17.56
12/02/2020 20:48:07	120220	12022020	204807	239.06	12.310147	-56.923470	239.15	0.040	-0.190	1.160	239.06	-1.60	1.60	 	 	 	 	 	 	 	 	 	 	 	 	 	 	 	 	 	 	1581540487	9.47	17.54
12/02/2020 20:48:08	120220	12022020	204808	238.90	12.310125	-56.923508	238.99	0.090	-0.190	0.740	238.90	-1.60	1.20	 	 	 	 	 	 	 	 	 	 	 	 	 	 	 	 	 	 	1581540488	9.50	17.59
12/02/2020 20:48:09	120220	12022020	204809	238.88	12.310102	-56.923548	238.99	0.120	-0.340	0.520	238.88	-1.80	1.00	 	 	 	 	 	 	 	 	 	 	 	 	 	 	 	 	 	 	1581540489	9.66	17.89
12/02/2020 20:48:10	120220	12022020	204810	239.16	12.310080	-56.923588	239.31	0.100	-0.600	0.470	239.16	-2.00	0.90	 	 	 	 	 	 	 	 	 	 	 	 	 	 	 	 	 	 	1581540490	9.75	18.06
12/02/2020 20:48:11	120220	12022020	204811	239.57	12.310060	-56.923630	239.71	0.010	-0.900	0.620	239.57	-2.30	1.10	 	 	 	 	 	 	 	 	 	 	 	 	 	 	 	 	 	 	1581540491	9.87	18.28
12/02/2020 20:48:12	120220	12022020	204812	239.94	12.310040	-56.923672	240.07	-0.150	-1.000	0.800	239.94	-2.40	1.20	 	 	 	 	 	 	 	 	 	 	 	 	 	 	 	 	 	 	1581540492	9.92	18.37
12/02/2020 20:48:13	120220	12022020	204813	240.27	12.310020	-56.923713	240.40	-0.310	-0.760	0.760	240.27	-2.20	1.20	 	 	 	 	 	 	 	 	 	 	 	 	 	 	 	 	 	 	1581540493	9.70	17.96
12/02/2020 20:48:14	120220	12022020	204814	240.51	12.310000	-56.923753	240.60	-0.340	-0.330	0.600	240.51	-1.70	1.00	 	 	 	 	 	 	 	 	 	 	 	 	 	 	 	 	 	 	1581540494	9.51	17.61
12/02/2020 20:48:15	120220	12022020	204815	240.51	12.309977	-56.923792	240.53	-0.190	-0.050	0.660	240.48	-1.50	1.10	 	 	 	 	 	 	 	 	 	 	 	 	 	 	 	 	 	 	1581540495	9.68	17.93
12/02/2020 20:48:16	120220	12022020	204816	240.11	12.309953	-56.923833	240.13	-0.010	0.100	1.030	240.11	-1.30	1.50	 	 	 	 	 	 	 	 	 	 	 	 	 	 	 	 	 	 	1581540496	9.98	18.48
12/02/2020 20:48:17	120220	12022020	204817	239.59	12.309933	-56.923875	239.64	0.020	0.340	1.570	239.59	-1.10	2.00	 	 	 	 	 	 	 	 	 	 	 	 	 	 	 	 	 	 	1581540497	9.93	18.39
12/02/2020 20:48:18	120220	12022020	204818	239.10	12.309913	-56.923917	239.18	-0.080	0.560	1.960	239.10	-0.90	2.40	 	 	 	 	 	 	 	 	 	 	 	 	 	 	 	 	 	 	1581540498	9.72	18.00
12/02/2020 20:48:19	120220	12022020	204819	238.73	12.309895	-56.923958	238.85	-0.090	0.560	1.950	238.73	-0.90	2.40	 	 	 	 	 	 	 	 	 	 	 	 	 	 	 	 	 	 	1581540499	9.63	17.83
12/02/2020 20:48:20	120220	12022020	204820	238.60	12.309873	-56.923998	238.77	0.060	0.250	1.480	238.60	-1.20	1.90	 	 	 	 	 	 	 	 	 	 	 	 	 	 	 	 	 	 	1581540500	9.68	17.93
12/02/2020 20:48:21	120220	12022020	204821	238.82	12.309852	-56.924038	239.00	0.240	-0.280	0.700	238.82	-1.70	1.10	 	 	 	 	 	 	 	 	 	 	 	 	 	 	 	 	 	 	1581540501	9.73	18.02
12/02/2020 20:48:22	120220	12022020	204822	239.29	12.309828	-56.924078	239.45	0.300	-0.800	-0.010	239.29	-2.20	0.40	 	 	 	 	 	 	 	 	 	 	 	 	 	 	 	 	 	 	1581540502	9.70	17.96
12/02/2020 20:48:23	120220	12022020	204823	239.83	12.309807	-56.924118	239.97	0.230	-1.140	-0.360	239.83	-2.60	0.10	 	 	 	 	 	 	 	 	 	 	 	 	 	 	 	 	 	 	1581540503	9.54	17.67
12/02/2020 20:48:24	120220	12022020	204824	240.16	12.309787	-56.924157	240.26	0.120	-1.350	-0.330	240.16	-2.80	0.10	 	 	 	 	 	 	 	 	 	 	 	 	 	 	 	 	 	 	1581540504	9.48	17.56
12/02/2020 20:48:25	120220	12022020	204825	240.18	12.309765	-56.924197	240.25	0.050	-1.490	0.080	240.18	-2.90	0.60	 	 	 	 	 	 	 	 	 	 	 	 	 	 	 	 	 	 	1581540505	9.70	17.96
12/02/2020 20:48:26	120220	12022020	204826	239.95	12.309745	-56.924240	240.00	-0.050	-1.360	0.750	239.95	-2.70	1.20	 	 	 	 	 	 	 	 	 	 	 	 	 	 	 	 	 	 	1581540506	9.87	18.28
12/02/2020 20:48:27	120220	12022020	204827	239.67	12.309725	-56.924282	239.68	-0.230	-0.800	1.350	239.61	-2.20	1.80	 	 	 	 	 	 	 	 	 	 	 	 	 	 	 	 	 	 	1581540507	9.83	18.21
12/02/2020 20:48:28	120220	12022020	204828	239.44	12.309705	-56.924322	239.53	-0.460	0.050	1.650	239.44	-1.30	2.10	 	 	 	 	 	 	 	 	 	 	 	 	 	 	 	 	 	 	1581540508	9.63	17.83
12/02/2020 20:48:29	120220	12022020	204829	239.42	12.309685	-56.924363	239.53	-0.570	0.840	1.690	239.42	-0.50	2.10	 	 	 	 	 	 	 	 	 	 	 	 	 	 	 	 	 	 	1581540509	9.57	17.72
12/02/2020 20:48:30	120220	12022020	204830	239.37	12.309665	-56.924405	239.49	-0.480	1.170	1.700	239.37	-0.20	2.10	 	 	 	 	 	 	 	 	 	 	 	 	 	 	 	 	 	 	1581540510	9.80	18.15
12/02/2020 20:48:31	120220	12022020	204831	239.22	12.309643	-56.924447	239.36	-0.180	1.030	1.700	239.22	-0.40	2.10	 	 	 	 	 	 	 	 	 	 	 	 	 	 	 	 	 	 	1581540511	10.10	18.71
12/02/2020 20:48:32	120220	12022020	204832	239.03	12.309623	-56.924490	239.15	0.180	0.650	1.600	239.03	-0.80	2.00	 	 	 	 	 	 	 	 	 	 	 	 	 	 	 	 	 	 	1581540512	10.08	18.67
12/02/2020 20:48:33	120220	12022020	204833	238.87	12.309602	-56.924530	239.00	0.440	0.190	1.200	238.87	-1.20	1.60	 	 	 	 	 	 	 	 	 	 	 	 	 	 	 	 	 	 	1581540513	9.80	18.15
12/02/2020 20:48:34	120220	12022020	204834	238.91	12.309580	-56.924570	239.05	0.530	-0.350	0.430	238.91	-1.80	0.80	 	 	 	 	 	 	 	 	 	 	 	 	 	 	 	 	 	 	1581540514	9.54	17.67
12/02/2020 20:48:35	120220	12022020	204835	239.20	12.309555	-56.924607	239.32	0.450	-0.970	-0.410	239.20	-2.40	0.00	 	 	 	 	 	 	 	 	 	 	 	 	 	 	 	 	 	 	1581540515	9.45	17.50
12/02/2020 20:48:36	120220	12022020	204836	239.56	12.309532	-56.924645	239.65	0.310	-1.550	-0.770	239.56	-3.00	-0.30	 	 	 	 	 	 	 	 	 	 	 	 	 	 	 	 	 	 	1581540516	9.49	17.58
12/02/2020 20:48:37	120220	12022020	204837	239.68	12.309510	-56.924685	239.74	0.140	-1.970	-0.400	239.68	-3.40	0.10	 	 	 	 	 	 	 	 	 	 	 	 	 	 	 	 	 	 	1581540517	9.65	17.87
12/02/2020 20:48:38	120220	12022020	204838	239.38	12.309490	-56.924725	239.42	-0.090	-1.930	0.580	239.38	-3.30	1.10	 	 	 	 	 	 	 	 	 	 	 	 	 	 	 	 	 	 	1581540518	9.76	18.08
12/02/2020 20:48:39	120220	12022020	204839	238.92	12.309472	-56.924768	238.99	-0.380	-1.270	1.540	238.92	-2.60	2.00	 	 	 	 	 	 	 	 	 	 	 	 	 	 	 	 	 	 	1581540519	9.71	17.98
12/02/2020 20:48:40	120220	12022020	204840	238.67	12.309455	-56.924810	238.78	-0.640	-0.190	1.970	238.67	-1.50	2.40	 	 	 	 	 	 	 	 	 	 	 	 	 	 	 	 	 	 	1581540520	9.51	17.61
12/02/2020 20:48:41	120220	12022020	204841	238.71	12.309435	-56.924850	238.86	-0.730	0.780	1.870	238.71	-0.60	2.30	 	 	 	 	 	 	 	 	 	 	 	 	 	 	 	 	 	 	1581540521	9.47	17.54
12/02/2020 20:48:42	120220	12022020	204842	238.86	12.309413	-56.924890	239.01	-0.540	1.210	1.530	238.86	-0.20	2.00	 	 	 	 	 	 	 	 	 	 	 	 	 	 	 	 	 	 	1581540522	9.78	18.11
12/02/2020 20:48:43	120220	12022020	204843	238.95	12.309392	-56.924933	239.10	-0.130	1.070	1.150	238.95	-0.40	1.60	 	 	 	 	 	 	 	 	 	 	 	 	 	 	 	 	 	 	1581540523	10.15	18.80
12/02/2020 20:48:44	120220	12022020	204844	239.00	12.309367	-56.924975	239.13	0.300	0.610	0.750	239.00	-0.80	1.20	 	 	 	 	 	 	 	 	 	 	 	 	 	 	 	 	 	 	1581540524	10.23	18.95
12/02/2020 20:48:45	120220	12022020	204845	239.04	12.309343	-56.925015	239.15	0.490	0.080	0.430	239.04	-1.40	0.90	 	 	 	 	 	 	 	 	 	 	 	 	 	 	 	 	 	 	1581540525	10.02	18.56
12/02/2020 20:48:46	120220	12022020	204846	239.02	12.309320	-56.925055	239.10	0.370	-0.360	0.420	239.02	-1.80	0.90	 	 	 	 	 	 	 	 	 	 	 	 	 	 	 	 	 	 	1581540526	9.64	17.85
12/02/2020 20:48:47	120220	12022020	204847	238.79	12.309300	-56.925093	238.87	0.140	-0.710	0.830	238.79	-2.10	1.30	 	 	 	 	 	 	 	 	 	 	 	 	 	 	 	 	 	 	1581540527	9.42	17.45
12/02/2020 20:48:48	120220	12022020	204848	238.41	12.309282	-56.925135	238.49	0.040	-1.000	1.380	238.41	-2.40	1.90	 	 	 	 	 	 	 	 	 	 	 	 	 	 	 	 	 	 	1581540528	9.46	17.52
12/02/2020 20:48:49	120220	12022020	204849	238.09	12.309263	-56.925175	238.19	0.100	-1.140	1.670	238.09	-2.50	2.10	 	 	 	 	 	 	 	 	 	 	 	 	 	 	 	 	 	 	1581540529	9.55	17.69
12/02/2020 20:48:50	120220	12022020	204850	238.05	12.309243	-56.925215	238.17	0.160	-0.970	1.530	238.05	-2.30	2.00	 	 	 	 	 	 	 	 	 	 	 	 	 	 	 	 	 	 	1581540530	9.47	17.54
12/02/2020 20:48:51	120220	12022020	204851	238.25	12.309223	-56.925253	238.47	0.100	-0.420	1.110	238.32	-1.80	1.50	 	 	 	 	 	 	 	 	 	 	 	 	 	 	 	 	 	 	1581540531	9.19	17.02
12/02/2020 20:48:52	120220	12022020	204852	238.70	12.309202	-56.925290	238.84	-0.020	0.140	0.670	238.70	-1.30	1.10	 	 	 	 	 	 	 	 	 	 	 	 	 	 	 	 	 	 	1581540532	9.02	16.71
12/02/2020 20:48:53	120220	12022020	204853	238.93	12.309178	-56.925328	239.04	-0.030	0.180	0.410	238.93	-1.20	0.90	 	 	 	 	 	 	 	 	 	 	 	 	 	 	 	 	 	 	1581540533	9.41	17.43
12/02/2020 20:48:54	120220	12022020	204854	238.98	12.309155	-56.925370	239.08	0.090	-0.310	0.320	238.98	-1.70	0.80	 	 	 	 	 	 	 	 	 	 	 	 	 	 	 	 	 	 	1581540534	10.09	18.69
12/02/2020 20:48:55	120220	12022020	204855	238.98	12.309130	-56.925412	239.07	0.160	-0.820	0.320	238.98	-2.20	0.80	 	 	 	 	 	 	 	 	 	 	 	 	 	 	 	 	 	 	1581540535	10.38	19.22
12/02/2020 20:48:56	120220	12022020	204856	238.93	12.309107	-56.925453	238.99	-0.000	-0.930	0.580	238.93	-2.30	1.10	 	 	 	 	 	 	 	 	 	 	 	 	 	 	 	 	 	 	1581540536	10.10	18.71
12/02/2020 20:48:57	120220	12022020	204857	238.71	12.309087	-56.925493	238.78	-0.310	-0.610	1.170	238.71	-2.00	1.60	 	 	 	 	 	 	 	 	 	 	 	 	 	 	 	 	 	 	1581540537	9.71	17.98
12/02/2020 20:48:58	120220	12022020	204858	238.43	12.309068	-56.925535	238.52	-0.530	-0.090	1.730	238.43	-1.50	2.20	 	 	 	 	 	 	 	 	 	 	 	 	 	 	 	 	 	 	1581540538	9.53	17.65
12/02/2020 20:48:59	120220	12022020	204859	238.21	12.309050	-56.925577	238.31	-0.520	0.360	1.990	238.21	-1.00	2.40	 	 	 	 	 	 	 	 	 	 	 	 	 	 	 	 	 	 	1581540539	9.49	17.58
12/02/2020 20:49:00	120220	12022020	204900	238.10	12.309032	-56.925617	238.18	-0.260	0.510	1.730	238.10	-0.90	2.20	 	 	 	 	 	 	 	 	 	 	 	 	 	 	 	 	 	 	1581540540	9.56	17.71
12/02/2020 20:49:01	120220	12022020	204901	238.08	12.309008	-56.925657	238.17	0.140	0.310	1.140	238.08	-1.10	1.60	 	 	 	 	 	 	 	 	 	 	 	 	 	 	 	 	 	 	1581540541	9.72	18.00
12/02/2020 20:49:02	120220	12022020	204902	238.14	12.308983	-56.925695	238.21	0.430	-0.100	0.510	238.14	-1.50	0.90	1014.70	26.40	26.50	20.20	20.30	185.0	68.0	68.0	391.0	28.1	230.00	5.10	85.00	9.10	11522	9052.0	27.5	27.4	1581540542	9.86	18.26
12/02/2020 20:49:03	120220	12022020	204903	238.25	12.308958	-56.925735	238.33	0.500	-0.390	0.110	238.25	-1.80	0.60	 	 	 	 	 	 	 	 	 	 	 	 	 	 	 	 	 	 	1581540543	9.78	18.11
12/02/2020 20:49:04	120220	12022020	204904	238.50	12.308937	-56.925773	238.59	0.360	-0.300	-0.000	238.50	-1.70	0.50	 	 	 	 	 	 	 	 	 	 	 	 	 	 	 	 	 	 	1581540544	9.35	17.32
12/02/2020 20:49:05	120220	12022020	204905	238.71	12.308917	-56.925810	238.84	0.200	-0.080	0.200	238.76	-1.50	0.70	 	 	 	 	 	 	 	 	 	 	 	 	 	 	 	 	 	 	1581540545	9.06	16.78
12/02/2020 20:49:06	120220	12022020	204906	238.93	12.308897	-56.925850	239.03	0.150	-0.190	0.500	238.93	-1.60	1.00	 	 	 	 	 	 	 	 	 	 	 	 	 	 	 	 	 	 	1581540546	9.26	17.15
12/02/2020 20:49:07	120220	12022020	204907	239.04	12.308875	-56.925890	239.13	0.140	-0.700	0.830	239.04	-2.10	1.30	 	 	 	 	 	 	 	 	 	 	 	 	 	 	 	 	 	 	1581540547	9.74	18.04
12/02/2020 20:49:08	120220	12022020	204908	239.00	12.308853	-56.925932	239.08	0.010	-1.310	1.310	239.00	-2.70	1.80	 	 	 	 	 	 	 	 	 	 	 	 	 	 	 	 	 	 	1581540548	10.08	18.67
12/02/2020 20:49:09	120220	12022020	204909	238.78	12.308833	-56.925975	238.86	-0.230	-1.530	1.780	238.78	-2.90	2.20	 	 	 	 	 	 	 	 	 	 	 	 	 	 	 	 	 	 	1581540549	10.00	18.52
12/02/2020 20:49:10	120220	12022020	204910	238.45	12.308813	-56.926017	238.53	-0.430	-1.290	1.960	238.45	-2.70	2.40	 	 	 	 	 	 	 	 	 	 	 	 	 	 	 	 	 	 	1581540550	9.69	17.95
12/02/2020 20:49:11	120220	12022020	204911	238.11	12.308793	-56.926057	238.21	-0.390	-0.820	1.740	238.11	-2.20	2.20	 	 	 	 	 	 	 	 	 	 	 	 	 	 	 	 	 	 	1581540551	9.57	17.72
12/02/2020 20:49:12	120220	12022020	204912	237.92	12.308770	-56.926095	238.02	-0.150	-0.290	1.350	237.92	-1.70	1.80	 	 	 	 	 	 	 	 	 	 	 	 	 	 	 	 	 	 	1581540552	9.70	17.96
12/02/2020 20:49:13	120220	12022020	204913	237.94	12.308747	-56.926135	238.04	0.030	0.160	1.070	237.94	-1.20	1.50	 	 	 	 	 	 	 	 	 	 	 	 	 	 	 	 	 	 	1581540553	9.88	18.30
12/02/2020 20:49:14	120220	12022020	204914	238.19	12.308723	-56.926177	238.30	-0.030	0.590	0.920	238.19	-0.80	1.40	 	 	 	 	 	 	 	 	 	 	 	 	 	 	 	 	 	 	1581540554	9.93	18.39
12/02/2020 20:49:15	120220	12022020	204915	238.62	12.308703	-56.926217	238.74	-0.220	1.070	0.830	238.62	-0.30	1.30	 	 	 	 	 	 	 	 	 	 	 	 	 	 	 	 	 	 	1581540555	9.71	17.98
12/02/2020 20:49:16	120220	12022020	204916	239.12	12.308682	-56.926257	239.27	-0.290	1.440	0.810	239.12	0.00	1.30	 	 	 	 	 	 	 	 	 	 	 	 	 	 	 	 	 	 	1581540556	9.40	17.41
12/02/2020 20:49:17	120220	12022020	204917	239.51	12.308662	-56.926295	239.73	-0.080	1.290	0.690	239.59	-0.20	1.10	 	 	 	 	 	 	 	 	 	 	 	 	 	 	 	 	 	 	1581540557	9.32	17.26
12/02/2020 20:49:18	120220	12022020	204918	239.86	12.308638	-56.926335	239.98	0.330	0.430	0.530	239.86	-1.00	1.00	 	 	 	 	 	 	 	 	 	 	 	 	 	 	 	 	 	 	1581540558	9.59	17.76
12/02/2020 20:49:19	120220	12022020	204919	239.77	12.308617	-56.926375	239.77	0.700	-0.820	0.650	239.70	-2.30	1.10	 	 	 	 	 	 	 	 	 	 	 	 	 	 	 	 	 	 	1581540559	9.88	18.30
12/02/2020 20:49:20	120220	12022020	204920	239.04	12.308595	-56.926415	239.09	0.830	-1.830	1.020	239.04	-3.30	1.50	 	 	 	 	 	 	 	 	 	 	 	 	 	 	 	 	 	 	1581540560	9.77	18.09
12/02/2020 20:49:21	120220	12022020	204921	238.22	12.308575	-56.926455	238.29	0.650	-2.300	1.340	238.22	-3.70	1.80	 	 	 	 	 	 	 	 	 	 	 	 	 	 	 	 	 	 	1581540561	9.46	17.52
12/02/2020 20:49:22	120220	12022020	204922	237.72	12.308555	-56.926495	237.83	0.290	-2.330	1.250	237.72	-3.70	1.70	 	 	 	 	 	 	 	 	 	 	 	 	 	 	 	 	 	 	1581540562	9.38	17.37
12/02/2020 20:49:23	120220	12022020	204923	237.78	12.308532	-56.926533	237.92	-0.100	-1.920	0.680	237.78	-3.30	1.10	 	 	 	 	 	 	 	 	 	 	 	 	 	 	 	 	 	 	1581540563	9.46	17.52
12/02/2020 20:49:24	120220	12022020	204924	238.37	12.308508	-56.926572	238.55	-0.470	-1.100	-0.100	238.37	-2.40	0.30	 	 	 	 	 	 	 	 	 	 	 	 	 	 	 	 	 	 	1581540564	9.51	17.61
12/02/2020 20:49:25	120220	12022020	204925	239.21	12.308485	-56.926610	239.38	-0.770	-0.150	-0.660	239.21	-1.50	-0.20	 	 	 	 	 	 	 	 	 	 	 	 	 	 	 	 	 	 	1581540565	9.62	17.82
12/02/2020 20:49:26	120220	12022020	204926	239.85	12.308463	-56.926650	239.96	-0.880	0.710	-0.610	239.85	-0.70	-0.10	 	 	 	 	 	 	 	 	 	 	 	 	 	 	 	 	 	 	1581540566	9.82	18.19
12/02/2020 20:49:27	120220	12022020	204927	240.05	12.308440	-56.926692	240.13	-0.780	1.280	-0.130	240.05	-0.10	0.40	 	 	 	 	 	 	 	 	 	 	 	 	 	 	 	 	 	 	1581540567	10.03	18.58
12/02/2020 20:49:28	120220	12022020	204928	239.93	12.308420	-56.926735	240.00	-0.580	1.580	0.530	239.93	0.20	1.00	 	 	 	 	 	 	 	 	 	 	 	 	 	 	 	 	 	 	1581540568	10.06	18.63
12/02/2020 20:49:29	120220	12022020	204929	239.67	12.308400	-56.926778	239.76	-0.300	1.540	1.090	239.67	0.10	1.60	 	 	 	 	 	 	 	 	 	 	 	 	 	 	 	 	 	 	1581540569	9.91	18.35
12/02/2020 20:49:30	120220	12022020	204930	239.36	12.308382	-56.926818	239.46	0.090	1.200	1.300	239.36	-0.20	1.70	 	 	 	 	 	 	 	 	 	 	 	 	 	 	 	 	 	 	1581540570	9.68	17.93
12/02/2020 20:49:31	120220	12022020	204931	238.96	12.308360	-56.926858	239.06	0.570	0.510	1.090	238.96	-0.90	1.50	 	 	 	 	 	 	 	 	 	 	 	 	 	 	 	 	 	 	1581540571	9.46	17.52
12/02/2020 20:49:32	120220	12022020	204932	238.53	12.308337	-56.926897	238.63	1.000	-0.490	0.620	238.53	-1.90	1.00	 	 	 	 	 	 	 	 	 	 	 	 	 	 	 	 	 	 	1581540572	9.42	17.45
12/02/2020 20:49:33	120220	12022020	204933	238.26	12.308312	-56.926933	238.36	1.140	-1.610	0.120	238.26	-3.10	0.60	 	 	 	 	 	 	 	 	 	 	 	 	 	 	 	 	 	 	1581540573	9.47	17.54
12/02/2020 20:49:34	120220	12022020	204934	238.19	12.308288	-56.926972	238.29	0.900	-2.510	-0.170	238.19	-3.90	0.30	 	 	 	 	 	 	 	 	 	 	 	 	 	 	 	 	 	 	1581540574	9.53	17.65
12/02/2020 20:49:35	120220	12022020	204935	238.23	12.308267	-56.927010	238.36	0.390	-2.830	-0.170	238.23	-4.20	0.30	 	 	 	 	 	 	 	 	 	 	 	 	 	 	 	 	 	 	1581540575	9.51	17.61
12/02/2020 20:49:36	120220	12022020	204936	238.51	12.308247	-56.927050	238.66	-0.190	-2.380	-0.040	238.51	-3.70	0.40	 	 	 	 	 	 	 	 	 	 	 	 	 	 	 	 	 	 	1581540576	9.40	17.41
12/02/2020 20:49:37	120220	12022020	204937	238.90	12.308228	-56.927090	239.05	-0.660	-1.360	0.240	238.90	-2.70	0.70	 	 	 	 	 	 	 	 	 	 	 	 	 	 	 	 	 	 	1581540577	9.40	17.41
12/02/2020 20:49:38	120220	12022020	204938	239.20	12.308210	-56.927132	239.33	-0.920	-0.150	0.640	239.20	-1.50	1.10	 	 	 	 	 	 	 	 	 	 	 	 	 	 	 	 	 	 	1581540578	9.57	17.72
12/02/2020 20:49:39	120220	12022020	204939	239.29	12.308190	-56.927173	239.41	-0.960	1.010	1.070	239.29	-0.30	1.50	 	 	 	 	 	 	 	 	 	 	 	 	 	 	 	 	 	 	1581540579	9.75	18.06
12/02/2020 20:49:40	120220	12022020	204940	239.21	12.308168	-56.927213	239.33	-0.800	1.890	1.340	239.21	0.50	1.80	 	 	 	 	 	 	 	 	 	 	 	 	 	 	 	 	 	 	1581540580	9.78	18.11
12/02/2020 20:49:41	120220	12022020	204941	238.98	12.308145	-56.927253	239.08	-0.490	2.120	1.330	238.98	0.70	1.80	 	 	 	 	 	 	 	 	 	 	 	 	 	 	 	 	 	 	1581540581	9.83	18.21
12/02/2020 20:49:42	120220	12022020	204942	238.60	12.308120	-56.927293	238.68	-0.080	1.590	1.230	238.60	0.10	1.70	 	 	 	 	 	 	 	 	 	 	 	 	 	 	 	 	 	 	1581540582	10.05	18.61
12/02/2020 20:49:43	120220	12022020	204943	238.07	12.308097	-56.927335	238.12	0.330	0.610	1.200	238.07	-0.90	1.60	 	 	 	 	 	 	 	 	 	 	 	 	 	 	 	 	 	 	1581540583	10.05	18.61
12/02/2020 20:49:44	120220	12022020	204944	237.60	12.308073	-56.927375	237.67	0.670	-0.400	1.020	237.60	-1.90	1.50	 	 	 	 	 	 	 	 	 	 	 	 	 	 	 	 	 	 	1581540584	9.77	18.09
12/02/2020 20:49:45	120220	12022020	204945	237.51	12.308052	-56.927413	237.60	0.910	-1.140	0.530	237.51	-2.60	1.00	 	 	 	 	 	 	 	 	 	 	 	 	 	 	 	 	 	 	1581540585	9.33	17.28
12/02/2020 20:49:46	120220	12022020	204946	237.71	12.308028	-56.927448	237.81	0.990	-1.660	-0.020	237.71	-3.10	0.40	 	 	 	 	 	 	 	 	 	 	 	 	 	 	 	 	 	 	1581540586	9.07	16.80
12/02/2020 20:49:47	120220	12022020	204947	238.04	12.308007	-56.927485	238.14	0.800	-1.990	-0.200	238.04	-3.40	0.30	 	 	 	 	 	 	 	 	 	 	 	 	 	 	 	 	 	 	1581540587	9.15	16.95
12/02/2020 20:49:48	120220	12022020	204948	238.28	12.307987	-56.927525	238.39	0.330	-2.000	0.220	238.28	-3.40	0.70	 	 	 	 	 	 	 	 	 	 	 	 	 	 	 	 	 	 	1581540588	9.32	17.26
12/02/2020 20:49:49	120220	12022020	204949	238.32	12.307968	-56.927565	238.43	-0.200	-1.530	1.000	238.32	-2.90	1.50	 	 	 	 	 	 	 	 	 	 	 	 	 	 	 	 	 	 	1581540589	9.42	17.45
12/02/2020 20:49:50	120220	12022020	204950	238.27	12.307952	-56.927607	238.41	-0.490	-0.530	1.790	238.27	-1.90	2.30	 	 	 	 	 	 	 	 	 	 	 	 	 	 	 	 	 	 	1581540590	9.31	17.24
12/02/2020 20:49:51	120220	12022020	204951	238.26	12.307933	-56.927645	238.38	-0.490	0.590	2.290	238.26	-0.80	2.70	 	 	 	 	 	 	 	 	 	 	 	 	 	 	 	 	 	 	1581540591	9.14	16.93
12/02/2020 20:49:52	120220	12022020	204952	238.20	12.307913	-56.927683	238.32	-0.340	1.160	2.360	238.20	-0.20	2.80	 	 	 	 	 	 	 	 	 	 	 	 	 	 	 	 	 	 	1581540592	9.37	17.35
12/02/2020 20:49:53	120220	12022020	204953	238.10	12.307888	-56.927725	238.16	-0.190	0.890	2.070	238.06	-0.60	2.50	 	 	 	 	 	 	 	 	 	 	 	 	 	 	 	 	 	 	1581540593	10.02	18.56
12/02/2020 20:49:54	120220	12022020	204954	237.86	12.307862	-56.927765	237.94	-0.100	0.160	1.590	237.86	-1.30	2.00	 	 	 	 	 	 	 	 	 	 	 	 	 	 	 	 	 	 	1581540594	10.44	19.33
12/02/2020 20:49:55	120220	12022020	204955	237.74	12.307837	-56.927805	237.80	-0.050	-0.280	1.030	237.73	-1.70	1.50	 	 	 	 	 	 	 	 	 	 	 	 	 	 	 	 	 	 	1581540595	10.14	18.78
12/02/2020 20:49:56	120220	12022020	204956	237.75	12.307813	-56.927843	237.85	-0.000	-0.200	0.520	237.75	-1.60	1.00	 	 	 	 	 	 	 	 	 	 	 	 	 	 	 	 	 	 	1581540596	9.35	17.32
12/02/2020 20:49:57	120220	12022020	204957	238.03	12.307792	-56.927878	238.14	0.050	-0.020	0.050	238.03	-1.40	0.50	 	 	 	 	 	 	 	 	 	 	 	 	 	 	 	 	 	 	1581540597	8.91	16.50
12/02/2020 20:49:58	120220	12022020	204958	238.49	12.307770	-56.927915	238.62	0.150	-0.090	-0.290	238.49	-1.50	0.20	 	 	 	 	 	 	 	 	 	 	 	 	 	 	 	 	 	 	1581540598	8.99	16.65
12/02/2020 20:49:59	120220	12022020	204959	238.97	12.307748	-56.927953	239.09	0.300	-0.440	-0.350	238.97	-1.90	0.10	 	 	 	 	 	 	 	 	 	 	 	 	 	 	 	 	 	 	1581540599	9.28	17.19
12/02/2020 20:50:00	120220	12022020	205000	239.29	12.307727	-56.927992	239.41	0.410	-0.820	-0.130	239.29	-2.20	0.30	 	 	 	 	 	 	 	 	 	 	 	 	 	 	 	 	 	 	1581540600	9.45	17.50
12/02/2020 20:50:01	120220	12022020	205001	239.31	12.307705	-56.928032	239.42	0.410	-1.010	0.380	239.31	-2.40	0.90	 	 	 	 	 	 	 	 	 	 	 	 	 	 	 	 	 	 	1581540601	9.41	17.43
12/02/2020 20:50:02	120220	12022020	205002	238.94	12.307687	-56.928072	239.03	0.310	-1.000	1.200	238.94	-2.40	1.70	1014.70	26.50	26.50	20.50	20.60	182.0	69.0	69.0	391.0	28.1	230.00	4.60	83.00	8.60	11281	10073.0	27.5	27.5	1581540602	9.38	17.37
12/02/2020 20:50:03	120220	12022020	205003	238.35	12.307668	-56.928113	238.45	0.140	-0.900	2.040	238.35	-2.30	2.50	 	 	 	 	 	 	 	 	 	 	 	 	 	 	 	 	 	 	1581540603	9.58	17.74
12/02/2020 20:50:04	120220	12022020	205004	237.89	12.307650	-56.928155	238.01	-0.080	-0.590	2.390	237.89	-2.00	2.80	 	 	 	 	 	 	 	 	 	 	 	 	 	 	 	 	 	 	1581540604	9.66	17.89
12/02/2020 20:50:05	120220	12022020	205005	237.85	12.307630	-56.928193	238.00	-0.340	0.000	2.100	237.85	-1.40	2.50	 	 	 	 	 	 	 	 	 	 	 	 	 	 	 	 	 	 	1581540605	9.42	17.45
12/02/2020 20:50:06	120220	12022020	205006	238.21	12.307608	-56.928232	238.39	-0.510	0.590	1.320	238.21	-0.80	1.70	 	 	 	 	 	 	 	 	 	 	 	 	 	 	 	 	 	 	1581540606	9.18	17.00
12/02/2020 20:50:07	120220	12022020	205007	238.70	12.307585	-56.928268	238.97	-0.410	0.730	0.330	238.81	-0.70	0.70	 	 	 	 	 	 	 	 	 	 	 	 	 	 	 	 	 	 	1581540607	9.30	17.22
12/02/2020 20:50:08	120220	12022020	205008	239.37	12.307558	-56.928307	239.49	-0.070	0.240	-0.360	239.37	-1.20	0.10	 	 	 	 	 	 	 	 	 	 	 	 	 	 	 	 	 	 	1581540608	9.80	18.15
12/02/2020 20:50:09	120220	12022020	205009	239.66	12.307535	-56.928347	239.79	0.270	-0.460	-0.430	239.71	-1.90	0.00	 	 	 	 	 	 	 	 	 	 	 	 	 	 	 	 	 	 	1581540609	10.07	18.65
12/02/2020 20:50:10	120220	12022020	205010	239.78	12.307513	-56.928388	239.84	0.310	-0.840	0.020	239.78	-2.30	0.50	 	 	 	 	 	 	 	 	 	 	 	 	 	 	 	 	 	 	1581540610	9.79	18.13
12/02/2020 20:50:11	120220	12022020	205011	239.51	12.307495	-56.928428	239.54	0.070	-0.750	0.840	239.51	-2.10	1.30	 	 	 	 	 	 	 	 	 	 	 	 	 	 	 	 	 	 	1581540611	9.34	17.30
12/02/2020 20:50:12	120220	12022020	205012	239.01	12.307478	-56.928468	239.06	-0.120	-0.340	1.620	239.01	-1.70	2.10	 	 	 	 	 	 	 	 	 	 	 	 	 	 	 	 	 	 	1581540612	9.07	16.80
12/02/2020 20:50:13	120220	12022020	205013	238.65	12.307462	-56.928507	238.73	-0.090	0.150	1.880	238.65	-1.20	2.30	 	 	 	 	 	 	 	 	 	 	 	 	 	 	 	 	 	 	1581540613	8.91	16.50
12/02/2020 20:50:14	120220	12022020	205014	238.58	12.307442	-56.928543	238.67	0.110	0.200	1.550	238.58	-1.20	2.00	 	 	 	 	 	 	 	 	 	 	 	 	 	 	 	 	 	 	1581540614	9.06	16.78
12/02/2020 20:50:15	120220	12022020	205015	238.71	12.307418	-56.928583	238.81	0.330	-0.380	1.030	238.71	-1.80	1.40	 	 	 	 	 	 	 	 	 	 	 	 	 	 	 	 	 	 	1581540615	9.67	17.91
12/02/2020 20:50:16	120220	12022020	205016	238.87	12.307393	-56.928623	238.97	0.400	-1.100	0.700	238.87	-2.50	1.10	 	 	 	 	 	 	 	 	 	 	 	 	 	 	 	 	 	 	1581540616	10.11	18.72
12/02/2020 20:50:17	120220	12022020	205017	238.94	12.307372	-56.928665	239.01	0.230	-1.260	0.800	238.94	-2.70	1.30	 	 	 	 	 	 	 	 	 	 	 	 	 	 	 	 	 	 	1581540617	9.89	18.32
12/02/2020 20:50:18	120220	12022020	205018	238.82	12.307352	-56.928705	238.90	-0.090	-0.790	1.190	238.82	-2.20	1.70	 	 	 	 	 	 	 	 	 	 	 	 	 	 	 	 	 	 	1581540618	9.33	17.28
12/02/2020 20:50:19	120220	12022020	205019	238.59	12.307333	-56.928743	238.69	-0.410	-0.140	1.500	238.59	-1.50	2.00	 	 	 	 	 	 	 	 	 	 	 	 	 	 	 	 	 	 	1581540619	9.14	16.93
12/02/2020 20:50:20	120220	12022020	205020	238.45	12.307315	-56.928783	238.58	-0.570	0.280	1.520	238.45	-1.10	2.00	 	 	 	 	 	 	 	 	 	 	 	 	 	 	 	 	 	 	1581540620	9.32	17.26
12/02/2020 20:50:21	120220	12022020	205021	238.55	12.307293	-56.928822	238.69	-0.510	0.410	1.200	238.55	-1.00	1.60	 	 	 	 	 	 	 	 	 	 	 	 	 	 	 	 	 	 	1581540621	9.54	17.67
12/02/2020 20:50:22	120220	12022020	205022	238.96	12.307270	-56.928862	239.10	-0.320	0.320	0.650	238.96	-1.10	1.10	 	 	 	 	 	 	 	 	 	 	 	 	 	 	 	 	 	 	1581540622	9.65	17.87
12/02/2020 20:50:23	120220	12022020	205023	239.52	12.307247	-56.928900	239.67	-0.090	0.210	0.140	239.52	-1.20	0.60	 	 	 	 	 	 	 	 	 	 	 	 	 	 	 	 	 	 	1581540623	9.51	17.61
12/02/2020 20:50:24	120220	12022020	205024	239.98	12.307225	-56.928937	240.09	0.150	0.070	-0.050	239.98	-1.40	0.40	 	 	 	 	 	 	 	 	 	 	 	 	 	 	 	 	 	 	1581540624	9.26	17.15
12/02/2020 20:50:25	120220	12022020	205025	240.11	12.307205	-56.928977	240.19	0.420	-0.280	0.190	240.11	-1.70	0.70	 	 	 	 	 	 	 	 	 	 	 	 	 	 	 	 	 	 	1581540625	9.30	17.22
12/02/2020 20:50:26	120220	12022020	205026	239.93	12.307185	-56.929017	239.99	0.650	-0.710	0.710	239.93	-2.10	1.20	 	 	 	 	 	 	 	 	 	 	 	 	 	 	 	 	 	 	1581540626	9.49	17.58
12/02/2020 20:50:27	120220	12022020	205027	239.55	12.307165	-56.929057	239.61	0.670	-0.970	1.310	239.55	-2.40	1.80	 	 	 	 	 	 	 	 	 	 	 	 	 	 	 	 	 	 	1581540627	9.51	17.61
12/02/2020 20:50:28	120220	12022020	205028	239.14	12.307147	-56.929097	239.22	0.420	-1.010	1.740	239.14	-2.40	2.20	 	 	 	 	 	 	 	 	 	 	 	 	 	 	 	 	 	 	1581540628	9.48	17.56
12/02/2020 20:50:29	120220	12022020	205029	238.89	12.307127	-56.929138	239.00	0.000	-0.910	1.800	238.89	-2.30	2.20	 	 	 	 	 	 	 	 	 	 	 	 	 	 	 	 	 	 	1581540629	9.52	17.63
12/02/2020 20:50:30	120220	12022020	205030	238.93	12.307105	-56.929177	239.05	-0.440	-0.640	1.470	238.93	-2.00	1.90	 	 	 	 	 	 	 	 	 	 	 	 	 	 	 	 	 	 	1581540630	9.55	17.69
12/02/2020 20:50:31	120220	12022020	205031	239.13	12.307085	-56.929217	239.33	-0.810	-0.200	1.070	239.20	-1.60	1.50	 	 	 	 	 	 	 	 	 	 	 	 	 	 	 	 	 	 	1581540631	9.46	17.52
12/02/2020 20:50:32	120220	12022020	205032	239.63	12.307063	-56.929255	239.76	-0.940	0.240	0.700	239.63	-1.20	1.10	 	 	 	 	 	 	 	 	 	 	 	 	 	 	 	 	 	 	1581540632	9.31	17.24
12/02/2020 20:50:33	120220	12022020	205033	240.13	12.307043	-56.929295	240.26	-0.720	0.320	0.300	240.13	-1.10	0.70	 	 	 	 	 	 	 	 	 	 	 	 	 	 	 	 	 	 	1581540633	9.44	17.48
12/02/2020 20:50:34	120220	12022020	205034	240.55	12.307022	-56.929335	240.64	-0.220	0.070	-0.020	240.55	-1.40	0.40	 	 	 	 	 	 	 	 	 	 	 	 	 	 	 	 	 	 	1581540634	9.76	18.08
12/02/2020 20:50:35	120220	12022020	205035	240.74	12.306998	-56.929375	240.82	0.280	-0.170	-0.020	240.74	-1.60	0.40	 	 	 	 	 	 	 	 	 	 	 	 	 	 	 	 	 	 	1581540635	9.77	18.09
12/02/2020 20:50:36	120220	12022020	205036	240.70	12.306978	-56.929415	240.75	0.520	-0.220	0.280	240.70	-1.60	0.70	 	 	 	 	 	 	 	 	 	 	 	 	 	 	 	 	 	 	1581540636	9.48	17.56
12/02/2020 20:50:37	120220	12022020	205037	240.44	12.306958	-56.929453	240.48	0.480	-0.170	0.760	240.44	-1.60	1.20	 	 	 	 	 	 	 	 	 	 	 	 	 	 	 	 	 	 	1581540637	9.29	17.21
12/02/2020 20:50:38	120220	12022020	205038	240.10	12.306940	-56.929493	240.14	0.300	-0.170	1.300	240.10	-1.60	1.80	 	 	 	 	 	 	 	 	 	 	 	 	 	 	 	 	 	 	1581540638	9.35	17.32
12/02/2020 20:50:39	120220	12022020	205039	239.83	12.306923	-56.929535	239.88	0.120	-0.260	1.630	239.83	-1.70	2.10	 	 	 	 	 	 	 	 	 	 	 	 	 	 	 	 	 	 	1581540639	9.49	17.58
12/02/2020 20:50:40	120220	12022020	205040	239.67	12.306905	-56.929577	239.73	0.030	-0.400	1.600	239.67	-1.80	2.00	 	 	 	 	 	 	 	 	 	 	 	 	 	 	 	 	 	 	1581540640	9.54	17.67
12/02/2020 20:50:41	120220	12022020	205041	239.58	12.306885	-56.929617	239.65	-0.020	-0.590	1.200	239.58	-2.00	1.60	 	 	 	 	 	 	 	 	 	 	 	 	 	 	 	 	 	 	1581540641	9.56	17.71
12/02/2020 20:50:42	120220	12022020	205042	239.49	12.306862	-56.929655	239.55	-0.050	-0.710	0.680	239.49	-2.10	1.10	 	 	 	 	 	 	 	 	 	 	 	 	 	 	 	 	 	 	1581540642	9.55	17.69
12/02/2020 20:50:43	120220	12022020	205043	239.43	12.306838	-56.929693	239.48	-0.120	-0.600	0.350	239.43	-2.00	0.80	 	 	 	 	 	 	 	 	 	 	 	 	 	 	 	 	 	 	1581540643	9.40	17.41
12/02/2020 20:50:44	120220	12022020	205044	239.46	12.306818	-56.929732	239.53	-0.190	-0.280	0.300	239.46	-1.70	0.80	 	 	 	 	 	 	 	 	 	 	 	 	 	 	 	 	 	 	1581540644	9.15	16.95
12/02/2020 20:50:45	120220	12022020	205045	239.56	12.306798	-56.929770	239.69	-0.200	0.000	0.390	239.60	-1.40	0.80	 	 	 	 	 	 	 	 	 	 	 	 	 	 	 	 	 	 	1581540645	9.14	16.93
12/02/2020 20:50:46	120220	12022020	205046	239.87	12.306780	-56.929810	239.99	-0.100	0.100	0.350	239.87	-1.30	0.80	 	 	 	 	 	 	 	 	 	 	 	 	 	 	 	 	 	 	1581540646	9.30	17.22
12/02/2020 20:50:47	120220	12022020	205047	240.26	12.306760	-56.929848	240.35	0.080	-0.040	0.170	240.26	-1.50	0.60	 	 	 	 	 	 	 	 	 	 	 	 	 	 	 	 	 	 	1581540647	9.48	17.56
12/02/2020 20:50:48	120220	12022020	205048	240.57	12.306737	-56.929888	240.66	0.280	-0.410	0.110	240.57	-1.80	0.60	 	 	 	 	 	 	 	 	 	 	 	 	 	 	 	 	 	 	1581540648	9.71	17.98
12/02/2020 20:50:49	120220	12022020	205049	240.65	12.306717	-56.929930	240.69	0.300	-0.790	0.500	240.65	-2.20	1.00	 	 	 	 	 	 	 	 	 	 	 	 	 	 	 	 	 	 	1581540649	9.86	18.26
12/02/2020 20:50:50	120220	12022020	205050	240.29	12.306697	-56.929972	240.30	0.060	-0.940	1.320	240.29	-2.30	1.80	 	 	 	 	 	 	 	 	 	 	 	 	 	 	 	 	 	 	1581540650	9.80	18.15
12/02/2020 20:50:51	120220	12022020	205051	239.50	12.306680	-56.930015	239.50	-0.250	-0.770	2.200	239.50	-2.20	2.70	 	 	 	 	 	 	 	 	 	 	 	 	 	 	 	 	 	 	1581540651	9.64	17.85
12/02/2020 20:50:52	120220	12022020	205052	238.57	12.306663	-56.930057	238.58	-0.430	-0.370	2.720	238.57	-1.70	3.20	 	 	 	 	 	 	 	 	 	 	 	 	 	 	 	 	 	 	1581540652	9.52	17.63
12/02/2020 20:50:53	120220	12022020	205053	237.92	12.306643	-56.930097	237.97	-0.420	0.160	2.530	237.92	-1.20	2.90	 	 	 	 	 	 	 	 	 	 	 	 	 	 	 	 	 	 	1581540653	9.38	17.37
12/02/2020 20:50:54	120220	12022020	205054	237.83	12.306623	-56.930133	237.93	-0.290	0.610	1.740	237.83	-0.80	2.10	 	 	 	 	 	 	 	 	 	 	 	 	 	 	 	 	 	 	1581540654	9.19	17.02
12/02/2020 20:50:55	120220	12022020	205055	238.24	12.306602	-56.930172	238.34	-0.100	0.660	0.750	238.24	-0.80	1.10	 	 	 	 	 	 	 	 	 	 	 	 	 	 	 	 	 	 	1581540655	9.22	17.08
12/02/2020 20:50:56	120220	12022020	205056	238.88	12.306577	-56.930208	238.98	0.130	0.230	-0.010	238.88	-1.20	0.40	 	 	 	 	 	 	 	 	 	 	 	 	 	 	 	 	 	 	1581540656	9.48	17.56
12/02/2020 20:50:57	120220	12022020	205057	239.35	12.306555	-56.930248	239.54	0.370	-0.360	-0.210	239.44	-1.80	0.20	 	 	 	 	 	 	 	 	 	 	 	 	 	 	 	 	 	 	1581540657	9.65	17.87
12/02/2020 20:50:58	120220	12022020	205058	239.84	12.306533	-56.930288	239.94	0.500	-0.740	0.060	239.84	-2.20	0.50	 	 	 	 	 	 	 	 	 	 	 	 	 	 	 	 	 	 	1581540658	9.47	17.54
12/02/2020 20:50:59	120220	12022020	205059	240.02	12.306515	-56.930327	240.13	0.430	-0.900	0.590	240.04	-2.30	1.10	 	 	 	 	 	 	 	 	 	 	 	 	 	 	 	 	 	 	1581540659	9.22	17.08
12/02/2020 20:51:00	120220	12022020	205100	239.98	12.306497	-56.930367	240.05	0.220	-0.900	1.090	239.98	-2.30	1.50	 	 	 	 	 	 	 	 	 	 	 	 	 	 	 	 	 	 	1581540660	9.19	17.02
12/02/2020 20:51:01	120220	12022020	205101	239.74	12.306478	-56.930405	239.80	-0.010	-0.810	1.350	239.74	-2.20	1.80	 	 	 	 	 	 	 	 	 	 	 	 	 	 	 	 	 	 	1581540661	9.22	17.08
12/02/2020 20:51:02	120220	12022020	205102	239.40	12.306457	-56.930445	239.45	-0.140	-0.800	1.370	239.40	-2.20	1.80	1014.70	26.50	26.60	20.50	20.60	178.0	69.0	69.0	391.0	28.1	218.00	4.80	78.00	9.20	11120	10294.0	27.5	27.4	1581540662	9.41	17.43
12/02/2020 20:51:03	120220	12022020	205103	238.93	12.306435	-56.930485	238.97	-0.130	-0.880	1.310	238.93	-2.30	1.80	 	 	 	 	 	 	 	 	 	 	 	 	 	 	 	 	 	 	1581540663	9.77	18.09
12/02/2020 20:51:04	120220	12022020	205104	238.48	12.306412	-56.930525	238.54	-0.130	-0.750	1.260	238.48	-2.10	1.70	 	 	 	 	 	 	 	 	 	 	 	 	 	 	 	 	 	 	1581540664	9.90	18.33
12/02/2020 20:51:05	120220	12022020	205105	238.25	12.306390	-56.930565	238.33	-0.310	-0.250	1.360	238.25	-1.60	1.80	 	 	 	 	 	 	 	 	 	 	 	 	 	 	 	 	 	 	1581540665	9.66	17.89
12/02/2020 20:51:06	120220	12022020	205106	238.17	12.306372	-56.930607	238.28	-0.590	0.440	1.660	238.17	-0.90	2.10	 	 	 	 	 	 	 	 	 	 	 	 	 	 	 	 	 	 	1581540666	9.41	17.43
12/02/2020 20:51:07	120220	12022020	205107	238.26	12.306355	-56.930647	238.39	-0.750	1.080	1.850	238.26	-0.30	2.30	 	 	 	 	 	 	 	 	 	 	 	 	 	 	 	 	 	 	1581540667	9.26	17.15
12/02/2020 20:51:08	120220	12022020	205108	238.64	12.306338	-56.930687	238.79	-0.540	1.370	1.640	238.64	-0.00	2.10	 	 	 	 	 	 	 	 	 	 	 	 	 	 	 	 	 	 	1581540668	9.13	16.91
12/02/2020 20:51:09	120220	12022020	205109	239.22	12.306320	-56.930725	239.38	0.060	1.010	1.040	239.22	-0.40	1.40	 	 	 	 	 	 	 	 	 	 	 	 	 	 	 	 	 	 	1581540669	9.23	17.09
12/02/2020 20:51:10	120220	12022020	205110	239.75	12.306297	-56.930765	239.89	0.800	-0.050	0.310	239.75	-1.50	0.70	 	 	 	 	 	 	 	 	 	 	 	 	 	 	 	 	 	 	1581540670	9.63	17.83
12/02/2020 20:51:11	120220	12022020	205111	240.03	12.306272	-56.930803	240.13	1.230	-1.340	-0.140	240.03	-2.80	0.30	 	 	 	 	 	 	 	 	 	 	 	 	 	 	 	 	 	 	1581540671	9.98	18.48
12/02/2020 20:51:12	120220	12022020	205112	240.16	12.306248	-56.930843	240.24	1.050	-2.040	-0.230	240.16	-3.40	0.20	 	 	 	 	 	 	 	 	 	 	 	 	 	 	 	 	 	 	1581540672	9.75	18.06
12/02/2020 20:51:13	120220	12022020	205113	240.28	12.306227	-56.930882	240.37	0.360	-1.790	-0.190	240.28	-3.20	0.30	 	 	 	 	 	 	 	 	 	 	 	 	 	 	 	 	 	 	1581540673	9.08	16.82
12/02/2020 20:51:14	120220	12022020	205114	240.39	12.306208	-56.930917	240.47	-0.400	-0.960	-0.080	240.39	-2.30	0.40	 	 	 	 	 	 	 	 	 	 	 	 	 	 	 	 	 	 	1581540674	8.64	16.00
12/02/2020 20:51:15	120220	12022020	205115	240.31	12.306188	-56.930953	240.37	-0.790	-0.210	0.230	240.31	-1.60	0.70	 	 	 	 	 	 	 	 	 	 	 	 	 	 	 	 	 	 	1581540675	8.82	16.33
12/02/2020 20:51:16	120220	12022020	205116	239.88	12.306168	-56.930993	239.91	-0.730	0.050	0.810	239.88	-1.40	1.30	 	 	 	 	 	 	 	 	 	 	 	 	 	 	 	 	 	 	1581540676	9.45	17.50
12/02/2020 20:51:17	120220	12022020	205117	239.17	12.306148	-56.931037	239.20	-0.470	-0.120	1.440	239.17	-1.50	1.90	 	 	 	 	 	 	 	 	 	 	 	 	 	 	 	 	 	 	1581540677	10.12	18.74
12/02/2020 20:51:18	120220	12022020	205118	238.40	12.306127	-56.931080	238.44	-0.290	-0.240	1.910	238.40	-1.60	2.40	 	 	 	 	 	 	 	 	 	 	 	 	 	 	 	 	 	 	1581540678	10.28	19.04
12/02/2020 20:51:19	120220	12022020	205119	237.89	12.306108	-56.931123	237.97	-0.270	0.090	2.080	237.89	-1.30	2.50	 	 	 	 	 	 	 	 	 	 	 	 	 	 	 	 	 	 	1581540679	9.76	18.08
12/02/2020 20:51:20	120220	12022020	205120	237.84	12.306092	-56.931162	237.95	-0.210	0.560	1.850	237.84	-0.80	2.30	 	 	 	 	 	 	 	 	 	 	 	 	 	 	 	 	 	 	1581540680	9.14	16.93
12/02/2020 20:51:21	120220	12022020	205121	238.05	12.306073	-56.931200	238.25	0.050	0.570	1.260	238.14	-0.90	1.70	 	 	 	 	 	 	 	 	 	 	 	 	 	 	 	 	 	 	1581540681	9.14	16.93
12/02/2020 20:51:22	120220	12022020	205122	238.62	12.306052	-56.931240	238.74	0.420	0.160	0.530	238.62	-1.30	0.90	 	 	 	 	 	 	 	 	 	 	 	 	 	 	 	 	 	 	1581540682	9.52	17.63
12/02/2020 20:51:23	120220	12022020	205123	239.07	12.306028	-56.931278	239.29	0.650	-0.190	-0.040	239.17	-1.60	0.40	 	 	 	 	 	 	 	 	 	 	 	 	 	 	 	 	 	 	1581540683	9.50	17.59
12/02/2020 20:51:24	120220	12022020	205124	239.57	12.306007	-56.931317	239.65	0.590	-0.330	-0.180	239.57	-1.80	0.30	 	 	 	 	 	 	 	 	 	 	 	 	 	 	 	 	 	 	1581540684	9.18	17.00
12/02/2020 20:51:25	120220	12022020	205125	239.65	12.305987	-56.931353	239.72	0.320	-0.470	0.100	239.65	-1.90	0.60	 	 	 	 	 	 	 	 	 	 	 	 	 	 	 	 	 	 	1581540685	9.08	16.82
12/02/2020 20:51:26	120220	12022020	205126	239.54	12.305967	-56.931392	239.61	-0.010	-0.640	0.450	239.54	-2.10	0.90	 	 	 	 	 	 	 	 	 	 	 	 	 	 	 	 	 	 	1581540686	9.21	17.06
12/02/2020 20:51:27	120220	12022020	205127	239.43	12.305947	-56.931432	239.51	-0.250	-0.770	0.590	239.43	-2.20	1.00	 	 	 	 	 	 	 	 	 	 	 	 	 	 	 	 	 	 	1581540687	9.25	17.13
12/02/2020 20:51:28	120220	12022020	205128	239.35	12.305925	-56.931468	239.43	-0.300	-0.840	0.540	239.35	-2.20	1.00	 	 	 	 	 	 	 	 	 	 	 	 	 	 	 	 	 	 	1581540688	9.24	17.11
12/02/2020 20:51:29	120220	12022020	205129	239.20	12.305902	-56.931507	239.26	-0.140	-0.890	0.650	239.20	-2.30	1.10	 	 	 	 	 	 	 	 	 	 	 	 	 	 	 	 	 	 	1581540689	9.33	17.28
12/02/2020 20:51:30	120220	12022020	205130	238.84	12.305880	-56.931545	238.89	0.050	-0.910	1.090	238.84	-2.30	1.60	 	 	 	 	 	 	 	 	 	 	 	 	 	 	 	 	 	 	1581540690	9.50	17.59
12/02/2020 20:51:31	120220	12022020	205131	238.24	12.305862	-56.931587	238.29	0.090	-0.740	1.710	238.24	-2.10	2.20	 	 	 	 	 	 	 	 	 	 	 	 	 	 	 	 	 	 	1581540691	9.63	17.83
12/02/2020 20:51:32	120220	12022020	205132	237.67	12.305843	-56.931628	237.72	-0.050	-0.350	2.160	237.67	-1.70	2.60	 	 	 	 	 	 	 	 	 	 	 	 	 	 	 	 	 	 	1581540692	9.57	17.72
12/02/2020 20:51:33	120220	12022020	205133	237.28	12.305825	-56.931670	237.37	-0.200	0.050	2.300	237.28	-1.30	2.70	 	 	 	 	 	 	 	 	 	 	 	 	 	 	 	 	 	 	1581540693	9.56	17.71
12/02/2020 20:51:34	120220	12022020	205134	237.30	12.305807	-56.931710	237.43	-0.230	0.340	1.920	237.30	-1.10	2.30	 	 	 	 	 	 	 	 	 	 	 	 	 	 	 	 	 	 	1581540694	9.64	17.85
12/02/2020 20:51:35	120220	12022020	205135	237.70	12.305785	-56.931750	238.00	-0.220	0.590	1.160	237.83	-0.80	1.60	 	 	 	 	 	 	 	 	 	 	 	 	 	 	 	 	 	 	1581540695	9.51	17.61
12/02/2020 20:51:36	120220	12022020	205136	238.66	12.305765	-56.931788	238.81	-0.220	0.750	0.410	238.66	-0.70	0.80	 	 	 	 	 	 	 	 	 	 	 	 	 	 	 	 	 	 	1581540696	9.30	17.22
12/02/2020 20:51:37	120220	12022020	205137	239.53	12.305743	-56.931827	239.63	-0.190	0.700	-0.120	239.53	-0.70	0.30	 	 	 	 	 	 	 	 	 	 	 	 	 	 	 	 	 	 	1581540697	9.16	16.96
12/02/2020 20:51:38	120220	12022020	205138	240.19	12.305720	-56.931863	240.28	-0.030	0.360	-0.310	240.19	-1.10	0.10	 	 	 	 	 	 	 	 	 	 	 	 	 	 	 	 	 	 	1581540698	9.15	16.95
12/02/2020 20:51:39	120220	12022020	205139	240.55	12.305698	-56.931900	240.61	0.280	-0.300	-0.210	240.55	-1.80	0.20	 	 	 	 	 	 	 	 	 	 	 	 	 	 	 	 	 	 	1581540699	9.27	17.17
12/02/2020 20:51:40	120220	12022020	205140	240.45	12.305675	-56.931938	240.47	0.640	-1.050	0.130	240.45	-2.50	0.60	 	 	 	 	 	 	 	 	 	 	 	 	 	 	 	 	 	 	1581540700	9.45	17.50
12/02/2020 20:51:41	120220	12022020	205141	239.94	12.305653	-56.931977	239.93	0.810	-1.540	0.730	239.94	-3.00	1.20	 	 	 	 	 	 	 	 	 	 	 	 	 	 	 	 	 	 	1581540701	9.40	17.41
12/02/2020 20:51:42	120220	12022020	205142	239.25	12.305633	-56.932015	239.27	0.650	-1.590	1.500	239.25	-3.00	2.00	 	 	 	 	 	 	 	 	 	 	 	 	 	 	 	 	 	 	1581540702	9.21	17.06
12/02/2020 20:51:43	120220	12022020	205143	238.56	12.305617	-56.932055	238.61	0.290	-1.310	2.080	238.56	-2.70	2.50	 	 	 	 	 	 	 	 	 	 	 	 	 	 	 	 	 	 	1581540703	9.15	16.95
12/02/2020 20:51:44	120220	12022020	205144	238.03	12.305600	-56.932095	238.07	-0.040	-0.910	2.280	238.03	-2.30	2.70	 	 	 	 	 	 	 	 	 	 	 	 	 	 	 	 	 	 	1581540704	9.31	17.24
12/02/2020 20:51:45	120220	12022020	205145	237.69	12.305582	-56.932137	237.75	-0.250	-0.580	2.220	237.69	-2.00	2.60	 	 	 	 	 	 	 	 	 	 	 	 	 	 	 	 	 	 	1581540705	9.62	17.82
12/02/2020 20:51:46	120220	12022020	205146	237.59	12.305562	-56.932180	237.67	-0.380	-0.260	1.910	237.59	-1.70	2.30	 	 	 	 	 	 	 	 	 	 	 	 	 	 	 	 	 	 	1581540706	9.91	18.35
12/02/2020 20:51:47	120220	12022020	205147	237.76	12.305542	-56.932222	237.96	-0.510	0.370	1.320	237.83	-1.00	1.70	 	 	 	 	 	 	 	 	 	 	 	 	 	 	 	 	 	 	1581540707	9.73	18.02
12/02/2020 20:51:48	120220	12022020	205148	238.51	12.305522	-56.932258	238.66	-0.680	1.240	0.510	238.51	-0.10	0.90	 	 	 	 	 	 	 	 	 	 	 	 	 	 	 	 	 	 	1581540708	9.14	16.93
12/02/2020 20:51:49	120220	12022020	205149	239.23	12.305498	-56.932295	239.52	-0.700	1.660	-0.180	239.39	0.20	0.20	 	 	 	 	 	 	 	 	 	 	 	 	 	 	 	 	 	 	1581540709	8.93	16.54
12/02/2020 20:51:50	120220	12022020	205150	240.07	12.305475	-56.932332	240.18	-0.400	1.190	-0.500	240.07	-0.30	-0.10	 	 	 	 	 	 	 	 	 	 	 	 	 	 	 	 	 	 	1581540710	9.36	17.33
12/02/2020 20:51:51	120220	12022020	205151	240.39	12.305452	-56.932372	240.47	0.170	0.120	-0.460	240.39	-1.40	0.00	 	 	 	 	 	 	 	 	 	 	 	 	 	 	 	 	 	 	1581540711	9.75	18.06
12/02/2020 20:51:52	120220	12022020	205152	240.34	12.305428	-56.932410	240.39	0.720	-1.000	-0.050	240.34	-2.50	0.40	 	 	 	 	 	 	 	 	 	 	 	 	 	 	 	 	 	 	1581540712	9.73	18.02
12/02/2020 20:51:53	120220	12022020	205153	239.95	12.305407	-56.932450	239.98	0.950	-1.800	0.620	239.95	-3.20	1.10	 	 	 	 	 	 	 	 	 	 	 	 	 	 	 	 	 	 	1581540713	9.48	17.56
12/02/2020 20:51:54	120220	12022020	205154	239.34	12.305387	-56.932488	239.38	0.770	-2.130	1.370	239.34	-3.50	1.90	 	 	 	 	 	 	 	 	 	 	 	 	 	 	 	 	 	 	1581540714	9.27	17.17
12/02/2020 20:51:55	120220	12022020	205155	238.71	12.305370	-56.932528	238.77	0.330	-1.910	2.050	238.71	-3.30	2.50	 	 	 	 	 	 	 	 	 	 	 	 	 	 	 	 	 	 	1581540715	9.20	17.04
12/02/2020 20:51:56	120220	12022020	205156	238.13	12.305353	-56.932568	238.20	-0.120	-1.240	2.510	238.13	-2.60	3.00	 	 	 	 	 	 	 	 	 	 	 	 	 	 	 	 	 	 	1581540716	9.25	17.13
12/02/2020 20:51:57	120220	12022020	205157	237.73	12.305337	-56.932610	237.81	-0.410	-0.280	2.560	237.73	-1.60	3.00	 	 	 	 	 	 	 	 	 	 	 	 	 	 	 	 	 	 	1581540717	9.26	17.15
12/02/2020 20:51:58	120220	12022020	205158	237.64	12.305320	-56.932650	237.74	-0.510	0.600	2.210	237.64	-0.80	2.60	 	 	 	 	 	 	 	 	 	 	 	 	 	 	 	 	 	 	1581540718	9.27	17.17
12/02/2020 20:51:59	120220	12022020	205159	237.97	12.305298	-56.932688	238.10	-0.440	0.990	1.460	237.97	-0.40	1.90	 	 	 	 	 	 	 	 	 	 	 	 	 	 	 	 	 	 	1581540719	9.51	17.61
12/02/2020 20:52:00	120220	12022020	205200	238.58	12.305275	-56.932728	238.70	-0.300	0.880	0.670	238.58	-0.60	1.10	 	 	 	 	 	 	 	 	 	 	 	 	 	 	 	 	 	 	1581540720	9.81	18.17
12/02/2020 20:52:01	120220	12022020	205201	239.16	12.305252	-56.932768	239.26	-0.190	0.560	0.240	239.16	-0.90	0.70	 	 	 	 	 	 	 	 	 	 	 	 	 	 	 	 	 	 	1581540721	9.82	18.19
12/02/2020 20:52:02	120220	12022020	205202	239.62	12.305228	-56.932807	239.72	-0.090	0.340	0.140	239.62	-1.10	0.60	1014.70	26.50	26.60	20.60	20.70	174.0	70.0	70.0	391.0	28.1	224.00	5.10	82.00	9.30	10803	9131.0	27.5	27.5	1581540722	9.47	17.54
12/02/2020 20:52:03	120220	12022020	205203	239.89	12.305207	-56.932843	239.98	0.060	0.080	0.240	239.89	-1.40	0.70	 	 	 	 	 	 	 	 	 	 	 	 	 	 	 	 	 	 	1581540723	9.14	16.93
12/02/2020 20:52:04	120220	12022020	205204	239.83	12.305187	-56.932882	239.89	0.260	-0.420	0.570	239.83	-1.90	1.00	 	 	 	 	 	 	 	 	 	 	 	 	 	 	 	 	 	 	1581540724	9.24	17.11
12/02/2020 20:52:05	120220	12022020	205205	239.48	12.305167	-56.932922	239.52	0.400	-0.970	0.960	239.48	-2.40	1.40	 	 	 	 	 	 	 	 	 	 	 	 	 	 	 	 	 	 	1581540725	9.42	17.45
12/02/2020 20:52:06	120220	12022020	205206	239.09	12.305147	-56.932962	239.14	0.420	-1.240	1.130	239.09	-2.70	1.60	 	 	 	 	 	 	 	 	 	 	 	 	 	 	 	 	 	 	1581540726	9.31	17.24
12/02/2020 20:52:07	120220	12022020	205207	238.87	12.305127	-56.932998	238.94	0.340	-1.130	0.930	238.87	-2.50	1.40	 	 	 	 	 	 	 	 	 	 	 	 	 	 	 	 	 	 	1581540727	9.02	16.71
12/02/2020 20:52:08	120220	12022020	205208	238.82	12.305105	-56.933035	238.90	0.220	-0.910	0.550	238.82	-2.30	1.00	 	 	 	 	 	 	 	 	 	 	 	 	 	 	 	 	 	 	1581540728	8.96	16.59
12/02/2020 20:52:09	120220	12022020	205209	238.95	12.305083	-56.933073	239.04	0.080	-0.780	0.250	238.95	-2.20	0.70	 	 	 	 	 	 	 	 	 	 	 	 	 	 	 	 	 	 	1581540729	9.27	17.17
12/02/2020 20:52:10	120220	12022020	205210	239.06	12.305062	-56.933112	239.14	-0.060	-0.700	0.190	239.06	-2.10	0.60	 	 	 	 	 	 	 	 	 	 	 	 	 	 	 	 	 	 	1581540730	9.59	17.76
12/02/2020 20:52:11	120220	12022020	205211	238.88	12.305040	-56.933153	238.94	-0.180	-0.540	0.510	238.88	-2.00	1.00	 	 	 	 	 	 	 	 	 	 	 	 	 	 	 	 	 	 	1581540731	9.81	18.17
12/02/2020 20:52:12	120220	12022020	205212	238.56	12.305020	-56.933195	238.62	-0.330	-0.120	0.930	238.56	-1.50	1.40	 	 	 	 	 	 	 	 	 	 	 	 	 	 	 	 	 	 	1581540732	9.78	18.11
12/02/2020 20:52:13	120220	12022020	205213	238.38	12.305000	-56.933235	238.43	-0.540	0.560	1.190	238.36	-0.80	1.60	 	 	 	 	 	 	 	 	 	 	 	 	 	 	 	 	 	 	1581540733	9.45	17.50
12/02/2020 20:52:14	120220	12022020	205214	238.37	12.304982	-56.933273	238.45	-0.690	1.100	1.170	238.37	-0.30	1.60	 	 	 	 	 	 	 	 	 	 	 	 	 	 	 	 	 	 	1581540734	9.19	17.02
12/02/2020 20:52:15	120220	12022020	205215	238.59	12.304960	-56.933313	238.66	-0.590	1.100	0.990	238.59	-0.40	1.40	 	 	 	 	 	 	 	 	 	 	 	 	 	 	 	 	 	 	1581540735	9.31	17.24
12/02/2020 20:52:16	120220	12022020	205216	238.89	12.304940	-56.933353	238.97	-0.110	0.530	0.800	238.89	-0.90	1.20	 	 	 	 	 	 	 	 	 	 	 	 	 	 	 	 	 	 	1581540736	9.61	17.80
12/02/2020 20:52:17	120220	12022020	205217	239.10	12.304918	-56.933393	239.16	0.500	-0.240	0.570	239.10	-1.70	1.00	 	 	 	 	 	 	 	 	 	 	 	 	 	 	 	 	 	 	1581540737	9.69	17.95
12/02/2020 20:52:18	120220	12022020	205218	239.13	12.304895	-56.933432	239.16	0.910	-0.810	0.340	239.13	-2.30	0.80	 	 	 	 	 	 	 	 	 	 	 	 	 	 	 	 	 	 	1581540738	9.42	17.45
12/02/2020 20:52:19	120220	12022020	205219	238.95	12.304873	-56.933468	238.98	0.930	-1.160	0.350	238.95	-2.60	0.80	 	 	 	 	 	 	 	 	 	 	 	 	 	 	 	 	 	 	1581540739	9.13	16.91
12/02/2020 20:52:20	120220	12022020	205220	238.59	12.304852	-56.933505	238.63	0.600	-1.380	0.680	238.59	-2.80	1.10	 	 	 	 	 	 	 	 	 	 	 	 	 	 	 	 	 	 	1581540740	9.14	16.93
12/02/2020 20:52:21	120220	12022020	205221	238.17	12.304832	-56.933545	238.23	0.100	-1.410	1.110	238.17	-2.80	1.60	 	 	 	 	 	 	 	 	 	 	 	 	 	 	 	 	 	 	1581540741	9.35	17.32
12/02/2020 20:52:22	120220	12022020	205222	237.91	12.304813	-56.933585	237.99	-0.370	-1.090	1.340	237.91	-2.50	1.80	 	 	 	 	 	 	 	 	 	 	 	 	 	 	 	 	 	 	1581540742	9.41	17.43
12/02/2020 20:52:23	120220	12022020	205223	237.94	12.304795	-56.933625	238.05	-0.660	-0.450	1.260	237.94	-1.80	1.70	 	 	 	 	 	 	 	 	 	 	 	 	 	 	 	 	 	 	1581540743	9.31	17.24
12/02/2020 20:52:24	120220	12022020	205224	238.30	12.304775	-56.933663	238.42	-0.690	0.250	1.050	238.30	-1.20	1.50	 	 	 	 	 	 	 	 	 	 	 	 	 	 	 	 	 	 	1581540744	9.20	17.04
12/02/2020 20:52:25	120220	12022020	205225	238.62	12.304753	-56.933702	238.76	-0.460	0.590	0.950	238.67	-0.80	1.40	 	 	 	 	 	 	 	 	 	 	 	 	 	 	 	 	 	 	1581540745	9.36	17.33
12/02/2020 20:52:26	120220	12022020	205226	238.90	12.304732	-56.933742	238.97	-0.090	0.460	0.940	238.90	-1.00	1.40	 	 	 	 	 	 	 	 	 	 	 	 	 	 	 	 	 	 	1581540746	9.76	18.08
12/02/2020 20:52:27	120220	12022020	205227	239.09	12.304708	-56.933783	239.16	0.210	0.120	0.910	239.09	-1.30	1.40	 	 	 	 	 	 	 	 	 	 	 	 	 	 	 	 	 	 	1581540747	9.92	18.37
12/02/2020 20:52:28	120220	12022020	205228	239.23	12.304687	-56.933823	239.28	0.290	-0.170	0.840	239.23	-1.60	1.30	 	 	 	 	 	 	 	 	 	 	 	 	 	 	 	 	 	 	1581540748	9.74	18.04
12/02/2020 20:52:29	120220	12022020	205229	239.23	12.304665	-56.933862	239.28	0.170	-0.320	0.860	239.23	-1.80	1.30	 	 	 	 	 	 	 	 	 	 	 	 	 	 	 	 	 	 	1581540749	9.48	17.56
12/02/2020 20:52:30	120220	12022020	205230	239.05	12.304645	-56.933900	239.10	0.050	-0.310	0.950	239.05	-1.70	1.40	 	 	 	 	 	 	 	 	 	 	 	 	 	 	 	 	 	 	1581540750	9.27	17.17
12/02/2020 20:52:31	120220	12022020	205231	238.72	12.304623	-56.933938	238.76	0.050	-0.270	1.060	238.72	-1.70	1.50	 	 	 	 	 	 	 	 	 	 	 	 	 	 	 	 	 	 	1581540751	9.14	16.93
12/02/2020 20:52:32	120220	12022020	205232	238.20	12.304603	-56.933978	238.24	0.110	-0.470	1.260	238.20	-1.90	1.70	 	 	 	 	 	 	 	 	 	 	 	 	 	 	 	 	 	 	1581540752	9.35	17.32
12/02/2020 20:52:33	120220	12022020	205233	237.69	12.304582	-56.934018	237.75	0.080	-0.770	1.370	237.69	-2.20	1.80	 	 	 	 	 	 	 	 	 	 	 	 	 	 	 	 	 	 	1581540753	9.71	17.98
12/02/2020 20:52:34	120220	12022020	205234	237.50	12.304562	-56.934058	237.60	-0.070	-0.640	1.330	237.50	-2.00	1.80	 	 	 	 	 	 	 	 	 	 	 	 	 	 	 	 	 	 	1581540754	9.53	17.65
12/02/2020 20:52:35	120220	12022020	205235	237.68	12.304543	-56.934097	237.78	-0.220	-0.130	1.150	237.68	-1.50	1.60	 	 	 	 	 	 	 	 	 	 	 	 	 	 	 	 	 	 	1581540755	9.02	16.71
12/02/2020 20:52:36	120220	12022020	205236	238.11	12.304523	-56.934133	238.23	-0.220	0.210	0.790	238.11	-1.20	1.20	 	 	 	 	 	 	 	 	 	 	 	 	 	 	 	 	 	 	1581540756	8.91	16.50
12/02/2020 20:52:37	120220	12022020	205237	238.56	12.304503	-56.934172	238.80	0.000	0.020	0.410	238.67	-1.40	0.80	 	 	 	 	 	 	 	 	 	 	 	 	 	 	 	 	 	 	1581540757	9.33	17.28
12/02/2020 20:52:38	120220	12022020	205238	239.20	12.304480	-56.934212	239.32	0.290	-0.440	0.130	239.20	-1.90	0.60	 	 	 	 	 	 	 	 	 	 	 	 	 	 	 	 	 	 	1581540758	9.71	17.98
12/02/2020 20:52:39	120220	12022020	205239	239.48	12.304455	-56.934250	239.62	0.420	-0.780	0.060	239.53	-2.20	0.50	 	 	 	 	 	 	 	 	 	 	 	 	 	 	 	 	 	 	1581540759	9.69	17.95
12/02/2020 20:52:40	120220	12022020	205240	239.57	12.304433	-56.934290	239.67	0.300	-0.850	0.230	239.57	-2.30	0.70	 	 	 	 	 	 	 	 	 	 	 	 	 	 	 	 	 	 	1581540760	9.53	17.65
12/02/2020 20:52:41	120220	12022020	205241	239.48	12.304412	-56.934328	239.58	0.020	-0.640	0.590	239.48	-2.00	1.00	 	 	 	 	 	 	 	 	 	 	 	 	 	 	 	 	 	 	1581540761	9.40	17.41
12/02/2020 20:52:42	120220	12022020	205242	239.21	12.304392	-56.934367	239.30	-0.300	-0.240	1.080	239.21	-1.60	1.50	 	 	 	 	 	 	 	 	 	 	 	 	 	 	 	 	 	 	1581540762	9.29	17.21
12/02/2020 20:52:43	120220	12022020	205243	238.75	12.304373	-56.934408	238.80	-0.500	0.040	1.510	238.75	-1.40	2.00	 	 	 	 	 	 	 	 	 	 	 	 	 	 	 	 	 	 	1581540763	9.37	17.35
12/02/2020 20:52:44	120220	12022020	205244	238.20	12.304355	-56.934448	238.24	-0.470	0.030	1.680	238.20	-1.40	2.10	 	 	 	 	 	 	 	 	 	 	 	 	 	 	 	 	 	 	1581540764	9.64	17.85
12/02/2020 20:52:45	120220	12022020	205245	237.70	12.304333	-56.934490	237.74	-0.220	-0.200	1.520	237.70	-1.60	1.90	 	 	 	 	 	 	 	 	 	 	 	 	 	 	 	 	 	 	1581540765	9.81	18.17
12/02/2020 20:52:46	120220	12022020	205246	237.28	12.304310	-56.934530	237.34	0.050	-0.490	1.280	237.28	-1.90	1.70	 	 	 	 	 	 	 	 	 	 	 	 	 	 	 	 	 	 	1581540766	9.88	18.30
12/02/2020 20:52:47	120220	12022020	205247	237.11	12.304287	-56.934570	237.20	0.100	-0.590	1.010	237.11	-2.00	1.40	 	 	 	 	 	 	 	 	 	 	 	 	 	 	 	 	 	 	1581540767	9.77	18.09
12/02/2020 20:52:48	120220	12022020	205248	237.39	12.304265	-56.934608	237.54	-0.100	-0.290	0.670	237.39	-1.70	1.10	 	 	 	 	 	 	 	 	 	 	 	 	 	 	 	 	 	 	1581540768	9.36	17.33
12/02/2020 20:52:49	120220	12022020	205249	238.16	12.304245	-56.934645	238.33	-0.300	0.220	0.280	238.16	-1.20	0.70	 	 	 	 	 	 	 	 	 	 	 	 	 	 	 	 	 	 	1581540769	8.94	16.56
12/02/2020 20:52:50	120220	12022020	205250	239.05	12.304225	-56.934682	239.21	-0.250	0.510	0.030	239.05	-0.90	0.40	 	 	 	 	 	 	 	 	 	 	 	 	 	 	 	 	 	 	1581540770	8.90	16.48
12/02/2020 20:52:51	120220	12022020	205251	239.75	12.304205	-56.934720	239.88	0.050	0.320	-0.040	239.75	-1.10	0.40	 	 	 	 	 	 	 	 	 	 	 	 	 	 	 	 	 	 	1581540771	9.25	17.13
12/02/2020 20:52:52	120220	12022020	205252	240.12	12.304182	-56.934760	240.22	0.410	-0.260	-0.010	240.12	-1.70	0.40	 	 	 	 	 	 	 	 	 	 	 	 	 	 	 	 	 	 	1581540772	9.63	17.83
12/02/2020 20:52:53	120220	12022020	205253	240.04	12.304158	-56.934800	240.10	0.630	-0.930	0.290	240.04	-2.40	0.70	 	 	 	 	 	 	 	 	 	 	 	 	 	 	 	 	 	 	1581540773	9.80	18.15
12/02/2020 20:52:54	120220	12022020	205254	239.49	12.304135	-56.934840	239.52	0.590	-1.360	0.920	239.49	-2.80	1.40	 	 	 	 	 	 	 	 	 	 	 	 	 	 	 	 	 	 	1581540774	9.75	18.06
12/02/2020 20:52:55	120220	12022020	205255	238.66	12.304115	-56.934880	238.68	0.300	-1.310	1.650	238.66	-2.70	2.10	 	 	 	 	 	 	 	 	 	 	 	 	 	 	 	 	 	 	1581540775	9.57	17.72
12/02/2020 20:52:56	120220	12022020	205256	237.87	12.304098	-56.934920	237.90	-0.100	-0.820	2.140	237.87	-2.20	2.60	 	 	 	 	 	 	 	 	 	 	 	 	 	 	 	 	 	 	1581540776	9.39	17.39
12/02/2020 20:52:57	120220	12022020	205257	237.35	12.304082	-56.934962	237.42	-0.400	-0.110	2.230	237.35	-1.50	2.70	 	 	 	 	 	 	 	 	 	 	 	 	 	 	 	 	 	 	1581540777	9.27	17.17
12/02/2020 20:52:58	120220	12022020	205258	237.31	12.304062	-56.935000	237.44	-0.480	0.500	1.770	237.31	-0.90	2.20	 	 	 	 	 	 	 	 	 	 	 	 	 	 	 	 	 	 	1581540778	9.23	17.09
12/02/2020 20:52:59	120220	12022020	205259	237.71	12.304040	-56.935038	237.85	-0.380	0.720	1.060	237.71	-0.70	1.50	 	 	 	 	 	 	 	 	 	 	 	 	 	 	 	 	 	 	1581540779	9.33	17.28
12/02/2020 20:53:00	120220	12022020	205300	238.32	12.304017	-56.935077	238.47	-0.200	0.400	0.580	238.32	-1.00	1.00	 	 	 	 	 	 	 	 	 	 	 	 	 	 	 	 	 	 	1581540780	9.62	17.82
12/02/2020 20:53:01	120220	12022020	205301	238.81	12.303993	-56.935117	239.05	-0.010	-0.220	0.530	238.92	-1.70	1.00	 	 	 	 	 	 	 	 	 	 	 	 	 	 	 	 	 	 	1581540781	9.85	18.24
12/02/2020 20:53:02	120220	12022020	205302	239.35	12.303972	-56.935158	239.48	0.180	-0.790	0.710	239.35	-2.20	1.20	1014.70	26.50	26.50	20.30	20.40	172.0	68.0	69.0	391.0	28.1	227.00	5.70	84.00	9.70	10488	9503.0	27.5	27.5	1581540782	9.81	18.17
12/02/2020 20:53:03	120220	12022020	205303	239.56	12.303952	-56.935198	239.73	0.310	-1.060	0.950	239.60	-2.50	1.40	 	 	 	 	 	 	 	 	 	 	 	 	 	 	 	 	 	 	1581540783	9.59	17.76
12/02/2020 20:53:04	120220	12022020	205304	239.78	12.303932	-56.935237	239.89	0.280	-0.920	1.040	239.78	-2.30	1.50	 	 	 	 	 	 	 	 	 	 	 	 	 	 	 	 	 	 	1581540784	9.27	17.17
12/02/2020 20:53:05	120220	12022020	205305	239.85	12.303912	-56.935275	239.94	0.090	-0.580	0.980	239.85	-2.00	1.40	 	 	 	 	 	 	 	 	 	 	 	 	 	 	 	 	 	 	1581540785	9.09	16.83
12/02/2020 20:53:06	120220	12022020	205306	239.70	12.303892	-56.935313	239.76	-0.130	-0.280	0.940	239.70	-1.70	1.40	 	 	 	 	 	 	 	 	 	 	 	 	 	 	 	 	 	 	1581540786	9.28	17.19
12/02/2020 20:53:07	120220	12022020	205307	239.42	12.303870	-56.935353	239.47	-0.270	0.040	0.840	239.42	-1.40	1.30	 	 	 	 	 	 	 	 	 	 	 	 	 	 	 	 	 	 	1581540787	9.42	17.45
12/02/2020 20:53:08	120220	12022020	205308	239.19	12.303848	-56.935390	239.25	-0.290	0.350	0.540	239.19	-1.10	1.00	 	 	 	 	 	 	 	 	 	 	 	 	 	 	 	 	 	 	1581540788	9.37	17.35
12/02/2020 20:53:09	120220	12022020	205309	239.07	12.303825	-56.935428	239.13	-0.160	0.350	0.200	239.07	-1.10	0.60	 	 	 	 	 	 	 	 	 	 	 	 	 	 	 	 	 	 	1581540789	9.48	17.56
12/02/2020 20:53:10	120220	12022020	205310	238.92	12.303802	-56.935468	238.97	0.030	-0.080	0.250	238.92	-1.50	0.70	 	 	 	 	 	 	 	 	 	 	 	 	 	 	 	 	 	 	1581540790	9.77	18.09
12/02/2020 20:53:11	120220	12022020	205311	238.66	12.303780	-56.935512	238.73	0.130	-0.640	0.810	238.66	-2.10	1.30	 	 	 	 	 	 	 	 	 	 	 	 	 	 	 	 	 	 	1581540791	10.00	18.52
12/02/2020 20:53:12	120220	12022020	205312	238.47	12.303763	-56.935553	238.57	0.060	-0.810	1.520	238.47	-2.20	2.00	 	 	 	 	 	 	 	 	 	 	 	 	 	 	 	 	 	 	1581540792	9.80	18.15
12/02/2020 20:53:13	120220	12022020	205313	238.48	12.303747	-56.935593	238.62	-0.050	-0.420	1.890	238.48	-1.80	2.30	 	 	 	 	 	 	 	 	 	 	 	 	 	 	 	 	 	 	1581540793	9.20	17.04
12/02/2020 20:53:14	120220	12022020	205314	238.75	12.303730	-56.935632	238.92	-0.030	0.060	1.740	238.75	-1.30	2.20	 	 	 	 	 	 	 	 	 	 	 	 	 	 	 	 	 	 	1581540794	8.78	16.26
12/02/2020 20:53:15	120220	12022020	205315	239.10	12.303712	-56.935670	239.35	0.170	0.030	1.250	239.19	-1.40	1.70	 	 	 	 	 	 	 	 	 	 	 	 	 	 	 	 	 	 	1581540795	9.02	16.71
12/02/2020 20:53:16	120220	12022020	205316	239.54	12.303688	-56.935710	239.66	0.390	-0.520	0.740	239.54	-2.00	1.20	 	 	 	 	 	 	 	 	 	 	 	 	 	 	 	 	 	 	1581540796	9.68	17.93
12/02/2020 20:53:17	120220	12022020	205317	239.73	12.303665	-56.935750	239.83	0.410	-1.020	0.330	239.73	-2.40	0.80	 	 	 	 	 	 	 	 	 	 	 	 	 	 	 	 	 	 	1581540797	9.97	18.46
12/02/2020 20:53:18	120220	12022020	205318	239.72	12.303642	-56.935790	239.80	0.230	-1.010	0.240	239.72	-2.40	0.70	 	 	 	 	 	 	 	 	 	 	 	 	 	 	 	 	 	 	1581540798	9.70	17.96
12/02/2020 20:53:19	120220	12022020	205319	239.44	12.303620	-56.935828	239.51	-0.040	-0.490	0.500	239.44	-1.90	1.00	 	 	 	 	 	 	 	 	 	 	 	 	 	 	 	 	 	 	1581540799	9.30	17.22
12/02/2020 20:53:20	120220	12022020	205320	239.04	12.303600	-56.935867	239.11	-0.300	0.140	0.820	239.04	-1.30	1.30	 	 	 	 	 	 	 	 	 	 	 	 	 	 	 	 	 	 	1581540800	9.14	16.93
12/02/2020 20:53:21	120220	12022020	205321	238.72	12.303580	-56.935905	238.81	-0.470	0.420	0.990	238.72	-1.00	1.40	 	 	 	 	 	 	 	 	 	 	 	 	 	 	 	 	 	 	1581540801	9.37	17.35
12/02/2020 20:53:22	120220	12022020	205322	238.56	12.303560	-56.935947	238.65	-0.460	0.250	1.010	238.56	-1.20	1.50	 	 	 	 	 	 	 	 	 	 	 	 	 	 	 	 	 	 	1581540802	9.75	18.06
12/02/2020 20:53:23	120220	12022020	205323	238.49	12.303538	-56.935988	238.58	-0.280	-0.140	0.960	238.49	-1.60	1.40	 	 	 	 	 	 	 	 	 	 	 	 	 	 	 	 	 	 	1581540803	9.92	18.37
12/02/2020 20:53:24	120220	12022020	205324	238.49	12.303518	-56.936030	238.60	-0.040	-0.430	0.940	238.49	-1.90	1.40	 	 	 	 	 	 	 	 	 	 	 	 	 	 	 	 	 	 	1581540804	9.80	18.15
12/02/2020 20:53:25	120220	12022020	205325	238.55	12.303498	-56.936068	238.66	0.110	-0.420	0.910	238.55	-1.80	1.40	 	 	 	 	 	 	 	 	 	 	 	 	 	 	 	 	 	 	1581540805	9.42	17.45
12/02/2020 20:53:26	120220	12022020	205326	238.69	12.303478	-56.936107	238.81	0.150	-0.270	0.830	238.69	-1.70	1.30	 	 	 	 	 	 	 	 	 	 	 	 	 	 	 	 	 	 	1581540806	9.09	16.83
12/02/2020 20:53:27	120220	12022020	205327	238.88	12.303458	-56.936145	239.04	0.190	-0.260	0.670	238.93	-1.70	1.10	 	 	 	 	 	 	 	 	 	 	 	 	 	 	 	 	 	 	1581540807	9.11	16.87
12/02/2020 20:53:28	120220	12022020	205328	239.08	12.303437	-56.936183	239.17	0.310	-0.510	0.590	239.08	-1.90	1.00	 	 	 	 	 	 	 	 	 	 	 	 	 	 	 	 	 	 	1581540808	9.45	17.50
12/02/2020 20:53:29	120220	12022020	205329	239.10	12.303417	-56.936225	239.18	0.420	-0.730	0.640	239.09	-2.20	1.10	 	 	 	 	 	 	 	 	 	 	 	 	 	 	 	 	 	 	1581540809	9.67	17.91
12/02/2020 20:53:30	120220	12022020	205330	239.00	12.303395	-56.936265	239.08	0.370	-0.710	0.760	239.00	-2.10	1.20	 	 	 	 	 	 	 	 	 	 	 	 	 	 	 	 	 	 	1581540810	9.58	17.74
12/02/2020 20:53:31	120220	12022020	205331	238.77	12.303375	-56.936305	238.83	0.150	-0.530	1.010	238.77	-1.90	1.50	 	 	 	 	 	 	 	 	 	 	 	 	 	 	 	 	 	 	1581540811	9.53	17.65
12/02/2020 20:53:32	120220	12022020	205332	238.45	12.303353	-56.936345	238.52	-0.170	-0.280	1.300	238.45	-1.70	1.80	 	 	 	 	 	 	 	 	 	 	 	 	 	 	 	 	 	 	1581540812	9.61	17.80
12/02/2020 20:53:33	120220	12022020	205333	238.24	12.303333	-56.936385	238.33	-0.460	0.100	1.440	238.24	-1.30	1.90	 	 	 	 	 	 	 	 	 	 	 	 	 	 	 	 	 	 	1581540813	9.55	17.69
12/02/2020 20:53:34	120220	12022020	205334	238.16	12.303315	-56.936425	238.27	-0.570	0.510	1.480	238.16	-0.90	1.90	 	 	 	 	 	 	 	 	 	 	 	 	 	 	 	 	 	 	1581540814	9.32	17.26
12/02/2020 20:53:35	120220	12022020	205335	238.15	12.303295	-56.936463	238.26	-0.400	0.610	1.450	238.15	-0.80	1.90	 	 	 	 	 	 	 	 	 	 	 	 	 	 	 	 	 	 	1581540815	9.29	17.21
12/02/2020 20:53:36	120220	12022020	205336	238.18	12.303273	-56.936503	238.29	-0.030	0.210	1.200	238.18	-1.20	1.60	 	 	 	 	 	 	 	 	 	 	 	 	 	 	 	 	 	 	1581540816	9.50	17.59
12/02/2020 20:53:37	120220	12022020	205337	238.21	12.303250	-56.936543	238.31	0.350	-0.570	0.820	238.21	-2.00	1.30	 	 	 	 	 	 	 	 	 	 	 	 	 	 	 	 	 	 	1581540817	9.77	18.09
12/02/2020 20:53:38	120220	12022020	205338	238.20	12.303227	-56.936583	238.30	0.610	-1.330	0.420	238.20	-2.80	0.90	 	 	 	 	 	 	 	 	 	 	 	 	 	 	 	 	 	 	1581540818	9.90	18.33
12/02/2020 20:53:39	120220	12022020	205339	238.22	12.303203	-56.936622	238.32	0.620	-1.540	0.130	238.22	-2.90	0.60	 	 	 	 	 	 	 	 	 	 	 	 	 	 	 	 	 	 	1581540819	9.67	17.91
12/02/2020 20:53:40	120220	12022020	205340	238.28	12.303180	-56.936658	238.39	0.320	-1.080	0.190	238.28	-2.50	0.70	 	 	 	 	 	 	 	 	 	 	 	 	 	 	 	 	 	 	1581540820	9.25	17.13
12/02/2020 20:53:41	120220	12022020	205341	238.34	12.303162	-56.936697	238.46	-0.160	-0.250	0.610	238.34	-1.60	1.10	 	 	 	 	 	 	 	 	 	 	 	 	 	 	 	 	 	 	1581540821	9.00	16.67
12/02/2020 20:53:42	120220	12022020	205342	238.37	12.303145	-56.936737	238.48	-0.510	0.430	1.150	238.37	-1.00	1.60	 	 	 	 	 	 	 	 	 	 	 	 	 	 	 	 	 	 	1581540822	9.12	16.89
12/02/2020 20:53:43	120220	12022020	205343	238.33	12.303127	-56.936778	238.44	-0.530	0.540	1.450	238.33	-0.90	1.90	 	 	 	 	 	 	 	 	 	 	 	 	 	 	 	 	 	 	1581540823	9.59	17.76
12/02/2020 20:53:44	120220	12022020	205344	238.28	12.303107	-56.936820	238.41	-0.320	0.230	1.330	238.28	-1.20	1.80	 	 	 	 	 	 	 	 	 	 	 	 	 	 	 	 	 	 	1581540824	10.05	18.61
12/02/2020 20:53:45	120220	12022020	205345	238.38	12.303083	-56.936862	238.51	-0.110	-0.070	0.920	238.38	-1.50	1.40	 	 	 	 	 	 	 	 	 	 	 	 	 	 	 	 	 	 	1581540825	9.97	18.46
12/02/2020 20:53:46	120220	12022020	205346	238.53	12.303060	-56.936900	238.65	0.020	-0.140	0.530	238.53	-1.60	1.00	 	 	 	 	 	 	 	 	 	 	 	 	 	 	 	 	 	 	1581540826	9.53	17.65
12/02/2020 20:53:47	120220	12022020	205347	238.52	12.303037	-56.936937	238.62	0.120	-0.190	0.340	238.52	-1.60	0.80	 	 	 	 	 	 	 	 	 	 	 	 	 	 	 	 	 	 	1581540827	9.26	17.15
12/02/2020 20:53:48	120220	12022020	205348	238.28	12.303013	-56.936975	238.37	0.190	-0.360	0.480	238.28	-1.80	1.00	 	 	 	 	 	 	 	 	 	 	 	 	 	 	 	 	 	 	1581540828	9.32	17.26
12/02/2020 20:53:49	120220	12022020	205349	237.97	12.302993	-56.937013	238.06	0.180	-0.550	0.850	237.97	-2.00	1.30	 	 	 	 	 	 	 	 	 	 	 	 	 	 	 	 	 	 	1581540829	9.44	17.48
12/02/2020 20:53:50	120220	12022020	205350	237.75	12.302973	-56.937053	237.85	0.090	-0.670	1.240	237.75	-2.10	1.70	 	 	 	 	 	 	 	 	 	 	 	 	 	 	 	 	 	 	1581540830	9.48	17.56
12/02/2020 20:53:51	120220	12022020	205351	237.66	12.302953	-56.937095	237.75	-0.020	-0.720	1.560	237.66	-2.10	2.00	 	 	 	 	 	 	 	 	 	 	 	 	 	 	 	 	 	 	1581540831	9.53	17.65
12/02/2020 20:53:52	120220	12022020	205352	237.75	12.302935	-56.937135	237.86	-0.070	-0.670	1.550	237.75	-2.10	2.00	 	 	 	 	 	 	 	 	 	 	 	 	 	 	 	 	 	 	1581540832	9.53	17.65
12/02/2020 20:53:53	120220	12022020	205353	237.97	12.302915	-56.937175	238.08	-0.050	-0.640	1.270	237.97	-2.00	1.70	 	 	 	 	 	 	 	 	 	 	 	 	 	 	 	 	 	 	1581540833	9.58	17.74
12/02/2020 20:53:54	120220	12022020	205354	238.24	12.302892	-56.937215	238.35	-0.010	-0.590	0.970	238.24	-2.00	1.40	 	 	 	 	 	 	 	 	 	 	 	 	 	 	 	 	 	 	1581540834	9.70	17.96
12/02/2020 20:53:55	120220	12022020	205355	238.48	12.302870	-56.937255	238.59	-0.060	-0.350	0.810	238.48	-1.70	1.30	 	 	 	 	 	 	 	 	 	 	 	 	 	 	 	 	 	 	1581540835	9.68	17.93
12/02/2020 20:53:56	120220	12022020	205356	238.62	12.302848	-56.937293	238.72	-0.170	0.160	0.740	238.62	-1.20	1.20	 	 	 	 	 	 	 	 	 	 	 	 	 	 	 	 	 	 	1581540836	9.41	17.43
12/02/2020 20:53:57	120220	12022020	205357	238.59	12.302827	-56.937332	238.67	-0.240	0.580	0.650	238.59	-0.80	1.10	 	 	 	 	 	 	 	 	 	 	 	 	 	 	 	 	 	 	1581540837	9.24	17.11
12/02/2020 20:53:58	120220	12022020	205358	238.39	12.302803	-56.937368	238.48	-0.170	0.550	0.550	238.39	-0.90	1.00	 	 	 	 	 	 	 	 	 	 	 	 	 	 	 	 	 	 	1581540838	9.44	17.48
12/02/2020 20:53:59	120220	12022020	205359	238.12	12.302778	-56.937408	238.22	0.010	0.080	0.600	238.12	-1.40	1.10	 	 	 	 	 	 	 	 	 	 	 	 	 	 	 	 	 	 	1581540839	9.79	18.13
12/02/2020 20:54:00	120220	12022020	205400	237.78	12.302755	-56.937448	237.87	0.170	-0.500	0.940	237.78	-1.90	1.40	 	 	 	 	 	 	 	 	 	 	 	 	 	 	 	 	 	 	1581540840	9.95	18.43
12/02/2020 20:54:01	120220	12022020	205401	237.43	12.302735	-56.937490	237.52	0.180	-0.740	1.420	237.43	-2.10	1.90	 	 	 	 	 	 	 	 	 	 	 	 	 	 	 	 	 	 	1581540841	9.76	18.08
12/02/2020 20:54:02	120220	12022020	205402	237.24	12.302718	-56.937530	237.34	0.130	-0.480	1.700	237.24	-1.90	2.20	1014.70	26.50	26.50	19.90	20.00	168.0	67.0	67.0	390.0	28.1	226.00	5.80	84.00	9.80	10290	9422.0	27.5	27.5	1581540842	9.24	17.11
12/02/2020 20:54:03	120220	12022020	205403	237.34	12.302700	-56.937568	237.47	0.130	-0.230	1.550	237.34	-1.70	2.00	 	 	 	 	 	 	 	 	 	 	 	 	 	 	 	 	 	 	1581540843	8.98	16.63
12/02/2020 20:54:04	120220	12022020	205404	237.60	12.302678	-56.937607	237.74	0.210	-0.480	1.210	237.60	-1.90	1.60	 	 	 	 	 	 	 	 	 	 	 	 	 	 	 	 	 	 	1581540844	9.39	17.39
12/02/2020 20:54:05	120220	12022020	205405	237.86	12.302657	-56.937648	238.06	0.260	-0.960	0.820	237.93	-2.40	1.30	 	 	 	 	 	 	 	 	 	 	 	 	 	 	 	 	 	 	1581540845	9.90	18.33
12/02/2020 20:54:06	120220	12022020	205406	238.25	12.302632	-56.937688	238.36	0.200	-1.120	0.550	238.25	-2.50	1.00	 	 	 	 	 	 	 	 	 	 	 	 	 	 	 	 	 	 	1581540846	9.89	18.32
12/02/2020 20:54:07	120220	12022020	205407	238.45	12.302610	-56.937727	238.55	0.050	-0.750	0.540	238.45	-2.10	1.00	 	 	 	 	 	 	 	 	 	 	 	 	 	 	 	 	 	 	1581540847	9.50	17.59
12/02/2020 20:54:08	120220	12022020	205408	238.41	12.302588	-56.937765	238.51	-0.140	-0.160	0.730	238.41	-1.60	1.20	 	 	 	 	 	 	 	 	 	 	 	 	 	 	 	 	 	 	1581540848	9.28	17.19
12/02/2020 20:54:09	120220	12022020	205409	238.23	12.302567	-56.937803	238.34	-0.310	0.260	0.900	238.23	-1.20	1.40	 	 	 	 	 	 	 	 	 	 	 	 	 	 	 	 	 	 	1581540849	9.43	17.46
12/02/2020 20:54:10	120220	12022020	205410	238.04	12.302543	-56.937843	238.16	-0.380	0.400	0.940	238.04	-1.00	1.40	 	 	 	 	 	 	 	 	 	 	 	 	 	 	 	 	 	 	1581540850	9.68	17.93
12/02/2020 20:54:11	120220	12022020	205411	237.94	12.302520	-56.937883	238.08	-0.360	0.340	0.890	237.94	-1.10	1.40	 	 	 	 	 	 	 	 	 	 	 	 	 	 	 	 	 	 	1581540851	9.84	18.22
12/02/2020 20:54:12	120220	12022020	205412	237.94	12.302498	-56.937923	238.08	-0.320	0.250	0.890	237.94	-1.20	1.40	 	 	 	 	 	 	 	 	 	 	 	 	 	 	 	 	 	 	1581540852	9.72	18.00
12/02/2020 20:54:13	120220	12022020	205413	237.99	12.302477	-56.937963	238.15	-0.240	0.130	0.880	237.99	-1.30	1.30	 	 	 	 	 	 	 	 	 	 	 	 	 	 	 	 	 	 	1581540853	9.51	17.61
12/02/2020 20:54:14	120220	12022020	205414	238.26	12.302457	-56.938002	238.44	-0.020	-0.140	0.690	238.26	-1.60	1.10	 	 	 	 	 	 	 	 	 	 	 	 	 	 	 	 	 	 	1581540854	9.41	17.43
12/02/2020 20:54:15	120220	12022020	205415	238.65	12.302435	-56.938042	238.79	0.330	-0.720	0.510	238.65	-2.20	0.90	 	 	 	 	 	 	 	 	 	 	 	 	 	 	 	 	 	 	1581540855	9.57	17.72
12/02/2020 20:54:16	120220	12022020	205416	238.78	12.302413	-56.938083	238.88	0.660	-1.370	0.540	238.78	-2.80	1.00	 	 	 	 	 	 	 	 	 	 	 	 	 	 	 	 	 	 	1581540856	9.89	18.32
12/02/2020 20:54:17	120220	12022020	205417	238.61	12.302392	-56.938125	238.64	0.700	-1.510	0.750	238.55	-2.90	1.20	 	 	 	 	 	 	 	 	 	 	 	 	 	 	 	 	 	 	1581540857	9.83	18.21
12/02/2020 20:54:18	120220	12022020	205418	238.31	12.302372	-56.938163	238.40	0.320	-0.890	0.860	238.31	-2.30	1.30	 	 	 	 	 	 	 	 	 	 	 	 	 	 	 	 	 	 	1581540858	9.30	17.22
12/02/2020 20:54:19	120220	12022020	205419	238.23	12.302352	-56.938200	238.31	-0.260	-0.020	0.810	238.21	-1.40	1.30	 	 	 	 	 	 	 	 	 	 	 	 	 	 	 	 	 	 	1581540859	8.97	16.61
12/02/2020 20:54:20	120220	12022020	205420	238.16	12.302332	-56.938238	238.26	-0.640	0.450	0.710	238.16	-1.00	1.20	 	 	 	 	 	 	 	 	 	 	 	 	 	 	 	 	 	 	1581540860	9.30	17.22
12/02/2020 20:54:21	120220	12022020	205421	238.17	12.302310	-56.938280	238.29	-0.640	0.460	0.560	238.17	-1.00	1.00	 	 	 	 	 	 	 	 	 	 	 	 	 	 	 	 	 	 	1581540861	9.86	18.26
12/02/2020 20:54:22	120220	12022020	205422	238.30	12.302287	-56.938322	238.42	-0.410	0.310	0.370	238.30	-1.10	0.80	 	 	 	 	 	 	 	 	 	 	 	 	 	 	 	 	 	 	1581540862	10.00	18.52
12/02/2020 20:54:23	120220	12022020	205423	238.51	12.302263	-56.938362	238.64	-0.160	0.150	0.140	238.51	-1.30	0.60	 	 	 	 	 	 	 	 	 	 	 	 	 	 	 	 	 	 	1581540863	9.79	18.13
12/02/2020 20:54:24	120220	12022020	205424	238.74	12.302242	-56.938400	238.85	0.030	-0.040	-0.020	238.74	-1.50	0.40	 	 	 	 	 	 	 	 	 	 	 	 	 	 	 	 	 	 	1581540864	9.55	17.69
12/02/2020 20:54:25	120220	12022020	205425	238.89	12.302218	-56.938438	239.01	0.190	-0.400	0.140	238.89	-1.90	0.60	 	 	 	 	 	 	 	 	 	 	 	 	 	 	 	 	 	 	1581540865	9.51	17.61
12/02/2020 20:54:26	120220	12022020	205426	238.86	12.302198	-56.938480	238.94	0.270	-0.870	0.680	238.86	-2.30	1.20	 	 	 	 	 	 	 	 	 	 	 	 	 	 	 	 	 	 	1581540866	9.67	17.91
12/02/2020 20:54:27	120220	12022020	205427	238.59	12.302178	-56.938522	238.65	0.240	-1.110	1.390	238.59	-2.50	1.90	 	 	 	 	 	 	 	 	 	 	 	 	 	 	 	 	 	 	1581540867	9.70	17.96
12/02/2020 20:54:28	120220	12022020	205428	238.11	12.302162	-56.938563	238.17	0.160	-0.900	2.000	238.11	-2.30	2.50	 	 	 	 	 	 	 	 	 	 	 	 	 	 	 	 	 	 	1581540868	9.52	17.63
12/02/2020 20:54:29	120220	12022020	205429	237.59	12.302145	-56.938603	237.66	0.140	-0.410	2.190	237.59	-1.80	2.60	 	 	 	 	 	 	 	 	 	 	 	 	 	 	 	 	 	 	1581540869	9.31	17.24
12/02/2020 20:54:30	120220	12022020	205430	237.26	12.302125	-56.938642	237.36	0.190	0.040	1.890	237.26	-1.40	2.30	 	 	 	 	 	 	 	 	 	 	 	 	 	 	 	 	 	 	1581540870	9.30	17.22
12/02/2020 20:54:31	120220	12022020	205431	237.23	12.302102	-56.938680	237.37	0.180	0.190	1.320	237.23	-1.20	1.80	 	 	 	 	 	 	 	 	 	 	 	 	 	 	 	 	 	 	1581540871	9.53	17.65
12/02/2020 20:54:32	120220	12022020	205432	237.41	12.302077	-56.938718	237.55	0.030	0.060	0.950	237.41	-1.40	1.40	 	 	 	 	 	 	 	 	 	 	 	 	 	 	 	 	 	 	1581540872	9.77	18.09
12/02/2020 20:54:33	120220	12022020	205433	237.65	12.302053	-56.938758	237.81	-0.190	-0.110	0.990	237.65	-1.50	1.50	 	 	 	 	 	 	 	 	 	 	 	 	 	 	 	 	 	 	1581540873	9.79	18.13
12/02/2020 20:54:34	120220	12022020	205434	237.88	12.302033	-56.938800	238.05	-0.360	-0.220	1.200	237.88	-1.60	1.70	 	 	 	 	 	 	 	 	 	 	 	 	 	 	 	 	 	 	1581540874	9.64	17.85
12/02/2020 20:54:35	120220	12022020	205435	238.12	12.302013	-56.938838	238.29	-0.350	-0.260	1.140	238.12	-1.70	1.60	 	 	 	 	 	 	 	 	 	 	 	 	 	 	 	 	 	 	1581540875	9.44	17.48
12/02/2020 20:54:36	120220	12022020	205436	238.39	12.301990	-56.938877	238.53	-0.130	-0.330	0.780	238.39	-1.80	1.20	 	 	 	 	 	 	 	 	 	 	 	 	 	 	 	 	 	 	1581540876	9.35	17.32
12/02/2020 20:54:37	120220	12022020	205437	238.66	12.301967	-56.938915	238.79	0.150	-0.510	0.370	238.66	-1.90	0.80	 	 	 	 	 	 	 	 	 	 	 	 	 	 	 	 	 	 	1581540877	9.45	17.50
12/02/2020 20:54:38	120220	12022020	205438	238.84	12.301943	-56.938953	238.95	0.320	-0.810	0.230	238.84	-2.20	0.70	 	 	 	 	 	 	 	 	 	 	 	 	 	 	 	 	 	 	1581540878	9.61	17.80
12/02/2020 20:54:39	120220	12022020	205439	238.76	12.301920	-56.938993	238.83	0.320	-1.020	0.520	238.76	-2.40	1.00	 	 	 	 	 	 	 	 	 	 	 	 	 	 	 	 	 	 	1581540879	9.80	18.15
12/02/2020 20:54:40	120220	12022020	205440	238.41	12.301898	-56.939033	238.47	0.150	-0.810	1.060	238.41	-2.20	1.60	 	 	 	 	 	 	 	 	 	 	 	 	 	 	 	 	 	 	1581540880	9.68	17.93
12/02/2020 20:54:41	120220	12022020	205441	238.01	12.301880	-56.939073	237.96	-0.130	-0.180	1.660	237.90	-1.60	2.10	 	 	 	 	 	 	 	 	 	 	 	 	 	 	 	 	 	 	1581540881	9.40	17.41
12/02/2020 20:54:42	120220	12022020	205442	237.48	12.301863	-56.939113	237.57	-0.360	0.480	1.980	237.48	-0.90	2.40	 	 	 	 	 	 	 	 	 	 	 	 	 	 	 	 	 	 	1581540882	9.27	17.17
12/02/2020 20:54:43	120220	12022020	205443	237.24	12.301843	-56.939155	237.28	-0.400	0.730	1.950	237.19	-0.70	2.40	 	 	 	 	 	 	 	 	 	 	 	 	 	 	 	 	 	 	1581540883	9.42	17.45
12/02/2020 20:54:44	120220	12022020	205444	237.05	12.301823	-56.939195	237.17	-0.180	0.460	1.620	237.05	-1.00	2.00	 	 	 	 	 	 	 	 	 	 	 	 	 	 	 	 	 	 	1581540884	9.76	18.08
12/02/2020 20:54:45	120220	12022020	205445	237.27	12.301800	-56.939237	237.41	0.160	-0.010	0.850	237.27	-1.40	1.30	 	 	 	 	 	 	 	 	 	 	 	 	 	 	 	 	 	 	1581540885	9.89	18.32
12/02/2020 20:54:46	120220	12022020	205446	237.90	12.301775	-56.939273	238.07	0.390	-0.260	-0.200	237.90	-1.70	0.20	 	 	 	 	 	 	 	 	 	 	 	 	 	 	 	 	 	 	1581540886	9.58	17.74
12/02/2020 20:54:47	120220	12022020	205447	238.66	12.301750	-56.939308	238.81	0.420	-0.350	-0.970	238.66	-1.80	-0.50	 	 	 	 	 	 	 	 	 	 	 	 	 	 	 	 	 	 	1581540887	9.13	16.91
12/02/2020 20:54:48	120220	12022020	205448	239.11	12.301725	-56.939343	239.24	0.330	-0.740	-0.910	239.11	-2.20	-0.40	 	 	 	 	 	 	 	 	 	 	 	 	 	 	 	 	 	 	1581540888	9.20	17.04
12/02/2020 20:54:49	120220	12022020	205449	239.18	12.301703	-56.939383	239.30	0.220	-1.420	-0.110	239.18	-2.90	0.40	 	 	 	 	 	 	 	 	 	 	 	 	 	 	 	 	 	 	1581540889	9.73	18.02
12/02/2020 20:54:50	120220	12022020	205450	239.00	12.301685	-56.939427	239.11	0.070	-1.800	1.000	239.00	-3.20	1.50	 	 	 	 	 	 	 	 	 	 	 	 	 	 	 	 	 	 	1581540890	10.02	18.56
12/02/2020 20:54:51	120220	12022020	205451	238.69	12.301668	-56.939470	238.81	-0.150	-1.410	1.950	238.69	-2.80	2.40	 	 	 	 	 	 	 	 	 	 	 	 	 	 	 	 	 	 	1581540891	9.75	18.06
12/02/2020 20:54:52	120220	12022020	205452	238.40	12.301652	-56.939510	238.54	-0.420	-0.390	2.390	238.40	-1.70	2.80	 	 	 	 	 	 	 	 	 	 	 	 	 	 	 	 	 	 	1581540892	9.25	17.13
12/02/2020 20:54:53	120220	12022020	205453	238.27	12.301632	-56.939548	238.41	-0.590	0.590	2.290	238.25	-0.80	2.70	 	 	 	 	 	 	 	 	 	 	 	 	 	 	 	 	 	 	1581540893	9.08	16.82
12/02/2020 20:54:54	120220	12022020	205454	238.16	12.301610	-56.939587	238.33	-0.520	1.020	1.790	238.16	-0.40	2.20	 	 	 	 	 	 	 	 	 	 	 	 	 	 	 	 	 	 	1581540894	9.40	17.41
12/02/2020 20:54:55	120220	12022020	205455	238.07	12.301585	-56.939627	238.21	-0.230	0.840	1.170	238.04	-0.60	1.60	 	 	 	 	 	 	 	 	 	 	 	 	 	 	 	 	 	 	1581540895	9.87	18.28
12/02/2020 20:54:56	120220	12022020	205456	237.90	12.301560	-56.939667	238.05	0.130	0.350	0.620	237.90	-1.10	1.10	 	 	 	 	 	 	 	 	 	 	 	 	 	 	 	 	 	 	1581540896	10.05	18.61
12/02/2020 20:54:57	120220	12022020	205457	237.82	12.301537	-56.939707	237.97	0.380	-0.140	0.310	237.82	-1.60	0.80	 	 	 	 	 	 	 	 	 	 	 	 	 	 	 	 	 	 	1581540897	9.87	18.28
12/02/2020 20:54:58	120220	12022020	205458	237.82	12.301513	-56.939745	237.96	0.410	-0.510	0.350	237.82	-1.90	0.80	 	 	 	 	 	 	 	 	 	 	 	 	 	 	 	 	 	 	1581540898	9.56	17.71
12/02/2020 20:54:59	120220	12022020	205459	237.80	12.301493	-56.939785	237.93	0.360	-0.780	0.720	237.80	-2.20	1.20	 	 	 	 	 	 	 	 	 	 	 	 	 	 	 	 	 	 	1581540899	9.46	17.52
12/02/2020 20:55:00	120220	12022020	205500	237.78	12.301475	-56.939825	237.91	0.340	-0.790	1.110	237.78	-2.20	1.60	 	 	 	 	 	 	 	 	 	 	 	 	 	 	 	 	 	 	1581540900	9.36	17.33
12/02/2020 20:55:01	120220	12022020	205501	237.88	12.301457	-56.939863	238.03	0.280	-0.580	1.280	237.88	-2.00	1.70	 	 	 	 	 	 	 	 	 	 	 	 	 	 	 	 	 	 	1581540901	9.16	16.96
12/02/2020 20:55:02	120220	12022020	205502	238.20	12.301437	-56.939902	238.36	0.100	-0.360	1.130	238.20	-1.80	1.60	1014.70	26.60	26.60	20.30	20.30	163.0	68.0	68.0	389.0	28.0	225.00	5.10	81.00	9.20	10233	9473.0	27.5	27.5	1581540902	9.16	16.96
12/02/2020 20:55:03	120220	12022020	205503	238.70	12.301415	-56.939940	238.85	-0.140	-0.180	0.760	238.70	-1.60	1.20	 	 	 	 	 	 	 	 	 	 	 	 	 	 	 	 	 	 	1581540903	9.20	17.04
12/02/2020 20:55:04	120220	12022020	205504	239.16	12.301393	-56.939978	239.28	-0.270	-0.140	0.390	239.16	-1.60	0.80	 	 	 	 	 	 	 	 	 	 	 	 	 	 	 	 	 	 	1581540904	9.29	17.21
12/02/2020 20:55:05	120220	12022020	205505	239.38	12.301368	-56.940017	239.45	-0.200	-0.340	0.190	239.38	-1.80	0.60	 	 	 	 	 	 	 	 	 	 	 	 	 	 	 	 	 	 	1581540905	9.57	17.72
12/02/2020 20:55:06	120220	12022020	205506	239.33	12.301345	-56.940055	239.38	-0.040	-0.680	0.230	239.33	-2.10	0.70	 	 	 	 	 	 	 	 	 	 	 	 	 	 	 	 	 	 	1581540906	9.83	18.21
12/02/2020 20:55:07	120220	12022020	205507	239.09	12.301322	-56.940097	239.03	0.030	-1.030	0.550	239.00	-2.50	1.00	 	 	 	 	 	 	 	 	 	 	 	 	 	 	 	 	 	 	1581540907	9.97	18.46
12/02/2020 20:55:08	120220	12022020	205508	238.36	12.301298	-56.940137	238.37	-0.040	-1.130	1.090	238.36	-2.50	1.60	 	 	 	 	 	 	 	 	 	 	 	 	 	 	 	 	 	 	1581540908	10.01	18.54
12/02/2020 20:55:09	120220	12022020	205509	237.73	12.301277	-56.940178	237.62	-0.180	-0.810	1.660	237.58	-2.20	2.10	 	 	 	 	 	 	 	 	 	 	 	 	 	 	 	 	 	 	1581540909	9.83	18.21
12/02/2020 20:55:10	120220	12022020	205510	236.94	12.301258	-56.940220	237.01	-0.260	-0.190	2.030	236.94	-1.60	2.50	 	 	 	 	 	 	 	 	 	 	 	 	 	 	 	 	 	 	1581540910	9.63	17.83
12/02/2020 20:55:11	120220	12022020	205511	236.63	12.301238	-56.940260	236.71	-0.250	0.460	2.000	236.63	-0.90	2.40	 	 	 	 	 	 	 	 	 	 	 	 	 	 	 	 	 	 	1581540911	9.58	17.74
12/02/2020 20:55:12	120220	12022020	205512	236.76	12.301218	-56.940300	236.88	-0.200	0.980	1.550	236.76	-0.40	2.00	 	 	 	 	 	 	 	 	 	 	 	 	 	 	 	 	 	 	1581540912	9.48	17.56
12/02/2020 20:55:13	120220	12022020	205513	237.26	12.301198	-56.940340	237.41	-0.120	1.190	0.890	237.26	-0.20	1.30	 	 	 	 	 	 	 	 	 	 	 	 	 	 	 	 	 	 	1581540913	9.38	17.37
12/02/2020 20:55:14	120220	12022020	205514	238.05	12.301177	-56.940378	238.21	0.030	0.950	0.240	238.05	-0.50	0.70	 	 	 	 	 	 	 	 	 	 	 	 	 	 	 	 	 	 	1581540914	9.41	17.43
12/02/2020 20:55:15	120220	12022020	205515	238.93	12.301153	-56.940417	239.08	0.270	0.260	-0.240	238.93	-1.20	0.20	 	 	 	 	 	 	 	 	 	 	 	 	 	 	 	 	 	 	1581540915	9.53	17.65
12/02/2020 20:55:16	120220	12022020	205516	239.66	12.301130	-56.940455	239.80	0.520	-0.640	-0.390	239.66	-2.10	0.10	 	 	 	 	 	 	 	 	 	 	 	 	 	 	 	 	 	 	1581540916	9.61	17.80
12/02/2020 20:55:17	120220	12022020	205517	239.99	12.301107	-56.940495	240.09	0.630	-1.490	-0.040	239.99	-2.90	0.40	 	 	 	 	 	 	 	 	 	 	 	 	 	 	 	 	 	 	1581540917	9.57	17.72
12/02/2020 20:55:18	120220	12022020	205518	239.82	12.301085	-56.940533	239.86	0.480	-2.040	0.570	239.82	-3.50	1.10	 	 	 	 	 	 	 	 	 	 	 	 	 	 	 	 	 	 	1581540918	9.49	17.58
12/02/2020 20:55:19	120220	12022020	205519	239.28	12.301065	-56.940573	239.31	0.180	-2.120	1.180	239.28	-3.50	1.70	 	 	 	 	 	 	 	 	 	 	 	 	 	 	 	 	 	 	1581540919	9.45	17.50
12/02/2020 20:55:20	120220	12022020	205520	238.70	12.301045	-56.940612	238.74	-0.110	-1.660	1.640	238.70	-3.00	2.10	 	 	 	 	 	 	 	 	 	 	 	 	 	 	 	 	 	 	1581540920	9.41	17.43
12/02/2020 20:55:21	120220	12022020	205521	238.21	12.301025	-56.940652	238.26	-0.310	-0.800	1.850	238.21	-2.20	2.30	 	 	 	 	 	 	 	 	 	 	 	 	 	 	 	 	 	 	1581540921	9.40	17.41
12/02/2020 20:55:22	120220	12022020	205522	237.88	12.301005	-56.940692	237.95	-0.410	0.150	1.820	237.88	-1.20	2.30	 	 	 	 	 	 	 	 	 	 	 	 	 	 	 	 	 	 	1581540922	9.50	17.59
12/02/2020 20:55:23	120220	12022020	205523	237.79	12.300985	-56.940733	237.89	-0.460	0.860	1.600	237.79	-0.50	2.00	 	 	 	 	 	 	 	 	 	 	 	 	 	 	 	 	 	 	1581540923	9.68	17.93
12/02/2020 20:55:24	120220	12022020	205524	237.93	12.300965	-56.940775	238.05	-0.480	1.170	1.300	237.93	-0.30	1.70	 	 	 	 	 	 	 	 	 	 	 	 	 	 	 	 	 	 	1581540924	9.88	18.30
12/02/2020 20:55:25	120220	12022020	205525	238.27	12.300943	-56.940817	238.41	-0.400	1.090	0.950	238.27	-0.30	1.40	 	 	 	 	 	 	 	 	 	 	 	 	 	 	 	 	 	 	1581540925	9.96	18.45
12/02/2020 20:55:26	120220	12022020	205526	238.86	12.300922	-56.940858	239.02	-0.190	0.780	0.480	238.86	-0.70	0.90	 	 	 	 	 	 	 	 	 	 	 	 	 	 	 	 	 	 	1581540926	9.83	18.21
12/02/2020 20:55:27	120220	12022020	205527	239.57	12.300898	-56.940897	239.74	0.080	0.230	0.010	239.57	-1.20	0.40	 	 	 	 	 	 	 	 	 	 	 	 	 	 	 	 	 	 	1581540927	9.63	17.83
12/02/2020 20:55:28	120220	12022020	205528	240.18	12.300877	-56.940937	240.32	0.320	-0.530	-0.170	240.18	-2.00	0.30	 	 	 	 	 	 	 	 	 	 	 	 	 	 	 	 	 	 	1581540928	9.62	17.82
12/02/2020 20:55:29	120220	12022020	205529	240.49	12.300855	-56.940975	240.61	0.410	-1.120	0.060	240.49	-2.60	0.50	 	 	 	 	 	 	 	 	 	 	 	 	 	 	 	 	 	 	1581540929	9.52	17.63
12/02/2020 20:55:30	120220	12022020	205530	240.47	12.300835	-56.941013	240.56	0.320	-1.230	0.500	240.47	-2.70	1.00	 	 	 	 	 	 	 	 	 	 	 	 	 	 	 	 	 	 	1581540930	9.14	16.93
12/02/2020 20:55:31	120220	12022020	205531	240.22	12.300815	-56.941052	240.22	0.200	-1.060	0.990	240.14	-2.50	1.50	 	 	 	 	 	 	 	 	 	 	 	 	 	 	 	 	 	 	1581540931	8.92	16.52
12/02/2020 20:55:32	120220	12022020	205532	239.59	12.300797	-56.941090	239.66	0.190	-0.900	1.400	239.59	-2.30	1.90	 	 	 	 	 	 	 	 	 	 	 	 	 	 	 	 	 	 	1581540932	9.14	16.93
12/02/2020 20:55:33	120220	12022020	205533	238.93	12.300777	-56.941130	239.00	0.230	-0.850	1.670	238.93	-2.30	2.10	 	 	 	 	 	 	 	 	 	 	 	 	 	 	 	 	 	 	1581540933	9.58	17.74
12/02/2020 20:55:34	120220	12022020	205534	238.28	12.300757	-56.941172	238.36	0.190	-0.720	1.800	238.28	-2.10	2.30	 	 	 	 	 	 	 	 	 	 	 	 	 	 	 	 	 	 	1581540934	9.87	18.28
12/02/2020 20:55:35	120220	12022020	205535	237.90	12.300737	-56.941213	238.01	-0.030	-0.330	1.770	237.90	-1.70	2.20	 	 	 	 	 	 	 	 	 	 	 	 	 	 	 	 	 	 	1581540935	9.79	18.13
12/02/2020 20:55:36	120220	12022020	205536	237.93	12.300718	-56.941255	238.06	-0.320	0.220	1.570	237.93	-1.20	2.00	 	 	 	 	 	 	 	 	 	 	 	 	 	 	 	 	 	 	1581540936	9.58	17.74
12/02/2020 20:55:37	120220	12022020	205537	238.36	12.300700	-56.941295	238.52	-0.440	0.700	1.120	238.36	-0.70	1.50	 	 	 	 	 	 	 	 	 	 	 	 	 	 	 	 	 	 	1581540937	9.43	17.46
12/02/2020 20:55:38	120220	12022020	205538	239.02	12.300678	-56.941335	239.17	-0.290	0.870	0.530	239.02	-0.60	1.00	 	 	 	 	 	 	 	 	 	 	 	 	 	 	 	 	 	 	1581540938	9.40	17.41
12/02/2020 20:55:39	120220	12022020	205539	239.63	12.300655	-56.941373	239.75	-0.020	0.580	0.090	239.63	-0.90	0.50	 	 	 	 	 	 	 	 	 	 	 	 	 	 	 	 	 	 	1581540939	9.55	17.69
12/02/2020 20:55:40	120220	12022020	205540	240.04	12.300632	-56.941412	240.13	0.190	-0.130	0.020	240.04	-1.60	0.50	 	 	 	 	 	 	 	 	 	 	 	 	 	 	 	 	 	 	1581540940	9.75	18.06
12/02/2020 20:55:41	120220	12022020	205541	240.16	12.300610	-56.941453	240.24	0.250	-0.890	0.340	240.16	-2.40	0.80	 	 	 	 	 	 	 	 	 	 	 	 	 	 	 	 	 	 	1581540941	9.80	18.15
12/02/2020 20:55:42	120220	12022020	205542	239.99	12.300590	-56.941493	240.05	0.180	-1.380	0.960	239.99	-2.80	1.40	 	 	 	 	 	 	 	 	 	 	 	 	 	 	 	 	 	 	1581540942	9.67	17.91
12/02/2020 20:55:43	120220	12022020	205543	239.61	12.300572	-56.941535	239.67	0.080	-1.430	1.690	239.61	-2.80	2.20	 	 	 	 	 	 	 	 	 	 	 	 	 	 	 	 	 	 	1581540943	9.52	17.63
12/02/2020 20:55:44	120220	12022020	205544	239.12	12.300553	-56.941575	239.18	-0.060	-0.970	2.190	239.12	-2.40	2.60	 	 	 	 	 	 	 	 	 	 	 	 	 	 	 	 	 	 	1581540944	9.29	17.21
12/02/2020 20:55:45	120220	12022020	205545	238.70	12.300537	-56.941615	238.69	-0.210	-0.280	2.250	238.61	-1.70	2.70	 	 	 	 	 	 	 	 	 	 	 	 	 	 	 	 	 	 	1581540945	9.11	16.87
12/02/2020 20:55:46	120220	12022020	205546	238.19	12.300517	-56.941653	238.27	-0.270	0.220	1.900	238.19	-1.20	2.30	 	 	 	 	 	 	 	 	 	 	 	 	 	 	 	 	 	 	1581540946	9.25	17.13
12/02/2020 20:55:47	120220	12022020	205547	237.94	12.300493	-56.941692	238.03	-0.150	0.320	1.300	237.94	-1.10	1.70	 	 	 	 	 	 	 	 	 	 	 	 	 	 	 	 	 	 	1581540947	9.62	17.82
12/02/2020 20:55:48	120220	12022020	205548	237.87	12.300470	-56.941732	237.98	0.070	0.180	0.830	237.87	-1.30	1.30	 	 	 	 	 	 	 	 	 	 	 	 	 	 	 	 	 	 	1581540948	9.85	18.24
12/02/2020 20:55:49	120220	12022020	205549	237.93	12.300447	-56.941772	238.04	0.210	-0.010	0.730	237.93	-1.40	1.20	 	 	 	 	 	 	 	 	 	 	 	 	 	 	 	 	 	 	1581540949	9.83	18.21
12/02/2020 20:55:50	120220	12022020	205550	238.12	12.300427	-56.941813	238.24	0.190	-0.110	0.870	238.12	-1.50	1.30	 	 	 	 	 	 	 	 	 	 	 	 	 	 	 	 	 	 	1581540950	9.61	17.80
12/02/2020 20:55:51	120220	12022020	205551	238.53	12.300407	-56.941852	238.67	0.080	-0.180	0.980	238.53	-1.60	1.40	 	 	 	 	 	 	 	 	 	 	 	 	 	 	 	 	 	 	1581540951	9.35	17.32
12/02/2020 20:55:52	120220	12022020	205552	239.05	12.300387	-56.941892	239.18	0.010	-0.360	0.940	239.05	-1.80	1.40	 	 	 	 	 	 	 	 	 	 	 	 	 	 	 	 	 	 	1581540952	9.31	17.24
12/02/2020 20:55:53	120220	12022020	205553	239.50	12.300365	-56.941930	239.61	0.030	-0.590	0.840	239.50	-2.00	1.30	 	 	 	 	 	 	 	 	 	 	 	 	 	 	 	 	 	 	1581540953	9.42	17.45
12/02/2020 20:55:54	120220	12022020	205554	239.77	12.300345	-56.941970	239.87	0.060	-0.650	0.690	239.77	-2.10	1.10	 	 	 	 	 	 	 	 	 	 	 	 	 	 	 	 	 	 	1581540954	9.39	17.39
12/02/2020 20:55:55	120220	12022020	205555	239.83	12.300323	-56.942007	239.92	0.030	-0.530	0.510	239.83	-1.90	1.00	 	 	 	 	 	 	 	 	 	 	 	 	 	 	 	 	 	 	1581540955	9.24	17.11
12/02/2020 20:55:56	120220	12022020	205556	239.59	12.300302	-56.942045	239.64	-0.040	-0.410	0.510	239.59	-1.80	1.00	 	 	 	 	 	 	 	 	 	 	 	 	 	 	 	 	 	 	1581540956	9.32	17.26
12/02/2020 20:55:57	120220	12022020	205557	239.21	12.300282	-56.942085	239.14	-0.080	-0.380	0.690	239.11	-1.80	1.20	 	 	 	 	 	 	 	 	 	 	 	 	 	 	 	 	 	 	1581540957	9.52	17.63
12/02/2020 20:55:58	120220	12022020	205558	238.54	12.300260	-56.942127	238.59	-0.060	-0.360	0.940	238.54	-1.80	1.40	 	 	 	 	 	 	 	 	 	 	 	 	 	 	 	 	 	 	1581540958	9.69	17.95
12/02/2020 20:55:59	120220	12022020	205559	238.15	12.300240	-56.942167	238.15	-0.010	-0.330	1.150	238.08	-1.70	1.60	 	 	 	 	 	 	 	 	 	 	 	 	 	 	 	 	 	 	1581540959	9.73	18.02
12/02/2020 20:56:00	120220	12022020	205600	237.95	12.300218	-56.942207	238.04	-0.010	-0.300	1.230	237.95	-1.70	1.70	 	 	 	 	 	 	 	 	 	 	 	 	 	 	 	 	 	 	1581540960	9.69	17.95
12/02/2020 20:56:01	120220	12022020	205601	238.08	12.300198	-56.942248	238.18	-0.140	-0.320	1.260	238.08	-1.70	1.70	 	 	 	 	 	 	 	 	 	 	 	 	 	 	 	 	 	 	1581540961	9.68	17.93
12/02/2020 20:56:02	120220	12022020	205602	238.31	12.300178	-56.942288	238.42	-0.300	-0.330	1.350	238.31	-1.70	1.80	1014.70	26.60	26.60	20.60	20.60	157.0	69.0	69.0	389.0	28.0	224.00	4.90	81.00	9.10	9888	10003.0	27.5	27.5	1581540962	9.64	17.85
12/02/2020 20:56:03	120220	12022020	205603	238.57	12.300160	-56.942330	238.70	-0.300	-0.230	1.500	238.57	-1.60	1.90	 	 	 	 	 	 	 	 	 	 	 	 	 	 	 	 	 	 	1581540963	9.55	17.69
12/02/2020 20:56:04	120220	12022020	205604	238.82	12.300142	-56.942370	238.95	-0.120	0.020	1.540	238.82	-1.40	2.00	 	 	 	 	 	 	 	 	 	 	 	 	 	 	 	 	 	 	1581540964	9.34	17.30
12/02/2020 20:56:05	120220	12022020	205605	238.95	12.300122	-56.942408	239.07	0.120	0.240	1.320	238.95	-1.20	1.70	 	 	 	 	 	 	 	 	 	 	 	 	 	 	 	 	 	 	1581540965	9.22	17.08
12/02/2020 20:56:06	120220	12022020	205606	238.95	12.300100	-56.942447	239.05	0.280	0.250	0.900	238.95	-1.20	1.30	 	 	 	 	 	 	 	 	 	 	 	 	 	 	 	 	 	 	1581540966	9.29	17.21
12/02/2020 20:56:07	120220	12022020	205607	238.86	12.300075	-56.942483	238.95	0.310	0.000	0.530	238.86	-1.40	1.00	 	 	 	 	 	 	 	 	 	 	 	 	 	 	 	 	 	 	1581540967	9.45	17.50
12/02/2020 20:56:08	120220	12022020	205608	238.83	12.300052	-56.942523	238.92	0.240	-0.410	0.180	238.83	-1.90	0.60	 	 	 	 	 	 	 	 	 	 	 	 	 	 	 	 	 	 	1581540968	9.61	17.80
12/02/2020 20:56:09	120220	12022020	205609	238.93	12.300030	-56.942562	239.03	0.160	-0.730	-0.060	238.93	-2.20	0.40	 	 	 	 	 	 	 	 	 	 	 	 	 	 	 	 	 	 	1581540969	9.60	17.78
12/02/2020 20:56:10	120220	12022020	205610	239.03	12.300008	-56.942602	239.09	0.130	-0.830	-0.010	239.03	-2.30	0.40	 	 	 	 	 	 	 	 	 	 	 	 	 	 	 	 	 	 	1581540970	9.45	17.50
12/02/2020 20:56:11	120220	12022020	205611	238.95	12.299988	-56.942640	239.00	0.090	-0.790	0.430	238.95	-2.20	0.90	 	 	 	 	 	 	 	 	 	 	 	 	 	 	 	 	 	 	1581540971	9.37	17.35
12/02/2020 20:56:12	120220	12022020	205612	238.66	12.299968	-56.942680	238.71	-0.080	-0.700	1.160	238.66	-2.10	1.60	 	 	 	 	 	 	 	 	 	 	 	 	 	 	 	 	 	 	1581540972	9.47	17.54
12/02/2020 20:56:13	120220	12022020	205613	238.23	12.299950	-56.942722	238.28	-0.350	-0.550	1.880	238.23	-2.00	2.40	 	 	 	 	 	 	 	 	 	 	 	 	 	 	 	 	 	 	1581540973	9.57	17.72
12/02/2020 20:56:14	120220	12022020	205614	237.84	12.299932	-56.942763	237.92	-0.560	-0.420	2.180	237.84	-1.80	2.60	 	 	 	 	 	 	 	 	 	 	 	 	 	 	 	 	 	 	1581540974	9.63	17.83
12/02/2020 20:56:15	120220	12022020	205615	237.62	12.299912	-56.942805	237.72	-0.530	-0.380	1.990	237.62	-1.80	2.40	 	 	 	 	 	 	 	 	 	 	 	 	 	 	 	 	 	 	1581540975	9.73	18.02
12/02/2020 20:56:16	120220	12022020	205616	237.56	12.299890	-56.942845	237.65	-0.270	-0.330	1.510	237.56	-1.70	1.90	 	 	 	 	 	 	 	 	 	 	 	 	 	 	 	 	 	 	1581540976	9.79	18.13
12/02/2020 20:56:17	120220	12022020	205617	237.53	12.299867	-56.942885	237.60	0.040	-0.210	1.080	237.53	-1.60	1.50	 	 	 	 	 	 	 	 	 	 	 	 	 	 	 	 	 	 	1581540977	9.74	18.04
12/02/2020 20:56:18	120220	12022020	205618	237.51	12.299843	-56.942923	237.59	0.210	0.020	0.910	237.51	-1.40	1.40	 	 	 	 	 	 	 	 	 	 	 	 	 	 	 	 	 	 	1581540978	9.62	17.82
12/02/2020 20:56:19	120220	12022020	205619	237.54	12.299822	-56.942962	237.63	0.150	0.350	1.050	237.54	-1.10	1.50	 	 	 	 	 	 	 	 	 	 	 	 	 	 	 	 	 	 	1581540979	9.44	17.48
12/02/2020 20:56:20	120220	12022020	205620	237.61	12.299803	-56.943002	237.71	-0.070	0.610	1.350	237.61	-0.80	1.80	 	 	 	 	 	 	 	 	 	 	 	 	 	 	 	 	 	 	1581540980	9.30	17.22
12/02/2020 20:56:21	120220	12022020	205621	237.70	12.299785	-56.943042	237.82	-0.180	0.620	1.520	237.70	-0.80	2.00	 	 	 	 	 	 	 	 	 	 	 	 	 	 	 	 	 	 	1581540981	9.31	17.24
12/02/2020 20:56:22	120220	12022020	205622	237.84	12.299765	-56.943082	237.97	0.000	0.290	1.250	237.84	-1.20	1.70	 	 	 	 	 	 	 	 	 	 	 	 	 	 	 	 	 	 	1581540982	9.41	17.43
12/02/2020 20:56:23	120220	12022020	205623	238.01	12.299740	-56.943120	238.18	0.410	-0.240	0.620	238.06	-1.70	1.00	 	 	 	 	 	 	 	 	 	 	 	 	 	 	 	 	 	 	1581540983	9.51	17.61
12/02/2020 20:56:24	120220	12022020	205624	238.37	12.299715	-56.943157	238.47	0.730	-0.770	-0.080	238.37	-2.20	0.30	 	 	 	 	 	 	 	 	 	 	 	 	 	 	 	 	 	 	1581540984	9.49	17.58
12/02/2020 20:56:25	120220	12022020	205625	238.72	12.299690	-56.943192	238.82	0.730	-1.220	-0.470	238.72	-2.70	-0.00	 	 	 	 	 	 	 	 	 	 	 	 	 	 	 	 	 	 	1581540985	9.39	17.39
12/02/2020 20:56:26	120220	12022020	205626	239.00	12.299667	-56.943230	239.07	0.410	-1.650	-0.190	239.00	-3.10	0.30	 	 	 	 	 	 	 	 	 	 	 	 	 	 	 	 	 	 	1581540986	9.48	17.56
12/02/2020 20:56:27	120220	12022020	205627	238.88	12.299647	-56.943272	238.91	-0.070	-1.870	0.760	238.88	-3.30	1.30	 	 	 	 	 	 	 	 	 	 	 	 	 	 	 	 	 	 	1581540987	9.70	17.96
12/02/2020 20:56:28	120220	12022020	205628	238.23	12.299628	-56.943313	238.23	-0.550	-1.590	2.070	238.23	-3.00	2.60	 	 	 	 	 	 	 	 	 	 	 	 	 	 	 	 	 	 	1581540988	9.78	18.11
12/02/2020 20:56:29	120220	12022020	205629	237.23	12.299613	-56.943357	237.24	-0.860	-0.860	3.250	237.23	-2.20	3.70	 	 	 	 	 	 	 	 	 	 	 	 	 	 	 	 	 	 	1581540989	9.75	18.06
12/02/2020 20:56:30	120220	12022020	205630	236.27	12.299595	-56.943400	236.34	-0.900	0.080	3.760	236.27	-1.30	4.20	 	 	 	 	 	 	 	 	 	 	 	 	 	 	 	 	 	 	1581540990	9.75	18.06
12/02/2020 20:56:31	120220	12022020	205631	235.82	12.299577	-56.943442	235.95	-0.710	0.910	3.470	235.82	-0.50	3.90	 	 	 	 	 	 	 	 	 	 	 	 	 	 	 	 	 	 	1581540991	9.68	17.93
12/02/2020 20:56:32	120220	12022020	205632	236.05	12.299553	-56.943482	236.24	-0.360	1.340	2.480	236.05	-0.10	2.90	 	 	 	 	 	 	 	 	 	 	 	 	 	 	 	 	 	 	1581540992	9.70	17.96
12/02/2020 20:56:33	120220	12022020	205633	236.84	12.299530	-56.943520	237.05	0.020	1.410	1.230	236.84	-0.00	1.60	 	 	 	 	 	 	 	 	 	 	 	 	 	 	 	 	 	 	1581540993	9.65	17.87
12/02/2020 20:56:34	120220	12022020	205634	237.93	12.299505	-56.943557	238.13	0.330	1.140	0.220	237.93	-0.30	0.60	 	 	 	 	 	 	 	 	 	 	 	 	 	 	 	 	 	 	1581540994	9.42	17.45
12/02/2020 20:56:35	120220	12022020	205635	238.84	12.299482	-56.943593	239.22	0.590	0.500	-0.210	239.04	-1.00	0.20	 	 	 	 	 	 	 	 	 	 	 	 	 	 	 	 	 	 	1581540995	9.27	17.17
12/02/2020 20:56:36	120220	12022020	205636	239.87	12.299460	-56.943632	240.02	0.810	-0.440	-0.070	239.87	-1.90	0.40	 	 	 	 	 	 	 	 	 	 	 	 	 	 	 	 	 	 	1581540996	9.26	17.15
12/02/2020 20:56:37	120220	12022020	205637	240.17	12.299440	-56.943670	240.28	0.910	-1.430	0.550	240.17	-2.90	1.00	 	 	 	 	 	 	 	 	 	 	 	 	 	 	 	 	 	 	1581540997	9.34	17.30
12/02/2020 20:56:38	120220	12022020	205638	239.95	12.299422	-56.943710	240.05	0.750	-2.110	1.320	239.95	-3.50	1.80	 	 	 	 	 	 	 	 	 	 	 	 	 	 	 	 	 	 	1581540998	9.36	17.33
12/02/2020 20:56:39	120220	12022020	205639	239.50	12.299403	-56.943750	239.58	0.300	-2.200	1.970	239.50	-3.60	2.40	 	 	 	 	 	 	 	 	 	 	 	 	 	 	 	 	 	 	1581540999	9.24	17.11
12/02/2020 20:56:40	120220	12022020	205640	238.92	12.299383	-56.943788	238.99	-0.260	-1.760	2.340	238.92	-3.10	2.80	 	 	 	 	 	 	 	 	 	 	 	 	 	 	 	 	 	 	1581541000	9.15	16.95
12/02/2020 20:56:41	120220	12022020	205641	238.33	12.299365	-56.943827	238.41	-0.700	-0.950	2.310	238.33	-2.30	2.70	 	 	 	 	 	 	 	 	 	 	 	 	 	 	 	 	 	 	1581541001	9.19	17.02
12/02/2020 20:56:42	120220	12022020	205642	237.87	12.299345	-56.943867	237.94	-0.850	-0.070	1.940	237.87	-1.40	2.40	 	 	 	 	 	 	 	 	 	 	 	 	 	 	 	 	 	 	1581541002	9.33	17.28
12/02/2020 20:56:43	120220	12022020	205643	237.61	12.299323	-56.943907	237.71	-0.710	0.650	1.410	237.61	-0.70	1.80	 	 	 	 	 	 	 	 	 	 	 	 	 	 	 	 	 	 	1581541003	9.53	17.65
12/02/2020 20:56:44	120220	12022020	205644	237.72	12.299302	-56.943945	237.85	-0.440	1.090	0.860	237.72	-0.30	1.30	 	 	 	 	 	 	 	 	 	 	 	 	 	 	 	 	 	 	1581541004	9.63	17.83
12/02/2020 20:56:45	120220	12022020	205645	238.21	12.299280	-56.943985	238.35	-0.160	1.160	0.480	238.21	-0.30	0.90	 	 	 	 	 	 	 	 	 	 	 	 	 	 	 	 	 	 	1581541005	9.63	17.83
12/02/2020 20:56:46	120220	12022020	205646	238.94	12.299260	-56.944027	239.10	0.080	0.830	0.320	238.94	-0.60	0.80	 	 	 	 	 	 	 	 	 	 	 	 	 	 	 	 	 	 	1581541006	9.61	17.80
12/02/2020 20:56:47	120220	12022020	205647	239.54	12.299240	-56.944067	239.81	0.280	0.180	0.280	239.66	-1.30	0.70	 	 	 	 	 	 	 	 	 	 	 	 	 	 	 	 	 	 	1581541007	9.61	17.80
12/02/2020 20:56:48	120220	12022020	205648	240.12	12.299218	-56.944107	240.24	0.400	-0.530	0.430	240.12	-2.00	0.90	 	 	 	 	 	 	 	 	 	 	 	 	 	 	 	 	 	 	1581541008	9.49	17.58
12/02/2020 20:56:49	120220	12022020	205649	240.14	12.299198	-56.944145	240.19	0.390	-1.020	0.920	240.10	-2.40	1.40	 	 	 	 	 	 	 	 	 	 	 	 	 	 	 	 	 	 	1581541009	9.33	17.28
12/02/2020 20:56:50	120220	12022020	205650	239.75	12.299180	-56.944183	239.84	0.280	-1.030	1.590	239.75	-2.40	2.10	 	 	 	 	 	 	 	 	 	 	 	 	 	 	 	 	 	 	1581541010	9.02	16.71
12/02/2020 20:56:51	120220	12022020	205651	239.21	12.299165	-56.944222	239.28	0.210	-0.780	2.130	239.21	-2.20	2.60	 	 	 	 	 	 	 	 	 	 	 	 	 	 	 	 	 	 	1581541011	8.81	16.32
12/02/2020 20:56:52	120220	12022020	205652	238.54	12.299148	-56.944262	238.61	0.250	-0.670	2.320	238.54	-2.10	2.80	 	 	 	 	 	 	 	 	 	 	 	 	 	 	 	 	 	 	1581541012	9.07	16.80
12/02/2020 20:56:53	120220	12022020	205653	237.94	12.299128	-56.944302	238.05	0.290	-0.670	2.040	237.94	-2.10	2.50	 	 	 	 	 	 	 	 	 	 	 	 	 	 	 	 	 	 	1581541013	9.44	17.48
12/02/2020 20:56:54	120220	12022020	205654	237.75	12.299105	-56.944340	237.88	0.170	-0.520	1.370	237.75	-1.90	1.80	 	 	 	 	 	 	 	 	 	 	 	 	 	 	 	 	 	 	1581541014	9.44	17.48
12/02/2020 20:56:55	120220	12022020	205655	237.89	12.299082	-56.944377	238.04	-0.100	-0.230	0.670	237.89	-1.60	1.10	 	 	 	 	 	 	 	 	 	 	 	 	 	 	 	 	 	 	1581541015	9.25	17.13
12/02/2020 20:56:56	120220	12022020	205656	238.20	12.299060	-56.944413	238.35	-0.340	-0.010	0.350	238.20	-1.40	0.80	 	 	 	 	 	 	 	 	 	 	 	 	 	 	 	 	 	 	1581541016	9.22	17.08
12/02/2020 20:56:57	120220	12022020	205657	238.50	12.299038	-56.944452	238.64	-0.380	0.030	0.480	238.50	-1.40	1.00	 	 	 	 	 	 	 	 	 	 	 	 	 	 	 	 	 	 	1581541017	9.35	17.32
12/02/2020 20:56:58	120220	12022020	205658	238.57	12.299020	-56.944493	238.69	-0.260	-0.080	0.980	238.57	-1.50	1.50	 	 	 	 	 	 	 	 	 	 	 	 	 	 	 	 	 	 	1581541018	9.53	17.65
12/02/2020 20:56:59	120220	12022020	205659	238.43	12.299002	-56.944535	238.55	-0.090	-0.240	1.540	238.43	-1.70	2.00	 	 	 	 	 	 	 	 	 	 	 	 	 	 	 	 	 	 	1581541019	9.63	17.83
12/02/2020 20:57:00	120220	12022020	205700	238.26	12.298985	-56.944577	238.38	0.040	-0.340	1.880	238.26	-1.80	2.30	 	 	 	 	 	 	 	 	 	 	 	 	 	 	 	 	 	 	1581541020	9.57	17.72
12/02/2020 20:57:01	120220	12022020	205701	238.15	12.298965	-56.944617	238.29	0.120	-0.330	1.790	238.15	-1.70	2.20	 	 	 	 	 	 	 	 	 	 	 	 	 	 	 	 	 	 	1581541021	9.38	17.37
12/02/2020 20:57:02	120220	12022020	205702	238.08	12.298943	-56.944655	238.20	0.150	-0.290	1.330	238.08	-1.70	1.80	1014.70	26.60	26.70	20.80	20.80	153.0	70.0	70.0	389.0	28.0	224.00	5.30	81.00	9.40	9702	8884.0	27.5	27.5	1581541022	9.25	17.13
12/02/2020 20:57:03	120220	12022020	205703	237.98	12.298920	-56.944692	238.08	0.100	-0.260	0.750	237.98	-1.70	1.20	 	 	 	 	 	 	 	 	 	 	 	 	 	 	 	 	 	 	1581541023	9.27	17.17
12/02/2020 20:57:04	120220	12022020	205704	237.92	12.298897	-56.944727	238.02	-0.030	-0.150	0.280	237.92	-1.60	0.70	 	 	 	 	 	 	 	 	 	 	 	 	 	 	 	 	 	 	1581541024	9.22	17.08
12/02/2020 20:57:05	120220	12022020	205705	237.93	12.298875	-56.944763	238.04	-0.140	0.100	0.100	237.93	-1.30	0.60	 	 	 	 	 	 	 	 	 	 	 	 	 	 	 	 	 	 	1581541025	9.05	16.76
12/02/2020 20:57:06	120220	12022020	205706	238.01	12.298855	-56.944800	238.12	-0.130	0.310	0.240	238.01	-1.10	0.70	 	 	 	 	 	 	 	 	 	 	 	 	 	 	 	 	 	 	1581541026	8.91	16.50
12/02/2020 20:57:07	120220	12022020	205707	238.00	12.298837	-56.944840	238.08	0.080	0.110	0.700	238.00	-1.30	1.20	 	 	 	 	 	 	 	 	 	 	 	 	 	 	 	 	 	 	1581541027	9.14	16.93
12/02/2020 20:57:08	120220	12022020	205708	237.82	12.298817	-56.944880	237.90	0.350	-0.530	1.310	237.82	-2.00	1.80	 	 	 	 	 	 	 	 	 	 	 	 	 	 	 	 	 	 	1581541028	9.64	17.85
12/02/2020 20:57:09	120220	12022020	205709	237.61	12.298797	-56.944923	237.71	0.460	-1.150	1.750	237.61	-2.60	2.20	 	 	 	 	 	 	 	 	 	 	 	 	 	 	 	 	 	 	1581541029	9.87	18.28
12/02/2020 20:57:10	120220	12022020	205710	237.53	12.298777	-56.944963	237.64	0.280	-1.280	1.710	237.53	-2.70	2.10	 	 	 	 	 	 	 	 	 	 	 	 	 	 	 	 	 	 	1581541030	9.52	17.63
12/02/2020 20:57:11	120220	12022020	205711	237.55	12.298757	-56.945000	237.66	-0.030	-1.030	1.350	237.56	-2.40	1.80	 	 	 	 	 	 	 	 	 	 	 	 	 	 	 	 	 	 	1581541031	9.11	16.87
12/02/2020 20:57:12	120220	12022020	205712	237.56	12.298735	-56.945037	237.63	-0.260	-0.730	1.030	237.56	-2.10	1.50	 	 	 	 	 	 	 	 	 	 	 	 	 	 	 	 	 	 	1581541032	9.13	16.91
12/02/2020 20:57:13	120220	12022020	205713	237.39	12.298712	-56.945075	237.46	-0.390	-0.420	0.970	237.39	-1.80	1.40	 	 	 	 	 	 	 	 	 	 	 	 	 	 	 	 	 	 	1581541033	9.40	17.41
12/02/2020 20:57:14	120220	12022020	205714	237.16	12.298690	-56.945115	237.23	-0.500	-0.000	1.130	237.16	-1.40	1.60	 	 	 	 	 	 	 	 	 	 	 	 	 	 	 	 	 	 	1581541034	9.48	17.56
12/02/2020 20:57:15	120220	12022020	205715	236.98	12.298670	-56.945153	237.03	-0.560	0.480	1.400	236.98	-0.90	1.90	 	 	 	 	 	 	 	 	 	 	 	 	 	 	 	 	 	 	1581541035	9.37	17.35
12/02/2020 20:57:16	120220	12022020	205716	236.84	12.298650	-56.945193	236.89	-0.420	0.730	1.660	236.84	-0.70	2.10	 	 	 	 	 	 	 	 	 	 	 	 	 	 	 	 	 	 	1581541036	9.37	17.35
12/02/2020 20:57:17	120220	12022020	205717	236.84	12.298630	-56.945233	236.91	-0.030	0.650	1.680	236.84	-0.80	2.10	 	 	 	 	 	 	 	 	 	 	 	 	 	 	 	 	 	 	1581541037	9.50	17.59
12/02/2020 20:57:18	120220	12022020	205718	237.00	12.298608	-56.945272	237.09	0.390	0.330	1.460	237.00	-1.10	1.90	 	 	 	 	 	 	 	 	 	 	 	 	 	 	 	 	 	 	1581541038	9.53	17.65
12/02/2020 20:57:19	120220	12022020	205719	237.31	12.298585	-56.945310	237.43	0.590	-0.060	1.190	237.31	-1.50	1.60	 	 	 	 	 	 	 	 	 	 	 	 	 	 	 	 	 	 	1581541039	9.36	17.33
12/02/2020 20:57:20	120220	12022020	205720	237.63	12.298565	-56.945348	237.75	0.550	-0.520	1.000	237.63	-2.00	1.40	 	 	 	 	 	 	 	 	 	 	 	 	 	 	 	 	 	 	1581541040	9.22	17.08
12/02/2020 20:57:21	120220	12022020	205721	237.75	12.298545	-56.945387	237.84	0.450	-0.990	0.950	237.75	-2.40	1.40	 	 	 	 	 	 	 	 	 	 	 	 	 	 	 	 	 	 	1581541041	9.27	17.17
12/02/2020 20:57:22	120220	12022020	205722	237.66	12.298523	-56.945425	237.77	0.380	-1.190	0.990	237.66	-2.60	1.40	 	 	 	 	 	 	 	 	 	 	 	 	 	 	 	 	 	 	1581541042	9.24	17.11
12/02/2020 20:57:23	120220	12022020	205723	237.61	12.298502	-56.945462	237.73	0.190	-1.010	0.980	237.61	-2.40	1.40	 	 	 	 	 	 	 	 	 	 	 	 	 	 	 	 	 	 	1581541043	9.06	16.78
12/02/2020 20:57:24	120220	12022020	205724	237.67	12.298478	-56.945498	237.79	-0.120	-0.730	0.960	237.67	-2.10	1.40	 	 	 	 	 	 	 	 	 	 	 	 	 	 	 	 	 	 	1581541044	9.03	16.72
12/02/2020 20:57:25	120220	12022020	205725	237.68	12.298457	-56.945535	237.75	-0.420	-0.530	1.130	237.66	-1.90	1.60	 	 	 	 	 	 	 	 	 	 	 	 	 	 	 	 	 	 	1581541045	9.28	17.19
12/02/2020 20:57:26	120220	12022020	205726	237.44	12.298437	-56.945575	237.52	-0.540	-0.400	1.460	237.44	-1.80	1.90	 	 	 	 	 	 	 	 	 	 	 	 	 	 	 	 	 	 	1581541046	9.56	17.71
12/02/2020 20:57:27	120220	12022020	205727	237.09	12.298415	-56.945617	237.18	-0.470	-0.220	1.710	237.09	-1.60	2.20	 	 	 	 	 	 	 	 	 	 	 	 	 	 	 	 	 	 	1581541047	9.65	17.87
12/02/2020 20:57:28	120220	12022020	205728	236.75	12.298393	-56.945655	236.83	-0.310	0.020	1.850	236.75	-1.40	2.30	 	 	 	 	 	 	 	 	 	 	 	 	 	 	 	 	 	 	1581541048	9.54	17.67
12/02/2020 20:57:29	120220	12022020	205729	236.44	12.298373	-56.945695	236.52	-0.120	0.190	1.860	236.44	-1.20	2.30	 	 	 	 	 	 	 	 	 	 	 	 	 	 	 	 	 	 	1581541049	9.51	17.61
12/02/2020 20:57:30	120220	12022020	205730	236.30	12.298352	-56.945735	236.38	0.110	0.230	1.570	236.30	-1.20	2.00	 	 	 	 	 	 	 	 	 	 	 	 	 	 	 	 	 	 	1581541050	9.55	17.69
12/02/2020 20:57:31	120220	12022020	205731	236.39	12.298330	-56.945773	236.48	0.310	0.270	0.990	236.39	-1.10	1.40	 	 	 	 	 	 	 	 	 	 	 	 	 	 	 	 	 	 	1581541051	9.43	17.46
12/02/2020 20:57:32	120220	12022020	205732	236.82	12.298307	-56.945810	236.91	0.390	0.200	0.360	236.82	-1.20	0.80	 	 	 	 	 	 	 	 	 	 	 	 	 	 	 	 	 	 	1581541052	9.27	17.17
12/02/2020 20:57:33	120220	12022020	205733	237.36	12.298283	-56.945848	237.45	0.350	-0.070	0.020	237.36	-1.50	0.50	 	 	 	 	 	 	 	 	 	 	 	 	 	 	 	 	 	 	1581541053	9.30	17.22
12/02/2020 20:57:34	120220	12022020	205734	237.65	12.298262	-56.945887	237.73	0.270	-0.450	0.160	237.65	-1.90	0.60	 	 	 	 	 	 	 	 	 	 	 	 	 	 	 	 	 	 	1581541054	9.40	17.41
12/02/2020 20:57:35	120220	12022020	205735	237.64	12.298242	-56.945927	237.69	0.180	-0.710	0.580	237.64	-2.10	1.10	 	 	 	 	 	 	 	 	 	 	 	 	 	 	 	 	 	 	1581541055	9.43	17.46
12/02/2020 20:57:36	120220	12022020	205736	237.49	12.298222	-56.945965	237.54	0.020	-0.700	0.930	237.49	-2.10	1.40	 	 	 	 	 	 	 	 	 	 	 	 	 	 	 	 	 	 	1581541056	9.23	17.09
12/02/2020 20:57:37	120220	12022020	205737	237.37	12.298200	-56.946002	237.42	-0.180	-0.520	0.990	237.34	-1.90	1.40	 	 	 	 	 	 	 	 	 	 	 	 	 	 	 	 	 	 	1581541057	9.05	16.76
12/02/2020 20:57:38	120220	12022020	205738	237.23	12.298177	-56.946037	237.30	-0.300	-0.400	0.840	237.23	-1.80	1.30	 	 	 	 	 	 	 	 	 	 	 	 	 	 	 	 	 	 	1581541058	9.10	16.85
12/02/2020 20:57:39	120220	12022020	205739	237.02	12.298153	-56.946075	237.09	-0.270	-0.500	0.850	237.02	-1.90	1.30	 	 	 	 	 	 	 	 	 	 	 	 	 	 	 	 	 	 	1581541059	9.37	17.35
12/02/2020 20:57:40	120220	12022020	205740	236.69	12.298130	-56.946115	236.75	-0.120	-0.750	1.110	236.69	-2.20	1.60	 	 	 	 	 	 	 	 	 	 	 	 	 	 	 	 	 	 	1581541060	9.71	17.98
12/02/2020 20:57:41	120220	12022020	205741	236.38	12.298108	-56.946155	236.46	0.030	-0.890	1.400	236.38	-2.30	1.90	 	 	 	 	 	 	 	 	 	 	 	 	 	 	 	 	 	 	1581541061	9.84	18.22
12/02/2020 20:57:42	120220	12022020	205742	236.31	12.298088	-56.946195	236.40	0.100	-0.700	1.560	236.31	-2.10	2.00	 	 	 	 	 	 	 	 	 	 	 	 	 	 	 	 	 	 	1581541062	9.64	17.85
12/02/2020 20:57:43	120220	12022020	205743	236.41	12.298068	-56.946235	236.50	0.070	-0.240	1.660	236.41	-1.60	2.10	 	 	 	 	 	 	 	 	 	 	 	 	 	 	 	 	 	 	1581541063	9.36	17.33
12/02/2020 20:57:44	120220	12022020	205744	236.48	12.298048	-56.946275	236.55	-0.030	0.170	1.790	236.48	-1.20	2.20	 	 	 	 	 	 	 	 	 	 	 	 	 	 	 	 	 	 	1581541064	9.35	17.32
12/02/2020 20:57:45	120220	12022020	205745	236.51	12.298028	-56.946315	236.58	-0.130	0.420	1.830	236.51	-1.00	2.30	 	 	 	 	 	 	 	 	 	 	 	 	 	 	 	 	 	 	1581541065	9.49	17.58
12/02/2020 20:57:46	120220	12022020	205746	236.57	12.298007	-56.946353	236.66	-0.180	0.540	1.580	236.57	-0.90	2.00	 	 	 	 	 	 	 	 	 	 	 	 	 	 	 	 	 	 	1581541066	9.53	17.65
12/02/2020 20:57:47	120220	12022020	205747	236.72	12.297982	-56.946392	236.80	-0.150	0.520	1.060	236.72	-0.90	1.50	 	 	 	 	 	 	 	 	 	 	 	 	 	 	 	 	 	 	1581541067	9.46	17.52
12/02/2020 20:57:48	120220	12022020	205748	236.94	12.297958	-56.946428	237.02	-0.060	0.270	0.510	236.94	-1.20	1.00	 	 	 	 	 	 	 	 	 	 	 	 	 	 	 	 	 	 	1581541068	9.43	17.46
12/02/2020 20:57:49	120220	12022020	205749	237.14	12.297933	-56.946465	237.21	0.060	-0.220	0.150	237.14	-1.60	0.60	 	 	 	 	 	 	 	 	 	 	 	 	 	 	 	 	 	 	1581541069	9.48	17.56
12/02/2020 20:57:50	120220	12022020	205750	237.21	12.297910	-56.946503	237.26	0.190	-0.730	0.100	237.21	-2.10	0.60	 	 	 	 	 	 	 	 	 	 	 	 	 	 	 	 	 	 	1581541070	9.46	17.52
12/02/2020 20:57:51	120220	12022020	205751	237.04	12.297887	-56.946542	237.08	0.310	-1.060	0.320	237.04	-2.50	0.80	 	 	 	 	 	 	 	 	 	 	 	 	 	 	 	 	 	 	1581541071	9.32	17.26
12/02/2020 20:57:52	120220	12022020	205752	236.76	12.297867	-56.946578	236.82	0.380	-1.110	0.630	236.76	-2.50	1.10	 	 	 	 	 	 	 	 	 	 	 	 	 	 	 	 	 	 	1581541072	9.16	16.96
12/02/2020 20:57:53	120220	12022020	205753	236.63	12.297845	-56.946617	236.70	0.340	-0.930	0.840	236.63	-2.30	1.30	 	 	 	 	 	 	 	 	 	 	 	 	 	 	 	 	 	 	1581541073	9.10	16.85
12/02/2020 20:57:54	120220	12022020	205754	236.70	12.297825	-56.946653	236.78	0.170	-0.610	0.920	236.70	-2.00	1.40	 	 	 	 	 	 	 	 	 	 	 	 	 	 	 	 	 	 	1581541074	9.09	16.83
12/02/2020 20:57:55	120220	12022020	205755	236.91	12.297805	-56.946692	236.98	-0.050	-0.380	0.950	236.91	-1.80	1.40	 	 	 	 	 	 	 	 	 	 	 	 	 	 	 	 	 	 	1581541075	9.26	17.15
12/02/2020 20:57:56	120220	12022020	205756	237.09	12.297782	-56.946732	237.15	-0.210	-0.320	0.990	237.09	-1.70	1.40	 	 	 	 	 	 	 	 	 	 	 	 	 	 	 	 	 	 	1581541076	9.60	17.78
12/02/2020 20:57:57	120220	12022020	205757	237.11	12.297760	-56.946772	237.16	-0.330	-0.280	1.070	237.11	-1.70	1.50	 	 	 	 	 	 	 	 	 	 	 	 	 	 	 	 	 	 	1581541077	9.80	18.15
12/02/2020 20:57:58	120220	12022020	205758	236.85	12.297737	-56.946812	236.88	-0.440	-0.170	1.210	236.85	-1.50	1.70	 	 	 	 	 	 	 	 	 	 	 	 	 	 	 	 	 	 	1581541078	9.82	18.19
12/02/2020 20:57:59	120220	12022020	205759	236.44	12.297715	-56.946852	236.49	-0.530	0.060	1.160	236.44	-1.30	1.60	 	 	 	 	 	 	 	 	 	 	 	 	 	 	 	 	 	 	1581541079	9.70	17.96
12/02/2020 20:58:00	120220	12022020	205800	236.29	12.297692	-56.946890	236.36	-0.550	0.370	0.680	236.29	-1.00	1.10	 	 	 	 	 	 	 	 	 	 	 	 	 	 	 	 	 	 	1581541080	9.44	17.48
12/02/2020 20:58:01	120220	12022020	205801	236.46	12.297667	-56.946927	236.54	-0.410	0.520	0.070	236.46	-0.90	0.50	 	 	 	 	 	 	 	 	 	 	 	 	 	 	 	 	 	 	1581541081	9.27	17.17
12/02/2020 20:58:02	120220	12022020	205802	236.77	12.297643	-56.946963	236.85	-0.100	0.330	-0.230	236.77	-1.10	0.20	1014.80	26.40	26.50	20.00	20.20	148.0	68.0	68.0	388.0	28.0	224.00	5.70	81.00	9.70	9677	9136.0	27.5	27.5	1581541082	9.35	17.32
12/02/2020 20:58:03	120220	12022020	205803	237.06	12.297622	-56.947002	237.15	0.220	-0.100	0.100	237.06	-1.50	0.60	 	 	 	 	 	 	 	 	 	 	 	 	 	 	 	 	 	 	1581541083	9.46	17.52
12/02/2020 20:58:04	120220	12022020	205804	237.23	12.297603	-56.947043	237.32	0.430	-0.550	0.800	237.23	-1.90	1.30	 	 	 	 	 	 	 	 	 	 	 	 	 	 	 	 	 	 	1581541084	9.52	17.63
12/02/2020 20:58:05	120220	12022020	205805	237.37	12.297585	-56.947083	237.46	0.510	-0.730	1.310	237.37	-2.10	1.80	 	 	 	 	 	 	 	 	 	 	 	 	 	 	 	 	 	 	1581541085	9.34	17.30
12/02/2020 20:58:06	120220	12022020	205806	237.59	12.297567	-56.947122	237.70	0.500	-0.590	1.290	237.59	-2.00	1.70	 	 	 	 	 	 	 	 	 	 	 	 	 	 	 	 	 	 	1581541086	8.92	16.52
12/02/2020 20:58:07	120220	12022020	205807	237.77	12.297545	-56.947157	237.87	0.470	-0.520	0.950	237.77	-1.90	1.40	 	 	 	 	 	 	 	 	 	 	 	 	 	 	 	 	 	 	1581541087	8.86	16.41
12/02/2020 20:58:08	120220	12022020	205808	237.74	12.297520	-56.947193	237.82	0.450	-0.810	0.760	237.74	-2.20	1.20	 	 	 	 	 	 	 	 	 	 	 	 	 	 	 	 	 	 	1581541088	9.35	17.32
12/02/2020 20:58:09	120220	12022020	205809	237.32	12.297495	-56.947232	237.36	0.330	-1.190	0.990	237.32	-2.60	1.50	 	 	 	 	 	 	 	 	 	 	 	 	 	 	 	 	 	 	1581541089	9.88	18.30
12/02/2020 20:58:10	120220	12022020	205810	236.61	12.297472	-56.947272	236.65	-0.030	-1.150	1.370	236.61	-2.50	1.90	 	 	 	 	 	 	 	 	 	 	 	 	 	 	 	 	 	 	1581541090	9.92	18.37
12/02/2020 20:58:11	120220	12022020	205811	236.03	12.297450	-56.947313	236.08	-0.580	-0.630	1.570	236.03	-2.00	2.00	 	 	 	 	 	 	 	 	 	 	 	 	 	 	 	 	 	 	1581541091	9.60	17.78
12/02/2020 20:58:12	120220	12022020	205812	235.81	12.297432	-56.947353	235.90	-1.030	0.060	1.460	235.81	-1.30	1.90	 	 	 	 	 	 	 	 	 	 	 	 	 	 	 	 	 	 	1581541092	9.38	17.37
12/02/2020 20:58:13	120220	12022020	205813	235.97	12.297412	-56.947392	236.09	-1.100	0.660	1.110	235.97	-0.70	1.50	 	 	 	 	 	 	 	 	 	 	 	 	 	 	 	 	 	 	1581541093	9.36	17.33
12/02/2020 20:58:14	120220	12022020	205814	236.55	12.297392	-56.947430	236.70	-0.800	1.030	0.570	236.55	-0.40	1.00	 	 	 	 	 	 	 	 	 	 	 	 	 	 	 	 	 	 	1581541094	9.31	17.24
12/02/2020 20:58:15	120220	12022020	205815	237.21	12.297368	-56.947468	237.53	-0.290	0.950	0.090	237.37	-0.50	0.50	 	 	 	 	 	 	 	 	 	 	 	 	 	 	 	 	 	 	1581541095	9.36	17.33
12/02/2020 20:58:16	120220	12022020	205816	238.17	12.297345	-56.947507	238.32	0.240	0.420	-0.250	238.17	-1.00	0.20	 	 	 	 	 	 	 	 	 	 	 	 	 	 	 	 	 	 	1581541096	9.50	17.59
12/02/2020 20:58:17	120220	12022020	205817	238.79	12.297322	-56.947545	238.91	0.690	-0.330	-0.290	238.79	-1.80	0.20	 	 	 	 	 	 	 	 	 	 	 	 	 	 	 	 	 	 	1581541097	9.51	17.61
12/02/2020 20:58:18	120220	12022020	205818	238.98	12.297298	-56.947582	239.05	0.960	-1.020	0.120	238.98	-2.40	0.60	 	 	 	 	 	 	 	 	 	 	 	 	 	 	 	 	 	 	1581541098	9.39	17.39
12/02/2020 20:58:19	120220	12022020	205819	238.62	12.297278	-56.947620	238.66	0.920	-1.380	0.910	238.62	-2.80	1.40	 	 	 	 	 	 	 	 	 	 	 	 	 	 	 	 	 	 	1581541099	9.21	17.06
12/02/2020 20:58:20	120220	12022020	205820	237.97	12.297260	-56.947660	238.03	0.570	-1.360	1.750	237.97	-2.70	2.20	 	 	 	 	 	 	 	 	 	 	 	 	 	 	 	 	 	 	1581541100	9.12	16.89
12/02/2020 20:58:21	120220	12022020	205821	237.42	12.297242	-56.947698	237.50	0.100	-1.030	2.310	237.42	-2.40	2.80	 	 	 	 	 	 	 	 	 	 	 	 	 	 	 	 	 	 	1581541101	9.18	17.00
12/02/2020 20:58:22	120220	12022020	205822	237.13	12.297225	-56.947738	237.25	-0.280	-0.560	2.410	237.13	-1.90	2.90	 	 	 	 	 	 	 	 	 	 	 	 	 	 	 	 	 	 	1581541102	9.23	17.09
12/02/2020 20:58:23	120220	12022020	205823	237.08	12.297207	-56.947778	237.20	-0.460	-0.150	2.130	237.08	-1.50	2.50	 	 	 	 	 	 	 	 	 	 	 	 	 	 	 	 	 	 	1581541103	9.36	17.33
12/02/2020 20:58:24	120220	12022020	205824	237.19	12.297185	-56.947818	237.33	-0.450	0.120	1.530	237.19	-1.30	1.90	 	 	 	 	 	 	 	 	 	 	 	 	 	 	 	 	 	 	1581541104	9.50	17.59
12/02/2020 20:58:25	120220	12022020	205825	237.43	12.297162	-56.947857	237.55	-0.380	0.270	0.810	237.43	-1.10	1.20	 	 	 	 	 	 	 	 	 	 	 	 	 	 	 	 	 	 	1581541105	9.58	17.74
12/02/2020 20:58:26	120220	12022020	205826	237.72	12.297137	-56.947895	237.84	-0.340	0.340	0.330	237.72	-1.00	0.80	 	 	 	 	 	 	 	 	 	 	 	 	 	 	 	 	 	 	1581541106	9.54	17.67
12/02/2020 20:58:27	120220	12022020	205827	237.94	12.297115	-56.947932	238.11	-0.330	0.410	0.210	238.00	-1.00	0.70	 	 	 	 	 	 	 	 	 	 	 	 	 	 	 	 	 	 	1581541107	9.31	17.24
12/02/2020 20:58:28	120220	12022020	205828	238.32	12.297095	-56.947970	238.45	-0.240	0.320	0.260	238.32	-1.10	0.70	 	 	 	 	 	 	 	 	 	 	 	 	 	 	 	 	 	 	1581541108	9.11	16.87
12/02/2020 20:58:29	120220	12022020	205829	238.59	12.297073	-56.948008	238.79	0.050	-0.170	0.250	238.65	-1.60	0.70	 	 	 	 	 	 	 	 	 	 	 	 	 	 	 	 	 	 	1581541109	9.27	17.17
12/02/2020 20:58:30	120220	12022020	205830	238.89	12.297052	-56.948047	239.02	0.410	-0.830	0.210	238.89	-2.20	0.70	 	 	 	 	 	 	 	 	 	 	 	 	 	 	 	 	 	 	1581541110	9.52	17.63
12/02/2020 20:58:31	120220	12022020	205831	238.95	12.297030	-56.948087	239.06	0.610	-1.220	0.360	238.95	-2.60	0.80	 	 	 	 	 	 	 	 	 	 	 	 	 	 	 	 	 	 	1581541111	9.47	17.54
12/02/2020 20:58:32	120220	12022020	205832	238.72	12.297008	-56.948123	238.81	0.570	-1.080	0.750	238.72	-2.40	1.20	 	 	 	 	 	 	 	 	 	 	 	 	 	 	 	 	 	 	1581541112	9.14	16.93
12/02/2020 20:58:33	120220	12022020	205833	238.23	12.296990	-56.948162	238.32	0.330	-0.530	1.300	238.23	-1.90	1.80	 	 	 	 	 	 	 	 	 	 	 	 	 	 	 	 	 	 	1581541113	8.87	16.43
12/02/2020 20:58:34	120220	12022020	205834	237.75	12.296973	-56.948200	237.86	0.050	0.010	1.700	237.75	-1.40	2.20	 	 	 	 	 	 	 	 	 	 	 	 	 	 	 	 	 	 	1581541114	8.97	16.61
12/02/2020 20:58:35	120220	12022020	205835	237.58	12.296957	-56.948240	237.73	-0.140	0.300	1.630	237.58	-1.10	2.10	 	 	 	 	 	 	 	 	 	 	 	 	 	 	 	 	 	 	1581541115	9.20	17.04
12/02/2020 20:58:36	120220	12022020	205836	237.79	12.296935	-56.948280	237.95	-0.160	0.230	1.140	237.79	-1.20	1.60	 	 	 	 	 	 	 	 	 	 	 	 	 	 	 	 	 	 	1581541116	9.42	17.45
12/02/2020 20:58:37	120220	12022020	205837	238.20	12.296912	-56.948318	238.35	-0.100	-0.090	0.570	238.20	-1.50	1.00	 	 	 	 	 	 	 	 	 	 	 	 	 	 	 	 	 	 	1581541117	9.59	17.76
12/02/2020 20:58:38	120220	12022020	205838	238.57	12.296888	-56.948357	238.72	-0.030	-0.470	0.290	238.57	-1.90	0.80	 	 	 	 	 	 	 	 	 	 	 	 	 	 	 	 	 	 	1581541118	9.63	17.83
12/02/2020 20:58:39	120220	12022020	205839	238.78	12.296868	-56.948397	238.91	-0.020	-0.610	0.500	238.78	-2.00	1.00	 	 	 	 	 	 	 	 	 	 	 	 	 	 	 	 	 	 	1581541119	9.45	17.50
12/02/2020 20:58:40	120220	12022020	205840	238.69	12.296848	-56.948435	238.79	-0.070	-0.460	1.000	238.69	-1.80	1.50	 	 	 	 	 	 	 	 	 	 	 	 	 	 	 	 	 	 	1581541120	9.10	16.85
12/02/2020 20:58:41	120220	12022020	205841	238.29	12.296830	-56.948473	238.38	-0.120	-0.310	1.490	238.29	-1.70	2.00	 	 	 	 	 	 	 	 	 	 	 	 	 	 	 	 	 	 	1581541121	8.98	16.63
12/02/2020 20:58:42	120220	12022020	205842	237.77	12.296810	-56.948512	237.87	-0.110	-0.440	1.820	237.77	-1.80	2.30	 	 	 	 	 	 	 	 	 	 	 	 	 	 	 	 	 	 	1581541122	9.31	17.24
12/02/2020 20:58:43	120220	12022020	205843	237.43	12.296790	-56.948553	237.55	-0.080	-0.610	1.910	237.43	-2.00	2.40	 	 	 	 	 	 	 	 	 	 	 	 	 	 	 	 	 	 	1581541123	9.62	17.82
12/02/2020 20:58:44	120220	12022020	205844	237.45	12.296772	-56.948593	237.59	-0.090	-0.500	1.710	237.45	-1.90	2.10	 	 	 	 	 	 	 	 	 	 	 	 	 	 	 	 	 	 	1581541124	9.50	17.59
12/02/2020 20:58:45	120220	12022020	205845	237.87	12.296753	-56.948632	238.04	-0.120	-0.050	1.150	237.87	-1.40	1.60	 	 	 	 	 	 	 	 	 	 	 	 	 	 	 	 	 	 	1581541125	9.07	16.80
12/02/2020 20:58:46	120220	12022020	205846	238.58	12.296732	-56.948668	238.72	-0.050	0.360	0.330	238.58	-1.00	0.80	 	 	 	 	 	 	 	 	 	 	 	 	 	 	 	 	 	 	1581541126	8.82	16.33
12/02/2020 20:58:47	120220	12022020	205847	239.21	12.296708	-56.948703	239.32	0.180	0.320	-0.350	239.21	-1.10	0.10	 	 	 	 	 	 	 	 	 	 	 	 	 	 	 	 	 	 	1581541127	9.09	16.83
12/02/2020 20:58:48	120220	12022020	205848	239.54	12.296683	-56.948740	239.62	0.410	-0.090	-0.500	239.54	-1.50	-0.00	 	 	 	 	 	 	 	 	 	 	 	 	 	 	 	 	 	 	1581541128	9.51	17.61
12/02/2020 20:58:49	120220	12022020	205849	239.50	12.296660	-56.948778	239.57	0.420	-0.500	-0.060	239.50	-1.90	0.40	 	 	 	 	 	 	 	 	 	 	 	 	 	 	 	 	 	 	1581541129	9.54	17.67
12/02/2020 20:58:50	120220	12022020	205850	239.09	12.296640	-56.948818	239.16	0.200	-0.670	0.810	239.09	-2.10	1.30	 	 	 	 	 	 	 	 	 	 	 	 	 	 	 	 	 	 	1581541130	9.35	17.32
12/02/2020 20:58:51	120220	12022020	205851	238.49	12.296622	-56.948858	238.56	-0.080	-0.640	1.690	238.49	-2.00	2.20	 	 	 	 	 	 	 	 	 	 	 	 	 	 	 	 	 	 	1581541131	9.23	17.09
12/02/2020 20:58:52	120220	12022020	205852	237.93	12.296605	-56.948898	238.03	-0.220	-0.530	2.170	237.93	-1.90	2.60	 	 	 	 	 	 	 	 	 	 	 	 	 	 	 	 	 	 	1581541132	9.26	17.15
12/02/2020 20:58:53	120220	12022020	205853	237.54	12.296587	-56.948938	237.64	-0.240	-0.410	2.240	237.54	-1.80	2.70	 	 	 	 	 	 	 	 	 	 	 	 	 	 	 	 	 	 	1581541133	9.29	17.21
12/02/2020 20:58:54	120220	12022020	205854	237.31	12.296567	-56.948977	237.41	-0.210	-0.370	2.040	237.31	-1.80	2.50	 	 	 	 	 	 	 	 	 	 	 	 	 	 	 	 	 	 	1581541134	9.38	17.37
12/02/2020 20:58:55	120220	12022020	205855	237.21	12.296547	-56.949017	237.31	-0.180	-0.370	1.700	237.21	-1.80	2.10	 	 	 	 	 	 	 	 	 	 	 	 	 	 	 	 	 	 	1581541135	9.45	17.50
12/02/2020 20:58:56	120220	12022020	205856	237.23	12.296527	-56.949057	237.35	-0.160	-0.330	1.260	237.23	-1.70	1.70	 	 	 	 	 	 	 	 	 	 	 	 	 	 	 	 	 	 	1581541136	9.40	17.41
12/02/2020 20:58:57	120220	12022020	205857	237.46	12.296505	-56.949095	237.59	-0.080	-0.220	0.620	237.46	-1.60	1.10	 	 	 	 	 	 	 	 	 	 	 	 	 	 	 	 	 	 	1581541137	9.25	17.13
12/02/2020 20:58:58	120220	12022020	205858	237.80	12.296483	-56.949132	237.92	0.060	-0.150	0.030	237.80	-1.50	0.50	 	 	 	 	 	 	 	 	 	 	 	 	 	 	 	 	 	 	1581541138	9.20	17.04
12/02/2020 20:58:59	120220	12022020	205859	238.15	12.296460	-56.949168	238.27	0.200	-0.130	-0.250	238.15	-1.50	0.20	 	 	 	 	 	 	 	 	 	 	 	 	 	 	 	 	 	 	1581541139	9.26	17.15
12/02/2020 20:59:00	120220	12022020	205900	238.56	12.296437	-56.949205	238.70	0.220	-0.090	-0.380	238.56	-1.50	0.10	 	 	 	 	 	 	 	 	 	 	 	 	 	 	 	 	 	 	1581541140	9.26	17.15
12/02/2020 20:59:01	120220	12022020	205901	239.10	12.296413	-56.949242	239.24	0.130	-0.060	-0.510	239.10	-1.40	-0.10	 	 	 	 	 	 	 	 	 	 	 	 	 	 	 	 	 	 	1581541141	9.18	17.00
12/02/2020 20:59:02	120220	12022020	205902	239.54	12.296392	-56.949280	239.65	0.040	-0.140	-0.370	239.54	-1.50	0.10	1014.70	26.40	26.50	19.80	20.00	142.0	67.0	67.0	388.0	27.9	216.00	5.30	77.00	9.60	9362	10114.0	27.5	27.5	1581541142	9.26	17.15
12/02/2020 20:59:03	120220	12022020	205903	239.70	12.296370	-56.949318	239.78	0.050	-0.280	0.160	239.70	-1.70	0.70	 	 	 	 	 	 	 	 	 	 	 	 	 	 	 	 	 	 	1581541143	9.36	17.33
12/02/2020 20:59:04	120220	12022020	205904	239.42	12.296350	-56.949358	239.46	0.120	-0.480	1.090	239.42	-1.90	1.60	 	 	 	 	 	 	 	 	 	 	 	 	 	 	 	 	 	 	1581541144	9.44	17.48
12/02/2020 20:59:05	120220	12022020	205905	238.86	12.296332	-56.949400	238.74	0.080	-0.670	2.130	238.70	-2.10	2.60	 	 	 	 	 	 	 	 	 	 	 	 	 	 	 	 	 	 	1581541145	9.61	17.80
12/02/2020 20:59:06	120220	12022020	205906	237.75	12.296315	-56.949442	237.80	-0.140	-0.750	2.780	237.75	-2.10	3.20	 	 	 	 	 	 	 	 	 	 	 	 	 	 	 	 	 	 	1581541146	9.61	17.80
12/02/2020 20:59:07	120220	12022020	205907	236.78	12.296297	-56.949482	236.86	-0.360	-0.700	2.780	236.78	-2.10	3.20	 	 	 	 	 	 	 	 	 	 	 	 	 	 	 	 	 	 	1581541147	9.50	17.59
12/02/2020 20:59:08	120220	12022020	205908	236.08	12.296277	-56.949522	236.15	-0.390	-0.480	2.370	236.08	-1.80	2.80	 	 	 	 	 	 	 	 	 	 	 	 	 	 	 	 	 	 	1581541148	9.36	17.33
12/02/2020 20:59:09	120220	12022020	205909	235.82	12.296255	-56.949558	235.93	-0.220	-0.050	1.660	235.82	-1.40	2.10	 	 	 	 	 	 	 	 	 	 	 	 	 	 	 	 	 	 	1581541149	9.13	16.91
12/02/2020 20:59:10	120220	12022020	205910	236.19	12.296233	-56.949595	236.32	0.060	0.360	0.570	236.19	-1.00	1.00	 	 	 	 	 	 	 	 	 	 	 	 	 	 	 	 	 	 	1581541150	8.92	16.52
12/02/2020 20:59:11	120220	12022020	205911	237.12	12.296208	-56.949628	237.28	0.330	0.420	-0.620	237.12	-1.00	-0.20	 	 	 	 	 	 	 	 	 	 	 	 	 	 	 	 	 	 	1581541151	9.02	16.71
12/02/2020 20:59:12	120220	12022020	205912	238.31	12.296182	-56.949665	238.48	0.470	-0.060	-1.310	238.31	-1.50	-0.90	 	 	 	 	 	 	 	 	 	 	 	 	 	 	 	 	 	 	1581541152	9.42	17.45
12/02/2020 20:59:13	120220	12022020	205913	239.34	12.296158	-56.949705	239.48	0.410	-0.800	-1.140	239.34	-2.20	-0.60	 	 	 	 	 	 	 	 	 	 	 	 	 	 	 	 	 	 	1581541153	9.77	18.09
12/02/2020 20:59:14	120220	12022020	205914	239.82	12.296138	-56.949745	239.93	0.190	-1.180	-0.190	239.82	-2.60	0.30	 	 	 	 	 	 	 	 	 	 	 	 	 	 	 	 	 	 	1581541154	9.71	17.98
12/02/2020 20:59:15	120220	12022020	205915	239.77	12.296122	-56.949785	239.85	-0.080	-0.930	1.040	239.77	-2.30	1.60	 	 	 	 	 	 	 	 	 	 	 	 	 	 	 	 	 	 	1581541155	9.23	17.09
12/02/2020 20:59:16	120220	12022020	205916	239.26	12.296105	-56.949823	239.34	-0.240	-0.390	2.140	239.26	-1.80	2.60	 	 	 	 	 	 	 	 	 	 	 	 	 	 	 	 	 	 	1581541156	8.90	16.48
12/02/2020 20:59:17	120220	12022020	205917	238.65	12.296087	-56.949863	238.60	-0.240	-0.070	2.620	238.50	-1.40	3.10	 	 	 	 	 	 	 	 	 	 	 	 	 	 	 	 	 	 	1581541157	9.11	16.87
12/02/2020 20:59:18	120220	12022020	205918	237.78	12.296065	-56.949902	237.89	-0.130	-0.040	2.450	237.78	-1.40	2.90	 	 	 	 	 	 	 	 	 	 	 	 	 	 	 	 	 	 	1581541158	9.49	17.58
12/02/2020 20:59:19	120220	12022020	205919	237.38	12.296040	-56.949940	237.42	-0.040	-0.150	1.800	237.31	-1.50	2.20	 	 	 	 	 	 	 	 	 	 	 	 	 	 	 	 	 	 	1581541159	9.65	17.87
12/02/2020 20:59:20	120220	12022020	205920	237.21	12.296015	-56.949978	237.33	-0.070	-0.240	0.850	237.21	-1.60	1.30	 	 	 	 	 	 	 	 	 	 	 	 	 	 	 	 	 	 	1581541160	9.59	17.76
12/02/2020 20:59:21	120220	12022020	205921	237.47	12.295992	-56.950015	237.58	-0.170	-0.150	-0.070	237.47	-1.50	0.40	 	 	 	 	 	 	 	 	 	 	 	 	 	 	 	 	 	 	1581541161	9.34	17.30
12/02/2020 20:59:22	120220	12022020	205922	238.00	12.295968	-56.950050	238.13	-0.220	0.110	-0.750	238.00	-1.30	-0.30	 	 	 	 	 	 	 	 	 	 	 	 	 	 	 	 	 	 	1581541162	8.97	16.61
12/02/2020 20:59:23	120220	12022020	205923	238.56	12.295948	-56.950087	238.67	-0.140	0.200	-0.810	238.56	-1.20	-0.30	 	 	 	 	 	 	 	 	 	 	 	 	 	 	 	 	 	 	1581541163	8.89	16.46
12/02/2020 20:59:24	120220	12022020	205924	238.88	12.295930	-56.950127	238.98	0.050	-0.060	-0.210	238.88	-1.50	0.30	 	 	 	 	 	 	 	 	 	 	 	 	 	 	 	 	 	 	1581541164	9.21	17.06
12/02/2020 20:59:25	120220	12022020	205925	238.99	12.295913	-56.950168	239.09	0.230	-0.440	0.660	238.99	-1.80	1.20	 	 	 	 	 	 	 	 	 	 	 	 	 	 	 	 	 	 	1581541165	9.46	17.52
12/02/2020 20:59:26	120220	12022020	205926	238.98	12.295897	-56.950208	239.11	0.350	-0.650	1.370	238.98	-2.00	1.80	 	 	 	 	 	 	 	 	 	 	 	 	 	 	 	 	 	 	1581541166	9.36	17.33
12/02/2020 20:59:27	120220	12022020	205927	238.88	12.295878	-56.950248	239.00	0.380	-0.660	1.700	238.88	-2.00	2.20	 	 	 	 	 	 	 	 	 	 	 	 	 	 	 	 	 	 	1581541167	9.16	16.96
12/02/2020 20:59:28	120220	12022020	205928	238.72	12.295858	-56.950285	238.86	0.310	-0.640	1.570	238.72	-2.00	2.00	 	 	 	 	 	 	 	 	 	 	 	 	 	 	 	 	 	 	1581541168	9.14	16.93
12/02/2020 20:59:29	120220	12022020	205929	238.62	12.295835	-56.950323	238.76	0.180	-0.650	1.030	238.62	-2.00	1.50	 	 	 	 	 	 	 	 	 	 	 	 	 	 	 	 	 	 	1581541169	9.27	17.17
12/02/2020 20:59:30	120220	12022020	205930	238.65	12.295812	-56.950360	238.78	0.010	-0.710	0.380	238.65	-2.10	0.80	 	 	 	 	 	 	 	 	 	 	 	 	 	 	 	 	 	 	1581541170	9.47	17.54
12/02/2020 20:59:31	120220	12022020	205931	238.76	12.295787	-56.950398	238.89	-0.210	-0.680	-0.050	238.76	-2.10	0.40	 	 	 	 	 	 	 	 	 	 	 	 	 	 	 	 	 	 	1581541171	9.54	17.67
12/02/2020 20:59:32	120220	12022020	205932	238.76	12.295765	-56.950437	238.88	-0.440	-0.470	0.060	238.76	-1.80	0.50	 	 	 	 	 	 	 	 	 	 	 	 	 	 	 	 	 	 	1581541172	9.45	17.50
12/02/2020 20:59:33	120220	12022020	205933	238.51	12.295745	-56.950475	238.61	-0.590	-0.110	0.740	238.51	-1.50	1.20	 	 	 	 	 	 	 	 	 	 	 	 	 	 	 	 	 	 	1581541173	9.35	17.32
12/02/2020 20:59:34	120220	12022020	205934	238.05	12.295727	-56.950515	238.16	-0.600	0.280	1.600	238.05	-1.10	2.10	 	 	 	 	 	 	 	 	 	 	 	 	 	 	 	 	 	 	1581541174	9.34	17.30
12/02/2020 20:59:35	120220	12022020	205935	237.67	12.295708	-56.950557	237.80	-0.460	0.550	2.020	237.67	-0.80	2.50	 	 	 	 	 	 	 	 	 	 	 	 	 	 	 	 	 	 	1581541175	9.35	17.32
12/02/2020 20:59:36	120220	12022020	205936	237.59	12.295690	-56.950595	237.72	-0.200	0.690	1.860	237.59	-0.70	2.30	 	 	 	 	 	 	 	 	 	 	 	 	 	 	 	 	 	 	1581541176	9.22	17.08
12/02/2020 20:59:37	120220	12022020	205937	237.70	12.295668	-56.950633	237.83	0.130	0.550	1.460	237.70	-0.90	1.90	 	 	 	 	 	 	 	 	 	 	 	 	 	 	 	 	 	 	1581541177	9.13	16.91
12/02/2020 20:59:38	120220	12022020	205938	237.89	12.295647	-56.950670	238.02	0.480	0.010	0.980	237.89	-1.40	1.40	 	 	 	 	 	 	 	 	 	 	 	 	 	 	 	 	 	 	1581541178	9.29	17.21
12/02/2020 20:59:39	120220	12022020	205939	238.08	12.295623	-56.950708	238.22	0.720	-0.760	0.570	238.08	-2.20	1.00	 	 	 	 	 	 	 	 	 	 	 	 	 	 	 	 	 	 	1581541179	9.49	17.58
12/02/2020 20:59:40	120220	12022020	205940	238.33	12.295602	-56.950748	238.47	0.710	-1.360	0.290	238.33	-2.80	0.80	 	 	 	 	 	 	 	 	 	 	 	 	 	 	 	 	 	 	1581541180	9.51	17.61
12/02/2020 20:59:41	120220	12022020	205941	238.55	12.295580	-56.950785	238.69	0.440	-1.450	0.270	238.55	-2.80	0.70	 	 	 	 	 	 	 	 	 	 	 	 	 	 	 	 	 	 	1581541181	9.20	17.04
12/02/2020 20:59:42	120220	12022020	205942	238.67	12.295562	-56.950823	238.80	0.100	-1.100	0.450	238.67	-2.50	0.90	 	 	 	 	 	 	 	 	 	 	 	 	 	 	 	 	 	 	1581541182	8.91	16.50
12/02/2020 20:59:43	120220	12022020	205943	238.65	12.295542	-56.950860	238.78	-0.140	-0.620	0.630	238.65	-2.00	1.10	 	 	 	 	 	 	 	 	 	 	 	 	 	 	 	 	 	 	1581541183	8.95	16.58
12/02/2020 20:59:44	120220	12022020	205944	238.53	12.295520	-56.950898	238.65	-0.320	-0.230	0.800	238.53	-1.60	1.30	 	 	 	 	 	 	 	 	 	 	 	 	 	 	 	 	 	 	1581541184	9.21	17.06
12/02/2020 20:59:45	120220	12022020	205945	238.45	12.295498	-56.950937	238.59	-0.450	0.030	0.900	238.45	-1.30	1.40	 	 	 	 	 	 	 	 	 	 	 	 	 	 	 	 	 	 	1581541185	9.46	17.52
12/02/2020 20:59:46	120220	12022020	205946	238.51	12.295477	-56.950975	238.67	-0.500	0.190	0.990	238.51	-1.20	1.50	 	 	 	 	 	 	 	 	 	 	 	 	 	 	 	 	 	 	1581541186	9.55	17.69
12/02/2020 20:59:47	120220	12022020	205947	238.57	12.295455	-56.951017	238.71	-0.440	0.150	1.280	238.57	-1.20	1.80	 	 	 	 	 	 	 	 	 	 	 	 	 	 	 	 	 	 	1581541187	9.64	17.85
12/02/2020 20:59:48	120220	12022020	205948	238.46	12.295435	-56.951057	238.58	-0.270	0.040	1.730	238.46	-1.40	2.20	 	 	 	 	 	 	 	 	 	 	 	 	 	 	 	 	 	 	1581541188	9.70	17.96
12/02/2020 20:59:49	120220	12022020	205949	238.21	12.295417	-56.951098	238.32	-0.050	0.040	2.020	238.21	-1.30	2.50	 	 	 	 	 	 	 	 	 	 	 	 	 	 	 	 	 	 	1581541189	9.53	17.65
12/02/2020 20:59:50	120220	12022020	205950	237.96	12.295397	-56.951138	238.08	0.130	0.090	1.910	237.96	-1.30	2.30	 	 	 	 	 	 	 	 	 	 	 	 	 	 	 	 	 	 	1581541190	9.31	17.24
12/02/2020 20:59:51	120220	12022020	205951	237.93	12.295377	-56.951175	238.09	0.200	0.090	1.380	237.93	-1.30	1.80	 	 	 	 	 	 	 	 	 	 	 	 	 	 	 	 	 	 	1581541191	9.17	16.98
12/02/2020 20:59:52	120220	12022020	205952	238.16	12.295355	-56.951213	238.32	0.230	0.010	0.670	238.16	-1.40	1.10	 	 	 	 	 	 	 	 	 	 	 	 	 	 	 	 	 	 	1581541192	9.08	16.82
12/02/2020 20:59:53	120220	12022020	205953	238.51	12.295332	-56.951248	238.67	0.330	-0.160	-0.060	238.51	-1.60	0.40	 	 	 	 	 	 	 	 	 	 	 	 	 	 	 	 	 	 	1581541193	9.05	16.76
12/02/2020 20:59:54	120220	12022020	205954	238.88	12.295308	-56.951285	239.03	0.460	-0.530	-0.520	238.88	-1.90	-0.10	 	 	 	 	 	 	 	 	 	 	 	 	 	 	 	 	 	 	1581541194	9.20	17.04
12/02/2020 20:59:55	120220	12022020	205955	239.20	12.295285	-56.951322	239.33	0.470	-0.920	-0.500	239.20	-2.30	-0.00	 	 	 	 	 	 	 	 	 	 	 	 	 	 	 	 	 	 	1581541195	9.34	17.30
12/02/2020 20:59:56	120220	12022020	205956	239.33	12.295265	-56.951360	239.44	0.300	-1.160	-0.030	239.33	-2.50	0.50	 	 	 	 	 	 	 	 	 	 	 	 	 	 	 	 	 	 	1581541196	9.31	17.24
12/02/2020 20:59:57	120220	12022020	205957	239.14	12.295245	-56.951400	239.23	0.030	-1.310	0.870	239.14	-2.70	1.40	 	 	 	 	 	 	 	 	 	 	 	 	 	 	 	 	 	 	1581541197	9.42	17.45
12/02/2020 20:59:58	120220	12022020	205958	238.68	12.295227	-56.951443	238.77	-0.300	-1.300	1.930	238.68	-2.70	2.40	 	 	 	 	 	 	 	 	 	 	 	 	 	 	 	 	 	 	1581541198	9.74	18.04
12/02/2020 20:59:59	120220	12022020	205959	238.21	12.295210	-56.951487	238.33	-0.580	-0.890	2.650	238.21	-2.20	3.10	 	 	 	 	 	 	 	 	 	 	 	 	 	 	 	 	 	 	1581541199	9.81	18.17
12/02/2020 21:00:00	120220	12022020	210000	237.95	12.295193	-56.951527	238.09	-0.690	0.000	2.700	237.95	-1.30	3.10	 	 	 	 	 	 	 	 	 	 	 	 	 	 	 	 	 	 	1581541200	9.44	17.48
12/02/2020 21:00:01	120220	12022020	210001	237.82	12.295175	-56.951565	237.96	-0.550	0.920	2.120	237.82	-0.40	2.50	 	 	 	 	 	 	 	 	 	 	 	 	 	 	 	 	 	 	1581541201	9.08	16.82
12/02/2020 21:00:02	120220	12022020	210002	237.79	12.295152	-56.951602	237.90	-0.230	1.280	1.180	237.79	-0.10	1.60	1014.70	26.50	26.60	20.30	20.30	138.0	68.0	68.0	388.0	27.9	213.00	4.90	75.00	9.30	9062	9481.0	27.5	27.5	1581541202	9.24	17.11
12/02/2020 21:00:03	120220	12022020	210003	237.72	12.295125	-56.951638	237.81	0.140	1.020	0.380	237.72	-0.40	0.80	 	 	 	 	 	 	 	 	 	 	 	 	 	 	 	 	 	 	1581541203	9.63	17.83
12/02/2020 21:00:04	120220	12022020	210004	237.70	12.295098	-56.951675	237.79	0.390	0.490	0.070	237.70	-0.90	0.50	 	 	 	 	 	 	 	 	 	 	 	 	 	 	 	 	 	 	1581541204	9.61	17.80
12/02/2020 21:00:05	120220	12022020	210005	237.86	12.295075	-56.951713	237.96	0.510	-0.180	0.190	237.86	-1.60	0.70	 	 	 	 	 	 	 	 	 	 	 	 	 	 	 	 	 	 	1581541205	9.36	17.33
12/02/2020 21:00:06	120220	12022020	210006	238.15	12.295055	-56.951753	238.27	0.560	-0.950	0.530	238.15	-2.40	1.00	 	 	 	 	 	 	 	 	 	 	 	 	 	 	 	 	 	 	1581541206	9.37	17.35
12/02/2020 21:00:07	120220	12022020	210007	238.43	12.295037	-56.951793	238.61	0.520	-1.530	0.970	238.48	-2.90	1.40	 	 	 	 	 	 	 	 	 	 	 	 	 	 	 	 	 	 	1581541207	9.40	17.41
12/02/2020 21:00:08	120220	12022020	210008	238.63	12.295018	-56.951833	238.76	0.300	-1.690	1.530	238.63	-3.10	2.00	 	 	 	 	 	 	 	 	 	 	 	 	 	 	 	 	 	 	1581541208	9.27	17.17
12/02/2020 21:00:09	120220	12022020	210009	238.58	12.295002	-56.951873	238.68	-0.050	-1.440	2.060	238.54	-2.80	2.50	 	 	 	 	 	 	 	 	 	 	 	 	 	 	 	 	 	 	1581541209	9.20	17.04
12/02/2020 21:00:10	120220	12022020	210010	238.30	12.294983	-56.951912	238.45	-0.360	-0.880	2.250	238.30	-2.20	2.70	 	 	 	 	 	 	 	 	 	 	 	 	 	 	 	 	 	 	1581541210	9.19	17.02
12/02/2020 21:00:11	120220	12022020	210011	238.03	12.294963	-56.951950	238.16	-0.480	-0.150	1.950	238.03	-1.50	2.40	 	 	 	 	 	 	 	 	 	 	 	 	 	 	 	 	 	 	1581541211	9.16	16.96
12/02/2020 21:00:12	120220	12022020	210012	237.80	12.294938	-56.951987	237.92	-0.420	0.490	1.300	237.80	-0.90	1.70	 	 	 	 	 	 	 	 	 	 	 	 	 	 	 	 	 	 	1581541212	9.22	17.08
12/02/2020 21:00:13	120220	12022020	210013	237.72	12.294912	-56.952022	237.83	-0.280	0.650	0.550	237.72	-0.80	1.00	 	 	 	 	 	 	 	 	 	 	 	 	 	 	 	 	 	 	1581541213	9.53	17.65
12/02/2020 21:00:14	120220	12022020	210014	237.95	12.294885	-56.952060	238.08	-0.140	0.430	-0.070	237.95	-1.00	0.40	 	 	 	 	 	 	 	 	 	 	 	 	 	 	 	 	 	 	1581541214	9.83	18.21
12/02/2020 21:00:15	120220	12022020	210015	238.48	12.294862	-56.952098	238.63	-0.000	0.170	-0.300	238.48	-1.20	0.20	 	 	 	 	 	 	 	 	 	 	 	 	 	 	 	 	 	 	1581541215	9.70	17.96
12/02/2020 21:00:16	120220	12022020	210016	239.05	12.294842	-56.952137	239.21	0.130	0.030	0.020	239.05	-1.40	0.50	 	 	 	 	 	 	 	 	 	 	 	 	 	 	 	 	 	 	1581541216	9.34	17.30
12/02/2020 21:00:17	120220	12022020	210017	239.45	12.294823	-56.952177	239.59	0.290	-0.110	0.750	239.45	-1.50	1.20	 	 	 	 	 	 	 	 	 	 	 	 	 	 	 	 	 	 	1581541217	9.17	16.98
12/02/2020 21:00:18	120220	12022020	210018	239.67	12.294808	-56.952217	239.81	0.410	-0.280	1.390	239.67	-1.70	1.90	 	 	 	 	 	 	 	 	 	 	 	 	 	 	 	 	 	 	1581541218	9.15	16.95
12/02/2020 21:00:19	120220	12022020	210019	239.68	12.294790	-56.952257	239.80	0.380	-0.540	1.620	239.68	-1.90	2.10	 	 	 	 	 	 	 	 	 	 	 	 	 	 	 	 	 	 	1581541219	9.16	16.96
12/02/2020 21:00:20	120220	12022020	210020	239.33	12.294770	-56.952295	239.42	0.250	-0.960	1.580	239.33	-2.40	2.00	 	 	 	 	 	 	 	 	 	 	 	 	 	 	 	 	 	 	1581541220	9.36	17.33
12/02/2020 21:00:21	120220	12022020	210021	238.65	12.294747	-56.952335	238.73	0.110	-1.280	1.490	238.65	-2.70	1.90	 	 	 	 	 	 	 	 	 	 	 	 	 	 	 	 	 	 	1581541221	9.62	17.82
12/02/2020 21:00:22	120220	12022020	210022	237.97	12.294725	-56.952373	238.07	-0.050	-1.140	1.280	237.97	-2.50	1.70	 	 	 	 	 	 	 	 	 	 	 	 	 	 	 	 	 	 	1581541222	9.50	17.59
12/02/2020 21:00:23	120220	12022020	210023	237.74	12.294703	-56.952412	237.88	-0.250	-0.470	0.720	237.74	-1.80	1.10	 	 	 	 	 	 	 	 	 	 	 	 	 	 	 	 	 	 	1581541223	9.07	16.80
12/02/2020 21:00:24	120220	12022020	210024	238.14	12.294683	-56.952447	238.30	-0.380	0.320	-0.170	238.14	-1.00	0.30	 	 	 	 	 	 	 	 	 	 	 	 	 	 	 	 	 	 	1581541224	8.78	16.26
12/02/2020 21:00:25	120220	12022020	210025	238.95	12.294662	-56.952482	239.13	-0.280	0.740	-1.070	238.95	-0.70	-0.60	 	 	 	 	 	 	 	 	 	 	 	 	 	 	 	 	 	 	1581541225	8.89	16.46
12/02/2020 21:00:26	120220	12022020	210026	239.81	12.294637	-56.952520	239.98	-0.040	0.400	-1.440	239.81	-1.00	-1.00	 	 	 	 	 	 	 	 	 	 	 	 	 	 	 	 	 	 	1581541226	9.47	17.54
12/02/2020 21:00:27	120220	12022020	210027	240.43	12.294613	-56.952560	240.57	0.120	-0.360	-0.990	240.43	-1.80	-0.50	 	 	 	 	 	 	 	 	 	 	 	 	 	 	 	 	 	 	1581541227	9.97	18.46
12/02/2020 21:00:28	120220	12022020	210028	240.62	12.294593	-56.952603	240.74	0.080	-0.860	0.010	240.62	-2.30	0.50	 	 	 	 	 	 	 	 	 	 	 	 	 	 	 	 	 	 	1581541228	9.89	18.32
12/02/2020 21:00:29	120220	12022020	210029	240.49	12.294577	-56.952643	240.62	-0.070	-0.830	1.100	240.49	-2.20	1.60	 	 	 	 	 	 	 	 	 	 	 	 	 	 	 	 	 	 	1581541229	9.44	17.48
12/02/2020 21:00:30	120220	12022020	210030	240.27	12.294562	-56.952683	240.40	-0.190	-0.440	1.840	240.27	-1.80	2.30	 	 	 	 	 	 	 	 	 	 	 	 	 	 	 	 	 	 	1581541230	9.05	16.76
12/02/2020 21:00:31	120220	12022020	210031	239.99	12.294543	-56.952722	240.11	-0.180	-0.070	2.110	239.99	-1.40	2.60	 	 	 	 	 	 	 	 	 	 	 	 	 	 	 	 	 	 	1581541231	8.96	16.59
12/02/2020 21:00:32	120220	12022020	210032	239.51	12.294525	-56.952760	239.60	-0.030	0.070	2.060	239.51	-1.30	2.50	 	 	 	 	 	 	 	 	 	 	 	 	 	 	 	 	 	 	1581541232	9.14	16.93
12/02/2020 21:00:33	120220	12022020	210033	238.82	12.294503	-56.952800	238.88	0.190	-0.010	1.840	238.82	-1.40	2.30	 	 	 	 	 	 	 	 	 	 	 	 	 	 	 	 	 	 	1581541233	9.39	17.39
12/02/2020 21:00:34	120220	12022020	210034	238.14	12.294483	-56.952838	238.22	0.330	-0.140	1.430	238.14	-1.50	1.90	 	 	 	 	 	 	 	 	 	 	 	 	 	 	 	 	 	 	1581541234	9.43	17.46
12/02/2020 21:00:35	120220	12022020	210035	237.78	12.294462	-56.952877	237.88	0.340	-0.300	0.870	237.78	-1.70	1.30	 	 	 	 	 	 	 	 	 	 	 	 	 	 	 	 	 	 	1581541235	9.32	17.26
12/02/2020 21:00:36	120220	12022020	210036	237.88	12.294440	-56.952915	238.00	0.230	-0.540	0.230	237.88	-2.00	0.70	 	 	 	 	 	 	 	 	 	 	 	 	 	 	 	 	 	 	1581541236	9.33	17.28
12/02/2020 21:00:37	120220	12022020	210037	238.52	12.294418	-56.952955	238.69	0.030	-0.770	-0.470	238.52	-2.20	-0.00	 	 	 	 	 	 	 	 	 	 	 	 	 	 	 	 	 	 	1581541237	9.42	17.45
12/02/2020 21:00:38	120220	12022020	210038	239.54	12.294397	-56.952992	239.72	-0.210	-0.720	-1.050	239.54	-2.10	-0.60	 	 	 	 	 	 	 	 	 	 	 	 	 	 	 	 	 	 	1581541238	9.31	17.24
12/02/2020 21:00:39	120220	12022020	210039	240.62	12.294375	-56.953028	240.75	-0.430	-0.420	-1.270	240.62	-1.80	-0.80	 	 	 	 	 	 	 	 	 	 	 	 	 	 	 	 	 	 	1581541239	9.09	16.83
12/02/2020 21:00:40	120220	12022020	210040	241.40	12.294355	-56.953067	241.50	-0.490	-0.050	-0.930	241.40	-1.40	-0.40	 	 	 	 	 	 	 	 	 	 	 	 	 	 	 	 	 	 	1581541240	8.99	16.65
12/02/2020 21:00:41	120220	12022020	210041	241.59	12.294335	-56.953105	241.64	-0.330	0.180	-0.080	241.59	-1.20	0.40	 	 	 	 	 	 	 	 	 	 	 	 	 	 	 	 	 	 	1581541241	9.04	16.74
12/02/2020 21:00:42	120220	12022020	210042	241.15	12.294318	-56.953145	241.17	0.010	0.070	1.010	241.15	-1.30	1.50	 	 	 	 	 	 	 	 	 	 	 	 	 	 	 	 	 	 	1581541242	9.31	17.24
12/02/2020 21:00:43	120220	12022020	210043	240.28	12.294300	-56.953187	240.30	0.380	-0.290	1.920	240.28	-1.70	2.40	 	 	 	 	 	 	 	 	 	 	 	 	 	 	 	 	 	 	1581541243	9.64	17.85
12/02/2020 21:00:44	120220	12022020	210044	239.28	12.294280	-56.953228	239.32	0.570	-0.600	2.290	239.28	-2.00	2.70	 	 	 	 	 	 	 	 	 	 	 	 	 	 	 	 	 	 	1581541244	9.70	17.96
12/02/2020 21:00:45	120220	12022020	210045	238.44	12.294260	-56.953267	238.52	0.480	-0.670	2.070	238.44	-2.10	2.50	 	 	 	 	 	 	 	 	 	 	 	 	 	 	 	 	 	 	1581541245	9.47	17.54
12/02/2020 21:00:46	120220	12022020	210046	237.93	12.294238	-56.953305	238.04	0.160	-0.620	1.550	237.93	-2.00	2.00	 	 	 	 	 	 	 	 	 	 	 	 	 	 	 	 	 	 	1581541246	9.29	17.21
12/02/2020 21:00:47	120220	12022020	210047	237.84	12.294218	-56.953345	237.99	-0.230	-0.560	0.970	237.84	-1.90	1.40	 	 	 	 	 	 	 	 	 	 	 	 	 	 	 	 	 	 	1581541247	9.34	17.30
12/02/2020 21:00:48	120220	12022020	210048	238.26	12.294198	-56.953385	238.43	-0.510	-0.390	0.390	238.26	-1.80	0.80	 	 	 	 	 	 	 	 	 	 	 	 	 	 	 	 	 	 	1581541248	9.36	17.33
12/02/2020 21:00:49	120220	12022020	210049	239.12	12.294180	-56.953423	239.32	-0.600	0.070	-0.180	239.12	-1.30	0.20	 	 	 	 	 	 	 	 	 	 	 	 	 	 	 	 	 	 	1581541249	9.10	16.85
12/02/2020 21:00:50	120220	12022020	210050	240.17	12.294160	-56.953460	240.35	-0.470	0.580	-0.590	240.17	-0.80	-0.20	 	 	 	 	 	 	 	 	 	 	 	 	 	 	 	 	 	 	1581541250	8.77	16.24
12/02/2020 21:00:51	120220	12022020	210051	240.91	12.294140	-56.953497	241.05	-0.200	0.580	-0.550	240.91	-0.80	-0.10	 	 	 	 	 	 	 	 	 	 	 	 	 	 	 	 	 	 	1581541251	8.96	16.59
12/02/2020 21:00:52	120220	12022020	210052	241.12	12.294118	-56.953535	241.22	0.100	0.010	-0.130	241.12	-1.40	0.30	 	 	 	 	 	 	 	 	 	 	 	 	 	 	 	 	 	 	1581541252	9.48	17.56
12/02/2020 21:00:53	120220	12022020	210053	240.89	12.294097	-56.953575	240.96	0.340	-0.600	0.540	240.89	-2.00	1.00	 	 	 	 	 	 	 	 	 	 	 	 	 	 	 	 	 	 	1581541253	9.63	17.83
12/02/2020 21:00:54	120220	12022020	210054	240.31	12.294078	-56.953615	240.36	0.500	-0.880	1.340	240.31	-2.30	1.80	 	 	 	 	 	 	 	 	 	 	 	 	 	 	 	 	 	 	1581541254	9.34	17.30
12/02/2020 21:00:55	120220	12022020	210055	239.58	12.294060	-56.953653	239.66	0.570	-0.850	1.980	239.58	-2.20	2.40	 	 	 	 	 	 	 	 	 	 	 	 	 	 	 	 	 	 	1581541255	9.05	16.76
12/02/2020 21:00:56	120220	12022020	210056	239.00	12.294042	-56.953692	239.10	0.530	-0.800	2.080	239.00	-2.20	2.50	 	 	 	 	 	 	 	 	 	 	 	 	 	 	 	 	 	 	1581541256	9.05	16.76
12/02/2020 21:00:57	120220	12022020	210057	238.74	12.294022	-56.953732	238.83	0.340	-0.860	1.680	238.71	-2.30	2.10	 	 	 	 	 	 	 	 	 	 	 	 	 	 	 	 	 	 	1581541257	9.33	17.28
12/02/2020 21:00:58	120220	12022020	210058	238.71	12.294002	-56.953772	238.83	-0.020	-0.780	0.970	238.71	-2.20	1.40	 	 	 	 	 	 	 	 	 	 	 	 	 	 	 	 	 	 	1581541258	9.49	17.58
12/02/2020 21:00:59	120220	12022020	210059	238.89	12.293980	-56.953808	239.08	-0.440	-0.360	0.250	238.95	-1.70	0.70	 	 	 	 	 	 	 	 	 	 	 	 	 	 	 	 	 	 	1581541259	9.28	17.19
12/02/2020 21:01:00	120220	12022020	210100	239.32	12.293958	-56.953847	239.45	-0.720	0.190	-0.240	239.32	-1.20	0.20	 	 	 	 	 	 	 	 	 	 	 	 	 	 	 	 	 	 	1581541260	9.09	16.83
12/02/2020 21:01:01	120220	12022020	210101	239.66	12.293937	-56.953883	239.79	-0.720	0.570	-0.360	239.66	-0.80	0.10	 	 	 	 	 	 	 	 	 	 	 	 	 	 	 	 	 	 	1581541261	9.14	16.93
12/02/2020 21:01:02	120220	12022020	210102	239.76	12.293915	-56.953922	239.87	-0.460	0.600	-0.010	239.76	-0.80	0.50	1014.80	26.50	26.70	20.30	20.40	128.0	68.0	68.0	388.0	27.9	212.00	4.60	75.00	9.00	8822	10303.0	27.5	27.4	1581541262	9.32	17.26
12/02/2020 21:01:03	120220	12022020	210103	239.58	12.293897	-56.953962	239.68	-0.110	0.340	0.640	239.58	-1.10	1.10	 	 	 	 	 	 	 	 	 	 	 	 	 	 	 	 	 	 	1581541263	9.51	17.61
12/02/2020 21:01:04	120220	12022020	210104	239.27	12.293878	-56.954003	239.38	0.180	0.030	1.360	239.27	-1.40	1.80	 	 	 	 	 	 	 	 	 	 	 	 	 	 	 	 	 	 	1581541264	9.44	17.48
12/02/2020 21:01:05	120220	12022020	210105	238.97	12.293860	-56.954043	239.10	0.360	-0.240	1.710	238.97	-1.70	2.10	 	 	 	 	 	 	 	 	 	 	 	 	 	 	 	 	 	 	1581541265	9.23	17.09
12/02/2020 21:01:06	120220	12022020	210106	238.88	12.293842	-56.954080	239.04	0.480	-0.480	1.410	238.88	-1.90	1.80	 	 	 	 	 	 	 	 	 	 	 	 	 	 	 	 	 	 	1581541266	9.01	16.69
12/02/2020 21:01:07	120220	12022020	210107	239.09	12.293818	-56.954117	239.26	0.590	-0.780	0.610	239.09	-2.20	1.00	 	 	 	 	 	 	 	 	 	 	 	 	 	 	 	 	 	 	1581541267	9.02	16.71
12/02/2020 21:01:08	120220	12022020	210108	239.47	12.293795	-56.954153	239.62	0.630	-1.070	-0.150	239.47	-2.50	0.30	 	 	 	 	 	 	 	 	 	 	 	 	 	 	 	 	 	 	1581541268	9.16	16.96
12/02/2020 21:01:09	120220	12022020	210109	239.68	12.293772	-56.954190	239.78	0.510	-1.230	-0.360	239.68	-2.60	0.10	 	 	 	 	 	 	 	 	 	 	 	 	 	 	 	 	 	 	1581541269	9.28	17.19
12/02/2020 21:01:10	120220	12022020	210110	239.48	12.293752	-56.954228	239.54	0.190	-1.120	0.050	239.48	-2.50	0.50	 	 	 	 	 	 	 	 	 	 	 	 	 	 	 	 	 	 	1581541270	9.32	17.26
12/02/2020 21:01:11	120220	12022020	210111	238.88	12.293733	-56.954268	238.95	-0.230	-0.780	0.840	238.88	-2.20	1.30	 	 	 	 	 	 	 	 	 	 	 	 	 	 	 	 	 	 	1581541271	9.37	17.35
12/02/2020 21:01:12	120220	12022020	210112	238.18	12.293717	-56.954310	238.26	-0.570	-0.340	1.580	238.18	-1.70	2.00	 	 	 	 	 	 	 	 	 	 	 	 	 	 	 	 	 	 	1581541272	9.53	17.65
12/02/2020 21:01:13	120220	12022020	210113	237.75	12.293698	-56.954352	237.88	-0.750	0.190	1.900	237.75	-1.20	2.30	 	 	 	 	 	 	 	 	 	 	 	 	 	 	 	 	 	 	1581541273	9.53	17.65
12/02/2020 21:01:14	120220	12022020	210114	237.73	12.293680	-56.954392	237.90	-0.740	0.740	1.770	237.73	-0.60	2.20	 	 	 	 	 	 	 	 	 	 	 	 	 	 	 	 	 	 	1581541274	9.35	17.32
12/02/2020 21:01:15	120220	12022020	210115	238.06	12.293660	-56.954430	238.24	-0.540	1.130	1.310	238.06	-0.30	1.70	 	 	 	 	 	 	 	 	 	 	 	 	 	 	 	 	 	 	1581541275	9.12	16.89
12/02/2020 21:01:16	120220	12022020	210116	238.51	12.293638	-56.954467	238.65	-0.190	1.060	0.750	238.51	-0.40	1.20	 	 	 	 	 	 	 	 	 	 	 	 	 	 	 	 	 	 	1581541276	9.09	16.83
12/02/2020 21:01:17	120220	12022020	210117	238.79	12.293615	-56.954503	238.91	0.260	0.390	0.380	238.79	-1.10	0.80	 	 	 	 	 	 	 	 	 	 	 	 	 	 	 	 	 	 	1581541277	9.36	17.33
12/02/2020 21:01:18	120220	12022020	210118	238.85	12.293592	-56.954543	238.96	0.650	-0.570	0.280	238.85	-2.00	0.70	 	 	 	 	 	 	 	 	 	 	 	 	 	 	 	 	 	 	1581541278	9.55	17.69
12/02/2020 21:01:19	120220	12022020	210119	238.70	12.293570	-56.954582	238.79	0.810	-1.410	0.410	238.70	-2.90	0.90	 	 	 	 	 	 	 	 	 	 	 	 	 	 	 	 	 	 	1581541279	9.42	17.45
12/02/2020 21:01:20	120220	12022020	210120	238.33	12.293550	-56.954620	238.41	0.720	-1.940	0.830	238.33	-3.30	1.30	 	 	 	 	 	 	 	 	 	 	 	 	 	 	 	 	 	 	1581541280	9.32	17.26
12/02/2020 21:01:21	120220	12022020	210121	237.80	12.293532	-56.954660	237.88	0.440	-1.940	1.460	237.80	-3.30	1.90	 	 	 	 	 	 	 	 	 	 	 	 	 	 	 	 	 	 	1581541281	9.30	17.22
12/02/2020 21:01:22	120220	12022020	210122	237.27	12.293515	-56.954700	237.36	0.010	-1.340	1.990	237.27	-2.70	2.50	 	 	 	 	 	 	 	 	 	 	 	 	 	 	 	 	 	 	1581541282	9.17	16.98
12/02/2020 21:01:23	120220	12022020	210123	236.88	12.293498	-56.954738	237.00	-0.450	-0.320	2.250	236.88	-1.70	2.70	 	 	 	 	 	 	 	 	 	 	 	 	 	 	 	 	 	 	1581541283	9.05	16.76
12/02/2020 21:01:24	120220	12022020	210124	236.72	12.293480	-56.954778	236.84	-0.740	0.710	2.180	236.72	-0.60	2.60	 	 	 	 	 	 	 	 	 	 	 	 	 	 	 	 	 	 	1581541284	9.03	16.72
12/02/2020 21:01:25	120220	12022020	210125	236.78	12.293460	-56.954817	236.90	-0.700	1.410	1.740	236.78	0.00	2.20	 	 	 	 	 	 	 	 	 	 	 	 	 	 	 	 	 	 	1581541285	9.09	16.83
12/02/2020 21:01:26	120220	12022020	210126	236.96	12.293438	-56.954853	237.06	-0.320	1.470	1.060	236.96	0.00	1.50	 	 	 	 	 	 	 	 	 	 	 	 	 	 	 	 	 	 	1581541286	9.29	17.21
12/02/2020 21:01:27	120220	12022020	210127	237.14	12.293412	-56.954890	237.22	0.220	0.760	0.400	237.14	-0.70	0.80	 	 	 	 	 	 	 	 	 	 	 	 	 	 	 	 	 	 	1581541287	9.66	17.89
12/02/2020 21:01:28	120220	12022020	210128	237.16	12.293385	-56.954930	237.22	0.620	-0.410	0.230	237.16	-1.90	0.70	 	 	 	 	 	 	 	 	 	 	 	 	 	 	 	 	 	 	1581541288	9.97	18.46
12/02/2020 21:01:29	120220	12022020	210129	236.92	12.293363	-56.954970	236.95	0.610	-1.280	0.610	236.92	-2.70	1.10	 	 	 	 	 	 	 	 	 	 	 	 	 	 	 	 	 	 	1581541289	9.80	18.15
12/02/2020 21:01:30	120220	12022020	210130	236.51	12.293345	-56.955008	236.56	0.280	-1.340	1.220	236.51	-2.70	1.70	 	 	 	 	 	 	 	 	 	 	 	 	 	 	 	 	 	 	1581541290	9.10	16.85
12/02/2020 21:01:31	120220	12022020	210131	236.16	12.293328	-56.955045	236.22	-0.060	-0.860	1.610	236.16	-2.20	2.10	 	 	 	 	 	 	 	 	 	 	 	 	 	 	 	 	 	 	1581541291	8.51	15.76
12/02/2020 21:01:32	120220	12022020	210132	235.87	12.293312	-56.955082	235.93	-0.150	-0.540	1.560	235.87	-1.90	2.00	 	 	 	 	 	 	 	 	 	 	 	 	 	 	 	 	 	 	1581541292	8.56	15.85
12/02/2020 21:01:33	120220	12022020	210133	235.56	12.293290	-56.955118	235.61	-0.010	-0.670	1.320	235.56	-2.10	1.80	 	 	 	 	 	 	 	 	 	 	 	 	 	 	 	 	 	 	1581541293	9.18	17.00
12/02/2020 21:01:34	120220	12022020	210134	235.25	12.293265	-56.955158	235.30	0.090	-0.860	1.140	235.25	-2.20	1.60	 	 	 	 	 	 	 	 	 	 	 	 	 	 	 	 	 	 	1581541294	9.68	17.93
12/02/2020 21:01:35	120220	12022020	210135	235.07	12.293242	-56.955197	235.11	-0.060	-0.670	1.040	235.07	-2.00	1.50	 	 	 	 	 	 	 	 	 	 	 	 	 	 	 	 	 	 	1581541295	9.55	17.69
12/02/2020 21:01:36	120220	12022020	210136	234.83	12.293220	-56.955233	234.85	-0.340	-0.120	1.250	234.83	-1.50	1.70	 	 	 	 	 	 	 	 	 	 	 	 	 	 	 	 	 	 	1581541296	9.21	17.06
12/02/2020 21:01:37	120220	12022020	210137	234.46	12.293200	-56.955272	234.49	-0.490	0.480	1.610	234.46	-0.90	2.10	 	 	 	 	 	 	 	 	 	 	 	 	 	 	 	 	 	 	1581541297	9.10	16.85
12/02/2020 21:01:38	120220	12022020	210138	234.19	12.293180	-56.955308	234.22	-0.410	0.880	1.760	234.19	-0.50	2.20	 	 	 	 	 	 	 	 	 	 	 	 	 	 	 	 	 	 	1581541298	9.13	16.91
12/02/2020 21:01:39	120220	12022020	210139	234.11	12.293158	-56.955347	234.15	-0.150	0.850	1.630	234.11	-0.60	2.10	 	 	 	 	 	 	 	 	 	 	 	 	 	 	 	 	 	 	1581541299	9.21	17.06
12/02/2020 21:01:40	120220	12022020	210140	234.08	12.293135	-56.955385	234.10	0.210	0.350	1.320	234.08	-1.10	1.80	 	 	 	 	 	 	 	 	 	 	 	 	 	 	 	 	 	 	1581541300	9.37	17.35
12/02/2020 21:01:41	120220	12022020	210141	233.92	12.293112	-56.955422	233.94	0.540	-0.360	0.960	233.92	-1.80	1.40	 	 	 	 	 	 	 	 	 	 	 	 	 	 	 	 	 	 	1581541301	9.45	17.50
12/02/2020 21:01:42	120220	12022020	210142	233.68	12.293087	-56.955458	233.68	0.670	-0.890	0.710	233.68	-2.30	1.20	 	 	 	 	 	 	 	 	 	 	 	 	 	 	 	 	 	 	1581541302	9.26	17.15
12/02/2020 21:01:43	120220	12022020	210143	233.35	12.293063	-56.955493	233.36	0.610	-1.130	0.660	233.35	-2.50	1.10	 	 	 	 	 	 	 	 	 	 	 	 	 	 	 	 	 	 	1581541303	9.01	16.69
12/02/2020 21:01:44	120220	12022020	210144	232.98	12.293042	-56.955528	232.99	0.420	-1.080	0.940	232.98	-2.50	1.40	 	 	 	 	 	 	 	 	 	 	 	 	 	 	 	 	 	 	1581541304	8.87	16.43
12/02/2020 21:01:45	120220	12022020	210145	232.59	12.293020	-56.955565	232.61	0.150	-0.860	1.450	232.59	-2.20	1.90	 	 	 	 	 	 	 	 	 	 	 	 	 	 	 	 	 	 	1581541305	8.94	16.56
12/02/2020 21:01:46	120220	12022020	210146	232.23	12.293000	-56.955603	232.25	-0.170	-0.580	1.870	232.23	-1.90	2.30	 	 	 	 	 	 	 	 	 	 	 	 	 	 	 	 	 	 	1581541306	9.11	16.87
12/02/2020 21:01:47	120220	12022020	210147	232.07	12.292978	-56.955642	232.11	-0.490	-0.300	1.970	232.05	-1.70	2.40	 	 	 	 	 	 	 	 	 	 	 	 	 	 	 	 	 	 	1581541307	9.24	17.11
12/02/2020 21:01:48	120220	12022020	210148	232.12	12.292957	-56.955678	232.19	-0.690	-0.020	1.800	232.12	-1.40	2.20	 	 	 	 	 	 	 	 	 	 	 	 	 	 	 	 	 	 	1581541308	9.25	17.13
12/02/2020 21:01:49	120220	12022020	210149	232.27	12.292932	-56.955715	232.37	-0.640	0.170	1.460	232.30	-1.20	1.90	 	 	 	 	 	 	 	 	 	 	 	 	 	 	 	 	 	 	1581541309	9.23	17.09
12/02/2020 21:01:50	120220	12022020	210150	232.46	12.292907	-56.955750	232.52	-0.370	0.190	1.130	232.46	-1.20	1.60	 	 	 	 	 	 	 	 	 	 	 	 	 	 	 	 	 	 	1581541310	9.28	17.19
12/02/2020 21:01:51	120220	12022020	210151	232.45	12.292882	-56.955785	232.50	-0.020	0.020	1.020	232.45	-1.40	1.50	 	 	 	 	 	 	 	 	 	 	 	 	 	 	 	 	 	 	1581541311	9.36	17.33
12/02/2020 21:01:52	120220	12022020	210152	232.24	12.292855	-56.955822	232.30	0.260	-0.260	1.200	232.24	-1.60	1.70	 	 	 	 	 	 	 	 	 	 	 	 	 	 	 	 	 	 	1581541312	9.42	17.45
12/02/2020 21:01:53	120220	12022020	210153	231.92	12.292832	-56.955858	231.97	0.430	-0.400	1.560	231.92	-1.80	2.00	 	 	 	 	 	 	 	 	 	 	 	 	 	 	 	 	 	 	1581541313	9.31	17.24
12/02/2020 21:01:54	120220	12022020	210154	231.56	12.292808	-56.955895	231.61	0.490	-0.360	1.860	231.56	-1.70	2.30	 	 	 	 	 	 	 	 	 	 	 	 	 	 	 	 	 	 	1581541314	9.10	16.85
12/02/2020 21:01:55	120220	12022020	210155	231.24	12.292787	-56.955930	231.32	0.430	-0.270	1.980	231.24	-1.60	2.40	 	 	 	 	 	 	 	 	 	 	 	 	 	 	 	 	 	 	1581541315	9.02	16.71
12/02/2020 21:01:56	120220	12022020	210156	231.15	12.292763	-56.955967	231.25	0.220	-0.280	1.800	231.15	-1.70	2.20	 	 	 	 	 	 	 	 	 	 	 	 	 	 	 	 	 	 	1581541316	9.10	16.85
12/02/2020 21:01:57	120220	12022020	210157	231.30	12.292740	-56.956003	231.41	-0.040	-0.320	1.380	231.30	-1.70	1.80	 	 	 	 	 	 	 	 	 	 	 	 	 	 	 	 	 	 	1581541317	9.20	17.04
12/02/2020 21:01:58	120220	12022020	210158	231.63	12.292717	-56.956038	231.74	-0.260	-0.260	0.820	231.63	-1.60	1.30	 	 	 	 	 	 	 	 	 	 	 	 	 	 	 	 	 	 	1581541318	9.10	16.85
12/02/2020 21:01:59	120220	12022020	210159	231.95	12.292692	-56.956073	232.05	-0.340	-0.150	0.400	231.95	-1.50	0.90	 	 	 	 	 	 	 	 	 	 	 	 	 	 	 	 	 	 	1581541319	8.97	16.61
12/02/2020 21:02:00	120220	12022020	210200	232.05	12.292667	-56.956108	232.13	-0.220	-0.070	0.390	232.05	-1.50	0.90	 	 	 	 	 	 	 	 	 	 	 	 	 	 	 	 	 	 	1581541320	8.99	16.65
12/02/2020 21:02:01	120220	12022020	210201	232.06	12.292643	-56.956142	232.15	-0.030	-0.030	0.550	232.06	-1.40	1.00	 	 	 	 	 	 	 	 	 	 	 	 	 	 	 	 	 	 	1581541321	9.01	16.69
12/02/2020 21:02:02	120220	12022020	210202	232.18	12.292618	-56.956177	232.29	0.090	-0.160	0.800	232.18	-1.60	1.30	1014.70	26.50	26.50	20.20	20.20	103.0	68.0	68.0	389.0	27.8	217.00	5.60	76.00	9.80	8477	10265.0	27.4	27.4	1581541322	9.03	16.72
12/02/2020 21:02:03	120220	12022020	210203	232.33	12.292593	-56.956212	232.44	0.150	-0.550	1.260	232.33	-2.00	1.80	 	 	 	 	 	 	 	 	 	 	 	 	 	 	 	 	 	 	1581541323	9.20	17.04
12/02/2020 21:02:04	120220	12022020	210204	232.24	12.292568	-56.956250	232.32	0.190	-1.130	1.910	232.24	-2.50	2.40	 	 	 	 	 	 	 	 	 	 	 	 	 	 	 	 	 	 	1581541324	9.49	17.58
12/02/2020 21:02:05	120220	12022020	210205	231.85	12.292545	-56.956290	231.92	0.150	-1.580	2.560	231.85	-3.00	3.00	 	 	 	 	 	 	 	 	 	 	 	 	 	 	 	 	 	 	1581541325	9.81	18.17
12/02/2020 21:02:06	120220	12022020	210206	231.51	12.292523	-56.956328	231.61	-0.040	-1.390	2.750	231.51	-2.70	3.20	 	 	 	 	 	 	 	 	 	 	 	 	 	 	 	 	 	 	1581541326	9.64	17.85
12/02/2020 21:02:07	120220	12022020	210207	231.57	12.292500	-56.956365	231.69	-0.320	-0.490	2.470	231.57	-1.80	2.90	 	 	 	 	 	 	 	 	 	 	 	 	 	 	 	 	 	 	1581541327	9.02	16.71
12/02/2020 21:02:08	120220	12022020	210208	231.87	12.292478	-56.956400	232.00	-0.480	0.510	1.980	231.87	-0.80	2.40	 	 	 	 	 	 	 	 	 	 	 	 	 	 	 	 	 	 	1581541328	8.70	16.11
12/02/2020 21:02:09	120220	12022020	210209	232.20	12.292453	-56.956433	232.31	-0.410	1.040	1.450	232.20	-0.30	1.90	 	 	 	 	 	 	 	 	 	 	 	 	 	 	 	 	 	 	1581541329	9.00	16.67
12/02/2020 21:02:10	120220	12022020	210210	232.54	12.292428	-56.956468	232.66	-0.190	1.090	1.010	232.54	-0.30	1.50	 	 	 	 	 	 	 	 	 	 	 	 	 	 	 	 	 	 	1581541330	9.33	17.28
12/02/2020 21:02:11	120220	12022020	210211	232.82	12.292402	-56.956505	233.01	0.050	0.790	0.820	232.89	-0.60	1.30	 	 	 	 	 	 	 	 	 	 	 	 	 	 	 	 	 	 	1581541331	9.38	17.37
12/02/2020 21:02:12	120220	12022020	210212	233.21	12.292375	-56.956540	233.33	0.220	0.210	0.860	233.21	-1.20	1.30	 	 	 	 	 	 	 	 	 	 	 	 	 	 	 	 	 	 	1581541332	9.37	17.35
12/02/2020 21:02:13	120220	12022020	210213	233.42	12.292350	-56.956575	233.60	0.290	-0.390	1.020	233.47	-1.80	1.50	 	 	 	 	 	 	 	 	 	 	 	 	 	 	 	 	 	 	1581541333	9.29	17.21
12/02/2020 21:02:14	120220	12022020	210214	233.77	12.292327	-56.956612	233.93	0.250	-0.710	1.100	233.77	-2.10	1.60	 	 	 	 	 	 	 	 	 	 	 	 	 	 	 	 	 	 	1581541334	8.99	16.65
12/02/2020 21:02:15	120220	12022020	210215	234.27	12.292303	-56.956645	234.43	0.170	-0.860	0.760	234.27	-2.30	1.20	 	 	 	 	 	 	 	 	 	 	 	 	 	 	 	 	 	 	1581541335	8.68	16.08
12/02/2020 21:02:16	120220	12022020	210216	234.95	12.292278	-56.956678	235.09	0.140	-1.200	0.220	234.95	-2.60	0.70	 	 	 	 	 	 	 	 	 	 	 	 	 	 	 	 	 	 	1581541336	8.80	16.30
12/02/2020 21:02:17	120220	12022020	210217	235.59	12.292253	-56.956713	235.71	0.190	-1.770	-0.010	235.59	-3.20	0.50	 	 	 	 	 	 	 	 	 	 	 	 	 	 	 	 	 	 	1581541337	9.35	17.32
12/02/2020 21:02:18	120220	12022020	210218	235.99	12.292228	-56.956752	236.08	0.180	-2.080	0.290	235.99	-3.50	0.80	 	 	 	 	 	 	 	 	 	 	 	 	 	 	 	 	 	 	1581541338	9.66	17.89
12/02/2020 21:02:19	120220	12022020	210219	235.88	12.292205	-56.956790	235.96	-0.000	-1.750	1.050	235.88	-3.10	1.60	 	 	 	 	 	 	 	 	 	 	 	 	 	 	 	 	 	 	1581541339	9.63	17.83
12/02/2020 21:02:20	120220	12022020	210220	235.53	12.292185	-56.956830	235.62	-0.400	-0.710	1.850	235.53	-2.00	2.30	 	 	 	 	 	 	 	 	 	 	 	 	 	 	 	 	 	 	1581541340	9.42	17.45
12/02/2020 21:02:21	120220	12022020	210221	235.37	12.292165	-56.956868	235.49	-0.820	0.750	2.240	235.37	-0.60	2.70	 	 	 	 	 	 	 	 	 	 	 	 	 	 	 	 	 	 	1581541341	9.08	16.82
12/02/2020 21:02:22	120220	12022020	210222	235.70	12.292147	-56.956905	235.88	-1.020	1.990	2.110	235.70	0.60	2.50	 	 	 	 	 	 	 	 	 	 	 	 	 	 	 	 	 	 	1581541342	8.89	16.46
12/02/2020 21:02:23	120220	12022020	210223	236.37	12.292125	-56.956942	236.78	-0.800	2.350	1.520	236.59	0.90	1.90	 	 	 	 	 	 	 	 	 	 	 	 	 	 	 	 	 	 	1581541343	9.07	16.80
12/02/2020 21:02:24	120220	12022020	210224	237.82	12.292100	-56.956980	238.01	-0.210	1.660	0.700	237.82	0.20	1.10	 	 	 	 	 	 	 	 	 	 	 	 	 	 	 	 	 	 	1581541344	9.55	17.69
12/02/2020 21:02:25	120220	12022020	210225	238.87	12.292073	-56.957018	239.28	0.460	0.390	0.050	239.09	-1.10	0.50	 	 	 	 	 	 	 	 	 	 	 	 	 	 	 	 	 	 	1581541345	9.84	18.22
12/02/2020 21:02:26	120220	12022020	210226	240.11	12.292050	-56.957055	240.28	0.850	-0.740	-0.180	240.11	-2.20	0.30	 	 	 	 	 	 	 	 	 	 	 	 	 	 	 	 	 	 	1581541346	9.50	17.59
12/02/2020 21:02:27	120220	12022020	210227	240.82	12.292028	-56.957092	240.98	0.840	-1.310	-0.160	240.82	-2.70	0.30	 	 	 	 	 	 	 	 	 	 	 	 	 	 	 	 	 	 	1581541347	8.79	16.28
12/02/2020 21:02:28	120220	12022020	210228	241.27	12.292008	-56.957125	241.40	0.600	-1.510	0.020	241.27	-2.90	0.50	 	 	 	 	 	 	 	 	 	 	 	 	 	 	 	 	 	 	1581541348	8.32	15.41
12/02/2020 21:02:29	120220	12022020	210229	241.50	12.291990	-56.957160	241.61	0.380	-1.790	0.370	241.50	-3.20	0.90	 	 	 	 	 	 	 	 	 	 	 	 	 	 	 	 	 	 	1581541349	8.58	15.89
12/02/2020 21:02:30	120220	12022020	210230	241.51	12.291972	-56.957200	241.63	0.210	-2.080	0.800	241.51	-3.50	1.30	 	 	 	 	 	 	 	 	 	 	 	 	 	 	 	 	 	 	1581541350	9.22	17.08
12/02/2020 21:02:31	120220	12022020	210231	241.43	12.291952	-56.957240	241.54	-0.030	-1.950	0.980	241.43	-3.30	1.40	 	 	 	 	 	 	 	 	 	 	 	 	 	 	 	 	 	 	1581541351	9.49	17.58
12/02/2020 21:02:32	120220	12022020	210232	241.46	12.291932	-56.957280	241.59	-0.430	-1.240	0.800	241.46	-2.60	1.20	 	 	 	 	 	 	 	 	 	 	 	 	 	 	 	 	 	 	1581541352	9.34	17.30
12/02/2020 21:02:33	120220	12022020	210233	241.71	12.291912	-56.957318	241.86	-0.860	-0.120	0.330	241.71	-1.50	0.70	 	 	 	 	 	 	 	 	 	 	 	 	 	 	 	 	 	 	1581541353	9.16	16.96
12/02/2020 21:02:34	120220	12022020	210234	242.13	12.291892	-56.957355	242.26	-1.110	1.070	-0.270	242.13	-0.30	0.10	 	 	 	 	 	 	 	 	 	 	 	 	 	 	 	 	 	 	1581541354	9.04	16.74
12/02/2020 21:02:35	120220	12022020	210235	242.53	12.291870	-56.957392	242.66	-0.990	1.930	-0.790	242.53	0.50	-0.40	 	 	 	 	 	 	 	 	 	 	 	 	 	 	 	 	 	 	1581541355	9.03	16.72
12/02/2020 21:02:36	120220	12022020	210236	242.83	12.291850	-56.957430	242.91	-0.510	2.050	-0.990	242.83	0.60	-0.50	 	 	 	 	 	 	 	 	 	 	 	 	 	 	 	 	 	 	1581541356	9.27	17.17
12/02/2020 21:02:37	120220	12022020	210237	243.00	12.291830	-56.957470	243.12	0.130	1.390	-0.930	243.03	-0.10	-0.50	 	 	 	 	 	 	 	 	 	 	 	 	 	 	 	 	 	 	1581541357	9.58	17.74
12/02/2020 21:02:38	120220	12022020	210238	243.15	12.291810	-56.957512	243.22	0.640	0.280	-0.690	243.15	-1.20	-0.20	 	 	 	 	 	 	 	 	 	 	 	 	 	 	 	 	 	 	1581541358	9.62	17.82
12/02/2020 21:02:39	120220	12022020	210239	243.11	12.291793	-56.957553	243.15	0.870	-0.910	-0.090	243.07	-2.40	0.40	 	 	 	 	 	 	 	 	 	 	 	 	 	 	 	 	 	 	1581541359	9.48	17.56
12/02/2020 21:02:40	120220	12022020	210240	242.82	12.291778	-56.957593	242.88	0.830	-1.720	0.670	242.82	-3.10	1.10	 	 	 	 	 	 	 	 	 	 	 	 	 	 	 	 	 	 	1581541360	9.21	17.06
12/02/2020 21:02:41	120220	12022020	210241	242.58	12.291763	-56.957633	242.67	0.600	-1.800	1.160	242.58	-3.20	1.60	 	 	 	 	 	 	 	 	 	 	 	 	 	 	 	 	 	 	1581541361	8.71	16.13
12/02/2020 21:02:42	120220	12022020	210242	242.54	12.291750	-56.957668	242.64	0.290	-1.390	1.210	242.54	-2.80	1.60	 	 	 	 	 	 	 	 	 	 	 	 	 	 	 	 	 	 	1581541362	8.31	15.39
12/02/2020 21:02:43	120220	12022020	210243	242.56	12.291733	-56.957705	242.65	0.060	-0.930	1.100	242.56	-2.30	1.50	 	 	 	 	 	 	 	 	 	 	 	 	 	 	 	 	 	 	1581541363	8.45	15.65
12/02/2020 21:02:44	120220	12022020	210244	242.55	12.291713	-56.957743	242.64	-0.060	-0.610	1.010	242.55	-2.00	1.40	 	 	 	 	 	 	 	 	 	 	 	 	 	 	 	 	 	 	1581541364	8.90	16.48
12/02/2020 21:02:45	120220	12022020	210245	242.62	12.291693	-56.957782	242.71	-0.130	-0.390	0.930	242.62	-1.80	1.40	 	 	 	 	 	 	 	 	 	 	 	 	 	 	 	 	 	 	1581541365	9.26	17.15
12/02/2020 21:02:46	120220	12022020	210246	242.71	12.291673	-56.957822	242.79	-0.190	-0.270	0.970	242.71	-1.70	1.40	 	 	 	 	 	 	 	 	 	 	 	 	 	 	 	 	 	 	1581541366	9.48	17.56
12/02/2020 21:02:47	120220	12022020	210247	242.66	12.291655	-56.957863	242.74	-0.250	-0.210	1.140	242.66	-1.60	1.60	 	 	 	 	 	 	 	 	 	 	 	 	 	 	 	 	 	 	1581541367	9.66	17.89
12/02/2020 21:02:48	120220	12022020	210248	242.51	12.291635	-56.957903	242.60	-0.340	-0.020	1.300	242.51	-1.40	1.70	 	 	 	 	 	 	 	 	 	 	 	 	 	 	 	 	 	 	1581541368	9.65	17.87
12/02/2020 21:02:49	120220	12022020	210249	242.44	12.291618	-56.957943	242.56	-0.450	0.470	1.310	242.44	-0.90	1.70	 	 	 	 	 	 	 	 	 	 	 	 	 	 	 	 	 	 	1581541369	9.31	17.24
12/02/2020 21:02:50	120220	12022020	210250	242.66	12.291600	-56.957982	242.79	-0.470	1.030	1.060	242.66	-0.40	1.50	 	 	 	 	 	 	 	 	 	 	 	 	 	 	 	 	 	 	1581541370	8.88	16.45
12/02/2020 21:02:51	120220	12022020	210251	243.21	12.291583	-56.958020	243.38	-0.250	1.140	0.620	243.21	-0.30	1.00	 	 	 	 	 	 	 	 	 	 	 	 	 	 	 	 	 	 	1581541371	8.78	16.26
12/02/2020 21:02:52	120220	12022020	210252	243.95	12.291565	-56.958058	244.10	0.230	0.490	0.140	243.95	-1.00	0.60	 	 	 	 	 	 	 	 	 	 	 	 	 	 	 	 	 	 	1581541372	9.11	16.87
12/02/2020 21:02:53	120220	12022020	210253	244.65	12.291545	-56.958100	244.77	0.760	-0.680	-0.180	244.65	-2.10	0.30	 	 	 	 	 	 	 	 	 	 	 	 	 	 	 	 	 	 	1581541373	9.59	17.76
12/02/2020 21:02:54	120220	12022020	210254	245.17	12.291527	-56.958140	245.26	1.020	-1.580	-0.200	245.17	-3.00	0.20	 	 	 	 	 	 	 	 	 	 	 	 	 	 	 	 	 	 	1581541374	9.56	17.71
12/02/2020 21:02:55	120220	12022020	210255	245.36	12.291510	-56.958180	245.43	0.850	-1.710	0.070	245.36	-3.10	0.50	 	 	 	 	 	 	 	 	 	 	 	 	 	 	 	 	 	 	1581541375	9.00	16.67
12/02/2020 21:02:56	120220	12022020	210256	245.30	12.291495	-56.958217	245.34	0.380	-1.230	0.440	245.30	-2.60	0.90	 	 	 	 	 	 	 	 	 	 	 	 	 	 	 	 	 	 	1581541376	8.60	15.93
12/02/2020 21:02:57	120220	12022020	210257	245.16	12.291480	-56.958255	245.20	-0.130	-0.410	0.700	245.16	-1.80	1.10	 	 	 	 	 	 	 	 	 	 	 	 	 	 	 	 	 	 	1581541377	8.49	15.72
12/02/2020 21:02:58	120220	12022020	210258	245.10	12.291465	-56.958292	245.14	-0.420	0.370	0.700	245.10	-1.00	1.10	 	 	 	 	 	 	 	 	 	 	 	 	 	 	 	 	 	 	1581541378	8.55	15.83
12/02/2020 21:02:59	120220	12022020	210259	245.13	12.291447	-56.958330	245.19	-0.440	0.610	0.500	245.13	-0.80	0.90	 	 	 	 	 	 	 	 	 	 	 	 	 	 	 	 	 	 	1581541379	8.94	16.56
12/02/2020 21:03:00	120220	12022020	210300	245.28	12.291428	-56.958372	245.33	-0.280	0.210	0.300	245.28	-1.20	0.70	 	 	 	 	 	 	 	 	 	 	 	 	 	 	 	 	 	 	1581541380	9.57	17.72
12/02/2020 21:03:01	120220	12022020	210301	245.47	12.291410	-56.958415	245.52	-0.130	-0.450	0.390	245.47	-1.90	0.80	 	 	 	 	 	 	 	 	 	 	 	 	 	 	 	 	 	 	1581541381	9.89	18.32
12/02/2020 21:03:02	120220	12022020	210302	245.60	12.291395	-56.958457	245.65	-0.100	-0.830	0.750	245.60	-2.20	1.20	1014.80	26.50	26.60	20.30	20.40	86.0	69.0	69.0	388.0	27.8	216.00	5.90	80.00	10.20	8202	9203.0	27.4	27.4	1581541382	9.70	17.96
12/02/2020 21:03:03	120220	12022020	210303	245.71	12.291382	-56.958498	245.81	-0.060	-0.780	1.060	245.74	-2.20	1.50	 	 	 	 	 	 	 	 	 	 	 	 	 	 	 	 	 	 	1581541383	9.23	17.09
12/02/2020 21:03:04	120220	12022020	210304	246.08	12.291368	-56.958538	246.17	0.070	-0.570	0.970	246.08	-2.00	1.40	 	 	 	 	 	 	 	 	 	 	 	 	 	 	 	 	 	 	1581541384	8.96	16.59
12/02/2020 21:03:05	120220	12022020	210305	246.62	12.291353	-56.958578	246.69	0.190	-0.430	0.550	246.62	-1.80	0.90	 	 	 	 	 	 	 	 	 	 	 	 	 	 	 	 	 	 	1581541385	9.06	16.78
12/02/2020 21:03:06	120220	12022020	210306	247.08	12.291335	-56.958618	247.14	0.160	-0.270	0.230	247.08	-1.70	0.60	 	 	 	 	 	 	 	 	 	 	 	 	 	 	 	 	 	 	1581541386	9.21	17.06
12/02/2020 21:03:07	120220	12022020	210307	247.25	12.291317	-56.958658	247.27	-0.000	0.020	0.180	247.25	-1.40	0.60	 	 	 	 	 	 	 	 	 	 	 	 	 	 	 	 	 	 	1581541387	9.19	17.02
12/02/2020 21:03:08	120220	12022020	210308	247.14	12.291300	-56.958697	247.14	-0.170	0.330	0.360	247.14	-1.10	0.80	 	 	 	 	 	 	 	 	 	 	 	 	 	 	 	 	 	 	1581541388	9.09	16.83
12/02/2020 21:03:09	120220	12022020	210309	246.94	12.291283	-56.958737	246.93	-0.240	0.480	0.510	246.94	-0.90	0.90	 	 	 	 	 	 	 	 	 	 	 	 	 	 	 	 	 	 	1581541389	9.12	16.89
12/02/2020 21:03:10	120220	12022020	210310	246.80	12.291268	-56.958777	246.79	-0.180	0.460	0.450	246.80	-0.90	0.90	 	 	 	 	 	 	 	 	 	 	 	 	 	 	 	 	 	 	1581541390	9.11	16.87
12/02/2020 21:03:11	120220	12022020	210311	246.71	12.291253	-56.958817	246.68	0.000	0.320	0.300	246.71	-1.10	0.70	 	 	 	 	 	 	 	 	 	 	 	 	 	 	 	 	 	 	1581541391	9.01	16.69
12/02/2020 21:03:12	120220	12022020	210312	246.64	12.291237	-56.958855	246.61	0.280	0.010	0.070	246.64	-1.40	0.50	 	 	 	 	 	 	 	 	 	 	 	 	 	 	 	 	 	 	1581541392	8.93	16.54
12/02/2020 21:03:13	120220	12022020	210313	246.67	12.291220	-56.958895	246.67	0.580	-0.500	-0.120	246.67	-1.90	0.30	 	 	 	 	 	 	 	 	 	 	 	 	 	 	 	 	 	 	1581541393	9.01	16.69
12/02/2020 21:03:14	120220	12022020	210314	246.84	12.291205	-56.958935	246.85	0.800	-1.110	-0.170	246.84	-2.50	0.20	 	 	 	 	 	 	 	 	 	 	 	 	 	 	 	 	 	 	1581541394	9.15	16.95
12/02/2020 21:03:15	120220	12022020	210315	247.06	12.291190	-56.958977	247.13	0.740	-1.600	0.100	247.11	-3.00	0.50	 	 	 	 	 	 	 	 	 	 	 	 	 	 	 	 	 	 	1581541395	9.28	17.19
12/02/2020 21:03:16	120220	12022020	210316	247.27	12.291178	-56.959018	247.28	0.370	-1.810	0.720	247.27	-3.20	1.20	 	 	 	 	 	 	 	 	 	 	 	 	 	 	 	 	 	 	1581541396	9.39	17.39
12/02/2020 21:03:17	120220	12022020	210317	247.20	12.291167	-56.959062	247.20	-0.160	-1.590	1.420	247.20	-3.00	1.80	 	 	 	 	 	 	 	 	 	 	 	 	 	 	 	 	 	 	1581541397	9.45	17.50
12/02/2020 21:03:18	120220	12022020	210318	246.97	12.291153	-56.959105	246.96	-0.670	-0.920	1.790	246.97	-2.30	2.20	 	 	 	 	 	 	 	 	 	 	 	 	 	 	 	 	 	 	1581541398	9.37	17.35
12/02/2020 21:03:19	120220	12022020	210319	246.75	12.291138	-56.959145	246.76	-1.000	-0.020	1.600	246.75	-1.40	2.00	 	 	 	 	 	 	 	 	 	 	 	 	 	 	 	 	 	 	1581541399	9.25	17.13
12/02/2020 21:03:20	120220	12022020	210320	246.71	12.291122	-56.959185	246.73	-1.070	0.820	0.950	246.71	-0.50	1.30	 	 	 	 	 	 	 	 	 	 	 	 	 	 	 	 	 	 	1581541400	9.26	17.15
12/02/2020 21:03:21	120220	12022020	210321	246.88	12.291102	-56.959225	246.90	-0.880	1.380	0.150	246.88	-0.00	0.50	 	 	 	 	 	 	 	 	 	 	 	 	 	 	 	 	 	 	1581541401	9.31	17.24
12/02/2020 21:03:22	120220	12022020	210322	247.17	12.291082	-56.959265	247.18	-0.470	1.460	-0.400	247.17	0.00	0.00	 	 	 	 	 	 	 	 	 	 	 	 	 	 	 	 	 	 	1581541402	9.35	17.32
12/02/2020 21:03:23	120220	12022020	210323	247.39	12.291063	-56.959305	247.37	0.100	0.910	-0.360	247.39	-0.50	0.10	 	 	 	 	 	 	 	 	 	 	 	 	 	 	 	 	 	 	1581541403	9.51	17.61
12/02/2020 21:03:24	120220	12022020	210324	247.41	12.291048	-56.959348	247.37	0.620	0.040	0.260	247.41	-1.40	0.70	 	 	 	 	 	 	 	 	 	 	 	 	 	 	 	 	 	 	1581541404	9.61	17.80
12/02/2020 21:03:25	120220	12022020	210325	247.27	12.291037	-56.959390	247.22	0.920	-0.680	1.190	247.27	-2.10	1.60	 	 	 	 	 	 	 	 	 	 	 	 	 	 	 	 	 	 	1581541405	9.43	17.46
12/02/2020 21:03:26	120220	12022020	210326	246.99	12.291027	-56.959432	246.96	0.910	-1.020	2.070	246.99	-2.40	2.50	 	 	 	 	 	 	 	 	 	 	 	 	 	 	 	 	 	 	1581541406	9.02	16.71
12/02/2020 21:03:27	120220	12022020	210327	246.73	12.291017	-56.959472	246.67	0.710	-1.090	2.430	246.68	-2.50	2.80	 	 	 	 	 	 	 	 	 	 	 	 	 	 	 	 	 	 	1581541407	8.77	16.24
12/02/2020 21:03:28	120220	12022020	210328	246.49	12.291005	-56.959512	246.51	0.440	-1.040	2.080	246.49	-2.40	2.50	 	 	 	 	 	 	 	 	 	 	 	 	 	 	 	 	 	 	1581541408	8.74	16.19
12/02/2020 21:03:29	120220	12022020	210329	246.50	12.290988	-56.959550	246.54	0.170	-1.010	1.290	246.51	-2.40	1.70	 	 	 	 	 	 	 	 	 	 	 	 	 	 	 	 	 	 	1581541409	8.93	16.54
12/02/2020 21:03:30	120220	12022020	210330	246.69	12.290970	-56.959590	246.73	-0.090	-1.040	0.420	246.69	-2.40	0.80	 	 	 	 	 	 	 	 	 	 	 	 	 	 	 	 	 	 	1581541410	9.29	17.21
12/02/2020 21:03:31	120220	12022020	210331	246.99	12.290950	-56.959630	247.03	-0.370	-0.950	-0.250	246.99	-2.30	0.20	 	 	 	 	 	 	 	 	 	 	 	 	 	 	 	 	 	 	1581541411	9.53	17.65
12/02/2020 21:03:32	120220	12022020	210332	247.31	12.290932	-56.959672	247.34	-0.610	-0.600	-0.430	247.31	-2.00	0.00	 	 	 	 	 	 	 	 	 	 	 	 	 	 	 	 	 	 	1581541412	9.44	17.48
12/02/2020 21:03:33	120220	12022020	210333	247.45	12.290917	-56.959713	247.45	-0.680	-0.160	-0.090	247.45	-1.50	0.40	 	 	 	 	 	 	 	 	 	 	 	 	 	 	 	 	 	 	1581541413	9.35	17.32
12/02/2020 21:03:34	120220	12022020	210334	247.28	12.290902	-56.959755	247.25	-0.570	0.180	0.640	247.28	-1.20	1.10	 	 	 	 	 	 	 	 	 	 	 	 	 	 	 	 	 	 	1581541414	9.44	17.48
12/02/2020 21:03:35	120220	12022020	210335	246.89	12.290888	-56.959798	246.86	-0.360	0.380	1.350	246.89	-1.00	1.80	 	 	 	 	 	 	 	 	 	 	 	 	 	 	 	 	 	 	1581541415	9.54	17.67
12/02/2020 21:03:36	120220	12022020	210336	246.48	12.290875	-56.959842	246.46	-0.140	0.480	1.730	246.48	-0.90	2.20	 	 	 	 	 	 	 	 	 	 	 	 	 	 	 	 	 	 	1581541416	9.52	17.63
12/02/2020 21:03:37	120220	12022020	210337	246.25	12.290862	-56.959883	246.26	0.070	0.510	1.650	246.25	-0.90	2.00	 	 	 	 	 	 	 	 	 	 	 	 	 	 	 	 	 	 	1581541417	9.39	17.39
12/02/2020 21:03:38	120220	12022020	210338	246.35	12.290847	-56.959923	246.38	0.210	0.420	1.160	246.35	-1.00	1.50	 	 	 	 	 	 	 	 	 	 	 	 	 	 	 	 	 	 	1581541418	9.26	17.15
12/02/2020 21:03:39	120220	12022020	210339	246.70	12.290830	-56.959963	246.73	0.270	0.270	0.610	246.70	-1.10	1.00	 	 	 	 	 	 	 	 	 	 	 	 	 	 	 	 	 	 	1581541419	9.12	16.89
12/02/2020 21:03:40	120220	12022020	210340	246.98	12.290815	-56.960003	246.99	0.280	0.060	0.300	246.98	-1.40	0.70	 	 	 	 	 	 	 	 	 	 	 	 	 	 	 	 	 	 	1581541420	8.97	16.61
12/02/2020 21:03:41	120220	12022020	210341	247.01	12.290800	-56.960043	247.00	0.330	-0.410	0.280	247.01	-1.80	0.70	 	 	 	 	 	 	 	 	 	 	 	 	 	 	 	 	 	 	1581541421	9.04	16.74
12/02/2020 21:03:42	120220	12022020	210342	246.82	12.290785	-56.960085	246.79	0.380	-1.020	0.340	246.82	-2.40	0.80	 	 	 	 	 	 	 	 	 	 	 	 	 	 	 	 	 	 	1581541422	9.29	17.21
12/02/2020 21:03:43	120220	12022020	210343	246.49	12.290768	-56.960125	246.46	0.320	-1.470	0.470	246.49	-2.90	0.90	 	 	 	 	 	 	 	 	 	 	 	 	 	 	 	 	 	 	1581541423	9.36	17.33
12/02/2020 21:03:44	120220	12022020	210344	246.13	12.290752	-56.960165	246.11	0.100	-1.510	0.670	246.13	-2.90	1.10	 	 	 	 	 	 	 	 	 	 	 	 	 	 	 	 	 	 	1581541424	9.20	17.04
12/02/2020 21:03:45	120220	12022020	210345	245.77	12.290737	-56.960205	245.76	-0.160	-1.180	0.950	245.77	-2.50	1.40	 	 	 	 	 	 	 	 	 	 	 	 	 	 	 	 	 	 	1581541425	9.04	16.74
12/02/2020 21:03:46	120220	12022020	210346	245.50	12.290722	-56.960247	245.51	-0.310	-0.740	1.240	245.50	-2.10	1.70	 	 	 	 	 	 	 	 	 	 	 	 	 	 	 	 	 	 	1581541426	9.13	16.91
12/02/2020 21:03:47	120220	12022020	210347	245.38	12.290708	-56.960288	245.41	-0.300	-0.410	1.480	245.38	-1.80	1.90	 	 	 	 	 	 	 	 	 	 	 	 	 	 	 	 	 	 	1581541427	9.45	17.50
12/02/2020 21:03:48	120220	12022020	210348	245.33	12.290693	-56.960332	245.37	-0.260	-0.200	1.680	245.33	-1.60	2.10	 	 	 	 	 	 	 	 	 	 	 	 	 	 	 	 	 	 	1581541428	9.77	18.09
12/02/2020 21:03:49	120220	12022020	210349	245.38	12.290680	-56.960377	245.43	-0.280	0.120	1.790	245.38	-1.20	2.20	 	 	 	 	 	 	 	 	 	 	 	 	 	 	 	 	 	 	1581541429	9.83	18.21
12/02/2020 21:03:50	120220	12022020	210350	245.59	12.290667	-56.960418	245.66	-0.390	0.650	1.680	245.59	-0.70	2.10	 	 	 	 	 	 	 	 	 	 	 	 	 	 	 	 	 	 	1581541430	9.51	17.61
12/02/2020 21:03:51	120220	12022020	210351	245.80	12.290652	-56.960458	245.93	-0.460	1.170	1.300	245.86	-0.20	1.70	 	 	 	 	 	 	 	 	 	 	 	 	 	 	 	 	 	 	1581541431	9.08	16.82
12/02/2020 21:03:52	120220	12022020	210352	246.13	12.290633	-56.960498	246.17	-0.320	1.170	0.630	246.13	-0.20	1.00	 	 	 	 	 	 	 	 	 	 	 	 	 	 	 	 	 	 	1581541432	9.04	16.74
12/02/2020 21:03:53	120220	12022020	210353	246.35	12.290613	-56.960538	246.37	0.080	0.480	-0.130	246.35	-1.00	0.30	 	 	 	 	 	 	 	 	 	 	 	 	 	 	 	 	 	 	1581541433	9.47	17.54
12/02/2020 21:03:54	120220	12022020	210354	246.45	12.290592	-56.960578	246.44	0.500	-0.570	-0.570	246.45	-2.00	-0.10	 	 	 	 	 	 	 	 	 	 	 	 	 	 	 	 	 	 	1581541434	9.79	18.13
12/02/2020 21:03:55	120220	12022020	210355	246.28	12.290572	-56.960620	246.27	0.650	-1.430	-0.280	246.28	-2.80	0.20	 	 	 	 	 	 	 	 	 	 	 	 	 	 	 	 	 	 	1581541435	9.71	17.98
12/02/2020 21:03:56	120220	12022020	210356	245.83	12.290557	-56.960662	245.84	0.410	-1.690	0.650	245.83	-3.10	1.10	 	 	 	 	 	 	 	 	 	 	 	 	 	 	 	 	 	 	1581541436	9.36	17.33
12/02/2020 21:03:57	120220	12022020	210357	245.27	12.290548	-56.960703	245.29	0.030	-1.250	1.680	245.27	-2.60	2.10	 	 	 	 	 	 	 	 	 	 	 	 	 	 	 	 	 	 	1581541437	8.99	16.65
12/02/2020 21:03:58	120220	12022020	210358	244.78	12.290538	-56.960743	244.82	-0.170	-0.390	2.290	244.78	-1.70	2.70	 	 	 	 	 	 	 	 	 	 	 	 	 	 	 	 	 	 	1581541438	8.68	16.08
12/02/2020 21:03:59	120220	12022020	210359	244.41	12.290528	-56.960782	244.45	-0.060	0.210	2.340	244.41	-1.20	2.70	 	 	 	 	 	 	 	 	 	 	 	 	 	 	 	 	 	 	1581541439	8.69	16.09
12/02/2020 21:04:00	120220	12022020	210400	244.18	12.290513	-56.960823	244.24	0.220	0.090	2.030	244.18	-1.30	2.40	 	 	 	 	 	 	 	 	 	 	 	 	 	 	 	 	 	 	1581541440	9.31	17.24
12/02/2020 21:04:01	120220	12022020	210401	244.15	12.290495	-56.960867	244.22	0.410	-0.540	1.430	244.15	-2.00	1.80	 	 	 	 	 	 	 	 	 	 	 	 	 	 	 	 	 	 	1581541441	9.94	18.41
12/02/2020 21:04:02	120220	12022020	210402	244.32	12.290473	-56.960910	244.41	0.340	-1.090	0.740	244.32	-2.50	1.10	1014.80	26.40	28.00	19.70	20.50	102.0	66.0	64.0	388.0	27.7	198.00	5.90	77.00	10.50	8114	12020.0	27.4	27.4	1581541442	10.09	18.69
12/02/2020 21:04:03	120220	12022020	210403	244.59	12.290453	-56.960952	244.79	-0.000	-1.090	0.200	244.68	-2.40	0.60	 	 	 	 	 	 	 	 	 	 	 	 	 	 	 	 	 	 	1581541443	9.79	18.13
12/02/2020 21:04:04	120220	12022020	210404	245.20	12.290435	-56.960990	245.31	-0.530	-0.430	-0.040	245.20	-1.80	0.40	 	 	 	 	 	 	 	 	 	 	 	 	 	 	 	 	 	 	1581541444	9.24	17.11
12/02/2020 21:04:05	120220	12022020	210405	245.56	12.290420	-56.961028	245.71	-0.950	0.530	0.110	245.62	-0.80	0.50	 	 	 	 	 	 	 	 	 	 	 	 	 	 	 	 	 	 	1581541445	8.80	16.30
12/02/2020 21:04:06	120220	12022020	210406	245.84	12.290403	-56.961067	245.90	-0.950	1.160	0.340	245.84	-0.20	0.80	 	 	 	 	 	 	 	 	 	 	 	 	 	 	 	 	 	 	1581541446	8.83	16.35
12/02/2020 21:04:07	120220	12022020	210407	245.85	12.290387	-56.961108	245.86	-0.470	1.080	0.600	245.83	-0.30	1.00	 	 	 	 	 	 	 	 	 	 	 	 	 	 	 	 	 	 	1581541447	9.32	17.26
12/02/2020 21:04:08	120220	12022020	210408	245.63	12.290370	-56.961152	245.64	0.140	0.350	0.830	245.63	-1.10	1.30	 	 	 	 	 	 	 	 	 	 	 	 	 	 	 	 	 	 	1581541448	9.76	18.08
12/02/2020 21:04:09	120220	12022020	210409	245.21	12.290352	-56.961195	245.20	0.530	-0.730	1.000	245.21	-2.10	1.40	 	 	 	 	 	 	 	 	 	 	 	 	 	 	 	 	 	 	1581541449	9.94	18.41
12/02/2020 21:04:10	120220	12022020	210410	244.60	12.290333	-56.961237	244.58	0.590	-1.570	1.140	244.60	-3.00	1.60	 	 	 	 	 	 	 	 	 	 	 	 	 	 	 	 	 	 	1581541450	9.82	18.19
12/02/2020 21:04:11	120220	12022020	210411	243.97	12.290317	-56.961278	243.97	0.410	-1.630	1.360	243.97	-3.00	1.80	 	 	 	 	 	 	 	 	 	 	 	 	 	 	 	 	 	 	1581541451	9.30	17.22
12/02/2020 21:04:12	120220	12022020	210412	243.40	12.290303	-56.961317	243.40	0.150	-0.900	1.730	243.40	-2.20	2.20	 	 	 	 	 	 	 	 	 	 	 	 	 	 	 	 	 	 	1581541452	8.67	16.06
12/02/2020 21:04:13	120220	12022020	210413	243.01	12.290292	-56.961355	243.02	-0.080	-0.050	2.020	243.01	-1.40	2.40	 	 	 	 	 	 	 	 	 	 	 	 	 	 	 	 	 	 	1581541453	8.49	15.72
12/02/2020 21:04:14	120220	12022020	210414	242.96	12.290278	-56.961395	243.01	-0.190	0.340	1.820	242.96	-1.00	2.20	 	 	 	 	 	 	 	 	 	 	 	 	 	 	 	 	 	 	1581541454	8.89	16.46
12/02/2020 21:04:15	120220	12022020	210415	243.41	12.290262	-56.961435	243.52	-0.160	0.200	1.120	243.41	-1.20	1.50	 	 	 	 	 	 	 	 	 	 	 	 	 	 	 	 	 	 	1581541455	9.41	17.43
12/02/2020 21:04:16	120220	12022020	210416	244.31	12.290242	-56.961477	244.45	-0.020	-0.120	0.260	244.31	-1.50	0.70	 	 	 	 	 	 	 	 	 	 	 	 	 	 	 	 	 	 	1581541456	9.67	17.91
12/02/2020 21:04:17	120220	12022020	210417	245.10	12.290223	-56.961517	245.38	0.140	-0.320	-0.200	245.27	-1.70	0.20	 	 	 	 	 	 	 	 	 	 	 	 	 	 	 	 	 	 	1581541457	9.58	17.74
12/02/2020 21:04:18	120220	12022020	210418	245.88	12.290205	-56.961557	245.95	0.200	-0.280	-0.060	245.88	-1.70	0.40	 	 	 	 	 	 	 	 	 	 	 	 	 	 	 	 	 	 	1581541458	9.29	17.21
12/02/2020 21:04:19	120220	12022020	210419	246.00	12.290188	-56.961597	246.01	0.150	-0.190	0.370	245.99	-1.60	0.80	 	 	 	 	 	 	 	 	 	 	 	 	 	 	 	 	 	 	1581541459	9.08	16.82
12/02/2020 21:04:20	120220	12022020	210420	245.68	12.290172	-56.961637	245.69	0.050	-0.250	0.760	245.68	-1.60	1.20	 	 	 	 	 	 	 	 	 	 	 	 	 	 	 	 	 	 	1581541460	9.13	16.91
12/02/2020 21:04:21	120220	12022020	210421	245.17	12.290155	-56.961677	245.18	-0.040	-0.500	0.950	245.17	-1.90	1.40	 	 	 	 	 	 	 	 	 	 	 	 	 	 	 	 	 	 	1581541461	9.34	17.30
12/02/2020 21:04:22	120220	12022020	210422	244.56	12.290137	-56.961718	244.56	-0.150	-0.790	1.040	244.56	-2.20	1.50	 	 	 	 	 	 	 	 	 	 	 	 	 	 	 	 	 	 	1581541462	9.52	17.63
12/02/2020 21:04:23	120220	12022020	210423	243.96	12.290120	-56.961760	243.96	-0.280	-0.840	1.160	243.96	-2.20	1.60	 	 	 	 	 	 	 	 	 	 	 	 	 	 	 	 	 	 	1581541463	9.43	17.46
12/02/2020 21:04:24	120220	12022020	210424	243.46	12.290105	-56.961800	243.48	-0.420	-0.590	1.330	243.46	-1.90	1.80	 	 	 	 	 	 	 	 	 	 	 	 	 	 	 	 	 	 	1581541464	9.22	17.08
12/02/2020 21:04:25	120220	12022020	210425	243.18	12.290090	-56.961840	243.21	-0.440	-0.190	1.410	243.18	-1.50	1.80	 	 	 	 	 	 	 	 	 	 	 	 	 	 	 	 	 	 	1581541465	9.11	16.87
12/02/2020 21:04:26	120220	12022020	210426	243.18	12.290075	-56.961880	243.25	-0.280	0.170	1.290	243.18	-1.20	1.70	 	 	 	 	 	 	 	 	 	 	 	 	 	 	 	 	 	 	1581541466	9.13	16.91
12/02/2020 21:04:27	120220	12022020	210427	243.44	12.290057	-56.961922	243.52	0.020	0.370	1.030	243.44	-1.00	1.40	 	 	 	 	 	 	 	 	 	 	 	 	 	 	 	 	 	 	1581541467	9.23	17.09
12/02/2020 21:04:28	120220	12022020	210428	243.73	12.290040	-56.961962	243.81	0.280	0.380	0.920	243.73	-1.00	1.30	 	 	 	 	 	 	 	 	 	 	 	 	 	 	 	 	 	 	1581541468	9.26	17.15
12/02/2020 21:04:29	120220	12022020	210429	243.89	12.290025	-56.962002	243.97	0.410	0.150	1.050	243.89	-1.20	1.50	 	 	 	 	 	 	 	 	 	 	 	 	 	 	 	 	 	 	1581541469	9.34	17.30
12/02/2020 21:04:30	120220	12022020	210430	243.95	12.290010	-56.962043	244.04	0.430	-0.250	1.190	243.95	-1.60	1.60	 	 	 	 	 	 	 	 	 	 	 	 	 	 	 	 	 	 	1581541470	9.41	17.43
12/02/2020 21:04:31	120220	12022020	210431	244.01	12.289993	-56.962085	244.10	0.400	-0.640	1.080	244.01	-2.00	1.50	 	 	 	 	 	 	 	 	 	 	 	 	 	 	 	 	 	 	1581541471	9.35	17.32
12/02/2020 21:04:32	120220	12022020	210432	244.12	12.289975	-56.962125	244.21	0.320	-0.870	0.700	244.12	-2.30	1.10	 	 	 	 	 	 	 	 	 	 	 	 	 	 	 	 	 	 	1581541472	9.21	17.06
12/02/2020 21:04:33	120220	12022020	210433	244.22	12.289955	-56.962162	244.30	0.160	-0.940	0.260	244.22	-2.30	0.70	 	 	 	 	 	 	 	 	 	 	 	 	 	 	 	 	 	 	1581541473	9.15	16.95
12/02/2020 21:04:34	120220	12022020	210434	244.30	12.289933	-56.962200	244.37	-0.090	-0.830	0.020	244.30	-2.20	0.50	 	 	 	 	 	 	 	 	 	 	 	 	 	 	 	 	 	 	1581541474	9.14	16.93
12/02/2020 21:04:35	120220	12022020	210435	244.35	12.289915	-56.962240	244.40	-0.320	-0.630	0.170	244.35	-2.00	0.60	 	 	 	 	 	 	 	 	 	 	 	 	 	 	 	 	 	 	1581541475	9.16	16.96
12/02/2020 21:04:36	120220	12022020	210436	244.27	12.289898	-56.962280	244.31	-0.480	-0.460	0.660	244.27	-1.80	1.10	 	 	 	 	 	 	 	 	 	 	 	 	 	 	 	 	 	 	1581541476	9.33	17.28
12/02/2020 21:04:37	120220	12022020	210437	243.96	12.289883	-56.962322	244.00	-0.540	-0.300	1.370	243.96	-1.60	1.80	 	 	 	 	 	 	 	 	 	 	 	 	 	 	 	 	 	 	1581541477	9.56	17.71
12/02/2020 21:04:38	120220	12022020	210438	243.55	12.289868	-56.962365	243.60	-0.500	0.090	1.950	243.55	-1.30	2.40	 	 	 	 	 	 	 	 	 	 	 	 	 	 	 	 	 	 	1581541478	9.49	17.58
12/02/2020 21:04:39	120220	12022020	210439	243.22	12.289855	-56.962405	243.27	-0.370	0.620	2.160	243.22	-0.70	2.60	 	 	 	 	 	 	 	 	 	 	 	 	 	 	 	 	 	 	1581541479	9.15	16.95
12/02/2020 21:04:40	120220	12022020	210440	243.02	12.289838	-56.962445	243.10	-0.090	0.800	2.030	243.02	-0.60	2.40	 	 	 	 	 	 	 	 	 	 	 	 	 	 	 	 	 	 	1581541480	9.07	16.80
12/02/2020 21:04:41	120220	12022020	210441	242.98	12.289820	-56.962487	243.06	0.300	0.380	1.590	242.98	-1.00	2.00	 	 	 	 	 	 	 	 	 	 	 	 	 	 	 	 	 	 	1581541481	9.41	17.43
12/02/2020 21:04:42	120220	12022020	210442	243.09	12.289802	-56.962527	243.19	0.620	-0.370	0.910	243.09	-1.80	1.30	 	 	 	 	 	 	 	 	 	 	 	 	 	 	 	 	 	 	1581541482	9.68	17.93
12/02/2020 21:04:43	120220	12022020	210443	243.33	12.289782	-56.962568	243.50	0.690	-1.070	0.210	243.40	-2.50	0.60	 	 	 	 	 	 	 	 	 	 	 	 	 	 	 	 	 	 	1581541483	9.65	17.87
12/02/2020 21:04:44	120220	12022020	210444	243.88	12.289762	-56.962608	243.99	0.490	-1.360	-0.280	243.88	-2.70	0.10	 	 	 	 	 	 	 	 	 	 	 	 	 	 	 	 	 	 	1581541484	9.40	17.41
12/02/2020 21:04:45	120220	12022020	210445	244.35	12.289743	-56.962647	244.43	0.130	-1.140	-0.300	244.35	-2.50	0.10	 	 	 	 	 	 	 	 	 	 	 	 	 	 	 	 	 	 	1581541485	9.02	16.71
12/02/2020 21:04:46	120220	12022020	210446	244.58	12.289727	-56.962685	244.66	-0.210	-0.650	0.010	244.58	-2.00	0.50	 	 	 	 	 	 	 	 	 	 	 	 	 	 	 	 	 	 	1581541486	8.88	16.45
12/02/2020 21:04:47	120220	12022020	210447	244.61	12.289710	-56.962723	244.69	-0.420	-0.180	0.440	244.61	-1.50	0.90	 	 	 	 	 	 	 	 	 	 	 	 	 	 	 	 	 	 	1581541487	9.00	16.67
12/02/2020 21:04:48	120220	12022020	210448	244.43	12.289695	-56.962765	244.48	-0.470	0.150	0.880	244.43	-1.20	1.30	 	 	 	 	 	 	 	 	 	 	 	 	 	 	 	 	 	 	1581541488	9.24	17.11
12/02/2020 21:04:49	120220	12022020	210449	244.08	12.289678	-56.962805	244.13	-0.380	0.280	1.170	244.08	-1.10	1.60	 	 	 	 	 	 	 	 	 	 	 	 	 	 	 	 	 	 	1581541489	9.43	17.46
12/02/2020 21:04:50	120220	12022020	210450	243.69	12.289660	-56.962847	243.73	-0.140	0.230	1.270	243.69	-1.10	1.70	 	 	 	 	 	 	 	 	 	 	 	 	 	 	 	 	 	 	1581541490	9.54	17.67
12/02/2020 21:04:51	120220	12022020	210451	243.41	12.289643	-56.962888	243.47	0.180	0.110	1.100	243.41	-1.30	1.50	 	 	 	 	 	 	 	 	 	 	 	 	 	 	 	 	 	 	1581541491	9.51	17.61
12/02/2020 21:04:52	120220	12022020	210452	243.38	12.289625	-56.962928	243.43	0.420	-0.020	0.800	243.38	-1.40	1.20	 	 	 	 	 	 	 	 	 	 	 	 	 	 	 	 	 	 	1581541492	9.41	17.43
12/02/2020 21:04:53	120220	12022020	210453	243.56	12.289607	-56.962968	243.63	0.400	-0.040	0.560	243.56	-1.40	1.00	 	 	 	 	 	 	 	 	 	 	 	 	 	 	 	 	 	 	1581541493	9.17	16.98
12/02/2020 21:04:54	120220	12022020	210454	243.85	12.289592	-56.963007	243.92	0.170	-0.120	0.480	243.85	-1.50	0.90	 	 	 	 	 	 	 	 	 	 	 	 	 	 	 	 	 	 	1581541494	8.96	16.59
12/02/2020 21:04:55	120220	12022020	210455	244.02	12.289575	-56.963048	244.11	-0.010	-0.550	0.580	244.04	-1.90	1.00	 	 	 	 	 	 	 	 	 	 	 	 	 	 	 	 	 	 	1581541495	9.17	16.98
12/02/2020 21:04:56	120220	12022020	210456	244.01	12.289557	-56.963090	244.06	-0.020	-1.200	0.800	244.01	-2.60	1.20	 	 	 	 	 	 	 	 	 	 	 	 	 	 	 	 	 	 	1581541496	9.59	17.76
12/02/2020 21:04:57	120220	12022020	210457	243.74	12.289540	-56.963132	243.80	0.060	-1.650	1.090	243.74	-3.00	1.50	 	 	 	 	 	 	 	 	 	 	 	 	 	 	 	 	 	 	1581541497	9.75	18.06
12/02/2020 21:04:58	120220	12022020	210458	243.41	12.289523	-56.963175	243.48	0.050	-1.600	1.360	243.41	-2.90	1.80	 	 	 	 	 	 	 	 	 	 	 	 	 	 	 	 	 	 	1581541498	9.64	17.85
12/02/2020 21:04:59	120220	12022020	210459	243.22	12.289507	-56.963215	243.31	-0.100	-0.920	1.420	243.22	-2.20	1.80	 	 	 	 	 	 	 	 	 	 	 	 	 	 	 	 	 	 	1581541499	9.36	17.33
12/02/2020 21:05:00	120220	12022020	210500	243.41	12.289490	-56.963253	243.53	-0.340	0.140	1.090	243.41	-1.20	1.50	 	 	 	 	 	 	 	 	 	 	 	 	 	 	 	 	 	 	1581541500	8.97	16.61
12/02/2020 21:05:01	120220	12022020	210501	243.90	12.289472	-56.963292	244.00	-0.530	0.970	0.570	243.90	-0.40	1.00	 	 	 	 	 	 	 	 	 	 	 	 	 	 	 	 	 	 	1581541501	8.95	16.58
12/02/2020 21:05:02	120220	12022020	210502	244.25	12.289452	-56.963332	244.34	-0.540	1.160	0.310	244.25	-0.20	0.70	1014.70	26.50	29.70	19.80	20.90	114.0	66.0	59.0	389.0	27.7	199.00	5.30	74.00	10.00	7995	10985.0	27.4	27.4	1581541502	9.42	17.45
12/02/2020 21:05:03	120220	12022020	210503	244.22	12.289433	-56.963373	244.29	-0.280	0.940	0.460	244.22	-0.40	0.90	 	 	 	 	 	 	 	 	 	 	 	 	 	 	 	 	 	 	1581541503	9.75	18.06
12/02/2020 21:05:04	120220	12022020	210504	243.94	12.289415	-56.963415	244.00	0.180	0.640	0.750	243.94	-0.80	1.20	 	 	 	 	 	 	 	 	 	 	 	 	 	 	 	 	 	 	1581541504	9.59	17.76
12/02/2020 21:05:05	120220	12022020	210505	243.63	12.289398	-56.963457	243.71	0.600	0.180	0.920	243.63	-1.20	1.30	 	 	 	 	 	 	 	 	 	 	 	 	 	 	 	 	 	 	1581541505	9.34	17.30
12/02/2020 21:05:06	120220	12022020	210506	243.45	12.289382	-56.963497	243.53	0.750	-0.480	0.840	243.45	-1.90	1.30	 	 	 	 	 	 	 	 	 	 	 	 	 	 	 	 	 	 	1581541506	9.25	17.13
12/02/2020 21:05:07	120220	12022020	210507	243.37	12.289363	-56.963535	243.43	0.630	-1.220	0.730	243.35	-2.60	1.10	 	 	 	 	 	 	 	 	 	 	 	 	 	 	 	 	 	 	1581541507	9.28	17.19
12/02/2020 21:05:08	120220	12022020	210508	243.29	12.289345	-56.963577	243.38	0.380	-1.780	0.790	243.29	-3.20	1.20	 	 	 	 	 	 	 	 	 	 	 	 	 	 	 	 	 	 	1581541508	9.35	17.32
12/02/2020 21:05:09	120220	12022020	210509	243.28	12.289330	-56.963617	243.35	0.150	-1.860	1.000	243.28	-3.20	1.40	 	 	 	 	 	 	 	 	 	 	 	 	 	 	 	 	 	 	1581541509	9.28	17.19
12/02/2020 21:05:10	120220	12022020	210510	243.22	12.289315	-56.963658	243.27	-0.050	-1.530	1.260	243.22	-2.90	1.70	 	 	 	 	 	 	 	 	 	 	 	 	 	 	 	 	 	 	1581541510	9.21	17.06
12/02/2020 21:05:11	120220	12022020	210511	243.16	12.289298	-56.963698	243.21	-0.270	-0.920	1.340	243.16	-2.20	1.70	 	 	 	 	 	 	 	 	 	 	 	 	 	 	 	 	 	 	1581541511	9.31	17.24
12/02/2020 21:05:12	120220	12022020	210512	243.16	12.289280	-56.963738	243.23	-0.520	-0.140	1.130	243.16	-1.50	1.50	 	 	 	 	 	 	 	 	 	 	 	 	 	 	 	 	 	 	1581541512	9.35	17.32
12/02/2020 21:05:13	120220	12022020	210513	243.14	12.289262	-56.963778	243.20	-0.700	0.630	0.940	243.14	-0.70	1.40	 	 	 	 	 	 	 	 	 	 	 	 	 	 	 	 	 	 	1581541513	9.39	17.39
12/02/2020 21:05:14	120220	12022020	210514	243.13	12.289243	-56.963820	243.20	-0.680	1.100	0.750	243.13	-0.30	1.20	 	 	 	 	 	 	 	 	 	 	 	 	 	 	 	 	 	 	1581541514	9.51	17.61
12/02/2020 21:05:15	120220	12022020	210515	243.25	12.289223	-56.963860	243.34	-0.440	1.150	0.420	243.25	-0.20	0.80	 	 	 	 	 	 	 	 	 	 	 	 	 	 	 	 	 	 	1581541515	9.63	17.83
12/02/2020 21:05:16	120220	12022020	210516	243.45	12.289203	-56.963902	243.52	-0.050	0.780	0.100	243.45	-0.60	0.50	 	 	 	 	 	 	 	 	 	 	 	 	 	 	 	 	 	 	1581541516	9.66	17.89
12/02/2020 21:05:17	120220	12022020	210517	243.61	12.289183	-56.963943	243.70	0.300	0.110	0.010	243.61	-1.30	0.40	 	 	 	 	 	 	 	 	 	 	 	 	 	 	 	 	 	 	1581541517	9.66	17.89
12/02/2020 21:05:18	120220	12022020	210518	243.75	12.289165	-56.963983	243.83	0.470	-0.540	0.130	243.75	-1.90	0.60	 	 	 	 	 	 	 	 	 	 	 	 	 	 	 	 	 	 	1581541518	9.53	17.65
12/02/2020 21:05:19	120220	12022020	210519	243.92	12.289148	-56.964023	244.02	0.460	-0.820	0.380	243.92	-2.20	0.80	 	 	 	 	 	 	 	 	 	 	 	 	 	 	 	 	 	 	1581541519	9.13	16.91
12/02/2020 21:05:20	120220	12022020	210520	244.05	12.289132	-56.964062	244.14	0.360	-0.800	0.720	244.05	-2.20	1.20	 	 	 	 	 	 	 	 	 	 	 	 	 	 	 	 	 	 	1581541520	8.77	16.24
12/02/2020 21:05:21	120220	12022020	210521	243.96	12.289115	-56.964100	244.00	0.280	-0.810	1.210	243.96	-2.20	1.60	 	 	 	 	 	 	 	 	 	 	 	 	 	 	 	 	 	 	1581541521	8.86	16.41
12/02/2020 21:05:22	120220	12022020	210522	243.61	12.289100	-56.964140	243.64	0.200	-0.900	1.760	243.61	-2.30	2.20	 	 	 	 	 	 	 	 	 	 	 	 	 	 	 	 	 	 	1581541522	9.22	17.08
12/02/2020 21:05:23	120220	12022020	210523	243.16	12.289085	-56.964183	243.19	0.100	-1.030	2.030	243.16	-2.40	2.40	 	 	 	 	 	 	 	 	 	 	 	 	 	 	 	 	 	 	1581541523	9.53	17.65
12/02/2020 21:05:24	120220	12022020	210524	242.77	12.289068	-56.964225	242.80	0.010	-1.040	1.880	242.77	-2.40	2.30	 	 	 	 	 	 	 	 	 	 	 	 	 	 	 	 	 	 	1581541524	9.66	17.89
12/02/2020 21:05:25	120220	12022020	210525	242.52	12.289050	-56.964267	242.55	-0.090	-0.770	1.440	242.52	-2.10	1.80	 	 	 	 	 	 	 	 	 	 	 	 	 	 	 	 	 	 	1581541525	9.60	17.78
12/02/2020 21:05:26	120220	12022020	210526	242.52	12.289030	-56.964307	242.59	-0.220	-0.220	0.850	242.52	-1.50	1.20	 	 	 	 	 	 	 	 	 	 	 	 	 	 	 	 	 	 	1581541526	9.40	17.41
12/02/2020 21:05:27	120220	12022020	210527	242.85	12.289012	-56.964345	242.92	-0.390	0.400	0.240	242.85	-0.90	0.60	 	 	 	 	 	 	 	 	 	 	 	 	 	 	 	 	 	 	1581541527	9.23	17.09
12/02/2020 21:05:28	120220	12022020	210528	243.40	12.288992	-56.964383	243.50	-0.520	0.780	-0.190	243.40	-0.60	0.20	 	 	 	 	 	 	 	 	 	 	 	 	 	 	 	 	 	 	1581541528	9.21	17.06
12/02/2020 21:05:29	120220	12022020	210529	244.00	12.288972	-56.964423	244.10	-0.460	0.730	-0.230	244.00	-0.60	0.20	 	 	 	 	 	 	 	 	 	 	 	 	 	 	 	 	 	 	1581541529	9.41	17.43
12/02/2020 21:05:30	120220	12022020	210530	244.48	12.288953	-56.964465	244.57	-0.200	0.370	0.040	244.48	-1.00	0.50	 	 	 	 	 	 	 	 	 	 	 	 	 	 	 	 	 	 	1581541530	9.56	17.71
12/02/2020 21:05:31	120220	12022020	210531	244.72	12.288937	-56.964507	244.83	0.190	-0.110	0.490	244.76	-1.50	0.90	 	 	 	 	 	 	 	 	 	 	 	 	 	 	 	 	 	 	1581541531	9.56	17.71
12/02/2020 21:05:32	120220	12022020	210532	244.78	12.288920	-56.964548	244.85	0.530	-0.450	1.050	244.78	-1.80	1.50	 	 	 	 	 	 	 	 	 	 	 	 	 	 	 	 	 	 	1581541532	9.42	17.45
12/02/2020 21:05:33	120220	12022020	210533	244.56	12.288903	-56.964588	244.62	0.610	-0.550	1.520	244.56	-1.90	1.90	 	 	 	 	 	 	 	 	 	 	 	 	 	 	 	 	 	 	1581541533	9.13	16.91
12/02/2020 21:05:34	120220	12022020	210534	244.26	12.288888	-56.964627	244.30	0.450	-0.580	1.570	244.26	-1.90	2.00	 	 	 	 	 	 	 	 	 	 	 	 	 	 	 	 	 	 	1581541534	8.95	16.58
12/02/2020 21:05:35	120220	12022020	210535	244.04	12.288870	-56.964667	244.09	0.260	-0.800	1.190	244.04	-2.20	1.60	 	 	 	 	 	 	 	 	 	 	 	 	 	 	 	 	 	 	1581541535	9.08	16.82
12/02/2020 21:05:36	120220	12022020	210536	243.97	12.288852	-56.964707	244.01	0.180	-1.240	0.600	243.97	-2.60	1.00	 	 	 	 	 	 	 	 	 	 	 	 	 	 	 	 	 	 	1581541536	9.52	17.63
12/02/2020 21:05:37	120220	12022020	210537	243.97	12.288830	-56.964748	244.00	0.070	-1.460	0.110	243.97	-2.80	0.50	 	 	 	 	 	 	 	 	 	 	 	 	 	 	 	 	 	 	1581541537	9.79	18.13
12/02/2020 21:05:38	120220	12022020	210538	243.89	12.288812	-56.964788	243.89	-0.220	-1.040	0.020	243.89	-2.40	0.40	 	 	 	 	 	 	 	 	 	 	 	 	 	 	 	 	 	 	1581541538	9.54	17.67
12/02/2020 21:05:39	120220	12022020	210539	243.85	12.288797	-56.964828	243.88	-0.630	-0.120	0.130	243.85	-1.40	0.60	 	 	 	 	 	 	 	 	 	 	 	 	 	 	 	 	 	 	1581541539	9.12	16.89
12/02/2020 21:05:40	120220	12022020	210540	244.02	12.288780	-56.964868	244.07	-0.840	0.800	0.260	244.02	-0.50	0.70	 	 	 	 	 	 	 	 	 	 	 	 	 	 	 	 	 	 	1581541540	8.95	16.58
12/02/2020 21:05:41	120220	12022020	210541	244.27	12.288765	-56.964908	244.34	-0.640	1.160	0.480	244.27	-0.20	0.90	 	 	 	 	 	 	 	 	 	 	 	 	 	 	 	 	 	 	1581541541	9.20	17.04
12/02/2020 21:05:42	120220	12022020	210542	244.41	12.288748	-56.964952	244.49	-0.130	0.810	0.730	244.41	-0.60	1.10	 	 	 	 	 	 	 	 	 	 	 	 	 	 	 	 	 	 	1581541542	9.67	17.91
12/02/2020 21:05:43	120220	12022020	210543	244.46	12.288730	-56.964995	244.54	0.390	0.030	0.810	244.46	-1.40	1.20	 	 	 	 	 	 	 	 	 	 	 	 	 	 	 	 	 	 	1581541543	9.92	18.37
12/02/2020 21:05:44	120220	12022020	210544	244.58	12.288712	-56.965037	244.68	0.660	-0.680	0.740	244.58	-2.10	1.20	 	 	 	 	 	 	 	 	 	 	 	 	 	 	 	 	 	 	1581541544	9.81	18.17
12/02/2020 21:05:45	120220	12022020	210545	244.73	12.288693	-56.965077	244.84	0.650	-1.050	0.620	244.76	-2.40	1.00	 	 	 	 	 	 	 	 	 	 	 	 	 	 	 	 	 	 	1581541545	9.43	17.46
12/02/2020 21:05:46	120220	12022020	210546	244.88	12.288677	-56.965117	244.96	0.500	-1.140	0.480	244.88	-2.50	0.90	 	 	 	 	 	 	 	 	 	 	 	 	 	 	 	 	 	 	1581541546	9.21	17.06
12/02/2020 21:05:47	120220	12022020	210547	244.97	12.288658	-56.965157	245.03	0.260	-0.980	0.250	244.97	-2.30	0.70	 	 	 	 	 	 	 	 	 	 	 	 	 	 	 	 	 	 	1581541547	9.24	17.11
12/02/2020 21:05:48	120220	12022020	210548	244.97	12.288642	-56.965197	245.03	-0.080	-0.470	0.090	244.97	-1.80	0.50	 	 	 	 	 	 	 	 	 	 	 	 	 	 	 	 	 	 	1581541548	9.15	16.95
12/02/2020 21:05:49	120220	12022020	210549	244.77	12.288625	-56.965237	244.80	-0.430	0.120	0.240	244.77	-1.20	0.70	 	 	 	 	 	 	 	 	 	 	 	 	 	 	 	 	 	 	1581541549	9.04	16.74
12/02/2020 21:05:50	120220	12022020	210550	244.33	12.288610	-56.965277	244.35	-0.620	0.480	0.670	244.33	-0.90	1.10	 	 	 	 	 	 	 	 	 	 	 	 	 	 	 	 	 	 	1581541550	9.17	16.98
12/02/2020 21:05:51	120220	12022020	210551	243.75	12.288593	-56.965318	243.79	-0.510	0.410	1.120	243.75	-1.00	1.50	 	 	 	 	 	 	 	 	 	 	 	 	 	 	 	 	 	 	1581541551	9.46	17.52
12/02/2020 21:05:52	120220	12022020	210552	243.26	12.288577	-56.965360	243.32	-0.150	-0.020	1.350	243.26	-1.40	1.80	 	 	 	 	 	 	 	 	 	 	 	 	 	 	 	 	 	 	1581541552	9.71	17.98
12/02/2020 21:05:53	120220	12022020	210553	242.99	12.288558	-56.965403	243.05	0.250	-0.490	1.270	242.99	-1.90	1.70	 	 	 	 	 	 	 	 	 	 	 	 	 	 	 	 	 	 	1581541553	9.70	17.96
12/02/2020 21:05:54	120220	12022020	210554	242.90	12.288540	-56.965443	242.98	0.480	-0.820	1.020	242.90	-2.20	1.40	 	 	 	 	 	 	 	 	 	 	 	 	 	 	 	 	 	 	1581541554	9.53	17.65
12/02/2020 21:05:55	120220	12022020	210555	243.12	12.288522	-56.965483	243.21	0.410	-0.930	0.630	243.12	-2.30	1.00	 	 	 	 	 	 	 	 	 	 	 	 	 	 	 	 	 	 	1581541555	9.38	17.37
12/02/2020 21:05:56	120220	12022020	210556	243.68	12.288503	-56.965523	243.79	0.110	-0.820	0.170	243.68	-2.20	0.60	 	 	 	 	 	 	 	 	 	 	 	 	 	 	 	 	 	 	1581541556	9.29	17.21
12/02/2020 21:05:57	120220	12022020	210557	244.29	12.288487	-56.965563	244.56	-0.190	-0.560	-0.210	244.43	-1.90	0.20	 	 	 	 	 	 	 	 	 	 	 	 	 	 	 	 	 	 	1581541557	9.26	17.15
12/02/2020 21:05:58	120220	12022020	210558	245.03	12.288468	-56.965603	245.13	-0.360	-0.260	-0.230	245.03	-1.60	0.20	 	 	 	 	 	 	 	 	 	 	 	 	 	 	 	 	 	 	1581541558	9.30	17.22
12/02/2020 21:05:59	120220	12022020	210559	245.22	12.288450	-56.965645	245.27	-0.380	-0.030	0.260	245.22	-1.40	0.70	 	 	 	 	 	 	 	 	 	 	 	 	 	 	 	 	 	 	1581541559	9.42	17.45
12/02/2020 21:06:00	120220	12022020	210600	244.88	12.288435	-56.965687	244.88	-0.310	0.080	1.060	244.88	-1.30	1.50	 	 	 	 	 	 	 	 	 	 	 	 	 	 	 	 	 	 	1581541560	9.54	17.67
12/02/2020 21:06:01	120220	12022020	210601	244.04	12.288418	-56.965730	244.04	-0.180	0.100	1.840	244.04	-1.30	2.30	 	 	 	 	 	 	 	 	 	 	 	 	 	 	 	 	 	 	1581541561	9.63	17.83
12/02/2020 21:06:02	120220	12022020	210602	243.03	12.288403	-56.965772	243.03	0.050	0.100	2.220	243.03	-1.30	2.60	1014.80	26.60	30.20	20.00	21.20	109.0	67.0	58.0	389.0	27.6	197.00	5.60	73.00	10.30	7766	12007.0	27.4	27.4	1581541562	9.57	17.72
12/02/2020 21:06:03	120220	12022020	210603	242.25	12.288387	-56.965813	242.29	0.330	0.080	2.120	242.25	-1.30	2.50	 	 	 	 	 	 	 	 	 	 	 	 	 	 	 	 	 	 	1581541563	9.45	17.50
12/02/2020 21:06:04	120220	12022020	210604	242.06	12.288368	-56.965853	242.15	0.510	0.010	1.590	242.06	-1.40	2.00	 	 	 	 	 	 	 	 	 	 	 	 	 	 	 	 	 	 	1581541564	9.30	17.22
12/02/2020 21:06:05	120220	12022020	210605	242.56	12.288350	-56.965892	242.70	0.470	-0.150	0.790	242.56	-1.50	1.20	 	 	 	 	 	 	 	 	 	 	 	 	 	 	 	 	 	 	1581541565	9.20	17.04
12/02/2020 21:06:06	120220	12022020	210606	243.37	12.288332	-56.965932	243.51	0.290	-0.340	0.100	243.37	-1.70	0.50	 	 	 	 	 	 	 	 	 	 	 	 	 	 	 	 	 	 	1581541566	9.15	16.95
12/02/2020 21:06:07	120220	12022020	210607	244.17	12.288312	-56.965970	244.29	0.090	-0.580	-0.240	244.17	-1.90	0.20	 	 	 	 	 	 	 	 	 	 	 	 	 	 	 	 	 	 	1581541567	9.19	17.02
12/02/2020 21:06:08	120220	12022020	210608	244.79	12.288293	-56.966010	244.89	-0.050	-0.790	-0.190	244.79	-2.20	0.20	 	 	 	 	 	 	 	 	 	 	 	 	 	 	 	 	 	 	1581541568	9.25	17.13
12/02/2020 21:06:09	120220	12022020	210609	245.12	12.288277	-56.966050	245.21	-0.110	-0.920	0.120	245.12	-2.30	0.60	 	 	 	 	 	 	 	 	 	 	 	 	 	 	 	 	 	 	1581541569	9.29	17.21
12/02/2020 21:06:10	120220	12022020	210610	245.15	12.288258	-56.966090	245.23	-0.110	-0.900	0.560	245.15	-2.30	1.00	 	 	 	 	 	 	 	 	 	 	 	 	 	 	 	 	 	 	1581541570	9.31	17.24
12/02/2020 21:06:11	120220	12022020	210611	244.89	12.288242	-56.966132	244.95	-0.070	-0.810	1.080	244.89	-2.20	1.50	 	 	 	 	 	 	 	 	 	 	 	 	 	 	 	 	 	 	1581541571	9.39	17.39
12/02/2020 21:06:12	120220	12022020	210612	244.46	12.288225	-56.966173	244.52	-0.070	-0.620	1.470	244.46	-2.00	1.90	 	 	 	 	 	 	 	 	 	 	 	 	 	 	 	 	 	 	1581541572	9.53	17.65
12/02/2020 21:06:13	120220	12022020	210613	244.10	12.288210	-56.966215	244.17	-0.120	-0.340	1.590	244.10	-1.70	2.00	 	 	 	 	 	 	 	 	 	 	 	 	 	 	 	 	 	 	1581541573	9.55	17.69
12/02/2020 21:06:14	120220	12022020	210614	243.90	12.288195	-56.966257	243.97	-0.200	-0.030	1.430	243.90	-1.40	1.80	 	 	 	 	 	 	 	 	 	 	 	 	 	 	 	 	 	 	1581541574	9.55	17.69
12/02/2020 21:06:15	120220	12022020	210615	243.89	12.288178	-56.966298	243.98	-0.240	0.240	0.950	243.89	-1.10	1.30	 	 	 	 	 	 	 	 	 	 	 	 	 	 	 	 	 	 	1581541575	9.50	17.59
12/02/2020 21:06:16	120220	12022020	210616	244.07	12.288158	-56.966338	244.15	-0.160	0.400	0.290	244.07	-1.00	0.70	 	 	 	 	 	 	 	 	 	 	 	 	 	 	 	 	 	 	1581541576	9.46	17.52
12/02/2020 21:06:17	120220	12022020	210617	244.38	12.288138	-56.966378	244.48	-0.020	0.460	-0.290	244.38	-0.90	0.10	 	 	 	 	 	 	 	 	 	 	 	 	 	 	 	 	 	 	1581541577	9.45	17.50
12/02/2020 21:06:18	120220	12022020	210618	244.73	12.288118	-56.966418	244.84	0.060	0.430	-0.440	244.73	-0.90	-0.00	 	 	 	 	 	 	 	 	 	 	 	 	 	 	 	 	 	 	1581541578	9.33	17.28
12/02/2020 21:06:19	120220	12022020	210619	244.97	12.288102	-56.966458	245.06	0.070	0.210	-0.070	244.97	-1.20	0.40	 	 	 	 	 	 	 	 	 	 	 	 	 	 	 	 	 	 	1581541579	9.23	17.09
12/02/2020 21:06:20	120220	12022020	210620	245.03	12.288085	-56.966500	245.13	0.070	-0.300	0.600	245.03	-1.70	1.00	 	 	 	 	 	 	 	 	 	 	 	 	 	 	 	 	 	 	1581541580	9.40	17.41
12/02/2020 21:06:21	120220	12022020	210621	245.06	12.288072	-56.966543	245.18	0.140	-0.930	1.120	245.07	-2.30	1.50	 	 	 	 	 	 	 	 	 	 	 	 	 	 	 	 	 	 	1581541581	9.59	17.76
12/02/2020 21:06:22	120220	12022020	210622	245.19	12.288057	-56.966585	245.32	0.230	-1.330	1.200	245.19	-2.70	1.60	 	 	 	 	 	 	 	 	 	 	 	 	 	 	 	 	 	 	1581541582	9.54	17.67
12/02/2020 21:06:23	120220	12022020	210623	245.26	12.288040	-56.966625	245.36	0.240	-1.280	1.030	245.25	-2.60	1.40	 	 	 	 	 	 	 	 	 	 	 	 	 	 	 	 	 	 	1581541583	9.25	17.13
12/02/2020 21:06:24	120220	12022020	210624	245.07	12.288023	-56.966665	245.14	0.150	-0.990	0.890	245.07	-2.30	1.30	 	 	 	 	 	 	 	 	 	 	 	 	 	 	 	 	 	 	1581541584	9.11	16.87
12/02/2020 21:06:25	120220	12022020	210625	244.73	12.288007	-56.966705	244.80	-0.010	-0.640	0.810	244.73	-2.00	1.20	 	 	 	 	 	 	 	 	 	 	 	 	 	 	 	 	 	 	1581541585	9.27	17.17
12/02/2020 21:06:26	120220	12022020	210626	244.47	12.287988	-56.966747	244.55	-0.160	-0.240	0.670	244.47	-1.60	1.10	 	 	 	 	 	 	 	 	 	 	 	 	 	 	 	 	 	 	1581541586	9.39	17.39
12/02/2020 21:06:27	120220	12022020	210627	244.39	12.287970	-56.966787	244.47	-0.270	0.120	0.580	244.39	-1.20	1.00	 	 	 	 	 	 	 	 	 	 	 	 	 	 	 	 	 	 	1581541587	9.46	17.52
12/02/2020 21:06:28	120220	12022020	210628	244.41	12.287953	-56.966828	244.50	-0.300	0.310	0.690	244.41	-1.00	1.10	 	 	 	 	 	 	 	 	 	 	 	 	 	 	 	 	 	 	1581541588	9.60	17.78
12/02/2020 21:06:29	120220	12022020	210629	244.45	12.287935	-56.966870	244.54	-0.250	0.350	0.930	244.45	-1.00	1.40	 	 	 	 	 	 	 	 	 	 	 	 	 	 	 	 	 	 	1581541589	9.68	17.93
12/02/2020 21:06:30	120220	12022020	210630	244.60	12.287920	-56.966913	244.71	-0.130	0.300	1.060	244.60	-1.10	1.50	 	 	 	 	 	 	 	 	 	 	 	 	 	 	 	 	 	 	1581541590	9.59	17.76
12/02/2020 21:06:31	120220	12022020	210631	244.79	12.287903	-56.966955	244.89	0.000	0.030	1.110	244.79	-1.40	1.50	 	 	 	 	 	 	 	 	 	 	 	 	 	 	 	 	 	 	1581541591	9.53	17.65
12/02/2020 21:06:32	120220	12022020	210632	244.80	12.287887	-56.966997	244.87	0.110	-0.460	1.260	244.80	-1.80	1.70	 	 	 	 	 	 	 	 	 	 	 	 	 	 	 	 	 	 	1581541592	9.68	17.93
12/02/2020 21:06:33	120220	12022020	210633	244.70	12.287870	-56.967040	244.76	0.180	-0.800	1.350	244.68	-2.20	1.80	 	 	 	 	 	 	 	 	 	 	 	 	 	 	 	 	 	 	1581541593	9.75	18.06
12/02/2020 21:06:34	120220	12022020	210634	244.64	12.287855	-56.967082	244.73	0.130	-0.690	1.240	244.64	-2.00	1.60	 	 	 	 	 	 	 	 	 	 	 	 	 	 	 	 	 	 	1581541594	9.40	17.41
12/02/2020 21:06:35	120220	12022020	210635	244.69	12.287838	-56.967122	244.79	0.010	-0.280	0.850	244.71	-1.60	1.20	 	 	 	 	 	 	 	 	 	 	 	 	 	 	 	 	 	 	1581541595	8.99	16.65
12/02/2020 21:06:36	120220	12022020	210636	244.74	12.287820	-56.967160	244.80	-0.080	0.030	0.420	244.74	-1.30	0.80	 	 	 	 	 	 	 	 	 	 	 	 	 	 	 	 	 	 	1581541596	8.98	16.63
12/02/2020 21:06:37	120220	12022020	210637	244.78	12.287802	-56.967198	244.84	-0.050	0.020	0.060	244.78	-1.40	0.50	 	 	 	 	 	 	 	 	 	 	 	 	 	 	 	 	 	 	1581541597	9.28	17.19
12/02/2020 21:06:38	120220	12022020	210638	244.78	12.287782	-56.967240	244.84	0.050	-0.210	-0.070	244.78	-1.60	0.40	 	 	 	 	 	 	 	 	 	 	 	 	 	 	 	 	 	 	1581541598	9.54	17.67
12/02/2020 21:06:39	120220	12022020	210639	244.66	12.287763	-56.967280	244.72	0.120	-0.450	0.150	244.66	-1.80	0.60	 	 	 	 	 	 	 	 	 	 	 	 	 	 	 	 	 	 	1581541599	9.57	17.72
12/02/2020 21:06:40	120220	12022020	210640	244.51	12.287747	-56.967322	244.58	0.070	-0.640	0.540	244.51	-2.00	1.00	 	 	 	 	 	 	 	 	 	 	 	 	 	 	 	 	 	 	1581541600	9.51	17.61
12/02/2020 21:06:41	120220	12022020	210641	244.41	12.287730	-56.967363	244.48	-0.010	-0.780	0.940	244.41	-2.10	1.40	 	 	 	 	 	 	 	 	 	 	 	 	 	 	 	 	 	 	1581541601	9.53	17.65
12/02/2020 21:06:42	120220	12022020	210642	244.33	12.287715	-56.967407	244.40	-0.050	-0.780	1.330	244.33	-2.10	1.80	 	 	 	 	 	 	 	 	 	 	 	 	 	 	 	 	 	 	1581541602	9.56	17.71
12/02/2020 21:06:43	120220	12022020	210643	244.26	12.287702	-56.967450	244.33	-0.080	-0.660	1.550	244.26	-2.00	2.00	 	 	 	 	 	 	 	 	 	 	 	 	 	 	 	 	 	 	1581541603	9.57	17.72
12/02/2020 21:06:44	120220	12022020	210644	244.32	12.287685	-56.967492	244.41	-0.130	-0.470	1.380	244.32	-1.80	1.80	 	 	 	 	 	 	 	 	 	 	 	 	 	 	 	 	 	 	1581541604	9.58	17.74
12/02/2020 21:06:45	120220	12022020	210645	244.49	12.287667	-56.967533	244.58	-0.210	-0.290	1.070	244.49	-1.60	1.50	 	 	 	 	 	 	 	 	 	 	 	 	 	 	 	 	 	 	1581541605	9.64	17.85
12/02/2020 21:06:46	120220	12022020	210646	244.60	12.287648	-56.967575	244.68	-0.290	-0.040	0.840	244.60	-1.40	1.20	 	 	 	 	 	 	 	 	 	 	 	 	 	 	 	 	 	 	1581541606	9.69	17.95
12/02/2020 21:06:47	120220	12022020	210647	244.60	12.287632	-56.967617	244.66	-0.320	0.370	0.700	244.58	-1.00	1.10	 	 	 	 	 	 	 	 	 	 	 	 	 	 	 	 	 	 	1581541607	9.51	17.61
12/02/2020 21:06:48	120220	12022020	210648	244.45	12.287613	-56.967657	244.52	-0.230	0.760	0.690	244.45	-0.60	1.10	 	 	 	 	 	 	 	 	 	 	 	 	 	 	 	 	 	 	1581541608	9.27	17.17
12/02/2020 21:06:49	120220	12022020	210649	244.26	12.287597	-56.967697	244.27	-0.000	0.800	0.850	244.21	-0.60	1.30	 	 	 	 	 	 	 	 	 	 	 	 	 	 	 	 	 	 	1581541609	9.28	17.19
12/02/2020 21:06:50	120220	12022020	210650	243.93	12.287580	-56.967738	243.99	0.280	0.330	1.060	243.93	-1.10	1.50	 	 	 	 	 	 	 	 	 	 	 	 	 	 	 	 	 	 	1581541610	9.55	17.69
12/02/2020 21:06:51	120220	12022020	210651	243.77	12.287562	-56.967782	243.85	0.450	-0.460	1.010	243.77	-1.90	1.40	 	 	 	 	 	 	 	 	 	 	 	 	 	 	 	 	 	 	1581541611	9.75	18.06
12/02/2020 21:06:52	120220	12022020	210652	243.85	12.287545	-56.967823	243.93	0.440	-1.170	0.680	243.85	-2.60	1.10	 	 	 	 	 	 	 	 	 	 	 	 	 	 	 	 	 	 	1581541612	9.67	17.91
12/02/2020 21:06:53	120220	12022020	210653	244.13	12.287525	-56.967863	244.22	0.320	-1.470	0.260	244.13	-2.80	0.70	 	 	 	 	 	 	 	 	 	 	 	 	 	 	 	 	 	 	1581541613	9.41	17.43
12/02/2020 21:06:54	120220	12022020	210654	244.41	12.287507	-56.967902	244.48	0.150	-1.310	0.120	244.41	-2.70	0.50	 	 	 	 	 	 	 	 	 	 	 	 	 	 	 	 	 	 	1581541614	9.13	16.91
12/02/2020 21:06:55	120220	12022020	210655	244.55	12.287490	-56.967942	244.60	-0.030	-0.890	0.360	244.55	-2.20	0.80	 	 	 	 	 	 	 	 	 	 	 	 	 	 	 	 	 	 	1581541615	9.05	16.76
12/02/2020 21:06:56	120220	12022020	210656	244.54	12.287473	-56.967982	244.58	-0.170	-0.480	0.820	244.54	-1.80	1.30	 	 	 	 	 	 	 	 	 	 	 	 	 	 	 	 	 	 	1581541616	9.28	17.19
12/02/2020 21:06:57	120220	12022020	210657	244.33	12.287458	-56.968025	244.35	-0.240	-0.200	1.340	244.33	-1.60	1.80	 	 	 	 	 	 	 	 	 	 	 	 	 	 	 	 	 	 	1581541617	9.64	17.85
12/02/2020 21:06:58	120220	12022020	210658	244.00	12.287443	-56.968068	244.03	-0.300	0.020	1.670	244.00	-1.30	2.10	 	 	 	 	 	 	 	 	 	 	 	 	 	 	 	 	 	 	1581541618	9.82	18.19
12/02/2020 21:06:59	120220	12022020	210659	243.73	12.287427	-56.968112	243.76	-0.340	0.190	1.750	243.73	-1.20	2.20	 	 	 	 	 	 	 	 	 	 	 	 	 	 	 	 	 	 	1581541619	9.80	18.15
12/02/2020 21:07:00	120220	12022020	210700	243.57	12.287408	-56.968155	243.61	-0.330	0.260	1.550	243.57	-1.10	1.90	 	 	 	 	 	 	 	 	 	 	 	 	 	 	 	 	 	 	1581541620	9.77	18.09
12/02/2020 21:07:01	120220	12022020	210701	243.53	12.287390	-56.968197	243.60	-0.230	0.230	1.040	243.54	-1.10	1.40	 	 	 	 	 	 	 	 	 	 	 	 	 	 	 	 	 	 	1581541621	9.69	17.95
12/02/2020 21:07:02	120220	12022020	210702	243.67	12.287370	-56.968237	243.73	-0.070	0.140	0.360	243.67	-1.20	0.70	1014.80	26.90	33.50	19.90	21.80	85.0	65.0	50.0	390.0	27.6	197.00	5.40	73.00	10.20	7433	12629.0	27.4	27.4	1581541622	9.61	17.80
12/02/2020 21:07:03	120220	12022020	210703	243.91	12.287350	-56.968277	243.97	0.080	0.030	-0.160	243.91	-1.40	0.20	 	 	 	 	 	 	 	 	 	 	 	 	 	 	 	 	 	 	1581541623	9.50	17.59
12/02/2020 21:07:04	120220	12022020	210704	244.21	12.287330	-56.968317	244.28	0.190	-0.040	-0.270	244.21	-1.40	0.20	 	 	 	 	 	 	 	 	 	 	 	 	 	 	 	 	 	 	1581541624	9.30	17.22
12/02/2020 21:07:05	120220	12022020	210705	244.41	12.287315	-56.968357	244.47	0.290	-0.260	0.130	244.41	-1.70	0.60	 	 	 	 	 	 	 	 	 	 	 	 	 	 	 	 	 	 	1581541625	9.25	17.13
12/02/2020 21:07:06	120220	12022020	210706	244.46	12.287300	-56.968398	244.52	0.390	-0.710	0.900	244.46	-2.10	1.30	 	 	 	 	 	 	 	 	 	 	 	 	 	 	 	 	 	 	1581541626	9.54	17.67
12/02/2020 21:07:07	120220	12022020	210707	244.38	12.287287	-56.968443	244.43	0.410	-1.050	1.570	244.38	-2.40	2.00	 	 	 	 	 	 	 	 	 	 	 	 	 	 	 	 	 	 	1581541627	9.71	17.98
12/02/2020 21:07:08	120220	12022020	210708	244.25	12.287272	-56.968485	244.31	0.250	-1.020	1.830	244.25	-2.40	2.20	 	 	 	 	 	 	 	 	 	 	 	 	 	 	 	 	 	 	1581541628	9.46	17.52
12/02/2020 21:07:09	120220	12022020	210709	244.13	12.287255	-56.968525	244.19	0.000	-0.790	1.750	244.13	-2.10	2.10	 	 	 	 	 	 	 	 	 	 	 	 	 	 	 	 	 	 	1581541629	9.24	17.11
12/02/2020 21:07:10	120220	12022020	210710	243.95	12.287237	-56.968565	243.97	-0.170	-0.610	1.510	243.95	-2.00	1.90	 	 	 	 	 	 	 	 	 	 	 	 	 	 	 	 	 	 	1581541630	9.41	17.43
12/02/2020 21:07:11	120220	12022020	210711	243.77	12.287217	-56.968607	243.75	-0.260	-0.430	1.220	243.72	-1.80	1.60	 	 	 	 	 	 	 	 	 	 	 	 	 	 	 	 	 	 	1581541631	9.62	17.82
12/02/2020 21:07:12	120220	12022020	210712	243.54	12.287198	-56.968648	243.58	-0.320	-0.220	0.980	243.54	-1.60	1.40	 	 	 	 	 	 	 	 	 	 	 	 	 	 	 	 	 	 	1581541632	9.73	18.02
12/02/2020 21:07:13	120220	12022020	210713	243.49	12.287180	-56.968690	243.53	-0.380	0.080	0.880	243.49	-1.30	1.30	 	 	 	 	 	 	 	 	 	 	 	 	 	 	 	 	 	 	1581541633	9.73	18.02
12/02/2020 21:07:14	120220	12022020	210714	243.63	12.287163	-56.968732	243.70	-0.410	0.480	0.890	243.63	-0.90	1.30	 	 	 	 	 	 	 	 	 	 	 	 	 	 	 	 	 	 	1581541634	9.53	17.65
12/02/2020 21:07:15	120220	12022020	210715	243.96	12.287147	-56.968773	244.05	-0.310	0.710	0.810	243.96	-0.70	1.20	 	 	 	 	 	 	 	 	 	 	 	 	 	 	 	 	 	 	1581541635	9.37	17.35
12/02/2020 21:07:16	120220	12022020	210716	244.30	12.287128	-56.968815	244.38	-0.030	0.470	0.720	244.30	-0.90	1.10	 	 	 	 	 	 	 	 	 	 	 	 	 	 	 	 	 	 	1581541636	9.52	17.63
12/02/2020 21:07:17	120220	12022020	210717	244.51	12.287110	-56.968857	244.58	0.320	-0.180	0.850	244.51	-1.60	1.30	 	 	 	 	 	 	 	 	 	 	 	 	 	 	 	 	 	 	1581541637	9.80	18.15
12/02/2020 21:07:18	120220	12022020	210718	244.53	12.287093	-56.968900	244.58	0.520	-0.930	1.170	244.53	-2.30	1.60	 	 	 	 	 	 	 	 	 	 	 	 	 	 	 	 	 	 	1581541638	9.89	18.32
12/02/2020 21:07:19	120220	12022020	210719	244.35	12.287078	-56.968943	244.39	0.480	-1.480	1.480	244.35	-2.90	1.90	 	 	 	 	 	 	 	 	 	 	 	 	 	 	 	 	 	 	1581541639	9.82	18.19
12/02/2020 21:07:20	120220	12022020	210720	244.06	12.287062	-56.968987	244.08	0.230	-1.550	1.670	244.06	-2.90	2.10	 	 	 	 	 	 	 	 	 	 	 	 	 	 	 	 	 	 	1581541640	9.61	17.80
12/02/2020 21:07:21	120220	12022020	210721	243.78	12.287047	-56.969027	243.79	-0.050	-1.010	1.670	243.78	-2.30	2.10	 	 	 	 	 	 	 	 	 	 	 	 	 	 	 	 	 	 	1581541641	9.28	17.19
12/02/2020 21:07:22	120220	12022020	210722	243.61	12.287030	-56.969065	243.64	-0.240	0.020	1.480	243.61	-1.30	1.90	 	 	 	 	 	 	 	 	 	 	 	 	 	 	 	 	 	 	1581541642	8.90	16.48
12/02/2020 21:07:23	120220	12022020	210723	243.67	12.287012	-56.969103	243.72	-0.310	0.890	1.170	243.67	-0.40	1.60	 	 	 	 	 	 	 	 	 	 	 	 	 	 	 	 	 	 	1581541643	8.82	16.33
12/02/2020 21:07:24	120220	12022020	210724	243.77	12.286992	-56.969142	243.81	-0.270	0.950	1.000	243.77	-0.40	1.40	 	 	 	 	 	 	 	 	 	 	 	 	 	 	 	 	 	 	1581541644	9.36	17.33
12/02/2020 21:07:25	120220	12022020	210725	243.76	12.286972	-56.969185	243.80	-0.140	0.310	1.150	243.74	-1.10	1.60	 	 	 	 	 	 	 	 	 	 	 	 	 	 	 	 	 	 	1581541645	10.08	18.67
12/02/2020 21:07:26	120220	12022020	210726	243.72	12.286955	-56.969230	243.78	0.050	-0.380	1.440	243.72	-1.80	1.90	 	 	 	 	 	 	 	 	 	 	 	 	 	 	 	 	 	 	1581541646	10.20	18.89
12/02/2020 21:07:27	120220	12022020	210727	243.74	12.286938	-56.969273	243.79	0.200	-0.780	1.630	243.74	-2.10	2.00	 	 	 	 	 	 	 	 	 	 	 	 	 	 	 	 	 	 	1581541647	9.81	18.17
12/02/2020 21:07:28	120220	12022020	210728	243.76	12.286923	-56.969317	243.80	0.270	-0.950	1.570	243.76	-2.30	2.00	 	 	 	 	 	 	 	 	 	 	 	 	 	 	 	 	 	 	1581541648	9.48	17.56
12/02/2020 21:07:29	120220	12022020	210729	243.82	12.286907	-56.969357	243.86	0.220	-0.920	1.280	243.82	-2.30	1.70	 	 	 	 	 	 	 	 	 	 	 	 	 	 	 	 	 	 	1581541649	9.34	17.30
12/02/2020 21:07:30	120220	12022020	210730	244.08	12.286890	-56.969397	244.14	0.100	-0.680	0.780	244.08	-2.00	1.20	 	 	 	 	 	 	 	 	 	 	 	 	 	 	 	 	 	 	1581541650	9.23	17.09
12/02/2020 21:07:31	120220	12022020	210731	244.42	12.286870	-56.969435	244.46	-0.030	-0.340	0.230	244.42	-1.70	0.60	 	 	 	 	 	 	 	 	 	 	 	 	 	 	 	 	 	 	1581541651	9.14	16.93
12/02/2020 21:07:32	120220	12022020	210732	244.53	12.286850	-56.969475	244.55	-0.120	-0.150	0.000	244.53	-1.50	0.40	 	 	 	 	 	 	 	 	 	 	 	 	 	 	 	 	 	 	1581541652	9.30	17.22
12/02/2020 21:07:33	120220	12022020	210733	244.32	12.286832	-56.969515	244.34	-0.190	-0.270	0.250	244.32	-1.60	0.70	 	 	 	 	 	 	 	 	 	 	 	 	 	 	 	 	 	 	1581541653	9.65	17.87
12/02/2020 21:07:34	120220	12022020	210734	243.94	12.286812	-56.969558	243.95	-0.250	-0.540	0.620	243.94	-1.90	1.10	 	 	 	 	 	 	 	 	 	 	 	 	 	 	 	 	 	 	1581541654	10.00	18.52
12/02/2020 21:07:35	120220	12022020	210735	243.56	12.286793	-56.969602	243.57	-0.320	-0.570	0.920	243.56	-1.90	1.40	 	 	 	 	 	 	 	 	 	 	 	 	 	 	 	 	 	 	1581541655	10.01	18.54
12/02/2020 21:07:36	120220	12022020	210736	243.30	12.286777	-56.969645	243.33	-0.390	-0.070	1.210	243.30	-1.40	1.60	 	 	 	 	 	 	 	 	 	 	 	 	 	 	 	 	 	 	1581541656	9.57	17.72
12/02/2020 21:07:37	120220	12022020	210737	243.23	12.286762	-56.969685	243.28	-0.350	0.660	1.450	243.23	-0.70	1.90	 	 	 	 	 	 	 	 	 	 	 	 	 	 	 	 	 	 	1581541657	9.11	16.87
12/02/2020 21:07:38	120220	12022020	210738	243.42	12.286748	-56.969725	243.48	-0.110	1.030	1.370	243.42	-0.30	1.80	 	 	 	 	 	 	 	 	 	 	 	 	 	 	 	 	 	 	1581541658	9.04	16.74
12/02/2020 21:07:39	120220	12022020	210739	243.69	12.286730	-56.969767	243.86	0.320	0.660	1.030	243.77	-0.70	1.40	 	 	 	 	 	 	 	 	 	 	 	 	 	 	 	 	 	 	1581541659	9.43	17.46
12/02/2020 21:07:40	120220	12022020	210740	244.23	12.286712	-56.969808	244.31	0.710	-0.220	0.660	244.23	-1.60	1.00	 	 	 	 	 	 	 	 	 	 	 	 	 	 	 	 	 	 	1581541660	9.86	18.26
12/02/2020 21:07:41	120220	12022020	210741	244.63	12.286693	-56.969852	244.69	0.800	-1.000	0.380	244.63	-2.40	0.80	 	 	 	 	 	 	 	 	 	 	 	 	 	 	 	 	 	 	1581541661	9.79	18.13
12/02/2020 21:07:42	120220	12022020	210742	244.70	12.286677	-56.969892	244.73	0.530	-1.360	0.350	244.70	-2.70	0.80	 	 	 	 	 	 	 	 	 	 	 	 	 	 	 	 	 	 	1581541662	9.39	17.39
12/02/2020 21:07:43	120220	12022020	210743	244.50	12.286660	-56.969932	244.53	0.100	-1.420	0.600	244.50	-2.80	1.00	 	 	 	 	 	 	 	 	 	 	 	 	 	 	 	 	 	 	1581541663	9.18	17.00
12/02/2020 21:07:44	120220	12022020	210744	244.23	12.286643	-56.969972	244.28	-0.210	-1.230	0.890	244.23	-2.60	1.30	 	 	 	 	 	 	 	 	 	 	 	 	 	 	 	 	 	 	1581541664	9.22	17.08
12/02/2020 21:07:45	120220	12022020	210745	243.99	12.286627	-56.970013	244.02	-0.330	-0.870	1.130	243.99	-2.20	1.60	 	 	 	 	 	 	 	 	 	 	 	 	 	 	 	 	 	 	1581541665	9.34	17.30
12/02/2020 21:07:46	120220	12022020	210746	243.73	12.286610	-56.970055	243.76	-0.350	-0.440	1.410	243.73	-1.80	1.80	 	 	 	 	 	 	 	 	 	 	 	 	 	 	 	 	 	 	1581541666	9.53	17.65
12/02/2020 21:07:47	120220	12022020	210747	243.49	12.286593	-56.970097	243.54	-0.390	-0.030	1.720	243.49	-1.40	2.10	 	 	 	 	 	 	 	 	 	 	 	 	 	 	 	 	 	 	1581541667	9.70	17.96
12/02/2020 21:07:48	120220	12022020	210748	243.33	12.286577	-56.970140	243.39	-0.410	0.260	1.910	243.33	-1.10	2.30	 	 	 	 	 	 	 	 	 	 	 	 	 	 	 	 	 	 	1581541668	9.82	18.19
12/02/2020 21:07:49	120220	12022020	210749	243.37	12.286560	-56.970183	243.44	-0.340	0.510	1.760	243.37	-0.80	2.10	 	 	 	 	 	 	 	 	 	 	 	 	 	 	 	 	 	 	1581541669	9.80	18.15
12/02/2020 21:07:50	120220	12022020	210750	243.69	12.286542	-56.970225	243.80	-0.140	0.690	1.210	243.69	-0.70	1.60	 	 	 	 	 	 	 	 	 	 	 	 	 	 	 	 	 	 	1581541670	9.57	17.72
12/02/2020 21:07:51	120220	12022020	210751	244.22	12.286523	-56.970265	244.33	0.120	0.580	0.540	244.22	-0.80	0.90	 	 	 	 	 	 	 	 	 	 	 	 	 	 	 	 	 	 	1581541671	9.47	17.54
12/02/2020 21:07:52	120220	12022020	210752	244.76	12.286503	-56.970307	244.84	0.300	0.140	0.100	244.76	-1.20	0.50	 	 	 	 	 	 	 	 	 	 	 	 	 	 	 	 	 	 	1581541672	9.61	17.80
12/02/2020 21:07:53	120220	12022020	210753	245.08	12.286483	-56.970347	245.13	0.330	-0.350	0.060	245.08	-1.70	0.50	 	 	 	 	 	 	 	 	 	 	 	 	 	 	 	 	 	 	1581541673	9.57	17.72
12/02/2020 21:07:54	120220	12022020	210754	245.00	12.286467	-56.970387	245.03	0.270	-0.660	0.420	245.00	-2.00	0.90	 	 	 	 	 	 	 	 	 	 	 	 	 	 	 	 	 	 	1581541674	9.34	17.30
12/02/2020 21:07:55	120220	12022020	210755	244.63	12.286452	-56.970428	244.65	0.230	-0.770	1.020	244.63	-2.10	1.50	 	 	 	 	 	 	 	 	 	 	 	 	 	 	 	 	 	 	1581541675	9.20	17.04
12/02/2020 21:07:56	120220	12022020	210756	244.15	12.286437	-56.970468	244.16	0.190	-0.700	1.520	244.15	-2.00	1.90	 	 	 	 	 	 	 	 	 	 	 	 	 	 	 	 	 	 	1581541676	9.14	16.93
12/02/2020 21:07:57	120220	12022020	210757	243.72	12.286422	-56.970508	243.76	0.150	-0.620	1.680	243.72	-2.00	2.10	 	 	 	 	 	 	 	 	 	 	 	 	 	 	 	 	 	 	1581541677	9.13	16.91
12/02/2020 21:07:58	120220	12022020	210758	243.46	12.286405	-56.970550	243.50	0.160	-0.770	1.500	243.46	-2.10	1.90	 	 	 	 	 	 	 	 	 	 	 	 	 	 	 	 	 	 	1581541678	9.41	17.43
12/02/2020 21:07:59	120220	12022020	210759	243.35	12.286385	-56.970592	243.41	0.160	-1.040	1.130	243.35	-2.40	1.50	 	 	 	 	 	 	 	 	 	 	 	 	 	 	 	 	 	 	1581541679	9.81	18.17
12/02/2020 21:08:00	120220	12022020	210800	243.46	12.286365	-56.970635	243.53	0.020	-1.120	0.680	243.46	-2.50	1.10	 	 	 	 	 	 	 	 	 	 	 	 	 	 	 	 	 	 	1581541680	9.89	18.32
12/02/2020 21:08:01	120220	12022020	210801	243.73	12.286347	-56.970675	243.91	-0.260	-0.840	0.220	243.82	-2.20	0.60	 	 	 	 	 	 	 	 	 	 	 	 	 	 	 	 	 	 	1581541681	9.72	18.00
12/02/2020 21:08:02	120220	12022020	210802	244.31	12.286328	-56.970717	244.40	-0.530	-0.250	-0.140	244.31	-1.60	0.30	1014.70	26.70	32.40	19.80	21.10	66.0	65.0	51.0	391.0	27.5	199.00	5.20	74.00	9.90	7136	10909.0	27.4	27.4	1581541682	9.49	17.58
12/02/2020 21:08:03	120220	12022020	210803	244.71	12.286310	-56.970757	244.88	-0.590	0.410	-0.290	244.79	-0.90	0.10	 	 	 	 	 	 	 	 	 	 	 	 	 	 	 	 	 	 	1581541683	9.40	17.41
12/02/2020 21:08:04	120220	12022020	210804	245.15	12.286292	-56.970798	245.21	-0.410	0.860	-0.130	245.15	-0.50	0.30	 	 	 	 	 	 	 	 	 	 	 	 	 	 	 	 	 	 	1581541684	9.45	17.50
12/02/2020 21:08:05	120220	12022020	210805	245.24	12.286275	-56.970840	245.29	-0.080	0.950	0.250	245.24	-0.40	0.70	 	 	 	 	 	 	 	 	 	 	 	 	 	 	 	 	 	 	1581541685	9.62	17.82
12/02/2020 21:08:06	120220	12022020	210806	245.02	12.286258	-56.970883	245.05	0.220	0.690	0.730	245.02	-0.70	1.20	 	 	 	 	 	 	 	 	 	 	 	 	 	 	 	 	 	 	1581541686	9.74	18.04
12/02/2020 21:08:07	120220	12022020	210807	244.62	12.286243	-56.970925	244.64	0.380	0.240	1.070	244.62	-1.10	1.50	 	 	 	 	 	 	 	 	 	 	 	 	 	 	 	 	 	 	1581541687	9.69	17.95
12/02/2020 21:08:08	120220	12022020	210808	244.23	12.286227	-56.970967	244.23	0.400	-0.270	1.090	244.23	-1.60	1.50	 	 	 	 	 	 	 	 	 	 	 	 	 	 	 	 	 	 	1581541688	9.51	17.61
12/02/2020 21:08:09	120220	12022020	210809	243.88	12.286208	-56.971008	243.90	0.360	-0.790	0.990	243.88	-2.20	1.40	 	 	 	 	 	 	 	 	 	 	 	 	 	 	 	 	 	 	1581541689	9.40	17.41
12/02/2020 21:08:10	120220	12022020	210810	243.62	12.286190	-56.971048	243.64	0.280	-1.220	0.860	243.62	-2.60	1.30	 	 	 	 	 	 	 	 	 	 	 	 	 	 	 	 	 	 	1581541690	9.37	17.35
12/02/2020 21:08:11	120220	12022020	210811	243.50	12.286172	-56.971088	243.52	0.150	-1.440	0.720	243.50	-2.80	1.10	 	 	 	 	 	 	 	 	 	 	 	 	 	 	 	 	 	 	1581541691	9.36	17.33
12/02/2020 21:08:12	120220	12022020	210812	243.51	12.286153	-56.971128	243.53	-0.020	-1.370	0.660	243.51	-2.70	1.10	 	 	 	 	 	 	 	 	 	 	 	 	 	 	 	 	 	 	1581541692	9.33	17.28
12/02/2020 21:08:13	120220	12022020	210813	243.58	12.286137	-56.971170	243.65	-0.130	-1.070	0.670	243.61	-2.40	1.10	 	 	 	 	 	 	 	 	 	 	 	 	 	 	 	 	 	 	1581541693	9.35	17.32
12/02/2020 21:08:14	120220	12022020	210814	243.83	12.286122	-56.971212	243.86	-0.130	-0.720	0.700	243.83	-2.00	1.10	 	 	 	 	 	 	 	 	 	 	 	 	 	 	 	 	 	 	1581541694	9.51	17.61
12/02/2020 21:08:15	120220	12022020	210815	244.05	12.286103	-56.971253	244.15	-0.100	-0.410	0.710	244.11	-1.70	1.10	 	 	 	 	 	 	 	 	 	 	 	 	 	 	 	 	 	 	1581541695	9.74	18.04
12/02/2020 21:08:16	120220	12022020	210816	244.40	12.286087	-56.971297	244.46	-0.120	-0.060	0.700	244.40	-1.40	1.10	 	 	 	 	 	 	 	 	 	 	 	 	 	 	 	 	 	 	1581541696	9.89	18.32
12/02/2020 21:08:17	120220	12022020	210817	244.67	12.286068	-56.971340	244.73	-0.220	0.440	0.720	244.67	-0.90	1.10	 	 	 	 	 	 	 	 	 	 	 	 	 	 	 	 	 	 	1581541697	9.77	18.09
12/02/2020 21:08:18	120220	12022020	210818	244.71	12.286050	-56.971380	244.77	-0.330	0.950	0.820	244.71	-0.40	1.20	 	 	 	 	 	 	 	 	 	 	 	 	 	 	 	 	 	 	1581541698	9.52	17.63
12/02/2020 21:08:19	120220	12022020	210819	244.39	12.286033	-56.971422	244.41	-0.310	1.080	1.040	244.39	-0.30	1.50	 	 	 	 	 	 	 	 	 	 	 	 	 	 	 	 	 	 	1581541699	9.52	17.63
12/02/2020 21:08:20	120220	12022020	210820	243.85	12.286015	-56.971465	243.88	-0.140	0.680	1.240	243.85	-0.70	1.70	 	 	 	 	 	 	 	 	 	 	 	 	 	 	 	 	 	 	1581541700	9.79	18.13
12/02/2020 21:08:21	120220	12022020	210821	243.44	12.285995	-56.971507	243.49	0.100	0.010	1.170	243.44	-1.40	1.60	 	 	 	 	 	 	 	 	 	 	 	 	 	 	 	 	 	 	1581541701	9.91	18.35
12/02/2020 21:08:22	120220	12022020	210822	243.21	12.285975	-56.971548	243.26	0.250	-0.580	0.980	243.21	-2.00	1.40	 	 	 	 	 	 	 	 	 	 	 	 	 	 	 	 	 	 	1581541702	9.68	17.93
12/02/2020 21:08:23	120220	12022020	210823	243.08	12.285957	-56.971588	243.12	0.310	-0.900	0.790	243.08	-2.30	1.20	 	 	 	 	 	 	 	 	 	 	 	 	 	 	 	 	 	 	1581541703	9.30	17.22
12/02/2020 21:08:24	120220	12022020	210824	243.06	12.285940	-56.971627	243.10	0.370	-1.040	0.590	243.06	-2.40	1.00	 	 	 	 	 	 	 	 	 	 	 	 	 	 	 	 	 	 	1581541704	9.04	16.74
12/02/2020 21:08:25	120220	12022020	210825	243.22	12.285922	-56.971667	243.29	0.490	-1.250	0.370	243.22	-2.60	0.80	 	 	 	 	 	 	 	 	 	 	 	 	 	 	 	 	 	 	1581541705	9.19	17.02
12/02/2020 21:08:26	120220	12022020	210826	243.54	12.285903	-56.971707	243.61	0.520	-1.470	0.170	243.54	-2.80	0.60	 	 	 	 	 	 	 	 	 	 	 	 	 	 	 	 	 	 	1581541706	9.57	17.72
12/02/2020 21:08:27	120220	12022020	210827	243.76	12.285883	-56.971748	243.84	0.270	-1.380	0.190	243.79	-2.70	0.60	 	 	 	 	 	 	 	 	 	 	 	 	 	 	 	 	 	 	1581541707	9.72	18.00
12/02/2020 21:08:28	120220	12022020	210828	243.85	12.285867	-56.971790	243.89	-0.200	-0.760	0.470	243.85	-2.10	0.90	 	 	 	 	 	 	 	 	 	 	 	 	 	 	 	 	 	 	1581541708	9.56	17.71
12/02/2020 21:08:29	120220	12022020	210829	243.85	12.285850	-56.971832	243.90	-0.630	0.140	0.860	243.85	-1.20	1.30	 	 	 	 	 	 	 	 	 	 	 	 	 	 	 	 	 	 	1581541709	9.33	17.28
12/02/2020 21:08:30	120220	12022020	210830	243.84	12.285835	-56.971873	243.89	-0.750	0.700	1.120	243.84	-0.60	1.50	 	 	 	 	 	 	 	 	 	 	 	 	 	 	 	 	 	 	1581541710	9.54	17.67
12/02/2020 21:08:31	120220	12022020	210831	243.82	12.285818	-56.971918	243.88	-0.530	0.770	1.090	243.82	-0.60	1.50	 	 	 	 	 	 	 	 	 	 	 	 	 	 	 	 	 	 	1581541711	10.01	18.54
12/02/2020 21:08:32	120220	12022020	210832	243.87	12.285798	-56.971962	243.91	-0.180	0.670	0.740	243.87	-0.70	1.10	 	 	 	 	 	 	 	 	 	 	 	 	 	 	 	 	 	 	1581541712	10.07	18.65
12/02/2020 21:08:33	120220	12022020	210833	243.96	12.285778	-56.972003	244.00	0.110	0.540	0.270	243.96	-0.80	0.70	 	 	 	 	 	 	 	 	 	 	 	 	 	 	 	 	 	 	1581541713	9.74	18.04
12/02/2020 21:08:34	120220	12022020	210834	243.99	12.285758	-56.972042	244.03	0.300	0.260	-0.020	243.99	-1.10	0.40	 	 	 	 	 	 	 	 	 	 	 	 	 	 	 	 	 	 	1581541714	9.48	17.56
12/02/2020 21:08:35	120220	12022020	210835	244.03	12.285738	-56.972082	244.07	0.400	-0.240	-0.110	244.03	-1.60	0.30	 	 	 	 	 	 	 	 	 	 	 	 	 	 	 	 	 	 	1581541715	9.47	17.54
12/02/2020 21:08:36	120220	12022020	210836	244.07	12.285718	-56.972122	244.12	0.410	-0.770	0.010	244.07	-2.10	0.40	 	 	 	 	 	 	 	 	 	 	 	 	 	 	 	 	 	 	1581541716	9.47	17.54
12/02/2020 21:08:37	120220	12022020	210837	243.98	12.285702	-56.972163	244.02	0.310	-1.180	0.440	243.98	-2.50	0.90	 	 	 	 	 	 	 	 	 	 	 	 	 	 	 	 	 	 	1581541717	9.46	17.52
12/02/2020 21:08:38	120220	12022020	210838	243.77	12.285688	-56.972205	243.80	0.120	-1.250	1.020	243.77	-2.60	1.40	 	 	 	 	 	 	 	 	 	 	 	 	 	 	 	 	 	 	1581541718	9.44	17.48
12/02/2020 21:08:39	120220	12022020	210839	243.60	12.285675	-56.972248	243.65	-0.100	-0.980	1.330	243.60	-2.30	1.70	 	 	 	 	 	 	 	 	 	 	 	 	 	 	 	 	 	 	1581541719	9.31	17.24
12/02/2020 21:08:40	120220	12022020	210840	243.68	12.285658	-56.972288	243.74	-0.240	-0.660	1.000	243.68	-2.00	1.40	 	 	 	 	 	 	 	 	 	 	 	 	 	 	 	 	 	 	1581541720	9.26	17.15
12/02/2020 21:08:41	120220	12022020	210841	243.95	12.285638	-56.972328	244.00	-0.190	-0.500	0.400	243.95	-1.80	0.80	 	 	 	 	 	 	 	 	 	 	 	 	 	 	 	 	 	 	1581541721	9.56	17.71
12/02/2020 21:08:42	120220	12022020	210842	244.18	12.285617	-56.972370	244.24	-0.070	-0.430	0.140	244.18	-1.80	0.50	 	 	 	 	 	 	 	 	 	 	 	 	 	 	 	 	 	 	1581541722	9.87	18.28
12/02/2020 21:08:43	120220	12022020	210843	244.36	12.285598	-56.972413	244.42	-0.050	-0.230	0.270	244.36	-1.60	0.70	 	 	 	 	 	 	 	 	 	 	 	 	 	 	 	 	 	 	1581541723	9.89	18.32
12/02/2020 21:08:44	120220	12022020	210844	244.60	12.285580	-56.972455	244.67	-0.200	0.090	0.520	244.60	-1.20	0.90	 	 	 	 	 	 	 	 	 	 	 	 	 	 	 	 	 	 	1581541724	9.71	17.98
12/02/2020 21:08:45	120220	12022020	210845	244.82	12.285565	-56.972498	244.88	-0.370	0.370	0.800	244.82	-1.00	1.20	 	 	 	 	 	 	 	 	 	 	 	 	 	 	 	 	 	 	1581541725	9.60	17.78
12/02/2020 21:08:46	120220	12022020	210846	244.88	12.285548	-56.972540	244.92	-0.330	0.470	0.970	244.88	-0.90	1.40	 	 	 	 	 	 	 	 	 	 	 	 	 	 	 	 	 	 	1581541726	9.60	17.78
12/02/2020 21:08:47	120220	12022020	210847	244.77	12.285530	-56.972582	244.82	-0.070	0.340	0.930	244.77	-1.00	1.30	 	 	 	 	 	 	 	 	 	 	 	 	 	 	 	 	 	 	1581541727	9.67	17.91
12/02/2020 21:08:48	120220	12022020	210848	244.62	12.285512	-56.972623	244.68	0.200	0.040	0.700	244.62	-1.30	1.10	 	 	 	 	 	 	 	 	 	 	 	 	 	 	 	 	 	 	1581541728	9.71	17.98
12/02/2020 21:08:49	120220	12022020	210849	244.39	12.285492	-56.972663	244.43	0.330	-0.320	0.610	244.39	-1.70	1.00	 	 	 	 	 	 	 	 	 	 	 	 	 	 	 	 	 	 	1581541729	9.66	17.89
12/02/2020 21:08:50	120220	12022020	210850	244.04	12.285473	-56.972705	244.06	0.320	-0.550	0.770	244.04	-1.90	1.20	 	 	 	 	 	 	 	 	 	 	 	 	 	 	 	 	 	 	1581541730	9.54	17.67
12/02/2020 21:08:51	120220	12022020	210851	243.75	12.285458	-56.972747	243.78	0.270	-0.610	1.000	243.75	-2.00	1.40	 	 	 	 	 	 	 	 	 	 	 	 	 	 	 	 	 	 	1581541731	9.38	17.37
12/02/2020 21:08:52	120220	12022020	210852	243.68	12.285443	-56.972788	243.74	0.270	-0.570	1.020	243.68	-1.90	1.40	 	 	 	 	 	 	 	 	 	 	 	 	 	 	 	 	 	 	1581541732	9.29	17.21
12/02/2020 21:08:53	120220	12022020	210853	243.81	12.285427	-56.972828	243.94	0.330	-0.510	0.800	243.86	-1.90	1.20	 	 	 	 	 	 	 	 	 	 	 	 	 	 	 	 	 	 	1581541733	9.28	17.19
12/02/2020 21:08:54	120220	12022020	210854	244.24	12.285410	-56.972870	244.32	0.350	-0.530	0.390	244.24	-1.90	0.80	 	 	 	 	 	 	 	 	 	 	 	 	 	 	 	 	 	 	1581541734	9.35	17.32
12/02/2020 21:08:55	120220	12022020	210855	244.60	12.285390	-56.972910	244.67	0.240	-0.650	0.050	244.60	-2.00	0.50	 	 	 	 	 	 	 	 	 	 	 	 	 	 	 	 	 	 	1581541735	9.56	17.71
12/02/2020 21:08:56	120220	12022020	210856	244.85	12.285370	-56.972952	244.92	-0.030	-0.850	-0.040	244.85	-2.20	0.40	 	 	 	 	 	 	 	 	 	 	 	 	 	 	 	 	 	 	1581541736	9.79	18.13
12/02/2020 21:08:57	120220	12022020	210857	244.96	12.285352	-56.972995	245.02	-0.330	-0.870	0.090	244.96	-2.20	0.50	 	 	 	 	 	 	 	 	 	 	 	 	 	 	 	 	 	 	1581541737	9.86	18.26
12/02/2020 21:08:58	120220	12022020	210858	244.86	12.285333	-56.973037	244.90	-0.480	-0.580	0.410	244.86	-1.90	0.80	 	 	 	 	 	 	 	 	 	 	 	 	 	 	 	 	 	 	1581541738	9.75	18.06
12/02/2020 21:08:59	120220	12022020	210859	244.77	12.285317	-56.973078	244.83	-0.480	-0.060	0.720	244.77	-1.40	1.10	 	 	 	 	 	 	 	 	 	 	 	 	 	 	 	 	 	 	1581541739	9.57	17.72
12/02/2020 21:09:00	120220	12022020	210900	244.74	12.285300	-56.973120	244.80	-0.390	0.350	0.930	244.74	-1.00	1.40	 	 	 	 	 	 	 	 	 	 	 	 	 	 	 	 	 	 	1581541740	9.54	17.67
12/02/2020 21:09:01	120220	12022020	210901	244.73	12.285282	-56.973162	244.78	-0.220	0.480	1.060	244.73	-0.90	1.50	 	 	 	 	 	 	 	 	 	 	 	 	 	 	 	 	 	 	1581541741	9.71	17.98
12/02/2020 21:09:02	120220	12022020	210902	244.68	12.285265	-56.973205	244.71	-0.010	0.510	1.150	244.68	-0.80	1.60	1014.70	26.60	31.20	20.10	20.90	61.0	67.0	54.0	391.0	27.4	200.00	4.90	74.00	9.70	6918	10611.0	27.4	27.4	1581541742	9.70	17.96
12/02/2020 21:09:03	120220	12022020	210903	244.46	12.285248	-56.973247	244.48	0.210	0.440	1.270	244.46	-0.90	1.70	 	 	 	 	 	 	 	 	 	 	 	 	 	 	 	 	 	 	1581541743	9.49	17.58
12/02/2020 21:09:04	120220	12022020	210904	244.19	12.285233	-56.973288	244.21	0.430	0.090	1.210	244.19	-1.30	1.60	 	 	 	 	 	 	 	 	 	 	 	 	 	 	 	 	 	 	1581541744	9.48	17.56
12/02/2020 21:09:05	120220	12022020	210905	244.08	12.285215	-56.973330	244.11	0.560	-0.530	0.860	244.07	-1.90	1.20	 	 	 	 	 	 	 	 	 	 	 	 	 	 	 	 	 	 	1581541745	9.65	17.87
12/02/2020 21:09:06	120220	12022020	210906	244.16	12.285197	-56.973372	244.22	0.500	-1.190	0.350	244.16	-2.60	0.70	 	 	 	 	 	 	 	 	 	 	 	 	 	 	 	 	 	 	1581541746	9.77	18.09
12/02/2020 21:09:07	120220	12022020	210907	244.36	12.285177	-56.973413	244.48	0.270	-1.600	-0.140	244.42	-3.00	0.20	 	 	 	 	 	 	 	 	 	 	 	 	 	 	 	 	 	 	1581541747	9.79	18.13
12/02/2020 21:09:08	120220	12022020	210908	244.77	12.285157	-56.973455	244.82	0.000	-1.440	-0.430	244.77	-2.80	-0.00	 	 	 	 	 	 	 	 	 	 	 	 	 	 	 	 	 	 	1581541748	9.61	17.80
12/02/2020 21:09:09	120220	12022020	210909	245.01	12.285140	-56.973495	245.05	-0.220	-0.630	-0.320	245.01	-1.90	0.10	 	 	 	 	 	 	 	 	 	 	 	 	 	 	 	 	 	 	1581541749	9.18	17.00
12/02/2020 21:09:10	120220	12022020	210910	245.09	12.285123	-56.973533	245.12	-0.390	0.240	-0.030	245.09	-1.10	0.40	 	 	 	 	 	 	 	 	 	 	 	 	 	 	 	 	 	 	1581541750	9.02	16.71
12/02/2020 21:09:11	120220	12022020	210911	245.11	12.285107	-56.973575	245.13	-0.460	0.590	0.280	245.11	-0.80	0.70	 	 	 	 	 	 	 	 	 	 	 	 	 	 	 	 	 	 	1581541751	9.39	17.39
12/02/2020 21:09:12	120220	12022020	210912	245.02	12.285090	-56.973618	245.05	-0.320	0.390	0.680	245.02	-1.00	1.10	 	 	 	 	 	 	 	 	 	 	 	 	 	 	 	 	 	 	1581541752	9.95	18.43
12/02/2020 21:09:13	120220	12022020	210913	244.84	12.285073	-56.973663	244.85	-0.050	0.060	1.070	244.84	-1.30	1.50	 	 	 	 	 	 	 	 	 	 	 	 	 	 	 	 	 	 	1581541753	10.12	18.74
12/02/2020 21:09:14	120220	12022020	210914	244.66	12.285058	-56.973707	244.68	0.140	-0.100	1.280	244.66	-1.40	1.70	 	 	 	 	 	 	 	 	 	 	 	 	 	 	 	 	 	 	1581541754	9.82	18.19
12/02/2020 21:09:15	120220	12022020	210915	244.56	12.285042	-56.973748	244.59	0.170	-0.160	1.190	244.56	-1.50	1.60	 	 	 	 	 	 	 	 	 	 	 	 	 	 	 	 	 	 	1581541755	9.46	17.52
12/02/2020 21:09:16	120220	12022020	210916	244.56	12.285023	-56.973790	244.59	0.170	-0.290	0.970	244.56	-1.60	1.40	 	 	 	 	 	 	 	 	 	 	 	 	 	 	 	 	 	 	1581541756	9.38	17.37
12/02/2020 21:09:17	120220	12022020	210917	244.63	12.285007	-56.973830	244.70	0.220	-0.550	0.660	244.66	-1.90	1.00	 	 	 	 	 	 	 	 	 	 	 	 	 	 	 	 	 	 	1581541757	9.48	17.56
12/02/2020 21:09:18	120220	12022020	210918	244.79	12.284987	-56.973872	244.82	0.270	-0.930	0.260	244.79	-2.30	0.70	 	 	 	 	 	 	 	 	 	 	 	 	 	 	 	 	 	 	1581541758	9.69	17.95
12/02/2020 21:09:19	120220	12022020	210919	244.90	12.284968	-56.973915	244.95	0.230	-1.210	-0.080	244.93	-2.60	0.30	 	 	 	 	 	 	 	 	 	 	 	 	 	 	 	 	 	 	1581541759	9.85	18.24
12/02/2020 21:09:20	120220	12022020	210920	245.05	12.284948	-56.973957	245.08	0.010	-1.140	-0.240	245.05	-2.50	0.20	 	 	 	 	 	 	 	 	 	 	 	 	 	 	 	 	 	 	1581541760	9.78	18.11
12/02/2020 21:09:21	120220	12022020	210921	245.15	12.284930	-56.973997	245.17	-0.350	-0.640	-0.070	245.15	-2.00	0.40	 	 	 	 	 	 	 	 	 	 	 	 	 	 	 	 	 	 	1581541761	9.57	17.72
12/02/2020 21:09:22	120220	12022020	210922	245.07	12.284915	-56.974040	245.08	-0.660	0.110	0.510	245.07	-1.20	0.90	 	 	 	 	 	 	 	 	 	 	 	 	 	 	 	 	 	 	1581541762	9.41	17.43
12/02/2020 21:09:23	120220	12022020	210923	244.87	12.284902	-56.974082	244.89	-0.690	0.840	1.100	244.87	-0.50	1.50	 	 	 	 	 	 	 	 	 	 	 	 	 	 	 	 	 	 	1581541763	9.36	17.33
12/02/2020 21:09:24	120220	12022020	210924	244.78	12.284887	-56.974123	244.81	-0.380	1.060	1.300	244.78	-0.30	1.70	 	 	 	 	 	 	 	 	 	 	 	 	 	 	 	 	 	 	1581541764	9.51	17.61
12/02/2020 21:09:25	120220	12022020	210925	244.83	12.284868	-56.974167	244.86	0.100	0.600	1.170	244.83	-0.80	1.60	 	 	 	 	 	 	 	 	 	 	 	 	 	 	 	 	 	 	1581541765	9.91	18.35
12/02/2020 21:09:26	120220	12022020	210926	244.94	12.284850	-56.974210	244.98	0.480	-0.150	0.920	244.94	-1.50	1.30	 	 	 	 	 	 	 	 	 	 	 	 	 	 	 	 	 	 	1581541766	10.11	18.72
12/02/2020 21:09:27	120220	12022020	210927	245.00	12.284833	-56.974253	245.02	0.600	-0.650	0.740	245.00	-2.00	1.10	 	 	 	 	 	 	 	 	 	 	 	 	 	 	 	 	 	 	1581541767	9.78	18.11
12/02/2020 21:09:28	120220	12022020	210928	244.96	12.284817	-56.974293	244.97	0.520	-0.820	0.660	244.96	-2.20	1.10	 	 	 	 	 	 	 	 	 	 	 	 	 	 	 	 	 	 	1581541768	9.32	17.26
12/02/2020 21:09:29	120220	12022020	210929	244.93	12.284800	-56.974335	244.92	0.350	-0.910	0.610	244.93	-2.30	1.00	 	 	 	 	 	 	 	 	 	 	 	 	 	 	 	 	 	 	1581541769	9.20	17.04
12/02/2020 21:09:30	120220	12022020	210930	244.89	12.284785	-56.974377	244.89	0.190	-0.980	0.580	244.89	-2.30	1.00	 	 	 	 	 	 	 	 	 	 	 	 	 	 	 	 	 	 	1581541770	9.37	17.35
12/02/2020 21:09:31	120220	12022020	210931	244.86	12.284768	-56.974418	244.86	0.050	-0.920	0.560	244.86	-2.30	1.00	 	 	 	 	 	 	 	 	 	 	 	 	 	 	 	 	 	 	1581541771	9.50	17.59
12/02/2020 21:09:32	120220	12022020	210932	244.83	12.284752	-56.974458	244.84	-0.050	-0.720	0.570	244.83	-2.10	1.00	 	 	 	 	 	 	 	 	 	 	 	 	 	 	 	 	 	 	1581541772	9.54	17.67
12/02/2020 21:09:33	120220	12022020	210933	244.84	12.284732	-56.974500	244.86	-0.170	-0.460	0.600	244.84	-1.80	1.00	 	 	 	 	 	 	 	 	 	 	 	 	 	 	 	 	 	 	1581541773	9.68	17.93
12/02/2020 21:09:34	120220	12022020	210934	244.93	12.284715	-56.974543	244.94	-0.320	-0.160	0.760	244.93	-1.50	1.20	 	 	 	 	 	 	 	 	 	 	 	 	 	 	 	 	 	 	1581541774	9.76	18.08
12/02/2020 21:09:35	120220	12022020	210935	245.06	12.284698	-56.974587	245.08	-0.480	0.140	0.970	245.06	-1.20	1.40	 	 	 	 	 	 	 	 	 	 	 	 	 	 	 	 	 	 	1581541775	9.77	18.09
12/02/2020 21:09:36	120220	12022020	210936	245.21	12.284680	-56.974628	245.23	-0.570	0.300	1.110	245.21	-1.10	1.50	 	 	 	 	 	 	 	 	 	 	 	 	 	 	 	 	 	 	1581541776	9.77	18.09
12/02/2020 21:09:37	120220	12022020	210937	245.22	12.284663	-56.974672	245.24	-0.520	0.230	1.300	245.22	-1.10	1.70	 	 	 	 	 	 	 	 	 	 	 	 	 	 	 	 	 	 	1581541777	9.86	18.26
12/02/2020 21:09:38	120220	12022020	210938	245.06	12.284647	-56.974715	245.08	-0.350	0.080	1.460	245.06	-1.30	1.90	 	 	 	 	 	 	 	 	 	 	 	 	 	 	 	 	 	 	1581541778	9.86	18.26
12/02/2020 21:09:39	120220	12022020	210939	244.83	12.284632	-56.974758	244.84	-0.040	-0.030	1.430	244.83	-1.40	1.80	 	 	 	 	 	 	 	 	 	 	 	 	 	 	 	 	 	 	1581541779	9.67	17.91
12/02/2020 21:09:40	120220	12022020	210940	244.64	12.284615	-56.974800	244.65	0.330	-0.090	1.100	244.64	-1.40	1.50	 	 	 	 	 	 	 	 	 	 	 	 	 	 	 	 	 	 	1581541780	9.46	17.52
12/02/2020 21:09:41	120220	12022020	210941	244.51	12.284595	-56.974840	244.49	0.600	-0.170	0.690	244.49	-1.50	1.10	 	 	 	 	 	 	 	 	 	 	 	 	 	 	 	 	 	 	1581541781	9.35	17.32
12/02/2020 21:09:42	120220	12022020	210942	244.42	12.284577	-56.974880	244.43	0.660	-0.310	0.390	244.42	-1.70	0.80	 	 	 	 	 	 	 	 	 	 	 	 	 	 	 	 	 	 	1581541782	9.32	17.26
12/02/2020 21:09:43	120220	12022020	210943	244.46	12.284560	-56.974920	244.49	0.520	-0.530	0.260	244.47	-1.90	0.70	 	 	 	 	 	 	 	 	 	 	 	 	 	 	 	 	 	 	1581541783	9.43	17.46
12/02/2020 21:09:44	120220	12022020	210944	244.55	12.284545	-56.974963	244.57	0.280	-0.700	0.380	244.55	-2.10	0.80	 	 	 	 	 	 	 	 	 	 	 	 	 	 	 	 	 	 	1581541784	9.51	17.61
12/02/2020 21:09:45	120220	12022020	210945	244.58	12.284530	-56.975005	244.60	0.100	-0.760	0.650	244.58	-2.10	1.10	 	 	 	 	 	 	 	 	 	 	 	 	 	 	 	 	 	 	1581541785	9.51	17.61
12/02/2020 21:09:46	120220	12022020	210946	244.55	12.284513	-56.975047	244.57	0.050	-0.800	0.910	244.55	-2.10	1.30	 	 	 	 	 	 	 	 	 	 	 	 	 	 	 	 	 	 	1581541786	9.61	17.80
12/02/2020 21:09:47	120220	12022020	210947	244.50	12.284495	-56.975090	244.53	0.020	-0.870	1.090	244.50	-2.20	1.50	 	 	 	 	 	 	 	 	 	 	 	 	 	 	 	 	 	 	1581541787	9.79	18.13
12/02/2020 21:09:48	120220	12022020	210948	244.57	12.284477	-56.975133	244.64	-0.110	-0.950	1.090	244.57	-2.30	1.50	 	 	 	 	 	 	 	 	 	 	 	 	 	 	 	 	 	 	1581541788	10.00	18.52
12/02/2020 21:09:49	120220	12022020	210949	244.80	12.284458	-56.975177	244.87	-0.360	-0.760	0.930	244.80	-2.10	1.30	 	 	 	 	 	 	 	 	 	 	 	 	 	 	 	 	 	 	1581541789	9.97	18.46
12/02/2020 21:09:50	120220	12022020	210950	245.07	12.284440	-56.975218	245.15	-0.630	-0.190	0.690	245.07	-1.50	1.10	 	 	 	 	 	 	 	 	 	 	 	 	 	 	 	 	 	 	1581541790	9.65	17.87
12/02/2020 21:09:51	120220	12022020	210951	245.23	12.284423	-56.975258	245.28	-0.750	0.500	0.550	245.23	-0.80	0.90	 	 	 	 	 	 	 	 	 	 	 	 	 	 	 	 	 	 	1581541791	9.40	17.41
12/02/2020 21:09:52	120220	12022020	210952	245.27	12.284405	-56.975300	245.29	-0.610	1.050	0.460	245.27	-0.30	0.90	 	 	 	 	 	 	 	 	 	 	 	 	 	 	 	 	 	 	1581541792	9.35	17.32
12/02/2020 21:09:53	120220	12022020	210953	245.21	12.284388	-56.975340	245.17	-0.220	1.150	0.510	245.18	-0.20	0.90	 	 	 	 	 	 	 	 	 	 	 	 	 	 	 	 	 	 	1581541793	9.42	17.45
12/02/2020 21:09:54	120220	12022020	210954	244.89	12.284372	-56.975383	244.85	0.290	0.660	0.880	244.89	-0.70	1.30	 	 	 	 	 	 	 	 	 	 	 	 	 	 	 	 	 	 	1581541794	9.75	18.06
12/02/2020 21:09:55	120220	12022020	210955	244.60	12.284355	-56.975427	244.53	0.750	-0.090	1.280	244.54	-1.50	1.70	 	 	 	 	 	 	 	 	 	 	 	 	 	 	 	 	 	 	1581541795	9.89	18.32
12/02/2020 21:09:56	120220	12022020	210956	244.23	12.284340	-56.975470	244.22	1.000	-0.770	1.510	244.23	-2.20	1.90	 	 	 	 	 	 	 	 	 	 	 	 	 	 	 	 	 	 	1581541796	9.72	18.00
12/02/2020 21:09:57	120220	12022020	210957	243.91	12.284325	-56.975513	243.91	0.950	-1.280	1.510	243.91	-2.60	1.90	 	 	 	 	 	 	 	 	 	 	 	 	 	 	 	 	 	 	1581541797	9.53	17.65
12/02/2020 21:09:58	120220	12022020	210958	243.69	12.284307	-56.975553	243.70	0.610	-1.530	1.280	243.69	-2.90	1.70	 	 	 	 	 	 	 	 	 	 	 	 	 	 	 	 	 	 	1581541798	9.46	17.52
12/02/2020 21:09:59	120220	12022020	210959	243.79	12.284288	-56.975595	243.82	0.050	-1.450	0.810	243.79	-2.80	1.20	 	 	 	 	 	 	 	 	 	 	 	 	 	 	 	 	 	 	1581541799	9.41	17.43
12/02/2020 21:10:00	120220	12022020	211000	244.17	12.284270	-56.975633	244.22	-0.520	-1.100	0.350	244.17	-2.40	0.70	 	 	 	 	 	 	 	 	 	 	 	 	 	 	 	 	 	 	1581541800	9.37	17.35
12/02/2020 21:10:01	120220	12022020	211001	244.65	12.284252	-56.975675	244.70	-0.810	-0.660	0.100	244.65	-2.00	0.50	 	 	 	 	 	 	 	 	 	 	 	 	 	 	 	 	 	 	1581541801	9.49	17.58
12/02/2020 21:10:02	120220	12022020	211002	245.10	12.284233	-56.975717	245.17	-0.750	-0.190	0.140	245.10	-1.50	0.60	1014.70	26.50	32.30	19.70	21.10	60.0	66.0	51.0	390.0	27.3	194.00	5.20	72.00	10.00	6708	11843.0	27.4	27.4	1581541802	9.70	17.96
12/02/2020 21:10:03	120220	12022020	211003	245.36	12.284217	-56.975760	245.40	-0.510	0.250	0.430	245.36	-1.10	0.90	 	 	 	 	 	 	 	 	 	 	 	 	 	 	 	 	 	 	1581541803	9.77	18.09
12/02/2020 21:10:04	120220	12022020	211004	245.41	12.284200	-56.975803	245.44	-0.270	0.480	0.710	245.41	-0.90	1.10	 	 	 	 	 	 	 	 	 	 	 	 	 	 	 	 	 	 	1581541804	9.80	18.15
12/02/2020 21:10:05	120220	12022020	211005	245.32	12.284182	-56.975847	245.33	-0.090	0.400	0.920	245.32	-1.00	1.30	 	 	 	 	 	 	 	 	 	 	 	 	 	 	 	 	 	 	1581541805	9.91	18.35
12/02/2020 21:10:06	120220	12022020	211006	245.06	12.284163	-56.975890	245.07	0.080	0.120	1.060	245.06	-1.30	1.50	 	 	 	 	 	 	 	 	 	 	 	 	 	 	 	 	 	 	1581541806	10.04	18.59
12/02/2020 21:10:07	120220	12022020	211007	244.74	12.284145	-56.975933	244.67	0.170	0.040	1.120	244.66	-1.30	1.50	 	 	 	 	 	 	 	 	 	 	 	 	 	 	 	 	 	 	1581541807	9.85	18.24
12/02/2020 21:10:08	120220	12022020	211008	244.30	12.284128	-56.975973	244.31	0.160	0.240	1.060	244.30	-1.10	1.50	 	 	 	 	 	 	 	 	 	 	 	 	 	 	 	 	 	 	1581541808	9.35	17.32
12/02/2020 21:10:09	120220	12022020	211009	244.13	12.284112	-56.976013	244.14	0.130	0.340	0.900	244.11	-1.00	1.30	 	 	 	 	 	 	 	 	 	 	 	 	 	 	 	 	 	 	1581541809	9.13	16.91
12/02/2020 21:10:10	120220	12022020	211010	244.11	12.284095	-56.976053	244.13	0.180	0.060	0.740	244.11	-1.30	1.10	 	 	 	 	 	 	 	 	 	 	 	 	 	 	 	 	 	 	1581541810	9.32	17.26
12/02/2020 21:10:11	120220	12022020	211011	244.12	12.284078	-56.976095	244.16	0.330	-0.500	0.750	244.12	-1.90	1.20	 	 	 	 	 	 	 	 	 	 	 	 	 	 	 	 	 	 	1581541811	9.59	17.76
12/02/2020 21:10:12	120220	12022020	211012	244.13	12.284062	-56.976138	244.16	0.450	-1.130	0.840	244.13	-2.50	1.20	 	 	 	 	 	 	 	 	 	 	 	 	 	 	 	 	 	 	1581541812	9.72	18.00
12/02/2020 21:10:13	120220	12022020	211013	244.17	12.284045	-56.976182	244.20	0.430	-1.610	0.860	244.17	-3.00	1.30	 	 	 	 	 	 	 	 	 	 	 	 	 	 	 	 	 	 	1581541813	9.76	18.08
12/02/2020 21:10:14	120220	12022020	211014	244.29	12.284027	-56.976223	244.32	0.220	-1.640	0.760	244.29	-3.00	1.20	 	 	 	 	 	 	 	 	 	 	 	 	 	 	 	 	 	 	1581541814	9.62	17.82
12/02/2020 21:10:15	120220	12022020	211015	244.52	12.284010	-56.976263	244.56	-0.050	-1.190	0.590	244.52	-2.50	1.00	 	 	 	 	 	 	 	 	 	 	 	 	 	 	 	 	 	 	1581541815	9.38	17.37
12/02/2020 21:10:16	120220	12022020	211016	244.78	12.283993	-56.976305	244.81	-0.230	-0.510	0.420	244.78	-1.80	0.80	 	 	 	 	 	 	 	 	 	 	 	 	 	 	 	 	 	 	1581541816	9.32	17.26
12/02/2020 21:10:17	120220	12022020	211017	244.95	12.283975	-56.976345	244.97	-0.280	0.060	0.360	244.95	-1.30	0.80	 	 	 	 	 	 	 	 	 	 	 	 	 	 	 	 	 	 	1581541817	9.54	17.67
12/02/2020 21:10:18	120220	12022020	211018	245.10	12.283957	-56.976388	245.11	-0.290	0.350	0.350	245.10	-1.00	0.80	 	 	 	 	 	 	 	 	 	 	 	 	 	 	 	 	 	 	1581541818	9.89	18.32
12/02/2020 21:10:19	120220	12022020	211019	245.21	12.283937	-56.976432	245.20	-0.330	0.450	0.410	245.21	-0.90	0.80	 	 	 	 	 	 	 	 	 	 	 	 	 	 	 	 	 	 	1581541819	10.09	18.69
12/02/2020 21:10:20	120220	12022020	211020	245.15	12.283920	-56.976475	245.12	-0.370	0.500	0.650	245.15	-0.90	1.10	 	 	 	 	 	 	 	 	 	 	 	 	 	 	 	 	 	 	1581541820	10.03	18.58
12/02/2020 21:10:21	120220	12022020	211021	244.91	12.283903	-56.976518	244.87	-0.350	0.580	0.950	244.91	-0.80	1.40	 	 	 	 	 	 	 	 	 	 	 	 	 	 	 	 	 	 	1581541821	9.76	18.08
12/02/2020 21:10:22	120220	12022020	211022	244.55	12.283887	-56.976562	244.53	-0.230	0.520	1.110	244.55	-0.90	1.50	 	 	 	 	 	 	 	 	 	 	 	 	 	 	 	 	 	 	1581541822	9.57	17.72
12/02/2020 21:10:23	120220	12022020	211023	244.21	12.283872	-56.976603	244.20	-0.000	0.200	1.020	244.21	-1.20	1.40	 	 	 	 	 	 	 	 	 	 	 	 	 	 	 	 	 	 	1581541823	9.53	17.65
12/02/2020 21:10:24	120220	12022020	211024	244.01	12.283852	-56.976643	244.01	0.290	-0.300	0.690	244.01	-1.70	1.10	 	 	 	 	 	 	 	 	 	 	 	 	 	 	 	 	 	 	1581541824	9.57	17.72
12/02/2020 21:10:25	120220	12022020	211025	243.90	12.283833	-56.976685	243.90	0.540	-0.820	0.500	243.90	-2.20	0.90	 	 	 	 	 	 	 	 	 	 	 	 	 	 	 	 	 	 	1581541825	9.52	17.63
12/02/2020 21:10:26	120220	12022020	211026	243.77	12.283815	-56.976725	243.77	0.600	-1.260	0.570	243.77	-2.60	1.00	 	 	 	 	 	 	 	 	 	 	 	 	 	 	 	 	 	 	1581541826	9.51	17.61
12/02/2020 21:10:27	120220	12022020	211027	243.67	12.283798	-56.976767	243.68	0.430	-1.470	0.740	243.67	-2.80	1.20	 	 	 	 	 	 	 	 	 	 	 	 	 	 	 	 	 	 	1581541827	9.55	17.69
12/02/2020 21:10:28	120220	12022020	211028	243.61	12.283782	-56.976808	243.61	0.160	-1.320	0.940	243.61	-2.70	1.40	 	 	 	 	 	 	 	 	 	 	 	 	 	 	 	 	 	 	1581541828	9.49	17.58
12/02/2020 21:10:29	120220	12022020	211029	243.69	12.283767	-56.976852	243.71	-0.090	-0.950	0.980	243.69	-2.30	1.40	 	 	 	 	 	 	 	 	 	 	 	 	 	 	 	 	 	 	1581541829	9.48	17.56
12/02/2020 21:10:30	120220	12022020	211030	243.96	12.283750	-56.976893	243.98	-0.270	-0.620	0.870	243.96	-2.00	1.30	 	 	 	 	 	 	 	 	 	 	 	 	 	 	 	 	 	 	1581541830	9.69	17.95
12/02/2020 21:10:31	120220	12022020	211031	244.30	12.283732	-56.976937	244.34	-0.390	-0.240	0.690	244.30	-1.60	1.10	 	 	 	 	 	 	 	 	 	 	 	 	 	 	 	 	 	 	1581541831	9.91	18.35
12/02/2020 21:10:32	120220	12022020	211032	244.66	12.283715	-56.976980	244.68	-0.440	0.280	0.580	244.66	-1.10	1.00	 	 	 	 	 	 	 	 	 	 	 	 	 	 	 	 	 	 	1581541832	9.80	18.15
12/02/2020 21:10:33	120220	12022020	211033	244.79	12.283697	-56.977022	244.79	-0.410	0.650	0.740	244.79	-0.70	1.20	 	 	 	 	 	 	 	 	 	 	 	 	 	 	 	 	 	 	1581541833	9.73	18.02
12/02/2020 21:10:34	120220	12022020	211034	244.61	12.283680	-56.977065	244.58	-0.290	0.750	1.090	244.61	-0.60	1.50	 	 	 	 	 	 	 	 	 	 	 	 	 	 	 	 	 	 	1581541834	9.86	18.26
12/02/2020 21:10:35	120220	12022020	211035	244.23	12.283662	-56.977107	244.20	-0.130	0.710	1.340	244.23	-0.70	1.80	 	 	 	 	 	 	 	 	 	 	 	 	 	 	 	 	 	 	1581541835	9.82	18.19
12/02/2020 21:10:36	120220	12022020	211036	243.82	12.283643	-56.977148	243.79	0.020	0.620	1.240	243.82	-0.80	1.60	 	 	 	 	 	 	 	 	 	 	 	 	 	 	 	 	 	 	1581541836	9.53	17.65
12/02/2020 21:10:37	120220	12022020	211037	243.52	12.283623	-56.977188	243.50	0.210	0.220	0.790	243.52	-1.20	1.20	 	 	 	 	 	 	 	 	 	 	 	 	 	 	 	 	 	 	1581541837	9.42	17.45
12/02/2020 21:10:38	120220	12022020	211038	243.37	12.283602	-56.977228	243.36	0.420	-0.590	0.350	243.37	-2.00	0.80	 	 	 	 	 	 	 	 	 	 	 	 	 	 	 	 	 	 	1581541838	9.65	17.87
12/02/2020 21:10:39	120220	12022020	211039	243.25	12.283583	-56.977272	243.24	0.550	-1.420	0.380	243.25	-2.80	0.80	 	 	 	 	 	 	 	 	 	 	 	 	 	 	 	 	 	 	1581541839	9.86	18.26
12/02/2020 21:10:40	120220	12022020	211040	243.16	12.283567	-56.977313	243.15	0.460	-1.730	0.750	243.16	-3.10	1.20	 	 	 	 	 	 	 	 	 	 	 	 	 	 	 	 	 	 	1581541840	9.70	17.96
12/02/2020 21:10:41	120220	12022020	211041	243.23	12.283555	-56.977357	243.25	0.180	-1.420	1.160	243.23	-2.80	1.60	 	 	 	 	 	 	 	 	 	 	 	 	 	 	 	 	 	 	1581541841	9.32	17.26
12/02/2020 21:10:42	120220	12022020	211042	243.37	12.283542	-56.977397	243.41	-0.060	-0.890	1.440	243.37	-2.20	1.90	 	 	 	 	 	 	 	 	 	 	 	 	 	 	 	 	 	 	1581541842	9.16	16.96
12/02/2020 21:10:43	120220	12022020	211043	243.40	12.283525	-56.977440	243.43	-0.130	-0.630	1.510	243.40	-2.00	1.90	 	 	 	 	 	 	 	 	 	 	 	 	 	 	 	 	 	 	1581541843	9.51	17.61
12/02/2020 21:10:44	120220	12022020	211044	243.38	12.283507	-56.977483	243.41	-0.140	-0.570	1.350	243.38	-1.90	1.80	 	 	 	 	 	 	 	 	 	 	 	 	 	 	 	 	 	 	1581541844	10.05	18.61
12/02/2020 21:10:45	120220	12022020	211045	243.38	12.283485	-56.977525	243.44	-0.230	-0.360	1.100	243.39	-1.70	1.50	 	 	 	 	 	 	 	 	 	 	 	 	 	 	 	 	 	 	1581541845	10.17	18.83
12/02/2020 21:10:46	120220	12022020	211046	243.58	12.283465	-56.977568	243.68	-0.430	0.100	0.710	243.58	-1.30	1.10	 	 	 	 	 	 	 	 	 	 	 	 	 	 	 	 	 	 	1581541846	9.96	18.45
12/02/2020 21:10:47	120220	12022020	211047	243.98	12.283445	-56.977608	244.05	-0.610	0.710	0.310	243.98	-0.60	0.70	 	 	 	 	 	 	 	 	 	 	 	 	 	 	 	 	 	 	1581541847	9.68	17.93
12/02/2020 21:10:48	120220	12022020	211048	244.33	12.283425	-56.977648	244.39	-0.580	1.230	0.150	244.33	-0.10	0.60	 	 	 	 	 	 	 	 	 	 	 	 	 	 	 	 	 	 	1581541848	9.44	17.48
12/02/2020 21:10:49	120220	12022020	211049	244.49	12.283407	-56.977690	244.54	-0.280	1.250	0.290	244.49	-0.20	0.70	 	 	 	 	 	 	 	 	 	 	 	 	 	 	 	 	 	 	1581541849	9.42	17.45
12/02/2020 21:10:50	120220	12022020	211050	244.41	12.283390	-56.977732	244.42	0.210	0.560	0.690	244.41	-0.90	1.10	 	 	 	 	 	 	 	 	 	 	 	 	 	 	 	 	 	 	1581541850	9.76	18.08
12/02/2020 21:10:51	120220	12022020	211051	244.04	12.283373	-56.977777	244.03	0.660	-0.430	1.210	244.04	-1.80	1.60	 	 	 	 	 	 	 	 	 	 	 	 	 	 	 	 	 	 	1581541851	10.04	18.59
12/02/2020 21:10:52	120220	12022020	211052	243.44	12.283357	-56.977820	243.43	0.850	-1.130	1.720	243.44	-2.50	2.20	 	 	 	 	 	 	 	 	 	 	 	 	 	 	 	 	 	 	1581541852	9.78	18.11
12/02/2020 21:10:53	120220	12022020	211053	242.85	12.283342	-56.977862	242.85	0.780	-1.420	1.970	242.85	-2.80	2.40	 	 	 	 	 	 	 	 	 	 	 	 	 	 	 	 	 	 	1581541853	9.35	17.32
12/02/2020 21:10:54	120220	12022020	211054	242.45	12.283327	-56.977902	242.47	0.520	-1.530	1.760	242.45	-2.90	2.20	 	 	 	 	 	 	 	 	 	 	 	 	 	 	 	 	 	 	1581541854	9.26	17.15
12/02/2020 21:10:55	120220	12022020	211055	242.43	12.283308	-56.977943	242.48	0.120	-1.530	1.200	242.43	-2.90	1.60	 	 	 	 	 	 	 	 	 	 	 	 	 	 	 	 	 	 	1581541855	9.48	17.56
12/02/2020 21:10:56	120220	12022020	211056	242.82	12.283288	-56.977983	242.91	-0.270	-1.260	0.510	242.82	-2.60	0.90	 	 	 	 	 	 	 	 	 	 	 	 	 	 	 	 	 	 	1581541856	9.59	17.76
12/02/2020 21:10:57	120220	12022020	211057	243.29	12.283268	-56.978025	243.47	-0.540	-0.700	0.020	243.40	-2.00	0.40	 	 	 	 	 	 	 	 	 	 	 	 	 	 	 	 	 	 	1581541857	9.56	17.71
12/02/2020 21:10:58	120220	12022020	211058	243.81	12.283250	-56.978065	243.85	-0.620	-0.090	-0.090	243.81	-1.40	0.30	 	 	 	 	 	 	 	 	 	 	 	 	 	 	 	 	 	 	1581541858	9.63	17.83
12/02/2020 21:10:59	120220	12022020	211059	243.97	12.283230	-56.978107	244.05	-0.590	0.390	0.040	244.01	-1.00	0.50	 	 	 	 	 	 	 	 	 	 	 	 	 	 	 	 	 	 	1581541859	9.81	18.17
12/02/2020 21:11:00	120220	12022020	211100	244.19	12.283212	-56.978150	244.25	-0.530	0.700	0.150	244.19	-0.70	0.60	 	 	 	 	 	 	 	 	 	 	 	 	 	 	 	 	 	 	1581541860	9.88	18.30
12/02/2020 21:11:01	120220	12022020	211101	244.40	12.283192	-56.978192	244.45	-0.450	0.780	0.260	244.40	-0.60	0.70	 	 	 	 	 	 	 	 	 	 	 	 	 	 	 	 	 	 	1581541861	9.87	18.28
12/02/2020 21:11:02	120220	12022020	211102	244.47	12.283173	-56.978235	244.51	-0.290	0.670	0.410	244.47	-0.70	0.80	1014.70	26.80	32.90	20.20	21.40	58.0	67.0	50.0	390.0	27.3	196.00	4.80	72.00	9.70	6495	12092.0	27.4	27.4	1581541862	9.82	18.19
12/02/2020 21:11:03	120220	12022020	211103	244.39	12.283155	-56.978277	244.40	-0.030	0.420	0.590	244.39	-1.00	1.00	 	 	 	 	 	 	 	 	 	 	 	 	 	 	 	 	 	 	1581541863	9.70	17.96
12/02/2020 21:11:04	120220	12022020	211104	244.13	12.283137	-56.978318	244.12	0.300	0.030	0.800	244.13	-1.40	1.20	 	 	 	 	 	 	 	 	 	 	 	 	 	 	 	 	 	 	1581541864	9.56	17.71
12/02/2020 21:11:05	120220	12022020	211105	243.71	12.283120	-56.978360	243.70	0.550	-0.490	1.170	243.71	-1.90	1.60	 	 	 	 	 	 	 	 	 	 	 	 	 	 	 	 	 	 	1581541865	9.60	17.78
12/02/2020 21:11:06	120220	12022020	211106	243.18	12.283105	-56.978402	243.19	0.630	-0.900	1.700	243.18	-2.30	2.10	 	 	 	 	 	 	 	 	 	 	 	 	 	 	 	 	 	 	1581541866	9.59	17.76
12/02/2020 21:11:07	120220	12022020	211107	242.67	12.283090	-56.978445	242.68	0.580	-1.070	2.160	242.67	-2.40	2.60	 	 	 	 	 	 	 	 	 	 	 	 	 	 	 	 	 	 	1581541867	9.44	17.48
12/02/2020 21:11:08	120220	12022020	211108	242.32	12.283077	-56.978487	242.35	0.490	-1.090	2.110	242.32	-2.50	2.50	 	 	 	 	 	 	 	 	 	 	 	 	 	 	 	 	 	 	1581541868	9.36	17.33
12/02/2020 21:11:09	120220	12022020	211109	242.39	12.283058	-56.978527	242.45	0.360	-1.140	1.350	242.39	-2.50	1.70	 	 	 	 	 	 	 	 	 	 	 	 	 	 	 	 	 	 	1581541869	9.46	17.52
12/02/2020 21:11:10	120220	12022020	211110	242.88	12.283037	-56.978568	242.98	0.100	-1.210	0.320	242.88	-2.60	0.70	 	 	 	 	 	 	 	 	 	 	 	 	 	 	 	 	 	 	1581541870	9.75	18.06
12/02/2020 21:11:11	120220	12022020	211111	243.55	12.283015	-56.978608	243.62	-0.330	-1.010	-0.470	243.55	-2.40	-0.10	 	 	 	 	 	 	 	 	 	 	 	 	 	 	 	 	 	 	1581541871	9.91	18.35
12/02/2020 21:11:12	120220	12022020	211112	244.15	12.282993	-56.978650	244.21	-0.780	-0.290	-0.820	244.15	-1.60	-0.40	 	 	 	 	 	 	 	 	 	 	 	 	 	 	 	 	 	 	1581541872	9.64	17.85
12/02/2020 21:11:13	120220	12022020	211113	244.65	12.282975	-56.978688	244.71	-1.000	0.640	-0.750	244.65	-0.70	-0.30	 	 	 	 	 	 	 	 	 	 	 	 	 	 	 	 	 	 	1581541873	9.31	17.24
12/02/2020 21:11:14	120220	12022020	211114	245.05	12.282955	-56.978728	245.10	-0.830	1.190	-0.350	245.05	-0.20	0.10	 	 	 	 	 	 	 	 	 	 	 	 	 	 	 	 	 	 	1581541874	9.40	17.41
12/02/2020 21:11:15	120220	12022020	211115	245.23	12.282938	-56.978772	245.27	-0.400	1.160	0.280	245.23	-0.20	0.70	 	 	 	 	 	 	 	 	 	 	 	 	 	 	 	 	 	 	1581541875	9.70	17.96
12/02/2020 21:11:16	120220	12022020	211116	245.12	12.282922	-56.978815	245.13	0.100	0.620	0.930	245.12	-0.80	1.40	 	 	 	 	 	 	 	 	 	 	 	 	 	 	 	 	 	 	1581541876	9.89	18.32
12/02/2020 21:11:17	120220	12022020	211117	244.76	12.282905	-56.978858	244.75	0.520	-0.220	1.350	244.76	-1.60	1.80	 	 	 	 	 	 	 	 	 	 	 	 	 	 	 	 	 	 	1581541877	9.95	18.43
12/02/2020 21:11:18	120220	12022020	211118	244.30	12.282888	-56.978902	244.26	0.770	-1.020	1.400	244.30	-2.40	1.80	 	 	 	 	 	 	 	 	 	 	 	 	 	 	 	 	 	 	1581541878	9.85	18.24
12/02/2020 21:11:19	120220	12022020	211119	243.84	12.282872	-56.978943	243.81	0.780	-1.540	1.250	243.84	-2.90	1.60	 	 	 	 	 	 	 	 	 	 	 	 	 	 	 	 	 	 	1581541879	9.64	17.85
12/02/2020 21:11:20	120220	12022020	211120	243.49	12.282853	-56.978985	243.46	0.510	-1.680	1.000	243.49	-3.00	1.40	 	 	 	 	 	 	 	 	 	 	 	 	 	 	 	 	 	 	1581541880	9.48	17.56
12/02/2020 21:11:21	120220	12022020	211121	243.30	12.282837	-56.979027	243.29	0.070	-1.400	0.750	243.30	-2.70	1.20	 	 	 	 	 	 	 	 	 	 	 	 	 	 	 	 	 	 	1581541881	9.41	17.43
12/02/2020 21:11:22	120220	12022020	211122	243.22	12.282818	-56.979067	243.23	-0.340	-0.700	0.660	243.22	-2.00	1.10	 	 	 	 	 	 	 	 	 	 	 	 	 	 	 	 	 	 	1581541882	9.32	17.26
12/02/2020 21:11:23	120220	12022020	211123	243.26	12.282803	-56.979107	243.34	-0.560	0.280	0.660	243.29	-1.00	1.10	 	 	 	 	 	 	 	 	 	 	 	 	 	 	 	 	 	 	1581541883	9.20	17.04
12/02/2020 21:11:24	120220	12022020	211124	243.69	12.282787	-56.979147	243.78	-0.550	1.130	0.540	243.69	-0.20	0.90	 	 	 	 	 	 	 	 	 	 	 	 	 	 	 	 	 	 	1581541884	9.11	16.87
12/02/2020 21:11:25	120220	12022020	211125	244.36	12.282768	-56.979187	244.46	-0.350	1.340	0.290	244.36	-0.00	0.70	 	 	 	 	 	 	 	 	 	 	 	 	 	 	 	 	 	 	1581541885	9.33	17.28
12/02/2020 21:11:26	120220	12022020	211126	245.05	12.282750	-56.979228	245.13	-0.040	0.760	0.090	245.05	-0.70	0.50	 	 	 	 	 	 	 	 	 	 	 	 	 	 	 	 	 	 	1581541886	9.79	18.13
12/02/2020 21:11:27	120220	12022020	211127	245.49	12.282730	-56.979272	245.52	0.320	-0.270	0.190	245.49	-1.70	0.60	 	 	 	 	 	 	 	 	 	 	 	 	 	 	 	 	 	 	1581541887	10.11	18.72
12/02/2020 21:11:28	120220	12022020	211128	245.56	12.282713	-56.979317	245.56	0.580	-1.210	0.600	245.56	-2.60	1.00	 	 	 	 	 	 	 	 	 	 	 	 	 	 	 	 	 	 	1581541888	10.03	18.58
12/02/2020 21:11:29	120220	12022020	211129	245.34	12.282697	-56.979360	245.32	0.610	-1.650	1.120	245.34	-3.00	1.60	 	 	 	 	 	 	 	 	 	 	 	 	 	 	 	 	 	 	1581541889	9.74	18.04
12/02/2020 21:11:30	120220	12022020	211130	244.86	12.282682	-56.979400	244.83	0.330	-1.340	1.620	244.86	-2.70	2.10	 	 	 	 	 	 	 	 	 	 	 	 	 	 	 	 	 	 	1581541890	9.26	17.15
12/02/2020 21:11:31	120220	12022020	211131	244.29	12.282668	-56.979440	244.28	-0.090	-0.560	1.950	244.29	-1.90	2.40	 	 	 	 	 	 	 	 	 	 	 	 	 	 	 	 	 	 	1581541891	8.86	16.41
12/02/2020 21:11:32	120220	12022020	211132	243.82	12.282653	-56.979480	243.82	-0.380	0.030	1.790	243.82	-1.30	2.20	 	 	 	 	 	 	 	 	 	 	 	 	 	 	 	 	 	 	1581541892	8.99	16.65
12/02/2020 21:11:33	120220	12022020	211133	243.65	12.282637	-56.979522	243.67	-0.380	0.090	1.160	243.65	-1.30	1.50	 	 	 	 	 	 	 	 	 	 	 	 	 	 	 	 	 	 	1581541893	9.52	17.63
12/02/2020 21:11:34	120220	12022020	211134	243.82	12.282613	-56.979563	243.87	-0.230	-0.190	0.300	243.82	-1.60	0.70	 	 	 	 	 	 	 	 	 	 	 	 	 	 	 	 	 	 	1581541894	10.01	18.54
12/02/2020 21:11:35	120220	12022020	211135	244.22	12.282592	-56.979605	244.39	-0.140	-0.350	-0.450	244.33	-1.70	-0.10	 	 	 	 	 	 	 	 	 	 	 	 	 	 	 	 	 	 	1581541895	10.02	18.56
12/02/2020 21:11:36	120220	12022020	211136	245.02	12.282572	-56.979645	245.08	-0.170	-0.200	-0.700	245.02	-1.60	-0.30	 	 	 	 	 	 	 	 	 	 	 	 	 	 	 	 	 	 	1581541896	9.60	17.78
12/02/2020 21:11:37	120220	12022020	211137	245.46	12.282555	-56.979687	245.55	-0.190	-0.060	-0.340	245.53	-1.40	0.10	 	 	 	 	 	 	 	 	 	 	 	 	 	 	 	 	 	 	1581541897	9.37	17.35
12/02/2020 21:11:38	120220	12022020	211138	245.60	12.282542	-56.979728	245.58	-0.080	-0.120	0.420	245.60	-1.50	0.90	 	 	 	 	 	 	 	 	 	 	 	 	 	 	 	 	 	 	1581541898	9.56	17.71
12/02/2020 21:11:39	120220	12022020	211139	245.31	12.282528	-56.979773	245.28	0.170	-0.120	1.340	245.31	-1.50	1.80	 	 	 	 	 	 	 	 	 	 	 	 	 	 	 	 	 	 	1581541899	9.67	17.91
12/02/2020 21:11:40	120220	12022020	211140	244.90	12.282517	-56.979815	244.87	0.410	0.150	2.050	244.90	-1.20	2.50	 	 	 	 	 	 	 	 	 	 	 	 	 	 	 	 	 	 	1581541900	9.39	17.39
12/02/2020 21:11:41	120220	12022020	211141	244.56	12.282503	-56.979857	244.53	0.530	0.360	2.150	244.56	-1.00	2.50	 	 	 	 	 	 	 	 	 	 	 	 	 	 	 	 	 	 	1581541901	9.14	16.93
12/02/2020 21:11:42	120220	12022020	211142	244.43	12.282488	-56.979897	244.43	0.510	0.230	1.570	244.43	-1.20	1.90	 	 	 	 	 	 	 	 	 	 	 	 	 	 	 	 	 	 	1581541902	9.15	16.95
12/02/2020 21:11:43	120220	12022020	211143	244.52	12.282468	-56.979937	244.51	0.390	-0.320	0.590	244.52	-1.70	0.90	 	 	 	 	 	 	 	 	 	 	 	 	 	 	 	 	 	 	1581541903	9.45	17.50
12/02/2020 21:11:44	120220	12022020	211144	244.72	12.282447	-56.979977	244.72	0.220	-1.060	-0.370	244.72	-2.50	0.00	 	 	 	 	 	 	 	 	 	 	 	 	 	 	 	 	 	 	1581541904	9.76	18.08
12/02/2020 21:11:45	120220	12022020	211145	244.88	12.282425	-56.980018	244.87	0.020	-1.590	-0.860	244.88	-3.00	-0.50	 	 	 	 	 	 	 	 	 	 	 	 	 	 	 	 	 	 	1581541905	9.82	18.19
12/02/2020 21:11:46	120220	12022020	211146	244.96	12.282407	-56.980060	244.95	-0.210	-1.520	-0.820	244.96	-2.90	-0.40	 	 	 	 	 	 	 	 	 	 	 	 	 	 	 	 	 	 	1581541906	9.56	17.71
12/02/2020 21:11:47	120220	12022020	211147	244.98	12.282390	-56.980098	244.96	-0.430	-0.810	-0.420	244.98	-2.10	0.00	 	 	 	 	 	 	 	 	 	 	 	 	 	 	 	 	 	 	1581541907	9.09	16.83
12/02/2020 21:11:48	120220	12022020	211148	244.97	12.282375	-56.980138	244.99	-0.530	-0.000	0.140	244.97	-1.40	0.60	 	 	 	 	 	 	 	 	 	 	 	 	 	 	 	 	 	 	1581541908	8.92	16.52
12/02/2020 21:11:49	120220	12022020	211149	244.99	12.282360	-56.980180	245.00	-0.430	0.280	0.700	245.00	-1.10	1.10	 	 	 	 	 	 	 	 	 	 	 	 	 	 	 	 	 	 	1581541909	9.36	17.33
12/02/2020 21:11:50	120220	12022020	211150	244.96	12.282345	-56.980225	244.95	-0.140	0.040	1.260	244.96	-1.40	1.70	 	 	 	 	 	 	 	 	 	 	 	 	 	 	 	 	 	 	1581541910	10.06	18.63
12/02/2020 21:11:51	120220	12022020	211151	244.78	12.282330	-56.980270	244.78	0.140	-0.190	1.760	244.78	-1.60	2.20	 	 	 	 	 	 	 	 	 	 	 	 	 	 	 	 	 	 	1581541911	10.26	19.00
12/02/2020 21:11:52	120220	12022020	211152	244.53	12.282315	-56.980315	244.53	0.240	-0.080	2.010	244.53	-1.40	2.40	 	 	 	 	 	 	 	 	 	 	 	 	 	 	 	 	 	 	1581541912	9.86	18.26
12/02/2020 21:11:53	120220	12022020	211153	244.29	12.282302	-56.980357	244.28	0.130	0.180	1.820	244.29	-1.20	2.20	 	 	 	 	 	 	 	 	 	 	 	 	 	 	 	 	 	 	1581541913	9.44	17.48
12/02/2020 21:11:54	120220	12022020	211154	244.04	12.282285	-56.980398	244.02	-0.060	0.280	1.370	244.04	-1.10	1.70	 	 	 	 	 	 	 	 	 	 	 	 	 	 	 	 	 	 	1581541914	9.35	17.32
12/02/2020 21:11:55	120220	12022020	211155	243.94	12.282267	-56.980438	243.93	-0.150	0.230	0.640	243.94	-1.20	1.00	 	 	 	 	 	 	 	 	 	 	 	 	 	 	 	 	 	 	1581541915	9.40	17.41
12/02/2020 21:11:56	120220	12022020	211156	244.12	12.282247	-56.980478	244.15	-0.070	0.100	-0.160	244.12	-1.30	0.20	 	 	 	 	 	 	 	 	 	 	 	 	 	 	 	 	 	 	1581541916	9.33	17.28
12/02/2020 21:11:57	120220	12022020	211157	244.47	12.282227	-56.980517	244.49	0.150	-0.150	-0.590	244.47	-1.50	-0.20	 	 	 	 	 	 	 	 	 	 	 	 	 	 	 	 	 	 	1581541917	9.25	17.13
12/02/2020 21:11:58	120220	12022020	211158	244.68	12.282207	-56.980557	244.68	0.410	-0.600	-0.400	244.68	-2.00	0.00	 	 	 	 	 	 	 	 	 	 	 	 	 	 	 	 	 	 	1581541918	9.37	17.35
12/02/2020 21:11:59	120220	12022020	211159	244.58	12.282190	-56.980598	244.57	0.530	-1.010	0.290	244.58	-2.40	0.70	 	 	 	 	 	 	 	 	 	 	 	 	 	 	 	 	 	 	1581541919	9.53	17.65
12/02/2020 21:12:00	120220	12022020	211200	244.34	12.282177	-56.980640	244.33	0.390	-1.110	1.080	244.34	-2.50	1.50	 	 	 	 	 	 	 	 	 	 	 	 	 	 	 	 	 	 	1581541920	9.46	17.52
12/02/2020 21:12:01	120220	12022020	211201	244.21	12.282163	-56.980682	244.21	0.080	-0.920	1.530	244.21	-2.30	1.90	 	 	 	 	 	 	 	 	 	 	 	 	 	 	 	 	 	 	1581541921	9.27	17.17
12/02/2020 21:12:02	120220	12022020	211202	244.26	12.282148	-56.980723	244.26	-0.160	-0.710	1.610	244.26	-2.10	2.00	1014.70	26.80	32.40	20.30	21.50	56.0	67.0	52.0	390.0	27.2	196.00	6.00	73.00	10.80	6297	11140.0	27.4	27.4	1581541922	9.28	17.19
12/02/2020 21:12:03	120220	12022020	211203	244.32	12.282133	-56.980767	244.33	-0.210	-0.660	1.530	244.32	-2.00	1.90	 	 	 	 	 	 	 	 	 	 	 	 	 	 	 	 	 	 	1581541923	9.59	17.76
12/02/2020 21:12:04	120220	12022020	211204	244.36	12.282117	-56.980810	244.36	-0.190	-0.600	1.300	244.36	-2.00	1.70	 	 	 	 	 	 	 	 	 	 	 	 	 	 	 	 	 	 	1581541924	9.86	18.26
12/02/2020 21:12:05	120220	12022020	211205	244.30	12.282098	-56.980852	244.29	-0.200	-0.290	1.040	244.30	-1.70	1.40	 	 	 	 	 	 	 	 	 	 	 	 	 	 	 	 	 	 	1581541925	9.79	18.13
12/02/2020 21:12:06	120220	12022020	211206	244.06	12.282080	-56.980893	244.05	-0.270	0.190	0.840	244.06	-1.20	1.20	 	 	 	 	 	 	 	 	 	 	 	 	 	 	 	 	 	 	1581541926	9.57	17.72
12/02/2020 21:12:07	120220	12022020	211207	243.74	12.282062	-56.980933	243.73	-0.360	0.610	0.790	243.74	-0.70	1.20	 	 	 	 	 	 	 	 	 	 	 	 	 	 	 	 	 	 	1581541927	9.49	17.58
12/02/2020 21:12:08	120220	12022020	211208	243.51	12.282043	-56.980975	243.54	-0.410	0.780	0.910	243.51	-0.60	1.30	 	 	 	 	 	 	 	 	 	 	 	 	 	 	 	 	 	 	1581541928	9.52	17.63
12/02/2020 21:12:09	120220	12022020	211209	243.54	12.282027	-56.981017	243.58	-0.310	0.640	1.080	243.54	-0.80	1.50	 	 	 	 	 	 	 	 	 	 	 	 	 	 	 	 	 	 	1581541929	9.57	17.72
12/02/2020 21:12:10	120220	12022020	211210	243.61	12.282010	-56.981058	243.64	-0.030	0.180	1.300	243.61	-1.20	1.70	 	 	 	 	 	 	 	 	 	 	 	 	 	 	 	 	 	 	1581541930	9.62	17.82
12/02/2020 21:12:11	120220	12022020	211211	243.60	12.281993	-56.981102	243.62	0.340	-0.410	1.520	243.60	-1.80	1.90	 	 	 	 	 	 	 	 	 	 	 	 	 	 	 	 	 	 	1581541931	9.63	17.83
12/02/2020 21:12:12	120220	12022020	211212	243.62	12.281978	-56.981143	243.64	0.580	-0.920	1.550	243.62	-2.30	1.90	 	 	 	 	 	 	 	 	 	 	 	 	 	 	 	 	 	 	1581541932	9.47	17.54
12/02/2020 21:12:13	120220	12022020	211213	243.67	12.281962	-56.981183	243.69	0.600	-1.230	1.410	243.68	-2.60	1.80	 	 	 	 	 	 	 	 	 	 	 	 	 	 	 	 	 	 	1581541933	9.31	17.24
12/02/2020 21:12:14	120220	12022020	211214	243.78	12.281945	-56.981225	243.79	0.430	-1.270	1.040	243.78	-2.60	1.40	 	 	 	 	 	 	 	 	 	 	 	 	 	 	 	 	 	 	1581541934	9.29	17.21
12/02/2020 21:12:15	120220	12022020	211215	244.11	12.281925	-56.981263	244.13	0.120	-0.820	0.380	244.11	-2.20	0.80	 	 	 	 	 	 	 	 	 	 	 	 	 	 	 	 	 	 	1581541935	9.13	16.91
12/02/2020 21:12:16	120220	12022020	211216	244.57	12.281905	-56.981300	244.59	-0.190	-0.150	-0.220	244.57	-1.50	0.20	 	 	 	 	 	 	 	 	 	 	 	 	 	 	 	 	 	 	1581541936	8.95	16.58
12/02/2020 21:12:17	120220	12022020	211217	244.84	12.281885	-56.981338	244.83	-0.340	0.210	-0.320	244.84	-1.20	0.10	 	 	 	 	 	 	 	 	 	 	 	 	 	 	 	 	 	 	1581541937	9.17	16.98
12/02/2020 21:12:18	120220	12022020	211218	244.75	12.281868	-56.981380	244.70	-0.280	0.010	0.180	244.75	-1.40	0.60	 	 	 	 	 	 	 	 	 	 	 	 	 	 	 	 	 	 	1581541938	9.74	18.04
12/02/2020 21:12:19	120220	12022020	211219	244.34	12.281852	-56.981427	244.29	-0.100	-0.390	1.000	244.34	-1.80	1.50	 	 	 	 	 	 	 	 	 	 	 	 	 	 	 	 	 	 	1581541939	10.15	18.80
12/02/2020 21:12:20	120220	12022020	211220	243.77	12.281838	-56.981472	243.72	0.040	-0.580	1.830	243.77	-1.90	2.30	 	 	 	 	 	 	 	 	 	 	 	 	 	 	 	 	 	 	1581541940	10.11	18.72
12/02/2020 21:12:21	120220	12022020	211221	243.13	12.281825	-56.981515	243.10	0.040	-0.390	2.370	243.13	-1.70	2.80	 	 	 	 	 	 	 	 	 	 	 	 	 	 	 	 	 	 	1581541941	9.78	18.11
12/02/2020 21:12:22	120220	12022020	211222	242.60	12.281810	-56.981557	242.58	-0.110	0.040	2.370	242.60	-1.30	2.70	 	 	 	 	 	 	 	 	 	 	 	 	 	 	 	 	 	 	1581541942	9.35	17.32
12/02/2020 21:12:23	120220	12022020	211223	242.40	12.281793	-56.981597	242.43	-0.320	0.280	1.760	242.40	-1.10	2.10	 	 	 	 	 	 	 	 	 	 	 	 	 	 	 	 	 	 	1581541943	9.19	17.02
12/02/2020 21:12:24	120220	12022020	211224	242.63	12.281773	-56.981637	242.71	-0.360	0.170	0.760	242.63	-1.20	1.10	 	 	 	 	 	 	 	 	 	 	 	 	 	 	 	 	 	 	1581541944	9.37	17.35
12/02/2020 21:12:25	120220	12022020	211225	243.06	12.281752	-56.981677	243.25	-0.190	-0.110	-0.210	243.17	-1.50	0.20	 	 	 	 	 	 	 	 	 	 	 	 	 	 	 	 	 	 	1581541945	9.51	17.61
12/02/2020 21:12:26	120220	12022020	211226	243.77	12.281730	-56.981715	243.85	0.070	-0.430	-0.690	243.77	-1.80	-0.30	 	 	 	 	 	 	 	 	 	 	 	 	 	 	 	 	 	 	1581541946	9.49	17.58
12/02/2020 21:12:27	120220	12022020	211227	244.28	12.281712	-56.981755	244.34	0.270	-0.640	-0.520	244.28	-2.00	-0.10	 	 	 	 	 	 	 	 	 	 	 	 	 	 	 	 	 	 	1581541947	9.42	17.45
12/02/2020 21:12:28	120220	12022020	211228	244.63	12.281695	-56.981797	244.68	0.330	-0.650	0.080	244.63	-2.00	0.50	 	 	 	 	 	 	 	 	 	 	 	 	 	 	 	 	 	 	1581541948	9.28	17.19
12/02/2020 21:12:29	120220	12022020	211229	244.79	12.281680	-56.981837	244.81	0.280	-0.520	0.820	244.79	-1.90	1.30	 	 	 	 	 	 	 	 	 	 	 	 	 	 	 	 	 	 	1581541949	9.22	17.08
12/02/2020 21:12:30	120220	12022020	211230	244.60	12.281665	-56.981878	244.58	0.190	-0.390	1.540	244.60	-1.80	2.00	 	 	 	 	 	 	 	 	 	 	 	 	 	 	 	 	 	 	1581541950	9.30	17.22
12/02/2020 21:12:31	120220	12022020	211231	244.09	12.281650	-56.981920	244.06	0.090	-0.340	2.010	244.09	-1.70	2.40	 	 	 	 	 	 	 	 	 	 	 	 	 	 	 	 	 	 	1581541951	9.49	17.58
12/02/2020 21:12:32	120220	12022020	211232	243.52	12.281633	-56.981962	243.48	-0.020	-0.260	2.020	243.52	-1.60	2.40	 	 	 	 	 	 	 	 	 	 	 	 	 	 	 	 	 	 	1581541952	9.58	17.74
12/02/2020 21:12:33	120220	12022020	211233	243.07	12.281615	-56.982003	243.03	-0.110	-0.110	1.670	243.07	-1.50	2.00	 	 	 	 	 	 	 	 	 	 	 	 	 	 	 	 	 	 	1581541953	9.44	17.48
12/02/2020 21:12:34	120220	12022020	211234	242.80	12.281597	-56.982043	242.78	-0.120	-0.100	1.110	242.80	-1.50	1.50	 	 	 	 	 	 	 	 	 	 	 	 	 	 	 	 	 	 	1581541954	9.39	17.39
12/02/2020 21:12:35	120220	12022020	211235	242.72	12.281578	-56.982085	242.71	-0.050	-0.440	0.500	242.72	-1.80	0.90	 	 	 	 	 	 	 	 	 	 	 	 	 	 	 	 	 	 	1581541955	9.62	17.82
12/02/2020 21:12:36	120220	12022020	211236	242.81	12.281558	-56.982127	242.82	0.010	-0.890	-0.020	242.81	-2.30	0.40	 	 	 	 	 	 	 	 	 	 	 	 	 	 	 	 	 	 	1581541956	9.88	18.30
12/02/2020 21:12:37	120220	12022020	211237	243.05	12.281538	-56.982168	243.16	-0.040	-1.010	-0.390	243.13	-2.40	0.00	 	 	 	 	 	 	 	 	 	 	 	 	 	 	 	 	 	 	1581541957	9.74	18.04
12/02/2020 21:12:38	120220	12022020	211238	243.50	12.281520	-56.982208	243.53	-0.220	-0.660	-0.350	243.50	-2.00	0.10	 	 	 	 	 	 	 	 	 	 	 	 	 	 	 	 	 	 	1581541958	9.39	17.39
12/02/2020 21:12:39	120220	12022020	211239	243.73	12.281502	-56.982248	243.79	-0.410	0.030	0.040	243.78	-1.30	0.50	 	 	 	 	 	 	 	 	 	 	 	 	 	 	 	 	 	 	1581541959	9.13	16.91
12/02/2020 21:12:40	120220	12022020	211240	243.97	12.281487	-56.982287	244.00	-0.490	0.830	0.460	243.97	-0.50	0.90	 	 	 	 	 	 	 	 	 	 	 	 	 	 	 	 	 	 	1581541960	8.93	16.54
12/02/2020 21:12:41	120220	12022020	211241	244.12	12.281470	-56.982325	244.13	-0.360	1.280	0.710	244.12	-0.10	1.10	 	 	 	 	 	 	 	 	 	 	 	 	 	 	 	 	 	 	1581541961	8.91	16.50
12/02/2020 21:12:42	120220	12022020	211242	244.15	12.281453	-56.982367	244.13	-0.010	0.910	0.800	244.15	-0.50	1.20	 	 	 	 	 	 	 	 	 	 	 	 	 	 	 	 	 	 	1581541962	9.37	17.35
12/02/2020 21:12:43	120220	12022020	211243	243.99	12.281433	-56.982408	243.96	0.440	-0.150	0.790	243.99	-1.60	1.20	 	 	 	 	 	 	 	 	 	 	 	 	 	 	 	 	 	 	1581541963	9.95	18.43
12/02/2020 21:12:44	120220	12022020	211244	243.66	12.281415	-56.982453	243.61	0.740	-1.230	0.800	243.66	-2.60	1.20	 	 	 	 	 	 	 	 	 	 	 	 	 	 	 	 	 	 	1581541964	10.06	18.63
12/02/2020 21:12:45	120220	12022020	211245	243.24	12.281398	-56.982495	243.19	0.700	-1.850	0.880	243.24	-3.20	1.30	 	 	 	 	 	 	 	 	 	 	 	 	 	 	 	 	 	 	1581541965	9.69	17.95
12/02/2020 21:12:46	120220	12022020	211246	242.83	12.281382	-56.982537	242.78	0.370	-1.970	0.980	242.83	-3.30	1.40	 	 	 	 	 	 	 	 	 	 	 	 	 	 	 	 	 	 	1581541966	9.40	17.41
12/02/2020 21:12:47	120220	12022020	211247	242.53	12.281367	-56.982577	242.48	-0.070	-1.570	0.990	242.53	-2.90	1.40	 	 	 	 	 	 	 	 	 	 	 	 	 	 	 	 	 	 	1581541967	9.28	17.19
12/02/2020 21:12:48	120220	12022020	211248	242.46	12.281348	-56.982617	242.46	-0.470	-0.730	0.800	242.46	-2.10	1.20	 	 	 	 	 	 	 	 	 	 	 	 	 	 	 	 	 	 	1581541968	9.13	16.91
12/02/2020 21:12:49	120220	12022020	211249	242.68	12.281330	-56.982655	242.73	-0.730	0.170	0.480	242.68	-1.20	0.90	 	 	 	 	 	 	 	 	 	 	 	 	 	 	 	 	 	 	1581541969	9.12	16.89
12/02/2020 21:12:50	120220	12022020	211250	243.06	12.281310	-56.982695	243.12	-0.770	0.760	0.260	243.06	-0.60	0.70	 	 	 	 	 	 	 	 	 	 	 	 	 	 	 	 	 	 	1581541970	9.33	17.28
12/02/2020 21:12:51	120220	12022020	211251	243.30	12.281290	-56.982737	243.35	-0.570	0.840	0.310	243.30	-0.50	0.70	 	 	 	 	 	 	 	 	 	 	 	 	 	 	 	 	 	 	1581541971	9.73	18.02
12/02/2020 21:12:52	120220	12022020	211252	243.34	12.281272	-56.982778	243.38	-0.210	0.650	0.600	243.34	-0.70	1.00	 	 	 	 	 	 	 	 	 	 	 	 	 	 	 	 	 	 	1581541972	9.96	18.45
12/02/2020 21:12:53	120220	12022020	211253	243.23	12.281253	-56.982822	243.27	0.180	0.500	1.010	243.23	-0.90	1.40	 	 	 	 	 	 	 	 	 	 	 	 	 	 	 	 	 	 	1581541973	9.78	18.11
12/02/2020 21:12:54	120220	12022020	211254	243.01	12.281237	-56.982863	243.03	0.480	0.430	1.450	243.01	-0.90	1.90	 	 	 	 	 	 	 	 	 	 	 	 	 	 	 	 	 	 	1581541974	9.43	17.46
12/02/2020 21:12:55	120220	12022020	211255	242.77	12.281223	-56.982903	242.80	0.590	0.230	1.630	242.77	-1.10	2.00	 	 	 	 	 	 	 	 	 	 	 	 	 	 	 	 	 	 	1581541975	9.22	17.08
12/02/2020 21:12:56	120220	12022020	211256	242.71	12.281207	-56.982945	242.75	0.530	-0.240	1.300	242.71	-1.60	1.70	 	 	 	 	 	 	 	 	 	 	 	 	 	 	 	 	 	 	1581541976	9.21	17.06
12/02/2020 21:12:57	120220	12022020	211257	242.77	12.281188	-56.982985	242.83	0.420	-1.000	0.640	242.77	-2.40	1.00	 	 	 	 	 	 	 	 	 	 	 	 	 	 	 	 	 	 	1581541977	9.37	17.35
12/02/2020 21:12:58	120220	12022020	211258	242.96	12.281168	-56.983025	243.01	0.320	-1.800	-0.120	242.96	-3.20	0.20	 	 	 	 	 	 	 	 	 	 	 	 	 	 	 	 	 	 	1581541978	9.63	17.83
12/02/2020 21:12:59	120220	12022020	211259	243.27	12.281147	-56.983065	243.31	0.150	-2.170	-0.790	243.27	-3.50	-0.40	 	 	 	 	 	 	 	 	 	 	 	 	 	 	 	 	 	 	1581541979	9.64	17.85
12/02/2020 21:13:00	120220	12022020	211300	243.52	12.281125	-56.983103	243.53	-0.130	-1.890	-1.060	243.52	-3.20	-0.60	 	 	 	 	 	 	 	 	 	 	 	 	 	 	 	 	 	 	1581541980	9.40	17.41
12/02/2020 21:13:01	120220	12022020	211301	243.52	12.281105	-56.983142	243.46	-0.440	-1.180	-0.600	243.49	-2.50	-0.20	 	 	 	 	 	 	 	 	 	 	 	 	 	 	 	 	 	 	1581541981	9.27	17.17
12/02/2020 21:13:02	120220	12022020	211302	243.13	12.281088	-56.983183	243.09	-0.620	-0.330	0.380	243.13	-1.70	0.80	1014.60	27.70	36.40	20.20	22.30	55.0	63.0	44.0	390.0	27.1	194.00	5.90	71.00	10.70	6110	12932.0	27.4	27.4	1581541982	9.44	17.48
12/02/2020 21:13:03	120220	12022020	211303	242.60	12.281073	-56.983227	242.59	-0.590	0.550	1.430	242.60	-0.80	1.90	 	 	 	 	 	 	 	 	 	 	 	 	 	 	 	 	 	 	1581541983	9.72	18.00
12/02/2020 21:13:04	120220	12022020	211304	242.11	12.281060	-56.983272	242.15	-0.410	1.270	2.070	242.11	-0.10	2.50	 	 	 	 	 	 	 	 	 	 	 	 	 	 	 	 	 	 	1581541984	9.79	18.13
12/02/2020 21:13:05	120220	12022020	211305	241.78	12.281045	-56.983315	241.86	-0.150	1.530	2.070	241.78	0.20	2.50	 	 	 	 	 	 	 	 	 	 	 	 	 	 	 	 	 	 	1581541985	9.83	18.21
12/02/2020 21:13:06	120220	12022020	211306	241.73	12.281025	-56.983358	241.82	0.080	1.320	1.530	241.73	-0.10	1.90	 	 	 	 	 	 	 	 	 	 	 	 	 	 	 	 	 	 	1581541986	9.83	18.21
12/02/2020 21:13:07	120220	12022020	211307	241.97	12.281005	-56.983398	242.07	0.270	0.670	0.630	241.97	-0.80	1.00	 	 	 	 	 	 	 	 	 	 	 	 	 	 	 	 	 	 	1581541987	9.73	18.02
12/02/2020 21:13:08	120220	12022020	211308	242.29	12.280983	-56.983438	242.38	0.460	-0.270	-0.150	242.29	-1.70	0.20	 	 	 	 	 	 	 	 	 	 	 	 	 	 	 	 	 	 	1581541988	9.69	17.95
12/02/2020 21:13:09	120220	12022020	211309	242.46	12.280962	-56.983478	242.52	0.600	-1.130	-0.390	242.46	-2.50	0.00	 	 	 	 	 	 	 	 	 	 	 	 	 	 	 	 	 	 	1581541989	9.56	17.71
12/02/2020 21:13:10	120220	12022020	211310	242.43	12.280945	-56.983518	242.50	0.530	-1.630	-0.120	242.43	-3.00	0.30	 	 	 	 	 	 	 	 	 	 	 	 	 	 	 	 	 	 	1581541990	9.31	17.24
12/02/2020 21:13:11	120220	12022020	211311	242.34	12.280928	-56.983558	242.41	0.280	-1.670	0.380	242.34	-3.00	0.80	 	 	 	 	 	 	 	 	 	 	 	 	 	 	 	 	 	 	1581541991	9.08	16.82
12/02/2020 21:13:12	120220	12022020	211312	242.29	12.280913	-56.983598	242.37	0.040	-1.430	0.860	242.29	-2.80	1.30	 	 	 	 	 	 	 	 	 	 	 	 	 	 	 	 	 	 	1581541992	9.03	16.72
12/02/2020 21:13:13	120220	12022020	211313	242.28	12.280897	-56.983638	242.35	-0.090	-1.120	1.200	242.28	-2.50	1.60	 	 	 	 	 	 	 	 	 	 	 	 	 	 	 	 	 	 	1581541993	9.24	17.11
12/02/2020 21:13:14	120220	12022020	211314	242.17	12.280880	-56.983680	242.23	-0.160	-0.720	1.490	242.17	-2.10	1.90	 	 	 	 	 	 	 	 	 	 	 	 	 	 	 	 	 	 	1581541994	9.53	17.65
12/02/2020 21:13:15	120220	12022020	211315	241.97	12.280862	-56.983722	241.97	-0.240	-0.190	1.770	241.91	-1.50	2.20	 	 	 	 	 	 	 	 	 	 	 	 	 	 	 	 	 	 	1581541995	9.63	17.83
12/02/2020 21:13:16	120220	12022020	211316	241.61	12.280843	-56.983763	241.67	-0.340	0.330	1.820	241.61	-1.00	2.20	 	 	 	 	 	 	 	 	 	 	 	 	 	 	 	 	 	 	1581541996	9.67	17.91
12/02/2020 21:13:17	120220	12022020	211317	241.37	12.280823	-56.983805	241.45	-0.390	0.730	1.630	241.37	-0.60	2.00	 	 	 	 	 	 	 	 	 	 	 	 	 	 	 	 	 	 	1581541997	9.73	18.02
12/02/2020 21:13:18	120220	12022020	211318	241.19	12.280802	-56.983845	241.28	-0.350	0.970	1.350	241.19	-0.40	1.70	 	 	 	 	 	 	 	 	 	 	 	 	 	 	 	 	 	 	1581541998	9.66	17.89
12/02/2020 21:13:19	120220	12022020	211319	241.19	12.280782	-56.983887	241.30	-0.190	0.840	1.050	241.19	-0.50	1.40	 	 	 	 	 	 	 	 	 	 	 	 	 	 	 	 	 	 	1581541999	9.64	17.85
12/02/2020 21:13:20	120220	12022020	211320	241.39	12.280763	-56.983927	241.50	0.070	0.280	0.830	241.39	-1.10	1.20	 	 	 	 	 	 	 	 	 	 	 	 	 	 	 	 	 	 	1581542000	9.75	18.06
12/02/2020 21:13:21	120220	12022020	211321	241.68	12.280743	-56.983970	241.79	0.350	-0.530	0.730	241.68	-1.90	1.10	 	 	 	 	 	 	 	 	 	 	 	 	 	 	 	 	 	 	1581542001	9.81	18.17
12/02/2020 21:13:22	120220	12022020	211322	241.89	12.280725	-56.984012	241.99	0.530	-1.230	0.670	241.89	-2.60	1.10	 	 	 	 	 	 	 	 	 	 	 	 	 	 	 	 	 	 	1581542002	9.72	18.00
12/02/2020 21:13:23	120220	12022020	211323	242.00	12.280707	-56.984052	242.08	0.510	-1.450	0.680	242.00	-2.80	1.10	 	 	 	 	 	 	 	 	 	 	 	 	 	 	 	 	 	 	1581542003	9.41	17.43
12/02/2020 21:13:24	120220	12022020	211324	241.99	12.280690	-56.984090	242.08	0.270	-1.100	0.830	241.99	-2.40	1.30	 	 	 	 	 	 	 	 	 	 	 	 	 	 	 	 	 	 	1581542004	8.98	16.63
12/02/2020 21:13:25	120220	12022020	211325	241.92	12.280673	-56.984128	242.00	-0.050	-0.440	1.070	241.92	-1.80	1.50	 	 	 	 	 	 	 	 	 	 	 	 	 	 	 	 	 	 	1581542005	8.81	16.32
12/02/2020 21:13:26	120220	12022020	211326	241.85	12.280657	-56.984167	241.94	-0.300	0.150	1.190	241.85	-1.20	1.60	 	 	 	 	 	 	 	 	 	 	 	 	 	 	 	 	 	 	1581542006	8.95	16.58
12/02/2020 21:13:27	120220	12022020	211327	241.78	12.280637	-56.984207	241.88	-0.350	0.440	1.120	241.78	-0.90	1.50	 	 	 	 	 	 	 	 	 	 	 	 	 	 	 	 	 	 	1581542007	9.23	17.09
12/02/2020 21:13:28	120220	12022020	211328	241.66	12.280617	-56.984247	241.76	-0.190	0.260	0.900	241.66	-1.10	1.30	 	 	 	 	 	 	 	 	 	 	 	 	 	 	 	 	 	 	1581542008	9.64	17.85
12/02/2020 21:13:29	120220	12022020	211329	241.58	12.280595	-56.984288	241.69	0.030	-0.170	0.640	241.57	-1.60	1.00	 	 	 	 	 	 	 	 	 	 	 	 	 	 	 	 	 	 	1581542009	9.93	18.39
12/02/2020 21:13:30	120220	12022020	211330	241.54	12.280575	-56.984330	241.66	0.150	-0.540	0.440	241.54	-1.90	0.80	 	 	 	 	 	 	 	 	 	 	 	 	 	 	 	 	 	 	1581542010	9.85	18.24
12/02/2020 21:13:31	120220	12022020	211331	241.49	12.280555	-56.984370	241.59	0.130	-0.670	0.380	241.49	-2.00	0.80	 	 	 	 	 	 	 	 	 	 	 	 	 	 	 	 	 	 	1581542011	9.54	17.67
12/02/2020 21:13:32	120220	12022020	211332	241.42	12.280537	-56.984410	241.52	0.020	-0.600	0.480	241.42	-2.00	0.90	 	 	 	 	 	 	 	 	 	 	 	 	 	 	 	 	 	 	1581542012	9.29	17.21
12/02/2020 21:13:33	120220	12022020	211333	241.40	12.280520	-56.984450	241.52	-0.100	-0.450	0.590	241.40	-1.80	1.00	 	 	 	 	 	 	 	 	 	 	 	 	 	 	 	 	 	 	1581542013	9.22	17.08
12/02/2020 21:13:34	120220	12022020	211334	241.54	12.280503	-56.984492	241.67	-0.140	-0.370	0.550	241.54	-1.70	0.90	 	 	 	 	 	 	 	 	 	 	 	 	 	 	 	 	 	 	1581542014	9.29	17.21
12/02/2020 21:13:35	120220	12022020	211335	241.72	12.280483	-56.984532	241.84	-0.080	-0.420	0.470	241.72	-1.80	0.90	 	 	 	 	 	 	 	 	 	 	 	 	 	 	 	 	 	 	1581542015	9.50	17.59
12/02/2020 21:13:36	120220	12022020	211336	241.82	12.280463	-56.984573	241.94	-0.050	-0.500	0.500	241.82	-1.90	0.90	 	 	 	 	 	 	 	 	 	 	 	 	 	 	 	 	 	 	1581542016	9.71	17.98
12/02/2020 21:13:37	120220	12022020	211337	241.80	12.280443	-56.984613	241.91	-0.120	-0.380	0.640	241.80	-1.70	1.10	 	 	 	 	 	 	 	 	 	 	 	 	 	 	 	 	 	 	1581542017	9.66	17.89
12/02/2020 21:13:38	120220	12022020	211338	241.67	12.280425	-56.984653	241.78	-0.280	-0.020	0.920	241.67	-1.40	1.40	 	 	 	 	 	 	 	 	 	 	 	 	 	 	 	 	 	 	1581542018	9.39	17.39
12/02/2020 21:13:39	120220	12022020	211339	241.48	12.280407	-56.984693	241.60	-0.370	0.380	1.220	241.48	-1.00	1.60	 	 	 	 	 	 	 	 	 	 	 	 	 	 	 	 	 	 	1581542019	9.23	17.09
12/02/2020 21:13:40	120220	12022020	211340	241.32	12.280390	-56.984733	241.44	-0.290	0.610	1.350	241.32	-0.80	1.80	 	 	 	 	 	 	 	 	 	 	 	 	 	 	 	 	 	 	1581542020	9.22	17.08
12/02/2020 21:13:41	120220	12022020	211341	241.28	12.280373	-56.984773	241.42	-0.020	0.620	1.150	241.28	-0.70	1.50	 	 	 	 	 	 	 	 	 	 	 	 	 	 	 	 	 	 	1581542021	9.23	17.09
12/02/2020 21:13:42	120220	12022020	211342	241.35	12.280353	-56.984812	241.48	0.340	0.320	0.690	241.35	-1.10	1.10	 	 	 	 	 	 	 	 	 	 	 	 	 	 	 	 	 	 	1581542022	9.19	17.02
12/02/2020 21:13:43	120220	12022020	211343	241.34	12.280332	-56.984852	241.45	0.660	-0.480	0.410	241.34	-1.90	0.80	 	 	 	 	 	 	 	 	 	 	 	 	 	 	 	 	 	 	1581542023	9.49	17.58
12/02/2020 21:13:44	120220	12022020	211344	241.12	12.280312	-56.984893	241.23	0.800	-1.460	0.590	241.12	-2.90	1.00	 	 	 	 	 	 	 	 	 	 	 	 	 	 	 	 	 	 	1581542024	9.87	18.28
12/02/2020 21:13:45	120220	12022020	211345	240.77	12.280292	-56.984935	240.88	0.570	-2.040	1.090	240.77	-3.40	1.50	 	 	 	 	 	 	 	 	 	 	 	 	 	 	 	 	 	 	1581542025	9.92	18.37
12/02/2020 21:13:46	120220	12022020	211346	240.55	12.280275	-56.984977	240.69	0.050	-1.800	1.490	240.55	-3.10	1.90	 	 	 	 	 	 	 	 	 	 	 	 	 	 	 	 	 	 	1581542026	9.52	17.63
12/02/2020 21:13:47	120220	12022020	211347	240.67	12.280258	-56.985017	240.83	-0.470	-0.850	1.480	240.67	-2.20	1.90	 	 	 	 	 	 	 	 	 	 	 	 	 	 	 	 	 	 	1581542027	9.00	16.67
12/02/2020 21:13:48	120220	12022020	211348	241.05	12.280242	-56.985055	241.20	-0.750	0.210	1.140	241.05	-1.10	1.50	 	 	 	 	 	 	 	 	 	 	 	 	 	 	 	 	 	 	1581542028	8.81	16.32
12/02/2020 21:13:49	120220	12022020	211349	241.43	12.280223	-56.985093	241.58	-0.670	0.710	0.770	241.43	-0.70	1.20	 	 	 	 	 	 	 	 	 	 	 	 	 	 	 	 	 	 	1581542029	9.23	17.09
12/02/2020 21:13:50	120220	12022020	211350	241.66	12.280202	-56.985135	241.81	-0.330	0.520	0.610	241.66	-0.90	1.00	 	 	 	 	 	 	 	 	 	 	 	 	 	 	 	 	 	 	1581542030	9.93	18.39
12/02/2020 21:13:51	120220	12022020	211351	241.71	12.280180	-56.985178	241.83	0.020	0.120	0.640	241.71	-1.30	1.10	 	 	 	 	 	 	 	 	 	 	 	 	 	 	 	 	 	 	1581542031	10.23	18.95
12/02/2020 21:13:52	120220	12022020	211352	241.52	12.280158	-56.985220	241.62	0.160	-0.020	0.690	241.52	-1.40	1.10	 	 	 	 	 	 	 	 	 	 	 	 	 	 	 	 	 	 	1581542032	9.91	18.35
12/02/2020 21:13:53	120220	12022020	211353	241.24	12.280138	-56.985258	241.26	0.080	0.140	0.740	241.17	-1.20	1.20	 	 	 	 	 	 	 	 	 	 	 	 	 	 	 	 	 	 	1581542033	9.37	17.35
12/02/2020 21:13:54	120220	12022020	211354	240.92	12.280118	-56.985297	241.03	-0.050	0.260	0.720	240.92	-1.10	1.10	 	 	 	 	 	 	 	 	 	 	 	 	 	 	 	 	 	 	1581542034	9.10	16.85
12/02/2020 21:13:55	120220	12022020	211355	240.87	12.280098	-56.985335	241.00	-0.040	0.090	0.680	240.87	-1.30	1.10	 	 	 	 	 	 	 	 	 	 	 	 	 	 	 	 	 	 	1581542035	9.17	16.98
12/02/2020 21:13:56	120220	12022020	211356	240.89	12.280080	-56.985377	241.03	0.150	-0.430	0.730	240.89	-1.80	1.10	 	 	 	 	 	 	 	 	 	 	 	 	 	 	 	 	 	 	1581542036	9.51	17.61
12/02/2020 21:13:57	120220	12022020	211357	240.98	12.280062	-56.985418	241.12	0.360	-0.970	0.910	240.98	-2.30	1.30	 	 	 	 	 	 	 	 	 	 	 	 	 	 	 	 	 	 	1581542037	9.72	18.00
12/02/2020 21:13:58	120220	12022020	211358	241.12	12.280045	-56.985460	241.27	0.420	-1.140	1.100	241.12	-2.50	1.50	 	 	 	 	 	 	 	 	 	 	 	 	 	 	 	 	 	 	1581542038	9.56	17.71
12/02/2020 21:13:59	120220	12022020	211359	241.29	12.280028	-56.985500	241.44	0.280	-0.820	1.110	241.29	-2.10	1.50	 	 	 	 	 	 	 	 	 	 	 	 	 	 	 	 	 	 	1581542039	9.14	16.93
12/02/2020 21:14:00	120220	12022020	211400	241.44	12.280012	-56.985538	241.58	0.040	-0.350	0.880	241.44	-1.70	1.30	 	 	 	 	 	 	 	 	 	 	 	 	 	 	 	 	 	 	1581542040	8.87	16.43
12/02/2020 21:14:01	120220	12022020	211401	241.50	12.279990	-56.985575	241.61	-0.090	-0.220	0.620	241.50	-1.60	1.00	 	 	 	 	 	 	 	 	 	 	 	 	 	 	 	 	 	 	1581542041	9.15	16.95
12/02/2020 21:14:02	120220	12022020	211402	241.34	12.279968	-56.985617	241.45	-0.030	-0.510	0.590	241.34	-1.90	1.00	1014.70	27.20	35.80	20.00	21.30	55.0	64.0	43.0	391.0	27.1	201.00	5.60	73.00	10.30	5926	11157.0	27.4	27.4	1581542042	9.75	18.06
12/02/2020 21:14:03	120220	12022020	211403	241.01	12.279947	-56.985658	241.11	0.050	-0.800	0.840	241.01	-2.20	1.30	 	 	 	 	 	 	 	 	 	 	 	 	 	 	 	 	 	 	1581542043	10.12	18.74
12/02/2020 21:14:04	120220	12022020	211404	240.79	12.279927	-56.985700	240.91	-0.060	-0.670	1.070	240.79	-2.00	1.50	 	 	 	 	 	 	 	 	 	 	 	 	 	 	 	 	 	 	1581542044	9.93	18.39
12/02/2020 21:14:05	120220	12022020	211405	240.79	12.279908	-56.985742	240.94	-0.310	-0.200	1.160	240.80	-1.50	1.60	 	 	 	 	 	 	 	 	 	 	 	 	 	 	 	 	 	 	1581542045	9.58	17.74
12/02/2020 21:14:06	120220	12022020	211406	240.90	12.279892	-56.985783	241.03	-0.450	0.380	1.120	240.90	-1.00	1.50	 	 	 	 	 	 	 	 	 	 	 	 	 	 	 	 	 	 	1581542046	9.39	17.39
12/02/2020 21:14:07	120220	12022020	211407	241.04	12.279873	-56.985823	241.16	-0.360	0.850	0.930	241.04	-0.50	1.30	 	 	 	 	 	 	 	 	 	 	 	 	 	 	 	 	 	 	1581542047	9.27	17.17
12/02/2020 21:14:08	120220	12022020	211408	241.26	12.279853	-56.985862	241.38	-0.130	0.890	0.650	241.26	-0.50	1.10	 	 	 	 	 	 	 	 	 	 	 	 	 	 	 	 	 	 	1581542048	9.34	17.30
12/02/2020 21:14:09	120220	12022020	211409	241.48	12.279833	-56.985902	241.58	0.090	0.390	0.440	241.48	-1.00	0.90	 	 	 	 	 	 	 	 	 	 	 	 	 	 	 	 	 	 	1581542049	9.57	17.72
12/02/2020 21:14:10	120220	12022020	211410	241.54	12.279812	-56.985943	241.64	0.270	-0.440	0.430	241.54	-1.80	0.90	 	 	 	 	 	 	 	 	 	 	 	 	 	 	 	 	 	 	1581542050	9.79	18.13
12/02/2020 21:14:11	120220	12022020	211411	241.40	12.279792	-56.985985	241.49	0.390	-1.150	0.670	241.40	-2.50	1.10	 	 	 	 	 	 	 	 	 	 	 	 	 	 	 	 	 	 	1581542051	9.76	18.08
12/02/2020 21:14:12	120220	12022020	211412	241.16	12.279773	-56.986025	241.24	0.400	-1.370	1.010	241.16	-2.70	1.40	 	 	 	 	 	 	 	 	 	 	 	 	 	 	 	 	 	 	1581542052	9.47	17.54
12/02/2020 21:14:13	120220	12022020	211413	240.97	12.279757	-56.986065	241.05	0.300	-1.160	1.170	240.97	-2.50	1.60	 	 	 	 	 	 	 	 	 	 	 	 	 	 	 	 	 	 	1581542053	9.12	16.89
12/02/2020 21:14:14	120220	12022020	211414	240.88	12.279737	-56.986103	240.96	0.190	-0.870	1.090	240.88	-2.20	1.50	 	 	 	 	 	 	 	 	 	 	 	 	 	 	 	 	 	 	1581542054	9.13	16.91
12/02/2020 21:14:15	120220	12022020	211415	240.76	12.279718	-56.986143	240.85	0.080	-0.640	1.030	240.76	-2.00	1.40	 	 	 	 	 	 	 	 	 	 	 	 	 	 	 	 	 	 	1581542055	9.49	17.58
12/02/2020 21:14:16	120220	12022020	211416	240.73	12.279698	-56.986185	240.84	-0.120	-0.300	0.950	240.73	-1.60	1.40	 	 	 	 	 	 	 	 	 	 	 	 	 	 	 	 	 	 	1581542056	9.67	17.91
12/02/2020 21:14:17	120220	12022020	211417	240.88	12.279678	-56.986225	241.06	-0.410	0.180	0.760	240.93	-1.10	1.20	 	 	 	 	 	 	 	 	 	 	 	 	 	 	 	 	 	 	1581542057	9.55	17.69
12/02/2020 21:14:18	120220	12022020	211418	241.32	12.279660	-56.986265	241.47	-0.640	0.640	0.500	241.32	-0.70	0.90	 	 	 	 	 	 	 	 	 	 	 	 	 	 	 	 	 	 	1581542058	9.38	17.37
12/02/2020 21:14:19	120220	12022020	211419	241.67	12.279640	-56.986305	241.89	-0.560	0.770	0.300	241.74	-0.60	0.70	 	 	 	 	 	 	 	 	 	 	 	 	 	 	 	 	 	 	1581542059	9.39	17.39
12/02/2020 21:14:20	120220	12022020	211420	242.03	12.279620	-56.986345	242.16	-0.130	0.430	0.260	242.03	-1.00	0.70	 	 	 	 	 	 	 	 	 	 	 	 	 	 	 	 	 	 	1581542060	9.65	17.87
12/02/2020 21:14:21	120220	12022020	211421	242.00	12.279598	-56.986387	242.10	0.380	-0.190	0.530	242.00	-1.60	1.00	 	 	 	 	 	 	 	 	 	 	 	 	 	 	 	 	 	 	1581542061	9.84	18.22
12/02/2020 21:14:22	120220	12022020	211422	241.70	12.279580	-56.986428	241.79	0.640	-0.760	0.900	241.70	-2.10	1.30	 	 	 	 	 	 	 	 	 	 	 	 	 	 	 	 	 	 	1581542062	9.80	18.15
12/02/2020 21:14:23	120220	12022020	211423	241.33	12.279560	-56.986470	241.41	0.550	-1.100	1.160	241.33	-2.50	1.60	 	 	 	 	 	 	 	 	 	 	 	 	 	 	 	 	 	 	1581542063	9.62	17.82
12/02/2020 21:14:24	120220	12022020	211424	241.02	12.279543	-56.986510	241.12	0.290	-1.090	1.210	241.02	-2.40	1.60	 	 	 	 	 	 	 	 	 	 	 	 	 	 	 	 	 	 	1581542064	9.42	17.45
12/02/2020 21:14:25	120220	12022020	211425	240.93	12.279525	-56.986550	241.03	0.020	-0.770	1.040	240.93	-2.10	1.40	 	 	 	 	 	 	 	 	 	 	 	 	 	 	 	 	 	 	1581542065	9.22	17.08
12/02/2020 21:14:26	120220	12022020	211426	241.06	12.279507	-56.986590	241.17	-0.230	-0.350	0.740	241.06	-1.70	1.10	 	 	 	 	 	 	 	 	 	 	 	 	 	 	 	 	 	 	1581542066	9.18	17.00
12/02/2020 21:14:27	120220	12022020	211427	241.28	12.279488	-56.986630	241.38	-0.400	-0.070	0.530	241.28	-1.40	0.90	 	 	 	 	 	 	 	 	 	 	 	 	 	 	 	 	 	 	1581542067	9.32	17.26
12/02/2020 21:14:28	120220	12022020	211428	241.51	12.279468	-56.986670	241.61	-0.450	0.010	0.450	241.51	-1.40	0.90	 	 	 	 	 	 	 	 	 	 	 	 	 	 	 	 	 	 	1581542068	9.61	17.80
12/02/2020 21:14:29	120220	12022020	211429	241.72	12.279450	-56.986712	241.81	-0.360	0.040	0.560	241.72	-1.30	1.00	 	 	 	 	 	 	 	 	 	 	 	 	 	 	 	 	 	 	1581542069	9.67	17.91
12/02/2020 21:14:30	120220	12022020	211430	241.76	12.279430	-56.986753	241.85	-0.130	0.020	0.870	241.76	-1.40	1.30	 	 	 	 	 	 	 	 	 	 	 	 	 	 	 	 	 	 	1581542070	9.64	17.85
12/02/2020 21:14:31	120220	12022020	211431	241.65	12.279410	-56.986793	241.73	0.130	-0.040	1.150	241.65	-1.40	1.60	 	 	 	 	 	 	 	 	 	 	 	 	 	 	 	 	 	 	1581542071	9.62	17.82
12/02/2020 21:14:32	120220	12022020	211432	241.48	12.279392	-56.986835	241.58	0.280	-0.140	1.210	241.48	-1.50	1.60	 	 	 	 	 	 	 	 	 	 	 	 	 	 	 	 	 	 	1581542072	9.57	17.72
12/02/2020 21:14:33	120220	12022020	211433	241.35	12.279372	-56.986875	241.45	0.280	-0.320	0.940	241.35	-1.70	1.30	 	 	 	 	 	 	 	 	 	 	 	 	 	 	 	 	 	 	1581542073	9.55	17.69
12/02/2020 21:14:34	120220	12022020	211434	241.32	12.279352	-56.986915	241.42	0.190	-0.520	0.500	241.32	-1.90	0.90	 	 	 	 	 	 	 	 	 	 	 	 	 	 	 	 	 	 	1581542074	9.53	17.65
12/02/2020 21:14:35	120220	12022020	211435	241.35	12.279330	-56.986955	241.45	0.110	-0.740	0.140	241.35	-2.10	0.60	 	 	 	 	 	 	 	 	 	 	 	 	 	 	 	 	 	 	1581542075	9.55	17.69
12/02/2020 21:14:36	120220	12022020	211436	241.42	12.279308	-56.986995	241.53	0.020	-0.840	0.080	241.42	-2.20	0.50	 	 	 	 	 	 	 	 	 	 	 	 	 	 	 	 	 	 	1581542076	9.61	17.80
12/02/2020 21:14:37	120220	12022020	211437	241.49	12.279288	-56.987035	241.62	-0.120	-0.640	0.370	241.49	-2.00	0.80	 	 	 	 	 	 	 	 	 	 	 	 	 	 	 	 	 	 	1581542077	9.53	17.65
12/02/2020 21:14:38	120220	12022020	211438	241.54	12.279272	-56.987075	241.66	-0.270	-0.090	0.790	241.54	-1.40	1.20	 	 	 	 	 	 	 	 	 	 	 	 	 	 	 	 	 	 	1581542078	9.30	17.22
12/02/2020 21:14:39	120220	12022020	211439	241.56	12.279257	-56.987115	241.68	-0.290	0.520	1.070	241.56	-0.80	1.50	 	 	 	 	 	 	 	 	 	 	 	 	 	 	 	 	 	 	1581542079	9.11	16.87
12/02/2020 21:14:40	120220	12022020	211440	241.56	12.279240	-56.987155	241.67	-0.180	0.650	1.090	241.56	-0.70	1.50	 	 	 	 	 	 	 	 	 	 	 	 	 	 	 	 	 	 	1581542080	9.26	17.15
12/02/2020 21:14:41	120220	12022020	211441	241.59	12.279220	-56.987197	241.72	0.010	0.180	0.720	241.60	-1.20	1.10	 	 	 	 	 	 	 	 	 	 	 	 	 	 	 	 	 	 	1581542081	9.72	18.00
12/02/2020 21:14:42	120220	12022020	211442	241.70	12.279197	-56.987238	241.82	0.200	-0.560	0.210	241.70	-2.00	0.60	 	 	 	 	 	 	 	 	 	 	 	 	 	 	 	 	 	 	1581542082	10.01	18.54
12/02/2020 21:14:43	120220	12022020	211443	241.81	12.279175	-56.987280	241.94	0.350	-1.020	-0.110	241.83	-2.40	0.30	 	 	 	 	 	 	 	 	 	 	 	 	 	 	 	 	 	 	1581542083	9.85	18.24
12/02/2020 21:14:44	120220	12022020	211444	241.87	12.279155	-56.987318	241.96	0.390	-1.090	0.040	241.86	-2.50	0.50	 	 	 	 	 	 	 	 	 	 	 	 	 	 	 	 	 	 	1581542084	9.43	17.46
12/02/2020 21:14:45	120220	12022020	211445	241.77	12.279137	-56.987360	241.85	0.260	-1.010	0.470	241.77	-2.40	0.90	 	 	 	 	 	 	 	 	 	 	 	 	 	 	 	 	 	 	1581542085	9.35	17.32
12/02/2020 21:14:46	120220	12022020	211446	241.57	12.279120	-56.987402	241.64	-0.030	-0.890	0.910	241.57	-2.20	1.30	 	 	 	 	 	 	 	 	 	 	 	 	 	 	 	 	 	 	1581542086	9.57	17.72
12/02/2020 21:14:47	120220	12022020	211447	241.38	12.279103	-56.987443	241.45	-0.390	-0.550	1.180	241.38	-1.90	1.60	 	 	 	 	 	 	 	 	 	 	 	 	 	 	 	 	 	 	1581542087	9.64	17.85
12/02/2020 21:14:48	120220	12022020	211448	241.40	12.279085	-56.987483	241.52	-0.700	0.110	1.130	241.40	-1.20	1.50	 	 	 	 	 	 	 	 	 	 	 	 	 	 	 	 	 	 	1581542088	9.40	17.41
12/02/2020 21:14:49	120220	12022020	211449	241.71	12.279065	-56.987522	241.85	-0.780	0.780	0.840	241.71	-0.60	1.20	 	 	 	 	 	 	 	 	 	 	 	 	 	 	 	 	 	 	1581542089	9.11	16.87
12/02/2020 21:14:50	120220	12022020	211450	242.10	12.279045	-56.987560	242.24	-0.500	0.980	0.480	242.10	-0.40	0.90	 	 	 	 	 	 	 	 	 	 	 	 	 	 	 	 	 	 	1581542090	9.21	17.06
12/02/2020 21:14:51	120220	12022020	211451	242.33	12.279025	-56.987600	242.44	0.050	0.560	0.440	242.33	-0.90	0.90	 	 	 	 	 	 	 	 	 	 	 	 	 	 	 	 	 	 	1581542091	9.60	17.78
12/02/2020 21:14:52	120220	12022020	211452	242.30	12.279005	-56.987643	242.35	0.600	-0.250	0.850	242.26	-1.70	1.30	 	 	 	 	 	 	 	 	 	 	 	 	 	 	 	 	 	 	1581542092	9.93	18.39
12/02/2020 21:14:53	120220	12022020	211453	241.95	12.278988	-56.987687	242.02	0.840	-0.910	1.430	241.95	-2.30	1.90	 	 	 	 	 	 	 	 	 	 	 	 	 	 	 	 	 	 	1581542093	9.86	18.26
12/02/2020 21:14:54	120220	12022020	211454	241.51	12.278972	-56.987728	241.58	0.700	-1.110	1.890	241.51	-2.50	2.30	 	 	 	 	 	 	 	 	 	 	 	 	 	 	 	 	 	 	1581542094	9.42	17.45
12/02/2020 21:14:55	120220	12022020	211455	241.15	12.278958	-56.987768	241.14	0.370	-0.870	2.000	241.08	-2.20	2.40	 	 	 	 	 	 	 	 	 	 	 	 	 	 	 	 	 	 	1581542095	8.98	16.63
12/02/2020 21:14:56	120220	12022020	211456	240.83	12.278942	-56.987805	240.90	0.090	-0.440	1.680	240.83	-1.80	2.10	 	 	 	 	 	 	 	 	 	 	 	 	 	 	 	 	 	 	1581542096	8.73	16.17
12/02/2020 21:14:57	120220	12022020	211457	240.88	12.278922	-56.987842	240.96	-0.060	-0.140	1.040	240.88	-1.50	1.40	 	 	 	 	 	 	 	 	 	 	 	 	 	 	 	 	 	 	1581542097	8.77	16.24
12/02/2020 21:14:58	120220	12022020	211458	241.10	12.278900	-56.987880	241.18	-0.150	-0.230	0.400	241.10	-1.60	0.80	 	 	 	 	 	 	 	 	 	 	 	 	 	 	 	 	 	 	1581542098	9.19	17.02
12/02/2020 21:14:59	120220	12022020	211459	241.40	12.278878	-56.987918	241.60	-0.280	-0.500	-0.010	241.50	-1.90	0.40	 	 	 	 	 	 	 	 	 	 	 	 	 	 	 	 	 	 	1581542099	9.54	17.67
12/02/2020 21:15:00	120220	12022020	211500	242.04	12.278858	-56.987958	242.15	-0.390	-0.610	-0.110	242.04	-2.00	0.30	 	 	 	 	 	 	 	 	 	 	 	 	 	 	 	 	 	 	1581542100	9.47	17.54
12/02/2020 21:15:01	120220	12022020	211501	242.46	12.278840	-56.987998	242.57	-0.390	-0.590	0.140	242.46	-2.00	0.60	 	 	 	 	 	 	 	 	 	 	 	 	 	 	 	 	 	 	1581542101	9.32	17.26
12/02/2020 21:15:02	120220	12022020	211502	242.62	12.278822	-56.988038	242.69	-0.250	-0.490	0.650	242.62	-1.90	1.10	1014.70	26.70	30.60	20.40	20.90	56.0	68.0	56.0	393.0	27.0	200.00	5.00	72.00	9.80	5756	11150.0	27.4	27.4	1581542102	9.31	17.24
12/02/2020 21:15:03	120220	12022020	211503	242.59	12.278805	-56.988078	242.64	-0.060	-0.310	1.190	242.59	-1.70	1.60	 	 	 	 	 	 	 	 	 	 	 	 	 	 	 	 	 	 	1581542103	9.29	17.21
12/02/2020 21:15:04	120220	12022020	211504	242.38	12.278788	-56.988120	242.41	0.090	-0.080	1.650	242.38	-1.40	2.10	 	 	 	 	 	 	 	 	 	 	 	 	 	 	 	 	 	 	1581542104	9.24	17.11
12/02/2020 21:15:05	120220	12022020	211505	241.92	12.278773	-56.988160	241.94	0.140	0.140	1.970	241.92	-1.20	2.40	 	 	 	 	 	 	 	 	 	 	 	 	 	 	 	 	 	 	1581542105	9.20	17.04
12/02/2020 21:15:06	120220	12022020	211506	241.42	12.278757	-56.988200	241.45	0.110	0.310	1.990	241.42	-1.10	2.40	 	 	 	 	 	 	 	 	 	 	 	 	 	 	 	 	 	 	1581542106	9.10	16.85
12/02/2020 21:15:07	120220	12022020	211507	241.14	12.278738	-56.988238	241.14	0.080	0.260	1.660	241.09	-1.10	2.10	 	 	 	 	 	 	 	 	 	 	 	 	 	 	 	 	 	 	1581542107	9.06	16.78
12/02/2020 21:15:08	120220	12022020	211508	240.95	12.278720	-56.988277	241.01	0.130	-0.020	1.050	240.95	-1.40	1.40	 	 	 	 	 	 	 	 	 	 	 	 	 	 	 	 	 	 	1581542108	9.14	16.93
12/02/2020 21:15:09	120220	12022020	211509	241.01	12.278698	-56.988315	241.14	0.180	-0.260	0.320	241.05	-1.60	0.70	 	 	 	 	 	 	 	 	 	 	 	 	 	 	 	 	 	 	1581542109	9.08	16.82
12/02/2020 21:15:10	120220	12022020	211510	241.42	12.278678	-56.988350	241.52	0.150	-0.250	-0.280	241.42	-1.60	0.10	 	 	 	 	 	 	 	 	 	 	 	 	 	 	 	 	 	 	1581542110	8.75	16.21
12/02/2020 21:15:11	120220	12022020	211511	241.94	12.278660	-56.988387	242.07	0.050	-0.260	-0.580	241.94	-1.70	-0.20	 	 	 	 	 	 	 	 	 	 	 	 	 	 	 	 	 	 	1581542111	8.56	15.85
12/02/2020 21:15:12	120220	12022020	211512	242.46	12.278643	-56.988425	242.59	-0.010	-0.530	-0.480	242.46	-1.90	-0.10	 	 	 	 	 	 	 	 	 	 	 	 	 	 	 	 	 	 	1581542112	8.78	16.26
12/02/2020 21:15:13	120220	12022020	211513	242.89	12.278627	-56.988463	242.99	0.050	-1.050	-0.180	242.89	-2.40	0.30	 	 	 	 	 	 	 	 	 	 	 	 	 	 	 	 	 	 	1581542113	9.17	16.98
12/02/2020 21:15:14	120220	12022020	211514	243.10	12.278610	-56.988505	243.17	0.160	-1.510	0.220	243.10	-2.90	0.70	 	 	 	 	 	 	 	 	 	 	 	 	 	 	 	 	 	 	1581542114	9.40	17.41
12/02/2020 21:15:15	120220	12022020	211515	242.92	12.278592	-56.988545	242.94	0.120	-1.590	0.880	242.92	-2.90	1.30	 	 	 	 	 	 	 	 	 	 	 	 	 	 	 	 	 	 	1581542115	9.39	17.39
12/02/2020 21:15:16	120220	12022020	211516	242.39	12.278575	-56.988585	242.39	-0.130	-1.120	1.690	242.39	-2.40	2.10	 	 	 	 	 	 	 	 	 	 	 	 	 	 	 	 	 	 	1581542116	9.16	16.96
12/02/2020 21:15:17	120220	12022020	211517	241.69	12.278560	-56.988623	241.71	-0.440	-0.210	2.290	241.69	-1.50	2.70	 	 	 	 	 	 	 	 	 	 	 	 	 	 	 	 	 	 	1581542117	8.87	16.43
12/02/2020 21:15:18	120220	12022020	211518	241.20	12.278545	-56.988663	241.14	-0.620	0.700	2.460	241.10	-0.60	2.90	 	 	 	 	 	 	 	 	 	 	 	 	 	 	 	 	 	 	1581542118	8.77	16.24
12/02/2020 21:15:19	120220	12022020	211519	240.88	12.278528	-56.988702	240.94	-0.550	1.210	2.080	240.86	-0.20	2.50	 	 	 	 	 	 	 	 	 	 	 	 	 	 	 	 	 	 	1581542119	8.88	16.45
12/02/2020 21:15:20	120220	12022020	211520	240.95	12.278510	-56.988740	241.10	-0.240	1.230	1.340	240.99	-0.20	1.70	 	 	 	 	 	 	 	 	 	 	 	 	 	 	 	 	 	 	1581542120	9.04	16.74
12/02/2020 21:15:21	120220	12022020	211521	241.32	12.278490	-56.988778	241.44	0.150	0.920	0.640	241.32	-0.50	1.00	 	 	 	 	 	 	 	 	 	 	 	 	 	 	 	 	 	 	1581542121	9.07	16.80
12/02/2020 21:15:22	120220	12022020	211522	241.76	12.278472	-56.988815	241.89	0.470	0.460	0.140	241.76	-0.90	0.50	 	 	 	 	 	 	 	 	 	 	 	 	 	 	 	 	 	 	1581542122	8.89	16.46
12/02/2020 21:15:23	120220	12022020	211523	242.24	12.278455	-56.988852	242.37	0.620	-0.160	-0.090	242.24	-1.60	0.30	 	 	 	 	 	 	 	 	 	 	 	 	 	 	 	 	 	 	1581542123	8.69	16.09
12/02/2020 21:15:24	120220	12022020	211524	242.66	12.278437	-56.988890	242.78	0.650	-0.910	-0.040	242.66	-2.30	0.40	 	 	 	 	 	 	 	 	 	 	 	 	 	 	 	 	 	 	1581542124	8.66	16.04
12/02/2020 21:15:25	120220	12022020	211525	242.85	12.278420	-56.988927	242.93	0.580	-1.650	0.290	242.85	-3.00	0.70	 	 	 	 	 	 	 	 	 	 	 	 	 	 	 	 	 	 	1581542125	8.75	16.21
12/02/2020 21:15:26	120220	12022020	211526	242.71	12.278405	-56.988965	242.78	0.410	-2.120	0.880	242.71	-3.50	1.30	 	 	 	 	 	 	 	 	 	 	 	 	 	 	 	 	 	 	1581542126	8.83	16.35
12/02/2020 21:15:27	120220	12022020	211527	242.35	12.278390	-56.989005	242.40	0.120	-2.040	1.480	242.35	-3.40	1.90	 	 	 	 	 	 	 	 	 	 	 	 	 	 	 	 	 	 	1581542127	8.79	16.28
12/02/2020 21:15:28	120220	12022020	211528	241.93	12.278375	-56.989042	241.97	-0.260	-1.360	1.830	241.93	-2.70	2.30	 	 	 	 	 	 	 	 	 	 	 	 	 	 	 	 	 	 	1581542128	8.57	15.87
12/02/2020 21:15:29	120220	12022020	211529	241.66	12.278360	-56.989078	241.74	-0.620	-0.420	1.780	241.66	-1.70	2.20	 	 	 	 	 	 	 	 	 	 	 	 	 	 	 	 	 	 	1581542129	8.48	15.70
12/02/2020 21:15:30	120220	12022020	211530	241.70	12.278342	-56.989115	241.85	-0.800	0.400	1.400	241.74	-0.90	1.80	 	 	 	 	 	 	 	 	 	 	 	 	 	 	 	 	 	 	1581542130	8.66	16.04
12/02/2020 21:15:31	120220	12022020	211531	241.96	12.278323	-56.989153	242.14	-0.750	0.840	0.980	242.02	-0.50	1.40	 	 	 	 	 	 	 	 	 	 	 	 	 	 	 	 	 	 	1581542131	8.95	16.58
12/02/2020 21:15:32	120220	12022020	211532	242.28	12.278305	-56.989192	242.44	-0.560	0.900	0.690	242.33	-0.50	1.10	 	 	 	 	 	 	 	 	 	 	 	 	 	 	 	 	 	 	1581542132	9.21	17.06
12/02/2020 21:15:33	120220	12022020	211533	242.46	12.278287	-56.989232	242.55	-0.300	0.800	0.710	242.46	-0.60	1.10	 	 	 	 	 	 	 	 	 	 	 	 	 	 	 	 	 	 	1581542133	9.21	17.06
12/02/2020 21:15:34	120220	12022020	211534	242.35	12.278272	-56.989272	242.37	-0.010	0.750	0.980	242.31	-0.60	1.40	 	 	 	 	 	 	 	 	 	 	 	 	 	 	 	 	 	 	1581542134	8.89	16.46
12/02/2020 21:15:35	120220	12022020	211535	242.00	12.278257	-56.989308	242.08	0.270	0.620	1.200	242.00	-0.80	1.60	 	 	 	 	 	 	 	 	 	 	 	 	 	 	 	 	 	 	1581542135	8.49	15.72
12/02/2020 21:15:36	120220	12022020	211536	241.75	12.278240	-56.989345	241.84	0.510	0.140	1.150	241.75	-1.30	1.60	 	 	 	 	 	 	 	 	 	 	 	 	 	 	 	 	 	 	1581542136	8.39	15.54
12/02/2020 21:15:37	120220	12022020	211537	241.68	12.278223	-56.989382	241.78	0.660	-0.660	0.830	241.68	-2.10	1.20	 	 	 	 	 	 	 	 	 	 	 	 	 	 	 	 	 	 	1581542137	8.57	15.87
12/02/2020 21:15:38	120220	12022020	211538	241.75	12.278205	-56.989417	241.86	0.670	-1.340	0.430	241.75	-2.70	0.80	 	 	 	 	 	 	 	 	 	 	 	 	 	 	 	 	 	 	1581542138	8.56	15.85
12/02/2020 21:15:39	120220	12022020	211539	241.84	12.278188	-56.989453	241.95	0.530	-1.590	0.220	241.84	-2.90	0.60	 	 	 	 	 	 	 	 	 	 	 	 	 	 	 	 	 	 	1581542139	8.34	15.45
12/02/2020 21:15:40	120220	12022020	211540	241.90	12.278173	-56.989488	242.00	0.280	-1.410	0.240	241.90	-2.80	0.70	 	 	 	 	 	 	 	 	 	 	 	 	 	 	 	 	 	 	1581542140	8.14	15.08
12/02/2020 21:15:41	120220	12022020	211541	241.99	12.278158	-56.989523	242.09	0.020	-1.020	0.280	241.99	-2.40	0.70	 	 	 	 	 	 	 	 	 	 	 	 	 	 	 	 	 	 	1581542141	8.18	15.15
12/02/2020 21:15:42	120220	12022020	211542	242.13	12.278140	-56.989560	242.23	-0.180	-0.690	0.340	242.13	-2.10	0.80	 	 	 	 	 	 	 	 	 	 	 	 	 	 	 	 	 	 	1581542142	8.45	15.65
12/02/2020 21:15:43	120220	12022020	211543	242.20	12.278123	-56.989597	242.30	-0.310	-0.490	0.580	242.21	-1.90	1.00	 	 	 	 	 	 	 	 	 	 	 	 	 	 	 	 	 	 	1581542143	8.83	16.35
12/02/2020 21:15:44	120220	12022020	211544	242.16	12.278107	-56.989637	242.22	-0.420	-0.280	0.940	242.13	-1.60	1.40	 	 	 	 	 	 	 	 	 	 	 	 	 	 	 	 	 	 	1581542144	9.02	16.71
12/02/2020 21:15:45	120220	12022020	211545	241.95	12.278090	-56.989675	241.98	-0.520	-0.010	1.280	241.90	-1.40	1.70	 	 	 	 	 	 	 	 	 	 	 	 	 	 	 	 	 	 	1581542145	9.06	16.78
12/02/2020 21:15:46	120220	12022020	211546	241.66	12.278075	-56.989715	241.74	-0.600	0.400	1.470	241.66	-0.90	1.90	 	 	 	 	 	 	 	 	 	 	 	 	 	 	 	 	 	 	1581542146	8.92	16.52
12/02/2020 21:15:47	120220	12022020	211547	241.49	12.278058	-56.989752	241.58	-0.620	0.920	1.520	241.49	-0.40	1.90	 	 	 	 	 	 	 	 	 	 	 	 	 	 	 	 	 	 	1581542147	8.57	15.87
12/02/2020 21:15:48	120220	12022020	211548	241.31	12.278043	-56.989788	241.37	-0.470	1.250	1.520	241.31	-0.10	1.90	 	 	 	 	 	 	 	 	 	 	 	 	 	 	 	 	 	 	1581542148	8.29	15.35
12/02/2020 21:15:49	120220	12022020	211549	241.14	12.278028	-56.989825	241.21	-0.110	1.010	1.340	241.14	-0.40	1.70	 	 	 	 	 	 	 	 	 	 	 	 	 	 	 	 	 	 	1581542149	8.32	15.41
12/02/2020 21:15:50	120220	12022020	211550	241.10	12.278010	-56.989860	241.17	0.430	0.230	0.890	241.10	-1.20	1.30	 	 	 	 	 	 	 	 	 	 	 	 	 	 	 	 	 	 	1581542150	8.55	15.83
12/02/2020 21:15:51	120220	12022020	211551	241.17	12.277992	-56.989897	241.24	0.930	-0.740	0.330	241.17	-2.20	0.70	 	 	 	 	 	 	 	 	 	 	 	 	 	 	 	 	 	 	1581542151	8.62	15.96
12/02/2020 21:15:52	120220	12022020	211552	241.29	12.277973	-56.989932	241.36	1.100	-1.600	-0.110	241.29	-3.00	0.30	 	 	 	 	 	 	 	 	 	 	 	 	 	 	 	 	 	 	1581542152	8.58	15.89
12/02/2020 21:15:53	120220	12022020	211553	241.36	12.277955	-56.989968	241.44	0.850	-2.030	-0.290	241.36	-3.40	0.10	 	 	 	 	 	 	 	 	 	 	 	 	 	 	 	 	 	 	1581542153	8.48	15.70
12/02/2020 21:15:54	120220	12022020	211554	241.41	12.277938	-56.990003	241.51	0.340	-1.740	-0.330	241.41	-3.10	0.10	 	 	 	 	 	 	 	 	 	 	 	 	 	 	 	 	 	 	1581542154	8.21	15.20
12/02/2020 21:15:55	120220	12022020	211555	241.45	12.277922	-56.990037	241.55	-0.210	-0.840	-0.270	241.45	-2.20	0.20	 	 	 	 	 	 	 	 	 	 	 	 	 	 	 	 	 	 	1581542155	7.87	14.58
12/02/2020 21:15:56	120220	12022020	211556	241.39	12.277907	-56.990070	241.43	-0.610	0.160	-0.040	241.36	-1.20	0.40	 	 	 	 	 	 	 	 	 	 	 	 	 	 	 	 	 	 	1581542156	7.83	14.50
12/02/2020 21:15:57	120220	12022020	211557	241.11	12.277893	-56.990105	241.06	-0.750	0.740	0.440	241.03	-0.60	0.90	 	 	 	 	 	 	 	 	 	 	 	 	 	 	 	 	 	 	1581542157	8.16	15.11
12/02/2020 21:15:58	120220	12022020	211558	240.46	12.277878	-56.990145	240.31	-0.600	0.610	1.070	240.31	-0.80	1.50	 	 	 	 	 	 	 	 	 	 	 	 	 	 	 	 	 	 	1581542158	8.77	16.24
12/02/2020 21:15:59	120220	12022020	211559	239.51	12.277863	-56.990185	239.32	-0.270	0.060	1.470	239.32	-1.30	1.90	 	 	 	 	 	 	 	 	 	 	 	 	 	 	 	 	 	 	1581542159	9.22	17.08
12/02/2020 21:16:00	120220	12022020	211600	238.44	12.277847	-56.990225	238.44	0.010	-0.340	1.410	238.44	-1.70	1.80	 	 	 	 	 	 	 	 	 	 	 	 	 	 	 	 	 	 	1581542160	9.00	16.67
12/02/2020 21:16:01	120220	12022020	211601	237.87	12.277828	-56.990260	237.76	0.130	-0.350	1.030	237.74	-1.70	1.40	 	 	 	 	 	 	 	 	 	 	 	 	 	 	 	 	 	 	1581542161	8.40	15.56
12/02/2020 21:16:02	120220	12022020	211602	237.14	12.277812	-56.990293	237.14	0.110	-0.230	0.610	237.14	-1.60	1.00	1014.70	26.50	30.20	20.10	20.80	57.0	67.0	57.0	395.0	27.0	198.00	5.60	72.00	10.00	5602	11534.0	27.4	27.4	1581542162	8.01	14.83
12/02/2020 21:16:03	120220	12022020	211603	236.49	12.277793	-56.990327	236.47	0.070	-0.220	0.350	236.49	-1.60	0.80	 	 	 	 	 	 	 	 	 	 	 	 	 	 	 	 	 	 	1581542163	7.98	14.78
12/02/2020 21:16:04	120220	12022020	211604	235.70	12.277777	-56.990360	235.66	0.060	-0.330	0.340	235.70	-1.70	0.80	 	 	 	 	 	 	 	 	 	 	 	 	 	 	 	 	 	 	1581542164	8.15	15.09
12/02/2020 21:16:05	120220	12022020	211605	235.01	12.277760	-56.990395	234.83	0.060	-0.430	0.530	234.85	-1.80	1.00	 	 	 	 	 	 	 	 	 	 	 	 	 	 	 	 	 	 	1581542165	8.18	15.15
12/02/2020 21:16:06	120220	12022020	211606	234.09	12.277743	-56.990430	234.08	0.060	-0.340	0.740	234.09	-1.70	1.20	 	 	 	 	 	 	 	 	 	 	 	 	 	 	 	 	 	 	1581542166	7.98	14.78
12/02/2020 21:16:07	120220	12022020	211607	233.53	12.277728	-56.990462	233.37	0.100	-0.140	0.990	233.37	-1.50	1.40	 	 	 	 	 	 	 	 	 	 	 	 	 	 	 	 	 	 	1581542167	7.73	14.32
12/02/2020 21:16:08	120220	12022020	211608	232.69	12.277712	-56.990495	232.47	0.200	-0.020	1.410	232.49	-1.40	1.90	 	 	 	 	 	 	 	 	 	 	 	 	 	 	 	 	 	 	1581542168	7.72	14.30
12/02/2020 21:16:09	120220	12022020	211609	231.60	12.277697	-56.990528	231.30	0.290	-0.000	2.040	231.34	-1.40	2.50	 	 	 	 	 	 	 	 	 	 	 	 	 	 	 	 	 	 	1581542169	7.86	14.56
12/02/2020 21:16:10	120220	12022020	211610	230.20	12.277680	-56.990562	229.85	0.300	0.000	2.690	229.92	-1.40	3.10	 	 	 	 	 	 	 	 	 	 	 	 	 	 	 	 	 	 	1581542170	7.91	14.65
12/02/2020 21:16:11	120220	12022020	211611	228.42	12.277663	-56.990595	228.34	0.220	-0.030	3.050	228.42	-1.40	3.50	 	 	 	 	 	 	 	 	 	 	 	 	 	 	 	 	 	 	1581542171	7.84	14.52
12/02/2020 21:16:12	120220	12022020	211612	226.98	12.277647	-56.990627	226.90	0.160	-0.230	2.920	226.98	-1.60	3.30	 	 	 	 	 	 	 	 	 	 	 	 	 	 	 	 	 	 	1581542172	7.79	14.43
12/02/2020 21:16:13	120220	12022020	211613	226.03	12.277627	-56.990658	225.74	0.170	-0.600	2.330	225.82	-2.00	2.70	 	 	 	 	 	 	 	 	 	 	 	 	 	 	 	 	 	 	1581542173	7.79	14.43
12/02/2020 21:16:14	120220	12022020	211614	225.05	12.277605	-56.990687	224.97	0.160	-0.900	1.610	225.05	-2.30	2.00	 	 	 	 	 	 	 	 	 	 	 	 	 	 	 	 	 	 	1581542174	7.70	14.26
12/02/2020 21:16:15	120220	12022020	211615	224.46	12.277583	-56.990715	224.35	0.060	-0.950	1.030	224.46	-2.30	1.40	 	 	 	 	 	 	 	 	 	 	 	 	 	 	 	 	 	 	1581542175	7.42	13.74
12/02/2020 21:16:16	120220	12022020	211616	223.90	12.277562	-56.990742	223.58	-0.030	-0.870	0.830	223.73	-2.20	1.30	 	 	 	 	 	 	 	 	 	 	 	 	 	 	 	 	 	 	1581542176	7.32	13.56
12/02/2020 21:16:17	120220	12022020	211617	222.89	12.277542	-56.990770	222.50	-0.110	-0.720	1.070	222.65	-2.10	1.50	 	 	 	 	 	 	 	 	 	 	 	 	 	 	 	 	 	 	1581542177	7.47	13.83
12/02/2020 21:16:18	120220	12022020	211618	221.44	12.277522	-56.990800	221.30	-0.260	-0.320	1.470	221.44	-1.60	1.90	 	 	 	 	 	 	 	 	 	 	 	 	 	 	 	 	 	 	1581542178	7.52	13.93
12/02/2020 21:16:19	120220	12022020	211619	220.29	12.277503	-56.990828	220.18	-0.460	0.330	1.910	220.29	-1.00	2.40	 	 	 	 	 	 	 	 	 	 	 	 	 	 	 	 	 	 	1581542179	7.33	13.58
12/02/2020 21:16:20	120220	12022020	211620	219.45	12.277487	-56.990858	219.19	-0.560	0.970	2.410	219.25	-0.40	2.90	 	 	 	 	 	 	 	 	 	 	 	 	 	 	 	 	 	 	1581542180	7.18	13.30
12/02/2020 21:16:21	120220	12022020	211621	218.55	12.277470	-56.990887	218.37	-0.370	1.260	2.640	218.39	-0.10	3.10	 	 	 	 	 	 	 	 	 	 	 	 	 	 	 	 	 	 	1581542181	7.10	13.15
12/02/2020 21:16:22	120220	12022020	211622	217.82	12.277448	-56.990913	217.66	0.090	0.910	2.370	217.68	-0.50	2.80	 	 	 	 	 	 	 	 	 	 	 	 	 	 	 	 	 	 	1581542182	7.09	13.13
12/02/2020 21:16:23	120220	12022020	211623	217.00	12.277425	-56.990938	216.75	0.590	-0.020	1.970	216.82	-1.40	2.40	 	 	 	 	 	 	 	 	 	 	 	 	 	 	 	 	 	 	1581542183	7.29	13.50
12/02/2020 21:16:24	120220	12022020	211624	215.87	12.277400	-56.990962	215.50	0.750	-1.010	1.870	215.60	-2.40	2.30	 	 	 	 	 	 	 	 	 	 	 	 	 	 	 	 	 	 	1581542184	7.37	13.65
12/02/2020 21:16:25	120220	12022020	211625	214.11	12.277377	-56.990987	213.98	0.490	-1.580	2.280	214.11	-2.90	2.70	 	 	 	 	 	 	 	 	 	 	 	 	 	 	 	 	 	 	1581542185	7.16	13.26
12/02/2020 21:16:26	120220	12022020	211626	212.65	12.277358	-56.991012	212.55	0.080	-1.450	2.740	212.65	-2.80	3.20	 	 	 	 	 	 	 	 	 	 	 	 	 	 	 	 	 	 	1581542186	6.85	12.69
12/02/2020 21:16:27	120220	12022020	211627	211.52	12.277342	-56.991037	211.46	-0.170	-0.840	2.760	211.52	-2.20	3.20	 	 	 	 	 	 	 	 	 	 	 	 	 	 	 	 	 	 	1581542187	6.40	11.85
12/02/2020 21:16:28	120220	12022020	211628	210.59	12.277322	-56.991058	210.54	-0.150	-0.270	2.410	210.59	-1.60	2.80	 	 	 	 	 	 	 	 	 	 	 	 	 	 	 	 	 	 	1581542188	6.18	11.45
12/02/2020 21:16:29	120220	12022020	211629	209.65	12.277300	-56.991080	209.61	-0.010	-0.060	1.990	209.65	-1.40	2.40	 	 	 	 	 	 	 	 	 	 	 	 	 	 	 	 	 	 	1581542189	6.45	11.95
12/02/2020 21:16:30	120220	12022020	211630	208.66	12.277275	-56.991100	208.64	-0.000	-0.090	1.700	208.66	-1.40	2.10	 	 	 	 	 	 	 	 	 	 	 	 	 	 	 	 	 	 	1581542190	6.79	12.58
12/02/2020 21:16:31	120220	12022020	211631	207.57	12.277252	-56.991120	207.52	-0.200	-0.080	1.840	207.57	-1.40	2.30	 	 	 	 	 	 	 	 	 	 	 	 	 	 	 	 	 	 	1581542191	6.84	12.67
12/02/2020 21:16:32	120220	12022020	211632	206.27	12.277230	-56.991143	206.23	-0.450	0.120	2.390	206.27	-1.20	2.90	 	 	 	 	 	 	 	 	 	 	 	 	 	 	 	 	 	 	1581542192	6.83	12.65
12/02/2020 21:16:33	120220	12022020	211633	205.37	12.277208	-56.991167	205.21	-0.560	0.560	2.660	205.19	-0.80	3.10	 	 	 	 	 	 	 	 	 	 	 	 	 	 	 	 	 	 	1581542193	6.53	12.09
12/02/2020 21:16:34	120220	12022020	211634	204.61	12.277190	-56.991187	204.50	-0.440	0.870	2.310	204.48	-0.50	2.70	 	 	 	 	 	 	 	 	 	 	 	 	 	 	 	 	 	 	1581542194	5.93	10.98
12/02/2020 21:16:35	120220	12022020	211635	203.92	12.277167	-56.991203	203.71	-0.050	0.420	1.730	203.76	-1.00	2.10	 	 	 	 	 	 	 	 	 	 	 	 	 	 	 	 	 	 	1581542195	5.98	11.07
12/02/2020 21:16:36	120220	12022020	211636	202.95	12.277142	-56.991222	202.63	0.410	-0.630	1.410	202.73	-2.00	1.90	 	 	 	 	 	 	 	 	 	 	 	 	 	 	 	 	 	 	1581542196	6.62	12.26
12/02/2020 21:16:37	120220	12022020	211637	201.77	12.277117	-56.991238	201.41	0.590	-1.270	1.570	201.52	-2.60	2.00	 	 	 	 	 	 	 	 	 	 	 	 	 	 	 	 	 	 	1581542197	6.58	12.19
12/02/2020 21:16:38	120220	12022020	211638	200.28	12.277095	-56.991257	200.17	0.400	-1.060	2.030	200.28	-2.40	2.50	 	 	 	 	 	 	 	 	 	 	 	 	 	 	 	 	 	 	1581542198	5.90	10.93
12/02/2020 21:16:39	120220	12022020	211639	199.26	12.277077	-56.991275	198.92	0.130	-0.470	2.590	199.00	-1.80	3.00	 	 	 	 	 	 	 	 	 	 	 	 	 	 	 	 	 	 	1581542199	5.54	10.26
12/02/2020 21:16:40	120220	12022020	211640	197.82	12.277058	-56.991293	197.76	0.080	-0.100	2.850	197.82	-1.40	3.30	 	 	 	 	 	 	 	 	 	 	 	 	 	 	 	 	 	 	1581542200	5.60	10.37
12/02/2020 21:16:41	120220	12022020	211641	196.96	12.277035	-56.991308	196.70	0.170	-0.160	2.700	196.75	-1.50	3.10	 	 	 	 	 	 	 	 	 	 	 	 	 	 	 	 	 	 	1581542201	5.89	10.91
12/02/2020 21:16:42	120220	12022020	211642	195.68	12.277010	-56.991322	195.67	0.080	-0.270	2.440	195.68	-1.60	2.90	 	 	 	 	 	 	 	 	 	 	 	 	 	 	 	 	 	 	1581542202	6.08	11.26
12/02/2020 21:16:43	120220	12022020	211643	194.64	12.276987	-56.991335	194.63	-0.360	-0.060	2.290	194.64	-1.40	2.70	 	 	 	 	 	 	 	 	 	 	 	 	 	 	 	 	 	 	1581542203	5.81	10.76
12/02/2020 21:16:44	120220	12022020	211644	193.88	12.276967	-56.991352	193.72	-0.860	0.420	2.260	193.71	-0.90	2.70	 	 	 	 	 	 	 	 	 	 	 	 	 	 	 	 	 	 	1581542204	5.52	10.22
12/02/2020 21:16:45	120220	12022020	211645	193.11	12.276948	-56.991370	192.97	-0.960	0.660	2.170	192.97	-0.70	2.60	 	 	 	 	 	 	 	 	 	 	 	 	 	 	 	 	 	 	1581542205	5.50	10.19
12/02/2020 21:16:46	120220	12022020	211646	192.45	12.276927	-56.991385	192.28	-0.460	0.350	1.750	192.32	-1.00	2.20	 	 	 	 	 	 	 	 	 	 	 	 	 	 	 	 	 	 	1581542206	5.55	10.28
12/02/2020 21:16:47	120220	12022020	211647	191.73	12.276903	-56.991397	191.50	0.330	-0.430	1.190	191.58	-1.80	1.60	 	 	 	 	 	 	 	 	 	 	 	 	 	 	 	 	 	 	1581542207	5.71	10.57
12/02/2020 21:16:48	120220	12022020	211648	190.78	12.276878	-56.991405	190.41	0.860	-1.180	0.900	190.55	-2.50	1.30	 	 	 	 	 	 	 	 	 	 	 	 	 	 	 	 	 	 	1581542208	5.77	10.69
12/02/2020 21:16:49	120220	12022020	211649	189.48	12.276853	-56.991413	189.03	0.870	-1.350	1.100	189.19	-2.70	1.60	 	 	 	 	 	 	 	 	 	 	 	 	 	 	 	 	 	 	1581542209	5.47	10.13
12/02/2020 21:16:50	120220	12022020	211650	188.08	12.276833	-56.991425	187.66	0.430	-0.820	1.640	187.80	-2.10	2.10	 	 	 	 	 	 	 	 	 	 	 	 	 	 	 	 	 	 	1581542210	5.01	9.28
12/02/2020 21:16:51	120220	12022020	211651	186.82	12.276813	-56.991437	186.48	-0.190	0.050	2.220	186.59	-1.20	2.70	 	 	 	 	 	 	 	 	 	 	 	 	 	 	 	 	 	 	1581542211	4.80	8.89
12/02/2020 21:16:52	120220	12022020	211652	185.77	12.276795	-56.991450	185.47	-0.670	0.700	2.680	185.58	-0.60	3.10	 	 	 	 	 	 	 	 	 	 	 	 	 	 	 	 	 	 	1581542212	4.99	9.24
12/02/2020 21:16:53	120220	12022020	211653	184.84	12.276775	-56.991465	184.57	-0.860	0.860	2.990	184.66	-0.50	3.40	 	 	 	 	 	 	 	 	 	 	 	 	 	 	 	 	 	 	1581542213	5.38	9.96
12/02/2020 21:16:54	120220	12022020	211654	183.91	12.276753	-56.991480	183.81	-0.780	0.610	3.070	183.91	-0.70	3.50	 	 	 	 	 	 	 	 	 	 	 	 	 	 	 	 	 	 	1581542214	5.55	10.28
12/02/2020 21:16:55	120220	12022020	211655	183.29	12.276732	-56.991493	182.98	-0.420	0.020	3.010	183.10	-1.30	3.40	 	 	 	 	 	 	 	 	 	 	 	 	 	 	 	 	 	 	1581542215	5.57	10.32
12/02/2020 21:16:56	120220	12022020	211656	182.09	12.276707	-56.991503	182.00	0.150	-0.680	2.790	182.09	-2.00	3.20	 	 	 	 	 	 	 	 	 	 	 	 	 	 	 	 	 	 	1581542216	5.52	10.22
12/02/2020 21:16:57	120220	12022020	211657	181.34	12.276685	-56.991510	181.08	0.680	-1.030	2.090	181.17	-2.30	2.50	 	 	 	 	 	 	 	 	 	 	 	 	 	 	 	 	 	 	1581542217	5.08	9.41
12/02/2020 21:16:58	120220	12022020	211658	180.53	12.276665	-56.991513	180.24	0.940	-0.840	1.110	180.36	-2.10	1.50	 	 	 	 	 	 	 	 	 	 	 	 	 	 	 	 	 	 	1581542218	4.34	8.04
12/02/2020 21:16:59	120220	12022020	211659	179.64	12.276647	-56.991512	179.30	0.870	-0.450	0.370	179.44	-1.80	0.80	 	 	 	 	 	 	 	 	 	 	 	 	 	 	 	 	 	 	1581542219	4.00	7.41
12/02/2020 21:17:00	120220	12022020	211700	178.54	12.276627	-56.991513	178.16	0.480	-0.150	0.210	178.32	-1.50	0.70	 	 	 	 	 	 	 	 	 	 	 	 	 	 	 	 	 	 	1581542220	4.11	7.61
12/02/2020 21:17:01	120220	12022020	211701	177.37	12.276607	-56.991517	177.02	-0.170	0.140	0.660	177.16	-1.20	1.10	 	 	 	 	 	 	 	 	 	 	 	 	 	 	 	 	 	 	1581542221	4.32	8.00
12/02/2020 21:17:02	120220	12022020	211702	176.10	12.276588	-56.991528	176.02	-0.860	0.410	1.610	176.10	-0.90	2.10	1014.70	26.50	28.50	20.10	20.10	60.0	67.0	60.0	396.0	26.9	244.00	8.00	73.00	10.30	5412	9988.0	27.4	27.4	1581542222	4.78	8.85
12/02/2020 21:17:03	120220	12022020	211703	175.23	12.276568	-56.991545	175.19	-1.220	0.460	2.760	175.23	-0.90	3.20	 	 	 	 	 	 	 	 	 	 	 	 	 	 	 	 	 	 	1581542223	5.50	10.19
12/02/2020 21:17:04	120220	12022020	211704	174.34	12.276547	-56.991562	174.32	-0.920	0.060	3.660	174.34	-1.30	4.10	 	 	 	 	 	 	 	 	 	 	 	 	 	 	 	 	 	 	1581542224	5.91	10.95
12/02/2020 21:17:05	120220	12022020	211705	173.52	12.276523	-56.991575	173.27	-0.070	-0.660	4.010	173.29	-2.00	4.40	 	 	 	 	 	 	 	 	 	 	 	 	 	 	 	 	 	 	1581542225	5.80	10.74
12/02/2020 21:17:06	120220	12022020	211706	172.14	12.276500	-56.991582	172.12	0.800	-1.100	3.620	172.14	-2.40	4.00	 	 	 	 	 	 	 	 	 	 	 	 	 	 	 	 	 	 	1581542226	5.12	9.48
12/02/2020 21:17:07	120220	12022020	211707	171.32	12.276480	-56.991580	171.09	1.090	-0.800	2.490	171.14	-2.10	2.80	 	 	 	 	 	 	 	 	 	 	 	 	 	 	 	 	 	 	1581542227	4.09	7.57
12/02/2020 21:17:08	120220	12022020	211708	170.47	12.276467	-56.991575	170.41	0.680	-0.030	1.050	170.47	-1.30	1.40	 	 	 	 	 	 	 	 	 	 	 	 	 	 	 	 	 	 	1581542228	3.31	6.13
12/02/2020 21:17:09	120220	12022020	211709	170.01	12.276452	-56.991570	169.79	-0.030	0.420	-0.010	169.87	-0.90	0.40	 	 	 	 	 	 	 	 	 	 	 	 	 	 	 	 	 	 	1581542229	3.18	5.89
12/02/2020 21:17:10	120220	12022020	211710	169.20	12.276433	-56.991570	168.91	-0.530	0.190	-0.340	169.00	-1.10	0.10	 	 	 	 	 	 	 	 	 	 	 	 	 	 	 	 	 	 	1581542230	3.89	7.20
12/02/2020 21:17:11	120220	12022020	211711	168.16	12.276412	-56.991573	167.84	-0.680	-0.290	-0.050	167.94	-1.60	0.40	 	 	 	 	 	 	 	 	 	 	 	 	 	 	 	 	 	 	1581542231	4.71	8.72
12/02/2020 21:17:12	120220	12022020	211712	167.11	12.276392	-56.991583	166.87	-0.610	-0.330	0.670	166.93	-1.60	1.10	 	 	 	 	 	 	 	 	 	 	 	 	 	 	 	 	 	 	1581542232	4.92	9.11
12/02/2020 21:17:13	120220	12022020	211713	166.17	12.276373	-56.991593	165.96	-0.370	0.090	1.530	166.00	-1.20	2.00	 	 	 	 	 	 	 	 	 	 	 	 	 	 	 	 	 	 	1581542233	4.60	8.52
12/02/2020 21:17:14	120220	12022020	211714	165.18	12.276355	-56.991602	164.94	0.120	0.280	2.210	164.96	-1.00	2.60	 	 	 	 	 	 	 	 	 	 	 	 	 	 	 	 	 	 	1581542234	4.11	7.61
12/02/2020 21:17:15	120220	12022020	211715	163.87	12.276337	-56.991605	163.85	0.740	-0.220	2.470	163.87	-1.50	2.90	 	 	 	 	 	 	 	 	 	 	 	 	 	 	 	 	 	 	1581542235	4.18	7.74
12/02/2020 21:17:16	120220	12022020	211716	163.12	12.276317	-56.991603	162.93	1.070	-0.860	2.370	162.95	-2.20	2.80	 	 	 	 	 	 	 	 	 	 	 	 	 	 	 	 	 	 	1581542236	4.39	8.13
12/02/2020 21:17:17	120220	12022020	211717	162.39	12.276298	-56.991602	162.27	0.760	-0.870	2.240	162.26	-2.20	2.70	 	 	 	 	 	 	 	 	 	 	 	 	 	 	 	 	 	 	1581542237	3.93	7.28
12/02/2020 21:17:18	120220	12022020	211718	161.85	12.276283	-56.991603	161.77	-0.080	-0.250	2.220	161.76	-1.50	2.60	 	 	 	 	 	 	 	 	 	 	 	 	 	 	 	 	 	 	1581542238	3.21	5.94
12/02/2020 21:17:19	120220	12022020	211719	161.23	12.276268	-56.991608	161.24	-0.940	0.350	2.440	161.23	-0.90	2.90	 	 	 	 	 	 	 	 	 	 	 	 	 	 	 	 	 	 	1581542239	3.34	6.19
12/02/2020 21:17:20	120220	12022020	211720	160.59	12.276252	-56.991618	160.39	-1.280	0.380	2.990	160.40	-0.90	3.40	 	 	 	 	 	 	 	 	 	 	 	 	 	 	 	 	 	 	1581542240	4.20	7.78
12/02/2020 21:17:21	120220	12022020	211721	159.30	12.276230	-56.991625	159.28	-0.860	-0.170	3.460	159.30	-1.50	3.90	 	 	 	 	 	 	 	 	 	 	 	 	 	 	 	 	 	 	1581542241	4.83	8.95
12/02/2020 21:17:22	120220	12022020	211722	158.40	12.276208	-56.991628	158.16	0.040	-0.790	3.350	158.18	-2.10	3.70	 	 	 	 	 	 	 	 	 	 	 	 	 	 	 	 	 	 	1581542242	4.65	8.61
12/02/2020 21:17:23	120220	12022020	211723	157.40	12.276190	-56.991623	157.16	0.880	-1.040	2.550	157.21	-2.30	2.90	 	 	 	 	 	 	 	 	 	 	 	 	 	 	 	 	 	 	1581542243	4.01	7.43
12/02/2020 21:17:24	120220	12022020	211724	156.50	12.276177	-56.991617	156.27	1.210	-0.660	1.430	156.33	-1.90	1.80	 	 	 	 	 	 	 	 	 	 	 	 	 	 	 	 	 	 	1581542244	3.44	6.37
12/02/2020 21:17:25	120220	12022020	211725	155.74	12.276165	-56.991608	155.61	0.900	0.260	0.450	155.63	-1.00	0.80	 	 	 	 	 	 	 	 	 	 	 	 	 	 	 	 	 	 	1581542245	2.76	5.11
12/02/2020 21:17:26	120220	12022020	211726	155.39	12.276157	-56.991605	155.40	0.170	1.270	-0.300	155.37	0.00	0.10	 	 	 	 	 	 	 	 	 	 	 	 	 	 	 	 	 	 	1581542246	2.08	3.85
12/02/2020 21:17:27	120220	12022020	211727	155.34	12.276147	-56.991605	155.35	-0.540	1.630	-0.700	155.31	0.30	-0.30	 	 	 	 	 	 	 	 	 	 	 	 	 	 	 	 	 	 	1581542247	2.20	4.07
12/02/2020 21:17:28	120220	12022020	211728	155.04	12.276132	-56.991607	154.90	-0.840	0.790	-0.270	154.91	-0.60	0.20	 	 	 	 	 	 	 	 	 	 	 	 	 	 	 	 	 	 	1581542248	3.35	6.20
12/02/2020 21:17:29	120220	12022020	211729	154.10	12.276108	-56.991613	153.78	-0.590	-1.000	1.310	153.82	-2.40	1.80	 	 	 	 	 	 	 	 	 	 	 	 	 	 	 	 	 	 	1581542249	5.05	9.35
12/02/2020 21:17:30	120220	12022020	211730	152.52	12.276082	-56.991620	152.11	0.040	-2.660	3.410	152.16	-4.00	3.90	 	 	 	 	 	 	 	 	 	 	 	 	 	 	 	 	 	 	1581542250	6.07	11.24
12/02/2020 21:17:31	120220	12022020	211731	150.74	12.276057	-56.991628	150.40	0.590	-2.980	5.100	150.41	-4.20	5.50	 	 	 	 	 	 	 	 	 	 	 	 	 	 	 	 	 	 	1581542251	5.53	10.24
12/02/2020 21:17:32	120220	12022020	211732	149.40	12.276040	-56.991632	149.29	0.700	-1.580	5.620	149.23	-2.80	6.00	 	 	 	 	 	 	 	 	 	 	 	 	 	 	 	 	 	 	1581542252	3.79	7.02
12/02/2020 21:17:33	120220	12022020	211733	148.90	12.276032	-56.991633	148.99	0.400	0.660	4.630	148.88	-0.50	4.90	 	 	 	 	 	 	 	 	 	 	 	 	 	 	 	 	 	 	1581542253	1.69	3.13
12/02/2020 21:17:34	120220	12022020	211734	148.90	12.276028	-56.991628	148.98	-0.030	2.120	2.550	148.92	0.90	2.80	 	 	 	 	 	 	 	 	 	 	 	 	 	 	 	 	 	 	1581542254	1.40	2.59
12/02/2020 21:17:35	120220	12022020	211735	148.83	12.276022	-56.991615	148.74	-0.290	1.890	0.270	148.77	0.50	0.60	 	 	 	 	 	 	 	 	 	 	 	 	 	 	 	 	 	 	1581542255	2.89	5.35
12/02/2020 21:17:36	120220	12022020	211736	148.29	12.276010	-56.991602	147.98	-0.310	0.370	-1.120	148.11	-1.00	-0.70	 	 	 	 	 	 	 	 	 	 	 	 	 	 	 	 	 	 	1581542256	3.91	7.24
12/02/2020 21:17:37	120220	12022020	211737	147.22	12.275992	-56.991593	146.84	-0.190	-1.180	-1.270	147.00	-2.50	-0.80	 	 	 	 	 	 	 	 	 	 	 	 	 	 	 	 	 	 	1581542257	4.25	7.87
12/02/2020 21:17:38	120220	12022020	211738	146.09	12.275973	-56.991592	145.78	-0.170	-1.590	-0.700	145.90	-2.90	-0.30	 	 	 	 	 	 	 	 	 	 	 	 	 	 	 	 	 	 	1581542258	3.87	7.17
12/02/2020 21:17:39	120220	12022020	211739	145.24	12.275958	-56.991597	145.03	-0.270	-0.820	0.050	145.11	-2.10	0.50	 	 	 	 	 	 	 	 	 	 	 	 	 	 	 	 	 	 	1581542259	3.34	6.19
12/02/2020 21:17:40	120220	12022020	211740	144.67	12.275945	-56.991603	144.51	-0.280	0.180	0.720	144.57	-1.10	1.10	 	 	 	 	 	 	 	 	 	 	 	 	 	 	 	 	 	 	1581542260	3.13	5.80
12/02/2020 21:17:41	120220	12022020	211741	144.13	12.275932	-56.991608	143.94	-0.010	0.520	1.370	144.00	-0.80	1.80	 	 	 	 	 	 	 	 	 	 	 	 	 	 	 	 	 	 	1581542261	3.17	5.87
12/02/2020 21:17:42	120220	12022020	211742	143.46	12.275917	-56.991608	143.26	0.450	0.200	1.800	143.33	-1.10	2.20	 	 	 	 	 	 	 	 	 	 	 	 	 	 	 	 	 	 	1581542262	3.34	6.19
12/02/2020 21:17:43	120220	12022020	211743	142.89	12.275902	-56.991605	142.73	0.710	-0.240	1.880	142.79	-1.50	2.30	 	 	 	 	 	 	 	 	 	 	 	 	 	 	 	 	 	 	1581542263	3.11	5.76
12/02/2020 21:17:44	120220	12022020	211744	142.36	12.275890	-56.991602	142.15	0.600	-0.600	2.020	142.24	-1.90	2.40	 	 	 	 	 	 	 	 	 	 	 	 	 	 	 	 	 	 	1581542264	2.84	5.26
12/02/2020 21:17:45	120220	12022020	211745	141.63	12.275877	-56.991597	141.34	0.290	-0.960	2.490	141.45	-2.30	2.90	 	 	 	 	 	 	 	 	 	 	 	 	 	 	 	 	 	 	1581542265	2.93	5.43
12/02/2020 21:17:46	120220	12022020	211746	140.66	12.275862	-56.991595	140.35	-0.020	-1.200	3.080	140.45	-2.50	3.50	 	 	 	 	 	 	 	 	 	 	 	 	 	 	 	 	 	 	1581542266	3.34	6.19
12/02/2020 21:17:47	120220	12022020	211747	139.63	12.275845	-56.991593	139.35	-0.270	-0.960	3.490	139.43	-2.20	3.90	 	 	 	 	 	 	 	 	 	 	 	 	 	 	 	 	 	 	1581542267	3.47	6.43
12/02/2020 21:17:48	120220	12022020	211748	138.70	12.275830	-56.991593	138.48	-0.440	-0.150	3.640	138.54	-1.40	4.00	 	 	 	 	 	 	 	 	 	 	 	 	 	 	 	 	 	 	1581542268	3.21	5.94
12/02/2020 21:17:49	120220	12022020	211749	138.00	12.275818	-56.991595	137.84	-0.490	0.850	3.290	137.90	-0.40	3.60	 	 	 	 	 	 	 	 	 	 	 	 	 	 	 	 	 	 	1581542269	2.68	4.96
12/02/2020 21:17:50	120220	12022020	211750	137.64	12.275808	-56.991592	137.57	-0.390	1.440	2.080	137.62	0.20	2.40	 	 	 	 	 	 	 	 	 	 	 	 	 	 	 	 	 	 	1581542270	2.03	3.76
12/02/2020 21:17:51	120220	12022020	211751	137.59	12.275803	-56.991585	137.50	-0.220	1.310	0.350	137.58	-0.00	0.70	 	 	 	 	 	 	 	 	 	 	 	 	 	 	 	 	 	 	1581542271	2.07	3.83
12/02/2020 21:17:52	120220	12022020	211752	137.46	12.275797	-56.991575	137.25	0.070	0.450	-1.040	137.39	-0.90	-0.70	 	 	 	 	 	 	 	 	 	 	 	 	 	 	 	 	 	 	1581542272	2.53	4.69
12/02/2020 21:17:53	120220	12022020	211753	136.92	12.275787	-56.991565	136.56	0.490	-0.770	-1.560	136.75	-2.10	-1.10	 	 	 	 	 	 	 	 	 	 	 	 	 	 	 	 	 	 	1581542273	2.87	5.32
12/02/2020 21:17:54	120220	12022020	211754	135.98	12.275775	-56.991557	135.61	0.860	-1.730	-1.350	135.78	-3.00	-0.90	 	 	 	 	 	 	 	 	 	 	 	 	 	 	 	 	 	 	1581542274	2.99	5.54
12/02/2020 21:17:55	120220	12022020	211755	135.01	12.275763	-56.991553	134.68	0.820	-1.800	-0.680	134.83	-3.10	-0.20	 	 	 	 	 	 	 	 	 	 	 	 	 	 	 	 	 	 	1581542275	2.69	4.98
12/02/2020 21:17:56	120220	12022020	211756	134.17	12.275750	-56.991555	133.90	0.280	-1.010	0.520	134.02	-2.30	1.00	 	 	 	 	 	 	 	 	 	 	 	 	 	 	 	 	 	 	1581542276	2.71	5.02
12/02/2020 21:17:57	120220	12022020	211757	133.43	12.275735	-56.991560	133.20	-0.380	-0.060	2.110	133.28	-1.30	2.60	 	 	 	 	 	 	 	 	 	 	 	 	 	 	 	 	 	 	1581542277	3.45	6.39
12/02/2020 21:17:58	120220	12022020	211758	132.67	12.275718	-56.991565	132.48	-0.680	0.390	3.570	132.52	-0.90	4.00	 	 	 	 	 	 	 	 	 	 	 	 	 	 	 	 	 	 	1581542278	3.98	7.37
12/02/2020 21:17:59	120220	12022020	211759	131.94	12.275700	-56.991567	131.78	-0.440	0.250	4.320	131.79	-1.10	4.70	 	 	 	 	 	 	 	 	 	 	 	 	 	 	 	 	 	 	1581542279	3.87	7.17
12/02/2020 21:18:00	120220	12022020	211800	131.30	12.275685	-56.991562	131.20	0.040	0.020	4.220	131.19	-1.30	4.60	 	 	 	 	 	 	 	 	 	 	 	 	 	 	 	 	 	 	1581542280	3.30	6.11
12/02/2020 21:18:01	120220	12022020	211801	130.87	12.275677	-56.991553	130.81	0.290	0.110	3.380	130.80	-1.20	3.70	 	 	 	 	 	 	 	 	 	 	 	 	 	 	 	 	 	 	1581542281	2.43	4.50
12/02/2020 21:18:02	120220	12022020	211802	130.53	12.275672	-56.991547	130.44	0.130	0.420	2.220	130.46	-0.90	2.60	1014.60	26.50	26.80	20.40	20.30	58.0	69.0	67.0	395.0	26.8	290.00	10.20	70.00	10.00	5175	16956.0	27.4	27.4	1581542282	1.80	3.33
12/02/2020 21:18:03	120220	12022020	211803	130.11	12.275668	-56.991540	129.94	-0.220	0.470	1.040	130.01	-0.80	1.40	 	 	 	 	 	 	 	 	 	 	 	 	 	 	 	 	 	 	1581542283	1.62	3.00
12/02/2020 21:18:04	120220	12022020	211804	129.53	12.275662	-56.991533	129.31	-0.340	-0.030	0.110	129.39	-1.30	0.50	 	 	 	 	 	 	 	 	 	 	 	 	 	 	 	 	 	 	1581542284	2.05	3.80
12/02/2020 21:18:05	120220	12022020	211805	128.83	12.275652	-56.991525	128.58	-0.170	-0.740	-0.350	128.68	-2.00	0.00	 	 	 	 	 	 	 	 	 	 	 	 	 	 	 	 	 	 	1581542285	2.58	4.78
12/02/2020 21:18:06	120220	12022020	211806	128.14	12.275642	-56.991520	127.91	0.040	-1.070	-0.350	128.00	-2.30	0.00	 	 	 	 	 	 	 	 	 	 	 	 	 	 	 	 	 	 	1581542286	2.59	4.80
12/02/2020 21:18:07	120220	12022020	211807	127.45	12.275630	-56.991518	127.19	0.120	-0.790	-0.130	127.30	-2.10	0.30	 	 	 	 	 	 	 	 	 	 	 	 	 	 	 	 	 	 	1581542287	2.31	4.28
12/02/2020 21:18:08	120220	12022020	211808	126.66	12.275622	-56.991517	126.36	0.160	-0.300	0.230	126.48	-1.60	0.60	 	 	 	 	 	 	 	 	 	 	 	 	 	 	 	 	 	 	1581542288	2.14	3.96
12/02/2020 21:18:09	120220	12022020	211809	125.77	12.275612	-56.991515	125.49	0.330	-0.080	0.610	125.60	-1.40	1.00	 	 	 	 	 	 	 	 	 	 	 	 	 	 	 	 	 	 	1581542289	2.19	4.06
12/02/2020 21:18:10	120220	12022020	211810	125.06	12.275602	-56.991508	124.89	0.510	-0.140	0.840	124.96	-1.40	1.20	 	 	 	 	 	 	 	 	 	 	 	 	 	 	 	 	 	 	1581542290	2.32	4.30
12/02/2020 21:18:11	120220	12022020	211811	124.66	12.275593	-56.991503	124.57	0.370	-0.140	1.120	124.60	-1.40	1.50	 	 	 	 	 	 	 	 	 	 	 	 	 	 	 	 	 	 	1581542291	2.32	4.30
12/02/2020 21:18:12	120220	12022020	211812	124.37	12.275583	-56.991500	124.28	-0.120	0.090	1.630	124.31	-1.20	2.00	 	 	 	 	 	 	 	 	 	 	 	 	 	 	 	 	 	 	1581542292	2.30	4.26
12/02/2020 21:18:13	120220	12022020	211813	123.94	12.275570	-56.991498	123.77	-0.610	0.310	2.240	123.82	-1.00	2.60	 	 	 	 	 	 	 	 	 	 	 	 	 	 	 	 	 	 	1581542293	2.60	4.82
12/02/2020 21:18:14	120220	12022020	211814	123.16	12.275557	-56.991498	122.88	-0.720	0.210	2.890	122.97	-1.10	3.30	 	 	 	 	 	 	 	 	 	 	 	 	 	 	 	 	 	 	1581542294	2.89	5.35
12/02/2020 21:18:15	120220	12022020	211815	122.21	12.275543	-56.991497	121.98	-0.470	-0.100	3.370	122.05	-1.40	3.70	 	 	 	 	 	 	 	 	 	 	 	 	 	 	 	 	 	 	1581542295	3.01	5.57
12/02/2020 21:18:16	120220	12022020	211816	121.55	12.275532	-56.991492	121.44	-0.080	-0.340	3.240	121.47	-1.60	3.60	 	 	 	 	 	 	 	 	 	 	 	 	 	 	 	 	 	 	1581542296	2.60	4.82
12/02/2020 21:18:17	120220	12022020	211817	121.24	12.275525	-56.991487	121.14	0.290	-0.410	2.310	121.19	-1.70	2.60	 	 	 	 	 	 	 	 	 	 	 	 	 	 	 	 	 	 	1581542297	1.80	3.33
12/02/2020 21:18:18	120220	12022020	211818	120.97	12.275525	-56.991478	120.77	0.580	-0.520	0.950	120.88	-1.80	1.30	 	 	 	 	 	 	 	 	 	 	 	 	 	 	 	 	 	 	1581542298	1.79	3.32
12/02/2020 21:18:19	120220	12022020	211819	120.43	12.275523	-56.991468	120.14	0.660	-0.730	-0.110	120.29	-2.00	0.20	 	 	 	 	 	 	 	 	 	 	 	 	 	 	 	 	 	 	1581542299	2.12	3.93
12/02/2020 21:18:20	120220	12022020	211820	119.65	12.275518	-56.991460	119.33	0.390	-0.680	-0.410	119.48	-1.90	-0.00	 	 	 	 	 	 	 	 	 	 	 	 	 	 	 	 	 	 	1581542300	1.93	3.57
12/02/2020 21:18:21	120220	12022020	211821	118.82	12.275512	-56.991457	118.54	-0.170	-0.110	-0.020	118.66	-1.40	0.40	 	 	 	 	 	 	 	 	 	 	 	 	 	 	 	 	 	 	1581542301	1.76	3.26
12/02/2020 21:18:22	120220	12022020	211822	118.16	12.275502	-56.991458	117.97	-0.640	0.600	0.530	118.05	-0.70	0.90	 	 	 	 	 	 	 	 	 	 	 	 	 	 	 	 	 	 	1581542302	2.10	3.89
12/02/2020 21:18:23	120220	12022020	211823	117.72	12.275492	-56.991457	117.57	-0.610	0.660	0.930	117.65	-0.70	1.30	 	 	 	 	 	 	 	 	 	 	 	 	 	 	 	 	 	 	1581542303	2.26	4.19
12/02/2020 21:18:24	120220	12022020	211824	117.25	12.275480	-56.991452	117.04	-0.100	-0.150	1.470	117.12	-1.50	1.90	 	 	 	 	 	 	 	 	 	 	 	 	 	 	 	 	 	 	1581542304	2.77	5.13
12/02/2020 21:18:25	120220	12022020	211825	116.57	12.275467	-56.991443	116.36	0.340	-0.910	2.070	116.43	-2.20	2.40	 	 	 	 	 	 	 	 	 	 	 	 	 	 	 	 	 	 	1581542305	3.09	5.72
12/02/2020 21:18:26	120220	12022020	211826	115.96	12.275458	-56.991440	115.83	0.250	-0.730	2.370	115.86	-2.00	2.70	 	 	 	 	 	 	 	 	 	 	 	 	 	 	 	 	 	 	1581542306	2.27	4.20
12/02/2020 21:18:27	120220	12022020	211827	115.57	12.275452	-56.991438	115.54	-0.170	0.070	2.360	115.52	-1.20	2.70	 	 	 	 	 	 	 	 	 	 	 	 	 	 	 	 	 	 	1581542307	1.39	2.57
12/02/2020 21:18:28	120220	12022020	211828	115.34	12.275447	-56.991438	115.33	-0.400	0.590	2.210	115.30	-0.70	2.60	 	 	 	 	 	 	 	 	 	 	 	 	 	 	 	 	 	 	1581542308	1.17	2.17
12/02/2020 21:18:29	120220	12022020	211829	115.05	12.275440	-56.991435	114.98	-0.160	0.220	2.000	114.96	-1.10	2.40	 	 	 	 	 	 	 	 	 	 	 	 	 	 	 	 	 	 	1581542309	1.60	2.96
12/02/2020 21:18:30	120220	12022020	211830	114.49	12.275432	-56.991427	114.31	0.290	-0.720	1.730	114.34	-2.00	2.10	 	 	 	 	 	 	 	 	 	 	 	 	 	 	 	 	 	 	1581542310	2.38	4.41
12/02/2020 21:18:31	120220	12022020	211831	113.63	12.275425	-56.991417	113.38	0.490	-1.270	1.550	113.43	-2.50	1.90	 	 	 	 	 	 	 	 	 	 	 	 	 	 	 	 	 	 	1581542311	2.51	4.65
12/02/2020 21:18:32	120220	12022020	211832	112.74	12.275417	-56.991412	112.55	0.290	-0.840	1.510	112.58	-2.10	1.90	 	 	 	 	 	 	 	 	 	 	 	 	 	 	 	 	 	 	1581542312	1.92	3.56
12/02/2020 21:18:33	120220	12022020	211833	112.11	12.275412	-56.991412	111.99	-0.010	0.270	1.260	112.01	-1.00	1.60	 	 	 	 	 	 	 	 	 	 	 	 	 	 	 	 	 	 	1581542313	1.13	2.09
12/02/2020 21:18:34	120220	12022020	211834	111.67	12.275410	-56.991412	111.56	-0.120	1.060	0.670	111.58	-0.20	1.00	 	 	 	 	 	 	 	 	 	 	 	 	 	 	 	 	 	 	1581542314	0.36	0.67
12/02/2020 21:18:35	120220	12022020	211835	111.27	12.275410	-56.991405	111.15	-0.090	0.820	-0.080	111.20	-0.50	0.30	 	 	 	 	 	 	 	 	 	 	 	 	 	 	 	 	 	 	1581542315	1.14	2.11
12/02/2020 21:18:36	120220	12022020	211836	110.96	12.275408	-56.991397	110.86	-0.080	-0.120	-0.650	110.91	-1.50	-0.30	 	 	 	 	 	 	 	 	 	 	 	 	 	 	 	 	 	 	1581542316	1.96	3.63
12/02/2020 21:18:37	120220	12022020	211837	110.70	12.275402	-56.991388	110.59	-0.160	-1.000	-0.580	110.64	-2.30	-0.20	 	 	 	 	 	 	 	 	 	 	 	 	 	 	 	 	 	 	1581542317	2.27	4.20
12/02/2020 21:18:38	120220	12022020	211838	110.33	12.275390	-56.991383	110.20	-0.190	-1.310	0.220	110.24	-2.60	0.70	 	 	 	 	 	 	 	 	 	 	 	 	 	 	 	 	 	 	1581542318	2.70	5.00
12/02/2020 21:18:39	120220	12022020	211839	109.82	12.275375	-56.991382	109.68	-0.060	-1.070	1.320	109.70	-2.30	1.70	 	 	 	 	 	 	 	 	 	 	 	 	 	 	 	 	 	 	1581542319	3.02	5.59
12/02/2020 21:18:40	120220	12022020	211840	109.16	12.275363	-56.991382	108.98	0.150	-0.460	2.260	109.02	-1.70	2.70	 	 	 	 	 	 	 	 	 	 	 	 	 	 	 	 	 	 	1581542320	2.74	5.07
12/02/2020 21:18:41	120220	12022020	211841	108.39	12.275353	-56.991380	108.18	0.260	0.250	2.740	108.23	-1.00	3.10	 	 	 	 	 	 	 	 	 	 	 	 	 	 	 	 	 	 	1581542321	2.04	3.78
12/02/2020 21:18:42	120220	12022020	211842	107.63	12.275348	-56.991377	107.48	0.130	0.900	2.610	107.51	-0.40	2.90	 	 	 	 	 	 	 	 	 	 	 	 	 	 	 	 	 	 	1581542322	1.20	2.22
12/02/2020 21:18:43	120220	12022020	211843	107.18	12.275348	-56.991373	107.11	-0.160	1.160	1.800	107.14	-0.10	2.10	 	 	 	 	 	 	 	 	 	 	 	 	 	 	 	 	 	 	1581542323	0.80	1.48
12/02/2020 21:18:44	120220	12022020	211844	107.10	12.275350	-56.991367	107.06	-0.330	0.630	0.650	107.10	-0.70	1.00	 	 	 	 	 	 	 	 	 	 	 	 	 	 	 	 	 	 	1581542324	1.41	2.61
12/02/2020 21:18:45	120220	12022020	211845	107.05	12.275348	-56.991357	106.94	-0.220	-0.670	-0.150	107.01	-2.00	0.20	 	 	 	 	 	 	 	 	 	 	 	 	 	 	 	 	 	 	1581542325	2.07	3.83
12/02/2020 21:18:46	120220	12022020	211846	106.66	12.275343	-56.991347	106.40	0.090	-1.860	-0.150	106.51	-3.20	0.20	 	 	 	 	 	 	 	 	 	 	 	 	 	 	 	 	 	 	1581542326	2.59	4.80
12/02/2020 21:18:47	120220	12022020	211847	105.85	12.275333	-56.991340	105.57	0.330	-1.910	0.460	105.68	-3.20	0.90	 	 	 	 	 	 	 	 	 	 	 	 	 	 	 	 	 	 	1581542327	2.61	4.83
12/02/2020 21:18:48	120220	12022020	211848	105.08	12.275323	-56.991338	104.87	0.350	-0.840	1.110	104.95	-2.00	1.50	 	 	 	 	 	 	 	 	 	 	 	 	 	 	 	 	 	 	1581542328	2.21	4.09
12/02/2020 21:18:49	120220	12022020	211849	104.56	12.275315	-56.991338	104.42	0.200	0.450	1.410	104.48	-0.80	1.80	 	 	 	 	 	 	 	 	 	 	 	 	 	 	 	 	 	 	1581542329	1.53	2.83
12/02/2020 21:18:50	120220	12022020	211850	104.28	12.275312	-56.991337	104.22	-0.120	1.210	1.300	104.26	-0.10	1.70	 	 	 	 	 	 	 	 	 	 	 	 	 	 	 	 	 	 	1581542330	0.81	1.50
12/02/2020 21:18:51	120220	12022020	211851	104.30	12.275310	-56.991333	104.27	-0.490	1.230	0.890	104.32	-0.10	1.30	 	 	 	 	 	 	 	 	 	 	 	 	 	 	 	 	 	 	1581542331	0.99	1.83
12/02/2020 21:18:52	120220	12022020	211852	104.35	12.275307	-56.991327	104.24	-0.680	0.550	0.630	104.33	-0.80	1.00	 	 	 	 	 	 	 	 	 	 	 	 	 	 	 	 	 	 	1581542332	1.57	2.91
12/02/2020 21:18:53	120220	12022020	211853	104.04	12.275297	-56.991318	103.80	-0.440	-0.630	0.860	103.93	-2.00	1.20	 	 	 	 	 	 	 	 	 	 	 	 	 	 	 	 	 	 	1581542333	2.47	4.57
12/02/2020 21:18:54	120220	12022020	211854	103.32	12.275287	-56.991310	103.03	0.190	-1.630	1.480	103.14	-2.90	1.90	 	 	 	 	 	 	 	 	 	 	 	 	 	 	 	 	 	 	1581542334	2.96	5.48
12/02/2020 21:18:55	120220	12022020	211855	102.49	12.275278	-56.991303	102.28	0.740	-1.600	2.000	102.35	-2.90	2.40	 	 	 	 	 	 	 	 	 	 	 	 	 	 	 	 	 	 	1581542335	2.29	4.24
12/02/2020 21:18:56	120220	12022020	211856	101.99	12.275275	-56.991300	101.93	0.740	-0.590	1.950	101.95	-1.80	2.30	 	 	 	 	 	 	 	 	 	 	 	 	 	 	 	 	 	 	1581542336	0.90	1.67
12/02/2020 21:18:57	120220	12022020	211857	102.01	12.275277	-56.991300	102.06	0.260	0.480	1.260	102.07	-0.80	1.60	 	 	 	 	 	 	 	 	 	 	 	 	 	 	 	 	 	 	1581542337	0.31	0.57
12/02/2020 21:18:58	120220	12022020	211858	102.31	12.275277	-56.991295	102.31	-0.240	0.740	0.520	102.34	-0.60	0.90	 	 	 	 	 	 	 	 	 	 	 	 	 	 	 	 	 	 	1581542338	0.85	1.57
12/02/2020 21:18:59	120220	12022020	211859	102.32	12.275270	-56.991288	102.19	-0.460	0.340	0.500	102.26	-1.00	0.90	 	 	 	 	 	 	 	 	 	 	 	 	 	 	 	 	 	 	1581542339	1.83	3.39
12/02/2020 21:19:00	120220	12022020	211900	101.94	12.275262	-56.991282	101.75	-0.400	-0.150	0.970	101.84	-1.50	1.40	 	 	 	 	 	 	 	 	 	 	 	 	 	 	 	 	 	 	1581542340	2.53	4.69
12/02/2020 21:19:01	120220	12022020	211901	101.46	12.275253	-56.991275	101.29	-0.200	-0.380	1.330	101.37	-1.70	1.70	 	 	 	 	 	 	 	 	 	 	 	 	 	 	 	 	 	 	1581542341	2.27	4.20
12/02/2020 21:19:02	120220	12022020	211902	101.04	12.275247	-56.991268	100.89	0.010	-0.420	1.410	100.96	-1.70	1.80	1014.60	26.50	26.70	20.70	20.70	53.0	70.0	69.0	395.0	26.8	319.00	10.80	69.00	10.20	4970	10245.0	27.4	27.4	1581542342	1.70	3.15
12/02/2020 21:19:03	120220	12022020	211903	100.72	12.275245	-56.991263	100.62	0.060	-0.280	1.240	100.68	-1.60	1.60	 	 	 	 	 	 	 	 	 	 	 	 	 	 	 	 	 	 	1581542343	1.33	2.46
12/02/2020 21:19:04	120220	12022020	211904	100.61	12.275242	-56.991258	100.57	-0.050	-0.060	0.970	100.61	-1.40	1.30	 	 	 	 	 	 	 	 	 	 	 	 	 	 	 	 	 	 	1581542344	1.09	2.02
12/02/2020 21:19:05	120220	12022020	211905	100.65	12.275240	-56.991253	100.63	-0.120	0.030	0.800	100.66	-1.30	1.20	 	 	 	 	 	 	 	 	 	 	 	 	 	 	 	 	 	 	1581542345	1.16	2.15
12/02/2020 21:19:06	120220	12022020	211906	100.64	12.275235	-56.991248	100.54	0.030	-0.210	0.840	100.61	-1.50	1.20	 	 	 	 	 	 	 	 	 	 	 	 	 	 	 	 	 	 	1581542346	1.60	2.96
12/02/2020 21:19:07	120220	12022020	211907	100.33	12.275228	-56.991240	100.13	0.380	-0.830	1.100	100.22	-2.20	1.50	 	 	 	 	 	 	 	 	 	 	 	 	 	 	 	 	 	 	1581542347	2.26	4.19
12/02/2020 21:19:08	120220	12022020	211908	99.67	12.275222	-56.991230	99.44	0.600	-1.270	1.630	99.53	-2.60	2.00	 	 	 	 	 	 	 	 	 	 	 	 	 	 	 	 	 	 	1581542348	2.71	5.02
12/02/2020 21:19:09	120220	12022020	211909	99.09	12.275213	-56.991222	98.98	0.370	-0.720	2.120	99.01	-2.00	2.50	 	 	 	 	 	 	 	 	 	 	 	 	 	 	 	 	 	 	1581542349	2.15	3.98
12/02/2020 21:19:10	120220	12022020	211910	98.95	12.275210	-56.991222	99.02	-0.260	0.690	2.160	98.99	-0.50	2.50	 	 	 	 	 	 	 	 	 	 	 	 	 	 	 	 	 	 	1581542350	1.02	1.89
12/02/2020 21:19:11	120220	12022020	211911	99.31	12.275208	-56.991222	99.46	-0.820	1.790	1.580	99.41	0.50	1.90	 	 	 	 	 	 	 	 	 	 	 	 	 	 	 	 	 	 	1581542351	0.38	0.70
12/02/2020 21:19:12	120220	12022020	211912	99.82	12.275208	-56.991218	99.92	-0.830	1.450	0.750	99.90	0.10	1.10	 	 	 	 	 	 	 	 	 	 	 	 	 	 	 	 	 	 	1581542352	0.77	1.43
12/02/2020 21:19:13	120220	12022020	211913	100.06	12.275205	-56.991208	99.99	-0.280	-0.190	0.370	100.04	-1.60	0.80	 	 	 	 	 	 	 	 	 	 	 	 	 	 	 	 	 	 	1581542353	2.31	4.28
12/02/2020 21:19:14	120220	12022020	211914	99.66	12.275197	-56.991195	99.39	0.390	-1.830	0.850	99.49	-3.20	1.30	 	 	 	 	 	 	 	 	 	 	 	 	 	 	 	 	 	 	1581542354	3.17	5.87
12/02/2020 21:19:15	120220	12022020	211915	98.72	12.275188	-56.991185	98.41	0.720	-2.310	1.620	98.52	-3.60	2.00	 	 	 	 	 	 	 	 	 	 	 	 	 	 	 	 	 	 	1581542355	2.79	5.17
12/02/2020 21:19:16	120220	12022020	211916	97.84	12.275183	-56.991180	97.66	0.610	-1.470	1.970	97.72	-2.70	2.40	 	 	 	 	 	 	 	 	 	 	 	 	 	 	 	 	 	 	1581542356	1.58	2.93
12/02/2020 21:19:17	120220	12022020	211917	97.55	12.275182	-56.991177	97.58	0.340	-0.150	1.690	97.58	-1.40	2.10	 	 	 	 	 	 	 	 	 	 	 	 	 	 	 	 	 	 	1581542357	0.65	1.20
12/02/2020 21:19:18	120220	12022020	211918	97.83	12.275182	-56.991173	97.91	0.110	0.770	1.090	97.90	-0.50	1.40	 	 	 	 	 	 	 	 	 	 	 	 	 	 	 	 	 	 	1581542358	0.74	1.37
12/02/2020 21:19:19	120220	12022020	211919	98.14	12.275180	-56.991168	98.13	-0.070	1.040	0.390	98.17	-0.30	0.80	 	 	 	 	 	 	 	 	 	 	 	 	 	 	 	 	 	 	1581542359	1.31	2.43
12/02/2020 21:19:20	120220	12022020	211920	98.21	12.275180	-56.991160	98.12	-0.380	1.010	-0.170	98.20	-0.30	0.20	 	 	 	 	 	 	 	 	 	 	 	 	 	 	 	 	 	 	1581542360	1.55	2.87
12/02/2020 21:19:21	120220	12022020	211921	98.08	12.275177	-56.991155	97.93	-0.780	0.830	-0.210	98.02	-0.50	0.20	 	 	 	 	 	 	 	 	 	 	 	 	 	 	 	 	 	 	1581542361	1.41	2.61
12/02/2020 21:19:22	120220	12022020	211922	97.72	12.275170	-56.991148	97.52	-0.880	0.230	0.290	97.63	-1.10	0.70	 	 	 	 	 	 	 	 	 	 	 	 	 	 	 	 	 	 	1581542362	1.91	3.54
12/02/2020 21:19:23	120220	12022020	211923	97.21	12.275162	-56.991140	97.00	-0.310	-1.080	0.940	97.10	-2.40	1.30	 	 	 	 	 	 	 	 	 	 	 	 	 	 	 	 	 	 	1581542363	2.61	4.83
12/02/2020 21:19:24	120220	12022020	211924	96.68	12.275155	-56.991127	96.49	0.700	-2.520	1.320	96.58	-3.80	1.70	 	 	 	 	 	 	 	 	 	 	 	 	 	 	 	 	 	 	1581542364	3.18	5.89
12/02/2020 21:19:25	120220	12022020	211925	96.27	12.275152	-56.991115	96.17	1.280	-2.530	1.280	96.22	-3.80	1.70	 	 	 	 	 	 	 	 	 	 	 	 	 	 	 	 	 	 	1581542365	2.68	4.96
12/02/2020 21:19:26	120220	12022020	211926	96.13	12.275150	-56.991112	96.08	0.820	-0.520	0.970	96.13	-1.70	1.30	 	 	 	 	 	 	 	 	 	 	 	 	 	 	 	 	 	 	1581542366	0.63	1.17
12/02/2020 21:19:27	120220	12022020	211927	96.16	12.275150	-56.991117	96.12	-0.310	2.000	0.700	96.17	0.80	1.10	 	 	 	 	 	 	 	 	 	 	 	 	 	 	 	 	 	 	1581542367	0.94	1.74
12/02/2020 21:19:28	120220	12022020	211928	96.15	12.275148	-56.991120	96.05	-1.200	3.090	0.610	96.11	1.80	1.00	 	 	 	 	 	 	 	 	 	 	 	 	 	 	 	 	 	 	1581542368	0.74	1.37
12/02/2020 21:19:29	120220	12022020	211929	95.87	12.275143	-56.991113	95.70	-1.180	1.840	0.740	95.78	0.40	1.10	 	 	 	 	 	 	 	 	 	 	 	 	 	 	 	 	 	 	1581542369	1.64	3.04
12/02/2020 21:19:30	120220	12022020	211930	95.36	12.275138	-56.991098	95.16	-0.390	-0.860	1.010	95.25	-2.30	1.40	 	 	 	 	 	 	 	 	 	 	 	 	 	 	 	 	 	 	1581542370	3.45	6.39
12/02/2020 21:19:31	120220	12022020	211931	94.75	12.275132	-56.991080	94.53	0.510	-2.990	1.380	94.64	-4.30	1.80	 	 	 	 	 	 	 	 	 	 	 	 	 	 	 	 	 	 	1581542371	3.79	7.02
12/02/2020 21:19:32	120220	12022020	211932	94.19	12.275127	-56.991070	94.00	0.940	-3.090	1.680	94.09	-4.30	2.10	 	 	 	 	 	 	 	 	 	 	 	 	 	 	 	 	 	 	1581542372	2.51	4.65
12/02/2020 21:19:33	120220	12022020	211933	93.80	12.275123	-56.991068	93.70	0.830	-1.450	1.690	93.76	-2.70	2.10	 	 	 	 	 	 	 	 	 	 	 	 	 	 	 	 	 	 	1581542373	0.94	1.74
12/02/2020 21:19:34	120220	12022020	211934	93.69	12.275122	-56.991068	93.61	0.460	0.520	1.260	93.68	-0.70	1.60	 	 	 	 	 	 	 	 	 	 	 	 	 	 	 	 	 	 	1581542374	0.30	0.56
12/02/2020 21:19:35	120220	12022020	211935	93.64	12.275123	-56.991067	93.54	0.080	1.720	0.570	93.62	0.40	0.90	 	 	 	 	 	 	 	 	 	 	 	 	 	 	 	 	 	 	1581542375	0.48	0.89
12/02/2020 21:19:36	120220	12022020	211936	93.46	12.275125	-56.991062	93.26	-0.310	1.890	0.000	93.38	0.60	0.40	 	 	 	 	 	 	 	 	 	 	 	 	 	 	 	 	 	 	1581542376	1.24	2.30
12/02/2020 21:19:37	120220	12022020	211937	93.00	12.275125	-56.991053	92.75	-0.710	1.260	-0.170	92.88	-0.10	0.20	 	 	 	 	 	 	 	 	 	 	 	 	 	 	 	 	 	 	1581542377	1.65	3.06
12/02/2020 21:19:38	120220	12022020	211938	92.41	12.275122	-56.991045	92.15	-0.910	0.080	0.030	92.29	-1.30	0.40	 	 	 	 	 	 	 	 	 	 	 	 	 	 	 	 	 	 	1581542378	2.04	3.78
12/02/2020 21:19:39	120220	12022020	211939	91.84	12.275117	-56.991033	91.60	-0.630	-1.300	0.430	91.72	-2.70	0.80	 	 	 	 	 	 	 	 	 	 	 	 	 	 	 	 	 	 	1581542379	2.45	4.54
12/02/2020 21:19:40	120220	12022020	211940	91.31	12.275112	-56.991023	91.12	0.110	-2.270	0.880	91.23	-3.60	1.30	 	 	 	 	 	 	 	 	 	 	 	 	 	 	 	 	 	 	1581542380	2.64	4.89
12/02/2020 21:19:41	120220	12022020	211941	91.03	12.275107	-56.991013	90.94	0.830	-2.160	1.070	91.01	-3.40	1.40	 	 	 	 	 	 	 	 	 	 	 	 	 	 	 	 	 	 	1581542381	2.16	4.00
12/02/2020 21:19:42	120220	12022020	211942	90.89	12.275103	-56.991010	90.74	0.960	-0.920	0.930	90.85	-2.10	1.30	 	 	 	 	 	 	 	 	 	 	 	 	 	 	 	 	 	 	1581542382	1.14	2.11
12/02/2020 21:19:43	120220	12022020	211943	90.59	12.275103	-56.991008	90.36	0.520	0.630	0.670	90.52	-0.60	1.00	 	 	 	 	 	 	 	 	 	 	 	 	 	 	 	 	 	 	1581542383	0.37	0.69
12/02/2020 21:19:44	120220	12022020	211944	90.13	12.275102	-56.991005	89.85	0.010	1.440	0.580	90.01	0.20	1.00	 	 	 	 	 	 	 	 	 	 	 	 	 	 	 	 	 	 	1581542384	0.65	1.20
12/02/2020 21:19:45	120220	12022020	211945	89.52	12.275100	-56.990997	89.22	-0.160	1.070	0.660	89.39	-0.30	1.00	 	 	 	 	 	 	 	 	 	 	 	 	 	 	 	 	 	 	1581542385	1.71	3.17
12/02/2020 21:19:46	120220	12022020	211946	88.91	12.275100	-56.990985	88.63	-0.010	0.090	0.670	88.79	-1.20	1.10	 	 	 	 	 	 	 	 	 	 	 	 	 	 	 	 	 	 	1581542386	2.49	4.61
12/02/2020 21:19:47	120220	12022020	211947	88.41	12.275100	-56.990975	88.16	0.070	-0.470	0.560	88.32	-1.80	0.90	 	 	 	 	 	 	 	 	 	 	 	 	 	 	 	 	 	 	1581542387	2.27	4.20
12/02/2020 21:19:48	120220	12022020	211948	88.00	12.275100	-56.990968	87.81	-0.200	-0.320	0.450	87.93	-1.60	0.80	 	 	 	 	 	 	 	 	 	 	 	 	 	 	 	 	 	 	1581542388	1.37	2.54
12/02/2020 21:19:49	120220	12022020	211949	87.70	12.275098	-56.990963	87.55	-0.630	-0.010	0.400	87.65	-1.30	0.80	 	 	 	 	 	 	 	 	 	 	 	 	 	 	 	 	 	 	1581542389	0.91	1.69
12/02/2020 21:19:50	120220	12022020	211950	87.45	12.275095	-56.990958	87.31	-0.720	-0.260	0.610	87.40	-1.60	1.00	 	 	 	 	 	 	 	 	 	 	 	 	 	 	 	 	 	 	1581542390	1.56	2.89
12/02/2020 21:19:51	120220	12022020	211951	87.17	12.275088	-56.990948	87.03	-0.210	-0.970	1.050	87.11	-2.30	1.40	 	 	 	 	 	 	 	 	 	 	 	 	 	 	 	 	 	 	1581542391	2.53	4.69
12/02/2020 21:19:52	120220	12022020	211952	86.81	12.275083	-56.990937	86.63	0.620	-1.440	1.570	86.71	-2.70	2.00	 	 	 	 	 	 	 	 	 	 	 	 	 	 	 	 	 	 	1581542392	2.76	5.11
12/02/2020 21:19:53	120220	12022020	211953	86.21	12.275080	-56.990927	85.96	1.180	-1.180	1.940	86.06	-2.40	2.30	 	 	 	 	 	 	 	 	 	 	 	 	 	 	 	 	 	 	1581542393	2.23	4.13
12/02/2020 21:19:54	120220	12022020	211954	85.52	12.275080	-56.990920	85.31	1.090	-0.170	1.800	85.40	-1.40	2.20	 	 	 	 	 	 	 	 	 	 	 	 	 	 	 	 	 	 	1581542394	1.38	2.56
12/02/2020 21:19:55	120220	12022020	211955	85.09	12.275083	-56.990917	84.97	0.420	1.130	1.140	85.05	-0.10	1.50	 	 	 	 	 	 	 	 	 	 	 	 	 	 	 	 	 	 	1581542395	1.07	1.98
12/02/2020 21:19:56	120220	12022020	211956	85.02	12.275090	-56.990913	84.97	-0.420	1.800	0.380	85.03	0.50	0.70	 	 	 	 	 	 	 	 	 	 	 	 	 	 	 	 	 	 	1581542396	1.28	2.37
12/02/2020 21:19:57	120220	12022020	211957	85.14	12.275092	-56.990908	85.10	-0.960	1.310	-0.090	85.17	-0.00	0.30	 	 	 	 	 	 	 	 	 	 	 	 	 	 	 	 	 	 	1581542397	1.51	2.80
12/02/2020 21:19:58	120220	12022020	211958	85.13	12.275092	-56.990897	84.97	-1.000	-0.100	-0.130	85.09	-1.50	0.30	 	 	 	 	 	 	 	 	 	 	 	 	 	 	 	 	 	 	1581542398	2.35	4.35
12/02/2020 21:19:59	120220	12022020	211959	84.75	12.275088	-56.990883	84.51	-0.560	-1.550	0.330	84.64	-2.90	0.70	 	 	 	 	 	 	 	 	 	 	 	 	 	 	 	 	 	 	1581542399	2.96	5.48
12/02/2020 21:20:00	120220	12022020	212000	84.20	12.275083	-56.990870	84.00	0.110	-2.160	1.060	84.09	-3.40	1.50	 	 	 	 	 	 	 	 	 	 	 	 	 	 	 	 	 	 	1581542400	2.88	5.33
12/02/2020 21:20:01	120220	12022020	212001	83.68	12.275077	-56.990862	83.52	0.670	-1.670	1.630	83.59	-2.90	2.00	 	 	 	 	 	 	 	 	 	 	 	 	 	 	 	 	 	 	1581542401	2.21	4.09
12/02/2020 21:20:02	120220	12022020	212002	83.29	12.275075	-56.990857	83.19	0.760	-0.490	1.740	83.24	-1.70	2.10	1014.60	26.40	26.60	20.50	20.50	50.0	70.0	69.0	396.0	26.7	337.00	10.90	69.00	10.10	4819	15510.0	27.4	27.4	1581542402	1.20	2.22
12/02/2020 21:20:03	120220	12022020	212003	83.16	12.275077	-56.990852	83.11	0.350	0.620	1.450	83.16	-0.60	1.80	 	 	 	 	 	 	 	 	 	 	 	 	 	 	 	 	 	 	1581542403	0.89	1.65
12/02/2020 21:20:04	120220	12022020	212004	83.19	12.275080	-56.990847	83.12	-0.170	1.100	1.000	83.19	-0.20	1.40	 	 	 	 	 	 	 	 	 	 	 	 	 	 	 	 	 	 	1581542404	1.27	2.35
12/02/2020 21:20:05	120220	12022020	212005	83.12	12.275082	-56.990838	82.96	-0.310	0.800	0.530	83.07	-0.50	0.90	 	 	 	 	 	 	 	 	 	 	 	 	 	 	 	 	 	 	1581542405	1.91	3.54
12/02/2020 21:20:06	120220	12022020	212006	82.85	12.275085	-56.990827	82.66	-0.040	0.040	0.170	82.79	-1.30	0.50	 	 	 	 	 	 	 	 	 	 	 	 	 	 	 	 	 	 	1581542406	2.54	4.70
12/02/2020 21:20:07	120220	12022020	212007	82.62	12.275088	-56.990815	82.49	0.160	-0.480	0.020	82.60	-1.80	0.40	 	 	 	 	 	 	 	 	 	 	 	 	 	 	 	 	 	 	1581542407	2.45	4.54
12/02/2020 21:20:08	120220	12022020	212008	82.54	12.275088	-56.990807	82.43	0.010	-0.480	0.160	82.52	-1.80	0.60	 	 	 	 	 	 	 	 	 	 	 	 	 	 	 	 	 	 	1581542408	1.80	3.33
12/02/2020 21:20:09	120220	12022020	212009	82.42	12.275087	-56.990800	82.31	-0.300	-0.210	0.530	82.39	-1.50	0.90	 	 	 	 	 	 	 	 	 	 	 	 	 	 	 	 	 	 	1581542409	1.43	2.65
12/02/2020 21:20:10	120220	12022020	212010	82.27	12.275083	-56.990793	82.15	-0.470	-0.050	0.950	82.23	-1.30	1.30	 	 	 	 	 	 	 	 	 	 	 	 	 	 	 	 	 	 	1581542410	1.51	2.80
12/02/2020 21:20:11	120220	12022020	212011	82.07	12.275082	-56.990787	81.93	-0.300	-0.270	1.280	82.02	-1.60	1.70	 	 	 	 	 	 	 	 	 	 	 	 	 	 	 	 	 	 	1581542411	1.80	3.33
12/02/2020 21:20:12	120220	12022020	212012	81.82	12.275082	-56.990775	81.67	0.190	-0.910	1.470	81.77	-2.20	1.90	 	 	 	 	 	 	 	 	 	 	 	 	 	 	 	 	 	 	1581542412	2.39	4.43
12/02/2020 21:20:13	120220	12022020	212013	81.57	12.275082	-56.990762	81.43	0.690	-1.370	1.600	81.52	-2.70	2.00	 	 	 	 	 	 	 	 	 	 	 	 	 	 	 	 	 	 	1581542413	2.73	5.06
12/02/2020 21:20:14	120220	12022020	212014	81.44	12.275082	-56.990752	81.37	0.790	-1.040	1.540	81.44	-2.30	1.90	 	 	 	 	 	 	 	 	 	 	 	 	 	 	 	 	 	 	1581542414	2.25	4.17
12/02/2020 21:20:15	120220	12022020	212015	81.51	12.275083	-56.990745	81.46	0.400	-0.010	1.290	81.53	-1.20	1.70	 	 	 	 	 	 	 	 	 	 	 	 	 	 	 	 	 	 	1581542415	1.42	2.63
12/02/2020 21:20:16	120220	12022020	212016	81.56	12.275085	-56.990740	81.46	-0.280	1.160	0.990	81.55	-0.10	1.40	 	 	 	 	 	 	 	 	 	 	 	 	 	 	 	 	 	 	1581542416	0.83	1.54
12/02/2020 21:20:17	120220	12022020	212017	81.46	12.275085	-56.990737	81.31	-0.860	1.760	0.680	81.43	0.50	1.00	 	 	 	 	 	 	 	 	 	 	 	 	 	 	 	 	 	 	1581542417	0.78	1.44
12/02/2020 21:20:18	120220	12022020	212018	81.26	12.275088	-56.990730	81.07	-0.950	1.270	0.300	81.21	-0.10	0.70	 	 	 	 	 	 	 	 	 	 	 	 	 	 	 	 	 	 	1581542418	1.43	2.65
12/02/2020 21:20:19	120220	12022020	212019	81.05	12.275092	-56.990720	80.87	-0.510	-0.090	-0.140	81.01	-1.50	0.30	 	 	 	 	 	 	 	 	 	 	 	 	 	 	 	 	 	 	1581542419	2.32	4.30
12/02/2020 21:20:20	120220	12022020	212020	80.87	12.275095	-56.990708	80.71	0.140	-1.530	-0.330	80.84	-2.90	0.10	 	 	 	 	 	 	 	 	 	 	 	 	 	 	 	 	 	 	1581542420	2.74	5.07
12/02/2020 21:20:21	120220	12022020	212021	80.69	12.275097	-56.990697	80.51	0.630	-2.340	-0.170	80.64	-3.60	0.20	 	 	 	 	 	 	 	 	 	 	 	 	 	 	 	 	 	 	1581542421	2.53	4.69
12/02/2020 21:20:22	120220	12022020	212022	80.38	12.275097	-56.990687	80.19	0.780	-2.070	0.200	80.31	-3.30	0.60	 	 	 	 	 	 	 	 	 	 	 	 	 	 	 	 	 	 	1581542422	2.03	3.76
12/02/2020 21:20:23	120220	12022020	212023	80.07	12.275095	-56.990680	79.93	0.620	-0.930	0.590	80.03	-2.20	1.00	 	 	 	 	 	 	 	 	 	 	 	 	 	 	 	 	 	 	1581542423	1.33	2.46
12/02/2020 21:20:24	120220	12022020	212024	80.00	12.275095	-56.990677	79.97	0.260	0.370	0.900	80.02	-0.90	1.30	 	 	 	 	 	 	 	 	 	 	 	 	 	 	 	 	 	 	1581542424	0.94	1.74
12/02/2020 21:20:25	120220	12022020	212025	80.16	12.275093	-56.990672	80.15	-0.130	1.290	1.080	80.21	0.00	1.50	 	 	 	 	 	 	 	 	 	 	 	 	 	 	 	 	 	 	1581542425	1.06	1.96
12/02/2020 21:20:26	120220	12022020	212026	80.35	12.275093	-56.990665	80.29	-0.390	1.590	1.120	80.37	0.30	1.50	 	 	 	 	 	 	 	 	 	 	 	 	 	 	 	 	 	 	1581542426	1.32	2.44
12/02/2020 21:20:27	120220	12022020	212027	80.33	12.275093	-56.990657	80.16	-0.480	1.180	1.170	80.28	-0.20	1.60	 	 	 	 	 	 	 	 	 	 	 	 	 	 	 	 	 	 	1581542427	1.64	3.04
12/02/2020 21:20:28	120220	12022020	212028	80.02	12.275095	-56.990648	79.82	-0.490	0.240	1.290	79.94	-1.10	1.70	 	 	 	 	 	 	 	 	 	 	 	 	 	 	 	 	 	 	1581542428	2.01	3.72
12/02/2020 21:20:29	120220	12022020	212029	79.70	12.275097	-56.990637	79.59	-0.420	-0.840	1.270	79.67	-2.20	1.70	 	 	 	 	 	 	 	 	 	 	 	 	 	 	 	 	 	 	1581542429	2.18	4.04
12/02/2020 21:20:30	120220	12022020	212030	79.65	12.275098	-56.990628	79.61	-0.210	-1.580	1.140	79.66	-2.90	1.50	 	 	 	 	 	 	 	 	 	 	 	 	 	 	 	 	 	 	1581542430	2.11	3.91
12/02/2020 21:20:31	120220	12022020	212031	79.72	12.275098	-56.990620	79.67	0.160	-1.680	1.000	79.73	-2.90	1.40	 	 	 	 	 	 	 	 	 	 	 	 	 	 	 	 	 	 	1581542431	1.76	3.26
12/02/2020 21:20:32	120220	12022020	212032	79.62	12.275098	-56.990612	79.47	0.510	-1.250	0.920	79.56	-2.50	1.30	 	 	 	 	 	 	 	 	 	 	 	 	 	 	 	 	 	 	1581542432	1.44	2.67
12/02/2020 21:20:33	120220	12022020	212033	79.33	12.275102	-56.990607	79.19	0.640	-0.580	0.670	79.28	-1.80	1.00	 	 	 	 	 	 	 	 	 	 	 	 	 	 	 	 	 	 	1581542433	1.41	2.61
12/02/2020 21:20:34	120220	12022020	212034	79.17	12.275105	-56.990600	79.10	0.450	0.310	0.270	79.17	-1.00	0.70	 	 	 	 	 	 	 	 	 	 	 	 	 	 	 	 	 	 	1581542434	1.42	2.63
12/02/2020 21:20:35	120220	12022020	212035	79.21	12.275110	-56.990597	79.21	0.010	1.200	0.010	79.24	-0.10	0.40	 	 	 	 	 	 	 	 	 	 	 	 	 	 	 	 	 	 	1581542435	1.14	2.11
12/02/2020 21:20:36	120220	12022020	212036	79.43	12.275113	-56.990593	79.49	-0.340	1.290	-0.120	79.49	-0.00	0.30	 	 	 	 	 	 	 	 	 	 	 	 	 	 	 	 	 	 	1581542436	1.20	2.22
12/02/2020 21:20:37	120220	12022020	212037	79.79	12.275117	-56.990583	79.85	-0.320	0.220	-0.210	79.86	-1.20	0.20	 	 	 	 	 	 	 	 	 	 	 	 	 	 	 	 	 	 	1581542437	2.14	3.96
12/02/2020 21:20:38	120220	12022020	212038	80.04	12.275117	-56.990570	80.00	-0.130	-1.090	0.000	80.05	-2.40	0.40	 	 	 	 	 	 	 	 	 	 	 	 	 	 	 	 	 	 	1581542438	2.89	5.35
12/02/2020 21:20:39	120220	12022020	212039	79.95	12.275113	-56.990558	79.87	-0.140	-1.330	0.730	79.91	-2.60	1.20	 	 	 	 	 	 	 	 	 	 	 	 	 	 	 	 	 	 	1581542439	2.39	4.43
12/02/2020 21:20:40	120220	12022020	212040	79.83	12.275108	-56.990555	79.84	-0.380	-0.390	1.560	79.84	-1.60	2.00	 	 	 	 	 	 	 	 	 	 	 	 	 	 	 	 	 	 	1581542440	1.49	2.76
12/02/2020 21:20:41	120220	12022020	212041	80.02	12.275103	-56.990553	80.11	-0.500	0.650	2.090	80.09	-0.60	2.50	 	 	 	 	 	 	 	 	 	 	 	 	 	 	 	 	 	 	1581542441	1.04	1.93
12/02/2020 21:20:42	120220	12022020	212042	80.33	12.275102	-56.990550	80.36	-0.220	0.580	2.380	80.37	-0.80	2.80	 	 	 	 	 	 	 	 	 	 	 	 	 	 	 	 	 	 	1581542442	0.84	1.56
12/02/2020 21:20:43	120220	12022020	212043	80.44	12.275103	-56.990540	80.38	0.390	-0.640	2.370	80.44	-2.00	2.80	 	 	 	 	 	 	 	 	 	 	 	 	 	 	 	 	 	 	1581542443	2.17	4.02
12/02/2020 21:20:44	120220	12022020	212044	80.38	12.275108	-56.990528	80.28	0.820	-1.700	2.030	80.36	-3.00	2.40	 	 	 	 	 	 	 	 	 	 	 	 	 	 	 	 	 	 	1581542444	2.83	5.24
12/02/2020 21:20:45	120220	12022020	212045	80.36	12.275112	-56.990520	80.31	0.700	-1.420	1.690	80.38	-2.70	2.10	 	 	 	 	 	 	 	 	 	 	 	 	 	 	 	 	 	 	1581542445	1.91	3.54
12/02/2020 21:20:46	120220	12022020	212046	80.54	12.275113	-56.990518	80.55	0.180	-0.090	1.460	80.60	-1.30	1.90	 	 	 	 	 	 	 	 	 	 	 	 	 	 	 	 	 	 	1581542446	0.51	0.94
12/02/2020 21:20:47	120220	12022020	212047	80.92	12.275115	-56.990518	80.98	-0.320	1.050	1.140	81.01	-0.20	1.50	 	 	 	 	 	 	 	 	 	 	 	 	 	 	 	 	 	 	1581542447	0.20	0.37
12/02/2020 21:20:48	120220	12022020	212048	81.35	12.275117	-56.990515	81.35	-0.480	1.220	0.730	81.43	-0.10	1.10	 	 	 	 	 	 	 	 	 	 	 	 	 	 	 	 	 	 	1581542448	0.70	1.30
12/02/2020 21:20:49	120220	12022020	212049	81.59	12.275118	-56.990508	81.48	-0.350	0.510	0.340	81.60	-0.80	0.70	 	 	 	 	 	 	 	 	 	 	 	 	 	 	 	 	 	 	1581542449	1.61	2.98
12/02/2020 21:20:50	120220	12022020	212050	81.51	12.275122	-56.990500	81.34	-0.120	-0.390	0.180	81.47	-1.70	0.60	 	 	 	 	 	 	 	 	 	 	 	 	 	 	 	 	 	 	1581542450	1.91	3.54
12/02/2020 21:20:51	120220	12022020	212051	81.32	12.275123	-56.990492	81.18	0.090	-1.050	0.230	81.29	-2.40	0.60	 	 	 	 	 	 	 	 	 	 	 	 	 	 	 	 	 	 	1581542451	1.72	3.19
12/02/2020 21:20:52	120220	12022020	212052	81.29	12.275125	-56.990485	81.24	0.270	-1.350	0.270	81.32	-2.60	0.70	 	 	 	 	 	 	 	 	 	 	 	 	 	 	 	 	 	 	1581542452	1.55	2.87
12/02/2020 21:20:53	120220	12022020	212053	81.42	12.275127	-56.990478	81.39	0.320	-1.080	0.350	81.45	-2.30	0.80	 	 	 	 	 	 	 	 	 	 	 	 	 	 	 	 	 	 	1581542453	1.28	2.37
12/02/2020 21:20:54	120220	12022020	212054	81.58	12.275127	-56.990475	81.57	0.070	-0.170	0.480	81.62	-1.40	0.90	 	 	 	 	 	 	 	 	 	 	 	 	 	 	 	 	 	 	1581542454	0.64	1.19
12/02/2020 21:20:55	120220	12022020	212055	81.85	12.275127	-56.990475	81.87	-0.340	0.860	0.490	81.93	-0.40	0.90	 	 	 	 	 	 	 	 	 	 	 	 	 	 	 	 	 	 	1581542455	0.13	0.24
12/02/2020 21:20:56	120220	12022020	212056	82.22	12.275127	-56.990473	82.22	-0.580	1.250	0.500	82.29	-0.10	0.90	 	 	 	 	 	 	 	 	 	 	 	 	 	 	 	 	 	 	1581542456	0.28	0.52
12/02/2020 21:20:57	120220	12022020	212057	82.48	12.275127	-56.990468	82.42	-0.440	0.600	0.710	82.50	-0.80	1.10	 	 	 	 	 	 	 	 	 	 	 	 	 	 	 	 	 	 	1581542457	1.17	2.17
12/02/2020 21:20:58	120220	12022020	212058	82.52	12.275125	-56.990458	82.43	0.020	-0.720	1.070	82.51	-2.10	1.50	 	 	 	 	 	 	 	 	 	 	 	 	 	 	 	 	 	 	1581542458	2.07	3.83
12/02/2020 21:20:59	120220	12022020	212059	82.43	12.275125	-56.990448	82.32	0.460	-1.810	1.470	82.40	-3.10	1.90	 	 	 	 	 	 	 	 	 	 	 	 	 	 	 	 	 	 	1581542459	2.35	4.35
12/02/2020 21:21:00	120220	12022020	212100	82.30	12.275123	-56.990440	82.23	0.590	-1.790	1.760	82.29	-3.10	2.20	 	 	 	 	 	 	 	 	 	 	 	 	 	 	 	 	 	 	1581542460	1.70	3.15
12/02/2020 21:21:01	120220	12022020	212101	82.29	12.275123	-56.990437	82.26	0.310	-0.650	1.890	82.30	-1.90	2.30	 	 	 	 	 	 	 	 	 	 	 	 	 	 	 	 	 	 	1581542461	0.53	0.98
12/02/2020 21:21:02	120220	12022020	212102	82.41	12.275123	-56.990438	82.40	-0.130	0.700	1.790	82.45	-0.60	2.20	1014.60	26.40	26.50	20.60	20.60	49.0	70.0	70.0	396.0	26.7	346.00	10.90	66.00	10.10	4640	12051.0	27.4	27.4	1581542462	0.12	0.22
12/02/2020 21:21:03	120220	12022020	212103	82.61	12.275125	-56.990438	82.58	-0.450	1.500	1.430	82.65	0.20	1.80	 	 	 	 	 	 	 	 	 	 	 	 	 	 	 	 	 	 	1581542463	0.34	0.63
12/02/2020 21:21:04	120220	12022020	212104	82.79	12.275130	-56.990435	82.71	-0.530	1.390	0.710	82.83	0.00	1.10	 	 	 	 	 	 	 	 	 	 	 	 	 	 	 	 	 	 	1581542464	1.19	2.20
12/02/2020 21:21:05	120220	12022020	212105	82.91	12.275138	-56.990430	82.80	-0.390	0.350	-0.190	82.94	-1.00	0.20	 	 	 	 	 	 	 	 	 	 	 	 	 	 	 	 	 	 	1581542465	2.01	3.72
12/02/2020 21:21:06	120220	12022020	212106	83.06	12.275145	-56.990422	82.99	-0.050	-1.110	-0.870	83.11	-2.50	-0.50	 	 	 	 	 	 	 	 	 	 	 	 	 	 	 	 	 	 	1581542466	2.26	4.19
12/02/2020 21:21:07	120220	12022020	212107	83.45	12.275147	-56.990412	83.44	0.420	-2.160	-1.110	83.54	-3.50	-0.70	 	 	 	 	 	 	 	 	 	 	 	 	 	 	 	 	 	 	1581542467	2.08	3.85
12/02/2020 21:21:08	120220	12022020	212108	83.82	12.275145	-56.990405	83.74	0.660	-2.000	-0.760	83.85	-3.30	-0.30	 	 	 	 	 	 	 	 	 	 	 	 	 	 	 	 	 	 	1581542468	1.53	2.83
12/02/2020 21:21:09	120220	12022020	212109	83.80	12.275142	-56.990403	83.59	0.360	-0.640	0.000	83.74	-1.90	0.40	 	 	 	 	 	 	 	 	 	 	 	 	 	 	 	 	 	 	1581542469	1.01	1.87
12/02/2020 21:21:10	120220	12022020	212110	83.36	12.275137	-56.990405	83.09	-0.310	0.900	0.880	83.25	-0.40	1.30	 	 	 	 	 	 	 	 	 	 	 	 	 	 	 	 	 	 	1581542470	1.14	2.11
12/02/2020 21:21:11	120220	12022020	212111	82.82	12.275133	-56.990405	82.59	-0.770	1.610	1.540	82.73	0.30	2.00	 	 	 	 	 	 	 	 	 	 	 	 	 	 	 	 	 	 	1581542471	0.66	1.22
12/02/2020 21:21:12	120220	12022020	212112	82.49	12.275135	-56.990400	82.35	-0.570	1.030	1.690	82.46	-0.30	2.10	 	 	 	 	 	 	 	 	 	 	 	 	 	 	 	 	 	 	1581542472	1.00	1.85
12/02/2020 21:21:13	120220	12022020	212113	82.53	12.275140	-56.990392	82.51	0.060	-0.260	1.280	82.58	-1.60	1.70	 	 	 	 	 	 	 	 	 	 	 	 	 	 	 	 	 	 	1581542473	2.11	3.91
12/02/2020 21:21:14	120220	12022020	212114	82.95	12.275145	-56.990383	83.01	0.530	-1.130	0.580	83.07	-2.40	1.00	 	 	 	 	 	 	 	 	 	 	 	 	 	 	 	 	 	 	1581542474	2.16	4.00
12/02/2020 21:21:15	120220	12022020	212115	83.51	12.275150	-56.990380	83.51	0.460	-1.060	0.090	83.60	-2.40	0.50	 	 	 	 	 	 	 	 	 	 	 	 	 	 	 	 	 	 	1581542475	1.22	2.26
12/02/2020 21:21:16	120220	12022020	212116	83.79	12.275150	-56.990378	83.66	-0.000	-0.420	0.010	83.80	-1.70	0.40	 	 	 	 	 	 	 	 	 	 	 	 	 	 	 	 	 	 	1581542476	0.29	0.54
12/02/2020 21:21:17	120220	12022020	212117	83.69	12.275150	-56.990378	83.45	-0.410	0.160	0.250	83.63	-1.10	0.70	 	 	 	 	 	 	 	 	 	 	 	 	 	 	 	 	 	 	1581542477	0.24	0.44
12/02/2020 21:21:18	120220	12022020	212118	83.28	12.275147	-56.990377	82.99	-0.390	0.190	0.750	83.17	-1.10	1.20	 	 	 	 	 	 	 	 	 	 	 	 	 	 	 	 	 	 	1581542478	0.79	1.46
12/02/2020 21:21:19	120220	12022020	212119	82.75	12.275145	-56.990370	82.52	0.020	-0.280	1.300	82.66	-1.60	1.70	 	 	 	 	 	 	 	 	 	 	 	 	 	 	 	 	 	 	1581542479	1.36	2.52
12/02/2020 21:21:20	120220	12022020	212120	82.46	12.275145	-56.990363	82.34	0.430	-0.770	1.440	82.44	-2.10	1.80	 	 	 	 	 	 	 	 	 	 	 	 	 	 	 	 	 	 	1581542480	1.54	2.85
12/02/2020 21:21:21	120220	12022020	212121	82.51	12.275150	-56.990358	82.47	0.420	-0.720	0.990	82.56	-2.00	1.40	 	 	 	 	 	 	 	 	 	 	 	 	 	 	 	 	 	 	1581542481	1.35	2.50
12/02/2020 21:21:22	120220	12022020	212122	82.82	12.275153	-56.990357	82.78	0.020	-0.090	0.340	82.88	-1.40	0.70	 	 	 	 	 	 	 	 	 	 	 	 	 	 	 	 	 	 	1581542482	0.94	1.74
12/02/2020 21:21:23	120220	12022020	212123	83.10	12.275155	-56.990357	82.99	-0.370	0.580	0.050	83.13	-0.70	0.40	 	 	 	 	 	 	 	 	 	 	 	 	 	 	 	 	 	 	1581542483	0.29	0.54
12/02/2020 21:21:24	120220	12022020	212124	83.16	12.275155	-56.990355	82.97	-0.390	0.740	0.140	83.14	-0.60	0.60	 	 	 	 	 	 	 	 	 	 	 	 	 	 	 	 	 	 	1581542484	0.30	0.56
12/02/2020 21:21:25	120220	12022020	212125	83.02	12.275155	-56.990352	82.82	-0.090	0.210	0.330	82.99	-1.10	0.70	 	 	 	 	 	 	 	 	 	 	 	 	 	 	 	 	 	 	1581542485	0.90	1.67
12/02/2020 21:21:26	120220	12022020	212126	82.89	12.275157	-56.990345	82.74	0.200	-0.620	0.330	82.89	-1.90	0.70	 	 	 	 	 	 	 	 	 	 	 	 	 	 	 	 	 	 	1581542486	1.44	2.67
12/02/2020 21:21:27	120220	12022020	212127	82.93	12.275158	-56.990340	82.84	0.250	-1.060	0.350	82.96	-2.40	0.80	 	 	 	 	 	 	 	 	 	 	 	 	 	 	 	 	 	 	1581542487	1.29	2.39
12/02/2020 21:21:28	120220	12022020	212128	83.12	12.275158	-56.990337	83.06	0.190	-0.850	0.680	83.17	-2.10	1.10	 	 	 	 	 	 	 	 	 	 	 	 	 	 	 	 	 	 	1581542488	0.63	1.17
12/02/2020 21:21:29	120220	12022020	212129	83.26	12.275155	-56.990335	83.15	0.180	-0.390	1.250	83.26	-1.70	1.70	 	 	 	 	 	 	 	 	 	 	 	 	 	 	 	 	 	 	1581542489	0.77	1.43
12/02/2020 21:21:30	120220	12022020	212130	83.16	12.275152	-56.990332	82.98	0.220	-0.170	1.690	83.11	-1.50	2.10	 	 	 	 	 	 	 	 	 	 	 	 	 	 	 	 	 	 	1581542490	0.84	1.56
12/02/2020 21:21:31	120220	12022020	212131	82.90	12.275152	-56.990328	82.73	0.120	-0.040	1.800	82.85	-1.30	2.20	 	 	 	 	 	 	 	 	 	 	 	 	 	 	 	 	 	 	1581542491	0.83	1.54
12/02/2020 21:21:32	120220	12022020	212132	82.78	12.275152	-56.990327	82.69	-0.150	0.250	1.650	82.79	-1.00	2.00	 	 	 	 	 	 	 	 	 	 	 	 	 	 	 	 	 	 	1581542492	0.57	1.06
12/02/2020 21:21:33	120220	12022020	212133	82.95	12.275155	-56.990325	82.92	-0.410	0.600	1.210	83.01	-0.70	1.60	 	 	 	 	 	 	 	 	 	 	 	 	 	 	 	 	 	 	1581542493	0.46	0.85
12/02/2020 21:21:34	120220	12022020	212134	83.28	12.275158	-56.990325	83.23	-0.430	0.550	0.580	83.34	-0.80	1.00	 	 	 	 	 	 	 	 	 	 	 	 	 	 	 	 	 	 	1581542494	0.69	1.28
12/02/2020 21:21:35	120220	12022020	212135	83.50	12.275160	-56.990322	83.38	-0.160	-0.080	0.130	83.52	-1.40	0.50	 	 	 	 	 	 	 	 	 	 	 	 	 	 	 	 	 	 	1581542495	0.95	1.76
12/02/2020 21:21:36	120220	12022020	212136	83.47	12.275162	-56.990317	83.28	0.170	-0.940	-0.030	83.44	-2.30	0.40	 	 	 	 	 	 	 	 	 	 	 	 	 	 	 	 	 	 	1581542496	1.25	2.31
12/02/2020 21:21:37	120220	12022020	212137	83.27	12.275163	-56.990312	83.07	0.320	-1.380	0.090	83.23	-2.70	0.50	 	 	 	 	 	 	 	 	 	 	 	 	 	 	 	 	 	 	1581542497	1.15	2.13
12/02/2020 21:21:38	120220	12022020	212138	83.13	12.275162	-56.990307	82.99	0.300	-1.260	0.340	83.12	-2.50	0.80	 	 	 	 	 	 	 	 	 	 	 	 	 	 	 	 	 	 	1581542498	0.84	1.56
12/02/2020 21:21:39	120220	12022020	212139	83.13	12.275158	-56.990305	83.02	0.260	-0.640	0.690	83.14	-1.90	1.10	 	 	 	 	 	 	 	 	 	 	 	 	 	 	 	 	 	 	1581542499	0.63	1.17
12/02/2020 21:21:40	120220	12022020	212140	83.10	12.275157	-56.990305	82.94	0.230	0.210	1.080	83.07	-1.10	1.50	 	 	 	 	 	 	 	 	 	 	 	 	 	 	 	 	 	 	1581542500	0.43	0.80
12/02/2020 21:21:41	120220	12022020	212141	82.95	12.275157	-56.990305	82.78	0.080	0.920	1.190	82.91	-0.40	1.60	 	 	 	 	 	 	 	 	 	 	 	 	 	 	 	 	 	 	1581542501	0.05	0.09
12/02/2020 21:21:42	120220	12022020	212142	82.86	12.275158	-56.990303	82.75	-0.200	1.120	0.890	82.87	-0.20	1.30	 	 	 	 	 	 	 	 	 	 	 	 	 	 	 	 	 	 	1581542502	0.45	0.83
12/02/2020 21:21:43	120220	12022020	212143	82.97	12.275162	-56.990302	82.89	-0.430	0.720	0.440	83.01	-0.60	0.80	 	 	 	 	 	 	 	 	 	 	 	 	 	 	 	 	 	 	1581542503	0.75	1.39
12/02/2020 21:21:44	120220	12022020	212144	83.12	12.275163	-56.990298	83.01	-0.430	-0.070	0.300	83.14	-1.40	0.70	 	 	 	 	 	 	 	 	 	 	 	 	 	 	 	 	 	 	1581542504	0.82	1.52
12/02/2020 21:21:45	120220	12022020	212145	83.17	12.275163	-56.990293	83.04	-0.180	-0.980	0.420	83.17	-2.30	0.80	 	 	 	 	 	 	 	 	 	 	 	 	 	 	 	 	 	 	1581542505	0.97	1.80
12/02/2020 21:21:46	120220	12022020	212146	83.16	12.275163	-56.990288	83.03	0.220	-1.800	0.560	83.16	-3.10	1.00	 	 	 	 	 	 	 	 	 	 	 	 	 	 	 	 	 	 	1581542506	1.24	2.30
12/02/2020 21:21:47	120220	12022020	212147	83.16	12.275163	-56.990283	83.04	0.520	-1.950	0.630	83.16	-3.20	1.00	 	 	 	 	 	 	 	 	 	 	 	 	 	 	 	 	 	 	1581542507	1.16	2.15
12/02/2020 21:21:48	120220	12022020	212148	83.19	12.275163	-56.990282	83.11	0.460	-0.860	0.720	83.21	-2.10	1.10	 	 	 	 	 	 	 	 	 	 	 	 	 	 	 	 	 	 	1581542508	0.26	0.48
12/02/2020 21:21:49	120220	12022020	212149	83.25	12.275162	-56.990285	83.15	-0.010	0.870	0.870	83.26	-0.40	1.30	 	 	 	 	 	 	 	 	 	 	 	 	 	 	 	 	 	 	1581542509	0.97	1.80
12/02/2020 21:21:50	120220	12022020	212150	83.23	12.275158	-56.990290	83.09	-0.540	1.880	1.120	83.21	0.60	1.50	 	 	 	 	 	 	 	 	 	 	 	 	 	 	 	 	 	 	1581542510	1.06	1.96
12/02/2020 21:21:51	120220	12022020	212151	83.09	12.275157	-56.990290	82.94	-0.670	1.470	1.220	83.06	0.10	1.60	 	 	 	 	 	 	 	 	 	 	 	 	 	 	 	 	 	 	1581542511	0.40	0.74
12/02/2020 21:21:52	120220	12022020	212152	82.95	12.275158	-56.990283	82.81	-0.290	-0.000	1.070	82.93	-1.40	1.50	 	 	 	 	 	 	 	 	 	 	 	 	 	 	 	 	 	 	1581542512	1.31	2.43
12/02/2020 21:21:53	120220	12022020	212153	82.90	12.275162	-56.990275	82.79	0.250	-1.460	0.860	82.90	-2.80	1.30	 	 	 	 	 	 	 	 	 	 	 	 	 	 	 	 	 	 	1581542513	1.79	3.32
12/02/2020 21:21:54	120220	12022020	212154	82.93	12.275163	-56.990270	82.84	0.520	-1.980	0.690	82.94	-3.30	1.10	 	 	 	 	 	 	 	 	 	 	 	 	 	 	 	 	 	 	1581542514	1.23	2.28
12/02/2020 21:21:55	120220	12022020	212155	83.01	12.275163	-56.990270	82.95	0.390	-1.380	0.580	83.04	-2.70	1.00	 	 	 	 	 	 	 	 	 	 	 	 	 	 	 	 	 	 	1581542515	0.14	0.26
12/02/2020 21:21:56	120220	12022020	212156	83.15	12.275163	-56.990272	83.09	0.140	-0.260	0.540	83.18	-1.50	0.90	 	 	 	 	 	 	 	 	 	 	 	 	 	 	 	 	 	 	1581542516	0.60	1.11
12/02/2020 21:21:57	120220	12022020	212157	83.29	12.275162	-56.990275	83.21	0.090	0.640	0.480	83.30	-0.70	0.90	 	 	 	 	 	 	 	 	 	 	 	 	 	 	 	 	 	 	1581542517	0.52	0.96
12/02/2020 21:21:58	120220	12022020	212158	83.28	12.275162	-56.990275	83.13	0.110	0.900	0.590	83.25	-0.40	1.00	 	 	 	 	 	 	 	 	 	 	 	 	 	 	 	 	 	 	1581542518	0.13	0.24
12/02/2020 21:21:59	120220	12022020	212159	83.11	12.275162	-56.990272	82.96	-0.110	0.680	0.920	83.07	-0.70	1.30	 	 	 	 	 	 	 	 	 	 	 	 	 	 	 	 	 	 	1581542519	0.48	0.89
12/02/2020 21:22:00	120220	12022020	212200	83.00	12.275160	-56.990270	82.92	-0.580	0.380	1.220	83.01	-1.00	1.60	 	 	 	 	 	 	 	 	 	 	 	 	 	 	 	 	 	 	1581542520	0.60	1.11
12/02/2020 21:22:01	120220	12022020	212201	83.07	12.275157	-56.990270	83.02	-0.870	-0.080	1.420	83.09	-1.40	1.80	 	 	 	 	 	 	 	 	 	 	 	 	 	 	 	 	 	 	1581542521	0.68	1.26
12/02/2020 21:22:02	120220	12022020	212202	83.09	12.275153	-56.990267	82.98	-0.550	-0.940	1.640	83.06	-2.30	2.00	1014.60	26.30	26.40	20.20	20.20	46.0	69.0	68.0	392.0	26.6	340.00	10.90	63.00	10.50	4425	12869.0	27.4	27.4	1581542522	0.81	1.50
12/02/2020 21:22:03	120220	12022020	212203	82.90	12.275153	-56.990262	82.75	0.300	-1.740	1.820	82.84	-3.10	2.20	 	 	 	 	 	 	 	 	 	 	 	 	 	 	 	 	 	 	1581542523	1.05	1.94
12/02/2020 21:22:04	120220	12022020	212204	82.65	12.275155	-56.990258	82.53	1.070	-1.690	1.830	82.61	-3.00	2.20	 	 	 	 	 	 	 	 	 	 	 	 	 	 	 	 	 	 	1581542524	0.80	1.48
12/02/2020 21:22:05	120220	12022020	212205	82.55	12.275157	-56.990258	82.50	1.130	-0.660	1.620	82.57	-1.90	2.00	 	 	 	 	 	 	 	 	 	 	 	 	 	 	 	 	 	 	1581542525	0.45	0.83
12/02/2020 21:22:06	120220	12022020	212206	82.71	12.275158	-56.990263	82.70	0.410	0.750	1.340	82.76	-0.50	1.70	 	 	 	 	 	 	 	 	 	 	 	 	 	 	 	 	 	 	1581542526	0.89	1.65
12/02/2020 21:22:07	120220	12022020	212207	82.91	12.275157	-56.990268	82.86	-0.570	1.660	1.170	82.94	0.30	1.60	 	 	 	 	 	 	 	 	 	 	 	 	 	 	 	 	 	 	1581542527	0.94	1.74
12/02/2020 21:22:08	120220	12022020	212208	83.00	12.275157	-56.990270	82.93	-1.120	1.550	1.020	83.01	0.20	1.40	 	 	 	 	 	 	 	 	 	 	 	 	 	 	 	 	 	 	1581542528	0.38	0.70
12/02/2020 21:22:09	120220	12022020	212209	83.07	12.275157	-56.990267	83.01	-0.930	0.420	0.690	83.09	-1.00	1.10	 	 	 	 	 	 	 	 	 	 	 	 	 	 	 	 	 	 	1581542529	0.54	1.00
12/02/2020 21:22:10	120220	12022020	212210	83.18	12.275158	-56.990262	83.11	-0.180	-1.150	0.310	83.19	-2.50	0.70	 	 	 	 	 	 	 	 	 	 	 	 	 	 	 	 	 	 	1581542530	1.22	2.26
12/02/2020 21:22:11	120220	12022020	212211	83.23	12.275158	-56.990255	83.10	0.630	-2.320	0.160	83.21	-3.70	0.60	 	 	 	 	 	 	 	 	 	 	 	 	 	 	 	 	 	 	1581542531	1.36	2.52
12/02/2020 21:22:12	120220	12022020	212212	83.00	12.275158	-56.990252	82.80	0.980	-2.230	0.420	82.93	-3.50	0.80	 	 	 	 	 	 	 	 	 	 	 	 	 	 	 	 	 	 	1581542532	0.81	1.50
12/02/2020 21:22:13	120220	12022020	212213	82.55	12.275157	-56.990253	82.34	0.630	-0.540	0.840	82.46	-1.80	1.30	 	 	 	 	 	 	 	 	 	 	 	 	 	 	 	 	 	 	1581542533	0.75	1.39
12/02/2020 21:22:14	120220	12022020	212214	82.23	12.275155	-56.990263	82.13	-0.170	1.610	1.030	82.21	0.30	1.40	 	 	 	 	 	 	 	 	 	 	 	 	 	 	 	 	 	 	1581542534	1.92	3.56
12/02/2020 21:22:15	120220	12022020	212215	82.37	12.275155	-56.990270	82.41	-0.890	2.510	0.840	82.45	1.20	1.20	 	 	 	 	 	 	 	 	 	 	 	 	 	 	 	 	 	 	1581542535	1.69	3.13
12/02/2020 21:22:16	120220	12022020	212216	82.88	12.275158	-56.990272	82.95	-1.020	1.350	0.420	82.99	-0.10	0.80	 	 	 	 	 	 	 	 	 	 	 	 	 	 	 	 	 	 	1581542536	0.44	0.81
12/02/2020 21:22:17	120220	12022020	212217	83.36	12.275158	-56.990263	83.35	-0.430	-1.040	0.170	83.42	-2.50	0.60	 	 	 	 	 	 	 	 	 	 	 	 	 	 	 	 	 	 	1581542537	1.70	3.15
12/02/2020 21:22:18	120220	12022020	212218	83.49	12.275157	-56.990253	83.39	0.450	-2.770	0.360	83.48	-4.10	0.80	 	 	 	 	 	 	 	 	 	 	 	 	 	 	 	 	 	 	1581542538	2.13	3.94
12/02/2020 21:22:19	120220	12022020	212219	83.36	12.275152	-56.990250	83.25	0.960	-2.530	0.880	83.33	-3.80	1.30	 	 	 	 	 	 	 	 	 	 	 	 	 	 	 	 	 	 	1581542539	1.17	2.17
12/02/2020 21:22:20	120220	12022020	212220	83.22	12.275148	-56.990255	83.15	0.780	-0.770	1.350	83.21	-2.00	1.80	 	 	 	 	 	 	 	 	 	 	 	 	 	 	 	 	 	 	1581542540	1.40	2.59
12/02/2020 21:22:21	120220	12022020	212221	83.18	12.275145	-56.990263	83.15	0.130	1.050	1.490	83.19	-0.20	1.90	 	 	 	 	 	 	 	 	 	 	 	 	 	 	 	 	 	 	1581542541	1.90	3.52
12/02/2020 21:22:22	120220	12022020	212222	83.27	12.275147	-56.990270	83.25	-0.440	1.820	1.100	83.30	0.50	1.50	 	 	 	 	 	 	 	 	 	 	 	 	 	 	 	 	 	 	1581542542	1.36	2.52
12/02/2020 21:22:23	120220	12022020	212223	83.39	12.275152	-56.990272	83.32	-0.550	1.290	0.420	83.40	-0.10	0.80	 	 	 	 	 	 	 	 	 	 	 	 	 	 	 	 	 	 	1581542543	0.85	1.57
12/02/2020 21:22:24	120220	12022020	212224	83.40	12.275155	-56.990268	83.30	-0.290	0.050	-0.100	83.40	-1.30	0.30	 	 	 	 	 	 	 	 	 	 	 	 	 	 	 	 	 	 	1581542544	1.07	1.98
12/02/2020 21:22:25	120220	12022020	212225	83.43	12.275158	-56.990265	83.37	-0.020	-1.010	-0.370	83.45	-2.40	0.00	 	 	 	 	 	 	 	 	 	 	 	 	 	 	 	 	 	 	1581542545	0.91	1.69
12/02/2020 21:22:26	120220	12022020	212226	83.67	12.275158	-56.990265	83.68	0.060	-1.400	-0.410	83.74	-2.70	0.00	 	 	 	 	 	 	 	 	 	 	 	 	 	 	 	 	 	 	1581542546	0.27	0.50
12/02/2020 21:22:27	120220	12022020	212227	84.06	12.275157	-56.990265	84.10	-0.040	-1.150	-0.190	84.15	-2.40	0.20	 	 	 	 	 	 	 	 	 	 	 	 	 	 	 	 	 	 	1581542547	0.50	0.93
12/02/2020 21:22:28	120220	12022020	212228	84.45	12.275153	-56.990268	84.47	-0.110	-0.590	0.250	84.51	-1.90	0.70	 	 	 	 	 	 	 	 	 	 	 	 	 	 	 	 	 	 	1581542548	1.02	1.89
12/02/2020 21:22:29	120220	12022020	212229	84.67	12.275147	-56.990270	84.63	-0.020	-0.050	1.000	84.68	-1.40	1.40	 	 	 	 	 	 	 	 	 	 	 	 	 	 	 	 	 	 	1581542549	1.34	2.48
12/02/2020 21:22:30	120220	12022020	212230	84.64	12.275140	-56.990272	84.56	0.170	0.260	1.860	84.62	-1.10	2.30	 	 	 	 	 	 	 	 	 	 	 	 	 	 	 	 	 	 	1581542550	1.42	2.63
12/02/2020 21:22:31	120220	12022020	212231	84.45	12.275137	-56.990272	84.35	0.360	0.190	2.390	84.40	-1.10	2.80	 	 	 	 	 	 	 	 	 	 	 	 	 	 	 	 	 	 	1581542551	0.88	1.63
12/02/2020 21:22:32	120220	12022020	212232	84.21	12.275137	-56.990272	84.12	0.490	-0.100	2.400	84.17	-1.40	2.80	 	 	 	 	 	 	 	 	 	 	 	 	 	 	 	 	 	 	1581542552	0.21	0.39
12/02/2020 21:22:33	120220	12022020	212233	84.07	12.275142	-56.990272	84.04	0.450	-0.220	2.020	84.07	-1.60	2.40	 	 	 	 	 	 	 	 	 	 	 	 	 	 	 	 	 	 	1581542553	0.96	1.78
12/02/2020 21:22:34	120220	12022020	212234	84.18	12.275147	-56.990273	84.22	0.160	-0.050	1.360	84.24	-1.40	1.70	 	 	 	 	 	 	 	 	 	 	 	 	 	 	 	 	 	 	1581542554	1.36	2.52
12/02/2020 21:22:35	120220	12022020	212235	84.60	12.275153	-56.990277	84.71	-0.290	0.170	0.500	84.72	-1.20	0.90	 	 	 	 	 	 	 	 	 	 	 	 	 	 	 	 	 	 	1581542555	1.29	2.39
12/02/2020 21:22:36	120220	12022020	212236	85.21	12.275155	-56.990278	85.30	-0.630	0.150	-0.210	85.33	-1.20	0.20	 	 	 	 	 	 	 	 	 	 	 	 	 	 	 	 	 	 	1581542556	0.77	1.43
12/02/2020 21:22:37	120220	12022020	212237	85.67	12.275153	-56.990278	85.65	-0.620	-0.260	-0.280	85.72	-1.60	0.10	 	 	 	 	 	 	 	 	 	 	 	 	 	 	 	 	 	 	1581542557	0.25	0.46
12/02/2020 21:22:38	120220	12022020	212238	85.79	12.275150	-56.990277	85.69	-0.160	-0.840	0.240	85.78	-2.20	0.70	 	 	 	 	 	 	 	 	 	 	 	 	 	 	 	 	 	 	1581542558	1.01	1.87
12/02/2020 21:22:39	120220	12022020	212239	85.63	12.275145	-56.990275	85.47	0.450	-1.150	1.020	85.57	-2.50	1.40	 	 	 	 	 	 	 	 	 	 	 	 	 	 	 	 	 	 	1581542559	1.21	2.24
12/02/2020 21:22:40	120220	12022020	212240	85.28	12.275142	-56.990273	85.11	0.710	-0.910	1.650	85.21	-2.20	2.10	 	 	 	 	 	 	 	 	 	 	 	 	 	 	 	 	 	 	1581542560	0.76	1.41
12/02/2020 21:22:41	120220	12022020	212241	85.00	12.275140	-56.990275	84.92	0.400	-0.220	1.960	84.98	-1.50	2.40	 	 	 	 	 	 	 	 	 	 	 	 	 	 	 	 	 	 	1581542561	0.41	0.76
12/02/2020 21:22:42	120220	12022020	212242	85.01	12.275140	-56.990278	85.03	-0.220	0.640	1.990	85.05	-0.70	2.40	 	 	 	 	 	 	 	 	 	 	 	 	 	 	 	 	 	 	1581542562	0.73	1.35
12/02/2020 21:22:43	120220	12022020	212243	85.27	12.275140	-56.990283	85.31	-0.670	1.270	1.690	85.33	-0.10	2.10	 	 	 	 	 	 	 	 	 	 	 	 	 	 	 	 	 	 	1581542563	0.93	1.72
12/02/2020 21:22:44	120220	12022020	212244	85.56	12.275143	-56.990287	85.55	-0.700	1.150	1.070	85.61	-0.20	1.40	 	 	 	 	 	 	 	 	 	 	 	 	 	 	 	 	 	 	1581542564	0.78	1.44
12/02/2020 21:22:45	120220	12022020	212245	85.74	12.275147	-56.990285	85.66	-0.380	0.150	0.390	85.75	-1.30	0.80	 	 	 	 	 	 	 	 	 	 	 	 	 	 	 	 	 	 	1581542565	0.80	1.48
12/02/2020 21:22:46	120220	12022020	212246	85.73	12.275148	-56.990282	85.59	0.070	-1.210	0.090	85.70	-2.60	0.50	 	 	 	 	 	 	 	 	 	 	 	 	 	 	 	 	 	 	1581542566	0.98	1.81
12/02/2020 21:22:47	120220	12022020	212247	85.57	12.275150	-56.990278	85.44	0.530	-2.080	0.160	85.55	-3.40	0.60	 	 	 	 	 	 	 	 	 	 	 	 	 	 	 	 	 	 	1581542567	0.87	1.61
12/02/2020 21:22:48	120220	12022020	212248	85.47	12.275150	-56.990277	85.36	0.890	-2.030	0.350	85.46	-3.30	0.80	 	 	 	 	 	 	 	 	 	 	 	 	 	 	 	 	 	 	1581542568	0.45	0.83
12/02/2020 21:22:49	120220	12022020	212249	85.40	12.275148	-56.990277	85.28	0.900	-1.100	0.640	85.37	-2.40	1.00	 	 	 	 	 	 	 	 	 	 	 	 	 	 	 	 	 	 	1581542569	0.29	0.54
12/02/2020 21:22:50	120220	12022020	212250	85.23	12.275147	-56.990282	85.09	0.350	0.440	1.050	85.18	-0.80	1.50	 	 	 	 	 	 	 	 	 	 	 	 	 	 	 	 	 	 	1581542570	0.98	1.81
12/02/2020 21:22:51	120220	12022020	212251	85.03	12.275143	-56.990288	84.96	-0.570	1.930	1.580	85.02	0.60	2.00	 	 	 	 	 	 	 	 	 	 	 	 	 	 	 	 	 	 	1581542571	1.58	2.93
12/02/2020 21:22:52	120220	12022020	212252	85.07	12.275138	-56.990293	85.09	-1.320	2.520	1.890	85.12	1.20	2.30	 	 	 	 	 	 	 	 	 	 	 	 	 	 	 	 	 	 	1581542572	1.56	2.89
12/02/2020 21:22:53	120220	12022020	212253	85.33	12.275137	-56.990295	85.33	-1.350	1.540	1.810	85.37	0.10	2.20	 	 	 	 	 	 	 	 	 	 	 	 	 	 	 	 	 	 	1581542573	0.60	1.11
12/02/2020 21:22:54	120220	12022020	212254	85.42	12.275137	-56.990290	85.31	-0.540	-0.850	1.610	85.40	-2.30	2.00	 	 	 	 	 	 	 	 	 	 	 	 	 	 	 	 	 	 	1581542574	1.10	2.04
12/02/2020 21:22:55	120220	12022020	212255	85.18	12.275138	-56.990282	85.01	0.610	-3.090	1.600	85.11	-4.50	2.00	 	 	 	 	 	 	 	 	 	 	 	 	 	 	 	 	 	 	1581542575	1.99	3.69
12/02/2020 21:22:56	120220	12022020	212256	84.86	12.275138	-56.990277	84.76	1.270	-3.230	1.690	84.83	-4.50	2.10	 	 	 	 	 	 	 	 	 	 	 	 	 	 	 	 	 	 	1581542576	0.90	1.67
12/02/2020 21:22:57	120220	12022020	212257	84.81	12.275138	-56.990283	84.77	1.050	-1.230	1.620	84.83	-2.40	2.00	 	 	 	 	 	 	 	 	 	 	 	 	 	 	 	 	 	 	1581542577	1.36	2.52
12/02/2020 21:22:58	120220	12022020	212258	84.90	12.275138	-56.990295	84.83	0.270	1.040	1.370	84.90	-0.20	1.80	 	 	 	 	 	 	 	 	 	 	 	 	 	 	 	 	 	 	1581542578	2.40	4.44
12/02/2020 21:22:59	120220	12022020	212259	84.87	12.275140	-56.990302	84.76	-0.380	1.920	0.990	84.85	0.60	1.40	 	 	 	 	 	 	 	 	 	 	 	 	 	 	 	 	 	 	1581542579	1.50	2.78
12/02/2020 21:23:00	120220	12022020	212300	84.79	12.275142	-56.990300	84.69	-0.480	1.130	0.440	84.79	-0.30	0.80	 	 	 	 	 	 	 	 	 	 	 	 	 	 	 	 	 	 	1581542580	0.43	0.80
12/02/2020 21:23:01	120220	12022020	212301	84.77	12.275145	-56.990295	84.66	-0.140	-0.210	-0.000	84.77	-1.60	0.40	 	 	 	 	 	 	 	 	 	 	 	 	 	 	 	 	 	 	1581542581	1.25	2.31
12/02/2020 21:23:02	120220	12022020	212302	84.73	12.275147	-56.990293	84.61	0.110	-0.860	-0.120	84.72	-2.20	0.30	1014.70	26.30	26.40	20.20	20.20	43.0	69.0	68.0	392.0	26.6	340.00	10.40	63.00	9.90	4281	12432.0	27.4	27.4	1581542582	0.80	1.48
12/02/2020 21:23:03	120220	12022020	212303	84.66	12.275147	-56.990295	84.55	-0.110	-0.540	0.000	84.65	-1.90	0.40	 	 	 	 	 	 	 	 	 	 	 	 	 	 	 	 	 	 	1581542583	0.49	0.91
12/02/2020 21:23:04	120220	12022020	212304	84.63	12.275145	-56.990300	84.53	-0.560	0.120	0.260	84.63	-1.20	0.70	 	 	 	 	 	 	 	 	 	 	 	 	 	 	 	 	 	 	1581542584	1.25	2.31
12/02/2020 21:23:05	120220	12022020	212305	84.62	12.275140	-56.990303	84.52	-0.710	0.190	0.650	84.61	-1.20	1.10	 	 	 	 	 	 	 	 	 	 	 	 	 	 	 	 	 	 	1581542585	1.25	2.31
12/02/2020 21:23:06	120220	12022020	212306	84.57	12.275135	-56.990303	84.48	-0.270	-0.530	1.090	84.56	-1.90	1.50	 	 	 	 	 	 	 	 	 	 	 	 	 	 	 	 	 	 	1581542586	1.07	1.98
12/02/2020 21:23:07	120220	12022020	212307	84.50	12.275132	-56.990300	84.41	0.400	-1.210	1.400	84.49	-2.60	1.80	 	 	 	 	 	 	 	 	 	 	 	 	 	 	 	 	 	 	1581542587	1.00	1.85
12/02/2020 21:23:08	120220	12022020	212308	84.45	12.275132	-56.990298	84.36	0.810	-1.170	1.490	84.43	-2.50	1.90	 	 	 	 	 	 	 	 	 	 	 	 	 	 	 	 	 	 	1581542588	0.28	0.52
12/02/2020 21:23:09	120220	12022020	212309	84.37	12.275132	-56.990300	84.27	0.730	-0.500	1.410	84.35	-1.80	1.80	 	 	 	 	 	 	 	 	 	 	 	 	 	 	 	 	 	 	1581542589	0.54	1.00
12/02/2020 21:23:10	120220	12022020	212310	84.23	12.275133	-56.990305	84.10	0.330	0.320	1.190	84.19	-1.00	1.60	 	 	 	 	 	 	 	 	 	 	 	 	 	 	 	 	 	 	1581542590	0.86	1.59
12/02/2020 21:23:11	120220	12022020	212311	83.99	12.275135	-56.990308	83.83	-0.090	0.840	1.000	83.94	-0.50	1.40	 	 	 	 	 	 	 	 	 	 	 	 	 	 	 	 	 	 	1581542591	0.74	1.37
12/02/2020 21:23:12	120220	12022020	212312	83.74	12.275137	-56.990310	83.62	-0.360	0.860	0.800	83.71	-0.50	1.20	 	 	 	 	 	 	 	 	 	 	 	 	 	 	 	 	 	 	1581542592	0.57	1.06
12/02/2020 21:23:13	120220	12022020	212313	83.71	12.275140	-56.990310	83.67	-0.480	0.450	0.480	83.74	-0.90	0.90	 	 	 	 	 	 	 	 	 	 	 	 	 	 	 	 	 	 	1581542593	0.62	1.15
12/02/2020 21:23:14	120220	12022020	212314	83.97	12.275142	-56.990310	83.98	-0.440	-0.190	0.100	84.04	-1.60	0.50	 	 	 	 	 	 	 	 	 	 	 	 	 	 	 	 	 	 	1581542594	0.47	0.87
12/02/2020 21:23:15	120220	12022020	212315	84.32	12.275142	-56.990310	84.30	-0.220	-0.830	0.170	84.36	-2.20	0.60	 	 	 	 	 	 	 	 	 	 	 	 	 	 	 	 	 	 	1581542595	0.31	0.57
12/02/2020 21:23:16	120220	12022020	212316	84.44	12.275135	-56.990308	84.33	0.150	-1.220	0.840	84.43	-2.60	1.30	 	 	 	 	 	 	 	 	 	 	 	 	 	 	 	 	 	 	1581542596	1.23	2.28
12/02/2020 21:23:17	120220	12022020	212317	84.22	12.275128	-56.990307	84.03	0.480	-1.240	1.710	84.13	-2.60	2.10	 	 	 	 	 	 	 	 	 	 	 	 	 	 	 	 	 	 	1581542597	1.44	2.67
12/02/2020 21:23:18	120220	12022020	212318	83.71	12.275125	-56.990307	83.48	0.590	-0.790	2.340	83.58	-2.10	2.80	 	 	 	 	 	 	 	 	 	 	 	 	 	 	 	 	 	 	1581542598	0.84	1.56
12/02/2020 21:23:19	120220	12022020	212319	83.13	12.275125	-56.990308	82.96	0.380	-0.010	2.570	83.04	-1.30	3.00	 	 	 	 	 	 	 	 	 	 	 	 	 	 	 	 	 	 	1581542599	0.42	0.78
12/02/2020 21:23:20	120220	12022020	212320	82.88	12.275127	-56.990312	82.87	-0.060	0.790	2.380	82.90	-0.50	2.80	 	 	 	 	 	 	 	 	 	 	 	 	 	 	 	 	 	 	1581542600	0.86	1.59
12/02/2020 21:23:21	120220	12022020	212321	83.18	12.275130	-56.990317	83.30	-0.480	1.140	1.730	83.30	-0.20	2.10	 	 	 	 	 	 	 	 	 	 	 	 	 	 	 	 	 	 	1581542601	0.93	1.72
12/02/2020 21:23:22	120220	12022020	212322	83.82	12.275132	-56.990317	83.93	-0.560	0.710	0.820	83.95	-0.70	1.20	 	 	 	 	 	 	 	 	 	 	 	 	 	 	 	 	 	 	1581542602	0.73	1.35
12/02/2020 21:23:23	120220	12022020	212323	84.31	12.275135	-56.990315	84.26	-0.260	-0.350	0.140	84.35	-1.80	0.50	 	 	 	 	 	 	 	 	 	 	 	 	 	 	 	 	 	 	1581542603	0.68	1.26
12/02/2020 21:23:24	120220	12022020	212324	84.28	12.275135	-56.990312	84.07	0.190	-1.330	0.050	84.21	-2.70	0.50	 	 	 	 	 	 	 	 	 	 	 	 	 	 	 	 	 	 	1581542604	0.85	1.57
12/02/2020 21:23:25	120220	12022020	212325	83.82	12.275132	-56.990308	83.56	0.530	-1.520	0.490	83.71	-2.80	0.90	 	 	 	 	 	 	 	 	 	 	 	 	 	 	 	 	 	 	1581542605	0.71	1.31
12/02/2020 21:23:26	120220	12022020	212326	83.30	12.275130	-56.990310	83.10	0.600	-0.870	1.070	83.22	-2.20	1.50	 	 	 	 	 	 	 	 	 	 	 	 	 	 	 	 	 	 	1581542606	0.52	0.96
12/02/2020 21:23:27	120220	12022020	212327	83.00	12.275130	-56.990313	82.89	0.350	-0.060	1.410	82.97	-1.40	1.80	 	 	 	 	 	 	 	 	 	 	 	 	 	 	 	 	 	 	1581542607	0.68	1.26
12/02/2020 21:23:28	120220	12022020	212328	82.98	12.275132	-56.990315	82.94	-0.070	0.370	1.390	83.00	-1.00	1.80	 	 	 	 	 	 	 	 	 	 	 	 	 	 	 	 	 	 	1581542608	0.58	1.07
12/02/2020 21:23:29	120220	12022020	212329	83.18	12.275133	-56.990315	83.19	-0.350	0.430	1.070	83.24	-0.90	1.50	 	 	 	 	 	 	 	 	 	 	 	 	 	 	 	 	 	 	1581542609	0.49	0.91
12/02/2020 21:23:30	120220	12022020	212330	83.61	12.275135	-56.990315	83.69	-0.370	0.390	0.660	83.73	-1.00	1.00	 	 	 	 	 	 	 	 	 	 	 	 	 	 	 	 	 	 	1581542610	0.30	0.56
12/02/2020 21:23:31	120220	12022020	212331	84.17	12.275133	-56.990317	84.21	-0.280	0.340	0.570	84.26	-1.00	1.00	 	 	 	 	 	 	 	 	 	 	 	 	 	 	 	 	 	 	1581542611	0.26	0.48
12/02/2020 21:23:32	120220	12022020	212332	84.42	12.275130	-56.990317	84.31	-0.180	0.060	1.010	84.40	-1.30	1.40	 	 	 	 	 	 	 	 	 	 	 	 	 	 	 	 	 	 	1581542612	0.85	1.57
12/02/2020 21:23:33	120220	12022020	212333	84.10	12.275125	-56.990315	83.84	-0.070	-0.490	1.770	83.97	-1.90	2.20	 	 	 	 	 	 	 	 	 	 	 	 	 	 	 	 	 	 	1581542613	1.04	1.93
12/02/2020 21:23:34	120220	12022020	212334	83.46	12.275122	-56.990312	83.24	0.090	-1.060	2.350	83.35	-2.40	2.80	 	 	 	 	 	 	 	 	 	 	 	 	 	 	 	 	 	 	1581542614	0.91	1.69
12/02/2020 21:23:35	120220	12022020	212335	83.07	12.275122	-56.990310	82.97	0.210	-1.110	2.410	83.04	-2.40	2.80	 	 	 	 	 	 	 	 	 	 	 	 	 	 	 	 	 	 	1581542615	0.42	0.78
12/02/2020 21:23:36	120220	12022020	212336	83.06	12.275125	-56.990312	83.03	0.160	-0.410	1.940	83.08	-1.70	2.30	 	 	 	 	 	 	 	 	 	 	 	 	 	 	 	 	 	 	1581542616	0.61	1.13
12/02/2020 21:23:37	120220	12022020	212337	83.23	12.275128	-56.990317	83.19	-0.070	0.510	1.160	83.27	-0.80	1.50	 	 	 	 	 	 	 	 	 	 	 	 	 	 	 	 	 	 	1581542617	1.36	2.52
12/02/2020 21:23:38	120220	12022020	212338	83.36	12.275132	-56.990320	83.27	-0.220	0.680	0.410	83.38	-0.70	0.80	 	 	 	 	 	 	 	 	 	 	 	 	 	 	 	 	 	 	1581542618	1.18	2.19
12/02/2020 21:23:39	120220	12022020	212339	83.42	12.275137	-56.990318	83.29	-0.040	-0.210	-0.310	83.42	-1.60	0.10	 	 	 	 	 	 	 	 	 	 	 	 	 	 	 	 	 	 	1581542619	1.06	1.96
12/02/2020 21:23:40	120220	12022020	212340	83.38	12.275140	-56.990312	83.21	0.360	-1.200	-0.750	83.36	-2.60	-0.30	 	 	 	 	 	 	 	 	 	 	 	 	 	 	 	 	 	 	1581542620	1.51	2.80
12/02/2020 21:23:41	120220	12022020	212341	83.23	12.275142	-56.990308	83.06	0.540	-1.150	-0.640	83.20	-2.50	-0.20	 	 	 	 	 	 	 	 	 	 	 	 	 	 	 	 	 	 	1581542621	0.76	1.41
12/02/2020 21:23:42	120220	12022020	212342	83.12	12.275140	-56.990312	83.03	0.280	-0.160	-0.070	83.12	-1.50	0.40	 	 	 	 	 	 	 	 	 	 	 	 	 	 	 	 	 	 	1581542622	0.60	1.11
12/02/2020 21:23:43	120220	12022020	212343	83.19	12.275137	-56.990315	83.14	-0.250	0.850	0.630	83.22	-0.50	1.10	 	 	 	 	 	 	 	 	 	 	 	 	 	 	 	 	 	 	1581542623	1.34	2.48
12/02/2020 21:23:44	120220	12022020	212344	83.29	12.275132	-56.990318	83.21	-0.620	1.130	1.200	83.30	-0.20	1.60	 	 	 	 	 	 	 	 	 	 	 	 	 	 	 	 	 	 	1581542624	1.18	2.19
12/02/2020 21:23:45	120220	12022020	212345	83.19	12.275128	-56.990317	83.02	-0.500	0.390	1.650	83.13	-1.00	2.10	 	 	 	 	 	 	 	 	 	 	 	 	 	 	 	 	 	 	1581542625	0.74	1.37
12/02/2020 21:23:46	120220	12022020	212346	82.82	12.275127	-56.990313	82.63	-0.070	-0.740	2.070	82.74	-2.10	2.50	 	 	 	 	 	 	 	 	 	 	 	 	 	 	 	 	 	 	1581542626	1.09	2.02
12/02/2020 21:23:47	120220	12022020	212347	82.48	12.275127	-56.990308	82.38	0.210	-1.190	2.390	82.45	-2.50	2.80	 	 	 	 	 	 	 	 	 	 	 	 	 	 	 	 	 	 	1581542627	0.73	1.35
12/02/2020 21:23:48	120220	12022020	212348	82.45	12.275127	-56.990310	82.46	0.070	-0.730	2.420	82.50	-2.00	2.80	 	 	 	 	 	 	 	 	 	 	 	 	 	 	 	 	 	 	1581542628	0.32	0.59
12/02/2020 21:23:49	120220	12022020	212349	82.76	12.275127	-56.990315	82.82	-0.250	-0.190	2.000	82.84	-1.50	2.40	 	 	 	 	 	 	 	 	 	 	 	 	 	 	 	 	 	 	1581542629	0.76	1.41
12/02/2020 21:23:50	120220	12022020	212350	83.07	12.275128	-56.990315	83.02	-0.300	-0.150	1.280	83.10	-1.50	1.60	 	 	 	 	 	 	 	 	 	 	 	 	 	 	 	 	 	 	1581542630	0.32	0.59
12/02/2020 21:23:51	120220	12022020	212351	83.02	12.275130	-56.990313	82.83	0.050	-0.310	0.660	82.96	-1.70	1.00	 	 	 	 	 	 	 	 	 	 	 	 	 	 	 	 	 	 	1581542631	0.60	1.11
12/02/2020 21:23:52	120220	12022020	212352	82.66	12.275133	-56.990312	82.43	0.470	-0.290	0.320	82.58	-1.60	0.70	 	 	 	 	 	 	 	 	 	 	 	 	 	 	 	 	 	 	1581542632	0.67	1.24
12/02/2020 21:23:53	120220	12022020	212353	82.30	12.275137	-56.990312	82.11	0.590	-0.140	0.240	82.24	-1.50	0.70	 	 	 	 	 	 	 	 	 	 	 	 	 	 	 	 	 	 	1581542633	0.56	1.04
12/02/2020 21:23:54	120220	12022020	212354	82.10	12.275138	-56.990312	81.96	0.390	-0.070	0.230	82.08	-1.40	0.60	 	 	 	 	 	 	 	 	 	 	 	 	 	 	 	 	 	 	1581542634	0.43	0.80
12/02/2020 21:23:55	120220	12022020	212355	82.11	12.275140	-56.990312	82.06	0.060	-0.020	0.080	82.15	-1.40	0.50	 	 	 	 	 	 	 	 	 	 	 	 	 	 	 	 	 	 	1581542635	0.44	0.81
12/02/2020 21:23:56	120220	12022020	212356	82.39	12.275142	-56.990312	82.39	-0.270	0.180	-0.100	82.46	-1.20	0.30	 	 	 	 	 	 	 	 	 	 	 	 	 	 	 	 	 	 	1581542636	0.38	0.70
12/02/2020 21:23:57	120220	12022020	212357	82.74	12.275140	-56.990313	82.70	-0.560	0.380	0.090	82.79	-1.00	0.50	 	 	 	 	 	 	 	 	 	 	 	 	 	 	 	 	 	 	1581542637	0.32	0.59
12/02/2020 21:23:58	120220	12022020	212358	82.79	12.275137	-56.990313	82.62	-0.660	0.230	0.850	82.73	-1.10	1.30	 	 	 	 	 	 	 	 	 	 	 	 	 	 	 	 	 	 	1581542638	1.00	1.85
12/02/2020 21:23:59	120220	12022020	212359	82.32	12.275130	-56.990312	82.03	-0.440	-0.370	1.970	82.17	-1.80	2.40	 	 	 	 	 	 	 	 	 	 	 	 	 	 	 	 	 	 	1581542639	1.48	2.74
12/02/2020 21:24:00	120220	12022020	212400	81.56	12.275125	-56.990308	81.32	0.040	-1.020	2.830	81.43	-2.40	3.20	 	 	 	 	 	 	 	 	 	 	 	 	 	 	 	 	 	 	1581542640	1.42	2.63
12/02/2020 21:24:01	120220	12022020	212401	81.15	12.275123	-56.990305	81.10	0.440	-1.070	2.950	81.15	-2.40	3.30	 	 	 	 	 	 	 	 	 	 	 	 	 	 	 	 	 	 	1581542641	0.57	1.06
12/02/2020 21:24:02	120220	12022020	212402	81.35	12.275125	-56.990307	81.41	0.510	-0.560	2.420	81.44	-1.90	2.80	1014.70	26.40	26.50	20.20	20.20	44.0	68.0	68.0	396.0	26.5	343.00	9.60	65.00	9.30	4168	14523.0	27.5	27.4	1581542642	0.56	1.04
12/02/2020 21:24:03	120220	12022020	212403	81.75	12.275130	-56.990308	81.72	0.300	-0.100	1.660	81.80	-1.40	2.00	 	 	 	 	 	 	 	 	 	 	 	 	 	 	 	 	 	 	1581542643	0.95	1.76
12/02/2020 21:24:04	120220	12022020	212404	81.82	12.275133	-56.990308	81.64	0.090	-0.080	0.940	81.78	-1.40	1.30	 	 	 	 	 	 	 	 	 	 	 	 	 	 	 	 	 	 	1581542644	0.89	1.65
12/02/2020 21:24:05	120220	12022020	212405	81.55	12.275137	-56.990307	81.33	0.090	-0.130	0.430	81.50	-1.50	0.80	 	 	 	 	 	 	 	 	 	 	 	 	 	 	 	 	 	 	1581542645	0.77	1.43
12/02/2020 21:24:06	120220	12022020	212406	81.28	12.275138	-56.990307	81.08	0.160	0.200	0.120	81.24	-1.10	0.50	 	 	 	 	 	 	 	 	 	 	 	 	 	 	 	 	 	 	1581542646	0.40	0.74
12/02/2020 21:24:07	120220	12022020	212407	81.05	12.275140	-56.990308	80.86	-0.020	0.700	0.070	81.01	-0.60	0.50	 	 	 	 	 	 	 	 	 	 	 	 	 	 	 	 	 	 	1581542647	0.45	0.83
12/02/2020 21:24:08	120220	12022020	212408	80.83	12.275140	-56.990310	80.63	-0.470	0.800	0.090	80.78	-0.60	0.50	 	 	 	 	 	 	 	 	 	 	 	 	 	 	 	 	 	 	1581542648	0.52	0.96
12/02/2020 21:24:09	120220	12022020	212409	80.51	12.275140	-56.990310	80.26	-0.760	0.050	0.150	80.43	-1.30	0.60	 	 	 	 	 	 	 	 	 	 	 	 	 	 	 	 	 	 	1581542649	0.16	0.30
12/02/2020 21:24:10	120220	12022020	212410	80.04	12.275142	-56.990305	79.79	-0.460	-1.310	0.310	79.94	-2.70	0.70	 	 	 	 	 	 	 	 	 	 	 	 	 	 	 	 	 	 	1581542650	1.10	2.04
12/02/2020 21:24:11	120220	12022020	212411	79.70	12.275142	-56.990298	79.59	0.300	-2.210	0.370	79.69	-3.50	0.80	 	 	 	 	 	 	 	 	 	 	 	 	 	 	 	 	 	 	1581542651	1.48	2.74
12/02/2020 21:24:12	120220	12022020	212412	79.87	12.275143	-56.990295	79.91	0.820	-1.670	0.330	79.95	-2.90	0.70	 	 	 	 	 	 	 	 	 	 	 	 	 	 	 	 	 	 	1581542652	0.55	1.02
12/02/2020 21:24:13	120220	12022020	212413	80.38	12.275143	-56.990300	80.44	0.610	-0.040	0.330	80.48	-1.30	0.70	 	 	 	 	 	 	 	 	 	 	 	 	 	 	 	 	 	 	1581542653	0.83	1.54
12/02/2020 21:24:14	120220	12022020	212414	80.75	12.275138	-56.990305	80.70	-0.110	1.450	0.540	80.78	0.20	0.90	 	 	 	 	 	 	 	 	 	 	 	 	 	 	 	 	 	 	1581542654	1.44	2.67
12/02/2020 21:24:15	120220	12022020	212415	80.78	12.275135	-56.990308	80.65	-0.730	1.840	0.940	80.75	0.50	1.40	 	 	 	 	 	 	 	 	 	 	 	 	 	 	 	 	 	 	1581542655	1.15	2.13
12/02/2020 21:24:16	120220	12022020	212416	80.55	12.275130	-56.990305	80.36	-0.750	0.990	1.390	80.48	-0.40	1.80	 	 	 	 	 	 	 	 	 	 	 	 	 	 	 	 	 	 	1581542656	0.95	1.76
12/02/2020 21:24:17	120220	12022020	212417	80.09	12.275130	-56.990300	79.86	-0.240	-0.500	1.780	79.98	-1.90	2.20	 	 	 	 	 	 	 	 	 	 	 	 	 	 	 	 	 	 	1581542657	1.28	2.37
12/02/2020 21:24:18	120220	12022020	212418	79.55	12.275132	-56.990293	79.37	0.330	-1.670	1.930	79.47	-3.00	2.30	 	 	 	 	 	 	 	 	 	 	 	 	 	 	 	 	 	 	1581542658	1.32	2.44
12/02/2020 21:24:19	120220	12022020	212419	79.29	12.275133	-56.990292	79.23	0.530	-1.760	1.840	79.28	-3.10	2.20	 	 	 	 	 	 	 	 	 	 	 	 	 	 	 	 	 	 	1581542659	0.71	1.31
12/02/2020 21:24:20	120220	12022020	212420	79.38	12.275133	-56.990293	79.38	0.280	-0.930	1.600	79.42	-2.20	2.00	 	 	 	 	 	 	 	 	 	 	 	 	 	 	 	 	 	 	1581542660	0.44	0.81
12/02/2020 21:24:21	120220	12022020	212421	79.57	12.275135	-56.990297	79.56	-0.110	0.020	1.240	79.61	-1.30	1.60	 	 	 	 	 	 	 	 	 	 	 	 	 	 	 	 	 	 	1581542661	0.74	1.37
12/02/2020 21:24:22	120220	12022020	212422	79.75	12.275137	-56.990298	79.73	-0.280	0.420	0.730	79.79	-0.90	1.10	 	 	 	 	 	 	 	 	 	 	 	 	 	 	 	 	 	 	1581542662	0.48	0.89
12/02/2020 21:24:23	120220	12022020	212423	79.96	12.275140	-56.990297	79.92	-0.100	0.350	0.150	80.00	-1.00	0.50	 	 	 	 	 	 	 	 	 	 	 	 	 	 	 	 	 	 	1581542663	0.68	1.26
12/02/2020 21:24:24	120220	12022020	212424	80.12	12.275142	-56.990295	80.06	0.270	0.090	-0.260	80.15	-1.30	0.10	 	 	 	 	 	 	 	 	 	 	 	 	 	 	 	 	 	 	1581542664	0.75	1.39
12/02/2020 21:24:25	120220	12022020	212425	80.16	12.275143	-56.990292	80.07	0.490	-0.120	-0.250	80.16	-1.50	0.20	 	 	 	 	 	 	 	 	 	 	 	 	 	 	 	 	 	 	1581542665	0.55	1.02
12/02/2020 21:24:26	120220	12022020	212426	80.12	12.275142	-56.990290	80.05	0.320	-0.060	0.130	80.12	-1.40	0.60	 	 	 	 	 	 	 	 	 	 	 	 	 	 	 	 	 	 	1581542666	0.40	0.74
12/02/2020 21:24:27	120220	12022020	212427	80.10	12.275138	-56.990290	80.01	-0.140	0.040	0.680	80.07	-1.30	1.10	 	 	 	 	 	 	 	 	 	 	 	 	 	 	 	 	 	 	1581542667	0.56	1.04
12/02/2020 21:24:28	120220	12022020	212428	79.90	12.275137	-56.990290	79.75	-0.540	-0.090	1.280	79.84	-1.40	1.70	 	 	 	 	 	 	 	 	 	 	 	 	 	 	 	 	 	 	1581542668	0.53	0.98
12/02/2020 21:24:29	120220	12022020	212429	79.50	12.275133	-56.990288	79.34	-0.600	-0.360	1.890	79.42	-1.70	2.30	 	 	 	 	 	 	 	 	 	 	 	 	 	 	 	 	 	 	1581542669	0.68	1.26
12/02/2020 21:24:30	120220	12022020	212430	79.18	12.275132	-56.990287	79.11	-0.260	-0.660	2.160	79.15	-2.00	2.60	 	 	 	 	 	 	 	 	 	 	 	 	 	 	 	 	 	 	1581542670	0.66	1.22
12/02/2020 21:24:31	120220	12022020	212431	79.20	12.275132	-56.990283	79.22	0.180	-0.790	1.950	79.23	-2.10	2.30	 	 	 	 	 	 	 	 	 	 	 	 	 	 	 	 	 	 	1581542671	0.44	0.81
12/02/2020 21:24:32	120220	12022020	212432	79.50	12.275135	-56.990283	79.56	0.410	-0.490	1.360	79.57	-1.80	1.70	 	 	 	 	 	 	 	 	 	 	 	 	 	 	 	 	 	 	1581542672	0.54	1.00
12/02/2020 21:24:33	120220	12022020	212433	79.90	12.275138	-56.990285	79.95	0.330	0.030	0.660	79.99	-1.30	1.00	 	 	 	 	 	 	 	 	 	 	 	 	 	 	 	 	 	 	1581542673	0.92	1.70
12/02/2020 21:24:34	120220	12022020	212434	80.21	12.275142	-56.990287	80.16	0.060	0.270	0.160	80.23	-1.10	0.50	 	 	 	 	 	 	 	 	 	 	 	 	 	 	 	 	 	 	1581542674	0.68	1.26
12/02/2020 21:24:35	120220	12022020	212435	80.15	12.275142	-56.990285	79.98	-0.180	0.070	0.010	80.09	-1.30	0.40	 	 	 	 	 	 	 	 	 	 	 	 	 	 	 	 	 	 	1581542675	0.33	0.61
12/02/2020 21:24:36	120220	12022020	212436	79.74	12.275142	-56.990283	79.53	-0.220	-0.250	0.250	79.65	-1.60	0.70	 	 	 	 	 	 	 	 	 	 	 	 	 	 	 	 	 	 	1581542676	0.54	1.00
12/02/2020 21:24:37	120220	12022020	212437	79.33	12.275142	-56.990282	79.22	-0.040	-0.320	0.570	79.29	-1.70	1.00	 	 	 	 	 	 	 	 	 	 	 	 	 	 	 	 	 	 	1581542677	0.40	0.74
12/02/2020 21:24:38	120220	12022020	212438	79.28	12.275142	-56.990282	79.27	0.210	-0.220	0.690	79.31	-1.60	1.10	 	 	 	 	 	 	 	 	 	 	 	 	 	 	 	 	 	 	1581542678	0.12	0.22
12/02/2020 21:24:39	120220	12022020	212439	79.45	12.275142	-56.990280	79.43	0.360	-0.210	0.640	79.49	-1.60	1.00	 	 	 	 	 	 	 	 	 	 	 	 	 	 	 	 	 	 	1581542679	0.12	0.22
12/02/2020 21:24:40	120220	12022020	212440	79.54	12.275143	-56.990278	79.46	0.340	-0.450	0.600	79.54	-1.80	1.00	 	 	 	 	 	 	 	 	 	 	 	 	 	 	 	 	 	 	1581542680	0.47	0.87
12/02/2020 21:24:41	120220	12022020	212441	79.44	12.275143	-56.990277	79.31	0.150	-0.680	0.800	79.40	-2.00	1.20	 	 	 	 	 	 	 	 	 	 	 	 	 	 	 	 	 	 	1581542681	0.62	1.15
12/02/2020 21:24:42	120220	12022020	212442	79.21	12.275142	-56.990275	79.11	-0.150	-0.440	1.300	79.17	-1.70	1.70	 	 	 	 	 	 	 	 	 	 	 	 	 	 	 	 	 	 	1581542682	0.52	0.96
12/02/2020 21:24:43	120220	12022020	212443	79.14	12.275140	-56.990275	79.14	-0.440	0.300	1.680	79.16	-1.00	2.10	 	 	 	 	 	 	 	 	 	 	 	 	 	 	 	 	 	 	1581542683	0.70	1.30
12/02/2020 21:24:44	120220	12022020	212444	79.40	12.275137	-56.990278	79.47	-0.540	0.920	1.580	79.47	-0.40	1.90	 	 	 	 	 	 	 	 	 	 	 	 	 	 	 	 	 	 	1581542684	0.81	1.50
12/02/2020 21:24:45	120220	12022020	212445	79.75	12.275137	-56.990280	79.76	-0.370	0.700	1.110	79.80	-0.70	1.50	 	 	 	 	 	 	 	 	 	 	 	 	 	 	 	 	 	 	1581542685	0.25	0.46
12/02/2020 21:24:46	120220	12022020	212446	79.88	12.275138	-56.990277	79.79	0.000	-0.330	0.750	79.87	-1.70	1.10	 	 	 	 	 	 	 	 	 	 	 	 	 	 	 	 	 	 	1581542686	0.73	1.35
12/02/2020 21:24:47	120220	12022020	212447	79.71	12.275140	-56.990272	79.54	0.340	-1.350	0.740	79.64	-2.70	1.10	 	 	 	 	 	 	 	 	 	 	 	 	 	 	 	 	 	 	1581542687	1.17	2.17
12/02/2020 21:24:48	120220	12022020	212448	79.32	12.275140	-56.990268	79.11	0.460	-1.510	0.870	79.23	-2.80	1.30	 	 	 	 	 	 	 	 	 	 	 	 	 	 	 	 	 	 	1581542688	0.64	1.19
12/02/2020 21:24:49	120220	12022020	212449	78.92	12.275142	-56.990268	78.74	0.410	-0.950	0.830	78.85	-2.20	1.20	 	 	 	 	 	 	 	 	 	 	 	 	 	 	 	 	 	 	1581542689	0.42	0.78
12/02/2020 21:24:50	120220	12022020	212450	78.68	12.275145	-56.990270	78.59	0.330	-0.270	0.540	78.66	-1.60	0.90	 	 	 	 	 	 	 	 	 	 	 	 	 	 	 	 	 	 	1581542690	0.73	1.35
12/02/2020 21:24:51	120220	12022020	212451	78.75	12.275148	-56.990272	78.76	0.180	0.360	0.110	78.80	-0.90	0.50	 	 	 	 	 	 	 	 	 	 	 	 	 	 	 	 	 	 	1581542691	0.78	1.44
12/02/2020 21:24:52	120220	12022020	212452	79.15	12.275150	-56.990273	79.24	-0.160	0.920	-0.150	79.26	-0.40	0.20	 	 	 	 	 	 	 	 	 	 	 	 	 	 	 	 	 	 	1581542692	0.45	0.83
12/02/2020 21:24:53	120220	12022020	212453	79.70	12.275148	-56.990275	79.75	-0.580	1.090	-0.160	79.79	-0.30	0.20	 	 	 	 	 	 	 	 	 	 	 	 	 	 	 	 	 	 	1581542693	0.39	0.72
12/02/2020 21:24:54	120220	12022020	212454	79.99	12.275147	-56.990273	79.90	-0.690	0.510	0.240	79.99	-0.90	0.70	 	 	 	 	 	 	 	 	 	 	 	 	 	 	 	 	 	 	1581542694	0.66	1.22
12/02/2020 21:24:55	120220	12022020	212455	79.82	12.275142	-56.990268	79.64	-0.300	-0.670	0.980	79.75	-2.00	1.40	 	 	 	 	 	 	 	 	 	 	 	 	 	 	 	 	 	 	1581542695	1.28	2.37
12/02/2020 21:24:56	120220	12022020	212456	79.42	12.275140	-56.990263	79.25	0.320	-1.560	1.800	79.34	-2.90	2.20	 	 	 	 	 	 	 	 	 	 	 	 	 	 	 	 	 	 	1581542696	1.42	2.63
12/02/2020 21:24:57	120220	12022020	212457	79.04	12.275137	-56.990260	78.93	0.710	-1.520	2.470	78.98	-2.80	2.90	 	 	 	 	 	 	 	 	 	 	 	 	 	 	 	 	 	 	1581542697	0.80	1.48
12/02/2020 21:24:58	120220	12022020	212458	78.87	12.275137	-56.990262	78.84	0.610	-0.800	2.560	78.87	-2.10	2.90	 	 	 	 	 	 	 	 	 	 	 	 	 	 	 	 	 	 	1581542698	0.26	0.48
12/02/2020 21:24:59	120220	12022020	212459	79.03	12.275138	-56.990263	79.08	0.160	0.110	1.960	79.10	-1.20	2.30	 	 	 	 	 	 	 	 	 	 	 	 	 	 	 	 	 	 	1581542699	0.75	1.39
12/02/2020 21:25:00	120220	12022020	212500	79.38	12.275142	-56.990268	79.40	-0.420	0.940	1.130	79.44	-0.40	1.50	 	 	 	 	 	 	 	 	 	 	 	 	 	 	 	 	 	 	1581542700	1.07	1.98
12/02/2020 21:25:01	120220	12022020	212501	79.60	12.275145	-56.990272	79.53	-0.810	1.310	0.420	79.61	-0.10	0.80	 	 	 	 	 	 	 	 	 	 	 	 	 	 	 	 	 	 	1581542701	1.00	1.85
12/02/2020 21:25:02	120220	12022020	212502	79.55	12.275148	-56.990272	79.40	-0.770	0.770	-0.130	79.51	-0.60	0.20	1014.70	26.50	26.50	20.60	20.60	46.0	70.0	69.0	398.0	26.5	350.00	9.40	69.00	9.10	4037	12249.0	27.4	27.4	1581542702	0.64	1.19
12/02/2020 21:25:03	120220	12022020	212503	79.37	12.275152	-56.990268	79.23	-0.230	-0.580	-0.560	79.34	-2.00	-0.20	 	 	 	 	 	 	 	 	 	 	 	 	 	 	 	 	 	 	1581542703	1.06	1.96
12/02/2020 21:25:04	120220	12022020	212504	79.26	12.275155	-56.990262	79.16	0.500	-1.860	-0.760	79.26	-3.20	-0.40	 	 	 	 	 	 	 	 	 	 	 	 	 	 	 	 	 	 	1581542704	1.50	2.78
12/02/2020 21:25:05	120220	12022020	212505	79.29	12.275157	-56.990258	79.23	0.900	-2.100	-0.680	79.31	-3.40	-0.30	 	 	 	 	 	 	 	 	 	 	 	 	 	 	 	 	 	 	1581542705	1.00	1.85
12/02/2020 21:25:06	120220	12022020	212506	79.38	12.275157	-56.990258	79.32	0.690	-1.110	-0.280	79.39	-2.40	0.10	 	 	 	 	 	 	 	 	 	 	 	 	 	 	 	 	 	 	1581542706	0.25	0.46
12/02/2020 21:25:07	120220	12022020	212507	79.44	12.275152	-56.990263	79.40	0.040	0.530	0.390	79.45	-0.80	0.80	 	 	 	 	 	 	 	 	 	 	 	 	 	 	 	 	 	 	1581542707	1.30	2.41
12/02/2020 21:25:08	120220	12022020	212508	79.55	12.275147	-56.990268	79.54	-0.660	1.840	1.150	79.58	0.50	1.60	 	 	 	 	 	 	 	 	 	 	 	 	 	 	 	 	 	 	1581542708	1.67	3.09
12/02/2020 21:25:09	120220	12022020	212509	79.62	12.275142	-56.990272	79.56	-0.960	1.960	1.910	79.61	0.60	2.30	 	 	 	 	 	 	 	 	 	 	 	 	 	 	 	 	 	 	1581542709	1.32	2.44
12/02/2020 21:25:10	120220	12022020	212510	79.49	12.275138	-56.990268	79.40	-0.590	0.650	2.340	79.45	-0.80	2.70	 	 	 	 	 	 	 	 	 	 	 	 	 	 	 	 	 	 	1581542710	0.85	1.57
12/02/2020 21:25:11	120220	12022020	212511	79.27	12.275140	-56.990262	79.16	0.170	-1.240	2.420	79.22	-2.60	2.80	 	 	 	 	 	 	 	 	 	 	 	 	 	 	 	 	 	 	1581542711	1.49	2.76
12/02/2020 21:25:12	120220	12022020	212512	79.01	12.275143	-56.990257	78.91	0.670	-2.270	2.320	78.96	-3.60	2.70	 	 	 	 	 	 	 	 	 	 	 	 	 	 	 	 	 	 	1581542712	1.43	2.65
12/02/2020 21:25:13	120220	12022020	212513	78.91	12.275147	-56.990257	78.93	0.580	-1.810	1.970	78.94	-3.10	2.30	 	 	 	 	 	 	 	 	 	 	 	 	 	 	 	 	 	 	1581542713	0.82	1.52
12/02/2020 21:25:14	120220	12022020	212514	79.29	12.275150	-56.990262	79.44	0.180	-0.580	1.270	79.42	-1.90	1.60	 	 	 	 	 	 	 	 	 	 	 	 	 	 	 	 	 	 	1581542714	1.35	2.50
12/02/2020 21:25:15	120220	12022020	212515	80.03	12.275152	-56.990267	80.18	-0.090	0.440	0.510	80.18	-0.90	0.90	 	 	 	 	 	 	 	 	 	 	 	 	 	 	 	 	 	 	1581542715	1.16	2.15
12/02/2020 21:25:16	120220	12022020	212516	80.63	12.275152	-56.990268	80.62	-0.120	0.790	0.010	80.69	-0.60	0.40	 	 	 	 	 	 	 	 	 	 	 	 	 	 	 	 	 	 	1581542716	0.41	0.76
12/02/2020 21:25:17	120220	12022020	212517	80.67	12.275152	-56.990268	80.48	-0.050	0.580	-0.060	80.61	-0.80	0.30	 	 	 	 	 	 	 	 	 	 	 	 	 	 	 	 	 	 	1581542717	0.25	0.46
12/02/2020 21:25:18	120220	12022020	212518	80.21	12.275150	-56.990267	79.93	-0.040	0.210	0.240	80.09	-1.20	0.70	 	 	 	 	 	 	 	 	 	 	 	 	 	 	 	 	 	 	1581542718	0.50	0.93
12/02/2020 21:25:19	120220	12022020	212519	79.50	12.275148	-56.990265	79.19	-0.080	-0.070	0.820	79.34	-1.40	1.20	 	 	 	 	 	 	 	 	 	 	 	 	 	 	 	 	 	 	1581542719	0.47	0.87
12/02/2020 21:25:20	120220	12022020	212520	78.84	12.275148	-56.990265	78.68	-0.140	-0.240	1.150	78.77	-1.60	1.50	 	 	 	 	 	 	 	 	 	 	 	 	 	 	 	 	 	 	1581542720	0.04	0.07
12/02/2020 21:25:21	120220	12022020	212521	78.79	12.275152	-56.990267	78.84	-0.190	-0.400	0.760	78.85	-1.80	1.10	 	 	 	 	 	 	 	 	 	 	 	 	 	 	 	 	 	 	1581542721	0.85	1.57
12/02/2020 21:25:22	120220	12022020	212522	79.36	12.275158	-56.990268	79.50	-0.180	-0.590	-0.000	79.51	-1.90	0.40	 	 	 	 	 	 	 	 	 	 	 	 	 	 	 	 	 	 	1581542722	1.34	2.48
12/02/2020 21:25:23	120220	12022020	212523	80.06	12.275162	-56.990268	80.13	-0.080	-0.830	-0.330	80.17	-2.20	0.10	 	 	 	 	 	 	 	 	 	 	 	 	 	 	 	 	 	 	1581542723	0.69	1.28
12/02/2020 21:25:24	120220	12022020	212524	80.41	12.275160	-56.990267	80.35	0.150	-0.960	0.090	80.43	-2.30	0.50	 	 	 	 	 	 	 	 	 	 	 	 	 	 	 	 	 	 	1581542724	0.64	1.19
12/02/2020 21:25:25	120220	12022020	212525	80.31	12.275153	-56.990263	80.15	0.430	-0.700	0.880	80.24	-2.00	1.30	 	 	 	 	 	 	 	 	 	 	 	 	 	 	 	 	 	 	1581542725	1.30	2.41
12/02/2020 21:25:26	120220	12022020	212526	79.91	12.275148	-56.990265	79.73	0.540	0.010	1.670	79.82	-1.30	2.10	 	 	 	 	 	 	 	 	 	 	 	 	 	 	 	 	 	 	1581542726	1.13	2.09
12/02/2020 21:25:27	120220	12022020	212527	79.49	12.275145	-56.990267	79.37	0.260	0.850	2.240	79.43	-0.50	2.60	 	 	 	 	 	 	 	 	 	 	 	 	 	 	 	 	 	 	1581542727	0.88	1.63
12/02/2020 21:25:28	120220	12022020	212528	79.34	12.275145	-56.990270	79.35	-0.340	1.190	2.280	79.37	-0.20	2.70	 	 	 	 	 	 	 	 	 	 	 	 	 	 	 	 	 	 	1581542728	0.73	1.35
12/02/2020 21:25:29	120220	12022020	212529	79.54	12.275147	-56.990272	79.56	-0.840	0.680	1.740	79.58	-0.70	2.10	 	 	 	 	 	 	 	 	 	 	 	 	 	 	 	 	 	 	1581542729	0.55	1.02
12/02/2020 21:25:30	120220	12022020	212530	79.67	12.275150	-56.990270	79.58	-0.740	-0.360	1.050	79.66	-1.80	1.40	 	 	 	 	 	 	 	 	 	 	 	 	 	 	 	 	 	 	1581542730	0.77	1.43
12/02/2020 21:25:31	120220	12022020	212531	79.56	12.275155	-56.990268	79.43	0.000	-1.370	0.330	79.53	-2.70	0.70	 	 	 	 	 	 	 	 	 	 	 	 	 	 	 	 	 	 	1581542731	1.12	2.07
12/02/2020 21:25:32	120220	12022020	212532	79.49	12.275160	-56.990267	79.41	0.840	-1.860	-0.350	79.50	-3.20	0.00	 	 	 	 	 	 	 	 	 	 	 	 	 	 	 	 	 	 	1581542732	1.29	2.39
12/02/2020 21:25:33	120220	12022020	212533	79.61	12.275163	-56.990265	79.56	1.100	-1.520	-0.580	79.64	-2.80	-0.20	 	 	 	 	 	 	 	 	 	 	 	 	 	 	 	 	 	 	1581542733	0.82	1.52
12/02/2020 21:25:34	120220	12022020	212534	79.73	12.275163	-56.990268	79.68	0.560	-0.410	-0.160	79.75	-1.70	0.30	 	 	 	 	 	 	 	 	 	 	 	 	 	 	 	 	 	 	1581542734	0.56	1.04
12/02/2020 21:25:35	120220	12022020	212535	79.83	12.275158	-56.990273	79.79	-0.390	0.990	0.380	79.86	-0.30	0.80	 	 	 	 	 	 	 	 	 	 	 	 	 	 	 	 	 	 	1581542735	1.39	2.57
12/02/2020 21:25:36	120220	12022020	212536	79.95	12.275155	-56.990278	79.91	-1.070	1.850	0.710	79.98	0.50	1.10	 	 	 	 	 	 	 	 	 	 	 	 	 	 	 	 	 	 	1581542736	1.42	2.63
12/02/2020 21:25:37	120220	12022020	212537	79.99	12.275152	-56.990280	79.90	-1.030	1.480	0.980	79.98	0.10	1.40	 	 	 	 	 	 	 	 	 	 	 	 	 	 	 	 	 	 	1581542737	0.67	1.24
12/02/2020 21:25:38	120220	12022020	212538	79.84	12.275150	-56.990277	79.71	-0.410	0.070	1.410	79.79	-1.30	1.80	 	 	 	 	 	 	 	 	 	 	 	 	 	 	 	 	 	 	1581542738	0.94	1.74
12/02/2020 21:25:39	120220	12022020	212539	79.57	12.275148	-56.990272	79.43	0.340	-1.410	1.800	79.51	-2.80	2.20	 	 	 	 	 	 	 	 	 	 	 	 	 	 	 	 	 	 	1581542739	1.29	2.39
12/02/2020 21:25:40	120220	12022020	212540	79.32	12.275148	-56.990268	79.22	0.780	-1.990	1.860	79.28	-3.30	2.30	 	 	 	 	 	 	 	 	 	 	 	 	 	 	 	 	 	 	1581542740	0.71	1.31
12/02/2020 21:25:41	120220	12022020	212541	79.22	12.275152	-56.990270	79.18	0.740	-1.360	1.540	79.23	-2.70	1.90	 	 	 	 	 	 	 	 	 	 	 	 	 	 	 	 	 	 	1581542741	0.78	1.44
12/02/2020 21:25:42	120220	12022020	212542	79.36	12.275155	-56.990275	79.35	0.380	-0.300	1.010	79.40	-1.60	1.40	 	 	 	 	 	 	 	 	 	 	 	 	 	 	 	 	 	 	1581542742	1.40	2.59
12/02/2020 21:25:43	120220	12022020	212543	79.55	12.275158	-56.990280	79.47	-0.020	0.340	0.540	79.56	-1.00	0.90	 	 	 	 	 	 	 	 	 	 	 	 	 	 	 	 	 	 	1581542743	1.05	1.94
12/02/2020 21:25:44	120220	12022020	212544	79.49	12.275158	-56.990280	79.33	-0.210	0.400	0.360	79.44	-1.00	0.80	 	 	 	 	 	 	 	 	 	 	 	 	 	 	 	 	 	 	1581542744	0.33	0.61
12/02/2020 21:25:45	120220	12022020	212545	79.27	12.275160	-56.990278	79.14	-0.150	0.230	0.300	79.23	-1.10	0.70	 	 	 	 	 	 	 	 	 	 	 	 	 	 	 	 	 	 	1581542745	0.28	0.52
12/02/2020 21:25:46	120220	12022020	212546	79.16	12.275160	-56.990278	79.08	-0.020	0.130	0.250	79.16	-1.20	0.60	 	 	 	 	 	 	 	 	 	 	 	 	 	 	 	 	 	 	1581542746	0.19	0.35
12/02/2020 21:25:47	120220	12022020	212547	79.14	12.275160	-56.990278	79.05	-0.060	0.090	0.290	79.13	-1.30	0.70	 	 	 	 	 	 	 	 	 	 	 	 	 	 	 	 	 	 	1581542747	0.07	0.13
12/02/2020 21:25:48	120220	12022020	212548	79.09	12.275160	-56.990280	79.00	-0.330	0.120	0.390	79.08	-1.20	0.80	 	 	 	 	 	 	 	 	 	 	 	 	 	 	 	 	 	 	1581542748	0.24	0.44
12/02/2020 21:25:49	120220	12022020	212549	79.07	12.275160	-56.990282	79.01	-0.590	0.130	0.480	79.07	-1.20	0.90	 	 	 	 	 	 	 	 	 	 	 	 	 	 	 	 	 	 	1581542749	0.47	0.87
12/02/2020 21:25:50	120220	12022020	212550	79.03	12.275158	-56.990283	78.91	-0.480	-0.180	0.700	78.99	-1.50	1.10	 	 	 	 	 	 	 	 	 	 	 	 	 	 	 	 	 	 	1581542750	0.35	0.65
12/02/2020 21:25:51	120220	12022020	212551	78.79	12.275158	-56.990282	78.65	0.130	-0.920	0.960	78.73	-2.30	1.40	 	 	 	 	 	 	 	 	 	 	 	 	 	 	 	 	 	 	1581542751	0.43	0.80
12/02/2020 21:25:52	120220	12022020	212552	78.53	12.275158	-56.990277	78.44	0.850	-1.560	1.080	78.50	-2.90	1.50	 	 	 	 	 	 	 	 	 	 	 	 	 	 	 	 	 	 	1581542752	0.82	1.52
12/02/2020 21:25:53	120220	12022020	212553	78.51	12.275160	-56.990275	78.51	1.120	-1.370	1.060	78.54	-2.70	1.40	 	 	 	 	 	 	 	 	 	 	 	 	 	 	 	 	 	 	1581542753	0.59	1.09
12/02/2020 21:25:54	120220	12022020	212554	78.72	12.275162	-56.990278	78.76	0.650	-0.160	0.970	78.78	-1.40	1.40	 	 	 	 	 	 	 	 	 	 	 	 	 	 	 	 	 	 	1581542754	0.64	1.19
12/02/2020 21:25:55	120220	12022020	212555	78.96	12.275162	-56.990285	78.94	-0.280	1.220	0.740	78.99	-0.10	1.10	 	 	 	 	 	 	 	 	 	 	 	 	 	 	 	 	 	 	1581542755	1.38	2.56
12/02/2020 21:25:56	120220	12022020	212556	78.99	12.275162	-56.990290	78.87	-1.010	1.740	0.590	78.96	0.40	1.00	 	 	 	 	 	 	 	 	 	 	 	 	 	 	 	 	 	 	1581542756	1.09	2.02
12/02/2020 21:25:57	120220	12022020	212557	78.72	12.275162	-56.990290	78.54	-1.000	0.970	0.710	78.65	-0.40	1.10	 	 	 	 	 	 	 	 	 	 	 	 	 	 	 	 	 	 	1581542757	0.10	0.19
12/02/2020 21:25:58	120220	12022020	212558	78.34	12.275162	-56.990285	78.18	-0.320	-0.570	0.790	78.28	-2.00	1.20	 	 	 	 	 	 	 	 	 	 	 	 	 	 	 	 	 	 	1581542758	1.05	1.94
12/02/2020 21:25:59	120220	12022020	212559	78.10	12.275163	-56.990280	78.02	0.430	-1.770	0.560	78.09	-3.10	0.90	 	 	 	 	 	 	 	 	 	 	 	 	 	 	 	 	 	 	1581542759	1.30	2.41
12/02/2020 21:26:00	120220	12022020	212600	78.18	12.275168	-56.990278	78.19	0.680	-1.750	0.160	78.23	-3.10	0.50	 	 	 	 	 	 	 	 	 	 	 	 	 	 	 	 	 	 	1581542760	0.87	1.61
12/02/2020 21:26:01	120220	12022020	212601	78.51	12.275170	-56.990283	78.56	0.350	-0.650	-0.190	78.59	-1.90	0.20	 	 	 	 	 	 	 	 	 	 	 	 	 	 	 	 	 	 	1581542761	1.08	2.00
12/02/2020 21:26:02	120220	12022020	212602	78.82	12.275170	-56.990288	78.78	-0.160	0.470	-0.260	78.84	-0.80	0.10	1014.70	26.40	26.50	20.60	20.60	43.0	70.0	70.0	395.0	26.5	353.00	8.80	72.00	8.40	3822	12029.0	27.4	27.4	1581542762	1.29	2.39
12/02/2020 21:26:03	120220	12022020	212603	78.81	12.275168	-56.990292	78.71	-0.390	0.840	0.100	78.78	-0.50	0.50	 	 	 	 	 	 	 	 	 	 	 	 	 	 	 	 	 	 	1581542763	0.71	1.31
12/02/2020 21:26:04	120220	12022020	212604	78.66	12.275165	-56.990290	78.57	-0.270	0.620	0.660	78.63	-0.80	1.10	 	 	 	 	 	 	 	 	 	 	 	 	 	 	 	 	 	 	1581542764	0.80	1.48
12/02/2020 21:26:05	120220	12022020	212605	78.49	12.275162	-56.990288	78.39	-0.000	0.100	1.260	78.45	-1.30	1.70	 	 	 	 	 	 	 	 	 	 	 	 	 	 	 	 	 	 	1581542765	0.89	1.65
12/02/2020 21:26:06	120220	12022020	212606	78.28	12.275160	-56.990285	78.19	0.260	-0.620	1.690	78.23	-2.00	2.10	 	 	 	 	 	 	 	 	 	 	 	 	 	 	 	 	 	 	1581542766	0.68	1.26
12/02/2020 21:26:07	120220	12022020	212607	78.06	12.275162	-56.990282	77.97	0.480	-1.280	1.780	78.01	-2.60	2.20	 	 	 	 	 	 	 	 	 	 	 	 	 	 	 	 	 	 	1581542767	0.72	1.33
12/02/2020 21:26:08	120220	12022020	212608	77.86	12.275165	-56.990282	77.81	0.570	-1.290	1.510	77.83	-2.60	1.90	 	 	 	 	 	 	 	 	 	 	 	 	 	 	 	 	 	 	1581542768	0.95	1.76
12/02/2020 21:26:09	120220	12022020	212609	77.82	12.275170	-56.990283	77.82	0.400	-0.410	1.050	77.84	-1.70	1.40	 	 	 	 	 	 	 	 	 	 	 	 	 	 	 	 	 	 	1581542769	1.15	2.13
12/02/2020 21:26:10	120220	12022020	212610	77.98	12.275173	-56.990288	78.00	-0.100	0.780	0.560	78.01	-0.50	0.90	 	 	 	 	 	 	 	 	 	 	 	 	 	 	 	 	 	 	1581542770	1.40	2.59
12/02/2020 21:26:11	120220	12022020	212611	78.18	12.275173	-56.990293	78.19	-0.750	1.400	0.340	78.22	0.00	0.70	 	 	 	 	 	 	 	 	 	 	 	 	 	 	 	 	 	 	1581542771	1.01	1.87
12/02/2020 21:26:12	120220	12022020	212612	78.29	12.275172	-56.990295	78.25	-1.140	1.070	0.420	78.29	-0.30	0.80	 	 	 	 	 	 	 	 	 	 	 	 	 	 	 	 	 	 	1581542772	0.67	1.24
12/02/2020 21:26:13	120220	12022020	212613	78.29	12.275168	-56.990292	78.23	-0.900	-0.040	0.500	78.28	-1.40	0.90	 	 	 	 	 	 	 	 	 	 	 	 	 	 	 	 	 	 	1581542773	0.95	1.76
12/02/2020 21:26:14	120220	12022020	212614	78.24	12.275167	-56.990287	78.14	-0.050	-1.460	0.450	78.21	-2.80	0.80	 	 	 	 	 	 	 	 	 	 	 	 	 	 	 	 	 	 	1581542774	1.12	2.07
12/02/2020 21:26:15	120220	12022020	212615	78.06	12.275170	-56.990282	77.94	0.930	-2.410	0.460	78.01	-3.80	0.90	 	 	 	 	 	 	 	 	 	 	 	 	 	 	 	 	 	 	1581542775	1.28	2.37
12/02/2020 21:26:16	120220	12022020	212616	77.81	12.275172	-56.990278	77.69	1.360	-2.080	0.580	77.76	-3.40	1.00	 	 	 	 	 	 	 	 	 	 	 	 	 	 	 	 	 	 	1581542776	0.77	1.43
12/02/2020 21:26:17	120220	12022020	212617	77.63	12.275173	-56.990282	77.58	0.980	-0.440	0.760	77.61	-1.70	1.20	 	 	 	 	 	 	 	 	 	 	 	 	 	 	 	 	 	 	1581542777	0.68	1.26
12/02/2020 21:26:18	120220	12022020	212618	77.60	12.275172	-56.990288	77.56	0.100	1.580	0.880	77.61	0.30	1.30	 	 	 	 	 	 	 	 	 	 	 	 	 	 	 	 	 	 	1581542778	1.60	2.96
12/02/2020 21:26:19	120220	12022020	212619	77.59	12.275172	-56.990297	77.52	-0.780	2.650	0.840	77.58	1.30	1.20	 	 	 	 	 	 	 	 	 	 	 	 	 	 	 	 	 	 	1581542779	1.48	2.74
12/02/2020 21:26:20	120220	12022020	212620	77.51	12.275172	-56.990298	77.43	-1.210	2.100	0.800	77.49	0.70	1.20	 	 	 	 	 	 	 	 	 	 	 	 	 	 	 	 	 	 	1581542780	0.40	0.74
12/02/2020 21:26:21	120220	12022020	212621	77.45	12.275173	-56.990293	77.42	-1.000	0.260	0.770	77.47	-1.20	1.20	 	 	 	 	 	 	 	 	 	 	 	 	 	 	 	 	 	 	1581542781	0.83	1.54
12/02/2020 21:26:22	120220	12022020	212622	77.55	12.275173	-56.990287	77.54	-0.310	-1.900	0.720	77.57	-3.30	1.10	 	 	 	 	 	 	 	 	 	 	 	 	 	 	 	 	 	 	1581542782	1.55	2.87
12/02/2020 21:26:23	120220	12022020	212623	77.62	12.275173	-56.990280	77.55	0.500	-3.200	0.690	77.61	-4.50	1.10	 	 	 	 	 	 	 	 	 	 	 	 	 	 	 	 	 	 	1581542783	1.44	2.67
12/02/2020 21:26:24	120220	12022020	212624	77.49	12.275175	-56.990277	77.39	1.050	-2.860	0.710	77.45	-4.10	1.10	 	 	 	 	 	 	 	 	 	 	 	 	 	 	 	 	 	 	1581542784	0.48	0.89
12/02/2020 21:26:25	120220	12022020	212625	77.29	12.275175	-56.990280	77.21	1.110	-1.230	0.730	77.26	-2.50	1.10	 	 	 	 	 	 	 	 	 	 	 	 	 	 	 	 	 	 	1581542785	0.64	1.19
12/02/2020 21:26:26	120220	12022020	212626	77.15	12.275175	-56.990285	77.08	0.670	0.720	0.830	77.13	-0.60	1.20	 	 	 	 	 	 	 	 	 	 	 	 	 	 	 	 	 	 	1581542786	1.11	2.06
12/02/2020 21:26:27	120220	12022020	212627	77.10	12.275173	-56.990290	77.05	-0.040	2.080	0.880	77.10	0.80	1.30	 	 	 	 	 	 	 	 	 	 	 	 	 	 	 	 	 	 	1581542787	0.94	1.74
12/02/2020 21:26:28	120220	12022020	212628	77.08	12.275173	-56.990292	76.99	-0.620	2.280	0.760	77.05	0.90	1.20	 	 	 	 	 	 	 	 	 	 	 	 	 	 	 	 	 	 	1581542788	0.34	0.63
12/02/2020 21:26:29	120220	12022020	212629	76.91	12.275175	-56.990290	76.77	-0.770	1.370	0.640	76.86	-0.00	1.00	 	 	 	 	 	 	 	 	 	 	 	 	 	 	 	 	 	 	1581542789	0.52	0.96
12/02/2020 21:26:30	120220	12022020	212630	76.69	12.275178	-56.990287	76.59	-0.640	0.030	0.490	76.66	-1.40	0.90	 	 	 	 	 	 	 	 	 	 	 	 	 	 	 	 	 	 	1581542790	1.01	1.87
12/02/2020 21:26:31	120220	12022020	212631	76.71	12.275182	-56.990285	76.70	-0.460	-1.090	0.170	76.75	-2.50	0.60	 	 	 	 	 	 	 	 	 	 	 	 	 	 	 	 	 	 	1581542791	0.89	1.65
12/02/2020 21:26:32	120220	12022020	212632	77.00	12.275183	-56.990283	77.02	-0.260	-1.770	-0.070	77.06	-3.10	0.30	 	 	 	 	 	 	 	 	 	 	 	 	 	 	 	 	 	 	1581542792	0.46	0.85
12/02/2020 21:26:33	120220	12022020	212633	77.23	12.275182	-56.990282	77.19	0.110	-1.940	0.120	77.25	-3.30	0.50	 	 	 	 	 	 	 	 	 	 	 	 	 	 	 	 	 	 	1581542793	0.45	0.83
12/02/2020 21:26:34	120220	12022020	212634	77.18	12.275178	-56.990280	77.06	0.640	-1.660	0.700	77.14	-3.00	1.10	 	 	 	 	 	 	 	 	 	 	 	 	 	 	 	 	 	 	1581542794	0.97	1.80
12/02/2020 21:26:35	120220	12022020	212635	76.82	12.275175	-56.990278	76.65	1.030	-0.960	1.280	76.73	-2.30	1.70	 	 	 	 	 	 	 	 	 	 	 	 	 	 	 	 	 	 	1581542795	0.82	1.52
12/02/2020 21:26:36	120220	12022020	212636	76.40	12.275175	-56.990278	76.28	0.950	0.030	1.380	76.34	-1.30	1.80	 	 	 	 	 	 	 	 	 	 	 	 	 	 	 	 	 	 	1581542796	0.09	0.17
12/02/2020 21:26:37	120220	12022020	212637	76.21	12.275177	-56.990280	76.18	0.420	0.990	1.100	76.21	-0.30	1.50	 	 	 	 	 	 	 	 	 	 	 	 	 	 	 	 	 	 	1581542797	0.58	1.07
12/02/2020 21:26:38	120220	12022020	212638	76.28	12.275180	-56.990282	76.27	-0.210	1.450	0.700	76.30	0.10	1.10	 	 	 	 	 	 	 	 	 	 	 	 	 	 	 	 	 	 	1581542798	0.80	1.48
12/02/2020 21:26:39	120220	12022020	212639	76.37	12.275183	-56.990282	76.34	-0.650	1.290	0.370	76.39	-0.10	0.80	 	 	 	 	 	 	 	 	 	 	 	 	 	 	 	 	 	 	1581542799	0.83	1.54
12/02/2020 21:26:40	120220	12022020	212640	76.50	12.275187	-56.990280	76.49	-0.840	0.710	0.040	76.54	-0.70	0.40	 	 	 	 	 	 	 	 	 	 	 	 	 	 	 	 	 	 	1581542800	0.79	1.46
12/02/2020 21:26:41	120220	12022020	212641	76.71	12.275190	-56.990280	76.70	-0.800	-0.050	-0.250	76.75	-1.40	0.10	 	 	 	 	 	 	 	 	 	 	 	 	 	 	 	 	 	 	1581542801	0.50	0.93
12/02/2020 21:26:42	120220	12022020	212642	76.92	12.275190	-56.990278	76.88	-0.510	-0.880	-0.360	76.94	-2.30	0.00	 	 	 	 	 	 	 	 	 	 	 	 	 	 	 	 	 	 	1581542802	0.37	0.69
12/02/2020 21:26:43	120220	12022020	212643	76.93	12.275188	-56.990275	76.81	-0.030	-1.580	0.010	76.89	-2.90	0.40	 	 	 	 	 	 	 	 	 	 	 	 	 	 	 	 	 	 	1581542803	0.79	1.46
12/02/2020 21:26:44	120220	12022020	212644	76.64	12.275183	-56.990270	76.50	0.520	-1.900	0.900	76.55	-3.20	1.30	 	 	 	 	 	 	 	 	 	 	 	 	 	 	 	 	 	 	1581542804	1.29	2.39
12/02/2020 21:26:45	120220	12022020	212645	76.30	12.275178	-56.990267	76.24	0.960	-1.690	1.610	76.26	-3.00	2.00	 	 	 	 	 	 	 	 	 	 	 	 	 	 	 	 	 	 	1581542805	1.21	2.24
12/02/2020 21:26:46	120220	12022020	212646	76.20	12.275178	-56.990265	76.20	1.100	-0.860	1.580	76.20	-2.10	2.00	 	 	 	 	 	 	 	 	 	 	 	 	 	 	 	 	 	 	1581542806	0.32	0.59
12/02/2020 21:26:47	120220	12022020	212647	76.22	12.275183	-56.990267	76.22	0.770	0.360	0.980	76.23	-0.90	1.40	 	 	 	 	 	 	 	 	 	 	 	 	 	 	 	 	 	 	1581542807	1.04	1.93
12/02/2020 21:26:48	120220	12022020	212648	76.31	12.275188	-56.990270	76.31	-0.000	1.440	0.380	76.33	0.10	0.80	 	 	 	 	 	 	 	 	 	 	 	 	 	 	 	 	 	 	1581542808	1.33	2.46
12/02/2020 21:26:49	120220	12022020	212649	76.43	12.275192	-56.990272	76.43	-0.860	1.850	0.100	76.45	0.50	0.50	 	 	 	 	 	 	 	 	 	 	 	 	 	 	 	 	 	 	1581542809	0.80	1.48
12/02/2020 21:26:50	120220	12022020	212650	76.50	12.275192	-56.990273	76.46	-1.310	1.540	0.050	76.50	0.20	0.40	 	 	 	 	 	 	 	 	 	 	 	 	 	 	 	 	 	 	1581542810	0.09	0.17
12/02/2020 21:26:51	120220	12022020	212651	76.43	12.275192	-56.990272	76.35	-1.180	0.670	0.080	76.40	-0.70	0.50	 	 	 	 	 	 	 	 	 	 	 	 	 	 	 	 	 	 	1581542811	0.31	0.57
12/02/2020 21:26:52	120220	12022020	212652	76.30	12.275192	-56.990268	76.24	-0.610	-0.710	0.120	76.28	-2.10	0.50	 	 	 	 	 	 	 	 	 	 	 	 	 	 	 	 	 	 	1581542812	0.66	1.22
12/02/2020 21:26:53	120220	12022020	212653	76.30	12.275193	-56.990263	76.31	0.150	-2.260	0.160	76.32	-3.60	0.60	 	 	 	 	 	 	 	 	 	 	 	 	 	 	 	 	 	 	1581542813	1.21	2.24
12/02/2020 21:26:54	120220	12022020	212654	76.45	12.275193	-56.990257	76.49	0.870	-3.100	0.270	76.49	-4.40	0.70	 	 	 	 	 	 	 	 	 	 	 	 	 	 	 	 	 	 	1581542814	1.38	2.56
12/02/2020 21:26:55	120220	12022020	212655	76.60	12.275193	-56.990253	76.61	1.230	-2.350	0.510	76.61	-3.60	0.90	 	 	 	 	 	 	 	 	 	 	 	 	 	 	 	 	 	 	1581542815	0.63	1.17
12/02/2020 21:26:56	120220	12022020	212656	76.59	12.275192	-56.990257	76.53	0.940	-0.170	0.870	76.56	-1.40	1.30	 	 	 	 	 	 	 	 	 	 	 	 	 	 	 	 	 	 	1581542816	0.95	1.76
12/02/2020 21:26:57	120220	12022020	212657	76.40	12.275188	-56.990263	76.33	0.150	1.920	1.160	76.37	0.60	1.60	 	 	 	 	 	 	 	 	 	 	 	 	 	 	 	 	 	 	1581542817	1.63	3.02
12/02/2020 21:26:58	120220	12022020	212658	76.21	12.275187	-56.990268	76.17	-0.640	2.600	1.190	76.19	1.20	1.60	 	 	 	 	 	 	 	 	 	 	 	 	 	 	 	 	 	 	1581542818	0.91	1.69
12/02/2020 21:26:59	120220	12022020	212659	76.09	12.275188	-56.990267	76.03	-0.940	1.650	1.130	76.06	0.20	1.50	 	 	 	 	 	 	 	 	 	 	 	 	 	 	 	 	 	 	1581542819	0.49	0.91
12/02/2020 21:27:00	120220	12022020	212700	75.88	12.275190	-56.990260	75.80	-0.660	-0.140	1.140	75.84	-1.60	1.50	 	 	 	 	 	 	 	 	 	 	 	 	 	 	 	 	 	 	1581542820	1.43	2.65
12/02/2020 21:27:01	120220	12022020	212701	75.70	12.275195	-56.990253	75.68	-0.090	-1.660	0.830	75.70	-3.00	1.20	 	 	 	 	 	 	 	 	 	 	 	 	 	 	 	 	 	 	1581542821	1.59	2.94
12/02/2020 21:27:02	120220	12022020	212702	75.84	12.275200	-56.990252	75.89	0.420	-2.110	0.180	75.90	-3.40	0.50	1014.80	26.40	26.50	20.50	20.50	39.0	70.0	69.0	391.0	26.4	357.00	9.40	74.00	9.00	3636	12721.0	27.4	27.4	1581542822	1.19	2.20
12/02/2020 21:27:03	120220	12022020	212703	76.13	12.275202	-56.990253	76.17	0.580	-1.450	-0.130	76.18	-2.70	0.30	 	 	 	 	 	 	 	 	 	 	 	 	 	 	 	 	 	 	1581542823	0.61	1.13
12/02/2020 21:27:04	120220	12022020	212704	76.32	12.275202	-56.990257	76.33	0.380	-0.250	0.140	76.35	-1.60	0.50	 	 	 	 	 	 	 	 	 	 	 	 	 	 	 	 	 	 	1581542824	0.83	1.54
12/02/2020 21:27:05	120220	12022020	212705	76.44	12.275198	-56.990260	76.44	-0.000	0.640	0.610	76.46	-0.70	1.00	 	 	 	 	 	 	 	 	 	 	 	 	 	 	 	 	 	 	1581542825	0.93	1.72
12/02/2020 21:27:06	120220	12022020	212706	76.49	12.275195	-56.990260	76.44	-0.300	0.750	0.870	76.48	-0.60	1.30	 	 	 	 	 	 	 	 	 	 	 	 	 	 	 	 	 	 	1581542826	0.54	1.00
12/02/2020 21:27:07	120220	12022020	212707	76.34	12.275195	-56.990257	76.22	-0.320	0.170	1.040	76.28	-1.20	1.40	 	 	 	 	 	 	 	 	 	 	 	 	 	 	 	 	 	 	1581542827	0.66	1.22
12/02/2020 21:27:08	120220	12022020	212708	75.98	12.275193	-56.990252	75.84	-0.050	-0.560	1.400	75.89	-1.90	1.80	 	 	 	 	 	 	 	 	 	 	 	 	 	 	 	 	 	 	1581542828	1.05	1.94
12/02/2020 21:27:09	120220	12022020	212709	75.68	12.275193	-56.990248	75.65	0.290	-0.910	1.650	75.66	-2.30	2.00	 	 	 	 	 	 	 	 	 	 	 	 	 	 	 	 	 	 	1581542829	0.88	1.63
12/02/2020 21:27:10	120220	12022020	212710	75.72	12.275193	-56.990247	75.75	0.440	-0.670	1.390	75.75	-2.00	1.80	 	 	 	 	 	 	 	 	 	 	 	 	 	 	 	 	 	 	1581542830	0.24	0.44
12/02/2020 21:27:11	120220	12022020	212711	75.82	12.275197	-56.990248	75.78	0.310	-0.060	0.780	75.82	-1.40	1.10	 	 	 	 	 	 	 	 	 	 	 	 	 	 	 	 	 	 	1581542831	0.82	1.52
12/02/2020 21:27:12	120220	12022020	212712	75.76	12.275200	-56.990252	75.66	-0.010	0.490	0.210	75.73	-0.90	0.60	 	 	 	 	 	 	 	 	 	 	 	 	 	 	 	 	 	 	1581542832	1.15	2.13
12/02/2020 21:27:13	120220	12022020	212713	75.61	12.275205	-56.990253	75.54	-0.330	0.610	-0.130	75.60	-0.80	0.30	 	 	 	 	 	 	 	 	 	 	 	 	 	 	 	 	 	 	1581542833	0.89	1.65
12/02/2020 21:27:14	120220	12022020	212714	75.61	12.275207	-56.990255	75.61	-0.480	0.260	-0.360	75.64	-1.10	0.00	 	 	 	 	 	 	 	 	 	 	 	 	 	 	 	 	 	 	1581542834	0.61	1.13
12/02/2020 21:27:15	120220	12022020	212715	75.88	12.275210	-56.990253	75.95	-0.390	-0.320	-0.570	75.97	-1.70	-0.20	 	 	 	 	 	 	 	 	 	 	 	 	 	 	 	 	 	 	1581542835	0.55	1.02
12/02/2020 21:27:16	120220	12022020	212716	76.24	12.275210	-56.990250	76.27	-0.110	-0.850	-0.540	76.29	-2.20	-0.20	 	 	 	 	 	 	 	 	 	 	 	 	 	 	 	 	 	 	1581542836	0.46	0.85
12/02/2020 21:27:17	120220	12022020	212717	76.36	12.275208	-56.990248	76.31	0.210	-1.060	-0.050	76.34	-2.40	0.40	 	 	 	 	 	 	 	 	 	 	 	 	 	 	 	 	 	 	1581542837	0.66	1.22
12/02/2020 21:27:18	120220	12022020	212718	76.19	12.275203	-56.990247	76.11	0.410	-0.930	0.900	76.14	-2.30	1.30	 	 	 	 	 	 	 	 	 	 	 	 	 	 	 	 	 	 	1581542838	1.12	2.07
12/02/2020 21:27:19	120220	12022020	212719	75.89	12.275197	-56.990245	75.81	0.430	-0.580	1.910	75.82	-1.90	2.30	 	 	 	 	 	 	 	 	 	 	 	 	 	 	 	 	 	 	1581542839	1.32	2.44
12/02/2020 21:27:20	120220	12022020	212720	75.58	12.275193	-56.990243	75.53	0.350	-0.200	2.380	75.53	-1.50	2.70	 	 	 	 	 	 	 	 	 	 	 	 	 	 	 	 	 	 	1581542840	0.77	1.43
12/02/2020 21:27:21	120220	12022020	212721	75.39	12.275197	-56.990243	75.41	0.220	0.200	2.030	75.38	-1.10	2.40	 	 	 	 	 	 	 	 	 	 	 	 	 	 	 	 	 	 	1581542841	0.41	0.76
12/02/2020 21:27:22	120220	12022020	212722	75.51	12.275202	-56.990245	75.62	0.000	0.650	1.150	75.59	-0.70	1.50	 	 	 	 	 	 	 	 	 	 	 	 	 	 	 	 	 	 	1581542842	1.32	2.44
12/02/2020 21:27:23	120220	12022020	212723	75.98	12.275208	-56.990248	76.11	-0.330	0.870	0.140	76.09	-0.50	0.50	 	 	 	 	 	 	 	 	 	 	 	 	 	 	 	 	 	 	1581542843	1.47	2.72
12/02/2020 21:27:24	120220	12022020	212724	76.45	12.275212	-56.990250	76.50	-0.650	0.600	-0.530	76.51	-0.80	-0.20	 	 	 	 	 	 	 	 	 	 	 	 	 	 	 	 	 	 	1581542844	0.92	1.70
12/02/2020 21:27:25	120220	12022020	212725	76.61	12.275213	-56.990248	76.56	-0.700	-0.060	-0.720	76.61	-1.40	-0.30	 	 	 	 	 	 	 	 	 	 	 	 	 	 	 	 	 	 	1581542845	0.36	0.67
12/02/2020 21:27:26	120220	12022020	212726	76.50	12.275213	-56.990247	76.40	-0.350	-0.880	-0.580	76.46	-2.30	-0.20	 	 	 	 	 	 	 	 	 	 	 	 	 	 	 	 	 	 	1581542846	0.48	0.89
12/02/2020 21:27:27	120220	12022020	212727	76.27	12.275212	-56.990243	76.17	0.200	-1.540	-0.180	76.22	-2.90	0.20	 	 	 	 	 	 	 	 	 	 	 	 	 	 	 	 	 	 	1581542847	0.73	1.35
12/02/2020 21:27:28	120220	12022020	212728	76.09	12.275210	-56.990240	76.06	0.630	-1.650	0.360	76.08	-3.00	0.70	 	 	 	 	 	 	 	 	 	 	 	 	 	 	 	 	 	 	1581542848	0.73	1.35
12/02/2020 21:27:29	120220	12022020	212729	76.21	12.275208	-56.990240	76.31	0.720	-1.030	0.690	76.28	-2.30	1.10	 	 	 	 	 	 	 	 	 	 	 	 	 	 	 	 	 	 	1581542849	0.42	0.78
12/02/2020 21:27:30	120220	12022020	212730	76.62	12.275208	-56.990242	76.71	0.410	0.030	0.710	76.70	-1.30	1.10	 	 	 	 	 	 	 	 	 	 	 	 	 	 	 	 	 	 	1581542850	0.42	0.78
12/02/2020 21:27:31	120220	12022020	212731	76.87	12.275207	-56.990245	76.81	-0.070	0.990	0.780	76.86	-0.30	1.20	 	 	 	 	 	 	 	 	 	 	 	 	 	 	 	 	 	 	1581542851	0.62	1.15
12/02/2020 21:27:32	120220	12022020	212732	76.68	12.275207	-56.990247	76.53	-0.450	1.360	0.950	76.60	-0.00	1.30	 	 	 	 	 	 	 	 	 	 	 	 	 	 	 	 	 	 	1581542852	0.38	0.70
12/02/2020 21:27:33	120220	12022020	212733	76.33	12.275207	-56.990245	76.23	-0.530	0.950	0.990	76.29	-0.50	1.40	 	 	 	 	 	 	 	 	 	 	 	 	 	 	 	 	 	 	1581542853	0.15	0.28
12/02/2020 21:27:34	120220	12022020	212734	76.27	12.275210	-56.990243	76.30	-0.360	-0.060	0.820	76.31	-1.50	1.20	 	 	 	 	 	 	 	 	 	 	 	 	 	 	 	 	 	 	1581542854	0.72	1.33
12/02/2020 21:27:35	120220	12022020	212735	76.57	12.275213	-56.990240	76.66	-0.170	-1.090	0.440	76.66	-2.50	0.80	 	 	 	 	 	 	 	 	 	 	 	 	 	 	 	 	 	 	1581542855	0.98	1.81
12/02/2020 21:27:36	120220	12022020	212736	77.00	12.275215	-56.990238	77.06	-0.070	-1.500	-0.010	77.08	-2.90	0.40	 	 	 	 	 	 	 	 	 	 	 	 	 	 	 	 	 	 	1581542856	0.74	1.37
12/02/2020 21:27:37	120220	12022020	212737	77.28	12.275217	-56.990238	77.28	-0.000	-1.080	-0.210	77.31	-2.40	0.20	 	 	 	 	 	 	 	 	 	 	 	 	 	 	 	 	 	 	1581542857	0.31	0.57
12/02/2020 21:27:38	120220	12022020	212738	77.38	12.275215	-56.990242	77.35	0.070	-0.300	-0.060	77.38	-1.60	0.30	 	 	 	 	 	 	 	 	 	 	 	 	 	 	 	 	 	 	1581542858	0.69	1.28
12/02/2020 21:27:39	120220	12022020	212739	77.33	12.275210	-56.990243	77.24	0.140	0.250	0.410	77.29	-1.10	0.80	 	 	 	 	 	 	 	 	 	 	 	 	 	 	 	 	 	 	1581542859	0.88	1.63
12/02/2020 21:27:40	120220	12022020	212740	77.06	12.275208	-56.990242	76.92	0.160	0.330	0.950	76.99	-1.00	1.30	 	 	 	 	 	 	 	 	 	 	 	 	 	 	 	 	 	 	1581542860	0.56	1.04
12/02/2020 21:27:41	120220	12022020	212741	76.68	12.275208	-56.990240	76.55	0.130	0.060	1.190	76.62	-1.30	1.60	 	 	 	 	 	 	 	 	 	 	 	 	 	 	 	 	 	 	1581542861	0.36	0.67
12/02/2020 21:27:42	120220	12022020	212742	76.52	12.275212	-56.990240	76.51	0.070	-0.170	0.990	76.54	-1.50	1.40	 	 	 	 	 	 	 	 	 	 	 	 	 	 	 	 	 	 	1581542862	0.67	1.24
12/02/2020 21:27:43	120220	12022020	212743	76.78	12.275215	-56.990240	76.86	0.100	-0.240	0.510	76.87	-1.60	0.90	 	 	 	 	 	 	 	 	 	 	 	 	 	 	 	 	 	 	1581542863	0.78	1.44
12/02/2020 21:27:44	120220	12022020	212744	77.25	12.275218	-56.990240	77.31	0.230	-0.400	0.110	77.33	-1.80	0.50	 	 	 	 	 	 	 	 	 	 	 	 	 	 	 	 	 	 	1581542864	0.77	1.43
12/02/2020 21:27:45	120220	12022020	212745	77.61	12.275222	-56.990240	77.62	0.260	-0.490	-0.050	77.66	-1.80	0.30	 	 	 	 	 	 	 	 	 	 	 	 	 	 	 	 	 	 	1581542865	0.57	1.06
12/02/2020 21:27:46	120220	12022020	212746	77.80	12.275222	-56.990240	77.77	-0.100	-0.030	0.110	77.82	-1.40	0.50	 	 	 	 	 	 	 	 	 	 	 	 	 	 	 	 	 	 	1581542866	0.22	0.41
12/02/2020 21:27:47	120220	12022020	212747	77.81	12.275217	-56.990243	77.71	-0.620	0.500	0.610	77.78	-0.80	1.00	 	 	 	 	 	 	 	 	 	 	 	 	 	 	 	 	 	 	1581542867	1.08	2.00
12/02/2020 21:27:48	120220	12022020	212748	77.61	12.275212	-56.990245	77.46	-0.780	0.400	1.260	77.55	-1.00	1.60	 	 	 	 	 	 	 	 	 	 	 	 	 	 	 	 	 	 	1581542868	1.16	2.15
12/02/2020 21:27:49	120220	12022020	212749	77.25	12.275208	-56.990243	77.07	-0.280	-0.400	1.750	77.17	-1.80	2.10	 	 	 	 	 	 	 	 	 	 	 	 	 	 	 	 	 	 	1581542869	0.91	1.69
12/02/2020 21:27:50	120220	12022020	212750	76.93	12.275208	-56.990238	76.84	0.520	-1.240	1.870	76.90	-2.60	2.20	 	 	 	 	 	 	 	 	 	 	 	 	 	 	 	 	 	 	1581542870	0.91	1.69
12/02/2020 21:27:51	120220	12022020	212751	76.92	12.275212	-56.990237	76.95	0.940	-1.440	1.550	76.96	-2.80	1.90	 	 	 	 	 	 	 	 	 	 	 	 	 	 	 	 	 	 	1581542871	0.88	1.63
12/02/2020 21:27:52	120220	12022020	212752	77.23	12.275217	-56.990238	77.31	0.610	-0.780	0.880	77.31	-2.10	1.20	 	 	 	 	 	 	 	 	 	 	 	 	 	 	 	 	 	 	1581542872	1.04	1.93
12/02/2020 21:27:53	120220	12022020	212753	77.62	12.275220	-56.990243	77.65	-0.150	0.350	0.300	77.68	-1.00	0.70	 	 	 	 	 	 	 	 	 	 	 	 	 	 	 	 	 	 	1581542873	1.29	2.39
12/02/2020 21:27:54	120220	12022020	212754	77.88	12.275220	-56.990248	77.85	-0.720	1.330	0.040	77.90	-0.00	0.40	 	 	 	 	 	 	 	 	 	 	 	 	 	 	 	 	 	 	1581542874	1.27	2.35
12/02/2020 21:27:55	120220	12022020	212755	77.94	12.275220	-56.990252	77.84	-0.840	1.470	0.030	77.92	0.10	0.40	 	 	 	 	 	 	 	 	 	 	 	 	 	 	 	 	 	 	1581542875	0.82	1.52
12/02/2020 21:27:56	120220	12022020	212756	77.76	12.275218	-56.990252	77.62	-0.560	0.580	0.260	77.71	-0.80	0.60	 	 	 	 	 	 	 	 	 	 	 	 	 	 	 	 	 	 	1581542876	0.37	0.69
12/02/2020 21:27:57	120220	12022020	212757	77.49	12.275217	-56.990248	77.36	-0.090	-0.780	0.610	77.44	-2.20	1.00	 	 	 	 	 	 	 	 	 	 	 	 	 	 	 	 	 	 	1581542877	0.79	1.46
12/02/2020 21:27:58	120220	12022020	212758	77.30	12.275217	-56.990245	77.23	0.350	-1.930	0.900	77.28	-3.30	1.30	 	 	 	 	 	 	 	 	 	 	 	 	 	 	 	 	 	 	1581542878	0.88	1.63
12/02/2020 21:27:59	120220	12022020	212759	77.30	12.275217	-56.990242	77.31	0.540	-2.170	1.050	77.33	-3.50	1.40	 	 	 	 	 	 	 	 	 	 	 	 	 	 	 	 	 	 	1581542879	0.56	1.04
12/02/2020 21:28:00	120220	12022020	212800	77.47	12.275217	-56.990243	77.50	0.420	-1.170	1.090	77.51	-2.40	1.50	 	 	 	 	 	 	 	 	 	 	 	 	 	 	 	 	 	 	1581542880	0.43	0.80
12/02/2020 21:28:01	120220	12022020	212801	77.61	12.275215	-56.990250	77.58	0.160	0.340	0.990	77.62	-1.00	1.40	 	 	 	 	 	 	 	 	 	 	 	 	 	 	 	 	 	 	1581542881	1.30	2.41
12/02/2020 21:28:02	120220	12022020	212802	77.61	12.275217	-56.990255	77.54	-0.010	1.110	0.750	77.60	-0.20	1.10	1014.80	26.40	26.50	20.60	20.60	36.0	70.0	70.0	390.0	26.4	354.00	9.30	71.00	8.90	3498	12141.0	27.5	27.4	1581542882	1.08	2.00
12/02/2020 21:28:03	120220	12022020	212803	77.52	12.275218	-56.990255	77.43	-0.050	0.890	0.500	77.50	-0.50	0.90	 	 	 	 	 	 	 	 	 	 	 	 	 	 	 	 	 	 	1581542883	0.53	0.98
12/02/2020 21:28:04	120220	12022020	212804	77.48	12.275222	-56.990253	77.44	-0.140	0.440	0.300	77.50	-0.90	0.70	 	 	 	 	 	 	 	 	 	 	 	 	 	 	 	 	 	 	1581542884	0.59	1.09
12/02/2020 21:28:05	120220	12022020	212805	77.74	12.275222	-56.990255	77.79	-0.380	0.290	0.070	77.83	-1.10	0.40	 	 	 	 	 	 	 	 	 	 	 	 	 	 	 	 	 	 	1581542885	0.30	0.56
12/02/2020 21:28:06	120220	12022020	212806	78.22	12.275222	-56.990258	78.25	-0.520	0.100	-0.080	78.29	-1.30	0.30	 	 	 	 	 	 	 	 	 	 	 	 	 	 	 	 	 	 	1581542886	0.59	1.09
12/02/2020 21:28:07	120220	12022020	212807	78.44	12.275222	-56.990258	78.33	-0.230	-0.710	0.120	78.43	-2.10	0.50	 	 	 	 	 	 	 	 	 	 	 	 	 	 	 	 	 	 	1581542887	0.19	0.35
12/02/2020 21:28:08	120220	12022020	212808	78.25	12.275220	-56.990253	78.09	0.400	-1.760	0.670	78.18	-3.10	1.00	 	 	 	 	 	 	 	 	 	 	 	 	 	 	 	 	 	 	1581542888	1.00	1.85
12/02/2020 21:28:09	120220	12022020	212809	77.95	12.275217	-56.990250	77.85	0.860	-1.940	1.300	77.91	-3.20	1.70	 	 	 	 	 	 	 	 	 	 	 	 	 	 	 	 	 	 	1581542889	1.04	1.93
12/02/2020 21:28:10	120220	12022020	212810	77.80	12.275213	-56.990250	77.75	0.710	-0.870	1.730	77.79	-2.10	2.10	 	 	 	 	 	 	 	 	 	 	 	 	 	 	 	 	 	 	1581542890	0.66	1.22
12/02/2020 21:28:11	120220	12022020	212811	77.76	12.275212	-56.990257	77.73	0.030	0.720	1.730	77.76	-0.60	2.10	 	 	 	 	 	 	 	 	 	 	 	 	 	 	 	 	 	 	1581542891	1.32	2.44
12/02/2020 21:28:12	120220	12022020	212812	77.83	12.275213	-56.990263	77.84	-0.720	1.740	1.230	77.87	0.40	1.60	 	 	 	 	 	 	 	 	 	 	 	 	 	 	 	 	 	 	1581542892	1.49	2.76
12/02/2020 21:28:13	120220	12022020	212813	78.11	12.275218	-56.990267	78.18	-1.070	1.640	0.420	78.20	0.30	0.80	 	 	 	 	 	 	 	 	 	 	 	 	 	 	 	 	 	 	1581542893	1.26	2.33
12/02/2020 21:28:14	120220	12022020	212814	78.62	12.275223	-56.990267	78.67	-0.920	0.720	-0.350	78.75	-0.80	-0.10	 	 	 	 	 	 	 	 	 	 	 	 	 	 	 	 	 	 	1581542894	1.01	1.87
12/02/2020 21:28:15	120220	12022020	212815	79.24	12.275227	-56.990263	79.29	-0.290	-0.900	-1.030	79.33	-2.30	-0.70	 	 	 	 	 	 	 	 	 	 	 	 	 	 	 	 	 	 	1581542895	0.91	1.69
12/02/2020 21:28:16	120220	12022020	212816	79.56	12.275225	-56.990260	79.47	0.420	-2.040	-0.980	79.55	-3.40	-0.60	 	 	 	 	 	 	 	 	 	 	 	 	 	 	 	 	 	 	1581542896	0.99	1.83
12/02/2020 21:28:17	120220	12022020	212817	79.33	12.275222	-56.990257	79.13	0.920	-2.100	-0.220	79.23	-3.40	0.20	 	 	 	 	 	 	 	 	 	 	 	 	 	 	 	 	 	 	1581542897	0.99	1.83
12/02/2020 21:28:18	120220	12022020	212818	78.85	12.275217	-56.990258	78.72	0.860	-0.990	0.710	78.78	-2.30	1.10	 	 	 	 	 	 	 	 	 	 	 	 	 	 	 	 	 	 	1581542898	1.05	1.94
12/02/2020 21:28:19	120220	12022020	212819	78.62	12.275213	-56.990263	78.58	0.260	0.450	1.390	78.61	-0.90	1.80	 	 	 	 	 	 	 	 	 	 	 	 	 	 	 	 	 	 	1581542899	1.44	2.67
12/02/2020 21:28:20	120220	12022020	212820	78.66	12.275210	-56.990268	78.69	-0.420	1.260	1.600	78.70	-0.10	2.00	 	 	 	 	 	 	 	 	 	 	 	 	 	 	 	 	 	 	1581542900	1.12	2.07
12/02/2020 21:28:21	120220	12022020	212821	78.88	12.275210	-56.990270	78.93	-0.630	1.090	1.340	78.93	-0.30	1.70	 	 	 	 	 	 	 	 	 	 	 	 	 	 	 	 	 	 	1581542901	0.29	0.54
12/02/2020 21:28:22	120220	12022020	212822	79.16	12.275213	-56.990267	79.21	-0.270	0.190	0.740	79.23	-1.20	1.10	 	 	 	 	 	 	 	 	 	 	 	 	 	 	 	 	 	 	1581542902	0.90	1.67
12/02/2020 21:28:23	120220	12022020	212823	79.52	12.275220	-56.990265	79.58	0.230	-0.650	0.080	79.60	-2.00	0.40	 	 	 	 	 	 	 	 	 	 	 	 	 	 	 	 	 	 	1581542903	1.38	2.56
12/02/2020 21:28:24	120220	12022020	212824	79.95	12.275223	-56.990265	80.02	0.370	-0.890	-0.310	80.04	-2.20	0.10	 	 	 	 	 	 	 	 	 	 	 	 	 	 	 	 	 	 	1581542904	0.83	1.54
12/02/2020 21:28:25	120220	12022020	212825	80.36	12.275222	-56.990265	80.37	0.060	-0.630	-0.130	80.41	-2.00	0.30	 	 	 	 	 	 	 	 	 	 	 	 	 	 	 	 	 	 	1581542905	0.48	0.89
12/02/2020 21:28:26	120220	12022020	212826	80.46	12.275213	-56.990267	80.35	-0.330	-0.310	0.730	80.43	-1.60	1.10	 	 	 	 	 	 	 	 	 	 	 	 	 	 	 	 	 	 	1581542906	1.69	3.13
12/02/2020 21:28:27	120220	12022020	212827	80.16	12.275205	-56.990267	79.98	-0.370	-0.160	1.700	80.07	-1.50	2.10	 	 	 	 	 	 	 	 	 	 	 	 	 	 	 	 	 	 	1581542907	1.96	3.63
12/02/2020 21:28:28	120220	12022020	212828	79.69	12.275200	-56.990267	79.53	-0.050	-0.110	2.170	79.61	-1.50	2.50	 	 	 	 	 	 	 	 	 	 	 	 	 	 	 	 	 	 	1581542908	1.01	1.87
12/02/2020 21:28:29	120220	12022020	212829	79.29	12.275202	-56.990267	79.17	0.270	-0.100	1.910	79.24	-1.50	2.30	 	 	 	 	 	 	 	 	 	 	 	 	 	 	 	 	 	 	1581542909	0.38	0.70
12/02/2020 21:28:30	120220	12022020	212830	79.10	12.275208	-56.990268	79.05	0.340	-0.210	1.210	79.10	-1.60	1.50	 	 	 	 	 	 	 	 	 	 	 	 	 	 	 	 	 	 	1581542910	1.32	2.44
12/02/2020 21:28:31	120220	12022020	212831	79.31	12.275213	-56.990268	79.39	0.210	-0.440	0.360	79.41	-1.80	0.70	 	 	 	 	 	 	 	 	 	 	 	 	 	 	 	 	 	 	1581542911	1.33	2.46
12/02/2020 21:28:32	120220	12022020	212832	79.93	12.275217	-56.990268	80.07	0.060	-0.410	-0.350	80.07	-1.70	0.00	 	 	 	 	 	 	 	 	 	 	 	 	 	 	 	 	 	 	1581542912	0.67	1.24
12/02/2020 21:28:33	120220	12022020	212833	80.62	12.275217	-56.990270	80.69	-0.000	-0.040	-0.700	80.72	-1.40	-0.30	 	 	 	 	 	 	 	 	 	 	 	 	 	 	 	 	 	 	1581542913	0.30	0.56
12/02/2020 21:28:34	120220	12022020	212834	80.94	12.275213	-56.990270	80.83	0.080	0.080	-0.490	80.92	-1.30	-0.10	 	 	 	 	 	 	 	 	 	 	 	 	 	 	 	 	 	 	1581542914	0.68	1.26
12/02/2020 21:28:35	120220	12022020	212835	80.63	12.275210	-56.990268	80.44	0.220	-0.170	0.200	80.51	-1.60	0.70	 	 	 	 	 	 	 	 	 	 	 	 	 	 	 	 	 	 	1581542915	1.03	1.91
12/02/2020 21:28:36	120220	12022020	212836	80.03	12.275205	-56.990265	79.82	0.250	-0.370	1.220	79.93	-1.70	1.60	 	 	 	 	 	 	 	 	 	 	 	 	 	 	 	 	 	 	1581542916	1.07	1.98
12/02/2020 21:28:37	120220	12022020	212837	79.62	12.275202	-56.990267	79.51	-0.050	-0.040	1.880	79.57	-1.40	2.30	 	 	 	 	 	 	 	 	 	 	 	 	 	 	 	 	 	 	1581542917	0.63	1.17
12/02/2020 21:28:38	120220	12022020	212838	79.51	12.275202	-56.990270	79.50	-0.470	0.420	2.110	79.53	-0.90	2.50	 	 	 	 	 	 	 	 	 	 	 	 	 	 	 	 	 	 	1581542918	0.74	1.37
12/02/2020 21:28:39	120220	12022020	212839	79.68	12.275202	-56.990272	79.72	-0.630	0.330	1.840	79.74	-1.00	2.20	 	 	 	 	 	 	 	 	 	 	 	 	 	 	 	 	 	 	1581542919	0.58	1.07
12/02/2020 21:28:40	120220	12022020	212840	79.99	12.275203	-56.990272	80.01	-0.350	-0.430	1.280	80.04	-1.80	1.60	 	 	 	 	 	 	 	 	 	 	 	 	 	 	 	 	 	 	1581542920	0.42	0.78
12/02/2020 21:28:41	120220	12022020	212841	80.20	12.275203	-56.990267	80.15	0.120	-1.180	0.840	80.22	-2.50	1.20	 	 	 	 	 	 	 	 	 	 	 	 	 	 	 	 	 	 	1581542921	0.75	1.39
12/02/2020 21:28:42	120220	12022020	212842	80.23	12.275203	-56.990265	80.13	0.460	-1.270	0.710	80.22	-2.60	1.10	 	 	 	 	 	 	 	 	 	 	 	 	 	 	 	 	 	 	1581542922	0.56	1.04
12/02/2020 21:28:43	120220	12022020	212843	80.13	12.275202	-56.990265	80.02	0.490	-0.580	0.710	80.11	-1.90	1.10	 	 	 	 	 	 	 	 	 	 	 	 	 	 	 	 	 	 	1581542923	0.38	0.70
12/02/2020 21:28:44	120220	12022020	212844	80.07	12.275202	-56.990270	80.00	0.270	0.300	0.410	80.08	-1.00	0.80	 	 	 	 	 	 	 	 	 	 	 	 	 	 	 	 	 	 	1581542924	0.73	1.35
12/02/2020 21:28:45	120220	12022020	212845	80.13	12.275205	-56.990272	80.06	-0.040	0.690	-0.020	80.15	-0.70	0.40	 	 	 	 	 	 	 	 	 	 	 	 	 	 	 	 	 	 	1581542925	0.85	1.57
12/02/2020 21:28:46	120220	12022020	212846	80.16	12.275207	-56.990273	80.05	-0.240	0.570	-0.190	80.15	-0.80	0.20	 	 	 	 	 	 	 	 	 	 	 	 	 	 	 	 	 	 	1581542926	0.51	0.94
12/02/2020 21:28:47	120220	12022020	212847	80.06	12.275207	-56.990272	79.92	-0.210	0.160	-0.030	80.02	-1.20	0.40	 	 	 	 	 	 	 	 	 	 	 	 	 	 	 	 	 	 	1581542927	0.15	0.28
12/02/2020 21:28:48	120220	12022020	212848	79.86	12.275205	-56.990270	79.70	-0.020	-0.340	0.400	79.81	-1.70	0.80	 	 	 	 	 	 	 	 	 	 	 	 	 	 	 	 	 	 	1581542928	0.48	0.89
12/02/2020 21:28:49	120220	12022020	212849	79.63	12.275203	-56.990268	79.54	0.090	-0.640	0.890	79.61	-2.00	1.30	 	 	 	 	 	 	 	 	 	 	 	 	 	 	 	 	 	 	1581542929	0.56	1.04
12/02/2020 21:28:50	120220	12022020	212850	79.65	12.275202	-56.990268	79.67	0.030	-0.690	1.060	79.70	-2.00	1.40	 	 	 	 	 	 	 	 	 	 	 	 	 	 	 	 	 	 	1581542930	0.30	0.56
12/02/2020 21:28:51	120220	12022020	212851	79.96	12.275202	-56.990268	80.03	-0.040	-0.670	1.060	80.05	-2.00	1.40	 	 	 	 	 	 	 	 	 	 	 	 	 	 	 	 	 	 	1581542931	0.15	0.28
12/02/2020 21:28:52	120220	12022020	212852	80.35	12.275200	-56.990268	80.37	0.020	-0.610	1.180	80.40	-2.00	1.50	 	 	 	 	 	 	 	 	 	 	 	 	 	 	 	 	 	 	1581542932	0.41	0.76
12/02/2020 21:28:53	120220	12022020	212853	80.43	12.275197	-56.990268	80.31	0.140	-0.390	1.500	80.39	-1.70	1.90	 	 	 	 	 	 	 	 	 	 	 	 	 	 	 	 	 	 	1581542933	0.72	1.33
12/02/2020 21:28:54	120220	12022020	212854	80.07	12.275193	-56.990268	79.89	0.180	0.040	1.760	80.00	-1.30	2.10	 	 	 	 	 	 	 	 	 	 	 	 	 	 	 	 	 	 	1581542934	0.63	1.17
12/02/2020 21:28:55	120220	12022020	212855	79.72	12.275193	-56.990268	79.62	0.090	0.510	1.570	79.70	-0.80	1.90	 	 	 	 	 	 	 	 	 	 	 	 	 	 	 	 	 	 	1581542935	0.31	0.57
12/02/2020 21:28:56	120220	12022020	212856	79.76	12.275197	-56.990272	79.74	-0.070	0.680	1.030	79.82	-0.70	1.30	 	 	 	 	 	 	 	 	 	 	 	 	 	 	 	 	 	 	1581542936	0.94	1.74
12/02/2020 21:28:57	120220	12022020	212857	80.09	12.275202	-56.990273	80.12	-0.250	0.340	0.380	80.16	-1.00	0.70	 	 	 	 	 	 	 	 	 	 	 	 	 	 	 	 	 	 	1581542937	1.01	1.87
12/02/2020 21:28:58	120220	12022020	212858	80.40	12.275203	-56.990272	80.37	-0.270	-0.320	0.070	80.43	-1.70	0.40	 	 	 	 	 	 	 	 	 	 	 	 	 	 	 	 	 	 	1581542938	0.60	1.11
12/02/2020 21:28:59	120220	12022020	212859	80.44	12.275203	-56.990270	80.32	-0.090	-0.900	0.100	80.41	-2.30	0.50	 	 	 	 	 	 	 	 	 	 	 	 	 	 	 	 	 	 	1581542939	0.44	0.81
12/02/2020 21:29:00	120220	12022020	212900	80.24	12.275202	-56.990268	80.12	0.210	-1.190	0.350	80.20	-2.50	0.70	 	 	 	 	 	 	 	 	 	 	 	 	 	 	 	 	 	 	1581542940	0.56	1.04
12/02/2020 21:29:01	120220	12022020	212901	80.02	12.275200	-56.990267	79.92	0.440	-1.080	0.760	79.99	-2.40	1.10	 	 	 	 	 	 	 	 	 	 	 	 	 	 	 	 	 	 	1581542941	0.64	1.19
12/02/2020 21:29:02	120220	12022020	212902	79.88	12.275197	-56.990267	79.83	0.420	-0.570	1.280	79.86	-1.90	1.70	1014.70	26.30	26.40	20.20	20.30	34.0	69.0	69.0	390.0	26.4	351.00	9.90	70.00	9.60	3346	12215.0	27.4	27.4	1581542942	0.74	1.37
12/02/2020 21:29:03	120220	12022020	212903	79.91	12.275193	-56.990268	79.96	0.100	0.220	1.650	79.95	-1.10	2.00	 	 	 	 	 	 	 	 	 	 	 	 	 	 	 	 	 	 	1581542943	0.70	1.30
12/02/2020 21:29:04	120220	12022020	212904	80.21	12.275193	-56.990270	80.28	-0.290	0.770	1.510	80.29	-0.50	1.80	 	 	 	 	 	 	 	 	 	 	 	 	 	 	 	 	 	 	1581542944	0.57	1.06
12/02/2020 21:29:05	120220	12022020	212905	80.61	12.275195	-56.990272	80.65	-0.530	0.770	0.790	80.67	-0.60	1.10	 	 	 	 	 	 	 	 	 	 	 	 	 	 	 	 	 	 	1581542945	0.55	1.02
12/02/2020 21:29:06	120220	12022020	212906	80.79	12.275198	-56.990270	80.74	-0.380	0.240	0.200	80.79	-1.10	0.60	 	 	 	 	 	 	 	 	 	 	 	 	 	 	 	 	 	 	1581542946	0.70	1.30
12/02/2020 21:29:07	120220	12022020	212907	80.70	12.275200	-56.990268	80.60	-0.050	-0.370	0.150	80.66	-1.70	0.50	 	 	 	 	 	 	 	 	 	 	 	 	 	 	 	 	 	 	1581542947	0.54	1.00
12/02/2020 21:29:08	120220	12022020	212908	80.56	12.275198	-56.990267	80.51	0.200	-0.800	0.460	80.55	-2.20	0.80	 	 	 	 	 	 	 	 	 	 	 	 	 	 	 	 	 	 	1581542948	0.49	0.91
12/02/2020 21:29:09	120220	12022020	212909	80.57	12.275197	-56.990265	80.54	0.210	-0.870	0.660	80.59	-2.20	1.00	 	 	 	 	 	 	 	 	 	 	 	 	 	 	 	 	 	 	1581542949	0.38	0.70
12/02/2020 21:29:10	120220	12022020	212910	80.62	12.275197	-56.990267	80.57	0.090	-0.580	0.580	80.62	-1.90	0.90	 	 	 	 	 	 	 	 	 	 	 	 	 	 	 	 	 	 	1581542950	0.26	0.48
12/02/2020 21:29:11	120220	12022020	212911	80.59	12.275198	-56.990268	80.53	0.010	-0.190	0.450	80.57	-1.50	0.80	 	 	 	 	 	 	 	 	 	 	 	 	 	 	 	 	 	 	1581542951	0.44	0.81
12/02/2020 21:29:12	120220	12022020	212912	80.55	12.275198	-56.990268	80.52	0.080	-0.120	0.510	80.55	-1.50	0.90	 	 	 	 	 	 	 	 	 	 	 	 	 	 	 	 	 	 	1581542952	0.08	0.15
12/02/2020 21:29:13	120220	12022020	212913	80.62	12.275198	-56.990267	80.63	0.180	-0.230	0.670	80.66	-1.60	1.00	 	 	 	 	 	 	 	 	 	 	 	 	 	 	 	 	 	 	1581542953	0.33	0.61
12/02/2020 21:29:14	120220	12022020	212914	80.77	12.275197	-56.990265	80.77	0.180	-0.250	0.810	80.79	-1.60	1.20	 	 	 	 	 	 	 	 	 	 	 	 	 	 	 	 	 	 	1581542954	0.34	0.63
12/02/2020 21:29:15	120220	12022020	212915	80.85	12.275197	-56.990265	80.82	0.060	-0.070	0.950	80.86	-1.40	1.30	 	 	 	 	 	 	 	 	 	 	 	 	 	 	 	 	 	 	1581542955	0.21	0.39
12/02/2020 21:29:16	120220	12022020	212916	80.92	12.275195	-56.990267	80.90	-0.130	0.130	1.060	80.93	-1.20	1.40	 	 	 	 	 	 	 	 	 	 	 	 	 	 	 	 	 	 	1581542956	0.39	0.72
12/02/2020 21:29:17	120220	12022020	212917	80.96	12.275193	-56.990265	80.92	-0.250	0.100	1.150	80.96	-1.30	1.50	 	 	 	 	 	 	 	 	 	 	 	 	 	 	 	 	 	 	1581542957	0.41	0.76
12/02/2020 21:29:18	120220	12022020	212918	80.90	12.275192	-56.990265	80.84	-0.250	-0.150	1.220	80.89	-1.60	1.60	 	 	 	 	 	 	 	 	 	 	 	 	 	 	 	 	 	 	1581542958	0.33	0.61
12/02/2020 21:29:19	120220	12022020	212919	80.83	12.275192	-56.990263	80.79	-0.180	-0.390	1.150	80.83	-1.80	1.50	 	 	 	 	 	 	 	 	 	 	 	 	 	 	 	 	 	 	1581542959	0.29	0.54
12/02/2020 21:29:20	120220	12022020	212920	80.88	12.275193	-56.990263	80.87	-0.120	-0.380	0.910	80.91	-1.70	1.20	 	 	 	 	 	 	 	 	 	 	 	 	 	 	 	 	 	 	1581542960	0.18	0.33
12/02/2020 21:29:21	120220	12022020	212921	81.09	12.275193	-56.990263	81.08	-0.010	-0.200	0.490	81.12	-1.60	0.90	 	 	 	 	 	 	 	 	 	 	 	 	 	 	 	 	 	 	1581542961	0.35	0.65
12/02/2020 21:29:22	120220	12022020	212922	81.14	12.275195	-56.990263	81.05	0.120	-0.190	0.330	81.11	-1.60	0.70	 	 	 	 	 	 	 	 	 	 	 	 	 	 	 	 	 	 	1581542962	0.34	0.63
12/02/2020 21:29:23	120220	12022020	212923	80.85	12.275197	-56.990263	80.73	0.220	-0.280	0.410	80.77	-1.70	0.80	 	 	 	 	 	 	 	 	 	 	 	 	 	 	 	 	 	 	1581542963	0.29	0.54
12/02/2020 21:29:24	120220	12022020	212924	80.56	12.275197	-56.990262	80.49	0.200	-0.290	0.560	80.54	-1.60	0.90	 	 	 	 	 	 	 	 	 	 	 	 	 	 	 	 	 	 	1581542964	0.18	0.33
12/02/2020 21:29:25	120220	12022020	212925	80.60	12.275197	-56.990262	80.62	0.060	-0.200	0.550	80.65	-1.60	0.90	 	 	 	 	 	 	 	 	 	 	 	 	 	 	 	 	 	 	1581542965	0.06	0.11
12/02/2020 21:29:26	120220	12022020	212926	80.94	12.275198	-56.990262	80.99	-0.040	-0.230	0.360	81.02	-1.60	0.70	 	 	 	 	 	 	 	 	 	 	 	 	 	 	 	 	 	 	1581542966	0.14	0.26
12/02/2020 21:29:27	120220	12022020	212927	81.29	12.275198	-56.990260	81.28	-0.020	-0.430	0.340	81.33	-1.80	0.70	 	 	 	 	 	 	 	 	 	 	 	 	 	 	 	 	 	 	1581542967	0.40	0.74
12/02/2020 21:29:28	120220	12022020	212928	81.30	12.275195	-56.990258	81.22	-0.010	-0.470	0.740	81.27	-1.80	1.20	 	 	 	 	 	 	 	 	 	 	 	 	 	 	 	 	 	 	1581542968	0.69	1.28
12/02/2020 21:29:29	120220	12022020	212929	81.07	12.275192	-56.990258	80.99	-0.170	-0.080	1.250	81.02	-1.40	1.70	 	 	 	 	 	 	 	 	 	 	 	 	 	 	 	 	 	 	1581542969	0.78	1.44
12/02/2020 21:29:30	120220	12022020	212930	80.82	12.275188	-56.990260	80.76	-0.380	0.430	1.630	80.78	-0.90	2.00	 	 	 	 	 	 	 	 	 	 	 	 	 	 	 	 	 	 	1581542970	0.89	1.65
12/02/2020 21:29:31	120220	12022020	212931	80.66	12.275185	-56.990260	80.63	-0.380	0.530	1.640	80.65	-0.90	2.00	 	 	 	 	 	 	 	 	 	 	 	 	 	 	 	 	 	 	1581542971	0.56	1.04
12/02/2020 21:29:32	120220	12022020	212932	80.69	12.275187	-56.990258	80.68	-0.060	0.000	1.140	80.72	-1.50	1.40	 	 	 	 	 	 	 	 	 	 	 	 	 	 	 	 	 	 	1581542972	0.46	0.85
12/02/2020 21:29:33	120220	12022020	212933	80.78	12.275193	-56.990257	80.72	0.370	-0.810	0.450	80.78	-2.20	0.70	 	 	 	 	 	 	 	 	 	 	 	 	 	 	 	 	 	 	1581542973	1.31	2.43
12/02/2020 21:29:34	120220	12022020	212934	80.70	12.275198	-56.990253	80.60	0.580	-1.200	-0.030	80.67	-2.50	0.30	 	 	 	 	 	 	 	 	 	 	 	 	 	 	 	 	 	 	1581542974	1.31	2.43
12/02/2020 21:29:35	120220	12022020	212935	80.64	12.275202	-56.990253	80.58	0.430	-0.860	-0.250	80.65	-2.10	0.10	 	 	 	 	 	 	 	 	 	 	 	 	 	 	 	 	 	 	1581542975	0.69	1.28
12/02/2020 21:29:36	120220	12022020	212936	80.81	12.275202	-56.990257	80.80	0.030	-0.090	-0.310	80.86	-1.30	0.10	 	 	 	 	 	 	 	 	 	 	 	 	 	 	 	 	 	 	1581542976	0.54	1.00
12/02/2020 21:29:37	120220	12022020	212937	81.05	12.275200	-56.990258	81.01	-0.370	0.480	-0.140	81.09	-0.80	0.30	 	 	 	 	 	 	 	 	 	 	 	 	 	 	 	 	 	 	1581542977	0.56	1.04
12/02/2020 21:29:38	120220	12022020	212938	81.18	12.275197	-56.990258	81.13	-0.510	0.490	0.390	81.18	-0.90	0.90	 	 	 	 	 	 	 	 	 	 	 	 	 	 	 	 	 	 	1581542978	0.92	1.70
12/02/2020 21:29:39	120220	12022020	212939	81.16	12.275190	-56.990255	81.10	-0.320	0.120	1.160	81.13	-1.30	1.60	 	 	 	 	 	 	 	 	 	 	 	 	 	 	 	 	 	 	1581542979	1.46	2.70
12/02/2020 21:29:40	120220	12022020	212940	80.97	12.275185	-56.990252	80.88	0.030	-0.300	1.890	80.92	-1.70	2.30	 	 	 	 	 	 	 	 	 	 	 	 	 	 	 	 	 	 	1581542980	1.37	2.54
12/02/2020 21:29:41	120220	12022020	212941	80.70	12.275182	-56.990250	80.61	0.260	-0.600	2.250	80.65	-2.00	2.60	 	 	 	 	 	 	 	 	 	 	 	 	 	 	 	 	 	 	1581542981	0.64	1.19
12/02/2020 21:29:42	120220	12022020	212942	80.50	12.275185	-56.990248	80.45	0.240	-0.710	1.970	80.49	-2.10	2.20	 	 	 	 	 	 	 	 	 	 	 	 	 	 	 	 	 	 	1581542982	0.61	1.13
12/02/2020 21:29:43	120220	12022020	212943	80.55	12.275190	-56.990248	80.54	0.070	-0.590	1.200	80.60	-1.90	1.40	 	 	 	 	 	 	 	 	 	 	 	 	 	 	 	 	 	 	1581542983	1.18	2.19
12/02/2020 21:29:44	120220	12022020	212944	80.90	12.275195	-56.990250	80.94	-0.070	-0.190	0.370	80.99	-1.50	0.60	 	 	 	 	 	 	 	 	 	 	 	 	 	 	 	 	 	 	1581542984	1.07	1.98
12/02/2020 21:29:45	120220	12022020	212945	81.40	12.275197	-56.990252	81.43	-0.110	0.310	-0.100	81.50	-1.00	0.20	 	 	 	 	 	 	 	 	 	 	 	 	 	 	 	 	 	 	1581542985	0.48	0.89
12/02/2020 21:29:46	120220	12022020	212946	81.74	12.275195	-56.990253	81.69	-0.140	0.560	-0.150	81.76	-0.80	0.20	 	 	 	 	 	 	 	 	 	 	 	 	 	 	 	 	 	 	1581542986	0.47	0.87
12/02/2020 21:29:47	120220	12022020	212947	81.65	12.275192	-56.990253	81.52	-0.130	0.280	0.050	81.57	-1.20	0.40	 	 	 	 	 	 	 	 	 	 	 	 	 	 	 	 	 	 	1581542987	0.53	0.98
12/02/2020 21:29:48	120220	12022020	212948	81.18	12.275192	-56.990250	81.02	-0.040	-0.460	0.290	81.07	-1.90	0.70	 	 	 	 	 	 	 	 	 	 	 	 	 	 	 	 	 	 	1581542988	0.63	1.17
12/02/2020 21:29:49	120220	12022020	212949	80.73	12.275193	-56.990247	80.63	0.120	-1.140	0.460	80.68	-2.50	0.80	 	 	 	 	 	 	 	 	 	 	 	 	 	 	 	 	 	 	1581542989	0.87	1.61
12/02/2020 21:29:50	120220	12022020	212950	80.62	12.275195	-56.990243	80.61	0.260	-1.280	0.620	80.65	-2.60	1.00	 	 	 	 	 	 	 	 	 	 	 	 	 	 	 	 	 	 	1581542990	0.58	1.07
12/02/2020 21:29:51	120220	12022020	212951	80.82	12.275193	-56.990243	80.85	0.260	-0.830	0.830	80.88	-2.10	1.20	 	 	 	 	 	 	 	 	 	 	 	 	 	 	 	 	 	 	1581542991	0.17	0.31
12/02/2020 21:29:52	120220	12022020	212952	81.17	12.275192	-56.990245	81.20	0.120	-0.030	0.890	81.24	-1.30	1.20	 	 	 	 	 	 	 	 	 	 	 	 	 	 	 	 	 	 	1581542992	0.50	0.93
12/02/2020 21:29:53	120220	12022020	212953	81.50	12.275192	-56.990247	81.52	-0.020	0.760	0.750	81.56	-0.50	1.10	 	 	 	 	 	 	 	 	 	 	 	 	 	 	 	 	 	 	1581542993	0.53	0.98
12/02/2020 21:29:54	120220	12022020	212954	81.69	12.275190	-56.990248	81.66	-0.110	1.090	0.620	81.70	-0.30	1.00	 	 	 	 	 	 	 	 	 	 	 	 	 	 	 	 	 	 	1581542994	0.35	0.65
12/02/2020 21:29:55	120220	12022020	212955	81.65	12.275190	-56.990248	81.57	-0.170	0.700	0.660	81.62	-0.80	1.00	 	 	 	 	 	 	 	 	 	 	 	 	 	 	 	 	 	 	1581542995	0.13	0.24
12/02/2020 21:29:56	120220	12022020	212956	81.44	12.275190	-56.990245	81.35	-0.200	-0.110	0.910	81.40	-1.60	1.30	 	 	 	 	 	 	 	 	 	 	 	 	 	 	 	 	 	 	1581542996	0.53	0.98
12/02/2020 21:29:57	120220	12022020	212957	81.22	12.275192	-56.990243	81.15	-0.230	-0.880	1.130	81.18	-2.30	1.50	 	 	 	 	 	 	 	 	 	 	 	 	 	 	 	 	 	 	1581542997	0.58	1.07
12/02/2020 21:29:58	120220	12022020	212958	81.11	12.275192	-56.990242	81.09	-0.200	-1.300	1.080	81.12	-2.70	1.40	 	 	 	 	 	 	 	 	 	 	 	 	 	 	 	 	 	 	1581542998	0.44	0.81
12/02/2020 21:29:59	120220	12022020	212959	81.25	12.275193	-56.990240	81.27	-0.020	-1.320	0.860	81.30	-2.60	1.20	 	 	 	 	 	 	 	 	 	 	 	 	 	 	 	 	 	 	1581542999	0.26	0.48
12/02/2020 21:30:00	120220	12022020	213000	81.51	12.275192	-56.990240	81.52	0.240	-0.890	0.780	81.55	-2.20	1.10	 	 	 	 	 	 	 	 	 	 	 	 	 	 	 	 	 	 	1581543000	0.22	0.41
12/02/2020 21:30:01	120220	12022020	213001	81.65	12.275190	-56.990242	81.62	0.320	-0.110	0.770	81.66	-1.40	1.10	 	 	 	 	 	 	 	 	 	 	 	 	 	 	 	 	 	 	1581543001	0.47	0.87
12/02/2020 21:30:02	120220	12022020	213002	81.61	12.275190	-56.990243	81.54	0.140	0.620	0.610	81.59	-0.70	0.90	1014.70	26.40	26.50	20.60	20.60	32.0	70.0	70.0	389.0	26.3	352.00	8.70	73.00	8.50	3187	12782.0	27.4	27.4	1581543002	0.43	0.80
12/02/2020 21:30:03	120220	12022020	213003	81.40	12.275192	-56.990245	81.31	-0.170	0.910	0.370	81.35	-0.50	0.70	 	 	 	 	 	 	 	 	 	 	 	 	 	 	 	 	 	 	1581543003	0.42	0.78
12/02/2020 21:30:04	120220	12022020	213004	81.22	12.275193	-56.990245	81.16	-0.380	0.790	0.130	81.21	-0.60	0.50	 	 	 	 	 	 	 	 	 	 	 	 	 	 	 	 	 	 	1581543004	0.48	0.89
12/02/2020 21:30:05	120220	12022020	213005	81.28	12.275197	-56.990245	81.26	-0.390	0.380	-0.120	81.32	-1.10	0.20	 	 	 	 	 	 	 	 	 	 	 	 	 	 	 	 	 	 	1581543005	0.53	0.98
12/02/2020 21:30:06	120220	12022020	213006	81.52	12.275198	-56.990245	81.54	-0.180	-0.450	-0.270	81.58	-2.00	0.10	 	 	 	 	 	 	 	 	 	 	 	 	 	 	 	 	 	 	1581543006	0.56	1.04
12/02/2020 21:30:07	120220	12022020	213007	81.82	12.275200	-56.990240	81.82	0.230	-1.550	-0.280	81.87	-3.00	0.10	 	 	 	 	 	 	 	 	 	 	 	 	 	 	 	 	 	 	1581543007	0.92	1.70
12/02/2020 21:30:08	120220	12022020	213008	81.99	12.275200	-56.990235	81.95	0.630	-2.150	-0.000	81.99	-3.50	0.40	 	 	 	 	 	 	 	 	 	 	 	 	 	 	 	 	 	 	1581543008	1.05	1.94
12/02/2020 21:30:09	120220	12022020	213009	81.83	12.275197	-56.990233	81.73	0.710	-1.440	0.740	81.76	-2.60	1.20	 	 	 	 	 	 	 	 	 	 	 	 	 	 	 	 	 	 	1581543009	0.72	1.33
12/02/2020 21:30:10	120220	12022020	213010	81.43	12.275190	-56.990238	81.34	0.290	0.340	1.730	81.35	-0.80	2.20	 	 	 	 	 	 	 	 	 	 	 	 	 	 	 	 	 	 	1581543010	1.56	2.89
12/02/2020 21:30:11	120220	12022020	213011	81.19	12.275185	-56.990245	81.20	-0.470	1.880	2.410	81.20	0.60	2.80	 	 	 	 	 	 	 	 	 	 	 	 	 	 	 	 	 	 	1581543011	1.87	3.46
12/02/2020 21:30:12	120220	12022020	213012	81.35	12.275183	-56.990248	81.40	-1.060	2.030	2.360	81.41	0.60	2.70	 	 	 	 	 	 	 	 	 	 	 	 	 	 	 	 	 	 	1581543012	0.80	1.48
12/02/2020 21:30:13	120220	12022020	213013	81.65	12.275185	-56.990247	81.68	-1.090	0.830	1.750	81.70	-0.70	2.00	 	 	 	 	 	 	 	 	 	 	 	 	 	 	 	 	 	 	1581543013	0.62	1.15
12/02/2020 21:30:14	120220	12022020	213014	81.83	12.275188	-56.990242	81.82	-0.550	-0.730	1.010	81.86	-2.30	1.30	 	 	 	 	 	 	 	 	 	 	 	 	 	 	 	 	 	 	1581543014	1.26	2.33
12/02/2020 21:30:15	120220	12022020	213015	81.95	12.275193	-56.990238	81.94	0.230	-1.810	0.300	81.99	-3.20	0.60	 	 	 	 	 	 	 	 	 	 	 	 	 	 	 	 	 	 	1581543015	1.12	2.07
12/02/2020 21:30:16	120220	12022020	213016	82.14	12.275195	-56.990238	82.13	0.820	-1.980	-0.160	82.18	-3.30	0.20	 	 	 	 	 	 	 	 	 	 	 	 	 	 	 	 	 	 	1581543016	0.58	1.07
12/02/2020 21:30:17	120220	12022020	213017	82.25	12.275195	-56.990240	82.18	0.970	-1.340	-0.170	82.23	-2.60	0.20	 	 	 	 	 	 	 	 	 	 	 	 	 	 	 	 	 	 	1581543017	0.44	0.81
12/02/2020 21:30:18	120220	12022020	213018	82.05	12.275193	-56.990243	81.92	0.800	-0.490	0.140	81.98	-1.70	0.50	 	 	 	 	 	 	 	 	 	 	 	 	 	 	 	 	 	 	1581543018	0.64	1.19
12/02/2020 21:30:19	120220	12022020	213019	81.66	12.275193	-56.990243	81.53	0.610	0.040	0.330	81.59	-1.30	0.70	 	 	 	 	 	 	 	 	 	 	 	 	 	 	 	 	 	 	1581543019	0.11	0.20
12/02/2020 21:30:20	120220	12022020	213020	81.38	12.275195	-56.990242	81.31	0.410	0.290	0.380	81.35	-1.00	0.70	 	 	 	 	 	 	 	 	 	 	 	 	 	 	 	 	 	 	1581543020	0.54	1.00
12/02/2020 21:30:21	120220	12022020	213021	81.44	12.275197	-56.990242	81.45	-0.060	0.720	0.420	81.49	-0.60	0.80	 	 	 	 	 	 	 	 	 	 	 	 	 	 	 	 	 	 	1581543021	0.37	0.69
12/02/2020 21:30:22	120220	12022020	213022	81.74	12.275197	-56.990245	81.78	-0.870	1.430	0.610	81.80	0.20	1.00	 	 	 	 	 	 	 	 	 	 	 	 	 	 	 	 	 	 	1581543022	0.74	1.37
12/02/2020 21:30:23	120220	12022020	213023	82.05	12.275193	-56.990250	82.09	-1.640	1.830	0.870	82.10	0.40	1.30	 	 	 	 	 	 	 	 	 	 	 	 	 	 	 	 	 	 	1581543023	1.38	2.56
12/02/2020 21:30:24	120220	12022020	213024	82.29	12.275188	-56.990253	82.32	-1.790	1.160	1.100	82.33	-0.40	1.50	 	 	 	 	 	 	 	 	 	 	 	 	 	 	 	 	 	 	1581543024	1.19	2.20
12/02/2020 21:30:25	120220	12022020	213025	82.39	12.275183	-56.990250	82.37	-0.990	-0.620	1.300	82.38	-2.30	1.70	 	 	 	 	 	 	 	 	 	 	 	 	 	 	 	 	 	 	1581543025	1.03	1.91
12/02/2020 21:30:26	120220	12022020	213026	82.24	12.275182	-56.990245	82.17	0.460	-2.630	1.560	82.18	-4.20	2.00	 	 	 	 	 	 	 	 	 	 	 	 	 	 	 	 	 	 	1581543026	1.45	2.69
12/02/2020 21:30:27	120220	12022020	213027	81.93	12.275182	-56.990238	81.86	1.770	-3.590	1.830	81.88	-4.90	2.20	 	 	 	 	 	 	 	 	 	 	 	 	 	 	 	 	 	 	1581543027	1.17	2.17
12/02/2020 21:30:28	120220	12022020	213028	81.75	12.275183	-56.990238	81.74	2.220	-2.840	1.850	81.74	-3.90	2.20	 	 	 	 	 	 	 	 	 	 	 	 	 	 	 	 	 	 	1581543028	0.50	0.93
12/02/2020 21:30:29	120220	12022020	213029	81.82	12.275187	-56.990243	81.85	1.610	-0.780	1.500	81.85	-1.80	1.80	 	 	 	 	 	 	 	 	 	 	 	 	 	 	 	 	 	 	1581543029	1.27	2.35
12/02/2020 21:30:30	120220	12022020	213030	82.01	12.275188	-56.990252	82.02	0.400	1.530	0.920	82.04	0.50	1.20	 	 	 	 	 	 	 	 	 	 	 	 	 	 	 	 	 	 	1581543030	1.84	3.41
12/02/2020 21:30:31	120220	12022020	213031	82.05	12.275190	-56.990258	82.00	-0.710	3.000	0.490	82.03	1.70	0.80	 	 	 	 	 	 	 	 	 	 	 	 	 	 	 	 	 	 	1581543031	1.54	2.85
12/02/2020 21:30:32	120220	12022020	213032	81.89	12.275192	-56.990262	81.83	-1.350	3.080	0.250	81.87	1.60	0.60	 	 	 	 	 	 	 	 	 	 	 	 	 	 	 	 	 	 	1581543032	0.71	1.31
12/02/2020 21:30:33	120220	12022020	213033	81.82	12.275192	-56.990262	81.77	-1.470	1.860	-0.030	81.83	0.20	0.30	 	 	 	 	 	 	 	 	 	 	 	 	 	 	 	 	 	 	1581543033	0.14	0.26
12/02/2020 21:30:34	120220	12022020	213034	81.93	12.275193	-56.990258	81.90	-1.200	-0.070	-0.380	81.96	-1.70	-0.00	 	 	 	 	 	 	 	 	 	 	 	 	 	 	 	 	 	 	1581543034	0.57	1.06
12/02/2020 21:30:35	120220	12022020	213035	82.08	12.275193	-56.990255	82.04	-0.670	-1.990	-0.460	82.11	-3.50	-0.10	 	 	 	 	 	 	 	 	 	 	 	 	 	 	 	 	 	 	1581543035	0.71	1.31
12/02/2020 21:30:36	120220	12022020	213036	82.12	12.275192	-56.990253	82.05	0.050	-3.140	-0.150	82.10	-4.50	0.30	 	 	 	 	 	 	 	 	 	 	 	 	 	 	 	 	 	 	1581543036	0.59	1.09
12/02/2020 21:30:37	120220	12022020	213037	81.90	12.275188	-56.990252	81.80	0.860	-3.170	0.550	81.82	-4.40	1.00	 	 	 	 	 	 	 	 	 	 	 	 	 	 	 	 	 	 	1581543037	0.57	1.06
12/02/2020 21:30:38	120220	12022020	213038	81.51	12.275185	-56.990253	81.44	1.510	-2.240	1.320	81.44	-3.40	1.70	 	 	 	 	 	 	 	 	 	 	 	 	 	 	 	 	 	 	1581543038	0.77	1.43
12/02/2020 21:30:39	120220	12022020	213039	81.29	12.275183	-56.990255	81.29	1.660	-0.630	1.650	81.28	-1.70	2.00	 	 	 	 	 	 	 	 	 	 	 	 	 	 	 	 	 	 	1581543039	0.70	1.30
12/02/2020 21:30:40	120220	12022020	213040	81.39	12.275185	-56.990262	81.44	1.120	1.250	1.490	81.44	0.10	1.80	 	 	 	 	 	 	 	 	 	 	 	 	 	 	 	 	 	 	1581543040	1.13	2.09
12/02/2020 21:30:41	120220	12022020	213041	81.76	12.275188	-56.990267	81.85	0.070	2.640	1.070	81.85	1.40	1.40	 	 	 	 	 	 	 	 	 	 	 	 	 	 	 	 	 	 	1581543041	1.47	2.72
12/02/2020 21:30:42	120220	12022020	213042	82.22	12.275188	-56.990272	82.28	-0.970	2.830	0.690	82.29	1.40	1.00	 	 	 	 	 	 	 	 	 	 	 	 	 	 	 	 	 	 	1581543042	0.91	1.69
12/02/2020 21:30:43	120220	12022020	213043	82.43	12.275188	-56.990272	82.39	-1.500	1.720	0.540	82.41	0.10	0.90	 	 	 	 	 	 	 	 	 	 	 	 	 	 	 	 	 	 	1581543043	0.26	0.48
12/02/2020 21:30:44	120220	12022020	213044	82.13	12.275185	-56.990268	82.01	-1.360	-0.170	0.750	82.02	-1.80	1.20	 	 	 	 	 	 	 	 	 	 	 	 	 	 	 	 	 	 	1581543044	0.99	1.83
12/02/2020 21:30:45	120220	12022020	213045	81.56	12.275182	-56.990263	81.47	-0.710	-2.000	1.110	81.47	-3.50	1.50	 	 	 	 	 	 	 	 	 	 	 	 	 	 	 	 	 	 	1581543045	1.16	2.15
12/02/2020 21:30:46	120220	12022020	213046	81.23	12.275182	-56.990260	81.23	0.140	-3.050	1.170	81.22	-4.40	1.50	 	 	 	 	 	 	 	 	 	 	 	 	 	 	 	 	 	 	1581543046	0.69	1.28
12/02/2020 21:30:47	120220	12022020	213047	81.32	12.275183	-56.990260	81.37	0.890	-2.880	0.770	81.37	-4.10	1.00	 	 	 	 	 	 	 	 	 	 	 	 	 	 	 	 	 	 	1581543047	0.44	0.81
12/02/2020 21:30:48	120220	12022020	213048	81.62	12.275187	-56.990263	81.68	1.250	-1.630	0.120	81.69	-2.70	0.40	 	 	 	 	 	 	 	 	 	 	 	 	 	 	 	 	 	 	1581543048	1.14	2.11
12/02/2020 21:30:49	120220	12022020	213049	81.85	12.275192	-56.990268	81.84	1.120	-0.040	-0.390	81.87	-1.20	-0.10	 	 	 	 	 	 	 	 	 	 	 	 	 	 	 	 	 	 	1581543049	1.29	2.39
12/02/2020 21:30:50	120220	12022020	213050	81.89	12.275192	-56.990272	81.85	0.630	1.270	-0.450	81.88	0.10	-0.10	 	 	 	 	 	 	 	 	 	 	 	 	 	 	 	 	 	 	1581543050	0.78	1.44
12/02/2020 21:30:51	120220	12022020	213051	81.88	12.275190	-56.990273	81.86	0.040	2.020	-0.120	81.88	0.70	0.30	 	 	 	 	 	 	 	 	 	 	 	 	 	 	 	 	 	 	1581543051	0.61	1.13
12/02/2020 21:30:52	120220	12022020	213052	81.92	12.275187	-56.990275	81.91	-0.470	2.040	0.470	81.93	0.60	0.90	 	 	 	 	 	 	 	 	 	 	 	 	 	 	 	 	 	 	1581543052	0.76	1.41
12/02/2020 21:30:53	120220	12022020	213053	81.94	12.275183	-56.990275	81.94	-0.800	1.230	1.150	81.94	-0.30	1.60	 	 	 	 	 	 	 	 	 	 	 	 	 	 	 	 	 	 	1581543053	0.76	1.41
12/02/2020 21:30:54	120220	12022020	213054	81.83	12.275180	-56.990272	81.78	-0.860	-0.260	1.780	81.78	-1.80	2.20	 	 	 	 	 	 	 	 	 	 	 	 	 	 	 	 	 	 	1581543054	0.95	1.76
12/02/2020 21:30:55	120220	12022020	213055	81.48	12.275177	-56.990267	81.39	-0.550	-1.800	2.330	81.39	-3.30	2.70	 	 	 	 	 	 	 	 	 	 	 	 	 	 	 	 	 	 	1581543055	1.20	2.22
12/02/2020 21:30:56	120220	12022020	213056	81.01	12.275173	-56.990262	80.91	0.070	-2.730	2.680	80.92	-4.10	3.00	 	 	 	 	 	 	 	 	 	 	 	 	 	 	 	 	 	 	1581543056	1.07	1.98
12/02/2020 21:30:57	120220	12022020	213057	80.66	12.275173	-56.990262	80.61	0.750	-2.510	2.570	80.62	-3.70	2.90	 	 	 	 	 	 	 	 	 	 	 	 	 	 	 	 	 	 	1581543057	0.34	0.63
12/02/2020 21:30:58	120220	12022020	213058	80.62	12.275175	-56.990263	80.63	1.060	-1.240	1.950	80.65	-2.30	2.20	 	 	 	 	 	 	 	 	 	 	 	 	 	 	 	 	 	 	1581543058	0.69	1.28
12/02/2020 21:30:59	120220	12022020	213059	80.80	12.275178	-56.990268	80.82	0.740	0.470	1.020	80.85	-0.60	1.20	 	 	 	 	 	 	 	 	 	 	 	 	 	 	 	 	 	 	1581543059	1.33	2.46
12/02/2020 21:31:00	120220	12022020	213100	81.02	12.275183	-56.990273	81.00	-0.020	1.800	-0.070	81.06	0.60	0.10	 	 	 	 	 	 	 	 	 	 	 	 	 	 	 	 	 	 	1581543060	1.54	2.85
12/02/2020 21:31:01	120220	12022020	213101	81.18	12.275188	-56.990278	81.11	-0.710	2.120	-1.100	81.19	0.70	-0.80	 	 	 	 	 	 	 	 	 	 	 	 	 	 	 	 	 	 	1581543061	1.26	2.33
12/02/2020 21:31:02	120220	12022020	213102	81.21	12.275192	-56.990277	81.10	-0.830	1.270	-1.660	81.19	-0.30	-1.30	1014.80	26.50	26.50	20.80	20.80	31.0	71.0	70.0	390.0	26.3	346.00	9.40	67.00	9.00	3044	12172.0	27.4	27.4	1581543062	0.70	1.30
12/02/2020 21:31:03	120220	12022020	213103	81.06	12.275192	-56.990272	80.91	-0.300	-0.320	-1.540	81.00	-1.90	-1.10	 	 	 	 	 	 	 	 	 	 	 	 	 	 	 	 	 	 	1581543063	1.02	1.89
12/02/2020 21:31:04	120220	12022020	213104	80.72	12.275190	-56.990267	80.58	0.460	-1.730	-0.920	80.65	-3.20	-0.40	 	 	 	 	 	 	 	 	 	 	 	 	 	 	 	 	 	 	1581543064	1.30	2.41
12/02/2020 21:31:05	120220	12022020	213105	80.47	12.275188	-56.990263	80.40	0.880	-2.100	-0.210	80.45	-3.40	0.30	 	 	 	 	 	 	 	 	 	 	 	 	 	 	 	 	 	 	1581543065	0.73	1.35
12/02/2020 21:31:06	120220	12022020	213106	80.45	12.275187	-56.990263	80.41	0.710	-1.390	0.560	80.45	-2.60	1.10	 	 	 	 	 	 	 	 	 	 	 	 	 	 	 	 	 	 	1581543066	0.58	1.07
12/02/2020 21:31:07	120220	12022020	213107	80.38	12.275182	-56.990267	80.34	0.080	-0.200	1.570	80.34	-1.40	2.10	 	 	 	 	 	 	 	 	 	 	 	 	 	 	 	 	 	 	1581543067	1.30	2.41
12/02/2020 21:31:08	120220	12022020	213108	80.17	12.275175	-56.990268	80.16	-0.540	0.760	2.470	80.14	-0.50	2.90	 	 	 	 	 	 	 	 	 	 	 	 	 	 	 	 	 	 	1581543068	1.50	2.78
12/02/2020 21:31:09	120220	12022020	213109	80.10	12.275170	-56.990270	80.14	-0.750	1.000	2.730	80.12	-0.40	3.10	 	 	 	 	 	 	 	 	 	 	 	 	 	 	 	 	 	 	1581543069	0.94	1.74
12/02/2020 21:31:10	120220	12022020	213110	80.32	12.275170	-56.990268	80.41	-0.410	0.480	2.260	80.39	-1.00	2.50	 	 	 	 	 	 	 	 	 	 	 	 	 	 	 	 	 	 	1581543070	0.44	0.81
12/02/2020 21:31:11	120220	12022020	213111	80.73	12.275173	-56.990265	80.79	0.180	-0.280	1.340	80.80	-1.70	1.60	 	 	 	 	 	 	 	 	 	 	 	 	 	 	 	 	 	 	1581543071	0.98	1.81
12/02/2020 21:31:12	120220	12022020	213112	81.04	12.275177	-56.990262	81.02	0.630	-0.710	0.470	81.06	-2.10	0.70	 	 	 	 	 	 	 	 	 	 	 	 	 	 	 	 	 	 	1581543072	1.00	1.85
12/02/2020 21:31:13	120220	12022020	213113	80.97	12.275180	-56.990262	80.84	0.690	-0.700	-0.040	80.89	-2.00	0.30	 	 	 	 	 	 	 	 	 	 	 	 	 	 	 	 	 	 	1581543073	0.63	1.17
12/02/2020 21:31:14	120220	12022020	213114	80.45	12.275182	-56.990263	80.26	0.360	-0.470	-0.100	80.32	-1.80	0.30	 	 	 	 	 	 	 	 	 	 	 	 	 	 	 	 	 	 	1581543074	0.38	0.70
12/02/2020 21:31:15	120220	12022020	213115	79.80	12.275183	-56.990263	79.64	-0.110	-0.150	0.070	79.70	-1.50	0.50	 	 	 	 	 	 	 	 	 	 	 	 	 	 	 	 	 	 	1581543075	0.28	0.52
12/02/2020 21:31:16	120220	12022020	213116	79.45	12.275183	-56.990265	79.39	-0.470	0.150	0.080	79.44	-1.20	0.40	 	 	 	 	 	 	 	 	 	 	 	 	 	 	 	 	 	 	1581543076	0.38	0.70
12/02/2020 21:31:17	120220	12022020	213117	79.61	12.275187	-56.990265	79.65	-0.520	0.230	-0.200	79.71	-1.10	0.10	 	 	 	 	 	 	 	 	 	 	 	 	 	 	 	 	 	 	1581543077	0.45	0.83
12/02/2020 21:31:18	120220	12022020	213118	80.18	12.275188	-56.990265	80.24	-0.260	-0.100	-0.580	80.31	-1.50	-0.20	 	 	 	 	 	 	 	 	 	 	 	 	 	 	 	 	 	 	1581543078	0.39	0.72
12/02/2020 21:31:19	120220	12022020	213119	80.69	12.275187	-56.990262	80.69	0.160	-0.700	-0.560	80.75	-2.10	-0.10	 	 	 	 	 	 	 	 	 	 	 	 	 	 	 	 	 	 	1581543079	0.76	1.41
12/02/2020 21:31:20	120220	12022020	213120	80.85	12.275183	-56.990257	80.80	0.430	-1.010	0.080	80.84	-2.30	0.60	 	 	 	 	 	 	 	 	 	 	 	 	 	 	 	 	 	 	1581543080	1.21	2.24
12/02/2020 21:31:21	120220	12022020	213121	80.67	12.275175	-56.990255	80.59	0.280	-0.550	1.180	80.61	-1.80	1.70	 	 	 	 	 	 	 	 	 	 	 	 	 	 	 	 	 	 	1581543081	1.63	3.02
12/02/2020 21:31:22	120220	12022020	213122	80.27	12.275168	-56.990257	80.18	-0.140	0.390	2.080	80.18	-0.80	2.50	 	 	 	 	 	 	 	 	 	 	 	 	 	 	 	 	 	 	1581543082	1.70	3.15
12/02/2020 21:31:23	120220	12022020	213123	79.85	12.275165	-56.990260	79.78	-0.450	1.000	2.220	79.79	-0.30	2.50	 	 	 	 	 	 	 	 	 	 	 	 	 	 	 	 	 	 	1581543083	0.90	1.67
12/02/2020 21:31:24	120220	12022020	213124	79.69	12.275168	-56.990262	79.67	-0.410	0.740	1.600	79.70	-0.70	1.80	 	 	 	 	 	 	 	 	 	 	 	 	 	 	 	 	 	 	1581543084	0.82	1.52
12/02/2020 21:31:25	120220	12022020	213125	79.83	12.275177	-56.990260	79.82	-0.100	-0.200	0.710	79.88	-1.70	1.00	 	 	 	 	 	 	 	 	 	 	 	 	 	 	 	 	 	 	1581543085	1.55	2.87
12/02/2020 21:31:26	120220	12022020	213126	80.05	12.275182	-56.990257	80.03	0.280	-1.220	-0.010	80.09	-2.70	0.30	 	 	 	 	 	 	 	 	 	 	 	 	 	 	 	 	 	 	1581543086	1.46	2.70
12/02/2020 21:31:27	120220	12022020	213127	80.18	12.275185	-56.990253	80.14	0.560	-1.730	-0.470	80.20	-3.10	-0.20	 	 	 	 	 	 	 	 	 	 	 	 	 	 	 	 	 	 	1581543087	0.95	1.76
12/02/2020 21:31:28	120220	12022020	213128	80.20	12.275185	-56.990252	80.13	0.660	-1.470	-0.580	80.18	-2.70	-0.20	 	 	 	 	 	 	 	 	 	 	 	 	 	 	 	 	 	 	1581543088	0.36	0.67
12/02/2020 21:31:29	120220	12022020	213129	80.12	12.275183	-56.990252	80.05	0.490	-0.610	-0.260	80.10	-1.80	0.20	 	 	 	 	 	 	 	 	 	 	 	 	 	 	 	 	 	 	1581543089	0.44	0.81
12/02/2020 21:31:30	120220	12022020	213130	79.96	12.275178	-56.990253	79.90	0.010	0.570	0.420	79.93	-0.60	0.90	 	 	 	 	 	 	 	 	 	 	 	 	 	 	 	 	 	 	1581543090	0.98	1.81
12/02/2020 21:31:31	120220	12022020	213131	79.85	12.275175	-56.990258	79.83	-0.650	1.680	1.010	79.85	0.50	1.40	 	 	 	 	 	 	 	 	 	 	 	 	 	 	 	 	 	 	1581543091	1.21	2.24
12/02/2020 21:31:32	120220	12022020	213132	79.95	12.275172	-56.990262	79.99	-1.130	2.110	1.150	80.00	0.70	1.50	 	 	 	 	 	 	 	 	 	 	 	 	 	 	 	 	 	 	1581543092	1.00	1.85
12/02/2020 21:31:33	120220	12022020	213133	80.18	12.275172	-56.990262	80.22	-1.100	1.190	1.030	80.22	-0.40	1.40	 	 	 	 	 	 	 	 	 	 	 	 	 	 	 	 	 	 	1581543093	0.11	0.20
12/02/2020 21:31:34	120220	12022020	213134	80.27	12.275172	-56.990257	80.27	-0.520	-0.820	1.060	80.26	-2.50	1.40	 	 	 	 	 	 	 	 	 	 	 	 	 	 	 	 	 	 	1581543094	1.18	2.19
12/02/2020 21:31:35	120220	12022020	213135	80.17	12.275172	-56.990248	80.15	0.310	-2.690	1.310	80.15	-4.20	1.70	 	 	 	 	 	 	 	 	 	 	 	 	 	 	 	 	 	 	1581543095	1.75	3.24
12/02/2020 21:31:36	120220	12022020	213136	80.11	12.275170	-56.990243	80.11	0.990	-3.140	1.570	80.11	-4.40	1.90	 	 	 	 	 	 	 	 	 	 	 	 	 	 	 	 	 	 	1581543096	1.08	2.00
12/02/2020 21:31:37	120220	12022020	213137	80.16	12.275167	-56.990245	80.16	1.210	-1.990	1.620	80.17	-3.10	1.90	 	 	 	 	 	 	 	 	 	 	 	 	 	 	 	 	 	 	1581543097	0.47	0.87
12/02/2020 21:31:38	120220	12022020	213138	80.15	12.275167	-56.990250	80.12	0.880	-0.110	1.290	80.13	-1.20	1.60	 	 	 	 	 	 	 	 	 	 	 	 	 	 	 	 	 	 	1581543098	1.10	2.04
12/02/2020 21:31:39	120220	12022020	213139	79.98	12.275170	-56.990255	79.88	0.160	1.530	0.760	79.93	0.30	1.10	 	 	 	 	 	 	 	 	 	 	 	 	 	 	 	 	 	 	1581543099	1.31	2.43
12/02/2020 21:31:40	120220	12022020	213140	79.73	12.275172	-56.990260	79.65	-0.600	2.320	0.310	79.70	1.00	0.60	 	 	 	 	 	 	 	 	 	 	 	 	 	 	 	 	 	 	1581543100	1.03	1.91
12/02/2020 21:31:41	120220	12022020	213141	79.68	12.275175	-56.990260	79.65	-1.070	2.060	-0.110	79.71	0.60	0.20	 	 	 	 	 	 	 	 	 	 	 	 	 	 	 	 	 	 	1581543101	0.71	1.31
12/02/2020 21:31:42	120220	12022020	213142	79.95	12.275178	-56.990258	79.95	-1.110	0.800	-0.650	80.02	-0.80	-0.40	 	 	 	 	 	 	 	 	 	 	 	 	 	 	 	 	 	 	1581543102	0.81	1.50
12/02/2020 21:31:43	120220	12022020	213143	80.29	12.275182	-56.990255	80.28	-0.720	-0.980	-1.000	80.35	-2.60	-0.60	 	 	 	 	 	 	 	 	 	 	 	 	 	 	 	 	 	 	1581543103	1.04	1.93
12/02/2020 21:31:44	120220	12022020	213144	80.46	12.275180	-56.990248	80.41	0.000	-2.430	-0.800	80.48	-3.90	-0.40	 	 	 	 	 	 	 	 	 	 	 	 	 	 	 	 	 	 	1581543104	1.22	2.26
12/02/2020 21:31:45	120220	12022020	213145	80.46	12.275177	-56.990245	80.41	0.680	-2.750	-0.050	80.45	-4.00	0.40	 	 	 	 	 	 	 	 	 	 	 	 	 	 	 	 	 	 	1581543105	1.15	2.13
12/02/2020 21:31:46	120220	12022020	213146	80.35	12.275170	-56.990245	80.31	0.880	-1.780	1.060	80.33	-2.90	1.60	 	 	 	 	 	 	 	 	 	 	 	 	 	 	 	 	 	 	1581543106	1.44	2.67
12/02/2020 21:31:47	120220	12022020	213147	80.24	12.275162	-56.990248	80.25	0.470	-0.110	2.020	80.24	-1.20	2.40	 	 	 	 	 	 	 	 	 	 	 	 	 	 	 	 	 	 	1581543107	1.84	3.41
12/02/2020 21:31:48	120220	12022020	213148	80.28	12.275157	-56.990253	80.31	-0.100	1.330	2.340	80.30	0.10	2.70	 	 	 	 	 	 	 	 	 	 	 	 	 	 	 	 	 	 	1581543108	1.53	2.83
12/02/2020 21:31:49	120220	12022020	213149	80.41	12.275157	-56.990257	80.42	-0.330	1.810	1.990	80.43	0.40	2.30	 	 	 	 	 	 	 	 	 	 	 	 	 	 	 	 	 	 	1581543109	0.54	1.00
12/02/2020 21:31:50	120220	12022020	213150	80.40	12.275160	-56.990255	80.36	-0.150	1.190	1.400	80.38	-0.30	1.70	 	 	 	 	 	 	 	 	 	 	 	 	 	 	 	 	 	 	1581543110	0.93	1.72
12/02/2020 21:31:51	120220	12022020	213151	80.25	12.275167	-56.990252	80.19	0.020	0.080	0.720	80.22	-1.40	1.00	 	 	 	 	 	 	 	 	 	 	 	 	 	 	 	 	 	 	1581543111	1.43	2.65
12/02/2020 21:31:52	120220	12022020	213152	80.20	12.275172	-56.990250	80.18	-0.050	-0.720	0.110	80.23	-2.10	0.40	 	 	 	 	 	 	 	 	 	 	 	 	 	 	 	 	 	 	1581543112	1.14	2.11
12/02/2020 21:31:53	120220	12022020	213153	80.43	12.275173	-56.990250	80.45	-0.170	-1.100	-0.290	80.50	-2.50	0.00	 	 	 	 	 	 	 	 	 	 	 	 	 	 	 	 	 	 	1581543113	0.59	1.09
12/02/2020 21:31:54	120220	12022020	213154	80.82	12.275175	-56.990250	80.86	0.020	-1.400	-0.470	80.91	-2.80	-0.10	 	 	 	 	 	 	 	 	 	 	 	 	 	 	 	 	 	 	1581543114	0.17	0.31
12/02/2020 21:31:55	120220	12022020	213155	81.23	12.275173	-56.990248	81.26	0.440	-1.510	-0.420	81.31	-2.80	-0.00	 	 	 	 	 	 	 	 	 	 	 	 	 	 	 	 	 	 	1581543115	0.50	0.93
12/02/2020 21:31:56	120220	12022020	213156	81.50	12.275170	-56.990247	81.48	0.570	-0.820	0.080	81.52	-2.00	0.50	 	 	 	 	 	 	 	 	 	 	 	 	 	 	 	 	 	 	1581543116	0.83	1.54
12/02/2020 21:31:57	120220	12022020	213157	81.45	12.275163	-56.990250	81.39	0.130	0.560	0.970	81.40	-0.60	1.50	 	 	 	 	 	 	 	 	 	 	 	 	 	 	 	 	 	 	1581543117	1.61	2.98
12/02/2020 21:31:58	120220	12022020	213158	81.10	12.275157	-56.990255	81.02	-0.570	1.590	1.910	81.01	0.30	2.40	 	 	 	 	 	 	 	 	 	 	 	 	 	 	 	 	 	 	1581543118	1.77	3.28
12/02/2020 21:31:59	120220	12022020	213159	80.72	12.275152	-56.990255	80.69	-0.850	1.330	2.320	80.67	-0.20	2.70	 	 	 	 	 	 	 	 	 	 	 	 	 	 	 	 	 	 	1581543119	0.87	1.61
12/02/2020 21:32:00	120220	12022020	213200	80.61	12.275153	-56.990252	80.61	-0.450	-0.020	1.990	80.62	-1.60	2.20	 	 	 	 	 	 	 	 	 	 	 	 	 	 	 	 	 	 	1581543120	0.96	1.78
12/02/2020 21:32:01	120220	12022020	213201	80.72	12.275158	-56.990247	80.71	0.210	-1.230	1.260	80.74	-2.70	1.50	 	 	 	 	 	 	 	 	 	 	 	 	 	 	 	 	 	 	1581543121	1.45	2.69
12/02/2020 21:32:02	120220	12022020	213202	80.83	12.275163	-56.990245	80.79	0.540	-1.440	0.540	80.84	-2.70	0.80	1014.80	26.30	26.40	20.50	20.60	30.0	70.0	70.0	390.0	26.3	346.00	10.30	65.00	9.90	2883	11587.0	27.4	27.4	1581543122	1.18	2.19
12/02/2020 21:32:03	120220	12022020	213203	80.88	12.275168	-56.990248	80.83	0.380	-0.840	0.050	80.89	-2.10	0.40	 	 	 	 	 	 	 	 	 	 	 	 	 	 	 	 	 	 	1581543123	1.10	2.04
12/02/2020 21:32:04	120220	12022020	213204	81.00	12.275168	-56.990252	80.99	0.020	-0.140	-0.240	81.05	-1.40	0.10	 	 	 	 	 	 	 	 	 	 	 	 	 	 	 	 	 	 	1581543124	0.81	1.50
12/02/2020 21:32:05	120220	12022020	213205	81.28	12.275168	-56.990253	81.28	-0.160	0.220	-0.340	81.33	-1.10	0.00	 	 	 	 	 	 	 	 	 	 	 	 	 	 	 	 	 	 	1581543125	0.38	0.70
12/02/2020 21:32:06	120220	12022020	213206	81.39	12.275165	-56.990253	81.30	-0.040	0.210	0.050	81.35	-1.20	0.50	 	 	 	 	 	 	 	 	 	 	 	 	 	 	 	 	 	 	1581543126	0.60	1.11
12/02/2020 21:32:07	120220	12022020	213207	81.07	12.275162	-56.990250	80.93	0.130	-0.040	0.870	80.96	-1.40	1.30	 	 	 	 	 	 	 	 	 	 	 	 	 	 	 	 	 	 	1581543127	1.01	1.87
12/02/2020 21:32:08	120220	12022020	213208	80.55	12.275157	-56.990248	80.43	0.150	-0.330	1.650	80.45	-1.70	2.10	 	 	 	 	 	 	 	 	 	 	 	 	 	 	 	 	 	 	1581543128	0.98	1.81
12/02/2020 21:32:09	120220	12022020	213209	80.17	12.275155	-56.990247	80.13	0.050	-0.390	2.070	80.13	-1.70	2.40	 	 	 	 	 	 	 	 	 	 	 	 	 	 	 	 	 	 	1581543129	0.56	1.04
12/02/2020 21:32:10	120220	12022020	213210	80.15	12.275155	-56.990247	80.19	-0.070	-0.150	2.070	80.19	-1.40	2.40	 	 	 	 	 	 	 	 	 	 	 	 	 	 	 	 	 	 	1581543130	0.16	0.30
12/02/2020 21:32:11	120220	12022020	213211	80.46	12.275157	-56.990250	80.55	-0.190	0.140	1.730	80.55	-1.20	2.00	 	 	 	 	 	 	 	 	 	 	 	 	 	 	 	 	 	 	1581543131	0.49	0.91
12/02/2020 21:32:12	120220	12022020	213212	80.95	12.275158	-56.990252	81.01	-0.360	0.230	1.110	81.04	-1.10	1.40	 	 	 	 	 	 	 	 	 	 	 	 	 	 	 	 	 	 	1581543132	0.55	1.02
12/02/2020 21:32:13	120220	12022020	213213	81.26	12.275160	-56.990252	81.23	-0.470	0.050	0.510	81.27	-1.40	0.80	 	 	 	 	 	 	 	 	 	 	 	 	 	 	 	 	 	 	1581543133	0.46	0.85
12/02/2020 21:32:14	120220	12022020	213214	81.12	12.275160	-56.990252	81.00	-0.270	-0.420	0.260	81.05	-1.90	0.60	 	 	 	 	 	 	 	 	 	 	 	 	 	 	 	 	 	 	1581543134	0.25	0.46
12/02/2020 21:32:15	120220	12022020	213215	80.67	12.275162	-56.990248	80.53	0.240	-0.980	0.340	80.57	-2.40	0.70	 	 	 	 	 	 	 	 	 	 	 	 	 	 	 	 	 	 	1581543135	0.56	1.04
12/02/2020 21:32:16	120220	12022020	213216	80.23	12.275162	-56.990247	80.14	0.670	-1.140	0.470	80.17	-2.50	0.80	 	 	 	 	 	 	 	 	 	 	 	 	 	 	 	 	 	 	1581543136	0.48	0.89
12/02/2020 21:32:17	120220	12022020	213217	80.14	12.275163	-56.990247	80.14	0.690	-0.740	0.280	80.18	-2.00	0.60	 	 	 	 	 	 	 	 	 	 	 	 	 	 	 	 	 	 	1581543137	0.43	0.80
12/02/2020 21:32:18	120220	12022020	213218	80.48	12.275167	-56.990250	80.52	0.330	-0.030	-0.160	80.57	-1.30	0.20	 	 	 	 	 	 	 	 	 	 	 	 	 	 	 	 	 	 	1581543138	0.81	1.50
12/02/2020 21:32:19	120220	12022020	213219	80.94	12.275168	-56.990252	80.96	-0.190	0.550	-0.350	81.02	-0.70	0.00	 	 	 	 	 	 	 	 	 	 	 	 	 	 	 	 	 	 	1581543139	0.62	1.15
12/02/2020 21:32:20	120220	12022020	213220	81.23	12.275165	-56.990253	81.19	-0.640	0.770	0.010	81.26	-0.60	0.50	 	 	 	 	 	 	 	 	 	 	 	 	 	 	 	 	 	 	1581543140	0.58	1.07
12/02/2020 21:32:21	120220	12022020	213221	81.27	12.275160	-56.990253	81.21	-0.850	0.620	0.720	81.26	-0.80	1.20	 	 	 	 	 	 	 	 	 	 	 	 	 	 	 	 	 	 	1581543141	1.28	2.37
12/02/2020 21:32:22	120220	12022020	213222	81.16	12.275153	-56.990252	81.10	-0.660	0.140	1.480	81.12	-1.30	1.90	 	 	 	 	 	 	 	 	 	 	 	 	 	 	 	 	 	 	1581543142	1.45	2.69
12/02/2020 21:32:23	120220	12022020	213223	80.99	12.275148	-56.990250	80.93	-0.120	-0.430	2.070	80.95	-1.90	2.50	 	 	 	 	 	 	 	 	 	 	 	 	 	 	 	 	 	 	1581543143	0.96	1.78
12/02/2020 21:32:24	120220	12022020	213224	80.87	12.275150	-56.990248	80.85	0.430	-0.900	2.230	80.86	-2.30	2.60	 	 	 	 	 	 	 	 	 	 	 	 	 	 	 	 	 	 	1581543144	0.28	0.52
12/02/2020 21:32:25	120220	12022020	213225	80.96	12.275153	-56.990248	80.99	0.630	-1.050	1.830	81.01	-2.40	2.10	 	 	 	 	 	 	 	 	 	 	 	 	 	 	 	 	 	 	1581543145	0.94	1.74
12/02/2020 21:32:26	120220	12022020	213226	81.24	12.275158	-56.990250	81.27	0.470	-0.860	1.230	81.29	-2.20	1.50	 	 	 	 	 	 	 	 	 	 	 	 	 	 	 	 	 	 	1581543146	1.11	2.06
12/02/2020 21:32:27	120220	12022020	213227	81.47	12.275162	-56.990250	81.46	0.230	-0.590	0.820	81.49	-1.90	1.20	 	 	 	 	 	 	 	 	 	 	 	 	 	 	 	 	 	 	1581543147	0.59	1.09
12/02/2020 21:32:28	120220	12022020	213228	81.48	12.275162	-56.990250	81.42	0.160	-0.430	0.790	81.45	-1.80	1.20	 	 	 	 	 	 	 	 	 	 	 	 	 	 	 	 	 	 	1581543148	0.19	0.35
12/02/2020 21:32:29	120220	12022020	213229	81.30	12.275158	-56.990248	81.25	0.150	-0.180	1.050	81.27	-1.50	1.40	 	 	 	 	 	 	 	 	 	 	 	 	 	 	 	 	 	 	1581543149	0.61	1.13
12/02/2020 21:32:30	120220	12022020	213230	81.24	12.275157	-56.990248	81.26	-0.130	0.510	1.200	81.27	-0.70	1.50	 	 	 	 	 	 	 	 	 	 	 	 	 	 	 	 	 	 	1581543150	0.56	1.04
12/02/2020 21:32:31	120220	12022020	213231	81.52	12.275155	-56.990253	81.58	-0.690	1.390	0.960	81.60	0.10	1.30	 	 	 	 	 	 	 	 	 	 	 	 	 	 	 	 	 	 	1581543151	1.01	1.87
12/02/2020 21:32:32	120220	12022020	213232	81.90	12.275155	-56.990258	81.92	-1.060	1.510	0.420	81.95	0.10	0.70	 	 	 	 	 	 	 	 	 	 	 	 	 	 	 	 	 	 	1581543152	0.98	1.81
12/02/2020 21:32:33	120220	12022020	213233	81.98	12.275158	-56.990257	81.90	-0.760	0.360	0.110	81.94	-1.20	0.50	 	 	 	 	 	 	 	 	 	 	 	 	 	 	 	 	 	 	1581543153	0.46	0.85
12/02/2020 21:32:34	120220	12022020	213234	81.72	12.275160	-56.990252	81.62	0.100	-1.400	0.240	81.67	-3.00	0.60	 	 	 	 	 	 	 	 	 	 	 	 	 	 	 	 	 	 	1581543154	1.23	2.28
12/02/2020 21:32:35	120220	12022020	213235	81.56	12.275162	-56.990247	81.53	0.910	-2.590	0.470	81.56	-4.00	0.90	 	 	 	 	 	 	 	 	 	 	 	 	 	 	 	 	 	 	1581543155	1.24	2.30
12/02/2020 21:32:36	120220	12022020	213236	81.66	12.275162	-56.990245	81.68	1.130	-2.360	0.610	81.71	-3.50	1.00	 	 	 	 	 	 	 	 	 	 	 	 	 	 	 	 	 	 	1581543156	0.32	0.59
12/02/2020 21:32:37	120220	12022020	213237	81.88	12.275162	-56.990248	81.90	0.730	-0.820	0.630	81.92	-1.90	1.00	 	 	 	 	 	 	 	 	 	 	 	 	 	 	 	 	 	 	1581543157	0.93	1.72
12/02/2020 21:32:38	120220	12022020	213238	82.08	12.275160	-56.990257	82.10	0.040	0.990	0.730	82.12	-0.20	1.10	 	 	 	 	 	 	 	 	 	 	 	 	 	 	 	 	 	 	1581543158	1.55	2.87
12/02/2020 21:32:39	120220	12022020	213239	82.22	12.275157	-56.990260	82.23	-0.520	1.870	1.060	82.23	0.50	1.50	 	 	 	 	 	 	 	 	 	 	 	 	 	 	 	 	 	 	1581543159	1.12	2.07
12/02/2020 21:32:40	120220	12022020	213240	82.23	12.275153	-56.990260	82.24	-0.730	1.440	1.510	82.23	-0.00	1.90	 	 	 	 	 	 	 	 	 	 	 	 	 	 	 	 	 	 	1581543160	0.76	1.41
12/02/2020 21:32:41	120220	12022020	213241	82.21	12.275152	-56.990257	82.23	-0.650	0.380	1.760	82.21	-1.10	2.10	 	 	 	 	 	 	 	 	 	 	 	 	 	 	 	 	 	 	1581543161	0.97	1.80
12/02/2020 21:32:42	120220	12022020	213242	82.24	12.275150	-56.990253	82.27	-0.480	-0.430	1.740	82.26	-1.80	2.10	 	 	 	 	 	 	 	 	 	 	 	 	 	 	 	 	 	 	1581543162	0.53	0.98
12/02/2020 21:32:43	120220	12022020	213243	82.36	12.275150	-56.990255	82.39	-0.350	-0.830	1.570	82.39	-2.20	1.90	 	 	 	 	 	 	 	 	 	 	 	 	 	 	 	 	 	 	1581543163	0.14	0.26
12/02/2020 21:32:44	120220	12022020	213244	82.50	12.275150	-56.990257	82.49	-0.140	-1.050	1.370	82.50	-2.40	1.70	 	 	 	 	 	 	 	 	 	 	 	 	 	 	 	 	 	 	1581543164	0.32	0.59
12/02/2020 21:32:45	120220	12022020	213245	82.38	12.275150	-56.990257	82.30	0.300	-1.230	1.370	82.33	-2.60	1.70	 	 	 	 	 	 	 	 	 	 	 	 	 	 	 	 	 	 	1581543165	0.10	0.19
12/02/2020 21:32:46	120220	12022020	213246	82.11	12.275152	-56.990257	82.04	0.780	-1.150	1.330	82.07	-2.40	1.70	 	 	 	 	 	 	 	 	 	 	 	 	 	 	 	 	 	 	1581543166	0.25	0.46
12/02/2020 21:32:47	120220	12022020	213247	82.05	12.275155	-56.990257	82.04	0.970	-0.650	0.960	82.07	-1.90	1.30	 	 	 	 	 	 	 	 	 	 	 	 	 	 	 	 	 	 	1581543167	0.63	1.17
12/02/2020 21:32:48	120220	12022020	213248	82.19	12.275158	-56.990258	82.19	0.720	-0.000	0.400	82.23	-1.20	0.70	 	 	 	 	 	 	 	 	 	 	 	 	 	 	 	 	 	 	1581543168	0.87	1.61
12/02/2020 21:32:49	120220	12022020	213249	82.35	12.275160	-56.990260	82.31	0.240	0.350	0.070	82.37	-1.00	0.40	 	 	 	 	 	 	 	 	 	 	 	 	 	 	 	 	 	 	1581543169	0.52	0.96
12/02/2020 21:32:50	120220	12022020	213250	82.40	12.275160	-56.990258	82.33	-0.290	0.430	0.310	82.39	-0.90	0.70	 	 	 	 	 	 	 	 	 	 	 	 	 	 	 	 	 	 	1581543170	0.26	0.48
12/02/2020 21:32:51	120220	12022020	213251	82.27	12.275155	-56.990260	82.20	-0.740	0.640	0.860	82.23	-0.60	1.30	 	 	 	 	 	 	 	 	 	 	 	 	 	 	 	 	 	 	1581543171	0.79	1.46
12/02/2020 21:32:52	120220	12022020	213252	82.07	12.275152	-56.990262	82.01	-1.000	1.020	1.340	82.04	-0.30	1.70	 	 	 	 	 	 	 	 	 	 	 	 	 	 	 	 	 	 	1581543172	1.09	2.02
12/02/2020 21:32:53	120220	12022020	213253	82.01	12.275150	-56.990265	82.00	-0.950	0.950	1.380	82.02	-0.40	1.70	 	 	 	 	 	 	 	 	 	 	 	 	 	 	 	 	 	 	1581543173	0.85	1.57
12/02/2020 21:32:54	120220	12022020	213254	82.15	12.275150	-56.990265	82.15	-0.500	-0.020	1.060	82.19	-1.50	1.40	 	 	 	 	 	 	 	 	 	 	 	 	 	 	 	 	 	 	1581543174	0.17	0.31
12/02/2020 21:32:55	120220	12022020	213255	82.33	12.275152	-56.990262	82.31	0.210	-1.500	0.840	82.37	-3.00	1.20	 	 	 	 	 	 	 	 	 	 	 	 	 	 	 	 	 	 	1581543175	0.85	1.57
12/02/2020 21:32:56	120220	12022020	213256	82.44	12.275152	-56.990257	82.40	0.880	-2.540	0.920	82.44	-3.90	1.30	 	 	 	 	 	 	 	 	 	 	 	 	 	 	 	 	 	 	1581543176	1.04	1.93
12/02/2020 21:32:57	120220	12022020	213257	82.28	12.275150	-56.990255	82.16	1.170	-2.410	1.240	82.19	-3.60	1.70	 	 	 	 	 	 	 	 	 	 	 	 	 	 	 	 	 	 	1581543177	0.65	1.20
12/02/2020 21:32:58	120220	12022020	213258	81.77	12.275148	-56.990257	81.63	0.910	-1.090	1.450	81.66	-2.10	1.80	 	 	 	 	 	 	 	 	 	 	 	 	 	 	 	 	 	 	1581543178	0.47	0.87
12/02/2020 21:32:59	120220	12022020	213259	81.33	12.275150	-56.990262	81.25	0.280	0.760	1.280	81.28	-0.30	1.60	 	 	 	 	 	 	 	 	 	 	 	 	 	 	 	 	 	 	1581543179	1.25	2.31
12/02/2020 21:33:00	120220	12022020	213300	81.34	12.275152	-56.990268	81.36	-0.400	2.150	0.740	81.40	0.90	1.00	 	 	 	 	 	 	 	 	 	 	 	 	 	 	 	 	 	 	1581543180	1.53	2.83
12/02/2020 21:33:01	120220	12022020	213301	81.79	12.275155	-56.990273	81.86	-0.880	2.440	0.120	81.91	1.00	0.40	 	 	 	 	 	 	 	 	 	 	 	 	 	 	 	 	 	 	1581543181	1.14	2.11
12/02/2020 21:33:02	120220	12022020	213302	82.38	12.275158	-56.990273	82.41	-1.000	1.460	-0.380	82.47	-0.10	-0.10	1014.70	26.30	26.40	20.40	20.50	30.0	70.0	70.0	392.0	26.3	343.00	9.70	64.00	9.30	2711	13017.0	27.4	27.4	1581543182	0.60	1.11
12/02/2020 21:33:03	120220	12022020	213303	82.72	12.275158	-56.990270	82.66	-0.640	-0.470	-0.590	82.73	-2.10	-0.20	 	 	 	 	 	 	 	 	 	 	 	 	 	 	 	 	 	 	1581543183	0.92	1.70
12/02/2020 21:33:04	120220	12022020	213304	82.57	12.275157	-56.990262	82.43	0.080	-2.450	-0.140	82.50	-4.00	0.30	 	 	 	 	 	 	 	 	 	 	 	 	 	 	 	 	 	 	1581543184	1.66	3.07
12/02/2020 21:33:05	120220	12022020	213305	82.16	12.275150	-56.990257	82.06	0.760	-3.160	0.890	82.08	-4.40	1.40	 	 	 	 	 	 	 	 	 	 	 	 	 	 	 	 	 	 	1581543185	1.75	3.24
12/02/2020 21:33:06	120220	12022020	213306	81.93	12.275143	-56.990258	81.93	0.900	-1.950	1.890	81.92	-3.00	2.30	 	 	 	 	 	 	 	 	 	 	 	 	 	 	 	 	 	 	1581543186	1.53	2.83
12/02/2020 21:33:07	120220	12022020	213307	81.95	12.275140	-56.990265	81.98	0.400	0.200	2.110	81.98	-0.80	2.40	 	 	 	 	 	 	 	 	 	 	 	 	 	 	 	 	 	 	1581543187	1.89	3.50
12/02/2020 21:33:08	120220	12022020	213308	82.07	12.275143	-56.990275	82.10	-0.300	1.700	1.430	82.11	0.50	1.70	 	 	 	 	 	 	 	 	 	 	 	 	 	 	 	 	 	 	1581543188	1.89	3.50
12/02/2020 21:33:09	120220	12022020	213309	82.27	12.275150	-56.990278	82.30	-0.660	1.800	0.410	82.33	0.40	0.60	 	 	 	 	 	 	 	 	 	 	 	 	 	 	 	 	 	 	1581543189	1.61	2.98
12/02/2020 21:33:10	120220	12022020	213310	82.57	12.275155	-56.990277	82.58	-0.490	0.760	-0.420	82.63	-0.80	-0.10	 	 	 	 	 	 	 	 	 	 	 	 	 	 	 	 	 	 	1581543190	1.28	2.37
12/02/2020 21:33:11	120220	12022020	213311	82.86	12.275157	-56.990270	82.85	-0.060	-0.700	-0.780	82.91	-2.20	-0.40	 	 	 	 	 	 	 	 	 	 	 	 	 	 	 	 	 	 	1581543191	1.19	2.20
12/02/2020 21:33:12	120220	12022020	213312	82.99	12.275155	-56.990267	82.93	0.260	-1.570	-0.660	82.99	-2.90	-0.30	 	 	 	 	 	 	 	 	 	 	 	 	 	 	 	 	 	 	1581543192	0.99	1.83
12/02/2020 21:33:13	120220	12022020	213313	82.93	12.275152	-56.990267	82.85	0.290	-1.330	-0.320	82.91	-2.50	0.10	 	 	 	 	 	 	 	 	 	 	 	 	 	 	 	 	 	 	1581543193	0.68	1.26
12/02/2020 21:33:14	120220	12022020	213314	82.85	12.275150	-56.990270	82.78	0.110	-0.430	0.060	82.84	-1.60	0.50	 	 	 	 	 	 	 	 	 	 	 	 	 	 	 	 	 	 	1581543194	0.92	1.70
12/02/2020 21:33:15	120220	12022020	213315	82.81	12.275148	-56.990273	82.75	-0.110	0.350	0.550	82.80	-0.90	1.00	 	 	 	 	 	 	 	 	 	 	 	 	 	 	 	 	 	 	1581543195	0.90	1.67
12/02/2020 21:33:16	120220	12022020	213316	82.75	12.275147	-56.990275	82.69	-0.220	0.520	1.090	82.73	-0.80	1.50	 	 	 	 	 	 	 	 	 	 	 	 	 	 	 	 	 	 	1581543196	0.43	0.80
12/02/2020 21:33:17	120220	12022020	213317	82.68	12.275147	-56.990273	82.65	-0.150	0.050	1.460	82.68	-1.40	1.90	 	 	 	 	 	 	 	 	 	 	 	 	 	 	 	 	 	 	1581543197	0.39	0.72
12/02/2020 21:33:18	120220	12022020	213318	82.73	12.275145	-56.990270	82.74	0.060	-0.590	1.560	82.76	-2.00	1.90	 	 	 	 	 	 	 	 	 	 	 	 	 	 	 	 	 	 	1581543198	0.70	1.30
12/02/2020 21:33:19	120220	12022020	213319	82.90	12.275145	-56.990268	82.92	0.320	-0.810	1.580	82.94	-2.10	1.90	 	 	 	 	 	 	 	 	 	 	 	 	 	 	 	 	 	 	1581543199	0.48	0.89
12/02/2020 21:33:20	120220	12022020	213320	83.10	12.275143	-56.990268	83.10	0.490	-0.490	1.570	83.13	-1.70	1.90	 	 	 	 	 	 	 	 	 	 	 	 	 	 	 	 	 	 	1581543200	0.17	0.31
12/02/2020 21:33:21	120220	12022020	213321	83.24	12.275145	-56.990270	83.21	0.470	-0.020	1.450	83.24	-1.30	1.80	 	 	 	 	 	 	 	 	 	 	 	 	 	 	 	 	 	 	1581543201	0.39	0.72
12/02/2020 21:33:22	120220	12022020	213322	83.18	12.275145	-56.990272	83.11	0.220	0.200	1.240	83.15	-1.10	1.60	 	 	 	 	 	 	 	 	 	 	 	 	 	 	 	 	 	 	1581543202	0.37	0.69
12/02/2020 21:33:23	120220	12022020	213323	83.01	12.275147	-56.990272	82.95	-0.150	0.180	1.050	82.99	-1.20	1.40	 	 	 	 	 	 	 	 	 	 	 	 	 	 	 	 	 	 	1581543203	0.30	0.56
12/02/2020 21:33:24	120220	12022020	213324	82.98	12.275148	-56.990272	82.95	-0.430	0.100	0.850	83.00	-1.30	1.20	 	 	 	 	 	 	 	 	 	 	 	 	 	 	 	 	 	 	1581543204	0.20	0.37
12/02/2020 21:33:25	120220	12022020	213325	83.04	12.275148	-56.990272	82.98	-0.470	-0.090	0.710	83.04	-1.40	1.10	 	 	 	 	 	 	 	 	 	 	 	 	 	 	 	 	 	 	1581543205	0.14	0.26
12/02/2020 21:33:26	120220	12022020	213326	82.91	12.275148	-56.990270	82.82	-0.310	-0.340	0.740	82.86	-1.70	1.10	 	 	 	 	 	 	 	 	 	 	 	 	 	 	 	 	 	 	1581543206	0.19	0.35
12/02/2020 21:33:27	120220	12022020	213327	82.68	12.275148	-56.990270	82.61	-0.110	-0.530	0.780	82.66	-1.90	1.10	 	 	 	 	 	 	 	 	 	 	 	 	 	 	 	 	 	 	1581543207	0.21	0.39
12/02/2020 21:33:28	120220	12022020	213328	82.68	12.275148	-56.990270	82.67	0.070	-0.550	0.660	82.71	-1.90	1.00	 	 	 	 	 	 	 	 	 	 	 	 	 	 	 	 	 	 	1581543208	0.06	0.11
12/02/2020 21:33:29	120220	12022020	213329	82.91	12.275148	-56.990270	82.91	0.290	-0.510	0.470	82.96	-1.80	0.80	 	 	 	 	 	 	 	 	 	 	 	 	 	 	 	 	 	 	1581543209	0.10	0.19
12/02/2020 21:33:30	120220	12022020	213330	83.14	12.275148	-56.990268	83.11	0.510	-0.450	0.420	83.17	-1.80	0.80	 	 	 	 	 	 	 	 	 	 	 	 	 	 	 	 	 	 	1581543210	0.21	0.39
12/02/2020 21:33:31	120220	12022020	213331	83.17	12.275150	-56.990268	83.08	0.570	-0.330	0.590	83.14	-1.60	1.00	 	 	 	 	 	 	 	 	 	 	 	 	 	 	 	 	 	 	1581543211	0.21	0.39
12/02/2020 21:33:32	120220	12022020	213332	82.94	12.275148	-56.990267	82.83	0.290	-0.060	0.960	82.88	-1.40	1.40	 	 	 	 	 	 	 	 	 	 	 	 	 	 	 	 	 	 	1581543212	0.17	0.31
12/02/2020 21:33:33	120220	12022020	213333	82.68	12.275147	-56.990267	82.63	-0.220	0.280	1.390	82.65	-1.00	1.80	 	 	 	 	 	 	 	 	 	 	 	 	 	 	 	 	 	 	1581543213	0.40	0.74
12/02/2020 21:33:34	120220	12022020	213334	82.63	12.275145	-56.990268	82.65	-0.620	0.410	1.700	82.65	-0.90	2.10	 	 	 	 	 	 	 	 	 	 	 	 	 	 	 	 	 	 	1581543214	0.51	0.94
12/02/2020 21:33:35	120220	12022020	213335	82.80	12.275143	-56.990267	82.84	-0.580	0.130	1.780	82.84	-1.30	2.10	 	 	 	 	 	 	 	 	 	 	 	 	 	 	 	 	 	 	1581543215	0.49	0.91
12/02/2020 21:33:36	120220	12022020	213336	83.00	12.275142	-56.990265	83.02	-0.160	-0.370	1.570	83.02	-1.80	1.90	 	 	 	 	 	 	 	 	 	 	 	 	 	 	 	 	 	 	1581543216	0.52	0.96
12/02/2020 21:33:37	120220	12022020	213337	83.04	12.275143	-56.990262	83.01	0.320	-0.700	1.230	83.02	-2.00	1.60	 	 	 	 	 	 	 	 	 	 	 	 	 	 	 	 	 	 	1581543217	0.57	1.06
12/02/2020 21:33:38	120220	12022020	213338	82.90	12.275145	-56.990262	82.83	0.500	-0.530	1.030	82.86	-1.80	1.40	 	 	 	 	 	 	 	 	 	 	 	 	 	 	 	 	 	 	1581543218	0.44	0.81
12/02/2020 21:33:39	120220	12022020	213339	82.72	12.275147	-56.990263	82.66	0.240	-0.040	0.990	82.68	-1.30	1.40	 	 	 	 	 	 	 	 	 	 	 	 	 	 	 	 	 	 	1581543219	0.45	0.83
12/02/2020 21:33:40	120220	12022020	213340	82.59	12.275147	-56.990265	82.57	-0.200	0.190	0.880	82.59	-1.10	1.20	 	 	 	 	 	 	 	 	 	 	 	 	 	 	 	 	 	 	1581543220	0.35	0.65
12/02/2020 21:33:41	120220	12022020	213341	82.70	12.275148	-56.990265	82.72	-0.400	-0.160	0.500	82.74	-1.60	0.80	 	 	 	 	 	 	 	 	 	 	 	 	 	 	 	 	 	 	1581543221	0.37	0.69
12/02/2020 21:33:42	120220	12022020	213342	82.96	12.275150	-56.990262	82.97	-0.220	-0.770	0.130	83.01	-2.20	0.50	 	 	 	 	 	 	 	 	 	 	 	 	 	 	 	 	 	 	1581543222	0.91	1.69
12/02/2020 21:33:43	120220	12022020	213343	83.10	12.275152	-56.990258	83.05	0.080	-0.960	0.180	83.10	-2.20	0.60	 	 	 	 	 	 	 	 	 	 	 	 	 	 	 	 	 	 	1581543223	0.67	1.24
12/02/2020 21:33:44	120220	12022020	213344	83.03	12.275148	-56.990257	82.96	0.190	-0.450	0.680	83.00	-1.70	1.10	 	 	 	 	 	 	 	 	 	 	 	 	 	 	 	 	 	 	1581543224	0.77	1.43
12/02/2020 21:33:45	120220	12022020	213345	82.80	12.275142	-56.990258	82.72	0.080	0.290	1.280	82.74	-1.00	1.70	 	 	 	 	 	 	 	 	 	 	 	 	 	 	 	 	 	 	1581543225	1.22	2.26
12/02/2020 21:33:46	120220	12022020	213346	82.54	12.275140	-56.990260	82.48	0.010	0.560	1.480	82.50	-0.80	1.80	 	 	 	 	 	 	 	 	 	 	 	 	 	 	 	 	 	 	1581543226	0.61	1.13
12/02/2020 21:33:47	120220	12022020	213347	82.39	12.275142	-56.990258	82.34	0.100	0.180	1.250	82.37	-1.20	1.60	 	 	 	 	 	 	 	 	 	 	 	 	 	 	 	 	 	 	1581543227	0.55	1.02
12/02/2020 21:33:48	120220	12022020	213348	82.36	12.275145	-56.990255	82.33	0.240	-0.290	0.870	82.37	-1.60	1.20	 	 	 	 	 	 	 	 	 	 	 	 	 	 	 	 	 	 	1581543228	1.11	2.06
12/02/2020 21:33:49	120220	12022020	213349	82.46	12.275152	-56.990255	82.44	0.220	-0.370	0.450	82.50	-1.70	0.80	 	 	 	 	 	 	 	 	 	 	 	 	 	 	 	 	 	 	1581543229	1.12	2.07
12/02/2020 21:33:50	120220	12022020	213350	82.68	12.275155	-56.990255	82.68	-0.000	-0.190	0.070	82.74	-1.50	0.40	 	 	 	 	 	 	 	 	 	 	 	 	 	 	 	 	 	 	1581543230	0.91	1.69
12/02/2020 21:33:51	120220	12022020	213351	82.98	12.275157	-56.990257	82.94	-0.320	-0.110	-0.070	83.02	-1.40	0.30	 	 	 	 	 	 	 	 	 	 	 	 	 	 	 	 	 	 	1581543231	0.28	0.52
12/02/2020 21:33:52	120220	12022020	213352	83.08	12.275152	-56.990255	83.00	-0.580	-0.260	0.450	83.07	-1.60	0.90	 	 	 	 	 	 	 	 	 	 	 	 	 	 	 	 	 	 	1581543232	0.87	1.61
12/02/2020 21:33:53	120220	12022020	213353	82.91	12.275143	-56.990252	82.82	-0.620	-0.630	1.470	82.86	-2.00	2.00	 	 	 	 	 	 	 	 	 	 	 	 	 	 	 	 	 	 	1581543233	1.92	3.56
12/02/2020 21:33:54	120220	12022020	213354	82.56	12.275135	-56.990248	82.47	-0.320	-0.890	2.440	82.47	-2.20	2.90	 	 	 	 	 	 	 	 	 	 	 	 	 	 	 	 	 	 	1581543234	2.15	3.98
12/02/2020 21:33:55	120220	12022020	213355	82.14	12.275130	-56.990247	82.08	0.180	-0.670	2.850	82.07	-1.90	3.20	 	 	 	 	 	 	 	 	 	 	 	 	 	 	 	 	 	 	1581543235	1.20	2.22
12/02/2020 21:33:56	120220	12022020	213356	81.97	12.275132	-56.990247	81.99	0.580	-0.070	2.370	81.99	-1.30	2.60	 	 	 	 	 	 	 	 	 	 	 	 	 	 	 	 	 	 	1581543236	0.47	0.87
12/02/2020 21:33:57	120220	12022020	213357	82.14	12.275138	-56.990250	82.16	0.580	0.430	1.290	82.18	-0.90	1.50	 	 	 	 	 	 	 	 	 	 	 	 	 	 	 	 	 	 	1581543237	1.61	2.98
12/02/2020 21:33:58	120220	12022020	213358	82.30	12.275147	-56.990252	82.27	0.220	0.560	0.270	82.31	-0.80	0.50	 	 	 	 	 	 	 	 	 	 	 	 	 	 	 	 	 	 	1581543238	1.68	3.11
12/02/2020 21:33:59	120220	12022020	213359	82.30	12.275152	-56.990252	82.23	-0.210	0.320	-0.510	82.30	-1.10	-0.20	 	 	 	 	 	 	 	 	 	 	 	 	 	 	 	 	 	 	1581543239	1.21	2.24
12/02/2020 21:34:00	120220	12022020	213400	82.26	12.275155	-56.990250	82.16	-0.380	-0.220	-0.980	82.23	-1.60	-0.60	 	 	 	 	 	 	 	 	 	 	 	 	 	 	 	 	 	 	1581543240	0.75	1.39
12/02/2020 21:34:01	120220	12022020	213401	82.05	12.275155	-56.990247	81.91	-0.220	-0.760	-0.800	81.98	-2.20	-0.40	 	 	 	 	 	 	 	 	 	 	 	 	 	 	 	 	 	 	1581543241	0.57	1.06
12/02/2020 21:34:02	120220	12022020	213402	81.73	12.275153	-56.990245	81.67	-0.020	-0.970	-0.200	81.69	-2.30	0.30	1014.70	26.30	26.40	20.50	20.50	31.0	70.0	70.0	396.0	26.2	341.00	9.00	63.00	8.60	2557	12366.0	27.4	27.4	1581543242	0.69	1.28
12/02/2020 21:34:03	120220	12022020	213403	81.75	12.275150	-56.990245	81.80	-0.020	-0.650	0.280	81.81	-1.90	0.70	 	 	 	 	 	 	 	 	 	 	 	 	 	 	 	 	 	 	1581543243	0.62	1.15
12/02/2020 21:34:04	120220	12022020	213404	82.15	12.275147	-56.990245	82.24	-0.210	-0.070	0.720	82.23	-1.30	1.20	 	 	 	 	 	 	 	 	 	 	 	 	 	 	 	 	 	 	1581543244	0.92	1.70
12/02/2020 21:34:05	120220	12022020	213405	82.46	12.275140	-56.990247	82.49	-0.370	0.310	1.400	82.47	-1.00	1.90	 	 	 	 	 	 	 	 	 	 	 	 	 	 	 	 	 	 	1581543245	1.32	2.44
12/02/2020 21:34:06	120220	12022020	213406	82.36	12.275133	-56.990245	82.31	-0.230	0.150	2.140	82.29	-1.20	2.60	 	 	 	 	 	 	 	 	 	 	 	 	 	 	 	 	 	 	1581543246	1.32	2.44
12/02/2020 21:34:07	120220	12022020	213407	81.89	12.275130	-56.990242	81.81	0.230	-0.410	2.630	81.78	-1.80	3.00	 	 	 	 	 	 	 	 	 	 	 	 	 	 	 	 	 	 	1581543247	1.03	1.91
12/02/2020 21:34:08	120220	12022020	213408	81.39	12.275132	-56.990238	81.34	0.730	-0.860	2.610	81.32	-2.20	2.90	 	 	 	 	 	 	 	 	 	 	 	 	 	 	 	 	 	 	1581543248	0.88	1.63
12/02/2020 21:34:09	120220	12022020	213409	81.26	12.275137	-56.990237	81.33	0.860	-0.760	2.080	81.30	-2.00	2.30	 	 	 	 	 	 	 	 	 	 	 	 	 	 	 	 	 	 	1581543249	1.02	1.89
12/02/2020 21:34:10	120220	12022020	213410	81.68	12.275142	-56.990238	81.81	0.400	-0.020	1.260	81.81	-1.20	1.50	 	 	 	 	 	 	 	 	 	 	 	 	 	 	 	 	 	 	1581543250	1.10	2.04
12/02/2020 21:34:11	120220	12022020	213411	82.33	12.275145	-56.990245	82.43	-0.410	0.970	0.330	82.45	-0.30	0.60	 	 	 	 	 	 	 	 	 	 	 	 	 	 	 	 	 	 	1581543251	1.38	2.56
12/02/2020 21:34:12	120220	12022020	213412	82.73	12.275147	-56.990248	82.72	-0.980	1.310	-0.390	82.76	-0.10	-0.10	 	 	 	 	 	 	 	 	 	 	 	 	 	 	 	 	 	 	1581543252	1.13	2.09
12/02/2020 21:34:13	120220	12022020	213413	82.67	12.275148	-56.990248	82.54	-0.880	0.420	-0.600	82.60	-1.10	-0.20	 	 	 	 	 	 	 	 	 	 	 	 	 	 	 	 	 	 	1581543253	0.28	0.52
12/02/2020 21:34:14	120220	12022020	213414	82.27	12.275147	-56.990243	82.12	-0.270	-1.020	-0.210	82.17	-2.50	0.20	 	 	 	 	 	 	 	 	 	 	 	 	 	 	 	 	 	 	1581543254	1.16	2.15
12/02/2020 21:34:15	120220	12022020	213415	81.83	12.275145	-56.990238	81.74	0.350	-1.880	0.480	81.77	-3.20	0.90	 	 	 	 	 	 	 	 	 	 	 	 	 	 	 	 	 	 	1581543255	1.22	2.26
12/02/2020 21:34:16	120220	12022020	213416	81.69	12.275142	-56.990237	81.71	0.620	-1.700	1.000	81.72	-2.90	1.40	 	 	 	 	 	 	 	 	 	 	 	 	 	 	 	 	 	 	1581543256	0.61	1.13
12/02/2020 21:34:17	120220	12022020	213417	81.95	12.275142	-56.990238	82.03	0.560	-0.930	1.180	82.02	-2.10	1.50	 	 	 	 	 	 	 	 	 	 	 	 	 	 	 	 	 	 	1581543257	0.39	0.72
12/02/2020 21:34:18	120220	12022020	213418	82.38	12.275140	-56.990240	82.46	0.320	-0.010	1.250	82.46	-1.20	1.60	 	 	 	 	 	 	 	 	 	 	 	 	 	 	 	 	 	 	1581543258	0.46	0.85
12/02/2020 21:34:19	120220	12022020	213419	82.70	12.275138	-56.990242	82.74	0.000	0.870	1.430	82.73	-0.40	1.80	 	 	 	 	 	 	 	 	 	 	 	 	 	 	 	 	 	 	1581543259	0.65	1.20
12/02/2020 21:34:20	120220	12022020	213420	82.69	12.275135	-56.990245	82.67	-0.310	1.430	1.700	82.65	0.10	2.10	 	 	 	 	 	 	 	 	 	 	 	 	 	 	 	 	 	 	1581543260	0.75	1.39
12/02/2020 21:34:21	120220	12022020	213421	82.45	12.275135	-56.990247	82.41	-0.520	1.340	1.780	82.40	-0.10	2.10	 	 	 	 	 	 	 	 	 	 	 	 	 	 	 	 	 	 	1581543261	0.38	0.70
12/02/2020 21:34:22	120220	12022020	213422	82.26	12.275137	-56.990245	82.25	-0.550	0.460	1.560	82.24	-1.00	1.90	 	 	 	 	 	 	 	 	 	 	 	 	 	 	 	 	 	 	1581543262	0.41	0.76
12/02/2020 21:34:23	120220	12022020	213423	82.30	12.275140	-56.990243	82.35	-0.390	-0.760	1.150	82.34	-2.30	1.50	 	 	 	 	 	 	 	 	 	 	 	 	 	 	 	 	 	 	1581543263	0.94	1.74
12/02/2020 21:34:24	120220	12022020	213424	82.55	12.275143	-56.990242	82.60	-0.070	-1.760	0.760	82.60	-3.20	1.10	 	 	 	 	 	 	 	 	 	 	 	 	 	 	 	 	 	 	1581543264	0.92	1.70
12/02/2020 21:34:25	120220	12022020	213425	82.72	12.275145	-56.990238	82.71	0.360	-2.190	0.630	82.71	-3.50	1.00	 	 	 	 	 	 	 	 	 	 	 	 	 	 	 	 	 	 	1581543265	0.47	0.87
12/02/2020 21:34:26	120220	12022020	213426	82.54	12.275143	-56.990238	82.46	0.680	-1.730	0.800	82.47	-2.90	1.20	 	 	 	 	 	 	 	 	 	 	 	 	 	 	 	 	 	 	1581543266	0.45	0.83
12/02/2020 21:34:27	120220	12022020	213427	82.15	12.275142	-56.990242	82.07	0.690	-0.390	0.990	82.08	-1.50	1.40	 	 	 	 	 	 	 	 	 	 	 	 	 	 	 	 	 	 	1581543267	0.73	1.35
12/02/2020 21:34:28	120220	12022020	213428	81.93	12.275142	-56.990247	81.93	0.330	1.100	0.910	81.94	-0.10	1.20	 	 	 	 	 	 	 	 	 	 	 	 	 	 	 	 	 	 	1581543268	1.18	2.19
12/02/2020 21:34:29	120220	12022020	213429	82.15	12.275143	-56.990252	82.23	-0.230	1.810	0.500	82.24	0.50	0.80	 	 	 	 	 	 	 	 	 	 	 	 	 	 	 	 	 	 	1581543269	1.09	2.02
12/02/2020 21:34:30	120220	12022020	213430	82.63	12.275147	-56.990252	82.68	-0.690	1.360	0.030	82.71	-0.10	0.40	 	 	 	 	 	 	 	 	 	 	 	 	 	 	 	 	 	 	1581543270	0.61	1.13
12/02/2020 21:34:31	120220	12022020	213431	82.84	12.275148	-56.990248	82.81	-0.760	0.280	-0.040	82.83	-1.20	0.40	 	 	 	 	 	 	 	 	 	 	 	 	 	 	 	 	 	 	1581543271	0.55	1.02
12/02/2020 21:34:32	120220	12022020	213432	82.67	12.275147	-56.990247	82.61	-0.400	-0.810	0.380	82.62	-2.30	0.80	 	 	 	 	 	 	 	 	 	 	 	 	 	 	 	 	 	 	1581543272	0.74	1.37
12/02/2020 21:34:33	120220	12022020	213433	82.38	12.275143	-56.990243	82.33	0.170	-1.630	1.000	82.33	-3.00	1.40	 	 	 	 	 	 	 	 	 	 	 	 	 	 	 	 	 	 	1581543273	0.82	1.52
12/02/2020 21:34:34	120220	12022020	213434	82.22	12.275142	-56.990242	82.22	0.620	-1.930	1.410	82.22	-3.20	1.80	 	 	 	 	 	 	 	 	 	 	 	 	 	 	 	 	 	 	1581543274	0.57	1.06
12/02/2020 21:34:35	120220	12022020	213435	82.34	12.275142	-56.990242	82.39	0.710	-1.420	1.520	82.39	-2.60	1.90	 	 	 	 	 	 	 	 	 	 	 	 	 	 	 	 	 	 	1581543275	0.18	0.33
12/02/2020 21:34:36	120220	12022020	213436	82.58	12.275140	-56.990245	82.64	0.420	-0.130	1.500	82.64	-1.30	1.80	 	 	 	 	 	 	 	 	 	 	 	 	 	 	 	 	 	 	1581543276	0.78	1.44
12/02/2020 21:34:37	120220	12022020	213437	82.79	12.275138	-56.990250	82.83	-0.070	1.210	1.480	82.82	0.00	1.80	 	 	 	 	 	 	 	 	 	 	 	 	 	 	 	 	 	 	1581543277	1.18	2.19
12/02/2020 21:34:38	120220	12022020	213438	82.79	12.275137	-56.990255	82.79	-0.510	1.780	1.460	82.77	0.40	1.80	 	 	 	 	 	 	 	 	 	 	 	 	 	 	 	 	 	 	1581543278	0.84	1.56
12/02/2020 21:34:39	120220	12022020	213439	82.63	12.275138	-56.990255	82.61	-0.670	1.190	1.210	82.59	-0.30	1.50	 	 	 	 	 	 	 	 	 	 	 	 	 	 	 	 	 	 	1581543279	0.21	0.39
12/02/2020 21:34:40	120220	12022020	213440	82.49	12.275142	-56.990252	82.47	-0.430	-0.240	0.750	82.47	-1.80	1.00	 	 	 	 	 	 	 	 	 	 	 	 	 	 	 	 	 	 	1581543280	1.00	1.85
12/02/2020 21:34:41	120220	12022020	213441	82.42	12.275145	-56.990247	82.40	0.070	-1.590	0.310	82.41	-3.00	0.60	 	 	 	 	 	 	 	 	 	 	 	 	 	 	 	 	 	 	1581543281	1.33	2.46
12/02/2020 21:34:42	120220	12022020	213442	82.41	12.275148	-56.990245	82.39	0.480	-1.950	0.060	82.42	-3.20	0.40	 	 	 	 	 	 	 	 	 	 	 	 	 	 	 	 	 	 	1581543282	0.79	1.46
12/02/2020 21:34:43	120220	12022020	213443	82.54	12.275150	-56.990247	82.57	0.560	-1.280	0.040	82.59	-2.50	0.40	 	 	 	 	 	 	 	 	 	 	 	 	 	 	 	 	 	 	1581543283	0.49	0.91
12/02/2020 21:34:44	120220	12022020	213444	82.89	12.275147	-56.990250	82.95	0.400	-0.350	0.190	82.96	-1.60	0.60	 	 	 	 	 	 	 	 	 	 	 	 	 	 	 	 	 	 	1581543284	0.80	1.48
12/02/2020 21:34:45	120220	12022020	213445	83.17	12.275143	-56.990252	83.16	0.170	0.250	0.550	83.18	-1.00	1.00	 	 	 	 	 	 	 	 	 	 	 	 	 	 	 	 	 	 	1581543285	0.89	1.65
12/02/2020 21:34:46	120220	12022020	213446	83.02	12.275140	-56.990252	82.92	-0.090	0.660	1.090	82.93	-0.60	1.50	 	 	 	 	 	 	 	 	 	 	 	 	 	 	 	 	 	 	1581543286	0.84	1.56
12/02/2020 21:34:47	120220	12022020	213447	82.51	12.275137	-56.990253	82.41	-0.350	0.980	1.690	82.40	-0.30	2.10	 	 	 	 	 	 	 	 	 	 	 	 	 	 	 	 	 	 	1581543287	0.66	1.22
12/02/2020 21:34:48	120220	12022020	213448	82.08	12.275135	-56.990255	82.05	-0.470	0.880	1.920	82.04	-0.50	2.30	 	 	 	 	 	 	 	 	 	 	 	 	 	 	 	 	 	 	1581543288	0.38	0.70
12/02/2020 21:34:49	120220	12022020	213449	82.02	12.275137	-56.990255	82.05	-0.250	0.160	1.620	82.04	-1.30	1.90	 	 	 	 	 	 	 	 	 	 	 	 	 	 	 	 	 	 	1581543289	0.38	0.70
12/02/2020 21:34:50	120220	12022020	213450	82.21	12.275142	-56.990252	82.26	0.250	-0.950	1.050	82.27	-2.40	1.30	 	 	 	 	 	 	 	 	 	 	 	 	 	 	 	 	 	 	1581543290	1.01	1.87
12/02/2020 21:34:51	120220	12022020	213451	82.42	12.275145	-56.990248	82.40	0.610	-1.670	0.590	82.44	-3.00	0.90	 	 	 	 	 	 	 	 	 	 	 	 	 	 	 	 	 	 	1581543291	1.13	2.09
12/02/2020 21:34:52	120220	12022020	213452	82.39	12.275148	-56.990250	82.32	0.450	-1.310	0.510	82.36	-2.50	0.90	 	 	 	 	 	 	 	 	 	 	 	 	 	 	 	 	 	 	1581543292	0.44	0.81
12/02/2020 21:34:53	120220	12022020	213453	82.17	12.275145	-56.990255	82.10	-0.090	-0.230	0.770	82.12	-1.40	1.20	 	 	 	 	 	 	 	 	 	 	 	 	 	 	 	 	 	 	1581543293	1.08	2.00
12/02/2020 21:34:54	120220	12022020	213454	81.90	12.275142	-56.990258	81.83	-0.450	0.580	1.040	81.84	-0.70	1.40	 	 	 	 	 	 	 	 	 	 	 	 	 	 	 	 	 	 	1581543294	1.22	2.26
12/02/2020 21:34:55	120220	12022020	213455	81.67	12.275140	-56.990260	81.63	-0.270	0.500	1.140	81.64	-0.90	1.50	 	 	 	 	 	 	 	 	 	 	 	 	 	 	 	 	 	 	1581543295	0.40	0.74
12/02/2020 21:34:56	120220	12022020	213456	81.58	12.275142	-56.990257	81.56	0.200	-0.180	1.080	81.57	-1.60	1.40	 	 	 	 	 	 	 	 	 	 	 	 	 	 	 	 	 	 	1581543296	0.62	1.15
12/02/2020 21:34:57	120220	12022020	213457	81.60	12.275143	-56.990253	81.60	0.480	-0.650	0.890	81.62	-2.00	1.20	 	 	 	 	 	 	 	 	 	 	 	 	 	 	 	 	 	 	1581543297	0.75	1.39
12/02/2020 21:34:58	120220	12022020	213458	81.69	12.275147	-56.990255	81.68	0.340	-0.500	0.660	81.70	-1.80	1.00	 	 	 	 	 	 	 	 	 	 	 	 	 	 	 	 	 	 	1581543298	0.51	0.94
12/02/2020 21:34:59	120220	12022020	213459	81.70	12.275147	-56.990257	81.68	-0.030	0.030	0.680	81.69	-1.20	1.10	 	 	 	 	 	 	 	 	 	 	 	 	 	 	 	 	 	 	1581543299	0.60	1.11
12/02/2020 21:35:00	120220	12022020	213500	81.62	12.275143	-56.990260	81.60	-0.340	0.520	0.940	81.60	-0.80	1.40	 	 	 	 	 	 	 	 	 	 	 	 	 	 	 	 	 	 	1581543300	0.82	1.52
12/02/2020 21:35:01	120220	12022020	213501	81.51	12.275142	-56.990262	81.49	-0.400	0.620	1.280	81.48	-0.70	1.70	 	 	 	 	 	 	 	 	 	 	 	 	 	 	 	 	 	 	1581543301	0.71	1.31
12/02/2020 21:35:02	120220	12022020	213502	81.39	12.275140	-56.990263	81.39	-0.200	0.160	1.440	81.38	-1.30	1.80	1014.70	26.30	26.40	20.50	20.60	33.0	70.0	70.0	403.0	26.2	343.00	9.90	65.00	9.50	2427	12665.0	27.4	27.4	1581543302	0.15	0.28
12/02/2020 21:35:03	120220	12022020	213503	81.39	12.275143	-56.990260	81.40	0.070	-0.730	1.290	81.40	-2.20	1.60	 	 	 	 	 	 	 	 	 	 	 	 	 	 	 	 	 	 	1581543303	0.60	1.11
12/02/2020 21:35:04	120220	12022020	213504	81.41	12.275145	-56.990257	81.42	0.230	-1.480	1.170	81.41	-2.90	1.50	 	 	 	 	 	 	 	 	 	 	 	 	 	 	 	 	 	 	1581543304	0.78	1.44
12/02/2020 21:35:05	120220	12022020	213505	81.39	12.275145	-56.990257	81.39	0.210	-1.430	1.180	81.38	-2.70	1.60	 	 	 	 	 	 	 	 	 	 	 	 	 	 	 	 	 	 	1581543305	0.24	0.44
12/02/2020 21:35:06	120220	12022020	213506	81.40	12.275143	-56.990258	81.41	0.110	-0.560	1.210	81.40	-1.70	1.60	 	 	 	 	 	 	 	 	 	 	 	 	 	 	 	 	 	 	1581543306	0.56	1.04
12/02/2020 21:35:07	120220	12022020	213507	81.43	12.275143	-56.990263	81.42	0.040	0.400	1.180	81.43	-0.80	1.50	 	 	 	 	 	 	 	 	 	 	 	 	 	 	 	 	 	 	1581543307	0.82	1.52
12/02/2020 21:35:08	120220	12022020	213508	81.44	12.275145	-56.990265	81.43	-0.030	0.800	0.960	81.45	-0.50	1.30	 	 	 	 	 	 	 	 	 	 	 	 	 	 	 	 	 	 	1581543308	0.51	0.94
12/02/2020 21:35:09	120220	12022020	213509	81.54	12.275147	-56.990265	81.56	-0.130	0.580	0.500	81.57	-0.80	0.80	 	 	 	 	 	 	 	 	 	 	 	 	 	 	 	 	 	 	1581543309	0.49	0.91
12/02/2020 21:35:10	120220	12022020	213510	81.72	12.275148	-56.990263	81.73	-0.240	0.150	0.150	81.75	-1.20	0.50	 	 	 	 	 	 	 	 	 	 	 	 	 	 	 	 	 	 	1581543310	0.52	0.96
12/02/2020 21:35:11	120220	12022020	213511	81.86	12.275150	-56.990263	81.85	-0.320	-0.070	0.110	81.88	-1.40	0.50	 	 	 	 	 	 	 	 	 	 	 	 	 	 	 	 	 	 	1581543311	0.13	0.24
12/02/2020 21:35:12	120220	12022020	213512	81.91	12.275148	-56.990265	81.89	-0.340	-0.100	0.350	81.91	-1.40	0.80	 	 	 	 	 	 	 	 	 	 	 	 	 	 	 	 	 	 	1581543312	0.35	0.65
12/02/2020 21:35:13	120220	12022020	213513	81.83	12.275147	-56.990265	81.80	-0.250	-0.280	0.680	81.80	-1.70	1.10	 	 	 	 	 	 	 	 	 	 	 	 	 	 	 	 	 	 	1581543313	0.41	0.76
12/02/2020 21:35:14	120220	12022020	213514	81.66	12.275147	-56.990263	81.63	0.090	-0.930	0.940	81.61	-2.40	1.40	 	 	 	 	 	 	 	 	 	 	 	 	 	 	 	 	 	 	1581543314	0.39	0.72
12/02/2020 21:35:15	120220	12022020	213515	81.46	12.275147	-56.990260	81.45	0.600	-1.680	1.180	81.43	-3.10	1.60	 	 	 	 	 	 	 	 	 	 	 	 	 	 	 	 	 	 	1581543315	0.99	1.83
12/02/2020 21:35:16	120220	12022020	213516	81.31	12.275147	-56.990257	81.33	0.890	-1.610	1.390	81.29	-2.80	1.80	 	 	 	 	 	 	 	 	 	 	 	 	 	 	 	 	 	 	1581543316	0.72	1.33
12/02/2020 21:35:17	120220	12022020	213517	81.32	12.275147	-56.990258	81.37	0.630	-0.380	1.420	81.35	-1.50	1.80	 	 	 	 	 	 	 	 	 	 	 	 	 	 	 	 	 	 	1581543317	0.46	0.85
12/02/2020 21:35:18	120220	12022020	213518	81.59	12.275148	-56.990265	81.69	-0.040	1.220	1.100	81.67	0.10	1.40	 	 	 	 	 	 	 	 	 	 	 	 	 	 	 	 	 	 	1581543318	1.35	2.50
12/02/2020 21:35:19	120220	12022020	213519	81.99	12.275150	-56.990270	82.06	-0.700	2.050	0.580	82.05	0.70	0.90	 	 	 	 	 	 	 	 	 	 	 	 	 	 	 	 	 	 	1581543319	1.27	2.35
12/02/2020 21:35:20	120220	12022020	213520	82.24	12.275150	-56.990272	82.26	-0.970	1.550	0.210	82.27	0.00	0.60	 	 	 	 	 	 	 	 	 	 	 	 	 	 	 	 	 	 	1581543320	0.36	0.67
12/02/2020 21:35:21	120220	12022020	213521	82.29	12.275150	-56.990268	82.27	-0.820	0.170	0.200	82.28	-1.40	0.60	 	 	 	 	 	 	 	 	 	 	 	 	 	 	 	 	 	 	1581543321	0.72	1.33
12/02/2020 21:35:22	120220	12022020	213522	82.10	12.275148	-56.990263	82.03	-0.440	-1.240	0.620	82.03	-2.70	1.10	 	 	 	 	 	 	 	 	 	 	 	 	 	 	 	 	 	 	1581543322	1.06	1.96
12/02/2020 21:35:23	120220	12022020	213523	81.69	12.275147	-56.990260	81.61	0.030	-2.120	1.170	81.60	-3.50	1.60	 	 	 	 	 	 	 	 	 	 	 	 	 	 	 	 	 	 	1581543323	1.01	1.87
12/02/2020 21:35:24	120220	12022020	213524	81.27	12.275143	-56.990258	81.22	0.540	-2.180	1.470	81.21	-3.40	1.80	 	 	 	 	 	 	 	 	 	 	 	 	 	 	 	 	 	 	1581543324	0.52	0.96
12/02/2020 21:35:25	120220	12022020	213525	81.06	12.275145	-56.990258	81.08	0.920	-1.440	1.350	81.06	-2.60	1.70	 	 	 	 	 	 	 	 	 	 	 	 	 	 	 	 	 	 	1581543325	0.32	0.59
12/02/2020 21:35:26	120220	12022020	213526	81.21	12.275148	-56.990262	81.30	0.830	-0.060	0.850	81.28	-1.20	1.10	 	 	 	 	 	 	 	 	 	 	 	 	 	 	 	 	 	 	1581543326	1.09	2.02
12/02/2020 21:35:27	120220	12022020	213527	81.61	12.275153	-56.990268	81.67	0.170	1.340	0.230	81.68	0.20	0.50	 	 	 	 	 	 	 	 	 	 	 	 	 	 	 	 	 	 	1581543327	1.47	2.72
12/02/2020 21:35:28	120220	12022020	213528	81.92	12.275153	-56.990272	81.92	-0.590	1.900	-0.090	81.95	0.50	0.30	 	 	 	 	 	 	 	 	 	 	 	 	 	 	 	 	 	 	1581543328	0.89	1.65
12/02/2020 21:35:29	120220	12022020	213529	81.95	12.275153	-56.990270	81.88	-0.840	1.160	0.000	81.91	-0.40	0.40	 	 	 	 	 	 	 	 	 	 	 	 	 	 	 	 	 	 	1581543329	0.40	0.74
12/02/2020 21:35:30	120220	12022020	213530	81.70	12.275152	-56.990265	81.61	-0.420	-0.430	0.330	81.63	-2.00	0.70	 	 	 	 	 	 	 	 	 	 	 	 	 	 	 	 	 	 	1581543330	1.33	2.46
12/02/2020 21:35:31	120220	12022020	213531	81.43	12.275150	-56.990258	81.38	0.240	-1.730	0.670	81.40	-3.20	1.10	 	 	 	 	 	 	 	 	 	 	 	 	 	 	 	 	 	 	1581543331	1.41	2.61
12/02/2020 21:35:32	120220	12022020	213532	81.35	12.275150	-56.990257	81.34	0.520	-1.790	0.970	81.35	-3.00	1.40	 	 	 	 	 	 	 	 	 	 	 	 	 	 	 	 	 	 	1581543332	0.47	0.87
12/02/2020 21:35:33	120220	12022020	213533	81.37	12.275148	-56.990260	81.36	0.160	-0.550	1.220	81.36	-1.70	1.60	 	 	 	 	 	 	 	 	 	 	 	 	 	 	 	 	 	 	1581543333	0.97	1.80
12/02/2020 21:35:34	120220	12022020	213534	81.32	12.275147	-56.990268	81.32	-0.480	0.920	1.310	81.32	-0.30	1.70	 	 	 	 	 	 	 	 	 	 	 	 	 	 	 	 	 	 	1581543334	1.68	3.11
12/02/2020 21:35:35	120220	12022020	213535	81.38	12.275147	-56.990272	81.41	-0.810	1.280	1.010	81.41	-0.10	1.30	 	 	 	 	 	 	 	 	 	 	 	 	 	 	 	 	 	 	1581543335	0.95	1.76
12/02/2020 21:35:36	120220	12022020	213536	81.56	12.275148	-56.990270	81.57	-0.500	0.220	0.540	81.59	-1.30	0.90	 	 	 	 	 	 	 	 	 	 	 	 	 	 	 	 	 	 	1581543336	0.70	1.30
12/02/2020 21:35:37	120220	12022020	213537	81.66	12.275150	-56.990263	81.66	0.200	-1.170	0.420	81.67	-2.60	0.80	 	 	 	 	 	 	 	 	 	 	 	 	 	 	 	 	 	 	1581543337	1.40	2.59
12/02/2020 21:35:38	120220	12022020	213538	81.65	12.275150	-56.990260	81.62	0.720	-1.640	0.590	81.62	-2.90	1.00	 	 	 	 	 	 	 	 	 	 	 	 	 	 	 	 	 	 	1581543338	0.90	1.67
12/02/2020 21:35:39	120220	12022020	213539	81.46	12.275148	-56.990260	81.39	0.780	-0.960	0.800	81.40	-2.10	1.20	 	 	 	 	 	 	 	 	 	 	 	 	 	 	 	 	 	 	1581543339	0.45	0.83
12/02/2020 21:35:40	120220	12022020	213540	81.11	12.275148	-56.990265	81.02	0.470	0.050	0.890	81.04	-1.20	1.30	 	 	 	 	 	 	 	 	 	 	 	 	 	 	 	 	 	 	1581543340	0.89	1.65
12/02/2020 21:35:41	120220	12022020	213541	80.82	12.275150	-56.990268	80.75	0.130	0.600	0.740	80.78	-0.70	1.10	 	 	 	 	 	 	 	 	 	 	 	 	 	 	 	 	 	 	1581543341	0.88	1.63
12/02/2020 21:35:42	120220	12022020	213542	80.73	12.275155	-56.990268	80.70	-0.040	0.500	0.510	80.74	-0.90	0.90	 	 	 	 	 	 	 	 	 	 	 	 	 	 	 	 	 	 	1581543342	0.85	1.57
12/02/2020 21:35:43	120220	12022020	213543	80.89	12.275157	-56.990265	80.92	-0.110	0.080	0.430	80.95	-1.30	0.80	 	 	 	 	 	 	 	 	 	 	 	 	 	 	 	 	 	 	1581543343	0.63	1.17
12/02/2020 21:35:44	120220	12022020	213544	81.21	12.275155	-56.990263	81.26	-0.290	-0.150	0.560	81.27	-1.50	1.00	 	 	 	 	 	 	 	 	 	 	 	 	 	 	 	 	 	 	1581543344	0.44	0.81
12/02/2020 21:35:45	120220	12022020	213545	81.38	12.275152	-56.990265	81.33	-0.600	0.030	0.790	81.37	-1.30	1.20	 	 	 	 	 	 	 	 	 	 	 	 	 	 	 	 	 	 	1581543345	0.71	1.31
12/02/2020 21:35:46	120220	12022020	213546	81.14	12.275148	-56.990268	81.02	-0.740	0.250	1.120	81.06	-1.10	1.50	 	 	 	 	 	 	 	 	 	 	 	 	 	 	 	 	 	 	1581543346	0.87	1.61
12/02/2020 21:35:47	120220	12022020	213547	80.72	12.275147	-56.990268	80.63	-0.450	-0.100	1.380	80.66	-1.50	1.80	 	 	 	 	 	 	 	 	 	 	 	 	 	 	 	 	 	 	1581543347	0.36	0.67
12/02/2020 21:35:48	120220	12022020	213548	80.58	12.275148	-56.990267	80.58	0.240	-0.970	1.280	80.60	-2.40	1.60	 	 	 	 	 	 	 	 	 	 	 	 	 	 	 	 	 	 	1581543348	0.60	1.11
12/02/2020 21:35:49	120220	12022020	213549	80.78	12.275152	-56.990262	80.80	0.910	-1.610	0.920	80.83	-3.00	1.30	 	 	 	 	 	 	 	 	 	 	 	 	 	 	 	 	 	 	1581543349	1.01	1.87
12/02/2020 21:35:50	120220	12022020	213550	80.95	12.275153	-56.990262	80.93	1.110	-1.230	0.620	80.97	-2.40	1.00	 	 	 	 	 	 	 	 	 	 	 	 	 	 	 	 	 	 	1581543350	0.59	1.09
12/02/2020 21:35:51	120220	12022020	213551	80.99	12.275155	-56.990265	80.92	0.700	-0.040	0.440	80.98	-1.20	0.80	 	 	 	 	 	 	 	 	 	 	 	 	 	 	 	 	 	 	1581543351	0.90	1.67
12/02/2020 21:35:52	120220	12022020	213552	80.84	12.275157	-56.990270	80.72	-0.040	0.980	0.450	80.78	-0.30	0.90	 	 	 	 	 	 	 	 	 	 	 	 	 	 	 	 	 	 	1581543352	1.03	1.91
12/02/2020 21:35:53	120220	12022020	213553	80.48	12.275157	-56.990272	80.34	-0.630	1.110	0.680	80.40	-0.30	1.10	 	 	 	 	 	 	 	 	 	 	 	 	 	 	 	 	 	 	1581543353	0.36	0.67
12/02/2020 21:35:54	120220	12022020	213554	80.18	12.275157	-56.990270	80.12	-0.760	0.430	0.790	80.15	-1.10	1.20	 	 	 	 	 	 	 	 	 	 	 	 	 	 	 	 	 	 	1581543354	0.48	0.89
12/02/2020 21:35:55	120220	12022020	213555	80.15	12.275157	-56.990267	80.13	-0.480	-0.410	0.750	80.16	-1.90	1.10	 	 	 	 	 	 	 	 	 	 	 	 	 	 	 	 	 	 	1581543355	0.75	1.39
12/02/2020 21:35:56	120220	12022020	213556	80.22	12.275158	-56.990265	80.20	-0.140	-0.800	0.740	80.23	-2.20	1.10	 	 	 	 	 	 	 	 	 	 	 	 	 	 	 	 	 	 	1581543356	0.40	0.74
12/02/2020 21:35:57	120220	12022020	213557	80.26	12.275158	-56.990265	80.24	0.010	-0.690	0.730	80.26	-2.00	1.10	 	 	 	 	 	 	 	 	 	 	 	 	 	 	 	 	 	 	1581543357	0.24	0.44
12/02/2020 21:35:58	120220	12022020	213558	80.27	12.275158	-56.990268	80.26	0.020	-0.370	0.620	80.28	-1.70	1.00	 	 	 	 	 	 	 	 	 	 	 	 	 	 	 	 	 	 	1581543358	0.49	0.91
12/02/2020 21:35:59	120220	12022020	213559	80.35	12.275160	-56.990270	80.33	0.100	-0.110	0.430	80.37	-1.40	0.80	 	 	 	 	 	 	 	 	 	 	 	 	 	 	 	 	 	 	1581543359	0.43	0.80
12/02/2020 21:36:00	120220	12022020	213600	80.39	12.275160	-56.990270	80.32	0.320	-0.080	0.450	80.37	-1.50	0.90	 	 	 	 	 	 	 	 	 	 	 	 	 	 	 	 	 	 	1581543360	0.20	0.37
12/02/2020 21:36:01	120220	12022020	213601	80.22	12.275160	-56.990268	80.13	0.520	-0.410	0.780	80.17	-1.80	1.20	 	 	 	 	 	 	 	 	 	 	 	 	 	 	 	 	 	 	1581543361	0.37	0.69
12/02/2020 21:36:02	120220	12022020	213602	80.00	12.275160	-56.990265	79.94	0.530	-0.810	1.200	79.96	-2.20	1.60	1014.70	26.40	26.40	20.60	20.60	31.0	70.0	70.0	401.0	26.2	344.00	10.10	65.00	9.80	2255	12409.0	27.4	27.4	1581543362	0.76	1.41
12/02/2020 21:36:03	120220	12022020	213603	79.87	12.275158	-56.990263	79.84	0.290	-0.740	1.430	79.85	-2.00	1.80	 	 	 	 	 	 	 	 	 	 	 	 	 	 	 	 	 	 	1581543363	0.49	0.91
12/02/2020 21:36:04	120220	12022020	213604	79.82	12.275158	-56.990263	79.81	-0.060	-0.110	1.470	79.82	-1.30	1.80	 	 	 	 	 	 	 	 	 	 	 	 	 	 	 	 	 	 	1581543364	0.23	0.43
12/02/2020 21:36:05	120220	12022020	213605	79.81	12.275158	-56.990267	79.81	-0.410	0.660	1.340	79.82	-0.60	1.70	 	 	 	 	 	 	 	 	 	 	 	 	 	 	 	 	 	 	1581543365	0.67	1.24
12/02/2020 21:36:06	120220	12022020	213606	79.84	12.275160	-56.990270	79.84	-0.610	0.960	1.000	79.85	-0.40	1.30	 	 	 	 	 	 	 	 	 	 	 	 	 	 	 	 	 	 	1581543366	0.61	1.13
12/02/2020 21:36:07	120220	12022020	213607	79.90	12.275163	-56.990270	79.88	-0.610	0.700	0.560	79.92	-0.70	0.90	 	 	 	 	 	 	 	 	 	 	 	 	 	 	 	 	 	 	1581543367	0.52	0.96
12/02/2020 21:36:08	120220	12022020	213608	80.00	12.275165	-56.990270	79.97	-0.420	0.090	0.150	80.02	-1.40	0.50	 	 	 	 	 	 	 	 	 	 	 	 	 	 	 	 	 	 	1581543368	0.51	0.94
12/02/2020 21:36:09	120220	12022020	213609	80.15	12.275167	-56.990268	80.12	-0.100	-0.590	-0.110	80.18	-2.00	0.30	 	 	 	 	 	 	 	 	 	 	 	 	 	 	 	 	 	 	1581543369	0.44	0.81
12/02/2020 21:36:10	120220	12022020	213610	80.30	12.275168	-56.990267	80.26	0.260	-1.290	-0.180	80.32	-2.70	0.20	 	 	 	 	 	 	 	 	 	 	 	 	 	 	 	 	 	 	1581543370	0.48	0.89
12/02/2020 21:36:11	120220	12022020	213611	80.33	12.275168	-56.990263	80.27	0.570	-1.810	-0.010	80.31	-3.20	0.40	 	 	 	 	 	 	 	 	 	 	 	 	 	 	 	 	 	 	1581543371	0.72	1.33
12/02/2020 21:36:12	120220	12022020	213612	80.11	12.275165	-56.990260	80.01	0.790	-1.720	0.530	80.03	-3.00	1.00	 	 	 	 	 	 	 	 	 	 	 	 	 	 	 	 	 	 	1581543372	0.86	1.59
12/02/2020 21:36:13	120220	12022020	213613	79.75	12.275163	-56.990258	79.69	0.780	-0.740	1.160	79.70	-1.90	1.60	 	 	 	 	 	 	 	 	 	 	 	 	 	 	 	 	 	 	1581543373	0.69	1.28
12/02/2020 21:36:14	120220	12022020	213614	79.60	12.275162	-56.990262	79.60	0.460	0.720	1.370	79.61	-0.40	1.70	 	 	 	 	 	 	 	 	 	 	 	 	 	 	 	 	 	 	1581543374	0.73	1.35
12/02/2020 21:36:15	120220	12022020	213615	79.82	12.275163	-56.990267	79.88	-0.100	1.770	1.050	79.90	0.50	1.40	 	 	 	 	 	 	 	 	 	 	 	 	 	 	 	 	 	 	1581543375	0.97	1.80
12/02/2020 21:36:16	120220	12022020	213616	80.22	12.275167	-56.990268	80.27	-0.650	1.770	0.530	80.28	0.30	0.80	 	 	 	 	 	 	 	 	 	 	 	 	 	 	 	 	 	 	1581543376	0.82	1.52
12/02/2020 21:36:17	120220	12022020	213617	80.45	12.275168	-56.990267	80.44	-0.940	0.850	0.210	80.46	-0.70	0.60	 	 	 	 	 	 	 	 	 	 	 	 	 	 	 	 	 	 	1581543377	0.69	1.28
12/02/2020 21:36:18	120220	12022020	213618	80.48	12.275170	-56.990263	80.46	-0.890	-0.320	0.160	80.48	-1.80	0.60	 	 	 	 	 	 	 	 	 	 	 	 	 	 	 	 	 	 	1581543378	0.73	1.35
12/02/2020 21:36:19	120220	12022020	213619	80.49	12.275168	-56.990260	80.49	-0.640	-1.150	0.320	80.50	-2.60	0.70	 	 	 	 	 	 	 	 	 	 	 	 	 	 	 	 	 	 	1581543379	0.62	1.15
12/02/2020 21:36:20	120220	12022020	213620	80.60	12.275165	-56.990260	80.64	-0.280	-1.560	0.620	80.62	-2.90	1.00	 	 	 	 	 	 	 	 	 	 	 	 	 	 	 	 	 	 	1581543380	0.80	1.48
12/02/2020 21:36:21	120220	12022020	213621	80.69	12.275160	-56.990258	80.71	0.180	-1.610	1.000	80.69	-2.90	1.40	 	 	 	 	 	 	 	 	 	 	 	 	 	 	 	 	 	 	1581543381	0.87	1.61
12/02/2020 21:36:22	120220	12022020	213622	80.56	12.275158	-56.990257	80.52	0.690	-1.340	1.290	80.51	-2.60	1.70	 	 	 	 	 	 	 	 	 	 	 	 	 	 	 	 	 	 	1581543382	0.57	1.06
12/02/2020 21:36:23	120220	12022020	213623	80.24	12.275158	-56.990257	80.18	1.110	-0.820	1.290	80.18	-2.10	1.60	 	 	 	 	 	 	 	 	 	 	 	 	 	 	 	 	 	 	1581543383	0.25	0.46
12/02/2020 21:36:24	120220	12022020	213624	80.10	12.275162	-56.990255	80.11	1.190	-0.170	0.860	80.12	-1.40	1.20	 	 	 	 	 	 	 	 	 	 	 	 	 	 	 	 	 	 	1581543384	0.81	1.50
12/02/2020 21:36:25	120220	12022020	213625	80.33	12.275167	-56.990255	80.38	0.800	0.460	0.400	80.40	-0.80	0.70	 	 	 	 	 	 	 	 	 	 	 	 	 	 	 	 	 	 	1581543385	1.01	1.87
12/02/2020 21:36:26	120220	12022020	213626	80.70	12.275170	-56.990257	80.75	0.030	1.070	0.170	80.78	-0.20	0.50	 	 	 	 	 	 	 	 	 	 	 	 	 	 	 	 	 	 	1581543386	0.73	1.35
12/02/2020 21:36:27	120220	12022020	213627	81.07	12.275170	-56.990258	81.13	-0.830	1.630	0.170	81.15	0.30	0.60	 	 	 	 	 	 	 	 	 	 	 	 	 	 	 	 	 	 	1581543387	0.59	1.09
12/02/2020 21:36:28	120220	12022020	213628	81.38	12.275168	-56.990262	81.41	-1.400	1.600	0.410	81.42	0.10	0.80	 	 	 	 	 	 	 	 	 	 	 	 	 	 	 	 	 	 	1581543388	0.84	1.56
12/02/2020 21:36:29	120220	12022020	213629	81.45	12.275163	-56.990260	81.42	-1.350	0.540	0.890	81.42	-1.10	1.40	 	 	 	 	 	 	 	 	 	 	 	 	 	 	 	 	 	 	1581543389	1.15	2.13
12/02/2020 21:36:30	120220	12022020	213630	81.16	12.275157	-56.990255	81.09	-0.740	-1.070	1.620	81.08	-2.70	2.10	 	 	 	 	 	 	 	 	 	 	 	 	 	 	 	 	 	 	1581543390	1.63	3.02
12/02/2020 21:36:31	120220	12022020	213631	80.82	12.275153	-56.990250	80.81	0.060	-2.300	2.200	80.79	-3.80	2.60	 	 	 	 	 	 	 	 	 	 	 	 	 	 	 	 	 	 	1581543391	1.37	2.54
12/02/2020 21:36:32	120220	12022020	213632	80.78	12.275153	-56.990247	80.84	0.700	-2.550	2.340	80.81	-3.90	2.70	 	 	 	 	 	 	 	 	 	 	 	 	 	 	 	 	 	 	1581543392	0.56	1.04
12/02/2020 21:36:33	120220	12022020	213633	80.95	12.275155	-56.990248	81.01	1.070	-1.860	2.020	80.99	-3.10	2.30	 	 	 	 	 	 	 	 	 	 	 	 	 	 	 	 	 	 	1581543393	0.49	0.91
12/02/2020 21:36:34	120220	12022020	213634	81.05	12.275158	-56.990250	81.06	1.150	-0.780	1.480	81.05	-2.00	1.80	 	 	 	 	 	 	 	 	 	 	 	 	 	 	 	 	 	 	1581543394	0.86	1.59
12/02/2020 21:36:35	120220	12022020	213635	81.04	12.275162	-56.990252	81.02	0.920	0.320	0.910	81.04	-0.90	1.20	 	 	 	 	 	 	 	 	 	 	 	 	 	 	 	 	 	 	1581543395	0.77	1.43
12/02/2020 21:36:36	120220	12022020	213636	81.03	12.275165	-56.990253	81.03	0.360	1.330	0.350	81.04	0.10	0.70	 	 	 	 	 	 	 	 	 	 	 	 	 	 	 	 	 	 	1581543396	0.71	1.31
12/02/2020 21:36:37	120220	12022020	213637	81.09	12.275167	-56.990255	81.08	-0.390	1.930	-0.110	81.11	0.60	0.20	 	 	 	 	 	 	 	 	 	 	 	 	 	 	 	 	 	 	1581543397	0.74	1.37
12/02/2020 21:36:38	120220	12022020	213638	81.22	12.275170	-56.990257	81.23	-1.050	1.720	-0.370	81.26	0.20	0.00	 	 	 	 	 	 	 	 	 	 	 	 	 	 	 	 	 	 	1581543398	0.50	0.93
12/02/2020 21:36:39	120220	12022020	213639	81.44	12.275170	-56.990255	81.44	-1.310	0.710	-0.370	81.48	-0.80	0.00	 	 	 	 	 	 	 	 	 	 	 	 	 	 	 	 	 	 	1581543399	0.34	0.63
12/02/2020 21:36:40	120220	12022020	213640	81.54	12.275168	-56.990252	81.51	-1.050	-0.550	-0.010	81.54	-2.10	0.40	 	 	 	 	 	 	 	 	 	 	 	 	 	 	 	 	 	 	1581543400	0.78	1.44
12/02/2020 21:36:41	120220	12022020	213641	81.46	12.275163	-56.990250	81.44	-0.460	-1.440	0.640	81.44	-2.90	1.10	 	 	 	 	 	 	 	 	 	 	 	 	 	 	 	 	 	 	1581543401	0.99	1.83
12/02/2020 21:36:42	120220	12022020	213642	81.30	12.275158	-56.990248	81.28	0.230	-1.880	1.380	81.27	-3.30	1.90	 	 	 	 	 	 	 	 	 	 	 	 	 	 	 	 	 	 	1581543402	1.12	2.07
12/02/2020 21:36:43	120220	12022020	213643	81.08	12.275155	-56.990245	81.06	0.890	-2.080	2.040	81.02	-3.40	2.50	 	 	 	 	 	 	 	 	 	 	 	 	 	 	 	 	 	 	1581543403	1.06	1.96
12/02/2020 21:36:44	120220	12022020	213644	80.82	12.275153	-56.990242	80.82	1.300	-1.850	2.400	80.77	-3.10	2.80	 	 	 	 	 	 	 	 	 	 	 	 	 	 	 	 	 	 	1581543404	0.83	1.54
12/02/2020 21:36:45	120220	12022020	213645	80.63	12.275153	-56.990242	80.66	1.210	-0.830	2.340	80.61	-2.00	2.70	 	 	 	 	 	 	 	 	 	 	 	 	 	 	 	 	 	 	1581543405	0.26	0.48
12/02/2020 21:36:46	120220	12022020	213646	80.59	12.275157	-56.990245	80.64	0.610	0.770	1.760	80.61	-0.40	2.00	 	 	 	 	 	 	 	 	 	 	 	 	 	 	 	 	 	 	1581543406	1.10	2.04
12/02/2020 21:36:47	120220	12022020	213647	80.77	12.275163	-56.990252	80.84	-0.220	2.170	0.710	80.83	0.90	0.90	 	 	 	 	 	 	 	 	 	 	 	 	 	 	 	 	 	 	1581543407	1.72	3.19
12/02/2020 21:36:48	120220	12022020	213648	81.15	12.275168	-56.990257	81.20	-0.880	2.550	-0.420	81.22	1.10	-0.20	 	 	 	 	 	 	 	 	 	 	 	 	 	 	 	 	 	 	1581543408	1.60	2.96
12/02/2020 21:36:49	120220	12022020	213649	81.49	12.275172	-56.990257	81.50	-1.030	1.540	-1.060	81.54	-0.10	-0.70	 	 	 	 	 	 	 	 	 	 	 	 	 	 	 	 	 	 	1581543409	0.85	1.57
12/02/2020 21:36:50	120220	12022020	213650	81.60	12.275173	-56.990252	81.54	-0.710	-0.350	-1.120	81.59	-2.00	-0.70	 	 	 	 	 	 	 	 	 	 	 	 	 	 	 	 	 	 	1581543410	1.03	1.91
12/02/2020 21:36:51	120220	12022020	213651	81.51	12.275173	-56.990247	81.45	-0.250	-1.970	-0.740	81.49	-3.50	-0.30	 	 	 	 	 	 	 	 	 	 	 	 	 	 	 	 	 	 	1581543411	1.15	2.13
12/02/2020 21:36:52	120220	12022020	213652	81.43	12.275168	-56.990243	81.39	0.060	-2.580	0.030	81.41	-3.90	0.50	 	 	 	 	 	 	 	 	 	 	 	 	 	 	 	 	 	 	1581543412	1.08	2.00
12/02/2020 21:36:53	120220	12022020	213653	81.26	12.275162	-56.990243	81.21	0.210	-2.130	1.170	81.21	-3.40	1.70	 	 	 	 	 	 	 	 	 	 	 	 	 	 	 	 	 	 	1581543413	1.78	3.30
12/02/2020 21:36:54	120220	12022020	213654	80.93	12.275152	-56.990245	80.89	0.320	-1.030	2.230	80.86	-2.20	2.70	 	 	 	 	 	 	 	 	 	 	 	 	 	 	 	 	 	 	1581543414	1.94	3.59
12/02/2020 21:36:55	120220	12022020	213655	80.68	12.275148	-56.990247	80.70	0.480	0.060	2.540	80.67	-1.20	2.90	 	 	 	 	 	 	 	 	 	 	 	 	 	 	 	 	 	 	1581543415	1.05	1.94
12/02/2020 21:36:56	120220	12022020	213656	80.72	12.275150	-56.990248	80.76	0.620	0.750	1.990	80.75	-0.60	2.20	 	 	 	 	 	 	 	 	 	 	 	 	 	 	 	 	 	 	1581543416	0.56	1.04
12/02/2020 21:36:57	120220	12022020	213657	80.90	12.275157	-56.990248	80.93	0.540	0.970	1.000	80.94	-0.40	1.20	 	 	 	 	 	 	 	 	 	 	 	 	 	 	 	 	 	 	1581543417	1.54	2.85
12/02/2020 21:36:58	120220	12022020	213658	81.08	12.275165	-56.990250	81.09	0.130	0.880	0.110	81.12	-0.50	0.40	 	 	 	 	 	 	 	 	 	 	 	 	 	 	 	 	 	 	1581543418	1.63	3.02
12/02/2020 21:36:59	120220	12022020	213659	81.27	12.275168	-56.990250	81.29	-0.380	0.500	-0.500	81.32	-0.90	-0.20	 	 	 	 	 	 	 	 	 	 	 	 	 	 	 	 	 	 	1581543419	0.95	1.76
12/02/2020 21:37:00	120220	12022020	213700	81.51	12.275170	-56.990248	81.51	-0.660	-0.100	-0.800	81.55	-1.60	-0.40	 	 	 	 	 	 	 	 	 	 	 	 	 	 	 	 	 	 	1581543420	0.23	0.43
12/02/2020 21:37:01	120220	12022020	213701	81.61	12.275167	-56.990247	81.58	-0.580	-0.700	-0.480	81.60	-2.10	-0.00	 	 	 	 	 	 	 	 	 	 	 	 	 	 	 	 	 	 	1581543421	0.71	1.31
12/02/2020 21:37:02	120220	12022020	213702	81.51	12.275162	-56.990245	81.48	-0.320	-0.940	0.350	81.48	-2.30	0.80	1014.60	26.30	26.40	20.20	20.30	26.0	69.0	69.0	394.0	26.2	346.00	10.50	66.00	10.10	2097	12307.0	27.4	27.4	1581543422	1.18	2.19
12/02/2020 21:37:03	120220	12022020	213703	81.33	12.275157	-56.990245	81.32	-0.090	-0.720	1.110	81.29	-2.00	1.60	 	 	 	 	 	 	 	 	 	 	 	 	 	 	 	 	 	 	1581543423	1.17	2.17
12/02/2020 21:37:04	120220	12022020	213704	81.16	12.275153	-56.990247	81.18	0.120	-0.390	1.520	81.15	-1.70	1.90	 	 	 	 	 	 	 	 	 	 	 	 	 	 	 	 	 	 	1581543424	0.82	1.52
12/02/2020 21:37:05	120220	12022020	213705	81.13	12.275152	-56.990248	81.16	0.370	-0.350	1.620	81.12	-1.70	2.00	 	 	 	 	 	 	 	 	 	 	 	 	 	 	 	 	 	 	1581543425	0.24	0.44
12/02/2020 21:37:06	120220	12022020	213706	81.08	12.275152	-56.990245	81.09	0.590	-0.640	1.700	81.06	-2.00	2.10	 	 	 	 	 	 	 	 	 	 	 	 	 	 	 	 	 	 	1581543426	0.49	0.91
12/02/2020 21:37:07	120220	12022020	213707	80.98	12.275153	-56.990242	81.01	0.600	-0.780	1.720	80.96	-2.10	2.10	 	 	 	 	 	 	 	 	 	 	 	 	 	 	 	 	 	 	1581543427	0.68	1.26
12/02/2020 21:37:08	120220	12022020	213708	81.04	12.275155	-56.990242	81.12	0.320	-0.340	1.500	81.08	-1.60	1.80	 	 	 	 	 	 	 	 	 	 	 	 	 	 	 	 	 	 	1581543428	0.36	0.67
12/02/2020 21:37:09	120220	12022020	213709	81.31	12.275157	-56.990245	81.39	-0.060	0.430	1.020	81.37	-0.80	1.30	 	 	 	 	 	 	 	 	 	 	 	 	 	 	 	 	 	 	1581543429	0.68	1.26
12/02/2020 21:37:10	120220	12022020	213710	81.56	12.275158	-56.990247	81.60	-0.280	0.900	0.540	81.60	-0.50	0.90	 	 	 	 	 	 	 	 	 	 	 	 	 	 	 	 	 	 	1581543430	0.61	1.13
12/02/2020 21:37:11	120220	12022020	213711	81.64	12.275158	-56.990247	81.64	-0.280	0.740	0.340	81.63	-0.70	0.70	 	 	 	 	 	 	 	 	 	 	 	 	 	 	 	 	 	 	1581543431	0.09	0.17
12/02/2020 21:37:12	120220	12022020	213712	81.57	12.275158	-56.990245	81.56	-0.240	0.180	0.490	81.56	-1.30	0.90	 	 	 	 	 	 	 	 	 	 	 	 	 	 	 	 	 	 	1581543432	0.39	0.72
12/02/2020 21:37:13	120220	12022020	213713	81.47	12.275157	-56.990245	81.46	-0.310	-0.380	0.760	81.44	-1.80	1.20	 	 	 	 	 	 	 	 	 	 	 	 	 	 	 	 	 	 	1581543433	0.45	0.83
12/02/2020 21:37:14	120220	12022020	213714	81.35	12.275155	-56.990243	81.35	-0.370	-0.750	0.970	81.33	-2.20	1.40	 	 	 	 	 	 	 	 	 	 	 	 	 	 	 	 	 	 	1581543434	0.32	0.59
12/02/2020 21:37:15	120220	12022020	213715	81.30	12.275153	-56.990243	81.32	-0.220	-0.950	1.060	81.30	-2.30	1.40	 	 	 	 	 	 	 	 	 	 	 	 	 	 	 	 	 	 	1581543435	0.12	0.22
12/02/2020 21:37:16	120220	12022020	213716	81.31	12.275153	-56.990243	81.33	0.160	-1.030	1.190	81.31	-2.40	1.60	 	 	 	 	 	 	 	 	 	 	 	 	 	 	 	 	 	 	1581543436	0.18	0.33
12/02/2020 21:37:17	120220	12022020	213717	81.30	12.275153	-56.990242	81.33	0.560	-0.990	1.380	81.30	-2.30	1.80	 	 	 	 	 	 	 	 	 	 	 	 	 	 	 	 	 	 	1581543437	0.40	0.74
12/02/2020 21:37:18	120220	12022020	213718	81.29	12.275152	-56.990240	81.31	0.680	-0.580	1.400	81.28	-1.90	1.80	 	 	 	 	 	 	 	 	 	 	 	 	 	 	 	 	 	 	1581543438	0.27	0.50
12/02/2020 21:37:19	120220	12022020	213719	81.27	12.275152	-56.990242	81.29	0.420	0.230	1.250	81.26	-1.00	1.60	 	 	 	 	 	 	 	 	 	 	 	 	 	 	 	 	 	 	1581543439	0.36	0.67
12/02/2020 21:37:20	120220	12022020	213720	81.23	12.275153	-56.990245	81.23	0.010	0.910	1.090	81.22	-0.40	1.40	 	 	 	 	 	 	 	 	 	 	 	 	 	 	 	 	 	 	1581543440	0.67	1.24
12/02/2020 21:37:21	120220	12022020	213721	81.23	12.275155	-56.990245	81.26	-0.240	0.870	0.850	81.26	-0.60	1.20	 	 	 	 	 	 	 	 	 	 	 	 	 	 	 	 	 	 	1581543441	0.41	0.76
12/02/2020 21:37:22	120220	12022020	213722	81.37	12.275157	-56.990243	81.39	-0.250	0.210	0.520	81.39	-1.30	0.90	 	 	 	 	 	 	 	 	 	 	 	 	 	 	 	 	 	 	1581543442	0.67	1.24
12/02/2020 21:37:23	120220	12022020	213723	81.49	12.275158	-56.990242	81.50	-0.250	-0.470	0.330	81.51	-1.90	0.70	 	 	 	 	 	 	 	 	 	 	 	 	 	 	 	 	 	 	1581543443	0.68	1.26
12/02/2020 21:37:24	120220	12022020	213724	81.56	12.275158	-56.990240	81.55	-0.380	-0.650	0.460	81.56	-2.00	0.90	 	 	 	 	 	 	 	 	 	 	 	 	 	 	 	 	 	 	1581543444	0.32	0.59
12/02/2020 21:37:25	120220	12022020	213725	81.54	12.275153	-56.990242	81.53	-0.570	-0.400	0.830	81.52	-1.70	1.30	 	 	 	 	 	 	 	 	 	 	 	 	 	 	 	 	 	 	1581543445	0.92	1.70
12/02/2020 21:37:26	120220	12022020	213726	81.44	12.275150	-56.990243	81.43	-0.500	-0.280	1.190	81.41	-1.70	1.60	 	 	 	 	 	 	 	 	 	 	 	 	 	 	 	 	 	 	1581543446	0.98	1.81
12/02/2020 21:37:27	120220	12022020	213727	81.30	12.275147	-56.990242	81.30	0.000	-0.640	1.380	81.28	-2.10	1.80	 	 	 	 	 	 	 	 	 	 	 	 	 	 	 	 	 	 	1581543447	0.53	0.98
12/02/2020 21:37:28	120220	12022020	213728	81.16	12.275148	-56.990238	81.16	0.660	-1.040	1.460	81.13	-2.40	1.80	 	 	 	 	 	 	 	 	 	 	 	 	 	 	 	 	 	 	1581543448	0.72	1.33
12/02/2020 21:37:29	120220	12022020	213729	81.04	12.275150	-56.990237	81.04	0.900	-0.750	1.370	81.02	-2.00	1.70	 	 	 	 	 	 	 	 	 	 	 	 	 	 	 	 	 	 	1581543449	0.43	0.80
12/02/2020 21:37:30	120220	12022020	213730	80.94	12.275152	-56.990240	80.92	0.480	0.210	1.050	80.91	-1.00	1.40	 	 	 	 	 	 	 	 	 	 	 	 	 	 	 	 	 	 	1581543450	0.83	1.54
12/02/2020 21:37:31	120220	12022020	213731	80.80	12.275153	-56.990245	80.79	-0.230	1.000	0.620	80.79	-0.40	0.90	 	 	 	 	 	 	 	 	 	 	 	 	 	 	 	 	 	 	1581543451	1.16	2.15
12/02/2020 21:37:32	120220	12022020	213732	80.84	12.275157	-56.990247	80.90	-0.590	0.830	0.090	80.89	-0.70	0.40	 	 	 	 	 	 	 	 	 	 	 	 	 	 	 	 	 	 	1581543452	0.79	1.46
12/02/2020 21:37:33	120220	12022020	213733	81.21	12.275162	-56.990243	81.32	-0.340	-0.180	-0.410	81.32	-1.70	-0.10	 	 	 	 	 	 	 	 	 	 	 	 	 	 	 	 	 	 	1581543453	1.05	1.94
12/02/2020 21:37:34	120220	12022020	213734	81.70	12.275163	-56.990240	81.78	0.100	-0.980	-0.500	81.78	-2.40	-0.10	 	 	 	 	 	 	 	 	 	 	 	 	 	 	 	 	 	 	1581543454	0.94	1.74
12/02/2020 21:37:35	120220	12022020	213735	81.87	12.275160	-56.990238	81.84	0.190	-0.970	-0.020	81.84	-2.30	0.50	 	 	 	 	 	 	 	 	 	 	 	 	 	 	 	 	 	 	1581543455	0.72	1.33
12/02/2020 21:37:36	120220	12022020	213736	81.46	12.275152	-56.990240	81.34	-0.150	-0.410	0.980	81.32	-1.70	1.50	 	 	 	 	 	 	 	 	 	 	 	 	 	 	 	 	 	 	1581543456	1.59	2.94
12/02/2020 21:37:37	120220	12022020	213737	80.69	12.275143	-56.990242	80.59	-0.540	0.090	2.040	80.55	-1.30	2.50	 	 	 	 	 	 	 	 	 	 	 	 	 	 	 	 	 	 	1581543457	1.80	3.33
12/02/2020 21:37:38	120220	12022020	213738	80.06	12.275140	-56.990242	80.01	-0.560	0.240	2.580	79.98	-1.20	3.00	 	 	 	 	 	 	 	 	 	 	 	 	 	 	 	 	 	 	1581543458	1.00	1.85
12/02/2020 21:37:39	120220	12022020	213739	79.85	12.275140	-56.990242	79.89	-0.170	0.060	2.380	79.87	-1.40	2.70	 	 	 	 	 	 	 	 	 	 	 	 	 	 	 	 	 	 	1581543459	0.14	0.26
12/02/2020 21:37:40	120220	12022020	213740	80.14	12.275145	-56.990242	80.23	0.340	-0.310	1.470	80.24	-1.80	1.70	 	 	 	 	 	 	 	 	 	 	 	 	 	 	 	 	 	 	1581543460	1.23	2.28
12/02/2020 21:37:41	120220	12022020	213741	80.62	12.275153	-56.990242	80.67	0.610	-0.610	0.300	80.70	-2.00	0.50	 	 	 	 	 	 	 	 	 	 	 	 	 	 	 	 	 	 	1581543461	1.73	3.20
12/02/2020 21:37:42	120220	12022020	213742	80.85	12.275160	-56.990242	80.82	0.530	-0.620	-0.460	80.86	-2.00	-0.10	 	 	 	 	 	 	 	 	 	 	 	 	 	 	 	 	 	 	1581543462	1.27	2.35
12/02/2020 21:37:43	120220	12022020	213743	80.76	12.275160	-56.990243	80.68	0.210	-0.370	-0.470	80.71	-1.70	-0.00	 	 	 	 	 	 	 	 	 	 	 	 	 	 	 	 	 	 	1581543463	0.33	0.61
12/02/2020 21:37:44	120220	12022020	213744	80.48	12.275158	-56.990243	80.41	-0.140	0.010	0.120	80.42	-1.30	0.60	 	 	 	 	 	 	 	 	 	 	 	 	 	 	 	 	 	 	1581543464	0.67	1.24
12/02/2020 21:37:45	120220	12022020	213745	80.24	12.275153	-56.990245	80.22	-0.350	0.280	0.860	80.21	-1.10	1.30	 	 	 	 	 	 	 	 	 	 	 	 	 	 	 	 	 	 	1581543465	1.12	2.07
12/02/2020 21:37:46	120220	12022020	213746	80.12	12.275148	-56.990245	80.13	-0.340	0.110	1.370	80.10	-1.40	1.80	 	 	 	 	 	 	 	 	 	 	 	 	 	 	 	 	 	 	1581543466	0.97	1.80
12/02/2020 21:37:47	120220	12022020	213747	80.05	12.275147	-56.990242	80.08	-0.090	-0.430	1.620	80.04	-1.90	2.00	 	 	 	 	 	 	 	 	 	 	 	 	 	 	 	 	 	 	1581543467	0.65	1.20
12/02/2020 21:37:48	120220	12022020	213748	80.07	12.275147	-56.990240	80.13	0.240	-0.800	1.710	80.09	-2.20	2.10	 	 	 	 	 	 	 	 	 	 	 	 	 	 	 	 	 	 	1581543468	0.54	1.00
12/02/2020 21:37:49	120220	12022020	213749	80.26	12.275147	-56.990238	80.35	0.360	-0.540	1.600	80.31	-1.90	1.90	 	 	 	 	 	 	 	 	 	 	 	 	 	 	 	 	 	 	1581543469	0.15	0.28
12/02/2020 21:37:50	120220	12022020	213750	80.51	12.275147	-56.990242	80.57	0.110	0.120	1.310	80.54	-1.20	1.60	 	 	 	 	 	 	 	 	 	 	 	 	 	 	 	 	 	 	1581543470	0.57	1.06
12/02/2020 21:37:51	120220	12022020	213751	80.48	12.275147	-56.990245	80.44	-0.370	0.580	1.130	80.42	-0.80	1.50	 	 	 	 	 	 	 	 	 	 	 	 	 	 	 	 	 	 	1581543471	0.66	1.22
12/02/2020 21:37:52	120220	12022020	213752	80.09	12.275147	-56.990245	79.99	-0.630	0.420	1.190	80.00	-1.00	1.60	 	 	 	 	 	 	 	 	 	 	 	 	 	 	 	 	 	 	1581543472	0.28	0.52
12/02/2020 21:37:53	120220	12022020	213753	79.78	12.275147	-56.990245	79.77	-0.400	-0.210	1.060	79.77	-1.70	1.40	 	 	 	 	 	 	 	 	 	 	 	 	 	 	 	 	 	 	1581543473	0.39	0.72
12/02/2020 21:37:54	120220	12022020	213754	79.92	12.275152	-56.990242	80.01	0.130	-0.860	0.500	80.00	-2.30	0.80	 	 	 	 	 	 	 	 	 	 	 	 	 	 	 	 	 	 	1581543474	1.03	1.91
12/02/2020 21:37:55	120220	12022020	213755	80.40	12.275157	-56.990242	80.48	0.430	-1.010	-0.190	80.49	-2.40	0.10	 	 	 	 	 	 	 	 	 	 	 	 	 	 	 	 	 	 	1581543475	0.98	1.81
12/02/2020 21:37:56	120220	12022020	213756	80.71	12.275157	-56.990243	80.71	0.250	-0.600	-0.470	80.72	-1.90	-0.10	 	 	 	 	 	 	 	 	 	 	 	 	 	 	 	 	 	 	1581543476	0.42	0.78
12/02/2020 21:37:57	120220	12022020	213757	80.61	12.275155	-56.990245	80.54	-0.120	0.000	-0.170	80.55	-1.30	0.30	 	 	 	 	 	 	 	 	 	 	 	 	 	 	 	 	 	 	1581543477	0.79	1.46
12/02/2020 21:37:58	120220	12022020	213758	80.27	12.275148	-56.990247	80.19	-0.240	0.290	0.560	80.19	-1.10	1.10	 	 	 	 	 	 	 	 	 	 	 	 	 	 	 	 	 	 	1581543478	1.13	2.09
12/02/2020 21:37:59	120220	12022020	213759	79.89	12.275145	-56.990245	79.83	0.060	0.120	1.330	79.82	-1.30	1.80	 	 	 	 	 	 	 	 	 	 	 	 	 	 	 	 	 	 	1581543479	1.02	1.89
12/02/2020 21:38:00	120220	12022020	213800	79.59	12.275143	-56.990242	79.57	0.490	-0.350	1.750	79.56	-1.80	2.10	 	 	 	 	 	 	 	 	 	 	 	 	 	 	 	 	 	 	1581543480	0.67	1.24
12/02/2020 21:38:01	120220	12022020	213801	79.56	12.275147	-56.990240	79.61	0.650	-0.640	1.570	79.60	-2.00	1.90	 	 	 	 	 	 	 	 	 	 	 	 	 	 	 	 	 	 	1581543481	0.73	1.35
12/02/2020 21:38:02	120220	12022020	213802	79.90	12.275150	-56.990240	80.01	0.330	-0.410	1.040	80.00	-1.70	1.30	1014.70	26.40	26.40	20.10	20.20	23.0	68.0	68.0	392.0	26.2	347.00	10.60	67.00	10.30	1986	11900.0	27.4	27.4	1581543482	0.92	1.70
12/02/2020 21:38:03	120220	12022020	213803	80.46	12.275152	-56.990243	80.55	-0.270	0.080	0.690	80.56	-1.30	1.10	 	 	 	 	 	 	 	 	 	 	 	 	 	 	 	 	 	 	1581543483	0.67	1.24
12/02/2020 21:38:04	120220	12022020	213804	80.79	12.275148	-56.990245	80.82	-0.720	0.370	0.950	80.80	-1.00	1.40	 	 	 	 	 	 	 	 	 	 	 	 	 	 	 	 	 	 	1581543484	0.72	1.33
12/02/2020 21:38:05	120220	12022020	213805	80.66	12.275143	-56.990245	80.60	-0.810	0.370	1.580	80.57	-1.00	2.00	 	 	 	 	 	 	 	 	 	 	 	 	 	 	 	 	 	 	1581543485	1.14	2.11
12/02/2020 21:38:06	120220	12022020	213806	80.19	12.275138	-56.990245	80.12	-0.580	0.180	2.030	80.10	-1.30	2.40	 	 	 	 	 	 	 	 	 	 	 	 	 	 	 	 	 	 	1581543486	0.99	1.83
12/02/2020 21:38:07	120220	12022020	213807	79.78	12.275138	-56.990245	79.75	-0.130	-0.160	2.040	79.72	-1.60	2.40	 	 	 	 	 	 	 	 	 	 	 	 	 	 	 	 	 	 	1581543487	0.30	0.56
12/02/2020 21:38:08	120220	12022020	213808	79.62	12.275140	-56.990243	79.65	0.400	-0.730	1.740	79.62	-2.20	2.10	 	 	 	 	 	 	 	 	 	 	 	 	 	 	 	 	 	 	1581543488	0.53	0.98
12/02/2020 21:38:09	120220	12022020	213809	79.74	12.275143	-56.990242	79.82	0.770	-1.430	1.220	79.79	-2.90	1.50	 	 	 	 	 	 	 	 	 	 	 	 	 	 	 	 	 	 	1581543489	1.02	1.89
12/02/2020 21:38:10	120220	12022020	213810	80.03	12.275147	-56.990238	80.09	0.780	-1.690	0.620	80.08	-3.00	0.90	 	 	 	 	 	 	 	 	 	 	 	 	 	 	 	 	 	 	1581543490	0.96	1.78
12/02/2020 21:38:11	120220	12022020	213811	80.17	12.275148	-56.990238	80.15	0.490	-1.030	0.260	80.15	-2.20	0.60	 	 	 	 	 	 	 	 	 	 	 	 	 	 	 	 	 	 	1581543491	0.35	0.65
12/02/2020 21:38:12	120220	12022020	213812	79.97	12.275150	-56.990243	79.90	0.070	0.400	0.230	79.90	-0.80	0.60	 	 	 	 	 	 	 	 	 	 	 	 	 	 	 	 	 	 	1581543492	0.89	1.65
12/02/2020 21:38:13	120220	12022020	213813	79.67	12.275148	-56.990248	79.62	-0.390	1.710	0.400	79.62	0.40	0.80	 	 	 	 	 	 	 	 	 	 	 	 	 	 	 	 	 	 	1581543493	1.26	2.33
12/02/2020 21:38:14	120220	12022020	213814	79.60	12.275148	-56.990252	79.61	-0.750	1.940	0.450	79.62	0.50	0.80	 	 	 	 	 	 	 	 	 	 	 	 	 	 	 	 	 	 	1581543494	0.70	1.30
12/02/2020 21:38:15	120220	12022020	213815	79.82	12.275148	-56.990250	79.85	-0.810	0.960	0.380	79.86	-0.70	0.80	 	 	 	 	 	 	 	 	 	 	 	 	 	 	 	 	 	 	1581543495	0.31	0.57
12/02/2020 21:38:16	120220	12022020	213816	79.94	12.275147	-56.990247	79.92	-0.540	-0.550	0.570	79.92	-2.10	1.00	 	 	 	 	 	 	 	 	 	 	 	 	 	 	 	 	 	 	1581543496	0.95	1.76
12/02/2020 21:38:17	120220	12022020	213817	79.72	12.275145	-56.990242	79.65	-0.060	-1.710	1.100	79.65	-3.20	1.60	 	 	 	 	 	 	 	 	 	 	 	 	 	 	 	 	 	 	1581543497	0.98	1.81
12/02/2020 21:38:18	120220	12022020	213818	79.38	12.275142	-56.990240	79.37	0.400	-2.030	1.670	79.34	-3.40	2.10	 	 	 	 	 	 	 	 	 	 	 	 	 	 	 	 	 	 	1581543498	0.67	1.24
12/02/2020 21:38:19	120220	12022020	213819	79.26	12.275140	-56.990242	79.33	0.670	-1.480	2.050	79.27	-2.80	2.40	 	 	 	 	 	 	 	 	 	 	 	 	 	 	 	 	 	 	1581543499	0.62	1.15
12/02/2020 21:38:20	120220	12022020	213820	79.36	12.275138	-56.990243	79.43	0.680	-0.580	2.120	79.39	-1.90	2.50	 	 	 	 	 	 	 	 	 	 	 	 	 	 	 	 	 	 	1581543500	0.64	1.19
12/02/2020 21:38:21	120220	12022020	213821	79.47	12.275140	-56.990247	79.54	0.470	0.080	1.900	79.49	-1.30	2.20	 	 	 	 	 	 	 	 	 	 	 	 	 	 	 	 	 	 	1581543501	0.46	0.85
12/02/2020 21:38:22	120220	12022020	213822	79.54	12.275142	-56.990245	79.58	0.160	0.300	1.440	79.55	-1.10	1.80	 	 	 	 	 	 	 	 	 	 	 	 	 	 	 	 	 	 	1581543502	0.60	1.11
12/02/2020 21:38:23	120220	12022020	213823	79.56	12.275145	-56.990245	79.57	-0.210	0.540	1.030	79.55	-0.80	1.40	 	 	 	 	 	 	 	 	 	 	 	 	 	 	 	 	 	 	1581543503	0.56	1.04
12/02/2020 21:38:24	120220	12022020	213824	79.53	12.275145	-56.990247	79.54	-0.560	0.950	0.810	79.53	-0.40	1.20	 	 	 	 	 	 	 	 	 	 	 	 	 	 	 	 	 	 	1581543504	0.41	0.76
12/02/2020 21:38:25	120220	12022020	213825	79.63	12.275145	-56.990250	79.69	-0.720	1.110	0.520	79.68	-0.30	0.90	 	 	 	 	 	 	 	 	 	 	 	 	 	 	 	 	 	 	1581543505	0.60	1.11
12/02/2020 21:38:26	120220	12022020	213826	79.86	12.275147	-56.990252	79.89	-0.670	0.700	0.210	79.90	-0.80	0.60	 	 	 	 	 	 	 	 	 	 	 	 	 	 	 	 	 	 	1581543506	0.38	0.70
12/02/2020 21:38:27	120220	12022020	213827	80.04	12.275145	-56.990252	80.05	-0.460	-0.160	0.130	80.06	-1.70	0.50	 	 	 	 	 	 	 	 	 	 	 	 	 	 	 	 	 	 	1581543507	0.07	0.13
12/02/2020 21:38:28	120220	12022020	213828	80.10	12.275145	-56.990250	80.08	-0.080	-1.130	0.290	80.10	-2.70	0.70	 	 	 	 	 	 	 	 	 	 	 	 	 	 	 	 	 	 	1581543508	0.41	0.76
12/02/2020 21:38:29	120220	12022020	213829	80.01	12.275143	-56.990247	79.98	0.450	-2.020	0.600	79.98	-3.50	1.00	 	 	 	 	 	 	 	 	 	 	 	 	 	 	 	 	 	 	1581543509	0.62	1.15
12/02/2020 21:38:30	120220	12022020	213830	79.83	12.275145	-56.990243	79.80	0.980	-2.510	1.000	79.79	-3.90	1.40	 	 	 	 	 	 	 	 	 	 	 	 	 	 	 	 	 	 	1581543510	0.83	1.54
12/02/2020 21:38:31	120220	12022020	213831	79.69	12.275145	-56.990240	79.70	1.190	-2.030	1.420	79.68	-3.20	1.90	 	 	 	 	 	 	 	 	 	 	 	 	 	 	 	 	 	 	1581543511	0.52	0.96
12/02/2020 21:38:32	120220	12022020	213832	79.78	12.275145	-56.990243	79.86	0.850	-0.320	1.680	79.84	-1.40	2.10	 	 	 	 	 	 	 	 	 	 	 	 	 	 	 	 	 	 	1581543512	0.59	1.09
12/02/2020 21:38:33	120220	12022020	213833	80.17	12.275142	-56.990250	80.30	0.130	1.810	1.760	80.28	0.70	2.10	 	 	 	 	 	 	 	 	 	 	 	 	 	 	 	 	 	 	1581543513	1.62	3.00
12/02/2020 21:38:34	120220	12022020	213834	80.72	12.275138	-56.990257	80.84	-0.550	2.890	1.690	80.82	1.50	2.00	 	 	 	 	 	 	 	 	 	 	 	 	 	 	 	 	 	 	1581543514	1.41	2.61
12/02/2020 21:38:35	120220	12022020	213835	81.13	12.275138	-56.990257	81.17	-0.840	2.100	1.570	81.17	0.50	1.90	 	 	 	 	 	 	 	 	 	 	 	 	 	 	 	 	 	 	1581543515	0.31	0.57
12/02/2020 21:38:36	120220	12022020	213836	81.17	12.275138	-56.990250	81.13	-0.760	0.240	1.530	81.14	-1.40	1.90	 	 	 	 	 	 	 	 	 	 	 	 	 	 	 	 	 	 	1581543516	1.21	2.24
12/02/2020 21:38:37	120220	12022020	213837	80.97	12.275138	-56.990245	80.94	-0.570	-1.240	1.590	80.93	-2.70	2.00	 	 	 	 	 	 	 	 	 	 	 	 	 	 	 	 	 	 	1581543517	1.00	1.85
12/02/2020 21:38:38	120220	12022020	213838	80.82	12.275138	-56.990247	80.81	-0.450	-1.650	1.670	80.80	-3.00	2.10	 	 	 	 	 	 	 	 	 	 	 	 	 	 	 	 	 	 	1581543518	0.09	0.17
12/02/2020 21:38:39	120220	12022020	213839	80.77	12.275138	-56.990248	80.80	-0.300	-1.490	1.620	80.77	-2.80	2.00	 	 	 	 	 	 	 	 	 	 	 	 	 	 	 	 	 	 	1581543519	0.65	1.20
12/02/2020 21:38:40	120220	12022020	213840	80.85	12.275138	-56.990250	80.91	0.110	-1.330	1.330	80.88	-2.70	1.70	 	 	 	 	 	 	 	 	 	 	 	 	 	 	 	 	 	 	1581543520	0.33	0.61
12/02/2020 21:38:41	120220	12022020	213841	81.12	12.275140	-56.990250	81.20	0.730	-1.280	0.850	81.19	-2.60	1.20	 	 	 	 	 	 	 	 	 	 	 	 	 	 	 	 	 	 	1581543521	0.35	0.65
12/02/2020 21:38:42	120220	12022020	213842	81.40	12.275142	-56.990248	81.43	1.120	-0.960	0.520	81.43	-2.20	0.90	 	 	 	 	 	 	 	 	 	 	 	 	 	 	 	 	 	 	1581543522	0.52	0.96
12/02/2020 21:38:43	120220	12022020	213843	81.40	12.275142	-56.990248	81.36	0.940	0.010	0.360	81.36	-1.20	0.70	 	 	 	 	 	 	 	 	 	 	 	 	 	 	 	 	 	 	1581543523	0.26	0.48
12/02/2020 21:38:44	120220	12022020	213844	81.11	12.275143	-56.990252	81.04	0.280	1.220	0.280	81.04	-0.00	0.70	 	 	 	 	 	 	 	 	 	 	 	 	 	 	 	 	 	 	1581543524	0.83	1.54
12/02/2020 21:38:45	120220	12022020	213845	80.77	12.275145	-56.990257	80.72	-0.490	1.870	0.300	80.72	0.50	0.70	 	 	 	 	 	 	 	 	 	 	 	 	 	 	 	 	 	 	1581543525	0.85	1.57
12/02/2020 21:38:46	120220	12022020	213846	80.63	12.275145	-56.990257	80.65	-0.970	1.450	0.340	80.64	-0.10	0.70	 	 	 	 	 	 	 	 	 	 	 	 	 	 	 	 	 	 	1581543526	0.33	0.61
12/02/2020 21:38:47	120220	12022020	213847	80.77	12.275147	-56.990255	80.84	-0.960	0.210	0.310	80.82	-1.40	0.70	 	 	 	 	 	 	 	 	 	 	 	 	 	 	 	 	 	 	1581543527	0.62	1.15
12/02/2020 21:38:48	120220	12022020	213848	81.06	12.275147	-56.990250	81.16	-0.550	-1.030	0.310	81.12	-2.50	0.70	 	 	 	 	 	 	 	 	 	 	 	 	 	 	 	 	 	 	1581543528	0.75	1.39
12/02/2020 21:38:49	120220	12022020	213849	81.34	12.275145	-56.990248	81.43	-0.010	-1.630	0.560	81.39	-3.00	1.00	 	 	 	 	 	 	 	 	 	 	 	 	 	 	 	 	 	 	1581543529	0.60	1.11
12/02/2020 21:38:50	120220	12022020	213850	81.44	12.275142	-56.990248	81.47	0.400	-1.530	1.080	81.43	-2.80	1.50	 	 	 	 	 	 	 	 	 	 	 	 	 	 	 	 	 	 	1581543530	0.93	1.72
12/02/2020 21:38:51	120220	12022020	213851	81.24	12.275137	-56.990250	81.21	0.570	-0.990	1.710	81.16	-2.30	2.20	 	 	 	 	 	 	 	 	 	 	 	 	 	 	 	 	 	 	1581543531	1.00	1.85
12/02/2020 21:38:52	120220	12022020	213852	80.78	12.275133	-56.990252	80.72	0.530	-0.400	2.210	80.69	-1.70	2.60	 	 	 	 	 	 	 	 	 	 	 	 	 	 	 	 	 	 	1581543532	0.59	1.09
12/02/2020 21:38:53	120220	12022020	213853	80.41	12.275135	-56.990252	80.41	0.390	-0.070	2.200	80.38	-1.40	2.50	 	 	 	 	 	 	 	 	 	 	 	 	 	 	 	 	 	 	1581543533	0.12	0.22
12/02/2020 21:38:54	120220	12022020	213854	80.37	12.275138	-56.990250	80.39	0.210	0.060	1.670	80.38	-1.30	2.00	 	 	 	 	 	 	 	 	 	 	 	 	 	 	 	 	 	 	1581543534	0.76	1.41
12/02/2020 21:38:55	120220	12022020	213855	80.42	12.275142	-56.990250	80.42	-0.020	0.320	1.040	80.43	-1.00	1.30	 	 	 	 	 	 	 	 	 	 	 	 	 	 	 	 	 	 	1581543535	0.82	1.52
12/02/2020 21:38:56	120220	12022020	213856	80.43	12.275145	-56.990252	80.42	-0.330	0.810	0.430	80.44	-0.50	0.70	 	 	 	 	 	 	 	 	 	 	 	 	 	 	 	 	 	 	1581543536	0.79	1.46
12/02/2020 21:38:57	120220	12022020	213857	80.55	12.275148	-56.990257	80.56	-0.570	1.080	-0.320	80.60	-0.30	-0.00	 	 	 	 	 	 	 	 	 	 	 	 	 	 	 	 	 	 	1581543537	1.07	1.98
12/02/2020 21:38:58	120220	12022020	213858	80.81	12.275152	-56.990258	80.81	-0.500	0.540	-1.020	80.86	-1.00	-0.70	 	 	 	 	 	 	 	 	 	 	 	 	 	 	 	 	 	 	1581543538	1.04	1.93
12/02/2020 21:38:59	120220	12022020	213859	81.02	12.275157	-56.990255	81.01	-0.040	-0.790	-1.160	81.06	-2.40	-0.70	 	 	 	 	 	 	 	 	 	 	 	 	 	 	 	 	 	 	1581543539	1.00	1.85
12/02/2020 21:39:00	120220	12022020	213900	81.18	12.275155	-56.990248	81.16	0.440	-1.940	-0.690	81.20	-3.40	-0.20	 	 	 	 	 	 	 	 	 	 	 	 	 	 	 	 	 	 	1581543540	1.21	2.24
12/02/2020 21:39:01	120220	12022020	213901	81.17	12.275150	-56.990245	81.09	0.550	-1.910	0.340	81.13	-3.20	0.90	 	 	 	 	 	 	 	 	 	 	 	 	 	 	 	 	 	 	1581543541	1.32	2.44
12/02/2020 21:39:02	120220	12022020	213902	80.88	12.275142	-56.990248	80.79	0.290	-0.750	1.610	80.80	-1.90	2.20	1014.70	26.40	26.40	20.20	20.20	21.0	68.0	68.0	392.0	26.2	348.00	10.60	68.00	10.30	1867	12958.0	27.4	27.4	1581543542	1.83	3.39
12/02/2020 21:39:03	120220	12022020	213903	80.50	12.275135	-56.990252	80.44	-0.030	0.520	2.650	80.43	-0.70	3.10	 	 	 	 	 	 	 	 	 	 	 	 	 	 	 	 	 	 	1581543543	1.79	3.32
12/02/2020 21:39:04	120220	12022020	213904	80.22	12.275132	-56.990253	80.21	-0.160	1.110	3.100	80.18	-0.30	3.50	 	 	 	 	 	 	 	 	 	 	 	 	 	 	 	 	 	 	1581543544	0.79	1.46
12/02/2020 21:39:05	120220	12022020	213905	80.16	12.275133	-56.990253	80.17	-0.180	0.840	2.780	80.18	-0.60	3.10	 	 	 	 	 	 	 	 	 	 	 	 	 	 	 	 	 	 	1581543545	0.55	1.02
12/02/2020 21:39:06	120220	12022020	213906	80.34	12.275140	-56.990252	80.38	-0.190	0.070	1.790	80.39	-1.40	2.00	 	 	 	 	 	 	 	 	 	 	 	 	 	 	 	 	 	 	1581543546	1.51	2.80
12/02/2020 21:39:07	120220	12022020	213907	80.65	12.275148	-56.990250	80.69	-0.180	-0.610	0.640	80.73	-2.10	0.90	 	 	 	 	 	 	 	 	 	 	 	 	 	 	 	 	 	 	1581543547	1.66	3.07
12/02/2020 21:39:08	120220	12022020	213908	81.11	12.275153	-56.990250	81.19	-0.070	-0.840	-0.400	81.23	-2.20	-0.10	 	 	 	 	 	 	 	 	 	 	 	 	 	 	 	 	 	 	1581543548	1.19	2.20
12/02/2020 21:39:09	120220	12022020	213909	81.66	12.275157	-56.990250	81.70	0.070	-0.700	-1.110	81.75	-2.00	-0.80	 	 	 	 	 	 	 	 	 	 	 	 	 	 	 	 	 	 	1581543549	0.63	1.17
12/02/2020 21:39:10	120220	12022020	213910	81.91	12.275155	-56.990252	81.85	0.130	-0.470	-1.130	81.91	-1.80	-0.70	 	 	 	 	 	 	 	 	 	 	 	 	 	 	 	 	 	 	1581543550	0.22	0.41
12/02/2020 21:39:11	120220	12022020	213911	81.71	12.275152	-56.990250	81.57	0.150	-0.330	-0.390	81.62	-1.70	0.10	 	 	 	 	 	 	 	 	 	 	 	 	 	 	 	 	 	 	1581543551	0.83	1.54
12/02/2020 21:39:12	120220	12022020	213912	81.26	12.275147	-56.990248	81.14	0.180	-0.220	0.680	81.17	-1.60	1.20	 	 	 	 	 	 	 	 	 	 	 	 	 	 	 	 	 	 	1581543552	1.03	1.91
12/02/2020 21:39:13	120220	12022020	213913	80.85	12.275143	-56.990248	80.80	0.110	0.120	1.600	80.79	-1.20	2.10	 	 	 	 	 	 	 	 	 	 	 	 	 	 	 	 	 	 	1581543553	0.72	1.33
12/02/2020 21:39:14	120220	12022020	213914	80.70	12.275142	-56.990250	80.72	-0.190	0.630	2.040	80.71	-0.70	2.40	 	 	 	 	 	 	 	 	 	 	 	 	 	 	 	 	 	 	1581543554	0.61	1.13
12/02/2020 21:39:15	120220	12022020	213915	80.91	12.275142	-56.990253	80.97	-0.470	0.730	1.970	80.97	-0.70	2.30	 	 	 	 	 	 	 	 	 	 	 	 	 	 	 	 	 	 	1581543555	0.47	0.87
12/02/2020 21:39:16	120220	12022020	213916	81.22	12.275143	-56.990252	81.28	-0.400	0.010	1.720	81.27	-1.50	2.10	 	 	 	 	 	 	 	 	 	 	 	 	 	 	 	 	 	 	1581543556	0.44	0.81
12/02/2020 21:39:17	120220	12022020	213917	81.46	12.275145	-56.990247	81.50	-0.000	-1.180	1.510	81.50	-2.70	1.90	 	 	 	 	 	 	 	 	 	 	 	 	 	 	 	 	 	 	1581543557	1.09	2.02
12/02/2020 21:39:18	120220	12022020	213918	81.62	12.275145	-56.990242	81.65	0.420	-1.850	1.420	81.64	-3.20	1.80	 	 	 	 	 	 	 	 	 	 	 	 	 	 	 	 	 	 	1581543558	1.05	1.94
12/02/2020 21:39:19	120220	12022020	213919	81.70	12.275143	-56.990242	81.73	0.630	-1.400	1.410	81.71	-2.60	1.80	 	 	 	 	 	 	 	 	 	 	 	 	 	 	 	 	 	 	1581543559	0.42	0.78
12/02/2020 21:39:20	120220	12022020	213920	81.69	12.275143	-56.990243	81.69	0.530	-0.210	1.280	81.68	-1.40	1.60	 	 	 	 	 	 	 	 	 	 	 	 	 	 	 	 	 	 	1581543560	0.66	1.22
12/02/2020 21:39:21	120220	12022020	213921	81.62	12.275143	-56.990248	81.61	0.200	0.840	0.960	81.60	-0.40	1.30	 	 	 	 	 	 	 	 	 	 	 	 	 	 	 	 	 	 	1581543561	0.84	1.56
12/02/2020 21:39:22	120220	12022020	213922	81.51	12.275147	-56.990250	81.48	-0.120	1.210	0.620	81.48	-0.20	1.00	 	 	 	 	 	 	 	 	 	 	 	 	 	 	 	 	 	 	1581543562	0.71	1.31
12/02/2020 21:39:23	120220	12022020	213923	81.30	12.275150	-56.990248	81.24	-0.270	0.840	0.400	81.25	-0.60	0.80	 	 	 	 	 	 	 	 	 	 	 	 	 	 	 	 	 	 	1581543563	0.64	1.19
12/02/2020 21:39:24	120220	12022020	213924	81.05	12.275152	-56.990247	81.01	-0.300	0.140	0.260	81.01	-1.30	0.60	 	 	 	 	 	 	 	 	 	 	 	 	 	 	 	 	 	 	1581543564	0.73	1.35
12/02/2020 21:39:25	120220	12022020	213925	80.98	12.275155	-56.990245	80.98	-0.330	-0.430	0.100	81.00	-1.90	0.50	 	 	 	 	 	 	 	 	 	 	 	 	 	 	 	 	 	 	1581543565	0.63	1.17
12/02/2020 21:39:26	120220	12022020	213926	81.21	12.275157	-56.990245	81.29	-0.380	-0.720	0.000	81.29	-2.10	0.40	 	 	 	 	 	 	 	 	 	 	 	 	 	 	 	 	 	 	1581543566	0.36	0.67
12/02/2020 21:39:27	120220	12022020	213927	81.58	12.275155	-56.990245	81.66	-0.340	-0.860	0.270	81.64	-2.20	0.70	 	 	 	 	 	 	 	 	 	 	 	 	 	 	 	 	 	 	1581543567	0.32	0.59
12/02/2020 21:39:28	120220	12022020	213928	81.78	12.275150	-56.990245	81.83	-0.140	-1.010	0.920	81.80	-2.40	1.40	 	 	 	 	 	 	 	 	 	 	 	 	 	 	 	 	 	 	1581543568	1.07	1.98
12/02/2020 21:39:29	120220	12022020	213929	81.82	12.275145	-56.990242	81.85	0.190	-1.150	1.590	81.81	-2.50	2.10	 	 	 	 	 	 	 	 	 	 	 	 	 	 	 	 	 	 	1581543569	1.40	2.59
12/02/2020 21:39:30	120220	12022020	213930	81.68	12.275140	-56.990238	81.67	0.540	-0.930	2.170	81.63	-2.20	2.60	 	 	 	 	 	 	 	 	 	 	 	 	 	 	 	 	 	 	1581543570	1.18	2.19
12/02/2020 21:39:31	120220	12022020	213931	81.34	12.275137	-56.990238	81.32	0.690	-0.160	2.580	81.28	-1.40	3.00	 	 	 	 	 	 	 	 	 	 	 	 	 	 	 	 	 	 	1581543571	0.61	1.13
12/02/2020 21:39:32	120220	12022020	213932	81.06	12.275137	-56.990242	81.06	0.460	0.820	2.580	81.03	-0.40	2.90	 	 	 	 	 	 	 	 	 	 	 	 	 	 	 	 	 	 	1581543572	0.52	0.96
12/02/2020 21:39:33	120220	12022020	213933	81.06	12.275142	-56.990245	81.10	-0.050	1.390	1.890	81.10	0.00	2.10	 	 	 	 	 	 	 	 	 	 	 	 	 	 	 	 	 	 	1581543573	1.19	2.20
12/02/2020 21:39:34	120220	12022020	213934	81.32	12.275148	-56.990247	81.36	-0.520	1.110	0.650	81.38	-0.40	0.90	 	 	 	 	 	 	 	 	 	 	 	 	 	 	 	 	 	 	1581543574	1.64	3.04
12/02/2020 21:39:35	120220	12022020	213935	81.53	12.275155	-56.990247	81.52	-0.680	0.310	-0.370	81.56	-1.20	-0.10	 	 	 	 	 	 	 	 	 	 	 	 	 	 	 	 	 	 	1581543575	1.44	2.67
12/02/2020 21:39:36	120220	12022020	213936	81.63	12.275158	-56.990245	81.61	-0.530	-0.540	-0.900	81.65	-2.00	-0.50	 	 	 	 	 	 	 	 	 	 	 	 	 	 	 	 	 	 	1581543576	0.85	1.57
12/02/2020 21:39:37	120220	12022020	213937	81.79	12.275160	-56.990243	81.79	-0.200	-1.390	-0.980	81.83	-2.90	-0.60	 	 	 	 	 	 	 	 	 	 	 	 	 	 	 	 	 	 	1581543577	0.42	0.78
12/02/2020 21:39:38	120220	12022020	213938	81.90	12.275158	-56.990240	81.86	0.170	-1.990	-0.540	81.89	-3.40	-0.00	 	 	 	 	 	 	 	 	 	 	 	 	 	 	 	 	 	 	1581543578	0.78	1.44
12/02/2020 21:39:39	120220	12022020	213939	81.71	12.275153	-56.990238	81.63	0.390	-1.720	0.340	81.64	-2.90	0.90	 	 	 	 	 	 	 	 	 	 	 	 	 	 	 	 	 	 	1581543579	1.04	1.93
12/02/2020 21:39:40	120220	12022020	213940	81.41	12.275148	-56.990240	81.39	0.320	-0.450	1.230	81.37	-1.60	1.70	 	 	 	 	 	 	 	 	 	 	 	 	 	 	 	 	 	 	1581543580	1.29	2.39
12/02/2020 21:39:41	120220	12022020	213941	81.38	12.275143	-56.990245	81.44	0.110	0.850	1.700	81.41	-0.40	2.10	 	 	 	 	 	 	 	 	 	 	 	 	 	 	 	 	 	 	1581543581	1.37	2.54
12/02/2020 21:39:42	120220	12022020	213942	81.66	12.275143	-56.990247	81.77	0.020	1.260	1.750	81.73	-0.10	2.10	 	 	 	 	 	 	 	 	 	 	 	 	 	 	 	 	 	 	1581543582	0.53	0.98
12/02/2020 21:39:43	120220	12022020	213943	81.98	12.275145	-56.990247	82.05	0.130	0.850	1.710	82.02	-0.60	2.10	 	 	 	 	 	 	 	 	 	 	 	 	 	 	 	 	 	 	1581543583	0.43	0.80
12/02/2020 21:39:44	120220	12022020	213944	82.12	12.275147	-56.990243	82.15	0.260	0.040	1.580	82.13	-1.40	1.90	 	 	 	 	 	 	 	 	 	 	 	 	 	 	 	 	 	 	1581543584	0.81	1.50
12/02/2020 21:39:45	120220	12022020	213945	82.10	12.275150	-56.990242	82.09	0.200	-0.670	1.420	82.08	-2.10	1.80	 	 	 	 	 	 	 	 	 	 	 	 	 	 	 	 	 	 	1581543585	0.78	1.44
12/02/2020 21:39:46	120220	12022020	213946	81.98	12.275150	-56.990240	81.97	-0.080	-0.840	1.460	81.95	-2.20	1.90	 	 	 	 	 	 	 	 	 	 	 	 	 	 	 	 	 	 	1581543586	0.22	0.41
12/02/2020 21:39:47	120220	12022020	213947	81.84	12.275148	-56.990242	81.86	-0.440	-0.500	1.630	81.83	-1.80	2.00	 	 	 	 	 	 	 	 	 	 	 	 	 	 	 	 	 	 	1581543587	0.57	1.06
12/02/2020 21:39:48	120220	12022020	213948	81.87	12.275147	-56.990245	81.92	-0.570	-0.070	1.520	81.90	-1.40	1.90	 	 	 	 	 	 	 	 	 	 	 	 	 	 	 	 	 	 	1581543588	0.77	1.43
12/02/2020 21:39:49	120220	12022020	213949	82.06	12.275148	-56.990247	82.14	-0.310	-0.150	1.070	82.11	-1.60	1.40	 	 	 	 	 	 	 	 	 	 	 	 	 	 	 	 	 	 	1581543589	0.34	0.63
12/02/2020 21:39:50	120220	12022020	213950	82.21	12.275150	-56.990245	82.23	0.180	-0.750	0.720	82.22	-2.20	1.10	 	 	 	 	 	 	 	 	 	 	 	 	 	 	 	 	 	 	1581543590	0.72	1.33
12/02/2020 21:39:51	120220	12022020	213951	82.19	12.275152	-56.990242	82.19	0.540	-1.070	0.560	82.18	-2.40	0.90	 	 	 	 	 	 	 	 	 	 	 	 	 	 	 	 	 	 	1581543591	0.80	1.48
12/02/2020 21:39:52	120220	12022020	213952	82.20	12.275153	-56.990242	82.21	0.550	-0.570	0.390	82.22	-1.80	0.80	 	 	 	 	 	 	 	 	 	 	 	 	 	 	 	 	 	 	1581543592	0.26	0.48
12/02/2020 21:39:53	120220	12022020	213953	82.33	12.275155	-56.990245	82.34	0.260	0.370	0.210	82.35	-0.90	0.60	 	 	 	 	 	 	 	 	 	 	 	 	 	 	 	 	 	 	1581543593	0.77	1.43
12/02/2020 21:39:54	120220	12022020	213954	82.42	12.275155	-56.990248	82.43	-0.140	1.080	0.250	82.43	-0.20	0.70	 	 	 	 	 	 	 	 	 	 	 	 	 	 	 	 	 	 	1581543594	0.84	1.56
12/02/2020 21:39:55	120220	12022020	213955	82.41	12.275153	-56.990250	82.41	-0.480	1.120	0.580	82.40	-0.30	1.00	 	 	 	 	 	 	 	 	 	 	 	 	 	 	 	 	 	 	1581543595	0.48	0.89
12/02/2020 21:39:56	120220	12022020	213956	82.35	12.275153	-56.990250	82.38	-0.580	0.410	1.020	82.35	-1.10	1.50	 	 	 	 	 	 	 	 	 	 	 	 	 	 	 	 	 	 	1581543596	0.37	0.69
12/02/2020 21:39:57	120220	12022020	213957	82.38	12.275150	-56.990247	82.43	-0.460	-0.580	1.400	82.39	-2.10	1.80	 	 	 	 	 	 	 	 	 	 	 	 	 	 	 	 	 	 	1581543597	0.64	1.19
12/02/2020 21:39:58	120220	12022020	213958	82.41	12.275150	-56.990245	82.45	-0.190	-1.370	1.660	82.41	-2.80	2.10	 	 	 	 	 	 	 	 	 	 	 	 	 	 	 	 	 	 	1581543598	0.57	1.06
12/02/2020 21:39:59	120220	12022020	213959	82.37	12.275148	-56.990243	82.38	0.230	-1.710	1.940	82.34	-3.10	2.40	 	 	 	 	 	 	 	 	 	 	 	 	 	 	 	 	 	 	1581543599	0.43	0.80
12/02/2020 21:40:00	120220	12022020	214000	82.26	12.275147	-56.990243	82.28	0.680	-1.510	2.120	82.24	-2.80	2.50	 	 	 	 	 	 	 	 	 	 	 	 	 	 	 	 	 	 	1581543600	0.33	0.61
12/02/2020 21:40:01	120220	12022020	214001	82.26	12.275147	-56.990243	82.31	0.880	-0.670	2.060	82.28	-1.90	2.40	 	 	 	 	 	 	 	 	 	 	 	 	 	 	 	 	 	 	1581543601	0.19	0.35
12/02/2020 21:40:02	120220	12022020	214002	82.43	12.275147	-56.990247	82.51	0.550	0.480	1.740	82.49	-0.70	2.10	1014.70	26.30	26.40	20.20	20.20	18.0	69.0	68.0	393.0	26.2	347.00	11.00	68.00	10.70	1741	14297.0	27.4	27.4	1581543602	0.71	1.31
12/02/2020 21:40:03	120220	12022020	214003	82.71	12.275148	-56.990250	82.76	-0.150	1.320	1.270	82.76	0.00	1.60	 	 	 	 	 	 	 	 	 	 	 	 	 	 	 	 	 	 	1581543603	0.87	1.61
12/02/2020 21:40:04	120220	12022020	214004	82.80	12.275150	-56.990253	82.77	-0.710	1.360	0.930	82.78	-0.10	1.30	 	 	 	 	 	 	 	 	 	 	 	 	 	 	 	 	 	 	1581543604	0.50	0.93
12/02/2020 21:40:05	120220	12022020	214005	82.59	12.275152	-56.990252	82.53	-0.750	0.710	0.680	82.54	-0.80	1.00	 	 	 	 	 	 	 	 	 	 	 	 	 	 	 	 	 	 	1581543605	0.42	0.78
12/02/2020 21:40:06	120220	12022020	214006	82.46	12.275155	-56.990250	82.47	-0.370	-0.220	0.130	82.49	-1.70	0.40	 	 	 	 	 	 	 	 	 	 	 	 	 	 	 	 	 	 	1581543606	0.96	1.78
12/02/2020 21:40:07	120220	12022020	214007	82.77	12.275162	-56.990250	82.84	0.080	-1.030	-0.580	82.86	-2.50	-0.30	 	 	 	 	 	 	 	 	 	 	 	 	 	 	 	 	 	 	1581543607	1.19	2.20
12/02/2020 21:40:08	120220	12022020	214008	83.23	12.275163	-56.990248	83.25	0.260	-1.410	-0.700	83.28	-2.80	-0.20	 	 	 	 	 	 	 	 	 	 	 	 	 	 	 	 	 	 	1581543608	0.45	0.83
12/02/2020 21:40:09	120220	12022020	214009	83.33	12.275158	-56.990250	83.27	0.100	-1.180	0.050	83.30	-2.50	0.60	 	 	 	 	 	 	 	 	 	 	 	 	 	 	 	 	 	 	1581543609	0.88	1.63
12/02/2020 21:40:10	120220	12022020	214010	82.99	12.275152	-56.990250	82.89	-0.170	-0.540	1.220	82.88	-1.80	1.80	 	 	 	 	 	 	 	 	 	 	 	 	 	 	 	 	 	 	1581543610	1.73	3.20
12/02/2020 21:40:11	120220	12022020	214011	82.44	12.275145	-56.990253	82.37	-0.280	0.120	2.070	82.35	-1.20	2.50	 	 	 	 	 	 	 	 	 	 	 	 	 	 	 	 	 	 	1581543611	1.43	2.65
12/02/2020 21:40:12	120220	12022020	214012	82.17	12.275143	-56.990253	82.19	-0.130	0.450	2.210	82.17	-0.90	2.60	 	 	 	 	 	 	 	 	 	 	 	 	 	 	 	 	 	 	1581543612	0.50	0.93
12/02/2020 21:40:13	120220	12022020	214013	82.32	12.275143	-56.990253	82.38	0.180	0.210	1.910	82.37	-1.20	2.30	 	 	 	 	 	 	 	 	 	 	 	 	 	 	 	 	 	 	1581543613	0.34	0.63
12/02/2020 21:40:14	120220	12022020	214014	82.52	12.275147	-56.990250	82.53	0.480	-0.440	1.580	82.54	-1.90	1.90	 	 	 	 	 	 	 	 	 	 	 	 	 	 	 	 	 	 	1581543614	0.89	1.65
12/02/2020 21:40:15	120220	12022020	214015	82.62	12.275150	-56.990247	82.65	0.550	-0.810	1.150	82.65	-2.20	1.50	 	 	 	 	 	 	 	 	 	 	 	 	 	 	 	 	 	 	1581543615	0.95	1.76
12/02/2020 21:40:16	120220	12022020	214016	82.84	12.275153	-56.990248	82.87	0.370	-0.440	0.530	82.90	-1.70	0.80	 	 	 	 	 	 	 	 	 	 	 	 	 	 	 	 	 	 	1581543616	0.83	1.54
12/02/2020 21:40:17	120220	12022020	214017	83.13	12.275157	-56.990252	83.13	0.130	0.300	0.060	83.17	-1.00	0.40	 	 	 	 	 	 	 	 	 	 	 	 	 	 	 	 	 	 	1581543617	1.04	1.93
12/02/2020 21:40:18	120220	12022020	214018	83.17	12.275157	-56.990255	83.10	-0.020	0.640	0.100	83.12	-0.70	0.50	 	 	 	 	 	 	 	 	 	 	 	 	 	 	 	 	 	 	1581543618	0.64	1.19
12/02/2020 21:40:19	120220	12022020	214019	82.80	12.275155	-56.990255	82.69	-0.120	0.290	0.640	82.71	-1.20	1.10	 	 	 	 	 	 	 	 	 	 	 	 	 	 	 	 	 	 	1581543619	0.35	0.65
12/02/2020 21:40:20	120220	12022020	214020	82.40	12.275153	-56.990252	82.37	-0.360	-0.280	1.380	82.36	-1.70	1.90	 	 	 	 	 	 	 	 	 	 	 	 	 	 	 	 	 	 	1581543620	0.90	1.67
12/02/2020 21:40:21	120220	12022020	214021	82.39	12.275148	-56.990250	82.47	-0.720	-0.540	1.860	82.44	-1.90	2.30	 	 	 	 	 	 	 	 	 	 	 	 	 	 	 	 	 	 	1581543621	0.89	1.65
12/02/2020 21:40:22	120220	12022020	214022	82.74	12.275145	-56.990252	82.85	-0.910	-0.450	1.930	82.83	-1.80	2.30	 	 	 	 	 	 	 	 	 	 	 	 	 	 	 	 	 	 	1581543622	0.74	1.37
12/02/2020 21:40:23	120220	12022020	214023	83.13	12.275143	-56.990253	83.22	-0.740	-0.220	1.690	83.20	-1.50	2.00	 	 	 	 	 	 	 	 	 	 	 	 	 	 	 	 	 	 	1581543623	0.62	1.15
12/02/2020 21:40:24	120220	12022020	214024	83.37	12.275143	-56.990255	83.40	-0.190	-0.180	1.430	83.39	-1.60	1.80	 	 	 	 	 	 	 	 	 	 	 	 	 	 	 	 	 	 	1581543624	0.38	0.70
12/02/2020 21:40:25	120220	12022020	214025	83.35	12.275143	-56.990255	83.31	0.600	-0.520	1.300	83.32	-1.90	1.70	 	 	 	 	 	 	 	 	 	 	 	 	 	 	 	 	 	 	1581543625	0.19	0.35
12/02/2020 21:40:26	120220	12022020	214026	83.08	12.275145	-56.990252	83.00	1.250	-1.050	1.250	83.01	-2.40	1.60	 	 	 	 	 	 	 	 	 	 	 	 	 	 	 	 	 	 	1581543626	0.75	1.39
12/02/2020 21:40:27	120220	12022020	214027	82.78	12.275148	-56.990248	82.74	1.380	-1.200	1.080	82.74	-2.50	1.40	 	 	 	 	 	 	 	 	 	 	 	 	 	 	 	 	 	 	1581543627	0.95	1.76
12/02/2020 21:40:28	120220	12022020	214028	82.74	12.275152	-56.990248	82.76	0.920	-0.580	0.700	82.77	-1.80	1.00	 	 	 	 	 	 	 	 	 	 	 	 	 	 	 	 	 	 	1581543628	0.94	1.74
12/02/2020 21:40:29	120220	12022020	214029	83.00	12.275155	-56.990253	83.06	0.070	0.630	0.310	83.08	-0.50	0.70	 	 	 	 	 	 	 	 	 	 	 	 	 	 	 	 	 	 	1581543629	1.18	2.19
12/02/2020 21:40:30	120220	12022020	214030	83.40	12.275157	-56.990258	83.45	-0.800	1.560	0.160	83.47	0.30	0.60	 	 	 	 	 	 	 	 	 	 	 	 	 	 	 	 	 	 	1581543630	1.16	2.15
12/02/2020 21:40:31	120220	12022020	214031	83.68	12.275153	-56.990260	83.71	-1.230	1.460	0.320	83.72	0.00	0.80	 	 	 	 	 	 	 	 	 	 	 	 	 	 	 	 	 	 	1581543631	0.60	1.11
12/02/2020 21:40:32	120220	12022020	214032	83.85	12.275150	-56.990258	83.89	-1.040	0.380	0.670	83.88	-1.20	1.10	 	 	 	 	 	 	 	 	 	 	 	 	 	 	 	 	 	 	1581543632	0.93	1.72
12/02/2020 21:40:33	120220	12022020	214033	83.91	12.275147	-56.990253	83.90	-0.440	-0.940	1.290	83.90	-2.40	1.80	 	 	 	 	 	 	 	 	 	 	 	 	 	 	 	 	 	 	1581543633	1.45	2.69
12/02/2020 21:40:34	120220	12022020	214034	83.72	12.275140	-56.990250	83.67	0.130	-1.600	2.110	83.67	-2.90	2.60	 	 	 	 	 	 	 	 	 	 	 	 	 	 	 	 	 	 	1581543634	1.46	2.70
12/02/2020 21:40:35	120220	12022020	214035	83.45	12.275135	-56.990250	83.42	0.330	-1.280	2.690	83.41	-2.50	3.10	 	 	 	 	 	 	 	 	 	 	 	 	 	 	 	 	 	 	1581543635	1.08	2.00
12/02/2020 21:40:36	120220	12022020	214036	83.34	12.275133	-56.990253	83.35	0.220	-0.500	2.550	83.35	-1.70	2.90	 	 	 	 	 	 	 	 	 	 	 	 	 	 	 	 	 	 	1581543636	0.84	1.56
12/02/2020 21:40:37	120220	12022020	214037	83.46	12.275138	-56.990257	83.49	0.130	-0.000	1.780	83.50	-1.30	2.10	 	 	 	 	 	 	 	 	 	 	 	 	 	 	 	 	 	 	1581543637	1.15	2.13
12/02/2020 21:40:38	120220	12022020	214038	83.68	12.275145	-56.990258	83.67	0.310	-0.100	0.970	83.71	-1.50	1.30	 	 	 	 	 	 	 	 	 	 	 	 	 	 	 	 	 	 	1581543638	1.31	2.43
12/02/2020 21:40:39	120220	12022020	214039	83.76	12.275150	-56.990255	83.69	0.610	-0.460	0.410	83.74	-1.80	0.80	 	 	 	 	 	 	 	 	 	 	 	 	 	 	 	 	 	 	1581543639	1.22	2.26
12/02/2020 21:40:40	120220	12022020	214040	83.60	12.275153	-56.990253	83.48	0.710	-0.570	0.010	83.55	-1.90	0.40	 	 	 	 	 	 	 	 	 	 	 	 	 	 	 	 	 	 	1581543640	0.98	1.81
12/02/2020 21:40:41	120220	12022020	214041	83.38	12.275157	-56.990253	83.31	0.410	-0.210	-0.230	83.36	-1.40	0.20	 	 	 	 	 	 	 	 	 	 	 	 	 	 	 	 	 	 	1581543641	0.51	0.94
12/02/2020 21:40:42	120220	12022020	214042	83.44	12.275155	-56.990255	83.46	-0.210	0.560	-0.060	83.50	-0.60	0.40	 	 	 	 	 	 	 	 	 	 	 	 	 	 	 	 	 	 	1581543642	0.58	1.07
12/02/2020 21:40:43	120220	12022020	214043	83.88	12.275150	-56.990258	83.98	-0.770	1.180	0.350	84.00	-0.10	0.80	 	 	 	 	 	 	 	 	 	 	 	 	 	 	 	 	 	 	1581543643	1.22	2.26
12/02/2020 21:40:44	120220	12022020	214044	84.45	12.275145	-56.990260	84.53	-0.890	0.950	0.800	84.53	-0.50	1.30	 	 	 	 	 	 	 	 	 	 	 	 	 	 	 	 	 	 	1581543644	1.05	1.94
12/02/2020 21:40:45	120220	12022020	214045	84.62	12.275142	-56.990258	84.57	-0.480	-0.130	1.390	84.58	-1.60	1.90	 	 	 	 	 	 	 	 	 	 	 	 	 	 	 	 	 	 	1581543645	1.07	1.98
12/02/2020 21:40:46	120220	12022020	214046	84.19	12.275138	-56.990253	84.08	0.120	-1.250	2.170	84.07	-2.70	2.70	 	 	 	 	 	 	 	 	 	 	 	 	 	 	 	 	 	 	1581543646	1.25	2.31
12/02/2020 21:40:47	120220	12022020	214047	83.65	12.275135	-56.990252	83.60	0.490	-1.660	2.840	83.58	-3.00	3.30	 	 	 	 	 	 	 	 	 	 	 	 	 	 	 	 	 	 	1581543647	0.83	1.54
12/02/2020 21:40:48	120220	12022020	214048	83.50	12.275133	-56.990252	83.55	0.520	-1.210	3.040	83.54	-2.40	3.40	 	 	 	 	 	 	 	 	 	 	 	 	 	 	 	 	 	 	1581543648	0.31	0.57
12/02/2020 21:40:49	120220	12022020	214049	83.79	12.275135	-56.990255	83.87	0.300	-0.340	2.710	83.87	-1.50	3.00	 	 	 	 	 	 	 	 	 	 	 	 	 	 	 	 	 	 	1581543649	0.76	1.41
12/02/2020 21:40:50	120220	12022020	214050	84.08	12.275137	-56.990258	84.07	0.030	0.350	2.100	84.10	-0.90	2.40	 	 	 	 	 	 	 	 	 	 	 	 	 	 	 	 	 	 	1581543650	0.84	1.56
12/02/2020 21:40:51	120220	12022020	214051	83.99	12.275140	-56.990260	83.88	-0.060	0.370	1.350	83.93	-1.00	1.70	 	 	 	 	 	 	 	 	 	 	 	 	 	 	 	 	 	 	1581543651	0.77	1.43
12/02/2020 21:40:52	120220	12022020	214052	83.68	12.275145	-56.990258	83.57	0.080	-0.000	0.500	83.63	-1.40	0.80	 	 	 	 	 	 	 	 	 	 	 	 	 	 	 	 	 	 	1581543652	1.17	2.17
12/02/2020 21:40:53	120220	12022020	214053	83.58	12.275150	-56.990257	83.54	0.230	-0.210	-0.290	83.61	-1.50	0.00	 	 	 	 	 	 	 	 	 	 	 	 	 	 	 	 	 	 	1581543653	1.17	2.17
12/02/2020 21:40:54	120220	12022020	214054	83.84	12.275152	-56.990257	83.84	0.120	-0.020	-0.750	83.92	-1.30	-0.40	 	 	 	 	 	 	 	 	 	 	 	 	 	 	 	 	 	 	1581543654	0.58	1.07
12/02/2020 21:40:55	120220	12022020	214055	84.17	12.275152	-56.990260	84.12	-0.220	0.290	-0.710	84.20	-1.00	-0.30	 	 	 	 	 	 	 	 	 	 	 	 	 	 	 	 	 	 	1581543655	0.51	0.94
12/02/2020 21:40:56	120220	12022020	214056	84.19	12.275148	-56.990260	84.09	-0.470	0.230	-0.210	84.16	-1.20	0.30	 	 	 	 	 	 	 	 	 	 	 	 	 	 	 	 	 	 	1581543656	0.72	1.33
12/02/2020 21:40:57	120220	12022020	214057	83.96	12.275145	-56.990260	83.86	-0.460	-0.200	0.490	83.91	-1.60	1.00	 	 	 	 	 	 	 	 	 	 	 	 	 	 	 	 	 	 	1581543657	0.79	1.46
12/02/2020 21:40:58	120220	12022020	214058	83.71	12.275142	-56.990258	83.64	-0.270	-0.590	1.250	83.67	-2.00	1.80	 	 	 	 	 	 	 	 	 	 	 	 	 	 	 	 	 	 	1581543658	0.79	1.46
12/02/2020 21:40:59	120220	12022020	214059	83.58	12.275138	-56.990258	83.57	-0.040	-0.700	2.050	83.57	-2.00	2.50	 	 	 	 	 	 	 	 	 	 	 	 	 	 	 	 	 	 	1581543659	0.89	1.65
12/02/2020 21:41:00	120220	12022020	214100	83.54	12.275133	-56.990258	83.55	0.180	-0.660	2.780	83.54	-2.00	3.20	 	 	 	 	 	 	 	 	 	 	 	 	 	 	 	 	 	 	1581543660	1.05	1.94
12/02/2020 21:41:01	120220	12022020	214101	83.49	12.275128	-56.990258	83.48	0.440	-0.650	3.230	83.47	-2.00	3.70	 	 	 	 	 	 	 	 	 	 	 	 	 	 	 	 	 	 	1581543661	0.82	1.52
12/02/2020 21:41:02	120220	12022020	214102	83.37	12.275128	-56.990257	83.34	0.620	-0.570	3.200	83.34	-1.90	3.50	1014.70	26.30	26.40	20.30	20.30	17.0	69.0	69.0	392.0	26.1	346.00	10.80	69.00	10.40	1615	12002.0	27.4	27.4	1581543662	0.26	0.48
12/02/2020 21:41:03	120220	12022020	214103	83.24	12.275132	-56.990257	83.22	0.560	-0.330	2.560	83.24	-1.60	2.80	 	 	 	 	 	 	 	 	 	 	 	 	 	 	 	 	 	 	1581543663	0.67	1.24
12/02/2020 21:41:04	120220	12022020	214104	83.33	12.275137	-56.990258	83.34	0.180	0.080	1.580	83.37	-1.20	1.90	 	 	 	 	 	 	 	 	 	 	 	 	 	 	 	 	 	 	1581543664	1.17	2.17
12/02/2020 21:41:05	120220	12022020	214105	83.60	12.275140	-56.990262	83.64	-0.380	0.710	0.820	83.66	-0.50	1.10	 	 	 	 	 	 	 	 	 	 	 	 	 	 	 	 	 	 	1581543665	1.07	1.98
12/02/2020 21:41:06	120220	12022020	214106	83.84	12.275142	-56.990265	83.86	-0.800	1.200	0.400	83.88	-0.10	0.80	 	 	 	 	 	 	 	 	 	 	 	 	 	 	 	 	 	 	1581543666	0.95	1.76
12/02/2020 21:41:07	120220	12022020	214107	83.94	12.275142	-56.990268	83.90	-0.790	0.910	0.090	83.94	-0.60	0.40	 	 	 	 	 	 	 	 	 	 	 	 	 	 	 	 	 	 	1581543667	0.53	0.98
12/02/2020 21:41:08	120220	12022020	214108	83.84	12.275143	-56.990265	83.75	-0.280	-0.350	-0.090	83.79	-1.90	0.30	 	 	 	 	 	 	 	 	 	 	 	 	 	 	 	 	 	 	1581543668	0.50	0.93
12/02/2020 21:41:09	120220	12022020	214109	83.49	12.275143	-56.990260	83.33	0.390	-1.840	0.160	83.39	-3.30	0.60	 	 	 	 	 	 	 	 	 	 	 	 	 	 	 	 	 	 	1581543669	1.24	2.30
12/02/2020 21:41:10	120220	12022020	214110	82.97	12.275142	-56.990255	82.84	0.780	-2.380	0.760	82.89	-3.70	1.30	 	 	 	 	 	 	 	 	 	 	 	 	 	 	 	 	 	 	1581543670	1.00	1.85
12/02/2020 21:41:11	120220	12022020	214111	82.69	12.275140	-56.990257	82.66	0.710	-1.460	1.260	82.69	-2.60	1.70	 	 	 	 	 	 	 	 	 	 	 	 	 	 	 	 	 	 	1581543671	0.43	0.80
12/02/2020 21:41:12	120220	12022020	214112	82.95	12.275138	-56.990262	83.04	0.320	0.180	1.410	83.07	-0.90	1.80	 	 	 	 	 	 	 	 	 	 	 	 	 	 	 	 	 	 	1581543672	1.24	2.30
12/02/2020 21:41:13	120220	12022020	214113	83.62	12.275138	-56.990267	83.75	-0.220	1.370	1.370	83.76	0.10	1.80	 	 	 	 	 	 	 	 	 	 	 	 	 	 	 	 	 	 	1581543673	1.21	2.24
12/02/2020 21:41:14	120220	12022020	214114	84.17	12.275135	-56.990268	84.22	-0.660	1.480	1.360	84.23	0.10	1.80	 	 	 	 	 	 	 	 	 	 	 	 	 	 	 	 	 	 	1581543674	0.76	1.41
12/02/2020 21:41:15	120220	12022020	214115	84.23	12.275130	-56.990267	84.15	-0.720	0.700	1.550	84.16	-0.80	2.00	 	 	 	 	 	 	 	 	 	 	 	 	 	 	 	 	 	 	1581543675	1.06	1.96
12/02/2020 21:41:16	120220	12022020	214116	83.74	12.275127	-56.990263	83.62	-0.330	-0.280	2.040	83.60	-1.70	2.50	 	 	 	 	 	 	 	 	 	 	 	 	 	 	 	 	 	 	1581543676	1.19	2.20
12/02/2020 21:41:17	120220	12022020	214117	83.08	12.275125	-56.990260	83.00	0.190	-0.860	2.340	82.98	-2.20	2.70	 	 	 	 	 	 	 	 	 	 	 	 	 	 	 	 	 	 	1581543677	0.52	0.96
12/02/2020 21:41:18	120220	12022020	214118	82.76	12.275128	-56.990262	82.75	0.420	-0.920	2.070	82.74	-2.20	2.40	 	 	 	 	 	 	 	 	 	 	 	 	 	 	 	 	 	 	1581543678	0.68	1.26
12/02/2020 21:41:19	120220	12022020	214119	82.88	12.275133	-56.990263	82.95	0.260	-0.740	1.360	82.94	-2.00	1.60	 	 	 	 	 	 	 	 	 	 	 	 	 	 	 	 	 	 	1581543679	1.21	2.24
12/02/2020 21:41:20	120220	12022020	214120	83.28	12.275138	-56.990265	83.37	-0.000	-0.580	0.610	83.37	-1.90	0.90	 	 	 	 	 	 	 	 	 	 	 	 	 	 	 	 	 	 	1581543680	1.02	1.89
12/02/2020 21:41:21	120220	12022020	214121	83.65	12.275140	-56.990265	83.68	-0.080	-0.480	0.190	83.69	-1.80	0.60	 	 	 	 	 	 	 	 	 	 	 	 	 	 	 	 	 	 	1581543681	0.33	0.61
12/02/2020 21:41:22	120220	12022020	214122	83.75	12.275138	-56.990265	83.71	0.060	-0.330	0.190	83.73	-1.60	0.60	 	 	 	 	 	 	 	 	 	 	 	 	 	 	 	 	 	 	1581543682	0.35	0.65
12/02/2020 21:41:23	120220	12022020	214123	83.51	12.275135	-56.990263	83.41	0.210	-0.150	0.540	83.43	-1.50	1.00	 	 	 	 	 	 	 	 	 	 	 	 	 	 	 	 	 	 	1581543683	0.61	1.13
12/02/2020 21:41:24	120220	12022020	214124	83.10	12.275133	-56.990262	83.03	0.220	0.080	1.110	83.04	-1.20	1.60	 	 	 	 	 	 	 	 	 	 	 	 	 	 	 	 	 	 	1581543684	0.68	1.26
12/02/2020 21:41:25	120220	12022020	214125	82.91	12.275130	-56.990262	82.93	0.010	0.400	1.490	82.91	-0.90	1.90	 	 	 	 	 	 	 	 	 	 	 	 	 	 	 	 	 	 	1581543685	0.44	0.81
12/02/2020 21:41:26	120220	12022020	214126	83.01	12.275130	-56.990265	83.06	-0.360	0.760	1.500	83.05	-0.50	1.90	 	 	 	 	 	 	 	 	 	 	 	 	 	 	 	 	 	 	1581543686	0.48	0.89
12/02/2020 21:41:27	120220	12022020	214127	83.23	12.275130	-56.990267	83.27	-0.650	0.720	1.270	83.27	-0.70	1.60	 	 	 	 	 	 	 	 	 	 	 	 	 	 	 	 	 	 	1581543687	0.52	0.96
12/02/2020 21:41:28	120220	12022020	214128	83.33	12.275130	-56.990267	83.33	-0.540	-0.170	1.090	83.33	-1.70	1.50	 	 	 	 	 	 	 	 	 	 	 	 	 	 	 	 	 	 	1581543688	0.24	0.44
12/02/2020 21:41:29	120220	12022020	214129	83.28	12.275130	-56.990262	83.24	0.010	-1.390	1.030	83.25	-2.80	1.40	 	 	 	 	 	 	 	 	 	 	 	 	 	 	 	 	 	 	1581543689	1.05	1.94
12/02/2020 21:41:30	120220	12022020	214130	83.09	12.275132	-56.990257	83.02	0.680	-1.880	1.120	83.04	-3.20	1.50	 	 	 	 	 	 	 	 	 	 	 	 	 	 	 	 	 	 	1581543690	0.87	1.61
12/02/2020 21:41:31	120220	12022020	214131	82.84	12.275133	-56.990258	82.79	0.920	-1.180	1.290	82.80	-2.30	1.70	 	 	 	 	 	 	 	 	 	 	 	 	 	 	 	 	 	 	1581543691	0.27	0.50
12/02/2020 21:41:32	120220	12022020	214132	82.78	12.275133	-56.990262	82.81	0.410	0.220	1.410	82.81	-0.90	1.80	 	 	 	 	 	 	 	 	 	 	 	 	 	 	 	 	 	 	1581543692	1.05	1.94
12/02/2020 21:41:33	120220	12022020	214133	83.00	12.275130	-56.990268	83.05	-0.530	1.350	1.530	83.05	0.10	2.00	 	 	 	 	 	 	 	 	 	 	 	 	 	 	 	 	 	 	1581543693	1.38	2.56
12/02/2020 21:41:34	120220	12022020	214134	83.19	12.275127	-56.990270	83.21	-1.080	1.340	1.710	83.20	-0.10	2.10	 	 	 	 	 	 	 	 	 	 	 	 	 	 	 	 	 	 	1581543694	1.03	1.91
12/02/2020 21:41:35	120220	12022020	214135	83.11	12.275123	-56.990267	83.05	-0.680	0.130	1.870	83.07	-1.40	2.30	 	 	 	 	 	 	 	 	 	 	 	 	 	 	 	 	 	 	1581543695	1.06	1.96
12/02/2020 21:41:36	120220	12022020	214136	82.84	12.275123	-56.990260	82.78	0.270	-1.280	1.950	82.79	-2.70	2.40	 	 	 	 	 	 	 	 	 	 	 	 	 	 	 	 	 	 	1581543696	1.43	2.65
12/02/2020 21:41:37	120220	12022020	214137	82.69	12.275125	-56.990257	82.69	0.850	-1.680	1.870	82.71	-2.90	2.20	 	 	 	 	 	 	 	 	 	 	 	 	 	 	 	 	 	 	1581543697	0.87	1.61
12/02/2020 21:41:38	120220	12022020	214138	82.93	12.275127	-56.990260	83.01	0.610	-0.830	1.570	83.02	-2.00	1.90	 	 	 	 	 	 	 	 	 	 	 	 	 	 	 	 	 	 	1581543698	0.73	1.35
12/02/2020 21:41:39	120220	12022020	214139	83.44	12.275127	-56.990267	83.51	-0.060	0.360	1.190	83.54	-0.80	1.60	 	 	 	 	 	 	 	 	 	 	 	 	 	 	 	 	 	 	1581543699	1.37	2.54
12/02/2020 21:41:40	120220	12022020	214140	83.79	12.275127	-56.990270	83.78	-0.450	0.970	1.100	83.80	-0.40	1.50	 	 	 	 	 	 	 	 	 	 	 	 	 	 	 	 	 	 	1581543700	0.98	1.81
12/02/2020 21:41:41	120220	12022020	214141	83.75	12.275125	-56.990270	83.70	-0.310	0.700	1.280	83.71	-0.70	1.70	 	 	 	 	 	 	 	 	 	 	 	 	 	 	 	 	 	 	1581543701	0.34	0.63
12/02/2020 21:41:42	120220	12022020	214142	83.52	12.275125	-56.990268	83.47	0.030	0.040	1.430	83.47	-1.40	1.80	 	 	 	 	 	 	 	 	 	 	 	 	 	 	 	 	 	 	1581543702	0.46	0.85
12/02/2020 21:41:43	120220	12022020	214143	83.30	12.275125	-56.990267	83.25	0.200	-0.550	1.450	83.27	-1.90	1.90	 	 	 	 	 	 	 	 	 	 	 	 	 	 	 	 	 	 	1581543703	0.34	0.63
12/02/2020 21:41:44	120220	12022020	214144	83.16	12.275125	-56.990267	83.11	0.150	-0.950	1.520	83.13	-2.30	1.90	 	 	 	 	 	 	 	 	 	 	 	 	 	 	 	 	 	 	1581543704	0.25	0.46
12/02/2020 21:41:45	120220	12022020	214145	83.11	12.275127	-56.990265	83.10	0.060	-1.170	1.600	83.12	-2.50	2.00	 	 	 	 	 	 	 	 	 	 	 	 	 	 	 	 	 	 	1581543705	0.22	0.41
12/02/2020 21:41:46	120220	12022020	214146	83.24	12.275127	-56.990265	83.29	0.060	-1.010	1.460	83.30	-2.30	1.80	 	 	 	 	 	 	 	 	 	 	 	 	 	 	 	 	 	 	1581543706	0.18	0.33
12/02/2020 21:41:47	120220	12022020	214147	83.60	12.275127	-56.990267	83.66	0.080	-0.330	1.130	83.67	-1.50	1.50	 	 	 	 	 	 	 	 	 	 	 	 	 	 	 	 	 	 	1581543707	0.31	0.57
12/02/2020 21:41:48	120220	12022020	214148	84.00	12.275127	-56.990270	84.03	-0.030	0.630	0.830	84.06	-0.60	1.20	 	 	 	 	 	 	 	 	 	 	 	 	 	 	 	 	 	 	1581543708	0.78	1.44
12/02/2020 21:41:49	120220	12022020	214149	84.20	12.275127	-56.990273	84.19	-0.220	1.190	0.720	84.21	-0.10	1.10	 	 	 	 	 	 	 	 	 	 	 	 	 	 	 	 	 	 	1581543709	0.83	1.54
12/02/2020 21:41:50	120220	12022020	214150	84.12	12.275125	-56.990273	84.07	-0.280	0.810	0.780	84.08	-0.70	1.20	 	 	 	 	 	 	 	 	 	 	 	 	 	 	 	 	 	 	1581543710	0.16	0.30
12/02/2020 21:41:51	120220	12022020	214151	83.86	12.275125	-56.990270	83.78	-0.120	-0.290	1.070	83.79	-1.80	1.50	 	 	 	 	 	 	 	 	 	 	 	 	 	 	 	 	 	 	1581543711	0.74	1.37
12/02/2020 21:41:52	120220	12022020	214152	83.53	12.275123	-56.990267	83.45	0.120	-1.220	1.520	83.47	-2.60	2.00	 	 	 	 	 	 	 	 	 	 	 	 	 	 	 	 	 	 	1581543712	0.97	1.80
12/02/2020 21:41:53	120220	12022020	214153	83.30	12.275123	-56.990265	83.29	0.270	-1.280	1.830	83.29	-2.60	2.20	 	 	 	 	 	 	 	 	 	 	 	 	 	 	 	 	 	 	1581543713	0.38	0.70
12/02/2020 21:41:54	120220	12022020	214154	83.27	12.275123	-56.990267	83.25	0.280	-0.720	1.700	83.27	-2.00	2.10	 	 	 	 	 	 	 	 	 	 	 	 	 	 	 	 	 	 	1581543714	0.53	0.98
12/02/2020 21:41:55	120220	12022020	214155	83.25	12.275127	-56.990270	83.21	0.190	-0.170	1.320	83.24	-1.40	1.70	 	 	 	 	 	 	 	 	 	 	 	 	 	 	 	 	 	 	1581543715	0.83	1.54
12/02/2020 21:41:56	120220	12022020	214156	83.23	12.275128	-56.990272	83.20	0.050	0.110	0.950	83.23	-1.20	1.30	 	 	 	 	 	 	 	 	 	 	 	 	 	 	 	 	 	 	1581543716	0.59	1.09
12/02/2020 21:41:57	120220	12022020	214157	83.28	12.275130	-56.990272	83.27	-0.100	0.230	0.740	83.30	-1.10	1.10	 	 	 	 	 	 	 	 	 	 	 	 	 	 	 	 	 	 	1581543717	0.28	0.52
12/02/2020 21:41:58	120220	12022020	214158	83.43	12.275130	-56.990272	83.44	-0.230	0.280	0.700	83.46	-1.10	1.10	 	 	 	 	 	 	 	 	 	 	 	 	 	 	 	 	 	 	1581543718	0.09	0.17
12/02/2020 21:41:59	120220	12022020	214159	83.57	12.275130	-56.990272	83.58	-0.300	0.180	0.740	83.59	-1.20	1.10	 	 	 	 	 	 	 	 	 	 	 	 	 	 	 	 	 	 	1581543719	0.04	0.07
12/02/2020 21:42:00	120220	12022020	214200	83.59	12.275130	-56.990270	83.57	-0.290	-0.120	0.790	83.58	-1.50	1.20	 	 	 	 	 	 	 	 	 	 	 	 	 	 	 	 	 	 	1581543720	0.16	0.30
12/02/2020 21:42:01	120220	12022020	214201	83.49	12.275128	-56.990270	83.43	-0.170	-0.500	0.960	83.45	-1.90	1.40	 	 	 	 	 	 	 	 	 	 	 	 	 	 	 	 	 	 	1581543721	0.39	0.72
12/02/2020 21:42:02	120220	12022020	214202	83.24	12.275127	-56.990268	83.17	0.070	-0.750	1.380	83.17	-2.10	1.90	1014.70	26.30	26.40	20.30	20.30	15.0	69.0	69.0	393.0	26.1	348.00	11.50	71.00	11.10	1502	12574.0	27.4	27.4	1581543722	0.60	1.11
12/02/2020 21:42:03	120220	12022020	214203	82.87	12.275125	-56.990267	82.81	0.330	-0.750	1.900	82.81	-2.10	2.40	 	 	 	 	 	 	 	 	 	 	 	 	 	 	 	 	 	 	1581543723	0.57	1.06
12/02/2020 21:42:04	120220	12022020	214204	82.65	12.275123	-56.990265	82.62	0.430	-0.550	2.100	82.64	-1.80	2.50	 	 	 	 	 	 	 	 	 	 	 	 	 	 	 	 	 	 	1581543724	0.25	0.46
12/02/2020 21:42:05	120220	12022020	214205	82.70	12.275125	-56.990265	82.71	0.270	-0.180	1.750	82.74	-1.50	2.10	 	 	 	 	 	 	 	 	 	 	 	 	 	 	 	 	 	 	1581543725	0.35	0.65
12/02/2020 21:42:06	120220	12022020	214206	82.94	12.275128	-56.990267	82.97	-0.030	0.340	1.070	83.01	-0.90	1.40	 	 	 	 	 	 	 	 	 	 	 	 	 	 	 	 	 	 	1581543726	0.87	1.61
12/02/2020 21:42:07	120220	12022020	214207	83.26	12.275133	-56.990270	83.28	-0.350	0.790	0.360	83.32	-0.50	0.70	 	 	 	 	 	 	 	 	 	 	 	 	 	 	 	 	 	 	1581543727	1.13	2.09
12/02/2020 21:42:08	120220	12022020	214208	83.46	12.275137	-56.990272	83.42	-0.560	0.820	-0.000	83.46	-0.60	0.40	 	 	 	 	 	 	 	 	 	 	 	 	 	 	 	 	 	 	1581543728	0.85	1.57
12/02/2020 21:42:09	120220	12022020	214209	83.35	12.275137	-56.990272	83.26	-0.500	0.100	0.160	83.29	-1.40	0.60	 	 	 	 	 	 	 	 	 	 	 	 	 	 	 	 	 	 	1581543729	0.20	0.37
12/02/2020 21:42:10	120220	12022020	214210	83.03	12.275135	-56.990267	82.94	-0.080	-1.090	0.670	82.95	-2.60	1.20	 	 	 	 	 	 	 	 	 	 	 	 	 	 	 	 	 	 	1581543730	1.10	2.04
12/02/2020 21:42:11	120220	12022020	214211	82.69	12.275132	-56.990260	82.63	0.460	-1.990	1.280	82.64	-3.40	1.70	 	 	 	 	 	 	 	 	 	 	 	 	 	 	 	 	 	 	1581543731	1.43	2.65
12/02/2020 21:42:12	120220	12022020	214212	82.49	12.275130	-56.990258	82.46	0.680	-1.780	1.590	82.47	-3.00	2.00	 	 	 	 	 	 	 	 	 	 	 	 	 	 	 	 	 	 	1581543732	0.73	1.35
12/02/2020 21:42:13	120220	12022020	214213	82.52	12.275130	-56.990260	82.54	0.390	-0.420	1.470	82.56	-1.50	1.80	 	 	 	 	 	 	 	 	 	 	 	 	 	 	 	 	 	 	1581543733	0.66	1.22
12/02/2020 21:42:14	120220	12022020	214214	82.77	12.275132	-56.990267	82.81	-0.170	1.080	1.120	82.83	-0.10	1.50	 	 	 	 	 	 	 	 	 	 	 	 	 	 	 	 	 	 	1581543734	1.34	2.48
12/02/2020 21:42:15	120220	12022020	214215	83.06	12.275133	-56.990270	83.09	-0.550	1.650	0.730	83.10	0.30	1.10	 	 	 	 	 	 	 	 	 	 	 	 	 	 	 	 	 	 	1581543735	0.81	1.50
12/02/2020 21:42:16	120220	12022020	214216	83.21	12.275135	-56.990270	83.21	-0.510	1.060	0.490	83.22	-0.40	0.90	 	 	 	 	 	 	 	 	 	 	 	 	 	 	 	 	 	 	1581543736	0.44	0.81
12/02/2020 21:42:17	120220	12022020	214217	83.17	12.275135	-56.990265	83.12	-0.270	0.040	0.540	83.13	-1.40	1.00	 	 	 	 	 	 	 	 	 	 	 	 	 	 	 	 	 	 	1581543737	0.82	1.52
12/02/2020 21:42:18	120220	12022020	214218	82.89	12.275135	-56.990263	82.80	-0.090	-0.750	0.960	82.82	-2.20	1.40	 	 	 	 	 	 	 	 	 	 	 	 	 	 	 	 	 	 	1581543738	0.60	1.11
12/02/2020 21:42:19	120220	12022020	214219	82.49	12.275133	-56.990262	82.41	-0.010	-1.150	1.450	82.41	-2.50	1.90	 	 	 	 	 	 	 	 	 	 	 	 	 	 	 	 	 	 	1581543739	0.47	0.87
12/02/2020 21:42:20	120220	12022020	214220	82.21	12.275132	-56.990260	82.17	0.140	-1.290	1.660	82.17	-2.60	2.10	 	 	 	 	 	 	 	 	 	 	 	 	 	 	 	 	 	 	1581543740	0.32	0.59
12/02/2020 21:42:21	120220	12022020	214221	82.11	12.275133	-56.990258	82.10	0.460	-1.280	1.590	82.11	-2.60	2.00	 	 	 	 	 	 	 	 	 	 	 	 	 	 	 	 	 	 	1581543741	0.37	0.69
12/02/2020 21:42:22	120220	12022020	214222	82.17	12.275135	-56.990257	82.20	0.760	-1.020	1.360	82.22	-2.30	1.70	 	 	 	 	 	 	 	 	 	 	 	 	 	 	 	 	 	 	1581543742	0.65	1.20
12/02/2020 21:42:23	120220	12022020	214223	82.47	12.275138	-56.990257	82.55	0.650	-0.230	0.990	82.56	-1.40	1.40	 	 	 	 	 	 	 	 	 	 	 	 	 	 	 	 	 	 	1581543743	0.59	1.09
12/02/2020 21:42:24	120220	12022020	214224	82.88	12.275140	-56.990260	82.93	-0.000	0.980	0.690	82.94	-0.20	1.10	 	 	 	 	 	 	 	 	 	 	 	 	 	 	 	 	 	 	1581543744	0.75	1.39
12/02/2020 21:42:25	120220	12022020	214225	83.00	12.275138	-56.990265	82.95	-0.850	1.890	0.610	82.97	0.60	1.00	 	 	 	 	 	 	 	 	 	 	 	 	 	 	 	 	 	 	1581543745	1.03	1.91
12/02/2020 21:42:26	120220	12022020	214226	82.69	12.275137	-56.990267	82.57	-1.280	1.780	0.750	82.61	0.30	1.20	 	 	 	 	 	 	 	 	 	 	 	 	 	 	 	 	 	 	1581543746	0.65	1.20
12/02/2020 21:42:27	120220	12022020	214227	82.21	12.275135	-56.990265	82.10	-0.970	0.500	1.040	82.12	-1.10	1.50	 	 	 	 	 	 	 	 	 	 	 	 	 	 	 	 	 	 	1581543747	0.58	1.07
12/02/2020 21:42:28	120220	12022020	214228	81.82	12.275135	-56.990258	81.77	-0.190	-1.260	1.370	81.77	-2.80	1.80	 	 	 	 	 	 	 	 	 	 	 	 	 	 	 	 	 	 	1581543748	1.26	2.33
12/02/2020 21:42:29	120220	12022020	214229	81.63	12.275135	-56.990253	81.61	0.580	-2.520	1.520	81.62	-3.90	1.90	 	 	 	 	 	 	 	 	 	 	 	 	 	 	 	 	 	 	1581543749	1.22	2.26
12/02/2020 21:42:30	120220	12022020	214230	81.63	12.275138	-56.990250	81.65	1.030	-2.670	1.370	81.66	-3.90	1.70	 	 	 	 	 	 	 	 	 	 	 	 	 	 	 	 	 	 	1581543750	0.73	1.35
12/02/2020 21:42:31	120220	12022020	214231	81.71	12.275140	-56.990252	81.69	1.080	-1.650	1.100	81.71	-2.80	1.50	 	 	 	 	 	 	 	 	 	 	 	 	 	 	 	 	 	 	1581543751	0.57	1.06
12/02/2020 21:42:32	120220	12022020	214232	81.67	12.275142	-56.990255	81.64	0.680	0.060	0.880	81.66	-1.00	1.30	 	 	 	 	 	 	 	 	 	 	 	 	 	 	 	 	 	 	1581543752	0.95	1.76
12/02/2020 21:42:33	120220	12022020	214233	81.65	12.275143	-56.990262	81.65	-0.080	1.730	0.820	81.66	0.60	1.20	 	 	 	 	 	 	 	 	 	 	 	 	 	 	 	 	 	 	1581543753	1.26	2.33
12/02/2020 21:42:34	120220	12022020	214234	81.78	12.275142	-56.990265	81.82	-0.820	2.480	0.860	81.83	1.10	1.30	 	 	 	 	 	 	 	 	 	 	 	 	 	 	 	 	 	 	1581543754	0.92	1.70
12/02/2020 21:42:35	120220	12022020	214235	82.04	12.275140	-56.990265	82.08	-1.070	1.810	0.880	82.08	0.30	1.30	 	 	 	 	 	 	 	 	 	 	 	 	 	 	 	 	 	 	1581543755	0.28	0.52
12/02/2020 21:42:36	120220	12022020	214236	82.13	12.275140	-56.990260	82.10	-0.700	0.050	1.010	82.11	-1.60	1.50	 	 	 	 	 	 	 	 	 	 	 	 	 	 	 	 	 	 	1581543756	1.10	2.04
12/02/2020 21:42:37	120220	12022020	214237	81.83	12.275137	-56.990253	81.70	-0.000	-1.700	1.430	81.72	-3.20	1.90	 	 	 	 	 	 	 	 	 	 	 	 	 	 	 	 	 	 	1581543757	1.58	2.93
12/02/2020 21:42:38	120220	12022020	214238	81.15	12.275135	-56.990250	81.01	0.530	-2.330	2.110	81.02	-3.60	2.60	 	 	 	 	 	 	 	 	 	 	 	 	 	 	 	 	 	 	1581543758	1.07	1.98
12/02/2020 21:42:39	120220	12022020	214239	80.59	12.275133	-56.990250	80.53	0.680	-1.750	2.420	80.54	-2.90	2.80	 	 	 	 	 	 	 	 	 	 	 	 	 	 	 	 	 	 	1581543759	0.28	0.52
12/02/2020 21:42:40	120220	12022020	214240	80.46	12.275137	-56.990253	80.47	0.530	-0.750	2.040	80.48	-1.90	2.30	 	 	 	 	 	 	 	 	 	 	 	 	 	 	 	 	 	 	1581543760	1.02	1.89
12/02/2020 21:42:41	120220	12022020	214241	80.67	12.275142	-56.990257	80.70	0.240	0.070	1.260	80.74	-1.20	1.60	 	 	 	 	 	 	 	 	 	 	 	 	 	 	 	 	 	 	1581543761	1.34	2.48
12/02/2020 21:42:42	120220	12022020	214242	81.07	12.275147	-56.990258	81.10	-0.040	0.600	0.530	81.16	-0.70	0.90	 	 	 	 	 	 	 	 	 	 	 	 	 	 	 	 	 	 	1581543762	1.08	2.00
12/02/2020 21:42:43	120220	12022020	214243	81.41	12.275148	-56.990258	81.40	-0.200	0.790	0.190	81.44	-0.60	0.60	 	 	 	 	 	 	 	 	 	 	 	 	 	 	 	 	 	 	1581543763	0.38	0.70
12/02/2020 21:42:44	120220	12022020	214244	81.48	12.275147	-56.990257	81.43	-0.240	0.620	0.190	81.46	-0.80	0.60	 	 	 	 	 	 	 	 	 	 	 	 	 	 	 	 	 	 	1581543764	0.40	0.74
12/02/2020 21:42:45	120220	12022020	214245	81.35	12.275145	-56.990257	81.29	-0.250	0.330	0.360	81.32	-1.00	0.80	 	 	 	 	 	 	 	 	 	 	 	 	 	 	 	 	 	 	1581543765	0.62	1.15
12/02/2020 21:42:46	120220	12022020	214246	81.15	12.275142	-56.990255	81.09	-0.290	0.040	0.820	81.10	-1.30	1.30	 	 	 	 	 	 	 	 	 	 	 	 	 	 	 	 	 	 	1581543766	0.63	1.17
12/02/2020 21:42:47	120220	12022020	214247	80.85	12.275138	-56.990255	80.79	-0.360	-0.350	1.510	80.79	-1.80	2.00	 	 	 	 	 	 	 	 	 	 	 	 	 	 	 	 	 	 	1581543767	0.74	1.37
12/02/2020 21:42:48	120220	12022020	214248	80.47	12.275137	-56.990252	80.39	-0.280	-0.930	2.020	80.39	-2.30	2.50	 	 	 	 	 	 	 	 	 	 	 	 	 	 	 	 	 	 	1581543768	0.67	1.24
12/02/2020 21:42:49	120220	12022020	214249	80.10	12.275137	-56.990250	80.04	0.080	-1.350	2.010	80.05	-2.70	2.40	 	 	 	 	 	 	 	 	 	 	 	 	 	 	 	 	 	 	1581543769	0.52	0.96
12/02/2020 21:42:50	120220	12022020	214250	79.97	12.275142	-56.990250	79.97	0.550	-1.150	1.500	79.98	-2.40	1.80	 	 	 	 	 	 	 	 	 	 	 	 	 	 	 	 	 	 	1581543770	0.89	1.65
12/02/2020 21:42:51	120220	12022020	214251	80.12	12.275147	-56.990252	80.15	0.780	-0.500	0.980	80.17	-1.70	1.30	 	 	 	 	 	 	 	 	 	 	 	 	 	 	 	 	 	 	1581543771	1.12	2.07
12/02/2020 21:42:52	120220	12022020	214252	80.44	12.275148	-56.990253	80.50	0.610	0.100	0.680	80.52	-1.20	1.10	 	 	 	 	 	 	 	 	 	 	 	 	 	 	 	 	 	 	1581543772	0.60	1.11
12/02/2020 21:42:53	120220	12022020	214253	80.77	12.275148	-56.990253	80.80	0.210	0.370	0.620	80.80	-0.90	1.00	 	 	 	 	 	 	 	 	 	 	 	 	 	 	 	 	 	 	1581543773	0.17	0.31
12/02/2020 21:42:54	120220	12022020	214254	80.80	12.275145	-56.990252	80.74	-0.150	0.430	0.730	80.76	-0.90	1.20	 	 	 	 	 	 	 	 	 	 	 	 	 	 	 	 	 	 	1581543774	0.53	0.98
12/02/2020 21:42:55	120220	12022020	214255	80.45	12.275145	-56.990252	80.36	-0.380	0.530	0.910	80.36	-0.80	1.30	 	 	 	 	 	 	 	 	 	 	 	 	 	 	 	 	 	 	1581543775	0.29	0.54
12/02/2020 21:42:56	120220	12022020	214256	80.05	12.275143	-56.990252	79.99	-0.500	0.610	1.110	79.99	-0.70	1.50	 	 	 	 	 	 	 	 	 	 	 	 	 	 	 	 	 	 	1581543776	0.31	0.57
12/02/2020 21:42:57	120220	12022020	214257	79.80	12.275143	-56.990253	79.78	-0.530	0.300	1.360	79.77	-1.10	1.80	 	 	 	 	 	 	 	 	 	 	 	 	 	 	 	 	 	 	1581543777	0.25	0.46
12/02/2020 21:42:58	120220	12022020	214258	79.67	12.275142	-56.990252	79.67	-0.390	-0.540	1.540	79.67	-2.00	2.00	 	 	 	 	 	 	 	 	 	 	 	 	 	 	 	 	 	 	1581543778	0.41	0.76
12/02/2020 21:42:59	120220	12022020	214259	79.67	12.275142	-56.990248	79.68	-0.020	-1.450	1.520	79.67	-2.90	1.90	 	 	 	 	 	 	 	 	 	 	 	 	 	 	 	 	 	 	1581543779	0.77	1.43
12/02/2020 21:43:00	120220	12022020	214300	79.66	12.275143	-56.990245	79.65	0.460	-1.780	1.390	79.66	-3.10	1.80	 	 	 	 	 	 	 	 	 	 	 	 	 	 	 	 	 	 	1581543780	0.65	1.20
12/02/2020 21:43:01	120220	12022020	214301	79.60	12.275145	-56.990245	79.58	0.740	-1.200	1.200	79.59	-2.40	1.60	 	 	 	 	 	 	 	 	 	 	 	 	 	 	 	 	 	 	1581543781	0.32	0.59
12/02/2020 21:43:02	120220	12022020	214302	79.57	12.275147	-56.990248	79.58	0.620	-0.050	1.030	79.57	-1.20	1.40	1014.70	26.40	26.40	20.50	20.50	13.0	70.0	70.0	393.0	26.1	347.00	10.40	68.00	10.10	1388	12354.0	27.4	27.4	1581543782	0.71	1.31
12/02/2020 21:43:03	120220	12022020	214303	79.62	12.275145	-56.990252	79.62	0.210	0.900	1.060	79.62	-0.40	1.50	 	 	 	 	 	 	 	 	 	 	 	 	 	 	 	 	 	 	1581543783	0.70	1.30
12/02/2020 21:43:04	120220	12022020	214304	79.62	12.275143	-56.990252	79.62	-0.170	1.060	1.310	79.61	-0.30	1.80	 	 	 	 	 	 	 	 	 	 	 	 	 	 	 	 	 	 	1581543784	0.43	0.80
12/02/2020 21:43:05	120220	12022020	214305	79.48	12.275142	-56.990250	79.46	-0.360	0.530	1.500	79.44	-0.90	1.90	 	 	 	 	 	 	 	 	 	 	 	 	 	 	 	 	 	 	1581543785	0.59	1.09
12/02/2020 21:43:06	120220	12022020	214306	79.30	12.275143	-56.990247	79.29	-0.360	-0.090	1.360	79.28	-1.50	1.70	 	 	 	 	 	 	 	 	 	 	 	 	 	 	 	 	 	 	1581543786	0.55	1.02
12/02/2020 21:43:07	120220	12022020	214307	79.22	12.275145	-56.990247	79.22	-0.200	-0.450	1.070	79.21	-1.80	1.50	 	 	 	 	 	 	 	 	 	 	 	 	 	 	 	 	 	 	1581543787	0.47	0.87
12/02/2020 21:43:08	120220	12022020	214308	79.12	12.275147	-56.990247	79.09	0.010	-0.730	0.910	79.10	-2.10	1.30	 	 	 	 	 	 	 	 	 	 	 	 	 	 	 	 	 	 	1581543788	0.40	0.74
12/02/2020 21:43:09	120220	12022020	214309	79.06	12.275148	-56.990245	79.06	0.130	-0.910	0.830	79.06	-2.20	1.20	 	 	 	 	 	 	 	 	 	 	 	 	 	 	 	 	 	 	1581543789	0.36	0.67
12/02/2020 21:43:10	120220	12022020	214310	79.17	12.275150	-56.990245	79.20	0.140	-0.730	0.730	79.21	-2.00	1.10	 	 	 	 	 	 	 	 	 	 	 	 	 	 	 	 	 	 	1581543790	0.28	0.52
12/02/2020 21:43:11	120220	12022020	214311	79.38	12.275150	-56.990247	79.41	0.060	-0.250	0.760	79.42	-1.50	1.20	 	 	 	 	 	 	 	 	 	 	 	 	 	 	 	 	 	 	1581543791	0.28	0.52
12/02/2020 21:43:12	120220	12022020	214312	79.51	12.275148	-56.990248	79.50	-0.090	0.190	0.920	79.52	-1.10	1.40	 	 	 	 	 	 	 	 	 	 	 	 	 	 	 	 	 	 	1581543792	0.49	0.91
12/02/2020 21:43:13	120220	12022020	214313	79.45	12.275145	-56.990248	79.40	-0.230	0.330	1.190	79.42	-1.00	1.60	 	 	 	 	 	 	 	 	 	 	 	 	 	 	 	 	 	 	1581543793	0.77	1.43
12/02/2020 21:43:14	120220	12022020	214314	79.25	12.275142	-56.990245	79.20	-0.160	-0.020	1.530	79.21	-1.40	2.00	 	 	 	 	 	 	 	 	 	 	 	 	 	 	 	 	 	 	1581543794	0.84	1.56
12/02/2020 21:43:15	120220	12022020	214315	79.07	12.275142	-56.990242	79.05	0.140	-0.530	1.730	79.06	-1.90	2.10	 	 	 	 	 	 	 	 	 	 	 	 	 	 	 	 	 	 	1581543795	0.74	1.37
12/02/2020 21:43:16	120220	12022020	214316	79.09	12.275143	-56.990240	79.10	0.420	-0.690	1.500	79.12	-2.00	1.80	 	 	 	 	 	 	 	 	 	 	 	 	 	 	 	 	 	 	1581543796	0.71	1.31
12/02/2020 21:43:17	120220	12022020	214317	79.32	12.275148	-56.990242	79.33	0.460	-0.370	0.830	79.37	-1.60	1.20	 	 	 	 	 	 	 	 	 	 	 	 	 	 	 	 	 	 	1581543797	1.05	1.94
12/02/2020 21:43:18	120220	12022020	214318	79.45	12.275152	-56.990243	79.41	0.230	0.130	0.350	79.43	-1.20	0.70	 	 	 	 	 	 	 	 	 	 	 	 	 	 	 	 	 	 	1581543798	0.96	1.78
12/02/2020 21:43:19	120220	12022020	214319	79.26	12.275153	-56.990245	79.20	-0.170	0.370	0.460	79.21	-1.00	0.90	 	 	 	 	 	 	 	 	 	 	 	 	 	 	 	 	 	 	1581543799	0.29	0.54
12/02/2020 21:43:20	120220	12022020	214320	79.09	12.275152	-56.990245	79.11	-0.600	0.330	0.810	79.10	-1.00	1.20	 	 	 	 	 	 	 	 	 	 	 	 	 	 	 	 	 	 	1581543800	0.40	0.74
12/02/2020 21:43:21	120220	12022020	214321	79.29	12.275148	-56.990243	79.38	-0.840	0.130	0.920	79.37	-1.30	1.30	 	 	 	 	 	 	 	 	 	 	 	 	 	 	 	 	 	 	1581543801	0.38	0.70
12/02/2020 21:43:22	120220	12022020	214322	79.65	12.275148	-56.990243	79.72	-0.700	-0.240	0.930	79.70	-1.70	1.30	 	 	 	 	 	 	 	 	 	 	 	 	 	 	 	 	 	 	1581543802	0.27	0.50
12/02/2020 21:43:23	120220	12022020	214323	79.79	12.275147	-56.990242	79.80	-0.200	-0.750	1.100	79.78	-2.20	1.50	 	 	 	 	 	 	 	 	 	 	 	 	 	 	 	 	 	 	1581543803	0.53	0.98
12/02/2020 21:43:24	120220	12022020	214324	79.68	12.275143	-56.990238	79.65	0.460	-1.310	1.460	79.64	-2.70	1.90	 	 	 	 	 	 	 	 	 	 	 	 	 	 	 	 	 	 	1581543804	0.92	1.70
12/02/2020 21:43:25	120220	12022020	214325	79.44	12.275142	-56.990233	79.40	1.020	-1.550	1.840	79.38	-2.90	2.30	 	 	 	 	 	 	 	 	 	 	 	 	 	 	 	 	 	 	1581543805	1.05	1.94
12/02/2020 21:43:26	120220	12022020	214326	79.14	12.275142	-56.990232	79.10	1.180	-0.980	1.990	79.09	-2.10	2.40	 	 	 	 	 	 	 	 	 	 	 	 	 	 	 	 	 	 	1581543806	0.49	0.91
12/02/2020 21:43:27	120220	12022020	214327	79.01	12.275143	-56.990235	79.03	0.750	0.420	1.730	79.03	-0.70	2.10	 	 	 	 	 	 	 	 	 	 	 	 	 	 	 	 	 	 	1581543807	0.71	1.31
12/02/2020 21:43:28	120220	12022020	214328	79.26	12.275145	-56.990242	79.34	-0.200	1.790	1.140	79.33	0.60	1.50	 	 	 	 	 	 	 	 	 	 	 	 	 	 	 	 	 	 	1581543808	1.55	2.87
12/02/2020 21:43:29	120220	12022020	214329	79.65	12.275148	-56.990247	79.70	-1.220	2.120	0.580	79.71	0.70	0.90	 	 	 	 	 	 	 	 	 	 	 	 	 	 	 	 	 	 	1581543809	1.25	2.31
12/02/2020 21:43:30	120220	12022020	214330	79.88	12.275150	-56.990247	79.89	-1.680	1.140	0.330	79.90	-0.40	0.70	 	 	 	 	 	 	 	 	 	 	 	 	 	 	 	 	 	 	1581543810	0.32	0.59
12/02/2020 21:43:31	120220	12022020	214331	79.91	12.275150	-56.990242	79.89	-1.210	-0.530	0.390	79.90	-2.10	0.80	 	 	 	 	 	 	 	 	 	 	 	 	 	 	 	 	 	 	1581543811	0.86	1.59
12/02/2020 21:43:32	120220	12022020	214332	79.79	12.275148	-56.990237	79.76	-0.080	-1.930	0.660	79.77	-3.40	1.10	 	 	 	 	 	 	 	 	 	 	 	 	 	 	 	 	 	 	1581543812	1.03	1.91
12/02/2020 21:43:33	120220	12022020	214333	79.66	12.275147	-56.990233	79.64	1.010	-2.560	1.120	79.63	-3.90	1.60	 	 	 	 	 	 	 	 	 	 	 	 	 	 	 	 	 	 	1581543813	0.90	1.67
12/02/2020 21:43:34	120220	12022020	214334	79.57	12.275143	-56.990232	79.58	1.490	-2.270	1.690	79.56	-3.50	2.20	 	 	 	 	 	 	 	 	 	 	 	 	 	 	 	 	 	 	1581543814	0.77	1.43
12/02/2020 21:43:35	120220	12022020	214335	79.53	12.275140	-56.990233	79.53	1.190	-1.130	2.150	79.52	-2.20	2.60	 	 	 	 	 	 	 	 	 	 	 	 	 	 	 	 	 	 	1581543815	0.68	1.26
12/02/2020 21:43:36	120220	12022020	214336	79.52	12.275138	-56.990237	79.54	0.350	0.500	2.280	79.53	-0.60	2.70	 	 	 	 	 	 	 	 	 	 	 	 	 	 	 	 	 	 	1581543816	0.84	1.56
12/02/2020 21:43:37	120220	12022020	214337	79.59	12.275138	-56.990242	79.61	-0.550	2.010	1.950	79.60	0.80	2.30	 	 	 	 	 	 	 	 	 	 	 	 	 	 	 	 	 	 	1581543817	1.19	2.20
12/02/2020 21:43:38	120220	12022020	214338	79.71	12.275142	-56.990247	79.73	-1.030	2.630	1.210	79.74	1.20	1.50	 	 	 	 	 	 	 	 	 	 	 	 	 	 	 	 	 	 	1581543818	1.24	2.30
12/02/2020 21:43:39	120220	12022020	214339	79.95	12.275147	-56.990248	79.98	-0.900	1.730	0.250	80.00	0.10	0.50	 	 	 	 	 	 	 	 	 	 	 	 	 	 	 	 	 	 	1581543819	1.07	1.98
12/02/2020 21:43:40	120220	12022020	214340	80.18	12.275152	-56.990243	80.15	-0.350	-0.250	-0.470	80.20	-1.90	-0.10	 	 	 	 	 	 	 	 	 	 	 	 	 	 	 	 	 	 	1581543820	1.47	2.72
12/02/2020 21:43:41	120220	12022020	214341	80.15	12.275155	-56.990237	80.09	0.170	-2.080	-0.650	80.11	-3.60	-0.20	 	 	 	 	 	 	 	 	 	 	 	 	 	 	 	 	 	 	1581543821	1.42	2.63
12/02/2020 21:43:42	120220	12022020	214342	79.90	12.275155	-56.990233	79.84	0.440	-2.700	-0.310	79.85	-4.00	0.20	 	 	 	 	 	 	 	 	 	 	 	 	 	 	 	 	 	 	1581543822	0.66	1.22
12/02/2020 21:43:43	120220	12022020	214343	79.64	12.275152	-56.990235	79.61	0.490	-2.010	0.390	79.60	-3.20	0.90	 	 	 	 	 	 	 	 	 	 	 	 	 	 	 	 	 	 	1581543823	0.69	1.28
12/02/2020 21:43:44	120220	12022020	214344	79.56	12.275147	-56.990240	79.60	0.350	-0.580	1.110	79.58	-1.70	1.60	 	 	 	 	 	 	 	 	 	 	 	 	 	 	 	 	 	 	1581543824	1.25	2.31
12/02/2020 21:43:45	120220	12022020	214345	79.76	12.275143	-56.990243	79.86	0.040	0.740	1.490	79.82	-0.50	1.90	 	 	 	 	 	 	 	 	 	 	 	 	 	 	 	 	 	 	1581543825	1.24	2.30
12/02/2020 21:43:46	120220	12022020	214346	80.07	12.275142	-56.990247	80.14	-0.230	1.310	1.450	80.12	-0.00	1.80	 	 	 	 	 	 	 	 	 	 	 	 	 	 	 	 	 	 	1581543826	0.65	1.20
12/02/2020 21:43:47	120220	12022020	214347	80.21	12.275142	-56.990245	80.21	-0.210	0.900	1.410	80.21	-0.60	1.80	 	 	 	 	 	 	 	 	 	 	 	 	 	 	 	 	 	 	1581543827	0.23	0.43
12/02/2020 21:43:48	120220	12022020	214348	80.13	12.275142	-56.990242	80.12	0.070	-0.080	1.540	80.11	-1.50	1.90	 	 	 	 	 	 	 	 	 	 	 	 	 	 	 	 	 	 	1581543828	0.92	1.70
12/02/2020 21:43:49	120220	12022020	214349	80.09	12.275142	-56.990238	80.09	0.320	-0.670	1.540	80.09	-2.00	1.90	 	 	 	 	 	 	 	 	 	 	 	 	 	 	 	 	 	 	1581543829	0.70	1.30
12/02/2020 21:43:50	120220	12022020	214350	80.17	12.275143	-56.990238	80.19	0.310	-0.500	1.280	80.19	-1.80	1.60	 	 	 	 	 	 	 	 	 	 	 	 	 	 	 	 	 	 	1581543830	0.33	0.61
12/02/2020 21:43:51	120220	12022020	214351	80.20	12.275145	-56.990242	80.18	0.120	-0.150	1.030	80.18	-1.50	1.40	 	 	 	 	 	 	 	 	 	 	 	 	 	 	 	 	 	 	1581543831	0.79	1.46
12/02/2020 21:43:52	120220	12022020	214352	80.09	12.275147	-56.990243	80.06	-0.110	-0.200	0.980	80.07	-1.60	1.40	 	 	 	 	 	 	 	 	 	 	 	 	 	 	 	 	 	 	1581543832	0.46	0.85
12/02/2020 21:43:53	120220	12022020	214353	80.02	12.275147	-56.990242	80.03	-0.240	-0.490	1.090	80.03	-1.90	1.50	 	 	 	 	 	 	 	 	 	 	 	 	 	 	 	 	 	 	1581543833	0.21	0.39
12/02/2020 21:43:54	120220	12022020	214354	80.13	12.275147	-56.990242	80.18	-0.230	-0.610	1.060	80.17	-1.90	1.40	 	 	 	 	 	 	 	 	 	 	 	 	 	 	 	 	 	 	1581543834	0.26	0.48
12/02/2020 21:43:55	120220	12022020	214355	80.30	12.275145	-56.990242	80.32	-0.080	-0.440	0.960	80.31	-1.70	1.40	 	 	 	 	 	 	 	 	 	 	 	 	 	 	 	 	 	 	1581543835	0.19	0.35
12/02/2020 21:43:56	120220	12022020	214356	80.23	12.275145	-56.990242	80.20	0.120	-0.180	1.080	80.18	-1.50	1.50	 	 	 	 	 	 	 	 	 	 	 	 	 	 	 	 	 	 	1581543836	0.28	0.52
12/02/2020 21:43:57	120220	12022020	214357	80.01	12.275143	-56.990242	80.00	0.230	-0.010	1.330	79.98	-1.30	1.80	 	 	 	 	 	 	 	 	 	 	 	 	 	 	 	 	 	 	1581543837	0.31	0.57
12/02/2020 21:43:58	120220	12022020	214358	79.94	12.275143	-56.990242	79.97	0.110	0.150	1.370	79.95	-1.20	1.80	 	 	 	 	 	 	 	 	 	 	 	 	 	 	 	 	 	 	1581543838	0.07	0.13
12/02/2020 21:43:59	120220	12022020	214359	80.04	12.275145	-56.990243	80.07	-0.180	0.250	1.120	80.07	-1.10	1.50	 	 	 	 	 	 	 	 	 	 	 	 	 	 	 	 	 	 	1581543839	0.55	1.02
12/02/2020 21:44:00	120220	12022020	214400	80.13	12.275147	-56.990245	80.13	-0.330	0.080	0.840	80.13	-1.30	1.20	 	 	 	 	 	 	 	 	 	 	 	 	 	 	 	 	 	 	1581543840	0.49	0.91
12/02/2020 21:44:01	120220	12022020	214401	80.12	12.275148	-56.990243	80.10	-0.100	-0.450	0.640	80.11	-1.90	1.00	 	 	 	 	 	 	 	 	 	 	 	 	 	 	 	 	 	 	1581543841	0.33	0.61
12/02/2020 21:44:02	120220	12022020	214402	80.04	12.275148	-56.990240	80.00	0.420	-1.040	0.640	80.01	-2.40	1.10	1014.70	26.30	26.40	20.40	20.50	12.0	70.0	70.0	393.0	26.1	350.00	11.30	70.00	11.00	1279	12561.0	27.4	27.4	1581543842	0.70	1.30
12/02/2020 21:44:03	120220	12022020	214403	79.87	12.275148	-56.990238	79.84	0.750	-1.020	0.880	79.84	-2.30	1.30	 	 	 	 	 	 	 	 	 	 	 	 	 	 	 	 	 	 	1581543843	0.47	0.87
12/02/2020 21:44:04	120220	12022020	214404	79.78	12.275148	-56.990240	79.78	0.490	-0.180	1.040	79.78	-1.40	1.40	 	 	 	 	 	 	 	 	 	 	 	 	 	 	 	 	 	 	1581543844	0.49	0.91
12/02/2020 21:44:05	120220	12022020	214405	79.87	12.275148	-56.990245	79.90	-0.240	0.820	1.000	79.90	-0.40	1.40	 	 	 	 	 	 	 	 	 	 	 	 	 	 	 	 	 	 	1581543845	1.16	2.15
12/02/2020 21:44:06	120220	12022020	214406	80.02	12.275148	-56.990250	80.04	-0.860	1.010	0.940	80.04	-0.40	1.30	 	 	 	 	 	 	 	 	 	 	 	 	 	 	 	 	 	 	1581543846	0.74	1.37
12/02/2020 21:44:07	120220	12022020	214407	80.14	12.275148	-56.990248	80.16	-0.910	0.260	0.950	80.17	-1.20	1.40	 	 	 	 	 	 	 	 	 	 	 	 	 	 	 	 	 	 	1581543847	0.28	0.52
12/02/2020 21:44:08	120220	12022020	214408	80.22	12.275147	-56.990245	80.22	-0.410	-0.710	1.060	80.21	-2.20	1.50	 	 	 	 	 	 	 	 	 	 	 	 	 	 	 	 	 	 	1581543848	0.83	1.54
12/02/2020 21:44:09	120220	12022020	214409	80.12	12.275145	-56.990242	80.10	0.230	-1.140	1.390	80.08	-2.50	1.80	 	 	 	 	 	 	 	 	 	 	 	 	 	 	 	 	 	 	1581543849	0.73	1.35
12/02/2020 21:44:10	120220	12022020	214410	79.88	12.275142	-56.990242	79.84	0.610	-1.030	1.810	79.82	-2.30	2.20	 	 	 	 	 	 	 	 	 	 	 	 	 	 	 	 	 	 	1581543850	0.56	1.04
12/02/2020 21:44:11	120220	12022020	214411	79.66	12.275142	-56.990242	79.66	0.640	-0.730	1.890	79.64	-2.00	2.30	 	 	 	 	 	 	 	 	 	 	 	 	 	 	 	 	 	 	1581543851	0.17	0.31
12/02/2020 21:44:12	120220	12022020	214412	79.66	12.275143	-56.990243	79.68	0.420	-0.300	1.450	79.68	-1.60	1.80	 	 	 	 	 	 	 	 	 	 	 	 	 	 	 	 	 	 	1581543852	0.60	1.11
12/02/2020 21:44:13	120220	12022020	214413	79.82	12.275148	-56.990245	79.86	0.060	0.340	0.790	79.87	-0.90	1.10	 	 	 	 	 	 	 	 	 	 	 	 	 	 	 	 	 	 	1581543853	1.13	2.09
12/02/2020 21:44:14	120220	12022020	214414	80.14	12.275153	-56.990250	80.21	-0.340	0.950	0.170	80.23	-0.40	0.50	 	 	 	 	 	 	 	 	 	 	 	 	 	 	 	 	 	 	1581543854	1.26	2.33
12/02/2020 21:44:15	120220	12022020	214415	80.58	12.275155	-56.990252	80.63	-0.540	0.940	-0.270	80.66	-0.50	0.10	 	 	 	 	 	 	 	 	 	 	 	 	 	 	 	 	 	 	1581543855	0.76	1.41
12/02/2020 21:44:16	120220	12022020	214416	80.79	12.275155	-56.990250	80.76	-0.370	0.050	-0.240	80.78	-1.50	0.20	 	 	 	 	 	 	 	 	 	 	 	 	 	 	 	 	 	 	1581543856	0.40	0.74
12/02/2020 21:44:17	120220	12022020	214417	80.54	12.275152	-56.990245	80.44	0.050	-1.150	0.380	80.46	-2.60	0.90	 	 	 	 	 	 	 	 	 	 	 	 	 	 	 	 	 	 	1581543857	1.37	2.54
12/02/2020 21:44:18	120220	12022020	214418	80.07	12.275147	-56.990240	79.99	0.370	-1.660	1.310	79.99	-3.00	1.80	 	 	 	 	 	 	 	 	 	 	 	 	 	 	 	 	 	 	1581543858	1.35	2.50
12/02/2020 21:44:19	120220	12022020	214419	79.78	12.275143	-56.990242	79.79	0.290	-1.030	2.050	79.77	-2.20	2.50	 	 	 	 	 	 	 	 	 	 	 	 	 	 	 	 	 	 	1581543859	0.89	1.65
12/02/2020 21:44:20	120220	12022020	214420	79.92	12.275142	-56.990245	80.01	-0.020	0.060	2.110	79.99	-1.20	2.50	 	 	 	 	 	 	 	 	 	 	 	 	 	 	 	 	 	 	1581543860	1.04	1.93
12/02/2020 21:44:21	120220	12022020	214421	80.34	12.275143	-56.990250	80.42	-0.180	0.700	1.560	80.43	-0.60	1.90	 	 	 	 	 	 	 	 	 	 	 	 	 	 	 	 	 	 	1581543861	0.97	1.80
12/02/2020 21:44:22	120220	12022020	214422	80.76	12.275147	-56.990250	80.80	-0.020	0.610	0.950	80.83	-0.80	1.30	 	 	 	 	 	 	 	 	 	 	 	 	 	 	 	 	 	 	1581543862	0.90	1.67
12/02/2020 21:44:23	120220	12022020	214423	80.98	12.275150	-56.990248	80.96	0.220	0.070	0.700	80.98	-1.40	1.10	 	 	 	 	 	 	 	 	 	 	 	 	 	 	 	 	 	 	1581543863	0.75	1.39
12/02/2020 21:44:24	120220	12022020	214424	80.88	12.275150	-56.990247	80.81	0.250	-0.470	0.810	80.83	-1.90	1.20	 	 	 	 	 	 	 	 	 	 	 	 	 	 	 	 	 	 	1581543864	0.52	0.96
12/02/2020 21:44:25	120220	12022020	214425	80.60	12.275150	-56.990245	80.55	0.050	-0.710	1.010	80.56	-2.10	1.40	 	 	 	 	 	 	 	 	 	 	 	 	 	 	 	 	 	 	1581543865	0.40	0.74
12/02/2020 21:44:26	120220	12022020	214426	80.48	12.275148	-56.990245	80.49	-0.110	-0.680	1.050	80.49	-2.00	1.40	 	 	 	 	 	 	 	 	 	 	 	 	 	 	 	 	 	 	1581543866	0.21	0.39
12/02/2020 21:44:27	120220	12022020	214427	80.59	12.275148	-56.990245	80.64	-0.020	-0.530	0.970	80.63	-1.80	1.40	 	 	 	 	 	 	 	 	 	 	 	 	 	 	 	 	 	 	1581543867	0.04	0.07
12/02/2020 21:44:28	120220	12022020	214428	80.79	12.275150	-56.990245	80.84	0.120	-0.220	0.880	80.83	-1.50	1.30	 	 	 	 	 	 	 	 	 	 	 	 	 	 	 	 	 	 	1581543868	0.19	0.35
12/02/2020 21:44:29	120220	12022020	214429	80.96	12.275150	-56.990247	80.97	0.020	0.230	0.780	80.98	-1.10	1.20	 	 	 	 	 	 	 	 	 	 	 	 	 	 	 	 	 	 	1581543869	0.41	0.76
12/02/2020 21:44:30	120220	12022020	214430	80.99	12.275150	-56.990250	80.97	-0.250	0.490	0.680	80.99	-0.90	1.10	 	 	 	 	 	 	 	 	 	 	 	 	 	 	 	 	 	 	1581543870	0.43	0.80
12/02/2020 21:44:31	120220	12022020	214431	80.89	12.275150	-56.990250	80.86	-0.430	0.260	0.720	80.86	-1.10	1.20	 	 	 	 	 	 	 	 	 	 	 	 	 	 	 	 	 	 	1581543871	0.07	0.13
12/02/2020 21:44:32	120220	12022020	214432	80.72	12.275148	-56.990247	80.70	-0.360	-0.310	1.020	80.69	-1.70	1.50	 	 	 	 	 	 	 	 	 	 	 	 	 	 	 	 	 	 	1581543872	0.56	1.04
12/02/2020 21:44:33	120220	12022020	214433	80.61	12.275147	-56.990245	80.60	-0.130	-0.710	1.310	80.60	-2.10	1.70	 	 	 	 	 	 	 	 	 	 	 	 	 	 	 	 	 	 	1581543873	0.63	1.17
12/02/2020 21:44:34	120220	12022020	214434	80.61	12.275147	-56.990245	80.62	0.080	-0.630	1.340	80.63	-1.90	1.70	 	 	 	 	 	 	 	 	 	 	 	 	 	 	 	 	 	 	1581543874	0.12	0.22
12/02/2020 21:44:35	120220	12022020	214435	80.72	12.275148	-56.990247	80.73	0.240	-0.380	1.020	80.74	-1.70	1.40	 	 	 	 	 	 	 	 	 	 	 	 	 	 	 	 	 	 	1581543875	0.55	1.02
12/02/2020 21:44:36	120220	12022020	214436	80.83	12.275152	-56.990247	80.82	0.340	-0.310	0.650	80.84	-1.70	1.00	 	 	 	 	 	 	 	 	 	 	 	 	 	 	 	 	 	 	1581543876	0.76	1.41
12/02/2020 21:44:37	120220	12022020	214437	80.85	12.275153	-56.990247	80.83	0.390	-0.380	0.580	80.85	-1.70	1.00	 	 	 	 	 	 	 	 	 	 	 	 	 	 	 	 	 	 	1581543877	0.37	0.69
12/02/2020 21:44:38	120220	12022020	214438	80.86	12.275152	-56.990245	80.84	0.360	-0.360	0.770	80.86	-1.70	1.20	 	 	 	 	 	 	 	 	 	 	 	 	 	 	 	 	 	 	1581543878	0.37	0.69
12/02/2020 21:44:39	120220	12022020	214439	80.85	12.275150	-56.990245	80.82	0.230	-0.180	1.050	80.84	-1.50	1.50	 	 	 	 	 	 	 	 	 	 	 	 	 	 	 	 	 	 	1581543879	0.48	0.89
12/02/2020 21:44:40	120220	12022020	214440	80.74	12.275148	-56.990245	80.68	-0.050	0.110	1.270	80.70	-1.20	1.70	 	 	 	 	 	 	 	 	 	 	 	 	 	 	 	 	 	 	1581543880	0.24	0.44
12/02/2020 21:44:41	120220	12022020	214441	80.56	12.275150	-56.990247	80.52	-0.420	0.440	1.300	80.53	-0.90	1.70	 	 	 	 	 	 	 	 	 	 	 	 	 	 	 	 	 	 	1581543881	0.37	0.69
12/02/2020 21:44:42	120220	12022020	214442	80.50	12.275150	-56.990248	80.51	-0.730	0.650	1.220	80.51	-0.70	1.60	 	 	 	 	 	 	 	 	 	 	 	 	 	 	 	 	 	 	1581543882	0.55	1.02
12/02/2020 21:44:43	120220	12022020	214443	80.67	12.275150	-56.990250	80.72	-0.780	0.430	1.160	80.72	-1.00	1.60	 	 	 	 	 	 	 	 	 	 	 	 	 	 	 	 	 	 	1581543883	0.31	0.57
12/02/2020 21:44:44	120220	12022020	214444	80.92	12.275148	-56.990248	80.95	-0.450	-0.440	1.090	80.95	-1.90	1.50	 	 	 	 	 	 	 	 	 	 	 	 	 	 	 	 	 	 	1581543884	0.50	0.93
12/02/2020 21:44:45	120220	12022020	214445	81.00	12.275148	-56.990243	80.97	0.210	-1.530	1.010	80.98	-3.00	1.40	 	 	 	 	 	 	 	 	 	 	 	 	 	 	 	 	 	 	1581543885	1.03	1.91
12/02/2020 21:44:46	120220	12022020	214446	80.89	12.275148	-56.990240	80.86	0.860	-1.940	0.970	80.87	-3.20	1.40	 	 	 	 	 	 	 	 	 	 	 	 	 	 	 	 	 	 	1581543886	0.89	1.65
12/02/2020 21:44:47	120220	12022020	214447	80.82	12.275150	-56.990240	80.81	1.040	-1.100	1.010	80.83	-2.30	1.40	 	 	 	 	 	 	 	 	 	 	 	 	 	 	 	 	 	 	1581543887	0.28	0.52
12/02/2020 21:44:48	120220	12022020	214448	80.88	12.275150	-56.990245	80.90	0.580	0.360	1.160	80.90	-0.80	1.60	 	 	 	 	 	 	 	 	 	 	 	 	 	 	 	 	 	 	1581543888	1.08	2.00
12/02/2020 21:44:49	120220	12022020	214449	80.95	12.275148	-56.990250	80.97	-0.220	1.300	1.310	80.96	-0.00	1.70	 	 	 	 	 	 	 	 	 	 	 	 	 	 	 	 	 	 	1581543889	1.00	1.85
12/02/2020 21:44:50	120220	12022020	214450	80.92	12.275148	-56.990250	80.90	-0.800	1.290	1.370	80.90	-0.10	1.80	 	 	 	 	 	 	 	 	 	 	 	 	 	 	 	 	 	 	1581543890	0.26	0.48
12/02/2020 21:44:51	120220	12022020	214451	80.81	12.275148	-56.990250	80.79	-0.910	0.790	1.370	80.79	-0.70	1.80	 	 	 	 	 	 	 	 	 	 	 	 	 	 	 	 	 	 	1581543891	0.20	0.37
12/02/2020 21:44:52	120220	12022020	214452	80.79	12.275148	-56.990248	80.81	-0.680	0.120	1.310	80.80	-1.30	1.70	 	 	 	 	 	 	 	 	 	 	 	 	 	 	 	 	 	 	1581543892	0.18	0.33
12/02/2020 21:44:53	120220	12022020	214453	80.90	12.275150	-56.990248	80.94	-0.280	-0.750	1.190	80.93	-2.20	1.60	 	 	 	 	 	 	 	 	 	 	 	 	 	 	 	 	 	 	1581543893	0.28	0.52
12/02/2020 21:44:54	120220	12022020	214454	81.04	12.275150	-56.990245	81.06	0.180	-1.660	1.100	81.05	-3.10	1.50	 	 	 	 	 	 	 	 	 	 	 	 	 	 	 	 	 	 	1581543894	0.61	1.13
12/02/2020 21:44:55	120220	12022020	214455	81.02	12.275148	-56.990242	81.00	0.640	-2.100	1.200	81.00	-3.40	1.60	 	 	 	 	 	 	 	 	 	 	 	 	 	 	 	 	 	 	1581543895	0.70	1.30
12/02/2020 21:44:56	120220	12022020	214456	80.89	12.275148	-56.990240	80.88	0.990	-1.720	1.270	80.88	-2.90	1.70	 	 	 	 	 	 	 	 	 	 	 	 	 	 	 	 	 	 	1581543896	0.33	0.61
12/02/2020 21:44:57	120220	12022020	214457	80.91	12.275150	-56.990242	80.95	0.990	-0.580	1.170	80.95	-1.70	1.60	 	 	 	 	 	 	 	 	 	 	 	 	 	 	 	 	 	 	1581543897	0.24	0.44
12/02/2020 21:44:58	120220	12022020	214458	81.09	12.275150	-56.990245	81.12	0.430	1.030	1.030	81.12	-0.10	1.40	 	 	 	 	 	 	 	 	 	 	 	 	 	 	 	 	 	 	1581543898	0.93	1.72
12/02/2020 21:44:59	120220	12022020	214459	81.16	12.275150	-56.990252	81.14	-0.500	2.310	0.970	81.15	1.00	1.40	 	 	 	 	 	 	 	 	 	 	 	 	 	 	 	 	 	 	1581543899	1.30	2.41
12/02/2020 21:45:00	120220	12022020	214500	81.04	12.275150	-56.990255	80.99	-1.280	2.350	1.050	81.00	0.90	1.50	 	 	 	 	 	 	 	 	 	 	 	 	 	 	 	 	 	 	1581543900	0.76	1.41
12/02/2020 21:45:01	120220	12022020	214501	80.90	12.275148	-56.990253	80.88	-1.440	1.040	1.090	80.89	-0.60	1.50	 	 	 	 	 	 	 	 	 	 	 	 	 	 	 	 	 	 	1581543901	0.37	0.69
12/02/2020 21:45:02	120220	12022020	214502	80.91	12.275148	-56.990248	80.92	-0.840	-0.950	0.980	80.92	-2.60	1.40	1014.70	26.30	26.40	20.40	20.40	12.0	69.0	69.0	394.0	26.1	349.00	11.10	69.00	10.80	1176	12504.0	27.4	27.4	1581543902	1.10	2.04
12/02/2020 21:45:03	120220	12022020	214503	80.95	12.275150	-56.990243	80.94	0.150	-2.530	0.900	80.95	-4.00	1.30	 	 	 	 	 	 	 	 	 	 	 	 	 	 	 	 	 	 	1581543903	1.21	2.24
12/02/2020 21:45:04	120220	12022020	214504	80.91	12.275152	-56.990240	80.88	0.900	-2.800	1.010	80.90	-4.00	1.40	 	 	 	 	 	 	 	 	 	 	 	 	 	 	 	 	 	 	1581543904	0.52	0.96
12/02/2020 21:45:05	120220	12022020	214505	80.85	12.275150	-56.990243	80.84	1.030	-1.770	1.310	80.84	-2.90	1.80	 	 	 	 	 	 	 	 	 	 	 	 	 	 	 	 	 	 	1581543905	0.53	0.98
12/02/2020 21:45:06	120220	12022020	214506	80.79	12.275148	-56.990247	80.78	0.690	-0.390	1.660	80.78	-1.60	2.10	 	 	 	 	 	 	 	 	 	 	 	 	 	 	 	 	 	 	1581543906	0.92	1.70
12/02/2020 21:45:07	120220	12022020	214507	80.79	12.275147	-56.990248	80.83	0.220	0.700	1.820	80.81	-0.50	2.20	 	 	 	 	 	 	 	 	 	 	 	 	 	 	 	 	 	 	1581543907	0.66	1.22
12/02/2020 21:45:08	120220	12022020	214508	80.99	12.275145	-56.990250	81.06	-0.170	1.350	1.660	81.04	0.00	2.00	 	 	 	 	 	 	 	 	 	 	 	 	 	 	 	 	 	 	1581543908	0.30	0.56
12/02/2020 21:45:09	120220	12022020	214509	81.24	12.275147	-56.990250	81.28	-0.380	1.430	1.270	81.28	0.00	1.60	 	 	 	 	 	 	 	 	 	 	 	 	 	 	 	 	 	 	1581543909	0.16	0.30
12/02/2020 21:45:10	120220	12022020	214510	81.30	12.275148	-56.990250	81.24	-0.460	0.990	0.880	81.28	-0.50	1.20	 	 	 	 	 	 	 	 	 	 	 	 	 	 	 	 	 	 	1581543910	0.39	0.72
12/02/2020 21:45:11	120220	12022020	214511	81.13	12.275150	-56.990248	81.04	-0.450	0.250	0.620	81.07	-1.20	1.00	 	 	 	 	 	 	 	 	 	 	 	 	 	 	 	 	 	 	1581543911	0.53	0.98
12/02/2020 21:45:12	120220	12022020	214512	80.89	12.275152	-56.990248	80.82	-0.370	-0.660	0.520	80.85	-2.10	0.90	 	 	 	 	 	 	 	 	 	 	 	 	 	 	 	 	 	 	1581543912	0.53	0.98
12/02/2020 21:45:13	120220	12022020	214513	80.78	12.275153	-56.990245	80.76	-0.170	-1.580	0.560	80.78	-3.00	1.00	 	 	 	 	 	 	 	 	 	 	 	 	 	 	 	 	 	 	1581543913	0.57	1.06
12/02/2020 21:45:14	120220	12022020	214514	80.77	12.275152	-56.990242	80.76	0.100	-1.960	0.800	80.77	-3.30	1.20	 	 	 	 	 	 	 	 	 	 	 	 	 	 	 	 	 	 	1581543914	0.65	1.20
12/02/2020 21:45:15	120220	12022020	214515	80.82	12.275150	-56.990242	80.83	0.370	-1.420	0.920	80.84	-2.60	1.30	 	 	 	 	 	 	 	 	 	 	 	 	 	 	 	 	 	 	1581543915	0.37	0.69
12/02/2020 21:45:16	120220	12022020	214516	81.05	12.275150	-56.990245	81.09	0.530	-0.290	0.770	81.11	-1.50	1.10	 	 	 	 	 	 	 	 	 	 	 	 	 	 	 	 	 	 	1581543916	0.59	1.09
12/02/2020 21:45:17	120220	12022020	214517	81.33	12.275150	-56.990248	81.34	0.480	0.680	0.660	81.37	-0.60	1.10	 	 	 	 	 	 	 	 	 	 	 	 	 	 	 	 	 	 	1581543917	0.66	1.22
12/02/2020 21:45:18	120220	12022020	214518	81.41	12.275150	-56.990248	81.37	0.240	0.970	0.830	81.40	-0.40	1.30	 	 	 	 	 	 	 	 	 	 	 	 	 	 	 	 	 	 	1581543918	0.19	0.35
12/02/2020 21:45:19	120220	12022020	214519	81.27	12.275150	-56.990247	81.19	-0.090	0.700	1.280	81.22	-0.70	1.80	 	 	 	 	 	 	 	 	 	 	 	 	 	 	 	 	 	 	1581543919	0.46	0.85
12/02/2020 21:45:20	120220	12022020	214520	80.99	12.275145	-56.990245	80.92	-0.340	0.140	1.840	80.94	-1.30	2.30	 	 	 	 	 	 	 	 	 	 	 	 	 	 	 	 	 	 	1581543920	0.97	1.80
12/02/2020 21:45:21	120220	12022020	214521	80.73	12.275143	-56.990242	80.69	-0.340	-0.430	2.140	80.70	-1.80	2.50	 	 	 	 	 	 	 	 	 	 	 	 	 	 	 	 	 	 	1581543921	0.83	1.54
12/02/2020 21:45:22	120220	12022020	214522	80.61	12.275143	-56.990240	80.61	-0.100	-0.780	2.060	80.61	-2.10	2.40	 	 	 	 	 	 	 	 	 	 	 	 	 	 	 	 	 	 	1581543922	0.30	0.56
12/02/2020 21:45:23	120220	12022020	214523	80.64	12.275145	-56.990242	80.66	0.100	-0.760	1.770	80.66	-2.10	2.10	 	 	 	 	 	 	 	 	 	 	 	 	 	 	 	 	 	 	1581543923	0.47	0.87
12/02/2020 21:45:24	120220	12022020	214524	80.82	12.275147	-56.990242	80.85	0.060	-0.530	1.370	80.87	-1.80	1.70	 	 	 	 	 	 	 	 	 	 	 	 	 	 	 	 	 	 	1581543924	0.47	0.87
12/02/2020 21:45:25	120220	12022020	214525	81.09	12.275148	-56.990243	81.12	-0.140	-0.260	0.960	81.13	-1.60	1.30	 	 	 	 	 	 	 	 	 	 	 	 	 	 	 	 	 	 	1581543925	0.26	0.48
12/02/2020 21:45:26	120220	12022020	214526	81.24	12.275148	-56.990243	81.21	-0.200	-0.070	0.670	81.23	-1.40	1.00	 	 	 	 	 	 	 	 	 	 	 	 	 	 	 	 	 	 	1581543926	0.13	0.24
12/02/2020 21:45:27	120220	12022020	214527	81.06	12.275148	-56.990243	80.96	0.090	-0.140	0.570	81.00	-1.50	1.00	 	 	 	 	 	 	 	 	 	 	 	 	 	 	 	 	 	 	1581543927	0.17	0.31
12/02/2020 21:45:28	120220	12022020	214528	80.72	12.275148	-56.990242	80.64	0.530	-0.400	0.650	80.67	-1.80	1.10	 	 	 	 	 	 	 	 	 	 	 	 	 	 	 	 	 	 	1581543928	0.52	0.96
12/02/2020 21:45:29	120220	12022020	214529	80.51	12.275150	-56.990238	80.48	0.680	-0.470	0.780	80.50	-1.80	1.20	 	 	 	 	 	 	 	 	 	 	 	 	 	 	 	 	 	 	1581543929	0.49	0.91
12/02/2020 21:45:30	120220	12022020	214530	80.54	12.275150	-56.990240	80.55	0.320	-0.040	0.810	80.56	-1.30	1.20	 	 	 	 	 	 	 	 	 	 	 	 	 	 	 	 	 	 	1581543930	0.16	0.30
12/02/2020 21:45:31	120220	12022020	214531	80.69	12.275150	-56.990243	80.71	-0.310	0.620	0.740	80.72	-0.70	1.20	 	 	 	 	 	 	 	 	 	 	 	 	 	 	 	 	 	 	1581543931	0.77	1.43
12/02/2020 21:45:32	120220	12022020	214532	80.84	12.275152	-56.990247	80.87	-0.770	0.850	0.800	80.88	-0.50	1.20	 	 	 	 	 	 	 	 	 	 	 	 	 	 	 	 	 	 	1581543932	0.71	1.31
12/02/2020 21:45:33	120220	12022020	214533	81.04	12.275150	-56.990245	81.06	-0.730	0.210	0.970	81.07	-1.30	1.40	 	 	 	 	 	 	 	 	 	 	 	 	 	 	 	 	 	 	1581543933	0.24	0.44
12/02/2020 21:45:34	120220	12022020	214534	81.10	12.275147	-56.990242	81.09	-0.230	-0.950	1.380	81.08	-2.40	1.90	 	 	 	 	 	 	 	 	 	 	 	 	 	 	 	 	 	 	1581543934	1.10	2.04
12/02/2020 21:45:35	120220	12022020	214535	80.88	12.275143	-56.990237	80.83	0.350	-1.680	1.990	80.82	-3.00	2.50	 	 	 	 	 	 	 	 	 	 	 	 	 	 	 	 	 	 	1581543935	1.39	2.57
12/02/2020 21:45:36	120220	12022020	214536	80.61	12.275140	-56.990235	80.59	0.630	-1.430	2.410	80.57	-2.70	2.80	 	 	 	 	 	 	 	 	 	 	 	 	 	 	 	 	 	 	1581543936	0.88	1.63
12/02/2020 21:45:37	120220	12022020	214537	80.48	12.275138	-56.990237	80.50	0.520	-0.450	2.470	80.48	-1.70	2.90	 	 	 	 	 	 	 	 	 	 	 	 	 	 	 	 	 	 	1581543937	0.57	1.06
12/02/2020 21:45:38	120220	12022020	214538	80.52	12.275140	-56.990240	80.55	0.160	0.580	2.110	80.55	-0.70	2.40	 	 	 	 	 	 	 	 	 	 	 	 	 	 	 	 	 	 	1581543938	0.87	1.61
12/02/2020 21:45:39	120220	12022020	214539	80.73	12.275143	-56.990245	80.78	-0.230	1.120	1.230	80.78	-0.20	1.50	 	 	 	 	 	 	 	 	 	 	 	 	 	 	 	 	 	 	1581543939	1.15	2.13
12/02/2020 21:45:40	120220	12022020	214540	80.94	12.275148	-56.990245	80.92	-0.400	0.900	0.220	80.95	-0.60	0.50	 	 	 	 	 	 	 	 	 	 	 	 	 	 	 	 	 	 	1581543940	1.28	2.37
12/02/2020 21:45:41	120220	12022020	214541	80.92	12.275155	-56.990245	80.84	-0.250	0.040	-0.430	80.89	-1.50	-0.10	 	 	 	 	 	 	 	 	 	 	 	 	 	 	 	 	 	 	1581543941	1.27	2.35
12/02/2020 21:45:42	120220	12022020	214542	80.77	12.275158	-56.990242	80.69	-0.010	-0.840	-0.500	80.74	-2.30	-0.10	 	 	 	 	 	 	 	 	 	 	 	 	 	 	 	 	 	 	1581543942	0.98	1.81
12/02/2020 21:45:43	120220	12022020	214543	80.75	12.275158	-56.990240	80.75	0.040	-1.020	-0.160	80.78	-2.30	0.30	 	 	 	 	 	 	 	 	 	 	 	 	 	 	 	 	 	 	1581543943	0.19	0.35
12/02/2020 21:45:44	120220	12022020	214544	80.98	12.275155	-56.990242	81.01	-0.080	-0.620	0.270	81.04	-1.90	0.80	 	 	 	 	 	 	 	 	 	 	 	 	 	 	 	 	 	 	1581543944	0.82	1.52
12/02/2020 21:45:45	120220	12022020	214545	81.17	12.275150	-56.990243	81.16	-0.080	-0.380	0.850	81.17	-1.70	1.40	 	 	 	 	 	 	 	 	 	 	 	 	 	 	 	 	 	 	1581543945	1.09	2.02
12/02/2020 21:45:46	120220	12022020	214546	81.05	12.275145	-56.990242	81.00	0.150	-0.570	1.650	81.00	-2.00	2.20	 	 	 	 	 	 	 	 	 	 	 	 	 	 	 	 	 	 	1581543946	1.23	2.28
12/02/2020 21:45:47	120220	12022020	214547	80.80	12.275140	-56.990238	80.79	0.340	-0.620	2.350	80.78	-1.90	2.80	 	 	 	 	 	 	 	 	 	 	 	 	 	 	 	 	 	 	1581543947	1.08	2.00
12/02/2020 21:45:48	120220	12022020	214548	80.83	12.275140	-56.990238	80.89	0.190	-0.110	2.510	80.87	-1.40	2.90	 	 	 	 	 	 	 	 	 	 	 	 	 	 	 	 	 	 	1581543948	0.26	0.48
12/02/2020 21:45:49	120220	12022020	214549	81.09	12.275140	-56.990242	81.14	-0.200	0.760	2.220	81.15	-0.50	2.60	 	 	 	 	 	 	 	 	 	 	 	 	 	 	 	 	 	 	1581543949	0.89	1.65
12/02/2020 21:45:50	120220	12022020	214550	81.28	12.275143	-56.990247	81.27	-0.450	1.200	1.730	81.30	-0.20	2.10	 	 	 	 	 	 	 	 	 	 	 	 	 	 	 	 	 	 	1581543950	1.11	2.06
12/02/2020 21:45:51	120220	12022020	214551	81.29	12.275147	-56.990248	81.25	-0.310	0.560	1.120	81.28	-1.00	1.40	 	 	 	 	 	 	 	 	 	 	 	 	 	 	 	 	 	 	1581543951	0.77	1.43
12/02/2020 21:45:52	120220	12022020	214552	81.24	12.275152	-56.990243	81.22	0.150	-0.810	0.400	81.25	-2.40	0.70	 	 	 	 	 	 	 	 	 	 	 	 	 	 	 	 	 	 	1581543952	1.33	2.46
12/02/2020 21:45:53	120220	12022020	214553	81.33	12.275155	-56.990238	81.32	0.550	-1.770	-0.140	81.36	-3.20	0.20	 	 	 	 	 	 	 	 	 	 	 	 	 	 	 	 	 	 	1581543953	1.36	2.52
12/02/2020 21:45:54	120220	12022020	214554	81.48	12.275157	-56.990238	81.46	0.520	-1.480	-0.180	81.50	-2.70	0.30	 	 	 	 	 	 	 	 	 	 	 	 	 	 	 	 	 	 	1581543954	0.22	0.41
12/02/2020 21:45:55	120220	12022020	214555	81.53	12.275153	-56.990243	81.50	0.050	-0.320	0.140	81.52	-1.50	0.60	 	 	 	 	 	 	 	 	 	 	 	 	 	 	 	 	 	 	1581543955	1.05	1.94
12/02/2020 21:45:56	120220	12022020	214556	81.40	12.275152	-56.990247	81.33	-0.390	0.600	0.540	81.35	-0.70	1.00	 	 	 	 	 	 	 	 	 	 	 	 	 	 	 	 	 	 	1581543956	1.16	2.15
12/02/2020 21:45:57	120220	12022020	214557	81.16	12.275150	-56.990248	81.12	-0.450	0.670	0.800	81.13	-0.80	1.20	 	 	 	 	 	 	 	 	 	 	 	 	 	 	 	 	 	 	1581543957	0.28	0.52
12/02/2020 21:45:58	120220	12022020	214558	81.08	12.275150	-56.990247	81.09	-0.210	0.290	0.930	81.09	-1.10	1.40	 	 	 	 	 	 	 	 	 	 	 	 	 	 	 	 	 	 	1581543958	0.33	0.61
12/02/2020 21:45:59	120220	12022020	214559	81.24	12.275150	-56.990247	81.29	0.010	0.030	1.060	81.29	-1.40	1.50	 	 	 	 	 	 	 	 	 	 	 	 	 	 	 	 	 	 	1581543959	0.23	0.43
12/02/2020 21:46:00	120220	12022020	214600	81.49	12.275148	-56.990247	81.54	0.060	-0.100	1.340	81.52	-1.50	1.80	 	 	 	 	 	 	 	 	 	 	 	 	 	 	 	 	 	 	1581543960	0.53	0.98
12/02/2020 21:46:01	120220	12022020	214601	81.61	12.275145	-56.990247	81.62	0.010	-0.390	1.740	81.61	-1.80	2.20	 	 	 	 	 	 	 	 	 	 	 	 	 	 	 	 	 	 	1581543961	0.59	1.09
12/02/2020 21:46:02	120220	12022020	214602	81.50	12.275143	-56.990245	81.47	0.050	-0.920	2.070	81.45	-2.30	2.50	1014.70	26.30	26.30	20.20	20.30	10.0	69.0	69.0	394.0	26.1	346.00	11.70	67.00	11.40	1071	12145.0	27.5	27.4	1581543962	0.47	0.87
12/02/2020 21:46:03	120220	12022020	214603	81.26	12.275143	-56.990242	81.22	0.230	-1.290	2.160	81.21	-2.70	2.60	 	 	 	 	 	 	 	 	 	 	 	 	 	 	 	 	 	 	1581543963	0.58	1.07
12/02/2020 21:46:04	120220	12022020	214604	81.09	12.275145	-56.990242	81.10	0.410	-1.000	2.080	81.08	-2.30	2.50	 	 	 	 	 	 	 	 	 	 	 	 	 	 	 	 	 	 	1581543964	0.23	0.43
12/02/2020 21:46:05	120220	12022020	214605	81.13	12.275145	-56.990243	81.17	0.290	0.020	1.770	81.16	-1.20	2.10	 	 	 	 	 	 	 	 	 	 	 	 	 	 	 	 	 	 	1581543965	0.64	1.19
12/02/2020 21:46:06	120220	12022020	214606	81.33	12.275147	-56.990250	81.37	-0.150	1.180	1.180	81.38	-0.10	1.50	 	 	 	 	 	 	 	 	 	 	 	 	 	 	 	 	 	 	1581543966	1.40	2.59
12/02/2020 21:46:07	120220	12022020	214607	81.53	12.275150	-56.990257	81.54	-0.550	1.630	0.530	81.56	0.20	0.90	 	 	 	 	 	 	 	 	 	 	 	 	 	 	 	 	 	 	1581543967	1.36	2.52
12/02/2020 21:46:08	120220	12022020	214608	81.69	12.275153	-56.990257	81.69	-0.510	0.790	-0.150	81.73	-0.80	0.20	 	 	 	 	 	 	 	 	 	 	 	 	 	 	 	 	 	 	1581543968	0.83	1.54
12/02/2020 21:46:09	120220	12022020	214609	81.87	12.275157	-56.990252	81.83	-0.060	-0.990	-0.660	81.89	-2.60	-0.30	 	 	 	 	 	 	 	 	 	 	 	 	 	 	 	 	 	 	1581543969	1.32	2.44
12/02/2020 21:46:10	120220	12022020	214610	81.84	12.275158	-56.990245	81.74	0.440	-2.470	-0.560	81.79	-3.90	-0.10	 	 	 	 	 	 	 	 	 	 	 	 	 	 	 	 	 	 	1581543970	1.53	2.83
12/02/2020 21:46:11	120220	12022020	214611	81.47	12.275155	-56.990242	81.35	0.600	-2.440	0.180	81.38	-3.60	0.70	 	 	 	 	 	 	 	 	 	 	 	 	 	 	 	 	 	 	1581543971	0.92	1.70
12/02/2020 21:46:12	120220	12022020	214612	81.05	12.275150	-56.990245	80.98	0.310	-0.740	1.070	81.00	-1.80	1.60	 	 	 	 	 	 	 	 	 	 	 	 	 	 	 	 	 	 	1581543972	1.41	2.61
12/02/2020 21:46:13	120220	12022020	214613	81.00	12.275147	-56.990255	81.03	-0.270	1.420	1.520	81.05	0.30	1.90	 	 	 	 	 	 	 	 	 	 	 	 	 	 	 	 	 	 	1581543973	2.19	4.06
12/02/2020 21:46:14	120220	12022020	214614	81.38	12.275145	-56.990262	81.46	-0.730	2.370	1.330	81.48	1.00	1.70	 	 	 	 	 	 	 	 	 	 	 	 	 	 	 	 	 	 	1581543974	1.61	2.98
12/02/2020 21:46:15	120220	12022020	214615	81.82	12.275147	-56.990262	81.84	-0.680	1.420	0.960	81.88	-0.20	1.30	 	 	 	 	 	 	 	 	 	 	 	 	 	 	 	 	 	 	1581543975	0.29	0.54
12/02/2020 21:46:16	120220	12022020	214616	81.99	12.275148	-56.990257	81.98	-0.140	-0.570	0.860	82.00	-2.20	1.30	 	 	 	 	 	 	 	 	 	 	 	 	 	 	 	 	 	 	1581543976	1.39	2.57
12/02/2020 21:46:17	120220	12022020	214617	82.04	12.275148	-56.990248	82.01	0.520	-2.100	1.060	82.05	-3.60	1.50	 	 	 	 	 	 	 	 	 	 	 	 	 	 	 	 	 	 	1581543977	1.45	2.69
12/02/2020 21:46:18	120220	12022020	214618	82.03	12.275147	-56.990247	81.97	0.860	-2.150	1.380	82.00	-3.40	1.80	 	 	 	 	 	 	 	 	 	 	 	 	 	 	 	 	 	 	1581543978	0.43	0.80
12/02/2020 21:46:19	120220	12022020	214619	81.84	12.275145	-56.990252	81.77	0.590	-0.840	1.640	81.79	-2.00	2.10	 	 	 	 	 	 	 	 	 	 	 	 	 	 	 	 	 	 	1581543979	1.08	2.00
12/02/2020 21:46:20	120220	12022020	214620	81.66	12.275143	-56.990260	81.62	-0.110	0.730	1.620	81.65	-0.50	2.00	 	 	 	 	 	 	 	 	 	 	 	 	 	 	 	 	 	 	1581543980	1.72	3.19
12/02/2020 21:46:21	120220	12022020	214621	81.67	12.275143	-56.990265	81.65	-0.690	1.360	1.320	81.68	-0.00	1.70	 	 	 	 	 	 	 	 	 	 	 	 	 	 	 	 	 	 	1581543981	1.15	2.13
12/02/2020 21:46:22	120220	12022020	214622	81.76	12.275145	-56.990265	81.74	-0.690	0.670	0.940	81.78	-0.90	1.30	 	 	 	 	 	 	 	 	 	 	 	 	 	 	 	 	 	 	1581543982	0.33	0.61
12/02/2020 21:46:23	120220	12022020	214623	81.83	12.275148	-56.990260	81.80	-0.160	-0.710	0.700	81.83	-2.30	1.10	 	 	 	 	 	 	 	 	 	 	 	 	 	 	 	 	 	 	1581543983	1.21	2.24
12/02/2020 21:46:24	120220	12022020	214624	81.80	12.275148	-56.990255	81.76	0.390	-1.560	0.620	81.79	-2.90	1.00	 	 	 	 	 	 	 	 	 	 	 	 	 	 	 	 	 	 	1581543984	1.14	2.11
12/02/2020 21:46:25	120220	12022020	214625	81.76	12.275148	-56.990255	81.73	0.460	-1.020	0.640	81.76	-2.20	1.00	 	 	 	 	 	 	 	 	 	 	 	 	 	 	 	 	 	 	1581543985	0.16	0.30
12/02/2020 21:46:26	120220	12022020	214626	81.76	12.275147	-56.990262	81.73	0.090	0.390	0.620	81.77	-0.80	1.00	 	 	 	 	 	 	 	 	 	 	 	 	 	 	 	 	 	 	1581543986	1.46	2.70
12/02/2020 21:46:27	120220	12022020	214627	81.83	12.275147	-56.990270	81.81	-0.310	1.370	0.590	81.86	0.00	1.00	 	 	 	 	 	 	 	 	 	 	 	 	 	 	 	 	 	 	1581543987	1.63	3.02
12/02/2020 21:46:28	120220	12022020	214628	82.05	12.275148	-56.990272	82.06	-0.350	0.940	0.560	82.11	-0.60	1.00	 	 	 	 	 	 	 	 	 	 	 	 	 	 	 	 	 	 	1581543988	0.50	0.93
12/02/2020 21:46:29	120220	12022020	214629	82.32	12.275148	-56.990268	82.31	-0.000	-0.490	0.770	82.34	-2.10	1.20	 	 	 	 	 	 	 	 	 	 	 	 	 	 	 	 	 	 	1581543989	0.89	1.65
12/02/2020 21:46:30	120220	12022020	214630	82.29	12.275147	-56.990262	82.21	0.430	-1.670	1.310	82.23	-3.10	1.80	 	 	 	 	 	 	 	 	 	 	 	 	 	 	 	 	 	 	1581543990	1.29	2.39
12/02/2020 21:46:31	120220	12022020	214631	81.91	12.275142	-56.990260	81.80	0.670	-1.840	2.040	81.80	-3.20	2.50	 	 	 	 	 	 	 	 	 	 	 	 	 	 	 	 	 	 	1581543991	0.92	1.70
12/02/2020 21:46:32	120220	12022020	214632	81.38	12.275140	-56.990260	81.28	0.620	-1.160	2.580	81.28	-2.40	3.00	 	 	 	 	 	 	 	 	 	 	 	 	 	 	 	 	 	 	1581543992	0.61	1.13
12/02/2020 21:46:33	120220	12022020	214633	80.99	12.275138	-56.990263	80.95	0.260	-0.000	2.690	80.96	-1.20	3.10	 	 	 	 	 	 	 	 	 	 	 	 	 	 	 	 	 	 	1581543993	0.71	1.31
12/02/2020 21:46:34	120220	12022020	214634	81.01	12.275140	-56.990268	81.08	-0.320	1.160	2.290	81.07	-0.10	2.60	 	 	 	 	 	 	 	 	 	 	 	 	 	 	 	 	 	 	1581543994	1.05	1.94
12/02/2020 21:46:35	120220	12022020	214635	81.43	12.275142	-56.990273	81.52	-0.890	1.790	1.500	81.52	0.40	1.80	 	 	 	 	 	 	 	 	 	 	 	 	 	 	 	 	 	 	1581543995	1.19	2.20
12/02/2020 21:46:36	120220	12022020	214636	81.93	12.275145	-56.990277	82.00	-1.060	1.370	0.580	82.02	-0.20	0.90	 	 	 	 	 	 	 	 	 	 	 	 	 	 	 	 	 	 	1581543996	0.91	1.69
12/02/2020 21:46:37	120220	12022020	214637	82.34	12.275148	-56.990273	82.35	-0.690	-0.060	-0.240	82.39	-1.70	0.10	 	 	 	 	 	 	 	 	 	 	 	 	 	 	 	 	 	 	1581543997	0.86	1.59
12/02/2020 21:46:38	120220	12022020	214638	82.48	12.275150	-56.990268	82.43	0.030	-1.720	-0.630	82.46	-3.30	-0.20	 	 	 	 	 	 	 	 	 	 	 	 	 	 	 	 	 	 	1581543998	1.21	2.24
12/02/2020 21:46:39	120220	12022020	214639	82.18	12.275148	-56.990263	82.05	0.760	-2.520	-0.170	82.07	-3.90	0.40	 	 	 	 	 	 	 	 	 	 	 	 	 	 	 	 	 	 	1581543999	1.08	2.00
12/02/2020 21:46:40	120220	12022020	214640	81.57	12.275143	-56.990263	81.44	1.170	-1.940	0.870	81.45	-3.10	1.40	 	 	 	 	 	 	 	 	 	 	 	 	 	 	 	 	 	 	1581544000	1.00	1.85
12/02/2020 21:46:41	120220	12022020	214641	81.13	12.275140	-56.990267	81.10	1.050	-0.460	1.580	81.10	-1.60	2.00	 	 	 	 	 	 	 	 	 	 	 	 	 	 	 	 	 	 	1581544001	1.11	2.06
12/02/2020 21:46:42	120220	12022020	214642	81.18	12.275142	-56.990272	81.24	0.490	0.970	1.470	81.24	-0.30	1.80	 	 	 	 	 	 	 	 	 	 	 	 	 	 	 	 	 	 	1581544002	1.13	2.09
12/02/2020 21:46:43	120220	12022020	214643	81.59	12.275143	-56.990275	81.66	-0.230	1.550	1.020	81.68	0.20	1.40	 	 	 	 	 	 	 	 	 	 	 	 	 	 	 	 	 	 	1581544003	0.97	1.80
12/02/2020 21:46:44	120220	12022020	214644	81.95	12.275145	-56.990275	81.97	-0.770	1.180	0.870	81.99	-0.30	1.30	 	 	 	 	 	 	 	 	 	 	 	 	 	 	 	 	 	 	1581544004	0.31	0.57
12/02/2020 21:46:45	120220	12022020	214645	82.05	12.275143	-56.990272	82.03	-0.900	0.300	1.140	82.04	-1.20	1.60	 	 	 	 	 	 	 	 	 	 	 	 	 	 	 	 	 	 	1581544005	0.73	1.35
12/02/2020 21:46:46	120220	12022020	214646	81.95	12.275142	-56.990268	81.94	-0.650	-0.620	1.520	81.94	-2.10	2.00	 	 	 	 	 	 	 	 	 	 	 	 	 	 	 	 	 	 	1581544006	0.90	1.67
12/02/2020 21:46:47	120220	12022020	214647	81.91	12.275138	-56.990267	81.93	-0.220	-1.160	1.800	81.93	-2.60	2.20	 	 	 	 	 	 	 	 	 	 	 	 	 	 	 	 	 	 	1581544007	0.79	1.46
12/02/2020 21:46:48	120220	12022020	214648	81.98	12.275135	-56.990265	82.00	0.180	-1.140	1.910	81.99	-2.50	2.30	 	 	 	 	 	 	 	 	 	 	 	 	 	 	 	 	 	 	1581544008	0.67	1.24
12/02/2020 21:46:49	120220	12022020	214649	82.01	12.275133	-56.990267	82.00	0.420	-0.680	1.860	82.00	-2.00	2.20	 	 	 	 	 	 	 	 	 	 	 	 	 	 	 	 	 	 	1581544009	0.45	0.83
12/02/2020 21:46:50	120220	12022020	214650	81.96	12.275135	-56.990268	81.92	0.510	-0.230	1.650	81.95	-1.60	2.00	 	 	 	 	 	 	 	 	 	 	 	 	 	 	 	 	 	 	1581544010	0.39	0.72
12/02/2020 21:46:51	120220	12022020	214651	81.88	12.275137	-56.990268	81.83	0.480	-0.140	1.310	81.85	-1.50	1.70	 	 	 	 	 	 	 	 	 	 	 	 	 	 	 	 	 	 	1581544011	0.55	1.02
12/02/2020 21:46:52	120220	12022020	214652	81.71	12.275140	-56.990267	81.61	0.340	-0.200	0.920	81.66	-1.60	1.30	 	 	 	 	 	 	 	 	 	 	 	 	 	 	 	 	 	 	1581544012	0.85	1.57
12/02/2020 21:46:53	120220	12022020	214653	81.50	12.275145	-56.990265	81.41	0.130	-0.160	0.520	81.48	-1.50	0.90	 	 	 	 	 	 	 	 	 	 	 	 	 	 	 	 	 	 	1581544013	0.89	1.65
12/02/2020 21:46:54	120220	12022020	214654	81.52	12.275148	-56.990265	81.51	-0.060	0.040	0.170	81.56	-1.30	0.60	 	 	 	 	 	 	 	 	 	 	 	 	 	 	 	 	 	 	1581544014	0.71	1.31
12/02/2020 21:46:55	120220	12022020	214655	81.85	12.275148	-56.990267	81.90	-0.200	0.270	0.040	81.94	-1.10	0.50	 	 	 	 	 	 	 	 	 	 	 	 	 	 	 	 	 	 	1581544015	0.24	0.44
12/02/2020 21:46:56	120220	12022020	214656	82.23	12.275147	-56.990267	82.24	-0.330	0.340	0.320	82.29	-1.00	0.80	 	 	 	 	 	 	 	 	 	 	 	 	 	 	 	 	 	 	1581544016	0.53	0.98
12/02/2020 21:46:57	120220	12022020	214657	82.35	12.275142	-56.990265	82.31	-0.440	0.200	0.960	82.34	-1.20	1.50	 	 	 	 	 	 	 	 	 	 	 	 	 	 	 	 	 	 	1581544017	1.16	2.15
12/02/2020 21:46:58	120220	12022020	214658	82.16	12.275135	-56.990263	82.07	-0.460	-0.130	1.640	82.10	-1.50	2.10	 	 	 	 	 	 	 	 	 	 	 	 	 	 	 	 	 	 	1581544018	1.24	2.30
12/02/2020 21:46:59	120220	12022020	214659	81.80	12.275132	-56.990262	81.73	-0.330	-0.510	2.160	81.74	-1.90	2.60	 	 	 	 	 	 	 	 	 	 	 	 	 	 	 	 	 	 	1581544019	0.82	1.52
12/02/2020 21:47:00	120220	12022020	214700	81.59	12.275132	-56.990260	81.59	-0.070	-0.810	2.340	81.58	-2.20	2.70	 	 	 	 	 	 	 	 	 	 	 	 	 	 	 	 	 	 	1581544020	0.40	0.74
12/02/2020 21:47:01	120220	12022020	214701	81.66	12.275133	-56.990258	81.68	0.230	-0.990	2.110	81.69	-2.40	2.50	 	 	 	 	 	 	 	 	 	 	 	 	 	 	 	 	 	 	1581544021	0.47	0.87
12/02/2020 21:47:02	120220	12022020	214702	81.87	12.275135	-56.990257	81.88	0.510	-0.800	1.650	81.91	-2.10	2.00	1014.80	26.30	26.40	20.30	20.30	9.0	69.0	69.0	393.0	26.1	347.00	11.40	68.00	10.90	974	12069.0	27.4	27.4	1581544022	0.53	0.98
12/02/2020 21:47:03	120220	12022020	214703	82.04	12.275138	-56.990257	82.01	0.700	-0.330	1.120	82.05	-1.60	1.50	 	 	 	 	 	 	 	 	 	 	 	 	 	 	 	 	 	 	1581544023	0.58	1.07
12/02/2020 21:47:04	120220	12022020	214704	82.02	12.275142	-56.990258	81.93	0.650	0.090	0.620	81.99	-1.20	1.00	 	 	 	 	 	 	 	 	 	 	 	 	 	 	 	 	 	 	1581544024	0.75	1.39
12/02/2020 21:47:05	120220	12022020	214705	81.83	12.275145	-56.990257	81.73	0.270	0.290	0.330	81.79	-1.10	0.70	 	 	 	 	 	 	 	 	 	 	 	 	 	 	 	 	 	 	1581544025	0.82	1.52
12/02/2020 21:47:06	120220	12022020	214706	81.70	12.275147	-56.990257	81.64	-0.300	0.360	0.350	81.71	-1.00	0.80	 	 	 	 	 	 	 	 	 	 	 	 	 	 	 	 	 	 	1581544026	0.40	0.74
12/02/2020 21:47:07	120220	12022020	214707	81.83	12.275145	-56.990257	81.85	-0.750	0.460	0.600	81.90	-0.90	1.10	 	 	 	 	 	 	 	 	 	 	 	 	 	 	 	 	 	 	1581544027	0.39	0.72
12/02/2020 21:47:08	120220	12022020	214708	82.24	12.275142	-56.990257	82.29	-0.890	0.480	0.950	82.33	-0.90	1.40	 	 	 	 	 	 	 	 	 	 	 	 	 	 	 	 	 	 	1581544028	0.92	1.70
12/02/2020 21:47:09	120220	12022020	214709	82.61	12.275137	-56.990255	82.60	-0.670	0.050	1.340	82.64	-1.40	1.80	 	 	 	 	 	 	 	 	 	 	 	 	 	 	 	 	 	 	1581544029	1.04	1.93
12/02/2020 21:47:10	120220	12022020	214710	82.56	12.275133	-56.990252	82.44	-0.160	-0.830	1.820	82.48	-2.30	2.30	 	 	 	 	 	 	 	 	 	 	 	 	 	 	 	 	 	 	1581544030	1.16	2.15
12/02/2020 21:47:11	120220	12022020	214711	82.02	12.275130	-56.990247	81.85	0.400	-1.580	2.390	81.88	-3.00	2.90	 	 	 	 	 	 	 	 	 	 	 	 	 	 	 	 	 	 	1581544031	1.22	2.26
12/02/2020 21:47:12	120220	12022020	214712	81.44	12.275128	-56.990243	81.36	0.730	-1.610	2.730	81.37	-2.90	3.20	 	 	 	 	 	 	 	 	 	 	 	 	 	 	 	 	 	 	1581544032	0.73	1.35
12/02/2020 21:47:13	120220	12022020	214713	81.35	12.275132	-56.990243	81.38	0.710	-0.800	2.470	81.40	-2.00	2.80	 	 	 	 	 	 	 	 	 	 	 	 	 	 	 	 	 	 	1581544033	0.42	0.78
12/02/2020 21:47:14	120220	12022020	214714	81.74	12.275135	-56.990248	81.82	0.390	0.390	1.670	81.84	-0.80	2.00	 	 	 	 	 	 	 	 	 	 	 	 	 	 	 	 	 	 	1581544034	1.17	2.17
12/02/2020 21:47:15	120220	12022020	214715	82.22	12.275140	-56.990252	82.23	-0.040	1.240	0.720	82.29	-0.10	1.00	 	 	 	 	 	 	 	 	 	 	 	 	 	 	 	 	 	 	1581544035	1.39	2.57
12/02/2020 21:47:16	120220	12022020	214716	82.42	12.275145	-56.990253	82.35	-0.390	1.280	-0.010	82.42	-0.20	0.40	 	 	 	 	 	 	 	 	 	 	 	 	 	 	 	 	 	 	1581544036	1.07	1.98
12/02/2020 21:47:17	120220	12022020	214717	82.35	12.275147	-56.990252	82.25	-0.580	0.640	-0.250	82.33	-0.90	0.20	 	 	 	 	 	 	 	 	 	 	 	 	 	 	 	 	 	 	1581544037	0.58	1.07
12/02/2020 21:47:18	120220	12022020	214718	82.19	12.275147	-56.990248	82.08	-0.500	-0.350	-0.070	82.15	-1.90	0.40	 	 	 	 	 	 	 	 	 	 	 	 	 	 	 	 	 	 	1581544038	0.67	1.24
12/02/2020 21:47:19	120220	12022020	214719	82.00	12.275143	-56.990245	81.91	-0.160	-1.310	0.360	81.96	-2.80	0.90	 	 	 	 	 	 	 	 	 	 	 	 	 	 	 	 	 	 	1581544039	1.07	1.98
12/02/2020 21:47:20	120220	12022020	214720	81.78	12.275140	-56.990240	81.69	0.230	-1.810	0.990	81.73	-3.20	1.50	 	 	 	 	 	 	 	 	 	 	 	 	 	 	 	 	 	 	1581544040	1.16	2.15
12/02/2020 21:47:21	120220	12022020	214721	81.46	12.275137	-56.990238	81.36	0.420	-1.530	1.650	81.40	-2.80	2.10	 	 	 	 	 	 	 	 	 	 	 	 	 	 	 	 	 	 	1581544041	0.90	1.67
12/02/2020 21:47:22	120220	12022020	214722	81.27	12.275135	-56.990240	81.25	0.300	-0.610	1.860	81.28	-1.80	2.30	 	 	 	 	 	 	 	 	 	 	 	 	 	 	 	 	 	 	1581544042	0.43	0.80
12/02/2020 21:47:23	120220	12022020	214723	81.54	12.275137	-56.990243	81.60	-0.000	0.570	1.380	81.65	-0.60	1.70	 	 	 	 	 	 	 	 	 	 	 	 	 	 	 	 	 	 	1581544043	0.84	1.56
12/02/2020 21:47:24	120220	12022020	214724	82.12	12.275140	-56.990247	82.17	-0.260	1.370	0.670	82.22	0.00	1.00	 	 	 	 	 	 	 	 	 	 	 	 	 	 	 	 	 	 	1581544044	1.07	1.98
12/02/2020 21:47:25	120220	12022020	214725	82.47	12.275142	-56.990248	82.43	-0.360	1.230	0.360	82.49	-0.20	0.80	 	 	 	 	 	 	 	 	 	 	 	 	 	 	 	 	 	 	1581544045	0.37	0.69
12/02/2020 21:47:26	120220	12022020	214726	82.33	12.275140	-56.990245	82.19	-0.320	0.320	0.500	82.25	-1.20	1.00	 	 	 	 	 	 	 	 	 	 	 	 	 	 	 	 	 	 	1581544046	0.62	1.15
12/02/2020 21:47:27	120220	12022020	214727	81.85	12.275140	-56.990242	81.72	-0.170	-0.700	0.860	81.76	-2.20	1.30	 	 	 	 	 	 	 	 	 	 	 	 	 	 	 	 	 	 	1581544047	0.88	1.63
12/02/2020 21:47:28	120220	12022020	214728	81.46	12.275138	-56.990238	81.38	0.090	-1.280	1.190	81.42	-2.70	1.60	 	 	 	 	 	 	 	 	 	 	 	 	 	 	 	 	 	 	1581544048	0.53	0.98
12/02/2020 21:47:29	120220	12022020	214729	81.40	12.275140	-56.990238	81.40	0.350	-1.370	1.360	81.43	-2.70	1.80	 	 	 	 	 	 	 	 	 	 	 	 	 	 	 	 	 	 	1581544049	0.28	0.52
12/02/2020 21:47:30	120220	12022020	214730	81.60	12.275142	-56.990238	81.62	0.420	-1.100	1.360	81.65	-2.40	1.80	 	 	 	 	 	 	 	 	 	 	 	 	 	 	 	 	 	 	1581544050	0.26	0.48
12/02/2020 21:47:31	120220	12022020	214731	81.89	12.275142	-56.990238	81.92	0.170	-0.390	1.350	81.95	-1.60	1.80	 	 	 	 	 	 	 	 	 	 	 	 	 	 	 	 	 	 	1581544051	0.23	0.43
12/02/2020 21:47:32	120220	12022020	214732	82.19	12.275137	-56.990242	82.20	-0.250	0.640	1.510	82.23	-0.60	2.00	 	 	 	 	 	 	 	 	 	 	 	 	 	 	 	 	 	 	1581544052	1.04	1.93
12/02/2020 21:47:33	120220	12022020	214733	82.28	12.275133	-56.990245	82.23	-0.490	1.270	1.750	82.26	-0.10	2.20	 	 	 	 	 	 	 	 	 	 	 	 	 	 	 	 	 	 	1581544053	1.18	2.19
12/02/2020 21:47:34	120220	12022020	214734	82.07	12.275130	-56.990245	81.97	-0.360	0.810	1.930	82.00	-0.70	2.40	 	 	 	 	 	 	 	 	 	 	 	 	 	 	 	 	 	 	1581544054	0.47	0.87
12/02/2020 21:47:35	120220	12022020	214735	81.74	12.275132	-56.990240	81.64	0.040	-0.520	1.880	81.68	-2.10	2.30	 	 	 	 	 	 	 	 	 	 	 	 	 	 	 	 	 	 	1581544055	1.07	1.98
12/02/2020 21:47:36	120220	12022020	214736	81.49	12.275135	-56.990233	81.42	0.450	-1.650	1.660	81.46	-3.10	2.10	 	 	 	 	 	 	 	 	 	 	 	 	 	 	 	 	 	 	1581544056	1.48	2.74
12/02/2020 21:47:37	120220	12022020	214737	81.46	12.275138	-56.990232	81.45	0.610	-1.630	1.340	81.49	-2.90	1.70	 	 	 	 	 	 	 	 	 	 	 	 	 	 	 	 	 	 	1581544057	0.86	1.59
12/02/2020 21:47:38	120220	12022020	214738	81.66	12.275142	-56.990237	81.68	0.390	-0.440	0.840	81.72	-1.60	1.20	 	 	 	 	 	 	 	 	 	 	 	 	 	 	 	 	 	 	1581544058	1.09	2.02
12/02/2020 21:47:39	120220	12022020	214739	81.98	12.275145	-56.990243	81.98	-0.140	1.000	0.310	82.04	-0.20	0.70	 	 	 	 	 	 	 	 	 	 	 	 	 	 	 	 	 	 	1581544059	1.70	3.15
12/02/2020 21:47:40	120220	12022020	214740	82.22	12.275145	-56.990248	82.18	-0.620	1.530	0.120	82.24	0.10	0.60	 	 	 	 	 	 	 	 	 	 	 	 	 	 	 	 	 	 	1581544060	1.12	2.07
12/02/2020 21:47:41	120220	12022020	214741	82.18	12.275143	-56.990247	82.08	-0.690	0.670	0.460	82.13	-0.90	1.00	 	 	 	 	 	 	 	 	 	 	 	 	 	 	 	 	 	 	1581544061	0.52	0.96
12/02/2020 21:47:42	120220	12022020	214742	81.91	12.275140	-56.990242	81.83	-0.320	-0.860	1.050	81.85	-2.40	1.50	 	 	 	 	 	 	 	 	 	 	 	 	 	 	 	 	 	 	1581544062	1.55	2.87
12/02/2020 21:47:43	120220	12022020	214743	81.72	12.275137	-56.990237	81.69	0.140	-1.730	1.470	81.71	-3.10	1.90	 	 	 	 	 	 	 	 	 	 	 	 	 	 	 	 	 	 	1581544063	1.24	2.30
12/02/2020 21:47:44	120220	12022020	214744	81.73	12.275135	-56.990237	81.74	0.370	-1.360	1.640	81.74	-2.60	2.10	 	 	 	 	 	 	 	 	 	 	 	 	 	 	 	 	 	 	1581544064	0.30	0.56
12/02/2020 21:47:45	120220	12022020	214745	81.87	12.275135	-56.990242	81.91	0.320	-0.350	1.610	81.90	-1.60	2.00	 	 	 	 	 	 	 	 	 	 	 	 	 	 	 	 	 	 	1581544065	0.96	1.78
12/02/2020 21:47:46	120220	12022020	214746	82.06	12.275137	-56.990245	82.07	0.100	0.390	1.400	82.08	-0.90	1.80	 	 	 	 	 	 	 	 	 	 	 	 	 	 	 	 	 	 	1581544066	0.90	1.67
12/02/2020 21:47:47	120220	12022020	214747	82.04	12.275138	-56.990247	81.96	-0.090	0.510	1.250	81.99	-0.90	1.70	 	 	 	 	 	 	 	 	 	 	 	 	 	 	 	 	 	 	1581544067	0.46	0.85
12/02/2020 21:47:48	120220	12022020	214748	81.75	12.275140	-56.990245	81.67	-0.120	0.190	1.230	81.70	-1.20	1.70	 	 	 	 	 	 	 	 	 	 	 	 	 	 	 	 	 	 	1581544068	0.37	0.69
12/02/2020 21:47:49	120220	12022020	214749	81.62	12.275142	-56.990245	81.60	-0.010	-0.220	1.190	81.64	-1.60	1.60	 	 	 	 	 	 	 	 	 	 	 	 	 	 	 	 	 	 	1581544069	0.47	0.87
12/02/2020 21:47:50	120220	12022020	214750	81.83	12.275142	-56.990243	81.86	0.060	-0.500	1.070	81.89	-1.90	1.50	 	 	 	 	 	 	 	 	 	 	 	 	 	 	 	 	 	 	1581544070	0.30	0.56
12/02/2020 21:47:51	120220	12022020	214751	82.12	12.275142	-56.990243	82.13	0.030	-0.560	0.960	82.16	-1.90	1.40	 	 	 	 	 	 	 	 	 	 	 	 	 	 	 	 	 	 	1581544071	0.16	0.30
12/02/2020 21:47:52	120220	12022020	214752	82.23	12.275140	-56.990243	82.20	-0.080	-0.360	0.970	82.22	-1.70	1.40	 	 	 	 	 	 	 	 	 	 	 	 	 	 	 	 	 	 	1581544072	0.42	0.78
12/02/2020 21:47:53	120220	12022020	214753	82.17	12.275138	-56.990245	82.10	-0.150	0.080	1.060	82.15	-1.20	1.50	 	 	 	 	 	 	 	 	 	 	 	 	 	 	 	 	 	 	1581544073	0.57	1.06
12/02/2020 21:47:54	120220	12022020	214754	82.03	12.275137	-56.990248	81.97	-0.130	0.410	1.230	82.00	-1.00	1.70	 	 	 	 	 	 	 	 	 	 	 	 	 	 	 	 	 	 	1581544074	0.56	1.04
12/02/2020 21:47:55	120220	12022020	214755	81.85	12.275137	-56.990248	81.78	-0.090	0.180	1.430	81.81	-1.30	1.90	 	 	 	 	 	 	 	 	 	 	 	 	 	 	 	 	 	 	1581544075	0.13	0.24
12/02/2020 21:47:56	120220	12022020	214756	81.69	12.275137	-56.990247	81.64	-0.070	-0.430	1.440	81.67	-1.90	1.90	 	 	 	 	 	 	 	 	 	 	 	 	 	 	 	 	 	 	1581544076	0.37	0.69
12/02/2020 21:47:57	120220	12022020	214757	81.60	12.275138	-56.990245	81.56	-0.030	-0.830	1.240	81.60	-2.20	1.60	 	 	 	 	 	 	 	 	 	 	 	 	 	 	 	 	 	 	1581544077	0.48	0.89
12/02/2020 21:47:58	120220	12022020	214758	81.63	12.275142	-56.990245	81.61	0.100	-0.690	0.950	81.67	-2.00	1.40	 	 	 	 	 	 	 	 	 	 	 	 	 	 	 	 	 	 	1581544078	0.47	0.87
12/02/2020 21:47:59	120220	12022020	214759	81.85	12.275143	-56.990247	81.86	0.280	-0.380	0.730	81.90	-1.70	1.20	 	 	 	 	 	 	 	 	 	 	 	 	 	 	 	 	 	 	1581544079	0.50	0.93
12/02/2020 21:48:00	120220	12022020	214800	82.01	12.275143	-56.990248	81.98	0.360	-0.200	0.820	82.01	-1.50	1.30	 	 	 	 	 	 	 	 	 	 	 	 	 	 	 	 	 	 	1581544080	0.13	0.24
12/02/2020 21:48:01	120220	12022020	214801	81.87	12.275142	-56.990248	81.79	0.280	-0.140	1.090	81.82	-1.50	1.60	 	 	 	 	 	 	 	 	 	 	 	 	 	 	 	 	 	 	1581544081	0.33	0.61
12/02/2020 21:48:02	120220	12022020	214802	81.54	12.275140	-56.990247	81.45	0.080	-0.080	1.390	81.48	-1.40	1.90	1014.70	26.30	26.40	20.40	20.50	8.0	70.0	70.0	392.0	26.0	347.00	11.40	68.00	11.10	885	11232.0	27.4	27.4	1581544082	0.40	0.74
12/02/2020 21:48:03	120220	12022020	214803	81.26	12.275138	-56.990247	81.22	-0.150	0.070	1.610	81.23	-1.30	2.00	 	 	 	 	 	 	 	 	 	 	 	 	 	 	 	 	 	 	1581544083	0.34	0.63
12/02/2020 21:48:04	120220	12022020	214804	81.23	12.275137	-56.990247	81.26	-0.360	0.270	1.550	81.26	-1.10	2.00	 	 	 	 	 	 	 	 	 	 	 	 	 	 	 	 	 	 	1581544084	0.25	0.46
12/02/2020 21:48:05	120220	12022020	214805	81.41	12.275138	-56.990248	81.45	-0.500	0.320	1.300	81.46	-1.10	1.70	 	 	 	 	 	 	 	 	 	 	 	 	 	 	 	 	 	 	1581544085	0.35	0.65
12/02/2020 21:48:06	120220	12022020	214806	81.59	12.275138	-56.990250	81.57	-0.430	0.000	1.040	81.60	-1.40	1.40	 	 	 	 	 	 	 	 	 	 	 	 	 	 	 	 	 	 	1581544086	0.25	0.46
12/02/2020 21:48:07	120220	12022020	214807	81.62	12.275140	-56.990248	81.57	-0.100	-0.510	0.760	81.61	-1.90	1.20	 	 	 	 	 	 	 	 	 	 	 	 	 	 	 	 	 	 	1581544087	0.43	0.80
12/02/2020 21:48:08	120220	12022020	214808	81.52	12.275143	-56.990248	81.42	0.360	-0.850	0.520	81.47	-2.20	1.00	 	 	 	 	 	 	 	 	 	 	 	 	 	 	 	 	 	 	1581544088	0.65	1.20
12/02/2020 21:48:09	120220	12022020	214809	81.23	12.275145	-56.990247	81.13	0.650	-0.840	0.630	81.16	-2.20	1.10	 	 	 	 	 	 	 	 	 	 	 	 	 	 	 	 	 	 	1581544089	0.38	0.70
12/02/2020 21:48:10	120220	12022020	214810	81.02	12.275143	-56.990247	80.98	0.550	-0.610	1.040	81.01	-1.90	1.50	 	 	 	 	 	 	 	 	 	 	 	 	 	 	 	 	 	 	1581544090	0.24	0.44
12/02/2020 21:48:11	120220	12022020	214811	81.06	12.275142	-56.990247	81.05	0.090	-0.220	1.460	81.08	-1.50	1.90	 	 	 	 	 	 	 	 	 	 	 	 	 	 	 	 	 	 	1581544091	0.61	1.13
12/02/2020 21:48:12	120220	12022020	214812	81.16	12.275140	-56.990248	81.15	-0.400	0.200	1.610	81.17	-1.10	2.00	 	 	 	 	 	 	 	 	 	 	 	 	 	 	 	 	 	 	1581544092	0.44	0.81
12/02/2020 21:48:13	120220	12022020	214813	81.26	12.275140	-56.990248	81.26	-0.570	0.450	1.440	81.28	-0.90	1.80	 	 	 	 	 	 	 	 	 	 	 	 	 	 	 	 	 	 	1581544093	0.26	0.48
12/02/2020 21:48:14	120220	12022020	214814	81.42	12.275140	-56.990250	81.41	-0.410	0.470	1.090	81.45	-0.90	1.50	 	 	 	 	 	 	 	 	 	 	 	 	 	 	 	 	 	 	1581544094	0.31	0.57
12/02/2020 21:48:15	120220	12022020	214815	81.52	12.275142	-56.990250	81.48	-0.170	0.230	0.890	81.52	-1.20	1.30	 	 	 	 	 	 	 	 	 	 	 	 	 	 	 	 	 	 	1581544095	0.14	0.26
12/02/2020 21:48:16	120220	12022020	214816	81.48	12.275140	-56.990248	81.41	-0.000	-0.250	1.020	81.45	-1.70	1.50	 	 	 	 	 	 	 	 	 	 	 	 	 	 	 	 	 	 	1581544096	0.28	0.52
12/02/2020 21:48:17	120220	12022020	214817	81.30	12.275140	-56.990247	81.21	0.100	-0.800	1.270	81.25	-2.20	1.70	 	 	 	 	 	 	 	 	 	 	 	 	 	 	 	 	 	 	1581544097	0.53	0.98
12/02/2020 21:48:18	120220	12022020	214818	81.04	12.275140	-56.990245	80.97	0.240	-1.110	1.410	80.99	-2.50	1.90	 	 	 	 	 	 	 	 	 	 	 	 	 	 	 	 	 	 	1581544098	0.46	0.85
12/02/2020 21:48:19	120220	12022020	214819	80.85	12.275142	-56.990243	80.81	0.380	-0.920	1.320	80.83	-2.20	1.70	 	 	 	 	 	 	 	 	 	 	 	 	 	 	 	 	 	 	1581544099	0.55	1.02
12/02/2020 21:48:20	120220	12022020	214820	80.87	12.275145	-56.990245	80.88	0.360	-0.370	1.120	80.90	-1.60	1.50	 	 	 	 	 	 	 	 	 	 	 	 	 	 	 	 	 	 	1581544100	0.62	1.15
12/02/2020 21:48:21	120220	12022020	214821	81.10	12.275147	-56.990247	81.12	0.190	0.230	0.890	81.15	-1.10	1.30	 	 	 	 	 	 	 	 	 	 	 	 	 	 	 	 	 	 	1581544101	0.52	0.96
12/02/2020 21:48:22	120220	12022020	214822	81.32	12.275147	-56.990248	81.31	-0.030	0.550	0.800	81.35	-0.80	1.20	 	 	 	 	 	 	 	 	 	 	 	 	 	 	 	 	 	 	1581544102	0.32	0.59
12/02/2020 21:48:23	120220	12022020	214823	81.38	12.275147	-56.990248	81.33	-0.190	0.430	0.960	81.37	-1.00	1.40	 	 	 	 	 	 	 	 	 	 	 	 	 	 	 	 	 	 	1581544103	0.24	0.44
12/02/2020 21:48:24	120220	12022020	214824	81.29	12.275143	-56.990247	81.22	-0.220	0.040	1.250	81.24	-1.40	1.70	 	 	 	 	 	 	 	 	 	 	 	 	 	 	 	 	 	 	1581544104	0.62	1.15
12/02/2020 21:48:25	120220	12022020	214825	81.04	12.275142	-56.990245	80.96	-0.200	-0.320	1.590	80.98	-1.70	2.00	 	 	 	 	 	 	 	 	 	 	 	 	 	 	 	 	 	 	1581544105	0.62	1.15
12/02/2020 21:48:26	120220	12022020	214826	80.81	12.275142	-56.990243	80.78	-0.240	-0.450	1.690	80.79	-1.80	2.10	 	 	 	 	 	 	 	 	 	 	 	 	 	 	 	 	 	 	1581544106	0.18	0.33
12/02/2020 21:48:27	120220	12022020	214827	80.80	12.275143	-56.990243	80.80	-0.330	-0.410	1.530	80.83	-1.80	1.90	 	 	 	 	 	 	 	 	 	 	 	 	 	 	 	 	 	 	1581544107	0.39	0.72
12/02/2020 21:48:28	120220	12022020	214828	80.93	12.275145	-56.990245	80.94	-0.240	-0.430	1.270	80.96	-1.80	1.70	 	 	 	 	 	 	 	 	 	 	 	 	 	 	 	 	 	 	1581544108	0.33	0.61
12/02/2020 21:48:29	120220	12022020	214829	81.04	12.275145	-56.990243	81.01	0.100	-0.610	1.110	81.04	-2.00	1.50	 	 	 	 	 	 	 	 	 	 	 	 	 	 	 	 	 	 	1581544109	0.28	0.52
12/02/2020 21:48:30	120220	12022020	214830	80.99	12.275145	-56.990242	80.93	0.470	-0.660	1.040	80.96	-2.00	1.50	 	 	 	 	 	 	 	 	 	 	 	 	 	 	 	 	 	 	1581544110	0.41	0.76
12/02/2020 21:48:31	120220	12022020	214831	80.85	12.275147	-56.990242	80.79	0.460	-0.280	1.010	80.83	-1.50	1.40	 	 	 	 	 	 	 	 	 	 	 	 	 	 	 	 	 	 	1581544111	0.15	0.28
12/02/2020 21:48:32	120220	12022020	214832	80.76	12.275147	-56.990243	80.71	-0.010	0.400	0.960	80.75	-0.90	1.40	 	 	 	 	 	 	 	 	 	 	 	 	 	 	 	 	 	 	1581544112	0.53	0.98
12/02/2020 21:48:33	120220	12022020	214833	80.74	12.275148	-56.990247	80.70	-0.500	0.730	0.750	80.74	-0.70	1.20	 	 	 	 	 	 	 	 	 	 	 	 	 	 	 	 	 	 	1581544113	0.55	1.02
12/02/2020 21:48:34	120220	12022020	214834	80.76	12.275148	-56.990245	80.71	-0.510	0.310	0.560	80.76	-1.20	1.00	 	 	 	 	 	 	 	 	 	 	 	 	 	 	 	 	 	 	1581544114	0.22	0.41
12/02/2020 21:48:35	120220	12022020	214835	80.71	12.275150	-56.990242	80.63	-0.000	-0.590	0.670	80.68	-2.10	1.20	 	 	 	 	 	 	 	 	 	 	 	 	 	 	 	 	 	 	1581544115	0.80	1.48
12/02/2020 21:48:36	120220	12022020	214836	80.59	12.275150	-56.990237	80.52	0.560	-1.300	0.980	80.57	-2.70	1.40	 	 	 	 	 	 	 	 	 	 	 	 	 	 	 	 	 	 	1581544116	0.98	1.81
12/02/2020 21:48:37	120220	12022020	214837	80.52	12.275150	-56.990235	80.48	0.690	-1.300	1.120	80.51	-2.60	1.60	 	 	 	 	 	 	 	 	 	 	 	 	 	 	 	 	 	 	1581544117	0.54	1.00
12/02/2020 21:48:38	120220	12022020	214838	80.52	12.275150	-56.990237	80.49	0.300	-0.400	1.170	80.54	-1.60	1.60	 	 	 	 	 	 	 	 	 	 	 	 	 	 	 	 	 	 	1581544118	0.32	0.59
12/02/2020 21:48:39	120220	12022020	214839	80.58	12.275150	-56.990242	80.56	-0.270	0.810	1.320	80.59	-0.40	1.80	 	 	 	 	 	 	 	 	 	 	 	 	 	 	 	 	 	 	1581544119	1.00	1.85
12/02/2020 21:48:40	120220	12022020	214840	80.61	12.275148	-56.990243	80.58	-0.580	1.300	1.590	80.61	-0.10	2.00	 	 	 	 	 	 	 	 	 	 	 	 	 	 	 	 	 	 	1581544120	0.76	1.41
12/02/2020 21:48:41	120220	12022020	214841	80.64	12.275148	-56.990242	80.64	-0.450	0.640	1.650	80.66	-0.90	2.10	 	 	 	 	 	 	 	 	 	 	 	 	 	 	 	 	 	 	1581544121	0.38	0.70
12/02/2020 21:48:42	120220	12022020	214842	80.82	12.275150	-56.990238	80.81	-0.180	-0.430	1.400	80.86	-1.90	1.80	 	 	 	 	 	 	 	 	 	 	 	 	 	 	 	 	 	 	1581544122	1.02	1.89
12/02/2020 21:48:43	120220	12022020	214843	81.00	12.275150	-56.990235	80.97	-0.110	-0.910	1.180	81.02	-2.30	1.60	 	 	 	 	 	 	 	 	 	 	 	 	 	 	 	 	 	 	1581544123	0.50	0.93
12/02/2020 21:48:44	120220	12022020	214844	81.03	12.275148	-56.990237	80.97	-0.200	-0.760	1.210	81.01	-2.10	1.60	 	 	 	 	 	 	 	 	 	 	 	 	 	 	 	 	 	 	1581544124	0.40	0.74
12/02/2020 21:48:45	120220	12022020	214845	80.86	12.275147	-56.990238	80.76	-0.080	-0.750	1.340	80.80	-2.10	1.80	 	 	 	 	 	 	 	 	 	 	 	 	 	 	 	 	 	 	1581544125	0.43	0.80
12/02/2020 21:48:46	120220	12022020	214846	80.51	12.275148	-56.990235	80.40	0.420	-1.120	1.290	80.45	-2.50	1.70	 	 	 	 	 	 	 	 	 	 	 	 	 	 	 	 	 	 	1581544126	0.64	1.19
12/02/2020 21:48:47	120220	12022020	214847	80.28	12.275152	-56.990232	80.23	0.890	-1.110	0.960	80.27	-2.40	1.30	 	 	 	 	 	 	 	 	 	 	 	 	 	 	 	 	 	 	1581544127	1.06	1.96
12/02/2020 21:48:48	120220	12022020	214848	80.41	12.275155	-56.990232	80.42	0.820	-0.190	0.630	80.48	-1.40	1.00	 	 	 	 	 	 	 	 	 	 	 	 	 	 	 	 	 	 	1581544128	0.80	1.48
12/02/2020 21:48:49	120220	12022020	214849	80.87	12.275157	-56.990237	80.91	0.150	1.110	0.340	80.98	-0.10	0.70	 	 	 	 	 	 	 	 	 	 	 	 	 	 	 	 	 	 	1581544129	1.13	2.09
12/02/2020 21:48:50	120220	12022020	214850	81.36	12.275158	-56.990242	81.36	-0.610	1.760	0.210	81.43	0.40	0.60	 	 	 	 	 	 	 	 	 	 	 	 	 	 	 	 	 	 	1581544130	0.97	1.80
12/02/2020 21:48:51	120220	12022020	214851	81.54	12.275157	-56.990242	81.47	-0.980	1.270	0.420	81.53	-0.20	0.90	 	 	 	 	 	 	 	 	 	 	 	 	 	 	 	 	 	 	1581544131	0.25	0.46
12/02/2020 21:48:52	120220	12022020	214852	81.33	12.275155	-56.990238	81.21	-0.810	-0.010	0.970	81.27	-1.60	1.50	 	 	 	 	 	 	 	 	 	 	 	 	 	 	 	 	 	 	1581544132	0.86	1.59
12/02/2020 21:48:53	120220	12022020	214853	80.94	12.275152	-56.990233	80.83	-0.260	-1.350	1.660	80.87	-2.90	2.20	 	 	 	 	 	 	 	 	 	 	 	 	 	 	 	 	 	 	1581544133	1.23	2.28
12/02/2020 21:48:54	120220	12022020	214854	80.70	12.275148	-56.990230	80.70	0.420	-2.180	2.140	80.70	-3.60	2.60	 	 	 	 	 	 	 	 	 	 	 	 	 	 	 	 	 	 	1581544134	1.08	2.00
12/02/2020 21:48:55	120220	12022020	214855	80.83	12.275147	-56.990227	80.90	0.910	-2.170	2.230	80.89	-3.40	2.60	 	 	 	 	 	 	 	 	 	 	 	 	 	 	 	 	 	 	1581544135	0.54	1.00
12/02/2020 21:48:56	120220	12022020	214856	81.10	12.275148	-56.990228	81.13	0.890	-1.190	1.910	81.14	-2.30	2.30	 	 	 	 	 	 	 	 	 	 	 	 	 	 	 	 	 	 	1581544136	0.26	0.48
12/02/2020 21:48:57	120220	12022020	214857	81.23	12.275150	-56.990233	81.20	0.320	0.490	1.250	81.23	-0.60	1.60	 	 	 	 	 	 	 	 	 	 	 	 	 	 	 	 	 	 	1581544137	1.25	2.31
12/02/2020 21:48:58	120220	12022020	214858	81.18	12.275153	-56.990242	81.11	-0.470	1.970	0.560	81.15	0.70	0.90	 	 	 	 	 	 	 	 	 	 	 	 	 	 	 	 	 	 	1581544138	1.67	3.09
12/02/2020 21:48:59	120220	12022020	214859	81.04	12.275157	-56.990245	80.96	-0.940	2.170	-0.020	81.01	0.70	0.40	 	 	 	 	 	 	 	 	 	 	 	 	 	 	 	 	 	 	1581544139	1.07	1.98
12/02/2020 21:49:00	120220	12022020	214900	80.91	12.275160	-56.990243	80.80	-0.690	0.830	-0.480	80.89	-0.80	-0.10	 	 	 	 	 	 	 	 	 	 	 	 	 	 	 	 	 	 	1581544140	0.92	1.70
12/02/2020 21:49:01	120220	12022020	214901	80.81	12.275165	-56.990237	80.72	-0.010	-1.100	-0.780	80.80	-2.70	-0.40	 	 	 	 	 	 	 	 	 	 	 	 	 	 	 	 	 	 	1581544141	1.71	3.17
12/02/2020 21:49:02	120220	12022020	214902	80.82	12.275168	-56.990233	80.76	0.440	-2.120	-0.800	80.83	-3.50	-0.30	1014.80	26.30	26.30	20.20	20.30	7.0	69.0	69.0	391.0	26.0	349.00	11.10	69.00	10.90	800	12425.0	27.4	27.4	1581544142	1.25	2.31
12/02/2020 21:49:03	120220	12022020	214903	80.93	12.275168	-56.990235	80.89	0.330	-1.610	-0.410	80.96	-2.80	0.10	 	 	 	 	 	 	 	 	 	 	 	 	 	 	 	 	 	 	1581544143	0.38	0.70
12/02/2020 21:49:04	120220	12022020	214904	81.10	12.275163	-56.990240	81.10	0.000	-0.400	0.280	81.14	-1.60	0.80	 	 	 	 	 	 	 	 	 	 	 	 	 	 	 	 	 	 	1581544144	1.56	2.89
12/02/2020 21:49:05	120220	12022020	214905	81.30	12.275157	-56.990243	81.31	-0.040	0.290	1.100	81.33	-1.00	1.60	 	 	 	 	 	 	 	 	 	 	 	 	 	 	 	 	 	 	1581544145	1.57	2.91
12/02/2020 21:49:06	120220	12022020	214906	81.36	12.275152	-56.990242	81.34	0.300	0.170	2.030	81.34	-1.20	2.60	 	 	 	 	 	 	 	 	 	 	 	 	 	 	 	 	 	 	1581544146	1.35	2.50
12/02/2020 21:49:07	120220	12022020	214907	81.12	12.275147	-56.990238	81.08	0.630	-0.230	2.950	81.05	-1.60	3.50	 	 	 	 	 	 	 	 	 	 	 	 	 	 	 	 	 	 	1581544147	1.30	2.41
12/02/2020 21:49:08	120220	12022020	214908	80.80	12.275145	-56.990237	80.78	0.500	-0.260	3.370	80.76	-1.60	3.80	 	 	 	 	 	 	 	 	 	 	 	 	 	 	 	 	 	 	1581544148	0.49	0.91
12/02/2020 21:49:09	120220	12022020	214909	80.66	12.275147	-56.990238	80.67	-0.050	0.140	3.140	80.65	-1.20	3.50	 	 	 	 	 	 	 	 	 	 	 	 	 	 	 	 	 	 	1581544149	0.70	1.30
12/02/2020 21:49:10	120220	12022020	214910	80.70	12.275152	-56.990242	80.72	-0.610	0.480	2.400	80.72	-0.90	2.70	 	 	 	 	 	 	 	 	 	 	 	 	 	 	 	 	 	 	1581544150	1.22	2.26
12/02/2020 21:49:11	120220	12022020	214911	80.84	12.275155	-56.990245	80.87	-0.750	0.430	1.460	80.88	-1.00	1.80	 	 	 	 	 	 	 	 	 	 	 	 	 	 	 	 	 	 	1581544151	1.04	1.93
12/02/2020 21:49:12	120220	12022020	214912	81.02	12.275160	-56.990245	81.04	-0.400	-0.180	0.560	81.06	-1.70	0.90	 	 	 	 	 	 	 	 	 	 	 	 	 	 	 	 	 	 	1581544152	0.78	1.44
12/02/2020 21:49:13	120220	12022020	214913	81.16	12.275163	-56.990243	81.14	0.090	-0.990	-0.160	81.18	-2.40	0.20	 	 	 	 	 	 	 	 	 	 	 	 	 	 	 	 	 	 	1581544153	0.89	1.65
12/02/2020 21:49:14	120220	12022020	214914	81.18	12.275165	-56.990242	81.11	0.340	-1.180	-0.650	81.16	-2.50	-0.30	 	 	 	 	 	 	 	 	 	 	 	 	 	 	 	 	 	 	1581544154	0.60	1.11
12/02/2020 21:49:15	120220	12022020	214915	81.07	12.275167	-56.990245	80.99	0.310	-0.430	-0.820	81.05	-1.70	-0.40	 	 	 	 	 	 	 	 	 	 	 	 	 	 	 	 	 	 	1581544155	0.75	1.39
12/02/2020 21:49:16	120220	12022020	214916	80.91	12.275167	-56.990250	80.82	0.280	0.310	-0.690	80.87	-1.00	-0.20	 	 	 	 	 	 	 	 	 	 	 	 	 	 	 	 	 	 	1581544156	1.05	1.94
12/02/2020 21:49:17	120220	12022020	214917	80.73	12.275168	-56.990250	80.68	0.380	0.210	-0.330	80.71	-1.20	0.20	 	 	 	 	 	 	 	 	 	 	 	 	 	 	 	 	 	 	1581544157	0.33	0.61
12/02/2020 21:49:18	120220	12022020	214918	80.68	12.275168	-56.990248	80.67	0.400	-0.400	0.220	80.69	-1.80	0.80	 	 	 	 	 	 	 	 	 	 	 	 	 	 	 	 	 	 	1581544158	0.60	1.11
12/02/2020 21:49:19	120220	12022020	214919	80.77	12.275165	-56.990245	80.79	0.150	-0.710	0.990	80.78	-2.10	1.50	 	 	 	 	 	 	 	 	 	 	 	 	 	 	 	 	 	 	1581544159	0.86	1.59
12/02/2020 21:49:20	120220	12022020	214920	80.80	12.275160	-56.990245	80.80	-0.300	-0.340	1.940	80.79	-1.60	2.50	 	 	 	 	 	 	 	 	 	 	 	 	 	 	 	 	 	 	1581544160	1.31	2.43
12/02/2020 21:49:21	120220	12022020	214921	80.70	12.275153	-56.990247	80.69	-0.590	0.270	2.730	80.67	-1.00	3.20	 	 	 	 	 	 	 	 	 	 	 	 	 	 	 	 	 	 	1581544161	1.58	2.93
12/02/2020 21:49:22	120220	12022020	214922	80.60	12.275148	-56.990248	80.62	-0.420	0.440	2.930	80.60	-0.90	3.30	 	 	 	 	 	 	 	 	 	 	 	 	 	 	 	 	 	 	1581544162	0.83	1.54
12/02/2020 21:49:23	120220	12022020	214923	80.67	12.275152	-56.990250	80.71	-0.030	0.210	2.450	80.71	-1.20	2.80	 	 	 	 	 	 	 	 	 	 	 	 	 	 	 	 	 	 	1581544163	0.44	0.81
12/02/2020 21:49:24	120220	12022020	214924	80.85	12.275157	-56.990250	80.87	0.210	-0.100	1.620	80.89	-1.50	1.90	 	 	 	 	 	 	 	 	 	 	 	 	 	 	 	 	 	 	1581544164	1.11	2.06
12/02/2020 21:49:25	120220	12022020	214925	80.99	12.275162	-56.990252	80.96	0.270	-0.440	0.770	81.00	-1.90	1.10	 	 	 	 	 	 	 	 	 	 	 	 	 	 	 	 	 	 	1581544165	1.10	2.04
12/02/2020 21:49:26	120220	12022020	214926	80.98	12.275165	-56.990250	80.90	0.420	-0.940	0.130	80.95	-2.40	0.50	 	 	 	 	 	 	 	 	 	 	 	 	 	 	 	 	 	 	1581544166	0.80	1.48
12/02/2020 21:49:27	120220	12022020	214927	80.71	12.275167	-56.990248	80.57	0.610	-1.250	-0.050	80.63	-2.60	0.40	 	 	 	 	 	 	 	 	 	 	 	 	 	 	 	 	 	 	1581544167	0.66	1.22
12/02/2020 21:49:28	120220	12022020	214928	80.43	12.275168	-56.990248	80.35	0.380	-0.650	-0.090	80.40	-1.90	0.30	 	 	 	 	 	 	 	 	 	 	 	 	 	 	 	 	 	 	1581544168	0.38	0.70
12/02/2020 21:49:29	120220	12022020	214929	80.50	12.275170	-56.990255	80.50	-0.250	0.550	-0.180	80.56	-0.70	0.20	 	 	 	 	 	 	 	 	 	 	 	 	 	 	 	 	 	 	1581544169	1.21	2.24
12/02/2020 21:49:30	120220	12022020	214930	80.88	12.275168	-56.990260	80.89	-0.750	1.220	-0.220	80.95	-0.20	0.20	 	 	 	 	 	 	 	 	 	 	 	 	 	 	 	 	 	 	1581544170	1.20	2.22
12/02/2020 21:49:31	120220	12022020	214931	81.26	12.275167	-56.990260	81.26	-0.650	0.700	0.070	81.31	-0.80	0.60	 	 	 	 	 	 	 	 	 	 	 	 	 	 	 	 	 	 	1581544171	0.43	0.80
12/02/2020 21:49:32	120220	12022020	214932	81.43	12.275163	-56.990255	81.37	-0.090	-0.540	0.760	81.42	-2.10	1.30	 	 	 	 	 	 	 	 	 	 	 	 	 	 	 	 	 	 	1581544172	1.31	2.43
12/02/2020 21:49:33	120220	12022020	214933	81.25	12.275158	-56.990250	81.16	0.330	-1.360	1.770	81.17	-2.80	2.30	 	 	 	 	 	 	 	 	 	 	 	 	 	 	 	 	 	 	1581544173	1.57	2.91
12/02/2020 21:49:34	120220	12022020	214934	80.82	12.275152	-56.990250	80.72	0.270	-1.180	2.650	80.72	-2.40	3.10	 	 	 	 	 	 	 	 	 	 	 	 	 	 	 	 	 	 	1581544174	1.22	2.26
12/02/2020 21:49:35	120220	12022020	214935	80.41	12.275148	-56.990253	80.36	-0.030	-0.280	2.950	80.35	-1.50	3.30	 	 	 	 	 	 	 	 	 	 	 	 	 	 	 	 	 	 	1581544175	0.98	1.81
12/02/2020 21:49:36	120220	12022020	214936	80.29	12.275152	-56.990258	80.32	-0.240	0.610	2.460	80.32	-0.70	2.80	 	 	 	 	 	 	 	 	 	 	 	 	 	 	 	 	 	 	1581544176	1.28	2.37
12/02/2020 21:49:37	120220	12022020	214937	80.60	12.275157	-56.990262	80.68	-0.180	0.730	1.420	80.71	-0.70	1.70	 	 	 	 	 	 	 	 	 	 	 	 	 	 	 	 	 	 	1581544177	1.47	2.72
12/02/2020 21:49:38	120220	12022020	214938	81.15	12.275163	-56.990262	81.19	0.110	-0.090	0.300	81.23	-1.60	0.60	 	 	 	 	 	 	 	 	 	 	 	 	 	 	 	 	 	 	1581544178	1.37	2.54
12/02/2020 21:49:39	120220	12022020	214939	81.40	12.275167	-56.990257	81.35	0.440	-1.070	-0.380	81.41	-2.50	-0.00	 	 	 	 	 	 	 	 	 	 	 	 	 	 	 	 	 	 	1581544179	1.19	2.20
12/02/2020 21:49:40	120220	12022020	214940	81.31	12.275167	-56.990255	81.21	0.580	-1.240	-0.550	81.27	-2.50	-0.10	 	 	 	 	 	 	 	 	 	 	 	 	 	 	 	 	 	 	1581544180	0.49	0.91
12/02/2020 21:49:41	120220	12022020	214941	81.05	12.275165	-56.990257	80.95	0.440	-0.510	-0.300	80.99	-1.70	0.20	 	 	 	 	 	 	 	 	 	 	 	 	 	 	 	 	 	 	1581544181	0.50	0.93
12/02/2020 21:49:42	120220	12022020	214942	80.79	12.275163	-56.990262	80.73	0.040	0.500	0.180	80.77	-0.80	0.70	 	 	 	 	 	 	 	 	 	 	 	 	 	 	 	 	 	 	1581544182	1.03	1.91
12/02/2020 21:49:43	120220	12022020	214943	80.72	12.275162	-56.990265	80.70	-0.460	1.040	0.670	80.73	-0.30	1.20	 	 	 	 	 	 	 	 	 	 	 	 	 	 	 	 	 	 	1581544183	0.94	1.74
12/02/2020 21:49:44	120220	12022020	214944	80.77	12.275160	-56.990267	80.76	-0.750	0.760	1.110	80.78	-0.70	1.60	 	 	 	 	 	 	 	 	 	 	 	 	 	 	 	 	 	 	1581544184	0.50	0.93
12/02/2020 21:49:45	120220	12022020	214945	80.78	12.275157	-56.990263	80.75	-0.600	-0.220	1.520	80.77	-1.80	2.00	 	 	 	 	 	 	 	 	 	 	 	 	 	 	 	 	 	 	1581544185	0.66	1.22
12/02/2020 21:49:46	120220	12022020	214946	80.67	12.275155	-56.990260	80.61	-0.060	-1.280	1.920	80.63	-2.80	2.40	 	 	 	 	 	 	 	 	 	 	 	 	 	 	 	 	 	 	1581544186	1.02	1.89
12/02/2020 21:49:47	120220	12022020	214947	80.51	12.275155	-56.990257	80.48	0.450	-1.560	2.200	80.49	-2.90	2.60	 	 	 	 	 	 	 	 	 	 	 	 	 	 	 	 	 	 	1581544187	0.66	1.22
12/02/2020 21:49:48	120220	12022020	214948	80.54	12.275153	-56.990258	80.57	0.530	-0.790	2.220	80.58	-2.00	2.60	 	 	 	 	 	 	 	 	 	 	 	 	 	 	 	 	 	 	1581544188	0.51	0.94
12/02/2020 21:49:49	120220	12022020	214949	80.83	12.275152	-56.990263	80.90	0.220	0.260	2.050	80.91	-1.00	2.40	 	 	 	 	 	 	 	 	 	 	 	 	 	 	 	 	 	 	1581544189	1.08	2.00
12/02/2020 21:49:50	120220	12022020	214950	81.16	12.275150	-56.990267	81.18	-0.130	0.690	1.810	81.20	-0.70	2.20	 	 	 	 	 	 	 	 	 	 	 	 	 	 	 	 	 	 	1581544190	0.69	1.28
12/02/2020 21:49:51	120220	12022020	214951	81.25	12.275152	-56.990265	81.21	-0.140	0.290	1.460	81.24	-1.20	1.80	 	 	 	 	 	 	 	 	 	 	 	 	 	 	 	 	 	 	1581544191	0.24	0.44
12/02/2020 21:49:52	120220	12022020	214952	81.15	12.275155	-56.990263	81.07	0.140	-0.390	0.980	81.12	-1.80	1.30	 	 	 	 	 	 	 	 	 	 	 	 	 	 	 	 	 	 	1581544192	0.93	1.72
12/02/2020 21:49:53	120220	12022020	214953	81.07	12.275158	-56.990262	81.02	0.330	-0.630	0.500	81.07	-2.00	0.90	 	 	 	 	 	 	 	 	 	 	 	 	 	 	 	 	 	 	1581544193	0.88	1.63
12/02/2020 21:49:54	120220	12022020	214954	81.12	12.275160	-56.990262	81.09	0.160	-0.260	0.350	81.13	-1.60	0.80	 	 	 	 	 	 	 	 	 	 	 	 	 	 	 	 	 	 	1581544194	0.40	0.74
12/02/2020 21:49:55	120220	12022020	214955	81.10	12.275157	-56.990265	81.03	-0.240	0.210	0.640	81.07	-1.10	1.10	 	 	 	 	 	 	 	 	 	 	 	 	 	 	 	 	 	 	1581544195	0.74	1.37
12/02/2020 21:49:56	120220	12022020	214956	80.91	12.275155	-56.990267	80.83	-0.490	0.220	0.990	80.88	-1.20	1.40	 	 	 	 	 	 	 	 	 	 	 	 	 	 	 	 	 	 	1581544196	0.62	1.15
12/02/2020 21:49:57	120220	12022020	214957	80.85	12.275155	-56.990265	80.81	-0.410	-0.140	0.920	80.87	-1.60	1.30	 	 	 	 	 	 	 	 	 	 	 	 	 	 	 	 	 	 	1581544197	0.22	0.41
12/02/2020 21:49:58	120220	12022020	214958	81.04	12.275155	-56.990265	81.03	-0.170	-0.360	0.670	81.09	-1.70	1.10	 	 	 	 	 	 	 	 	 	 	 	 	 	 	 	 	 	 	1581544198	0.27	0.50
12/02/2020 21:49:59	120220	12022020	214959	81.22	12.275155	-56.990265	81.18	0.020	-0.300	0.770	81.23	-1.70	1.20	 	 	 	 	 	 	 	 	 	 	 	 	 	 	 	 	 	 	1581544199	0.17	0.31
12/02/2020 21:50:00	120220	12022020	215000	81.23	12.275153	-56.990267	81.18	0.090	-0.260	1.180	81.22	-1.70	1.60	 	 	 	 	 	 	 	 	 	 	 	 	 	 	 	 	 	 	1581544200	0.42	0.78
12/02/2020 21:50:01	120220	12022020	215001	81.20	12.275152	-56.990265	81.17	0.170	-0.650	1.400	81.20	-2.10	1.80	 	 	 	 	 	 	 	 	 	 	 	 	 	 	 	 	 	 	1581544201	0.45	0.83
12/02/2020 21:50:02	120220	12022020	215002	81.24	12.275152	-56.990260	81.21	0.390	-1.220	1.350	81.25	-2.60	1.80	1014.80	26.40	26.40	20.50	20.60	6.0	70.0	70.0	394.0	26.0	351.00	10.40	71.00	10.00	723	10991.0	27.4	27.4	1581544202	0.85	1.57
12/02/2020 21:50:03	120220	12022020	215003	81.28	12.275152	-56.990257	81.26	0.670	-1.220	1.430	81.28	-2.50	1.90	 	 	 	 	 	 	 	 	 	 	 	 	 	 	 	 	 	 	1581544203	0.76	1.41
12/02/2020 21:50:04	120220	12022020	215004	81.30	12.275150	-56.990257	81.28	0.620	-0.280	1.670	81.30	-1.50	2.10	 	 	 	 	 	 	 	 	 	 	 	 	 	 	 	 	 	 	1581544204	0.47	0.87
12/02/2020 21:50:05	120220	12022020	215005	81.32	12.275147	-56.990262	81.28	0.020	1.200	1.710	81.32	0.00	2.10	 	 	 	 	 	 	 	 	 	 	 	 	 	 	 	 	 	 	1581544205	1.19	2.20
12/02/2020 21:50:06	120220	12022020	215006	81.29	12.275147	-56.990268	81.22	-0.820	2.170	1.330	81.27	0.80	1.70	 	 	 	 	 	 	 	 	 	 	 	 	 	 	 	 	 	 	1581544206	1.40	2.59
12/02/2020 21:50:07	120220	12022020	215007	81.15	12.275148	-56.990272	81.03	-1.240	1.690	0.780	81.11	0.10	1.10	 	 	 	 	 	 	 	 	 	 	 	 	 	 	 	 	 	 	1581544207	0.71	1.31
12/02/2020 21:50:08	120220	12022020	215008	80.91	12.275152	-56.990268	80.79	-0.870	-0.130	0.310	80.87	-1.80	0.70	 	 	 	 	 	 	 	 	 	 	 	 	 	 	 	 	 	 	1581544208	1.10	2.04
12/02/2020 21:50:09	120220	12022020	215009	80.74	12.275157	-56.990262	80.67	-0.010	-2.060	-0.010	80.73	-3.60	0.40	 	 	 	 	 	 	 	 	 	 	 	 	 	 	 	 	 	 	1581544209	1.70	3.15
12/02/2020 21:50:10	120220	12022020	215010	80.79	12.275160	-56.990257	80.77	0.670	-2.810	-0.240	80.82	-4.10	0.20	 	 	 	 	 	 	 	 	 	 	 	 	 	 	 	 	 	 	1581544210	1.19	2.20
12/02/2020 21:50:11	120220	12022020	215011	80.99	12.275162	-56.990258	81.00	0.800	-2.060	-0.340	81.05	-3.20	0.10	 	 	 	 	 	 	 	 	 	 	 	 	 	 	 	 	 	 	1581544211	0.48	0.89
12/02/2020 21:50:12	120220	12022020	215012	81.21	12.275160	-56.990262	81.20	0.520	-0.590	-0.060	81.23	-1.80	0.40	 	 	 	 	 	 	 	 	 	 	 	 	 	 	 	 	 	 	1581544212	0.95	1.76
12/02/2020 21:50:13	120220	12022020	215013	81.26	12.275155	-56.990265	81.24	0.160	0.640	0.720	81.26	-0.60	1.30	 	 	 	 	 	 	 	 	 	 	 	 	 	 	 	 	 	 	1581544213	1.27	2.35
12/02/2020 21:50:14	120220	12022020	215014	81.21	12.275148	-56.990265	81.17	-0.110	1.240	1.710	81.19	-0.10	2.30	 	 	 	 	 	 	 	 	 	 	 	 	 	 	 	 	 	 	1581544214	1.58	2.93
12/02/2020 21:50:15	120220	12022020	215015	81.13	12.275142	-56.990263	81.12	-0.250	1.220	2.510	81.12	-0.20	3.00	 	 	 	 	 	 	 	 	 	 	 	 	 	 	 	 	 	 	1581544215	1.43	2.65
12/02/2020 21:50:16	120220	12022020	215016	81.10	12.275138	-56.990260	81.08	-0.290	0.740	2.790	81.09	-0.70	3.20	 	 	 	 	 	 	 	 	 	 	 	 	 	 	 	 	 	 	1581544216	0.78	1.44
12/02/2020 21:50:17	120220	12022020	215017	80.96	12.275140	-56.990258	80.90	-0.290	0.140	2.640	80.90	-1.30	3.00	 	 	 	 	 	 	 	 	 	 	 	 	 	 	 	 	 	 	1581544217	0.40	0.74
12/02/2020 21:50:18	120220	12022020	215018	80.65	12.275143	-56.990258	80.57	-0.320	-0.370	2.190	80.59	-1.80	2.50	 	 	 	 	 	 	 	 	 	 	 	 	 	 	 	 	 	 	1581544218	0.80	1.48
12/02/2020 21:50:19	120220	12022020	215019	80.48	12.275148	-56.990260	80.46	-0.280	-0.810	1.540	80.49	-2.20	1.90	 	 	 	 	 	 	 	 	 	 	 	 	 	 	 	 	 	 	1581544219	1.10	2.04
12/02/2020 21:50:20	120220	12022020	215020	80.64	12.275153	-56.990258	80.65	-0.040	-1.230	0.820	80.69	-2.60	1.10	 	 	 	 	 	 	 	 	 	 	 	 	 	 	 	 	 	 	1581544220	1.05	1.94
12/02/2020 21:50:21	120220	12022020	215021	80.92	12.275157	-56.990258	80.92	0.310	-1.400	0.230	80.98	-2.70	0.60	 	 	 	 	 	 	 	 	 	 	 	 	 	 	 	 	 	 	1581544221	0.80	1.48
12/02/2020 21:50:22	120220	12022020	215022	81.19	12.275158	-56.990257	81.18	0.500	-1.030	-0.160	81.23	-2.30	0.20	 	 	 	 	 	 	 	 	 	 	 	 	 	 	 	 	 	 	1581544222	0.34	0.63
12/02/2020 21:50:23	120220	12022020	215023	81.32	12.275157	-56.990258	81.26	0.410	-0.250	-0.110	81.30	-1.50	0.40	 	 	 	 	 	 	 	 	 	 	 	 	 	 	 	 	 	 	1581544223	0.36	0.67
12/02/2020 21:50:24	120220	12022020	215024	81.11	12.275152	-56.990258	81.00	0.170	0.450	0.460	81.03	-0.90	1.00	 	 	 	 	 	 	 	 	 	 	 	 	 	 	 	 	 	 	1581544224	0.92	1.70
12/02/2020 21:50:25	120220	12022020	215025	80.62	12.275148	-56.990258	80.51	-0.040	0.710	1.300	80.52	-0.70	1.80	 	 	 	 	 	 	 	 	 	 	 	 	 	 	 	 	 	 	1581544225	0.99	1.83
12/02/2020 21:50:26	120220	12022020	215026	80.27	12.275145	-56.990257	80.24	-0.190	0.580	1.900	80.25	-0.80	2.40	 	 	 	 	 	 	 	 	 	 	 	 	 	 	 	 	 	 	1581544226	0.63	1.17
12/02/2020 21:50:27	120220	12022020	215027	80.34	12.275145	-56.990255	80.37	-0.310	0.270	1.990	80.38	-1.20	2.40	 	 	 	 	 	 	 	 	 	 	 	 	 	 	 	 	 	 	1581544227	0.33	0.61
12/02/2020 21:50:28	120220	12022020	215028	80.54	12.275147	-56.990253	80.53	-0.330	-0.110	1.780	80.55	-1.50	2.20	 	 	 	 	 	 	 	 	 	 	 	 	 	 	 	 	 	 	1581544228	0.38	0.70
12/02/2020 21:50:29	120220	12022020	215029	80.54	12.275148	-56.990253	80.50	-0.180	-0.370	1.540	80.53	-1.70	1.90	 	 	 	 	 	 	 	 	 	 	 	 	 	 	 	 	 	 	1581544229	0.33	0.61
12/02/2020 21:50:30	120220	12022020	215030	80.52	12.275150	-56.990253	80.49	0.010	-0.360	1.270	80.54	-1.70	1.70	 	 	 	 	 	 	 	 	 	 	 	 	 	 	 	 	 	 	1581544230	0.44	0.81
12/02/2020 21:50:31	120220	12022020	215031	80.63	12.275152	-56.990255	80.59	0.020	-0.260	1.020	80.66	-1.60	1.40	 	 	 	 	 	 	 	 	 	 	 	 	 	 	 	 	 	 	1581544231	0.57	1.06
12/02/2020 21:50:32	120220	12022020	215032	80.74	12.275153	-56.990257	80.68	-0.090	-0.440	0.880	80.74	-1.90	1.30	 	 	 	 	 	 	 	 	 	 	 	 	 	 	 	 	 	 	1581544232	0.19	0.35
12/02/2020 21:50:33	120220	12022020	215033	80.70	12.275152	-56.990253	80.60	0.010	-1.100	0.910	80.67	-2.60	1.40	 	 	 	 	 	 	 	 	 	 	 	 	 	 	 	 	 	 	1581544233	0.75	1.39
12/02/2020 21:50:34	120220	12022020	215034	80.46	12.275148	-56.990247	80.32	0.470	-1.690	1.200	80.39	-3.10	1.70	 	 	 	 	 	 	 	 	 	 	 	 	 	 	 	 	 	 	1581544234	1.50	2.78
12/02/2020 21:50:35	120220	12022020	215035	80.06	12.275147	-56.990243	79.93	0.890	-1.320	1.390	79.99	-2.50	1.80	 	 	 	 	 	 	 	 	 	 	 	 	 	 	 	 	 	 	1581544235	0.97	1.80
12/02/2020 21:50:36	120220	12022020	215036	79.83	12.275148	-56.990245	79.77	0.670	0.200	1.080	79.83	-0.90	1.40	 	 	 	 	 	 	 	 	 	 	 	 	 	 	 	 	 	 	1581544236	0.72	1.33
12/02/2020 21:50:37	120220	12022020	215037	79.93	12.275152	-56.990253	79.90	-0.240	1.820	0.330	79.97	0.60	0.60	 	 	 	 	 	 	 	 	 	 	 	 	 	 	 	 	 	 	1581544237	1.87	3.46
12/02/2020 21:50:38	120220	12022020	215038	80.14	12.275155	-56.990260	80.10	-1.170	2.340	-0.330	80.17	0.90	0.00	 	 	 	 	 	 	 	 	 	 	 	 	 	 	 	 	 	 	1581544238	1.53	2.83
12/02/2020 21:50:39	120220	12022020	215039	80.27	12.275157	-56.990260	80.20	-1.340	1.340	-0.530	80.28	-0.20	-0.10	 	 	 	 	 	 	 	 	 	 	 	 	 	 	 	 	 	 	1581544239	0.37	0.69
12/02/2020 21:50:40	120220	12022020	215040	80.34	12.275157	-56.990253	80.29	-0.690	-0.530	-0.370	80.36	-2.10	0.10	 	 	 	 	 	 	 	 	 	 	 	 	 	 	 	 	 	 	1581544240	1.19	2.20
12/02/2020 21:50:41	120220	12022020	215041	80.40	12.275155	-56.990248	80.35	0.170	-2.010	0.030	80.40	-3.50	0.50	 	 	 	 	 	 	 	 	 	 	 	 	 	 	 	 	 	 	1581544241	1.42	2.63
12/02/2020 21:50:42	120220	12022020	215042	80.32	12.275150	-56.990245	80.24	0.620	-2.280	0.660	80.27	-3.60	1.20	 	 	 	 	 	 	 	 	 	 	 	 	 	 	 	 	 	 	1581544242	0.99	1.83
12/02/2020 21:50:43	120220	12022020	215043	80.03	12.275147	-56.990247	79.94	0.580	-1.590	1.350	79.96	-2.80	1.80	 	 	 	 	 	 	 	 	 	 	 	 	 	 	 	 	 	 	1581544243	0.95	1.76
12/02/2020 21:50:44	120220	12022020	215044	79.72	12.275143	-56.990250	79.66	0.410	-0.620	1.780	79.67	-1.80	2.20	 	 	 	 	 	 	 	 	 	 	 	 	 	 	 	 	 	 	1581544244	0.80	1.48
12/02/2020 21:50:45	120220	12022020	215045	79.61	12.275145	-56.990252	79.60	0.370	0.010	1.730	79.62	-1.30	2.10	 	 	 	 	 	 	 	 	 	 	 	 	 	 	 	 	 	 	1581544245	0.28	0.52
12/02/2020 21:50:46	120220	12022020	215046	79.72	12.275147	-56.990250	79.73	0.380	0.220	1.390	79.76	-1.10	1.70	 	 	 	 	 	 	 	 	 	 	 	 	 	 	 	 	 	 	1581544246	0.71	1.31
12/02/2020 21:50:47	120220	12022020	215047	80.02	12.275150	-56.990248	80.06	0.210	0.520	0.970	80.11	-0.80	1.30	 	 	 	 	 	 	 	 	 	 	 	 	 	 	 	 	 	 	1581544247	0.73	1.35
12/02/2020 21:50:48	120220	12022020	215048	80.44	12.275152	-56.990250	80.46	-0.250	1.070	0.680	80.51	-0.20	1.10	 	 	 	 	 	 	 	 	 	 	 	 	 	 	 	 	 	 	1581544248	0.42	0.78
12/02/2020 21:50:49	120220	12022020	215049	80.66	12.275150	-56.990253	80.59	-0.770	1.310	0.670	80.65	-0.10	1.10	 	 	 	 	 	 	 	 	 	 	 	 	 	 	 	 	 	 	1581544249	0.75	1.39
12/02/2020 21:50:50	120220	12022020	215050	80.50	12.275145	-56.990253	80.37	-0.980	0.760	0.930	80.43	-0.70	1.40	 	 	 	 	 	 	 	 	 	 	 	 	 	 	 	 	 	 	1581544250	0.81	1.50
12/02/2020 21:50:51	120220	12022020	215051	80.13	12.275143	-56.990252	79.98	-0.710	-0.360	1.330	80.05	-1.90	1.80	 	 	 	 	 	 	 	 	 	 	 	 	 	 	 	 	 	 	1581544251	0.86	1.59
12/02/2020 21:50:52	120220	12022020	215052	79.77	12.275142	-56.990248	79.67	-0.140	-1.370	1.650	79.72	-2.80	2.10	 	 	 	 	 	 	 	 	 	 	 	 	 	 	 	 	 	 	1581544252	0.69	1.28
12/02/2020 21:50:53	120220	12022020	215053	79.68	12.275143	-56.990247	79.64	0.470	-1.980	1.550	79.70	-3.40	1.90	 	 	 	 	 	 	 	 	 	 	 	 	 	 	 	 	 	 	1581544253	0.59	1.09
12/02/2020 21:50:54	120220	12022020	215054	79.84	12.275148	-56.990245	79.83	0.910	-2.030	1.130	79.88	-3.30	1.50	 	 	 	 	 	 	 	 	 	 	 	 	 	 	 	 	 	 	1581544254	0.96	1.78
12/02/2020 21:50:55	120220	12022020	215055	80.09	12.275152	-56.990245	80.09	1.050	-1.340	0.740	80.15	-2.50	1.10	 	 	 	 	 	 	 	 	 	 	 	 	 	 	 	 	 	 	1581544255	0.79	1.46
12/02/2020 21:50:56	120220	12022020	215056	80.37	12.275152	-56.990248	80.34	0.790	-0.060	0.530	80.41	-1.20	0.90	 	 	 	 	 	 	 	 	 	 	 	 	 	 	 	 	 	 	1581544256	0.57	1.06
12/02/2020 21:50:57	120220	12022020	215057	80.46	12.275152	-56.990250	80.38	0.260	1.160	0.570	80.45	-0.10	1.00	 	 	 	 	 	 	 	 	 	 	 	 	 	 	 	 	 	 	1581544257	0.69	1.28
12/02/2020 21:50:58	120220	12022020	215058	80.27	12.275150	-56.990252	80.15	-0.310	1.710	0.950	80.21	0.40	1.40	 	 	 	 	 	 	 	 	 	 	 	 	 	 	 	 	 	 	1581544258	0.49	0.91
12/02/2020 21:50:59	120220	12022020	215059	79.96	12.275148	-56.990252	79.86	-0.740	1.510	1.480	79.91	0.10	2.00	 	 	 	 	 	 	 	 	 	 	 	 	 	 	 	 	 	 	1581544259	0.50	0.93
12/02/2020 21:51:00	120220	12022020	215100	79.82	12.275147	-56.990250	79.81	-0.900	0.760	1.720	79.84	-0.70	2.10	 	 	 	 	 	 	 	 	 	 	 	 	 	 	 	 	 	 	1581544260	0.44	0.81
12/02/2020 21:51:01	120220	12022020	215101	79.98	12.275147	-56.990248	79.97	-0.760	-0.330	1.540	80.01	-1.80	1.90	 	 	 	 	 	 	 	 	 	 	 	 	 	 	 	 	 	 	1581544261	0.43	0.80
12/02/2020 21:51:02	120220	12022020	215102	80.12	12.275147	-56.990247	80.09	-0.390	-1.330	1.420	80.13	-2.80	1.80	1014.80	26.30	26.40	20.50	20.50	6.0	70.0	70.0	396.0	26.0	349.00	10.60	70.00	10.20	646	12492.0	27.4	27.4	1581544262	0.54	1.00
12/02/2020 21:51:03	120220	12022020	215103	80.12	12.275147	-56.990243	80.08	0.080	-1.890	1.510	80.12	-3.30	1.90	 	 	 	 	 	 	 	 	 	 	 	 	 	 	 	 	 	 	1581544263	0.46	0.85
12/02/2020 21:51:04	120220	12022020	215104	80.09	12.275145	-56.990242	80.05	0.510	-1.890	1.640	80.09	-3.20	2.10	 	 	 	 	 	 	 	 	 	 	 	 	 	 	 	 	 	 	1581544264	0.40	0.74
12/02/2020 21:51:05	120220	12022020	215105	80.07	12.275145	-56.990242	80.02	0.750	-1.260	1.650	80.06	-2.50	2.00	 	 	 	 	 	 	 	 	 	 	 	 	 	 	 	 	 	 	1581544265	0.26	0.48
12/02/2020 21:51:06	120220	12022020	215106	79.95	12.275145	-56.990245	79.87	0.720	-0.220	1.570	79.92	-1.40	2.00	 	 	 	 	 	 	 	 	 	 	 	 	 	 	 	 	 	 	1581544266	0.36	0.67
12/02/2020 21:51:07	120220	12022020	215107	79.82	12.275147	-56.990247	79.73	0.420	0.850	1.250	79.80	-0.40	1.60	 	 	 	 	 	 	 	 	 	 	 	 	 	 	 	 	 	 	1581544267	0.76	1.41
12/02/2020 21:51:08	120220	12022020	215108	79.78	12.275152	-56.990250	79.71	-0.000	1.320	0.560	79.79	-0.00	0.90	 	 	 	 	 	 	 	 	 	 	 	 	 	 	 	 	 	 	1581544268	1.11	2.06
12/02/2020 21:51:09	120220	12022020	215109	79.84	12.275157	-56.990248	79.78	-0.300	0.930	-0.170	79.87	-0.50	0.20	 	 	 	 	 	 	 	 	 	 	 	 	 	 	 	 	 	 	1581544269	1.21	2.24
12/02/2020 21:51:10	120220	12022020	215110	80.01	12.275160	-56.990247	79.97	-0.380	0.160	-0.490	80.05	-1.30	-0.10	 	 	 	 	 	 	 	 	 	 	 	 	 	 	 	 	 	 	1581544270	0.94	1.74
12/02/2020 21:51:11	120220	12022020	215111	80.17	12.275160	-56.990243	80.13	-0.320	-0.360	-0.180	80.19	-1.80	0.30	 	 	 	 	 	 	 	 	 	 	 	 	 	 	 	 	 	 	1581544271	0.49	0.91
12/02/2020 21:51:12	120220	12022020	215112	80.21	12.275155	-56.990243	80.16	-0.310	-0.480	0.400	80.21	-1.80	0.90	 	 	 	 	 	 	 	 	 	 	 	 	 	 	 	 	 	 	1581544272	0.79	1.46
12/02/2020 21:51:13	120220	12022020	215113	80.22	12.275152	-56.990245	80.17	-0.330	-0.530	0.840	80.22	-1.90	1.30	 	 	 	 	 	 	 	 	 	 	 	 	 	 	 	 	 	 	1581544273	0.82	1.52
12/02/2020 21:51:14	120220	12022020	215114	80.18	12.275150	-56.990243	80.12	-0.180	-0.900	1.210	80.16	-2.30	1.70	 	 	 	 	 	 	 	 	 	 	 	 	 	 	 	 	 	 	1581544274	0.59	1.09
12/02/2020 21:51:15	120220	12022020	215115	80.05	12.275148	-56.990240	79.99	0.180	-1.270	1.670	80.02	-2.60	2.10	 	 	 	 	 	 	 	 	 	 	 	 	 	 	 	 	 	 	1581544275	0.82	1.52
12/02/2020 21:51:16	120220	12022020	215116	79.88	12.275147	-56.990237	79.81	0.490	-1.080	2.170	79.84	-2.30	2.60	 	 	 	 	 	 	 	 	 	 	 	 	 	 	 	 	 	 	1581544276	0.64	1.19
12/02/2020 21:51:17	120220	12022020	215117	79.78	12.275145	-56.990238	79.78	0.490	-0.260	2.330	79.80	-1.50	2.70	 	 	 	 	 	 	 	 	 	 	 	 	 	 	 	 	 	 	1581544277	0.23	0.43
12/02/2020 21:51:18	120220	12022020	215118	80.01	12.275147	-56.990240	80.06	0.250	0.540	1.810	80.10	-0.70	2.10	 	 	 	 	 	 	 	 	 	 	 	 	 	 	 	 	 	 	1581544278	0.64	1.19
12/02/2020 21:51:19	120220	12022020	215119	80.46	12.275152	-56.990242	80.49	0.040	0.840	0.880	80.54	-0.50	1.20	 	 	 	 	 	 	 	 	 	 	 	 	 	 	 	 	 	 	1581544279	0.94	1.74
12/02/2020 21:51:20	120220	12022020	215120	80.74	12.275155	-56.990242	80.70	-0.060	0.680	0.150	80.76	-0.70	0.50	 	 	 	 	 	 	 	 	 	 	 	 	 	 	 	 	 	 	1581544280	0.85	1.57
12/02/2020 21:51:21	120220	12022020	215121	80.68	12.275157	-56.990240	80.57	-0.200	0.280	0.000	80.63	-1.10	0.40	 	 	 	 	 	 	 	 	 	 	 	 	 	 	 	 	 	 	1581544281	0.43	0.80
12/02/2020 21:51:22	120220	12022020	215122	80.34	12.275155	-56.990240	80.23	-0.410	-0.130	0.330	80.27	-1.50	0.80	 	 	 	 	 	 	 	 	 	 	 	 	 	 	 	 	 	 	1581544282	0.29	0.54
12/02/2020 21:51:23	120220	12022020	215123	79.98	12.275155	-56.990238	79.87	-0.510	-0.490	0.700	79.92	-1.90	1.20	 	 	 	 	 	 	 	 	 	 	 	 	 	 	 	 	 	 	1581544283	0.24	0.44
12/02/2020 21:51:24	120220	12022020	215124	79.71	12.275155	-56.990238	79.64	-0.280	-0.920	0.880	79.68	-2.30	1.30	 	 	 	 	 	 	 	 	 	 	 	 	 	 	 	 	 	 	1581544284	0.26	0.48
12/02/2020 21:51:25	120220	12022020	215125	79.70	12.275157	-56.990235	79.72	0.170	-1.310	0.820	79.75	-2.70	1.20	 	 	 	 	 	 	 	 	 	 	 	 	 	 	 	 	 	 	1581544285	0.65	1.20
12/02/2020 21:51:26	120220	12022020	215126	80.10	12.275158	-56.990233	80.19	0.470	-1.220	0.630	80.22	-2.50	1.00	 	 	 	 	 	 	 	 	 	 	 	 	 	 	 	 	 	 	1581544286	0.51	0.94
12/02/2020 21:51:27	120220	12022020	215127	80.73	12.275157	-56.990233	80.81	0.410	-0.450	0.560	80.84	-1.70	1.00	 	 	 	 	 	 	 	 	 	 	 	 	 	 	 	 	 	 	1581544287	0.34	0.63
12/02/2020 21:51:28	120220	12022020	215128	81.09	12.275153	-56.990237	81.06	0.160	0.430	0.820	81.09	-0.80	1.30	 	 	 	 	 	 	 	 	 	 	 	 	 	 	 	 	 	 	1581544288	0.90	1.67
12/02/2020 21:51:29	120220	12022020	215129	80.83	12.275150	-56.990237	80.70	0.010	0.840	1.390	80.72	-0.50	1.90	 	 	 	 	 	 	 	 	 	 	 	 	 	 	 	 	 	 	1581544289	0.81	1.50
12/02/2020 21:51:30	120220	12022020	215130	80.20	12.275148	-56.990237	80.04	-0.010	0.740	1.880	80.06	-0.70	2.30	 	 	 	 	 	 	 	 	 	 	 	 	 	 	 	 	 	 	1581544290	0.47	0.87
12/02/2020 21:51:31	120220	12022020	215131	79.64	12.275148	-56.990235	79.55	-0.040	0.340	2.010	79.57	-1.10	2.40	 	 	 	 	 	 	 	 	 	 	 	 	 	 	 	 	 	 	1581544291	0.39	0.72
12/02/2020 21:51:32	120220	12022020	215132	79.45	12.275152	-56.990233	79.45	-0.180	-0.120	1.710	79.46	-1.50	2.10	 	 	 	 	 	 	 	 	 	 	 	 	 	 	 	 	 	 	1581544292	0.68	1.26
12/02/2020 21:51:33	120220	12022020	215133	79.66	12.275155	-56.990233	79.71	-0.310	-0.570	1.150	79.74	-2.00	1.50	 	 	 	 	 	 	 	 	 	 	 	 	 	 	 	 	 	 	1581544293	0.83	1.54
12/02/2020 21:51:34	120220	12022020	215134	80.06	12.275158	-56.990233	80.11	-0.260	-0.980	0.590	80.15	-2.40	0.90	 	 	 	 	 	 	 	 	 	 	 	 	 	 	 	 	 	 	1581544294	0.78	1.44
12/02/2020 21:51:35	120220	12022020	215135	80.42	12.275162	-56.990232	80.42	-0.050	-1.120	0.220	80.47	-2.40	0.60	 	 	 	 	 	 	 	 	 	 	 	 	 	 	 	 	 	 	1581544295	0.49	0.91
12/02/2020 21:51:36	120220	12022020	215136	80.57	12.275160	-56.990232	80.51	0.130	-0.830	0.200	80.56	-2.10	0.70	 	 	 	 	 	 	 	 	 	 	 	 	 	 	 	 	 	 	1581544296	0.12	0.22
12/02/2020 21:51:37	120220	12022020	215137	80.39	12.275157	-56.990232	80.26	0.190	-0.340	0.750	80.31	-1.60	1.30	 	 	 	 	 	 	 	 	 	 	 	 	 	 	 	 	 	 	1581544297	0.99	1.83
12/02/2020 21:51:38	120220	12022020	215138	79.94	12.275150	-56.990232	79.80	0.250	-0.010	1.560	79.84	-1.30	2.10	 	 	 	 	 	 	 	 	 	 	 	 	 	 	 	 	 	 	1581544298	1.31	2.43
12/02/2020 21:51:39	120220	12022020	215139	79.55	12.275148	-56.990230	79.48	0.310	0.200	2.000	79.50	-1.10	2.40	 	 	 	 	 	 	 	 	 	 	 	 	 	 	 	 	 	 	1581544299	0.65	1.20
12/02/2020 21:51:40	120220	12022020	215140	79.46	12.275150	-56.990230	79.44	0.220	0.490	1.740	79.47	-0.80	2.10	 	 	 	 	 	 	 	 	 	 	 	 	 	 	 	 	 	 	1581544300	0.56	1.04
12/02/2020 21:51:41	120220	12022020	215141	79.54	12.275157	-56.990233	79.52	-0.110	0.700	1.010	79.57	-0.60	1.30	 	 	 	 	 	 	 	 	 	 	 	 	 	 	 	 	 	 	1581544301	1.43	2.65
12/02/2020 21:51:42	120220	12022020	215142	79.66	12.275162	-56.990235	79.62	-0.450	0.500	0.340	79.70	-0.90	0.70	 	 	 	 	 	 	 	 	 	 	 	 	 	 	 	 	 	 	1581544302	1.40	2.59
12/02/2020 21:51:43	120220	12022020	215143	79.83	12.275165	-56.990235	79.78	-0.510	-0.170	0.100	79.87	-1.60	0.50	 	 	 	 	 	 	 	 	 	 	 	 	 	 	 	 	 	 	1581544303	0.58	1.07
12/02/2020 21:51:44	120220	12022020	215144	80.01	12.275163	-56.990233	79.97	-0.270	-1.030	0.270	80.04	-2.50	0.70	 	 	 	 	 	 	 	 	 	 	 	 	 	 	 	 	 	 	1581544304	0.64	1.19
12/02/2020 21:51:45	120220	12022020	215145	80.07	12.275160	-56.990230	79.99	0.070	-1.600	0.670	80.04	-3.00	1.10	 	 	 	 	 	 	 	 	 	 	 	 	 	 	 	 	 	 	1581544305	1.11	2.06
12/02/2020 21:51:46	120220	12022020	215146	79.77	12.275155	-56.990227	79.61	0.300	-1.520	1.180	79.66	-2.80	1.70	 	 	 	 	 	 	 	 	 	 	 	 	 	 	 	 	 	 	1581544306	0.99	1.83
12/02/2020 21:51:47	120220	12022020	215147	79.19	12.275153	-56.990227	79.05	0.330	-0.790	1.610	79.09	-2.00	2.10	 	 	 	 	 	 	 	 	 	 	 	 	 	 	 	 	 	 	1581544307	0.61	1.13
12/02/2020 21:51:48	120220	12022020	215148	78.82	12.275152	-56.990230	78.77	0.160	0.330	1.690	78.79	-0.90	2.10	 	 	 	 	 	 	 	 	 	 	 	 	 	 	 	 	 	 	1581544308	0.68	1.26
12/02/2020 21:51:49	120220	12022020	215149	78.93	12.275153	-56.990235	78.99	-0.080	1.220	1.310	79.00	-0.10	1.60	 	 	 	 	 	 	 	 	 	 	 	 	 	 	 	 	 	 	1581544309	0.97	1.80
12/02/2020 21:51:50	120220	12022020	215150	79.39	12.275157	-56.990237	79.44	-0.200	1.230	0.680	79.49	-0.20	1.00	 	 	 	 	 	 	 	 	 	 	 	 	 	 	 	 	 	 	1581544310	0.84	1.56
12/02/2020 21:51:51	120220	12022020	215151	79.77	12.275160	-56.990235	79.75	-0.130	0.420	0.110	79.81	-1.10	0.50	 	 	 	 	 	 	 	 	 	 	 	 	 	 	 	 	 	 	1581544311	0.85	1.57
12/02/2020 21:51:52	120220	12022020	215152	79.82	12.275163	-56.990233	79.70	0.050	-0.590	-0.150	79.78	-2.00	0.30	 	 	 	 	 	 	 	 	 	 	 	 	 	 	 	 	 	 	1581544312	0.85	1.57
12/02/2020 21:51:53	120220	12022020	215153	79.49	12.275163	-56.990230	79.33	0.230	-1.270	0.150	79.40	-2.60	0.70	 	 	 	 	 	 	 	 	 	 	 	 	 	 	 	 	 	 	1581544313	0.56	1.04
12/02/2020 21:51:54	120220	12022020	215154	79.09	12.275162	-56.990228	79.01	0.260	-1.300	0.830	79.05	-2.60	1.30	 	 	 	 	 	 	 	 	 	 	 	 	 	 	 	 	 	 	1581544314	0.46	0.85
12/02/2020 21:51:55	120220	12022020	215155	79.09	12.275158	-56.990232	79.12	0.010	-0.550	1.340	79.14	-1.70	1.80	 	 	 	 	 	 	 	 	 	 	 	 	 	 	 	 	 	 	1581544315	0.74	1.37
12/02/2020 21:51:56	120220	12022020	215156	79.42	12.275157	-56.990237	79.46	-0.390	0.400	1.530	79.49	-0.90	2.00	 	 	 	 	 	 	 	 	 	 	 	 	 	 	 	 	 	 	1581544316	1.10	2.04
12/02/2020 21:51:57	120220	12022020	215157	79.72	12.275155	-56.990238	79.72	-0.610	0.640	1.570	79.76	-0.80	2.00	 	 	 	 	 	 	 	 	 	 	 	 	 	 	 	 	 	 	1581544317	0.63	1.17
12/02/2020 21:51:58	120220	12022020	215158	79.92	12.275153	-56.990237	79.92	-0.460	-0.000	1.640	79.95	-1.50	2.10	 	 	 	 	 	 	 	 	 	 	 	 	 	 	 	 	 	 	1581544318	0.68	1.26
12/02/2020 21:51:59	120220	12022020	215159	80.05	12.275150	-56.990232	80.04	-0.060	-0.750	1.760	80.06	-2.10	2.20	 	 	 	 	 	 	 	 	 	 	 	 	 	 	 	 	 	 	1581544319	1.28	2.37
12/02/2020 21:52:00	120220	12022020	215200	80.04	12.275147	-56.990228	79.97	0.310	-0.870	1.770	80.00	-2.20	2.10	 	 	 	 	 	 	 	 	 	 	 	 	 	 	 	 	 	 	1581544320	0.91	1.69
12/02/2020 21:52:01	120220	12022020	215201	79.79	12.275147	-56.990230	79.68	0.510	-0.450	1.560	79.72	-1.70	1.90	 	 	 	 	 	 	 	 	 	 	 	 	 	 	 	 	 	 	1581544321	0.27	0.50
12/02/2020 21:52:02	120220	12022020	215202	79.39	12.275150	-56.990233	79.26	0.460	0.080	1.140	79.31	-1.20	1.50	1014.80	26.40	26.40	20.80	20.80	5.0	71.0	71.0	398.0	26.0	352.00	10.00	71.00	9.70	575	12355.0	27.4	27.4	1581544322	1.00	1.85
12/02/2020 21:52:03	120220	12022020	215203	79.12	12.275157	-56.990237	79.05	0.190	0.440	0.400	79.11	-0.90	0.70	 	 	 	 	 	 	 	 	 	 	 	 	 	 	 	 	 	 	1581544323	1.74	3.22
12/02/2020 21:52:04	120220	12022020	215204	79.22	12.275165	-56.990238	79.20	-0.160	0.410	-0.580	79.28	-1.00	-0.30	 	 	 	 	 	 	 	 	 	 	 	 	 	 	 	 	 	 	1581544324	1.91	3.54
12/02/2020 21:52:05	120220	12022020	215205	79.63	12.275172	-56.990238	79.65	-0.390	-0.000	-1.410	79.73	-1.40	-1.10	 	 	 	 	 	 	 	 	 	 	 	 	 	 	 	 	 	 	1581544325	1.36	2.52
12/02/2020 21:52:06	120220	12022020	215206	80.07	12.275172	-56.990238	80.08	-0.360	-0.470	-1.400	80.13	-1.90	-0.90	 	 	 	 	 	 	 	 	 	 	 	 	 	 	 	 	 	 	1581544326	0.30	0.56
12/02/2020 21:52:07	120220	12022020	215207	80.26	12.275167	-56.990235	80.24	-0.090	-0.780	-0.410	80.26	-2.10	0.20	 	 	 	 	 	 	 	 	 	 	 	 	 	 	 	 	 	 	1581544327	1.33	2.46
12/02/2020 21:52:08	120220	12022020	215208	80.20	12.275158	-56.990233	80.17	0.290	-0.900	0.990	80.17	-2.20	1.60	 	 	 	 	 	 	 	 	 	 	 	 	 	 	 	 	 	 	1581544328	1.92	3.56
12/02/2020 21:52:09	120220	12022020	215209	80.01	12.275150	-56.990232	79.97	0.540	-0.760	2.290	79.95	-2.00	2.80	 	 	 	 	 	 	 	 	 	 	 	 	 	 	 	 	 	 	1581544329	1.78	3.30
12/02/2020 21:52:10	120220	12022020	215210	79.71	12.275143	-56.990230	79.69	0.460	-0.320	3.230	79.65	-1.60	3.70	 	 	 	 	 	 	 	 	 	 	 	 	 	 	 	 	 	 	1581544330	1.33	2.46
12/02/2020 21:52:11	120220	12022020	215211	79.43	12.275140	-56.990232	79.45	0.040	0.250	3.710	79.39	-1.00	4.10	 	 	 	 	 	 	 	 	 	 	 	 	 	 	 	 	 	 	1581544331	0.79	1.46
12/02/2020 21:52:12	120220	12022020	215212	79.32	12.275140	-56.990233	79.38	-0.450	0.620	3.540	79.32	-0.70	3.90	 	 	 	 	 	 	 	 	 	 	 	 	 	 	 	 	 	 	1581544332	0.39	0.72
12/02/2020 21:52:13	120220	12022020	215213	79.37	12.275143	-56.990235	79.42	-0.680	0.610	2.640	79.39	-0.80	2.90	 	 	 	 	 	 	 	 	 	 	 	 	 	 	 	 	 	 	1581544333	0.90	1.67
12/02/2020 21:52:14	120220	12022020	215214	79.52	12.275150	-56.990237	79.54	-0.530	0.250	1.220	79.56	-1.20	1.40	 	 	 	 	 	 	 	 	 	 	 	 	 	 	 	 	 	 	1581544334	1.62	3.00
12/02/2020 21:52:15	120220	12022020	215215	79.71	12.275160	-56.990237	79.69	-0.140	-0.300	-0.240	79.75	-1.70	0.00	 	 	 	 	 	 	 	 	 	 	 	 	 	 	 	 	 	 	1581544335	1.89	3.50
12/02/2020 21:52:16	120220	12022020	215216	79.89	12.275165	-56.990237	79.85	0.230	-0.860	-1.270	79.92	-2.20	-0.90	 	 	 	 	 	 	 	 	 	 	 	 	 	 	 	 	 	 	1581544336	1.42	2.63
12/02/2020 21:52:17	120220	12022020	215217	79.95	12.275168	-56.990237	79.88	0.380	-1.140	-1.640	79.94	-2.50	-1.20	 	 	 	 	 	 	 	 	 	 	 	 	 	 	 	 	 	 	1581544337	0.53	0.98
12/02/2020 21:52:18	120220	12022020	215218	79.76	12.275167	-56.990235	79.66	0.320	-1.070	-1.420	79.70	-2.40	-0.90	 	 	 	 	 	 	 	 	 	 	 	 	 	 	 	 	 	 	1581544338	0.23	0.43
12/02/2020 21:52:19	120220	12022020	215219	79.46	12.275165	-56.990235	79.39	0.220	-0.670	-0.860	79.42	-1.90	-0.40	 	 	 	 	 	 	 	 	 	 	 	 	 	 	 	 	 	 	1581544339	0.42	0.78
12/02/2020 21:52:20	120220	12022020	215220	79.26	12.275163	-56.990237	79.22	0.170	-0.010	-0.110	79.24	-1.20	0.40	 	 	 	 	 	 	 	 	 	 	 	 	 	 	 	 	 	 	1581544340	0.49	0.91
12/02/2020 21:52:21	120220	12022020	215221	79.27	12.275160	-56.990238	79.31	0.080	0.570	0.720	79.31	-0.70	1.20	 	 	 	 	 	 	 	 	 	 	 	 	 	 	 	 	 	 	1581544341	0.75	1.39
12/02/2020 21:52:22	120220	12022020	215222	79.57	12.275155	-56.990238	79.66	-0.130	0.690	1.510	79.65	-0.70	2.00	 	 	 	 	 	 	 	 	 	 	 	 	 	 	 	 	 	 	1581544342	1.10	2.04
12/02/2020 21:52:23	120220	12022020	215223	79.89	12.275148	-56.990237	79.93	-0.410	0.320	2.340	79.92	-1.10	2.90	 	 	 	 	 	 	 	 	 	 	 	 	 	 	 	 	 	 	1581544343	1.51	2.80
12/02/2020 21:52:24	120220	12022020	215224	79.90	12.275142	-56.990233	79.88	-0.530	-0.240	3.170	79.87	-1.60	3.70	 	 	 	 	 	 	 	 	 	 	 	 	 	 	 	 	 	 	1581544344	1.54	2.85
12/02/2020 21:52:25	120220	12022020	215225	79.65	12.275138	-56.990232	79.61	-0.350	-0.510	3.560	79.59	-1.80	4.00	 	 	 	 	 	 	 	 	 	 	 	 	 	 	 	 	 	 	1581544345	0.78	1.44
12/02/2020 21:52:26	120220	12022020	215226	79.39	12.275140	-56.990235	79.36	-0.030	-0.320	3.180	79.35	-1.60	3.50	 	 	 	 	 	 	 	 	 	 	 	 	 	 	 	 	 	 	1581544346	0.59	1.09
12/02/2020 21:52:27	120220	12022020	215227	79.28	12.275147	-56.990238	79.28	0.220	-0.080	2.240	79.28	-1.40	2.50	 	 	 	 	 	 	 	 	 	 	 	 	 	 	 	 	 	 	1581544347	1.51	2.80
12/02/2020 21:52:28	120220	12022020	215228	79.40	12.275152	-56.990240	79.42	0.310	-0.310	1.240	79.46	-1.70	1.50	 	 	 	 	 	 	 	 	 	 	 	 	 	 	 	 	 	 	1581544348	1.44	2.67
12/02/2020 21:52:29	120220	12022020	215229	79.76	12.275157	-56.990238	79.77	0.350	-0.980	0.340	79.84	-2.40	0.60	 	 	 	 	 	 	 	 	 	 	 	 	 	 	 	 	 	 	1581544349	1.04	1.93
12/02/2020 21:52:30	120220	12022020	215230	80.06	12.275160	-56.990235	79.99	0.450	-1.420	-0.270	80.07	-2.70	0.10	 	 	 	 	 	 	 	 	 	 	 	 	 	 	 	 	 	 	1581544350	0.93	1.72
12/02/2020 21:52:31	120220	12022020	215231	79.93	12.275160	-56.990235	79.77	0.530	-1.000	-0.360	79.85	-2.20	0.10	 	 	 	 	 	 	 	 	 	 	 	 	 	 	 	 	 	 	1581544351	0.30	0.56
12/02/2020 21:52:32	120220	12022020	215232	79.54	12.275160	-56.990237	79.40	0.290	0.160	-0.110	79.47	-1.00	0.40	 	 	 	 	 	 	 	 	 	 	 	 	 	 	 	 	 	 	1581544352	0.63	1.17
12/02/2020 21:52:33	120220	12022020	215233	79.41	12.275160	-56.990243	79.38	-0.330	1.320	0.240	79.44	0.10	0.70	 	 	 	 	 	 	 	 	 	 	 	 	 	 	 	 	 	 	1581544353	1.14	2.11
12/02/2020 21:52:34	120220	12022020	215234	79.73	12.275157	-56.990247	79.79	-0.940	1.680	0.610	79.83	0.30	1.10	 	 	 	 	 	 	 	 	 	 	 	 	 	 	 	 	 	 	1581544354	0.95	1.76
12/02/2020 21:52:35	120220	12022020	215235	80.20	12.275153	-56.990247	80.25	-1.030	0.910	1.100	80.28	-0.60	1.60	 	 	 	 	 	 	 	 	 	 	 	 	 	 	 	 	 	 	1581544355	0.79	1.46
12/02/2020 21:52:36	120220	12022020	215236	80.51	12.275148	-56.990242	80.51	-0.470	-0.510	1.770	80.53	-2.00	2.30	 	 	 	 	 	 	 	 	 	 	 	 	 	 	 	 	 	 	1581544356	1.38	2.56
12/02/2020 21:52:37	120220	12022020	215237	80.49	12.275143	-56.990237	80.45	0.340	-1.650	2.500	80.46	-3.10	3.00	 	 	 	 	 	 	 	 	 	 	 	 	 	 	 	 	 	 	1581544357	1.45	2.69
12/02/2020 21:52:38	120220	12022020	215238	80.31	12.275142	-56.990235	80.27	0.840	-1.840	3.010	80.27	-3.10	3.40	 	 	 	 	 	 	 	 	 	 	 	 	 	 	 	 	 	 	1581544358	0.72	1.33
12/02/2020 21:52:39	120220	12022020	215239	80.08	12.275140	-56.990237	80.05	0.770	-1.170	3.150	80.04	-2.40	3.50	 	 	 	 	 	 	 	 	 	 	 	 	 	 	 	 	 	 	1581544359	0.47	0.87
12/02/2020 21:52:40	120220	12022020	215240	79.90	12.275143	-56.990242	79.89	0.310	-0.270	2.860	79.89	-1.50	3.20	 	 	 	 	 	 	 	 	 	 	 	 	 	 	 	 	 	 	1581544360	0.90	1.67
12/02/2020 21:52:41	120220	12022020	215241	79.93	12.275147	-56.990243	79.93	-0.170	0.370	2.180	79.95	-0.90	2.50	 	 	 	 	 	 	 	 	 	 	 	 	 	 	 	 	 	 	1581544361	0.95	1.76
12/02/2020 21:52:42	120220	12022020	215242	80.12	12.275150	-56.990245	80.14	-0.380	0.650	1.170	80.18	-0.70	1.40	 	 	 	 	 	 	 	 	 	 	 	 	 	 	 	 	 	 	1581544362	0.97	1.80
12/02/2020 21:52:43	120220	12022020	215243	80.46	12.275155	-56.990247	80.47	-0.280	0.570	-0.010	80.52	-0.80	0.20	 	 	 	 	 	 	 	 	 	 	 	 	 	 	 	 	 	 	1581544363	1.12	2.07
12/02/2020 21:52:44	120220	12022020	215244	80.74	12.275160	-56.990247	80.71	-0.020	0.210	-0.950	80.78	-1.20	-0.60	 	 	 	 	 	 	 	 	 	 	 	 	 	 	 	 	 	 	1581544364	1.06	1.96
12/02/2020 21:52:45	120220	12022020	215245	80.82	12.275163	-56.990245	80.75	0.140	-0.250	-1.300	80.82	-1.60	-0.90	 	 	 	 	 	 	 	 	 	 	 	 	 	 	 	 	 	 	1581544365	0.68	1.26
12/02/2020 21:52:46	120220	12022020	215246	80.78	12.275163	-56.990245	80.74	0.010	-0.440	-1.090	80.78	-1.80	-0.60	 	 	 	 	 	 	 	 	 	 	 	 	 	 	 	 	 	 	1581544366	0.09	0.17
12/02/2020 21:52:47	120220	12022020	215247	80.77	12.275160	-56.990247	80.75	-0.330	-0.250	-0.410	80.77	-1.50	0.10	 	 	 	 	 	 	 	 	 	 	 	 	 	 	 	 	 	 	1581544367	0.68	1.26
12/02/2020 21:52:48	120220	12022020	215248	80.79	12.275155	-56.990248	80.79	-0.530	-0.080	0.610	80.79	-1.40	1.20	 	 	 	 	 	 	 	 	 	 	 	 	 	 	 	 	 	 	1581544368	1.25	2.31
12/02/2020 21:52:49	120220	12022020	215249	80.77	12.275148	-56.990248	80.77	-0.350	-0.320	1.760	80.75	-1.70	2.30	 	 	 	 	 	 	 	 	 	 	 	 	 	 	 	 	 	 	1581544369	1.54	2.85
12/02/2020 21:52:50	120220	12022020	215250	80.62	12.275142	-56.990245	80.59	0.120	-0.770	2.680	80.58	-2.10	3.20	 	 	 	 	 	 	 	 	 	 	 	 	 	 	 	 	 	 	1581544370	1.36	2.52
12/02/2020 21:52:51	120220	12022020	215251	80.37	12.275140	-56.990242	80.34	0.590	-1.010	3.190	80.32	-2.30	3.60	 	 	 	 	 	 	 	 	 	 	 	 	 	 	 	 	 	 	1581544371	0.73	1.35
12/02/2020 21:52:52	120220	12022020	215252	80.16	12.275140	-56.990242	80.18	0.770	-0.890	3.340	80.15	-2.20	3.70	 	 	 	 	 	 	 	 	 	 	 	 	 	 	 	 	 	 	1581544372	0.28	0.52
12/02/2020 21:52:53	120220	12022020	215253	80.24	12.275142	-56.990242	80.31	0.600	-0.420	2.960	80.29	-1.60	3.20	 	 	 	 	 	 	 	 	 	 	 	 	 	 	 	 	 	 	1581544373	0.44	0.81
12/02/2020 21:52:54	120220	12022020	215254	80.64	12.275147	-56.990243	80.73	0.190	0.330	1.850	80.76	-0.90	2.10	 	 	 	 	 	 	 	 	 	 	 	 	 	 	 	 	 	 	1581544374	1.19	2.20
12/02/2020 21:52:55	120220	12022020	215255	81.27	12.275153	-56.990248	81.35	-0.290	1.060	0.400	81.40	-0.20	0.60	 	 	 	 	 	 	 	 	 	 	 	 	 	 	 	 	 	 	1581544375	1.74	3.22
12/02/2020 21:52:56	120220	12022020	215256	81.80	12.275158	-56.990252	81.78	-0.630	1.200	-0.630	81.85	-0.20	-0.30	 	 	 	 	 	 	 	 	 	 	 	 	 	 	 	 	 	 	1581544376	1.27	2.35
12/02/2020 21:52:57	120220	12022020	215257	81.85	12.275158	-56.990252	81.72	-0.670	0.500	-0.800	81.79	-1.00	-0.40	 	 	 	 	 	 	 	 	 	 	 	 	 	 	 	 	 	 	1581544377	0.12	0.22
12/02/2020 21:52:58	120220	12022020	215258	81.39	12.275157	-56.990248	81.20	-0.380	-0.620	-0.290	81.26	-2.10	0.20	 	 	 	 	 	 	 	 	 	 	 	 	 	 	 	 	 	 	1581544378	0.93	1.72
12/02/2020 21:52:59	120220	12022020	215259	80.76	12.275153	-56.990245	80.62	0.080	-1.500	0.440	80.66	-2.90	0.90	 	 	 	 	 	 	 	 	 	 	 	 	 	 	 	 	 	 	1581544379	1.11	2.06
12/02/2020 21:53:00	120220	12022020	215300	80.37	12.275150	-56.990243	80.29	0.450	-1.690	1.010	80.33	-2.90	1.50	 	 	 	 	 	 	 	 	 	 	 	 	 	 	 	 	 	 	1581544380	0.68	1.26
12/02/2020 21:53:01	120220	12022020	215301	80.29	12.275150	-56.990243	80.28	0.460	-1.030	1.160	80.31	-2.20	1.50	 	 	 	 	 	 	 	 	 	 	 	 	 	 	 	 	 	 	1581544381	0.26	0.48
12/02/2020 21:53:02	120220	12022020	215302	80.51	12.275153	-56.990248	80.53	0.120	0.140	0.890	80.59	-1.00	1.20	1014.80	26.30	26.40	20.80	20.80	4.0	71.0	71.0	396.0	26.0	352.00	10.30	72.00	9.90	511	12635.0	27.5	27.4	1581544382	1.13	2.09
12/02/2020 21:53:03	120220	12022020	215303	80.98	12.275155	-56.990253	81.01	-0.260	0.950	0.520	81.07	-0.30	0.90	 	 	 	 	 	 	 	 	 	 	 	 	 	 	 	 	 	 	1581544383	1.14	2.11
12/02/2020 21:53:04	120220	12022020	215304	81.43	12.275155	-56.990253	81.45	-0.280	0.670	0.440	81.49	-0.80	0.90	 	 	 	 	 	 	 	 	 	 	 	 	 	 	 	 	 	 	1581544384	0.07	0.13
12/02/2020 21:53:05	120220	12022020	215305	81.60	12.275152	-56.990248	81.55	0.100	-0.370	0.880	81.59	-1.80	1.40	 	 	 	 	 	 	 	 	 	 	 	 	 	 	 	 	 	 	1581544385	1.27	2.35
12/02/2020 21:53:06	120220	12022020	215306	81.37	12.275147	-56.990243	81.26	0.500	-1.000	1.660	81.28	-2.30	2.20	 	 	 	 	 	 	 	 	 	 	 	 	 	 	 	 	 	 	1581544386	1.58	2.93
12/02/2020 21:53:07	120220	12022020	215307	80.92	12.275143	-56.990243	80.82	0.500	-0.640	2.200	80.83	-1.90	2.60	 	 	 	 	 	 	 	 	 	 	 	 	 	 	 	 	 	 	1581544387	0.79	1.46
12/02/2020 21:53:08	120220	12022020	215308	80.54	12.275143	-56.990247	80.47	0.110	0.160	2.220	80.49	-1.10	2.60	 	 	 	 	 	 	 	 	 	 	 	 	 	 	 	 	 	 	1581544388	0.79	1.46
12/02/2020 21:53:09	120220	12022020	215309	80.46	12.275147	-56.990250	80.46	-0.310	0.580	1.770	80.50	-0.70	2.10	 	 	 	 	 	 	 	 	 	 	 	 	 	 	 	 	 	 	1581544389	1.01	1.87
12/02/2020 21:53:10	120220	12022020	215310	80.78	12.275150	-56.990252	80.83	-0.490	0.300	1.050	80.86	-1.10	1.40	 	 	 	 	 	 	 	 	 	 	 	 	 	 	 	 	 	 	1581544390	0.88	1.63
12/02/2020 21:53:11	120220	12022020	215311	81.13	12.275153	-56.990250	81.11	-0.400	-0.320	0.450	81.16	-1.70	0.80	 	 	 	 	 	 	 	 	 	 	 	 	 	 	 	 	 	 	1581544391	0.74	1.37
12/02/2020 21:53:12	120220	12022020	215312	81.13	12.275155	-56.990247	81.04	-0.170	-0.680	0.230	81.10	-2.00	0.60	 	 	 	 	 	 	 	 	 	 	 	 	 	 	 	 	 	 	1581544392	0.43	0.80
12/02/2020 21:53:13	120220	12022020	215313	80.90	12.275153	-56.990248	80.79	0.100	-0.670	0.250	80.85	-2.00	0.70	 	 	 	 	 	 	 	 	 	 	 	 	 	 	 	 	 	 	1581544393	0.03	0.06
12/02/2020 21:53:14	120220	12022020	215314	80.70	12.275155	-56.990248	80.63	0.400	-0.630	0.360	80.67	-2.00	0.80	 	 	 	 	 	 	 	 	 	 	 	 	 	 	 	 	 	 	1581544394	0.07	0.13
12/02/2020 21:53:15	120220	12022020	215315	80.60	12.275155	-56.990247	80.56	0.540	-0.600	0.590	80.60	-1.90	1.00	 	 	 	 	 	 	 	 	 	 	 	 	 	 	 	 	 	 	1581544395	0.22	0.41
12/02/2020 21:53:16	120220	12022020	215316	80.63	12.275155	-56.990247	80.63	0.290	-0.180	0.790	80.66	-1.40	1.20	 	 	 	 	 	 	 	 	 	 	 	 	 	 	 	 	 	 	1581544396	0.06	0.11
12/02/2020 21:53:17	120220	12022020	215317	80.84	12.275153	-56.990250	80.86	-0.280	0.570	0.960	80.90	-0.70	1.40	 	 	 	 	 	 	 	 	 	 	 	 	 	 	 	 	 	 	1581544397	0.69	1.28
12/02/2020 21:53:18	120220	12022020	215318	81.09	12.275150	-56.990253	81.10	-0.690	0.860	1.280	81.12	-0.50	1.70	 	 	 	 	 	 	 	 	 	 	 	 	 	 	 	 	 	 	1581544398	0.84	1.56
12/02/2020 21:53:19	120220	12022020	215319	81.18	12.275147	-56.990252	81.15	-0.510	0.170	1.710	81.17	-1.30	2.20	 	 	 	 	 	 	 	 	 	 	 	 	 	 	 	 	 	 	1581544399	0.77	1.43
12/02/2020 21:53:20	120220	12022020	215320	81.06	12.275145	-56.990245	80.99	0.200	-0.960	2.000	81.01	-2.40	2.40	 	 	 	 	 	 	 	 	 	 	 	 	 	 	 	 	 	 	1581544400	1.20	2.22
12/02/2020 21:53:21	120220	12022020	215321	80.75	12.275147	-56.990242	80.65	0.840	-1.470	2.120	80.68	-2.80	2.50	 	 	 	 	 	 	 	 	 	 	 	 	 	 	 	 	 	 	1581544401	0.92	1.70
12/02/2020 21:53:22	120220	12022020	215322	80.47	12.275148	-56.990242	80.44	0.880	-0.980	2.090	80.45	-2.20	2.50	 	 	 	 	 	 	 	 	 	 	 	 	 	 	 	 	 	 	1581544402	0.32	0.59
12/02/2020 21:53:23	120220	12022020	215323	80.61	12.275150	-56.990245	80.68	0.360	0.000	1.750	80.71	-1.20	2.10	 	 	 	 	 	 	 	 	 	 	 	 	 	 	 	 	 	 	1581544403	0.93	1.72
12/02/2020 21:53:24	120220	12022020	215324	81.19	12.275153	-56.990250	81.29	-0.250	0.700	1.100	81.33	-0.60	1.40	 	 	 	 	 	 	 	 	 	 	 	 	 	 	 	 	 	 	1581544404	1.01	1.87
12/02/2020 21:53:25	120220	12022020	215325	81.76	12.275155	-56.990250	81.77	-0.600	0.850	0.500	81.83	-0.50	0.80	 	 	 	 	 	 	 	 	 	 	 	 	 	 	 	 	 	 	1581544405	0.61	1.13
12/02/2020 21:53:26	120220	12022020	215326	81.85	12.275157	-56.990252	81.74	-0.670	0.650	0.270	81.81	-0.70	0.70	 	 	 	 	 	 	 	 	 	 	 	 	 	 	 	 	 	 	1581544406	0.20	0.37
12/02/2020 21:53:27	120220	12022020	215327	81.49	12.275155	-56.990250	81.35	-0.570	0.190	0.440	81.41	-1.20	0.90	 	 	 	 	 	 	 	 	 	 	 	 	 	 	 	 	 	 	1581544407	0.09	0.17
12/02/2020 21:53:28	120220	12022020	215328	81.10	12.275155	-56.990250	81.01	-0.310	-0.590	0.760	81.05	-2.00	1.20	 	 	 	 	 	 	 	 	 	 	 	 	 	 	 	 	 	 	1581544408	0.35	0.65
12/02/2020 21:53:29	120220	12022020	215329	80.97	12.275155	-56.990247	80.95	0.150	-1.420	0.970	80.98	-2.80	1.40	 	 	 	 	 	 	 	 	 	 	 	 	 	 	 	 	 	 	1581544409	0.65	1.20
12/02/2020 21:53:30	120220	12022020	215330	81.10	12.275155	-56.990243	81.12	0.670	-1.760	1.050	81.14	-3.10	1.40	 	 	 	 	 	 	 	 	 	 	 	 	 	 	 	 	 	 	1581544410	0.64	1.19
12/02/2020 21:53:31	120220	12022020	215331	81.32	12.275157	-56.990242	81.34	0.930	-1.340	0.960	81.36	-2.60	1.30	 	 	 	 	 	 	 	 	 	 	 	 	 	 	 	 	 	 	1581544411	0.28	0.52
12/02/2020 21:53:32	120220	12022020	215332	81.44	12.275158	-56.990243	81.41	0.710	-0.360	0.840	81.44	-1.50	1.20	 	 	 	 	 	 	 	 	 	 	 	 	 	 	 	 	 	 	1581544412	0.45	0.83
12/02/2020 21:53:33	120220	12022020	215333	81.43	12.275158	-56.990247	81.41	0.060	0.830	0.980	81.43	-0.40	1.40	 	 	 	 	 	 	 	 	 	 	 	 	 	 	 	 	 	 	1581544413	0.68	1.26
12/02/2020 21:53:34	120220	12022020	215334	81.48	12.275155	-56.990252	81.51	-0.750	1.770	1.290	81.51	0.50	1.70	 	 	 	 	 	 	 	 	 	 	 	 	 	 	 	 	 	 	1581544414	0.99	1.83
12/02/2020 21:53:35	120220	12022020	215335	81.71	12.275153	-56.990255	81.78	-1.270	1.960	1.440	81.77	0.50	1.80	 	 	 	 	 	 	 	 	 	 	 	 	 	 	 	 	 	 	1581544415	0.90	1.67
12/02/2020 21:53:36	120220	12022020	215336	81.90	12.275152	-56.990255	81.91	-1.140	0.980	1.460	81.90	-0.60	1.90	 	 	 	 	 	 	 	 	 	 	 	 	 	 	 	 	 	 	1581544416	0.25	0.46
12/02/2020 21:53:37	120220	12022020	215337	81.74	12.275153	-56.990250	81.67	-0.350	-0.920	1.500	81.67	-2.50	1.90	 	 	 	 	 	 	 	 	 	 	 	 	 	 	 	 	 	 	1581544417	1.02	1.89
12/02/2020 21:53:38	120220	12022020	215338	81.39	12.275155	-56.990243	81.32	0.650	-2.670	1.520	81.33	-4.20	1.90	 	 	 	 	 	 	 	 	 	 	 	 	 	 	 	 	 	 	1581544418	1.52	2.82
12/02/2020 21:53:39	120220	12022020	215339	81.23	12.275157	-56.990238	81.24	1.250	-3.100	1.540	81.24	-4.30	1.90	 	 	 	 	 	 	 	 	 	 	 	 	 	 	 	 	 	 	1581544419	0.99	1.83
12/02/2020 21:53:40	120220	12022020	215340	81.37	12.275157	-56.990240	81.41	1.150	-1.880	1.460	81.41	-2.90	1.80	 	 	 	 	 	 	 	 	 	 	 	 	 	 	 	 	 	 	1581544420	0.43	0.80
12/02/2020 21:53:41	120220	12022020	215341	81.56	12.275158	-56.990247	81.57	0.550	0.200	1.220	81.59	-0.90	1.60	 	 	 	 	 	 	 	 	 	 	 	 	 	 	 	 	 	 	1581544421	1.40	2.59
12/02/2020 21:53:42	120220	12022020	215342	81.68	12.275160	-56.990255	81.67	-0.170	1.920	0.750	81.70	0.70	1.10	 	 	 	 	 	 	 	 	 	 	 	 	 	 	 	 	 	 	1581544422	1.58	2.93
12/02/2020 21:53:43	120220	12022020	215343	81.78	12.275162	-56.990258	81.76	-0.730	2.470	0.320	81.80	1.10	0.70	 	 	 	 	 	 	 	 	 	 	 	 	 	 	 	 	 	 	1581544423	1.00	1.85
12/02/2020 21:53:44	120220	12022020	215344	81.87	12.275162	-56.990258	81.85	-0.950	1.720	0.170	81.89	0.20	0.60	 	 	 	 	 	 	 	 	 	 	 	 	 	 	 	 	 	 	1581544424	0.19	0.35
12/02/2020 21:53:45	120220	12022020	215345	81.89	12.275162	-56.990255	81.83	-0.770	0.180	0.240	81.87	-1.40	0.70	 	 	 	 	 	 	 	 	 	 	 	 	 	 	 	 	 	 	1581544425	0.75	1.39
12/02/2020 21:53:46	120220	12022020	215346	81.74	12.275162	-56.990250	81.68	-0.280	-1.410	0.450	81.71	-2.90	0.90	 	 	 	 	 	 	 	 	 	 	 	 	 	 	 	 	 	 	1581544426	0.99	1.83
12/02/2020 21:53:47	120220	12022020	215347	81.58	12.275162	-56.990247	81.54	0.300	-2.350	0.700	81.56	-3.70	1.10	 	 	 	 	 	 	 	 	 	 	 	 	 	 	 	 	 	 	1581544427	0.76	1.41
12/02/2020 21:53:48	120220	12022020	215348	81.48	12.275160	-56.990245	81.46	0.740	-2.300	1.050	81.46	-3.50	1.50	 	 	 	 	 	 	 	 	 	 	 	 	 	 	 	 	 	 	1581544428	0.31	0.57
12/02/2020 21:53:49	120220	12022020	215349	81.40	12.275158	-56.990247	81.39	0.850	-1.340	1.440	81.39	-2.50	1.90	 	 	 	 	 	 	 	 	 	 	 	 	 	 	 	 	 	 	1581544429	0.45	0.83
12/02/2020 21:53:50	120220	12022020	215350	81.38	12.275158	-56.990252	81.40	0.580	0.050	1.480	81.39	-1.10	1.80	 	 	 	 	 	 	 	 	 	 	 	 	 	 	 	 	 	 	1581544430	0.89	1.65
12/02/2020 21:53:51	120220	12022020	215351	81.47	12.275162	-56.990255	81.50	0.110	1.110	1.080	81.49	-0.20	1.40	 	 	 	 	 	 	 	 	 	 	 	 	 	 	 	 	 	 	1581544431	1.01	1.87
12/02/2020 21:53:52	120220	12022020	215352	81.59	12.275163	-56.990257	81.59	-0.310	1.350	0.680	81.61	-0.00	1.00	 	 	 	 	 	 	 	 	 	 	 	 	 	 	 	 	 	 	1581544432	0.55	1.02
12/02/2020 21:53:53	120220	12022020	215353	81.69	12.275163	-56.990255	81.69	-0.600	0.970	0.590	81.70	-0.50	1.00	 	 	 	 	 	 	 	 	 	 	 	 	 	 	 	 	 	 	1581544433	0.27	0.50
12/02/2020 21:53:54	120220	12022020	215354	81.69	12.275162	-56.990255	81.65	-0.770	0.460	0.820	81.67	-1.00	1.30	 	 	 	 	 	 	 	 	 	 	 	 	 	 	 	 	 	 	1581544434	0.61	1.13
12/02/2020 21:53:55	120220	12022020	215355	81.58	12.275158	-56.990255	81.52	-0.750	-0.020	0.980	81.56	-1.40	1.40	 	 	 	 	 	 	 	 	 	 	 	 	 	 	 	 	 	 	1581544435	0.46	0.85
12/02/2020 21:53:56	120220	12022020	215356	81.49	12.275160	-56.990255	81.44	-0.350	-0.720	0.800	81.48	-2.20	1.20	 	 	 	 	 	 	 	 	 	 	 	 	 	 	 	 	 	 	1581544436	0.11	0.20
12/02/2020 21:53:57	120220	12022020	215357	81.39	12.275162	-56.990252	81.31	0.380	-1.650	0.540	81.36	-3.10	0.90	 	 	 	 	 	 	 	 	 	 	 	 	 	 	 	 	 	 	1581544437	0.82	1.52
12/02/2020 21:53:58	120220	12022020	215358	81.25	12.275165	-56.990248	81.17	1.040	-2.190	0.500	81.23	-3.50	0.90	 	 	 	 	 	 	 	 	 	 	 	 	 	 	 	 	 	 	1581544438	1.08	2.00
12/02/2020 21:53:59	120220	12022020	215359	81.15	12.275167	-56.990247	81.07	1.170	-1.620	0.790	81.12	-2.80	1.20	 	 	 	 	 	 	 	 	 	 	 	 	 	 	 	 	 	 	1581544439	0.37	0.69
12/02/2020 21:54:00	120220	12022020	215400	81.07	12.275165	-56.990250	81.04	0.650	0.030	1.100	81.07	-1.00	1.50	 	 	 	 	 	 	 	 	 	 	 	 	 	 	 	 	 	 	1581544440	0.86	1.59
12/02/2020 21:54:01	120220	12022020	215401	81.14	12.275165	-56.990258	81.13	-0.220	1.780	1.060	81.17	0.60	1.40	 	 	 	 	 	 	 	 	 	 	 	 	 	 	 	 	 	 	1581544441	1.55	2.87
12/02/2020 21:54:02	120220	12022020	215402	81.27	12.275165	-56.990263	81.26	-0.980	2.450	0.840	81.29	1.00	1.20	1014.70	26.30	26.30	20.80	20.80	4.0	72.0	71.0	392.0	26.0	351.00	10.60	72.00	10.30	447	11908.0	27.4	27.4	1581544442	1.18	2.19
12/02/2020 21:54:03	120220	12022020	215403	81.37	12.275165	-56.990263	81.38	-1.140	1.490	0.800	81.39	-0.10	1.20	 	 	 	 	 	 	 	 	 	 	 	 	 	 	 	 	 	 	1581544443	0.07	0.13
12/02/2020 21:54:04	120220	12022020	215404	81.48	12.275165	-56.990257	81.48	-0.590	-0.560	0.900	81.50	-2.20	1.30	 	 	 	 	 	 	 	 	 	 	 	 	 	 	 	 	 	 	1581544444	1.34	2.48
12/02/2020 21:54:05	120220	12022020	215405	81.56	12.275165	-56.990248	81.56	0.310	-2.390	0.970	81.57	-3.90	1.40	 	 	 	 	 	 	 	 	 	 	 	 	 	 	 	 	 	 	1581544445	1.67	3.09
12/02/2020 21:54:06	120220	12022020	215406	81.55	12.275165	-56.990245	81.54	0.940	-2.750	1.030	81.54	-4.00	1.40	 	 	 	 	 	 	 	 	 	 	 	 	 	 	 	 	 	 	1581544446	0.81	1.50
12/02/2020 21:54:07	120220	12022020	215407	81.44	12.275163	-56.990248	81.41	0.990	-1.590	1.160	81.41	-2.70	1.60	 	 	 	 	 	 	 	 	 	 	 	 	 	 	 	 	 	 	1581544447	0.55	1.02
12/02/2020 21:54:08	120220	12022020	215408	81.24	12.275163	-56.990253	81.18	0.550	0.150	1.450	81.18	-1.00	1.90	 	 	 	 	 	 	 	 	 	 	 	 	 	 	 	 	 	 	1581544448	1.29	2.39
12/02/2020 21:54:09	120220	12022020	215409	80.90	12.275162	-56.990258	80.81	-0.060	1.410	1.680	80.83	0.10	2.10	 	 	 	 	 	 	 	 	 	 	 	 	 	 	 	 	 	 	1581544449	1.10	2.04
12/02/2020 21:54:10	120220	12022020	215410	80.67	12.275165	-56.990260	80.64	-0.470	1.580	1.440	80.66	0.20	1.80	 	 	 	 	 	 	 	 	 	 	 	 	 	 	 	 	 	 	1581544450	0.59	1.09
12/02/2020 21:54:11	120220	12022020	215411	80.74	12.275168	-56.990258	80.76	-0.550	0.790	0.810	80.79	-0.70	1.10	 	 	 	 	 	 	 	 	 	 	 	 	 	 	 	 	 	 	1581544451	1.08	2.00
12/02/2020 21:54:12	120220	12022020	215412	81.05	12.275173	-56.990255	81.09	-0.440	-0.280	0.170	81.12	-1.80	0.50	 	 	 	 	 	 	 	 	 	 	 	 	 	 	 	 	 	 	1581544452	1.21	2.24
12/02/2020 21:54:13	120220	12022020	215413	81.44	12.275175	-56.990253	81.47	-0.360	-0.920	-0.150	81.50	-2.30	0.20	 	 	 	 	 	 	 	 	 	 	 	 	 	 	 	 	 	 	1581544453	0.55	1.02
12/02/2020 21:54:14	120220	12022020	215414	81.67	12.275172	-56.990253	81.63	-0.320	-0.900	0.010	81.67	-2.20	0.50	 	 	 	 	 	 	 	 	 	 	 	 	 	 	 	 	 	 	1581544454	0.66	1.22
12/02/2020 21:54:15	120220	12022020	215415	81.52	12.275167	-56.990255	81.42	-0.160	-0.550	0.500	81.44	-1.80	1.00	 	 	 	 	 	 	 	 	 	 	 	 	 	 	 	 	 	 	1581544455	1.01	1.87
12/02/2020 21:54:16	120220	12022020	215416	81.06	12.275165	-56.990257	80.92	0.190	-0.340	1.040	80.95	-1.70	1.50	 	 	 	 	 	 	 	 	 	 	 	 	 	 	 	 	 	 	1581544456	0.59	1.09
12/02/2020 21:54:17	120220	12022020	215417	80.55	12.275165	-56.990255	80.47	0.570	-0.540	1.450	80.49	-1.90	1.90	 	 	 	 	 	 	 	 	 	 	 	 	 	 	 	 	 	 	1581544457	0.24	0.44
12/02/2020 21:54:18	120220	12022020	215418	80.40	12.275167	-56.990252	80.43	0.760	-0.860	1.480	80.43	-2.20	1.90	 	 	 	 	 	 	 	 	 	 	 	 	 	 	 	 	 	 	1581544458	0.76	1.41
12/02/2020 21:54:19	120220	12022020	215419	80.68	12.275168	-56.990248	80.75	0.650	-0.800	1.230	80.75	-2.10	1.60	 	 	 	 	 	 	 	 	 	 	 	 	 	 	 	 	 	 	1581544459	0.66	1.22
12/02/2020 21:54:20	120220	12022020	215420	80.93	12.275170	-56.990248	80.93	0.300	-0.250	1.040	80.94	-1.50	1.40	 	 	 	 	 	 	 	 	 	 	 	 	 	 	 	 	 	 	1581544460	0.21	0.39
12/02/2020 21:54:21	120220	12022020	215421	80.80	12.275168	-56.990250	80.74	-0.150	0.570	1.060	80.74	-0.70	1.50	 	 	 	 	 	 	 	 	 	 	 	 	 	 	 	 	 	 	1581544461	0.32	0.59
12/02/2020 21:54:22	120220	12022020	215422	80.46	12.275168	-56.990253	80.38	-0.570	1.260	1.110	80.39	-0.00	1.50	 	 	 	 	 	 	 	 	 	 	 	 	 	 	 	 	 	 	1581544462	0.61	1.13
12/02/2020 21:54:23	120220	12022020	215423	80.23	12.275168	-56.990255	80.19	-0.790	1.290	1.000	80.22	-0.10	1.40	 	 	 	 	 	 	 	 	 	 	 	 	 	 	 	 	 	 	1581544463	0.41	0.76
12/02/2020 21:54:24	120220	12022020	215424	80.33	12.275170	-56.990255	80.34	-0.650	0.430	0.610	80.38	-1.10	1.00	 	 	 	 	 	 	 	 	 	 	 	 	 	 	 	 	 	 	1581544464	0.39	0.72
12/02/2020 21:54:25	120220	12022020	215425	80.59	12.275173	-56.990250	80.59	-0.230	-0.860	0.180	80.63	-2.40	0.50	 	 	 	 	 	 	 	 	 	 	 	 	 	 	 	 	 	 	1581544465	1.00	1.85
12/02/2020 21:54:26	120220	12022020	215426	80.72	12.275175	-56.990247	80.66	0.250	-1.730	0.040	80.72	-3.10	0.50	 	 	 	 	 	 	 	 	 	 	 	 	 	 	 	 	 	 	1581544466	0.89	1.65
12/02/2020 21:54:27	120220	12022020	215427	80.62	12.275175	-56.990247	80.53	0.540	-1.660	0.370	80.57	-2.90	0.80	 	 	 	 	 	 	 	 	 	 	 	 	 	 	 	 	 	 	1581544467	0.29	0.54
12/02/2020 21:54:28	120220	12022020	215428	80.37	12.275170	-56.990247	80.30	0.540	-0.880	0.980	80.32	-2.10	1.50	 	 	 	 	 	 	 	 	 	 	 	 	 	 	 	 	 	 	1581544468	0.81	1.50
12/02/2020 21:54:29	120220	12022020	215429	80.11	12.275167	-56.990248	80.06	0.310	-0.170	1.560	80.07	-1.40	2.00	 	 	 	 	 	 	 	 	 	 	 	 	 	 	 	 	 	 	1581544469	0.90	1.67
12/02/2020 21:54:30	120220	12022020	215430	79.93	12.275163	-56.990248	79.89	0.040	0.110	1.950	79.90	-1.20	2.40	 	 	 	 	 	 	 	 	 	 	 	 	 	 	 	 	 	 	1581544470	0.62	1.15
12/02/2020 21:54:31	120220	12022020	215431	79.80	12.275163	-56.990245	79.79	-0.100	0.220	2.000	79.79	-1.10	2.40	 	 	 	 	 	 	 	 	 	 	 	 	 	 	 	 	 	 	1581544471	0.41	0.76
12/02/2020 21:54:32	120220	12022020	215432	79.77	12.275167	-56.990245	79.78	-0.090	0.370	1.610	79.79	-1.00	1.90	 	 	 	 	 	 	 	 	 	 	 	 	 	 	 	 	 	 	1581544472	0.52	0.96
12/02/2020 21:54:33	120220	12022020	215433	79.89	12.275170	-56.990245	79.90	-0.040	0.460	0.940	79.93	-0.90	1.20	 	 	 	 	 	 	 	 	 	 	 	 	 	 	 	 	 	 	1581544473	0.84	1.56
12/02/2020 21:54:34	120220	12022020	215434	80.07	12.275173	-56.990247	80.10	-0.070	0.460	0.350	80.11	-0.90	0.70	 	 	 	 	 	 	 	 	 	 	 	 	 	 	 	 	 	 	1581544474	0.71	1.31
12/02/2020 21:54:35	120220	12022020	215435	80.21	12.275175	-56.990247	80.22	-0.180	0.240	0.040	80.23	-1.10	0.40	 	 	 	 	 	 	 	 	 	 	 	 	 	 	 	 	 	 	1581544475	0.35	0.65
12/02/2020 21:54:36	120220	12022020	215436	80.31	12.275175	-56.990247	80.30	-0.270	-0.200	-0.030	80.32	-1.60	0.40	 	 	 	 	 	 	 	 	 	 	 	 	 	 	 	 	 	 	1581544476	0.15	0.28
12/02/2020 21:54:37	120220	12022020	215437	80.32	12.275175	-56.990243	80.29	-0.230	-0.850	0.040	80.30	-2.30	0.50	 	 	 	 	 	 	 	 	 	 	 	 	 	 	 	 	 	 	1581544477	0.38	0.70
12/02/2020 21:54:38	120220	12022020	215438	80.16	12.275175	-56.990240	80.11	-0.000	-1.480	0.370	80.11	-2.90	0.80	 	 	 	 	 	 	 	 	 	 	 	 	 	 	 	 	 	 	1581544478	0.71	1.31
12/02/2020 21:54:39	120220	12022020	215439	79.95	12.275172	-56.990237	79.93	0.350	-1.630	1.010	79.92	-2.90	1.50	 	 	 	 	 	 	 	 	 	 	 	 	 	 	 	 	 	 	1581544479	0.92	1.70
12/02/2020 21:54:40	120220	12022020	215440	79.90	12.275168	-56.990235	79.94	0.590	-0.940	1.650	79.92	-2.10	2.10	 	 	 	 	 	 	 	 	 	 	 	 	 	 	 	 	 	 	1581544480	0.89	1.65
12/02/2020 21:54:41	120220	12022020	215441	80.08	12.275165	-56.990238	80.16	0.450	0.330	1.870	80.13	-0.80	2.20	 	 	 	 	 	 	 	 	 	 	 	 	 	 	 	 	 	 	1581544481	0.77	1.43
12/02/2020 21:54:42	120220	12022020	215442	80.27	12.275165	-56.990242	80.28	-0.090	1.330	1.710	80.27	0.10	2.10	 	 	 	 	 	 	 	 	 	 	 	 	 	 	 	 	 	 	1581544482	0.76	1.41
12/02/2020 21:54:43	120220	12022020	215443	80.10	12.275165	-56.990243	80.03	-0.700	1.470	1.620	80.04	0.10	2.00	 	 	 	 	 	 	 	 	 	 	 	 	 	 	 	 	 	 	1581544483	0.29	0.54
12/02/2020 21:54:44	120220	12022020	215444	79.79	12.275165	-56.990242	79.74	-1.000	0.740	1.480	79.76	-0.70	1.80	 	 	 	 	 	 	 	 	 	 	 	 	 	 	 	 	 	 	1581544484	0.36	0.67
12/02/2020 21:54:45	120220	12022020	215445	79.84	12.275167	-56.990238	79.88	-0.710	-0.380	0.920	79.92	-1.90	1.20	 	 	 	 	 	 	 	 	 	 	 	 	 	 	 	 	 	 	1581544485	0.79	1.46
12/02/2020 21:54:46	120220	12022020	215446	80.24	12.275170	-56.990235	80.26	0.050	-1.300	0.250	80.32	-2.70	0.60	 	 	 	 	 	 	 	 	 	 	 	 	 	 	 	 	 	 	1581544486	0.85	1.57
12/02/2020 21:54:47	120220	12022020	215447	80.46	12.275172	-56.990233	80.39	0.800	-1.660	-0.130	80.46	-3.00	0.20	 	 	 	 	 	 	 	 	 	 	 	 	 	 	 	 	 	 	1581544487	0.58	1.07
12/02/2020 21:54:48	120220	12022020	215448	80.27	12.275173	-56.990233	80.11	1.060	-1.330	-0.090	80.18	-2.60	0.40	 	 	 	 	 	 	 	 	 	 	 	 	 	 	 	 	 	 	1581544488	0.28	0.52
12/02/2020 21:54:49	120220	12022020	215449	79.81	12.275173	-56.990235	79.66	0.740	-0.510	0.380	79.72	-1.70	0.90	 	 	 	 	 	 	 	 	 	 	 	 	 	 	 	 	 	 	1581544489	0.36	0.67
12/02/2020 21:54:50	120220	12022020	215450	79.50	12.275172	-56.990237	79.44	0.160	0.280	0.930	79.48	-1.00	1.40	 	 	 	 	 	 	 	 	 	 	 	 	 	 	 	 	 	 	1581544490	0.53	0.98
12/02/2020 21:54:51	120220	12022020	215451	79.51	12.275168	-56.990237	79.52	-0.300	0.680	1.470	79.54	-0.60	1.90	 	 	 	 	 	 	 	 	 	 	 	 	 	 	 	 	 	 	1581544491	0.58	1.07
12/02/2020 21:54:52	120220	12022020	215452	79.66	12.275165	-56.990235	79.68	-0.510	0.680	1.920	79.69	-0.70	2.30	 	 	 	 	 	 	 	 	 	 	 	 	 	 	 	 	 	 	1581544492	0.77	1.43
12/02/2020 21:54:53	120220	12022020	215453	79.82	12.275162	-56.990233	79.81	-0.530	0.380	2.030	79.84	-1.00	2.40	 	 	 	 	 	 	 	 	 	 	 	 	 	 	 	 	 	 	1581544493	0.67	1.24
12/02/2020 21:54:54	120220	12022020	215454	79.85	12.275162	-56.990232	79.82	-0.430	-0.080	1.990	79.84	-1.50	2.40	 	 	 	 	 	 	 	 	 	 	 	 	 	 	 	 	 	 	1581544494	0.46	0.85
12/02/2020 21:54:55	120220	12022020	215455	79.73	12.275160	-56.990230	79.68	-0.290	-0.510	2.050	79.70	-1.90	2.40	 	 	 	 	 	 	 	 	 	 	 	 	 	 	 	 	 	 	1581544495	0.39	0.72
12/02/2020 21:54:56	120220	12022020	215456	79.63	12.275158	-56.990228	79.61	-0.170	-0.780	2.030	79.63	-2.10	2.40	 	 	 	 	 	 	 	 	 	 	 	 	 	 	 	 	 	 	1581544496	0.41	0.76
12/02/2020 21:54:57	120220	12022020	215457	79.68	12.275158	-56.990228	79.64	-0.110	-0.650	1.750	79.70	-1.90	2.10	 	 	 	 	 	 	 	 	 	 	 	 	 	 	 	 	 	 	1581544497	0.19	0.35
12/02/2020 21:54:58	120220	12022020	215458	79.74	12.275158	-56.990232	79.70	-0.080	-0.150	1.220	79.74	-1.40	1.50	 	 	 	 	 	 	 	 	 	 	 	 	 	 	 	 	 	 	1581544498	0.50	0.93
12/02/2020 21:54:59	120220	12022020	215459	79.69	12.275162	-56.990233	79.63	-0.010	0.240	0.640	79.67	-1.10	1.00	 	 	 	 	 	 	 	 	 	 	 	 	 	 	 	 	 	 	1581544499	0.84	1.56
12/02/2020 21:55:00	120220	12022020	215500	79.55	12.275165	-56.990235	79.48	0.150	0.120	0.200	79.53	-1.30	0.60	 	 	 	 	 	 	 	 	 	 	 	 	 	 	 	 	 	 	1581544500	0.73	1.35
12/02/2020 21:55:01	120220	12022020	215501	79.43	12.275168	-56.990233	79.37	0.380	-0.520	-0.110	79.40	-2.00	0.30	 	 	 	 	 	 	 	 	 	 	 	 	 	 	 	 	 	 	1581544501	0.81	1.50
12/02/2020 21:55:02	120220	12022020	215502	79.24	12.275170	-56.990230	79.17	0.640	-1.250	-0.200	79.20	-2.60	0.20	1014.70	26.30	26.40	20.90	20.90	3.0	72.0	72.0	391.0	26.0	347.00	10.80	67.00	10.50	395	12012.0	27.4	27.4	1581544502	1.06	1.96
12/02/2020 21:55:03	120220	12022020	215503	79.07	12.275172	-56.990225	79.04	0.750	-1.390	-0.070	79.06	-2.60	0.40	 	 	 	 	 	 	 	 	 	 	 	 	 	 	 	 	 	 	1581544503	0.85	1.57
12/02/2020 21:55:04	120220	12022020	215504	79.15	12.275172	-56.990225	79.22	0.490	-0.600	0.290	79.22	-1.70	0.80	 	 	 	 	 	 	 	 	 	 	 	 	 	 	 	 	 	 	1581544504	0.14	0.26
12/02/2020 21:55:05	120220	12022020	215505	79.66	12.275168	-56.990228	79.81	-0.140	0.650	0.760	79.81	-0.50	1.20	 	 	 	 	 	 	 	 	 	 	 	 	 	 	 	 	 	 	1581544505	1.02	1.89
12/02/2020 21:55:06	120220	12022020	215506	80.35	12.275162	-56.990233	80.45	-0.920	1.670	1.390	80.45	0.40	1.90	 	 	 	 	 	 	 	 	 	 	 	 	 	 	 	 	 	 	1581544506	1.62	3.00
12/02/2020 21:55:07	120220	12022020	215507	80.63	12.275153	-56.990237	80.63	-1.560	2.060	2.170	80.63	0.70	2.60	 	 	 	 	 	 	 	 	 	 	 	 	 	 	 	 	 	 	1581544507	2.03	3.76
12/02/2020 21:55:08	120220	12022020	215508	80.49	12.275145	-56.990237	80.43	-1.620	1.330	2.760	80.43	-0.20	3.20	 	 	 	 	 	 	 	 	 	 	 	 	 	 	 	 	 	 	1581544508	1.78	3.30
12/02/2020 21:55:09	120220	12022020	215509	80.16	12.275142	-56.990232	80.10	-0.750	-0.680	2.890	80.11	-2.30	3.20	 	 	 	 	 	 	 	 	 	 	 	 	 	 	 	 	 	 	1581544509	1.26	2.33
12/02/2020 21:55:10	120220	12022020	215510	79.94	12.275143	-56.990223	79.89	0.740	-2.900	2.540	79.91	-4.40	2.90	 	 	 	 	 	 	 	 	 	 	 	 	 	 	 	 	 	 	1581544510	1.80	3.33
12/02/2020 21:55:11	120220	12022020	215511	79.90	12.275152	-56.990218	79.90	1.890	-3.600	1.860	79.93	-4.80	2.10	 	 	 	 	 	 	 	 	 	 	 	 	 	 	 	 	 	 	1581544511	1.87	3.46
12/02/2020 21:55:12	120220	12022020	215512	80.07	12.275158	-56.990223	80.07	1.880	-2.100	1.030	80.12	-3.10	1.30	 	 	 	 	 	 	 	 	 	 	 	 	 	 	 	 	 	 	1581544512	1.82	3.37
12/02/2020 21:55:13	120220	12022020	215513	80.26	12.275163	-56.990233	80.23	0.760	0.500	0.340	80.29	-0.50	0.70	 	 	 	 	 	 	 	 	 	 	 	 	 	 	 	 	 	 	1581544513	2.36	4.37
12/02/2020 21:55:14	120220	12022020	215514	80.47	12.275163	-56.990243	80.45	-0.660	2.470	-0.030	80.52	1.30	0.30	 	 	 	 	 	 	 	 	 	 	 	 	 	 	 	 	 	 	1581544514	2.08	3.85
12/02/2020 21:55:15	120220	12022020	215515	80.83	12.275160	-56.990247	80.85	-1.460	2.690	-0.100	80.92	1.20	0.30	 	 	 	 	 	 	 	 	 	 	 	 	 	 	 	 	 	 	1581544515	0.89	1.65
12/02/2020 21:55:16	120220	12022020	215516	81.27	12.275157	-56.990242	81.28	-1.310	1.290	0.050	81.34	-0.30	0.50	 	 	 	 	 	 	 	 	 	 	 	 	 	 	 	 	 	 	1581544516	1.09	2.02
12/02/2020 21:55:17	120220	12022020	215517	81.49	12.275155	-56.990235	81.44	-0.560	-0.590	0.420	81.49	-2.10	0.90	 	 	 	 	 	 	 	 	 	 	 	 	 	 	 	 	 	 	1581544517	1.64	3.04
12/02/2020 21:55:18	120220	12022020	215518	81.30	12.275152	-56.990230	81.17	0.200	-1.750	1.090	81.22	-3.10	1.60	 	 	 	 	 	 	 	 	 	 	 	 	 	 	 	 	 	 	1581544518	1.22	2.26
12/02/2020 21:55:19	120220	12022020	215519	80.95	12.275148	-56.990230	80.86	0.600	-1.710	1.750	80.90	-2.90	2.20	 	 	 	 	 	 	 	 	 	 	 	 	 	 	 	 	 	 	1581544519	0.59	1.09
12/02/2020 21:55:20	120220	12022020	215520	80.77	12.275147	-56.990233	80.74	0.560	-1.050	2.200	80.76	-2.30	2.60	 	 	 	 	 	 	 	 	 	 	 	 	 	 	 	 	 	 	1581544520	0.86	1.59
12/02/2020 21:55:21	120220	12022020	215521	80.79	12.275145	-56.990237	80.81	0.330	-0.430	2.380	80.82	-1.70	2.80	 	 	 	 	 	 	 	 	 	 	 	 	 	 	 	 	 	 	1581544521	0.69	1.28
12/02/2020 21:55:22	120220	12022020	215522	80.98	12.275147	-56.990238	81.01	0.190	-0.030	2.200	81.02	-1.30	2.50	 	 	 	 	 	 	 	 	 	 	 	 	 	 	 	 	 	 	1581544522	0.43	0.80
12/02/2020 21:55:23	120220	12022020	215523	81.19	12.275148	-56.990240	81.23	0.130	0.230	1.750	81.24	-1.10	2.10	 	 	 	 	 	 	 	 	 	 	 	 	 	 	 	 	 	 	1581544523	0.65	1.20
12/02/2020 21:55:24	120220	12022020	215524	81.41	12.275152	-56.990242	81.43	0.000	0.390	1.210	81.44	-0.90	1.50	 	 	 	 	 	 	 	 	 	 	 	 	 	 	 	 	 	 	1581544524	0.60	1.11
12/02/2020 21:55:25	120220	12022020	215525	81.52	12.275153	-56.990243	81.51	-0.230	0.490	0.690	81.52	-0.80	1.00	 	 	 	 	 	 	 	 	 	 	 	 	 	 	 	 	 	 	1581544525	0.49	0.91
12/02/2020 21:55:26	120220	12022020	215526	81.46	12.275153	-56.990243	81.42	-0.370	0.360	0.330	81.44	-1.00	0.70	 	 	 	 	 	 	 	 	 	 	 	 	 	 	 	 	 	 	1581544526	0.37	0.69
12/02/2020 21:55:27	120220	12022020	215527	81.33	12.275153	-56.990243	81.31	-0.200	-0.230	0.250	81.32	-1.60	0.60	 	 	 	 	 	 	 	 	 	 	 	 	 	 	 	 	 	 	1581544527	0.12	0.22
12/02/2020 21:55:28	120220	12022020	215528	81.36	12.275155	-56.990240	81.40	0.180	-1.000	0.210	81.40	-2.40	0.60	 	 	 	 	 	 	 	 	 	 	 	 	 	 	 	 	 	 	1581544528	0.59	1.09
12/02/2020 21:55:29	120220	12022020	215529	81.68	12.275155	-56.990238	81.75	0.400	-1.270	0.010	81.77	-2.50	0.40	 	 	 	 	 	 	 	 	 	 	 	 	 	 	 	 	 	 	1581544529	0.45	0.83
12/02/2020 21:55:30	120220	12022020	215530	82.02	12.275157	-56.990240	82.02	0.310	-0.750	-0.040	82.05	-1.90	0.40	 	 	 	 	 	 	 	 	 	 	 	 	 	 	 	 	 	 	1581544530	0.38	0.70
12/02/2020 21:55:31	120220	12022020	215531	81.94	12.275155	-56.990245	81.84	0.040	0.080	0.430	81.88	-1.10	0.90	 	 	 	 	 	 	 	 	 	 	 	 	 	 	 	 	 	 	1581544531	0.89	1.65
12/02/2020 21:55:32	120220	12022020	215532	81.58	12.275152	-56.990247	81.50	-0.180	0.570	1.130	81.52	-0.70	1.60	 	 	 	 	 	 	 	 	 	 	 	 	 	 	 	 	 	 	1581544532	0.93	1.72
12/02/2020 21:55:33	120220	12022020	215533	81.40	12.275148	-56.990248	81.40	-0.200	0.500	1.620	81.40	-0.80	2.10	 	 	 	 	 	 	 	 	 	 	 	 	 	 	 	 	 	 	1581544533	0.66	1.22
12/02/2020 21:55:34	120220	12022020	215534	81.45	12.275147	-56.990247	81.49	-0.060	0.090	1.890	81.48	-1.30	2.30	 	 	 	 	 	 	 	 	 	 	 	 	 	 	 	 	 	 	1581544534	0.43	0.80
12/02/2020 21:55:35	120220	12022020	215535	81.60	12.275147	-56.990245	81.65	0.080	-0.390	1.910	81.63	-1.70	2.30	 	 	 	 	 	 	 	 	 	 	 	 	 	 	 	 	 	 	1581544535	0.27	0.50
12/02/2020 21:55:36	120220	12022020	215536	81.77	12.275147	-56.990245	81.83	0.140	-0.670	1.750	81.82	-2.00	2.10	 	 	 	 	 	 	 	 	 	 	 	 	 	 	 	 	 	 	1581544536	0.19	0.35
12/02/2020 21:55:37	120220	12022020	215537	81.96	12.275147	-56.990245	82.01	0.120	-0.580	1.490	82.00	-1.80	1.90	 	 	 	 	 	 	 	 	 	 	 	 	 	 	 	 	 	 	1581544537	0.21	0.39
12/02/2020 21:55:38	120220	12022020	215538	82.05	12.275147	-56.990248	82.06	0.050	-0.300	1.300	82.05	-1.60	1.70	 	 	 	 	 	 	 	 	 	 	 	 	 	 	 	 	 	 	1581544538	0.41	0.76
12/02/2020 21:55:39	120220	12022020	215539	81.99	12.275147	-56.990250	81.97	-0.010	-0.150	1.310	81.97	-1.40	1.70	 	 	 	 	 	 	 	 	 	 	 	 	 	 	 	 	 	 	1581544539	0.40	0.74
12/02/2020 21:55:40	120220	12022020	215540	81.87	12.275145	-56.990250	81.84	0.050	-0.170	1.350	81.84	-1.50	1.70	 	 	 	 	 	 	 	 	 	 	 	 	 	 	 	 	 	 	1581544540	0.17	0.31
12/02/2020 21:55:41	120220	12022020	215541	81.76	12.275147	-56.990250	81.74	0.240	-0.320	1.140	81.74	-1.70	1.50	 	 	 	 	 	 	 	 	 	 	 	 	 	 	 	 	 	 	1581544541	0.43	0.80
12/02/2020 21:55:42	120220	12022020	215542	81.72	12.275152	-56.990248	81.71	0.390	-0.500	0.730	81.71	-1.80	1.10	 	 	 	 	 	 	 	 	 	 	 	 	 	 	 	 	 	 	1581544542	0.85	1.57
12/02/2020 21:55:43	120220	12022020	215543	81.74	12.275153	-56.990248	81.74	0.320	-0.410	0.500	81.74	-1.60	0.90	 	 	 	 	 	 	 	 	 	 	 	 	 	 	 	 	 	 	1581544543	0.46	0.85
12/02/2020 21:55:44	120220	12022020	215544	81.83	12.275152	-56.990250	81.85	-0.060	0.200	0.610	81.85	-1.00	1.00	 	 	 	 	 	 	 	 	 	 	 	 	 	 	 	 	 	 	1581544544	0.47	0.87
12/02/2020 21:55:45	120220	12022020	215545	81.96	12.275148	-56.990253	81.98	-0.560	0.870	0.930	81.99	-0.40	1.40	 	 	 	 	 	 	 	 	 	 	 	 	 	 	 	 	 	 	1581544545	1.06	1.96
12/02/2020 21:55:46	120220	12022020	215546	82.06	12.275147	-56.990255	82.08	-0.790	0.740	1.220	82.07	-0.70	1.60	 	 	 	 	 	 	 	 	 	 	 	 	 	 	 	 	 	 	1581544546	0.71	1.31
12/02/2020 21:55:47	120220	12022020	215547	82.15	12.275145	-56.990253	82.17	-0.550	-0.330	1.210	82.16	-1.80	1.60	 	 	 	 	 	 	 	 	 	 	 	 	 	 	 	 	 	 	1581544547	0.62	1.15
12/02/2020 21:55:48	120220	12022020	215548	82.16	12.275145	-56.990248	82.16	0.020	-1.420	1.150	82.15	-2.80	1.60	 	 	 	 	 	 	 	 	 	 	 	 	 	 	 	 	 	 	1581544548	1.09	2.02
12/02/2020 21:55:49	120220	12022020	215549	82.09	12.275145	-56.990245	82.08	0.480	-1.540	1.350	82.07	-2.80	1.80	 	 	 	 	 	 	 	 	 	 	 	 	 	 	 	 	 	 	1581544549	0.54	1.00
12/02/2020 21:55:50	120220	12022020	215550	82.03	12.275142	-56.990248	82.03	0.590	-0.730	1.630	82.02	-1.90	2.00	 	 	 	 	 	 	 	 	 	 	 	 	 	 	 	 	 	 	1581544550	0.64	1.19
12/02/2020 21:55:51	120220	12022020	215551	82.04	12.275142	-56.990252	82.05	0.380	0.310	1.560	82.06	-0.90	1.90	 	 	 	 	 	 	 	 	 	 	 	 	 	 	 	 	 	 	1581544551	0.97	1.80
12/02/2020 21:55:52	120220	12022020	215552	82.17	12.275145	-56.990255	82.16	0.080	0.790	0.990	82.19	-0.50	1.30	 	 	 	 	 	 	 	 	 	 	 	 	 	 	 	 	 	 	1581544552	0.95	1.76
12/02/2020 21:55:53	120220	12022020	215553	82.25	12.275148	-56.990255	82.19	-0.110	0.440	0.500	82.24	-0.90	0.90	 	 	 	 	 	 	 	 	 	 	 	 	 	 	 	 	 	 	1581544553	0.76	1.41
12/02/2020 21:55:54	120220	12022020	215554	82.17	12.275150	-56.990252	82.08	-0.190	-0.250	0.470	82.15	-1.60	0.90	 	 	 	 	 	 	 	 	 	 	 	 	 	 	 	 	 	 	1581544554	0.74	1.37
12/02/2020 21:55:55	120220	12022020	215555	82.10	12.275150	-56.990250	82.05	-0.280	-0.620	0.670	82.11	-1.90	1.10	 	 	 	 	 	 	 	 	 	 	 	 	 	 	 	 	 	 	1581544555	0.57	1.06
12/02/2020 21:55:56	120220	12022020	215556	82.25	12.275147	-56.990250	82.25	-0.410	-0.480	0.750	82.30	-1.70	1.10	 	 	 	 	 	 	 	 	 	 	 	 	 	 	 	 	 	 	1581544556	0.43	0.80
12/02/2020 21:55:57	120220	12022020	215557	82.55	12.275145	-56.990252	82.55	-0.450	-0.090	0.790	82.60	-1.30	1.20	 	 	 	 	 	 	 	 	 	 	 	 	 	 	 	 	 	 	1581544557	0.71	1.31
12/02/2020 21:55:58	120220	12022020	215558	82.71	12.275142	-56.990253	82.65	-0.280	0.130	0.910	82.70	-1.20	1.30	 	 	 	 	 	 	 	 	 	 	 	 	 	 	 	 	 	 	1581544558	0.71	1.31
12/02/2020 21:55:59	120220	12022020	215559	82.52	12.275140	-56.990253	82.41	0.120	-0.120	1.080	82.46	-1.50	1.50	 	 	 	 	 	 	 	 	 	 	 	 	 	 	 	 	 	 	1581544559	0.30	0.56
12/02/2020 21:56:00	120220	12022020	215600	82.19	12.275142	-56.990250	82.11	0.600	-0.680	1.090	82.16	-2.00	1.50	 	 	 	 	 	 	 	 	 	 	 	 	 	 	 	 	 	 	1581544560	0.67	1.24
12/02/2020 21:56:01	120220	12022020	215601	82.16	12.275147	-56.990247	82.17	0.840	-0.980	0.910	82.21	-2.30	1.30	 	 	 	 	 	 	 	 	 	 	 	 	 	 	 	 	 	 	1581544561	1.04	1.93
12/02/2020 21:56:02	120220	12022020	215602	82.48	12.275150	-56.990248	82.51	0.590	-0.580	0.770	82.56	-1.80	1.10	1014.80	26.30	26.30	20.80	20.90	3.0	71.0	72.0	389.0	26.0	341.00	10.70	62.00	10.30	345	11527.0	27.4	27.4	1581544562	0.69	1.28
12/02/2020 21:56:03	120220	12022020	215603	82.87	12.275150	-56.990252	82.86	-0.080	0.360	0.700	82.93	-0.80	1.10	 	 	 	 	 	 	 	 	 	 	 	 	 	 	 	 	 	 	1581544563	0.83	1.54
12/02/2020 21:56:04	120220	12022020	215604	83.07	12.275148	-56.990257	83.01	-0.720	1.040	0.720	83.07	-0.20	1.10	 	 	 	 	 	 	 	 	 	 	 	 	 	 	 	 	 	 	1581544564	1.06	1.96
12/02/2020 21:56:05	120220	12022020	215605	82.98	12.275145	-56.990257	82.87	-0.820	0.710	0.970	82.93	-0.70	1.40	 	 	 	 	 	 	 	 	 	 	 	 	 	 	 	 	 	 	1581544565	0.63	1.17
12/02/2020 21:56:06	120220	12022020	215606	82.71	12.275143	-56.990252	82.63	-0.300	-0.440	1.330	82.66	-1.90	1.80	 	 	 	 	 	 	 	 	 	 	 	 	 	 	 	 	 	 	1581544566	1.02	1.89
12/02/2020 21:56:07	120220	12022020	215607	82.60	12.275143	-56.990247	82.61	0.340	-1.430	1.510	82.62	-2.80	1.90	 	 	 	 	 	 	 	 	 	 	 	 	 	 	 	 	 	 	1581544567	1.16	2.15
12/02/2020 21:56:08	120220	12022020	215608	82.80	12.275145	-56.990245	82.85	0.510	-1.380	1.340	82.86	-2.50	1.70	 	 	 	 	 	 	 	 	 	 	 	 	 	 	 	 	 	 	1581544568	0.44	0.81
12/02/2020 21:56:09	120220	12022020	215609	83.16	12.275147	-56.990250	83.18	0.120	-0.310	0.900	83.23	-1.40	1.20	 	 	 	 	 	 	 	 	 	 	 	 	 	 	 	 	 	 	1581544569	0.95	1.76
12/02/2020 21:56:10	120220	12022020	215610	83.47	12.275147	-56.990255	83.43	-0.440	0.810	0.540	83.50	-0.40	0.90	 	 	 	 	 	 	 	 	 	 	 	 	 	 	 	 	 	 	1581544570	1.35	2.50
12/02/2020 21:56:11	120220	12022020	215611	83.49	12.275145	-56.990258	83.37	-0.660	1.040	0.530	83.45	-0.30	0.90	 	 	 	 	 	 	 	 	 	 	 	 	 	 	 	 	 	 	1581544571	0.68	1.26
12/02/2020 21:56:12	120220	12022020	215612	83.16	12.275143	-56.990257	83.00	-0.390	0.270	0.790	83.06	-1.20	1.20	 	 	 	 	 	 	 	 	 	 	 	 	 	 	 	 	 	 	1581544572	0.64	1.19
12/02/2020 21:56:13	120220	12022020	215613	82.70	12.275143	-56.990253	82.57	0.160	-0.670	1.020	82.62	-2.00	1.40	 	 	 	 	 	 	 	 	 	 	 	 	 	 	 	 	 	 	1581544573	0.87	1.61
12/02/2020 21:56:14	120220	12022020	215614	82.46	12.275147	-56.990250	82.41	0.620	-1.070	0.880	82.46	-2.40	1.20	 	 	 	 	 	 	 	 	 	 	 	 	 	 	 	 	 	 	1581544574	0.84	1.56
12/02/2020 21:56:15	120220	12022020	215615	82.71	12.275153	-56.990252	82.76	0.750	-0.970	0.320	82.81	-2.20	0.60	 	 	 	 	 	 	 	 	 	 	 	 	 	 	 	 	 	 	1581544575	1.30	2.41
12/02/2020 21:56:16	120220	12022020	215616	83.30	12.275158	-56.990253	83.36	0.520	-0.680	-0.220	83.43	-1.90	0.10	 	 	 	 	 	 	 	 	 	 	 	 	 	 	 	 	 	 	1581544576	1.06	1.96
12/02/2020 21:56:17	120220	12022020	215617	83.84	12.275158	-56.990253	83.83	0.050	-0.270	-0.250	83.90	-1.50	0.20	 	 	 	 	 	 	 	 	 	 	 	 	 	 	 	 	 	 	1581544577	0.17	0.31
12/02/2020 21:56:18	120220	12022020	215618	83.90	12.275153	-56.990253	83.77	-0.320	0.140	0.490	83.83	-1.10	1.10	 	 	 	 	 	 	 	 	 	 	 	 	 	 	 	 	 	 	1581544578	1.11	2.06
12/02/2020 21:56:19	120220	12022020	215619	83.41	12.275145	-56.990253	83.22	-0.360	0.340	1.680	83.28	-0.90	2.20	 	 	 	 	 	 	 	 	 	 	 	 	 	 	 	 	 	 	1581544579	1.72	3.19
12/02/2020 21:56:20	120220	12022020	215620	82.82	12.275138	-56.990252	82.70	-0.210	0.430	2.580	82.73	-0.80	3.00	 	 	 	 	 	 	 	 	 	 	 	 	 	 	 	 	 	 	1581544580	1.38	2.56
12/02/2020 21:56:21	120220	12022020	215621	82.53	12.275137	-56.990253	82.51	-0.190	0.620	2.790	82.52	-0.70	3.10	 	 	 	 	 	 	 	 	 	 	 	 	 	 	 	 	 	 	1581544581	0.43	0.80
12/02/2020 21:56:22	120220	12022020	215622	82.63	12.275140	-56.990257	82.66	-0.370	0.670	2.290	82.68	-0.70	2.60	 	 	 	 	 	 	 	 	 	 	 	 	 	 	 	 	 	 	1581544582	0.88	1.63
12/02/2020 21:56:23	120220	12022020	215623	82.94	12.275145	-56.990258	82.94	-0.470	0.080	1.360	82.99	-1.40	1.60	 	 	 	 	 	 	 	 	 	 	 	 	 	 	 	 	 	 	1581544583	1.26	2.33
12/02/2020 21:56:24	120220	12022020	215624	83.09	12.275150	-56.990257	83.00	-0.220	-1.130	0.490	83.08	-2.60	0.80	 	 	 	 	 	 	 	 	 	 	 	 	 	 	 	 	 	 	1581544584	1.30	2.41
12/02/2020 21:56:25	120220	12022020	215625	82.91	12.275153	-56.990252	82.78	0.300	-2.100	0.080	82.86	-3.50	0.50	 	 	 	 	 	 	 	 	 	 	 	 	 	 	 	 	 	 	1581544585	1.19	2.20
12/02/2020 21:56:26	120220	12022020	215626	82.71	12.275155	-56.990250	82.61	0.760	-1.970	-0.010	82.71	-3.10	0.40	 	 	 	 	 	 	 	 	 	 	 	 	 	 	 	 	 	 	1581544586	0.46	0.85
12/02/2020 21:56:27	120220	12022020	215627	82.83	12.275155	-56.990252	82.79	0.880	-0.840	-0.130	82.89	-2.00	0.30	 	 	 	 	 	 	 	 	 	 	 	 	 	 	 	 	 	 	1581544587	0.52	0.96
12/02/2020 21:56:28	120220	12022020	215628	83.07	12.275155	-56.990255	83.00	0.630	0.370	-0.120	83.10	-0.80	0.30	 	 	 	 	 	 	 	 	 	 	 	 	 	 	 	 	 	 	1581544588	0.79	1.46
12/02/2020 21:56:29	120220	12022020	215629	83.06	12.275153	-56.990257	82.95	0.160	1.040	0.210	83.02	-0.20	0.70	 	 	 	 	 	 	 	 	 	 	 	 	 	 	 	 	 	 	1581544589	0.41	0.76
12/02/2020 21:56:30	120220	12022020	215630	82.86	12.275152	-56.990257	82.78	-0.370	1.270	0.680	82.83	-0.00	1.10	 	 	 	 	 	 	 	 	 	 	 	 	 	 	 	 	 	 	1581544590	0.42	0.78
12/02/2020 21:56:31	120220	12022020	215631	82.76	12.275150	-56.990258	82.71	-0.780	1.260	1.070	82.76	-0.10	1.50	 	 	 	 	 	 	 	 	 	 	 	 	 	 	 	 	 	 	1581544591	0.38	0.70
12/02/2020 21:56:32	120220	12022020	215632	82.77	12.275150	-56.990260	82.74	-0.920	0.830	1.300	82.78	-0.60	1.70	 	 	 	 	 	 	 	 	 	 	 	 	 	 	 	 	 	 	1581544592	0.30	0.56
12/02/2020 21:56:33	120220	12022020	215633	82.86	12.275148	-56.990258	82.84	-0.760	-0.100	1.430	82.89	-1.60	1.80	 	 	 	 	 	 	 	 	 	 	 	 	 	 	 	 	 	 	1581544593	0.22	0.41
12/02/2020 21:56:34	120220	12022020	215634	82.98	12.275147	-56.990257	82.98	-0.340	-1.230	1.520	83.00	-2.70	1.90	 	 	 	 	 	 	 	 	 	 	 	 	 	 	 	 	 	 	1581544594	0.55	1.02
12/02/2020 21:56:35	120220	12022020	215635	83.05	12.275145	-56.990253	83.04	0.260	-2.160	1.600	83.05	-3.50	2.00	 	 	 	 	 	 	 	 	 	 	 	 	 	 	 	 	 	 	1581544595	0.76	1.41
12/02/2020 21:56:36	120220	12022020	215636	82.98	12.275145	-56.990250	82.96	0.840	-2.460	1.680	82.95	-3.70	2.10	 	 	 	 	 	 	 	 	 	 	 	 	 	 	 	 	 	 	1581544596	0.69	1.28
12/02/2020 21:56:37	120220	12022020	215637	82.83	12.275145	-56.990248	82.80	1.120	-1.810	1.580	82.80	-2.90	1.90	 	 	 	 	 	 	 	 	 	 	 	 	 	 	 	 	 	 	1581544597	0.26	0.48
12/02/2020 21:56:38	120220	12022020	215638	82.76	12.275147	-56.990252	82.75	0.930	-0.240	1.240	82.76	-1.30	1.60	 	 	 	 	 	 	 	 	 	 	 	 	 	 	 	 	 	 	1581544598	0.73	1.35
12/02/2020 21:56:39	120220	12022020	215639	82.83	12.275150	-56.990258	82.82	0.330	1.550	0.850	82.86	0.40	1.20	 	 	 	 	 	 	 	 	 	 	 	 	 	 	 	 	 	 	1581544599	1.32	2.44
12/02/2020 21:56:40	120220	12022020	215640	82.96	12.275152	-56.990263	82.94	-0.440	2.590	0.510	82.99	1.30	0.90	 	 	 	 	 	 	 	 	 	 	 	 	 	 	 	 	 	 	1581544600	1.23	2.28
12/02/2020 21:56:41	120220	12022020	215641	83.07	12.275153	-56.990265	83.03	-1.050	2.320	0.140	83.10	0.90	0.50	 	 	 	 	 	 	 	 	 	 	 	 	 	 	 	 	 	 	1581544601	0.64	1.19
12/02/2020 21:56:42	120220	12022020	215642	83.18	12.275155	-56.990263	83.12	-1.220	0.830	-0.160	83.19	-0.80	0.20	 	 	 	 	 	 	 	 	 	 	 	 	 	 	 	 	 	 	1581544602	0.54	1.00
12/02/2020 21:56:43	120220	12022020	215643	83.21	12.275153	-56.990258	83.10	-0.830	-1.240	-0.110	83.19	-2.80	0.30	 	 	 	 	 	 	 	 	 	 	 	 	 	 	 	 	 	 	1581544603	1.20	2.22
12/02/2020 21:56:44	120220	12022020	215644	83.04	12.275150	-56.990252	82.88	-0.010	-2.810	0.390	82.96	-4.20	0.90	 	 	 	 	 	 	 	 	 	 	 	 	 	 	 	 	 	 	1581544604	1.50	2.78
12/02/2020 21:56:45	120220	12022020	215645	82.62	12.275148	-56.990248	82.47	0.800	-3.010	0.990	82.53	-4.20	1.40	 	 	 	 	 	 	 	 	 	 	 	 	 	 	 	 	 	 	1581544605	0.87	1.61
12/02/2020 21:56:46	120220	12022020	215646	82.25	12.275147	-56.990252	82.18	1.130	-1.830	1.280	82.22	-2.90	1.70	 	 	 	 	 	 	 	 	 	 	 	 	 	 	 	 	 	 	1581544606	0.49	0.91
12/02/2020 21:56:47	120220	12022020	215647	82.31	12.275148	-56.990257	82.34	0.830	0.010	1.250	82.38	-1.10	1.60	 	 	 	 	 	 	 	 	 	 	 	 	 	 	 	 	 	 	1581544607	1.27	2.35
12/02/2020 21:56:48	120220	12022020	215648	82.88	12.275150	-56.990263	82.98	0.210	1.370	0.990	83.02	0.20	1.30	 	 	 	 	 	 	 	 	 	 	 	 	 	 	 	 	 	 	1581544608	1.16	2.15
12/02/2020 21:56:49	120220	12022020	215649	83.58	12.275150	-56.990263	83.65	-0.290	1.670	0.750	83.69	0.30	1.10	 	 	 	 	 	 	 	 	 	 	 	 	 	 	 	 	 	 	1581544609	0.31	0.57
12/02/2020 21:56:50	120220	12022020	215650	83.94	12.275148	-56.990262	83.89	-0.420	1.090	0.870	83.93	-0.40	1.30	 	 	 	 	 	 	 	 	 	 	 	 	 	 	 	 	 	 	1581544610	0.61	1.13
12/02/2020 21:56:51	120220	12022020	215651	83.63	12.275143	-56.990257	83.46	-0.300	0.180	1.590	83.51	-1.30	2.10	 	 	 	 	 	 	 	 	 	 	 	 	 	 	 	 	 	 	1581544611	1.31	2.43
12/02/2020 21:56:52	120220	12022020	215652	83.00	12.275137	-56.990255	82.85	-0.220	-0.510	2.450	82.88	-1.90	2.90	 	 	 	 	 	 	 	 	 	 	 	 	 	 	 	 	 	 	1581544612	1.46	2.70
12/02/2020 21:56:53	120220	12022020	215653	82.52	12.275133	-56.990253	82.46	-0.240	-0.840	2.900	82.46	-2.20	3.30	 	 	 	 	 	 	 	 	 	 	 	 	 	 	 	 	 	 	1581544613	0.78	1.44
12/02/2020 21:56:54	120220	12022020	215654	82.42	12.275135	-56.990255	82.48	-0.190	-0.950	2.550	82.46	-2.30	2.80	 	 	 	 	 	 	 	 	 	 	 	 	 	 	 	 	 	 	1581544614	0.47	0.87
12/02/2020 21:56:55	120220	12022020	215655	82.82	12.275142	-56.990257	82.93	0.020	-0.850	1.540	82.94	-2.10	1.80	 	 	 	 	 	 	 	 	 	 	 	 	 	 	 	 	 	 	1581544615	1.47	2.72
12/02/2020 21:56:56	120220	12022020	215656	83.44	12.275150	-56.990258	83.50	0.300	-0.600	0.440	83.55	-1.90	0.70	 	 	 	 	 	 	 	 	 	 	 	 	 	 	 	 	 	 	1581544616	1.57	2.91
12/02/2020 21:56:57	120220	12022020	215657	83.85	12.275153	-56.990258	83.82	0.450	-0.410	-0.130	83.89	-1.70	0.30	 	 	 	 	 	 	 	 	 	 	 	 	 	 	 	 	 	 	1581544617	0.73	1.35
12/02/2020 21:56:58	120220	12022020	215658	83.85	12.275150	-56.990257	83.74	0.400	-0.370	0.090	83.80	-1.70	0.60	 	 	 	 	 	 	 	 	 	 	 	 	 	 	 	 	 	 	1581544618	0.54	1.00
12/02/2020 21:56:59	120220	12022020	215659	83.52	12.275145	-56.990255	83.39	0.250	-0.240	0.810	83.44	-1.50	1.30	 	 	 	 	 	 	 	 	 	 	 	 	 	 	 	 	 	 	1581544619	1.31	2.43
12/02/2020 21:57:00	120220	12022020	215700	83.13	12.275140	-56.990253	83.05	0.120	0.100	1.570	83.08	-1.20	2.00	 	 	 	 	 	 	 	 	 	 	 	 	 	 	 	 	 	 	1581544620	1.21	2.24
12/02/2020 21:57:01	120220	12022020	215701	82.96	12.275138	-56.990253	82.93	0.090	0.370	1.850	82.96	-0.90	2.20	 	 	 	 	 	 	 	 	 	 	 	 	 	 	 	 	 	 	1581544621	0.40	0.74
12/02/2020 21:57:02	120220	12022020	215702	83.05	12.275140	-56.990253	83.05	0.090	0.380	1.510	83.09	-1.00	1.80	1014.70	26.30	26.30	20.80	20.90	2.0	71.0	72.0	387.0	25.9	339.00	10.90	61.00	10.50	298	11459.0	27.4	27.4	1581544622	0.61	1.13
12/02/2020 21:57:03	120220	12022020	215703	83.31	12.275145	-56.990253	83.30	-0.020	0.190	0.860	83.36	-1.20	1.20	 	 	 	 	 	 	 	 	 	 	 	 	 	 	 	 	 	 	1581544623	1.09	2.02
12/02/2020 21:57:04	120220	12022020	215704	83.50	12.275148	-56.990253	83.45	-0.210	-0.050	0.450	83.51	-1.40	0.80	 	 	 	 	 	 	 	 	 	 	 	 	 	 	 	 	 	 	1581544624	0.74	1.37
12/02/2020 21:57:05	120220	12022020	215705	83.46	12.275148	-56.990253	83.37	-0.400	-0.250	0.500	83.44	-1.60	0.90	 	 	 	 	 	 	 	 	 	 	 	 	 	 	 	 	 	 	1581544625	0.03	0.06
12/02/2020 21:57:06	120220	12022020	215706	83.37	12.275147	-56.990253	83.30	-0.480	-0.430	0.780	83.36	-1.80	1.20	 	 	 	 	 	 	 	 	 	 	 	 	 	 	 	 	 	 	1581544626	0.41	0.76
12/02/2020 21:57:07	120220	12022020	215707	83.41	12.275145	-56.990252	83.38	-0.380	-0.670	1.150	83.43	-2.00	1.60	 	 	 	 	 	 	 	 	 	 	 	 	 	 	 	 	 	 	1581544627	0.64	1.19
12/02/2020 21:57:08	120220	12022020	215708	83.45	12.275140	-56.990250	83.40	-0.160	-0.780	1.550	83.44	-2.10	1.90	 	 	 	 	 	 	 	 	 	 	 	 	 	 	 	 	 	 	1581544628	0.83	1.54
12/02/2020 21:57:09	120220	12022020	215709	83.40	12.275137	-56.990250	83.34	0.130	-0.650	1.710	83.39	-1.90	2.10	 	 	 	 	 	 	 	 	 	 	 	 	 	 	 	 	 	 	1581544629	0.72	1.33
12/02/2020 21:57:10	120220	12022020	215710	83.34	12.275137	-56.990250	83.28	0.450	-0.450	1.590	83.33	-1.80	1.90	 	 	 	 	 	 	 	 	 	 	 	 	 	 	 	 	 	 	1581544630	0.33	0.61
12/02/2020 21:57:11	120220	12022020	215711	83.25	12.275137	-56.990248	83.16	0.720	-0.420	1.400	83.22	-1.70	1.70	 	 	 	 	 	 	 	 	 	 	 	 	 	 	 	 	 	 	1581544631	0.39	0.72
12/02/2020 21:57:12	120220	12022020	215712	83.10	12.275140	-56.990245	83.01	0.800	-0.340	1.160	83.07	-1.60	1.50	 	 	 	 	 	 	 	 	 	 	 	 	 	 	 	 	 	 	1581544632	0.78	1.44
12/02/2020 21:57:13	120220	12022020	215713	83.02	12.275145	-56.990245	82.94	0.560	0.070	0.720	83.02	-1.20	1.00	 	 	 	 	 	 	 	 	 	 	 	 	 	 	 	 	 	 	1581544633	1.00	1.85
12/02/2020 21:57:14	120220	12022020	215714	83.10	12.275150	-56.990248	83.05	0.030	0.710	0.220	83.13	-0.50	0.60	 	 	 	 	 	 	 	 	 	 	 	 	 	 	 	 	 	 	1581544634	1.17	2.17
12/02/2020 21:57:15	120220	12022020	215715	83.26	12.275152	-56.990252	83.21	-0.620	1.140	0.070	83.29	-0.20	0.50	 	 	 	 	 	 	 	 	 	 	 	 	 	 	 	 	 	 	1581544635	0.90	1.67
12/02/2020 21:57:16	120220	12022020	215716	83.35	12.275152	-56.990253	83.30	-1.110	0.960	0.370	83.35	-0.40	0.80	 	 	 	 	 	 	 	 	 	 	 	 	 	 	 	 	 	 	1581544636	0.47	0.87
12/02/2020 21:57:17	120220	12022020	215717	83.30	12.275147	-56.990252	83.22	-1.140	0.090	0.920	83.27	-1.40	1.40	 	 	 	 	 	 	 	 	 	 	 	 	 	 	 	 	 	 	1581544637	0.89	1.65
12/02/2020 21:57:18	120220	12022020	215718	83.13	12.275142	-56.990248	83.05	-0.600	-1.240	1.660	83.09	-2.70	2.10	 	 	 	 	 	 	 	 	 	 	 	 	 	 	 	 	 	 	1581544638	1.48	2.74
12/02/2020 21:57:19	120220	12022020	215719	82.92	12.275137	-56.990242	82.87	0.220	-2.420	2.440	82.88	-3.80	2.90	 	 	 	 	 	 	 	 	 	 	 	 	 	 	 	 	 	 	1581544639	1.84	3.41
12/02/2020 21:57:20	120220	12022020	215720	82.76	12.275132	-56.990237	82.75	0.820	-2.500	2.950	82.74	-3.70	3.30	 	 	 	 	 	 	 	 	 	 	 	 	 	 	 	 	 	 	1581544640	1.42	2.63
12/02/2020 21:57:21	120220	12022020	215721	82.69	12.275130	-56.990238	82.71	0.840	-1.120	2.750	82.68	-2.20	3.00	 	 	 	 	 	 	 	 	 	 	 	 	 	 	 	 	 	 	1581544641	0.45	0.83
12/02/2020 21:57:22	120220	12022020	215722	82.71	12.275133	-56.990245	82.70	0.400	0.820	1.840	82.72	-0.30	2.10	 	 	 	 	 	 	 	 	 	 	 	 	 	 	 	 	 	 	1581544642	1.54	2.85
12/02/2020 21:57:23	120220	12022020	215723	82.80	12.275138	-56.990252	82.77	-0.170	2.110	0.710	82.82	0.90	0.90	 	 	 	 	 	 	 	 	 	 	 	 	 	 	 	 	 	 	1581544643	1.95	3.61
12/02/2020 21:57:24	120220	12022020	215724	82.89	12.275145	-56.990253	82.84	-0.520	2.080	-0.230	82.90	0.60	0.00	 	 	 	 	 	 	 	 	 	 	 	 	 	 	 	 	 	 	1581544644	1.49	2.76
12/02/2020 21:57:25	120220	12022020	215725	82.89	12.275152	-56.990252	82.78	-0.450	0.880	-0.960	82.87	-0.70	-0.60	 	 	 	 	 	 	 	 	 	 	 	 	 	 	 	 	 	 	1581544645	1.31	2.43
12/02/2020 21:57:26	120220	12022020	215726	82.66	12.275157	-56.990247	82.50	-0.050	-0.810	-1.270	82.59	-2.40	-0.90	 	 	 	 	 	 	 	 	 	 	 	 	 	 	 	 	 	 	1581544646	1.48	2.74
12/02/2020 21:57:27	120220	12022020	215727	82.23	12.275158	-56.990242	82.10	0.380	-2.170	-0.980	82.16	-3.60	-0.50	 	 	 	 	 	 	 	 	 	 	 	 	 	 	 	 	 	 	1581544647	1.25	2.31
12/02/2020 21:57:28	120220	12022020	215728	82.08	12.275157	-56.990238	82.07	0.510	-2.420	-0.280	82.12	-3.60	0.20	 	 	 	 	 	 	 	 	 	 	 	 	 	 	 	 	 	 	1581544648	0.80	1.48
12/02/2020 21:57:29	120220	12022020	215729	82.42	12.275150	-56.990240	82.49	0.160	-1.350	0.750	82.52	-2.50	1.30	 	 	 	 	 	 	 	 	 	 	 	 	 	 	 	 	 	 	1581544649	1.60	2.96
12/02/2020 21:57:30	120220	12022020	215730	82.83	12.275138	-56.990245	82.88	-0.450	0.290	1.850	82.89	-0.80	2.40	 	 	 	 	 	 	 	 	 	 	 	 	 	 	 	 	 	 	1581544650	2.48	4.59
12/02/2020 21:57:31	120220	12022020	215731	83.02	12.275130	-56.990248	83.03	-0.890	1.440	2.650	83.04	0.20	3.10	 	 	 	 	 	 	 	 	 	 	 	 	 	 	 	 	 	 	1581544651	2.18	4.04
12/02/2020 21:57:32	120220	12022020	215732	83.08	12.275125	-56.990250	83.09	-0.830	1.570	2.810	83.09	0.20	3.20	 	 	 	 	 	 	 	 	 	 	 	 	 	 	 	 	 	 	1581544652	0.99	1.83
12/02/2020 21:57:33	120220	12022020	215733	83.11	12.275127	-56.990248	83.10	-0.280	0.670	2.420	83.11	-0.90	2.70	 	 	 	 	 	 	 	 	 	 	 	 	 	 	 	 	 	 	1581544653	0.51	0.94
12/02/2020 21:57:34	120220	12022020	215734	83.02	12.275130	-56.990243	82.97	0.470	-0.760	1.850	82.99	-2.30	2.20	 	 	 	 	 	 	 	 	 	 	 	 	 	 	 	 	 	 	1581544654	1.40	2.59
12/02/2020 21:57:35	120220	12022020	215735	82.83	12.275135	-56.990238	82.76	0.950	-1.730	1.340	82.78	-3.10	1.70	 	 	 	 	 	 	 	 	 	 	 	 	 	 	 	 	 	 	1581544655	1.47	2.72
12/02/2020 21:57:36	120220	12022020	215736	82.63	12.275140	-56.990238	82.57	0.900	-1.480	0.820	82.62	-2.70	1.10	 	 	 	 	 	 	 	 	 	 	 	 	 	 	 	 	 	 	1581544656	0.92	1.70
12/02/2020 21:57:37	120220	12022020	215737	82.66	12.275143	-56.990243	82.64	0.400	-0.350	0.090	82.70	-1.50	0.40	 	 	 	 	 	 	 	 	 	 	 	 	 	 	 	 	 	 	1581544657	1.32	2.44
12/02/2020 21:57:38	120220	12022020	215738	82.91	12.275148	-56.990248	82.90	-0.200	0.650	-0.610	82.96	-0.60	-0.30	 	 	 	 	 	 	 	 	 	 	 	 	 	 	 	 	 	 	1581544658	1.46	2.70
12/02/2020 21:57:39	120220	12022020	215739	83.10	12.275150	-56.990250	83.05	-0.600	0.840	-0.740	83.12	-0.50	-0.30	 	 	 	 	 	 	 	 	 	 	 	 	 	 	 	 	 	 	1581544659	0.64	1.19
12/02/2020 21:57:40	120220	12022020	215740	83.13	12.275148	-56.990248	83.08	-0.740	0.300	-0.170	83.13	-1.10	0.30	 	 	 	 	 	 	 	 	 	 	 	 	 	 	 	 	 	 	1581544660	0.60	1.11
12/02/2020 21:57:41	120220	12022020	215741	83.25	12.275142	-56.990245	83.26	-0.650	-0.410	0.690	83.30	-1.80	1.20	 	 	 	 	 	 	 	 	 	 	 	 	 	 	 	 	 	 	1581544661	1.51	2.80
12/02/2020 21:57:42	120220	12022020	215742	83.55	12.275135	-56.990242	83.56	-0.300	-0.880	1.430	83.60	-2.20	1.90	 	 	 	 	 	 	 	 	 	 	 	 	 	 	 	 	 	 	1581544662	1.79	3.32
12/02/2020 21:57:43	120220	12022020	215743	83.59	12.275127	-56.990240	83.50	0.280	-0.980	2.120	83.54	-2.30	2.60	 	 	 	 	 	 	 	 	 	 	 	 	 	 	 	 	 	 	1581544663	1.55	2.87
12/02/2020 21:57:44	120220	12022020	215744	83.11	12.275123	-56.990240	82.94	0.790	-0.690	2.720	82.97	-1.90	3.20	 	 	 	 	 	 	 	 	 	 	 	 	 	 	 	 	 	 	1581544664	0.91	1.69
12/02/2020 21:57:45	120220	12022020	215745	82.43	12.275123	-56.990242	82.30	0.800	-0.070	2.860	82.32	-1.30	3.20	 	 	 	 	 	 	 	 	 	 	 	 	 	 	 	 	 	 	1581544665	0.33	0.61
12/02/2020 21:57:46	120220	12022020	215746	82.13	12.275128	-56.990245	82.13	0.300	0.540	2.270	82.15	-0.70	2.50	 	 	 	 	 	 	 	 	 	 	 	 	 	 	 	 	 	 	1581544666	1.25	2.31
12/02/2020 21:57:47	120220	12022020	215747	82.49	12.275135	-56.990248	82.58	-0.330	0.790	1.180	82.62	-0.60	1.40	 	 	 	 	 	 	 	 	 	 	 	 	 	 	 	 	 	 	1581544667	1.65	3.06
12/02/2020 21:57:48	120220	12022020	215748	83.16	12.275142	-56.990248	83.19	-0.610	0.380	0.150	83.27	-1.10	0.40	 	 	 	 	 	 	 	 	 	 	 	 	 	 	 	 	 	 	1581544668	1.36	2.52
12/02/2020 21:57:49	120220	12022020	215749	83.49	12.275143	-56.990247	83.40	-0.420	-0.510	-0.180	83.49	-2.00	0.20	 	 	 	 	 	 	 	 	 	 	 	 	 	 	 	 	 	 	1581544669	0.70	1.30
12/02/2020 21:57:50	120220	12022020	215750	83.26	12.275142	-56.990243	83.08	0.030	-1.270	0.150	83.18	-2.60	0.60	 	 	 	 	 	 	 	 	 	 	 	 	 	 	 	 	 	 	1581544670	0.97	1.80
12/02/2020 21:57:51	120220	12022020	215751	82.80	12.275137	-56.990240	82.62	0.380	-1.270	0.740	82.72	-2.50	1.20	 	 	 	 	 	 	 	 	 	 	 	 	 	 	 	 	 	 	1581544671	1.07	1.98
12/02/2020 21:57:52	120220	12022020	215752	82.43	12.275133	-56.990242	82.32	0.390	-0.570	1.330	82.37	-1.80	1.80	 	 	 	 	 	 	 	 	 	 	 	 	 	 	 	 	 	 	1581544672	0.95	1.76
12/02/2020 21:57:53	120220	12022020	215753	82.23	12.275130	-56.990245	82.16	0.090	0.180	1.740	82.21	-1.10	2.20	 	 	 	 	 	 	 	 	 	 	 	 	 	 	 	 	 	 	1581544673	0.78	1.44
12/02/2020 21:57:54	120220	12022020	215754	82.21	12.275130	-56.990247	82.21	-0.290	0.590	1.840	82.23	-0.70	2.20	 	 	 	 	 	 	 	 	 	 	 	 	 	 	 	 	 	 	1581544674	0.41	0.76
12/02/2020 21:57:55	120220	12022020	215755	82.38	12.275130	-56.990247	82.40	-0.500	0.640	1.550	82.43	-0.70	1.90	 	 	 	 	 	 	 	 	 	 	 	 	 	 	 	 	 	 	1581544675	0.34	0.63
12/02/2020 21:57:56	120220	12022020	215756	82.63	12.275133	-56.990248	82.65	-0.370	0.280	0.940	82.68	-1.10	1.30	 	 	 	 	 	 	 	 	 	 	 	 	 	 	 	 	 	 	1581544676	0.59	1.09
12/02/2020 21:57:57	120220	12022020	215757	82.76	12.275135	-56.990247	82.70	0.090	-0.380	0.490	82.75	-1.80	0.90	 	 	 	 	 	 	 	 	 	 	 	 	 	 	 	 	 	 	1581544677	0.64	1.19
12/02/2020 21:57:58	120220	12022020	215758	82.60	12.275137	-56.990243	82.47	0.560	-0.870	0.470	82.55	-2.20	0.90	 	 	 	 	 	 	 	 	 	 	 	 	 	 	 	 	 	 	1581544678	0.50	0.93
12/02/2020 21:57:59	120220	12022020	215759	82.32	12.275137	-56.990243	82.21	0.690	-0.850	0.750	82.27	-2.10	1.20	 	 	 	 	 	 	 	 	 	 	 	 	 	 	 	 	 	 	1581544679	0.12	0.22
12/02/2020 21:58:00	120220	12022020	215800	82.16	12.275137	-56.990245	82.11	0.430	-0.560	1.040	82.15	-1.90	1.50	 	 	 	 	 	 	 	 	 	 	 	 	 	 	 	 	 	 	1581544680	0.17	0.31
12/02/2020 21:58:01	120220	12022020	215801	82.15	12.275137	-56.990245	82.13	0.010	-0.380	1.220	82.17	-1.70	1.60	 	 	 	 	 	 	 	 	 	 	 	 	 	 	 	 	 	 	1581544681	0.06	0.11
12/02/2020 21:58:02	120220	12022020	215802	82.29	12.275137	-56.990243	82.31	-0.300	-0.160	1.260	82.34	-1.40	1.70	1014.70	26.20	26.20	20.50	20.60	1.0	70.0	71.0	385.0	25.9	339.00	11.20	61.00	10.80	256	12333.0	27.4	27.4	1581544682	0.10	0.19
12/02/2020 21:58:03	120220	12022020	215803	82.58	12.275135	-56.990245	82.62	-0.430	0.300	1.270	82.64	-1.00	1.70	 	 	 	 	 	 	 	 	 	 	 	 	 	 	 	 	 	 	1581544683	0.37	0.69
12/02/2020 21:58:04	120220	12022020	215804	82.87	12.275133	-56.990248	82.90	-0.450	0.760	1.310	82.91	-0.50	1.70	 	 	 	 	 	 	 	 	 	 	 	 	 	 	 	 	 	 	1581544684	0.72	1.33
12/02/2020 21:58:05	120220	12022020	215805	82.98	12.275132	-56.990250	82.95	-0.380	0.640	1.340	82.97	-0.80	1.70	 	 	 	 	 	 	 	 	 	 	 	 	 	 	 	 	 	 	1581544685	0.53	0.98
12/02/2020 21:58:06	120220	12022020	215806	82.82	12.275130	-56.990247	82.74	-0.180	-0.280	1.470	82.76	-1.80	1.90	 	 	 	 	 	 	 	 	 	 	 	 	 	 	 	 	 	 	1581544686	0.66	1.22
12/02/2020 21:58:07	120220	12022020	215807	82.51	12.275128	-56.990243	82.43	0.070	-1.170	1.660	82.45	-2.60	2.00	 	 	 	 	 	 	 	 	 	 	 	 	 	 	 	 	 	 	1581544687	0.97	1.80
12/02/2020 21:58:08	120220	12022020	215808	82.29	12.275130	-56.990242	82.25	0.270	-1.240	1.520	82.27	-2.50	1.90	 	 	 	 	 	 	 	 	 	 	 	 	 	 	 	 	 	 	1581544688	0.35	0.65
12/02/2020 21:58:09	120220	12022020	215809	82.26	12.275133	-56.990243	82.24	0.400	-0.730	0.970	82.28	-2.00	1.30	 	 	 	 	 	 	 	 	 	 	 	 	 	 	 	 	 	 	1581544689	1.02	1.89
12/02/2020 21:58:10	120220	12022020	215810	82.40	12.275138	-56.990247	82.41	0.540	-0.290	0.380	82.45	-1.60	0.70	 	 	 	 	 	 	 	 	 	 	 	 	 	 	 	 	 	 	1581544690	1.15	2.13
12/02/2020 21:58:11	120220	12022020	215811	82.66	12.275142	-56.990247	82.68	0.610	-0.060	-0.000	82.73	-1.40	0.40	 	 	 	 	 	 	 	 	 	 	 	 	 	 	 	 	 	 	1581544691	0.79	1.46
12/02/2020 21:58:12	120220	12022020	215812	83.00	12.275143	-56.990248	83.01	0.420	0.170	-0.170	83.06	-1.10	0.20	 	 	 	 	 	 	 	 	 	 	 	 	 	 	 	 	 	 	1581544692	0.38	0.70
12/02/2020 21:58:13	120220	12022020	215813	83.22	12.275143	-56.990248	83.19	-0.120	0.440	-0.060	83.24	-0.90	0.40	 	 	 	 	 	 	 	 	 	 	 	 	 	 	 	 	 	 	1581544693	0.27	0.50
12/02/2020 21:58:14	120220	12022020	215814	83.27	12.275140	-56.990250	83.22	-0.780	0.600	0.350	83.27	-0.70	0.80	 	 	 	 	 	 	 	 	 	 	 	 	 	 	 	 	 	 	1581544694	0.84	1.56
12/02/2020 21:58:15	120220	12022020	215815	83.23	12.275133	-56.990250	83.18	-1.090	0.450	1.100	83.21	-0.90	1.60	 	 	 	 	 	 	 	 	 	 	 	 	 	 	 	 	 	 	1581544695	1.22	2.26
12/02/2020 21:58:16	120220	12022020	215816	83.06	12.275128	-56.990250	83.00	-0.830	-0.100	1.980	83.02	-1.50	2.50	 	 	 	 	 	 	 	 	 	 	 	 	 	 	 	 	 	 	1581544696	1.23	2.28
12/02/2020 21:58:17	120220	12022020	215817	82.86	12.275125	-56.990248	82.83	-0.190	-0.830	2.500	82.83	-2.20	2.90	 	 	 	 	 	 	 	 	 	 	 	 	 	 	 	 	 	 	1581544697	0.84	1.56
12/02/2020 21:58:18	120220	12022020	215818	82.78	12.275125	-56.990247	82.77	0.470	-1.310	2.440	82.78	-2.70	2.80	 	 	 	 	 	 	 	 	 	 	 	 	 	 	 	 	 	 	1581544698	0.36	0.67
12/02/2020 21:58:19	120220	12022020	215819	82.86	12.275127	-56.990247	82.89	0.810	-1.240	2.080	82.89	-2.50	2.40	 	 	 	 	 	 	 	 	 	 	 	 	 	 	 	 	 	 	1581544699	0.32	0.59
12/02/2020 21:58:20	120220	12022020	215820	83.06	12.275128	-56.990248	83.08	0.730	-0.720	1.650	83.10	-2.00	2.00	 	 	 	 	 	 	 	 	 	 	 	 	 	 	 	 	 	 	1581544700	0.48	0.89
12/02/2020 21:58:21	120220	12022020	215821	83.29	12.275130	-56.990250	83.31	0.390	-0.100	1.120	83.35	-1.40	1.40	 	 	 	 	 	 	 	 	 	 	 	 	 	 	 	 	 	 	1581544701	0.66	1.22
12/02/2020 21:58:22	120220	12022020	215822	83.55	12.275133	-56.990252	83.54	0.060	0.430	0.520	83.59	-0.90	0.90	 	 	 	 	 	 	 	 	 	 	 	 	 	 	 	 	 	 	1581544702	0.82	1.52
12/02/2020 21:58:23	120220	12022020	215823	83.67	12.275137	-56.990253	83.58	-0.200	0.810	0.160	83.66	-0.50	0.50	 	 	 	 	 	 	 	 	 	 	 	 	 	 	 	 	 	 	1581544703	0.74	1.37
12/02/2020 21:58:24	120220	12022020	215824	83.52	12.275138	-56.990255	83.40	-0.440	0.950	0.170	83.47	-0.40	0.60	 	 	 	 	 	 	 	 	 	 	 	 	 	 	 	 	 	 	1581544704	0.44	0.81
12/02/2020 21:58:25	120220	12022020	215825	83.32	12.275137	-56.990257	83.23	-0.620	0.710	0.380	83.30	-0.70	0.80	 	 	 	 	 	 	 	 	 	 	 	 	 	 	 	 	 	 	1581544705	0.33	0.61
12/02/2020 21:58:26	120220	12022020	215826	83.34	12.275135	-56.990255	83.34	-0.560	-0.200	0.520	83.38	-1.70	0.90	 	 	 	 	 	 	 	 	 	 	 	 	 	 	 	 	 	 	1581544706	0.43	0.80
12/02/2020 21:58:27	120220	12022020	215827	83.61	12.275133	-56.990250	83.62	-0.160	-1.460	0.680	83.66	-2.90	1.10	 	 	 	 	 	 	 	 	 	 	 	 	 	 	 	 	 	 	1581544707	1.11	2.06
12/02/2020 21:58:28	120220	12022020	215828	83.80	12.275128	-56.990245	83.76	0.420	-2.240	1.040	83.80	-3.60	1.50	 	 	 	 	 	 	 	 	 	 	 	 	 	 	 	 	 	 	1581544708	1.39	2.57
12/02/2020 21:58:29	120220	12022020	215829	83.63	12.275125	-56.990242	83.52	0.800	-1.840	1.580	83.56	-3.00	2.00	 	 	 	 	 	 	 	 	 	 	 	 	 	 	 	 	 	 	1581544709	0.89	1.65
12/02/2020 21:58:30	120220	12022020	215830	83.26	12.275123	-56.990245	83.18	0.650	-0.280	1.950	83.21	-1.40	2.30	 	 	 	 	 	 	 	 	 	 	 	 	 	 	 	 	 	 	1581544710	0.80	1.48
12/02/2020 21:58:31	120220	12022020	215831	83.13	12.275125	-56.990253	83.12	0.000	1.510	1.720	83.16	0.40	2.00	 	 	 	 	 	 	 	 	 	 	 	 	 	 	 	 	 	 	1581544711	1.53	2.83
12/02/2020 21:58:32	120220	12022020	215832	83.36	12.275128	-56.990260	83.39	-0.740	2.370	0.990	83.44	1.00	1.30	 	 	 	 	 	 	 	 	 	 	 	 	 	 	 	 	 	 	1581544712	1.66	3.07
12/02/2020 21:58:33	120220	12022020	215833	83.78	12.275133	-56.990260	83.81	-1.020	1.590	0.170	83.87	0.00	0.50	 	 	 	 	 	 	 	 	 	 	 	 	 	 	 	 	 	 	1581544713	1.11	2.06
12/02/2020 21:58:34	120220	12022020	215834	84.16	12.275137	-56.990255	84.14	-0.580	-0.390	-0.230	84.21	-2.00	0.20	 	 	 	 	 	 	 	 	 	 	 	 	 	 	 	 	 	 	1581544714	1.37	2.54
12/02/2020 21:58:35	120220	12022020	215835	84.32	12.275135	-56.990247	84.24	0.260	-2.210	-0.120	84.32	-3.70	0.30	 	 	 	 	 	 	 	 	 	 	 	 	 	 	 	 	 	 	1581544715	1.74	3.22
12/02/2020 21:58:36	120220	12022020	215836	84.12	12.275132	-56.990240	83.97	0.960	-2.820	0.460	84.03	-4.10	1.00	 	 	 	 	 	 	 	 	 	 	 	 	 	 	 	 	 	 	1581544716	1.43	2.65
12/02/2020 21:58:37	120220	12022020	215837	83.62	12.275127	-56.990240	83.47	1.170	-2.100	1.290	83.52	-3.20	1.80	 	 	 	 	 	 	 	 	 	 	 	 	 	 	 	 	 	 	1581544717	1.02	1.89
12/02/2020 21:58:38	120220	12022020	215838	83.22	12.275123	-56.990243	83.13	0.790	-0.420	1.780	83.18	-1.50	2.20	 	 	 	 	 	 	 	 	 	 	 	 	 	 	 	 	 	 	1581544718	0.89	1.65
12/02/2020 21:58:39	120220	12022020	215839	83.24	12.275125	-56.990250	83.25	-0.040	1.570	1.640	83.31	0.50	2.00	 	 	 	 	 	 	 	 	 	 	 	 	 	 	 	 	 	 	1581544719	1.36	2.52
12/02/2020 21:58:40	120220	12022020	215840	83.75	12.275127	-56.990257	83.80	-0.930	2.740	1.050	83.86	1.40	1.40	 	 	 	 	 	 	 	 	 	 	 	 	 	 	 	 	 	 	1581544720	1.47	2.72
12/02/2020 21:58:41	120220	12022020	215841	84.29	12.275130	-56.990257	84.27	-1.360	2.130	0.500	84.35	0.50	0.80	 	 	 	 	 	 	 	 	 	 	 	 	 	 	 	 	 	 	1581544721	0.60	1.11
12/02/2020 21:58:42	120220	12022020	215842	84.39	12.275130	-56.990250	84.27	-1.080	-0.020	0.380	84.35	-1.70	0.80	 	 	 	 	 	 	 	 	 	 	 	 	 	 	 	 	 	 	1581544722	1.46	2.70
12/02/2020 21:58:43	120220	12022020	215843	84.19	12.275128	-56.990240	84.10	-0.300	-2.150	0.560	84.17	-3.70	1.00	 	 	 	 	 	 	 	 	 	 	 	 	 	 	 	 	 	 	1581544723	2.10	3.89
12/02/2020 21:58:44	120220	12022020	215844	84.21	12.275127	-56.990235	84.19	0.520	-2.790	0.760	84.25	-4.10	1.20	 	 	 	 	 	 	 	 	 	 	 	 	 	 	 	 	 	 	1581544724	1.24	2.30
12/02/2020 21:58:45	120220	12022020	215845	84.47	12.275123	-56.990237	84.47	0.940	-1.840	0.980	84.52	-3.00	1.40	 	 	 	 	 	 	 	 	 	 	 	 	 	 	 	 	 	 	1581544725	0.71	1.31
12/02/2020 21:58:46	120220	12022020	215846	84.57	12.275122	-56.990240	84.47	0.800	-0.240	1.150	84.54	-1.40	1.50	 	 	 	 	 	 	 	 	 	 	 	 	 	 	 	 	 	 	1581544726	1.06	1.96
12/02/2020 21:58:47	120220	12022020	215847	84.26	12.275120	-56.990243	84.09	0.380	0.920	1.230	84.16	-0.30	1.60	 	 	 	 	 	 	 	 	 	 	 	 	 	 	 	 	 	 	1581544727	0.73	1.35
12/02/2020 21:58:48	120220	12022020	215848	83.84	12.275123	-56.990243	83.72	0.040	1.020	1.090	83.79	-0.40	1.40	 	 	 	 	 	 	 	 	 	 	 	 	 	 	 	 	 	 	1581544728	0.47	0.87
12/02/2020 21:58:49	120220	12022020	215849	83.72	12.275127	-56.990238	83.67	-0.100	0.310	0.760	83.74	-1.20	1.10	 	 	 	 	 	 	 	 	 	 	 	 	 	 	 	 	 	 	1581544729	1.36	2.52
12/02/2020 21:58:50	120220	12022020	215850	83.91	12.275130	-56.990233	83.92	-0.160	-0.310	0.380	83.98	-1.70	0.70	 	 	 	 	 	 	 	 	 	 	 	 	 	 	 	 	 	 	1581544730	1.37	2.54
12/02/2020 21:58:51	120220	12022020	215851	84.30	12.275132	-56.990232	84.34	-0.250	-0.290	0.090	84.40	-1.60	0.40	 	 	 	 	 	 	 	 	 	 	 	 	 	 	 	 	 	 	1581544731	0.48	0.89
12/02/2020 21:58:52	120220	12022020	215852	84.73	12.275132	-56.990232	84.74	-0.320	0.080	-0.020	84.79	-1.20	0.40	 	 	 	 	 	 	 	 	 	 	 	 	 	 	 	 	 	 	1581544732	0.27	0.50
12/02/2020 21:58:53	120220	12022020	215853	84.91	12.275128	-56.990232	84.87	-0.290	0.190	0.210	84.91	-1.20	0.70	 	 	 	 	 	 	 	 	 	 	 	 	 	 	 	 	 	 	1581544733	0.55	1.02
12/02/2020 21:58:54	120220	12022020	215854	84.80	12.275125	-56.990230	84.72	-0.130	-0.190	0.820	84.76	-1.60	1.30	 	 	 	 	 	 	 	 	 	 	 	 	 	 	 	 	 	 	1581544734	1.02	1.89
12/02/2020 21:58:55	120220	12022020	215855	84.55	12.275120	-56.990225	84.49	0.080	-0.760	1.550	84.51	-2.20	2.00	 	 	 	 	 	 	 	 	 	 	 	 	 	 	 	 	 	 	1581544735	1.30	2.41
12/02/2020 21:58:56	120220	12022020	215856	84.45	12.275118	-56.990220	84.43	0.260	-1.020	1.930	84.45	-2.30	2.30	 	 	 	 	 	 	 	 	 	 	 	 	 	 	 	 	 	 	1581544736	0.94	1.74
12/02/2020 21:58:57	120220	12022020	215857	84.51	12.275118	-56.990218	84.51	0.330	-0.760	1.920	84.53	-2.00	2.30	 	 	 	 	 	 	 	 	 	 	 	 	 	 	 	 	 	 	1581544737	0.39	0.72
12/02/2020 21:58:58	120220	12022020	215858	84.56	12.275120	-56.990218	84.53	0.330	-0.310	1.810	84.56	-1.60	2.20	 	 	 	 	 	 	 	 	 	 	 	 	 	 	 	 	 	 	1581544738	0.25	0.46
12/02/2020 21:58:59	120220	12022020	215859	84.57	12.275122	-56.990217	84.52	0.340	-0.010	1.590	84.57	-1.30	1.90	 	 	 	 	 	 	 	 	 	 	 	 	 	 	 	 	 	 	1581544739	0.49	0.91
12/02/2020 21:59:00	120220	12022020	215900	84.60	12.275125	-56.990213	84.55	0.290	0.140	1.200	84.61	-1.20	1.50	 	 	 	 	 	 	 	 	 	 	 	 	 	 	 	 	 	 	1581544740	0.83	1.54
12/02/2020 21:59:01	120220	12022020	215901	84.68	12.275127	-56.990212	84.65	0.010	0.360	0.730	84.71	-0.90	1.10	 	 	 	 	 	 	 	 	 	 	 	 	 	 	 	 	 	 	1581544741	0.82	1.52
12/02/2020 21:59:02	120220	12022020	215902	84.89	12.275128	-56.990210	84.89	-0.430	0.550	0.380	84.95	-0.80	0.80	1014.80	26.30	26.40	20.50	20.60	1.0	70.0	70.0	384.0	25.9	340.00	10.30	63.00	9.90	218	12603.0	27.4	27.3	1581544742	0.42	0.78
12/02/2020 21:59:03	120220	12022020	215903	85.21	12.275128	-56.990208	85.20	-0.690	0.420	0.340	85.27	-1.00	0.70	 	 	 	 	 	 	 	 	 	 	 	 	 	 	 	 	 	 	1581544743	0.38	0.70
12/02/2020 21:59:04	120220	12022020	215904	85.46	12.275127	-56.990205	85.45	-0.520	-0.210	0.460	85.50	-1.70	0.90	 	 	 	 	 	 	 	 	 	 	 	 	 	 	 	 	 	 	1581544744	0.94	1.74
12/02/2020 21:59:05	120220	12022020	215905	85.58	12.275125	-56.990198	85.52	-0.030	-0.990	0.660	85.57	-2.40	1.10	 	 	 	 	 	 	 	 	 	 	 	 	 	 	 	 	 	 	1581544745	1.33	2.46
12/02/2020 21:59:06	120220	12022020	215906	85.45	12.275122	-56.990193	85.36	0.460	-1.330	0.980	85.40	-2.60	1.40	 	 	 	 	 	 	 	 	 	 	 	 	 	 	 	 	 	 	1581544746	1.26	2.33
12/02/2020 21:59:07	120220	12022020	215907	85.14	12.275120	-56.990190	85.03	0.710	-1.010	1.400	85.06	-2.20	1.90	 	 	 	 	 	 	 	 	 	 	 	 	 	 	 	 	 	 	1581544747	0.80	1.48
12/02/2020 21:59:08	120220	12022020	215908	84.82	12.275120	-56.990188	84.77	0.620	-0.210	1.730	84.80	-1.40	2.10	 	 	 	 	 	 	 	 	 	 	 	 	 	 	 	 	 	 	1581544748	0.22	0.41
12/02/2020 21:59:09	120220	12022020	215909	84.91	12.275122	-56.990190	84.95	0.220	0.630	1.520	84.99	-0.60	1.90	 	 	 	 	 	 	 	 	 	 	 	 	 	 	 	 	 	 	1581544749	0.57	1.06
12/02/2020 21:59:10	120220	12022020	215910	85.33	12.275127	-56.990188	85.36	-0.310	0.950	0.980	85.41	-0.40	1.30	 	 	 	 	 	 	 	 	 	 	 	 	 	 	 	 	 	 	1581544750	0.87	1.61
12/02/2020 21:59:11	120220	12022020	215911	85.68	12.275128	-56.990185	85.67	-0.630	0.450	0.650	85.74	-1.00	1.00	 	 	 	 	 	 	 	 	 	 	 	 	 	 	 	 	 	 	1581544751	0.93	1.72
12/02/2020 21:59:12	120220	12022020	215912	85.89	12.275127	-56.990178	85.87	-0.540	-0.540	0.730	85.92	-2.00	1.20	 	 	 	 	 	 	 	 	 	 	 	 	 	 	 	 	 	 	1581544752	1.57	2.91
12/02/2020 21:59:13	120220	12022020	215913	85.96	12.275123	-56.990170	85.91	-0.080	-1.290	1.110	85.94	-2.60	1.60	 	 	 	 	 	 	 	 	 	 	 	 	 	 	 	 	 	 	1581544753	1.93	3.57
12/02/2020 21:59:14	120220	12022020	215914	85.74	12.275118	-56.990163	85.65	0.390	-1.190	1.590	85.67	-2.40	2.00	 	 	 	 	 	 	 	 	 	 	 	 	 	 	 	 	 	 	1581544754	1.51	2.80
12/02/2020 21:59:15	120220	12022020	215915	85.40	12.275117	-56.990163	85.31	0.450	-0.280	1.880	85.35	-1.40	2.30	 	 	 	 	 	 	 	 	 	 	 	 	 	 	 	 	 	 	1581544755	0.61	1.13
12/02/2020 21:59:16	120220	12022020	215916	85.31	12.275117	-56.990163	85.30	0.100	0.720	1.710	85.34	-0.50	2.00	 	 	 	 	 	 	 	 	 	 	 	 	 	 	 	 	 	 	1581544756	0.28	0.52
12/02/2020 21:59:17	120220	12022020	215917	85.54	12.275120	-56.990163	85.56	-0.330	1.060	1.110	85.60	-0.30	1.40	 	 	 	 	 	 	 	 	 	 	 	 	 	 	 	 	 	 	1581544757	0.79	1.46
12/02/2020 21:59:18	120220	12022020	215918	85.81	12.275125	-56.990160	85.78	-0.430	0.480	0.490	85.85	-1.00	0.80	 	 	 	 	 	 	 	 	 	 	 	 	 	 	 	 	 	 	1581544758	1.38	2.56
12/02/2020 21:59:19	120220	12022020	215919	85.98	12.275130	-56.990153	85.94	-0.130	-0.560	0.060	86.00	-2.00	0.40	 	 	 	 	 	 	 	 	 	 	 	 	 	 	 	 	 	 	1581544759	1.75	3.24
12/02/2020 21:59:20	120220	12022020	215920	86.05	12.275132	-56.990147	85.98	0.310	-1.290	-0.050	86.04	-2.70	0.40	 	 	 	 	 	 	 	 	 	 	 	 	 	 	 	 	 	 	1581544760	1.60	2.96
12/02/2020 21:59:21	120220	12022020	215921	85.96	12.275132	-56.990140	85.90	0.560	-1.360	0.230	85.94	-2.60	0.70	 	 	 	 	 	 	 	 	 	 	 	 	 	 	 	 	 	 	1581544761	1.14	2.11
12/02/2020 21:59:22	120220	12022020	215922	85.91	12.275130	-56.990137	85.91	0.470	-0.940	0.770	85.93	-2.20	1.20	 	 	 	 	 	 	 	 	 	 	 	 	 	 	 	 	 	 	1581544762	0.92	1.70
12/02/2020 21:59:23	120220	12022020	215923	86.11	12.275125	-56.990133	86.15	0.100	-0.340	1.360	86.16	-1.60	1.80	 	 	 	 	 	 	 	 	 	 	 	 	 	 	 	 	 	 	1581544763	1.09	2.02
12/02/2020 21:59:24	120220	12022020	215924	86.35	12.275120	-56.990130	86.37	-0.340	0.330	1.960	86.37	-0.90	2.40	 	 	 	 	 	 	 	 	 	 	 	 	 	 	 	 	 	 	1581544764	1.38	2.56
12/02/2020 21:59:25	120220	12022020	215925	86.31	12.275115	-56.990128	86.25	-0.590	1.000	2.370	86.27	-0.30	2.80	 	 	 	 	 	 	 	 	 	 	 	 	 	 	 	 	 	 	1581544765	1.19	2.20
12/02/2020 21:59:26	120220	12022020	215926	86.04	12.275113	-56.990125	85.97	-0.520	1.220	2.290	86.00	-0.10	2.60	 	 	 	 	 	 	 	 	 	 	 	 	 	 	 	 	 	 	1581544766	0.57	1.06
12/02/2020 21:59:27	120220	12022020	215927	85.94	12.275117	-56.990120	85.91	-0.200	0.670	1.650	85.96	-0.80	1.90	 	 	 	 	 	 	 	 	 	 	 	 	 	 	 	 	 	 	1581544767	1.27	2.35
12/02/2020 21:59:28	120220	12022020	215928	86.18	12.275125	-56.990115	86.20	0.150	-0.340	0.680	86.26	-1.80	0.90	 	 	 	 	 	 	 	 	 	 	 	 	 	 	 	 	 	 	1581544768	2.08	3.85
12/02/2020 21:59:29	120220	12022020	215929	86.62	12.275132	-56.990107	86.63	0.370	-1.270	-0.280	86.70	-2.70	0.00	 	 	 	 	 	 	 	 	 	 	 	 	 	 	 	 	 	 	1581544769	2.25	4.17
12/02/2020 21:59:30	120220	12022020	215930	86.98	12.275137	-56.990102	86.94	0.410	-1.640	-0.700	87.01	-2.90	-0.30	 	 	 	 	 	 	 	 	 	 	 	 	 	 	 	 	 	 	1581544770	1.59	2.94
12/02/2020 21:59:31	120220	12022020	215931	86.98	12.275137	-56.990097	86.87	0.360	-1.370	-0.280	86.92	-2.60	0.20	 	 	 	 	 	 	 	 	 	 	 	 	 	 	 	 	 	 	1581544771	0.95	1.76
12/02/2020 21:59:32	120220	12022020	215932	86.55	12.275132	-56.990093	86.42	0.260	-0.680	0.780	86.44	-1.90	1.30	 	 	 	 	 	 	 	 	 	 	 	 	 	 	 	 	 	 	1581544772	1.30	2.41
12/02/2020 21:59:33	120220	12022020	215933	86.07	12.275125	-56.990088	86.01	0.160	-0.030	1.850	86.02	-1.30	2.30	 	 	 	 	 	 	 	 	 	 	 	 	 	 	 	 	 	 	1581544773	1.49	2.76
12/02/2020 21:59:34	120220	12022020	215934	85.97	12.275122	-56.990083	85.99	0.010	0.400	2.390	86.00	-0.90	2.80	 	 	 	 	 	 	 	 	 	 	 	 	 	 	 	 	 	 	1581544774	1.39	2.57
12/02/2020 21:59:35	120220	12022020	215935	86.23	12.275120	-56.990078	86.29	-0.330	0.820	2.320	86.31	-0.40	2.70	 	 	 	 	 	 	 	 	 	 	 	 	 	 	 	 	 	 	1581544775	1.03	1.91
12/02/2020 21:59:36	120220	12022020	215936	86.68	12.275122	-56.990077	86.74	-0.780	1.200	1.810	86.78	-0.10	2.10	 	 	 	 	 	 	 	 	 	 	 	 	 	 	 	 	 	 	1581544776	0.54	1.00
12/02/2020 21:59:37	120220	12022020	215937	87.14	12.275123	-56.990075	87.15	-0.980	1.090	1.210	87.21	-0.30	1.50	 	 	 	 	 	 	 	 	 	 	 	 	 	 	 	 	 	 	1581544777	0.61	1.13
12/02/2020 21:59:38	120220	12022020	215938	87.36	12.275125	-56.990068	87.29	-0.600	0.120	0.850	87.35	-1.40	1.20	 	 	 	 	 	 	 	 	 	 	 	 	 	 	 	 	 	 	1581544778	1.18	2.19
12/02/2020 21:59:39	120220	12022020	215939	87.17	12.275127	-56.990060	87.01	0.260	-1.320	0.750	87.08	-2.80	1.20	 	 	 	 	 	 	 	 	 	 	 	 	 	 	 	 	 	 	1581544779	1.99	3.69
12/02/2020 21:59:40	120220	12022020	215940	86.68	12.275128	-56.990050	86.52	1.050	-2.290	0.780	86.58	-3.60	1.20	 	 	 	 	 	 	 	 	 	 	 	 	 	 	 	 	 	 	1581544780	2.17	4.02
12/02/2020 21:59:41	120220	12022020	215941	86.32	12.275132	-56.990043	86.25	1.250	-2.090	0.800	86.29	-3.30	1.20	 	 	 	 	 	 	 	 	 	 	 	 	 	 	 	 	 	 	1581544781	1.56	2.89
12/02/2020 21:59:42	120220	12022020	215942	86.36	12.275133	-56.990040	86.41	0.750	-0.790	0.790	86.43	-1.90	1.20	 	 	 	 	 	 	 	 	 	 	 	 	 	 	 	 	 	 	1581544782	0.63	1.17
12/02/2020 21:59:43	120220	12022020	215943	86.85	12.275133	-56.990040	86.94	-0.030	0.680	0.680	86.97	-0.50	1.10	 	 	 	 	 	 	 	 	 	 	 	 	 	 	 	 	 	 	1581544783	0.21	0.39
12/02/2020 21:59:44	120220	12022020	215944	87.41	12.275133	-56.990037	87.46	-0.560	1.320	0.680	87.49	0.00	1.10	 	 	 	 	 	 	 	 	 	 	 	 	 	 	 	 	 	 	1581544784	0.64	1.19
12/02/2020 21:59:45	120220	12022020	215945	87.61	12.275130	-56.990030	87.56	-0.740	1.120	1.000	87.59	-0.30	1.50	 	 	 	 	 	 	 	 	 	 	 	 	 	 	 	 	 	 	1581544785	1.65	3.06
12/02/2020 21:59:46	120220	12022020	215946	87.38	12.275125	-56.990022	87.30	-0.770	0.730	1.600	87.31	-0.60	2.10	 	 	 	 	 	 	 	 	 	 	 	 	 	 	 	 	 	 	1581544786	1.97	3.65
12/02/2020 21:59:47	120220	12022020	215947	87.13	12.275122	-56.990017	87.09	-0.780	0.490	2.130	87.11	-0.90	2.60	 	 	 	 	 	 	 	 	 	 	 	 	 	 	 	 	 	 	1581544787	1.53	2.83
12/02/2020 21:59:48	120220	12022020	215948	87.13	12.275118	-56.990012	87.14	-0.630	-0.030	2.380	87.17	-1.50	2.80	 	 	 	 	 	 	 	 	 	 	 	 	 	 	 	 	 	 	1581544788	1.15	2.13
12/02/2020 21:59:49	120220	12022020	215949	87.31	12.275120	-56.990003	87.31	-0.100	-1.180	2.220	87.35	-2.70	2.60	 	 	 	 	 	 	 	 	 	 	 	 	 	 	 	 	 	 	1581544789	1.73	3.20
12/02/2020 21:59:50	120220	12022020	215950	87.40	12.275122	-56.989992	87.35	0.710	-2.310	1.820	87.39	-3.70	2.20	 	 	 	 	 	 	 	 	 	 	 	 	 	 	 	 	 	 	1581544790	2.51	4.65
12/02/2020 21:59:51	120220	12022020	215951	87.26	12.275125	-56.989982	87.17	1.290	-2.290	1.440	87.20	-3.50	1.80	 	 	 	 	 	 	 	 	 	 	 	 	 	 	 	 	 	 	1581544791	2.19	4.06
12/02/2020 21:59:52	120220	12022020	215952	87.00	12.275128	-56.989978	86.91	1.140	-0.840	1.230	86.95	-1.90	1.60	 	 	 	 	 	 	 	 	 	 	 	 	 	 	 	 	 	 	1581544792	1.04	1.93
12/02/2020 21:59:53	120220	12022020	215953	86.89	12.275130	-56.989978	86.86	0.320	1.050	1.150	86.91	-0.10	1.50	 	 	 	 	 	 	 	 	 	 	 	 	 	 	 	 	 	 	1581544793	0.41	0.76
12/02/2020 21:59:54	120220	12022020	215954	87.13	12.275133	-56.989978	87.16	-0.620	2.060	0.810	87.22	0.80	1.10	 	 	 	 	 	 	 	 	 	 	 	 	 	 	 	 	 	 	1581544794	0.49	0.91
12/02/2020 21:59:55	120220	12022020	215955	87.61	12.275135	-56.989972	87.62	-1.030	1.630	0.210	87.70	0.10	0.50	 	 	 	 	 	 	 	 	 	 	 	 	 	 	 	 	 	 	1581544795	1.49	2.76
12/02/2020 21:59:56	120220	12022020	215956	87.97	12.275137	-56.989960	87.93	-0.770	0.230	-0.080	88.00	-1.30	0.30	 	 	 	 	 	 	 	 	 	 	 	 	 	 	 	 	 	 	1581544796	2.46	4.56
12/02/2020 21:59:57	120220	12022020	215957	88.02	12.275133	-56.989947	87.93	-0.230	-1.060	0.180	87.99	-2.50	0.70	 	 	 	 	 	 	 	 	 	 	 	 	 	 	 	 	 	 	1581544797	2.71	5.02
12/02/2020 21:59:58	120220	12022020	215958	87.76	12.275128	-56.989938	87.64	0.150	-1.430	0.900	87.68	-2.70	1.40	 	 	 	 	 	 	 	 	 	 	 	 	 	 	 	 	 	 	1581544798	2.16	4.00
12/02/2020 21:59:59	120220	12022020	215959	87.26	12.275125	-56.989933	87.13	0.220	-0.990	1.660	87.15	-2.20	2.10	 	 	 	 	 	 	 	 	 	 	 	 	 	 	 	 	 	 	1581544799	1.38	2.56
12/02/2020 22:00:00	120220	12022020	220000	86.75	12.275125	-56.989928	86.65	0.180	-0.390	1.930	86.68	-1.60	2.30	 	 	 	 	 	 	 	 	 	 	 	 	 	 	 	 	 	 	1581544800	0.90	1.67
12/02/2020 22:00:01	120220	12022020	220001	86.59	12.275128	-56.989923	86.59	0.230	-0.100	1.570	86.62	-1.40	1.90	 	 	 	 	 	 	 	 	 	 	 	 	 	 	 	 	 	 	1581544801	1.49	2.76
12/02/2020 22:00:02	120220	12022020	220002	86.90	12.275133	-56.989915	86.96	0.290	-0.150	0.890	86.99	-1.50	1.20	1014.80	26.30	26.30	20.40	20.40	1.0	69.0	70.0	384.0	25.9	339.00	11.30	64.00	10.70	185	12502.0	27.4	27.4	1581544802	2.10	3.89
12/02/2020 22:00:03	120220	12022020	220003	87.37	12.275138	-56.989905	87.41	0.150	-0.240	0.300	87.45	-1.60	0.60	 	 	 	 	 	 	 	 	 	 	 	 	 	 	 	 	 	 	1581544803	2.11	3.91
12/02/2020 22:00:04	120220	12022020	220004	87.67	12.275138	-56.989898	87.63	-0.150	-0.120	0.180	87.69	-1.40	0.60	 	 	 	 	 	 	 	 	 	 	 	 	 	 	 	 	 	 	1581544804	1.73	3.20
12/02/2020 22:00:05	120220	12022020	220005	87.64	12.275135	-56.989890	87.54	-0.340	0.100	0.580	87.60	-1.20	1.10	 	 	 	 	 	 	 	 	 	 	 	 	 	 	 	 	 	 	1581544805	1.73	3.20
12/02/2020 22:00:06	120220	12022020	220006	87.37	12.275132	-56.989882	87.26	-0.200	0.100	1.030	87.31	-1.30	1.50	 	 	 	 	 	 	 	 	 	 	 	 	 	 	 	 	 	 	1581544806	1.87	3.46
12/02/2020 22:00:07	120220	12022020	220007	87.16	12.275130	-56.989873	87.07	0.110	-0.060	1.260	87.12	-1.40	1.70	 	 	 	 	 	 	 	 	 	 	 	 	 	 	 	 	 	 	1581544807	2.00	3.70
12/02/2020 22:00:08	120220	12022020	220008	87.03	12.275130	-56.989863	86.96	0.190	-0.070	1.450	87.01	-1.40	1.90	 	 	 	 	 	 	 	 	 	 	 	 	 	 	 	 	 	 	1581544808	1.79	3.32
12/02/2020 22:00:09	120220	12022020	220009	86.92	12.275132	-56.989857	86.87	-0.050	0.000	1.520	86.91	-1.30	1.90	 	 	 	 	 	 	 	 	 	 	 	 	 	 	 	 	 	 	1581544809	1.52	2.82
12/02/2020 22:00:10	120220	12022020	220010	86.97	12.275132	-56.989850	86.96	-0.300	-0.150	1.260	87.01	-1.50	1.60	 	 	 	 	 	 	 	 	 	 	 	 	 	 	 	 	 	 	1581544810	1.66	3.07
12/02/2020 22:00:11	120220	12022020	220011	87.18	12.275133	-56.989838	87.18	-0.160	-0.700	0.970	87.22	-2.10	1.40	 	 	 	 	 	 	 	 	 	 	 	 	 	 	 	 	 	 	1581544811	2.16	4.00
12/02/2020 22:00:12	120220	12022020	220012	87.26	12.275135	-56.989827	87.21	0.340	-1.220	1.040	87.24	-2.60	1.50	 	 	 	 	 	 	 	 	 	 	 	 	 	 	 	 	 	 	1581544812	2.60	4.82
12/02/2020 22:00:13	120220	12022020	220013	87.15	12.275135	-56.989817	87.12	0.620	-0.970	1.240	87.14	-2.20	1.70	 	 	 	 	 	 	 	 	 	 	 	 	 	 	 	 	 	 	1581544813	2.21	4.09
12/02/2020 22:00:14	120220	12022020	220014	87.28	12.275137	-56.989812	87.34	0.260	0.170	1.180	87.36	-1.00	1.60	 	 	 	 	 	 	 	 	 	 	 	 	 	 	 	 	 	 	1581544814	1.17	2.17
12/02/2020 22:00:15	120220	12022020	220015	87.81	12.275137	-56.989808	87.90	-0.440	1.270	0.900	87.93	-0.00	1.30	 	 	 	 	 	 	 	 	 	 	 	 	 	 	 	 	 	 	1581544815	0.59	1.09
12/02/2020 22:00:16	120220	12022020	220016	88.29	12.275137	-56.989802	88.28	-0.810	1.270	0.900	88.33	-0.20	1.30	 	 	 	 	 	 	 	 	 	 	 	 	 	 	 	 	 	 	1581544816	1.28	2.37
12/02/2020 22:00:17	120220	12022020	220017	88.29	12.275133	-56.989790	88.18	-0.460	0.140	1.280	88.24	-1.40	1.70	 	 	 	 	 	 	 	 	 	 	 	 	 	 	 	 	 	 	1581544817	2.58	4.78
12/02/2020 22:00:18	120220	12022020	220018	87.96	12.275132	-56.989775	87.83	0.300	-1.250	1.590	87.88	-2.80	2.00	 	 	 	 	 	 	 	 	 	 	 	 	 	 	 	 	 	 	1581544818	3.24	6.00
12/02/2020 22:00:19	120220	12022020	220019	87.68	12.275133	-56.989760	87.61	0.860	-2.000	1.580	87.66	-3.40	2.00	 	 	 	 	 	 	 	 	 	 	 	 	 	 	 	 	 	 	1581544819	3.04	5.63
12/02/2020 22:00:20	120220	12022020	220020	87.73	12.275137	-56.989750	87.71	0.820	-1.570	1.240	87.76	-2.80	1.60	 	 	 	 	 	 	 	 	 	 	 	 	 	 	 	 	 	 	1581544820	2.21	4.09
12/02/2020 22:00:21	120220	12022020	220021	87.98	12.275140	-56.989745	87.96	0.310	-0.260	0.800	88.03	-1.40	1.20	 	 	 	 	 	 	 	 	 	 	 	 	 	 	 	 	 	 	1581544821	1.30	2.41
12/02/2020 22:00:22	120220	12022020	220022	88.18	12.275142	-56.989742	88.13	-0.330	1.040	0.480	88.21	-0.20	0.90	 	 	 	 	 	 	 	 	 	 	 	 	 	 	 	 	 	 	1581544822	0.97	1.80
12/02/2020 22:00:23	120220	12022020	220023	88.29	12.275142	-56.989737	88.22	-0.840	1.680	0.350	88.30	0.30	0.80	 	 	 	 	 	 	 	 	 	 	 	 	 	 	 	 	 	 	1581544823	1.19	2.20
12/02/2020 22:00:24	120220	12022020	220024	88.31	12.275140	-56.989727	88.24	-1.000	1.390	0.390	88.31	-0.10	0.80	 	 	 	 	 	 	 	 	 	 	 	 	 	 	 	 	 	 	1581544824	1.82	3.37
12/02/2020 22:00:25	120220	12022020	220025	88.30	12.275138	-56.989715	88.22	-0.640	0.150	0.500	88.29	-1.40	0.90	 	 	 	 	 	 	 	 	 	 	 	 	 	 	 	 	 	 	1581544825	2.62	4.85
12/02/2020 22:00:26	120220	12022020	220026	88.24	12.275138	-56.989700	88.14	0.150	-1.510	0.570	88.21	-3.00	1.00	 	 	 	 	 	 	 	 	 	 	 	 	 	 	 	 	 	 	1581544826	3.37	6.24
12/02/2020 22:00:27	120220	12022020	220027	87.98	12.275138	-56.989683	87.84	0.920	-2.450	0.790	87.90	-3.80	1.20	 	 	 	 	 	 	 	 	 	 	 	 	 	 	 	 	 	 	1581544827	3.32	6.15
12/02/2020 22:00:28	120220	12022020	220028	87.61	12.275138	-56.989673	87.50	1.100	-1.770	1.130	87.56	-2.90	1.60	 	 	 	 	 	 	 	 	 	 	 	 	 	 	 	 	 	 	1581544828	2.14	3.96
12/02/2020 22:00:29	120220	12022020	220029	87.46	12.275138	-56.989670	87.43	0.530	-0.090	1.330	87.47	-1.20	1.70	 	 	 	 	 	 	 	 	 	 	 	 	 	 	 	 	 	 	1581544829	0.84	1.56
12/02/2020 22:00:30	120220	12022020	220030	87.58	12.275138	-56.989665	87.56	-0.230	1.110	1.280	87.61	-0.20	1.70	 	 	 	 	 	 	 	 	 	 	 	 	 	 	 	 	 	 	1581544830	0.89	1.65
12/02/2020 22:00:31	120220	12022020	220031	87.70	12.275137	-56.989657	87.67	-0.580	1.220	1.250	87.72	-0.20	1.70	 	 	 	 	 	 	 	 	 	 	 	 	 	 	 	 	 	 	1581544831	1.95	3.61
12/02/2020 22:00:32	120220	12022020	220032	87.67	12.275135	-56.989643	87.58	-0.420	0.700	1.360	87.63	-0.70	1.80	 	 	 	 	 	 	 	 	 	 	 	 	 	 	 	 	 	 	1581544832	2.66	4.93
12/02/2020 22:00:33	120220	12022020	220033	87.42	12.275135	-56.989632	87.32	-0.130	0.110	1.540	87.37	-1.30	2.00	 	 	 	 	 	 	 	 	 	 	 	 	 	 	 	 	 	 	1581544833	2.61	4.83
12/02/2020 22:00:34	120220	12022020	220034	87.18	12.275137	-56.989620	87.09	0.000	-0.540	1.540	87.15	-2.00	1.90	 	 	 	 	 	 	 	 	 	 	 	 	 	 	 	 	 	 	1581544834	2.55	4.72
12/02/2020 22:00:35	120220	12022020	220035	87.13	12.275138	-56.989607	87.10	-0.020	-1.140	1.330	87.14	-2.50	1.70	 	 	 	 	 	 	 	 	 	 	 	 	 	 	 	 	 	 	1581544835	2.69	4.98
12/02/2020 22:00:36	120220	12022020	220036	87.21	12.275138	-56.989595	87.18	0.020	-1.360	1.360	87.22	-2.70	1.80	 	 	 	 	 	 	 	 	 	 	 	 	 	 	 	 	 	 	1581544836	2.63	4.87
12/02/2020 22:00:37	120220	12022020	220037	87.19	12.275137	-56.989583	87.15	0.160	-0.800	1.630	87.18	-2.00	2.10	 	 	 	 	 	 	 	 	 	 	 	 	 	 	 	 	 	 	1581544837	2.25	4.17
12/02/2020 22:00:38	120220	12022020	220038	87.16	12.275135	-56.989577	87.13	0.220	0.240	1.600	87.16	-1.00	2.00	 	 	 	 	 	 	 	 	 	 	 	 	 	 	 	 	 	 	1581544838	1.47	2.72
12/02/2020 22:00:39	120220	12022020	220039	87.23	12.275137	-56.989570	87.19	0.090	0.870	1.150	87.26	-0.50	1.50	 	 	 	 	 	 	 	 	 	 	 	 	 	 	 	 	 	 	1581544839	1.54	2.85
12/02/2020 22:00:40	120220	12022020	220040	87.34	12.275140	-56.989560	87.28	-0.020	0.560	0.610	87.36	-0.90	1.00	 	 	 	 	 	 	 	 	 	 	 	 	 	 	 	 	 	 	1581544840	2.39	4.43
12/02/2020 22:00:41	120220	12022020	220041	87.33	12.275145	-56.989545	87.22	0.070	-0.400	0.320	87.31	-1.90	0.70	 	 	 	 	 	 	 	 	 	 	 	 	 	 	 	 	 	 	1581544841	3.22	5.96
12/02/2020 22:00:42	120220	12022020	220042	87.17	12.275148	-56.989530	87.06	0.210	-1.130	0.330	87.14	-2.50	0.80	 	 	 	 	 	 	 	 	 	 	 	 	 	 	 	 	 	 	1581544842	3.34	6.19
12/02/2020 22:00:43	120220	12022020	220043	87.11	12.275148	-56.989517	87.09	0.110	-0.950	0.580	87.13	-2.20	1.00	 	 	 	 	 	 	 	 	 	 	 	 	 	 	 	 	 	 	1581544843	2.54	4.70
12/02/2020 22:00:44	120220	12022020	220044	87.34	12.275147	-56.989510	87.37	-0.200	-0.090	0.970	87.41	-1.30	1.40	 	 	 	 	 	 	 	 	 	 	 	 	 	 	 	 	 	 	1581544844	1.76	3.26
12/02/2020 22:00:45	120220	12022020	220045	87.62	12.275142	-56.989502	87.60	-0.440	0.610	1.370	87.65	-0.70	1.80	 	 	 	 	 	 	 	 	 	 	 	 	 	 	 	 	 	 	1581544845	1.83	3.39
12/02/2020 22:00:46	120220	12022020	220046	87.70	12.275138	-56.989492	87.64	-0.370	0.590	1.660	87.70	-0.80	2.10	 	 	 	 	 	 	 	 	 	 	 	 	 	 	 	 	 	 	1581544846	2.31	4.28
12/02/2020 22:00:47	120220	12022020	220047	87.67	12.275138	-56.989478	87.60	-0.040	-0.100	1.830	87.65	-1.60	2.30	 	 	 	 	 	 	 	 	 	 	 	 	 	 	 	 	 	 	1581544847	2.96	5.48
12/02/2020 22:00:48	120220	12022020	220048	87.61	12.275140	-56.989462	87.55	0.280	-0.870	1.850	87.60	-2.20	2.30	 	 	 	 	 	 	 	 	 	 	 	 	 	 	 	 	 	 	1581544848	3.30	6.11
12/02/2020 22:00:49	120220	12022020	220049	87.63	12.275142	-56.989448	87.59	0.380	-0.930	1.570	87.65	-2.20	1.90	 	 	 	 	 	 	 	 	 	 	 	 	 	 	 	 	 	 	1581544849	2.84	5.26
12/02/2020 22:00:50	120220	12022020	220050	87.80	12.275145	-56.989440	87.77	0.270	-0.420	1.080	87.85	-1.70	1.40	 	 	 	 	 	 	 	 	 	 	 	 	 	 	 	 	 	 	1581544850	2.14	3.96
12/02/2020 22:00:51	120220	12022020	220051	88.05	12.275147	-56.989430	88.01	0.090	0.070	0.630	88.10	-1.20	1.00	 	 	 	 	 	 	 	 	 	 	 	 	 	 	 	 	 	 	1581544851	2.02	3.74
12/02/2020 22:00:52	120220	12022020	220052	88.19	12.275148	-56.989418	88.08	-0.010	0.180	0.340	88.18	-1.20	0.80	 	 	 	 	 	 	 	 	 	 	 	 	 	 	 	 	 	 	1581544852	2.39	4.43
12/02/2020 22:00:53	120220	12022020	220053	87.98	12.275148	-56.989405	87.82	-0.080	-0.040	0.480	87.90	-1.40	0.90	 	 	 	 	 	 	 	 	 	 	 	 	 	 	 	 	 	 	1581544853	2.80	5.19
12/02/2020 22:00:54	120220	12022020	220054	87.55	12.275148	-56.989392	87.40	-0.200	-0.260	0.870	87.47	-1.60	1.30	 	 	 	 	 	 	 	 	 	 	 	 	 	 	 	 	 	 	1581544854	2.90	5.37
12/02/2020 22:00:55	120220	12022020	220055	87.31	12.275147	-56.989380	87.25	-0.300	-0.250	0.990	87.31	-1.60	1.40	 	 	 	 	 	 	 	 	 	 	 	 	 	 	 	 	 	 	1581544855	2.67	4.94
12/02/2020 22:00:56	120220	12022020	220056	87.36	12.275147	-56.989368	87.32	-0.260	-0.150	0.860	87.37	-1.50	1.30	 	 	 	 	 	 	 	 	 	 	 	 	 	 	 	 	 	 	1581544856	2.47	4.57
12/02/2020 22:00:57	120220	12022020	220057	87.31	12.275147	-56.989355	87.20	-0.040	-0.200	0.820	87.26	-1.60	1.20	 	 	 	 	 	 	 	 	 	 	 	 	 	 	 	 	 	 	1581544857	2.61	4.83
12/02/2020 22:00:58	120220	12022020	220058	87.01	12.275148	-56.989342	86.89	0.290	-0.440	0.910	86.95	-1.80	1.30	 	 	 	 	 	 	 	 	 	 	 	 	 	 	 	 	 	 	1581544858	2.97	5.50
12/02/2020 22:00:59	120220	12022020	220059	86.81	12.275150	-56.989327	86.75	0.460	-0.540	0.930	86.80	-1.80	1.30	 	 	 	 	 	 	 	 	 	 	 	 	 	 	 	 	 	 	1581544859	3.04	5.63
12/02/2020 22:01:00	120220	12022020	220100	86.89	12.275150	-56.989315	86.88	0.300	-0.190	0.930	86.92	-1.50	1.40	 	 	 	 	 	 	 	 	 	 	 	 	 	 	 	 	 	 	1581544860	2.56	4.74
12/02/2020 22:01:01	120220	12022020	220101	87.06	12.275150	-56.989305	87.05	-0.060	0.290	1.110	87.08	-1.00	1.60	 	 	 	 	 	 	 	 	 	 	 	 	 	 	 	 	 	 	1581544861	2.15	3.98
12/02/2020 22:01:02	120220	12022020	220102	87.13	12.275147	-56.989293	87.10	-0.280	0.330	1.560	87.12	-1.00	2.00	1014.70	26.40	26.40	20.40	20.50	1.0	69.0	70.0	385.0	25.9	340.00	11.00	65.00	10.00	155	12933.0	27.4	27.4	1581544862	2.44	4.52
12/02/2020 22:01:03	120220	12022020	220103	86.96	12.275145	-56.989278	86.86	-0.260	-0.180	2.140	86.88	-1.60	2.60	 	 	 	 	 	 	 	 	 	 	 	 	 	 	 	 	 	 	1581544863	3.17	5.87
12/02/2020 22:01:04	120220	12022020	220104	86.57	12.275142	-56.989262	86.49	-0.150	-0.730	2.570	86.50	-2.10	3.00	 	 	 	 	 	 	 	 	 	 	 	 	 	 	 	 	 	 	1581544864	3.50	6.48
12/02/2020 22:01:05	120220	12022020	220105	86.36	12.275140	-56.989247	86.34	-0.110	-0.820	2.720	86.35	-2.10	3.10	 	 	 	 	 	 	 	 	 	 	 	 	 	 	 	 	 	 	1581544865	3.18	5.89
12/02/2020 22:01:06	120220	12022020	220106	86.41	12.275140	-56.989235	86.42	-0.110	-0.330	2.560	86.44	-1.60	2.90	 	 	 	 	 	 	 	 	 	 	 	 	 	 	 	 	 	 	1581544866	2.50	4.63
12/02/2020 22:01:07	120220	12022020	220107	86.51	12.275142	-56.989225	86.46	-0.020	0.180	2.020	86.51	-1.10	2.30	 	 	 	 	 	 	 	 	 	 	 	 	 	 	 	 	 	 	1581544867	2.21	4.09
12/02/2020 22:01:08	120220	12022020	220108	86.45	12.275147	-56.989213	86.37	0.180	0.130	1.230	86.45	-1.30	1.50	 	 	 	 	 	 	 	 	 	 	 	 	 	 	 	 	 	 	1581544868	2.87	5.32
12/02/2020 22:01:09	120220	12022020	220109	86.41	12.275153	-56.989197	86.34	0.340	-0.310	0.310	86.42	-1.70	0.60	 	 	 	 	 	 	 	 	 	 	 	 	 	 	 	 	 	 	1581544869	3.59	6.65
12/02/2020 22:01:10	120220	12022020	220110	86.62	12.275160	-56.989183	86.63	0.220	-0.370	-0.390	86.62	-1.70	-0.00	 	 	 	 	 	 	 	 	 	 	 	 	 	 	 	 	 	 	1581544870	3.37	6.24
12/02/2020 22:01:11	120220	12022020	220111	87.07	12.275162	-56.989172	87.10	-0.160	0.100	-0.610	87.16	-1.20	-0.20	 	 	 	 	 	 	 	 	 	 	 	 	 	 	 	 	 	 	1581544871	2.42	4.48
12/02/2020 22:01:12	120220	12022020	220112	87.42	12.275160	-56.989160	87.38	-0.420	0.310	-0.280	87.44	-1.10	0.20	 	 	 	 	 	 	 	 	 	 	 	 	 	 	 	 	 	 	1581544872	2.31	4.28
12/02/2020 22:01:13	120220	12022020	220113	87.27	12.275155	-56.989145	87.13	-0.200	-0.370	0.540	87.18	-1.80	1.10	 	 	 	 	 	 	 	 	 	 	 	 	 	 	 	 	 	 	1581544873	3.44	6.37
12/02/2020 22:01:14	120220	12022020	220114	86.74	12.275150	-56.989125	86.62	0.410	-1.340	1.420	86.64	-2.70	1.90	 	 	 	 	 	 	 	 	 	 	 	 	 	 	 	 	 	 	1581544874	4.30	7.96
12/02/2020 22:01:15	120220	12022020	220115	86.40	12.275150	-56.989108	86.37	0.880	-1.340	1.940	86.39	-2.60	2.40	 	 	 	 	 	 	 	 	 	 	 	 	 	 	 	 	 	 	1581544875	3.75	6.95
12/02/2020 22:01:16	120220	12022020	220116	86.45	12.275152	-56.989097	86.50	0.560	-0.060	1.990	86.50	-1.20	2.40	 	 	 	 	 	 	 	 	 	 	 	 	 	 	 	 	 	 	1581544876	2.23	4.13
12/02/2020 22:01:17	120220	12022020	220117	86.75	12.275155	-56.989092	86.80	-0.550	1.460	1.580	86.83	0.30	1.90	 	 	 	 	 	 	 	 	 	 	 	 	 	 	 	 	 	 	1581544877	1.34	2.48
12/02/2020 22:01:18	120220	12022020	220118	87.12	12.275155	-56.989085	87.13	-1.700	2.040	1.110	87.18	0.70	1.50	 	 	 	 	 	 	 	 	 	 	 	 	 	 	 	 	 	 	1581544878	1.49	2.76
12/02/2020 22:01:19	120220	12022020	220119	87.32	12.275152	-56.989072	87.27	-1.930	1.080	1.020	87.33	-0.50	1.40	 	 	 	 	 	 	 	 	 	 	 	 	 	 	 	 	 	 	1581544879	2.88	5.33
12/02/2020 22:01:20	120220	12022020	220120	87.20	12.275147	-56.989052	87.07	-0.900	-1.070	1.220	87.13	-2.70	1.70	 	 	 	 	 	 	 	 	 	 	 	 	 	 	 	 	 	 	1581544880	4.46	8.26
12/02/2020 22:01:21	120220	12022020	220121	86.78	12.275143	-56.989028	86.64	0.710	-3.030	1.380	86.68	-4.50	1.80	 	 	 	 	 	 	 	 	 	 	 	 	 	 	 	 	 	 	1581544881	4.96	9.19
12/02/2020 22:01:22	120220	12022020	220122	86.28	12.275145	-56.989008	86.14	1.890	-3.320	1.190	86.18	-4.50	1.50	 	 	 	 	 	 	 	 	 	 	 	 	 	 	 	 	 	 	1581544882	4.09	7.57
12/02/2020 22:01:23	120220	12022020	220123	85.90	12.275152	-56.988998	85.80	1.940	-1.410	0.570	85.85	-2.40	0.90	 	 	 	 	 	 	 	 	 	 	 	 	 	 	 	 	 	 	1581544883	2.51	4.65
12/02/2020 22:01:24	120220	12022020	220124	85.70	12.275160	-56.988997	85.64	0.870	1.450	-0.120	85.69	0.50	0.20	 	 	 	 	 	 	 	 	 	 	 	 	 	 	 	 	 	 	1581544884	1.76	3.26
12/02/2020 22:01:25	120220	12022020	220125	85.72	12.275165	-56.988993	85.67	-0.640	3.260	-0.490	85.75	2.00	-0.10	 	 	 	 	 	 	 	 	 	 	 	 	 	 	 	 	 	 	1581544885	1.33	2.46
12/02/2020 22:01:26	120220	12022020	220126	85.91	12.275167	-56.988982	85.89	-1.650	2.860	-0.500	85.96	1.30	-0.10	 	 	 	 	 	 	 	 	 	 	 	 	 	 	 	 	 	 	1581544886	2.31	4.28
12/02/2020 22:01:27	120220	12022020	220127	86.11	12.275163	-56.988963	86.04	-1.620	0.670	-0.080	86.12	-1.00	0.40	 	 	 	 	 	 	 	 	 	 	 	 	 	 	 	 	 	 	1581544887	4.17	7.72
12/02/2020 22:01:28	120220	12022020	220128	86.05	12.275158	-56.988940	85.96	-0.750	-1.760	0.870	86.00	-3.30	1.40	 	 	 	 	 	 	 	 	 	 	 	 	 	 	 	 	 	 	1581544888	5.05	9.35
12/02/2020 22:01:29	120220	12022020	220129	85.72	12.275150	-56.988920	85.62	0.310	-2.940	2.150	85.62	-4.30	2.70	 	 	 	 	 	 	 	 	 	 	 	 	 	 	 	 	 	 	1581544889	4.49	8.32
12/02/2020 22:01:30	120220	12022020	220130	85.23	12.275143	-56.988905	85.13	0.940	-2.540	3.490	85.12	-3.70	4.10	 	 	 	 	 	 	 	 	 	 	 	 	 	 	 	 	 	 	1581544890	3.39	6.28
12/02/2020 22:01:31	120220	12022020	220131	84.80	12.275137	-56.988895	84.77	0.980	-1.230	4.400	84.75	-2.40	4.90	 	 	 	 	 	 	 	 	 	 	 	 	 	 	 	 	 	 	1581544891	2.54	4.70
12/02/2020 22:01:32	120220	12022020	220132	84.67	12.275137	-56.988885	84.67	0.610	0.140	4.340	84.67	-1.00	4.60	 	 	 	 	 	 	 	 	 	 	 	 	 	 	 	 	 	 	1581544892	2.12	3.93
12/02/2020 22:01:33	120220	12022020	220133	84.79	12.275143	-56.988875	84.78	0.010	1.310	3.120	84.84	0.10	3.30	 	 	 	 	 	 	 	 	 	 	 	 	 	 	 	 	 	 	1581544893	2.44	4.52
12/02/2020 22:01:34	120220	12022020	220134	85.13	12.275153	-56.988867	85.13	-0.590	2.100	1.270	85.22	0.80	1.40	 	 	 	 	 	 	 	 	 	 	 	 	 	 	 	 	 	 	1581544894	2.90	5.37
12/02/2020 22:01:35	120220	12022020	220135	85.58	12.275165	-56.988857	85.53	-0.860	1.870	-0.520	85.66	0.40	-0.30	 	 	 	 	 	 	 	 	 	 	 	 	 	 	 	 	 	 	1581544895	3.21	5.94
12/02/2020 22:01:36	120220	12022020	220136	85.96	12.275175	-56.988840	85.89	-0.500	0.190	-1.920	86.02	-1.50	-1.60	 	 	 	 	 	 	 	 	 	 	 	 	 	 	 	 	 	 	1581544896	4.00	7.41
12/02/2020 22:01:37	120220	12022020	220137	86.16	12.275182	-56.988818	86.03	0.360	-2.140	-2.550	86.16	-3.70	-2.10	 	 	 	 	 	 	 	 	 	 	 	 	 	 	 	 	 	 	1581544897	4.94	9.15
12/02/2020 22:01:38	120220	12022020	220138	86.06	12.275185	-56.988797	85.94	1.140	-3.460	-2.170	86.03	-4.80	-1.60	 	 	 	 	 	 	 	 	 	 	 	 	 	 	 	 	 	 	1581544898	4.70	8.70
12/02/2020 22:01:39	120220	12022020	220139	86.01	12.275183	-56.988782	86.00	1.240	-2.550	-0.980	86.05	-3.60	-0.40	 	 	 	 	 	 	 	 	 	 	 	 	 	 	 	 	 	 	1581544899	3.12	5.78
12/02/2020 22:01:40	120220	12022020	220140	86.38	12.275175	-56.988777	86.52	0.520	-0.030	0.690	86.52	-1.00	1.30	 	 	 	 	 	 	 	 	 	 	 	 	 	 	 	 	 	 	1581544900	1.99	3.69
12/02/2020 22:01:41	120220	12022020	220141	87.18	12.275165	-56.988773	87.39	-0.590	2.380	2.400	87.36	1.30	3.00	 	 	 	 	 	 	 	 	 	 	 	 	 	 	 	 	 	 	1581544901	2.31	4.28
12/02/2020 22:01:42	120220	12022020	220142	88.01	12.275155	-56.988767	88.19	-1.420	3.200	3.800	88.14	1.80	4.30	 	 	 	 	 	 	 	 	 	 	 	 	 	 	 	 	 	 	1581544902	2.67	4.94
12/02/2020 22:01:43	120220	12022020	220143	88.51	12.275147	-56.988752	88.61	-1.440	1.970	4.620	88.56	0.30	5.10	 	 	 	 	 	 	 	 	 	 	 	 	 	 	 	 	 	 	1581544903	3.52	6.52
12/02/2020 22:01:44	120220	12022020	220144	88.58	12.275143	-56.988730	88.61	-0.690	-0.460	4.890	88.58	-2.20	5.30	 	 	 	 	 	 	 	 	 	 	 	 	 	 	 	 	 	 	1581544904	4.51	8.35
12/02/2020 22:01:45	120220	12022020	220145	88.55	12.275143	-56.988708	88.58	0.390	-2.640	4.500	88.57	-4.20	4.80	 	 	 	 	 	 	 	 	 	 	 	 	 	 	 	 	 	 	1581544905	4.70	8.70
12/02/2020 22:01:46	120220	12022020	220146	88.73	12.275148	-56.988690	88.75	1.260	-3.220	3.390	88.77	-4.50	3.60	 	 	 	 	 	 	 	 	 	 	 	 	 	 	 	 	 	 	1581544906	3.87	7.17
12/02/2020 22:01:47	120220	12022020	220147	88.86	12.275160	-56.988680	88.79	1.530	-1.990	1.570	88.86	-3.10	1.70	 	 	 	 	 	 	 	 	 	 	 	 	 	 	 	 	 	 	1581544907	3.11	5.76
12/02/2020 22:01:48	120220	12022020	220148	88.78	12.275175	-56.988675	88.65	1.150	-0.060	-0.490	88.76	-1.20	-0.40	 	 	 	 	 	 	 	 	 	 	 	 	 	 	 	 	 	 	1581544908	3.47	6.43
12/02/2020 22:01:49	120220	12022020	220149	88.82	12.275188	-56.988667	88.71	0.280	1.330	-2.230	88.86	0.10	-2.00	 	 	 	 	 	 	 	 	 	 	 	 	 	 	 	 	 	 	1581544909	3.34	6.19
12/02/2020 22:01:50	120220	12022020	220150	89.03	12.275195	-56.988655	88.90	-0.600	1.520	-3.070	89.06	0.10	-2.70	 	 	 	 	 	 	 	 	 	 	 	 	 	 	 	 	 	 	1581544910	2.93	5.43
12/02/2020 22:01:51	120220	12022020	220151	89.06	12.275193	-56.988638	88.88	-0.990	0.760	-2.940	89.03	-0.70	-2.40	 	 	 	 	 	 	 	 	 	 	 	 	 	 	 	 	 	 	1581544911	3.51	6.50
12/02/2020 22:01:52	120220	12022020	220152	88.90	12.275188	-56.988620	88.75	-0.790	-0.130	-2.160	88.87	-1.60	-1.60	 	 	 	 	 	 	 	 	 	 	 	 	 	 	 	 	 	 	1581544912	3.97	7.35
12/02/2020 22:01:53	120220	12022020	220153	88.83	12.275180	-56.988605	88.72	-0.370	-0.560	-0.980	88.81	-1.90	-0.40	 	 	 	 	 	 	 	 	 	 	 	 	 	 	 	 	 	 	1581544913	3.66	6.78
12/02/2020 22:01:54	120220	12022020	220154	88.66	12.275172	-56.988592	88.53	-0.110	-0.540	0.470	88.59	-1.90	1.10	 	 	 	 	 	 	 	 	 	 	 	 	 	 	 	 	 	 	1581544914	3.21	5.94
12/02/2020 22:01:55	120220	12022020	220155	88.18	12.275163	-56.988580	88.01	-0.010	-0.500	1.890	88.06	-1.80	2.50	 	 	 	 	 	 	 	 	 	 	 	 	 	 	 	 	 	 	1581544915	3.08	5.70
12/02/2020 22:01:56	120220	12022020	220156	87.53	12.275157	-56.988567	87.39	0.140	-0.630	3.100	87.40	-2.00	3.60	 	 	 	 	 	 	 	 	 	 	 	 	 	 	 	 	 	 	1581544916	3.25	6.02
12/02/2020 22:01:57	120220	12022020	220157	86.98	12.275152	-56.988552	86.88	0.400	-0.750	3.780	86.89	-2.10	4.20	 	 	 	 	 	 	 	 	 	 	 	 	 	 	 	 	 	 	1581544917	3.31	6.13
12/02/2020 22:01:58	120220	12022020	220158	86.60	12.275152	-56.988537	86.51	0.620	-0.550	3.690	86.60	-1.80	4.00	 	 	 	 	 	 	 	 	 	 	 	 	 	 	 	 	 	 	1581544918	3.00	5.56
12/02/2020 22:01:59	120220	12022020	220159	86.34	12.275157	-56.988525	86.24	0.600	-0.060	2.890	86.29	-1.30	3.10	 	 	 	 	 	 	 	 	 	 	 	 	 	 	 	 	 	 	1581544919	2.78	5.15
12/02/2020 22:02:00	120220	12022020	220200	86.08	12.275165	-56.988513	85.96	0.350	0.270	1.860	86.08	-1.10	2.10	 	 	 	 	 	 	 	 	 	 	 	 	 	 	 	 	 	 	1581544920	2.91	5.39
12/02/2020 22:02:01	120220	12022020	220201	85.72	12.275170	-56.988500	85.55	0.140	0.100	1.010	85.64	-1.30	1.30	 	 	 	 	 	 	 	 	 	 	 	 	 	 	 	 	 	 	1581544921	3.24	6.00
12/02/2020 22:02:02	120220	12022020	220202	85.34	12.275175	-56.988483	85.19	0.030	-0.300	0.270	85.27	-1.70	0.60	1014.70	26.30	26.40	20.50	20.60	0.0	70.0	70.0	385.0	25.9	342.00	12.00	66.00	10.50	130	11372.0	27.4	27.4	1581544922	3.54	6.56
12/02/2020 22:02:03	120220	12022020	220203	84.99	12.275178	-56.988468	84.85	-0.080	-0.440	-0.130	84.92	-1.70	0.30	 	 	 	 	 	 	 	 	 	 	 	 	 	 	 	 	 	 	1581544923	3.35	6.20
12/02/2020 22:02:04	120220	12022020	220204	84.63	12.275177	-56.988455	84.51	-0.320	-0.110	-0.030	84.56	-1.40	0.40	 	 	 	 	 	 	 	 	 	 	 	 	 	 	 	 	 	 	1581544924	2.85	5.28
12/02/2020 22:02:05	120220	12022020	220205	84.31	12.275175	-56.988443	84.22	-0.620	0.470	0.360	84.25	-0.80	0.80	 	 	 	 	 	 	 	 	 	 	 	 	 	 	 	 	 	 	1581544925	2.38	4.41
12/02/2020 22:02:06	120220	12022020	220206	84.06	12.275173	-56.988432	83.99	-0.720	0.740	0.720	84.02	-0.60	1.20	 	 	 	 	 	 	 	 	 	 	 	 	 	 	 	 	 	 	1581544926	2.29	4.24
12/02/2020 22:02:07	120220	12022020	220207	83.98	12.275173	-56.988418	83.96	-0.340	0.100	0.970	83.99	-1.40	1.40	 	 	 	 	 	 	 	 	 	 	 	 	 	 	 	 	 	 	1581544927	2.98	5.52
12/02/2020 22:02:08	120220	12022020	220208	84.05	12.275175	-56.988400	84.05	0.410	-1.190	1.340	84.05	-2.70	1.80	 	 	 	 	 	 	 	 	 	 	 	 	 	 	 	 	 	 	1581544928	4.02	7.45
12/02/2020 22:02:09	120220	12022020	220209	84.12	12.275173	-56.988380	84.10	0.990	-2.010	2.010	84.12	-3.30	2.50	 	 	 	 	 	 	 	 	 	 	 	 	 	 	 	 	 	 	1581544929	4.26	7.89
12/02/2020 22:02:10	120220	12022020	220210	84.05	12.275170	-56.988363	84.02	0.970	-1.500	2.700	84.02	-2.70	3.20	 	 	 	 	 	 	 	 	 	 	 	 	 	 	 	 	 	 	1581544930	3.33	6.17
12/02/2020 22:02:11	120220	12022020	220211	83.95	12.275168	-56.988355	83.95	0.470	-0.050	2.880	83.96	-1.20	3.20	 	 	 	 	 	 	 	 	 	 	 	 	 	 	 	 	 	 	1581544931	1.99	3.69
12/02/2020 22:02:12	120220	12022020	220212	84.06	12.275172	-56.988347	84.07	-0.150	1.290	2.440	84.10	0.10	2.80	 	 	 	 	 	 	 	 	 	 	 	 	 	 	 	 	 	 	1581544932	1.71	3.17
12/02/2020 22:02:13	120220	12022020	220213	84.22	12.275178	-56.988338	84.22	-0.650	1.700	1.860	84.25	0.30	2.20	 	 	 	 	 	 	 	 	 	 	 	 	 	 	 	 	 	 	1581544933	2.33	4.32
12/02/2020 22:02:14	120220	12022020	220214	84.36	12.275182	-56.988323	84.35	-0.890	1.060	1.320	84.39	-0.40	1.70	 	 	 	 	 	 	 	 	 	 	 	 	 	 	 	 	 	 	1581544934	3.06	5.67
12/02/2020 22:02:15	120220	12022020	220215	84.48	12.275187	-56.988307	84.46	-0.790	-0.220	0.830	84.50	-1.80	1.20	 	 	 	 	 	 	 	 	 	 	 	 	 	 	 	 	 	 	1581544935	3.65	6.76
12/02/2020 22:02:16	120220	12022020	220216	84.61	12.275190	-56.988288	84.61	-0.280	-1.570	0.370	84.64	-3.10	0.70	 	 	 	 	 	 	 	 	 	 	 	 	 	 	 	 	 	 	1581544936	3.97	7.35
12/02/2020 22:02:17	120220	12022020	220217	84.88	12.275195	-56.988272	84.93	0.520	-2.300	0.030	84.96	-3.70	0.40	 	 	 	 	 	 	 	 	 	 	 	 	 	 	 	 	 	 	1581544937	3.88	7.19
12/02/2020 22:02:18	120220	12022020	220218	85.30	12.275197	-56.988255	85.36	1.180	-1.960	0.000	85.38	-3.20	0.40	 	 	 	 	 	 	 	 	 	 	 	 	 	 	 	 	 	 	1581544938	3.27	6.06
12/02/2020 22:02:19	120220	12022020	220219	85.64	12.275198	-56.988245	85.71	1.110	-0.460	0.200	85.72	-1.60	0.60	 	 	 	 	 	 	 	 	 	 	 	 	 	 	 	 	 	 	1581544939	2.29	4.24
12/02/2020 22:02:20	120220	12022020	220220	86.04	12.275198	-56.988238	86.12	0.170	1.460	0.590	86.13	0.30	1.10	 	 	 	 	 	 	 	 	 	 	 	 	 	 	 	 	 	 	1581544940	1.28	2.37
12/02/2020 22:02:21	120220	12022020	220221	86.49	12.275197	-56.988233	86.56	-1.060	2.550	1.170	86.58	1.20	1.60	 	 	 	 	 	 	 	 	 	 	 	 	 	 	 	 	 	 	1581544941	1.44	2.67
12/02/2020 22:02:22	120220	12022020	220222	86.87	12.275193	-56.988222	86.90	-1.750	2.040	1.650	86.92	0.50	2.10	 	 	 	 	 	 	 	 	 	 	 	 	 	 	 	 	 	 	1581544942	2.58	4.78
12/02/2020 22:02:23	120220	12022020	220223	86.94	12.275190	-56.988202	86.86	-1.320	-0.020	2.100	86.90	-1.70	2.60	 	 	 	 	 	 	 	 	 	 	 	 	 	 	 	 	 	 	1581544943	4.08	7.56
12/02/2020 22:02:24	120220	12022020	220224	86.57	12.275187	-56.988178	86.42	0.020	-2.410	2.600	86.57	-4.00	3.00	 	 	 	 	 	 	 	 	 	 	 	 	 	 	 	 	 	 	1581544944	5.03	9.32
12/02/2020 22:02:25	120220	12022020	220225	86.08	12.275188	-56.988158	86.00	1.260	-3.370	2.710	86.03	-4.60	3.10	 	 	 	 	 	 	 	 	 	 	 	 	 	 	 	 	 	 	1581544945	4.45	8.24
12/02/2020 22:02:26	120220	12022020	220226	86.03	12.275195	-56.988145	86.05	1.500	-2.260	2.070	86.08	-3.30	2.30	 	 	 	 	 	 	 	 	 	 	 	 	 	 	 	 	 	 	1581544946	2.93	5.43
12/02/2020 22:02:27	120220	12022020	220227	86.47	12.275203	-56.988138	86.53	0.800	-0.150	0.990	86.59	-1.20	1.20	 	 	 	 	 	 	 	 	 	 	 	 	 	 	 	 	 	 	1581544947	2.07	3.83
12/02/2020 22:02:28	120220	12022020	220228	87.03	12.275208	-56.988133	87.03	-0.220	1.720	0.080	87.12	0.50	0.40	 	 	 	 	 	 	 	 	 	 	 	 	 	 	 	 	 	 	1581544948	1.63	3.02
12/02/2020 22:02:29	120220	12022020	220229	87.30	12.275210	-56.988125	87.21	-0.950	2.540	-0.390	87.30	1.20	-0.00	 	 	 	 	 	 	 	 	 	 	 	 	 	 	 	 	 	 	1581544949	1.90	3.52
12/02/2020 22:02:30	120220	12022020	220230	87.09	12.275210	-56.988110	86.92	-1.070	1.850	-0.460	87.00	0.30	-0.10	 	 	 	 	 	 	 	 	 	 	 	 	 	 	 	 	 	 	1581544950	2.97	5.50
12/02/2020 22:02:31	120220	12022020	220231	86.53	12.275208	-56.988090	86.32	-0.600	-0.030	-0.180	86.40	-1.70	0.30	 	 	 	 	 	 	 	 	 	 	 	 	 	 	 	 	 	 	1581544951	4.19	7.76
12/02/2020 22:02:32	120220	12022020	220232	85.92	12.275210	-56.988068	85.77	0.070	-1.820	0.280	85.82	-3.30	0.70	 	 	 	 	 	 	 	 	 	 	 	 	 	 	 	 	 	 	1581544952	4.56	8.45
12/02/2020 22:02:33	120220	12022020	220233	85.55	12.275210	-56.988052	85.49	0.480	-2.360	0.710	85.51	-3.60	1.20	 	 	 	 	 	 	 	 	 	 	 	 	 	 	 	 	 	 	1581544953	3.70	6.85
12/02/2020 22:02:34	120220	12022020	220234	85.43	12.275208	-56.988038	85.41	0.500	-1.650	1.130	85.42	-2.80	1.60	 	 	 	 	 	 	 	 	 	 	 	 	 	 	 	 	 	 	1581544954	2.64	4.89
12/02/2020 22:02:35	120220	12022020	220235	85.39	12.275205	-56.988028	85.36	0.300	-0.550	1.610	85.36	-1.70	2.10	 	 	 	 	 	 	 	 	 	 	 	 	 	 	 	 	 	 	1581544955	2.40	4.44
12/02/2020 22:02:36	120220	12022020	220236	85.19	12.275202	-56.988017	85.13	-0.010	0.450	2.000	85.19	-0.80	2.40	 	 	 	 	 	 	 	 	 	 	 	 	 	 	 	 	 	 	1581544956	2.55	4.72
12/02/2020 22:02:37	120220	12022020	220237	84.87	12.275202	-56.988005	84.77	-0.340	1.180	2.150	84.80	-0.10	2.50	 	 	 	 	 	 	 	 	 	 	 	 	 	 	 	 	 	 	1581544957	2.53	4.69
12/02/2020 22:02:38	120220	12022020	220238	84.54	12.275203	-56.987992	84.46	-0.490	1.220	2.080	84.49	-0.20	2.40	 	 	 	 	 	 	 	 	 	 	 	 	 	 	 	 	 	 	1581544958	2.83	5.24
12/02/2020 22:02:39	120220	12022020	220239	84.32	12.275205	-56.987975	84.28	-0.260	0.420	1.820	84.30	-1.10	2.20	 	 	 	 	 	 	 	 	 	 	 	 	 	 	 	 	 	 	1581544959	3.58	6.63
12/02/2020 22:02:40	120220	12022020	220240	84.33	12.275210	-56.987955	84.32	0.220	-0.700	1.450	84.35	-2.20	1.80	 	 	 	 	 	 	 	 	 	 	 	 	 	 	 	 	 	 	1581544960	4.10	7.59
12/02/2020 22:02:41	120220	12022020	220241	84.42	12.275215	-56.987938	84.40	0.560	-1.390	1.190	84.44	-2.80	1.60	 	 	 	 	 	 	 	 	 	 	 	 	 	 	 	 	 	 	1581544961	3.95	7.32
12/02/2020 22:02:42	120220	12022020	220242	84.42	12.275218	-56.987923	84.36	0.460	-1.250	1.240	84.40	-2.50	1.70	 	 	 	 	 	 	 	 	 	 	 	 	 	 	 	 	 	 	1581544962	3.15	5.83
12/02/2020 22:02:43	120220	12022020	220243	84.23	12.275218	-56.987912	84.14	0.070	-0.450	1.650	84.18	-1.70	2.10	 	 	 	 	 	 	 	 	 	 	 	 	 	 	 	 	 	 	1581544963	2.45	4.54
12/02/2020 22:02:44	120220	12022020	220244	83.96	12.275217	-56.987900	83.89	-0.260	0.300	2.140	83.92	-1.00	2.60	 	 	 	 	 	 	 	 	 	 	 	 	 	 	 	 	 	 	1581544964	2.38	4.41
12/02/2020 22:02:45	120220	12022020	220245	83.92	12.275217	-56.987887	83.93	-0.230	0.390	2.270	83.97	-1.00	2.60	 	 	 	 	 	 	 	 	 	 	 	 	 	 	 	 	 	 	1581544965	2.92	5.41
12/02/2020 22:02:46	120220	12022020	220246	84.29	12.275220	-56.987870	84.35	0.050	-0.110	2.020	84.39	-1.50	2.40	 	 	 	 	 	 	 	 	 	 	 	 	 	 	 	 	 	 	1581544966	3.66	6.78
12/02/2020 22:02:47	120220	12022020	220247	84.73	12.275223	-56.987852	84.75	0.260	-0.600	1.690	84.80	-2.00	2.10	 	 	 	 	 	 	 	 	 	 	 	 	 	 	 	 	 	 	1581544967	3.90	7.22
12/02/2020 22:02:48	120220	12022020	220248	84.94	12.275225	-56.987835	84.90	0.200	-0.510	1.440	84.94	-1.80	1.80	 	 	 	 	 	 	 	 	 	 	 	 	 	 	 	 	 	 	1581544968	3.44	6.37
12/02/2020 22:02:49	120220	12022020	220249	84.94	12.275228	-56.987823	84.88	-0.100	0.260	1.160	84.94	-0.90	1.50	 	 	 	 	 	 	 	 	 	 	 	 	 	 	 	 	 	 	1581544969	2.59	4.80
12/02/2020 22:02:50	120220	12022020	220250	85.00	12.275233	-56.987813	84.97	-0.390	0.980	0.890	85.00	-0.30	1.30	 	 	 	 	 	 	 	 	 	 	 	 	 	 	 	 	 	 	1581544970	2.15	3.98
12/02/2020 22:02:51	120220	12022020	220251	85.22	12.275237	-56.987802	85.23	-0.370	0.650	0.740	85.27	-0.80	1.10	 	 	 	 	 	 	 	 	 	 	 	 	 	 	 	 	 	 	1581544971	2.81	5.20
12/02/2020 22:02:52	120220	12022020	220252	85.50	12.275242	-56.987783	85.50	0.030	-0.710	0.540	85.55	-2.30	0.90	 	 	 	 	 	 	 	 	 	 	 	 	 	 	 	 	 	 	1581544972	4.12	7.63
12/02/2020 22:02:53	120220	12022020	220253	85.69	12.275247	-56.987762	85.67	0.450	-1.880	0.380	85.71	-3.30	0.80	 	 	 	 	 	 	 	 	 	 	 	 	 	 	 	 	 	 	1581544973	4.61	8.54
12/02/2020 22:02:54	120220	12022020	220254	85.72	12.275248	-56.987743	85.70	0.530	-1.760	0.540	85.72	-3.00	1.00	 	 	 	 	 	 	 	 	 	 	 	 	 	 	 	 	 	 	1581544974	3.70	6.85
12/02/2020 22:02:55	120220	12022020	220255	85.74	12.275247	-56.987732	85.75	0.210	-0.500	1.000	85.75	-1.60	1.50	 	 	 	 	 	 	 	 	 	 	 	 	 	 	 	 	 	 	1581544975	2.46	4.56
12/02/2020 22:02:56	120220	12022020	220256	85.84	12.275245	-56.987722	85.86	-0.250	0.780	1.490	85.86	-0.40	1.90	 	 	 	 	 	 	 	 	 	 	 	 	 	 	 	 	 	 	1581544976	2.16	4.00
12/02/2020 22:02:57	120220	12022020	220257	85.93	12.275243	-56.987710	85.92	-0.530	1.230	1.590	85.94	-0.10	2.00	 	 	 	 	 	 	 	 	 	 	 	 	 	 	 	 	 	 	1581544977	2.68	4.96
12/02/2020 22:02:58	120220	12022020	220258	85.92	12.275243	-56.987693	85.85	-0.430	0.790	1.370	85.89	-0.70	1.70	 	 	 	 	 	 	 	 	 	 	 	 	 	 	 	 	 	 	1581544978	3.47	6.43
12/02/2020 22:02:59	120220	12022020	220259	85.72	12.275247	-56.987675	85.60	-0.000	-0.140	1.180	85.66	-1.60	1.60	 	 	 	 	 	 	 	 	 	 	 	 	 	 	 	 	 	 	1581544979	4.06	7.52
12/02/2020 22:03:00	120220	12022020	220300	85.43	12.275253	-56.987655	85.33	0.410	-0.920	0.950	85.39	-2.30	1.30	 	 	 	 	 	 	 	 	 	 	 	 	 	 	 	 	 	 	1581544980	4.23	7.83
12/02/2020 22:03:01	120220	12022020	220301	85.38	12.275260	-56.987640	85.37	0.360	-0.850	0.510	85.42	-2.10	0.90	 	 	 	 	 	 	 	 	 	 	 	 	 	 	 	 	 	 	1581544981	3.64	6.74
12/02/2020 22:03:02	120220	12022020	220302	85.80	12.275265	-56.987628	85.88	-0.100	-0.120	0.100	85.92	-1.40	0.50	1014.70	26.30	26.40	20.50	20.50	0.0	70.0	70.0	386.0	25.9	340.00	11.70	62.00	10.20	109	11070.0	27.4	27.4	1581544982	2.61	4.83
12/02/2020 22:03:03	120220	12022020	220303	86.37	12.275265	-56.987617	86.38	-0.470	0.210	0.280	86.44	-1.20	0.80	 	 	 	 	 	 	 	 	 	 	 	 	 	 	 	 	 	 	1581544983	2.49	4.61
12/02/2020 22:03:04	120220	12022020	220304	86.44	12.275258	-56.987598	86.32	-0.270	-0.500	1.230	86.36	-2.00	1.80	 	 	 	 	 	 	 	 	 	 	 	 	 	 	 	 	 	 	1581544984	3.99	7.39
12/02/2020 22:03:05	120220	12022020	220305	85.86	12.275252	-56.987575	85.71	0.370	-1.520	2.460	85.70	-2.90	3.00	 	 	 	 	 	 	 	 	 	 	 	 	 	 	 	 	 	 	1581544985	5.09	9.43
12/02/2020 22:03:06	120220	12022020	220306	85.12	12.275248	-56.987555	85.02	0.800	-1.570	3.360	85.00	-2.80	3.80	 	 	 	 	 	 	 	 	 	 	 	 	 	 	 	 	 	 	1581544986	4.59	8.50
12/02/2020 22:03:07	120220	12022020	220307	84.67	12.275248	-56.987540	84.62	0.560	-0.270	3.470	84.62	-1.40	3.80	 	 	 	 	 	 	 	 	 	 	 	 	 	 	 	 	 	 	1581544987	3.04	5.63
12/02/2020 22:03:08	120220	12022020	220308	84.66	12.275253	-56.987532	84.69	-0.250	1.600	2.640	84.72	0.50	2.90	 	 	 	 	 	 	 	 	 	 	 	 	 	 	 	 	 	 	1581544988	2.04	3.78
12/02/2020 22:03:09	120220	12022020	220309	85.17	12.275262	-56.987525	85.23	-1.110	2.730	1.140	85.31	1.40	1.30	 	 	 	 	 	 	 	 	 	 	 	 	 	 	 	 	 	 	1581544989	2.42	4.48
12/02/2020 22:03:10	120220	12022020	220310	85.83	12.275272	-56.987512	85.81	-1.430	2.010	-0.350	85.92	0.40	-0.10	 	 	 	 	 	 	 	 	 	 	 	 	 	 	 	 	 	 	1581544990	3.27	6.06
12/02/2020 22:03:11	120220	12022020	220311	86.09	12.275277	-56.987490	85.97	-0.820	-0.560	-1.070	86.08	-2.30	-0.70	 	 	 	 	 	 	 	 	 	 	 	 	 	 	 	 	 	 	1581544991	4.81	8.91
12/02/2020 22:03:12	120220	12022020	220312	85.84	12.275277	-56.987462	85.65	0.480	-3.300	-0.830	85.75	-4.90	-0.30	 	 	 	 	 	 	 	 	 	 	 	 	 	 	 	 	 	 	1581544992	5.91	10.95
12/02/2020 22:03:13	120220	12022020	220313	85.36	12.275277	-56.987438	85.21	1.600	-4.030	-0.080	85.27	-5.20	0.50	 	 	 	 	 	 	 	 	 	 	 	 	 	 	 	 	 	 	1581544993	5.02	9.30
12/02/2020 22:03:14	120220	12022020	220314	85.05	12.275275	-56.987425	85.02	1.710	-2.260	0.800	85.03	-3.20	1.30	 	 	 	 	 	 	 	 	 	 	 	 	 	 	 	 	 	 	1581544994	2.86	5.30
12/02/2020 22:03:15	120220	12022020	220315	85.14	12.275273	-56.987418	85.19	0.860	0.500	1.470	85.19	-0.50	2.00	 	 	 	 	 	 	 	 	 	 	 	 	 	 	 	 	 	 	1581544995	1.61	2.98
12/02/2020 22:03:16	120220	12022020	220316	85.42	12.275272	-56.987410	85.45	-0.310	2.500	1.910	85.47	1.30	2.40	 	 	 	 	 	 	 	 	 	 	 	 	 	 	 	 	 	 	1581544996	1.74	3.22
12/02/2020 22:03:17	120220	12022020	220317	85.64	12.275270	-56.987397	85.64	-1.290	2.900	2.200	85.67	1.50	2.60	 	 	 	 	 	 	 	 	 	 	 	 	 	 	 	 	 	 	1581544997	2.85	5.28
12/02/2020 22:03:18	120220	12022020	220318	85.78	12.275270	-56.987378	85.78	-1.830	2.030	2.380	85.81	0.50	2.80	 	 	 	 	 	 	 	 	 	 	 	 	 	 	 	 	 	 	1581544998	3.85	7.13
12/02/2020 22:03:19	120220	12022020	220319	85.94	12.275268	-56.987358	85.95	-1.770	0.540	2.400	85.97	-1.00	2.80	 	 	 	 	 	 	 	 	 	 	 	 	 	 	 	 	 	 	1581544999	4.12	7.63
12/02/2020 22:03:20	120220	12022020	220320	86.10	12.275267	-56.987338	86.09	-0.900	-1.310	2.250	86.12	-2.90	2.60	 	 	 	 	 	 	 	 	 	 	 	 	 	 	 	 	 	 	1581545000	4.35	8.06
12/02/2020 22:03:21	120220	12022020	220321	86.07	12.275268	-56.987315	85.99	0.680	-3.110	1.970	86.03	-4.60	2.30	 	 	 	 	 	 	 	 	 	 	 	 	 	 	 	 	 	 	1581545001	4.90	9.07
12/02/2020 22:03:22	120220	12022020	220322	85.79	12.275273	-56.987293	85.69	2.100	-3.620	1.650	85.73	-4.80	2.00	 	 	 	 	 	 	 	 	 	 	 	 	 	 	 	 	 	 	1581545002	4.82	8.93
12/02/2020 22:03:23	120220	12022020	220323	85.61	12.275280	-56.987278	85.58	2.330	-2.010	1.370	85.62	-3.00	1.70	 	 	 	 	 	 	 	 	 	 	 	 	 	 	 	 	 	 	1581545003	3.39	6.28
12/02/2020 22:03:24	120220	12022020	220324	85.79	12.275285	-56.987270	85.85	1.290	0.800	1.040	85.87	-0.20	1.40	 	 	 	 	 	 	 	 	 	 	 	 	 	 	 	 	 	 	1581545004	1.84	3.41
12/02/2020 22:03:25	120220	12022020	220325	86.21	12.275288	-56.987263	86.25	-0.190	2.800	0.570	86.29	1.60	0.90	 	 	 	 	 	 	 	 	 	 	 	 	 	 	 	 	 	 	1581545005	1.70	3.15
12/02/2020 22:03:26	120220	12022020	220326	86.53	12.275292	-56.987250	86.50	-1.190	2.800	0.230	86.56	1.30	0.60	 	 	 	 	 	 	 	 	 	 	 	 	 	 	 	 	 	 	1581545006	3.10	5.74
12/02/2020 22:03:27	120220	12022020	220327	86.52	12.275292	-56.987228	86.42	-1.380	1.220	0.340	86.47	-0.40	0.80	 	 	 	 	 	 	 	 	 	 	 	 	 	 	 	 	 	 	1581545007	4.62	8.56
12/02/2020 22:03:28	120220	12022020	220328	86.24	12.275290	-56.987203	86.15	-1.010	-0.640	0.810	86.19	-2.20	1.30	 	 	 	 	 	 	 	 	 	 	 	 	 	 	 	 	 	 	1581545008	5.10	9.45
12/02/2020 22:03:29	120220	12022020	220329	85.99	12.275287	-56.987182	85.93	-0.430	-1.930	1.310	85.96	-3.40	1.80	 	 	 	 	 	 	 	 	 	 	 	 	 	 	 	 	 	 	1581545009	4.73	8.76
12/02/2020 22:03:30	120220	12022020	220330	85.83	12.275285	-56.987162	85.79	0.090	-2.280	1.600	85.80	-3.60	2.00	 	 	 	 	 	 	 	 	 	 	 	 	 	 	 	 	 	 	1581545010	4.12	7.63
12/02/2020 22:03:31	120220	12022020	220331	85.65	12.275285	-56.987145	85.61	0.350	-1.590	1.650	85.61	-2.80	2.10	 	 	 	 	 	 	 	 	 	 	 	 	 	 	 	 	 	 	1581545011	3.44	6.37
12/02/2020 22:03:32	120220	12022020	220332	85.47	12.275287	-56.987132	85.44	0.300	-0.300	1.620	85.45	-1.50	2.00	 	 	 	 	 	 	 	 	 	 	 	 	 	 	 	 	 	 	1581545012	2.83	5.24
12/02/2020 22:03:33	120220	12022020	220333	85.45	12.275287	-56.987118	85.44	0.170	0.770	1.410	85.47	-0.50	1.80	 	 	 	 	 	 	 	 	 	 	 	 	 	 	 	 	 	 	1581545013	2.81	5.20
12/02/2020 22:03:34	120220	12022020	220334	85.65	12.275290	-56.987103	85.65	0.270	0.970	0.940	85.69	-0.40	1.30	 	 	 	 	 	 	 	 	 	 	 	 	 	 	 	 	 	 	1581545014	3.52	6.52
12/02/2020 22:03:35	120220	12022020	220335	85.78	12.275297	-56.987082	85.74	0.680	0.260	0.540	85.78	-1.20	0.90	 	 	 	 	 	 	 	 	 	 	 	 	 	 	 	 	 	 	1581545015	4.56	8.45
12/02/2020 22:03:36	120220	12022020	220336	85.69	12.275302	-56.987058	85.64	1.020	-0.680	0.490	85.67	-2.10	0.90	 	 	 	 	 	 	 	 	 	 	 	 	 	 	 	 	 	 	1581545016	5.09	9.43
12/02/2020 22:03:37	120220	12022020	220337	85.60	12.275305	-56.987037	85.59	0.780	-0.930	0.870	85.58	-2.20	1.40	 	 	 	 	 	 	 	 	 	 	 	 	 	 	 	 	 	 	1581545017	4.60	8.52
12/02/2020 22:03:38	120220	12022020	220338	85.56	12.275303	-56.987022	85.57	-0.180	-0.010	1.560	85.56	-1.10	2.10	 	 	 	 	 	 	 	 	 	 	 	 	 	 	 	 	 	 	1581545018	3.32	6.15
12/02/2020 22:03:39	120220	12022020	220339	85.59	12.275300	-56.987012	85.61	-1.380	1.330	2.120	85.61	0.10	2.60	 	 	 	 	 	 	 	 	 	 	 	 	 	 	 	 	 	 	1581545019	2.28	4.22
12/02/2020 22:03:40	120220	12022020	220340	85.69	12.275297	-56.986998	85.75	-1.910	1.520	2.320	85.72	0.00	2.70	 	 	 	 	 	 	 	 	 	 	 	 	 	 	 	 	 	 	1581545020	2.57	4.76
12/02/2020 22:03:41	120220	12022020	220341	85.78	12.275297	-56.986978	85.79	-1.120	-0.280	2.100	85.78	-2.00	2.50	 	 	 	 	 	 	 	 	 	 	 	 	 	 	 	 	 	 	1581545021	4.54	8.41
12/02/2020 22:03:42	120220	12022020	220342	85.77	12.275300	-56.986948	85.77	0.530	-2.680	1.730	85.75	-4.20	2.10	 	 	 	 	 	 	 	 	 	 	 	 	 	 	 	 	 	 	1581545022	6.19	11.46
12/02/2020 22:03:43	120220	12022020	220343	85.70	12.275303	-56.986922	85.70	1.750	-3.320	1.450	85.69	-4.50	1.80	 	 	 	 	 	 	 	 	 	 	 	 	 	 	 	 	 	 	1581545023	5.57	10.32
12/02/2020 22:03:44	120220	12022020	220344	85.67	12.275307	-56.986908	85.67	1.660	-1.390	1.080	85.67	-2.30	1.40	 	 	 	 	 	 	 	 	 	 	 	 	 	 	 	 	 	 	1581545024	3.16	5.85
12/02/2020 22:03:45	120220	12022020	220345	85.68	12.275312	-56.986902	85.67	0.530	1.530	0.680	85.69	0.50	1.00	 	 	 	 	 	 	 	 	 	 	 	 	 	 	 	 	 	 	1581545025	1.54	2.85
12/02/2020 22:03:46	120220	12022020	220346	85.71	12.275317	-56.986895	85.65	-0.680	3.150	0.240	85.70	1.80	0.60	 	 	 	 	 	 	 	 	 	 	 	 	 	 	 	 	 	 	1581545026	1.85	3.43
12/02/2020 22:03:47	120220	12022020	220347	85.61	12.275320	-56.986878	85.52	-1.100	2.300	0.110	85.58	0.70	0.50	 	 	 	 	 	 	 	 	 	 	 	 	 	 	 	 	 	 	1581545027	3.79	7.02
12/02/2020 22:03:48	120220	12022020	220348	85.55	12.275323	-56.986852	85.53	-0.680	-0.050	0.210	85.57	-1.70	0.60	 	 	 	 	 	 	 	 	 	 	 	 	 	 	 	 	 	 	1581545028	5.58	10.33
12/02/2020 22:03:49	120220	12022020	220349	85.81	12.275327	-56.986825	85.87	-0.040	-1.900	0.340	85.90	-3.30	0.80	 	 	 	 	 	 	 	 	 	 	 	 	 	 	 	 	 	 	1581545029	5.54	10.26
12/02/2020 22:03:50	120220	12022020	220350	86.28	12.275327	-56.986807	86.34	0.320	-2.080	0.670	86.36	-3.30	1.10	 	 	 	 	 	 	 	 	 	 	 	 	 	 	 	 	 	 	1581545030	3.98	7.37
12/02/2020 22:03:51	120220	12022020	220351	86.61	12.275325	-56.986793	86.61	0.390	-1.190	1.290	86.64	-2.40	1.80	 	 	 	 	 	 	 	 	 	 	 	 	 	 	 	 	 	 	1581545031	2.78	5.15
12/02/2020 22:03:52	120220	12022020	220352	86.69	12.275322	-56.986780	86.67	0.380	-0.410	2.100	86.69	-1.70	2.60	 	 	 	 	 	 	 	 	 	 	 	 	 	 	 	 	 	 	1581545032	2.95	5.46
12/02/2020 22:03:53	120220	12022020	220353	86.73	12.275320	-56.986762	86.73	0.350	-0.170	2.870	86.75	-1.50	3.30	 	 	 	 	 	 	 	 	 	 	 	 	 	 	 	 	 	 	1581545033	3.73	6.91
12/02/2020 22:03:54	120220	12022020	220354	86.89	12.275320	-56.986743	86.91	0.270	-0.110	3.200	86.92	-1.40	3.60	 	 	 	 	 	 	 	 	 	 	 	 	 	 	 	 	 	 	1581545034	4.12	7.63
12/02/2020 22:03:55	120220	12022020	220355	87.13	12.275322	-56.986725	87.16	0.130	0.150	2.970	87.18	-1.10	3.30	 	 	 	 	 	 	 	 	 	 	 	 	 	 	 	 	 	 	1581545035	3.92	7.26
12/02/2020 22:03:56	120220	12022020	220356	87.50	12.275327	-56.986707	87.57	-0.020	0.440	2.320	87.61	-0.90	2.60	 	 	 	 	 	 	 	 	 	 	 	 	 	 	 	 	 	 	1581545036	3.83	7.09
12/02/2020 22:03:57	120220	12022020	220357	88.17	12.275335	-56.986690	88.27	-0.220	0.630	1.340	88.34	-0.70	1.60	 	 	 	 	 	 	 	 	 	 	 	 	 	 	 	 	 	 	1581545037	3.85	7.13
12/02/2020 22:03:58	120220	12022020	220358	88.99	12.275342	-56.986673	89.07	-0.450	0.610	0.400	89.15	-0.80	0.70	 	 	 	 	 	 	 	 	 	 	 	 	 	 	 	 	 	 	1581545038	3.74	6.93
12/02/2020 22:03:59	120220	12022020	220359	89.69	12.275347	-56.986657	89.69	-0.470	0.100	-0.170	89.80	-1.30	0.20	 	 	 	 	 	 	 	 	 	 	 	 	 	 	 	 	 	 	1581545039	3.87	7.17
12/02/2020 22:04:00	120220	12022020	220400	90.11	12.275350	-56.986637	90.04	-0.140	-0.730	-0.260	90.15	-2.20	0.20	 	 	 	 	 	 	 	 	 	 	 	 	 	 	 	 	 	 	1581545040	4.29	7.95
12/02/2020 22:04:01	120220	12022020	220401	90.23	12.275350	-56.986617	90.15	0.360	-1.370	0.090	90.24	-2.70	0.60	 	 	 	 	 	 	 	 	 	 	 	 	 	 	 	 	 	 	1581545041	4.38	8.11
12/02/2020 22:04:02	120220	12022020	220402	90.32	12.275350	-56.986597	90.27	0.760	-1.470	0.470	90.37	-2.80	0.90	1014.50	26.40	26.40	20.80	20.80	0.0	71.0	71.0	388.0	25.9	346.00	12.20	69.00	10.40	91	11689.0	27.4	27.4	1581545042	4.20	7.78
12/02/2020 22:04:03	120220	12022020	220403	90.67	12.275352	-56.986577	90.69	0.820	-1.100	0.650	90.77	-2.30	1.10	 	 	 	 	 	 	 	 	 	 	 	 	 	 	 	 	 	 	1581545043	3.99	7.39
12/02/2020 22:04:04	120220	12022020	220404	91.19	12.275353	-56.986560	91.23	0.410	-0.390	0.780	91.29	-1.60	1.20	 	 	 	 	 	 	 	 	 	 	 	 	 	 	 	 	 	 	1581545044	3.77	6.98
12/02/2020 22:04:05	120220	12022020	220405	91.73	12.275353	-56.986543	91.78	-0.310	0.520	0.970	91.82	-0.70	1.40	 	 	 	 	 	 	 	 	 	 	 	 	 	 	 	 	 	 	1581545045	3.45	6.39
12/02/2020 22:04:06	120220	12022020	220406	92.25	12.275352	-56.986528	92.29	-0.930	1.330	1.180	92.33	0.10	1.60	 	 	 	 	 	 	 	 	 	 	 	 	 	 	 	 	 	 	1581545046	3.23	5.98
12/02/2020 22:04:07	120220	12022020	220407	92.56	12.275348	-56.986512	92.54	-1.120	1.510	1.460	92.58	0.10	1.90	 	 	 	 	 	 	 	 	 	 	 	 	 	 	 	 	 	 	1581545047	3.43	6.35
12/02/2020 22:04:08	120220	12022020	220408	92.59	12.275348	-56.986492	92.55	-0.760	0.730	1.670	92.59	-0.80	2.10	 	 	 	 	 	 	 	 	 	 	 	 	 	 	 	 	 	 	1581545048	4.16	7.70
12/02/2020 22:04:09	120220	12022020	220409	92.69	12.275348	-56.986468	92.70	-0.020	-0.690	1.500	92.74	-2.20	1.90	 	 	 	 	 	 	 	 	 	 	 	 	 	 	 	 	 	 	1581545049	4.95	9.17
12/02/2020 22:04:10	120220	12022020	220410	93.02	12.275353	-56.986445	93.06	0.720	-1.860	1.030	93.10	-3.30	1.40	 	 	 	 	 	 	 	 	 	 	 	 	 	 	 	 	 	 	1581545050	5.22	9.67
12/02/2020 22:04:11	120220	12022020	220411	93.40	12.275357	-56.986422	93.40	1.050	-2.080	0.660	93.47	-3.30	1.10	 	 	 	 	 	 	 	 	 	 	 	 	 	 	 	 	 	 	1581545051	4.73	8.76
12/02/2020 22:04:12	120220	12022020	220412	93.72	12.275358	-56.986405	93.72	0.760	-1.170	0.700	93.79	-2.30	1.20	 	 	 	 	 	 	 	 	 	 	 	 	 	 	 	 	 	 	1581545052	3.69	6.83
12/02/2020 22:04:13	120220	12022020	220413	94.00	12.275357	-56.986390	93.97	0.130	0.130	1.110	94.04	-1.10	1.60	 	 	 	 	 	 	 	 	 	 	 	 	 	 	 	 	 	 	1581545053	3.03	5.61
12/02/2020 22:04:14	120220	12022020	220414	94.12	12.275353	-56.986375	94.07	-0.340	0.820	1.620	94.13	-0.50	2.10	 	 	 	 	 	 	 	 	 	 	 	 	 	 	 	 	 	 	1581545054	3.48	6.44
12/02/2020 22:04:15	120220	12022020	220415	94.20	12.275352	-56.986353	94.21	-0.400	0.780	1.880	94.25	-0.60	2.30	 	 	 	 	 	 	 	 	 	 	 	 	 	 	 	 	 	 	1581545055	4.30	7.96
12/02/2020 22:04:16	120220	12022020	220416	94.55	12.275352	-56.986333	94.62	-0.240	0.530	1.720	94.66	-0.80	2.10	 	 	 	 	 	 	 	 	 	 	 	 	 	 	 	 	 	 	1581545056	4.53	8.39
12/02/2020 22:04:17	120220	12022020	220417	95.15	12.275353	-56.986312	95.24	-0.150	0.290	1.400	95.29	-1.10	1.80	 	 	 	 	 	 	 	 	 	 	 	 	 	 	 	 	 	 	1581545057	4.31	7.98
12/02/2020 22:04:18	120220	12022020	220418	95.79	12.275355	-56.986292	95.84	-0.240	-0.080	1.210	95.90	-1.50	1.60	 	 	 	 	 	 	 	 	 	 	 	 	 	 	 	 	 	 	1581545058	4.25	7.87
12/02/2020 22:04:19	120220	12022020	220419	96.36	12.275355	-56.986272	96.40	-0.400	-0.530	1.230	96.46	-1.90	1.70	 	 	 	 	 	 	 	 	 	 	 	 	 	 	 	 	 	 	1581545059	4.23	7.83
12/02/2020 22:04:20	120220	12022020	220420	96.88	12.275353	-56.986252	96.91	-0.380	-0.960	1.450	96.98	-2.40	1.90	 	 	 	 	 	 	 	 	 	 	 	 	 	 	 	 	 	 	1581545060	4.24	7.85
12/02/2020 22:04:21	120220	12022020	220421	97.37	12.275350	-56.986232	97.44	0.050	-1.360	1.700	97.48	-2.70	2.10	 	 	 	 	 	 	 	 	 	 	 	 	 	 	 	 	 	 	1581545061	4.57	8.46
12/02/2020 22:04:22	120220	12022020	220422	97.88	12.275347	-56.986210	97.95	0.680	-1.330	1.840	97.97	-2.60	2.30	 	 	 	 	 	 	 	 	 	 	 	 	 	 	 	 	 	 	1581545062	4.60	8.52
12/02/2020 22:04:23	120220	12022020	220423	98.25	12.275347	-56.986190	98.28	0.920	-0.510	1.870	98.31	-1.70	2.30	 	 	 	 	 	 	 	 	 	 	 	 	 	 	 	 	 	 	1581545063	3.99	7.39
12/02/2020 22:04:24	120220	12022020	220424	98.62	12.275348	-56.986175	98.69	0.410	0.670	1.750	98.74	-0.50	2.10	 	 	 	 	 	 	 	 	 	 	 	 	 	 	 	 	 	 	1581545064	3.38	6.26
12/02/2020 22:04:25	120220	12022020	220425	99.36	12.275350	-56.986158	99.50	-0.460	1.400	1.290	99.55	0.10	1.60	 	 	 	 	 	 	 	 	 	 	 	 	 	 	 	 	 	 	1581545065	3.37	6.24
12/02/2020 22:04:26	120220	12022020	220426	100.41	12.275352	-56.986140	100.57	-0.970	1.130	0.530	100.64	-0.30	0.90	 	 	 	 	 	 	 	 	 	 	 	 	 	 	 	 	 	 	1581545066	4.03	7.46
12/02/2020 22:04:27	120220	12022020	220427	101.51	12.275353	-56.986117	101.65	-0.770	0.010	-0.010	101.72	-1.50	0.40	 	 	 	 	 	 	 	 	 	 	 	 	 	 	 	 	 	 	1581545067	4.92	9.11
12/02/2020 22:04:28	120220	12022020	220428	102.46	12.275350	-56.986093	102.58	-0.220	-1.030	0.110	102.46	-2.40	0.60	 	 	 	 	 	 	 	 	 	 	 	 	 	 	 	 	 	 	1581545068	5.07	9.39
12/02/2020 22:04:29	120220	12022020	220429	103.15	12.275343	-56.986073	103.23	0.150	-1.280	0.680	103.26	-2.60	1.20	 	 	 	 	 	 	 	 	 	 	 	 	 	 	 	 	 	 	1581545069	4.38	8.11
12/02/2020 22:04:30	120220	12022020	220430	103.56	12.275340	-56.986057	103.60	0.240	-0.860	1.250	103.56	-2.10	1.70	 	 	 	 	 	 	 	 	 	 	 	 	 	 	 	 	 	 	1581545070	3.62	6.70
12/02/2020 22:04:31	120220	12022020	220431	103.82	12.275337	-56.986040	103.90	0.310	-0.410	1.670	103.89	-1.70	2.10	 	 	 	 	 	 	 	 	 	 	 	 	 	 	 	 	 	 	1581545071	3.62	6.70
12/02/2020 22:04:32	120220	12022020	220432	104.44	12.275337	-56.986020	104.63	0.420	-0.280	1.690	104.61	-1.60	2.10	 	 	 	 	 	 	 	 	 	 	 	 	 	 	 	 	 	 	1581545072	4.15	7.69
12/02/2020 22:04:33	120220	12022020	220433	105.54	12.275335	-56.985998	105.80	0.410	-0.350	1.370	105.79	-1.70	1.80	 	 	 	 	 	 	 	 	 	 	 	 	 	 	 	 	 	 	1581545073	4.56	8.45
12/02/2020 22:04:34	120220	12022020	220434	106.77	12.275333	-56.985978	107.02	0.110	-0.120	1.040	107.02	-1.40	1.40	 	 	 	 	 	 	 	 	 	 	 	 	 	 	 	 	 	 	1581545074	4.33	8.02
12/02/2020 22:04:35	120220	12022020	220435	107.94	12.275330	-56.985962	108.15	-0.380	0.570	0.880	108.16	-0.70	1.30	 	 	 	 	 	 	 	 	 	 	 	 	 	 	 	 	 	 	1581545075	3.53	6.54
12/02/2020 22:04:36	120220	12022020	220436	108.86	12.275327	-56.985947	108.99	-0.690	0.860	1.030	109.01	-0.50	1.50	 	 	 	 	 	 	 	 	 	 	 	 	 	 	 	 	 	 	1581545076	3.36	6.22
12/02/2020 22:04:37	120220	12022020	220437	109.47	12.275322	-56.985928	109.56	-0.560	0.250	1.340	109.57	-1.30	1.80	 	 	 	 	 	 	 	 	 	 	 	 	 	 	 	 	 	 	1581545077	4.19	7.76
12/02/2020 22:04:38	120220	12022020	220438	109.94	12.275313	-56.985905	110.03	-0.090	-0.770	1.670	110.03	-2.30	2.10	 	 	 	 	 	 	 	 	 	 	 	 	 	 	 	 	 	 	1581545078	4.92	9.11
12/02/2020 22:04:39	120220	12022020	220439	110.52	12.275308	-56.985883	110.67	0.380	-1.340	1.810	110.67	-2.70	2.20	 	 	 	 	 	 	 	 	 	 	 	 	 	 	 	 	 	 	1581545079	4.85	8.98
12/02/2020 22:04:40	120220	12022020	220440	111.41	12.275305	-56.985863	111.64	0.550	-1.000	1.460	111.64	-2.20	1.80	 	 	 	 	 	 	 	 	 	 	 	 	 	 	 	 	 	 	1581545080	4.19	7.76
12/02/2020 22:04:41	120220	12022020	220441	112.78	12.275307	-56.985847	113.11	0.360	0.030	0.740	113.11	-1.20	1.10	 	 	 	 	 	 	 	 	 	 	 	 	 	 	 	 	 	 	1581545081	3.56	6.59
12/02/2020 22:04:42	120220	12022020	220442	114.49	12.275307	-56.985833	114.80	-0.100	0.960	0.280	114.82	-0.40	0.70	 	 	 	 	 	 	 	 	 	 	 	 	 	 	 	 	 	 	1581545082	3.06	5.67
12/02/2020 22:04:43	120220	12022020	220443	115.88	12.275302	-56.985817	116.00	-0.430	0.800	0.400	116.05	-0.70	0.90	 	 	 	 	 	 	 	 	 	 	 	 	 	 	 	 	 	 	1581545083	3.48	6.44
12/02/2020 22:04:44	120220	12022020	220444	116.43	12.275290	-56.985797	116.43	-0.240	-0.650	1.090	116.47	-2.30	1.60	 	 	 	 	 	 	 	 	 	 	 	 	 	 	 	 	 	 	1581545084	5.01	9.28
12/02/2020 22:04:45	120220	12022020	220445	116.61	12.275277	-56.985773	116.67	0.310	-1.860	1.830	116.67	-3.30	2.30	 	 	 	 	 	 	 	 	 	 	 	 	 	 	 	 	 	 	1581545085	5.64	10.45
12/02/2020 22:04:46	120220	12022020	220446	117.11	12.275268	-56.985755	117.31	0.530	-1.290	2.240	117.29	-2.50	2.70	 	 	 	 	 	 	 	 	 	 	 	 	 	 	 	 	 	 	1581545086	4.16	7.70
12/02/2020 22:04:47	120220	12022020	220447	118.20	12.275267	-56.985743	118.51	0.080	0.340	2.100	118.48	-0.80	2.50	 	 	 	 	 	 	 	 	 	 	 	 	 	 	 	 	 	 	1581545087	2.56	4.74
12/02/2020 22:04:48	120220	12022020	220448	119.62	12.275263	-56.985732	119.91	-0.610	1.150	1.630	119.89	-0.30	2.00	 	 	 	 	 	 	 	 	 	 	 	 	 	 	 	 	 	 	1581545088	2.75	5.09
12/02/2020 22:04:49	120220	12022020	220449	120.81	12.275255	-56.985712	121.06	-0.860	0.400	1.370	121.02	-1.10	1.80	 	 	 	 	 	 	 	 	 	 	 	 	 	 	 	 	 	 	1581545089	4.33	8.02
12/02/2020 22:04:50	120220	12022020	220450	121.83	12.275243	-56.985692	122.08	-0.570	-0.480	1.170	122.04	-1.90	1.60	 	 	 	 	 	 	 	 	 	 	 	 	 	 	 	 	 	 	1581545090	5.06	9.37
12/02/2020 22:04:51	120220	12022020	220451	122.93	12.275233	-56.985675	123.18	-0.030	-0.390	1.020	123.16	-1.70	1.40	 	 	 	 	 	 	 	 	 	 	 	 	 	 	 	 	 	 	1581545091	4.03	7.46
12/02/2020 22:04:52	120220	12022020	220452	124.00	12.275228	-56.985660	124.20	0.470	-0.070	1.030	124.19	-1.50	1.50	 	 	 	 	 	 	 	 	 	 	 	 	 	 	 	 	 	 	1581545092	3.37	6.24
12/02/2020 22:04:53	120220	12022020	220453	124.84	12.275220	-56.985643	124.97	0.810	-0.430	1.110	124.98	-1.90	1.60	 	 	 	 	 	 	 	 	 	 	 	 	 	 	 	 	 	 	1581545093	4.02	7.45
12/02/2020 22:04:54	120220	12022020	220454	125.48	12.275212	-56.985622	125.61	0.900	-1.040	1.180	125.48	-2.50	1.60	 	 	 	 	 	 	 	 	 	 	 	 	 	 	 	 	 	 	1581545094	4.79	8.87
12/02/2020 22:04:55	120220	12022020	220455	126.24	12.275203	-56.985603	126.46	0.500	-0.780	1.410	126.44	-2.00	1.90	 	 	 	 	 	 	 	 	 	 	 	 	 	 	 	 	 	 	1581545095	4.27	7.91
12/02/2020 22:04:56	120220	12022020	220456	127.48	12.275195	-56.985593	127.84	-0.350	0.470	1.810	127.76	-0.70	2.30	 	 	 	 	 	 	 	 	 	 	 	 	 	 	 	 	 	 	1581545096	2.81	5.20
12/02/2020 22:04:57	120220	12022020	220457	129.02	12.275187	-56.985587	129.38	-1.090	1.440	1.950	129.34	0.10	2.40	 	 	 	 	 	 	 	 	 	 	 	 	 	 	 	 	 	 	1581545097	2.37	4.39
12/02/2020 22:04:58	120220	12022020	220458	130.39	12.275175	-56.985575	130.66	-1.070	0.910	1.870	130.61	-0.70	2.30	 	 	 	 	 	 	 	 	 	 	 	 	 	 	 	 	 	 	1581545098	3.44	6.37
12/02/2020 22:04:59	120220	12022020	220459	131.21	12.275158	-56.985555	131.36	-0.210	-0.980	1.990	131.31	-2.60	2.50	 	 	 	 	 	 	 	 	 	 	 	 	 	 	 	 	 	 	1581545099	5.27	9.76
12/02/2020 22:05:00	120220	12022020	220500	131.66	12.275142	-56.985535	131.81	0.770	-2.450	2.290	131.77	-3.90	2.80	 	 	 	 	 	 	 	 	 	 	 	 	 	 	 	 	 	 	1581545100	5.79	10.72
12/02/2020 22:05:01	120220	12022020	220501	132.36	12.275130	-56.985518	132.62	1.050	-1.940	2.400	132.57	-3.10	2.80	 	 	 	 	 	 	 	 	 	 	 	 	 	 	 	 	 	 	1581545101	4.31	7.98
12/02/2020 22:05:02	120220	12022020	220502	133.63	12.275125	-56.985508	134.00	0.420	0.180	2.020	133.94	-0.90	2.40	1014.70	26.30	26.30	20.60	20.70	0.0	70.0	71.0	390.0	25.9	325.00	13.10	67.00	11.70	76	11445.0	27.4	27.3	1581545102	2.33	4.32
12/02/2020 22:05:03	120220	12022020	220503	135.19	12.275123	-56.985498	135.54	-0.520	1.780	1.360	135.49	0.50	1.70	 	 	 	 	 	 	 	 	 	 	 	 	 	 	 	 	 	 	1581545103	2.08	3.85
12/02/2020 22:05:04	120220	12022020	220504	136.51	12.275113	-56.985485	136.78	-0.950	1.450	0.900	136.74	-0.10	1.30	 	 	 	 	 	 	 	 	 	 	 	 	 	 	 	 	 	 	1581545104	3.56	6.59
12/02/2020 22:05:05	120220	12022020	220505	137.59	12.275097	-56.985468	137.81	-0.580	-0.050	0.780	137.79	-1.70	1.20	 	 	 	 	 	 	 	 	 	 	 	 	 	 	 	 	 	 	1581545105	5.16	9.56
12/02/2020 22:05:06	120220	12022020	220506	138.55	12.275078	-56.985452	138.75	0.220	-1.140	0.920	138.55	-2.60	1.40	 	 	 	 	 	 	 	 	 	 	 	 	 	 	 	 	 	 	1581545106	5.15	9.54
12/02/2020 22:05:07	120220	12022020	220507	139.46	12.275065	-56.985438	139.64	0.740	-1.100	1.030	139.64	-2.40	1.50	 	 	 	 	 	 	 	 	 	 	 	 	 	 	 	 	 	 	1581545107	4.04	7.48
12/02/2020 22:05:08	120220	12022020	220508	140.36	12.275057	-56.985427	140.51	0.580	-0.370	1.180	140.53	-1.70	1.70	 	 	 	 	 	 	 	 	 	 	 	 	 	 	 	 	 	 	1581545108	3.09	5.72
12/02/2020 22:05:09	120220	12022020	220509	141.28	12.275047	-56.985417	141.44	-0.020	0.280	1.450	141.46	-1.10	1.90	 	 	 	 	 	 	 	 	 	 	 	 	 	 	 	 	 	 	1581545109	2.91	5.39
12/02/2020 22:05:10	120220	12022020	220510	142.37	12.275035	-56.985408	142.61	-0.540	0.500	1.550	142.63	-0.90	2.00	 	 	 	 	 	 	 	 	 	 	 	 	 	 	 	 	 	 	1581545110	3.30	6.11
12/02/2020 22:05:11	120220	12022020	220511	143.74	12.275020	-56.985398	144.01	-0.670	0.290	1.440	144.03	-1.20	1.80	 	 	 	 	 	 	 	 	 	 	 	 	 	 	 	 	 	 	1581545111	3.68	6.82
12/02/2020 22:05:12	120220	12022020	220512	145.09	12.275003	-56.985388	145.33	-0.380	-0.480	1.480	145.32	-2.00	1.90	 	 	 	 	 	 	 	 	 	 	 	 	 	 	 	 	 	 	1581545112	4.23	7.83
12/02/2020 22:05:13	120220	12022020	220513	146.09	12.274983	-56.985377	146.24	0.160	-1.340	1.740	146.25	-2.80	2.20	 	 	 	 	 	 	 	 	 	 	 	 	 	 	 	 	 	 	1581545113	4.67	8.65
12/02/2020 22:05:14	120220	12022020	220514	146.67	12.274967	-56.985367	146.74	0.650	-1.550	2.080	146.75	-2.90	2.50	 	 	 	 	 	 	 	 	 	 	 	 	 	 	 	 	 	 	1581545114	4.42	8.19
12/02/2020 22:05:15	120220	12022020	220515	147.05	12.274953	-56.985355	147.17	0.840	-0.760	2.320	147.15	-2.00	2.80	 	 	 	 	 	 	 	 	 	 	 	 	 	 	 	 	 	 	1581545115	3.71	6.87
12/02/2020 22:05:16	120220	12022020	220516	147.77	12.274945	-56.985343	148.00	0.630	0.570	2.070	148.00	-0.60	2.40	 	 	 	 	 	 	 	 	 	 	 	 	 	 	 	 	 	 	1581545116	3.17	5.87
12/02/2020 22:05:17	120220	12022020	220517	149.18	12.274937	-56.985330	149.51	0.100	1.460	1.260	149.53	0.10	1.60	 	 	 	 	 	 	 	 	 	 	 	 	 	 	 	 	 	 	1581545117	3.33	6.17
12/02/2020 22:05:18	120220	12022020	220518	150.95	12.274925	-56.985315	151.23	-0.470	1.160	0.640	150.95	-0.40	1.10	 	 	 	 	 	 	 	 	 	 	 	 	 	 	 	 	 	 	1581545118	3.88	7.19
12/02/2020 22:05:19	120220	12022020	220519	152.36	12.274907	-56.985305	152.50	-0.790	-0.130	0.870	152.57	-1.80	1.40	 	 	 	 	 	 	 	 	 	 	 	 	 	 	 	 	 	 	1581545119	4.64	8.59
12/02/2020 22:05:20	120220	12022020	220520	153.14	12.274883	-56.985298	153.18	-0.760	-1.410	1.850	153.14	-2.90	2.40	 	 	 	 	 	 	 	 	 	 	 	 	 	 	 	 	 	 	1581545120	5.15	9.54
12/02/2020 22:05:21	120220	12022020	220521	153.53	12.274860	-56.985298	153.57	-0.500	-1.740	2.990	153.59	-3.10	3.50	 	 	 	 	 	 	 	 	 	 	 	 	 	 	 	 	 	 	1581545121	4.83	8.95
12/02/2020 22:05:22	120220	12022020	220522	153.88	12.274842	-56.985298	153.97	-0.120	-1.050	3.690	153.97	-2.30	4.10	 	 	 	 	 	 	 	 	 	 	 	 	 	 	 	 	 	 	1581545122	3.94	7.30
12/02/2020 22:05:23	120220	12022020	220523	154.51	12.274828	-56.985293	154.69	0.340	-0.050	3.340	154.69	-1.30	3.60	 	 	 	 	 	 	 	 	 	 	 	 	 	 	 	 	 	 	1581545123	3.18	5.89
12/02/2020 22:05:24	120220	12022020	220524	155.60	12.274817	-56.985280	155.83	0.830	0.650	1.930	155.87	-0.70	2.10	 	 	 	 	 	 	 	 	 	 	 	 	 	 	 	 	 	 	1581545124	3.69	6.83
12/02/2020 22:05:25	120220	12022020	220525	157.03	12.274807	-56.985260	157.27	1.020	0.790	0.210	157.34	-0.70	0.40	 	 	 	 	 	 	 	 	 	 	 	 	 	 	 	 	 	 	1581545125	4.78	8.85
12/02/2020 22:05:26	120220	12022020	220526	158.51	12.274793	-56.985240	158.70	0.700	0.310	-1.010	158.79	-1.20	-0.70	 	 	 	 	 	 	 	 	 	 	 	 	 	 	 	 	 	 	1581545126	5.02	9.30
12/02/2020 22:05:27	120220	12022020	220527	159.75	12.274777	-56.985225	159.84	0.040	-0.480	-1.370	159.96	-2.00	-0.90	 	 	 	 	 	 	 	 	 	 	 	 	 	 	 	 	 	 	1581545127	4.71	8.72
12/02/2020 22:05:28	120220	12022020	220528	160.57	12.274757	-56.985220	160.59	-0.580	-1.170	-0.690	160.69	-2.70	-0.10	 	 	 	 	 	 	 	 	 	 	 	 	 	 	 	 	 	 	1581545128	4.53	8.39
12/02/2020 22:05:29	120220	12022020	220529	161.08	12.274735	-56.985222	161.11	-0.870	-1.330	0.800	161.19	-2.70	1.40	 	 	 	 	 	 	 	 	 	 	 	 	 	 	 	 	 	 	1581545129	4.69	8.69
12/02/2020 22:05:30	120220	12022020	220530	161.64	12.274715	-56.985227	161.74	-0.770	-0.730	2.170	161.78	-2.00	2.70	 	 	 	 	 	 	 	 	 	 	 	 	 	 	 	 	 	 	1581545130	4.35	8.06
12/02/2020 22:05:31	120220	12022020	220531	162.47	12.274698	-56.985228	162.66	-0.450	0.150	2.780	162.68	-1.20	3.20	 	 	 	 	 	 	 	 	 	 	 	 	 	 	 	 	 	 	1581545131	3.64	6.74
12/02/2020 22:05:32	120220	12022020	220532	163.55	12.274682	-56.985225	163.80	-0.020	0.550	2.650	163.79	-0.90	3.00	 	 	 	 	 	 	 	 	 	 	 	 	 	 	 	 	 	 	1581545132	3.60	6.67
12/02/2020 22:05:33	120220	12022020	220533	164.77	12.274665	-56.985218	165.01	0.420	0.380	2.030	165.00	-1.10	2.30	 	 	 	 	 	 	 	 	 	 	 	 	 	 	 	 	 	 	1581545133	4.23	7.83
12/02/2020 22:05:34	120220	12022020	220534	165.96	12.274645	-56.985207	166.13	0.780	-0.060	1.350	166.15	-1.60	1.70	 	 	 	 	 	 	 	 	 	 	 	 	 	 	 	 	 	 	1581545134	4.64	8.59
12/02/2020 22:05:35	120220	12022020	220535	166.91	12.274627	-56.985195	167.06	0.920	-0.440	0.880	167.09	-1.90	1.20	 	 	 	 	 	 	 	 	 	 	 	 	 	 	 	 	 	 	1581545135	4.71	8.72
12/02/2020 22:05:36	120220	12022020	220536	167.81	12.274610	-56.985183	167.96	0.640	-0.360	0.520	168.00	-1.80	0.90	 	 	 	 	 	 	 	 	 	 	 	 	 	 	 	 	 	 	1581545136	4.28	7.93
12/02/2020 22:05:37	120220	12022020	220537	168.79	12.274593	-56.985177	168.97	-0.080	-0.190	0.590	169.00	-1.60	1.10	 	 	 	 	 	 	 	 	 	 	 	 	 	 	 	 	 	 	1581545137	3.75	6.95
12/02/2020 22:05:38	120220	12022020	220538	169.92	12.274575	-56.985177	170.15	-0.910	-0.230	1.020	170.17	-1.70	1.50	 	 	 	 	 	 	 	 	 	 	 	 	 	 	 	 	 	 	1581545138	3.96	7.33
12/02/2020 22:05:39	120220	12022020	220539	171.16	12.274557	-56.985182	171.43	-1.350	-0.330	1.410	171.42	-1.80	1.80	 	 	 	 	 	 	 	 	 	 	 	 	 	 	 	 	 	 	1581545139	4.38	8.11
12/02/2020 22:05:40	120220	12022020	220540	172.38	12.274537	-56.985187	172.63	-1.020	-0.370	1.570	172.60	-1.80	2.00	 	 	 	 	 	 	 	 	 	 	 	 	 	 	 	 	 	 	1581545140	4.29	7.95
12/02/2020 22:05:41	120220	12022020	220541	173.35	12.274517	-56.985187	173.50	-0.030	-0.500	1.580	173.50	-1.90	2.00	 	 	 	 	 	 	 	 	 	 	 	 	 	 	 	 	 	 	1581545141	4.26	7.89
12/02/2020 22:05:42	120220	12022020	220542	174.04	12.274495	-56.985182	174.18	0.990	-0.610	1.500	174.04	-2.00	1.90	 	 	 	 	 	 	 	 	 	 	 	 	 	 	 	 	 	 	1581545142	4.57	8.46
12/02/2020 22:05:43	120220	12022020	220543	174.79	12.274477	-56.985173	174.98	1.320	-0.320	1.270	174.97	-1.70	1.70	 	 	 	 	 	 	 	 	 	 	 	 	 	 	 	 	 	 	1581545143	4.48	8.30
12/02/2020 22:05:44	120220	12022020	220544	175.78	12.274460	-56.985167	176.01	0.840	0.230	1.070	176.01	-1.10	1.50	 	 	 	 	 	 	 	 	 	 	 	 	 	 	 	 	 	 	1581545144	3.99	7.39
12/02/2020 22:05:45	120220	12022020	220545	176.96	12.274442	-56.985162	177.16	0.010	0.560	0.920	177.19	-0.90	1.30	 	 	 	 	 	 	 	 	 	 	 	 	 	 	 	 	 	 	1581545145	3.80	7.04
12/02/2020 22:05:46	120220	12022020	220546	178.19	12.274423	-56.985160	178.38	-0.630	0.480	0.760	178.42	-1.00	1.20	 	 	 	 	 	 	 	 	 	 	 	 	 	 	 	 	 	 	1581545146	4.00	7.41
12/02/2020 22:05:47	120220	12022020	220547	179.31	12.274403	-56.985162	179.48	-0.820	-0.050	0.910	179.50	-1.60	1.40	 	 	 	 	 	 	 	 	 	 	 	 	 	 	 	 	 	 	1581545147	4.43	8.20
12/02/2020 22:05:48	120220	12022020	220548	180.28	12.274382	-56.985167	180.44	-0.570	-0.740	1.310	180.46	-2.30	1.70	 	 	 	 	 	 	 	 	 	 	 	 	 	 	 	 	 	 	1581545148	4.83	8.95
12/02/2020 22:05:49	120220	12022020	220549	181.15	12.274360	-56.985172	181.30	-0.060	-1.170	1.510	181.34	-2.60	1.90	 	 	 	 	 	 	 	 	 	 	 	 	 	 	 	 	 	 	1581545149	4.79	8.87
12/02/2020 22:05:50	120220	12022020	220550	182.11	12.274338	-56.985172	182.29	0.380	-1.100	1.260	182.32	-2.50	1.60	 	 	 	 	 	 	 	 	 	 	 	 	 	 	 	 	 	 	1581545150	4.41	8.17
12/02/2020 22:05:51	120220	12022020	220551	183.18	12.274320	-56.985168	183.39	0.420	-0.650	0.830	183.40	-2.00	1.20	 	 	 	 	 	 	 	 	 	 	 	 	 	 	 	 	 	 	1581545151	4.16	7.70
12/02/2020 22:05:52	120220	12022020	220552	184.25	12.274302	-56.985165	184.45	0.050	-0.050	0.500	184.47	-1.40	0.90	 	 	 	 	 	 	 	 	 	 	 	 	 	 	 	 	 	 	1581545152	4.03	7.46
12/02/2020 22:05:53	120220	12022020	220553	185.30	12.274283	-56.985165	185.48	-0.350	0.520	0.260	185.50	-0.80	0.60	 	 	 	 	 	 	 	 	 	 	 	 	 	 	 	 	 	 	1581545153	3.96	7.33
12/02/2020 22:05:54	120220	12022020	220554	186.27	12.274263	-56.985165	186.44	-0.460	0.780	0.290	186.47	-0.70	0.70	 	 	 	 	 	 	 	 	 	 	 	 	 	 	 	 	 	 	1581545154	4.16	7.70
12/02/2020 22:05:55	120220	12022020	220555	187.33	12.274243	-56.985168	187.55	-0.260	0.660	0.460	187.57	-0.80	0.90	 	 	 	 	 	 	 	 	 	 	 	 	 	 	 	 	 	 	1581545155	4.43	8.20
12/02/2020 22:05:56	120220	12022020	220556	188.55	12.274223	-56.985173	188.76	0.080	0.280	0.680	188.55	-1.20	1.10	 	 	 	 	 	 	 	 	 	 	 	 	 	 	 	 	 	 	1581545156	4.52	8.37
12/02/2020 22:05:57	120220	12022020	220557	189.76	12.274203	-56.985177	189.94	0.380	-0.180	0.840	189.99	-1.70	1.20	 	 	 	 	 	 	 	 	 	 	 	 	 	 	 	 	 	 	1581545157	4.42	8.19
12/02/2020 22:05:58	120220	12022020	220558	190.81	12.274183	-56.985180	190.93	0.610	-0.610	0.800	190.98	-2.10	1.20	 	 	 	 	 	 	 	 	 	 	 	 	 	 	 	 	 	 	1581545158	4.33	8.02
12/02/2020 22:05:59	120220	12022020	220559	191.68	12.274163	-56.985182	191.78	0.710	-0.890	0.560	191.84	-2.30	0.90	 	 	 	 	 	 	 	 	 	 	 	 	 	 	 	 	 	 	1581545159	4.31	7.98
12/02/2020 22:06:00	120220	12022020	220600	192.57	12.274143	-56.985183	192.71	0.590	-1.000	0.450	192.77	-2.40	0.80	 	 	 	 	 	 	 	 	 	 	 	 	 	 	 	 	 	 	1581545160	4.31	7.98
12/02/2020 22:06:01	120220	12022020	220601	193.60	12.274123	-56.985187	193.79	0.180	-1.070	0.700	193.82	-2.50	1.10	 	 	 	 	 	 	 	 	 	 	 	 	 	 	 	 	 	 	1581545161	4.38	8.11
12/02/2020 22:06:02	120220	12022020	220602	194.65	12.274102	-56.985195	194.82	-0.380	-1.060	1.110	194.84	-2.50	1.50	1014.60	26.30	26.30	20.50	20.60	-1.0	70.0	70.0	391.0	25.9	278.00	11.10	70.00	11.50	64	12214.0	27.4	27.4	1581545162	4.58	8.48
12/02/2020 22:06:03	120220	12022020	220603	195.53	12.274082	-56.985203	195.65	-0.860	-0.760	1.510	195.68	-2.10	1.90	 	 	 	 	 	 	 	 	 	 	 	 	 	 	 	 	 	 	1581545163	4.66	8.63
12/02/2020 22:06:04	120220	12022020	220604	196.33	12.274063	-56.985212	196.51	-1.080	-0.070	1.760	196.52	-1.40	2.10	 	 	 	 	 	 	 	 	 	 	 	 	 	 	 	 	 	 	1581545164	4.51	8.35
12/02/2020 22:06:05	120220	12022020	220605	197.41	12.274047	-56.985220	197.66	-0.990	0.950	1.560	197.67	-0.30	1.80	 	 	 	 	 	 	 	 	 	 	 	 	 	 	 	 	 	 	1581545165	4.06	7.52
12/02/2020 22:06:06	120220	12022020	220606	198.82	12.274030	-56.985225	199.10	-0.530	1.730	0.920	199.12	0.30	1.20	 	 	 	 	 	 	 	 	 	 	 	 	 	 	 	 	 	 	1581545166	3.79	7.02
12/02/2020 22:06:07	120220	12022020	220607	200.30	12.274010	-56.985227	200.54	0.220	1.560	0.100	200.57	-0.00	0.40	 	 	 	 	 	 	 	 	 	 	 	 	 	 	 	 	 	 	1581545167	4.36	8.07
12/02/2020 22:06:08	120220	12022020	220608	201.43	12.273985	-56.985230	201.56	0.970	0.250	-0.240	201.43	-1.40	0.10	 	 	 	 	 	 	 	 	 	 	 	 	 	 	 	 	 	 	1581545168	5.33	9.87
12/02/2020 22:06:09	120220	12022020	220609	202.11	12.273960	-56.985235	202.20	1.270	-1.200	-0.030	202.24	-2.80	0.40	 	 	 	 	 	 	 	 	 	 	 	 	 	 	 	 	 	 	1581545169	5.64	10.45
12/02/2020 22:06:10	120220	12022020	220610	202.95	12.273940	-56.985243	203.11	0.920	-1.480	0.180	202.95	-2.90	0.60	 	 	 	 	 	 	 	 	 	 	 	 	 	 	 	 	 	 	1581545170	4.58	8.48
12/02/2020 22:06:11	120220	12022020	220611	204.11	12.273925	-56.985250	204.30	0.210	-1.040	0.430	204.31	-2.40	0.80	 	 	 	 	 	 	 	 	 	 	 	 	 	 	 	 	 	 	1581545171	3.46	6.41
12/02/2020 22:06:12	120220	12022020	220612	205.06	12.273910	-56.985262	205.18	-0.320	-0.990	1.130	205.18	-2.50	1.60	 	 	 	 	 	 	 	 	 	 	 	 	 	 	 	 	 	 	1581545172	4.04	7.48
12/02/2020 22:06:13	120220	12022020	220613	205.57	12.273893	-56.985278	205.67	-0.420	-1.280	2.180	205.65	-2.70	2.60	 	 	 	 	 	 	 	 	 	 	 	 	 	 	 	 	 	 	1581545173	5.12	9.48
12/02/2020 22:06:14	120220	12022020	220614	206.07	12.273875	-56.985295	206.26	-0.290	-0.990	2.970	206.22	-2.30	3.30	 	 	 	 	 	 	 	 	 	 	 	 	 	 	 	 	 	 	1581545174	5.19	9.61
12/02/2020 22:06:15	120220	12022020	220615	207.06	12.273858	-56.985307	207.38	-0.250	0.090	2.940	207.32	-1.20	3.20	 	 	 	 	 	 	 	 	 	 	 	 	 	 	 	 	 	 	1581545175	4.23	7.83
12/02/2020 22:06:16	120220	12022020	220616	208.42	12.273842	-56.985313	208.75	-0.350	1.030	2.340	208.71	-0.30	2.60	 	 	 	 	 	 	 	 	 	 	 	 	 	 	 	 	 	 	1581545176	3.91	7.24
12/02/2020 22:06:17	120220	12022020	220617	209.83	12.273822	-56.985318	210.13	-0.400	1.170	1.400	210.11	-0.30	1.60	 	 	 	 	 	 	 	 	 	 	 	 	 	 	 	 	 	 	1581545177	4.58	8.48
12/02/2020 22:06:18	120220	12022020	220618	211.09	12.273797	-56.985325	211.32	-0.310	0.590	0.550	211.32	-1.00	0.80	 	 	 	 	 	 	 	 	 	 	 	 	 	 	 	 	 	 	1581545178	5.22	9.67
12/02/2020 22:06:19	120220	12022020	220619	212.15	12.273775	-56.985333	212.31	-0.140	-0.000	0.040	212.35	-1.50	0.30	 	 	 	 	 	 	 	 	 	 	 	 	 	 	 	 	 	 	1581545179	5.13	9.50
12/02/2020 22:06:20	120220	12022020	220620	213.05	12.273757	-56.985343	213.16	0.130	-0.120	-0.260	213.22	-1.50	0.10	 	 	 	 	 	 	 	 	 	 	 	 	 	 	 	 	 	 	1581545180	4.46	8.26
12/02/2020 22:06:21	120220	12022020	220621	213.84	12.273740	-56.985352	213.92	0.490	-0.170	-0.360	213.99	-1.60	-0.00	 	 	 	 	 	 	 	 	 	 	 	 	 	 	 	 	 	 	1581545181	4.11	7.61
12/02/2020 22:06:22	120220	12022020	220622	214.53	12.273722	-56.985363	214.61	0.770	-0.600	-0.150	214.67	-2.10	0.20	 	 	 	 	 	 	 	 	 	 	 	 	 	 	 	 	 	 	1581545182	4.44	8.22
12/02/2020 22:06:23	120220	12022020	220623	215.21	12.273703	-56.985377	215.30	0.790	-1.270	0.370	215.34	-2.80	0.80	 	 	 	 	 	 	 	 	 	 	 	 	 	 	 	 	 	 	1581545183	4.93	9.13
12/02/2020 22:06:24	120220	12022020	220624	215.97	12.273687	-56.985393	216.09	0.490	-1.600	0.920	216.13	-3.00	1.30	 	 	 	 	 	 	 	 	 	 	 	 	 	 	 	 	 	 	1581545184	5.01	9.28
12/02/2020 22:06:25	120220	12022020	220625	216.87	12.273672	-56.985408	217.02	-0.000	-1.290	1.340	217.07	-2.60	1.70	 	 	 	 	 	 	 	 	 	 	 	 	 	 	 	 	 	 	1581545185	4.68	8.67
12/02/2020 22:06:26	120220	12022020	220626	217.94	12.273657	-56.985423	218.14	-0.530	-0.440	1.560	218.19	-1.70	1.90	 	 	 	 	 	 	 	 	 	 	 	 	 	 	 	 	 	 	1581545186	4.36	8.07
12/02/2020 22:06:27	120220	12022020	220627	219.26	12.273642	-56.985435	219.47	-0.960	0.660	1.400	219.53	-0.60	1.70	 	 	 	 	 	 	 	 	 	 	 	 	 	 	 	 	 	 	1581545187	4.06	7.52
12/02/2020 22:06:28	120220	12022020	220628	220.54	12.273627	-56.985447	220.69	-1.050	1.260	1.130	220.78	-0.10	1.40	 	 	 	 	 	 	 	 	 	 	 	 	 	 	 	 	 	 	1581545188	4.25	7.87
12/02/2020 22:06:29	120220	12022020	220629	221.62	12.273608	-56.985462	221.73	-0.690	1.090	0.930	221.82	-0.40	1.20	 	 	 	 	 	 	 	 	 	 	 	 	 	 	 	 	 	 	1581545189	4.88	9.04
12/02/2020 22:06:30	120220	12022020	220630	222.45	12.273588	-56.985477	222.48	-0.010	0.430	0.840	222.57	-1.10	1.20	 	 	 	 	 	 	 	 	 	 	 	 	 	 	 	 	 	 	1581545190	5.26	9.74
12/02/2020 22:06:31	120220	12022020	220631	222.93	12.273570	-56.985493	222.90	0.650	-0.240	0.830	223.00	-1.70	1.10	 	 	 	 	 	 	 	 	 	 	 	 	 	 	 	 	 	 	1581545191	5.22	9.67
12/02/2020 22:06:32	120220	12022020	220632	223.38	12.273553	-56.985507	223.41	0.960	-0.530	0.510	223.38	-1.90	0.70	 	 	 	 	 	 	 	 	 	 	 	 	 	 	 	 	 	 	1581545192	4.82	8.93
12/02/2020 22:06:33	120220	12022020	220633	224.34	12.273535	-56.985517	224.46	0.850	-0.520	-0.310	224.58	-2.00	-0.10	 	 	 	 	 	 	 	 	 	 	 	 	 	 	 	 	 	 	1581545193	4.41	8.17
12/02/2020 22:06:34	120220	12022020	220634	225.57	12.273517	-56.985528	225.66	0.470	-0.880	-0.990	225.57	-2.40	-0.70	 	 	 	 	 	 	 	 	 	 	 	 	 	 	 	 	 	 	1581545194	4.69	8.69
12/02/2020 22:06:35	120220	12022020	220635	226.53	12.273498	-56.985545	226.53	0.020	-1.500	-0.930	226.66	-3.00	-0.60	 	 	 	 	 	 	 	 	 	 	 	 	 	 	 	 	 	 	1581545195	5.30	9.82
12/02/2020 22:06:36	120220	12022020	220636	227.11	12.273482	-56.985565	227.09	-0.460	-1.470	-0.330	227.20	-2.80	0.10	 	 	 	 	 	 	 	 	 	 	 	 	 	 	 	 	 	 	1581545196	5.33	9.87
12/02/2020 22:06:37	120220	12022020	220637	227.63	12.273473	-56.985583	227.63	-0.860	-0.310	0.330	227.73	-1.50	0.70	 	 	 	 	 	 	 	 	 	 	 	 	 	 	 	 	 	 	1581545197	4.55	8.43
12/02/2020 22:06:38	120220	12022020	220638	228.21	12.273465	-56.985600	228.23	-0.920	1.070	0.680	228.33	-0.20	1.00	 	 	 	 	 	 	 	 	 	 	 	 	 	 	 	 	 	 	1581545198	3.89	7.20
12/02/2020 22:06:39	120220	12022020	220639	228.73	12.273452	-56.985617	228.71	-0.500	1.310	0.750	228.81	-0.20	1.00	 	 	 	 	 	 	 	 	 	 	 	 	 	 	 	 	 	 	1581545199	4.56	8.45
12/02/2020 22:06:40	120220	12022020	220640	229.12	12.273433	-56.985637	229.09	0.200	0.330	0.650	229.19	-1.30	0.90	 	 	 	 	 	 	 	 	 	 	 	 	 	 	 	 	 	 	1581545200	5.83	10.80
12/02/2020 22:06:41	120220	12022020	220641	229.48	12.273412	-56.985658	229.46	0.720	-0.800	0.530	229.57	-2.30	0.80	 	 	 	 	 	 	 	 	 	 	 	 	 	 	 	 	 	 	1581545201	6.26	11.59
12/02/2020 22:06:42	120220	12022020	220642	229.91	12.273393	-56.985677	229.90	0.740	-1.100	0.570	230.01	-2.50	0.90	 	 	 	 	 	 	 	 	 	 	 	 	 	 	 	 	 	 	1581545202	5.52	10.22
12/02/2020 22:06:43	120220	12022020	220643	230.40	12.273380	-56.985693	230.41	0.310	-0.670	0.750	230.49	-2.00	1.10	 	 	 	 	 	 	 	 	 	 	 	 	 	 	 	 	 	 	1581545203	4.63	8.57
12/02/2020 22:06:44	120220	12022020	220644	230.87	12.273368	-56.985712	230.90	-0.220	-0.080	0.890	230.97	-1.40	1.20	 	 	 	 	 	 	 	 	 	 	 	 	 	 	 	 	 	 	1581545204	4.48	8.30
12/02/2020 22:06:45	120220	12022020	220645	231.37	12.273357	-56.985730	231.44	-0.440	0.390	0.780	231.49	-1.00	1.00	 	 	 	 	 	 	 	 	 	 	 	 	 	 	 	 	 	 	1581545205	4.67	8.65
12/02/2020 22:06:46	120220	12022020	220646	231.88	12.273343	-56.985748	231.92	-0.250	0.500	0.480	231.88	-0.90	0.70	 	 	 	 	 	 	 	 	 	 	 	 	 	 	 	 	 	 	1581545206	4.92	9.11
12/02/2020 22:06:47	120220	12022020	220647	232.21	12.273328	-56.985768	232.22	0.080	0.140	0.170	232.27	-1.30	0.40	 	 	 	 	 	 	 	 	 	 	 	 	 	 	 	 	 	 	1581545207	5.38	9.96
12/02/2020 22:06:48	120220	12022020	220648	232.47	12.273312	-56.985788	232.45	0.220	-0.340	-0.100	232.51	-1.80	0.20	 	 	 	 	 	 	 	 	 	 	 	 	 	 	 	 	 	 	1581545208	5.54	10.26
12/02/2020 22:06:49	120220	12022020	220649	232.66	12.273297	-56.985808	232.64	0.170	-0.600	-0.400	232.70	-2.00	-0.10	 	 	 	 	 	 	 	 	 	 	 	 	 	 	 	 	 	 	1581545209	5.30	9.82
12/02/2020 22:06:50	120220	12022020	220650	232.99	12.273282	-56.985827	233.02	0.110	-0.590	-0.790	233.09	-2.00	-0.50	 	 	 	 	 	 	 	 	 	 	 	 	 	 	 	 	 	 	1581545210	5.03	9.32
12/02/2020 22:06:51	120220	12022020	220651	233.48	12.273265	-56.985843	233.50	0.120	-0.660	-1.130	233.56	-2.10	-0.80	 	 	 	 	 	 	 	 	 	 	 	 	 	 	 	 	 	 	1581545211	5.09	9.43
12/02/2020 22:06:52	120220	12022020	220652	233.74	12.273248	-56.985863	233.68	0.150	-0.990	-1.030	233.74	-2.40	-0.70	 	 	 	 	 	 	 	 	 	 	 	 	 	 	 	 	 	 	1581545212	5.56	10.30
12/02/2020 22:06:53	120220	12022020	220653	233.58	12.273233	-56.985887	233.46	0.060	-1.160	-0.310	233.50	-2.50	0.10	 	 	 	 	 	 	 	 	 	 	 	 	 	 	 	 	 	 	1581545213	5.87	10.87
12/02/2020 22:06:54	120220	12022020	220654	233.15	12.273223	-56.985912	233.03	-0.190	-0.660	0.770	233.06	-1.90	1.20	 	 	 	 	 	 	 	 	 	 	 	 	 	 	 	 	 	 	1581545214	5.67	10.50
12/02/2020 22:06:55	120220	12022020	220655	232.77	12.273215	-56.985935	232.72	-0.490	0.330	1.700	232.72	-0.90	2.10	 	 	 	 	 	 	 	 	 	 	 	 	 	 	 	 	 	 	1581545215	5.28	9.78
12/02/2020 22:06:56	120220	12022020	220656	232.67	12.273207	-56.985958	232.71	-0.610	1.130	2.000	232.69	-0.20	2.30	 	 	 	 	 	 	 	 	 	 	 	 	 	 	 	 	 	 	1581545216	5.09	9.43
12/02/2020 22:06:57	120220	12022020	220657	232.89	12.273193	-56.985980	232.98	-0.420	1.260	1.630	232.96	-0.20	1.80	 	 	 	 	 	 	 	 	 	 	 	 	 	 	 	 	 	 	1581545217	5.33	9.87
12/02/2020 22:06:58	120220	12022020	220658	233.30	12.273177	-56.986000	233.40	-0.030	0.690	0.840	233.30	-0.80	1.00	 	 	 	 	 	 	 	 	 	 	 	 	 	 	 	 	 	 	1581545218	5.79	10.72
12/02/2020 22:06:59	120220	12022020	220659	233.71	12.273157	-56.986022	233.78	0.360	-0.160	0.030	233.78	-1.70	0.30	 	 	 	 	 	 	 	 	 	 	 	 	 	 	 	 	 	 	1581545219	6.03	11.17
12/02/2020 22:07:00	120220	12022020	220700	233.93	12.273140	-56.986042	233.92	0.590	-0.790	-0.370	233.93	-2.30	-0.10	 	 	 	 	 	 	 	 	 	 	 	 	 	 	 	 	 	 	1581545220	5.79	10.72
12/02/2020 22:07:01	120220	12022020	220701	233.80	12.273127	-56.986063	233.72	0.640	-1.090	-0.140	233.74	-2.50	0.20	 	 	 	 	 	 	 	 	 	 	 	 	 	 	 	 	 	 	1581545221	5.45	10.09
12/02/2020 22:07:02	120220	12022020	220702	233.40	12.273113	-56.986087	233.30	0.530	-1.190	0.460	233.31	-2.60	0.90	1014.90	26.30	26.30	20.40	20.60	-1.0	70.0	70.0	390.0	25.9	227.00	8.80	78.00	10.90	53	10997.0	27.4	27.4	1581545222	5.40	10.00
12/02/2020 22:07:03	120220	12022020	220703	232.96	12.273102	-56.986110	232.91	0.330	-1.160	1.020	232.89	-2.50	1.40	 	 	 	 	 	 	 	 	 	 	 	 	 	 	 	 	 	 	1581545223	5.59	10.35
12/02/2020 22:07:04	120220	12022020	220704	232.76	12.273090	-56.986133	232.79	0.090	-0.980	1.240	232.77	-2.30	1.50	 	 	 	 	 	 	 	 	 	 	 	 	 	 	 	 	 	 	1581545224	5.74	10.63
12/02/2020 22:07:05	120220	12022020	220705	232.94	12.273077	-56.986157	233.03	-0.160	-0.530	1.100	233.02	-1.90	1.40	 	 	 	 	 	 	 	 	 	 	 	 	 	 	 	 	 	 	1581545225	5.72	10.59
12/02/2020 22:07:06	120220	12022020	220706	233.40	12.273062	-56.986178	233.52	-0.420	0.110	0.850	233.50	-1.20	1.10	 	 	 	 	 	 	 	 	 	 	 	 	 	 	 	 	 	 	1581545226	5.58	10.33
12/02/2020 22:07:07	120220	12022020	220707	233.90	12.273047	-56.986202	233.99	-0.590	0.630	0.720	233.99	-0.70	1.00	 	 	 	 	 	 	 	 	 	 	 	 	 	 	 	 	 	 	1581545227	5.64	10.45
12/02/2020 22:07:08	120220	12022020	220708	234.28	12.273032	-56.986223	234.37	-0.610	0.820	0.720	234.35	-0.60	1.00	 	 	 	 	 	 	 	 	 	 	 	 	 	 	 	 	 	 	1581545228	5.88	10.89
12/02/2020 22:07:09	120220	12022020	220709	234.55	12.273015	-56.986247	234.63	-0.440	0.840	0.700	234.60	-0.60	1.00	 	 	 	 	 	 	 	 	 	 	 	 	 	 	 	 	 	 	1581545229	5.92	10.96
12/02/2020 22:07:10	120220	12022020	220710	234.72	12.273000	-56.986268	234.78	-0.110	0.580	0.680	234.74	-0.90	1.00	 	 	 	 	 	 	 	 	 	 	 	 	 	 	 	 	 	 	1581545230	5.87	10.87
12/02/2020 22:07:11	120220	12022020	220711	234.79	12.272985	-56.986293	234.84	0.320	-0.100	0.820	234.80	-1.60	1.20	 	 	 	 	 	 	 	 	 	 	 	 	 	 	 	 	 	 	1581545231	6.03	11.17
12/02/2020 22:07:12	120220	12022020	220712	234.75	12.272970	-56.986320	234.77	0.710	-1.030	1.060	234.72	-2.50	1.40	 	 	 	 	 	 	 	 	 	 	 	 	 	 	 	 	 	 	1581545232	6.28	11.63
12/02/2020 22:07:13	120220	12022020	220713	234.56	12.272957	-56.986345	234.56	0.850	-1.640	1.300	234.52	-3.10	1.60	 	 	 	 	 	 	 	 	 	 	 	 	 	 	 	 	 	 	1581545233	6.27	11.61
12/02/2020 22:07:14	120220	12022020	220714	234.35	12.272945	-56.986370	234.38	0.650	-1.480	1.440	234.33	-2.80	1.80	 	 	 	 	 	 	 	 	 	 	 	 	 	 	 	 	 	 	1581545234	5.84	10.82
12/02/2020 22:07:15	120220	12022020	220715	234.28	12.272932	-56.986392	234.33	0.190	-0.660	1.340	234.29	-1.90	1.60	 	 	 	 	 	 	 	 	 	 	 	 	 	 	 	 	 	 	1581545235	5.34	9.89
12/02/2020 22:07:16	120220	12022020	220716	234.38	12.272918	-56.986413	234.48	-0.310	0.180	0.910	234.43	-1.10	1.10	 	 	 	 	 	 	 	 	 	 	 	 	 	 	 	 	 	 	1581545236	5.30	9.82
12/02/2020 22:07:17	120220	12022020	220717	234.67	12.272902	-56.986435	234.77	-0.650	0.460	0.310	234.74	-1.00	0.60	 	 	 	 	 	 	 	 	 	 	 	 	 	 	 	 	 	 	1581545237	5.84	10.82
12/02/2020 22:07:18	120220	12022020	220718	234.96	12.272885	-56.986460	235.03	-0.700	0.140	-0.040	234.99	-1.30	0.30	 	 	 	 	 	 	 	 	 	 	 	 	 	 	 	 	 	 	1581545238	6.54	12.11
12/02/2020 22:07:19	120220	12022020	220719	235.07	12.272868	-56.986487	235.09	-0.490	-0.240	-0.060	235.07	-1.70	0.30	 	 	 	 	 	 	 	 	 	 	 	 	 	 	 	 	 	 	1581545239	6.79	12.58
12/02/2020 22:07:20	120220	12022020	220720	235.02	12.272853	-56.986513	235.02	-0.180	-0.140	0.010	235.00	-1.50	0.30	 	 	 	 	 	 	 	 	 	 	 	 	 	 	 	 	 	 	1581545240	6.34	11.74
12/02/2020 22:07:21	120220	12022020	220721	234.92	12.272838	-56.986537	234.93	0.080	0.280	0.070	234.89	-1.10	0.40	 	 	 	 	 	 	 	 	 	 	 	 	 	 	 	 	 	 	1581545241	5.76	10.67
12/02/2020 22:07:22	120220	12022020	220722	234.78	12.272825	-56.986558	234.78	0.260	0.450	0.320	234.74	-1.00	0.70	 	 	 	 	 	 	 	 	 	 	 	 	 	 	 	 	 	 	1581545242	5.68	10.52
12/02/2020 22:07:23	120220	12022020	220723	234.49	12.272810	-56.986583	234.46	0.380	0.080	0.810	234.42	-1.40	1.20	 	 	 	 	 	 	 	 	 	 	 	 	 	 	 	 	 	 	1581545243	6.14	11.37
12/02/2020 22:07:24	120220	12022020	220724	234.08	12.272797	-56.986612	234.03	0.390	-0.550	1.420	233.99	-2.00	1.80	 	 	 	 	 	 	 	 	 	 	 	 	 	 	 	 	 	 	1581545244	6.58	12.19
12/02/2020 22:07:25	120220	12022020	220725	233.67	12.272785	-56.986640	233.67	0.280	-0.950	2.020	233.61	-2.40	2.40	 	 	 	 	 	 	 	 	 	 	 	 	 	 	 	 	 	 	1581545245	6.60	12.22
12/02/2020 22:07:26	120220	12022020	220726	233.49	12.272773	-56.986668	233.55	0.080	-0.860	2.270	233.49	-2.20	2.60	 	 	 	 	 	 	 	 	 	 	 	 	 	 	 	 	 	 	1581545246	6.20	11.48
12/02/2020 22:07:27	120220	12022020	220727	233.60	12.272762	-56.986693	233.72	-0.070	-0.610	2.010	233.65	-2.00	2.20	 	 	 	 	 	 	 	 	 	 	 	 	 	 	 	 	 	 	1581545247	5.93	10.98
12/02/2020 22:07:28	120220	12022020	220728	233.98	12.272745	-56.986717	234.12	-0.110	-0.490	1.320	234.08	-1.90	1.50	 	 	 	 	 	 	 	 	 	 	 	 	 	 	 	 	 	 	1581545248	6.12	11.33
12/02/2020 22:07:29	120220	12022020	220729	234.47	12.272727	-56.986740	234.61	-0.090	-0.440	0.610	234.58	-1.80	0.90	 	 	 	 	 	 	 	 	 	 	 	 	 	 	 	 	 	 	1581545249	6.41	11.87
12/02/2020 22:07:30	120220	12022020	220730	234.96	12.272708	-56.986765	235.07	-0.120	-0.240	0.150	235.05	-1.60	0.40	 	 	 	 	 	 	 	 	 	 	 	 	 	 	 	 	 	 	1581545250	6.41	11.87
12/02/2020 22:07:31	120220	12022020	220731	235.31	12.272692	-56.986788	235.38	-0.210	0.090	0.050	235.35	-1.30	0.40	 	 	 	 	 	 	 	 	 	 	 	 	 	 	 	 	 	 	1581545251	6.26	11.59
12/02/2020 22:07:32	120220	12022020	220732	235.42	12.272675	-56.986813	235.45	-0.310	0.410	0.330	235.42	-1.00	0.70	 	 	 	 	 	 	 	 	 	 	 	 	 	 	 	 	 	 	1581545252	6.18	11.45
12/02/2020 22:07:33	120220	12022020	220733	235.35	12.272662	-56.986838	235.37	-0.340	0.450	0.890	235.32	-1.00	1.30	 	 	 	 	 	 	 	 	 	 	 	 	 	 	 	 	 	 	1581545253	6.31	11.69
12/02/2020 22:07:34	120220	12022020	220734	235.18	12.272647	-56.986867	235.18	-0.250	0.050	1.430	235.14	-1.40	1.80	 	 	 	 	 	 	 	 	 	 	 	 	 	 	 	 	 	 	1581545254	6.65	12.32
12/02/2020 22:07:35	120220	12022020	220735	234.95	12.272632	-56.986895	234.94	-0.040	-0.610	1.710	234.91	-2.10	2.00	 	 	 	 	 	 	 	 	 	 	 	 	 	 	 	 	 	 	1581545255	6.96	12.89
12/02/2020 22:07:36	120220	12022020	220736	234.80	12.272615	-56.986923	234.84	0.160	-1.020	1.600	234.80	-2.40	1.90	 	 	 	 	 	 	 	 	 	 	 	 	 	 	 	 	 	 	1581545256	6.91	12.80
12/02/2020 22:07:37	120220	12022020	220737	234.92	12.272600	-56.986950	235.03	0.230	-0.820	1.150	234.99	-2.10	1.40	 	 	 	 	 	 	 	 	 	 	 	 	 	 	 	 	 	 	1581545257	6.39	11.83
12/02/2020 22:07:38	120220	12022020	220738	235.33	12.272585	-56.986973	235.46	0.170	-0.180	0.540	235.42	-1.50	0.80	 	 	 	 	 	 	 	 	 	 	 	 	 	 	 	 	 	 	1581545258	5.87	10.87
12/02/2020 22:07:39	120220	12022020	220739	235.82	12.272570	-56.986997	235.94	0.090	0.340	0.030	235.91	-1.00	0.30	 	 	 	 	 	 	 	 	 	 	 	 	 	 	 	 	 	 	1581545259	5.88	10.89
12/02/2020 22:07:40	120220	12022020	220740	236.30	12.272555	-56.987022	236.41	0.080	0.470	-0.300	236.39	-0.90	-0.00	 	 	 	 	 	 	 	 	 	 	 	 	 	 	 	 	 	 	1581545260	6.27	11.61
12/02/2020 22:07:41	120220	12022020	220741	236.67	12.272540	-56.987048	236.73	0.120	0.270	-0.400	236.71	-1.20	-0.10	 	 	 	 	 	 	 	 	 	 	 	 	 	 	 	 	 	 	1581545261	6.57	12.17
12/02/2020 22:07:42	120220	12022020	220742	236.78	12.272523	-56.987075	236.78	0.170	-0.100	-0.220	236.77	-1.60	0.10	 	 	 	 	 	 	 	 	 	 	 	 	 	 	 	 	 	 	1581545262	6.71	12.43
12/02/2020 22:07:43	120220	12022020	220743	236.63	12.272508	-56.987103	236.58	0.170	-0.560	0.120	236.56	-2.00	0.50	 	 	 	 	 	 	 	 	 	 	 	 	 	 	 	 	 	 	1581545263	6.80	12.59
12/02/2020 22:07:44	120220	12022020	220744	236.24	12.272492	-56.987132	236.17	0.110	-1.020	0.570	236.14	-2.50	1.00	 	 	 	 	 	 	 	 	 	 	 	 	 	 	 	 	 	 	1581545264	6.93	12.83
12/02/2020 22:07:45	120220	12022020	220745	235.74	12.272477	-56.987160	235.68	-0.030	-1.290	1.040	235.64	-2.70	1.40	 	 	 	 	 	 	 	 	 	 	 	 	 	 	 	 	 	 	1581545265	7.00	12.96
12/02/2020 22:07:46	120220	12022020	220746	235.28	12.272462	-56.987190	235.24	-0.230	-1.130	1.390	235.19	-2.50	1.70	 	 	 	 	 	 	 	 	 	 	 	 	 	 	 	 	 	 	1581545266	6.86	12.70
12/02/2020 22:07:47	120220	12022020	220747	234.93	12.272447	-56.987218	234.95	-0.480	-0.640	1.530	234.89	-1.90	1.80	 	 	 	 	 	 	 	 	 	 	 	 	 	 	 	 	 	 	1581545267	6.69	12.39
12/02/2020 22:07:48	120220	12022020	220748	234.88	12.272433	-56.987245	234.98	-0.690	-0.030	1.370	234.88	-1.30	1.60	 	 	 	 	 	 	 	 	 	 	 	 	 	 	 	 	 	 	1581545268	6.64	12.30
12/02/2020 22:07:49	120220	12022020	220749	235.09	12.272418	-56.987275	235.20	-0.700	0.410	1.060	235.14	-0.90	1.30	 	 	 	 	 	 	 	 	 	 	 	 	 	 	 	 	 	 	1581545269	6.78	12.56
12/02/2020 22:07:50	120220	12022020	220750	235.35	12.272403	-56.987303	235.45	-0.430	0.610	0.730	235.35	-0.80	1.00	 	 	 	 	 	 	 	 	 	 	 	 	 	 	 	 	 	 	1581545270	6.98	12.93
12/02/2020 22:07:51	120220	12022020	220751	235.61	12.272387	-56.987332	235.70	-0.030	0.660	0.450	235.65	-0.70	0.70	 	 	 	 	 	 	 	 	 	 	 	 	 	 	 	 	 	 	1581545271	7.00	12.96
12/02/2020 22:07:52	120220	12022020	220752	235.80	12.272368	-56.987358	235.86	0.290	0.590	0.330	235.82	-0.80	0.70	 	 	 	 	 	 	 	 	 	 	 	 	 	 	 	 	 	 	1581545272	6.91	12.80
12/02/2020 22:07:53	120220	12022020	220753	235.85	12.272352	-56.987385	235.88	0.500	0.420	0.420	235.84	-1.00	0.80	 	 	 	 	 	 	 	 	 	 	 	 	 	 	 	 	 	 	1581545273	6.76	12.52
12/02/2020 22:07:54	120220	12022020	220754	235.81	12.272335	-56.987412	235.86	0.630	0.060	0.670	235.81	-1.40	1.00	 	 	 	 	 	 	 	 	 	 	 	 	 	 	 	 	 	 	1581545274	6.74	12.48
12/02/2020 22:07:55	120220	12022020	220755	235.88	12.272318	-56.987440	235.97	0.670	-0.500	0.980	235.92	-2.00	1.40	 	 	 	 	 	 	 	 	 	 	 	 	 	 	 	 	 	 	1581545275	6.86	12.70
12/02/2020 22:07:56	120220	12022020	220756	236.06	12.272302	-56.987468	236.15	0.540	-1.050	1.390	236.09	-2.50	1.80	 	 	 	 	 	 	 	 	 	 	 	 	 	 	 	 	 	 	1581545276	6.98	12.93
12/02/2020 22:07:57	120220	12022020	220757	236.17	12.272288	-56.987498	236.25	0.250	-1.480	1.920	236.18	-2.90	2.30	 	 	 	 	 	 	 	 	 	 	 	 	 	 	 	 	 	 	1581545277	7.09	13.13
12/02/2020 22:07:58	120220	12022020	220758	236.09	12.272273	-56.987530	236.11	-0.080	-1.760	2.450	236.05	-3.10	2.80	 	 	 	 	 	 	 	 	 	 	 	 	 	 	 	 	 	 	1581545278	7.33	13.58
12/02/2020 22:07:59	120220	12022020	220759	235.89	12.272260	-56.987563	235.93	-0.380	-1.630	2.640	235.87	-2.90	2.90	 	 	 	 	 	 	 	 	 	 	 	 	 	 	 	 	 	 	1581545279	7.46	13.82
12/02/2020 22:08:00	120220	12022020	220800	235.95	12.272243	-56.987592	236.06	-0.600	-0.900	2.120	236.02	-2.10	2.30	 	 	 	 	 	 	 	 	 	 	 	 	 	 	 	 	 	 	1581545280	7.14	13.22
12/02/2020 22:08:01	120220	12022020	220801	236.44	12.272225	-56.987618	236.61	-0.710	0.120	1.090	236.58	-1.10	1.30	 	 	 	 	 	 	 	 	 	 	 	 	 	 	 	 	 	 	1581545281	6.83	12.65
12/02/2020 22:08:02	120220	12022020	220802	237.11	12.272205	-56.987645	237.26	-0.640	0.770	0.210	237.23	-0.60	0.50	1014.90	26.30	26.40	20.40	20.50	-1.0	70.0	70.0	388.0	25.9	207.00	6.90	73.00	10.00	45	11206.0	27.4	27.4	1581545282	7.09	13.13
12/02/2020 22:08:03	120220	12022020	220803	237.66	12.272185	-56.987675	237.77	-0.430	0.930	-0.270	237.75	-0.50	0.00	 	 	 	 	 	 	 	 	 	 	 	 	 	 	 	 	 	 	1581545283	7.61	14.09
12/02/2020 22:08:04	120220	12022020	220804	238.14	12.272165	-56.987705	238.24	-0.170	0.990	-0.650	238.23	-0.40	-0.40	 	 	 	 	 	 	 	 	 	 	 	 	 	 	 	 	 	 	1581545284	7.62	14.11
12/02/2020 22:08:05	120220	12022020	220805	238.58	12.272145	-56.987733	238.63	0.100	1.070	-0.920	238.65	-0.30	-0.60	 	 	 	 	 	 	 	 	 	 	 	 	 	 	 	 	 	 	1581545285	7.22	13.37
12/02/2020 22:08:06	120220	12022020	220806	238.83	12.272128	-56.987762	238.82	0.390	0.820	-0.810	238.84	-0.60	-0.40	 	 	 	 	 	 	 	 	 	 	 	 	 	 	 	 	 	 	1581545286	7.09	13.13
12/02/2020 22:08:07	120220	12022020	220807	238.78	12.272112	-56.987792	238.70	0.620	0.040	-0.200	238.72	-1.50	0.20	 	 	 	 	 	 	 	 	 	 	 	 	 	 	 	 	 	 	1581545287	7.38	13.67
12/02/2020 22:08:08	120220	12022020	220808	238.41	12.272098	-56.987825	238.30	0.700	-0.930	0.740	238.31	-2.40	1.20	 	 	 	 	 	 	 	 	 	 	 	 	 	 	 	 	 	 	1581545288	7.70	14.26
12/02/2020 22:08:09	120220	12022020	220809	237.89	12.272085	-56.987860	237.80	0.540	-1.640	1.510	237.80	-3.10	1.90	 	 	 	 	 	 	 	 	 	 	 	 	 	 	 	 	 	 	1581545289	7.69	14.24
12/02/2020 22:08:10	120220	12022020	220810	237.50	12.272072	-56.987892	237.46	0.230	-1.820	1.670	237.45	-3.20	2.00	 	 	 	 	 	 	 	 	 	 	 	 	 	 	 	 	 	 	1581545290	7.37	13.65
12/02/2020 22:08:11	120220	12022020	220811	237.29	12.272058	-56.987922	237.25	-0.040	-1.600	1.300	237.26	-2.90	1.50	 	 	 	 	 	 	 	 	 	 	 	 	 	 	 	 	 	 	1581545291	7.07	13.09
12/02/2020 22:08:12	120220	12022020	220812	237.15	12.272040	-56.987952	237.11	-0.160	-1.280	0.650	237.15	-2.60	0.90	 	 	 	 	 	 	 	 	 	 	 	 	 	 	 	 	 	 	1581545292	7.23	13.39
12/02/2020 22:08:13	120220	12022020	220813	237.11	12.272022	-56.987980	237.10	-0.220	-0.900	-0.040	237.11	-2.20	0.20	 	 	 	 	 	 	 	 	 	 	 	 	 	 	 	 	 	 	1581545293	7.58	14.04
12/02/2020 22:08:14	120220	12022020	220814	237.14	12.272002	-56.988012	237.13	-0.330	-0.250	-0.540	237.14	-1.50	-0.30	 	 	 	 	 	 	 	 	 	 	 	 	 	 	 	 	 	 	1581545294	7.69	14.24
12/02/2020 22:08:15	120220	12022020	220815	237.15	12.271983	-56.988042	237.12	-0.510	0.610	-0.610	237.14	-0.70	-0.30	 	 	 	 	 	 	 	 	 	 	 	 	 	 	 	 	 	 	1581545295	7.51	13.91
12/02/2020 22:08:16	120220	12022020	220816	237.07	12.271967	-56.988073	237.04	-0.610	1.230	-0.240	237.05	-0.10	0.20	 	 	 	 	 	 	 	 	 	 	 	 	 	 	 	 	 	 	1581545296	7.54	13.96
12/02/2020 22:08:17	120220	12022020	220817	236.94	12.271950	-56.988107	236.90	-0.490	1.240	0.450	236.91	-0.20	0.90	 	 	 	 	 	 	 	 	 	 	 	 	 	 	 	 	 	 	1581545297	7.94	14.70
12/02/2020 22:08:18	120220	12022020	220818	236.74	12.271935	-56.988142	236.72	-0.200	0.810	1.300	236.70	-0.60	1.70	 	 	 	 	 	 	 	 	 	 	 	 	 	 	 	 	 	 	1581545298	8.24	15.26
12/02/2020 22:08:19	120220	12022020	220819	236.54	12.271920	-56.988177	236.54	0.080	0.300	1.990	236.52	-1.20	2.40	 	 	 	 	 	 	 	 	 	 	 	 	 	 	 	 	 	 	1581545299	8.08	14.96
12/02/2020 22:08:20	120220	12022020	220820	236.45	12.271905	-56.988210	236.48	0.300	-0.210	2.210	236.45	-1.70	2.50	 	 	 	 	 	 	 	 	 	 	 	 	 	 	 	 	 	 	1581545300	7.71	14.28
12/02/2020 22:08:21	120220	12022020	220821	236.52	12.271888	-56.988240	236.57	0.560	-0.650	1.910	236.54	-2.10	2.20	 	 	 	 	 	 	 	 	 	 	 	 	 	 	 	 	 	 	1581545301	7.42	13.74
12/02/2020 22:08:22	120220	12022020	220822	236.73	12.271868	-56.988268	236.82	0.810	-0.970	1.300	236.81	-2.40	1.50	 	 	 	 	 	 	 	 	 	 	 	 	 	 	 	 	 	 	1581545302	7.30	13.52
12/02/2020 22:08:23	120220	12022020	220823	237.20	12.271848	-56.988297	237.32	0.810	-1.240	0.720	237.32	-2.70	1.00	 	 	 	 	 	 	 	 	 	 	 	 	 	 	 	 	 	 	1581545303	7.35	13.61
12/02/2020 22:08:24	120220	12022020	220824	237.81	12.271828	-56.988327	237.93	0.450	-1.390	0.380	237.93	-2.80	0.70	 	 	 	 	 	 	 	 	 	 	 	 	 	 	 	 	 	 	1581545304	7.49	13.87
12/02/2020 22:08:25	120220	12022020	220825	238.32	12.271812	-56.988357	238.37	-0.070	-1.230	0.380	238.38	-2.50	0.70	 	 	 	 	 	 	 	 	 	 	 	 	 	 	 	 	 	 	1581545305	7.54	13.96
12/02/2020 22:08:26	120220	12022020	220826	238.52	12.271797	-56.988390	238.51	-0.450	-0.790	0.750	238.52	-2.10	1.10	 	 	 	 	 	 	 	 	 	 	 	 	 	 	 	 	 	 	1581545306	7.62	14.11
12/02/2020 22:08:27	120220	12022020	220827	238.46	12.271782	-56.988423	238.40	-0.510	-0.220	1.290	238.42	-1.50	1.70	 	 	 	 	 	 	 	 	 	 	 	 	 	 	 	 	 	 	1581545307	7.78	14.41
12/02/2020 22:08:28	120220	12022020	220828	238.21	12.271767	-56.988458	238.16	-0.370	0.330	1.730	238.16	-1.00	2.10	 	 	 	 	 	 	 	 	 	 	 	 	 	 	 	 	 	 	1581545308	7.95	14.72
12/02/2020 22:08:29	120220	12022020	220829	238.03	12.271750	-56.988492	238.03	-0.210	0.690	1.610	238.02	-0.70	1.90	 	 	 	 	 	 	 	 	 	 	 	 	 	 	 	 	 	 	1581545309	8.04	14.89
12/02/2020 22:08:30	120220	12022020	220830	238.14	12.271730	-56.988523	238.21	-0.160	0.750	0.740	238.21	-0.60	0.90	 	 	 	 	 	 	 	 	 	 	 	 	 	 	 	 	 	 	1581545310	8.05	14.91
12/02/2020 22:08:31	120220	12022020	220831	238.61	12.271707	-56.988555	238.72	-0.160	0.530	-0.480	238.74	-0.90	-0.30	 	 	 	 	 	 	 	 	 	 	 	 	 	 	 	 	 	 	1581545311	8.09	14.98
12/02/2020 22:08:32	120220	12022020	220832	239.34	12.271685	-56.988585	239.46	-0.160	0.170	-1.560	239.51	-1.30	-1.30	 	 	 	 	 	 	 	 	 	 	 	 	 	 	 	 	 	 	1581545312	8.02	14.85
12/02/2020 22:08:33	120220	12022020	220833	240.13	12.271665	-56.988615	240.20	-0.120	-0.270	-2.080	240.27	-1.70	-1.80	 	 	 	 	 	 	 	 	 	 	 	 	 	 	 	 	 	 	1581545313	7.88	14.59
12/02/2020 22:08:34	120220	12022020	220834	240.62	12.271647	-56.988648	240.58	-0.020	-0.750	-1.720	240.65	-2.20	-1.30	 	 	 	 	 	 	 	 	 	 	 	 	 	 	 	 	 	 	1581545314	7.83	14.50
12/02/2020 22:08:35	120220	12022020	220835	240.50	12.271632	-56.988683	240.35	0.140	-1.170	-0.400	240.40	-2.60	0.20	 	 	 	 	 	 	 	 	 	 	 	 	 	 	 	 	 	 	1581545315	7.97	14.76
12/02/2020 22:08:36	120220	12022020	220836	239.81	12.271622	-56.988720	239.59	0.280	-1.280	1.370	239.62	-2.60	1.90	 	 	 	 	 	 	 	 	 	 	 	 	 	 	 	 	 	 	1581545316	8.11	15.02
12/02/2020 22:08:37	120220	12022020	220837	238.77	12.271612	-56.988757	238.53	0.330	-0.960	2.920	238.54	-2.30	3.40	 	 	 	 	 	 	 	 	 	 	 	 	 	 	 	 	 	 	1581545317	8.09	14.98
12/02/2020 22:08:38	120220	12022020	220838	237.65	12.271602	-56.988793	237.46	0.290	-0.300	3.740	237.45	-1.60	4.10	 	 	 	 	 	 	 	 	 	 	 	 	 	 	 	 	 	 	1581545318	7.92	14.67
12/02/2020 22:08:39	120220	12022020	220839	236.81	12.271588	-56.988827	236.72	0.180	0.410	3.550	236.70	-0.90	3.80	 	 	 	 	 	 	 	 	 	 	 	 	 	 	 	 	 	 	1581545319	7.68	14.22
12/02/2020 22:08:40	120220	12022020	220840	236.44	12.271572	-56.988858	236.44	0.090	0.640	2.450	236.44	-0.80	2.60	 	 	 	 	 	 	 	 	 	 	 	 	 	 	 	 	 	 	1581545320	7.76	14.37
12/02/2020 22:08:41	120220	12022020	220841	236.55	12.271548	-56.988890	236.62	0.020	0.250	0.850	236.62	-1.20	0.90	 	 	 	 	 	 	 	 	 	 	 	 	 	 	 	 	 	 	1581545321	8.24	15.26
12/02/2020 22:08:42	120220	12022020	220842	236.99	12.271523	-56.988922	237.08	-0.090	-0.310	-0.570	237.09	-1.70	-0.40	 	 	 	 	 	 	 	 	 	 	 	 	 	 	 	 	 	 	1581545322	8.45	15.65
12/02/2020 22:08:43	120220	12022020	220843	237.45	12.271503	-56.988953	237.51	-0.220	-0.610	-1.300	237.53	-2.00	-1.00	 	 	 	 	 	 	 	 	 	 	 	 	 	 	 	 	 	 	1581545323	8.13	15.06
12/02/2020 22:08:44	120220	12022020	220844	237.65	12.271485	-56.988985	237.63	-0.300	-0.550	-1.130	237.64	-1.90	-0.70	 	 	 	 	 	 	 	 	 	 	 	 	 	 	 	 	 	 	1581545324	7.76	14.37
12/02/2020 22:08:45	120220	12022020	220845	237.43	12.271472	-56.989018	237.37	-0.220	-0.380	-0.100	237.34	-1.80	0.40	 	 	 	 	 	 	 	 	 	 	 	 	 	 	 	 	 	 	1581545325	7.65	14.17
12/02/2020 22:08:46	120220	12022020	220846	236.87	12.271458	-56.989053	236.79	0.010	-0.380	1.410	236.73	-1.80	1.90	 	 	 	 	 	 	 	 	 	 	 	 	 	 	 	 	 	 	1581545326	7.98	14.78
12/02/2020 22:08:47	120220	12022020	220847	236.11	12.271447	-56.989090	236.04	0.250	-0.510	2.810	235.95	-1.90	3.30	 	 	 	 	 	 	 	 	 	 	 	 	 	 	 	 	 	 	1581545327	8.33	15.43
12/02/2020 22:08:48	120220	12022020	220848	235.36	12.271432	-56.989127	235.34	0.350	-0.470	3.750	235.22	-1.80	4.10	 	 	 	 	 	 	 	 	 	 	 	 	 	 	 	 	 	 	1581545328	8.30	15.37
12/02/2020 22:08:49	120220	12022020	220849	234.82	12.271417	-56.989162	234.89	0.280	-0.270	3.990	234.76	-1.60	4.30	 	 	 	 	 	 	 	 	 	 	 	 	 	 	 	 	 	 	1581545329	8.03	14.87
12/02/2020 22:08:50	120220	12022020	220850	234.71	12.271398	-56.989193	234.86	0.130	-0.070	3.550	234.74	-1.40	3.80	 	 	 	 	 	 	 	 	 	 	 	 	 	 	 	 	 	 	1581545330	7.88	14.59
12/02/2020 22:08:51	120220	12022020	220851	234.99	12.271377	-56.989225	235.20	-0.040	0.010	2.710	235.09	-1.40	2.90	 	 	 	 	 	 	 	 	 	 	 	 	 	 	 	 	 	 	1581545331	7.88	14.59
12/02/2020 22:08:52	120220	12022020	220852	235.56	12.271357	-56.989255	235.78	-0.190	-0.070	1.850	235.70	-1.50	2.10	 	 	 	 	 	 	 	 	 	 	 	 	 	 	 	 	 	 	1581545332	7.93	14.69
12/02/2020 22:08:53	120220	12022020	220853	236.34	12.271337	-56.989287	236.56	-0.250	-0.250	1.210	236.50	-1.70	1.50	 	 	 	 	 	 	 	 	 	 	 	 	 	 	 	 	 	 	1581545333	8.00	14.82
12/02/2020 22:08:54	120220	12022020	220854	237.15	12.271318	-56.989320	237.34	-0.170	-0.320	1.020	237.28	-1.70	1.40	 	 	 	 	 	 	 	 	 	 	 	 	 	 	 	 	 	 	1581545334	7.91	14.65
12/02/2020 22:08:55	120220	12022020	220855	237.78	12.271302	-56.989352	237.92	0.020	-0.150	1.100	237.87	-1.50	1.50	 	 	 	 	 	 	 	 	 	 	 	 	 	 	 	 	 	 	1581545335	7.65	14.17
12/02/2020 22:08:56	120220	12022020	220856	238.16	12.271285	-56.989383	238.25	0.210	-0.010	1.210	238.21	-1.40	1.60	 	 	 	 	 	 	 	 	 	 	 	 	 	 	 	 	 	 	1581545336	7.52	13.93
12/02/2020 22:08:57	120220	12022020	220857	238.38	12.271265	-56.989413	238.46	0.280	-0.090	1.150	238.42	-1.50	1.50	 	 	 	 	 	 	 	 	 	 	 	 	 	 	 	 	 	 	1581545337	7.73	14.32
12/02/2020 22:08:58	120220	12022020	220858	238.63	12.271245	-56.989445	238.73	0.210	-0.390	0.910	238.70	-1.80	1.20	 	 	 	 	 	 	 	 	 	 	 	 	 	 	 	 	 	 	1581545338	7.99	14.80
12/02/2020 22:08:59	120220	12022020	220859	238.98	12.271227	-56.989480	239.07	0.060	-0.780	0.690	239.06	-2.20	1.00	 	 	 	 	 	 	 	 	 	 	 	 	 	 	 	 	 	 	1581545339	8.21	15.20
12/02/2020 22:09:00	120220	12022020	220900	239.40	12.271208	-56.989515	239.50	-0.050	-1.050	0.520	239.50	-2.40	0.80	 	 	 	 	 	 	 	 	 	 	 	 	 	 	 	 	 	 	1581545340	8.32	15.41
12/02/2020 22:09:01	120220	12022020	220901	239.97	12.271192	-56.989548	240.08	-0.100	-0.880	0.200	240.11	-2.20	0.50	 	 	 	 	 	 	 	 	 	 	 	 	 	 	 	 	 	 	1581545341	8.11	15.02
12/02/2020 22:09:02	120220	12022020	220902	240.68	12.271173	-56.989580	240.76	-0.130	-0.340	-0.220	240.81	-1.60	0.10	1014.90	26.40	27.00	20.80	21.10	-1.0	71.0	70.0	388.0	25.8	203.00	6.20	72.00	10.00	39	11100.0	27.4	27.4	1581545342	7.74	14.33
12/02/2020 22:09:03	120220	12022020	220903	241.18	12.271157	-56.989612	241.16	-0.180	0.080	-0.360	241.23	-1.30	-0.00	 	 	 	 	 	 	 	 	 	 	 	 	 	 	 	 	 	 	1581545343	7.76	14.37
12/02/2020 22:09:04	120220	12022020	220904	241.27	12.271138	-56.989647	241.16	-0.260	0.160	-0.260	241.24	-1.20	0.10	 	 	 	 	 	 	 	 	 	 	 	 	 	 	 	 	 	 	1581545344	8.14	15.08
12/02/2020 22:09:05	120220	12022020	220905	241.04	12.271120	-56.989682	240.89	-0.350	0.150	-0.120	240.99	-1.20	0.20	 	 	 	 	 	 	 	 	 	 	 	 	 	 	 	 	 	 	1581545345	8.31	15.39
12/02/2020 22:09:06	120220	12022020	220906	240.68	12.271103	-56.989715	240.50	-0.410	0.240	-0.090	240.61	-1.10	0.20	 	 	 	 	 	 	 	 	 	 	 	 	 	 	 	 	 	 	1581545346	8.12	15.04
12/02/2020 22:09:07	120220	12022020	220907	240.27	12.271087	-56.989750	240.08	-0.350	0.230	-0.240	240.19	-1.20	0.10	 	 	 	 	 	 	 	 	 	 	 	 	 	 	 	 	 	 	1581545347	7.98	14.78
12/02/2020 22:09:08	120220	12022020	220908	239.86	12.271070	-56.989783	239.67	-0.150	-0.080	-0.410	239.77	-1.50	-0.10	 	 	 	 	 	 	 	 	 	 	 	 	 	 	 	 	 	 	1581545348	8.13	15.06
12/02/2020 22:09:09	120220	12022020	220909	239.45	12.271055	-56.989820	239.27	0.110	-0.540	-0.390	239.37	-2.00	-0.10	 	 	 	 	 	 	 	 	 	 	 	 	 	 	 	 	 	 	1581545349	8.33	15.43
12/02/2020 22:09:10	120220	12022020	220910	239.05	12.271038	-56.989855	238.87	0.300	-0.790	-0.280	238.97	-2.20	0.10	 	 	 	 	 	 	 	 	 	 	 	 	 	 	 	 	 	 	1581545350	8.23	15.24
12/02/2020 22:09:11	120220	12022020	220911	238.66	12.271025	-56.989890	238.50	0.370	-0.670	-0.180	238.58	-2.00	0.20	 	 	 	 	 	 	 	 	 	 	 	 	 	 	 	 	 	 	1581545351	7.91	14.65
12/02/2020 22:09:12	120220	12022020	220912	238.17	12.271010	-56.989923	237.97	0.350	-0.380	0.070	238.04	-1.70	0.50	 	 	 	 	 	 	 	 	 	 	 	 	 	 	 	 	 	 	1581545352	7.69	14.24
12/02/2020 22:09:13	120220	12022020	220913	237.41	12.270995	-56.989957	237.19	0.230	-0.180	0.590	237.23	-1.50	1.00	 	 	 	 	 	 	 	 	 	 	 	 	 	 	 	 	 	 	1581545353	7.81	14.46
12/02/2020 22:09:14	120220	12022020	220914	236.46	12.270980	-56.989992	236.22	0.060	-0.230	1.260	236.25	-1.60	1.70	 	 	 	 	 	 	 	 	 	 	 	 	 	 	 	 	 	 	1581545354	8.12	15.04
12/02/2020 22:09:15	120220	12022020	220915	235.40	12.270963	-56.990028	235.18	-0.060	-0.430	1.920	235.19	-1.80	2.30	 	 	 	 	 	 	 	 	 	 	 	 	 	 	 	 	 	 	1581545355	8.44	15.63
12/02/2020 22:09:16	120220	12022020	220916	234.42	12.270947	-56.990065	234.26	-0.090	-0.530	2.370	234.25	-1.90	2.70	 	 	 	 	 	 	 	 	 	 	 	 	 	 	 	 	 	 	1581545356	8.50	15.74
12/02/2020 22:09:17	120220	12022020	220917	233.66	12.270930	-56.990100	233.56	-0.110	-0.460	2.510	233.53	-1.80	2.80	 	 	 	 	 	 	 	 	 	 	 	 	 	 	 	 	 	 	1581545357	8.33	15.43
12/02/2020 22:09:18	120220	12022020	220918	233.07	12.270912	-56.990133	233.03	-0.180	-0.290	2.540	232.98	-1.60	2.90	 	 	 	 	 	 	 	 	 	 	 	 	 	 	 	 	 	 	1581545358	8.20	15.19
12/02/2020 22:09:19	120220	12022020	220919	232.59	12.270895	-56.990168	232.59	-0.280	-0.080	2.640	232.52	-1.40	3.00	 	 	 	 	 	 	 	 	 	 	 	 	 	 	 	 	 	 	1581545359	8.17	15.13
12/02/2020 22:09:20	120220	12022020	220920	232.23	12.270877	-56.990202	232.27	-0.280	0.180	2.840	232.17	-1.20	3.20	 	 	 	 	 	 	 	 	 	 	 	 	 	 	 	 	 	 	1581545360	8.13	15.06
12/02/2020 22:09:21	120220	12022020	220921	232.01	12.270860	-56.990235	232.07	-0.120	0.380	3.000	231.97	-1.00	3.30	 	 	 	 	 	 	 	 	 	 	 	 	 	 	 	 	 	 	1581545361	8.00	14.82
12/02/2020 22:09:22	120220	12022020	220922	231.86	12.270840	-56.990268	231.94	0.140	0.310	3.000	231.84	-1.10	3.30	 	 	 	 	 	 	 	 	 	 	 	 	 	 	 	 	 	 	1581545362	8.01	14.83
12/02/2020 22:09:23	120220	12022020	220923	231.75	12.270818	-56.990300	231.84	0.320	-0.050	2.810	231.74	-1.50	3.10	 	 	 	 	 	 	 	 	 	 	 	 	 	 	 	 	 	 	1581545363	8.14	15.08
12/02/2020 22:09:24	120220	12022020	220924	231.75	12.270798	-56.990332	231.87	0.380	-0.510	2.420	231.77	-1.90	2.70	 	 	 	 	 	 	 	 	 	 	 	 	 	 	 	 	 	 	1581545364	8.13	15.06
12/02/2020 22:09:25	120220	12022020	220925	231.87	12.270777	-56.990363	232.02	0.390	-0.880	1.990	231.91	-2.30	2.30	 	 	 	 	 	 	 	 	 	 	 	 	 	 	 	 	 	 	1581545365	8.01	14.83
12/02/2020 22:09:26	120220	12022020	220926	232.09	12.270755	-56.990393	232.24	0.370	-0.970	1.730	232.15	-2.30	2.10	 	 	 	 	 	 	 	 	 	 	 	 	 	 	 	 	 	 	1581545366	7.85	14.54
12/02/2020 22:09:27	120220	12022020	220927	232.35	12.270735	-56.990423	232.50	0.240	-0.840	1.720	232.40	-2.20	2.10	 	 	 	 	 	 	 	 	 	 	 	 	 	 	 	 	 	 	1581545367	7.76	14.37
12/02/2020 22:09:28	120220	12022020	220928	232.59	12.270715	-56.990455	232.77	-0.050	-0.580	1.880	232.59	-1.90	2.30	 	 	 	 	 	 	 	 	 	 	 	 	 	 	 	 	 	 	1581545368	7.77	14.39
12/02/2020 22:09:29	120220	12022020	220929	232.99	12.270697	-56.990487	233.25	-0.380	-0.250	2.000	233.10	-1.60	2.40	 	 	 	 	 	 	 	 	 	 	 	 	 	 	 	 	 	 	1581545369	7.83	14.50
12/02/2020 22:09:30	120220	12022020	220930	233.61	12.270678	-56.990518	233.89	-0.570	0.010	1.970	233.61	-1.30	2.30	 	 	 	 	 	 	 	 	 	 	 	 	 	 	 	 	 	 	1581545370	7.91	14.65
12/02/2020 22:09:31	120220	12022020	220931	234.27	12.270658	-56.990550	234.52	-0.460	0.120	1.830	234.38	-1.20	2.20	 	 	 	 	 	 	 	 	 	 	 	 	 	 	 	 	 	 	1581545371	8.05	14.91
12/02/2020 22:09:32	120220	12022020	220932	234.89	12.270637	-56.990583	235.13	-0.150	0.130	1.500	235.01	-1.20	1.80	 	 	 	 	 	 	 	 	 	 	 	 	 	 	 	 	 	 	1581545372	8.15	15.09
12/02/2020 22:09:33	120220	12022020	220933	235.54	12.270615	-56.990613	235.76	0.110	0.080	1.050	235.67	-1.30	1.40	 	 	 	 	 	 	 	 	 	 	 	 	 	 	 	 	 	 	1581545373	8.09	14.98
12/02/2020 22:09:34	120220	12022020	220934	236.13	12.270593	-56.990645	236.30	0.160	-0.100	0.690	236.23	-1.50	1.00	 	 	 	 	 	 	 	 	 	 	 	 	 	 	 	 	 	 	1581545374	8.07	14.95
12/02/2020 22:09:35	120220	12022020	220935	236.61	12.270572	-56.990677	236.76	0.080	-0.310	0.410	236.70	-1.70	0.70	 	 	 	 	 	 	 	 	 	 	 	 	 	 	 	 	 	 	1581545375	8.11	15.02
12/02/2020 22:09:36	120220	12022020	220936	236.98	12.270553	-56.990708	237.09	0.050	-0.260	0.190	237.03	-1.60	0.50	 	 	 	 	 	 	 	 	 	 	 	 	 	 	 	 	 	 	1581545376	7.91	14.65
12/02/2020 22:09:37	120220	12022020	220937	237.19	12.270535	-56.990740	237.28	0.090	-0.080	-0.010	237.22	-1.40	0.30	 	 	 	 	 	 	 	 	 	 	 	 	 	 	 	 	 	 	1581545377	7.67	14.20
12/02/2020 22:09:38	120220	12022020	220938	237.37	12.270515	-56.990772	237.47	0.100	-0.160	-0.230	237.41	-1.60	0.10	 	 	 	 	 	 	 	 	 	 	 	 	 	 	 	 	 	 	1581545378	7.86	14.56
12/02/2020 22:09:39	120220	12022020	220939	237.56	12.270497	-56.990805	237.65	0.040	-0.490	-0.410	237.60	-1.90	-0.10	 	 	 	 	 	 	 	 	 	 	 	 	 	 	 	 	 	 	1581545379	8.22	15.22
12/02/2020 22:09:40	120220	12022020	220940	237.72	12.270477	-56.990838	237.78	-0.080	-0.690	-0.460	237.73	-2.10	-0.10	 	 	 	 	 	 	 	 	 	 	 	 	 	 	 	 	 	 	1581545380	8.29	15.35
12/02/2020 22:09:41	120220	12022020	220941	237.81	12.270460	-56.990872	237.87	-0.210	-0.580	-0.560	237.82	-1.90	-0.20	 	 	 	 	 	 	 	 	 	 	 	 	 	 	 	 	 	 	1581545381	8.04	14.89
12/02/2020 22:09:42	120220	12022020	220942	237.90	12.270440	-56.990903	237.95	-0.250	-0.360	-0.770	237.91	-1.70	-0.40	 	 	 	 	 	 	 	 	 	 	 	 	 	 	 	 	 	 	1581545382	7.82	14.48
12/02/2020 22:09:43	120220	12022020	220943	237.82	12.270422	-56.990937	237.80	-0.150	-0.370	-0.620	237.76	-1.70	-0.20	 	 	 	 	 	 	 	 	 	 	 	 	 	 	 	 	 	 	1581545383	8.00	14.82
12/02/2020 22:09:44	120220	12022020	220944	237.28	12.270403	-56.990972	237.16	0.040	-0.580	0.130	237.12	-2.00	0.60	 	 	 	 	 	 	 	 	 	 	 	 	 	 	 	 	 	 	1581545384	8.40	15.56
12/02/2020 22:09:45	120220	12022020	220945	236.30	12.270388	-56.991010	236.13	0.140	-0.640	1.150	236.07	-2.00	1.70	 	 	 	 	 	 	 	 	 	 	 	 	 	 	 	 	 	 	1581545385	8.61	15.95
12/02/2020 22:09:46	120220	12022020	220946	235.19	12.270375	-56.991047	235.06	0.020	-0.310	2.000	234.98	-1.60	2.40	 	 	 	 	 	 	 	 	 	 	 	 	 	 	 	 	 	 	1581545386	8.42	15.59
12/02/2020 22:09:47	120220	12022020	220947	234.32	12.270360	-56.991082	234.27	-0.190	0.170	2.230	234.19	-1.10	2.60	 	 	 	 	 	 	 	 	 	 	 	 	 	 	 	 	 	 	1581545387	8.08	14.96
12/02/2020 22:09:48	120220	12022020	220948	233.81	12.270343	-56.991115	233.82	-0.310	0.380	1.850	233.75	-1.00	2.10	 	 	 	 	 	 	 	 	 	 	 	 	 	 	 	 	 	 	1581545388	7.99	14.80
12/02/2020 22:09:49	120220	12022020	220949	233.58	12.270322	-56.991148	233.62	-0.250	0.160	1.160	233.54	-1.20	1.40	 	 	 	 	 	 	 	 	 	 	 	 	 	 	 	 	 	 	1581545389	8.30	15.37
12/02/2020 22:09:50	120220	12022020	220950	233.46	12.270300	-56.991182	233.51	-0.080	-0.190	0.630	233.44	-1.60	1.00	 	 	 	 	 	 	 	 	 	 	 	 	 	 	 	 	 	 	1581545390	8.51	15.76
12/02/2020 22:09:51	120220	12022020	220951	233.38	12.270278	-56.991215	233.42	0.060	-0.310	0.590	233.36	-1.70	1.00	 	 	 	 	 	 	 	 	 	 	 	 	 	 	 	 	 	 	1581545391	8.31	15.39
12/02/2020 22:09:52	120220	12022020	220952	233.22	12.270260	-56.991247	233.24	0.130	-0.150	1.060	233.18	-1.50	1.50	 	 	 	 	 	 	 	 	 	 	 	 	 	 	 	 	 	 	1581545392	7.98	14.78
12/02/2020 22:09:53	120220	12022020	220953	232.93	12.270243	-56.991280	232.95	0.180	-0.000	1.820	232.86	-1.40	2.30	 	 	 	 	 	 	 	 	 	 	 	 	 	 	 	 	 	 	1581545393	7.87	14.58
12/02/2020 22:09:54	120220	12022020	220954	232.52	12.270227	-56.991315	232.55	0.260	-0.150	2.530	232.52	-1.50	3.00	 	 	 	 	 	 	 	 	 	 	 	 	 	 	 	 	 	 	1581545394	8.05	14.91
12/02/2020 22:09:55	120220	12022020	220955	232.09	12.270208	-56.991348	232.16	0.290	-0.570	2.870	232.02	-2.00	3.30	 	 	 	 	 	 	 	 	 	 	 	 	 	 	 	 	 	 	1581545395	8.28	15.33
12/02/2020 22:09:56	120220	12022020	220956	231.74	12.270188	-56.991383	231.83	0.250	-1.080	2.860	231.69	-2.50	3.20	 	 	 	 	 	 	 	 	 	 	 	 	 	 	 	 	 	 	1581545396	8.48	15.70
12/02/2020 22:09:57	120220	12022020	220957	231.54	12.270167	-56.991417	231.67	0.210	-1.210	2.610	231.53	-2.50	2.90	 	 	 	 	 	 	 	 	 	 	 	 	 	 	 	 	 	 	1581545397	8.36	15.48
12/02/2020 22:09:58	120220	12022020	220958	231.50	12.270145	-56.991448	231.63	0.170	-0.840	2.310	231.50	-2.10	2.70	 	 	 	 	 	 	 	 	 	 	 	 	 	 	 	 	 	 	1581545398	8.00	14.82
12/02/2020 22:09:59	120220	12022020	220959	231.59	12.270125	-56.991478	231.76	0.040	-0.230	2.070	231.64	-1.50	2.40	 	 	 	 	 	 	 	 	 	 	 	 	 	 	 	 	 	 	1581545399	7.85	14.54
12/02/2020 22:10:00	120220	12022020	221000	231.88	12.270103	-56.991508	232.09	-0.170	0.270	1.930	231.96	-1.00	2.30	 	 	 	 	 	 	 	 	 	 	 	 	 	 	 	 	 	 	1581545400	7.94	14.70
12/02/2020 22:10:01	120220	12022020	221001	232.35	12.270083	-56.991542	232.59	-0.360	0.470	1.740	232.46	-0.90	2.10	 	 	 	 	 	 	 	 	 	 	 	 	 	 	 	 	 	 	1581545401	8.18	15.15
12/02/2020 22:10:02	120220	12022020	221002	232.92	12.270062	-56.991573	233.14	-0.390	0.390	1.490	233.03	-1.00	1.80	1014.90	26.40	27.00	20.70	21.00	-1.0	71.0	69.0	389.0	25.8	210.00	6.00	73.00	9.90	34	11797.0	27.4	27.4	1581545402	8.35	15.46
12/02/2020 22:10:03	120220	12022020	221003	233.43	12.270040	-56.991607	233.62	-0.250	0.080	1.170	233.51	-1.30	1.50	 	 	 	 	 	 	 	 	 	 	 	 	 	 	 	 	 	 	1581545403	8.47	15.69
12/02/2020 22:10:04	120220	12022020	221004	233.74	12.270017	-56.991640	233.85	0.010	-0.330	0.880	233.76	-1.70	1.20	 	 	 	 	 	 	 	 	 	 	 	 	 	 	 	 	 	 	1581545404	8.55	15.83
12/02/2020 22:10:05	120220	12022020	221005	233.76	12.269993	-56.991673	233.82	0.220	-0.550	0.700	233.74	-1.90	1.10	 	 	 	 	 	 	 	 	 	 	 	 	 	 	 	 	 	 	1581545405	8.44	15.63
12/02/2020 22:10:06	120220	12022020	221006	233.67	12.269972	-56.991703	233.73	0.230	-0.420	0.530	233.67	-1.70	0.90	 	 	 	 	 	 	 	 	 	 	 	 	 	 	 	 	 	 	1581545406	8.05	14.91
12/02/2020 22:10:07	120220	12022020	221007	233.64	12.269952	-56.991735	233.68	0.130	-0.260	0.350	233.63	-1.60	0.70	 	 	 	 	 	 	 	 	 	 	 	 	 	 	 	 	 	 	1581545407	7.84	14.52
12/02/2020 22:10:08	120220	12022020	221008	233.59	12.269932	-56.991767	233.62	0.080	-0.330	0.290	233.58	-1.70	0.70	 	 	 	 	 	 	 	 	 	 	 	 	 	 	 	 	 	 	1581545408	8.14	15.08
12/02/2020 22:10:09	120220	12022020	221009	233.53	12.269910	-56.991800	233.57	0.130	-0.460	0.280	233.53	-1.80	0.70	 	 	 	 	 	 	 	 	 	 	 	 	 	 	 	 	 	 	1581545409	8.40	15.56
12/02/2020 22:10:10	120220	12022020	221010	233.50	12.269890	-56.991833	233.54	0.150	-0.490	0.420	233.49	-1.80	0.80	 	 	 	 	 	 	 	 	 	 	 	 	 	 	 	 	 	 	1581545410	8.39	15.54
12/02/2020 22:10:11	120220	12022020	221011	233.48	12.269870	-56.991868	233.51	0.060	-0.480	0.720	233.48	-1.80	1.10	 	 	 	 	 	 	 	 	 	 	 	 	 	 	 	 	 	 	1581545411	8.43	15.61
12/02/2020 22:10:12	120220	12022020	221012	233.48	12.269852	-56.991903	233.54	-0.100	-0.400	0.980	233.49	-1.70	1.40	 	 	 	 	 	 	 	 	 	 	 	 	 	 	 	 	 	 	1581545412	8.49	15.72
12/02/2020 22:10:13	120220	12022020	221013	233.48	12.269832	-56.991938	233.52	-0.180	-0.300	1.110	233.47	-1.60	1.50	 	 	 	 	 	 	 	 	 	 	 	 	 	 	 	 	 	 	1581545413	8.46	15.67
12/02/2020 22:10:14	120220	12022020	221014	233.38	12.269812	-56.991973	233.40	-0.090	-0.230	1.210	233.35	-1.60	1.60	 	 	 	 	 	 	 	 	 	 	 	 	 	 	 	 	 	 	1581545414	8.51	15.76
12/02/2020 22:10:15	120220	12022020	221015	233.15	12.269790	-56.992007	233.16	0.010	-0.150	1.330	233.10	-1.50	1.70	 	 	 	 	 	 	 	 	 	 	 	 	 	 	 	 	 	 	1581545415	8.57	15.87
12/02/2020 22:10:16	120220	12022020	221016	232.96	12.269768	-56.992042	233.02	-0.040	-0.010	1.260	232.94	-1.30	1.60	 	 	 	 	 	 	 	 	 	 	 	 	 	 	 	 	 	 	1581545416	8.49	15.72
12/02/2020 22:10:17	120220	12022020	221017	232.98	12.269747	-56.992075	233.06	-0.160	0.070	1.030	233.00	-1.30	1.40	 	 	 	 	 	 	 	 	 	 	 	 	 	 	 	 	 	 	1581545417	8.41	15.58
12/02/2020 22:10:18	120220	12022020	221018	233.09	12.269725	-56.992108	233.15	-0.150	-0.070	0.900	233.09	-1.50	1.30	 	 	 	 	 	 	 	 	 	 	 	 	 	 	 	 	 	 	1581545418	8.56	15.85
12/02/2020 22:10:19	120220	12022020	221019	233.07	12.269703	-56.992143	233.11	0.020	-0.310	1.100	233.05	-1.70	1.50	 	 	 	 	 	 	 	 	 	 	 	 	 	 	 	 	 	 	1581545419	8.73	16.17
12/02/2020 22:10:20	120220	12022020	221020	232.88	12.269683	-56.992178	232.90	0.150	-0.380	1.580	232.88	-1.70	2.00	 	 	 	 	 	 	 	 	 	 	 	 	 	 	 	 	 	 	1581545420	8.62	15.96
12/02/2020 22:10:21	120220	12022020	221021	232.57	12.269663	-56.992213	232.61	0.110	-0.320	2.010	232.51	-1.70	2.40	 	 	 	 	 	 	 	 	 	 	 	 	 	 	 	 	 	 	1581545421	8.44	15.63
12/02/2020 22:10:22	120220	12022020	221022	232.27	12.269643	-56.992248	232.31	0.020	-0.460	2.160	232.22	-1.90	2.50	 	 	 	 	 	 	 	 	 	 	 	 	 	 	 	 	 	 	1581545422	8.55	15.83
12/02/2020 22:10:23	120220	12022020	221023	232.11	12.269623	-56.992283	232.21	-0.010	-0.780	1.910	232.12	-2.20	2.20	 	 	 	 	 	 	 	 	 	 	 	 	 	 	 	 	 	 	1581545423	8.83	16.35
12/02/2020 22:10:24	120220	12022020	221024	232.28	12.269598	-56.992318	232.45	0.040	-0.900	1.230	232.35	-2.20	1.50	 	 	 	 	 	 	 	 	 	 	 	 	 	 	 	 	 	 	1581545424	8.81	16.32
12/02/2020 22:10:25	120220	12022020	221025	232.68	12.269575	-56.992350	232.85	0.100	-0.640	0.570	232.76	-1.90	0.90	 	 	 	 	 	 	 	 	 	 	 	 	 	 	 	 	 	 	1581545425	8.57	15.87
12/02/2020 22:10:26	120220	12022020	221026	233.05	12.269552	-56.992382	233.21	0.080	-0.120	0.410	233.12	-1.40	0.80	 	 	 	 	 	 	 	 	 	 	 	 	 	 	 	 	 	 	1581545426	8.39	15.54
12/02/2020 22:10:27	120220	12022020	221027	233.33	12.269530	-56.992413	233.45	-0.050	0.430	0.630	233.37	-0.90	1.10	 	 	 	 	 	 	 	 	 	 	 	 	 	 	 	 	 	 	1581545427	8.34	15.45
12/02/2020 22:10:28	120220	12022020	221028	233.44	12.269508	-56.992448	233.54	-0.200	0.680	1.100	233.44	-0.70	1.50	 	 	 	 	 	 	 	 	 	 	 	 	 	 	 	 	 	 	1581545428	8.51	15.76
12/02/2020 22:10:29	120220	12022020	221029	233.42	12.269488	-56.992483	233.51	-0.160	0.540	1.460	233.41	-0.90	1.90	 	 	 	 	 	 	 	 	 	 	 	 	 	 	 	 	 	 	1581545429	8.77	16.24
12/02/2020 22:10:30	120220	12022020	221030	233.37	12.269467	-56.992520	233.46	0.080	0.020	1.490	233.36	-1.40	1.90	 	 	 	 	 	 	 	 	 	 	 	 	 	 	 	 	 	 	1581545430	8.96	16.59
12/02/2020 22:10:31	120220	12022020	221031	233.41	12.269442	-56.992555	233.52	0.320	-0.730	1.290	233.42	-2.20	1.60	 	 	 	 	 	 	 	 	 	 	 	 	 	 	 	 	 	 	1581545431	9.14	16.93
12/02/2020 22:10:32	120220	12022020	221032	233.53	12.269418	-56.992590	233.63	0.340	-1.340	0.980	233.55	-2.70	1.30	 	 	 	 	 	 	 	 	 	 	 	 	 	 	 	 	 	 	1581545432	9.09	16.83
12/02/2020 22:10:33	120220	12022020	221033	233.60	12.269395	-56.992625	233.65	0.120	-1.400	0.720	233.60	-2.70	1.10	 	 	 	 	 	 	 	 	 	 	 	 	 	 	 	 	 	 	1581545433	8.75	16.21
12/02/2020 22:10:34	120220	12022020	221034	233.47	12.269373	-56.992658	233.49	-0.160	-0.930	0.780	233.43	-2.20	1.20	 	 	 	 	 	 	 	 	 	 	 	 	 	 	 	 	 	 	1581545434	8.40	15.56
12/02/2020 22:10:35	120220	12022020	221035	233.27	12.269353	-56.992692	233.30	-0.330	-0.200	0.950	233.26	-1.40	1.30	 	 	 	 	 	 	 	 	 	 	 	 	 	 	 	 	 	 	1581545435	8.26	15.30
12/02/2020 22:10:36	120220	12022020	221036	233.25	12.269333	-56.992727	233.32	-0.290	0.250	0.940	233.26	-1.10	1.30	 	 	 	 	 	 	 	 	 	 	 	 	 	 	 	 	 	 	1581545436	8.51	15.76
12/02/2020 22:10:37	120220	12022020	221037	233.37	12.269312	-56.992763	233.47	-0.070	0.150	0.800	233.40	-1.20	1.20	 	 	 	 	 	 	 	 	 	 	 	 	 	 	 	 	 	 	1581545437	9.12	16.89
12/02/2020 22:10:38	120220	12022020	221038	233.52	12.269288	-56.992800	233.61	0.110	-0.110	0.690	233.55	-1.50	1.10	 	 	 	 	 	 	 	 	 	 	 	 	 	 	 	 	 	 	1581545438	9.46	17.52
12/02/2020 22:10:39	120220	12022020	221039	233.68	12.269265	-56.992837	233.76	0.100	-0.090	0.680	233.71	-1.40	1.10	 	 	 	 	 	 	 	 	 	 	 	 	 	 	 	 	 	 	1581545439	9.19	17.02
12/02/2020 22:10:40	120220	12022020	221040	233.84	12.269243	-56.992872	233.92	-0.070	0.200	0.780	233.86	-1.10	1.20	 	 	 	 	 	 	 	 	 	 	 	 	 	 	 	 	 	 	1581545440	8.69	16.09
12/02/2020 22:10:41	120220	12022020	221041	233.82	12.269222	-56.992907	233.86	-0.200	0.270	1.010	233.79	-1.10	1.40	 	 	 	 	 	 	 	 	 	 	 	 	 	 	 	 	 	 	1581545441	8.58	15.89
12/02/2020 22:10:42	120220	12022020	221042	233.54	12.269198	-56.992942	233.54	-0.160	-0.130	1.270	233.47	-1.60	1.70	 	 	 	 	 	 	 	 	 	 	 	 	 	 	 	 	 	 	1581545442	9.04	16.74
12/02/2020 22:10:43	120220	12022020	221043	233.20	12.269177	-56.992980	233.24	-0.050	-0.540	1.390	233.15	-1.90	1.80	 	 	 	 	 	 	 	 	 	 	 	 	 	 	 	 	 	 	1581545443	9.25	17.13
12/02/2020 22:10:44	120220	12022020	221044	233.14	12.269155	-56.993015	233.26	0.040	-0.460	1.190	233.18	-1.80	1.50	 	 	 	 	 	 	 	 	 	 	 	 	 	 	 	 	 	 	1581545444	8.77	16.24
12/02/2020 22:10:45	120220	12022020	221045	233.42	12.269133	-56.993047	233.55	0.160	-0.180	0.760	233.48	-1.50	1.10	 	 	 	 	 	 	 	 	 	 	 	 	 	 	 	 	 	 	1581545445	8.25	15.28
12/02/2020 22:10:46	120220	12022020	221046	233.63	12.269110	-56.993080	233.70	0.360	-0.390	0.570	233.64	-1.80	1.00	 	 	 	 	 	 	 	 	 	 	 	 	 	 	 	 	 	 	1581545446	8.59	15.91
12/02/2020 22:10:47	120220	12022020	221047	233.57	12.269087	-56.993117	233.58	0.520	-1.030	0.900	233.53	-2.50	1.40	 	 	 	 	 	 	 	 	 	 	 	 	 	 	 	 	 	 	1581545447	9.35	17.32
12/02/2020 22:10:48	120220	12022020	221048	233.29	12.269063	-56.993157	233.29	0.440	-1.540	1.530	233.21	-2.90	2.00	 	 	 	 	 	 	 	 	 	 	 	 	 	 	 	 	 	 	1581545448	9.65	17.87
12/02/2020 22:10:49	120220	12022020	221049	232.88	12.269043	-56.993197	232.89	0.110	-1.500	2.120	232.79	-2.80	2.60	 	 	 	 	 	 	 	 	 	 	 	 	 	 	 	 	 	 	1581545449	9.52	17.63
12/02/2020 22:10:50	120220	12022020	221050	232.42	12.269023	-56.993235	232.46	-0.300	-0.900	2.430	232.35	-2.10	2.80	 	 	 	 	 	 	 	 	 	 	 	 	 	 	 	 	 	 	1581545450	9.24	17.11
12/02/2020 22:10:51	120220	12022020	221051	232.14	12.269002	-56.993272	232.24	-0.630	0.080	2.350	232.13	-1.10	2.70	 	 	 	 	 	 	 	 	 	 	 	 	 	 	 	 	 	 	1581545451	8.96	16.59
12/02/2020 22:10:52	120220	12022020	221052	232.23	12.268980	-56.993307	232.40	-0.830	1.090	1.940	232.29	-0.10	2.20	 	 	 	 	 	 	 	 	 	 	 	 	 	 	 	 	 	 	1581545452	8.78	16.26
12/02/2020 22:10:53	120220	12022020	221053	232.68	12.268957	-56.993340	232.90	-0.850	1.760	1.310	232.79	0.40	1.60	 	 	 	 	 	 	 	 	 	 	 	 	 	 	 	 	 	 	1581545453	8.74	16.19
12/02/2020 22:10:54	120220	12022020	221054	233.27	12.268932	-56.993373	233.48	-0.590	1.760	0.700	233.39	0.30	1.00	 	 	 	 	 	 	 	 	 	 	 	 	 	 	 	 	 	 	1581545454	8.81	16.32
12/02/2020 22:10:55	120220	12022020	221055	233.71	12.268907	-56.993408	233.84	0.060	0.860	0.360	233.76	-0.70	0.70	 	 	 	 	 	 	 	 	 	 	 	 	 	 	 	 	 	 	1581545455	9.17	16.98
12/02/2020 22:10:56	120220	12022020	221056	233.83	12.268880	-56.993445	233.88	0.940	-0.670	0.360	233.83	-2.20	0.80	 	 	 	 	 	 	 	 	 	 	 	 	 	 	 	 	 	 	1581545456	9.66	17.89
12/02/2020 22:10:57	120220	12022020	221057	233.74	12.268855	-56.993482	233.79	1.470	-1.930	0.590	233.72	-3.40	1.00	 	 	 	 	 	 	 	 	 	 	 	 	 	 	 	 	 	 	1581545457	9.65	17.87
12/02/2020 22:10:58	120220	12022020	221058	233.61	12.268832	-56.993518	233.68	1.230	-2.220	0.890	233.59	-3.50	1.30	 	 	 	 	 	 	 	 	 	 	 	 	 	 	 	 	 	 	1581545458	8.94	16.56
12/02/2020 22:10:59	120220	12022020	221059	233.55	12.268812	-56.993552	233.64	0.410	-1.760	1.110	233.55	-3.00	1.50	 	 	 	 	 	 	 	 	 	 	 	 	 	 	 	 	 	 	1581545459	8.38	15.52
12/02/2020 22:11:00	120220	12022020	221100	233.61	12.268792	-56.993587	233.72	-0.410	-1.060	1.180	233.63	-2.30	1.60	 	 	 	 	 	 	 	 	 	 	 	 	 	 	 	 	 	 	1581545460	8.50	15.74
12/02/2020 22:11:01	120220	12022020	221101	233.62	12.268772	-56.993623	233.68	-0.790	-0.440	1.330	233.60	-1.70	1.70	 	 	 	 	 	 	 	 	 	 	 	 	 	 	 	 	 	 	1581545461	8.96	16.59
12/02/2020 22:11:02	120220	12022020	221102	233.49	12.268750	-56.993662	233.56	-0.760	0.040	1.500	233.46	-1.20	1.90	1015.00	26.30	26.50	20.80	20.80	-1.0	71.0	71.0	389.0	25.8	216.00	6.10	74.00	10.10	30	11147.0	27.4	27.4	1581545462	9.37	17.35
12/02/2020 22:11:03	120220	12022020	221103	233.33	12.268727	-56.993700	233.40	-0.570	0.400	1.400	233.30	-0.90	1.70	 	 	 	 	 	 	 	 	 	 	 	 	 	 	 	 	 	 	1581545463	9.53	17.65
12/02/2020 22:11:04	120220	12022020	221104	233.14	12.268702	-56.993737	233.20	-0.390	0.690	1.060	233.09	-0.60	1.40	 	 	 	 	 	 	 	 	 	 	 	 	 	 	 	 	 	 	1581545464	9.44	17.48
12/02/2020 22:11:05	120220	12022020	221105	232.89	12.268677	-56.993773	232.93	-0.180	0.790	0.750	232.84	-0.60	1.10	 	 	 	 	 	 	 	 	 	 	 	 	 	 	 	 	 	 	1581545465	9.31	17.24
12/02/2020 22:11:06	120220	12022020	221106	232.71	12.268652	-56.993808	232.78	0.050	0.620	0.610	232.70	-0.80	1.00	 	 	 	 	 	 	 	 	 	 	 	 	 	 	 	 	 	 	1581545466	9.30	17.22
12/02/2020 22:11:07	120220	12022020	221107	232.80	12.268628	-56.993845	232.95	0.190	0.240	0.590	232.86	-1.20	1.00	 	 	 	 	 	 	 	 	 	 	 	 	 	 	 	 	 	 	1581545467	9.25	17.13
12/02/2020 22:11:08	120220	12022020	221108	233.21	12.268607	-56.993883	233.38	0.230	-0.300	0.790	233.21	-1.70	1.20	 	 	 	 	 	 	 	 	 	 	 	 	 	 	 	 	 	 	1581545468	9.22	17.08
12/02/2020 22:11:09	120220	12022020	221109	233.74	12.268587	-56.993922	233.95	0.280	-0.820	1.050	233.85	-2.20	1.40	 	 	 	 	 	 	 	 	 	 	 	 	 	 	 	 	 	 	1581545469	9.21	17.06
12/02/2020 22:11:10	120220	12022020	221110	234.30	12.268567	-56.993958	234.51	0.380	-0.990	1.060	234.30	-2.30	1.40	 	 	 	 	 	 	 	 	 	 	 	 	 	 	 	 	 	 	1581545470	8.94	16.56
12/02/2020 22:11:11	120220	12022020	221111	234.81	12.268543	-56.993992	234.99	0.450	-0.840	0.820	234.89	-2.10	1.20	 	 	 	 	 	 	 	 	 	 	 	 	 	 	 	 	 	 	1581545471	8.64	16.00
12/02/2020 22:11:12	120220	12022020	221112	235.08	12.268518	-56.994025	235.19	0.420	-0.680	0.660	235.09	-2.00	1.00	 	 	 	 	 	 	 	 	 	 	 	 	 	 	 	 	 	 	1581545472	8.73	16.17
12/02/2020 22:11:13	120220	12022020	221113	234.93	12.268493	-56.994060	234.95	0.260	-0.700	0.860	234.85	-2.10	1.30	 	 	 	 	 	 	 	 	 	 	 	 	 	 	 	 	 	 	1581545473	9.16	16.96
12/02/2020 22:11:14	120220	12022020	221114	234.39	12.268470	-56.994097	234.35	0.050	-0.740	1.350	234.25	-2.10	1.80	 	 	 	 	 	 	 	 	 	 	 	 	 	 	 	 	 	 	1581545474	9.50	17.59
12/02/2020 22:11:15	120220	12022020	221115	233.64	12.268447	-56.994135	233.60	-0.190	-0.510	1.810	233.48	-1.80	2.30	 	 	 	 	 	 	 	 	 	 	 	 	 	 	 	 	 	 	1581545475	9.46	17.52
12/02/2020 22:11:16	120220	12022020	221116	232.92	12.268425	-56.994173	232.91	-0.420	-0.120	2.090	232.80	-1.40	2.50	 	 	 	 	 	 	 	 	 	 	 	 	 	 	 	 	 	 	1581545476	9.34	17.30
12/02/2020 22:11:17	120220	12022020	221117	232.40	12.268405	-56.994213	232.43	-0.540	0.170	2.110	232.31	-1.10	2.50	 	 	 	 	 	 	 	 	 	 	 	 	 	 	 	 	 	 	1581545477	9.39	17.39
12/02/2020 22:11:18	120220	12022020	221118	232.10	12.268385	-56.994253	232.20	-0.460	0.230	1.890	232.09	-1.10	2.20	 	 	 	 	 	 	 	 	 	 	 	 	 	 	 	 	 	 	1581545478	9.53	17.65
12/02/2020 22:11:19	120220	12022020	221119	232.21	12.268362	-56.994292	232.39	-0.220	0.180	1.340	232.29	-1.20	1.60	 	 	 	 	 	 	 	 	 	 	 	 	 	 	 	 	 	 	1581545479	9.49	17.58
12/02/2020 22:11:20	120220	12022020	221120	232.76	12.268338	-56.994328	232.99	0.120	0.100	0.520	232.91	-1.30	0.80	 	 	 	 	 	 	 	 	 	 	 	 	 	 	 	 	 	 	1581545480	9.28	17.19
12/02/2020 22:11:21	120220	12022020	221121	233.54	12.268312	-56.994363	233.77	0.430	-0.050	-0.250	233.70	-1.40	0.10	 	 	 	 	 	 	 	 	 	 	 	 	 	 	 	 	 	 	1581545481	9.17	16.98
12/02/2020 22:11:22	120220	12022020	221122	234.28	12.268285	-56.994397	234.45	0.570	-0.290	-0.570	234.41	-1.70	-0.20	 	 	 	 	 	 	 	 	 	 	 	 	 	 	 	 	 	 	1581545482	9.16	16.96
12/02/2020 22:11:23	120220	12022020	221123	234.82	12.268260	-56.994432	234.92	0.460	-0.610	-0.380	234.89	-2.00	0.10	 	 	 	 	 	 	 	 	 	 	 	 	 	 	 	 	 	 	1581545483	9.20	17.04
12/02/2020 22:11:24	120220	12022020	221124	234.99	12.268237	-56.994468	235.01	0.230	-0.940	0.260	234.97	-2.30	0.80	 	 	 	 	 	 	 	 	 	 	 	 	 	 	 	 	 	 	1581545484	9.34	17.30
12/02/2020 22:11:25	120220	12022020	221125	234.78	12.268213	-56.994507	234.77	0.040	-0.960	1.150	234.71	-2.30	1.60	 	 	 	 	 	 	 	 	 	 	 	 	 	 	 	 	 	 	1581545485	9.39	17.39
12/02/2020 22:11:26	120220	12022020	221126	234.43	12.268195	-56.994545	234.43	-0.110	-0.510	1.910	234.36	-1.80	2.40	 	 	 	 	 	 	 	 	 	 	 	 	 	 	 	 	 	 	1581545486	9.12	16.89
12/02/2020 22:11:27	120220	12022020	221127	234.06	12.268175	-56.994582	234.07	-0.200	0.040	2.280	233.99	-1.20	2.70	 	 	 	 	 	 	 	 	 	 	 	 	 	 	 	 	 	 	1581545487	8.96	16.59
12/02/2020 22:11:28	120220	12022020	221128	233.76	12.268155	-56.994620	233.80	-0.150	0.180	2.220	233.70	-1.20	2.60	 	 	 	 	 	 	 	 	 	 	 	 	 	 	 	 	 	 	1581545488	9.20	17.04
12/02/2020 22:11:29	120220	12022020	221129	233.49	12.268130	-56.994660	233.51	-0.010	-0.170	1.840	233.42	-1.60	2.10	 	 	 	 	 	 	 	 	 	 	 	 	 	 	 	 	 	 	1581545489	9.69	17.95
12/02/2020 22:11:30	120220	12022020	221130	233.16	12.268105	-56.994698	233.18	0.100	-0.640	1.280	233.10	-2.00	1.60	 	 	 	 	 	 	 	 	 	 	 	 	 	 	 	 	 	 	1581545490	9.90	18.33
12/02/2020 22:11:31	120220	12022020	221131	232.96	12.268078	-56.994735	233.04	0.090	-0.810	0.630	232.95	-2.10	0.90	 	 	 	 	 	 	 	 	 	 	 	 	 	 	 	 	 	 	1581545491	9.72	18.00
12/02/2020 22:11:32	120220	12022020	221132	233.09	12.268053	-56.994770	233.24	-0.060	-0.530	0.160	233.15	-1.80	0.50	 	 	 	 	 	 	 	 	 	 	 	 	 	 	 	 	 	 	1581545492	9.28	17.19
12/02/2020 22:11:33	120220	12022020	221133	233.54	12.268030	-56.994807	233.74	-0.300	-0.030	0.040	233.65	-1.30	0.40	 	 	 	 	 	 	 	 	 	 	 	 	 	 	 	 	 	 	1581545493	8.97	16.61
12/02/2020 22:11:34	120220	12022020	221134	234.12	12.268008	-56.994843	234.33	-0.440	0.300	0.300	234.24	-1.00	0.70	 	 	 	 	 	 	 	 	 	 	 	 	 	 	 	 	 	 	1581545494	9.05	16.76
12/02/2020 22:11:35	120220	12022020	221135	234.69	12.267987	-56.994882	234.85	-0.320	0.260	0.640	234.78	-1.10	1.10	 	 	 	 	 	 	 	 	 	 	 	 	 	 	 	 	 	 	1581545495	9.36	17.33
12/02/2020 22:11:36	120220	12022020	221136	235.13	12.267963	-56.994920	235.25	0.010	-0.020	0.900	235.19	-1.40	1.30	 	 	 	 	 	 	 	 	 	 	 	 	 	 	 	 	 	 	1581545496	9.60	17.78
12/02/2020 22:11:37	120220	12022020	221137	235.35	12.267940	-56.994958	235.40	0.330	-0.340	1.100	235.36	-1.70	1.50	 	 	 	 	 	 	 	 	 	 	 	 	 	 	 	 	 	 	1581545497	9.56	17.71
12/02/2020 22:11:38	120220	12022020	221138	235.26	12.267917	-56.994997	235.28	0.490	-0.680	1.250	235.22	-2.00	1.60	 	 	 	 	 	 	 	 	 	 	 	 	 	 	 	 	 	 	1581545498	9.58	17.74
12/02/2020 22:11:39	120220	12022020	221139	235.03	12.267892	-56.995035	235.04	0.460	-0.900	1.310	234.98	-2.20	1.70	 	 	 	 	 	 	 	 	 	 	 	 	 	 	 	 	 	 	1581545499	9.59	17.76
12/02/2020 22:11:40	120220	12022020	221140	234.69	12.267868	-56.995073	234.68	0.320	-0.870	1.380	234.60	-2.20	1.80	 	 	 	 	 	 	 	 	 	 	 	 	 	 	 	 	 	 	1581545500	9.47	17.54
12/02/2020 22:11:41	120220	12022020	221141	234.19	12.267845	-56.995112	234.15	0.110	-0.630	1.500	234.07	-1.90	1.90	 	 	 	 	 	 	 	 	 	 	 	 	 	 	 	 	 	 	1581545501	9.45	17.50
12/02/2020 22:11:42	120220	12022020	221142	233.67	12.267823	-56.995150	233.67	-0.140	-0.210	1.570	233.59	-1.50	1.90	 	 	 	 	 	 	 	 	 	 	 	 	 	 	 	 	 	 	1581545502	9.42	17.45
12/02/2020 22:11:43	120220	12022020	221143	233.38	12.267802	-56.995188	233.44	-0.440	0.170	1.500	233.36	-1.10	1.90	 	 	 	 	 	 	 	 	 	 	 	 	 	 	 	 	 	 	1581545503	9.39	17.39
12/02/2020 22:11:44	120220	12022020	221144	233.32	12.267778	-56.995227	233.40	-0.630	0.280	1.280	233.32	-1.10	1.60	 	 	 	 	 	 	 	 	 	 	 	 	 	 	 	 	 	 	1581545504	9.58	17.74
12/02/2020 22:11:45	120220	12022020	221145	233.41	12.267755	-56.995265	233.54	-0.550	0.180	0.980	233.46	-1.20	1.30	 	 	 	 	 	 	 	 	 	 	 	 	 	 	 	 	 	 	1581545505	9.74	18.04
12/02/2020 22:11:46	120220	12022020	221146	233.70	12.267730	-56.995303	233.85	-0.230	0.030	0.690	233.78	-1.30	1.00	 	 	 	 	 	 	 	 	 	 	 	 	 	 	 	 	 	 	1581545506	9.69	17.95
12/02/2020 22:11:47	120220	12022020	221147	234.13	12.267703	-56.995342	234.31	0.120	-0.190	0.430	234.24	-1.60	0.80	 	 	 	 	 	 	 	 	 	 	 	 	 	 	 	 	 	 	1581545507	9.63	17.83
12/02/2020 22:11:48	120220	12022020	221148	234.73	12.267678	-56.995378	234.92	0.320	-0.370	0.260	234.86	-1.70	0.60	 	 	 	 	 	 	 	 	 	 	 	 	 	 	 	 	 	 	1581545508	9.50	17.59
12/02/2020 22:11:49	120220	12022020	221149	235.34	12.267655	-56.995415	235.49	0.350	-0.550	0.280	235.43	-1.90	0.70	 	 	 	 	 	 	 	 	 	 	 	 	 	 	 	 	 	 	1581545509	9.39	17.39
12/02/2020 22:11:50	120220	12022020	221150	235.67	12.267630	-56.995453	235.75	0.330	-0.860	0.720	235.69	-2.20	1.20	 	 	 	 	 	 	 	 	 	 	 	 	 	 	 	 	 	 	1581545510	9.55	17.69
12/02/2020 22:11:51	120220	12022020	221151	235.65	12.267608	-56.995493	235.68	0.280	-1.090	1.380	235.61	-2.40	1.80	 	 	 	 	 	 	 	 	 	 	 	 	 	 	 	 	 	 	1581545511	9.77	18.09
12/02/2020 22:11:52	120220	12022020	221152	235.40	12.267587	-56.995533	235.39	0.170	-1.010	1.870	235.33	-2.30	2.30	 	 	 	 	 	 	 	 	 	 	 	 	 	 	 	 	 	 	1581545512	9.73	18.02
12/02/2020 22:11:53	120220	12022020	221153	234.98	12.267565	-56.995573	234.95	0.010	-0.740	2.120	234.88	-2.00	2.50	 	 	 	 	 	 	 	 	 	 	 	 	 	 	 	 	 	 	1581545513	9.74	18.04
12/02/2020 22:11:54	120220	12022020	221154	234.44	12.267542	-56.995615	234.41	-0.170	-0.410	2.130	234.33	-1.70	2.50	 	 	 	 	 	 	 	 	 	 	 	 	 	 	 	 	 	 	1581545514	9.89	18.32
12/02/2020 22:11:55	120220	12022020	221155	233.93	12.267517	-56.995655	233.92	-0.300	-0.080	1.920	233.83	-1.40	2.30	 	 	 	 	 	 	 	 	 	 	 	 	 	 	 	 	 	 	1581545515	10.02	18.56
12/02/2020 22:11:56	120220	12022020	221156	233.53	12.267493	-56.995695	233.57	-0.330	0.350	1.600	233.49	-0.90	1.90	 	 	 	 	 	 	 	 	 	 	 	 	 	 	 	 	 	 	1581545516	9.97	18.46
12/02/2020 22:11:57	120220	12022020	221157	233.46	12.267468	-56.995733	233.58	-0.330	0.850	1.150	233.49	-0.40	1.50	 	 	 	 	 	 	 	 	 	 	 	 	 	 	 	 	 	 	1581545517	9.66	17.89
12/02/2020 22:11:58	120220	12022020	221158	233.79	12.267443	-56.995770	233.98	-0.330	1.090	0.720	233.79	-0.30	1.10	 	 	 	 	 	 	 	 	 	 	 	 	 	 	 	 	 	 	1581545518	9.48	17.56
12/02/2020 22:11:59	120220	12022020	221159	234.40	12.267420	-56.995808	234.62	-0.210	0.800	0.440	234.54	-0.60	0.80	 	 	 	 	 	 	 	 	 	 	 	 	 	 	 	 	 	 	1581545519	9.53	17.65
12/02/2020 22:12:00	120220	12022020	221200	235.09	12.267395	-56.995847	235.29	0.120	0.010	0.380	235.09	-1.50	0.80	 	 	 	 	 	 	 	 	 	 	 	 	 	 	 	 	 	 	1581545520	9.81	18.17
12/02/2020 22:12:01	120220	12022020	221201	235.65	12.267370	-56.995887	235.81	0.530	-0.920	0.570	235.74	-2.40	1.00	 	 	 	 	 	 	 	 	 	 	 	 	 	 	 	 	 	 	1581545521	9.94	18.41
12/02/2020 22:12:02	120220	12022020	221202	235.94	12.267347	-56.995927	236.05	0.750	-1.640	0.970	235.97	-3.00	1.40	1014.90	26.20	26.30	20.50	20.60	-1.0	71.0	70.0	389.0	25.8	215.00	6.20	74.00	10.60	27	10137.0	27.4	27.4	1581545522	9.84	18.22
12/02/2020 22:12:03	120220	12022020	221203	235.94	12.267325	-56.995967	236.00	0.650	-1.920	1.370	235.91	-3.30	1.80	 	 	 	 	 	 	 	 	 	 	 	 	 	 	 	 	 	 	1581545523	9.70	17.96
12/02/2020 22:12:04	120220	12022020	221204	235.77	12.267302	-56.996007	235.84	0.310	-1.700	1.500	235.74	-3.00	1.90	 	 	 	 	 	 	 	 	 	 	 	 	 	 	 	 	 	 	1581545524	9.60	17.78
12/02/2020 22:12:05	120220	12022020	221205	235.66	12.267278	-56.996045	235.72	-0.140	-1.000	1.250	235.65	-2.20	1.60	 	 	 	 	 	 	 	 	 	 	 	 	 	 	 	 	 	 	1581545525	9.49	17.58
12/02/2020 22:12:06	120220	12022020	221206	235.54	12.267255	-56.996082	235.55	-0.490	-0.240	0.990	235.49	-1.50	1.40	 	 	 	 	 	 	 	 	 	 	 	 	 	 	 	 	 	 	1581545526	9.59	17.76
12/02/2020 22:12:07	120220	12022020	221207	235.22	12.267230	-56.996122	235.19	-0.620	0.200	1.000	235.15	-1.10	1.40	 	 	 	 	 	 	 	 	 	 	 	 	 	 	 	 	 	 	1581545527	10.05	18.61
12/02/2020 22:12:08	120220	12022020	221208	234.84	12.267203	-56.996163	234.82	-0.580	0.400	1.140	234.77	-0.90	1.50	 	 	 	 	 	 	 	 	 	 	 	 	 	 	 	 	 	 	1581545528	10.44	19.33
12/02/2020 22:12:09	120220	12022020	221209	234.52	12.267178	-56.996207	234.54	-0.520	0.540	1.360	234.47	-0.80	1.80	 	 	 	 	 	 	 	 	 	 	 	 	 	 	 	 	 	 	1581545529	10.41	19.28
12/02/2020 22:12:10	120220	12022020	221210	234.31	12.267155	-56.996248	234.35	-0.440	0.520	1.500	234.29	-0.80	1.90	 	 	 	 	 	 	 	 	 	 	 	 	 	 	 	 	 	 	1581545530	10.31	19.09
12/02/2020 22:12:11	120220	12022020	221211	234.30	12.267133	-56.996290	234.38	-0.300	0.420	1.460	234.33	-0.90	1.80	 	 	 	 	 	 	 	 	 	 	 	 	 	 	 	 	 	 	1581545531	10.13	18.76
12/02/2020 22:12:12	120220	12022020	221212	234.54	12.267110	-56.996332	234.66	-0.040	0.230	1.180	234.61	-1.20	1.50	 	 	 	 	 	 	 	 	 	 	 	 	 	 	 	 	 	 	1581545532	9.89	18.32
12/02/2020 22:12:13	120220	12022020	221213	234.97	12.267085	-56.996370	235.09	0.330	-0.080	0.700	235.05	-1.50	1.00	 	 	 	 	 	 	 	 	 	 	 	 	 	 	 	 	 	 	1581545533	9.77	18.09
12/02/2020 22:12:14	120220	12022020	221214	235.36	12.267060	-56.996408	235.45	0.640	-0.350	0.330	235.42	-1.70	0.70	 	 	 	 	 	 	 	 	 	 	 	 	 	 	 	 	 	 	1581545534	9.69	17.95
12/02/2020 22:12:15	120220	12022020	221215	235.63	12.267035	-56.996447	235.69	0.690	-0.530	0.300	235.67	-1.90	0.70	 	 	 	 	 	 	 	 	 	 	 	 	 	 	 	 	 	 	1581545535	9.56	17.71
12/02/2020 22:12:16	120220	12022020	221216	235.77	12.267012	-56.996485	235.81	0.460	-0.640	0.490	235.78	-2.00	0.90	 	 	 	 	 	 	 	 	 	 	 	 	 	 	 	 	 	 	1581545536	9.53	17.65
12/02/2020 22:12:17	120220	12022020	221217	235.84	12.266988	-56.996523	235.88	0.150	-0.720	0.690	235.86	-2.10	1.10	 	 	 	 	 	 	 	 	 	 	 	 	 	 	 	 	 	 	1581545537	9.57	17.72
12/02/2020 22:12:18	120220	12022020	221218	235.85	12.266965	-56.996563	235.85	-0.000	-0.920	0.910	235.83	-2.30	1.30	 	 	 	 	 	 	 	 	 	 	 	 	 	 	 	 	 	 	1581545538	9.83	18.21
12/02/2020 22:12:19	120220	12022020	221219	235.62	12.266940	-56.996603	235.57	0.020	-1.190	1.200	235.54	-2.50	1.60	 	 	 	 	 	 	 	 	 	 	 	 	 	 	 	 	 	 	1581545539	10.23	18.95
12/02/2020 22:12:20	120220	12022020	221220	235.18	12.266915	-56.996647	235.13	0.040	-1.260	1.500	235.08	-2.60	1.90	 	 	 	 	 	 	 	 	 	 	 	 	 	 	 	 	 	 	1581545540	10.39	19.24
12/02/2020 22:12:21	120220	12022020	221221	234.67	12.266892	-56.996688	234.64	-0.100	-0.990	1.750	234.58	-2.30	2.10	 	 	 	 	 	 	 	 	 	 	 	 	 	 	 	 	 	 	1581545541	10.32	19.11
12/02/2020 22:12:22	120220	12022020	221222	234.28	12.266868	-56.996730	234.31	-0.390	-0.470	1.850	234.23	-1.70	2.20	 	 	 	 	 	 	 	 	 	 	 	 	 	 	 	 	 	 	1581545542	10.23	18.95
12/02/2020 22:12:23	120220	12022020	221223	234.15	12.266847	-56.996773	234.23	-0.610	0.080	1.740	234.15	-1.20	2.10	 	 	 	 	 	 	 	 	 	 	 	 	 	 	 	 	 	 	1581545543	10.19	18.87
12/02/2020 22:12:24	120220	12022020	221224	234.25	12.266822	-56.996815	234.39	-0.560	0.580	1.420	234.31	-0.70	1.70	 	 	 	 	 	 	 	 	 	 	 	 	 	 	 	 	 	 	1581545544	10.16	18.82
12/02/2020 22:12:25	120220	12022020	221225	234.65	12.266797	-56.996855	234.84	-0.290	0.940	0.940	234.75	-0.40	1.20	 	 	 	 	 	 	 	 	 	 	 	 	 	 	 	 	 	 	1581545545	10.05	18.61
12/02/2020 22:12:26	120220	12022020	221226	235.30	12.266770	-56.996893	235.49	0.010	0.950	0.510	235.43	-0.40	0.90	 	 	 	 	 	 	 	 	 	 	 	 	 	 	 	 	 	 	1581545546	10.01	18.54
12/02/2020 22:12:27	120220	12022020	221227	235.87	12.266745	-56.996933	235.98	0.250	0.520	0.520	235.93	-0.90	0.90	 	 	 	 	 	 	 	 	 	 	 	 	 	 	 	 	 	 	1581545547	10.18	18.85
12/02/2020 22:12:28	120220	12022020	221228	236.00	12.266720	-56.996975	236.05	0.420	-0.130	0.900	235.98	-1.60	1.30	 	 	 	 	 	 	 	 	 	 	 	 	 	 	 	 	 	 	1581545548	10.29	19.06
12/02/2020 22:12:29	120220	12022020	221229	235.83	12.266695	-56.997017	235.86	0.470	-0.680	1.270	235.79	-2.10	1.70	 	 	 	 	 	 	 	 	 	 	 	 	 	 	 	 	 	 	1581545549	10.19	18.87
12/02/2020 22:12:30	120220	12022020	221230	235.62	12.266672	-56.997057	235.65	0.360	-0.970	1.470	235.57	-2.30	1.90	 	 	 	 	 	 	 	 	 	 	 	 	 	 	 	 	 	 	1581545550	9.91	18.35
12/02/2020 22:12:31	120220	12022020	221231	235.40	12.266648	-56.997097	235.43	0.190	-1.100	1.400	235.37	-2.40	1.80	 	 	 	 	 	 	 	 	 	 	 	 	 	 	 	 	 	 	1581545551	9.79	18.13
12/02/2020 22:12:32	120220	12022020	221232	235.28	12.266623	-56.997137	235.34	0.060	-1.130	1.140	235.28	-2.50	1.50	 	 	 	 	 	 	 	 	 	 	 	 	 	 	 	 	 	 	1581545552	9.86	18.26
12/02/2020 22:12:33	120220	12022020	221233	235.31	12.266600	-56.997177	235.38	0.030	-1.060	0.820	235.32	-2.40	1.10	 	 	 	 	 	 	 	 	 	 	 	 	 	 	 	 	 	 	1581545553	9.97	18.46
12/02/2020 22:12:34	120220	12022020	221234	235.38	12.266575	-56.997217	235.44	0.060	-0.900	0.560	235.38	-2.20	0.90	 	 	 	 	 	 	 	 	 	 	 	 	 	 	 	 	 	 	1581545554	10.11	18.72
12/02/2020 22:12:35	120220	12022020	221235	235.37	12.266548	-56.997257	235.41	0.040	-0.740	0.460	235.36	-2.00	0.80	 	 	 	 	 	 	 	 	 	 	 	 	 	 	 	 	 	 	1581545555	10.33	19.13
12/02/2020 22:12:36	120220	12022020	221236	235.33	12.266522	-56.997298	235.38	-0.110	-0.500	0.470	235.33	-1.80	0.90	 	 	 	 	 	 	 	 	 	 	 	 	 	 	 	 	 	 	1581545556	10.50	19.45
12/02/2020 22:12:37	120220	12022020	221237	235.34	12.266495	-56.997340	235.42	-0.300	-0.050	0.560	235.36	-1.30	1.00	 	 	 	 	 	 	 	 	 	 	 	 	 	 	 	 	 	 	1581545557	10.43	19.32
12/02/2020 22:12:38	120220	12022020	221238	235.48	12.266472	-56.997382	235.56	-0.430	0.510	0.730	235.50	-0.80	1.10	 	 	 	 	 	 	 	 	 	 	 	 	 	 	 	 	 	 	1581545558	10.22	18.93
12/02/2020 22:12:39	120220	12022020	221239	235.59	12.266448	-56.997423	235.65	-0.420	0.790	1.020	235.60	-0.50	1.40	 	 	 	 	 	 	 	 	 	 	 	 	 	 	 	 	 	 	1581545559	10.24	18.96
12/02/2020 22:12:40	120220	12022020	221240	235.61	12.266423	-56.997467	235.67	-0.320	0.610	1.280	235.60	-0.80	1.70	 	 	 	 	 	 	 	 	 	 	 	 	 	 	 	 	 	 	1581545560	10.50	19.45
12/02/2020 22:12:41	120220	12022020	221241	235.57	12.266400	-56.997510	235.63	-0.180	0.130	1.350	235.56	-1.30	1.70	 	 	 	 	 	 	 	 	 	 	 	 	 	 	 	 	 	 	1581545561	10.63	19.69
12/02/2020 22:12:42	120220	12022020	221242	235.50	12.266373	-56.997553	235.57	0.010	-0.290	1.180	235.49	-1.70	1.50	 	 	 	 	 	 	 	 	 	 	 	 	 	 	 	 	 	 	1581545562	10.46	19.37
12/02/2020 22:12:43	120220	12022020	221243	235.46	12.266348	-56.997593	235.52	0.220	-0.530	0.910	235.44	-1.90	1.30	 	 	 	 	 	 	 	 	 	 	 	 	 	 	 	 	 	 	1581545563	10.11	18.72
12/02/2020 22:12:44	120220	12022020	221244	235.36	12.266323	-56.997633	235.38	0.410	-0.760	0.860	235.32	-2.10	1.30	 	 	 	 	 	 	 	 	 	 	 	 	 	 	 	 	 	 	1581545564	10.03	18.58
12/02/2020 22:12:45	120220	12022020	221245	235.18	12.266298	-56.997675	235.20	0.490	-1.000	1.100	235.14	-2.30	1.50	 	 	 	 	 	 	 	 	 	 	 	 	 	 	 	 	 	 	1581545565	10.21	18.91
12/02/2020 22:12:46	120220	12022020	221246	235.02	12.266277	-56.997717	235.04	0.430	-1.040	1.330	234.99	-2.30	1.70	 	 	 	 	 	 	 	 	 	 	 	 	 	 	 	 	 	 	1581545566	10.30	19.08
12/02/2020 22:12:47	120220	12022020	221247	234.86	12.266253	-56.997760	234.90	0.330	-0.730	1.510	234.83	-2.00	1.90	 	 	 	 	 	 	 	 	 	 	 	 	 	 	 	 	 	 	1581545567	10.20	18.89
12/02/2020 22:12:48	120220	12022020	221248	234.80	12.266230	-56.997800	234.90	0.230	-0.140	1.470	234.80	-1.40	1.80	 	 	 	 	 	 	 	 	 	 	 	 	 	 	 	 	 	 	1581545568	9.99	18.50
12/02/2020 22:12:49	120220	12022020	221249	235.07	12.266205	-56.997840	235.23	0.090	0.330	1.000	235.16	-1.00	1.30	 	 	 	 	 	 	 	 	 	 	 	 	 	 	 	 	 	 	1581545569	9.93	18.39
12/02/2020 22:12:50	120220	12022020	221250	235.55	12.266177	-56.997880	235.69	-0.100	0.280	0.560	235.55	-1.10	0.90	 	 	 	 	 	 	 	 	 	 	 	 	 	 	 	 	 	 	1581545570	10.25	18.98
12/02/2020 22:12:51	120220	12022020	221251	235.96	12.266150	-56.997922	236.05	-0.250	-0.310	0.410	236.01	-1.70	0.80	 	 	 	 	 	 	 	 	 	 	 	 	 	 	 	 	 	 	1581545571	10.75	19.91
12/02/2020 22:12:52	120220	12022020	221252	236.14	12.266122	-56.997965	236.17	-0.280	-0.990	0.550	236.14	-2.40	1.00	 	 	 	 	 	 	 	 	 	 	 	 	 	 	 	 	 	 	1581545572	11.03	20.43
12/02/2020 22:12:53	120220	12022020	221253	236.02	12.266095	-56.998008	236.00	-0.250	-1.270	0.940	235.95	-2.60	1.40	 	 	 	 	 	 	 	 	 	 	 	 	 	 	 	 	 	 	1581545573	10.88	20.15
12/02/2020 22:12:54	120220	12022020	221254	235.61	12.266070	-56.998052	235.56	-0.280	-0.950	1.560	235.50	-2.20	2.00	 	 	 	 	 	 	 	 	 	 	 	 	 	 	 	 	 	 	1581545574	10.48	19.41
12/02/2020 22:12:55	120220	12022020	221255	234.99	12.266047	-56.998093	234.92	-0.360	-0.280	2.130	234.85	-1.50	2.60	 	 	 	 	 	 	 	 	 	 	 	 	 	 	 	 	 	 	1581545575	10.15	18.80
12/02/2020 22:12:56	120220	12022020	221256	234.29	12.266025	-56.998137	234.25	-0.340	0.310	2.400	234.17	-1.00	2.80	 	 	 	 	 	 	 	 	 	 	 	 	 	 	 	 	 	 	1581545576	10.20	18.89
12/02/2020 22:12:57	120220	12022020	221257	233.83	12.266002	-56.998180	233.87	-0.170	0.540	2.220	233.80	-0.80	2.50	 	 	 	 	 	 	 	 	 	 	 	 	 	 	 	 	 	 	1581545577	10.46	19.37
12/02/2020 22:12:58	120220	12022020	221258	233.88	12.265977	-56.998222	234.03	0.050	0.470	1.560	233.96	-0.90	1.80	 	 	 	 	 	 	 	 	 	 	 	 	 	 	 	 	 	 	1581545578	10.56	19.56
12/02/2020 22:12:59	120220	12022020	221259	234.41	12.265948	-56.998263	234.59	0.240	0.230	0.620	234.55	-1.10	0.90	 	 	 	 	 	 	 	 	 	 	 	 	 	 	 	 	 	 	1581545579	10.48	19.41
12/02/2020 22:13:00	120220	12022020	221300	235.17	12.265920	-56.998303	235.38	0.400	-0.120	-0.220	235.34	-1.50	0.10	 	 	 	 	 	 	 	 	 	 	 	 	 	 	 	 	 	 	1581545580	10.41	19.28
12/02/2020 22:13:01	120220	12022020	221301	235.96	12.265892	-56.998343	236.13	0.480	-0.450	-0.610	236.11	-1.80	-0.20	 	 	 	 	 	 	 	 	 	 	 	 	 	 	 	 	 	 	1581545581	10.37	19.21
12/02/2020 22:13:02	120220	12022020	221302	236.56	12.265865	-56.998383	236.66	0.400	-0.700	-0.440	236.64	-2.10	0.00	1014.90	26.20	26.30	20.60	20.60	-1.0	71.0	71.0	388.0	25.8	214.00	5.70	73.00	10.40	25	9895.0	27.4	27.4	1581545582	10.26	19.00
12/02/2020 22:13:03	120220	12022020	221303	236.79	12.265840	-56.998425	236.82	0.230	-0.950	0.170	236.80	-2.30	0.70	 	 	 	 	 	 	 	 	 	 	 	 	 	 	 	 	 	 	1581545583	10.30	19.08
12/02/2020 22:13:04	120220	12022020	221304	236.67	12.265815	-56.998467	236.64	0.030	-1.130	0.960	236.61	-2.50	1.40	 	 	 	 	 	 	 	 	 	 	 	 	 	 	 	 	 	 	1581545584	10.45	19.35
12/02/2020 22:13:05	120220	12022020	221305	236.24	12.265792	-56.998510	236.17	-0.170	-1.120	1.640	236.12	-2.40	2.10	 	 	 	 	 	 	 	 	 	 	 	 	 	 	 	 	 	 	1581545585	10.51	19.46
12/02/2020 22:13:06	120220	12022020	221306	235.57	12.265768	-56.998555	235.48	-0.350	-0.960	1.960	235.42	-2.30	2.40	 	 	 	 	 	 	 	 	 	 	 	 	 	 	 	 	 	 	1581545586	10.59	19.61
12/02/2020 22:13:07	120220	12022020	221307	234.88	12.265743	-56.998598	234.83	-0.440	-0.680	1.930	234.77	-2.00	2.30	 	 	 	 	 	 	 	 	 	 	 	 	 	 	 	 	 	 	1581545587	10.68	19.78
12/02/2020 22:13:08	120220	12022020	221308	234.49	12.265718	-56.998642	234.51	-0.400	-0.200	1.590	234.45	-1.50	1.90	 	 	 	 	 	 	 	 	 	 	 	 	 	 	 	 	 	 	1581545588	10.61	19.65
12/02/2020 22:13:09	120220	12022020	221309	234.44	12.265692	-56.998683	234.52	-0.310	0.390	1.170	234.47	-0.90	1.50	 	 	 	 	 	 	 	 	 	 	 	 	 	 	 	 	 	 	1581545589	10.43	19.32
12/02/2020 22:13:10	120220	12022020	221310	234.65	12.265668	-56.998725	234.74	-0.180	0.800	0.920	234.71	-0.50	1.30	 	 	 	 	 	 	 	 	 	 	 	 	 	 	 	 	 	 	1581545590	10.36	19.19
12/02/2020 22:13:11	120220	12022020	221311	234.94	12.265643	-56.998768	235.05	0.050	0.720	0.900	235.01	-0.70	1.30	 	 	 	 	 	 	 	 	 	 	 	 	 	 	 	 	 	 	1581545591	10.56	19.56
12/02/2020 22:13:12	120220	12022020	221312	235.26	12.265617	-56.998812	235.38	0.300	0.230	1.010	235.32	-1.20	1.40	 	 	 	 	 	 	 	 	 	 	 	 	 	 	 	 	 	 	1581545592	10.85	20.09
12/02/2020 22:13:13	120220	12022020	221313	235.58	12.265592	-56.998857	235.70	0.400	-0.250	1.000	235.64	-1.60	1.40	 	 	 	 	 	 	 	 	 	 	 	 	 	 	 	 	 	 	1581545593	10.76	19.93
12/02/2020 22:13:14	120220	12022020	221314	235.87	12.265567	-56.998898	235.97	0.300	-0.490	0.780	235.91	-1.80	1.10	 	 	 	 	 	 	 	 	 	 	 	 	 	 	 	 	 	 	1581545594	10.35	19.17
12/02/2020 22:13:15	120220	12022020	221315	236.02	12.265540	-56.998938	236.10	0.150	-0.640	0.480	236.04	-2.00	0.80	 	 	 	 	 	 	 	 	 	 	 	 	 	 	 	 	 	 	1581545595	10.15	18.80
12/02/2020 22:13:16	120220	12022020	221316	236.08	12.265512	-56.998977	236.14	0.090	-0.840	0.190	236.09	-2.20	0.50	 	 	 	 	 	 	 	 	 	 	 	 	 	 	 	 	 	 	1581545596	10.28	19.04
12/02/2020 22:13:17	120220	12022020	221317	236.13	12.265483	-56.999017	236.19	0.110	-1.030	-0.010	236.14	-2.40	0.40	 	 	 	 	 	 	 	 	 	 	 	 	 	 	 	 	 	 	1581545597	10.48	19.41
12/02/2020 22:13:18	120220	12022020	221318	236.15	12.265457	-56.999058	236.18	0.090	-1.090	0.170	236.14	-2.40	0.60	 	 	 	 	 	 	 	 	 	 	 	 	 	 	 	 	 	 	1581545598	10.58	19.59
12/02/2020 22:13:19	120220	12022020	221319	236.06	12.265432	-56.999102	236.06	-0.070	-0.980	0.720	236.02	-2.30	1.20	 	 	 	 	 	 	 	 	 	 	 	 	 	 	 	 	 	 	1581545599	10.61	19.65
12/02/2020 22:13:20	120220	12022020	221320	235.82	12.265408	-56.999147	235.80	-0.300	-0.760	1.390	235.75	-2.00	1.90	 	 	 	 	 	 	 	 	 	 	 	 	 	 	 	 	 	 	1581545600	10.69	19.80
12/02/2020 22:13:21	120220	12022020	221321	235.52	12.265387	-56.999193	235.50	-0.460	-0.460	1.910	235.46	-1.70	2.30	 	 	 	 	 	 	 	 	 	 	 	 	 	 	 	 	 	 	1581545601	10.81	20.02
12/02/2020 22:13:22	120220	12022020	221322	235.26	12.265365	-56.999238	235.27	-0.490	-0.100	2.090	235.22	-1.40	2.50	 	 	 	 	 	 	 	 	 	 	 	 	 	 	 	 	 	 	1581545602	10.77	19.95
12/02/2020 22:13:23	120220	12022020	221323	235.08	12.265340	-56.999283	235.12	-0.410	0.160	1.940	235.05	-1.10	2.30	 	 	 	 	 	 	 	 	 	 	 	 	 	 	 	 	 	 	1581545603	10.81	20.02
12/02/2020 22:13:24	120220	12022020	221324	234.99	12.265313	-56.999327	235.06	-0.250	0.270	1.560	234.98	-1.00	1.90	 	 	 	 	 	 	 	 	 	 	 	 	 	 	 	 	 	 	1581545604	10.88	20.15
12/02/2020 22:13:25	120220	12022020	221325	234.97	12.265287	-56.999370	235.04	-0.050	0.390	1.060	234.98	-0.90	1.40	 	 	 	 	 	 	 	 	 	 	 	 	 	 	 	 	 	 	1581545605	10.80	20.00
12/02/2020 22:13:26	120220	12022020	221326	235.03	12.265258	-56.999410	235.13	0.110	0.560	0.570	235.05	-0.80	0.90	 	 	 	 	 	 	 	 	 	 	 	 	 	 	 	 	 	 	1581545606	10.47	19.39
12/02/2020 22:13:27	120220	12022020	221327	235.16	12.265230	-56.999450	235.28	0.240	0.520	0.290	235.20	-0.80	0.70	 	 	 	 	 	 	 	 	 	 	 	 	 	 	 	 	 	 	1581545607	10.28	19.04
12/02/2020 22:13:28	120220	12022020	221328	235.41	12.265203	-56.999490	235.53	0.380	0.080	0.230	235.46	-1.30	0.60	 	 	 	 	 	 	 	 	 	 	 	 	 	 	 	 	 	 	1581545608	10.46	19.37
12/02/2020 22:13:29	120220	12022020	221329	235.74	12.265177	-56.999533	235.89	0.520	-0.550	0.320	235.82	-1.90	0.70	 	 	 	 	 	 	 	 	 	 	 	 	 	 	 	 	 	 	1581545609	10.66	19.74
12/02/2020 22:13:30	120220	12022020	221330	236.21	12.265152	-56.999577	236.38	0.550	-0.990	0.470	236.32	-2.40	0.90	 	 	 	 	 	 	 	 	 	 	 	 	 	 	 	 	 	 	1581545610	10.54	19.52
12/02/2020 22:13:31	120220	12022020	221331	236.72	12.265128	-56.999620	236.85	0.460	-1.260	0.680	236.81	-2.60	1.10	 	 	 	 	 	 	 	 	 	 	 	 	 	 	 	 	 	 	1581545611	10.38	19.22
12/02/2020 22:13:32	120220	12022020	221332	236.97	12.265105	-56.999663	237.02	0.300	-1.550	1.050	236.98	-2.90	1.50	 	 	 	 	 	 	 	 	 	 	 	 	 	 	 	 	 	 	1581545612	10.57	19.58
12/02/2020 22:13:33	120220	12022020	221333	236.85	12.265080	-56.999708	236.83	0.040	-1.700	1.510	236.78	-3.00	1.90	 	 	 	 	 	 	 	 	 	 	 	 	 	 	 	 	 	 	1581545613	10.89	20.17
12/02/2020 22:13:34	120220	12022020	221334	236.42	12.265055	-56.999753	236.36	-0.330	-1.400	1.870	236.31	-2.60	2.30	 	 	 	 	 	 	 	 	 	 	 	 	 	 	 	 	 	 	1581545614	10.86	20.11
12/02/2020 22:13:35	120220	12022020	221335	235.84	12.265032	-56.999797	235.75	-0.670	-0.650	2.030	235.72	-1.80	2.40	 	 	 	 	 	 	 	 	 	 	 	 	 	 	 	 	 	 	1581545615	10.67	19.76
12/02/2020 22:13:36	120220	12022020	221336	235.27	12.265005	-56.999840	235.19	-0.830	0.180	1.900	235.16	-1.00	2.30	 	 	 	 	 	 	 	 	 	 	 	 	 	 	 	 	 	 	1581545616	10.60	19.63
12/02/2020 22:13:37	120220	12022020	221337	234.79	12.264978	-56.999883	234.75	-0.730	0.780	1.710	234.71	-0.50	2.10	 	 	 	 	 	 	 	 	 	 	 	 	 	 	 	 	 	 	1581545617	10.79	19.98
12/02/2020 22:13:38	120220	12022020	221338	234.57	12.264950	-56.999927	234.63	-0.450	1.030	1.450	234.57	-0.30	1.80	 	 	 	 	 	 	 	 	 	 	 	 	 	 	 	 	 	 	1581545618	10.97	20.32
12/02/2020 22:13:39	120220	12022020	221339	234.77	12.264923	-56.999970	234.90	-0.130	0.870	1.180	234.86	-0.50	1.50	 	 	 	 	 	 	 	 	 	 	 	 	 	 	 	 	 	 	1581545619	11.08	20.52
12/02/2020 22:13:40	120220	12022020	221340	235.26	12.264897	-57.000017	235.42	0.170	0.460	1.140	235.26	-0.90	1.50	 	 	 	 	 	 	 	 	 	 	 	 	 	 	 	 	 	 	1581545620	11.08	20.52
12/02/2020 22:13:41	120220	12022020	221341	235.86	12.264873	-57.000062	236.04	0.410	0.050	1.300	235.97	-1.30	1.70	 	 	 	 	 	 	 	 	 	 	 	 	 	 	 	 	 	 	1581545621	10.84	20.08
12/02/2020 22:13:42	120220	12022020	221342	236.41	12.264852	-57.000105	236.55	0.550	-0.260	1.450	236.49	-1.60	1.80	 	 	 	 	 	 	 	 	 	 	 	 	 	 	 	 	 	 	1581545622	10.48	19.41
12/02/2020 22:13:43	120220	12022020	221343	236.78	12.264828	-57.000148	236.89	0.590	-0.610	1.400	236.84	-2.00	1.80	 	 	 	 	 	 	 	 	 	 	 	 	 	 	 	 	 	 	1581545623	10.28	19.04
12/02/2020 22:13:44	120220	12022020	221344	237.02	12.264803	-57.000190	237.07	0.550	-1.000	1.090	237.04	-2.40	1.40	 	 	 	 	 	 	 	 	 	 	 	 	 	 	 	 	 	 	1581545624	10.33	19.13
12/02/2020 22:13:45	120220	12022020	221345	237.05	12.264777	-57.000230	237.04	0.510	-1.320	0.740	237.02	-2.70	1.10	 	 	 	 	 	 	 	 	 	 	 	 	 	 	 	 	 	 	1581545625	10.45	19.35
12/02/2020 22:13:46	120220	12022020	221346	236.86	12.264748	-57.000272	236.84	0.420	-1.380	0.500	236.82	-2.70	0.90	 	 	 	 	 	 	 	 	 	 	 	 	 	 	 	 	 	 	1581545626	10.54	19.52
12/02/2020 22:13:47	120220	12022020	221347	236.66	12.264720	-57.000312	236.65	0.170	-1.160	0.450	236.63	-2.40	0.90	 	 	 	 	 	 	 	 	 	 	 	 	 	 	 	 	 	 	1581545627	10.54	19.52
12/02/2020 22:13:48	120220	12022020	221348	236.48	12.264693	-57.000355	236.46	-0.250	-0.770	0.580	236.44	-2.00	1.00	 	 	 	 	 	 	 	 	 	 	 	 	 	 	 	 	 	 	1581545628	10.58	19.59
12/02/2020 22:13:49	120220	12022020	221349	236.25	12.264670	-57.000398	236.21	-0.630	-0.360	0.890	236.19	-1.60	1.30	 	 	 	 	 	 	 	 	 	 	 	 	 	 	 	 	 	 	1581545629	10.77	19.95
12/02/2020 22:13:50	120220	12022020	221350	235.92	12.264647	-57.000445	235.87	-0.790	-0.010	1.300	235.85	-1.30	1.70	 	 	 	 	 	 	 	 	 	 	 	 	 	 	 	 	 	 	1581545630	11.03	20.43
12/02/2020 22:13:51	120220	12022020	221351	235.59	12.264623	-57.000493	235.57	-0.710	0.330	1.590	235.53	-0.90	2.00	 	 	 	 	 	 	 	 	 	 	 	 	 	 	 	 	 	 	1581545631	11.12	20.59
12/02/2020 22:13:52	120220	12022020	221352	235.39	12.264600	-57.000538	235.43	-0.480	0.640	1.550	235.38	-0.60	1.90	 	 	 	 	 	 	 	 	 	 	 	 	 	 	 	 	 	 	1581545632	10.96	20.30
12/02/2020 22:13:53	120220	12022020	221353	235.42	12.264575	-57.000583	235.51	-0.180	0.740	1.210	235.46	-0.60	1.50	 	 	 	 	 	 	 	 	 	 	 	 	 	 	 	 	 	 	1581545633	10.75	19.91
12/02/2020 22:13:54	120220	12022020	221354	235.63	12.264548	-57.000627	235.73	0.160	0.410	0.770	235.67	-1.00	1.10	 	 	 	 	 	 	 	 	 	 	 	 	 	 	 	 	 	 	1581545634	10.75	19.91
12/02/2020 22:13:55	120220	12022020	221355	235.92	12.264520	-57.000668	236.06	0.490	-0.330	0.420	235.99	-1.80	0.80	 	 	 	 	 	 	 	 	 	 	 	 	 	 	 	 	 	 	1581545635	11.00	20.37
12/02/2020 22:13:56	120220	12022020	221356	236.28	12.264492	-57.000713	236.41	0.660	-1.100	0.290	236.36	-2.50	0.70	 	 	 	 	 	 	 	 	 	 	 	 	 	 	 	 	 	 	1581545636	11.10	20.56
12/02/2020 22:13:57	120220	12022020	221357	236.67	12.264467	-57.000757	236.78	0.520	-1.390	0.380	236.75	-2.70	0.80	 	 	 	 	 	 	 	 	 	 	 	 	 	 	 	 	 	 	1581545637	10.35	19.17
12/02/2020 22:13:58	120220	12022020	221358	236.99	12.264443	-57.000800	237.04	0.130	-1.180	0.660	237.03	-2.50	1.10	 	 	 	 	 	 	 	 	 	 	 	 	 	 	 	 	 	 	1581545638	10.35	19.17
12/02/2020 22:13:59	120220	12022020	221359	237.03	12.264418	-57.000842	237.02	-0.260	-0.820	1.100	237.00	-2.10	1.60	 	 	 	 	 	 	 	 	 	 	 	 	 	 	 	 	 	 	1581545639	10.33	19.13
12/02/2020 22:14:00	120220	12022020	221400	236.80	12.264397	-57.000887	236.77	-0.420	-0.350	1.660	236.74	-1.60	2.10	 	 	 	 	 	 	 	 	 	 	 	 	 	 	 	 	 	 	1581545640	10.55	19.54
12/02/2020 22:14:01	120220	12022020	221401	236.52	12.264373	-57.000930	236.48	-0.320	0.340	1.970	236.46	-0.90	2.40	 	 	 	 	 	 	 	 	 	 	 	 	 	 	 	 	 	 	1581545641	10.45	19.35
12/02/2020 22:14:02	120220	12022020	221402	236.25	12.264350	-57.000972	236.21	-0.030	0.860	1.940	236.25	-0.50	2.30	1014.90	26.20	26.30	20.70	20.70	-1.0	71.0	71.0	388.0	25.7	207.00	5.20	69.00	10.30	23	9277.0	27.4	27.4	1581545642	10.33	19.13
12/02/2020 22:14:03	120220	12022020	221403	235.93	12.264323	-57.001015	235.90	0.360	0.660	1.650	235.87	-0.70	2.00	 	 	 	 	 	 	 	 	 	 	 	 	 	 	 	 	 	 	1581545643	10.81	20.02
12/02/2020 22:14:04	120220	12022020	221404	235.71	12.264293	-57.001060	235.73	0.610	-0.010	1.130	235.69	-1.40	1.40	 	 	 	 	 	 	 	 	 	 	 	 	 	 	 	 	 	 	1581545644	11.23	20.80
12/02/2020 22:14:05	120220	12022020	221405	235.63	12.264265	-57.001103	235.67	0.550	-0.770	0.640	235.62	-2.20	1.00	 	 	 	 	 	 	 	 	 	 	 	 	 	 	 	 	 	 	1581545645	11.21	20.76
12/02/2020 22:14:06	120220	12022020	221406	235.60	12.264237	-57.001148	235.65	0.230	-1.370	0.580	235.59	-2.70	1.00	 	 	 	 	 	 	 	 	 	 	 	 	 	 	 	 	 	 	1581545646	11.04	20.45
12/02/2020 22:14:07	120220	12022020	221407	235.61	12.264213	-57.001193	235.69	-0.120	-1.590	0.790	235.62	-2.90	1.20	 	 	 	 	 	 	 	 	 	 	 	 	 	 	 	 	 	 	1581545647	10.86	20.11
12/02/2020 22:14:08	120220	12022020	221408	235.66	12.264190	-57.001237	235.74	-0.330	-1.430	0.960	235.67	-2.70	1.40	 	 	 	 	 	 	 	 	 	 	 	 	 	 	 	 	 	 	1581545648	10.71	19.83
12/02/2020 22:14:09	120220	12022020	221409	235.76	12.264165	-57.001282	235.88	-0.370	-0.950	0.980	235.81	-2.20	1.40	 	 	 	 	 	 	 	 	 	 	 	 	 	 	 	 	 	 	1581545649	10.64	19.71
12/02/2020 22:14:10	120220	12022020	221410	236.05	12.264140	-57.001325	236.20	-0.330	-0.290	0.880	236.13	-1.50	1.30	 	 	 	 	 	 	 	 	 	 	 	 	 	 	 	 	 	 	1581545650	10.59	19.61
12/02/2020 22:14:11	120220	12022020	221411	236.43	12.264115	-57.001367	236.56	-0.320	0.270	0.800	236.50	-1.00	1.20	 	 	 	 	 	 	 	 	 	 	 	 	 	 	 	 	 	 	1581545651	10.65	19.72
12/02/2020 22:14:12	120220	12022020	221412	236.70	12.264088	-57.001412	236.79	-0.330	0.520	0.870	236.73	-0.80	1.30	 	 	 	 	 	 	 	 	 	 	 	 	 	 	 	 	 	 	1581545652	10.89	20.17
12/02/2020 22:14:13	120220	12022020	221413	236.81	12.264062	-57.001457	236.85	-0.250	0.540	1.010	236.81	-0.80	1.40	 	 	 	 	 	 	 	 	 	 	 	 	 	 	 	 	 	 	1581545653	11.09	20.54
12/02/2020 22:14:14	120220	12022020	221414	236.75	12.264037	-57.001502	236.75	-0.060	0.560	1.130	236.72	-0.80	1.50	 	 	 	 	 	 	 	 	 	 	 	 	 	 	 	 	 	 	1581545654	10.94	20.26
12/02/2020 22:14:15	120220	12022020	221415	236.51	12.264010	-57.001543	236.49	0.200	0.500	1.080	236.44	-0.90	1.40	 	 	 	 	 	 	 	 	 	 	 	 	 	 	 	 	 	 	1581545655	10.70	19.82
12/02/2020 22:14:16	120220	12022020	221416	236.19	12.263982	-57.001587	236.17	0.420	0.120	0.720	236.19	-1.30	1.00	 	 	 	 	 	 	 	 	 	 	 	 	 	 	 	 	 	 	1581545656	10.75	19.91
12/02/2020 22:14:17	120220	12022020	221417	235.99	12.263953	-57.001628	236.02	0.470	-0.470	0.250	235.98	-1.90	0.60	 	 	 	 	 	 	 	 	 	 	 	 	 	 	 	 	 	 	1581545657	10.86	20.11
12/02/2020 22:14:18	120220	12022020	221418	236.04	12.263925	-57.001670	236.10	0.350	-0.990	-0.050	236.06	-2.40	0.30	 	 	 	 	 	 	 	 	 	 	 	 	 	 	 	 	 	 	1581545658	10.79	19.98
12/02/2020 22:14:19	120220	12022020	221419	236.21	12.263900	-57.001713	236.29	0.170	-1.260	-0.010	236.25	-2.60	0.40	 	 	 	 	 	 	 	 	 	 	 	 	 	 	 	 	 	 	1581545659	10.59	19.61
12/02/2020 22:14:20	120220	12022020	221420	236.32	12.263877	-57.001757	236.36	0.090	-1.320	0.430	236.31	-2.60	0.90	 	 	 	 	 	 	 	 	 	 	 	 	 	 	 	 	 	 	1581545660	10.57	19.58
12/02/2020 22:14:21	120220	12022020	221421	236.19	12.263853	-57.001802	236.20	0.120	-1.250	1.090	236.14	-2.50	1.60	 	 	 	 	 	 	 	 	 	 	 	 	 	 	 	 	 	 	1581545661	10.75	19.91
12/02/2020 22:14:22	120220	12022020	221422	235.92	12.263830	-57.001848	235.94	0.120	-1.020	1.690	235.87	-2.30	2.10	 	 	 	 	 	 	 	 	 	 	 	 	 	 	 	 	 	 	1581545662	10.92	20.22
12/02/2020 22:14:23	120220	12022020	221423	235.71	12.263805	-57.001893	235.77	-0.060	-0.600	1.920	235.69	-1.80	2.30	 	 	 	 	 	 	 	 	 	 	 	 	 	 	 	 	 	 	1581545663	10.95	20.28
12/02/2020 22:14:24	120220	12022020	221424	235.67	12.263778	-57.001938	235.77	-0.370	-0.110	1.730	235.69	-1.40	2.10	 	 	 	 	 	 	 	 	 	 	 	 	 	 	 	 	 	 	1581545664	10.93	20.24
12/02/2020 22:14:25	120220	12022020	221425	235.80	12.263753	-57.001983	235.94	-0.580	0.300	1.330	235.85	-1.00	1.60	 	 	 	 	 	 	 	 	 	 	 	 	 	 	 	 	 	 	1581545665	10.97	20.32
12/02/2020 22:14:26	120220	12022020	221426	236.11	12.263725	-57.002027	236.27	-0.530	0.520	0.840	236.19	-0.80	1.20	 	 	 	 	 	 	 	 	 	 	 	 	 	 	 	 	 	 	1581545666	11.03	20.43
12/02/2020 22:14:27	120220	12022020	221427	236.58	12.263698	-57.002070	236.76	-0.270	0.500	0.380	236.69	-0.90	0.70	 	 	 	 	 	 	 	 	 	 	 	 	 	 	 	 	 	 	1581545667	11.05	20.46
12/02/2020 22:14:28	120220	12022020	221428	237.02	12.263670	-57.002115	237.12	0.030	0.220	0.210	237.02	-1.20	0.60	 	 	 	 	 	 	 	 	 	 	 	 	 	 	 	 	 	 	1581545668	11.08	20.52
12/02/2020 22:14:29	120220	12022020	221429	237.09	12.263643	-57.002160	237.08	0.280	-0.190	0.420	237.05	-1.60	0.90	 	 	 	 	 	 	 	 	 	 	 	 	 	 	 	 	 	 	1581545669	11.11	20.58
12/02/2020 22:14:30	120220	12022020	221430	236.81	12.263617	-57.002203	236.76	0.380	-0.480	0.870	236.81	-1.80	1.30	 	 	 	 	 	 	 	 	 	 	 	 	 	 	 	 	 	 	1581545670	10.97	20.32
12/02/2020 22:14:31	120220	12022020	221431	236.31	12.263592	-57.002247	236.24	0.290	-0.480	1.430	236.21	-1.80	1.90	 	 	 	 	 	 	 	 	 	 	 	 	 	 	 	 	 	 	1581545671	10.69	19.80
12/02/2020 22:14:32	120220	12022020	221432	235.76	12.263567	-57.002290	235.71	0.110	-0.350	1.730	235.67	-1.70	2.10	 	 	 	 	 	 	 	 	 	 	 	 	 	 	 	 	 	 	1581545672	10.50	19.45
12/02/2020 22:14:33	120220	12022020	221433	235.41	12.263543	-57.002335	235.41	-0.020	-0.310	1.660	235.38	-1.60	2.00	 	 	 	 	 	 	 	 	 	 	 	 	 	 	 	 	 	 	1581545673	10.57	19.58
12/02/2020 22:14:34	120220	12022020	221434	235.44	12.263518	-57.002378	235.52	0.040	-0.390	1.190	235.50	-1.70	1.50	 	 	 	 	 	 	 	 	 	 	 	 	 	 	 	 	 	 	1581545674	10.73	19.87
12/02/2020 22:14:35	120220	12022020	221435	235.87	12.263490	-57.002420	236.01	0.200	-0.470	0.490	235.98	-1.80	0.80	 	 	 	 	 	 	 	 	 	 	 	 	 	 	 	 	 	 	1581545675	10.73	19.87
12/02/2020 22:14:36	120220	12022020	221436	236.43	12.263463	-57.002463	236.53	0.330	-0.630	0.150	236.52	-2.00	0.50	 	 	 	 	 	 	 	 	 	 	 	 	 	 	 	 	 	 	1581545676	10.78	19.96
12/02/2020 22:14:37	120220	12022020	221437	236.72	12.263437	-57.002508	236.76	0.330	-0.930	0.510	236.73	-2.30	1.00	 	 	 	 	 	 	 	 	 	 	 	 	 	 	 	 	 	 	1581545677	11.02	20.41
12/02/2020 22:14:38	120220	12022020	221438	236.66	12.263412	-57.002555	236.66	0.170	-1.150	1.230	236.61	-2.40	1.70	 	 	 	 	 	 	 	 	 	 	 	 	 	 	 	 	 	 	1581545678	11.25	20.84
12/02/2020 22:14:39	120220	12022020	221439	236.37	12.263388	-57.002602	236.37	-0.120	-0.910	1.790	236.30	-2.10	2.20	 	 	 	 	 	 	 	 	 	 	 	 	 	 	 	 	 	 	1581545679	11.08	20.52
12/02/2020 22:14:40	120220	12022020	221440	236.05	12.263365	-57.002647	236.06	-0.410	-0.350	1.950	235.99	-1.60	2.30	 	 	 	 	 	 	 	 	 	 	 	 	 	 	 	 	 	 	1581545680	10.76	19.93
12/02/2020 22:14:41	120220	12022020	221441	235.78	12.263342	-57.002692	235.80	-0.520	0.110	1.820	235.74	-1.20	2.20	 	 	 	 	 	 	 	 	 	 	 	 	 	 	 	 	 	 	1581545681	10.78	19.96
12/02/2020 22:14:42	120220	12022020	221442	235.55	12.263315	-57.002735	235.58	-0.380	0.210	1.550	235.52	-1.10	1.90	 	 	 	 	 	 	 	 	 	 	 	 	 	 	 	 	 	 	1581545682	11.08	20.52
12/02/2020 22:14:43	120220	12022020	221443	235.44	12.263285	-57.002780	235.51	-0.100	0.070	1.250	235.44	-1.30	1.60	 	 	 	 	 	 	 	 	 	 	 	 	 	 	 	 	 	 	1581545683	11.33	20.98
12/02/2020 22:14:44	120220	12022020	221444	235.48	12.263257	-57.002825	235.58	0.100	-0.040	1.060	235.50	-1.40	1.40	 	 	 	 	 	 	 	 	 	 	 	 	 	 	 	 	 	 	1581545684	11.21	20.76
12/02/2020 22:14:45	120220	12022020	221445	235.64	12.263230	-57.002868	235.75	0.140	-0.040	0.890	235.69	-1.30	1.30	 	 	 	 	 	 	 	 	 	 	 	 	 	 	 	 	 	 	1581545685	10.95	20.28
12/02/2020 22:14:46	120220	12022020	221446	235.91	12.263202	-57.002910	236.03	0.110	0.020	0.720	235.97	-1.30	1.10	 	 	 	 	 	 	 	 	 	 	 	 	 	 	 	 	 	 	1581545686	10.72	19.85
12/02/2020 22:14:47	120220	12022020	221447	236.17	12.263175	-57.002953	236.27	0.100	-0.050	0.740	236.21	-1.40	1.20	 	 	 	 	 	 	 	 	 	 	 	 	 	 	 	 	 	 	1581545687	10.70	19.82
12/02/2020 22:14:48	120220	12022020	221448	236.27	12.263150	-57.002997	236.34	0.120	-0.240	1.110	236.27	-1.60	1.60	 	 	 	 	 	 	 	 	 	 	 	 	 	 	 	 	 	 	1581545688	10.83	20.06
12/02/2020 22:14:49	120220	12022020	221449	236.19	12.263127	-57.003043	236.25	0.150	-0.420	1.600	236.16	-1.80	2.00	 	 	 	 	 	 	 	 	 	 	 	 	 	 	 	 	 	 	1581545689	10.86	20.11
12/02/2020 22:14:50	120220	12022020	221450	236.06	12.263102	-57.003088	236.13	0.130	-0.540	1.710	236.04	-1.90	2.10	 	 	 	 	 	 	 	 	 	 	 	 	 	 	 	 	 	 	1581545690	10.75	19.91
12/02/2020 22:14:51	120220	12022020	221451	236.03	12.263077	-57.003132	236.11	0.130	-0.670	1.360	236.04	-2.00	1.70	 	 	 	 	 	 	 	 	 	 	 	 	 	 	 	 	 	 	1581545691	10.72	19.85
12/02/2020 22:14:52	120220	12022020	221452	236.14	12.263050	-57.003175	236.24	0.170	-0.840	0.810	236.14	-2.20	1.10	 	 	 	 	 	 	 	 	 	 	 	 	 	 	 	 	 	 	1581545692	10.83	20.06
12/02/2020 22:14:53	120220	12022020	221453	236.37	12.263022	-57.003217	236.46	0.200	-0.890	0.510	236.41	-2.20	0.90	 	 	 	 	 	 	 	 	 	 	 	 	 	 	 	 	 	 	1581545693	10.90	20.19
12/02/2020 22:14:54	120220	12022020	221454	236.50	12.262995	-57.003262	236.56	0.150	-0.800	0.650	236.50	-2.10	1.10	 	 	 	 	 	 	 	 	 	 	 	 	 	 	 	 	 	 	1581545694	10.89	20.17
12/02/2020 22:14:55	120220	12022020	221455	236.48	12.262970	-57.003305	236.51	0.050	-0.570	0.950	236.45	-1.90	1.40	 	 	 	 	 	 	 	 	 	 	 	 	 	 	 	 	 	 	1581545695	10.91	20.21
12/02/2020 22:14:56	120220	12022020	221456	236.30	12.262943	-57.003350	236.32	-0.030	-0.280	1.170	236.25	-1.60	1.60	 	 	 	 	 	 	 	 	 	 	 	 	 	 	 	 	 	 	1581545696	10.96	20.30
12/02/2020 22:14:57	120220	12022020	221457	236.00	12.262917	-57.003395	236.02	-0.100	-0.080	1.260	235.94	-1.40	1.70	 	 	 	 	 	 	 	 	 	 	 	 	 	 	 	 	 	 	1581545697	11.09	20.54
12/02/2020 22:14:58	120220	12022020	221458	235.70	12.262888	-57.003440	235.74	-0.200	-0.030	1.280	235.65	-1.40	1.70	 	 	 	 	 	 	 	 	 	 	 	 	 	 	 	 	 	 	1581545698	11.24	20.82
12/02/2020 22:14:59	120220	12022020	221459	235.51	12.262862	-57.003487	235.58	-0.280	-0.110	1.350	235.48	-1.40	1.70	 	 	 	 	 	 	 	 	 	 	 	 	 	 	 	 	 	 	1581545699	11.33	20.98
12/02/2020 22:15:00	120220	12022020	221500	235.44	12.262837	-57.003533	235.55	-0.310	-0.270	1.380	235.46	-1.60	1.70	 	 	 	 	 	 	 	 	 	 	 	 	 	 	 	 	 	 	1581545700	11.37	21.06
12/02/2020 22:15:01	120220	12022020	221501	235.66	12.262810	-57.003578	235.85	-0.270	-0.340	1.160	235.75	-1.60	1.50	 	 	 	 	 	 	 	 	 	 	 	 	 	 	 	 	 	 	1581545701	11.25	20.84
12/02/2020 22:15:02	120220	12022020	221502	236.25	12.262783	-57.003623	236.49	-0.250	-0.180	0.730	236.39	-1.40	1.00	1015.00	26.40	26.60	21.00	21.10	-2.0	72.0	71.0	387.0	25.7	218.00	4.60	73.00	9.70	21	8606.0	27.4	27.4	1581545702	10.93	20.24
12/02/2020 22:15:03	120220	12022020	221503	237.03	12.262758	-57.003667	237.26	-0.300	0.170	0.280	237.19	-1.10	0.60	 	 	 	 	 	 	 	 	 	 	 	 	 	 	 	 	 	 	1581545703	10.54	19.52
12/02/2020 22:15:04	120220	12022020	221504	237.72	12.262733	-57.003708	237.88	-0.300	0.360	0.050	237.82	-1.00	0.40	 	 	 	 	 	 	 	 	 	 	 	 	 	 	 	 	 	 	1581545704	10.39	19.24
12/02/2020 22:15:05	120220	12022020	221505	238.01	12.262707	-57.003752	238.05	-0.060	0.090	0.210	238.02	-1.30	0.60	 	 	 	 	 	 	 	 	 	 	 	 	 	 	 	 	 	 	1581545705	10.70	19.82
12/02/2020 22:15:06	120220	12022020	221506	237.89	12.262680	-57.003797	237.85	0.410	-0.530	0.540	237.89	-1.90	1.00	 	 	 	 	 	 	 	 	 	 	 	 	 	 	 	 	 	 	1581545706	11.17	20.69
12/02/2020 22:15:07	120220	12022020	221507	237.44	12.262652	-57.003842	237.34	0.800	-1.050	1.040	237.32	-2.40	1.50	 	 	 	 	 	 	 	 	 	 	 	 	 	 	 	 	 	 	1581545707	11.30	20.93
12/02/2020 22:15:08	120220	12022020	221508	236.76	12.262625	-57.003887	236.64	0.770	-1.110	1.480	236.62	-2.40	1.90	 	 	 	 	 	 	 	 	 	 	 	 	 	 	 	 	 	 	1581545708	11.00	20.37
12/02/2020 22:15:09	120220	12022020	221509	236.06	12.262602	-57.003930	235.97	0.340	-0.780	1.700	235.94	-2.00	2.10	 	 	 	 	 	 	 	 	 	 	 	 	 	 	 	 	 	 	1581545709	10.66	19.74
12/02/2020 22:15:10	120220	12022020	221510	235.50	12.262578	-57.003975	235.47	-0.180	-0.450	1.780	235.42	-1.70	2.20	 	 	 	 	 	 	 	 	 	 	 	 	 	 	 	 	 	 	1581545710	10.72	19.85
12/02/2020 22:15:11	120220	12022020	221511	235.20	12.262555	-57.004022	235.22	-0.450	-0.380	1.690	235.17	-1.70	2.00	 	 	 	 	 	 	 	 	 	 	 	 	 	 	 	 	 	 	1581545711	11.07	20.50
12/02/2020 22:15:12	120220	12022020	221512	235.19	12.262530	-57.004068	235.28	-0.440	-0.450	1.380	235.22	-1.80	1.70	 	 	 	 	 	 	 	 	 	 	 	 	 	 	 	 	 	 	1581545712	11.34	21.00
12/02/2020 22:15:13	120220	12022020	221513	235.49	12.262503	-57.004115	235.63	-0.320	-0.460	0.950	235.58	-1.80	1.30	 	 	 	 	 	 	 	 	 	 	 	 	 	 	 	 	 	 	1581545713	11.32	20.96
12/02/2020 22:15:14	120220	12022020	221514	235.97	12.262477	-57.004160	236.14	-0.270	-0.270	0.620	236.08	-1.60	1.00	 	 	 	 	 	 	 	 	 	 	 	 	 	 	 	 	 	 	1581545714	11.12	20.59
12/02/2020 22:15:15	120220	12022020	221515	236.51	12.262450	-57.004203	236.68	-0.270	0.110	0.440	236.62	-1.20	0.80	 	 	 	 	 	 	 	 	 	 	 	 	 	 	 	 	 	 	1581545715	10.82	20.04
12/02/2020 22:15:16	120220	12022020	221516	237.05	12.262423	-57.004245	237.20	-0.220	0.430	0.390	237.15	-0.90	0.80	 	 	 	 	 	 	 	 	 	 	 	 	 	 	 	 	 	 	1581545716	10.65	19.72
12/02/2020 22:15:17	120220	12022020	221517	237.48	12.262395	-57.004288	237.58	-0.040	0.330	0.500	237.54	-1.10	0.90	 	 	 	 	 	 	 	 	 	 	 	 	 	 	 	 	 	 	1581545717	10.88	20.15
12/02/2020 22:15:18	120220	12022020	221518	237.70	12.262368	-57.004333	237.76	0.200	-0.140	0.800	237.70	-1.50	1.20	 	 	 	 	 	 	 	 	 	 	 	 	 	 	 	 	 	 	1581545718	11.20	20.74
12/02/2020 22:15:19	120220	12022020	221519	237.70	12.262342	-57.004380	237.69	0.370	-0.590	1.200	237.66	-2.00	1.70	 	 	 	 	 	 	 	 	 	 	 	 	 	 	 	 	 	 	1581545719	11.20	20.74
12/02/2020 22:15:20	120220	12022020	221520	237.31	12.262317	-57.004425	237.21	0.370	-0.880	1.680	237.31	-2.20	2.10	 	 	 	 	 	 	 	 	 	 	 	 	 	 	 	 	 	 	1581545720	11.04	20.45
12/02/2020 22:15:21	120220	12022020	221521	236.57	12.262292	-57.004470	236.46	0.190	-0.940	2.030	236.42	-2.20	2.40	 	 	 	 	 	 	 	 	 	 	 	 	 	 	 	 	 	 	1581545721	10.99	20.35
12/02/2020 22:15:22	120220	12022020	221522	235.83	12.262267	-57.004515	235.77	-0.060	-0.740	2.010	235.71	-2.00	2.40	 	 	 	 	 	 	 	 	 	 	 	 	 	 	 	 	 	 	1581545722	10.83	20.06
12/02/2020 22:15:23	120220	12022020	221523	235.33	12.262242	-57.004558	235.35	-0.250	-0.480	1.610	235.27	-1.80	1.90	 	 	 	 	 	 	 	 	 	 	 	 	 	 	 	 	 	 	1581545723	10.75	19.91
12/02/2020 22:15:24	120220	12022020	221524	235.19	12.262215	-57.004603	235.28	-0.280	-0.410	1.020	235.20	-1.70	1.30	 	 	 	 	 	 	 	 	 	 	 	 	 	 	 	 	 	 	1581545724	10.93	20.24
12/02/2020 22:15:25	120220	12022020	221525	235.41	12.262187	-57.004647	235.57	-0.220	-0.440	0.520	235.49	-1.80	0.90	 	 	 	 	 	 	 	 	 	 	 	 	 	 	 	 	 	 	1581545725	11.17	20.69
12/02/2020 22:15:26	120220	12022020	221526	235.91	12.262160	-57.004693	236.10	-0.150	-0.330	0.290	236.03	-1.60	0.70	 	 	 	 	 	 	 	 	 	 	 	 	 	 	 	 	 	 	1581545726	11.14	20.63
12/02/2020 22:15:27	120220	12022020	221527	236.58	12.262135	-57.004737	236.78	-0.070	0.010	0.300	236.72	-1.30	0.70	 	 	 	 	 	 	 	 	 	 	 	 	 	 	 	 	 	 	1581545727	10.89	20.17
12/02/2020 22:15:28	120220	12022020	221528	237.23	12.262110	-57.004780	237.40	0.030	0.360	0.490	237.35	-0.90	0.90	 	 	 	 	 	 	 	 	 	 	 	 	 	 	 	 	 	 	1581545728	10.65	19.72
12/02/2020 22:15:29	120220	12022020	221529	237.67	12.262083	-57.004823	237.75	0.160	0.340	0.820	237.72	-1.00	1.30	 	 	 	 	 	 	 	 	 	 	 	 	 	 	 	 	 	 	1581545729	10.77	19.95
12/02/2020 22:15:30	120220	12022020	221530	237.77	12.262057	-57.004870	237.79	0.290	-0.150	1.190	237.76	-1.60	1.60	 	 	 	 	 	 	 	 	 	 	 	 	 	 	 	 	 	 	1581545730	11.17	20.69
12/02/2020 22:15:31	120220	12022020	221531	237.61	12.262032	-57.004917	237.58	0.330	-0.740	1.550	237.55	-2.10	2.00	 	 	 	 	 	 	 	 	 	 	 	 	 	 	 	 	 	 	1581545731	11.37	21.06
12/02/2020 22:15:32	120220	12022020	221532	237.24	12.262007	-57.004963	237.16	0.230	-1.020	1.770	237.14	-2.30	2.20	 	 	 	 	 	 	 	 	 	 	 	 	 	 	 	 	 	 	1581545732	11.20	20.74
12/02/2020 22:15:33	120220	12022020	221533	236.75	12.261983	-57.005008	236.70	0.040	-0.840	1.670	236.67	-2.10	2.00	 	 	 	 	 	 	 	 	 	 	 	 	 	 	 	 	 	 	1581545733	10.77	19.95
12/02/2020 22:15:34	120220	12022020	221534	236.34	12.261958	-57.005052	236.31	-0.070	-0.590	1.360	236.28	-1.90	1.70	 	 	 	 	 	 	 	 	 	 	 	 	 	 	 	 	 	 	1581545734	10.67	19.76
12/02/2020 22:15:35	120220	12022020	221535	236.05	12.261932	-57.005095	236.05	-0.060	-0.460	1.070	236.02	-1.80	1.40	 	 	 	 	 	 	 	 	 	 	 	 	 	 	 	 	 	 	1581545735	10.98	20.33
12/02/2020 22:15:36	120220	12022020	221536	235.97	12.261903	-57.005140	236.03	-0.060	-0.290	0.730	235.98	-1.60	1.10	 	 	 	 	 	 	 	 	 	 	 	 	 	 	 	 	 	 	1581545736	11.08	20.52
12/02/2020 22:15:37	120220	12022020	221537	236.12	12.261875	-57.005183	236.23	-0.130	-0.080	0.400	236.17	-1.40	0.80	 	 	 	 	 	 	 	 	 	 	 	 	 	 	 	 	 	 	1581545737	10.99	20.35
12/02/2020 22:15:38	120220	12022020	221538	236.43	12.261847	-57.005227	236.55	-0.220	-0.020	0.290	236.51	-1.30	0.70	 	 	 	 	 	 	 	 	 	 	 	 	 	 	 	 	 	 	1581545738	11.05	20.46
12/02/2020 22:15:39	120220	12022020	221539	236.83	12.261820	-57.005272	236.96	-0.250	-0.050	0.470	236.91	-1.40	0.90	 	 	 	 	 	 	 	 	 	 	 	 	 	 	 	 	 	 	1581545739	11.10	20.56
12/02/2020 22:15:40	120220	12022020	221540	237.16	12.261793	-57.005317	237.29	-0.220	-0.180	0.830	237.21	-1.50	1.30	 	 	 	 	 	 	 	 	 	 	 	 	 	 	 	 	 	 	1581545740	11.09	20.54
12/02/2020 22:15:41	120220	12022020	221541	237.37	12.261768	-57.005362	237.47	-0.150	-0.410	1.130	237.40	-1.80	1.60	 	 	 	 	 	 	 	 	 	 	 	 	 	 	 	 	 	 	1581545741	11.11	20.58
12/02/2020 22:15:42	120220	12022020	221542	237.53	12.261745	-57.005408	237.62	-0.070	-0.690	1.260	237.57	-2.00	1.60	 	 	 	 	 	 	 	 	 	 	 	 	 	 	 	 	 	 	1581545742	11.18	20.71
12/02/2020 22:15:43	120220	12022020	221543	237.77	12.261720	-57.005455	237.86	0.060	-0.760	1.120	237.81	-2.10	1.50	 	 	 	 	 	 	 	 	 	 	 	 	 	 	 	 	 	 	1581545743	11.10	20.56
12/02/2020 22:15:44	120220	12022020	221544	237.92	12.261695	-57.005500	237.94	0.260	-0.520	0.930	237.92	-1.80	1.30	 	 	 	 	 	 	 	 	 	 	 	 	 	 	 	 	 	 	1581545744	10.85	20.09
12/02/2020 22:15:45	120220	12022020	221545	237.86	12.261670	-57.005543	237.84	0.450	-0.130	0.840	237.81	-1.40	1.20	 	 	 	 	 	 	 	 	 	 	 	 	 	 	 	 	 	 	1581545745	10.69	19.80
12/02/2020 22:15:46	120220	12022020	221546	237.51	12.261643	-57.005588	237.45	0.470	-0.010	0.940	237.42	-1.30	1.40	 	 	 	 	 	 	 	 	 	 	 	 	 	 	 	 	 	 	1581545746	10.88	20.15
12/02/2020 22:15:47	120220	12022020	221547	236.92	12.261617	-57.005633	236.83	0.280	-0.250	1.170	236.80	-1.60	1.60	 	 	 	 	 	 	 	 	 	 	 	 	 	 	 	 	 	 	1581545747	11.30	20.93
12/02/2020 22:15:48	120220	12022020	221548	236.27	12.261590	-57.005680	236.19	-0.020	-0.460	1.460	236.15	-1.80	1.90	 	 	 	 	 	 	 	 	 	 	 	 	 	 	 	 	 	 	1581545748	11.46	21.22
12/02/2020 22:15:49	120220	12022020	221549	235.76	12.261565	-57.005727	235.74	-0.300	-0.350	1.650	235.70	-1.60	2.00	 	 	 	 	 	 	 	 	 	 	 	 	 	 	 	 	 	 	1581545749	11.14	20.63
12/02/2020 22:15:50	120220	12022020	221550	235.56	12.261542	-57.005772	235.62	-0.400	-0.130	1.550	235.56	-1.40	1.90	 	 	 	 	 	 	 	 	 	 	 	 	 	 	 	 	 	 	1581545750	10.86	20.11
12/02/2020 22:15:51	120220	12022020	221551	235.71	12.261515	-57.005817	235.85	-0.300	-0.100	1.160	235.79	-1.40	1.50	 	 	 	 	 	 	 	 	 	 	 	 	 	 	 	 	 	 	1581545751	10.92	20.22
12/02/2020 22:15:52	120220	12022020	221552	236.18	12.261488	-57.005860	236.35	-0.110	-0.260	0.680	236.30	-1.60	1.00	 	 	 	 	 	 	 	 	 	 	 	 	 	 	 	 	 	 	1581545752	11.06	20.48
12/02/2020 22:15:53	120220	12022020	221553	236.82	12.261460	-57.005905	237.01	0.040	-0.420	0.250	236.97	-1.80	0.60	 	 	 	 	 	 	 	 	 	 	 	 	 	 	 	 	 	 	1581545753	11.04	20.45
12/02/2020 22:15:54	120220	12022020	221554	237.53	12.261432	-57.005948	237.70	0.120	-0.500	-0.010	237.66	-1.80	0.40	 	 	 	 	 	 	 	 	 	 	 	 	 	 	 	 	 	 	1581545754	10.90	20.19
12/02/2020 22:15:55	120220	12022020	221555	238.06	12.261405	-57.005992	238.16	0.160	-0.540	0.080	238.12	-1.90	0.50	 	 	 	 	 	 	 	 	 	 	 	 	 	 	 	 	 	 	1581545755	10.87	20.13
12/02/2020 22:15:56	120220	12022020	221556	238.30	12.261380	-57.006035	238.35	0.150	-0.500	0.450	238.32	-1.80	0.90	 	 	 	 	 	 	 	 	 	 	 	 	 	 	 	 	 	 	1581545756	10.87	20.13
12/02/2020 22:15:57	120220	12022020	221557	238.31	12.261355	-57.006080	238.32	0.050	-0.380	0.900	238.28	-1.70	1.40	 	 	 	 	 	 	 	 	 	 	 	 	 	 	 	 	 	 	1581545757	10.84	20.08
12/02/2020 22:15:58	120220	12022020	221558	238.08	12.261332	-57.006125	238.03	-0.110	-0.340	1.290	238.01	-1.70	1.70	 	 	 	 	 	 	 	 	 	 	 	 	 	 	 	 	 	 	1581545758	10.95	20.28
12/02/2020 22:15:59	120220	12022020	221559	237.66	12.261307	-57.006172	237.60	-0.230	-0.410	1.480	237.58	-1.80	1.90	 	 	 	 	 	 	 	 	 	 	 	 	 	 	 	 	 	 	1581545759	11.13	20.61
12/02/2020 22:16:00	120220	12022020	221600	237.20	12.261282	-57.006218	237.12	-0.200	-0.600	1.420	237.10	-1.90	1.80	 	 	 	 	 	 	 	 	 	 	 	 	 	 	 	 	 	 	1581545760	11.30	20.93
12/02/2020 22:16:01	120220	12022020	221601	236.77	12.261255	-57.006265	236.72	-0.060	-0.750	1.270	236.70	-2.10	1.60	 	 	 	 	 	 	 	 	 	 	 	 	 	 	 	 	 	 	1581545761	11.40	21.11
12/02/2020 22:16:02	120220	12022020	221602	236.49	12.261228	-57.006312	236.47	0.090	-0.670	1.040	236.45	-2.00	1.40	1015.00	26.30	26.40	20.90	20.90	-2.0	72.0	72.0	387.0	25.7	214.00	4.20	71.00	9.40	20	8502.0	27.4	27.4	1581545762	11.27	20.87
12/02/2020 22:16:03	120220	12022020	221603	236.33	12.261203	-57.006357	236.34	0.130	-0.390	0.840	236.31	-1.70	1.20	 	 	 	 	 	 	 	 	 	 	 	 	 	 	 	 	 	 	1581545763	11.08	20.52
12/02/2020 22:16:04	120220	12022020	221604	236.27	12.261177	-57.006402	236.30	0.030	-0.040	0.810	236.27	-1.30	1.20	 	 	 	 	 	 	 	 	 	 	 	 	 	 	 	 	 	 	1581545764	10.98	20.33
12/02/2020 22:16:05	120220	12022020	221605	236.27	12.261150	-57.006447	236.33	-0.160	0.210	1.010	236.29	-1.10	1.40	 	 	 	 	 	 	 	 	 	 	 	 	 	 	 	 	 	 	1581545765	11.01	20.39
12/02/2020 22:16:06	120220	12022020	221606	236.48	12.261125	-57.006492	236.62	-0.300	0.380	1.220	236.56	-0.90	1.60	 	 	 	 	 	 	 	 	 	 	 	 	 	 	 	 	 	 	1581545766	11.06	20.48
12/02/2020 22:16:07	120220	12022020	221607	237.03	12.261100	-57.006537	237.22	-0.300	0.530	1.170	237.17	-0.80	1.50	 	 	 	 	 	 	 	 	 	 	 	 	 	 	 	 	 	 	1581545767	10.84	20.08
12/02/2020 22:16:08	120220	12022020	221608	237.74	12.261075	-57.006580	237.93	-0.090	0.360	0.940	237.74	-1.00	1.30	 	 	 	 	 	 	 	 	 	 	 	 	 	 	 	 	 	 	1581545768	10.82	20.04
12/02/2020 22:16:09	120220	12022020	221609	238.39	12.261048	-57.006625	238.54	0.230	-0.220	0.670	238.51	-1.60	1.00	 	 	 	 	 	 	 	 	 	 	 	 	 	 	 	 	 	 	1581545769	11.07	20.50
12/02/2020 22:16:10	120220	12022020	221610	238.89	12.261022	-57.006672	238.98	0.440	-0.900	0.690	238.96	-2.30	1.10	 	 	 	 	 	 	 	 	 	 	 	 	 	 	 	 	 	 	1581545770	11.19	20.72
12/02/2020 22:16:11	120220	12022020	221611	239.11	12.260998	-57.006717	239.12	0.430	-1.360	1.030	239.10	-2.70	1.50	 	 	 	 	 	 	 	 	 	 	 	 	 	 	 	 	 	 	1581545771	11.06	20.48
12/02/2020 22:16:12	120220	12022020	221612	238.88	12.260975	-57.006763	238.79	0.300	-1.460	1.580	238.78	-2.80	2.10	 	 	 	 	 	 	 	 	 	 	 	 	 	 	 	 	 	 	1581545772	10.89	20.17
12/02/2020 22:16:13	120220	12022020	221613	238.19	12.260953	-57.006810	238.03	0.180	-1.220	2.170	238.01	-2.50	2.60	 	 	 	 	 	 	 	 	 	 	 	 	 	 	 	 	 	 	1581545773	10.83	20.06
12/02/2020 22:16:14	120220	12022020	221614	237.34	12.260930	-57.006855	237.21	0.060	-0.760	2.420	237.19	-2.00	2.80	 	 	 	 	 	 	 	 	 	 	 	 	 	 	 	 	 	 	1581545774	10.88	20.15
12/02/2020 22:16:15	120220	12022020	221615	236.75	12.260905	-57.006900	236.69	-0.080	-0.240	2.170	236.68	-1.50	2.50	 	 	 	 	 	 	 	 	 	 	 	 	 	 	 	 	 	 	1581545775	10.97	20.32
12/02/2020 22:16:16	120220	12022020	221616	236.61	12.260878	-57.006945	236.64	-0.230	0.160	1.620	236.64	-1.10	1.90	 	 	 	 	 	 	 	 	 	 	 	 	 	 	 	 	 	 	1581545776	11.05	20.46
12/02/2020 22:16:17	120220	12022020	221617	236.86	12.260850	-57.006990	236.92	-0.310	0.300	1.130	236.93	-1.00	1.50	 	 	 	 	 	 	 	 	 	 	 	 	 	 	 	 	 	 	1581545777	11.22	20.78
12/02/2020 22:16:18	120220	12022020	221618	237.23	12.260823	-57.007035	237.31	-0.290	0.220	0.890	237.31	-1.10	1.30	 	 	 	 	 	 	 	 	 	 	 	 	 	 	 	 	 	 	1581545778	11.36	21.04
12/02/2020 22:16:19	120220	12022020	221619	237.66	12.260797	-57.007083	237.74	-0.160	-0.000	0.890	237.75	-1.40	1.30	 	 	 	 	 	 	 	 	 	 	 	 	 	 	 	 	 	 	1581545779	11.40	21.11
12/02/2020 22:16:20	120220	12022020	221620	238.04	12.260772	-57.007130	238.10	-0.010	-0.270	1.090	238.10	-1.60	1.50	 	 	 	 	 	 	 	 	 	 	 	 	 	 	 	 	 	 	1581545780	11.38	21.08
12/02/2020 22:16:21	120220	12022020	221621	238.20	12.260748	-57.007177	238.20	0.070	-0.410	1.390	238.21	-1.70	1.80	 	 	 	 	 	 	 	 	 	 	 	 	 	 	 	 	 	 	1581545781	11.25	20.84
12/02/2020 22:16:22	120220	12022020	221622	238.23	12.260723	-57.007223	238.24	0.020	-0.290	1.570	238.23	-1.60	2.00	 	 	 	 	 	 	 	 	 	 	 	 	 	 	 	 	 	 	1581545782	10.94	20.26
12/02/2020 22:16:23	120220	12022020	221623	238.29	12.260702	-57.007267	238.29	-0.060	-0.040	1.520	238.30	-1.30	1.90	 	 	 	 	 	 	 	 	 	 	 	 	 	 	 	 	 	 	1581545783	10.63	19.69
12/02/2020 22:16:24	120220	12022020	221624	238.25	12.260677	-57.007312	238.21	-0.020	0.040	1.360	238.22	-1.30	1.70	 	 	 	 	 	 	 	 	 	 	 	 	 	 	 	 	 	 	1581545784	10.62	19.67
12/02/2020 22:16:25	120220	12022020	221625	238.03	12.260652	-57.007357	237.96	0.140	-0.220	1.140	237.97	-1.60	1.50	 	 	 	 	 	 	 	 	 	 	 	 	 	 	 	 	 	 	1581545785	10.89	20.17
12/02/2020 22:16:26	120220	12022020	221626	237.69	12.260625	-57.007402	237.61	0.280	-0.660	0.920	237.61	-2.00	1.30	 	 	 	 	 	 	 	 	 	 	 	 	 	 	 	 	 	 	1581545786	11.15	20.65
12/02/2020 22:16:27	120220	12022020	221627	237.24	12.260598	-57.007447	237.15	0.300	-1.010	0.840	237.14	-2.40	1.20	 	 	 	 	 	 	 	 	 	 	 	 	 	 	 	 	 	 	1581545787	11.16	20.67
12/02/2020 22:16:28	120220	12022020	221628	236.72	12.260572	-57.007492	236.63	0.220	-1.090	0.900	236.62	-2.40	1.30	 	 	 	 	 	 	 	 	 	 	 	 	 	 	 	 	 	 	1581545788	11.03	20.43
12/02/2020 22:16:29	120220	12022020	221629	236.31	12.260547	-57.007537	236.27	0.130	-0.920	0.920	236.26	-2.20	1.30	 	 	 	 	 	 	 	 	 	 	 	 	 	 	 	 	 	 	1581545789	10.92	20.22
12/02/2020 22:16:30	120220	12022020	221630	236.21	12.260522	-57.007582	236.26	0.040	-0.650	0.850	236.25	-1.90	1.20	 	 	 	 	 	 	 	 	 	 	 	 	 	 	 	 	 	 	1581545790	10.97	20.32
12/02/2020 22:16:31	120220	12022020	221631	236.54	12.260495	-57.007627	236.67	-0.120	-0.380	0.690	236.66	-1.70	1.10	 	 	 	 	 	 	 	 	 	 	 	 	 	 	 	 	 	 	1581545791	11.09	20.54
12/02/2020 22:16:32	120220	12022020	221632	237.18	12.260470	-57.007672	237.34	-0.310	-0.010	0.520	237.18	-1.30	0.90	 	 	 	 	 	 	 	 	 	 	 	 	 	 	 	 	 	 	1581545792	11.10	20.56
12/02/2020 22:16:33	120220	12022020	221633	237.83	12.260443	-57.007717	237.97	-0.380	0.400	0.540	237.94	-0.90	1.00	 	 	 	 	 	 	 	 	 	 	 	 	 	 	 	 	 	 	1581545793	10.95	20.28
12/02/2020 22:16:34	120220	12022020	221634	238.26	12.260418	-57.007762	238.33	-0.300	0.590	0.850	238.30	-0.80	1.30	 	 	 	 	 	 	 	 	 	 	 	 	 	 	 	 	 	 	1581545794	10.95	20.28
12/02/2020 22:16:35	120220	12022020	221635	238.34	12.260393	-57.007808	238.33	-0.100	0.370	1.300	238.31	-1.00	1.80	 	 	 	 	 	 	 	 	 	 	 	 	 	 	 	 	 	 	1581545795	11.17	20.69
12/02/2020 22:16:36	120220	12022020	221636	238.04	12.260368	-57.007855	237.96	0.110	-0.110	1.660	237.94	-1.50	2.10	 	 	 	 	 	 	 	 	 	 	 	 	 	 	 	 	 	 	1581545796	11.34	21.00
12/02/2020 22:16:37	120220	12022020	221637	237.43	12.260343	-57.007902	237.30	0.260	-0.570	1.710	237.30	-2.00	2.10	 	 	 	 	 	 	 	 	 	 	 	 	 	 	 	 	 	 	1581545797	11.22	20.78
12/02/2020 22:16:38	120220	12022020	221638	236.70	12.260317	-57.007947	236.56	0.290	-0.910	1.520	236.55	-2.30	1.90	 	 	 	 	 	 	 	 	 	 	 	 	 	 	 	 	 	 	1581545798	11.05	20.46
12/02/2020 22:16:39	120220	12022020	221639	236.04	12.260290	-57.007990	235.95	0.180	-1.070	1.160	235.94	-2.40	1.50	 	 	 	 	 	 	 	 	 	 	 	 	 	 	 	 	 	 	1581545799	10.96	20.30
12/02/2020 22:16:40	120220	12022020	221640	235.77	12.260263	-57.008033	235.78	-0.010	-0.970	0.650	235.77	-2.30	1.00	 	 	 	 	 	 	 	 	 	 	 	 	 	 	 	 	 	 	1581545800	10.82	20.04
12/02/2020 22:16:41	120220	12022020	221641	235.94	12.260238	-57.008077	236.02	-0.170	-0.630	0.090	236.03	-1.90	0.40	 	 	 	 	 	 	 	 	 	 	 	 	 	 	 	 	 	 	1581545801	10.68	19.78
12/02/2020 22:16:42	120220	12022020	221642	236.43	12.260212	-57.008120	236.55	-0.220	-0.300	-0.350	236.55	-1.60	0.00	 	 	 	 	 	 	 	 	 	 	 	 	 	 	 	 	 	 	1581545802	10.72	19.85
12/02/2020 22:16:43	120220	12022020	221643	237.03	12.260185	-57.008163	237.16	-0.160	-0.040	-0.450	237.15	-1.40	-0.00	 	 	 	 	 	 	 	 	 	 	 	 	 	 	 	 	 	 	1581545803	10.90	20.19
12/02/2020 22:16:44	120220	12022020	221644	237.60	12.260158	-57.008208	237.71	-0.100	0.100	-0.270	237.70	-1.20	0.20	 	 	 	 	 	 	 	 	 	 	 	 	 	 	 	 	 	 	1581545804	10.97	20.32
12/02/2020 22:16:45	120220	12022020	221645	238.05	12.260132	-57.008253	238.15	-0.100	0.060	-0.030	238.13	-1.30	0.40	 	 	 	 	 	 	 	 	 	 	 	 	 	 	 	 	 	 	1581545805	11.11	20.58
12/02/2020 22:16:46	120220	12022020	221646	238.37	12.260107	-57.008300	238.41	-0.100	-0.100	0.280	238.37	-1.50	0.70	 	 	 	 	 	 	 	 	 	 	 	 	 	 	 	 	 	 	1581545806	11.19	20.72
12/02/2020 22:16:47	120220	12022020	221647	238.41	12.260082	-57.008345	238.39	-0.020	-0.260	0.720	238.38	-1.60	1.20	 	 	 	 	 	 	 	 	 	 	 	 	 	 	 	 	 	 	1581545807	11.16	20.67
12/02/2020 22:16:48	120220	12022020	221648	238.19	12.260057	-57.008392	238.14	0.100	-0.390	1.130	238.14	-1.70	1.50	 	 	 	 	 	 	 	 	 	 	 	 	 	 	 	 	 	 	1581545808	11.09	20.54
12/02/2020 22:16:49	120220	12022020	221649	237.89	12.260032	-57.008437	237.83	0.200	-0.470	1.300	237.84	-1.80	1.70	 	 	 	 	 	 	 	 	 	 	 	 	 	 	 	 	 	 	1581545809	11.02	20.41
12/02/2020 22:16:50	120220	12022020	221650	237.66	12.260007	-57.008482	237.61	0.210	-0.490	1.190	237.61	-1.80	1.50	 	 	 	 	 	 	 	 	 	 	 	 	 	 	 	 	 	 	1581545810	10.93	20.24
12/02/2020 22:16:51	120220	12022020	221651	237.43	12.259982	-57.008527	237.37	0.140	-0.470	1.090	237.37	-1.80	1.50	 	 	 	 	 	 	 	 	 	 	 	 	 	 	 	 	 	 	1581545811	10.88	20.15
12/02/2020 22:16:52	120220	12022020	221652	237.08	12.259955	-57.008570	237.00	-0.020	-0.440	1.120	237.00	-1.80	1.50	 	 	 	 	 	 	 	 	 	 	 	 	 	 	 	 	 	 	1581545812	10.90	20.19
12/02/2020 22:16:53	120220	12022020	221653	236.66	12.259930	-57.008615	236.59	-0.200	-0.420	1.260	236.59	-1.80	1.70	 	 	 	 	 	 	 	 	 	 	 	 	 	 	 	 	 	 	1581545813	10.96	20.30
12/02/2020 22:16:54	120220	12022020	221654	236.36	12.259905	-57.008662	236.33	-0.300	-0.420	1.380	236.32	-1.80	1.80	 	 	 	 	 	 	 	 	 	 	 	 	 	 	 	 	 	 	1581545814	11.04	20.45
12/02/2020 22:16:55	120220	12022020	221655	236.31	12.259882	-57.008708	236.32	-0.250	-0.450	1.200	236.32	-1.80	1.50	 	 	 	 	 	 	 	 	 	 	 	 	 	 	 	 	 	 	1581545815	11.07	20.50
12/02/2020 22:16:56	120220	12022020	221656	236.47	12.259855	-57.008753	236.52	-0.030	-0.540	0.810	236.52	-1.90	1.10	 	 	 	 	 	 	 	 	 	 	 	 	 	 	 	 	 	 	1581545816	11.16	20.67
12/02/2020 22:16:57	120220	12022020	221657	236.80	12.259828	-57.008798	236.90	0.160	-0.490	0.400	236.90	-1.80	0.70	 	 	 	 	 	 	 	 	 	 	 	 	 	 	 	 	 	 	1581545817	11.15	20.65
12/02/2020 22:16:58	120220	12022020	221658	237.32	12.259802	-57.008842	237.43	0.120	-0.210	0.080	237.43	-1.50	0.40	 	 	 	 	 	 	 	 	 	 	 	 	 	 	 	 	 	 	1581545818	10.89	20.17
12/02/2020 22:16:59	120220	12022020	221659	237.83	12.259775	-57.008887	237.90	-0.100	-0.040	0.020	237.92	-1.40	0.40	 	 	 	 	 	 	 	 	 	 	 	 	 	 	 	 	 	 	1581545819	10.85	20.09
12/02/2020 22:17:00	120220	12022020	221700	238.20	12.259750	-57.008932	238.24	-0.220	-0.030	0.230	238.20	-1.40	0.70	 	 	 	 	 	 	 	 	 	 	 	 	 	 	 	 	 	 	1581545820	11.05	20.46
12/02/2020 22:17:01	120220	12022020	221701	238.34	12.259723	-57.008977	238.33	-0.090	-0.090	0.640	238.34	-1.40	1.10	 	 	 	 	 	 	 	 	 	 	 	 	 	 	 	 	 	 	1581545821	11.13	20.61
12/02/2020 22:17:02	120220	12022020	221702	238.19	12.259700	-57.009023	238.13	0.180	-0.170	1.180	238.12	-1.50	1.60	1015.00	26.20	26.30	20.80	20.90	-2.0	72.0	72.0	386.0	25.7	211.00	4.30	71.00	9.60	19	10744.0	27.4	27.4	1581545822	11.14	20.63
12/02/2020 22:17:03	120220	12022020	221703	237.78	12.259675	-57.009068	237.69	0.320	-0.200	1.610	237.68	-1.50	2.00	 	 	 	 	 	 	 	 	 	 	 	 	 	 	 	 	 	 	1581545823	11.04	20.45
12/02/2020 22:17:04	120220	12022020	221704	237.28	12.259650	-57.009113	237.20	0.250	-0.180	1.650	237.19	-1.50	2.00	 	 	 	 	 	 	 	 	 	 	 	 	 	 	 	 	 	 	1581545824	10.88	20.15
12/02/2020 22:17:05	120220	12022020	221705	236.88	12.259623	-57.009157	236.81	0.090	-0.200	1.340	236.81	-1.50	1.70	 	 	 	 	 	 	 	 	 	 	 	 	 	 	 	 	 	 	1581545825	10.76	19.93
12/02/2020 22:17:06	120220	12022020	221706	236.59	12.259597	-57.009200	236.53	0.060	-0.310	1.000	236.55	-1.70	1.30	 	 	 	 	 	 	 	 	 	 	 	 	 	 	 	 	 	 	1581545826	10.79	19.98
12/02/2020 22:17:07	120220	12022020	221707	236.41	12.259570	-57.009243	236.36	0.130	-0.580	0.760	236.38	-2.00	1.10	 	 	 	 	 	 	 	 	 	 	 	 	 	 	 	 	 	 	1581545827	10.93	20.24
12/02/2020 22:17:08	120220	12022020	221708	236.27	12.259543	-57.009290	236.25	0.200	-0.970	0.900	236.24	-2.40	1.30	 	 	 	 	 	 	 	 	 	 	 	 	 	 	 	 	 	 	1581545828	11.17	20.69
12/02/2020 22:17:09	120220	12022020	221709	236.16	12.259520	-57.009337	236.17	0.140	-1.220	1.270	236.14	-2.60	1.70	 	 	 	 	 	 	 	 	 	 	 	 	 	 	 	 	 	 	1581545829	11.34	21.00
12/02/2020 22:17:10	120220	12022020	221710	236.14	12.259497	-57.009385	236.19	-0.050	-1.070	1.420	236.16	-2.40	1.80	 	 	 	 	 	 	 	 	 	 	 	 	 	 	 	 	 	 	1581545830	11.19	20.72
12/02/2020 22:17:11	120220	12022020	221711	236.33	12.259472	-57.009430	236.43	-0.280	-0.610	1.140	236.39	-1.90	1.50	 	 	 	 	 	 	 	 	 	 	 	 	 	 	 	 	 	 	1581545831	10.90	20.19
12/02/2020 22:17:12	120220	12022020	221712	236.71	12.259445	-57.009473	236.81	-0.400	-0.120	0.810	236.78	-1.40	1.20	 	 	 	 	 	 	 	 	 	 	 	 	 	 	 	 	 	 	1581545832	10.85	20.09
12/02/2020 22:17:13	120220	12022020	221713	237.01	12.259418	-57.009518	237.06	-0.320	0.170	0.850	237.04	-1.10	1.30	 	 	 	 	 	 	 	 	 	 	 	 	 	 	 	 	 	 	1581545833	11.09	20.54
12/02/2020 22:17:14	120220	12022020	221714	237.07	12.259392	-57.009563	237.09	-0.140	0.300	1.160	237.06	-1.00	1.60	 	 	 	 	 	 	 	 	 	 	 	 	 	 	 	 	 	 	1581545834	11.29	20.91
12/02/2020 22:17:15	120220	12022020	221715	237.03	12.259365	-57.009610	237.05	-0.010	0.430	1.480	237.03	-0.90	1.90	 	 	 	 	 	 	 	 	 	 	 	 	 	 	 	 	 	 	1581545835	11.20	20.74
12/02/2020 22:17:16	120220	12022020	221716	237.02	12.259340	-57.009655	237.05	0.060	0.500	1.600	237.02	-0.80	2.00	 	 	 	 	 	 	 	 	 	 	 	 	 	 	 	 	 	 	1581545836	10.98	20.33
12/02/2020 22:17:17	120220	12022020	221717	237.06	12.259315	-57.009698	237.10	0.160	0.440	1.370	237.08	-0.90	1.70	 	 	 	 	 	 	 	 	 	 	 	 	 	 	 	 	 	 	1581545837	10.82	20.04
12/02/2020 22:17:18	120220	12022020	221718	237.14	12.259287	-57.009742	237.17	0.310	0.060	0.930	237.15	-1.30	1.30	 	 	 	 	 	 	 	 	 	 	 	 	 	 	 	 	 	 	1581545838	10.84	20.08
12/02/2020 22:17:19	120220	12022020	221719	237.17	12.259258	-57.009785	237.20	0.480	-0.580	0.630	237.17	-2.00	1.00	 	 	 	 	 	 	 	 	 	 	 	 	 	 	 	 	 	 	1581545839	11.03	20.43
12/02/2020 22:17:20	120220	12022020	221720	237.16	12.259232	-57.009830	237.16	0.560	-1.190	0.610	237.14	-2.60	1.00	 	 	 	 	 	 	 	 	 	 	 	 	 	 	 	 	 	 	1581545840	11.09	20.54
12/02/2020 22:17:21	120220	12022020	221721	237.02	12.259205	-57.009875	236.99	0.430	-1.530	0.870	236.97	-2.90	1.30	 	 	 	 	 	 	 	 	 	 	 	 	 	 	 	 	 	 	1581545841	11.02	20.41
12/02/2020 22:17:22	120220	12022020	221722	236.73	12.259180	-57.009920	236.70	0.120	-1.420	1.200	236.73	-2.70	1.60	 	 	 	 	 	 	 	 	 	 	 	 	 	 	 	 	 	 	1581545842	10.85	20.09
12/02/2020 22:17:23	120220	12022020	221723	236.44	12.259157	-57.009963	236.42	-0.240	-0.980	1.410	236.39	-2.30	1.80	 	 	 	 	 	 	 	 	 	 	 	 	 	 	 	 	 	 	1581545843	10.70	19.82
12/02/2020 22:17:24	120220	12022020	221724	236.22	12.259133	-57.010010	236.21	-0.450	-0.620	1.440	236.22	-1.90	1.80	 	 	 	 	 	 	 	 	 	 	 	 	 	 	 	 	 	 	1581545844	10.90	20.19
12/02/2020 22:17:25	120220	12022020	221725	236.10	12.259107	-57.010057	236.13	-0.480	-0.420	1.350	236.10	-1.70	1.70	 	 	 	 	 	 	 	 	 	 	 	 	 	 	 	 	 	 	1581545845	11.30	20.93
12/02/2020 22:17:26	120220	12022020	221726	236.15	12.259080	-57.010102	236.19	-0.400	-0.210	1.110	236.18	-1.50	1.40	 	 	 	 	 	 	 	 	 	 	 	 	 	 	 	 	 	 	1581545846	11.44	21.19
12/02/2020 22:17:27	120220	12022020	221727	236.32	12.259052	-57.010148	236.38	-0.290	0.100	0.900	236.36	-1.20	1.30	 	 	 	 	 	 	 	 	 	 	 	 	 	 	 	 	 	 	1581545847	11.35	21.02
12/02/2020 22:17:28	120220	12022020	221728	236.59	12.259025	-57.010193	236.67	-0.210	0.410	0.770	236.65	-0.90	1.10	 	 	 	 	 	 	 	 	 	 	 	 	 	 	 	 	 	 	1581545848	11.23	20.80
12/02/2020 22:17:29	120220	12022020	221729	236.87	12.258998	-57.010238	236.92	-0.110	0.680	0.800	236.91	-0.60	1.20	 	 	 	 	 	 	 	 	 	 	 	 	 	 	 	 	 	 	1581545849	11.08	20.52
12/02/2020 22:17:30	120220	12022020	221730	237.05	12.258973	-57.010283	237.09	0.040	0.800	0.800	237.08	-0.60	1.20	 	 	 	 	 	 	 	 	 	 	 	 	 	 	 	 	 	 	1581545850	10.89	20.17
12/02/2020 22:17:31	120220	12022020	221731	237.19	12.258947	-57.010327	237.19	0.260	0.440	0.640	237.20	-1.00	1.00	 	 	 	 	 	 	 	 	 	 	 	 	 	 	 	 	 	 	1581545851	10.99	20.35
12/02/2020 22:17:32	120220	12022020	221732	237.16	12.258918	-57.010372	237.11	0.470	-0.410	0.600	237.12	-1.90	1.00	 	 	 	 	 	 	 	 	 	 	 	 	 	 	 	 	 	 	1581545852	11.37	21.06
12/02/2020 22:17:33	120220	12022020	221733	236.93	12.258890	-57.010418	236.88	0.550	-1.200	0.710	236.88	-2.60	1.10	 	 	 	 	 	 	 	 	 	 	 	 	 	 	 	 	 	 	1581545853	11.45	21.21
12/02/2020 22:17:34	120220	12022020	221734	236.71	12.258862	-57.010462	236.69	0.350	-1.450	0.850	236.68	-2.80	1.30	 	 	 	 	 	 	 	 	 	 	 	 	 	 	 	 	 	 	1581545854	11.01	20.39
12/02/2020 22:17:35	120220	12022020	221735	236.61	12.258837	-57.010505	236.59	-0.020	-1.230	1.030	236.60	-2.50	1.40	 	 	 	 	 	 	 	 	 	 	 	 	 	 	 	 	 	 	1581545855	10.61	19.65
12/02/2020 22:17:36	120220	12022020	221736	236.56	12.258815	-57.010550	236.54	-0.320	-0.790	1.310	236.56	-2.10	1.70	 	 	 	 	 	 	 	 	 	 	 	 	 	 	 	 	 	 	1581545856	10.53	19.50
12/02/2020 22:17:37	120220	12022020	221737	236.39	12.258792	-57.010595	236.33	-0.370	-0.380	1.650	236.34	-1.70	2.10	 	 	 	 	 	 	 	 	 	 	 	 	 	 	 	 	 	 	1581545857	10.75	19.91
12/02/2020 22:17:38	120220	12022020	221738	236.11	12.258768	-57.010642	236.06	-0.170	-0.030	1.830	236.06	-1.30	2.20	 	 	 	 	 	 	 	 	 	 	 	 	 	 	 	 	 	 	1581545858	10.98	20.33
12/02/2020 22:17:39	120220	12022020	221739	235.94	12.258742	-57.010685	235.92	0.110	0.210	1.620	235.93	-1.10	1.90	 	 	 	 	 	 	 	 	 	 	 	 	 	 	 	 	 	 	1581545859	10.99	20.35
12/02/2020 22:17:40	120220	12022020	221740	235.94	12.258713	-57.010730	235.94	0.290	0.140	1.180	235.95	-1.20	1.50	 	 	 	 	 	 	 	 	 	 	 	 	 	 	 	 	 	 	1581545860	11.14	20.63
12/02/2020 22:17:41	120220	12022020	221741	236.06	12.258685	-57.010775	236.09	0.340	-0.290	0.810	236.10	-1.70	1.20	 	 	 	 	 	 	 	 	 	 	 	 	 	 	 	 	 	 	1581545861	11.44	21.19
12/02/2020 22:17:42	120220	12022020	221742	236.30	12.258655	-57.010822	236.35	0.320	-0.770	0.640	236.36	-2.20	1.00	 	 	 	 	 	 	 	 	 	 	 	 	 	 	 	 	 	 	1581545862	11.63	21.54
12/02/2020 22:17:43	120220	12022020	221743	236.64	12.258628	-57.010868	236.69	0.200	-0.950	0.580	236.71	-2.30	1.00	 	 	 	 	 	 	 	 	 	 	 	 	 	 	 	 	 	 	1581545863	11.44	21.19
12/02/2020 22:17:44	120220	12022020	221744	236.99	12.258602	-57.010913	237.04	-0.100	-0.790	0.670	237.06	-2.10	1.10	 	 	 	 	 	 	 	 	 	 	 	 	 	 	 	 	 	 	1581545864	11.13	20.61
12/02/2020 22:17:45	120220	12022020	221745	237.22	12.258575	-57.010958	237.23	-0.510	-0.570	0.950	237.24	-1.90	1.40	 	 	 	 	 	 	 	 	 	 	 	 	 	 	 	 	 	 	1581545865	11.10	20.56
12/02/2020 22:17:46	120220	12022020	221746	237.21	12.258550	-57.011005	237.18	-0.810	-0.340	1.360	237.18	-1.60	1.80	 	 	 	 	 	 	 	 	 	 	 	 	 	 	 	 	 	 	1581545866	11.23	20.80
12/02/2020 22:17:47	120220	12022020	221747	237.02	12.258523	-57.011050	236.98	-0.840	0.060	1.670	236.97	-1.20	2.10	 	 	 	 	 	 	 	 	 	 	 	 	 	 	 	 	 	 	1581545867	11.17	20.69
12/02/2020 22:17:48	120220	12022020	221748	236.80	12.258498	-57.011095	236.77	-0.630	0.520	1.640	236.80	-0.80	2.00	 	 	 	 	 	 	 	 	 	 	 	 	 	 	 	 	 	 	1581545868	10.93	20.24
12/02/2020 22:17:49	120220	12022020	221749	236.68	12.258472	-57.011138	236.66	-0.230	0.690	1.360	236.67	-0.70	1.70	 	 	 	 	 	 	 	 	 	 	 	 	 	 	 	 	 	 	1581545869	10.85	20.09
12/02/2020 22:17:50	120220	12022020	221750	236.65	12.258443	-57.011182	236.64	0.280	0.360	1.020	236.65	-1.10	1.40	 	 	 	 	 	 	 	 	 	 	 	 	 	 	 	 	 	 	1581545870	11.05	20.46
12/02/2020 22:17:51	120220	12022020	221751	236.70	12.258415	-57.011227	236.68	0.760	-0.170	0.740	236.71	-1.60	1.10	 	 	 	 	 	 	 	 	 	 	 	 	 	 	 	 	 	 	1581545871	11.18	20.71
12/02/2020 22:17:52	120220	12022020	221752	236.70	12.258388	-57.011270	236.67	1.030	-0.630	0.590	236.69	-2.00	1.00	 	 	 	 	 	 	 	 	 	 	 	 	 	 	 	 	 	 	1581545872	11.01	20.39
12/02/2020 22:17:53	120220	12022020	221753	236.60	12.258362	-57.011315	236.57	1.010	-1.000	0.700	236.58	-2.40	1.10	 	 	 	 	 	 	 	 	 	 	 	 	 	 	 	 	 	 	1581545873	10.94	20.26
12/02/2020 22:17:54	120220	12022020	221754	236.48	12.258337	-57.011362	236.46	0.710	-1.260	0.890	236.47	-2.60	1.30	 	 	 	 	 	 	 	 	 	 	 	 	 	 	 	 	 	 	1581545874	11.04	20.45
12/02/2020 22:17:55	120220	12022020	221755	236.46	12.258312	-57.011407	236.48	0.270	-1.250	0.970	236.48	-2.50	1.30	 	 	 	 	 	 	 	 	 	 	 	 	 	 	 	 	 	 	1581545875	11.12	20.59
12/02/2020 22:17:56	120220	12022020	221756	236.63	12.258287	-57.011452	236.68	-0.190	-0.880	0.760	236.69	-2.10	1.10	 	 	 	 	 	 	 	 	 	 	 	 	 	 	 	 	 	 	1581545876	11.00	20.37
12/02/2020 22:17:57	120220	12022020	221757	236.99	12.258260	-57.011497	237.08	-0.560	-0.360	0.370	237.09	-1.60	0.70	 	 	 	 	 	 	 	 	 	 	 	 	 	 	 	 	 	 	1581545877	10.92	20.22
12/02/2020 22:17:58	120220	12022020	221758	237.44	12.258233	-57.011542	237.50	-0.750	0.000	0.040	237.51	-1.30	0.40	 	 	 	 	 	 	 	 	 	 	 	 	 	 	 	 	 	 	1581545878	11.09	20.54
12/02/2020 22:17:59	120220	12022020	221759	237.72	12.258205	-57.011587	237.73	-0.690	0.130	0.000	237.75	-1.20	0.40	 	 	 	 	 	 	 	 	 	 	 	 	 	 	 	 	 	 	1581545879	11.32	20.96
12/02/2020 22:18:00	120220	12022020	221800	237.75	12.258178	-57.011633	237.74	-0.480	0.110	0.300	237.75	-1.20	0.70	 	 	 	 	 	 	 	 	 	 	 	 	 	 	 	 	 	 	1581545880	11.45	21.21
12/02/2020 22:18:01	120220	12022020	221801	237.56	12.258150	-57.011678	237.50	-0.280	0.030	0.700	237.49	-1.30	1.20	 	 	 	 	 	 	 	 	 	 	 	 	 	 	 	 	 	 	1581545881	11.39	21.09
12/02/2020 22:18:02	120220	12022020	221802	237.15	12.258123	-57.011725	237.05	-0.120	-0.130	1.080	237.05	-1.50	1.50	1015.00	26.40	26.40	21.10	21.10	-2.0	72.0	72.0	386.0	25.6	213.00	4.40	71.00	9.60	18	8611.0	27.4	27.4	1581545882	11.32	20.96
12/02/2020 22:18:03	120220	12022020	221803	236.67	12.258097	-57.011770	236.59	0.020	-0.380	1.300	236.60	-1.70	1.70	 	 	 	 	 	 	 	 	 	 	 	 	 	 	 	 	 	 	1581545883	11.32	20.96
12/02/2020 22:18:04	120220	12022020	221804	236.40	12.258072	-57.011817	236.38	0.120	-0.470	1.290	236.38	-1.80	1.70	 	 	 	 	 	 	 	 	 	 	 	 	 	 	 	 	 	 	1581545884	11.18	20.71
12/02/2020 22:18:05	120220	12022020	221805	236.42	12.258047	-57.011862	236.43	0.160	-0.360	1.140	236.44	-1.70	1.50	 	 	 	 	 	 	 	 	 	 	 	 	 	 	 	 	 	 	1581545885	10.86	20.11
12/02/2020 22:18:06	120220	12022020	221806	236.59	12.258023	-57.011907	236.61	0.180	-0.300	0.890	236.64	-1.60	1.20	 	 	 	 	 	 	 	 	 	 	 	 	 	 	 	 	 	 	1581545886	10.82	20.04
12/02/2020 22:18:07	120220	12022020	221807	236.87	12.257998	-57.011952	236.91	0.240	-0.370	0.620	236.94	-1.70	1.00	 	 	 	 	 	 	 	 	 	 	 	 	 	 	 	 	 	 	1581545887	11.04	20.45
12/02/2020 22:18:08	120220	12022020	221808	237.19	12.257972	-57.011998	237.22	0.350	-0.430	0.500	237.23	-1.80	0.90	 	 	 	 	 	 	 	 	 	 	 	 	 	 	 	 	 	 	1581545888	11.12	20.59
12/02/2020 22:18:09	120220	12022020	221809	237.38	12.257945	-57.012043	237.39	0.410	-0.350	0.520	237.41	-1.70	0.90	 	 	 	 	 	 	 	 	 	 	 	 	 	 	 	 	 	 	1581545889	11.04	20.45
12/02/2020 22:18:10	120220	12022020	221810	237.48	12.257918	-57.012087	237.48	0.350	-0.200	0.560	237.49	-1.50	1.00	 	 	 	 	 	 	 	 	 	 	 	 	 	 	 	 	 	 	1581545890	10.91	20.21
12/02/2020 22:18:11	120220	12022020	221811	237.45	12.257892	-57.012130	237.41	0.210	-0.250	0.780	237.42	-1.60	1.20	 	 	 	 	 	 	 	 	 	 	 	 	 	 	 	 	 	 	1581545891	11.03	20.43
12/02/2020 22:18:12	120220	12022020	221812	237.18	12.257865	-57.012177	237.11	0.090	-0.450	1.230	237.18	-1.80	1.70	 	 	 	 	 	 	 	 	 	 	 	 	 	 	 	 	 	 	1581545892	11.36	21.04
12/02/2020 22:18:13	120220	12022020	221813	236.91	12.257838	-57.012223	236.89	-0.060	-0.430	1.550	236.88	-1.70	2.00	 	 	 	 	 	 	 	 	 	 	 	 	 	 	 	 	 	 	1581545893	11.26	20.85
12/02/2020 22:18:14	120220	12022020	221814	236.86	12.257813	-57.012268	236.87	-0.220	-0.250	1.620	236.86	-1.60	2.00	 	 	 	 	 	 	 	 	 	 	 	 	 	 	 	 	 	 	1581545894	10.99	20.35
12/02/2020 22:18:15	120220	12022020	221815	236.91	12.257788	-57.012313	236.91	-0.250	-0.160	1.480	236.92	-1.50	1.80	 	 	 	 	 	 	 	 	 	 	 	 	 	 	 	 	 	 	1581545895	10.94	20.26
12/02/2020 22:18:16	120220	12022020	221816	236.87	12.257762	-57.012358	236.85	-0.120	-0.320	1.240	236.86	-1.70	1.60	 	 	 	 	 	 	 	 	 	 	 	 	 	 	 	 	 	 	1581545896	11.12	20.59
12/02/2020 22:18:17	120220	12022020	221817	236.84	12.257735	-57.012403	236.83	0.010	-0.550	0.980	236.84	-1.90	1.30	 	 	 	 	 	 	 	 	 	 	 	 	 	 	 	 	 	 	1581545897	11.25	20.84
12/02/2020 22:18:18	120220	12022020	221818	236.95	12.257708	-57.012448	236.97	-0.050	-0.680	0.810	236.98	-2.00	1.20	 	 	 	 	 	 	 	 	 	 	 	 	 	 	 	 	 	 	1581545898	11.11	20.58
12/02/2020 22:18:19	120220	12022020	221819	237.14	12.257682	-57.012493	237.15	-0.240	-0.810	0.800	237.17	-2.20	1.20	 	 	 	 	 	 	 	 	 	 	 	 	 	 	 	 	 	 	1581545899	11.08	20.52
12/02/2020 22:18:20	120220	12022020	221820	237.32	12.257657	-57.012540	237.37	-0.320	-0.860	0.810	237.36	-2.20	1.20	 	 	 	 	 	 	 	 	 	 	 	 	 	 	 	 	 	 	1581545900	11.23	20.80
12/02/2020 22:18:21	120220	12022020	221821	237.51	12.257630	-57.012587	237.56	-0.190	-0.720	0.770	237.55	-2.00	1.20	 	 	 	 	 	 	 	 	 	 	 	 	 	 	 	 	 	 	1581545901	11.22	20.78
12/02/2020 22:18:22	120220	12022020	221822	237.66	12.257603	-57.012632	237.68	0.000	-0.410	0.810	237.67	-1.70	1.20	 	 	 	 	 	 	 	 	 	 	 	 	 	 	 	 	 	 	1581545902	11.19	20.72
12/02/2020 22:18:23	120220	12022020	221823	237.65	12.257577	-57.012677	237.65	0.070	-0.020	0.940	237.64	-1.30	1.40	 	 	 	 	 	 	 	 	 	 	 	 	 	 	 	 	 	 	1581545903	11.19	20.72
12/02/2020 22:18:24	120220	12022020	221824	237.50	12.257550	-57.012723	237.44	-0.020	0.300	1.080	237.50	-1.00	1.50	 	 	 	 	 	 	 	 	 	 	 	 	 	 	 	 	 	 	1581545904	11.21	20.76
12/02/2020 22:18:25	120220	12022020	221825	237.18	12.257523	-57.012768	237.11	-0.120	0.530	1.190	237.11	-0.80	1.60	 	 	 	 	 	 	 	 	 	 	 	 	 	 	 	 	 	 	1581545905	11.22	20.78
12/02/2020 22:18:26	120220	12022020	221826	236.87	12.257498	-57.012813	236.81	-0.070	0.660	1.160	236.87	-0.70	1.50	 	 	 	 	 	 	 	 	 	 	 	 	 	 	 	 	 	 	1581545906	11.10	20.56
12/02/2020 22:18:27	120220	12022020	221827	236.70	12.257470	-57.012858	236.67	0.090	0.460	1.100	236.69	-0.90	1.50	 	 	 	 	 	 	 	 	 	 	 	 	 	 	 	 	 	 	1581545907	11.06	20.48
12/02/2020 22:18:28	120220	12022020	221828	236.65	12.257445	-57.012905	236.63	0.240	-0.110	1.140	236.65	-1.50	1.50	 	 	 	 	 	 	 	 	 	 	 	 	 	 	 	 	 	 	1581545908	11.21	20.76
12/02/2020 22:18:29	120220	12022020	221829	236.72	12.257420	-57.012950	236.74	0.330	-0.700	1.070	236.76	-2.10	1.40	 	 	 	 	 	 	 	 	 	 	 	 	 	 	 	 	 	 	1581545909	11.20	20.74
12/02/2020 22:18:30	120220	12022020	221830	237.02	12.257395	-57.012995	237.05	0.380	-1.040	0.800	237.09	-2.40	1.20	 	 	 	 	 	 	 	 	 	 	 	 	 	 	 	 	 	 	1581545910	10.85	20.09
12/02/2020 22:18:31	120220	12022020	221831	237.30	12.257370	-57.013038	237.30	0.430	-1.240	0.580	237.33	-2.60	1.00	 	 	 	 	 	 	 	 	 	 	 	 	 	 	 	 	 	 	1581545911	10.71	19.83
12/02/2020 22:18:32	120220	12022020	221832	237.40	12.257343	-57.013082	237.38	0.370	-1.250	0.480	237.41	-2.60	0.90	 	 	 	 	 	 	 	 	 	 	 	 	 	 	 	 	 	 	1581545912	10.81	20.02
12/02/2020 22:18:33	120220	12022020	221833	237.39	12.257317	-57.013125	237.36	0.140	-1.110	0.580	237.38	-2.40	1.00	 	 	 	 	 	 	 	 	 	 	 	 	 	 	 	 	 	 	1581545913	10.90	20.19
12/02/2020 22:18:34	120220	12022020	221834	237.31	12.257290	-57.013172	237.27	-0.170	-0.870	0.870	237.29	-2.20	1.30	 	 	 	 	 	 	 	 	 	 	 	 	 	 	 	 	 	 	1581545914	11.14	20.63
12/02/2020 22:18:35	120220	12022020	221835	237.17	12.257265	-57.013218	237.13	-0.460	-0.440	1.180	237.14	-1.70	1.60	 	 	 	 	 	 	 	 	 	 	 	 	 	 	 	 	 	 	1581545915	11.24	20.82
12/02/2020 22:18:36	120220	12022020	221836	237.04	12.257242	-57.013265	237.02	-0.660	0.040	1.370	237.02	-1.20	1.80	 	 	 	 	 	 	 	 	 	 	 	 	 	 	 	 	 	 	1581545916	11.25	20.84
12/02/2020 22:18:37	120220	12022020	221837	236.98	12.257217	-57.013313	236.98	-0.700	0.350	1.370	236.98	-1.00	1.70	 	 	 	 	 	 	 	 	 	 	 	 	 	 	 	 	 	 	1581545917	11.38	21.08
12/02/2020 22:18:38	120220	12022020	221838	236.99	12.257190	-57.013360	237.00	-0.550	0.470	1.160	236.99	-0.90	1.50	 	 	 	 	 	 	 	 	 	 	 	 	 	 	 	 	 	 	1581545918	11.45	21.21
12/02/2020 22:18:39	120220	12022020	221839	237.05	12.257162	-57.013407	237.08	-0.270	0.410	0.740	237.08	-1.00	1.10	 	 	 	 	 	 	 	 	 	 	 	 	 	 	 	 	 	 	1581545919	11.40	21.11
12/02/2020 22:18:40	120220	12022020	221840	237.25	12.257133	-57.013452	237.29	0.030	0.170	0.280	237.25	-1.20	0.60	 	 	 	 	 	 	 	 	 	 	 	 	 	 	 	 	 	 	1581545920	11.30	20.93
12/02/2020 22:18:41	120220	12022020	221841	237.50	12.257105	-57.013495	237.55	0.270	-0.190	0.050	237.55	-1.60	0.40	 	 	 	 	 	 	 	 	 	 	 	 	 	 	 	 	 	 	1581545921	11.22	20.78
12/02/2020 22:18:42	120220	12022020	221842	237.68	12.257078	-57.013540	237.70	0.410	-0.520	0.110	237.70	-1.90	0.50	 	 	 	 	 	 	 	 	 	 	 	 	 	 	 	 	 	 	1581545922	11.10	20.56
12/02/2020 22:18:43	120220	12022020	221843	237.73	12.257052	-57.013585	237.75	0.390	-0.680	0.400	237.74	-2.00	0.80	 	 	 	 	 	 	 	 	 	 	 	 	 	 	 	 	 	 	1581545923	10.98	20.33
12/02/2020 22:18:44	120220	12022020	221844	237.76	12.257027	-57.013628	237.78	0.220	-0.650	0.790	237.76	-2.00	1.20	 	 	 	 	 	 	 	 	 	 	 	 	 	 	 	 	 	 	1581545924	10.82	20.04
12/02/2020 22:18:45	120220	12022020	221845	237.66	12.257003	-57.013675	237.64	0.020	-0.630	1.280	237.61	-2.00	1.70	 	 	 	 	 	 	 	 	 	 	 	 	 	 	 	 	 	 	1581545925	10.89	20.17
12/02/2020 22:18:46	120220	12022020	221846	237.36	12.256982	-57.013722	237.30	-0.090	-0.630	1.740	237.28	-2.00	2.20	 	 	 	 	 	 	 	 	 	 	 	 	 	 	 	 	 	 	1581545926	11.10	20.56
12/02/2020 22:18:47	120220	12022020	221847	236.95	12.256958	-57.013768	236.89	-0.080	-0.490	2.040	236.87	-1.80	2.40	 	 	 	 	 	 	 	 	 	 	 	 	 	 	 	 	 	 	1581545927	11.14	20.63
12/02/2020 22:18:48	120220	12022020	221848	236.58	12.256933	-57.013815	236.53	-0.010	-0.250	2.060	236.52	-1.60	2.40	 	 	 	 	 	 	 	 	 	 	 	 	 	 	 	 	 	 	1581545928	11.02	20.41
12/02/2020 22:18:49	120220	12022020	221849	236.33	12.256907	-57.013860	236.30	0.050	-0.090	1.810	236.30	-1.40	2.20	 	 	 	 	 	 	 	 	 	 	 	 	 	 	 	 	 	 	1581545929	11.05	20.46
12/02/2020 22:18:50	120220	12022020	221850	236.25	12.256880	-57.013905	236.24	0.100	-0.090	1.410	236.26	-1.40	1.70	 	 	 	 	 	 	 	 	 	 	 	 	 	 	 	 	 	 	1581545930	11.17	20.69
12/02/2020 22:18:51	120220	12022020	221851	236.45	12.256853	-57.013950	236.52	0.120	-0.090	0.910	236.54	-1.40	1.20	 	 	 	 	 	 	 	 	 	 	 	 	 	 	 	 	 	 	1581545931	11.14	20.63
12/02/2020 22:18:52	120220	12022020	221852	236.94	12.256827	-57.013993	237.03	0.130	-0.120	0.440	237.05	-1.50	0.80	 	 	 	 	 	 	 	 	 	 	 	 	 	 	 	 	 	 	1581545932	10.98	20.33
12/02/2020 22:18:53	120220	12022020	221853	237.41	12.256800	-57.014038	237.45	0.110	-0.360	0.340	237.47	-1.80	0.80	 	 	 	 	 	 	 	 	 	 	 	 	 	 	 	 	 	 	1581545933	11.09	20.54
12/02/2020 22:18:54	120220	12022020	221854	237.60	12.256773	-57.014085	237.60	0.080	-0.770	0.550	237.61	-2.20	1.00	 	 	 	 	 	 	 	 	 	 	 	 	 	 	 	 	 	 	1581545934	11.34	21.00
12/02/2020 22:18:55	120220	12022020	221855	237.64	12.256748	-57.014132	237.64	0.030	-1.070	0.670	237.64	-2.40	1.10	 	 	 	 	 	 	 	 	 	 	 	 	 	 	 	 	 	 	1581545935	11.41	21.13
12/02/2020 22:18:56	120220	12022020	221856	237.67	12.256720	-57.014178	237.69	-0.050	-1.100	0.650	237.68	-2.40	1.00	 	 	 	 	 	 	 	 	 	 	 	 	 	 	 	 	 	 	1581545936	11.31	20.95
12/02/2020 22:18:57	120220	12022020	221857	237.71	12.256692	-57.014223	237.74	-0.140	-0.860	0.600	237.72	-2.10	1.00	 	 	 	 	 	 	 	 	 	 	 	 	 	 	 	 	 	 	1581545937	11.21	20.76
12/02/2020 22:18:58	120220	12022020	221858	237.74	12.256665	-57.014268	237.75	-0.260	-0.420	0.700	237.74	-1.70	1.10	 	 	 	 	 	 	 	 	 	 	 	 	 	 	 	 	 	 	1581545938	11.18	20.71
12/02/2020 22:18:59	120220	12022020	221859	237.69	12.256640	-57.014313	237.68	-0.390	0.140	0.950	237.66	-1.10	1.40	 	 	 	 	 	 	 	 	 	 	 	 	 	 	 	 	 	 	1581545939	11.05	20.46
12/02/2020 22:19:00	120220	12022020	221900	237.48	12.256615	-57.014360	237.45	-0.440	0.600	1.290	237.42	-0.70	1.70	 	 	 	 	 	 	 	 	 	 	 	 	 	 	 	 	 	 	1581545940	11.00	20.37
12/02/2020 22:19:01	120220	12022020	221901	237.15	12.256592	-57.014407	237.12	-0.300	0.730	1.530	237.09	-0.60	1.90	 	 	 	 	 	 	 	 	 	 	 	 	 	 	 	 	 	 	1581545941	11.17	20.69
12/02/2020 22:19:02	120220	12022020	221902	236.92	12.256567	-57.014453	236.90	0.010	0.590	1.400	236.89	-0.80	1.70	1015.00	26.30	26.30	20.90	21.00	-2.0	72.0	72.0	386.0	25.7	210.00	4.80	71.00	10.20	18	8294.0	27.4	27.4	1581545942	11.27	20.87
12/02/2020 22:19:03	120220	12022020	221903	236.83	12.256540	-57.014498	236.80	0.390	0.310	1.030	236.82	-1.10	1.40	 	 	 	 	 	 	 	 	 	 	 	 	 	 	 	 	 	 	1581545943	11.11	20.58
12/02/2020 22:19:04	120220	12022020	221904	236.79	12.256513	-57.014543	236.78	0.660	-0.190	0.570	236.80	-1.60	0.90	 	 	 	 	 	 	 	 	 	 	 	 	 	 	 	 	 	 	1581545944	11.05	20.46
12/02/2020 22:19:05	120220	12022020	221905	236.89	12.256487	-57.014587	236.93	0.700	-0.890	0.150	236.94	-2.30	0.50	 	 	 	 	 	 	 	 	 	 	 	 	 	 	 	 	 	 	1581545945	11.18	20.71
12/02/2020 22:19:06	120220	12022020	221906	237.23	12.256458	-57.014633	237.33	0.450	-1.480	-0.020	237.31	-2.90	0.40	 	 	 	 	 	 	 	 	 	 	 	 	 	 	 	 	 	 	1581545946	11.21	20.76
12/02/2020 22:19:07	120220	12022020	221907	237.69	12.256435	-57.014680	237.78	0.040	-1.660	0.210	237.77	-3.00	0.70	 	 	 	 	 	 	 	 	 	 	 	 	 	 	 	 	 	 	1581545947	11.09	20.54
12/02/2020 22:19:08	120220	12022020	221908	238.03	12.256413	-57.014727	238.07	-0.290	-1.440	0.640	238.06	-2.70	1.10	 	 	 	 	 	 	 	 	 	 	 	 	 	 	 	 	 	 	1581545948	11.02	20.41
12/02/2020 22:19:09	120220	12022020	221909	238.05	12.256390	-57.014773	238.06	-0.350	-0.930	1.080	238.03	-2.20	1.50	 	 	 	 	 	 	 	 	 	 	 	 	 	 	 	 	 	 	1581545949	11.06	20.48
12/02/2020 22:19:10	120220	12022020	221910	237.89	12.256365	-57.014818	237.89	-0.270	-0.210	1.200	237.85	-1.50	1.60	 	 	 	 	 	 	 	 	 	 	 	 	 	 	 	 	 	 	1581545950	11.03	20.43
12/02/2020 22:19:11	120220	12022020	221911	237.65	12.256337	-57.014863	237.60	-0.200	0.350	1.060	237.58	-0.90	1.40	 	 	 	 	 	 	 	 	 	 	 	 	 	 	 	 	 	 	1581545951	11.09	20.54
12/02/2020 22:19:12	120220	12022020	221912	237.27	12.256307	-57.014908	237.19	-0.150	0.380	0.920	237.19	-1.00	1.30	 	 	 	 	 	 	 	 	 	 	 	 	 	 	 	 	 	 	1581545952	11.47	21.24
12/02/2020 22:19:13	120220	12022020	221913	236.80	12.256278	-57.014955	236.71	-0.090	0.020	0.940	236.71	-1.40	1.40	 	 	 	 	 	 	 	 	 	 	 	 	 	 	 	 	 	 	1581545953	11.88	22.00
12/02/2020 22:19:14	120220	12022020	221914	236.41	12.256250	-57.015003	236.37	-0.030	-0.210	1.110	236.36	-1.60	1.50	 	 	 	 	 	 	 	 	 	 	 	 	 	 	 	 	 	 	1581545954	11.75	21.76
12/02/2020 22:19:15	120220	12022020	221915	236.24	12.256225	-57.015050	236.25	-0.060	-0.210	1.420	236.22	-1.50	1.90	 	 	 	 	 	 	 	 	 	 	 	 	 	 	 	 	 	 	1581545955	11.32	20.96
12/02/2020 22:19:16	120220	12022020	221916	236.25	12.256202	-57.015098	236.27	-0.190	-0.180	1.710	236.25	-1.50	2.10	 	 	 	 	 	 	 	 	 	 	 	 	 	 	 	 	 	 	1581545956	11.16	20.67
12/02/2020 22:19:17	120220	12022020	221917	236.45	12.256180	-57.015145	236.51	-0.280	-0.130	1.830	236.51	-1.40	2.20	 	 	 	 	 	 	 	 	 	 	 	 	 	 	 	 	 	 	1581545957	11.11	20.58
12/02/2020 22:19:18	120220	12022020	221918	236.80	12.256157	-57.015192	236.86	-0.180	0.010	1.650	236.86	-1.30	2.00	 	 	 	 	 	 	 	 	 	 	 	 	 	 	 	 	 	 	1581545958	10.95	20.28
12/02/2020 22:19:19	120220	12022020	221919	237.12	12.256132	-57.015235	237.16	0.110	0.100	1.190	237.17	-1.20	1.50	 	 	 	 	 	 	 	 	 	 	 	 	 	 	 	 	 	 	1581545959	10.83	20.06
12/02/2020 22:19:20	120220	12022020	221920	237.39	12.256103	-57.015278	237.43	0.400	0.070	0.570	237.44	-1.30	0.90	 	 	 	 	 	 	 	 	 	 	 	 	 	 	 	 	 	 	1581545960	10.87	20.13
12/02/2020 22:19:21	120220	12022020	221921	237.66	12.256073	-57.015320	237.70	0.510	-0.130	0.060	237.71	-1.50	0.40	 	 	 	 	 	 	 	 	 	 	 	 	 	 	 	 	 	 	1581545961	10.95	20.28
12/02/2020 22:19:22	120220	12022020	221922	237.81	12.256045	-57.015363	237.78	0.410	-0.550	-0.020	237.81	-2.00	0.40	 	 	 	 	 	 	 	 	 	 	 	 	 	 	 	 	 	 	1581545962	11.08	20.52
12/02/2020 22:19:23	120220	12022020	221923	237.72	12.256018	-57.015408	237.65	0.210	-1.060	0.390	237.67	-2.50	0.90	 	 	 	 	 	 	 	 	 	 	 	 	 	 	 	 	 	 	1581545963	11.23	20.80
12/02/2020 22:19:24	120220	12022020	221924	237.39	12.255993	-57.015457	237.29	0.050	-1.370	0.970	237.30	-2.70	1.40	 	 	 	 	 	 	 	 	 	 	 	 	 	 	 	 	 	 	1581545964	11.24	20.82
12/02/2020 22:19:25	120220	12022020	221925	236.83	12.255968	-57.015503	236.70	-0.000	-1.430	1.450	236.70	-2.80	1.90	 	 	 	 	 	 	 	 	 	 	 	 	 	 	 	 	 	 	1581545965	11.23	20.80
12/02/2020 22:19:26	120220	12022020	221926	236.24	12.255943	-57.015550	236.15	-0.000	-1.240	1.610	236.15	-2.50	2.00	 	 	 	 	 	 	 	 	 	 	 	 	 	 	 	 	 	 	1581545966	11.24	20.82
12/02/2020 22:19:27	120220	12022020	221927	235.91	12.255918	-57.015597	235.87	-0.060	-0.840	1.520	235.88	-2.10	1.90	 	 	 	 	 	 	 	 	 	 	 	 	 	 	 	 	 	 	1581545967	11.22	20.78
12/02/2020 22:19:28	120220	12022020	221928	235.88	12.255892	-57.015642	235.89	-0.250	-0.400	1.360	235.88	-1.70	1.70	 	 	 	 	 	 	 	 	 	 	 	 	 	 	 	 	 	 	1581545968	11.28	20.89
12/02/2020 22:19:29	120220	12022020	221929	236.14	12.255865	-57.015688	236.22	-0.480	0.010	1.190	236.22	-1.30	1.60	 	 	 	 	 	 	 	 	 	 	 	 	 	 	 	 	 	 	1581545969	11.38	21.08
12/02/2020 22:19:30	120220	12022020	221930	236.69	12.255838	-57.015735	236.81	-0.630	0.430	1.030	236.69	-0.80	1.40	 	 	 	 	 	 	 	 	 	 	 	 	 	 	 	 	 	 	1581545970	11.37	21.06
12/02/2020 22:19:31	120220	12022020	221931	237.42	12.255813	-57.015782	237.54	-0.570	0.890	0.720	237.55	-0.40	1.10	 	 	 	 	 	 	 	 	 	 	 	 	 	 	 	 	 	 	1581545971	11.15	20.65
12/02/2020 22:19:32	120220	12022020	221932	238.03	12.255787	-57.015825	238.10	-0.300	1.090	0.380	238.12	-0.30	0.70	 	 	 	 	 	 	 	 	 	 	 	 	 	 	 	 	 	 	1581545972	11.05	20.46
12/02/2020 22:19:33	120220	12022020	221932	238.39	12.255760	-57.015870	238.42	0.100	0.910	0.210	238.44	-0.50	0.60	 	 	 	 	 	 	 	 	 	 	 	 	 	 	 	 	 	 	1581545972	11.15	20.65
12/02/2020 22:19:34	120220	12022020	221934	238.58	12.255733	-57.015915	238.55	0.450	0.440	0.140	238.58	-1.00	0.50	 	 	 	 	 	 	 	 	 	 	 	 	 	 	 	 	 	 	1581545974	11.11	20.58
12/02/2020 22:19:35	120220	12022020	221934	238.43	12.255707	-57.015960	238.33	0.660	-0.290	0.370	238.34	-1.70	0.80	 	 	 	 	 	 	 	 	 	 	 	 	 	 	 	 	 	 	1581545974	11.04	20.45
12/02/2020 22:19:36	120220	12022020	221936	237.84	12.255680	-57.016005	237.69	0.730	-1.100	0.900	237.67	-2.50	1.40	 	 	 	 	 	 	 	 	 	 	 	 	 	 	 	 	 	 	1581545976	11.08	20.52
12/02/2020 22:19:37	120220	12022020	221937	236.93	12.255655	-57.016052	236.76	0.610	-1.670	1.380	236.74	-3.00	1.80	 	 	 	 	 	 	 	 	 	 	 	 	 	 	 	 	 	 	1581545977	11.06	20.48
12/02/2020 22:19:38	120220	12022020	221938	236.06	12.255630	-57.016097	235.95	0.290	-1.800	1.490	235.93	-3.10	1.90	 	 	 	 	 	 	 	 	 	 	 	 	 	 	 	 	 	 	1581545978	10.86	20.11
12/02/2020 22:19:39	120220	12022020	221938	235.66	12.255605	-57.016140	235.67	-0.110	-1.600	1.180	235.66	-2.90	1.50	 	 	 	 	 	 	 	 	 	 	 	 	 	 	 	 	 	 	1581545978	10.76	19.93
12/02/2020 22:19:40	120220	12022020	221940	235.87	12.255578	-57.016183	235.96	-0.470	-1.240	0.610	235.97	-2.50	0.90	 	 	 	 	 	 	 	 	 	 	 	 	 	 	 	 	 	 	1581545980	10.89	20.17
12/02/2020 22:19:41	120220	12022020	221941	236.47	12.255553	-57.016228	236.59	-0.660	-0.780	0.060	236.61	-2.10	0.40	 	 	 	 	 	 	 	 	 	 	 	 	 	 	 	 	 	 	1581545981	11.06	20.48
12/02/2020 22:19:42	120220	12022020	221942	237.18	12.255525	-57.016273	237.31	-0.610	-0.340	-0.210	237.32	-1.60	0.20	 	 	 	 	 	 	 	 	 	 	 	 	 	 	 	 	 	 	1581545982	11.27	20.87
12/02/2020 22:19:43	120220	12022020	221943	237.81	12.255497	-57.016320	237.92	-0.380	-0.000	-0.050	237.90	-1.30	0.40	 	 	 	 	 	 	 	 	 	 	 	 	 	 	 	 	 	 	1581545983	11.51	21.32
12/02/2020 22:19:44	120220	12022020	221944	238.20	12.255470	-57.016368	238.27	-0.170	0.310	0.450	238.25	-1.00	0.90	 	 	 	 	 	 	 	 	 	 	 	 	 	 	 	 	 	 	1581545984	11.58	21.45
12/02/2020 22:19:45	120220	12022020	221945	238.31	12.255445	-57.016417	238.32	-0.070	0.600	1.060	238.30	-0.70	1.50	 	 	 	 	 	 	 	 	 	 	 	 	 	 	 	 	 	 	1581545985	11.47	21.24
12/02/2020 22:19:46	120220	12022020	221946	238.16	12.255422	-57.016463	238.12	-0.060	0.740	1.470	238.10	-0.60	1.90	 	 	 	 	 	 	 	 	 	 	 	 	 	 	 	 	 	 	1581545986	11.35	21.02
12/02/2020 22:19:47	120220	12022020	221946	237.81	12.255397	-57.016510	237.73	-0.050	0.660	1.590	237.72	-0.70	2.00	 	 	 	 	 	 	 	 	 	 	 	 	 	 	 	 	 	 	1581545986	11.30	20.93
12/02/2020 22:19:48	120220	12022020	221948	237.33	12.255370	-57.016557	237.23	0.020	0.440	1.440	237.23	-0.90	1.80	 	 	 	 	 	 	 	 	 	 	 	 	 	 	 	 	 	 	1581545988	11.17	20.69
12/02/2020 22:19:49	120220	12022020	221949	236.88	12.255345	-57.016602	236.80	0.160	0.090	0.950	236.82	-1.30	1.30	 	 	 	 	 	 	 	 	 	 	 	 	 	 	 	 	 	 	1581545989	10.98	20.33
12/02/2020 22:19:50	120220	12022020	221949	236.63	12.255317	-57.016643	236.57	0.380	-0.360	0.360	236.59	-1.80	0.70	 	 	 	 	 	 	 	 	 	 	 	 	 	 	 	 	 	 	1581545989	10.88	20.15
12/02/2020 22:19:51	120220	12022020	221951	236.41	12.255287	-57.016687	236.32	0.610	-0.910	0.040	236.35	-2.30	0.40	 	 	 	 	 	 	 	 	 	 	 	 	 	 	 	 	 	 	1581545991	10.89	20.17
12/02/2020 22:19:52	120220	12022020	221952	236.11	12.255258	-57.016730	236.04	0.680	-1.360	0.100	236.06	-2.70	0.50	 	 	 	 	 	 	 	 	 	 	 	 	 	 	 	 	 	 	1581545992	11.05	20.46
12/02/2020 22:19:53	120220	12022020	221953	236.06	12.255232	-57.016773	236.10	0.420	-1.340	0.280	236.11	-2.60	0.70	 	 	 	 	 	 	 	 	 	 	 	 	 	 	 	 	 	 	1581545993	10.85	20.09
12/02/2020 22:19:54	120220	12022020	221954	236.49	12.255208	-57.016817	236.60	-0.020	-0.940	0.400	236.62	-2.20	0.80	 	 	 	 	 	 	 	 	 	 	 	 	 	 	 	 	 	 	1581545994	10.53	19.50
12/02/2020 22:19:55	120220	12022020	221955	237.15	12.255187	-57.016862	237.25	-0.280	-0.730	0.580	237.26	-2.10	1.00	 	 	 	 	 	 	 	 	 	 	 	 	 	 	 	 	 	 	1581545995	10.74	19.89
12/02/2020 22:19:56	120220	12022020	221956	237.69	12.255162	-57.016910	237.76	-0.210	-0.890	0.870	237.76	-2.30	1.30	 	 	 	 	 	 	 	 	 	 	 	 	 	 	 	 	 	 	1581545996	11.45	21.21
12/02/2020 22:19:57	120220	12022020	221957	238.03	12.255137	-57.016960	238.08	-0.020	-1.000	1.140	238.07	-2.30	1.50	 	 	 	 	 	 	 	 	 	 	 	 	 	 	 	 	 	 	1581545997	11.82	21.89
12/02/2020 22:19:58	120220	12022020	221958	238.17	12.255110	-57.017008	238.19	0.030	-0.680	1.230	238.18	-1.90	1.60	 	 	 	 	 	 	 	 	 	 	 	 	 	 	 	 	 	 	1581545998	11.59	21.46
12/02/2020 22:19:59	120220	12022020	221959	238.14	12.255083	-57.017053	238.13	-0.140	-0.050	1.160	238.11	-1.30	1.50	 	 	 	 	 	 	 	 	 	 	 	 	 	 	 	 	 	 	1581545999	11.22	20.78
12/02/2020 22:20:00	120220	12022020	221959	237.86	12.255057	-57.017098	237.79	-0.370	0.440	1.120	237.76	-0.90	1.50	 	 	 	 	 	 	 	 	 	 	 	 	 	 	 	 	 	 	1581545999	11.16	20.67
12/02/2020 22:20:01	120220	12022020	222000	237.23	12.255027	-57.017145	237.08	-0.500	0.430	1.240	237.06	-0.90	1.70	 	 	 	 	 	 	 	 	 	 	 	 	 	 	 	 	 	 	1581546000	11.56	21.41
12/02/2020 22:20:02	120220	12022020	222002	236.36	12.255000	-57.017193	236.19	-0.500	0.240	1.450	236.19	-1.10	1.90	1015.00	26.20	26.30	20.70	20.80	-1.0	71.0	71.0	385.0	25.6	207.00	5.60	71.00	11.10	18	9708.0	27.4	27.4	1581546002	11.84	21.93
12/02/2020 22:20:03	120220	12022020	222003	235.69	12.254973	-57.017240	235.60	-0.410	0.350	1.430	235.61	-0.90	1.80	 	 	 	 	 	 	 	 	 	 	 	 	 	 	 	 	 	 	1581546003	11.42	21.15
12/02/2020 22:20:04	120220	12022020	222003	235.59	12.254948	-57.017283	235.63	-0.240	0.700	0.960	235.66	-0.60	1.30	 	 	 	 	 	 	 	 	 	 	 	 	 	 	 	 	 	 	1581546003	10.70	19.82
12/02/2020 22:20:05	120220	12022020	222004	236.10	12.254923	-57.017325	236.22	0.080	0.760	0.320	236.25	-0.60	0.60	 	 	 	 	 	 	 	 	 	 	 	 	 	 	 	 	 	 	1581546004	10.43	19.32
12/02/2020 22:20:06	120220	12022020	222006	236.73	12.254897	-57.017368	237.04	0.550	0.220	-0.010	236.89	-1.20	0.40	 	 	 	 	 	 	 	 	 	 	 	 	 	 	 	 	 	 	1581546006	10.73	19.87
12/02/2020 22:20:07	120220	12022020	222007	237.68	12.254870	-57.017413	237.81	0.950	-0.760	0.200	237.82	-2.20	0.70	 	 	 	 	 	 	 	 	 	 	 	 	 	 	 	 	 	 	1581546007	11.16	20.67
12/02/2020 22:20:08	120220	12022020	222008	238.23	12.254845	-57.017460	238.30	1.100	-1.660	0.860	238.29	-3.10	1.40	 	 	 	 	 	 	 	 	 	 	 	 	 	 	 	 	 	 	1581546008	11.31	20.95
12/02/2020 22:20:09	120220	12022020	222009	238.37	12.254823	-57.017508	238.39	0.910	-2.030	1.690	238.34	-3.30	2.20	 	 	 	 	 	 	 	 	 	 	 	 	 	 	 	 	 	 	1581546009	11.12	20.59
12/02/2020 22:20:10	120220	12022020	222009	238.13	12.254802	-57.017555	238.12	0.470	-1.780	2.270	238.05	-3.00	2.70	 	 	 	 	 	 	 	 	 	 	 	 	 	 	 	 	 	 	1581546009	10.81	20.02
12/02/2020 22:20:11	120220	12022020	222011	237.63	12.254778	-57.017600	237.57	-0.020	-1.260	2.440	237.50	-2.50	2.80	 	 	 	 	 	 	 	 	 	 	 	 	 	 	 	 	 	 	1581546011	10.76	19.93
12/02/2020 22:20:12	120220	12022020	222012	237.03	12.254753	-57.017645	236.98	-0.420	-0.750	2.300	236.91	-2.00	2.70	 	 	 	 	 	 	 	 	 	 	 	 	 	 	 	 	 	 	1581546012	11.05	20.46
12/02/2020 22:20:13	120220	12022020	222013	236.56	12.254727	-57.017692	236.54	-0.650	-0.290	1.980	236.49	-1.60	2.30	 	 	 	 	 	 	 	 	 	 	 	 	 	 	 	 	 	 	1581546013	11.31	20.95
12/02/2020 22:20:14	120220	12022020	222014	236.32	12.254700	-57.017738	236.30	-0.700	0.120	1.590	236.28	-1.20	1.90	 	 	 	 	 	 	 	 	 	 	 	 	 	 	 	 	 	 	1581546014	11.40	21.11
12/02/2020 22:20:15	120220	12022020	222014	236.21	12.254672	-57.017783	236.21	-0.620	0.420	1.240	236.20	-0.90	1.60	 	 	 	 	 	 	 	 	 	 	 	 	 	 	 	 	 	 	1581546014	11.44	21.19
12/02/2020 22:20:16	120220	12022020	222016	236.26	12.254643	-57.017830	236.32	-0.450	0.590	0.940	236.31	-0.70	1.30	 	 	 	 	 	 	 	 	 	 	 	 	 	 	 	 	 	 	1581546016	11.44	21.19
12/02/2020 22:20:17	120220	12022020	222017	236.64	12.254615	-57.017875	236.77	-0.270	0.700	0.590	236.76	-0.70	0.90	 	 	 	 	 	 	 	 	 	 	 	 	 	 	 	 	 	 	1581546017	11.25	20.84
12/02/2020 22:20:18	120220	12022020	222018	237.15	12.254588	-57.017918	237.43	-0.080	0.560	0.310	237.27	-0.80	0.70	 	 	 	 	 	 	 	 	 	 	 	 	 	 	 	 	 	 	1581546018	11.09	20.54
12/02/2020 22:20:19	120220	12022020	222019	237.94	12.254562	-57.017965	238.08	0.180	0.090	0.310	238.07	-1.30	0.70	 	 	 	 	 	 	 	 	 	 	 	 	 	 	 	 	 	 	1581546019	11.20	20.74
12/02/2020 22:20:20	120220	12022020	222019	238.53	12.254535	-57.018010	238.64	0.420	-0.430	0.550	238.53	-1.80	1.00	 	 	 	 	 	 	 	 	 	 	 	 	 	 	 	 	 	 	1581546019	11.19	20.72
12/02/2020 22:20:21	120220	12022020	222021	238.91	12.254512	-57.018057	238.96	0.490	-0.710	0.940	238.94	-2.10	1.40	 	 	 	 	 	 	 	 	 	 	 	 	 	 	 	 	 	 	1581546021	10.92	20.22
12/02/2020 22:20:22	120220	12022020	222022	238.92	12.254490	-57.018102	238.90	0.420	-0.770	1.460	238.88	-2.10	1.90	 	 	 	 	 	 	 	 	 	 	 	 	 	 	 	 	 	 	1581546022	10.64	19.71
12/02/2020 22:20:23	120220	12022020	222023	238.58	12.254468	-57.018147	238.53	0.310	-0.760	1.870	238.47	-2.10	2.30	 	 	 	 	 	 	 	 	 	 	 	 	 	 	 	 	 	 	1581546023	10.61	19.65
12/02/2020 22:20:24	120220	12022020	222023	237.96	12.254445	-57.018192	237.86	0.250	-0.800	2.070	237.81	-2.10	2.50	 	 	 	 	 	 	 	 	 	 	 	 	 	 	 	 	 	 	1581546023	10.78	19.96
12/02/2020 22:20:25	120220	12022020	222025	237.17	12.254420	-57.018237	237.05	0.190	-0.860	2.070	237.01	-2.20	2.50	 	 	 	 	 	 	 	 	 	 	 	 	 	 	 	 	 	 	1581546025	11.03	20.43
12/02/2020 22:20:26	120220	12022020	222026	236.43	12.254397	-57.018283	236.31	0.120	-0.770	1.900	236.30	-2.10	2.30	 	 	 	 	 	 	 	 	 	 	 	 	 	 	 	 	 	 	1581546026	11.09	20.54
12/02/2020 22:20:27	120220	12022020	222027	235.89	12.254370	-57.018328	235.82	0.050	-0.600	1.510	235.83	-1.90	1.80	 	 	 	 	 	 	 	 	 	 	 	 	 	 	 	 	 	 	1581546027	11.05	20.46
12/02/2020 22:20:28	120220	12022020	222028	235.71	12.254343	-57.018373	235.71	0.000	-0.480	0.920	235.73	-1.80	1.20	 	 	 	 	 	 	 	 	 	 	 	 	 	 	 	 	 	 	1581546028	11.11	20.58
12/02/2020 22:20:29	120220	12022020	222029	235.95	12.254315	-57.018418	236.02	-0.070	-0.520	0.410	236.03	-1.90	0.80	 	 	 	 	 	 	 	 	 	 	 	 	 	 	 	 	 	 	1581546029	11.31	20.95
12/02/2020 22:20:30	120220	12022020	222030	236.42	12.254285	-57.018463	236.51	-0.210	-0.550	0.290	236.53	-1.90	0.70	 	 	 	 	 	 	 	 	 	 	 	 	 	 	 	 	 	 	1581546030	11.47	21.24
12/02/2020 22:20:31	120220	12022020	222031	236.97	12.254258	-57.018510	237.09	-0.440	-0.380	0.520	237.08	-1.70	1.00	 	 	 	 	 	 	 	 	 	 	 	 	 	 	 	 	 	 	1581546031	11.36	21.04
12/02/2020 22:20:32	120220	12022020	222032	237.56	12.254235	-57.018557	237.71	-0.650	-0.010	0.890	237.69	-1.30	1.30	 	 	 	 	 	 	 	 	 	 	 	 	 	 	 	 	 	 	1581546032	11.15	20.65
12/02/2020 22:20:33	120220	12022020	222033	238.19	12.254212	-57.018603	238.35	-0.690	0.460	1.050	238.31	-0.80	1.40	 	 	 	 	 	 	 	 	 	 	 	 	 	 	 	 	 	 	1581546033	10.92	20.22
12/02/2020 22:20:34	120220	12022020	222034	238.79	12.254187	-57.018647	238.92	-0.490	0.780	0.840	238.89	-0.60	1.20	 	 	 	 	 	 	 	 	 	 	 	 	 	 	 	 	 	 	1581546034	10.75	19.91
12/02/2020 22:20:35	120220	12022020	222035	239.17	12.254162	-57.018692	239.23	-0.090	0.700	0.580	239.21	-0.70	1.00	 	 	 	 	 	 	 	 	 	 	 	 	 	 	 	 	 	 	1581546035	10.83	20.06
12/02/2020 22:20:36	120220	12022020	222036	239.15	12.254135	-57.018735	239.12	0.320	0.230	0.530	239.10	-1.20	0.90	 	 	 	 	 	 	 	 	 	 	 	 	 	 	 	 	 	 	1581546036	11.04	20.45
12/02/2020 22:20:37	120220	12022020	222037	238.73	12.254108	-57.018782	238.61	0.600	-0.380	0.710	238.60	-1.80	1.20	 	 	 	 	 	 	 	 	 	 	 	 	 	 	 	 	 	 	1581546037	11.10	20.56
12/02/2020 22:20:38	120220	12022020	222038	238.03	12.254083	-57.018827	237.88	0.660	-0.850	0.960	237.87	-2.20	1.40	 	 	 	 	 	 	 	 	 	 	 	 	 	 	 	 	 	 	1581546038	10.94	20.26
12/02/2020 22:20:39	120220	12022020	222039	237.20	12.254058	-57.018870	237.03	0.510	-1.110	1.160	237.03	-2.50	1.60	 	 	 	 	 	 	 	 	 	 	 	 	 	 	 	 	 	 	1581546039	10.75	19.91
12/02/2020 22:20:40	120220	12022020	222040	236.36	12.254033	-57.018915	236.20	0.240	-1.360	1.390	236.21	-2.70	1.80	 	 	 	 	 	 	 	 	 	 	 	 	 	 	 	 	 	 	1581546040	10.85	20.09
12/02/2020 22:20:41	120220	12022020	222041	235.69	12.254010	-57.018962	235.58	-0.030	-1.580	1.580	235.58	-2.90	2.00	 	 	 	 	 	 	 	 	 	 	 	 	 	 	 	 	 	 	1581546041	11.19	20.72
12/02/2020 22:20:42	120220	12022020	222042	235.36	12.253985	-57.019010	235.37	-0.230	-1.510	1.440	235.36	-2.80	1.80	 	 	 	 	 	 	 	 	 	 	 	 	 	 	 	 	 	 	1581546042	11.34	21.00
12/02/2020 22:20:43	120220	12022020	222043	235.63	12.253960	-57.019055	235.74	-0.390	-0.900	0.880	235.75	-2.10	1.20	 	 	 	 	 	 	 	 	 	 	 	 	 	 	 	 	 	 	1581546043	11.05	20.46
12/02/2020 22:20:44	120220	12022020	222043	236.37	12.253933	-57.019098	236.53	-0.500	-0.060	0.270	236.55	-1.30	0.60	 	 	 	 	 	 	 	 	 	 	 	 	 	 	 	 	 	 	1581546043	10.78	19.96
12/02/2020 22:20:45	120220	12022020	222045	237.28	12.253907	-57.019142	237.45	-0.570	0.560	-0.070	237.45	-0.70	0.30	 	 	 	 	 	 	 	 	 	 	 	 	 	 	 	 	 	 	1581546045	10.94	20.26
12/02/2020 22:20:46	120220	12022020	222045	238.16	12.253878	-57.019187	238.33	-0.580	0.820	-0.120	238.31	-0.50	0.30	 	 	 	 	 	 	 	 	 	 	 	 	 	 	 	 	 	 	1581546045	11.21	20.76
12/02/2020 22:20:47	120220	12022020	222046	238.83	12.253852	-57.019232	238.90	-0.480	0.800	0.150	238.91	-0.60	0.60	 	 	 	 	 	 	 	 	 	 	 	 	 	 	 	 	 	 	1581546046	11.28	20.89
12/02/2020 22:20:48	120220	12022020	222048	239.03	12.253827	-57.019278	238.99	-0.190	0.540	0.690	239.00	-0.90	1.20	 	 	 	 	 	 	 	 	 	 	 	 	 	 	 	 	 	 	1581546048	11.22	20.78
12/02/2020 22:20:49	120220	12022020	222048	238.73	12.253802	-57.019325	238.63	0.250	0.060	1.300	238.63	-1.40	1.80	 	 	 	 	 	 	 	 	 	 	 	 	 	 	 	 	 	 	1581546048	11.24	20.82
12/02/2020 22:20:50	120220	12022020	222050	238.11	12.253777	-57.019372	237.99	0.610	-0.430	1.770	237.97	-1.80	2.20	 	 	 	 	 	 	 	 	 	 	 	 	 	 	 	 	 	 	1581546050	11.19	20.72
12/02/2020 22:20:51	120220	12022020	222051	237.36	12.253752	-57.019417	237.22	0.680	-0.700	1.850	237.21	-2.10	2.20	 	 	 	 	 	 	 	 	 	 	 	 	 	 	 	 	 	 	1581546051	10.93	20.24
12/02/2020 22:20:52	120220	12022020	222051	236.60	12.253727	-57.019460	236.45	0.450	-0.700	1.660	236.45	-2.00	2.00	 	 	 	 	 	 	 	 	 	 	 	 	 	 	 	 	 	 	1581546051	10.60	19.63
12/02/2020 22:20:53	120220	12022020	222053	235.94	12.253702	-57.019503	235.83	0.160	-0.630	1.360	235.83	-2.00	1.70	 	 	 	 	 	 	 	 	 	 	 	 	 	 	 	 	 	 	1581546053	10.48	19.41
12/02/2020 22:20:54	120220	12022020	222053	235.60	12.253677	-57.019547	235.56	0.020	-0.660	0.860	235.59	-2.00	1.20	 	 	 	 	 	 	 	 	 	 	 	 	 	 	 	 	 	 	1581546053	10.62	19.67
12/02/2020 22:20:55	120220	12022020	222055	235.71	12.253652	-57.019590	235.74	0.080	-0.770	0.320	235.77	-2.10	0.70	 	 	 	 	 	 	 	 	 	 	 	 	 	 	 	 	 	 	1581546055	10.76	19.93
12/02/2020 22:20:56	120220	12022020	222056	236.00	12.253623	-57.019633	236.13	0.210	-0.970	0.050	236.08	-2.40	0.50	 	 	 	 	 	 	 	 	 	 	 	 	 	 	 	 	 	 	1581546056	10.98	20.33
12/02/2020 22:20:57	120220	12022020	222057	236.53	12.253597	-57.019680	236.61	0.210	-1.180	0.200	236.63	-2.50	0.60	 	 	 	 	 	 	 	 	 	 	 	 	 	 	 	 	 	 	1581546057	11.24	20.82
12/02/2020 22:20:58	120220	12022020	222058	237.05	12.253572	-57.019727	237.13	-0.020	-1.150	0.470	237.15	-2.40	0.90	 	 	 	 	 	 	 	 	 	 	 	 	 	 	 	 	 	 	1581546058	11.31	20.95
12/02/2020 22:20:59	120220	12022020	222059	237.54	12.253545	-57.019772	237.61	-0.350	-0.740	0.660	237.61	-2.00	1.10	 	 	 	 	 	 	 	 	 	 	 	 	 	 	 	 	 	 	1581546059	11.18	20.71
12/02/2020 22:21:00	120220	12022020	222100	237.87	12.253518	-57.019817	237.92	-0.630	0.040	0.710	237.92	-1.20	1.10	 	 	 	 	 	 	 	 	 	 	 	 	 	 	 	 	 	 	1581546060	10.93	20.24
12/02/2020 22:21:01	120220	12022020	222100	238.05	12.253492	-57.019858	238.09	-0.720	0.800	0.600	238.07	-0.50	1.00	 	 	 	 	 	 	 	 	 	 	 	 	 	 	 	 	 	 	1581546060	10.76	19.93
12/02/2020 22:21:02	120220	12022020	222102	238.08	12.253463	-57.019903	238.08	-0.570	0.990	0.590	238.06	-0.40	1.00	1015.00	26.20	27.80	20.70	21.60	-1.0	71.0	69.0	385.0	25.6	201.00	5.20	67.00	10.70	17	10166.0	27.4	27.4	1581546062	11.05	20.46
12/02/2020 22:21:03	120220	12022020	222103	237.92	12.253437	-57.019950	237.89	-0.270	0.590	0.900	237.86	-0.80	1.40	 	 	 	 	 	 	 	 	 	 	 	 	 	 	 	 	 	 	1581546063	11.51	21.32
12/02/2020 22:21:04	120220	12022020	222104	237.56	12.253413	-57.019998	237.54	0.060	0.080	1.370	237.49	-1.30	1.80	 	 	 	 	 	 	 	 	 	 	 	 	 	 	 	 	 	 	1581546064	11.57	21.43
12/02/2020 22:21:05	120220	12022020	222105	237.20	12.253392	-57.020047	237.20	0.330	-0.140	1.580	237.15	-1.50	2.00	 	 	 	 	 	 	 	 	 	 	 	 	 	 	 	 	 	 	1581546065	11.07	20.50
12/02/2020 22:21:06	120220	12022020	222105	236.98	12.253368	-57.020090	236.98	0.540	-0.210	1.300	236.95	-1.60	1.60	 	 	 	 	 	 	 	 	 	 	 	 	 	 	 	 	 	 	1581546065	10.54	19.52
12/02/2020 22:21:07	120220	12022020	222107	236.87	12.253343	-57.020132	236.88	0.640	-0.430	0.760	236.85	-1.80	1.10	 	 	 	 	 	 	 	 	 	 	 	 	 	 	 	 	 	 	1581546067	10.47	19.39
12/02/2020 22:21:08	120220	12022020	222108	236.77	12.253315	-57.020175	236.75	0.610	-0.900	0.300	236.77	-2.30	0.70	 	 	 	 	 	 	 	 	 	 	 	 	 	 	 	 	 	 	1581546068	10.75	19.91
12/02/2020 22:21:09	120220	12022020	222109	236.54	12.253288	-57.020218	236.47	0.480	-1.320	0.270	236.47	-2.70	0.70	 	 	 	 	 	 	 	 	 	 	 	 	 	 	 	 	 	 	1581546069	10.97	20.32
12/02/2020 22:21:10	120220	12022020	222110	236.21	12.253262	-57.020263	236.17	0.210	-1.350	0.520	236.21	-2.70	1.00	 	 	 	 	 	 	 	 	 	 	 	 	 	 	 	 	 	 	1581546070	10.91	20.21
12/02/2020 22:21:11	120220	12022020	222111	236.13	12.253237	-57.020307	236.15	-0.140	-1.000	0.710	236.15	-2.30	1.10	 	 	 	 	 	 	 	 	 	 	 	 	 	 	 	 	 	 	1581546071	10.69	19.80
12/02/2020 22:21:12	120220	12022020	222111	236.38	12.253212	-57.020350	236.47	-0.390	-0.590	0.750	236.46	-1.90	1.10	 	 	 	 	 	 	 	 	 	 	 	 	 	 	 	 	 	 	1581546071	10.71	19.83
12/02/2020 22:21:13	120220	12022020	222113	236.87	12.253185	-57.020395	236.98	-0.400	-0.400	0.670	236.98	-1.70	1.10	 	 	 	 	 	 	 	 	 	 	 	 	 	 	 	 	 	 	1581546073	11.05	20.46
12/02/2020 22:21:14	120220	12022020	222114	237.38	12.253158	-57.020442	237.49	-0.230	-0.350	0.650	237.48	-1.70	1.10	 	 	 	 	 	 	 	 	 	 	 	 	 	 	 	 	 	 	1581546074	11.45	21.21
12/02/2020 22:21:15	120220	12022020	222114	237.81	12.253132	-57.020488	237.90	-0.130	-0.230	0.760	237.87	-1.50	1.20	 	 	 	 	 	 	 	 	 	 	 	 	 	 	 	 	 	 	1581546074	11.48	21.26
12/02/2020 22:21:16	120220	12022020	222116	238.03	12.253107	-57.020537	238.08	-0.230	0.020	0.990	238.04	-1.30	1.40	 	 	 	 	 	 	 	 	 	 	 	 	 	 	 	 	 	 	1581546076	11.33	20.98
12/02/2020 22:21:17	120220	12022020	222117	238.02	12.253082	-57.020582	238.03	-0.390	0.320	1.250	238.00	-1.00	1.70	 	 	 	 	 	 	 	 	 	 	 	 	 	 	 	 	 	 	1581546077	11.14	20.63
12/02/2020 22:21:18	120220	12022020	222118	237.82	12.253058	-57.020628	237.79	-0.420	0.620	1.410	237.75	-0.70	1.80	 	 	 	 	 	 	 	 	 	 	 	 	 	 	 	 	 	 	1581546078	10.97	20.32
12/02/2020 22:21:19	120220	12022020	222119	237.43	12.253033	-57.020673	237.36	-0.220	0.710	1.390	237.33	-0.60	1.80	 	 	 	 	 	 	 	 	 	 	 	 	 	 	 	 	 	 	1581546079	10.85	20.09
12/02/2020 22:21:20	120220	12022020	222120	237.00	12.253007	-57.020717	236.95	0.170	0.410	1.120	236.93	-1.00	1.50	 	 	 	 	 	 	 	 	 	 	 	 	 	 	 	 	 	 	1581546080	10.96	20.30
12/02/2020 22:21:21	120220	12022020	222121	236.73	12.252978	-57.020760	236.69	0.570	-0.130	0.720	236.69	-1.50	1.10	 	 	 	 	 	 	 	 	 	 	 	 	 	 	 	 	 	 	1581546081	11.04	20.45
12/02/2020 22:21:22	120220	12022020	222122	236.60	12.252952	-57.020803	236.57	0.760	-0.640	0.340	236.59	-2.00	0.70	 	 	 	 	 	 	 	 	 	 	 	 	 	 	 	 	 	 	1581546082	10.88	20.15
12/02/2020 22:21:23	120220	12022020	222123	236.54	12.252923	-57.020847	236.52	0.700	-1.110	0.230	236.53	-2.50	0.70	 	 	 	 	 	 	 	 	 	 	 	 	 	 	 	 	 	 	1581546083	10.76	19.93
12/02/2020 22:21:24	120220	12022020	222124	236.43	12.252898	-57.020890	236.43	0.500	-1.530	0.460	236.41	-2.90	0.90	 	 	 	 	 	 	 	 	 	 	 	 	 	 	 	 	 	 	1581546084	10.90	20.19
12/02/2020 22:21:25	120220	12022020	222125	236.37	12.252872	-57.020937	236.38	0.240	-1.640	0.710	236.38	-2.90	1.10	 	 	 	 	 	 	 	 	 	 	 	 	 	 	 	 	 	 	1581546085	11.04	20.45
12/02/2020 22:21:26	120220	12022020	222126	236.52	12.252848	-57.020980	236.56	-0.100	-1.240	0.760	236.56	-2.50	1.20	 	 	 	 	 	 	 	 	 	 	 	 	 	 	 	 	 	 	1581546086	10.86	20.11
12/02/2020 22:21:27	120220	12022020	222127	236.82	12.252822	-57.021025	236.88	-0.420	-0.680	0.690	236.89	-1.90	1.10	 	 	 	 	 	 	 	 	 	 	 	 	 	 	 	 	 	 	1581546087	10.82	20.04
12/02/2020 22:21:28	120220	12022020	222128	237.16	12.252797	-57.021072	237.23	-0.620	-0.320	0.790	237.22	-1.60	1.20	 	 	 	 	 	 	 	 	 	 	 	 	 	 	 	 	 	 	1581546088	11.24	20.82
12/02/2020 22:21:29	120220	12022020	222129	237.44	12.252770	-57.021118	237.48	-0.650	0.010	1.040	237.48	-1.30	1.50	 	 	 	 	 	 	 	 	 	 	 	 	 	 	 	 	 	 	1581546089	11.49	21.28
12/02/2020 22:21:30	120220	12022020	222130	237.66	12.252745	-57.021165	237.72	-0.570	0.440	1.190	237.70	-0.80	1.60	 	 	 	 	 	 	 	 	 	 	 	 	 	 	 	 	 	 	1581546090	11.33	20.98
12/02/2020 22:21:31	120220	12022020	222131	237.88	12.252720	-57.021212	237.94	-0.430	0.760	1.100	237.92	-0.50	1.50	 	 	 	 	 	 	 	 	 	 	 	 	 	 	 	 	 	 	1581546091	11.13	20.61
12/02/2020 22:21:32	120220	12022020	222132	238.07	12.252693	-57.021257	238.19	-0.220	0.810	0.770	238.12	-0.50	1.10	 	 	 	 	 	 	 	 	 	 	 	 	 	 	 	 	 	 	1581546092	11.08	20.52
12/02/2020 22:21:33	120220	12022020	222132	238.36	12.252665	-57.021300	238.38	0.100	0.600	0.350	238.38	-0.80	0.70	 	 	 	 	 	 	 	 	 	 	 	 	 	 	 	 	 	 	1581546092	11.01	20.39
12/02/2020 22:21:34	120220	12022020	222134	238.34	12.252638	-57.021343	238.30	0.510	0.120	0.210	238.30	-1.30	0.60	 	 	 	 	 	 	 	 	 	 	 	 	 	 	 	 	 	 	1581546094	10.97	20.32
12/02/2020 22:21:35	120220	12022020	222135	237.89	12.252612	-57.021388	237.78	0.810	-0.590	0.590	237.77	-2.00	1.10	 	 	 	 	 	 	 	 	 	 	 	 	 	 	 	 	 	 	1581546095	11.10	20.56
12/02/2020 22:21:36	120220	12022020	222136	237.13	12.252587	-57.021435	237.00	0.780	-1.160	1.260	236.98	-2.50	1.70	 	 	 	 	 	 	 	 	 	 	 	 	 	 	 	 	 	 	1581546096	11.10	20.56
12/02/2020 22:21:37	120220	12022020	222137	236.39	12.252565	-57.021482	236.33	0.440	-1.310	1.750	236.30	-2.60	2.20	 	 	 	 	 	 	 	 	 	 	 	 	 	 	 	 	 	 	1581546097	10.84	20.08
12/02/2020 22:21:38	120220	12022020	222137	236.04	12.252542	-57.021527	236.06	0.060	-1.220	1.750	236.02	-2.50	2.10	 	 	 	 	 	 	 	 	 	 	 	 	 	 	 	 	 	 	1581546097	10.68	19.78
12/02/2020 22:21:39	120220	12022020	222139	236.06	12.252517	-57.021572	236.13	-0.130	-1.120	1.330	236.09	-2.40	1.70	 	 	 	 	 	 	 	 	 	 	 	 	 	 	 	 	 	 	1581546099	10.86	20.11
12/02/2020 22:21:40	120220	12022020	222139	236.36	12.252490	-57.021615	236.45	-0.230	-0.930	0.780	236.45	-2.20	1.10	 	 	 	 	 	 	 	 	 	 	 	 	 	 	 	 	 	 	1581546099	11.16	20.67
12/02/2020 22:21:41	120220	12022020	222141	236.98	12.252462	-57.021660	237.14	-0.380	-0.450	0.370	237.13	-1.70	0.80	 	 	 	 	 	 	 	 	 	 	 	 	 	 	 	 	 	 	1581546101	11.09	20.54
12/02/2020 22:21:42	120220	12022020	222141	237.72	12.252435	-57.021703	237.86	-0.540	0.120	0.400	237.85	-1.20	0.80	 	 	 	 	 	 	 	 	 	 	 	 	 	 	 	 	 	 	1581546101	10.93	20.24
12/02/2020 22:21:43	120220	12022020	222143	238.23	12.252410	-57.021750	238.32	-0.530	0.460	0.730	238.30	-0.90	1.20	 	 	 	 	 	 	 	 	 	 	 	 	 	 	 	 	 	 	1581546103	11.04	20.45
12/02/2020 22:21:44	120220	12022020	222144	238.47	12.252385	-57.021797	238.52	-0.280	0.460	1.090	238.47	-0.90	1.50	 	 	 	 	 	 	 	 	 	 	 	 	 	 	 	 	 	 	1581546104	11.25	20.84
12/02/2020 22:21:45	120220	12022020	222145	238.50	12.252360	-57.021843	238.53	0.040	0.210	1.330	238.48	-1.20	1.70	 	 	 	 	 	 	 	 	 	 	 	 	 	 	 	 	 	 	1581546105	11.34	21.00
12/02/2020 22:21:46	120220	12022020	222146	238.34	12.252333	-57.021888	238.31	0.230	-0.110	1.330	238.28	-1.50	1.70	 	 	 	 	 	 	 	 	 	 	 	 	 	 	 	 	 	 	1581546106	11.21	20.76
12/02/2020 22:21:47	120220	12022020	222147	238.07	12.252308	-57.021933	238.05	0.290	-0.360	1.060	238.02	-1.70	1.40	 	 	 	 	 	 	 	 	 	 	 	 	 	 	 	 	 	 	1581546107	10.99	20.35
12/02/2020 22:21:48	120220	12022020	222148	237.81	12.252282	-57.021977	237.79	0.300	-0.480	0.650	237.76	-1.80	1.00	 	 	 	 	 	 	 	 	 	 	 	 	 	 	 	 	 	 	1581546108	10.79	19.98
12/02/2020 22:21:49	120220	12022020	222149	237.51	12.252255	-57.022020	237.46	0.340	-0.510	0.410	237.44	-1.80	0.80	 	 	 	 	 	 	 	 	 	 	 	 	 	 	 	 	 	 	1581546109	10.71	19.83
12/02/2020 22:21:50	120220	12022020	222150	237.11	12.252230	-57.022063	237.03	0.350	-0.520	0.560	237.01	-1.90	1.00	 	 	 	 	 	 	 	 	 	 	 	 	 	 	 	 	 	 	1581546110	10.78	19.96
12/02/2020 22:21:51	120220	12022020	222151	236.59	12.252205	-57.022108	236.52	0.240	-0.550	1.020	236.49	-1.90	1.50	 	 	 	 	 	 	 	 	 	 	 	 	 	 	 	 	 	 	1581546111	10.94	20.26
12/02/2020 22:21:52	120220	12022020	222151	236.16	12.252182	-57.022157	236.12	-0.000	-0.530	1.460	236.10	-1.90	1.90	 	 	 	 	 	 	 	 	 	 	 	 	 	 	 	 	 	 	1581546111	11.07	20.50
12/02/2020 22:21:53	120220	12022020	222153	235.98	12.252160	-57.022203	236.01	-0.220	-0.400	1.620	235.99	-1.70	2.00	 	 	 	 	 	 	 	 	 	 	 	 	 	 	 	 	 	 	1581546113	11.03	20.43
12/02/2020 22:21:54	120220	12022020	222154	236.17	12.252135	-57.022248	236.26	-0.270	-0.300	1.320	236.26	-1.60	1.60	 	 	 	 	 	 	 	 	 	 	 	 	 	 	 	 	 	 	1581546114	10.96	20.30
12/02/2020 22:21:55	120220	12022020	222155	236.68	12.252108	-57.022293	236.81	-0.110	-0.390	0.650	236.81	-1.70	0.90	 	 	 	 	 	 	 	 	 	 	 	 	 	 	 	 	 	 	1581546115	11.05	20.46
12/02/2020 22:21:56	120220	12022020	222156	237.39	12.252080	-57.022337	237.53	0.050	-0.580	0.030	237.54	-1.90	0.40	 	 	 	 	 	 	 	 	 	 	 	 	 	 	 	 	 	 	1581546116	11.20	20.74
12/02/2020 22:21:57	120220	12022020	222157	238.09	12.252050	-57.022380	238.21	0.070	-0.670	-0.090	238.20	-2.00	0.30	 	 	 	 	 	 	 	 	 	 	 	 	 	 	 	 	 	 	1581546117	11.16	20.67
12/02/2020 22:21:58	120220	12022020	222158	238.53	12.252025	-57.022425	238.59	-0.070	-0.570	0.300	238.57	-1.90	0.80	 	 	 	 	 	 	 	 	 	 	 	 	 	 	 	 	 	 	1581546118	10.98	20.33
12/02/2020 22:21:59	120220	12022020	222159	238.57	12.252000	-57.022472	238.57	-0.210	-0.390	0.960	238.53	-1.70	1.50	 	 	 	 	 	 	 	 	 	 	 	 	 	 	 	 	 	 	1581546119	10.94	20.26
12/02/2020 22:22:00	120220	12022020	222200	238.36	12.251978	-57.022518	238.27	-0.220	-0.110	1.620	238.29	-1.40	2.10	 	 	 	 	 	 	 	 	 	 	 	 	 	 	 	 	 	 	1581546120	10.99	20.35
12/02/2020 22:22:01	120220	12022020	222201	237.92	12.251957	-57.022563	237.90	-0.080	0.270	1.830	237.85	-1.00	2.20	 	 	 	 	 	 	 	 	 	 	 	 	 	 	 	 	 	 	1581546121	10.81	20.02
12/02/2020 22:22:02	120220	12022020	222201	237.55	12.251932	-57.022608	237.53	0.130	0.390	1.610	237.48	-1.00	1.90	1015.00	26.40	29.50	20.80	21.80	-1.0	71.0	63.0	385.0	25.6	198.00	5.00	66.00	10.60	17	11479.0	27.4	27.4	1581546121	10.82	20.04
12/02/2020 22:22:03	120220	12022020	222203	237.19	12.251903	-57.022653	237.16	0.340	0.120	1.150	237.12	-1.30	1.50	 	 	 	 	 	 	 	 	 	 	 	 	 	 	 	 	 	 	1581546123	11.12	20.59
12/02/2020 22:22:04	120220	12022020	222203	236.92	12.251875	-57.022697	236.90	0.440	-0.230	0.580	236.88	-1.60	0.90	 	 	 	 	 	 	 	 	 	 	 	 	 	 	 	 	 	 	1581546123	11.18	20.71
12/02/2020 22:22:05	120220	12022020	222204	236.75	12.251847	-57.022740	236.73	0.340	-0.450	0.210	236.71	-1.80	0.60	 	 	 	 	 	 	 	 	 	 	 	 	 	 	 	 	 	 	1581546124	10.94	20.26
12/02/2020 22:22:06	120220	12022020	222206	236.58	12.251822	-57.022783	236.54	0.130	-0.660	0.270	236.55	-2.00	0.70	 	 	 	 	 	 	 	 	 	 	 	 	 	 	 	 	 	 	1581546126	10.84	20.08
12/02/2020 22:22:07	120220	12022020	222207	236.48	12.251797	-57.022830	236.45	-0.050	-0.910	0.590	236.48	-2.30	1.00	 	 	 	 	 	 	 	 	 	 	 	 	 	 	 	 	 	 	1581546127	10.98	20.33
12/02/2020 22:22:08	120220	12022020	222208	236.62	12.251773	-57.022877	236.67	-0.120	-1.030	0.810	236.68	-2.40	1.20	 	 	 	 	 	 	 	 	 	 	 	 	 	 	 	 	 	 	1581546128	11.10	20.56
12/02/2020 22:22:09	120220	12022020	222209	237.00	12.251750	-57.022922	237.09	-0.120	-0.840	0.800	237.10	-2.10	1.20	 	 	 	 	 	 	 	 	 	 	 	 	 	 	 	 	 	 	1581546129	10.91	20.21
12/02/2020 22:22:10	120220	12022020	222210	237.48	12.251725	-57.022965	237.57	-0.140	-0.470	0.760	237.56	-1.80	1.10	 	 	 	 	 	 	 	 	 	 	 	 	 	 	 	 	 	 	1581546130	10.72	19.85
12/02/2020 22:22:11	120220	12022020	222211	237.83	12.251698	-57.023010	237.88	-0.150	-0.270	0.840	237.87	-1.60	1.30	 	 	 	 	 	 	 	 	 	 	 	 	 	 	 	 	 	 	1581546131	10.88	20.15
12/02/2020 22:22:12	120220	12022020	222211	237.90	12.251673	-57.023057	237.90	-0.140	-0.320	1.090	237.89	-1.70	1.50	 	 	 	 	 	 	 	 	 	 	 	 	 	 	 	 	 	 	1581546131	11.24	20.82
12/02/2020 22:22:13	120220	12022020	222212	237.72	12.251647	-57.023103	237.69	-0.190	-0.400	1.400	237.67	-1.70	1.80	 	 	 	 	 	 	 	 	 	 	 	 	 	 	 	 	 	 	1581546132	11.44	21.19
12/02/2020 22:22:14	120220	12022020	222213	237.50	12.251622	-57.023150	237.51	-0.300	-0.210	1.420	237.48	-1.50	1.80	 	 	 	 	 	 	 	 	 	 	 	 	 	 	 	 	 	 	1581546133	11.20	20.74
12/02/2020 22:22:15	120220	12022020	222215	237.44	12.251595	-57.023193	237.48	-0.310	0.170	1.120	237.44	-1.10	1.50	 	 	 	 	 	 	 	 	 	 	 	 	 	 	 	 	 	 	1581546135	10.84	20.08
12/02/2020 22:22:16	120220	12022020	222215	237.44	12.251570	-57.023237	237.45	-0.110	0.380	0.820	237.43	-0.90	1.20	 	 	 	 	 	 	 	 	 	 	 	 	 	 	 	 	 	 	1581546135	10.81	20.02
12/02/2020 22:22:17	120220	12022020	222217	237.37	12.251542	-57.023282	237.38	0.170	0.330	0.690	237.36	-1.00	1.10	 	 	 	 	 	 	 	 	 	 	 	 	 	 	 	 	 	 	1581546137	10.99	20.35
12/02/2020 22:22:18	120220	12022020	222217	237.30	12.251517	-57.023327	237.30	0.330	0.090	0.770	237.28	-1.30	1.20	 	 	 	 	 	 	 	 	 	 	 	 	 	 	 	 	 	 	1581546137	11.04	20.45
12/02/2020 22:22:19	120220	12022020	222218	237.17	12.251492	-57.023372	237.16	0.340	-0.350	0.950	237.14	-1.80	1.40	 	 	 	 	 	 	 	 	 	 	 	 	 	 	 	 	 	 	1581546138	11.07	20.50
12/02/2020 22:22:20	120220	12022020	222220	236.98	12.251465	-57.023418	236.97	0.310	-0.880	1.080	236.94	-2.30	1.50	 	 	 	 	 	 	 	 	 	 	 	 	 	 	 	 	 	 	1581546140	11.22	20.78
12/02/2020 22:22:21	120220	12022020	222221	236.76	12.251438	-57.023463	236.72	0.270	-1.170	1.100	236.71	-2.50	1.50	 	 	 	 	 	 	 	 	 	 	 	 	 	 	 	 	 	 	1581546141	11.12	20.59
12/02/2020 22:22:22	120220	12022020	222221	236.49	12.251412	-57.023507	236.45	0.130	-1.140	0.990	236.44	-2.50	1.40	 	 	 	 	 	 	 	 	 	 	 	 	 	 	 	 	 	 	1581546141	10.95	20.28
12/02/2020 22:22:23	120220	12022020	222223	236.32	12.251385	-57.023552	236.31	-0.140	-0.860	0.820	236.32	-2.10	1.20	 	 	 	 	 	 	 	 	 	 	 	 	 	 	 	 	 	 	1581546143	10.87	20.13
12/02/2020 22:22:24	120220	12022020	222223	236.41	12.251360	-57.023595	236.46	-0.430	-0.460	0.760	236.46	-1.70	1.20	 	 	 	 	 	 	 	 	 	 	 	 	 	 	 	 	 	 	1581546143	10.83	20.06
12/02/2020 22:22:25	120220	12022020	222225	236.70	12.251337	-57.023640	236.76	-0.500	-0.170	0.840	236.75	-1.50	1.30	 	 	 	 	 	 	 	 	 	 	 	 	 	 	 	 	 	 	1581546145	10.95	20.28
12/02/2020 22:22:26	120220	12022020	222226	236.95	12.251312	-57.023687	237.01	-0.300	-0.090	1.130	236.95	-1.40	1.60	 	 	 	 	 	 	 	 	 	 	 	 	 	 	 	 	 	 	1581546146	11.22	20.78
12/02/2020 22:22:27	120220	12022020	222227	237.21	12.251287	-57.023735	237.28	-0.070	-0.080	1.340	237.26	-1.40	1.70	 	 	 	 	 	 	 	 	 	 	 	 	 	 	 	 	 	 	1581546147	11.37	21.06
12/02/2020 22:22:28	120220	12022020	222227	237.51	12.251260	-57.023780	237.60	0.010	0.010	1.300	237.58	-1.30	1.70	 	 	 	 	 	 	 	 	 	 	 	 	 	 	 	 	 	 	1581546147	11.20	20.74
12/02/2020 22:22:29	120220	12022020	222228	237.82	12.251233	-57.023825	237.89	-0.010	0.160	0.960	237.87	-1.20	1.30	 	 	 	 	 	 	 	 	 	 	 	 	 	 	 	 	 	 	1581546148	10.93	20.24
12/02/2020 22:22:30	120220	12022020	222230	237.99	12.251205	-57.023867	238.02	0.060	0.130	0.520	238.00	-1.20	0.90	 	 	 	 	 	 	 	 	 	 	 	 	 	 	 	 	 	 	1581546150	10.92	20.22
12/02/2020 22:22:31	120220	12022020	222230	237.96	12.251175	-57.023912	237.93	0.200	-0.250	0.370	237.92	-1.70	0.80	 	 	 	 	 	 	 	 	 	 	 	 	 	 	 	 	 	 	1581546150	11.20	20.74
12/02/2020 22:22:32	120220	12022020	222232	237.65	12.251148	-57.023957	237.57	0.290	-0.740	0.610	237.56	-2.10	1.10	 	 	 	 	 	 	 	 	 	 	 	 	 	 	 	 	 	 	1581546152	11.42	21.15
12/02/2020 22:22:33	120220	12022020	222233	237.16	12.251122	-57.024003	237.08	0.220	-0.840	0.910	237.07	-2.20	1.30	 	 	 	 	 	 	 	 	 	 	 	 	 	 	 	 	 	 	1581546153	11.22	20.78
12/02/2020 22:22:34	120220	12022020	222233	236.73	12.251098	-57.024048	236.69	-0.010	-0.510	1.070	236.67	-1.80	1.50	 	 	 	 	 	 	 	 	 	 	 	 	 	 	 	 	 	 	1581546153	10.73	19.87
12/02/2020 22:22:35	120220	12022020	222234	236.48	12.251075	-57.024092	236.47	-0.160	-0.210	0.980	236.46	-1.50	1.30	 	 	 	 	 	 	 	 	 	 	 	 	 	 	 	 	 	 	1581546154	10.59	19.61
12/02/2020 22:22:36	120220	12022020	222236	236.44	12.251048	-57.024137	236.45	-0.060	-0.230	0.730	236.44	-1.60	1.10	 	 	 	 	 	 	 	 	 	 	 	 	 	 	 	 	 	 	1581546156	10.94	20.26
12/02/2020 22:22:37	120220	12022020	222237	236.63	12.251022	-57.024182	236.71	0.130	-0.470	0.490	236.70	-1.80	0.90	 	 	 	 	 	 	 	 	 	 	 	 	 	 	 	 	 	 	1581546157	11.29	20.91
12/02/2020 22:22:38	120220	12022020	222238	237.13	12.250993	-57.024227	237.26	0.160	-0.650	0.410	237.25	-2.00	0.80	 	 	 	 	 	 	 	 	 	 	 	 	 	 	 	 	 	 	1581546158	11.33	20.98
12/02/2020 22:22:39	120220	12022020	222239	237.77	12.250968	-57.024273	237.90	-0.040	-0.660	0.650	237.88	-2.00	1.10	 	 	 	 	 	 	 	 	 	 	 	 	 	 	 	 	 	 	1581546159	11.17	20.69
12/02/2020 22:22:40	120220	12022020	222240	238.23	12.250945	-57.024320	238.31	-0.280	-0.610	1.060	238.29	-1.90	1.50	 	 	 	 	 	 	 	 	 	 	 	 	 	 	 	 	 	 	1581546160	11.12	20.59
12/02/2020 22:22:41	120220	12022020	222241	238.37	12.250920	-57.024367	238.41	-0.360	-0.500	1.420	238.36	-1.80	1.90	 	 	 	 	 	 	 	 	 	 	 	 	 	 	 	 	 	 	1581546161	11.19	20.72
12/02/2020 22:22:42	120220	12022020	222242	238.26	12.250895	-57.024413	238.25	-0.310	-0.270	1.570	238.20	-1.60	1.90	 	 	 	 	 	 	 	 	 	 	 	 	 	 	 	 	 	 	1581546162	11.15	20.65
12/02/2020 22:22:43	120220	12022020	222243	237.93	12.250868	-57.024457	237.90	-0.190	0.040	1.300	237.85	-1.30	1.60	 	 	 	 	 	 	 	 	 	 	 	 	 	 	 	 	 	 	1581546163	11.03	20.43
12/02/2020 22:22:44	120220	12022020	222244	237.54	12.250840	-57.024500	237.52	-0.030	0.340	0.830	237.47	-1.00	1.20	 	 	 	 	 	 	 	 	 	 	 	 	 	 	 	 	 	 	1581546164	10.94	20.26
12/02/2020 22:22:45	120220	12022020	222244	237.20	12.250813	-57.024543	237.18	0.140	0.420	0.440	237.14	-0.90	0.80	 	 	 	 	 	 	 	 	 	 	 	 	 	 	 	 	 	 	1581546164	10.91	20.21
12/02/2020 22:22:46	120220	12022020	222245	236.95	12.250787	-57.024588	236.95	0.280	0.180	0.220	236.93	-1.20	0.60	 	 	 	 	 	 	 	 	 	 	 	 	 	 	 	 	 	 	1581546165	11.03	20.43
12/02/2020 22:22:47	120220	12022020	222246	236.93	12.250760	-57.024633	236.97	0.370	-0.320	0.110	236.97	-1.70	0.50	 	 	 	 	 	 	 	 	 	 	 	 	 	 	 	 	 	 	1581546166	11.18	20.71
12/02/2020 22:22:48	120220	12022020	222248	237.13	12.250733	-57.024680	237.28	0.420	-0.890	-0.020	237.20	-2.30	0.40	 	 	 	 	 	 	 	 	 	 	 	 	 	 	 	 	 	 	1581546168	11.28	20.89
12/02/2020 22:22:49	120220	12022020	222249	237.64	12.250707	-57.024727	237.72	0.390	-1.280	-0.010	237.72	-2.60	0.40	 	 	 	 	 	 	 	 	 	 	 	 	 	 	 	 	 	 	1581546169	11.23	20.80
12/02/2020 22:22:50	120220	12022020	222250	237.95	12.250680	-57.024772	238.08	0.160	-1.340	0.310	238.02	-2.60	0.80	 	 	 	 	 	 	 	 	 	 	 	 	 	 	 	 	 	 	1581546170	11.13	20.61
12/02/2020 22:22:51	120220	12022020	222251	238.17	12.250657	-57.024817	238.17	-0.280	-1.090	0.920	238.15	-2.40	1.40	 	 	 	 	 	 	 	 	 	 	 	 	 	 	 	 	 	 	1581546171	11.03	20.43
12/02/2020 22:22:52	120220	12022020	222252	237.89	12.250633	-57.024863	237.81	-0.690	-0.700	1.700	237.79	-2.00	2.20	 	 	 	 	 	 	 	 	 	 	 	 	 	 	 	 	 	 	1581546172	11.10	20.56
12/02/2020 22:22:53	120220	12022020	222253	237.32	12.250610	-57.024912	237.24	-0.870	-0.190	2.250	237.21	-1.40	2.70	 	 	 	 	 	 	 	 	 	 	 	 	 	 	 	 	 	 	1581546173	11.23	20.80
12/02/2020 22:22:54	120220	12022020	222254	236.90	12.250587	-57.024958	236.89	-0.730	0.360	2.170	236.86	-0.90	2.50	 	 	 	 	 	 	 	 	 	 	 	 	 	 	 	 	 	 	1581546174	11.12	20.59
12/02/2020 22:22:55	120220	12022020	222255	236.86	12.250562	-57.025003	236.91	-0.360	0.760	1.560	236.89	-0.50	1.80	 	 	 	 	 	 	 	 	 	 	 	 	 	 	 	 	 	 	1581546175	11.04	20.45
12/02/2020 22:22:56	120220	12022020	222256	237.19	12.250533	-57.025048	237.28	0.100	0.790	0.710	237.28	-0.60	1.00	 	 	 	 	 	 	 	 	 	 	 	 	 	 	 	 	 	 	1581546176	10.99	20.35
12/02/2020 22:22:57	120220	12022020	222257	237.66	12.250505	-57.025092	237.73	0.530	0.250	0.100	237.74	-1.20	0.50	 	 	 	 	 	 	 	 	 	 	 	 	 	 	 	 	 	 	1581546177	11.25	20.84
12/02/2020 22:22:58	120220	12022020	222258	238.00	12.250477	-57.025138	238.04	0.790	-0.550	0.030	238.04	-2.00	0.50	 	 	 	 	 	 	 	 	 	 	 	 	 	 	 	 	 	 	1581546178	11.50	21.30
12/02/2020 22:22:59	120220	12022020	222259	238.09	12.250450	-57.025183	238.07	0.760	-1.070	0.430	238.07	-2.40	0.90	 	 	 	 	 	 	 	 	 	 	 	 	 	 	 	 	 	 	1581546179	11.31	20.95
12/02/2020 22:23:00	120220	12022020	222259	237.90	12.250427	-57.025230	237.85	0.450	-1.110	1.010	237.84	-2.40	1.50	 	 	 	 	 	 	 	 	 	 	 	 	 	 	 	 	 	 	1581546179	10.98	20.33
12/02/2020 22:23:01	120220	12022020	222300	237.66	12.250403	-57.025275	237.63	-0.030	-0.790	1.450	237.62	-2.10	1.90	 	 	 	 	 	 	 	 	 	 	 	 	 	 	 	 	 	 	1581546180	10.73	19.87
12/02/2020 22:23:02	120220	12022020	222301	237.54	12.250382	-57.025320	237.54	-0.420	-0.390	1.580	237.53	-1.70	2.00	1015.00	26.30	31.80	20.60	22.40	-2.0	70.0	57.0	385.0	25.6	198.00	5.40	66.00	11.00	17	10531.0	27.4	27.4	1581546181	10.66	19.74
12/02/2020 22:23:03	120220	12022020	222302	237.47	12.250357	-57.025365	237.47	-0.480	-0.210	1.390	237.45	-1.60	1.70	 	 	 	 	 	 	 	 	 	 	 	 	 	 	 	 	 	 	1581546182	10.88	20.15
12/02/2020 22:23:04	120220	12022020	222304	237.34	12.250330	-57.025412	237.32	-0.190	-0.380	1.030	237.31	-1.70	1.40	 	 	 	 	 	 	 	 	 	 	 	 	 	 	 	 	 	 	1581546184	11.29	20.91
12/02/2020 22:23:05	120220	12022020	222304	237.28	12.250302	-57.025458	237.30	0.130	-0.630	0.670	237.28	-2.00	1.00	 	 	 	 	 	 	 	 	 	 	 	 	 	 	 	 	 	 	1581546184	11.55	21.39
12/02/2020 22:23:06	120220	12022020	222305	237.42	12.250273	-57.025503	237.49	0.170	-0.670	0.420	237.47	-2.00	0.80	 	 	 	 	 	 	 	 	 	 	 	 	 	 	 	 	 	 	1581546185	11.42	21.15
12/02/2020 22:23:07	120220	12022020	222307	237.70	12.250247	-57.025548	237.77	-0.050	-0.380	0.330	237.76	-1.70	0.70	 	 	 	 	 	 	 	 	 	 	 	 	 	 	 	 	 	 	1581546187	11.09	20.54
12/02/2020 22:23:08	120220	12022020	222307	237.98	12.250220	-57.025592	238.05	-0.280	0.040	0.430	238.04	-1.20	0.90	 	 	 	 	 	 	 	 	 	 	 	 	 	 	 	 	 	 	1581546187	10.87	20.13
12/02/2020 22:23:09	120220	12022020	222308	238.24	12.250197	-57.025637	238.30	-0.310	0.330	0.690	238.28	-1.00	1.10	 	 	 	 	 	 	 	 	 	 	 	 	 	 	 	 	 	 	1581546188	10.90	20.19
12/02/2020 22:23:10	120220	12022020	222310	238.39	12.250173	-57.025685	238.44	-0.120	0.230	1.170	238.41	-1.10	1.60	 	 	 	 	 	 	 	 	 	 	 	 	 	 	 	 	 	 	1581546190	11.16	20.67
12/02/2020 22:23:11	120220	12022020	222310	238.40	12.250150	-57.025733	238.41	0.190	-0.210	1.720	238.38	-1.60	2.20	 	 	 	 	 	 	 	 	 	 	 	 	 	 	 	 	 	 	1581546190	11.49	21.28
12/02/2020 22:23:12	120220	12022020	222311	238.25	12.250127	-57.025783	238.12	0.410	-0.640	2.080	238.18	-2.00	2.50	 	 	 	 	 	 	 	 	 	 	 	 	 	 	 	 	 	 	1581546191	11.53	21.35
12/02/2020 22:23:13	120220	12022020	222312	237.66	12.250103	-57.025830	237.56	0.400	-0.790	2.130	237.53	-2.10	2.50	 	 	 	 	 	 	 	 	 	 	 	 	 	 	 	 	 	 	1581546192	11.22	20.78
12/02/2020 22:23:14	120220	12022020	222314	237.08	12.250077	-57.025875	237.02	0.200	-0.700	1.770	236.98	-2.00	2.10	 	 	 	 	 	 	 	 	 	 	 	 	 	 	 	 	 	 	1581546194	10.96	20.30
12/02/2020 22:23:15	120220	12022020	222315	236.73	12.250048	-57.025917	236.74	-0.050	-0.550	1.170	236.70	-1.90	1.50	 	 	 	 	 	 	 	 	 	 	 	 	 	 	 	 	 	 	1581546195	10.92	20.22
12/02/2020 22:23:16	120220	12022020	222315	236.71	12.250018	-57.025960	236.77	-0.230	-0.470	0.570	236.73	-1.80	0.90	 	 	 	 	 	 	 	 	 	 	 	 	 	 	 	 	 	 	1581546195	11.05	20.46
12/02/2020 22:23:17	120220	12022020	222317	236.94	12.249990	-57.026003	237.02	-0.270	-0.450	0.190	236.99	-1.80	0.60	 	 	 	 	 	 	 	 	 	 	 	 	 	 	 	 	 	 	1581546197	11.21	20.76
12/02/2020 22:23:18	120220	12022020	222318	237.26	12.249963	-57.026050	237.35	-0.230	-0.350	0.340	237.33	-1.70	0.80	 	 	 	 	 	 	 	 	 	 	 	 	 	 	 	 	 	 	1581546198	11.22	20.78
12/02/2020 22:23:19	120220	12022020	222318	237.59	12.249940	-57.026097	237.68	-0.130	-0.100	0.870	237.65	-1.40	1.30	 	 	 	 	 	 	 	 	 	 	 	 	 	 	 	 	 	 	1581546198	11.05	20.46
12/02/2020 22:23:20	120220	12022020	222319	237.88	12.249918	-57.026143	237.99	0.020	0.090	1.320	237.94	-1.20	1.70	 	 	 	 	 	 	 	 	 	 	 	 	 	 	 	 	 	 	1581546199	10.97	20.32
12/02/2020 22:23:21	120220	12022020	222320	238.19	12.249895	-57.026190	238.29	0.210	0.030	1.460	238.24	-1.30	1.80	 	 	 	 	 	 	 	 	 	 	 	 	 	 	 	 	 	 	1581546200	11.06	20.48
12/02/2020 22:23:22	120220	12022020	222321	238.41	12.249872	-57.026237	238.48	0.360	-0.310	1.300	238.43	-1.70	1.70	 	 	 	 	 	 	 	 	 	 	 	 	 	 	 	 	 	 	1581546201	11.24	20.82
12/02/2020 22:23:23	120220	12022020	222322	238.37	12.249845	-57.026283	238.36	0.400	-0.690	1.130	238.31	-2.10	1.50	 	 	 	 	 	 	 	 	 	 	 	 	 	 	 	 	 	 	1581546202	11.39	21.09
12/02/2020 22:23:24	120220	12022020	222323	237.99	12.249817	-57.026328	237.92	0.250	-0.790	1.090	237.88	-2.10	1.50	 	 	 	 	 	 	 	 	 	 	 	 	 	 	 	 	 	 	1581546203	11.23	20.80
12/02/2020 22:23:25	120220	12022020	222324	237.41	12.249792	-57.026373	237.32	0.000	-0.590	1.180	237.28	-1.90	1.60	 	 	 	 	 	 	 	 	 	 	 	 	 	 	 	 	 	 	1581546204	10.94	20.26
12/02/2020 22:23:26	120220	12022020	222325	236.92	12.249765	-57.026418	236.74	-0.170	-0.370	1.410	236.81	-1.70	1.90	 	 	 	 	 	 	 	 	 	 	 	 	 	 	 	 	 	 	1581546205	11.00	20.37
12/02/2020 22:23:27	120220	12022020	222327	236.39	12.249740	-57.026465	236.38	-0.200	-0.160	1.680	236.33	-1.50	2.10	 	 	 	 	 	 	 	 	 	 	 	 	 	 	 	 	 	 	1581546207	11.14	20.63
12/02/2020 22:23:28	120220	12022020	222328	236.21	12.249715	-57.026510	236.24	-0.120	0.100	1.740	236.20	-1.20	2.10	 	 	 	 	 	 	 	 	 	 	 	 	 	 	 	 	 	 	1581546208	11.06	20.48
12/02/2020 22:23:29	120220	12022020	222328	236.19	12.249690	-57.026555	236.26	-0.040	0.200	1.660	236.20	-1.20	2.00	 	 	 	 	 	 	 	 	 	 	 	 	 	 	 	 	 	 	1581546208	10.99	20.35
12/02/2020 22:23:30	120220	12022020	222329	236.30	12.249665	-57.026602	236.40	0.030	-0.090	1.540	236.35	-1.50	1.90	 	 	 	 	 	 	 	 	 	 	 	 	 	 	 	 	 	 	1581546209	11.19	20.72
12/02/2020 22:23:31	120220	12022020	222331	236.63	12.249638	-57.026648	236.75	0.110	-0.600	1.290	236.72	-2.00	1.60	 	 	 	 	 	 	 	 	 	 	 	 	 	 	 	 	 	 	1581546211	11.42	21.15
12/02/2020 22:23:32	120220	12022020	222332	237.10	12.249613	-57.026695	237.22	0.160	-0.940	0.990	237.20	-2.30	1.30	 	 	 	 	 	 	 	 	 	 	 	 	 	 	 	 	 	 	1581546212	11.28	20.89
12/02/2020 22:23:33	120220	12022020	222332	237.53	12.249587	-57.026740	237.62	0.120	-0.940	0.700	237.60	-2.30	1.10	 	 	 	 	 	 	 	 	 	 	 	 	 	 	 	 	 	 	1581546212	10.97	20.32
12/02/2020 22:23:34	120220	12022020	222333	237.87	12.249560	-57.026783	237.96	-0.030	-0.710	0.460	237.94	-2.00	0.80	 	 	 	 	 	 	 	 	 	 	 	 	 	 	 	 	 	 	1581546213	10.83	20.06
12/02/2020 22:23:35	120220	12022020	222334	238.16	12.249533	-57.026827	238.22	-0.260	-0.350	0.310	238.21	-1.60	0.70	 	 	 	 	 	 	 	 	 	 	 	 	 	 	 	 	 	 	1581546214	10.81	20.02
12/02/2020 22:23:36	120220	12022020	222335	238.36	12.249507	-57.026870	238.42	-0.370	-0.050	0.300	238.39	-1.40	0.70	 	 	 	 	 	 	 	 	 	 	 	 	 	 	 	 	 	 	1581546215	10.91	20.21
12/02/2020 22:23:37	120220	12022020	222336	238.53	12.249480	-57.026915	238.59	-0.270	0.120	0.380	238.56	-1.20	0.80	 	 	 	 	 	 	 	 	 	 	 	 	 	 	 	 	 	 	1581546216	11.06	20.48
12/02/2020 22:23:38	120220	12022020	222337	238.56	12.249453	-57.026960	238.57	-0.040	0.140	0.780	238.56	-1.20	1.20	 	 	 	 	 	 	 	 	 	 	 	 	 	 	 	 	 	 	1581546217	11.16	20.67
12/02/2020 22:23:39	120220	12022020	222339	238.23	12.249428	-57.027007	238.14	0.170	-0.000	1.320	238.11	-1.40	1.80	 	 	 	 	 	 	 	 	 	 	 	 	 	 	 	 	 	 	1581546219	11.20	20.74
12/02/2020 22:23:40	120220	12022020	222340	237.44	12.249405	-57.027055	237.29	0.300	-0.360	1.870	237.44	-1.80	2.30	 	 	 	 	 	 	 	 	 	 	 	 	 	 	 	 	 	 	1581546220	11.41	21.13
12/02/2020 22:23:41	120220	12022020	222341	236.45	12.249380	-57.027103	236.28	0.300	-0.750	2.300	236.27	-2.10	2.70	 	 	 	 	 	 	 	 	 	 	 	 	 	 	 	 	 	 	1581546221	11.59	21.46
12/02/2020 22:23:42	120220	12022020	222341	235.61	12.249357	-57.027152	235.54	0.150	-0.820	2.340	235.50	-2.10	2.70	 	 	 	 	 	 	 	 	 	 	 	 	 	 	 	 	 	 	1581546221	11.40	21.11
12/02/2020 22:23:43	120220	12022020	222342	235.29	12.249333	-57.027198	235.35	-0.100	-0.550	1.880	235.30	-1.80	2.20	 	 	 	 	 	 	 	 	 	 	 	 	 	 	 	 	 	 	1581546222	10.98	20.33
12/02/2020 22:23:44	120220	12022020	222344	235.55	12.249308	-57.027243	235.70	-0.340	-0.230	1.190	235.66	-1.50	1.50	 	 	 	 	 	 	 	 	 	 	 	 	 	 	 	 	 	 	1581546224	10.77	19.95
12/02/2020 22:23:45	120220	12022020	222344	236.25	12.249283	-57.027287	236.46	-0.400	-0.090	0.410	236.43	-1.40	0.70	 	 	 	 	 	 	 	 	 	 	 	 	 	 	 	 	 	 	1581546224	10.84	20.08
12/02/2020 22:23:46	120220	12022020	222346	237.23	12.249255	-57.027330	237.46	-0.190	-0.080	-0.270	237.44	-1.40	0.10	 	 	 	 	 	 	 	 	 	 	 	 	 	 	 	 	 	 	1581546226	10.94	20.26
12/02/2020 22:23:47	120220	12022020	222346	238.28	12.249227	-57.027373	238.49	0.170	-0.140	-0.590	238.48	-1.50	-0.20	 	 	 	 	 	 	 	 	 	 	 	 	 	 	 	 	 	 	1581546226	10.91	20.21
12/02/2020 22:23:48	120220	12022020	222347	239.14	12.249200	-57.027417	239.27	0.450	-0.310	-0.350	239.26	-1.70	0.10	 	 	 	 	 	 	 	 	 	 	 	 	 	 	 	 	 	 	1581546227	10.94	20.26
12/02/2020 22:23:49	120220	12022020	222349	239.54	12.249173	-57.027462	239.57	0.470	-0.630	0.380	239.55	-2.00	0.90	 	 	 	 	 	 	 	 	 	 	 	 	 	 	 	 	 	 	1581546229	11.10	20.56
12/02/2020 22:23:50	120220	12022020	222349	239.37	12.249150	-57.027508	239.32	0.240	-0.850	1.350	239.28	-2.20	1.90	 	 	 	 	 	 	 	 	 	 	 	 	 	 	 	 	 	 	1581546229	11.25	20.84
12/02/2020 22:23:51	120220	12022020	222350	238.87	12.249128	-57.027557	238.79	-0.090	-0.740	2.040	238.75	-2.00	2.50	 	 	 	 	 	 	 	 	 	 	 	 	 	 	 	 	 	 	1581546230	11.11	20.58
12/02/2020 22:23:52	120220	12022020	222351	238.26	12.249105	-57.027603	238.15	-0.330	-0.450	2.160	238.12	-1.70	2.50	 	 	 	 	 	 	 	 	 	 	 	 	 	 	 	 	 	 	1581546231	10.94	20.26
12/02/2020 22:23:53	120220	12022020	222353	237.56	12.249080	-57.027648	237.47	-0.400	-0.260	1.890	237.43	-1.60	2.20	 	 	 	 	 	 	 	 	 	 	 	 	 	 	 	 	 	 	1581546233	11.04	20.45
12/02/2020 22:23:54	120220	12022020	222354	236.91	12.249053	-57.027693	236.81	-0.320	-0.260	1.430	236.80	-1.60	1.80	 	 	 	 	 	 	 	 	 	 	 	 	 	 	 	 	 	 	1581546234	11.24	20.82
12/02/2020 22:23:55	120220	12022020	222354	236.34	12.249025	-57.027740	236.26	-0.150	-0.300	1.060	236.25	-1.60	1.40	 	 	 	 	 	 	 	 	 	 	 	 	 	 	 	 	 	 	1581546234	11.29	20.91
12/02/2020 22:23:56	120220	12022020	222355	235.95	12.248998	-57.027785	235.93	0.010	-0.200	0.910	235.91	-1.50	1.30	 	 	 	 	 	 	 	 	 	 	 	 	 	 	 	 	 	 	1581546235	11.16	20.67
12/02/2020 22:23:57	120220	12022020	222357	235.84	12.248973	-57.027830	235.86	0.080	-0.100	0.980	235.85	-1.40	1.40	 	 	 	 	 	 	 	 	 	 	 	 	 	 	 	 	 	 	1581546237	11.02	20.41
12/02/2020 22:23:58	120220	12022020	222358	235.97	12.248950	-57.027877	236.01	0.060	-0.150	1.170	236.01	-1.50	1.60	 	 	 	 	 	 	 	 	 	 	 	 	 	 	 	 	 	 	1581546238	11.08	20.52
12/02/2020 22:23:59	120220	12022020	222358	236.29	12.248927	-57.027923	236.40	0.030	-0.270	1.330	236.39	-1.60	1.70	 	 	 	 	 	 	 	 	 	 	 	 	 	 	 	 	 	 	1581546238	11.14	20.63
12/02/2020 22:24:00	120220	12022020	222359	236.87	12.248903	-57.027970	237.03	0.020	-0.290	1.140	237.00	-1.60	1.50	 	 	 	 	 	 	 	 	 	 	 	 	 	 	 	 	 	 	1581546239	10.98	20.33
12/02/2020 22:24:01	120220	12022020	222400	237.56	12.248877	-57.028013	237.72	0.060	-0.150	0.650	237.71	-1.50	0.90	 	 	 	 	 	 	 	 	 	 	 	 	 	 	 	 	 	 	1581546240	10.71	19.83
12/02/2020 22:24:02	120220	12022020	222401	238.12	12.248850	-57.028055	238.39	0.090	-0.060	0.140	238.26	-1.40	0.50	1015.00	26.40	33.30	20.60	22.10	-2.0	70.0	52.0	385.0	25.6	197.00	5.30	65.00	10.90	16	11529.0	27.4	27.4	1581546241	10.63	19.69
12/02/2020 22:24:03	120220	12022020	222403	238.81	12.248822	-57.028098	238.87	0.110	-0.240	-0.090	238.89	-1.60	0.30	 	 	 	 	 	 	 	 	 	 	 	 	 	 	 	 	 	 	1581546243	10.84	20.08
12/02/2020 22:24:04	120220	12022020	222404	239.05	12.248795	-57.028142	239.07	0.170	-0.560	-0.010	239.06	-2.00	0.40	 	 	 	 	 	 	 	 	 	 	 	 	 	 	 	 	 	 	1581546244	11.07	20.50
12/02/2020 22:24:05	120220	12022020	222404	238.99	12.248767	-57.028187	238.93	0.220	-0.780	0.260	238.94	-2.10	0.70	 	 	 	 	 	 	 	 	 	 	 	 	 	 	 	 	 	 	1581546244	11.15	20.65
12/02/2020 22:24:06	120220	12022020	222406	238.57	12.248742	-57.028232	238.45	0.180	-0.800	0.740	238.45	-2.10	1.20	 	 	 	 	 	 	 	 	 	 	 	 	 	 	 	 	 	 	1581546246	11.04	20.45
12/02/2020 22:24:07	120220	12022020	222407	237.76	12.248717	-57.028278	237.57	0.090	-0.810	1.460	237.57	-2.20	1.90	 	 	 	 	 	 	 	 	 	 	 	 	 	 	 	 	 	 	1581546247	11.13	20.61
12/02/2020 22:24:08	120220	12022020	222407	236.67	12.248693	-57.028327	236.47	-0.010	-0.780	2.130	236.44	-2.10	2.60	 	 	 	 	 	 	 	 	 	 	 	 	 	 	 	 	 	 	1581546247	11.38	21.08
12/02/2020 22:24:09	120220	12022020	222409	235.63	12.248670	-57.028375	235.51	-0.180	-0.530	2.530	235.46	-1.80	2.90	 	 	 	 	 	 	 	 	 	 	 	 	 	 	 	 	 	 	1581546249	11.38	21.08
12/02/2020 22:24:10	120220	12022020	222409	234.94	12.248645	-57.028422	234.91	-0.430	-0.130	2.410	234.86	-1.40	2.70	 	 	 	 	 	 	 	 	 	 	 	 	 	 	 	 	 	 	1581546249	11.16	20.67
12/02/2020 22:24:11	120220	12022020	222410	234.79	12.248622	-57.028467	234.88	-0.620	0.250	1.790	234.84	-1.10	2.10	 	 	 	 	 	 	 	 	 	 	 	 	 	 	 	 	 	 	1581546250	10.99	20.35
12/02/2020 22:24:12	120220	12022020	222411	235.30	12.248595	-57.028512	235.50	-0.540	0.440	0.810	235.48	-0.90	1.00	 	 	 	 	 	 	 	 	 	 	 	 	 	 	 	 	 	 	1581546251	10.87	20.13
12/02/2020 22:24:13	120220	12022020	222412	236.33	12.248568	-57.028555	236.56	-0.180	0.250	-0.110	236.56	-1.20	0.20	 	 	 	 	 	 	 	 	 	 	 	 	 	 	 	 	 	 	1581546252	10.94	20.26
12/02/2020 22:24:14	120220	12022020	222413	237.48	12.248540	-57.028598	237.67	0.270	-0.260	-0.320	237.69	-1.70	0.10	 	 	 	 	 	 	 	 	 	 	 	 	 	 	 	 	 	 	1581546253	11.18	20.71
12/02/2020 22:24:15	120220	12022020	222414	238.35	12.248513	-57.028645	238.48	0.540	-0.720	0.110	238.48	-2.10	0.60	 	 	 	 	 	 	 	 	 	 	 	 	 	 	 	 	 	 	1581546254	11.19	20.72
12/02/2020 22:24:16	120220	12022020	222416	238.76	12.248490	-57.028690	238.79	0.530	-0.840	0.860	238.78	-2.20	1.40	 	 	 	 	 	 	 	 	 	 	 	 	 	 	 	 	 	 	1581546256	10.92	20.22
12/02/2020 22:24:17	120220	12022020	222416	238.65	12.248467	-57.028735	238.59	0.350	-0.620	1.700	238.56	-1.90	2.20	 	 	 	 	 	 	 	 	 	 	 	 	 	 	 	 	 	 	1581546256	10.68	19.78
12/02/2020 22:24:18	120220	12022020	222417	238.13	12.248445	-57.028780	238.03	0.120	-0.340	2.160	238.01	-1.70	2.50	 	 	 	 	 	 	 	 	 	 	 	 	 	 	 	 	 	 	1581546257	10.67	19.76
12/02/2020 22:24:19	120220	12022020	222418	237.50	12.248420	-57.028825	237.40	-0.030	-0.210	2.000	237.39	-1.60	2.30	 	 	 	 	 	 	 	 	 	 	 	 	 	 	 	 	 	 	1581546258	10.85	20.09
12/02/2020 22:24:20	120220	12022020	222420	236.95	12.248392	-57.028870	236.87	-0.050	-0.300	1.410	236.87	-1.70	1.70	 	 	 	 	 	 	 	 	 	 	 	 	 	 	 	 	 	 	1581546260	11.11	20.58
12/02/2020 22:24:21	120220	12022020	222420	236.63	12.248363	-57.028913	236.57	-0.050	-0.490	0.640	236.59	-1.90	0.90	 	 	 	 	 	 	 	 	 	 	 	 	 	 	 	 	 	 	1581546260	11.26	20.85
12/02/2020 22:24:22	120220	12022020	222421	236.58	12.248333	-57.028957	236.57	-0.170	-0.520	-0.010	236.59	-1.90	0.30	 	 	 	 	 	 	 	 	 	 	 	 	 	 	 	 	 	 	1581546261	11.13	20.61
12/02/2020 22:24:23	120220	12022020	222422	236.75	12.248307	-57.029000	236.76	-0.340	-0.330	-0.230	236.80	-1.70	0.20	 	 	 	 	 	 	 	 	 	 	 	 	 	 	 	 	 	 	1581546262	10.80	20.00
12/02/2020 22:24:24	120220	12022020	222424	237.00	12.248282	-57.029043	237.02	-0.400	-0.120	-0.100	237.04	-1.40	0.30	 	 	 	 	 	 	 	 	 	 	 	 	 	 	 	 	 	 	1581546264	10.69	19.80
12/02/2020 22:24:25	120220	12022020	222424	237.16	12.248258	-57.029088	237.16	-0.260	-0.040	0.440	237.17	-1.40	0.90	 	 	 	 	 	 	 	 	 	 	 	 	 	 	 	 	 	 	1581546264	10.83	20.06
12/02/2020 22:24:26	120220	12022020	222425	237.11	12.248235	-57.029135	237.08	-0.040	-0.140	1.310	237.08	-1.50	1.80	 	 	 	 	 	 	 	 	 	 	 	 	 	 	 	 	 	 	1581546265	11.04	20.45
12/02/2020 22:24:27	120220	12022020	222426	236.90	12.248213	-57.029183	236.87	0.130	-0.290	2.100	236.86	-1.70	2.50	 	 	 	 	 	 	 	 	 	 	 	 	 	 	 	 	 	 	1581546266	11.10	20.56
12/02/2020 22:24:28	120220	12022020	222428	236.69	12.248190	-57.029230	236.65	0.220	-0.500	2.390	236.64	-1.90	2.80	 	 	 	 	 	 	 	 	 	 	 	 	 	 	 	 	 	 	1581546268	11.00	20.37
12/02/2020 22:24:29	120220	12022020	222429	236.39	12.248165	-57.029277	236.33	0.300	-0.780	2.290	236.32	-2.20	2.60	 	 	 	 	 	 	 	 	 	 	 	 	 	 	 	 	 	 	1581546269	11.08	20.52
12/02/2020 22:24:30	120220	12022020	222430	236.11	12.248140	-57.029322	236.11	0.350	-0.930	1.860	236.11	-2.30	2.20	 	 	 	 	 	 	 	 	 	 	 	 	 	 	 	 	 	 	1581546270	11.12	20.59
12/02/2020 22:24:31	120220	12022020	222430	236.11	12.248112	-57.029365	236.15	0.300	-0.770	1.210	236.14	-2.10	1.50	 	 	 	 	 	 	 	 	 	 	 	 	 	 	 	 	 	 	1581546270	10.91	20.21
12/02/2020 22:24:32	120220	12022020	222432	236.34	12.248085	-57.029407	236.40	0.090	-0.400	0.650	236.39	-1.70	1.00	 	 	 	 	 	 	 	 	 	 	 	 	 	 	 	 	 	 	1581546272	10.73	19.87
12/02/2020 22:24:33	120220	12022020	222432	236.64	12.248057	-57.029450	236.71	-0.180	0.010	0.340	236.70	-1.30	0.70	 	 	 	 	 	 	 	 	 	 	 	 	 	 	 	 	 	 	1581546272	10.76	19.93
12/02/2020 22:24:34	120220	12022020	222433	236.98	12.248032	-57.029493	237.04	-0.370	0.410	0.250	237.05	-0.90	0.60	 	 	 	 	 	 	 	 	 	 	 	 	 	 	 	 	 	 	1581546273	10.78	19.96
12/02/2020 22:24:35	120220	12022020	222434	237.34	12.248005	-57.029537	237.42	-0.350	0.690	0.190	237.42	-0.70	0.60	 	 	 	 	 	 	 	 	 	 	 	 	 	 	 	 	 	 	1581546274	10.71	19.83
12/02/2020 22:24:36	120220	12022020	222435	237.66	12.247977	-57.029578	237.68	-0.120	0.580	0.210	237.69	-0.80	0.60	 	 	 	 	 	 	 	 	 	 	 	 	 	 	 	 	 	 	1581546275	10.81	20.02
12/02/2020 22:24:37	120220	12022020	222437	237.65	12.247948	-57.029623	237.60	0.120	-0.020	0.670	237.59	-1.50	1.20	 	 	 	 	 	 	 	 	 	 	 	 	 	 	 	 	 	 	1581546277	11.11	20.58
12/02/2020 22:24:38	120220	12022020	222437	237.26	12.247923	-57.029670	237.18	0.260	-0.770	1.470	237.16	-2.20	2.00	 	 	 	 	 	 	 	 	 	 	 	 	 	 	 	 	 	 	1581546277	11.33	20.98
12/02/2020 22:24:39	120220	12022020	222438	236.76	12.247900	-57.029717	236.69	0.270	-1.220	2.180	236.67	-2.60	2.60	 	 	 	 	 	 	 	 	 	 	 	 	 	 	 	 	 	 	1581546278	11.11	20.58
12/02/2020 22:24:40	120220	12022020	222439	236.33	12.247877	-57.029762	236.28	0.230	-1.370	2.540	236.25	-2.70	2.90	 	 	 	 	 	 	 	 	 	 	 	 	 	 	 	 	 	 	1581546279	10.83	20.06
12/02/2020 22:24:41	120220	12022020	222440	235.92	12.247853	-57.029807	235.89	0.160	-1.400	2.510	235.85	-2.70	2.90	 	 	 	 	 	 	 	 	 	 	 	 	 	 	 	 	 	 	1581546280	10.84	20.08
12/02/2020 22:24:42	120220	12022020	222442	235.59	12.247828	-57.029852	235.59	0.040	-1.280	2.140	235.54	-2.60	2.40	 	 	 	 	 	 	 	 	 	 	 	 	 	 	 	 	 	 	1581546282	10.98	20.33
12/02/2020 22:24:43	120220	12022020	222442	235.49	12.247802	-57.029897	235.56	-0.150	-0.970	1.500	235.52	-2.30	1.80	 	 	 	 	 	 	 	 	 	 	 	 	 	 	 	 	 	 	1581546282	11.06	20.48
12/02/2020 22:24:44	120220	12022020	222443	235.69	12.247775	-57.029942	235.78	-0.340	-0.480	0.920	235.75	-1.80	1.20	 	 	 	 	 	 	 	 	 	 	 	 	 	 	 	 	 	 	1581546283	11.07	20.50
12/02/2020 22:24:45	120220	12022020	222444	236.06	12.247747	-57.029985	236.17	-0.430	0.090	0.540	236.15	-1.20	0.90	 	 	 	 	 	 	 	 	 	 	 	 	 	 	 	 	 	 	1581546284	11.06	20.48
12/02/2020 22:24:46	120220	12022020	222445	236.52	12.247718	-57.030030	236.63	-0.350	0.590	0.450	236.61	-0.70	0.90	 	 	 	 	 	 	 	 	 	 	 	 	 	 	 	 	 	 	1581546285	11.10	20.56
12/02/2020 22:24:47	120220	12022020	222447	236.89	12.247692	-57.030073	236.98	-0.170	0.900	0.680	236.94	-0.40	1.10	 	 	 	 	 	 	 	 	 	 	 	 	 	 	 	 	 	 	1581546287	11.13	20.61
12/02/2020 22:24:48	120220	12022020	222447	237.06	12.247663	-57.030118	237.12	-0.030	0.950	1.090	237.08	-0.40	1.50	 	 	 	 	 	 	 	 	 	 	 	 	 	 	 	 	 	 	1581546287	11.15	20.65
12/02/2020 22:24:49	120220	12022020	222449	237.12	12.247637	-57.030163	237.19	0.030	0.830	1.490	237.14	-0.50	1.90	 	 	 	 	 	 	 	 	 	 	 	 	 	 	 	 	 	 	1581546289	11.02	20.41
12/02/2020 22:24:50	120220	12022020	222449	237.27	12.247612	-57.030207	237.37	0.040	0.550	1.610	237.32	-0.90	2.00	 	 	 	 	 	 	 	 	 	 	 	 	 	 	 	 	 	 	1581546289	10.75	19.91
12/02/2020 22:24:51	120220	12022020	222451	237.55	12.247587	-57.030250	237.65	0.180	0.020	1.320	237.60	-1.40	1.60	 	 	 	 	 	 	 	 	 	 	 	 	 	 	 	 	 	 	1581546291	10.60	19.63
12/02/2020 22:24:52	120220	12022020	222451	237.77	12.247560	-57.030293	237.82	0.510	-0.820	0.790	237.79	-2.30	1.10	 	 	 	 	 	 	 	 	 	 	 	 	 	 	 	 	 	 	1581546291	10.72	19.85
12/02/2020 22:24:53	120220	12022020	222452	237.78	12.247533	-57.030337	237.78	0.820	-1.690	0.470	237.76	-3.10	0.90	 	 	 	 	 	 	 	 	 	 	 	 	 	 	 	 	 	 	1581546292	10.94	20.26
12/02/2020 22:24:54	120220	12022020	222454	237.62	12.247508	-57.030382	237.59	0.830	-2.180	0.510	237.58	-3.50	0.90	 	 	 	 	 	 	 	 	 	 	 	 	 	 	 	 	 	 	1581546294	10.90	20.19
12/02/2020 22:24:55	120220	12022020	222454	237.34	12.247483	-57.030427	237.28	0.480	-2.070	0.690	237.27	-3.30	1.10	 	 	 	 	 	 	 	 	 	 	 	 	 	 	 	 	 	 	1581546294	10.72	19.85
12/02/2020 22:24:56	120220	12022020	222456	236.98	12.247460	-57.030470	236.92	-0.080	-1.500	0.990	236.91	-2.70	1.40	 	 	 	 	 	 	 	 	 	 	 	 	 	 	 	 	 	 	1581546296	10.67	19.76
12/02/2020 22:24:57	120220	12022020	222456	236.67	12.247435	-57.030515	236.66	-0.590	-0.750	1.230	236.64	-2.00	1.60	 	 	 	 	 	 	 	 	 	 	 	 	 	 	 	 	 	 	1581546296	10.87	20.13
12/02/2020 22:24:58	120220	12022020	222457	236.59	12.247410	-57.030562	236.63	-0.860	-0.090	1.150	236.61	-1.40	1.50	 	 	 	 	 	 	 	 	 	 	 	 	 	 	 	 	 	 	1581546297	11.16	20.67
12/02/2020 22:24:59	120220	12022020	222458	236.73	12.247383	-57.030608	236.80	-0.860	0.350	0.810	236.77	-0.90	1.10	 	 	 	 	 	 	 	 	 	 	 	 	 	 	 	 	 	 	1581546298	11.42	21.15
12/02/2020 22:25:00	120220	12022020	222459	236.95	12.247355	-57.030655	237.03	-0.690	0.490	0.490	237.00	-0.80	0.80	 	 	 	 	 	 	 	 	 	 	 	 	 	 	 	 	 	 	1581546299	11.67	21.61
12/02/2020 22:25:01	120220	12022020	222500	237.22	12.247327	-57.030702	237.31	-0.480	0.520	0.300	237.28	-0.80	0.70	 	 	 	 	 	 	 	 	 	 	 	 	 	 	 	 	 	 	1581546300	11.72	21.71
12/02/2020 22:25:02	120220	12022020	222501	237.60	12.247298	-57.030748	237.71	-0.300	0.660	0.260	237.69	-0.70	0.70	1015.00	26.40	32.60	20.80	22.10	-2.0	71.0	54.0	385.0	25.5	195.00	5.00	64.00	10.50	16	11560.0	27.4	27.4	1581546301	11.34	21.00
12/02/2020 22:25:03	120220	12022020	222503	238.05	12.247273	-57.030793	238.15	-0.140	0.770	0.380	238.14	-0.60	0.80	 	 	 	 	 	 	 	 	 	 	 	 	 	 	 	 	 	 	1581546303	10.95	20.28
12/02/2020 22:25:04	120220	12022020	222504	238.40	12.247250	-57.030838	238.46	0.030	0.630	0.600	238.45	-0.80	1.00	 	 	 	 	 	 	 	 	 	 	 	 	 	 	 	 	 	 	1581546304	10.82	20.04
12/02/2020 22:25:05	120220	12022020	222504	238.53	12.247225	-57.030883	238.53	0.260	0.250	0.740	238.52	-1.20	1.10	 	 	 	 	 	 	 	 	 	 	 	 	 	 	 	 	 	 	1581546304	10.81	20.02
12/02/2020 22:25:06	120220	12022020	222505	238.40	12.247200	-57.030927	238.37	0.530	-0.210	0.790	238.40	-1.60	1.20	 	 	 	 	 	 	 	 	 	 	 	 	 	 	 	 	 	 	1581546305	10.74	19.89
12/02/2020 22:25:07	120220	12022020	222506	238.21	12.247175	-57.030970	238.18	0.780	-0.590	0.760	238.17	-2.00	1.10	 	 	 	 	 	 	 	 	 	 	 	 	 	 	 	 	 	 	1581546306	10.56	19.56
12/02/2020 22:25:08	120220	12022020	222507	238.01	12.247152	-57.031013	237.97	0.900	-0.970	0.730	237.97	-2.40	1.10	 	 	 	 	 	 	 	 	 	 	 	 	 	 	 	 	 	 	1581546307	10.48	19.41
12/02/2020 22:25:09	120220	12022020	222508	237.71	12.247127	-57.031057	237.63	0.820	-1.400	0.790	237.63	-2.80	1.20	 	 	 	 	 	 	 	 	 	 	 	 	 	 	 	 	 	 	1581546308	10.72	19.85
12/02/2020 22:25:10	120220	12022020	222509	237.26	12.247102	-57.031102	237.17	0.520	-1.660	0.890	237.16	-3.00	1.30	 	 	 	 	 	 	 	 	 	 	 	 	 	 	 	 	 	 	1581546309	10.93	20.24
12/02/2020 22:25:11	120220	12022020	222510	236.80	12.247077	-57.031147	236.74	0.060	-1.560	0.930	236.72	-2.90	1.30	 	 	 	 	 	 	 	 	 	 	 	 	 	 	 	 	 	 	1581546310	10.92	20.22
12/02/2020 22:25:12	120220	12022020	222511	236.49	12.247050	-57.031192	236.48	-0.370	-1.220	0.830	236.45	-2.50	1.20	 	 	 	 	 	 	 	 	 	 	 	 	 	 	 	 	 	 	1581546311	10.95	20.28
12/02/2020 22:25:13	120220	12022020	222512	236.39	12.247025	-57.031237	236.42	-0.620	-0.770	0.650	236.39	-2.00	1.00	 	 	 	 	 	 	 	 	 	 	 	 	 	 	 	 	 	 	1581546312	11.14	20.63
12/02/2020 22:25:14	120220	12022020	222513	236.48	12.246998	-57.031283	236.55	-0.630	-0.280	0.580	236.52	-1.60	1.00	 	 	 	 	 	 	 	 	 	 	 	 	 	 	 	 	 	 	1581546313	11.28	20.89
12/02/2020 22:25:15	120220	12022020	222515	236.75	12.246973	-57.031330	236.87	-0.530	0.110	0.580	236.83	-1.20	1.00	 	 	 	 	 	 	 	 	 	 	 	 	 	 	 	 	 	 	1581546315	11.46	21.22
12/02/2020 22:25:16	120220	12022020	222516	237.26	12.246947	-57.031378	237.43	-0.450	0.390	0.550	237.39	-0.90	0.90	 	 	 	 	 	 	 	 	 	 	 	 	 	 	 	 	 	 	1581546316	11.50	21.30
12/02/2020 22:25:17	120220	12022020	222516	237.92	12.246920	-57.031425	238.09	-0.420	0.570	0.540	238.04	-0.80	0.90	 	 	 	 	 	 	 	 	 	 	 	 	 	 	 	 	 	 	1581546316	11.42	21.15
12/02/2020 22:25:18	120220	12022020	222517	238.32	12.246895	-57.031472	238.48	-0.300	0.680	0.730	238.38	-0.60	1.20	 	 	 	 	 	 	 	 	 	 	 	 	 	 	 	 	 	 	1581546317	11.28	20.89
12/02/2020 22:25:19	120220	12022020	222519	238.49	12.246870	-57.031517	238.54	-0.020	0.780	1.050	238.49	-0.60	1.50	 	 	 	 	 	 	 	 	 	 	 	 	 	 	 	 	 	 	1581546319	11.00	20.37
12/02/2020 22:25:20	120220	12022020	222519	238.45	12.246845	-57.031562	238.46	0.340	0.630	1.130	238.43	-0.80	1.50	 	 	 	 	 	 	 	 	 	 	 	 	 	 	 	 	 	 	1581546319	10.82	20.04
12/02/2020 22:25:21	120220	12022020	222521	238.22	12.246818	-57.031605	238.22	0.600	0.080	1.080	238.15	-1.40	1.50	 	 	 	 	 	 	 	 	 	 	 	 	 	 	 	 	 	 	1581546321	10.94	20.26
12/02/2020 22:25:22	120220	12022020	222521	237.79	12.246792	-57.031650	237.75	0.660	-0.600	1.040	237.69	-2.00	1.40	 	 	 	 	 	 	 	 	 	 	 	 	 	 	 	 	 	 	1581546321	11.00	20.37
12/02/2020 22:25:23	120220	12022020	222522	237.26	12.246767	-57.031695	237.22	0.500	-1.020	0.950	237.17	-2.40	1.30	 	 	 	 	 	 	 	 	 	 	 	 	 	 	 	 	 	 	1581546322	10.84	20.08
12/02/2020 22:25:24	120220	12022020	222523	236.88	12.246743	-57.031738	236.90	0.270	-1.080	0.770	236.84	-2.40	1.10	 	 	 	 	 	 	 	 	 	 	 	 	 	 	 	 	 	 	1581546323	10.52	19.48
12/02/2020 22:25:25	120220	12022020	222524	236.81	12.246720	-57.031782	236.88	0.160	-0.970	0.340	236.83	-2.30	0.70	 	 	 	 	 	 	 	 	 	 	 	 	 	 	 	 	 	 	1581546324	10.40	19.26
12/02/2020 22:25:26	120220	12022020	222526	237.05	12.246693	-57.031823	237.17	0.220	-0.950	-0.220	237.13	-2.30	0.10	 	 	 	 	 	 	 	 	 	 	 	 	 	 	 	 	 	 	1581546326	10.57	19.58
12/02/2020 22:25:27	120220	12022020	222526	237.44	12.246665	-57.031867	237.55	0.290	-1.160	-0.430	237.50	-2.50	-0.00	 	 	 	 	 	 	 	 	 	 	 	 	 	 	 	 	 	 	1581546326	11.04	20.45
12/02/2020 22:25:28	120220	12022020	222528	237.67	12.246637	-57.031913	237.75	0.160	-1.410	-0.010	237.69	-2.80	0.50	 	 	 	 	 	 	 	 	 	 	 	 	 	 	 	 	 	 	1581546328	11.49	21.28
12/02/2020 22:25:29	120220	12022020	222528	237.70	12.246612	-57.031960	237.76	-0.220	-1.290	0.790	237.69	-2.60	1.30	 	 	 	 	 	 	 	 	 	 	 	 	 	 	 	 	 	 	1581546328	11.53	21.35
12/02/2020 22:25:30	120220	12022020	222529	237.61	12.246588	-57.032010	237.65	-0.620	-0.770	1.550	237.58	-2.00	2.00	 	 	 	 	 	 	 	 	 	 	 	 	 	 	 	 	 	 	1581546329	11.39	21.09
12/02/2020 22:25:31	120220	12022020	222530	237.38	12.246567	-57.032058	237.39	-0.760	-0.090	2.100	237.32	-1.30	2.50	 	 	 	 	 	 	 	 	 	 	 	 	 	 	 	 	 	 	1581546330	11.37	21.06
12/02/2020 22:25:32	120220	12022020	222531	237.03	12.246543	-57.032107	237.02	-0.590	0.550	2.310	236.95	-0.70	2.70	 	 	 	 	 	 	 	 	 	 	 	 	 	 	 	 	 	 	1581546331	11.38	21.08
12/02/2020 22:25:33	120220	12022020	222532	236.69	12.246518	-57.032155	236.72	-0.280	0.960	2.130	236.64	-0.40	2.50	 	 	 	 	 	 	 	 	 	 	 	 	 	 	 	 	 	 	1581546332	11.39	21.09
12/02/2020 22:25:34	120220	12022020	222533	236.54	12.246493	-57.032202	236.61	-0.050	1.050	1.600	236.54	-0.30	1.90	 	 	 	 	 	 	 	 	 	 	 	 	 	 	 	 	 	 	1581546333	11.35	21.02
12/02/2020 22:25:35	120220	12022020	222534	236.67	12.246465	-57.032247	236.79	0.080	0.880	0.850	236.73	-0.50	1.10	 	 	 	 	 	 	 	 	 	 	 	 	 	 	 	 	 	 	1581546334	11.18	20.71
12/02/2020 22:25:36	120220	12022020	222535	237.03	12.246438	-57.032290	237.15	0.220	0.560	0.110	237.11	-0.80	0.40	 	 	 	 	 	 	 	 	 	 	 	 	 	 	 	 	 	 	1581546335	10.94	20.26
12/02/2020 22:25:37	120220	12022020	222536	237.42	12.246408	-57.032332	237.52	0.440	0.100	-0.410	237.49	-1.30	-0.00	 	 	 	 	 	 	 	 	 	 	 	 	 	 	 	 	 	 	1581546336	10.79	19.98
12/02/2020 22:25:38	120220	12022020	222537	237.72	12.246380	-57.032373	237.80	0.660	-0.430	-0.510	237.76	-1.80	-0.10	 	 	 	 	 	 	 	 	 	 	 	 	 	 	 	 	 	 	1581546337	10.73	19.87
12/02/2020 22:25:39	120220	12022020	222538	237.88	12.246353	-57.032415	237.92	0.660	-0.910	-0.130	237.89	-2.30	0.40	 	 	 	 	 	 	 	 	 	 	 	 	 	 	 	 	 	 	1581546338	10.61	19.65
12/02/2020 22:25:40	120220	12022020	222540	237.87	12.246328	-57.032458	237.88	0.410	-1.330	0.560	237.84	-2.70	1.10	 	 	 	 	 	 	 	 	 	 	 	 	 	 	 	 	 	 	1581546340	10.60	19.63
12/02/2020 22:25:41	120220	12022020	222540	237.72	12.246307	-57.032503	237.72	0.100	-1.720	1.410	237.67	-3.10	1.90	 	 	 	 	 	 	 	 	 	 	 	 	 	 	 	 	 	 	1581546340	10.83	20.06
12/02/2020 22:25:42	120220	12022020	222541	237.41	12.246285	-57.032552	237.38	-0.080	-1.970	2.200	237.32	-3.30	2.70	 	 	 	 	 	 	 	 	 	 	 	 	 	 	 	 	 	 	1581546341	11.16	20.67
12/02/2020 22:25:43	120220	12022020	222542	236.89	12.246263	-57.032600	236.84	-0.060	-1.890	2.610	236.77	-3.20	3.00	 	 	 	 	 	 	 	 	 	 	 	 	 	 	 	 	 	 	1581546342	11.33	20.98
12/02/2020 22:25:44	120220	12022020	222543	236.31	12.246238	-57.032648	236.27	0.000	-1.550	2.590	236.20	-2.80	2.90	 	 	 	 	 	 	 	 	 	 	 	 	 	 	 	 	 	 	1581546343	11.43	21.17
12/02/2020 22:25:45	120220	12022020	222544	235.82	12.246212	-57.032697	235.84	-0.080	-0.970	2.310	235.75	-2.20	2.60	 	 	 	 	 	 	 	 	 	 	 	 	 	 	 	 	 	 	1581546344	11.59	21.46
12/02/2020 22:25:46	120220	12022020	222545	235.61	12.246185	-57.032743	235.70	-0.400	-0.060	1.980	235.61	-1.30	2.30	 	 	 	 	 	 	 	 	 	 	 	 	 	 	 	 	 	 	1581546345	11.52	21.34
12/02/2020 22:25:47	120220	12022020	222546	235.80	12.246158	-57.032788	235.98	-0.800	1.040	1.640	235.88	-0.20	2.00	 	 	 	 	 	 	 	 	 	 	 	 	 	 	 	 	 	 	1581546346	11.17	20.69
12/02/2020 22:25:48	120220	12022020	222548	236.34	12.246133	-57.032835	236.55	-0.960	1.800	1.230	236.48	0.50	1.60	 	 	 	 	 	 	 	 	 	 	 	 	 	 	 	 	 	 	1581546348	11.02	20.41
12/02/2020 22:25:49	120220	12022020	222548	237.06	12.246107	-57.032880	237.28	-0.660	1.720	0.830	237.21	0.30	1.20	 	 	 	 	 	 	 	 	 	 	 	 	 	 	 	 	 	 	1581546348	11.35	21.02
12/02/2020 22:25:50	120220	12022020	222549	237.78	12.246077	-57.032927	237.96	-0.090	1.000	0.580	237.92	-0.50	1.00	 	 	 	 	 	 	 	 	 	 	 	 	 	 	 	 	 	 	1581546349	11.69	21.65
12/02/2020 22:25:51	120220	12022020	222550	238.34	12.246048	-57.032972	238.44	0.370	0.220	0.650	238.42	-1.20	1.10	 	 	 	 	 	 	 	 	 	 	 	 	 	 	 	 	 	 	1581546350	11.48	21.26
12/02/2020 22:25:52	120220	12022020	222551	238.54	12.246022	-57.033017	238.56	0.560	-0.260	0.890	238.53	-1.60	1.30	 	 	 	 	 	 	 	 	 	 	 	 	 	 	 	 	 	 	1581546351	10.88	20.15
12/02/2020 22:25:53	120220	12022020	222552	238.43	12.245997	-57.033058	238.43	0.580	-0.460	1.030	238.39	-1.80	1.40	 	 	 	 	 	 	 	 	 	 	 	 	 	 	 	 	 	 	1581546352	10.33	19.13
12/02/2020 22:25:54	120220	12022020	222553	238.25	12.245972	-57.033100	238.25	0.580	-0.660	0.920	238.21	-2.00	1.30	 	 	 	 	 	 	 	 	 	 	 	 	 	 	 	 	 	 	1581546353	10.19	18.87
12/02/2020 22:25:55	120220	12022020	222554	238.01	12.245947	-57.033142	237.97	0.620	-1.150	0.660	237.95	-2.60	1.00	 	 	 	 	 	 	 	 	 	 	 	 	 	 	 	 	 	 	1581546354	10.48	19.41
12/02/2020 22:25:56	120220	12022020	222555	237.60	12.245920	-57.033187	237.52	0.650	-1.900	0.540	237.60	-3.30	0.90	 	 	 	 	 	 	 	 	 	 	 	 	 	 	 	 	 	 	1581546355	11.09	20.54
12/02/2020 22:25:57	120220	12022020	222556	237.05	12.245893	-57.033233	236.98	0.520	-2.420	0.720	236.94	-3.80	1.10	 	 	 	 	 	 	 	 	 	 	 	 	 	 	 	 	 	 	1581546356	11.47	21.24
12/02/2020 22:25:58	120220	12022020	222557	236.59	12.245870	-57.033282	236.56	0.140	-2.220	1.040	236.52	-3.50	1.50	 	 	 	 	 	 	 	 	 	 	 	 	 	 	 	 	 	 	1581546357	11.30	20.93
12/02/2020 22:25:59	120220	12022020	222558	236.28	12.245848	-57.033328	236.29	-0.400	-1.490	1.300	236.24	-2.70	1.70	 	 	 	 	 	 	 	 	 	 	 	 	 	 	 	 	 	 	1581546358	11.10	20.56
12/02/2020 22:26:00	120220	12022020	222559	236.12	12.245823	-57.033377	236.17	-0.860	-0.610	1.380	236.11	-1.80	1.80	 	 	 	 	 	 	 	 	 	 	 	 	 	 	 	 	 	 	1581546359	11.24	20.82
12/02/2020 22:26:01	120220	12022020	222600	236.14	12.245798	-57.033423	236.25	-1.020	0.180	1.310	236.16	-1.10	1.70	 	 	 	 	 	 	 	 	 	 	 	 	 	 	 	 	 	 	1581546360	11.52	21.34
12/02/2020 22:26:02	120220	12022020	222601	236.32	12.245770	-57.033472	236.46	-0.860	0.890	1.180	236.37	-0.40	1.50	1015.00	27.50	33.70	21.20	22.30	-2.0	68.0	51.0	385.0	25.5	191.00	5.10	62.00	10.70	16	11947.0	27.4	27.4	1581546361	11.65	21.58
12/02/2020 22:26:03	120220	12022020	222602	236.59	12.245742	-57.033517	236.74	-0.550	1.490	1.010	236.65	0.20	1.40	 	 	 	 	 	 	 	 	 	 	 	 	 	 	 	 	 	 	1581546362	11.50	21.30
12/02/2020 22:26:04	120220	12022020	222604	236.88	12.245713	-57.033562	237.04	-0.330	1.740	0.840	236.94	0.40	1.20	 	 	 	 	 	 	 	 	 	 	 	 	 	 	 	 	 	 	1581546364	11.34	21.00
12/02/2020 22:26:05	120220	12022020	222604	237.22	12.245687	-57.033607	237.38	-0.220	1.570	0.720	237.29	0.20	1.10	 	 	 	 	 	 	 	 	 	 	 	 	 	 	 	 	 	 	1581546364	11.18	20.71
12/02/2020 22:26:06	120220	12022020	222605	237.55	12.245660	-57.033652	237.69	-0.060	1.010	0.690	237.61	-0.50	1.10	 	 	 	 	 	 	 	 	 	 	 	 	 	 	 	 	 	 	1581546365	10.97	20.32
12/02/2020 22:26:07	120220	12022020	222606	237.74	12.245635	-57.033697	237.81	0.310	0.010	0.850	237.74	-1.50	1.30	 	 	 	 	 	 	 	 	 	 	 	 	 	 	 	 	 	 	1581546366	10.94	20.26
12/02/2020 22:26:08	120220	12022020	222607	237.62	12.245610	-57.033743	237.62	0.800	-1.210	1.260	237.62	-2.70	1.70	 	 	 	 	 	 	 	 	 	 	 	 	 	 	 	 	 	 	1581546367	11.07	20.50
12/02/2020 22:26:09	120220	12022020	222608	237.27	12.245587	-57.033788	237.24	1.150	-2.100	1.630	237.17	-3.50	2.10	 	 	 	 	 	 	 	 	 	 	 	 	 	 	 	 	 	 	1581546368	10.96	20.30
12/02/2020 22:26:10	120220	12022020	222609	236.88	12.245563	-57.033833	236.78	1.190	-2.270	1.700	236.78	-3.60	2.10	 	 	 	 	 	 	 	 	 	 	 	 	 	 	 	 	 	 	1581546369	10.54	19.52
12/02/2020 22:26:11	120220	12022020	222611	236.41	12.245538	-57.033873	236.44	0.880	-1.850	1.450	236.37	-3.10	1.80	 	 	 	 	 	 	 	 	 	 	 	 	 	 	 	 	 	 	1581546371	10.23	18.95
12/02/2020 22:26:12	120220	12022020	222611	236.24	12.245513	-57.033915	236.29	0.330	-1.260	1.080	236.22	-2.50	1.40	 	 	 	 	 	 	 	 	 	 	 	 	 	 	 	 	 	 	1581546371	10.37	19.21
12/02/2020 22:26:13	120220	12022020	222612	236.21	12.245485	-57.033958	236.30	-0.250	-0.860	0.860	236.22	-2.20	1.20	 	 	 	 	 	 	 	 	 	 	 	 	 	 	 	 	 	 	1581546372	10.90	20.19
12/02/2020 22:26:14	120220	12022020	222613	236.29	12.245458	-57.034005	236.39	-0.700	-0.760	0.860	236.31	-2.10	1.30	 	 	 	 	 	 	 	 	 	 	 	 	 	 	 	 	 	 	1581546373	11.60	21.48
12/02/2020 22:26:15	120220	12022020	222614	236.41	12.245430	-57.034055	236.51	-0.940	-0.580	1.090	236.43	-1.90	1.50	 	 	 	 	 	 	 	 	 	 	 	 	 	 	 	 	 	 	1581546374	12.03	22.28
12/02/2020 22:26:16	120220	12022020	222615	236.58	12.245405	-57.034103	236.70	-1.060	0.150	1.340	236.62	-1.10	1.80	 	 	 	 	 	 	 	 	 	 	 	 	 	 	 	 	 	 	1581546375	11.70	21.67
12/02/2020 22:26:17	120220	12022020	222616	236.85	12.245380	-57.034150	237.01	-1.070	1.110	1.430	236.92	-0.10	1.80	 	 	 	 	 	 	 	 	 	 	 	 	 	 	 	 	 	 	1581546376	11.09	20.54
12/02/2020 22:26:18	120220	12022020	222617	237.19	12.245357	-57.034197	237.34	-0.860	1.590	1.270	237.25	0.20	1.60	 	 	 	 	 	 	 	 	 	 	 	 	 	 	 	 	 	 	1581546377	11.03	20.43
12/02/2020 22:26:19	120220	12022020	222618	237.47	12.245328	-57.034242	237.58	-0.350	1.340	0.860	237.51	-0.10	1.20	 	 	 	 	 	 	 	 	 	 	 	 	 	 	 	 	 	 	1581546378	11.33	20.98
12/02/2020 22:26:20	120220	12022020	222619	237.64	12.245300	-57.034287	237.71	0.320	0.680	0.380	237.66	-0.80	0.70	 	 	 	 	 	 	 	 	 	 	 	 	 	 	 	 	 	 	1581546379	11.43	21.17
12/02/2020 22:26:21	120220	12022020	222621	237.72	12.245270	-57.034330	237.78	0.870	0.000	0.090	237.73	-1.40	0.50	 	 	 	 	 	 	 	 	 	 	 	 	 	 	 	 	 	 	1581546381	11.12	20.59
12/02/2020 22:26:22	120220	12022020	222621	237.78	12.245243	-57.034373	237.82	1.050	-0.630	0.130	237.78	-2.10	0.60	 	 	 	 	 	 	 	 	 	 	 	 	 	 	 	 	 	 	1581546381	10.71	19.83
12/02/2020 22:26:23	120220	12022020	222622	237.77	12.245220	-57.034417	237.79	0.900	-1.240	0.460	237.75	-2.60	0.90	 	 	 	 	 	 	 	 	 	 	 	 	 	 	 	 	 	 	1581546382	10.62	19.67
12/02/2020 22:26:24	120220	12022020	222623	237.59	12.245197	-57.034462	237.58	0.590	-1.620	0.970	237.54	-3.00	1.40	 	 	 	 	 	 	 	 	 	 	 	 	 	 	 	 	 	 	1581546383	10.69	19.80
12/02/2020 22:26:25	120220	12022020	222624	237.32	12.245175	-57.034508	237.32	0.290	-1.570	1.390	237.27	-2.90	1.80	 	 	 	 	 	 	 	 	 	 	 	 	 	 	 	 	 	 	1581546384	10.64	19.71
12/02/2020 22:26:26	120220	12022020	222625	237.06	12.245153	-57.034552	237.07	0.080	-1.190	1.500	237.03	-2.40	1.90	 	 	 	 	 	 	 	 	 	 	 	 	 	 	 	 	 	 	1581546385	10.60	19.63
12/02/2020 22:26:27	120220	12022020	222626	236.92	12.245128	-57.034597	236.95	-0.060	-0.650	1.220	236.91	-1.90	1.60	 	 	 	 	 	 	 	 	 	 	 	 	 	 	 	 	 	 	1581546386	10.68	19.78
12/02/2020 22:26:28	120220	12022020	222627	236.89	12.245102	-57.034640	236.95	-0.160	-0.190	0.760	236.89	-1.50	1.10	 	 	 	 	 	 	 	 	 	 	 	 	 	 	 	 	 	 	1581546387	10.89	20.17
12/02/2020 22:26:29	120220	12022020	222628	236.95	12.245073	-57.034683	237.03	-0.260	0.040	0.440	236.98	-1.30	0.80	 	 	 	 	 	 	 	 	 	 	 	 	 	 	 	 	 	 	1581546388	11.13	20.61
12/02/2020 22:26:30	120220	12022020	222629	237.03	12.245045	-57.034730	237.10	-0.350	-0.040	0.600	237.03	-1.40	1.10	 	 	 	 	 	 	 	 	 	 	 	 	 	 	 	 	 	 	1581546389	11.42	21.15
12/02/2020 22:26:31	120220	12022020	222630	236.97	12.245018	-57.034777	237.02	-0.430	-0.250	1.160	236.95	-1.60	1.60	 	 	 	 	 	 	 	 	 	 	 	 	 	 	 	 	 	 	1581546390	11.63	21.54
12/02/2020 22:26:32	120220	12022020	222631	236.86	12.244995	-57.034827	236.92	-0.460	-0.320	1.710	236.84	-1.60	2.20	 	 	 	 	 	 	 	 	 	 	 	 	 	 	 	 	 	 	1581546391	11.57	21.43
12/02/2020 22:26:33	120220	12022020	222632	236.76	12.244970	-57.034873	236.83	-0.440	-0.110	1.950	236.75	-1.40	2.30	 	 	 	 	 	 	 	 	 	 	 	 	 	 	 	 	 	 	1581546392	11.20	20.74
12/02/2020 22:26:34	120220	12022020	222633	236.76	12.244947	-57.034918	236.86	-0.350	0.170	1.700	236.78	-1.20	2.00	 	 	 	 	 	 	 	 	 	 	 	 	 	 	 	 	 	 	1581546393	10.85	20.09
12/02/2020 22:26:35	120220	12022020	222634	236.92	12.244920	-57.034962	237.03	-0.170	0.200	1.180	236.95	-1.20	1.50	 	 	 	 	 	 	 	 	 	 	 	 	 	 	 	 	 	 	1581546394	10.83	20.06
12/02/2020 22:26:36	120220	12022020	222635	237.08	12.244892	-57.035005	237.18	0.090	-0.010	0.610	237.11	-1.40	0.90	 	 	 	 	 	 	 	 	 	 	 	 	 	 	 	 	 	 	1581546395	11.00	20.37
12/02/2020 22:26:37	120220	12022020	222636	237.18	12.244865	-57.035050	237.25	0.360	-0.250	0.110	237.19	-1.60	0.50	 	 	 	 	 	 	 	 	 	 	 	 	 	 	 	 	 	 	1581546396	11.00	20.37
12/02/2020 22:26:38	120220	12022020	222637	237.23	12.244837	-57.035092	237.28	0.560	-0.410	-0.160	237.23	-1.80	0.20	 	 	 	 	 	 	 	 	 	 	 	 	 	 	 	 	 	 	1581546397	10.88	20.15
12/02/2020 22:26:39	120220	12022020	222638	237.24	12.244808	-57.035135	237.27	0.620	-0.520	-0.010	237.23	-1.90	0.50	 	 	 	 	 	 	 	 	 	 	 	 	 	 	 	 	 	 	1581546398	10.80	20.00
12/02/2020 22:26:40	120220	12022020	222639	237.14	12.244783	-57.035180	237.14	0.450	-0.630	0.550	237.11	-2.00	1.10	 	 	 	 	 	 	 	 	 	 	 	 	 	 	 	 	 	 	1581546399	10.86	20.11
12/02/2020 22:26:41	120220	12022020	222640	236.92	12.244760	-57.035225	236.90	0.160	-0.610	1.280	236.86	-1.90	1.80	 	 	 	 	 	 	 	 	 	 	 	 	 	 	 	 	 	 	1581546400	10.91	20.21
12/02/2020 22:26:42	120220	12022020	222641	236.63	12.244740	-57.035272	236.65	-0.090	-0.370	1.900	236.57	-1.70	2.40	 	 	 	 	 	 	 	 	 	 	 	 	 	 	 	 	 	 	1581546401	10.80	20.00
12/02/2020 22:26:43	120220	12022020	222642	236.36	12.244717	-57.035317	236.42	-0.150	-0.270	2.140	236.31	-1.60	2.50	 	 	 	 	 	 	 	 	 	 	 	 	 	 	 	 	 	 	1581546402	10.82	20.04
12/02/2020 22:26:44	120220	12022020	222643	236.15	12.244692	-57.035363	236.24	-0.050	-0.490	1.930	236.12	-1.90	2.30	 	 	 	 	 	 	 	 	 	 	 	 	 	 	 	 	 	 	1581546403	11.21	20.76
12/02/2020 22:26:45	120220	12022020	222644	236.10	12.244663	-57.035410	236.24	0.050	-0.730	1.400	236.13	-2.10	1.70	 	 	 	 	 	 	 	 	 	 	 	 	 	 	 	 	 	 	1581546404	11.41	21.13
12/02/2020 22:26:46	120220	12022020	222645	236.32	12.244635	-57.035453	236.48	0.040	-0.690	0.750	236.32	-2.00	1.10	 	 	 	 	 	 	 	 	 	 	 	 	 	 	 	 	 	 	1581546405	11.22	20.78
12/02/2020 22:26:47	120220	12022020	222646	236.66	12.244607	-57.035497	236.81	-0.090	-0.470	0.310	236.71	-1.80	0.70	 	 	 	 	 	 	 	 	 	 	 	 	 	 	 	 	 	 	1581546406	10.95	20.28
12/02/2020 22:26:48	120220	12022020	222647	236.88	12.244578	-57.035540	237.01	-0.220	-0.270	0.320	236.92	-1.60	0.80	 	 	 	 	 	 	 	 	 	 	 	 	 	 	 	 	 	 	1581546407	10.92	20.22
12/02/2020 22:26:49	120220	12022020	222648	237.05	12.244553	-57.035585	237.18	-0.330	-0.110	0.580	237.08	-1.50	1.00	 	 	 	 	 	 	 	 	 	 	 	 	 	 	 	 	 	 	1581546408	10.97	20.32
12/02/2020 22:26:50	120220	12022020	222649	237.18	12.244528	-57.035630	237.29	-0.400	-0.090	0.960	237.19	-1.50	1.40	 	 	 	 	 	 	 	 	 	 	 	 	 	 	 	 	 	 	1581546409	11.02	20.41
12/02/2020 22:26:51	120220	12022020	222650	237.17	12.244503	-57.035678	237.25	-0.320	-0.270	1.300	237.16	-1.70	1.70	 	 	 	 	 	 	 	 	 	 	 	 	 	 	 	 	 	 	1581546410	11.23	20.80
12/02/2020 22:26:52	120220	12022020	222651	237.14	12.244478	-57.035725	237.23	-0.100	-0.400	1.430	237.14	-1.80	1.80	 	 	 	 	 	 	 	 	 	 	 	 	 	 	 	 	 	 	1581546411	11.32	20.96
12/02/2020 22:26:53	120220	12022020	222652	237.17	12.244453	-57.035770	237.26	0.120	-0.260	1.340	237.18	-1.60	1.70	 	 	 	 	 	 	 	 	 	 	 	 	 	 	 	 	 	 	1581546412	11.01	20.39
12/02/2020 22:26:54	120220	12022020	222653	237.18	12.244428	-57.035813	237.24	0.250	-0.060	1.090	237.17	-1.40	1.50	 	 	 	 	 	 	 	 	 	 	 	 	 	 	 	 	 	 	1581546413	10.79	19.98
12/02/2020 22:26:55	120220	12022020	222654	237.06	12.244402	-57.035858	237.09	0.260	-0.060	0.830	237.02	-1.40	1.20	 	 	 	 	 	 	 	 	 	 	 	 	 	 	 	 	 	 	1581546414	10.90	20.19
12/02/2020 22:26:56	120220	12022020	222655	236.80	12.244373	-57.035902	236.83	0.190	-0.240	0.730	236.75	-1.60	1.10	 	 	 	 	 	 	 	 	 	 	 	 	 	 	 	 	 	 	1581546415	11.13	20.61
12/02/2020 22:26:57	120220	12022020	222656	236.59	12.244347	-57.035947	236.65	0.080	-0.350	0.770	236.56	-1.70	1.20	 	 	 	 	 	 	 	 	 	 	 	 	 	 	 	 	 	 	1581546416	11.15	20.65
12/02/2020 22:26:58	120220	12022020	222657	236.53	12.244322	-57.035992	236.61	-0.020	-0.280	0.960	236.52	-1.60	1.40	 	 	 	 	 	 	 	 	 	 	 	 	 	 	 	 	 	 	1581546417	10.94	20.26
12/02/2020 22:26:59	120220	12022020	222658	236.53	12.244297	-57.036037	236.62	-0.050	-0.180	1.190	236.53	-1.50	1.60	 	 	 	 	 	 	 	 	 	 	 	 	 	 	 	 	 	 	1581546418	10.78	19.96
12/02/2020 22:27:00	120220	12022020	222659	236.53	12.244273	-57.036082	236.60	0.000	-0.280	1.340	236.52	-1.70	1.80	 	 	 	 	 	 	 	 	 	 	 	 	 	 	 	 	 	 	1581546419	10.88	20.15
12/02/2020 22:27:01	120220	12022020	222700	236.36	12.244247	-57.036128	236.41	0.100	-0.650	1.440	236.32	-2.10	1.80	 	 	 	 	 	 	 	 	 	 	 	 	 	 	 	 	 	 	1581546420	11.20	20.74
12/02/2020 22:27:02	120220	12022020	222701	236.13	12.244220	-57.036175	236.16	0.150	-0.990	1.420	236.10	-2.40	1.80	1015.00	28.50	35.10	21.20	22.50	-2.0	64.0	48.0	385.0	25.5	194.00	5.40	64.00	11.00	16	12220.0	27.4	27.4	1581546421	11.37	21.06
12/02/2020 22:27:03	120220	12022020	222702	236.06	12.244195	-57.036220	236.15	0.080	-0.970	1.140	236.08	-2.30	1.50	 	 	 	 	 	 	 	 	 	 	 	 	 	 	 	 	 	 	1581546422	11.11	20.58
12/02/2020 22:27:04	120220	12022020	222703	236.21	12.244168	-57.036263	236.32	-0.020	-0.630	0.810	236.25	-1.90	1.20	 	 	 	 	 	 	 	 	 	 	 	 	 	 	 	 	 	 	1581546423	10.79	19.98
12/02/2020 22:27:05	120220	12022020	222704	236.43	12.244142	-57.036307	236.54	-0.060	-0.290	0.660	236.47	-1.60	1.10	 	 	 	 	 	 	 	 	 	 	 	 	 	 	 	 	 	 	1581546424	10.83	20.06
12/02/2020 22:27:06	120220	12022020	222705	236.63	12.244115	-57.036352	236.73	-0.090	-0.080	0.740	236.65	-1.40	1.20	 	 	 	 	 	 	 	 	 	 	 	 	 	 	 	 	 	 	1581546425	11.05	20.46
12/02/2020 22:27:07	120220	12022020	222706	236.70	12.244088	-57.036397	236.77	-0.200	0.040	0.950	236.69	-1.30	1.40	 	 	 	 	 	 	 	 	 	 	 	 	 	 	 	 	 	 	1581546426	11.18	20.71
12/02/2020 22:27:08	120220	12022020	222708	236.65	12.244062	-57.036443	236.72	-0.380	0.030	1.120	236.64	-1.30	1.50	 	 	 	 	 	 	 	 	 	 	 	 	 	 	 	 	 	 	1581546428	11.25	20.84
12/02/2020 22:27:09	120220	12022020	222708	236.59	12.244035	-57.036488	236.66	-0.510	-0.070	1.060	236.58	-1.50	1.40	 	 	 	 	 	 	 	 	 	 	 	 	 	 	 	 	 	 	1581546428	11.27	20.87
12/02/2020 22:27:10	120220	12022020	222709	236.53	12.244007	-57.036533	236.59	-0.440	-0.260	0.620	236.52	-1.70	0.90	 	 	 	 	 	 	 	 	 	 	 	 	 	 	 	 	 	 	1581546429	11.23	20.80
12/02/2020 22:27:11	120220	12022020	222710	236.53	12.243977	-57.036577	236.61	-0.180	-0.490	0.000	236.54	-1.90	0.30	 	 	 	 	 	 	 	 	 	 	 	 	 	 	 	 	 	 	1581546430	11.26	20.85
12/02/2020 22:27:12	120220	12022020	222711	236.64	12.243947	-57.036620	236.72	0.060	-0.640	-0.240	236.66	-2.00	0.20	 	 	 	 	 	 	 	 	 	 	 	 	 	 	 	 	 	 	1581546431	11.20	20.74
12/02/2020 22:27:13	120220	12022020	222712	236.74	12.243920	-57.036663	236.79	0.140	-0.640	0.090	236.73	-2.00	0.60	 	 	 	 	 	 	 	 	 	 	 	 	 	 	 	 	 	 	1581546432	11.04	20.45
12/02/2020 22:27:14	120220	12022020	222713	236.59	12.243895	-57.036710	236.57	0.140	-0.530	0.820	236.52	-1.90	1.30	 	 	 	 	 	 	 	 	 	 	 	 	 	 	 	 	 	 	1581546433	11.02	20.41
12/02/2020 22:27:15	120220	12022020	222714	236.13	12.243873	-57.036757	236.12	0.170	-0.280	1.620	236.04	-1.60	2.10	 	 	 	 	 	 	 	 	 	 	 	 	 	 	 	 	 	 	1581546434	11.05	20.46
12/02/2020 22:27:16	120220	12022020	222715	235.77	12.243850	-57.036803	235.82	0.220	0.100	1.960	235.73	-1.20	2.40	 	 	 	 	 	 	 	 	 	 	 	 	 	 	 	 	 	 	1581546435	10.90	20.19
12/02/2020 22:27:17	120220	12022020	222716	235.66	12.243827	-57.036848	235.76	0.250	0.380	1.830	235.67	-1.00	2.20	 	 	 	 	 	 	 	 	 	 	 	 	 	 	 	 	 	 	1581546436	10.81	20.02
12/02/2020 22:27:18	120220	12022020	222717	235.80	12.243802	-57.036893	235.93	0.280	0.270	1.370	235.85	-1.10	1.70	 	 	 	 	 	 	 	 	 	 	 	 	 	 	 	 	 	 	1581546437	10.96	20.30
12/02/2020 22:27:19	120220	12022020	222718	236.13	12.243775	-57.036938	236.30	0.290	-0.260	0.770	236.22	-1.70	1.10	 	 	 	 	 	 	 	 	 	 	 	 	 	 	 	 	 	 	1581546438	11.28	20.89
12/02/2020 22:27:20	120220	12022020	222719	236.61	12.243745	-57.036985	236.78	0.210	-0.910	0.260	236.71	-2.30	0.60	 	 	 	 	 	 	 	 	 	 	 	 	 	 	 	 	 	 	1581546439	11.45	21.21
12/02/2020 22:27:21	120220	12022020	222720	237.10	12.243717	-57.037028	237.23	0.000	-1.230	-0.010	237.18	-2.60	0.40	 	 	 	 	 	 	 	 	 	 	 	 	 	 	 	 	 	 	1581546440	11.26	20.85
12/02/2020 22:27:22	120220	12022020	222721	237.36	12.243690	-57.037073	237.49	-0.300	-1.160	0.180	237.40	-2.50	0.60	 	 	 	 	 	 	 	 	 	 	 	 	 	 	 	 	 	 	1581546441	10.98	20.33
12/02/2020 22:27:23	120220	12022020	222722	237.47	12.243663	-57.037117	237.51	-0.570	-0.800	0.660	237.45	-2.10	1.10	 	 	 	 	 	 	 	 	 	 	 	 	 	 	 	 	 	 	1581546442	10.83	20.06
12/02/2020 22:27:24	120220	12022020	222723	237.33	12.243638	-57.037162	237.35	-0.680	-0.350	1.060	237.30	-1.70	1.50	 	 	 	 	 	 	 	 	 	 	 	 	 	 	 	 	 	 	1581546443	10.84	20.08
12/02/2020 22:27:25	120220	12022020	222724	237.16	12.243612	-57.037205	237.18	-0.570	-0.090	1.210	237.12	-1.40	1.60	 	 	 	 	 	 	 	 	 	 	 	 	 	 	 	 	 	 	1581546444	11.02	20.41
12/02/2020 22:27:26	120220	12022020	222725	236.93	12.243583	-57.037252	236.93	-0.290	-0.200	1.190	236.88	-1.60	1.60	 	 	 	 	 	 	 	 	 	 	 	 	 	 	 	 	 	 	1581546445	11.42	21.15
12/02/2020 22:27:27	120220	12022020	222726	236.65	12.243555	-57.037298	236.65	0.030	-0.490	1.120	236.59	-1.90	1.50	 	 	 	 	 	 	 	 	 	 	 	 	 	 	 	 	 	 	1581546446	11.73	21.72
12/02/2020 22:27:28	120220	12022020	222727	236.38	12.243528	-57.037347	236.40	0.200	-0.540	1.050	236.33	-1.90	1.40	 	 	 	 	 	 	 	 	 	 	 	 	 	 	 	 	 	 	1581546447	11.60	21.48
12/02/2020 22:27:29	120220	12022020	222728	236.21	12.243502	-57.037392	236.27	0.150	-0.230	0.950	236.20	-1.50	1.30	 	 	 	 	 	 	 	 	 	 	 	 	 	 	 	 	 	 	1581546448	11.21	20.76
12/02/2020 22:27:30	120220	12022020	222729	236.20	12.243477	-57.037437	236.28	-0.010	0.220	0.850	236.21	-1.10	1.20	 	 	 	 	 	 	 	 	 	 	 	 	 	 	 	 	 	 	1581546449	10.92	20.22
12/02/2020 22:27:31	120220	12022020	222730	236.30	12.243452	-57.037482	236.39	-0.100	0.600	0.810	236.33	-0.70	1.20	 	 	 	 	 	 	 	 	 	 	 	 	 	 	 	 	 	 	1581546450	10.85	20.09
12/02/2020 22:27:32	120220	12022020	222731	236.48	12.243427	-57.037527	236.57	-0.010	0.760	0.830	236.52	-0.60	1.20	 	 	 	 	 	 	 	 	 	 	 	 	 	 	 	 	 	 	1581546451	10.85	20.09
12/02/2020 22:27:33	120220	12022020	222732	236.65	12.243402	-57.037572	236.75	0.230	0.550	0.820	236.68	-0.90	1.20	 	 	 	 	 	 	 	 	 	 	 	 	 	 	 	 	 	 	1581546452	10.99	20.35
12/02/2020 22:27:34	120220	12022020	222733	236.78	12.243375	-57.037615	236.87	0.450	0.040	0.750	236.80	-1.40	1.10	 	 	 	 	 	 	 	 	 	 	 	 	 	 	 	 	 	 	1581546453	11.12	20.59
12/02/2020 22:27:35	120220	12022020	222734	236.89	12.243348	-57.037662	236.98	0.500	-0.610	0.780	236.92	-2.10	1.20	 	 	 	 	 	 	 	 	 	 	 	 	 	 	 	 	 	 	1581546454	11.13	20.61
12/02/2020 22:27:36	120220	12022020	222735	237.04	12.243322	-57.037707	237.15	0.410	-1.310	0.810	237.04	-2.80	1.20	 	 	 	 	 	 	 	 	 	 	 	 	 	 	 	 	 	 	1581546455	11.17	20.69
12/02/2020 22:27:37	120220	12022020	222736	237.28	12.243297	-57.037753	237.41	0.270	-1.820	0.680	237.34	-3.20	1.10	 	 	 	 	 	 	 	 	 	 	 	 	 	 	 	 	 	 	1581546456	11.17	20.69
12/02/2020 22:27:38	120220	12022020	222737	237.56	12.243270	-57.037797	237.66	0.090	-1.980	0.560	237.60	-3.30	1.00	 	 	 	 	 	 	 	 	 	 	 	 	 	 	 	 	 	 	1581546457	11.08	20.52
12/02/2020 22:27:39	120220	12022020	222738	237.65	12.243242	-57.037842	237.71	-0.180	-1.760	0.610	237.64	-3.00	1.00	 	 	 	 	 	 	 	 	 	 	 	 	 	 	 	 	 	 	1581546458	11.06	20.48
12/02/2020 22:27:40	120220	12022020	222739	237.51	12.243215	-57.037887	237.54	-0.490	-1.210	0.750	237.47	-2.50	1.20	 	 	 	 	 	 	 	 	 	 	 	 	 	 	 	 	 	 	1581546459	11.13	20.61
12/02/2020 22:27:41	120220	12022020	222740	237.30	12.243188	-57.037932	237.33	-0.710	-0.490	0.950	237.26	-1.70	1.40	 	 	 	 	 	 	 	 	 	 	 	 	 	 	 	 	 	 	1581546460	11.30	20.93
12/02/2020 22:27:42	120220	12022020	222741	237.17	12.243160	-57.037978	237.24	-0.780	0.330	1.120	237.16	-0.90	1.50	 	 	 	 	 	 	 	 	 	 	 	 	 	 	 	 	 	 	1581546461	11.42	21.15
12/02/2020 22:27:43	120220	12022020	222742	237.19	12.243133	-57.038025	237.26	-0.690	1.050	1.300	237.19	-0.20	1.70	 	 	 	 	 	 	 	 	 	 	 	 	 	 	 	 	 	 	1581546462	11.42	21.15
12/02/2020 22:27:44	120220	12022020	222743	237.22	12.243110	-57.038073	237.31	-0.480	1.550	1.580	237.23	0.20	2.00	 	 	 	 	 	 	 	 	 	 	 	 	 	 	 	 	 	 	1581546463	11.38	21.08
12/02/2020 22:27:45	120220	12022020	222744	237.30	12.243087	-57.038120	237.37	-0.140	1.620	1.780	237.31	0.20	2.20	 	 	 	 	 	 	 	 	 	 	 	 	 	 	 	 	 	 	1581546464	11.26	20.85
12/02/2020 22:27:46	120220	12022020	222745	237.33	12.243063	-57.038168	237.38	0.330	0.980	1.800	237.33	-0.50	2.20	 	 	 	 	 	 	 	 	 	 	 	 	 	 	 	 	 	 	1581546465	11.38	21.08
12/02/2020 22:27:47	120220	12022020	222746	237.28	12.243037	-57.038217	237.31	0.840	-0.140	1.520	237.27	-1.70	1.80	 	 	 	 	 	 	 	 	 	 	 	 	 	 	 	 	 	 	1581546466	11.58	21.45
12/02/2020 22:27:48	120220	12022020	222747	237.19	12.243010	-57.038263	237.20	1.130	-1.060	1.050	237.19	-2.50	1.40	 	 	 	 	 	 	 	 	 	 	 	 	 	 	 	 	 	 	1581546467	11.33	20.98
12/02/2020 22:27:49	120220	12022020	222748	237.10	12.242985	-57.038307	237.13	1.020	-1.360	0.530	237.10	-2.70	0.90	 	 	 	 	 	 	 	 	 	 	 	 	 	 	 	 	 	 	1581546468	10.68	19.78
12/02/2020 22:27:50	120220	12022020	222749	237.13	12.242958	-57.038347	237.22	0.580	-1.260	0.040	237.16	-2.60	0.40	 	 	 	 	 	 	 	 	 	 	 	 	 	 	 	 	 	 	1581546469	10.20	18.89
12/02/2020 22:27:51	120220	12022020	222750	237.42	12.242933	-57.038388	237.51	0.070	-1.220	-0.310	237.49	-2.60	0.10	 	 	 	 	 	 	 	 	 	 	 	 	 	 	 	 	 	 	1581546470	10.37	19.21
12/02/2020 22:27:52	120220	12022020	222751	237.84	12.242905	-57.038432	237.95	-0.280	-1.350	-0.500	237.92	-2.70	-0.10	 	 	 	 	 	 	 	 	 	 	 	 	 	 	 	 	 	 	1581546471	10.90	20.19
12/02/2020 22:27:53	120220	12022020	222752	238.26	12.242878	-57.038478	238.36	-0.410	-1.410	-0.420	238.34	-2.80	0.00	 	 	 	 	 	 	 	 	 	 	 	 	 	 	 	 	 	 	1581546472	11.33	20.98
12/02/2020 22:27:54	120220	12022020	222753	238.58	12.242852	-57.038525	238.66	-0.450	-1.190	-0.160	238.62	-2.50	0.30	 	 	 	 	 	 	 	 	 	 	 	 	 	 	 	 	 	 	1581546473	11.46	21.22
12/02/2020 22:27:55	120220	12022020	222754	238.71	12.242825	-57.038572	238.75	-0.520	-0.720	0.240	238.71	-2.00	0.70	 	 	 	 	 	 	 	 	 	 	 	 	 	 	 	 	 	 	1581546474	11.49	21.28
12/02/2020 22:27:56	120220	12022020	222755	238.60	12.242798	-57.038620	238.60	-0.620	-0.140	0.740	238.54	-1.40	1.20	 	 	 	 	 	 	 	 	 	 	 	 	 	 	 	 	 	 	1581546475	11.56	21.41
12/02/2020 22:27:57	120220	12022020	222756	238.24	12.242773	-57.038667	238.19	-0.700	0.470	1.300	238.14	-0.80	1.80	 	 	 	 	 	 	 	 	 	 	 	 	 	 	 	 	 	 	1581546476	11.55	21.39
12/02/2020 22:27:58	120220	12022020	222757	237.65	12.242750	-57.038717	237.55	-0.640	0.910	1.710	237.50	-0.40	2.10	 	 	 	 	 	 	 	 	 	 	 	 	 	 	 	 	 	 	1581546477	11.52	21.34
12/02/2020 22:27:59	120220	12022020	222758	236.88	12.242725	-57.038765	236.78	-0.340	1.000	1.840	236.72	-0.40	2.20	 	 	 	 	 	 	 	 	 	 	 	 	 	 	 	 	 	 	1581546478	11.55	21.39
12/02/2020 22:28:00	120220	12022020	222759	236.18	12.242700	-57.038813	236.11	0.150	0.780	1.590	236.06	-0.60	1.90	 	 	 	 	 	 	 	 	 	 	 	 	 	 	 	 	 	 	1581546479	11.51	21.32
12/02/2020 22:28:01	120220	12022020	222800	235.77	12.242673	-57.038858	235.79	0.610	0.470	1.090	235.74	-0.90	1.40	 	 	 	 	 	 	 	 	 	 	 	 	 	 	 	 	 	 	1581546480	11.25	20.84
12/02/2020 22:28:02	120220	12022020	222801	235.83	12.242647	-57.038902	235.94	0.850	0.220	0.460	235.90	-1.20	0.80	1015.10	28.00	35.50	20.90	22.30	-2.0	65.0	46.0	386.0	25.5	195.00	5.20	64.00	10.90	16	10601.0	27.4	27.4	1581546481	10.79	19.98
12/02/2020 22:28:03	120220	12022020	222802	236.28	12.242622	-57.038943	236.45	0.820	-0.090	0.070	236.38	-1.50	0.50	 	 	 	 	 	 	 	 	 	 	 	 	 	 	 	 	 	 	1581546482	10.45	19.35
12/02/2020 22:28:04	120220	12022020	222803	236.85	12.242597	-57.038987	237.02	0.710	-0.730	0.160	236.96	-2.20	0.60	 	 	 	 	 	 	 	 	 	 	 	 	 	 	 	 	 	 	1581546483	10.58	19.59
12/02/2020 22:28:05	120220	12022020	222804	237.38	12.242572	-57.039033	237.53	0.630	-1.510	0.570	237.47	-2.90	1.00	 	 	 	 	 	 	 	 	 	 	 	 	 	 	 	 	 	 	1581546484	10.96	20.30
12/02/2020 22:28:06	120220	12022020	222805	237.73	12.242548	-57.039080	237.84	0.510	-2.010	1.080	237.77	-3.40	1.50	 	 	 	 	 	 	 	 	 	 	 	 	 	 	 	 	 	 	1581546485	11.11	20.58
12/02/2020 22:28:07	120220	12022020	222806	237.81	12.242525	-57.039125	237.88	0.230	-1.940	1.510	237.79	-3.20	1.90	 	 	 	 	 	 	 	 	 	 	 	 	 	 	 	 	 	 	1581546486	10.99	20.35
12/02/2020 22:28:08	120220	12022020	222807	237.67	12.242500	-57.039170	237.74	-0.170	-1.350	1.690	237.63	-2.60	2.10	 	 	 	 	 	 	 	 	 	 	 	 	 	 	 	 	 	 	1581546487	10.82	20.04
12/02/2020 22:28:09	120220	12022020	222808	237.44	12.242475	-57.039215	237.48	-0.520	-0.570	1.550	237.38	-1.80	1.90	 	 	 	 	 	 	 	 	 	 	 	 	 	 	 	 	 	 	1581546488	10.86	20.11
12/02/2020 22:28:10	120220	12022020	222809	237.20	12.242447	-57.039258	237.24	-0.680	0.070	1.150	237.16	-1.20	1.50	 	 	 	 	 	 	 	 	 	 	 	 	 	 	 	 	 	 	1581546489	11.14	20.63
12/02/2020 22:28:11	120220	12022020	222810	237.10	12.242418	-57.039305	237.17	-0.620	0.430	0.600	237.10	-0.90	0.90	 	 	 	 	 	 	 	 	 	 	 	 	 	 	 	 	 	 	1581546490	11.45	21.21
12/02/2020 22:28:12	120220	12022020	222811	237.17	12.242388	-57.039350	237.25	-0.450	0.510	0.300	237.19	-0.90	0.70	 	 	 	 	 	 	 	 	 	 	 	 	 	 	 	 	 	 	1581546491	11.60	21.48
12/02/2020 22:28:13	120220	12022020	222812	237.27	12.242360	-57.039397	237.35	-0.300	0.380	0.510	237.30	-1.00	1.00	 	 	 	 	 	 	 	 	 	 	 	 	 	 	 	 	 	 	1581546492	11.63	21.54
12/02/2020 22:28:14	120220	12022020	222813	237.44	12.242335	-57.039445	237.55	-0.220	0.220	1.000	237.49	-1.20	1.50	 	 	 	 	 	 	 	 	 	 	 	 	 	 	 	 	 	 	1581546493	11.50	21.30
12/02/2020 22:28:15	120220	12022020	222814	237.65	12.242313	-57.039493	237.74	-0.100	0.160	1.580	237.67	-1.20	2.10	 	 	 	 	 	 	 	 	 	 	 	 	 	 	 	 	 	 	1581546494	11.20	20.74
12/02/2020 22:28:16	120220	12022020	222815	237.65	12.242293	-57.039540	237.70	0.160	0.120	2.030	237.62	-1.20	2.50	 	 	 	 	 	 	 	 	 	 	 	 	 	 	 	 	 	 	1581546495	10.95	20.28
12/02/2020 22:28:17	120220	12022020	222816	237.38	12.242270	-57.039587	237.40	0.520	-0.050	2.040	237.32	-1.40	2.40	 	 	 	 	 	 	 	 	 	 	 	 	 	 	 	 	 	 	1581546496	10.85	20.09
12/02/2020 22:28:18	120220	12022020	222817	237.03	12.242245	-57.039630	237.04	0.780	-0.340	1.730	236.97	-1.70	2.10	 	 	 	 	 	 	 	 	 	 	 	 	 	 	 	 	 	 	1581546497	10.83	20.06
12/02/2020 22:28:19	120220	12022020	222818	236.77	12.242218	-57.039675	236.81	0.750	-0.720	1.300	236.73	-2.10	1.60	 	 	 	 	 	 	 	 	 	 	 	 	 	 	 	 	 	 	1581546498	10.84	20.08
12/02/2020 22:28:20	120220	12022020	222819	236.60	12.242192	-57.039718	236.64	0.520	-1.090	0.810	236.57	-2.50	1.20	 	 	 	 	 	 	 	 	 	 	 	 	 	 	 	 	 	 	1581546499	10.96	20.30
12/02/2020 22:28:21	120220	12022020	222820	236.54	12.242165	-57.039763	236.63	0.240	-1.160	0.340	236.57	-2.50	0.70	 	 	 	 	 	 	 	 	 	 	 	 	 	 	 	 	 	 	1581546500	10.94	20.26
12/02/2020 22:28:22	120220	12022020	222821	236.83	12.242138	-57.039805	236.98	0.020	-0.860	-0.150	236.93	-2.20	0.20	 	 	 	 	 	 	 	 	 	 	 	 	 	 	 	 	 	 	1581546501	10.74	19.89
12/02/2020 22:28:23	120220	12022020	222822	237.39	12.242112	-57.039848	237.58	-0.150	-0.550	-0.380	237.51	-1.90	0.00	 	 	 	 	 	 	 	 	 	 	 	 	 	 	 	 	 	 	1581546502	10.80	20.00
12/02/2020 22:28:24	120220	12022020	222823	237.95	12.242085	-57.039895	238.10	-0.300	-0.420	-0.060	238.04	-1.80	0.40	 	 	 	 	 	 	 	 	 	 	 	 	 	 	 	 	 	 	1581546503	11.16	20.67
12/02/2020 22:28:25	120220	12022020	222824	238.26	12.242060	-57.039942	238.35	-0.440	-0.360	0.650	238.28	-1.70	1.20	 	 	 	 	 	 	 	 	 	 	 	 	 	 	 	 	 	 	1581546504	11.43	21.17
12/02/2020 22:28:26	120220	12022020	222825	238.28	12.242037	-57.039990	238.31	-0.510	-0.220	1.430	238.26	-1.50	1.90	 	 	 	 	 	 	 	 	 	 	 	 	 	 	 	 	 	 	1581546505	11.44	21.19
12/02/2020 22:28:27	120220	12022020	222826	238.09	12.242013	-57.040038	238.14	-0.500	0.090	1.910	238.05	-1.20	2.30	 	 	 	 	 	 	 	 	 	 	 	 	 	 	 	 	 	 	1581546506	11.22	20.78
12/02/2020 22:28:28	120220	12022020	222827	237.88	12.241990	-57.040083	237.91	-0.370	0.400	2.000	237.83	-0.90	2.40	 	 	 	 	 	 	 	 	 	 	 	 	 	 	 	 	 	 	1581546507	10.91	20.21
12/02/2020 22:28:29	120220	12022020	222828	237.55	12.241965	-57.040128	237.55	-0.080	0.340	1.890	237.48	-1.10	2.30	 	 	 	 	 	 	 	 	 	 	 	 	 	 	 	 	 	 	1581546508	10.95	20.28
12/02/2020 22:28:30	120220	12022020	222829	237.13	12.241938	-57.040175	237.12	0.260	-0.120	1.600	237.04	-1.50	1.90	 	 	 	 	 	 	 	 	 	 	 	 	 	 	 	 	 	 	1581546509	11.26	20.85
12/02/2020 22:28:31	120220	12022020	222830	236.70	12.241912	-57.040220	236.68	0.500	-0.620	1.220	236.61	-2.00	1.60	 	 	 	 	 	 	 	 	 	 	 	 	 	 	 	 	 	 	1581546510	11.31	20.95
12/02/2020 22:28:32	120220	12022020	222831	236.32	12.241885	-57.040265	236.32	0.570	-0.900	0.970	236.27	-2.30	1.30	 	 	 	 	 	 	 	 	 	 	 	 	 	 	 	 	 	 	1581546511	11.14	20.63
12/02/2020 22:28:33	120220	12022020	222832	236.16	12.241858	-57.040310	236.21	0.490	-0.810	0.840	236.16	-2.10	1.20	 	 	 	 	 	 	 	 	 	 	 	 	 	 	 	 	 	 	1581546512	10.88	20.15
12/02/2020 22:28:34	120220	12022020	222833	236.27	12.241833	-57.040353	236.34	0.270	-0.470	0.810	236.32	-1.80	1.20	 	 	 	 	 	 	 	 	 	 	 	 	 	 	 	 	 	 	1581546513	10.64	19.71
12/02/2020 22:28:35	120220	12022020	222834	236.47	12.241810	-57.040398	236.54	-0.000	-0.280	0.970	236.50	-1.60	1.40	 	 	 	 	 	 	 	 	 	 	 	 	 	 	 	 	 	 	1581546514	10.78	19.96
12/02/2020 22:28:36	120220	12022020	222835	236.69	12.241785	-57.040445	236.81	-0.200	-0.340	1.180	236.76	-1.70	1.60	 	 	 	 	 	 	 	 	 	 	 	 	 	 	 	 	 	 	1581546515	11.21	20.76
12/02/2020 22:28:37	120220	12022020	222836	237.14	12.241760	-57.040492	237.29	-0.280	-0.350	1.100	237.25	-1.70	1.50	 	 	 	 	 	 	 	 	 	 	 	 	 	 	 	 	 	 	1581546516	11.26	20.85
12/02/2020 22:28:38	120220	12022020	222837	237.54	12.241733	-57.040537	237.71	-0.260	-0.260	0.890	237.61	-1.60	1.30	 	 	 	 	 	 	 	 	 	 	 	 	 	 	 	 	 	 	1581546517	11.09	20.54
12/02/2020 22:28:39	120220	12022020	222838	237.81	12.241707	-57.040582	237.87	-0.180	-0.160	0.820	237.82	-1.50	1.20	 	 	 	 	 	 	 	 	 	 	 	 	 	 	 	 	 	 	1581546518	11.06	20.48
12/02/2020 22:28:40	120220	12022020	222839	237.86	12.241680	-57.040625	237.92	-0.120	-0.000	0.810	237.86	-1.30	1.20	 	 	 	 	 	 	 	 	 	 	 	 	 	 	 	 	 	 	1581546519	10.98	20.33
12/02/2020 22:28:41	120220	12022020	222840	237.89	12.241655	-57.040670	237.94	-0.110	0.090	0.830	237.89	-1.30	1.20	 	 	 	 	 	 	 	 	 	 	 	 	 	 	 	 	 	 	1581546520	10.88	20.15
12/02/2020 22:28:42	120220	12022020	222841	237.86	12.241630	-57.040715	237.88	-0.110	0.000	0.840	237.83	-1.40	1.20	 	 	 	 	 	 	 	 	 	 	 	 	 	 	 	 	 	 	1581546521	10.92	20.22
12/02/2020 22:28:43	120220	12022020	222842	237.69	12.241605	-57.040760	237.69	-0.030	-0.260	0.870	237.64	-1.70	1.30	 	 	 	 	 	 	 	 	 	 	 	 	 	 	 	 	 	 	1581546522	11.03	20.43
12/02/2020 22:28:44	120220	12022020	222843	237.45	12.241578	-57.040805	237.47	0.140	-0.590	0.860	237.40	-2.00	1.30	 	 	 	 	 	 	 	 	 	 	 	 	 	 	 	 	 	 	1581546523	11.07	20.50
12/02/2020 22:28:45	120220	12022020	222844	237.19	12.241552	-57.040850	237.20	0.300	-0.910	0.850	237.12	-2.30	1.30	 	 	 	 	 	 	 	 	 	 	 	 	 	 	 	 	 	 	1581546524	11.09	20.54
12/02/2020 22:28:46	120220	12022020	222845	236.87	12.241527	-57.040897	236.89	0.340	-1.070	0.990	236.81	-2.40	1.40	 	 	 	 	 	 	 	 	 	 	 	 	 	 	 	 	 	 	1581546525	11.09	20.54
12/02/2020 22:28:47	120220	12022020	222846	236.57	12.241502	-57.040942	236.62	0.250	-0.980	1.250	236.52	-2.30	1.70	 	 	 	 	 	 	 	 	 	 	 	 	 	 	 	 	 	 	1581546526	11.03	20.43
12/02/2020 22:28:48	120220	12022020	222847	236.38	12.241477	-57.040987	236.47	0.100	-0.610	1.430	236.37	-1.90	1.80	 	 	 	 	 	 	 	 	 	 	 	 	 	 	 	 	 	 	1581546527	10.93	20.24
12/02/2020 22:28:49	120220	12022020	222848	236.36	12.241452	-57.041032	236.46	-0.010	-0.250	1.490	236.37	-1.60	1.90	 	 	 	 	 	 	 	 	 	 	 	 	 	 	 	 	 	 	1581546528	10.94	20.26
12/02/2020 22:28:50	120220	12022020	222849	236.44	12.241427	-57.041078	236.55	-0.120	-0.170	1.490	236.46	-1.50	1.90	 	 	 	 	 	 	 	 	 	 	 	 	 	 	 	 	 	 	1581546529	11.34	21.00
12/02/2020 22:28:51	120220	12022020	222850	236.55	12.241400	-57.041127	236.67	-0.280	-0.170	1.470	236.57	-1.50	1.90	 	 	 	 	 	 	 	 	 	 	 	 	 	 	 	 	 	 	1581546530	11.62	21.52
12/02/2020 22:28:52	120220	12022020	222851	236.65	12.241373	-57.041173	236.76	-0.510	0.120	1.360	236.67	-1.10	1.70	 	 	 	 	 	 	 	 	 	 	 	 	 	 	 	 	 	 	1581546531	11.39	21.09
12/02/2020 22:28:53	120220	12022020	222852	236.83	12.241348	-57.041218	236.97	-0.650	0.710	0.990	236.89	-0.60	1.30	 	 	 	 	 	 	 	 	 	 	 	 	 	 	 	 	 	 	1581546532	10.82	20.04
12/02/2020 22:28:54	120220	12022020	222853	237.25	12.241323	-57.041260	237.40	-0.540	1.050	0.360	237.33	-0.30	0.70	 	 	 	 	 	 	 	 	 	 	 	 	 	 	 	 	 	 	1581546533	10.90	20.19
12/02/2020 22:28:55	120220	12022020	222854	237.64	12.241295	-57.041303	237.74	-0.120	0.610	-0.040	237.70	-0.90	0.30	 	 	 	 	 	 	 	 	 	 	 	 	 	 	 	 	 	 	1581546534	10.90	20.19
12/02/2020 22:28:56	120220	12022020	222855	237.83	12.241267	-57.041348	237.91	0.390	-0.390	-0.030	237.86	-1.90	0.40	 	 	 	 	 	 	 	 	 	 	 	 	 	 	 	 	 	 	1581546535	11.41	21.13
12/02/2020 22:28:57	120220	12022020	222856	237.99	12.241238	-57.041395	238.07	0.650	-1.280	0.310	238.01	-2.70	0.80	 	 	 	 	 	 	 	 	 	 	 	 	 	 	 	 	 	 	1581546536	11.40	21.11
12/02/2020 22:28:58	120220	12022020	222857	238.04	12.241215	-57.041440	238.08	0.540	-1.610	0.910	238.01	-3.00	1.40	 	 	 	 	 	 	 	 	 	 	 	 	 	 	 	 	 	 	1581546537	10.91	20.21
12/02/2020 22:28:59	120220	12022020	222858	237.81	12.241193	-57.041485	237.82	0.240	-1.510	1.530	237.73	-2.80	2.00	 	 	 	 	 	 	 	 	 	 	 	 	 	 	 	 	 	 	1581546538	10.58	19.59
12/02/2020 22:29:00	120220	12022020	222859	237.40	12.241172	-57.041530	237.40	0.010	-1.290	1.920	237.31	-2.60	2.30	 	 	 	 	 	 	 	 	 	 	 	 	 	 	 	 	 	 	1581546539	10.74	19.89
12/02/2020 22:29:01	120220	12022020	222900	236.97	12.241147	-57.041577	236.96	-0.020	-1.040	1.960	236.88	-2.40	2.30	 	 	 	 	 	 	 	 	 	 	 	 	 	 	 	 	 	 	1581546540	11.05	20.46
12/02/2020 22:29:02	120220	12022020	222901	236.48	12.241122	-57.041623	236.45	0.070	-0.740	1.880	236.37	-2.00	2.20	1015.00	28.10	33.80	21.40	21.90	-2.0	67.0	50.0	386.0	25.5	190.00	5.30	62.00	10.90	16	11207.0	27.5	27.5	1581546541	11.37	21.06
12/02/2020 22:29:03	120220	12022020	222902	236.04	12.241095	-57.041670	236.07	0.010	-0.220	1.710	235.99	-1.50	2.10	 	 	 	 	 	 	 	 	 	 	 	 	 	 	 	 	 	 	1581546542	11.42	21.15
12/02/2020 22:29:04	120220	12022020	222903	235.93	12.241068	-57.041715	236.03	-0.280	0.490	1.500	235.93	-0.80	1.90	 	 	 	 	 	 	 	 	 	 	 	 	 	 	 	 	 	 	1581546543	11.15	20.65
12/02/2020 22:29:05	120220	12022020	222904	236.19	12.241043	-57.041760	236.33	-0.600	1.050	1.240	236.26	-0.30	1.60	 	 	 	 	 	 	 	 	 	 	 	 	 	 	 	 	 	 	1581546544	10.98	20.33
12/02/2020 22:29:06	120220	12022020	222905	236.65	12.241017	-57.041807	236.82	-0.650	1.080	1.070	236.75	-0.30	1.40	 	 	 	 	 	 	 	 	 	 	 	 	 	 	 	 	 	 	1581546545	11.12	20.59
12/02/2020 22:29:07	120220	12022020	222906	237.26	12.240992	-57.041853	237.45	-0.360	0.600	0.950	237.39	-0.90	1.30	 	 	 	 	 	 	 	 	 	 	 	 	 	 	 	 	 	 	1581546546	11.42	21.15
12/02/2020 22:29:08	120220	12022020	222907	237.95	12.240965	-57.041900	238.14	0.070	-0.030	0.860	238.08	-1.50	1.20	 	 	 	 	 	 	 	 	 	 	 	 	 	 	 	 	 	 	1581546547	11.35	21.02
12/02/2020 22:29:09	120220	12022020	222908	238.51	12.240938	-57.041945	238.67	0.340	-0.530	0.750	238.59	-1.90	1.10	 	 	 	 	 	 	 	 	 	 	 	 	 	 	 	 	 	 	1581546548	10.99	20.35
12/02/2020 22:29:10	120220	12022020	222909	238.82	12.240913	-57.041988	238.92	0.350	-0.820	0.750	238.84	-2.20	1.20	 	 	 	 	 	 	 	 	 	 	 	 	 	 	 	 	 	 	1581546549	10.63	19.69
12/02/2020 22:29:11	120220	12022020	222910	238.85	12.240890	-57.042032	238.91	0.190	-0.910	0.920	238.83	-2.30	1.30	 	 	 	 	 	 	 	 	 	 	 	 	 	 	 	 	 	 	1581546550	10.40	19.26
12/02/2020 22:29:12	120220	12022020	222911	238.64	12.240867	-57.042073	238.64	0.070	-0.900	1.070	238.56	-2.30	1.50	 	 	 	 	 	 	 	 	 	 	 	 	 	 	 	 	 	 	1581546551	10.33	19.13
12/02/2020 22:29:13	120220	12022020	222912	238.15	12.240842	-57.042117	238.12	0.110	-0.990	1.280	238.03	-2.40	1.70	 	 	 	 	 	 	 	 	 	 	 	 	 	 	 	 	 	 	1581546552	10.58	19.59
12/02/2020 22:29:14	120220	12022020	222913	237.55	12.240817	-57.042162	237.52	0.220	-1.090	1.400	237.44	-2.40	1.80	 	 	 	 	 	 	 	 	 	 	 	 	 	 	 	 	 	 	1581546553	10.91	20.21
12/02/2020 22:29:15	120220	12022020	222914	237.08	12.240792	-57.042207	237.09	0.270	-1.000	1.350	237.02	-2.30	1.70	 	 	 	 	 	 	 	 	 	 	 	 	 	 	 	 	 	 	1581546554	11.04	20.45
12/02/2020 22:29:16	120220	12022020	222915	236.86	12.240768	-57.042253	236.91	0.170	-0.770	1.170	236.86	-2.10	1.50	 	 	 	 	 	 	 	 	 	 	 	 	 	 	 	 	 	 	1581546555	11.09	20.54
12/02/2020 22:29:17	120220	12022020	222916	236.86	12.240742	-57.042300	236.96	-0.020	-0.480	0.900	236.89	-1.80	1.20	 	 	 	 	 	 	 	 	 	 	 	 	 	 	 	 	 	 	1581546556	11.21	20.76
12/02/2020 22:29:18	120220	12022020	222917	237.12	12.240717	-57.042347	237.26	-0.250	-0.080	0.630	237.20	-1.40	1.00	 	 	 	 	 	 	 	 	 	 	 	 	 	 	 	 	 	 	1581546557	11.19	20.72
12/02/2020 22:29:19	120220	12022020	222918	237.54	12.240690	-57.042392	237.69	-0.450	0.360	0.510	237.61	-1.00	0.90	 	 	 	 	 	 	 	 	 	 	 	 	 	 	 	 	 	 	1581546558	11.06	20.48
12/02/2020 22:29:20	120220	12022020	222919	237.82	12.240665	-57.042437	237.92	-0.570	0.610	0.750	237.84	-0.70	1.20	 	 	 	 	 	 	 	 	 	 	 	 	 	 	 	 	 	 	1581546559	11.02	20.41
12/02/2020 22:29:21	120220	12022020	222920	237.83	12.240642	-57.042483	237.88	-0.550	0.620	1.120	237.80	-0.80	1.50	 	 	 	 	 	 	 	 	 	 	 	 	 	 	 	 	 	 	1581546560	11.09	20.54
12/02/2020 22:29:22	120220	12022020	222921	237.67	12.240618	-57.042528	237.72	-0.370	0.520	1.210	237.64	-0.90	1.60	 	 	 	 	 	 	 	 	 	 	 	 	 	 	 	 	 	 	1581546561	11.00	20.37
12/02/2020 22:29:23	120220	12022020	222922	237.62	12.240593	-57.042573	237.70	-0.070	0.370	0.910	237.64	-1.00	1.20	 	 	 	 	 	 	 	 	 	 	 	 	 	 	 	 	 	 	1581546562	10.70	19.82
12/02/2020 22:29:24	120220	12022020	222923	237.75	12.240568	-57.042615	237.83	0.280	0.010	0.460	237.77	-1.40	0.80	 	 	 	 	 	 	 	 	 	 	 	 	 	 	 	 	 	 	1581546563	10.52	19.48
12/02/2020 22:29:25	120220	12022020	222924	237.87	12.240542	-57.042658	237.96	0.540	-0.560	0.270	237.89	-2.00	0.70	 	 	 	 	 	 	 	 	 	 	 	 	 	 	 	 	 	 	1581546564	10.58	19.59
12/02/2020 22:29:26	120220	12022020	222925	237.95	12.240517	-57.042702	238.00	0.650	-1.110	0.420	237.95	-2.50	0.90	 	 	 	 	 	 	 	 	 	 	 	 	 	 	 	 	 	 	1581546565	10.61	19.65
12/02/2020 22:29:27	120220	12022020	222926	237.88	12.240495	-57.042745	237.91	0.640	-1.430	0.760	237.84	-2.80	1.20	 	 	 	 	 	 	 	 	 	 	 	 	 	 	 	 	 	 	1581546566	10.59	19.61
12/02/2020 22:29:28	120220	12022020	222927	237.70	12.240472	-57.042790	237.72	0.530	-1.480	1.120	237.65	-2.80	1.60	 	 	 	 	 	 	 	 	 	 	 	 	 	 	 	 	 	 	1581546567	10.61	19.65
12/02/2020 22:29:29	120220	12022020	222928	237.39	12.240448	-57.042835	237.37	0.300	-1.280	1.550	237.30	-2.60	2.00	 	 	 	 	 	 	 	 	 	 	 	 	 	 	 	 	 	 	1581546568	10.70	19.82
12/02/2020 22:29:30	120220	12022020	222930	236.87	12.240425	-57.042880	236.86	-0.100	-0.810	1.960	236.87	-2.10	2.40	 	 	 	 	 	 	 	 	 	 	 	 	 	 	 	 	 	 	1581546570	10.77	19.95
12/02/2020 22:29:31	120220	12022020	222930	236.36	12.240403	-57.042927	236.36	-0.510	-0.290	2.010	236.28	-1.60	2.40	 	 	 	 	 	 	 	 	 	 	 	 	 	 	 	 	 	 	1581546570	10.83	20.06
12/02/2020 22:29:32	120220	12022020	222931	236.08	12.240378	-57.042970	236.12	-0.670	0.170	1.580	236.06	-1.10	1.90	 	 	 	 	 	 	 	 	 	 	 	 	 	 	 	 	 	 	1581546571	10.91	20.21
12/02/2020 22:29:33	120220	12022020	222932	236.11	12.240350	-57.043015	236.20	-0.500	0.440	0.930	236.14	-0.90	1.20	 	 	 	 	 	 	 	 	 	 	 	 	 	 	 	 	 	 	1581546572	10.94	20.26
12/02/2020 22:29:34	120220	12022020	222933	236.36	12.240322	-57.043058	236.47	-0.180	0.360	0.430	236.42	-1.00	0.80	 	 	 	 	 	 	 	 	 	 	 	 	 	 	 	 	 	 	1581546573	11.08	20.52
12/02/2020 22:29:35	120220	12022020	222934	236.70	12.240293	-57.043103	236.83	0.030	0.090	0.430	236.78	-1.30	0.90	 	 	 	 	 	 	 	 	 	 	 	 	 	 	 	 	 	 	1581546574	11.19	20.72
12/02/2020 22:29:36	120220	12022020	222935	237.06	12.240270	-57.043148	237.20	-0.010	-0.100	0.870	237.13	-1.40	1.30	 	 	 	 	 	 	 	 	 	 	 	 	 	 	 	 	 	 	1581546575	10.98	20.33
12/02/2020 22:29:37	120220	12022020	222936	237.33	12.240248	-57.043193	237.44	-0.110	-0.100	1.350	237.37	-1.40	1.80	 	 	 	 	 	 	 	 	 	 	 	 	 	 	 	 	 	 	1581546576	10.66	19.74
12/02/2020 22:29:38	120220	12022020	222937	237.46	12.240227	-57.043237	237.55	-0.040	-0.040	1.580	237.47	-1.40	2.00	 	 	 	 	 	 	 	 	 	 	 	 	 	 	 	 	 	 	1581546577	10.41	19.28
12/02/2020 22:29:39	120220	12022020	222938	237.44	12.240202	-57.043280	237.50	0.210	-0.140	1.540	237.42	-1.50	1.90	 	 	 	 	 	 	 	 	 	 	 	 	 	 	 	 	 	 	1581546578	10.39	19.24
12/02/2020 22:29:40	120220	12022020	222939	237.25	12.240177	-57.043323	237.26	0.410	-0.460	1.340	237.19	-1.90	1.70	 	 	 	 	 	 	 	 	 	 	 	 	 	 	 	 	 	 	1581546579	10.63	19.69
12/02/2020 22:29:41	120220	12022020	222940	236.92	12.240152	-57.043367	236.92	0.340	-0.750	1.040	236.84	-2.10	1.40	 	 	 	 	 	 	 	 	 	 	 	 	 	 	 	 	 	 	1581546580	10.64	19.71
12/02/2020 22:29:42	120220	12022020	222941	236.54	12.240125	-57.043408	236.53	0.140	-0.880	0.720	236.47	-2.20	1.10	 	 	 	 	 	 	 	 	 	 	 	 	 	 	 	 	 	 	1581546581	10.53	19.50
12/02/2020 22:29:43	120220	12022020	222942	236.29	12.240098	-57.043450	236.31	-0.040	-0.780	0.480	236.27	-2.10	0.90	 	 	 	 	 	 	 	 	 	 	 	 	 	 	 	 	 	 	1581546582	10.43	19.32
12/02/2020 22:29:44	120220	12022020	222943	236.25	12.240075	-57.043493	236.29	-0.090	-0.550	0.380	236.26	-1.90	0.80	 	 	 	 	 	 	 	 	 	 	 	 	 	 	 	 	 	 	1581546583	10.38	19.22
12/02/2020 22:29:45	120220	12022020	222944	236.38	12.240052	-57.043537	236.45	-0.030	-0.350	0.420	236.43	-1.70	0.80	 	 	 	 	 	 	 	 	 	 	 	 	 	 	 	 	 	 	1581546584	10.51	19.46
12/02/2020 22:29:46	120220	12022020	222945	236.63	12.240027	-57.043580	236.71	0.080	-0.280	0.550	236.69	-1.60	1.00	 	 	 	 	 	 	 	 	 	 	 	 	 	 	 	 	 	 	1581546585	10.67	19.76
12/02/2020 22:29:47	120220	12022020	222946	236.88	12.240002	-57.043625	236.97	0.160	-0.310	0.790	236.93	-1.70	1.20	 	 	 	 	 	 	 	 	 	 	 	 	 	 	 	 	 	 	1581546586	10.85	20.09
12/02/2020 22:29:48	120220	12022020	222947	237.06	12.239977	-57.043668	237.14	0.140	-0.330	1.110	237.09	-1.70	1.50	 	 	 	 	 	 	 	 	 	 	 	 	 	 	 	 	 	 	1581546587	10.85	20.09
12/02/2020 22:29:49	120220	12022020	222948	237.10	12.239952	-57.043713	237.14	0.010	-0.360	1.480	237.07	-1.70	1.90	 	 	 	 	 	 	 	 	 	 	 	 	 	 	 	 	 	 	1581546588	10.83	20.06
12/02/2020 22:29:50	120220	12022020	222949	236.85	12.239927	-57.043758	236.84	-0.160	-0.460	1.830	236.77	-1.80	2.30	 	 	 	 	 	 	 	 	 	 	 	 	 	 	 	 	 	 	1581546589	10.94	20.26
12/02/2020 22:29:51	120220	12022020	222950	236.41	12.239903	-57.043805	236.39	-0.290	-0.450	1.980	236.32	-1.80	2.40	 	 	 	 	 	 	 	 	 	 	 	 	 	 	 	 	 	 	1581546590	10.96	20.30
12/02/2020 22:29:52	120220	12022020	222951	236.03	12.239878	-57.043848	236.03	-0.360	-0.200	1.820	235.97	-1.50	2.20	 	 	 	 	 	 	 	 	 	 	 	 	 	 	 	 	 	 	1581546591	10.68	19.78
12/02/2020 22:29:53	120220	12022020	222952	235.87	12.239855	-57.043892	235.94	-0.340	0.100	1.480	235.87	-1.20	1.80	 	 	 	 	 	 	 	 	 	 	 	 	 	 	 	 	 	 	1581546592	10.42	19.30
12/02/2020 22:29:54	120220	12022020	222953	235.91	12.239830	-57.043933	235.99	-0.200	0.170	1.080	235.93	-1.20	1.40	 	 	 	 	 	 	 	 	 	 	 	 	 	 	 	 	 	 	1581546593	10.48	19.41
12/02/2020 22:29:55	120220	12022020	222954	236.03	12.239803	-57.043977	236.11	0.060	0.060	0.690	236.05	-1.30	1.00	 	 	 	 	 	 	 	 	 	 	 	 	 	 	 	 	 	 	1581546594	10.61	19.65
12/02/2020 22:29:56	120220	12022020	222955	236.21	12.239777	-57.044018	236.29	0.300	-0.110	0.440	236.25	-1.50	0.80	 	 	 	 	 	 	 	 	 	 	 	 	 	 	 	 	 	 	1581546595	10.60	19.63
12/02/2020 22:29:57	120220	12022020	222956	236.45	12.239752	-57.044062	236.56	0.420	-0.290	0.400	236.51	-1.70	0.80	 	 	 	 	 	 	 	 	 	 	 	 	 	 	 	 	 	 	1581546596	10.53	19.50
12/02/2020 22:29:58	120220	12022020	222957	236.76	12.239727	-57.044103	236.86	0.370	-0.400	0.520	236.82	-1.80	0.90	 	 	 	 	 	 	 	 	 	 	 	 	 	 	 	 	 	 	1581546597	10.41	19.28
12/02/2020 22:29:59	120220	12022020	222958	237.06	12.239702	-57.044145	237.16	0.210	-0.390	0.640	237.12	-1.80	1.10	 	 	 	 	 	 	 	 	 	 	 	 	 	 	 	 	 	 	1581546598	10.24	18.96
12/02/2020 22:30:00	120220	12022020	222959	237.25	12.239677	-57.044187	237.30	0.090	-0.550	0.740	237.27	-2.00	1.20	 	 	 	 	 	 	 	 	 	 	 	 	 	 	 	 	 	 	1581546599	10.28	19.04
12/02/2020 22:30:01	120220	12022020	223000	237.25	12.239652	-57.044230	237.27	0.100	-0.990	0.870	237.22	-2.40	1.30	 	 	 	 	 	 	 	 	 	 	 	 	 	 	 	 	 	 	1581546600	10.71	19.83
12/02/2020 22:30:02	120220	12022020	223001	237.00	12.239625	-57.044275	236.97	0.160	-1.400	1.090	236.92	-2.80	1.50	1015.00	31.70	33.70	22.00	22.20	-2.0	56.0	51.0	387.0	25.6	194.00	5.30	64.00	10.70	16	10371.0	27.5	27.4	1581546601	11.03	20.43
12/02/2020 22:30:03	120220	12022020	223002	236.51	12.239598	-57.044320	236.45	0.100	-1.340	1.360	236.39	-2.60	1.80	 	 	 	 	 	 	 	 	 	 	 	 	 	 	 	 	 	 	1581546602	10.98	20.33
12/02/2020 22:30:04	120220	12022020	223003	235.93	12.239575	-57.044363	235.89	-0.150	-0.730	1.580	235.82	-2.00	2.00	 	 	 	 	 	 	 	 	 	 	 	 	 	 	 	 	 	 	1581546603	10.61	19.65
12/02/2020 22:30:05	120220	12022020	223004	235.52	12.239552	-57.044407	235.53	-0.440	0.050	1.650	235.47	-1.20	2.00	 	 	 	 	 	 	 	 	 	 	 	 	 	 	 	 	 	 	1581546604	10.44	19.33
12/02/2020 22:30:06	120220	12022020	223005	235.40	12.239528	-57.044450	235.48	-0.590	0.560	1.520	235.40	-0.80	1.90	 	 	 	 	 	 	 	 	 	 	 	 	 	 	 	 	 	 	1581546605	10.61	19.65
12/02/2020 22:30:07	120220	12022020	223006	235.55	12.239505	-57.044497	235.68	-0.530	0.640	1.250	235.60	-0.70	1.60	 	 	 	 	 	 	 	 	 	 	 	 	 	 	 	 	 	 	1581546606	10.88	20.15
12/02/2020 22:30:08	120220	12022020	223007	235.86	12.239478	-57.044542	236.00	-0.300	0.460	0.970	235.92	-0.90	1.30	 	 	 	 	 	 	 	 	 	 	 	 	 	 	 	 	 	 	1581546607	10.98	20.33
12/02/2020 22:30:09	120220	12022020	223008	236.17	12.239453	-57.044585	236.30	-0.010	0.220	0.790	236.24	-1.20	1.20	 	 	 	 	 	 	 	 	 	 	 	 	 	 	 	 	 	 	1581546608	10.81	20.02
12/02/2020 22:30:10	120220	12022020	223009	236.53	12.239427	-57.044627	236.67	0.220	0.040	0.570	236.61	-1.30	0.90	 	 	 	 	 	 	 	 	 	 	 	 	 	 	 	 	 	 	1581546609	10.50	19.45
12/02/2020 22:30:11	120220	12022020	223010	236.96	12.239402	-57.044667	237.10	0.370	-0.140	0.190	237.05	-1.50	0.50	 	 	 	 	 	 	 	 	 	 	 	 	 	 	 	 	 	 	1581546610	10.22	18.93
12/02/2020 22:30:12	120220	12022020	223011	237.30	12.239373	-57.044707	237.39	0.490	-0.500	-0.020	237.33	-1.90	0.40	 	 	 	 	 	 	 	 	 	 	 	 	 	 	 	 	 	 	1581546611	10.25	18.98
12/02/2020 22:30:13	120220	12022020	223012	237.31	12.239347	-57.044748	237.34	0.540	-1.080	0.300	237.27	-2.50	0.80	 	 	 	 	 	 	 	 	 	 	 	 	 	 	 	 	 	 	1581546612	10.57	19.58
12/02/2020 22:30:14	120220	12022020	223013	237.12	12.239320	-57.044792	237.15	0.360	-1.510	0.750	237.08	-2.90	1.20	 	 	 	 	 	 	 	 	 	 	 	 	 	 	 	 	 	 	1581546613	10.81	20.02
12/02/2020 22:30:15	120220	12022020	223014	236.95	12.239297	-57.044837	237.03	-0.050	-1.430	1.080	236.92	-2.70	1.50	 	 	 	 	 	 	 	 	 	 	 	 	 	 	 	 	 	 	1581546614	10.65	19.72
12/02/2020 22:30:16	120220	12022020	223015	236.81	12.239275	-57.044880	236.87	-0.480	-0.870	1.280	236.78	-2.10	1.70	 	 	 	 	 	 	 	 	 	 	 	 	 	 	 	 	 	 	1581546615	10.41	19.28
12/02/2020 22:30:17	120220	12022020	223016	236.64	12.239253	-57.044923	236.67	-0.670	-0.140	1.350	236.60	-1.40	1.80	 	 	 	 	 	 	 	 	 	 	 	 	 	 	 	 	 	 	1581546616	10.33	19.13
12/02/2020 22:30:18	120220	12022020	223017	236.44	12.239230	-57.044968	236.37	-0.480	0.390	1.370	236.39	-0.90	1.80	 	 	 	 	 	 	 	 	 	 	 	 	 	 	 	 	 	 	1581546617	10.49	19.43
12/02/2020 22:30:19	120220	12022020	223018	236.05	12.239205	-57.045012	236.03	-0.080	0.510	1.280	235.98	-0.90	1.70	 	 	 	 	 	 	 	 	 	 	 	 	 	 	 	 	 	 	1581546618	10.76	19.93
12/02/2020 22:30:20	120220	12022020	223019	235.79	12.239178	-57.045057	235.73	0.240	0.250	1.030	235.74	-1.20	1.40	 	 	 	 	 	 	 	 	 	 	 	 	 	 	 	 	 	 	1581546619	10.98	20.33
12/02/2020 22:30:21	120220	12022020	223020	235.61	12.239152	-57.045100	235.66	0.320	-0.170	0.660	235.63	-1.60	1.00	 	 	 	 	 	 	 	 	 	 	 	 	 	 	 	 	 	 	1581546620	11.00	20.37
12/02/2020 22:30:22	120220	12022020	223021	235.83	12.239125	-57.045143	235.95	0.180	-0.380	0.240	235.91	-1.70	0.60	 	 	 	 	 	 	 	 	 	 	 	 	 	 	 	 	 	 	1581546621	10.68	19.78
12/02/2020 22:30:23	120220	12022020	223022	236.37	12.239098	-57.045183	236.52	-0.010	-0.330	-0.110	236.49	-1.70	0.30	 	 	 	 	 	 	 	 	 	 	 	 	 	 	 	 	 	 	1581546622	10.22	18.93
12/02/2020 22:30:24	120220	12022020	223023	236.92	12.239073	-57.045223	237.04	-0.050	-0.330	-0.120	237.00	-1.70	0.30	 	 	 	 	 	 	 	 	 	 	 	 	 	 	 	 	 	 	1581546623	10.14	18.78
12/02/2020 22:30:25	120220	12022020	223024	237.23	12.239050	-57.045267	237.31	0.040	-0.510	0.320	237.27	-1.90	0.80	 	 	 	 	 	 	 	 	 	 	 	 	 	 	 	 	 	 	1581546624	10.47	19.39
12/02/2020 22:30:26	120220	12022020	223025	237.34	12.239027	-57.045312	237.40	0.080	-0.600	0.820	237.35	-1.90	1.30	 	 	 	 	 	 	 	 	 	 	 	 	 	 	 	 	 	 	1581546625	10.62	19.67
12/02/2020 22:30:27	120220	12022020	223026	237.33	12.239003	-57.045355	237.38	-0.000	-0.460	1.190	237.32	-1.80	1.60	 	 	 	 	 	 	 	 	 	 	 	 	 	 	 	 	 	 	1581546626	10.48	19.41
12/02/2020 22:30:28	120220	12022020	223027	237.27	12.238980	-57.045397	237.33	-0.110	-0.180	1.280	237.26	-1.50	1.70	 	 	 	 	 	 	 	 	 	 	 	 	 	 	 	 	 	 	1581546627	10.27	19.02
12/02/2020 22:30:29	120220	12022020	223028	237.22	12.238955	-57.045438	237.27	-0.140	-0.100	1.090	237.20	-1.50	1.50	 	 	 	 	 	 	 	 	 	 	 	 	 	 	 	 	 	 	1581546628	10.30	19.08
12/02/2020 22:30:30	120220	12022020	223029	237.16	12.238930	-57.045482	237.20	-0.080	-0.380	0.920	237.15	-1.80	1.30	 	 	 	 	 	 	 	 	 	 	 	 	 	 	 	 	 	 	1581546629	10.63	19.69
12/02/2020 22:30:31	120220	12022020	223030	237.06	12.238905	-57.045527	237.08	-0.030	-0.810	0.920	237.03	-2.20	1.30	 	 	 	 	 	 	 	 	 	 	 	 	 	 	 	 	 	 	1581546630	10.85	20.09
12/02/2020 22:30:32	120220	12022020	223031	236.80	12.238880	-57.045572	236.77	0.030	-1.030	1.110	236.72	-2.40	1.50	 	 	 	 	 	 	 	 	 	 	 	 	 	 	 	 	 	 	1581546631	10.79	19.98
12/02/2020 22:30:33	120220	12022020	223032	236.35	12.238857	-57.045615	236.32	0.140	-0.880	1.380	236.27	-2.20	1.80	 	 	 	 	 	 	 	 	 	 	 	 	 	 	 	 	 	 	1581546632	10.55	19.54
12/02/2020 22:30:34	120220	12022020	223033	235.97	12.238833	-57.045658	235.97	0.260	-0.390	1.580	235.92	-1.70	2.00	 	 	 	 	 	 	 	 	 	 	 	 	 	 	 	 	 	 	1581546633	10.31	19.09
12/02/2020 22:30:35	120220	12022020	223034	235.76	12.238810	-57.045700	235.81	0.240	0.180	1.620	235.75	-1.10	2.00	 	 	 	 	 	 	 	 	 	 	 	 	 	 	 	 	 	 	1581546634	10.19	18.87
12/02/2020 22:30:36	120220	12022020	223035	235.75	12.238785	-57.045742	235.83	0.050	0.460	1.560	235.77	-0.90	1.90	 	 	 	 	 	 	 	 	 	 	 	 	 	 	 	 	 	 	1581546635	10.33	19.13
12/02/2020 22:30:37	120220	12022020	223036	235.92	12.238762	-57.045785	236.02	-0.220	0.360	1.430	235.97	-1.00	1.80	 	 	 	 	 	 	 	 	 	 	 	 	 	 	 	 	 	 	1581546636	10.64	19.71
12/02/2020 22:30:38	120220	12022020	223037	236.29	12.238738	-57.045830	236.42	-0.380	0.140	1.210	236.39	-1.20	1.60	 	 	 	 	 	 	 	 	 	 	 	 	 	 	 	 	 	 	1581546637	10.71	19.83
12/02/2020 22:30:39	120220	12022020	223038	236.83	12.238715	-57.045873	236.98	-0.290	-0.030	0.880	236.95	-1.40	1.20	 	 	 	 	 	 	 	 	 	 	 	 	 	 	 	 	 	 	1581546638	10.46	19.37
12/02/2020 22:30:40	120220	12022020	223039	237.39	12.238690	-57.045915	237.51	0.070	-0.200	0.520	237.49	-1.60	0.90	 	 	 	 	 	 	 	 	 	 	 	 	 	 	 	 	 	 	1581546639	10.22	18.93
12/02/2020 22:30:41	120220	12022020	223040	237.75	12.238665	-57.045955	237.80	0.470	-0.450	0.420	237.77	-1.90	0.80	 	 	 	 	 	 	 	 	 	 	 	 	 	 	 	 	 	 	1581546640	10.18	18.85
12/02/2020 22:30:42	120220	12022020	223041	237.71	12.238640	-57.045997	237.70	0.640	-0.780	0.730	237.71	-2.20	1.20	 	 	 	 	 	 	 	 	 	 	 	 	 	 	 	 	 	 	1581546641	10.24	18.96
12/02/2020 22:30:43	120220	12022020	223042	237.33	12.238617	-57.046040	237.30	0.510	-0.990	1.240	237.23	-2.30	1.70	 	 	 	 	 	 	 	 	 	 	 	 	 	 	 	 	 	 	1581546642	10.29	19.06
12/02/2020 22:30:44	120220	12022020	223043	236.81	12.238595	-57.046082	236.76	0.190	-0.930	1.670	236.70	-2.30	2.10	 	 	 	 	 	 	 	 	 	 	 	 	 	 	 	 	 	 	1581546643	10.19	18.87
12/02/2020 22:30:45	120220	12022020	223044	236.23	12.238573	-57.046125	236.20	-0.080	-0.750	1.820	236.13	-2.10	2.20	 	 	 	 	 	 	 	 	 	 	 	 	 	 	 	 	 	 	1581546644	10.19	18.87
12/02/2020 22:30:46	120220	12022020	223045	235.74	12.238550	-57.046168	235.73	-0.160	-0.620	1.660	235.67	-2.00	2.00	 	 	 	 	 	 	 	 	 	 	 	 	 	 	 	 	 	 	1581546645	10.41	19.28
12/02/2020 22:30:47	120220	12022020	223046	235.43	12.238525	-57.046212	235.45	-0.170	-0.560	1.380	235.39	-1.90	1.70	 	 	 	 	 	 	 	 	 	 	 	 	 	 	 	 	 	 	1581546646	10.66	19.74
12/02/2020 22:30:48	120220	12022020	223047	235.30	12.238500	-57.046255	235.35	-0.300	-0.430	1.190	235.29	-1.80	1.60	 	 	 	 	 	 	 	 	 	 	 	 	 	 	 	 	 	 	1581546647	10.69	19.80
12/02/2020 22:30:49	120220	12022020	223048	235.37	12.238477	-57.046298	235.46	-0.500	-0.150	1.140	235.41	-1.50	1.50	 	 	 	 	 	 	 	 	 	 	 	 	 	 	 	 	 	 	1581546648	10.52	19.48
12/02/2020 22:30:50	120220	12022020	223049	235.66	12.238453	-57.046342	235.83	-0.590	0.250	1.180	235.75	-1.10	1.60	 	 	 	 	 	 	 	 	 	 	 	 	 	 	 	 	 	 	1581546649	10.26	19.00
12/02/2020 22:30:51	120220	12022020	223050	236.15	12.238432	-57.046383	236.33	-0.420	0.560	1.240	236.26	-0.80	1.60	 	 	 	 	 	 	 	 	 	 	 	 	 	 	 	 	 	 	1581546650	10.08	18.67
12/02/2020 22:30:52	120220	12022020	223051	236.58	12.238410	-57.046425	236.71	-0.040	0.590	1.390	236.64	-0.80	1.80	 	 	 	 	 	 	 	 	 	 	 	 	 	 	 	 	 	 	1581546651	10.09	18.69
12/02/2020 22:30:53	120220	12022020	223052	236.73	12.238385	-57.046468	236.79	0.360	0.290	1.520	236.73	-1.10	1.90	 	 	 	 	 	 	 	 	 	 	 	 	 	 	 	 	 	 	1581546652	10.25	18.98
12/02/2020 22:30:54	120220	12022020	223053	236.64	12.238360	-57.046510	236.65	0.610	-0.180	1.550	236.59	-1.60	1.90	 	 	 	 	 	 	 	 	 	 	 	 	 	 	 	 	 	 	1581546653	10.33	19.13
12/02/2020 22:30:55	120220	12022020	223054	236.28	12.238335	-57.046550	236.23	0.620	-0.720	1.510	236.17	-2.10	1.90	 	 	 	 	 	 	 	 	 	 	 	 	 	 	 	 	 	 	1581546654	10.37	19.21
12/02/2020 22:30:56	120220	12022020	223055	235.71	12.238308	-57.046592	235.65	0.400	-1.180	1.400	235.71	-2.60	1.80	 	 	 	 	 	 	 	 	 	 	 	 	 	 	 	 	 	 	1581546655	10.45	19.35
12/02/2020 22:30:57	120220	12022020	223056	235.16	12.238283	-57.046633	235.14	0.020	-1.230	1.150	235.08	-2.50	1.50	 	 	 	 	 	 	 	 	 	 	 	 	 	 	 	 	 	 	1581546656	10.25	18.98
12/02/2020 22:30:58	120220	12022020	223057	234.85	12.238260	-57.046673	234.87	-0.310	-0.860	0.760	234.82	-2.20	1.10	 	 	 	 	 	 	 	 	 	 	 	 	 	 	 	 	 	 	1581546657	9.87	18.28
12/02/2020 22:30:59	120220	12022020	223058	234.82	12.238235	-57.046713	234.88	-0.440	-0.470	0.400	234.83	-1.80	0.80	 	 	 	 	 	 	 	 	 	 	 	 	 	 	 	 	 	 	1581546658	9.79	18.13
12/02/2020 22:31:00	120220	12022020	223059	234.94	12.238212	-57.046753	235.01	-0.310	-0.380	0.330	234.97	-1.70	0.80	 	 	 	 	 	 	 	 	 	 	 	 	 	 	 	 	 	 	1581546659	10.14	18.78
12/02/2020 22:31:01	120220	12022020	223100	235.05	12.238187	-57.046797	235.12	-0.030	-0.500	0.660	235.07	-1.90	1.10	 	 	 	 	 	 	 	 	 	 	 	 	 	 	 	 	 	 	1581546660	10.57	19.58
12/02/2020 22:31:02	120220	12022020	223101	235.07	12.238163	-57.046842	235.12	0.150	-0.440	1.160	235.07	-1.80	1.60	1015.10	28.50	32.00	21.00	21.60	-1.0	63.0	54.0	388.0	25.6	200.00	4.90	66.00	10.20	16	11487.0	27.5	27.5	1581546661	10.63	19.69
12/02/2020 22:31:03	120220	12022020	223102	235.07	12.238140	-57.046883	235.12	0.110	0.010	1.590	235.06	-1.30	2.00	 	 	 	 	 	 	 	 	 	 	 	 	 	 	 	 	 	 	1581546662	10.22	18.93
12/02/2020 22:31:04	120220	12022020	223103	235.04	12.238118	-57.046925	235.09	-0.030	0.430	1.830	235.04	-0.90	2.20	 	 	 	 	 	 	 	 	 	 	 	 	 	 	 	 	 	 	1581546663	9.97	18.46
12/02/2020 22:31:05	120220	12022020	223104	235.03	12.238095	-57.046967	235.08	-0.110	0.380	1.820	235.03	-1.00	2.20	 	 	 	 	 	 	 	 	 	 	 	 	 	 	 	 	 	 	1581546664	10.22	18.93
12/02/2020 22:31:06	120220	12022020	223105	234.98	12.238068	-57.047010	235.01	-0.100	-0.060	1.670	234.96	-1.50	2.00	 	 	 	 	 	 	 	 	 	 	 	 	 	 	 	 	 	 	1581546665	10.60	19.63
12/02/2020 22:31:07	120220	12022020	223106	234.91	12.238042	-57.047052	234.96	-0.120	-0.480	1.390	234.91	-1.90	1.70	 	 	 	 	 	 	 	 	 	 	 	 	 	 	 	 	 	 	1581546666	10.60	19.63
12/02/2020 22:31:08	120220	12022020	223107	234.97	12.238015	-57.047092	235.05	-0.160	-0.650	0.960	235.00	-2.00	1.30	 	 	 	 	 	 	 	 	 	 	 	 	 	 	 	 	 	 	1581546667	10.27	19.02
12/02/2020 22:31:09	120220	12022020	223108	235.21	12.237990	-57.047132	235.32	-0.150	-0.580	0.450	235.27	-1.90	0.80	 	 	 	 	 	 	 	 	 	 	 	 	 	 	 	 	 	 	1581546668	10.01	18.54
12/02/2020 22:31:10	120220	12022020	223109	235.49	12.237963	-57.047170	235.65	-0.040	-0.370	0.040	235.56	-1.70	0.40	 	 	 	 	 	 	 	 	 	 	 	 	 	 	 	 	 	 	1581546669	9.81	18.17
12/02/2020 22:31:11	120220	12022020	223110	235.76	12.237937	-57.047208	235.80	0.140	-0.230	0.020	235.77	-1.60	0.50	 	 	 	 	 	 	 	 	 	 	 	 	 	 	 	 	 	 	1581546670	9.81	18.17
12/02/2020 22:31:12	120220	12022020	223111	235.71	12.237912	-57.047248	235.70	0.310	-0.290	0.430	235.67	-1.70	0.90	 	 	 	 	 	 	 	 	 	 	 	 	 	 	 	 	 	 	1581546671	10.02	18.56
12/02/2020 22:31:13	120220	12022020	223112	235.42	12.237888	-57.047290	235.39	0.360	-0.540	1.080	235.34	-1.90	1.60	 	 	 	 	 	 	 	 	 	 	 	 	 	 	 	 	 	 	1581546672	10.31	19.09
12/02/2020 22:31:14	120220	12022020	223113	235.01	12.237865	-57.047333	235.00	0.250	-0.760	1.740	234.93	-2.10	2.20	 	 	 	 	 	 	 	 	 	 	 	 	 	 	 	 	 	 	1581546673	10.48	19.41
12/02/2020 22:31:15	120220	12022020	223114	234.67	12.237843	-57.047377	234.69	-0.010	-0.720	2.160	234.63	-2.00	2.60	 	 	 	 	 	 	 	 	 	 	 	 	 	 	 	 	 	 	1581546674	10.34	19.15
12/02/2020 22:31:16	120220	12022020	223115	234.46	12.237822	-57.047420	234.49	-0.210	-0.510	2.310	234.43	-1.80	2.70	 	 	 	 	 	 	 	 	 	 	 	 	 	 	 	 	 	 	1581546675	10.18	18.85
12/02/2020 22:31:17	120220	12022020	223116	234.37	12.237800	-57.047463	234.45	-0.220	-0.340	2.140	234.38	-1.70	2.50	 	 	 	 	 	 	 	 	 	 	 	 	 	 	 	 	 	 	1581546676	10.26	19.00
12/02/2020 22:31:18	120220	12022020	223117	234.49	12.237775	-57.047505	234.60	-0.100	-0.220	1.580	234.54	-1.60	1.90	 	 	 	 	 	 	 	 	 	 	 	 	 	 	 	 	 	 	1581546677	10.36	19.19
12/02/2020 22:31:19	120220	12022020	223118	234.80	12.237747	-57.047545	234.92	-0.000	-0.060	0.790	234.87	-1.40	1.10	 	 	 	 	 	 	 	 	 	 	 	 	 	 	 	 	 	 	1581546678	10.32	19.11
12/02/2020 22:31:20	120220	12022020	223119	235.20	12.237717	-57.047582	235.32	-0.090	0.090	0.200	235.28	-1.30	0.60	 	 	 	 	 	 	 	 	 	 	 	 	 	 	 	 	 	 	1581546679	10.22	18.93
12/02/2020 22:31:21	120220	12022020	223120	235.49	12.237690	-57.047622	235.55	-0.270	0.050	0.270	235.52	-1.30	0.70	 	 	 	 	 	 	 	 	 	 	 	 	 	 	 	 	 	 	1581546680	10.23	18.95
12/02/2020 22:31:22	120220	12022020	223121	235.51	12.237665	-57.047663	235.53	-0.360	-0.150	0.860	235.48	-1.50	1.40	 	 	 	 	 	 	 	 	 	 	 	 	 	 	 	 	 	 	1581546681	10.29	19.06
12/02/2020 22:31:23	120220	12022020	223122	235.30	12.237642	-57.047707	235.32	-0.250	-0.350	1.530	235.25	-1.70	2.00	 	 	 	 	 	 	 	 	 	 	 	 	 	 	 	 	 	 	1581546682	10.29	19.06
12/02/2020 22:31:24	120220	12022020	223123	235.04	12.237620	-57.047748	235.06	-0.000	-0.410	1.880	234.99	-1.80	2.30	 	 	 	 	 	 	 	 	 	 	 	 	 	 	 	 	 	 	1581546683	10.15	18.80
12/02/2020 22:31:25	120220	12022020	223124	234.86	12.237598	-57.047790	234.91	0.290	-0.310	1.770	234.85	-1.70	2.10	 	 	 	 	 	 	 	 	 	 	 	 	 	 	 	 	 	 	1581546684	9.87	18.28
12/02/2020 22:31:26	120220	12022020	223125	234.86	12.237573	-57.047828	234.94	0.520	-0.260	1.390	234.88	-1.60	1.70	 	 	 	 	 	 	 	 	 	 	 	 	 	 	 	 	 	 	1581546685	9.77	18.09
12/02/2020 22:31:27	120220	12022020	223126	234.94	12.237547	-57.047867	235.02	0.600	-0.380	1.000	234.96	-1.80	1.40	 	 	 	 	 	 	 	 	 	 	 	 	 	 	 	 	 	 	1581546686	9.96	18.45
12/02/2020 22:31:28	120220	12022020	223127	235.03	12.237520	-57.047907	235.10	0.470	-0.530	0.760	235.04	-1.90	1.20	 	 	 	 	 	 	 	 	 	 	 	 	 	 	 	 	 	 	1581546687	10.12	18.74
12/02/2020 22:31:29	120220	12022020	223128	235.11	12.237493	-57.047947	235.18	0.160	-0.540	0.750	235.13	-1.90	1.20	 	 	 	 	 	 	 	 	 	 	 	 	 	 	 	 	 	 	1581546688	10.10	18.71
12/02/2020 22:31:30	120220	12022020	223129	235.20	12.237470	-57.047987	235.28	-0.150	-0.450	1.010	235.22	-1.80	1.50	 	 	 	 	 	 	 	 	 	 	 	 	 	 	 	 	 	 	1581546689	10.03	18.58
12/02/2020 22:31:31	120220	12022020	223130	235.24	12.237447	-57.048028	235.29	-0.320	-0.490	1.400	235.22	-1.90	1.80	 	 	 	 	 	 	 	 	 	 	 	 	 	 	 	 	 	 	1581546690	10.19	18.87
12/02/2020 22:31:32	120220	12022020	223131	235.11	12.237423	-57.048072	235.14	-0.310	-0.660	1.630	235.07	-2.00	2.00	 	 	 	 	 	 	 	 	 	 	 	 	 	 	 	 	 	 	1581546691	10.44	19.33
12/02/2020 22:31:33	120220	12022020	223132	234.94	12.237398	-57.048115	234.99	-0.200	-0.660	1.550	234.92	-2.00	1.90	 	 	 	 	 	 	 	 	 	 	 	 	 	 	 	 	 	 	1581546692	10.43	19.32
12/02/2020 22:31:34	120220	12022020	223133	234.88	12.237372	-57.048155	234.93	-0.150	-0.440	1.220	234.88	-1.80	1.60	 	 	 	 	 	 	 	 	 	 	 	 	 	 	 	 	 	 	1581546693	10.17	18.83
12/02/2020 22:31:35	120220	12022020	223134	234.97	12.237347	-57.048193	235.05	-0.240	-0.190	0.820	234.99	-1.50	1.20	 	 	 	 	 	 	 	 	 	 	 	 	 	 	 	 	 	 	1581546694	10.06	18.63
12/02/2020 22:31:36	120220	12022020	223135	235.12	12.237320	-57.048233	235.19	-0.320	-0.090	0.600	235.15	-1.40	1.00	 	 	 	 	 	 	 	 	 	 	 	 	 	 	 	 	 	 	1581546695	10.16	18.82
12/02/2020 22:31:37	120220	12022020	223136	235.28	12.237295	-57.048275	235.36	-0.270	-0.040	0.590	235.32	-1.40	1.00	 	 	 	 	 	 	 	 	 	 	 	 	 	 	 	 	 	 	1581546696	10.28	19.04
12/02/2020 22:31:38	120220	12022020	223137	235.50	12.237272	-57.048317	235.59	-0.120	0.120	0.660	235.55	-1.20	1.10	 	 	 	 	 	 	 	 	 	 	 	 	 	 	 	 	 	 	1581546697	10.14	18.78
12/02/2020 22:31:39	120220	12022020	223138	235.76	12.237248	-57.048357	235.84	0.020	0.320	0.700	235.80	-1.00	1.10	 	 	 	 	 	 	 	 	 	 	 	 	 	 	 	 	 	 	1581546698	9.89	18.32
12/02/2020 22:31:40	120220	12022020	223139	235.94	12.237223	-57.048397	235.99	0.130	0.330	0.640	235.96	-1.00	1.00	 	 	 	 	 	 	 	 	 	 	 	 	 	 	 	 	 	 	1581546699	9.82	18.19
12/02/2020 22:31:41	120220	12022020	223140	235.98	12.237198	-57.048435	236.00	0.260	0.020	0.510	235.97	-1.40	0.90	 	 	 	 	 	 	 	 	 	 	 	 	 	 	 	 	 	 	1581546700	9.97	18.46
12/02/2020 22:31:42	120220	12022020	223141	235.87	12.237172	-57.048475	235.85	0.390	-0.540	0.460	235.82	-2.00	0.90	 	 	 	 	 	 	 	 	 	 	 	 	 	 	 	 	 	 	1581546701	10.19	18.87
12/02/2020 22:31:43	120220	12022020	223142	235.64	12.237145	-57.048517	235.62	0.470	-1.110	0.580	235.60	-2.50	1.00	 	 	 	 	 	 	 	 	 	 	 	 	 	 	 	 	 	 	1581546702	10.35	19.17
12/02/2020 22:31:44	120220	12022020	223143	235.47	12.237120	-57.048558	235.47	0.400	-1.360	0.880	235.44	-2.70	1.30	 	 	 	 	 	 	 	 	 	 	 	 	 	 	 	 	 	 	1581546703	10.27	19.02
12/02/2020 22:31:45	120220	12022020	223144	235.36	12.237098	-57.048600	235.36	0.150	-1.160	1.370	235.32	-2.50	1.80	 	 	 	 	 	 	 	 	 	 	 	 	 	 	 	 	 	 	1581546704	10.10	18.71
12/02/2020 22:31:46	120220	12022020	223145	235.15	12.237078	-57.048643	235.12	-0.160	-0.680	1.810	235.09	-2.00	2.20	 	 	 	 	 	 	 	 	 	 	 	 	 	 	 	 	 	 	1581546705	9.99	18.50
12/02/2020 22:31:47	120220	12022020	223146	234.89	12.237057	-57.048683	234.89	-0.400	-0.110	1.950	234.86	-1.40	2.30	 	 	 	 	 	 	 	 	 	 	 	 	 	 	 	 	 	 	1581546706	9.95	18.43
12/02/2020 22:31:48	120220	12022020	223147	234.82	12.237032	-57.048723	234.87	-0.530	0.380	1.680	234.83	-0.90	2.00	 	 	 	 	 	 	 	 	 	 	 	 	 	 	 	 	 	 	1581546707	9.92	18.37
12/02/2020 22:31:49	120220	12022020	223148	234.93	12.237007	-57.048763	235.01	-0.500	0.470	1.160	234.97	-0.90	1.50	 	 	 	 	 	 	 	 	 	 	 	 	 	 	 	 	 	 	1581546708	10.06	18.63
12/02/2020 22:31:50	120220	12022020	223149	235.14	12.236980	-57.048805	235.20	-0.260	0.060	0.560	235.19	-1.40	0.90	 	 	 	 	 	 	 	 	 	 	 	 	 	 	 	 	 	 	1581546709	10.37	19.21
12/02/2020 22:31:51	120220	12022020	223150	235.29	12.236952	-57.048847	235.30	0.090	-0.580	0.160	235.30	-2.00	0.50	 	 	 	 	 	 	 	 	 	 	 	 	 	 	 	 	 	 	1581546710	10.61	19.65
12/02/2020 22:31:52	120220	12022020	223151	235.30	12.236925	-57.048888	235.31	0.340	-0.990	0.100	235.30	-2.40	0.50	 	 	 	 	 	 	 	 	 	 	 	 	 	 	 	 	 	 	1581546711	10.55	19.54
12/02/2020 22:31:53	120220	12022020	223152	235.37	12.236900	-57.048928	235.41	0.290	-0.770	0.210	235.41	-2.10	0.60	 	 	 	 	 	 	 	 	 	 	 	 	 	 	 	 	 	 	1581546712	10.04	18.59
12/02/2020 22:31:54	120220	12022020	223153	235.57	12.236877	-57.048967	235.63	0.050	-0.170	0.430	235.62	-1.40	0.90	 	 	 	 	 	 	 	 	 	 	 	 	 	 	 	 	 	 	1581546713	9.57	17.72
12/02/2020 22:31:55	120220	12022020	223154	235.82	12.236853	-57.049005	235.88	-0.140	0.270	0.730	235.86	-1.10	1.20	 	 	 	 	 	 	 	 	 	 	 	 	 	 	 	 	 	 	1581546714	9.62	17.82
12/02/2020 22:31:56	120220	12022020	223155	235.99	12.236828	-57.049045	236.05	-0.170	0.240	1.100	236.02	-1.20	1.60	 	 	 	 	 	 	 	 	 	 	 	 	 	 	 	 	 	 	1581546715	10.07	18.65
12/02/2020 22:31:57	120220	12022020	223156	236.03	12.236805	-57.049088	236.07	-0.090	-0.120	1.490	236.02	-1.50	1.90	 	 	 	 	 	 	 	 	 	 	 	 	 	 	 	 	 	 	1581546716	10.46	19.37
12/02/2020 22:31:58	120220	12022020	223157	235.95	12.236780	-57.049132	236.00	0.010	-0.390	1.690	235.95	-1.80	2.10	 	 	 	 	 	 	 	 	 	 	 	 	 	 	 	 	 	 	1581546717	10.43	19.32
12/02/2020 22:31:59	120220	12022020	223158	235.79	12.236757	-57.049172	235.81	0.090	-0.380	1.650	235.75	-1.70	2.00	 	 	 	 	 	 	 	 	 	 	 	 	 	 	 	 	 	 	1581546718	10.01	18.54
12/02/2020 22:32:00	120220	12022020	223159	235.58	12.236732	-57.049210	235.53	0.170	-0.310	1.530	235.52	-1.70	1.90	 	 	 	 	 	 	 	 	 	 	 	 	 	 	 	 	 	 	1581546719	9.78	18.11
12/02/2020 22:32:01	120220	12022020	223200	235.21	12.236707	-57.049250	235.23	0.200	-0.350	1.430	235.16	-1.70	1.80	 	 	 	 	 	 	 	 	 	 	 	 	 	 	 	 	 	 	1581546720	9.84	18.22
12/02/2020 22:32:02	120220	12022020	223201	235.08	12.236683	-57.049290	235.13	0.170	-0.510	1.230	235.08	-1.90	1.60	1015.00	27.30	28.60	21.10	21.30	-2.0	69.0	64.0	392.0	25.6	187.00	3.70	58.00	8.90	16	10543.0	27.5	27.5	1581546721	10.01	18.54
12/02/2020 22:32:03	120220	12022020	223202	235.19	12.236658	-57.049332	235.27	0.130	-0.700	0.890	235.24	-2.10	1.20	 	 	 	 	 	 	 	 	 	 	 	 	 	 	 	 	 	 	1581546722	10.12	18.74
12/02/2020 22:32:04	120220	12022020	223203	235.49	12.236635	-57.049373	235.60	0.130	-0.800	0.400	235.58	-2.20	0.70	 	 	 	 	 	 	 	 	 	 	 	 	 	 	 	 	 	 	1581546723	10.14	18.78
12/02/2020 22:32:05	120220	12022020	223204	235.94	12.236608	-57.049413	236.05	0.130	-0.770	-0.080	236.04	-2.10	0.30	 	 	 	 	 	 	 	 	 	 	 	 	 	 	 	 	 	 	1581546724	10.10	18.71
12/02/2020 22:32:06	120220	12022020	223205	236.31	12.236583	-57.049452	236.37	0.060	-0.650	-0.230	236.36	-2.00	0.20	 	 	 	 	 	 	 	 	 	 	 	 	 	 	 	 	 	 	1581546725	10.13	18.76
12/02/2020 22:32:07	120220	12022020	223206	236.49	12.236557	-57.049493	236.53	-0.120	-0.440	0.030	236.52	-1.80	0.50	 	 	 	 	 	 	 	 	 	 	 	 	 	 	 	 	 	 	1581546726	10.19	18.87
12/02/2020 22:32:08	120220	12022020	223207	236.59	12.236532	-57.049533	236.63	-0.350	-0.080	0.460	236.60	-1.40	0.90	 	 	 	 	 	 	 	 	 	 	 	 	 	 	 	 	 	 	1581546727	10.11	18.72
12/02/2020 22:32:09	120220	12022020	223208	236.66	12.236508	-57.049575	236.72	-0.460	0.340	0.900	236.68	-1.00	1.40	 	 	 	 	 	 	 	 	 	 	 	 	 	 	 	 	 	 	1581546728	9.96	18.45
12/02/2020 22:32:10	120220	12022020	223209	236.76	12.236485	-57.049615	236.84	-0.370	0.550	1.230	236.78	-0.80	1.70	 	 	 	 	 	 	 	 	 	 	 	 	 	 	 	 	 	 	1581546729	10.00	18.52
12/02/2020 22:32:11	120220	12022020	223210	236.86	12.236462	-57.049657	236.90	-0.130	0.390	1.310	236.87	-1.00	1.70	 	 	 	 	 	 	 	 	 	 	 	 	 	 	 	 	 	 	1581546730	10.19	18.87
12/02/2020 22:32:12	120220	12022020	223211	236.87	12.236435	-57.049698	236.89	0.120	0.000	1.180	236.87	-1.40	1.60	 	 	 	 	 	 	 	 	 	 	 	 	 	 	 	 	 	 	1581546731	10.33	19.13
12/02/2020 22:32:13	120220	12022020	223212	236.85	12.236412	-57.049740	236.87	0.230	-0.290	0.970	236.85	-1.70	1.30	 	 	 	 	 	 	 	 	 	 	 	 	 	 	 	 	 	 	1581546732	10.17	18.83
12/02/2020 22:32:14	120220	12022020	223213	236.87	12.236388	-57.049780	236.89	0.210	-0.470	0.670	236.87	-1.90	1.00	 	 	 	 	 	 	 	 	 	 	 	 	 	 	 	 	 	 	1581546733	9.86	18.26
12/02/2020 22:32:15	120220	12022020	223214	236.88	12.236365	-57.049820	236.89	0.220	-0.710	0.340	236.88	-2.10	0.70	 	 	 	 	 	 	 	 	 	 	 	 	 	 	 	 	 	 	1581546734	9.85	18.24
12/02/2020 22:32:16	120220	12022020	223215	236.88	12.236340	-57.049860	236.90	0.310	-0.980	0.100	236.89	-2.40	0.50	 	 	 	 	 	 	 	 	 	 	 	 	 	 	 	 	 	 	1581546735	10.02	18.56
12/02/2020 22:32:17	120220	12022020	223216	236.92	12.236315	-57.049900	236.95	0.330	-1.100	0.100	236.93	-2.50	0.50	 	 	 	 	 	 	 	 	 	 	 	 	 	 	 	 	 	 	1581546736	10.04	18.59
12/02/2020 22:32:18	120220	12022020	223217	236.85	12.236292	-57.049942	236.82	0.190	-1.080	0.520	236.79	-2.40	1.00	 	 	 	 	 	 	 	 	 	 	 	 	 	 	 	 	 	 	1581546737	10.05	18.61
12/02/2020 22:32:19	120220	12022020	223218	236.44	12.236270	-57.049985	236.38	-0.030	-1.050	1.270	236.34	-2.40	1.80	 	 	 	 	 	 	 	 	 	 	 	 	 	 	 	 	 	 	1581546738	10.31	19.09
12/02/2020 22:32:20	120220	12022020	223219	235.96	12.236248	-57.050028	235.95	-0.230	-0.870	1.960	235.88	-2.20	2.40	 	 	 	 	 	 	 	 	 	 	 	 	 	 	 	 	 	 	1581546739	10.57	19.58
12/02/2020 22:32:21	120220	12022020	223220	235.70	12.236227	-57.050073	235.77	-0.390	-0.370	2.200	235.69	-1.60	2.60	 	 	 	 	 	 	 	 	 	 	 	 	 	 	 	 	 	 	1581546740	10.48	19.41
12/02/2020 22:32:22	120220	12022020	223221	235.88	12.236203	-57.050115	236.08	-0.520	0.430	1.830	235.99	-0.80	2.10	 	 	 	 	 	 	 	 	 	 	 	 	 	 	 	 	 	 	1581546741	10.09	18.69
12/02/2020 22:32:23	120220	12022020	223222	236.58	12.236180	-57.050155	236.84	-0.530	1.160	1.030	236.76	-0.10	1.30	 	 	 	 	 	 	 	 	 	 	 	 	 	 	 	 	 	 	1581546742	9.78	18.11
12/02/2020 22:32:24	120220	12022020	223223	237.48	12.236155	-57.050193	237.72	-0.310	1.390	0.220	237.66	0.00	0.50	 	 	 	 	 	 	 	 	 	 	 	 	 	 	 	 	 	 	1581546743	9.87	18.28
12/02/2020 22:32:25	120220	12022020	223224	238.31	12.236128	-57.050232	238.50	0.050	1.130	-0.300	238.44	-0.30	0.10	 	 	 	 	 	 	 	 	 	 	 	 	 	 	 	 	 	 	1581546744	10.04	18.59
12/02/2020 22:32:26	120220	12022020	223225	238.91	12.236102	-57.050272	239.05	0.400	0.510	-0.460	238.99	-1.00	-0.10	 	 	 	 	 	 	 	 	 	 	 	 	 	 	 	 	 	 	1581546745	9.98	18.48
12/02/2020 22:32:27	120220	12022020	223226	239.16	12.236077	-57.050312	239.20	0.660	-0.510	-0.120	239.15	-2.00	0.40	 	 	 	 	 	 	 	 	 	 	 	 	 	 	 	 	 	 	1581546746	10.05	18.61
12/02/2020 22:32:28	120220	12022020	223227	238.90	12.236055	-57.050355	238.86	0.790	-1.650	0.730	238.79	-3.10	1.30	 	 	 	 	 	 	 	 	 	 	 	 	 	 	 	 	 	 	1581546747	10.28	19.04
12/02/2020 22:32:29	120220	12022020	223228	238.23	12.236033	-57.050398	238.14	0.680	-2.360	1.800	238.06	-3.80	2.30	 	 	 	 	 	 	 	 	 	 	 	 	 	 	 	 	 	 	1581546748	10.24	18.96
12/02/2020 22:32:30	120220	12022020	223229	237.33	12.236015	-57.050442	237.24	0.320	-2.420	2.760	237.13	-3.70	3.20	 	 	 	 	 	 	 	 	 	 	 	 	 	 	 	 	 	 	1581546749	10.05	18.61
12/02/2020 22:32:31	120220	12022020	223230	236.39	12.235997	-57.050485	236.36	-0.100	-1.950	3.160	236.22	-3.20	3.50	 	 	 	 	 	 	 	 	 	 	 	 	 	 	 	 	 	 	1581546750	9.92	18.37
12/02/2020 22:32:32	120220	12022020	223231	235.71	12.235975	-57.050527	235.75	-0.390	-1.200	2.830	235.64	-2.50	3.10	 	 	 	 	 	 	 	 	 	 	 	 	 	 	 	 	 	 	1581546751	9.96	18.45
12/02/2020 22:32:33	120220	12022020	223232	235.56	12.235950	-57.050567	235.71	-0.530	-0.430	2.000	235.61	-1.70	2.30	 	 	 	 	 	 	 	 	 	 	 	 	 	 	 	 	 	 	1581546752	10.17	18.83
12/02/2020 22:32:34	120220	12022020	223233	235.97	12.235923	-57.050608	236.20	-0.620	0.260	1.090	236.10	-1.00	1.40	 	 	 	 	 	 	 	 	 	 	 	 	 	 	 	 	 	 	1581546753	10.40	19.26
12/02/2020 22:32:35	120220	12022020	223234	236.76	12.235897	-57.050650	237.03	-0.710	0.930	0.430	236.94	-0.40	0.80	 	 	 	 	 	 	 	 	 	 	 	 	 	 	 	 	 	 	1581546754	10.42	19.30
12/02/2020 22:32:36	120220	12022020	223235	237.53	12.235873	-57.050692	238.00	-0.720	1.500	0.190	237.71	0.20	0.60	 	 	 	 	 	 	 	 	 	 	 	 	 	 	 	 	 	 	1581546755	10.26	19.00
12/02/2020 22:32:37	120220	12022020	223236	238.77	12.235850	-57.050733	239.09	-0.510	1.930	0.070	239.00	0.60	0.40	 	 	 	 	 	 	 	 	 	 	 	 	 	 	 	 	 	 	1581546756	9.96	18.45
12/02/2020 22:32:38	120220	12022020	223237	239.88	12.235827	-57.050772	240.14	-0.020	1.970	-0.160	240.06	0.50	0.20	 	 	 	 	 	 	 	 	 	 	 	 	 	 	 	 	 	 	1581546757	9.58	17.74
12/02/2020 22:32:39	120220	12022020	223238	240.68	12.235803	-57.050810	240.83	0.650	1.090	-0.210	240.78	-0.50	0.20	 	 	 	 	 	 	 	 	 	 	 	 	 	 	 	 	 	 	1581546758	9.71	17.98
12/02/2020 22:32:40	120220	12022020	223239	240.92	12.235778	-57.050852	240.94	1.190	-0.680	0.230	240.88	-2.30	0.70	 	 	 	 	 	 	 	 	 	 	 	 	 	 	 	 	 	 	1581546759	10.30	19.08
12/02/2020 22:32:41	120220	12022020	223240	240.50	12.235757	-57.050897	240.42	1.260	-2.420	1.100	240.35	-3.90	1.60	 	 	 	 	 	 	 	 	 	 	 	 	 	 	 	 	 	 	1581546760	10.51	19.46
12/02/2020 22:32:42	120220	12022020	223241	239.66	12.235738	-57.050940	239.56	0.870	-3.190	2.040	239.48	-4.50	2.50	 	 	 	 	 	 	 	 	 	 	 	 	 	 	 	 	 	 	1581546761	10.04	18.59
12/02/2020 22:32:43	120220	12022020	223242	238.78	12.235722	-57.050982	238.70	0.330	-2.860	2.540	238.62	-4.10	2.90	 	 	 	 	 	 	 	 	 	 	 	 	 	 	 	 	 	 	1581546762	9.39	17.39
12/02/2020 22:32:44	120220	12022020	223243	238.09	12.235703	-57.051020	238.07	-0.090	-1.970	2.440	237.99	-3.20	2.80	 	 	 	 	 	 	 	 	 	 	 	 	 	 	 	 	 	 	1581546763	9.23	17.09
12/02/2020 22:32:45	120220	12022020	223244	237.70	12.235682	-57.051060	237.73	-0.340	-1.050	1.870	237.67	-2.30	2.20	 	 	 	 	 	 	 	 	 	 	 	 	 	 	 	 	 	 	1581546764	9.62	17.82
12/02/2020 22:32:46	120220	12022020	223245	237.68	12.235657	-57.051102	237.78	-0.540	-0.330	1.150	237.72	-1.60	1.50	 	 	 	 	 	 	 	 	 	 	 	 	 	 	 	 	 	 	1581546765	10.21	18.91
12/02/2020 22:32:47	120220	12022020	223246	238.05	12.235630	-57.051143	238.21	-0.770	0.290	0.620	238.17	-1.00	1.00	 	 	 	 	 	 	 	 	 	 	 	 	 	 	 	 	 	 	1581546766	10.57	19.58
12/02/2020 22:32:48	120220	12022020	223247	238.75	12.235607	-57.051188	238.95	-1.000	0.920	0.470	238.75	-0.40	0.90	 	 	 	 	 	 	 	 	 	 	 	 	 	 	 	 	 	 	1581546767	10.53	19.50
12/02/2020 22:32:49	120220	12022020	223248	239.57	12.235587	-57.051232	239.80	-1.030	1.440	0.550	239.75	0.10	1.00	 	 	 	 	 	 	 	 	 	 	 	 	 	 	 	 	 	 	1581546768	10.35	19.17
12/02/2020 22:32:50	120220	12022020	223249	240.27	12.235565	-57.051275	240.61	-0.760	1.710	0.590	240.43	0.30	1.00	 	 	 	 	 	 	 	 	 	 	 	 	 	 	 	 	 	 	1581546769	10.14	18.78
12/02/2020 22:32:51	120220	12022020	223250	241.15	12.235543	-57.051317	241.28	-0.240	1.600	0.530	241.26	0.20	0.90	 	 	 	 	 	 	 	 	 	 	 	 	 	 	 	 	 	 	1581546770	9.90	18.33
12/02/2020 22:32:52	120220	12022020	223251	241.61	12.235523	-57.051357	241.67	0.370	1.030	0.380	241.65	-0.50	0.70	 	 	 	 	 	 	 	 	 	 	 	 	 	 	 	 	 	 	1581546771	9.76	18.08
12/02/2020 22:32:53	120220	12022020	223252	241.66	12.235500	-57.051397	241.63	0.870	0.060	0.160	241.62	-1.40	0.50	 	 	 	 	 	 	 	 	 	 	 	 	 	 	 	 	 	 	1581546772	9.75	18.06
12/02/2020 22:32:54	120220	12022020	223253	241.31	12.235477	-57.051435	241.19	1.150	-1.000	0.110	241.20	-2.50	0.50	 	 	 	 	 	 	 	 	 	 	 	 	 	 	 	 	 	 	1581546773	9.66	17.89
12/02/2020 22:32:55	120220	12022020	223254	240.67	12.235455	-57.051475	240.54	1.160	-1.840	0.330	240.53	-3.30	0.80	 	 	 	 	 	 	 	 	 	 	 	 	 	 	 	 	 	 	1581546774	9.51	17.61
12/02/2020 22:32:56	120220	12022020	223255	239.96	12.235433	-57.051513	239.87	0.890	-2.300	0.750	239.82	-3.70	1.20	 	 	 	 	 	 	 	 	 	 	 	 	 	 	 	 	 	 	1581546775	9.45	17.50
12/02/2020 22:32:57	120220	12022020	223256	239.32	12.235415	-57.051555	239.26	0.410	-2.310	1.260	239.21	-3.60	1.70	 	 	 	 	 	 	 	 	 	 	 	 	 	 	 	 	 	 	1581546776	9.57	17.72
12/02/2020 22:32:58	120220	12022020	223257	238.85	12.235398	-57.051598	238.83	-0.130	-1.850	1.640	238.79	-3.10	2.10	 	 	 	 	 	 	 	 	 	 	 	 	 	 	 	 	 	 	1581546777	9.68	17.93
12/02/2020 22:32:59	120220	12022020	223258	238.65	12.235382	-57.051642	238.68	-0.520	-1.190	1.690	238.64	-2.40	2.10	 	 	 	 	 	 	 	 	 	 	 	 	 	 	 	 	 	 	1581546778	9.89	18.32
12/02/2020 22:33:00	120220	12022020	223259	238.71	12.235362	-57.051685	238.77	-0.650	-0.580	1.390	238.74	-1.90	1.70	 	 	 	 	 	 	 	 	 	 	 	 	 	 	 	 	 	 	1581546779	10.23	18.95
12/02/2020 22:33:01	120220	12022020	223300	238.89	12.235338	-57.051730	238.97	-0.620	-0.030	1.040	238.93	-1.30	1.40	 	 	 	 	 	 	 	 	 	 	 	 	 	 	 	 	 	 	1581546780	10.54	19.52
12/02/2020 22:33:02	120220	12022020	223301	239.12	12.235315	-57.051773	239.21	-0.610	0.690	0.870	239.17	-0.60	1.30	1015.10	27.70	28.40	21.70	21.60	-2.0	69.0	66.0	391.0	25.9	180.00	3.50	58.00	8.60	17	10282.0	27.5	27.5	1581546781	10.43	19.32
12/02/2020 22:33:03	120220	12022020	223302	239.40	12.235293	-57.051813	239.49	-0.640	1.560	0.820	239.46	0.30	1.20	 	 	 	 	 	 	 	 	 	 	 	 	 	 	 	 	 	 	1581546782	9.95	18.43
12/02/2020 22:33:04	120220	12022020	223303	239.74	12.235272	-57.051853	239.84	-0.550	2.090	0.760	239.80	0.70	1.20	 	 	 	 	 	 	 	 	 	 	 	 	 	 	 	 	 	 	1581546783	9.62	17.82
12/02/2020 22:33:05	120220	12022020	223304	240.03	12.235248	-57.051893	240.09	-0.210	1.830	0.700	240.07	0.40	1.10	 	 	 	 	 	 	 	 	 	 	 	 	 	 	 	 	 	 	1581546784	9.75	18.06
12/02/2020 22:33:06	120220	12022020	223305	240.16	12.235225	-57.051935	240.19	0.280	0.820	0.730	240.17	-0.70	1.20	 	 	 	 	 	 	 	 	 	 	 	 	 	 	 	 	 	 	1581546785	10.03	18.58
12/02/2020 22:33:07	120220	12022020	223306	240.15	12.235203	-57.051977	240.17	0.660	-0.480	0.890	240.13	-2.00	1.30	 	 	 	 	 	 	 	 	 	 	 	 	 	 	 	 	 	 	1581546786	10.04	18.59
12/02/2020 22:33:08	120220	12022020	223307	239.95	12.235183	-57.052017	239.92	0.850	-1.540	1.170	239.88	-3.00	1.60	 	 	 	 	 	 	 	 	 	 	 	 	 	 	 	 	 	 	1581546787	9.75	18.06
12/02/2020 22:33:09	120220	12022020	223308	239.46	12.235163	-57.052057	239.39	0.940	-2.040	1.450	239.34	-3.40	1.90	 	 	 	 	 	 	 	 	 	 	 	 	 	 	 	 	 	 	1581546788	9.34	17.30
12/02/2020 22:33:10	120220	12022020	223309	238.90	12.235143	-57.052095	238.84	0.950	-2.060	1.480	238.79	-3.40	1.90	 	 	 	 	 	 	 	 	 	 	 	 	 	 	 	 	 	 	1581546789	9.08	16.82
12/02/2020 22:33:11	120220	12022020	223310	238.39	12.235123	-57.052133	238.35	0.750	-1.970	1.370	238.30	-3.30	1.80	 	 	 	 	 	 	 	 	 	 	 	 	 	 	 	 	 	 	1581546790	9.36	17.33
12/02/2020 22:33:12	120220	12022020	223311	238.05	12.235100	-57.052175	237.99	0.320	-1.800	1.370	237.98	-3.10	1.80	 	 	 	 	 	 	 	 	 	 	 	 	 	 	 	 	 	 	1581546791	9.94	18.41
12/02/2020 22:33:13	120220	12022020	223312	237.84	12.235080	-57.052218	237.92	-0.260	-1.170	1.490	237.84	-2.40	1.90	 	 	 	 	 	 	 	 	 	 	 	 	 	 	 	 	 	 	1581546792	10.13	18.76
12/02/2020 22:33:14	120220	12022020	223313	237.95	12.235062	-57.052260	238.09	-0.800	-0.050	1.690	238.00	-1.20	2.10	 	 	 	 	 	 	 	 	 	 	 	 	 	 	 	 	 	 	1581546793	9.90	18.33
12/02/2020 22:33:15	120220	12022020	223314	238.34	12.235043	-57.052303	238.54	-1.070	1.120	1.750	238.44	-0.10	2.10	 	 	 	 	 	 	 	 	 	 	 	 	 	 	 	 	 	 	1581546794	9.70	17.96
12/02/2020 22:33:16	120220	12022020	223315	238.94	12.235022	-57.052343	239.14	-0.960	1.720	1.460	239.06	0.40	1.80	 	 	 	 	 	 	 	 	 	 	 	 	 	 	 	 	 	 	1581546795	9.82	18.19
12/02/2020 22:33:17	120220	12022020	223316	239.55	12.234998	-57.052385	239.72	-0.570	1.470	0.850	239.65	0.00	1.20	 	 	 	 	 	 	 	 	 	 	 	 	 	 	 	 	 	 	1581546796	10.26	19.00
12/02/2020 22:33:18	120220	12022020	223317	240.04	12.234970	-57.052427	240.16	-0.140	0.700	0.140	240.12	-0.80	0.50	 	 	 	 	 	 	 	 	 	 	 	 	 	 	 	 	 	 	1581546797	10.49	19.43
12/02/2020 22:33:19	120220	12022020	223318	240.33	12.234943	-57.052467	240.38	0.170	-0.050	-0.340	240.35	-1.50	0.10	 	 	 	 	 	 	 	 	 	 	 	 	 	 	 	 	 	 	1581546798	10.19	18.87
12/02/2020 22:33:20	120220	12022020	223319	240.32	12.234920	-57.052505	240.30	0.370	-0.460	-0.220	240.27	-1.90	0.30	 	 	 	 	 	 	 	 	 	 	 	 	 	 	 	 	 	 	1581546799	9.58	17.74
12/02/2020 22:33:21	120220	12022020	223320	239.98	12.234900	-57.052543	239.91	0.520	-0.650	0.500	239.88	-2.00	1.00	 	 	 	 	 	 	 	 	 	 	 	 	 	 	 	 	 	 	1581546800	9.17	16.98
12/02/2020 22:33:22	120220	12022020	223321	239.43	12.234883	-57.052583	239.35	0.600	-0.930	1.420	239.31	-2.30	1.90	 	 	 	 	 	 	 	 	 	 	 	 	 	 	 	 	 	 	1581546801	9.30	17.22
12/02/2020 22:33:23	120220	12022020	223322	238.84	12.234867	-57.052627	238.80	0.560	-1.260	2.060	238.73	-2.70	2.50	 	 	 	 	 	 	 	 	 	 	 	 	 	 	 	 	 	 	1581546802	9.66	17.89
12/02/2020 22:33:24	120220	12022020	223323	238.47	12.234848	-57.052668	238.42	0.380	-1.340	2.140	238.40	-2.70	2.50	 	 	 	 	 	 	 	 	 	 	 	 	 	 	 	 	 	 	1581546803	9.74	18.04
12/02/2020 22:33:25	120220	12022020	223324	238.31	12.234830	-57.052708	238.40	0.130	-0.970	1.680	238.33	-2.20	2.00	 	 	 	 	 	 	 	 	 	 	 	 	 	 	 	 	 	 	1581546804	9.48	17.56
12/02/2020 22:33:26	120220	12022020	223325	238.50	12.234808	-57.052747	238.72	-0.110	-0.350	0.910	238.58	-1.60	1.20	 	 	 	 	 	 	 	 	 	 	 	 	 	 	 	 	 	 	1581546805	9.25	17.13
12/02/2020 22:33:27	120220	12022020	223326	239.01	12.234787	-57.052785	239.14	-0.230	0.070	0.140	239.10	-1.30	0.50	 	 	 	 	 	 	 	 	 	 	 	 	 	 	 	 	 	 	1581546806	9.34	17.30
12/02/2020 22:33:28	120220	12022020	223327	239.39	12.234763	-57.052825	239.47	-0.180	0.050	-0.240	239.44	-1.40	0.20	 	 	 	 	 	 	 	 	 	 	 	 	 	 	 	 	 	 	1581546807	9.78	18.11
12/02/2020 22:33:29	120220	12022020	223328	239.49	12.234738	-57.052865	239.51	-0.080	-0.250	-0.030	239.48	-1.70	0.40	 	 	 	 	 	 	 	 	 	 	 	 	 	 	 	 	 	 	1581546808	10.17	18.83
12/02/2020 22:33:30	120220	12022020	223329	239.28	12.234715	-57.052907	239.28	-0.110	-0.420	0.610	239.22	-1.80	1.10	 	 	 	 	 	 	 	 	 	 	 	 	 	 	 	 	 	 	1581546809	10.20	18.89
12/02/2020 22:33:31	120220	12022020	223330	238.99	12.234695	-57.052950	239.02	-0.310	-0.170	1.310	238.94	-1.50	1.80	 	 	 	 	 	 	 	 	 	 	 	 	 	 	 	 	 	 	1581546810	9.81	18.17
12/02/2020 22:33:32	120220	12022020	223331	238.79	12.234678	-57.052990	238.83	-0.490	0.250	1.700	238.76	-1.10	2.10	 	 	 	 	 	 	 	 	 	 	 	 	 	 	 	 	 	 	1581546811	9.43	17.46
12/02/2020 22:33:33	120220	12022020	223332	238.68	12.234660	-57.053032	238.73	-0.390	0.410	1.590	238.67	-1.00	1.90	 	 	 	 	 	 	 	 	 	 	 	 	 	 	 	 	 	 	1581546812	9.44	17.48
12/02/2020 22:33:34	120220	12022020	223333	238.70	12.234638	-57.053070	238.78	-0.030	0.230	1.110	238.73	-1.20	1.40	 	 	 	 	 	 	 	 	 	 	 	 	 	 	 	 	 	 	1581546813	9.61	17.80
12/02/2020 22:33:35	120220	12022020	223334	238.87	12.234615	-57.053110	238.95	0.360	-0.160	0.640	238.90	-1.60	1.00	 	 	 	 	 	 	 	 	 	 	 	 	 	 	 	 	 	 	1581546814	9.72	18.00
12/02/2020 22:33:36	120220	12022020	223335	239.00	12.234592	-57.053150	239.05	0.540	-0.580	0.450	239.00	-2.00	0.90	 	 	 	 	 	 	 	 	 	 	 	 	 	 	 	 	 	 	1581546815	9.72	18.00
12/02/2020 22:33:37	120220	12022020	223336	238.95	12.234570	-57.053190	238.98	0.470	-0.840	0.550	238.93	-2.20	1.00	 	 	 	 	 	 	 	 	 	 	 	 	 	 	 	 	 	 	1581546816	9.63	17.83
12/02/2020 22:33:38	120220	12022020	223337	238.83	12.234550	-57.053230	238.79	0.240	-0.830	0.870	238.79	-2.20	1.30	 	 	 	 	 	 	 	 	 	 	 	 	 	 	 	 	 	 	1581546817	9.46	17.52
12/02/2020 22:33:39	120220	12022020	223338	238.43	12.234532	-57.053270	238.41	0.010	-0.670	1.410	238.33	-2.00	1.90	 	 	 	 	 	 	 	 	 	 	 	 	 	 	 	 	 	 	1581546818	9.39	17.39
12/02/2020 22:33:40	120220	12022020	223339	237.87	12.234513	-57.053310	237.85	-0.130	-0.530	1.930	237.87	-1.90	2.40	 	 	 	 	 	 	 	 	 	 	 	 	 	 	 	 	 	 	1581546819	9.52	17.63
12/02/2020 22:33:41	120220	12022020	223340	237.36	12.234493	-57.053352	237.40	-0.180	-0.470	2.020	237.30	-1.80	2.40	 	 	 	 	 	 	 	 	 	 	 	 	 	 	 	 	 	 	1581546820	9.68	17.93
12/02/2020 22:33:42	120220	12022020	223341	237.17	12.234472	-57.053392	237.29	-0.180	-0.460	1.530	237.19	-1.80	1.80	 	 	 	 	 	 	 	 	 	 	 	 	 	 	 	 	 	 	1581546821	9.76	18.08
12/02/2020 22:33:43	120220	12022020	223342	237.38	12.234448	-57.053432	237.55	-0.160	-0.410	0.750	237.45	-1.80	1.10	 	 	 	 	 	 	 	 	 	 	 	 	 	 	 	 	 	 	1581546822	9.76	18.08
12/02/2020 22:33:44	120220	12022020	223343	237.80	12.234423	-57.053470	237.95	-0.110	-0.230	0.120	237.88	-1.60	0.50	 	 	 	 	 	 	 	 	 	 	 	 	 	 	 	 	 	 	1581546823	9.66	17.89
12/02/2020 22:33:45	120220	12022020	223344	238.17	12.234400	-57.053508	238.30	-0.040	-0.020	-0.020	238.23	-1.40	0.40	 	 	 	 	 	 	 	 	 	 	 	 	 	 	 	 	 	 	1581546824	9.59	17.76
12/02/2020 22:33:46	120220	12022020	223345	238.43	12.234377	-57.053547	238.53	0.050	0.210	0.180	238.46	-1.10	0.60	 	 	 	 	 	 	 	 	 	 	 	 	 	 	 	 	 	 	1581546825	9.54	17.67
12/02/2020 22:33:47	120220	12022020	223346	238.50	12.234355	-57.053585	238.55	0.100	0.260	0.640	238.48	-1.10	1.10	 	 	 	 	 	 	 	 	 	 	 	 	 	 	 	 	 	 	1581546826	9.55	17.69
12/02/2020 22:33:48	120220	12022020	223347	238.17	12.234335	-57.053628	238.12	0.080	-0.080	1.450	238.04	-1.50	2.00	 	 	 	 	 	 	 	 	 	 	 	 	 	 	 	 	 	 	1581546827	9.88	18.30
12/02/2020 22:33:49	120220	12022020	223348	237.41	12.234315	-57.053672	237.34	-0.030	-0.560	2.260	237.24	-2.00	2.70	 	 	 	 	 	 	 	 	 	 	 	 	 	 	 	 	 	 	1581546828	10.19	18.87
12/02/2020 22:33:50	120220	12022020	223349	236.66	12.234297	-57.053715	236.66	-0.170	-0.700	2.510	236.55	-2.00	2.90	 	 	 	 	 	 	 	 	 	 	 	 	 	 	 	 	 	 	1581546829	9.96	18.45
12/02/2020 22:33:51	120220	12022020	223350	236.27	12.234277	-57.053753	236.35	-0.190	-0.410	2.070	236.24	-1.70	2.40	 	 	 	 	 	 	 	 	 	 	 	 	 	 	 	 	 	 	1581546830	9.32	17.26
12/02/2020 22:33:52	120220	12022020	223351	236.24	12.234255	-57.053790	236.36	-0.040	-0.110	1.250	236.26	-1.50	1.50	 	 	 	 	 	 	 	 	 	 	 	 	 	 	 	 	 	 	1581546831	9.00	16.67
12/02/2020 22:33:53	120220	12022020	223352	236.37	12.234230	-57.053827	236.49	0.150	-0.260	0.590	236.39	-1.70	0.90	 	 	 	 	 	 	 	 	 	 	 	 	 	 	 	 	 	 	1581546832	9.32	17.26
12/02/2020 22:33:54	120220	12022020	223353	236.48	12.234205	-57.053865	236.60	0.290	-0.760	0.340	236.50	-2.20	0.70	 	 	 	 	 	 	 	 	 	 	 	 	 	 	 	 	 	 	1581546833	9.85	18.24
12/02/2020 22:33:55	120220	12022020	223354	236.60	12.234180	-57.053905	236.75	0.310	-1.110	0.360	236.64	-2.50	0.80	 	 	 	 	 	 	 	 	 	 	 	 	 	 	 	 	 	 	1581546834	10.01	18.54
12/02/2020 22:33:56	120220	12022020	223355	236.81	12.234157	-57.053945	236.99	0.140	-0.960	0.550	236.86	-2.30	1.00	 	 	 	 	 	 	 	 	 	 	 	 	 	 	 	 	 	 	1581546835	9.74	18.04
12/02/2020 22:33:57	120220	12022020	223356	237.05	12.234137	-57.053985	237.22	-0.180	-0.480	0.820	237.09	-1.80	1.30	 	 	 	 	 	 	 	 	 	 	 	 	 	 	 	 	 	 	1581546836	9.46	17.52
12/02/2020 22:33:58	120220	12022020	223357	237.16	12.234115	-57.054023	237.29	-0.470	0.010	1.130	237.16	-1.30	1.60	 	 	 	 	 	 	 	 	 	 	 	 	 	 	 	 	 	 	1581546837	9.47	17.54
12/02/2020 22:33:59	120220	12022020	223358	237.05	12.234093	-57.054063	237.14	-0.610	0.250	1.380	237.01	-1.10	1.80	 	 	 	 	 	 	 	 	 	 	 	 	 	 	 	 	 	 	1581546838	9.69	17.95
12/02/2020 22:34:00	120220	12022020	223359	236.77	12.234070	-57.054103	236.83	-0.560	0.250	1.470	236.70	-1.10	1.90	 	 	 	 	 	 	 	 	 	 	 	 	 	 	 	 	 	 	1581546839	9.94	18.41
12/02/2020 22:34:01	120220	12022020	223400	236.41	12.234047	-57.054145	236.46	-0.370	0.290	1.390	236.34	-1.00	1.80	 	 	 	 	 	 	 	 	 	 	 	 	 	 	 	 	 	 	1581546840	9.83	18.21
12/02/2020 22:34:02	120220	12022020	223401	236.10	12.234025	-57.054183	236.16	-0.090	0.490	1.130	236.05	-0.80	1.50	1015.10	29.40	28.90	22.30	21.70	-2.0	65.0	65.0	387.0	26.0	183.00	5.70	60.00	10.70	18	10253.0	27.5	27.5	1581546841	9.40	17.41
12/02/2020 22:34:03	120220	12022020	223402	235.88	12.234002	-57.054220	235.95	0.270	0.430	0.760	235.85	-1.00	1.10	 	 	 	 	 	 	 	 	 	 	 	 	 	 	 	 	 	 	1581546842	9.17	16.98
12/02/2020 22:34:04	120220	12022020	223403	235.81	12.233978	-57.054258	235.90	0.600	-0.290	0.460	235.81	-1.80	0.90	 	 	 	 	 	 	 	 	 	 	 	 	 	 	 	 	 	 	1581546843	9.60	17.78
12/02/2020 22:34:05	120220	12022020	223404	235.90	12.233955	-57.054298	236.02	0.750	-1.290	0.390	235.93	-2.80	0.80	 	 	 	 	 	 	 	 	 	 	 	 	 	 	 	 	 	 	1581546844	10.10	18.71
12/02/2020 22:34:06	120220	12022020	223405	236.13	12.233932	-57.054340	236.28	0.610	-1.840	0.570	236.18	-3.20	1.00	 	 	 	 	 	 	 	 	 	 	 	 	 	 	 	 	 	 	1581546845	10.05	18.61
12/02/2020 22:34:07	120220	12022020	223406	236.39	12.233910	-57.054380	236.53	0.220	-1.580	0.820	236.43	-2.80	1.30	 	 	 	 	 	 	 	 	 	 	 	 	 	 	 	 	 	 	1581546846	9.53	17.65
12/02/2020 22:34:08	120220	12022020	223407	236.54	12.233890	-57.054418	236.67	-0.230	-0.800	1.040	236.55	-2.00	1.50	 	 	 	 	 	 	 	 	 	 	 	 	 	 	 	 	 	 	1581546847	9.12	16.89
12/02/2020 22:34:09	120220	12022020	223408	236.54	12.233867	-57.054455	236.66	-0.580	-0.110	1.160	236.54	-1.40	1.60	 	 	 	 	 	 	 	 	 	 	 	 	 	 	 	 	 	 	1581546848	9.31	17.24
12/02/2020 22:34:10	120220	12022020	223409	236.52	12.233843	-57.054495	236.63	-0.800	0.300	1.110	236.51	-1.00	1.50	 	 	 	 	 	 	 	 	 	 	 	 	 	 	 	 	 	 	1581546849	9.70	17.96
12/02/2020 22:34:11	120220	12022020	223410	236.44	12.233822	-57.054535	236.53	-0.810	0.470	1.000	236.42	-0.90	1.40	 	 	 	 	 	 	 	 	 	 	 	 	 	 	 	 	 	 	1581546850	9.89	18.32
12/02/2020 22:34:12	120220	12022020	223411	236.30	12.233798	-57.054575	236.36	-0.550	0.580	0.910	236.26	-0.80	1.30	 	 	 	 	 	 	 	 	 	 	 	 	 	 	 	 	 	 	1581546851	9.81	18.17
12/02/2020 22:34:13	120220	12022020	223412	236.14	12.233775	-57.054615	236.19	-0.050	0.570	0.820	236.11	-0.80	1.20	 	 	 	 	 	 	 	 	 	 	 	 	 	 	 	 	 	 	1581546852	9.65	17.87
12/02/2020 22:34:14	120220	12022020	223413	236.00	12.233752	-57.054653	236.05	0.450	0.290	0.810	235.97	-1.10	1.20	 	 	 	 	 	 	 	 	 	 	 	 	 	 	 	 	 	 	1581546853	9.65	17.87
12/02/2020 22:34:15	120220	12022020	223414	235.85	12.233727	-57.054692	235.90	0.680	-0.290	0.910	235.82	-1.70	1.40	 	 	 	 	 	 	 	 	 	 	 	 	 	 	 	 	 	 	1581546854	9.79	18.13
12/02/2020 22:34:16	120220	12022020	223415	235.74	12.233703	-57.054732	235.78	0.600	-0.920	1.140	235.72	-2.30	1.60	 	 	 	 	 	 	 	 	 	 	 	 	 	 	 	 	 	 	1581546855	9.86	18.26
12/02/2020 22:34:17	120220	12022020	223416	235.63	12.233683	-57.054773	235.70	0.330	-1.370	1.450	235.61	-2.80	1.90	 	 	 	 	 	 	 	 	 	 	 	 	 	 	 	 	 	 	1581546856	9.86	18.26
12/02/2020 22:34:18	120220	12022020	223417	235.55	12.233662	-57.054815	235.63	0.020	-1.490	1.660	235.54	-2.80	2.10	 	 	 	 	 	 	 	 	 	 	 	 	 	 	 	 	 	 	1581546857	9.79	18.13
12/02/2020 22:34:19	120220	12022020	223418	235.48	12.233640	-57.054855	235.56	-0.280	-1.140	1.660	235.47	-2.40	2.00	 	 	 	 	 	 	 	 	 	 	 	 	 	 	 	 	 	 	1581546858	9.58	17.74
12/02/2020 22:34:20	120220	12022020	223419	235.52	12.233618	-57.054893	235.63	-0.550	-0.490	1.360	235.55	-1.70	1.70	 	 	 	 	 	 	 	 	 	 	 	 	 	 	 	 	 	 	1581546859	9.37	17.35
12/02/2020 22:34:21	120220	12022020	223420	235.74	12.233593	-57.054930	235.86	-0.690	0.180	0.900	235.78	-1.10	1.30	 	 	 	 	 	 	 	 	 	 	 	 	 	 	 	 	 	 	1581546860	9.30	17.22
12/02/2020 22:34:22	120220	12022020	223421	235.98	12.233570	-57.054967	236.08	-0.570	0.430	0.600	236.01	-0.90	1.00	 	 	 	 	 	 	 	 	 	 	 	 	 	 	 	 	 	 	1581546861	9.56	17.71
12/02/2020 22:34:23	120220	12022020	223422	236.10	12.233543	-57.055007	236.17	-0.200	0.270	0.590	236.11	-1.10	1.00	 	 	 	 	 	 	 	 	 	 	 	 	 	 	 	 	 	 	1581546862	9.99	18.50
12/02/2020 22:34:24	120220	12022020	223423	236.10	12.233520	-57.055047	236.15	0.240	0.060	0.830	236.08	-1.30	1.30	 	 	 	 	 	 	 	 	 	 	 	 	 	 	 	 	 	 	1581546863	10.06	18.63
12/02/2020 22:34:25	120220	12022020	223424	235.99	12.233497	-57.055087	236.03	0.580	0.020	1.180	235.97	-1.30	1.60	 	 	 	 	 	 	 	 	 	 	 	 	 	 	 	 	 	 	1581546864	9.80	18.15
12/02/2020 22:34:26	120220	12022020	223425	235.86	12.233475	-57.055127	235.90	0.690	0.030	1.410	235.83	-1.30	1.80	 	 	 	 	 	 	 	 	 	 	 	 	 	 	 	 	 	 	1581546865	9.57	17.72
12/02/2020 22:34:27	120220	12022020	223426	235.70	12.233452	-57.055165	235.73	0.510	-0.030	1.470	235.67	-1.40	1.90	 	 	 	 	 	 	 	 	 	 	 	 	 	 	 	 	 	 	1581546866	9.52	17.63
12/02/2020 22:34:28	120220	12022020	223427	235.53	12.233430	-57.055203	235.56	0.140	-0.200	1.380	235.49	-1.60	1.80	 	 	 	 	 	 	 	 	 	 	 	 	 	 	 	 	 	 	1581546867	9.52	17.63
12/02/2020 22:34:29	120220	12022020	223428	235.36	12.233407	-57.055243	235.39	-0.200	-0.480	1.230	235.33	-1.90	1.60	 	 	 	 	 	 	 	 	 	 	 	 	 	 	 	 	 	 	1581546868	9.59	17.76
12/02/2020 22:34:30	120220	12022020	223429	235.24	12.233385	-57.055283	235.26	-0.310	-0.840	0.960	235.21	-2.20	1.30	 	 	 	 	 	 	 	 	 	 	 	 	 	 	 	 	 	 	1581546869	9.72	18.00
12/02/2020 22:34:31	120220	12022020	223430	235.26	12.233360	-57.055322	235.37	-0.230	-1.120	0.510	235.31	-2.50	0.90	 	 	 	 	 	 	 	 	 	 	 	 	 	 	 	 	 	 	1581546870	9.78	18.11
12/02/2020 22:34:32	120220	12022020	223431	235.57	12.233337	-57.055360	235.70	-0.120	-1.170	0.130	235.64	-2.50	0.50	 	 	 	 	 	 	 	 	 	 	 	 	 	 	 	 	 	 	1581546871	9.70	17.96
12/02/2020 22:34:33	120220	12022020	223432	235.94	12.233312	-57.055400	236.08	-0.030	-1.030	0.050	236.01	-2.40	0.50	 	 	 	 	 	 	 	 	 	 	 	 	 	 	 	 	 	 	1581546872	9.63	17.83
12/02/2020 22:34:34	120220	12022020	223433	236.22	12.233288	-57.055438	236.32	0.030	-0.710	0.330	236.25	-2.00	0.80	 	 	 	 	 	 	 	 	 	 	 	 	 	 	 	 	 	 	1581546873	9.65	17.87
12/02/2020 22:34:35	120220	12022020	223434	236.27	12.233267	-57.055478	236.33	0.050	-0.250	0.780	236.25	-1.50	1.30	 	 	 	 	 	 	 	 	 	 	 	 	 	 	 	 	 	 	1581546874	9.62	17.82
12/02/2020 22:34:36	120220	12022020	223435	236.10	12.233243	-57.055517	236.13	0.010	0.120	1.250	236.04	-1.20	1.70	 	 	 	 	 	 	 	 	 	 	 	 	 	 	 	 	 	 	1581546875	9.70	17.96
12/02/2020 22:34:37	120220	12022020	223436	235.74	12.233220	-57.055558	235.76	-0.020	0.210	1.610	235.66	-1.10	2.10	 	 	 	 	 	 	 	 	 	 	 	 	 	 	 	 	 	 	1581546876	10.03	18.58
12/02/2020 22:34:38	120220	12022020	223437	235.36	12.233197	-57.055600	235.39	-0.090	0.230	1.700	235.30	-1.10	2.10	 	 	 	 	 	 	 	 	 	 	 	 	 	 	 	 	 	 	1581546877	10.19	18.87
12/02/2020 22:34:39	120220	12022020	223438	235.15	12.233173	-57.055640	235.23	-0.240	0.420	1.510	235.15	-0.90	1.90	 	 	 	 	 	 	 	 	 	 	 	 	 	 	 	 	 	 	1581546878	9.95	18.43
12/02/2020 22:34:40	120220	12022020	223439	235.23	12.233150	-57.055678	235.33	-0.380	0.710	1.170	235.27	-0.60	1.50	 	 	 	 	 	 	 	 	 	 	 	 	 	 	 	 	 	 	1581546879	9.52	17.63
12/02/2020 22:34:41	120220	12022020	223440	235.54	12.233127	-57.055717	235.68	-0.340	0.760	0.830	235.63	-0.60	1.20	 	 	 	 	 	 	 	 	 	 	 	 	 	 	 	 	 	 	1581546880	9.31	17.24
12/02/2020 22:34:42	120220	12022020	223441	236.00	12.233105	-57.055755	236.15	-0.020	0.320	0.550	236.09	-1.20	0.90	 	 	 	 	 	 	 	 	 	 	 	 	 	 	 	 	 	 	1581546881	9.47	17.54
12/02/2020 22:34:43	120220	12022020	223442	236.38	12.233082	-57.055795	236.48	0.440	-0.540	0.520	236.42	-2.00	1.00	 	 	 	 	 	 	 	 	 	 	 	 	 	 	 	 	 	 	1581546882	9.73	18.02
12/02/2020 22:34:44	120220	12022020	223443	236.48	12.233058	-57.055835	236.55	0.790	-1.470	0.760	236.47	-2.90	1.20	 	 	 	 	 	 	 	 	 	 	 	 	 	 	 	 	 	 	1581546883	9.82	18.19
12/02/2020 22:34:45	120220	12022020	223444	236.27	12.233037	-57.055875	236.30	0.790	-2.100	1.130	236.20	-3.50	1.60	 	 	 	 	 	 	 	 	 	 	 	 	 	 	 	 	 	 	1581546884	9.74	18.04
12/02/2020 22:34:46	120220	12022020	223445	235.83	12.233015	-57.055913	235.84	0.460	-2.200	1.490	235.74	-3.50	1.90	 	 	 	 	 	 	 	 	 	 	 	 	 	 	 	 	 	 	1581546885	9.61	17.80
12/02/2020 22:34:47	120220	12022020	223446	235.36	12.232993	-57.055953	235.40	0.020	-1.770	1.790	235.29	-3.00	2.20	 	 	 	 	 	 	 	 	 	 	 	 	 	 	 	 	 	 	1581546886	9.60	17.78
12/02/2020 22:34:48	120220	12022020	223447	235.11	12.232972	-57.055993	235.21	-0.340	-0.850	1.960	235.10	-2.10	2.40	 	 	 	 	 	 	 	 	 	 	 	 	 	 	 	 	 	 	1581546887	9.61	17.80
12/02/2020 22:34:49	120220	12022020	223448	235.19	12.232950	-57.056033	235.35	-0.570	0.290	1.910	235.25	-0.90	2.30	 	 	 	 	 	 	 	 	 	 	 	 	 	 	 	 	 	 	1581546888	9.55	17.69
12/02/2020 22:34:50	120220	12022020	223449	235.52	12.232928	-57.056073	235.71	-0.690	1.190	1.760	235.60	-0.10	2.10	 	 	 	 	 	 	 	 	 	 	 	 	 	 	 	 	 	 	1581546889	9.68	17.93
12/02/2020 22:34:51	120220	12022020	223450	235.97	12.232905	-57.056113	236.16	-0.710	1.550	1.480	236.07	0.20	1.80	 	 	 	 	 	 	 	 	 	 	 	 	 	 	 	 	 	 	1581546890	9.93	18.39
12/02/2020 22:34:52	120220	12022020	223451	236.44	12.232882	-57.056155	236.61	-0.540	1.380	1.030	236.53	-0.10	1.40	 	 	 	 	 	 	 	 	 	 	 	 	 	 	 	 	 	 	1581546891	10.09	18.69
12/02/2020 22:34:53	120220	12022020	223452	236.83	12.232855	-57.056193	236.97	-0.170	0.930	0.440	236.89	-0.50	0.80	 	 	 	 	 	 	 	 	 	 	 	 	 	 	 	 	 	 	1581546892	9.96	18.45
12/02/2020 22:34:54	120220	12022020	223453	237.03	12.232828	-57.056230	237.11	0.280	0.370	-0.050	237.03	-1.10	0.30	 	 	 	 	 	 	 	 	 	 	 	 	 	 	 	 	 	 	1581546893	9.66	17.89
12/02/2020 22:34:55	120220	12022020	223454	236.95	12.232803	-57.056267	236.99	0.640	-0.360	-0.080	236.92	-1.90	0.40	 	 	 	 	 	 	 	 	 	 	 	 	 	 	 	 	 	 	1581546894	9.43	17.46
12/02/2020 22:34:56	120220	12022020	223455	236.65	12.232780	-57.056305	236.67	0.810	-1.190	0.470	236.58	-2.70	1.00	 	 	 	 	 	 	 	 	 	 	 	 	 	 	 	 	 	 	1581546895	9.47	17.54
12/02/2020 22:34:57	120220	12022020	223456	236.23	12.232762	-57.056347	236.26	0.750	-1.860	1.340	236.15	-3.30	1.90	 	 	 	 	 	 	 	 	 	 	 	 	 	 	 	 	 	 	1581546896	9.56	17.71
12/02/2020 22:34:58	120220	12022020	223457	235.82	12.232743	-57.056387	235.90	0.510	-2.060	1.970	235.75	-3.40	2.40	 	 	 	 	 	 	 	 	 	 	 	 	 	 	 	 	 	 	1581546897	9.51	17.61
12/02/2020 22:34:59	120220	12022020	223458	235.53	12.232725	-57.056427	235.63	0.160	-1.750	2.180	235.48	-3.00	2.60	 	 	 	 	 	 	 	 	 	 	 	 	 	 	 	 	 	 	1581546898	9.32	17.26
12/02/2020 22:35:00	120220	12022020	223459	235.32	12.232703	-57.056467	235.42	-0.190	-1.180	2.060	235.30	-2.50	2.40	 	 	 	 	 	 	 	 	 	 	 	 	 	 	 	 	 	 	1581546899	9.38	17.37
12/02/2020 22:35:01	120220	12022020	223500	235.24	12.232682	-57.056505	235.34	-0.420	-0.500	1.780	235.23	-1.80	2.20	 	 	 	 	 	 	 	 	 	 	 	 	 	 	 	 	 	 	1581546900	9.62	17.82
12/02/2020 22:35:02	120220	12022020	223501	235.26	12.232658	-57.056545	235.38	-0.520	0.190	1.440	235.28	-1.10	1.80	1015.10	30.60	32.80	21.10	22.20	-2.0	57.0	54.0	387.0	26.1	192.00	6.10	62.00	11.00	18	11695.0	27.5	27.5	1581546901	9.80	18.15
12/02/2020 22:35:03	120220	12022020	223502	235.43	12.232633	-57.056585	235.56	-0.530	0.720	1.000	235.48	-0.60	1.40	 	 	 	 	 	 	 	 	 	 	 	 	 	 	 	 	 	 	1581546902	9.90	18.33
12/02/2020 22:35:04	120220	12022020	223503	235.69	12.232608	-57.056625	235.81	-0.490	1.020	0.710	235.75	-0.30	1.10	 	 	 	 	 	 	 	 	 	 	 	 	 	 	 	 	 	 	1581546903	9.97	18.46
12/02/2020 22:35:05	120220	12022020	223504	236.01	12.232583	-57.056663	236.15	-0.420	1.150	0.590	236.08	-0.20	1.00	 	 	 	 	 	 	 	 	 	 	 	 	 	 	 	 	 	 	1581546904	9.82	18.19
12/02/2020 22:35:06	120220	12022020	223505	236.33	12.232558	-57.056700	236.44	-0.260	0.980	0.650	236.33	-0.50	1.10	 	 	 	 	 	 	 	 	 	 	 	 	 	 	 	 	 	 	1581546905	9.59	17.76
12/02/2020 22:35:07	120220	12022020	223506	236.48	12.232535	-57.056740	236.55	0.030	0.320	0.870	236.48	-1.20	1.30	 	 	 	 	 	 	 	 	 	 	 	 	 	 	 	 	 	 	1581546906	9.63	17.83
12/02/2020 22:35:08	120220	12022020	223507	236.37	12.232512	-57.056780	236.41	0.370	-0.630	1.220	236.33	-2.10	1.70	 	 	 	 	 	 	 	 	 	 	 	 	 	 	 	 	 	 	1581546907	9.82	18.19
12/02/2020 22:35:09	120220	12022020	223508	236.17	12.232490	-57.056818	236.23	0.580	-1.250	1.430	236.15	-2.70	1.80	 	 	 	 	 	 	 	 	 	 	 	 	 	 	 	 	 	 	1581546908	9.63	17.83
12/02/2020 22:35:10	120220	12022020	223509	236.08	12.232468	-57.056857	236.17	0.580	-1.240	1.350	236.08	-2.60	1.70	 	 	 	 	 	 	 	 	 	 	 	 	 	 	 	 	 	 	1581546909	8.99	16.65
12/02/2020 22:35:11	120220	12022020	223510	235.99	12.232448	-57.056892	236.05	0.490	-1.090	1.200	235.94	-2.50	1.60	 	 	 	 	 	 	 	 	 	 	 	 	 	 	 	 	 	 	1581546910	8.77	16.24
12/02/2020 22:35:12	120220	12022020	223511	235.63	12.232425	-57.056930	235.63	0.430	-1.290	1.390	235.52	-2.70	1.90	 	 	 	 	 	 	 	 	 	 	 	 	 	 	 	 	 	 	1581546911	9.41	17.43
12/02/2020 22:35:13	120220	12022020	223512	235.02	12.232403	-57.056972	234.99	0.350	-1.500	1.920	234.87	-2.90	2.40	 	 	 	 	 	 	 	 	 	 	 	 	 	 	 	 	 	 	1581546912	10.08	18.67
12/02/2020 22:35:14	120220	12022020	223513	234.39	12.232382	-57.057015	234.41	0.140	-1.140	2.400	234.31	-2.40	2.80	 	 	 	 	 	 	 	 	 	 	 	 	 	 	 	 	 	 	1581546913	10.12	18.74
12/02/2020 22:35:15	120220	12022020	223514	234.19	12.232362	-57.057055	234.32	-0.240	-0.150	2.400	234.22	-1.40	2.80	 	 	 	 	 	 	 	 	 	 	 	 	 	 	 	 	 	 	1581546914	9.60	17.78
12/02/2020 22:35:16	120220	12022020	223515	234.64	12.232342	-57.057093	234.88	-0.640	0.870	1.840	234.80	-0.40	2.10	 	 	 	 	 	 	 	 	 	 	 	 	 	 	 	 	 	 	1581546915	9.24	17.11
12/02/2020 22:35:17	120220	12022020	223516	235.59	12.232318	-57.057130	235.86	-0.830	1.290	0.900	235.81	-0.10	1.20	 	 	 	 	 	 	 	 	 	 	 	 	 	 	 	 	 	 	1581546916	9.42	17.45
12/02/2020 22:35:18	120220	12022020	223517	236.67	12.232290	-57.057168	236.91	-0.680	1.070	0.040	236.67	-0.40	0.40	 	 	 	 	 	 	 	 	 	 	 	 	 	 	 	 	 	 	1581546917	9.84	18.22
12/02/2020 22:35:19	120220	12022020	223518	237.48	12.232263	-57.057207	237.62	-0.310	0.470	-0.280	237.58	-1.00	0.10	 	 	 	 	 	 	 	 	 	 	 	 	 	 	 	 	 	 	1581546918	10.00	18.52
12/02/2020 22:35:20	120220	12022020	223519	237.76	12.232237	-57.057245	237.83	0.100	-0.160	-0.060	237.78	-1.60	0.40	 	 	 	 	 	 	 	 	 	 	 	 	 	 	 	 	 	 	1581546919	9.82	18.19
12/02/2020 22:35:21	120220	12022020	223520	237.60	12.232215	-57.057283	237.57	0.440	-0.560	0.540	237.51	-2.00	1.10	 	 	 	 	 	 	 	 	 	 	 	 	 	 	 	 	 	 	1581546920	9.42	17.45
12/02/2020 22:35:22	120220	12022020	223521	237.03	12.232193	-57.057320	236.96	0.660	-0.820	1.310	236.89	-2.20	1.80	 	 	 	 	 	 	 	 	 	 	 	 	 	 	 	 	 	 	1581546921	9.15	16.95
12/02/2020 22:35:23	120220	12022020	223522	236.29	12.232173	-57.057358	236.23	0.700	-1.210	1.960	236.14	-2.60	2.40	 	 	 	 	 	 	 	 	 	 	 	 	 	 	 	 	 	 	1581546922	9.33	17.28
12/02/2020 22:35:24	120220	12022020	223523	235.56	12.232152	-57.057400	235.53	0.540	-1.610	2.370	235.42	-3.00	2.80	 	 	 	 	 	 	 	 	 	 	 	 	 	 	 	 	 	 	1581546923	9.75	18.06
12/02/2020 22:35:25	120220	12022020	223524	234.88	12.232132	-57.057442	234.87	0.220	-1.540	2.570	234.76	-2.80	3.00	 	 	 	 	 	 	 	 	 	 	 	 	 	 	 	 	 	 	1581546924	9.84	18.22
12/02/2020 22:35:26	120220	12022020	223525	234.44	12.232112	-57.057482	234.51	-0.190	-0.740	2.430	234.41	-2.00	2.80	 	 	 	 	 	 	 	 	 	 	 	 	 	 	 	 	 	 	1581546925	9.42	17.45
12/02/2020 22:35:27	120220	12022020	223526	234.44	12.232093	-57.057520	234.55	-0.520	0.260	1.850	234.49	-1.00	2.20	 	 	 	 	 	 	 	 	 	 	 	 	 	 	 	 	 	 	1581546926	9.04	16.74
12/02/2020 22:35:28	120220	12022020	223527	234.79	12.232072	-57.057557	234.93	-0.550	0.880	0.990	234.89	-0.50	1.30	 	 	 	 	 	 	 	 	 	 	 	 	 	 	 	 	 	 	1581546927	9.17	16.98
12/02/2020 22:35:29	120220	12022020	223528	235.41	12.232045	-57.057593	235.57	-0.310	0.900	0.120	235.55	-0.50	0.40	 	 	 	 	 	 	 	 	 	 	 	 	 	 	 	 	 	 	1581546928	9.59	17.76
12/02/2020 22:35:30	120220	12022020	223529	236.15	12.232017	-57.057632	236.32	-0.010	0.440	-0.380	236.29	-1.00	0.00	 	 	 	 	 	 	 	 	 	 	 	 	 	 	 	 	 	 	1581546929	9.92	18.37
12/02/2020 22:35:31	120220	12022020	223530	236.76	12.231992	-57.057670	236.88	0.150	-0.210	-0.210	236.84	-1.70	0.30	 	 	 	 	 	 	 	 	 	 	 	 	 	 	 	 	 	 	1581546930	9.92	18.37
12/02/2020 22:35:32	120220	12022020	223531	237.04	12.231968	-57.057710	237.12	0.150	-0.760	0.500	237.05	-2.20	1.00	 	 	 	 	 	 	 	 	 	 	 	 	 	 	 	 	 	 	1581546931	9.76	18.08
12/02/2020 22:35:33	120220	12022020	223532	236.95	12.231948	-57.057748	236.99	0.110	-0.940	1.380	236.90	-2.30	1.90	 	 	 	 	 	 	 	 	 	 	 	 	 	 	 	 	 	 	1581546932	9.49	17.58
12/02/2020 22:35:34	120220	12022020	223533	236.63	12.231928	-57.057788	236.66	0.110	-0.750	2.050	236.56	-2.10	2.50	 	 	 	 	 	 	 	 	 	 	 	 	 	 	 	 	 	 	1581546933	9.16	16.96
12/02/2020 22:35:35	120220	12022020	223534	236.21	12.231908	-57.057825	236.24	0.120	-0.550	2.380	236.12	-1.90	2.80	 	 	 	 	 	 	 	 	 	 	 	 	 	 	 	 	 	 	1581546934	9.13	16.91
12/02/2020 22:35:36	120220	12022020	223535	235.76	12.231887	-57.057863	235.78	0.080	-0.530	2.330	235.67	-1.90	2.70	 	 	 	 	 	 	 	 	 	 	 	 	 	 	 	 	 	 	1581546935	9.41	17.43
12/02/2020 22:35:37	120220	12022020	223536	235.39	12.231862	-57.057902	235.44	-0.020	-0.550	1.860	235.33	-1.90	2.20	 	 	 	 	 	 	 	 	 	 	 	 	 	 	 	 	 	 	1581546936	9.60	17.78
12/02/2020 22:35:38	120220	12022020	223537	235.19	12.231837	-57.057940	235.25	-0.100	-0.440	1.260	235.16	-1.80	1.60	 	 	 	 	 	 	 	 	 	 	 	 	 	 	 	 	 	 	1581546937	9.56	17.71
12/02/2020 22:35:39	120220	12022020	223538	235.14	12.231812	-57.057977	235.20	-0.110	-0.240	0.800	235.15	-1.60	1.20	 	 	 	 	 	 	 	 	 	 	 	 	 	 	 	 	 	 	1581546938	9.48	17.56
12/02/2020 22:35:40	120220	12022020	223539	235.22	12.231788	-57.058015	235.28	-0.070	-0.090	0.710	235.25	-1.50	1.10	 	 	 	 	 	 	 	 	 	 	 	 	 	 	 	 	 	 	1581546939	9.52	17.63
12/02/2020 22:35:41	120220	12022020	223540	235.43	12.231767	-57.058055	235.52	-0.030	0.010	0.910	235.48	-1.40	1.40	 	 	 	 	 	 	 	 	 	 	 	 	 	 	 	 	 	 	1581546940	9.60	17.78
12/02/2020 22:35:42	120220	12022020	223541	235.76	12.231747	-57.058095	235.90	0.010	0.130	1.140	235.85	-1.20	1.60	 	 	 	 	 	 	 	 	 	 	 	 	 	 	 	 	 	 	1581546941	9.54	17.67
12/02/2020 22:35:43	120220	12022020	223542	236.19	12.231727	-57.058133	236.33	0.070	0.260	1.180	236.28	-1.10	1.60	 	 	 	 	 	 	 	 	 	 	 	 	 	 	 	 	 	 	1581546942	9.34	17.30
12/02/2020 22:35:44	120220	12022020	223543	236.55	12.231703	-57.058172	236.78	0.120	0.230	0.900	236.63	-1.20	1.30	 	 	 	 	 	 	 	 	 	 	 	 	 	 	 	 	 	 	1581546943	9.24	17.11
12/02/2020 22:35:45	120220	12022020	223544	237.01	12.231680	-57.058208	237.10	0.110	-0.000	0.540	237.06	-1.50	0.90	 	 	 	 	 	 	 	 	 	 	 	 	 	 	 	 	 	 	1581546944	9.34	17.30
12/02/2020 22:35:46	120220	12022020	223545	237.17	12.231655	-57.058245	237.22	0.060	-0.440	0.190	237.16	-1.90	0.60	 	 	 	 	 	 	 	 	 	 	 	 	 	 	 	 	 	 	1581546945	9.46	17.52
12/02/2020 22:35:47	120220	12022020	223546	237.09	12.231630	-57.058282	237.12	0.050	-0.840	0.070	237.06	-2.30	0.50	 	 	 	 	 	 	 	 	 	 	 	 	 	 	 	 	 	 	1581546946	9.53	17.65
12/02/2020 22:35:48	120220	12022020	223547	236.97	12.231607	-57.058320	237.00	0.090	-1.100	0.090	236.95	-2.50	0.50	 	 	 	 	 	 	 	 	 	 	 	 	 	 	 	 	 	 	1581546947	9.49	17.58
12/02/2020 22:35:49	120220	12022020	223548	236.86	12.231583	-57.058357	236.89	0.160	-1.100	0.280	236.83	-2.50	0.70	 	 	 	 	 	 	 	 	 	 	 	 	 	 	 	 	 	 	1581546948	9.40	17.41
12/02/2020 22:35:50	120220	12022020	223549	236.60	12.231560	-57.058395	236.59	0.170	-0.990	0.780	236.51	-2.40	1.30	 	 	 	 	 	 	 	 	 	 	 	 	 	 	 	 	 	 	1581546949	9.41	17.43
12/02/2020 22:35:51	120220	12022020	223550	236.10	12.231540	-57.058435	236.10	0.030	-0.900	1.540	235.99	-2.30	2.00	 	 	 	 	 	 	 	 	 	 	 	 	 	 	 	 	 	 	1581546950	9.71	17.98
12/02/2020 22:35:52	120220	12022020	223551	235.59	12.231520	-57.058478	235.60	-0.260	-0.690	2.200	235.50	-2.00	2.70	 	 	 	 	 	 	 	 	 	 	 	 	 	 	 	 	 	 	1581546951	9.99	18.50
12/02/2020 22:35:53	120220	12022020	223552	235.25	12.231502	-57.058522	235.31	-0.580	-0.150	2.430	235.22	-1.40	2.80	 	 	 	 	 	 	 	 	 	 	 	 	 	 	 	 	 	 	1581546952	9.87	18.28
12/02/2020 22:35:54	120220	12022020	223553	235.32	12.231482	-57.058562	235.47	-0.700	0.610	2.040	235.39	-0.70	2.30	 	 	 	 	 	 	 	 	 	 	 	 	 	 	 	 	 	 	1581546953	9.47	17.54
12/02/2020 22:35:55	120220	12022020	223554	235.82	12.231460	-57.058598	236.01	-0.520	1.190	1.200	235.95	-0.20	1.50	 	 	 	 	 	 	 	 	 	 	 	 	 	 	 	 	 	 	1581546954	9.19	17.02
12/02/2020 22:35:56	120220	12022020	223555	236.40	12.231433	-57.058635	236.54	-0.120	1.130	0.490	236.40	-0.30	0.80	 	 	 	 	 	 	 	 	 	 	 	 	 	 	 	 	 	 	1581546955	9.44	17.48
12/02/2020 22:35:57	120220	12022020	223556	236.76	12.231407	-57.058673	236.84	0.270	0.450	0.270	236.80	-1.10	0.70	 	 	 	 	 	 	 	 	 	 	 	 	 	 	 	 	 	 	1581546956	9.83	18.21
12/02/2020 22:35:58	120220	12022020	223557	236.90	12.231382	-57.058712	236.97	0.440	-0.400	0.400	236.92	-1.90	0.80	 	 	 	 	 	 	 	 	 	 	 	 	 	 	 	 	 	 	1581546957	9.91	18.35
12/02/2020 22:35:59	120220	12022020	223558	236.94	12.231360	-57.058752	236.98	0.410	-0.970	0.710	236.93	-2.40	1.20	 	 	 	 	 	 	 	 	 	 	 	 	 	 	 	 	 	 	1581546958	9.57	17.72
12/02/2020 22:36:00	120220	12022020	223559	236.84	12.231340	-57.058790	236.85	0.320	-1.230	0.990	236.81	-2.60	1.40	 	 	 	 	 	 	 	 	 	 	 	 	 	 	 	 	 	 	1581546959	9.22	17.08
12/02/2020 22:36:01	120220	12022020	223600	236.65	12.231318	-57.058827	236.67	0.270	-1.290	1.080	236.61	-2.70	1.50	 	 	 	 	 	 	 	 	 	 	 	 	 	 	 	 	 	 	1581546960	9.14	16.93
12/02/2020 22:36:02	120220	12022020	223601	236.50	12.231295	-57.058863	236.54	0.180	-1.180	1.070	236.48	-2.50	1.50	1015.10	28.50	34.50	21.10	22.60	-2.0	64.0	50.0	387.0	26.1	192.00	6.20	63.00	11.10	18	11701.0	27.5	27.5	1581546961	9.22	17.08
12/02/2020 22:36:03	120220	12022020	223602	236.40	12.231273	-57.058902	236.46	0.050	-0.910	1.070	236.38	-2.30	1.50	 	 	 	 	 	 	 	 	 	 	 	 	 	 	 	 	 	 	1581546962	9.33	17.28
12/02/2020 22:36:04	120220	12022020	223603	236.32	12.231252	-57.058942	236.39	-0.110	-0.560	1.160	236.31	-1.90	1.60	 	 	 	 	 	 	 	 	 	 	 	 	 	 	 	 	 	 	1581546963	9.48	17.56
12/02/2020 22:36:05	120220	12022020	223604	236.25	12.231230	-57.058982	236.32	-0.250	-0.230	1.230	236.24	-1.60	1.60	 	 	 	 	 	 	 	 	 	 	 	 	 	 	 	 	 	 	1581546964	9.66	17.89
12/02/2020 22:36:06	120220	12022020	223605	236.20	12.231208	-57.059022	236.26	-0.320	0.020	1.210	236.18	-1.30	1.60	 	 	 	 	 	 	 	 	 	 	 	 	 	 	 	 	 	 	1581546965	9.77	18.09
12/02/2020 22:36:07	120220	12022020	223606	236.14	12.231185	-57.059062	236.20	-0.310	0.230	1.120	236.13	-1.20	1.50	 	 	 	 	 	 	 	 	 	 	 	 	 	 	 	 	 	 	1581546966	9.80	18.15
12/02/2020 22:36:08	120220	12022020	223607	236.11	12.231160	-57.059100	236.18	-0.250	0.230	1.090	236.10	-1.20	1.50	 	 	 	 	 	 	 	 	 	 	 	 	 	 	 	 	 	 	1581546967	9.85	18.24
12/02/2020 22:36:09	120220	12022020	223608	236.03	12.231137	-57.059142	236.08	-0.190	0.090	1.170	236.00	-1.30	1.60	 	 	 	 	 	 	 	 	 	 	 	 	 	 	 	 	 	 	1581546968	9.94	18.41
12/02/2020 22:36:10	120220	12022020	223609	235.97	12.231113	-57.059180	236.04	-0.170	0.110	1.160	235.97	-1.30	1.50	 	 	 	 	 	 	 	 	 	 	 	 	 	 	 	 	 	 	1581546969	9.71	17.98
12/02/2020 22:36:11	120220	12022020	223610	236.07	12.231092	-57.059218	236.16	-0.150	0.320	0.960	236.10	-1.10	1.30	 	 	 	 	 	 	 	 	 	 	 	 	 	 	 	 	 	 	1581546970	9.26	17.15
12/02/2020 22:36:12	120220	12022020	223611	236.34	12.231070	-57.059255	236.48	-0.080	0.460	0.590	236.42	-0.90	0.90	 	 	 	 	 	 	 	 	 	 	 	 	 	 	 	 	 	 	1581546971	8.98	16.63
12/02/2020 22:36:13	120220	12022020	223612	236.78	12.231047	-57.059290	236.93	0.060	0.220	0.220	236.87	-1.30	0.60	 	 	 	 	 	 	 	 	 	 	 	 	 	 	 	 	 	 	1581546972	9.05	16.76
12/02/2020 22:36:14	120220	12022020	223613	237.17	12.231025	-57.059328	237.27	0.300	-0.490	0.040	237.22	-2.00	0.40	 	 	 	 	 	 	 	 	 	 	 	 	 	 	 	 	 	 	1581546973	9.39	17.39
12/02/2020 22:36:15	120220	12022020	223614	237.30	12.231000	-57.059368	237.34	0.610	-1.430	0.140	237.28	-2.90	0.60	 	 	 	 	 	 	 	 	 	 	 	 	 	 	 	 	 	 	1581546974	9.82	18.19
12/02/2020 22:36:16	120220	12022020	223615	237.16	12.230977	-57.059408	237.19	0.750	-2.010	0.420	237.11	-3.50	0.90	 	 	 	 	 	 	 	 	 	 	 	 	 	 	 	 	 	 	1581546975	9.94	18.41
12/02/2020 22:36:17	120220	12022020	223616	236.84	12.230953	-57.059447	236.83	0.540	-1.880	0.890	236.77	-3.20	1.30	 	 	 	 	 	 	 	 	 	 	 	 	 	 	 	 	 	 	1581546976	9.60	17.78
12/02/2020 22:36:18	120220	12022020	223617	236.48	12.230932	-57.059485	236.47	0.010	-1.090	1.270	236.40	-2.30	1.70	 	 	 	 	 	 	 	 	 	 	 	 	 	 	 	 	 	 	1581546977	9.27	17.17
12/02/2020 22:36:19	120220	12022020	223618	236.11	12.230910	-57.059523	236.15	-0.570	-0.150	1.650	236.05	-1.40	2.10	 	 	 	 	 	 	 	 	 	 	 	 	 	 	 	 	 	 	1581546978	9.26	17.15
12/02/2020 22:36:20	120220	12022020	223619	235.82	12.230890	-57.059563	235.86	-0.930	0.550	2.000	235.77	-0.80	2.40	 	 	 	 	 	 	 	 	 	 	 	 	 	 	 	 	 	 	1581546979	9.59	17.76
12/02/2020 22:36:21	120220	12022020	223620	235.61	12.230868	-57.059605	235.66	-0.940	0.830	2.120	235.58	-0.60	2.50	 	 	 	 	 	 	 	 	 	 	 	 	 	 	 	 	 	 	1581546980	9.96	18.45
12/02/2020 22:36:22	120220	12022020	223621	235.52	12.230847	-57.059648	235.59	-0.630	0.820	1.870	235.52	-0.60	2.20	 	 	 	 	 	 	 	 	 	 	 	 	 	 	 	 	 	 	1581546981	10.09	18.69
12/02/2020 22:36:23	120220	12022020	223622	235.65	12.230825	-57.059688	235.75	-0.170	0.690	1.260	235.70	-0.70	1.60	 	 	 	 	 	 	 	 	 	 	 	 	 	 	 	 	 	 	1581546982	9.85	18.24
12/02/2020 22:36:24	120220	12022020	223623	236.01	12.230800	-57.059725	236.11	0.250	0.430	0.530	236.10	-1.10	0.70	 	 	 	 	 	 	 	 	 	 	 	 	 	 	 	 	 	 	1581546983	9.58	17.74
12/02/2020 22:36:25	120220	12022020	223624	236.49	12.230775	-57.059762	236.63	0.610	-0.090	-0.230	236.59	-1.60	0.10	 	 	 	 	 	 	 	 	 	 	 	 	 	 	 	 	 	 	1581546984	9.47	17.54
12/02/2020 22:36:26	120220	12022020	223625	236.91	12.230748	-57.059798	236.99	0.680	-0.640	-0.460	236.97	-2.10	-0.00	 	 	 	 	 	 	 	 	 	 	 	 	 	 	 	 	 	 	1581546985	9.46	17.52
12/02/2020 22:36:27	120220	12022020	223626	237.12	12.230725	-57.059835	237.18	0.550	-1.040	-0.170	237.15	-2.50	0.40	 	 	 	 	 	 	 	 	 	 	 	 	 	 	 	 	 	 	1581546986	9.43	17.46
12/02/2020 22:36:28	120220	12022020	223627	237.21	12.230703	-57.059873	237.28	0.260	-1.160	0.430	237.21	-2.50	1.00	 	 	 	 	 	 	 	 	 	 	 	 	 	 	 	 	 	 	1581546987	9.30	17.22
12/02/2020 22:36:29	120220	12022020	223628	237.14	12.230683	-57.059912	237.19	-0.020	-0.940	1.030	237.10	-2.30	1.50	 	 	 	 	 	 	 	 	 	 	 	 	 	 	 	 	 	 	1581546988	9.15	16.95
12/02/2020 22:36:30	120220	12022020	223629	236.89	12.230663	-57.059950	236.93	-0.160	-0.670	1.430	236.82	-2.00	1.90	 	 	 	 	 	 	 	 	 	 	 	 	 	 	 	 	 	 	1581546989	9.23	17.09
12/02/2020 22:36:31	120220	12022020	223630	236.54	12.230642	-57.059990	236.58	-0.210	-0.600	1.580	236.48	-2.00	2.00	 	 	 	 	 	 	 	 	 	 	 	 	 	 	 	 	 	 	1581546990	9.61	17.80
12/02/2020 22:36:32	120220	12022020	223631	236.25	12.230618	-57.060030	236.32	-0.260	-0.550	1.450	236.21	-1.90	1.80	 	 	 	 	 	 	 	 	 	 	 	 	 	 	 	 	 	 	1581546991	9.78	18.11
12/02/2020 22:36:33	120220	12022020	223632	236.05	12.230595	-57.060070	236.12	-0.270	-0.490	1.230	236.02	-1.90	1.60	 	 	 	 	 	 	 	 	 	 	 	 	 	 	 	 	 	 	1581546992	9.80	18.15
12/02/2020 22:36:34	120220	12022020	223633	235.88	12.230572	-57.060110	235.95	-0.150	-0.400	1.090	235.85	-1.80	1.40	 	 	 	 	 	 	 	 	 	 	 	 	 	 	 	 	 	 	1581546993	9.83	18.21
12/02/2020 22:36:35	120220	12022020	223634	235.78	12.230548	-57.060150	235.87	0.050	-0.210	1.010	235.78	-1.50	1.40	 	 	 	 	 	 	 	 	 	 	 	 	 	 	 	 	 	 	1581546994	9.78	18.11
12/02/2020 22:36:36	120220	12022020	223635	235.89	12.230525	-57.060188	236.01	0.160	0.100	0.960	235.95	-1.20	1.40	 	 	 	 	 	 	 	 	 	 	 	 	 	 	 	 	 	 	1581546995	9.64	17.85
12/02/2020 22:36:37	120220	12022020	223636	236.27	12.230502	-57.060227	236.41	0.080	0.410	0.970	236.36	-0.90	1.40	 	 	 	 	 	 	 	 	 	 	 	 	 	 	 	 	 	 	1581546996	9.50	17.59
12/02/2020 22:36:38	120220	12022020	223637	236.74	12.230478	-57.060265	236.88	-0.120	0.510	1.070	236.82	-0.90	1.50	 	 	 	 	 	 	 	 	 	 	 	 	 	 	 	 	 	 	1581546997	9.49	17.58
12/02/2020 22:36:39	120220	12022020	223638	237.04	12.230457	-57.060305	237.14	-0.260	0.360	1.310	237.06	-1.10	1.80	 	 	 	 	 	 	 	 	 	 	 	 	 	 	 	 	 	 	1581546998	9.59	17.76
12/02/2020 22:36:40	120220	12022020	223639	237.03	12.230437	-57.060345	237.11	-0.190	0.070	1.590	237.00	-1.40	2.00	 	 	 	 	 	 	 	 	 	 	 	 	 	 	 	 	 	 	1581546999	9.59	17.76
12/02/2020 22:36:41	120220	12022020	223640	236.78	12.230415	-57.060385	236.84	0.070	-0.320	1.710	236.72	-1.80	2.10	 	 	 	 	 	 	 	 	 	 	 	 	 	 	 	 	 	 	1581547000	9.56	17.71
12/02/2020 22:36:42	120220	12022020	223641	236.50	12.230393	-57.060423	236.57	0.370	-0.670	1.370	236.47	-2.10	1.60	 	 	 	 	 	 	 	 	 	 	 	 	 	 	 	 	 	 	1581547001	9.47	17.54
12/02/2020 22:36:43	120220	12022020	223642	236.45	12.230368	-57.060458	236.55	0.550	-0.790	0.580	236.47	-2.20	0.80	 	 	 	 	 	 	 	 	 	 	 	 	 	 	 	 	 	 	1581547002	9.26	17.15
12/02/2020 22:36:44	120220	12022020	223643	236.62	12.230342	-57.060493	236.73	0.570	-0.820	-0.260	236.66	-2.20	0.00	 	 	 	 	 	 	 	 	 	 	 	 	 	 	 	 	 	 	1581547003	9.17	16.98
12/02/2020 22:36:45	120220	12022020	223644	236.76	12.230315	-57.060528	236.83	0.470	-0.970	-0.540	236.77	-2.40	-0.10	 	 	 	 	 	 	 	 	 	 	 	 	 	 	 	 	 	 	1581547004	9.45	17.50
12/02/2020 22:36:46	120220	12022020	223645	236.72	12.230292	-57.060568	236.78	0.270	-1.210	-0.110	236.69	-2.60	0.40	 	 	 	 	 	 	 	 	 	 	 	 	 	 	 	 	 	 	1581547005	9.85	18.24
12/02/2020 22:36:47	120220	12022020	223646	236.56	12.230270	-57.060610	236.63	-0.030	-1.170	0.600	236.54	-2.50	1.10	 	 	 	 	 	 	 	 	 	 	 	 	 	 	 	 	 	 	1581547006	10.00	18.52
12/02/2020 22:36:48	120220	12022020	223647	236.50	12.230248	-57.060652	236.59	-0.420	-0.680	1.180	236.52	-1.90	1.70	 	 	 	 	 	 	 	 	 	 	 	 	 	 	 	 	 	 	1581547007	9.77	18.09
12/02/2020 22:36:49	120220	12022020	223648	236.64	12.230228	-57.060692	236.75	-0.770	0.020	1.460	236.68	-1.20	1.90	 	 	 	 	 	 	 	 	 	 	 	 	 	 	 	 	 	 	1581547008	9.56	17.71
12/02/2020 22:36:50	120220	12022020	223649	236.86	12.230208	-57.060732	236.95	-0.880	0.530	1.520	236.90	-0.80	1.90	 	 	 	 	 	 	 	 	 	 	 	 	 	 	 	 	 	 	1581547009	9.62	17.82
12/02/2020 22:36:51	120220	12022020	223650	237.02	12.230187	-57.060773	237.09	-0.670	0.710	1.450	237.04	-0.70	1.80	 	 	 	 	 	 	 	 	 	 	 	 	 	 	 	 	 	 	1581547010	9.80	18.15
12/02/2020 22:36:52	120220	12022020	223651	237.09	12.230165	-57.060813	237.13	-0.240	0.620	1.260	237.08	-0.80	1.60	 	 	 	 	 	 	 	 	 	 	 	 	 	 	 	 	 	 	1581547011	9.86	18.26
12/02/2020 22:36:53	120220	12022020	223652	237.01	12.230140	-57.060852	237.04	0.170	0.410	0.960	236.98	-1.00	1.20	 	 	 	 	 	 	 	 	 	 	 	 	 	 	 	 	 	 	1581547012	9.76	18.08
12/02/2020 22:36:54	120220	12022020	223653	236.88	12.230115	-57.060890	236.92	0.400	0.110	0.440	236.85	-1.40	0.70	 	 	 	 	 	 	 	 	 	 	 	 	 	 	 	 	 	 	1581547013	9.63	17.83
12/02/2020 22:36:55	120220	12022020	223654	236.82	12.230088	-57.060927	236.87	0.460	-0.220	-0.120	236.82	-1.70	0.20	 	 	 	 	 	 	 	 	 	 	 	 	 	 	 	 	 	 	1581547014	9.50	17.59
12/02/2020 22:36:56	120220	12022020	223655	236.89	12.230063	-57.060963	236.95	0.490	-0.500	-0.360	236.91	-2.00	0.10	 	 	 	 	 	 	 	 	 	 	 	 	 	 	 	 	 	 	1581547015	9.34	17.30
12/02/2020 22:36:57	120220	12022020	223656	236.96	12.230043	-57.061002	237.02	0.500	-0.790	-0.010	236.97	-2.20	0.50	 	 	 	 	 	 	 	 	 	 	 	 	 	 	 	 	 	 	1581547016	9.36	17.33
12/02/2020 22:36:58	120220	12022020	223657	236.95	12.230023	-57.061042	237.02	0.460	-1.050	0.630	236.95	-2.50	1.20	 	 	 	 	 	 	 	 	 	 	 	 	 	 	 	 	 	 	1581547017	9.50	17.59
12/02/2020 22:36:59	120220	12022020	223658	236.94	12.230005	-57.061083	237.02	0.340	-1.160	1.190	236.95	-2.50	1.70	 	 	 	 	 	 	 	 	 	 	 	 	 	 	 	 	 	 	1581547018	9.56	17.71
12/02/2020 22:37:00	120220	12022020	223659	236.96	12.229987	-57.061123	237.03	0.180	-1.030	1.540	236.96	-2.40	2.00	 	 	 	 	 	 	 	 	 	 	 	 	 	 	 	 	 	 	1581547019	9.50	17.59
12/02/2020 22:37:01	120220	12022020	223700	236.89	12.229965	-57.061163	236.94	-0.030	-0.730	1.730	236.87	-2.00	2.10	 	 	 	 	 	 	 	 	 	 	 	 	 	 	 	 	 	 	1581547020	9.47	17.54
12/02/2020 22:37:02	120220	12022020	223701	236.75	12.229942	-57.061202	236.80	-0.260	-0.430	1.660	236.71	-1.80	2.00	1015.10	29.80	34.80	21.90	22.00	-2.0	62.0	47.0	388.0	26.1	186.00	5.80	60.00	10.70	18	11043.0	27.5	27.5	1581547021	9.60	17.78
12/02/2020 22:37:03	120220	12022020	223702	236.53	12.229917	-57.061242	236.58	-0.440	-0.320	1.480	236.49	-1.70	1.80	 	 	 	 	 	 	 	 	 	 	 	 	 	 	 	 	 	 	1581547022	9.94	18.41
12/02/2020 22:37:04	120220	12022020	223703	236.42	12.229892	-57.061282	236.49	-0.530	-0.200	1.270	236.43	-1.50	1.60	 	 	 	 	 	 	 	 	 	 	 	 	 	 	 	 	 	 	1581547023	10.08	18.67
12/02/2020 22:37:05	120220	12022020	223704	236.55	12.229868	-57.061322	236.64	-0.520	0.130	1.090	236.60	-1.20	1.40	 	 	 	 	 	 	 	 	 	 	 	 	 	 	 	 	 	 	1581547024	9.81	18.17
12/02/2020 22:37:06	120220	12022020	223705	236.84	12.229847	-57.061360	236.92	-0.410	0.510	0.900	236.90	-0.80	1.20	 	 	 	 	 	 	 	 	 	 	 	 	 	 	 	 	 	 	1581547025	9.49	17.58
12/02/2020 22:37:07	120220	12022020	223706	237.07	12.229825	-57.061400	237.13	-0.170	0.570	0.780	237.09	-0.90	1.20	 	 	 	 	 	 	 	 	 	 	 	 	 	 	 	 	 	 	1581547026	9.52	17.63
12/02/2020 22:37:08	120220	12022020	223707	237.06	12.229802	-57.061440	237.12	0.150	0.220	0.940	237.03	-1.30	1.40	 	 	 	 	 	 	 	 	 	 	 	 	 	 	 	 	 	 	1581547027	9.83	18.21
12/02/2020 22:37:09	120220	12022020	223708	236.86	12.229780	-57.061480	236.91	0.400	-0.130	1.290	236.80	-1.60	1.80	 	 	 	 	 	 	 	 	 	 	 	 	 	 	 	 	 	 	1581547028	9.81	18.17
12/02/2020 22:37:10	120220	12022020	223709	236.58	12.229758	-57.061520	236.63	0.430	-0.270	1.510	236.53	-1.70	1.90	 	 	 	 	 	 	 	 	 	 	 	 	 	 	 	 	 	 	1581547029	9.44	17.48
12/02/2020 22:37:11	120220	12022020	223710	236.32	12.229738	-57.061558	236.36	0.340	-0.380	1.450	236.28	-1.80	1.80	 	 	 	 	 	 	 	 	 	 	 	 	 	 	 	 	 	 	1581547030	9.28	17.19
12/02/2020 22:37:12	120220	12022020	223711	236.15	12.229715	-57.061597	236.21	0.280	-0.580	1.200	236.14	-2.00	1.50	 	 	 	 	 	 	 	 	 	 	 	 	 	 	 	 	 	 	1581547031	9.39	17.39
12/02/2020 22:37:13	120220	12022020	223712	236.21	12.229692	-57.061633	236.28	0.300	-0.720	0.730	236.25	-2.10	1.00	 	 	 	 	 	 	 	 	 	 	 	 	 	 	 	 	 	 	1581547032	9.40	17.41
12/02/2020 22:37:14	120220	12022020	223713	236.49	12.229667	-57.061670	236.58	0.320	-0.800	0.180	236.56	-2.20	0.50	 	 	 	 	 	 	 	 	 	 	 	 	 	 	 	 	 	 	1581547033	9.39	17.39
12/02/2020 22:37:15	120220	12022020	223714	236.92	12.229642	-57.061707	237.02	0.230	-0.940	-0.130	237.00	-2.40	0.30	 	 	 	 	 	 	 	 	 	 	 	 	 	 	 	 	 	 	1581547034	9.56	17.71
12/02/2020 22:37:16	120220	12022020	223715	237.32	12.229618	-57.061747	237.42	-0.010	-1.090	0.040	237.37	-2.50	0.50	 	 	 	 	 	 	 	 	 	 	 	 	 	 	 	 	 	 	1581547035	9.81	18.17
12/02/2020 22:37:17	120220	12022020	223716	237.42	12.229597	-57.061788	237.49	-0.340	-1.110	0.680	237.40	-2.50	1.30	 	 	 	 	 	 	 	 	 	 	 	 	 	 	 	 	 	 	1581547036	10.00	18.52
12/02/2020 22:37:18	120220	12022020	223717	237.19	12.229578	-57.061832	237.21	-0.630	-0.830	1.520	237.11	-2.10	2.10	 	 	 	 	 	 	 	 	 	 	 	 	 	 	 	 	 	 	1581547037	10.03	18.58
12/02/2020 22:37:19	120220	12022020	223718	236.76	12.229558	-57.061875	236.78	-0.750	-0.260	2.140	236.67	-1.50	2.60	 	 	 	 	 	 	 	 	 	 	 	 	 	 	 	 	 	 	1581547038	9.89	18.32
12/02/2020 22:37:20	120220	12022020	223719	236.39	12.229538	-57.061915	236.43	-0.630	0.320	2.200	236.33	-1.00	2.50	 	 	 	 	 	 	 	 	 	 	 	 	 	 	 	 	 	 	1581547039	9.75	18.06
12/02/2020 22:37:21	120220	12022020	223720	236.15	12.229515	-57.061955	236.19	-0.330	0.740	1.840	236.11	-0.60	2.10	 	 	 	 	 	 	 	 	 	 	 	 	 	 	 	 	 	 	1581547040	9.71	17.98
12/02/2020 22:37:22	120220	12022020	223721	235.97	12.229490	-57.061993	236.00	0.030	0.840	1.350	235.94	-0.60	1.60	 	 	 	 	 	 	 	 	 	 	 	 	 	 	 	 	 	 	1581547041	9.76	18.08
12/02/2020 22:37:23	120220	12022020	223722	235.91	12.229463	-57.062032	235.95	0.290	0.650	0.860	235.93	-0.80	1.10	 	 	 	 	 	 	 	 	 	 	 	 	 	 	 	 	 	 	1581547042	9.83	18.21
12/02/2020 22:37:24	120220	12022020	223723	236.12	12.229438	-57.062068	236.19	0.380	0.460	0.400	236.20	-1.00	0.70	 	 	 	 	 	 	 	 	 	 	 	 	 	 	 	 	 	 	1581547043	9.55	17.69
12/02/2020 22:37:25	120220	12022020	223724	236.59	12.229415	-57.062105	236.68	0.360	0.230	0.150	236.70	-1.30	0.50	 	 	 	 	 	 	 	 	 	 	 	 	 	 	 	 	 	 	1581547044	9.22	17.08
12/02/2020 22:37:26	120220	12022020	223725	237.14	12.229393	-57.062143	237.22	0.390	-0.340	0.230	237.22	-1.90	0.70	 	 	 	 	 	 	 	 	 	 	 	 	 	 	 	 	 	 	1581547045	9.29	17.21
12/02/2020 22:37:27	120220	12022020	223726	237.44	12.229373	-57.062185	237.48	0.530	-1.210	0.650	237.45	-2.80	1.20	 	 	 	 	 	 	 	 	 	 	 	 	 	 	 	 	 	 	1581547046	9.71	17.98
12/02/2020 22:37:28	120220	12022020	223727	237.38	12.229353	-57.062227	237.40	0.660	-1.880	1.210	237.34	-3.30	1.70	 	 	 	 	 	 	 	 	 	 	 	 	 	 	 	 	 	 	1581547047	9.84	18.22
12/02/2020 22:37:29	120220	12022020	223728	237.16	12.229332	-57.062267	237.22	0.550	-1.930	1.640	237.12	-3.20	2.10	 	 	 	 	 	 	 	 	 	 	 	 	 	 	 	 	 	 	1581547048	9.58	17.74
12/02/2020 22:37:30	120220	12022020	223729	236.98	12.229310	-57.062305	237.04	0.150	-1.500	1.780	236.95	-2.80	2.20	 	 	 	 	 	 	 	 	 	 	 	 	 	 	 	 	 	 	1581547049	9.38	17.37
12/02/2020 22:37:31	120220	12022020	223730	236.84	12.229287	-57.062343	236.90	-0.370	-0.940	1.710	236.82	-2.20	2.10	 	 	 	 	 	 	 	 	 	 	 	 	 	 	 	 	 	 	1581547050	9.58	17.74
12/02/2020 22:37:32	120220	12022020	223731	236.67	12.229263	-57.062383	236.73	-0.770	-0.470	1.480	236.64	-1.80	1.80	 	 	 	 	 	 	 	 	 	 	 	 	 	 	 	 	 	 	1581547051	9.94	18.41
12/02/2020 22:37:33	120220	12022020	223732	236.54	12.229238	-57.062425	236.59	-0.930	-0.060	1.140	236.53	-1.30	1.40	 	 	 	 	 	 	 	 	 	 	 	 	 	 	 	 	 	 	1581547052	10.22	18.93
12/02/2020 22:37:34	120220	12022020	223733	236.56	12.229213	-57.062465	236.62	-0.870	0.480	0.700	236.60	-0.80	1.00	 	 	 	 	 	 	 	 	 	 	 	 	 	 	 	 	 	 	1581547053	10.13	18.76
12/02/2020 22:37:35	120220	12022020	223734	236.83	12.229190	-57.062505	236.91	-0.700	1.130	0.290	236.90	-0.10	0.60	 	 	 	 	 	 	 	 	 	 	 	 	 	 	 	 	 	 	1581547054	9.72	18.00
12/02/2020 22:37:36	120220	12022020	223735	237.15	12.229167	-57.062543	237.21	-0.440	1.440	0.100	237.15	0.00	0.50	 	 	 	 	 	 	 	 	 	 	 	 	 	 	 	 	 	 	1581547055	9.56	17.71
12/02/2020 22:37:37	120220	12022020	223736	237.25	12.229143	-57.062583	237.27	-0.050	1.110	0.350	237.23	-0.40	0.90	 	 	 	 	 	 	 	 	 	 	 	 	 	 	 	 	 	 	1581547056	9.80	18.15
12/02/2020 22:37:38	120220	12022020	223737	237.15	12.229122	-57.062625	237.14	0.370	0.420	0.800	237.12	-1.10	1.30	 	 	 	 	 	 	 	 	 	 	 	 	 	 	 	 	 	 	1581547057	9.90	18.33
12/02/2020 22:37:39	120220	12022020	223738	237.00	12.229102	-57.062665	237.05	0.720	-0.250	1.110	237.00	-1.80	1.50	 	 	 	 	 	 	 	 	 	 	 	 	 	 	 	 	 	 	1581547058	9.68	17.93
12/02/2020 22:37:40	120220	12022020	223739	237.05	12.229080	-57.062703	237.12	0.920	-0.760	1.060	237.08	-2.30	1.40	 	 	 	 	 	 	 	 	 	 	 	 	 	 	 	 	 	 	1581547059	9.28	17.19
12/02/2020 22:37:41	120220	12022020	223740	237.25	12.229058	-57.062740	237.34	0.940	-1.240	0.830	237.30	-2.70	1.20	 	 	 	 	 	 	 	 	 	 	 	 	 	 	 	 	 	 	1581547060	9.22	17.08
12/02/2020 22:37:42	120220	12022020	223741	237.48	12.229033	-57.062778	237.57	0.750	-1.770	0.620	237.51	-3.30	1.00	 	 	 	 	 	 	 	 	 	 	 	 	 	 	 	 	 	 	1581547061	9.46	17.52
12/02/2020 22:37:43	120220	12022020	223742	237.55	12.229010	-57.062818	237.61	0.380	-2.220	0.660	237.53	-3.60	1.10	 	 	 	 	 	 	 	 	 	 	 	 	 	 	 	 	 	 	1581547062	9.85	18.24
12/02/2020 22:37:44	120220	12022020	223743	237.32	12.228987	-57.062860	237.35	-0.080	-2.190	1.040	237.23	-3.40	1.50	 	 	 	 	 	 	 	 	 	 	 	 	 	 	 	 	 	 	1581547063	10.03	18.58
12/02/2020 22:37:45	120220	12022020	223744	236.89	12.228967	-57.062900	236.92	-0.540	-1.350	1.440	236.80	-2.40	1.90	 	 	 	 	 	 	 	 	 	 	 	 	 	 	 	 	 	 	1581547064	9.76	18.08
12/02/2020 22:37:46	120220	12022020	223745	236.55	12.228945	-57.062940	236.60	-0.900	0.000	1.590	236.50	-1.10	2.00	 	 	 	 	 	 	 	 	 	 	 	 	 	 	 	 	 	 	1581547065	9.42	17.45
12/02/2020 22:37:47	120220	12022020	223746	236.41	12.228925	-57.062980	236.49	-1.020	1.100	1.500	236.40	-0.10	1.90	 	 	 	 	 	 	 	 	 	 	 	 	 	 	 	 	 	 	1581547066	9.54	17.67
12/02/2020 22:37:48	120220	12022020	223747	236.34	12.228902	-57.063020	236.40	-0.840	1.430	1.370	236.32	0.00	1.80	 	 	 	 	 	 	 	 	 	 	 	 	 	 	 	 	 	 	1581547067	10.11	18.72
12/02/2020 22:37:49	120220	12022020	223748	236.24	12.228877	-57.063063	236.29	-0.430	1.140	1.290	236.22	-0.40	1.70	 	 	 	 	 	 	 	 	 	 	 	 	 	 	 	 	 	 	1581547068	10.53	19.50
12/02/2020 22:37:50	120220	12022020	223749	236.20	12.228852	-57.063105	236.29	0.010	0.780	1.190	236.21	-0.70	1.60	 	 	 	 	 	 	 	 	 	 	 	 	 	 	 	 	 	 	1581547069	10.26	19.00
12/02/2020 22:37:51	120220	12022020	223750	236.38	12.228828	-57.063143	236.47	0.280	0.560	0.970	236.42	-0.90	1.30	 	 	 	 	 	 	 	 	 	 	 	 	 	 	 	 	 	 	1581547070	9.59	17.76
12/02/2020 22:37:52	120220	12022020	223751	236.61	12.228805	-57.063182	236.70	0.440	0.090	0.730	236.65	-1.50	1.10	 	 	 	 	 	 	 	 	 	 	 	 	 	 	 	 	 	 	1581547071	9.33	17.28
12/02/2020 22:37:53	120220	12022020	223752	236.80	12.228782	-57.063220	236.89	0.630	-0.740	0.590	236.83	-2.30	1.00	 	 	 	 	 	 	 	 	 	 	 	 	 	 	 	 	 	 	1581547072	9.57	17.72
12/02/2020 22:37:54	120220	12022020	223753	236.99	12.228760	-57.063260	237.08	0.810	-1.460	0.540	237.02	-2.90	0.90	 	 	 	 	 	 	 	 	 	 	 	 	 	 	 	 	 	 	1581547073	9.66	17.89
12/02/2020 22:37:55	120220	12022020	223754	237.14	12.228738	-57.063298	237.21	0.840	-1.660	0.590	237.16	-3.00	1.00	 	 	 	 	 	 	 	 	 	 	 	 	 	 	 	 	 	 	1581547074	9.37	17.35
12/02/2020 22:37:56	120220	12022020	223755	237.19	12.228717	-57.063335	237.25	0.660	-1.420	0.730	237.18	-2.70	1.20	 	 	 	 	 	 	 	 	 	 	 	 	 	 	 	 	 	 	1581547075	9.21	17.06
12/02/2020 22:37:57	120220	12022020	223756	237.12	12.228693	-57.063373	237.18	0.300	-1.030	1.000	237.10	-2.30	1.50	 	 	 	 	 	 	 	 	 	 	 	 	 	 	 	 	 	 	1581547076	9.40	17.41
12/02/2020 22:37:58	120220	12022020	223757	237.00	12.228670	-57.063412	237.06	-0.190	-0.560	1.340	236.96	-1.80	1.80	 	 	 	 	 	 	 	 	 	 	 	 	 	 	 	 	 	 	1581547077	9.63	17.83
12/02/2020 22:37:59	120220	12022020	223758	236.75	12.228648	-57.063453	236.78	-0.670	-0.120	1.720	236.68	-1.40	2.20	 	 	 	 	 	 	 	 	 	 	 	 	 	 	 	 	 	 	1581547078	9.80	18.15
12/02/2020 22:38:00	120220	12022020	223759	236.39	12.228627	-57.063495	236.44	-0.940	0.190	2.030	236.32	-1.20	2.50	 	 	 	 	 	 	 	 	 	 	 	 	 	 	 	 	 	 	1581547079	9.97	18.46
12/02/2020 22:38:01	120220	12022020	223800	236.07	12.228605	-57.063537	236.13	-0.860	0.300	1.990	236.02	-1.10	2.30	 	 	 	 	 	 	 	 	 	 	 	 	 	 	 	 	 	 	1581547080	10.07	18.65
12/02/2020 22:38:02	120220	12022020	223801	235.91	12.228580	-57.063577	235.98	-0.500	0.250	1.500	235.90	-1.20	1.80	1015.10	34.60	30.30	22.60	21.00	-2.0	50.0	57.0	388.0	26.1	183.00	5.60	59.00	10.60	18	12579.0	27.5	27.5	1581547081	10.05	18.61
12/02/2020 22:38:03	120220	12022020	223802	235.96	12.228553	-57.063615	236.04	-0.060	0.140	0.840	235.99	-1.30	1.10	 	 	 	 	 	 	 	 	 	 	 	 	 	 	 	 	 	 	1581547082	9.93	18.39
12/02/2020 22:38:04	120220	12022020	223803	236.16	12.228528	-57.063653	236.24	0.280	0.060	0.390	236.20	-1.40	0.70	 	 	 	 	 	 	 	 	 	 	 	 	 	 	 	 	 	 	1581547083	9.71	17.98
12/02/2020 22:38:05	120220	12022020	223804	236.39	12.228505	-57.063692	236.48	0.480	-0.050	0.230	236.44	-1.50	0.60	 	 	 	 	 	 	 	 	 	 	 	 	 	 	 	 	 	 	1581547084	9.56	17.71
12/02/2020 22:38:06	120220	12022020	223805	236.64	12.228482	-57.063730	236.70	0.540	-0.160	0.270	236.67	-1.60	0.70	 	 	 	 	 	 	 	 	 	 	 	 	 	 	 	 	 	 	1581547085	9.48	17.56
12/02/2020 22:38:07	120220	12022020	223806	236.75	12.228460	-57.063770	236.81	0.480	-0.330	0.520	236.75	-1.80	1.00	 	 	 	 	 	 	 	 	 	 	 	 	 	 	 	 	 	 	1581547086	9.50	17.59
12/02/2020 22:38:08	120220	12022020	223807	236.69	12.228438	-57.063808	236.76	0.330	-0.500	0.900	236.67	-1.90	1.40	 	 	 	 	 	 	 	 	 	 	 	 	 	 	 	 	 	 	1581547087	9.60	17.78
12/02/2020 22:38:09	120220	12022020	223808	236.66	12.228418	-57.063848	236.74	0.090	-0.490	1.050	236.68	-1.90	1.40	 	 	 	 	 	 	 	 	 	 	 	 	 	 	 	 	 	 	1581547088	9.48	17.56
12/02/2020 22:38:10	120220	12022020	223809	236.80	12.228397	-57.063887	236.89	-0.110	-0.390	0.870	236.86	-1.80	1.20	 	 	 	 	 	 	 	 	 	 	 	 	 	 	 	 	 	 	1581547089	9.33	17.28
12/02/2020 22:38:11	120220	12022020	223810	237.10	12.228373	-57.063925	237.17	-0.120	-0.420	0.460	237.16	-1.90	0.80	 	 	 	 	 	 	 	 	 	 	 	 	 	 	 	 	 	 	1581547090	9.42	17.45
12/02/2020 22:38:12	120220	12022020	223811	237.32	12.228348	-57.063963	237.37	0.030	-0.730	0.210	237.32	-2.20	0.60	 	 	 	 	 	 	 	 	 	 	 	 	 	 	 	 	 	 	1581547091	9.75	18.06
12/02/2020 22:38:13	120220	12022020	223812	237.31	12.228323	-57.064003	237.34	0.180	-1.110	0.230	237.28	-2.60	0.70	 	 	 	 	 	 	 	 	 	 	 	 	 	 	 	 	 	 	1581547092	10.03	18.58
12/02/2020 22:38:14	120220	12022020	223813	237.11	12.228297	-57.064043	237.14	0.160	-1.250	0.430	237.06	-2.60	0.90	 	 	 	 	 	 	 	 	 	 	 	 	 	 	 	 	 	 	1581547093	10.06	18.63
12/02/2020 22:38:15	120220	12022020	223814	236.82	12.228273	-57.064083	236.86	-0.100	-0.920	0.840	236.77	-2.20	1.40	 	 	 	 	 	 	 	 	 	 	 	 	 	 	 	 	 	 	1581547094	9.83	18.21
12/02/2020 22:38:16	120220	12022020	223815	236.55	12.228253	-57.064123	236.62	-0.480	-0.200	1.340	236.50	-1.40	1.90	 	 	 	 	 	 	 	 	 	 	 	 	 	 	 	 	 	 	1581547095	9.57	17.72
12/02/2020 22:38:17	120220	12022020	223816	236.39	12.228233	-57.064163	236.48	-0.730	0.590	1.740	236.37	-0.70	2.20	 	 	 	 	 	 	 	 	 	 	 	 	 	 	 	 	 	 	1581547096	9.49	17.58
12/02/2020 22:38:18	120220	12022020	223817	236.38	12.228215	-57.064205	236.50	-0.650	1.050	1.810	236.41	-0.30	2.20	 	 	 	 	 	 	 	 	 	 	 	 	 	 	 	 	 	 	1581547097	9.63	17.83
12/02/2020 22:38:19	120220	12022020	223818	236.61	12.228193	-57.064245	236.73	-0.260	1.020	1.440	236.69	-0.50	1.70	 	 	 	 	 	 	 	 	 	 	 	 	 	 	 	 	 	 	1581547098	9.81	18.17
12/02/2020 22:38:20	120220	12022020	223819	237.00	12.228170	-57.064285	237.11	0.240	0.550	0.840	237.09	-1.00	1.10	 	 	 	 	 	 	 	 	 	 	 	 	 	 	 	 	 	 	1581547099	9.92	18.37
12/02/2020 22:38:21	120220	12022020	223820	237.34	12.228143	-57.064325	237.42	0.620	-0.200	0.270	237.40	-1.80	0.60	 	 	 	 	 	 	 	 	 	 	 	 	 	 	 	 	 	 	1581547100	9.98	18.48
12/02/2020 22:38:22	120220	12022020	223821	237.55	12.228118	-57.064363	237.59	0.730	-0.930	-0.040	237.58	-2.50	0.40	 	 	 	 	 	 	 	 	 	 	 	 	 	 	 	 	 	 	1581547101	9.85	18.24
12/02/2020 22:38:23	120220	12022020	223822	237.62	12.228095	-57.064403	237.66	0.550	-1.400	-0.000	237.62	-2.90	0.50	 	 	 	 	 	 	 	 	 	 	 	 	 	 	 	 	 	 	1581547102	9.62	17.82
12/02/2020 22:38:24	120220	12022020	223823	237.55	12.228075	-57.064442	237.57	0.260	-1.450	0.250	237.55	-2.80	0.70	 	 	 	 	 	 	 	 	 	 	 	 	 	 	 	 	 	 	1581547103	9.40	17.41
12/02/2020 22:38:25	120220	12022020	223824	237.37	12.228053	-57.064480	237.37	0.070	-1.110	0.520	237.33	-2.40	1.00	 	 	 	 	 	 	 	 	 	 	 	 	 	 	 	 	 	 	1581547104	9.25	17.13
12/02/2020 22:38:26	120220	12022020	223825	237.20	12.228032	-57.064517	237.22	-0.060	-0.590	0.770	237.16	-1.90	1.30	 	 	 	 	 	 	 	 	 	 	 	 	 	 	 	 	 	 	1581547105	9.29	17.21
12/02/2020 22:38:27	120220	12022020	223826	237.02	12.228008	-57.064557	237.03	-0.260	-0.160	1.120	236.97	-1.50	1.60	 	 	 	 	 	 	 	 	 	 	 	 	 	 	 	 	 	 	1581547106	9.54	17.67
12/02/2020 22:38:28	120220	12022020	223827	236.78	12.227988	-57.064598	236.80	-0.510	0.110	1.590	236.73	-1.30	2.10	 	 	 	 	 	 	 	 	 	 	 	 	 	 	 	 	 	 	1581547107	9.84	18.22
12/02/2020 22:38:29	120220	12022020	223828	236.53	12.227968	-57.064640	236.56	-0.640	0.290	1.890	236.50	-1.10	2.30	 	 	 	 	 	 	 	 	 	 	 	 	 	 	 	 	 	 	1581547108	9.94	18.41
12/02/2020 22:38:30	120220	12022020	223829	236.47	12.227947	-57.064680	236.52	-0.470	0.480	1.660	236.49	-0.90	1.90	 	 	 	 	 	 	 	 	 	 	 	 	 	 	 	 	 	 	1581547109	9.73	18.02
12/02/2020 22:38:31	120220	12022020	223830	236.64	12.227923	-57.064720	236.69	-0.060	0.450	1.050	236.69	-1.00	1.30	 	 	 	 	 	 	 	 	 	 	 	 	 	 	 	 	 	 	1581547110	9.62	17.82
12/02/2020 22:38:32	120220	12022020	223831	236.88	12.227898	-57.064758	236.92	0.360	0.040	0.470	236.93	-1.50	0.80	 	 	 	 	 	 	 	 	 	 	 	 	 	 	 	 	 	 	1581547111	9.80	18.15
12/02/2020 22:38:33	120220	12022020	223832	237.05	12.227872	-57.064797	237.09	0.520	-0.620	0.250	237.09	-2.20	0.70	 	 	 	 	 	 	 	 	 	 	 	 	 	 	 	 	 	 	1581547112	10.01	18.54
12/02/2020 22:38:34	120220	12022020	223833	237.20	12.227848	-57.064837	237.24	0.330	-1.120	0.440	237.23	-2.60	0.90	 	 	 	 	 	 	 	 	 	 	 	 	 	 	 	 	 	 	1581547113	9.87	18.28
12/02/2020 22:38:35	120220	12022020	223834	237.29	12.227827	-57.064877	237.33	-0.040	-1.250	0.860	237.30	-2.60	1.40	 	 	 	 	 	 	 	 	 	 	 	 	 	 	 	 	 	 	1581547114	9.63	17.83
12/02/2020 22:38:36	120220	12022020	223835	237.27	12.227807	-57.064917	237.28	-0.290	-1.020	1.300	237.24	-2.30	1.80	 	 	 	 	 	 	 	 	 	 	 	 	 	 	 	 	 	 	1581547115	9.45	17.50
12/02/2020 22:38:37	120220	12022020	223836	237.05	12.227787	-57.064957	237.07	-0.280	-0.600	1.650	236.99	-1.90	2.10	 	 	 	 	 	 	 	 	 	 	 	 	 	 	 	 	 	 	1581547116	9.41	17.43
12/02/2020 22:38:38	120220	12022020	223837	236.76	12.227765	-57.064995	236.68	-0.110	-0.210	1.770	236.69	-1.50	2.20	 	 	 	 	 	 	 	 	 	 	 	 	 	 	 	 	 	 	1581547117	9.55	17.69
12/02/2020 22:38:39	120220	12022020	223838	236.31	12.227743	-57.065035	236.33	0.020	0.090	1.560	236.25	-1.30	1.90	 	 	 	 	 	 	 	 	 	 	 	 	 	 	 	 	 	 	1581547118	9.67	17.91
12/02/2020 22:38:40	120220	12022020	223839	236.11	12.227720	-57.065075	236.15	0.050	0.290	1.070	236.11	-1.10	1.30	 	 	 	 	 	 	 	 	 	 	 	 	 	 	 	 	 	 	1581547119	9.68	17.93
12/02/2020 22:38:41	120220	12022020	223840	236.25	12.227695	-57.065113	236.32	0.090	0.390	0.530	236.31	-1.00	0.80	 	 	 	 	 	 	 	 	 	 	 	 	 	 	 	 	 	 	1581547120	9.64	17.85
12/02/2020 22:38:42	120220	12022020	223841	236.65	12.227672	-57.065152	236.74	0.200	0.430	0.220	236.74	-1.00	0.60	 	 	 	 	 	 	 	 	 	 	 	 	 	 	 	 	 	 	1581547121	9.54	17.67
12/02/2020 22:38:43	120220	12022020	223842	237.14	12.227650	-57.065190	237.23	0.300	0.330	0.320	237.24	-1.10	0.80	 	 	 	 	 	 	 	 	 	 	 	 	 	 	 	 	 	 	1581547122	9.46	17.52
12/02/2020 22:38:44	120220	12022020	223843	237.61	12.227628	-57.065228	237.69	0.300	0.000	0.680	237.69	-1.50	1.20	 	 	 	 	 	 	 	 	 	 	 	 	 	 	 	 	 	 	1581547123	9.50	17.59
12/02/2020 22:38:45	120220	12022020	223844	237.92	12.227607	-57.065268	237.98	0.230	-0.560	1.100	237.95	-2.10	1.60	 	 	 	 	 	 	 	 	 	 	 	 	 	 	 	 	 	 	1581547124	9.63	17.83
12/02/2020 22:38:46	120220	12022020	223845	237.98	12.227583	-57.065308	238.03	0.150	-1.240	1.370	237.96	-2.80	1.80	 	 	 	 	 	 	 	 	 	 	 	 	 	 	 	 	 	 	1581547125	9.81	18.17
12/02/2020 22:38:47	120220	12022020	223846	237.79	12.227560	-57.065350	237.82	0.050	-1.760	1.520	237.73	-3.20	1.90	 	 	 	 	 	 	 	 	 	 	 	 	 	 	 	 	 	 	1581547126	9.87	18.28
12/02/2020 22:38:48	120220	12022020	223847	237.45	12.227538	-57.065390	237.47	-0.140	-1.800	1.510	237.38	-3.10	1.90	 	 	 	 	 	 	 	 	 	 	 	 	 	 	 	 	 	 	1581547127	9.67	17.91
12/02/2020 22:38:49	120220	12022020	223848	237.05	12.227517	-57.065428	237.07	-0.320	-1.380	1.320	236.97	-2.60	1.70	 	 	 	 	 	 	 	 	 	 	 	 	 	 	 	 	 	 	1581547128	9.45	17.50
12/02/2020 22:38:50	120220	12022020	223849	236.67	12.227495	-57.065467	236.70	-0.310	-0.710	1.120	236.61	-1.90	1.50	 	 	 	 	 	 	 	 	 	 	 	 	 	 	 	 	 	 	1581547129	9.44	17.48
12/02/2020 22:38:51	120220	12022020	223850	236.47	12.227472	-57.065507	236.52	-0.150	-0.070	0.980	236.45	-1.30	1.40	 	 	 	 	 	 	 	 	 	 	 	 	 	 	 	 	 	 	1581547130	9.68	17.93
12/02/2020 22:38:52	120220	12022020	223851	236.54	12.227450	-57.065547	236.62	-0.010	0.440	0.960	236.58	-0.90	1.40	 	 	 	 	 	 	 	 	 	 	 	 	 	 	 	 	 	 	1581547131	9.91	18.35
12/02/2020 22:38:53	120220	12022020	223852	236.83	12.227428	-57.065588	236.92	-0.020	0.820	1.120	236.89	-0.50	1.60	 	 	 	 	 	 	 	 	 	 	 	 	 	 	 	 	 	 	1581547132	9.96	18.45
12/02/2020 22:38:54	120220	12022020	223853	237.27	12.227407	-57.065630	237.37	-0.140	1.160	1.270	237.37	-0.20	1.70	 	 	 	 	 	 	 	 	 	 	 	 	 	 	 	 	 	 	1581547133	9.74	18.04
12/02/2020 22:38:55	120220	12022020	223854	237.82	12.227385	-57.065668	237.92	-0.250	1.230	1.150	237.93	-0.20	1.50	 	 	 	 	 	 	 	 	 	 	 	 	 	 	 	 	 	 	1581547134	9.48	17.56
12/02/2020 22:38:56	120220	12022020	223855	238.30	12.227363	-57.065707	238.37	-0.190	0.800	0.830	238.37	-0.80	1.20	 	 	 	 	 	 	 	 	 	 	 	 	 	 	 	 	 	 	1581547135	9.52	17.63
12/02/2020 22:38:57	120220	12022020	223856	238.57	12.227338	-57.065745	238.61	0.040	-0.040	0.610	238.59	-1.60	1.00	 	 	 	 	 	 	 	 	 	 	 	 	 	 	 	 	 	 	1581547136	9.64	17.85
12/02/2020 22:38:58	120220	12022020	223857	238.58	12.227315	-57.065785	238.60	0.330	-0.930	0.530	238.55	-2.50	0.90	 	 	 	 	 	 	 	 	 	 	 	 	 	 	 	 	 	 	1581547137	9.60	17.78
12/02/2020 22:38:59	120220	12022020	223858	238.40	12.227293	-57.065823	238.43	0.530	-1.580	0.470	238.37	-3.10	0.90	 	 	 	 	 	 	 	 	 	 	 	 	 	 	 	 	 	 	1581547138	9.42	17.45
12/02/2020 22:39:00	120220	12022020	223859	238.25	12.227270	-57.065860	238.30	0.570	-1.870	0.410	238.22	-3.30	0.80	 	 	 	 	 	 	 	 	 	 	 	 	 	 	 	 	 	 	1581547139	9.27	17.17
12/02/2020 22:39:01	120220	12022020	223900	238.08	12.227247	-57.065897	238.13	0.450	-1.870	0.520	238.03	-3.20	1.00	 	 	 	 	 	 	 	 	 	 	 	 	 	 	 	 	 	 	1581547140	9.30	17.22
12/02/2020 22:39:02	120220	12022020	223901	237.73	12.227225	-57.065937	237.76	0.200	-1.760	0.950	237.64	-3.10	1.50	1015.10	35.50	29.60	22.40	21.40	-2.0	47.0	61.0	389.0	26.1	183.00	5.50	59.00	10.40	18	11955.0	27.5	27.4	1581547141	9.68	17.93
12/02/2020 22:39:03	120220	12022020	223902	237.32	12.227205	-57.065980	237.37	-0.190	-1.430	1.520	237.27	-2.70	2.00	 	 	 	 	 	 	 	 	 	 	 	 	 	 	 	 	 	 	1581547142	10.08	18.67
12/02/2020 22:39:04	120220	12022020	223903	237.16	12.227187	-57.066023	237.25	-0.700	-0.600	1.860	237.17	-1.70	2.30	 	 	 	 	 	 	 	 	 	 	 	 	 	 	 	 	 	 	1581547143	10.04	18.59
12/02/2020 22:39:05	120220	12022020	223904	237.26	12.227168	-57.066065	237.33	-1.140	0.560	1.820	237.30	-0.60	2.20	 	 	 	 	 	 	 	 	 	 	 	 	 	 	 	 	 	 	1581547144	9.65	17.87
12/02/2020 22:39:06	120220	12022020	223905	237.44	12.227148	-57.066105	237.52	-1.190	1.440	1.540	237.48	0.20	1.90	 	 	 	 	 	 	 	 	 	 	 	 	 	 	 	 	 	 	1581547145	9.59	17.76
12/02/2020 22:39:07	120220	12022020	223906	237.65	12.227123	-57.066145	237.70	-0.720	1.650	1.160	237.68	0.20	1.50	 	 	 	 	 	 	 	 	 	 	 	 	 	 	 	 	 	 	1581547146	9.92	18.37
12/02/2020 22:39:08	120220	12022020	223907	237.81	12.227098	-57.066187	237.85	0.010	1.290	0.810	237.84	-0.30	1.10	 	 	 	 	 	 	 	 	 	 	 	 	 	 	 	 	 	 	1581547147	10.14	18.78
12/02/2020 22:39:09	120220	12022020	223908	237.98	12.227073	-57.066225	238.03	0.580	0.680	0.470	238.03	-0.90	0.80	 	 	 	 	 	 	 	 	 	 	 	 	 	 	 	 	 	 	1581547148	10.01	18.54
12/02/2020 22:39:10	120220	12022020	223909	238.27	12.227048	-57.066263	238.34	0.780	0.110	0.190	238.34	-1.40	0.60	 	 	 	 	 	 	 	 	 	 	 	 	 	 	 	 	 	 	1581547149	9.57	17.72
12/02/2020 22:39:11	120220	12022020	223910	238.62	12.227027	-57.066300	238.69	0.740	-0.310	0.090	238.68	-1.80	0.50	 	 	 	 	 	 	 	 	 	 	 	 	 	 	 	 	 	 	1581547150	9.08	16.82
12/02/2020 22:39:12	120220	12022020	223911	238.76	12.227007	-57.066338	238.81	0.680	-0.780	0.330	238.75	-2.30	0.80	 	 	 	 	 	 	 	 	 	 	 	 	 	 	 	 	 	 	1581547151	9.00	16.67
12/02/2020 22:39:13	120220	12022020	223912	238.58	12.226987	-57.066377	238.61	0.680	-1.420	0.800	238.51	-3.00	1.30	 	 	 	 	 	 	 	 	 	 	 	 	 	 	 	 	 	 	1581547152	9.36	17.33
12/02/2020 22:39:14	120220	12022020	223913	238.21	12.226967	-57.066418	238.22	0.560	-2.000	1.270	238.12	-3.50	1.80	 	 	 	 	 	 	 	 	 	 	 	 	 	 	 	 	 	 	1581547153	9.65	17.87
12/02/2020 22:39:15	120220	12022020	223914	237.71	12.226947	-57.066460	237.71	0.190	-2.220	1.640	237.60	-3.60	2.10	 	 	 	 	 	 	 	 	 	 	 	 	 	 	 	 	 	 	1581547154	9.75	18.06
12/02/2020 22:39:16	120220	12022020	223915	237.18	12.226927	-57.066500	237.19	-0.340	-1.900	1.800	237.18	-3.10	2.20	 	 	 	 	 	 	 	 	 	 	 	 	 	 	 	 	 	 	1581547155	9.68	17.93
12/02/2020 22:39:17	120220	12022020	223916	236.89	12.226905	-57.066540	236.93	-0.790	-1.100	1.660	236.88	-2.30	2.00	 	 	 	 	 	 	 	 	 	 	 	 	 	 	 	 	 	 	1581547156	9.56	17.71
12/02/2020 22:39:18	120220	12022020	223917	236.97	12.226883	-57.066578	237.04	-0.970	-0.120	1.280	236.97	-1.30	1.60	 	 	 	 	 	 	 	 	 	 	 	 	 	 	 	 	 	 	1581547157	9.57	17.72
12/02/2020 22:39:19	120220	12022020	223918	237.28	12.226860	-57.066618	237.35	-0.850	0.620	0.880	237.34	-0.70	1.20	 	 	 	 	 	 	 	 	 	 	 	 	 	 	 	 	 	 	1581547158	9.82	18.19
12/02/2020 22:39:20	120220	12022020	223919	237.63	12.226835	-57.066660	237.70	-0.540	0.970	0.700	237.70	-0.40	1.10	 	 	 	 	 	 	 	 	 	 	 	 	 	 	 	 	 	 	1581547159	10.14	18.78
12/02/2020 22:39:21	120220	12022020	223920	237.94	12.226812	-57.066702	238.01	-0.210	1.050	0.840	238.00	-0.40	1.30	 	 	 	 	 	 	 	 	 	 	 	 	 	 	 	 	 	 	1581547160	10.20	18.89
12/02/2020 22:39:22	120220	12022020	223921	238.14	12.226788	-57.066743	238.18	0.020	0.960	1.230	238.15	-0.50	1.70	 	 	 	 	 	 	 	 	 	 	 	 	 	 	 	 	 	 	1581547161	9.96	18.45
12/02/2020 22:39:23	120220	12022020	223922	238.16	12.226768	-57.066785	238.19	0.150	0.650	1.640	238.15	-0.90	2.10	 	 	 	 	 	 	 	 	 	 	 	 	 	 	 	 	 	 	1581547162	9.78	18.11
12/02/2020 22:39:24	120220	12022020	223923	238.08	12.226748	-57.066825	238.11	0.290	0.190	1.730	238.06	-1.30	2.10	 	 	 	 	 	 	 	 	 	 	 	 	 	 	 	 	 	 	1581547163	9.61	17.80
12/02/2020 22:39:25	120220	12022020	223924	238.01	12.226728	-57.066863	238.05	0.500	-0.210	1.380	238.00	-1.70	1.70	 	 	 	 	 	 	 	 	 	 	 	 	 	 	 	 	 	 	1581547164	9.30	17.22
12/02/2020 22:39:26	120220	12022020	223925	237.94	12.226705	-57.066900	237.96	0.710	-0.600	0.820	237.93	-2.10	1.10	 	 	 	 	 	 	 	 	 	 	 	 	 	 	 	 	 	 	1581547165	9.11	16.87
12/02/2020 22:39:27	120220	12022020	223926	237.87	12.226682	-57.066937	237.90	0.800	-1.030	0.290	237.86	-2.50	0.60	 	 	 	 	 	 	 	 	 	 	 	 	 	 	 	 	 	 	1581547166	9.23	17.09
12/02/2020 22:39:28	120220	12022020	223927	237.87	12.226657	-57.066973	237.89	0.670	-1.330	-0.070	237.88	-2.80	0.30	 	 	 	 	 	 	 	 	 	 	 	 	 	 	 	 	 	 	1581547167	9.33	17.28
12/02/2020 22:39:29	120220	12022020	223928	237.98	12.226635	-57.067010	238.04	0.340	-1.330	-0.130	238.01	-2.70	0.30	 	 	 	 	 	 	 	 	 	 	 	 	 	 	 	 	 	 	1581547168	9.30	17.22
12/02/2020 22:39:30	120220	12022020	223929	238.13	12.226615	-57.067048	238.21	-0.060	-1.040	0.160	238.15	-2.30	0.70	 	 	 	 	 	 	 	 	 	 	 	 	 	 	 	 	 	 	1581547169	9.22	17.08
12/02/2020 22:39:31	120220	12022020	223930	238.10	12.226595	-57.067088	238.15	-0.340	-0.790	0.740	238.06	-2.20	1.30	 	 	 	 	 	 	 	 	 	 	 	 	 	 	 	 	 	 	1581547170	9.45	17.50
12/02/2020 22:39:32	120220	12022020	223931	237.79	12.226575	-57.067132	237.81	-0.430	-0.800	1.510	237.70	-2.20	2.10	 	 	 	 	 	 	 	 	 	 	 	 	 	 	 	 	 	 	1581547171	10.00	18.52
12/02/2020 22:39:33	120220	12022020	223932	237.27	12.226555	-57.067177	237.28	-0.420	-0.870	2.140	237.17	-2.20	2.60	 	 	 	 	 	 	 	 	 	 	 	 	 	 	 	 	 	 	1581547172	10.36	19.19
12/02/2020 22:39:34	120220	12022020	223933	236.80	12.226533	-57.067220	236.83	-0.470	-0.680	2.290	236.73	-2.00	2.70	 	 	 	 	 	 	 	 	 	 	 	 	 	 	 	 	 	 	1581547173	10.29	19.06
12/02/2020 22:39:35	120220	12022020	223934	236.60	12.226512	-57.067260	236.66	-0.580	-0.130	1.990	236.60	-1.40	2.30	 	 	 	 	 	 	 	 	 	 	 	 	 	 	 	 	 	 	1581547174	9.92	18.37
12/02/2020 22:39:36	120220	12022020	223935	236.79	12.226488	-57.067300	236.87	-0.650	0.650	1.360	236.88	-0.60	1.60	 	 	 	 	 	 	 	 	 	 	 	 	 	 	 	 	 	 	1581547175	9.53	17.65
12/02/2020 22:39:37	120220	12022020	223936	237.32	12.226467	-57.067337	237.41	-0.510	1.400	0.610	237.45	0.10	0.90	 	 	 	 	 	 	 	 	 	 	 	 	 	 	 	 	 	 	1581547176	9.20	17.04
12/02/2020 22:39:38	120220	12022020	223937	237.96	12.226443	-57.067373	238.03	-0.080	1.720	-0.020	238.08	0.30	0.30	 	 	 	 	 	 	 	 	 	 	 	 	 	 	 	 	 	 	1581547177	9.18	17.00
12/02/2020 22:39:39	120220	12022020	223938	238.52	12.226418	-57.067410	238.59	0.480	1.350	-0.350	238.61	-0.20	0.10	 	 	 	 	 	 	 	 	 	 	 	 	 	 	 	 	 	 	1581547178	9.41	17.43
12/02/2020 22:39:40	120220	12022020	223939	238.81	12.226395	-57.067448	238.84	0.920	0.330	-0.110	238.81	-1.40	0.50	 	 	 	 	 	 	 	 	 	 	 	 	 	 	 	 	 	 	1581547179	9.62	17.82
12/02/2020 22:39:41	120220	12022020	223940	238.61	12.226373	-57.067490	238.61	1.060	-1.120	0.710	238.51	-2.90	1.40	 	 	 	 	 	 	 	 	 	 	 	 	 	 	 	 	 	 	1581547180	9.89	18.32
12/02/2020 22:39:42	120220	12022020	223941	237.95	12.226355	-57.067533	237.94	0.910	-2.360	1.720	237.78	-3.90	2.40	 	 	 	 	 	 	 	 	 	 	 	 	 	 	 	 	 	 	1581547181	9.97	18.46
12/02/2020 22:39:43	120220	12022020	223942	237.06	12.226337	-57.067575	237.05	0.570	-2.750	2.520	236.90	-4.10	3.00	 	 	 	 	 	 	 	 	 	 	 	 	 	 	 	 	 	 	1581547182	9.61	17.80
12/02/2020 22:39:44	120220	12022020	223943	236.33	12.226320	-57.067613	236.37	0.140	-2.150	2.750	236.24	-3.30	3.10	 	 	 	 	 	 	 	 	 	 	 	 	 	 	 	 	 	 	1581547183	9.05	16.76
12/02/2020 22:39:45	120220	12022020	223944	236.00	12.226300	-57.067650	236.08	-0.280	-1.070	2.500	235.99	-2.20	2.80	 	 	 	 	 	 	 	 	 	 	 	 	 	 	 	 	 	 	1581547184	8.76	16.22
12/02/2020 22:39:46	120220	12022020	223945	236.08	12.226278	-57.067687	236.18	-0.600	-0.190	1.960	236.13	-1.50	2.20	 	 	 	 	 	 	 	 	 	 	 	 	 	 	 	 	 	 	1581547185	9.15	16.95
12/02/2020 22:39:47	120220	12022020	223946	236.39	12.226257	-57.067727	236.50	-0.770	0.280	1.470	236.47	-1.00	1.80	 	 	 	 	 	 	 	 	 	 	 	 	 	 	 	 	 	 	1581547186	9.75	18.06
12/02/2020 22:39:48	120220	12022020	223947	236.83	12.226233	-57.067768	236.92	-0.790	0.640	1.120	236.93	-0.70	1.50	 	 	 	 	 	 	 	 	 	 	 	 	 	 	 	 	 	 	1581547187	9.91	18.35
12/02/2020 22:39:49	120220	12022020	223948	237.34	12.226210	-57.067807	237.41	-0.620	0.970	0.920	237.44	-0.40	1.30	 	 	 	 	 	 	 	 	 	 	 	 	 	 	 	 	 	 	1581547188	9.62	17.82
12/02/2020 22:39:50	120220	12022020	223949	237.78	12.226188	-57.067847	237.82	-0.250	0.960	0.820	237.85	-0.50	1.20	 	 	 	 	 	 	 	 	 	 	 	 	 	 	 	 	 	 	1581547189	9.55	17.69
12/02/2020 22:39:51	120220	12022020	223950	238.01	12.226165	-57.067885	238.04	0.200	0.410	0.680	238.03	-1.20	1.10	 	 	 	 	 	 	 	 	 	 	 	 	 	 	 	 	 	 	1581547190	9.80	18.15
12/02/2020 22:39:52	120220	12022020	223951	238.03	12.226140	-57.067925	238.04	0.530	-0.310	0.500	238.01	-1.80	0.90	 	 	 	 	 	 	 	 	 	 	 	 	 	 	 	 	 	 	1581547191	9.88	18.30
12/02/2020 22:39:53	120220	12022020	223952	237.97	12.226115	-57.067962	237.99	0.560	-0.660	0.350	237.96	-2.10	0.70	 	 	 	 	 	 	 	 	 	 	 	 	 	 	 	 	 	 	1581547192	9.48	17.56
12/02/2020 22:39:54	120220	12022020	223953	237.93	12.226093	-57.067998	237.94	0.330	-0.510	0.300	237.93	-1.80	0.70	 	 	 	 	 	 	 	 	 	 	 	 	 	 	 	 	 	 	1581547193	8.87	16.43
12/02/2020 22:39:55	120220	12022020	223954	237.92	12.226073	-57.068033	237.95	0.080	-0.320	0.390	237.91	-1.70	0.90	 	 	 	 	 	 	 	 	 	 	 	 	 	 	 	 	 	 	1581547194	8.70	16.11
12/02/2020 22:39:56	120220	12022020	223955	237.79	12.226053	-57.068072	237.81	0.020	-0.600	0.810	237.74	-2.10	1.40	 	 	 	 	 	 	 	 	 	 	 	 	 	 	 	 	 	 	1581547195	9.23	17.09
12/02/2020 22:39:57	120220	12022020	223956	237.43	12.226032	-57.068113	237.43	0.110	-1.210	1.510	237.34	-2.70	2.10	 	 	 	 	 	 	 	 	 	 	 	 	 	 	 	 	 	 	1581547196	9.92	18.37
12/02/2020 22:39:58	120220	12022020	223957	236.92	12.226013	-57.068157	236.91	0.130	-1.480	2.120	236.82	-2.80	2.60	 	 	 	 	 	 	 	 	 	 	 	 	 	 	 	 	 	 	1581547197	10.01	18.54
12/02/2020 22:39:59	120220	12022020	223958	236.50	12.225993	-57.068197	236.52	-0.100	-1.010	2.350	236.45	-2.20	2.70	 	 	 	 	 	 	 	 	 	 	 	 	 	 	 	 	 	 	1581547198	9.48	17.56
12/02/2020 22:40:00	120220	12022020	223959	236.38	12.225977	-57.068235	236.43	-0.450	-0.040	2.140	236.39	-1.20	2.40	 	 	 	 	 	 	 	 	 	 	 	 	 	 	 	 	 	 	1581547199	8.89	16.46
12/02/2020 22:40:01	120220	12022020	224000	236.53	12.225957	-57.068272	236.59	-0.590	0.650	1.450	236.58	-0.70	1.60	 	 	 	 	 	 	 	 	 	 	 	 	 	 	 	 	 	 	1581547200	8.88	16.45
12/02/2020 22:40:02	120220	12022020	224001	236.84	12.225933	-57.068310	236.90	-0.320	0.580	0.520	236.92	-0.90	0.70	1015.10	35.50	29.20	22.30	21.50	-2.0	46.0	63.0	390.0	26.1	183.00	5.10	59.00	10.10	17	11078.0	27.4	27.4	1581547201	9.53	17.65
12/02/2020 22:40:03	120220	12022020	224002	237.22	12.225905	-57.068348	237.26	0.110	0.020	-0.240	237.30	-1.50	0.10	 	 	 	 	 	 	 	 	 	 	 	 	 	 	 	 	 	 	1581547202	10.06	18.63
12/02/2020 22:40:04	120220	12022020	224003	237.64	12.225878	-57.068387	237.68	0.280	-0.450	-0.480	237.71	-1.90	-0.00	 	 	 	 	 	 	 	 	 	 	 	 	 	 	 	 	 	 	1581547203	9.95	18.43
12/02/2020 22:40:05	120220	12022020	224004	237.92	12.225857	-57.068427	237.93	0.110	-0.600	-0.140	237.94	-2.00	0.40	 	 	 	 	 	 	 	 	 	 	 	 	 	 	 	 	 	 	1581547204	9.50	17.59
12/02/2020 22:40:06	120220	12022020	224005	237.90	12.225837	-57.068465	237.85	-0.060	-0.580	0.550	237.87	-2.00	1.10	 	 	 	 	 	 	 	 	 	 	 	 	 	 	 	 	 	 	1581547205	9.29	17.21
12/02/2020 22:40:07	120220	12022020	224006	237.56	12.225818	-57.068505	237.54	0.000	-0.510	1.250	237.48	-1.90	1.80	 	 	 	 	 	 	 	 	 	 	 	 	 	 	 	 	 	 	1581547206	9.37	17.35
12/02/2020 22:40:08	120220	12022020	224007	237.17	12.225798	-57.068543	237.17	0.180	-0.220	1.770	237.10	-1.50	2.30	 	 	 	 	 	 	 	 	 	 	 	 	 	 	 	 	 	 	1581547207	9.26	17.15
12/02/2020 22:40:09	120220	12022020	224008	236.82	12.225778	-57.068582	236.84	0.270	0.120	2.040	236.77	-1.20	2.50	 	 	 	 	 	 	 	 	 	 	 	 	 	 	 	 	 	 	1581547208	9.11	16.87
12/02/2020 22:40:10	120220	12022020	224009	236.60	12.225758	-57.068620	236.63	0.160	0.220	2.060	236.58	-1.20	2.40	 	 	 	 	 	 	 	 	 	 	 	 	 	 	 	 	 	 	1581547209	9.21	17.06
12/02/2020 22:40:11	120220	12022020	224010	236.51	12.225738	-57.068660	236.54	-0.040	0.030	1.920	236.50	-1.40	2.20	 	 	 	 	 	 	 	 	 	 	 	 	 	 	 	 	 	 	1581547210	9.41	17.43
12/02/2020 22:40:12	120220	12022020	224011	236.53	12.225717	-57.068698	236.56	-0.160	-0.250	1.540	236.54	-1.70	1.80	 	 	 	 	 	 	 	 	 	 	 	 	 	 	 	 	 	 	1581547211	9.45	17.50
12/02/2020 22:40:13	120220	12022020	224012	236.55	12.225695	-57.068737	236.57	-0.120	-0.530	1.050	236.55	-2.00	1.40	 	 	 	 	 	 	 	 	 	 	 	 	 	 	 	 	 	 	1581547212	9.34	17.30
12/02/2020 22:40:14	120220	12022020	224013	236.43	12.225672	-57.068775	236.42	0.030	-0.830	0.730	236.39	-2.30	1.10	 	 	 	 	 	 	 	 	 	 	 	 	 	 	 	 	 	 	1581547213	9.37	17.35
12/02/2020 22:40:15	120220	12022020	224014	236.18	12.225648	-57.068813	236.18	0.180	-1.070	0.680	236.13	-2.50	1.10	 	 	 	 	 	 	 	 	 	 	 	 	 	 	 	 	 	 	1581547214	9.47	17.54
12/02/2020 22:40:16	120220	12022020	224015	236.04	12.225627	-57.068852	236.06	0.140	-1.080	0.590	236.06	-2.40	0.90	 	 	 	 	 	 	 	 	 	 	 	 	 	 	 	 	 	 	1581547215	9.43	17.46
12/02/2020 22:40:17	120220	12022020	224016	236.30	12.225605	-57.068888	236.37	-0.100	-0.810	0.280	236.40	-2.10	0.60	 	 	 	 	 	 	 	 	 	 	 	 	 	 	 	 	 	 	1581547216	9.23	17.09
12/02/2020 22:40:18	120220	12022020	224017	236.89	12.225582	-57.068925	236.98	-0.330	-0.530	-0.110	236.89	-1.90	0.20	 	 	 	 	 	 	 	 	 	 	 	 	 	 	 	 	 	 	1581547217	9.26	17.15
12/02/2020 22:40:19	120220	12022020	224018	237.41	12.225557	-57.068963	237.46	-0.340	-0.420	-0.160	237.46	-1.80	0.30	 	 	 	 	 	 	 	 	 	 	 	 	 	 	 	 	 	 	1581547218	9.60	17.78
12/02/2020 22:40:20	120220	12022020	224019	237.46	12.225533	-57.069003	237.46	-0.190	-0.260	0.350	237.41	-1.60	0.90	 	 	 	 	 	 	 	 	 	 	 	 	 	 	 	 	 	 	1581547219	9.81	18.17
12/02/2020 22:40:21	120220	12022020	224020	237.07	12.225513	-57.069043	237.06	-0.110	0.270	1.140	236.98	-1.00	1.70	 	 	 	 	 	 	 	 	 	 	 	 	 	 	 	 	 	 	1581547220	9.55	17.69
12/02/2020 22:40:22	120220	12022020	224021	236.60	12.225493	-57.069082	236.61	-0.160	0.900	1.800	236.53	-0.40	2.30	 	 	 	 	 	 	 	 	 	 	 	 	 	 	 	 	 	 	1581547221	9.21	17.06
12/02/2020 22:40:23	120220	12022020	224022	236.32	12.225475	-57.069122	236.37	-0.200	1.170	2.030	236.30	-0.20	2.40	 	 	 	 	 	 	 	 	 	 	 	 	 	 	 	 	 	 	1581547222	9.22	17.08
12/02/2020 22:40:24	120220	12022020	224023	236.29	12.225455	-57.069160	236.34	-0.050	0.940	1.870	236.30	-0.60	2.20	 	 	 	 	 	 	 	 	 	 	 	 	 	 	 	 	 	 	1581547223	9.34	17.30
12/02/2020 22:40:25	120220	12022020	224024	236.34	12.225433	-57.069198	236.40	0.290	0.310	1.550	236.36	-1.30	1.90	 	 	 	 	 	 	 	 	 	 	 	 	 	 	 	 	 	 	1581547224	9.41	17.43
12/02/2020 22:40:26	120220	12022020	224025	236.41	12.225410	-57.069237	236.45	0.610	-0.570	1.190	236.42	-2.20	1.50	 	 	 	 	 	 	 	 	 	 	 	 	 	 	 	 	 	 	1581547225	9.41	17.43
12/02/2020 22:40:27	120220	12022020	224026	236.45	12.225388	-57.069275	236.49	0.690	-1.390	0.840	236.45	-2.90	1.20	 	 	 	 	 	 	 	 	 	 	 	 	 	 	 	 	 	 	1581547226	9.29	17.21
12/02/2020 22:40:28	120220	12022020	224027	236.41	12.225365	-57.069312	236.41	0.550	-1.930	0.620	236.38	-3.40	1.00	 	 	 	 	 	 	 	 	 	 	 	 	 	 	 	 	 	 	1581547227	9.17	16.98
12/02/2020 22:40:29	120220	12022020	224028	236.30	12.225345	-57.069350	236.31	0.310	-2.080	0.530	236.28	-3.40	0.90	 	 	 	 	 	 	 	 	 	 	 	 	 	 	 	 	 	 	1581547228	9.14	16.93
12/02/2020 22:40:30	120220	12022020	224029	236.24	12.225323	-57.069387	236.27	0.070	-1.780	0.490	236.24	-3.10	0.90	 	 	 	 	 	 	 	 	 	 	 	 	 	 	 	 	 	 	1581547229	9.14	16.93
12/02/2020 22:40:31	120220	12022020	224030	236.28	12.225300	-57.069423	236.34	-0.180	-1.140	0.560	236.31	-2.40	1.00	 	 	 	 	 	 	 	 	 	 	 	 	 	 	 	 	 	 	1581547230	9.26	17.15
12/02/2020 22:40:32	120220	12022020	224031	236.50	12.225278	-57.069463	236.59	-0.450	-0.360	0.750	236.58	-1.60	1.20	 	 	 	 	 	 	 	 	 	 	 	 	 	 	 	 	 	 	1581547231	9.44	17.48
12/02/2020 22:40:33	120220	12022020	224032	236.87	12.225257	-57.069502	236.96	-0.740	0.390	1.100	236.94	-0.90	1.60	 	 	 	 	 	 	 	 	 	 	 	 	 	 	 	 	 	 	1581547232	9.58	17.74
12/02/2020 22:40:34	120220	12022020	224033	237.14	12.225235	-57.069542	237.21	-0.910	0.960	1.640	237.16	-0.40	2.20	 	 	 	 	 	 	 	 	 	 	 	 	 	 	 	 	 	 	1581547233	9.69	17.95
12/02/2020 22:40:35	120220	12022020	224034	237.10	12.225215	-57.069583	237.13	-0.850	1.300	2.160	237.05	-0.10	2.70	 	 	 	 	 	 	 	 	 	 	 	 	 	 	 	 	 	 	1581547234	9.71	17.98
12/02/2020 22:40:36	120220	12022020	224035	236.80	12.225195	-57.069623	236.82	-0.540	1.430	2.380	236.72	0.00	2.80	 	 	 	 	 	 	 	 	 	 	 	 	 	 	 	 	 	 	1581547235	9.53	17.65
12/02/2020 22:40:37	120220	12022020	224036	236.45	12.225173	-57.069662	236.47	-0.100	1.240	2.020	236.40	-0.30	2.30	 	 	 	 	 	 	 	 	 	 	 	 	 	 	 	 	 	 	1581547236	9.30	17.22
12/02/2020 22:40:38	120220	12022020	224037	236.31	12.225148	-57.069697	236.33	0.390	0.700	1.070	236.32	-0.90	1.20	 	 	 	 	 	 	 	 	 	 	 	 	 	 	 	 	 	 	1581547237	9.14	16.93
12/02/2020 22:40:39	120220	12022020	224038	236.47	12.225122	-57.069730	236.51	0.840	-0.100	-0.070	236.53	-1.70	0.10	 	 	 	 	 	 	 	 	 	 	 	 	 	 	 	 	 	 	1581547238	8.98	16.63
12/02/2020 22:40:40	120220	12022020	224039	236.71	12.225097	-57.069765	236.74	1.170	-1.200	-0.720	236.73	-2.90	-0.30	 	 	 	 	 	 	 	 	 	 	 	 	 	 	 	 	 	 	1581547239	9.08	16.82
12/02/2020 22:40:41	120220	12022020	224040	236.69	12.225073	-57.069802	236.68	1.250	-2.310	-0.470	236.65	-3.90	0.10	 	 	 	 	 	 	 	 	 	 	 	 	 	 	 	 	 	 	1581547240	9.32	17.26
12/02/2020 22:40:42	120220	12022020	224041	236.34	12.225053	-57.069840	236.31	0.890	-2.820	0.480	236.24	-4.20	1.20	 	 	 	 	 	 	 	 	 	 	 	 	 	 	 	 	 	 	1581547241	9.35	17.32
12/02/2020 22:40:43	120220	12022020	224042	235.73	12.225038	-57.069882	235.70	0.140	-2.460	1.640	235.59	-3.70	2.30	 	 	 	 	 	 	 	 	 	 	 	 	 	 	 	 	 	 	1581547242	9.21	17.06
12/02/2020 22:40:44	120220	12022020	224043	235.10	12.225023	-57.069922	235.10	-0.680	-1.490	2.570	234.99	-2.60	3.10	 	 	 	 	 	 	 	 	 	 	 	 	 	 	 	 	 	 	1581547243	9.24	17.11
12/02/2020 22:40:45	120220	12022020	224044	234.75	12.225007	-57.069963	234.82	-1.200	-0.340	2.950	234.75	-1.50	3.30	 	 	 	 	 	 	 	 	 	 	 	 	 	 	 	 	 	 	1581547244	9.39	17.39
12/02/2020 22:40:46	120220	12022020	224045	234.93	12.224987	-57.070003	235.04	-1.240	0.730	2.660	235.02	-0.50	2.90	 	 	 	 	 	 	 	 	 	 	 	 	 	 	 	 	 	 	1581547245	9.44	17.48
12/02/2020 22:40:47	120220	12022020	224046	235.54	12.224963	-57.070042	235.68	-0.920	1.450	1.870	235.69	0.10	2.10	 	 	 	 	 	 	 	 	 	 	 	 	 	 	 	 	 	 	1581547246	9.46	17.52
12/02/2020 22:40:48	120220	12022020	224047	236.30	12.224937	-57.070078	236.41	-0.420	1.610	1.020	236.44	0.10	1.30	 	 	 	 	 	 	 	 	 	 	 	 	 	 	 	 	 	 	1581547247	9.66	17.89
12/02/2020 22:40:49	120220	12022020	224048	236.87	12.224910	-57.070113	236.92	0.050	1.350	0.470	236.95	-0.20	0.80	 	 	 	 	 	 	 	 	 	 	 	 	 	 	 	 	 	 	1581547248	9.70	17.96
12/02/2020 22:40:50	120220	12022020	224049	237.14	12.224883	-57.070150	237.17	0.340	0.900	0.400	237.16	-0.70	0.90	 	 	 	 	 	 	 	 	 	 	 	 	 	 	 	 	 	 	1581547249	9.34	17.30
12/02/2020 22:40:51	120220	12022020	224050	237.10	12.224860	-57.070185	237.09	0.490	0.220	0.730	237.05	-1.40	1.30	 	 	 	 	 	 	 	 	 	 	 	 	 	 	 	 	 	 	1581547250	9.05	16.76
12/02/2020 22:40:52	120220	12022020	224051	236.69	12.224840	-57.070223	236.65	0.660	-0.770	1.310	236.56	-2.40	1.90	 	 	 	 	 	 	 	 	 	 	 	 	 	 	 	 	 	 	1581547251	9.16	16.96
12/02/2020 22:40:53	120220	12022020	224052	235.99	12.224820	-57.070263	235.95	0.860	-1.690	2.000	235.84	-3.20	2.50	 	 	 	 	 	 	 	 	 	 	 	 	 	 	 	 	 	 	1581547252	9.33	17.28
12/02/2020 22:40:54	120220	12022020	224053	235.24	12.224802	-57.070302	235.23	0.860	-2.010	2.490	235.10	-3.40	3.00	 	 	 	 	 	 	 	 	 	 	 	 	 	 	 	 	 	 	1581547253	9.11	16.87
12/02/2020 22:40:55	120220	12022020	224054	234.69	12.224783	-57.070338	234.74	0.500	-1.650	2.560	234.63	-2.90	2.90	 	 	 	 	 	 	 	 	 	 	 	 	 	 	 	 	 	 	1581547254	8.68	16.08
12/02/2020 22:40:56	120220	12022020	224055	234.54	12.224763	-57.070373	234.64	-0.090	-1.020	2.250	234.55	-2.30	2.50	 	 	 	 	 	 	 	 	 	 	 	 	 	 	 	 	 	 	1581547255	8.60	15.93
12/02/2020 22:40:57	120220	12022020	224056	234.76	12.224743	-57.070410	234.87	-0.610	-0.440	1.660	234.83	-1.80	1.90	 	 	 	 	 	 	 	 	 	 	 	 	 	 	 	 	 	 	1581547256	8.89	16.46
12/02/2020 22:40:58	120220	12022020	224057	235.17	12.224720	-57.070447	235.29	-0.750	-0.080	0.900	235.26	-1.50	1.10	 	 	 	 	 	 	 	 	 	 	 	 	 	 	 	 	 	 	1581547257	9.20	17.04
12/02/2020 22:40:59	120220	12022020	224058	235.63	12.224693	-57.070483	235.71	-0.520	0.010	0.240	235.70	-1.40	0.50	 	 	 	 	 	 	 	 	 	 	 	 	 	 	 	 	 	 	1581547258	9.57	17.72
12/02/2020 22:41:00	120220	12022020	224059	235.99	12.224667	-57.070520	236.05	-0.200	-0.010	-0.070	236.05	-1.40	0.30	 	 	 	 	 	 	 	 	 	 	 	 	 	 	 	 	 	 	1581547259	9.77	18.09
12/02/2020 22:41:01	120220	12022020	224100	236.28	12.224642	-57.070558	236.34	-0.050	0.110	0.000	236.33	-1.30	0.50	 	 	 	 	 	 	 	 	 	 	 	 	 	 	 	 	 	 	1581547260	9.53	17.65
12/02/2020 22:41:02	120220	12022020	224101	236.50	12.224620	-57.070593	236.55	-0.060	0.420	0.340	236.53	-0.90	0.90	1015.10	32.90	30.90	22.20	22.30	-2.0	53.0	60.0	389.0	26.0	193.00	4.60	63.00	9.30	17	11656.0	27.4	27.4	1581547261	9.10	16.85
12/02/2020 22:41:03	120220	12022020	224102	236.58	12.224598	-57.070630	236.62	-0.100	0.620	0.830	236.58	-0.80	1.40	 	 	 	 	 	 	 	 	 	 	 	 	 	 	 	 	 	 	1581547262	8.91	16.50
12/02/2020 22:41:04	120220	12022020	224103	236.53	12.224580	-57.070668	236.56	-0.020	0.490	1.280	236.50	-1.00	1.80	 	 	 	 	 	 	 	 	 	 	 	 	 	 	 	 	 	 	1581547263	9.05	16.76
12/02/2020 22:41:05	120220	12022020	224104	236.35	12.224560	-57.070707	236.36	0.180	0.120	1.560	236.30	-1.40	2.00	 	 	 	 	 	 	 	 	 	 	 	 	 	 	 	 	 	 	1581547264	9.16	16.96
12/02/2020 22:41:06	120220	12022020	224105	236.10	12.224538	-57.070743	236.10	0.380	-0.250	1.570	236.05	-1.70	1.90	 	 	 	 	 	 	 	 	 	 	 	 	 	 	 	 	 	 	1581547265	9.04	16.74
12/02/2020 22:41:07	120220	12022020	224106	235.82	12.224517	-57.070778	235.83	0.520	-0.570	1.310	235.77	-2.10	1.60	 	 	 	 	 	 	 	 	 	 	 	 	 	 	 	 	 	 	1581547266	8.88	16.45
12/02/2020 22:41:08	120220	12022020	224107	235.57	12.224493	-57.070813	235.60	0.560	-0.940	0.950	235.53	-2.40	1.30	 	 	 	 	 	 	 	 	 	 	 	 	 	 	 	 	 	 	1581547267	8.97	16.61
12/02/2020 22:41:09	120220	12022020	224108	235.44	12.224468	-57.070850	235.48	0.430	-1.220	0.630	235.43	-2.70	1.00	 	 	 	 	 	 	 	 	 	 	 	 	 	 	 	 	 	 	1581547268	9.08	16.82
12/02/2020 22:41:10	120220	12022020	224109	235.41	12.224447	-57.070887	235.45	0.120	-1.260	0.510	235.41	-2.60	0.90	 	 	 	 	 	 	 	 	 	 	 	 	 	 	 	 	 	 	1581547269	9.05	16.76
12/02/2020 22:41:11	120220	12022020	224110	235.47	12.224425	-57.070923	235.50	-0.280	-1.110	0.630	235.49	-2.50	1.10	 	 	 	 	 	 	 	 	 	 	 	 	 	 	 	 	 	 	1581547270	9.05	16.76
12/02/2020 22:41:12	120220	12022020	224111	235.59	12.224405	-57.070962	235.64	-0.540	-0.920	0.880	235.62	-2.30	1.30	 	 	 	 	 	 	 	 	 	 	 	 	 	 	 	 	 	 	1581547271	9.25	17.13
12/02/2020 22:41:13	120220	12022020	224112	235.76	12.224385	-57.071002	235.81	-0.530	-0.630	0.970	235.81	-1.90	1.30	 	 	 	 	 	 	 	 	 	 	 	 	 	 	 	 	 	 	1581547272	9.42	17.45
12/02/2020 22:41:14	120220	12022020	224113	236.02	12.224363	-57.071038	236.07	-0.340	-0.110	0.860	236.08	-1.40	1.20	 	 	 	 	 	 	 	 	 	 	 	 	 	 	 	 	 	 	1581547273	9.28	17.19
12/02/2020 22:41:15	120220	12022020	224114	236.27	12.224340	-57.071075	236.32	-0.140	0.500	0.720	236.32	-0.80	1.10	 	 	 	 	 	 	 	 	 	 	 	 	 	 	 	 	 	 	1581547274	9.12	16.89
12/02/2020 22:41:16	120220	12022020	224115	236.43	12.224317	-57.071110	236.45	-0.020	0.870	0.580	236.44	-0.50	0.90	 	 	 	 	 	 	 	 	 	 	 	 	 	 	 	 	 	 	1581547275	9.13	16.91
12/02/2020 22:41:17	120220	12022020	224116	236.41	12.224292	-57.071147	236.40	0.050	0.830	0.520	236.37	-0.70	1.00	 	 	 	 	 	 	 	 	 	 	 	 	 	 	 	 	 	 	1581547276	9.32	17.26
12/02/2020 22:41:18	120220	12022020	224117	236.16	12.224267	-57.071183	236.14	0.100	0.480	0.740	236.10	-1.00	1.20	 	 	 	 	 	 	 	 	 	 	 	 	 	 	 	 	 	 	1581547277	9.46	17.52
12/02/2020 22:41:19	120220	12022020	224118	235.85	12.224245	-57.071222	235.84	0.120	0.160	1.120	235.80	-1.30	1.60	 	 	 	 	 	 	 	 	 	 	 	 	 	 	 	 	 	 	1581547278	9.26	17.15
12/02/2020 22:41:20	120220	12022020	224119	235.60	12.224227	-57.071258	235.60	0.150	-0.000	1.510	235.56	-1.50	2.00	 	 	 	 	 	 	 	 	 	 	 	 	 	 	 	 	 	 	1581547279	8.89	16.46
12/02/2020 22:41:21	120220	12022020	224120	235.39	12.224208	-57.071297	235.40	0.240	-0.300	1.610	235.36	-1.80	1.90	 	 	 	 	 	 	 	 	 	 	 	 	 	 	 	 	 	 	1581547280	8.77	16.24
12/02/2020 22:41:22	120220	12022020	224121	235.32	12.224187	-57.071332	235.36	0.410	-0.850	1.230	235.34	-2.40	1.50	 	 	 	 	 	 	 	 	 	 	 	 	 	 	 	 	 	 	1581547281	8.95	16.58
12/02/2020 22:41:23	120220	12022020	224122	235.48	12.224162	-57.071368	235.53	0.540	-1.480	0.600	235.52	-3.00	0.90	 	 	 	 	 	 	 	 	 	 	 	 	 	 	 	 	 	 	1581547282	9.17	16.98
12/02/2020 22:41:24	120220	12022020	224123	235.72	12.224137	-57.071403	235.77	0.480	-1.960	0.180	235.76	-3.40	0.60	 	 	 	 	 	 	 	 	 	 	 	 	 	 	 	 	 	 	1581547283	9.33	17.28
12/02/2020 22:41:25	120220	12022020	224124	235.92	12.224113	-57.071442	235.96	0.180	-1.980	0.230	235.95	-3.30	0.70	 	 	 	 	 	 	 	 	 	 	 	 	 	 	 	 	 	 	1581547284	9.33	17.28
12/02/2020 22:41:26	120220	12022020	224125	236.03	12.224092	-57.071478	236.08	-0.270	-1.330	0.590	236.05	-2.50	1.10	 	 	 	 	 	 	 	 	 	 	 	 	 	 	 	 	 	 	1581547285	9.14	16.93
12/02/2020 22:41:27	120220	12022020	224126	236.08	12.224072	-57.071515	236.13	-0.680	-0.210	1.010	236.08	-1.40	1.50	 	 	 	 	 	 	 	 	 	 	 	 	 	 	 	 	 	 	1581547286	8.88	16.45
12/02/2020 22:41:28	120220	12022020	224127	236.05	12.224052	-57.071553	236.08	-0.870	0.750	1.320	236.04	-0.50	1.80	 	 	 	 	 	 	 	 	 	 	 	 	 	 	 	 	 	 	1581547287	9.02	16.71
12/02/2020 22:41:29	120220	12022020	224128	235.95	12.224030	-57.071592	235.97	-0.720	1.140	1.400	235.92	-0.30	1.80	 	 	 	 	 	 	 	 	 	 	 	 	 	 	 	 	 	 	1581547288	9.47	17.54
12/02/2020 22:41:30	120220	12022020	224129	235.77	12.224003	-57.071630	235.78	-0.330	1.030	1.200	235.74	-0.50	1.50	 	 	 	 	 	 	 	 	 	 	 	 	 	 	 	 	 	 	1581547289	9.81	18.17
12/02/2020 22:41:31	120220	12022020	224130	235.63	12.223978	-57.071667	235.65	0.070	0.750	0.820	235.63	-0.70	1.10	 	 	 	 	 	 	 	 	 	 	 	 	 	 	 	 	 	 	1581547290	9.72	18.00
12/02/2020 22:41:32	120220	12022020	224131	235.68	12.223952	-57.071703	235.70	0.240	0.460	0.440	235.71	-1.00	0.80	 	 	 	 	 	 	 	 	 	 	 	 	 	 	 	 	 	 	1581547291	9.31	17.24
12/02/2020 22:41:33	120220	12022020	224132	235.85	12.223930	-57.071738	235.87	0.170	0.130	0.340	235.88	-1.40	0.80	 	 	 	 	 	 	 	 	 	 	 	 	 	 	 	 	 	 	1581547292	8.96	16.59
12/02/2020 22:41:34	120220	12022020	224133	235.96	12.223910	-57.071775	235.98	0.110	-0.340	0.710	235.96	-1.90	1.20	 	 	 	 	 	 	 	 	 	 	 	 	 	 	 	 	 	 	1581547293	8.92	16.52
12/02/2020 22:41:35	120220	12022020	224134	236.04	12.223893	-57.071813	236.08	0.270	-0.800	1.110	236.06	-2.30	1.60	 	 	 	 	 	 	 	 	 	 	 	 	 	 	 	 	 	 	1581547294	8.95	16.58
12/02/2020 22:41:36	120220	12022020	224135	236.10	12.223873	-57.071850	236.13	0.580	-1.140	1.280	236.10	-2.60	1.70	 	 	 	 	 	 	 	 	 	 	 	 	 	 	 	 	 	 	1581547295	8.86	16.41
12/02/2020 22:41:37	120220	12022020	224136	236.07	12.223852	-57.071887	236.09	0.780	-1.490	1.120	236.06	-3.00	1.40	 	 	 	 	 	 	 	 	 	 	 	 	 	 	 	 	 	 	1581547296	9.03	16.72
12/02/2020 22:41:38	120220	12022020	224137	236.11	12.223827	-57.071923	236.15	0.590	-1.670	0.750	236.14	-3.10	1.10	 	 	 	 	 	 	 	 	 	 	 	 	 	 	 	 	 	 	1581547297	9.25	17.13
12/02/2020 22:41:39	120220	12022020	224138	236.28	12.223803	-57.071958	236.33	0.040	-1.420	0.430	236.32	-2.70	0.80	 	 	 	 	 	 	 	 	 	 	 	 	 	 	 	 	 	 	1581547298	9.21	17.06
12/02/2020 22:41:40	120220	12022020	224139	236.48	12.223780	-57.071995	236.51	-0.550	-0.710	0.250	236.50	-1.90	0.70	 	 	 	 	 	 	 	 	 	 	 	 	 	 	 	 	 	 	1581547299	8.98	16.63
12/02/2020 22:41:41	120220	12022020	224140	236.54	12.223757	-57.072030	236.55	-0.800	0.040	0.330	236.53	-1.20	0.80	 	 	 	 	 	 	 	 	 	 	 	 	 	 	 	 	 	 	1581547300	9.03	16.72
12/02/2020 22:41:42	120220	12022020	224141	236.47	12.223735	-57.072068	236.47	-0.640	0.480	0.630	236.44	-0.90	1.10	 	 	 	 	 	 	 	 	 	 	 	 	 	 	 	 	 	 	1581547301	9.41	17.43
12/02/2020 22:41:43	120220	12022020	224142	236.37	12.223712	-57.072108	236.38	-0.340	0.600	0.910	236.35	-0.80	1.40	 	 	 	 	 	 	 	 	 	 	 	 	 	 	 	 	 	 	1581547302	9.71	17.98
12/02/2020 22:41:44	120220	12022020	224143	236.34	12.223690	-57.072148	236.36	-0.180	0.600	1.020	236.33	-0.80	1.40	 	 	 	 	 	 	 	 	 	 	 	 	 	 	 	 	 	 	1581547303	9.64	17.85
12/02/2020 22:41:45	120220	12022020	224144	236.30	12.223667	-57.072187	236.30	-0.170	0.520	1.070	236.28	-0.90	1.50	 	 	 	 	 	 	 	 	 	 	 	 	 	 	 	 	 	 	1581547304	9.43	17.46
12/02/2020 22:41:46	120220	12022020	224145	236.26	12.223647	-57.072223	236.28	-0.130	0.410	1.070	236.26	-1.00	1.40	 	 	 	 	 	 	 	 	 	 	 	 	 	 	 	 	 	 	1581547305	9.21	17.06
12/02/2020 22:41:47	120220	12022020	224146	236.35	12.223625	-57.072260	236.37	0.030	0.210	0.920	236.38	-1.30	1.30	 	 	 	 	 	 	 	 	 	 	 	 	 	 	 	 	 	 	1581547306	9.01	16.69
12/02/2020 22:41:48	120220	12022020	224147	236.49	12.223603	-57.072297	236.54	0.270	-0.210	0.720	236.52	-1.80	1.10	 	 	 	 	 	 	 	 	 	 	 	 	 	 	 	 	 	 	1581547307	9.04	16.74
12/02/2020 22:41:49	120220	12022020	224148	236.65	12.223582	-57.072333	236.66	0.510	-0.760	0.500	236.66	-2.30	0.80	 	 	 	 	 	 	 	 	 	 	 	 	 	 	 	 	 	 	1581547308	9.10	16.85
12/02/2020 22:41:50	120220	12022020	224149	236.68	12.223558	-57.072370	236.68	0.640	-1.190	0.320	236.67	-2.70	0.70	 	 	 	 	 	 	 	 	 	 	 	 	 	 	 	 	 	 	1581547309	9.05	16.76
12/02/2020 22:41:51	120220	12022020	224150	236.60	12.223535	-57.072405	236.60	0.570	-1.400	0.470	236.58	-2.80	1.00	 	 	 	 	 	 	 	 	 	 	 	 	 	 	 	 	 	 	1581547310	8.99	16.65
12/02/2020 22:41:52	120220	12022020	224151	236.46	12.223515	-57.072443	236.45	0.310	-1.360	0.900	236.43	-2.70	1.40	 	 	 	 	 	 	 	 	 	 	 	 	 	 	 	 	 	 	1581547311	9.09	16.83
12/02/2020 22:41:53	120220	12022020	224152	236.33	12.223495	-57.072482	236.33	-0.060	-0.970	1.260	236.31	-2.30	1.70	 	 	 	 	 	 	 	 	 	 	 	 	 	 	 	 	 	 	1581547312	9.08	16.82
12/02/2020 22:41:54	120220	12022020	224153	236.26	12.223475	-57.072518	236.28	-0.330	-0.370	1.300	236.27	-1.70	1.60	 	 	 	 	 	 	 	 	 	 	 	 	 	 	 	 	 	 	1581547313	9.04	16.74
12/02/2020 22:41:55	120220	12022020	224154	236.39	12.223453	-57.072555	236.43	-0.380	0.170	1.010	236.44	-1.20	1.30	 	 	 	 	 	 	 	 	 	 	 	 	 	 	 	 	 	 	1581547314	9.14	16.93
12/02/2020 22:41:56	120220	12022020	224155	236.63	12.223428	-57.072592	236.66	-0.290	0.420	0.790	236.67	-1.00	1.20	 	 	 	 	 	 	 	 	 	 	 	 	 	 	 	 	 	 	1581547315	9.37	17.35
12/02/2020 22:41:57	120220	12022020	224156	236.77	12.223405	-57.072632	236.79	-0.220	0.350	0.940	236.78	-1.10	1.40	 	 	 	 	 	 	 	 	 	 	 	 	 	 	 	 	 	 	1581547316	9.62	17.82
12/02/2020 22:41:58	120220	12022020	224157	236.80	12.223385	-57.072672	236.81	-0.200	0.190	1.310	236.79	-1.30	1.80	 	 	 	 	 	 	 	 	 	 	 	 	 	 	 	 	 	 	1581547317	9.60	17.78
12/02/2020 22:41:59	120220	12022020	224158	236.77	12.223363	-57.072710	236.78	-0.200	0.120	1.510	236.76	-1.30	1.90	 	 	 	 	 	 	 	 	 	 	 	 	 	 	 	 	 	 	1581547318	9.30	17.22
12/02/2020 22:42:00	120220	12022020	224159	236.75	12.223343	-57.072747	236.76	-0.100	-0.030	1.320	236.74	-1.50	1.60	 	 	 	 	 	 	 	 	 	 	 	 	 	 	 	 	 	 	1581547319	9.05	16.76
12/02/2020 22:42:01	120220	12022020	224200	236.67	12.223320	-57.072783	236.68	0.130	-0.450	0.920	236.64	-2.00	1.20	 	 	 	 	 	 	 	 	 	 	 	 	 	 	 	 	 	 	1581547320	9.22	17.08
12/02/2020 22:42:02	120220	12022020	224201	236.48	12.223295	-57.072820	236.48	0.300	-0.930	0.710	236.44	-2.40	1.10	1015.10	29.80	31.90	21.30	22.30	-2.0	60.0	57.0	388.0	26.0	191.00	5.10	62.00	9.80	17	10199.0	27.4	27.4	1581547321	9.44	17.48
12/02/2020 22:42:03	120220	12022020	224202	236.33	12.223273	-57.072858	236.35	0.220	-0.930	0.770	236.32	-2.30	1.20	 	 	 	 	 	 	 	 	 	 	 	 	 	 	 	 	 	 	1581547322	9.18	17.00
12/02/2020 22:42:04	120220	12022020	224203	236.38	12.223253	-57.072893	236.42	-0.070	-0.320	1.000	236.42	-1.60	1.50	 	 	 	 	 	 	 	 	 	 	 	 	 	 	 	 	 	 	1581547323	8.59	15.91
12/02/2020 22:42:05	120220	12022020	224204	236.61	12.223237	-57.072928	236.66	-0.290	0.290	1.240	236.67	-1.10	1.70	 	 	 	 	 	 	 	 	 	 	 	 	 	 	 	 	 	 	1581547324	8.44	15.63
12/02/2020 22:42:06	120220	12022020	224205	236.94	12.223217	-57.072967	236.99	-0.210	0.370	1.230	237.01	-1.10	1.60	 	 	 	 	 	 	 	 	 	 	 	 	 	 	 	 	 	 	1581547325	8.85	16.39
12/02/2020 22:42:07	120220	12022020	224206	237.28	12.223195	-57.073003	237.33	0.150	-0.060	0.950	237.34	-1.60	1.30	 	 	 	 	 	 	 	 	 	 	 	 	 	 	 	 	 	 	1581547326	9.34	17.30
12/02/2020 22:42:08	120220	12022020	224207	237.49	12.223170	-57.073042	237.52	0.560	-0.670	0.710	237.50	-2.20	1.10	 	 	 	 	 	 	 	 	 	 	 	 	 	 	 	 	 	 	1581547327	9.57	17.72
12/02/2020 22:42:09	120220	12022020	224208	237.39	12.223147	-57.073080	237.39	0.690	-1.160	0.820	237.33	-2.70	1.30	 	 	 	 	 	 	 	 	 	 	 	 	 	 	 	 	 	 	1581547328	9.56	17.71
12/02/2020 22:42:10	120220	12022020	224209	237.02	12.223123	-57.073118	237.01	0.390	-1.270	1.250	236.93	-2.70	1.80	 	 	 	 	 	 	 	 	 	 	 	 	 	 	 	 	 	 	1581547329	9.39	17.39
12/02/2020 22:42:11	120220	12022020	224210	236.61	12.223105	-57.073157	236.62	-0.160	-0.890	1.680	236.55	-2.20	2.10	 	 	 	 	 	 	 	 	 	 	 	 	 	 	 	 	 	 	1581547330	9.12	16.89
12/02/2020 22:42:12	120220	12022020	224211	236.43	12.223087	-57.073195	236.46	-0.630	-0.240	1.740	236.42	-1.50	2.10	 	 	 	 	 	 	 	 	 	 	 	 	 	 	 	 	 	 	1581547331	8.92	16.52
12/02/2020 22:42:13	120220	12022020	224212	236.53	12.223068	-57.073232	236.59	-0.800	0.270	1.330	236.59	-1.10	1.60	 	 	 	 	 	 	 	 	 	 	 	 	 	 	 	 	 	 	1581547332	8.98	16.63
12/02/2020 22:42:14	120220	12022020	224213	236.93	12.223045	-57.073270	236.99	-0.660	0.420	0.660	237.02	-1.00	0.90	 	 	 	 	 	 	 	 	 	 	 	 	 	 	 	 	 	 	1581547333	9.23	17.09
12/02/2020 22:42:15	120220	12022020	224214	237.41	12.223020	-57.073307	237.45	-0.350	0.310	0.070	237.50	-1.20	0.40	 	 	 	 	 	 	 	 	 	 	 	 	 	 	 	 	 	 	1581547334	9.40	17.41
12/02/2020 22:42:16	120220	12022020	224215	237.80	12.222995	-57.073342	237.83	-0.010	0.130	-0.130	237.84	-1.40	0.30	 	 	 	 	 	 	 	 	 	 	 	 	 	 	 	 	 	 	1581547335	9.36	17.33
12/02/2020 22:42:17	120220	12022020	224216	237.86	12.222973	-57.073378	237.86	0.250	-0.050	0.160	237.82	-1.50	0.70	 	 	 	 	 	 	 	 	 	 	 	 	 	 	 	 	 	 	1581547336	9.17	16.98
12/02/2020 22:42:18	120220	12022020	224217	237.55	12.222952	-57.073417	237.52	0.400	-0.180	0.700	237.46	-1.60	1.20	 	 	 	 	 	 	 	 	 	 	 	 	 	 	 	 	 	 	1581547337	9.07	16.80
12/02/2020 22:42:19	120220	12022020	224218	237.04	12.222933	-57.073453	237.02	0.430	-0.230	1.230	236.94	-1.70	1.70	 	 	 	 	 	 	 	 	 	 	 	 	 	 	 	 	 	 	1581547338	8.95	16.58
12/02/2020 22:42:20	120220	12022020	224219	236.59	12.222915	-57.073492	236.59	0.360	-0.280	1.530	236.53	-1.80	1.90	 	 	 	 	 	 	 	 	 	 	 	 	 	 	 	 	 	 	1581547339	8.91	16.50
12/02/2020 22:42:21	120220	12022020	224220	236.39	12.222895	-57.073528	236.42	0.250	-0.490	1.510	236.38	-2.00	1.90	 	 	 	 	 	 	 	 	 	 	 	 	 	 	 	 	 	 	1581547340	8.99	16.65
12/02/2020 22:42:22	120220	12022020	224221	236.42	12.222873	-57.073567	236.47	0.150	-0.870	1.340	236.45	-2.40	1.70	 	 	 	 	 	 	 	 	 	 	 	 	 	 	 	 	 	 	1581547341	9.18	17.00
12/02/2020 22:42:23	120220	12022020	224222	236.62	12.222853	-57.073605	236.68	0.070	-1.190	1.110	236.67	-2.70	1.40	 	 	 	 	 	 	 	 	 	 	 	 	 	 	 	 	 	 	1581547342	9.32	17.26
12/02/2020 22:42:24	120220	12022020	224223	236.83	12.222832	-57.073643	236.93	0.000	-1.210	0.920	236.87	-2.60	1.30	 	 	 	 	 	 	 	 	 	 	 	 	 	 	 	 	 	 	1581547343	9.23	17.09
12/02/2020 22:42:25	120220	12022020	224224	237.05	12.222812	-57.073682	237.10	-0.030	-0.820	0.890	237.08	-2.10	1.30	 	 	 	 	 	 	 	 	 	 	 	 	 	 	 	 	 	 	1581547344	9.03	16.72
12/02/2020 22:42:26	120220	12022020	224225	237.12	12.222790	-57.073717	237.16	-0.070	-0.280	0.920	237.12	-1.60	1.30	 	 	 	 	 	 	 	 	 	 	 	 	 	 	 	 	 	 	1581547345	8.95	16.58
12/02/2020 22:42:27	120220	12022020	224226	237.04	12.222767	-57.073753	237.07	-0.190	0.080	0.910	237.00	-1.30	1.30	 	 	 	 	 	 	 	 	 	 	 	 	 	 	 	 	 	 	1581547346	9.18	17.00
12/02/2020 22:42:28	120220	12022020	224227	236.84	12.222742	-57.073792	236.87	-0.390	0.210	0.930	236.81	-1.20	1.30	 	 	 	 	 	 	 	 	 	 	 	 	 	 	 	 	 	 	1581547347	9.46	17.52
12/02/2020 22:42:29	120220	12022020	224228	236.67	12.222720	-57.073830	236.69	-0.530	0.270	1.040	236.64	-1.10	1.50	 	 	 	 	 	 	 	 	 	 	 	 	 	 	 	 	 	 	1581547348	9.45	17.50
12/02/2020 22:42:30	120220	12022020	224229	236.54	12.222698	-57.073867	236.56	-0.470	0.370	1.180	236.52	-1.00	1.60	 	 	 	 	 	 	 	 	 	 	 	 	 	 	 	 	 	 	1581547349	9.28	17.19
12/02/2020 22:42:31	120220	12022020	224230	236.43	12.222678	-57.073905	236.44	-0.230	0.470	1.280	236.41	-1.00	1.70	 	 	 	 	 	 	 	 	 	 	 	 	 	 	 	 	 	 	1581547350	9.05	16.76
12/02/2020 22:42:32	120220	12022020	224231	236.38	12.222658	-57.073942	236.40	0.090	0.330	1.290	236.38	-1.20	1.70	 	 	 	 	 	 	 	 	 	 	 	 	 	 	 	 	 	 	1581547351	8.98	16.63
12/02/2020 22:42:33	120220	12022020	224232	236.41	12.222635	-57.073980	236.44	0.450	-0.200	1.150	236.43	-1.80	1.50	 	 	 	 	 	 	 	 	 	 	 	 	 	 	 	 	 	 	1581547352	9.19	17.02
12/02/2020 22:42:34	120220	12022020	224233	236.55	12.222613	-57.074017	236.60	0.670	-0.740	0.980	236.59	-2.30	1.30	 	 	 	 	 	 	 	 	 	 	 	 	 	 	 	 	 	 	1581547353	9.25	17.13
12/02/2020 22:42:35	120220	12022020	224234	236.75	12.222592	-57.074052	236.79	0.610	-0.940	0.920	236.78	-2.40	1.30	 	 	 	 	 	 	 	 	 	 	 	 	 	 	 	 	 	 	1581547354	8.93	16.54
12/02/2020 22:42:36	120220	12022020	224235	236.88	12.222572	-57.074088	236.91	0.330	-0.890	1.030	236.88	-2.30	1.50	 	 	 	 	 	 	 	 	 	 	 	 	 	 	 	 	 	 	1581547355	8.71	16.13
12/02/2020 22:42:37	120220	12022020	224236	236.80	12.222552	-57.074125	236.80	0.110	-0.880	1.250	236.76	-2.30	1.70	 	 	 	 	 	 	 	 	 	 	 	 	 	 	 	 	 	 	1581547356	8.88	16.45
12/02/2020 22:42:38	120220	12022020	224237	236.55	12.222530	-57.074162	236.55	0.050	-0.900	1.320	236.50	-2.30	1.70	 	 	 	 	 	 	 	 	 	 	 	 	 	 	 	 	 	 	1581547357	9.20	17.04
12/02/2020 22:42:39	120220	12022020	224238	236.32	12.222507	-57.074200	236.33	-0.010	-0.880	1.220	236.27	-2.30	1.60	 	 	 	 	 	 	 	 	 	 	 	 	 	 	 	 	 	 	1581547358	9.38	17.37
12/02/2020 22:42:40	120220	12022020	224239	236.13	12.222485	-57.074238	236.14	-0.190	-0.790	1.130	236.10	-2.20	1.50	 	 	 	 	 	 	 	 	 	 	 	 	 	 	 	 	 	 	1581547359	9.52	17.63
12/02/2020 22:42:41	120220	12022020	224240	236.10	12.222462	-57.074278	236.14	-0.460	-0.480	0.960	236.13	-1.80	1.30	 	 	 	 	 	 	 	 	 	 	 	 	 	 	 	 	 	 	1581547360	9.45	17.50
12/02/2020 22:42:42	120220	12022020	224241	236.32	12.222440	-57.074315	236.37	-0.620	0.100	0.730	236.38	-1.20	1.10	 	 	 	 	 	 	 	 	 	 	 	 	 	 	 	 	 	 	1581547361	9.19	17.02
12/02/2020 22:42:43	120220	12022020	224242	236.66	12.222417	-57.074350	236.70	-0.560	0.680	0.520	236.72	-0.70	0.90	 	 	 	 	 	 	 	 	 	 	 	 	 	 	 	 	 	 	1581547362	9.02	16.71
12/02/2020 22:42:44	120220	12022020	224243	236.91	12.222393	-57.074385	236.94	-0.330	0.910	0.550	236.94	-0.60	1.00	 	 	 	 	 	 	 	 	 	 	 	 	 	 	 	 	 	 	1581547363	9.12	16.89
12/02/2020 22:42:45	120220	12022020	224244	236.97	12.222370	-57.074423	236.98	-0.090	0.650	1.000	236.95	-0.90	1.50	 	 	 	 	 	 	 	 	 	 	 	 	 	 	 	 	 	 	1581547364	9.37	17.35
12/02/2020 22:42:46	120220	12022020	224245	236.85	12.222348	-57.074463	236.86	0.080	0.160	1.500	236.82	-1.40	2.00	 	 	 	 	 	 	 	 	 	 	 	 	 	 	 	 	 	 	1581547365	9.46	17.52
12/02/2020 22:42:47	120220	12022020	224246	236.71	12.222330	-57.074502	236.74	0.210	-0.250	1.700	236.70	-1.80	2.10	 	 	 	 	 	 	 	 	 	 	 	 	 	 	 	 	 	 	1581547366	9.25	17.13
12/02/2020 22:42:48	120220	12022020	224247	236.70	12.222310	-57.074538	236.73	0.360	-0.490	1.460	236.71	-2.00	1.70	 	 	 	 	 	 	 	 	 	 	 	 	 	 	 	 	 	 	1581547367	8.87	16.43
12/02/2020 22:42:49	120220	12022020	224248	236.85	12.222288	-57.074573	236.89	0.540	-0.780	0.760	236.89	-2.30	1.00	 	 	 	 	 	 	 	 	 	 	 	 	 	 	 	 	 	 	1581547368	8.78	16.26
12/02/2020 22:42:50	120220	12022020	224249	236.99	12.222263	-57.074608	237.00	0.640	-1.300	0.130	236.99	-2.90	0.50	 	 	 	 	 	 	 	 	 	 	 	 	 	 	 	 	 	 	1581547369	9.19	17.02
12/02/2020 22:42:51	120220	12022020	224250	236.86	12.222238	-57.074647	236.85	0.540	-1.650	0.110	236.81	-3.10	0.60	 	 	 	 	 	 	 	 	 	 	 	 	 	 	 	 	 	 	1581547370	9.45	17.50
12/02/2020 22:42:52	120220	12022020	224251	236.53	12.222217	-57.074683	236.51	0.150	-1.410	0.570	236.45	-2.70	1.10	 	 	 	 	 	 	 	 	 	 	 	 	 	 	 	 	 	 	1581547371	9.25	17.13
12/02/2020 22:42:53	120220	12022020	224252	236.17	12.222198	-57.074722	236.18	-0.390	-0.670	1.190	236.13	-1.90	1.70	 	 	 	 	 	 	 	 	 	 	 	 	 	 	 	 	 	 	1581547372	9.02	16.71
12/02/2020 22:42:54	120220	12022020	224253	236.04	12.222180	-57.074760	236.09	-0.780	0.080	1.600	236.05	-1.20	2.00	 	 	 	 	 	 	 	 	 	 	 	 	 	 	 	 	 	 	1581547373	9.08	16.82
12/02/2020 22:42:55	120220	12022020	224254	236.21	12.222160	-57.074800	236.28	-0.820	0.600	1.610	236.27	-0.80	1.90	 	 	 	 	 	 	 	 	 	 	 	 	 	 	 	 	 	 	1581547374	9.25	17.13
12/02/2020 22:42:56	120220	12022020	224255	236.53	12.222137	-57.074837	236.59	-0.570	0.780	1.360	236.59	-0.70	1.70	 	 	 	 	 	 	 	 	 	 	 	 	 	 	 	 	 	 	1581547375	9.38	17.37
12/02/2020 22:42:57	120220	12022020	224256	236.79	12.222113	-57.074875	236.83	-0.170	0.560	1.030	236.82	-1.00	1.30	 	 	 	 	 	 	 	 	 	 	 	 	 	 	 	 	 	 	1581547376	9.52	17.63
12/02/2020 22:42:58	120220	12022020	224257	236.89	12.222088	-57.074913	236.93	0.200	0.140	0.750	236.90	-1.40	1.10	 	 	 	 	 	 	 	 	 	 	 	 	 	 	 	 	 	 	1581547377	9.56	17.71
12/02/2020 22:42:59	120220	12022020	224258	236.87	12.222065	-57.074950	236.89	0.420	-0.110	0.700	236.86	-1.60	1.10	 	 	 	 	 	 	 	 	 	 	 	 	 	 	 	 	 	 	1581547378	9.21	17.06
12/02/2020 22:43:00	120220	12022020	224259	236.77	12.222045	-57.074985	236.79	0.450	-0.220	0.890	236.75	-1.70	1.30	 	 	 	 	 	 	 	 	 	 	 	 	 	 	 	 	 	 	1581547379	8.89	16.46
12/02/2020 22:43:01	120220	12022020	224300	236.65	12.222025	-57.075023	236.68	0.350	-0.480	1.170	236.63	-2.00	1.60	 	 	 	 	 	 	 	 	 	 	 	 	 	 	 	 	 	 	1581547380	8.96	16.59
12/02/2020 22:43:02	120220	12022020	224301	236.59	12.222005	-57.075062	236.62	0.170	-0.790	1.370	236.58	-2.30	1.80	1015.10	28.10	32.30	21.00	22.10	-2.0	65.0	55.0	388.0	26.0	192.00	5.50	63.00	10.20	17	12318.0	27.4	27.4	1581547381	9.14	16.93
12/02/2020 22:43:03	120220	12022020	224302	236.61	12.221983	-57.075098	236.67	-0.010	-0.970	1.390	236.63	-2.40	1.70	 	 	 	 	 	 	 	 	 	 	 	 	 	 	 	 	 	 	1581547382	9.12	16.89
12/02/2020 22:43:04	120220	12022020	224303	236.69	12.221962	-57.075135	236.73	-0.150	-1.010	1.260	236.69	-2.40	1.60	 	 	 	 	 	 	 	 	 	 	 	 	 	 	 	 	 	 	1581547383	9.14	16.93
12/02/2020 22:43:05	120220	12022020	224304	236.69	12.221940	-57.075173	236.72	-0.190	-0.910	1.140	236.67	-2.30	1.50	 	 	 	 	 	 	 	 	 	 	 	 	 	 	 	 	 	 	1581547384	9.20	17.04
12/02/2020 22:43:06	120220	12022020	224305	236.62	12.221917	-57.075208	236.65	-0.160	-0.590	1.020	236.61	-1.90	1.40	 	 	 	 	 	 	 	 	 	 	 	 	 	 	 	 	 	 	1581547385	9.14	16.93
12/02/2020 22:43:07	120220	12022020	224306	236.54	12.221893	-57.075245	236.56	-0.140	-0.190	0.920	236.50	-1.50	1.30	 	 	 	 	 	 	 	 	 	 	 	 	 	 	 	 	 	 	1581547386	9.08	16.82
12/02/2020 22:43:08	120220	12022020	224307	236.35	12.221872	-57.075283	236.36	-0.120	0.040	0.930	236.31	-1.30	1.30	 	 	 	 	 	 	 	 	 	 	 	 	 	 	 	 	 	 	1581547387	9.26	17.15
12/02/2020 22:43:09	120220	12022020	224308	236.18	12.221850	-57.075320	236.21	-0.070	0.200	1.050	236.16	-1.20	1.50	 	 	 	 	 	 	 	 	 	 	 	 	 	 	 	 	 	 	1581547388	9.35	17.32
12/02/2020 22:43:10	120220	12022020	224309	236.19	12.221828	-57.075358	236.23	-0.000	0.440	1.260	236.22	-0.90	1.70	 	 	 	 	 	 	 	 	 	 	 	 	 	 	 	 	 	 	1581547389	9.16	16.96
12/02/2020 22:43:11	120220	12022020	224310	236.42	12.221808	-57.075395	236.49	0.010	0.630	1.440	236.49	-0.80	1.80	 	 	 	 	 	 	 	 	 	 	 	 	 	 	 	 	 	 	1581547390	8.93	16.54
12/02/2020 22:43:12	120220	12022020	224311	236.76	12.221788	-57.075432	236.82	0.020	0.460	1.410	236.82	-1.10	1.80	 	 	 	 	 	 	 	 	 	 	 	 	 	 	 	 	 	 	1581547391	8.99	16.65
12/02/2020 22:43:13	120220	12022020	224312	237.04	12.221767	-57.075470	237.09	0.150	-0.160	1.150	237.08	-1.80	1.50	 	 	 	 	 	 	 	 	 	 	 	 	 	 	 	 	 	 	1581547392	9.27	17.17
12/02/2020 22:43:14	120220	12022020	224313	237.21	12.221742	-57.075508	237.23	0.370	-0.930	0.760	237.22	-2.50	1.10	 	 	 	 	 	 	 	 	 	 	 	 	 	 	 	 	 	 	1581547393	9.45	17.50
12/02/2020 22:43:15	120220	12022020	224314	237.22	12.221717	-57.075543	237.22	0.480	-1.420	0.440	237.21	-2.90	0.80	 	 	 	 	 	 	 	 	 	 	 	 	 	 	 	 	 	 	1581547394	9.32	17.26
12/02/2020 22:43:16	120220	12022020	224315	237.10	12.221693	-57.075580	237.10	0.340	-1.510	0.370	237.08	-2.90	0.80	 	 	 	 	 	 	 	 	 	 	 	 	 	 	 	 	 	 	1581547395	9.15	16.95
12/02/2020 22:43:17	120220	12022020	224316	237.09	12.221673	-57.075617	237.10	-0.050	-1.160	0.490	237.11	-2.40	0.90	 	 	 	 	 	 	 	 	 	 	 	 	 	 	 	 	 	 	1581547396	9.00	16.67
12/02/2020 22:43:18	120220	12022020	224317	237.23	12.221653	-57.075653	237.26	-0.480	-0.480	0.740	237.26	-1.70	1.20	 	 	 	 	 	 	 	 	 	 	 	 	 	 	 	 	 	 	1581547397	8.85	16.39
12/02/2020 22:43:19	120220	12022020	224318	237.31	12.221633	-57.075692	237.32	-0.720	0.120	1.010	237.30	-1.20	1.40	 	 	 	 	 	 	 	 	 	 	 	 	 	 	 	 	 	 	1581547398	8.95	16.58
12/02/2020 22:43:20	120220	12022020	224319	237.18	12.221613	-57.075730	237.18	-0.630	0.300	1.210	237.13	-1.10	1.60	 	 	 	 	 	 	 	 	 	 	 	 	 	 	 	 	 	 	1581547399	9.36	17.33
12/02/2020 22:43:21	120220	12022020	224320	236.91	12.221590	-57.075768	236.91	-0.310	0.180	1.260	236.85	-1.30	1.60	 	 	 	 	 	 	 	 	 	 	 	 	 	 	 	 	 	 	1581547400	9.66	17.89
12/02/2020 22:43:22	120220	12022020	224321	236.66	12.221567	-57.075807	236.68	0.020	0.100	1.090	236.64	-1.30	1.40	 	 	 	 	 	 	 	 	 	 	 	 	 	 	 	 	 	 	1581547401	9.56	17.71
12/02/2020 22:43:23	120220	12022020	224322	236.63	12.221543	-57.075843	236.66	0.230	0.260	0.760	236.65	-1.10	1.10	 	 	 	 	 	 	 	 	 	 	 	 	 	 	 	 	 	 	1581547402	9.13	16.91
12/02/2020 22:43:24	120220	12022020	224323	236.79	12.221522	-57.075878	236.83	0.300	0.480	0.480	236.83	-0.90	0.80	 	 	 	 	 	 	 	 	 	 	 	 	 	 	 	 	 	 	1581547403	8.80	16.30
12/02/2020 22:43:25	120220	12022020	224324	237.00	12.221500	-57.075915	237.03	0.310	0.430	0.390	237.04	-1.10	0.80	 	 	 	 	 	 	 	 	 	 	 	 	 	 	 	 	 	 	1581547404	8.79	16.28
12/02/2020 22:43:26	120220	12022020	224325	237.11	12.221480	-57.075952	237.14	0.360	-0.110	0.500	237.13	-1.70	0.90	 	 	 	 	 	 	 	 	 	 	 	 	 	 	 	 	 	 	1581547405	9.12	16.89
12/02/2020 22:43:27	120220	12022020	224326	237.21	12.221458	-57.075992	237.24	0.460	-0.960	0.680	237.23	-2.60	1.10	 	 	 	 	 	 	 	 	 	 	 	 	 	 	 	 	 	 	1581547406	9.51	17.61
12/02/2020 22:43:28	120220	12022020	224327	237.35	12.221438	-57.076032	237.40	0.430	-1.600	0.820	237.38	-3.10	1.20	 	 	 	 	 	 	 	 	 	 	 	 	 	 	 	 	 	 	1581547407	9.48	17.56
12/02/2020 22:43:29	120220	12022020	224328	237.48	12.221417	-57.076068	237.52	0.150	-1.720	0.990	237.49	-3.10	1.40	 	 	 	 	 	 	 	 	 	 	 	 	 	 	 	 	 	 	1581547408	9.18	17.00
12/02/2020 22:43:30	120220	12022020	224329	237.42	12.221397	-57.076107	237.43	-0.280	-1.420	1.230	237.38	-2.70	1.70	 	 	 	 	 	 	 	 	 	 	 	 	 	 	 	 	 	 	1581547409	9.00	16.67
12/02/2020 22:43:31	120220	12022020	224330	237.12	12.221377	-57.076143	237.12	-0.610	-0.850	1.470	237.04	-2.10	1.90	 	 	 	 	 	 	 	 	 	 	 	 	 	 	 	 	 	 	1581547410	9.05	16.76
12/02/2020 22:43:32	120220	12022020	224331	236.74	12.221355	-57.076180	236.75	-0.690	-0.100	1.630	236.68	-1.30	2.00	 	 	 	 	 	 	 	 	 	 	 	 	 	 	 	 	 	 	1581547411	9.10	16.85
12/02/2020 22:43:33	120220	12022020	224332	236.51	12.221332	-57.076217	236.54	-0.560	0.660	1.540	236.49	-0.60	1.90	 	 	 	 	 	 	 	 	 	 	 	 	 	 	 	 	 	 	1581547412	9.06	16.78
12/02/2020 22:43:34	120220	12022020	224333	236.53	12.221310	-57.076253	236.57	-0.360	1.090	1.240	236.55	-0.30	1.60	 	 	 	 	 	 	 	 	 	 	 	 	 	 	 	 	 	 	1581547413	9.12	16.89
12/02/2020 22:43:35	120220	12022020	224334	236.72	12.221288	-57.076292	236.76	-0.110	1.030	0.960	236.77	-0.50	1.30	 	 	 	 	 	 	 	 	 	 	 	 	 	 	 	 	 	 	1581547414	9.27	17.17
12/02/2020 22:43:36	120220	12022020	224335	236.98	12.221267	-57.076330	237.02	0.250	0.500	0.790	237.03	-1.10	1.20	 	 	 	 	 	 	 	 	 	 	 	 	 	 	 	 	 	 	1581547415	9.44	17.48
12/02/2020 22:43:37	120220	12022020	224336	237.18	12.221245	-57.076370	237.21	0.630	-0.370	0.810	237.20	-2.00	1.30	 	 	 	 	 	 	 	 	 	 	 	 	 	 	 	 	 	 	1581547416	9.61	17.80
12/02/2020 22:43:38	120220	12022020	224337	237.22	12.221223	-57.076410	237.23	0.770	-1.170	1.110	237.20	-2.70	1.60	 	 	 	 	 	 	 	 	 	 	 	 	 	 	 	 	 	 	1581547417	9.61	17.80
12/02/2020 22:43:39	120220	12022020	224338	237.05	12.221202	-57.076448	237.05	0.550	-1.440	1.520	236.99	-2.80	2.00	 	 	 	 	 	 	 	 	 	 	 	 	 	 	 	 	 	 	1581547418	9.29	17.21
12/02/2020 22:43:40	120220	12022020	224339	236.71	12.221185	-57.076485	236.71	0.110	-0.980	1.920	236.64	-2.20	2.40	 	 	 	 	 	 	 	 	 	 	 	 	 	 	 	 	 	 	1581547419	8.69	16.09
12/02/2020 22:43:41	120220	12022020	224340	236.44	12.221167	-57.076520	236.47	-0.290	-0.200	2.060	236.41	-1.50	2.40	 	 	 	 	 	 	 	 	 	 	 	 	 	 	 	 	 	 	1581547420	8.32	15.41
12/02/2020 22:43:42	120220	12022020	224341	236.38	12.221147	-57.076555	236.43	-0.430	0.200	1.800	236.39	-1.20	2.10	 	 	 	 	 	 	 	 	 	 	 	 	 	 	 	 	 	 	1581547421	8.59	15.91
12/02/2020 22:43:43	120220	12022020	224342	236.52	12.221123	-57.076592	236.57	-0.290	-0.060	1.250	236.56	-1.60	1.50	 	 	 	 	 	 	 	 	 	 	 	 	 	 	 	 	 	 	1581547422	9.26	17.15
12/02/2020 22:43:44	120220	12022020	224343	236.70	12.221098	-57.076630	236.75	-0.050	-0.670	0.670	236.73	-2.20	1.00	 	 	 	 	 	 	 	 	 	 	 	 	 	 	 	 	 	 	1581547423	9.75	18.06
12/02/2020 22:43:45	120220	12022020	224344	236.79	12.221072	-57.076668	236.81	0.130	-1.070	0.280	236.80	-2.50	0.60	 	 	 	 	 	 	 	 	 	 	 	 	 	 	 	 	 	 	1581547424	9.75	18.06
12/02/2020 22:43:46	120220	12022020	224345	236.81	12.221048	-57.076705	236.84	0.120	-0.810	0.240	236.81	-2.10	0.70	 	 	 	 	 	 	 	 	 	 	 	 	 	 	 	 	 	 	1581547425	9.26	17.15
12/02/2020 22:43:47	120220	12022020	224346	236.81	12.221027	-57.076740	236.85	-0.050	-0.070	0.620	236.80	-1.30	1.20	 	 	 	 	 	 	 	 	 	 	 	 	 	 	 	 	 	 	1581547426	8.75	16.21
12/02/2020 22:43:48	120220	12022020	224347	236.75	12.221008	-57.076777	236.79	-0.230	0.570	1.300	236.72	-0.80	1.90	 	 	 	 	 	 	 	 	 	 	 	 	 	 	 	 	 	 	1581547427	8.71	16.13
12/02/2020 22:43:49	120220	12022020	224348	236.56	12.220990	-57.076815	236.59	-0.260	0.610	1.950	236.50	-0.90	2.40	 	 	 	 	 	 	 	 	 	 	 	 	 	 	 	 	 	 	1581547428	9.17	16.98
12/02/2020 22:43:50	120220	12022020	224349	236.26	12.220970	-57.076857	236.27	-0.090	0.070	2.220	236.19	-1.50	2.60	 	 	 	 	 	 	 	 	 	 	 	 	 	 	 	 	 	 	1581547429	9.66	17.89
12/02/2020 22:43:51	120220	12022020	224350	235.98	12.220948	-57.076897	236.00	0.150	-0.570	2.110	235.94	-2.10	2.40	 	 	 	 	 	 	 	 	 	 	 	 	 	 	 	 	 	 	1581547430	9.70	17.96
12/02/2020 22:43:52	120220	12022020	224351	235.78	12.220925	-57.076935	235.80	0.280	-0.980	1.760	235.75	-2.40	2.00	 	 	 	 	 	 	 	 	 	 	 	 	 	 	 	 	 	 	1581547431	9.47	17.54
12/02/2020 22:43:53	120220	12022020	224352	235.69	12.220903	-57.076972	235.72	0.250	-0.940	1.220	235.69	-2.30	1.50	 	 	 	 	 	 	 	 	 	 	 	 	 	 	 	 	 	 	1581547432	9.12	16.89
12/02/2020 22:43:54	120220	12022020	224353	235.86	12.220882	-57.077007	235.92	0.120	-0.410	0.510	235.93	-1.70	0.70	 	 	 	 	 	 	 	 	 	 	 	 	 	 	 	 	 	 	1581547433	8.65	16.02
12/02/2020 22:43:55	120220	12022020	224354	236.32	12.220858	-57.077038	236.39	0.020	0.150	-0.160	236.43	-1.20	0.10	 	 	 	 	 	 	 	 	 	 	 	 	 	 	 	 	 	 	1581547434	8.49	15.72
12/02/2020 22:43:56	120220	12022020	224355	236.76	12.220833	-57.077072	236.79	0.050	0.230	-0.400	236.80	-1.30	0.00	 	 	 	 	 	 	 	 	 	 	 	 	 	 	 	 	 	 	1581547435	8.91	16.50
12/02/2020 22:43:57	120220	12022020	224356	236.81	12.220810	-57.077110	236.82	0.080	-0.150	0.060	236.77	-1.70	0.60	 	 	 	 	 	 	 	 	 	 	 	 	 	 	 	 	 	 	1581547436	9.49	17.58
12/02/2020 22:43:58	120220	12022020	224357	236.63	12.220788	-57.077150	236.67	-0.040	-0.460	0.930	236.60	-1.90	1.50	 	 	 	 	 	 	 	 	 	 	 	 	 	 	 	 	 	 	1581547437	9.54	17.67
12/02/2020 22:43:59	120220	12022020	224358	236.52	12.220770	-57.077188	236.58	-0.250	-0.410	1.650	236.50	-1.80	2.10	 	 	 	 	 	 	 	 	 	 	 	 	 	 	 	 	 	 	1581547438	9.16	16.96
12/02/2020 22:44:00	120220	12022020	224359	236.47	12.220752	-57.077227	236.53	-0.330	-0.180	1.930	236.45	-1.60	2.30	 	 	 	 	 	 	 	 	 	 	 	 	 	 	 	 	 	 	1581547439	8.80	16.30
12/02/2020 22:44:01	120220	12022020	224400	236.35	12.220732	-57.077263	236.40	-0.140	-0.190	1.930	236.31	-1.70	2.30	 	 	 	 	 	 	 	 	 	 	 	 	 	 	 	 	 	 	1581547440	8.91	16.50
12/02/2020 22:44:02	120220	12022020	224401	236.06	12.220708	-57.077300	236.08	0.210	-0.540	1.820	235.98	-2.10	2.20	1015.10	28.00	33.20	20.80	21.90	-2.0	64.0	51.0	388.0	26.0	194.00	5.90	65.00	10.50	17	11950.0	27.4	27.4	1581547441	9.32	17.26
12/02/2020 22:44:03	120220	12022020	224402	235.69	12.220685	-57.077338	235.72	0.440	-0.920	1.660	235.63	-2.40	2.00	 	 	 	 	 	 	 	 	 	 	 	 	 	 	 	 	 	 	1581547442	9.54	17.67
12/02/2020 22:44:04	120220	12022020	224403	235.48	12.220662	-57.077377	235.52	0.360	-1.000	1.390	235.46	-2.40	1.70	 	 	 	 	 	 	 	 	 	 	 	 	 	 	 	 	 	 	1581547443	9.39	17.39
12/02/2020 22:44:05	120220	12022020	224404	235.48	12.220640	-57.077413	235.53	0.030	-0.790	1.010	235.50	-2.10	1.30	 	 	 	 	 	 	 	 	 	 	 	 	 	 	 	 	 	 	1581547444	9.16	16.96
12/02/2020 22:44:06	120220	12022020	224405	235.75	12.220617	-57.077448	235.82	-0.280	-0.390	0.560	235.82	-1.70	0.90	 	 	 	 	 	 	 	 	 	 	 	 	 	 	 	 	 	 	1581547445	9.05	16.76
12/02/2020 22:44:07	120220	12022020	224406	236.21	12.220593	-57.077485	236.28	-0.400	-0.020	0.230	236.30	-1.40	0.60	 	 	 	 	 	 	 	 	 	 	 	 	 	 	 	 	 	 	1581547446	9.11	16.87
12/02/2020 22:44:08	120220	12022020	224407	236.62	12.220572	-57.077522	236.68	-0.350	0.250	0.240	236.68	-1.10	0.70	 	 	 	 	 	 	 	 	 	 	 	 	 	 	 	 	 	 	1581547447	9.22	17.08
12/02/2020 22:44:09	120220	12022020	224408	236.80	12.220550	-57.077560	236.83	-0.220	0.410	0.560	236.80	-1.00	1.00	 	 	 	 	 	 	 	 	 	 	 	 	 	 	 	 	 	 	1581547448	9.26	17.15
12/02/2020 22:44:10	120220	12022020	224409	236.71	12.220528	-57.077597	236.74	-0.120	0.500	0.900	236.67	-0.90	1.40	 	 	 	 	 	 	 	 	 	 	 	 	 	 	 	 	 	 	1581547449	9.16	16.96
12/02/2020 22:44:11	120220	12022020	224410	236.45	12.220505	-57.077633	236.47	-0.050	0.510	1.120	236.38	-0.90	1.50	 	 	 	 	 	 	 	 	 	 	 	 	 	 	 	 	 	 	1581547450	8.99	16.65
12/02/2020 22:44:12	120220	12022020	224411	236.14	12.220483	-57.077668	236.17	0.070	0.300	1.110	236.09	-1.20	1.50	 	 	 	 	 	 	 	 	 	 	 	 	 	 	 	 	 	 	1581547451	8.94	16.56
12/02/2020 22:44:13	120220	12022020	224412	235.93	12.220460	-57.077705	235.96	0.260	-0.140	0.950	235.90	-1.70	1.30	 	 	 	 	 	 	 	 	 	 	 	 	 	 	 	 	 	 	1581547452	9.00	16.67
12/02/2020 22:44:14	120220	12022020	224413	235.88	12.220437	-57.077740	235.94	0.440	-0.750	0.830	235.89	-2.30	1.20	 	 	 	 	 	 	 	 	 	 	 	 	 	 	 	 	 	 	1581547453	9.11	16.87
12/02/2020 22:44:15	120220	12022020	224414	236.03	12.220415	-57.077778	236.09	0.540	-1.380	0.740	236.08	-2.90	1.10	 	 	 	 	 	 	 	 	 	 	 	 	 	 	 	 	 	 	1581547454	9.22	17.08
12/02/2020 22:44:16	120220	12022020	224415	236.22	12.220392	-57.077815	236.35	0.500	-1.830	0.660	236.27	-3.30	1.10	 	 	 	 	 	 	 	 	 	 	 	 	 	 	 	 	 	 	1581547455	9.33	17.28
12/02/2020 22:44:17	120220	12022020	224416	236.50	12.220368	-57.077853	236.57	0.260	-1.850	0.690	236.53	-3.20	1.10	 	 	 	 	 	 	 	 	 	 	 	 	 	 	 	 	 	 	1581547456	9.31	17.24
12/02/2020 22:44:18	120220	12022020	224417	236.58	12.220348	-57.077890	236.62	-0.150	-1.370	0.930	236.57	-2.60	1.40	 	 	 	 	 	 	 	 	 	 	 	 	 	 	 	 	 	 	1581547457	9.19	17.02
12/02/2020 22:44:19	120220	12022020	224418	236.44	12.220328	-57.077930	236.48	-0.540	-0.620	1.370	236.39	-1.80	1.90	 	 	 	 	 	 	 	 	 	 	 	 	 	 	 	 	 	 	1581547458	9.19	17.02
12/02/2020 22:44:20	120220	12022020	224419	236.12	12.220308	-57.077968	236.15	-0.720	0.190	1.840	236.04	-1.00	2.30	 	 	 	 	 	 	 	 	 	 	 	 	 	 	 	 	 	 	1581547459	9.29	17.21
12/02/2020 22:44:21	120220	12022020	224420	235.69	12.220288	-57.078007	235.70	-0.650	0.840	2.200	235.59	-0.50	2.60	 	 	 	 	 	 	 	 	 	 	 	 	 	 	 	 	 	 	1581547460	9.39	17.39
12/02/2020 22:44:22	120220	12022020	224421	235.25	12.220265	-57.078047	235.27	-0.400	1.190	2.310	235.19	-0.20	2.70	 	 	 	 	 	 	 	 	 	 	 	 	 	 	 	 	 	 	1581547461	9.51	17.61
12/02/2020 22:44:23	120220	12022020	224422	235.14	12.220242	-57.078083	235.21	-0.120	1.270	1.900	235.18	-0.20	2.10	 	 	 	 	 	 	 	 	 	 	 	 	 	 	 	 	 	 	1581547462	9.41	17.43
12/02/2020 22:44:24	120220	12022020	224423	235.53	12.220217	-57.078118	235.62	0.160	1.080	1.070	235.66	-0.40	1.30	 	 	 	 	 	 	 	 	 	 	 	 	 	 	 	 	 	 	1581547463	9.15	16.95
12/02/2020 22:44:25	120220	12022020	224424	236.19	12.220192	-57.078153	236.28	0.430	0.430	0.280	236.32	-1.20	0.60	 	 	 	 	 	 	 	 	 	 	 	 	 	 	 	 	 	 	1581547464	9.17	16.98
12/02/2020 22:44:26	120220	12022020	224425	236.75	12.220165	-57.078188	236.82	0.640	-0.540	-0.010	236.84	-2.20	0.40	 	 	 	 	 	 	 	 	 	 	 	 	 	 	 	 	 	 	1581547465	9.31	17.24
12/02/2020 22:44:27	120220	12022020	224426	237.11	12.220143	-57.078225	237.17	0.670	-1.270	0.140	237.17	-2.80	0.60	 	 	 	 	 	 	 	 	 	 	 	 	 	 	 	 	 	 	1581547466	9.14	16.93
12/02/2020 22:44:28	120220	12022020	224427	237.38	12.220122	-57.078260	237.44	0.470	-1.550	0.450	237.43	-3.00	0.90	 	 	 	 	 	 	 	 	 	 	 	 	 	 	 	 	 	 	1581547467	8.72	16.15
12/02/2020 22:44:29	120220	12022020	224428	237.53	12.220102	-57.078297	237.57	0.190	-1.660	0.830	237.54	-3.10	1.30	 	 	 	 	 	 	 	 	 	 	 	 	 	 	 	 	 	 	1581547468	8.71	16.13
12/02/2020 22:44:30	120220	12022020	224429	237.46	12.220082	-57.078333	237.48	-0.010	-1.730	1.250	237.42	-3.10	1.70	 	 	 	 	 	 	 	 	 	 	 	 	 	 	 	 	 	 	1581547469	9.09	16.83
12/02/2020 22:44:31	120220	12022020	224430	237.21	12.220060	-57.078372	237.24	-0.130	-1.550	1.640	237.15	-2.90	2.10	 	 	 	 	 	 	 	 	 	 	 	 	 	 	 	 	 	 	1581547470	9.33	17.28
12/02/2020 22:44:32	120220	12022020	224431	236.88	12.220038	-57.078410	236.92	-0.270	-1.000	1.940	236.83	-2.30	2.40	 	 	 	 	 	 	 	 	 	 	 	 	 	 	 	 	 	 	1581547471	9.35	17.32
12/02/2020 22:44:33	120220	12022020	224432	236.59	12.220017	-57.078450	236.64	-0.480	-0.330	1.950	236.54	-1.60	2.30	 	 	 	 	 	 	 	 	 	 	 	 	 	 	 	 	 	 	1581547472	9.42	17.45
12/02/2020 22:44:34	120220	12022020	224433	236.31	12.219995	-57.078490	236.34	-0.640	0.190	1.760	236.26	-1.10	2.10	 	 	 	 	 	 	 	 	 	 	 	 	 	 	 	 	 	 	1581547473	9.67	17.91
12/02/2020 22:44:35	120220	12022020	224434	236.08	12.219973	-57.078530	236.12	-0.610	0.650	1.540	236.05	-0.60	1.90	 	 	 	 	 	 	 	 	 	 	 	 	 	 	 	 	 	 	1581547474	9.78	18.11
12/02/2020 22:44:36	120220	12022020	224435	236.06	12.219950	-57.078568	236.11	-0.370	1.260	1.320	236.10	-0.00	1.60	 	 	 	 	 	 	 	 	 	 	 	 	 	 	 	 	 	 	1581547475	9.41	17.43
12/02/2020 22:44:37	120220	12022020	224436	236.38	12.219928	-57.078605	236.47	-0.050	1.680	0.920	236.50	0.30	1.20	 	 	 	 	 	 	 	 	 	 	 	 	 	 	 	 	 	 	1581547476	9.05	16.76
12/02/2020 22:44:38	120220	12022020	224437	237.07	12.219905	-57.078640	237.18	0.200	1.450	0.360	237.24	-0.10	0.60	 	 	 	 	 	 	 	 	 	 	 	 	 	 	 	 	 	 	1581547477	9.10	16.85
12/02/2020 22:44:39	120220	12022020	224438	237.94	12.219882	-57.078677	238.04	0.390	0.600	-0.090	238.11	-1.10	0.20	 	 	 	 	 	 	 	 	 	 	 	 	 	 	 	 	 	 	1581547478	9.26	17.15
12/02/2020 22:44:40	120220	12022020	224439	238.66	12.219857	-57.078713	238.73	0.580	-0.560	-0.260	238.77	-2.30	0.20	 	 	 	 	 	 	 	 	 	 	 	 	 	 	 	 	 	 	1581547479	9.27	17.17
12/02/2020 22:44:41	120220	12022020	224440	238.97	12.219833	-57.078750	238.98	0.740	-1.660	0.070	238.97	-3.30	0.60	 	 	 	 	 	 	 	 	 	 	 	 	 	 	 	 	 	 	1581547480	9.21	17.06
12/02/2020 22:44:42	120220	12022020	224441	238.79	12.219813	-57.078787	238.78	0.750	-2.230	0.890	238.71	-3.70	1.50	 	 	 	 	 	 	 	 	 	 	 	 	 	 	 	 	 	 	1581547481	8.98	16.63
12/02/2020 22:44:43	120220	12022020	224442	238.33	12.219797	-57.078823	238.33	0.510	-2.050	1.790	238.23	-3.30	2.30	 	 	 	 	 	 	 	 	 	 	 	 	 	 	 	 	 	 	1581547482	8.64	16.00
12/02/2020 22:44:44	120220	12022020	224443	237.86	12.219780	-57.078860	237.88	0.050	-1.430	2.300	237.77	-2.70	2.70	 	 	 	 	 	 	 	 	 	 	 	 	 	 	 	 	 	 	1581547483	8.53	15.80
12/02/2020 22:44:45	120220	12022020	224444	237.46	12.219760	-57.078898	237.50	-0.410	-0.880	2.350	237.39	-2.20	2.70	 	 	 	 	 	 	 	 	 	 	 	 	 	 	 	 	 	 	1581547484	8.91	16.50
12/02/2020 22:44:46	120220	12022020	224445	237.19	12.219740	-57.078937	237.24	-0.600	-0.630	2.110	237.16	-2.00	2.40	 	 	 	 	 	 	 	 	 	 	 	 	 	 	 	 	 	 	1581547485	9.52	17.63
12/02/2020 22:44:47	120220	12022020	224446	237.12	12.219717	-57.078978	237.18	-0.540	-0.450	1.720	237.13	-1.80	2.00	 	 	 	 	 	 	 	 	 	 	 	 	 	 	 	 	 	 	1581547486	9.90	18.33
12/02/2020 22:44:48	120220	12022020	224447	237.26	12.219693	-57.079018	237.34	-0.420	-0.140	1.240	237.32	-1.50	1.50	 	 	 	 	 	 	 	 	 	 	 	 	 	 	 	 	 	 	1581547487	9.88	18.30
12/02/2020 22:44:49	120220	12022020	224448	237.60	12.219670	-57.079057	237.70	-0.400	0.350	0.750	237.68	-0.90	1.00	 	 	 	 	 	 	 	 	 	 	 	 	 	 	 	 	 	 	1581547488	9.65	17.87
12/02/2020 22:44:50	120220	12022020	224449	238.00	12.219647	-57.079095	238.09	-0.440	0.900	0.450	238.09	-0.40	0.80	 	 	 	 	 	 	 	 	 	 	 	 	 	 	 	 	 	 	1581547489	9.39	17.39
12/02/2020 22:44:51	120220	12022020	224450	238.45	12.219625	-57.079132	238.55	-0.400	1.370	0.340	238.55	0.00	0.70	 	 	 	 	 	 	 	 	 	 	 	 	 	 	 	 	 	 	1581547490	9.11	16.87
12/02/2020 22:44:52	120220	12022020	224451	238.92	12.219603	-57.079167	238.99	-0.180	1.510	0.330	239.00	0.00	0.70	 	 	 	 	 	 	 	 	 	 	 	 	 	 	 	 	 	 	1581547491	8.91	16.50
12/02/2020 22:44:53	120220	12022020	224452	239.23	12.219582	-57.079203	239.28	0.220	1.040	0.460	239.27	-0.60	0.90	 	 	 	 	 	 	 	 	 	 	 	 	 	 	 	 	 	 	1581547492	9.02	16.71
12/02/2020 22:44:54	120220	12022020	224453	239.28	12.219560	-57.079242	239.28	0.620	0.040	0.820	239.26	-1.60	1.30	 	 	 	 	 	 	 	 	 	 	 	 	 	 	 	 	 	 	1581547493	9.25	17.13
12/02/2020 22:44:55	120220	12022020	224454	239.00	12.219540	-57.079280	239.01	0.820	-0.960	1.290	238.94	-2.60	1.80	 	 	 	 	 	 	 	 	 	 	 	 	 	 	 	 	 	 	1581547494	9.21	17.06
12/02/2020 22:44:56	120220	12022020	224455	238.65	12.219522	-57.079318	238.65	0.730	-1.580	1.550	238.58	-3.10	2.00	 	 	 	 	 	 	 	 	 	 	 	 	 	 	 	 	 	 	1581547495	8.84	16.37
12/02/2020 22:44:57	120220	12022020	224456	238.30	12.219503	-57.079355	238.30	0.510	-1.920	1.500	238.23	-3.40	1.80	 	 	 	 	 	 	 	 	 	 	 	 	 	 	 	 	 	 	1581547496	8.69	16.09
12/02/2020 22:44:58	120220	12022020	224457	237.96	12.219483	-57.079392	237.96	0.350	-2.160	1.200	237.90	-3.60	1.50	 	 	 	 	 	 	 	 	 	 	 	 	 	 	 	 	 	 	1581547497	8.98	16.63
12/02/2020 22:44:59	120220	12022020	224458	237.77	12.219460	-57.079428	237.79	0.180	-2.050	0.810	237.76	-3.30	1.10	 	 	 	 	 	 	 	 	 	 	 	 	 	 	 	 	 	 	1581547498	9.26	17.15
12/02/2020 22:45:00	120220	12022020	224459	237.83	12.219437	-57.079463	237.87	-0.150	-1.330	0.440	237.87	-2.50	0.80	 	 	 	 	 	 	 	 	 	 	 	 	 	 	 	 	 	 	1581547499	9.14	16.93
12/02/2020 22:45:01	120220	12022020	224500	238.08	12.219413	-57.079500	238.13	-0.580	-0.230	0.220	238.14	-1.40	0.60	 	 	 	 	 	 	 	 	 	 	 	 	 	 	 	 	 	 	1581547500	9.01	16.69
12/02/2020 22:45:02	120220	12022020	224501	238.42	12.219393	-57.079538	238.47	-0.890	0.790	0.270	238.49	-0.50	0.70	1015.10	27.60	33.10	20.90	22.10	-2.0	67.0	52.0	388.0	26.0	194.00	4.40	64.00	9.10	17	12091.0	27.5	27.4	1581547501	9.09	16.83
12/02/2020 22:45:03	120220	12022020	224502	238.77	12.219372	-57.079577	238.83	-0.900	1.350	0.490	238.83	-0.00	1.00	 	 	 	 	 	 	 	 	 	 	 	 	 	 	 	 	 	 	1581547502	9.40	17.41
12/02/2020 22:45:04	120220	12022020	224503	238.95	12.219352	-57.079618	238.98	-0.610	1.230	0.870	238.95	-0.30	1.40	 	 	 	 	 	 	 	 	 	 	 	 	 	 	 	 	 	 	1581547503	9.77	18.09
12/02/2020 22:45:05	120220	12022020	224504	238.81	12.219332	-57.079662	238.81	-0.190	0.590	1.250	238.76	-1.00	1.70	 	 	 	 	 	 	 	 	 	 	 	 	 	 	 	 	 	 	1581547504	10.03	18.58
12/02/2020 22:45:06	120220	12022020	224505	238.54	12.219312	-57.079702	238.55	0.150	0.020	1.280	238.50	-1.50	1.60	 	 	 	 	 	 	 	 	 	 	 	 	 	 	 	 	 	 	1581547505	9.73	18.02
12/02/2020 22:45:07	120220	12022020	224506	238.39	12.219290	-57.079738	238.41	0.310	-0.150	0.860	238.38	-1.60	1.10	 	 	 	 	 	 	 	 	 	 	 	 	 	 	 	 	 	 	1581547506	8.95	16.58
12/02/2020 22:45:08	120220	12022020	224507	238.33	12.219268	-57.079772	238.32	0.380	-0.240	0.390	238.32	-1.70	0.70	 	 	 	 	 	 	 	 	 	 	 	 	 	 	 	 	 	 	1581547507	8.57	15.87
12/02/2020 22:45:09	120220	12022020	224508	238.24	12.219245	-57.079805	238.24	0.420	-0.490	0.100	238.23	-2.00	0.50	 	 	 	 	 	 	 	 	 	 	 	 	 	 	 	 	 	 	1581547508	8.71	16.13
12/02/2020 22:45:10	120220	12022020	224509	238.19	12.219222	-57.079840	238.18	0.420	-0.740	0.130	238.17	-2.20	0.60	 	 	 	 	 	 	 	 	 	 	 	 	 	 	 	 	 	 	1581547509	8.82	16.33
12/02/2020 22:45:11	120220	12022020	224510	238.11	12.219203	-57.079877	238.11	0.350	-0.740	0.480	238.09	-2.10	1.00	 	 	 	 	 	 	 	 	 	 	 	 	 	 	 	 	 	 	1581547510	8.76	16.22
12/02/2020 22:45:12	120220	12022020	224511	238.05	12.219185	-57.079913	238.07	0.250	-0.510	0.950	238.04	-1.90	1.40	 	 	 	 	 	 	 	 	 	 	 	 	 	 	 	 	 	 	1581547511	8.64	16.00
12/02/2020 22:45:13	120220	12022020	224512	238.09	12.219167	-57.079950	238.13	0.200	-0.370	1.220	238.10	-1.80	1.60	 	 	 	 	 	 	 	 	 	 	 	 	 	 	 	 	 	 	1581547512	8.71	16.13
12/02/2020 22:45:14	120220	12022020	224513	238.19	12.219147	-57.079988	238.23	0.230	-0.570	1.320	238.19	-2.10	1.70	 	 	 	 	 	 	 	 	 	 	 	 	 	 	 	 	 	 	1581547513	9.09	16.83
12/02/2020 22:45:15	120220	12022020	224514	238.16	12.219127	-57.080028	238.19	0.250	-1.030	1.520	238.14	-2.50	2.00	 	 	 	 	 	 	 	 	 	 	 	 	 	 	 	 	 	 	1581547514	9.56	17.71
12/02/2020 22:45:16	120220	12022020	224515	238.03	12.219107	-57.080068	238.06	0.140	-1.230	1.780	238.00	-2.60	2.20	 	 	 	 	 	 	 	 	 	 	 	 	 	 	 	 	 	 	1581547515	9.63	17.83
12/02/2020 22:45:17	120220	12022020	224516	237.94	12.219087	-57.080108	237.98	-0.150	-0.820	1.810	237.93	-2.10	2.20	 	 	 	 	 	 	 	 	 	 	 	 	 	 	 	 	 	 	1581547516	9.17	16.98
12/02/2020 22:45:18	120220	12022020	224517	237.99	12.219067	-57.080143	238.06	-0.480	-0.120	1.510	238.03	-1.40	1.80	 	 	 	 	 	 	 	 	 	 	 	 	 	 	 	 	 	 	1581547517	8.75	16.21
12/02/2020 22:45:19	120220	12022020	224518	238.17	12.219045	-57.080180	238.24	-0.610	0.250	0.950	238.22	-1.20	1.20	 	 	 	 	 	 	 	 	 	 	 	 	 	 	 	 	 	 	1581547518	9.01	16.69
12/02/2020 22:45:20	120220	12022020	224519	238.42	12.219020	-57.080217	238.47	-0.520	0.200	0.410	238.47	-1.30	0.70	 	 	 	 	 	 	 	 	 	 	 	 	 	 	 	 	 	 	1581547519	9.50	17.59
12/02/2020 22:45:21	120220	12022020	224520	238.59	12.218995	-57.080255	238.63	-0.330	0.040	0.200	238.61	-1.40	0.60	 	 	 	 	 	 	 	 	 	 	 	 	 	 	 	 	 	 	1581547520	9.62	17.82
12/02/2020 22:45:22	120220	12022020	224521	238.62	12.218973	-57.080293	238.65	-0.190	0.070	0.330	238.61	-1.30	0.80	 	 	 	 	 	 	 	 	 	 	 	 	 	 	 	 	 	 	1581547521	9.37	17.35
12/02/2020 22:45:23	120220	12022020	224522	238.58	12.218952	-57.080330	238.61	-0.120	0.290	0.600	238.56	-1.10	1.10	 	 	 	 	 	 	 	 	 	 	 	 	 	 	 	 	 	 	1581547522	8.97	16.61
12/02/2020 22:45:24	120220	12022020	224523	238.47	12.218933	-57.080367	238.49	-0.030	0.470	1.010	238.43	-0.90	1.50	 	 	 	 	 	 	 	 	 	 	 	 	 	 	 	 	 	 	1581547523	8.76	16.22
12/02/2020 22:45:25	120220	12022020	224524	238.20	12.218913	-57.080403	238.22	0.150	0.360	1.490	238.14	-1.10	2.00	 	 	 	 	 	 	 	 	 	 	 	 	 	 	 	 	 	 	1581547524	8.88	16.45
12/02/2020 22:45:26	120220	12022020	224525	237.95	12.218895	-57.080442	237.99	0.350	0.060	1.790	237.92	-1.40	2.20	 	 	 	 	 	 	 	 	 	 	 	 	 	 	 	 	 	 	1581547525	8.98	16.63
12/02/2020 22:45:27	120220	12022020	224526	237.93	12.218877	-57.080478	237.99	0.500	-0.190	1.750	237.96	-1.60	2.10	 	 	 	 	 	 	 	 	 	 	 	 	 	 	 	 	 	 	1581547526	8.78	16.26
12/02/2020 22:45:28	120220	12022020	224527	238.18	12.218857	-57.080513	238.26	0.600	-0.450	1.320	238.25	-2.00	1.60	 	 	 	 	 	 	 	 	 	 	 	 	 	 	 	 	 	 	1581547527	8.56	15.85
12/02/2020 22:45:29	120220	12022020	224528	238.45	12.218835	-57.080550	238.50	0.710	-1.090	0.790	238.49	-2.70	1.10	 	 	 	 	 	 	 	 	 	 	 	 	 	 	 	 	 	 	1581547528	8.83	16.35
12/02/2020 22:45:30	120220	12022020	224529	238.47	12.218813	-57.080588	238.47	0.750	-2.040	0.620	238.47	-3.70	1.00	 	 	 	 	 	 	 	 	 	 	 	 	 	 	 	 	 	 	1581547529	9.51	17.61
12/02/2020 22:45:31	120220	12022020	224530	238.22	12.218792	-57.080628	238.21	0.530	-2.620	0.770	238.17	-4.00	1.20	 	 	 	 	 	 	 	 	 	 	 	 	 	 	 	 	 	 	1581547530	9.80	18.15
12/02/2020 22:45:32	120220	12022020	224531	237.96	12.218772	-57.080668	237.96	-0.050	-2.190	0.990	237.92	-3.40	1.40	 	 	 	 	 	 	 	 	 	 	 	 	 	 	 	 	 	 	1581547531	9.40	17.41
12/02/2020 22:45:33	120220	12022020	224532	237.85	12.218752	-57.080705	237.88	-0.740	-0.830	1.080	237.86	-1.90	1.40	 	 	 	 	 	 	 	 	 	 	 	 	 	 	 	 	 	 	1581547532	8.85	16.39
12/02/2020 22:45:34	120220	12022020	224533	238.03	12.218732	-57.080740	238.08	-1.250	0.800	0.880	238.08	-0.30	1.20	 	 	 	 	 	 	 	 	 	 	 	 	 	 	 	 	 	 	1581547533	8.60	15.93
12/02/2020 22:45:35	120220	12022020	224534	238.30	12.218708	-57.080777	238.35	-1.340	1.820	0.680	238.34	0.50	1.10	 	 	 	 	 	 	 	 	 	 	 	 	 	 	 	 	 	 	1581547534	9.02	16.71
12/02/2020 22:45:36	120220	12022020	224535	238.43	12.218685	-57.080815	238.45	-1.000	1.920	0.730	238.43	0.40	1.20	 	 	 	 	 	 	 	 	 	 	 	 	 	 	 	 	 	 	1581547535	9.70	17.96
12/02/2020 22:45:37	120220	12022020	224536	238.33	12.218660	-57.080855	238.35	-0.420	1.420	1.040	238.29	-0.20	1.50	 	 	 	 	 	 	 	 	 	 	 	 	 	 	 	 	 	 	1581547536	9.90	18.33
12/02/2020 22:45:38	120220	12022020	224537	238.08	12.218640	-57.080895	238.09	0.100	0.680	1.510	238.02	-0.90	2.00	 	 	 	 	 	 	 	 	 	 	 	 	 	 	 	 	 	 	1581547537	9.65	17.87
12/02/2020 22:45:39	120220	12022020	224538	237.82	12.218622	-57.080933	237.84	0.420	-0.000	1.930	237.77	-1.60	2.40	 	 	 	 	 	 	 	 	 	 	 	 	 	 	 	 	 	 	1581547538	9.12	16.89
12/02/2020 22:45:40	120220	12022020	224539	237.54	12.218603	-57.080972	237.57	0.650	-0.610	2.140	237.48	-2.20	2.50	 	 	 	 	 	 	 	 	 	 	 	 	 	 	 	 	 	 	1581547539	8.74	16.19
12/02/2020 22:45:41	120220	12022020	224540	237.24	12.218585	-57.081007	237.26	0.860	-1.180	1.920	237.19	-2.70	2.20	 	 	 	 	 	 	 	 	 	 	 	 	 	 	 	 	 	 	1581547540	8.61	15.95
12/02/2020 22:45:42	120220	12022020	224541	237.08	12.218565	-57.081042	237.09	0.950	-1.580	1.270	237.06	-3.00	1.50	 	 	 	 	 	 	 	 	 	 	 	 	 	 	 	 	 	 	1581547541	8.59	15.91
12/02/2020 22:45:43	120220	12022020	224542	237.11	12.218542	-57.081075	237.17	0.800	-1.730	0.490	237.17	-3.10	0.70	 	 	 	 	 	 	 	 	 	 	 	 	 	 	 	 	 	 	1581547542	8.66	16.04
12/02/2020 22:45:44	120220	12022020	224543	237.49	12.218518	-57.081110	237.57	0.390	-1.640	-0.050	237.59	-3.00	0.30	 	 	 	 	 	 	 	 	 	 	 	 	 	 	 	 	 	 	1581547543	8.83	16.35
12/02/2020 22:45:45	120220	12022020	224544	238.01	12.218495	-57.081147	238.09	-0.110	-1.350	-0.120	238.11	-2.60	0.30	 	 	 	 	 	 	 	 	 	 	 	 	 	 	 	 	 	 	1581547544	9.08	16.82
12/02/2020 22:45:46	120220	12022020	224545	238.49	12.218475	-57.081183	238.57	-0.520	-0.730	0.190	238.58	-2.00	0.70	 	 	 	 	 	 	 	 	 	 	 	 	 	 	 	 	 	 	1581547545	9.22	17.08
12/02/2020 22:45:47	120220	12022020	224546	238.87	12.218453	-57.081222	238.94	-0.790	0.150	0.540	238.91	-1.10	1.00	 	 	 	 	 	 	 	 	 	 	 	 	 	 	 	 	 	 	1581547546	9.08	16.82
12/02/2020 22:45:48	120220	12022020	224547	238.99	12.218432	-57.081258	239.03	-0.940	0.860	0.920	238.97	-0.50	1.40	 	 	 	 	 	 	 	 	 	 	 	 	 	 	 	 	 	 	1581547547	9.11	16.87
12/02/2020 22:45:49	120220	12022020	224548	238.75	12.218410	-57.081297	238.76	-0.960	1.110	1.410	238.66	-0.30	1.90	 	 	 	 	 	 	 	 	 	 	 	 	 	 	 	 	 	 	1581547548	9.33	17.28
12/02/2020 22:45:50	120220	12022020	224549	238.21	12.218390	-57.081337	238.20	-0.780	0.940	1.840	238.08	-0.60	2.30	 	 	 	 	 	 	 	 	 	 	 	 	 	 	 	 	 	 	1581547549	9.45	17.50
12/02/2020 22:45:51	120220	12022020	224550	237.57	12.218370	-57.081377	237.57	-0.360	0.500	2.010	237.45	-1.00	2.40	 	 	 	 	 	 	 	 	 	 	 	 	 	 	 	 	 	 	1581547550	9.43	17.46
12/02/2020 22:45:52	120220	12022020	224551	237.07	12.218350	-57.081415	237.09	0.200	0.100	1.750	237.00	-1.40	2.00	 	 	 	 	 	 	 	 	 	 	 	 	 	 	 	 	 	 	1581547551	9.12	16.89
12/02/2020 22:45:53	120220	12022020	224552	236.83	12.218330	-57.081450	236.87	0.680	-0.190	1.210	236.82	-1.70	1.40	 	 	 	 	 	 	 	 	 	 	 	 	 	 	 	 	 	 	1581547552	8.71	16.13
12/02/2020 22:45:54	120220	12022020	224553	236.90	12.218308	-57.081483	236.97	0.940	-0.510	0.510	236.97	-2.00	0.70	 	 	 	 	 	 	 	 	 	 	 	 	 	 	 	 	 	 	1581547553	8.58	15.89
12/02/2020 22:45:55	120220	12022020	224554	237.39	12.218285	-57.081517	237.48	0.900	-0.910	-0.280	237.53	-2.40	-0.00	 	 	 	 	 	 	 	 	 	 	 	 	 	 	 	 	 	 	1581547554	8.70	16.11
12/02/2020 22:45:56	120220	12022020	224555	238.00	12.218262	-57.081552	238.24	0.620	-1.260	-0.760	238.14	-2.70	-0.40	 	 	 	 	 	 	 	 	 	 	 	 	 	 	 	 	 	 	1581547555	8.84	16.37
12/02/2020 22:45:57	120220	12022020	224556	238.77	12.218238	-57.081587	238.82	0.240	-1.380	-0.670	238.87	-2.80	-0.20	 	 	 	 	 	 	 	 	 	 	 	 	 	 	 	 	 	 	1581547556	8.89	16.46
12/02/2020 22:45:58	120220	12022020	224557	239.12	12.218218	-57.081623	239.14	-0.110	-1.180	-0.190	239.15	-2.50	0.40	 	 	 	 	 	 	 	 	 	 	 	 	 	 	 	 	 	 	1581547557	8.84	16.37
12/02/2020 22:45:59	120220	12022020	224558	239.17	12.218200	-57.081660	239.17	-0.360	-0.700	0.520	239.14	-2.00	1.10	 	 	 	 	 	 	 	 	 	 	 	 	 	 	 	 	 	 	1581547558	8.80	16.30
12/02/2020 22:46:00	120220	12022020	224559	238.94	12.218182	-57.081698	238.92	-0.490	-0.140	1.210	238.86	-1.40	1.70	 	 	 	 	 	 	 	 	 	 	 	 	 	 	 	 	 	 	1581547559	8.87	16.43
12/02/2020 22:46:01	120220	12022020	224600	238.51	12.218163	-57.081737	238.49	-0.450	0.300	1.650	238.41	-1.00	2.10	 	 	 	 	 	 	 	 	 	 	 	 	 	 	 	 	 	 	1581547560	9.00	16.67
12/02/2020 22:46:02	120220	12022020	224601	237.97	12.218143	-57.081775	237.95	-0.220	0.500	1.850	237.87	-0.90	2.20	1015.10	27.30	30.50	21.30	21.80	-2.0	69.0	59.0	387.0	26.0	188.00	4.20	62.00	8.80	17	11125.0	27.4	27.4	1581547561	9.18	17.00
12/02/2020 22:46:03	120220	12022020	224602	237.54	12.218122	-57.081812	237.54	0.060	0.490	1.750	237.49	-1.00	2.10	 	 	 	 	 	 	 	 	 	 	 	 	 	 	 	 	 	 	1581547562	9.25	17.13
12/02/2020 22:46:04	120220	12022020	224603	237.38	12.218100	-57.081848	237.41	0.180	0.350	1.410	237.37	-1.10	1.70	 	 	 	 	 	 	 	 	 	 	 	 	 	 	 	 	 	 	1581547563	9.10	16.85
12/02/2020 22:46:05	120220	12022020	224604	237.41	12.218078	-57.081885	237.46	0.120	0.030	0.960	237.43	-1.50	1.20	 	 	 	 	 	 	 	 	 	 	 	 	 	 	 	 	 	 	1581547564	9.00	16.67
12/02/2020 22:46:06	120220	12022020	224605	237.51	12.218055	-57.081922	237.57	0.060	-0.480	0.560	237.54	-2.00	0.90	 	 	 	 	 	 	 	 	 	 	 	 	 	 	 	 	 	 	1581547565	9.06	16.78
12/02/2020 22:46:07	120220	12022020	224606	237.66	12.218033	-57.081958	237.73	0.060	-0.930	0.360	237.71	-2.40	0.70	 	 	 	 	 	 	 	 	 	 	 	 	 	 	 	 	 	 	1581547566	9.14	16.93
12/02/2020 22:46:08	120220	12022020	224607	238.00	12.218013	-57.081995	238.10	0.010	-1.030	0.240	238.11	-2.40	0.60	 	 	 	 	 	 	 	 	 	 	 	 	 	 	 	 	 	 	1581547567	8.88	16.45
12/02/2020 22:46:09	120220	12022020	224608	238.58	12.217993	-57.082030	238.68	-0.120	-0.780	0.190	238.69	-2.10	0.60	 	 	 	 	 	 	 	 	 	 	 	 	 	 	 	 	 	 	1581547568	8.56	15.85
12/02/2020 22:46:10	120220	12022020	224609	239.06	12.217973	-57.082065	239.13	-0.160	-0.510	0.320	239.12	-1.90	0.80	 	 	 	 	 	 	 	 	 	 	 	 	 	 	 	 	 	 	1581547569	8.59	15.91
12/02/2020 22:46:11	120220	12022020	224610	239.22	12.217953	-57.082102	239.24	0.030	-0.360	0.720	239.21	-1.70	1.20	 	 	 	 	 	 	 	 	 	 	 	 	 	 	 	 	 	 	1581547570	8.87	16.43
12/02/2020 22:46:12	120220	12022020	224611	239.08	12.217932	-57.082138	239.11	0.310	-0.150	1.150	239.04	-1.50	1.60	 	 	 	 	 	 	 	 	 	 	 	 	 	 	 	 	 	 	1581547571	9.01	16.69
12/02/2020 22:46:13	120220	12022020	224612	238.86	12.217912	-57.082175	238.88	0.420	0.130	1.400	238.81	-1.20	1.80	 	 	 	 	 	 	 	 	 	 	 	 	 	 	 	 	 	 	1581547572	8.89	16.46
12/02/2020 22:46:14	120220	12022020	224613	238.66	12.217893	-57.082213	238.69	0.290	0.230	1.460	238.62	-1.20	1.80	 	 	 	 	 	 	 	 	 	 	 	 	 	 	 	 	 	 	1581547573	8.90	16.48
12/02/2020 22:46:15	120220	12022020	224614	238.37	12.217873	-57.082252	238.36	0.090	0.040	1.500	238.28	-1.50	1.90	 	 	 	 	 	 	 	 	 	 	 	 	 	 	 	 	 	 	1581547574	9.13	16.91
12/02/2020 22:46:16	120220	12022020	224615	237.93	12.217853	-57.082290	237.91	-0.040	-0.290	1.570	237.83	-1.80	2.00	 	 	 	 	 	 	 	 	 	 	 	 	 	 	 	 	 	 	1581547575	9.25	17.13
12/02/2020 22:46:17	120220	12022020	224616	237.53	12.217833	-57.082328	237.54	-0.120	-0.510	1.500	237.47	-1.90	1.80	 	 	 	 	 	 	 	 	 	 	 	 	 	 	 	 	 	 	1581547576	9.10	16.85
12/02/2020 22:46:18	120220	12022020	224617	237.31	12.217812	-57.082363	237.34	-0.190	-0.560	1.170	237.28	-2.00	1.50	 	 	 	 	 	 	 	 	 	 	 	 	 	 	 	 	 	 	1581547577	8.86	16.41
12/02/2020 22:46:19	120220	12022020	224618	237.28	12.217788	-57.082398	237.34	-0.200	-0.560	0.730	237.31	-2.00	1.00	 	 	 	 	 	 	 	 	 	 	 	 	 	 	 	 	 	 	1581547578	8.83	16.35
12/02/2020 22:46:20	120220	12022020	224619	237.44	12.217767	-57.082433	237.59	-0.120	-0.460	0.320	237.51	-1.80	0.60	 	 	 	 	 	 	 	 	 	 	 	 	 	 	 	 	 	 	1581547579	8.82	16.33
12/02/2020 22:46:21	120220	12022020	224620	237.90	12.217745	-57.082468	237.98	-0.020	-0.250	0.140	237.98	-1.60	0.60	 	 	 	 	 	 	 	 	 	 	 	 	 	 	 	 	 	 	1581547580	8.71	16.13
12/02/2020 22:46:22	120220	12022020	224621	238.28	12.217725	-57.082503	238.35	0.070	-0.110	0.370	238.34	-1.50	0.90	 	 	 	 	 	 	 	 	 	 	 	 	 	 	 	 	 	 	1581547581	8.71	16.13
12/02/2020 22:46:23	120220	12022020	224622	238.56	12.217707	-57.082542	238.61	0.150	-0.230	0.830	238.59	-1.70	1.30	 	 	 	 	 	 	 	 	 	 	 	 	 	 	 	 	 	 	1581547582	8.95	16.58
12/02/2020 22:46:24	120220	12022020	224623	238.62	12.217688	-57.082582	238.64	0.170	-0.560	1.340	238.60	-2.10	1.80	 	 	 	 	 	 	 	 	 	 	 	 	 	 	 	 	 	 	1581547583	9.22	17.08
12/02/2020 22:46:25	120220	12022020	224624	238.36	12.217668	-57.082622	238.36	0.100	-0.900	1.810	238.28	-2.30	2.30	 	 	 	 	 	 	 	 	 	 	 	 	 	 	 	 	 	 	1581547584	9.40	17.41
12/02/2020 22:46:26	120220	12022020	224625	237.93	12.217648	-57.082660	237.95	-0.080	-0.900	2.090	237.85	-2.20	2.50	 	 	 	 	 	 	 	 	 	 	 	 	 	 	 	 	 	 	1581547585	9.25	17.13
12/02/2020 22:46:27	120220	12022020	224626	237.58	12.217628	-57.082697	237.61	-0.320	-0.440	2.000	237.53	-1.70	2.30	 	 	 	 	 	 	 	 	 	 	 	 	 	 	 	 	 	 	1581547586	8.84	16.37
12/02/2020 22:46:28	120220	12022020	224627	237.41	12.217608	-57.082732	237.43	-0.460	0.210	1.640	237.39	-1.10	1.90	 	 	 	 	 	 	 	 	 	 	 	 	 	 	 	 	 	 	1581547587	8.55	15.83
12/02/2020 22:46:29	120220	12022020	224628	237.34	12.217587	-57.082765	237.37	-0.340	0.660	1.190	237.34	-0.70	1.50	 	 	 	 	 	 	 	 	 	 	 	 	 	 	 	 	 	 	1581547588	8.61	15.95
12/02/2020 22:46:30	120220	12022020	224629	237.25	12.217562	-57.082800	237.26	-0.010	0.630	0.870	237.22	-0.90	1.20	 	 	 	 	 	 	 	 	 	 	 	 	 	 	 	 	 	 	1581547589	8.94	16.56
12/02/2020 22:46:31	120220	12022020	224630	237.12	12.217538	-57.082835	237.14	0.350	0.250	0.780	237.10	-1.30	1.20	 	 	 	 	 	 	 	 	 	 	 	 	 	 	 	 	 	 	1581547590	9.19	17.02
12/02/2020 22:46:32	120220	12022020	224631	237.14	12.217517	-57.082872	237.19	0.530	-0.130	0.930	237.17	-1.60	1.40	 	 	 	 	 	 	 	 	 	 	 	 	 	 	 	 	 	 	1581547591	9.04	16.74
12/02/2020 22:46:33	120220	12022020	224632	237.44	12.217498	-57.082908	237.52	0.470	-0.460	1.180	237.53	-2.00	1.60	 	 	 	 	 	 	 	 	 	 	 	 	 	 	 	 	 	 	1581547592	8.79	16.28
12/02/2020 22:46:34	120220	12022020	224633	237.90	12.217480	-57.082947	237.98	0.280	-0.870	1.430	237.90	-2.40	1.90	 	 	 	 	 	 	 	 	 	 	 	 	 	 	 	 	 	 	1581547593	8.82	16.33
12/02/2020 22:46:35	120220	12022020	224634	238.26	12.217463	-57.082985	238.32	0.110	-1.260	1.600	238.31	-2.70	2.00	 	 	 	 	 	 	 	 	 	 	 	 	 	 	 	 	 	 	1581547594	8.96	16.59
12/02/2020 22:46:36	120220	12022020	224635	238.39	12.217445	-57.083023	238.44	0.000	-1.300	1.670	238.39	-2.60	2.10	 	 	 	 	 	 	 	 	 	 	 	 	 	 	 	 	 	 	1581547595	8.90	16.48
12/02/2020 22:46:37	120220	12022020	224636	238.34	12.217425	-57.083058	238.38	-0.110	-0.890	1.540	238.33	-2.20	1.90	 	 	 	 	 	 	 	 	 	 	 	 	 	 	 	 	 	 	1581547596	8.63	15.98
12/02/2020 22:46:38	120220	12022020	224637	238.22	12.217403	-57.083092	238.23	-0.300	-0.340	1.230	238.17	-1.70	1.60	 	 	 	 	 	 	 	 	 	 	 	 	 	 	 	 	 	 	1581547597	8.59	15.91
12/02/2020 22:46:39	120220	12022020	224638	237.94	12.217380	-57.083127	237.94	-0.500	-0.060	1.010	237.87	-1.40	1.40	 	 	 	 	 	 	 	 	 	 	 	 	 	 	 	 	 	 	1581547598	8.92	16.52
12/02/2020 22:46:40	120220	12022020	224639	237.61	12.217357	-57.083165	237.63	-0.560	-0.020	0.980	237.56	-1.40	1.40	 	 	 	 	 	 	 	 	 	 	 	 	 	 	 	 	 	 	1581547599	9.28	17.19
12/02/2020 22:46:41	120220	12022020	224640	237.47	12.217333	-57.083202	237.51	-0.450	0.000	1.060	237.47	-1.40	1.50	 	 	 	 	 	 	 	 	 	 	 	 	 	 	 	 	 	 	1581547600	9.32	17.26
12/02/2020 22:46:42	120220	12022020	224641	237.56	12.217313	-57.083240	237.63	-0.240	0.150	1.150	237.61	-1.20	1.60	 	 	 	 	 	 	 	 	 	 	 	 	 	 	 	 	 	 	1581547601	9.10	16.85
12/02/2020 22:46:43	120220	12022020	224642	237.86	12.217295	-57.083277	237.94	-0.040	0.310	1.160	237.93	-1.10	1.50	 	 	 	 	 	 	 	 	 	 	 	 	 	 	 	 	 	 	1581547602	8.85	16.39
12/02/2020 22:46:44	120220	12022020	224643	238.22	12.217275	-57.083313	238.31	0.150	0.270	1.030	238.30	-1.20	1.40	 	 	 	 	 	 	 	 	 	 	 	 	 	 	 	 	 	 	1581547603	8.84	16.37
12/02/2020 22:46:45	120220	12022020	224644	238.55	12.217255	-57.083350	238.61	0.320	0.060	0.850	238.60	-1.40	1.20	 	 	 	 	 	 	 	 	 	 	 	 	 	 	 	 	 	 	1581547604	8.92	16.52
12/02/2020 22:46:46	120220	12022020	224645	238.75	12.217233	-57.083387	238.79	0.350	-0.160	0.710	238.75	-1.60	1.10	 	 	 	 	 	 	 	 	 	 	 	 	 	 	 	 	 	 	1581547605	8.80	16.30
12/02/2020 22:46:47	120220	12022020	224646	238.70	12.217213	-57.083422	238.72	0.270	-0.370	0.820	238.66	-1.80	1.30	 	 	 	 	 	 	 	 	 	 	 	 	 	 	 	 	 	 	1581547606	8.70	16.11
12/02/2020 22:46:48	120220	12022020	224647	238.44	12.217195	-57.083458	238.44	0.170	-0.620	1.040	238.44	-2.10	1.50	 	 	 	 	 	 	 	 	 	 	 	 	 	 	 	 	 	 	1581547607	8.73	16.17
12/02/2020 22:46:49	120220	12022020	224648	238.09	12.217175	-57.083495	238.09	0.100	-0.900	1.090	238.03	-2.40	1.50	 	 	 	 	 	 	 	 	 	 	 	 	 	 	 	 	 	 	1581547608	8.84	16.37
12/02/2020 22:46:50	120220	12022020	224649	237.74	12.217153	-57.083532	237.75	0.020	-1.090	0.980	237.67	-2.50	1.30	 	 	 	 	 	 	 	 	 	 	 	 	 	 	 	 	 	 	1581547609	8.93	16.54
12/02/2020 22:46:51	120220	12022020	224650	237.49	12.217132	-57.083567	237.51	-0.100	-1.030	0.740	237.47	-2.40	1.10	 	 	 	 	 	 	 	 	 	 	 	 	 	 	 	 	 	 	1581547610	8.90	16.48
12/02/2020 22:46:52	120220	12022020	224651	237.43	12.217110	-57.083602	237.48	-0.240	-0.670	0.530	237.44	-2.00	0.90	 	 	 	 	 	 	 	 	 	 	 	 	 	 	 	 	 	 	1581547611	8.78	16.26
12/02/2020 22:46:53	120220	12022020	224652	237.58	12.217090	-57.083638	237.64	-0.340	-0.190	0.480	237.63	-1.50	0.90	 	 	 	 	 	 	 	 	 	 	 	 	 	 	 	 	 	 	1581547612	8.76	16.22
12/02/2020 22:46:54	120220	12022020	224653	237.90	12.217070	-57.083675	237.97	-0.360	0.230	0.540	237.98	-1.10	1.00	 	 	 	 	 	 	 	 	 	 	 	 	 	 	 	 	 	 	1581547613	8.84	16.37
12/02/2020 22:46:55	120220	12022020	224654	238.22	12.217052	-57.083712	238.28	-0.260	0.400	0.730	238.26	-1.00	1.20	 	 	 	 	 	 	 	 	 	 	 	 	 	 	 	 	 	 	1581547614	8.95	16.58
12/02/2020 22:46:56	120220	12022020	224655	238.29	12.217033	-57.083752	238.31	-0.050	0.250	1.130	238.26	-1.30	1.60	 	 	 	 	 	 	 	 	 	 	 	 	 	 	 	 	 	 	1581547615	9.15	16.95
12/02/2020 22:46:57	120220	12022020	224656	238.05	12.217013	-57.083790	238.05	0.230	-0.110	1.520	237.99	-1.60	2.00	 	 	 	 	 	 	 	 	 	 	 	 	 	 	 	 	 	 	1581547616	9.27	17.17
12/02/2020 22:46:58	120220	12022020	224657	237.74	12.216992	-57.083828	237.75	0.370	-0.370	1.660	237.69	-1.80	2.10	 	 	 	 	 	 	 	 	 	 	 	 	 	 	 	 	 	 	1581547617	9.16	16.96
12/02/2020 22:46:59	120220	12022020	224658	237.50	12.216970	-57.083863	237.52	0.250	-0.440	1.660	237.46	-1.90	2.00	 	 	 	 	 	 	 	 	 	 	 	 	 	 	 	 	 	 	1581547618	8.89	16.46
12/02/2020 22:47:00	120220	12022020	224659	237.32	12.216950	-57.083900	237.35	-0.030	-0.370	1.590	237.30	-1.80	1.90	 	 	 	 	 	 	 	 	 	 	 	 	 	 	 	 	 	 	1581547619	8.71	16.13
12/02/2020 22:47:01	120220	12022020	224700	237.24	12.216930	-57.083935	237.28	-0.230	-0.220	1.340	237.24	-1.60	1.60	 	 	 	 	 	 	 	 	 	 	 	 	 	 	 	 	 	 	1581547620	8.61	15.95
12/02/2020 22:47:02	120220	12022020	224701	237.31	12.216910	-57.083970	237.36	-0.280	-0.140	0.860	237.34	-1.60	1.10	1015.20	27.70	29.80	21.60	21.80	-2.0	69.0	62.0	387.0	26.1	180.00	4.40	58.00	9.00	17	9828.0	27.5	27.5	1581547621	8.59	15.91
12/02/2020 22:47:03	120220	12022020	224702	237.53	12.216887	-57.084003	237.59	-0.160	-0.280	0.300	237.59	-1.80	0.60	 	 	 	 	 	 	 	 	 	 	 	 	 	 	 	 	 	 	1581547622	8.82	16.33
12/02/2020 22:47:04	120220	12022020	224703	237.83	12.216862	-57.084038	237.89	0.020	-0.520	-0.110	237.89	-2.00	0.30	 	 	 	 	 	 	 	 	 	 	 	 	 	 	 	 	 	 	1581547623	9.00	16.67
12/02/2020 22:47:05	120220	12022020	224704	238.10	12.216840	-57.084073	238.15	0.110	-0.660	-0.070	238.14	-2.10	0.40	 	 	 	 	 	 	 	 	 	 	 	 	 	 	 	 	 	 	1581547624	8.94	16.56
12/02/2020 22:47:06	120220	12022020	224705	238.20	12.216820	-57.084112	238.24	0.050	-0.650	0.560	238.18	-2.10	1.10	 	 	 	 	 	 	 	 	 	 	 	 	 	 	 	 	 	 	1581547625	8.84	16.37
12/02/2020 22:47:07	120220	12022020	224706	238.01	12.216803	-57.084150	238.04	-0.000	-0.610	1.380	237.95	-2.00	1.90	 	 	 	 	 	 	 	 	 	 	 	 	 	 	 	 	 	 	1581547626	8.92	16.52
12/02/2020 22:47:08	120220	12022020	224707	237.66	12.216785	-57.084188	237.69	0.050	-0.520	1.950	237.59	-1.90	2.40	 	 	 	 	 	 	 	 	 	 	 	 	 	 	 	 	 	 	1581547627	9.03	16.72
12/02/2020 22:47:09	120220	12022020	224708	237.33	12.216765	-57.084225	237.36	0.130	-0.360	2.000	237.28	-1.70	2.40	 	 	 	 	 	 	 	 	 	 	 	 	 	 	 	 	 	 	1581547628	9.02	16.71
12/02/2020 22:47:10	120220	12022020	224709	237.18	12.216743	-57.084262	237.20	0.100	-0.080	1.730	237.16	-1.40	2.00	 	 	 	 	 	 	 	 	 	 	 	 	 	 	 	 	 	 	1581547629	8.89	16.46
12/02/2020 22:47:11	120220	12022020	224710	237.12	12.216723	-57.084297	237.16	-0.090	0.210	1.420	237.11	-1.20	1.80	 	 	 	 	 	 	 	 	 	 	 	 	 	 	 	 	 	 	1581547630	8.75	16.21
12/02/2020 22:47:12	120220	12022020	224711	237.10	12.216703	-57.084333	237.12	-0.260	0.280	1.230	237.09	-1.20	1.60	 	 	 	 	 	 	 	 	 	 	 	 	 	 	 	 	 	 	1581547631	8.82	16.33
12/02/2020 22:47:13	120220	12022020	224712	237.14	12.216682	-57.084370	237.19	-0.230	0.100	1.010	237.17	-1.40	1.30	 	 	 	 	 	 	 	 	 	 	 	 	 	 	 	 	 	 	1581547632	9.02	16.71
12/02/2020 22:47:14	120220	12022020	224713	237.42	12.216660	-57.084407	237.48	-0.030	-0.150	0.640	237.49	-1.60	1.00	 	 	 	 	 	 	 	 	 	 	 	 	 	 	 	 	 	 	1581547633	8.98	16.63
12/02/2020 22:47:15	120220	12022020	224714	237.80	12.216638	-57.084443	237.86	0.150	-0.440	0.370	237.86	-1.90	0.80	 	 	 	 	 	 	 	 	 	 	 	 	 	 	 	 	 	 	1581547634	8.92	16.52
12/02/2020 22:47:16	120220	12022020	224715	238.01	12.216617	-57.084478	238.04	0.180	-0.690	0.410	238.02	-2.10	0.90	 	 	 	 	 	 	 	 	 	 	 	 	 	 	 	 	 	 	1581547635	8.93	16.54
12/02/2020 22:47:17	120220	12022020	224716	238.00	12.216597	-57.084515	238.03	0.080	-0.680	0.640	237.98	-2.00	1.10	 	 	 	 	 	 	 	 	 	 	 	 	 	 	 	 	 	 	1581547636	8.77	16.24
12/02/2020 22:47:18	120220	12022020	224717	237.88	12.216577	-57.084550	237.92	-0.000	-0.390	0.850	237.86	-1.70	1.30	 	 	 	 	 	 	 	 	 	 	 	 	 	 	 	 	 	 	1581547637	8.49	15.72
12/02/2020 22:47:19	120220	12022020	224718	237.80	12.216557	-57.084583	237.83	0.050	-0.170	0.830	237.79	-1.60	1.20	 	 	 	 	 	 	 	 	 	 	 	 	 	 	 	 	 	 	1581547638	8.52	15.78
12/02/2020 22:47:20	120220	12022020	224719	237.83	12.216533	-57.084618	237.87	0.170	-0.230	0.660	237.85	-1.70	1.00	 	 	 	 	 	 	 	 	 	 	 	 	 	 	 	 	 	 	1581547639	8.82	16.33
12/02/2020 22:47:21	120220	12022020	224720	237.92	12.216510	-57.084655	237.95	0.200	-0.510	0.730	237.93	-2.00	1.20	 	 	 	 	 	 	 	 	 	 	 	 	 	 	 	 	 	 	1581547640	9.14	16.93
12/02/2020 22:47:22	120220	12022020	224721	237.87	12.216490	-57.084693	237.89	0.010	-0.700	1.230	237.83	-2.10	1.80	 	 	 	 	 	 	 	 	 	 	 	 	 	 	 	 	 	 	1581547641	9.17	16.98
12/02/2020 22:47:23	120220	12022020	224722	237.59	12.216473	-57.084732	237.59	-0.280	-0.680	1.910	237.52	-2.10	2.40	 	 	 	 	 	 	 	 	 	 	 	 	 	 	 	 	 	 	1581547642	9.08	16.82
12/02/2020 22:47:24	120220	12022020	224723	237.27	12.216457	-57.084772	237.29	-0.470	-0.520	2.350	237.27	-1.90	2.80	 	 	 	 	 	 	 	 	 	 	 	 	 	 	 	 	 	 	1581547643	9.09	16.83
12/02/2020 22:47:25	120220	12022020	224724	237.11	12.216438	-57.084810	237.14	-0.430	-0.180	2.240	237.09	-1.50	2.50	 	 	 	 	 	 	 	 	 	 	 	 	 	 	 	 	 	 	1581547644	8.91	16.50
12/02/2020 22:47:26	120220	12022020	224725	237.04	12.216418	-57.084845	237.08	-0.190	0.150	1.690	237.04	-1.20	1.90	 	 	 	 	 	 	 	 	 	 	 	 	 	 	 	 	 	 	1581547645	8.78	16.26
12/02/2020 22:47:27	120220	12022020	224726	237.05	12.216393	-57.084880	237.09	0.060	0.270	0.910	237.06	-1.20	1.10	 	 	 	 	 	 	 	 	 	 	 	 	 	 	 	 	 	 	1581547646	8.88	16.45
12/02/2020 22:47:28	120220	12022020	224727	237.15	12.216368	-57.084913	237.18	0.230	0.160	0.230	237.18	-1.30	0.50	 	 	 	 	 	 	 	 	 	 	 	 	 	 	 	 	 	 	1581547647	8.96	16.59
12/02/2020 22:47:29	120220	12022020	224728	237.28	12.216345	-57.084948	237.31	0.320	-0.120	-0.090	237.30	-1.60	0.30	 	 	 	 	 	 	 	 	 	 	 	 	 	 	 	 	 	 	1581547648	9.00	16.67
12/02/2020 22:47:30	120220	12022020	224729	237.29	12.216322	-57.084985	237.31	0.380	-0.480	0.110	237.28	-1.90	0.60	 	 	 	 	 	 	 	 	 	 	 	 	 	 	 	 	 	 	1581547649	9.08	16.82
12/02/2020 22:47:31	120220	12022020	224730	237.24	12.216302	-57.085022	237.27	0.310	-0.530	0.540	237.23	-1.90	1.00	 	 	 	 	 	 	 	 	 	 	 	 	 	 	 	 	 	 	1581547650	8.90	16.48
12/02/2020 22:47:32	120220	12022020	224731	237.27	12.216285	-57.085057	237.32	0.050	-0.170	0.850	237.30	-1.50	1.30	 	 	 	 	 	 	 	 	 	 	 	 	 	 	 	 	 	 	1581547651	8.41	15.58
12/02/2020 22:47:33	120220	12022020	224732	237.48	12.216268	-57.085093	237.54	-0.170	0.110	0.870	237.54	-1.30	1.20	 	 	 	 	 	 	 	 	 	 	 	 	 	 	 	 	 	 	1581547652	8.27	15.32
12/02/2020 22:47:34	120220	12022020	224733	237.82	12.216248	-57.085128	237.88	-0.120	-0.070	0.680	237.90	-1.60	1.00	 	 	 	 	 	 	 	 	 	 	 	 	 	 	 	 	 	 	1581547653	8.61	15.95
12/02/2020 22:47:35	120220	12022020	224734	238.16	12.216227	-57.085165	238.19	0.170	-0.630	0.410	238.21	-2.20	0.80	 	 	 	 	 	 	 	 	 	 	 	 	 	 	 	 	 	 	1581547654	9.10	16.85
12/02/2020 22:47:36	120220	12022020	224735	238.28	12.216202	-57.085200	238.30	0.380	-1.160	0.320	238.28	-2.60	0.80	 	 	 	 	 	 	 	 	 	 	 	 	 	 	 	 	 	 	1581547655	9.31	17.24
12/02/2020 22:47:37	120220	12022020	224736	238.20	12.216178	-57.085237	238.20	0.250	-1.290	0.600	238.15	-2.70	1.10	 	 	 	 	 	 	 	 	 	 	 	 	 	 	 	 	 	 	1581547656	9.13	16.91
12/02/2020 22:47:38	120220	12022020	224737	237.97	12.216158	-57.085273	237.88	-0.130	-0.960	1.260	237.88	-2.30	1.80	 	 	 	 	 	 	 	 	 	 	 	 	 	 	 	 	 	 	1581547657	8.84	16.37
12/02/2020 22:47:39	120220	12022020	224738	237.39	12.216140	-57.085312	237.39	-0.500	-0.420	1.950	237.30	-1.70	2.50	 	 	 	 	 	 	 	 	 	 	 	 	 	 	 	 	 	 	1581547658	8.77	16.24
12/02/2020 22:47:40	120220	12022020	224739	236.96	12.216123	-57.085348	236.99	-0.630	0.050	2.220	236.91	-1.30	2.60	 	 	 	 	 	 	 	 	 	 	 	 	 	 	 	 	 	 	1581547659	8.89	16.46
12/02/2020 22:47:41	120220	12022020	224740	236.78	12.216103	-57.085387	236.82	-0.510	0.310	1.950	236.76	-1.10	2.20	 	 	 	 	 	 	 	 	 	 	 	 	 	 	 	 	 	 	1581547660	8.99	16.65
12/02/2020 22:47:42	120220	12022020	224741	236.75	12.216083	-57.085423	236.79	-0.230	0.370	1.420	236.74	-1.10	1.70	 	 	 	 	 	 	 	 	 	 	 	 	 	 	 	 	 	 	1581547661	9.06	16.78
12/02/2020 22:47:43	120220	12022020	224742	236.78	12.216060	-57.085460	236.84	0.040	0.280	0.850	236.82	-1.20	1.10	 	 	 	 	 	 	 	 	 	 	 	 	 	 	 	 	 	 	1581547662	9.02	16.71
12/02/2020 22:47:44	120220	12022020	224743	237.05	12.216038	-57.085495	237.12	0.220	0.140	0.250	237.14	-1.30	0.50	 	 	 	 	 	 	 	 	 	 	 	 	 	 	 	 	 	 	1581547663	8.85	16.39
12/02/2020 22:47:45	120220	12022020	224744	237.57	12.216015	-57.085528	237.66	0.330	-0.050	-0.200	237.69	-1.50	0.20	 	 	 	 	 	 	 	 	 	 	 	 	 	 	 	 	 	 	1581547664	8.71	16.13
12/02/2020 22:47:46	120220	12022020	224745	238.16	12.215993	-57.085563	238.24	0.430	-0.270	-0.340	238.27	-1.70	0.10	 	 	 	 	 	 	 	 	 	 	 	 	 	 	 	 	 	 	1581547665	8.61	15.95
12/02/2020 22:47:47	120220	12022020	224746	238.64	12.215973	-57.085598	238.69	0.480	-0.410	-0.220	238.71	-1.80	0.30	 	 	 	 	 	 	 	 	 	 	 	 	 	 	 	 	 	 	1581547666	8.53	15.80
12/02/2020 22:47:48	120220	12022020	224747	238.87	12.215955	-57.085633	238.91	0.420	-0.370	0.190	238.88	-1.80	0.70	 	 	 	 	 	 	 	 	 	 	 	 	 	 	 	 	 	 	1581547667	8.37	15.50
12/02/2020 22:47:49	120220	12022020	224748	238.81	12.215937	-57.085667	238.84	0.260	-0.270	0.720	238.77	-1.70	1.20	 	 	 	 	 	 	 	 	 	 	 	 	 	 	 	 	 	 	1581547668	8.27	15.32
12/02/2020 22:47:50	120220	12022020	224749	238.53	12.215917	-57.085702	238.54	0.080	-0.360	1.130	238.45	-1.80	1.60	 	 	 	 	 	 	 	 	 	 	 	 	 	 	 	 	 	 	1581547669	8.42	15.59
12/02/2020 22:47:51	120220	12022020	224750	238.10	12.215897	-57.085737	238.11	-0.020	-0.760	1.340	238.01	-2.30	1.80	 	 	 	 	 	 	 	 	 	 	 	 	 	 	 	 	 	 	1581547670	8.74	16.19
12/02/2020 22:47:52	120220	12022020	224751	237.56	12.215875	-57.085775	237.56	-0.020	-1.380	1.510	237.44	-2.90	2.00	 	 	 	 	 	 	 	 	 	 	 	 	 	 	 	 	 	 	1581547671	9.17	16.98
12/02/2020 22:47:53	120220	12022020	224752	236.94	12.215855	-57.085813	236.94	-0.070	-1.770	1.740	236.82	-3.20	2.20	 	 	 	 	 	 	 	 	 	 	 	 	 	 	 	 	 	 	1581547672	9.34	17.30
12/02/2020 22:47:54	120220	12022020	224753	236.52	12.215837	-57.085852	236.56	-0.300	-1.450	1.850	236.48	-2.70	2.30	 	 	 	 	 	 	 	 	 	 	 	 	 	 	 	 	 	 	1581547673	8.97	16.61
12/02/2020 22:47:55	120220	12022020	224754	236.44	12.215820	-57.085888	236.51	-0.560	-0.460	1.760	236.45	-1.60	2.10	 	 	 	 	 	 	 	 	 	 	 	 	 	 	 	 	 	 	1581547674	8.37	15.50
12/02/2020 22:47:56	120220	12022020	224755	236.60	12.215803	-57.085922	236.68	-0.590	0.600	1.490	236.64	-0.60	1.80	 	 	 	 	 	 	 	 	 	 	 	 	 	 	 	 	 	 	1581547675	8.16	15.11
12/02/2020 22:47:57	120220	12022020	224756	236.86	12.215783	-57.085957	236.94	-0.330	1.090	1.090	236.92	-0.30	1.40	 	 	 	 	 	 	 	 	 	 	 	 	 	 	 	 	 	 	1581547676	8.54	15.82
12/02/2020 22:47:58	120220	12022020	224757	237.17	12.215758	-57.085992	237.24	0.010	0.940	0.620	237.24	-0.60	0.90	 	 	 	 	 	 	 	 	 	 	 	 	 	 	 	 	 	 	1581547677	9.06	16.78
12/02/2020 22:47:59	120220	12022020	224758	237.53	12.215735	-57.086027	237.61	0.200	0.630	0.090	237.61	-0.80	0.40	 	 	 	 	 	 	 	 	 	 	 	 	 	 	 	 	 	 	1581547678	9.04	16.74
12/02/2020 22:48:00	120220	12022020	224759	237.84	12.215710	-57.086060	237.99	0.200	0.460	-0.410	237.92	-1.00	-0.10	 	 	 	 	 	 	 	 	 	 	 	 	 	 	 	 	 	 	1581547679	8.52	15.78
12/02/2020 22:48:01	120220	12022020	224800	238.21	12.215688	-57.086090	238.25	0.230	0.290	-0.600	238.24	-1.20	-0.10	 	 	 	 	 	 	 	 	 	 	 	 	 	 	 	 	 	 	1581547680	8.08	14.96
12/02/2020 22:48:02	120220	12022020	224801	238.22	12.215668	-57.086123	238.22	0.420	-0.330	-0.160	238.18	-1.90	0.50	1015.20	28.60	29.10	21.90	21.70	-2.0	66.0	64.0	387.0	26.1	186.00	4.50	60.00	9.00	17	10988.0	27.5	27.4	1581547681	8.23	15.24
12/02/2020 22:48:03	120220	12022020	224802	237.88	12.215650	-57.086160	237.89	0.650	-1.290	0.920	237.79	-2.90	1.60	 	 	 	 	 	 	 	 	 	 	 	 	 	 	 	 	 	 	1581547682	8.74	16.19
12/02/2020 22:48:04	120220	12022020	224803	237.31	12.215635	-57.086200	237.31	0.670	-1.950	2.200	237.18	-3.40	2.90	 	 	 	 	 	 	 	 	 	 	 	 	 	 	 	 	 	 	1581547683	8.86	16.41
12/02/2020 22:48:05	120220	12022020	224804	236.59	12.215622	-57.086237	236.60	0.420	-1.890	3.200	236.45	-3.20	3.70	 	 	 	 	 	 	 	 	 	 	 	 	 	 	 	 	 	 	1581547684	8.53	15.80
12/02/2020 22:48:06	120220	12022020	224805	235.99	12.215607	-57.086272	236.03	0.020	-1.190	3.560	235.90	-2.40	3.90	 	 	 	 	 	 	 	 	 	 	 	 	 	 	 	 	 	 	1581547685	8.06	14.93
12/02/2020 22:48:07	120220	12022020	224806	235.66	12.215588	-57.086305	235.73	-0.340	-0.320	3.290	235.63	-1.60	3.60	 	 	 	 	 	 	 	 	 	 	 	 	 	 	 	 	 	 	1581547686	7.92	14.67
12/02/2020 22:48:08	120220	12022020	224807	235.64	12.215567	-57.086337	235.72	-0.520	0.220	2.530	235.67	-1.10	2.70	 	 	 	 	 	 	 	 	 	 	 	 	 	 	 	 	 	 	1581547687	8.25	15.28
12/02/2020 22:48:09	120220	12022020	224808	235.97	12.215543	-57.086372	236.07	-0.480	0.240	1.440	236.07	-1.20	1.60	 	 	 	 	 	 	 	 	 	 	 	 	 	 	 	 	 	 	1581547688	8.78	16.26
12/02/2020 22:48:10	120220	12022020	224809	236.55	12.215518	-57.086405	236.66	-0.320	-0.090	0.380	236.69	-1.60	0.60	 	 	 	 	 	 	 	 	 	 	 	 	 	 	 	 	 	 	1581547689	9.14	16.93
12/02/2020 22:48:11	120220	12022020	224810	237.16	12.215493	-57.086440	237.24	-0.200	-0.290	-0.200	237.27	-1.70	0.10	 	 	 	 	 	 	 	 	 	 	 	 	 	 	 	 	 	 	1581547690	9.01	16.69
12/02/2020 22:48:12	120220	12022020	224811	237.61	12.215472	-57.086473	237.67	-0.190	0.040	-0.400	237.67	-1.20	0.00	 	 	 	 	 	 	 	 	 	 	 	 	 	 	 	 	 	 	1581547691	8.35	15.46
12/02/2020 22:48:13	120220	12022020	224812	237.81	12.215453	-57.086505	237.84	-0.240	0.630	-0.220	237.82	-0.70	0.30	 	 	 	 	 	 	 	 	 	 	 	 	 	 	 	 	 	 	1581547692	7.76	14.37
12/02/2020 22:48:14	120220	12022020	224813	237.77	12.215435	-57.086537	237.79	-0.190	0.840	0.290	237.74	-0.60	0.90	 	 	 	 	 	 	 	 	 	 	 	 	 	 	 	 	 	 	1581547693	7.83	14.50
12/02/2020 22:48:15	120220	12022020	224814	237.64	12.215417	-57.086570	237.68	0.040	0.500	0.940	237.62	-1.00	1.50	 	 	 	 	 	 	 	 	 	 	 	 	 	 	 	 	 	 	1581547694	8.24	15.26
12/02/2020 22:48:16	120220	12022020	224815	237.51	12.215398	-57.086607	237.56	0.390	-0.120	1.490	237.49	-1.70	2.00	 	 	 	 	 	 	 	 	 	 	 	 	 	 	 	 	 	 	1581547695	8.41	15.58
12/02/2020 22:48:17	120220	12022020	224816	237.32	12.215380	-57.086640	237.36	0.670	-0.750	1.790	237.28	-2.30	2.20	 	 	 	 	 	 	 	 	 	 	 	 	 	 	 	 	 	 	1581547696	8.31	15.39
12/02/2020 22:48:18	120220	12022020	224817	237.04	12.215362	-57.086673	237.07	0.710	-1.220	1.800	236.98	-2.70	2.20	 	 	 	 	 	 	 	 	 	 	 	 	 	 	 	 	 	 	1581547697	8.18	15.15
12/02/2020 22:48:19	120220	12022020	224818	236.72	12.215342	-57.086707	236.73	0.490	-1.430	1.720	236.65	-2.80	2.10	 	 	 	 	 	 	 	 	 	 	 	 	 	 	 	 	 	 	1581547698	8.04	14.89
12/02/2020 22:48:20	120220	12022020	224819	236.37	12.215323	-57.086738	236.38	0.130	-1.300	1.630	236.30	-2.60	2.00	 	 	 	 	 	 	 	 	 	 	 	 	 	 	 	 	 	 	1581547699	7.95	14.72
12/02/2020 22:48:21	120220	12022020	224820	236.14	12.215305	-57.086772	236.18	-0.190	-0.860	1.410	236.13	-2.10	1.70	 	 	 	 	 	 	 	 	 	 	 	 	 	 	 	 	 	 	1581547700	7.88	14.59
12/02/2020 22:48:22	120220	12022020	224821	236.25	12.215287	-57.086803	236.32	-0.380	-0.400	0.940	236.32	-1.70	1.20	 	 	 	 	 	 	 	 	 	 	 	 	 	 	 	 	 	 	1581547701	7.93	14.69
12/02/2020 22:48:23	120220	12022020	224822	236.73	12.215267	-57.086837	236.83	-0.430	-0.150	0.320	236.87	-1.50	0.60	 	 	 	 	 	 	 	 	 	 	 	 	 	 	 	 	 	 	1581547702	8.19	15.17
12/02/2020 22:48:24	120220	12022020	224823	237.40	12.215245	-57.086870	237.49	-0.410	-0.040	-0.170	237.53	-1.40	0.20	 	 	 	 	 	 	 	 	 	 	 	 	 	 	 	 	 	 	1581547703	8.43	15.61
12/02/2020 22:48:25	120220	12022020	224824	237.90	12.215223	-57.086903	237.97	-0.370	0.140	-0.180	237.96	-1.20	0.30	 	 	 	 	 	 	 	 	 	 	 	 	 	 	 	 	 	 	1581547704	8.33	15.43
12/02/2020 22:48:26	120220	12022020	224825	238.03	12.215203	-57.086935	238.06	-0.290	0.400	0.200	238.03	-0.90	0.70	 	 	 	 	 	 	 	 	 	 	 	 	 	 	 	 	 	 	1581547705	8.11	15.02
12/02/2020 22:48:27	120220	12022020	224826	237.91	12.215185	-57.086968	237.93	-0.190	0.640	0.680	237.87	-0.80	1.20	 	 	 	 	 	 	 	 	 	 	 	 	 	 	 	 	 	 	1581547706	7.93	14.69
12/02/2020 22:48:28	120220	12022020	224827	237.66	12.215168	-57.087000	237.68	-0.070	0.590	1.080	237.60	-0.90	1.60	 	 	 	 	 	 	 	 	 	 	 	 	 	 	 	 	 	 	1581547707	7.89	14.61
12/02/2020 22:48:29	120220	12022020	224828	237.25	12.215150	-57.087035	237.24	0.110	0.130	1.430	237.15	-1.40	1.90	 	 	 	 	 	 	 	 	 	 	 	 	 	 	 	 	 	 	1581547708	8.09	14.98
12/02/2020 22:48:30	120220	12022020	224829	236.68	12.215132	-57.087068	236.67	0.340	-0.460	1.670	236.56	-2.00	2.10	 	 	 	 	 	 	 	 	 	 	 	 	 	 	 	 	 	 	1581547709	8.16	15.11
12/02/2020 22:48:31	120220	12022020	224830	236.21	12.215112	-57.087100	236.24	0.460	-0.860	1.620	236.17	-2.30	2.00	 	 	 	 	 	 	 	 	 	 	 	 	 	 	 	 	 	 	1581547710	7.95	14.72
12/02/2020 22:48:32	120220	12022020	224831	236.19	12.215093	-57.087132	236.26	0.380	-0.980	1.210	236.25	-2.40	1.50	 	 	 	 	 	 	 	 	 	 	 	 	 	 	 	 	 	 	1581547711	7.62	14.11
12/02/2020 22:48:33	120220	12022020	224832	236.53	12.215075	-57.087162	236.60	0.200	-0.930	0.640	236.61	-2.30	0.90	 	 	 	 	 	 	 	 	 	 	 	 	 	 	 	 	 	 	1581547712	7.48	13.85
12/02/2020 22:48:34	120220	12022020	224833	236.92	12.215055	-57.087192	236.98	0.100	-0.880	0.200	236.98	-2.30	0.50	 	 	 	 	 	 	 	 	 	 	 	 	 	 	 	 	 	 	1581547713	7.62	14.11
12/02/2020 22:48:35	120220	12022020	224834	237.22	12.215035	-57.087222	237.28	0.090	-0.820	0.020	237.27	-2.20	0.40	 	 	 	 	 	 	 	 	 	 	 	 	 	 	 	 	 	 	1581547714	7.86	14.56
12/02/2020 22:48:36	120220	12022020	224835	237.46	12.215017	-57.087253	237.52	0.060	-0.620	0.060	237.50	-1.90	0.50	 	 	 	 	 	 	 	 	 	 	 	 	 	 	 	 	 	 	1581547715	7.95	14.72
12/02/2020 22:48:37	120220	12022020	224836	237.60	12.214997	-57.087287	237.66	-0.100	-0.270	0.370	237.61	-1.60	0.90	 	 	 	 	 	 	 	 	 	 	 	 	 	 	 	 	 	 	1581547716	7.92	14.67
12/02/2020 22:48:38	120220	12022020	224837	237.59	12.214980	-57.087318	237.63	-0.370	0.150	0.860	237.56	-1.20	1.40	 	 	 	 	 	 	 	 	 	 	 	 	 	 	 	 	 	 	1581547717	7.86	14.56
12/02/2020 22:48:39	120220	12022020	224838	237.34	12.214963	-57.087352	237.35	-0.520	0.530	1.410	237.26	-0.80	1.90	 	 	 	 	 	 	 	 	 	 	 	 	 	 	 	 	 	 	1581547718	7.81	14.46
12/02/2020 22:48:40	120220	12022020	224839	236.89	12.214947	-57.087385	236.90	-0.440	0.670	1.850	236.80	-0.70	2.30	 	 	 	 	 	 	 	 	 	 	 	 	 	 	 	 	 	 	1581547719	7.87	14.58
12/02/2020 22:48:41	120220	12022020	224840	236.52	12.214928	-57.087418	236.56	-0.190	0.480	1.890	236.48	-1.00	2.20	 	 	 	 	 	 	 	 	 	 	 	 	 	 	 	 	 	 	1581547720	7.95	14.72
12/02/2020 22:48:42	120220	12022020	224841	236.42	12.214910	-57.087450	236.49	0.100	-0.030	1.550	236.42	-1.60	1.80	 	 	 	 	 	 	 	 	 	 	 	 	 	 	 	 	 	 	1581547721	8.01	14.83
12/02/2020 22:48:43	120220	12022020	224842	236.49	12.214888	-57.087482	236.56	0.310	-0.710	0.970	236.52	-2.20	1.20	 	 	 	 	 	 	 	 	 	 	 	 	 	 	 	 	 	 	1581547722	8.07	14.95
12/02/2020 22:48:44	120220	12022020	224843	236.67	12.214867	-57.087513	236.73	0.330	-1.190	0.300	236.72	-2.60	0.60	 	 	 	 	 	 	 	 	 	 	 	 	 	 	 	 	 	 	1581547723	7.94	14.70
12/02/2020 22:48:45	120220	12022020	224844	236.96	12.214847	-57.087542	237.02	0.170	-1.220	-0.250	237.03	-2.60	0.10	 	 	 	 	 	 	 	 	 	 	 	 	 	 	 	 	 	 	1581547724	7.59	14.06
12/02/2020 22:48:46	120220	12022020	224845	237.32	12.214828	-57.087570	237.38	-0.020	-0.830	-0.460	237.40	-2.10	-0.00	 	 	 	 	 	 	 	 	 	 	 	 	 	 	 	 	 	 	1581547725	7.26	13.45
12/02/2020 22:48:47	120220	12022020	224846	237.65	12.214810	-57.087600	237.70	-0.080	-0.350	-0.310	237.71	-1.60	0.20	 	 	 	 	 	 	 	 	 	 	 	 	 	 	 	 	 	 	1581547726	7.30	13.52
12/02/2020 22:48:48	120220	12022020	224847	237.84	12.214793	-57.087632	237.87	-0.010	0.010	0.110	237.86	-1.30	0.70	 	 	 	 	 	 	 	 	 	 	 	 	 	 	 	 	 	 	1581547727	7.54	13.96
12/02/2020 22:48:49	120220	12022020	224848	237.84	12.214775	-57.087663	237.87	0.060	0.200	0.630	237.82	-1.20	1.20	 	 	 	 	 	 	 	 	 	 	 	 	 	 	 	 	 	 	1581547728	7.78	14.41
12/02/2020 22:48:50	120220	12022020	224849	237.71	12.214757	-57.087695	237.67	0.010	0.250	1.100	237.65	-1.20	1.60	 	 	 	 	 	 	 	 	 	 	 	 	 	 	 	 	 	 	1581547729	7.87	14.58
12/02/2020 22:48:51	120220	12022020	224850	237.26	12.214740	-57.087728	237.27	-0.110	0.180	1.600	237.16	-1.20	2.10	 	 	 	 	 	 	 	 	 	 	 	 	 	 	 	 	 	 	1581547730	7.91	14.65
12/02/2020 22:48:52	120220	12022020	224851	236.74	12.214725	-57.087763	236.74	-0.150	0.030	2.120	236.64	-1.40	2.60	 	 	 	 	 	 	 	 	 	 	 	 	 	 	 	 	 	 	1581547731	7.89	14.61
12/02/2020 22:48:53	120220	12022020	224852	236.34	12.214710	-57.087797	236.38	-0.010	-0.150	2.250	236.31	-1.60	2.60	 	 	 	 	 	 	 	 	 	 	 	 	 	 	 	 	 	 	1581547732	7.80	14.45
12/02/2020 22:48:54	120220	12022020	224853	236.26	12.214692	-57.087828	236.31	0.220	-0.410	1.790	236.27	-1.90	2.00	 	 	 	 	 	 	 	 	 	 	 	 	 	 	 	 	 	 	1581547733	7.68	14.22
12/02/2020 22:48:55	120220	12022020	224854	236.44	12.214672	-57.087858	236.52	0.350	-0.760	0.870	236.52	-2.20	1.00	 	 	 	 	 	 	 	 	 	 	 	 	 	 	 	 	 	 	1581547734	7.72	14.30
12/02/2020 22:48:56	120220	12022020	224855	236.91	12.214650	-57.087887	236.99	0.260	-1.000	-0.190	237.03	-2.40	0.00	 	 	 	 	 	 	 	 	 	 	 	 	 	 	 	 	 	 	1581547735	7.75	14.35
12/02/2020 22:48:57	120220	12022020	224856	237.49	12.214628	-57.087915	237.56	0.020	-0.960	-0.910	237.60	-2.30	-0.60	 	 	 	 	 	 	 	 	 	 	 	 	 	 	 	 	 	 	1581547736	7.62	14.11
12/02/2020 22:48:58	120220	12022020	224857	237.95	12.214607	-57.087943	237.99	-0.230	-0.680	-1.160	238.02	-2.00	-0.70	 	 	 	 	 	 	 	 	 	 	 	 	 	 	 	 	 	 	1581547737	7.53	13.95
12/02/2020 22:48:59	120220	12022020	224858	238.10	12.214588	-57.087973	238.09	-0.370	-0.270	-0.800	238.08	-1.60	-0.20	 	 	 	 	 	 	 	 	 	 	 	 	 	 	 	 	 	 	1581547738	7.52	13.93
12/02/2020 22:49:00	120220	12022020	224859	237.87	12.214572	-57.088007	237.83	-0.410	0.110	0.130	237.79	-1.20	0.80	 	 	 	 	 	 	 	 	 	 	 	 	 	 	 	 	 	 	1581547739	7.63	14.13
12/02/2020 22:49:01	120220	12022020	224900	237.47	12.214558	-57.088040	237.46	-0.350	0.400	1.210	237.39	-1.00	1.80	 	 	 	 	 	 	 	 	 	 	 	 	 	 	 	 	 	 	1581547740	7.73	14.32
12/02/2020 22:49:02	120220	12022020	224901	237.13	12.214543	-57.088073	237.15	-0.160	0.470	2.000	237.08	-1.00	2.50	1015.20	28.70	29.50	21.70	21.90	-2.0	66.0	63.0	387.0	26.1	186.00	5.50	60.00	9.60	18	10970.0	27.5	27.4	1581547741	7.77	14.39
12/02/2020 22:49:03	120220	12022020	224902	236.94	12.214528	-57.088107	236.98	0.110	0.210	2.270	236.92	-1.30	2.70	 	 	 	 	 	 	 	 	 	 	 	 	 	 	 	 	 	 	1581547742	7.88	14.59
12/02/2020 22:49:04	120220	12022020	224903	236.87	12.214510	-57.088140	236.90	0.370	-0.270	2.050	236.86	-1.80	2.30	 	 	 	 	 	 	 	 	 	 	 	 	 	 	 	 	 	 	1581547743	7.94	14.70
12/02/2020 22:49:05	120220	12022020	224904	236.95	12.214490	-57.088170	237.02	0.480	-0.640	1.420	237.00	-2.10	1.60	 	 	 	 	 	 	 	 	 	 	 	 	 	 	 	 	 	 	1581547744	7.81	14.46
12/02/2020 22:49:06	120220	12022020	224905	237.28	12.214470	-57.088200	237.32	0.380	-0.660	0.600	237.36	-2.00	0.80	 	 	 	 	 	 	 	 	 	 	 	 	 	 	 	 	 	 	1581547745	7.51	13.91
12/02/2020 22:49:07	120220	12022020	224906	237.71	12.214450	-57.088227	237.75	0.130	-0.410	-0.120	237.79	-1.80	0.20	 	 	 	 	 	 	 	 	 	 	 	 	 	 	 	 	 	 	1581547746	7.24	13.41
12/02/2020 22:49:08	120220	12022020	224907	238.09	12.214430	-57.088255	238.11	-0.130	-0.200	-0.430	238.13	-1.60	-0.00	 	 	 	 	 	 	 	 	 	 	 	 	 	 	 	 	 	 	1581547747	7.23	13.39
12/02/2020 22:49:09	120220	12022020	224908	238.16	12.214413	-57.088287	238.16	-0.270	-0.290	-0.160	238.14	-1.80	0.40	 	 	 	 	 	 	 	 	 	 	 	 	 	 	 	 	 	 	1581547748	7.54	13.96
12/02/2020 22:49:10	120220	12022020	224909	237.87	12.214397	-57.088320	237.84	-0.230	-0.630	0.560	237.77	-2.10	1.20	 	 	 	 	 	 	 	 	 	 	 	 	 	 	 	 	 	 	1581547749	7.97	14.76
12/02/2020 22:49:11	120220	12022020	224910	237.38	12.214380	-57.088355	237.37	-0.120	-0.890	1.380	237.29	-2.30	1.90	 	 	 	 	 	 	 	 	 	 	 	 	 	 	 	 	 	 	1581547750	8.13	15.06
12/02/2020 22:49:12	120220	12022020	224911	237.06	12.214365	-57.088388	237.10	-0.040	-0.730	1.790	237.04	-2.00	2.20	 	 	 	 	 	 	 	 	 	 	 	 	 	 	 	 	 	 	1581547751	7.80	14.45
12/02/2020 22:49:13	120220	12022020	224912	237.06	12.214348	-57.088418	237.12	-0.010	-0.240	1.680	237.09	-1.50	2.00	 	 	 	 	 	 	 	 	 	 	 	 	 	 	 	 	 	 	1581547752	7.37	13.65
12/02/2020 22:49:14	120220	12022020	224913	237.22	12.214330	-57.088448	237.27	-0.010	0.200	1.280	237.26	-1.20	1.60	 	 	 	 	 	 	 	 	 	 	 	 	 	 	 	 	 	 	1581547753	7.32	13.56
12/02/2020 22:49:15	120220	12022020	224914	237.47	12.214310	-57.088478	237.53	-0.030	0.350	0.810	237.54	-1.10	1.10	 	 	 	 	 	 	 	 	 	 	 	 	 	 	 	 	 	 	1581547754	7.57	14.02
12/02/2020 22:49:16	120220	12022020	224915	237.84	12.214292	-57.088508	237.90	0.010	0.330	0.410	237.84	-1.10	0.70	 	 	 	 	 	 	 	 	 	 	 	 	 	 	 	 	 	 	1581547755	7.67	14.20
12/02/2020 22:49:17	120220	12022020	224916	238.22	12.214273	-57.088538	238.25	0.090	0.180	0.190	238.28	-1.30	0.60	 	 	 	 	 	 	 	 	 	 	 	 	 	 	 	 	 	 	1581547756	7.66	14.19
12/02/2020 22:49:18	120220	12022020	224917	238.39	12.214255	-57.088570	238.42	0.150	-0.100	0.310	238.41	-1.60	0.80	 	 	 	 	 	 	 	 	 	 	 	 	 	 	 	 	 	 	1581547757	7.68	14.22
12/02/2020 22:49:19	120220	12022020	224918	238.38	12.214237	-57.088602	238.39	0.130	-0.480	0.650	238.36	-2.00	1.20	 	 	 	 	 	 	 	 	 	 	 	 	 	 	 	 	 	 	1581547758	7.72	14.30
12/02/2020 22:49:20	120220	12022020	224919	238.18	12.214220	-57.088635	238.17	0.010	-0.850	1.080	238.12	-2.30	1.60	 	 	 	 	 	 	 	 	 	 	 	 	 	 	 	 	 	 	1581547759	7.76	14.37
12/02/2020 22:49:21	120220	12022020	224920	237.92	12.214205	-57.088667	237.92	-0.130	-0.980	1.400	237.88	-2.40	1.80	 	 	 	 	 	 	 	 	 	 	 	 	 	 	 	 	 	 	1581547760	7.66	14.19
12/02/2020 22:49:22	120220	12022020	224921	237.71	12.214188	-57.088698	237.72	-0.140	-0.910	1.410	237.67	-2.30	1.80	 	 	 	 	 	 	 	 	 	 	 	 	 	 	 	 	 	 	1581547761	7.52	13.93
12/02/2020 22:49:23	120220	12022020	224922	237.56	12.214170	-57.088728	237.57	-0.040	-0.780	1.170	237.54	-2.10	1.50	 	 	 	 	 	 	 	 	 	 	 	 	 	 	 	 	 	 	1581547762	7.61	14.09
12/02/2020 22:49:24	120220	12022020	224923	237.54	12.214150	-57.088760	237.56	0.020	-0.540	0.890	237.54	-1.90	1.20	 	 	 	 	 	 	 	 	 	 	 	 	 	 	 	 	 	 	1581547763	7.66	14.19
12/02/2020 22:49:25	120220	12022020	224924	237.62	12.214132	-57.088790	237.65	-0.040	-0.110	0.670	237.65	-1.40	1.00	 	 	 	 	 	 	 	 	 	 	 	 	 	 	 	 	 	 	1581547764	7.55	13.98
12/02/2020 22:49:26	120220	12022020	224925	237.82	12.214115	-57.088820	237.86	-0.170	0.470	0.530	237.87	-0.80	0.90	 	 	 	 	 	 	 	 	 	 	 	 	 	 	 	 	 	 	1581547765	7.36	13.63
12/02/2020 22:49:27	120220	12022020	224926	238.08	12.214100	-57.088852	238.10	-0.160	0.880	0.420	238.12	-0.50	0.80	 	 	 	 	 	 	 	 	 	 	 	 	 	 	 	 	 	 	1581547766	7.32	13.56
12/02/2020 22:49:28	120220	12022020	224927	238.34	12.214082	-57.088883	238.37	0.030	0.730	0.300	238.39	-0.80	0.70	 	 	 	 	 	 	 	 	 	 	 	 	 	 	 	 	 	 	1581547767	7.66	14.19
12/02/2020 22:49:29	120220	12022020	224928	238.55	12.214063	-57.088915	238.58	0.240	0.130	0.170	238.58	-1.40	0.50	 	 	 	 	 	 	 	 	 	 	 	 	 	 	 	 	 	 	1581547768	7.99	14.80
12/02/2020 22:49:30	120220	12022020	224929	238.66	12.214043	-57.088947	238.66	0.240	-0.520	0.050	238.66	-2.10	0.40	 	 	 	 	 	 	 	 	 	 	 	 	 	 	 	 	 	 	1581547769	7.93	14.69
12/02/2020 22:49:31	120220	12022020	224930	238.66	12.214023	-57.088977	238.67	0.060	-1.070	0.070	238.65	-2.60	0.50	 	 	 	 	 	 	 	 	 	 	 	 	 	 	 	 	 	 	1581547770	7.73	14.32
12/02/2020 22:49:32	120220	12022020	224931	238.62	12.214007	-57.089008	238.65	-0.080	-1.410	0.380	238.62	-2.80	0.90	 	 	 	 	 	 	 	 	 	 	 	 	 	 	 	 	 	 	1581547771	7.63	14.13
12/02/2020 22:49:33	120220	12022020	224932	238.58	12.213992	-57.089040	238.59	-0.030	-1.390	0.850	238.55	-2.70	1.40	 	 	 	 	 	 	 	 	 	 	 	 	 	 	 	 	 	 	1581547772	7.51	13.91
12/02/2020 22:49:34	120220	12022020	224933	238.42	12.213977	-57.089073	238.42	0.140	-1.050	1.410	238.36	-2.30	1.90	 	 	 	 	 	 	 	 	 	 	 	 	 	 	 	 	 	 	1581547773	7.47	13.83
12/02/2020 22:49:35	120220	12022020	224934	238.08	12.213962	-57.089105	238.08	0.200	-0.440	1.910	238.00	-1.70	2.40	 	 	 	 	 	 	 	 	 	 	 	 	 	 	 	 	 	 	1581547774	7.50	13.89
12/02/2020 22:49:36	120220	12022020	224935	237.77	12.213945	-57.089137	237.82	-0.050	0.320	2.030	237.75	-0.90	2.40	 	 	 	 	 	 	 	 	 	 	 	 	 	 	 	 	 	 	1581547775	7.42	13.74
12/02/2020 22:49:37	120220	12022020	224936	237.77	12.213928	-57.089167	237.84	-0.450	0.930	1.680	237.81	-0.40	2.00	 	 	 	 	 	 	 	 	 	 	 	 	 	 	 	 	 	 	1581547776	7.36	13.63
12/02/2020 22:49:38	120220	12022020	224937	238.00	12.213912	-57.089197	238.06	-0.630	1.040	1.160	238.06	-0.40	1.40	 	 	 	 	 	 	 	 	 	 	 	 	 	 	 	 	 	 	1581547777	7.55	13.98
12/02/2020 22:49:39	120220	12022020	224938	238.30	12.213892	-57.089230	238.33	-0.360	0.550	0.620	238.35	-1.10	0.90	 	 	 	 	 	 	 	 	 	 	 	 	 	 	 	 	 	 	1581547778	7.92	14.67
12/02/2020 22:49:40	120220	12022020	224939	238.49	12.213872	-57.089262	238.50	0.200	-0.340	0.150	238.50	-2.00	0.50	 	 	 	 	 	 	 	 	 	 	 	 	 	 	 	 	 	 	1581547779	8.25	15.28
12/02/2020 22:49:41	120220	12022020	224940	238.51	12.213850	-57.089293	238.52	0.600	-1.070	-0.040	238.50	-2.60	0.40	 	 	 	 	 	 	 	 	 	 	 	 	 	 	 	 	 	 	1581547780	8.17	15.13
12/02/2020 22:49:42	120220	12022020	224941	238.44	12.213830	-57.089325	238.46	0.560	-1.240	0.060	238.43	-2.60	0.50	 	 	 	 	 	 	 	 	 	 	 	 	 	 	 	 	 	 	1581547781	7.61	14.09
12/02/2020 22:49:43	120220	12022020	224942	238.43	12.213815	-57.089353	238.45	0.180	-0.870	0.330	238.44	-2.10	0.80	 	 	 	 	 	 	 	 	 	 	 	 	 	 	 	 	 	 	1581547782	7.11	13.17
12/02/2020 22:49:44	120220	12022020	224943	238.50	12.213802	-57.089383	238.52	-0.180	-0.360	0.600	238.51	-1.70	1.10	 	 	 	 	 	 	 	 	 	 	 	 	 	 	 	 	 	 	1581547783	6.99	12.95
12/02/2020 22:49:45	120220	12022020	224944	238.52	12.213787	-57.089415	238.54	-0.280	-0.080	0.940	238.51	-1.50	1.40	 	 	 	 	 	 	 	 	 	 	 	 	 	 	 	 	 	 	1581547784	7.33	13.58
12/02/2020 22:49:46	120220	12022020	224945	238.44	12.213772	-57.089448	238.46	-0.180	-0.020	1.290	238.43	-1.40	1.80	 	 	 	 	 	 	 	 	 	 	 	 	 	 	 	 	 	 	1581547785	7.72	14.30
12/02/2020 22:49:47	120220	12022020	224946	238.37	12.213755	-57.089480	238.40	-0.060	0.060	1.480	238.36	-1.30	1.90	 	 	 	 	 	 	 	 	 	 	 	 	 	 	 	 	 	 	1581547786	7.72	14.30
12/02/2020 22:49:48	120220	12022020	224947	238.36	12.213738	-57.089512	238.39	-0.020	0.170	1.360	238.37	-1.20	1.70	 	 	 	 	 	 	 	 	 	 	 	 	 	 	 	 	 	 	1581547787	7.51	13.91
12/02/2020 22:49:49	120220	12022020	224948	238.39	12.213718	-57.089542	238.41	0.020	0.030	0.970	238.39	-1.50	1.30	 	 	 	 	 	 	 	 	 	 	 	 	 	 	 	 	 	 	1581547788	7.59	14.06
12/02/2020 22:49:50	120220	12022020	224949	238.35	12.213698	-57.089572	238.35	0.080	-0.390	0.670	238.33	-1.90	1.00	 	 	 	 	 	 	 	 	 	 	 	 	 	 	 	 	 	 	1581547789	7.84	14.52
12/02/2020 22:49:51	120220	12022020	224950	238.23	12.213680	-57.089605	238.22	0.110	-0.820	0.620	238.20	-2.30	1.10	 	 	 	 	 	 	 	 	 	 	 	 	 	 	 	 	 	 	1581547790	7.91	14.65
12/02/2020 22:49:52	120220	12022020	224951	238.09	12.213662	-57.089637	238.10	0.060	-1.050	0.760	238.08	-2.50	1.20	 	 	 	 	 	 	 	 	 	 	 	 	 	 	 	 	 	 	1581547791	7.86	14.56
12/02/2020 22:49:53	120220	12022020	224952	238.06	12.213645	-57.089670	238.09	-0.060	-0.900	0.900	238.08	-2.20	1.30	 	 	 	 	 	 	 	 	 	 	 	 	 	 	 	 	 	 	1581547792	7.66	14.19
12/02/2020 22:49:54	120220	12022020	224953	238.17	12.213630	-57.089700	238.19	-0.170	-0.340	0.990	238.17	-1.60	1.40	 	 	 	 	 	 	 	 	 	 	 	 	 	 	 	 	 	 	1581547793	7.34	13.59
12/02/2020 22:49:55	120220	12022020	224954	238.28	12.213615	-57.089730	238.29	-0.190	0.280	0.930	238.28	-1.00	1.30	 	 	 	 	 	 	 	 	 	 	 	 	 	 	 	 	 	 	1581547794	7.18	13.30
12/02/2020 22:49:56	120220	12022020	224955	238.23	12.213597	-57.089762	238.22	-0.170	0.470	0.880	238.20	-1.00	1.30	 	 	 	 	 	 	 	 	 	 	 	 	 	 	 	 	 	 	1581547795	7.50	13.89
12/02/2020 22:49:57	120220	12022020	224956	238.02	12.213580	-57.089793	238.00	-0.130	0.220	0.960	237.98	-1.20	1.40	 	 	 	 	 	 	 	 	 	 	 	 	 	 	 	 	 	 	1581547796	7.95	14.72
12/02/2020 22:49:58	120220	12022020	224957	237.89	12.213562	-57.089827	237.91	-0.070	0.060	0.990	237.89	-1.30	1.40	 	 	 	 	 	 	 	 	 	 	 	 	 	 	 	 	 	 	1581547797	7.84	14.52
12/02/2020 22:49:59	120220	12022020	224958	237.95	12.213545	-57.089857	237.98	0.060	0.170	0.860	237.98	-1.20	1.20	 	 	 	 	 	 	 	 	 	 	 	 	 	 	 	 	 	 	1581547798	7.31	13.54
12/02/2020 22:50:00	120220	12022020	224959	238.14	12.213528	-57.089885	238.17	0.300	0.150	0.590	238.18	-1.30	0.90	 	 	 	 	 	 	 	 	 	 	 	 	 	 	 	 	 	 	1581547799	7.15	13.24
12/02/2020 22:50:01	120220	12022020	225000	238.37	12.213508	-57.089915	238.40	0.530	-0.280	0.350	238.40	-1.80	0.70	 	 	 	 	 	 	 	 	 	 	 	 	 	 	 	 	 	 	1581547800	7.46	13.82
12/02/2020 22:50:02	120220	12022020	225001	238.51	12.213490	-57.089947	238.53	0.590	-0.910	0.310	238.52	-2.40	0.80	1015.20	28.60	30.80	21.20	21.90	-2.0	64.0	58.0	387.0	26.1	186.00	5.40	62.00	9.30	18	11108.0	27.4	27.4	1581547801	7.79	14.43
12/02/2020 22:50:03	120220	12022020	225002	238.45	12.213472	-57.089978	238.44	0.430	-1.350	0.620	238.41	-2.80	1.10	 	 	 	 	 	 	 	 	 	 	 	 	 	 	 	 	 	 	1581547802	7.83	14.50
12/02/2020 22:50:04	120220	12022020	225003	238.25	12.213457	-57.090010	238.24	0.110	-1.260	0.990	238.21	-2.60	1.40	 	 	 	 	 	 	 	 	 	 	 	 	 	 	 	 	 	 	1581547803	7.57	14.02
12/02/2020 22:50:05	120220	12022020	225004	238.10	12.213440	-57.090042	238.12	-0.240	-0.780	1.130	238.09	-2.10	1.50	 	 	 	 	 	 	 	 	 	 	 	 	 	 	 	 	 	 	1581547804	7.28	13.48
12/02/2020 22:50:06	120220	12022020	225005	238.04	12.213423	-57.090072	238.03	-0.520	-0.420	1.170	238.02	-1.80	1.60	 	 	 	 	 	 	 	 	 	 	 	 	 	 	 	 	 	 	1581547805	7.46	13.82
12/02/2020 22:50:07	120220	12022020	225006	237.88	12.213407	-57.090105	237.88	-0.660	-0.380	1.330	237.84	-1.80	1.80	 	 	 	 	 	 	 	 	 	 	 	 	 	 	 	 	 	 	1581547806	8.01	14.83
12/02/2020 22:50:08	120220	12022020	225007	237.72	12.213390	-57.090140	237.68	-0.710	-0.290	1.670	237.67	-1.60	2.20	 	 	 	 	 	 	 	 	 	 	 	 	 	 	 	 	 	 	1581547807	8.22	15.22
12/02/2020 22:50:09	120220	12022020	225008	237.42	12.213375	-57.090175	237.41	-0.630	0.100	2.010	237.37	-1.20	2.40	 	 	 	 	 	 	 	 	 	 	 	 	 	 	 	 	 	 	1581547808	7.92	14.67
12/02/2020 22:50:10	120220	12022020	225009	237.18	12.213360	-57.090207	237.19	-0.340	0.650	2.030	237.15	-0.60	2.30	 	 	 	 	 	 	 	 	 	 	 	 	 	 	 	 	 	 	1581547809	7.55	13.98
12/02/2020 22:50:11	120220	12022020	225010	237.22	12.213343	-57.090237	237.25	0.100	1.090	1.460	237.27	-0.30	1.60	 	 	 	 	 	 	 	 	 	 	 	 	 	 	 	 	 	 	1581547810	7.32	13.56
12/02/2020 22:50:12	120220	12022020	225011	237.60	12.213322	-57.090265	237.65	0.500	1.100	0.440	237.70	-0.40	0.60	 	 	 	 	 	 	 	 	 	 	 	 	 	 	 	 	 	 	1581547811	7.33	13.58
12/02/2020 22:50:13	120220	12022020	225012	238.11	12.213298	-57.090292	238.15	0.720	0.520	-0.440	238.21	-1.10	-0.20	 	 	 	 	 	 	 	 	 	 	 	 	 	 	 	 	 	 	1581547812	7.61	14.09
12/02/2020 22:50:14	120220	12022020	225013	238.56	12.213277	-57.090322	238.56	0.720	-0.480	-0.730	238.63	-2.10	-0.30	 	 	 	 	 	 	 	 	 	 	 	 	 	 	 	 	 	 	1581547813	7.78	14.41
12/02/2020 22:50:15	120220	12022020	225014	238.78	12.213260	-57.090353	238.76	0.570	-1.450	-0.340	238.78	-3.00	0.20	 	 	 	 	 	 	 	 	 	 	 	 	 	 	 	 	 	 	1581547814	7.78	14.41
12/02/2020 22:50:16	120220	12022020	225015	238.64	12.213245	-57.090387	238.61	0.380	-2.010	0.560	238.58	-3.40	1.20	 	 	 	 	 	 	 	 	 	 	 	 	 	 	 	 	 	 	1581547815	7.71	14.28
12/02/2020 22:50:17	120220	12022020	225016	238.25	12.213233	-57.090420	238.21	0.160	-1.890	1.680	238.15	-3.20	2.30	 	 	 	 	 	 	 	 	 	 	 	 	 	 	 	 	 	 	1581547816	7.52	13.93
12/02/2020 22:50:18	120220	12022020	225017	237.75	12.213222	-57.090453	237.74	-0.100	-1.270	2.680	237.65	-2.50	3.20	 	 	 	 	 	 	 	 	 	 	 	 	 	 	 	 	 	 	1581547817	7.39	13.69
12/02/2020 22:50:19	120220	12022020	225018	237.31	12.213208	-57.090485	237.31	-0.380	-0.580	3.140	237.23	-1.80	3.50	 	 	 	 	 	 	 	 	 	 	 	 	 	 	 	 	 	 	1581547818	7.51	13.91
12/02/2020 22:50:20	120220	12022020	225019	237.03	12.213192	-57.090518	237.06	-0.590	0.000	2.900	236.99	-1.30	3.10	 	 	 	 	 	 	 	 	 	 	 	 	 	 	 	 	 	 	1581547819	7.73	14.32
12/02/2020 22:50:21	120220	12022020	225020	236.93	12.213172	-57.090548	236.97	-0.640	0.460	2.100	236.93	-0.90	2.30	 	 	 	 	 	 	 	 	 	 	 	 	 	 	 	 	 	 	1581547820	7.84	14.52
12/02/2020 22:50:22	120220	12022020	225021	236.96	12.213150	-57.090578	236.98	-0.540	0.780	1.120	236.98	-0.60	1.30	 	 	 	 	 	 	 	 	 	 	 	 	 	 	 	 	 	 	1581547821	7.79	14.43
12/02/2020 22:50:23	120220	12022020	225022	237.11	12.213128	-57.090608	237.14	-0.340	0.800	0.310	237.17	-0.70	0.60	 	 	 	 	 	 	 	 	 	 	 	 	 	 	 	 	 	 	1581547822	7.80	14.45
12/02/2020 22:50:24	120220	12022020	225023	237.48	12.213110	-57.090640	237.51	-0.110	0.550	-0.180	237.58	-0.90	0.20	 	 	 	 	 	 	 	 	 	 	 	 	 	 	 	 	 	 	1581547823	7.79	14.43
12/02/2020 22:50:25	120220	12022020	225024	238.00	12.213092	-57.090670	238.04	0.130	0.250	-0.370	238.10	-1.20	0.00	 	 	 	 	 	 	 	 	 	 	 	 	 	 	 	 	 	 	1581547824	7.60	14.08
12/02/2020 22:50:26	120220	12022020	225025	238.46	12.213073	-57.090700	238.49	0.410	0.030	-0.320	238.53	-1.40	0.10	 	 	 	 	 	 	 	 	 	 	 	 	 	 	 	 	 	 	1581547825	7.32	13.56
12/02/2020 22:50:27	120220	12022020	225026	238.75	12.213057	-57.090730	238.78	0.600	-0.200	-0.110	238.79	-1.70	0.40	 	 	 	 	 	 	 	 	 	 	 	 	 	 	 	 	 	 	1581547826	7.17	13.28
12/02/2020 22:50:28	120220	12022020	225027	238.92	12.213040	-57.090760	238.94	0.610	-0.630	0.270	238.94	-2.20	0.80	 	 	 	 	 	 	 	 	 	 	 	 	 	 	 	 	 	 	1581547827	7.32	13.56
12/02/2020 22:50:29	120220	12022020	225028	238.94	12.213023	-57.090792	238.94	0.440	-1.210	0.790	238.90	-2.80	1.40	 	 	 	 	 	 	 	 	 	 	 	 	 	 	 	 	 	 	1581547828	7.59	14.06
12/02/2020 22:50:30	120220	12022020	225029	238.69	12.213008	-57.090825	238.55	0.240	-1.700	1.540	238.59	-3.20	2.10	 	 	 	 	 	 	 	 	 	 	 	 	 	 	 	 	 	 	1581547829	7.84	14.52
12/02/2020 22:50:31	120220	12022020	225030	237.95	12.212993	-57.090858	237.91	0.110	-1.730	2.310	237.80	-3.00	2.90	 	 	 	 	 	 	 	 	 	 	 	 	 	 	 	 	 	 	1581547830	7.84	14.52
12/02/2020 22:50:32	120220	12022020	225031	237.37	12.212978	-57.090892	237.22	-0.060	-1.190	2.820	237.25	-2.40	3.30	 	 	 	 	 	 	 	 	 	 	 	 	 	 	 	 	 	 	1581547831	7.61	14.09
12/02/2020 22:50:33	120220	12022020	225032	236.72	12.212962	-57.090923	236.73	-0.370	-0.340	2.860	236.66	-1.50	3.20	 	 	 	 	 	 	 	 	 	 	 	 	 	 	 	 	 	 	1581547832	7.47	13.83
12/02/2020 22:50:34	120220	12022020	225033	236.59	12.212947	-57.090953	236.64	-0.750	0.460	2.340	236.61	-0.80	2.60	 	 	 	 	 	 	 	 	 	 	 	 	 	 	 	 	 	 	1581547833	7.50	13.89
12/02/2020 22:50:35	120220	12022020	225034	236.90	12.212928	-57.090985	236.98	-0.940	0.980	1.440	237.00	-0.40	1.60	 	 	 	 	 	 	 	 	 	 	 	 	 	 	 	 	 	 	1581547834	7.57	14.02
12/02/2020 22:50:36	120220	12022020	225035	237.50	12.212908	-57.091015	237.57	-0.730	1.140	0.440	237.62	-0.30	0.60	 	 	 	 	 	 	 	 	 	 	 	 	 	 	 	 	 	 	1581547835	7.66	14.19
12/02/2020 22:50:37	120220	12022020	225036	238.12	12.212888	-57.091045	238.17	-0.190	0.950	-0.370	238.24	-0.50	-0.10	 	 	 	 	 	 	 	 	 	 	 	 	 	 	 	 	 	 	1581547836	7.76	14.37
12/02/2020 22:50:38	120220	12022020	225037	238.67	12.212867	-57.091075	238.70	0.370	0.520	-0.850	238.77	-1.00	-0.50	 	 	 	 	 	 	 	 	 	 	 	 	 	 	 	 	 	 	1581547837	7.69	14.24
12/02/2020 22:50:39	120220	12022020	225038	239.08	12.212847	-57.091105	239.10	0.720	-0.090	-0.860	239.14	-1.70	-0.40	 	 	 	 	 	 	 	 	 	 	 	 	 	 	 	 	 	 	1581547838	7.56	14.00
12/02/2020 22:50:40	120220	12022020	225039	239.24	12.212830	-57.091135	239.23	0.850	-0.790	-0.390	239.23	-2.40	0.20	 	 	 	 	 	 	 	 	 	 	 	 	 	 	 	 	 	 	1581547839	7.52	13.93
12/02/2020 22:50:41	120220	12022020	225040	239.05	12.212815	-57.091167	239.01	0.810	-1.400	0.470	238.97	-2.90	1.10	 	 	 	 	 	 	 	 	 	 	 	 	 	 	 	 	 	 	1581547840	7.54	13.96
12/02/2020 22:50:42	120220	12022020	225041	238.55	12.212802	-57.091200	238.49	0.620	-1.670	1.500	238.42	-3.10	2.10	 	 	 	 	 	 	 	 	 	 	 	 	 	 	 	 	 	 	1581547841	7.52	13.93
12/02/2020 22:50:43	120220	12022020	225042	237.89	12.212788	-57.091233	237.84	0.300	-1.500	2.410	237.76	-2.80	3.00	 	 	 	 	 	 	 	 	 	 	 	 	 	 	 	 	 	 	1581547842	7.48	13.85
12/02/2020 22:50:44	120220	12022020	225043	237.32	12.212775	-57.091265	237.31	-0.110	-0.950	2.910	237.32	-2.20	3.30	 	 	 	 	 	 	 	 	 	 	 	 	 	 	 	 	 	 	1581547843	7.45	13.80
12/02/2020 22:50:45	120220	12022020	225044	237.12	12.212760	-57.091297	237.17	-0.530	-0.210	2.840	237.14	-1.40	3.10	 	 	 	 	 	 	 	 	 	 	 	 	 	 	 	 	 	 	1581547844	7.37	13.65
12/02/2020 22:50:46	120220	12022020	225045	237.26	12.212743	-57.091328	237.32	-0.840	0.380	2.350	237.30	-1.00	2.60	 	 	 	 	 	 	 	 	 	 	 	 	 	 	 	 	 	 	1581547845	7.45	13.80
12/02/2020 22:50:47	120220	12022020	225046	237.49	12.212725	-57.091358	237.53	-0.880	0.520	1.590	237.53	-0.90	1.80	 	 	 	 	 	 	 	 	 	 	 	 	 	 	 	 	 	 	1581547846	7.75	14.35
12/02/2020 22:50:48	120220	12022020	225047	237.73	12.212703	-57.091390	237.77	-0.560	0.330	0.660	237.78	-1.10	0.80	 	 	 	 	 	 	 	 	 	 	 	 	 	 	 	 	 	 	1581547847	8.03	14.87
12/02/2020 22:50:49	120220	12022020	225048	238.03	12.212682	-57.091420	238.06	-0.090	0.180	-0.220	238.10	-1.20	0.00	 	 	 	 	 	 	 	 	 	 	 	 	 	 	 	 	 	 	1581547848	7.90	14.63
12/02/2020 22:50:50	120220	12022020	225049	238.33	12.212662	-57.091448	238.33	0.280	0.110	-0.780	238.38	-1.30	-0.40	 	 	 	 	 	 	 	 	 	 	 	 	 	 	 	 	 	 	1581547849	7.54	13.96
12/02/2020 22:50:51	120220	12022020	225050	238.53	12.212643	-57.091478	238.52	0.440	-0.080	-0.820	238.56	-1.60	-0.40	 	 	 	 	 	 	 	 	 	 	 	 	 	 	 	 	 	 	1581547850	7.43	13.76
12/02/2020 22:50:52	120220	12022020	225051	238.66	12.212627	-57.091510	238.65	0.420	-0.350	-0.480	238.67	-1.80	0.00	 	 	 	 	 	 	 	 	 	 	 	 	 	 	 	 	 	 	1581547851	7.49	13.87
12/02/2020 22:50:53	120220	12022020	225052	238.66	12.212612	-57.091542	238.64	0.360	-0.470	0.140	238.65	-1.90	0.70	 	 	 	 	 	 	 	 	 	 	 	 	 	 	 	 	 	 	1581547852	7.45	13.80
12/02/2020 22:50:54	120220	12022020	225053	238.53	12.212598	-57.091573	238.50	0.360	-0.310	0.760	238.49	-1.70	1.30	 	 	 	 	 	 	 	 	 	 	 	 	 	 	 	 	 	 	1581547853	7.22	13.37
12/02/2020 22:50:55	120220	12022020	225054	238.26	12.212583	-57.091603	238.20	0.310	-0.110	1.310	238.18	-1.50	1.80	 	 	 	 	 	 	 	 	 	 	 	 	 	 	 	 	 	 	1581547854	7.11	13.17
12/02/2020 22:50:56	120220	12022020	225055	237.92	12.212568	-57.091635	237.76	0.140	-0.230	1.780	237.84	-1.70	2.30	 	 	 	 	 	 	 	 	 	 	 	 	 	 	 	 	 	 	1581547855	7.36	13.63
12/02/2020 22:50:57	120220	12022020	225056	237.36	12.212552	-57.091667	237.28	-0.050	-0.700	2.060	237.25	-2.20	2.50	 	 	 	 	 	 	 	 	 	 	 	 	 	 	 	 	 	 	1581547856	7.79	14.43
12/02/2020 22:50:58	120220	12022020	225057	236.88	12.212533	-57.091700	236.83	-0.160	-1.100	2.090	236.81	-2.50	2.40	 	 	 	 	 	 	 	 	 	 	 	 	 	 	 	 	 	 	1581547857	7.96	14.74
12/02/2020 22:50:59	120220	12022020	225058	236.61	12.212517	-57.091732	236.61	-0.220	-1.010	1.780	236.60	-2.30	2.00	 	 	 	 	 	 	 	 	 	 	 	 	 	 	 	 	 	 	1581547858	7.61	14.09
12/02/2020 22:51:00	120220	12022020	225059	236.75	12.212498	-57.091760	236.76	-0.280	-0.570	1.100	236.83	-1.90	1.30	 	 	 	 	 	 	 	 	 	 	 	 	 	 	 	 	 	 	1581547859	7.22	13.37
12/02/2020 22:51:01	120220	12022020	225100	237.25	12.212480	-57.091790	237.29	-0.270	-0.160	0.280	237.37	-1.50	0.50	 	 	 	 	 	 	 	 	 	 	 	 	 	 	 	 	 	 	1581547860	7.21	13.35
12/02/2020 22:51:02	120220	12022020	225101	237.82	12.212460	-57.091818	237.84	-0.140	-0.080	-0.290	237.92	-1.50	0.00	1015.20	29.50	28.90	21.50	20.80	-2.0	62.0	61.0	387.0	26.1	180.00	6.30	58.00	10.20	17	11619.0	27.4	27.4	1581547861	7.62	14.11
12/02/2020 22:51:03	120220	12022020	225102	238.20	12.212442	-57.091850	238.19	-0.020	-0.110	-0.340	238.24	-1.50	0.10	 	 	 	 	 	 	 	 	 	 	 	 	 	 	 	 	 	 	1581547862	7.86	14.56
12/02/2020 22:51:04	120220	12022020	225103	238.24	12.212423	-57.091882	238.19	0.010	0.030	0.100	238.20	-1.30	0.60	 	 	 	 	 	 	 	 	 	 	 	 	 	 	 	 	 	 	1581547863	7.70	14.26
12/02/2020 22:51:05	120220	12022020	225104	237.96	12.212408	-57.091913	237.89	-0.010	0.360	0.740	237.88	-1.00	1.30	 	 	 	 	 	 	 	 	 	 	 	 	 	 	 	 	 	 	1581547864	7.42	13.74
12/02/2020 22:51:06	120220	12022020	225105	237.54	12.212393	-57.091945	237.47	-0.010	0.590	1.250	237.45	-0.80	1.70	 	 	 	 	 	 	 	 	 	 	 	 	 	 	 	 	 	 	1581547865	7.31	13.54
12/02/2020 22:51:07	120220	12022020	225106	237.17	12.212378	-57.091977	237.14	0.070	0.480	1.480	237.12	-1.00	1.90	 	 	 	 	 	 	 	 	 	 	 	 	 	 	 	 	 	 	1581547866	7.44	13.78
12/02/2020 22:51:08	120220	12022020	225107	237.03	12.212360	-57.092007	237.03	0.210	0.120	1.370	237.03	-1.40	1.70	 	 	 	 	 	 	 	 	 	 	 	 	 	 	 	 	 	 	1581547867	7.49	13.87
12/02/2020 22:51:09	120220	12022020	225108	237.13	12.212342	-57.092037	237.16	0.330	-0.300	1.140	237.16	-1.80	1.50	 	 	 	 	 	 	 	 	 	 	 	 	 	 	 	 	 	 	1581547868	7.38	13.67
12/02/2020 22:51:10	120220	12022020	225109	237.31	12.212323	-57.092065	237.31	0.400	-0.780	1.050	237.34	-2.30	1.40	 	 	 	 	 	 	 	 	 	 	 	 	 	 	 	 	 	 	1581547869	7.37	13.65
12/02/2020 22:51:11	120220	12022020	225110	237.43	12.212307	-57.092097	237.43	0.360	-1.170	1.050	237.44	-2.60	1.40	 	 	 	 	 	 	 	 	 	 	 	 	 	 	 	 	 	 	1581547870	7.43	13.76
12/02/2020 22:51:12	120220	12022020	225111	237.42	12.212290	-57.092127	237.40	0.180	-1.350	1.050	237.41	-2.80	1.40	 	 	 	 	 	 	 	 	 	 	 	 	 	 	 	 	 	 	1581547871	7.41	13.72
12/02/2020 22:51:13	120220	12022020	225112	237.32	12.212275	-57.092158	237.30	-0.080	-1.390	1.020	237.30	-2.80	1.40	 	 	 	 	 	 	 	 	 	 	 	 	 	 	 	 	 	 	1581547872	7.53	13.95
12/02/2020 22:51:14	120220	12022020	225113	237.25	12.212257	-57.092190	237.23	-0.310	-1.270	0.920	237.26	-2.60	1.30	 	 	 	 	 	 	 	 	 	 	 	 	 	 	 	 	 	 	1581547873	7.68	14.22
12/02/2020 22:51:15	120220	12022020	225114	237.33	12.212238	-57.092222	237.34	-0.420	-0.910	0.770	237.37	-2.20	1.10	 	 	 	 	 	 	 	 	 	 	 	 	 	 	 	 	 	 	1581547874	7.75	14.35
12/02/2020 22:51:16	120220	12022020	225115	237.50	12.212222	-57.092253	237.53	-0.430	-0.260	0.720	237.54	-1.50	1.10	 	 	 	 	 	 	 	 	 	 	 	 	 	 	 	 	 	 	1581547875	7.67	14.20
12/02/2020 22:51:17	120220	12022020	225116	237.60	12.212203	-57.092285	237.59	-0.420	0.590	0.850	237.60	-0.60	1.30	 	 	 	 	 	 	 	 	 	 	 	 	 	 	 	 	 	 	1581547876	7.51	13.91
12/02/2020 22:51:18	120220	12022020	225117	237.58	12.212187	-57.092315	237.57	-0.430	1.350	1.070	237.55	0.10	1.50	 	 	 	 	 	 	 	 	 	 	 	 	 	 	 	 	 	 	1581547877	7.35	13.61
12/02/2020 22:51:19	120220	12022020	225118	237.41	12.212170	-57.092345	237.38	-0.360	1.630	1.260	237.36	0.20	1.70	 	 	 	 	 	 	 	 	 	 	 	 	 	 	 	 	 	 	1581547878	7.41	13.72
12/02/2020 22:51:20	120220	12022020	225119	237.17	12.212152	-57.092377	237.15	-0.120	1.320	1.250	237.13	-0.20	1.60	 	 	 	 	 	 	 	 	 	 	 	 	 	 	 	 	 	 	1581547879	7.63	14.13
12/02/2020 22:51:21	120220	12022020	225120	237.07	12.212132	-57.092407	237.08	0.220	0.670	0.960	237.08	-0.90	1.30	 	 	 	 	 	 	 	 	 	 	 	 	 	 	 	 	 	 	1581547880	7.56	14.00
12/02/2020 22:51:22	120220	12022020	225121	237.15	12.212113	-57.092435	237.16	0.530	-0.250	0.630	237.15	-1.90	1.00	 	 	 	 	 	 	 	 	 	 	 	 	 	 	 	 	 	 	1581547881	7.45	13.80
12/02/2020 22:51:23	120220	12022020	225122	237.23	12.212095	-57.092467	237.23	0.760	-1.380	0.510	237.24	-3.10	0.90	 	 	 	 	 	 	 	 	 	 	 	 	 	 	 	 	 	 	1581547882	7.56	14.00
12/02/2020 22:51:24	120220	12022020	225123	237.23	12.212078	-57.092498	237.22	0.850	-2.390	0.610	237.22	-4.00	1.00	 	 	 	 	 	 	 	 	 	 	 	 	 	 	 	 	 	 	1581547883	7.74	14.33
12/02/2020 22:51:25	120220	12022020	225124	237.19	12.212062	-57.092530	237.20	0.700	-2.760	0.840	237.18	-4.10	1.30	 	 	 	 	 	 	 	 	 	 	 	 	 	 	 	 	 	 	1581547884	7.67	14.20
12/02/2020 22:51:26	120220	12022020	225125	237.13	12.212047	-57.092562	237.14	0.250	-2.230	1.100	237.11	-3.40	1.50	 	 	 	 	 	 	 	 	 	 	 	 	 	 	 	 	 	 	1581547885	7.33	13.58
12/02/2020 22:51:27	120220	12022020	225126	237.04	12.212030	-57.092592	237.05	-0.380	-1.070	1.330	237.02	-2.20	1.80	 	 	 	 	 	 	 	 	 	 	 	 	 	 	 	 	 	 	1581547886	7.09	13.13
12/02/2020 22:51:28	120220	12022020	225127	236.94	12.212015	-57.092622	236.96	-0.910	0.180	1.540	236.92	-1.00	2.00	 	 	 	 	 	 	 	 	 	 	 	 	 	 	 	 	 	 	1581547887	7.24	13.41
12/02/2020 22:51:29	120220	12022020	225128	236.88	12.211998	-57.092652	236.90	-1.080	1.180	1.630	236.87	-0.10	2.00	 	 	 	 	 	 	 	 	 	 	 	 	 	 	 	 	 	 	1581547888	7.58	14.04
12/02/2020 22:51:30	120220	12022020	225129	236.80	12.211980	-57.092685	236.83	-0.870	1.710	1.580	236.78	0.30	1.90	 	 	 	 	 	 	 	 	 	 	 	 	 	 	 	 	 	 	1581547889	7.81	14.46
12/02/2020 22:51:31	120220	12022020	225130	236.70	12.211960	-57.092717	236.73	-0.440	1.620	1.310	236.69	0.10	1.60	 	 	 	 	 	 	 	 	 	 	 	 	 	 	 	 	 	 	1581547890	8.06	14.93
12/02/2020 22:51:32	120220	12022020	225131	236.70	12.211938	-57.092748	236.73	-0.060	1.130	0.820	236.72	-0.40	1.10	 	 	 	 	 	 	 	 	 	 	 	 	 	 	 	 	 	 	1581547891	8.02	14.85
12/02/2020 22:51:33	120220	12022020	225132	236.92	12.211920	-57.092778	236.96	0.200	0.520	0.310	236.99	-1.10	0.60	 	 	 	 	 	 	 	 	 	 	 	 	 	 	 	 	 	 	1581547892	7.61	14.09
12/02/2020 22:51:34	120220	12022020	225133	237.34	12.211902	-57.092807	237.38	0.440	-0.240	-0.030	237.43	-1.90	0.30	 	 	 	 	 	 	 	 	 	 	 	 	 	 	 	 	 	 	1581547893	7.28	13.48
12/02/2020 22:51:35	120220	12022020	225134	237.68	12.211883	-57.092837	237.70	0.730	-1.190	0.000	237.71	-2.80	0.50	 	 	 	 	 	 	 	 	 	 	 	 	 	 	 	 	 	 	1581547894	7.36	13.63
12/02/2020 22:51:36	120220	12022020	225135	237.71	12.211867	-57.092868	237.71	0.920	-2.040	0.410	237.69	-3.60	0.90	 	 	 	 	 	 	 	 	 	 	 	 	 	 	 	 	 	 	1581547895	7.56	14.00
12/02/2020 22:51:37	120220	12022020	225136	237.53	12.211850	-57.092900	237.52	0.760	-2.360	0.920	237.49	-3.70	1.40	 	 	 	 	 	 	 	 	 	 	 	 	 	 	 	 	 	 	1581547896	7.55	13.98
12/02/2020 22:51:38	120220	12022020	225137	237.25	12.211835	-57.092932	237.24	0.240	-1.920	1.410	237.18	-3.10	1.90	 	 	 	 	 	 	 	 	 	 	 	 	 	 	 	 	 	 	1581547897	7.29	13.50
12/02/2020 22:51:39	120220	12022020	225138	236.94	12.211822	-57.092962	236.94	-0.360	-0.940	1.790	236.89	-2.10	2.20	 	 	 	 	 	 	 	 	 	 	 	 	 	 	 	 	 	 	1581547898	7.15	13.24
12/02/2020 22:51:40	120220	12022020	225139	236.76	12.211805	-57.092992	236.78	-0.770	0.180	1.950	236.73	-1.00	2.30	 	 	 	 	 	 	 	 	 	 	 	 	 	 	 	 	 	 	1581547899	7.18	13.30
12/02/2020 22:51:41	120220	12022020	225140	236.63	12.211790	-57.093023	236.66	-0.880	0.940	1.950	236.61	-0.40	2.30	 	 	 	 	 	 	 	 	 	 	 	 	 	 	 	 	 	 	1581547900	7.50	13.89
12/02/2020 22:51:42	120220	12022020	225141	236.58	12.211772	-57.093057	236.62	-0.710	1.150	1.790	236.59	-0.30	2.10	 	 	 	 	 	 	 	 	 	 	 	 	 	 	 	 	 	 	1581547901	7.96	14.74
12/02/2020 22:51:43	120220	12022020	225142	236.74	12.211753	-57.093088	236.80	-0.390	1.050	1.390	236.81	-0.40	1.60	 	 	 	 	 	 	 	 	 	 	 	 	 	 	 	 	 	 	1581547902	7.98	14.78
12/02/2020 22:51:44	120220	12022020	225143	237.11	12.211733	-57.093118	237.18	-0.030	0.850	0.780	237.20	-0.60	1.00	 	 	 	 	 	 	 	 	 	 	 	 	 	 	 	 	 	 	1581547903	7.64	14.15
12/02/2020 22:51:45	120220	12022020	225144	237.47	12.211713	-57.093147	237.50	0.310	0.420	0.230	237.53	-1.10	0.50	 	 	 	 	 	 	 	 	 	 	 	 	 	 	 	 	 	 	1581547904	7.46	13.82
12/02/2020 22:51:46	120220	12022020	225145	237.66	12.211693	-57.093177	237.71	0.570	-0.250	-0.010	237.70	-1.80	0.40	 	 	 	 	 	 	 	 	 	 	 	 	 	 	 	 	 	 	1581547905	7.51	13.91
12/02/2020 22:51:47	120220	12022020	225146	237.80	12.211677	-57.093207	237.79	0.680	-0.920	0.140	237.80	-2.50	0.60	 	 	 	 	 	 	 	 	 	 	 	 	 	 	 	 	 	 	1581547906	7.46	13.82
12/02/2020 22:51:48	120220	12022020	225147	237.73	12.211660	-57.093238	237.72	0.630	-1.440	0.620	237.73	-2.90	1.10	 	 	 	 	 	 	 	 	 	 	 	 	 	 	 	 	 	 	1581547907	7.39	13.69
12/02/2020 22:51:49	120220	12022020	225148	237.47	12.211645	-57.093270	237.47	0.460	-1.730	1.180	237.41	-3.20	1.70	 	 	 	 	 	 	 	 	 	 	 	 	 	 	 	 	 	 	1581547908	7.43	13.76
12/02/2020 22:51:50	120220	12022020	225149	237.12	12.211630	-57.093302	237.15	0.160	-1.670	1.640	237.06	-3.00	2.10	 	 	 	 	 	 	 	 	 	 	 	 	 	 	 	 	 	 	1581547909	7.50	13.89
12/02/2020 22:51:51	120220	12022020	225150	236.88	12.211615	-57.093333	236.92	-0.170	-1.060	1.800	236.85	-2.30	2.20	 	 	 	 	 	 	 	 	 	 	 	 	 	 	 	 	 	 	1581547910	7.33	13.58
12/02/2020 22:51:52	120220	12022020	225151	236.81	12.211598	-57.093362	236.88	-0.420	-0.070	1.710	236.81	-1.30	2.10	 	 	 	 	 	 	 	 	 	 	 	 	 	 	 	 	 	 	1581547911	7.10	13.15
12/02/2020 22:51:53	120220	12022020	225152	236.81	12.211582	-57.093392	236.86	-0.510	0.740	1.540	236.81	-0.60	1.90	 	 	 	 	 	 	 	 	 	 	 	 	 	 	 	 	 	 	1581547912	7.19	13.32
12/02/2020 22:51:54	120220	12022020	225153	236.77	12.211563	-57.093422	236.82	-0.450	0.990	1.300	236.77	-0.40	1.60	 	 	 	 	 	 	 	 	 	 	 	 	 	 	 	 	 	 	1581547913	7.66	14.19
12/02/2020 22:51:55	120220	12022020	225154	236.78	12.211543	-57.093453	236.83	-0.300	0.810	0.990	236.79	-0.70	1.30	 	 	 	 	 	 	 	 	 	 	 	 	 	 	 	 	 	 	1581547914	7.92	14.67
12/02/2020 22:51:56	120220	12022020	225155	236.84	12.211523	-57.093485	236.89	-0.120	0.430	0.760	236.87	-1.10	1.10	 	 	 	 	 	 	 	 	 	 	 	 	 	 	 	 	 	 	1581547915	7.82	14.48
12/02/2020 22:51:57	120220	12022020	225156	236.99	12.211505	-57.093517	237.04	0.050	-0.070	0.700	237.03	-1.60	1.10	 	 	 	 	 	 	 	 	 	 	 	 	 	 	 	 	 	 	1581547916	7.67	14.20
12/02/2020 22:51:58	120220	12022020	225157	237.23	12.211490	-57.093547	237.27	0.190	-0.520	0.710	237.28	-2.00	1.10	 	 	 	 	 	 	 	 	 	 	 	 	 	 	 	 	 	 	1581547917	7.49	13.87
12/02/2020 22:51:59	120220	12022020	225158	237.38	12.211475	-57.093578	237.41	0.330	-0.770	0.790	237.38	-2.20	1.20	 	 	 	 	 	 	 	 	 	 	 	 	 	 	 	 	 	 	1581547918	7.25	13.43
12/02/2020 22:52:00	120220	12022020	225159	237.21	12.211458	-57.093608	237.19	0.500	-0.870	1.060	237.15	-2.30	1.50	 	 	 	 	 	 	 	 	 	 	 	 	 	 	 	 	 	 	1581547919	7.15	13.24
12/02/2020 22:52:01	120220	12022020	225200	236.88	12.211442	-57.093637	236.88	0.600	-0.850	1.210	236.83	-2.20	1.60	 	 	 	 	 	 	 	 	 	 	 	 	 	 	 	 	 	 	1581547920	7.21	13.35
12/02/2020 22:52:02	120220	12022020	225201	236.81	12.211423	-57.093665	236.85	0.480	-0.680	1.040	236.84	-2.00	1.40	1015.20	32.00	28.50	21.90	21.20	-2.0	55.0	64.0	387.0	26.1	186.00	6.10	61.00	10.00	17	12317.0	27.4	27.4	1581547921	7.23	13.39
12/02/2020 22:52:03	120220	12022020	225202	237.12	12.211403	-57.093693	237.19	0.120	-0.490	0.770	237.21	-1.90	1.10	 	 	 	 	 	 	 	 	 	 	 	 	 	 	 	 	 	 	1581547922	7.26	13.45
12/02/2020 22:52:04	120220	12022020	225203	237.52	12.211385	-57.093725	237.58	-0.290	-0.510	0.760	237.58	-1.90	1.20	 	 	 	 	 	 	 	 	 	 	 	 	 	 	 	 	 	 	1581547923	7.55	13.98
12/02/2020 22:52:05	120220	12022020	225204	237.69	12.211368	-57.093757	237.72	-0.530	-0.580	1.030	237.68	-1.90	1.50	 	 	 	 	 	 	 	 	 	 	 	 	 	 	 	 	 	 	1581547924	7.88	14.59
12/02/2020 22:52:06	120220	12022020	225205	237.53	12.211353	-57.093790	237.54	-0.590	-0.300	1.440	237.46	-1.60	1.90	 	 	 	 	 	 	 	 	 	 	 	 	 	 	 	 	 	 	1581547925	7.74	14.33
12/02/2020 22:52:07	120220	12022020	225206	237.14	12.211338	-57.093822	237.14	-0.550	0.310	1.830	237.04	-1.00	2.30	 	 	 	 	 	 	 	 	 	 	 	 	 	 	 	 	 	 	1581547926	7.36	13.63
12/02/2020 22:52:08	120220	12022020	225207	236.67	12.211323	-57.093853	236.67	-0.430	0.800	1.960	236.59	-0.60	2.30	 	 	 	 	 	 	 	 	 	 	 	 	 	 	 	 	 	 	1581547927	7.19	13.32
12/02/2020 22:52:09	120220	12022020	225208	236.34	12.211307	-57.093883	236.36	-0.140	0.750	1.600	236.31	-0.80	1.80	 	 	 	 	 	 	 	 	 	 	 	 	 	 	 	 	 	 	1581547928	7.36	13.63
12/02/2020 22:52:10	120220	12022020	225209	236.33	12.211287	-57.093913	236.37	0.280	0.150	0.820	236.33	-1.40	1.00	 	 	 	 	 	 	 	 	 	 	 	 	 	 	 	 	 	 	1581547929	7.72	14.30
12/02/2020 22:52:11	120220	12022020	225210	236.65	12.211265	-57.093943	236.70	0.610	-0.700	-0.070	236.75	-2.30	0.10	 	 	 	 	 	 	 	 	 	 	 	 	 	 	 	 	 	 	1581547930	7.94	14.70
12/02/2020 22:52:12	120220	12022020	225211	237.21	12.211243	-57.093972	237.26	0.580	-1.230	-0.730	237.34	-2.70	-0.40	 	 	 	 	 	 	 	 	 	 	 	 	 	 	 	 	 	 	1581547931	7.70	14.26
12/02/2020 22:52:13	120220	12022020	225212	237.87	12.211225	-57.094000	237.91	0.230	-1.090	-1.040	237.98	-2.40	-0.60	 	 	 	 	 	 	 	 	 	 	 	 	 	 	 	 	 	 	1581547932	7.09	13.13
12/02/2020 22:52:14	120220	12022020	225213	238.31	12.211208	-57.094027	238.30	-0.110	-0.640	-0.860	238.35	-1.90	-0.30	 	 	 	 	 	 	 	 	 	 	 	 	 	 	 	 	 	 	1581547933	6.83	12.65
12/02/2020 22:52:15	120220	12022020	225214	238.32	12.211193	-57.094057	238.28	-0.190	-0.270	-0.130	238.26	-1.60	0.50	 	 	 	 	 	 	 	 	 	 	 	 	 	 	 	 	 	 	1581547934	7.10	13.15
12/02/2020 22:52:16	120220	12022020	225215	237.94	12.211178	-57.094090	237.89	-0.110	-0.020	0.900	237.84	-1.40	1.50	 	 	 	 	 	 	 	 	 	 	 	 	 	 	 	 	 	 	1581547935	7.43	13.76
12/02/2020 22:52:17	120220	12022020	225216	237.43	12.211165	-57.094122	237.40	-0.010	0.150	1.820	237.33	-1.20	2.40	 	 	 	 	 	 	 	 	 	 	 	 	 	 	 	 	 	 	1581547936	7.54	13.96
12/02/2020 22:52:18	120220	12022020	225217	236.97	12.211150	-57.094155	236.96	0.020	0.140	2.360	236.89	-1.30	2.80	 	 	 	 	 	 	 	 	 	 	 	 	 	 	 	 	 	 	1581547937	7.59	14.06
12/02/2020 22:52:19	120220	12022020	225218	236.65	12.211133	-57.094187	236.66	0.040	-0.150	2.400	236.60	-1.70	2.70	 	 	 	 	 	 	 	 	 	 	 	 	 	 	 	 	 	 	1581547938	7.70	14.26
12/02/2020 22:52:20	120220	12022020	225219	236.41	12.211115	-57.094220	236.41	0.020	-0.630	2.080	236.36	-2.10	2.40	 	 	 	 	 	 	 	 	 	 	 	 	 	 	 	 	 	 	1581547939	7.92	14.67
12/02/2020 22:52:21	120220	12022020	225220	236.29	12.211097	-57.094252	236.32	-0.090	-0.860	1.510	236.30	-2.20	1.70	 	 	 	 	 	 	 	 	 	 	 	 	 	 	 	 	 	 	1581547940	7.81	14.46
12/02/2020 22:52:22	120220	12022020	225221	236.50	12.211080	-57.094280	236.56	-0.210	-0.540	0.730	236.58	-1.80	0.90	 	 	 	 	 	 	 	 	 	 	 	 	 	 	 	 	 	 	1581547941	7.23	13.39
12/02/2020 22:52:23	120220	12022020	225222	236.99	12.211062	-57.094308	237.07	-0.220	0.020	-0.040	237.12	-1.30	0.20	 	 	 	 	 	 	 	 	 	 	 	 	 	 	 	 	 	 	1581547942	6.82	12.63
12/02/2020 22:52:24	120220	12022020	225223	237.65	12.211045	-57.094335	237.71	-0.030	0.310	-0.650	237.65	-1.10	-0.40	 	 	 	 	 	 	 	 	 	 	 	 	 	 	 	 	 	 	1581547943	6.97	12.91
12/02/2020 22:52:25	120220	12022020	225224	238.23	12.211025	-57.094363	238.25	0.230	0.240	-0.900	238.31	-1.20	-0.50	 	 	 	 	 	 	 	 	 	 	 	 	 	 	 	 	 	 	1581547944	7.31	13.54
12/02/2020 22:52:26	120220	12022020	225225	238.41	12.211007	-57.094393	238.37	0.410	-0.110	-0.540	238.39	-1.60	0.00	 	 	 	 	 	 	 	 	 	 	 	 	 	 	 	 	 	 	1581547945	7.56	14.00
12/02/2020 22:52:27	120220	12022020	225226	238.09	12.210988	-57.094427	238.01	0.360	-0.580	0.360	237.99	-2.10	1.00	 	 	 	 	 	 	 	 	 	 	 	 	 	 	 	 	 	 	1581547946	7.78	14.41
12/02/2020 22:52:28	120220	12022020	225227	237.43	12.210973	-57.094460	237.34	0.090	-0.770	1.550	237.28	-2.10	2.20	 	 	 	 	 	 	 	 	 	 	 	 	 	 	 	 	 	 	1581547947	7.72	14.30
12/02/2020 22:52:29	120220	12022020	225228	236.71	12.210962	-57.094492	236.67	-0.210	-0.540	2.500	236.58	-1.80	3.00	 	 	 	 	 	 	 	 	 	 	 	 	 	 	 	 	 	 	1581547948	7.43	13.76
12/02/2020 22:52:30	120220	12022020	225229	236.19	12.210948	-57.094523	236.18	-0.330	-0.120	2.840	236.12	-1.40	3.20	 	 	 	 	 	 	 	 	 	 	 	 	 	 	 	 	 	 	1581547949	7.12	13.19
12/02/2020 22:52:31	120220	12022020	225230	236.02	12.210933	-57.094553	236.06	-0.250	0.080	2.550	236.03	-1.30	2.80	 	 	 	 	 	 	 	 	 	 	 	 	 	 	 	 	 	 	1581547950	7.13	13.20
12/02/2020 22:52:32	120220	12022020	225231	236.25	12.210915	-57.094583	236.32	-0.060	-0.140	1.790	236.35	-1.60	1.90	 	 	 	 	 	 	 	 	 	 	 	 	 	 	 	 	 	 	1581547951	7.43	13.76
12/02/2020 22:52:33	120220	12022020	225232	236.80	12.210895	-57.094613	236.87	0.130	-0.670	0.770	236.92	-2.20	0.90	 	 	 	 	 	 	 	 	 	 	 	 	 	 	 	 	 	 	1581547952	7.73	14.32
12/02/2020 22:52:34	120220	12022020	225233	237.33	12.210873	-57.094643	237.35	0.210	-1.180	-0.050	237.41	-2.60	0.20	 	 	 	 	 	 	 	 	 	 	 	 	 	 	 	 	 	 	1581547953	7.92	14.67
12/02/2020 22:52:35	120220	12022020	225234	237.64	12.210853	-57.094673	237.63	0.080	-1.140	-0.420	237.67	-2.40	-0.00	 	 	 	 	 	 	 	 	 	 	 	 	 	 	 	 	 	 	1581547954	7.62	14.11
12/02/2020 22:52:36	120220	12022020	225235	237.68	12.210837	-57.094702	237.62	-0.230	-0.560	-0.310	237.66	-1.80	0.20	 	 	 	 	 	 	 	 	 	 	 	 	 	 	 	 	 	 	1581547955	7.15	13.24
12/02/2020 22:52:37	120220	12022020	225236	237.47	12.210820	-57.094732	237.41	-0.480	0.140	0.100	237.41	-1.10	0.60	 	 	 	 	 	 	 	 	 	 	 	 	 	 	 	 	 	 	1581547956	7.08	13.11
12/02/2020 22:52:38	120220	12022020	225237	237.17	12.210805	-57.094762	237.12	-0.500	0.740	0.550	237.11	-0.50	1.00	 	 	 	 	 	 	 	 	 	 	 	 	 	 	 	 	 	 	1581547957	7.22	13.37
12/02/2020 22:52:39	120220	12022020	225238	236.93	12.210788	-57.094792	236.89	-0.280	1.210	0.960	236.89	-0.10	1.40	 	 	 	 	 	 	 	 	 	 	 	 	 	 	 	 	 	 	1581547958	7.16	13.26
12/02/2020 22:52:40	120220	12022020	225239	236.76	12.210773	-57.094822	236.75	0.080	1.300	1.390	236.73	-0.20	1.90	 	 	 	 	 	 	 	 	 	 	 	 	 	 	 	 	 	 	1581547959	7.13	13.20
12/02/2020 22:52:41	120220	12022020	225240	236.61	12.210758	-57.094853	236.61	0.430	0.660	1.810	236.58	-1.00	2.30	 	 	 	 	 	 	 	 	 	 	 	 	 	 	 	 	 	 	1581547960	7.44	13.78
12/02/2020 22:52:42	120220	12022020	225241	236.52	12.210743	-57.094887	236.56	0.690	-0.530	2.000	236.52	-2.20	2.30	 	 	 	 	 	 	 	 	 	 	 	 	 	 	 	 	 	 	1581547961	7.83	14.50
12/02/2020 22:52:43	120220	12022020	225242	236.61	12.210725	-57.094920	236.67	0.790	-1.680	1.670	236.65	-3.30	1.90	 	 	 	 	 	 	 	 	 	 	 	 	 	 	 	 	 	 	1581547962	7.83	14.50
12/02/2020 22:52:44	120220	12022020	225243	236.89	12.210707	-57.094948	236.95	0.670	-2.220	0.980	236.96	-3.60	1.20	 	 	 	 	 	 	 	 	 	 	 	 	 	 	 	 	 	 	1581547963	7.43	13.76
12/02/2020 22:52:45	120220	12022020	225244	237.19	12.210688	-57.094977	237.21	0.310	-2.030	0.360	237.22	-3.30	0.70	 	 	 	 	 	 	 	 	 	 	 	 	 	 	 	 	 	 	1581547964	7.01	12.98
12/02/2020 22:52:46	120220	12022020	225245	237.26	12.210670	-57.095003	237.25	-0.150	-1.460	0.200	237.23	-2.70	0.70	 	 	 	 	 	 	 	 	 	 	 	 	 	 	 	 	 	 	1581547965	6.96	12.89
12/02/2020 22:52:47	120220	12022020	225246	237.04	12.210653	-57.095033	237.01	-0.550	-0.810	0.580	236.97	-2.00	1.10	 	 	 	 	 	 	 	 	 	 	 	 	 	 	 	 	 	 	1581547966	7.34	13.59
12/02/2020 22:52:48	120220	12022020	225247	236.70	12.210637	-57.095065	236.67	-0.820	-0.040	1.110	236.63	-1.20	1.60	 	 	 	 	 	 	 	 	 	 	 	 	 	 	 	 	 	 	1581547967	7.60	14.08
12/02/2020 22:52:49	120220	12022020	225248	236.39	12.210622	-57.095097	236.39	-0.940	0.950	1.580	236.34	-0.20	2.00	 	 	 	 	 	 	 	 	 	 	 	 	 	 	 	 	 	 	1581547968	7.45	13.80
12/02/2020 22:52:50	120220	12022020	225249	236.22	12.210607	-57.095127	236.24	-0.850	1.820	1.820	236.20	0.50	2.20	 	 	 	 	 	 	 	 	 	 	 	 	 	 	 	 	 	 	1581547969	7.18	13.30
12/02/2020 22:52:51	120220	12022020	225250	236.22	12.210590	-57.095157	236.26	-0.500	1.950	1.760	236.24	0.40	2.10	 	 	 	 	 	 	 	 	 	 	 	 	 	 	 	 	 	 	1581547970	7.28	13.48
12/02/2020 22:52:52	120220	12022020	225251	236.31	12.210572	-57.095188	236.35	0.090	1.140	1.500	236.33	-0.60	1.80	 	 	 	 	 	 	 	 	 	 	 	 	 	 	 	 	 	 	1581547971	7.71	14.28
12/02/2020 22:52:53	120220	12022020	225252	236.45	12.210552	-57.095220	236.50	0.680	-0.200	1.060	236.50	-1.90	1.30	 	 	 	 	 	 	 	 	 	 	 	 	 	 	 	 	 	 	1581547972	7.97	14.76
12/02/2020 22:52:54	120220	12022020	225253	236.69	12.210532	-57.095250	236.72	0.990	-1.330	0.550	236.74	-2.90	0.80	 	 	 	 	 	 	 	 	 	 	 	 	 	 	 	 	 	 	1581547973	7.68	14.22
12/02/2020 22:52:55	120220	12022020	225254	236.90	12.210513	-57.095278	236.91	0.930	-1.830	0.130	236.92	-3.30	0.50	 	 	 	 	 	 	 	 	 	 	 	 	 	 	 	 	 	 	1581547974	7.10	13.15
12/02/2020 22:52:56	120220	12022020	225255	236.89	12.210495	-57.095305	236.88	0.620	-1.830	0.160	236.86	-3.20	0.60	 	 	 	 	 	 	 	 	 	 	 	 	 	 	 	 	 	 	1581547975	6.81	12.61
12/02/2020 22:52:57	120220	12022020	225256	236.66	12.210478	-57.095332	236.65	0.200	-1.410	0.640	236.61	-2.70	1.20	 	 	 	 	 	 	 	 	 	 	 	 	 	 	 	 	 	 	1581547976	6.84	12.67
12/02/2020 22:52:58	120220	12022020	225257	236.44	12.210465	-57.095362	236.45	-0.230	-0.690	1.260	236.42	-1.90	1.80	 	 	 	 	 	 	 	 	 	 	 	 	 	 	 	 	 	 	1581547977	6.91	12.80
12/02/2020 22:52:59	120220	12022020	225258	236.36	12.210452	-57.095393	236.39	-0.580	0.040	1.760	236.35	-1.20	2.20	 	 	 	 	 	 	 	 	 	 	 	 	 	 	 	 	 	 	1581547978	7.11	13.17
12/02/2020 22:53:00	120220	12022020	225259	236.37	12.210438	-57.095425	236.40	-0.700	0.410	1.960	236.37	-1.00	2.30	 	 	 	 	 	 	 	 	 	 	 	 	 	 	 	 	 	 	1581547979	7.43	13.76
12/02/2020 22:53:01	120220	12022020	225300	236.38	12.210420	-57.095457	236.42	-0.560	0.370	1.820	236.38	-1.10	2.10	 	 	 	 	 	 	 	 	 	 	 	 	 	 	 	 	 	 	1581547980	7.79	14.43
12/02/2020 22:53:02	120220	12022020	225301	236.39	12.210402	-57.095488	236.42	-0.260	0.190	1.390	236.40	-1.20	1.60	1015.20	30.30	29.40	21.60	21.60	-2.0	59.0	62.0	387.0	26.0	185.00	5.00	60.00	8.80	17	10864.0	27.4	27.4	1581547981	7.88	14.59
12/02/2020 22:53:03	120220	12022020	225302	236.46	12.210380	-57.095518	236.47	-0.030	0.170	0.780	236.47	-1.20	1.00	 	 	 	 	 	 	 	 	 	 	 	 	 	 	 	 	 	 	1581547982	7.57	14.02
12/02/2020 22:53:04	120220	12022020	225303	236.53	12.210360	-57.095545	236.53	0.050	0.230	0.260	236.54	-1.20	0.60	 	 	 	 	 	 	 	 	 	 	 	 	 	 	 	 	 	 	1581547983	7.23	13.39
12/02/2020 22:53:05	120220	12022020	225304	236.60	12.210340	-57.095572	236.60	0.050	0.140	0.100	236.61	-1.30	0.50	 	 	 	 	 	 	 	 	 	 	 	 	 	 	 	 	 	 	1581547984	7.13	13.20
12/02/2020 22:53:06	120220	12022020	225305	236.69	12.210323	-57.095602	236.71	0.090	-0.170	0.300	236.71	-1.70	0.80	 	 	 	 	 	 	 	 	 	 	 	 	 	 	 	 	 	 	1581547985	7.23	13.39
12/02/2020 22:53:07	120220	12022020	225306	236.79	12.210308	-57.095632	236.83	0.200	-0.500	0.660	236.81	-1.90	1.10	 	 	 	 	 	 	 	 	 	 	 	 	 	 	 	 	 	 	1581547986	7.31	13.54
12/02/2020 22:53:08	120220	12022020	225307	236.88	12.210293	-57.095663	236.92	0.300	-0.610	0.980	236.90	-2.00	1.40	 	 	 	 	 	 	 	 	 	 	 	 	 	 	 	 	 	 	1581547987	7.11	13.17
12/02/2020 22:53:09	120220	12022020	225308	236.87	12.210278	-57.095692	236.89	0.350	-0.640	1.230	236.84	-2.10	1.70	 	 	 	 	 	 	 	 	 	 	 	 	 	 	 	 	 	 	1581547988	7.03	13.02
12/02/2020 22:53:10	120220	12022020	225309	236.61	12.210262	-57.095722	236.61	0.330	-0.750	1.470	236.55	-2.20	1.90	 	 	 	 	 	 	 	 	 	 	 	 	 	 	 	 	 	 	1581547989	7.23	13.39
12/02/2020 22:53:11	120220	12022020	225310	236.29	12.210245	-57.095752	236.29	0.230	-0.770	1.580	236.24	-2.20	2.00	 	 	 	 	 	 	 	 	 	 	 	 	 	 	 	 	 	 	1581547990	7.41	13.72
12/02/2020 22:53:12	120220	12022020	225311	236.14	12.210228	-57.095782	236.13	0.040	-0.600	1.450	236.12	-1.90	1.80	 	 	 	 	 	 	 	 	 	 	 	 	 	 	 	 	 	 	1581547991	7.32	13.56
12/02/2020 22:53:13	120220	12022020	225312	236.10	12.210210	-57.095812	236.12	-0.130	-0.340	1.180	236.12	-1.70	1.50	 	 	 	 	 	 	 	 	 	 	 	 	 	 	 	 	 	 	1581547992	7.30	13.52
12/02/2020 22:53:14	120220	12022020	225313	236.19	12.210192	-57.095842	236.25	-0.220	-0.100	0.840	236.21	-1.50	1.20	 	 	 	 	 	 	 	 	 	 	 	 	 	 	 	 	 	 	1581547993	7.36	13.63
12/02/2020 22:53:15	120220	12022020	225314	236.42	12.210173	-57.095870	236.44	-0.260	0.040	0.610	236.47	-1.40	1.00	 	 	 	 	 	 	 	 	 	 	 	 	 	 	 	 	 	 	1581547994	7.41	13.72
12/02/2020 22:53:16	120220	12022020	225315	236.65	12.210155	-57.095902	236.66	-0.310	0.030	0.650	236.69	-1.40	1.10	 	 	 	 	 	 	 	 	 	 	 	 	 	 	 	 	 	 	1581547995	7.48	13.85
12/02/2020 22:53:17	120220	12022020	225316	236.75	12.210140	-57.095932	236.76	-0.360	0.060	0.970	236.74	-1.30	1.40	 	 	 	 	 	 	 	 	 	 	 	 	 	 	 	 	 	 	1581547996	7.41	13.72
12/02/2020 22:53:18	120220	12022020	225317	236.59	12.210125	-57.095963	236.59	-0.240	0.250	1.360	236.54	-1.10	1.80	 	 	 	 	 	 	 	 	 	 	 	 	 	 	 	 	 	 	1581547997	7.16	13.26
12/02/2020 22:53:19	120220	12022020	225318	236.29	12.210110	-57.095992	236.29	0.110	0.510	1.570	236.24	-0.90	1.90	 	 	 	 	 	 	 	 	 	 	 	 	 	 	 	 	 	 	1581547998	6.87	12.72
12/02/2020 22:53:20	120220	12022020	225319	236.08	12.210093	-57.096018	236.10	0.510	0.450	1.390	236.07	-1.10	1.70	 	 	 	 	 	 	 	 	 	 	 	 	 	 	 	 	 	 	1581547999	6.89	12.76
12/02/2020 22:53:21	120220	12022020	225320	236.13	12.210073	-57.096047	236.16	0.710	-0.200	1.000	236.17	-1.80	1.30	 	 	 	 	 	 	 	 	 	 	 	 	 	 	 	 	 	 	1581548000	7.32	13.56
12/02/2020 22:53:22	120220	12022020	225321	236.37	12.210053	-57.096078	236.40	0.590	-1.240	0.740	236.42	-2.90	1.10	 	 	 	 	 	 	 	 	 	 	 	 	 	 	 	 	 	 	1581548001	7.79	14.43
12/02/2020 22:53:23	120220	12022020	225322	236.47	12.210035	-57.096110	236.46	0.280	-2.110	0.910	236.44	-3.60	1.40	 	 	 	 	 	 	 	 	 	 	 	 	 	 	 	 	 	 	1581548002	7.97	14.76
12/02/2020 22:53:24	120220	12022020	225323	236.29	12.210020	-57.096143	236.25	-0.090	-2.180	1.420	236.24	-3.40	2.00	 	 	 	 	 	 	 	 	 	 	 	 	 	 	 	 	 	 	1581548003	7.68	14.22
12/02/2020 22:53:25	120220	12022020	225324	236.03	12.210005	-57.096173	236.01	-0.450	-1.310	1.940	235.98	-2.40	2.40	 	 	 	 	 	 	 	 	 	 	 	 	 	 	 	 	 	 	1581548004	7.07	13.09
12/02/2020 22:53:26	120220	12022020	225325	235.84	12.209992	-57.096202	235.77	-0.720	-0.010	2.210	235.80	-1.10	2.60	 	 	 	 	 	 	 	 	 	 	 	 	 	 	 	 	 	 	1581548005	6.72	12.45
12/02/2020 22:53:27	120220	12022020	225326	235.59	12.209977	-57.096230	235.57	-0.790	1.000	2.200	235.55	-0.30	2.60	 	 	 	 	 	 	 	 	 	 	 	 	 	 	 	 	 	 	1581548006	6.91	12.80
12/02/2020 22:53:28	120220	12022020	225327	235.46	12.209958	-57.096260	235.46	-0.630	1.340	2.000	235.46	-0.10	2.30	 	 	 	 	 	 	 	 	 	 	 	 	 	 	 	 	 	 	1581548007	7.42	13.74
12/02/2020 22:53:29	120220	12022020	225328	235.53	12.209940	-57.096292	235.54	-0.290	1.210	1.590	235.55	-0.30	1.90	 	 	 	 	 	 	 	 	 	 	 	 	 	 	 	 	 	 	1581548008	7.67	14.20
12/02/2020 22:53:30	120220	12022020	225329	235.72	12.209920	-57.096320	235.73	0.140	0.860	1.100	235.76	-0.60	1.40	 	 	 	 	 	 	 	 	 	 	 	 	 	 	 	 	 	 	1581548009	7.54	13.96
12/02/2020 22:53:31	120220	12022020	225330	235.94	12.209900	-57.096348	235.95	0.500	0.390	0.660	235.99	-1.20	1.00	 	 	 	 	 	 	 	 	 	 	 	 	 	 	 	 	 	 	1581548010	7.25	13.43
12/02/2020 22:53:32	120220	12022020	225331	236.17	12.209882	-57.096377	236.16	0.710	-0.310	0.340	236.21	-1.90	0.70	 	 	 	 	 	 	 	 	 	 	 	 	 	 	 	 	 	 	1581548011	7.16	13.26
12/02/2020 22:53:33	120220	12022020	225332	236.28	12.209863	-57.096407	236.27	0.770	-1.170	0.280	236.27	-2.80	0.70	 	 	 	 	 	 	 	 	 	 	 	 	 	 	 	 	 	 	1581548012	7.28	13.48
12/02/2020 22:53:34	120220	12022020	225333	236.16	12.209847	-57.096437	236.14	0.690	-1.890	0.570	236.11	-3.40	1.10	 	 	 	 	 	 	 	 	 	 	 	 	 	 	 	 	 	 	1581548013	7.39	13.69
12/02/2020 22:53:35	120220	12022020	225334	235.90	12.209830	-57.096467	235.88	0.410	-2.100	1.010	235.85	-3.40	1.50	 	 	 	 	 	 	 	 	 	 	 	 	 	 	 	 	 	 	1581548014	7.33	13.58
12/02/2020 22:53:36	120220	12022020	225335	235.65	12.209815	-57.096497	235.63	-0.040	-1.610	1.550	235.60	-2.80	2.10	 	 	 	 	 	 	 	 	 	 	 	 	 	 	 	 	 	 	1581548015	7.11	13.17
12/02/2020 22:53:37	120220	12022020	225336	235.44	12.209802	-57.096527	235.42	-0.490	-0.710	2.130	235.39	-1.90	2.70	 	 	 	 	 	 	 	 	 	 	 	 	 	 	 	 	 	 	1581548016	6.99	12.95
12/02/2020 22:53:38	120220	12022020	225337	235.22	12.209788	-57.096558	235.21	-0.750	0.070	2.520	235.18	-1.20	2.90	 	 	 	 	 	 	 	 	 	 	 	 	 	 	 	 	 	 	1581548017	7.26	13.45
12/02/2020 22:53:39	120220	12022020	225338	235.08	12.209770	-57.096590	235.09	-0.790	0.570	2.440	235.08	-0.70	2.70	 	 	 	 	 	 	 	 	 	 	 	 	 	 	 	 	 	 	1581548018	7.62	14.11
12/02/2020 22:53:40	120220	12022020	225339	235.21	12.209752	-57.096620	235.25	-0.670	0.990	1.820	235.27	-0.30	2.00	 	 	 	 	 	 	 	 	 	 	 	 	 	 	 	 	 	 	1581548019	7.57	14.02
12/02/2020 22:53:41	120220	12022020	225340	235.58	12.209730	-57.096647	235.62	-0.430	1.260	0.850	235.66	-0.20	1.00	 	 	 	 	 	 	 	 	 	 	 	 	 	 	 	 	 	 	1581548020	7.30	13.52
12/02/2020 22:53:42	120220	12022020	225341	235.97	12.209707	-57.096673	235.98	-0.130	1.010	0.040	236.03	-0.50	0.30	 	 	 	 	 	 	 	 	 	 	 	 	 	 	 	 	 	 	1581548021	7.36	13.63
12/02/2020 22:53:43	120220	12022020	225342	236.22	12.209687	-57.096702	236.20	0.190	0.230	-0.190	236.25	-1.40	0.30	 	 	 	 	 	 	 	 	 	 	 	 	 	 	 	 	 	 	1581548022	7.55	13.98
12/02/2020 22:53:44	120220	12022020	225343	236.27	12.209668	-57.096732	236.23	0.460	-0.660	0.170	236.26	-2.20	0.70	 	 	 	 	 	 	 	 	 	 	 	 	 	 	 	 	 	 	1581548023	7.57	14.02
12/02/2020 22:53:45	120220	12022020	225344	236.11	12.209653	-57.096763	236.06	0.600	-1.190	0.990	236.06	-2.60	1.60	 	 	 	 	 	 	 	 	 	 	 	 	 	 	 	 	 	 	1581548024	7.33	13.58
12/02/2020 22:53:46	120220	12022020	225345	235.81	12.209640	-57.096793	235.78	0.600	-1.280	1.840	235.74	-2.70	2.40	 	 	 	 	 	 	 	 	 	 	 	 	 	 	 	 	 	 	1581548025	7.01	12.98
12/02/2020 22:53:47	120220	12022020	225346	235.54	12.209627	-57.096823	235.54	0.460	-1.120	2.260	235.50	-2.50	2.70	 	 	 	 	 	 	 	 	 	 	 	 	 	 	 	 	 	 	1581548026	6.91	12.80
12/02/2020 22:53:48	120220	12022020	225347	235.43	12.209610	-57.096852	235.44	0.220	-0.850	2.090	235.44	-2.20	2.40	 	 	 	 	 	 	 	 	 	 	 	 	 	 	 	 	 	 	1581548027	6.95	12.87
12/02/2020 22:53:49	120220	12022020	225348	235.53	12.209590	-57.096878	235.53	-0.070	-0.560	1.500	235.56	-1.90	1.70	 	 	 	 	 	 	 	 	 	 	 	 	 	 	 	 	 	 	1581548028	7.11	13.17
12/02/2020 22:53:50	120220	12022020	225349	235.77	12.209570	-57.096907	235.78	-0.300	-0.310	0.780	235.83	-1.70	1.00	 	 	 	 	 	 	 	 	 	 	 	 	 	 	 	 	 	 	1581548029	7.32	13.56
12/02/2020 22:53:51	120220	12022020	225350	236.08	12.209550	-57.096935	236.10	-0.390	-0.090	0.220	236.16	-1.40	0.50	 	 	 	 	 	 	 	 	 	 	 	 	 	 	 	 	 	 	1581548030	7.46	13.82
12/02/2020 22:53:52	120220	12022020	225351	236.46	12.209530	-57.096963	236.49	-0.400	0.130	0.040	236.53	-1.20	0.50	 	 	 	 	 	 	 	 	 	 	 	 	 	 	 	 	 	 	1581548031	7.43	13.76
12/02/2020 22:53:53	120220	12022020	225352	236.74	12.209513	-57.096993	236.75	-0.430	0.210	0.300	236.76	-1.20	0.80	 	 	 	 	 	 	 	 	 	 	 	 	 	 	 	 	 	 	1581548032	7.44	13.78
12/02/2020 22:53:54	120220	12022020	225353	236.73	12.209497	-57.097025	236.73	-0.450	0.170	0.880	236.70	-1.30	1.40	 	 	 	 	 	 	 	 	 	 	 	 	 	 	 	 	 	 	1581548033	7.48	13.85
12/02/2020 22:53:55	120220	12022020	225354	236.53	12.209480	-57.097057	236.53	-0.350	0.130	1.500	236.49	-1.30	2.00	 	 	 	 	 	 	 	 	 	 	 	 	 	 	 	 	 	 	1581548034	7.38	13.67
12/02/2020 22:53:56	120220	12022020	225355	236.36	12.209465	-57.097087	236.39	-0.090	0.110	1.790	236.34	-1.30	2.20	 	 	 	 	 	 	 	 	 	 	 	 	 	 	 	 	 	 	1581548035	7.20	13.33
12/02/2020 22:53:57	120220	12022020	225356	236.30	12.209448	-57.097115	236.33	0.250	-0.010	1.580	236.29	-1.50	1.90	 	 	 	 	 	 	 	 	 	 	 	 	 	 	 	 	 	 	1581548036	7.12	13.19
12/02/2020 22:53:58	120220	12022020	225357	236.27	12.209428	-57.097143	236.30	0.520	-0.240	1.070	236.28	-1.70	1.30	 	 	 	 	 	 	 	 	 	 	 	 	 	 	 	 	 	 	1581548037	7.16	13.26
12/02/2020 22:53:59	120220	12022020	225358	236.41	12.209408	-57.097170	236.44	0.590	-0.400	0.410	236.46	-1.80	0.70	 	 	 	 	 	 	 	 	 	 	 	 	 	 	 	 	 	 	1581548038	7.11	13.17
12/02/2020 22:54:00	120220	12022020	225359	236.70	12.209390	-57.097197	236.73	0.460	-0.490	-0.010	236.76	-1.90	0.40	 	 	 	 	 	 	 	 	 	 	 	 	 	 	 	 	 	 	1581548039	6.98	12.93
12/02/2020 22:54:01	120220	12022020	225400	236.91	12.209372	-57.097225	236.91	0.280	-0.680	-0.010	236.93	-2.10	0.50	 	 	 	 	 	 	 	 	 	 	 	 	 	 	 	 	 	 	1581548040	7.09	13.13
12/02/2020 22:54:02	120220	12022020	225401	236.94	12.209355	-57.097255	236.93	0.160	-0.940	0.340	236.92	-2.40	0.90	1015.20	28.80	28.50	21.70	21.60	-2.0	65.0	66.0	388.0	26.0	187.00	4.70	60.00	8.40	17	10853.0	27.4	27.4	1581548041	7.38	13.67
12/02/2020 22:54:03	120220	12022020	225402	236.82	12.209338	-57.097287	236.82	0.050	-0.920	0.920	236.80	-2.20	1.50	 	 	 	 	 	 	 	 	 	 	 	 	 	 	 	 	 	 	1581548042	7.42	13.74
12/02/2020 22:54:04	120220	12022020	225403	236.74	12.209325	-57.097315	236.76	-0.190	-0.430	1.460	236.75	-1.70	1.90	 	 	 	 	 	 	 	 	 	 	 	 	 	 	 	 	 	 	1581548043	7.05	13.06
12/02/2020 22:54:05	120220	12022020	225404	236.83	12.209310	-57.097345	236.87	-0.490	0.170	1.690	236.87	-1.10	2.10	 	 	 	 	 	 	 	 	 	 	 	 	 	 	 	 	 	 	1581548044	6.84	12.67
12/02/2020 22:54:06	120220	12022020	225405	236.97	12.209295	-57.097373	237.00	-0.580	0.400	1.600	236.98	-1.00	1.90	 	 	 	 	 	 	 	 	 	 	 	 	 	 	 	 	 	 	1581548045	7.05	13.06
12/02/2020 22:54:07	120220	12022020	225406	236.93	12.209277	-57.097405	236.94	-0.320	0.150	1.290	236.91	-1.40	1.60	 	 	 	 	 	 	 	 	 	 	 	 	 	 	 	 	 	 	1581548046	7.49	13.87
12/02/2020 22:54:08	120220	12022020	225407	236.70	12.209255	-57.097435	236.69	0.070	-0.380	0.900	236.64	-1.90	1.20	 	 	 	 	 	 	 	 	 	 	 	 	 	 	 	 	 	 	1581548047	7.84	14.52
12/02/2020 22:54:09	120220	12022020	225408	236.46	12.209235	-57.097465	236.47	0.300	-0.680	0.490	236.44	-2.10	0.80	 	 	 	 	 	 	 	 	 	 	 	 	 	 	 	 	 	 	1581548048	7.69	14.24
12/02/2020 22:54:10	120220	12022020	225409	236.50	12.209217	-57.097493	236.53	0.250	-0.480	0.110	236.55	-1.80	0.50	 	 	 	 	 	 	 	 	 	 	 	 	 	 	 	 	 	 	1581548049	7.14	13.22
12/02/2020 22:54:11	120220	12022020	225410	236.84	12.209200	-57.097520	236.89	0.090	-0.100	-0.110	236.93	-1.40	0.30	 	 	 	 	 	 	 	 	 	 	 	 	 	 	 	 	 	 	1581548050	6.80	12.59
12/02/2020 22:54:12	120220	12022020	225411	237.28	12.209183	-57.097548	237.33	-0.020	0.050	-0.110	237.37	-1.40	0.30	 	 	 	 	 	 	 	 	 	 	 	 	 	 	 	 	 	 	1581548051	7.00	12.96
12/02/2020 22:54:13	120220	12022020	225412	237.66	12.209167	-57.097578	237.68	-0.070	-0.030	0.160	237.70	-1.40	0.70	 	 	 	 	 	 	 	 	 	 	 	 	 	 	 	 	 	 	1581548052	7.29	13.50
12/02/2020 22:54:14	120220	12022020	225413	237.75	12.209150	-57.097608	237.75	-0.110	-0.080	0.600	237.72	-1.50	1.10	 	 	 	 	 	 	 	 	 	 	 	 	 	 	 	 	 	 	1581548053	7.25	13.43
12/02/2020 22:54:15	120220	12022020	225414	237.47	12.209135	-57.097638	237.46	-0.090	-0.050	1.100	237.38	-1.40	1.60	 	 	 	 	 	 	 	 	 	 	 	 	 	 	 	 	 	 	1581548054	7.10	13.15
12/02/2020 22:54:16	120220	12022020	225415	236.94	12.209118	-57.097668	236.93	0.000	-0.160	1.510	236.94	-1.60	2.00	 	 	 	 	 	 	 	 	 	 	 	 	 	 	 	 	 	 	1581548055	7.15	13.24
12/02/2020 22:54:17	120220	12022020	225416	236.47	12.209102	-57.097698	236.46	0.100	-0.490	1.560	236.39	-2.00	1.90	 	 	 	 	 	 	 	 	 	 	 	 	 	 	 	 	 	 	1581548056	7.41	13.72
12/02/2020 22:54:18	120220	12022020	225417	236.25	12.209083	-57.097728	236.27	0.130	-0.810	1.320	236.24	-2.20	1.70	 	 	 	 	 	 	 	 	 	 	 	 	 	 	 	 	 	 	1581548057	7.47	13.83
12/02/2020 22:54:19	120220	12022020	225418	236.27	12.209067	-57.097758	236.29	0.060	-0.860	1.120	236.28	-2.20	1.50	 	 	 	 	 	 	 	 	 	 	 	 	 	 	 	 	 	 	1581548058	7.29	13.50
12/02/2020 22:54:20	120220	12022020	225419	236.39	12.209050	-57.097788	236.42	0.030	-0.680	1.040	236.42	-2.00	1.40	 	 	 	 	 	 	 	 	 	 	 	 	 	 	 	 	 	 	1581548059	7.12	13.19
12/02/2020 22:54:21	120220	12022020	225420	236.59	12.209035	-57.097817	236.63	0.050	-0.440	0.950	236.65	-1.80	1.30	 	 	 	 	 	 	 	 	 	 	 	 	 	 	 	 	 	 	1581548060	7.12	13.19
12/02/2020 22:54:22	120220	12022020	225421	236.85	12.209018	-57.097847	236.88	0.050	-0.280	0.770	236.90	-1.60	1.10	 	 	 	 	 	 	 	 	 	 	 	 	 	 	 	 	 	 	1581548061	7.28	13.48
12/02/2020 22:54:23	120220	12022020	225422	237.07	12.208998	-57.097877	237.09	-0.040	-0.150	0.500	237.10	-1.50	0.80	 	 	 	 	 	 	 	 	 	 	 	 	 	 	 	 	 	 	1581548062	7.41	13.72
12/02/2020 22:54:24	120220	12022020	225423	237.17	12.208980	-57.097905	237.18	-0.170	0.100	0.290	237.18	-1.20	0.70	 	 	 	 	 	 	 	 	 	 	 	 	 	 	 	 	 	 	1581548063	7.34	13.59
12/02/2020 22:54:25	120220	12022020	225424	237.16	12.208960	-57.097933	237.15	-0.300	0.410	0.310	237.14	-0.90	0.80	 	 	 	 	 	 	 	 	 	 	 	 	 	 	 	 	 	 	1581548064	7.13	13.20
12/02/2020 22:54:26	120220	12022020	225425	237.08	12.208943	-57.097962	237.08	-0.360	0.590	0.560	237.06	-0.80	1.00	 	 	 	 	 	 	 	 	 	 	 	 	 	 	 	 	 	 	1581548065	7.03	13.02
12/02/2020 22:54:27	120220	12022020	225426	236.99	12.208928	-57.097992	237.00	-0.270	0.400	0.850	236.98	-1.10	1.30	 	 	 	 	 	 	 	 	 	 	 	 	 	 	 	 	 	 	1581548066	7.23	13.39
12/02/2020 22:54:28	120220	12022020	225427	236.89	12.208913	-57.098023	236.90	0.050	-0.120	1.150	236.87	-1.60	1.60	 	 	 	 	 	 	 	 	 	 	 	 	 	 	 	 	 	 	1581548067	7.49	13.87
12/02/2020 22:54:29	120220	12022020	225428	236.81	12.208898	-57.098055	236.81	0.530	-0.620	1.260	236.80	-2.10	1.60	 	 	 	 	 	 	 	 	 	 	 	 	 	 	 	 	 	 	1581548068	7.40	13.70
12/02/2020 22:54:30	120220	12022020	225429	236.74	12.208880	-57.098083	236.73	0.820	-0.940	1.160	236.72	-2.40	1.50	 	 	 	 	 	 	 	 	 	 	 	 	 	 	 	 	 	 	1581548069	7.19	13.32
12/02/2020 22:54:31	120220	12022020	225430	236.62	12.208860	-57.098110	236.62	0.640	-1.110	1.020	236.60	-2.50	1.40	 	 	 	 	 	 	 	 	 	 	 	 	 	 	 	 	 	 	1581548070	7.16	13.26
12/02/2020 22:54:32	120220	12022020	225431	236.56	12.208843	-57.098140	236.57	0.080	-1.110	0.930	236.56	-2.50	1.30	 	 	 	 	 	 	 	 	 	 	 	 	 	 	 	 	 	 	1581548071	7.23	13.39
12/02/2020 22:54:33	120220	12022020	225432	236.58	12.208827	-57.098170	236.59	-0.490	-0.890	1.000	236.59	-2.20	1.40	 	 	 	 	 	 	 	 	 	 	 	 	 	 	 	 	 	 	1581548072	7.30	13.52
12/02/2020 22:54:34	120220	12022020	225433	236.63	12.208812	-57.098202	236.64	-0.720	-0.440	1.100	236.64	-1.70	1.50	 	 	 	 	 	 	 	 	 	 	 	 	 	 	 	 	 	 	1581548073	7.28	13.48
12/02/2020 22:54:35	120220	12022020	225434	236.67	12.208797	-57.098232	236.69	-0.600	0.080	1.180	236.68	-1.20	1.60	 	 	 	 	 	 	 	 	 	 	 	 	 	 	 	 	 	 	1581548074	7.24	13.41
12/02/2020 22:54:36	120220	12022020	225435	236.71	12.208780	-57.098262	236.74	-0.330	0.360	1.150	236.73	-1.00	1.50	 	 	 	 	 	 	 	 	 	 	 	 	 	 	 	 	 	 	1581548075	7.33	13.58
12/02/2020 22:54:37	120220	12022020	225436	236.80	12.208762	-57.098293	236.83	-0.080	0.290	1.070	236.83	-1.20	1.50	 	 	 	 	 	 	 	 	 	 	 	 	 	 	 	 	 	 	1581548076	7.59	14.06
12/02/2020 22:54:38	120220	12022020	225437	236.99	12.208743	-57.098323	237.04	0.060	0.080	0.880	237.04	-1.40	1.20	 	 	 	 	 	 	 	 	 	 	 	 	 	 	 	 	 	 	1581548077	7.64	14.15
12/02/2020 22:54:39	120220	12022020	225438	237.25	12.208723	-57.098353	237.29	0.100	-0.040	0.560	237.30	-1.40	0.90	 	 	 	 	 	 	 	 	 	 	 	 	 	 	 	 	 	 	1581548078	7.46	13.82
12/02/2020 22:54:40	120220	12022020	225439	237.38	12.208705	-57.098380	237.39	0.070	-0.030	0.380	237.39	-1.40	0.80	 	 	 	 	 	 	 	 	 	 	 	 	 	 	 	 	 	 	1581548079	7.18	13.30
12/02/2020 22:54:41	120220	12022020	225440	237.26	12.208688	-57.098410	237.25	0.030	-0.010	0.590	237.21	-1.40	1.10	 	 	 	 	 	 	 	 	 	 	 	 	 	 	 	 	 	 	1581548080	7.12	13.19
12/02/2020 22:54:42	120220	12022020	225441	237.00	12.208672	-57.098438	236.99	0.070	0.060	0.950	236.96	-1.30	1.40	 	 	 	 	 	 	 	 	 	 	 	 	 	 	 	 	 	 	1581548081	7.06	13.08
12/02/2020 22:54:43	120220	12022020	225442	236.92	12.208657	-57.098467	236.94	0.190	0.200	1.160	236.93	-1.20	1.60	 	 	 	 	 	 	 	 	 	 	 	 	 	 	 	 	 	 	1581548082	6.85	12.69
12/02/2020 22:54:44	120220	12022020	225443	236.97	12.208642	-57.098495	236.99	0.360	0.110	1.180	236.97	-1.40	1.60	 	 	 	 	 	 	 	 	 	 	 	 	 	 	 	 	 	 	1581548083	6.82	12.63
12/02/2020 22:54:45	120220	12022020	225444	236.89	12.208625	-57.098525	236.88	0.490	-0.540	1.240	236.85	-2.20	1.70	 	 	 	 	 	 	 	 	 	 	 	 	 	 	 	 	 	 	1581548084	7.27	13.46
12/02/2020 22:54:46	120220	12022020	225445	236.69	12.208607	-57.098557	236.68	0.480	-1.550	1.360	236.65	-3.20	1.80	 	 	 	 	 	 	 	 	 	 	 	 	 	 	 	 	 	 	1581548085	7.86	14.56
12/02/2020 22:54:47	120220	12022020	225446	236.58	12.208588	-57.098590	236.60	0.220	-2.200	1.390	236.57	-3.60	1.80	 	 	 	 	 	 	 	 	 	 	 	 	 	 	 	 	 	 	1581548086	7.95	14.72
12/02/2020 22:54:48	120220	12022020	225447	236.59	12.208573	-57.098622	236.63	-0.190	-2.000	1.160	236.61	-3.20	1.50	 	 	 	 	 	 	 	 	 	 	 	 	 	 	 	 	 	 	1581548087	7.50	13.89
12/02/2020 22:54:49	120220	12022020	225448	236.73	12.208557	-57.098652	236.77	-0.560	-1.040	0.750	236.77	-2.20	1.10	 	 	 	 	 	 	 	 	 	 	 	 	 	 	 	 	 	 	1581548088	7.02	13.00
12/02/2020 22:54:50	120220	12022020	225449	236.97	12.208540	-57.098678	237.00	-0.740	0.150	0.410	237.02	-1.00	0.80	 	 	 	 	 	 	 	 	 	 	 	 	 	 	 	 	 	 	1581548089	6.91	12.80
12/02/2020 22:54:51	120220	12022020	225450	237.22	12.208522	-57.098708	237.26	-0.710	1.000	0.350	237.27	-0.30	0.80	 	 	 	 	 	 	 	 	 	 	 	 	 	 	 	 	 	 	1581548090	7.25	13.43
12/02/2020 22:54:52	120220	12022020	225451	237.43	12.208503	-57.098738	237.46	-0.540	1.350	0.610	237.47	-0.00	1.10	 	 	 	 	 	 	 	 	 	 	 	 	 	 	 	 	 	 	1581548091	7.64	14.15
12/02/2020 22:54:53	120220	12022020	225452	237.55	12.208487	-57.098770	237.56	-0.340	1.400	1.060	237.56	-0.00	1.60	 	 	 	 	 	 	 	 	 	 	 	 	 	 	 	 	 	 	1581548092	7.64	14.15
12/02/2020 22:54:54	120220	12022020	225453	237.54	12.208470	-57.098800	237.54	-0.090	1.280	1.500	237.52	-0.20	2.00	 	 	 	 	 	 	 	 	 	 	 	 	 	 	 	 	 	 	1581548093	7.30	13.52
12/02/2020 22:54:55	120220	12022020	225454	237.40	12.208455	-57.098830	237.38	0.300	0.800	1.680	237.35	-0.80	2.10	 	 	 	 	 	 	 	 	 	 	 	 	 	 	 	 	 	 	1581548094	7.15	13.24
12/02/2020 22:54:56	120220	12022020	225455	237.12	12.208438	-57.098860	237.10	0.770	-0.150	1.590	237.06	-1.80	1.90	 	 	 	 	 	 	 	 	 	 	 	 	 	 	 	 	 	 	1581548095	7.30	13.52
12/02/2020 22:54:57	120220	12022020	225456	236.83	12.208420	-57.098890	236.82	1.060	-1.250	1.360	236.77	-2.90	1.70	 	 	 	 	 	 	 	 	 	 	 	 	 	 	 	 	 	 	1581548096	7.43	13.76
12/02/2020 22:54:58	120220	12022020	225457	236.59	12.208402	-57.098920	236.60	1.010	-2.050	1.110	236.55	-3.50	1.50	 	 	 	 	 	 	 	 	 	 	 	 	 	 	 	 	 	 	1581548097	7.30	13.52
12/02/2020 22:54:59	120220	12022020	225458	236.48	12.208385	-57.098948	236.50	0.680	-2.290	0.860	236.48	-3.70	1.20	 	 	 	 	 	 	 	 	 	 	 	 	 	 	 	 	 	 	1581548098	7.09	13.13
12/02/2020 22:55:00	120220	12022020	225459	236.52	12.208368	-57.098977	236.56	0.180	-2.030	0.640	236.54	-3.30	1.00	 	 	 	 	 	 	 	 	 	 	 	 	 	 	 	 	 	 	1581548099	6.99	12.95
12/02/2020 22:55:01	120220	12022020	225500	236.63	12.208352	-57.099007	236.65	-0.380	-1.460	0.540	236.65	-2.70	1.00	 	 	 	 	 	 	 	 	 	 	 	 	 	 	 	 	 	 	1581548100	7.18	13.30
12/02/2020 22:55:02	120220	12022020	225501	236.72	12.208333	-57.099037	236.76	-0.880	-0.720	0.700	236.74	-1.90	1.20	1015.20	28.60	28.80	21.70	21.90	-2.0	66.0	66.0	388.0	26.0	188.00	5.30	62.00	9.00	17	11420.0	27.4	27.4	1581548101	7.47	13.83
12/02/2020 22:55:03	120220	12022020	225502	236.76	12.208318	-57.099068	236.78	-1.160	0.150	1.100	236.75	-1.00	1.60	 	 	 	 	 	 	 	 	 	 	 	 	 	 	 	 	 	 	1581548102	7.61	14.09
12/02/2020 22:55:04	120220	12022020	225503	236.69	12.208303	-57.099102	236.71	-1.110	1.060	1.480	236.67	-0.10	1.90	 	 	 	 	 	 	 	 	 	 	 	 	 	 	 	 	 	 	1581548103	7.62	14.11
12/02/2020 22:55:05	120220	12022020	225504	236.68	12.208288	-57.099133	236.71	-0.710	1.870	1.530	236.71	0.60	1.90	 	 	 	 	 	 	 	 	 	 	 	 	 	 	 	 	 	 	1581548104	7.39	13.69
12/02/2020 22:55:06	120220	12022020	225505	236.84	12.208270	-57.099162	236.94	-0.090	2.230	1.070	236.90	0.80	1.30	 	 	 	 	 	 	 	 	 	 	 	 	 	 	 	 	 	 	1581548105	7.15	13.24
12/02/2020 22:55:07	120220	12022020	225506	237.14	12.208248	-57.099188	237.16	0.530	1.650	0.570	237.16	-0.00	0.90	 	 	 	 	 	 	 	 	 	 	 	 	 	 	 	 	 	 	1581548106	7.39	13.69
12/02/2020 22:55:08	120220	12022020	225507	237.15	12.208228	-57.099218	237.15	0.950	0.290	0.480	237.15	-1.50	0.90	 	 	 	 	 	 	 	 	 	 	 	 	 	 	 	 	 	 	1581548107	7.78	14.41
12/02/2020 22:55:09	120220	12022020	225508	237.05	12.208210	-57.099250	237.05	1.060	-1.210	0.800	237.03	-2.90	1.30	 	 	 	 	 	 	 	 	 	 	 	 	 	 	 	 	 	 	1581548108	7.72	14.30
12/02/2020 22:55:10	120220	12022020	225509	236.87	12.208195	-57.099282	236.86	0.920	-2.320	1.320	236.82	-3.90	1.80	 	 	 	 	 	 	 	 	 	 	 	 	 	 	 	 	 	 	1581548109	7.43	13.76
12/02/2020 22:55:11	120220	12022020	225510	236.55	12.208182	-57.099313	236.55	0.590	-2.770	1.880	236.47	-4.20	2.40	 	 	 	 	 	 	 	 	 	 	 	 	 	 	 	 	 	 	1581548110	7.23	13.39
12/02/2020 22:55:12	120220	12022020	225511	236.13	12.208168	-57.099343	236.12	0.140	-2.460	2.350	236.04	-3.70	2.80	 	 	 	 	 	 	 	 	 	 	 	 	 	 	 	 	 	 	1581548111	7.07	13.09
12/02/2020 22:55:13	120220	12022020	225512	235.83	12.208153	-57.099373	235.88	-0.320	-1.400	2.530	235.83	-2.50	2.90	 	 	 	 	 	 	 	 	 	 	 	 	 	 	 	 	 	 	1581548112	6.86	12.70
12/02/2020 22:55:14	120220	12022020	225513	236.00	12.208137	-57.099400	236.09	-0.730	-0.010	2.160	236.09	-1.10	2.40	 	 	 	 	 	 	 	 	 	 	 	 	 	 	 	 	 	 	1581548113	6.70	12.41
12/02/2020 22:55:15	120220	12022020	225514	236.55	12.208118	-57.099427	236.65	-0.930	0.980	1.460	236.69	-0.30	1.70	 	 	 	 	 	 	 	 	 	 	 	 	 	 	 	 	 	 	1581548114	7.06	13.08
12/02/2020 22:55:16	120220	12022020	225515	237.21	12.208097	-57.099457	237.28	-0.790	1.190	0.760	237.34	-0.30	1.00	 	 	 	 	 	 	 	 	 	 	 	 	 	 	 	 	 	 	1581548115	7.75	14.35
12/02/2020 22:55:17	120220	12022020	225516	237.80	12.208077	-57.099488	237.83	-0.350	0.860	0.350	237.89	-0.70	0.70	 	 	 	 	 	 	 	 	 	 	 	 	 	 	 	 	 	 	1581548116	8.10	15.00
12/02/2020 22:55:18	120220	12022020	225517	238.18	12.208057	-57.099520	238.19	0.160	0.460	0.260	238.22	-1.00	0.70	 	 	 	 	 	 	 	 	 	 	 	 	 	 	 	 	 	 	1581548117	7.90	14.63
12/02/2020 22:55:19	120220	12022020	225518	238.18	12.208040	-57.099552	238.13	0.470	0.190	0.540	238.12	-1.30	1.10	 	 	 	 	 	 	 	 	 	 	 	 	 	 	 	 	 	 	1581548118	7.44	13.78
12/02/2020 22:55:20	120220	12022020	225519	237.77	12.208025	-57.099582	237.70	0.490	-0.010	1.100	237.66	-1.50	1.70	 	 	 	 	 	 	 	 	 	 	 	 	 	 	 	 	 	 	1581548119	7.19	13.32
12/02/2020 22:55:21	120220	12022020	225520	237.21	12.208012	-57.099612	237.17	0.340	-0.140	1.690	237.12	-1.50	2.20	 	 	 	 	 	 	 	 	 	 	 	 	 	 	 	 	 	 	1581548120	7.08	13.11
12/02/2020 22:55:22	120220	12022020	225521	236.86	12.208000	-57.099642	236.85	0.230	-0.140	1.880	236.83	-1.50	2.20	 	 	 	 	 	 	 	 	 	 	 	 	 	 	 	 	 	 	1581548121	6.86	12.70
12/02/2020 22:55:23	120220	12022020	225522	236.88	12.207985	-57.099670	236.91	0.300	-0.170	1.400	236.93	-1.60	1.60	 	 	 	 	 	 	 	 	 	 	 	 	 	 	 	 	 	 	1581548122	6.71	12.43
12/02/2020 22:55:24	120220	12022020	225523	237.22	12.207965	-57.099697	237.26	0.450	-0.500	0.460	237.31	-2.00	0.60	 	 	 	 	 	 	 	 	 	 	 	 	 	 	 	 	 	 	1581548123	6.95	12.87
12/02/2020 22:55:25	120220	12022020	225524	237.64	12.207945	-57.099723	237.64	0.440	-1.090	-0.370	237.70	-2.60	-0.10	 	 	 	 	 	 	 	 	 	 	 	 	 	 	 	 	 	 	1581548124	7.35	13.61
12/02/2020 22:55:26	120220	12022020	225525	237.82	12.207925	-57.099753	237.79	0.230	-1.570	-0.610	237.82	-3.00	-0.20	 	 	 	 	 	 	 	 	 	 	 	 	 	 	 	 	 	 	1581548125	7.44	13.78
12/02/2020 22:55:27	120220	12022020	225526	237.71	12.207908	-57.099783	237.64	-0.060	-1.700	-0.270	237.66	-3.10	0.30	 	 	 	 	 	 	 	 	 	 	 	 	 	 	 	 	 	 	1581548126	7.41	13.72
12/02/2020 22:55:28	120220	12022020	225527	237.44	12.207893	-57.099815	237.38	-0.330	-1.370	0.390	237.39	-2.60	1.00	 	 	 	 	 	 	 	 	 	 	 	 	 	 	 	 	 	 	1581548127	7.40	13.70
12/02/2020 22:55:29	120220	12022020	225528	237.32	12.207880	-57.099847	237.31	-0.560	-0.540	1.030	237.33	-1.70	1.50	 	 	 	 	 	 	 	 	 	 	 	 	 	 	 	 	 	 	1581548128	7.24	13.41
12/02/2020 22:55:30	120220	12022020	225529	237.44	12.207867	-57.099877	237.51	-0.700	0.510	1.410	237.49	-0.70	1.80	 	 	 	 	 	 	 	 	 	 	 	 	 	 	 	 	 	 	1581548129	7.03	13.02
12/02/2020 22:55:31	120220	12022020	225530	237.78	12.207852	-57.099907	237.78	-0.650	1.190	1.500	237.82	-0.20	1.90	 	 	 	 	 	 	 	 	 	 	 	 	 	 	 	 	 	 	1581548130	7.08	13.11
12/02/2020 22:55:32	120220	12022020	225531	237.83	12.207835	-57.099938	237.81	-0.370	1.180	1.530	237.80	-0.30	1.90	 	 	 	 	 	 	 	 	 	 	 	 	 	 	 	 	 	 	1581548131	7.53	13.95
12/02/2020 22:55:33	120220	12022020	225532	237.51	12.207817	-57.099970	237.46	0.040	0.720	1.590	237.42	-0.80	2.00	 	 	 	 	 	 	 	 	 	 	 	 	 	 	 	 	 	 	1581548132	7.85	14.54
12/02/2020 22:55:34	120220	12022020	225533	236.97	12.207798	-57.100002	236.91	0.400	0.230	1.680	236.86	-1.20	2.10	 	 	 	 	 	 	 	 	 	 	 	 	 	 	 	 	 	 	1581548133	7.70	14.26
12/02/2020 22:55:35	120220	12022020	225534	236.51	12.207782	-57.100032	236.49	0.550	0.000	1.600	236.46	-1.40	1.90	 	 	 	 	 	 	 	 	 	 	 	 	 	 	 	 	 	 	1581548134	7.20	13.33
12/02/2020 22:55:36	120220	12022020	225535	236.45	12.207767	-57.100058	236.47	0.480	-0.090	1.200	236.49	-1.50	1.50	 	 	 	 	 	 	 	 	 	 	 	 	 	 	 	 	 	 	1581548135	6.71	12.43
12/02/2020 22:55:37	120220	12022020	225536	236.72	12.207750	-57.100085	236.75	0.340	-0.450	0.620	236.79	-2.00	0.90	 	 	 	 	 	 	 	 	 	 	 	 	 	 	 	 	 	 	1581548136	6.70	12.41
12/02/2020 22:55:38	120220	12022020	225537	237.03	12.207732	-57.100115	237.04	0.290	-1.150	0.220	237.07	-2.70	0.60	 	 	 	 	 	 	 	 	 	 	 	 	 	 	 	 	 	 	1581548137	7.19	13.32
12/02/2020 22:55:39	120220	12022020	225538	237.17	12.207715	-57.100145	237.15	0.290	-1.750	0.200	237.19	-3.20	0.60	 	 	 	 	 	 	 	 	 	 	 	 	 	 	 	 	 	 	1581548138	7.50	13.89
12/02/2020 22:55:40	120220	12022020	225539	237.23	12.207698	-57.100175	237.23	0.210	-1.720	0.410	237.24	-3.00	0.90	 	 	 	 	 	 	 	 	 	 	 	 	 	 	 	 	 	 	1581548139	7.28	13.48
12/02/2020 22:55:41	120220	12022020	225540	237.30	12.207683	-57.100203	237.30	0.010	-1.020	0.610	237.32	-2.20	1.10	 	 	 	 	 	 	 	 	 	 	 	 	 	 	 	 	 	 	1581548140	6.82	12.63
12/02/2020 22:55:42	120220	12022020	225541	237.38	12.207668	-57.100232	237.39	-0.200	-0.200	0.770	237.39	-1.50	1.20	 	 	 	 	 	 	 	 	 	 	 	 	 	 	 	 	 	 	1581548141	6.77	12.54
12/02/2020 22:55:43	120220	12022020	225542	237.39	12.207650	-57.100262	237.36	-0.310	0.180	1.000	237.37	-1.20	1.50	 	 	 	 	 	 	 	 	 	 	 	 	 	 	 	 	 	 	1581548142	7.30	13.52
12/02/2020 22:55:44	120220	12022020	225543	237.21	12.207633	-57.100293	237.19	-0.330	0.240	1.400	237.16	-1.10	1.90	 	 	 	 	 	 	 	 	 	 	 	 	 	 	 	 	 	 	1581548143	7.81	14.46
12/02/2020 22:55:45	120220	12022020	225544	236.96	12.207617	-57.100327	236.95	-0.390	0.360	1.760	236.92	-1.00	2.20	 	 	 	 	 	 	 	 	 	 	 	 	 	 	 	 	 	 	1581548144	7.78	14.41
12/02/2020 22:55:46	120220	12022020	225545	236.79	12.207602	-57.100358	236.80	-0.470	0.630	1.870	236.77	-0.70	2.30	 	 	 	 	 	 	 	 	 	 	 	 	 	 	 	 	 	 	1581548145	7.40	13.70
12/02/2020 22:55:47	120220	12022020	225546	236.66	12.207587	-57.100388	236.65	-0.390	0.780	1.800	236.63	-0.60	2.20	 	 	 	 	 	 	 	 	 	 	 	 	 	 	 	 	 	 	1581548146	7.13	13.20
12/02/2020 22:55:48	120220	12022020	225547	236.50	12.207570	-57.100418	236.49	-0.060	0.490	1.550	236.49	-1.00	1.90	 	 	 	 	 	 	 	 	 	 	 	 	 	 	 	 	 	 	1581548147	7.26	13.45
12/02/2020 22:55:49	120220	12022020	225548	236.48	12.207552	-57.100448	236.49	0.350	-0.160	1.050	236.50	-1.70	1.30	 	 	 	 	 	 	 	 	 	 	 	 	 	 	 	 	 	 	1581548148	7.50	13.89
12/02/2020 22:55:50	120220	12022020	225549	236.68	12.207532	-57.100477	236.70	0.560	-0.800	0.390	236.75	-2.30	0.70	 	 	 	 	 	 	 	 	 	 	 	 	 	 	 	 	 	 	1581548149	7.47	13.83
12/02/2020 22:55:51	120220	12022020	225550	237.08	12.207513	-57.100505	237.10	0.510	-1.090	-0.160	237.17	-2.50	0.20	 	 	 	 	 	 	 	 	 	 	 	 	 	 	 	 	 	 	1581548150	7.14	13.22
12/02/2020 22:55:52	120220	12022020	225551	237.50	12.207495	-57.100532	237.52	0.300	-1.010	-0.410	237.56	-2.40	0.00	 	 	 	 	 	 	 	 	 	 	 	 	 	 	 	 	 	 	1581548151	6.80	12.59
12/02/2020 22:55:53	120220	12022020	225552	237.65	12.207478	-57.100558	237.62	0.130	-0.880	-0.140	237.63	-2.30	0.40	 	 	 	 	 	 	 	 	 	 	 	 	 	 	 	 	 	 	1581548152	6.85	12.69
12/02/2020 22:55:54	120220	12022020	225553	237.42	12.207463	-57.100588	237.36	0.050	-0.830	0.550	237.33	-2.20	1.20	 	 	 	 	 	 	 	 	 	 	 	 	 	 	 	 	 	 	1581548153	7.23	13.39
12/02/2020 22:55:55	120220	12022020	225554	236.88	12.207448	-57.100622	236.81	0.010	-0.680	1.530	236.75	-2.00	2.20	 	 	 	 	 	 	 	 	 	 	 	 	 	 	 	 	 	 	1581548154	7.51	13.91
12/02/2020 22:55:56	120220	12022020	225555	236.41	12.207437	-57.100655	236.29	-0.070	-0.210	2.450	236.33	-1.50	3.00	 	 	 	 	 	 	 	 	 	 	 	 	 	 	 	 	 	 	1581548155	7.48	13.85
12/02/2020 22:55:57	120220	12022020	225556	236.13	12.207425	-57.100687	236.13	-0.200	0.360	2.850	236.12	-0.90	3.20	 	 	 	 	 	 	 	 	 	 	 	 	 	 	 	 	 	 	1581548156	7.28	13.48
12/02/2020 22:55:58	120220	12022020	225557	236.24	12.207410	-57.100718	236.27	-0.300	0.630	2.590	236.24	-0.80	2.80	 	 	 	 	 	 	 	 	 	 	 	 	 	 	 	 	 	 	1581548157	7.29	13.50
12/02/2020 22:55:59	120220	12022020	225558	236.59	12.207392	-57.100748	236.65	-0.290	0.490	1.740	236.67	-1.00	1.90	 	 	 	 	 	 	 	 	 	 	 	 	 	 	 	 	 	 	1581548158	7.46	13.82
12/02/2020 22:56:00	120220	12022020	225559	237.04	12.207370	-57.100777	237.08	-0.180	0.120	0.610	237.13	-1.40	0.80	 	 	 	 	 	 	 	 	 	 	 	 	 	 	 	 	 	 	1581548159	7.56	14.00
12/02/2020 22:56:01	120220	12022020	225600	237.36	12.207347	-57.100803	237.34	-0.010	-0.350	-0.270	237.39	-1.90	0.00	 	 	 	 	 	 	 	 	 	 	 	 	 	 	 	 	 	 	1581548160	7.57	14.02
12/02/2020 22:56:02	120220	12022020	225601	237.42	12.207327	-57.100832	237.35	0.120	-0.790	-0.580	237.40	-2.30	-0.10	1015.30	28.00	29.40	21.30	21.80	-2.0	67.0	64.0	389.0	26.0	188.00	4.50	61.00	8.20	17	12085.0	27.3	27.3	1581548161	7.47	13.83
12/02/2020 22:56:03	120220	12022020	225602	237.27	12.207307	-57.100860	237.19	0.150	-1.030	-0.320	237.21	-2.40	0.20	 	 	 	 	 	 	 	 	 	 	 	 	 	 	 	 	 	 	1581548162	7.32	13.56
12/02/2020 22:56:04	120220	12022020	225603	236.92	12.207292	-57.100890	236.84	0.080	-1.010	0.420	236.83	-2.40	1.00	 	 	 	 	 	 	 	 	 	 	 	 	 	 	 	 	 	 	1581548163	7.26	13.45
12/02/2020 22:56:05	120220	12022020	225604	236.43	12.207278	-57.100922	236.36	-0.060	-0.760	1.370	236.32	-2.10	2.00	 	 	 	 	 	 	 	 	 	 	 	 	 	 	 	 	 	 	1581548164	7.33	13.58
12/02/2020 22:56:06	120220	12022020	225605	235.98	12.207267	-57.100955	235.94	-0.180	-0.290	2.080	235.92	-1.50	2.60	 	 	 	 	 	 	 	 	 	 	 	 	 	 	 	 	 	 	1581548165	7.31	13.54
12/02/2020 22:56:07	120220	12022020	225606	235.75	12.207255	-57.100987	235.74	-0.160	0.300	2.400	235.74	-1.00	2.80	 	 	 	 	 	 	 	 	 	 	 	 	 	 	 	 	 	 	1581548166	7.15	13.24
12/02/2020 22:56:08	120220	12022020	225607	235.75	12.207242	-57.101017	235.75	0.030	0.710	2.370	235.77	-0.60	2.70	 	 	 	 	 	 	 	 	 	 	 	 	 	 	 	 	 	 	1581548167	7.06	13.08
12/02/2020 22:56:09	120220	12022020	225608	235.94	12.207225	-57.101047	235.97	0.240	0.750	1.980	236.00	-0.70	2.30	 	 	 	 	 	 	 	 	 	 	 	 	 	 	 	 	 	 	1581548168	7.14	13.22
12/02/2020 22:56:10	120220	12022020	225609	236.26	12.207205	-57.101075	236.29	0.350	0.310	1.360	236.33	-1.20	1.60	 	 	 	 	 	 	 	 	 	 	 	 	 	 	 	 	 	 	1581548169	7.41	13.72
12/02/2020 22:56:11	120220	12022020	225610	236.56	12.207183	-57.101103	236.59	0.260	-0.350	0.800	236.61	-1.90	1.10	 	 	 	 	 	 	 	 	 	 	 	 	 	 	 	 	 	 	1581548170	7.59	14.06
12/02/2020 22:56:12	120220	12022020	225611	236.83	12.207163	-57.101132	236.85	0.030	-0.910	0.340	236.87	-2.40	0.70	 	 	 	 	 	 	 	 	 	 	 	 	 	 	 	 	 	 	1581548171	7.46	13.82
12/02/2020 22:56:13	120220	12022020	225612	236.98	12.207143	-57.101160	236.98	-0.170	-1.350	0.090	236.97	-2.80	0.50	 	 	 	 	 	 	 	 	 	 	 	 	 	 	 	 	 	 	1581548172	7.32	13.56
12/02/2020 22:56:14	120220	12022020	225613	236.80	12.207125	-57.101188	236.75	-0.180	-1.690	0.320	236.71	-3.10	0.90	 	 	 	 	 	 	 	 	 	 	 	 	 	 	 	 	 	 	1581548173	7.44	13.78
12/02/2020 22:56:15	120220	12022020	225614	236.26	12.207108	-57.101220	236.21	-0.100	-1.680	1.040	236.13	-3.00	1.70	 	 	 	 	 	 	 	 	 	 	 	 	 	 	 	 	 	 	1581548174	7.58	14.04
12/02/2020 22:56:16	120220	12022020	225615	235.64	12.207093	-57.101253	235.61	-0.140	-1.040	1.960	235.53	-2.20	2.60	 	 	 	 	 	 	 	 	 	 	 	 	 	 	 	 	 	 	1581548175	7.44	13.78
12/02/2020 22:56:17	120220	12022020	225616	235.23	12.207082	-57.101285	235.25	-0.350	0.170	2.680	235.19	-0.90	3.20	 	 	 	 	 	 	 	 	 	 	 	 	 	 	 	 	 	 	1581548176	7.15	13.24
12/02/2020 22:56:18	120220	12022020	225617	235.19	12.207070	-57.101315	235.26	-0.580	1.370	2.840	235.23	0.20	3.20	 	 	 	 	 	 	 	 	 	 	 	 	 	 	 	 	 	 	1581548177	6.85	12.69
12/02/2020 22:56:19	120220	12022020	225618	235.45	12.207055	-57.101343	235.52	-0.580	1.820	2.320	235.52	0.40	2.50	 	 	 	 	 	 	 	 	 	 	 	 	 	 	 	 	 	 	1581548178	7.03	13.02
12/02/2020 22:56:20	120220	12022020	225619	235.79	12.207033	-57.101373	235.85	-0.260	1.280	1.410	235.86	-0.30	1.60	 	 	 	 	 	 	 	 	 	 	 	 	 	 	 	 	 	 	1581548179	7.66	14.19
12/02/2020 22:56:21	120220	12022020	225620	236.15	12.207010	-57.101403	236.21	0.220	0.210	0.440	236.23	-1.40	0.70	 	 	 	 	 	 	 	 	 	 	 	 	 	 	 	 	 	 	1581548180	8.00	14.82
12/02/2020 22:56:22	120220	12022020	225621	236.55	12.206988	-57.101432	236.58	0.600	-0.770	-0.260	236.63	-2.30	0.10	 	 	 	 	 	 	 	 	 	 	 	 	 	 	 	 	 	 	1581548181	7.75	14.35
12/02/2020 22:56:23	120220	12022020	225622	236.91	12.206968	-57.101458	236.90	0.700	-1.250	-0.470	236.96	-2.70	-0.00	 	 	 	 	 	 	 	 	 	 	 	 	 	 	 	 	 	 	1581548182	7.15	13.24
12/02/2020 22:56:24	120220	12022020	225623	237.07	12.206953	-57.101487	237.04	0.590	-1.290	-0.160	237.06	-2.70	0.40	 	 	 	 	 	 	 	 	 	 	 	 	 	 	 	 	 	 	1581548183	6.71	12.43
12/02/2020 22:56:25	120220	12022020	225624	236.92	12.206938	-57.101515	236.88	0.380	-1.170	0.470	236.85	-2.50	1.10	 	 	 	 	 	 	 	 	 	 	 	 	 	 	 	 	 	 	1581548184	6.77	12.54
12/02/2020 22:56:26	120220	12022020	225625	236.51	12.206923	-57.101545	236.48	0.090	-1.040	1.210	236.41	-2.40	1.80	 	 	 	 	 	 	 	 	 	 	 	 	 	 	 	 	 	 	1581548185	7.11	13.17
12/02/2020 22:56:27	120220	12022020	225626	236.01	12.206910	-57.101577	236.00	-0.210	-0.780	1.890	235.92	-2.10	2.40	 	 	 	 	 	 	 	 	 	 	 	 	 	 	 	 	 	 	1581548186	7.36	13.63
12/02/2020 22:56:28	120220	12022020	225627	235.65	12.206895	-57.101608	235.64	-0.450	-0.390	2.400	235.60	-1.70	2.90	 	 	 	 	 	 	 	 	 	 	 	 	 	 	 	 	 	 	1581548187	7.45	13.80
12/02/2020 22:56:29	120220	12022020	225628	235.54	12.206880	-57.101640	235.56	-0.590	0.010	2.570	235.55	-1.30	2.90	 	 	 	 	 	 	 	 	 	 	 	 	 	 	 	 	 	 	1581548188	7.48	13.85
12/02/2020 22:56:30	120220	12022020	225629	235.68	12.206865	-57.101672	235.73	-0.580	0.330	2.260	235.74	-1.00	2.50	 	 	 	 	 	 	 	 	 	 	 	 	 	 	 	 	 	 	1581548189	7.45	13.80
12/02/2020 22:56:31	120220	12022020	225630	236.01	12.206845	-57.101700	236.07	-0.450	0.520	1.530	236.09	-0.90	1.70	 	 	 	 	 	 	 	 	 	 	 	 	 	 	 	 	 	 	1581548190	7.37	13.65
12/02/2020 22:56:32	120220	12022020	225631	236.39	12.206823	-57.101728	236.42	-0.260	0.460	0.720	236.45	-1.00	1.00	 	 	 	 	 	 	 	 	 	 	 	 	 	 	 	 	 	 	1581548191	7.38	13.67
12/02/2020 22:56:33	120220	12022020	225632	236.61	12.206803	-57.101757	236.60	-0.060	0.130	0.170	236.63	-1.40	0.50	 	 	 	 	 	 	 	 	 	 	 	 	 	 	 	 	 	 	1581548192	7.50	13.89
12/02/2020 22:56:34	120220	12022020	225633	236.64	12.206785	-57.101787	236.59	0.120	-0.230	0.040	236.64	-1.70	0.50	 	 	 	 	 	 	 	 	 	 	 	 	 	 	 	 	 	 	1581548193	7.44	13.78
12/02/2020 22:56:35	120220	12022020	225634	236.58	12.206768	-57.101815	236.54	0.270	-0.240	0.210	236.56	-1.60	0.70	 	 	 	 	 	 	 	 	 	 	 	 	 	 	 	 	 	 	1581548194	7.07	13.09
12/02/2020 22:56:36	120220	12022020	225635	236.53	12.206753	-57.101843	236.51	0.340	-0.050	0.520	236.53	-1.40	1.00	 	 	 	 	 	 	 	 	 	 	 	 	 	 	 	 	 	 	1581548195	6.72	12.45
12/02/2020 22:56:37	120220	12022020	225636	236.56	12.206738	-57.101872	236.55	0.330	-0.090	0.810	236.58	-1.60	1.30	 	 	 	 	 	 	 	 	 	 	 	 	 	 	 	 	 	 	1581548196	6.86	12.70
12/02/2020 22:56:38	120220	12022020	225637	236.66	12.206723	-57.101902	236.64	0.300	-0.520	1.020	236.67	-2.00	1.50	 	 	 	 	 	 	 	 	 	 	 	 	 	 	 	 	 	 	1581548197	7.25	13.43
12/02/2020 22:56:39	120220	12022020	225638	236.67	12.206705	-57.101933	236.64	0.310	-1.060	1.220	236.65	-2.50	1.70	 	 	 	 	 	 	 	 	 	 	 	 	 	 	 	 	 	 	1581548198	7.53	13.95
12/02/2020 22:56:40	120220	12022020	225639	236.43	12.206688	-57.101963	236.37	0.290	-1.290	1.510	236.34	-2.70	2.00	 	 	 	 	 	 	 	 	 	 	 	 	 	 	 	 	 	 	1581548199	7.48	13.85
12/02/2020 22:56:41	120220	12022020	225640	235.99	12.206672	-57.101993	235.94	0.120	-1.050	1.750	235.91	-2.30	2.20	 	 	 	 	 	 	 	 	 	 	 	 	 	 	 	 	 	 	1581548200	7.20	13.33
12/02/2020 22:56:42	120220	12022020	225641	235.58	12.206655	-57.102022	235.54	-0.160	-0.580	1.870	235.50	-1.90	2.30	 	 	 	 	 	 	 	 	 	 	 	 	 	 	 	 	 	 	1581548201	7.08	13.11
12/02/2020 22:56:43	120220	12022020	225642	235.24	12.206640	-57.102053	235.21	-0.400	-0.170	1.930	235.19	-1.50	2.30	 	 	 	 	 	 	 	 	 	 	 	 	 	 	 	 	 	 	1581548202	7.28	13.48
12/02/2020 22:56:44	120220	12022020	225643	235.07	12.206623	-57.102083	235.07	-0.530	0.180	1.860	235.07	-1.10	2.20	 	 	 	 	 	 	 	 	 	 	 	 	 	 	 	 	 	 	1581548203	7.46	13.82
12/02/2020 22:56:45	120220	12022020	225644	235.22	12.206608	-57.102115	235.27	-0.540	0.590	1.520	235.30	-0.70	1.80	 	 	 	 	 	 	 	 	 	 	 	 	 	 	 	 	 	 	1581548204	7.28	13.48
12/02/2020 22:56:46	120220	12022020	225645	235.71	12.206590	-57.102143	235.76	-0.410	0.780	0.870	235.71	-0.60	1.10	 	 	 	 	 	 	 	 	 	 	 	 	 	 	 	 	 	 	1581548205	7.14	13.22
12/02/2020 22:56:47	120220	12022020	225646	236.33	12.206570	-57.102172	236.38	-0.110	0.480	0.100	236.47	-1.00	0.40	 	 	 	 	 	 	 	 	 	 	 	 	 	 	 	 	 	 	1581548206	7.38	13.67
12/02/2020 22:56:48	120220	12022020	225647	236.93	12.206548	-57.102200	236.94	0.220	-0.110	-0.420	236.93	-1.60	-0.10	 	 	 	 	 	 	 	 	 	 	 	 	 	 	 	 	 	 	1581548207	7.60	14.08
12/02/2020 22:56:49	120220	12022020	225648	237.24	12.206528	-57.102228	237.20	0.410	-0.600	-0.380	237.25	-2.10	0.10	 	 	 	 	 	 	 	 	 	 	 	 	 	 	 	 	 	 	1581548208	7.43	13.76
12/02/2020 22:56:50	120220	12022020	225649	237.10	12.206512	-57.102258	237.01	0.350	-0.780	0.270	237.02	-2.20	0.90	 	 	 	 	 	 	 	 	 	 	 	 	 	 	 	 	 	 	1581548209	7.11	13.17
12/02/2020 22:56:51	120220	12022020	225650	236.56	12.206498	-57.102288	236.47	0.180	-0.710	1.300	236.44	-2.00	1.90	 	 	 	 	 	 	 	 	 	 	 	 	 	 	 	 	 	 	1581548210	6.99	12.95
12/02/2020 22:56:52	120220	12022020	225651	235.95	12.206487	-57.102318	235.88	0.100	-0.510	2.180	235.83	-1.90	2.70	 	 	 	 	 	 	 	 	 	 	 	 	 	 	 	 	 	 	1581548211	6.99	12.95
12/02/2020 22:56:53	120220	12022020	225652	235.44	12.206472	-57.102348	235.38	0.140	-0.400	2.580	235.36	-1.80	3.00	 	 	 	 	 	 	 	 	 	 	 	 	 	 	 	 	 	 	1581548212	7.12	13.19
12/02/2020 22:56:54	120220	12022020	225653	235.16	12.206455	-57.102378	235.13	0.190	-0.500	2.430	235.14	-1.90	2.70	 	 	 	 	 	 	 	 	 	 	 	 	 	 	 	 	 	 	1581548213	7.34	13.59
12/02/2020 22:56:55	120220	12022020	225654	235.16	12.206435	-57.102408	235.17	0.080	-0.700	1.910	235.21	-2.10	2.20	 	 	 	 	 	 	 	 	 	 	 	 	 	 	 	 	 	 	1581548214	7.56	14.00
12/02/2020 22:56:56	120220	12022020	225655	235.52	12.206417	-57.102438	235.54	-0.170	-0.810	1.260	235.62	-2.20	1.50	 	 	 	 	 	 	 	 	 	 	 	 	 	 	 	 	 	 	1581548215	7.55	13.98
12/02/2020 22:56:57	120220	12022020	225656	235.97	12.206398	-57.102468	235.99	-0.390	-0.770	0.740	236.05	-2.10	1.00	 	 	 	 	 	 	 	 	 	 	 	 	 	 	 	 	 	 	1581548216	7.53	13.95
12/02/2020 22:56:58	120220	12022020	225657	236.31	12.206378	-57.102498	236.31	-0.470	-0.450	0.380	236.36	-1.70	0.70	 	 	 	 	 	 	 	 	 	 	 	 	 	 	 	 	 	 	1581548217	7.47	13.83
12/02/2020 22:56:59	120220	12022020	225658	236.53	12.206360	-57.102527	236.52	-0.450	0.190	0.180	236.56	-1.00	0.60	 	 	 	 	 	 	 	 	 	 	 	 	 	 	 	 	 	 	1581548218	7.14	13.22
12/02/2020 22:57:00	120220	12022020	225659	236.59	12.206343	-57.102555	236.54	-0.390	0.850	0.170	236.57	-0.40	0.60	 	 	 	 	 	 	 	 	 	 	 	 	 	 	 	 	 	 	1581548219	6.94	12.85
12/02/2020 22:57:01	120220	12022020	225700	236.40	12.206327	-57.102583	236.33	-0.230	1.140	0.470	236.34	-0.30	1.00	 	 	 	 	 	 	 	 	 	 	 	 	 	 	 	 	 	 	1581548220	7.04	13.04
12/02/2020 22:57:02	120220	12022020	225701	236.10	12.206310	-57.102613	236.04	0.110	0.920	0.900	236.05	-0.60	1.40	1015.30	27.70	28.80	21.20	21.60	-2.0	68.0	64.0	388.0	26.0	198.00	5.80	67.00	9.50	17	12053.0	27.4	27.4	1581548221	7.31	13.54
12/02/2020 22:57:03	120220	12022020	225702	235.94	12.206293	-57.102643	235.92	0.540	0.310	1.080	235.93	-1.30	1.50	 	 	 	 	 	 	 	 	 	 	 	 	 	 	 	 	 	 	1581548222	7.41	13.72
12/02/2020 22:57:04	120220	12022020	225703	235.91	12.206275	-57.102673	235.90	0.870	-0.550	1.080	235.91	-2.10	1.50	 	 	 	 	 	 	 	 	 	 	 	 	 	 	 	 	 	 	1581548223	7.46	13.82
12/02/2020 22:57:05	120220	12022020	225704	235.91	12.206257	-57.102703	235.91	0.910	-1.300	1.050	235.91	-2.80	1.50	 	 	 	 	 	 	 	 	 	 	 	 	 	 	 	 	 	 	1581548224	7.39	13.69
12/02/2020 22:57:06	120220	12022020	225705	235.89	12.206240	-57.102732	235.87	0.620	-1.600	1.120	235.88	-3.00	1.60	 	 	 	 	 	 	 	 	 	 	 	 	 	 	 	 	 	 	1581548225	7.11	13.17
12/02/2020 22:57:07	120220	12022020	225706	235.82	12.206225	-57.102762	235.80	0.120	-1.430	1.310	235.80	-2.70	1.80	 	 	 	 	 	 	 	 	 	 	 	 	 	 	 	 	 	 	1581548226	6.94	12.85
12/02/2020 22:57:08	120220	12022020	225707	235.73	12.206210	-57.102792	235.72	-0.400	-1.040	1.510	235.72	-2.30	1.90	 	 	 	 	 	 	 	 	 	 	 	 	 	 	 	 	 	 	1581548227	7.04	13.04
12/02/2020 22:57:09	120220	12022020	225708	235.73	12.206193	-57.102822	235.72	-0.730	-0.640	1.420	235.74	-2.00	1.70	 	 	 	 	 	 	 	 	 	 	 	 	 	 	 	 	 	 	1581548228	7.27	13.46
12/02/2020 22:57:10	120220	12022020	225709	235.76	12.206175	-57.102852	235.74	-0.750	-0.400	1.090	235.76	-1.70	1.40	 	 	 	 	 	 	 	 	 	 	 	 	 	 	 	 	 	 	1581548229	7.57	14.02
12/02/2020 22:57:11	120220	12022020	225710	235.75	12.206155	-57.102882	235.73	-0.540	-0.210	0.810	235.74	-1.50	1.20	 	 	 	 	 	 	 	 	 	 	 	 	 	 	 	 	 	 	1581548230	7.78	14.41
12/02/2020 22:57:12	120220	12022020	225711	235.70	12.206135	-57.102912	235.67	-0.310	0.090	0.750	235.68	-1.20	1.20	 	 	 	 	 	 	 	 	 	 	 	 	 	 	 	 	 	 	1581548231	7.70	14.26
12/02/2020 22:57:13	120220	12022020	225712	235.60	12.206117	-57.102942	235.57	-0.170	0.510	0.840	235.59	-0.80	1.30	 	 	 	 	 	 	 	 	 	 	 	 	 	 	 	 	 	 	1581548232	7.41	13.72
12/02/2020 22:57:14	120220	12022020	225713	235.55	12.206100	-57.102972	235.53	-0.080	0.870	1.000	235.56	-0.50	1.40	 	 	 	 	 	 	 	 	 	 	 	 	 	 	 	 	 	 	1581548233	7.25	13.43
12/02/2020 22:57:15	120220	12022020	225714	235.68	12.206083	-57.103002	235.68	0.030	1.030	1.070	235.73	-0.40	1.50	 	 	 	 	 	 	 	 	 	 	 	 	 	 	 	 	 	 	1581548234	7.14	13.22
12/02/2020 22:57:16	120220	12022020	225715	235.91	12.206067	-57.103030	235.90	0.230	0.890	1.010	235.94	-0.60	1.40	 	 	 	 	 	 	 	 	 	 	 	 	 	 	 	 	 	 	1581548235	7.06	13.08
12/02/2020 22:57:17	120220	12022020	225716	235.98	12.206050	-57.103058	235.96	0.500	0.320	0.920	235.98	-1.30	1.30	 	 	 	 	 	 	 	 	 	 	 	 	 	 	 	 	 	 	1581548236	7.19	13.32
12/02/2020 22:57:18	120220	12022020	225717	235.89	12.206030	-57.103088	235.87	0.690	-0.620	0.880	235.86	-2.20	1.30	 	 	 	 	 	 	 	 	 	 	 	 	 	 	 	 	 	 	1581548237	7.49	13.87
12/02/2020 22:57:19	120220	12022020	225718	235.73	12.206012	-57.103118	235.71	0.640	-1.450	0.920	235.70	-3.00	1.30	 	 	 	 	 	 	 	 	 	 	 	 	 	 	 	 	 	 	1581548238	7.55	13.98
12/02/2020 22:57:20	120220	12022020	225719	235.60	12.205995	-57.103148	235.59	0.360	-1.720	0.930	235.58	-3.10	1.30	 	 	 	 	 	 	 	 	 	 	 	 	 	 	 	 	 	 	1581548239	7.20	13.33
12/02/2020 22:57:21	120220	12022020	225720	235.55	12.205978	-57.103175	235.54	0.030	-1.490	0.890	235.54	-2.80	1.30	 	 	 	 	 	 	 	 	 	 	 	 	 	 	 	 	 	 	1581548240	6.86	12.70
12/02/2020 22:57:22	120220	12022020	225721	235.50	12.205960	-57.103203	235.48	-0.150	-1.130	0.880	235.48	-2.50	1.30	 	 	 	 	 	 	 	 	 	 	 	 	 	 	 	 	 	 	1581548241	6.96	12.89
12/02/2020 22:57:23	120220	12022020	225722	235.41	12.205943	-57.103233	235.38	-0.170	-0.940	1.060	235.38	-2.30	1.50	 	 	 	 	 	 	 	 	 	 	 	 	 	 	 	 	 	 	1581548242	7.44	13.78
12/02/2020 22:57:24	120220	12022020	225723	235.26	12.205925	-57.103267	235.24	-0.160	-0.760	1.440	235.22	-2.10	1.90	 	 	 	 	 	 	 	 	 	 	 	 	 	 	 	 	 	 	1581548243	7.85	14.54
12/02/2020 22:57:25	120220	12022020	225724	235.08	12.205910	-57.103300	235.07	-0.290	-0.340	1.860	235.05	-1.60	2.30	 	 	 	 	 	 	 	 	 	 	 	 	 	 	 	 	 	 	1581548244	7.86	14.56
12/02/2020 22:57:26	120220	12022020	225725	234.91	12.205895	-57.103332	234.91	-0.490	0.360	2.120	234.88	-0.80	2.50	 	 	 	 	 	 	 	 	 	 	 	 	 	 	 	 	 	 	1581548245	7.63	14.13
12/02/2020 22:57:27	120220	12022020	225726	234.83	12.205878	-57.103363	234.86	-0.610	1.180	2.070	234.85	-0.10	2.40	 	 	 	 	 	 	 	 	 	 	 	 	 	 	 	 	 	 	1581548246	7.29	13.50
12/02/2020 22:57:28	120220	12022020	225727	235.10	12.205860	-57.103392	235.16	-0.470	1.730	1.520	235.20	0.40	1.70	 	 	 	 	 	 	 	 	 	 	 	 	 	 	 	 	 	 	1581548247	7.06	13.08
12/02/2020 22:57:29	120220	12022020	225728	235.65	12.205838	-57.103418	235.69	-0.070	1.560	0.680	235.75	0.00	0.90	 	 	 	 	 	 	 	 	 	 	 	 	 	 	 	 	 	 	1581548248	7.27	13.46
12/02/2020 22:57:30	120220	12022020	225729	236.06	12.205817	-57.103445	236.06	0.380	0.600	0.250	236.11	-1.10	0.70	 	 	 	 	 	 	 	 	 	 	 	 	 	 	 	 	 	 	1581548249	7.70	14.26
12/02/2020 22:57:31	120220	12022020	225730	236.17	12.205795	-57.103477	236.15	0.650	-0.710	0.530	236.16	-2.40	1.10	 	 	 	 	 	 	 	 	 	 	 	 	 	 	 	 	 	 	1581548250	7.84	14.52
12/02/2020 22:57:32	120220	12022020	225731	235.99	12.205778	-57.103508	235.95	0.660	-1.810	1.330	235.92	-3.40	2.00	 	 	 	 	 	 	 	 	 	 	 	 	 	 	 	 	 	 	1581548251	7.70	14.26
12/02/2020 22:57:33	120220	12022020	225732	235.57	12.205765	-57.103540	235.53	0.530	-2.290	2.350	235.48	-3.70	3.00	 	 	 	 	 	 	 	 	 	 	 	 	 	 	 	 	 	 	1581548252	7.43	13.76
12/02/2020 22:57:34	120220	12022020	225733	235.11	12.205753	-57.103572	235.08	0.350	-1.950	3.110	235.02	-3.20	3.60	 	 	 	 	 	 	 	 	 	 	 	 	 	 	 	 	 	 	1581548253	7.02	13.00
12/02/2020 22:57:35	120220	12022020	225734	234.76	12.205740	-57.103600	234.74	0.140	-1.120	3.350	234.71	-2.30	3.70	 	 	 	 	 	 	 	 	 	 	 	 	 	 	 	 	 	 	1581548254	6.73	12.46
12/02/2020 22:57:36	120220	12022020	225735	234.59	12.205725	-57.103630	234.56	-0.000	-0.340	3.210	234.57	-1.60	3.50	 	 	 	 	 	 	 	 	 	 	 	 	 	 	 	 	 	 	1581548255	6.93	12.83
12/02/2020 22:57:37	120220	12022020	225736	234.55	12.205707	-57.103660	234.56	-0.040	0.080	2.790	234.58	-1.30	3.10	 	 	 	 	 	 	 	 	 	 	 	 	 	 	 	 	 	 	1581548256	7.45	13.80
12/02/2020 22:57:38	120220	12022020	225737	234.67	12.205687	-57.103690	234.73	-0.070	0.270	2.200	234.72	-1.10	2.40	 	 	 	 	 	 	 	 	 	 	 	 	 	 	 	 	 	 	1581548257	7.84	14.52
12/02/2020 22:57:39	120220	12022020	225738	235.04	12.205665	-57.103718	235.07	-0.220	0.510	1.510	235.13	-0.80	1.70	 	 	 	 	 	 	 	 	 	 	 	 	 	 	 	 	 	 	1581548258	7.76	14.37
12/02/2020 22:57:40	120220	12022020	225739	235.60	12.205643	-57.103747	235.65	-0.490	0.800	0.790	235.73	-0.60	1.10	 	 	 	 	 	 	 	 	 	 	 	 	 	 	 	 	 	 	1581548259	7.41	13.72
12/02/2020 22:57:41	120220	12022020	225740	236.19	12.205623	-57.103775	236.21	-0.710	0.730	0.420	236.27	-0.80	0.80	 	 	 	 	 	 	 	 	 	 	 	 	 	 	 	 	 	 	1581548260	7.32	13.56
12/02/2020 22:57:42	120220	12022020	225741	236.50	12.205605	-57.103807	236.49	-0.600	0.120	0.510	236.53	-1.40	1.00	 	 	 	 	 	 	 	 	 	 	 	 	 	 	 	 	 	 	1581548261	7.68	14.22
12/02/2020 22:57:43	120220	12022020	225742	236.60	12.205587	-57.103838	236.58	-0.170	-0.470	0.750	236.60	-1.90	1.20	 	 	 	 	 	 	 	 	 	 	 	 	 	 	 	 	 	 	1581548262	7.72	14.30
12/02/2020 22:57:44	120220	12022020	225743	236.61	12.205572	-57.103867	236.59	0.330	-0.630	0.860	236.60	-2.00	1.30	 	 	 	 	 	 	 	 	 	 	 	 	 	 	 	 	 	 	1581548263	7.11	13.17
12/02/2020 22:57:45	120220	12022020	225744	236.55	12.205555	-57.103895	236.51	0.690	-0.620	0.730	236.52	-2.00	1.10	 	 	 	 	 	 	 	 	 	 	 	 	 	 	 	 	 	 	1581548264	6.79	12.58
12/02/2020 22:57:46	120220	12022020	225745	236.37	12.205535	-57.103922	236.31	0.810	-0.760	0.560	236.31	-2.20	1.00	 	 	 	 	 	 	 	 	 	 	 	 	 	 	 	 	 	 	1581548265	7.02	13.00
12/02/2020 22:57:47	120220	12022020	225746	236.05	12.205517	-57.103950	236.00	0.660	-0.950	0.740	235.97	-2.40	1.20	 	 	 	 	 	 	 	 	 	 	 	 	 	 	 	 	 	 	1581548266	7.36	13.63
12/02/2020 22:57:48	120220	12022020	225747	235.67	12.205500	-57.103982	235.63	0.290	-0.880	1.280	235.60	-2.20	1.80	 	 	 	 	 	 	 	 	 	 	 	 	 	 	 	 	 	 	1581548267	7.41	13.72
12/02/2020 22:57:49	120220	12022020	225748	235.39	12.205485	-57.104012	235.39	-0.230	-0.490	1.880	235.37	-1.80	2.40	 	 	 	 	 	 	 	 	 	 	 	 	 	 	 	 	 	 	1581548268	7.33	13.58
12/02/2020 22:57:50	120220	12022020	225749	235.38	12.205472	-57.104045	235.41	-0.710	-0.110	2.130	235.41	-1.40	2.50	 	 	 	 	 	 	 	 	 	 	 	 	 	 	 	 	 	 	1581548269	7.39	13.69
12/02/2020 22:57:51	120220	12022020	225750	235.63	12.205457	-57.104077	235.68	-0.900	0.020	1.880	235.70	-1.40	2.10	 	 	 	 	 	 	 	 	 	 	 	 	 	 	 	 	 	 	1581548270	7.62	14.11
12/02/2020 22:57:52	120220	12022020	225751	236.11	12.205440	-57.104108	236.17	-0.710	0.040	1.120	236.22	-1.30	1.30	 	 	 	 	 	 	 	 	 	 	 	 	 	 	 	 	 	 	1581548271	7.68	14.22
12/02/2020 22:57:53	120220	12022020	225752	236.71	12.205418	-57.104137	236.74	-0.270	0.200	0.100	236.83	-1.10	0.30	 	 	 	 	 	 	 	 	 	 	 	 	 	 	 	 	 	 	1581548272	7.43	13.76
12/02/2020 22:57:54	120220	12022020	225753	237.20	12.205397	-57.104163	237.17	0.160	0.380	-0.820	237.27	-1.00	-0.60	 	 	 	 	 	 	 	 	 	 	 	 	 	 	 	 	 	 	1581548273	7.21	13.35
12/02/2020 22:57:55	120220	12022020	225754	237.43	12.205375	-57.104188	237.36	0.420	0.330	-1.160	237.44	-1.10	-0.70	 	 	 	 	 	 	 	 	 	 	 	 	 	 	 	 	 	 	1581548274	7.20	13.33
12/02/2020 22:57:56	120220	12022020	225755	237.33	12.205357	-57.104217	237.24	0.480	-0.050	-0.580	237.27	-1.60	0.10	 	 	 	 	 	 	 	 	 	 	 	 	 	 	 	 	 	 	1581548275	7.29	13.50
12/02/2020 22:57:57	120220	12022020	225756	236.94	12.205342	-57.104250	236.84	0.380	-0.610	0.720	236.82	-2.10	1.40	 	 	 	 	 	 	 	 	 	 	 	 	 	 	 	 	 	 	1581548276	7.54	13.96
12/02/2020 22:57:58	120220	12022020	225757	236.31	12.205330	-57.104285	236.21	0.220	-1.100	2.210	236.16	-2.50	2.90	 	 	 	 	 	 	 	 	 	 	 	 	 	 	 	 	 	 	1581548277	7.86	14.56
12/02/2020 22:57:59	120220	12022020	225758	235.63	12.205320	-57.104320	235.59	0.090	-1.150	3.330	235.52	-2.40	3.90	 	 	 	 	 	 	 	 	 	 	 	 	 	 	 	 	 	 	1581548278	7.80	14.45
12/02/2020 22:58:00	120220	12022020	225759	235.30	12.205310	-57.104352	235.28	-0.030	-0.620	3.540	235.26	-1.80	3.80	 	 	 	 	 	 	 	 	 	 	 	 	 	 	 	 	 	 	1581548279	7.18	13.30
12/02/2020 22:58:01	120220	12022020	225800	235.29	12.205293	-57.104380	235.34	-0.150	0.020	2.840	235.33	-1.30	3.00	 	 	 	 	 	 	 	 	 	 	 	 	 	 	 	 	 	 	1581548280	6.72	12.45
12/02/2020 22:58:02	120220	12022020	225801	235.59	12.205273	-57.104407	235.66	-0.260	0.210	1.750	235.59	-1.20	1.90	1015.30	26.90	27.50	20.80	20.90	-2.0	69.0	67.0	389.0	26.0	201.00	6.30	69.00	9.90	17	11196.0	27.4	27.4	1581548281	7.11	13.17
12/02/2020 22:58:03	120220	12022020	225802	236.06	12.205250	-57.104433	236.12	-0.320	-0.010	0.780	236.16	-1.50	1.00	 	 	 	 	 	 	 	 	 	 	 	 	 	 	 	 	 	 	1581548282	7.56	14.00
12/02/2020 22:58:04	120220	12022020	225803	236.58	12.205228	-57.104462	236.61	-0.270	-0.370	0.200	236.66	-1.80	0.50	 	 	 	 	 	 	 	 	 	 	 	 	 	 	 	 	 	 	1581548283	7.63	14.13
12/02/2020 22:58:05	120220	12022020	225804	236.96	12.205210	-57.104492	236.94	-0.080	-0.680	0.090	237.00	-2.10	0.60	 	 	 	 	 	 	 	 	 	 	 	 	 	 	 	 	 	 	1581548284	7.53	13.95
12/02/2020 22:58:06	120220	12022020	225805	236.98	12.205193	-57.104523	236.90	0.160	-0.790	0.490	236.92	-2.20	1.10	 	 	 	 	 	 	 	 	 	 	 	 	 	 	 	 	 	 	1581548285	7.40	13.70
12/02/2020 22:58:07	120220	12022020	225806	236.55	12.205178	-57.104553	236.45	0.270	-0.610	1.290	236.43	-1.90	1.90	 	 	 	 	 	 	 	 	 	 	 	 	 	 	 	 	 	 	1581548286	7.30	13.52
12/02/2020 22:58:08	120220	12022020	225807	236.05	12.205165	-57.104585	236.01	0.130	-0.090	1.960	235.99	-1.30	2.40	 	 	 	 	 	 	 	 	 	 	 	 	 	 	 	 	 	 	1581548287	7.13	13.20
12/02/2020 22:58:09	120220	12022020	225808	235.92	12.205152	-57.104615	235.93	-0.140	0.540	2.130	235.95	-0.70	2.50	 	 	 	 	 	 	 	 	 	 	 	 	 	 	 	 	 	 	1581548288	6.86	12.70
12/02/2020 22:58:10	120220	12022020	225809	236.16	12.205138	-57.104643	236.19	-0.310	0.870	1.930	236.24	-0.50	2.30	 	 	 	 	 	 	 	 	 	 	 	 	 	 	 	 	 	 	1581548289	6.89	12.76
12/02/2020 22:58:11	120220	12022020	225810	236.52	12.205122	-57.104673	236.54	-0.190	0.730	1.620	236.58	-0.80	1.90	 	 	 	 	 	 	 	 	 	 	 	 	 	 	 	 	 	 	1581548290	7.14	13.22
12/02/2020 22:58:12	120220	12022020	225811	236.77	12.205105	-57.104703	236.78	0.220	0.190	1.290	236.81	-1.40	1.60	 	 	 	 	 	 	 	 	 	 	 	 	 	 	 	 	 	 	1581548291	7.35	13.61
12/02/2020 22:58:13	120220	12022020	225812	236.91	12.205085	-57.104733	236.89	0.620	-0.590	0.970	236.92	-2.20	1.30	 	 	 	 	 	 	 	 	 	 	 	 	 	 	 	 	 	 	1581548292	7.49	13.87
12/02/2020 22:58:14	120220	12022020	225813	236.93	12.205067	-57.104762	236.88	0.690	-1.330	0.730	236.92	-2.90	1.10	 	 	 	 	 	 	 	 	 	 	 	 	 	 	 	 	 	 	1581548293	7.49	13.87
12/02/2020 22:58:15	120220	12022020	225814	236.80	12.205048	-57.104792	236.74	0.370	-1.690	0.720	236.75	-3.10	1.20	 	 	 	 	 	 	 	 	 	 	 	 	 	 	 	 	 	 	1581548294	7.28	13.48
12/02/2020 22:58:16	120220	12022020	225815	236.52	12.205033	-57.104822	236.47	-0.130	-1.600	0.960	236.46	-2.90	1.40	 	 	 	 	 	 	 	 	 	 	 	 	 	 	 	 	 	 	1581548295	7.11	13.17
12/02/2020 22:58:17	120220	12022020	225816	236.21	12.205020	-57.104852	236.16	-0.470	-1.190	1.320	236.16	-2.40	1.80	 	 	 	 	 	 	 	 	 	 	 	 	 	 	 	 	 	 	1581548296	7.17	13.28
12/02/2020 22:58:18	120220	12022020	225817	236.04	12.205005	-57.104883	236.02	-0.550	-0.550	1.490	236.04	-1.80	1.90	 	 	 	 	 	 	 	 	 	 	 	 	 	 	 	 	 	 	1581548297	7.27	13.46
12/02/2020 22:58:19	120220	12022020	225818	236.11	12.204990	-57.104913	236.11	-0.500	0.290	1.430	236.16	-0.90	1.80	 	 	 	 	 	 	 	 	 	 	 	 	 	 	 	 	 	 	1581548298	7.18	13.30
12/02/2020 22:58:20	120220	12022020	225819	236.43	12.204973	-57.104942	236.44	-0.460	1.110	1.270	236.50	-0.10	1.60	 	 	 	 	 	 	 	 	 	 	 	 	 	 	 	 	 	 	1581548299	7.03	13.02
12/02/2020 22:58:21	120220	12022020	225820	236.82	12.204957	-57.104972	236.81	-0.400	1.540	1.110	236.88	0.20	1.50	 	 	 	 	 	 	 	 	 	 	 	 	 	 	 	 	 	 	1581548300	7.06	13.08
12/02/2020 22:58:22	120220	12022020	225821	237.10	12.204940	-57.105000	237.07	-0.180	1.420	1.020	237.13	-0.10	1.40	 	 	 	 	 	 	 	 	 	 	 	 	 	 	 	 	 	 	1581548301	7.22	13.37
12/02/2020 22:58:23	120220	12022020	225822	237.16	12.204922	-57.105030	237.11	0.240	0.780	0.980	237.14	-0.90	1.40	 	 	 	 	 	 	 	 	 	 	 	 	 	 	 	 	 	 	1581548302	7.32	13.56
12/02/2020 22:58:24	120220	12022020	225823	236.95	12.204903	-57.105060	236.88	0.710	-0.300	0.980	236.89	-2.00	1.40	 	 	 	 	 	 	 	 	 	 	 	 	 	 	 	 	 	 	1581548303	7.49	13.87
12/02/2020 22:58:25	120220	12022020	225824	236.61	12.204883	-57.105090	236.52	0.940	-1.430	1.010	236.53	-3.00	1.40	 	 	 	 	 	 	 	 	 	 	 	 	 	 	 	 	 	 	1581548304	7.57	14.02
12/02/2020 22:58:26	120220	12022020	225825	236.27	12.204867	-57.105120	236.20	0.790	-2.120	1.020	236.27	-3.60	1.40	 	 	 	 	 	 	 	 	 	 	 	 	 	 	 	 	 	 	1581548305	7.30	13.52
12/02/2020 22:58:27	120220	12022020	225826	236.03	12.204850	-57.105148	235.97	0.360	-2.270	1.070	235.99	-3.60	1.50	 	 	 	 	 	 	 	 	 	 	 	 	 	 	 	 	 	 	1581548306	7.05	13.06
12/02/2020 22:58:28	120220	12022020	225827	235.87	12.204837	-57.105178	235.82	-0.160	-1.920	1.240	235.87	-3.10	1.70	 	 	 	 	 	 	 	 	 	 	 	 	 	 	 	 	 	 	1581548307	7.12	13.19
12/02/2020 22:58:29	120220	12022020	225828	235.86	12.204822	-57.105210	235.82	-0.670	-1.020	1.380	235.87	-2.10	1.80	 	 	 	 	 	 	 	 	 	 	 	 	 	 	 	 	 	 	1581548308	7.07	13.09
12/02/2020 22:58:30	120220	12022020	225829	235.98	12.204808	-57.105238	235.96	-0.970	0.220	1.400	236.02	-0.90	1.80	 	 	 	 	 	 	 	 	 	 	 	 	 	 	 	 	 	 	1581548309	6.90	12.78
12/02/2020 22:58:31	120220	12022020	225830	236.15	12.204793	-57.105268	236.12	-0.870	1.270	1.260	236.17	0.00	1.60	 	 	 	 	 	 	 	 	 	 	 	 	 	 	 	 	 	 	1581548310	6.94	12.85
12/02/2020 22:58:32	120220	12022020	225831	236.23	12.204772	-57.105295	236.19	-0.420	1.630	1.000	236.22	0.20	1.30	 	 	 	 	 	 	 	 	 	 	 	 	 	 	 	 	 	 	1581548311	7.38	13.67
12/02/2020 22:58:33	120220	12022020	225832	236.19	12.204750	-57.105325	236.15	0.030	1.290	0.780	236.18	-0.30	1.20	 	 	 	 	 	 	 	 	 	 	 	 	 	 	 	 	 	 	1581548312	7.80	14.45
12/02/2020 22:58:34	120220	12022020	225833	236.17	12.204728	-57.105355	236.14	0.210	0.610	0.710	236.19	-0.90	1.10	 	 	 	 	 	 	 	 	 	 	 	 	 	 	 	 	 	 	1581548313	7.72	14.30
12/02/2020 22:58:35	120220	12022020	225834	236.31	12.204712	-57.105383	236.29	0.200	-0.020	0.730	236.36	-1.50	1.10	 	 	 	 	 	 	 	 	 	 	 	 	 	 	 	 	 	 	1581548314	7.26	13.45
12/02/2020 22:58:36	120220	12022020	225835	236.59	12.204698	-57.105413	236.58	0.270	-0.610	0.790	236.64	-2.10	1.20	 	 	 	 	 	 	 	 	 	 	 	 	 	 	 	 	 	 	1581548315	6.93	12.83
12/02/2020 22:58:37	120220	12022020	225836	236.75	12.204685	-57.105443	236.71	0.530	-1.280	0.980	236.75	-2.80	1.50	 	 	 	 	 	 	 	 	 	 	 	 	 	 	 	 	 	 	1581548316	7.05	13.06
12/02/2020 22:58:38	120220	12022020	225837	236.58	12.204670	-57.105475	236.51	0.790	-1.760	1.440	236.51	-3.20	2.00	 	 	 	 	 	 	 	 	 	 	 	 	 	 	 	 	 	 	1581548317	7.25	13.43
12/02/2020 22:58:39	120220	12022020	225838	236.17	12.204655	-57.105505	236.11	0.760	-1.630	1.940	236.09	-2.90	2.40	 	 	 	 	 	 	 	 	 	 	 	 	 	 	 	 	 	 	1581548318	7.09	13.13
12/02/2020 22:58:40	120220	12022020	225839	235.78	12.204638	-57.105532	235.73	0.310	-0.880	2.170	235.71	-2.00	2.60	 	 	 	 	 	 	 	 	 	 	 	 	 	 	 	 	 	 	1581548319	6.74	12.48
12/02/2020 22:58:41	120220	12022020	225840	235.53	12.204623	-57.105560	235.51	-0.330	0.000	2.150	235.52	-1.20	2.50	 	 	 	 	 	 	 	 	 	 	 	 	 	 	 	 	 	 	1581548320	6.70	12.41
12/02/2020 22:58:42	120220	12022020	225841	235.55	12.204607	-57.105588	235.56	-0.770	0.550	1.870	235.59	-0.80	2.10	 	 	 	 	 	 	 	 	 	 	 	 	 	 	 	 	 	 	1581548321	7.03	13.02
12/02/2020 22:58:43	120220	12022020	225842	235.88	12.204588	-57.105617	235.92	-0.770	0.700	1.190	235.99	-0.70	1.40	 	 	 	 	 	 	 	 	 	 	 	 	 	 	 	 	 	 	1581548322	7.31	13.54
12/02/2020 22:58:44	120220	12022020	225843	236.45	12.204567	-57.105645	236.48	-0.370	0.450	0.260	236.58	-1.00	0.50	 	 	 	 	 	 	 	 	 	 	 	 	 	 	 	 	 	 	1581548323	7.49	13.87
12/02/2020 22:58:45	120220	12022020	225844	237.00	12.204545	-57.105675	237.00	0.080	-0.090	-0.330	237.09	-1.60	0.00	 	 	 	 	 	 	 	 	 	 	 	 	 	 	 	 	 	 	1581548324	7.64	14.15
12/02/2020 22:58:46	120220	12022020	225845	237.27	12.204527	-57.105705	237.23	0.260	-0.590	-0.100	237.27	-2.00	0.50	 	 	 	 	 	 	 	 	 	 	 	 	 	 	 	 	 	 	1581548325	7.50	13.89
12/02/2020 22:58:47	120220	12022020	225846	237.13	12.204513	-57.105737	237.05	0.170	-0.810	0.770	237.06	-2.20	1.40	 	 	 	 	 	 	 	 	 	 	 	 	 	 	 	 	 	 	1581548326	7.31	13.54
12/02/2020 22:58:48	120220	12022020	225847	236.72	12.204502	-57.105768	236.65	0.040	-0.660	1.760	236.64	-1.90	2.30	 	 	 	 	 	 	 	 	 	 	 	 	 	 	 	 	 	 	1581548327	7.18	13.30
12/02/2020 22:58:49	120220	12022020	225848	236.32	12.204490	-57.105798	236.26	0.020	-0.140	2.390	236.25	-1.40	2.80	 	 	 	 	 	 	 	 	 	 	 	 	 	 	 	 	 	 	1581548328	6.89	12.76
12/02/2020 22:58:50	120220	12022020	225849	236.11	12.204475	-57.105825	236.06	0.100	0.470	2.390	236.08	-0.80	2.70	 	 	 	 	 	 	 	 	 	 	 	 	 	 	 	 	 	 	1581548329	6.62	12.26
12/02/2020 22:58:51	120220	12022020	225850	236.03	12.204458	-57.105852	236.01	0.200	0.680	1.880	236.04	-0.70	2.10	 	 	 	 	 	 	 	 	 	 	 	 	 	 	 	 	 	 	1581548330	6.74	12.48
12/02/2020 22:58:52	120220	12022020	225851	236.09	12.204438	-57.105880	236.08	0.280	0.280	1.180	236.11	-1.30	1.40	 	 	 	 	 	 	 	 	 	 	 	 	 	 	 	 	 	 	1581548331	7.17	13.28
12/02/2020 22:58:53	120220	12022020	225852	236.21	12.204418	-57.105908	236.20	0.290	-0.530	0.630	236.24	-2.10	1.00	 	 	 	 	 	 	 	 	 	 	 	 	 	 	 	 	 	 	1581548332	7.51	13.91
12/02/2020 22:58:54	120220	12022020	225853	236.34	12.204400	-57.105938	236.33	0.190	-1.290	0.470	236.36	-2.80	0.90	 	 	 	 	 	 	 	 	 	 	 	 	 	 	 	 	 	 	1581548333	7.50	13.89
12/02/2020 22:58:55	120220	12022020	225854	236.40	12.204383	-57.105968	236.38	0.060	-1.600	0.580	236.41	-3.00	1.00	 	 	 	 	 	 	 	 	 	 	 	 	 	 	 	 	 	 	1581548334	7.24	13.41
12/02/2020 22:58:56	120220	12022020	225855	236.41	12.204368	-57.105998	236.39	-0.050	-1.350	0.720	236.42	-2.60	1.20	 	 	 	 	 	 	 	 	 	 	 	 	 	 	 	 	 	 	1581548335	6.92	12.82
12/02/2020 22:58:57	120220	12022020	225856	236.43	12.204353	-57.106027	236.41	-0.160	-0.710	0.890	236.44	-1.90	1.30	 	 	 	 	 	 	 	 	 	 	 	 	 	 	 	 	 	 	1581548336	6.77	12.54
12/02/2020 22:58:58	120220	12022020	225857	236.47	12.204338	-57.106055	236.44	-0.270	-0.000	1.020	236.48	-1.20	1.40	 	 	 	 	 	 	 	 	 	 	 	 	 	 	 	 	 	 	1581548337	6.87	12.72
12/02/2020 22:58:59	120220	12022020	225858	236.51	12.204323	-57.106083	236.46	-0.340	0.530	1.100	236.52	-0.80	1.50	 	 	 	 	 	 	 	 	 	 	 	 	 	 	 	 	 	 	1581548338	7.09	13.13
12/02/2020 22:59:00	120220	12022020	225859	236.53	12.204305	-57.106113	236.48	-0.300	0.910	1.160	236.53	-0.40	1.60	 	 	 	 	 	 	 	 	 	 	 	 	 	 	 	 	 	 	1581548339	7.14	13.22
12/02/2020 22:59:01	120220	12022020	225900	236.47	12.204288	-57.106142	236.42	-0.200	0.940	1.250	236.44	-0.50	1.70	 	 	 	 	 	 	 	 	 	 	 	 	 	 	 	 	 	 	1581548340	7.15	13.24
12/02/2020 22:59:02	120220	12022020	225901	236.26	12.204270	-57.106172	236.20	-0.080	0.470	1.420	236.20	-1.10	1.90	1015.30	27.60	29.50	21.50	22.20	-2.0	69.0	65.0	389.0	26.0	185.00	5.90	60.00	9.60	17	11589.0	27.4	27.4	1581548341	7.39	13.69
12/02/2020 22:59:03	120220	12022020	225902	235.91	12.204255	-57.106203	235.84	0.060	-0.230	1.590	235.83	-1.80	2.00	 	 	 	 	 	 	 	 	 	 	 	 	 	 	 	 	 	 	1581548342	7.51	13.91
12/02/2020 22:59:04	120220	12022020	225903	235.60	12.204238	-57.106233	235.57	0.190	-0.710	1.540	235.60	-2.10	1.90	 	 	 	 	 	 	 	 	 	 	 	 	 	 	 	 	 	 	1581548343	7.24	13.41
12/02/2020 22:59:05	120220	12022020	225904	235.63	12.204223	-57.106262	235.64	0.290	-0.820	1.130	235.67	-2.20	1.40	 	 	 	 	 	 	 	 	 	 	 	 	 	 	 	 	 	 	1581548344	6.74	12.48
12/02/2020 22:59:06	120220	12022020	225905	235.95	12.204207	-57.106287	235.97	0.350	-0.850	0.560	236.02	-2.30	0.80	 	 	 	 	 	 	 	 	 	 	 	 	 	 	 	 	 	 	1581548345	6.60	12.22
12/02/2020 22:59:07	120220	12022020	225906	236.32	12.204188	-57.106315	236.33	0.360	-1.000	0.140	236.38	-2.40	0.50	 	 	 	 	 	 	 	 	 	 	 	 	 	 	 	 	 	 	1581548346	6.91	12.80
12/02/2020 22:59:08	120220	12022020	225907	236.56	12.204172	-57.106343	236.53	0.230	-1.120	0.100	236.57	-2.50	0.60	 	 	 	 	 	 	 	 	 	 	 	 	 	 	 	 	 	 	1581548347	7.20	13.33
12/02/2020 22:59:09	120220	12022020	225908	236.48	12.204153	-57.106373	236.41	-0.030	-0.970	0.480	236.42	-2.30	1.00	 	 	 	 	 	 	 	 	 	 	 	 	 	 	 	 	 	 	1581548348	7.27	13.46
12/02/2020 22:59:10	120220	12022020	225909	236.09	12.204138	-57.106403	236.01	-0.320	-0.480	1.010	235.99	-1.70	1.50	 	 	 	 	 	 	 	 	 	 	 	 	 	 	 	 	 	 	1581548349	7.16	13.26
12/02/2020 22:59:11	120220	12022020	225910	235.64	12.204123	-57.106432	235.58	-0.550	0.220	1.450	235.55	-1.00	1.90	 	 	 	 	 	 	 	 	 	 	 	 	 	 	 	 	 	 	1581548350	7.01	12.98
12/02/2020 22:59:12	120220	12022020	225911	235.33	12.204108	-57.106462	235.30	-0.600	0.830	1.740	235.29	-0.50	2.20	 	 	 	 	 	 	 	 	 	 	 	 	 	 	 	 	 	 	1581548351	6.99	12.95
12/02/2020 22:59:13	120220	12022020	225912	235.24	12.204092	-57.106492	235.25	-0.430	1.030	1.800	235.25	-0.40	2.20	 	 	 	 	 	 	 	 	 	 	 	 	 	 	 	 	 	 	1581548352	7.11	13.17
12/02/2020 22:59:14	120220	12022020	225913	235.37	12.204075	-57.106522	235.41	-0.110	0.740	1.610	235.43	-0.80	1.90	 	 	 	 	 	 	 	 	 	 	 	 	 	 	 	 	 	 	1581548353	7.31	13.54
12/02/2020 22:59:15	120220	12022020	225914	235.71	12.204057	-57.106550	235.76	0.220	0.150	1.270	235.78	-1.40	1.60	 	 	 	 	 	 	 	 	 	 	 	 	 	 	 	 	 	 	1581548354	7.36	13.63
12/02/2020 22:59:16	120220	12022020	225915	236.02	12.204038	-57.106580	236.09	0.420	-0.520	1.070	236.07	-2.00	1.50	 	 	 	 	 	 	 	 	 	 	 	 	 	 	 	 	 	 	1581548355	7.26	13.45
12/02/2020 22:59:17	120220	12022020	225916	236.22	12.204023	-57.106610	236.21	0.450	-1.070	1.090	236.22	-2.50	1.50	 	 	 	 	 	 	 	 	 	 	 	 	 	 	 	 	 	 	1581548356	7.18	13.30
12/02/2020 22:59:18	120220	12022020	225917	236.14	12.204008	-57.106638	236.12	0.420	-1.200	1.040	236.14	-2.50	1.40	 	 	 	 	 	 	 	 	 	 	 	 	 	 	 	 	 	 	1581548357	6.92	12.82
12/02/2020 22:59:19	120220	12022020	225918	235.95	12.203990	-57.106663	235.93	0.400	-0.910	0.820	235.92	-2.20	1.20	 	 	 	 	 	 	 	 	 	 	 	 	 	 	 	 	 	 	1581548358	6.58	12.19
12/02/2020 22:59:20	120220	12022020	225919	235.76	12.203972	-57.106690	235.74	0.350	-0.590	0.690	235.73	-1.90	1.10	 	 	 	 	 	 	 	 	 	 	 	 	 	 	 	 	 	 	1581548359	6.67	12.35
12/02/2020 22:59:21	120220	12022020	225920	235.65	12.203953	-57.106717	235.64	0.130	-0.500	0.870	235.64	-1.90	1.40	 	 	 	 	 	 	 	 	 	 	 	 	 	 	 	 	 	 	1581548360	7.07	13.09
12/02/2020 22:59:22	120220	12022020	225921	235.64	12.203937	-57.106748	235.65	-0.240	-0.520	1.290	235.64	-1.90	1.80	 	 	 	 	 	 	 	 	 	 	 	 	 	 	 	 	 	 	1581548361	7.45	13.80
12/02/2020 22:59:23	120220	12022020	225922	235.66	12.203922	-57.106780	235.68	-0.620	-0.290	1.690	235.67	-1.60	2.20	 	 	 	 	 	 	 	 	 	 	 	 	 	 	 	 	 	 	1581548362	7.45	13.80
12/02/2020 22:59:24	120220	12022020	225923	235.76	12.203908	-57.106810	235.79	-0.810	0.180	1.820	235.78	-1.10	2.20	 	 	 	 	 	 	 	 	 	 	 	 	 	 	 	 	 	 	1581548363	7.14	13.22
12/02/2020 22:59:25	120220	12022020	225924	235.92	12.203895	-57.106840	235.94	-0.710	0.530	1.500	235.95	-0.80	1.80	 	 	 	 	 	 	 	 	 	 	 	 	 	 	 	 	 	 	1581548364	7.01	12.98
12/02/2020 22:59:26	120220	12022020	225925	236.09	12.203877	-57.106868	236.07	-0.320	0.470	0.830	236.11	-1.00	1.10	 	 	 	 	 	 	 	 	 	 	 	 	 	 	 	 	 	 	1581548365	7.13	13.20
12/02/2020 22:59:27	120220	12022020	225926	236.15	12.203855	-57.106897	236.10	0.150	-0.040	0.190	236.14	-1.60	0.50	 	 	 	 	 	 	 	 	 	 	 	 	 	 	 	 	 	 	1581548366	7.48	13.85
12/02/2020 22:59:28	120220	12022020	225927	236.01	12.203833	-57.106925	235.94	0.500	-0.620	-0.060	235.97	-2.10	0.40	 	 	 	 	 	 	 	 	 	 	 	 	 	 	 	 	 	 	1581548367	7.62	14.11
12/02/2020 22:59:29	120220	12022020	225928	235.76	12.203815	-57.106953	235.70	0.580	-0.720	0.050	235.72	-2.00	0.50	 	 	 	 	 	 	 	 	 	 	 	 	 	 	 	 	 	 	1581548368	7.21	13.35
12/02/2020 22:59:30	120220	12022020	225929	235.64	12.203798	-57.106980	235.61	0.370	-0.240	0.230	235.65	-1.50	0.70	 	 	 	 	 	 	 	 	 	 	 	 	 	 	 	 	 	 	1581548369	6.58	12.19
12/02/2020 22:59:31	120220	12022020	225930	235.80	12.203783	-57.107007	235.79	0.060	0.290	0.460	235.85	-1.00	0.90	 	 	 	 	 	 	 	 	 	 	 	 	 	 	 	 	 	 	1581548370	6.37	11.80
12/02/2020 22:59:32	120220	12022020	225931	236.08	12.203772	-57.107035	236.07	-0.130	0.370	0.740	236.13	-1.10	1.20	 	 	 	 	 	 	 	 	 	 	 	 	 	 	 	 	 	 	1581548371	6.75	12.50
12/02/2020 22:59:33	120220	12022020	225932	236.31	12.203757	-57.107067	236.29	-0.080	-0.060	0.940	236.34	-1.60	1.40	 	 	 	 	 	 	 	 	 	 	 	 	 	 	 	 	 	 	1581548372	7.22	13.37
12/02/2020 22:59:34	120220	12022020	225933	236.35	12.203740	-57.107097	236.32	0.100	-0.730	1.020	236.33	-2.30	1.40	 	 	 	 	 	 	 	 	 	 	 	 	 	 	 	 	 	 	1581548373	7.50	13.89
12/02/2020 22:59:35	120220	12022020	225934	236.14	12.203723	-57.107128	236.07	0.190	-1.340	1.120	236.06	-2.80	1.60	 	 	 	 	 	 	 	 	 	 	 	 	 	 	 	 	 	 	1581548374	7.58	14.04
12/02/2020 22:59:36	120220	12022020	225935	235.72	12.203705	-57.107158	235.65	0.090	-1.630	1.350	235.63	-3.00	1.80	 	 	 	 	 	 	 	 	 	 	 	 	 	 	 	 	 	 	1581548375	7.52	13.93
12/02/2020 22:59:37	120220	12022020	225936	235.21	12.203688	-57.107190	235.15	-0.150	-1.440	1.660	235.11	-2.70	2.10	 	 	 	 	 	 	 	 	 	 	 	 	 	 	 	 	 	 	1581548376	7.39	13.69
12/02/2020 22:59:38	120220	12022020	225937	234.82	12.203672	-57.107220	234.80	-0.390	-0.810	1.770	234.79	-2.00	2.10	 	 	 	 	 	 	 	 	 	 	 	 	 	 	 	 	 	 	1581548377	7.24	13.41
12/02/2020 22:59:39	120220	12022020	225938	234.86	12.203657	-57.107248	234.89	-0.550	0.230	1.380	234.93	-0.90	1.60	 	 	 	 	 	 	 	 	 	 	 	 	 	 	 	 	 	 	1581548378	6.93	12.83
12/02/2020 22:59:40	120220	12022020	225939	235.22	12.203638	-57.107273	235.40	-0.580	1.320	0.600	235.34	0.10	0.80	 	 	 	 	 	 	 	 	 	 	 	 	 	 	 	 	 	 	1581548379	6.60	12.22
12/02/2020 22:59:41	120220	12022020	225940	235.94	12.203617	-57.107298	235.97	-0.460	1.730	-0.090	236.03	0.30	0.20	 	 	 	 	 	 	 	 	 	 	 	 	 	 	 	 	 	 	1581548380	6.88	12.74
12/02/2020 22:59:42	120220	12022020	225941	236.22	12.203597	-57.107325	236.21	-0.200	1.180	-0.150	236.22	-0.40	0.40	 	 	 	 	 	 	 	 	 	 	 	 	 	 	 	 	 	 	1581548381	7.48	13.85
12/02/2020 22:59:43	120220	12022020	225942	236.09	12.203578	-57.107358	236.05	0.170	0.240	0.450	236.04	-1.30	1.00	 	 	 	 	 	 	 	 	 	 	 	 	 	 	 	 	 	 	1581548382	7.73	14.32
12/02/2020 22:59:44	120220	12022020	225943	235.75	12.203563	-57.107390	235.69	0.580	-0.450	1.340	235.67	-1.90	1.90	 	 	 	 	 	 	 	 	 	 	 	 	 	 	 	 	 	 	1581548383	7.39	13.69
12/02/2020 22:59:45	120220	12022020	225944	235.37	12.203552	-57.107420	235.34	0.850	-0.870	2.040	235.31	-2.30	2.50	 	 	 	 	 	 	 	 	 	 	 	 	 	 	 	 	 	 	1581548384	6.97	12.91
12/02/2020 22:59:46	120220	12022020	225945	235.25	12.203537	-57.107448	235.26	0.820	-1.240	2.100	235.26	-2.70	2.40	 	 	 	 	 	 	 	 	 	 	 	 	 	 	 	 	 	 	1581548385	6.84	12.67
12/02/2020 22:59:47	120220	12022020	225946	235.43	12.203518	-57.107477	235.45	0.500	-1.660	1.590	235.48	-3.10	1.90	 	 	 	 	 	 	 	 	 	 	 	 	 	 	 	 	 	 	1581548386	7.05	13.06
12/02/2020 22:59:48	120220	12022020	225947	235.66	12.203498	-57.107505	235.66	0.070	-1.960	0.940	235.70	-3.30	1.20	 	 	 	 	 	 	 	 	 	 	 	 	 	 	 	 	 	 	1581548387	7.39	13.69
12/02/2020 22:59:49	120220	12022020	225948	235.83	12.203478	-57.107533	235.81	-0.300	-1.700	0.420	235.86	-2.90	0.80	 	 	 	 	 	 	 	 	 	 	 	 	 	 	 	 	 	 	1581548388	7.40	13.70
12/02/2020 22:59:50	120220	12022020	225949	235.91	12.203458	-57.107560	235.87	-0.560	-0.800	0.200	235.91	-1.90	0.60	 	 	 	 	 	 	 	 	 	 	 	 	 	 	 	 	 	 	1581548389	7.09	13.13
12/02/2020 22:59:51	120220	12022020	225950	235.85	12.203442	-57.107588	235.80	-0.720	0.250	0.360	235.83	-0.90	0.90	 	 	 	 	 	 	 	 	 	 	 	 	 	 	 	 	 	 	1581548390	7.01	12.98
12/02/2020 22:59:52	120220	12022020	225951	235.80	12.203425	-57.107618	235.77	-0.790	1.030	0.680	235.80	-0.20	1.20	 	 	 	 	 	 	 	 	 	 	 	 	 	 	 	 	 	 	1581548391	7.27	13.46
12/02/2020 22:59:53	120220	12022020	225952	235.84	12.203408	-57.107650	235.83	-0.720	1.450	0.920	235.86	0.10	1.40	 	 	 	 	 	 	 	 	 	 	 	 	 	 	 	 	 	 	1581548392	7.45	13.80
12/02/2020 22:59:54	120220	12022020	225953	235.95	12.203393	-57.107680	235.99	-0.420	1.590	1.010	235.99	0.20	1.40	 	 	 	 	 	 	 	 	 	 	 	 	 	 	 	 	 	 	1581548393	7.34	13.59
12/02/2020 22:59:55	120220	12022020	225954	236.14	12.203377	-57.107710	236.13	0.070	1.320	1.020	236.16	-0.20	1.40	 	 	 	 	 	 	 	 	 	 	 	 	 	 	 	 	 	 	1581548394	7.22	13.37
12/02/2020 22:59:56	120220	12022020	225955	236.26	12.203358	-57.107738	236.24	0.600	0.640	0.870	236.29	-0.90	1.20	 	 	 	 	 	 	 	 	 	 	 	 	 	 	 	 	 	 	1581548395	7.22	13.37
12/02/2020 22:59:57	120220	12022020	225956	236.43	12.203340	-57.107767	236.41	0.980	-0.230	0.480	236.46	-1.80	0.80	 	 	 	 	 	 	 	 	 	 	 	 	 	 	 	 	 	 	1581548396	7.10	13.15
12/02/2020 22:59:58	120220	12022020	225957	236.55	12.203320	-57.107793	236.52	1.100	-1.240	0.120	236.56	-2.90	0.50	 	 	 	 	 	 	 	 	 	 	 	 	 	 	 	 	 	 	1581548397	7.09	13.13
12/02/2020 22:59:59	120220	12022020	225958	236.54	12.203302	-57.107822	236.48	0.880	-2.310	0.190	236.51	-3.90	0.70	 	 	 	 	 	 	 	 	 	 	 	 	 	 	 	 	 	 	1581548398	7.35	13.61
12/02/2020 23:00:00	120220	12022020	225959	236.32	12.203285	-57.107855	236.24	0.420	-3.070	0.700	236.26	-4.50	1.20	 	 	 	 	 	 	 	 	 	 	 	 	 	 	 	 	 	 	1581548399	7.68	14.22
12/02/2020 23:00:01	120220	12022020	230000	236.06	12.203268	-57.107887	236.02	-0.130	-2.940	1.220	236.04	-4.10	1.70	 	 	 	 	 	 	 	 	 	 	 	 	 	 	 	 	 	 	1581548400	7.59	14.06
12/02/2020 23:00:02	120220	12022020	230001	235.99	12.203255	-57.107917	235.95	-0.650	-1.820	1.530	235.99	-2.90	2.00	1015.30	28.40	31.90	21.50	22.60	-2.0	66.0	57.0	390.0	26.0	189.00	6.50	62.00	10.20	17	11381.0	27.5	27.4	1581548401	7.19	13.32
12/02/2020 23:00:03	120220	12022020	230002	235.95	12.203240	-57.107947	235.92	-1.000	-0.260	1.690	235.93	-1.30	2.10	 	 	 	 	 	 	 	 	 	 	 	 	 	 	 	 	 	 	1581548402	7.06	13.08
12/02/2020 23:00:04	120220	12022020	230003	235.90	12.203223	-57.107977	235.88	-1.090	1.200	1.750	235.90	0.10	2.20	 	 	 	 	 	 	 	 	 	 	 	 	 	 	 	 	 	 	1581548403	7.26	13.45
12/02/2020 23:00:05	120220	12022020	230004	235.98	12.203205	-57.108007	235.99	-0.990	2.280	1.680	236.02	1.00	2.00	 	 	 	 	 	 	 	 	 	 	 	 	 	 	 	 	 	 	1581548404	7.39	13.69
12/02/2020 23:00:06	120220	12022020	230005	236.17	12.203187	-57.108037	236.26	-0.700	2.660	1.430	236.22	1.20	1.80	 	 	 	 	 	 	 	 	 	 	 	 	 	 	 	 	 	 	1581548405	7.49	13.87
12/02/2020 23:00:07	120220	12022020	230006	236.54	12.203168	-57.108067	236.57	-0.190	2.160	1.000	236.60	0.50	1.30	 	 	 	 	 	 	 	 	 	 	 	 	 	 	 	 	 	 	1581548406	7.64	14.15
12/02/2020 23:00:08	120220	12022020	230007	236.73	12.203147	-57.108097	236.75	0.450	0.900	0.510	236.76	-0.90	0.80	 	 	 	 	 	 	 	 	 	 	 	 	 	 	 	 	 	 	1581548407	7.81	14.46
12/02/2020 23:00:09	120220	12022020	230008	236.77	12.203127	-57.108128	236.72	1.050	-0.700	0.220	236.75	-2.40	0.60	 	 	 	 	 	 	 	 	 	 	 	 	 	 	 	 	 	 	1581548408	7.85	14.54
12/02/2020 23:00:10	120220	12022020	230009	236.68	12.203107	-57.108157	236.65	1.320	-1.880	0.170	236.67	-3.40	0.60	 	 	 	 	 	 	 	 	 	 	 	 	 	 	 	 	 	 	1581548409	7.43	13.76
12/02/2020 23:00:11	120220	12022020	230010	236.66	12.203092	-57.108185	236.62	1.150	-2.230	0.250	236.66	-3.60	0.70	 	 	 	 	 	 	 	 	 	 	 	 	 	 	 	 	 	 	1581548410	6.74	12.48
12/02/2020 23:00:12	120220	12022020	230011	236.66	12.203077	-57.108212	236.61	0.670	-2.080	0.470	236.65	-3.40	1.00	 	 	 	 	 	 	 	 	 	 	 	 	 	 	 	 	 	 	1581548411	6.50	12.04
12/02/2020 23:00:13	120220	12022020	230012	236.59	12.203063	-57.108242	236.55	0.170	-1.760	0.890	236.58	-3.10	1.40	 	 	 	 	 	 	 	 	 	 	 	 	 	 	 	 	 	 	1581548412	6.89	12.76
12/02/2020 23:00:14	120220	12022020	230013	236.54	12.203048	-57.108272	236.50	-0.220	-1.270	1.360	236.53	-2.50	1.90	 	 	 	 	 	 	 	 	 	 	 	 	 	 	 	 	 	 	1581548413	7.32	13.56
12/02/2020 23:00:15	120220	12022020	230014	236.60	12.203033	-57.108303	236.59	-0.530	-0.520	1.690	236.63	-1.70	2.10	 	 	 	 	 	 	 	 	 	 	 	 	 	 	 	 	 	 	1581548414	7.46	13.82
12/02/2020 23:00:16	120220	12022020	230015	236.77	12.203017	-57.108335	236.76	-0.760	0.300	1.780	236.81	-0.90	2.20	 	 	 	 	 	 	 	 	 	 	 	 	 	 	 	 	 	 	1581548415	7.43	13.76
12/02/2020 23:00:17	120220	12022020	230016	236.84	12.202998	-57.108367	236.80	-0.880	0.850	1.640	236.83	-0.50	2.00	 	 	 	 	 	 	 	 	 	 	 	 	 	 	 	 	 	 	1581548416	7.63	14.13
12/02/2020 23:00:18	120220	12022020	230017	236.68	12.202978	-57.108397	236.62	-0.790	1.010	1.400	236.63	-0.40	1.70	 	 	 	 	 	 	 	 	 	 	 	 	 	 	 	 	 	 	1581548417	7.88	14.59
12/02/2020 23:00:19	120220	12022020	230018	236.44	12.202958	-57.108428	236.37	-0.500	1.040	0.980	236.41	-0.40	1.30	 	 	 	 	 	 	 	 	 	 	 	 	 	 	 	 	 	 	1581548418	7.78	14.41
12/02/2020 23:00:20	120220	12022020	230019	236.34	12.202938	-57.108457	236.27	-0.110	1.020	0.440	236.33	-0.40	0.70	 	 	 	 	 	 	 	 	 	 	 	 	 	 	 	 	 	 	1581548419	7.37	13.65
12/02/2020 23:00:21	120220	12022020	230020	236.45	12.202920	-57.108485	236.42	0.260	0.770	-0.050	236.51	-0.70	0.30	 	 	 	 	 	 	 	 	 	 	 	 	 	 	 	 	 	 	1581548420	7.08	13.11
12/02/2020 23:00:22	120220	12022020	230021	236.84	12.202903	-57.108512	236.81	0.570	0.190	-0.340	236.93	-1.40	0.00	 	 	 	 	 	 	 	 	 	 	 	 	 	 	 	 	 	 	1581548421	7.05	13.06
12/02/2020 23:00:23	120220	12022020	230022	237.41	12.202887	-57.108542	237.40	0.800	-0.620	-0.430	237.53	-2.20	-0.00	 	 	 	 	 	 	 	 	 	 	 	 	 	 	 	 	 	 	1581548422	7.12	13.19
12/02/2020 23:00:24	120220	12022020	230023	237.94	12.202870	-57.108570	237.91	0.910	-1.440	-0.340	238.00	-3.00	0.10	 	 	 	 	 	 	 	 	 	 	 	 	 	 	 	 	 	 	1581548423	7.21	13.35
12/02/2020 23:00:25	120220	12022020	230024	238.00	12.202853	-57.108602	237.92	0.870	-2.070	0.220	237.94	-3.50	0.80	 	 	 	 	 	 	 	 	 	 	 	 	 	 	 	 	 	 	1581548424	7.33	13.58
12/02/2020 23:00:26	120220	12022020	230025	237.48	12.202838	-57.108633	237.37	0.600	-2.230	1.300	237.33	-3.50	2.00	 	 	 	 	 	 	 	 	 	 	 	 	 	 	 	 	 	 	1581548425	7.45	13.80
12/02/2020 23:00:27	120220	12022020	230026	236.72	12.202825	-57.108665	236.63	0.080	-1.720	2.370	236.59	-2.90	2.90	 	 	 	 	 	 	 	 	 	 	 	 	 	 	 	 	 	 	1581548426	7.43	13.76
12/02/2020 23:00:28	120220	12022020	230027	236.18	12.202813	-57.108698	236.12	-0.510	-0.700	2.860	236.12	-1.80	3.30	 	 	 	 	 	 	 	 	 	 	 	 	 	 	 	 	 	 	1581548427	7.29	13.50
12/02/2020 23:00:29	120220	12022020	230028	236.05	12.202798	-57.108728	236.06	-0.900	0.430	2.700	236.09	-0.70	3.00	 	 	 	 	 	 	 	 	 	 	 	 	 	 	 	 	 	 	1581548428	7.16	13.26
12/02/2020 23:00:30	120220	12022020	230029	236.38	12.202782	-57.108758	236.42	-0.940	1.280	2.030	236.49	0.00	2.20	 	 	 	 	 	 	 	 	 	 	 	 	 	 	 	 	 	 	1581548429	7.23	13.39
12/02/2020 23:00:31	120220	12022020	230030	236.99	12.202763	-57.108787	237.02	-0.710	1.570	1.160	237.12	0.10	1.40	 	 	 	 	 	 	 	 	 	 	 	 	 	 	 	 	 	 	1581548430	7.43	13.76
12/02/2020 23:00:32	120220	12022020	230031	237.48	12.202743	-57.108817	237.57	-0.320	1.260	0.380	237.58	-0.30	0.60	 	 	 	 	 	 	 	 	 	 	 	 	 	 	 	 	 	 	1581548431	7.66	14.19
12/02/2020 23:00:33	120220	12022020	230032	238.00	12.202723	-57.108847	237.94	0.120	0.560	-0.250	238.06	-1.00	0.10	 	 	 	 	 	 	 	 	 	 	 	 	 	 	 	 	 	 	1581548432	7.71	14.28
12/02/2020 23:00:34	120220	12022020	230033	238.23	12.202703	-57.108877	238.16	0.530	-0.230	-0.580	238.26	-1.80	-0.20	 	 	 	 	 	 	 	 	 	 	 	 	 	 	 	 	 	 	1581548433	7.51	13.91
12/02/2020 23:00:35	120220	12022020	230034	238.23	12.202685	-57.108907	238.13	0.750	-0.990	-0.400	238.20	-2.50	0.10	 	 	 	 	 	 	 	 	 	 	 	 	 	 	 	 	 	 	1581548434	7.35	13.61
12/02/2020 23:00:36	120220	12022020	230035	237.97	12.202670	-57.108937	237.85	0.720	-1.530	0.260	237.88	-3.00	0.90	 	 	 	 	 	 	 	 	 	 	 	 	 	 	 	 	 	 	1581548435	7.32	13.56
12/02/2020 23:00:37	120220	12022020	230036	237.58	12.202657	-57.108968	237.48	0.510	-1.580	1.050	237.51	-2.90	1.60	 	 	 	 	 	 	 	 	 	 	 	 	 	 	 	 	 	 	1581548436	7.21	13.35
12/02/2020 23:00:38	120220	12022020	230037	237.39	12.202643	-57.108998	237.33	0.240	-1.130	1.540	237.38	-2.40	2.00	 	 	 	 	 	 	 	 	 	 	 	 	 	 	 	 	 	 	1581548437	6.94	12.85
12/02/2020 23:00:39	120220	12022020	230038	237.33	12.202628	-57.109028	237.29	-0.070	-0.620	1.800	237.31	-1.90	2.20	 	 	 	 	 	 	 	 	 	 	 	 	 	 	 	 	 	 	1581548438	7.00	12.96
12/02/2020 23:00:40	120220	12022020	230039	237.26	12.202613	-57.109060	237.24	-0.390	-0.280	1.800	237.25	-1.60	2.10	 	 	 	 	 	 	 	 	 	 	 	 	 	 	 	 	 	 	1581548439	7.38	13.67
12/02/2020 23:00:41	120220	12022020	230040	237.24	12.202597	-57.109092	237.23	-0.610	0.010	1.540	237.25	-1.30	1.80	 	 	 	 	 	 	 	 	 	 	 	 	 	 	 	 	 	 	1581548440	7.58	14.04
12/02/2020 23:00:42	120220	12022020	230041	237.42	12.202580	-57.109122	237.43	-0.590	0.550	1.010	237.50	-0.70	1.20	 	 	 	 	 	 	 	 	 	 	 	 	 	 	 	 	 	 	1581548441	7.30	13.52
12/02/2020 23:00:43	120220	12022020	230042	237.94	12.202563	-57.109148	237.94	-0.340	1.140	0.220	238.05	-0.20	0.50	 	 	 	 	 	 	 	 	 	 	 	 	 	 	 	 	 	 	1581548442	6.85	12.69
12/02/2020 23:00:44	120220	12022020	230043	238.33	12.202543	-57.109175	238.34	0.060	1.010	-0.280	238.39	-0.60	0.10	 	 	 	 	 	 	 	 	 	 	 	 	 	 	 	 	 	 	1581548443	7.12	13.19
12/02/2020 23:00:45	120220	12022020	230044	238.38	12.202525	-57.109207	238.29	0.480	0.040	-0.050	238.32	-1.60	0.50	 	 	 	 	 	 	 	 	 	 	 	 	 	 	 	 	 	 	1581548444	7.81	14.46
12/02/2020 23:00:46	120220	12022020	230045	237.88	12.202508	-57.109242	237.75	0.700	-1.000	0.750	237.75	-2.50	1.40	 	 	 	 	 	 	 	 	 	 	 	 	 	 	 	 	 	 	1581548445	8.08	14.96
12/02/2020 23:00:47	120220	12022020	230046	237.15	12.202497	-57.109275	237.05	0.620	-1.260	1.710	237.02	-2.60	2.30	 	 	 	 	 	 	 	 	 	 	 	 	 	 	 	 	 	 	1581548446	7.53	13.95
12/02/2020 23:00:48	120220	12022020	230047	236.59	12.202485	-57.109305	236.54	0.290	-0.840	2.210	236.53	-2.10	2.60	 	 	 	 	 	 	 	 	 	 	 	 	 	 	 	 	 	 	1581548447	6.83	12.65
12/02/2020 23:00:49	120220	12022020	230048	236.47	12.202472	-57.109333	236.46	-0.090	-0.430	1.880	236.50	-1.80	2.10	 	 	 	 	 	 	 	 	 	 	 	 	 	 	 	 	 	 	1581548448	6.66	12.33
12/02/2020 23:00:50	120220	12022020	230049	236.78	12.202455	-57.109362	236.80	-0.280	-0.440	0.930	236.88	-1.90	1.10	 	 	 	 	 	 	 	 	 	 	 	 	 	 	 	 	 	 	1581548449	7.09	13.13
12/02/2020 23:00:51	120220	12022020	230050	237.35	12.202435	-57.109392	237.36	-0.230	-0.690	-0.100	237.48	-2.10	0.10	 	 	 	 	 	 	 	 	 	 	 	 	 	 	 	 	 	 	1581548450	7.55	13.98
12/02/2020 23:00:52	120220	12022020	230051	237.92	12.202413	-57.109420	237.90	-0.130	-0.800	-0.640	238.00	-2.20	-0.30	 	 	 	 	 	 	 	 	 	 	 	 	 	 	 	 	 	 	1581548451	7.66	14.19
12/02/2020 23:00:53	120220	12022020	230052	238.19	12.202397	-57.109450	238.12	-0.130	-0.530	-0.500	238.19	-1.80	0.00	 	 	 	 	 	 	 	 	 	 	 	 	 	 	 	 	 	 	1581548452	7.39	13.69
12/02/2020 23:00:54	120220	12022020	230053	238.09	12.202382	-57.109480	237.92	-0.220	0.100	0.260	238.02	-1.10	0.90	 	 	 	 	 	 	 	 	 	 	 	 	 	 	 	 	 	 	1581548453	7.09	13.13
12/02/2020 23:00:55	120220	12022020	230054	237.56	12.202368	-57.109510	237.46	-0.280	0.870	1.270	237.45	-0.40	1.90	 	 	 	 	 	 	 	 	 	 	 	 	 	 	 	 	 	 	1581548454	6.86	12.70
12/02/2020 23:00:56	120220	12022020	230055	237.11	12.202357	-57.109540	236.92	-0.220	1.230	1.970	237.02	-0.20	2.40	 	 	 	 	 	 	 	 	 	 	 	 	 	 	 	 	 	 	1581548455	6.95	12.87
12/02/2020 23:00:57	120220	12022020	230056	236.62	12.202340	-57.109572	236.56	0.020	0.730	2.020	236.56	-0.90	2.40	 	 	 	 	 	 	 	 	 	 	 	 	 	 	 	 	 	 	1581548456	7.40	13.70
12/02/2020 23:00:58	120220	12022020	230057	236.41	12.202322	-57.109603	236.37	0.320	-0.410	1.670	236.41	-2.10	2.00	 	 	 	 	 	 	 	 	 	 	 	 	 	 	 	 	 	 	1581548457	7.91	14.65
12/02/2020 23:00:59	120220	12022020	230058	236.30	12.202302	-57.109635	236.24	0.470	-1.570	1.270	236.28	-3.20	1.60	 	 	 	 	 	 	 	 	 	 	 	 	 	 	 	 	 	 	1581548458	7.97	14.76
12/02/2020 23:01:00	120220	12022020	230059	236.17	12.202285	-57.109667	236.11	0.350	-2.120	1.100	236.14	-3.50	1.50	 	 	 	 	 	 	 	 	 	 	 	 	 	 	 	 	 	 	1581548459	7.64	14.15
12/02/2020 23:01:01	120220	12022020	230100	236.01	12.202270	-57.109698	235.95	0.020	-1.780	1.180	235.99	-2.90	1.60	 	 	 	 	 	 	 	 	 	 	 	 	 	 	 	 	 	 	1581548460	7.14	13.22
12/02/2020 23:01:02	120220	12022020	230101	235.99	12.202258	-57.109727	235.96	-0.330	-0.570	1.250	236.02	-1.60	1.60	1015.30	28.40	33.10	21.40	22.60	-2.0	66.0	54.0	390.0	26.0	192.00	6.10	64.00	9.80	17	11164.0	27.5	27.4	1581548461	6.59	12.20
12/02/2020 23:01:03	120220	12022020	230102	236.20	12.202245	-57.109753	236.20	-0.520	0.940	1.180	236.26	-0.20	1.50	 	 	 	 	 	 	 	 	 	 	 	 	 	 	 	 	 	 	1581548462	6.15	11.39
12/02/2020 23:01:04	120220	12022020	230103	236.50	12.202230	-57.109778	236.49	-0.390	1.760	0.940	236.56	0.40	1.30	 	 	 	 	 	 	 	 	 	 	 	 	 	 	 	 	 	 	1581548463	6.43	11.91
12/02/2020 23:01:05	120220	12022020	230104	236.77	12.202210	-57.109807	236.75	0.060	1.340	0.570	236.81	-0.30	0.90	 	 	 	 	 	 	 	 	 	 	 	 	 	 	 	 	 	 	1581548464	7.37	13.65
12/02/2020 23:01:06	120220	12022020	230105	236.86	12.202187	-57.109838	236.79	0.570	0.020	0.270	236.84	-1.70	0.70	 	 	 	 	 	 	 	 	 	 	 	 	 	 	 	 	 	 	1581548465	8.18	15.15
12/02/2020 23:01:07	120220	12022020	230106	236.66	12.202165	-57.109870	236.55	0.780	-1.410	0.360	236.58	-3.10	0.90	 	 	 	 	 	 	 	 	 	 	 	 	 	 	 	 	 	 	1581548466	8.32	15.41
12/02/2020 23:01:08	120220	12022020	230107	236.32	12.202147	-57.109903	236.12	0.500	-2.180	0.920	236.22	-3.60	1.50	 	 	 	 	 	 	 	 	 	 	 	 	 	 	 	 	 	 	1581548467	7.90	14.63
12/02/2020 23:01:09	120220	12022020	230108	235.80	12.202135	-57.109935	235.73	-0.140	-1.930	1.710	235.74	-3.10	2.30	 	 	 	 	 	 	 	 	 	 	 	 	 	 	 	 	 	 	1581548468	7.34	13.59
12/02/2020 23:01:10	120220	12022020	230109	235.57	12.202125	-57.109965	235.53	-0.780	-0.800	2.370	235.54	-1.90	2.90	 	 	 	 	 	 	 	 	 	 	 	 	 	 	 	 	 	 	1581548469	6.78	12.56
12/02/2020 23:01:11	120220	12022020	230110	235.48	12.202115	-57.109995	235.48	-1.030	0.420	2.600	235.48	-0.80	3.00	 	 	 	 	 	 	 	 	 	 	 	 	 	 	 	 	 	 	1581548470	6.61	12.24
12/02/2020 23:01:12	120220	12022020	230111	235.56	12.202100	-57.110023	235.59	-0.760	1.100	2.220	235.60	-0.30	2.40	 	 	 	 	 	 	 	 	 	 	 	 	 	 	 	 	 	 	1581548471	6.90	12.78
12/02/2020 23:01:13	120220	12022020	230112	235.82	12.202080	-57.110052	235.84	-0.180	1.080	1.380	235.87	-0.40	1.60	 	 	 	 	 	 	 	 	 	 	 	 	 	 	 	 	 	 	1581548472	7.38	13.67
12/02/2020 23:01:14	120220	12022020	230113	236.05	12.202057	-57.110080	236.04	0.370	0.500	0.510	236.08	-1.10	0.80	 	 	 	 	 	 	 	 	 	 	 	 	 	 	 	 	 	 	1581548473	7.77	14.39
12/02/2020 23:01:15	120220	12022020	230114	236.20	12.202035	-57.110110	236.18	0.630	-0.270	-0.010	236.22	-1.80	0.40	 	 	 	 	 	 	 	 	 	 	 	 	 	 	 	 	 	 	1581548474	7.83	14.50
12/02/2020 23:01:16	120220	12022020	230115	236.35	12.202015	-57.110138	236.33	0.560	-0.800	-0.090	236.39	-2.30	0.30	 	 	 	 	 	 	 	 	 	 	 	 	 	 	 	 	 	 	1581548475	7.49	13.87
12/02/2020 23:01:17	120220	12022020	230116	236.54	12.201998	-57.110168	236.52	0.320	-1.000	0.140	236.58	-2.40	0.60	 	 	 	 	 	 	 	 	 	 	 	 	 	 	 	 	 	 	1581548476	7.14	13.22
12/02/2020 23:01:18	120220	12022020	230117	236.71	12.201985	-57.110198	236.67	0.070	-1.080	0.560	236.72	-2.50	1.10	 	 	 	 	 	 	 	 	 	 	 	 	 	 	 	 	 	 	1581548477	7.15	13.24
12/02/2020 23:01:19	120220	12022020	230118	236.65	12.201970	-57.110232	236.58	-0.140	-1.190	1.150	236.60	-2.60	1.70	 	 	 	 	 	 	 	 	 	 	 	 	 	 	 	 	 	 	1581548478	7.46	13.82
12/02/2020 23:01:20	120220	12022020	230119	236.34	12.201957	-57.110263	236.28	-0.350	-1.040	1.690	236.34	-2.30	2.20	 	 	 	 	 	 	 	 	 	 	 	 	 	 	 	 	 	 	1581548479	7.62	14.11
12/02/2020 23:01:21	120220	12022020	230120	236.10	12.201942	-57.110295	236.06	-0.570	-0.330	1.860	236.08	-1.50	2.20	 	 	 	 	 	 	 	 	 	 	 	 	 	 	 	 	 	 	1581548480	7.24	13.41
12/02/2020 23:01:22	120220	12022020	230121	236.06	12.201925	-57.110322	236.04	-0.650	0.630	1.640	236.06	-0.60	1.90	 	 	 	 	 	 	 	 	 	 	 	 	 	 	 	 	 	 	1581548481	6.77	12.54
12/02/2020 23:01:23	120220	12022020	230122	236.19	12.201907	-57.110350	236.17	-0.410	1.150	1.180	236.22	-0.30	1.50	 	 	 	 	 	 	 	 	 	 	 	 	 	 	 	 	 	 	1581548482	6.92	12.82
12/02/2020 23:01:24	120220	12022020	230123	236.31	12.201887	-57.110378	236.27	0.060	0.860	0.840	236.32	-0.70	1.20	 	 	 	 	 	 	 	 	 	 	 	 	 	 	 	 	 	 	1581548483	7.53	13.95
12/02/2020 23:01:25	120220	12022020	230124	236.34	12.201867	-57.110410	236.29	0.470	0.080	0.830	236.34	-1.50	1.30	 	 	 	 	 	 	 	 	 	 	 	 	 	 	 	 	 	 	1581548484	7.91	14.65
12/02/2020 23:01:26	120220	12022020	230125	236.36	12.201850	-57.110442	236.31	0.600	-0.620	1.000	236.36	-2.10	1.40	 	 	 	 	 	 	 	 	 	 	 	 	 	 	 	 	 	 	1581548485	7.79	14.43
12/02/2020 23:01:27	120220	12022020	230126	236.39	12.201837	-57.110473	236.36	0.510	-0.860	1.120	236.41	-2.20	1.50	 	 	 	 	 	 	 	 	 	 	 	 	 	 	 	 	 	 	1581548486	7.31	13.54
12/02/2020 23:01:28	120220	12022020	230127	236.43	12.201822	-57.110503	236.39	0.380	-0.700	1.070	236.44	-2.00	1.40	 	 	 	 	 	 	 	 	 	 	 	 	 	 	 	 	 	 	1581548487	6.85	12.69
12/02/2020 23:01:29	120220	12022020	230128	236.44	12.201805	-57.110530	236.40	0.270	-0.490	0.880	236.44	-1.90	1.20	 	 	 	 	 	 	 	 	 	 	 	 	 	 	 	 	 	 	1581548488	6.83	12.65
12/02/2020 23:01:30	120220	12022020	230129	236.42	12.201788	-57.110558	236.38	0.130	-0.440	0.690	236.40	-1.90	1.10	 	 	 	 	 	 	 	 	 	 	 	 	 	 	 	 	 	 	1581548489	7.09	13.13
12/02/2020 23:01:31	120220	12022020	230130	236.36	12.201770	-57.110588	236.31	-0.110	-0.540	0.630	236.34	-2.00	1.00	 	 	 	 	 	 	 	 	 	 	 	 	 	 	 	 	 	 	1581548490	7.40	13.70
12/02/2020 23:01:32	120220	12022020	230131	236.34	12.201752	-57.110618	236.31	-0.390	-0.580	0.660	236.35	-2.00	1.10	 	 	 	 	 	 	 	 	 	 	 	 	 	 	 	 	 	 	1581548491	7.50	13.89
12/02/2020 23:01:33	120220	12022020	230132	236.36	12.201735	-57.110650	236.32	-0.600	-0.490	0.830	236.35	-1.90	1.30	 	 	 	 	 	 	 	 	 	 	 	 	 	 	 	 	 	 	1581548492	7.41	13.72
12/02/2020 23:01:34	120220	12022020	230133	236.30	12.201720	-57.110682	236.23	-0.590	-0.480	1.160	236.28	-1.90	1.60	 	 	 	 	 	 	 	 	 	 	 	 	 	 	 	 	 	 	1581548493	7.53	13.95
12/02/2020 23:01:35	120220	12022020	230134	236.09	12.201703	-57.110713	236.03	-0.370	-0.550	1.440	236.04	-1.90	1.90	 	 	 	 	 	 	 	 	 	 	 	 	 	 	 	 	 	 	1581548494	7.75	14.35
12/02/2020 23:01:36	120220	12022020	230135	235.90	12.201685	-57.110745	235.87	-0.100	-0.430	1.420	235.88	-1.70	1.80	 	 	 	 	 	 	 	 	 	 	 	 	 	 	 	 	 	 	1581548495	7.68	14.22
12/02/2020 23:01:37	120220	12022020	230136	235.87	12.201667	-57.110775	235.86	0.060	0.080	1.070	235.88	-1.20	1.40	 	 	 	 	 	 	 	 	 	 	 	 	 	 	 	 	 	 	1581548496	7.26	13.45
12/02/2020 23:01:38	120220	12022020	230137	235.94	12.201648	-57.110802	235.95	0.080	0.770	0.660	235.95	-0.50	1.00	 	 	 	 	 	 	 	 	 	 	 	 	 	 	 	 	 	 	1581548497	6.88	12.74
12/02/2020 23:01:39	120220	12022020	230138	236.05	12.201632	-57.110828	236.03	0.030	1.130	0.470	236.06	-0.30	0.90	 	 	 	 	 	 	 	 	 	 	 	 	 	 	 	 	 	 	1581548498	6.86	12.70
12/02/2020 23:01:40	120220	12022020	230139	236.03	12.201615	-57.110858	235.98	0.070	0.870	0.610	236.01	-0.70	1.10	 	 	 	 	 	 	 	 	 	 	 	 	 	 	 	 	 	 	1581548499	7.22	13.37
12/02/2020 23:01:41	120220	12022020	230140	235.92	12.201598	-57.110890	235.88	0.260	0.130	0.900	235.91	-1.50	1.40	 	 	 	 	 	 	 	 	 	 	 	 	 	 	 	 	 	 	1581548500	7.57	14.02
12/02/2020 23:01:42	120220	12022020	230141	235.82	12.201582	-57.110922	235.78	0.490	-0.750	1.190	235.80	-2.30	1.60	 	 	 	 	 	 	 	 	 	 	 	 	 	 	 	 	 	 	1581548501	7.65	14.17
12/02/2020 23:01:43	120220	12022020	230142	235.69	12.201565	-57.110953	235.66	0.550	-1.510	1.390	235.67	-3.00	1.80	 	 	 	 	 	 	 	 	 	 	 	 	 	 	 	 	 	 	1581548502	7.59	14.06
12/02/2020 23:01:44	120220	12022020	230143	235.59	12.201547	-57.110983	235.53	0.350	-1.900	1.400	235.57	-3.30	1.80	 	 	 	 	 	 	 	 	 	 	 	 	 	 	 	 	 	 	1581548503	7.40	13.70
12/02/2020 23:01:45	120220	12022020	230144	235.44	12.201530	-57.111013	235.39	-0.040	-1.960	1.310	235.41	-3.30	1.70	 	 	 	 	 	 	 	 	 	 	 	 	 	 	 	 	 	 	1581548504	7.35	13.61
12/02/2020 23:01:46	120220	12022020	230145	235.30	12.201512	-57.111043	235.20	-0.340	-1.670	1.260	235.26	-2.90	1.70	 	 	 	 	 	 	 	 	 	 	 	 	 	 	 	 	 	 	1581548505	7.52	13.93
12/02/2020 23:01:47	120220	12022020	230146	235.12	12.201493	-57.111073	235.08	-0.500	-0.810	1.240	235.10	-1.90	1.60	 	 	 	 	 	 	 	 	 	 	 	 	 	 	 	 	 	 	1581548506	7.41	13.72
12/02/2020 23:01:48	120220	12022020	230147	235.07	12.201478	-57.111102	235.03	-0.610	0.590	1.300	235.06	-0.50	1.70	 	 	 	 	 	 	 	 	 	 	 	 	 	 	 	 	 	 	1581548507	7.00	12.96
12/02/2020 23:01:49	120220	12022020	230148	235.08	12.201463	-57.111130	235.08	-0.660	1.880	1.420	235.09	0.60	1.80	 	 	 	 	 	 	 	 	 	 	 	 	 	 	 	 	 	 	1581548508	6.79	12.58
12/02/2020 23:01:50	120220	12022020	230149	235.19	12.201447	-57.111160	235.20	-0.450	2.170	1.440	235.22	0.70	1.80	 	 	 	 	 	 	 	 	 	 	 	 	 	 	 	 	 	 	1581548509	7.24	13.41
12/02/2020 23:01:51	120220	12022020	230150	235.38	12.201428	-57.111193	235.40	0.090	1.320	1.240	235.42	-0.40	1.60	 	 	 	 	 	 	 	 	 	 	 	 	 	 	 	 	 	 	1581548510	7.97	14.76
12/02/2020 23:01:52	120220	12022020	230151	235.54	12.201407	-57.111225	235.54	0.670	-0.110	0.970	235.55	-1.80	1.30	 	 	 	 	 	 	 	 	 	 	 	 	 	 	 	 	 	 	1581548511	8.33	15.43
12/02/2020 23:01:53	120220	12022020	230152	235.56	12.201385	-57.111257	235.55	0.880	-1.270	0.830	235.56	-2.80	1.20	 	 	 	 	 	 	 	 	 	 	 	 	 	 	 	 	 	 	1581548512	7.98	14.78
12/02/2020 23:01:54	120220	12022020	230153	235.49	12.201368	-57.111287	235.47	0.620	-1.690	0.830	235.47	-3.10	1.20	 	 	 	 	 	 	 	 	 	 	 	 	 	 	 	 	 	 	1581548513	7.22	13.37
12/02/2020 23:01:55	120220	12022020	230154	235.36	12.201352	-57.111313	235.32	0.210	-1.490	0.930	235.33	-2.80	1.40	 	 	 	 	 	 	 	 	 	 	 	 	 	 	 	 	 	 	1581548514	6.74	12.48
12/02/2020 23:01:56	120220	12022020	230155	235.22	12.201335	-57.111340	235.20	-0.040	-1.050	1.040	235.20	-2.30	1.50	 	 	 	 	 	 	 	 	 	 	 	 	 	 	 	 	 	 	1581548515	6.72	12.45
12/02/2020 23:01:57	120220	12022020	230156	235.15	12.201318	-57.111368	235.14	-0.140	-0.680	1.090	235.15	-2.00	1.50	 	 	 	 	 	 	 	 	 	 	 	 	 	 	 	 	 	 	1581548516	7.08	13.11
12/02/2020 23:01:58	120220	12022020	230157	235.16	12.201300	-57.111398	235.15	-0.260	-0.450	1.160	235.17	-1.80	1.60	 	 	 	 	 	 	 	 	 	 	 	 	 	 	 	 	 	 	1581548517	7.46	13.82
12/02/2020 23:01:59	120220	12022020	230158	235.25	12.201282	-57.111430	235.25	-0.490	-0.180	1.240	235.28	-1.50	1.70	 	 	 	 	 	 	 	 	 	 	 	 	 	 	 	 	 	 	1581548518	7.60	14.08
12/02/2020 23:02:00	120220	12022020	230159	235.38	12.201265	-57.111462	235.38	-0.680	0.120	1.440	235.38	-1.20	1.90	 	 	 	 	 	 	 	 	 	 	 	 	 	 	 	 	 	 	1581548519	7.55	13.98
12/02/2020 23:02:01	120220	12022020	230200	235.37	12.201250	-57.111493	235.34	-0.630	0.300	1.720	235.35	-1.10	2.20	 	 	 	 	 	 	 	 	 	 	 	 	 	 	 	 	 	 	1581548520	7.61	14.09
12/02/2020 23:02:02	120220	12022020	230201	235.21	12.201233	-57.111525	235.19	-0.300	0.320	1.920	235.18	-1.10	2.30	1015.30	28.40	34.70	21.20	22.70	-2.0	65.0	50.0	390.0	26.0	190.00	6.40	62.00	10.20	17	11391.0	27.4	27.4	1581548521	7.65	14.17
12/02/2020 23:02:03	120220	12022020	230202	235.05	12.201215	-57.111557	235.04	0.150	0.210	1.810	235.02	-1.20	2.10	 	 	 	 	 	 	 	 	 	 	 	 	 	 	 	 	 	 	1581548522	7.62	14.11
12/02/2020 23:02:04	120220	12022020	230203	234.94	12.201195	-57.111587	234.94	0.510	-0.030	1.390	234.93	-1.50	1.70	 	 	 	 	 	 	 	 	 	 	 	 	 	 	 	 	 	 	1581548523	7.62	14.11
12/02/2020 23:02:05	120220	12022020	230204	234.99	12.201173	-57.111615	234.99	0.580	-0.260	0.710	235.03	-1.70	0.90	 	 	 	 	 	 	 	 	 	 	 	 	 	 	 	 	 	 	1581548524	7.56	14.00
12/02/2020 23:02:06	120220	12022020	230205	235.22	12.201152	-57.111642	235.22	0.360	-0.250	-0.010	235.28	-1.60	0.30	 	 	 	 	 	 	 	 	 	 	 	 	 	 	 	 	 	 	1581548525	7.22	13.37
12/02/2020 23:02:07	120220	12022020	230206	235.51	12.201133	-57.111668	235.50	0.040	-0.110	-0.460	235.57	-1.50	-0.10	 	 	 	 	 	 	 	 	 	 	 	 	 	 	 	 	 	 	1581548526	6.96	12.89
12/02/2020 23:02:08	120220	12022020	230207	235.80	12.201115	-57.111695	235.78	-0.130	-0.050	-0.450	235.86	-1.50	0.00	 	 	 	 	 	 	 	 	 	 	 	 	 	 	 	 	 	 	1581548527	7.00	12.96
12/02/2020 23:02:09	120220	12022020	230208	236.06	12.201100	-57.111725	236.04	-0.090	-0.140	-0.050	236.10	-1.60	0.50	 	 	 	 	 	 	 	 	 	 	 	 	 	 	 	 	 	 	1581548528	7.15	13.24
12/02/2020 23:02:10	120220	12022020	230209	236.18	12.201083	-57.111757	236.16	0.110	-0.410	0.580	236.19	-1.90	1.10	 	 	 	 	 	 	 	 	 	 	 	 	 	 	 	 	 	 	1581548529	7.31	13.54
12/02/2020 23:02:11	120220	12022020	230210	236.06	12.201067	-57.111788	236.02	0.300	-0.880	1.270	236.01	-2.40	1.80	 	 	 	 	 	 	 	 	 	 	 	 	 	 	 	 	 	 	1581548530	7.56	14.00
12/02/2020 23:02:12	120220	12022020	230211	235.68	12.201050	-57.111820	235.62	0.300	-1.410	1.980	235.68	-2.90	2.50	 	 	 	 	 	 	 	 	 	 	 	 	 	 	 	 	 	 	1581548531	7.85	14.54
12/02/2020 23:02:13	120220	12022020	230212	235.00	12.201033	-57.111855	234.96	0.050	-1.690	2.680	234.88	-3.00	3.20	 	 	 	 	 	 	 	 	 	 	 	 	 	 	 	 	 	 	1581548532	8.06	14.93
12/02/2020 23:02:14	120220	12022020	230213	234.44	12.201020	-57.111888	234.45	-0.360	-1.280	3.050	234.38	-2.40	3.40	 	 	 	 	 	 	 	 	 	 	 	 	 	 	 	 	 	 	1581548533	7.86	14.56
12/02/2020 23:02:15	120220	12022020	230214	234.38	12.201005	-57.111920	234.44	-0.710	-0.190	2.770	234.44	-1.30	3.00	 	 	 	 	 	 	 	 	 	 	 	 	 	 	 	 	 	 	1581548534	7.18	13.30
12/02/2020 23:02:16	120220	12022020	230215	234.81	12.200988	-57.111947	234.89	-0.770	0.880	1.830	234.93	-0.40	2.00	 	 	 	 	 	 	 	 	 	 	 	 	 	 	 	 	 	 	1581548535	6.90	12.78
12/02/2020 23:02:17	120220	12022020	230216	235.46	12.200968	-57.111975	235.54	-0.450	1.320	0.580	235.60	-0.10	0.70	 	 	 	 	 	 	 	 	 	 	 	 	 	 	 	 	 	 	1581548536	7.32	13.56
12/02/2020 23:02:18	120220	12022020	230217	236.19	12.200943	-57.112002	236.23	0.050	1.110	-0.550	236.33	-0.40	-0.30	 	 	 	 	 	 	 	 	 	 	 	 	 	 	 	 	 	 	1581548537	7.83	14.50
12/02/2020 23:02:19	120220	12022020	230218	236.81	12.200918	-57.112030	236.81	0.380	0.550	-1.050	236.89	-1.00	-0.60	 	 	 	 	 	 	 	 	 	 	 	 	 	 	 	 	 	 	1581548538	7.90	14.63
12/02/2020 23:02:20	120220	12022020	230219	237.00	12.200898	-57.112060	236.94	0.400	-0.180	-0.730	236.97	-1.80	-0.10	 	 	 	 	 	 	 	 	 	 	 	 	 	 	 	 	 	 	1581548539	7.69	14.24
12/02/2020 23:02:21	120220	12022020	230220	236.68	12.200882	-57.112092	236.59	0.300	-0.840	0.270	236.58	-2.30	1.00	 	 	 	 	 	 	 	 	 	 	 	 	 	 	 	 	 	 	1581548540	7.59	14.06
12/02/2020 23:02:22	120220	12022020	230221	236.25	12.200868	-57.112123	236.06	0.290	-1.100	1.440	236.14	-2.50	2.10	 	 	 	 	 	 	 	 	 	 	 	 	 	 	 	 	 	 	1581548541	7.38	13.67
12/02/2020 23:02:23	120220	12022020	230222	235.61	12.200855	-57.112155	235.55	0.350	-1.030	2.340	235.51	-2.40	2.90	 	 	 	 	 	 	 	 	 	 	 	 	 	 	 	 	 	 	1581548542	7.15	13.24
12/02/2020 23:02:24	120220	12022020	230223	235.21	12.200840	-57.112185	235.08	0.320	-0.810	2.790	235.12	-2.10	3.20	 	 	 	 	 	 	 	 	 	 	 	 	 	 	 	 	 	 	1581548543	7.12	13.19
12/02/2020 23:02:25	120220	12022020	230224	234.78	12.200825	-57.112215	234.77	0.120	-0.590	2.750	234.74	-1.90	3.00	 	 	 	 	 	 	 	 	 	 	 	 	 	 	 	 	 	 	1581548544	7.22	13.37
12/02/2020 23:02:26	120220	12022020	230225	234.70	12.200808	-57.112245	234.72	-0.110	-0.450	2.250	234.72	-1.80	2.50	 	 	 	 	 	 	 	 	 	 	 	 	 	 	 	 	 	 	1581548545	7.37	13.65
12/02/2020 23:02:27	120220	12022020	230226	234.91	12.200790	-57.112275	234.94	-0.200	-0.420	1.430	234.97	-1.80	1.60	 	 	 	 	 	 	 	 	 	 	 	 	 	 	 	 	 	 	1581548546	7.52	13.93
12/02/2020 23:02:28	120220	12022020	230227	235.31	12.200770	-57.112305	235.33	-0.130	-0.400	0.500	235.40	-1.80	0.70	 	 	 	 	 	 	 	 	 	 	 	 	 	 	 	 	 	 	1581548547	7.60	14.08
12/02/2020 23:02:29	120220	12022020	230228	235.75	12.200750	-57.112335	235.77	-0.040	-0.280	-0.200	235.84	-1.60	0.10	 	 	 	 	 	 	 	 	 	 	 	 	 	 	 	 	 	 	1581548548	7.62	14.11
12/02/2020 23:02:30	120220	12022020	230229	236.20	12.200728	-57.112363	236.21	-0.060	0.090	-0.590	236.30	-1.20	-0.20	 	 	 	 	 	 	 	 	 	 	 	 	 	 	 	 	 	 	1581548549	7.42	13.74
12/02/2020 23:02:31	120220	12022020	230230	236.66	12.200708	-57.112390	236.65	-0.170	0.500	-0.640	236.73	-0.90	-0.20	 	 	 	 	 	 	 	 	 	 	 	 	 	 	 	 	 	 	1581548550	7.17	13.28
12/02/2020 23:02:32	120220	12022020	230231	236.89	12.200690	-57.112418	236.86	-0.240	0.560	-0.220	236.90	-0.90	0.30	 	 	 	 	 	 	 	 	 	 	 	 	 	 	 	 	 	 	1581548551	7.31	13.54
12/02/2020 23:02:33	120220	12022020	230232	236.77	12.200672	-57.112450	236.71	-0.200	0.230	0.500	236.71	-1.30	1.10	 	 	 	 	 	 	 	 	 	 	 	 	 	 	 	 	 	 	1581548552	7.58	14.04
12/02/2020 23:02:34	120220	12022020	230233	236.31	12.200655	-57.112482	236.23	-0.040	-0.310	1.390	236.18	-1.80	2.00	 	 	 	 	 	 	 	 	 	 	 	 	 	 	 	 	 	 	1581548553	7.75	14.35
12/02/2020 23:02:35	120220	12022020	230234	235.63	12.200640	-57.112515	235.56	0.180	-0.680	2.200	235.50	-2.10	2.70	 	 	 	 	 	 	 	 	 	 	 	 	 	 	 	 	 	 	1581548554	7.68	14.22
12/02/2020 23:02:36	120220	12022020	230235	235.19	12.200625	-57.112545	235.09	0.310	-0.630	2.530	235.11	-2.00	2.90	 	 	 	 	 	 	 	 	 	 	 	 	 	 	 	 	 	 	1581548555	7.24	13.41
12/02/2020 23:02:37	120220	12022020	230236	234.98	12.200610	-57.112573	234.99	0.310	-0.410	2.300	234.99	-1.80	2.60	 	 	 	 	 	 	 	 	 	 	 	 	 	 	 	 	 	 	1581548556	6.87	12.72
12/02/2020 23:02:38	120220	12022020	230237	235.12	12.200592	-57.112602	235.21	0.270	-0.460	1.710	235.18	-1.90	1.90	 	 	 	 	 	 	 	 	 	 	 	 	 	 	 	 	 	 	1581548557	7.05	13.06
12/02/2020 23:02:39	120220	12022020	230238	235.48	12.200572	-57.112632	235.51	0.260	-0.800	1.070	235.55	-2.30	1.30	 	 	 	 	 	 	 	 	 	 	 	 	 	 	 	 	 	 	1581548558	7.56	14.00
12/02/2020 23:02:40	120220	12022020	230239	235.88	12.200552	-57.112662	235.91	0.180	-0.990	0.420	235.97	-2.40	0.70	 	 	 	 	 	 	 	 	 	 	 	 	 	 	 	 	 	 	1581548559	7.72	14.30
12/02/2020 23:02:41	120220	12022020	230240	236.28	12.200532	-57.112690	236.30	-0.000	-0.770	-0.180	236.35	-2.10	0.10	 	 	 	 	 	 	 	 	 	 	 	 	 	 	 	 	 	 	1581548560	7.45	13.80
12/02/2020 23:02:42	120220	12022020	230241	236.53	12.200513	-57.112718	236.51	-0.220	-0.230	-0.450	236.55	-1.50	-0.00	 	 	 	 	 	 	 	 	 	 	 	 	 	 	 	 	 	 	1581548561	7.22	13.37
12/02/2020 23:02:43	120220	12022020	230242	236.59	12.200495	-57.112747	236.56	-0.440	0.310	-0.310	236.60	-1.00	0.20	 	 	 	 	 	 	 	 	 	 	 	 	 	 	 	 	 	 	1581548562	7.18	13.30
12/02/2020 23:02:44	120220	12022020	230243	236.60	12.200478	-57.112777	236.56	-0.590	0.540	0.080	236.59	-0.90	0.60	 	 	 	 	 	 	 	 	 	 	 	 	 	 	 	 	 	 	1581548563	7.38	13.67
12/02/2020 23:02:45	120220	12022020	230244	236.52	12.200460	-57.112808	236.48	-0.560	0.360	0.630	236.49	-1.10	1.20	 	 	 	 	 	 	 	 	 	 	 	 	 	 	 	 	 	 	1581548564	7.72	14.30
12/02/2020 23:02:46	120220	12022020	230245	236.38	12.200443	-57.112842	236.34	-0.300	0.060	1.130	236.36	-1.40	1.60	 	 	 	 	 	 	 	 	 	 	 	 	 	 	 	 	 	 	1581548565	7.81	14.46
12/02/2020 23:02:47	120220	12022020	230246	236.36	12.200427	-57.112872	236.35	0.070	-0.010	1.350	236.38	-1.40	1.70	 	 	 	 	 	 	 	 	 	 	 	 	 	 	 	 	 	 	1581548566	7.42	13.74
12/02/2020 23:02:48	120220	12022020	230247	236.54	12.200410	-57.112902	236.54	0.420	-0.000	1.260	236.60	-1.40	1.60	 	 	 	 	 	 	 	 	 	 	 	 	 	 	 	 	 	 	1581548567	7.05	13.06
12/02/2020 23:02:49	120220	12022020	230248	236.86	12.200393	-57.112930	236.86	0.690	-0.180	1.040	236.92	-1.60	1.40	 	 	 	 	 	 	 	 	 	 	 	 	 	 	 	 	 	 	1581548568	7.07	13.09
12/02/2020 23:02:50	120220	12022020	230249	237.10	12.200375	-57.112958	237.12	0.800	-0.540	0.770	237.14	-2.00	1.10	 	 	 	 	 	 	 	 	 	 	 	 	 	 	 	 	 	 	1581548569	7.24	13.41
12/02/2020 23:02:51	120220	12022020	230250	237.20	12.200357	-57.112988	237.15	0.660	-0.970	0.690	237.19	-2.50	1.10	 	 	 	 	 	 	 	 	 	 	 	 	 	 	 	 	 	 	1581548570	7.45	13.80
12/02/2020 23:02:52	120220	12022020	230251	237.05	12.200340	-57.113020	237.00	0.250	-1.270	0.850	237.02	-2.70	1.30	 	 	 	 	 	 	 	 	 	 	 	 	 	 	 	 	 	 	1581548571	7.57	14.02
12/02/2020 23:02:53	120220	12022020	230252	236.78	12.200323	-57.113050	236.72	-0.280	-1.200	1.160	236.71	-2.50	1.60	 	 	 	 	 	 	 	 	 	 	 	 	 	 	 	 	 	 	1581548572	7.50	13.89
12/02/2020 23:02:54	120220	12022020	230253	236.38	12.200307	-57.113082	236.32	-0.680	-0.800	1.550	236.30	-2.10	2.00	 	 	 	 	 	 	 	 	 	 	 	 	 	 	 	 	 	 	1581548573	7.47	13.83
12/02/2020 23:02:55	120220	12022020	230254	236.10	12.200293	-57.113115	236.07	-0.790	-0.200	1.730	236.08	-1.40	2.10	 	 	 	 	 	 	 	 	 	 	 	 	 	 	 	 	 	 	1581548574	7.45	13.80
12/02/2020 23:02:56	120220	12022020	230255	236.19	12.200277	-57.113145	236.21	-0.610	0.400	1.380	236.26	-0.90	1.60	 	 	 	 	 	 	 	 	 	 	 	 	 	 	 	 	 	 	1581548575	7.34	13.59
12/02/2020 23:02:57	120220	12022020	230256	236.68	12.200257	-57.113173	236.71	-0.260	0.730	0.590	236.81	-0.70	0.80	 	 	 	 	 	 	 	 	 	 	 	 	 	 	 	 	 	 	1581548576	7.37	13.65
12/02/2020 23:02:58	120220	12022020	230257	237.32	12.200235	-57.113202	237.33	0.110	0.540	-0.200	237.43	-1.00	0.10	 	 	 	 	 	 	 	 	 	 	 	 	 	 	 	 	 	 	1581548577	7.67	14.20
12/02/2020 23:02:59	120220	12022020	230258	237.80	12.200213	-57.113232	237.78	0.320	0.050	-0.550	237.87	-1.40	-0.20	 	 	 	 	 	 	 	 	 	 	 	 	 	 	 	 	 	 	1581548578	7.90	14.63
12/02/2020 23:03:00	120220	12022020	230259	238.00	12.200193	-57.113262	238.00	0.260	-0.190	-0.290	238.03	-1.60	0.30	 	 	 	 	 	 	 	 	 	 	 	 	 	 	 	 	 	 	1581548579	7.55	13.98
12/02/2020 23:03:01	120220	12022020	230300	237.97	12.200178	-57.113292	237.90	0.050	-0.090	0.490	237.91	-1.40	1.10	 	 	 	 	 	 	 	 	 	 	 	 	 	 	 	 	 	 	1581548580	7.05	13.06
12/02/2020 23:03:02	120220	12022020	230301	237.69	12.200167	-57.113322	237.53	-0.010	0.010	1.350	237.60	-1.40	1.90	1015.30	27.50	34.80	21.10	22.40	-2.0	68.0	48.0	390.0	26.0	194.00	5.80	65.00	9.60	17	10750.0	27.5	27.4	1581548581	6.97	12.91
12/02/2020 23:03:03	120220	12022020	230302	237.11	12.200153	-57.113353	237.05	0.190	-0.310	1.910	237.02	-1.80	2.40	 	 	 	 	 	 	 	 	 	 	 	 	 	 	 	 	 	 	1581548582	7.29	13.50
12/02/2020 23:03:04	120220	12022020	230303	236.63	12.200137	-57.113387	236.58	0.440	-1.000	2.070	236.55	-2.50	2.40	 	 	 	 	 	 	 	 	 	 	 	 	 	 	 	 	 	 	1581548583	7.81	14.46
12/02/2020 23:03:05	120220	12022020	230304	236.34	12.200118	-57.113418	236.32	0.430	-1.490	1.760	236.33	-2.90	2.00	 	 	 	 	 	 	 	 	 	 	 	 	 	 	 	 	 	 	1581548584	7.87	14.58
12/02/2020 23:03:06	120220	12022020	230305	236.43	12.200100	-57.113448	236.44	0.140	-1.440	1.120	236.48	-2.70	1.30	 	 	 	 	 	 	 	 	 	 	 	 	 	 	 	 	 	 	1581548585	7.49	13.87
12/02/2020 23:03:07	120220	12022020	230306	236.78	12.200082	-57.113477	236.80	-0.220	-0.900	0.390	236.87	-2.10	0.60	 	 	 	 	 	 	 	 	 	 	 	 	 	 	 	 	 	 	1581548586	7.15	13.24
12/02/2020 23:03:08	120220	12022020	230307	237.26	12.200063	-57.113505	237.28	-0.500	-0.190	-0.180	237.37	-1.40	0.10	 	 	 	 	 	 	 	 	 	 	 	 	 	 	 	 	 	 	1581548587	7.06	13.08
12/02/2020 23:03:09	120220	12022020	230308	237.78	12.200045	-57.113533	237.80	-0.610	0.330	-0.430	237.87	-1.00	-0.00	 	 	 	 	 	 	 	 	 	 	 	 	 	 	 	 	 	 	1581548588	7.27	13.46
12/02/2020 23:03:10	120220	12022020	230309	238.12	12.200027	-57.113565	238.10	-0.490	0.530	-0.380	238.16	-0.90	0.10	 	 	 	 	 	 	 	 	 	 	 	 	 	 	 	 	 	 	1581548589	7.62	14.11
12/02/2020 23:03:11	120220	12022020	230310	238.16	12.200008	-57.113595	238.09	-0.200	0.570	-0.090	238.12	-0.80	0.40	 	 	 	 	 	 	 	 	 	 	 	 	 	 	 	 	 	 	1581548590	7.76	14.37
12/02/2020 23:03:12	120220	12022020	230311	237.93	12.199992	-57.113627	237.86	0.080	0.660	0.360	237.93	-0.70	0.90	 	 	 	 	 	 	 	 	 	 	 	 	 	 	 	 	 	 	1581548591	7.53	13.95
12/02/2020 23:03:13	120220	12022020	230312	237.56	12.199975	-57.113657	237.47	0.200	0.720	0.960	237.47	-0.70	1.50	 	 	 	 	 	 	 	 	 	 	 	 	 	 	 	 	 	 	1581548592	7.21	13.35
12/02/2020 23:03:14	120220	12022020	230313	237.21	12.199960	-57.113687	237.09	0.250	0.500	1.550	237.15	-1.00	2.00	 	 	 	 	 	 	 	 	 	 	 	 	 	 	 	 	 	 	1581548593	7.17	13.28
12/02/2020 23:03:15	120220	12022020	230314	236.94	12.199947	-57.113718	236.92	0.380	-0.160	1.830	236.93	-1.80	2.20	 	 	 	 	 	 	 	 	 	 	 	 	 	 	 	 	 	 	1581548594	7.36	13.63
12/02/2020 23:03:16	120220	12022020	230315	236.94	12.199932	-57.113752	236.96	0.550	-1.100	1.720	236.96	-2.70	2.00	 	 	 	 	 	 	 	 	 	 	 	 	 	 	 	 	 	 	1581548595	7.62	14.11
12/02/2020 23:03:17	120220	12022020	230316	237.13	12.199915	-57.113783	237.12	0.590	-1.920	1.300	237.17	-3.40	1.60	 	 	 	 	 	 	 	 	 	 	 	 	 	 	 	 	 	 	1581548596	7.66	14.19
12/02/2020 23:03:18	120220	12022020	230317	237.34	12.199897	-57.113813	237.31	0.410	-2.220	0.830	237.37	-3.60	1.10	 	 	 	 	 	 	 	 	 	 	 	 	 	 	 	 	 	 	1581548597	7.50	13.89
12/02/2020 23:03:19	120220	12022020	230318	237.44	12.199878	-57.113843	237.39	0.070	-1.860	0.600	237.44	-3.10	1.00	 	 	 	 	 	 	 	 	 	 	 	 	 	 	 	 	 	 	1581548598	7.29	13.50
12/02/2020 23:03:20	120220	12022020	230319	237.41	12.199862	-57.113872	237.36	-0.320	-1.010	0.630	237.39	-2.20	1.10	 	 	 	 	 	 	 	 	 	 	 	 	 	 	 	 	 	 	1581548599	7.20	13.33
12/02/2020 23:03:21	120220	12022020	230320	237.35	12.199843	-57.113902	237.32	-0.690	0.050	0.740	237.34	-1.10	1.20	 	 	 	 	 	 	 	 	 	 	 	 	 	 	 	 	 	 	1581548600	7.28	13.48
12/02/2020 23:03:22	120220	12022020	230321	237.39	12.199827	-57.113932	237.37	-0.900	1.010	0.750	237.42	-0.20	1.10	 	 	 	 	 	 	 	 	 	 	 	 	 	 	 	 	 	 	1581548601	7.38	13.67
12/02/2020 23:03:23	120220	12022020	230322	237.53	12.199808	-57.113962	237.51	-0.820	1.640	0.610	237.55	0.30	1.00	 	 	 	 	 	 	 	 	 	 	 	 	 	 	 	 	 	 	1581548602	7.46	13.82
12/02/2020 23:03:24	120220	12022020	230323	237.58	12.199790	-57.113992	237.55	-0.450	1.720	0.490	237.57	0.30	0.90	 	 	 	 	 	 	 	 	 	 	 	 	 	 	 	 	 	 	1581548603	7.59	14.06
12/02/2020 23:03:25	120220	12022020	230324	237.48	12.199772	-57.114023	237.44	0.080	1.200	0.530	237.44	-0.40	1.00	 	 	 	 	 	 	 	 	 	 	 	 	 	 	 	 	 	 	1581548604	7.73	14.32
12/02/2020 23:03:26	120220	12022020	230325	237.34	12.199755	-57.114057	237.29	0.550	0.340	0.770	237.31	-1.30	1.20	 	 	 	 	 	 	 	 	 	 	 	 	 	 	 	 	 	 	1581548605	7.72	14.30
12/02/2020 23:03:27	120220	12022020	230326	237.22	12.199742	-57.114088	237.21	0.800	-0.540	1.090	237.22	-2.10	1.50	 	 	 	 	 	 	 	 	 	 	 	 	 	 	 	 	 	 	1581548606	7.45	13.80
12/02/2020 23:03:28	120220	12022020	230327	237.20	12.199727	-57.114118	237.17	0.790	-1.340	1.310	237.19	-2.90	1.70	 	 	 	 	 	 	 	 	 	 	 	 	 	 	 	 	 	 	1581548607	7.23	13.39
12/02/2020 23:03:29	120220	12022020	230328	237.24	12.199710	-57.114150	237.22	0.600	-2.000	1.270	237.26	-3.50	1.60	 	 	 	 	 	 	 	 	 	 	 	 	 	 	 	 	 	 	1581548608	7.28	13.48
12/02/2020 23:03:30	120220	12022020	230329	237.38	12.199693	-57.114178	237.36	0.340	-2.340	0.930	237.41	-3.70	1.20	 	 	 	 	 	 	 	 	 	 	 	 	 	 	 	 	 	 	1581548609	7.36	13.63
12/02/2020 23:03:31	120220	12022020	230330	237.48	12.199673	-57.114208	237.44	0.040	-2.200	0.580	237.47	-3.50	0.90	 	 	 	 	 	 	 	 	 	 	 	 	 	 	 	 	 	 	1581548610	7.45	13.80
12/02/2020 23:03:32	120220	12022020	230331	237.38	12.199655	-57.114238	237.32	-0.270	-1.540	0.490	237.34	-2.70	0.90	 	 	 	 	 	 	 	 	 	 	 	 	 	 	 	 	 	 	1581548611	7.48	13.85
12/02/2020 23:03:33	120220	12022020	230332	237.12	12.199637	-57.114268	237.07	-0.550	-0.510	0.730	237.06	-1.60	1.20	 	 	 	 	 	 	 	 	 	 	 	 	 	 	 	 	 	 	1581548612	7.54	13.96
12/02/2020 23:03:34	120220	12022020	230333	236.81	12.199622	-57.114302	236.79	-0.780	0.710	1.240	236.76	-0.40	1.80	 	 	 	 	 	 	 	 	 	 	 	 	 	 	 	 	 	 	1581548613	7.56	14.00
12/02/2020 23:03:35	120220	12022020	230334	236.66	12.199608	-57.114333	236.67	-0.900	1.810	1.780	236.66	0.60	2.30	 	 	 	 	 	 	 	 	 	 	 	 	 	 	 	 	 	 	1581548614	7.54	13.96
12/02/2020 23:03:36	120220	12022020	230335	236.77	12.199595	-57.114367	236.82	-0.800	2.410	2.050	236.82	1.00	2.40	 	 	 	 	 	 	 	 	 	 	 	 	 	 	 	 	 	 	1581548615	7.53	13.95
12/02/2020 23:03:37	120220	12022020	230336	237.06	12.199578	-57.114398	237.13	-0.390	2.250	1.800	237.14	0.70	2.00	 	 	 	 	 	 	 	 	 	 	 	 	 	 	 	 	 	 	1581548616	7.51	13.91
12/02/2020 23:03:38	120220	12022020	230337	237.43	12.199560	-57.114428	237.48	0.250	1.230	1.120	237.50	-0.50	1.30	 	 	 	 	 	 	 	 	 	 	 	 	 	 	 	 	 	 	1581548617	7.63	14.13
12/02/2020 23:03:39	120220	12022020	230338	237.72	12.199537	-57.114458	237.73	0.890	-0.440	0.360	237.75	-2.30	0.60	 	 	 	 	 	 	 	 	 	 	 	 	 	 	 	 	 	 	1581548618	7.93	14.69
12/02/2020 23:03:40	120220	12022020	230339	237.75	12.199515	-57.114490	237.70	1.250	-2.150	-0.050	237.72	-3.80	0.30	 	 	 	 	 	 	 	 	 	 	 	 	 	 	 	 	 	 	1581548619	7.99	14.80
12/02/2020 23:03:41	120220	12022020	230340	237.51	12.199497	-57.114520	237.45	1.130	-3.070	0.170	237.47	-4.50	0.70	 	 	 	 	 	 	 	 	 	 	 	 	 	 	 	 	 	 	1581548620	7.60	14.08
12/02/2020 23:03:42	120220	12022020	230341	237.28	12.199483	-57.114550	237.23	0.540	-2.800	0.760	237.26	-4.00	1.30	 	 	 	 	 	 	 	 	 	 	 	 	 	 	 	 	 	 	1581548621	6.97	12.91
12/02/2020 23:03:43	120220	12022020	230342	237.19	12.199472	-57.114578	237.17	-0.130	-1.710	1.330	237.19	-2.80	1.80	 	 	 	 	 	 	 	 	 	 	 	 	 	 	 	 	 	 	1581548622	6.69	12.39
12/02/2020 23:03:44	120220	12022020	230343	237.19	12.199460	-57.114608	237.17	-0.490	-0.490	1.620	237.19	-1.60	2.00	 	 	 	 	 	 	 	 	 	 	 	 	 	 	 	 	 	 	1581548623	6.91	12.80
12/02/2020 23:03:45	120220	12022020	230344	237.18	12.199443	-57.114640	237.17	-0.480	0.350	1.630	237.18	-0.90	2.00	 	 	 	 	 	 	 	 	 	 	 	 	 	 	 	 	 	 	1581548624	7.51	13.91
12/02/2020 23:03:46	120220	12022020	230345	237.16	12.199425	-57.114673	237.16	-0.380	0.760	1.570	237.16	-0.60	1.90	 	 	 	 	 	 	 	 	 	 	 	 	 	 	 	 	 	 	1581548625	8.08	14.96
12/02/2020 23:03:47	120220	12022020	230346	237.22	12.199407	-57.114707	237.23	-0.450	0.960	1.470	237.24	-0.40	1.80	 	 	 	 	 	 	 	 	 	 	 	 	 	 	 	 	 	 	1581548626	8.13	15.06
12/02/2020 23:03:48	120220	12022020	230347	237.39	12.199388	-57.114740	237.42	-0.650	1.090	1.350	237.43	-0.30	1.70	 	 	 	 	 	 	 	 	 	 	 	 	 	 	 	 	 	 	1581548627	7.81	14.46
12/02/2020 23:03:49	120220	12022020	230348	237.58	12.199372	-57.114772	237.60	-0.730	0.930	1.170	237.61	-0.50	1.50	 	 	 	 	 	 	 	 	 	 	 	 	 	 	 	 	 	 	1581548628	7.61	14.09
12/02/2020 23:03:50	120220	12022020	230349	237.69	12.199353	-57.114802	237.71	-0.450	0.520	0.940	237.71	-1.00	1.30	 	 	 	 	 	 	 	 	 	 	 	 	 	 	 	 	 	 	1581548629	7.56	14.00
12/02/2020 23:03:51	120220	12022020	230350	237.73	12.199335	-57.114832	237.71	0.070	0.050	0.650	237.72	-1.40	1.00	 	 	 	 	 	 	 	 	 	 	 	 	 	 	 	 	 	 	1581548630	7.42	13.74
12/02/2020 23:03:52	120220	12022020	230351	237.68	12.199317	-57.114860	237.63	0.520	-0.320	0.400	237.66	-1.80	0.80	 	 	 	 	 	 	 	 	 	 	 	 	 	 	 	 	 	 	1581548631	7.13	13.20
12/02/2020 23:03:53	120220	12022020	230352	237.63	12.199300	-57.114887	237.58	0.750	-0.620	0.240	237.63	-2.10	0.70	 	 	 	 	 	 	 	 	 	 	 	 	 	 	 	 	 	 	1581548632	6.90	12.78
12/02/2020 23:03:54	120220	12022020	230353	237.61	12.199283	-57.114917	237.57	0.840	-0.990	0.400	237.60	-2.50	0.90	 	 	 	 	 	 	 	 	 	 	 	 	 	 	 	 	 	 	1581548633	6.99	12.95
12/02/2020 23:03:55	120220	12022020	230354	237.51	12.199270	-57.114947	237.46	0.930	-1.420	0.810	237.49	-2.90	1.30	 	 	 	 	 	 	 	 	 	 	 	 	 	 	 	 	 	 	1581548634	7.32	13.56
12/02/2020 23:03:56	120220	12022020	230355	237.38	12.199255	-57.114980	237.35	0.920	-1.660	1.210	237.35	-3.00	1.70	 	 	 	 	 	 	 	 	 	 	 	 	 	 	 	 	 	 	1581548635	7.57	14.02
12/02/2020 23:03:57	120220	12022020	230356	237.27	12.199240	-57.115013	237.26	0.590	-1.490	1.560	237.26	-2.80	2.00	 	 	 	 	 	 	 	 	 	 	 	 	 	 	 	 	 	 	1581548636	7.60	14.08
12/02/2020 23:03:58	120220	12022020	230357	237.26	12.199227	-57.115045	237.25	-0.120	-0.910	1.780	237.27	-2.10	2.20	 	 	 	 	 	 	 	 	 	 	 	 	 	 	 	 	 	 	1581548637	7.49	13.87
12/02/2020 23:03:59	120220	12022020	230358	237.30	12.199212	-57.115077	237.30	-0.930	-0.070	1.760	237.31	-1.30	2.10	 	 	 	 	 	 	 	 	 	 	 	 	 	 	 	 	 	 	1581548638	7.38	13.67
12/02/2020 23:04:00	120220	12022020	230359	237.33	12.199193	-57.115107	237.31	-1.400	0.730	1.470	237.34	-0.50	1.80	 	 	 	 	 	 	 	 	 	 	 	 	 	 	 	 	 	 	1581548639	7.37	13.65
12/02/2020 23:04:01	120220	12022020	230400	237.38	12.199175	-57.115137	237.35	-1.340	1.290	1.030	237.38	-0.00	1.30	 	 	 	 	 	 	 	 	 	 	 	 	 	 	 	 	 	 	1581548640	7.44	13.78
12/02/2020 23:04:02	120220	12022020	230401	237.37	12.199155	-57.115165	237.33	-0.800	1.290	0.650	237.36	-0.20	1.00	1015.30	26.90	29.90	21.30	21.50	-2.0	71.0	60.0	390.0	26.0	203.00	5.90	71.00	9.60	17	10236.0	27.5	27.5	1581548641	7.63	14.13
12/02/2020 23:04:03	120220	12022020	230402	237.24	12.199133	-57.115197	237.19	-0.070	0.750	0.530	237.21	-0.80	1.00	 	 	 	 	 	 	 	 	 	 	 	 	 	 	 	 	 	 	1581548642	7.87	14.58
12/02/2020 23:04:04	120220	12022020	230403	237.05	12.199115	-57.115228	236.98	0.570	0.010	0.740	237.05	-1.50	1.20	 	 	 	 	 	 	 	 	 	 	 	 	 	 	 	 	 	 	1581548643	7.76	14.37
12/02/2020 23:04:05	120220	12022020	230404	236.80	12.199100	-57.115260	236.73	0.970	-0.650	1.150	236.74	-2.10	1.70	 	 	 	 	 	 	 	 	 	 	 	 	 	 	 	 	 	 	1581548644	7.51	13.91
12/02/2020 23:04:06	120220	12022020	230405	236.49	12.199087	-57.115292	236.43	1.070	-1.080	1.600	236.44	-2.50	2.10	 	 	 	 	 	 	 	 	 	 	 	 	 	 	 	 	 	 	1581548645	7.32	13.56
12/02/2020 23:04:07	120220	12022020	230406	236.31	12.199073	-57.115322	236.27	0.850	-1.110	1.850	236.31	-2.40	2.20	 	 	 	 	 	 	 	 	 	 	 	 	 	 	 	 	 	 	1581548646	7.10	13.15
12/02/2020 23:04:08	120220	12022020	230407	236.40	12.199062	-57.115352	236.40	0.420	-0.770	1.750	236.45	-2.00	2.10	 	 	 	 	 	 	 	 	 	 	 	 	 	 	 	 	 	 	1581548647	6.81	12.61
12/02/2020 23:04:09	120220	12022020	230408	236.73	12.199045	-57.115380	236.74	-0.010	-0.420	1.290	236.81	-1.70	1.60	 	 	 	 	 	 	 	 	 	 	 	 	 	 	 	 	 	 	1581548648	6.81	12.61
12/02/2020 23:04:10	120220	12022020	230409	237.08	12.199027	-57.115408	237.08	-0.290	-0.360	0.780	237.14	-1.70	1.10	 	 	 	 	 	 	 	 	 	 	 	 	 	 	 	 	 	 	1581548649	7.25	13.43
12/02/2020 23:04:11	120220	12022020	230410	237.21	12.199007	-57.115438	237.17	-0.420	-0.490	0.560	237.20	-1.90	1.00	 	 	 	 	 	 	 	 	 	 	 	 	 	 	 	 	 	 	1581548650	7.67	14.20
12/02/2020 23:04:12	120220	12022020	230411	237.05	12.198987	-57.115470	237.00	-0.480	-0.560	0.710	237.00	-1.90	1.20	 	 	 	 	 	 	 	 	 	 	 	 	 	 	 	 	 	 	1581548651	7.76	14.37
12/02/2020 23:04:13	120220	12022020	230412	236.73	12.198970	-57.115500	236.66	-0.450	-0.370	1.030	236.65	-1.70	1.50	 	 	 	 	 	 	 	 	 	 	 	 	 	 	 	 	 	 	1581548652	7.55	13.98
12/02/2020 23:04:14	120220	12022020	230413	236.33	12.198952	-57.115530	236.26	-0.300	-0.110	1.260	236.26	-1.40	1.70	 	 	 	 	 	 	 	 	 	 	 	 	 	 	 	 	 	 	1581548653	7.38	13.67
12/02/2020 23:04:15	120220	12022020	230414	235.97	12.198935	-57.115562	235.91	-0.080	-0.030	1.360	235.91	-1.40	1.80	 	 	 	 	 	 	 	 	 	 	 	 	 	 	 	 	 	 	1581548654	7.49	13.87
12/02/2020 23:04:16	120220	12022020	230415	235.69	12.198917	-57.115593	235.64	0.080	-0.090	1.490	235.69	-1.50	1.90	 	 	 	 	 	 	 	 	 	 	 	 	 	 	 	 	 	 	1581548655	7.68	14.22
12/02/2020 23:04:17	120220	12022020	230416	235.57	12.198902	-57.115625	235.55	0.090	0.010	1.630	235.58	-1.30	2.00	 	 	 	 	 	 	 	 	 	 	 	 	 	 	 	 	 	 	1581548656	7.52	13.93
12/02/2020 23:04:18	120220	12022020	230417	235.65	12.198888	-57.115655	235.69	-0.010	0.360	1.620	235.70	-0.90	2.00	 	 	 	 	 	 	 	 	 	 	 	 	 	 	 	 	 	 	1581548657	7.15	13.24
12/02/2020 23:04:19	120220	12022020	230418	235.93	12.198875	-57.115685	235.94	-0.040	0.590	1.400	235.98	-0.80	1.70	 	 	 	 	 	 	 	 	 	 	 	 	 	 	 	 	 	 	1581548658	7.00	12.96
12/02/2020 23:04:20	120220	12022020	230419	236.22	12.198858	-57.115715	236.22	0.140	0.420	0.900	236.28	-1.00	1.10	 	 	 	 	 	 	 	 	 	 	 	 	 	 	 	 	 	 	1581548659	7.18	13.30
12/02/2020 23:04:21	120220	12022020	230420	236.55	12.198838	-57.115743	236.55	0.410	0.030	0.180	236.61	-1.50	0.40	 	 	 	 	 	 	 	 	 	 	 	 	 	 	 	 	 	 	1581548660	7.26	13.45
12/02/2020 23:04:22	120220	12022020	230421	236.78	12.198817	-57.115770	236.75	0.570	-0.520	-0.380	236.81	-2.00	-0.10	 	 	 	 	 	 	 	 	 	 	 	 	 	 	 	 	 	 	1581548661	7.37	13.65
12/02/2020 23:04:23	120220	12022020	230422	236.91	12.198797	-57.115798	236.87	0.490	-1.090	-0.500	236.93	-2.60	-0.10	 	 	 	 	 	 	 	 	 	 	 	 	 	 	 	 	 	 	1581548662	7.44	13.78
12/02/2020 23:04:24	120220	12022020	230423	236.93	12.198778	-57.115828	236.87	0.170	-1.480	-0.060	236.90	-2.90	0.50	 	 	 	 	 	 	 	 	 	 	 	 	 	 	 	 	 	 	1581548663	7.40	13.70
12/02/2020 23:04:25	120220	12022020	230424	236.67	12.198763	-57.115860	236.60	-0.170	-1.610	0.900	236.59	-3.00	1.60	 	 	 	 	 	 	 	 	 	 	 	 	 	 	 	 	 	 	1581548664	7.46	13.82
12/02/2020 23:04:26	120220	12022020	230425	236.20	12.198750	-57.115893	236.14	-0.350	-1.380	2.000	236.10	-2.60	2.60	 	 	 	 	 	 	 	 	 	 	 	 	 	 	 	 	 	 	1581548665	7.58	14.04
12/02/2020 23:04:27	120220	12022020	230426	235.67	12.198738	-57.115927	235.62	-0.390	-0.790	2.900	235.56	-2.00	3.40	 	 	 	 	 	 	 	 	 	 	 	 	 	 	 	 	 	 	1581548666	7.60	14.08
12/02/2020 23:04:28	120220	12022020	230427	235.25	12.198725	-57.115960	235.25	-0.360	-0.030	3.350	235.20	-1.20	3.70	 	 	 	 	 	 	 	 	 	 	 	 	 	 	 	 	 	 	1581548667	7.57	14.02
12/02/2020 23:04:29	120220	12022020	230428	235.16	12.198710	-57.115992	235.21	-0.330	0.680	3.150	235.19	-0.60	3.40	 	 	 	 	 	 	 	 	 	 	 	 	 	 	 	 	 	 	1581548668	7.43	13.76
12/02/2020 23:04:30	120220	12022020	230429	235.43	12.198692	-57.116022	235.50	-0.290	1.120	2.360	235.52	-0.20	2.50	 	 	 	 	 	 	 	 	 	 	 	 	 	 	 	 	 	 	1581548669	7.37	13.65
12/02/2020 23:04:31	120220	12022020	230430	235.97	12.198672	-57.116050	236.02	-0.190	1.130	1.240	236.09	-0.30	1.40	 	 	 	 	 	 	 	 	 	 	 	 	 	 	 	 	 	 	1581548670	7.45	13.80
12/02/2020 23:04:32	120220	12022020	230431	236.58	12.198650	-57.116077	236.60	-0.030	0.810	0.200	236.68	-0.70	0.40	 	 	 	 	 	 	 	 	 	 	 	 	 	 	 	 	 	 	1581548671	7.52	13.93
12/02/2020 23:04:33	120220	12022020	230432	236.99	12.198628	-57.116105	236.97	0.160	0.270	-0.400	237.03	-1.30	-0.10	 	 	 	 	 	 	 	 	 	 	 	 	 	 	 	 	 	 	1581548672	7.44	13.78
12/02/2020 23:04:34	120220	12022020	230433	237.09	12.198610	-57.116133	237.02	0.360	-0.320	-0.520	237.08	-1.80	-0.10	 	 	 	 	 	 	 	 	 	 	 	 	 	 	 	 	 	 	1581548673	7.30	13.52
12/02/2020 23:04:35	120220	12022020	230434	236.97	12.198592	-57.116163	236.88	0.520	-0.880	-0.270	236.92	-2.40	0.20	 	 	 	 	 	 	 	 	 	 	 	 	 	 	 	 	 	 	1581548674	7.19	13.32
12/02/2020 23:04:36	120220	12022020	230435	236.76	12.198577	-57.116193	236.68	0.560	-1.390	0.250	236.71	-2.90	0.80	 	 	 	 	 	 	 	 	 	 	 	 	 	 	 	 	 	 	1581548675	7.24	13.41
12/02/2020 23:04:37	120220	12022020	230436	236.52	12.198560	-57.116225	236.45	0.450	-1.730	0.850	236.46	-3.10	1.40	 	 	 	 	 	 	 	 	 	 	 	 	 	 	 	 	 	 	1581548676	7.37	13.65
12/02/2020 23:04:38	120220	12022020	230437	236.25	12.198545	-57.116257	236.18	0.190	-1.690	1.470	236.19	-3.00	2.00	 	 	 	 	 	 	 	 	 	 	 	 	 	 	 	 	 	 	1581548677	7.44	13.78
12/02/2020 23:04:39	120220	12022020	230438	235.94	12.198532	-57.116288	235.89	-0.160	-1.190	2.040	235.88	-2.40	2.50	 	 	 	 	 	 	 	 	 	 	 	 	 	 	 	 	 	 	1581548678	7.41	13.72
12/02/2020 23:04:40	120220	12022020	230439	235.74	12.198518	-57.116318	235.71	-0.520	-0.290	2.340	235.71	-1.40	2.70	 	 	 	 	 	 	 	 	 	 	 	 	 	 	 	 	 	 	1581548679	7.29	13.50
12/02/2020 23:04:41	120220	12022020	230440	235.77	12.198503	-57.116350	235.80	-0.760	0.690	2.240	235.81	-0.50	2.50	 	 	 	 	 	 	 	 	 	 	 	 	 	 	 	 	 	 	1581548680	7.14	13.22
12/02/2020 23:04:42	120220	12022020	230441	235.97	12.198485	-57.116380	236.05	-0.750	1.200	1.810	236.02	-0.20	2.10	 	 	 	 	 	 	 	 	 	 	 	 	 	 	 	 	 	 	1581548681	7.31	13.54
12/02/2020 23:04:43	120220	12022020	230442	236.24	12.198465	-57.116410	236.25	-0.460	0.860	1.250	236.27	-0.70	1.50	 	 	 	 	 	 	 	 	 	 	 	 	 	 	 	 	 	 	1581548682	7.89	14.61
12/02/2020 23:04:44	120220	12022020	230443	236.36	12.198445	-57.116443	236.35	-0.060	0.090	0.700	236.37	-1.40	1.00	 	 	 	 	 	 	 	 	 	 	 	 	 	 	 	 	 	 	1581548683	8.29	15.35
12/02/2020 23:04:45	120220	12022020	230444	236.49	12.198423	-57.116473	236.48	0.240	-0.250	0.230	236.53	-1.60	0.50	 	 	 	 	 	 	 	 	 	 	 	 	 	 	 	 	 	 	1581548684	7.78	14.41
12/02/2020 23:04:46	120220	12022020	230445	236.71	12.198407	-57.116500	236.69	0.320	0.040	-0.040	236.75	-1.30	0.30	 	 	 	 	 	 	 	 	 	 	 	 	 	 	 	 	 	 	1581548685	6.80	12.59
12/02/2020 23:04:47	120220	12022020	230446	236.85	12.198392	-57.116527	236.81	0.290	0.290	-0.020	236.86	-1.10	0.40	 	 	 	 	 	 	 	 	 	 	 	 	 	 	 	 	 	 	1581548686	6.48	12.00
12/02/2020 23:04:48	120220	12022020	230447	236.77	12.198375	-57.116555	236.70	0.300	-0.060	0.310	236.71	-1.60	0.80	 	 	 	 	 	 	 	 	 	 	 	 	 	 	 	 	 	 	1581548687	6.98	12.93
12/02/2020 23:04:49	120220	12022020	230448	236.42	12.198357	-57.116587	236.34	0.350	-0.920	0.890	236.33	-2.50	1.40	 	 	 	 	 	 	 	 	 	 	 	 	 	 	 	 	 	 	1581548688	7.69	14.24
12/02/2020 23:04:50	120220	12022020	230449	235.95	12.198340	-57.116620	235.90	0.330	-1.630	1.560	235.86	-3.10	2.10	 	 	 	 	 	 	 	 	 	 	 	 	 	 	 	 	 	 	1581548689	7.96	14.74
12/02/2020 23:04:51	120220	12022020	230450	235.56	12.198327	-57.116653	235.55	0.140	-1.660	2.190	235.51	-2.90	2.70	 	 	 	 	 	 	 	 	 	 	 	 	 	 	 	 	 	 	1581548690	7.60	14.08
12/02/2020 23:04:52	120220	12022020	230451	235.36	12.198313	-57.116685	235.36	-0.190	-1.060	2.530	235.33	-2.30	2.90	 	 	 	 	 	 	 	 	 	 	 	 	 	 	 	 	 	 	1581548691	7.15	13.24
12/02/2020 23:04:53	120220	12022020	230452	235.24	12.198298	-57.116715	235.22	-0.440	-0.370	2.460	235.21	-1.60	2.80	 	 	 	 	 	 	 	 	 	 	 	 	 	 	 	 	 	 	1581548692	7.06	13.08
12/02/2020 23:04:54	120220	12022020	230453	235.16	12.198282	-57.116745	235.16	-0.460	0.050	2.050	235.16	-1.30	2.30	 	 	 	 	 	 	 	 	 	 	 	 	 	 	 	 	 	 	1581548693	7.39	13.69
12/02/2020 23:04:55	120220	12022020	230454	235.30	12.198262	-57.116775	235.32	-0.350	0.250	1.380	235.35	-1.10	1.60	 	 	 	 	 	 	 	 	 	 	 	 	 	 	 	 	 	 	1581548694	7.63	14.13
12/02/2020 23:04:56	120220	12022020	230455	235.55	12.198240	-57.116803	235.54	-0.250	0.370	0.720	235.59	-1.00	1.00	 	 	 	 	 	 	 	 	 	 	 	 	 	 	 	 	 	 	1581548695	7.67	14.20
12/02/2020 23:04:57	120220	12022020	230456	235.70	12.198220	-57.116832	235.68	-0.200	0.500	0.290	235.71	-0.80	0.60	 	 	 	 	 	 	 	 	 	 	 	 	 	 	 	 	 	 	1581548696	7.52	13.93
12/02/2020 23:04:58	120220	12022020	230457	235.76	12.198200	-57.116860	235.73	-0.160	0.590	0.160	235.77	-0.80	0.60	 	 	 	 	 	 	 	 	 	 	 	 	 	 	 	 	 	 	1581548697	7.34	13.59
12/02/2020 23:04:59	120220	12022020	230458	235.84	12.198182	-57.116890	235.81	-0.060	0.550	0.230	235.86	-0.80	0.70	 	 	 	 	 	 	 	 	 	 	 	 	 	 	 	 	 	 	1581548698	7.27	13.46
12/02/2020 23:05:00	120220	12022020	230459	235.93	12.198167	-57.116920	235.89	0.120	0.390	0.430	235.93	-1.10	0.90	 	 	 	 	 	 	 	 	 	 	 	 	 	 	 	 	 	 	1581548699	7.11	13.17
12/02/2020 23:05:01	120220	12022020	230501	235.72	12.198133	-57.116980	235.68	0.520	-0.970	1.220	235.67	-2.60	1.70	1015.30	26.60	27.90	21.00	21.20	-2.0	71.0	67.0	390.0	25.9	198.00	6.70	68.00	10.40	17	11237.0	27.5	27.5	1581548701	7.53	13.95
12/02/2020 23:05:02	120220	12022020	230502	235.43	12.198118	-57.117013	235.40	0.600	-1.880	1.730	235.36	-3.40	2.20	 	 	 	 	 	 	 	 	 	 	 	 	 	 	 	 	 	 	1581548702	7.87	14.58
12/02/2020 23:05:03	120220	12022020	230503	235.07	12.198102	-57.117047	235.05	0.470	-2.160	2.170	234.99	-3.50	2.60	 	 	 	 	 	 	 	 	 	 	 	 	 	 	 	 	 	 	1581548703	7.69	14.24
12/02/2020 23:05:04	120220	12022020	230504	234.77	12.198087	-57.117077	234.76	0.140	-1.620	2.200	234.75	-2.80	2.50	 	 	 	 	 	 	 	 	 	 	 	 	 	 	 	 	 	 	1581548704	7.20	13.33
12/02/2020 23:05:05	120220	12022020	230505	234.77	12.198070	-57.117105	234.77	-0.310	-0.610	1.730	234.81	-1.70	2.00	 	 	 	 	 	 	 	 	 	 	 	 	 	 	 	 	 	 	1581548705	6.92	12.82
12/02/2020 23:05:06	120220	12022020	230506	235.04	12.198050	-57.117132	235.05	-0.670	0.350	1.060	235.11	-0.80	1.30	 	 	 	 	 	 	 	 	 	 	 	 	 	 	 	 	 	 	1581548706	7.06	13.08
12/02/2020 23:05:07	120220	12022020	230507	235.37	12.198030	-57.117160	235.37	-0.790	0.890	0.550	235.37	-0.40	0.90	 	 	 	 	 	 	 	 	 	 	 	 	 	 	 	 	 	 	1581548707	7.46	13.82
12/02/2020 23:05:08	120220	12022020	230508	235.55	12.198008	-57.117190	235.51	-0.650	0.930	0.410	235.55	-0.50	0.90	 	 	 	 	 	 	 	 	 	 	 	 	 	 	 	 	 	 	1581548708	7.82	14.48
12/02/2020 23:05:09	120220	12022020	230509	235.47	12.197990	-57.117222	235.42	-0.370	0.710	0.700	235.43	-0.70	1.20	 	 	 	 	 	 	 	 	 	 	 	 	 	 	 	 	 	 	1581548709	7.91	14.65
12/02/2020 23:05:10	120220	12022020	230510	235.29	12.197973	-57.117253	235.26	-0.070	0.530	1.090	235.27	-0.90	1.50	 	 	 	 	 	 	 	 	 	 	 	 	 	 	 	 	 	 	1581548710	7.65	14.17
12/02/2020 23:05:11	120220	12022020	230511	235.28	12.197958	-57.117283	235.27	0.190	0.470	1.190	235.28	-0.90	1.60	 	 	 	 	 	 	 	 	 	 	 	 	 	 	 	 	 	 	1581548711	7.13	13.20
12/02/2020 23:05:12	120220	12022020	230512	235.41	12.197942	-57.117312	235.40	0.440	0.180	1.050	235.44	-1.30	1.40	 	 	 	 	 	 	 	 	 	 	 	 	 	 	 	 	 	 	1581548712	6.91	12.80
12/02/2020 23:05:13	120220	12022020	230513	235.45	12.197923	-57.117342	235.42	0.670	-0.640	0.980	235.42	-2.20	1.40	 	 	 	 	 	 	 	 	 	 	 	 	 	 	 	 	 	 	1581548713	7.33	13.58
12/02/2020 23:05:14	120220	12022020	230514	235.23	12.197905	-57.117373	235.18	0.750	-1.630	1.090	235.16	-3.20	1.50	 	 	 	 	 	 	 	 	 	 	 	 	 	 	 	 	 	 	1581548714	7.81	14.46
12/02/2020 23:05:15	120220	12022020	230515	234.87	12.197887	-57.117405	234.82	0.550	-2.000	1.300	234.80	-3.30	1.70	 	 	 	 	 	 	 	 	 	 	 	 	 	 	 	 	 	 	1581548715	7.65	14.17
12/02/2020 23:05:16	120220	12022020	230516	234.57	12.197872	-57.117433	234.54	0.100	-1.450	1.470	234.53	-2.60	1.90	 	 	 	 	 	 	 	 	 	 	 	 	 	 	 	 	 	 	1581548716	7.03	13.02
12/02/2020 23:05:17	120220	12022020	230517	234.49	12.197855	-57.117460	234.47	-0.400	-0.470	1.370	234.49	-1.60	1.70	 	 	 	 	 	 	 	 	 	 	 	 	 	 	 	 	 	 	1581548717	6.66	12.33
12/02/2020 23:05:18	120220	12022020	230518	234.61	12.197838	-57.117488	234.61	-0.660	0.240	1.080	234.64	-1.00	1.40	 	 	 	 	 	 	 	 	 	 	 	 	 	 	 	 	 	 	1581548718	6.94	12.85
12/02/2020 23:05:19	120220	12022020	230519	234.82	12.197818	-57.117518	234.83	-0.560	0.380	0.820	234.82	-1.00	1.20	 	 	 	 	 	 	 	 	 	 	 	 	 	 	 	 	 	 	1581548719	7.57	14.02
12/02/2020 23:05:20	120220	12022020	230520	235.14	12.197797	-57.117550	235.15	-0.280	0.130	0.680	235.20	-1.30	1.10	 	 	 	 	 	 	 	 	 	 	 	 	 	 	 	 	 	 	1581548720	7.99	14.80
12/02/2020 23:05:21	120220	12022020	230521	235.35	12.197778	-57.117582	235.33	-0.090	-0.140	0.770	235.35	-1.50	1.20	 	 	 	 	 	 	 	 	 	 	 	 	 	 	 	 	 	 	1581548721	8.01	14.83
12/02/2020 23:05:22	120220	12022020	230522	235.22	12.197760	-57.117613	235.16	-0.070	-0.160	1.100	235.16	-1.50	1.60	 	 	 	 	 	 	 	 	 	 	 	 	 	 	 	 	 	 	1581548722	7.72	14.30
12/02/2020 23:05:23	120220	12022020	230523	235.00	12.197745	-57.117643	234.92	-0.110	0.150	1.420	234.96	-1.10	1.80	 	 	 	 	 	 	 	 	 	 	 	 	 	 	 	 	 	 	1581548723	7.31	13.54
12/02/2020 23:05:24	120220	12022020	230524	234.88	12.197728	-57.117672	234.86	-0.080	0.540	1.400	234.88	-0.80	1.80	 	 	 	 	 	 	 	 	 	 	 	 	 	 	 	 	 	 	1581548724	6.97	12.91
12/02/2020 23:05:25	120220	12022020	230525	234.88	12.197710	-57.117700	234.85	0.070	0.600	1.170	234.87	-0.80	1.50	 	 	 	 	 	 	 	 	 	 	 	 	 	 	 	 	 	 	1581548725	7.04	13.04
12/02/2020 23:05:26	120220	12022020	230526	234.83	12.197692	-57.117728	234.80	0.260	0.230	0.990	234.82	-1.30	1.40	 	 	 	 	 	 	 	 	 	 	 	 	 	 	 	 	 	 	1581548726	7.33	13.58
12/02/2020 23:05:27	120220	12022020	230527	234.80	12.197672	-57.117758	234.77	0.380	-0.380	0.930	234.80	-1.90	1.30	 	 	 	 	 	 	 	 	 	 	 	 	 	 	 	 	 	 	1581548727	7.47	13.83
12/02/2020 23:05:28	120220	12022020	230528	234.81	12.197655	-57.117790	234.78	0.390	-1.020	0.940	234.81	-2.50	1.30	 	 	 	 	 	 	 	 	 	 	 	 	 	 	 	 	 	 	1581548728	7.46	13.82
12/02/2020 23:05:29	120220	12022020	230529	234.81	12.197638	-57.117820	234.78	0.360	-1.570	0.940	234.81	-3.00	1.30	 	 	 	 	 	 	 	 	 	 	 	 	 	 	 	 	 	 	1581548729	7.48	13.85
12/02/2020 23:05:30	120220	12022020	230530	234.75	12.197618	-57.117850	234.74	0.330	-1.860	0.860	234.75	-3.20	1.20	 	 	 	 	 	 	 	 	 	 	 	 	 	 	 	 	 	 	1581548730	7.58	14.04
12/02/2020 23:05:31	120220	12022020	230531	234.77	12.197600	-57.117880	234.80	0.120	-1.580	0.700	234.78	-2.80	1.10	 	 	 	 	 	 	 	 	 	 	 	 	 	 	 	 	 	 	1581548731	7.45	13.80
12/02/2020 23:05:32	120220	12022020	230532	234.97	12.197582	-57.117908	234.99	-0.320	-0.750	0.660	235.00	-1.90	1.10	 	 	 	 	 	 	 	 	 	 	 	 	 	 	 	 	 	 	1581548732	7.15	13.24
12/02/2020 23:05:33	120220	12022020	230533	235.10	12.197565	-57.117937	235.10	-0.750	0.250	0.880	235.11	-0.90	1.40	 	 	 	 	 	 	 	 	 	 	 	 	 	 	 	 	 	 	1581548733	7.13	13.20
12/02/2020 23:05:34	120220	12022020	230534	235.12	12.197548	-57.117967	235.11	-0.880	1.150	1.280	235.12	-0.10	1.80	 	 	 	 	 	 	 	 	 	 	 	 	 	 	 	 	 	 	1581548734	7.26	13.45
12/02/2020 23:05:35	120220	12022020	230535	235.13	12.197532	-57.117998	235.12	-0.590	1.650	1.560	235.13	0.30	2.00	 	 	 	 	 	 	 	 	 	 	 	 	 	 	 	 	 	 	1581548735	7.36	13.63
12/02/2020 23:05:36	120220	12022020	230536	235.10	12.197513	-57.118028	235.10	-0.000	1.490	1.560	235.09	-0.00	1.90	 	 	 	 	 	 	 	 	 	 	 	 	 	 	 	 	 	 	1581548736	7.58	14.04
12/02/2020 23:05:37	120220	12022020	230537	234.97	12.197493	-57.118058	234.94	0.540	0.610	1.400	234.92	-1.00	1.80	 	 	 	 	 	 	 	 	 	 	 	 	 	 	 	 	 	 	1581548737	7.85	14.54
12/02/2020 23:05:38	120220	12022020	230538	234.70	12.197472	-57.118090	234.64	0.720	-0.640	1.260	234.63	-2.30	1.60	 	 	 	 	 	 	 	 	 	 	 	 	 	 	 	 	 	 	1581548738	7.98	14.78
12/02/2020 23:05:39	120220	12022020	230539	234.40	12.197453	-57.118122	234.35	0.510	-1.640	1.100	234.36	-3.20	1.40	 	 	 	 	 	 	 	 	 	 	 	 	 	 	 	 	 	 	1581548739	7.74	14.33
12/02/2020 23:05:40	120220	12022020	230540	234.30	12.197437	-57.118150	234.28	0.150	-1.960	0.790	234.32	-3.30	1.10	 	 	 	 	 	 	 	 	 	 	 	 	 	 	 	 	 	 	1581548740	7.22	13.37
12/02/2020 23:05:41	120220	12022020	230541	234.45	12.197420	-57.118178	234.52	-0.100	-1.640	0.310	234.52	-2.90	0.60	 	 	 	 	 	 	 	 	 	 	 	 	 	 	 	 	 	 	1581548741	6.82	12.63
12/02/2020 23:05:42	120220	12022020	230542	234.93	12.197402	-57.118205	234.94	-0.200	-1.020	-0.140	235.02	-2.20	0.20	 	 	 	 	 	 	 	 	 	 	 	 	 	 	 	 	 	 	1581548742	6.80	12.59
12/02/2020 23:05:43	120220	12022020	230543	235.27	12.197383	-57.118232	235.34	-0.230	-0.380	-0.290	235.33	-1.60	0.20	 	 	 	 	 	 	 	 	 	 	 	 	 	 	 	 	 	 	1581548743	7.10	13.15
12/02/2020 23:05:44	120220	12022020	230544	235.53	12.197363	-57.118260	235.49	-0.270	0.150	0.100	235.52	-1.10	0.70	 	 	 	 	 	 	 	 	 	 	 	 	 	 	 	 	 	 	1581548744	7.39	13.69
12/02/2020 23:05:45	120220	12022020	230545	235.29	12.197345	-57.118292	235.22	-0.300	0.550	0.960	235.20	-0.80	1.60	 	 	 	 	 	 	 	 	 	 	 	 	 	 	 	 	 	 	1581548745	7.57	14.02
12/02/2020 23:05:46	120220	12022020	230546	234.70	12.197328	-57.118323	234.63	-0.240	0.820	1.890	234.58	-0.50	2.50	 	 	 	 	 	 	 	 	 	 	 	 	 	 	 	 	 	 	1581548746	7.63	14.13
12/02/2020 23:05:47	120220	12022020	230547	234.16	12.197313	-57.118355	234.13	-0.100	0.960	2.400	234.08	-0.40	2.80	 	 	 	 	 	 	 	 	 	 	 	 	 	 	 	 	 	 	1581548747	7.49	13.87
12/02/2020 23:05:48	120220	12022020	230548	233.91	12.197297	-57.118385	233.90	0.080	0.710	2.320	233.89	-0.80	2.60	 	 	 	 	 	 	 	 	 	 	 	 	 	 	 	 	 	 	1581548748	7.39	13.69
12/02/2020 23:05:49	120220	12022020	230549	233.96	12.197278	-57.118417	233.96	0.220	-0.040	1.770	234.00	-1.60	2.00	 	 	 	 	 	 	 	 	 	 	 	 	 	 	 	 	 	 	1581548749	7.54	13.96
12/02/2020 23:05:50	120220	12022020	230550	234.24	12.197258	-57.118447	234.24	0.350	-1.030	0.940	234.31	-2.60	1.10	 	 	 	 	 	 	 	 	 	 	 	 	 	 	 	 	 	 	1581548750	7.71	14.28
12/02/2020 23:05:51	120220	12022020	230551	234.66	12.197237	-57.118475	234.68	0.420	-1.650	0.080	234.76	-3.10	0.30	 	 	 	 	 	 	 	 	 	 	 	 	 	 	 	 	 	 	1581548751	7.60	14.08
12/02/2020 23:05:52	120220	12022020	230552	235.14	12.197217	-57.118502	235.15	0.330	-1.530	-0.470	235.23	-2.80	-0.10	 	 	 	 	 	 	 	 	 	 	 	 	 	 	 	 	 	 	1581548752	7.04	13.04
12/02/2020 23:05:53	120220	12022020	230553	235.43	12.197198	-57.118527	235.44	0.080	-0.940	-0.470	235.48	-2.20	0.00	 	 	 	 	 	 	 	 	 	 	 	 	 	 	 	 	 	 	1581548753	6.71	12.43
12/02/2020 23:05:54	120220	12022020	230554	235.49	12.197182	-57.118555	235.42	-0.200	-0.370	-0.010	235.44	-1.60	0.50	 	 	 	 	 	 	 	 	 	 	 	 	 	 	 	 	 	 	1581548754	6.95	12.87
12/02/2020 23:05:55	120220	12022020	230555	235.26	12.197165	-57.118583	235.13	-0.370	0.130	0.630	235.19	-1.10	1.20	 	 	 	 	 	 	 	 	 	 	 	 	 	 	 	 	 	 	1581548755	7.26	13.45
12/02/2020 23:05:56	120220	12022020	230556	234.85	12.197148	-57.118615	234.80	-0.380	0.590	1.140	234.79	-0.70	1.60	 	 	 	 	 	 	 	 	 	 	 	 	 	 	 	 	 	 	1581548756	7.30	13.52
12/02/2020 23:05:57	120220	12022020	230557	234.64	12.197130	-57.118645	234.56	-0.220	0.720	1.390	234.60	-0.70	1.80	 	 	 	 	 	 	 	 	 	 	 	 	 	 	 	 	 	 	1581548757	7.38	13.67
12/02/2020 23:05:58	120220	12022020	230558	234.43	12.197112	-57.118675	234.40	0.030	0.350	1.430	234.42	-1.20	1.80	 	 	 	 	 	 	 	 	 	 	 	 	 	 	 	 	 	 	1581548758	7.69	14.24
12/02/2020 23:05:59	120220	12022020	230559	234.39	12.197093	-57.118707	234.38	0.210	-0.200	1.400	234.40	-1.70	1.80	 	 	 	 	 	 	 	 	 	 	 	 	 	 	 	 	 	 	1581548759	7.79	14.43
12/02/2020 23:06:00	120220	12022020	230600	234.52	12.197075	-57.118737	234.53	0.250	-0.480	1.320	234.57	-1.90	1.70	 	 	 	 	 	 	 	 	 	 	 	 	 	 	 	 	 	 	1581548760	7.45	13.80
12/02/2020 23:06:01	120220	12022020	230601	234.77	12.197060	-57.118767	234.77	0.190	-0.560	1.270	234.81	-2.00	1.70	1015.30	26.40	27.20	20.80	21.00	-2.0	71.0	69.0	390.0	25.9	198.00	6.30	66.00	10.00	17	11242.0	27.5	27.5	1581548761	7.08	13.11
12/02/2020 23:06:02	120220	12022020	230602	234.93	12.197043	-57.118797	234.92	0.100	-0.680	1.300	234.94	-2.10	1.70	 	 	 	 	 	 	 	 	 	 	 	 	 	 	 	 	 	 	1581548762	7.14	13.22
12/02/2020 23:06:03	120220	12022020	230603	235.02	12.197027	-57.118827	235.02	0.020	-0.800	1.160	235.05	-2.20	1.50	 	 	 	 	 	 	 	 	 	 	 	 	 	 	 	 	 	 	1581548763	7.33	13.58
12/02/2020 23:06:04	120220	12022020	230604	235.24	12.197008	-57.118855	235.24	0.040	-0.660	0.660	235.28	-2.00	0.90	 	 	 	 	 	 	 	 	 	 	 	 	 	 	 	 	 	 	1581548764	7.22	13.37
12/02/2020 23:06:05	120220	12022020	230605	235.46	12.196988	-57.118882	235.46	0.130	-0.330	0.080	235.49	-1.60	0.40	 	 	 	 	 	 	 	 	 	 	 	 	 	 	 	 	 	 	1581548765	7.07	13.09
12/02/2020 23:06:06	120220	12022020	230606	235.54	12.196967	-57.118907	235.52	0.190	-0.090	-0.170	235.53	-1.50	0.20	 	 	 	 	 	 	 	 	 	 	 	 	 	 	 	 	 	 	1581548766	7.21	13.35
12/02/2020 23:06:07	120220	12022020	230607	235.40	12.196945	-57.118935	235.35	0.100	-0.070	0.100	235.35	-1.50	0.60	 	 	 	 	 	 	 	 	 	 	 	 	 	 	 	 	 	 	1581548767	7.46	13.82
12/02/2020 23:06:08	120220	12022020	230608	235.09	12.196928	-57.118967	235.03	-0.180	-0.110	0.890	235.02	-1.50	1.50	 	 	 	 	 	 	 	 	 	 	 	 	 	 	 	 	 	 	1581548768	7.59	14.06
12/02/2020 23:06:09	120220	12022020	230609	234.80	12.196913	-57.119000	234.78	-0.520	-0.040	1.820	234.77	-1.40	2.40	 	 	 	 	 	 	 	 	 	 	 	 	 	 	 	 	 	 	1581548769	7.58	14.04
12/02/2020 23:06:10	120220	12022020	230610	234.83	12.196900	-57.119032	234.88	-0.680	0.070	2.190	234.89	-1.30	2.60	 	 	 	 	 	 	 	 	 	 	 	 	 	 	 	 	 	 	1581548770	7.40	13.70
12/02/2020 23:06:11	120220	12022020	230611	235.21	12.196885	-57.119062	235.26	-0.430	0.020	1.890	235.30	-1.40	2.20	 	 	 	 	 	 	 	 	 	 	 	 	 	 	 	 	 	 	1581548771	7.27	13.46
12/02/2020 23:06:12	120220	12022020	230612	235.65	12.196867	-57.119092	235.68	0.180	-0.360	1.270	235.73	-1.90	1.50	 	 	 	 	 	 	 	 	 	 	 	 	 	 	 	 	 	 	1581548772	7.48	13.85
12/02/2020 23:06:13	120220	12022020	230613	235.91	12.196845	-57.119122	235.88	0.740	-0.800	0.770	235.91	-2.20	1.10	 	 	 	 	 	 	 	 	 	 	 	 	 	 	 	 	 	 	1581548773	7.69	14.24
12/02/2020 23:06:14	120220	12022020	230614	235.77	12.196825	-57.119150	235.71	0.860	-0.860	0.710	235.71	-2.20	1.10	 	 	 	 	 	 	 	 	 	 	 	 	 	 	 	 	 	 	1581548774	7.50	13.89
12/02/2020 23:06:15	120220	12022020	230615	235.44	12.196808	-57.119178	235.38	0.470	-0.420	0.910	235.38	-1.70	1.40	 	 	 	 	 	 	 	 	 	 	 	 	 	 	 	 	 	 	1581548775	7.07	13.09
12/02/2020 23:06:16	120220	12022020	230616	235.28	12.196793	-57.119207	235.29	-0.150	0.240	1.020	235.31	-1.00	1.40	 	 	 	 	 	 	 	 	 	 	 	 	 	 	 	 	 	 	1581548776	6.82	12.63
12/02/2020 23:06:17	120220	12022020	230617	235.55	12.196778	-57.119235	235.59	-0.580	0.670	0.740	235.65	-0.70	1.00	 	 	 	 	 	 	 	 	 	 	 	 	 	 	 	 	 	 	1581548777	6.84	12.67
12/02/2020 23:06:18	120220	12022020	230618	236.12	12.196760	-57.119265	236.16	-0.560	0.470	0.170	236.24	-1.10	0.40	 	 	 	 	 	 	 	 	 	 	 	 	 	 	 	 	 	 	1581548778	7.25	13.43
12/02/2020 23:06:19	120220	12022020	230619	236.63	12.196738	-57.119295	236.63	-0.130	-0.390	-0.240	236.69	-2.00	0.10	 	 	 	 	 	 	 	 	 	 	 	 	 	 	 	 	 	 	1581548779	7.92	14.67
12/02/2020 23:06:20	120220	12022020	230620	236.81	12.196717	-57.119327	236.77	0.310	-1.330	-0.150	236.81	-2.80	0.30	 	 	 	 	 	 	 	 	 	 	 	 	 	 	 	 	 	 	1581548780	8.25	15.28
12/02/2020 23:06:21	120220	12022020	230621	236.78	12.196698	-57.119358	236.71	0.370	-1.570	0.360	236.76	-2.90	0.90	 	 	 	 	 	 	 	 	 	 	 	 	 	 	 	 	 	 	1581548781	7.77	14.39
12/02/2020 23:06:22	120220	12022020	230622	236.60	12.196685	-57.119388	236.54	0.080	-0.960	1.080	236.55	-2.10	1.60	 	 	 	 	 	 	 	 	 	 	 	 	 	 	 	 	 	 	1581548782	7.05	13.06
12/02/2020 23:06:23	120220	12022020	230623	236.34	12.196673	-57.119418	236.30	-0.230	0.040	1.770	236.29	-1.10	2.30	 	 	 	 	 	 	 	 	 	 	 	 	 	 	 	 	 	 	1581548783	6.73	12.46
12/02/2020 23:06:24	120220	12022020	230624	236.11	12.196660	-57.119448	236.10	-0.310	0.800	2.140	236.08	-0.50	2.50	 	 	 	 	 	 	 	 	 	 	 	 	 	 	 	 	 	 	1581548784	6.85	12.69
12/02/2020 23:06:25	120220	12022020	230625	236.00	12.196643	-57.119478	236.01	-0.120	0.800	2.040	235.99	-0.70	2.40	 	 	 	 	 	 	 	 	 	 	 	 	 	 	 	 	 	 	1581548785	7.40	13.70
12/02/2020 23:06:26	120220	12022020	230626	235.97	12.196625	-57.119512	235.98	0.150	0.230	1.640	235.97	-1.30	1.90	 	 	 	 	 	 	 	 	 	 	 	 	 	 	 	 	 	 	1581548786	7.94	14.70
12/02/2020 23:06:27	120220	12022020	230627	235.99	12.196605	-57.119542	236.01	0.260	-0.300	1.080	236.00	-1.70	1.30	 	 	 	 	 	 	 	 	 	 	 	 	 	 	 	 	 	 	1581548787	7.87	14.58
12/02/2020 23:06:28	120220	12022020	230628	236.15	12.196585	-57.119570	236.18	0.170	-0.460	0.400	236.21	-1.80	0.60	 	 	 	 	 	 	 	 	 	 	 	 	 	 	 	 	 	 	1581548788	7.32	13.56
12/02/2020 23:06:29	120220	12022020	230629	236.48	12.196567	-57.119598	236.50	0.060	-0.470	-0.230	236.56	-1.90	0.00	 	 	 	 	 	 	 	 	 	 	 	 	 	 	 	 	 	 	1581548789	6.99	12.95
12/02/2020 23:06:30	120220	12022020	230630	236.88	12.196548	-57.119625	236.86	0.070	-0.570	-0.620	236.95	-2.00	-0.30	 	 	 	 	 	 	 	 	 	 	 	 	 	 	 	 	 	 	1581548790	7.13	13.20
12/02/2020 23:06:31	120220	12022020	230631	237.19	12.196530	-57.119655	237.16	0.100	-0.820	-0.600	237.23	-2.30	-0.10	 	 	 	 	 	 	 	 	 	 	 	 	 	 	 	 	 	 	1581548791	7.42	13.74
12/02/2020 23:06:32	120220	12022020	230632	237.32	12.196513	-57.119687	237.27	-0.010	-1.020	-0.080	237.32	-2.40	0.50	 	 	 	 	 	 	 	 	 	 	 	 	 	 	 	 	 	 	1581548792	7.65	14.17
12/02/2020 23:06:33	120220	12022020	230633	237.26	12.196498	-57.119720	237.20	-0.270	-0.800	0.750	237.22	-2.00	1.30	 	 	 	 	 	 	 	 	 	 	 	 	 	 	 	 	 	 	1581548793	7.50	13.89
12/02/2020 23:06:34	120220	12022020	230634	237.00	12.196483	-57.119750	236.94	-0.490	-0.130	1.490	236.93	-1.30	2.00	 	 	 	 	 	 	 	 	 	 	 	 	 	 	 	 	 	 	1581548794	7.10	13.15
12/02/2020 23:06:35	120220	12022020	230635	236.69	12.196470	-57.119778	236.55	-0.490	0.520	1.940	236.60	-0.80	2.40	 	 	 	 	 	 	 	 	 	 	 	 	 	 	 	 	 	 	1581548795	6.98	12.93
12/02/2020 23:06:36	120220	12022020	230636	236.24	12.196453	-57.119810	236.23	-0.210	0.710	1.990	236.19	-0.70	2.30	 	 	 	 	 	 	 	 	 	 	 	 	 	 	 	 	 	 	1581548796	7.26	13.45
12/02/2020 23:06:37	120220	12022020	230637	236.03	12.196435	-57.119840	236.02	0.230	0.380	1.820	236.00	-1.10	2.20	 	 	 	 	 	 	 	 	 	 	 	 	 	 	 	 	 	 	1581548797	7.62	14.11
12/02/2020 23:06:38	120220	12022020	230638	235.91	12.196417	-57.119872	235.91	0.600	-0.220	1.650	235.91	-1.70	2.00	 	 	 	 	 	 	 	 	 	 	 	 	 	 	 	 	 	 	1581548798	7.84	14.52
12/02/2020 23:06:39	120220	12022020	230639	235.98	12.196398	-57.119903	236.00	0.670	-0.670	1.460	236.03	-2.10	1.80	 	 	 	 	 	 	 	 	 	 	 	 	 	 	 	 	 	 	1581548799	7.69	14.24
12/02/2020 23:06:40	120220	12022020	230640	236.22	12.196382	-57.119933	236.24	0.420	-0.740	1.250	236.27	-2.10	1.60	 	 	 	 	 	 	 	 	 	 	 	 	 	 	 	 	 	 	1581548800	7.31	13.54
12/02/2020 23:06:41	120220	12022020	230641	236.45	12.196365	-57.119963	236.44	0.060	-0.560	0.930	236.50	-1.90	1.20	 	 	 	 	 	 	 	 	 	 	 	 	 	 	 	 	 	 	1581548801	7.06	13.08
12/02/2020 23:06:42	120220	12022020	230642	236.69	12.196348	-57.119992	236.68	-0.280	-0.420	0.510	236.73	-1.80	0.80	 	 	 	 	 	 	 	 	 	 	 	 	 	 	 	 	 	 	1581548802	7.13	13.20
12/02/2020 23:06:43	120220	12022020	230643	236.86	12.196332	-57.120022	236.82	-0.510	-0.460	0.340	236.87	-1.90	0.70	 	 	 	 	 	 	 	 	 	 	 	 	 	 	 	 	 	 	1581548803	7.38	13.67
12/02/2020 23:06:44	120220	12022020	230644	236.80	12.196315	-57.120053	236.73	-0.500	-0.520	0.470	236.75	-1.90	0.90	 	 	 	 	 	 	 	 	 	 	 	 	 	 	 	 	 	 	1581548804	7.54	13.96
12/02/2020 23:06:45	120220	12022020	230645	236.55	12.196297	-57.120083	236.40	-0.240	-0.370	0.750	236.48	-1.70	1.20	 	 	 	 	 	 	 	 	 	 	 	 	 	 	 	 	 	 	1581548805	7.43	13.76
12/02/2020 23:06:46	120220	12022020	230646	236.16	12.196280	-57.120112	236.11	0.140	-0.050	0.950	236.13	-1.40	1.40	 	 	 	 	 	 	 	 	 	 	 	 	 	 	 	 	 	 	1581548806	7.22	13.37
12/02/2020 23:06:47	120220	12022020	230647	236.04	12.196260	-57.120140	236.02	0.410	0.120	1.000	236.04	-1.30	1.40	 	 	 	 	 	 	 	 	 	 	 	 	 	 	 	 	 	 	1581548807	7.28	13.48
12/02/2020 23:06:48	120220	12022020	230648	236.06	12.196242	-57.120170	236.05	0.450	0.060	1.110	236.06	-1.30	1.50	 	 	 	 	 	 	 	 	 	 	 	 	 	 	 	 	 	 	1581548808	7.50	13.89
12/02/2020 23:06:49	120220	12022020	230649	236.08	12.196223	-57.120202	236.08	0.270	-0.020	1.320	236.08	-1.40	1.80	 	 	 	 	 	 	 	 	 	 	 	 	 	 	 	 	 	 	1581548809	7.53	13.95
12/02/2020 23:06:50	120220	12022020	230650	236.01	12.196208	-57.120233	235.99	0.020	-0.100	1.670	235.98	-1.50	2.10	 	 	 	 	 	 	 	 	 	 	 	 	 	 	 	 	 	 	1581548810	7.47	13.83
12/02/2020 23:06:51	120220	12022020	230651	235.89	12.196195	-57.120265	235.89	-0.160	-0.200	2.000	235.88	-1.60	2.40	 	 	 	 	 	 	 	 	 	 	 	 	 	 	 	 	 	 	1581548811	7.49	13.87
12/02/2020 23:06:52	120220	12022020	230652	235.91	12.196182	-57.120297	235.93	-0.180	-0.250	1.970	235.94	-1.60	2.30	 	 	 	 	 	 	 	 	 	 	 	 	 	 	 	 	 	 	1581548812	7.35	13.61
12/02/2020 23:06:53	120220	12022020	230653	236.13	12.196165	-57.120327	236.15	-0.070	-0.370	1.420	236.19	-1.80	1.70	 	 	 	 	 	 	 	 	 	 	 	 	 	 	 	 	 	 	1581548813	7.21	13.35
12/02/2020 23:06:54	120220	12022020	230654	236.38	12.196145	-57.120357	236.37	0.120	-0.690	0.720	236.41	-2.20	1.00	 	 	 	 	 	 	 	 	 	 	 	 	 	 	 	 	 	 	1581548814	7.45	13.80
12/02/2020 23:06:55	120220	12022020	230655	236.47	12.196123	-57.120385	236.42	0.250	-1.000	0.230	236.45	-2.40	0.60	 	 	 	 	 	 	 	 	 	 	 	 	 	 	 	 	 	 	1581548815	7.69	14.24
12/02/2020 23:06:56	120220	12022020	230656	236.32	12.196103	-57.120413	236.24	0.170	-0.970	0.190	236.26	-2.30	0.60	 	 	 	 	 	 	 	 	 	 	 	 	 	 	 	 	 	 	1581548816	7.57	14.02
12/02/2020 23:06:57	120220	12022020	230657	236.05	12.196085	-57.120443	236.00	-0.100	-0.570	0.380	236.02	-1.80	0.80	 	 	 	 	 	 	 	 	 	 	 	 	 	 	 	 	 	 	1581548817	7.33	13.58
12/02/2020 23:06:58	120220	12022020	230658	235.94	12.196068	-57.120473	235.90	-0.410	-0.050	0.480	235.94	-1.30	0.90	 	 	 	 	 	 	 	 	 	 	 	 	 	 	 	 	 	 	1581548818	7.23	13.39
12/02/2020 23:06:59	120220	12022020	230659	236.03	12.196052	-57.120503	236.03	-0.490	0.360	0.570	236.08	-0.90	1.00	 	 	 	 	 	 	 	 	 	 	 	 	 	 	 	 	 	 	1581548819	7.33	13.58
12/02/2020 23:07:00	120220	12022020	230700	236.33	12.196035	-57.120535	236.34	-0.290	0.600	0.700	236.41	-0.70	1.10	 	 	 	 	 	 	 	 	 	 	 	 	 	 	 	 	 	 	1581548820	7.39	13.69
12/02/2020 23:07:01	120220	12022020	230701	236.70	12.196020	-57.120565	236.70	0.040	0.580	0.820	236.76	-0.80	1.20	1015.30	26.50	27.60	20.90	21.30	-2.0	71.0	68.0	390.0	25.9	197.00	6.70	67.00	10.40	16	10945.0	27.5	27.5	1581548821	7.41	13.72
12/02/2020 23:07:02	120220	12022020	230702	236.87	12.196003	-57.120597	236.84	0.280	0.230	1.040	236.86	-1.30	1.50	 	 	 	 	 	 	 	 	 	 	 	 	 	 	 	 	 	 	1581548822	7.52	13.93
12/02/2020 23:07:03	120220	12022020	230703	236.71	12.195985	-57.120628	236.65	0.350	-0.300	1.370	236.65	-1.80	1.80	 	 	 	 	 	 	 	 	 	 	 	 	 	 	 	 	 	 	1581548823	7.66	14.19
12/02/2020 23:07:04	120220	12022020	230704	236.44	12.195968	-57.120660	236.40	0.310	-0.690	1.630	236.40	-2.10	2.00	 	 	 	 	 	 	 	 	 	 	 	 	 	 	 	 	 	 	1581548824	7.59	14.06
12/02/2020 23:07:05	120220	12022020	230705	236.28	12.195953	-57.120692	236.25	0.240	-0.820	1.640	236.26	-2.20	2.00	 	 	 	 	 	 	 	 	 	 	 	 	 	 	 	 	 	 	1581548825	7.35	13.61
12/02/2020 23:07:06	120220	12022020	230706	236.16	12.195937	-57.120720	236.12	0.190	-0.780	1.350	236.13	-2.10	1.70	 	 	 	 	 	 	 	 	 	 	 	 	 	 	 	 	 	 	1581548826	7.20	13.33
12/02/2020 23:07:07	120220	12022020	230707	236.02	12.195917	-57.120748	235.98	0.160	-0.700	0.890	236.00	-2.00	1.20	 	 	 	 	 	 	 	 	 	 	 	 	 	 	 	 	 	 	1581548827	7.27	13.46
12/02/2020 23:07:08	120220	12022020	230708	236.06	12.195897	-57.120777	236.05	0.040	-0.590	0.360	236.10	-1.90	0.70	 	 	 	 	 	 	 	 	 	 	 	 	 	 	 	 	 	 	1581548828	7.33	13.58
12/02/2020 23:07:09	120220	12022020	230709	236.30	12.195878	-57.120807	236.28	-0.190	-0.550	0.050	236.35	-1.90	0.50	 	 	 	 	 	 	 	 	 	 	 	 	 	 	 	 	 	 	1581548829	7.47	13.83
12/02/2020 23:07:10	120220	12022020	230710	236.49	12.195860	-57.120837	236.45	-0.430	-0.620	0.230	236.51	-2.00	0.70	 	 	 	 	 	 	 	 	 	 	 	 	 	 	 	 	 	 	1581548830	7.69	14.24
12/02/2020 23:07:11	120220	12022020	230711	236.51	12.195843	-57.120870	236.46	-0.540	-0.570	0.710	236.49	-1.90	1.20	 	 	 	 	 	 	 	 	 	 	 	 	 	 	 	 	 	 	1581548831	7.85	14.54
12/02/2020 23:07:12	120220	12022020	230712	236.45	12.195828	-57.120903	236.43	-0.470	-0.140	1.180	236.47	-1.30	1.60	 	 	 	 	 	 	 	 	 	 	 	 	 	 	 	 	 	 	1581548832	7.62	14.11
12/02/2020 23:07:13	120220	12022020	230713	236.56	12.195813	-57.120933	236.55	-0.270	0.600	1.360	236.59	-0.60	1.80	 	 	 	 	 	 	 	 	 	 	 	 	 	 	 	 	 	 	1581548833	7.13	13.20
12/02/2020 23:07:14	120220	12022020	230714	236.65	12.195797	-57.120962	236.62	0.030	1.030	1.410	236.64	-0.30	1.80	 	 	 	 	 	 	 	 	 	 	 	 	 	 	 	 	 	 	1581548834	7.06	13.08
12/02/2020 23:07:15	120220	12022020	230715	236.50	12.195778	-57.120993	236.46	0.370	0.810	1.480	236.45	-0.70	1.90	 	 	 	 	 	 	 	 	 	 	 	 	 	 	 	 	 	 	1581548835	7.50	13.89
12/02/2020 23:07:16	120220	12022020	230716	236.24	12.195760	-57.121025	236.19	0.580	0.240	1.480	236.17	-1.30	1.90	 	 	 	 	 	 	 	 	 	 	 	 	 	 	 	 	 	 	1581548836	7.75	14.35
12/02/2020 23:07:17	120220	12022020	230717	236.00	12.195742	-57.121055	235.96	0.560	-0.420	1.290	235.97	-1.90	1.60	 	 	 	 	 	 	 	 	 	 	 	 	 	 	 	 	 	 	1581548837	7.65	14.17
12/02/2020 23:07:18	120220	12022020	230718	235.92	12.195723	-57.121087	235.90	0.380	-1.070	0.860	235.93	-2.60	1.10	 	 	 	 	 	 	 	 	 	 	 	 	 	 	 	 	 	 	1581548838	7.55	13.98
12/02/2020 23:07:19	120220	12022020	230719	235.98	12.195703	-57.121115	235.96	0.150	-1.560	0.270	236.01	-3.00	0.50	 	 	 	 	 	 	 	 	 	 	 	 	 	 	 	 	 	 	1581548839	7.55	13.98
12/02/2020 23:07:20	120220	12022020	230720	236.14	12.195683	-57.121143	236.11	-0.090	-1.650	-0.180	236.19	-3.00	0.20	 	 	 	 	 	 	 	 	 	 	 	 	 	 	 	 	 	 	1581548840	7.46	13.82
12/02/2020 23:07:21	120220	12022020	230721	236.38	12.195665	-57.121172	236.35	-0.320	-1.230	-0.220	236.43	-2.40	0.30	 	 	 	 	 	 	 	 	 	 	 	 	 	 	 	 	 	 	1581548841	7.23	13.39
12/02/2020 23:07:22	120220	12022020	230722	236.60	12.195648	-57.121202	236.56	-0.510	-0.550	0.170	236.63	-1.80	0.70	 	 	 	 	 	 	 	 	 	 	 	 	 	 	 	 	 	 	1581548842	7.16	13.26
12/02/2020 23:07:23	120220	12022020	230723	236.63	12.195633	-57.121233	236.55	-0.520	0.060	0.750	236.61	-1.20	1.30	 	 	 	 	 	 	 	 	 	 	 	 	 	 	 	 	 	 	1581548843	7.42	13.74
12/02/2020 23:07:24	120220	12022020	230724	236.41	12.195620	-57.121267	236.33	-0.350	0.540	1.330	236.34	-0.70	1.80	 	 	 	 	 	 	 	 	 	 	 	 	 	 	 	 	 	 	1581548844	7.62	14.11
12/02/2020 23:07:25	120220	12022020	230725	236.14	12.195605	-57.121300	236.01	-0.080	0.800	1.800	236.07	-0.60	2.30	 	 	 	 	 	 	 	 	 	 	 	 	 	 	 	 	 	 	1581548845	7.70	14.26
12/02/2020 23:07:26	120220	12022020	230726	235.75	12.195587	-57.121332	235.72	0.150	0.730	1.910	235.71	-0.70	2.20	 	 	 	 	 	 	 	 	 	 	 	 	 	 	 	 	 	 	1581548846	7.78	14.41
12/02/2020 23:07:27	120220	12022020	230727	235.66	12.195568	-57.121362	235.67	0.190	0.450	1.490	235.68	-1.00	1.70	 	 	 	 	 	 	 	 	 	 	 	 	 	 	 	 	 	 	1581548847	7.70	14.26
12/02/2020 23:07:28	120220	12022020	230728	235.85	12.195547	-57.121392	235.86	0.110	0.060	0.820	235.91	-1.40	1.10	 	 	 	 	 	 	 	 	 	 	 	 	 	 	 	 	 	 	1581548848	7.54	13.96
12/02/2020 23:07:29	120220	12022020	230729	236.12	12.195527	-57.121420	236.12	0.080	-0.480	0.330	236.17	-2.00	0.70	 	 	 	 	 	 	 	 	 	 	 	 	 	 	 	 	 	 	1581548849	7.51	13.91
12/02/2020 23:07:30	120220	12022020	230730	236.31	12.195508	-57.121450	236.29	0.160	-1.090	0.230	236.33	-2.60	0.70	 	 	 	 	 	 	 	 	 	 	 	 	 	 	 	 	 	 	1581548850	7.60	14.08
12/02/2020 23:07:31	120220	12022020	230731	236.39	12.195490	-57.121480	236.38	0.210	-1.420	0.410	236.40	-2.80	0.90	 	 	 	 	 	 	 	 	 	 	 	 	 	 	 	 	 	 	1581548851	7.55	13.98
12/02/2020 23:07:32	120220	12022020	230732	236.38	12.195473	-57.121512	236.34	0.080	-1.290	0.780	236.36	-2.60	1.30	 	 	 	 	 	 	 	 	 	 	 	 	 	 	 	 	 	 	1581548852	7.32	13.56
12/02/2020 23:07:33	120220	12022020	230733	236.24	12.195460	-57.121542	236.19	-0.140	-0.810	1.250	236.20	-2.10	1.80	 	 	 	 	 	 	 	 	 	 	 	 	 	 	 	 	 	 	1581548853	7.24	13.41
12/02/2020 23:07:34	120220	12022020	230734	236.05	12.195445	-57.121573	236.02	-0.260	-0.240	1.610	236.02	-1.50	2.10	 	 	 	 	 	 	 	 	 	 	 	 	 	 	 	 	 	 	1581548854	7.30	13.52
12/02/2020 23:07:35	120220	12022020	230735	235.89	12.195430	-57.121605	235.84	-0.160	0.200	1.740	235.86	-1.10	2.10	 	 	 	 	 	 	 	 	 	 	 	 	 	 	 	 	 	 	1581548855	7.47	13.83
12/02/2020 23:07:36	120220	12022020	230736	235.75	12.195412	-57.121637	235.75	0.020	0.420	1.600	235.74	-0.90	1.90	 	 	 	 	 	 	 	 	 	 	 	 	 	 	 	 	 	 	1581548856	7.64	14.15
12/02/2020 23:07:37	120220	12022020	230737	235.76	12.195392	-57.121667	235.80	0.120	0.470	1.370	235.78	-0.90	1.70	 	 	 	 	 	 	 	 	 	 	 	 	 	 	 	 	 	 	1581548857	7.68	14.22
12/02/2020 23:07:38	120220	12022020	230738	235.95	12.195373	-57.121697	235.98	0.050	0.410	1.060	235.99	-1.00	1.40	 	 	 	 	 	 	 	 	 	 	 	 	 	 	 	 	 	 	1581548858	7.57	14.02
12/02/2020 23:07:39	120220	12022020	230739	236.14	12.195353	-57.121727	236.14	-0.070	0.140	0.780	236.15	-1.30	1.10	 	 	 	 	 	 	 	 	 	 	 	 	 	 	 	 	 	 	1581548859	7.51	13.91
12/02/2020 23:07:40	120220	12022020	230740	236.16	12.195335	-57.121757	236.15	-0.070	-0.400	0.690	236.16	-1.90	1.10	 	 	 	 	 	 	 	 	 	 	 	 	 	 	 	 	 	 	1581548860	7.71	14.28
12/02/2020 23:07:41	120220	12022020	230741	236.14	12.195315	-57.121788	236.11	0.010	-0.920	0.750	236.14	-2.40	1.20	 	 	 	 	 	 	 	 	 	 	 	 	 	 	 	 	 	 	1581548861	7.79	14.43
12/02/2020 23:07:42	120220	12022020	230742	236.13	12.195298	-57.121820	236.08	0.050	-1.120	0.940	236.11	-2.50	1.40	 	 	 	 	 	 	 	 	 	 	 	 	 	 	 	 	 	 	1581548862	7.59	14.06
12/02/2020 23:07:43	120220	12022020	230743	236.06	12.195282	-57.121850	236.03	-0.020	-0.920	1.160	236.04	-2.20	1.60	 	 	 	 	 	 	 	 	 	 	 	 	 	 	 	 	 	 	1581548863	7.31	13.54
12/02/2020 23:07:44	120220	12022020	230744	235.97	12.195267	-57.121880	235.95	-0.130	-0.490	1.320	235.96	-1.70	1.70	 	 	 	 	 	 	 	 	 	 	 	 	 	 	 	 	 	 	1581548864	7.21	13.35
12/02/2020 23:07:45	120220	12022020	230745	236.02	12.195252	-57.121910	236.03	-0.150	0.050	1.240	236.06	-1.20	1.60	 	 	 	 	 	 	 	 	 	 	 	 	 	 	 	 	 	 	1581548865	7.15	13.24
12/02/2020 23:07:46	120220	12022020	230746	236.26	12.195233	-57.121940	236.28	-0.030	0.460	0.980	236.31	-0.90	1.30	 	 	 	 	 	 	 	 	 	 	 	 	 	 	 	 	 	 	1581548866	7.17	13.28
12/02/2020 23:07:47	120220	12022020	230747	236.41	12.195215	-57.121968	236.40	0.160	0.410	0.780	236.41	-1.10	1.20	 	 	 	 	 	 	 	 	 	 	 	 	 	 	 	 	 	 	1581548867	7.50	13.89
12/02/2020 23:07:48	120220	12022020	230748	236.32	12.195195	-57.122000	236.29	0.290	-0.020	0.740	236.29	-1.50	1.10	 	 	 	 	 	 	 	 	 	 	 	 	 	 	 	 	 	 	1581548868	7.87	14.58
12/02/2020 23:07:49	120220	12022020	230749	236.13	12.195177	-57.122032	236.10	0.290	-0.410	0.830	236.08	-1.80	1.30	 	 	 	 	 	 	 	 	 	 	 	 	 	 	 	 	 	 	1581548869	7.82	14.48
12/02/2020 23:07:50	120220	12022020	230750	235.91	12.195158	-57.122063	235.89	0.180	-0.620	1.020	235.87	-2.00	1.50	 	 	 	 	 	 	 	 	 	 	 	 	 	 	 	 	 	 	1581548870	7.60	14.08
12/02/2020 23:07:51	120220	12022020	230751	235.76	12.195142	-57.122095	235.76	0.040	-0.760	1.170	235.75	-2.20	1.60	 	 	 	 	 	 	 	 	 	 	 	 	 	 	 	 	 	 	1581548871	7.55	13.98
12/02/2020 23:07:52	120220	12022020	230752	235.75	12.195125	-57.122127	235.75	-0.140	-0.840	1.330	235.76	-2.20	1.80	 	 	 	 	 	 	 	 	 	 	 	 	 	 	 	 	 	 	1581548872	7.61	14.09
12/02/2020 23:07:53	120220	12022020	230753	235.82	12.195108	-57.122158	235.81	-0.290	-0.740	1.430	235.83	-2.00	1.80	 	 	 	 	 	 	 	 	 	 	 	 	 	 	 	 	 	 	1581548873	7.61	14.09
12/02/2020 23:07:54	120220	12022020	230754	235.90	12.195093	-57.122188	235.90	-0.340	-0.290	1.380	235.92	-1.50	1.70	 	 	 	 	 	 	 	 	 	 	 	 	 	 	 	 	 	 	1581548874	7.37	13.65
12/02/2020 23:07:55	120220	12022020	230755	236.00	12.195077	-57.122218	236.00	-0.280	0.350	1.210	236.02	-0.90	1.60	 	 	 	 	 	 	 	 	 	 	 	 	 	 	 	 	 	 	1581548875	7.06	13.08
12/02/2020 23:07:56	120220	12022020	230756	236.07	12.195058	-57.122247	236.07	-0.130	0.680	0.950	236.08	-0.70	1.30	 	 	 	 	 	 	 	 	 	 	 	 	 	 	 	 	 	 	1581548876	7.16	13.26
12/02/2020 23:07:57	120220	12022020	230757	236.09	12.195037	-57.122277	236.08	0.060	0.430	0.650	236.10	-1.10	1.00	 	 	 	 	 	 	 	 	 	 	 	 	 	 	 	 	 	 	1581548877	7.64	14.15
12/02/2020 23:07:58	120220	12022020	230758	236.13	12.195017	-57.122307	236.11	0.180	-0.190	0.450	236.13	-1.70	0.80	 	 	 	 	 	 	 	 	 	 	 	 	 	 	 	 	 	 	1581548878	7.94	14.70
12/02/2020 23:07:59	120220	12022020	230759	236.16	12.194997	-57.122338	236.13	0.220	-0.790	0.460	236.16	-2.30	0.90	 	 	 	 	 	 	 	 	 	 	 	 	 	 	 	 	 	 	1581548879	7.96	14.74
12/02/2020 23:08:00	120220	12022020	230800	236.22	12.194980	-57.122370	236.20	0.220	-0.980	0.620	236.24	-2.30	1.10	 	 	 	 	 	 	 	 	 	 	 	 	 	 	 	 	 	 	1581548880	7.64	14.15
12/02/2020 23:08:01	120220	12022020	230801	236.30	12.194963	-57.122400	236.30	0.170	-0.710	0.890	236.31	-2.00	1.40	1015.40	26.60	30.20	21.20	22.30	-2.0	71.0	63.0	390.0	25.9	194.00	6.20	65.00	10.00	16	10784.0	27.5	27.5	1581548881	7.14	13.22
12/02/2020 23:08:02	120220	12022020	230802	236.26	12.194948	-57.122430	236.23	0.110	-0.360	1.230	236.22	-1.70	1.70	 	 	 	 	 	 	 	 	 	 	 	 	 	 	 	 	 	 	1581548882	7.07	13.09
12/02/2020 23:08:03	120220	12022020	230803	236.00	12.194933	-57.122462	235.95	0.050	-0.240	1.550	235.94	-1.60	2.00	 	 	 	 	 	 	 	 	 	 	 	 	 	 	 	 	 	 	1581548883	7.45	13.80
12/02/2020 23:08:04	120220	12022020	230804	235.76	12.194917	-57.122493	235.73	-0.060	-0.190	1.680	235.74	-1.50	2.10	 	 	 	 	 	 	 	 	 	 	 	 	 	 	 	 	 	 	1581548884	7.67	14.20
12/02/2020 23:08:05	120220	12022020	230805	235.71	12.194900	-57.122525	235.71	-0.210	-0.130	1.570	235.71	-1.50	1.90	 	 	 	 	 	 	 	 	 	 	 	 	 	 	 	 	 	 	1581548885	7.62	14.11
12/02/2020 23:08:06	120220	12022020	230806	235.77	12.194882	-57.122555	235.78	-0.310	-0.160	1.310	235.80	-1.50	1.60	 	 	 	 	 	 	 	 	 	 	 	 	 	 	 	 	 	 	1581548886	7.63	14.13
12/02/2020 23:08:07	120220	12022020	230807	235.93	12.194862	-57.122587	235.95	-0.250	-0.220	1.020	235.97	-1.60	1.40	 	 	 	 	 	 	 	 	 	 	 	 	 	 	 	 	 	 	1581548887	7.63	14.13
12/02/2020 23:08:08	120220	12022020	230808	236.10	12.194843	-57.122617	236.13	-0.060	-0.310	0.780	236.13	-1.70	1.10	 	 	 	 	 	 	 	 	 	 	 	 	 	 	 	 	 	 	1581548888	7.62	14.11
12/02/2020 23:08:09	120220	12022020	230809	236.24	12.194825	-57.122647	236.25	0.090	-0.400	0.610	236.26	-1.80	1.00	 	 	 	 	 	 	 	 	 	 	 	 	 	 	 	 	 	 	1581548889	7.62	14.11
12/02/2020 23:08:10	120220	12022020	230810	236.28	12.194807	-57.122678	236.28	0.070	-0.420	0.590	236.27	-1.80	1.00	 	 	 	 	 	 	 	 	 	 	 	 	 	 	 	 	 	 	1581548890	7.58	14.04
12/02/2020 23:08:11	120220	12022020	230811	236.20	12.194790	-57.122708	236.18	-0.070	-0.280	0.660	236.19	-1.60	1.10	 	 	 	 	 	 	 	 	 	 	 	 	 	 	 	 	 	 	1581548891	7.48	13.85
12/02/2020 23:08:12	120220	12022020	230812	236.18	12.194773	-57.122738	236.18	-0.180	0.050	0.680	236.20	-1.20	1.10	 	 	 	 	 	 	 	 	 	 	 	 	 	 	 	 	 	 	1581548892	7.32	13.56
12/02/2020 23:08:13	120220	12022020	230813	236.32	12.194757	-57.122768	236.34	-0.150	0.420	0.640	236.32	-0.90	1.00	 	 	 	 	 	 	 	 	 	 	 	 	 	 	 	 	 	 	1581548893	7.12	13.19
12/02/2020 23:08:14	120220	12022020	230814	236.65	12.194738	-57.122797	236.67	0.020	0.500	0.610	236.72	-0.90	1.00	 	 	 	 	 	 	 	 	 	 	 	 	 	 	 	 	 	 	1581548894	7.17	13.28
12/02/2020 23:08:15	120220	12022020	230815	237.00	12.194722	-57.122828	237.01	0.230	0.080	0.840	237.04	-1.50	1.30	 	 	 	 	 	 	 	 	 	 	 	 	 	 	 	 	 	 	1581548895	7.49	13.87
12/02/2020 23:08:16	120220	12022020	230816	237.06	12.194705	-57.122862	237.05	0.360	-0.740	1.300	237.03	-2.30	1.80	 	 	 	 	 	 	 	 	 	 	 	 	 	 	 	 	 	 	1581548896	7.87	14.58
12/02/2020 23:08:17	120220	12022020	230817	236.71	12.194688	-57.122895	236.67	0.360	-1.660	1.720	236.59	-3.20	2.20	 	 	 	 	 	 	 	 	 	 	 	 	 	 	 	 	 	 	1581548897	8.17	15.13
12/02/2020 23:08:18	120220	12022020	230818	236.06	12.194670	-57.122928	236.02	0.170	-2.070	2.000	235.93	-3.40	2.40	 	 	 	 	 	 	 	 	 	 	 	 	 	 	 	 	 	 	1581548898	8.11	15.02
12/02/2020 23:08:19	120220	12022020	230819	235.53	12.194653	-57.122960	235.52	-0.190	-1.590	2.040	235.46	-2.70	2.40	 	 	 	 	 	 	 	 	 	 	 	 	 	 	 	 	 	 	1581548899	7.58	14.04
12/02/2020 23:08:20	120220	12022020	230820	235.33	12.194638	-57.122990	235.36	-0.540	-0.490	1.870	235.34	-1.60	2.20	 	 	 	 	 	 	 	 	 	 	 	 	 	 	 	 	 	 	1581548900	7.11	13.17
12/02/2020 23:08:21	120220	12022020	230821	235.49	12.194622	-57.123020	235.54	-0.650	0.640	1.470	235.57	-0.50	1.70	 	 	 	 	 	 	 	 	 	 	 	 	 	 	 	 	 	 	1581548901	7.11	13.17
12/02/2020 23:08:22	120220	12022020	230822	236.06	12.194605	-57.123050	236.16	-0.510	1.380	0.780	236.22	0.10	1.00	 	 	 	 	 	 	 	 	 	 	 	 	 	 	 	 	 	 	1581548902	7.29	13.50
12/02/2020 23:08:23	120220	12022020	230823	236.91	12.194585	-57.123078	236.99	-0.260	1.600	0.080	237.08	0.20	0.30	 	 	 	 	 	 	 	 	 	 	 	 	 	 	 	 	 	 	1581548903	7.50	13.89
12/02/2020 23:08:24	120220	12022020	230824	237.66	12.194565	-57.123108	237.71	-0.010	1.290	-0.360	237.77	-0.20	-0.00	 	 	 	 	 	 	 	 	 	 	 	 	 	 	 	 	 	 	1581548904	7.59	14.06
12/02/2020 23:08:25	120220	12022020	230825	238.04	12.194545	-57.123138	238.03	0.250	0.480	-0.350	238.04	-1.10	0.10	 	 	 	 	 	 	 	 	 	 	 	 	 	 	 	 	 	 	1581548905	7.67	14.20
12/02/2020 23:08:26	120220	12022020	230826	237.95	12.194527	-57.123170	237.89	0.510	-0.640	0.090	237.88	-2.30	0.60	 	 	 	 	 	 	 	 	 	 	 	 	 	 	 	 	 	 	1581548906	7.78	14.41
12/02/2020 23:08:27	120220	12022020	230827	237.59	12.194510	-57.123203	237.39	0.720	-1.750	0.840	237.47	-3.30	1.40	 	 	 	 	 	 	 	 	 	 	 	 	 	 	 	 	 	 	1581548907	7.82	14.48
12/02/2020 23:08:28	120220	12022020	230828	236.73	12.194493	-57.123237	236.66	0.760	-2.480	1.730	236.58	-3.90	2.30	 	 	 	 	 	 	 	 	 	 	 	 	 	 	 	 	 	 	1581548908	7.83	14.50
12/02/2020 23:08:29	120220	12022020	230829	236.02	12.194480	-57.123268	235.99	0.550	-2.420	2.370	235.93	-3.60	2.80	 	 	 	 	 	 	 	 	 	 	 	 	 	 	 	 	 	 	1581548909	7.64	14.15
12/02/2020 23:08:30	120220	12022020	230830	235.70	12.194465	-57.123300	235.71	0.030	-1.540	2.540	235.69	-2.60	2.90	 	 	 	 	 	 	 	 	 	 	 	 	 	 	 	 	 	 	1581548910	7.24	13.41
12/02/2020 23:08:31	120220	12022020	230831	235.71	12.194453	-57.123332	235.75	-0.590	-0.280	2.400	235.74	-1.40	2.70	 	 	 	 	 	 	 	 	 	 	 	 	 	 	 	 	 	 	1581548911	7.12	13.19
12/02/2020 23:08:32	120220	12022020	230832	235.94	12.194438	-57.123363	236.01	-1.010	0.790	1.970	236.02	-0.40	2.20	 	 	 	 	 	 	 	 	 	 	 	 	 	 	 	 	 	 	1581548912	7.33	13.58
12/02/2020 23:08:33	120220	12022020	230833	236.43	12.194420	-57.123393	236.52	-0.970	1.480	1.140	236.57	0.20	1.30	 	 	 	 	 	 	 	 	 	 	 	 	 	 	 	 	 	 	1581548913	7.59	14.06
12/02/2020 23:08:34	120220	12022020	230834	237.20	12.194398	-57.123422	237.28	-0.530	1.740	-0.000	237.37	0.30	0.10	 	 	 	 	 	 	 	 	 	 	 	 	 	 	 	 	 	 	1581548914	7.64	14.15
12/02/2020 23:08:35	120220	12022020	230835	237.95	12.194375	-57.123450	237.98	0.020	1.350	-0.910	238.06	-0.20	-0.60	 	 	 	 	 	 	 	 	 	 	 	 	 	 	 	 	 	 	1581548915	7.84	14.52
12/02/2020 23:08:36	120220	12022020	230836	238.21	12.194352	-57.123480	238.16	0.440	0.310	-0.890	238.17	-1.40	-0.30	 	 	 	 	 	 	 	 	 	 	 	 	 	 	 	 	 	 	1581548916	8.03	14.87
12/02/2020 23:08:37	120220	12022020	230837	237.79	12.194333	-57.123513	237.68	0.580	-0.890	0.030	237.66	-2.50	0.70	 	 	 	 	 	 	 	 	 	 	 	 	 	 	 	 	 	 	1581548917	8.08	14.96
12/02/2020 23:08:38	120220	12022020	230838	237.08	12.194318	-57.123547	236.99	0.500	-1.600	1.310	236.94	-3.00	2.00	 	 	 	 	 	 	 	 	 	 	 	 	 	 	 	 	 	 	1581548918	7.78	14.41
12/02/2020 23:08:39	120220	12022020	230839	236.42	12.194307	-57.123580	236.37	0.380	-1.640	2.310	236.31	-2.90	2.90	 	 	 	 	 	 	 	 	 	 	 	 	 	 	 	 	 	 	1581548919	7.30	13.52
12/02/2020 23:08:40	120220	12022020	230840	235.94	12.194295	-57.123610	235.94	0.280	-1.380	2.740	235.88	-2.70	3.10	 	 	 	 	 	 	 	 	 	 	 	 	 	 	 	 	 	 	1581548920	7.08	13.11
12/02/2020 23:08:41	120220	12022020	230841	235.66	12.194280	-57.123642	235.67	0.180	-1.180	2.690	235.63	-2.50	3.00	 	 	 	 	 	 	 	 	 	 	 	 	 	 	 	 	 	 	1581548921	7.38	13.67
12/02/2020 23:08:42	120220	12022020	230842	235.56	12.194263	-57.123673	235.59	0.020	-0.940	2.320	235.57	-2.20	2.60	 	 	 	 	 	 	 	 	 	 	 	 	 	 	 	 	 	 	1581548922	7.70	14.26
12/02/2020 23:08:43	120220	12022020	230843	235.75	12.194245	-57.123705	235.80	-0.210	-0.330	1.650	235.83	-1.50	1.90	 	 	 	 	 	 	 	 	 	 	 	 	 	 	 	 	 	 	1581548923	7.58	14.04
12/02/2020 23:08:44	120220	12022020	230844	236.26	12.194227	-57.123733	236.32	-0.440	0.650	0.810	236.39	-0.50	1.00	 	 	 	 	 	 	 	 	 	 	 	 	 	 	 	 	 	 	1581548924	7.13	13.20
12/02/2020 23:08:45	120220	12022020	230845	236.87	12.194207	-57.123760	236.90	-0.490	1.310	0.060	236.98	-0.00	0.30	 	 	 	 	 	 	 	 	 	 	 	 	 	 	 	 	 	 	1581548925	7.11	13.17
12/02/2020 23:08:46	120220	12022020	230846	237.30	12.194185	-57.123788	237.28	-0.260	1.130	-0.280	237.34	-0.40	0.10	 	 	 	 	 	 	 	 	 	 	 	 	 	 	 	 	 	 	1581548926	7.70	14.26
12/02/2020 23:08:47	120220	12022020	230847	237.39	12.194163	-57.123820	237.35	0.090	0.380	-0.090	237.37	-1.20	0.40	 	 	 	 	 	 	 	 	 	 	 	 	 	 	 	 	 	 	1581548927	8.12	15.04
12/02/2020 23:08:48	120220	12022020	230848	237.19	12.194145	-57.123853	237.12	0.340	-0.340	0.510	237.11	-1.80	1.10	 	 	 	 	 	 	 	 	 	 	 	 	 	 	 	 	 	 	1581548928	8.01	14.83
12/02/2020 23:08:49	120220	12022020	230849	236.78	12.194130	-57.123887	236.71	0.370	-0.750	1.320	236.67	-2.20	1.90	 	 	 	 	 	 	 	 	 	 	 	 	 	 	 	 	 	 	1581548929	7.58	14.04
12/02/2020 23:08:50	120220	12022020	230850	236.21	12.194117	-57.123918	236.15	0.290	-0.980	2.100	236.09	-2.40	2.60	 	 	 	 	 	 	 	 	 	 	 	 	 	 	 	 	 	 	1581548930	7.39	13.69
12/02/2020 23:08:51	120220	12022020	230851	235.66	12.194103	-57.123950	235.64	0.220	-1.030	2.470	235.58	-2.40	2.80	 	 	 	 	 	 	 	 	 	 	 	 	 	 	 	 	 	 	1581548931	7.35	13.61
12/02/2020 23:08:52	120220	12022020	230852	235.47	12.194087	-57.123980	235.49	0.170	-0.870	2.130	235.48	-2.20	2.40	 	 	 	 	 	 	 	 	 	 	 	 	 	 	 	 	 	 	1581548932	7.18	13.30
12/02/2020 23:08:53	120220	12022020	230853	235.73	12.194068	-57.124008	235.78	0.110	-0.700	1.280	235.82	-2.00	1.40	 	 	 	 	 	 	 	 	 	 	 	 	 	 	 	 	 	 	1581548933	7.21	13.35
12/02/2020 23:08:54	120220	12022020	230854	236.27	12.194047	-57.124037	236.32	0.020	-0.610	0.370	236.38	-2.00	0.60	 	 	 	 	 	 	 	 	 	 	 	 	 	 	 	 	 	 	1581548934	7.50	13.89
12/02/2020 23:08:55	120220	12022020	230855	236.85	12.194027	-57.124065	236.89	-0.130	-0.510	-0.230	236.96	-1.80	0.10	 	 	 	 	 	 	 	 	 	 	 	 	 	 	 	 	 	 	1581548935	7.71	14.28
12/02/2020 23:08:56	120220	12022020	230856	237.31	12.194007	-57.124095	237.30	-0.310	-0.140	-0.350	237.38	-1.40	0.10	 	 	 	 	 	 	 	 	 	 	 	 	 	 	 	 	 	 	1581548936	7.60	14.08
12/02/2020 23:08:57	120220	12022020	230857	237.54	12.193990	-57.124125	237.50	-0.420	0.480	-0.050	237.55	-0.80	0.50	 	 	 	 	 	 	 	 	 	 	 	 	 	 	 	 	 	 	1581548937	7.26	13.45
12/02/2020 23:08:58	120220	12022020	230858	237.47	12.193973	-57.124155	237.41	-0.350	0.850	0.460	237.42	-0.50	1.00	 	 	 	 	 	 	 	 	 	 	 	 	 	 	 	 	 	 	1581548938	7.25	13.43
12/02/2020 23:08:59	120220	12022020	230859	237.10	12.193957	-57.124188	237.03	-0.080	0.550	0.970	237.00	-1.00	1.40	 	 	 	 	 	 	 	 	 	 	 	 	 	 	 	 	 	 	1581548939	7.75	14.35
12/02/2020 23:09:00	120220	12022020	230900	236.66	12.193940	-57.124222	236.60	0.220	-0.120	1.250	236.58	-1.60	1.70	 	 	 	 	 	 	 	 	 	 	 	 	 	 	 	 	 	 	1581548940	8.09	14.98
12/02/2020 23:09:01	120220	12022020	230901	236.28	12.193922	-57.124255	236.24	0.340	-0.680	1.400	236.21	-2.10	1.80	1015.40	26.60	28.80	21.20	21.60	-2.0	72.0	64.0	391.0	25.9	200.00	5.90	69.00	9.60	16	10960.0	27.5	27.5	1581548941	7.88	14.59
12/02/2020 23:09:02	120220	12022020	230902	235.92	12.193905	-57.124287	235.90	0.260	-0.970	1.550	235.86	-2.30	1.90	 	 	 	 	 	 	 	 	 	 	 	 	 	 	 	 	 	 	1581548942	7.60	14.08
12/02/2020 23:09:03	120220	12022020	230903	235.77	12.193890	-57.124317	235.78	0.060	-0.840	1.510	235.77	-2.10	1.80	 	 	 	 	 	 	 	 	 	 	 	 	 	 	 	 	 	 	1581548943	7.26	13.45
12/02/2020 23:09:04	120220	12022020	230904	235.99	12.193875	-57.124345	236.05	-0.110	-0.330	1.200	236.07	-1.60	1.50	 	 	 	 	 	 	 	 	 	 	 	 	 	 	 	 	 	 	1581548944	6.87	12.72
12/02/2020 23:09:05	120220	12022020	230905	236.42	12.193858	-57.124373	236.45	-0.130	0.110	0.670	236.50	-1.20	0.90	 	 	 	 	 	 	 	 	 	 	 	 	 	 	 	 	 	 	1581548945	6.81	12.61
12/02/2020 23:09:06	120220	12022020	230906	236.81	12.193838	-57.124400	236.82	0.050	0.000	0.070	236.87	-1.50	0.30	 	 	 	 	 	 	 	 	 	 	 	 	 	 	 	 	 	 	1581548946	7.35	13.61
12/02/2020 23:09:07	120220	12022020	230907	237.06	12.193815	-57.124430	237.06	0.280	-0.490	-0.350	237.09	-2.00	0.00	 	 	 	 	 	 	 	 	 	 	 	 	 	 	 	 	 	 	1581548947	7.94	14.70
12/02/2020 23:09:08	120220	12022020	230908	237.09	12.193795	-57.124462	237.05	0.330	-0.850	-0.330	237.06	-2.20	0.10	 	 	 	 	 	 	 	 	 	 	 	 	 	 	 	 	 	 	1581548948	7.97	14.76
12/02/2020 23:09:09	120220	12022020	230909	236.88	12.193777	-57.124493	236.83	0.120	-0.750	0.190	236.83	-2.00	0.70	 	 	 	 	 	 	 	 	 	 	 	 	 	 	 	 	 	 	1581548949	7.63	14.13
12/02/2020 23:09:10	120220	12022020	230910	236.67	12.193763	-57.124525	236.64	-0.200	-0.230	0.960	236.64	-1.50	1.50	 	 	 	 	 	 	 	 	 	 	 	 	 	 	 	 	 	 	1581548950	7.29	13.50
12/02/2020 23:09:11	120220	12022020	230911	236.55	12.193752	-57.124557	236.54	-0.390	0.270	1.590	236.53	-1.00	2.10	 	 	 	 	 	 	 	 	 	 	 	 	 	 	 	 	 	 	1581548951	7.19	13.32
12/02/2020 23:09:12	120220	12022020	230912	236.49	12.193737	-57.124588	236.50	-0.330	0.260	1.800	236.48	-1.20	2.20	 	 	 	 	 	 	 	 	 	 	 	 	 	 	 	 	 	 	1581548952	7.52	13.93
12/02/2020 23:09:13	120220	12022020	230913	236.44	12.193718	-57.124622	236.45	-0.090	-0.210	1.590	236.43	-1.70	1.90	 	 	 	 	 	 	 	 	 	 	 	 	 	 	 	 	 	 	1581548953	7.96	14.74
12/02/2020 23:09:14	120220	12022020	230914	236.41	12.193697	-57.124653	236.42	0.170	-0.660	1.180	236.39	-2.10	1.50	 	 	 	 	 	 	 	 	 	 	 	 	 	 	 	 	 	 	1581548954	8.08	14.96
12/02/2020 23:09:15	120220	12022020	230915	236.33	12.193677	-57.124682	236.32	0.220	-0.600	0.860	236.30	-1.90	1.20	 	 	 	 	 	 	 	 	 	 	 	 	 	 	 	 	 	 	1581548955	7.62	14.11
12/02/2020 23:09:16	120220	12022020	230916	236.23	12.193658	-57.124710	236.24	0.030	-0.030	0.680	236.22	-1.30	1.00	 	 	 	 	 	 	 	 	 	 	 	 	 	 	 	 	 	 	1581548956	6.99	12.95
12/02/2020 23:09:17	120220	12022020	230917	236.24	12.193643	-57.124738	236.27	-0.240	0.470	0.630	236.26	-0.90	1.00	 	 	 	 	 	 	 	 	 	 	 	 	 	 	 	 	 	 	1581548957	6.80	12.59
12/02/2020 23:09:18	120220	12022020	230918	236.35	12.193627	-57.124768	236.38	-0.330	0.360	0.770	236.38	-1.10	1.20	 	 	 	 	 	 	 	 	 	 	 	 	 	 	 	 	 	 	1581548958	7.30	13.52
12/02/2020 23:09:19	120220	12022020	230919	236.56	12.193610	-57.124802	236.60	-0.130	-0.220	0.890	236.61	-1.70	1.30	 	 	 	 	 	 	 	 	 	 	 	 	 	 	 	 	 	 	1581548959	7.84	14.52
12/02/2020 23:09:20	120220	12022020	230920	236.84	12.193593	-57.124835	236.88	0.250	-0.830	0.900	236.90	-2.30	1.30	 	 	 	 	 	 	 	 	 	 	 	 	 	 	 	 	 	 	1581548960	7.95	14.72
12/02/2020 23:09:21	120220	12022020	230921	237.09	12.193575	-57.124865	237.12	0.550	-1.100	0.790	237.13	-2.40	1.10	 	 	 	 	 	 	 	 	 	 	 	 	 	 	 	 	 	 	1581548961	7.68	14.22
12/02/2020 23:09:22	120220	12022020	230922	237.22	12.193557	-57.124895	237.20	0.530	-0.970	0.670	237.21	-2.30	1.10	 	 	 	 	 	 	 	 	 	 	 	 	 	 	 	 	 	 	1581548962	7.33	13.58
12/02/2020 23:09:23	120220	12022020	230923	237.06	12.193540	-57.124925	237.00	0.270	-0.690	0.820	236.99	-2.00	1.30	 	 	 	 	 	 	 	 	 	 	 	 	 	 	 	 	 	 	1581548963	7.30	13.52
12/02/2020 23:09:24	120220	12022020	230924	236.66	12.193523	-57.124955	236.60	-0.070	-0.360	1.220	236.58	-1.60	1.70	 	 	 	 	 	 	 	 	 	 	 	 	 	 	 	 	 	 	1581548964	7.46	13.82
12/02/2020 23:09:25	120220	12022020	230925	236.37	12.193507	-57.124987	236.36	-0.370	0.100	1.410	236.35	-1.10	1.80	 	 	 	 	 	 	 	 	 	 	 	 	 	 	 	 	 	 	1581548965	7.47	13.83
12/02/2020 23:09:26	120220	12022020	230926	236.44	12.193490	-57.125017	236.47	-0.560	0.530	1.200	236.49	-0.80	1.50	 	 	 	 	 	 	 	 	 	 	 	 	 	 	 	 	 	 	1581548966	7.31	13.54
12/02/2020 23:09:27	120220	12022020	230927	236.73	12.193472	-57.125047	236.76	-0.530	0.650	0.830	236.79	-0.70	1.20	 	 	 	 	 	 	 	 	 	 	 	 	 	 	 	 	 	 	1581548967	7.41	13.72
12/02/2020 23:09:28	120220	12022020	230928	236.98	12.193453	-57.125077	237.00	-0.240	0.390	0.650	237.02	-1.10	1.10	 	 	 	 	 	 	 	 	 	 	 	 	 	 	 	 	 	 	1581548968	7.63	14.13
12/02/2020 23:09:29	120220	12022020	230929	237.11	12.193435	-57.125110	237.11	0.160	-0.160	0.870	237.11	-1.70	1.40	 	 	 	 	 	 	 	 	 	 	 	 	 	 	 	 	 	 	1581548969	7.80	14.45
12/02/2020 23:09:30	120220	12022020	230930	237.10	12.193420	-57.125143	237.10	0.450	-0.720	1.290	237.09	-2.20	1.80	 	 	 	 	 	 	 	 	 	 	 	 	 	 	 	 	 	 	1581548970	7.85	14.54
12/02/2020 23:09:31	120220	12022020	230931	237.02	12.193405	-57.125177	237.02	0.500	-1.060	1.560	237.00	-2.40	1.90	 	 	 	 	 	 	 	 	 	 	 	 	 	 	 	 	 	 	1581548971	7.65	14.17
12/02/2020 23:09:32	120220	12022020	230932	236.93	12.193388	-57.125207	236.93	0.330	-1.080	1.450	236.91	-2.40	1.80	 	 	 	 	 	 	 	 	 	 	 	 	 	 	 	 	 	 	1581548972	7.37	13.65
12/02/2020 23:09:33	120220	12022020	230933	236.81	12.193370	-57.125237	236.79	0.060	-0.950	1.140	236.78	-2.30	1.50	 	 	 	 	 	 	 	 	 	 	 	 	 	 	 	 	 	 	1581548973	7.37	13.65
12/02/2020 23:09:34	120220	12022020	230934	236.70	12.193352	-57.125267	236.69	-0.240	-0.700	0.860	236.70	-2.00	1.20	 	 	 	 	 	 	 	 	 	 	 	 	 	 	 	 	 	 	1581548974	7.51	13.91
12/02/2020 23:09:35	120220	12022020	230935	236.73	12.193333	-57.125297	236.74	-0.460	-0.170	0.720	236.76	-1.40	1.10	 	 	 	 	 	 	 	 	 	 	 	 	 	 	 	 	 	 	1581548975	7.43	13.76
12/02/2020 23:09:36	120220	12022020	230936	236.92	12.193317	-57.125325	236.93	-0.490	0.570	0.710	236.97	-0.60	1.10	 	 	 	 	 	 	 	 	 	 	 	 	 	 	 	 	 	 	1581548976	7.12	13.19
12/02/2020 23:09:37	120220	12022020	230937	237.20	12.193300	-57.125355	237.21	-0.300	0.960	0.830	237.25	-0.40	1.30	 	 	 	 	 	 	 	 	 	 	 	 	 	 	 	 	 	 	1581548977	7.18	13.30
12/02/2020 23:09:38	120220	12022020	230938	237.40	12.193285	-57.125387	237.41	0.010	0.610	1.090	237.42	-0.90	1.50	 	 	 	 	 	 	 	 	 	 	 	 	 	 	 	 	 	 	1581548978	7.71	14.28
12/02/2020 23:09:39	120220	12022020	230939	237.43	12.193268	-57.125422	237.43	0.320	-0.110	1.370	237.42	-1.60	1.80	 	 	 	 	 	 	 	 	 	 	 	 	 	 	 	 	 	 	1581548979	8.07	14.95
12/02/2020 23:09:40	120220	12022020	230940	237.33	12.193252	-57.125455	237.30	0.530	-0.580	1.510	237.30	-2.00	1.90	 	 	 	 	 	 	 	 	 	 	 	 	 	 	 	 	 	 	1581548980	7.77	14.39
12/02/2020 23:09:41	120220	12022020	230941	237.17	12.193237	-57.125485	237.15	0.600	-0.750	1.420	237.15	-2.10	1.70	 	 	 	 	 	 	 	 	 	 	 	 	 	 	 	 	 	 	1581548981	7.36	13.63
12/02/2020 23:09:42	120220	12022020	230942	237.03	12.193218	-57.125515	237.01	0.520	-0.850	1.130	237.00	-2.20	1.40	 	 	 	 	 	 	 	 	 	 	 	 	 	 	 	 	 	 	1581548982	7.30	13.52
12/02/2020 23:09:43	120220	12022020	230943	236.84	12.193200	-57.125545	236.82	0.300	-0.980	0.840	236.81	-2.30	1.20	 	 	 	 	 	 	 	 	 	 	 	 	 	 	 	 	 	 	1581548983	7.51	13.91
12/02/2020 23:09:44	120220	12022020	230944	236.71	12.193180	-57.125575	236.68	-0.070	-0.920	0.620	236.69	-2.20	1.00	 	 	 	 	 	 	 	 	 	 	 	 	 	 	 	 	 	 	1581548984	7.60	14.08
12/02/2020 23:09:45	120220	12022020	230945	236.66	12.193163	-57.125605	236.66	-0.520	-0.590	0.590	236.66	-1.90	1.00	 	 	 	 	 	 	 	 	 	 	 	 	 	 	 	 	 	 	1581548985	7.44	13.78
12/02/2020 23:09:46	120220	12022020	230946	236.65	12.193147	-57.125637	236.66	-0.860	-0.180	0.820	236.64	-1.50	1.30	 	 	 	 	 	 	 	 	 	 	 	 	 	 	 	 	 	 	1581548986	7.44	13.78
12/02/2020 23:09:47	120220	12022020	230947	236.65	12.193132	-57.125668	236.67	-0.920	0.180	1.170	236.66	-1.10	1.60	 	 	 	 	 	 	 	 	 	 	 	 	 	 	 	 	 	 	1581548987	7.58	14.04
12/02/2020 23:09:48	120220	12022020	230948	236.73	12.193117	-57.125702	236.76	-0.650	0.520	1.390	236.75	-0.80	1.80	 	 	 	 	 	 	 	 	 	 	 	 	 	 	 	 	 	 	1581548988	7.53	13.95
12/02/2020 23:09:49	120220	12022020	230949	236.86	12.193102	-57.125732	236.89	-0.120	0.700	1.350	236.89	-0.70	1.70	 	 	 	 	 	 	 	 	 	 	 	 	 	 	 	 	 	 	1581548989	7.41	13.72
12/02/2020 23:09:50	120220	12022020	230950	237.04	12.193083	-57.125763	237.05	0.470	0.440	1.000	237.08	-1.00	1.30	 	 	 	 	 	 	 	 	 	 	 	 	 	 	 	 	 	 	1581548990	7.54	13.96
12/02/2020 23:09:51	120220	12022020	230951	237.23	12.193063	-57.125793	237.25	0.880	-0.110	0.590	237.27	-1.60	0.90	 	 	 	 	 	 	 	 	 	 	 	 	 	 	 	 	 	 	1581548991	7.54	13.96
12/02/2020 23:09:52	120220	12022020	230952	237.32	12.193043	-57.125823	237.30	0.950	-0.680	0.330	237.31	-2.10	0.70	 	 	 	 	 	 	 	 	 	 	 	 	 	 	 	 	 	 	1581548992	7.72	14.30
12/02/2020 23:09:53	120220	12022020	230953	237.20	12.193025	-57.125855	237.16	0.670	-1.090	0.470	237.15	-2.50	1.00	 	 	 	 	 	 	 	 	 	 	 	 	 	 	 	 	 	 	1581548993	7.62	14.11
12/02/2020 23:09:54	120220	12022020	230954	236.88	12.193008	-57.125887	236.83	0.210	-1.270	1.040	236.80	-2.60	1.60	 	 	 	 	 	 	 	 	 	 	 	 	 	 	 	 	 	 	1581548994	7.64	14.15
12/02/2020 23:09:55	120220	12022020	230955	236.47	12.192995	-57.125920	236.44	-0.260	-1.080	1.700	236.40	-2.30	2.20	 	 	 	 	 	 	 	 	 	 	 	 	 	 	 	 	 	 	1581548995	7.56	14.00
12/02/2020 23:09:56	120220	12022020	230956	236.14	12.192980	-57.125952	236.13	-0.620	-0.660	2.090	236.08	-1.90	2.50	 	 	 	 	 	 	 	 	 	 	 	 	 	 	 	 	 	 	1581548996	7.46	13.82
12/02/2020 23:09:57	120220	12022020	230957	235.88	12.192965	-57.125983	235.89	-0.760	-0.260	2.100	235.84	-1.50	2.40	 	 	 	 	 	 	 	 	 	 	 	 	 	 	 	 	 	 	1581548997	7.56	14.00
12/02/2020 23:09:58	120220	12022020	230958	235.78	12.192947	-57.126015	235.82	-0.670	0.070	1.790	235.79	-1.20	2.10	 	 	 	 	 	 	 	 	 	 	 	 	 	 	 	 	 	 	1581548998	7.68	14.22
12/02/2020 23:09:59	120220	12022020	230959	235.95	12.192928	-57.126045	236.01	-0.430	0.500	1.250	236.03	-0.70	1.50	 	 	 	 	 	 	 	 	 	 	 	 	 	 	 	 	 	 	1581548999	7.51	13.91
12/02/2020 23:10:00	120220	12022020	231000	236.40	12.192908	-57.126073	236.46	-0.120	0.880	0.650	236.51	-0.40	0.90	 	 	 	 	 	 	 	 	 	 	 	 	 	 	 	 	 	 	1581549000	7.25	13.43
12/02/2020 23:10:01	120220	12022020	231001	236.89	12.192890	-57.126102	236.92	0.260	0.790	0.300	236.97	-0.70	0.70	1015.40	26.50	27.80	21.10	21.20	-2.0	72.0	67.0	391.0	25.8	203.00	6.00	71.00	9.70	16	11532.0	27.5	27.5	1581549001	7.36	13.63
12/02/2020 23:10:02	120220	12022020	231002	237.17	12.192870	-57.126133	237.18	0.610	0.180	0.420	237.19	-1.40	0.90	 	 	 	 	 	 	 	 	 	 	 	 	 	 	 	 	 	 	1581549002	7.74	14.33
12/02/2020 23:10:03	120220	12022020	231003	237.20	12.192853	-57.126167	237.20	0.760	-0.630	0.820	237.17	-2.20	1.30	 	 	 	 	 	 	 	 	 	 	 	 	 	 	 	 	 	 	1581549003	7.91	14.65
12/02/2020 23:10:04	120220	12022020	231004	236.99	12.192838	-57.126200	236.97	0.610	-1.220	1.390	236.93	-2.60	1.90	 	 	 	 	 	 	 	 	 	 	 	 	 	 	 	 	 	 	1581549004	7.83	14.50
12/02/2020 23:10:05	120220	12022020	231005	236.71	12.192823	-57.126232	236.62	0.260	-1.360	1.790	236.65	-2.70	2.20	 	 	 	 	 	 	 	 	 	 	 	 	 	 	 	 	 	 	1581549005	7.55	13.98
12/02/2020 23:10:06	120220	12022020	231006	236.41	12.192808	-57.126263	236.41	-0.100	-1.150	1.720	236.38	-2.40	2.00	 	 	 	 	 	 	 	 	 	 	 	 	 	 	 	 	 	 	1581549006	7.30	13.52
12/02/2020 23:10:07	120220	12022020	231007	236.38	12.192792	-57.126293	236.42	-0.290	-0.870	1.240	236.41	-2.20	1.50	 	 	 	 	 	 	 	 	 	 	 	 	 	 	 	 	 	 	1581549007	7.30	13.52
12/02/2020 23:10:08	120220	12022020	231008	236.59	12.192770	-57.126322	236.61	-0.340	-0.720	0.670	236.63	-2.00	1.00	 	 	 	 	 	 	 	 	 	 	 	 	 	 	 	 	 	 	1581549008	7.61	14.09
12/02/2020 23:10:09	120220	12022020	231009	236.71	12.192748	-57.126353	236.69	-0.310	-0.640	0.400	236.70	-2.00	0.80	 	 	 	 	 	 	 	 	 	 	 	 	 	 	 	 	 	 	1581549009	7.96	14.74
12/02/2020 23:10:10	120220	12022020	231010	236.62	12.192728	-57.126385	236.60	-0.330	-0.340	0.500	236.60	-1.50	0.90	 	 	 	 	 	 	 	 	 	 	 	 	 	 	 	 	 	 	1581549010	8.04	14.89
12/02/2020 23:10:11	120220	12022020	231011	236.58	12.192712	-57.126415	236.58	-0.450	0.520	0.640	236.60	-0.60	1.00	 	 	 	 	 	 	 	 	 	 	 	 	 	 	 	 	 	 	1581549011	7.53	13.95
12/02/2020 23:10:12	120220	12022020	231012	236.76	12.192697	-57.126445	236.78	-0.520	1.580	0.660	236.81	0.40	1.00	 	 	 	 	 	 	 	 	 	 	 	 	 	 	 	 	 	 	1581549012	6.93	12.83
12/02/2020 23:10:13	120220	12022020	231013	237.07	12.192683	-57.126475	237.09	-0.340	2.010	0.650	237.14	0.60	1.00	 	 	 	 	 	 	 	 	 	 	 	 	 	 	 	 	 	 	1581549013	6.98	12.93
12/02/2020 23:10:14	120220	12022020	231014	237.38	12.192667	-57.126507	237.40	0.150	1.330	0.660	237.44	-0.30	1.00	 	 	 	 	 	 	 	 	 	 	 	 	 	 	 	 	 	 	1581549014	7.58	14.04
12/02/2020 23:10:15	120220	12022020	231015	237.63	12.192650	-57.126542	237.61	0.720	-0.220	0.700	237.66	-2.00	1.10	 	 	 	 	 	 	 	 	 	 	 	 	 	 	 	 	 	 	1581549015	8.17	15.13
12/02/2020 23:10:16	120220	12022020	231016	237.65	12.192633	-57.126577	237.61	1.030	-1.880	0.870	237.62	-3.50	1.30	 	 	 	 	 	 	 	 	 	 	 	 	 	 	 	 	 	 	1581549016	8.31	15.39
12/02/2020 23:10:17	120220	12022020	231017	237.37	12.192617	-57.126610	237.31	0.900	-2.820	1.160	237.28	-4.20	1.60	 	 	 	 	 	 	 	 	 	 	 	 	 	 	 	 	 	 	1581549017	7.90	14.63
12/02/2020 23:10:18	120220	12022020	231018	236.94	12.192602	-57.126640	236.91	0.470	-2.730	1.410	236.88	-3.90	1.80	 	 	 	 	 	 	 	 	 	 	 	 	 	 	 	 	 	 	1581549018	7.31	13.54
12/02/2020 23:10:19	120220	12022020	231019	236.76	12.192585	-57.126668	236.77	-0.040	-1.760	1.330	236.77	-2.80	1.60	 	 	 	 	 	 	 	 	 	 	 	 	 	 	 	 	 	 	1581549019	6.91	12.80
12/02/2020 23:10:20	120220	12022020	231020	236.91	12.192568	-57.126697	236.92	-0.490	-0.440	1.020	236.94	-1.50	1.40	 	 	 	 	 	 	 	 	 	 	 	 	 	 	 	 	 	 	1581549020	6.87	12.72
12/02/2020 23:10:21	120220	12022020	231021	237.07	12.192552	-57.126727	237.07	-0.790	0.600	0.890	237.09	-0.60	1.30	 	 	 	 	 	 	 	 	 	 	 	 	 	 	 	 	 	 	1581549021	7.33	13.58
12/02/2020 23:10:22	120220	12022020	231022	237.22	12.192533	-57.126758	237.23	-0.920	1.220	0.960	237.26	-0.00	1.40	 	 	 	 	 	 	 	 	 	 	 	 	 	 	 	 	 	 	1581549022	7.83	14.50
12/02/2020 23:10:23	120220	12022020	231023	237.48	12.192517	-57.126792	237.51	-0.840	1.530	1.050	237.55	0.20	1.50	 	 	 	 	 	 	 	 	 	 	 	 	 	 	 	 	 	 	1581549023	7.88	14.59
12/02/2020 23:10:24	120220	12022020	231024	237.81	12.192500	-57.126823	237.81	-0.530	1.440	1.120	237.86	-0.00	1.50	 	 	 	 	 	 	 	 	 	 	 	 	 	 	 	 	 	 	1581549024	7.74	14.33
12/02/2020 23:10:25	120220	12022020	231025	237.95	12.192483	-57.126857	237.91	-0.000	0.740	1.180	237.93	-0.90	1.60	 	 	 	 	 	 	 	 	 	 	 	 	 	 	 	 	 	 	1581549025	7.83	14.50
12/02/2020 23:10:26	120220	12022020	231026	237.72	12.192465	-57.126890	237.65	0.580	-0.380	1.320	237.64	-2.00	1.70	 	 	 	 	 	 	 	 	 	 	 	 	 	 	 	 	 	 	1581549026	8.01	14.83
12/02/2020 23:10:27	120220	12022020	231027	237.19	12.192448	-57.126923	237.10	0.910	-1.290	1.490	237.06	-2.80	1.90	 	 	 	 	 	 	 	 	 	 	 	 	 	 	 	 	 	 	1581549027	7.81	14.46
12/02/2020 23:10:28	120220	12022020	231028	236.60	12.192433	-57.126953	236.51	0.870	-1.480	1.620	236.50	-2.80	2.00	 	 	 	 	 	 	 	 	 	 	 	 	 	 	 	 	 	 	1581549028	7.23	13.39
12/02/2020 23:10:29	120220	12022020	231029	236.26	12.192420	-57.126982	236.22	0.570	-1.000	1.470	236.25	-2.20	1.80	 	 	 	 	 	 	 	 	 	 	 	 	 	 	 	 	 	 	1581549029	6.66	12.33
12/02/2020 23:10:30	120220	12022020	231030	236.36	12.192405	-57.127008	236.36	0.250	-0.370	0.980	236.42	-1.60	1.20	 	 	 	 	 	 	 	 	 	 	 	 	 	 	 	 	 	 	1581549030	6.56	12.15
12/02/2020 23:10:31	120220	12022020	231031	236.64	12.192388	-57.127037	236.74	0.050	-0.060	0.370	236.72	-1.40	0.60	 	 	 	 	 	 	 	 	 	 	 	 	 	 	 	 	 	 	1581549031	6.95	12.87
12/02/2020 23:10:32	120220	12022020	231032	237.16	12.192370	-57.127067	237.17	-0.100	-0.150	-0.110	237.23	-1.60	0.20	 	 	 	 	 	 	 	 	 	 	 	 	 	 	 	 	 	 	1581549032	7.48	13.85
12/02/2020 23:10:33	120220	12022020	231033	237.41	12.192350	-57.127098	237.40	-0.240	-0.550	-0.180	237.42	-2.00	0.30	 	 	 	 	 	 	 	 	 	 	 	 	 	 	 	 	 	 	1581549033	7.86	14.56
12/02/2020 23:10:34	120220	12022020	231034	237.37	12.192332	-57.127132	237.34	-0.370	-1.000	0.200	237.33	-2.40	0.70	 	 	 	 	 	 	 	 	 	 	 	 	 	 	 	 	 	 	1581549034	8.10	15.00
12/02/2020 23:10:35	120220	12022020	231035	237.12	12.192313	-57.127165	237.10	-0.480	-1.080	0.830	237.06	-2.40	1.40	 	 	 	 	 	 	 	 	 	 	 	 	 	 	 	 	 	 	1581549035	7.92	14.67
12/02/2020 23:10:36	120220	12022020	231036	236.75	12.192298	-57.127197	236.71	-0.560	-0.710	1.520	236.66	-1.90	2.10	 	 	 	 	 	 	 	 	 	 	 	 	 	 	 	 	 	 	1581549036	7.57	14.02
12/02/2020 23:10:37	120220	12022020	231037	236.31	12.192283	-57.127228	236.29	-0.540	-0.080	2.080	236.22	-1.30	2.60	 	 	 	 	 	 	 	 	 	 	 	 	 	 	 	 	 	 	1581549037	7.38	13.67
12/02/2020 23:10:38	120220	12022020	231038	235.94	12.192268	-57.127258	235.93	-0.380	0.650	2.340	235.88	-0.50	2.70	 	 	 	 	 	 	 	 	 	 	 	 	 	 	 	 	 	 	1581549038	7.24	13.41
12/02/2020 23:10:39	120220	12022020	231039	235.71	12.192253	-57.127288	235.70	-0.050	1.280	2.320	235.69	0.00	2.70	 	 	 	 	 	 	 	 	 	 	 	 	 	 	 	 	 	 	1581549039	7.09	13.13
12/02/2020 23:10:40	120220	12022020	231040	235.61	12.192238	-57.127318	235.61	0.320	1.470	2.090	235.61	0.10	2.40	 	 	 	 	 	 	 	 	 	 	 	 	 	 	 	 	 	 	1581549040	7.10	13.15
12/02/2020 23:10:41	120220	12022020	231041	235.72	12.192222	-57.127348	235.73	0.590	1.050	1.560	235.76	-0.50	1.80	 	 	 	 	 	 	 	 	 	 	 	 	 	 	 	 	 	 	1581549041	7.27	13.46
12/02/2020 23:10:42	120220	12022020	231042	236.00	12.192202	-57.127377	236.01	0.740	0.080	0.800	236.06	-1.60	1.00	 	 	 	 	 	 	 	 	 	 	 	 	 	 	 	 	 	 	1581549042	7.47	13.83
12/02/2020 23:10:43	120220	12022020	231043	236.28	12.192182	-57.127407	236.36	0.780	-1.200	0.090	236.35	-2.80	0.30	 	 	 	 	 	 	 	 	 	 	 	 	 	 	 	 	 	 	1581549043	7.69	14.24
12/02/2020 23:10:44	120220	12022020	231044	236.78	12.192162	-57.127437	236.79	0.640	-2.290	-0.440	236.87	-3.80	-0.10	 	 	 	 	 	 	 	 	 	 	 	 	 	 	 	 	 	 	1581549044	7.75	14.35
12/02/2020 23:10:45	120220	12022020	231045	237.20	12.192143	-57.127467	237.18	0.290	-2.730	-0.570	237.25	-4.10	-0.10	 	 	 	 	 	 	 	 	 	 	 	 	 	 	 	 	 	 	1581549045	7.48	13.85
12/02/2020 23:10:46	120220	12022020	231046	237.30	12.192125	-57.127497	237.26	-0.150	-2.410	-0.130	237.26	-3.60	0.40	 	 	 	 	 	 	 	 	 	 	 	 	 	 	 	 	 	 	1581549046	7.24	13.41
12/02/2020 23:10:47	120220	12022020	231047	236.91	12.192110	-57.127527	236.84	-0.550	-1.510	0.790	236.79	-2.60	1.40	 	 	 	 	 	 	 	 	 	 	 	 	 	 	 	 	 	 	1581549047	7.21	13.35
12/02/2020 23:10:48	120220	12022020	231048	236.27	12.192097	-57.127558	236.20	-0.860	-0.320	1.840	236.14	-1.40	2.50	 	 	 	 	 	 	 	 	 	 	 	 	 	 	 	 	 	 	1581549048	7.38	13.67
12/02/2020 23:10:49	120220	12022020	231049	235.69	12.192083	-57.127592	235.66	-0.970	0.870	2.730	235.59	-0.20	3.30	 	 	 	 	 	 	 	 	 	 	 	 	 	 	 	 	 	 	1581549049	7.64	14.15
12/02/2020 23:10:50	120220	12022020	231050	235.35	12.192072	-57.127627	235.34	-0.800	1.820	3.140	235.32	0.60	3.50	 	 	 	 	 	 	 	 	 	 	 	 	 	 	 	 	 	 	1581549050	7.72	14.30
12/02/2020 23:10:51	120220	12022020	231051	235.41	12.192057	-57.127658	235.46	-0.380	2.260	2.840	235.48	0.90	3.10	 	 	 	 	 	 	 	 	 	 	 	 	 	 	 	 	 	 	1581549051	7.57	14.02
12/02/2020 23:10:52	120220	12022020	231052	235.85	12.192038	-57.127690	235.90	0.190	1.950	1.920	235.96	0.40	2.00	 	 	 	 	 	 	 	 	 	 	 	 	 	 	 	 	 	 	1581549052	7.55	13.98
12/02/2020 23:10:53	120220	12022020	231053	236.43	12.192015	-57.127718	236.47	0.730	0.860	0.740	236.55	-0.80	0.90	 	 	 	 	 	 	 	 	 	 	 	 	 	 	 	 	 	 	1581549053	7.75	14.35
12/02/2020 23:10:54	120220	12022020	231054	236.94	12.191993	-57.127748	236.96	1.030	-0.680	-0.070	237.01	-2.40	0.20	 	 	 	 	 	 	 	 	 	 	 	 	 	 	 	 	 	 	1581549054	7.93	14.69
12/02/2020 23:10:55	120220	12022020	231055	237.17	12.191975	-57.127778	237.19	0.960	-2.030	-0.190	237.20	-3.60	0.30	 	 	 	 	 	 	 	 	 	 	 	 	 	 	 	 	 	 	1581549055	7.75	14.35
12/02/2020 23:10:56	120220	12022020	231056	237.21	12.191960	-57.127810	237.18	0.590	-2.510	0.150	237.18	-3.80	0.70	 	 	 	 	 	 	 	 	 	 	 	 	 	 	 	 	 	 	1581549056	7.23	13.39
12/02/2020 23:10:57	120220	12022020	231057	237.06	12.191947	-57.127838	236.97	0.150	-1.960	0.670	237.01	-3.10	1.20	 	 	 	 	 	 	 	 	 	 	 	 	 	 	 	 	 	 	1581549057	6.55	12.13
12/02/2020 23:10:58	120220	12022020	231058	236.67	12.191933	-57.127865	236.63	-0.160	-1.030	1.250	236.60	-2.20	1.80	 	 	 	 	 	 	 	 	 	 	 	 	 	 	 	 	 	 	1581549058	6.42	11.89
12/02/2020 23:10:59	120220	12022020	231059	236.26	12.191920	-57.127895	236.23	-0.300	-0.400	1.750	236.17	-1.70	2.30	 	 	 	 	 	 	 	 	 	 	 	 	 	 	 	 	 	 	1581549059	7.02	13.00
12/02/2020 23:11:00	120220	12022020	231100	235.76	12.191903	-57.127928	235.74	-0.360	-0.290	2.200	235.66	-1.70	2.70	 	 	 	 	 	 	 	 	 	 	 	 	 	 	 	 	 	 	1581549060	7.85	14.54
12/02/2020 23:11:01	120220	12022020	231101	235.30	12.191885	-57.127963	235.29	-0.400	-0.360	2.460	235.22	-1.70	2.90	1015.40	26.60	28.00	21.20	21.70	-2.0	72.0	68.0	391.0	25.8	192.00	6.10	64.00	9.90	16	11336.0	27.5	27.5	1581549061	8.33	15.43
12/02/2020 23:11:02	120220	12022020	231102	235.05	12.191868	-57.127997	235.06	-0.470	-0.130	2.450	235.04	-1.40	2.80	 	 	 	 	 	 	 	 	 	 	 	 	 	 	 	 	 	 	1581549062	8.16	15.11
12/02/2020 23:11:03	120220	12022020	231103	235.19	12.191852	-57.128028	235.25	-0.500	0.530	2.110	235.27	-0.70	2.40	 	 	 	 	 	 	 	 	 	 	 	 	 	 	 	 	 	 	1581549063	7.51	13.91
12/02/2020 23:11:04	120220	12022020	231104	235.66	12.191837	-57.128058	235.73	-0.400	1.240	1.500	235.77	0.00	1.70	 	 	 	 	 	 	 	 	 	 	 	 	 	 	 	 	 	 	1581549064	7.04	13.04
12/02/2020 23:11:05	120220	12022020	231105	236.19	12.191818	-57.128087	236.23	-0.130	1.540	0.900	236.28	0.20	1.20	 	 	 	 	 	 	 	 	 	 	 	 	 	 	 	 	 	 	1581549065	7.02	13.00
12/02/2020 23:11:06	120220	12022020	231106	236.60	12.191800	-57.128115	236.62	0.200	1.250	0.500	236.67	-0.30	0.80	 	 	 	 	 	 	 	 	 	 	 	 	 	 	 	 	 	 	1581549066	7.20	13.33
12/02/2020 23:11:07	120220	12022020	231107	236.85	12.191782	-57.128143	236.85	0.490	0.360	0.210	236.88	-1.30	0.60	 	 	 	 	 	 	 	 	 	 	 	 	 	 	 	 	 	 	1581549067	7.43	13.76
12/02/2020 23:11:08	120220	12022020	231108	236.86	12.191762	-57.128173	236.81	0.680	-0.820	0.100	236.82	-2.40	0.50	 	 	 	 	 	 	 	 	 	 	 	 	 	 	 	 	 	 	1581549068	7.57	14.02
12/02/2020 23:11:09	120220	12022020	231109	236.53	12.191743	-57.128205	236.45	0.710	-1.850	0.360	236.43	-3.40	0.90	 	 	 	 	 	 	 	 	 	 	 	 	 	 	 	 	 	 	1581549069	7.54	13.96
12/02/2020 23:11:10	120220	12022020	231110	235.93	12.191727	-57.128235	235.85	0.560	-2.420	0.850	235.81	-3.80	1.40	 	 	 	 	 	 	 	 	 	 	 	 	 	 	 	 	 	 	1581549070	7.38	13.67
12/02/2020 23:11:11	120220	12022020	231111	235.26	12.191712	-57.128265	235.19	0.230	-2.370	1.490	235.14	-3.60	2.00	 	 	 	 	 	 	 	 	 	 	 	 	 	 	 	 	 	 	1581549071	7.28	13.48
12/02/2020 23:11:12	120220	12022020	231112	234.69	12.191698	-57.128297	234.65	-0.170	-1.770	2.200	234.59	-2.90	2.70	 	 	 	 	 	 	 	 	 	 	 	 	 	 	 	 	 	 	1581549072	7.32	13.56
12/02/2020 23:11:13	120220	12022020	231113	234.33	12.191685	-57.128330	234.34	-0.500	-0.820	2.770	234.30	-1.90	3.20	 	 	 	 	 	 	 	 	 	 	 	 	 	 	 	 	 	 	1581549073	7.49	13.87
12/02/2020 23:11:14	120220	12022020	231114	234.29	12.191670	-57.128362	234.34	-0.690	0.300	2.910	234.32	-0.80	3.20	 	 	 	 	 	 	 	 	 	 	 	 	 	 	 	 	 	 	1581549074	7.52	13.93
12/02/2020 23:11:15	120220	12022020	231115	234.55	12.191655	-57.128393	234.63	-0.740	1.420	2.510	234.64	0.30	2.70	 	 	 	 	 	 	 	 	 	 	 	 	 	 	 	 	 	 	1581549075	7.32	13.56
12/02/2020 23:11:16	120220	12022020	231116	235.03	12.191637	-57.128422	235.11	-0.630	2.070	1.640	235.13	0.70	1.80	 	 	 	 	 	 	 	 	 	 	 	 	 	 	 	 	 	 	1581549076	7.22	13.37
12/02/2020 23:11:17	120220	12022020	231117	235.48	12.191615	-57.128450	235.52	-0.290	1.890	0.640	235.55	0.40	0.80	 	 	 	 	 	 	 	 	 	 	 	 	 	 	 	 	 	 	1581549077	7.54	13.96
12/02/2020 23:11:18	120220	12022020	231118	235.79	12.191592	-57.128478	235.80	0.160	0.960	-0.230	235.83	-0.70	0.00	 	 	 	 	 	 	 	 	 	 	 	 	 	 	 	 	 	 	1581549078	7.89	14.61
12/02/2020 23:11:19	120220	12022020	231119	235.97	12.191570	-57.128508	235.97	0.500	-0.270	-0.600	235.99	-1.90	-0.20	 	 	 	 	 	 	 	 	 	 	 	 	 	 	 	 	 	 	1581549079	7.86	14.56
12/02/2020 23:11:20	120220	12022020	231120	235.98	12.191550	-57.128538	235.94	0.600	-1.370	-0.300	235.94	-2.90	0.30	 	 	 	 	 	 	 	 	 	 	 	 	 	 	 	 	 	 	1581549080	7.54	13.96
12/02/2020 23:11:21	120220	12022020	231121	235.65	12.191535	-57.128570	235.58	0.550	-2.100	0.660	235.55	-3.50	1.30	 	 	 	 	 	 	 	 	 	 	 	 	 	 	 	 	 	 	1581549081	7.38	13.67
12/02/2020 23:11:22	120220	12022020	231122	235.07	12.191523	-57.128602	235.00	0.460	-2.310	1.800	234.95	-3.60	2.40	 	 	 	 	 	 	 	 	 	 	 	 	 	 	 	 	 	 	1581549082	7.36	13.63
12/02/2020 23:11:23	120220	12022020	231123	234.47	12.191510	-57.128633	234.43	0.280	-1.880	2.650	234.37	-3.00	3.10	 	 	 	 	 	 	 	 	 	 	 	 	 	 	 	 	 	 	1581549083	7.25	13.43
12/02/2020 23:11:24	120220	12022020	231124	234.09	12.191497	-57.128663	234.11	-0.020	-0.900	2.930	234.05	-2.00	3.30	 	 	 	 	 	 	 	 	 	 	 	 	 	 	 	 	 	 	1581549084	7.03	13.02
12/02/2020 23:11:25	120220	12022020	231125	234.03	12.191480	-57.128692	234.07	-0.360	0.280	2.650	234.05	-0.80	2.90	 	 	 	 	 	 	 	 	 	 	 	 	 	 	 	 	 	 	1581549085	6.86	12.70
12/02/2020 23:11:26	120220	12022020	231126	234.21	12.191462	-57.128720	234.29	-0.570	1.070	2.030	234.27	-0.20	2.30	 	 	 	 	 	 	 	 	 	 	 	 	 	 	 	 	 	 	1581549086	7.07	13.09
12/02/2020 23:11:27	120220	12022020	231127	234.50	12.191442	-57.128748	234.58	-0.590	1.050	1.340	234.57	-0.40	1.60	 	 	 	 	 	 	 	 	 	 	 	 	 	 	 	 	 	 	1581549087	7.72	14.30
12/02/2020 23:11:28	120220	12022020	231128	234.80	12.191420	-57.128780	234.85	-0.450	0.580	0.870	234.86	-0.90	1.20	 	 	 	 	 	 	 	 	 	 	 	 	 	 	 	 	 	 	1581549088	8.12	15.04
12/02/2020 23:11:29	120220	12022020	231129	235.10	12.191400	-57.128812	235.16	-0.220	0.220	0.640	235.17	-1.20	1.00	 	 	 	 	 	 	 	 	 	 	 	 	 	 	 	 	 	 	1581549089	7.83	14.50
12/02/2020 23:11:30	120220	12022020	231130	235.49	12.191383	-57.128842	235.54	0.040	0.160	0.410	235.57	-1.20	0.80	 	 	 	 	 	 	 	 	 	 	 	 	 	 	 	 	 	 	1581549090	7.19	13.32
12/02/2020 23:11:31	120220	12022020	231131	235.82	12.191365	-57.128868	235.84	0.300	0.030	0.240	235.86	-1.40	0.60	 	 	 	 	 	 	 	 	 	 	 	 	 	 	 	 	 	 	1581549091	6.86	12.70
12/02/2020 23:11:32	120220	12022020	231132	235.82	12.191347	-57.128897	235.80	0.520	-0.520	0.350	235.77	-2.10	0.80	 	 	 	 	 	 	 	 	 	 	 	 	 	 	 	 	 	 	1581549092	7.20	13.33
12/02/2020 23:11:33	120220	12022020	231133	235.44	12.191328	-57.128927	235.40	0.610	-1.210	0.760	235.35	-2.70	1.30	 	 	 	 	 	 	 	 	 	 	 	 	 	 	 	 	 	 	1581549093	7.60	14.08
12/02/2020 23:11:34	120220	12022020	231134	234.93	12.191312	-57.128958	234.89	0.460	-1.410	1.250	234.84	-2.70	1.80	 	 	 	 	 	 	 	 	 	 	 	 	 	 	 	 	 	 	1581549094	7.45	13.80
12/02/2020 23:11:35	120220	12022020	231135	234.53	12.191297	-57.128987	234.53	0.130	-0.980	1.630	234.48	-2.20	2.10	 	 	 	 	 	 	 	 	 	 	 	 	 	 	 	 	 	 	1581549095	7.00	12.96
12/02/2020 23:11:36	120220	12022020	231136	234.33	12.191283	-57.129017	234.35	-0.170	-0.350	1.760	234.32	-1.60	2.10	 	 	 	 	 	 	 	 	 	 	 	 	 	 	 	 	 	 	1581549096	6.86	12.70
12/02/2020 23:11:37	120220	12022020	231137	234.35	12.191268	-57.129047	234.39	-0.260	0.050	1.610	234.38	-1.30	1.90	 	 	 	 	 	 	 	 	 	 	 	 	 	 	 	 	 	 	1581549097	7.14	13.22
12/02/2020 23:11:38	120220	12022020	231138	234.68	12.191250	-57.129077	234.75	-0.190	0.220	1.140	234.78	-1.10	1.40	 	 	 	 	 	 	 	 	 	 	 	 	 	 	 	 	 	 	1581549098	7.37	13.65
12/02/2020 23:11:39	120220	12022020	231139	235.23	12.191230	-57.129105	235.29	-0.140	0.190	0.570	235.33	-1.20	0.90	 	 	 	 	 	 	 	 	 	 	 	 	 	 	 	 	 	 	1581549099	7.45	13.80
12/02/2020 23:11:40	120220	12022020	231140	235.60	12.191210	-57.129135	235.62	-0.170	-0.120	0.300	235.63	-1.60	0.70	 	 	 	 	 	 	 	 	 	 	 	 	 	 	 	 	 	 	1581549100	7.63	14.13
12/02/2020 23:11:41	120220	12022020	231141	235.59	12.191190	-57.129167	235.58	-0.200	-0.510	0.510	235.54	-1.90	1.00	 	 	 	 	 	 	 	 	 	 	 	 	 	 	 	 	 	 	1581549101	7.78	14.41
12/02/2020 23:11:42	120220	12022020	231142	235.31	12.191173	-57.129197	235.28	-0.150	-0.630	0.900	235.24	-2.00	1.40	 	 	 	 	 	 	 	 	 	 	 	 	 	 	 	 	 	 	1581549102	7.60	14.08
12/02/2020 23:11:43	120220	12022020	231143	234.93	12.191157	-57.129228	234.90	-0.040	-0.470	1.210	234.86	-1.80	1.60	 	 	 	 	 	 	 	 	 	 	 	 	 	 	 	 	 	 	1581549103	7.32	13.56
12/02/2020 23:11:44	120220	12022020	231144	234.59	12.191140	-57.129257	234.57	0.040	-0.210	1.350	234.54	-1.50	1.80	 	 	 	 	 	 	 	 	 	 	 	 	 	 	 	 	 	 	1581549104	7.19	13.32
12/02/2020 23:11:45	120220	12022020	231145	234.42	12.191123	-57.129285	234.39	0.040	0.050	1.370	234.39	-1.20	1.80	 	 	 	 	 	 	 	 	 	 	 	 	 	 	 	 	 	 	1581549105	7.19	13.32
12/02/2020 23:11:46	120220	12022020	231146	234.37	12.191105	-57.129315	234.40	-0.030	0.290	1.310	234.39	-1.00	1.70	 	 	 	 	 	 	 	 	 	 	 	 	 	 	 	 	 	 	1581549106	7.14	13.22
12/02/2020 23:11:47	120220	12022020	231147	234.60	12.191088	-57.129343	234.65	-0.110	0.420	1.180	234.60	-0.90	1.50	 	 	 	 	 	 	 	 	 	 	 	 	 	 	 	 	 	 	1581549107	7.08	13.11
12/02/2020 23:11:48	120220	12022020	231148	234.94	12.191072	-57.129373	234.98	-0.080	0.280	1.080	235.00	-1.20	1.40	 	 	 	 	 	 	 	 	 	 	 	 	 	 	 	 	 	 	1581549108	7.13	13.20
12/02/2020 23:11:49	120220	12022020	231149	235.19	12.191055	-57.129403	235.21	0.140	-0.180	1.000	235.21	-1.70	1.40	 	 	 	 	 	 	 	 	 	 	 	 	 	 	 	 	 	 	1581549109	7.38	13.67
12/02/2020 23:11:50	120220	12022020	231150	235.22	12.191035	-57.129433	235.23	0.420	-0.750	0.940	235.21	-2.20	1.30	 	 	 	 	 	 	 	 	 	 	 	 	 	 	 	 	 	 	1581549110	7.55	13.98
12/02/2020 23:11:51	120220	12022020	231151	235.09	12.191017	-57.129462	235.06	0.530	-1.180	0.890	235.05	-2.60	1.30	 	 	 	 	 	 	 	 	 	 	 	 	 	 	 	 	 	 	1581549111	7.52	13.93
12/02/2020 23:11:52	120220	12022020	231152	234.87	12.190997	-57.129492	234.84	0.340	-1.410	0.810	234.83	-2.80	1.20	 	 	 	 	 	 	 	 	 	 	 	 	 	 	 	 	 	 	1581549112	7.44	13.78
12/02/2020 23:11:53	120220	12022020	231153	234.73	12.190978	-57.129522	234.70	-0.010	-1.380	0.690	234.72	-2.70	1.10	 	 	 	 	 	 	 	 	 	 	 	 	 	 	 	 	 	 	1581549113	7.44	13.78
12/02/2020 23:11:54	120220	12022020	231154	234.74	12.190960	-57.129552	234.73	-0.360	-0.970	0.620	234.76	-2.20	1.00	 	 	 	 	 	 	 	 	 	 	 	 	 	 	 	 	 	 	1581549114	7.39	13.69
12/02/2020 23:11:55	120220	12022020	231155	234.87	12.190943	-57.129580	234.88	-0.570	-0.170	0.650	234.91	-1.30	1.10	 	 	 	 	 	 	 	 	 	 	 	 	 	 	 	 	 	 	1581549115	7.18	13.30
12/02/2020 23:11:56	120220	12022020	231156	235.09	12.190928	-57.129610	235.11	-0.590	0.670	0.780	235.14	-0.50	1.20	 	 	 	 	 	 	 	 	 	 	 	 	 	 	 	 	 	 	1581549116	7.07	13.09
12/02/2020 23:11:57	120220	12022020	231157	235.27	12.190910	-57.129638	235.28	-0.440	1.120	1.060	235.28	-0.20	1.50	 	 	 	 	 	 	 	 	 	 	 	 	 	 	 	 	 	 	1581549117	7.27	13.46
12/02/2020 23:11:58	120220	12022020	231158	235.27	12.190892	-57.129670	235.27	-0.220	1.000	1.460	235.26	-0.40	1.90	 	 	 	 	 	 	 	 	 	 	 	 	 	 	 	 	 	 	1581549118	7.67	14.20
12/02/2020 23:11:59	120220	12022020	231159	235.19	12.190873	-57.129702	235.19	-0.040	0.620	1.810	235.17	-0.80	2.30	 	 	 	 	 	 	 	 	 	 	 	 	 	 	 	 	 	 	1581549119	7.74	14.33
12/02/2020 23:12:00	120220	12022020	231200	235.09	12.190857	-57.129732	235.08	0.130	0.210	1.910	235.07	-1.20	2.30	 	 	 	 	 	 	 	 	 	 	 	 	 	 	 	 	 	 	1581549120	7.45	13.80
12/02/2020 23:12:01	120220	12022020	231201	234.99	12.190840	-57.129763	234.98	0.360	-0.260	1.640	234.97	-1.70	1.90	1015.50	27.40	30.70	21.30	22.20	-2.0	69.0	60.0	390.0	25.8	193.00	6.50	63.00	10.30	16	11244.0	27.5	27.5	1581549121	7.24	13.41
12/02/2020 23:12:02	120220	12022020	231202	234.96	12.190823	-57.129792	234.97	0.610	-0.770	1.030	234.97	-2.20	1.20	 	 	 	 	 	 	 	 	 	 	 	 	 	 	 	 	 	 	1581549122	7.17	13.28
12/02/2020 23:12:03	120220	12022020	231203	235.07	12.190805	-57.129818	235.08	0.720	-1.200	0.290	235.10	-2.70	0.50	 	 	 	 	 	 	 	 	 	 	 	 	 	 	 	 	 	 	1581549123	7.10	13.15
12/02/2020 23:12:04	120220	12022020	231204	235.22	12.190783	-57.129847	235.24	0.590	-1.550	-0.200	235.26	-3.00	0.10	 	 	 	 	 	 	 	 	 	 	 	 	 	 	 	 	 	 	1581549124	7.22	13.37
12/02/2020 23:12:05	120220	12022020	231205	235.38	12.190765	-57.129875	235.40	0.220	-1.710	-0.290	235.42	-3.10	0.10	 	 	 	 	 	 	 	 	 	 	 	 	 	 	 	 	 	 	1581549125	7.41	13.72
12/02/2020 23:12:06	120220	12022020	231206	235.53	12.190745	-57.129905	235.55	-0.250	-1.510	-0.170	235.56	-2.80	0.30	 	 	 	 	 	 	 	 	 	 	 	 	 	 	 	 	 	 	1581549126	7.51	13.91
12/02/2020 23:12:07	120220	12022020	231207	235.67	12.190727	-57.129933	235.70	-0.640	-0.820	0.040	235.70	-1.90	0.50	 	 	 	 	 	 	 	 	 	 	 	 	 	 	 	 	 	 	1581549127	7.39	13.69
12/02/2020 23:12:08	120220	12022020	231208	235.73	12.190708	-57.129962	235.74	-0.840	0.230	0.380	235.71	-0.90	0.90	 	 	 	 	 	 	 	 	 	 	 	 	 	 	 	 	 	 	1581549128	7.16	13.26
12/02/2020 23:12:09	120220	12022020	231209	235.49	12.190693	-57.129993	235.48	-0.850	1.050	1.110	235.41	-0.20	1.70	 	 	 	 	 	 	 	 	 	 	 	 	 	 	 	 	 	 	1581549129	7.31	13.54
12/02/2020 23:12:10	120220	12022020	231210	235.02	12.190678	-57.130027	234.99	-0.730	1.290	2.080	234.91	-0.10	2.70	 	 	 	 	 	 	 	 	 	 	 	 	 	 	 	 	 	 	1581549130	7.83	14.50
12/02/2020 23:12:11	120220	12022020	231211	234.58	12.190665	-57.130062	234.57	-0.490	1.210	2.780	234.58	-0.20	3.20	 	 	 	 	 	 	 	 	 	 	 	 	 	 	 	 	 	 	1581549131	8.00	14.82
12/02/2020 23:12:12	120220	12022020	231212	234.43	12.190652	-57.130095	234.45	-0.110	1.110	2.770	234.44	-0.30	3.00	 	 	 	 	 	 	 	 	 	 	 	 	 	 	 	 	 	 	1581549132	7.42	13.74
12/02/2020 23:12:13	120220	12022020	231213	234.61	12.190635	-57.130123	234.66	0.480	0.740	1.950	234.66	-0.80	2.10	 	 	 	 	 	 	 	 	 	 	 	 	 	 	 	 	 	 	1581549133	6.90	12.78
12/02/2020 23:12:14	120220	12022020	231214	234.96	12.190613	-57.130148	235.00	1.090	-0.360	0.710	235.02	-2.10	0.80	 	 	 	 	 	 	 	 	 	 	 	 	 	 	 	 	 	 	1581549134	7.28	13.48
12/02/2020 23:12:15	120220	12022020	231215	235.26	12.190588	-57.130177	235.27	1.360	-1.870	-0.210	235.30	-3.60	0.10	 	 	 	 	 	 	 	 	 	 	 	 	 	 	 	 	 	 	1581549135	7.91	14.65
12/02/2020 23:12:16	120220	12022020	231216	235.36	12.190567	-57.130207	235.34	1.060	-2.900	-0.460	235.35	-4.30	-0.00	 	 	 	 	 	 	 	 	 	 	 	 	 	 	 	 	 	 	1581549136	7.87	14.58
12/02/2020 23:12:17	120220	12022020	231217	235.30	12.190550	-57.130237	235.27	0.340	-2.750	-0.150	235.28	-3.90	0.40	 	 	 	 	 	 	 	 	 	 	 	 	 	 	 	 	 	 	1581549137	7.30	13.52
12/02/2020 23:12:18	120220	12022020	231218	235.25	12.190537	-57.130265	235.23	-0.430	-1.460	0.430	235.25	-2.50	1.00	 	 	 	 	 	 	 	 	 	 	 	 	 	 	 	 	 	 	1581549138	6.64	12.30
12/02/2020 23:12:19	120220	12022020	231219	235.24	12.190523	-57.130293	235.23	-0.890	0.120	1.000	235.24	-1.00	1.50	 	 	 	 	 	 	 	 	 	 	 	 	 	 	 	 	 	 	1581549139	6.51	12.06
12/02/2020 23:12:20	120220	12022020	231220	235.21	12.190508	-57.130322	235.19	-0.970	1.050	1.410	235.20	-0.20	1.90	 	 	 	 	 	 	 	 	 	 	 	 	 	 	 	 	 	 	1581549140	7.16	13.26
12/02/2020 23:12:21	120220	12022020	231221	235.12	12.190488	-57.130355	235.09	-0.840	1.170	1.700	235.10	-0.30	2.10	 	 	 	 	 	 	 	 	 	 	 	 	 	 	 	 	 	 	1581549141	7.98	14.78
12/02/2020 23:12:22	120220	12022020	231222	234.97	12.190470	-57.130388	234.92	-0.650	0.950	1.910	234.92	-0.50	2.30	 	 	 	 	 	 	 	 	 	 	 	 	 	 	 	 	 	 	1581549142	8.17	15.13
12/02/2020 23:12:23	120220	12022020	231223	234.70	12.190452	-57.130420	234.64	-0.400	0.740	2.110	234.64	-0.70	2.50	 	 	 	 	 	 	 	 	 	 	 	 	 	 	 	 	 	 	1581549143	8.17	15.13
12/02/2020 23:12:24	120220	12022020	231224	234.39	12.190435	-57.130452	234.36	-0.020	0.450	2.210	234.34	-1.00	2.60	 	 	 	 	 	 	 	 	 	 	 	 	 	 	 	 	 	 	1581549144	7.45	13.80
12/02/2020 23:12:25	120220	12022020	231225	234.20	12.190420	-57.130482	234.19	0.480	-0.010	1.960	234.19	-1.50	2.20	 	 	 	 	 	 	 	 	 	 	 	 	 	 	 	 	 	 	1581549145	7.35	13.61
12/02/2020 23:12:26	120220	12022020	231226	234.26	12.190402	-57.130510	234.27	0.900	-0.470	1.340	234.29	-1.90	1.50	 	 	 	 	 	 	 	 	 	 	 	 	 	 	 	 	 	 	1581549146	7.18	13.30
12/02/2020 23:12:27	120220	12022020	231227	234.54	12.190383	-57.130537	234.57	1.020	-0.720	0.460	234.61	-2.10	0.60	 	 	 	 	 	 	 	 	 	 	 	 	 	 	 	 	 	 	1581549147	6.89	12.76
12/02/2020 23:12:28	120220	12022020	231228	234.96	12.190363	-57.130562	235.00	0.820	-0.920	-0.470	235.04	-2.40	-0.20	 	 	 	 	 	 	 	 	 	 	 	 	 	 	 	 	 	 	1581549148	6.80	12.59
12/02/2020 23:12:29	120220	12022020	231229	235.32	12.190342	-57.130588	235.34	0.410	-1.360	-0.940	235.37	-2.90	-0.50	 	 	 	 	 	 	 	 	 	 	 	 	 	 	 	 	 	 	1581549149	7.24	13.41
12/02/2020 23:12:30	120220	12022020	231230	235.44	12.190322	-57.130618	235.43	-0.020	-1.840	-0.620	235.43	-3.30	-0.10	 	 	 	 	 	 	 	 	 	 	 	 	 	 	 	 	 	 	1581549150	7.73	14.32
12/02/2020 23:12:31	120220	12022020	231231	235.23	12.190305	-57.130652	235.19	-0.360	-1.760	0.350	235.15	-3.00	1.00	 	 	 	 	 	 	 	 	 	 	 	 	 	 	 	 	 	 	1581549151	7.77	14.39
12/02/2020 23:12:32	120220	12022020	231232	234.72	12.190292	-57.130683	234.68	-0.590	-0.850	1.670	234.60	-1.90	2.40	 	 	 	 	 	 	 	 	 	 	 	 	 	 	 	 	 	 	1581549152	7.77	14.39
12/02/2020 23:12:33	120220	12022020	231233	234.18	12.190282	-57.130715	234.18	-0.700	0.520	2.830	234.09	-0.50	3.40	 	 	 	 	 	 	 	 	 	 	 	 	 	 	 	 	 	 	1581549153	7.15	13.24
12/02/2020 23:12:34	120220	12022020	231234	233.92	12.190268	-57.130747	233.96	-0.650	1.580	3.330	233.92	0.30	3.70	 	 	 	 	 	 	 	 	 	 	 	 	 	 	 	 	 	 	1581549154	7.15	13.24
12/02/2020 23:12:35	120220	12022020	231235	234.00	12.190252	-57.130777	234.04	-0.410	1.790	3.110	234.00	0.30	3.40	 	 	 	 	 	 	 	 	 	 	 	 	 	 	 	 	 	 	1581549155	7.38	13.67
12/02/2020 23:12:36	120220	12022020	231236	234.21	12.190232	-57.130808	234.24	-0.030	1.130	2.400	234.25	-0.50	2.60	 	 	 	 	 	 	 	 	 	 	 	 	 	 	 	 	 	 	1581549156	7.77	14.39
12/02/2020 23:12:37	120220	12022020	231237	234.39	12.190210	-57.130837	234.47	0.370	0.020	1.400	234.44	-1.60	1.50	 	 	 	 	 	 	 	 	 	 	 	 	 	 	 	 	 	 	1581549157	7.92	14.67
12/02/2020 23:12:38	120220	12022020	231238	234.67	12.190187	-57.130865	234.68	0.630	-1.000	0.390	234.71	-2.50	0.60	 	 	 	 	 	 	 	 	 	 	 	 	 	 	 	 	 	 	1581549158	7.69	14.24
12/02/2020 23:12:39	120220	12022020	231239	234.79	12.190167	-57.130892	234.76	0.670	-1.530	-0.230	234.79	-3.00	0.10	 	 	 	 	 	 	 	 	 	 	 	 	 	 	 	 	 	 	1581549159	7.19	13.32
12/02/2020 23:12:40	120220	12022020	231240	234.77	12.190148	-57.130920	234.73	0.530	-1.600	-0.290	234.76	-3.00	0.20	 	 	 	 	 	 	 	 	 	 	 	 	 	 	 	 	 	 	1581549160	6.86	12.70
12/02/2020 23:12:41	120220	12022020	231241	234.71	12.190132	-57.130948	234.68	0.280	-1.400	0.120	234.70	-2.70	0.70	 	 	 	 	 	 	 	 	 	 	 	 	 	 	 	 	 	 	1581549161	6.86	12.70
12/02/2020 23:12:42	120220	12022020	231242	234.64	12.190117	-57.130978	234.61	-0.010	-0.980	0.800	234.63	-2.20	1.30	 	 	 	 	 	 	 	 	 	 	 	 	 	 	 	 	 	 	1581549162	7.22	13.37
12/02/2020 23:12:43	120220	12022020	231243	234.65	12.190103	-57.131008	234.68	-0.290	-0.230	1.320	234.68	-1.40	1.80	 	 	 	 	 	 	 	 	 	 	 	 	 	 	 	 	 	 	1581549163	7.22	13.37
12/02/2020 23:12:44	120220	12022020	231244	234.82	12.190088	-57.131038	234.85	-0.510	0.610	1.510	234.86	-0.60	1.90	 	 	 	 	 	 	 	 	 	 	 	 	 	 	 	 	 	 	1581549164	7.19	13.32
12/02/2020 23:12:45	120220	12022020	231245	234.99	12.190072	-57.131068	234.99	-0.500	1.060	1.510	235.00	-0.30	1.90	 	 	 	 	 	 	 	 	 	 	 	 	 	 	 	 	 	 	1581549165	7.18	13.30
12/02/2020 23:12:46	120220	12022020	231246	235.03	12.190053	-57.131098	235.01	-0.260	0.970	1.440	235.02	-0.50	1.80	 	 	 	 	 	 	 	 	 	 	 	 	 	 	 	 	 	 	1581549166	7.47	13.83
12/02/2020 23:12:47	120220	12022020	231247	234.90	12.190037	-57.131130	234.86	0.080	0.450	1.420	234.86	-1.10	1.80	 	 	 	 	 	 	 	 	 	 	 	 	 	 	 	 	 	 	1581549167	7.67	14.20
12/02/2020 23:12:48	120220	12022020	231248	234.69	12.190018	-57.131160	234.67	0.330	-0.200	1.330	234.66	-1.70	1.70	 	 	 	 	 	 	 	 	 	 	 	 	 	 	 	 	 	 	1581549168	7.60	14.08
12/02/2020 23:12:49	120220	12022020	231249	234.59	12.189998	-57.131190	234.58	0.410	-0.710	1.040	234.59	-2.20	1.30	 	 	 	 	 	 	 	 	 	 	 	 	 	 	 	 	 	 	1581549169	7.60	14.08
12/02/2020 23:12:50	120220	12022020	231250	234.67	12.189980	-57.131217	234.68	0.380	-1.040	0.570	234.70	-2.50	0.90	 	 	 	 	 	 	 	 	 	 	 	 	 	 	 	 	 	 	1581549170	7.08	13.11
12/02/2020 23:12:51	120220	12022020	231251	234.86	12.189960	-57.131243	234.86	0.290	-1.290	0.150	234.89	-2.70	0.50	 	 	 	 	 	 	 	 	 	 	 	 	 	 	 	 	 	 	1581549171	7.14	13.22
12/02/2020 23:12:52	120220	12022020	231252	235.05	12.189940	-57.131272	235.05	0.100	-1.310	0.050	235.08	-2.60	0.50	 	 	 	 	 	 	 	 	 	 	 	 	 	 	 	 	 	 	1581549172	7.24	13.41
12/02/2020 23:12:53	120220	12022020	231253	235.10	12.189925	-57.131302	235.08	-0.190	-0.940	0.420	235.08	-2.20	0.90	 	 	 	 	 	 	 	 	 	 	 	 	 	 	 	 	 	 	1581549173	7.20	13.33
12/02/2020 23:12:54	120220	12022020	231254	234.90	12.189912	-57.131333	234.87	-0.460	-0.290	1.100	234.84	-1.50	1.60	 	 	 	 	 	 	 	 	 	 	 	 	 	 	 	 	 	 	1581549174	7.20	13.33
12/02/2020 23:12:55	120220	12022020	231255	234.58	12.189898	-57.131365	234.55	-0.580	0.360	1.680	234.52	-0.90	2.10	 	 	 	 	 	 	 	 	 	 	 	 	 	 	 	 	 	 	1581549175	7.26	13.45
12/02/2020 23:12:56	120220	12022020	231256	234.26	12.189882	-57.131395	234.24	-0.450	0.770	1.890	234.21	-0.60	2.30	 	 	 	 	 	 	 	 	 	 	 	 	 	 	 	 	 	 	1581549176	7.26	13.45
12/02/2020 23:12:57	120220	12022020	231257	234.00	12.189863	-57.131425	233.98	-0.140	0.810	1.800	233.96	-0.60	2.20	 	 	 	 	 	 	 	 	 	 	 	 	 	 	 	 	 	 	1581549177	7.43	13.76
12/02/2020 23:12:58	120220	12022020	231258	233.84	12.189843	-57.131453	233.83	0.210	0.470	1.560	233.83	-1.00	1.90	 	 	 	 	 	 	 	 	 	 	 	 	 	 	 	 	 	 	1581549178	7.56	14.00
12/02/2020 23:12:59	120220	12022020	231259	233.86	12.189823	-57.131483	233.93	0.430	-0.090	1.190	233.90	-1.60	1.50	 	 	 	 	 	 	 	 	 	 	 	 	 	 	 	 	 	 	1581549179	7.57	14.02
12/02/2020 23:13:00	120220	12022020	231300	234.24	12.189803	-57.131512	234.30	0.450	-0.570	0.770	234.33	-2.00	1.10	 	 	 	 	 	 	 	 	 	 	 	 	 	 	 	 	 	 	1581549180	7.57	14.02
12/02/2020 23:13:01	120220	12022020	231301	234.71	12.189787	-57.131540	234.76	0.350	-0.790	0.410	234.79	-2.20	0.80	1015.40	26.70	29.70	21.00	21.40	-1.0	70.0	61.0	390.0	25.8	198.00	6.60	66.00	10.20	16	11615.0	27.5	27.4	1581549181	7.31	13.54
12/02/2020 23:13:02	120220	12022020	231302	235.04	12.189768	-57.131567	235.05	0.250	-0.850	0.320	235.07	-2.20	0.80	 	 	 	 	 	 	 	 	 	 	 	 	 	 	 	 	 	 	1581549182	7.01	12.98
12/02/2020 23:13:03	120220	12022020	231303	235.08	12.189752	-57.131595	235.08	0.150	-0.740	0.550	235.05	-2.10	1.00	 	 	 	 	 	 	 	 	 	 	 	 	 	 	 	 	 	 	1581549183	6.91	12.80
12/02/2020 23:13:04	120220	12022020	231304	234.87	12.189735	-57.131623	234.85	-0.040	-0.560	0.960	234.81	-1.90	1.50	 	 	 	 	 	 	 	 	 	 	 	 	 	 	 	 	 	 	1581549184	7.05	13.06
12/02/2020 23:13:05	120220	12022020	231305	234.50	12.189718	-57.131653	234.50	-0.240	-0.480	1.430	234.42	-1.90	1.90	 	 	 	 	 	 	 	 	 	 	 	 	 	 	 	 	 	 	1581549185	7.31	13.54
12/02/2020 23:13:06	120220	12022020	231306	234.16	12.189702	-57.131685	234.18	-0.340	-0.410	1.760	234.11	-1.80	2.20	 	 	 	 	 	 	 	 	 	 	 	 	 	 	 	 	 	 	1581549186	7.51	13.91
12/02/2020 23:13:07	120220	12022020	231307	234.07	12.189685	-57.131715	234.10	-0.290	-0.220	1.740	234.08	-1.50	2.10	 	 	 	 	 	 	 	 	 	 	 	 	 	 	 	 	 	 	1581549187	7.39	13.69
12/02/2020 23:13:08	120220	12022020	231308	234.20	12.189667	-57.131743	234.25	-0.160	-0.020	1.520	234.24	-1.40	1.90	 	 	 	 	 	 	 	 	 	 	 	 	 	 	 	 	 	 	1581549188	7.26	13.45
12/02/2020 23:13:09	120220	12022020	231309	234.39	12.189647	-57.131773	234.44	-0.070	0.020	1.280	234.43	-1.40	1.60	 	 	 	 	 	 	 	 	 	 	 	 	 	 	 	 	 	 	1581549189	7.33	13.58
12/02/2020 23:13:10	120220	12022020	231310	234.55	12.189628	-57.131802	234.59	-0.080	0.010	1.070	234.57	-1.40	1.40	 	 	 	 	 	 	 	 	 	 	 	 	 	 	 	 	 	 	1581549190	7.37	13.65
12/02/2020 23:13:11	120220	12022020	231311	234.64	12.189610	-57.131830	234.68	-0.090	0.090	0.840	234.66	-1.30	1.20	 	 	 	 	 	 	 	 	 	 	 	 	 	 	 	 	 	 	1581549191	7.37	13.65
12/02/2020 23:13:12	120220	12022020	231312	234.76	12.189593	-57.131858	234.78	-0.040	0.210	0.560	234.78	-1.20	0.90	 	 	 	 	 	 	 	 	 	 	 	 	 	 	 	 	 	 	1581549192	7.04	13.04
12/02/2020 23:13:13	120220	12022020	231313	234.84	12.189575	-57.131887	234.87	0.140	0.130	0.300	234.86	-1.30	0.70	 	 	 	 	 	 	 	 	 	 	 	 	 	 	 	 	 	 	1581549193	7.06	13.08
12/02/2020 23:13:14	120220	12022020	231314	234.91	12.189555	-57.131915	234.93	0.340	-0.270	0.170	234.92	-1.80	0.60	 	 	 	 	 	 	 	 	 	 	 	 	 	 	 	 	 	 	1581549194	7.35	13.61
12/02/2020 23:13:15	120220	12022020	231315	235.00	12.189537	-57.131945	235.03	0.340	-0.700	0.250	235.03	-2.20	0.70	 	 	 	 	 	 	 	 	 	 	 	 	 	 	 	 	 	 	1581549195	7.45	13.80
12/02/2020 23:13:16	120220	12022020	231316	235.12	12.189520	-57.131975	235.15	0.120	-0.880	0.640	235.14	-2.30	1.20	 	 	 	 	 	 	 	 	 	 	 	 	 	 	 	 	 	 	1581549196	7.45	13.80
12/02/2020 23:13:17	120220	12022020	231317	235.13	12.189505	-57.132005	235.13	-0.130	-0.760	1.200	235.10	-2.10	1.70	 	 	 	 	 	 	 	 	 	 	 	 	 	 	 	 	 	 	1581549197	7.29	13.50
12/02/2020 23:13:18	120220	12022020	231318	234.90	12.189490	-57.132035	234.87	-0.220	-0.580	1.730	234.83	-1.90	2.20	 	 	 	 	 	 	 	 	 	 	 	 	 	 	 	 	 	 	1581549198	7.17	13.28
12/02/2020 23:13:19	120220	12022020	231319	234.54	12.189473	-57.132065	234.51	-0.170	-0.370	1.970	234.48	-1.70	2.40	 	 	 	 	 	 	 	 	 	 	 	 	 	 	 	 	 	 	1581549199	7.30	13.52
12/02/2020 23:13:20	120220	12022020	231320	234.28	12.189455	-57.132093	234.27	-0.130	-0.130	1.710	234.25	-1.50	2.00	 	 	 	 	 	 	 	 	 	 	 	 	 	 	 	 	 	 	1581549200	7.27	13.46
12/02/2020 23:13:21	120220	12022020	231321	234.21	12.189435	-57.132122	234.21	-0.110	0.050	1.250	234.22	-1.30	1.60	 	 	 	 	 	 	 	 	 	 	 	 	 	 	 	 	 	 	1581549201	7.25	13.43
12/02/2020 23:13:22	120220	12022020	231322	234.34	12.189415	-57.132150	234.35	-0.090	-0.000	0.810	234.39	-1.40	1.10	 	 	 	 	 	 	 	 	 	 	 	 	 	 	 	 	 	 	1581549202	7.37	13.65
12/02/2020 23:13:23	120220	12022020	231323	234.66	12.189395	-57.132180	234.70	-0.080	-0.190	0.490	234.74	-1.60	0.80	 	 	 	 	 	 	 	 	 	 	 	 	 	 	 	 	 	 	1581549203	7.37	13.65
12/02/2020 23:13:24	120220	12022020	231324	235.10	12.189377	-57.132210	235.16	-0.080	-0.360	0.350	235.19	-1.80	0.80	 	 	 	 	 	 	 	 	 	 	 	 	 	 	 	 	 	 	1581549204	7.45	13.80
12/02/2020 23:13:25	120220	12022020	231325	235.41	12.189362	-57.132240	235.48	-0.070	-0.410	0.530	235.46	-1.80	1.00	 	 	 	 	 	 	 	 	 	 	 	 	 	 	 	 	 	 	1581549205	7.45	13.80
12/02/2020 23:13:26	120220	12022020	231326	235.53	12.189345	-57.132270	235.52	-0.010	-0.290	0.890	235.50	-1.60	1.40	 	 	 	 	 	 	 	 	 	 	 	 	 	 	 	 	 	 	1581549206	7.35	13.61
12/02/2020 23:13:27	120220	12022020	231327	235.32	12.189328	-57.132300	235.30	0.090	-0.010	1.190	235.32	-1.30	1.60	 	 	 	 	 	 	 	 	 	 	 	 	 	 	 	 	 	 	1581549207	7.13	13.20
12/02/2020 23:13:28	120220	12022020	231328	235.05	12.189312	-57.132328	235.04	0.140	0.250	1.230	235.01	-1.10	1.60	 	 	 	 	 	 	 	 	 	 	 	 	 	 	 	 	 	 	1581549208	7.03	13.02
12/02/2020 23:13:29	120220	12022020	231329	234.87	12.189292	-57.132355	234.88	0.120	0.280	1.040	234.85	-1.20	1.40	 	 	 	 	 	 	 	 	 	 	 	 	 	 	 	 	 	 	1581549209	7.12	13.19
12/02/2020 23:13:30	120220	12022020	231330	234.80	12.189273	-57.132383	234.83	0.070	-0.020	0.820	234.80	-1.50	1.20	 	 	 	 	 	 	 	 	 	 	 	 	 	 	 	 	 	 	1581549210	7.29	13.50
12/02/2020 23:13:31	120220	12022020	231331	234.81	12.189255	-57.132413	234.85	0.040	-0.540	0.710	234.83	-2.10	1.10	 	 	 	 	 	 	 	 	 	 	 	 	 	 	 	 	 	 	1581549211	7.29	13.50
12/02/2020 23:13:32	120220	12022020	231332	234.92	12.189237	-57.132445	234.96	0.060	-1.020	0.750	234.95	-2.50	1.20	 	 	 	 	 	 	 	 	 	 	 	 	 	 	 	 	 	 	1581549212	7.54	13.96
12/02/2020 23:13:33	120220	12022020	231333	235.16	12.189220	-57.132475	235.24	0.080	-1.160	0.760	235.24	-2.50	1.10	 	 	 	 	 	 	 	 	 	 	 	 	 	 	 	 	 	 	1581549213	7.54	13.96
12/02/2020 23:13:34	120220	12022020	231334	235.59	12.189203	-57.132503	235.65	0.020	-0.900	0.670	235.67	-2.20	1.10	 	 	 	 	 	 	 	 	 	 	 	 	 	 	 	 	 	 	1581549214	7.05	13.06
12/02/2020 23:13:35	120220	12022020	231335	235.91	12.189187	-57.132532	235.94	-0.110	-0.460	0.640	235.93	-1.70	1.10	 	 	 	 	 	 	 	 	 	 	 	 	 	 	 	 	 	 	1581549215	7.05	13.06
12/02/2020 23:13:36	120220	12022020	231336	235.89	12.189170	-57.132560	235.89	-0.210	-0.080	0.850	235.86	-1.40	1.30	 	 	 	 	 	 	 	 	 	 	 	 	 	 	 	 	 	 	1581549216	6.96	12.89
12/02/2020 23:13:37	120220	12022020	231337	235.66	12.189152	-57.132592	235.65	-0.230	0.190	1.180	235.61	-1.10	1.60	 	 	 	 	 	 	 	 	 	 	 	 	 	 	 	 	 	 	1581549217	7.41	13.72
12/02/2020 23:13:38	120220	12022020	231338	235.43	12.189135	-57.132622	235.41	-0.170	0.390	1.350	235.39	-1.00	1.70	 	 	 	 	 	 	 	 	 	 	 	 	 	 	 	 	 	 	1581549218	7.45	13.80
12/02/2020 23:13:39	120220	12022020	231339	235.30	12.189118	-57.132652	235.30	-0.080	0.410	1.180	235.30	-1.00	1.50	 	 	 	 	 	 	 	 	 	 	 	 	 	 	 	 	 	 	1581549219	7.45	13.80
12/02/2020 23:13:40	120220	12022020	231340	235.38	12.189098	-57.132682	235.38	-0.010	0.200	0.770	235.41	-1.30	1.10	 	 	 	 	 	 	 	 	 	 	 	 	 	 	 	 	 	 	1581549220	7.42	13.74
12/02/2020 23:13:41	120220	12022020	231341	235.58	12.189078	-57.132710	235.58	0.050	-0.260	0.400	235.62	-1.80	0.80	 	 	 	 	 	 	 	 	 	 	 	 	 	 	 	 	 	 	1581549221	7.49	13.87
12/02/2020 23:13:42	120220	12022020	231342	235.81	12.189060	-57.132740	235.82	0.080	-0.750	0.290	235.85	-2.20	0.70	 	 	 	 	 	 	 	 	 	 	 	 	 	 	 	 	 	 	1581549222	7.49	13.87
12/02/2020 23:13:43	120220	12022020	231343	235.98	12.189043	-57.132770	235.98	0.050	-0.980	0.440	236.00	-2.40	0.90	 	 	 	 	 	 	 	 	 	 	 	 	 	 	 	 	 	 	1581549223	7.40	13.70
12/02/2020 23:13:44	120220	12022020	231344	236.02	12.189027	-57.132800	236.01	-0.030	-0.830	0.670	236.02	-2.10	1.10	 	 	 	 	 	 	 	 	 	 	 	 	 	 	 	 	 	 	1581549224	7.40	13.70
12/02/2020 23:13:45	120220	12022020	231345	235.89	12.189012	-57.132830	235.85	-0.120	-0.420	1.010	235.84	-1.70	1.50	 	 	 	 	 	 	 	 	 	 	 	 	 	 	 	 	 	 	1581549225	7.00	12.96
12/02/2020 23:13:46	120220	12022020	231346	235.63	12.188997	-57.132858	235.59	-0.130	0.070	1.390	235.58	-1.20	1.80	 	 	 	 	 	 	 	 	 	 	 	 	 	 	 	 	 	 	1581549226	7.00	12.96
12/02/2020 23:13:47	120220	12022020	231347	235.47	12.188982	-57.132888	235.45	-0.050	0.430	1.530	235.46	-0.90	1.90	 	 	 	 	 	 	 	 	 	 	 	 	 	 	 	 	 	 	1581549227	7.00	12.96
12/02/2020 23:13:48	120220	12022020	231348	235.49	12.188963	-57.132918	235.49	0.110	0.370	1.320	235.52	-1.10	1.60	 	 	 	 	 	 	 	 	 	 	 	 	 	 	 	 	 	 	1581549228	7.05	13.06
12/02/2020 23:13:49	120220	12022020	231349	235.67	12.188945	-57.132948	235.70	0.280	-0.060	0.900	235.67	-1.60	1.20	 	 	 	 	 	 	 	 	 	 	 	 	 	 	 	 	 	 	1581549229	7.30	13.52
12/02/2020 23:13:50	120220	12022020	231350	235.98	12.188923	-57.132977	236.00	0.320	-0.530	0.450	236.04	-2.00	0.80	 	 	 	 	 	 	 	 	 	 	 	 	 	 	 	 	 	 	1581549230	7.60	14.08
12/02/2020 23:13:51	120220	12022020	231351	236.23	12.188905	-57.133007	236.21	0.170	-0.920	0.360	236.23	-2.40	0.80	 	 	 	 	 	 	 	 	 	 	 	 	 	 	 	 	 	 	1581549231	7.50	13.89
12/02/2020 23:13:52	120220	12022020	231352	236.20	12.188888	-57.133038	236.16	-0.080	-1.130	0.780	236.16	-2.50	1.30	 	 	 	 	 	 	 	 	 	 	 	 	 	 	 	 	 	 	1581549232	7.52	13.93
12/02/2020 23:13:53	120220	12022020	231353	235.98	12.188873	-57.133070	235.93	-0.330	-0.890	1.290	235.94	-2.20	1.80	 	 	 	 	 	 	 	 	 	 	 	 	 	 	 	 	 	 	1581549233	7.37	13.65
12/02/2020 23:13:54	120220	12022020	231354	235.80	12.188858	-57.133100	235.76	-0.460	-0.300	1.500	235.78	-1.50	1.90	 	 	 	 	 	 	 	 	 	 	 	 	 	 	 	 	 	 	1581549234	7.37	13.65
12/02/2020 23:13:55	120220	12022020	231355	235.67	12.188843	-57.133128	235.65	-0.390	0.190	1.450	235.65	-1.10	1.80	 	 	 	 	 	 	 	 	 	 	 	 	 	 	 	 	 	 	1581549235	7.06	13.08
12/02/2020 23:13:56	120220	12022020	231356	235.55	12.188823	-57.133158	235.53	-0.160	0.310	1.340	235.53	-1.10	1.70	 	 	 	 	 	 	 	 	 	 	 	 	 	 	 	 	 	 	1581549236	7.41	13.72
12/02/2020 23:13:57	120220	12022020	231357	235.44	12.188805	-57.133188	235.41	0.060	0.240	1.250	235.42	-1.10	1.60	 	 	 	 	 	 	 	 	 	 	 	 	 	 	 	 	 	 	1581549237	7.60	14.08
12/02/2020 23:13:58	120220	12022020	231358	235.39	12.188787	-57.133218	235.38	0.120	0.200	1.160	235.39	-1.20	1.50	 	 	 	 	 	 	 	 	 	 	 	 	 	 	 	 	 	 	1581549238	7.46	13.82
12/02/2020 23:13:59	120220	12022020	231359	235.43	12.188770	-57.133248	235.42	0.050	0.130	0.930	235.46	-1.30	1.20	 	 	 	 	 	 	 	 	 	 	 	 	 	 	 	 	 	 	1581549239	7.26	13.45
12/02/2020 23:14:00	120220	12022020	231400	235.67	12.188752	-57.133277	235.71	0.010	-0.060	0.460	235.75	-1.50	0.70	 	 	 	 	 	 	 	 	 	 	 	 	 	 	 	 	 	 	1581549240	7.21	13.35
12/02/2020 23:14:01	120220	12022020	231401	236.13	12.188733	-57.133305	236.16	0.090	-0.420	-0.110	236.24	-1.90	0.20	1015.50	26.50	28.60	20.80	21.40	-1.0	71.0	65.0	390.0	25.8	193.00	6.20	64.00	9.90	16	10961.0	27.5	27.4	1581549241	7.21	13.35
12/02/2020 23:14:02	120220	12022020	231402	236.62	12.188713	-57.133333	236.63	0.200	-0.810	-0.410	236.70	-2.30	0.00	 	 	 	 	 	 	 	 	 	 	 	 	 	 	 	 	 	 	1581549242	7.30	13.52
12/02/2020 23:14:03	120220	12022020	231403	236.89	12.188697	-57.133363	236.86	0.200	-1.010	-0.060	236.89	-2.40	0.50	 	 	 	 	 	 	 	 	 	 	 	 	 	 	 	 	 	 	1581549243	7.36	13.63
12/02/2020 23:14:04	120220	12022020	231404	236.73	12.188682	-57.133395	236.65	0.080	-0.940	0.840	236.64	-2.30	1.50	 	 	 	 	 	 	 	 	 	 	 	 	 	 	 	 	 	 	1581549244	7.36	13.63
12/02/2020 23:14:05	120220	12022020	231405	236.17	12.188670	-57.133428	236.09	-0.040	-0.730	1.830	236.05	-2.00	2.40	 	 	 	 	 	 	 	 	 	 	 	 	 	 	 	 	 	 	1581549245	7.43	13.76
12/02/2020 23:14:06	120220	12022020	231406	235.56	12.188655	-57.133460	235.50	-0.110	-0.370	2.400	235.48	-1.60	2.80	 	 	 	 	 	 	 	 	 	 	 	 	 	 	 	 	 	 	1581549246	7.44	13.78
12/02/2020 23:14:07	120220	12022020	231407	235.22	12.188640	-57.133492	235.19	-0.170	0.130	2.310	235.20	-1.10	2.60	 	 	 	 	 	 	 	 	 	 	 	 	 	 	 	 	 	 	1581549247	7.25	13.43
12/02/2020 23:14:08	120220	12022020	231408	235.21	12.188622	-57.133520	235.21	-0.250	0.450	1.750	235.24	-0.90	2.00	 	 	 	 	 	 	 	 	 	 	 	 	 	 	 	 	 	 	1581549248	7.25	13.43
12/02/2020 23:14:09	120220	12022020	231409	235.42	12.188602	-57.133548	235.44	-0.260	0.280	1.110	235.49	-1.20	1.40	 	 	 	 	 	 	 	 	 	 	 	 	 	 	 	 	 	 	1581549249	7.19	13.32
12/02/2020 23:14:10	120220	12022020	231410	235.86	12.188582	-57.133580	235.90	-0.160	-0.180	0.600	235.98	-1.60	0.90	 	 	 	 	 	 	 	 	 	 	 	 	 	 	 	 	 	 	1581549250	7.51	13.91
12/02/2020 23:14:11	120220	12022020	231411	236.54	12.188563	-57.133610	236.60	-0.050	-0.420	0.290	236.68	-1.80	0.70	 	 	 	 	 	 	 	 	 	 	 	 	 	 	 	 	 	 	1581549251	7.59	14.06
12/02/2020 23:14:12	120220	12022020	231412	237.15	12.188548	-57.133640	237.19	0.010	-0.290	0.280	237.23	-1.60	0.70	 	 	 	 	 	 	 	 	 	 	 	 	 	 	 	 	 	 	1581549252	7.08	13.11
12/02/2020 23:14:13	120220	12022020	231413	237.36	12.188533	-57.133668	237.34	0.120	-0.080	0.540	237.34	-1.40	1.00	 	 	 	 	 	 	 	 	 	 	 	 	 	 	 	 	 	 	1581549253	6.88	12.74
12/02/2020 23:14:14	120220	12022020	231414	237.15	12.188518	-57.133698	237.10	0.310	-0.040	0.940	237.07	-1.40	1.40	 	 	 	 	 	 	 	 	 	 	 	 	 	 	 	 	 	 	1581549254	6.88	12.74
12/02/2020 23:14:15	120220	12022020	231415	236.80	12.188502	-57.133728	236.63	0.460	-0.240	1.340	236.70	-1.70	1.80	 	 	 	 	 	 	 	 	 	 	 	 	 	 	 	 	 	 	1581549255	7.03	13.02
12/02/2020 23:14:16	120220	12022020	231416	236.17	12.188485	-57.133760	236.11	0.410	-0.520	1.710	236.06	-1.90	2.20	 	 	 	 	 	 	 	 	 	 	 	 	 	 	 	 	 	 	1581549256	7.30	13.52
12/02/2020 23:14:17	120220	12022020	231417	235.76	12.188470	-57.133792	235.65	0.140	-0.710	2.000	235.68	-2.10	2.40	 	 	 	 	 	 	 	 	 	 	 	 	 	 	 	 	 	 	1581549257	7.50	13.89
12/02/2020 23:14:18	120220	12022020	231418	235.46	12.188455	-57.133823	235.45	-0.160	-0.750	1.930	235.45	-2.10	2.20	 	 	 	 	 	 	 	 	 	 	 	 	 	 	 	 	 	 	1581549258	7.43	13.76
12/02/2020 23:14:19	120220	12022020	231419	235.56	12.188438	-57.133853	235.58	-0.270	-0.660	1.430	235.61	-2.00	1.70	 	 	 	 	 	 	 	 	 	 	 	 	 	 	 	 	 	 	1581549259	7.35	13.61
12/02/2020 23:14:20	120220	12022020	231420	235.89	12.188420	-57.133882	235.92	-0.220	-0.460	0.750	235.97	-1.80	1.00	 	 	 	 	 	 	 	 	 	 	 	 	 	 	 	 	 	 	1581549260	7.35	13.61
12/02/2020 23:14:21	120220	12022020	231421	236.28	12.188400	-57.133910	236.31	-0.190	-0.190	0.190	236.35	-1.50	0.50	 	 	 	 	 	 	 	 	 	 	 	 	 	 	 	 	 	 	1581549261	7.21	13.35
12/02/2020 23:14:22	120220	12022020	231422	236.53	12.188382	-57.133940	236.52	-0.200	0.020	-0.010	236.54	-1.30	0.40	 	 	 	 	 	 	 	 	 	 	 	 	 	 	 	 	 	 	1581549262	7.24	13.41
12/02/2020 23:14:23	120220	12022020	231423	236.51	12.188363	-57.133970	236.50	-0.170	0.030	0.160	236.49	-1.40	0.60	 	 	 	 	 	 	 	 	 	 	 	 	 	 	 	 	 	 	1581549263	7.44	13.78
12/02/2020 23:14:24	120220	12022020	231424	236.40	12.188347	-57.134000	236.39	-0.080	0.010	0.500	236.38	-1.40	1.00	 	 	 	 	 	 	 	 	 	 	 	 	 	 	 	 	 	 	1581549264	7.53	13.95
12/02/2020 23:14:25	120220	12022020	231425	236.28	12.188330	-57.134032	236.27	0.030	0.060	0.990	236.26	-1.30	1.50	 	 	 	 	 	 	 	 	 	 	 	 	 	 	 	 	 	 	1581549265	7.53	13.95
12/02/2020 23:14:26	120220	12022020	231426	236.12	12.188317	-57.134062	236.12	0.120	0.100	1.540	236.09	-1.30	2.10	 	 	 	 	 	 	 	 	 	 	 	 	 	 	 	 	 	 	1581549266	7.40	13.70
12/02/2020 23:14:27	120220	12022020	231427	235.97	12.188303	-57.134093	235.96	0.170	0.100	1.910	235.94	-1.30	2.30	 	 	 	 	 	 	 	 	 	 	 	 	 	 	 	 	 	 	1581549267	7.26	13.45
12/02/2020 23:14:28	120220	12022020	231428	235.82	12.188288	-57.134123	235.82	0.200	0.020	1.930	235.80	-1.40	2.30	 	 	 	 	 	 	 	 	 	 	 	 	 	 	 	 	 	 	1581549268	7.26	13.45
12/02/2020 23:14:29	120220	12022020	231429	235.70	12.188270	-57.134153	235.68	0.250	-0.310	1.670	235.68	-1.80	2.00	 	 	 	 	 	 	 	 	 	 	 	 	 	 	 	 	 	 	1581549269	7.24	13.41
12/02/2020 23:14:30	120220	12022020	231430	235.56	12.188252	-57.134183	235.54	0.320	-0.790	1.330	235.53	-2.30	1.70	 	 	 	 	 	 	 	 	 	 	 	 	 	 	 	 	 	 	1581549270	7.49	13.87
12/02/2020 23:14:31	120220	12022020	231431	235.40	12.188232	-57.134213	235.37	0.340	-1.110	1.030	235.37	-2.50	1.40	 	 	 	 	 	 	 	 	 	 	 	 	 	 	 	 	 	 	1581549271	7.49	13.87
12/02/2020 23:14:32	120220	12022020	231432	235.29	12.188213	-57.134242	235.28	0.210	-1.090	0.830	235.28	-2.40	1.20	 	 	 	 	 	 	 	 	 	 	 	 	 	 	 	 	 	 	1581549272	7.36	13.63
12/02/2020 23:14:33	120220	12022020	231433	235.25	12.188195	-57.134270	235.26	-0.090	-0.840	0.910	235.25	-2.10	1.40	 	 	 	 	 	 	 	 	 	 	 	 	 	 	 	 	 	 	1581549273	7.26	13.45
12/02/2020 23:14:34	120220	12022020	231434	235.24	12.188180	-57.134302	235.26	-0.390	-0.490	1.140	235.24	-1.80	1.60	 	 	 	 	 	 	 	 	 	 	 	 	 	 	 	 	 	 	1581549274	7.34	13.59
12/02/2020 23:14:35	120220	12022020	231435	235.34	12.188165	-57.134333	235.39	-0.550	-0.050	1.200	235.39	-1.30	1.60	 	 	 	 	 	 	 	 	 	 	 	 	 	 	 	 	 	 	1581549275	7.38	13.67
12/02/2020 23:14:36	120220	12022020	231436	235.65	12.188148	-57.134363	235.72	-0.480	0.450	1.060	235.72	-0.80	1.40	 	 	 	 	 	 	 	 	 	 	 	 	 	 	 	 	 	 	1581549276	7.38	13.67
12/02/2020 23:14:37	120220	12022020	231437	235.99	12.188132	-57.134392	236.04	-0.210	0.710	0.910	236.05	-0.70	1.30	 	 	 	 	 	 	 	 	 	 	 	 	 	 	 	 	 	 	1581549277	7.19	13.32
12/02/2020 23:14:38	120220	12022020	231438	236.24	12.188113	-57.134422	236.27	0.090	0.510	0.870	236.27	-1.00	1.30	 	 	 	 	 	 	 	 	 	 	 	 	 	 	 	 	 	 	1581549278	7.49	13.87
12/02/2020 23:14:39	120220	12022020	231439	236.39	12.188093	-57.134452	236.40	0.270	0.030	0.970	236.40	-1.50	1.40	 	 	 	 	 	 	 	 	 	 	 	 	 	 	 	 	 	 	1581549279	7.68	14.22
12/02/2020 23:14:40	120220	12022020	231440	236.35	12.188075	-57.134483	236.33	0.320	-0.450	1.310	236.31	-1.90	1.80	 	 	 	 	 	 	 	 	 	 	 	 	 	 	 	 	 	 	1581549280	7.68	14.22
12/02/2020 23:14:41	120220	12022020	231441	236.04	12.188060	-57.134515	235.99	0.320	-0.810	1.830	236.04	-2.20	2.40	 	 	 	 	 	 	 	 	 	 	 	 	 	 	 	 	 	 	1581549281	7.61	14.09
12/02/2020 23:14:42	120220	12022020	231442	235.48	12.188045	-57.134547	235.44	0.290	-0.890	2.330	235.37	-2.20	2.80	 	 	 	 	 	 	 	 	 	 	 	 	 	 	 	 	 	 	1581549282	7.40	13.70
12/02/2020 23:14:43	120220	12022020	231443	234.97	12.188030	-57.134577	234.94	0.180	-0.640	2.480	234.89	-1.90	2.90	 	 	 	 	 	 	 	 	 	 	 	 	 	 	 	 	 	 	1581549283	7.14	13.22
12/02/2020 23:14:44	120220	12022020	231444	234.71	12.188015	-57.134607	234.69	0.030	-0.280	2.140	234.69	-1.60	2.40	 	 	 	 	 	 	 	 	 	 	 	 	 	 	 	 	 	 	1581549284	6.91	12.80
12/02/2020 23:14:45	120220	12022020	231445	234.72	12.187997	-57.134633	234.74	-0.060	-0.130	1.440	234.76	-1.50	1.70	 	 	 	 	 	 	 	 	 	 	 	 	 	 	 	 	 	 	1581549285	7.08	13.11
12/02/2020 23:14:46	120220	12022020	231446	235.08	12.187977	-57.134662	235.13	-0.080	-0.210	0.570	235.19	-1.60	0.80	 	 	 	 	 	 	 	 	 	 	 	 	 	 	 	 	 	 	1581549286	7.08	13.11
12/02/2020 23:14:47	120220	12022020	231447	235.67	12.187957	-57.134692	235.74	-0.060	-0.360	-0.190	235.81	-1.80	0.10	 	 	 	 	 	 	 	 	 	 	 	 	 	 	 	 	 	 	1581549287	7.52	13.93
12/02/2020 23:14:48	120220	12022020	231448	236.33	12.187937	-57.134720	236.38	-0.060	-0.380	-0.660	236.45	-1.70	-0.30	 	 	 	 	 	 	 	 	 	 	 	 	 	 	 	 	 	 	1581549288	7.45	13.80
12/02/2020 23:14:49	120220	12022020	231449	236.88	12.187918	-57.134748	236.91	-0.090	-0.250	-0.680	236.97	-1.60	-0.20	 	 	 	 	 	 	 	 	 	 	 	 	 	 	 	 	 	 	1581549289	7.33	13.58
12/02/2020 23:14:50	120220	12022020	231450	237.16	12.187900	-57.134778	237.16	-0.170	-0.130	-0.140	237.17	-1.50	0.50	 	 	 	 	 	 	 	 	 	 	 	 	 	 	 	 	 	 	1581549290	7.33	13.58
12/02/2020 23:14:51	120220	12022020	231451	237.00	12.187887	-57.134812	236.95	-0.250	-0.230	0.940	236.92	-1.70	1.60	 	 	 	 	 	 	 	 	 	 	 	 	 	 	 	 	 	 	1581549291	7.56	14.00
12/02/2020 23:14:52	120220	12022020	231452	236.45	12.187873	-57.134845	236.37	-0.220	-0.390	2.060	236.31	-1.80	2.70	 	 	 	 	 	 	 	 	 	 	 	 	 	 	 	 	 	 	1581549292	7.56	14.00
12/02/2020 23:14:53	120220	12022020	231453	235.87	12.187858	-57.134878	235.65	-0.090	-0.310	2.740	235.73	-1.60	3.20	 	 	 	 	 	 	 	 	 	 	 	 	 	 	 	 	 	 	1581549293	7.59	14.06
12/02/2020 23:14:54	120220	12022020	231454	235.14	12.187843	-57.134908	235.09	0.060	-0.070	2.700	235.06	-1.40	3.00	 	 	 	 	 	 	 	 	 	 	 	 	 	 	 	 	 	 	1581549294	7.59	14.06
12/02/2020 23:14:55	120220	12022020	231455	234.89	12.187825	-57.134937	234.89	0.170	-0.020	2.140	234.89	-1.40	2.40	 	 	 	 	 	 	 	 	 	 	 	 	 	 	 	 	 	 	1581549295	7.17	13.28
12/02/2020 23:14:56	120220	12022020	231456	234.98	12.187805	-57.134965	234.99	0.220	-0.330	1.360	235.02	-1.80	1.60	 	 	 	 	 	 	 	 	 	 	 	 	 	 	 	 	 	 	1581549296	7.12	13.19
12/02/2020 23:14:57	120220	12022020	231457	235.20	12.187783	-57.134995	235.21	0.220	-0.640	0.720	235.25	-2.00	1.00	 	 	 	 	 	 	 	 	 	 	 	 	 	 	 	 	 	 	1581549297	7.65	14.17
12/02/2020 23:14:58	120220	12022020	231458	235.47	12.187765	-57.135023	235.51	0.170	-0.550	0.330	235.54	-1.80	0.70	 	 	 	 	 	 	 	 	 	 	 	 	 	 	 	 	 	 	1581549298	7.65	14.17
12/02/2020 23:14:59	120220	12022020	231459	235.83	12.187748	-57.135053	235.88	0.020	-0.100	0.240	235.91	-1.40	0.70	 	 	 	 	 	 	 	 	 	 	 	 	 	 	 	 	 	 	1581549299	7.41	13.72
12/02/2020 23:15:00	120220	12022020	231500	236.24	12.187733	-57.135082	236.28	-0.190	0.370	0.230	236.32	-0.90	0.60	 	 	 	 	 	 	 	 	 	 	 	 	 	 	 	 	 	 	1581549300	6.90	12.78
12/02/2020 23:15:01	120220	12022020	231501	236.69	12.187718	-57.135110	236.72	-0.330	0.530	0.030	236.77	-0.90	0.40	1015.40	26.50	29.30	20.90	21.40	-1.0	71.0	62.0	390.0	25.8	203.00	6.50	70.00	10.10	16	11251.0	27.5	27.4	1581549301	6.90	12.78
12/02/2020 23:15:02	120220	12022020	231502	237.02	12.187700	-57.135138	237.00	-0.180	0.220	-0.220	237.02	-1.30	0.20	 	 	 	 	 	 	 	 	 	 	 	 	 	 	 	 	 	 	1581549302	6.99	12.95
12/02/2020 23:15:03	120220	12022020	231503	236.92	12.187680	-57.135170	236.86	0.210	-0.530	0.010	236.92	-2.10	0.60	 	 	 	 	 	 	 	 	 	 	 	 	 	 	 	 	 	 	1581549303	7.67	14.20
12/02/2020 23:15:04	120220	12022020	231504	236.40	12.187660	-57.135202	236.32	0.530	-1.340	0.720	236.40	-2.80	1.30	 	 	 	 	 	 	 	 	 	 	 	 	 	 	 	 	 	 	1581549304	7.67	14.20
12/02/2020 23:15:05	120220	12022020	231505	235.72	12.187643	-57.135233	235.66	0.450	-1.630	1.540	235.72	-2.90	2.10	 	 	 	 	 	 	 	 	 	 	 	 	 	 	 	 	 	 	1581549305	7.94	14.70
12/02/2020 23:15:06	120220	12022020	231506	235.17	12.187630	-57.135265	235.14	0.000	-1.250	2.130	235.17	-2.50	2.60	 	 	 	 	 	 	 	 	 	 	 	 	 	 	 	 	 	 	1581549306	7.73	14.32
12/02/2020 23:15:07	120220	12022020	231507	234.94	12.187615	-57.135295	234.93	-0.470	-0.580	2.350	234.92	-1.80	2.80	 	 	 	 	 	 	 	 	 	 	 	 	 	 	 	 	 	 	1581549307	7.30	13.52
12/02/2020 23:15:08	120220	12022020	231508	234.99	12.187600	-57.135327	235.02	-0.640	-0.050	2.250	235.03	-1.30	2.60	 	 	 	 	 	 	 	 	 	 	 	 	 	 	 	 	 	 	1581549308	7.14	13.22
12/02/2020 23:15:09	120220	12022020	231509	235.31	12.187583	-57.135358	235.37	-0.560	0.330	1.960	235.39	-1.00	2.30	 	 	 	 	 	 	 	 	 	 	 	 	 	 	 	 	 	 	1581549309	7.65	14.17
12/02/2020 23:15:10	120220	12022020	231510	235.78	12.187567	-57.135390	235.84	-0.420	0.710	1.510	235.88	-0.60	1.80	 	 	 	 	 	 	 	 	 	 	 	 	 	 	 	 	 	 	1581549310	7.54	13.96
12/02/2020 23:15:11	120220	12022020	231511	236.27	12.187548	-57.135418	236.30	-0.270	1.020	0.820	236.36	-0.30	1.00	 	 	 	 	 	 	 	 	 	 	 	 	 	 	 	 	 	 	1581549311	7.54	13.96
12/02/2020 23:15:12	120220	12022020	231512	236.69	12.187527	-57.135445	236.68	-0.030	1.010	-0.000	236.75	-0.50	0.30	 	 	 	 	 	 	 	 	 	 	 	 	 	 	 	 	 	 	1581549312	7.24	13.41
12/02/2020 23:15:13	120220	12022020	231513	236.89	12.187505	-57.135472	236.85	0.320	0.430	-0.490	236.89	-1.10	-0.10	 	 	 	 	 	 	 	 	 	 	 	 	 	 	 	 	 	 	1581549313	7.42	13.74
12/02/2020 23:15:14	120220	12022020	231514	236.76	12.187485	-57.135502	236.69	0.610	-0.470	-0.230	236.70	-2.10	0.40	 	 	 	 	 	 	 	 	 	 	 	 	 	 	 	 	 	 	1581549314	7.66	14.19
12/02/2020 23:15:15	120220	12022020	231515	236.32	12.187468	-57.135533	236.24	0.640	-1.210	0.740	236.32	-2.70	1.40	 	 	 	 	 	 	 	 	 	 	 	 	 	 	 	 	 	 	1581549315	7.61	14.09
12/02/2020 23:15:16	120220	12022020	231516	235.75	12.187457	-57.135567	235.69	0.430	-1.470	1.780	235.75	-2.80	2.40	 	 	 	 	 	 	 	 	 	 	 	 	 	 	 	 	 	 	1581549316	7.39	13.69
12/02/2020 23:15:17	120220	12022020	231517	235.35	12.187443	-57.135598	235.32	0.200	-1.350	2.300	235.35	-2.70	2.70	 	 	 	 	 	 	 	 	 	 	 	 	 	 	 	 	 	 	1581549317	7.39	13.69
12/02/2020 23:15:18	120220	12022020	231518	235.24	12.187428	-57.135628	235.26	0.120	-1.140	2.190	235.24	-2.50	2.50	 	 	 	 	 	 	 	 	 	 	 	 	 	 	 	 	 	 	1581549318	7.14	13.22
12/02/2020 23:15:19	120220	12022020	231519	235.37	12.187412	-57.135657	235.40	0.100	-0.910	1.750	235.37	-2.20	2.10	 	 	 	 	 	 	 	 	 	 	 	 	 	 	 	 	 	 	1581549319	7.36	13.63
12/02/2020 23:15:20	120220	12022020	231520	235.60	12.187392	-57.135687	235.62	-0.040	-0.530	1.280	235.60	-1.80	1.60	 	 	 	 	 	 	 	 	 	 	 	 	 	 	 	 	 	 	1581549320	7.36	13.63
12/02/2020 23:15:21	120220	12022020	231521	235.85	12.187373	-57.135717	235.88	-0.330	0.050	0.960	235.89	-1.20	1.30	 	 	 	 	 	 	 	 	 	 	 	 	 	 	 	 	 	 	1581549321	7.51	13.91
12/02/2020 23:15:22	120220	12022020	231522	236.09	12.187355	-57.135747	236.11	-0.610	0.690	0.780	236.14	-0.60	1.20	 	 	 	 	 	 	 	 	 	 	 	 	 	 	 	 	 	 	1581549322	7.43	13.76
12/02/2020 23:15:23	120220	12022020	231523	236.34	12.187338	-57.135775	236.37	-0.670	1.080	0.570	236.39	-0.30	0.90	 	 	 	 	 	 	 	 	 	 	 	 	 	 	 	 	 	 	1581549323	7.30	13.52
12/02/2020 23:15:24	120220	12022020	231524	236.53	12.187318	-57.135805	236.52	-0.450	0.850	0.370	236.53	-0.70	0.80	 	 	 	 	 	 	 	 	 	 	 	 	 	 	 	 	 	 	1581549324	7.53	13.95
12/02/2020 23:15:25	120220	12022020	231525	236.48	12.187298	-57.135837	236.44	-0.050	0.000	0.450	236.44	-1.60	0.90	 	 	 	 	 	 	 	 	 	 	 	 	 	 	 	 	 	 	1581549325	8.05	14.91
12/02/2020 23:15:26	120220	12022020	231526	236.29	12.187278	-57.135868	236.26	0.250	-0.740	0.730	236.26	-2.20	1.20	 	 	 	 	 	 	 	 	 	 	 	 	 	 	 	 	 	 	1581549326	8.05	14.91
12/02/2020 23:15:27	120220	12022020	231527	236.17	12.187262	-57.135898	236.16	0.330	-0.830	1.060	236.17	-2.10	1.60	 	 	 	 	 	 	 	 	 	 	 	 	 	 	 	 	 	 	1581549327	7.30	13.52
12/02/2020 23:15:28	120220	12022020	231528	236.13	12.187248	-57.135928	236.12	0.290	-0.490	1.320	236.13	-1.80	1.80	 	 	 	 	 	 	 	 	 	 	 	 	 	 	 	 	 	 	1581549328	6.71	12.43
12/02/2020 23:15:29	120220	12022020	231529	236.11	12.187233	-57.135957	236.10	0.300	-0.240	1.420	236.11	-1.60	1.80	 	 	 	 	 	 	 	 	 	 	 	 	 	 	 	 	 	 	1581549329	6.71	12.43
12/02/2020 23:15:30	120220	12022020	231530	236.09	12.187218	-57.135987	236.07	0.400	-0.360	1.470	236.09	-1.80	1.90	 	 	 	 	 	 	 	 	 	 	 	 	 	 	 	 	 	 	1581549330	6.74	12.48
12/02/2020 23:15:31	120220	12022020	231531	236.02	12.187202	-57.136018	236.00	0.470	-0.640	1.490	236.02	-2.10	1.90	 	 	 	 	 	 	 	 	 	 	 	 	 	 	 	 	 	 	1581549331	7.56	14.00
12/02/2020 23:15:32	120220	12022020	231532	235.93	12.187183	-57.136048	235.92	0.380	-0.690	1.390	235.93	-2.00	1.80	 	 	 	 	 	 	 	 	 	 	 	 	 	 	 	 	 	 	1581549332	7.56	14.00
12/02/2020 23:15:33	120220	12022020	231533	235.89	12.187165	-57.136077	235.89	0.080	-0.440	1.090	235.89	-1.80	1.40	 	 	 	 	 	 	 	 	 	 	 	 	 	 	 	 	 	 	1581549333	7.54	13.96
12/02/2020 23:15:34	120220	12022020	231534	236.02	12.187147	-57.136105	236.03	-0.250	-0.190	0.680	236.02	-1.50	1.00	 	 	 	 	 	 	 	 	 	 	 	 	 	 	 	 	 	 	1581549334	7.29	13.50
12/02/2020 23:15:35	120220	12022020	231535	236.24	12.187127	-57.136135	236.24	-0.440	-0.220	0.440	236.24	-1.60	0.90	 	 	 	 	 	 	 	 	 	 	 	 	 	 	 	 	 	 	1581549335	7.25	13.43
12/02/2020 23:15:36	120220	12022020	231536	236.39	12.187108	-57.136167	236.39	-0.410	-0.520	0.560	236.39	-2.00	1.10	 	 	 	 	 	 	 	 	 	 	 	 	 	 	 	 	 	 	1581549336	7.49	13.87
12/02/2020 23:15:37	120220	12022020	231537	236.45	12.187092	-57.136200	236.44	-0.280	-0.640	0.970	236.45	-2.00	1.50	 	 	 	 	 	 	 	 	 	 	 	 	 	 	 	 	 	 	1581549337	7.89	14.61
12/02/2020 23:15:38	120220	12022020	231538	236.43	12.187078	-57.136233	236.42	-0.170	-0.270	1.440	236.43	-1.50	1.90	 	 	 	 	 	 	 	 	 	 	 	 	 	 	 	 	 	 	1581549338	7.89	14.61
12/02/2020 23:15:39	120220	12022020	231539	236.34	12.187063	-57.136262	236.32	-0.060	0.240	1.740	236.34	-1.00	2.20	 	 	 	 	 	 	 	 	 	 	 	 	 	 	 	 	 	 	1581549339	7.05	13.06
12/02/2020 23:15:40	120220	12022020	231540	236.26	12.187047	-57.136292	236.23	0.080	0.480	1.710	236.26	-0.90	2.10	 	 	 	 	 	 	 	 	 	 	 	 	 	 	 	 	 	 	1581549340	7.19	13.32
12/02/2020 23:15:41	120220	12022020	231541	236.17	12.187028	-57.136322	236.15	0.190	0.380	1.590	236.17	-1.10	2.00	 	 	 	 	 	 	 	 	 	 	 	 	 	 	 	 	 	 	1581549341	7.47	13.83
12/02/2020 23:15:42	120220	12022020	231542	236.04	12.187010	-57.136352	236.01	0.180	0.180	1.500	236.04	-1.30	1.90	 	 	 	 	 	 	 	 	 	 	 	 	 	 	 	 	 	 	1581549342	7.47	13.83
12/02/2020 23:15:43	120220	12022020	231543	235.79	12.186992	-57.136380	235.75	0.110	-0.050	1.420	235.79	-1.50	1.80	 	 	 	 	 	 	 	 	 	 	 	 	 	 	 	 	 	 	1581549343	7.49	13.87
12/02/2020 23:15:44	120220	12022020	231544	235.48	12.186975	-57.136410	235.44	0.040	-0.430	1.330	235.48	-1.90	1.70	 	 	 	 	 	 	 	 	 	 	 	 	 	 	 	 	 	 	1581549344	7.33	13.58
12/02/2020 23:15:45	120220	12022020	231545	235.35	12.186957	-57.136442	235.36	0.070	-0.890	1.030	235.35	-2.40	1.40	 	 	 	 	 	 	 	 	 	 	 	 	 	 	 	 	 	 	1581549345	7.37	13.65
12/02/2020 23:15:46	120220	12022020	231546	235.57	12.186938	-57.136470	235.62	0.190	-1.180	0.530	235.57	-2.60	0.90	 	 	 	 	 	 	 	 	 	 	 	 	 	 	 	 	 	 	1581549346	7.48	13.85
12/02/2020 23:15:47	120220	12022020	231547	235.98	12.186920	-57.136500	236.03	0.360	-1.240	0.140	235.98	-2.60	0.50	 	 	 	 	 	 	 	 	 	 	 	 	 	 	 	 	 	 	1581549347	7.40	13.70
12/02/2020 23:15:48	120220	12022020	231548	236.30	12.186902	-57.136530	236.33	0.420	-1.090	0.120	236.30	-2.40	0.60	 	 	 	 	 	 	 	 	 	 	 	 	 	 	 	 	 	 	1581549348	7.39	13.69
12/02/2020 23:15:49	120220	12022020	231549	236.41	12.186885	-57.136560	236.42	0.200	-0.600	0.480	236.41	-1.80	1.00	 	 	 	 	 	 	 	 	 	 	 	 	 	 	 	 	 	 	1581549349	7.37	13.65
12/02/2020 23:15:50	120220	12022020	231550	236.28	12.186872	-57.136592	236.26	-0.230	0.190	1.020	236.28	-1.00	1.50	 	 	 	 	 	 	 	 	 	 	 	 	 	 	 	 	 	 	1581549350	7.37	13.65
12/02/2020 23:15:51	120220	12022020	231551	236.08	12.186857	-57.136622	236.07	-0.620	0.840	1.380	236.08	-0.50	1.80	 	 	 	 	 	 	 	 	 	 	 	 	 	 	 	 	 	 	1581549351	7.22	13.37
12/02/2020 23:15:52	120220	12022020	231552	235.97	12.186840	-57.136653	235.97	-0.710	0.940	1.410	235.97	-0.50	1.80	 	 	 	 	 	 	 	 	 	 	 	 	 	 	 	 	 	 	1581549352	7.54	13.96
12/02/2020 23:15:53	120220	12022020	231553	235.94	12.186822	-57.136685	235.95	-0.460	0.480	1.190	235.94	-1.10	1.60	 	 	 	 	 	 	 	 	 	 	 	 	 	 	 	 	 	 	1581549353	7.85	14.54
12/02/2020 23:15:54	120220	12022020	231554	235.92	12.186800	-57.136715	235.91	-0.080	-0.190	0.990	235.92	-1.70	1.40	 	 	 	 	 	 	 	 	 	 	 	 	 	 	 	 	 	 	1581549354	7.85	14.54
12/02/2020 23:15:55	120220	12022020	231555	235.86	12.186782	-57.136747	235.83	0.210	-0.710	1.020	235.85	-2.20	1.50	 	 	 	 	 	 	 	 	 	 	 	 	 	 	 	 	 	 	1581549355	7.91	14.65
12/02/2020 23:15:56	120220	12022020	231556	235.75	12.186767	-57.136777	235.74	0.340	-0.860	1.150	235.75	-2.20	1.60	 	 	 	 	 	 	 	 	 	 	 	 	 	 	 	 	 	 	1581549356	7.65	14.17
12/02/2020 23:15:57	120220	12022020	231557	235.73	12.186752	-57.136807	235.74	0.370	-0.640	1.180	235.74	-1.90	1.60	 	 	 	 	 	 	 	 	 	 	 	 	 	 	 	 	 	 	1581549357	7.30	13.52
12/02/2020 23:15:58	120220	12022020	231558	235.87	12.186735	-57.136833	235.89	0.370	-0.250	0.980	235.87	-1.60	1.30	 	 	 	 	 	 	 	 	 	 	 	 	 	 	 	 	 	 	1581549358	6.96	12.89
12/02/2020 23:15:59	120220	12022020	231559	236.11	12.186717	-57.136862	236.13	0.300	-0.050	0.670	236.11	-1.50	1.00	 	 	 	 	 	 	 	 	 	 	 	 	 	 	 	 	 	 	1581549359	6.78	12.56
12/02/2020 23:16:00	120220	12022020	231600	236.30	12.186698	-57.136892	236.30	0.140	-0.310	0.540	236.30	-1.80	1.00	 	 	 	 	 	 	 	 	 	 	 	 	 	 	 	 	 	 	1581549360	6.97	12.91
12/02/2020 23:16:01	120220	12022020	231601	236.30	12.186680	-57.136923	236.29	-0.070	-0.760	0.840	236.30	-2.20	1.40	1015.50	26.40	27.20	20.90	20.80	-1.0	71.0	68.0	390.0	25.8	201.00	6.90	70.00	10.50	16	11570.0	27.5	27.5	1581549361	7.46	13.82
12/02/2020 23:16:02	120220	12022020	231602	236.03	12.186667	-57.136958	236.00	-0.260	-0.940	1.510	236.03	-2.30	2.10	 	 	 	 	 	 	 	 	 	 	 	 	 	 	 	 	 	 	1581549362	7.87	14.58
12/02/2020 23:16:03	120220	12022020	231603	235.57	12.186653	-57.136992	235.54	-0.340	-0.640	2.180	235.57	-1.90	2.70	 	 	 	 	 	 	 	 	 	 	 	 	 	 	 	 	 	 	1581549363	7.56	14.00
12/02/2020 23:16:04	120220	12022020	231604	235.11	12.186638	-57.137022	235.09	-0.280	-0.070	2.510	235.11	-1.30	2.90	 	 	 	 	 	 	 	 	 	 	 	 	 	 	 	 	 	 	1581549364	7.56	14.00
12/02/2020 23:16:05	120220	12022020	231605	234.88	12.186622	-57.137052	234.91	-0.160	0.400	2.220	234.88	-0.90	2.50	 	 	 	 	 	 	 	 	 	 	 	 	 	 	 	 	 	 	1581549365	7.15	13.24
12/02/2020 23:16:06	120220	12022020	231606	235.02	12.186602	-57.137078	235.07	-0.040	0.530	1.440	235.02	-0.90	1.70	 	 	 	 	 	 	 	 	 	 	 	 	 	 	 	 	 	 	1581549366	7.15	13.24
12/02/2020 23:16:07	120220	12022020	231607	235.36	12.186580	-57.137107	235.40	0.000	0.260	0.580	235.36	-1.20	0.90	 	 	 	 	 	 	 	 	 	 	 	 	 	 	 	 	 	 	1581549367	7.28	13.48
12/02/2020 23:16:08	120220	12022020	231608	235.68	12.186558	-57.137135	235.69	-0.020	-0.240	0.070	235.68	-1.70	0.50	 	 	 	 	 	 	 	 	 	 	 	 	 	 	 	 	 	 	1581549368	7.65	14.17
12/02/2020 23:16:09	120220	12022020	231609	235.86	12.186540	-57.137167	235.86	0.010	-0.610	-0.010	235.86	-2.00	0.40	 	 	 	 	 	 	 	 	 	 	 	 	 	 	 	 	 	 	1581549369	7.65	14.17
12/02/2020 23:16:10	120220	12022020	231610	235.89	12.186523	-57.137195	235.87	0.140	-0.710	0.200	235.89	-2.10	0.70	 	 	 	 	 	 	 	 	 	 	 	 	 	 	 	 	 	 	1581549370	7.55	13.98
12/02/2020 23:16:11	120220	12022020	231611	235.82	12.186505	-57.137225	235.82	0.240	-0.760	0.650	235.82	-2.20	1.20	 	 	 	 	 	 	 	 	 	 	 	 	 	 	 	 	 	 	1581549371	7.26	13.45
12/02/2020 23:16:12	120220	12022020	231612	235.77	12.186490	-57.137257	235.78	0.180	-0.760	1.260	235.77	-2.10	1.80	 	 	 	 	 	 	 	 	 	 	 	 	 	 	 	 	 	 	1581549372	7.29	13.50
12/02/2020 23:16:13	120220	12022020	231613	235.73	12.186477	-57.137288	235.75	-0.010	-0.500	1.830	235.73	-1.80	2.40	 	 	 	 	 	 	 	 	 	 	 	 	 	 	 	 	 	 	1581549373	7.47	13.83
12/02/2020 23:16:14	120220	12022020	231614	235.68	12.186463	-57.137320	235.70	-0.160	0.060	2.190	235.68	-1.20	2.60	 	 	 	 	 	 	 	 	 	 	 	 	 	 	 	 	 	 	1581549374	7.46	13.82
12/02/2020 23:16:15	120220	12022020	231615	235.51	12.186448	-57.137350	235.50	-0.160	0.540	2.290	235.51	-0.80	2.70	 	 	 	 	 	 	 	 	 	 	 	 	 	 	 	 	 	 	1581549375	7.03	13.02
12/02/2020 23:16:16	120220	12022020	231616	235.16	12.186432	-57.137380	235.14	-0.020	0.550	2.170	235.16	-0.90	2.50	 	 	 	 	 	 	 	 	 	 	 	 	 	 	 	 	 	 	1581549376	7.03	13.02
12/02/2020 23:16:17	120220	12022020	231617	234.82	12.186412	-57.137410	234.82	0.110	0.100	1.760	234.82	-1.40	2.00	 	 	 	 	 	 	 	 	 	 	 	 	 	 	 	 	 	 	1581549377	7.31	13.54
12/02/2020 23:16:18	120220	12022020	231618	234.72	12.186390	-57.137440	234.73	0.190	-0.530	1.060	234.72	-2.10	1.30	 	 	 	 	 	 	 	 	 	 	 	 	 	 	 	 	 	 	1581549378	7.66	14.19
12/02/2020 23:16:19	120220	12022020	231619	234.89	12.186368	-57.137468	235.01	0.240	-1.070	0.100	234.97	-2.50	0.30	 	 	 	 	 	 	 	 	 	 	 	 	 	 	 	 	 	 	1581549379	7.75	14.35
12/02/2020 23:16:20	120220	12022020	231620	235.49	12.186347	-57.137497	235.54	0.200	-1.340	-0.720	235.49	-2.70	-0.40	 	 	 	 	 	 	 	 	 	 	 	 	 	 	 	 	 	 	1581549380	7.67	14.20
12/02/2020 23:16:21	120220	12022020	231621	235.98	12.186327	-57.137525	236.12	-0.010	-1.210	-0.880	236.09	-2.50	-0.40	 	 	 	 	 	 	 	 	 	 	 	 	 	 	 	 	 	 	1581549381	7.36	13.63
12/02/2020 23:16:22	120220	12022020	231622	236.47	12.186312	-57.137555	236.47	-0.310	-0.700	-0.360	236.47	-1.90	0.30	 	 	 	 	 	 	 	 	 	 	 	 	 	 	 	 	 	 	1581549382	7.36	13.63
12/02/2020 23:16:23	120220	12022020	231623	236.49	12.186298	-57.137585	236.46	-0.460	0.080	0.550	236.49	-1.10	1.20	 	 	 	 	 	 	 	 	 	 	 	 	 	 	 	 	 	 	1581549383	7.21	13.35
12/02/2020 23:16:24	120220	12022020	231624	236.20	12.186285	-57.137617	236.17	-0.370	0.800	1.480	236.20	-0.50	2.10	 	 	 	 	 	 	 	 	 	 	 	 	 	 	 	 	 	 	1581549384	7.15	13.24
12/02/2020 23:16:25	120220	12022020	231625	235.75	12.186272	-57.137648	235.71	-0.110	1.070	2.080	235.75	-0.30	2.60	 	 	 	 	 	 	 	 	 	 	 	 	 	 	 	 	 	 	1581549385	7.17	13.28
12/02/2020 23:16:26	120220	12022020	231626	235.25	12.186253	-57.137680	235.21	0.140	0.770	2.210	235.25	-0.70	2.60	 	 	 	 	 	 	 	 	 	 	 	 	 	 	 	 	 	 	1581549386	7.41	13.72
12/02/2020 23:16:27	120220	12022020	231627	234.87	12.186233	-57.137712	234.86	0.260	0.110	1.890	234.87	-1.40	2.20	 	 	 	 	 	 	 	 	 	 	 	 	 	 	 	 	 	 	1581549387	7.77	14.39
12/02/2020 23:16:28	120220	12022020	231628	234.78	12.186213	-57.137742	234.80	0.220	-0.650	1.310	234.78	-2.20	1.60	 	 	 	 	 	 	 	 	 	 	 	 	 	 	 	 	 	 	1581549388	7.77	14.39
12/02/2020 23:16:29	120220	12022020	231629	234.97	12.186195	-57.137770	235.00	0.160	-1.190	0.600	234.97	-2.60	0.80	 	 	 	 	 	 	 	 	 	 	 	 	 	 	 	 	 	 	1581549389	7.67	14.20
12/02/2020 23:16:30	120220	12022020	231630	235.41	12.186177	-57.137798	235.45	0.170	-1.380	-0.140	235.41	-2.70	0.20	 	 	 	 	 	 	 	 	 	 	 	 	 	 	 	 	 	 	1581549390	7.16	13.26
12/02/2020 23:16:31	120220	12022020	231631	235.92	12.186158	-57.137827	235.93	0.200	-1.250	-0.490	235.92	-2.60	-0.10	 	 	 	 	 	 	 	 	 	 	 	 	 	 	 	 	 	 	1581549391	7.02	13.00
12/02/2020 23:16:32	120220	12022020	231632	236.16	12.186140	-57.137855	236.15	0.120	-0.940	-0.240	236.16	-2.20	0.30	 	 	 	 	 	 	 	 	 	 	 	 	 	 	 	 	 	 	1581549392	7.02	13.00
12/02/2020 23:16:33	120220	12022020	231633	236.13	12.186125	-57.137885	236.09	-0.080	-0.500	0.380	236.13	-1.70	1.00	 	 	 	 	 	 	 	 	 	 	 	 	 	 	 	 	 	 	1581549393	7.32	13.56
12/02/2020 23:16:34	120220	12022020	231634	235.93	12.186110	-57.137917	235.90	-0.300	0.060	1.100	235.93	-1.20	1.70	 	 	 	 	 	 	 	 	 	 	 	 	 	 	 	 	 	 	1581549394	7.32	13.56
12/02/2020 23:16:35	120220	12022020	231635	235.60	12.186095	-57.137950	235.58	-0.430	0.460	1.800	235.60	-0.90	2.40	 	 	 	 	 	 	 	 	 	 	 	 	 	 	 	 	 	 	1581549395	7.41	13.72
12/02/2020 23:16:36	120220	12022020	231636	235.19	12.186080	-57.137983	235.16	-0.440	0.600	2.310	235.19	-0.80	2.80	 	 	 	 	 	 	 	 	 	 	 	 	 	 	 	 	 	 	1581549396	7.55	13.98
12/02/2020 23:16:37	120220	12022020	231637	234.92	12.186063	-57.138015	234.92	-0.310	0.600	2.270	234.92	-0.80	2.60	 	 	 	 	 	 	 	 	 	 	 	 	 	 	 	 	 	 	1581549397	7.76	14.37
12/02/2020 23:16:38	120220	12022020	231638	235.04	12.186045	-57.138045	235.06	-0.110	0.480	1.610	235.04	-1.00	1.80	 	 	 	 	 	 	 	 	 	 	 	 	 	 	 	 	 	 	1581549398	7.67	14.20
12/02/2020 23:16:39	120220	12022020	231639	235.44	12.186025	-57.138072	235.47	0.070	0.110	0.770	235.44	-1.40	1.00	 	 	 	 	 	 	 	 	 	 	 	 	 	 	 	 	 	 	1581549399	7.36	13.63
12/02/2020 23:16:40	120220	12022020	231640	235.76	12.186005	-57.138100	235.76	0.190	-0.440	0.250	235.76	-1.90	0.60	 	 	 	 	 	 	 	 	 	 	 	 	 	 	 	 	 	 	1581549400	7.30	13.52
12/02/2020 23:16:41	120220	12022020	231641	235.93	12.185987	-57.138128	235.93	0.320	-0.840	0.130	235.93	-2.30	0.60	 	 	 	 	 	 	 	 	 	 	 	 	 	 	 	 	 	 	1581549401	7.36	13.63
12/02/2020 23:16:42	120220	12022020	231642	236.06	12.185968	-57.138158	236.03	0.450	-0.990	0.180	236.06	-2.40	0.60	 	 	 	 	 	 	 	 	 	 	 	 	 	 	 	 	 	 	1581549402	7.26	13.45
12/02/2020 23:16:43	120220	12022020	231643	236.04	12.185952	-57.138187	235.97	0.520	-1.040	0.440	236.04	-2.40	1.00	 	 	 	 	 	 	 	 	 	 	 	 	 	 	 	 	 	 	1581549403	7.08	13.11
12/02/2020 23:16:44	120220	12022020	231644	235.66	12.185935	-57.138217	235.57	0.410	-1.060	1.070	235.66	-2.40	1.70	 	 	 	 	 	 	 	 	 	 	 	 	 	 	 	 	 	 	1581549404	7.40	13.70
12/02/2020 23:16:45	120220	12022020	231645	235.00	12.185922	-57.138250	234.93	0.080	-0.950	1.910	235.00	-2.20	2.50	 	 	 	 	 	 	 	 	 	 	 	 	 	 	 	 	 	 	1581549405	7.40	13.70
12/02/2020 23:16:46	120220	12022020	231646	234.55	12.185907	-57.138283	234.53	-0.330	-0.510	2.380	234.55	-1.70	2.80	 	 	 	 	 	 	 	 	 	 	 	 	 	 	 	 	 	 	1581549406	7.71	14.28
12/02/2020 23:16:47	120220	12022020	231647	234.60	12.185893	-57.138315	234.70	-0.600	0.200	2.260	234.66	-1.00	2.60	 	 	 	 	 	 	 	 	 	 	 	 	 	 	 	 	 	 	1581549407	7.66	14.19
12/02/2020 23:16:48	120220	12022020	231648	235.19	12.185877	-57.138345	235.24	-0.590	0.790	1.690	235.19	-0.50	1.90	 	 	 	 	 	 	 	 	 	 	 	 	 	 	 	 	 	 	1581549408	7.29	13.50
12/02/2020 23:16:49	120220	12022020	231649	235.83	12.185857	-57.138373	235.87	-0.350	0.920	0.870	235.83	-0.50	1.10	 	 	 	 	 	 	 	 	 	 	 	 	 	 	 	 	 	 	1581549409	7.12	13.19
12/02/2020 23:16:50	120220	12022020	231650	236.34	12.185835	-57.138402	236.36	-0.050	0.590	0.220	236.34	-0.90	0.60	 	 	 	 	 	 	 	 	 	 	 	 	 	 	 	 	 	 	1581549410	7.31	13.54
12/02/2020 23:16:51	120220	12022020	231651	236.64	12.185815	-57.138430	236.63	0.140	-0.000	0.010	236.64	-1.50	0.50	 	 	 	 	 	 	 	 	 	 	 	 	 	 	 	 	 	 	1581549411	7.67	14.20
12/02/2020 23:16:52	120220	12022020	231652	236.69	12.185797	-57.138462	236.65	0.170	-0.610	0.290	236.69	-2.10	0.80	 	 	 	 	 	 	 	 	 	 	 	 	 	 	 	 	 	 	1581549412	7.67	14.20
12/02/2020 23:16:53	120220	12022020	231653	236.45	12.185780	-57.138492	236.39	0.170	-1.060	0.940	236.45	-2.50	1.50	 	 	 	 	 	 	 	 	 	 	 	 	 	 	 	 	 	 	1581549413	7.54	13.96
12/02/2020 23:16:54	120220	12022020	231654	236.02	12.185765	-57.138523	235.97	0.250	-1.230	1.550	236.02	-2.60	2.10	 	 	 	 	 	 	 	 	 	 	 	 	 	 	 	 	 	 	1581549414	7.42	13.74
12/02/2020 23:16:55	120220	12022020	231655	235.55	12.185750	-57.138553	235.51	0.320	-1.090	1.880	235.55	-2.40	2.30	 	 	 	 	 	 	 	 	 	 	 	 	 	 	 	 	 	 	1581549415	7.32	13.56
12/02/2020 23:16:56	120220	12022020	231656	235.23	12.185735	-57.138583	235.21	0.240	-0.660	1.900	235.23	-1.90	2.30	 	 	 	 	 	 	 	 	 	 	 	 	 	 	 	 	 	 	1581549416	7.24	13.41
12/02/2020 23:16:57	120220	12022020	231657	235.28	12.185718	-57.138612	235.30	0.020	-0.020	1.660	235.28	-1.20	2.00	 	 	 	 	 	 	 	 	 	 	 	 	 	 	 	 	 	 	1581549417	7.14	13.22
12/02/2020 23:16:58	120220	12022020	231658	235.55	12.185702	-57.138642	235.56	-0.160	0.470	1.400	235.55	-0.90	1.80	 	 	 	 	 	 	 	 	 	 	 	 	 	 	 	 	 	 	1581549418	7.02	13.00
12/02/2020 23:16:59	120220	12022020	231659	235.69	12.185685	-57.138672	235.67	-0.200	0.470	1.300	235.69	-1.00	1.70	 	 	 	 	 	 	 	 	 	 	 	 	 	 	 	 	 	 	1581549419	7.02	13.00
12/02/2020 23:17:00	120220	12022020	231700	235.76	12.185667	-57.138703	235.73	-0.140	0.150	1.130	235.76	-1.30	1.50	 	 	 	 	 	 	 	 	 	 	 	 	 	 	 	 	 	 	1581549420	7.47	13.83
12/02/2020 23:17:01	120220	12022020	231701	235.92	12.185650	-57.138735	235.90	-0.070	-0.180	0.790	235.92	-1.60	1.10	1015.40	26.40	27.00	20.70	20.80	-1.0	71.0	69.0	390.0	25.8	197.00	7.20	67.00	10.90	16	11331.0	27.5	27.4	1581549421	7.80	14.45
12/02/2020 23:17:02	120220	12022020	231702	236.16	12.185632	-57.138765	236.13	-0.020	-0.460	0.370	236.16	-1.90	0.70	 	 	 	 	 	 	 	 	 	 	 	 	 	 	 	 	 	 	1581549422	7.44	13.78
12/02/2020 23:17:03	120220	12022020	231703	236.40	12.185613	-57.138795	236.36	0.020	-0.710	-0.070	236.40	-2.10	0.30	 	 	 	 	 	 	 	 	 	 	 	 	 	 	 	 	 	 	1581549423	7.44	13.78
12/02/2020 23:17:04	120220	12022020	231704	236.64	12.185593	-57.138823	236.59	0.040	-0.830	-0.400	236.64	-2.20	0.00	 	 	 	 	 	 	 	 	 	 	 	 	 	 	 	 	 	 	1581549424	7.37	13.65
12/02/2020 23:17:05	120220	12022020	231705	236.82	12.185573	-57.138852	236.76	-0.010	-0.750	-0.380	236.82	-2.10	0.10	 	 	 	 	 	 	 	 	 	 	 	 	 	 	 	 	 	 	1581549425	7.35	13.61
12/02/2020 23:17:06	120220	12022020	231706	236.77	12.185557	-57.138880	236.69	-0.090	-0.500	0.080	236.77	-1.80	0.70	 	 	 	 	 	 	 	 	 	 	 	 	 	 	 	 	 	 	1581549426	7.27	13.46
12/02/2020 23:17:07	120220	12022020	231707	236.39	12.185540	-57.138912	236.30	-0.160	-0.040	0.880	236.39	-1.30	1.50	 	 	 	 	 	 	 	 	 	 	 	 	 	 	 	 	 	 	1581549427	7.28	13.48
12/02/2020 23:17:08	120220	12022020	231708	235.76	12.185527	-57.138942	235.67	-0.180	0.480	1.740	235.76	-0.80	2.30	 	 	 	 	 	 	 	 	 	 	 	 	 	 	 	 	 	 	1581549428	7.25	13.43
12/02/2020 23:17:09	120220	12022020	231709	235.18	12.185515	-57.138973	235.13	-0.120	0.780	2.300	235.18	-0.60	2.80	 	 	 	 	 	 	 	 	 	 	 	 	 	 	 	 	 	 	1581549429	7.21	13.35
12/02/2020 23:17:10	120220	12022020	231710	234.91	12.185500	-57.139007	234.91	0.050	0.540	2.330	234.91	-1.00	2.70	 	 	 	 	 	 	 	 	 	 	 	 	 	 	 	 	 	 	1581549430	7.45	13.80
12/02/2020 23:17:11	120220	12022020	231711	235.01	12.185483	-57.139038	235.05	0.250	-0.240	1.920	235.01	-1.80	2.20	 	 	 	 	 	 	 	 	 	 	 	 	 	 	 	 	 	 	1581549431	7.45	13.80
12/02/2020 23:17:12	120220	12022020	231712	235.37	12.185463	-57.139070	235.41	0.390	-1.070	1.150	235.37	-2.60	1.40	 	 	 	 	 	 	 	 	 	 	 	 	 	 	 	 	 	 	1581549432	7.78	14.41
12/02/2020 23:17:13	120220	12022020	231713	235.90	12.185443	-57.139098	235.95	0.360	-1.400	0.190	235.90	-2.80	0.40	 	 	 	 	 	 	 	 	 	 	 	 	 	 	 	 	 	 	1581549433	7.86	14.56
12/02/2020 23:17:14	120220	12022020	231714	236.49	12.185423	-57.139125	236.51	0.170	-1.230	-0.630	236.49	-2.50	-0.30	 	 	 	 	 	 	 	 	 	 	 	 	 	 	 	 	 	 	1581549434	7.47	13.83
12/02/2020 23:17:15	120220	12022020	231715	236.79	12.185403	-57.139152	236.75	-0.060	-0.940	-0.890	236.79	-2.30	-0.40	 	 	 	 	 	 	 	 	 	 	 	 	 	 	 	 	 	 	1581549435	7.09	13.13
12/02/2020 23:17:16	120220	12022020	231716	236.63	12.185383	-57.139182	236.56	-0.250	-0.730	-0.420	236.63	-2.00	0.20	 	 	 	 	 	 	 	 	 	 	 	 	 	 	 	 	 	 	1581549436	7.11	13.17
12/02/2020 23:17:17	120220	12022020	231717	236.17	12.185368	-57.139213	236.10	-0.410	-0.360	0.560	236.17	-1.60	1.20	 	 	 	 	 	 	 	 	 	 	 	 	 	 	 	 	 	 	1581549437	7.49	13.87
12/02/2020 23:17:18	120220	12022020	231718	235.67	12.185355	-57.139247	235.62	-0.520	0.380	1.640	235.67	-0.80	2.30	 	 	 	 	 	 	 	 	 	 	 	 	 	 	 	 	 	 	1581549438	7.69	14.24
12/02/2020 23:17:19	120220	12022020	231719	235.27	12.185343	-57.139278	235.21	-0.440	1.140	2.400	235.27	-0.10	2.90	 	 	 	 	 	 	 	 	 	 	 	 	 	 	 	 	 	 	1581549439	7.51	13.91
12/02/2020 23:17:20	120220	12022020	231720	234.94	12.185330	-57.139310	234.91	-0.130	1.220	2.630	234.94	-0.30	3.00	 	 	 	 	 	 	 	 	 	 	 	 	 	 	 	 	 	 	1581549440	7.39	13.69
12/02/2020 23:17:21	120220	12022020	231721	234.81	12.185312	-57.139343	234.81	0.270	0.600	2.330	234.81	-0.90	2.60	 	 	 	 	 	 	 	 	 	 	 	 	 	 	 	 	 	 	1581549441	7.39	13.69
12/02/2020 23:17:22	120220	12022020	231722	234.96	12.185292	-57.139373	234.98	0.520	-0.110	1.650	234.96	-1.60	1.90	 	 	 	 	 	 	 	 	 	 	 	 	 	 	 	 	 	 	1581549442	7.82	14.48
12/02/2020 23:17:23	120220	12022020	231723	235.34	12.185272	-57.139402	235.37	0.520	-0.580	0.890	235.34	-2.00	1.20	 	 	 	 	 	 	 	 	 	 	 	 	 	 	 	 	 	 	1581549443	7.74	14.33
12/02/2020 23:17:24	120220	12022020	231724	235.86	12.185253	-57.139428	235.89	0.360	-0.930	0.270	235.86	-2.40	0.60	 	 	 	 	 	 	 	 	 	 	 	 	 	 	 	 	 	 	1581549444	7.30	13.52
12/02/2020 23:17:25	120220	12022020	231725	236.28	12.185237	-57.139458	236.27	0.240	-1.360	-0.030	236.28	-2.80	0.40	 	 	 	 	 	 	 	 	 	 	 	 	 	 	 	 	 	 	1581549445	7.02	13.00
12/02/2020 23:17:26	120220	12022020	231726	236.34	12.185218	-57.139488	236.31	0.220	-1.790	0.120	236.34	-3.20	0.60	 	 	 	 	 	 	 	 	 	 	 	 	 	 	 	 	 	 	1581549446	7.54	13.96
12/02/2020 23:17:27	120220	12022020	231727	236.07	12.185200	-57.139520	236.01	0.140	-1.780	0.640	236.07	-3.00	1.20	 	 	 	 	 	 	 	 	 	 	 	 	 	 	 	 	 	 	1581549447	7.62	14.11
12/02/2020 23:17:28	120220	12022020	231728	235.60	12.185185	-57.139552	235.56	-0.140	-1.180	1.390	235.60	-2.30	2.00	 	 	 	 	 	 	 	 	 	 	 	 	 	 	 	 	 	 	1581549448	7.62	14.11
12/02/2020 23:17:29	120220	12022020	231729	235.18	12.185170	-57.139583	235.17	-0.540	-0.210	2.040	235.18	-1.30	2.60	 	 	 	 	 	 	 	 	 	 	 	 	 	 	 	 	 	 	1581549449	7.42	13.74
12/02/2020 23:17:30	120220	12022020	231730	234.98	12.185157	-57.139613	235.00	-0.790	0.810	2.410	234.98	-0.40	2.90	 	 	 	 	 	 	 	 	 	 	 	 	 	 	 	 	 	 	1581549450	7.34	13.59
12/02/2020 23:17:31	120220	12022020	231731	235.05	12.185142	-57.139645	235.09	-0.730	1.540	2.420	235.05	0.30	2.80	 	 	 	 	 	 	 	 	 	 	 	 	 	 	 	 	 	 	1581549451	7.33	13.58
12/02/2020 23:17:32	120220	12022020	231732	235.39	12.185123	-57.139675	235.45	-0.370	1.700	2.080	235.39	0.30	2.40	 	 	 	 	 	 	 	 	 	 	 	 	 	 	 	 	 	 	1581549452	7.44	13.78
12/02/2020 23:17:33	120220	12022020	231733	235.83	12.185105	-57.139707	235.87	0.110	1.190	1.570	235.83	-0.40	1.90	 	 	 	 	 	 	 	 	 	 	 	 	 	 	 	 	 	 	1581549453	7.61	14.09
12/02/2020 23:17:34	120220	12022020	231734	236.11	12.185087	-57.139737	236.12	0.550	0.220	1.070	236.11	-1.40	1.40	 	 	 	 	 	 	 	 	 	 	 	 	 	 	 	 	 	 	1581549454	7.61	14.09
12/02/2020 23:17:35	120220	12022020	231735	236.10	12.185068	-57.139768	236.04	0.870	-0.820	0.650	236.07	-2.40	1.00	 	 	 	 	 	 	 	 	 	 	 	 	 	 	 	 	 	 	1581549455	7.66	14.19
12/02/2020 23:17:36	120220	12022020	231736	235.82	12.185048	-57.139797	235.77	0.910	-1.540	0.390	235.82	-3.00	0.80	 	 	 	 	 	 	 	 	 	 	 	 	 	 	 	 	 	 	1581549456	7.66	14.19
12/02/2020 23:17:37	120220	12022020	231737	235.61	12.185030	-57.139825	235.54	0.600	-1.880	0.310	235.57	-3.30	0.70	 	 	 	 	 	 	 	 	 	 	 	 	 	 	 	 	 	 	1581549457	7.37	13.65
12/02/2020 23:17:38	120220	12022020	231738	235.46	12.185013	-57.139853	235.45	0.060	-1.980	0.360	235.46	-3.30	0.80	 	 	 	 	 	 	 	 	 	 	 	 	 	 	 	 	 	 	1581549458	7.09	13.13
12/02/2020 23:17:39	120220	12022020	231739	235.38	12.184997	-57.139885	235.37	-0.460	-1.780	0.570	235.38	-3.00	1.10	 	 	 	 	 	 	 	 	 	 	 	 	 	 	 	 	 	 	1581549459	7.18	13.30
12/02/2020 23:17:40	120220	12022020	231740	235.30	12.184980	-57.139915	235.31	-0.770	-1.020	0.890	235.30	-2.10	1.40	 	 	 	 	 	 	 	 	 	 	 	 	 	 	 	 	 	 	1581549460	7.42	13.74
12/02/2020 23:17:41	120220	12022020	231741	235.37	12.184965	-57.139945	235.39	-0.820	0.280	1.180	235.37	-0.80	1.60	 	 	 	 	 	 	 	 	 	 	 	 	 	 	 	 	 	 	1581549461	7.40	13.70
12/02/2020 23:17:42	120220	12022020	231742	235.62	12.184950	-57.139973	235.65	-0.620	1.450	1.300	235.62	0.30	1.70	 	 	 	 	 	 	 	 	 	 	 	 	 	 	 	 	 	 	1581549462	7.06	13.08
12/02/2020 23:17:43	120220	12022020	231743	235.98	12.184933	-57.140003	236.02	-0.270	1.790	1.230	235.98	0.40	1.60	 	 	 	 	 	 	 	 	 	 	 	 	 	 	 	 	 	 	1581549463	6.93	12.83
12/02/2020 23:17:44	120220	12022020	231744	236.36	12.184913	-57.140037	236.38	0.110	1.250	1.130	236.36	-0.30	1.50	 	 	 	 	 	 	 	 	 	 	 	 	 	 	 	 	 	 	1581549464	7.39	13.69
12/02/2020 23:17:45	120220	12022020	231745	236.53	12.184895	-57.140070	236.52	0.430	0.300	1.170	236.53	-1.30	1.60	 	 	 	 	 	 	 	 	 	 	 	 	 	 	 	 	 	 	1581549465	8.04	14.89
12/02/2020 23:17:46	120220	12022020	231746	236.36	12.184878	-57.140102	236.32	0.610	-0.640	1.450	236.36	-2.20	2.00	 	 	 	 	 	 	 	 	 	 	 	 	 	 	 	 	 	 	1581549466	8.04	14.89
12/02/2020 23:17:47	120220	12022020	231747	235.91	12.184863	-57.140135	235.85	0.580	-1.270	1.830	235.91	-2.70	2.30	 	 	 	 	 	 	 	 	 	 	 	 	 	 	 	 	 	 	1581549467	7.86	14.56
12/02/2020 23:17:48	120220	12022020	231748	235.38	12.184847	-57.140165	235.34	0.380	-1.510	1.930	235.38	-2.80	2.30	 	 	 	 	 	 	 	 	 	 	 	 	 	 	 	 	 	 	1581549468	7.56	14.00
12/02/2020 23:17:49	120220	12022020	231749	235.05	12.184832	-57.140193	235.03	0.110	-1.420	1.610	235.05	-2.70	1.90	 	 	 	 	 	 	 	 	 	 	 	 	 	 	 	 	 	 	1581549469	7.24	13.41
12/02/2020 23:17:50	120220	12022020	231750	235.02	12.184813	-57.140222	235.03	-0.130	-1.180	1.030	235.02	-2.40	1.30	 	 	 	 	 	 	 	 	 	 	 	 	 	 	 	 	 	 	1581549470	7.05	13.06
12/02/2020 23:17:51	120220	12022020	231751	235.24	12.184793	-57.140250	235.26	-0.270	-0.780	0.260	235.24	-2.00	0.50	 	 	 	 	 	 	 	 	 	 	 	 	 	 	 	 	 	 	1581549471	7.12	13.19
12/02/2020 23:17:52	120220	12022020	231752	235.75	12.184773	-57.140277	235.78	-0.340	-0.070	-0.490	235.75	-1.20	-0.20	 	 	 	 	 	 	 	 	 	 	 	 	 	 	 	 	 	 	1581549472	7.29	13.50
12/02/2020 23:17:53	120220	12022020	231753	236.42	12.184753	-57.140303	236.46	-0.340	0.720	-0.890	236.42	-0.50	-0.50	 	 	 	 	 	 	 	 	 	 	 	 	 	 	 	 	 	 	1581549473	7.22	13.37
12/02/2020 23:17:54	120220	12022020	231754	237.07	12.184737	-57.140333	237.10	-0.270	1.130	-0.740	237.07	-0.20	-0.20	 	 	 	 	 	 	 	 	 	 	 	 	 	 	 	 	 	 	1581549474	7.05	13.06
12/02/2020 23:17:55	120220	12022020	231755	237.55	12.184720	-57.140365	237.55	-0.120	0.950	-0.140	237.55	-0.50	0.50	 	 	 	 	 	 	 	 	 	 	 	 	 	 	 	 	 	 	1581549475	7.19	13.32
12/02/2020 23:17:56	120220	12022020	231756	237.70	12.184705	-57.140398	237.67	0.100	0.270	0.720	237.70	-1.30	1.40	 	 	 	 	 	 	 	 	 	 	 	 	 	 	 	 	 	 	1581549476	7.55	13.98
12/02/2020 23:17:57	120220	12022020	231757	237.34	12.184690	-57.140433	237.27	0.340	-0.620	1.610	237.34	-2.20	2.20	 	 	 	 	 	 	 	 	 	 	 	 	 	 	 	 	 	 	1581549477	7.80	14.45
12/02/2020 23:17:58	120220	12022020	231758	236.55	12.184675	-57.140467	236.47	0.510	-1.320	2.330	236.55	-2.80	2.90	 	 	 	 	 	 	 	 	 	 	 	 	 	 	 	 	 	 	1581549478	7.93	14.69
12/02/2020 23:17:59	120220	12022020	231759	235.89	12.184660	-57.140498	235.71	0.500	-1.530	2.570	235.75	-2.80	3.00	 	 	 	 	 	 	 	 	 	 	 	 	 	 	 	 	 	 	1581549479	7.84	14.52
12/02/2020 23:18:00	120220	12022020	231800	235.29	12.184643	-57.140527	235.31	0.270	-1.340	2.260	235.29	-2.60	2.50	 	 	 	 	 	 	 	 	 	 	 	 	 	 	 	 	 	 	1581549480	7.49	13.87
12/02/2020 23:18:01	120220	12022020	231801	235.30	12.184625	-57.140557	235.40	-0.110	-0.940	1.510	235.34	-2.20	1.70	1015.50	27.60	29.40	21.20	21.80	-1.0	68.0	63.0	390.0	25.8	192.00	6.50	63.00	10.20	16	11972.0	27.5	27.4	1581549481	7.18	13.30
12/02/2020 23:18:02	120220	12022020	231802	235.80	12.184607	-57.140585	235.86	-0.470	-0.400	0.600	235.80	-1.60	0.80	 	 	 	 	 	 	 	 	 	 	 	 	 	 	 	 	 	 	1581549482	7.21	13.35
12/02/2020 23:18:03	120220	12022020	231803	236.43	12.184588	-57.140613	236.49	-0.630	0.320	-0.250	236.43	-0.90	0.00	 	 	 	 	 	 	 	 	 	 	 	 	 	 	 	 	 	 	1581549483	7.21	13.35
12/02/2020 23:18:04	120220	12022020	231804	237.05	12.184568	-57.140640	237.08	-0.540	1.020	-0.930	237.05	-0.20	-0.60	 	 	 	 	 	 	 	 	 	 	 	 	 	 	 	 	 	 	1581549484	7.17	13.28
12/02/2020 23:18:05	120220	12022020	231805	237.48	12.184548	-57.140667	237.48	-0.240	1.360	-1.280	237.48	-0.00	-0.80	 	 	 	 	 	 	 	 	 	 	 	 	 	 	 	 	 	 	1581549485	7.07	13.09
12/02/2020 23:18:06	120220	12022020	231806	237.57	12.184530	-57.140695	237.54	0.130	0.960	-0.970	237.57	-0.60	-0.40	 	 	 	 	 	 	 	 	 	 	 	 	 	 	 	 	 	 	1581549486	7.13	13.20
12/02/2020 23:18:07	120220	12022020	231807	237.29	12.184513	-57.140728	237.23	0.460	-0.130	-0.020	237.29	-1.80	0.70	 	 	 	 	 	 	 	 	 	 	 	 	 	 	 	 	 	 	1581549487	7.44	13.78
12/02/2020 23:18:08	120220	12022020	231808	236.76	12.184498	-57.140765	236.71	0.620	-1.340	1.220	236.76	-2.90	1.90	 	 	 	 	 	 	 	 	 	 	 	 	 	 	 	 	 	 	1581549488	7.93	14.69
12/02/2020 23:18:09	120220	12022020	231809	236.16	12.184485	-57.140800	236.15	0.530	-1.940	2.250	236.16	-3.30	2.80	 	 	 	 	 	 	 	 	 	 	 	 	 	 	 	 	 	 	1581549489	8.20	15.19
12/02/2020 23:18:10	120220	12022020	231810	235.76	12.184473	-57.140832	235.80	0.230	-1.650	2.580	235.76	-2.80	3.00	 	 	 	 	 	 	 	 	 	 	 	 	 	 	 	 	 	 	1581549490	7.89	14.61
12/02/2020 23:18:11	120220	12022020	231811	235.66	12.184458	-57.140858	235.74	-0.060	-0.860	2.200	235.66	-2.00	2.50	 	 	 	 	 	 	 	 	 	 	 	 	 	 	 	 	 	 	1581549491	7.11	13.17
12/02/2020 23:18:12	120220	12022020	231812	235.77	12.184440	-57.140885	235.83	-0.180	-0.190	1.450	235.77	-1.40	1.70	 	 	 	 	 	 	 	 	 	 	 	 	 	 	 	 	 	 	1581549492	6.60	12.22
12/02/2020 23:18:13	120220	12022020	231813	235.89	12.184420	-57.140912	235.94	-0.180	0.090	0.780	235.91	-1.20	1.10	 	 	 	 	 	 	 	 	 	 	 	 	 	 	 	 	 	 	1581549493	6.80	12.59
12/02/2020 23:18:14	120220	12022020	231814	235.90	12.184398	-57.140942	235.89	-0.210	0.170	0.540	235.90	-1.20	1.00	 	 	 	 	 	 	 	 	 	 	 	 	 	 	 	 	 	 	1581549494	7.39	13.69
12/02/2020 23:18:15	120220	12022020	231815	235.74	12.184380	-57.140972	235.71	-0.270	0.380	0.680	235.74	-0.90	1.20	 	 	 	 	 	 	 	 	 	 	 	 	 	 	 	 	 	 	1581549495	7.73	14.32
12/02/2020 23:18:16	120220	12022020	231816	235.66	12.184363	-57.141002	235.66	-0.290	0.710	0.830	235.66	-0.60	1.30	 	 	 	 	 	 	 	 	 	 	 	 	 	 	 	 	 	 	1581549496	7.21	13.35
12/02/2020 23:18:17	120220	12022020	231817	235.78	12.184348	-57.141032	235.78	-0.190	0.750	0.770	235.78	-0.70	1.10	 	 	 	 	 	 	 	 	 	 	 	 	 	 	 	 	 	 	1581549497	7.21	13.35
12/02/2020 23:18:18	120220	12022020	231818	236.03	12.184330	-57.141062	236.04	0.050	0.220	0.560	236.03	-1.30	0.90	 	 	 	 	 	 	 	 	 	 	 	 	 	 	 	 	 	 	1581549498	7.12	13.19
12/02/2020 23:18:19	120220	12022020	231819	236.32	12.184313	-57.141093	236.31	0.340	-0.690	0.400	236.32	-2.20	0.80	 	 	 	 	 	 	 	 	 	 	 	 	 	 	 	 	 	 	1581549499	7.39	13.69
12/02/2020 23:18:20	120220	12022020	231820	236.45	12.184293	-57.141125	236.43	0.530	-1.420	0.440	236.45	-2.80	0.90	 	 	 	 	 	 	 	 	 	 	 	 	 	 	 	 	 	 	1581549500	7.75	14.35
12/02/2020 23:18:21	120220	12022020	231821	236.37	12.184277	-57.141155	236.34	0.500	-1.460	0.680	236.37	-2.70	1.20	 	 	 	 	 	 	 	 	 	 	 	 	 	 	 	 	 	 	1581549501	7.73	14.32
12/02/2020 23:18:22	120220	12022020	231822	236.15	12.184262	-57.141183	236.12	0.290	-0.950	1.030	236.15	-2.20	1.50	 	 	 	 	 	 	 	 	 	 	 	 	 	 	 	 	 	 	1581549502	7.24	13.41
12/02/2020 23:18:23	120220	12022020	231823	235.88	12.184247	-57.141212	235.85	0.040	-0.400	1.290	235.88	-1.60	1.80	 	 	 	 	 	 	 	 	 	 	 	 	 	 	 	 	 	 	1581549503	6.80	12.59
12/02/2020 23:18:24	120220	12022020	231824	235.66	12.184230	-57.141242	235.64	-0.170	-0.070	1.430	235.66	-1.40	1.90	 	 	 	 	 	 	 	 	 	 	 	 	 	 	 	 	 	 	1581549504	6.87	12.72
12/02/2020 23:18:25	120220	12022020	231825	235.64	12.184212	-57.141272	235.69	-0.350	0.110	1.440	235.67	-1.20	1.80	 	 	 	 	 	 	 	 	 	 	 	 	 	 	 	 	 	 	1581549505	7.24	13.41
12/02/2020 23:18:26	120220	12022020	231826	235.95	12.184195	-57.141303	236.00	-0.450	0.340	1.310	235.95	-0.90	1.70	 	 	 	 	 	 	 	 	 	 	 	 	 	 	 	 	 	 	1581549506	7.43	13.76
12/02/2020 23:18:27	120220	12022020	231827	236.36	12.184178	-57.141332	236.40	-0.390	0.560	1.070	236.36	-0.80	1.40	 	 	 	 	 	 	 	 	 	 	 	 	 	 	 	 	 	 	1581549507	7.43	13.76
12/02/2020 23:18:28	120220	12022020	231828	236.71	12.184162	-57.141362	236.73	-0.120	0.450	0.710	236.71	-1.00	1.00	 	 	 	 	 	 	 	 	 	 	 	 	 	 	 	 	 	 	1581549508	7.23	13.39
12/02/2020 23:18:29	120220	12022020	231829	236.83	12.184142	-57.141392	236.81	0.250	-0.100	0.370	236.83	-1.60	0.70	 	 	 	 	 	 	 	 	 	 	 	 	 	 	 	 	 	 	1581549509	7.25	13.43
12/02/2020 23:18:30	120220	12022020	231830	236.74	12.184122	-57.141422	236.70	0.490	-0.790	0.180	236.74	-2.30	0.60	 	 	 	 	 	 	 	 	 	 	 	 	 	 	 	 	 	 	1581549510	7.55	13.98
12/02/2020 23:18:31	120220	12022020	231831	236.58	12.184103	-57.141452	236.54	0.440	-1.180	0.280	236.58	-2.50	0.80	 	 	 	 	 	 	 	 	 	 	 	 	 	 	 	 	 	 	1581549511	7.74	14.33
12/02/2020 23:18:32	120220	12022020	231832	236.46	12.184088	-57.141483	236.43	0.190	-1.080	0.630	236.46	-2.30	1.10	 	 	 	 	 	 	 	 	 	 	 	 	 	 	 	 	 	 	1581549512	7.54	13.96
12/02/2020 23:18:33	120220	12022020	231833	236.44	12.184075	-57.141513	236.42	-0.100	-0.600	1.030	236.44	-1.80	1.50	 	 	 	 	 	 	 	 	 	 	 	 	 	 	 	 	 	 	1581549513	7.21	13.35
12/02/2020 23:18:34	120220	12022020	231834	236.48	12.184062	-57.141543	236.48	-0.270	-0.110	1.250	236.48	-1.40	1.70	 	 	 	 	 	 	 	 	 	 	 	 	 	 	 	 	 	 	1581549514	7.00	12.96
12/02/2020 23:18:35	120220	12022020	231835	236.59	12.184045	-57.141573	236.61	-0.280	0.130	1.150	236.59	-1.20	1.50	 	 	 	 	 	 	 	 	 	 	 	 	 	 	 	 	 	 	1581549515	7.01	12.98
12/02/2020 23:18:36	120220	12022020	231836	236.77	12.184025	-57.141602	236.79	-0.190	0.170	0.810	236.77	-1.20	1.20	 	 	 	 	 	 	 	 	 	 	 	 	 	 	 	 	 	 	1581549516	7.27	13.46
12/02/2020 23:18:37	120220	12022020	231837	236.93	12.184007	-57.141632	236.92	-0.070	0.070	0.510	236.93	-1.30	0.90	 	 	 	 	 	 	 	 	 	 	 	 	 	 	 	 	 	 	1581549517	7.46	13.82
12/02/2020 23:18:38	120220	12022020	231838	237.00	12.183988	-57.141662	236.98	0.040	-0.140	0.370	237.00	-1.60	0.80	 	 	 	 	 	 	 	 	 	 	 	 	 	 	 	 	 	 	1581549518	7.50	13.89
12/02/2020 23:18:39	120220	12022020	231839	236.97	12.183970	-57.141693	236.93	0.100	-0.380	0.420	236.97	-1.80	0.90	 	 	 	 	 	 	 	 	 	 	 	 	 	 	 	 	 	 	1581549519	7.53	13.95
12/02/2020 23:18:40	120220	12022020	231840	236.86	12.183953	-57.141723	236.81	0.040	-0.440	0.690	236.86	-1.80	1.20	 	 	 	 	 	 	 	 	 	 	 	 	 	 	 	 	 	 	1581549520	7.55	13.98
12/02/2020 23:18:41	120220	12022020	231841	236.74	12.183938	-57.141753	236.71	-0.050	-0.300	1.010	236.74	-1.60	1.50	 	 	 	 	 	 	 	 	 	 	 	 	 	 	 	 	 	 	1581549521	7.41	13.72
12/02/2020 23:18:42	120220	12022020	231842	236.69	12.183923	-57.141783	236.67	-0.060	-0.100	1.200	236.69	-1.40	1.60	 	 	 	 	 	 	 	 	 	 	 	 	 	 	 	 	 	 	1581549522	7.20	13.33
12/02/2020 23:18:43	120220	12022020	231843	236.62	12.183907	-57.141813	236.61	0.020	-0.100	1.230	236.62	-1.50	1.60	 	 	 	 	 	 	 	 	 	 	 	 	 	 	 	 	 	 	1581549523	7.08	13.11
12/02/2020 23:18:44	120220	12022020	231844	236.60	12.183888	-57.141843	236.60	0.090	-0.350	1.080	236.60	-1.80	1.40	 	 	 	 	 	 	 	 	 	 	 	 	 	 	 	 	 	 	1581549524	7.22	13.37
12/02/2020 23:18:45	120220	12022020	231845	236.70	12.183872	-57.141875	236.69	0.090	-0.550	0.850	236.70	-1.90	1.20	 	 	 	 	 	 	 	 	 	 	 	 	 	 	 	 	 	 	1581549525	7.51	13.91
12/02/2020 23:18:46	120220	12022020	231846	236.77	12.183855	-57.141905	236.74	0.090	-0.510	0.670	236.77	-1.80	1.10	 	 	 	 	 	 	 	 	 	 	 	 	 	 	 	 	 	 	1581549526	7.55	13.98
12/02/2020 23:18:47	120220	12022020	231847	236.73	12.183838	-57.141935	236.70	0.160	-0.330	0.600	236.73	-1.60	1.00	 	 	 	 	 	 	 	 	 	 	 	 	 	 	 	 	 	 	1581549527	7.31	13.54
12/02/2020 23:18:48	120220	12022020	231848	236.66	12.183822	-57.141963	236.63	0.160	-0.140	0.690	236.66	-1.50	1.20	 	 	 	 	 	 	 	 	 	 	 	 	 	 	 	 	 	 	1581549528	7.17	13.28
12/02/2020 23:18:49	120220	12022020	231849	236.64	12.183805	-57.141995	236.61	0.010	-0.050	0.870	236.64	-1.40	1.30	 	 	 	 	 	 	 	 	 	 	 	 	 	 	 	 	 	 	1581549529	7.21	13.35
12/02/2020 23:18:50	120220	12022020	231850	236.69	12.183790	-57.142025	236.67	-0.160	-0.160	0.970	236.69	-1.60	1.40	 	 	 	 	 	 	 	 	 	 	 	 	 	 	 	 	 	 	1581549530	7.28	13.48
12/02/2020 23:18:51	120220	12022020	231851	236.78	12.183772	-57.142057	236.78	-0.160	-0.460	0.900	236.78	-1.90	1.30	 	 	 	 	 	 	 	 	 	 	 	 	 	 	 	 	 	 	1581549531	7.43	13.76
12/02/2020 23:18:52	120220	12022020	231852	236.88	12.183753	-57.142088	236.87	-0.070	-0.700	0.780	236.88	-2.10	1.20	 	 	 	 	 	 	 	 	 	 	 	 	 	 	 	 	 	 	1581549532	7.66	14.19
12/02/2020 23:18:53	120220	12022020	231853	236.89	12.183735	-57.142118	236.87	-0.120	-0.640	0.680	236.89	-1.90	1.10	 	 	 	 	 	 	 	 	 	 	 	 	 	 	 	 	 	 	1581549533	7.73	14.32
12/02/2020 23:18:54	120220	12022020	231854	236.83	12.183717	-57.142147	236.80	-0.320	-0.270	0.580	236.83	-1.50	1.00	 	 	 	 	 	 	 	 	 	 	 	 	 	 	 	 	 	 	1581549534	7.51	13.91
12/02/2020 23:18:55	120220	12022020	231855	236.78	12.183702	-57.142177	236.74	-0.440	0.090	0.530	236.78	-1.20	0.90	 	 	 	 	 	 	 	 	 	 	 	 	 	 	 	 	 	 	1581549535	7.21	13.35
12/02/2020 23:18:56	120220	12022020	231856	236.73	12.183685	-57.142207	236.70	-0.250	0.220	0.530	236.73	-1.10	0.90	 	 	 	 	 	 	 	 	 	 	 	 	 	 	 	 	 	 	1581549536	7.31	13.54
12/02/2020 23:18:57	120220	12022020	231857	236.68	12.183668	-57.142238	236.65	0.130	0.080	0.570	236.68	-1.30	1.00	 	 	 	 	 	 	 	 	 	 	 	 	 	 	 	 	 	 	1581549537	7.31	13.54
12/02/2020 23:18:58	120220	12022020	231858	236.67	12.183650	-57.142268	236.66	0.390	-0.200	0.700	236.67	-1.60	1.20	 	 	 	 	 	 	 	 	 	 	 	 	 	 	 	 	 	 	1581549538	7.52	13.93
12/02/2020 23:18:59	120220	12022020	231859	236.70	12.183632	-57.142300	236.70	0.350	-0.390	0.940	236.70	-1.70	1.40	 	 	 	 	 	 	 	 	 	 	 	 	 	 	 	 	 	 	1581549539	7.63	14.13
12/02/2020 23:19:00	120220	12022020	231900	236.69	12.183617	-57.142332	236.68	0.110	-0.330	1.200	236.69	-1.60	1.70	 	 	 	 	 	 	 	 	 	 	 	 	 	 	 	 	 	 	1581549540	7.54	13.96
12/02/2020 23:19:01	120220	12022020	231901	236.54	12.183603	-57.142362	236.51	-0.040	-0.210	1.500	236.54	-1.60	2.00	1015.50	28.20	31.10	21.40	22.00	-1.0	66.0	58.0	390.0	25.8	190.00	6.10	63.00	9.90	16	12179.0	27.5	27.4	1581549541	7.26	13.45
12/02/2020 23:19:02	120220	12022020	231902	236.35	12.183588	-57.142393	236.34	0.020	-0.240	1.650	236.35	-1.60	2.00	 	 	 	 	 	 	 	 	 	 	 	 	 	 	 	 	 	 	1581549542	7.17	13.28
12/02/2020 23:19:03	120220	12022020	231903	236.31	12.183572	-57.142423	236.33	0.160	-0.350	1.410	236.32	-1.70	1.70	 	 	 	 	 	 	 	 	 	 	 	 	 	 	 	 	 	 	1581549543	7.36	13.63
12/02/2020 23:19:04	120220	12022020	231904	236.53	12.183553	-57.142453	236.56	0.170	-0.520	0.830	236.53	-1.90	1.10	 	 	 	 	 	 	 	 	 	 	 	 	 	 	 	 	 	 	1581549544	7.46	13.82
12/02/2020 23:19:05	120220	12022020	231905	236.93	12.183533	-57.142483	236.95	0.020	-0.720	0.220	236.93	-2.10	0.50	 	 	 	 	 	 	 	 	 	 	 	 	 	 	 	 	 	 	1581549545	7.49	13.87
12/02/2020 23:19:06	120220	12022020	231906	237.23	12.183515	-57.142513	237.22	-0.170	-0.880	-0.090	237.23	-2.30	0.30	 	 	 	 	 	 	 	 	 	 	 	 	 	 	 	 	 	 	1581549546	7.52	13.93
12/02/2020 23:19:07	120220	12022020	231907	237.29	12.183495	-57.142543	237.25	-0.290	-0.870	0.020	237.29	-2.20	0.50	 	 	 	 	 	 	 	 	 	 	 	 	 	 	 	 	 	 	1581549547	7.59	14.06
12/02/2020 23:19:08	120220	12022020	231908	237.23	12.183477	-57.142573	237.21	-0.380	-0.510	0.400	237.23	-1.80	0.90	 	 	 	 	 	 	 	 	 	 	 	 	 	 	 	 	 	 	1581549548	7.49	13.87
12/02/2020 23:19:09	120220	12022020	231909	237.17	12.183462	-57.142605	237.15	-0.490	0.060	0.890	237.17	-1.20	1.40	 	 	 	 	 	 	 	 	 	 	 	 	 	 	 	 	 	 	1581549549	7.49	13.87
12/02/2020 23:19:10	120220	12022020	231910	237.04	12.183447	-57.142637	237.02	-0.510	0.530	1.310	237.04	-0.80	1.80	 	 	 	 	 	 	 	 	 	 	 	 	 	 	 	 	 	 	1581549550	7.31	13.54
12/02/2020 23:19:11	120220	12022020	231911	236.83	12.183432	-57.142668	236.82	-0.320	0.680	1.560	236.83	-0.70	2.00	 	 	 	 	 	 	 	 	 	 	 	 	 	 	 	 	 	 	1581549551	7.32	13.56
12/02/2020 23:19:12	120220	12022020	231912	236.63	12.183417	-57.142700	236.61	0.080	0.560	1.620	236.63	-0.90	2.00	 	 	 	 	 	 	 	 	 	 	 	 	 	 	 	 	 	 	1581549552	7.62	14.11
12/02/2020 23:19:13	120220	12022020	231913	236.50	12.183398	-57.142732	236.49	0.490	0.260	1.450	236.50	-1.20	1.80	 	 	 	 	 	 	 	 	 	 	 	 	 	 	 	 	 	 	1581549553	7.62	14.11
12/02/2020 23:19:14	120220	12022020	231914	236.51	12.183382	-57.142762	236.52	0.690	-0.130	1.090	236.51	-1.60	1.40	 	 	 	 	 	 	 	 	 	 	 	 	 	 	 	 	 	 	1581549554	7.57	14.02
12/02/2020 23:19:15	120220	12022020	231915	236.65	12.183363	-57.142792	236.66	0.590	-0.560	0.700	236.65	-2.00	1.00	 	 	 	 	 	 	 	 	 	 	 	 	 	 	 	 	 	 	1581549555	7.46	13.82
12/02/2020 23:19:16	120220	12022020	231916	236.84	12.183347	-57.142822	236.86	0.290	-0.960	0.380	236.84	-2.40	0.70	 	 	 	 	 	 	 	 	 	 	 	 	 	 	 	 	 	 	1581549556	7.37	13.65
12/02/2020 23:19:17	120220	12022020	231917	237.09	12.183328	-57.142852	237.11	0.010	-1.220	0.170	237.09	-2.60	0.50	 	 	 	 	 	 	 	 	 	 	 	 	 	 	 	 	 	 	1581549557	7.39	13.69
12/02/2020 23:19:18	120220	12022020	231918	237.44	12.183312	-57.142882	237.47	-0.120	-1.250	-0.020	237.44	-2.60	0.40	 	 	 	 	 	 	 	 	 	 	 	 	 	 	 	 	 	 	1581549558	7.42	13.74
12/02/2020 23:19:19	120220	12022020	231919	237.76	12.183293	-57.142912	237.76	-0.150	-1.070	-0.110	237.76	-2.40	0.30	 	 	 	 	 	 	 	 	 	 	 	 	 	 	 	 	 	 	1581549559	7.38	13.67
12/02/2020 23:19:20	120220	12022020	231920	237.82	12.183275	-57.142942	237.79	-0.160	-0.770	0.190	237.82	-2.00	0.70	 	 	 	 	 	 	 	 	 	 	 	 	 	 	 	 	 	 	1581549560	7.38	13.67
12/02/2020 23:19:21	120220	12022020	231921	237.55	12.183258	-57.142975	237.50	-0.250	-0.390	0.920	237.55	-1.60	1.50	 	 	 	 	 	 	 	 	 	 	 	 	 	 	 	 	 	 	1581549561	7.48	13.85
12/02/2020 23:19:22	120220	12022020	231922	237.09	12.183245	-57.143008	237.04	-0.390	0.180	1.810	237.09	-1.00	2.40	 	 	 	 	 	 	 	 	 	 	 	 	 	 	 	 	 	 	1581549562	7.67	14.20
12/02/2020 23:19:23	120220	12022020	231923	236.60	12.183232	-57.143042	236.58	-0.480	0.840	2.550	236.60	-0.40	3.10	 	 	 	 	 	 	 	 	 	 	 	 	 	 	 	 	 	 	1581549563	7.69	14.24
12/02/2020 23:19:24	120220	12022020	231924	236.25	12.183220	-57.143073	236.28	-0.420	1.190	2.770	236.25	-0.20	3.10	 	 	 	 	 	 	 	 	 	 	 	 	 	 	 	 	 	 	1581549564	7.53	13.95
12/02/2020 23:19:25	120220	12022020	231925	236.31	12.183203	-57.143105	236.38	-0.190	1.040	2.160	236.31	-0.40	2.30	 	 	 	 	 	 	 	 	 	 	 	 	 	 	 	 	 	 	1581549565	7.54	13.96
12/02/2020 23:19:26	120220	12022020	231926	236.77	12.183183	-57.143135	236.85	0.100	0.500	0.950	236.77	-1.00	1.10	 	 	 	 	 	 	 	 	 	 	 	 	 	 	 	 	 	 	1581549566	7.57	14.02
12/02/2020 23:19:27	120220	12022020	231927	237.28	12.183160	-57.143163	237.33	0.390	-0.390	-0.170	237.28	-2.00	0.10	 	 	 	 	 	 	 	 	 	 	 	 	 	 	 	 	 	 	1581549567	7.57	14.02
12/02/2020 23:19:28	120220	12022020	231928	237.61	12.183140	-57.143193	237.62	0.600	-1.380	-0.710	237.61	-2.90	-0.30	 	 	 	 	 	 	 	 	 	 	 	 	 	 	 	 	 	 	1581549568	7.67	14.20
12/02/2020 23:19:29	120220	12022020	231929	237.75	12.183122	-57.143225	237.73	0.630	-1.890	-0.640	237.75	-3.30	-0.10	 	 	 	 	 	 	 	 	 	 	 	 	 	 	 	 	 	 	1581549569	7.81	14.46
12/02/2020 23:19:30	120220	12022020	231930	237.73	12.183107	-57.143253	237.70	0.400	-1.650	-0.130	237.73	-2.90	0.40	 	 	 	 	 	 	 	 	 	 	 	 	 	 	 	 	 	 	1581549570	7.58	14.04
12/02/2020 23:19:31	120220	12022020	231931	237.60	12.183093	-57.143285	237.56	-0.020	-1.030	0.580	237.60	-2.20	1.10	 	 	 	 	 	 	 	 	 	 	 	 	 	 	 	 	 	 	1581549571	7.09	13.13
12/02/2020 23:19:32	120220	12022020	231932	237.33	12.183080	-57.143317	237.30	-0.390	-0.480	1.190	237.33	-1.70	1.70	 	 	 	 	 	 	 	 	 	 	 	 	 	 	 	 	 	 	1581549572	6.94	12.85
12/02/2020 23:19:33	120220	12022020	231933	237.03	12.183065	-57.143348	237.01	-0.520	-0.110	1.520	237.03	-1.40	2.00	 	 	 	 	 	 	 	 	 	 	 	 	 	 	 	 	 	 	1581549573	7.26	13.45
12/02/2020 23:19:34	120220	12022020	231934	236.76	12.183048	-57.143382	236.76	-0.410	0.240	1.730	236.76	-1.00	2.20	 	 	 	 	 	 	 	 	 	 	 	 	 	 	 	 	 	 	1581549574	7.68	14.22
12/02/2020 23:19:35	120220	12022020	231935	236.66	12.183033	-57.143415	236.69	-0.230	0.650	1.810	236.66	-0.60	2.20	 	 	 	 	 	 	 	 	 	 	 	 	 	 	 	 	 	 	1581549575	7.85	14.54
12/02/2020 23:19:36	120220	12022020	231936	236.71	12.183018	-57.143447	236.72	-0.090	1.000	1.710	236.71	-0.30	2.10	 	 	 	 	 	 	 	 	 	 	 	 	 	 	 	 	 	 	1581549576	7.74	14.33
12/02/2020 23:19:37	120220	12022020	231937	236.77	12.183002	-57.143477	236.76	-0.010	0.990	1.420	236.77	-0.40	1.70	 	 	 	 	 	 	 	 	 	 	 	 	 	 	 	 	 	 	1581549577	7.52	13.93
12/02/2020 23:19:38	120220	12022020	231938	236.83	12.182982	-57.143507	236.82	0.060	0.520	0.970	236.83	-1.00	1.30	 	 	 	 	 	 	 	 	 	 	 	 	 	 	 	 	 	 	1581549578	7.44	13.78
12/02/2020 23:19:39	120220	12022020	231939	236.91	12.182963	-57.143538	236.89	0.140	-0.310	0.560	236.91	-1.90	0.90	 	 	 	 	 	 	 	 	 	 	 	 	 	 	 	 	 	 	1581549579	7.53	13.95
12/02/2020 23:19:40	120220	12022020	231940	236.95	12.182945	-57.143568	236.93	0.240	-1.200	0.380	236.95	-2.70	0.80	 	 	 	 	 	 	 	 	 	 	 	 	 	 	 	 	 	 	1581549580	7.62	14.11
12/02/2020 23:19:41	120220	12022020	231941	236.91	12.182930	-57.143600	236.88	0.380	-1.700	0.350	236.90	-3.10	0.70	 	 	 	 	 	 	 	 	 	 	 	 	 	 	 	 	 	 	1581549581	7.65	14.17
12/02/2020 23:19:42	120220	12022020	231942	236.89	12.182915	-57.143630	236.88	0.460	-1.540	0.260	236.89	-2.80	0.60	 	 	 	 	 	 	 	 	 	 	 	 	 	 	 	 	 	 	1581549582	7.48	13.85
12/02/2020 23:19:43	120220	12022020	231943	237.06	12.182898	-57.143658	237.06	0.400	-1.000	0.160	237.06	-2.20	0.60	 	 	 	 	 	 	 	 	 	 	 	 	 	 	 	 	 	 	1581549583	7.06	13.08
12/02/2020 23:19:44	120220	12022020	231944	237.27	12.182882	-57.143688	237.26	0.180	-0.560	0.300	237.27	-1.90	0.80	 	 	 	 	 	 	 	 	 	 	 	 	 	 	 	 	 	 	1581549584	6.87	12.72
12/02/2020 23:19:45	120220	12022020	231945	237.27	12.182865	-57.143720	237.24	-0.150	-0.360	0.840	237.27	-1.70	1.40	 	 	 	 	 	 	 	 	 	 	 	 	 	 	 	 	 	 	1581549585	7.17	13.28
12/02/2020 23:19:46	120220	12022020	231946	236.93	12.182848	-57.143753	236.88	-0.480	-0.140	1.710	236.93	-1.40	2.30	 	 	 	 	 	 	 	 	 	 	 	 	 	 	 	 	 	 	1581549586	7.72	14.30
12/02/2020 23:19:47	120220	12022020	231947	236.36	12.182835	-57.143788	236.32	-0.730	0.300	2.580	236.36	-0.90	3.10	 	 	 	 	 	 	 	 	 	 	 	 	 	 	 	 	 	 	1581549587	8.03	14.87
12/02/2020 23:19:48	120220	12022020	231948	235.82	12.182822	-57.143822	235.82	-0.800	0.830	2.980	235.82	-0.40	3.40	 	 	 	 	 	 	 	 	 	 	 	 	 	 	 	 	 	 	1581549588	7.93	14.69
12/02/2020 23:19:49	120220	12022020	231949	235.52	12.182807	-57.143853	235.53	-0.590	1.100	2.670	235.52	-0.30	2.90	 	 	 	 	 	 	 	 	 	 	 	 	 	 	 	 	 	 	1581549589	7.62	14.11
12/02/2020 23:19:50	120220	12022020	231950	235.54	12.182788	-57.143883	235.57	-0.110	0.930	1.740	235.54	-0.60	1.90	 	 	 	 	 	 	 	 	 	 	 	 	 	 	 	 	 	 	1581549590	7.42	13.74
12/02/2020 23:19:51	120220	12022020	231951	235.82	12.182768	-57.143912	235.84	0.410	0.260	0.570	235.82	-1.30	0.70	 	 	 	 	 	 	 	 	 	 	 	 	 	 	 	 	 	 	1581549591	7.38	13.67
12/02/2020 23:19:52	120220	12022020	231952	236.15	12.182747	-57.143942	236.13	0.720	-0.690	-0.290	236.15	-2.30	0.00	 	 	 	 	 	 	 	 	 	 	 	 	 	 	 	 	 	 	1581549592	7.49	13.87
12/02/2020 23:19:53	120220	12022020	231953	236.38	12.182727	-57.143970	236.40	0.750	-1.420	-0.620	236.43	-2.90	-0.20	 	 	 	 	 	 	 	 	 	 	 	 	 	 	 	 	 	 	1581549593	7.65	14.17
12/02/2020 23:19:54	120220	12022020	231954	236.71	12.182710	-57.144000	236.69	0.570	-1.570	-0.530	236.71	-2.90	-0.10	 	 	 	 	 	 	 	 	 	 	 	 	 	 	 	 	 	 	1581549594	7.53	13.95
12/02/2020 23:19:55	120220	12022020	231955	236.92	12.182695	-57.144028	236.87	0.320	-1.240	-0.150	236.92	-2.50	0.40	 	 	 	 	 	 	 	 	 	 	 	 	 	 	 	 	 	 	1581549595	7.13	13.20
12/02/2020 23:19:56	120220	12022020	231956	236.89	12.182680	-57.144058	236.84	0.070	-0.830	0.450	236.89	-2.10	1.00	 	 	 	 	 	 	 	 	 	 	 	 	 	 	 	 	 	 	1581549596	6.83	12.65
12/02/2020 23:19:57	120220	12022020	231957	236.73	12.182665	-57.144090	236.69	-0.150	-0.530	1.040	236.73	-1.80	1.60	 	 	 	 	 	 	 	 	 	 	 	 	 	 	 	 	 	 	1581549597	7.05	13.06
12/02/2020 23:19:58	120220	12022020	231958	236.58	12.182650	-57.144123	236.56	-0.350	-0.230	1.500	236.58	-1.50	2.00	 	 	 	 	 	 	 	 	 	 	 	 	 	 	 	 	 	 	1581549598	7.49	13.87
12/02/2020 23:19:59	120220	12022020	231959	236.37	12.182635	-57.144157	236.33	-0.510	0.110	1.950	236.37	-1.20	2.40	 	 	 	 	 	 	 	 	 	 	 	 	 	 	 	 	 	 	1581549599	7.73	14.32
12/02/2020 23:20:00	120220	12022020	232000	235.98	12.182622	-57.144190	235.93	-0.560	0.470	2.390	235.98	-0.80	2.90	 	 	 	 	 	 	 	 	 	 	 	 	 	 	 	 	 	 	1581549600	7.73	14.32
12/02/2020 23:20:01	120220	12022020	232001	235.46	12.182607	-57.144222	235.40	-0.450	0.730	2.600	235.46	-0.60	3.00	1015.40	27.20	31.20	20.80	22.00	-1.0	68.0	58.0	390.0	25.8	191.00	7.00	64.00	10.80	16	12022.0	27.5	27.4	1581549601	7.67	14.20
12/02/2020 23:20:02	120220	12022020	232002	235.06	12.182592	-57.144253	235.04	-0.170	0.780	2.350	235.06	-0.60	2.60	 	 	 	 	 	 	 	 	 	 	 	 	 	 	 	 	 	 	1581549602	7.55	13.98
12/02/2020 23:20:03	120220	12022020	232003	235.07	12.182573	-57.144283	235.08	0.140	0.500	1.560	235.07	-1.00	1.70	 	 	 	 	 	 	 	 	 	 	 	 	 	 	 	 	 	 	1581549603	7.44	13.78
12/02/2020 23:20:04	120220	12022020	232004	235.47	12.182552	-57.144312	235.51	0.350	-0.100	0.470	235.47	-1.60	0.60	 	 	 	 	 	 	 	 	 	 	 	 	 	 	 	 	 	 	1581549604	7.38	13.67
12/02/2020 23:20:05	120220	12022020	232005	235.93	12.182530	-57.144338	236.06	0.420	-0.880	-0.520	236.04	-2.40	-0.30	 	 	 	 	 	 	 	 	 	 	 	 	 	 	 	 	 	 	1581549605	7.41	13.72
12/02/2020 23:20:06	120220	12022020	232006	236.51	12.182510	-57.144367	236.50	0.400	-1.520	-1.010	236.51	-3.00	-0.60	 	 	 	 	 	 	 	 	 	 	 	 	 	 	 	 	 	 	1581549606	7.50	13.89
12/02/2020 23:20:07	120220	12022020	232007	236.78	12.182492	-57.144397	236.75	0.310	-1.660	-0.870	236.78	-3.00	-0.30	 	 	 	 	 	 	 	 	 	 	 	 	 	 	 	 	 	 	1581549607	7.52	13.93
12/02/2020 23:20:08	120220	12022020	232008	236.81	12.182477	-57.144427	236.75	0.150	-1.280	-0.240	236.81	-2.50	0.40	 	 	 	 	 	 	 	 	 	 	 	 	 	 	 	 	 	 	1581549608	7.28	13.48
12/02/2020 23:20:09	120220	12022020	232009	236.64	12.182463	-57.144458	236.57	-0.040	-0.670	0.650	236.64	-1.90	1.30	 	 	 	 	 	 	 	 	 	 	 	 	 	 	 	 	 	 	1581549609	7.10	13.15
12/02/2020 23:20:10	120220	12022020	232010	236.37	12.182452	-57.144492	236.32	-0.190	-0.000	1.590	236.37	-1.20	2.20	 	 	 	 	 	 	 	 	 	 	 	 	 	 	 	 	 	 	1581549610	7.21	13.35
12/02/2020 23:20:11	120220	12022020	232011	236.08	12.182438	-57.144523	236.04	-0.280	0.550	2.310	236.08	-0.70	2.80	 	 	 	 	 	 	 	 	 	 	 	 	 	 	 	 	 	 	1581549611	7.43	13.76
12/02/2020 23:20:12	120220	12022020	232012	235.77	12.182423	-57.144557	235.74	-0.290	0.820	2.660	235.77	-0.50	3.10	 	 	 	 	 	 	 	 	 	 	 	 	 	 	 	 	 	 	1581549612	7.54	13.96
12/02/2020 23:20:13	120220	12022020	232013	235.39	12.182407	-57.144588	235.37	-0.210	0.830	2.650	235.39	-0.60	3.00	 	 	 	 	 	 	 	 	 	 	 	 	 	 	 	 	 	 	1581549613	7.64	14.15
12/02/2020 23:20:14	120220	12022020	232014	235.03	12.182390	-57.144620	235.00	-0.060	0.640	2.230	235.03	-0.80	2.50	 	 	 	 	 	 	 	 	 	 	 	 	 	 	 	 	 	 	1581549614	7.64	14.15
12/02/2020 23:20:15	120220	12022020	232015	234.85	12.182370	-57.144648	234.84	0.110	0.290	1.400	234.85	-1.20	1.60	 	 	 	 	 	 	 	 	 	 	 	 	 	 	 	 	 	 	1581549615	7.50	13.89
12/02/2020 23:20:16	120220	12022020	232016	234.99	12.182350	-57.144675	235.01	0.210	-0.300	0.400	234.99	-1.80	0.60	 	 	 	 	 	 	 	 	 	 	 	 	 	 	 	 	 	 	1581549616	7.32	13.56
12/02/2020 23:20:17	120220	12022020	232017	235.39	12.182330	-57.144705	235.40	0.240	-1.110	-0.320	235.39	-2.70	-0.00	 	 	 	 	 	 	 	 	 	 	 	 	 	 	 	 	 	 	1581549617	7.28	13.48
12/02/2020 23:20:18	120220	12022020	232018	235.76	12.182312	-57.144735	235.74	0.280	-1.860	-0.560	235.76	-3.30	-0.10	 	 	 	 	 	 	 	 	 	 	 	 	 	 	 	 	 	 	1581549618	7.42	13.74
12/02/2020 23:20:19	120220	12022020	232019	236.02	12.182295	-57.144767	235.99	0.280	-2.050	-0.450	236.02	-3.30	0.00	 	 	 	 	 	 	 	 	 	 	 	 	 	 	 	 	 	 	1581549619	7.64	14.15
12/02/2020 23:20:20	120220	12022020	232020	236.14	12.182278	-57.144797	236.10	0.130	-1.490	-0.130	236.14	-2.60	0.40	 	 	 	 	 	 	 	 	 	 	 	 	 	 	 	 	 	 	1581549620	7.55	13.98
12/02/2020 23:20:21	120220	12022020	232021	236.06	12.182263	-57.144825	236.00	-0.150	-0.480	0.380	236.06	-1.60	0.90	 	 	 	 	 	 	 	 	 	 	 	 	 	 	 	 	 	 	1581549621	7.19	13.32
12/02/2020 23:20:22	120220	12022020	232022	235.78	12.182250	-57.144857	235.72	-0.450	0.460	1.100	235.78	-0.70	1.70	 	 	 	 	 	 	 	 	 	 	 	 	 	 	 	 	 	 	1581549622	6.95	12.87
12/02/2020 23:20:23	120220	12022020	232023	235.36	12.182235	-57.144888	235.29	-0.600	0.960	1.880	235.36	-0.40	2.40	 	 	 	 	 	 	 	 	 	 	 	 	 	 	 	 	 	 	1581549623	7.14	13.22
12/02/2020 23:20:24	120220	12022020	232024	234.97	12.182220	-57.144923	234.93	-0.530	1.090	2.430	234.97	-0.30	2.90	 	 	 	 	 	 	 	 	 	 	 	 	 	 	 	 	 	 	1581549624	7.62	14.11
12/02/2020 23:20:25	120220	12022020	232025	234.83	12.182205	-57.144955	234.82	-0.280	1.110	2.530	234.83	-0.30	2.90	 	 	 	 	 	 	 	 	 	 	 	 	 	 	 	 	 	 	1581549625	7.90	14.63
12/02/2020 23:20:26	120220	12022020	232026	234.87	12.182188	-57.144985	234.87	0.090	0.910	2.180	234.87	-0.60	2.40	 	 	 	 	 	 	 	 	 	 	 	 	 	 	 	 	 	 	1581549626	7.66	14.19
12/02/2020 23:20:27	120220	12022020	232027	235.03	12.182170	-57.145015	235.04	0.480	0.270	1.440	235.03	-1.30	1.70	 	 	 	 	 	 	 	 	 	 	 	 	 	 	 	 	 	 	1581549627	7.29	13.50
12/02/2020 23:20:28	120220	12022020	232028	235.21	12.182150	-57.145043	235.19	0.760	-0.660	0.660	235.21	-2.20	0.90	 	 	 	 	 	 	 	 	 	 	 	 	 	 	 	 	 	 	1581549628	7.28	13.48
12/02/2020 23:20:29	120220	12022020	232029	235.30	12.182130	-57.145072	235.27	0.800	-1.520	0.180	235.31	-3.00	0.50	 	 	 	 	 	 	 	 	 	 	 	 	 	 	 	 	 	 	1581549629	7.43	13.76
12/02/2020 23:20:30	120220	12022020	232030	235.35	12.182113	-57.145102	235.30	0.530	-1.950	0.080	235.35	-3.30	0.50	 	 	 	 	 	 	 	 	 	 	 	 	 	 	 	 	 	 	1581549630	7.46	13.82
12/02/2020 23:20:31	120220	12022020	232031	235.33	12.182097	-57.145132	235.27	0.100	-1.870	0.250	235.32	-3.20	0.70	 	 	 	 	 	 	 	 	 	 	 	 	 	 	 	 	 	 	1581549631	7.29	13.50
12/02/2020 23:20:32	120220	12022020	232032	235.16	12.182082	-57.145162	235.10	-0.290	-1.510	0.660	235.16	-2.80	1.20	 	 	 	 	 	 	 	 	 	 	 	 	 	 	 	 	 	 	1581549632	7.12	13.19
12/02/2020 23:20:33	120220	12022020	232033	234.93	12.182067	-57.145193	234.89	-0.540	-0.980	1.110	234.93	-2.20	1.60	 	 	 	 	 	 	 	 	 	 	 	 	 	 	 	 	 	 	1581549633	7.25	13.43
12/02/2020 23:20:34	120220	12022020	232034	234.78	12.182050	-57.145227	234.75	-0.700	-0.240	1.490	234.78	-1.40	2.00	 	 	 	 	 	 	 	 	 	 	 	 	 	 	 	 	 	 	1581549634	7.56	14.00
12/02/2020 23:20:35	120220	12022020	232035	234.74	12.182035	-57.145258	234.73	-0.750	0.650	1.740	234.74	-0.50	2.20	 	 	 	 	 	 	 	 	 	 	 	 	 	 	 	 	 	 	1581549635	7.66	14.19
12/02/2020 23:20:36	120220	12022020	232036	234.80	12.182018	-57.145290	234.80	-0.630	1.410	1.850	234.80	0.20	2.30	 	 	 	 	 	 	 	 	 	 	 	 	 	 	 	 	 	 	1581549636	7.53	13.95
12/02/2020 23:20:37	120220	12022020	232037	234.92	12.182002	-57.145320	234.92	-0.270	1.730	1.770	234.92	0.40	2.10	 	 	 	 	 	 	 	 	 	 	 	 	 	 	 	 	 	 	1581549637	7.43	13.76
12/02/2020 23:20:38	120220	12022020	232038	235.05	12.181983	-57.145350	235.04	0.220	1.520	1.430	235.05	0.00	1.70	 	 	 	 	 	 	 	 	 	 	 	 	 	 	 	 	 	 	1581549638	7.44	13.78
12/02/2020 23:20:39	120220	12022020	232039	235.10	12.181965	-57.145380	235.06	0.610	0.780	0.970	235.10	-0.80	1.30	 	 	 	 	 	 	 	 	 	 	 	 	 	 	 	 	 	 	1581549639	7.47	13.83
12/02/2020 23:20:40	120220	12022020	232040	235.14	12.181945	-57.145410	235.09	0.770	-0.240	0.590	235.14	-1.90	0.90	 	 	 	 	 	 	 	 	 	 	 	 	 	 	 	 	 	 	1581549640	7.51	13.91
12/02/2020 23:20:41	120220	12022020	232041	235.17	12.181927	-57.145438	235.13	0.760	-1.230	0.360	235.17	-2.80	0.70	 	 	 	 	 	 	 	 	 	 	 	 	 	 	 	 	 	 	1581549641	7.48	13.85
12/02/2020 23:20:42	120220	12022020	232042	235.09	12.181908	-57.145467	235.01	0.680	-2.050	0.330	235.09	-3.60	0.80	 	 	 	 	 	 	 	 	 	 	 	 	 	 	 	 	 	 	1581549642	7.35	13.61
12/02/2020 23:20:43	120220	12022020	232043	234.89	12.181890	-57.145498	234.73	0.490	-2.530	0.650	234.83	-3.90	1.20	 	 	 	 	 	 	 	 	 	 	 	 	 	 	 	 	 	 	1581549643	7.30	13.52
12/02/2020 23:20:44	120220	12022020	232044	234.44	12.181875	-57.145530	234.35	0.100	-2.540	1.230	234.44	-3.80	1.80	 	 	 	 	 	 	 	 	 	 	 	 	 	 	 	 	 	 	1581549644	7.38	13.67
12/02/2020 23:20:45	120220	12022020	232045	233.97	12.181860	-57.145562	233.90	-0.410	-1.970	1.920	233.97	-3.10	2.50	 	 	 	 	 	 	 	 	 	 	 	 	 	 	 	 	 	 	1581549645	7.52	13.93
12/02/2020 23:20:46	120220	12022020	232046	233.52	12.181847	-57.145597	233.49	-0.850	-0.900	2.580	233.52	-1.90	3.10	 	 	 	 	 	 	 	 	 	 	 	 	 	 	 	 	 	 	1581549646	7.65	14.17
12/02/2020 23:20:47	120220	12022020	232047	233.34	12.181833	-57.145630	233.37	-1.040	0.550	2.920	233.34	-0.50	3.30	 	 	 	 	 	 	 	 	 	 	 	 	 	 	 	 	 	 	1581549647	7.75	14.35
12/02/2020 23:20:48	120220	12022020	232048	233.57	12.181818	-57.145662	233.65	-0.920	1.970	2.740	233.57	0.80	3.00	 	 	 	 	 	 	 	 	 	 	 	 	 	 	 	 	 	 	1581549648	7.60	14.08
12/02/2020 23:20:49	120220	12022020	232049	234.10	12.181802	-57.145690	234.20	-0.550	2.720	1.980	234.10	1.40	2.20	 	 	 	 	 	 	 	 	 	 	 	 	 	 	 	 	 	 	1581549649	7.33	13.58
12/02/2020 23:20:50	120220	12022020	232050	234.70	12.181780	-57.145718	234.77	-0.070	2.500	0.980	234.70	0.90	1.20	 	 	 	 	 	 	 	 	 	 	 	 	 	 	 	 	 	 	1581549650	7.27	13.46
12/02/2020 23:20:51	120220	12022020	232051	235.04	12.181757	-57.145747	235.04	0.430	1.370	0.200	235.04	-0.40	0.50	 	 	 	 	 	 	 	 	 	 	 	 	 	 	 	 	 	 	1581549651	7.53	13.95
12/02/2020 23:20:52	120220	12022020	232052	234.98	12.181733	-57.145777	234.93	0.890	-0.380	-0.130	234.98	-2.20	0.30	 	 	 	 	 	 	 	 	 	 	 	 	 	 	 	 	 	 	1581549652	7.77	14.39
12/02/2020 23:20:53	120220	12022020	232053	234.71	12.181712	-57.145807	234.65	1.130	-2.010	-0.120	234.71	-3.70	0.30	 	 	 	 	 	 	 	 	 	 	 	 	 	 	 	 	 	 	1581549653	7.95	14.72
12/02/2020 23:20:54	120220	12022020	232054	234.46	12.181693	-57.145835	234.42	0.990	-2.930	0.180	234.46	-4.40	0.70	 	 	 	 	 	 	 	 	 	 	 	 	 	 	 	 	 	 	1581549654	7.83	14.50
12/02/2020 23:20:55	120220	12022020	232055	234.32	12.181678	-57.145865	234.26	0.570	-3.050	0.670	234.29	-4.30	1.20	 	 	 	 	 	 	 	 	 	 	 	 	 	 	 	 	 	 	1581549655	7.34	13.59
12/02/2020 23:20:56	120220	12022020	232056	234.10	12.181665	-57.145895	234.06	0.080	-2.480	1.260	234.10	-3.60	1.80	 	 	 	 	 	 	 	 	 	 	 	 	 	 	 	 	 	 	1581549656	7.04	13.04
12/02/2020 23:20:57	120220	12022020	232057	233.83	12.181650	-57.145925	233.82	-0.350	-1.370	1.850	233.83	-2.40	2.40	 	 	 	 	 	 	 	 	 	 	 	 	 	 	 	 	 	 	1581549657	7.07	13.09
12/02/2020 23:20:58	120220	12022020	232058	233.66	12.181635	-57.145957	233.68	-0.780	0.090	2.150	233.66	-0.90	2.60	 	 	 	 	 	 	 	 	 	 	 	 	 	 	 	 	 	 	1581549658	7.25	13.43
12/02/2020 23:20:59	120220	12022020	232059	233.71	12.181620	-57.145988	233.75	-1.150	1.500	2.070	233.71	0.40	2.40	 	 	 	 	 	 	 	 	 	 	 	 	 	 	 	 	 	 	1581549659	7.29	13.50
12/02/2020 23:21:00	120220	12022020	232100	233.94	12.181605	-57.146018	233.98	-1.240	2.310	1.670	233.94	1.00	2.00	 	 	 	 	 	 	 	 	 	 	 	 	 	 	 	 	 	 	1581549660	7.27	13.46
12/02/2020 23:21:01	120220	12022020	232101	234.24	12.181585	-57.146050	234.26	-0.850	2.200	1.090	234.24	0.70	1.30	1015.50	27.40	32.00	21.20	22.00	-1.0	69.0	55.0	390.0	25.8	190.00	6.70	61.00	10.50	16	11254.0	27.5	27.4	1581549661	7.44	13.78
12/02/2020 23:21:02	120220	12022020	232102	234.48	12.181563	-57.146082	234.46	-0.070	1.270	0.400	234.48	-0.40	0.70	 	 	 	 	 	 	 	 	 	 	 	 	 	 	 	 	 	 	1581549662	7.79	14.43
12/02/2020 23:21:03	120220	12022020	232103	234.54	12.181540	-57.146110	234.50	0.710	-0.060	-0.170	234.54	-1.70	0.20	 	 	 	 	 	 	 	 	 	 	 	 	 	 	 	 	 	 	1581549663	8.06	14.93
12/02/2020 23:21:04	120220	12022020	232104	234.50	12.181517	-57.146140	234.44	1.100	-1.270	-0.360	234.50	-2.80	0.10	 	 	 	 	 	 	 	 	 	 	 	 	 	 	 	 	 	 	1581549664	8.12	15.04
12/02/2020 23:21:05	120220	12022020	232105	234.48	12.181498	-57.146168	234.43	1.010	-1.820	-0.180	234.48	-3.20	0.30	 	 	 	 	 	 	 	 	 	 	 	 	 	 	 	 	 	 	1581549665	7.82	14.48
12/02/2020 23:21:06	120220	12022020	232106	234.61	12.181483	-57.146195	234.59	0.610	-1.620	0.100	234.61	-2.90	0.60	 	 	 	 	 	 	 	 	 	 	 	 	 	 	 	 	 	 	1581549666	7.21	13.35
12/02/2020 23:21:07	120220	12022020	232107	234.87	12.181470	-57.146222	234.86	0.210	-1.000	0.320	234.87	-2.20	0.80	 	 	 	 	 	 	 	 	 	 	 	 	 	 	 	 	 	 	1581549667	6.63	12.28
12/02/2020 23:21:08	120220	12022020	232108	235.02	12.181455	-57.146250	234.96	-0.000	-0.490	0.700	235.02	-1.80	1.20	 	 	 	 	 	 	 	 	 	 	 	 	 	 	 	 	 	 	1581549668	6.40	11.85
12/02/2020 23:21:09	120220	12022020	232109	234.78	12.181440	-57.146282	234.72	-0.090	-0.360	1.470	234.78	-1.70	2.10	 	 	 	 	 	 	 	 	 	 	 	 	 	 	 	 	 	 	1581549669	6.72	12.45
12/02/2020 23:21:10	120220	12022020	232110	234.32	12.181423	-57.146317	234.26	-0.210	-0.380	2.370	234.32	-1.70	2.90	 	 	 	 	 	 	 	 	 	 	 	 	 	 	 	 	 	 	1581549670	7.45	13.80
12/02/2020 23:21:11	120220	12022020	232111	233.86	12.181408	-57.146350	233.84	-0.410	-0.280	2.940	233.86	-1.60	3.40	 	 	 	 	 	 	 	 	 	 	 	 	 	 	 	 	 	 	1581549671	7.96	14.74
12/02/2020 23:21:12	120220	12022020	232112	233.54	12.181393	-57.146383	233.55	-0.560	-0.020	2.910	233.54	-1.30	3.20	 	 	 	 	 	 	 	 	 	 	 	 	 	 	 	 	 	 	1581549672	7.98	14.78
12/02/2020 23:21:13	120220	12022020	232113	233.49	12.181373	-57.146413	233.52	-0.520	0.290	2.230	233.49	-1.00	2.40	 	 	 	 	 	 	 	 	 	 	 	 	 	 	 	 	 	 	1581549673	7.72	14.30
12/02/2020 23:21:14	120220	12022020	232114	233.79	12.181353	-57.146440	233.84	-0.300	0.540	1.040	233.79	-0.80	1.20	 	 	 	 	 	 	 	 	 	 	 	 	 	 	 	 	 	 	1581549674	7.46	13.82
12/02/2020 23:21:15	120220	12022020	232115	234.31	12.181332	-57.146465	234.34	0.020	0.570	-0.150	234.31	-0.80	0.00	 	 	 	 	 	 	 	 	 	 	 	 	 	 	 	 	 	 	1581549675	7.24	13.41
12/02/2020 23:21:16	120220	12022020	232116	234.75	12.181310	-57.146492	234.74	0.320	0.220	-0.830	234.75	-1.30	-0.50	 	 	 	 	 	 	 	 	 	 	 	 	 	 	 	 	 	 	1581549676	7.17	13.28
12/02/2020 23:21:17	120220	12022020	232117	234.98	12.181290	-57.146520	234.95	0.490	-0.370	-0.840	234.98	-1.90	-0.30	 	 	 	 	 	 	 	 	 	 	 	 	 	 	 	 	 	 	1581549677	7.27	13.46
12/02/2020 23:21:18	120220	12022020	232118	235.03	12.181273	-57.146552	234.98	0.510	-0.870	-0.280	235.03	-2.30	0.30	 	 	 	 	 	 	 	 	 	 	 	 	 	 	 	 	 	 	1581549678	7.44	13.78
12/02/2020 23:21:19	120220	12022020	232119	234.91	12.181258	-57.146583	234.80	0.470	-1.030	0.590	234.86	-2.40	1.20	 	 	 	 	 	 	 	 	 	 	 	 	 	 	 	 	 	 	1581549679	7.46	13.82
12/02/2020 23:21:20	120220	12022020	232120	234.53	12.181245	-57.146613	234.49	0.400	-0.740	1.450	234.53	-2.00	2.00	 	 	 	 	 	 	 	 	 	 	 	 	 	 	 	 	 	 	1581549680	7.35	13.61
12/02/2020 23:21:21	120220	12022020	232121	234.33	12.181232	-57.146643	234.30	0.250	-0.270	1.960	234.31	-1.50	2.40	 	 	 	 	 	 	 	 	 	 	 	 	 	 	 	 	 	 	1581549681	7.14	13.22
12/02/2020 23:21:22	120220	12022020	232122	234.27	12.181217	-57.146673	234.29	0.040	0.010	2.010	234.27	-1.30	2.30	 	 	 	 	 	 	 	 	 	 	 	 	 	 	 	 	 	 	1581549682	6.97	12.91
12/02/2020 23:21:23	120220	12022020	232123	234.36	12.181198	-57.146703	234.39	-0.140	0.010	1.680	234.36	-1.40	1.90	 	 	 	 	 	 	 	 	 	 	 	 	 	 	 	 	 	 	1581549683	7.09	13.13
12/02/2020 23:21:24	120220	12022020	232124	234.54	12.181180	-57.146732	234.57	-0.210	-0.140	1.100	234.54	-1.60	1.30	 	 	 	 	 	 	 	 	 	 	 	 	 	 	 	 	 	 	1581549684	7.32	13.56
12/02/2020 23:21:25	120220	12022020	232125	234.77	12.181160	-57.146760	234.78	-0.180	-0.350	0.460	234.77	-1.80	0.70	 	 	 	 	 	 	 	 	 	 	 	 	 	 	 	 	 	 	1581549685	7.43	13.76
12/02/2020 23:21:26	120220	12022020	232126	234.97	12.181138	-57.146788	234.96	-0.150	-0.500	0.010	234.97	-1.90	0.40	 	 	 	 	 	 	 	 	 	 	 	 	 	 	 	 	 	 	1581549686	7.47	13.83
12/02/2020 23:21:27	120220	12022020	232127	234.98	12.181120	-57.146818	234.92	-0.150	-0.600	0.000	234.98	-2.00	0.50	 	 	 	 	 	 	 	 	 	 	 	 	 	 	 	 	 	 	1581549687	7.41	13.72
12/02/2020 23:21:28	120220	12022020	232128	234.81	12.181102	-57.146848	234.75	-0.170	-0.680	0.430	234.81	-2.00	0.90	 	 	 	 	 	 	 	 	 	 	 	 	 	 	 	 	 	 	1581549688	7.38	13.67
12/02/2020 23:21:29	120220	12022020	232129	234.65	12.181087	-57.146880	234.61	-0.180	-0.600	0.950	234.65	-1.90	1.50	 	 	 	 	 	 	 	 	 	 	 	 	 	 	 	 	 	 	1581549689	7.51	13.91
12/02/2020 23:21:30	120220	12022020	232130	234.54	12.181072	-57.146913	234.52	-0.150	-0.230	1.410	234.54	-1.50	1.90	 	 	 	 	 	 	 	 	 	 	 	 	 	 	 	 	 	 	1581549690	7.60	14.08
12/02/2020 23:21:31	120220	12022020	232131	234.48	12.181058	-57.146943	234.48	-0.070	0.300	1.630	234.48	-0.90	2.00	 	 	 	 	 	 	 	 	 	 	 	 	 	 	 	 	 	 	1581549691	7.43	13.76
12/02/2020 23:21:32	120220	12022020	232132	234.51	12.181043	-57.146973	234.52	0.070	0.650	1.510	234.51	-0.70	1.80	 	 	 	 	 	 	 	 	 	 	 	 	 	 	 	 	 	 	1581549692	7.17	13.28
12/02/2020 23:21:33	120220	12022020	232133	234.60	12.181025	-57.147002	234.64	0.270	0.580	1.170	234.62	-0.90	1.50	 	 	 	 	 	 	 	 	 	 	 	 	 	 	 	 	 	 	1581549693	7.06	13.08
12/02/2020 23:21:34	120220	12022020	232134	234.74	12.181003	-57.147030	234.73	0.470	0.170	0.800	234.74	-1.30	1.10	 	 	 	 	 	 	 	 	 	 	 	 	 	 	 	 	 	 	1581549694	7.22	13.37
12/02/2020 23:21:35	120220	12022020	232135	234.76	12.180983	-57.147058	234.73	0.490	-0.350	0.590	234.76	-1.80	1.00	 	 	 	 	 	 	 	 	 	 	 	 	 	 	 	 	 	 	1581549695	7.44	13.78
12/02/2020 23:21:36	120220	12022020	232136	234.70	12.180965	-57.147088	234.66	0.240	-0.830	0.600	234.70	-2.30	1.00	 	 	 	 	 	 	 	 	 	 	 	 	 	 	 	 	 	 	1581549696	7.51	13.91
12/02/2020 23:21:37	120220	12022020	232137	234.63	12.180948	-57.147120	234.59	-0.120	-1.060	0.790	234.63	-2.40	1.20	 	 	 	 	 	 	 	 	 	 	 	 	 	 	 	 	 	 	1581549697	7.48	13.85
12/02/2020 23:21:38	120220	12022020	232138	234.65	12.180933	-57.147150	234.62	-0.320	-0.900	0.830	234.65	-2.20	1.20	 	 	 	 	 	 	 	 	 	 	 	 	 	 	 	 	 	 	1581549698	7.41	13.72
12/02/2020 23:21:39	120220	12022020	232139	234.74	12.180917	-57.147178	234.71	-0.250	-0.590	0.700	234.74	-1.90	1.10	 	 	 	 	 	 	 	 	 	 	 	 	 	 	 	 	 	 	1581549699	7.14	13.22
12/02/2020 23:21:40	120220	12022020	232140	234.74	12.180898	-57.147207	234.71	-0.050	-0.560	0.610	234.74	-2.00	1.00	 	 	 	 	 	 	 	 	 	 	 	 	 	 	 	 	 	 	1581549700	6.94	12.85
12/02/2020 23:21:41	120220	12022020	232141	234.63	12.180878	-57.147237	234.58	0.060	-0.760	0.760	234.63	-2.20	1.20	 	 	 	 	 	 	 	 	 	 	 	 	 	 	 	 	 	 	1581549701	7.27	13.46
12/02/2020 23:21:42	120220	12022020	232142	234.39	12.180860	-57.147270	234.36	-0.040	-0.740	1.170	234.39	-2.00	1.70	 	 	 	 	 	 	 	 	 	 	 	 	 	 	 	 	 	 	1581549702	7.76	14.37
12/02/2020 23:21:43	120220	12022020	232143	234.22	12.180845	-57.147302	234.21	-0.290	-0.190	1.620	234.22	-1.40	2.10	 	 	 	 	 	 	 	 	 	 	 	 	 	 	 	 	 	 	1581549703	7.84	14.52
12/02/2020 23:21:44	120220	12022020	232144	234.15	12.180832	-57.147332	234.14	-0.460	0.610	1.940	234.15	-0.60	2.40	 	 	 	 	 	 	 	 	 	 	 	 	 	 	 	 	 	 	1581549704	7.47	13.83
12/02/2020 23:21:45	120220	12022020	232145	234.10	12.180817	-57.147362	234.09	-0.350	1.090	1.910	234.10	-0.30	2.20	 	 	 	 	 	 	 	 	 	 	 	 	 	 	 	 	 	 	1581549705	7.09	13.13
12/02/2020 23:21:46	120220	12022020	232146	234.19	12.180798	-57.147392	234.19	0.020	1.020	1.430	234.19	-0.40	1.70	 	 	 	 	 	 	 	 	 	 	 	 	 	 	 	 	 	 	1581549706	7.13	13.20
12/02/2020 23:21:47	120220	12022020	232147	234.40	12.180777	-57.147420	234.40	0.410	0.500	0.640	234.40	-1.00	0.80	 	 	 	 	 	 	 	 	 	 	 	 	 	 	 	 	 	 	1581549707	7.41	13.72
12/02/2020 23:21:48	120220	12022020	232148	234.61	12.180755	-57.147448	234.59	0.550	-0.240	-0.090	234.61	-1.80	0.20	 	 	 	 	 	 	 	 	 	 	 	 	 	 	 	 	 	 	1581549708	7.55	13.98
12/02/2020 23:21:49	120220	12022020	232149	234.70	12.180735	-57.147477	234.65	0.450	-1.030	-0.370	234.70	-2.60	0.00	 	 	 	 	 	 	 	 	 	 	 	 	 	 	 	 	 	 	1581549709	7.54	13.96
12/02/2020 23:21:50	120220	12022020	232150	234.65	12.180717	-57.147507	234.59	0.240	-1.540	-0.170	234.65	-3.00	0.30	 	 	 	 	 	 	 	 	 	 	 	 	 	 	 	 	 	 	1581549710	7.47	13.83
12/02/2020 23:21:51	120220	12022020	232151	234.56	12.180700	-57.147537	234.51	-0.010	-1.600	0.310	234.56	-2.90	0.80	 	 	 	 	 	 	 	 	 	 	 	 	 	 	 	 	 	 	1581549711	7.37	13.65
12/02/2020 23:21:52	120220	12022020	232152	234.52	12.180685	-57.147567	234.49	-0.280	-1.300	0.800	234.52	-2.60	1.30	 	 	 	 	 	 	 	 	 	 	 	 	 	 	 	 	 	 	1581549712	7.21	13.35
12/02/2020 23:21:53	120220	12022020	232153	234.53	12.180670	-57.147597	234.50	-0.500	-0.770	1.150	234.53	-2.00	1.60	 	 	 	 	 	 	 	 	 	 	 	 	 	 	 	 	 	 	1581549713	7.20	13.33
12/02/2020 23:21:54	120220	12022020	232154	234.50	12.180655	-57.147627	234.49	-0.570	-0.170	1.340	234.50	-1.40	1.70	 	 	 	 	 	 	 	 	 	 	 	 	 	 	 	 	 	 	1581549714	7.21	13.35
12/02/2020 23:21:55	120220	12022020	232155	234.47	12.180637	-57.147657	234.46	-0.440	0.320	1.380	234.47	-1.00	1.80	 	 	 	 	 	 	 	 	 	 	 	 	 	 	 	 	 	 	1581549715	7.30	13.52
12/02/2020 23:21:56	120220	12022020	232156	234.41	12.180618	-57.147687	234.39	-0.200	0.610	1.370	234.41	-0.70	1.80	 	 	 	 	 	 	 	 	 	 	 	 	 	 	 	 	 	 	1581549716	7.41	13.72
12/02/2020 23:21:57	120220	12022020	232157	234.30	12.180598	-57.147718	234.30	-0.000	0.660	1.340	234.30	-0.70	1.70	 	 	 	 	 	 	 	 	 	 	 	 	 	 	 	 	 	 	1581549717	7.55	13.98
12/02/2020 23:21:58	120220	12022020	232158	234.28	12.180580	-57.147748	234.29	0.090	0.510	1.200	234.28	-0.90	1.50	 	 	 	 	 	 	 	 	 	 	 	 	 	 	 	 	 	 	1581549718	7.62	14.11
12/02/2020 23:21:59	120220	12022020	232159	234.37	12.180562	-57.147778	234.35	0.090	0.200	1.000	234.37	-1.30	1.40	 	 	 	 	 	 	 	 	 	 	 	 	 	 	 	 	 	 	1581549719	7.60	14.08
12/02/2020 23:22:00	120220	12022020	232200	234.42	12.180543	-57.147808	234.40	0.100	-0.180	0.870	234.42	-1.70	1.20	 	 	 	 	 	 	 	 	 	 	 	 	 	 	 	 	 	 	1581549720	7.50	13.89
12/02/2020 23:22:01	120220	12022020	232201	234.46	12.180525	-57.147838	234.45	0.090	-0.530	0.820	234.46	-2.00	1.20	1015.50	27.40	32.60	20.90	22.30	-1.0	67.0	54.0	390.0	25.7	195.00	6.40	64.00	10.10	16	11772.0	27.5	27.4	1581549721	7.43	13.76
12/02/2020 23:22:02	120220	12022020	232202	234.59	12.180508	-57.147867	234.58	0.040	-0.690	0.730	234.59	-2.10	1.10	 	 	 	 	 	 	 	 	 	 	 	 	 	 	 	 	 	 	1581549722	7.39	13.69
12/02/2020 23:22:03	120220	12022020	232203	234.80	12.180492	-57.147897	234.79	-0.010	-0.640	0.490	234.80	-2.00	0.80	 	 	 	 	 	 	 	 	 	 	 	 	 	 	 	 	 	 	1581549723	7.24	13.41
12/02/2020 23:22:04	120220	12022020	232204	234.99	12.180475	-57.147923	234.98	0.060	-0.540	0.240	234.99	-1.90	0.60	 	 	 	 	 	 	 	 	 	 	 	 	 	 	 	 	 	 	1581549724	7.04	13.04
12/02/2020 23:22:05	120220	12022020	232205	235.11	12.180457	-57.147952	235.07	0.190	-0.560	0.230	235.11	-2.00	0.70	 	 	 	 	 	 	 	 	 	 	 	 	 	 	 	 	 	 	1581549725	7.00	12.96
12/02/2020 23:22:06	120220	12022020	232206	235.08	12.180437	-57.147982	235.03	0.230	-0.720	0.480	235.08	-2.20	1.00	 	 	 	 	 	 	 	 	 	 	 	 	 	 	 	 	 	 	1581549726	7.16	13.26
12/02/2020 23:22:07	120220	12022020	232207	234.82	12.180418	-57.148013	234.77	0.130	-0.930	0.880	234.82	-2.30	1.40	 	 	 	 	 	 	 	 	 	 	 	 	 	 	 	 	 	 	1581549727	7.43	13.76
12/02/2020 23:22:08	120220	12022020	232208	234.47	12.180402	-57.148045	234.44	-0.060	-0.930	1.260	234.47	-2.30	1.70	 	 	 	 	 	 	 	 	 	 	 	 	 	 	 	 	 	 	1581549728	7.68	14.22
12/02/2020 23:22:09	120220	12022020	232209	234.31	12.180385	-57.148077	234.31	-0.280	-0.520	1.480	234.30	-1.70	1.90	 	 	 	 	 	 	 	 	 	 	 	 	 	 	 	 	 	 	1581549729	7.81	14.46
12/02/2020 23:22:10	120220	12022020	232210	234.43	12.180370	-57.148108	234.46	-0.460	0.290	1.400	234.43	-0.90	1.70	 	 	 	 	 	 	 	 	 	 	 	 	 	 	 	 	 	 	1581549730	7.66	14.19
12/02/2020 23:22:11	120220	12022020	232211	234.76	12.180353	-57.148137	234.90	-0.510	1.070	0.970	234.85	-0.20	1.20	 	 	 	 	 	 	 	 	 	 	 	 	 	 	 	 	 	 	1581549731	7.26	13.45
12/02/2020 23:22:12	120220	12022020	232212	235.29	12.180335	-57.148165	235.32	-0.380	1.240	0.510	235.29	-0.20	0.80	 	 	 	 	 	 	 	 	 	 	 	 	 	 	 	 	 	 	1581549732	7.00	12.96
12/02/2020 23:22:13	120220	12022020	232213	235.52	12.180317	-57.148197	235.50	-0.110	0.700	0.310	235.52	-0.90	0.70	 	 	 	 	 	 	 	 	 	 	 	 	 	 	 	 	 	 	1581549733	7.23	13.39
12/02/2020 23:22:14	120220	12022020	232214	235.59	12.180297	-57.148227	235.56	0.170	-0.110	0.300	235.59	-1.70	0.70	 	 	 	 	 	 	 	 	 	 	 	 	 	 	 	 	 	 	1581549734	7.70	14.26
12/02/2020 23:22:15	120220	12022020	232215	235.53	12.180278	-57.148258	235.49	0.330	-0.840	0.400	235.53	-2.40	0.80	 	 	 	 	 	 	 	 	 	 	 	 	 	 	 	 	 	 	1581549735	7.79	14.43
12/02/2020 23:22:16	120220	12022020	232216	235.28	12.180260	-57.148287	235.23	0.370	-1.410	0.590	235.28	-2.90	1.00	 	 	 	 	 	 	 	 	 	 	 	 	 	 	 	 	 	 	1581549736	7.54	13.96
12/02/2020 23:22:17	120220	12022020	232217	234.97	12.180242	-57.148317	234.93	0.290	-1.620	0.760	234.97	-3.00	1.20	 	 	 	 	 	 	 	 	 	 	 	 	 	 	 	 	 	 	1581549737	7.38	13.67
12/02/2020 23:22:18	120220	12022020	232218	234.83	12.180225	-57.148347	234.82	0.070	-1.320	0.870	234.83	-2.60	1.30	 	 	 	 	 	 	 	 	 	 	 	 	 	 	 	 	 	 	1581549738	7.32	13.56
12/02/2020 23:22:19	120220	12022020	232219	234.87	12.180210	-57.148377	234.86	-0.180	-0.660	1.060	234.87	-1.90	1.50	 	 	 	 	 	 	 	 	 	 	 	 	 	 	 	 	 	 	1581549739	7.15	13.24
12/02/2020 23:22:20	120220	12022020	232220	234.93	12.180197	-57.148407	234.92	-0.280	0.030	1.380	234.93	-1.20	1.80	 	 	 	 	 	 	 	 	 	 	 	 	 	 	 	 	 	 	1581549740	7.06	13.08
12/02/2020 23:22:21	120220	12022020	232221	234.90	12.180182	-57.148438	234.89	-0.160	0.470	1.660	234.90	-0.90	2.10	 	 	 	 	 	 	 	 	 	 	 	 	 	 	 	 	 	 	1581549741	7.19	13.32
12/02/2020 23:22:22	120220	12022020	232222	234.86	12.180165	-57.148470	234.87	0.030	0.570	1.650	234.86	-0.80	2.00	 	 	 	 	 	 	 	 	 	 	 	 	 	 	 	 	 	 	1581549742	7.46	13.82
12/02/2020 23:22:23	120220	12022020	232223	234.93	12.180147	-57.148502	235.00	0.110	0.460	1.300	234.97	-1.00	1.60	 	 	 	 	 	 	 	 	 	 	 	 	 	 	 	 	 	 	1581549743	7.69	14.24
12/02/2020 23:22:24	120220	12022020	232224	235.30	12.180127	-57.148532	235.35	0.020	0.320	0.680	235.30	-1.10	0.90	 	 	 	 	 	 	 	 	 	 	 	 	 	 	 	 	 	 	1581549744	7.74	14.33
12/02/2020 23:22:25	120220	12022020	232225	235.62	12.180107	-57.148558	235.62	-0.140	0.040	0.110	235.62	-1.50	0.40	 	 	 	 	 	 	 	 	 	 	 	 	 	 	 	 	 	 	1581549745	7.49	13.87
12/02/2020 23:22:26	120220	12022020	232226	235.72	12.180087	-57.148588	235.69	-0.230	-0.460	-0.090	235.72	-2.00	0.30	 	 	 	 	 	 	 	 	 	 	 	 	 	 	 	 	 	 	1581549746	7.34	13.59
12/02/2020 23:22:27	120220	12022020	232227	235.65	12.180067	-57.148618	235.59	-0.170	-0.920	0.040	235.65	-2.40	0.50	 	 	 	 	 	 	 	 	 	 	 	 	 	 	 	 	 	 	1581549747	7.47	13.83
12/02/2020 23:22:28	120220	12022020	232228	235.48	12.180050	-57.148648	235.42	0.010	-1.080	0.300	235.48	-2.50	0.80	 	 	 	 	 	 	 	 	 	 	 	 	 	 	 	 	 	 	1581549748	7.55	13.98
12/02/2020 23:22:29	120220	12022020	232229	235.26	12.180033	-57.148678	235.19	0.180	-0.920	0.610	235.26	-2.20	1.10	 	 	 	 	 	 	 	 	 	 	 	 	 	 	 	 	 	 	1581549749	7.43	13.76
12/02/2020 23:22:30	120220	12022020	232230	234.98	12.180018	-57.148708	234.91	0.280	-0.570	0.980	234.98	-1.90	1.50	 	 	 	 	 	 	 	 	 	 	 	 	 	 	 	 	 	 	1581549750	7.23	13.39
12/02/2020 23:22:31	120220	12022020	232231	234.79	12.180003	-57.148738	234.76	0.240	-0.150	1.370	234.79	-1.50	1.80	 	 	 	 	 	 	 	 	 	 	 	 	 	 	 	 	 	 	1581549751	7.20	13.33
12/02/2020 23:22:32	120220	12022020	232232	234.78	12.179988	-57.148770	234.77	0.080	0.160	1.720	234.78	-1.20	2.20	 	 	 	 	 	 	 	 	 	 	 	 	 	 	 	 	 	 	1581549752	7.22	13.37
12/02/2020 23:22:33	120220	12022020	232233	234.81	12.179973	-57.148803	234.80	-0.090	0.250	1.970	234.81	-1.20	2.40	 	 	 	 	 	 	 	 	 	 	 	 	 	 	 	 	 	 	1581549753	7.34	13.59
12/02/2020 23:22:34	120220	12022020	232234	234.82	12.179958	-57.148835	234.82	-0.130	0.130	1.930	234.82	-1.30	2.20	 	 	 	 	 	 	 	 	 	 	 	 	 	 	 	 	 	 	1581549754	7.53	13.95
12/02/2020 23:22:35	120220	12022020	232235	234.88	12.179940	-57.148865	234.89	-0.020	-0.070	1.480	234.91	-1.50	1.70	 	 	 	 	 	 	 	 	 	 	 	 	 	 	 	 	 	 	1581549755	7.64	14.15
12/02/2020 23:22:36	120220	12022020	232236	235.08	12.179918	-57.148895	235.06	0.130	-0.270	0.710	235.08	-1.70	0.90	 	 	 	 	 	 	 	 	 	 	 	 	 	 	 	 	 	 	1581549756	7.61	14.09
12/02/2020 23:22:37	120220	12022020	232237	235.28	12.179897	-57.148922	235.25	0.140	-0.460	-0.050	235.28	-1.90	0.20	 	 	 	 	 	 	 	 	 	 	 	 	 	 	 	 	 	 	1581549757	7.57	14.02
12/02/2020 23:22:38	120220	12022020	232238	235.46	12.179875	-57.148950	235.41	-0.030	-0.570	-0.490	235.46	-2.00	-0.10	 	 	 	 	 	 	 	 	 	 	 	 	 	 	 	 	 	 	1581549758	7.51	13.91
12/02/2020 23:22:39	120220	12022020	232239	235.56	12.179858	-57.148980	235.50	-0.220	-0.550	-0.440	235.56	-1.90	0.00	 	 	 	 	 	 	 	 	 	 	 	 	 	 	 	 	 	 	1581549759	7.42	13.74
12/02/2020 23:22:40	120220	12022020	232240	235.58	12.179842	-57.149010	235.51	-0.250	-0.420	0.020	235.58	-1.80	0.50	 	 	 	 	 	 	 	 	 	 	 	 	 	 	 	 	 	 	1581549760	7.30	13.52
12/02/2020 23:22:41	120220	12022020	232241	235.53	12.179827	-57.149040	235.48	-0.050	-0.340	0.680	235.53	-1.70	1.20	 	 	 	 	 	 	 	 	 	 	 	 	 	 	 	 	 	 	1581549761	7.24	13.41
12/02/2020 23:22:42	120220	12022020	232242	235.43	12.179812	-57.149073	235.39	0.220	-0.390	1.380	235.43	-1.80	1.90	 	 	 	 	 	 	 	 	 	 	 	 	 	 	 	 	 	 	1581549762	7.33	13.58
12/02/2020 23:22:43	120220	12022020	232243	235.21	12.179795	-57.149105	235.18	0.330	-0.460	2.000	235.21	-1.80	2.50	 	 	 	 	 	 	 	 	 	 	 	 	 	 	 	 	 	 	1581549763	7.57	14.02
12/02/2020 23:22:44	120220	12022020	232244	234.96	12.179780	-57.149137	234.95	0.160	-0.280	2.240	234.96	-1.60	2.60	 	 	 	 	 	 	 	 	 	 	 	 	 	 	 	 	 	 	1581549764	7.75	14.35
12/02/2020 23:22:45	120220	12022020	232245	234.77	12.179763	-57.149168	234.78	-0.150	0.070	2.010	234.77	-1.20	2.30	 	 	 	 	 	 	 	 	 	 	 	 	 	 	 	 	 	 	1581549765	7.59	14.06
12/02/2020 23:22:46	120220	12022020	232246	234.70	12.179745	-57.149197	234.70	-0.350	0.360	1.460	234.70	-1.00	1.70	 	 	 	 	 	 	 	 	 	 	 	 	 	 	 	 	 	 	1581549766	7.31	13.54
12/02/2020 23:22:47	120220	12022020	232247	234.75	12.179727	-57.149225	234.74	-0.290	0.460	0.830	234.75	-1.00	1.10	 	 	 	 	 	 	 	 	 	 	 	 	 	 	 	 	 	 	1581549767	7.22	13.37
12/02/2020 23:22:48	120220	12022020	232248	234.80	12.179708	-57.149253	234.79	-0.010	0.200	0.410	234.80	-1.30	0.70	 	 	 	 	 	 	 	 	 	 	 	 	 	 	 	 	 	 	1581549768	7.23	13.39
12/02/2020 23:22:49	120220	12022020	232249	234.83	12.179688	-57.149285	234.83	0.300	-0.400	0.290	234.83	-1.90	0.70	 	 	 	 	 	 	 	 	 	 	 	 	 	 	 	 	 	 	1581549769	7.38	13.67
12/02/2020 23:22:50	120220	12022020	232250	234.93	12.179670	-57.149317	234.92	0.480	-0.980	0.380	234.93	-2.50	0.80	 	 	 	 	 	 	 	 	 	 	 	 	 	 	 	 	 	 	1581549770	7.66	14.19
12/02/2020 23:22:51	120220	12022020	232251	235.10	12.179652	-57.149347	235.11	0.410	-1.210	0.520	235.10	-2.60	0.90	 	 	 	 	 	 	 	 	 	 	 	 	 	 	 	 	 	 	1581549771	7.76	14.37
12/02/2020 23:22:52	120220	12022020	232252	235.32	12.179635	-57.149377	235.32	0.150	-1.090	0.600	235.32	-2.40	1.00	 	 	 	 	 	 	 	 	 	 	 	 	 	 	 	 	 	 	1581549772	7.50	13.89
12/02/2020 23:22:53	120220	12022020	232253	235.48	12.179618	-57.149407	235.48	-0.070	-0.800	0.690	235.48	-2.10	1.10	 	 	 	 	 	 	 	 	 	 	 	 	 	 	 	 	 	 	1581549773	7.25	13.43
12/02/2020 23:22:54	120220	12022020	232254	235.55	12.179602	-57.149437	235.53	-0.180	-0.370	0.850	235.55	-1.70	1.30	 	 	 	 	 	 	 	 	 	 	 	 	 	 	 	 	 	 	1581549774	7.28	13.48
12/02/2020 23:22:55	120220	12022020	232255	235.45	12.179585	-57.149467	235.41	-0.290	0.120	1.180	235.45	-1.20	1.60	 	 	 	 	 	 	 	 	 	 	 	 	 	 	 	 	 	 	1581549775	7.39	13.69
12/02/2020 23:22:56	120220	12022020	232256	235.11	12.179568	-57.149498	235.05	-0.410	0.460	1.580	235.11	-0.90	2.00	 	 	 	 	 	 	 	 	 	 	 	 	 	 	 	 	 	 	1581549776	7.38	13.67
12/02/2020 23:22:57	120220	12022020	232257	234.72	12.179552	-57.149530	234.69	-0.480	0.600	1.810	234.72	-0.80	2.20	 	 	 	 	 	 	 	 	 	 	 	 	 	 	 	 	 	 	1581549777	7.52	13.93
12/02/2020 23:22:58	120220	12022020	232258	234.49	12.179535	-57.149562	234.48	-0.370	0.570	1.690	234.49	-0.90	2.00	 	 	 	 	 	 	 	 	 	 	 	 	 	 	 	 	 	 	1581549778	7.64	14.15
12/02/2020 23:22:59	120220	12022020	232259	234.49	12.179515	-57.149590	234.50	-0.070	0.290	1.330	234.49	-1.20	1.60	 	 	 	 	 	 	 	 	 	 	 	 	 	 	 	 	 	 	1581549779	7.53	13.95
12/02/2020 23:23:00	120220	12022020	232300	234.66	12.179497	-57.149620	234.67	0.310	-0.260	0.890	234.66	-1.80	1.20	 	 	 	 	 	 	 	 	 	 	 	 	 	 	 	 	 	 	1581549780	7.47	13.83
12/02/2020 23:23:01	120220	12022020	232301	234.88	12.179477	-57.149650	234.94	0.600	-0.860	0.440	234.93	-2.40	0.70	1015.50	26.60	32.20	20.90	22.00	-1.0	70.0	55.0	391.0	25.8	194.00	5.90	64.00	9.70	16	12338.0	27.5	27.4	1581549781	7.53	13.95
12/02/2020 23:23:02	120220	12022020	232302	235.21	12.179457	-57.149678	235.20	0.620	-1.180	0.140	235.21	-2.60	0.50	 	 	 	 	 	 	 	 	 	 	 	 	 	 	 	 	 	 	1581549782	7.58	14.04
12/02/2020 23:23:03	120220	12022020	232303	235.36	12.179440	-57.149708	235.34	0.390	-1.130	0.210	235.36	-2.50	0.70	 	 	 	 	 	 	 	 	 	 	 	 	 	 	 	 	 	 	1581549783	7.40	13.70
12/02/2020 23:23:04	120220	12022020	232304	235.37	12.179425	-57.149738	235.34	0.050	-0.810	0.550	235.37	-2.10	1.00	 	 	 	 	 	 	 	 	 	 	 	 	 	 	 	 	 	 	1581549784	7.21	13.35
12/02/2020 23:23:05	120220	12022020	232305	235.31	12.179410	-57.149770	235.28	-0.230	-0.320	0.980	235.31	-1.60	1.40	 	 	 	 	 	 	 	 	 	 	 	 	 	 	 	 	 	 	1581549785	7.22	13.37
12/02/2020 23:23:06	120220	12022020	232306	235.21	12.179395	-57.149802	235.18	-0.310	0.050	1.360	235.21	-1.30	1.80	 	 	 	 	 	 	 	 	 	 	 	 	 	 	 	 	 	 	1581549786	7.25	13.43
12/02/2020 23:23:07	120220	12022020	232307	235.14	12.179378	-57.149833	235.12	-0.270	0.140	1.600	235.14	-1.30	2.00	 	 	 	 	 	 	 	 	 	 	 	 	 	 	 	 	 	 	1581549787	7.41	13.72
12/02/2020 23:23:08	120220	12022020	232308	235.12	12.179362	-57.149865	235.10	-0.210	0.050	1.550	235.12	-1.40	1.90	 	 	 	 	 	 	 	 	 	 	 	 	 	 	 	 	 	 	1581549788	7.64	14.15
12/02/2020 23:23:09	120220	12022020	232309	235.11	12.179342	-57.149897	235.10	-0.160	-0.030	1.260	235.11	-1.40	1.60	 	 	 	 	 	 	 	 	 	 	 	 	 	 	 	 	 	 	1581549789	7.78	14.41
12/02/2020 23:23:10	120220	12022020	232310	235.15	12.179322	-57.149925	235.13	-0.070	0.000	0.890	235.15	-1.40	1.20	 	 	 	 	 	 	 	 	 	 	 	 	 	 	 	 	 	 	1581549790	7.67	14.20
12/02/2020 23:23:11	120220	12022020	232311	235.15	12.179303	-57.149953	235.11	0.060	0.010	0.680	235.15	-1.40	1.10	 	 	 	 	 	 	 	 	 	 	 	 	 	 	 	 	 	 	1581549791	7.45	13.80
12/02/2020 23:23:12	120220	12022020	232312	235.02	12.179285	-57.149983	234.97	0.150	-0.050	0.740	235.02	-1.50	1.20	 	 	 	 	 	 	 	 	 	 	 	 	 	 	 	 	 	 	1581549792	7.34	13.59
12/02/2020 23:23:13	120220	12022020	232313	234.89	12.179268	-57.150013	234.84	0.160	-0.080	0.890	234.87	-1.50	1.30	 	 	 	 	 	 	 	 	 	 	 	 	 	 	 	 	 	 	1581549793	7.36	13.63
12/02/2020 23:23:14	120220	12022020	232314	234.87	12.179252	-57.150043	234.87	0.150	-0.180	0.900	234.87	-1.60	1.30	 	 	 	 	 	 	 	 	 	 	 	 	 	 	 	 	 	 	1581549794	7.31	13.54
12/02/2020 23:23:15	120220	12022020	232315	234.99	12.179235	-57.150075	235.04	0.130	-0.550	0.840	235.04	-2.00	1.20	 	 	 	 	 	 	 	 	 	 	 	 	 	 	 	 	 	 	1581549795	7.24	13.41
12/02/2020 23:23:16	120220	12022020	232316	235.27	12.179218	-57.150107	235.28	0.070	-0.880	0.810	235.27	-2.30	1.20	 	 	 	 	 	 	 	 	 	 	 	 	 	 	 	 	 	 	1581549796	7.54	13.96
12/02/2020 23:23:17	120220	12022020	232317	235.47	12.179202	-57.150137	235.47	-0.030	-0.900	0.750	235.47	-2.30	1.10	 	 	 	 	 	 	 	 	 	 	 	 	 	 	 	 	 	 	1581549797	7.64	14.15
12/02/2020 23:23:18	120220	12022020	232318	235.51	12.179185	-57.150167	235.47	-0.060	-0.850	0.720	235.51	-2.20	1.10	 	 	 	 	 	 	 	 	 	 	 	 	 	 	 	 	 	 	1581549798	7.40	13.70
12/02/2020 23:23:19	120220	12022020	232319	235.30	12.179167	-57.150198	235.25	0.000	-0.850	0.900	235.30	-2.20	1.40	 	 	 	 	 	 	 	 	 	 	 	 	 	 	 	 	 	 	1581549799	7.35	13.61
12/02/2020 23:23:20	120220	12022020	232320	234.85	12.179148	-57.150230	234.80	0.020	-0.720	1.290	234.85	-2.00	1.80	 	 	 	 	 	 	 	 	 	 	 	 	 	 	 	 	 	 	1581549800	7.63	14.13
12/02/2020 23:23:21	120220	12022020	232321	234.44	12.179130	-57.150262	234.43	-0.160	-0.130	1.570	234.44	-1.30	2.00	 	 	 	 	 	 	 	 	 	 	 	 	 	 	 	 	 	 	1581549801	7.81	14.46
12/02/2020 23:23:22	120220	12022020	232322	234.37	12.179115	-57.150290	234.39	-0.450	0.770	1.640	234.37	-0.40	2.00	 	 	 	 	 	 	 	 	 	 	 	 	 	 	 	 	 	 	1581549802	7.61	14.09
12/02/2020 23:23:23	120220	12022020	232323	234.54	12.179100	-57.150320	234.56	-0.560	1.310	1.580	234.54	-0.10	1.90	 	 	 	 	 	 	 	 	 	 	 	 	 	 	 	 	 	 	1581549803	7.13	13.20
12/02/2020 23:23:24	120220	12022020	232324	234.82	12.179083	-57.150352	234.86	-0.310	1.090	1.380	234.82	-0.50	1.70	 	 	 	 	 	 	 	 	 	 	 	 	 	 	 	 	 	 	1581549804	7.09	13.13
12/02/2020 23:23:25	120220	12022020	232325	235.11	12.179065	-57.150383	235.22	0.180	0.260	1.000	235.18	-1.40	1.30	 	 	 	 	 	 	 	 	 	 	 	 	 	 	 	 	 	 	1581549805	7.52	13.93
12/02/2020 23:23:26	120220	12022020	232326	235.45	12.179045	-57.150415	235.44	0.620	-0.730	0.560	235.45	-2.30	0.90	 	 	 	 	 	 	 	 	 	 	 	 	 	 	 	 	 	 	1581549806	7.88	14.59
12/02/2020 23:23:27	120220	12022020	232327	235.52	12.179025	-57.150445	235.48	0.790	-1.350	0.310	235.52	-2.80	0.70	 	 	 	 	 	 	 	 	 	 	 	 	 	 	 	 	 	 	1581549807	7.92	14.67
12/02/2020 23:23:28	120220	12022020	232328	235.41	12.179007	-57.150473	235.38	0.600	-1.410	0.400	235.41	-2.70	0.90	 	 	 	 	 	 	 	 	 	 	 	 	 	 	 	 	 	 	1581549808	7.59	14.06
12/02/2020 23:23:29	120220	12022020	232329	235.27	12.178992	-57.150502	235.25	0.190	-1.060	0.720	235.27	-2.40	1.20	 	 	 	 	 	 	 	 	 	 	 	 	 	 	 	 	 	 	1581549809	7.14	13.22
12/02/2020 23:23:30	120220	12022020	232330	235.14	12.178977	-57.150532	235.11	-0.170	-0.610	1.120	235.14	-1.90	1.60	 	 	 	 	 	 	 	 	 	 	 	 	 	 	 	 	 	 	1581549810	6.92	12.82
12/02/2020 23:23:31	120220	12022020	232331	234.94	12.178962	-57.150563	234.91	-0.310	-0.300	1.430	234.94	-1.70	1.80	 	 	 	 	 	 	 	 	 	 	 	 	 	 	 	 	 	 	1581549811	7.07	13.09
12/02/2020 23:23:32	120220	12022020	232332	234.79	12.178943	-57.150595	234.78	-0.310	-0.180	1.450	234.79	-1.60	1.80	 	 	 	 	 	 	 	 	 	 	 	 	 	 	 	 	 	 	1581549812	7.42	13.74
12/02/2020 23:23:33	120220	12022020	232333	234.78	12.178925	-57.150627	234.78	-0.310	-0.090	1.230	234.78	-1.50	1.60	 	 	 	 	 	 	 	 	 	 	 	 	 	 	 	 	 	 	1581549813	7.74	14.33
12/02/2020 23:23:34	120220	12022020	232334	234.83	12.178907	-57.150658	234.82	-0.360	0.040	0.990	234.83	-1.30	1.30	 	 	 	 	 	 	 	 	 	 	 	 	 	 	 	 	 	 	1581549814	7.81	14.46
12/02/2020 23:23:35	120220	12022020	232335	234.88	12.178887	-57.150688	234.87	-0.380	0.180	0.810	234.88	-1.20	1.20	 	 	 	 	 	 	 	 	 	 	 	 	 	 	 	 	 	 	1581549815	7.72	14.30
12/02/2020 23:23:36	120220	12022020	232336	234.99	12.178868	-57.150718	235.01	-0.300	0.320	0.690	234.99	-1.10	1.10	 	 	 	 	 	 	 	 	 	 	 	 	 	 	 	 	 	 	1581549816	7.59	14.06
12/02/2020 23:23:37	120220	12022020	232337	235.19	12.178852	-57.150748	235.20	-0.130	0.330	0.650	235.19	-1.10	1.10	 	 	 	 	 	 	 	 	 	 	 	 	 	 	 	 	 	 	1581549817	7.41	13.72
12/02/2020 23:23:38	120220	12022020	232338	235.26	12.178835	-57.150778	235.24	0.080	0.100	0.860	235.26	-1.40	1.30	 	 	 	 	 	 	 	 	 	 	 	 	 	 	 	 	 	 	1581549818	7.31	13.54
12/02/2020 23:23:39	120220	12022020	232339	235.13	12.178820	-57.150810	235.10	0.320	-0.280	1.180	235.13	-1.80	1.60	 	 	 	 	 	 	 	 	 	 	 	 	 	 	 	 	 	 	1581549819	7.44	13.78
12/02/2020 23:23:40	120220	12022020	232340	234.93	12.178803	-57.150842	234.94	0.530	-0.570	1.240	234.93	-2.00	1.60	 	 	 	 	 	 	 	 	 	 	 	 	 	 	 	 	 	 	1581549820	7.58	14.04
12/02/2020 23:23:41	120220	12022020	232341	234.92	12.178783	-57.150870	234.94	0.580	-0.620	0.930	234.92	-2.00	1.20	 	 	 	 	 	 	 	 	 	 	 	 	 	 	 	 	 	 	1581549821	7.52	13.93
12/02/2020 23:23:42	120220	12022020	232342	235.03	12.178765	-57.150898	235.04	0.390	-0.620	0.650	235.03	-2.00	1.00	 	 	 	 	 	 	 	 	 	 	 	 	 	 	 	 	 	 	1581549822	7.26	13.45
12/02/2020 23:23:43	120220	12022020	232343	235.03	12.178748	-57.150928	235.01	0.070	-0.760	0.730	235.03	-2.20	1.20	 	 	 	 	 	 	 	 	 	 	 	 	 	 	 	 	 	 	1581549823	7.17	13.28
12/02/2020 23:23:44	120220	12022020	232344	234.85	12.178732	-57.150960	234.82	-0.150	-0.950	1.080	234.85	-2.40	1.60	 	 	 	 	 	 	 	 	 	 	 	 	 	 	 	 	 	 	1581549824	7.40	13.70
12/02/2020 23:23:45	120220	12022020	232345	234.54	12.178713	-57.150993	234.54	-0.160	-0.890	1.450	234.54	-2.20	1.90	 	 	 	 	 	 	 	 	 	 	 	 	 	 	 	 	 	 	1581549825	7.71	14.28
12/02/2020 23:23:46	120220	12022020	232346	234.41	12.178697	-57.151023	234.44	-0.180	-0.400	1.560	234.41	-1.60	1.90	 	 	 	 	 	 	 	 	 	 	 	 	 	 	 	 	 	 	1581549826	7.78	14.41
12/02/2020 23:23:47	120220	12022020	232347	234.44	12.178680	-57.151053	234.48	-0.320	0.260	1.520	234.44	-1.00	1.90	 	 	 	 	 	 	 	 	 	 	 	 	 	 	 	 	 	 	1581549827	7.46	13.82
12/02/2020 23:23:48	120220	12022020	232348	234.53	12.178663	-57.151083	234.57	-0.460	0.710	1.390	234.53	-0.60	1.80	 	 	 	 	 	 	 	 	 	 	 	 	 	 	 	 	 	 	1581549828	7.21	13.35
12/02/2020 23:23:49	120220	12022020	232349	234.59	12.178645	-57.151113	234.62	-0.440	0.730	1.270	234.59	-0.70	1.60	 	 	 	 	 	 	 	 	 	 	 	 	 	 	 	 	 	 	1581549829	7.23	13.39
12/02/2020 23:23:50	120220	12022020	232350	234.70	12.178627	-57.151145	234.73	-0.170	0.350	1.080	234.70	-1.20	1.40	 	 	 	 	 	 	 	 	 	 	 	 	 	 	 	 	 	 	1581549830	7.50	13.89
12/02/2020 23:23:51	120220	12022020	232351	234.83	12.178608	-57.151177	234.85	0.250	-0.190	0.750	234.83	-1.70	1.10	 	 	 	 	 	 	 	 	 	 	 	 	 	 	 	 	 	 	1581549831	7.71	14.28
12/02/2020 23:23:52	120220	12022020	232352	234.85	12.178590	-57.151207	234.85	0.590	-0.640	0.460	234.85	-2.10	0.80	 	 	 	 	 	 	 	 	 	 	 	 	 	 	 	 	 	 	1581549832	7.75	14.35
12/02/2020 23:23:53	120220	12022020	232353	234.82	12.178572	-57.151235	234.82	0.680	-0.810	0.200	234.82	-2.20	0.50	 	 	 	 	 	 	 	 	 	 	 	 	 	 	 	 	 	 	1581549833	7.61	14.09
12/02/2020 23:23:54	120220	12022020	232354	234.86	12.178552	-57.151263	234.85	0.500	-0.840	0.040	234.86	-2.20	0.40	 	 	 	 	 	 	 	 	 	 	 	 	 	 	 	 	 	 	1581549834	7.33	13.58
12/02/2020 23:23:55	120220	12022020	232355	234.80	12.178532	-57.151292	234.79	0.190	-1.000	0.220	234.80	-2.40	0.70	 	 	 	 	 	 	 	 	 	 	 	 	 	 	 	 	 	 	1581549835	7.15	13.24
12/02/2020 23:23:56	120220	12022020	232356	234.61	12.178513	-57.151323	234.60	-0.190	-1.100	0.780	234.61	-2.40	1.30	 	 	 	 	 	 	 	 	 	 	 	 	 	 	 	 	 	 	1581549836	7.44	13.78
12/02/2020 23:23:57	120220	12022020	232357	234.42	12.178497	-57.151357	234.45	-0.610	-0.720	1.440	234.42	-1.90	2.00	 	 	 	 	 	 	 	 	 	 	 	 	 	 	 	 	 	 	1581549837	7.79	14.43
12/02/2020 23:23:58	120220	12022020	232358	234.40	12.178485	-57.151388	234.46	-0.890	0.150	1.880	234.40	-1.00	2.30	 	 	 	 	 	 	 	 	 	 	 	 	 	 	 	 	 	 	1581549838	7.69	14.24
12/02/2020 23:23:59	120220	12022020	232359	234.57	12.178472	-57.151418	234.64	-0.770	1.000	1.860	234.57	-0.30	2.20	 	 	 	 	 	 	 	 	 	 	 	 	 	 	 	 	 	 	1581549839	7.32	13.56
12/02/2020 23:24:00	120220	12022020	232400	234.86	12.178455	-57.151448	234.92	-0.160	1.180	1.350	234.86	-0.30	1.60	 	 	 	 	 	 	 	 	 	 	 	 	 	 	 	 	 	 	1581549840	7.05	13.06
12/02/2020 23:24:01	120220	12022020	232401	235.19	12.178435	-57.151480	235.23	0.600	0.550	0.650	235.19	-1.10	0.90	1015.50	26.70	31.60	21.20	22.10	-1.0	71.0	57.0	392.0	25.8	196.00	5.50	64.00	9.20	16	11676.0	27.5	27.4	1581549841	7.28	13.48
12/02/2020 23:24:02	120220	12022020	232402	235.37	12.178413	-57.151510	235.38	1.040	-0.440	0.210	235.37	-2.10	0.60	 	 	 	 	 	 	 	 	 	 	 	 	 	 	 	 	 	 	1581549842	7.82	14.48
12/02/2020 23:24:03	120220	12022020	232403	235.32	12.178393	-57.151542	235.24	0.930	-1.270	0.220	235.28	-2.80	0.70	 	 	 	 	 	 	 	 	 	 	 	 	 	 	 	 	 	 	1581549843	8.10	15.00
12/02/2020 23:24:04	120220	12022020	232404	234.89	12.178375	-57.151573	234.84	0.410	-1.560	0.610	234.89	-2.90	1.10	 	 	 	 	 	 	 	 	 	 	 	 	 	 	 	 	 	 	1581549844	7.90	14.63
12/02/2020 23:24:05	120220	12022020	232405	234.48	12.178360	-57.151603	234.46	-0.260	-1.160	1.160	234.48	-2.40	1.70	 	 	 	 	 	 	 	 	 	 	 	 	 	 	 	 	 	 	1581549845	7.59	14.06
12/02/2020 23:24:06	120220	12022020	232406	234.41	12.178345	-57.151632	234.45	-0.800	-0.250	1.430	234.41	-1.40	1.80	 	 	 	 	 	 	 	 	 	 	 	 	 	 	 	 	 	 	1581549846	7.22	13.37
12/02/2020 23:24:07	120220	12022020	232407	234.76	12.178332	-57.151660	234.82	-1.000	0.610	1.220	234.76	-0.70	1.50	 	 	 	 	 	 	 	 	 	 	 	 	 	 	 	 	 	 	1581549847	6.88	12.74
12/02/2020 23:24:08	120220	12022020	232408	235.23	12.178313	-57.151690	235.27	-0.730	0.840	0.800	235.23	-0.60	1.10	 	 	 	 	 	 	 	 	 	 	 	 	 	 	 	 	 	 	1581549848	6.79	12.58
12/02/2020 23:24:09	120220	12022020	232409	235.53	12.178295	-57.151722	235.54	-0.120	0.330	0.540	235.53	-1.20	0.90	 	 	 	 	 	 	 	 	 	 	 	 	 	 	 	 	 	 	1581549849	7.18	13.30
12/02/2020 23:24:10	120220	12022020	232410	235.56	12.178275	-57.151753	235.55	0.480	-0.400	0.570	235.56	-1.90	1.00	 	 	 	 	 	 	 	 	 	 	 	 	 	 	 	 	 	 	1581549850	7.82	14.48
12/02/2020 23:24:11	120220	12022020	232411	235.47	12.178257	-57.151785	235.47	0.740	-0.750	0.790	235.47	-2.10	1.20	 	 	 	 	 	 	 	 	 	 	 	 	 	 	 	 	 	 	1581549851	8.05	14.91
12/02/2020 23:24:12	120220	12022020	232412	235.43	12.178240	-57.151813	235.43	0.620	-0.680	0.990	235.43	-2.00	1.40	 	 	 	 	 	 	 	 	 	 	 	 	 	 	 	 	 	 	1581549852	7.62	14.11
12/02/2020 23:24:13	120220	12022020	232413	235.28	12.178225	-57.151843	235.25	0.380	-0.680	1.270	235.28	-2.10	1.80	 	 	 	 	 	 	 	 	 	 	 	 	 	 	 	 	 	 	1581549853	7.07	13.09
12/02/2020 23:24:14	120220	12022020	232414	234.93	12.178210	-57.151877	234.90	0.200	-0.830	1.690	234.93	-2.20	2.20	 	 	 	 	 	 	 	 	 	 	 	 	 	 	 	 	 	 	1581549854	7.16	13.26
12/02/2020 23:24:15	120220	12022020	232415	234.64	12.178193	-57.151908	234.58	-0.010	-0.670	1.960	234.59	-1.90	2.40	 	 	 	 	 	 	 	 	 	 	 	 	 	 	 	 	 	 	1581549855	7.68	14.22
12/02/2020 23:24:16	120220	12022020	232416	234.43	12.178177	-57.151938	234.47	-0.350	0.020	1.860	234.43	-1.20	2.20	 	 	 	 	 	 	 	 	 	 	 	 	 	 	 	 	 	 	1581549856	7.74	14.33
12/02/2020 23:24:17	120220	12022020	232417	234.55	12.178162	-57.151967	234.61	-0.690	0.810	1.340	234.55	-0.40	1.60	 	 	 	 	 	 	 	 	 	 	 	 	 	 	 	 	 	 	1581549857	7.23	13.39
12/02/2020 23:24:18	120220	12022020	232418	234.79	12.178142	-57.151993	234.82	-0.690	1.100	0.680	234.79	-0.30	0.90	 	 	 	 	 	 	 	 	 	 	 	 	 	 	 	 	 	 	1581549858	6.77	12.54
12/02/2020 23:24:19	120220	12022020	232419	234.97	12.178122	-57.152022	234.99	-0.250	0.600	0.130	234.97	-1.00	0.50	 	 	 	 	 	 	 	 	 	 	 	 	 	 	 	 	 	 	1581549859	6.90	12.78
12/02/2020 23:24:20	120220	12022020	232420	235.07	12.178102	-57.152052	235.06	0.370	-0.360	-0.020	235.07	-2.00	0.40	 	 	 	 	 	 	 	 	 	 	 	 	 	 	 	 	 	 	1581549860	7.44	13.78
12/02/2020 23:24:21	120220	12022020	232421	235.08	12.178083	-57.152083	235.07	0.770	-1.170	0.290	235.08	-2.70	0.80	 	 	 	 	 	 	 	 	 	 	 	 	 	 	 	 	 	 	1581549861	7.83	14.50
12/02/2020 23:24:22	120220	12022020	232422	235.00	12.178068	-57.152115	235.00	0.780	-1.430	0.840	235.00	-2.80	1.40	 	 	 	 	 	 	 	 	 	 	 	 	 	 	 	 	 	 	1581549862	7.75	14.35
12/02/2020 23:24:23	120220	12022020	232423	234.88	12.178057	-57.152145	234.89	0.520	-1.120	1.310	234.88	-2.40	1.80	 	 	 	 	 	 	 	 	 	 	 	 	 	 	 	 	 	 	1581549863	7.38	13.67
12/02/2020 23:24:24	120220	12022020	232424	234.87	12.178042	-57.152175	234.91	0.200	-0.500	1.500	234.87	-1.80	1.90	 	 	 	 	 	 	 	 	 	 	 	 	 	 	 	 	 	 	1581549864	7.04	13.04
12/02/2020 23:24:25	120220	12022020	232425	234.85	12.178027	-57.152203	234.87	-0.060	-0.110	1.560	234.85	-1.50	2.00	 	 	 	 	 	 	 	 	 	 	 	 	 	 	 	 	 	 	1581549865	6.78	12.56
12/02/2020 23:24:26	120220	12022020	232426	234.60	12.178008	-57.152235	234.60	-0.260	-0.120	1.710	234.60	-1.50	2.20	 	 	 	 	 	 	 	 	 	 	 	 	 	 	 	 	 	 	1581549866	7.06	13.08
12/02/2020 23:24:27	120220	12022020	232427	234.32	12.177990	-57.152267	234.26	-0.480	-0.180	1.820	234.26	-1.60	2.20	 	 	 	 	 	 	 	 	 	 	 	 	 	 	 	 	 	 	1581549867	7.66	14.19
12/02/2020 23:24:28	120220	12022020	232428	234.09	12.177970	-57.152298	234.12	-0.660	-0.070	1.580	234.09	-1.40	1.90	 	 	 	 	 	 	 	 	 	 	 	 	 	 	 	 	 	 	1581549868	7.88	14.59
12/02/2020 23:24:29	120220	12022020	232429	234.21	12.177952	-57.152325	234.25	-0.650	0.140	0.910	234.21	-1.20	1.10	 	 	 	 	 	 	 	 	 	 	 	 	 	 	 	 	 	 	1581549869	7.61	14.09
12/02/2020 23:24:30	120220	12022020	232430	234.55	12.177932	-57.152353	234.59	-0.390	0.210	0.150	234.55	-1.20	0.40	 	 	 	 	 	 	 	 	 	 	 	 	 	 	 	 	 	 	1581549870	7.26	13.45
12/02/2020 23:24:31	120220	12022020	232431	234.91	12.177910	-57.152380	234.92	-0.030	0.010	-0.230	234.91	-1.50	0.20	 	 	 	 	 	 	 	 	 	 	 	 	 	 	 	 	 	 	1581549871	7.17	13.28
12/02/2020 23:24:32	120220	12022020	232432	235.08	12.177893	-57.152410	235.07	0.280	-0.300	-0.000	235.08	-1.70	0.50	 	 	 	 	 	 	 	 	 	 	 	 	 	 	 	 	 	 	1581549872	7.30	13.52
12/02/2020 23:24:33	120220	12022020	232433	235.00	12.177877	-57.152442	234.98	0.430	-0.420	0.680	235.00	-1.80	1.30	 	 	 	 	 	 	 	 	 	 	 	 	 	 	 	 	 	 	1581549873	7.42	13.74
12/02/2020 23:24:34	120220	12022020	232434	234.77	12.177863	-57.152472	234.75	0.430	-0.300	1.500	234.77	-1.60	2.10	 	 	 	 	 	 	 	 	 	 	 	 	 	 	 	 	 	 	1581549874	7.39	13.69
12/02/2020 23:24:35	120220	12022020	232435	234.43	12.177850	-57.152503	234.42	0.340	-0.160	2.060	234.43	-1.50	2.50	 	 	 	 	 	 	 	 	 	 	 	 	 	 	 	 	 	 	1581549875	7.21	13.35
12/02/2020 23:24:36	120220	12022020	232436	234.17	12.177835	-57.152535	234.18	0.240	-0.170	2.030	234.17	-1.60	2.30	 	 	 	 	 	 	 	 	 	 	 	 	 	 	 	 	 	 	1581549876	7.17	13.28
12/02/2020 23:24:37	120220	12022020	232437	234.15	12.177818	-57.152563	234.18	0.200	-0.280	1.410	234.15	-1.70	1.60	 	 	 	 	 	 	 	 	 	 	 	 	 	 	 	 	 	 	1581549877	7.25	13.43
12/02/2020 23:24:38	120220	12022020	232438	234.38	12.177798	-57.152590	234.41	0.210	-0.420	0.500	234.38	-1.90	0.70	 	 	 	 	 	 	 	 	 	 	 	 	 	 	 	 	 	 	1581549878	7.26	13.45
12/02/2020 23:24:39	120220	12022020	232439	234.66	12.177777	-57.152617	234.66	0.250	-0.670	-0.210	234.66	-2.10	0.10	 	 	 	 	 	 	 	 	 	 	 	 	 	 	 	 	 	 	1581549879	7.20	13.33
12/02/2020 23:24:40	120220	12022020	232440	234.85	12.177755	-57.152645	234.85	0.170	-0.890	-0.350	234.85	-2.30	0.10	 	 	 	 	 	 	 	 	 	 	 	 	 	 	 	 	 	 	1581549880	7.31	13.54
12/02/2020 23:24:41	120220	12022020	232441	234.94	12.177737	-57.152675	234.94	-0.100	-0.750	0.030	234.94	-2.00	0.60	 	 	 	 	 	 	 	 	 	 	 	 	 	 	 	 	 	 	1581549881	7.48	13.85
12/02/2020 23:24:42	120220	12022020	232442	234.96	12.177723	-57.152705	234.96	-0.460	-0.260	0.640	234.96	-1.50	1.20	 	 	 	 	 	 	 	 	 	 	 	 	 	 	 	 	 	 	1581549882	7.35	13.61
12/02/2020 23:24:43	120220	12022020	232443	234.96	12.177710	-57.152737	234.97	-0.650	0.260	1.100	234.96	-1.10	1.50	 	 	 	 	 	 	 	 	 	 	 	 	 	 	 	 	 	 	1581549883	7.12	13.19
12/02/2020 23:24:44	120220	12022020	232444	235.00	12.177693	-57.152767	235.02	-0.520	0.420	1.180	235.00	-1.00	1.50	 	 	 	 	 	 	 	 	 	 	 	 	 	 	 	 	 	 	1581549884	7.07	13.09
12/02/2020 23:24:45	120220	12022020	232445	235.10	12.177675	-57.152797	235.11	-0.160	0.140	0.960	235.10	-1.40	1.30	 	 	 	 	 	 	 	 	 	 	 	 	 	 	 	 	 	 	1581549885	7.23	13.39
12/02/2020 23:24:46	120220	12022020	232446	235.19	12.177657	-57.152828	235.19	0.180	-0.330	0.620	235.19	-1.80	1.00	 	 	 	 	 	 	 	 	 	 	 	 	 	 	 	 	 	 	1581549886	7.57	14.02
12/02/2020 23:24:47	120220	12022020	232447	235.23	12.177637	-57.152857	235.22	0.290	-0.540	0.390	235.23	-1.90	0.80	 	 	 	 	 	 	 	 	 	 	 	 	 	 	 	 	 	 	1581549887	7.75	14.35
12/02/2020 23:24:48	120220	12022020	232448	235.14	12.177618	-57.152885	235.11	0.210	-0.350	0.470	235.14	-1.70	0.90	 	 	 	 	 	 	 	 	 	 	 	 	 	 	 	 	 	 	1581549888	7.53	13.95
12/02/2020 23:24:49	120220	12022020	232449	234.95	12.177603	-57.152913	234.92	0.080	-0.070	0.800	234.95	-1.40	1.30	 	 	 	 	 	 	 	 	 	 	 	 	 	 	 	 	 	 	1581549889	7.04	13.04
12/02/2020 23:24:50	120220	12022020	232450	234.83	12.177587	-57.152943	234.84	0.000	-0.040	1.090	234.83	-1.50	1.50	 	 	 	 	 	 	 	 	 	 	 	 	 	 	 	 	 	 	1581549890	6.85	12.69
12/02/2020 23:24:51	120220	12022020	232451	234.87	12.177570	-57.152973	234.89	-0.030	-0.280	1.130	234.87	-1.70	1.50	 	 	 	 	 	 	 	 	 	 	 	 	 	 	 	 	 	 	1581549891	7.07	13.09
12/02/2020 23:24:52	120220	12022020	232452	235.04	12.177553	-57.153003	235.07	-0.060	-0.620	0.870	235.04	-2.10	1.20	 	 	 	 	 	 	 	 	 	 	 	 	 	 	 	 	 	 	1581549892	7.38	13.67
12/02/2020 23:24:53	120220	12022020	232453	235.25	12.177533	-57.153033	235.34	-0.070	-0.890	0.550	235.31	-2.30	0.90	 	 	 	 	 	 	 	 	 	 	 	 	 	 	 	 	 	 	1581549893	7.53	13.95
12/02/2020 23:24:54	120220	12022020	232454	235.49	12.177515	-57.153063	235.50	-0.080	-0.850	0.450	235.49	-2.20	0.90	 	 	 	 	 	 	 	 	 	 	 	 	 	 	 	 	 	 	1581549894	7.59	14.06
12/02/2020 23:24:55	120220	12022020	232455	235.48	12.177498	-57.153093	235.43	-0.080	-0.380	0.700	235.46	-1.60	1.20	 	 	 	 	 	 	 	 	 	 	 	 	 	 	 	 	 	 	1581549895	7.45	13.80
12/02/2020 23:24:56	120220	12022020	232456	235.22	12.177485	-57.153122	235.19	-0.050	0.260	1.130	235.22	-1.00	1.60	 	 	 	 	 	 	 	 	 	 	 	 	 	 	 	 	 	 	1581549896	7.13	13.20
12/02/2020 23:24:57	120220	12022020	232457	234.85	12.177470	-57.153152	234.82	0.030	0.550	1.510	234.85	-0.80	2.00	 	 	 	 	 	 	 	 	 	 	 	 	 	 	 	 	 	 	1581549897	6.90	12.78
12/02/2020 23:24:58	120220	12022020	232458	234.49	12.177452	-57.153183	234.48	0.070	0.370	1.620	234.49	-1.10	2.00	 	 	 	 	 	 	 	 	 	 	 	 	 	 	 	 	 	 	1581549898	7.11	13.17
12/02/2020 23:24:59	120220	12022020	232459	234.38	12.177433	-57.153215	234.40	0.050	-0.040	1.370	234.38	-1.50	1.70	 	 	 	 	 	 	 	 	 	 	 	 	 	 	 	 	 	 	1581549899	7.50	13.89
12/02/2020 23:25:00	120220	12022020	232500	234.63	12.177415	-57.153243	234.68	0.010	-0.360	0.850	234.63	-1.80	1.10	 	 	 	 	 	 	 	 	 	 	 	 	 	 	 	 	 	 	1581549900	7.62	14.11
12/02/2020 23:25:01	120220	12022020	232501	235.19	12.177397	-57.153272	235.26	0.000	-0.500	0.190	235.19	-1.90	0.50	1015.50	26.70	28.90	21.40	21.70	-1.0	73.0	65.0	393.0	25.8	200.00	5.60	67.00	9.20	16	11814.0	27.5	27.4	1581549901	7.45	13.80
12/02/2020 23:25:02	120220	12022020	232502	235.81	12.177377	-57.153298	235.84	0.030	-0.690	-0.250	235.81	-2.10	0.10	 	 	 	 	 	 	 	 	 	 	 	 	 	 	 	 	 	 	1581549902	7.13	13.20
12/02/2020 23:25:03	120220	12022020	232503	236.10	12.177358	-57.153328	236.08	0.100	-1.000	-0.210	236.10	-2.40	0.30	 	 	 	 	 	 	 	 	 	 	 	 	 	 	 	 	 	 	1581549903	7.13	13.20
12/02/2020 23:25:04	120220	12022020	232504	235.88	12.177342	-57.153360	235.81	0.130	-1.200	0.370	235.88	-2.60	1.00	 	 	 	 	 	 	 	 	 	 	 	 	 	 	 	 	 	 	1581549904	7.40	13.70
12/02/2020 23:25:05	120220	12022020	232505	235.36	12.177325	-57.153392	235.30	0.020	-0.890	1.250	235.36	-2.10	1.90	 	 	 	 	 	 	 	 	 	 	 	 	 	 	 	 	 	 	1581549905	7.61	14.09
12/02/2020 23:25:06	120220	12022020	232506	234.92	12.177313	-57.153423	234.90	-0.210	-0.100	2.000	234.92	-1.30	2.50	 	 	 	 	 	 	 	 	 	 	 	 	 	 	 	 	 	 	1581549906	7.50	13.89
12/02/2020 23:25:07	120220	12022020	232507	234.58	12.177300	-57.153453	234.58	-0.340	0.590	2.450	234.58	-0.70	2.90	 	 	 	 	 	 	 	 	 	 	 	 	 	 	 	 	 	 	1581549907	7.11	13.17
12/02/2020 23:25:08	120220	12022020	232508	234.31	12.177283	-57.153483	234.35	-0.270	0.760	2.530	234.31	-0.70	2.90	 	 	 	 	 	 	 	 	 	 	 	 	 	 	 	 	 	 	1581549908	7.06	13.08
12/02/2020 23:25:09	120220	12022020	232509	234.25	12.177265	-57.153515	234.30	-0.120	0.460	2.250	234.25	-1.00	2.50	 	 	 	 	 	 	 	 	 	 	 	 	 	 	 	 	 	 	1581549909	7.38	13.67
12/02/2020 23:25:10	120220	12022020	232510	234.44	12.177245	-57.153547	234.50	-0.030	0.020	1.630	234.44	-1.40	1.90	 	 	 	 	 	 	 	 	 	 	 	 	 	 	 	 	 	 	1581549910	7.71	14.28
12/02/2020 23:25:11	120220	12022020	232511	234.87	12.177227	-57.153575	234.94	0.020	-0.220	0.810	234.87	-1.60	1.00	 	 	 	 	 	 	 	 	 	 	 	 	 	 	 	 	 	 	1581549911	7.71	14.28
12/02/2020 23:25:12	120220	12022020	232512	235.43	12.177208	-57.153602	235.48	0.140	-0.280	-0.070	235.43	-1.70	0.20	 	 	 	 	 	 	 	 	 	 	 	 	 	 	 	 	 	 	1581549912	7.31	13.54
12/02/2020 23:25:13	120220	12022020	232513	235.86	12.177188	-57.153627	235.87	0.300	-0.500	-0.590	235.86	-2.00	-0.20	 	 	 	 	 	 	 	 	 	 	 	 	 	 	 	 	 	 	1581549913	6.93	12.83
12/02/2020 23:25:14	120220	12022020	232514	236.00	12.177168	-57.153657	235.98	0.380	-0.910	-0.460	236.00	-2.40	0.10	 	 	 	 	 	 	 	 	 	 	 	 	 	 	 	 	 	 	1581549914	7.00	12.96
12/02/2020 23:25:15	120220	12022020	232515	235.94	12.177152	-57.153687	235.92	0.300	-1.170	0.160	235.94	-2.60	0.80	 	 	 	 	 	 	 	 	 	 	 	 	 	 	 	 	 	 	1581549915	7.31	13.54
12/02/2020 23:25:16	120220	12022020	232516	235.74	12.177138	-57.153718	235.71	0.080	-1.010	1.060	235.74	-2.30	1.70	 	 	 	 	 	 	 	 	 	 	 	 	 	 	 	 	 	 	1581549916	7.48	13.85
12/02/2020 23:25:17	120220	12022020	232517	235.46	12.177125	-57.153752	235.36	-0.140	-0.540	1.880	235.38	-1.80	2.40	 	 	 	 	 	 	 	 	 	 	 	 	 	 	 	 	 	 	1581549917	7.40	13.70
12/02/2020 23:25:18	120220	12022020	232518	235.00	12.177112	-57.153782	234.99	-0.290	-0.090	2.240	235.00	-1.40	2.60	 	 	 	 	 	 	 	 	 	 	 	 	 	 	 	 	 	 	1581549918	7.29	13.50
12/02/2020 23:25:19	120220	12022020	232519	234.73	12.177093	-57.153813	234.75	-0.360	0.090	2.090	234.73	-1.30	2.40	 	 	 	 	 	 	 	 	 	 	 	 	 	 	 	 	 	 	1581549919	7.31	13.54
12/02/2020 23:25:20	120220	12022020	232520	234.63	12.177075	-57.153843	234.66	-0.410	0.160	1.580	234.63	-1.20	1.80	 	 	 	 	 	 	 	 	 	 	 	 	 	 	 	 	 	 	1581549920	7.52	13.93
12/02/2020 23:25:21	120220	12022020	232521	234.75	12.177055	-57.153873	234.81	-0.420	0.270	0.900	234.75	-1.10	1.10	 	 	 	 	 	 	 	 	 	 	 	 	 	 	 	 	 	 	1581549921	7.61	14.09
12/02/2020 23:25:22	120220	12022020	232522	235.17	12.177037	-57.153900	235.24	-0.320	0.410	0.220	235.17	-1.00	0.50	 	 	 	 	 	 	 	 	 	 	 	 	 	 	 	 	 	 	1581549922	7.41	13.72
12/02/2020 23:25:23	120220	12022020	232523	235.71	12.177018	-57.153928	235.74	-0.090	0.390	-0.190	235.71	-1.00	0.20	 	 	 	 	 	 	 	 	 	 	 	 	 	 	 	 	 	 	1581549923	7.19	13.32
12/02/2020 23:25:24	120220	12022020	232524	236.08	12.177000	-57.153957	236.09	0.240	0.060	-0.180	236.08	-1.40	0.30	 	 	 	 	 	 	 	 	 	 	 	 	 	 	 	 	 	 	1581549924	7.10	13.15
12/02/2020 23:25:25	120220	12022020	232525	236.20	12.176983	-57.153988	236.18	0.500	-0.440	0.190	236.20	-1.90	0.70	 	 	 	 	 	 	 	 	 	 	 	 	 	 	 	 	 	 	1581549925	7.25	13.43
12/02/2020 23:25:26	120220	12022020	232526	236.03	12.176967	-57.154018	236.00	0.560	-0.830	0.800	236.03	-2.30	1.40	 	 	 	 	 	 	 	 	 	 	 	 	 	 	 	 	 	 	1581549926	7.43	13.76
12/02/2020 23:25:27	120220	12022020	232527	235.61	12.176953	-57.154050	235.58	0.410	-0.990	1.530	235.61	-2.40	2.10	 	 	 	 	 	 	 	 	 	 	 	 	 	 	 	 	 	 	1581549927	7.37	13.65
12/02/2020 23:25:28	120220	12022020	232528	235.11	12.176940	-57.154082	235.09	0.220	-1.010	2.090	235.11	-2.40	2.60	 	 	 	 	 	 	 	 	 	 	 	 	 	 	 	 	 	 	1581549928	7.27	13.46
12/02/2020 23:25:29	120220	12022020	232529	234.83	12.176927	-57.154113	234.81	0.080	-0.850	2.130	234.79	-2.20	2.50	 	 	 	 	 	 	 	 	 	 	 	 	 	 	 	 	 	 	1581549929	7.33	13.58
12/02/2020 23:25:30	120220	12022020	232530	234.79	12.176910	-57.154143	234.84	-0.050	-0.580	1.760	234.79	-1.90	2.10	 	 	 	 	 	 	 	 	 	 	 	 	 	 	 	 	 	 	1581549930	7.29	13.50
12/02/2020 23:25:31	120220	12022020	232531	234.99	12.176890	-57.154172	235.15	-0.250	-0.250	1.240	235.07	-1.60	1.50	 	 	 	 	 	 	 	 	 	 	 	 	 	 	 	 	 	 	1581549931	7.25	13.43
12/02/2020 23:25:32	120220	12022020	232532	235.53	12.176872	-57.154200	235.61	-0.460	0.120	0.680	235.53	-1.20	1.00	 	 	 	 	 	 	 	 	 	 	 	 	 	 	 	 	 	 	1581549932	7.31	13.54
12/02/2020 23:25:33	120220	12022020	232533	235.94	12.176852	-57.154228	235.98	-0.540	0.400	0.280	235.94	-1.00	0.60	 	 	 	 	 	 	 	 	 	 	 	 	 	 	 	 	 	 	1581549933	7.27	13.46
12/02/2020 23:25:34	120220	12022020	232534	236.11	12.176833	-57.154257	236.13	-0.420	0.450	0.190	236.11	-1.00	0.60	 	 	 	 	 	 	 	 	 	 	 	 	 	 	 	 	 	 	1581549934	7.26	13.45
12/02/2020 23:25:35	120220	12022020	232535	236.09	12.176815	-57.154287	236.08	-0.180	0.200	0.330	236.09	-1.30	0.80	 	 	 	 	 	 	 	 	 	 	 	 	 	 	 	 	 	 	1581549935	7.34	13.59
12/02/2020 23:25:36	120220	12022020	232536	236.00	12.176797	-57.154318	236.00	0.050	-0.230	0.550	236.00	-1.70	1.00	 	 	 	 	 	 	 	 	 	 	 	 	 	 	 	 	 	 	1581549936	7.48	13.85
12/02/2020 23:25:37	120220	12022020	232537	235.98	12.176780	-57.154350	235.98	0.220	-0.590	0.750	235.98	-2.00	1.20	 	 	 	 	 	 	 	 	 	 	 	 	 	 	 	 	 	 	1581549937	7.62	14.11
12/02/2020 23:25:38	120220	12022020	232538	235.95	12.176765	-57.154380	235.95	0.360	-0.740	1.010	235.95	-2.10	1.50	 	 	 	 	 	 	 	 	 	 	 	 	 	 	 	 	 	 	1581549938	7.52	13.93
12/02/2020 23:25:39	120220	12022020	232539	235.88	12.176750	-57.154410	235.89	0.400	-0.680	1.300	235.88	-2.00	1.80	 	 	 	 	 	 	 	 	 	 	 	 	 	 	 	 	 	 	1581549939	7.32	13.56
12/02/2020 23:25:40	120220	12022020	232540	235.72	12.176735	-57.154442	235.72	0.220	-0.500	1.620	235.72	-1.80	2.10	 	 	 	 	 	 	 	 	 	 	 	 	 	 	 	 	 	 	1581549940	7.18	13.30
12/02/2020 23:25:41	120220	12022020	232541	235.41	12.176722	-57.154473	235.40	-0.080	-0.280	1.910	235.41	-1.60	2.40	 	 	 	 	 	 	 	 	 	 	 	 	 	 	 	 	 	 	1581549941	7.17	13.28
12/02/2020 23:25:42	120220	12022020	232542	235.10	12.176707	-57.154503	235.12	-0.270	0.040	1.940	235.10	-1.30	2.30	 	 	 	 	 	 	 	 	 	 	 	 	 	 	 	 	 	 	1581549942	7.30	13.52
12/02/2020 23:25:43	120220	12022020	232543	235.10	12.176690	-57.154532	235.20	-0.230	0.310	1.360	235.15	-1.10	1.60	 	 	 	 	 	 	 	 	 	 	 	 	 	 	 	 	 	 	1581549943	7.25	13.43
12/02/2020 23:25:44	120220	12022020	232544	235.59	12.176670	-57.154560	235.66	-0.030	0.140	0.460	235.59	-1.40	0.70	 	 	 	 	 	 	 	 	 	 	 	 	 	 	 	 	 	 	1581549944	7.07	13.09
12/02/2020 23:25:45	120220	12022020	232545	236.19	12.176648	-57.154588	236.24	0.140	-0.420	-0.220	236.19	-1.90	0.10	 	 	 	 	 	 	 	 	 	 	 	 	 	 	 	 	 	 	1581549945	7.28	13.48
12/02/2020 23:25:46	120220	12022020	232546	236.65	12.176628	-57.154618	236.66	0.160	-0.910	-0.350	236.65	-2.40	0.10	 	 	 	 	 	 	 	 	 	 	 	 	 	 	 	 	 	 	1581549946	7.67	14.20
12/02/2020 23:25:47	120220	12022020	232547	236.73	12.176612	-57.154650	236.71	0.080	-1.000	0.100	236.73	-2.30	0.70	 	 	 	 	 	 	 	 	 	 	 	 	 	 	 	 	 	 	1581549947	7.72	14.30
12/02/2020 23:25:48	120220	12022020	232548	236.48	12.176598	-57.154682	236.44	-0.040	-0.650	0.860	236.48	-1.90	1.40	 	 	 	 	 	 	 	 	 	 	 	 	 	 	 	 	 	 	1581549948	7.44	13.78
12/02/2020 23:25:49	120220	12022020	232549	236.13	12.176585	-57.154712	236.11	-0.130	-0.180	1.570	236.13	-1.50	2.10	 	 	 	 	 	 	 	 	 	 	 	 	 	 	 	 	 	 	1581549949	7.18	13.30
12/02/2020 23:25:50	120220	12022020	232550	235.79	12.176570	-57.154743	235.78	-0.150	0.020	2.050	235.79	-1.40	2.50	 	 	 	 	 	 	 	 	 	 	 	 	 	 	 	 	 	 	1581549950	7.07	13.09
12/02/2020 23:25:51	120220	12022020	232551	235.39	12.176555	-57.154777	235.36	-0.100	-0.130	2.340	235.39	-1.60	2.80	 	 	 	 	 	 	 	 	 	 	 	 	 	 	 	 	 	 	1581549951	7.32	13.56
12/02/2020 23:25:52	120220	12022020	232552	234.98	12.176538	-57.154810	234.98	-0.030	-0.250	2.400	234.98	-1.60	2.70	 	 	 	 	 	 	 	 	 	 	 	 	 	 	 	 	 	 	1581549952	7.75	14.35
12/02/2020 23:25:53	120220	12022020	232553	234.85	12.176523	-57.154840	234.89	-0.030	0.020	2.050	234.85	-1.20	2.30	 	 	 	 	 	 	 	 	 	 	 	 	 	 	 	 	 	 	1581549953	7.88	14.59
12/02/2020 23:25:54	120220	12022020	232554	235.17	12.176507	-57.154868	235.24	-0.050	0.560	1.300	235.17	-0.70	1.50	 	 	 	 	 	 	 	 	 	 	 	 	 	 	 	 	 	 	1581549954	7.44	13.78
12/02/2020 23:25:55	120220	12022020	232555	235.63	12.176490	-57.154895	235.79	0.020	0.770	0.420	235.74	-0.70	0.60	 	 	 	 	 	 	 	 	 	 	 	 	 	 	 	 	 	 	1581549955	6.82	12.63
12/02/2020 23:25:56	120220	12022020	232556	236.21	12.176468	-57.154922	236.23	0.180	0.180	-0.220	236.21	-1.40	0.10	 	 	 	 	 	 	 	 	 	 	 	 	 	 	 	 	 	 	1581549956	6.69	12.39
12/02/2020 23:25:57	120220	12022020	232557	236.42	12.176447	-57.154952	236.39	0.320	-0.950	-0.430	236.42	-2.60	-0.00	 	 	 	 	 	 	 	 	 	 	 	 	 	 	 	 	 	 	1581549957	7.26	13.45
12/02/2020 23:25:58	120220	12022020	232558	236.40	12.176428	-57.154985	236.35	0.330	-1.860	-0.230	236.40	-3.30	0.30	 	 	 	 	 	 	 	 	 	 	 	 	 	 	 	 	 	 	1581549958	7.89	14.61
12/02/2020 23:25:59	120220	12022020	232559	236.28	12.176412	-57.155015	236.24	0.130	-1.930	0.250	236.28	-3.20	0.80	 	 	 	 	 	 	 	 	 	 	 	 	 	 	 	 	 	 	1581549959	8.00	14.82
12/02/2020 23:26:00	120220	12022020	232600	236.13	12.176398	-57.155047	236.11	-0.220	-1.260	0.930	236.13	-2.40	1.50	 	 	 	 	 	 	 	 	 	 	 	 	 	 	 	 	 	 	1581549960	7.54	13.96
12/02/2020 23:26:01	120220	12022020	232601	235.88	12.176385	-57.155077	235.86	-0.490	-0.390	1.700	235.88	-1.60	2.30	1015.50	26.30	27.20	20.70	20.70	-1.0	71.0	67.0	394.0	25.7	203.00	7.10	70.00	10.70	16	11761.0	27.5	27.4	1581549961	7.09	13.13
12/02/2020 23:26:02	120220	12022020	232602	235.51	12.176373	-57.155110	235.50	-0.520	0.270	2.390	235.51	-1.00	2.90	 	 	 	 	 	 	 	 	 	 	 	 	 	 	 	 	 	 	1581549962	7.09	13.13
12/02/2020 23:26:03	120220	12022020	232603	235.09	12.176360	-57.155143	235.09	-0.300	0.750	2.770	235.09	-0.50	3.20	 	 	 	 	 	 	 	 	 	 	 	 	 	 	 	 	 	 	1581549963	7.49	13.87
12/02/2020 23:26:04	120220	12022020	232604	234.84	12.176343	-57.155177	234.86	-0.010	1.120	2.680	234.84	-0.20	3.00	 	 	 	 	 	 	 	 	 	 	 	 	 	 	 	 	 	 	1581549964	7.72	14.30
12/02/2020 23:26:05	120220	12022020	232605	234.91	12.176325	-57.155205	234.96	0.180	1.120	2.040	234.91	-0.40	2.20	 	 	 	 	 	 	 	 	 	 	 	 	 	 	 	 	 	 	1581549965	7.53	13.95
12/02/2020 23:26:06	120220	12022020	232606	235.30	12.176305	-57.155233	235.35	0.220	0.510	1.060	235.30	-1.10	1.20	 	 	 	 	 	 	 	 	 	 	 	 	 	 	 	 	 	 	1581549966	7.31	13.54
12/02/2020 23:26:07	120220	12022020	232607	235.71	12.176283	-57.155263	235.83	0.220	-0.430	0.170	235.80	-2.00	0.40	 	 	 	 	 	 	 	 	 	 	 	 	 	 	 	 	 	 	1581549967	7.48	13.85
12/02/2020 23:26:08	120220	12022020	232608	236.10	12.176265	-57.155293	236.09	0.290	-1.250	-0.310	236.10	-2.80	0.00	 	 	 	 	 	 	 	 	 	 	 	 	 	 	 	 	 	 	1581549968	7.69	14.24
12/02/2020 23:26:09	120220	12022020	232609	236.21	12.176245	-57.155323	236.21	0.360	-1.620	-0.450	236.21	-3.00	-0.00	 	 	 	 	 	 	 	 	 	 	 	 	 	 	 	 	 	 	1581549969	7.66	14.19
12/02/2020 23:26:10	120220	12022020	232610	236.30	12.176228	-57.155352	236.29	0.250	-1.420	-0.330	236.30	-2.70	0.10	 	 	 	 	 	 	 	 	 	 	 	 	 	 	 	 	 	 	1581549970	7.44	13.78
12/02/2020 23:26:11	120220	12022020	232611	236.29	12.176213	-57.155380	236.27	-0.070	-0.940	0.110	236.29	-2.20	0.70	 	 	 	 	 	 	 	 	 	 	 	 	 	 	 	 	 	 	1581549971	7.10	13.15
12/02/2020 23:26:12	120220	12022020	232612	236.06	12.176198	-57.155412	236.01	-0.370	-0.450	0.870	236.06	-1.70	1.50	 	 	 	 	 	 	 	 	 	 	 	 	 	 	 	 	 	 	1581549972	6.97	12.91
12/02/2020 23:26:13	120220	12022020	232613	235.57	12.176185	-57.155445	235.52	-0.400	-0.030	1.770	235.57	-1.30	2.30	 	 	 	 	 	 	 	 	 	 	 	 	 	 	 	 	 	 	1581549973	7.21	13.35
12/02/2020 23:26:14	120220	12022020	232614	235.07	12.176172	-57.155478	235.05	-0.210	0.340	2.430	235.07	-1.00	2.90	 	 	 	 	 	 	 	 	 	 	 	 	 	 	 	 	 	 	1581549974	7.54	13.96
12/02/2020 23:26:15	120220	12022020	232615	234.75	12.176157	-57.155510	234.77	-0.010	0.590	2.640	234.75	-0.80	3.00	 	 	 	 	 	 	 	 	 	 	 	 	 	 	 	 	 	 	1581549975	7.68	14.22
12/02/2020 23:26:16	120220	12022020	232616	234.83	12.176140	-57.155542	234.90	0.080	0.640	2.290	234.83	-0.80	2.50	 	 	 	 	 	 	 	 	 	 	 	 	 	 	 	 	 	 	1581549976	7.62	14.11
12/02/2020 23:26:17	120220	12022020	232617	235.24	12.176122	-57.155572	235.31	0.120	0.340	1.500	235.24	-1.20	1.70	 	 	 	 	 	 	 	 	 	 	 	 	 	 	 	 	 	 	1581549977	7.48	13.85
12/02/2020 23:26:18	120220	12022020	232618	235.65	12.176102	-57.155602	235.70	0.230	-0.270	0.650	235.65	-1.80	0.90	 	 	 	 	 	 	 	 	 	 	 	 	 	 	 	 	 	 	1581549978	7.45	13.80
12/02/2020 23:26:19	120220	12022020	232619	235.88	12.176082	-57.155632	235.90	0.340	-0.800	0.070	235.88	-2.20	0.40	 	 	 	 	 	 	 	 	 	 	 	 	 	 	 	 	 	 	1581549979	7.67	14.20
12/02/2020 23:26:20	120220	12022020	232620	235.98	12.176062	-57.155660	235.98	0.240	-0.890	-0.190	235.98	-2.20	0.20	 	 	 	 	 	 	 	 	 	 	 	 	 	 	 	 	 	 	1581549980	7.69	14.24
12/02/2020 23:26:21	120220	12022020	232621	236.02	12.176045	-57.155688	236.00	-0.100	-0.750	-0.080	236.02	-2.10	0.40	 	 	 	 	 	 	 	 	 	 	 	 	 	 	 	 	 	 	1581549981	7.30	13.52
12/02/2020 23:26:22	120220	12022020	232622	235.92	12.176030	-57.155718	235.88	-0.410	-0.690	0.420	235.92	-2.10	1.00	 	 	 	 	 	 	 	 	 	 	 	 	 	 	 	 	 	 	1581549982	7.04	13.04
12/02/2020 23:26:23	120220	12022020	232623	235.62	12.176015	-57.155752	235.59	-0.430	-0.700	1.130	235.62	-2.10	1.70	 	 	 	 	 	 	 	 	 	 	 	 	 	 	 	 	 	 	1581549983	7.26	13.45
12/02/2020 23:26:24	120220	12022020	232624	235.30	12.176000	-57.155785	235.29	-0.200	-0.520	1.680	235.30	-1.80	2.10	 	 	 	 	 	 	 	 	 	 	 	 	 	 	 	 	 	 	1581549984	7.62	14.11
12/02/2020 23:26:25	120220	12022020	232625	235.12	12.175985	-57.155815	235.13	0.070	-0.120	1.840	235.12	-1.40	2.20	 	 	 	 	 	 	 	 	 	 	 	 	 	 	 	 	 	 	1581549985	7.65	14.17
12/02/2020 23:26:26	120220	12022020	232626	235.06	12.175968	-57.155845	235.08	0.180	0.260	1.680	235.06	-1.10	2.00	 	 	 	 	 	 	 	 	 	 	 	 	 	 	 	 	 	 	1581549986	7.41	13.72
12/02/2020 23:26:27	120220	12022020	232627	235.12	12.175950	-57.155875	235.15	0.150	0.390	1.280	235.12	-1.00	1.60	 	 	 	 	 	 	 	 	 	 	 	 	 	 	 	 	 	 	1581549987	7.29	13.50
12/02/2020 23:26:28	120220	12022020	232628	235.23	12.175932	-57.155905	235.25	0.130	0.220	0.870	235.23	-1.20	1.20	 	 	 	 	 	 	 	 	 	 	 	 	 	 	 	 	 	 	1581549988	7.39	13.69
12/02/2020 23:26:29	120220	12022020	232629	235.26	12.175913	-57.155937	235.28	0.170	-0.130	0.800	235.26	-1.60	1.20	 	 	 	 	 	 	 	 	 	 	 	 	 	 	 	 	 	 	1581549989	7.55	13.98
12/02/2020 23:26:30	120220	12022020	232630	235.24	12.175897	-57.155968	235.26	0.180	-0.290	1.010	235.24	-1.70	1.40	 	 	 	 	 	 	 	 	 	 	 	 	 	 	 	 	 	 	1581549990	7.72	14.30
12/02/2020 23:26:31	120220	12022020	232631	235.23	12.175883	-57.156000	235.25	0.130	-0.170	1.170	235.23	-1.50	1.60	 	 	 	 	 	 	 	 	 	 	 	 	 	 	 	 	 	 	1581549991	7.61	14.09
12/02/2020 23:26:32	120220	12022020	232632	235.26	12.175867	-57.156028	235.29	0.110	-0.120	1.060	235.26	-1.50	1.40	 	 	 	 	 	 	 	 	 	 	 	 	 	 	 	 	 	 	1581549992	7.21	13.35
12/02/2020 23:26:33	120220	12022020	232633	235.28	12.175848	-57.156058	235.27	0.160	-0.400	0.790	235.28	-1.90	1.10	 	 	 	 	 	 	 	 	 	 	 	 	 	 	 	 	 	 	1581549993	7.04	13.04
12/02/2020 23:26:34	120220	12022020	232634	235.10	12.175830	-57.156088	235.08	0.210	-0.880	0.690	235.10	-2.30	1.10	 	 	 	 	 	 	 	 	 	 	 	 	 	 	 	 	 	 	1581549994	7.30	13.52
12/02/2020 23:26:35	120220	12022020	232635	234.84	12.175810	-57.156120	234.82	0.130	-1.120	0.760	234.84	-2.50	1.20	 	 	 	 	 	 	 	 	 	 	 	 	 	 	 	 	 	 	1581549995	7.68	14.22
12/02/2020 23:26:36	120220	12022020	232636	234.71	12.175795	-57.156150	234.72	-0.070	-0.880	0.920	234.71	-2.10	1.40	 	 	 	 	 	 	 	 	 	 	 	 	 	 	 	 	 	 	1581549996	7.72	14.30
12/02/2020 23:26:37	120220	12022020	232637	234.74	12.175780	-57.156182	234.75	-0.270	-0.400	1.150	234.74	-1.70	1.60	 	 	 	 	 	 	 	 	 	 	 	 	 	 	 	 	 	 	1581549997	7.41	13.72
12/02/2020 23:26:38	120220	12022020	232638	234.80	12.175763	-57.156212	234.82	-0.340	-0.090	1.380	234.80	-1.40	1.80	 	 	 	 	 	 	 	 	 	 	 	 	 	 	 	 	 	 	1581549998	7.20	13.33
12/02/2020 23:26:39	120220	12022020	232639	234.83	12.175748	-57.156245	234.85	-0.270	-0.050	1.560	234.83	-1.40	2.00	 	 	 	 	 	 	 	 	 	 	 	 	 	 	 	 	 	 	1581549999	7.39	13.69
12/02/2020 23:26:40	120220	12022020	232640	234.78	12.175732	-57.156278	234.81	-0.110	-0.020	1.600	234.78	-1.40	2.00	 	 	 	 	 	 	 	 	 	 	 	 	 	 	 	 	 	 	1581550000	7.74	14.33
12/02/2020 23:26:41	120220	12022020	232641	234.73	12.175715	-57.156308	234.75	0.060	0.240	1.440	234.73	-1.00	1.80	 	 	 	 	 	 	 	 	 	 	 	 	 	 	 	 	 	 	1581550001	7.79	14.43
12/02/2020 23:26:42	120220	12022020	232642	234.78	12.175697	-57.156337	234.80	0.170	0.560	1.050	234.78	-0.80	1.30	 	 	 	 	 	 	 	 	 	 	 	 	 	 	 	 	 	 	1581550002	7.48	13.85
12/02/2020 23:26:43	120220	12022020	232643	234.88	12.175677	-57.156365	234.88	0.220	0.430	0.680	234.88	-1.10	1.00	 	 	 	 	 	 	 	 	 	 	 	 	 	 	 	 	 	 	1581550003	7.09	13.13
12/02/2020 23:26:44	120220	12022020	232644	234.87	12.175657	-57.156395	234.87	0.210	-0.270	0.630	234.87	-1.90	1.10	 	 	 	 	 	 	 	 	 	 	 	 	 	 	 	 	 	 	1581550004	7.26	13.45
12/02/2020 23:26:45	120220	12022020	232645	234.67	12.175638	-57.156428	234.65	0.130	-1.110	1.120	234.67	-2.60	1.70	 	 	 	 	 	 	 	 	 	 	 	 	 	 	 	 	 	 	1581550005	7.79	14.43
12/02/2020 23:26:46	120220	12022020	232646	234.27	12.175623	-57.156463	234.24	-0.030	-1.490	1.900	234.27	-2.80	2.50	 	 	 	 	 	 	 	 	 	 	 	 	 	 	 	 	 	 	1581550006	8.14	15.08
12/02/2020 23:26:47	120220	12022020	232647	233.73	12.175610	-57.156497	233.72	-0.190	-1.220	2.560	233.73	-2.40	3.00	 	 	 	 	 	 	 	 	 	 	 	 	 	 	 	 	 	 	1581550007	8.00	14.82
12/02/2020 23:26:48	120220	12022020	232648	233.28	12.175597	-57.156528	233.31	-0.240	-0.480	2.740	233.28	-1.60	3.10	 	 	 	 	 	 	 	 	 	 	 	 	 	 	 	 	 	 	1581550008	7.59	14.06
12/02/2020 23:26:49	120220	12022020	232649	233.20	12.175582	-57.156557	233.26	-0.160	0.340	2.260	233.20	-0.90	2.40	 	 	 	 	 	 	 	 	 	 	 	 	 	 	 	 	 	 	1581550009	7.17	13.28
12/02/2020 23:26:50	120220	12022020	232650	233.56	12.175563	-57.156583	233.64	0.030	0.750	1.220	233.56	-0.60	1.40	 	 	 	 	 	 	 	 	 	 	 	 	 	 	 	 	 	 	1581550010	6.86	12.70
12/02/2020 23:26:51	120220	12022020	232651	234.21	12.175540	-57.156610	234.27	0.280	0.550	0.120	234.21	-0.90	0.30	 	 	 	 	 	 	 	 	 	 	 	 	 	 	 	 	 	 	1581550011	6.97	12.91
12/02/2020 23:26:52	120220	12022020	232652	234.77	12.175517	-57.156638	234.79	0.460	-0.100	-0.410	234.77	-1.60	-0.00	 	 	 	 	 	 	 	 	 	 	 	 	 	 	 	 	 	 	1581550012	7.49	13.87
12/02/2020 23:26:53	120220	12022020	232653	234.88	12.175495	-57.156668	234.85	0.460	-0.800	-0.150	234.88	-2.30	0.40	 	 	 	 	 	 	 	 	 	 	 	 	 	 	 	 	 	 	1581550013	7.89	14.61
12/02/2020 23:26:54	120220	12022020	232654	234.50	12.175478	-57.156702	234.45	0.220	-1.270	0.710	234.50	-2.70	1.30	 	 	 	 	 	 	 	 	 	 	 	 	 	 	 	 	 	 	1581550014	7.98	14.78
12/02/2020 23:26:55	120220	12022020	232655	233.86	12.175465	-57.156738	233.83	-0.180	-1.270	1.820	233.86	-2.50	2.40	 	 	 	 	 	 	 	 	 	 	 	 	 	 	 	 	 	 	1581550015	7.97	14.76
12/02/2020 23:26:56	120220	12022020	232656	233.38	12.175453	-57.156772	233.40	-0.560	-0.630	2.570	233.38	-1.80	3.00	 	 	 	 	 	 	 	 	 	 	 	 	 	 	 	 	 	 	1581550016	7.95	14.72
12/02/2020 23:26:57	120220	12022020	232657	233.26	12.175442	-57.156802	233.32	-0.650	0.340	2.580	233.26	-0.80	2.90	 	 	 	 	 	 	 	 	 	 	 	 	 	 	 	 	 	 	1581550017	7.60	14.08
12/02/2020 23:26:58	120220	12022020	232658	233.42	12.175425	-57.156830	233.49	-0.330	0.860	1.850	233.42	-0.50	2.00	 	 	 	 	 	 	 	 	 	 	 	 	 	 	 	 	 	 	1581550018	6.96	12.89
12/02/2020 23:26:59	120220	12022020	232659	233.76	12.175403	-57.156858	233.81	0.220	0.480	0.760	233.76	-1.10	0.90	 	 	 	 	 	 	 	 	 	 	 	 	 	 	 	 	 	 	1581550019	6.90	12.78
12/02/2020 23:27:00	120220	12022020	232700	234.13	12.175378	-57.156887	234.15	0.550	-0.400	-0.110	234.13	-1.90	0.20	 	 	 	 	 	 	 	 	 	 	 	 	 	 	 	 	 	 	1581550020	7.64	14.15
12/02/2020 23:27:01	120220	12022020	232701	234.39	12.175355	-57.156917	234.39	0.440	-1.010	-0.420	234.39	-2.40	-0.00	1015.60	26.40	27.10	20.70	20.90	-1.0	71.0	69.0	394.0	25.7	199.00	6.90	67.00	10.60	16	11729.0	27.5	27.4	1581550021	8.20	15.19
12/02/2020 23:27:02	120220	12022020	232702	234.43	12.175337	-57.156947	234.41	0.020	-1.030	-0.210	234.43	-2.30	0.30	 	 	 	 	 	 	 	 	 	 	 	 	 	 	 	 	 	 	1581550022	8.00	14.82
12/02/2020 23:27:03	120220	12022020	232703	234.32	12.175322	-57.156977	234.30	-0.370	-0.560	0.340	234.32	-1.80	0.90	 	 	 	 	 	 	 	 	 	 	 	 	 	 	 	 	 	 	1581550023	7.47	13.83
12/02/2020 23:27:04	120220	12022020	232704	234.28	12.175308	-57.157008	234.29	-0.510	0.060	0.910	234.28	-1.20	1.40	 	 	 	 	 	 	 	 	 	 	 	 	 	 	 	 	 	 	1581550024	7.12	13.19
12/02/2020 23:27:05	120220	12022020	232705	234.40	12.175295	-57.157038	234.42	-0.400	0.400	1.240	234.40	-1.00	1.70	 	 	 	 	 	 	 	 	 	 	 	 	 	 	 	 	 	 	1581550025	7.04	13.04
12/02/2020 23:27:06	120220	12022020	232706	234.58	12.175278	-57.157070	234.59	-0.100	0.230	1.330	234.58	-1.20	1.70	 	 	 	 	 	 	 	 	 	 	 	 	 	 	 	 	 	 	1581550026	7.21	13.35
12/02/2020 23:27:07	120220	12022020	232707	234.63	12.175260	-57.157102	234.63	0.260	-0.210	1.270	234.63	-1.70	1.60	 	 	 	 	 	 	 	 	 	 	 	 	 	 	 	 	 	 	1581550027	7.59	14.06
12/02/2020 23:27:08	120220	12022020	232708	234.49	12.175240	-57.157133	234.47	0.480	-0.590	1.070	234.49	-2.00	1.40	 	 	 	 	 	 	 	 	 	 	 	 	 	 	 	 	 	 	1581550028	7.84	14.52
12/02/2020 23:27:09	120220	12022020	232709	234.16	12.175220	-57.157162	234.11	0.450	-0.840	0.910	234.16	-2.30	1.30	 	 	 	 	 	 	 	 	 	 	 	 	 	 	 	 	 	 	1581550029	7.75	14.35
12/02/2020 23:27:10	120220	12022020	232710	233.68	12.175200	-57.157193	233.62	0.190	-0.970	1.010	233.68	-2.30	1.50	 	 	 	 	 	 	 	 	 	 	 	 	 	 	 	 	 	 	1581550030	7.60	14.08
12/02/2020 23:27:11	120220	12022020	232711	233.20	12.175185	-57.157225	233.17	-0.190	-0.750	1.400	233.20	-2.00	1.90	 	 	 	 	 	 	 	 	 	 	 	 	 	 	 	 	 	 	1581550031	7.60	14.08
12/02/2020 23:27:12	120220	12022020	232712	233.01	12.175172	-57.157257	233.03	-0.560	-0.120	1.660	233.01	-1.30	2.00	 	 	 	 	 	 	 	 	 	 	 	 	 	 	 	 	 	 	1581550032	7.58	14.04
12/02/2020 23:27:13	120220	12022020	232713	233.26	12.175158	-57.157288	233.33	-0.670	0.580	1.490	233.26	-0.70	1.80	 	 	 	 	 	 	 	 	 	 	 	 	 	 	 	 	 	 	1581550033	7.38	13.67
12/02/2020 23:27:14	120220	12022020	232714	233.83	12.175142	-57.157317	233.91	-0.390	0.920	0.840	233.83	-0.40	1.00	 	 	 	 	 	 	 	 	 	 	 	 	 	 	 	 	 	 	1581550034	7.09	13.13
12/02/2020 23:27:15	120220	12022020	232715	234.48	12.175120	-57.157343	234.53	0.110	0.710	-0.040	234.48	-0.80	0.20	 	 	 	 	 	 	 	 	 	 	 	 	 	 	 	 	 	 	1581550035	7.09	13.13
12/02/2020 23:27:16	120220	12022020	232716	234.92	12.175097	-57.157370	234.92	0.480	-0.080	-0.620	234.92	-1.70	-0.20	 	 	 	 	 	 	 	 	 	 	 	 	 	 	 	 	 	 	1581550036	7.38	13.67
12/02/2020 23:27:17	120220	12022020	232717	234.93	12.175073	-57.157402	234.87	0.560	-1.170	-0.340	234.93	-2.80	0.20	 	 	 	 	 	 	 	 	 	 	 	 	 	 	 	 	 	 	1581550037	7.77	14.39
12/02/2020 23:27:18	120220	12022020	232718	234.41	12.175057	-57.157435	234.32	0.410	-1.930	0.740	234.41	-3.30	1.40	 	 	 	 	 	 	 	 	 	 	 	 	 	 	 	 	 	 	1581550038	8.04	14.89
12/02/2020 23:27:19	120220	12022020	232719	233.58	12.175043	-57.157470	233.53	0.170	-1.840	2.080	233.58	-3.00	2.70	 	 	 	 	 	 	 	 	 	 	 	 	 	 	 	 	 	 	1581550039	8.05	14.91
12/02/2020 23:27:20	120220	12022020	232720	232.88	12.175032	-57.157502	232.88	-0.130	-0.970	3.080	232.88	-2.10	3.60	 	 	 	 	 	 	 	 	 	 	 	 	 	 	 	 	 	 	1581550040	7.78	14.41
12/02/2020 23:27:21	120220	12022020	232721	232.51	12.175020	-57.157533	232.56	-0.390	0.090	3.360	232.51	-1.10	3.70	 	 	 	 	 	 	 	 	 	 	 	 	 	 	 	 	 	 	1581550041	7.33	13.58
12/02/2020 23:27:22	120220	12022020	232722	232.51	12.175005	-57.157563	232.59	-0.510	0.820	2.830	232.51	-0.40	3.00	 	 	 	 	 	 	 	 	 	 	 	 	 	 	 	 	 	 	1581550042	7.10	13.15
12/02/2020 23:27:23	120220	12022020	232723	232.76	12.174987	-57.157593	232.93	-0.440	1.070	1.700	232.85	-0.30	1.80	 	 	 	 	 	 	 	 	 	 	 	 	 	 	 	 	 	 	1581550043	7.23	13.39
12/02/2020 23:27:24	120220	12022020	232724	233.40	12.174963	-57.157622	233.46	-0.210	0.870	0.400	233.40	-0.60	0.50	 	 	 	 	 	 	 	 	 	 	 	 	 	 	 	 	 	 	1581550044	7.42	13.74
12/02/2020 23:27:25	120220	12022020	232725	233.86	12.174940	-57.157648	233.86	0.110	0.330	-0.460	233.86	-1.20	-0.20	 	 	 	 	 	 	 	 	 	 	 	 	 	 	 	 	 	 	1581550045	7.60	14.08
12/02/2020 23:27:26	120220	12022020	232726	234.03	12.174918	-57.157677	233.99	0.360	-0.320	-0.630	234.03	-1.80	-0.20	 	 	 	 	 	 	 	 	 	 	 	 	 	 	 	 	 	 	1581550046	7.73	14.32
12/02/2020 23:27:27	120220	12022020	232727	233.98	12.174898	-57.157707	233.92	0.440	-0.850	-0.230	233.98	-2.30	0.30	 	 	 	 	 	 	 	 	 	 	 	 	 	 	 	 	 	 	1581550047	7.67	14.20
12/02/2020 23:27:28	120220	12022020	232728	233.71	12.174882	-57.157737	233.65	0.350	-1.140	0.510	233.71	-2.50	1.10	 	 	 	 	 	 	 	 	 	 	 	 	 	 	 	 	 	 	1581550048	7.47	13.83
12/02/2020 23:27:29	120220	12022020	232729	233.27	12.174868	-57.157768	233.21	0.210	-1.200	1.390	233.27	-2.50	1.90	 	 	 	 	 	 	 	 	 	 	 	 	 	 	 	 	 	 	1581550049	7.31	13.54
12/02/2020 23:27:30	120220	12022020	232730	232.88	12.174855	-57.157800	232.86	0.110	-1.090	2.030	232.88	-2.40	2.50	 	 	 	 	 	 	 	 	 	 	 	 	 	 	 	 	 	 	1581550050	7.33	13.58
12/02/2020 23:27:31	120220	12022020	232731	232.74	12.174840	-57.157833	232.77	0.070	-0.820	2.170	232.74	-2.10	2.50	 	 	 	 	 	 	 	 	 	 	 	 	 	 	 	 	 	 	1581550051	7.45	13.80
12/02/2020 23:27:32	120220	12022020	232732	232.84	12.174823	-57.157863	232.89	0.010	-0.460	1.970	232.84	-1.70	2.30	 	 	 	 	 	 	 	 	 	 	 	 	 	 	 	 	 	 	1581550052	7.45	13.80
12/02/2020 23:27:33	120220	12022020	232733	233.10	12.174805	-57.157893	233.15	-0.130	-0.040	1.550	233.10	-1.30	1.80	 	 	 	 	 	 	 	 	 	 	 	 	 	 	 	 	 	 	1581550053	7.47	13.83
12/02/2020 23:27:34	120220	12022020	232734	233.37	12.174785	-57.157922	233.40	-0.310	0.390	1.180	233.37	-0.90	1.50	 	 	 	 	 	 	 	 	 	 	 	 	 	 	 	 	 	 	1581550054	7.47	13.83
12/02/2020 23:27:35	120220	12022020	232735	233.50	12.174765	-57.157950	233.51	-0.440	0.680	1.030	233.50	-0.70	1.40	 	 	 	 	 	 	 	 	 	 	 	 	 	 	 	 	 	 	1581550055	7.40	13.70
12/02/2020 23:27:36	120220	12022020	232736	233.39	12.174747	-57.157980	233.36	-0.440	0.610	1.200	233.39	-0.80	1.70	 	 	 	 	 	 	 	 	 	 	 	 	 	 	 	 	 	 	1581550056	7.38	13.67
12/02/2020 23:27:37	120220	12022020	232737	233.05	12.174728	-57.158012	233.02	-0.280	0.240	1.480	233.05	-1.20	1.90	 	 	 	 	 	 	 	 	 	 	 	 	 	 	 	 	 	 	1581550057	7.54	13.96
12/02/2020 23:27:38	120220	12022020	232738	232.65	12.174712	-57.158043	232.63	0.030	-0.120	1.520	232.65	-1.60	1.90	 	 	 	 	 	 	 	 	 	 	 	 	 	 	 	 	 	 	1581550058	7.75	14.35
12/02/2020 23:27:39	120220	12022020	232739	232.33	12.174693	-57.158073	232.32	0.410	-0.300	1.180	232.33	-1.70	1.40	 	 	 	 	 	 	 	 	 	 	 	 	 	 	 	 	 	 	1581550059	7.63	14.13
12/02/2020 23:27:40	120220	12022020	232740	232.25	12.174675	-57.158098	232.26	0.720	-0.410	0.540	232.25	-1.80	0.80	 	 	 	 	 	 	 	 	 	 	 	 	 	 	 	 	 	 	1581550060	7.20	13.33
12/02/2020 23:27:41	120220	12022020	232741	232.46	12.174653	-57.158123	232.48	0.840	-0.610	-0.140	232.46	-2.00	0.10	 	 	 	 	 	 	 	 	 	 	 	 	 	 	 	 	 	 	1581550061	6.95	12.87
12/02/2020 23:27:42	120220	12022020	232742	232.83	12.174632	-57.158152	232.84	0.690	-0.970	-0.430	232.83	-2.40	0.00	 	 	 	 	 	 	 	 	 	 	 	 	 	 	 	 	 	 	1581550062	7.02	13.00
12/02/2020 23:27:43	120220	12022020	232743	233.13	12.174613	-57.158182	233.12	0.250	-1.320	0.040	233.13	-2.70	0.60	 	 	 	 	 	 	 	 	 	 	 	 	 	 	 	 	 	 	1581550063	7.31	13.54
12/02/2020 23:27:44	120220	12022020	232744	233.12	12.174598	-57.158215	233.10	-0.320	-1.420	1.180	233.12	-2.70	1.90	 	 	 	 	 	 	 	 	 	 	 	 	 	 	 	 	 	 	1581550064	7.61	14.09
12/02/2020 23:27:45	120220	12022020	232745	232.73	12.174587	-57.158252	232.69	-0.750	-1.110	2.410	232.73	-2.30	3.00	 	 	 	 	 	 	 	 	 	 	 	 	 	 	 	 	 	 	1581550065	7.89	14.61
12/02/2020 23:27:46	120220	12022020	232746	232.26	12.174573	-57.158285	232.25	-0.870	-0.380	3.050	232.26	-1.50	3.40	 	 	 	 	 	 	 	 	 	 	 	 	 	 	 	 	 	 	1581550066	7.99	14.80
12/02/2020 23:27:47	120220	12022020	232747	232.03	12.174557	-57.158315	232.07	-0.670	0.420	2.800	232.03	-0.80	3.00	 	 	 	 	 	 	 	 	 	 	 	 	 	 	 	 	 	 	1581550067	7.66	14.19
12/02/2020 23:27:48	120220	12022020	232748	232.03	12.174535	-57.158342	232.08	-0.300	0.790	2.010	232.03	-0.60	2.20	 	 	 	 	 	 	 	 	 	 	 	 	 	 	 	 	 	 	1581550068	7.28	13.48
12/02/2020 23:27:49	120220	12022020	232749	232.10	12.174510	-57.158370	232.13	0.050	0.680	1.130	232.10	-0.70	1.40	 	 	 	 	 	 	 	 	 	 	 	 	 	 	 	 	 	 	1581550069	7.41	13.72
12/02/2020 23:27:50	120220	12022020	232750	232.13	12.174487	-57.158397	232.14	0.220	0.550	0.570	232.13	-0.80	0.90	 	 	 	 	 	 	 	 	 	 	 	 	 	 	 	 	 	 	1581550070	7.79	14.43
12/02/2020 23:27:51	120220	12022020	232751	232.21	12.174465	-57.158423	232.24	0.190	0.560	0.460	232.21	-0.80	0.90	 	 	 	 	 	 	 	 	 	 	 	 	 	 	 	 	 	 	1581550071	7.71	14.28
12/02/2020 23:27:52	120220	12022020	232752	232.41	12.174448	-57.158452	232.45	0.130	0.420	0.600	232.41	-1.00	1.10	 	 	 	 	 	 	 	 	 	 	 	 	 	 	 	 	 	 	1581550072	7.20	13.33
12/02/2020 23:27:53	120220	12022020	232753	232.60	12.174433	-57.158482	232.64	0.260	-0.130	0.870	232.60	-1.70	1.30	 	 	 	 	 	 	 	 	 	 	 	 	 	 	 	 	 	 	1581550073	6.99	12.95
12/02/2020 23:27:54	120220	12022020	232754	232.76	12.174417	-57.158513	232.81	0.570	-0.870	1.030	232.76	-2.40	1.40	 	 	 	 	 	 	 	 	 	 	 	 	 	 	 	 	 	 	1581550074	7.27	13.46
12/02/2020 23:27:55	120220	12022020	232755	233.07	12.174398	-57.158543	233.13	0.790	-1.360	0.790	233.07	-2.80	1.10	 	 	 	 	 	 	 	 	 	 	 	 	 	 	 	 	 	 	1581550075	7.55	13.98
12/02/2020 23:27:56	120220	12022020	232756	233.52	12.174378	-57.158570	233.56	0.690	-1.610	0.360	233.52	-3.00	0.70	 	 	 	 	 	 	 	 	 	 	 	 	 	 	 	 	 	 	1581550076	7.37	13.65
12/02/2020 23:27:57	120220	12022020	232757	233.71	12.174358	-57.158598	233.70	0.330	-1.840	0.320	233.71	-3.20	0.80	 	 	 	 	 	 	 	 	 	 	 	 	 	 	 	 	 	 	1581550077	7.18	13.30
12/02/2020 23:27:58	120220	12022020	232758	233.44	12.174338	-57.158630	233.40	-0.180	-1.830	0.810	233.44	-3.10	1.40	 	 	 	 	 	 	 	 	 	 	 	 	 	 	 	 	 	 	1581550078	7.46	13.82
12/02/2020 23:27:59	120220	12022020	232759	232.97	12.174322	-57.158663	232.95	-0.710	-1.070	1.470	232.97	-2.10	2.00	 	 	 	 	 	 	 	 	 	 	 	 	 	 	 	 	 	 	1581550079	7.87	14.58
12/02/2020 23:28:00	120220	12022020	232800	232.77	12.174308	-57.158693	232.81	-1.090	0.390	1.900	232.77	-0.60	2.30	 	 	 	 	 	 	 	 	 	 	 	 	 	 	 	 	 	 	1581550080	7.74	14.33
12/02/2020 23:28:01	120220	12022020	232801	232.88	12.174293	-57.158723	233.00	-1.140	1.650	1.950	232.93	0.40	2.30	1015.50	26.40	27.20	20.80	20.80	-1.0	71.0	68.0	395.0	25.7	203.00	7.70	69.00	11.30	16	12257.0	27.4	27.4	1581550081	7.19	13.32
12/02/2020 23:28:02	120220	12022020	232802	233.26	12.174275	-57.158753	233.35	-0.790	1.920	1.720	233.26	0.50	2.00	 	 	 	 	 	 	 	 	 	 	 	 	 	 	 	 	 	 	1581550082	6.97	12.91
12/02/2020 23:28:03	120220	12022020	232803	233.65	12.174253	-57.158785	233.71	-0.220	1.370	1.420	233.65	-0.20	1.70	 	 	 	 	 	 	 	 	 	 	 	 	 	 	 	 	 	 	1581550083	7.54	13.96
12/02/2020 23:28:04	120220	12022020	232804	233.98	12.174233	-57.158815	234.03	0.310	0.600	1.140	233.98	-0.90	1.50	 	 	 	 	 	 	 	 	 	 	 	 	 	 	 	 	 	 	1581550084	8.04	14.89
12/02/2020 23:28:05	120220	12022020	232805	234.19	12.174215	-57.158845	234.21	0.650	-0.080	0.910	234.19	-1.60	1.30	 	 	 	 	 	 	 	 	 	 	 	 	 	 	 	 	 	 	1581550085	7.89	14.61
12/02/2020 23:28:06	120220	12022020	232806	234.18	12.174197	-57.158873	234.16	0.860	-0.790	0.700	234.18	-2.30	1.10	 	 	 	 	 	 	 	 	 	 	 	 	 	 	 	 	 	 	1581550086	7.35	13.61
12/02/2020 23:28:07	120220	12022020	232807	233.98	12.174178	-57.158902	233.95	1.030	-1.550	0.540	233.98	-3.00	0.90	 	 	 	 	 	 	 	 	 	 	 	 	 	 	 	 	 	 	1581550087	7.10	13.15
12/02/2020 23:28:08	120220	12022020	232808	233.80	12.174160	-57.158930	233.78	0.980	-2.040	0.410	233.80	-3.40	0.80	 	 	 	 	 	 	 	 	 	 	 	 	 	 	 	 	 	 	1581550088	7.24	13.41
12/02/2020 23:28:09	120220	12022020	232809	233.78	12.174140	-57.158960	233.78	0.540	-2.060	0.350	233.78	-3.30	0.80	 	 	 	 	 	 	 	 	 	 	 	 	 	 	 	 	 	 	1581550089	7.37	13.65
12/02/2020 23:28:10	120220	12022020	232810	233.88	12.174123	-57.158990	233.90	-0.210	-1.580	0.510	233.88	-2.70	1.00	 	 	 	 	 	 	 	 	 	 	 	 	 	 	 	 	 	 	1581550090	7.34	13.59
12/02/2020 23:28:11	120220	12022020	232811	234.12	12.174108	-57.159020	234.15	-0.960	-0.610	0.780	234.12	-1.70	1.20	 	 	 	 	 	 	 	 	 	 	 	 	 	 	 	 	 	 	1581550091	7.39	13.69
12/02/2020 23:28:12	120220	12022020	232812	234.43	12.174092	-57.159052	234.46	-1.360	0.600	1.010	234.43	-0.50	1.40	 	 	 	 	 	 	 	 	 	 	 	 	 	 	 	 	 	 	1581550092	7.33	13.58
12/02/2020 23:28:13	120220	12022020	232813	234.61	12.174077	-57.159080	234.63	-1.240	1.470	1.160	234.63	0.20	1.60	 	 	 	 	 	 	 	 	 	 	 	 	 	 	 	 	 	 	1581550093	7.16	13.26
12/02/2020 23:28:14	120220	12022020	232814	234.52	12.174058	-57.159112	234.48	-0.710	1.570	1.250	234.52	0.10	1.70	 	 	 	 	 	 	 	 	 	 	 	 	 	 	 	 	 	 	1581550094	7.24	13.41
12/02/2020 23:28:15	120220	12022020	232815	234.15	12.174037	-57.159143	234.11	-0.050	1.000	1.260	234.15	-0.60	1.70	 	 	 	 	 	 	 	 	 	 	 	 	 	 	 	 	 	 	1581550095	7.67	14.20
12/02/2020 23:28:16	120220	12022020	232816	233.70	12.174017	-57.159177	233.66	0.490	0.150	1.250	233.70	-1.40	1.60	 	 	 	 	 	 	 	 	 	 	 	 	 	 	 	 	 	 	1581550096	8.06	14.93
12/02/2020 23:28:17	120220	12022020	232817	233.37	12.173998	-57.159207	233.36	0.760	-0.550	1.140	233.37	-2.00	1.50	 	 	 	 	 	 	 	 	 	 	 	 	 	 	 	 	 	 	1581550097	8.07	14.95
12/02/2020 23:28:18	120220	12022020	232818	233.44	12.173982	-57.159237	233.47	0.770	-0.920	0.790	233.44	-2.30	1.10	 	 	 	 	 	 	 	 	 	 	 	 	 	 	 	 	 	 	1581550098	7.73	14.32
12/02/2020 23:28:19	120220	12022020	232819	233.85	12.173965	-57.159265	233.88	0.640	-1.030	0.250	233.85	-2.40	0.50	 	 	 	 	 	 	 	 	 	 	 	 	 	 	 	 	 	 	1581550099	7.22	13.37
12/02/2020 23:28:20	120220	12022020	232820	234.32	12.173947	-57.159292	234.34	0.470	-1.060	-0.230	234.32	-2.40	0.10	 	 	 	 	 	 	 	 	 	 	 	 	 	 	 	 	 	 	1581550100	6.87	12.72
12/02/2020 23:28:21	120220	12022020	232821	234.71	12.173928	-57.159318	234.72	0.290	-1.010	-0.500	234.71	-2.30	-0.10	 	 	 	 	 	 	 	 	 	 	 	 	 	 	 	 	 	 	1581550101	6.91	12.80
12/02/2020 23:28:22	120220	12022020	232822	235.01	12.173908	-57.159347	235.01	0.020	-0.770	-0.430	235.01	-2.00	0.00	 	 	 	 	 	 	 	 	 	 	 	 	 	 	 	 	 	 	1581550102	7.14	13.22
12/02/2020 23:28:23	120220	12022020	232823	235.14	12.173892	-57.159377	235.11	-0.330	-0.360	0.050	235.14	-1.60	0.60	 	 	 	 	 	 	 	 	 	 	 	 	 	 	 	 	 	 	1581550103	7.28	13.48
12/02/2020 23:28:24	120220	12022020	232824	234.91	12.173875	-57.159408	234.85	-0.580	-0.040	0.980	234.91	-1.30	1.60	 	 	 	 	 	 	 	 	 	 	 	 	 	 	 	 	 	 	1581550104	7.28	13.48
12/02/2020 23:28:25	120220	12022020	232825	234.43	12.173862	-57.159442	234.23	-0.600	0.100	2.110	234.29	-1.20	2.70	 	 	 	 	 	 	 	 	 	 	 	 	 	 	 	 	 	 	1581550105	7.45	13.80
12/02/2020 23:28:26	120220	12022020	232826	233.54	12.173847	-57.159477	233.51	-0.390	0.100	2.960	233.54	-1.30	3.40	 	 	 	 	 	 	 	 	 	 	 	 	 	 	 	 	 	 	1581550106	7.80	14.45
12/02/2020 23:28:27	120220	12022020	232827	233.02	12.173832	-57.159510	233.03	-0.150	0.120	3.070	233.02	-1.20	3.40	 	 	 	 	 	 	 	 	 	 	 	 	 	 	 	 	 	 	1581550107	7.97	14.76
12/02/2020 23:28:28	120220	12022020	232828	232.91	12.173813	-57.159540	232.97	0.010	0.170	2.420	232.91	-1.20	2.60	 	 	 	 	 	 	 	 	 	 	 	 	 	 	 	 	 	 	1581550108	7.81	14.46
12/02/2020 23:28:29	120220	12022020	232829	233.30	12.173795	-57.159568	233.39	0.100	0.130	1.200	233.30	-1.30	1.30	 	 	 	 	 	 	 	 	 	 	 	 	 	 	 	 	 	 	1581550109	7.43	13.76
12/02/2020 23:28:30	120220	12022020	232830	234.09	12.173773	-57.159595	234.18	0.280	-0.030	-0.250	234.09	-1.40	-0.20	 	 	 	 	 	 	 	 	 	 	 	 	 	 	 	 	 	 	1581550110	7.21	13.35
12/02/2020 23:28:31	120220	12022020	232831	234.96	12.173752	-57.159620	235.00	0.540	-0.280	-1.350	234.96	-1.70	-1.10	 	 	 	 	 	 	 	 	 	 	 	 	 	 	 	 	 	 	1581550111	7.18	13.30
12/02/2020 23:28:32	120220	12022020	232832	235.55	12.173730	-57.159647	235.53	0.680	-0.550	-1.630	235.55	-2.00	-1.20	 	 	 	 	 	 	 	 	 	 	 	 	 	 	 	 	 	 	1581550112	7.25	13.43
12/02/2020 23:28:33	120220	12022020	232833	235.60	12.173712	-57.159677	235.53	0.550	-0.720	-1.010	235.60	-2.10	-0.40	 	 	 	 	 	 	 	 	 	 	 	 	 	 	 	 	 	 	1581550113	7.25	13.43
12/02/2020 23:28:34	120220	12022020	232834	235.20	12.173697	-57.159707	235.12	0.220	-0.740	0.190	235.20	-2.10	0.90	 	 	 	 	 	 	 	 	 	 	 	 	 	 	 	 	 	 	1581550114	7.24	13.41
12/02/2020 23:28:35	120220	12022020	232835	234.62	12.173685	-57.159740	234.56	-0.100	-0.700	1.580	234.62	-2.00	2.30	 	 	 	 	 	 	 	 	 	 	 	 	 	 	 	 	 	 	1581550115	7.30	13.52
12/02/2020 23:28:36	120220	12022020	232836	234.08	12.173673	-57.159775	234.06	-0.270	-0.620	2.630	234.08	-1.90	3.20	 	 	 	 	 	 	 	 	 	 	 	 	 	 	 	 	 	 	1581550116	7.55	13.98
12/02/2020 23:28:37	120220	12022020	232837	233.79	12.173658	-57.159808	233.76	-0.330	-0.440	3.000	233.74	-1.70	3.40	 	 	 	 	 	 	 	 	 	 	 	 	 	 	 	 	 	 	1581550117	7.76	14.37
12/02/2020 23:28:38	120220	12022020	232838	233.64	12.173643	-57.159840	233.69	-0.340	-0.110	2.670	233.64	-1.40	2.90	 	 	 	 	 	 	 	 	 	 	 	 	 	 	 	 	 	 	1581550118	7.69	14.24
12/02/2020 23:28:39	120220	12022020	232839	233.79	12.173625	-57.159868	233.85	-0.330	0.270	1.780	233.79	-1.00	1.90	 	 	 	 	 	 	 	 	 	 	 	 	 	 	 	 	 	 	1581550119	7.41	13.72
12/02/2020 23:28:40	120220	12022020	232840	234.25	12.173605	-57.159895	234.32	-0.260	0.450	0.590	234.25	-0.90	0.70	 	 	 	 	 	 	 	 	 	 	 	 	 	 	 	 	 	 	1581550120	7.18	13.30
12/02/2020 23:28:41	120220	12022020	232841	234.89	12.173583	-57.159922	234.93	-0.070	0.230	-0.560	234.89	-1.20	-0.40	 	 	 	 	 	 	 	 	 	 	 	 	 	 	 	 	 	 	1581550121	7.11	13.17
12/02/2020 23:28:42	120220	12022020	232842	235.46	12.173560	-57.159950	235.45	0.180	-0.300	-1.110	235.46	-1.80	-0.70	 	 	 	 	 	 	 	 	 	 	 	 	 	 	 	 	 	 	1581550122	7.33	13.58
12/02/2020 23:28:43	120220	12022020	232843	235.70	12.173542	-57.159980	235.66	0.330	-0.750	-0.780	235.70	-2.20	-0.20	 	 	 	 	 	 	 	 	 	 	 	 	 	 	 	 	 	 	1581550123	7.64	14.15
12/02/2020 23:28:44	120220	12022020	232844	235.54	12.173527	-57.160012	235.48	0.290	-0.860	0.180	235.54	-2.20	0.80	 	 	 	 	 	 	 	 	 	 	 	 	 	 	 	 	 	 	1581550124	7.63	14.13
12/02/2020 23:28:45	120220	12022020	232845	235.03	12.173513	-57.160043	234.96	0.140	-0.650	1.320	235.03	-1.90	1.90	 	 	 	 	 	 	 	 	 	 	 	 	 	 	 	 	 	 	1581550125	7.42	13.74
12/02/2020 23:28:46	120220	12022020	232846	234.37	12.173500	-57.160075	234.33	0.010	-0.300	2.220	234.37	-1.60	2.70	 	 	 	 	 	 	 	 	 	 	 	 	 	 	 	 	 	 	1581550126	7.32	13.56
12/02/2020 23:28:47	120220	12022020	232847	233.97	12.173487	-57.160107	233.99	-0.050	0.080	2.450	233.97	-1.20	2.80	 	 	 	 	 	 	 	 	 	 	 	 	 	 	 	 	 	 	1581550127	7.30	13.52
12/02/2020 23:28:48	120220	12022020	232848	234.00	12.173470	-57.160137	234.07	-0.060	0.310	2.100	234.00	-1.00	2.30	 	 	 	 	 	 	 	 	 	 	 	 	 	 	 	 	 	 	1581550128	7.20	13.33
12/02/2020 23:28:49	120220	12022020	232849	234.24	12.173453	-57.160165	234.37	-0.030	0.290	1.440	234.30	-1.10	1.70	 	 	 	 	 	 	 	 	 	 	 	 	 	 	 	 	 	 	1581550129	7.14	13.22
12/02/2020 23:28:50	120220	12022020	232850	234.63	12.173433	-57.160193	234.67	0.060	-0.020	0.820	234.63	-1.50	1.10	 	 	 	 	 	 	 	 	 	 	 	 	 	 	 	 	 	 	1581550130	7.22	13.37
12/02/2020 23:28:51	120220	12022020	232851	234.84	12.173415	-57.160223	234.91	0.180	-0.490	0.360	234.89	-2.00	0.70	 	 	 	 	 	 	 	 	 	 	 	 	 	 	 	 	 	 	1581550131	7.37	13.65
12/02/2020 23:28:52	120220	12022020	232852	235.10	12.173395	-57.160253	235.12	0.230	-0.870	0.060	235.10	-2.30	0.40	 	 	 	 	 	 	 	 	 	 	 	 	 	 	 	 	 	 	1581550132	7.51	13.91
12/02/2020 23:28:53	120220	12022020	232853	235.23	12.173377	-57.160282	235.24	0.120	-1.030	0.070	235.23	-2.40	0.50	 	 	 	 	 	 	 	 	 	 	 	 	 	 	 	 	 	 	1581550133	7.49	13.87
12/02/2020 23:28:54	120220	12022020	232854	235.24	12.173360	-57.160312	235.25	-0.140	-0.970	0.410	235.24	-2.30	0.90	 	 	 	 	 	 	 	 	 	 	 	 	 	 	 	 	 	 	1581550134	7.34	13.59
12/02/2020 23:28:55	120220	12022020	232855	235.17	12.173345	-57.160343	235.19	-0.420	-0.660	0.900	235.17	-1.90	1.40	 	 	 	 	 	 	 	 	 	 	 	 	 	 	 	 	 	 	1581550135	7.32	13.56
12/02/2020 23:28:56	120220	12022020	232856	235.03	12.173330	-57.160373	235.05	-0.510	-0.110	1.280	235.03	-1.30	1.70	 	 	 	 	 	 	 	 	 	 	 	 	 	 	 	 	 	 	1581550136	7.32	13.56
12/02/2020 23:28:57	120220	12022020	232857	234.85	12.173315	-57.160403	234.88	-0.360	0.400	1.430	234.85	-0.90	1.80	 	 	 	 	 	 	 	 	 	 	 	 	 	 	 	 	 	 	1581550137	7.22	13.37
12/02/2020 23:28:58	120220	12022020	232858	234.70	12.173297	-57.160433	234.73	-0.120	0.590	1.360	234.70	-0.80	1.70	 	 	 	 	 	 	 	 	 	 	 	 	 	 	 	 	 	 	1581550138	7.17	13.28
12/02/2020 23:28:59	120220	12022020	232859	234.63	12.173278	-57.160463	234.67	0.030	0.500	1.170	234.63	-0.90	1.50	 	 	 	 	 	 	 	 	 	 	 	 	 	 	 	 	 	 	1581550139	7.35	13.61
12/02/2020 23:29:00	120220	12022020	232900	234.58	12.173260	-57.160493	234.60	0.070	0.240	1.030	234.58	-1.20	1.40	 	 	 	 	 	 	 	 	 	 	 	 	 	 	 	 	 	 	1581550140	7.44	13.78
12/02/2020 23:29:01	120220	12022020	232901	234.47	12.173243	-57.160523	234.47	0.120	-0.230	1.030	234.47	-1.70	1.40	1015.50	26.30	26.60	20.60	20.60	-1.0	71.0	69.0	394.0	25.7	204.00	7.30	70.00	10.90	16	11400.0	27.5	27.4	1581550141	7.40	13.70
12/02/2020 23:29:02	120220	12022020	232902	234.38	12.173227	-57.160555	234.41	0.280	-0.730	1.040	234.38	-2.20	1.40	 	 	 	 	 	 	 	 	 	 	 	 	 	 	 	 	 	 	1581550142	7.48	13.85
12/02/2020 23:29:03	120220	12022020	232903	234.45	12.173210	-57.160587	234.54	0.460	-0.910	0.870	234.49	-2.30	1.20	 	 	 	 	 	 	 	 	 	 	 	 	 	 	 	 	 	 	1581550143	7.59	14.06
12/02/2020 23:29:04	120220	12022020	232904	234.77	12.173193	-57.160615	234.82	0.460	-0.790	0.590	234.77	-2.10	0.90	 	 	 	 	 	 	 	 	 	 	 	 	 	 	 	 	 	 	1581550144	7.35	13.61
12/02/2020 23:29:05	120220	12022020	232905	235.03	12.173175	-57.160643	235.06	0.230	-0.750	0.500	235.03	-2.10	0.90	 	 	 	 	 	 	 	 	 	 	 	 	 	 	 	 	 	 	1581550145	7.02	13.00
12/02/2020 23:29:06	120220	12022020	232906	235.04	12.173158	-57.160673	235.04	-0.110	-0.920	0.730	235.04	-2.30	1.20	 	 	 	 	 	 	 	 	 	 	 	 	 	 	 	 	 	 	1581550146	7.10	13.15
12/02/2020 23:29:07	120220	12022020	232907	234.74	12.173140	-57.160707	234.73	-0.400	-0.910	1.180	234.74	-2.20	1.70	 	 	 	 	 	 	 	 	 	 	 	 	 	 	 	 	 	 	1581550147	7.56	14.00
12/02/2020 23:29:08	120220	12022020	232908	234.25	12.173125	-57.160737	234.25	-0.640	-0.330	1.640	234.25	-1.50	2.10	 	 	 	 	 	 	 	 	 	 	 	 	 	 	 	 	 	 	1581550148	7.77	14.39
12/02/2020 23:29:09	120220	12022020	232909	233.85	12.173110	-57.160767	233.88	-0.780	0.610	1.890	233.85	-0.60	2.30	 	 	 	 	 	 	 	 	 	 	 	 	 	 	 	 	 	 	1581550149	7.45	13.80
12/02/2020 23:29:10	120220	12022020	232910	233.73	12.173095	-57.160797	233.78	-0.670	1.220	1.880	233.73	-0.10	2.20	 	 	 	 	 	 	 	 	 	 	 	 	 	 	 	 	 	 	1581550150	6.98	12.93
12/02/2020 23:29:11	120220	12022020	232911	233.88	12.173078	-57.160827	233.94	-0.210	1.140	1.610	233.88	-0.30	1.90	 	 	 	 	 	 	 	 	 	 	 	 	 	 	 	 	 	 	1581550151	6.98	12.93
12/02/2020 23:29:12	120220	12022020	232912	234.24	12.173058	-57.160857	234.31	0.450	0.470	1.120	234.24	-1.10	1.40	 	 	 	 	 	 	 	 	 	 	 	 	 	 	 	 	 	 	1581550152	7.32	13.56
12/02/2020 23:29:13	120220	12022020	232913	234.71	12.173037	-57.160885	234.77	0.890	-0.560	0.670	234.71	-2.20	1.00	 	 	 	 	 	 	 	 	 	 	 	 	 	 	 	 	 	 	1581550153	7.63	14.13
12/02/2020 23:29:14	120220	12022020	232914	235.01	12.173017	-57.160917	235.04	0.840	-1.610	0.510	235.01	-3.20	0.90	 	 	 	 	 	 	 	 	 	 	 	 	 	 	 	 	 	 	1581550154	7.75	14.35
12/02/2020 23:29:15	120220	12022020	232915	234.94	12.173000	-57.160948	234.94	0.400	-2.250	0.840	234.94	-3.60	1.40	 	 	 	 	 	 	 	 	 	 	 	 	 	 	 	 	 	 	1581550155	7.78	14.41
12/02/2020 23:29:16	120220	12022020	232916	234.66	12.172987	-57.160980	234.67	-0.130	-2.030	1.410	234.66	-3.20	1.90	 	 	 	 	 	 	 	 	 	 	 	 	 	 	 	 	 	 	1581550156	7.71	14.28
12/02/2020 23:29:17	120220	12022020	232917	234.43	12.172973	-57.161010	234.46	-0.510	-0.950	1.860	234.43	-2.00	2.30	 	 	 	 	 	 	 	 	 	 	 	 	 	 	 	 	 	 	1581550157	7.45	13.80
12/02/2020 23:29:18	120220	12022020	232918	234.22	12.172960	-57.161040	234.25	-0.640	0.330	2.150	234.22	-0.80	2.60	 	 	 	 	 	 	 	 	 	 	 	 	 	 	 	 	 	 	1581550158	6.77	12.54
12/02/2020 23:29:19	120220	12022020	232919	233.96	12.172945	-57.161070	233.98	-0.520	1.070	2.270	233.96	-0.20	2.70	 	 	 	 	 	 	 	 	 	 	 	 	 	 	 	 	 	 	1581550159	6.77	12.54
12/02/2020 23:29:20	120220	12022020	232920	233.77	12.172927	-57.161102	233.81	-0.300	1.220	2.200	233.77	-0.20	2.50	 	 	 	 	 	 	 	 	 	 	 	 	 	 	 	 	 	 	1581550160	7.19	13.32
12/02/2020 23:29:21	120220	12022020	232921	233.81	12.172907	-57.161132	233.87	-0.100	1.010	1.880	233.81	-0.50	2.20	 	 	 	 	 	 	 	 	 	 	 	 	 	 	 	 	 	 	1581550161	7.65	14.17
12/02/2020 23:29:22	120220	12022020	232922	234.15	12.172888	-57.161162	234.22	0.080	0.540	1.320	234.15	-1.00	1.60	 	 	 	 	 	 	 	 	 	 	 	 	 	 	 	 	 	 	1581550162	7.68	14.22
12/02/2020 23:29:23	120220	12022020	232923	234.66	12.172868	-57.161190	234.72	0.280	-0.180	0.700	234.66	-1.70	1.00	 	 	 	 	 	 	 	 	 	 	 	 	 	 	 	 	 	 	1581550163	7.49	13.87
12/02/2020 23:29:24	120220	12022020	232924	235.11	12.172850	-57.161220	235.16	0.460	-1.000	0.190	235.11	-2.50	0.50	 	 	 	 	 	 	 	 	 	 	 	 	 	 	 	 	 	 	1581550164	7.42	13.74
12/02/2020 23:29:25	120220	12022020	232925	235.44	12.172832	-57.161250	235.46	0.480	-1.480	-0.090	235.44	-2.90	0.30	 	 	 	 	 	 	 	 	 	 	 	 	 	 	 	 	 	 	1581550165	7.50	13.89
12/02/2020 23:29:26	120220	12022020	232926	235.62	12.172815	-57.161277	235.63	0.320	-1.400	-0.080	235.62	-2.70	0.40	 	 	 	 	 	 	 	 	 	 	 	 	 	 	 	 	 	 	1581550166	7.35	13.61
12/02/2020 23:29:27	120220	12022020	232927	235.59	12.172800	-57.161307	235.54	0.100	-1.120	0.330	235.55	-2.40	0.90	 	 	 	 	 	 	 	 	 	 	 	 	 	 	 	 	 	 	1581550167	6.95	12.87
12/02/2020 23:29:28	120220	12022020	232928	235.20	12.172783	-57.161337	235.18	-0.080	-0.830	0.970	235.20	-2.10	1.50	 	 	 	 	 	 	 	 	 	 	 	 	 	 	 	 	 	 	1581550168	6.94	12.85
12/02/2020 23:29:29	120220	12022020	232929	234.82	12.172768	-57.161368	234.81	-0.250	-0.380	1.580	234.82	-1.60	2.10	 	 	 	 	 	 	 	 	 	 	 	 	 	 	 	 	 	 	1581550169	7.31	13.54
12/02/2020 23:29:30	120220	12022020	232930	234.44	12.172753	-57.161400	234.44	-0.390	0.130	2.050	234.44	-1.20	2.50	 	 	 	 	 	 	 	 	 	 	 	 	 	 	 	 	 	 	1581550170	7.44	13.78
12/02/2020 23:29:31	120220	12022020	232931	234.03	12.172738	-57.161432	234.03	-0.450	0.420	2.410	234.03	-0.90	2.90	 	 	 	 	 	 	 	 	 	 	 	 	 	 	 	 	 	 	1581550171	7.45	13.80
12/02/2020 23:29:32	120220	12022020	232932	233.67	12.172722	-57.161465	233.69	-0.420	0.480	2.520	233.67	-0.90	2.90	 	 	 	 	 	 	 	 	 	 	 	 	 	 	 	 	 	 	1581550172	7.63	14.13
12/02/2020 23:29:33	120220	12022020	232933	233.68	12.172705	-57.161497	233.75	-0.380	0.540	2.150	233.68	-0.80	2.40	 	 	 	 	 	 	 	 	 	 	 	 	 	 	 	 	 	 	1581550173	7.83	14.50
12/02/2020 23:29:34	120220	12022020	232934	234.14	12.172687	-57.161527	234.22	-0.280	0.580	1.350	234.14	-0.80	1.50	 	 	 	 	 	 	 	 	 	 	 	 	 	 	 	 	 	 	1581550174	7.61	14.09
12/02/2020 23:29:35	120220	12022020	232935	234.81	12.172670	-57.161555	234.87	0.020	0.380	0.340	234.81	-1.10	0.50	 	 	 	 	 	 	 	 	 	 	 	 	 	 	 	 	 	 	1581550175	7.22	13.37
12/02/2020 23:29:36	120220	12022020	232936	235.33	12.172648	-57.161582	235.34	0.550	-0.310	-0.540	235.33	-1.90	-0.30	 	 	 	 	 	 	 	 	 	 	 	 	 	 	 	 	 	 	1581550176	7.03	13.02
12/02/2020 23:29:37	120220	12022020	232937	235.56	12.172627	-57.161610	235.54	0.930	-1.120	-0.850	235.56	-2.60	-0.40	 	 	 	 	 	 	 	 	 	 	 	 	 	 	 	 	 	 	1581550177	7.37	13.65
12/02/2020 23:29:38	120220	12022020	232938	235.55	12.172608	-57.161640	235.51	0.800	-1.510	-0.450	235.55	-2.90	0.10	 	 	 	 	 	 	 	 	 	 	 	 	 	 	 	 	 	 	1581550178	7.63	14.13
12/02/2020 23:29:39	120220	12022020	232939	235.37	12.172595	-57.161670	235.24	0.240	-1.310	0.490	235.30	-2.60	1.20	 	 	 	 	 	 	 	 	 	 	 	 	 	 	 	 	 	 	1581550179	7.41	13.72
12/02/2020 23:29:40	120220	12022020	232940	234.82	12.172583	-57.161702	234.79	-0.360	-0.690	1.660	234.82	-1.90	2.30	 	 	 	 	 	 	 	 	 	 	 	 	 	 	 	 	 	 	1581550180	7.11	13.17
12/02/2020 23:29:41	120220	12022020	232941	234.46	12.172572	-57.161733	234.39	-0.590	-0.000	2.590	234.39	-1.30	3.10	 	 	 	 	 	 	 	 	 	 	 	 	 	 	 	 	 	 	1581550181	7.05	13.06
12/02/2020 23:29:42	120220	12022020	232942	234.10	12.172558	-57.161767	234.15	-0.400	0.340	2.920	234.10	-1.00	3.30	 	 	 	 	 	 	 	 	 	 	 	 	 	 	 	 	 	 	1581550182	7.18	13.30
12/02/2020 23:29:43	120220	12022020	232943	234.04	12.172542	-57.161798	234.10	-0.090	0.230	2.620	234.04	-1.20	2.90	 	 	 	 	 	 	 	 	 	 	 	 	 	 	 	 	 	 	1581550183	7.40	13.70
12/02/2020 23:29:44	120220	12022020	232944	234.14	12.172522	-57.161828	234.19	0.050	-0.040	1.890	234.14	-1.50	2.10	 	 	 	 	 	 	 	 	 	 	 	 	 	 	 	 	 	 	1581550184	7.72	14.30
12/02/2020 23:29:45	120220	12022020	232945	234.29	12.172502	-57.161858	234.33	-0.010	-0.210	1.130	234.29	-1.60	1.40	 	 	 	 	 	 	 	 	 	 	 	 	 	 	 	 	 	 	1581550185	7.78	14.41
12/02/2020 23:29:46	120220	12022020	232946	234.48	12.172483	-57.161887	234.52	-0.100	-0.240	0.520	234.48	-1.60	0.80	 	 	 	 	 	 	 	 	 	 	 	 	 	 	 	 	 	 	1581550186	7.53	13.95
12/02/2020 23:29:47	120220	12022020	232947	234.74	12.172465	-57.161915	234.77	-0.130	-0.190	0.170	234.74	-1.60	0.50	 	 	 	 	 	 	 	 	 	 	 	 	 	 	 	 	 	 	1581550187	7.27	13.46
12/02/2020 23:29:48	120220	12022020	232948	234.95	12.172448	-57.161945	234.98	-0.080	-0.210	0.110	234.95	-1.60	0.50	 	 	 	 	 	 	 	 	 	 	 	 	 	 	 	 	 	 	1581550188	7.14	13.22
12/02/2020 23:29:49	120220	12022020	232949	235.09	12.172432	-57.161975	235.10	0.040	-0.330	0.240	235.09	-1.70	0.70	 	 	 	 	 	 	 	 	 	 	 	 	 	 	 	 	 	 	1581550189	7.17	13.28
12/02/2020 23:29:50	120220	12022020	232950	235.09	12.172415	-57.162005	235.08	0.110	-0.380	0.420	235.09	-1.70	0.90	 	 	 	 	 	 	 	 	 	 	 	 	 	 	 	 	 	 	1581550190	7.33	13.58
12/02/2020 23:29:51	120220	12022020	232951	234.95	12.172398	-57.162033	234.94	0.100	-0.260	0.650	234.95	-1.60	1.10	 	 	 	 	 	 	 	 	 	 	 	 	 	 	 	 	 	 	1581550191	7.30	13.52
12/02/2020 23:29:52	120220	12022020	232952	234.71	12.172382	-57.162063	234.70	0.080	-0.060	0.970	234.71	-1.40	1.50	 	 	 	 	 	 	 	 	 	 	 	 	 	 	 	 	 	 	1581550192	7.15	13.24
12/02/2020 23:29:53	120220	12022020	232953	234.52	12.172367	-57.162092	234.47	0.110	0.010	1.320	234.48	-1.40	1.80	 	 	 	 	 	 	 	 	 	 	 	 	 	 	 	 	 	 	1581550193	7.02	13.00
12/02/2020 23:29:54	120220	12022020	232954	234.32	12.172350	-57.162123	234.34	0.180	-0.140	1.590	234.32	-1.60	2.00	 	 	 	 	 	 	 	 	 	 	 	 	 	 	 	 	 	 	1581550194	7.10	13.15
12/02/2020 23:29:55	120220	12022020	232955	234.29	12.172335	-57.162155	234.33	0.200	-0.500	1.700	234.29	-2.00	2.10	 	 	 	 	 	 	 	 	 	 	 	 	 	 	 	 	 	 	1581550195	7.31	13.54
12/02/2020 23:29:56	120220	12022020	232956	234.24	12.172318	-57.162187	234.26	0.150	-0.940	1.710	234.24	-2.40	2.10	 	 	 	 	 	 	 	 	 	 	 	 	 	 	 	 	 	 	1581550196	7.56	14.00
12/02/2020 23:29:57	120220	12022020	232957	234.07	12.172300	-57.162220	234.08	-0.000	-1.170	1.640	234.07	-2.50	2.00	 	 	 	 	 	 	 	 	 	 	 	 	 	 	 	 	 	 	1581550197	7.75	14.35
12/02/2020 23:29:58	120220	12022020	232958	233.90	12.172283	-57.162250	233.92	-0.230	-0.900	1.410	233.90	-2.10	1.70	 	 	 	 	 	 	 	 	 	 	 	 	 	 	 	 	 	 	1581550198	7.73	14.32
12/02/2020 23:29:59	120220	12022020	232959	233.85	12.172267	-57.162278	233.87	-0.430	-0.200	1.010	233.85	-1.40	1.30	 	 	 	 	 	 	 	 	 	 	 	 	 	 	 	 	 	 	1581550199	7.41	13.72
12/02/2020 23:30:00	120220	12022020	233000	233.97	12.172248	-57.162305	233.99	-0.480	0.410	0.520	233.97	-0.90	0.80	 	 	 	 	 	 	 	 	 	 	 	 	 	 	 	 	 	 	1581550200	6.95	12.87
12/02/2020 23:30:01	120220	12022020	233001	234.18	12.172228	-57.162333	234.20	-0.320	0.610	0.180	234.18	-0.80	0.60	1015.50	26.40	26.60	20.90	20.90	-1.0	72.0	70.0	394.0	25.7	203.00	6.80	69.00	10.40	16	12948.0	27.5	27.5	1581550201	6.95	12.87
12/02/2020 23:30:02	120220	12022020	233002	234.38	12.172210	-57.162363	234.39	-0.040	0.490	0.180	234.38	-0.90	0.60	 	 	 	 	 	 	 	 	 	 	 	 	 	 	 	 	 	 	1581550202	7.25	13.43
12/02/2020 23:30:03	120220	12022020	233003	234.54	12.172192	-57.162393	234.54	0.200	0.270	0.430	234.54	-1.20	0.90	 	 	 	 	 	 	 	 	 	 	 	 	 	 	 	 	 	 	1581550203	7.51	13.91
12/02/2020 23:30:04	120220	12022020	233004	234.58	12.172177	-57.162425	234.58	0.300	0.040	0.810	234.58	-1.40	1.30	 	 	 	 	 	 	 	 	 	 	 	 	 	 	 	 	 	 	1581550204	7.51	13.91
12/02/2020 23:30:05	120220	12022020	233005	234.41	12.172162	-57.162455	234.39	0.330	-0.280	1.240	234.41	-1.70	1.70	 	 	 	 	 	 	 	 	 	 	 	 	 	 	 	 	 	 	1581550205	7.37	13.65
12/02/2020 23:30:06	120220	12022020	233006	234.15	12.172147	-57.162487	234.14	0.360	-0.650	1.610	234.15	-2.10	2.10	 	 	 	 	 	 	 	 	 	 	 	 	 	 	 	 	 	 	1581550206	7.32	13.56
12/02/2020 23:30:07	120220	12022020	233007	233.93	12.172130	-57.162517	233.95	0.330	-0.890	1.740	233.93	-2.30	2.10	 	 	 	 	 	 	 	 	 	 	 	 	 	 	 	 	 	 	1581550207	7.35	13.61
12/02/2020 23:30:08	120220	12022020	233008	233.83	12.172113	-57.162547	233.86	0.180	-0.990	1.570	233.83	-2.40	1.90	 	 	 	 	 	 	 	 	 	 	 	 	 	 	 	 	 	 	1581550208	7.29	13.50
12/02/2020 23:30:09	120220	12022020	233009	233.75	12.172095	-57.162575	233.76	-0.030	-1.080	1.290	233.75	-2.50	1.60	 	 	 	 	 	 	 	 	 	 	 	 	 	 	 	 	 	 	1581550209	7.19	13.32
12/02/2020 23:30:10	120220	12022020	233010	233.59	12.172077	-57.162605	233.59	-0.130	-1.110	1.150	233.59	-2.50	1.50	 	 	 	 	 	 	 	 	 	 	 	 	 	 	 	 	 	 	1581550210	7.32	13.56
12/02/2020 23:30:11	120220	12022020	233011	233.42	12.172058	-57.162637	233.43	-0.110	-0.770	1.130	233.42	-2.00	1.50	 	 	 	 	 	 	 	 	 	 	 	 	 	 	 	 	 	 	1581550211	7.59	14.06
12/02/2020 23:30:12	120220	12022020	233012	233.43	12.172040	-57.162665	233.45	-0.140	0.040	1.070	233.43	-1.10	1.40	 	 	 	 	 	 	 	 	 	 	 	 	 	 	 	 	 	 	1581550212	7.58	14.04
12/02/2020 23:30:13	120220	12022020	233013	233.60	12.172023	-57.162693	233.62	-0.280	0.790	0.960	233.60	-0.50	1.40	 	 	 	 	 	 	 	 	 	 	 	 	 	 	 	 	 	 	1581550213	7.19	13.32
12/02/2020 23:30:14	120220	12022020	233014	233.73	12.172007	-57.162723	233.74	-0.410	0.920	0.950	233.73	-0.50	1.40	 	 	 	 	 	 	 	 	 	 	 	 	 	 	 	 	 	 	1581550214	7.00	12.96
12/02/2020 23:30:15	120220	12022020	233015	233.81	12.171988	-57.162755	233.80	-0.420	0.550	1.040	233.81	-0.90	1.50	 	 	 	 	 	 	 	 	 	 	 	 	 	 	 	 	 	 	1581550215	7.38	13.67
12/02/2020 23:30:16	120220	12022020	233016	233.87	12.171970	-57.162788	233.88	-0.260	0.190	1.170	233.87	-1.20	1.60	 	 	 	 	 	 	 	 	 	 	 	 	 	 	 	 	 	 	1581550216	7.83	14.50
12/02/2020 23:30:17	120220	12022020	233017	233.96	12.171955	-57.162818	234.01	0.010	0.020	1.180	233.99	-1.40	1.60	 	 	 	 	 	 	 	 	 	 	 	 	 	 	 	 	 	 	1581550217	7.72	14.30
12/02/2020 23:30:18	120220	12022020	233018	234.09	12.171938	-57.162847	234.10	0.320	-0.260	1.010	234.09	-1.70	1.40	 	 	 	 	 	 	 	 	 	 	 	 	 	 	 	 	 	 	1581550218	7.22	13.37
12/02/2020 23:30:19	120220	12022020	233019	234.08	12.171918	-57.162875	234.05	0.600	-0.850	0.710	234.08	-2.40	1.10	 	 	 	 	 	 	 	 	 	 	 	 	 	 	 	 	 	 	1581550219	7.03	13.02
12/02/2020 23:30:20	120220	12022020	233020	233.88	12.171897	-57.162903	233.85	0.710	-1.560	0.540	233.88	-3.00	1.00	 	 	 	 	 	 	 	 	 	 	 	 	 	 	 	 	 	 	1581550220	7.29	13.50
12/02/2020 23:30:21	120220	12022020	233021	233.64	12.171877	-57.162933	233.61	0.490	-1.780	0.620	233.64	-3.10	1.10	 	 	 	 	 	 	 	 	 	 	 	 	 	 	 	 	 	 	1581550221	7.70	14.26
12/02/2020 23:30:22	120220	12022020	233022	233.46	12.171860	-57.162963	233.46	-0.050	-1.170	0.810	233.46	-2.30	1.30	 	 	 	 	 	 	 	 	 	 	 	 	 	 	 	 	 	 	1581550222	7.66	14.19
12/02/2020 23:30:23	120220	12022020	233023	233.41	12.171845	-57.162992	233.42	-0.540	-0.100	0.960	233.41	-1.30	1.40	 	 	 	 	 	 	 	 	 	 	 	 	 	 	 	 	 	 	1581550223	7.16	13.26
12/02/2020 23:30:24	120220	12022020	233024	233.41	12.171830	-57.163022	233.42	-0.660	0.680	1.140	233.41	-0.60	1.60	 	 	 	 	 	 	 	 	 	 	 	 	 	 	 	 	 	 	1581550224	6.81	12.61
12/02/2020 23:30:25	120220	12022020	233025	233.42	12.171813	-57.163053	233.43	-0.390	0.860	1.370	233.42	-0.60	1.80	 	 	 	 	 	 	 	 	 	 	 	 	 	 	 	 	 	 	1581550225	7.04	13.04
12/02/2020 23:30:26	120220	12022020	233026	233.40	12.171797	-57.163087	233.41	0.000	0.520	1.590	233.40	-1.00	2.00	 	 	 	 	 	 	 	 	 	 	 	 	 	 	 	 	 	 	1581550226	7.60	14.08
12/02/2020 23:30:27	120220	12022020	233027	233.35	12.171778	-57.163120	233.37	0.200	0.030	1.750	233.35	-1.40	2.10	 	 	 	 	 	 	 	 	 	 	 	 	 	 	 	 	 	 	1581550227	8.01	14.83
12/02/2020 23:30:28	120220	12022020	233028	233.40	12.171762	-57.163152	233.43	0.160	-0.210	1.610	233.40	-1.60	1.90	 	 	 	 	 	 	 	 	 	 	 	 	 	 	 	 	 	 	1581550228	8.03	14.87
12/02/2020 23:30:29	120220	12022020	233029	233.48	12.171743	-57.163180	233.51	0.040	-0.210	1.170	233.49	-1.60	1.40	 	 	 	 	 	 	 	 	 	 	 	 	 	 	 	 	 	 	1581550229	7.61	14.09
12/02/2020 23:30:30	120220	12022020	233030	233.64	12.171725	-57.163207	233.66	0.040	-0.200	0.490	233.64	-1.60	0.70	 	 	 	 	 	 	 	 	 	 	 	 	 	 	 	 	 	 	1581550230	7.12	13.19
12/02/2020 23:30:31	120220	12022020	233031	233.87	12.171703	-57.163232	233.97	0.200	-0.270	-0.300	233.94	-1.70	-0.10	 	 	 	 	 	 	 	 	 	 	 	 	 	 	 	 	 	 	1581550231	6.95	12.87
12/02/2020 23:30:32	120220	12022020	233032	234.31	12.171683	-57.163257	234.30	0.350	-0.550	-0.800	234.31	-2.00	-0.40	 	 	 	 	 	 	 	 	 	 	 	 	 	 	 	 	 	 	1581550232	6.99	12.95
12/02/2020 23:30:33	120220	12022020	233033	234.38	12.171663	-57.163287	234.33	0.360	-1.010	-0.470	234.38	-2.50	0.10	 	 	 	 	 	 	 	 	 	 	 	 	 	 	 	 	 	 	1581550233	7.18	13.30
12/02/2020 23:30:34	120220	12022020	233034	234.16	12.171647	-57.163318	234.11	0.170	-1.260	0.470	234.16	-2.60	1.10	 	 	 	 	 	 	 	 	 	 	 	 	 	 	 	 	 	 	1581550234	7.51	13.91
12/02/2020 23:30:35	120220	12022020	233035	233.85	12.171633	-57.163352	233.82	-0.140	-1.040	1.510	233.85	-2.30	2.10	 	 	 	 	 	 	 	 	 	 	 	 	 	 	 	 	 	 	1581550235	7.70	14.26
12/02/2020 23:30:36	120220	12022020	233036	233.47	12.171620	-57.163385	233.46	-0.370	-0.590	2.280	233.47	-1.90	2.80	 	 	 	 	 	 	 	 	 	 	 	 	 	 	 	 	 	 	1581550236	7.59	14.06
12/02/2020 23:30:37	120220	12022020	233037	233.12	12.171603	-57.163417	233.14	-0.410	-0.200	2.500	233.12	-1.50	2.90	 	 	 	 	 	 	 	 	 	 	 	 	 	 	 	 	 	 	1581550237	7.50	13.89
12/02/2020 23:30:38	120220	12022020	233038	232.81	12.171583	-57.163447	232.81	-0.370	0.020	2.380	232.81	-1.30	2.70	 	 	 	 	 	 	 	 	 	 	 	 	 	 	 	 	 	 	1581550238	7.54	13.96
12/02/2020 23:30:39	120220	12022020	233039	232.49	12.171565	-57.163478	232.49	-0.360	0.180	2.080	232.49	-1.20	2.40	 	 	 	 	 	 	 	 	 	 	 	 	 	 	 	 	 	 	1581550239	7.72	14.30
12/02/2020 23:30:40	120220	12022020	233040	232.40	12.171545	-57.163508	232.43	-0.410	0.400	1.620	232.40	-0.90	1.90	 	 	 	 	 	 	 	 	 	 	 	 	 	 	 	 	 	 	1581550240	7.80	14.45
12/02/2020 23:30:41	120220	12022020	233041	232.74	12.171527	-57.163538	232.82	-0.370	0.650	0.960	232.74	-0.70	1.20	 	 	 	 	 	 	 	 	 	 	 	 	 	 	 	 	 	 	1581550241	7.60	14.08
12/02/2020 23:30:42	120220	12022020	233042	233.43	12.171508	-57.163565	233.51	-0.120	0.760	0.150	233.43	-0.60	0.40	 	 	 	 	 	 	 	 	 	 	 	 	 	 	 	 	 	 	1581550242	7.27	13.46
12/02/2020 23:30:43	120220	12022020	233043	234.03	12.171488	-57.163592	234.19	0.280	0.640	-0.510	234.15	-0.80	-0.20	 	 	 	 	 	 	 	 	 	 	 	 	 	 	 	 	 	 	1581550243	7.09	13.13
12/02/2020 23:30:44	120220	12022020	233044	234.60	12.171470	-57.163618	234.60	0.690	0.270	-0.680	234.60	-1.20	-0.20	 	 	 	 	 	 	 	 	 	 	 	 	 	 	 	 	 	 	1581550244	7.06	13.08
12/02/2020 23:30:45	120220	12022020	233045	234.75	12.171452	-57.163647	234.72	0.960	-0.370	-0.320	234.76	-1.90	0.30	 	 	 	 	 	 	 	 	 	 	 	 	 	 	 	 	 	 	1581550245	7.06	13.08
12/02/2020 23:30:46	120220	12022020	233046	234.57	12.171433	-57.163678	234.51	1.010	-1.280	0.520	234.57	-2.90	1.20	 	 	 	 	 	 	 	 	 	 	 	 	 	 	 	 	 	 	1581550246	7.18	13.30
12/02/2020 23:30:47	120220	12022020	233047	234.08	12.171417	-57.163710	234.04	0.780	-2.100	1.570	234.08	-3.60	2.20	 	 	 	 	 	 	 	 	 	 	 	 	 	 	 	 	 	 	1581550247	7.49	13.87
12/02/2020 23:30:48	120220	12022020	233048	233.48	12.171402	-57.163743	233.46	0.280	-2.330	2.490	233.48	-3.60	3.00	 	 	 	 	 	 	 	 	 	 	 	 	 	 	 	 	 	 	1581550248	7.83	14.50
12/02/2020 23:30:49	120220	12022020	233049	232.94	12.171387	-57.163777	232.95	-0.350	-1.850	3.000	232.94	-3.00	3.40	 	 	 	 	 	 	 	 	 	 	 	 	 	 	 	 	 	 	1581550249	7.80	14.45
12/02/2020 23:30:50	120220	12022020	233050	232.59	12.171373	-57.163808	232.63	-0.880	-0.940	3.040	232.59	-2.10	3.40	 	 	 	 	 	 	 	 	 	 	 	 	 	 	 	 	 	 	1581550250	7.56	14.00
12/02/2020 23:30:51	120220	12022020	233051	232.56	12.171357	-57.163840	232.64	-1.100	0.060	2.570	232.56	-1.10	2.80	 	 	 	 	 	 	 	 	 	 	 	 	 	 	 	 	 	 	1581550251	7.42	13.74
12/02/2020 23:30:52	120220	12022020	233052	232.98	12.171337	-57.163868	233.09	-1.030	0.900	1.700	232.98	-0.30	1.90	 	 	 	 	 	 	 	 	 	 	 	 	 	 	 	 	 	 	1581550252	7.43	13.76
12/02/2020 23:30:53	120220	12022020	233053	233.72	12.171315	-57.163897	233.83	-0.770	1.350	0.760	233.72	0.00	1.00	 	 	 	 	 	 	 	 	 	 	 	 	 	 	 	 	 	 	1581550253	7.49	13.87
12/02/2020 23:30:54	120220	12022020	233054	234.51	12.171293	-57.163925	234.59	-0.410	1.380	0.000	234.51	-0.00	0.30	 	 	 	 	 	 	 	 	 	 	 	 	 	 	 	 	 	 	1581550254	7.63	14.13
12/02/2020 23:30:55	120220	12022020	233055	235.03	12.171272	-57.163955	235.06	0.060	1.170	-0.370	235.03	-0.30	0.00	 	 	 	 	 	 	 	 	 	 	 	 	 	 	 	 	 	 	1581550255	7.73	14.32
12/02/2020 23:30:56	120220	12022020	233056	235.07	12.171252	-57.163983	235.04	0.560	0.770	-0.200	235.07	-0.70	0.30	 	 	 	 	 	 	 	 	 	 	 	 	 	 	 	 	 	 	1581550256	7.58	14.04
12/02/2020 23:30:57	120220	12022020	233057	234.72	12.171235	-57.164012	234.68	0.910	0.150	0.280	234.72	-1.40	0.80	 	 	 	 	 	 	 	 	 	 	 	 	 	 	 	 	 	 	1581550257	7.36	13.63
12/02/2020 23:30:58	120220	12022020	233058	234.22	12.171218	-57.164042	234.20	1.020	-0.580	0.860	234.22	-2.10	1.40	 	 	 	 	 	 	 	 	 	 	 	 	 	 	 	 	 	 	1581550258	7.24	13.41
12/02/2020 23:30:59	120220	12022020	233059	233.86	12.171203	-57.164072	233.87	0.920	-1.250	1.250	233.86	-2.70	1.70	 	 	 	 	 	 	 	 	 	 	 	 	 	 	 	 	 	 	1581550259	7.23	13.39
12/02/2020 23:31:00	120220	12022020	233100	233.79	12.171188	-57.164102	233.83	0.700	-1.780	1.340	233.79	-3.20	1.70	 	 	 	 	 	 	 	 	 	 	 	 	 	 	 	 	 	 	1581550260	7.17	13.28
12/02/2020 23:31:01	120220	12022020	233101	233.83	12.171172	-57.164132	233.89	0.400	-2.160	1.340	233.83	-3.60	1.80	1015.50	26.30	26.50	20.80	20.80	-1.0	71.0	71.0	393.0	25.7	206.00	7.30	71.00	10.90	16	12041.0	27.5	27.5	1581550261	7.15	13.24
12/02/2020 23:31:02	120220	12022020	233102	233.82	12.171153	-57.164163	233.86	0.040	-2.200	1.430	233.82	-3.50	1.90	 	 	 	 	 	 	 	 	 	 	 	 	 	 	 	 	 	 	1581550262	7.35	13.61
12/02/2020 23:31:03	120220	12022020	233103	233.75	12.171135	-57.164195	233.79	-0.360	-1.740	1.500	233.75	-2.90	1.90	 	 	 	 	 	 	 	 	 	 	 	 	 	 	 	 	 	 	1581550263	7.59	14.06
12/02/2020 23:31:04	120220	12022020	233104	233.69	12.171117	-57.164225	233.74	-0.730	-0.860	1.450	233.69	-2.00	1.80	 	 	 	 	 	 	 	 	 	 	 	 	 	 	 	 	 	 	1581550264	7.65	14.17
12/02/2020 23:31:05	120220	12022020	233105	233.71	12.171098	-57.164257	233.76	-1.030	0.280	1.280	233.71	-0.80	1.60	 	 	 	 	 	 	 	 	 	 	 	 	 	 	 	 	 	 	1581550265	7.66	14.19
12/02/2020 23:31:06	120220	12022020	233106	233.82	12.171080	-57.164287	233.88	-1.180	1.420	1.010	233.82	0.30	1.40	 	 	 	 	 	 	 	 	 	 	 	 	 	 	 	 	 	 	1581550266	7.62	14.11
12/02/2020 23:31:07	120220	12022020	233107	233.99	12.171062	-57.164317	234.09	-1.060	2.130	0.720	234.04	0.80	1.10	 	 	 	 	 	 	 	 	 	 	 	 	 	 	 	 	 	 	1581550267	7.49	13.87
12/02/2020 23:31:08	120220	12022020	233108	234.32	12.171042	-57.164347	234.36	-0.560	2.200	0.450	234.32	0.70	0.80	 	 	 	 	 	 	 	 	 	 	 	 	 	 	 	 	 	 	1581550268	7.50	13.89
12/02/2020 23:31:09	120220	12022020	233109	234.54	12.171022	-57.164377	234.56	0.200	1.600	0.270	234.54	-0.00	0.70	 	 	 	 	 	 	 	 	 	 	 	 	 	 	 	 	 	 	1581550269	7.58	14.04
12/02/2020 23:31:10	120220	12022020	233110	234.64	12.171002	-57.164407	234.64	0.890	0.420	0.300	234.64	-1.30	0.80	 	 	 	 	 	 	 	 	 	 	 	 	 	 	 	 	 	 	1581550270	7.62	14.11
12/02/2020 23:31:11	120220	12022020	233111	234.61	12.170983	-57.164437	234.60	1.270	-0.980	0.590	234.61	-2.60	1.10	 	 	 	 	 	 	 	 	 	 	 	 	 	 	 	 	 	 	1581550271	7.71	14.28
12/02/2020 23:31:12	120220	12022020	233112	234.44	12.170965	-57.164468	234.43	1.250	-2.100	1.010	234.44	-3.60	1.50	 	 	 	 	 	 	 	 	 	 	 	 	 	 	 	 	 	 	1581550272	7.67	14.20
12/02/2020 23:31:13	120220	12022020	233113	234.22	12.170950	-57.164498	234.23	0.920	-2.620	1.370	234.22	-4.00	1.80	 	 	 	 	 	 	 	 	 	 	 	 	 	 	 	 	 	 	1581550273	7.53	13.95
12/02/2020 23:31:14	120220	12022020	233114	234.12	12.170935	-57.164528	234.15	0.430	-2.410	1.580	234.12	-3.60	2.00	 	 	 	 	 	 	 	 	 	 	 	 	 	 	 	 	 	 	1581550274	7.30	13.52
12/02/2020 23:31:15	120220	12022020	233115	234.09	12.170918	-57.164557	234.12	-0.100	-1.640	1.650	234.09	-2.80	2.10	 	 	 	 	 	 	 	 	 	 	 	 	 	 	 	 	 	 	1581550275	7.09	13.13
12/02/2020 23:31:16	120220	12022020	233116	233.98	12.170902	-57.164587	234.01	-0.530	-0.700	1.710	233.98	-1.90	2.10	 	 	 	 	 	 	 	 	 	 	 	 	 	 	 	 	 	 	1581550276	6.99	12.95
12/02/2020 23:31:17	120220	12022020	233117	233.93	12.170885	-57.164618	233.97	-0.820	0.210	1.720	233.93	-1.00	2.10	 	 	 	 	 	 	 	 	 	 	 	 	 	 	 	 	 	 	1581550277	7.22	13.37
12/02/2020 23:31:18	120220	12022020	233118	233.93	12.170867	-57.164650	233.97	-0.910	0.900	1.700	233.93	-0.30	2.10	 	 	 	 	 	 	 	 	 	 	 	 	 	 	 	 	 	 	1581550278	7.54	13.96
12/02/2020 23:31:19	120220	12022020	233119	234.00	12.170848	-57.164682	234.11	-0.760	1.310	1.510	234.05	-0.00	1.80	 	 	 	 	 	 	 	 	 	 	 	 	 	 	 	 	 	 	1581550279	7.76	14.37
12/02/2020 23:31:20	120220	12022020	233120	234.40	12.170828	-57.164713	234.49	-0.420	1.380	1.040	234.40	-0.00	1.30	 	 	 	 	 	 	 	 	 	 	 	 	 	 	 	 	 	 	1581550280	7.84	14.52
12/02/2020 23:31:21	120220	12022020	233121	234.81	12.170808	-57.164742	234.98	0.030	1.020	0.420	234.91	-0.50	0.70	 	 	 	 	 	 	 	 	 	 	 	 	 	 	 	 	 	 	1581550281	7.76	14.37
12/02/2020 23:31:22	120220	12022020	233122	235.36	12.170788	-57.164772	235.40	0.460	0.240	-0.060	235.36	-1.30	0.30	 	 	 	 	 	 	 	 	 	 	 	 	 	 	 	 	 	 	1581550282	7.68	14.22
12/02/2020 23:31:23	120220	12022020	233123	235.56	12.170768	-57.164802	235.57	0.730	-0.650	-0.160	235.56	-2.20	0.30	 	 	 	 	 	 	 	 	 	 	 	 	 	 	 	 	 	 	1581550283	7.72	14.30
12/02/2020 23:31:24	120220	12022020	233124	235.53	12.170750	-57.164832	235.52	0.710	-1.190	0.090	235.53	-2.60	0.60	 	 	 	 	 	 	 	 	 	 	 	 	 	 	 	 	 	 	1581550284	7.70	14.26
12/02/2020 23:31:25	120220	12022020	233125	235.31	12.170733	-57.164860	235.30	0.440	-1.300	0.580	235.31	-2.60	1.10	 	 	 	 	 	 	 	 	 	 	 	 	 	 	 	 	 	 	1581550285	7.40	13.70
12/02/2020 23:31:26	120220	12022020	233126	235.00	12.170718	-57.164890	235.01	0.140	-1.130	1.140	235.00	-2.40	1.70	 	 	 	 	 	 	 	 	 	 	 	 	 	 	 	 	 	 	1581550286	7.06	13.08
12/02/2020 23:31:27	120220	12022020	233127	234.75	12.170703	-57.164920	234.80	-0.030	-0.830	1.600	234.75	-2.10	2.10	 	 	 	 	 	 	 	 	 	 	 	 	 	 	 	 	 	 	1581550287	7.00	12.96
12/02/2020 23:31:28	120220	12022020	233128	234.67	12.170688	-57.164952	234.74	-0.060	-0.570	1.770	234.67	-1.90	2.20	 	 	 	 	 	 	 	 	 	 	 	 	 	 	 	 	 	 	1581550288	7.15	13.24
12/02/2020 23:31:29	120220	12022020	233129	234.78	12.170672	-57.164983	234.88	-0.020	-0.350	1.660	234.78	-1.70	2.00	 	 	 	 	 	 	 	 	 	 	 	 	 	 	 	 	 	 	1581550289	7.42	13.74
12/02/2020 23:31:30	120220	12022020	233130	235.07	12.170655	-57.165015	235.17	-0.030	-0.140	1.320	235.07	-1.50	1.60	 	 	 	 	 	 	 	 	 	 	 	 	 	 	 	 	 	 	1581550290	7.59	14.06
12/02/2020 23:31:31	120220	12022020	233131	235.40	12.170637	-57.165045	235.50	-0.150	0.070	0.830	235.40	-1.30	1.10	 	 	 	 	 	 	 	 	 	 	 	 	 	 	 	 	 	 	1581550291	7.63	14.13
12/02/2020 23:31:32	120220	12022020	233132	235.64	12.170617	-57.165075	235.70	-0.300	0.220	0.340	235.64	-1.10	0.70	 	 	 	 	 	 	 	 	 	 	 	 	 	 	 	 	 	 	1581550292	7.55	13.98
12/02/2020 23:31:33	120220	12022020	233133	235.70	12.170597	-57.165105	235.75	-0.370	0.180	0.060	235.71	-1.20	0.40	 	 	 	 	 	 	 	 	 	 	 	 	 	 	 	 	 	 	1581550293	7.51	13.91
12/02/2020 23:31:34	120220	12022020	233134	235.68	12.170577	-57.165135	235.71	-0.280	0.070	-0.010	235.68	-1.30	0.40	 	 	 	 	 	 	 	 	 	 	 	 	 	 	 	 	 	 	1581550294	7.60	14.08
12/02/2020 23:31:35	120220	12022020	233135	235.62	12.170560	-57.165165	235.64	-0.080	-0.000	0.140	235.61	-1.40	0.60	 	 	 	 	 	 	 	 	 	 	 	 	 	 	 	 	 	 	1581550295	7.63	14.13
12/02/2020 23:31:36	120220	12022020	233136	235.57	12.170543	-57.165197	235.62	0.120	-0.070	0.450	235.57	-1.50	0.90	 	 	 	 	 	 	 	 	 	 	 	 	 	 	 	 	 	 	1581550296	7.53	13.95
12/02/2020 23:31:37	120220	12022020	233137	235.71	12.170527	-57.165227	235.78	0.240	-0.200	0.760	235.71	-1.60	1.20	 	 	 	 	 	 	 	 	 	 	 	 	 	 	 	 	 	 	1581550297	7.41	13.72
12/02/2020 23:31:38	120220	12022020	233138	235.93	12.170512	-57.165258	236.00	0.270	-0.460	0.900	235.93	-1.90	1.30	 	 	 	 	 	 	 	 	 	 	 	 	 	 	 	 	 	 	1581550298	7.37	13.65
12/02/2020 23:31:39	120220	12022020	233139	235.98	12.170495	-57.165290	236.01	0.320	-0.780	0.930	235.98	-2.20	1.30	 	 	 	 	 	 	 	 	 	 	 	 	 	 	 	 	 	 	1581550299	7.40	13.70
12/02/2020 23:31:40	120220	12022020	233140	235.75	12.170477	-57.165320	235.77	0.390	-0.980	0.990	235.75	-2.30	1.40	 	 	 	 	 	 	 	 	 	 	 	 	 	 	 	 	 	 	1581550300	7.49	13.87
12/02/2020 23:31:41	120220	12022020	233141	235.48	12.170458	-57.165350	235.51	0.280	-0.820	1.070	235.48	-2.10	1.50	 	 	 	 	 	 	 	 	 	 	 	 	 	 	 	 	 	 	1581550301	7.57	14.02
12/02/2020 23:31:42	120220	12022020	233142	235.34	12.170442	-57.165380	235.40	-0.070	-0.350	1.180	235.34	-1.60	1.60	 	 	 	 	 	 	 	 	 	 	 	 	 	 	 	 	 	 	1581550302	7.46	13.82
12/02/2020 23:31:43	120220	12022020	233143	235.36	12.170427	-57.165410	235.44	-0.470	0.120	1.240	235.36	-1.20	1.60	 	 	 	 	 	 	 	 	 	 	 	 	 	 	 	 	 	 	1581550303	7.25	13.43
12/02/2020 23:31:44	120220	12022020	233144	235.48	12.170412	-57.165443	235.56	-0.600	0.260	1.130	235.48	-1.10	1.50	 	 	 	 	 	 	 	 	 	 	 	 	 	 	 	 	 	 	1581550304	7.26	13.45
12/02/2020 23:31:45	120220	12022020	233145	235.67	12.170393	-57.165475	235.75	-0.350	0.090	0.750	235.67	-1.30	1.00	 	 	 	 	 	 	 	 	 	 	 	 	 	 	 	 	 	 	1581550305	7.52	13.93
12/02/2020 23:31:46	120220	12022020	233146	235.91	12.170375	-57.165507	235.98	0.060	-0.160	0.270	235.91	-1.60	0.60	 	 	 	 	 	 	 	 	 	 	 	 	 	 	 	 	 	 	1581550306	7.78	14.41
12/02/2020 23:31:47	120220	12022020	233147	236.15	12.170355	-57.165537	236.21	0.310	-0.260	-0.060	236.15	-1.60	0.30	 	 	 	 	 	 	 	 	 	 	 	 	 	 	 	 	 	 	1581550307	7.81	14.46
12/02/2020 23:31:48	120220	12022020	233148	236.26	12.170338	-57.165565	236.29	0.330	-0.320	-0.030	236.26	-1.70	0.40	 	 	 	 	 	 	 	 	 	 	 	 	 	 	 	 	 	 	1581550308	7.53	13.95
12/02/2020 23:31:49	120220	12022020	233149	236.16	12.170320	-57.165597	236.18	0.210	-0.360	0.310	236.16	-1.70	0.80	 	 	 	 	 	 	 	 	 	 	 	 	 	 	 	 	 	 	1581550309	7.34	13.59
12/02/2020 23:31:50	120220	12022020	233150	236.06	12.170305	-57.165627	236.10	0.050	-0.260	0.660	236.06	-1.60	1.10	 	 	 	 	 	 	 	 	 	 	 	 	 	 	 	 	 	 	1581550310	7.41	13.72
12/02/2020 23:31:51	120220	12022020	233151	236.03	12.170288	-57.165657	236.07	-0.050	-0.150	0.960	236.03	-1.50	1.40	 	 	 	 	 	 	 	 	 	 	 	 	 	 	 	 	 	 	1581550311	7.35	13.61
12/02/2020 23:31:52	120220	12022020	233152	236.00	12.170273	-57.165688	236.03	-0.050	-0.240	1.120	236.00	-1.70	1.50	 	 	 	 	 	 	 	 	 	 	 	 	 	 	 	 	 	 	1581550312	7.28	13.48
12/02/2020 23:31:53	120220	12022020	233153	235.83	12.170255	-57.165720	235.85	0.000	-0.630	1.190	235.83	-2.10	1.60	 	 	 	 	 	 	 	 	 	 	 	 	 	 	 	 	 	 	1581550313	7.44	13.78
12/02/2020 23:31:54	120220	12022020	233154	235.54	12.170237	-57.165753	235.55	-0.010	-0.970	1.240	235.54	-2.30	1.60	 	 	 	 	 	 	 	 	 	 	 	 	 	 	 	 	 	 	1581550314	7.78	14.41
12/02/2020 23:31:55	120220	12022020	233155	235.35	12.170218	-57.165785	235.40	-0.130	-0.740	1.160	235.35	-1.90	1.50	 	 	 	 	 	 	 	 	 	 	 	 	 	 	 	 	 	 	1581550315	7.98	14.78
12/02/2020 23:31:56	120220	12022020	233156	235.47	12.170203	-57.165813	235.55	-0.290	0.060	0.910	235.47	-1.10	1.20	 	 	 	 	 	 	 	 	 	 	 	 	 	 	 	 	 	 	1581550316	7.62	14.11
12/02/2020 23:31:57	120220	12022020	233157	235.67	12.170187	-57.165840	235.79	-0.320	0.660	0.720	235.71	-0.70	1.10	 	 	 	 	 	 	 	 	 	 	 	 	 	 	 	 	 	 	1581550317	6.96	12.89
12/02/2020 23:31:58	120220	12022020	233158	235.81	12.170170	-57.165872	235.86	-0.120	0.470	0.700	235.81	-1.00	1.10	 	 	 	 	 	 	 	 	 	 	 	 	 	 	 	 	 	 	1581550318	6.82	12.63
12/02/2020 23:31:59	120220	12022020	233159	235.72	12.170152	-57.165905	235.76	0.180	-0.200	0.840	235.72	-1.70	1.30	 	 	 	 	 	 	 	 	 	 	 	 	 	 	 	 	 	 	1581550319	7.50	13.89
12/02/2020 23:32:00	120220	12022020	233200	235.57	12.170133	-57.165938	235.62	0.320	-0.650	1.020	235.57	-2.10	1.40	 	 	 	 	 	 	 	 	 	 	 	 	 	 	 	 	 	 	1581550320	8.09	14.98
12/02/2020 23:32:01	120220	12022020	233201	235.42	12.170117	-57.165968	235.47	0.230	-0.690	1.080	235.42	-2.00	1.50	1015.60	26.40	26.80	20.90	21.20	-1.0	72.0	71.0	393.0	25.7	195.00	6.80	65.00	10.60	16	11395.0	27.5	27.4	1581550321	7.95	14.72
12/02/2020 23:32:02	120220	12022020	233202	235.27	12.170102	-57.165998	235.31	0.070	-0.570	1.050	235.27	-1.90	1.40	 	 	 	 	 	 	 	 	 	 	 	 	 	 	 	 	 	 	1581550322	7.44	13.78
12/02/2020 23:32:03	120220	12022020	233203	235.28	12.170085	-57.166028	235.37	-0.030	-0.450	0.860	235.28	-1.80	1.20	 	 	 	 	 	 	 	 	 	 	 	 	 	 	 	 	 	 	1581550323	7.24	13.41
12/02/2020 23:32:04	120220	12022020	233204	235.58	12.170067	-57.166058	235.67	-0.050	-0.310	0.480	235.58	-1.60	0.80	 	 	 	 	 	 	 	 	 	 	 	 	 	 	 	 	 	 	1581550324	7.33	13.58
12/02/2020 23:32:05	120220	12022020	233205	236.05	12.170047	-57.166087	236.14	-0.070	-0.130	0.070	236.05	-1.50	0.40	 	 	 	 	 	 	 	 	 	 	 	 	 	 	 	 	 	 	1581550325	7.37	13.65
12/02/2020 23:32:06	120220	12022020	233206	236.48	12.170027	-57.166115	236.55	-0.130	-0.060	-0.060	236.48	-1.40	0.40	 	 	 	 	 	 	 	 	 	 	 	 	 	 	 	 	 	 	1581550326	7.32	13.56
12/02/2020 23:32:07	120220	12022020	233207	236.59	12.170010	-57.166147	236.63	-0.200	-0.230	0.350	236.59	-1.70	0.90	 	 	 	 	 	 	 	 	 	 	 	 	 	 	 	 	 	 	1581550327	7.38	13.67
12/02/2020 23:32:08	120220	12022020	233208	236.22	12.169993	-57.166180	236.22	-0.160	-0.580	1.150	236.22	-2.00	1.70	 	 	 	 	 	 	 	 	 	 	 	 	 	 	 	 	 	 	1581550328	7.60	14.08
12/02/2020 23:32:09	120220	12022020	233209	235.61	12.169977	-57.166215	235.62	-0.080	-0.700	1.870	235.61	-2.00	2.40	 	 	 	 	 	 	 	 	 	 	 	 	 	 	 	 	 	 	1581550329	7.98	14.78
12/02/2020 23:32:10	120220	12022020	233210	235.21	12.169962	-57.166247	235.26	-0.100	-0.290	2.180	235.21	-1.50	2.60	 	 	 	 	 	 	 	 	 	 	 	 	 	 	 	 	 	 	1581550330	8.02	14.85
12/02/2020 23:32:11	120220	12022020	233211	235.16	12.169948	-57.166277	235.27	-0.180	0.400	1.930	235.19	-0.80	2.20	 	 	 	 	 	 	 	 	 	 	 	 	 	 	 	 	 	 	1581550331	7.53	13.95
12/02/2020 23:32:12	120220	12022020	233212	235.46	12.169932	-57.166305	235.54	-0.140	0.620	1.270	235.46	-0.80	1.50	 	 	 	 	 	 	 	 	 	 	 	 	 	 	 	 	 	 	1581550332	6.92	12.82
12/02/2020 23:32:13	120220	12022020	233213	235.76	12.169912	-57.166335	235.80	0.140	0.020	0.600	235.76	-1.50	0.90	 	 	 	 	 	 	 	 	 	 	 	 	 	 	 	 	 	 	1581550333	6.94	12.85
12/02/2020 23:32:14	120220	12022020	233214	235.97	12.169892	-57.166367	236.00	0.410	-0.810	0.210	235.97	-2.30	0.60	 	 	 	 	 	 	 	 	 	 	 	 	 	 	 	 	 	 	1581550334	7.67	14.20
12/02/2020 23:32:15	120220	12022020	233215	236.12	12.169873	-57.166398	236.16	0.430	-1.110	0.070	236.12	-2.40	0.40	 	 	 	 	 	 	 	 	 	 	 	 	 	 	 	 	 	 	1581550335	8.12	15.04
12/02/2020 23:32:16	120220	12022020	233216	236.34	12.169858	-57.166428	236.40	0.220	-0.650	-0.020	236.34	-1.90	0.40	 	 	 	 	 	 	 	 	 	 	 	 	 	 	 	 	 	 	1581550336	7.79	14.43
12/02/2020 23:32:17	120220	12022020	233217	236.68	12.169842	-57.166457	236.74	0.000	0.020	-0.110	236.68	-1.20	0.30	 	 	 	 	 	 	 	 	 	 	 	 	 	 	 	 	 	 	1581550337	7.10	13.15
12/02/2020 23:32:18	120220	12022020	233218	236.98	12.169825	-57.166485	237.03	-0.080	0.240	-0.130	236.98	-1.20	0.30	 	 	 	 	 	 	 	 	 	 	 	 	 	 	 	 	 	 	1581550338	6.75	12.50
12/02/2020 23:32:19	120220	12022020	233219	237.09	12.169807	-57.166517	237.12	-0.040	-0.050	0.070	237.09	-1.50	0.60	 	 	 	 	 	 	 	 	 	 	 	 	 	 	 	 	 	 	1581550339	7.14	13.22
12/02/2020 23:32:20	120220	12022020	233220	236.92	12.169788	-57.166548	236.94	-0.050	-0.480	0.580	236.92	-1.90	1.10	 	 	 	 	 	 	 	 	 	 	 	 	 	 	 	 	 	 	1581550340	7.74	14.33
12/02/2020 23:32:21	120220	12022020	233221	236.50	12.169772	-57.166582	236.52	-0.170	-0.720	1.340	236.50	-2.10	1.90	 	 	 	 	 	 	 	 	 	 	 	 	 	 	 	 	 	 	1581550341	8.00	14.82
12/02/2020 23:32:22	120220	12022020	233222	235.99	12.169758	-57.166617	236.02	-0.280	-0.680	2.000	235.99	-2.00	2.50	 	 	 	 	 	 	 	 	 	 	 	 	 	 	 	 	 	 	1581550342	7.89	14.61
12/02/2020 23:32:23	120220	12022020	233223	235.65	12.169743	-57.166648	235.64	-0.270	-0.570	2.260	235.59	-1.90	2.60	 	 	 	 	 	 	 	 	 	 	 	 	 	 	 	 	 	 	1581550343	7.67	14.20
12/02/2020 23:32:24	120220	12022020	233224	235.38	12.169727	-57.166682	235.44	-0.170	-0.520	2.100	235.38	-1.90	2.40	 	 	 	 	 	 	 	 	 	 	 	 	 	 	 	 	 	 	1581550344	7.57	14.02
12/02/2020 23:32:25	120220	12022020	233225	235.36	12.169710	-57.166713	235.44	-0.090	-0.470	1.670	235.36	-1.80	1.90	 	 	 	 	 	 	 	 	 	 	 	 	 	 	 	 	 	 	1581550345	7.66	14.19
12/02/2020 23:32:26	120220	12022020	233226	235.58	12.169692	-57.166743	235.68	-0.150	-0.200	0.990	235.58	-1.50	1.20	 	 	 	 	 	 	 	 	 	 	 	 	 	 	 	 	 	 	1581550346	7.74	14.33
12/02/2020 23:32:27	120220	12022020	233227	236.09	12.169673	-57.166772	236.21	-0.290	0.330	0.160	236.09	-0.90	0.40	 	 	 	 	 	 	 	 	 	 	 	 	 	 	 	 	 	 	1581550347	7.62	14.11
12/02/2020 23:32:28	120220	12022020	233228	236.79	12.169655	-57.166800	236.90	-0.340	0.840	-0.590	236.79	-0.50	-0.30	 	 	 	 	 	 	 	 	 	 	 	 	 	 	 	 	 	 	1581550348	7.24	13.41
12/02/2020 23:32:29	120220	12022020	233229	237.39	12.169635	-57.166827	237.47	-0.110	0.860	-1.080	237.39	-0.60	-0.70	 	 	 	 	 	 	 	 	 	 	 	 	 	 	 	 	 	 	1581550349	6.98	12.93
12/02/2020 23:32:30	120220	12022020	233230	237.67	12.169617	-57.166858	237.70	0.350	0.240	-1.050	237.67	-1.30	-0.50	 	 	 	 	 	 	 	 	 	 	 	 	 	 	 	 	 	 	1581550350	7.16	13.26
12/02/2020 23:32:31	120220	12022020	233231	237.51	12.169597	-57.166890	237.52	0.790	-0.650	-0.370	237.51	-2.20	0.30	 	 	 	 	 	 	 	 	 	 	 	 	 	 	 	 	 	 	1581550351	7.69	14.24
12/02/2020 23:32:32	120220	12022020	233232	237.06	12.169582	-57.166925	237.05	0.870	-1.250	0.740	237.06	-2.70	1.40	 	 	 	 	 	 	 	 	 	 	 	 	 	 	 	 	 	 	1581550352	8.03	14.87
12/02/2020 23:32:33	120220	12022020	233233	236.52	12.169568	-57.166958	236.53	0.470	-1.270	1.840	236.52	-2.60	2.40	 	 	 	 	 	 	 	 	 	 	 	 	 	 	 	 	 	 	1581550353	7.93	14.69
12/02/2020 23:32:34	120220	12022020	233234	236.07	12.169557	-57.166990	236.11	-0.140	-0.960	2.530	236.07	-2.20	3.00	 	 	 	 	 	 	 	 	 	 	 	 	 	 	 	 	 	 	1581550354	7.55	13.98
12/02/2020 23:32:35	120220	12022020	233235	235.80	12.169543	-57.167022	235.87	-0.530	-0.670	2.620	235.80	-2.00	2.90	 	 	 	 	 	 	 	 	 	 	 	 	 	 	 	 	 	 	1581550355	7.26	13.45
12/02/2020 23:32:36	120220	12022020	233236	235.70	12.169528	-57.167053	235.78	-0.510	-0.560	2.180	235.70	-1.90	2.40	 	 	 	 	 	 	 	 	 	 	 	 	 	 	 	 	 	 	1581550356	7.32	13.56
12/02/2020 23:32:37	120220	12022020	233237	235.74	12.169508	-57.167085	235.83	-0.290	-0.530	1.460	235.74	-1.90	1.70	 	 	 	 	 	 	 	 	 	 	 	 	 	 	 	 	 	 	1581550357	7.59	14.06
12/02/2020 23:32:38	120220	12022020	233238	236.07	12.169488	-57.167117	236.17	-0.160	-0.310	0.650	236.07	-1.60	0.90	 	 	 	 	 	 	 	 	 	 	 	 	 	 	 	 	 	 	1581550358	7.84	14.52
12/02/2020 23:32:39	120220	12022020	233239	236.66	12.169470	-57.167147	236.77	-0.230	0.160	0.010	236.66	-1.10	0.30	 	 	 	 	 	 	 	 	 	 	 	 	 	 	 	 	 	 	1581550359	7.81	14.46
12/02/2020 23:32:40	120220	12022020	233240	237.21	12.169452	-57.167175	237.30	-0.350	0.640	-0.300	237.21	-0.70	0.10	 	 	 	 	 	 	 	 	 	 	 	 	 	 	 	 	 	 	1581550360	7.50	13.89
12/02/2020 23:32:41	120220	12022020	233241	237.54	12.169435	-57.167205	237.60	-0.320	0.830	-0.310	237.54	-0.60	0.10	 	 	 	 	 	 	 	 	 	 	 	 	 	 	 	 	 	 	1581550361	7.29	13.50
12/02/2020 23:32:42	120220	12022020	233242	237.66	12.169417	-57.167237	237.71	-0.100	0.670	-0.060	237.66	-0.80	0.40	 	 	 	 	 	 	 	 	 	 	 	 	 	 	 	 	 	 	1581550362	7.40	13.70
12/02/2020 23:32:43	120220	12022020	233243	237.56	12.169400	-57.167267	237.60	0.230	0.280	0.290	237.56	-1.20	0.80	 	 	 	 	 	 	 	 	 	 	 	 	 	 	 	 	 	 	1581550363	7.56	14.00
12/02/2020 23:32:44	120220	12022020	233244	237.24	12.169383	-57.167298	237.26	0.540	-0.280	0.630	237.24	-1.80	1.10	 	 	 	 	 	 	 	 	 	 	 	 	 	 	 	 	 	 	1581550364	7.56	14.00
12/02/2020 23:32:45	120220	12022020	233245	236.75	12.169365	-57.167330	236.75	0.720	-0.920	1.040	236.75	-2.40	1.60	 	 	 	 	 	 	 	 	 	 	 	 	 	 	 	 	 	 	1581550365	7.53	13.95
12/02/2020 23:32:46	120220	12022020	233246	236.19	12.169348	-57.167362	236.20	0.650	-1.430	1.540	236.19	-2.90	2.10	 	 	 	 	 	 	 	 	 	 	 	 	 	 	 	 	 	 	1581550366	7.58	14.04
12/02/2020 23:32:47	120220	12022020	233247	235.83	12.169335	-57.167395	235.81	0.290	-1.550	1.930	235.77	-2.90	2.40	 	 	 	 	 	 	 	 	 	 	 	 	 	 	 	 	 	 	1581550367	7.61	14.09
12/02/2020 23:32:48	120220	12022020	233248	235.66	12.169322	-57.167427	235.73	-0.150	-1.230	1.990	235.66	-2.50	2.40	 	 	 	 	 	 	 	 	 	 	 	 	 	 	 	 	 	 	1581550368	7.57	14.02
12/02/2020 23:32:49	120220	12022020	233249	235.84	12.169307	-57.167458	235.93	-0.450	-0.620	1.640	235.84	-1.80	1.90	 	 	 	 	 	 	 	 	 	 	 	 	 	 	 	 	 	 	1581550369	7.46	13.82
12/02/2020 23:32:50	120220	12022020	233250	236.26	12.169290	-57.167488	236.36	-0.520	0.020	0.860	236.26	-1.20	1.10	 	 	 	 	 	 	 	 	 	 	 	 	 	 	 	 	 	 	1581550370	7.32	13.56
12/02/2020 23:32:51	120220	12022020	233251	236.82	12.169270	-57.167517	236.91	-0.470	0.450	-0.030	236.82	-0.90	0.20	 	 	 	 	 	 	 	 	 	 	 	 	 	 	 	 	 	 	1581550371	7.30	13.52
12/02/2020 23:32:52	120220	12022020	233252	237.21	12.169248	-57.167547	237.27	-0.350	0.490	-0.590	237.21	-0.90	-0.20	 	 	 	 	 	 	 	 	 	 	 	 	 	 	 	 	 	 	1581550372	7.47	13.83
12/02/2020 23:32:53	120220	12022020	233253	237.29	12.169228	-57.167577	237.32	-0.210	0.290	-0.630	237.29	-1.10	-0.20	 	 	 	 	 	 	 	 	 	 	 	 	 	 	 	 	 	 	1581550373	7.75	14.35
12/02/2020 23:32:54	120220	12022020	233254	237.17	12.169210	-57.167608	237.19	-0.030	0.150	-0.260	237.17	-1.30	0.30	 	 	 	 	 	 	 	 	 	 	 	 	 	 	 	 	 	 	1581550374	7.90	14.63
12/02/2020 23:32:55	120220	12022020	233255	236.86	12.169195	-57.167640	236.86	0.150	0.160	0.420	236.86	-1.20	1.00	 	 	 	 	 	 	 	 	 	 	 	 	 	 	 	 	 	 	1581550375	7.75	14.35
12/02/2020 23:32:56	120220	12022020	233256	236.42	12.169180	-57.167672	236.43	0.310	0.200	1.120	236.42	-1.20	1.70	 	 	 	 	 	 	 	 	 	 	 	 	 	 	 	 	 	 	1581550376	7.45	13.80
12/02/2020 23:32:57	120220	12022020	233257	236.10	12.169167	-57.167703	236.15	0.440	-0.010	1.540	236.10	-1.50	2.00	 	 	 	 	 	 	 	 	 	 	 	 	 	 	 	 	 	 	1581550377	7.27	13.46
12/02/2020 23:32:58	120220	12022020	233258	235.98	12.169152	-57.167735	236.05	0.500	-0.520	1.470	235.98	-2.00	1.80	 	 	 	 	 	 	 	 	 	 	 	 	 	 	 	 	 	 	1581550378	7.33	13.58
12/02/2020 23:32:59	120220	12022020	233259	236.05	12.169133	-57.167767	236.13	0.430	-1.100	1.050	236.05	-2.60	1.30	 	 	 	 	 	 	 	 	 	 	 	 	 	 	 	 	 	 	1581550379	7.50	13.89
12/02/2020 23:33:00	120220	12022020	233300	236.23	12.169115	-57.167797	236.30	0.250	-1.440	0.610	236.23	-2.80	0.90	 	 	 	 	 	 	 	 	 	 	 	 	 	 	 	 	 	 	1581550380	7.65	14.17
12/02/2020 23:33:01	120220	12022020	233301	236.38	12.169097	-57.167827	236.48	0.030	-1.310	0.300	236.42	-2.60	0.70	1015.60	26.30	28.60	20.70	21.60	-1.0	71.0	65.0	393.0	25.7	195.00	7.30	66.00	11.00	16	11674.0	27.5	27.4	1581550381	7.65	14.17
12/02/2020 23:33:02	120220	12022020	233302	236.64	12.169080	-57.167857	236.69	-0.190	-0.770	0.120	236.64	-2.00	0.50	 	 	 	 	 	 	 	 	 	 	 	 	 	 	 	 	 	 	1581550382	7.45	13.80
12/02/2020 23:33:03	120220	12022020	233303	236.81	12.169062	-57.167887	236.85	-0.370	-0.150	0.140	236.81	-1.40	0.60	 	 	 	 	 	 	 	 	 	 	 	 	 	 	 	 	 	 	1581550383	7.22	13.37
12/02/2020 23:33:04	120220	12022020	233304	236.75	12.169045	-57.167917	236.77	-0.470	0.260	0.440	236.75	-1.10	0.90	 	 	 	 	 	 	 	 	 	 	 	 	 	 	 	 	 	 	1581550384	7.21	13.35
12/02/2020 23:33:05	120220	12022020	233305	236.45	12.169028	-57.167950	236.48	-0.450	0.430	0.840	236.45	-0.90	1.30	 	 	 	 	 	 	 	 	 	 	 	 	 	 	 	 	 	 	1581550385	7.48	13.85
12/02/2020 23:33:06	120220	12022020	233306	236.07	12.169013	-57.167983	236.10	-0.300	0.460	1.230	236.07	-0.90	1.70	 	 	 	 	 	 	 	 	 	 	 	 	 	 	 	 	 	 	1581550386	7.76	14.37
12/02/2020 23:33:07	120220	12022020	233307	235.76	12.168998	-57.168017	235.81	-0.070	0.440	1.410	235.76	-1.00	1.80	 	 	 	 	 	 	 	 	 	 	 	 	 	 	 	 	 	 	1581550387	7.85	14.54
12/02/2020 23:33:08	120220	12022020	233308	235.63	12.168982	-57.168048	235.70	0.170	0.280	1.310	235.63	-1.20	1.70	 	 	 	 	 	 	 	 	 	 	 	 	 	 	 	 	 	 	1581550388	7.73	14.32
12/02/2020 23:33:09	120220	12022020	233309	235.70	12.168963	-57.168078	235.78	0.370	-0.100	1.030	235.70	-1.60	1.40	 	 	 	 	 	 	 	 	 	 	 	 	 	 	 	 	 	 	1581550389	7.52	13.93
12/02/2020 23:33:10	120220	12022020	233310	235.92	12.168945	-57.168108	236.02	0.530	-0.530	0.630	235.92	-2.00	0.90	 	 	 	 	 	 	 	 	 	 	 	 	 	 	 	 	 	 	1581550390	7.54	13.96
12/02/2020 23:33:11	120220	12022020	233311	236.26	12.168927	-57.168137	236.36	0.570	-0.760	0.130	236.26	-2.20	0.40	 	 	 	 	 	 	 	 	 	 	 	 	 	 	 	 	 	 	1581550391	7.52	13.93
12/02/2020 23:33:12	120220	12022020	233312	236.60	12.168908	-57.168165	236.69	0.380	-0.790	-0.210	236.60	-2.20	0.20	 	 	 	 	 	 	 	 	 	 	 	 	 	 	 	 	 	 	1581550392	7.33	13.58
12/02/2020 23:33:13	120220	12022020	233313	236.73	12.168890	-57.168195	236.80	0.030	-0.820	-0.030	236.73	-2.20	0.50	 	 	 	 	 	 	 	 	 	 	 	 	 	 	 	 	 	 	1581550393	7.15	13.24
12/02/2020 23:33:14	120220	12022020	233314	236.48	12.168877	-57.168228	236.50	-0.260	-0.910	0.650	236.48	-2.30	1.30	 	 	 	 	 	 	 	 	 	 	 	 	 	 	 	 	 	 	1581550394	7.24	13.41
12/02/2020 23:33:15	120220	12022020	233315	236.05	12.168863	-57.168262	235.94	-0.270	-0.870	1.630	235.93	-2.20	2.30	 	 	 	 	 	 	 	 	 	 	 	 	 	 	 	 	 	 	1581550395	7.61	14.09
12/02/2020 23:33:16	120220	12022020	233316	235.32	12.168848	-57.168297	235.37	-0.150	-0.530	2.400	235.32	-1.80	2.90	 	 	 	 	 	 	 	 	 	 	 	 	 	 	 	 	 	 	1581550396	7.91	14.65
12/02/2020 23:33:17	120220	12022020	233317	234.92	12.168833	-57.168330	235.00	-0.130	-0.050	2.600	234.92	-1.30	3.00	 	 	 	 	 	 	 	 	 	 	 	 	 	 	 	 	 	 	1581550397	7.81	14.46
12/02/2020 23:33:18	120220	12022020	233318	234.80	12.168818	-57.168360	234.92	-0.260	0.320	2.290	234.80	-1.00	2.60	 	 	 	 	 	 	 	 	 	 	 	 	 	 	 	 	 	 	1581550398	7.61	14.09
12/02/2020 23:33:19	120220	12022020	233319	235.04	12.168800	-57.168390	235.17	-0.400	0.540	1.470	235.04	-0.80	1.60	 	 	 	 	 	 	 	 	 	 	 	 	 	 	 	 	 	 	1581550399	7.54	13.96
12/02/2020 23:33:20	120220	12022020	233320	235.61	12.168780	-57.168420	235.74	-0.360	0.590	0.350	235.61	-0.80	0.50	 	 	 	 	 	 	 	 	 	 	 	 	 	 	 	 	 	 	1581550400	7.47	13.83
12/02/2020 23:33:21	120220	12022020	233321	236.37	12.168758	-57.168447	236.48	-0.110	0.420	-0.610	236.37	-1.10	-0.30	 	 	 	 	 	 	 	 	 	 	 	 	 	 	 	 	 	 	1581550401	7.40	13.70
12/02/2020 23:33:22	120220	12022020	233322	237.06	12.168738	-57.168477	237.15	0.230	-0.010	-1.030	237.06	-1.50	-0.60	 	 	 	 	 	 	 	 	 	 	 	 	 	 	 	 	 	 	1581550402	7.41	13.72
12/02/2020 23:33:23	120220	12022020	233323	237.45	12.168720	-57.168507	237.49	0.470	-0.550	-0.800	237.45	-2.10	-0.30	 	 	 	 	 	 	 	 	 	 	 	 	 	 	 	 	 	 	1581550403	7.50	13.89
12/02/2020 23:33:24	120220	12022020	233324	237.31	12.168703	-57.168538	237.29	0.560	-1.040	-0.040	237.31	-2.50	0.60	 	 	 	 	 	 	 	 	 	 	 	 	 	 	 	 	 	 	1581550404	7.55	13.98
12/02/2020 23:33:25	120220	12022020	233325	236.79	12.168690	-57.168572	236.60	0.490	-1.290	1.060	236.64	-2.70	1.70	 	 	 	 	 	 	 	 	 	 	 	 	 	 	 	 	 	 	1581550405	7.58	14.04
12/02/2020 23:33:26	120220	12022020	233326	235.82	12.168677	-57.168605	235.82	0.250	-1.150	2.140	235.82	-2.40	2.70	 	 	 	 	 	 	 	 	 	 	 	 	 	 	 	 	 	 	1581550406	7.62	14.11
12/02/2020 23:33:27	120220	12022020	233327	235.14	12.168665	-57.168638	235.17	-0.100	-0.750	2.740	235.14	-2.00	3.20	 	 	 	 	 	 	 	 	 	 	 	 	 	 	 	 	 	 	1581550407	7.57	14.02
12/02/2020 23:33:28	120220	12022020	233328	234.78	12.168650	-57.168670	234.87	-0.420	-0.340	2.730	234.78	-1.60	3.00	 	 	 	 	 	 	 	 	 	 	 	 	 	 	 	 	 	 	1581550408	7.49	13.87
12/02/2020 23:33:29	120220	12022020	233329	234.81	12.168633	-57.168702	234.93	-0.580	-0.020	2.170	234.81	-1.30	2.40	 	 	 	 	 	 	 	 	 	 	 	 	 	 	 	 	 	 	1581550409	7.51	13.91
12/02/2020 23:33:30	120220	12022020	233330	235.17	12.168615	-57.168733	235.31	-0.560	0.250	1.250	235.17	-1.10	1.40	 	 	 	 	 	 	 	 	 	 	 	 	 	 	 	 	 	 	1581550410	7.59	14.06
12/02/2020 23:33:31	120220	12022020	233331	235.82	12.168597	-57.168762	235.96	-0.440	0.550	0.170	235.82	-0.80	0.40	 	 	 	 	 	 	 	 	 	 	 	 	 	 	 	 	 	 	1581550411	7.59	14.06
12/02/2020 23:33:32	120220	12022020	233332	236.56	12.168577	-57.168790	236.67	-0.260	0.790	-0.710	236.56	-0.60	-0.40	 	 	 	 	 	 	 	 	 	 	 	 	 	 	 	 	 	 	1581550412	7.45	13.80
12/02/2020 23:33:33	120220	12022020	233333	237.09	12.168557	-57.168817	237.15	0.010	0.660	-1.090	237.09	-0.80	-0.70	 	 	 	 	 	 	 	 	 	 	 	 	 	 	 	 	 	 	1581550413	7.22	13.37
12/02/2020 23:33:34	120220	12022020	233334	237.20	12.168538	-57.168847	237.22	0.360	0.000	-0.880	237.20	-1.60	-0.30	 	 	 	 	 	 	 	 	 	 	 	 	 	 	 	 	 	 	1581550414	7.20	13.33
12/02/2020 23:33:35	120220	12022020	233335	236.93	12.168520	-57.168880	236.93	0.630	-0.870	-0.140	236.93	-2.40	0.50	 	 	 	 	 	 	 	 	 	 	 	 	 	 	 	 	 	 	1581550415	7.55	13.98
12/02/2020 23:33:36	120220	12022020	233336	236.46	12.168505	-57.168913	236.47	0.640	-1.470	0.920	236.46	-2.90	1.60	 	 	 	 	 	 	 	 	 	 	 	 	 	 	 	 	 	 	1581550416	7.81	14.46
12/02/2020 23:33:37	120220	12022020	233337	236.06	12.168493	-57.168947	235.99	0.420	-1.510	1.960	235.97	-2.80	2.60	 	 	 	 	 	 	 	 	 	 	 	 	 	 	 	 	 	 	1581550417	7.80	14.45
12/02/2020 23:33:38	120220	12022020	233338	235.46	12.168482	-57.168980	235.49	0.130	-1.170	2.710	235.46	-2.40	3.20	 	 	 	 	 	 	 	 	 	 	 	 	 	 	 	 	 	 	1581550418	7.54	13.96
12/02/2020 23:33:39	120220	12022020	233339	235.08	12.168467	-57.169012	235.07	-0.140	-0.690	2.940	235.02	-1.90	3.30	 	 	 	 	 	 	 	 	 	 	 	 	 	 	 	 	 	 	1581550419	7.36	13.63
12/02/2020 23:33:40	120220	12022020	233340	234.87	12.168450	-57.169042	234.97	-0.390	-0.150	2.570	234.87	-1.40	2.80	 	 	 	 	 	 	 	 	 	 	 	 	 	 	 	 	 	 	1581550420	7.40	13.70
12/02/2020 23:33:41	120220	12022020	233341	235.10	12.168432	-57.169072	235.21	-0.590	0.330	1.840	235.10	-1.00	2.10	 	 	 	 	 	 	 	 	 	 	 	 	 	 	 	 	 	 	1581550421	7.43	13.76
12/02/2020 23:33:42	120220	12022020	233342	235.44	12.168413	-57.169102	235.54	-0.680	0.580	1.160	235.44	-0.80	1.50	 	 	 	 	 	 	 	 	 	 	 	 	 	 	 	 	 	 	1581550422	7.42	13.74
12/02/2020 23:33:43	120220	12022020	233343	235.67	12.168395	-57.169133	235.74	-0.550	0.590	0.730	235.67	-0.80	1.10	 	 	 	 	 	 	 	 	 	 	 	 	 	 	 	 	 	 	1581550423	7.54	13.96
12/02/2020 23:33:44	120220	12022020	233344	235.83	12.168377	-57.169163	235.90	-0.210	0.420	0.440	235.83	-1.00	0.80	 	 	 	 	 	 	 	 	 	 	 	 	 	 	 	 	 	 	1581550424	7.60	14.08
12/02/2020 23:33:45	120220	12022020	233345	236.06	12.168358	-57.169193	236.12	0.200	0.230	0.070	236.06	-1.20	0.40	 	 	 	 	 	 	 	 	 	 	 	 	 	 	 	 	 	 	1581550425	7.65	14.17
12/02/2020 23:33:46	120220	12022020	233346	236.30	12.168340	-57.169222	236.36	0.540	0.040	-0.300	236.30	-1.40	0.10	 	 	 	 	 	 	 	 	 	 	 	 	 	 	 	 	 	 	1581550426	7.46	13.82
12/02/2020 23:33:47	120220	12022020	233347	236.52	12.168322	-57.169250	236.57	0.680	-0.240	-0.450	236.52	-1.70	0.00	 	 	 	 	 	 	 	 	 	 	 	 	 	 	 	 	 	 	1581550427	7.20	13.33
12/02/2020 23:33:48	120220	12022020	233348	236.69	12.168303	-57.169278	236.74	0.630	-0.690	-0.210	236.69	-2.20	0.40	 	 	 	 	 	 	 	 	 	 	 	 	 	 	 	 	 	 	1581550428	7.11	13.17
12/02/2020 23:33:49	120220	12022020	233349	236.52	12.168288	-57.169312	236.52	0.450	-1.270	0.570	236.52	-2.80	1.20	 	 	 	 	 	 	 	 	 	 	 	 	 	 	 	 	 	 	1581550429	7.21	13.35
12/02/2020 23:33:50	120220	12022020	233350	235.95	12.168275	-57.169345	235.93	0.190	-1.690	1.680	235.95	-3.10	2.30	 	 	 	 	 	 	 	 	 	 	 	 	 	 	 	 	 	 	1581550430	7.56	14.00
12/02/2020 23:33:51	120220	12022020	233351	235.46	12.168262	-57.169380	235.40	-0.190	-1.530	2.460	235.37	-2.80	3.00	 	 	 	 	 	 	 	 	 	 	 	 	 	 	 	 	 	 	1581550431	7.92	14.67
12/02/2020 23:33:52	120220	12022020	233352	235.09	12.168248	-57.169412	235.17	-0.580	-0.840	2.590	235.09	-2.00	2.90	 	 	 	 	 	 	 	 	 	 	 	 	 	 	 	 	 	 	1581550432	7.83	14.50
12/02/2020 23:33:53	120220	12022020	233353	235.11	12.168233	-57.169443	235.22	-0.720	-0.060	2.170	235.11	-1.30	2.40	 	 	 	 	 	 	 	 	 	 	 	 	 	 	 	 	 	 	1581550433	7.39	13.69
12/02/2020 23:33:54	120220	12022020	233354	235.24	12.168213	-57.169472	235.34	-0.530	0.410	1.510	235.24	-0.90	1.80	 	 	 	 	 	 	 	 	 	 	 	 	 	 	 	 	 	 	1581550434	7.22	13.37
12/02/2020 23:33:55	120220	12022020	233355	235.31	12.168193	-57.169503	235.40	-0.220	0.560	0.960	235.31	-0.80	1.30	 	 	 	 	 	 	 	 	 	 	 	 	 	 	 	 	 	 	1581550435	7.51	13.91
12/02/2020 23:33:56	120220	12022020	233356	235.45	12.168173	-57.169533	235.55	-0.030	0.670	0.620	235.45	-0.70	1.00	 	 	 	 	 	 	 	 	 	 	 	 	 	 	 	 	 	 	1581550436	7.84	14.52
12/02/2020 23:33:57	120220	12022020	233357	235.71	12.168155	-57.169563	235.80	-0.020	0.820	0.440	235.71	-0.50	0.90	 	 	 	 	 	 	 	 	 	 	 	 	 	 	 	 	 	 	1581550437	7.75	14.35
12/02/2020 23:33:58	120220	12022020	233358	235.96	12.168138	-57.169592	236.05	-0.010	0.860	0.360	235.96	-0.50	0.80	 	 	 	 	 	 	 	 	 	 	 	 	 	 	 	 	 	 	1581550438	7.39	13.69
12/02/2020 23:33:59	120220	12022020	233359	236.16	12.168123	-57.169622	236.22	0.150	0.500	0.300	236.16	-1.00	0.70	 	 	 	 	 	 	 	 	 	 	 	 	 	 	 	 	 	 	1581550439	7.10	13.15
12/02/2020 23:34:00	120220	12022020	233400	236.16	12.168107	-57.169653	236.20	0.450	-0.360	0.390	236.16	-2.00	0.90	 	 	 	 	 	 	 	 	 	 	 	 	 	 	 	 	 	 	1581550440	7.14	13.22
12/02/2020 23:34:01	120220	12022020	233401	236.03	12.168090	-57.169685	236.01	0.700	-1.440	0.650	235.98	-3.00	1.10	1015.60	26.80	31.50	21.00	22.50	-1.0	70.0	59.0	394.0	25.7	195.00	6.50	65.00	10.30	16	11811.0	27.5	27.4	1581550441	7.48	13.85
12/02/2020 23:34:02	120220	12022020	233402	235.76	12.168073	-57.169718	235.80	0.750	-2.100	0.950	235.76	-3.50	1.40	 	 	 	 	 	 	 	 	 	 	 	 	 	 	 	 	 	 	1581550442	7.83	14.50
12/02/2020 23:34:03	120220	12022020	233403	235.61	12.168057	-57.169748	235.63	0.500	-2.040	1.250	235.58	-3.30	1.70	 	 	 	 	 	 	 	 	 	 	 	 	 	 	 	 	 	 	1581550443	7.71	14.28
12/02/2020 23:34:04	120220	12022020	233404	235.43	12.168042	-57.169778	235.49	0.030	-1.460	1.500	235.43	-2.60	2.00	 	 	 	 	 	 	 	 	 	 	 	 	 	 	 	 	 	 	1581550444	7.33	13.58
12/02/2020 23:34:05	120220	12022020	233405	235.28	12.168025	-57.169808	235.34	-0.460	-0.680	1.600	235.28	-1.80	2.00	 	 	 	 	 	 	 	 	 	 	 	 	 	 	 	 	 	 	1581550445	7.16	13.26
12/02/2020 23:34:06	120220	12022020	233406	235.22	12.168008	-57.169840	235.29	-0.780	0.190	1.460	235.22	-1.00	1.80	 	 	 	 	 	 	 	 	 	 	 	 	 	 	 	 	 	 	1581550446	7.29	13.50
12/02/2020 23:34:07	120220	12022020	233407	235.26	12.167988	-57.169870	235.33	-0.860	0.930	1.140	235.26	-0.30	1.50	 	 	 	 	 	 	 	 	 	 	 	 	 	 	 	 	 	 	1581550447	7.46	13.82
12/02/2020 23:34:08	120220	12022020	233408	235.33	12.167970	-57.169900	235.39	-0.700	1.260	0.770	235.33	-0.10	1.10	 	 	 	 	 	 	 	 	 	 	 	 	 	 	 	 	 	 	1581550448	7.49	13.87
12/02/2020 23:34:09	120220	12022020	233409	235.36	12.167952	-57.169932	235.40	-0.350	1.110	0.610	235.36	-0.40	1.00	 	 	 	 	 	 	 	 	 	 	 	 	 	 	 	 	 	 	1581550449	7.66	14.19
12/02/2020 23:34:10	120220	12022020	233410	235.32	12.167935	-57.169965	235.37	0.080	0.690	0.710	235.32	-0.80	1.20	 	 	 	 	 	 	 	 	 	 	 	 	 	 	 	 	 	 	1581550450	7.85	14.54
12/02/2020 23:34:11	120220	12022020	233411	235.40	12.167920	-57.169997	235.48	0.470	0.250	0.800	235.40	-1.20	1.20	 	 	 	 	 	 	 	 	 	 	 	 	 	 	 	 	 	 	1581550451	7.87	14.58
12/02/2020 23:34:12	120220	12022020	233412	235.64	12.167903	-57.170027	235.73	0.700	-0.250	0.730	235.64	-1.80	1.10	 	 	 	 	 	 	 	 	 	 	 	 	 	 	 	 	 	 	1581550452	7.52	13.93
12/02/2020 23:34:13	120220	12022020	233413	235.81	12.167887	-57.170057	235.88	0.720	-0.870	0.650	235.81	-2.40	1.10	 	 	 	 	 	 	 	 	 	 	 	 	 	 	 	 	 	 	1581550453	7.25	13.43
12/02/2020 23:34:14	120220	12022020	233414	235.69	12.167868	-57.170087	235.73	0.560	-1.470	0.590	235.69	-2.90	1.00	 	 	 	 	 	 	 	 	 	 	 	 	 	 	 	 	 	 	1581550454	7.24	13.41
12/02/2020 23:34:15	120220	12022020	233415	235.40	12.167850	-57.170117	235.44	0.300	-1.740	0.480	235.40	-3.10	0.90	 	 	 	 	 	 	 	 	 	 	 	 	 	 	 	 	 	 	1581550455	7.42	13.74
12/02/2020 23:34:16	120220	12022020	233416	235.20	12.167830	-57.170145	235.24	-0.050	-1.530	0.260	235.20	-2.80	0.70	 	 	 	 	 	 	 	 	 	 	 	 	 	 	 	 	 	 	1581550456	7.45	13.80
12/02/2020 23:34:17	120220	12022020	233417	235.12	12.167813	-57.170173	235.17	-0.420	-1.050	0.210	235.12	-2.30	0.70	 	 	 	 	 	 	 	 	 	 	 	 	 	 	 	 	 	 	1581550457	7.29	13.50
12/02/2020 23:34:18	120220	12022020	233418	235.11	12.167797	-57.170205	235.15	-0.670	-0.460	0.470	235.11	-1.70	1.00	 	 	 	 	 	 	 	 	 	 	 	 	 	 	 	 	 	 	1581550458	7.29	13.50
12/02/2020 23:34:19	120220	12022020	233419	235.16	12.167782	-57.170238	235.23	-0.680	0.220	0.870	235.16	-1.00	1.40	 	 	 	 	 	 	 	 	 	 	 	 	 	 	 	 	 	 	1581550459	7.51	13.91
12/02/2020 23:34:20	120220	12022020	233420	235.22	12.167768	-57.170272	235.29	-0.450	0.870	1.250	235.22	-0.40	1.70	 	 	 	 	 	 	 	 	 	 	 	 	 	 	 	 	 	 	1581550460	7.62	14.11
12/02/2020 23:34:21	120220	12022020	233421	235.26	12.167752	-57.170303	235.34	-0.070	1.270	1.450	235.26	-0.10	1.90	 	 	 	 	 	 	 	 	 	 	 	 	 	 	 	 	 	 	1581550461	7.58	14.04
12/02/2020 23:34:22	120220	12022020	233422	235.33	12.167735	-57.170333	235.41	0.270	1.240	1.390	235.33	-0.20	1.80	 	 	 	 	 	 	 	 	 	 	 	 	 	 	 	 	 	 	1581550462	7.51	13.91
12/02/2020 23:34:23	120220	12022020	233423	235.37	12.167717	-57.170365	235.43	0.470	0.630	1.060	235.37	-0.90	1.40	 	 	 	 	 	 	 	 	 	 	 	 	 	 	 	 	 	 	1581550463	7.49	13.87
12/02/2020 23:34:24	120220	12022020	233424	235.32	12.167697	-57.170395	235.35	0.520	-0.430	0.540	235.32	-2.00	0.90	 	 	 	 	 	 	 	 	 	 	 	 	 	 	 	 	 	 	1581550464	7.59	14.06
12/02/2020 23:34:25	120220	12022020	233425	235.26	12.167675	-57.170425	235.28	0.420	-1.470	0.060	235.26	-3.00	0.40	 	 	 	 	 	 	 	 	 	 	 	 	 	 	 	 	 	 	1581550465	7.83	14.50
12/02/2020 23:34:26	120220	12022020	233426	235.15	12.167657	-57.170455	235.15	0.210	-1.930	-0.080	235.15	-3.30	0.40	 	 	 	 	 	 	 	 	 	 	 	 	 	 	 	 	 	 	1581550466	7.89	14.61
12/02/2020 23:34:27	120220	12022020	233427	234.99	12.167640	-57.170485	234.97	-0.070	-1.630	0.200	234.96	-2.80	0.70	 	 	 	 	 	 	 	 	 	 	 	 	 	 	 	 	 	 	1581550467	7.56	14.00
12/02/2020 23:34:28	120220	12022020	233428	234.87	12.167627	-57.170513	234.91	-0.350	-0.790	0.560	234.87	-1.90	1.00	 	 	 	 	 	 	 	 	 	 	 	 	 	 	 	 	 	 	1581550468	7.13	13.20
12/02/2020 23:34:29	120220	12022020	233429	234.97	12.167613	-57.170543	235.10	-0.500	0.080	0.690	235.02	-1.20	1.10	 	 	 	 	 	 	 	 	 	 	 	 	 	 	 	 	 	 	1581550469	6.86	12.70
12/02/2020 23:34:30	120220	12022020	233430	235.35	12.167597	-57.170575	235.42	-0.400	0.510	0.620	235.35	-0.80	1.00	 	 	 	 	 	 	 	 	 	 	 	 	 	 	 	 	 	 	1581550470	6.92	12.82
12/02/2020 23:34:31	120220	12022020	233431	235.69	12.167578	-57.170607	235.76	-0.070	0.450	0.480	235.69	-1.00	0.90	 	 	 	 	 	 	 	 	 	 	 	 	 	 	 	 	 	 	1581550471	7.29	13.50
12/02/2020 23:34:32	120220	12022020	233432	235.89	12.167558	-57.170638	235.95	0.300	0.070	0.390	235.89	-1.40	0.80	 	 	 	 	 	 	 	 	 	 	 	 	 	 	 	 	 	 	1581550472	7.73	14.32
12/02/2020 23:34:33	120220	12022020	233433	235.83	12.167540	-57.170670	235.87	0.510	-0.250	0.500	235.83	-1.60	1.00	 	 	 	 	 	 	 	 	 	 	 	 	 	 	 	 	 	 	1581550473	8.02	14.85
12/02/2020 23:34:34	120220	12022020	233434	235.53	12.167522	-57.170700	235.55	0.430	-0.220	0.930	235.53	-1.50	1.50	 	 	 	 	 	 	 	 	 	 	 	 	 	 	 	 	 	 	1581550474	7.93	14.69
12/02/2020 23:34:35	120220	12022020	233435	235.04	12.167508	-57.170732	235.06	0.140	-0.020	1.550	235.04	-1.40	2.10	 	 	 	 	 	 	 	 	 	 	 	 	 	 	 	 	 	 	1581550475	7.50	13.89
12/02/2020 23:34:36	120220	12022020	233436	234.52	12.167495	-57.170763	234.55	-0.130	-0.050	1.980	234.52	-1.50	2.40	 	 	 	 	 	 	 	 	 	 	 	 	 	 	 	 	 	 	1581550476	7.21	13.35
12/02/2020 23:34:37	120220	12022020	233437	234.22	12.167480	-57.170797	234.31	-0.200	-0.300	1.830	234.22	-1.70	2.10	 	 	 	 	 	 	 	 	 	 	 	 	 	 	 	 	 	 	1581550477	7.42	13.74
12/02/2020 23:34:38	120220	12022020	233438	234.42	12.167462	-57.170827	234.53	-0.110	-0.450	1.040	234.42	-1.90	1.20	 	 	 	 	 	 	 	 	 	 	 	 	 	 	 	 	 	 	1581550478	7.63	14.13
12/02/2020 23:34:39	120220	12022020	233439	234.92	12.167442	-57.170855	235.02	-0.020	-0.570	0.090	234.92	-2.00	0.40	 	 	 	 	 	 	 	 	 	 	 	 	 	 	 	 	 	 	1581550479	7.48	13.85
12/02/2020 23:34:40	120220	12022020	233440	235.40	12.167420	-57.170883	235.47	-0.050	-0.720	-0.420	235.40	-2.10	-0.00	 	 	 	 	 	 	 	 	 	 	 	 	 	 	 	 	 	 	1581550480	7.37	13.65
12/02/2020 23:34:41	120220	12022020	233441	235.65	12.167402	-57.170912	235.74	-0.160	-0.720	-0.270	235.69	-2.00	0.30	 	 	 	 	 	 	 	 	 	 	 	 	 	 	 	 	 	 	1581550481	7.48	13.85
12/02/2020 23:34:42	120220	12022020	233442	235.76	12.167387	-57.170943	235.78	-0.250	-0.400	0.300	235.76	-1.70	0.90	 	 	 	 	 	 	 	 	 	 	 	 	 	 	 	 	 	 	1581550482	7.47	13.83
12/02/2020 23:34:43	120220	12022020	233443	235.58	12.167372	-57.170973	235.58	-0.170	-0.000	0.940	235.58	-1.30	1.50	 	 	 	 	 	 	 	 	 	 	 	 	 	 	 	 	 	 	1581550483	7.28	13.48
12/02/2020 23:34:44	120220	12022020	233444	235.15	12.167358	-57.171005	235.15	0.150	0.070	1.440	235.15	-1.30	1.90	 	 	 	 	 	 	 	 	 	 	 	 	 	 	 	 	 	 	1581550484	7.15	13.24
12/02/2020 23:34:45	120220	12022020	233445	234.73	12.167342	-57.171038	234.78	0.530	-0.170	1.560	234.73	-1.60	2.00	 	 	 	 	 	 	 	 	 	 	 	 	 	 	 	 	 	 	1581550485	7.43	13.76
12/02/2020 23:34:46	120220	12022020	233446	234.51	12.167322	-57.171070	234.56	0.700	-0.420	1.410	234.51	-1.80	1.80	 	 	 	 	 	 	 	 	 	 	 	 	 	 	 	 	 	 	1581550486	7.78	14.41
12/02/2020 23:34:47	120220	12022020	233447	234.37	12.167303	-57.171100	234.42	0.510	-0.450	1.280	234.37	-1.80	1.70	 	 	 	 	 	 	 	 	 	 	 	 	 	 	 	 	 	 	1581550487	7.81	14.46
12/02/2020 23:34:48	120220	12022020	233448	234.24	12.167287	-57.171132	234.28	0.050	-0.250	1.250	234.24	-1.60	1.70	 	 	 	 	 	 	 	 	 	 	 	 	 	 	 	 	 	 	1581550488	7.59	14.06
12/02/2020 23:34:49	120220	12022020	233449	234.21	12.167272	-57.171162	234.29	-0.440	0.050	1.310	234.21	-1.30	1.70	 	 	 	 	 	 	 	 	 	 	 	 	 	 	 	 	 	 	1581550489	7.39	13.69
12/02/2020 23:34:50	120220	12022020	233450	234.33	12.167257	-57.171192	234.40	-0.730	0.310	1.390	234.33	-1.00	1.80	 	 	 	 	 	 	 	 	 	 	 	 	 	 	 	 	 	 	1581550490	7.29	13.50
12/02/2020 23:34:51	120220	12022020	233451	234.46	12.167240	-57.171223	234.53	-0.670	0.310	1.330	234.46	-1.10	1.70	 	 	 	 	 	 	 	 	 	 	 	 	 	 	 	 	 	 	1581550491	7.25	13.43
12/02/2020 23:34:52	120220	12022020	233452	234.68	12.167222	-57.171253	234.76	-0.340	-0.060	0.870	234.68	-1.60	1.10	 	 	 	 	 	 	 	 	 	 	 	 	 	 	 	 	 	 	1581550492	7.32	13.56
12/02/2020 23:34:53	120220	12022020	233453	234.97	12.167202	-57.171282	235.11	0.080	-0.650	0.140	235.04	-2.20	0.40	 	 	 	 	 	 	 	 	 	 	 	 	 	 	 	 	 	 	1581550493	7.48	13.85
12/02/2020 23:34:54	120220	12022020	233454	235.35	12.167180	-57.171312	235.38	0.420	-1.180	-0.400	235.35	-2.60	-0.00	 	 	 	 	 	 	 	 	 	 	 	 	 	 	 	 	 	 	1581550494	7.63	14.13
12/02/2020 23:34:55	120220	12022020	233455	235.32	12.167160	-57.171340	235.24	0.600	-1.440	-0.270	235.26	-2.80	0.30	 	 	 	 	 	 	 	 	 	 	 	 	 	 	 	 	 	 	1581550495	7.66	14.19
12/02/2020 23:34:56	120220	12022020	233456	234.83	12.167143	-57.171372	234.82	0.550	-1.170	0.460	234.83	-2.40	1.10	 	 	 	 	 	 	 	 	 	 	 	 	 	 	 	 	 	 	1581550496	7.61	14.09
12/02/2020 23:34:57	120220	12022020	233457	234.47	12.167130	-57.171403	234.48	0.230	-0.330	1.360	234.47	-1.50	2.00	 	 	 	 	 	 	 	 	 	 	 	 	 	 	 	 	 	 	1581550497	7.48	13.85
12/02/2020 23:34:58	120220	12022020	233458	234.26	12.167118	-57.171435	234.30	-0.200	0.580	2.130	234.26	-0.70	2.70	 	 	 	 	 	 	 	 	 	 	 	 	 	 	 	 	 	 	1581550498	7.17	13.28
12/02/2020 23:34:59	120220	12022020	233459	234.18	12.167107	-57.171467	234.26	-0.490	0.940	2.430	234.18	-0.50	2.80	 	 	 	 	 	 	 	 	 	 	 	 	 	 	 	 	 	 	1581550499	7.12	13.19
12/02/2020 23:35:00	120220	12022020	233500	234.28	12.167088	-57.171500	234.40	-0.490	0.640	2.060	234.28	-0.90	2.30	 	 	 	 	 	 	 	 	 	 	 	 	 	 	 	 	 	 	1581550500	7.46	13.82
12/02/2020 23:35:01	120220	12022020	233501	234.61	12.167068	-57.171532	234.72	-0.290	0.090	1.150	234.61	-1.40	1.30	1015.70	26.80	29.70	21.00	21.40	-1.0	71.0	61.0	395.0	25.7	199.00	6.60	67.00	10.40	16	10844.0	27.5	27.4	1581550501	7.90	14.63
12/02/2020 23:35:02	120220	12022020	233502	234.97	12.167045	-57.171560	235.04	-0.070	-0.330	0.180	234.97	-1.80	0.40	 	 	 	 	 	 	 	 	 	 	 	 	 	 	 	 	 	 	1581550502	7.97	14.76
12/02/2020 23:35:03	120220	12022020	233503	235.11	12.167023	-57.171587	235.14	0.100	-0.580	-0.420	235.11	-2.00	-0.10	 	 	 	 	 	 	 	 	 	 	 	 	 	 	 	 	 	 	1581550503	7.70	14.26
12/02/2020 23:35:04	120220	12022020	233504	235.04	12.167005	-57.171615	235.02	0.140	-0.690	-0.500	235.04	-2.10	-0.00	 	 	 	 	 	 	 	 	 	 	 	 	 	 	 	 	 	 	1581550504	7.38	13.67
12/02/2020 23:35:05	120220	12022020	233505	234.81	12.166988	-57.171645	234.77	0.070	-0.790	-0.040	234.81	-2.20	0.50	 	 	 	 	 	 	 	 	 	 	 	 	 	 	 	 	 	 	1581550505	7.18	13.30
12/02/2020 23:35:06	120220	12022020	233506	234.55	12.166973	-57.171677	234.54	0.030	-0.890	0.710	234.55	-2.30	1.30	 	 	 	 	 	 	 	 	 	 	 	 	 	 	 	 	 	 	1581550506	7.22	13.37
12/02/2020 23:35:07	120220	12022020	233507	234.42	12.166960	-57.171710	234.46	0.050	-0.800	1.370	234.42	-2.10	1.90	 	 	 	 	 	 	 	 	 	 	 	 	 	 	 	 	 	 	1581550507	7.50	13.89
12/02/2020 23:35:08	120220	12022020	233508	234.48	12.166947	-57.171742	234.52	0.070	-0.470	1.730	234.48	-1.70	2.20	 	 	 	 	 	 	 	 	 	 	 	 	 	 	 	 	 	 	1581550508	7.62	14.11
12/02/2020 23:35:09	120220	12022020	233509	234.53	12.166932	-57.171773	234.57	0.050	-0.080	1.890	234.53	-1.40	2.30	 	 	 	 	 	 	 	 	 	 	 	 	 	 	 	 	 	 	1581550509	7.47	13.83
12/02/2020 23:35:10	120220	12022020	233510	234.44	12.166915	-57.171805	234.49	0.010	0.200	1.880	234.44	-1.10	2.20	 	 	 	 	 	 	 	 	 	 	 	 	 	 	 	 	 	 	1581550510	7.39	13.69
12/02/2020 23:35:11	120220	12022020	233511	234.31	12.166898	-57.171835	234.35	-0.040	0.380	1.590	234.31	-1.00	1.90	 	 	 	 	 	 	 	 	 	 	 	 	 	 	 	 	 	 	1581550511	7.45	13.80
12/02/2020 23:35:12	120220	12022020	233512	234.24	12.166878	-57.171863	234.29	-0.080	0.510	1.030	234.24	-0.90	1.30	 	 	 	 	 	 	 	 	 	 	 	 	 	 	 	 	 	 	1581550512	7.47	13.83
12/02/2020 23:35:13	120220	12022020	233513	234.31	12.166857	-57.171890	234.36	-0.080	0.420	0.400	234.31	-1.00	0.70	 	 	 	 	 	 	 	 	 	 	 	 	 	 	 	 	 	 	1581550513	7.37	13.65
12/02/2020 23:35:14	120220	12022020	233514	234.45	12.166837	-57.171920	234.48	0.020	-0.120	0.120	234.45	-1.70	0.50	 	 	 	 	 	 	 	 	 	 	 	 	 	 	 	 	 	 	1581550514	7.30	13.52
12/02/2020 23:35:15	120220	12022020	233515	234.49	12.166817	-57.171952	234.51	0.170	-0.950	0.300	234.49	-2.50	0.80	 	 	 	 	 	 	 	 	 	 	 	 	 	 	 	 	 	 	1581550515	7.52	13.93
12/02/2020 23:35:16	120220	12022020	233516	234.46	12.166800	-57.171985	234.47	0.200	-1.410	0.790	234.46	-2.80	1.30	 	 	 	 	 	 	 	 	 	 	 	 	 	 	 	 	 	 	1581550516	7.90	14.63
12/02/2020 23:35:17	120220	12022020	233517	234.44	12.166787	-57.172017	234.47	0.010	-1.110	1.370	234.43	-2.30	1.90	 	 	 	 	 	 	 	 	 	 	 	 	 	 	 	 	 	 	1581550517	7.85	14.54
12/02/2020 23:35:18	120220	12022020	233518	234.41	12.166775	-57.172045	234.45	-0.250	-0.390	1.810	234.41	-1.60	2.30	 	 	 	 	 	 	 	 	 	 	 	 	 	 	 	 	 	 	1581550518	7.28	13.48
12/02/2020 23:35:19	120220	12022020	233519	234.26	12.166760	-57.172075	234.29	-0.350	0.030	2.000	234.26	-1.30	2.40	 	 	 	 	 	 	 	 	 	 	 	 	 	 	 	 	 	 	1581550519	6.84	12.67
12/02/2020 23:35:20	120220	12022020	233520	233.97	12.166742	-57.172107	234.00	-0.220	-0.010	1.970	233.97	-1.40	2.30	 	 	 	 	 	 	 	 	 	 	 	 	 	 	 	 	 	 	1581550520	7.06	13.08
12/02/2020 23:35:21	120220	12022020	233521	233.71	12.166723	-57.172138	233.75	0.040	-0.100	1.630	233.71	-1.50	1.90	 	 	 	 	 	 	 	 	 	 	 	 	 	 	 	 	 	 	1581550521	7.64	14.15
12/02/2020 23:35:22	120220	12022020	233522	233.64	12.166703	-57.172167	233.70	0.210	0.010	0.990	233.64	-1.30	1.20	 	 	 	 	 	 	 	 	 	 	 	 	 	 	 	 	 	 	1581550522	7.83	14.50
12/02/2020 23:35:23	120220	12022020	233523	233.78	12.166682	-57.172195	233.83	0.230	0.130	0.260	233.78	-1.20	0.50	 	 	 	 	 	 	 	 	 	 	 	 	 	 	 	 	 	 	1581550523	7.51	13.91
12/02/2020 23:35:24	120220	12022020	233524	234.08	12.166662	-57.172223	234.13	0.170	0.030	-0.270	234.08	-1.40	0.10	 	 	 	 	 	 	 	 	 	 	 	 	 	 	 	 	 	 	1581550524	7.26	13.45
12/02/2020 23:35:25	120220	12022020	233525	234.38	12.166643	-57.172253	234.41	0.090	-0.280	-0.280	234.38	-1.70	0.20	 	 	 	 	 	 	 	 	 	 	 	 	 	 	 	 	 	 	1581550525	7.35	13.61
12/02/2020 23:35:26	120220	12022020	233526	234.53	12.166627	-57.172285	234.54	-0.020	-0.580	0.230	234.53	-2.00	0.80	 	 	 	 	 	 	 	 	 	 	 	 	 	 	 	 	 	 	1581550526	7.53	13.95
12/02/2020 23:35:27	120220	12022020	233527	234.55	12.166612	-57.172317	234.57	-0.140	-0.620	0.860	234.55	-1.90	1.40	 	 	 	 	 	 	 	 	 	 	 	 	 	 	 	 	 	 	1581550527	7.66	14.19
12/02/2020 23:35:28	120220	12022020	233528	234.50	12.166597	-57.172348	234.52	-0.250	-0.350	1.390	234.50	-1.60	1.90	 	 	 	 	 	 	 	 	 	 	 	 	 	 	 	 	 	 	1581550528	7.55	13.98
12/02/2020 23:35:29	120220	12022020	233529	234.40	12.166583	-57.172378	234.45	-0.260	-0.010	1.650	234.40	-1.30	2.10	 	 	 	 	 	 	 	 	 	 	 	 	 	 	 	 	 	 	1581550529	7.27	13.46
12/02/2020 23:35:30	120220	12022020	233530	234.27	12.166567	-57.172408	234.32	-0.120	0.060	1.530	234.27	-1.30	1.90	 	 	 	 	 	 	 	 	 	 	 	 	 	 	 	 	 	 	1581550530	7.11	13.17
12/02/2020 23:35:31	120220	12022020	233531	234.15	12.166548	-57.172438	234.16	0.160	-0.190	1.140	234.13	-1.70	1.40	 	 	 	 	 	 	 	 	 	 	 	 	 	 	 	 	 	 	1581550531	7.21	13.35
12/02/2020 23:35:32	120220	12022020	233532	233.98	12.166527	-57.172468	234.00	0.420	-0.640	0.690	233.98	-2.10	1.00	 	 	 	 	 	 	 	 	 	 	 	 	 	 	 	 	 	 	1581550532	7.48	13.85
12/02/2020 23:35:33	120220	12022020	233533	233.86	12.166507	-57.172498	233.88	0.440	-0.970	0.460	233.86	-2.40	0.90	 	 	 	 	 	 	 	 	 	 	 	 	 	 	 	 	 	 	1581550533	7.73	14.32
12/02/2020 23:35:34	120220	12022020	233534	233.95	12.166487	-57.172528	234.01	0.140	-0.860	0.460	233.95	-2.10	0.90	 	 	 	 	 	 	 	 	 	 	 	 	 	 	 	 	 	 	1581550534	7.77	14.39
12/02/2020 23:35:35	120220	12022020	233535	234.35	12.166472	-57.172557	234.44	-0.320	-0.390	0.560	234.35	-1.60	1.00	 	 	 	 	 	 	 	 	 	 	 	 	 	 	 	 	 	 	1581550535	7.49	13.87
12/02/2020 23:35:36	120220	12022020	233536	234.81	12.166457	-57.172588	234.90	-0.630	0.030	0.700	234.81	-1.30	1.20	 	 	 	 	 	 	 	 	 	 	 	 	 	 	 	 	 	 	1581550536	7.15	13.24
12/02/2020 23:35:37	120220	12022020	233537	235.13	12.166440	-57.172620	235.21	-0.580	0.130	0.830	235.13	-1.20	1.30	 	 	 	 	 	 	 	 	 	 	 	 	 	 	 	 	 	 	1581550537	7.20	13.33
12/02/2020 23:35:38	120220	12022020	233538	235.26	12.166423	-57.172652	235.32	-0.270	0.110	0.850	235.26	-1.30	1.30	 	 	 	 	 	 	 	 	 	 	 	 	 	 	 	 	 	 	1581550538	7.57	14.02
12/02/2020 23:35:39	120220	12022020	233539	235.16	12.166405	-57.172683	235.19	0.080	0.160	0.800	235.16	-1.20	1.20	 	 	 	 	 	 	 	 	 	 	 	 	 	 	 	 	 	 	1581550539	7.74	14.33
12/02/2020 23:35:40	120220	12022020	233540	234.85	12.166387	-57.172712	234.86	0.260	0.210	0.820	234.85	-1.20	1.30	 	 	 	 	 	 	 	 	 	 	 	 	 	 	 	 	 	 	1581550540	7.55	13.98
12/02/2020 23:35:41	120220	12022020	233541	234.44	12.166370	-57.172742	234.45	0.270	0.090	0.900	234.44	-1.30	1.40	 	 	 	 	 	 	 	 	 	 	 	 	 	 	 	 	 	 	1581550541	7.37	13.65
12/02/2020 23:35:42	120220	12022020	233542	234.06	12.166352	-57.172772	234.06	0.230	-0.230	0.960	234.06	-1.70	1.40	 	 	 	 	 	 	 	 	 	 	 	 	 	 	 	 	 	 	1581550542	7.34	13.59
12/02/2020 23:35:43	120220	12022020	233543	233.91	12.166335	-57.172803	233.93	0.250	-0.560	0.740	233.91	-2.00	1.10	 	 	 	 	 	 	 	 	 	 	 	 	 	 	 	 	 	 	1581550543	7.47	13.83
12/02/2020 23:35:44	120220	12022020	233544	234.06	12.166315	-57.172832	234.09	0.280	-0.730	0.280	234.06	-2.10	0.60	 	 	 	 	 	 	 	 	 	 	 	 	 	 	 	 	 	 	1581550544	7.48	13.85
12/02/2020 23:35:45	120220	12022020	233545	234.26	12.166297	-57.172860	234.32	0.190	-0.850	-0.020	234.30	-2.30	0.40	 	 	 	 	 	 	 	 	 	 	 	 	 	 	 	 	 	 	1581550545	7.32	13.56
12/02/2020 23:35:46	120220	12022020	233546	234.48	12.166278	-57.172892	234.48	-0.060	-0.990	0.080	234.48	-2.40	0.60	 	 	 	 	 	 	 	 	 	 	 	 	 	 	 	 	 	 	1581550546	7.32	13.56
12/02/2020 23:35:47	120220	12022020	233547	234.52	12.166263	-57.172923	234.51	-0.350	-1.040	0.610	234.52	-2.40	1.20	 	 	 	 	 	 	 	 	 	 	 	 	 	 	 	 	 	 	1581550547	7.53	13.95
12/02/2020 23:35:48	120220	12022020	233548	234.41	12.166248	-57.172958	234.42	-0.520	-0.760	1.340	234.41	-2.00	1.90	 	 	 	 	 	 	 	 	 	 	 	 	 	 	 	 	 	 	1581550548	7.78	14.41
12/02/2020 23:35:49	120220	12022020	233549	234.37	12.166235	-57.172990	234.43	-0.530	-0.140	1.730	234.37	-1.40	2.10	 	 	 	 	 	 	 	 	 	 	 	 	 	 	 	 	 	 	1581550549	7.82	14.48
12/02/2020 23:35:50	120220	12022020	233550	234.52	12.166218	-57.173022	234.60	-0.370	0.490	1.490	234.52	-0.80	1.80	 	 	 	 	 	 	 	 	 	 	 	 	 	 	 	 	 	 	1581550550	7.55	13.98
12/02/2020 23:35:51	120220	12022020	233551	234.65	12.166200	-57.173050	234.69	-0.060	0.740	0.990	234.65	-0.70	1.30	 	 	 	 	 	 	 	 	 	 	 	 	 	 	 	 	 	 	1581550551	7.27	13.46
12/02/2020 23:35:52	120220	12022020	233552	234.53	12.166178	-57.173078	234.53	0.270	0.500	0.670	234.53	-1.00	1.10	 	 	 	 	 	 	 	 	 	 	 	 	 	 	 	 	 	 	1581550552	7.34	13.59
12/02/2020 23:35:53	120220	12022020	233553	234.21	12.166157	-57.173108	234.19	0.440	0.080	0.780	234.21	-1.40	1.30	 	 	 	 	 	 	 	 	 	 	 	 	 	 	 	 	 	 	1581550553	7.71	14.28
12/02/2020 23:35:54	120220	12022020	233554	233.81	12.166140	-57.173140	233.78	0.370	-0.180	1.340	233.81	-1.60	1.90	 	 	 	 	 	 	 	 	 	 	 	 	 	 	 	 	 	 	1581550554	7.85	14.54
12/02/2020 23:35:55	120220	12022020	233555	233.52	12.166125	-57.173173	233.48	0.170	-0.190	1.990	233.47	-1.60	2.50	 	 	 	 	 	 	 	 	 	 	 	 	 	 	 	 	 	 	1581550555	7.66	14.19
12/02/2020 23:35:56	120220	12022020	233556	233.35	12.166113	-57.173205	233.40	0.060	-0.140	2.220	233.35	-1.50	2.60	 	 	 	 	 	 	 	 	 	 	 	 	 	 	 	 	 	 	1581550556	7.43	13.76
12/02/2020 23:35:57	120220	12022020	233557	233.54	12.166098	-57.173235	233.64	0.150	-0.250	1.720	233.54	-1.70	1.90	 	 	 	 	 	 	 	 	 	 	 	 	 	 	 	 	 	 	1581550557	7.25	13.43
12/02/2020 23:35:58	120220	12022020	233558	234.14	12.166078	-57.173263	234.24	0.300	-0.590	0.500	234.14	-2.10	0.60	 	 	 	 	 	 	 	 	 	 	 	 	 	 	 	 	 	 	1581550558	7.18	13.30
12/02/2020 23:35:59	120220	12022020	233559	234.87	12.166055	-57.173290	234.93	0.270	-1.150	-0.700	234.87	-2.70	-0.40	 	 	 	 	 	 	 	 	 	 	 	 	 	 	 	 	 	 	1581550559	7.29	13.50
12/02/2020 23:36:00	120220	12022020	233600	235.26	12.166032	-57.173320	235.26	0.050	-1.740	-1.060	235.26	-3.20	-0.60	 	 	 	 	 	 	 	 	 	 	 	 	 	 	 	 	 	 	1581550560	7.58	14.04
12/02/2020 23:36:01	120220	12022020	233601	235.16	12.166013	-57.173352	235.13	-0.210	-1.950	-0.560	235.16	-3.30	0.10	1015.60	26.40	27.60	20.80	20.90	-1.0	71.0	67.0	396.0	25.7	198.00	7.60	66.00	11.30	16	11267.0	27.5	27.4	1581550561	7.86	14.56
12/02/2020 23:36:02	120220	12022020	233602	234.75	12.165997	-57.173383	234.72	-0.400	-1.340	0.430	234.75	-2.50	1.10	 	 	 	 	 	 	 	 	 	 	 	 	 	 	 	 	 	 	1581550562	7.97	14.76
12/02/2020 23:36:03	120220	12022020	233603	234.38	12.165983	-57.173415	234.41	-0.540	-0.000	1.330	234.38	-1.10	1.90	 	 	 	 	 	 	 	 	 	 	 	 	 	 	 	 	 	 	1581550563	7.72	14.30
12/02/2020 23:36:04	120220	12022020	233604	234.25	12.165970	-57.173445	234.30	-0.620	1.320	1.820	234.25	0.10	2.30	 	 	 	 	 	 	 	 	 	 	 	 	 	 	 	 	 	 	1581550564	7.25	13.43
12/02/2020 23:36:05	120220	12022020	233605	234.14	12.165953	-57.173477	234.17	-0.500	1.720	1.980	234.14	0.30	2.40	 	 	 	 	 	 	 	 	 	 	 	 	 	 	 	 	 	 	1581550565	7.01	12.98
12/02/2020 23:36:06	120220	12022020	233606	233.79	12.165935	-57.173512	233.81	-0.160	1.140	2.090	233.79	-0.40	2.50	 	 	 	 	 	 	 	 	 	 	 	 	 	 	 	 	 	 	1581550566	7.48	13.85
12/02/2020 23:36:07	120220	12022020	233607	233.45	12.165917	-57.173547	233.43	0.190	0.440	2.050	233.39	-1.00	2.40	 	 	 	 	 	 	 	 	 	 	 	 	 	 	 	 	 	 	1581550567	8.31	15.39
12/02/2020 23:36:08	120220	12022020	233608	233.40	12.165900	-57.173577	233.50	0.400	0.250	1.530	233.40	-1.10	1.70	 	 	 	 	 	 	 	 	 	 	 	 	 	 	 	 	 	 	1581550568	8.37	15.50
12/02/2020 23:36:09	120220	12022020	233609	233.98	12.165883	-57.173603	234.13	0.500	0.170	0.500	233.98	-1.30	0.60	 	 	 	 	 	 	 	 	 	 	 	 	 	 	 	 	 	 	1581550569	7.39	13.69
12/02/2020 23:36:10	120220	12022020	233610	234.76	12.165863	-57.173628	234.84	0.640	-0.540	-0.510	234.76	-2.20	-0.30	 	 	 	 	 	 	 	 	 	 	 	 	 	 	 	 	 	 	1581550570	6.59	12.20
12/02/2020 23:36:11	120220	12022020	233611	235.15	12.165842	-57.173658	235.18	0.770	-1.810	-0.850	235.15	-3.40	-0.40	 	 	 	 	 	 	 	 	 	 	 	 	 	 	 	 	 	 	1581550571	6.91	12.80
12/02/2020 23:36:12	120220	12022020	233612	235.12	12.165823	-57.173690	235.13	0.670	-2.590	-0.530	235.12	-4.00	0.00	 	 	 	 	 	 	 	 	 	 	 	 	 	 	 	 	 	 	1581550572	7.78	14.41
12/02/2020 23:36:13	120220	12022020	233613	234.91	12.165807	-57.173720	234.90	0.230	-2.210	0.070	234.91	-3.40	0.60	 	 	 	 	 	 	 	 	 	 	 	 	 	 	 	 	 	 	1581550573	7.97	14.76
12/02/2020 23:36:14	120220	12022020	233614	234.71	12.165793	-57.173750	234.71	-0.380	-1.060	0.670	234.71	-2.20	1.20	 	 	 	 	 	 	 	 	 	 	 	 	 	 	 	 	 	 	1581550574	7.32	13.56
12/02/2020 23:36:15	120220	12022020	233615	234.54	12.165778	-57.173780	234.54	-0.840	-0.080	1.260	234.54	-1.30	1.80	 	 	 	 	 	 	 	 	 	 	 	 	 	 	 	 	 	 	1581550575	6.82	12.63
12/02/2020 23:36:16	120220	12022020	233616	234.28	12.165762	-57.173813	234.29	-0.950	0.320	1.840	234.28	-1.00	2.40	 	 	 	 	 	 	 	 	 	 	 	 	 	 	 	 	 	 	1581550576	7.13	13.20
12/02/2020 23:36:17	120220	12022020	233617	234.00	12.165745	-57.173850	234.03	-0.780	0.520	2.270	234.00	-0.80	2.70	 	 	 	 	 	 	 	 	 	 	 	 	 	 	 	 	 	 	1581550577	7.97	14.76
12/02/2020 23:36:18	120220	12022020	233618	233.89	12.165728	-57.173883	233.97	-0.510	0.970	2.390	233.89	-0.30	2.80	 	 	 	 	 	 	 	 	 	 	 	 	 	 	 	 	 	 	1581550578	8.40	15.56
12/02/2020 23:36:19	120220	12022020	233619	234.02	12.165712	-57.173913	234.12	-0.280	1.420	2.120	234.02	0.10	2.40	 	 	 	 	 	 	 	 	 	 	 	 	 	 	 	 	 	 	1581550579	8.00	14.82
12/02/2020 23:36:20	120220	12022020	233620	234.23	12.165695	-57.173943	234.30	-0.010	1.380	1.550	234.23	-0.10	1.80	 	 	 	 	 	 	 	 	 	 	 	 	 	 	 	 	 	 	1581550580	7.37	13.65
12/02/2020 23:36:21	120220	12022020	233621	234.35	12.165675	-57.173972	234.41	0.370	0.700	0.920	234.37	-0.90	1.20	 	 	 	 	 	 	 	 	 	 	 	 	 	 	 	 	 	 	1581550581	7.21	13.35
12/02/2020 23:36:22	120220	12022020	233622	234.49	12.165655	-57.174002	234.52	0.730	-0.200	0.420	234.49	-1.80	0.70	 	 	 	 	 	 	 	 	 	 	 	 	 	 	 	 	 	 	1581550582	7.45	13.80
12/02/2020 23:36:23	120220	12022020	233623	234.55	12.165637	-57.174030	234.55	0.940	-1.030	0.190	234.55	-2.60	0.60	 	 	 	 	 	 	 	 	 	 	 	 	 	 	 	 	 	 	1581550583	7.48	13.85
12/02/2020 23:36:24	120220	12022020	233624	234.43	12.165620	-57.174060	234.41	0.930	-1.760	0.260	234.43	-3.30	0.70	 	 	 	 	 	 	 	 	 	 	 	 	 	 	 	 	 	 	1581550584	7.27	13.46
12/02/2020 23:36:25	120220	12022020	233625	234.22	12.165603	-57.174090	234.22	0.700	-2.250	0.470	234.22	-3.70	0.90	 	 	 	 	 	 	 	 	 	 	 	 	 	 	 	 	 	 	1581550585	7.26	13.45
12/02/2020 23:36:26	120220	12022020	233626	234.09	12.165587	-57.174122	234.11	0.300	-2.220	0.700	234.09	-3.50	1.10	 	 	 	 	 	 	 	 	 	 	 	 	 	 	 	 	 	 	1581550586	7.41	13.72
12/02/2020 23:36:27	120220	12022020	233627	234.11	12.165572	-57.174152	234.13	-0.190	-1.520	0.850	234.11	-2.70	1.30	 	 	 	 	 	 	 	 	 	 	 	 	 	 	 	 	 	 	1581550587	7.50	13.89
12/02/2020 23:36:28	120220	12022020	233628	234.19	12.165555	-57.174182	234.19	-0.640	-0.390	0.980	234.19	-1.50	1.40	 	 	 	 	 	 	 	 	 	 	 	 	 	 	 	 	 	 	1581550588	7.32	13.56
12/02/2020 23:36:29	120220	12022020	233629	234.32	12.165537	-57.174212	234.35	-0.910	0.740	1.020	234.32	-0.40	1.40	 	 	 	 	 	 	 	 	 	 	 	 	 	 	 	 	 	 	1581550589	7.14	13.22
12/02/2020 23:36:30	120220	12022020	233630	234.48	12.165518	-57.174240	234.50	-0.930	1.480	0.960	234.48	0.20	1.40	 	 	 	 	 	 	 	 	 	 	 	 	 	 	 	 	 	 	1581550590	7.20	13.33
12/02/2020 23:36:31	120220	12022020	233631	234.49	12.165500	-57.174272	234.50	-0.670	1.570	0.980	234.49	0.10	1.40	 	 	 	 	 	 	 	 	 	 	 	 	 	 	 	 	 	 	1581550591	7.43	13.76
12/02/2020 23:36:32	120220	12022020	233632	234.22	12.165480	-57.174305	234.19	-0.220	1.040	1.260	234.22	-0.50	1.70	 	 	 	 	 	 	 	 	 	 	 	 	 	 	 	 	 	 	1581550592	7.75	14.35
12/02/2020 23:36:33	120220	12022020	233633	233.89	12.165463	-57.174338	233.79	0.210	0.240	1.630	233.81	-1.30	2.10	 	 	 	 	 	 	 	 	 	 	 	 	 	 	 	 	 	 	1581550593	8.04	14.89
12/02/2020 23:36:34	120220	12022020	233634	233.38	12.165448	-57.174372	233.34	0.460	-0.490	1.910	233.38	-2.00	2.30	 	 	 	 	 	 	 	 	 	 	 	 	 	 	 	 	 	 	1581550594	8.05	14.91
12/02/2020 23:36:35	120220	12022020	233635	233.01	12.165433	-57.174403	232.92	0.560	-0.990	1.900	232.93	-2.50	2.20	 	 	 	 	 	 	 	 	 	 	 	 	 	 	 	 	 	 	1581550595	7.74	14.33
12/02/2020 23:36:36	120220	12022020	233636	232.64	12.165417	-57.174432	232.64	0.610	-1.210	1.460	232.64	-2.60	1.70	 	 	 	 	 	 	 	 	 	 	 	 	 	 	 	 	 	 	1581550596	7.39	13.69
12/02/2020 23:36:37	120220	12022020	233637	232.71	12.165398	-57.174458	232.75	0.620	-1.080	0.640	232.71	-2.40	0.80	 	 	 	 	 	 	 	 	 	 	 	 	 	 	 	 	 	 	1581550597	7.04	13.04
12/02/2020 23:36:38	120220	12022020	233638	233.20	12.165378	-57.174482	233.25	0.530	-0.750	-0.230	233.20	-2.10	0.00	 	 	 	 	 	 	 	 	 	 	 	 	 	 	 	 	 	 	1581550598	6.83	12.65
12/02/2020 23:36:39	120220	12022020	233639	233.86	12.165357	-57.174508	233.89	0.270	-0.510	-0.650	233.86	-1.90	-0.20	 	 	 	 	 	 	 	 	 	 	 	 	 	 	 	 	 	 	1581550599	6.78	12.56
12/02/2020 23:36:40	120220	12022020	233640	234.31	12.165338	-57.174537	234.29	-0.100	-0.440	-0.350	234.31	-1.80	0.20	 	 	 	 	 	 	 	 	 	 	 	 	 	 	 	 	 	 	1581550600	7.03	13.02
12/02/2020 23:36:41	120220	12022020	233641	234.28	12.165322	-57.174570	234.23	-0.430	-0.470	0.530	234.28	-1.90	1.20	 	 	 	 	 	 	 	 	 	 	 	 	 	 	 	 	 	 	1581550601	7.40	13.70
12/02/2020 23:36:42	120220	12022020	233642	233.77	12.165307	-57.174603	233.69	-0.570	-0.420	1.650	233.77	-1.80	2.30	 	 	 	 	 	 	 	 	 	 	 	 	 	 	 	 	 	 	1581550602	7.72	14.30
12/02/2020 23:36:43	120220	12022020	233643	233.02	12.165292	-57.174637	232.96	-0.520	-0.120	2.600	233.02	-1.40	3.20	 	 	 	 	 	 	 	 	 	 	 	 	 	 	 	 	 	 	1581550603	7.91	14.65
12/02/2020 23:36:44	120220	12022020	233644	232.33	12.165278	-57.174668	232.32	-0.370	0.290	3.060	232.33	-1.00	3.50	 	 	 	 	 	 	 	 	 	 	 	 	 	 	 	 	 	 	1581550604	7.77	14.39
12/02/2020 23:36:45	120220	12022020	233645	231.94	12.165262	-57.174698	231.96	-0.210	0.520	2.810	231.94	-0.90	3.10	 	 	 	 	 	 	 	 	 	 	 	 	 	 	 	 	 	 	1581550605	7.48	13.85
12/02/2020 23:36:46	120220	12022020	233646	231.92	12.165242	-57.174728	231.98	-0.020	0.400	1.960	231.92	-1.10	2.10	 	 	 	 	 	 	 	 	 	 	 	 	 	 	 	 	 	 	1581550606	7.28	13.48
12/02/2020 23:36:47	120220	12022020	233647	232.26	12.165220	-57.174755	232.33	0.200	0.010	0.800	232.26	-1.50	0.90	 	 	 	 	 	 	 	 	 	 	 	 	 	 	 	 	 	 	1581550607	7.33	13.58
12/02/2020 23:36:48	120220	12022020	233648	232.88	12.165197	-57.174782	232.95	0.400	-0.340	-0.320	232.88	-1.80	-0.10	 	 	 	 	 	 	 	 	 	 	 	 	 	 	 	 	 	 	1581550608	7.43	13.76
12/02/2020 23:36:49	120220	12022020	233649	233.61	12.165177	-57.174807	233.65	0.420	-0.510	-0.990	233.61	-1.90	-0.60	 	 	 	 	 	 	 	 	 	 	 	 	 	 	 	 	 	 	1581550609	7.38	13.67
12/02/2020 23:36:50	120220	12022020	233650	234.09	12.165158	-57.174835	234.08	0.330	-0.580	-0.960	234.09	-2.00	-0.40	 	 	 	 	 	 	 	 	 	 	 	 	 	 	 	 	 	 	1581550610	7.13	13.20
12/02/2020 23:36:51	120220	12022020	233651	234.18	12.165143	-57.174865	234.15	0.270	-0.660	-0.380	234.18	-2.10	0.20	 	 	 	 	 	 	 	 	 	 	 	 	 	 	 	 	 	 	1581550611	7.01	12.98
12/02/2020 23:36:52	120220	12022020	233652	233.99	12.165127	-57.174897	233.94	0.240	-0.680	0.500	233.99	-2.10	1.10	 	 	 	 	 	 	 	 	 	 	 	 	 	 	 	 	 	 	1581550612	7.19	13.32
12/02/2020 23:36:53	120220	12022020	233653	233.66	12.165113	-57.174928	233.64	0.130	-0.540	1.480	233.66	-1.90	2.10	 	 	 	 	 	 	 	 	 	 	 	 	 	 	 	 	 	 	1581550613	7.36	13.63
12/02/2020 23:36:54	120220	12022020	233654	233.35	12.165098	-57.174960	233.36	-0.100	-0.310	2.170	233.35	-1.60	2.70	 	 	 	 	 	 	 	 	 	 	 	 	 	 	 	 	 	 	1581550614	7.37	13.65
12/02/2020 23:36:55	120220	12022020	233655	233.05	12.165083	-57.174990	233.08	-0.320	-0.160	2.390	233.05	-1.50	2.80	 	 	 	 	 	 	 	 	 	 	 	 	 	 	 	 	 	 	1581550615	7.30	13.52
12/02/2020 23:36:56	120220	12022020	233656	232.83	12.165067	-57.175020	232.87	-0.410	-0.210	2.190	232.83	-1.60	2.50	 	 	 	 	 	 	 	 	 	 	 	 	 	 	 	 	 	 	1581550616	7.31	13.54
12/02/2020 23:36:57	120220	12022020	233657	232.84	12.165047	-57.175050	232.94	-0.350	-0.280	1.550	232.88	-1.70	1.80	 	 	 	 	 	 	 	 	 	 	 	 	 	 	 	 	 	 	1581550617	7.48	13.85
12/02/2020 23:36:58	120220	12022020	233658	233.26	12.165027	-57.175078	233.34	-0.220	-0.180	0.600	233.26	-1.50	0.80	 	 	 	 	 	 	 	 	 	 	 	 	 	 	 	 	 	 	1581550618	7.54	13.96
12/02/2020 23:36:59	120220	12022020	233659	233.88	12.165007	-57.175105	233.94	-0.090	-0.020	-0.360	233.88	-1.40	-0.10	 	 	 	 	 	 	 	 	 	 	 	 	 	 	 	 	 	 	1581550619	7.35	13.61
12/02/2020 23:37:00	120220	12022020	233700	234.44	12.164985	-57.175132	234.46	-0.000	-0.100	-0.820	234.44	-1.50	-0.40	 	 	 	 	 	 	 	 	 	 	 	 	 	 	 	 	 	 	1581550620	7.18	13.30
12/02/2020 23:37:01	120220	12022020	233701	234.71	12.164965	-57.175162	234.70	-0.010	-0.330	-0.510	234.71	-1.80	0.10	1015.70	26.30	27.60	20.80	21.20	-1.0	71.0	68.0	399.0	25.7	197.00	7.10	65.00	10.80	16	10645.0	27.5	27.4	1581550621	7.31	13.54
12/02/2020 23:37:02	120220	12022020	233702	234.61	12.164950	-57.175193	234.58	-0.060	-0.470	0.390	234.61	-1.90	1.00	 	 	 	 	 	 	 	 	 	 	 	 	 	 	 	 	 	 	1581550622	7.51	13.91
12/02/2020 23:37:03	120220	12022020	233703	234.20	12.164937	-57.175227	234.16	-0.050	-0.470	1.430	234.20	-1.80	2.00	 	 	 	 	 	 	 	 	 	 	 	 	 	 	 	 	 	 	1581550623	7.53	13.95
12/02/2020 23:37:04	120220	12022020	233704	233.62	12.164923	-57.175258	233.60	0.040	-0.290	2.130	233.62	-1.60	2.60	 	 	 	 	 	 	 	 	 	 	 	 	 	 	 	 	 	 	1581550624	7.50	13.89
12/02/2020 23:37:05	120220	12022020	233705	233.14	12.164908	-57.175288	233.16	0.130	0.060	2.270	233.14	-1.30	2.60	 	 	 	 	 	 	 	 	 	 	 	 	 	 	 	 	 	 	1581550625	7.42	13.74
12/02/2020 23:37:06	120220	12022020	233706	232.91	12.164892	-57.175318	232.94	0.170	0.250	1.990	232.91	-1.20	2.30	 	 	 	 	 	 	 	 	 	 	 	 	 	 	 	 	 	 	1581550626	7.12	13.19
12/02/2020 23:37:07	120220	12022020	233707	232.92	12.164873	-57.175347	232.98	0.200	0.070	1.440	232.92	-1.40	1.70	 	 	 	 	 	 	 	 	 	 	 	 	 	 	 	 	 	 	1581550627	7.02	13.00
12/02/2020 23:37:08	120220	12022020	233708	233.14	12.164853	-57.175375	233.20	0.200	-0.350	0.800	233.14	-1.90	1.10	 	 	 	 	 	 	 	 	 	 	 	 	 	 	 	 	 	 	1581550628	7.24	13.41
12/02/2020 23:37:09	120220	12022020	233709	233.46	12.164833	-57.175403	233.51	0.140	-0.710	0.250	233.46	-2.20	0.60	 	 	 	 	 	 	 	 	 	 	 	 	 	 	 	 	 	 	1581550629	7.47	13.83
12/02/2020 23:37:10	120220	12022020	233710	233.75	12.164815	-57.175432	233.80	0.060	-0.830	-0.120	233.75	-2.20	0.20	 	 	 	 	 	 	 	 	 	 	 	 	 	 	 	 	 	 	1581550630	7.47	13.83
12/02/2020 23:37:11	120220	12022020	233711	233.94	12.164795	-57.175460	234.03	-0.060	-0.730	-0.230	233.99	-2.10	0.20	 	 	 	 	 	 	 	 	 	 	 	 	 	 	 	 	 	 	1581550631	7.31	13.54
12/02/2020 23:37:12	120220	12022020	233712	234.26	12.164778	-57.175490	234.31	-0.250	-0.500	-0.100	234.26	-1.80	0.40	 	 	 	 	 	 	 	 	 	 	 	 	 	 	 	 	 	 	1581550632	7.20	13.33
12/02/2020 23:37:13	120220	12022020	233713	234.48	12.164762	-57.175520	234.50	-0.430	-0.270	0.240	234.48	-1.60	0.80	 	 	 	 	 	 	 	 	 	 	 	 	 	 	 	 	 	 	1581550633	7.15	13.24
12/02/2020 23:37:14	120220	12022020	233714	234.39	12.164747	-57.175550	234.37	-0.410	-0.120	0.790	234.39	-1.50	1.30	 	 	 	 	 	 	 	 	 	 	 	 	 	 	 	 	 	 	1581550634	7.19	13.32
12/02/2020 23:37:15	120220	12022020	233715	233.97	12.164730	-57.175582	233.93	-0.160	0.000	1.410	233.97	-1.40	1.90	 	 	 	 	 	 	 	 	 	 	 	 	 	 	 	 	 	 	1581550635	7.34	13.59
12/02/2020 23:37:16	120220	12022020	233716	233.43	12.164713	-57.175612	233.39	0.130	0.100	1.910	233.43	-1.30	2.40	 	 	 	 	 	 	 	 	 	 	 	 	 	 	 	 	 	 	1581550636	7.42	13.74
12/02/2020 23:37:17	120220	12022020	233717	232.93	12.164697	-57.175642	232.92	0.270	0.040	2.170	232.93	-1.40	2.60	 	 	 	 	 	 	 	 	 	 	 	 	 	 	 	 	 	 	1581550637	7.40	13.70
12/02/2020 23:37:18	120220	12022020	233718	232.52	12.164680	-57.175673	232.52	0.210	-0.180	2.270	232.52	-1.60	2.70	 	 	 	 	 	 	 	 	 	 	 	 	 	 	 	 	 	 	1581550638	7.46	13.82
12/02/2020 23:37:19	120220	12022020	233719	232.30	12.164663	-57.175707	232.34	0.050	-0.370	2.080	232.30	-1.80	2.40	 	 	 	 	 	 	 	 	 	 	 	 	 	 	 	 	 	 	1581550639	7.60	14.08
12/02/2020 23:37:20	120220	12022020	233720	232.51	12.164647	-57.175735	232.59	-0.080	-0.290	1.400	232.51	-1.70	1.60	 	 	 	 	 	 	 	 	 	 	 	 	 	 	 	 	 	 	1581550640	7.60	14.08
12/02/2020 23:37:21	120220	12022020	233721	233.14	12.164628	-57.175762	233.23	-0.110	-0.210	0.430	233.14	-1.60	0.60	 	 	 	 	 	 	 	 	 	 	 	 	 	 	 	 	 	 	1581550641	7.22	13.37
12/02/2020 23:37:22	120220	12022020	233722	233.85	12.164607	-57.175790	233.92	-0.040	-0.410	-0.440	233.85	-1.90	-0.20	 	 	 	 	 	 	 	 	 	 	 	 	 	 	 	 	 	 	1581550642	7.00	12.96
12/02/2020 23:37:23	120220	12022020	233723	234.35	12.164585	-57.175817	234.49	0.030	-0.680	-0.850	234.44	-2.10	-0.40	 	 	 	 	 	 	 	 	 	 	 	 	 	 	 	 	 	 	1581550643	7.29	13.50
12/02/2020 23:37:24	120220	12022020	233724	234.81	12.164565	-57.175847	234.83	-0.050	-0.700	-0.540	234.81	-2.10	0.00	 	 	 	 	 	 	 	 	 	 	 	 	 	 	 	 	 	 	1581550644	7.54	13.96
12/02/2020 23:37:25	120220	12022020	233725	234.76	12.164550	-57.175877	234.66	-0.200	-0.570	0.350	234.68	-1.90	1.00	 	 	 	 	 	 	 	 	 	 	 	 	 	 	 	 	 	 	1581550645	7.38	13.67
12/02/2020 23:37:26	120220	12022020	233726	234.03	12.164537	-57.175908	233.98	-0.230	-0.360	1.540	234.03	-1.70	2.20	 	 	 	 	 	 	 	 	 	 	 	 	 	 	 	 	 	 	1581550646	7.25	13.43
12/02/2020 23:37:27	120220	12022020	233727	233.20	12.164523	-57.175942	233.17	-0.080	0.010	2.630	233.20	-1.30	3.20	 	 	 	 	 	 	 	 	 	 	 	 	 	 	 	 	 	 	1581550647	7.41	13.72
12/02/2020 23:37:28	120220	12022020	233728	232.56	12.164510	-57.175973	232.58	0.160	0.380	3.230	232.56	-1.00	3.70	 	 	 	 	 	 	 	 	 	 	 	 	 	 	 	 	 	 	1581550648	7.41	13.72
12/02/2020 23:37:29	120220	12022020	233729	232.26	12.164495	-57.176003	232.31	0.340	0.390	3.120	232.26	-1.10	3.40	 	 	 	 	 	 	 	 	 	 	 	 	 	 	 	 	 	 	1581550649	7.30	13.52
12/02/2020 23:37:30	120220	12022020	233730	232.31	12.164475	-57.176033	232.40	0.380	-0.020	2.460	232.31	-1.50	2.70	 	 	 	 	 	 	 	 	 	 	 	 	 	 	 	 	 	 	1581550650	7.34	13.59
12/02/2020 23:37:31	120220	12022020	233731	232.74	12.164455	-57.176062	232.84	0.270	-0.500	1.530	232.74	-2.00	1.70	 	 	 	 	 	 	 	 	 	 	 	 	 	 	 	 	 	 	1581550651	7.56	14.00
12/02/2020 23:37:32	120220	12022020	233732	233.47	12.164433	-57.176090	233.58	0.040	-0.740	0.550	233.47	-2.20	0.70	 	 	 	 	 	 	 	 	 	 	 	 	 	 	 	 	 	 	1581550652	7.58	14.04
12/02/2020 23:37:33	120220	12022020	233733	234.16	12.164415	-57.176117	234.21	-0.190	-0.890	-0.210	234.16	-2.30	0.10	 	 	 	 	 	 	 	 	 	 	 	 	 	 	 	 	 	 	1581550653	7.27	13.46
12/02/2020 23:37:34	120220	12022020	233734	234.50	12.164395	-57.176147	234.52	-0.340	-1.040	-0.450	234.50	-2.40	-0.00	 	 	 	 	 	 	 	 	 	 	 	 	 	 	 	 	 	 	1581550654	7.17	13.28
12/02/2020 23:37:35	120220	12022020	233735	234.50	12.164377	-57.176175	234.48	-0.430	-0.930	-0.230	234.50	-2.20	0.30	 	 	 	 	 	 	 	 	 	 	 	 	 	 	 	 	 	 	1581550655	7.38	13.67
12/02/2020 23:37:36	120220	12022020	233736	234.24	12.164360	-57.176205	234.19	-0.490	-0.460	0.350	234.24	-1.70	0.90	 	 	 	 	 	 	 	 	 	 	 	 	 	 	 	 	 	 	1581550656	7.43	13.76
12/02/2020 23:37:37	120220	12022020	233737	233.85	12.164343	-57.176235	233.81	-0.490	0.130	0.990	233.85	-1.20	1.50	 	 	 	 	 	 	 	 	 	 	 	 	 	 	 	 	 	 	1581550657	7.23	13.39
12/02/2020 23:37:38	120220	12022020	233738	233.50	12.164328	-57.176267	233.50	-0.350	0.560	1.460	233.50	-0.80	1.90	 	 	 	 	 	 	 	 	 	 	 	 	 	 	 	 	 	 	1581550658	7.18	13.30
12/02/2020 23:37:39	120220	12022020	233739	233.29	12.164313	-57.176297	233.30	-0.050	0.760	1.750	233.29	-0.60	2.20	 	 	 	 	 	 	 	 	 	 	 	 	 	 	 	 	 	 	1581550659	7.29	13.50
12/02/2020 23:37:40	120220	12022020	233740	233.18	12.164297	-57.176328	233.21	0.300	0.670	1.850	233.18	-0.80	2.20	 	 	 	 	 	 	 	 	 	 	 	 	 	 	 	 	 	 	1581550660	7.37	13.65
12/02/2020 23:37:41	120220	12022020	233741	233.17	12.164278	-57.176357	233.20	0.590	0.240	1.660	233.17	-1.30	2.00	 	 	 	 	 	 	 	 	 	 	 	 	 	 	 	 	 	 	1581550661	7.38	13.67
12/02/2020 23:37:42	120220	12022020	233742	233.26	12.164258	-57.176387	233.29	0.670	-0.480	1.300	233.26	-2.00	1.60	 	 	 	 	 	 	 	 	 	 	 	 	 	 	 	 	 	 	1581550662	7.40	13.70
12/02/2020 23:37:43	120220	12022020	233743	233.37	12.164240	-57.176417	233.41	0.500	-1.130	1.000	233.37	-2.60	1.40	 	 	 	 	 	 	 	 	 	 	 	 	 	 	 	 	 	 	1581550663	7.53	13.95
12/02/2020 23:37:44	120220	12022020	233744	233.47	12.164223	-57.176447	233.51	0.170	-1.330	0.770	233.47	-2.70	1.10	 	 	 	 	 	 	 	 	 	 	 	 	 	 	 	 	 	 	1581550664	7.59	14.06
12/02/2020 23:37:45	120220	12022020	233745	233.63	12.164207	-57.176475	233.65	-0.140	-1.020	0.520	233.63	-2.30	0.90	 	 	 	 	 	 	 	 	 	 	 	 	 	 	 	 	 	 	1581550665	7.33	13.58
12/02/2020 23:37:46	120220	12022020	233746	233.80	12.164190	-57.176503	233.83	-0.290	-0.550	0.280	233.80	-1.90	0.60	 	 	 	 	 	 	 	 	 	 	 	 	 	 	 	 	 	 	1581550666	6.98	12.93
12/02/2020 23:37:47	120220	12022020	233747	233.88	12.164172	-57.176532	233.92	-0.270	-0.200	0.160	233.90	-1.50	0.60	 	 	 	 	 	 	 	 	 	 	 	 	 	 	 	 	 	 	1581550667	6.87	12.72
12/02/2020 23:37:48	120220	12022020	233748	233.94	12.164153	-57.176562	233.94	-0.220	-0.050	0.310	233.94	-1.40	0.80	 	 	 	 	 	 	 	 	 	 	 	 	 	 	 	 	 	 	1581550668	7.12	13.19
12/02/2020 23:37:49	120220	12022020	233749	233.82	12.164135	-57.176592	233.80	-0.220	-0.080	0.780	233.82	-1.50	1.30	 	 	 	 	 	 	 	 	 	 	 	 	 	 	 	 	 	 	1581550669	7.40	13.70
12/02/2020 23:37:50	120220	12022020	233750	233.53	12.164118	-57.176623	233.52	-0.220	-0.130	1.390	233.53	-1.50	1.90	 	 	 	 	 	 	 	 	 	 	 	 	 	 	 	 	 	 	1581550670	7.63	14.13
12/02/2020 23:37:51	120220	12022020	233751	233.29	12.164102	-57.176655	233.30	-0.190	-0.010	1.770	233.29	-1.40	2.20	 	 	 	 	 	 	 	 	 	 	 	 	 	 	 	 	 	 	1581550671	7.72	14.30
12/02/2020 23:37:52	120220	12022020	233752	233.16	12.164085	-57.176685	233.19	-0.110	0.180	1.830	233.16	-1.20	2.20	 	 	 	 	 	 	 	 	 	 	 	 	 	 	 	 	 	 	1581550672	7.51	13.91
12/02/2020 23:37:53	120220	12022020	233753	233.12	12.164068	-57.176715	233.16	0.020	0.210	1.600	233.12	-1.20	1.90	 	 	 	 	 	 	 	 	 	 	 	 	 	 	 	 	 	 	1581550673	7.24	13.41
12/02/2020 23:37:54	120220	12022020	233754	233.15	12.164048	-57.176743	233.20	0.210	-0.070	1.190	233.15	-1.60	1.50	 	 	 	 	 	 	 	 	 	 	 	 	 	 	 	 	 	 	1581550674	7.20	13.33
12/02/2020 23:37:55	120220	12022020	233755	233.21	12.164030	-57.176773	233.25	0.390	-0.500	0.840	233.21	-2.00	1.20	 	 	 	 	 	 	 	 	 	 	 	 	 	 	 	 	 	 	1581550675	7.40	13.70
12/02/2020 23:37:56	120220	12022020	233756	233.30	12.164012	-57.176803	233.33	0.420	-0.660	0.640	233.30	-2.00	1.00	 	 	 	 	 	 	 	 	 	 	 	 	 	 	 	 	 	 	1581550676	7.62	14.11
12/02/2020 23:37:57	120220	12022020	233757	233.40	12.163993	-57.176832	233.42	0.280	-0.500	0.550	233.40	-1.90	1.00	 	 	 	 	 	 	 	 	 	 	 	 	 	 	 	 	 	 	1581550677	7.47	13.83
12/02/2020 23:37:58	120220	12022020	233758	233.38	12.163977	-57.176860	233.39	0.030	-0.350	0.650	233.38	-1.70	1.10	 	 	 	 	 	 	 	 	 	 	 	 	 	 	 	 	 	 	1581550678	7.07	13.09
12/02/2020 23:37:59	120220	12022020	233759	233.37	12.163960	-57.176890	233.43	-0.210	-0.310	0.800	233.39	-1.70	1.20	 	 	 	 	 	 	 	 	 	 	 	 	 	 	 	 	 	 	1581550679	7.05	13.06
12/02/2020 23:38:00	120220	12022020	233800	233.63	12.163943	-57.176920	233.70	-0.350	-0.320	0.770	233.63	-1.70	1.20	 	 	 	 	 	 	 	 	 	 	 	 	 	 	 	 	 	 	1581550680	7.29	13.50
12/02/2020 23:38:01	120220	12022020	233801	233.93	12.163925	-57.176950	234.07	-0.340	-0.380	0.600	234.00	-1.80	1.00	1015.70	26.40	27.20	21.00	21.10	-1.0	72.0	69.0	402.0	25.7	201.00	6.70	67.00	10.30	16	11391.0	27.5	27.4	1581550681	7.35	13.61
12/02/2020 23:38:02	120220	12022020	233802	234.19	12.163907	-57.176980	234.22	-0.140	-0.500	0.550	234.19	-1.90	1.00	 	 	 	 	 	 	 	 	 	 	 	 	 	 	 	 	 	 	1581550682	7.39	13.69
12/02/2020 23:38:03	120220	12022020	233803	234.06	12.163888	-57.177010	234.07	0.110	-0.500	0.780	234.06	-1.90	1.30	 	 	 	 	 	 	 	 	 	 	 	 	 	 	 	 	 	 	1581550683	7.50	13.89
12/02/2020 23:38:04	120220	12022020	233804	233.77	12.163870	-57.177040	233.78	0.180	-0.240	1.030	233.77	-1.60	1.50	 	 	 	 	 	 	 	 	 	 	 	 	 	 	 	 	 	 	1581550684	7.54	13.96
12/02/2020 23:38:05	120220	12022020	233805	233.51	12.163852	-57.177068	233.51	0.080	0.110	1.210	233.51	-1.20	1.70	 	 	 	 	 	 	 	 	 	 	 	 	 	 	 	 	 	 	1581550685	7.33	13.58
12/02/2020 23:38:06	120220	12022020	233806	233.31	12.163835	-57.177098	233.34	-0.020	0.230	1.360	233.31	-1.20	1.80	 	 	 	 	 	 	 	 	 	 	 	 	 	 	 	 	 	 	1581550686	7.16	13.26
12/02/2020 23:38:07	120220	12022020	233807	233.29	12.163818	-57.177130	233.35	-0.050	0.100	1.370	233.29	-1.30	1.70	 	 	 	 	 	 	 	 	 	 	 	 	 	 	 	 	 	 	1581550687	7.30	13.52
12/02/2020 23:38:08	120220	12022020	233808	233.48	12.163802	-57.177162	233.56	-0.040	-0.090	1.170	233.48	-1.50	1.50	 	 	 	 	 	 	 	 	 	 	 	 	 	 	 	 	 	 	1581550688	7.50	13.89
12/02/2020 23:38:09	120220	12022020	233809	233.78	12.163785	-57.177192	233.84	-0.010	-0.300	0.920	233.78	-1.80	1.30	 	 	 	 	 	 	 	 	 	 	 	 	 	 	 	 	 	 	1581550689	7.53	13.95
12/02/2020 23:38:10	120220	12022020	233810	234.05	12.163768	-57.177223	234.09	0.080	-0.590	0.660	234.05	-2.10	1.00	 	 	 	 	 	 	 	 	 	 	 	 	 	 	 	 	 	 	1581550690	7.47	13.83
12/02/2020 23:38:11	120220	12022020	233811	234.19	12.163750	-57.177253	234.22	0.230	-0.790	0.390	234.19	-2.20	0.70	 	 	 	 	 	 	 	 	 	 	 	 	 	 	 	 	 	 	1581550691	7.48	13.85
12/02/2020 23:38:12	120220	12022020	233812	234.33	12.163730	-57.177282	234.35	0.250	-0.670	0.050	234.33	-2.00	0.40	 	 	 	 	 	 	 	 	 	 	 	 	 	 	 	 	 	 	1581550692	7.50	13.89
12/02/2020 23:38:13	120220	12022020	233813	234.42	12.163712	-57.177308	234.43	0.050	-0.350	-0.180	234.43	-1.70	0.20	 	 	 	 	 	 	 	 	 	 	 	 	 	 	 	 	 	 	1581550693	7.29	13.50
12/02/2020 23:38:14	120220	12022020	233814	234.30	12.163692	-57.177337	234.27	-0.180	-0.090	-0.020	234.30	-1.50	0.50	 	 	 	 	 	 	 	 	 	 	 	 	 	 	 	 	 	 	1581550694	7.08	13.11
12/02/2020 23:38:15	120220	12022020	233815	234.02	12.163675	-57.177365	233.92	-0.250	0.070	0.540	233.94	-1.30	1.10	 	 	 	 	 	 	 	 	 	 	 	 	 	 	 	 	 	 	1581550695	7.14	13.22
12/02/2020 23:38:16	120220	12022020	233816	233.65	12.163658	-57.177397	233.65	-0.190	0.140	1.160	233.65	-1.30	1.70	 	 	 	 	 	 	 	 	 	 	 	 	 	 	 	 	 	 	1581550696	7.33	13.58
12/02/2020 23:38:17	120220	12022020	233817	233.54	12.163643	-57.177428	233.56	-0.080	0.010	1.670	233.54	-1.50	2.20	 	 	 	 	 	 	 	 	 	 	 	 	 	 	 	 	 	 	1581550697	7.42	13.74
12/02/2020 23:38:18	120220	12022020	233818	233.50	12.163628	-57.177463	233.52	0.070	-0.380	2.070	233.50	-1.90	2.50	 	 	 	 	 	 	 	 	 	 	 	 	 	 	 	 	 	 	1581550698	7.53	13.95
12/02/2020 23:38:19	120220	12022020	233819	233.34	12.163613	-57.177497	233.35	0.260	-0.850	2.270	233.34	-2.30	2.70	 	 	 	 	 	 	 	 	 	 	 	 	 	 	 	 	 	 	1581550699	7.78	14.41
12/02/2020 23:38:20	120220	12022020	233820	233.13	12.163597	-57.177528	233.14	0.360	-0.960	2.150	233.13	-2.30	2.50	 	 	 	 	 	 	 	 	 	 	 	 	 	 	 	 	 	 	1581550700	7.93	14.69
12/02/2020 23:38:21	120220	12022020	233821	233.09	12.163578	-57.177558	233.15	0.230	-0.510	1.680	233.09	-1.80	2.00	 	 	 	 	 	 	 	 	 	 	 	 	 	 	 	 	 	 	1581550701	7.73	14.32
12/02/2020 23:38:22	120220	12022020	233822	233.32	12.163560	-57.177583	233.39	-0.160	0.110	1.040	233.32	-1.20	1.30	 	 	 	 	 	 	 	 	 	 	 	 	 	 	 	 	 	 	1581550702	7.20	13.33
12/02/2020 23:38:23	120220	12022020	233823	233.69	12.163542	-57.177612	233.76	-0.530	0.420	0.450	233.69	-1.00	0.70	 	 	 	 	 	 	 	 	 	 	 	 	 	 	 	 	 	 	1581550703	6.87	12.72
12/02/2020 23:38:24	120220	12022020	233824	234.06	12.163520	-57.177640	234.13	-0.560	0.280	-0.030	234.06	-1.20	0.30	 	 	 	 	 	 	 	 	 	 	 	 	 	 	 	 	 	 	1581550704	7.03	13.02
12/02/2020 23:38:25	120220	12022020	233825	234.39	12.163500	-57.177668	234.45	-0.220	-0.120	-0.310	234.39	-1.60	0.10	 	 	 	 	 	 	 	 	 	 	 	 	 	 	 	 	 	 	1581550705	7.43	13.76
12/02/2020 23:38:26	120220	12022020	233826	234.49	12.163480	-57.177698	234.51	0.240	-0.570	-0.160	234.49	-2.10	0.40	 	 	 	 	 	 	 	 	 	 	 	 	 	 	 	 	 	 	1581550706	7.64	14.15
12/02/2020 23:38:27	120220	12022020	233827	234.20	12.163462	-57.177730	234.18	0.530	-0.900	0.440	234.20	-2.30	1.00	 	 	 	 	 	 	 	 	 	 	 	 	 	 	 	 	 	 	1581550707	7.65	14.17
12/02/2020 23:38:28	120220	12022020	233828	233.73	12.163445	-57.177762	233.74	0.510	-0.880	1.240	233.73	-2.20	1.80	 	 	 	 	 	 	 	 	 	 	 	 	 	 	 	 	 	 	1581550708	7.63	14.13
12/02/2020 23:38:29	120220	12022020	233829	233.33	12.163432	-57.177792	233.35	0.210	-0.480	1.960	233.33	-1.80	2.50	 	 	 	 	 	 	 	 	 	 	 	 	 	 	 	 	 	 	1581550709	7.53	13.95
12/02/2020 23:38:30	120220	12022020	233830	233.08	12.163418	-57.177823	233.11	-0.190	0.050	2.420	233.08	-1.30	2.90	 	 	 	 	 	 	 	 	 	 	 	 	 	 	 	 	 	 	1581550710	7.30	13.52
12/02/2020 23:38:31	120220	12022020	233831	232.97	12.163403	-57.177855	233.03	-0.400	0.340	2.490	232.97	-1.10	2.80	 	 	 	 	 	 	 	 	 	 	 	 	 	 	 	 	 	 	1581550711	7.18	13.30
12/02/2020 23:38:32	120220	12022020	233832	233.10	12.163387	-57.177887	233.18	-0.300	0.270	2.040	233.10	-1.20	2.30	 	 	 	 	 	 	 	 	 	 	 	 	 	 	 	 	 	 	1581550712	7.35	13.61
12/02/2020 23:38:33	120220	12022020	233833	233.52	12.163368	-57.177917	233.60	-0.000	0.030	1.160	233.52	-1.40	1.40	 	 	 	 	 	 	 	 	 	 	 	 	 	 	 	 	 	 	1581550713	7.55	13.98
12/02/2020 23:38:34	120220	12022020	233834	234.05	12.163347	-57.177945	234.12	0.240	-0.260	0.210	234.05	-1.70	0.40	 	 	 	 	 	 	 	 	 	 	 	 	 	 	 	 	 	 	1581550714	7.58	14.04
12/02/2020 23:38:35	120220	12022020	233835	234.48	12.163325	-57.177972	234.51	0.270	-0.510	-0.550	234.48	-2.00	-0.20	 	 	 	 	 	 	 	 	 	 	 	 	 	 	 	 	 	 	1581550715	7.51	13.91
12/02/2020 23:38:36	120220	12022020	233836	234.65	12.163305	-57.178000	234.65	0.110	-0.650	-0.670	234.65	-2.10	-0.20	 	 	 	 	 	 	 	 	 	 	 	 	 	 	 	 	 	 	1581550716	7.41	13.72
12/02/2020 23:38:37	120220	12022020	233837	234.56	12.163288	-57.178030	234.48	-0.040	-0.740	-0.140	234.51	-2.20	0.50	 	 	 	 	 	 	 	 	 	 	 	 	 	 	 	 	 	 	1581550717	7.29	13.50
12/02/2020 23:38:38	120220	12022020	233838	234.24	12.163272	-57.178062	234.23	-0.060	-0.710	0.590	234.24	-2.10	1.20	 	 	 	 	 	 	 	 	 	 	 	 	 	 	 	 	 	 	1581550718	7.35	13.61
12/02/2020 23:38:39	120220	12022020	233839	234.09	12.163257	-57.178093	234.11	0.020	-0.460	1.160	234.09	-1.80	1.70	 	 	 	 	 	 	 	 	 	 	 	 	 	 	 	 	 	 	1581550719	7.49	13.87
12/02/2020 23:38:40	120220	12022020	233840	234.11	12.163242	-57.178123	234.15	0.080	-0.130	1.440	234.11	-1.50	1.90	 	 	 	 	 	 	 	 	 	 	 	 	 	 	 	 	 	 	1581550720	7.40	13.70
12/02/2020 23:38:41	120220	12022020	233841	234.31	12.163225	-57.178153	234.37	0.030	0.110	1.420	234.31	-1.30	1.80	 	 	 	 	 	 	 	 	 	 	 	 	 	 	 	 	 	 	1581550721	7.31	13.54
12/02/2020 23:38:42	120220	12022020	233842	234.49	12.163208	-57.178185	234.53	-0.060	0.080	1.430	234.49	-1.40	1.90	 	 	 	 	 	 	 	 	 	 	 	 	 	 	 	 	 	 	1581550722	7.31	13.54
12/02/2020 23:38:43	120220	12022020	233843	234.37	12.163192	-57.178217	234.36	-0.090	-0.170	1.690	234.37	-1.60	2.10	 	 	 	 	 	 	 	 	 	 	 	 	 	 	 	 	 	 	1581550723	7.47	13.83
12/02/2020 23:38:44	120220	12022020	233844	234.04	12.163175	-57.178250	234.03	-0.030	-0.190	1.820	234.04	-1.50	2.20	 	 	 	 	 	 	 	 	 	 	 	 	 	 	 	 	 	 	1581550724	7.75	14.35
12/02/2020 23:38:45	120220	12022020	233845	233.88	12.163157	-57.178278	233.89	0.030	0.050	1.400	233.88	-1.30	1.60	 	 	 	 	 	 	 	 	 	 	 	 	 	 	 	 	 	 	1581550725	7.65	14.17
12/02/2020 23:38:46	120220	12022020	233846	234.05	12.163137	-57.178305	234.08	0.030	0.070	0.610	234.05	-1.40	0.90	 	 	 	 	 	 	 	 	 	 	 	 	 	 	 	 	 	 	1581550726	7.17	13.28
12/02/2020 23:38:47	120220	12022020	233847	234.28	12.163117	-57.178333	234.31	0.000	-0.390	0.100	234.28	-1.90	0.50	 	 	 	 	 	 	 	 	 	 	 	 	 	 	 	 	 	 	1581550727	7.11	13.17
12/02/2020 23:38:48	120220	12022020	233848	234.34	12.163097	-57.178365	234.34	-0.030	-0.920	0.090	234.34	-2.40	0.60	 	 	 	 	 	 	 	 	 	 	 	 	 	 	 	 	 	 	1581550728	7.52	13.93
12/02/2020 23:38:49	120220	12022020	233849	234.32	12.163082	-57.178397	234.33	-0.050	-0.980	0.450	234.31	-2.30	1.00	 	 	 	 	 	 	 	 	 	 	 	 	 	 	 	 	 	 	1581550729	7.84	14.52
12/02/2020 23:38:50	120220	12022020	233850	234.33	12.163068	-57.178428	234.36	-0.040	-0.500	0.910	234.33	-1.80	1.40	 	 	 	 	 	 	 	 	 	 	 	 	 	 	 	 	 	 	1581550730	7.60	14.08
12/02/2020 23:38:51	120220	12022020	233851	234.37	12.163053	-57.178457	234.39	0.030	0.050	1.190	234.38	-1.30	1.60	 	 	 	 	 	 	 	 	 	 	 	 	 	 	 	 	 	 	1581550731	7.13	13.20
12/02/2020 23:38:52	120220	12022020	233852	234.31	12.163037	-57.178487	234.30	0.140	0.170	1.240	234.31	-1.30	1.60	 	 	 	 	 	 	 	 	 	 	 	 	 	 	 	 	 	 	1581550732	6.94	12.85
12/02/2020 23:38:53	120220	12022020	233853	234.11	12.163018	-57.178518	234.10	0.240	-0.120	1.150	234.11	-1.60	1.50	 	 	 	 	 	 	 	 	 	 	 	 	 	 	 	 	 	 	1581550733	7.24	13.41
12/02/2020 23:38:54	120220	12022020	233854	233.89	12.162997	-57.178548	233.89	0.220	-0.410	0.970	233.89	-1.80	1.30	 	 	 	 	 	 	 	 	 	 	 	 	 	 	 	 	 	 	1581550734	7.72	14.30
12/02/2020 23:38:55	120220	12022020	233855	233.73	12.162978	-57.178578	233.73	0.060	-0.380	0.850	233.73	-1.70	1.30	 	 	 	 	 	 	 	 	 	 	 	 	 	 	 	 	 	 	1581550735	7.83	14.50
12/02/2020 23:38:56	120220	12022020	233856	233.67	12.162962	-57.178608	233.69	-0.120	-0.080	0.840	233.67	-1.40	1.20	 	 	 	 	 	 	 	 	 	 	 	 	 	 	 	 	 	 	1581550736	7.52	13.93
12/02/2020 23:38:57	120220	12022020	233857	233.79	12.162945	-57.178637	233.84	-0.180	0.170	0.790	233.79	-1.20	1.20	 	 	 	 	 	 	 	 	 	 	 	 	 	 	 	 	 	 	1581550737	7.19	13.32
12/02/2020 23:38:58	120220	12022020	233858	233.98	12.162928	-57.178668	234.02	-0.120	0.020	0.750	233.98	-1.50	1.10	 	 	 	 	 	 	 	 	 	 	 	 	 	 	 	 	 	 	1581550738	7.07	13.09
12/02/2020 23:38:59	120220	12022020	233859	234.13	12.162912	-57.178700	234.19	-0.010	-0.420	0.740	234.13	-1.90	1.10	 	 	 	 	 	 	 	 	 	 	 	 	 	 	 	 	 	 	1581550739	7.38	13.67
12/02/2020 23:39:00	120220	12022020	233900	234.24	12.162893	-57.178730	234.30	0.010	-0.670	0.800	234.24	-2.10	1.20	 	 	 	 	 	 	 	 	 	 	 	 	 	 	 	 	 	 	1581550740	7.74	14.33
12/02/2020 23:39:01	120220	12022020	233901	234.26	12.162877	-57.178760	234.29	-0.040	-0.680	0.940	234.26	-2.10	1.40	1015.70	26.40	26.80	21.10	21.10	-1.0	72.0	71.0	404.0	25.7	203.00	7.10	69.00	10.80	16	11129.0	27.5	27.4	1581550741	7.63	14.13
12/02/2020 23:39:02	120220	12022020	233902	234.08	12.162858	-57.178790	234.09	-0.070	-0.720	1.160	234.08	-2.10	1.60	 	 	 	 	 	 	 	 	 	 	 	 	 	 	 	 	 	 	1581550742	7.32	13.56
12/02/2020 23:39:03	120220	12022020	233903	233.87	12.162842	-57.178822	233.85	-0.060	-0.770	1.270	233.83	-2.20	1.70	 	 	 	 	 	 	 	 	 	 	 	 	 	 	 	 	 	 	1581550743	7.39	13.69
12/02/2020 23:39:04	120220	12022020	233904	233.71	12.162823	-57.178852	233.74	-0.070	-0.520	1.130	233.71	-1.80	1.50	 	 	 	 	 	 	 	 	 	 	 	 	 	 	 	 	 	 	1581550744	7.62	14.11
12/02/2020 23:39:05	120220	12022020	233905	233.76	12.162805	-57.178882	233.82	-0.120	0.050	0.770	233.79	-1.20	1.10	 	 	 	 	 	 	 	 	 	 	 	 	 	 	 	 	 	 	1581550745	7.51	13.91
12/02/2020 23:39:06	120220	12022020	233906	233.83	12.162787	-57.178908	233.84	-0.070	0.510	0.530	233.83	-0.90	0.90	 	 	 	 	 	 	 	 	 	 	 	 	 	 	 	 	 	 	1581550746	7.14	13.22
12/02/2020 23:39:07	120220	12022020	233907	233.79	12.162768	-57.178938	233.80	0.120	0.540	0.660	233.79	-0.90	1.20	 	 	 	 	 	 	 	 	 	 	 	 	 	 	 	 	 	 	1581550747	7.09	13.13
12/02/2020 23:39:08	120220	12022020	233908	233.72	12.162750	-57.178970	233.74	0.260	0.240	1.120	233.72	-1.30	1.70	 	 	 	 	 	 	 	 	 	 	 	 	 	 	 	 	 	 	1581550748	7.41	13.72
12/02/2020 23:39:09	120220	12022020	233909	233.64	12.162735	-57.179003	233.68	0.170	-0.140	1.700	233.64	-1.60	2.20	 	 	 	 	 	 	 	 	 	 	 	 	 	 	 	 	 	 	1581550749	7.73	14.32
12/02/2020 23:39:10	120220	12022020	233910	233.53	12.162722	-57.179037	233.58	-0.050	-0.430	2.080	233.53	-1.90	2.50	 	 	 	 	 	 	 	 	 	 	 	 	 	 	 	 	 	 	1581550750	7.78	14.41
12/02/2020 23:39:11	120220	12022020	233911	233.52	12.162707	-57.179068	233.57	-0.180	-0.520	1.920	233.52	-1.90	2.20	 	 	 	 	 	 	 	 	 	 	 	 	 	 	 	 	 	 	1581550751	7.65	14.17
12/02/2020 23:39:12	120220	12022020	233912	233.70	12.162690	-57.179097	233.76	-0.090	-0.530	1.160	233.70	-2.00	1.30	 	 	 	 	 	 	 	 	 	 	 	 	 	 	 	 	 	 	1581550752	7.37	13.65
12/02/2020 23:39:13	120220	12022020	233913	234.00	12.162668	-57.179123	234.05	0.140	-0.720	0.090	234.00	-2.20	0.30	 	 	 	 	 	 	 	 	 	 	 	 	 	 	 	 	 	 	1581550753	7.07	13.09
12/02/2020 23:39:14	120220	12022020	233914	234.33	12.162645	-57.179152	234.37	0.260	-1.040	-0.740	234.33	-2.50	-0.40	 	 	 	 	 	 	 	 	 	 	 	 	 	 	 	 	 	 	1581550754	7.27	13.46
12/02/2020 23:39:15	120220	12022020	233915	234.46	12.162623	-57.179180	234.46	0.150	-1.200	-0.810	234.46	-2.60	-0.30	 	 	 	 	 	 	 	 	 	 	 	 	 	 	 	 	 	 	1581550755	7.64	14.15
12/02/2020 23:39:16	120220	12022020	233916	234.24	12.162605	-57.179210	234.22	-0.100	-1.030	-0.120	234.24	-2.30	0.50	 	 	 	 	 	 	 	 	 	 	 	 	 	 	 	 	 	 	1581550756	7.69	14.24
12/02/2020 23:39:17	120220	12022020	233917	233.80	12.162588	-57.179242	233.78	-0.360	-0.410	0.910	233.80	-1.60	1.60	 	 	 	 	 	 	 	 	 	 	 	 	 	 	 	 	 	 	1581550757	7.63	14.13
12/02/2020 23:39:18	120220	12022020	233918	233.33	12.162575	-57.179273	233.34	-0.560	0.520	1.850	233.33	-0.70	2.40	 	 	 	 	 	 	 	 	 	 	 	 	 	 	 	 	 	 	1581550758	7.50	13.89
12/02/2020 23:39:19	120220	12022020	233919	233.09	12.162563	-57.179305	233.13	-0.650	1.220	2.350	233.09	-0.10	2.80	 	 	 	 	 	 	 	 	 	 	 	 	 	 	 	 	 	 	1581550759	7.29	13.50
12/02/2020 23:39:20	120220	12022020	233920	233.10	12.162548	-57.179338	233.16	-0.510	1.170	2.330	233.10	-0.40	2.70	 	 	 	 	 	 	 	 	 	 	 	 	 	 	 	 	 	 	1581550760	7.27	13.46
12/02/2020 23:39:21	120220	12022020	233921	233.20	12.162532	-57.179372	233.24	-0.100	0.510	1.840	233.20	-1.10	2.10	 	 	 	 	 	 	 	 	 	 	 	 	 	 	 	 	 	 	1581550761	7.62	14.11
12/02/2020 23:39:22	120220	12022020	233922	233.30	12.162512	-57.179403	233.32	0.450	-0.190	1.030	233.30	-1.70	1.20	 	 	 	 	 	 	 	 	 	 	 	 	 	 	 	 	 	 	1581550762	7.97	14.76
12/02/2020 23:39:23	120220	12022020	233923	233.40	12.162492	-57.179430	233.41	0.820	-0.610	0.190	233.40	-2.10	0.40	 	 	 	 	 	 	 	 	 	 	 	 	 	 	 	 	 	 	1581550763	7.81	14.46
12/02/2020 23:39:24	120220	12022020	233924	233.52	12.162472	-57.179457	233.54	0.800	-0.890	-0.400	233.52	-2.40	-0.10	 	 	 	 	 	 	 	 	 	 	 	 	 	 	 	 	 	 	1581550764	7.32	13.56
12/02/2020 23:39:25	120220	12022020	233925	233.66	12.162452	-57.179483	233.66	0.440	-1.210	-0.540	233.66	-2.70	-0.10	 	 	 	 	 	 	 	 	 	 	 	 	 	 	 	 	 	 	1581550765	7.08	13.11
12/02/2020 23:39:26	120220	12022020	233926	233.77	12.162433	-57.179513	233.79	-0.000	-1.350	-0.280	233.77	-2.70	0.20	 	 	 	 	 	 	 	 	 	 	 	 	 	 	 	 	 	 	1581550766	7.21	13.35
12/02/2020 23:39:27	120220	12022020	233927	233.89	12.162417	-57.179543	233.96	-0.320	-1.070	0.120	233.92	-2.40	0.60	 	 	 	 	 	 	 	 	 	 	 	 	 	 	 	 	 	 	1581550767	7.36	13.63
12/02/2020 23:39:28	120220	12022020	233928	234.04	12.162402	-57.179573	234.06	-0.450	-0.570	0.620	234.04	-1.90	1.20	 	 	 	 	 	 	 	 	 	 	 	 	 	 	 	 	 	 	1581550768	7.25	13.43
12/02/2020 23:39:29	120220	12022020	233929	233.91	12.162385	-57.179605	233.92	-0.440	-0.190	1.270	233.91	-1.50	1.80	 	 	 	 	 	 	 	 	 	 	 	 	 	 	 	 	 	 	1581550769	7.17	13.28
12/02/2020 23:39:30	120220	12022020	233930	233.53	12.162370	-57.179638	233.54	-0.370	0.050	1.910	233.53	-1.30	2.40	 	 	 	 	 	 	 	 	 	 	 	 	 	 	 	 	 	 	1581550770	7.45	13.80
12/02/2020 23:39:31	120220	12022020	233931	233.20	12.162353	-57.179672	233.21	-0.250	0.400	2.230	233.20	-0.90	2.60	 	 	 	 	 	 	 	 	 	 	 	 	 	 	 	 	 	 	1581550771	7.80	14.45
12/02/2020 23:39:32	120220	12022020	233932	233.04	12.162337	-57.179702	233.05	-0.100	0.760	2.140	233.04	-0.60	2.50	 	 	 	 	 	 	 	 	 	 	 	 	 	 	 	 	 	 	1581550772	7.73	14.32
12/02/2020 23:39:33	120220	12022020	233933	232.94	12.162320	-57.179730	232.95	0.080	0.770	1.810	232.94	-0.70	2.10	 	 	 	 	 	 	 	 	 	 	 	 	 	 	 	 	 	 	1581550773	7.38	13.67
12/02/2020 23:39:34	120220	12022020	233934	232.85	12.162300	-57.179760	232.87	0.240	0.290	1.360	232.85	-1.30	1.70	 	 	 	 	 	 	 	 	 	 	 	 	 	 	 	 	 	 	1581550774	7.32	13.56
12/02/2020 23:39:35	120220	12022020	233935	232.88	12.162278	-57.179790	232.91	0.300	-0.430	0.830	232.88	-2.00	1.10	 	 	 	 	 	 	 	 	 	 	 	 	 	 	 	 	 	 	1581550775	7.57	14.02
12/02/2020 23:39:36	120220	12022020	233936	233.10	12.162260	-57.179820	233.14	0.240	-1.000	0.290	233.10	-2.50	0.60	 	 	 	 	 	 	 	 	 	 	 	 	 	 	 	 	 	 	1581550776	7.69	14.24
12/02/2020 23:39:37	120220	12022020	233937	233.41	12.162242	-57.179848	233.42	0.120	-1.220	-0.070	233.41	-2.60	0.30	 	 	 	 	 	 	 	 	 	 	 	 	 	 	 	 	 	 	1581550777	7.54	13.96
12/02/2020 23:39:38	120220	12022020	233938	233.61	12.162225	-57.179878	233.63	0.060	-1.080	-0.100	233.61	-2.40	0.30	 	 	 	 	 	 	 	 	 	 	 	 	 	 	 	 	 	 	1581550778	7.30	13.52
12/02/2020 23:39:39	120220	12022020	233939	233.68	12.162208	-57.179907	233.71	0.070	-0.690	0.140	233.69	-2.00	0.60	 	 	 	 	 	 	 	 	 	 	 	 	 	 	 	 	 	 	1581550779	7.14	13.22
12/02/2020 23:39:40	120220	12022020	233940	233.63	12.162192	-57.179937	233.65	0.040	-0.280	0.560	233.63	-1.60	1.10	 	 	 	 	 	 	 	 	 	 	 	 	 	 	 	 	 	 	1581550780	7.08	13.11
12/02/2020 23:39:41	120220	12022020	233941	233.48	12.162173	-57.179967	233.47	-0.050	0.030	1.010	233.44	-1.30	1.50	 	 	 	 	 	 	 	 	 	 	 	 	 	 	 	 	 	 	1581550781	7.19	13.32
12/02/2020 23:39:42	120220	12022020	233942	233.27	12.162157	-57.179997	233.31	-0.180	0.190	1.330	233.27	-1.20	1.80	 	 	 	 	 	 	 	 	 	 	 	 	 	 	 	 	 	 	1581550782	7.37	13.65
12/02/2020 23:39:43	120220	12022020	233943	233.12	12.162138	-57.180028	233.14	-0.260	0.220	1.540	233.12	-1.20	2.00	 	 	 	 	 	 	 	 	 	 	 	 	 	 	 	 	 	 	1581550783	7.51	13.91
12/02/2020 23:39:44	120220	12022020	233944	232.98	12.162122	-57.180060	233.00	-0.160	0.130	1.580	232.98	-1.30	2.00	 	 	 	 	 	 	 	 	 	 	 	 	 	 	 	 	 	 	1581550784	7.56	14.00
12/02/2020 23:39:45	120220	12022020	233945	232.91	12.162105	-57.180090	232.94	0.100	-0.020	1.470	232.91	-1.50	1.80	 	 	 	 	 	 	 	 	 	 	 	 	 	 	 	 	 	 	1581550785	7.58	14.04
12/02/2020 23:39:46	120220	12022020	233946	233.01	12.162087	-57.180120	233.07	0.350	-0.180	1.200	233.01	-1.60	1.50	 	 	 	 	 	 	 	 	 	 	 	 	 	 	 	 	 	 	1581550786	7.53	13.95
12/02/2020 23:39:47	120220	12022020	233947	233.26	12.162067	-57.180150	233.32	0.340	-0.300	0.990	233.26	-1.70	1.40	 	 	 	 	 	 	 	 	 	 	 	 	 	 	 	 	 	 	1581550787	7.45	13.80
12/02/2020 23:39:48	120220	12022020	233948	233.43	12.162050	-57.180180	233.47	0.070	-0.400	0.990	233.43	-1.80	1.40	 	 	 	 	 	 	 	 	 	 	 	 	 	 	 	 	 	 	1581550788	7.37	13.65
12/02/2020 23:39:49	120220	12022020	233949	233.43	12.162033	-57.180210	233.44	-0.180	-0.530	1.030	233.43	-2.00	1.40	 	 	 	 	 	 	 	 	 	 	 	 	 	 	 	 	 	 	1581550789	7.31	13.54
12/02/2020 23:39:50	120220	12022020	233950	233.32	12.162015	-57.180240	233.33	-0.230	-0.730	0.960	233.32	-2.20	1.30	 	 	 	 	 	 	 	 	 	 	 	 	 	 	 	 	 	 	1581550790	7.34	13.59
12/02/2020 23:39:51	120220	12022020	233951	233.22	12.161995	-57.180268	233.22	-0.140	-0.830	0.710	233.20	-2.20	1.00	 	 	 	 	 	 	 	 	 	 	 	 	 	 	 	 	 	 	1581550791	7.49	13.87
12/02/2020 23:39:52	120220	12022020	233952	233.11	12.161977	-57.180298	233.12	-0.030	-0.780	0.450	233.11	-2.20	0.80	 	 	 	 	 	 	 	 	 	 	 	 	 	 	 	 	 	 	1581550792	7.51	13.91
12/02/2020 23:39:53	120220	12022020	233953	233.04	12.161958	-57.180328	233.04	0.090	-0.630	0.510	233.03	-2.00	1.00	 	 	 	 	 	 	 	 	 	 	 	 	 	 	 	 	 	 	1581550793	7.43	13.76
12/02/2020 23:39:54	120220	12022020	233954	233.09	12.161940	-57.180358	233.12	0.170	-0.320	0.740	233.09	-1.60	1.20	 	 	 	 	 	 	 	 	 	 	 	 	 	 	 	 	 	 	1581550794	7.48	13.85
12/02/2020 23:39:55	120220	12022020	233955	233.28	12.161923	-57.180390	233.38	0.170	0.200	0.890	233.33	-1.10	1.30	 	 	 	 	 	 	 	 	 	 	 	 	 	 	 	 	 	 	1581550795	7.53	13.95
12/02/2020 23:39:56	120220	12022020	233956	233.65	12.161907	-57.180418	233.70	0.050	0.730	0.880	233.65	-0.60	1.30	 	 	 	 	 	 	 	 	 	 	 	 	 	 	 	 	 	 	1581550796	7.34	13.59
12/02/2020 23:39:57	120220	12022020	233957	233.90	12.161888	-57.180447	233.92	-0.120	0.860	0.800	233.90	-0.60	1.20	 	 	 	 	 	 	 	 	 	 	 	 	 	 	 	 	 	 	1581550797	7.14	13.22
12/02/2020 23:39:58	120220	12022020	233958	233.91	12.161870	-57.180477	233.90	-0.190	0.480	0.830	233.91	-1.10	1.30	 	 	 	 	 	 	 	 	 	 	 	 	 	 	 	 	 	 	1581550798	7.22	13.37
12/02/2020 23:39:59	120220	12022020	233959	233.64	12.161852	-57.180510	233.61	-0.050	-0.180	1.050	233.64	-1.70	1.50	 	 	 	 	 	 	 	 	 	 	 	 	 	 	 	 	 	 	1581550799	7.58	14.04
12/02/2020 23:40:00	120220	12022020	234000	233.22	12.161833	-57.180540	233.19	0.190	-0.670	1.220	233.22	-2.10	1.60	 	 	 	 	 	 	 	 	 	 	 	 	 	 	 	 	 	 	1581550800	7.83	14.50
12/02/2020 23:40:01	120220	12022020	234001	232.91	12.161817	-57.180570	232.89	0.360	-0.890	1.210	232.91	-2.30	1.60	1015.60	26.30	26.60	21.10	21.00	-1.0	72.0	71.0	404.0	25.7	205.00	7.30	70.00	10.90	16	11063.0	27.5	27.4	1581550801	7.64	14.15
12/02/2020 23:40:02	120220	12022020	234002	232.74	12.161798	-57.180598	232.73	0.340	-1.110	1.040	232.74	-2.60	1.40	 	 	 	 	 	 	 	 	 	 	 	 	 	 	 	 	 	 	1581550802	7.24	13.41
12/02/2020 23:40:03	120220	12022020	234003	232.66	12.161780	-57.180628	232.65	0.210	-1.340	0.750	232.66	-2.80	1.10	 	 	 	 	 	 	 	 	 	 	 	 	 	 	 	 	 	 	1581550803	7.23	13.39
12/02/2020 23:40:04	120220	12022020	234004	232.77	12.161760	-57.180658	232.80	0.020	-1.300	0.430	232.77	-2.60	0.80	 	 	 	 	 	 	 	 	 	 	 	 	 	 	 	 	 	 	1581550804	7.52	13.93
12/02/2020 23:40:05	120220	12022020	234005	233.13	12.161742	-57.180688	233.18	-0.230	-0.810	0.200	233.13	-2.00	0.60	 	 	 	 	 	 	 	 	 	 	 	 	 	 	 	 	 	 	1581550805	7.61	14.09
12/02/2020 23:40:06	120220	12022020	234006	233.57	12.161725	-57.180718	233.61	-0.510	-0.120	0.220	233.57	-1.40	0.70	 	 	 	 	 	 	 	 	 	 	 	 	 	 	 	 	 	 	1581550806	7.40	13.70
12/02/2020 23:40:07	120220	12022020	234007	233.82	12.161708	-57.180748	233.85	-0.650	0.490	0.610	233.82	-0.80	1.10	 	 	 	 	 	 	 	 	 	 	 	 	 	 	 	 	 	 	1581550807	7.26	13.45
12/02/2020 23:40:08	120220	12022020	234008	233.79	12.161692	-57.180780	233.79	-0.520	0.810	1.160	233.79	-0.60	1.70	 	 	 	 	 	 	 	 	 	 	 	 	 	 	 	 	 	 	1581550808	7.39	13.69
12/02/2020 23:40:09	120220	12022020	234009	233.49	12.161675	-57.180813	233.48	-0.110	0.820	1.590	233.49	-0.60	2.00	 	 	 	 	 	 	 	 	 	 	 	 	 	 	 	 	 	 	1581550809	7.60	14.08
12/02/2020 23:40:10	120220	12022020	234010	233.19	12.161655	-57.180843	233.17	0.340	0.680	1.630	233.19	-0.80	2.00	 	 	 	 	 	 	 	 	 	 	 	 	 	 	 	 	 	 	1581550810	7.75	14.35
12/02/2020 23:40:11	120220	12022020	234011	233.04	12.161635	-57.180872	233.05	0.580	0.430	1.410	233.04	-1.10	1.80	 	 	 	 	 	 	 	 	 	 	 	 	 	 	 	 	 	 	1581550811	7.65	14.17
12/02/2020 23:40:12	120220	12022020	234012	232.96	12.161617	-57.180902	232.95	0.550	-0.060	1.300	232.96	-1.60	1.70	 	 	 	 	 	 	 	 	 	 	 	 	 	 	 	 	 	 	1581550812	7.43	13.76
12/02/2020 23:40:13	120220	12022020	234013	232.77	12.161600	-57.180932	232.75	0.420	-0.760	1.330	232.77	-2.30	1.70	 	 	 	 	 	 	 	 	 	 	 	 	 	 	 	 	 	 	1581550813	7.34	13.59
12/02/2020 23:40:14	120220	12022020	234014	232.69	12.161582	-57.180963	232.70	0.310	-1.370	1.250	232.69	-2.90	1.60	 	 	 	 	 	 	 	 	 	 	 	 	 	 	 	 	 	 	1581550814	7.51	13.91
12/02/2020 23:40:15	120220	12022020	234015	232.83	12.161563	-57.180992	232.85	0.170	-1.640	1.080	232.83	-3.00	1.40	 	 	 	 	 	 	 	 	 	 	 	 	 	 	 	 	 	 	1581550815	7.57	14.02
12/02/2020 23:40:16	120220	12022020	234016	233.02	12.161547	-57.181022	233.04	-0.040	-1.600	0.910	233.02	-2.90	1.30	 	 	 	 	 	 	 	 	 	 	 	 	 	 	 	 	 	 	1581550816	7.37	13.65
12/02/2020 23:40:17	120220	12022020	234017	233.09	12.161528	-57.181052	233.11	-0.260	-1.310	0.830	233.10	-2.60	1.20	 	 	 	 	 	 	 	 	 	 	 	 	 	 	 	 	 	 	1581550817	7.30	13.52
12/02/2020 23:40:18	120220	12022020	234018	233.13	12.161510	-57.181082	233.15	-0.440	-0.720	0.800	233.13	-1.90	1.20	 	 	 	 	 	 	 	 	 	 	 	 	 	 	 	 	 	 	1581550818	7.42	13.74
12/02/2020 23:40:19	120220	12022020	234019	233.27	12.161492	-57.181112	233.32	-0.550	0.090	0.690	233.27	-1.10	1.10	 	 	 	 	 	 	 	 	 	 	 	 	 	 	 	 	 	 	1581550819	7.47	13.83
12/02/2020 23:40:20	120220	12022020	234020	233.47	12.161473	-57.181142	233.49	-0.560	0.740	0.600	233.47	-0.60	1.00	 	 	 	 	 	 	 	 	 	 	 	 	 	 	 	 	 	 	1581550820	7.40	13.70
12/02/2020 23:40:21	120220	12022020	234021	233.53	12.161453	-57.181173	233.54	-0.430	0.950	0.750	233.53	-0.40	1.20	 	 	 	 	 	 	 	 	 	 	 	 	 	 	 	 	 	 	1581550821	7.45	13.80
12/02/2020 23:40:22	120220	12022020	234022	233.48	12.161437	-57.181205	233.49	-0.200	0.990	1.080	233.48	-0.40	1.60	 	 	 	 	 	 	 	 	 	 	 	 	 	 	 	 	 	 	1581550822	7.80	14.45
12/02/2020 23:40:23	120220	12022020	234023	233.35	12.161418	-57.181235	233.37	0.060	1.060	1.350	233.35	-0.40	1.80	 	 	 	 	 	 	 	 	 	 	 	 	 	 	 	 	 	 	1581550823	7.89	14.61
12/02/2020 23:40:24	120220	12022020	234024	233.25	12.161402	-57.181265	233.28	0.330	0.850	1.280	233.25	-0.70	1.60	 	 	 	 	 	 	 	 	 	 	 	 	 	 	 	 	 	 	1581550824	7.45	13.80
12/02/2020 23:40:25	120220	12022020	234025	233.27	12.161383	-57.181293	233.31	0.620	0.020	0.900	233.27	-1.60	1.20	 	 	 	 	 	 	 	 	 	 	 	 	 	 	 	 	 	 	1581550825	7.14	13.22
12/02/2020 23:40:26	120220	12022020	234026	233.33	12.161362	-57.181323	233.35	0.860	-1.260	0.510	233.33	-2.90	0.90	 	 	 	 	 	 	 	 	 	 	 	 	 	 	 	 	 	 	1581550826	7.35	13.61
12/02/2020 23:40:27	120220	12022020	234027	233.32	12.161342	-57.181355	233.33	0.850	-2.250	0.320	233.32	-3.80	0.70	 	 	 	 	 	 	 	 	 	 	 	 	 	 	 	 	 	 	1581550827	7.77	14.39
12/02/2020 23:40:28	120220	12022020	234028	233.34	12.161323	-57.181385	233.36	0.470	-2.370	0.380	233.34	-3.60	0.80	 	 	 	 	 	 	 	 	 	 	 	 	 	 	 	 	 	 	1581550828	7.89	14.61
12/02/2020 23:40:29	120220	12022020	234029	233.41	12.161308	-57.181413	233.46	-0.160	-1.700	0.680	233.43	-2.90	1.20	 	 	 	 	 	 	 	 	 	 	 	 	 	 	 	 	 	 	1581550829	7.45	13.80
12/02/2020 23:40:30	120220	12022020	234030	233.48	12.161293	-57.181445	233.48	-0.730	-0.750	1.140	233.48	-1.90	1.70	 	 	 	 	 	 	 	 	 	 	 	 	 	 	 	 	 	 	1581550830	7.07	13.09
12/02/2020 23:40:31	120220	12022020	234031	233.40	12.161278	-57.181477	233.37	-1.000	0.080	1.580	233.37	-1.10	2.00	 	 	 	 	 	 	 	 	 	 	 	 	 	 	 	 	 	 	1581550831	7.14	13.22
12/02/2020 23:40:32	120220	12022020	234032	233.26	12.161262	-57.181508	233.27	-0.920	0.710	1.670	233.26	-0.60	2.00	 	 	 	 	 	 	 	 	 	 	 	 	 	 	 	 	 	 	1581550832	7.52	13.93
12/02/2020 23:40:33	120220	12022020	234033	233.30	12.161242	-57.181540	233.32	-0.610	1.090	1.370	233.30	-0.30	1.70	 	 	 	 	 	 	 	 	 	 	 	 	 	 	 	 	 	 	1581550833	7.77	14.39
12/02/2020 23:40:34	120220	12022020	234034	233.49	12.161220	-57.181570	233.51	-0.230	1.090	0.880	233.49	-0.40	1.20	 	 	 	 	 	 	 	 	 	 	 	 	 	 	 	 	 	 	1581550834	7.79	14.43
12/02/2020 23:40:35	120220	12022020	234035	233.64	12.161198	-57.181600	233.64	0.110	0.620	0.630	233.64	-0.90	1.00	 	 	 	 	 	 	 	 	 	 	 	 	 	 	 	 	 	 	1581550835	7.77	14.39
12/02/2020 23:40:36	120220	12022020	234036	233.56	12.161180	-57.181632	233.55	0.370	-0.070	0.800	233.56	-1.60	1.30	 	 	 	 	 	 	 	 	 	 	 	 	 	 	 	 	 	 	1581550836	7.86	14.56
12/02/2020 23:40:37	120220	12022020	234037	233.34	12.161162	-57.181663	233.34	0.550	-0.520	1.160	233.34	-1.90	1.60	 	 	 	 	 	 	 	 	 	 	 	 	 	 	 	 	 	 	1581550837	7.93	14.69
12/02/2020 23:40:38	120220	12022020	234038	233.30	12.161147	-57.181693	233.34	0.590	-0.550	1.300	233.30	-1.90	1.70	 	 	 	 	 	 	 	 	 	 	 	 	 	 	 	 	 	 	1581550838	7.73	14.32
12/02/2020 23:40:39	120220	12022020	234039	233.44	12.161130	-57.181720	233.49	0.470	-0.460	1.190	233.44	-1.90	1.60	 	 	 	 	 	 	 	 	 	 	 	 	 	 	 	 	 	 	1581550839	7.18	13.30
12/02/2020 23:40:40	120220	12022020	234040	233.43	12.161113	-57.181750	233.45	0.260	-0.650	1.090	233.43	-2.10	1.50	 	 	 	 	 	 	 	 	 	 	 	 	 	 	 	 	 	 	1581550840	6.84	12.67
12/02/2020 23:40:41	120220	12022020	234041	233.20	12.161095	-57.181782	233.13	0.100	-0.990	1.180	233.13	-2.40	1.60	 	 	 	 	 	 	 	 	 	 	 	 	 	 	 	 	 	 	1581550841	7.13	13.20
12/02/2020 23:40:42	120220	12022020	234042	232.87	12.161078	-57.181812	232.89	0.030	-0.910	1.240	232.87	-2.20	1.60	 	 	 	 	 	 	 	 	 	 	 	 	 	 	 	 	 	 	1581550842	7.63	14.13
12/02/2020 23:40:43	120220	12022020	234043	232.90	12.161062	-57.181840	233.00	0.010	-0.390	1.050	232.93	-1.70	1.40	 	 	 	 	 	 	 	 	 	 	 	 	 	 	 	 	 	 	1581550843	7.54	13.96
12/02/2020 23:40:44	120220	12022020	234044	233.28	12.161042	-57.181868	233.36	-0.010	-0.100	0.690	233.28	-1.50	1.00	 	 	 	 	 	 	 	 	 	 	 	 	 	 	 	 	 	 	1581550844	7.06	13.08
12/02/2020 23:40:45	120220	12022020	234045	233.65	12.161022	-57.181898	233.82	-0.060	-0.320	0.490	233.75	-1.80	0.90	 	 	 	 	 	 	 	 	 	 	 	 	 	 	 	 	 	 	1581550845	7.12	13.19
12/02/2020 23:40:46	120220	12022020	234046	234.06	12.161003	-57.181932	234.08	-0.140	-0.730	0.690	234.06	-2.20	1.20	 	 	 	 	 	 	 	 	 	 	 	 	 	 	 	 	 	 	1581550846	7.70	14.26
12/02/2020 23:40:47	120220	12022020	234047	233.97	12.160987	-57.181967	233.96	-0.240	-0.940	1.250	233.97	-2.30	1.80	 	 	 	 	 	 	 	 	 	 	 	 	 	 	 	 	 	 	1581550847	8.11	15.02
12/02/2020 23:40:48	120220	12022020	234048	233.58	12.160970	-57.182000	233.58	-0.350	-0.620	1.930	233.58	-1.80	2.50	 	 	 	 	 	 	 	 	 	 	 	 	 	 	 	 	 	 	1581550848	8.21	15.20
12/02/2020 23:40:49	120220	12022020	234049	233.20	12.160957	-57.182032	233.21	-0.450	0.220	2.370	233.20	-1.00	2.80	 	 	 	 	 	 	 	 	 	 	 	 	 	 	 	 	 	 	1581550849	7.93	14.69
12/02/2020 23:40:50	120220	12022020	234050	232.96	12.160940	-57.182060	233.00	-0.430	0.950	2.230	232.96	-0.30	2.50	 	 	 	 	 	 	 	 	 	 	 	 	 	 	 	 	 	 	1581550850	7.33	13.58
12/02/2020 23:40:51	120220	12022020	234051	232.88	12.160920	-57.182088	232.91	-0.200	1.100	1.680	232.88	-0.30	1.90	 	 	 	 	 	 	 	 	 	 	 	 	 	 	 	 	 	 	1581550851	7.04	13.04
12/02/2020 23:40:52	120220	12022020	234052	233.00	12.160898	-57.182117	233.05	0.140	0.750	1.010	233.00	-0.80	1.30	 	 	 	 	 	 	 	 	 	 	 	 	 	 	 	 	 	 	1581550852	7.34	13.59
12/02/2020 23:40:53	120220	12022020	234053	233.32	12.160877	-57.182145	233.38	0.420	0.170	0.480	233.32	-1.40	0.80	 	 	 	 	 	 	 	 	 	 	 	 	 	 	 	 	 	 	1581550853	7.62	14.11
12/02/2020 23:40:54	120220	12022020	234054	233.74	12.160858	-57.182175	233.80	0.580	-0.540	0.310	233.74	-2.10	0.70	 	 	 	 	 	 	 	 	 	 	 	 	 	 	 	 	 	 	1581550854	7.56	14.00
12/02/2020 23:40:55	120220	12022020	234055	234.11	12.160842	-57.182207	234.16	0.670	-1.190	0.500	234.11	-2.70	1.00	 	 	 	 	 	 	 	 	 	 	 	 	 	 	 	 	 	 	1581550855	7.45	13.80
12/02/2020 23:40:56	120220	12022020	234056	234.30	12.160827	-57.182238	234.32	0.660	-1.490	0.950	234.30	-2.90	1.50	 	 	 	 	 	 	 	 	 	 	 	 	 	 	 	 	 	 	1581550856	7.48	13.85
12/02/2020 23:40:57	120220	12022020	234057	234.22	12.160813	-57.182270	234.21	0.520	-1.420	1.480	234.22	-2.70	2.00	 	 	 	 	 	 	 	 	 	 	 	 	 	 	 	 	 	 	1581550857	7.41	13.72
12/02/2020 23:40:58	120220	12022020	234058	233.96	12.160798	-57.182300	233.96	0.210	-1.090	1.870	233.96	-2.40	2.30	 	 	 	 	 	 	 	 	 	 	 	 	 	 	 	 	 	 	1581550858	7.31	13.54
12/02/2020 23:40:59	120220	12022020	234059	233.76	12.160782	-57.182332	233.77	-0.250	-0.580	1.910	233.76	-1.80	2.30	 	 	 	 	 	 	 	 	 	 	 	 	 	 	 	 	 	 	1581550859	7.36	13.63
12/02/2020 23:41:00	120220	12022020	234100	233.65	12.160763	-57.182362	233.67	-0.680	-0.100	1.580	233.65	-1.40	1.90	 	 	 	 	 	 	 	 	 	 	 	 	 	 	 	 	 	 	1581550860	7.38	13.67
12/02/2020 23:41:01	120220	12022020	234101	233.60	12.160742	-57.182390	233.62	-0.880	0.160	1.100	233.60	-1.20	1.40	1015.70	26.30	26.50	21.00	21.00	-1.0	72.0	71.0	405.0	25.7	208.00	7.50	72.00	11.00	16	10688.0	27.5	27.4	1581550861	7.45	13.80
12/02/2020 23:41:02	120220	12022020	234102	233.63	12.160722	-57.182422	233.64	-0.800	0.260	0.620	233.63	-1.10	0.90	 	 	 	 	 	 	 	 	 	 	 	 	 	 	 	 	 	 	1581550862	7.69	14.24
12/02/2020 23:41:03	120220	12022020	234103	233.81	12.160700	-57.182452	233.84	-0.570	0.390	0.280	233.81	-1.00	0.70	 	 	 	 	 	 	 	 	 	 	 	 	 	 	 	 	 	 	1581550863	7.87	14.58
12/02/2020 23:41:04	120220	12022020	234104	234.15	12.160683	-57.182482	234.19	-0.270	0.430	0.230	234.15	-1.00	0.70	 	 	 	 	 	 	 	 	 	 	 	 	 	 	 	 	 	 	1581550864	7.69	14.24
12/02/2020 23:41:05	120220	12022020	234105	234.42	12.160667	-57.182513	234.44	0.080	0.300	0.510	234.42	-1.10	1.00	 	 	 	 	 	 	 	 	 	 	 	 	 	 	 	 	 	 	1581550865	7.53	13.95
12/02/2020 23:41:06	120220	12022020	234106	234.49	12.160652	-57.182545	234.49	0.420	0.140	0.920	234.49	-1.30	1.40	 	 	 	 	 	 	 	 	 	 	 	 	 	 	 	 	 	 	1581550866	7.56	14.00
12/02/2020 23:41:07	120220	12022020	234107	234.49	12.160637	-57.182577	234.49	0.620	0.050	1.160	234.50	-1.40	1.60	 	 	 	 	 	 	 	 	 	 	 	 	 	 	 	 	 	 	1581550867	7.53	13.95
12/02/2020 23:41:08	120220	12022020	234108	234.54	12.160620	-57.182605	234.52	0.620	-0.090	1.050	234.54	-1.60	1.40	 	 	 	 	 	 	 	 	 	 	 	 	 	 	 	 	 	 	1581550868	7.28	13.48
12/02/2020 23:41:09	120220	12022020	234109	234.55	12.160602	-57.182635	234.50	0.500	-0.540	0.730	234.55	-2.10	1.10	 	 	 	 	 	 	 	 	 	 	 	 	 	 	 	 	 	 	1581550869	7.08	13.11
12/02/2020 23:41:10	120220	12022020	234110	234.32	12.160583	-57.182665	234.25	0.370	-1.210	0.590	234.32	-2.80	1.00	 	 	 	 	 	 	 	 	 	 	 	 	 	 	 	 	 	 	1581550870	7.23	13.39
12/02/2020 23:41:11	120220	12022020	234111	233.89	12.160563	-57.182697	233.82	0.180	-1.710	0.720	233.89	-3.10	1.20	 	 	 	 	 	 	 	 	 	 	 	 	 	 	 	 	 	 	1581550871	7.64	14.15
12/02/2020 23:41:12	120220	12022020	234112	233.53	12.160545	-57.182727	233.50	-0.110	-1.630	0.910	233.53	-2.90	1.40	 	 	 	 	 	 	 	 	 	 	 	 	 	 	 	 	 	 	1581550872	7.84	14.52
12/02/2020 23:41:13	120220	12022020	234113	233.57	12.160530	-57.182757	233.59	-0.470	-0.870	1.020	233.57	-2.00	1.40	 	 	 	 	 	 	 	 	 	 	 	 	 	 	 	 	 	 	1581550873	7.68	14.22
12/02/2020 23:41:14	120220	12022020	234114	233.90	12.160515	-57.182787	233.95	-0.730	0.130	1.110	233.90	-1.10	1.60	 	 	 	 	 	 	 	 	 	 	 	 	 	 	 	 	 	 	1581550874	7.26	13.45
12/02/2020 23:41:15	120220	12022020	234115	234.21	12.160498	-57.182818	234.24	-0.740	0.770	1.300	234.21	-0.60	1.70	 	 	 	 	 	 	 	 	 	 	 	 	 	 	 	 	 	 	1581550875	7.04	13.04
12/02/2020 23:41:16	120220	12022020	234116	234.35	12.160482	-57.182850	234.35	-0.470	0.870	1.390	234.35	-0.60	1.80	 	 	 	 	 	 	 	 	 	 	 	 	 	 	 	 	 	 	1581550876	7.32	13.56
12/02/2020 23:41:17	120220	12022020	234117	234.35	12.160463	-57.182882	234.34	-0.050	0.640	1.200	234.35	-0.80	1.50	 	 	 	 	 	 	 	 	 	 	 	 	 	 	 	 	 	 	1581550877	7.74	14.33
12/02/2020 23:41:18	120220	12022020	234118	234.28	12.160443	-57.182913	234.26	0.330	0.280	0.780	234.28	-1.20	1.10	 	 	 	 	 	 	 	 	 	 	 	 	 	 	 	 	 	 	1581550878	7.89	14.61
12/02/2020 23:41:19	120220	12022020	234119	234.15	12.160423	-57.182943	234.06	0.520	-0.250	0.460	234.10	-1.80	0.90	 	 	 	 	 	 	 	 	 	 	 	 	 	 	 	 	 	 	1581550879	7.76	14.37
12/02/2020 23:41:20	120220	12022020	234120	233.81	12.160403	-57.182973	233.78	0.460	-0.760	0.470	233.81	-2.20	0.90	 	 	 	 	 	 	 	 	 	 	 	 	 	 	 	 	 	 	1581550880	7.71	14.28
12/02/2020 23:41:21	120220	12022020	234121	233.67	12.160387	-57.183003	233.67	0.230	-0.930	0.640	233.66	-2.30	1.10	 	 	 	 	 	 	 	 	 	 	 	 	 	 	 	 	 	 	1581550881	7.70	14.26
12/02/2020 23:41:22	120220	12022020	234122	233.82	12.160370	-57.183033	233.86	0.020	-0.740	0.730	233.82	-2.10	1.20	 	 	 	 	 	 	 	 	 	 	 	 	 	 	 	 	 	 	1581550882	7.49	13.87
12/02/2020 23:41:23	120220	12022020	234123	234.11	12.160355	-57.183063	234.12	-0.080	-0.490	0.840	234.11	-1.90	1.30	 	 	 	 	 	 	 	 	 	 	 	 	 	 	 	 	 	 	1581550883	7.17	13.28
12/02/2020 23:41:24	120220	12022020	234124	234.23	12.160338	-57.183095	234.22	-0.090	-0.390	1.120	234.23	-1.80	1.60	 	 	 	 	 	 	 	 	 	 	 	 	 	 	 	 	 	 	1581550884	7.10	13.15
12/02/2020 23:41:25	120220	12022020	234125	234.05	12.160322	-57.183127	234.00	-0.080	-0.430	1.530	234.05	-1.80	2.00	 	 	 	 	 	 	 	 	 	 	 	 	 	 	 	 	 	 	1581550885	7.37	13.65
12/02/2020 23:41:26	120220	12022020	234126	233.66	12.160305	-57.183158	233.63	-0.060	-0.390	1.800	233.66	-1.70	2.20	 	 	 	 	 	 	 	 	 	 	 	 	 	 	 	 	 	 	1581550886	7.67	14.20
12/02/2020 23:41:27	120220	12022020	234127	233.43	12.160287	-57.183188	233.41	-0.060	-0.030	1.660	233.43	-1.30	2.00	 	 	 	 	 	 	 	 	 	 	 	 	 	 	 	 	 	 	1581550887	7.78	14.41
12/02/2020 23:41:28	120220	12022020	234128	233.36	12.160268	-57.183217	233.35	-0.090	0.300	1.270	233.36	-1.10	1.60	 	 	 	 	 	 	 	 	 	 	 	 	 	 	 	 	 	 	1581550888	7.42	13.74
12/02/2020 23:41:29	120220	12022020	234129	233.44	12.160250	-57.183247	233.45	-0.050	0.260	0.890	233.44	-1.20	1.20	 	 	 	 	 	 	 	 	 	 	 	 	 	 	 	 	 	 	1581550889	7.19	13.32
12/02/2020 23:41:30	120220	12022020	234130	233.56	12.160232	-57.183278	233.55	0.110	-0.150	0.680	233.56	-1.70	1.10	 	 	 	 	 	 	 	 	 	 	 	 	 	 	 	 	 	 	1581550890	7.40	13.70
12/02/2020 23:41:31	120220	12022020	234131	233.55	12.160212	-57.183310	233.53	0.310	-0.670	0.800	233.54	-2.20	1.30	 	 	 	 	 	 	 	 	 	 	 	 	 	 	 	 	 	 	1581550891	7.74	14.33
12/02/2020 23:41:32	120220	12022020	234132	233.54	12.160195	-57.183342	233.56	0.360	-0.880	1.040	233.54	-2.20	1.50	 	 	 	 	 	 	 	 	 	 	 	 	 	 	 	 	 	 	1581550892	7.96	14.74
12/02/2020 23:41:33	120220	12022020	234133	233.69	12.160178	-57.183372	233.77	0.130	-0.580	1.140	233.73	-1.90	1.60	 	 	 	 	 	 	 	 	 	 	 	 	 	 	 	 	 	 	1581550893	7.79	14.43
12/02/2020 23:41:34	120220	12022020	234134	233.87	12.160162	-57.183400	233.88	-0.230	-0.130	1.230	233.87	-1.50	1.70	 	 	 	 	 	 	 	 	 	 	 	 	 	 	 	 	 	 	1581550894	7.26	13.45
12/02/2020 23:41:35	120220	12022020	234135	233.80	12.160145	-57.183430	233.74	-0.430	0.030	1.340	233.76	-1.40	1.80	 	 	 	 	 	 	 	 	 	 	 	 	 	 	 	 	 	 	1581550895	6.99	12.95
12/02/2020 23:41:36	120220	12022020	234136	233.60	12.160127	-57.183462	233.59	-0.390	-0.080	1.210	233.60	-1.50	1.60	 	 	 	 	 	 	 	 	 	 	 	 	 	 	 	 	 	 	1581550896	7.29	13.50
12/02/2020 23:41:37	120220	12022020	234137	233.58	12.160107	-57.183492	233.58	-0.190	-0.190	0.860	233.58	-1.60	1.20	 	 	 	 	 	 	 	 	 	 	 	 	 	 	 	 	 	 	1581550897	7.66	14.19
12/02/2020 23:41:38	120220	12022020	234138	233.75	12.160087	-57.183520	233.76	0.020	-0.180	0.400	233.75	-1.60	0.70	 	 	 	 	 	 	 	 	 	 	 	 	 	 	 	 	 	 	1581550898	7.71	14.28
12/02/2020 23:41:39	120220	12022020	234139	233.93	12.160067	-57.183548	233.93	0.170	-0.280	0.150	233.93	-1.70	0.60	 	 	 	 	 	 	 	 	 	 	 	 	 	 	 	 	 	 	1581550899	7.46	13.82
12/02/2020 23:41:40	120220	12022020	234140	233.86	12.160047	-57.183580	233.83	0.250	-0.590	0.480	233.86	-2.10	1.00	 	 	 	 	 	 	 	 	 	 	 	 	 	 	 	 	 	 	1581550900	7.38	13.67
12/02/2020 23:41:41	120220	12022020	234141	233.63	12.160030	-57.183613	233.60	0.230	-0.810	1.120	233.63	-2.20	1.70	 	 	 	 	 	 	 	 	 	 	 	 	 	 	 	 	 	 	1581550901	7.68	14.22
12/02/2020 23:41:42	120220	12022020	234142	233.44	12.160015	-57.183645	233.44	0.090	-0.590	1.700	233.44	-1.90	2.20	 	 	 	 	 	 	 	 	 	 	 	 	 	 	 	 	 	 	1581550902	7.88	14.59
12/02/2020 23:41:43	120220	12022020	234143	233.35	12.160002	-57.183677	233.36	-0.150	0.030	1.970	233.35	-1.20	2.40	 	 	 	 	 	 	 	 	 	 	 	 	 	 	 	 	 	 	1581550903	7.68	14.22
12/02/2020 23:41:44	120220	12022020	234144	233.49	12.159988	-57.183707	233.51	-0.320	0.670	1.720	233.49	-0.70	2.00	 	 	 	 	 	 	 	 	 	 	 	 	 	 	 	 	 	 	1581550904	7.25	13.43
12/02/2020 23:41:45	120220	12022020	234145	233.71	12.159970	-57.183735	233.77	-0.220	0.690	1.100	233.76	-0.80	1.40	 	 	 	 	 	 	 	 	 	 	 	 	 	 	 	 	 	 	1581550905	6.89	12.76
12/02/2020 23:41:46	120220	12022020	234146	233.91	12.159948	-57.183763	233.89	0.150	-0.030	0.550	233.91	-1.70	0.90	 	 	 	 	 	 	 	 	 	 	 	 	 	 	 	 	 	 	1581550906	7.12	13.19
12/02/2020 23:41:47	120220	12022020	234147	233.84	12.159925	-57.183795	233.80	0.520	-0.880	0.280	233.84	-2.40	0.70	 	 	 	 	 	 	 	 	 	 	 	 	 	 	 	 	 	 	1581550907	7.85	14.54
12/02/2020 23:41:48	120220	12022020	234148	233.70	12.159905	-57.183825	233.68	0.570	-1.100	0.240	233.70	-2.40	0.60	 	 	 	 	 	 	 	 	 	 	 	 	 	 	 	 	 	 	1581550908	8.20	15.19
12/02/2020 23:41:49	120220	12022020	234149	233.77	12.159888	-57.183853	233.78	0.270	-0.610	0.210	233.77	-1.90	0.60	 	 	 	 	 	 	 	 	 	 	 	 	 	 	 	 	 	 	1581550909	7.71	14.28
12/02/2020 23:41:50	120220	12022020	234150	233.96	12.159872	-57.183880	233.97	-0.160	-0.200	0.300	233.96	-1.60	0.80	 	 	 	 	 	 	 	 	 	 	 	 	 	 	 	 	 	 	1581550910	6.91	12.80
12/02/2020 23:41:51	120220	12022020	234151	234.05	12.159855	-57.183912	234.06	-0.420	-0.350	0.610	234.05	-1.80	1.10	 	 	 	 	 	 	 	 	 	 	 	 	 	 	 	 	 	 	1581550911	6.78	12.56
12/02/2020 23:41:52	120220	12022020	234152	234.04	12.159838	-57.183945	234.05	-0.420	-0.710	1.010	234.04	-2.10	1.50	 	 	 	 	 	 	 	 	 	 	 	 	 	 	 	 	 	 	1581550912	7.49	13.87
12/02/2020 23:41:53	120220	12022020	234153	234.00	12.159820	-57.183978	234.01	-0.310	-0.670	1.290	234.00	-2.00	1.70	 	 	 	 	 	 	 	 	 	 	 	 	 	 	 	 	 	 	1581550913	8.06	14.93
12/02/2020 23:41:54	120220	12022020	234154	233.98	12.159803	-57.184008	233.98	-0.260	-0.270	1.320	233.98	-1.60	1.70	 	 	 	 	 	 	 	 	 	 	 	 	 	 	 	 	 	 	1581550914	7.89	14.61
12/02/2020 23:41:55	120220	12022020	234155	233.93	12.159785	-57.184038	233.91	-0.240	0.010	1.210	233.93	-1.40	1.60	 	 	 	 	 	 	 	 	 	 	 	 	 	 	 	 	 	 	1581550915	7.45	13.80
12/02/2020 23:41:56	120220	12022020	234156	233.75	12.159765	-57.184070	233.73	-0.160	-0.010	1.210	233.75	-1.40	1.60	 	 	 	 	 	 	 	 	 	 	 	 	 	 	 	 	 	 	1581550916	7.42	13.74
12/02/2020 23:41:57	120220	12022020	234157	233.56	12.159747	-57.184102	233.49	-0.020	-0.030	1.300	233.52	-1.40	1.70	 	 	 	 	 	 	 	 	 	 	 	 	 	 	 	 	 	 	1581550917	7.75	14.35
12/02/2020 23:41:58	120220	12022020	234158	233.33	12.159730	-57.184132	233.30	0.110	0.240	1.320	233.33	-1.10	1.70	 	 	 	 	 	 	 	 	 	 	 	 	 	 	 	 	 	 	1581550918	7.85	14.54
12/02/2020 23:41:59	120220	12022020	234159	233.22	12.159713	-57.184162	233.19	0.190	0.500	1.270	233.22	-0.90	1.70	 	 	 	 	 	 	 	 	 	 	 	 	 	 	 	 	 	 	1581550919	7.41	13.72
12/02/2020 23:42:00	120220	12022020	234200	233.16	12.159697	-57.184192	233.14	0.300	0.330	1.150	233.16	-1.20	1.50	 	 	 	 	 	 	 	 	 	 	 	 	 	 	 	 	 	 	1581550920	7.09	13.13
12/02/2020 23:42:01	120220	12022020	234201	233.22	12.159678	-57.184222	233.23	0.380	-0.110	0.910	233.22	-1.60	1.30	1015.70	26.30	26.40	20.80	20.80	-1.0	72.0	71.0	405.0	25.7	205.00	7.00	70.00	10.70	16	10917.0	27.5	27.4	1581550921	7.30	13.52
12/02/2020 23:42:02	120220	12022020	234202	233.46	12.159658	-57.184250	233.48	0.350	-0.480	0.590	233.46	-1.90	0.90	 	 	 	 	 	 	 	 	 	 	 	 	 	 	 	 	 	 	1581550922	7.56	14.00
12/02/2020 23:42:03	120220	12022020	234203	233.77	12.159640	-57.184280	233.78	0.240	-0.750	0.280	233.77	-2.20	0.60	 	 	 	 	 	 	 	 	 	 	 	 	 	 	 	 	 	 	1581550923	7.48	13.85
12/02/2020 23:42:04	120220	12022020	234204	234.00	12.159622	-57.184308	234.01	0.100	-1.030	0.120	234.00	-2.50	0.60	 	 	 	 	 	 	 	 	 	 	 	 	 	 	 	 	 	 	1581550924	7.34	13.59
12/02/2020 23:42:05	120220	12022020	234205	234.08	12.159602	-57.184340	234.09	0.000	-1.350	0.320	234.08	-2.80	0.80	 	 	 	 	 	 	 	 	 	 	 	 	 	 	 	 	 	 	1581550925	7.41	13.72
12/02/2020 23:42:06	120220	12022020	234206	234.00	12.159583	-57.184372	233.99	-0.090	-1.510	0.770	234.00	-2.90	1.30	 	 	 	 	 	 	 	 	 	 	 	 	 	 	 	 	 	 	1581550926	7.66	14.19
12/02/2020 23:42:07	120220	12022020	234207	233.77	12.159565	-57.184403	233.75	-0.200	-1.240	1.270	233.77	-2.50	1.80	 	 	 	 	 	 	 	 	 	 	 	 	 	 	 	 	 	 	1581550927	7.85	14.54
12/02/2020 23:42:08	120220	12022020	234208	233.37	12.159548	-57.184435	233.34	-0.380	-0.600	1.790	233.37	-1.80	2.30	 	 	 	 	 	 	 	 	 	 	 	 	 	 	 	 	 	 	1581550928	7.78	14.41
12/02/2020 23:42:09	120220	12022020	234209	232.95	12.159532	-57.184467	232.95	-0.580	0.260	2.170	232.95	-0.90	2.60	 	 	 	 	 	 	 	 	 	 	 	 	 	 	 	 	 	 	1581550929	7.63	14.13
12/02/2020 23:42:10	120220	12022020	234210	232.69	12.159515	-57.184498	232.72	-0.690	1.100	2.300	232.69	-0.10	2.70	 	 	 	 	 	 	 	 	 	 	 	 	 	 	 	 	 	 	1581550930	7.56	14.00
12/02/2020 23:42:11	120220	12022020	234211	232.68	12.159500	-57.184530	232.75	-0.570	1.580	2.130	232.70	0.20	2.50	 	 	 	 	 	 	 	 	 	 	 	 	 	 	 	 	 	 	1581550931	7.47	13.83
12/02/2020 23:42:12	120220	12022020	234212	233.04	12.159483	-57.184560	233.12	-0.170	1.490	1.620	233.04	-0.00	1.90	 	 	 	 	 	 	 	 	 	 	 	 	 	 	 	 	 	 	1581550932	7.46	13.82
12/02/2020 23:42:13	120220	12022020	234213	233.65	12.159462	-57.184590	233.73	0.360	0.900	0.740	233.65	-0.70	0.90	 	 	 	 	 	 	 	 	 	 	 	 	 	 	 	 	 	 	1581550933	7.59	14.06
12/02/2020 23:42:14	120220	12022020	234214	234.26	12.159440	-57.184618	234.30	0.790	-0.110	-0.220	234.26	-1.80	0.00	 	 	 	 	 	 	 	 	 	 	 	 	 	 	 	 	 	 	1581550934	7.61	14.09
12/02/2020 23:42:15	120220	12022020	234215	234.54	12.159417	-57.184647	234.51	1.010	-1.370	-0.740	234.54	-3.00	-0.30	 	 	 	 	 	 	 	 	 	 	 	 	 	 	 	 	 	 	1581550935	7.69	14.24
12/02/2020 23:42:16	120220	12022020	234216	234.42	12.159395	-57.184677	234.38	0.930	-2.360	-0.530	234.42	-3.90	0.00	 	 	 	 	 	 	 	 	 	 	 	 	 	 	 	 	 	 	1581550936	7.87	14.58
12/02/2020 23:42:17	120220	12022020	234217	234.21	12.159377	-57.184707	234.20	0.480	-2.480	0.140	234.21	-3.80	0.70	 	 	 	 	 	 	 	 	 	 	 	 	 	 	 	 	 	 	1581550937	7.87	14.58
12/02/2020 23:42:18	120220	12022020	234218	234.08	12.159363	-57.184737	234.07	-0.190	-1.760	0.960	234.08	-2.90	1.60	 	 	 	 	 	 	 	 	 	 	 	 	 	 	 	 	 	 	1581550938	7.45	13.80
12/02/2020 23:42:19	120220	12022020	234219	233.93	12.159352	-57.184768	233.92	-0.730	-0.820	1.800	233.93	-2.00	2.40	 	 	 	 	 	 	 	 	 	 	 	 	 	 	 	 	 	 	1581550939	7.02	13.00
12/02/2020 23:42:20	120220	12022020	234220	233.75	12.159337	-57.184802	233.75	-0.940	-0.060	2.390	233.75	-1.30	2.90	 	 	 	 	 	 	 	 	 	 	 	 	 	 	 	 	 	 	1581550940	7.17	13.28
12/02/2020 23:42:21	120220	12022020	234221	233.61	12.159322	-57.184837	233.63	-0.840	0.580	2.490	233.61	-0.70	2.80	 	 	 	 	 	 	 	 	 	 	 	 	 	 	 	 	 	 	1581550941	7.70	14.26
12/02/2020 23:42:22	120220	12022020	234222	233.66	12.159302	-57.184867	233.70	-0.570	1.190	2.050	233.66	-0.10	2.30	 	 	 	 	 	 	 	 	 	 	 	 	 	 	 	 	 	 	1581550942	7.96	14.74
12/02/2020 23:42:23	120220	12022020	234223	233.89	12.159282	-57.184897	234.00	-0.210	1.550	1.200	233.96	0.10	1.40	 	 	 	 	 	 	 	 	 	 	 	 	 	 	 	 	 	 	1581550943	7.79	14.43
12/02/2020 23:42:24	120220	12022020	234224	234.33	12.159258	-57.184923	234.36	0.160	1.290	0.460	234.33	-0.30	0.80	 	 	 	 	 	 	 	 	 	 	 	 	 	 	 	 	 	 	1581550944	7.54	13.96
12/02/2020 23:42:25	120220	12022020	234225	234.56	12.159238	-57.184953	234.59	0.480	0.430	0.180	234.60	-1.20	0.60	 	 	 	 	 	 	 	 	 	 	 	 	 	 	 	 	 	 	1581550945	7.63	14.13
12/02/2020 23:42:26	120220	12022020	234226	234.69	12.159218	-57.184985	234.67	0.660	-0.610	0.310	234.69	-2.20	0.80	 	 	 	 	 	 	 	 	 	 	 	 	 	 	 	 	 	 	1581550946	7.84	14.52
12/02/2020 23:42:27	120220	12022020	234227	234.60	12.159202	-57.185017	234.57	0.630	-1.380	0.630	234.60	-2.90	1.10	 	 	 	 	 	 	 	 	 	 	 	 	 	 	 	 	 	 	1581550947	7.84	14.52
12/02/2020 23:42:28	120220	12022020	234228	234.43	12.159185	-57.185048	234.41	0.410	-1.650	0.830	234.43	-3.00	1.20	 	 	 	 	 	 	 	 	 	 	 	 	 	 	 	 	 	 	1581550948	7.60	14.08
12/02/2020 23:42:29	120220	12022020	234229	234.36	12.159170	-57.185077	234.34	0.100	-1.430	0.770	234.36	-2.70	1.20	 	 	 	 	 	 	 	 	 	 	 	 	 	 	 	 	 	 	1581550949	7.27	13.46
12/02/2020 23:42:30	120220	12022020	234230	234.42	12.159153	-57.185103	234.43	-0.120	-1.020	0.630	234.42	-2.30	1.00	 	 	 	 	 	 	 	 	 	 	 	 	 	 	 	 	 	 	1581550950	6.97	12.91
12/02/2020 23:42:31	120220	12022020	234231	234.61	12.159135	-57.185133	234.62	-0.190	-0.690	0.530	234.61	-2.00	0.90	 	 	 	 	 	 	 	 	 	 	 	 	 	 	 	 	 	 	1581550951	6.98	12.93
12/02/2020 23:42:32	120220	12022020	234232	234.83	12.159117	-57.185165	234.84	-0.160	-0.450	0.560	234.83	-1.80	1.00	 	 	 	 	 	 	 	 	 	 	 	 	 	 	 	 	 	 	1581550952	7.34	13.59
12/02/2020 23:42:33	120220	12022020	234233	234.96	12.159100	-57.185198	234.93	-0.100	-0.120	0.810	234.96	-1.40	1.30	 	 	 	 	 	 	 	 	 	 	 	 	 	 	 	 	 	 	1581550953	7.71	14.28
12/02/2020 23:42:34	120220	12022020	234234	234.96	12.159083	-57.185230	234.93	-0.030	0.420	1.080	234.96	-0.80	1.50	 	 	 	 	 	 	 	 	 	 	 	 	 	 	 	 	 	 	1581550954	7.83	14.50
12/02/2020 23:42:35	120220	12022020	234235	234.88	12.159067	-57.185260	234.85	-0.040	0.860	1.210	234.88	-0.50	1.60	 	 	 	 	 	 	 	 	 	 	 	 	 	 	 	 	 	 	1581550955	7.63	14.13
12/02/2020 23:42:36	120220	12022020	234236	234.72	12.159047	-57.185292	234.69	-0.160	0.750	1.220	234.72	-0.80	1.60	 	 	 	 	 	 	 	 	 	 	 	 	 	 	 	 	 	 	1581550956	7.44	13.78
12/02/2020 23:42:37	120220	12022020	234237	234.52	12.159027	-57.185323	234.48	-0.330	0.220	1.100	234.52	-1.30	1.50	 	 	 	 	 	 	 	 	 	 	 	 	 	 	 	 	 	 	1581550957	7.69	14.24
12/02/2020 23:42:38	120220	12022020	234238	234.33	12.159008	-57.185355	234.30	-0.420	-0.250	0.860	234.33	-1.70	1.20	 	 	 	 	 	 	 	 	 	 	 	 	 	 	 	 	 	 	1581550958	7.95	14.72
12/02/2020 23:42:39	120220	12022020	234239	234.25	12.158990	-57.185383	234.22	-0.300	-0.480	0.540	234.25	-1.90	0.90	 	 	 	 	 	 	 	 	 	 	 	 	 	 	 	 	 	 	1581550959	7.79	14.43
12/02/2020 23:42:40	120220	12022020	234240	234.38	12.158973	-57.185413	234.37	0.030	-0.540	0.230	234.38	-1.90	0.60	 	 	 	 	 	 	 	 	 	 	 	 	 	 	 	 	 	 	1581550960	7.38	13.67
12/02/2020 23:42:41	120220	12022020	234241	234.79	12.158957	-57.185442	234.81	0.460	-0.550	0.020	234.79	-2.00	0.40	 	 	 	 	 	 	 	 	 	 	 	 	 	 	 	 	 	 	1581550961	7.11	13.17
12/02/2020 23:42:42	120220	12022020	234242	235.21	12.158940	-57.185472	235.19	0.850	-0.670	0.090	235.21	-2.10	0.60	 	 	 	 	 	 	 	 	 	 	 	 	 	 	 	 	 	 	1581550962	7.00	12.96
12/02/2020 23:42:43	120220	12022020	234243	235.26	12.158923	-57.185502	235.20	1.050	-0.930	0.490	235.26	-2.40	1.00	 	 	 	 	 	 	 	 	 	 	 	 	 	 	 	 	 	 	1581550963	7.14	13.22
12/02/2020 23:42:44	120220	12022020	234244	235.10	12.158907	-57.185533	235.05	0.850	-1.000	0.910	235.10	-2.40	1.40	 	 	 	 	 	 	 	 	 	 	 	 	 	 	 	 	 	 	1581550964	7.53	13.95
12/02/2020 23:42:45	120220	12022020	234245	235.02	12.158890	-57.185565	234.99	0.250	-0.690	1.110	235.02	-2.00	1.50	 	 	 	 	 	 	 	 	 	 	 	 	 	 	 	 	 	 	1581550965	7.71	14.28
12/02/2020 23:42:46	120220	12022020	234246	235.02	12.158873	-57.185595	234.99	-0.440	-0.190	1.110	235.02	-1.50	1.50	 	 	 	 	 	 	 	 	 	 	 	 	 	 	 	 	 	 	1581550966	7.53	13.95
12/02/2020 23:42:47	120220	12022020	234247	235.03	12.158855	-57.185627	235.00	-0.890	0.260	1.030	235.02	-1.10	1.40	 	 	 	 	 	 	 	 	 	 	 	 	 	 	 	 	 	 	1581550967	7.38	13.67
12/02/2020 23:42:48	120220	12022020	234248	234.97	12.158838	-57.185657	234.95	-0.990	0.430	1.060	234.97	-1.00	1.50	 	 	 	 	 	 	 	 	 	 	 	 	 	 	 	 	 	 	1581550968	7.41	13.72
12/02/2020 23:42:49	120220	12022020	234249	234.93	12.158820	-57.185690	234.90	-0.810	0.280	1.170	234.93	-1.20	1.60	 	 	 	 	 	 	 	 	 	 	 	 	 	 	 	 	 	 	1581550969	7.62	14.11
12/02/2020 23:42:50	120220	12022020	234250	234.98	12.158803	-57.185723	234.97	-0.450	0.050	1.220	234.98	-1.40	1.60	 	 	 	 	 	 	 	 	 	 	 	 	 	 	 	 	 	 	1581550970	7.87	14.58
12/02/2020 23:42:51	120220	12022020	234251	235.18	12.158787	-57.185753	235.17	-0.020	-0.020	1.010	235.18	-1.40	1.30	 	 	 	 	 	 	 	 	 	 	 	 	 	 	 	 	 	 	1581550971	7.87	14.58
12/02/2020 23:42:52	120220	12022020	234252	235.38	12.158768	-57.185782	235.37	0.400	-0.080	0.590	235.38	-1.50	0.90	 	 	 	 	 	 	 	 	 	 	 	 	 	 	 	 	 	 	1581550972	7.50	13.89
12/02/2020 23:42:53	120220	12022020	234253	235.52	12.158748	-57.185810	235.50	0.660	-0.220	0.190	235.52	-1.70	0.50	 	 	 	 	 	 	 	 	 	 	 	 	 	 	 	 	 	 	1581550973	7.21	13.35
12/02/2020 23:42:54	120220	12022020	234254	235.58	12.158730	-57.185838	235.54	0.690	-0.490	0.050	235.58	-2.00	0.50	 	 	 	 	 	 	 	 	 	 	 	 	 	 	 	 	 	 	1581550974	7.21	13.35
12/02/2020 23:42:55	120220	12022020	234255	235.43	12.158713	-57.185870	235.38	0.550	-0.810	0.360	235.43	-2.30	0.90	 	 	 	 	 	 	 	 	 	 	 	 	 	 	 	 	 	 	1581550975	7.32	13.56
12/02/2020 23:42:56	120220	12022020	234256	235.16	12.158698	-57.185903	235.12	0.310	-1.040	0.970	235.16	-2.50	1.50	 	 	 	 	 	 	 	 	 	 	 	 	 	 	 	 	 	 	1581550976	7.48	13.85
12/02/2020 23:42:57	120220	12022020	234257	235.00	12.158683	-57.185937	235.00	0.060	-0.940	1.440	235.00	-2.30	1.90	 	 	 	 	 	 	 	 	 	 	 	 	 	 	 	 	 	 	1581550977	7.71	14.28
12/02/2020 23:42:58	120220	12022020	234258	235.05	12.158670	-57.185968	235.06	-0.180	-0.440	1.610	235.05	-1.70	2.00	 	 	 	 	 	 	 	 	 	 	 	 	 	 	 	 	 	 	1581550978	7.71	14.28
12/02/2020 23:42:59	120220	12022020	234259	235.19	12.158655	-57.185998	235.20	-0.360	0.150	1.530	235.19	-1.10	1.90	 	 	 	 	 	 	 	 	 	 	 	 	 	 	 	 	 	 	1581550979	7.41	13.72
12/02/2020 23:43:00	120220	12022020	234300	235.30	12.158637	-57.186028	235.29	-0.440	0.460	1.320	235.30	-0.90	1.70	 	 	 	 	 	 	 	 	 	 	 	 	 	 	 	 	 	 	1581550980	7.19	13.32
12/02/2020 23:43:01	120220	12022020	234301	235.32	12.158618	-57.186058	235.29	-0.350	0.380	1.000	235.31	-1.10	1.30	1015.70	26.40	26.60	21.20	21.10	-1.0	73.0	72.0	405.0	25.7	206.00	6.70	71.00	10.30	17	11174.0	27.4	27.4	1581550981	7.33	13.58
12/02/2020 23:43:02	120220	12022020	234302	235.24	12.158597	-57.186088	235.20	-0.130	0.170	0.600	235.24	-1.30	0.90	 	 	 	 	 	 	 	 	 	 	 	 	 	 	 	 	 	 	1581550982	7.61	14.09
12/02/2020 23:43:03	120220	12022020	234303	235.08	12.158577	-57.186117	235.04	0.130	-0.140	0.340	235.08	-1.60	0.70	 	 	 	 	 	 	 	 	 	 	 	 	 	 	 	 	 	 	1581550983	7.66	14.19
12/02/2020 23:43:04	120220	12022020	234304	234.98	12.158557	-57.186147	234.94	0.270	-0.500	0.310	234.98	-2.00	0.70	 	 	 	 	 	 	 	 	 	 	 	 	 	 	 	 	 	 	1581550984	7.60	14.08
12/02/2020 23:43:05	120220	12022020	234305	234.97	12.158540	-57.186178	234.95	0.220	-0.790	0.530	234.97	-2.20	1.00	 	 	 	 	 	 	 	 	 	 	 	 	 	 	 	 	 	 	1581550985	7.59	14.06
12/02/2020 23:43:06	120220	12022020	234306	234.97	12.158525	-57.186210	234.94	0.050	-0.950	0.970	234.97	-2.40	1.50	 	 	 	 	 	 	 	 	 	 	 	 	 	 	 	 	 	 	1581550986	7.55	13.98
12/02/2020 23:43:07	120220	12022020	234307	234.85	12.158512	-57.186243	234.81	-0.050	-0.970	1.490	234.85	-2.40	2.00	 	 	 	 	 	 	 	 	 	 	 	 	 	 	 	 	 	 	1581550987	7.56	14.00
12/02/2020 23:43:08	120220	12022020	234308	234.68	12.158497	-57.186277	234.66	-0.050	-0.760	1.900	234.68	-2.10	2.40	 	 	 	 	 	 	 	 	 	 	 	 	 	 	 	 	 	 	1581550988	7.64	14.15
12/02/2020 23:43:09	120220	12022020	234309	234.62	12.158482	-57.186308	234.64	-0.030	-0.260	2.060	234.62	-1.50	2.50	 	 	 	 	 	 	 	 	 	 	 	 	 	 	 	 	 	 	1581550989	7.62	14.11
12/02/2020 23:43:10	120220	12022020	234310	234.72	12.158465	-57.186338	234.74	-0.070	0.360	1.970	234.72	-0.90	2.30	 	 	 	 	 	 	 	 	 	 	 	 	 	 	 	 	 	 	1581550990	7.41	13.72
12/02/2020 23:43:11	120220	12022020	234311	234.94	12.158448	-57.186368	234.96	-0.110	0.810	1.570	234.94	-0.60	1.80	 	 	 	 	 	 	 	 	 	 	 	 	 	 	 	 	 	 	1581550991	7.23	13.39
12/02/2020 23:43:12	120220	12022020	234312	235.17	12.158430	-57.186397	235.17	-0.050	0.830	0.860	235.17	-0.70	1.10	 	 	 	 	 	 	 	 	 	 	 	 	 	 	 	 	 	 	1581550992	7.20	13.33
12/02/2020 23:43:13	120220	12022020	234313	235.34	12.158407	-57.186425	235.36	0.110	0.370	0.060	235.38	-1.20	0.30	 	 	 	 	 	 	 	 	 	 	 	 	 	 	 	 	 	 	1581550993	7.37	13.65
12/02/2020 23:43:14	120220	12022020	234314	235.53	12.158383	-57.186453	235.49	0.180	-0.420	-0.370	235.53	-2.00	0.00	 	 	 	 	 	 	 	 	 	 	 	 	 	 	 	 	 	 	1581550994	7.68	14.22
12/02/2020 23:43:15	120220	12022020	234315	235.56	12.158365	-57.186485	235.47	0.080	-1.200	-0.140	235.54	-2.80	0.40	 	 	 	 	 	 	 	 	 	 	 	 	 	 	 	 	 	 	1581550995	7.87	14.58
12/02/2020 23:43:16	120220	12022020	234316	235.28	12.158350	-57.186518	235.20	-0.070	-1.640	0.610	235.28	-3.10	1.20	 	 	 	 	 	 	 	 	 	 	 	 	 	 	 	 	 	 	1581550996	7.81	14.46
12/02/2020 23:43:17	120220	12022020	234317	234.81	12.158337	-57.186552	234.74	-0.100	-1.530	1.490	234.81	-2.80	2.00	 	 	 	 	 	 	 	 	 	 	 	 	 	 	 	 	 	 	1581550997	7.71	14.28
12/02/2020 23:43:18	120220	12022020	234318	234.48	12.158325	-57.186583	234.46	0.000	-0.800	1.960	234.48	-2.00	2.40	 	 	 	 	 	 	 	 	 	 	 	 	 	 	 	 	 	 	1581550998	7.59	14.06
12/02/2020 23:43:19	120220	12022020	234319	234.53	12.158312	-57.186613	234.54	0.060	0.150	1.930	234.53	-1.10	2.30	 	 	 	 	 	 	 	 	 	 	 	 	 	 	 	 	 	 	1581550999	7.22	13.37
12/02/2020 23:43:20	120220	12022020	234320	234.78	12.158295	-57.186642	234.81	0.030	0.600	1.590	234.78	-0.80	1.90	 	 	 	 	 	 	 	 	 	 	 	 	 	 	 	 	 	 	1581551000	6.86	12.70
12/02/2020 23:43:21	120220	12022020	234321	234.99	12.158275	-57.186673	234.98	-0.020	0.430	1.220	234.99	-1.10	1.60	 	 	 	 	 	 	 	 	 	 	 	 	 	 	 	 	 	 	1581551001	7.15	13.24
12/02/2020 23:43:22	120220	12022020	234322	235.05	12.158255	-57.186705	235.03	-0.080	0.090	0.940	235.05	-1.40	1.30	 	 	 	 	 	 	 	 	 	 	 	 	 	 	 	 	 	 	1581551002	7.80	14.45
12/02/2020 23:43:23	120220	12022020	234323	235.15	12.158235	-57.186735	235.14	-0.190	-0.000	0.730	235.15	-1.40	1.10	 	 	 	 	 	 	 	 	 	 	 	 	 	 	 	 	 	 	1581551003	8.05	14.91
12/02/2020 23:43:24	120220	12022020	234324	235.33	12.158218	-57.186765	235.31	-0.330	0.120	0.530	235.33	-1.30	0.90	 	 	 	 	 	 	 	 	 	 	 	 	 	 	 	 	 	 	1581551004	7.72	14.30
12/02/2020 23:43:25	120220	12022020	234325	235.45	12.158202	-57.186795	235.44	-0.340	0.010	0.380	235.47	-1.50	0.80	 	 	 	 	 	 	 	 	 	 	 	 	 	 	 	 	 	 	1581551005	7.21	13.35
12/02/2020 23:43:26	120220	12022020	234326	235.55	12.158185	-57.186825	235.51	-0.120	-0.470	0.270	235.55	-2.00	0.70	 	 	 	 	 	 	 	 	 	 	 	 	 	 	 	 	 	 	1581551006	7.16	13.26
12/02/2020 23:43:27	120220	12022020	234327	235.60	12.158167	-57.186857	235.55	0.210	-0.900	0.300	235.60	-2.40	0.80	 	 	 	 	 	 	 	 	 	 	 	 	 	 	 	 	 	 	1581551007	7.53	13.95
12/02/2020 23:43:28	120220	12022020	234328	235.58	12.158148	-57.186885	235.52	0.430	-0.970	0.580	235.58	-2.30	1.10	 	 	 	 	 	 	 	 	 	 	 	 	 	 	 	 	 	 	1581551008	7.65	14.17
12/02/2020 23:43:29	120220	12022020	234329	235.31	12.158133	-57.186917	235.22	0.420	-0.810	1.150	235.31	-2.20	1.70	 	 	 	 	 	 	 	 	 	 	 	 	 	 	 	 	 	 	1581551009	7.33	13.58
12/02/2020 23:43:30	120220	12022020	234330	234.78	12.158118	-57.186948	234.71	0.260	-0.600	1.810	234.78	-1.90	2.30	 	 	 	 	 	 	 	 	 	 	 	 	 	 	 	 	 	 	1581551010	7.23	13.39
12/02/2020 23:43:31	120220	12022020	234331	234.37	12.158103	-57.186980	234.36	0.010	-0.250	2.150	234.37	-1.50	2.60	 	 	 	 	 	 	 	 	 	 	 	 	 	 	 	 	 	 	1581551011	7.42	13.74
12/02/2020 23:43:32	120220	12022020	234332	234.46	12.158088	-57.187012	234.51	-0.260	0.290	1.860	234.46	-1.00	2.10	 	 	 	 	 	 	 	 	 	 	 	 	 	 	 	 	 	 	1581551012	7.54	13.96
12/02/2020 23:43:33	120220	12022020	234333	234.97	12.158073	-57.187040	235.03	-0.410	0.680	1.080	234.97	-0.70	1.30	 	 	 	 	 	 	 	 	 	 	 	 	 	 	 	 	 	 	1581551013	7.32	13.56
12/02/2020 23:43:34	120220	12022020	234334	235.60	12.158053	-57.187070	235.64	-0.310	0.530	0.220	235.60	-1.00	0.50	 	 	 	 	 	 	 	 	 	 	 	 	 	 	 	 	 	 	1581551014	7.14	13.22
12/02/2020 23:43:35	120220	12022020	234335	236.06	12.158033	-57.187100	236.05	0.000	-0.170	-0.300	236.06	-1.80	0.10	 	 	 	 	 	 	 	 	 	 	 	 	 	 	 	 	 	 	1581551015	7.39	13.69
12/02/2020 23:43:36	120220	12022020	234336	236.20	12.158012	-57.187132	236.14	0.250	-0.870	-0.300	236.20	-2.40	0.20	 	 	 	 	 	 	 	 	 	 	 	 	 	 	 	 	 	 	1581551016	7.91	14.65
12/02/2020 23:43:37	120220	12022020	234337	236.10	12.157993	-57.187162	235.97	0.170	-1.100	0.150	236.05	-2.50	0.70	 	 	 	 	 	 	 	 	 	 	 	 	 	 	 	 	 	 	1581551017	7.99	14.80
12/02/2020 23:43:38	120220	12022020	234338	235.72	12.157978	-57.187193	235.64	-0.140	-0.850	0.780	235.72	-2.20	1.30	 	 	 	 	 	 	 	 	 	 	 	 	 	 	 	 	 	 	1581551018	7.60	14.08
12/02/2020 23:43:39	120220	12022020	234339	235.38	12.157965	-57.187223	235.32	-0.390	-0.410	1.310	235.38	-1.70	1.80	 	 	 	 	 	 	 	 	 	 	 	 	 	 	 	 	 	 	1581551019	7.21	13.35
12/02/2020 23:43:40	120220	12022020	234340	235.13	12.157952	-57.187255	235.08	-0.350	-0.160	1.560	235.13	-1.60	2.00	 	 	 	 	 	 	 	 	 	 	 	 	 	 	 	 	 	 	1581551020	7.09	13.13
12/02/2020 23:43:41	120220	12022020	234341	235.04	12.157935	-57.187287	235.02	-0.080	-0.100	1.490	235.04	-1.50	1.90	 	 	 	 	 	 	 	 	 	 	 	 	 	 	 	 	 	 	1581551021	7.36	13.63
12/02/2020 23:43:42	120220	12022020	234342	235.08	12.157918	-57.187318	235.07	0.170	0.010	1.300	235.08	-1.40	1.70	 	 	 	 	 	 	 	 	 	 	 	 	 	 	 	 	 	 	1581551022	7.64	14.15
12/02/2020 23:43:43	120220	12022020	234343	235.14	12.157900	-57.187348	235.13	0.190	0.220	1.100	235.14	-1.20	1.50	 	 	 	 	 	 	 	 	 	 	 	 	 	 	 	 	 	 	1581551023	7.59	14.06
12/02/2020 23:43:44	120220	12022020	234344	235.23	12.157883	-57.187377	235.22	0.020	0.350	0.950	235.23	-1.10	1.30	 	 	 	 	 	 	 	 	 	 	 	 	 	 	 	 	 	 	1581551024	7.35	13.61
12/02/2020 23:43:45	120220	12022020	234345	235.35	12.157867	-57.187408	235.33	-0.070	0.240	0.790	235.35	-1.20	1.20	 	 	 	 	 	 	 	 	 	 	 	 	 	 	 	 	 	 	1581551025	7.17	13.28
12/02/2020 23:43:46	120220	12022020	234346	235.50	12.157850	-57.187438	235.49	0.120	-0.160	0.550	235.50	-1.70	0.90	 	 	 	 	 	 	 	 	 	 	 	 	 	 	 	 	 	 	1581551026	7.26	13.45
12/02/2020 23:43:47	120220	12022020	234347	235.62	12.157832	-57.187470	235.59	0.440	-0.640	0.360	235.62	-2.20	0.80	 	 	 	 	 	 	 	 	 	 	 	 	 	 	 	 	 	 	1581551027	7.48	13.85
12/02/2020 23:43:48	120220	12022020	234348	235.55	12.157813	-57.187500	235.51	0.580	-0.970	0.460	235.55	-2.40	0.90	 	 	 	 	 	 	 	 	 	 	 	 	 	 	 	 	 	 	1581551028	7.63	14.13
12/02/2020 23:43:49	120220	12022020	234349	235.46	12.157797	-57.187532	235.41	0.360	-0.940	0.660	235.44	-2.30	1.10	 	 	 	 	 	 	 	 	 	 	 	 	 	 	 	 	 	 	1581551029	7.59	14.06
12/02/2020 23:43:50	120220	12022020	234350	235.43	12.157782	-57.187562	235.40	-0.050	-0.650	0.790	235.43	-2.00	1.20	 	 	 	 	 	 	 	 	 	 	 	 	 	 	 	 	 	 	1581551030	7.37	13.65
12/02/2020 23:43:51	120220	12022020	234351	235.40	12.157767	-57.187592	235.33	-0.340	-0.390	0.990	235.38	-1.80	1.50	 	 	 	 	 	 	 	 	 	 	 	 	 	 	 	 	 	 	1581551031	7.14	13.22
12/02/2020 23:43:52	120220	12022020	234352	235.21	12.157750	-57.187623	235.14	-0.340	-0.260	1.240	235.21	-1.60	1.70	 	 	 	 	 	 	 	 	 	 	 	 	 	 	 	 	 	 	1581551032	7.23	13.39
12/02/2020 23:43:53	120220	12022020	234353	235.02	12.157733	-57.187655	234.96	-0.230	-0.140	1.480	235.02	-1.50	1.90	 	 	 	 	 	 	 	 	 	 	 	 	 	 	 	 	 	 	1581551033	7.50	13.89
12/02/2020 23:43:54	120220	12022020	234354	234.88	12.157717	-57.187685	234.86	-0.220	-0.020	1.560	234.88	-1.40	1.90	 	 	 	 	 	 	 	 	 	 	 	 	 	 	 	 	 	 	1581551034	7.60	14.08
12/02/2020 23:43:55	120220	12022020	234355	234.87	12.157698	-57.187717	234.86	-0.330	0.110	1.360	234.87	-1.30	1.70	 	 	 	 	 	 	 	 	 	 	 	 	 	 	 	 	 	 	1581551035	7.57	14.02
12/02/2020 23:43:56	120220	12022020	234356	234.99	12.157683	-57.187747	234.98	-0.360	0.210	1.090	234.99	-1.20	1.40	 	 	 	 	 	 	 	 	 	 	 	 	 	 	 	 	 	 	1581551036	7.49	13.87
12/02/2020 23:43:57	120220	12022020	234357	235.17	12.157667	-57.187778	235.13	-0.140	0.210	0.790	235.17	-1.30	1.10	 	 	 	 	 	 	 	 	 	 	 	 	 	 	 	 	 	 	1581551037	7.41	13.72
12/02/2020 23:43:58	120220	12022020	234358	235.31	12.157648	-57.187808	235.27	0.360	-0.050	0.440	235.31	-1.50	0.80	 	 	 	 	 	 	 	 	 	 	 	 	 	 	 	 	 	 	1581551038	7.36	13.63
12/02/2020 23:43:59	120220	12022020	234359	235.33	12.157628	-57.187838	235.28	0.700	-0.410	0.280	235.33	-1.90	0.70	 	 	 	 	 	 	 	 	 	 	 	 	 	 	 	 	 	 	1581551039	7.46	13.82
12/02/2020 23:44:00	120220	12022020	234400	235.24	12.157610	-57.187868	235.19	0.670	-0.690	0.360	235.24	-2.10	0.80	 	 	 	 	 	 	 	 	 	 	 	 	 	 	 	 	 	 	1581551040	7.56	14.00
12/02/2020 23:44:01	120220	12022020	234401	235.14	12.157593	-57.187898	235.10	0.270	-0.660	0.620	235.14	-2.00	1.10	1015.70	26.30	26.40	21.00	21.00	-1.0	72.0	72.0	407.0	25.7	205.00	7.30	72.00	11.00	17	12043.0	27.5	27.4	1581551041	7.56	14.00
12/02/2020 23:44:02	120220	12022020	234402	235.06	12.157580	-57.187930	235.00	-0.210	-0.470	0.980	235.06	-1.90	1.50	 	 	 	 	 	 	 	 	 	 	 	 	 	 	 	 	 	 	1581551042	7.33	13.58
12/02/2020 23:44:03	120220	12022020	234403	234.89	12.157567	-57.187962	234.79	-0.390	-0.440	1.390	234.85	-1.90	1.90	 	 	 	 	 	 	 	 	 	 	 	 	 	 	 	 	 	 	1581551043	7.20	13.33
12/02/2020 23:44:04	120220	12022020	234404	234.62	12.157550	-57.187995	234.59	-0.280	-0.540	1.580	234.62	-2.00	2.00	 	 	 	 	 	 	 	 	 	 	 	 	 	 	 	 	 	 	1581551044	7.42	13.74
12/02/2020 23:44:05	120220	12022020	234405	234.60	12.157533	-57.188025	234.60	-0.180	-0.530	1.430	234.62	-1.90	1.80	 	 	 	 	 	 	 	 	 	 	 	 	 	 	 	 	 	 	1581551045	7.70	14.26
12/02/2020 23:44:06	120220	12022020	234406	234.69	12.157515	-57.188057	234.67	-0.180	-0.310	1.240	234.69	-1.60	1.60	 	 	 	 	 	 	 	 	 	 	 	 	 	 	 	 	 	 	1581551046	7.65	14.17
12/02/2020 23:44:07	120220	12022020	234407	234.72	12.157498	-57.188087	234.71	-0.160	0.090	1.120	234.72	-1.20	1.50	 	 	 	 	 	 	 	 	 	 	 	 	 	 	 	 	 	 	1581551047	7.48	13.85
12/02/2020 23:44:08	120220	12022020	234408	234.78	12.157480	-57.188115	234.77	-0.000	0.440	0.920	234.78	-0.90	1.30	 	 	 	 	 	 	 	 	 	 	 	 	 	 	 	 	 	 	1581551048	7.27	13.46
12/02/2020 23:44:09	120220	12022020	234409	234.75	12.157462	-57.188143	234.71	0.220	0.400	0.780	234.75	-1.10	1.20	 	 	 	 	 	 	 	 	 	 	 	 	 	 	 	 	 	 	1581551049	7.16	13.26
12/02/2020 23:44:10	120220	12022020	234410	234.57	12.157443	-57.188175	234.52	0.350	-0.020	0.860	234.57	-1.50	1.30	 	 	 	 	 	 	 	 	 	 	 	 	 	 	 	 	 	 	1581551050	7.37	13.65
12/02/2020 23:44:11	120220	12022020	234411	234.42	12.157427	-57.188208	234.41	0.290	-0.450	0.980	234.42	-1.90	1.40	 	 	 	 	 	 	 	 	 	 	 	 	 	 	 	 	 	 	1581551051	7.75	14.35
12/02/2020 23:44:12	120220	12022020	234412	234.41	12.157412	-57.188240	234.40	0.110	-0.640	1.050	234.41	-2.10	1.50	 	 	 	 	 	 	 	 	 	 	 	 	 	 	 	 	 	 	1581551052	7.80	14.45
12/02/2020 23:44:13	120220	12022020	234413	234.47	12.157395	-57.188270	234.46	-0.010	-0.820	1.100	234.47	-2.30	1.50	 	 	 	 	 	 	 	 	 	 	 	 	 	 	 	 	 	 	1581551053	7.47	13.83
12/02/2020 23:44:14	120220	12022020	234414	234.53	12.157378	-57.188302	234.52	-0.020	-1.040	1.120	234.53	-2.50	1.50	 	 	 	 	 	 	 	 	 	 	 	 	 	 	 	 	 	 	1581551054	7.40	13.70
12/02/2020 23:44:15	120220	12022020	234415	234.57	12.157360	-57.188333	234.56	-0.060	-1.020	1.120	234.57	-2.40	1.50	 	 	 	 	 	 	 	 	 	 	 	 	 	 	 	 	 	 	1581551055	7.58	14.04
12/02/2020 23:44:16	120220	12022020	234416	234.62	12.157343	-57.188363	234.61	-0.220	-0.560	1.180	234.62	-1.80	1.60	 	 	 	 	 	 	 	 	 	 	 	 	 	 	 	 	 	 	1581551056	7.66	14.19
12/02/2020 23:44:17	120220	12022020	234417	234.58	12.157327	-57.188393	234.56	-0.420	0.220	1.290	234.58	-1.00	1.70	 	 	 	 	 	 	 	 	 	 	 	 	 	 	 	 	 	 	1581551057	7.41	13.72
12/02/2020 23:44:18	120220	12022020	234418	234.48	12.157310	-57.188422	234.47	-0.470	0.830	1.250	234.48	-0.50	1.60	 	 	 	 	 	 	 	 	 	 	 	 	 	 	 	 	 	 	1581551058	7.13	13.20
12/02/2020 23:44:19	120220	12022020	234419	234.47	12.157292	-57.188450	234.47	-0.270	0.920	0.940	234.47	-0.60	1.30	 	 	 	 	 	 	 	 	 	 	 	 	 	 	 	 	 	 	1581551059	7.02	13.00
12/02/2020 23:44:20	120220	12022020	234420	234.51	12.157272	-57.188482	234.51	0.080	0.330	0.700	234.51	-1.30	1.10	 	 	 	 	 	 	 	 	 	 	 	 	 	 	 	 	 	 	1581551060	7.33	13.58
12/02/2020 23:44:21	120220	12022020	234421	234.41	12.157252	-57.188513	234.37	0.400	-0.420	0.690	234.41	-2.00	1.10	 	 	 	 	 	 	 	 	 	 	 	 	 	 	 	 	 	 	1581551061	7.82	14.48
12/02/2020 23:44:22	120220	12022020	234422	234.08	12.157233	-57.188545	234.03	0.570	-0.920	0.940	234.08	-2.40	1.40	 	 	 	 	 	 	 	 	 	 	 	 	 	 	 	 	 	 	1581551062	7.97	14.76
12/02/2020 23:44:23	120220	12022020	234423	233.88	12.157220	-57.188577	233.89	0.510	-0.940	1.240	233.88	-2.30	1.70	 	 	 	 	 	 	 	 	 	 	 	 	 	 	 	 	 	 	1581551063	7.78	14.41
12/02/2020 23:44:24	120220	12022020	234424	234.12	12.157207	-57.188608	234.17	0.280	-0.650	1.260	234.12	-2.00	1.60	 	 	 	 	 	 	 	 	 	 	 	 	 	 	 	 	 	 	1581551064	7.40	13.70
12/02/2020 23:44:25	120220	12022020	234425	234.51	12.157192	-57.188637	234.55	0.030	-0.440	0.950	234.51	-1.80	1.30	 	 	 	 	 	 	 	 	 	 	 	 	 	 	 	 	 	 	1581551065	7.07	13.09
12/02/2020 23:44:26	120220	12022020	234426	234.74	12.157173	-57.188667	234.73	-0.110	-0.540	0.540	234.74	-2.00	0.90	 	 	 	 	 	 	 	 	 	 	 	 	 	 	 	 	 	 	1581551066	7.04	13.04
12/02/2020 23:44:27	120220	12022020	234427	234.83	12.157152	-57.188697	234.85	-0.180	-0.650	0.140	234.85	-2.00	0.50	 	 	 	 	 	 	 	 	 	 	 	 	 	 	 	 	 	 	1581551067	7.47	13.83
12/02/2020 23:44:28	120220	12022020	234428	234.92	12.157132	-57.188727	234.90	-0.310	-0.470	-0.100	234.92	-1.80	0.30	 	 	 	 	 	 	 	 	 	 	 	 	 	 	 	 	 	 	1581551068	7.79	14.43
12/02/2020 23:44:29	120220	12022020	234429	234.91	12.157112	-57.188757	234.86	-0.500	-0.160	0.110	234.91	-1.50	0.70	 	 	 	 	 	 	 	 	 	 	 	 	 	 	 	 	 	 	1581551069	7.65	14.17
12/02/2020 23:44:30	120220	12022020	234430	234.70	12.157097	-57.188788	234.66	-0.580	0.050	0.790	234.70	-1.30	1.40	 	 	 	 	 	 	 	 	 	 	 	 	 	 	 	 	 	 	1581551070	7.47	13.83
12/02/2020 23:44:31	120220	12022020	234431	234.35	12.157082	-57.188822	234.31	-0.410	0.140	1.550	234.35	-1.20	2.10	 	 	 	 	 	 	 	 	 	 	 	 	 	 	 	 	 	 	1581551071	7.57	14.02
12/02/2020 23:44:32	120220	12022020	234432	234.08	12.157067	-57.188855	234.08	-0.070	0.290	1.930	234.08	-1.10	2.40	 	 	 	 	 	 	 	 	 	 	 	 	 	 	 	 	 	 	1581551072	7.78	14.41
12/02/2020 23:44:33	120220	12022020	234433	234.10	12.157050	-57.188885	234.12	0.210	0.450	1.810	234.10	-0.90	2.10	 	 	 	 	 	 	 	 	 	 	 	 	 	 	 	 	 	 	1581551073	7.65	14.17
12/02/2020 23:44:34	120220	12022020	234434	234.31	12.157033	-57.188913	234.34	0.430	0.380	1.330	234.31	-1.10	1.60	 	 	 	 	 	 	 	 	 	 	 	 	 	 	 	 	 	 	1581551074	7.26	13.45
12/02/2020 23:44:35	120220	12022020	234435	234.44	12.157015	-57.188943	234.45	0.510	-0.110	0.920	234.44	-1.70	1.30	 	 	 	 	 	 	 	 	 	 	 	 	 	 	 	 	 	 	1581551075	7.16	13.26
12/02/2020 23:44:36	120220	12022020	234436	234.42	12.156995	-57.188975	234.41	0.510	-0.780	0.700	234.42	-2.40	1.10	 	 	 	 	 	 	 	 	 	 	 	 	 	 	 	 	 	 	1581551076	7.43	13.76
12/02/2020 23:44:37	120220	12022020	234437	234.29	12.156978	-57.189007	234.27	0.370	-1.380	0.710	234.29	-2.80	1.20	 	 	 	 	 	 	 	 	 	 	 	 	 	 	 	 	 	 	1581551077	7.76	14.37
12/02/2020 23:44:38	120220	12022020	234438	234.16	12.156962	-57.189038	234.15	0.130	-1.340	0.850	234.16	-2.70	1.30	 	 	 	 	 	 	 	 	 	 	 	 	 	 	 	 	 	 	1581551078	7.82	14.48
12/02/2020 23:44:39	120220	12022020	234439	234.05	12.156945	-57.189068	234.05	-0.120	-0.950	0.910	234.05	-2.20	1.30	 	 	 	 	 	 	 	 	 	 	 	 	 	 	 	 	 	 	1581551079	7.47	13.83
12/02/2020 23:44:40	120220	12022020	234440	233.94	12.156928	-57.189097	233.94	-0.310	-0.390	0.900	233.94	-1.70	1.30	 	 	 	 	 	 	 	 	 	 	 	 	 	 	 	 	 	 	1581551080	7.17	13.28
12/02/2020 23:44:41	120220	12022020	234441	234.03	12.156910	-57.189127	234.03	-0.380	0.020	0.720	234.03	-1.30	1.10	 	 	 	 	 	 	 	 	 	 	 	 	 	 	 	 	 	 	1581551081	7.21	13.35
12/02/2020 23:44:42	120220	12022020	234442	234.30	12.156892	-57.189155	234.31	-0.420	0.410	0.430	234.30	-1.00	0.80	 	 	 	 	 	 	 	 	 	 	 	 	 	 	 	 	 	 	1581551082	7.35	13.61
12/02/2020 23:44:43	120220	12022020	234443	234.52	12.156873	-57.189187	234.49	-0.370	0.550	0.340	234.52	-0.90	0.80	 	 	 	 	 	 	 	 	 	 	 	 	 	 	 	 	 	 	1581551083	7.42	13.74
12/02/2020 23:44:44	120220	12022020	234444	234.59	12.156857	-57.189217	234.56	-0.160	0.470	0.480	234.59	-1.00	1.00	 	 	 	 	 	 	 	 	 	 	 	 	 	 	 	 	 	 	1581551084	7.51	13.91
12/02/2020 23:44:45	120220	12022020	234445	234.58	12.156838	-57.189250	234.55	0.140	0.170	0.820	234.58	-1.40	1.40	 	 	 	 	 	 	 	 	 	 	 	 	 	 	 	 	 	 	1581551085	7.60	14.08
12/02/2020 23:44:46	120220	12022020	234446	234.39	12.156822	-57.189282	234.37	0.380	-0.310	1.270	234.39	-1.90	1.80	 	 	 	 	 	 	 	 	 	 	 	 	 	 	 	 	 	 	1581551086	7.67	14.20
12/02/2020 23:44:47	120220	12022020	234447	234.06	12.156805	-57.189315	234.02	0.380	-0.850	1.640	234.06	-2.30	2.10	 	 	 	 	 	 	 	 	 	 	 	 	 	 	 	 	 	 	1581551087	7.79	14.43
12/02/2020 23:44:48	120220	12022020	234448	233.72	12.156788	-57.189345	233.71	0.190	-1.010	1.690	233.72	-2.40	2.10	 	 	 	 	 	 	 	 	 	 	 	 	 	 	 	 	 	 	1581551088	7.81	14.46
12/02/2020 23:44:49	120220	12022020	234449	233.52	12.156772	-57.189375	233.50	-0.110	-0.780	1.500	233.52	-2.00	1.80	 	 	 	 	 	 	 	 	 	 	 	 	 	 	 	 	 	 	1581551089	7.57	14.02
12/02/2020 23:44:50	120220	12022020	234450	233.61	12.156753	-57.189403	233.63	-0.360	-0.320	1.030	233.61	-1.70	1.30	 	 	 	 	 	 	 	 	 	 	 	 	 	 	 	 	 	 	1581551090	7.23	13.39
12/02/2020 23:44:51	120220	12022020	234451	233.89	12.156737	-57.189433	233.88	-0.360	-0.120	0.630	233.89	-1.50	0.90	 	 	 	 	 	 	 	 	 	 	 	 	 	 	 	 	 	 	1581551091	7.02	13.00
12/02/2020 23:44:52	120220	12022020	234452	234.16	12.156718	-57.189463	234.16	-0.120	-0.110	0.370	234.16	-1.50	0.80	 	 	 	 	 	 	 	 	 	 	 	 	 	 	 	 	 	 	1581551092	7.24	13.41
12/02/2020 23:44:53	120220	12022020	234453	234.31	12.156700	-57.189493	234.32	0.230	-0.100	0.380	234.32	-1.50	0.90	 	 	 	 	 	 	 	 	 	 	 	 	 	 	 	 	 	 	1581551093	7.56	14.00
12/02/2020 23:44:54	120220	12022020	234454	234.23	12.156682	-57.189525	234.22	0.390	-0.080	0.630	234.23	-1.50	1.20	 	 	 	 	 	 	 	 	 	 	 	 	 	 	 	 	 	 	1581551094	7.60	14.08
12/02/2020 23:44:55	120220	12022020	234455	233.99	12.156665	-57.189557	233.92	0.370	-0.200	1.060	233.92	-1.70	1.60	 	 	 	 	 	 	 	 	 	 	 	 	 	 	 	 	 	 	1581551095	7.51	13.91
12/02/2020 23:44:56	120220	12022020	234456	233.65	12.156648	-57.189588	233.63	0.140	-0.360	1.330	233.65	-1.80	1.80	 	 	 	 	 	 	 	 	 	 	 	 	 	 	 	 	 	 	1581551096	7.62	14.11
12/02/2020 23:44:57	120220	12022020	234457	233.65	12.156630	-57.189618	233.64	-0.120	-0.260	1.210	233.65	-1.60	1.60	 	 	 	 	 	 	 	 	 	 	 	 	 	 	 	 	 	 	1581551097	7.73	14.32
12/02/2020 23:44:58	120220	12022020	234458	233.89	12.156613	-57.189648	233.89	-0.310	0.030	0.900	233.89	-1.30	1.20	 	 	 	 	 	 	 	 	 	 	 	 	 	 	 	 	 	 	1581551098	7.49	13.87
12/02/2020 23:44:59	120220	12022020	234459	234.21	12.156597	-57.189677	234.18	-0.260	0.160	0.590	234.21	-1.30	1.00	 	 	 	 	 	 	 	 	 	 	 	 	 	 	 	 	 	 	1581551099	7.16	13.26
12/02/2020 23:45:00	120220	12022020	234500	234.30	12.156577	-57.189707	234.26	-0.010	-0.160	0.590	234.30	-1.70	1.10	 	 	 	 	 	 	 	 	 	 	 	 	 	 	 	 	 	 	1581551100	7.17	13.28
12/02/2020 23:45:01	120220	12022020	234501	234.12	12.156558	-57.189738	234.09	0.180	-0.670	0.910	234.12	-2.20	1.50	1015.70	26.30	26.40	20.90	21.00	-1.0	72.0	72.0	408.0	25.7	206.00	7.00	71.00	10.60	17	11983.0	27.5	27.4	1581551101	7.58	14.04
12/02/2020 23:45:02	120220	12022020	234502	233.86	12.156540	-57.189770	233.84	0.100	-0.940	1.330	233.86	-2.30	1.90	 	 	 	 	 	 	 	 	 	 	 	 	 	 	 	 	 	 	1581551102	7.87	14.58
12/02/2020 23:45:03	120220	12022020	234503	233.57	12.156525	-57.189803	233.55	-0.160	-0.840	1.760	233.57	-2.20	2.30	 	 	 	 	 	 	 	 	 	 	 	 	 	 	 	 	 	 	1581551103	7.74	14.33
12/02/2020 23:45:04	120220	12022020	234504	233.31	12.156512	-57.189835	233.29	-0.280	-0.540	2.030	233.31	-1.90	2.50	 	 	 	 	 	 	 	 	 	 	 	 	 	 	 	 	 	 	1581551104	7.48	13.85
12/02/2020 23:45:05	120220	12022020	234505	233.14	12.156497	-57.189867	233.12	-0.070	-0.250	1.950	233.14	-1.60	2.20	 	 	 	 	 	 	 	 	 	 	 	 	 	 	 	 	 	 	1581551105	7.40	13.70
12/02/2020 23:45:06	120220	12022020	234506	233.24	12.156478	-57.189895	233.23	0.280	0.050	1.400	233.24	-1.30	1.60	 	 	 	 	 	 	 	 	 	 	 	 	 	 	 	 	 	 	1581551106	7.43	13.76
12/02/2020 23:45:07	120220	12022020	234507	233.70	12.156457	-57.189923	233.68	0.460	0.270	0.540	233.70	-1.10	0.70	 	 	 	 	 	 	 	 	 	 	 	 	 	 	 	 	 	 	1581551107	7.38	13.67
12/02/2020 23:45:08	120220	12022020	234508	234.16	12.156435	-57.189950	234.13	0.350	0.260	-0.080	234.16	-1.20	0.30	 	 	 	 	 	 	 	 	 	 	 	 	 	 	 	 	 	 	1581551108	7.34	13.59
12/02/2020 23:45:09	120220	12022020	234509	234.33	12.156415	-57.189980	234.30	0.040	0.020	-0.070	234.33	-1.50	0.50	 	 	 	 	 	 	 	 	 	 	 	 	 	 	 	 	 	 	1581551109	7.46	13.82
12/02/2020 23:45:10	120220	12022020	234510	234.21	12.156397	-57.190012	234.20	-0.240	-0.300	0.480	234.21	-1.80	1.10	 	 	 	 	 	 	 	 	 	 	 	 	 	 	 	 	 	 	1581551110	7.61	14.09
12/02/2020 23:45:11	120220	12022020	234511	233.93	12.156382	-57.190043	233.94	-0.330	-0.540	1.250	233.93	-2.00	1.90	 	 	 	 	 	 	 	 	 	 	 	 	 	 	 	 	 	 	1581551111	7.71	14.28
12/02/2020 23:45:12	120220	12022020	234512	233.59	12.156367	-57.190077	233.61	-0.250	-0.750	1.870	233.59	-2.20	2.40	 	 	 	 	 	 	 	 	 	 	 	 	 	 	 	 	 	 	1581551112	7.69	14.24
12/02/2020 23:45:13	120220	12022020	234513	233.26	12.156350	-57.190110	233.28	-0.090	-0.880	2.080	233.26	-2.30	2.50	 	 	 	 	 	 	 	 	 	 	 	 	 	 	 	 	 	 	1581551113	7.71	14.28
12/02/2020 23:45:14	120220	12022020	234514	233.02	12.156333	-57.190140	233.04	0.020	-0.710	1.840	233.02	-1.90	2.10	 	 	 	 	 	 	 	 	 	 	 	 	 	 	 	 	 	 	1581551114	7.71	14.28
12/02/2020 23:45:15	120220	12022020	234515	233.08	12.156317	-57.190168	233.10	0.020	-0.090	1.280	233.08	-1.30	1.50	 	 	 	 	 	 	 	 	 	 	 	 	 	 	 	 	 	 	1581551115	7.48	13.85
12/02/2020 23:45:16	120220	12022020	234516	233.52	12.156298	-57.190195	233.51	-0.030	0.540	0.530	233.52	-0.80	0.70	 	 	 	 	 	 	 	 	 	 	 	 	 	 	 	 	 	 	1581551116	7.00	12.96
12/02/2020 23:45:17	120220	12022020	234517	233.94	12.156278	-57.190222	234.02	-0.030	0.550	-0.120	234.04	-1.00	0.20	 	 	 	 	 	 	 	 	 	 	 	 	 	 	 	 	 	 	1581551117	6.75	12.50
12/02/2020 23:45:18	120220	12022020	234518	234.39	12.156257	-57.190252	234.36	0.150	-0.100	-0.370	234.39	-1.80	0.10	 	 	 	 	 	 	 	 	 	 	 	 	 	 	 	 	 	 	1581551118	7.19	13.32
12/02/2020 23:45:19	120220	12022020	234519	234.50	12.156237	-57.190285	234.48	0.370	-0.830	-0.130	234.50	-2.40	0.50	 	 	 	 	 	 	 	 	 	 	 	 	 	 	 	 	 	 	1581551119	7.90	14.63
12/02/2020 23:45:20	120220	12022020	234520	234.33	12.156218	-57.190317	234.32	0.400	-1.130	0.430	234.33	-2.50	1.10	 	 	 	 	 	 	 	 	 	 	 	 	 	 	 	 	 	 	1581551120	8.09	14.98
12/02/2020 23:45:21	120220	12022020	234521	233.90	12.156203	-57.190348	233.91	0.160	-1.050	1.150	233.90	-2.40	1.80	 	 	 	 	 	 	 	 	 	 	 	 	 	 	 	 	 	 	1581551121	7.79	14.43
12/02/2020 23:45:22	120220	12022020	234522	233.46	12.156188	-57.190382	233.48	-0.250	-0.660	1.800	233.46	-1.90	2.40	 	 	 	 	 	 	 	 	 	 	 	 	 	 	 	 	 	 	1581551122	7.60	14.08
12/02/2020 23:45:23	120220	12022020	234523	233.26	12.156175	-57.190413	233.30	-0.620	-0.030	2.060	233.26	-1.20	2.50	 	 	 	 	 	 	 	 	 	 	 	 	 	 	 	 	 	 	1581551123	7.53	13.95
12/02/2020 23:45:24	120220	12022020	234524	233.38	12.156158	-57.190443	233.41	-0.750	0.550	1.840	233.38	-0.70	2.10	 	 	 	 	 	 	 	 	 	 	 	 	 	 	 	 	 	 	1581551124	7.33	13.58
12/02/2020 23:45:25	120220	12022020	234525	233.71	12.156140	-57.190472	233.74	-0.530	0.740	1.180	233.71	-0.70	1.30	 	 	 	 	 	 	 	 	 	 	 	 	 	 	 	 	 	 	1581551125	7.20	13.33
12/02/2020 23:45:26	120220	12022020	234526	234.18	12.156120	-57.190502	234.19	-0.040	0.490	0.330	234.18	-1.10	0.50	 	 	 	 	 	 	 	 	 	 	 	 	 	 	 	 	 	 	1581551126	7.36	13.63
12/02/2020 23:45:27	120220	12022020	234527	234.65	12.156098	-57.190530	234.63	0.440	0.040	-0.280	234.65	-1.50	0.10	 	 	 	 	 	 	 	 	 	 	 	 	 	 	 	 	 	 	1581551127	7.60	14.08
12/02/2020 23:45:28	120220	12022020	234528	234.94	12.156078	-57.190558	234.93	0.690	-0.400	-0.370	234.94	-1.90	0.20	 	 	 	 	 	 	 	 	 	 	 	 	 	 	 	 	 	 	1581551128	7.61	14.09
12/02/2020 23:45:29	120220	12022020	234529	234.87	12.156062	-57.190590	234.85	0.670	-0.820	0.120	234.87	-2.30	0.80	 	 	 	 	 	 	 	 	 	 	 	 	 	 	 	 	 	 	1581551129	7.40	13.70
12/02/2020 23:45:30	120220	12022020	234530	234.42	12.156048	-57.190622	234.40	0.490	-1.160	0.980	234.42	-2.60	1.70	 	 	 	 	 	 	 	 	 	 	 	 	 	 	 	 	 	 	1581551130	7.40	13.70
12/02/2020 23:45:31	120220	12022020	234531	234.00	12.156033	-57.190655	233.93	0.220	-1.280	1.660	233.93	-2.60	2.20	 	 	 	 	 	 	 	 	 	 	 	 	 	 	 	 	 	 	1581551131	7.57	14.02
12/02/2020 23:45:32	120220	12022020	234532	233.75	12.156017	-57.190687	233.76	-0.120	-0.990	1.810	233.75	-2.20	2.20	 	 	 	 	 	 	 	 	 	 	 	 	 	 	 	 	 	 	1581551132	7.69	14.24
12/02/2020 23:45:33	120220	12022020	234533	233.86	12.156000	-57.190717	233.89	-0.530	-0.400	1.610	233.86	-1.60	2.00	 	 	 	 	 	 	 	 	 	 	 	 	 	 	 	 	 	 	1581551133	7.52	13.93
12/02/2020 23:45:34	120220	12022020	234534	233.98	12.155982	-57.190747	233.99	-0.830	0.060	1.410	233.98	-1.20	1.80	 	 	 	 	 	 	 	 	 	 	 	 	 	 	 	 	 	 	1581551134	7.29	13.50
12/02/2020 23:45:35	120220	12022020	234535	234.04	12.155965	-57.190778	234.07	-0.820	0.330	1.230	234.04	-1.00	1.50	 	 	 	 	 	 	 	 	 	 	 	 	 	 	 	 	 	 	1581551135	7.43	13.76
12/02/2020 23:45:36	120220	12022020	234536	234.25	12.155947	-57.190808	234.27	-0.450	0.560	0.850	234.25	-0.80	1.10	 	 	 	 	 	 	 	 	 	 	 	 	 	 	 	 	 	 	1581551136	7.65	14.17
12/02/2020 23:45:37	120220	12022020	234537	234.51	12.155928	-57.190837	234.50	0.130	0.660	0.430	234.51	-0.80	0.80	 	 	 	 	 	 	 	 	 	 	 	 	 	 	 	 	 	 	1581551137	7.47	13.83
12/02/2020 23:45:38	120220	12022020	234538	234.54	12.155908	-57.190865	234.52	0.650	0.350	0.320	234.54	-1.20	0.80	 	 	 	 	 	 	 	 	 	 	 	 	 	 	 	 	 	 	1581551138	7.25	13.43
12/02/2020 23:45:39	120220	12022020	234539	234.43	12.155888	-57.190895	234.43	0.840	-0.150	0.530	234.43	-1.70	1.00	 	 	 	 	 	 	 	 	 	 	 	 	 	 	 	 	 	 	1581551139	7.44	13.78
12/02/2020 23:45:40	120220	12022020	234540	234.36	12.155872	-57.190927	234.36	0.640	-0.470	0.900	234.36	-2.00	1.50	 	 	 	 	 	 	 	 	 	 	 	 	 	 	 	 	 	 	1581551140	7.59	14.06
12/02/2020 23:45:41	120220	12022020	234541	234.24	12.155858	-57.190958	234.24	0.290	-0.680	1.380	234.24	-2.20	1.90	 	 	 	 	 	 	 	 	 	 	 	 	 	 	 	 	 	 	1581551141	7.38	13.67
12/02/2020 23:45:42	120220	12022020	234542	234.10	12.155843	-57.190990	234.11	0.010	-0.980	1.710	234.10	-2.50	2.10	 	 	 	 	 	 	 	 	 	 	 	 	 	 	 	 	 	 	1581551142	7.34	13.59
12/02/2020 23:45:43	120220	12022020	234543	234.10	12.155827	-57.191023	234.12	-0.140	-1.230	1.630	234.11	-2.60	1.90	 	 	 	 	 	 	 	 	 	 	 	 	 	 	 	 	 	 	1581551143	7.60	14.08
12/02/2020 23:45:44	120220	12022020	234544	234.22	12.155810	-57.191055	234.21	-0.210	-1.150	1.250	234.22	-2.50	1.50	 	 	 	 	 	 	 	 	 	 	 	 	 	 	 	 	 	 	1581551144	7.75	14.35
12/02/2020 23:45:45	120220	12022020	234545	234.25	12.155792	-57.191083	234.22	-0.280	-0.820	0.840	234.24	-2.10	1.10	 	 	 	 	 	 	 	 	 	 	 	 	 	 	 	 	 	 	1581551145	7.54	13.96
12/02/2020 23:45:46	120220	12022020	234546	234.11	12.155772	-57.191112	234.09	-0.320	-0.370	0.540	234.11	-1.60	0.90	 	 	 	 	 	 	 	 	 	 	 	 	 	 	 	 	 	 	1581551146	7.39	13.69
12/02/2020 23:45:47	120220	12022020	234547	233.98	12.155752	-57.191140	233.97	-0.340	0.220	0.430	233.98	-1.00	0.90	 	 	 	 	 	 	 	 	 	 	 	 	 	 	 	 	 	 	1581551147	7.42	13.74
12/02/2020 23:45:48	120220	12022020	234548	233.96	12.155733	-57.191168	233.95	-0.340	0.840	0.480	233.96	-0.40	0.90	 	 	 	 	 	 	 	 	 	 	 	 	 	 	 	 	 	 	1581551148	7.34	13.59
12/02/2020 23:45:49	120220	12022020	234549	234.08	12.155717	-57.191198	234.09	-0.250	1.190	0.590	234.08	-0.20	1.10	 	 	 	 	 	 	 	 	 	 	 	 	 	 	 	 	 	 	1581551149	7.19	13.32
12/02/2020 23:45:50	120220	12022020	234550	234.32	12.155700	-57.191230	234.34	0.000	0.970	0.790	234.32	-0.70	1.30	 	 	 	 	 	 	 	 	 	 	 	 	 	 	 	 	 	 	1581551150	7.19	13.32
12/02/2020 23:45:51	120220	12022020	234551	234.55	12.155683	-57.191262	234.57	0.400	0.170	1.050	234.55	-1.60	1.50	 	 	 	 	 	 	 	 	 	 	 	 	 	 	 	 	 	 	1581551151	7.46	13.82
12/02/2020 23:45:52	120220	12022020	234552	234.75	12.155667	-57.191297	234.75	0.740	-0.850	1.210	234.75	-2.50	1.60	 	 	 	 	 	 	 	 	 	 	 	 	 	 	 	 	 	 	1581551152	7.84	14.52
12/02/2020 23:45:53	120220	12022020	234553	234.87	12.155648	-57.191328	234.87	0.770	-1.500	1.150	234.87	-3.00	1.50	 	 	 	 	 	 	 	 	 	 	 	 	 	 	 	 	 	 	1581551153	8.03	14.87
12/02/2020 23:45:54	120220	12022020	234554	234.85	12.155632	-57.191357	234.83	0.460	-1.530	1.030	234.85	-2.90	1.40	 	 	 	 	 	 	 	 	 	 	 	 	 	 	 	 	 	 	1581551154	7.72	14.30
12/02/2020 23:45:55	120220	12022020	234555	234.57	12.155615	-57.191387	234.55	0.020	-1.180	1.050	234.57	-2.40	1.50	 	 	 	 	 	 	 	 	 	 	 	 	 	 	 	 	 	 	1581551155	7.22	13.37
12/02/2020 23:45:56	120220	12022020	234556	234.19	12.155597	-57.191415	234.19	-0.370	-0.710	1.150	234.19	-2.00	1.60	 	 	 	 	 	 	 	 	 	 	 	 	 	 	 	 	 	 	1581551156	7.05	13.06
12/02/2020 23:45:57	120220	12022020	234557	233.95	12.155580	-57.191445	233.95	-0.600	-0.240	1.170	233.95	-1.50	1.60	 	 	 	 	 	 	 	 	 	 	 	 	 	 	 	 	 	 	1581551157	7.20	13.33
12/02/2020 23:45:58	120220	12022020	234558	233.89	12.155562	-57.191477	233.89	-0.640	0.140	1.090	233.89	-1.20	1.50	 	 	 	 	 	 	 	 	 	 	 	 	 	 	 	 	 	 	1581551158	7.40	13.70
12/02/2020 23:45:59	120220	12022020	234559	234.04	12.155545	-57.191507	234.04	-0.480	0.400	0.920	234.04	-1.00	1.20	 	 	 	 	 	 	 	 	 	 	 	 	 	 	 	 	 	 	1581551159	7.53	13.95
12/02/2020 23:46:00	120220	12022020	234600	234.41	12.155527	-57.191538	234.40	-0.160	0.500	0.570	234.41	-0.90	0.90	 	 	 	 	 	 	 	 	 	 	 	 	 	 	 	 	 	 	1581551160	7.61	14.09
12/02/2020 23:46:01	120220	12022020	234601	234.91	12.155508	-57.191568	234.89	0.200	0.440	0.170	234.91	-1.10	0.50	1015.60	26.30	26.40	20.70	20.80	-1.0	71.0	71.0	407.0	25.7	204.00	7.50	70.00	11.10	17	11458.0	27.5	27.4	1581551161	7.60	14.08
12/02/2020 23:46:02	120220	12022020	234602	235.28	12.155487	-57.191598	235.25	0.440	0.050	0.010	235.28	-1.60	0.50	 	 	 	 	 	 	 	 	 	 	 	 	 	 	 	 	 	 	1581551162	7.53	13.95
12/02/2020 23:46:03	120220	12022020	234603	235.36	12.155468	-57.191630	235.32	0.440	-0.530	0.260	235.36	-2.10	0.90	 	 	 	 	 	 	 	 	 	 	 	 	 	 	 	 	 	 	1581551163	7.67	14.20
12/02/2020 23:46:04	120220	12022020	234604	235.13	12.155452	-57.191662	235.10	0.230	-0.840	0.900	235.13	-2.20	1.60	 	 	 	 	 	 	 	 	 	 	 	 	 	 	 	 	 	 	1581551164	7.88	14.59
12/02/2020 23:46:05	120220	12022020	234605	234.64	12.155437	-57.191693	234.62	-0.060	-0.700	1.630	234.64	-2.00	2.20	 	 	 	 	 	 	 	 	 	 	 	 	 	 	 	 	 	 	1581551165	7.71	14.28
12/02/2020 23:46:06	120220	12022020	234606	234.04	12.155423	-57.191725	234.04	-0.240	-0.340	2.100	234.04	-1.60	2.60	 	 	 	 	 	 	 	 	 	 	 	 	 	 	 	 	 	 	1581551166	7.36	13.63
12/02/2020 23:46:07	120220	12022020	234607	233.68	12.155408	-57.191755	233.68	-0.200	-0.000	2.100	233.68	-1.30	2.40	 	 	 	 	 	 	 	 	 	 	 	 	 	 	 	 	 	 	1581551167	7.21	13.35
12/02/2020 23:46:08	120220	12022020	234608	233.88	12.155392	-57.191785	233.89	0.040	0.140	1.580	233.88	-1.30	1.80	 	 	 	 	 	 	 	 	 	 	 	 	 	 	 	 	 	 	1581551168	7.20	13.33
12/02/2020 23:46:09	120220	12022020	234609	234.45	12.155373	-57.191813	234.45	0.330	-0.060	0.900	234.45	-1.60	1.10	 	 	 	 	 	 	 	 	 	 	 	 	 	 	 	 	 	 	1581551169	7.22	13.37
12/02/2020 23:46:10	120220	12022020	234610	234.96	12.155353	-57.191845	234.94	0.480	-0.550	0.400	234.96	-2.10	0.70	 	 	 	 	 	 	 	 	 	 	 	 	 	 	 	 	 	 	1581551170	7.43	13.76
12/02/2020 23:46:11	120220	12022020	234611	235.24	12.155333	-57.191875	235.21	0.400	-1.020	0.150	235.24	-2.50	0.60	 	 	 	 	 	 	 	 	 	 	 	 	 	 	 	 	 	 	1581551171	7.73	14.32
12/02/2020 23:46:12	120220	12022020	234612	235.26	12.155313	-57.191905	235.23	0.080	-1.090	0.200	235.26	-2.40	0.70	 	 	 	 	 	 	 	 	 	 	 	 	 	 	 	 	 	 	1581551172	7.83	14.50
12/02/2020 23:46:13	120220	12022020	234613	235.06	12.155297	-57.191935	235.03	-0.340	-0.720	0.490	235.06	-1.90	1.00	 	 	 	 	 	 	 	 	 	 	 	 	 	 	 	 	 	 	1581551173	7.61	14.09
12/02/2020 23:46:14	120220	12022020	234614	234.85	12.155280	-57.191965	234.82	-0.680	-0.120	0.890	234.85	-1.40	1.40	 	 	 	 	 	 	 	 	 	 	 	 	 	 	 	 	 	 	1581551174	7.33	13.58
12/02/2020 23:46:15	120220	12022020	234615	234.80	12.155267	-57.191997	234.79	-0.750	0.330	1.240	234.80	-1.00	1.70	 	 	 	 	 	 	 	 	 	 	 	 	 	 	 	 	 	 	1581551175	7.24	13.41
12/02/2020 23:46:16	120220	12022020	234616	235.00	12.155252	-57.192030	234.99	-0.510	0.520	1.280	235.00	-0.90	1.60	 	 	 	 	 	 	 	 	 	 	 	 	 	 	 	 	 	 	1581551176	7.42	13.74
12/02/2020 23:46:17	120220	12022020	234617	235.35	12.155233	-57.192062	235.34	-0.080	0.460	1.010	235.35	-1.00	1.30	 	 	 	 	 	 	 	 	 	 	 	 	 	 	 	 	 	 	1581551177	7.59	14.06
12/02/2020 23:46:18	120220	12022020	234618	235.56	12.155215	-57.192092	235.55	0.360	0.130	0.770	235.56	-1.40	1.20	 	 	 	 	 	 	 	 	 	 	 	 	 	 	 	 	 	 	1581551178	7.58	14.04
12/02/2020 23:46:19	120220	12022020	234619	235.53	12.155195	-57.192123	235.49	0.660	-0.370	0.770	235.53	-1.90	1.20	 	 	 	 	 	 	 	 	 	 	 	 	 	 	 	 	 	 	1581551179	7.65	14.17
12/02/2020 23:46:20	120220	12022020	234620	235.27	12.155178	-57.192153	235.24	0.650	-0.740	1.000	235.27	-2.20	1.50	 	 	 	 	 	 	 	 	 	 	 	 	 	 	 	 	 	 	1581551180	7.75	14.35
12/02/2020 23:46:21	120220	12022020	234621	235.00	12.155162	-57.192183	234.93	0.320	-0.700	1.310	234.95	-2.00	1.80	 	 	 	 	 	 	 	 	 	 	 	 	 	 	 	 	 	 	1581551181	7.64	14.15
12/02/2020 23:46:22	120220	12022020	234622	234.69	12.155147	-57.192213	234.69	-0.160	-0.350	1.520	234.69	-1.70	2.00	 	 	 	 	 	 	 	 	 	 	 	 	 	 	 	 	 	 	1581551182	7.30	13.52
12/02/2020 23:46:23	120220	12022020	234623	234.58	12.155132	-57.192243	234.60	-0.460	-0.140	1.500	234.58	-1.60	1.80	 	 	 	 	 	 	 	 	 	 	 	 	 	 	 	 	 	 	1581551183	7.00	12.96
12/02/2020 23:46:24	120220	12022020	234624	234.71	12.155117	-57.192277	234.74	-0.360	-0.240	1.230	234.71	-1.70	1.50	 	 	 	 	 	 	 	 	 	 	 	 	 	 	 	 	 	 	1581551184	7.14	13.22
12/02/2020 23:46:25	120220	12022020	234625	235.03	12.155098	-57.192308	235.05	-0.010	-0.470	0.760	235.03	-2.00	1.00	 	 	 	 	 	 	 	 	 	 	 	 	 	 	 	 	 	 	1581551185	7.57	14.02
12/02/2020 23:46:26	120220	12022020	234626	235.41	12.155078	-57.192338	235.41	0.270	-0.660	0.230	235.41	-2.10	0.50	 	 	 	 	 	 	 	 	 	 	 	 	 	 	 	 	 	 	1581551186	7.74	14.33
12/02/2020 23:46:27	120220	12022020	234627	235.71	12.155058	-57.192368	235.68	0.210	-0.690	-0.070	235.71	-2.10	0.30	 	 	 	 	 	 	 	 	 	 	 	 	 	 	 	 	 	 	1581551187	7.69	14.24
12/02/2020 23:46:28	120220	12022020	234628	235.74	12.155040	-57.192397	235.69	-0.080	-0.570	0.030	235.74	-1.90	0.60	 	 	 	 	 	 	 	 	 	 	 	 	 	 	 	 	 	 	1581551188	7.56	14.00
12/02/2020 23:46:29	120220	12022020	234629	235.49	12.155023	-57.192427	235.44	-0.320	-0.320	0.430	235.49	-1.60	1.00	 	 	 	 	 	 	 	 	 	 	 	 	 	 	 	 	 	 	1581551189	7.44	13.78
12/02/2020 23:46:30	120220	12022020	234630	235.17	12.155007	-57.192458	235.13	-0.360	0.070	0.960	235.17	-1.20	1.50	 	 	 	 	 	 	 	 	 	 	 	 	 	 	 	 	 	 	1581551190	7.44	13.78
12/02/2020 23:46:31	120220	12022020	234631	234.98	12.154992	-57.192490	234.94	-0.280	0.420	1.450	234.98	-0.90	2.00	 	 	 	 	 	 	 	 	 	 	 	 	 	 	 	 	 	 	1581551191	7.43	13.76
12/02/2020 23:46:32	120220	12022020	234632	234.82	12.154977	-57.192523	234.80	-0.150	0.490	1.880	234.82	-1.00	2.40	 	 	 	 	 	 	 	 	 	 	 	 	 	 	 	 	 	 	1581551192	7.42	13.74
12/02/2020 23:46:33	120220	12022020	234633	234.69	12.154962	-57.192557	234.65	0.030	0.250	2.030	234.66	-1.30	2.40	 	 	 	 	 	 	 	 	 	 	 	 	 	 	 	 	 	 	1581551193	7.59	14.06
12/02/2020 23:46:34	120220	12022020	234634	234.58	12.154945	-57.192588	234.58	0.220	-0.060	1.730	234.58	-1.60	1.90	 	 	 	 	 	 	 	 	 	 	 	 	 	 	 	 	 	 	1581551194	7.75	14.35
12/02/2020 23:46:35	120220	12022020	234635	234.60	12.154927	-57.192618	234.61	0.360	-0.280	1.100	234.63	-1.70	1.30	 	 	 	 	 	 	 	 	 	 	 	 	 	 	 	 	 	 	1581551195	7.64	14.15
12/02/2020 23:46:36	120220	12022020	234636	234.81	12.154908	-57.192645	234.79	0.380	-0.430	0.360	234.81	-1.90	0.60	 	 	 	 	 	 	 	 	 	 	 	 	 	 	 	 	 	 	1581551196	7.36	13.63
12/02/2020 23:46:37	120220	12022020	234637	235.07	12.154888	-57.192673	235.04	0.280	-0.640	-0.170	235.07	-2.10	0.20	 	 	 	 	 	 	 	 	 	 	 	 	 	 	 	 	 	 	1581551197	7.17	13.28
12/02/2020 23:46:38	120220	12022020	234638	235.32	12.154870	-57.192702	235.28	0.140	-0.960	-0.280	235.32	-2.50	0.20	 	 	 	 	 	 	 	 	 	 	 	 	 	 	 	 	 	 	1581551198	7.21	13.35
12/02/2020 23:46:39	120220	12022020	234639	235.47	12.154852	-57.192733	235.43	0.070	-1.210	-0.010	235.47	-2.60	0.50	 	 	 	 	 	 	 	 	 	 	 	 	 	 	 	 	 	 	1581551199	7.43	13.76
12/02/2020 23:46:40	120220	12022020	234640	235.48	12.154835	-57.192765	235.46	0.060	-1.110	0.460	235.48	-2.40	1.00	 	 	 	 	 	 	 	 	 	 	 	 	 	 	 	 	 	 	1581551200	7.63	14.13
12/02/2020 23:46:41	120220	12022020	234641	235.47	12.154820	-57.192797	235.46	-0.050	-0.640	0.980	235.47	-1.90	1.60	 	 	 	 	 	 	 	 	 	 	 	 	 	 	 	 	 	 	1581551201	7.59	14.06
12/02/2020 23:46:42	120220	12022020	234642	235.32	12.154805	-57.192828	235.30	-0.290	-0.120	1.530	235.32	-1.40	2.10	 	 	 	 	 	 	 	 	 	 	 	 	 	 	 	 	 	 	1581551202	7.39	13.69
12/02/2020 23:46:43	120220	12022020	234643	234.97	12.154790	-57.192862	234.97	-0.520	0.220	2.090	234.97	-1.10	2.60	 	 	 	 	 	 	 	 	 	 	 	 	 	 	 	 	 	 	1581551203	7.43	13.76
12/02/2020 23:46:44	120220	12022020	234644	234.59	12.154777	-57.192895	234.59	-0.530	0.440	2.380	234.59	-0.90	2.80	 	 	 	 	 	 	 	 	 	 	 	 	 	 	 	 	 	 	1581551204	7.72	14.30
12/02/2020 23:46:45	120220	12022020	234645	234.40	12.154758	-57.192928	234.42	-0.300	0.650	2.150	234.40	-0.70	2.40	 	 	 	 	 	 	 	 	 	 	 	 	 	 	 	 	 	 	1581551205	7.86	14.56
12/02/2020 23:46:46	120220	12022020	234646	234.50	12.154740	-57.192957	234.52	-0.010	0.760	1.510	234.50	-0.70	1.70	 	 	 	 	 	 	 	 	 	 	 	 	 	 	 	 	 	 	1581551206	7.64	14.15
12/02/2020 23:46:47	120220	12022020	234647	234.77	12.154720	-57.192983	234.77	0.170	0.560	0.850	234.77	-1.00	1.10	 	 	 	 	 	 	 	 	 	 	 	 	 	 	 	 	 	 	1581551207	7.36	13.63
12/02/2020 23:46:48	120220	12022020	234648	235.02	12.154700	-57.193013	235.01	0.250	-0.080	0.530	235.02	-1.80	0.90	 	 	 	 	 	 	 	 	 	 	 	 	 	 	 	 	 	 	1581551208	7.27	13.46
12/02/2020 23:46:49	120220	12022020	234649	235.21	12.154683	-57.193045	235.20	0.340	-0.890	0.480	235.21	-2.50	0.90	 	 	 	 	 	 	 	 	 	 	 	 	 	 	 	 	 	 	1581551209	7.48	13.85
12/02/2020 23:46:50	120220	12022020	234650	235.39	12.154667	-57.193077	235.38	0.440	-1.480	0.540	235.39	-3.00	1.00	 	 	 	 	 	 	 	 	 	 	 	 	 	 	 	 	 	 	1581551210	7.62	14.11
12/02/2020 23:46:51	120220	12022020	234651	235.50	12.154652	-57.193107	235.50	0.460	-1.640	0.640	235.50	-3.00	1.10	 	 	 	 	 	 	 	 	 	 	 	 	 	 	 	 	 	 	1581551211	7.52	13.93
12/02/2020 23:46:52	120220	12022020	234652	235.48	12.154635	-57.193137	235.47	0.290	-1.320	0.750	235.48	-2.50	1.20	 	 	 	 	 	 	 	 	 	 	 	 	 	 	 	 	 	 	1581551212	7.35	13.61
12/02/2020 23:46:53	120220	12022020	234653	235.29	12.154620	-57.193167	235.28	0.030	-0.710	0.930	235.29	-1.90	1.40	 	 	 	 	 	 	 	 	 	 	 	 	 	 	 	 	 	 	1581551213	7.17	13.28
12/02/2020 23:46:54	120220	12022020	234654	234.96	12.154603	-57.193197	234.94	-0.170	-0.130	1.210	234.96	-1.40	1.70	 	 	 	 	 	 	 	 	 	 	 	 	 	 	 	 	 	 	1581551214	7.12	13.19
12/02/2020 23:46:55	120220	12022020	234655	234.80	12.154585	-57.193228	234.79	-0.340	0.390	1.390	234.80	-0.90	1.90	 	 	 	 	 	 	 	 	 	 	 	 	 	 	 	 	 	 	1581551215	7.40	13.70
12/02/2020 23:46:56	120220	12022020	234656	234.88	12.154568	-57.193260	234.89	-0.510	0.770	1.580	234.88	-0.60	2.10	 	 	 	 	 	 	 	 	 	 	 	 	 	 	 	 	 	 	1581551216	7.57	14.02
12/02/2020 23:46:57	120220	12022020	234657	235.03	12.154555	-57.193293	235.04	-0.600	0.770	1.920	235.03	-0.70	2.40	 	 	 	 	 	 	 	 	 	 	 	 	 	 	 	 	 	 	1581551217	7.60	14.08
12/02/2020 23:46:58	120220	12022020	234658	235.13	12.154540	-57.193328	235.14	-0.450	0.340	2.090	235.13	-1.20	2.40	 	 	 	 	 	 	 	 	 	 	 	 	 	 	 	 	 	 	1581551218	7.76	14.37
12/02/2020 23:46:59	120220	12022020	234659	235.30	12.154523	-57.193362	235.31	-0.090	-0.170	1.700	235.30	-1.70	1.90	 	 	 	 	 	 	 	 	 	 	 	 	 	 	 	 	 	 	1581551219	7.97	14.76
12/02/2020 23:47:00	120220	12022020	234700	235.63	12.154503	-57.193390	235.62	0.280	-0.440	0.850	235.63	-1.90	0.90	 	 	 	 	 	 	 	 	 	 	 	 	 	 	 	 	 	 	1581551220	7.79	14.43
12/02/2020 23:47:01	120220	12022020	234701	235.98	12.154485	-57.193417	235.94	0.510	-0.490	-0.010	235.98	-1.90	0.20	1015.70	26.30	26.50	20.90	21.00	-1.0	72.0	71.0	405.0	25.7	202.00	7.40	69.00	11.00	17	11504.0	27.4	27.4	1581551221	7.31	13.54
12/02/2020 23:47:02	120220	12022020	234702	236.16	12.154467	-57.193443	236.11	0.520	-0.530	-0.390	236.16	-2.00	0.00	 	 	 	 	 	 	 	 	 	 	 	 	 	 	 	 	 	 	1581551222	6.96	12.89
12/02/2020 23:47:03	120220	12022020	234703	236.13	12.154450	-57.193473	236.08	0.390	-0.670	-0.160	236.13	-2.10	0.40	 	 	 	 	 	 	 	 	 	 	 	 	 	 	 	 	 	 	1581551223	6.97	12.91
12/02/2020 23:47:04	120220	12022020	234704	235.87	12.154435	-57.193505	235.82	0.230	-0.860	0.570	235.87	-2.30	1.30	 	 	 	 	 	 	 	 	 	 	 	 	 	 	 	 	 	 	1581551224	7.22	13.37
12/02/2020 23:47:05	120220	12022020	234705	235.51	12.154420	-57.193538	235.48	0.070	-0.880	1.390	235.51	-2.20	2.00	 	 	 	 	 	 	 	 	 	 	 	 	 	 	 	 	 	 	1581551225	7.57	14.02
12/02/2020 23:47:06	120220	12022020	234706	235.13	12.154407	-57.193572	235.11	-0.090	-0.690	1.980	235.13	-2.00	2.50	 	 	 	 	 	 	 	 	 	 	 	 	 	 	 	 	 	 	1581551226	7.71	14.28
12/02/2020 23:47:07	120220	12022020	234707	234.79	12.154393	-57.193605	234.78	-0.270	-0.330	2.190	234.79	-1.60	2.60	 	 	 	 	 	 	 	 	 	 	 	 	 	 	 	 	 	 	1581551227	7.69	14.24
12/02/2020 23:47:08	120220	12022020	234708	234.66	12.154378	-57.193637	234.65	-0.440	0.140	1.980	234.66	-1.10	2.20	 	 	 	 	 	 	 	 	 	 	 	 	 	 	 	 	 	 	1581551228	7.58	14.04
12/02/2020 23:47:09	120220	12022020	234709	234.74	12.154362	-57.193667	234.76	-0.480	0.440	1.440	234.78	-0.90	1.60	 	 	 	 	 	 	 	 	 	 	 	 	 	 	 	 	 	 	1581551229	7.34	13.59
12/02/2020 23:47:10	120220	12022020	234710	235.03	12.154343	-57.193697	235.00	-0.330	0.360	0.770	235.03	-1.10	1.00	 	 	 	 	 	 	 	 	 	 	 	 	 	 	 	 	 	 	1581551230	7.27	13.46
12/02/2020 23:47:11	120220	12022020	234711	235.24	12.154323	-57.193727	235.23	-0.060	0.050	0.240	235.28	-1.40	0.50	 	 	 	 	 	 	 	 	 	 	 	 	 	 	 	 	 	 	1581551231	7.50	13.89
12/02/2020 23:47:12	120220	12022020	234712	235.50	12.154303	-57.193755	235.45	0.140	-0.130	0.010	235.50	-1.60	0.40	 	 	 	 	 	 	 	 	 	 	 	 	 	 	 	 	 	 	1581551232	7.67	14.20
12/02/2020 23:47:13	120220	12022020	234713	235.63	12.154287	-57.193785	235.58	0.190	-0.220	0.090	235.63	-1.70	0.60	 	 	 	 	 	 	 	 	 	 	 	 	 	 	 	 	 	 	1581551233	7.47	13.83
12/02/2020 23:47:14	120220	12022020	234714	235.54	12.154270	-57.193815	235.50	0.150	-0.360	0.500	235.54	-1.80	1.10	 	 	 	 	 	 	 	 	 	 	 	 	 	 	 	 	 	 	1581551234	7.25	13.43
12/02/2020 23:47:15	120220	12022020	234715	235.18	12.154257	-57.193848	235.13	0.130	-0.540	1.150	235.18	-2.00	1.80	 	 	 	 	 	 	 	 	 	 	 	 	 	 	 	 	 	 	1581551235	7.31	13.54
12/02/2020 23:47:16	120220	12022020	234716	234.74	12.154243	-57.193880	234.71	0.200	-0.610	1.700	234.74	-2.00	2.20	 	 	 	 	 	 	 	 	 	 	 	 	 	 	 	 	 	 	1581551236	7.47	13.83
12/02/2020 23:47:17	120220	12022020	234717	234.49	12.154228	-57.193912	234.47	0.290	-0.530	1.830	234.49	-1.90	2.20	 	 	 	 	 	 	 	 	 	 	 	 	 	 	 	 	 	 	1581551237	7.49	13.87
12/02/2020 23:47:18	120220	12022020	234718	234.48	12.154212	-57.193942	234.46	0.270	-0.430	1.670	234.48	-1.80	2.00	 	 	 	 	 	 	 	 	 	 	 	 	 	 	 	 	 	 	1581551238	7.31	13.54
12/02/2020 23:47:19	120220	12022020	234719	234.52	12.154193	-57.193972	234.50	0.060	-0.440	1.550	234.52	-1.90	2.00	 	 	 	 	 	 	 	 	 	 	 	 	 	 	 	 	 	 	1581551239	7.26	13.45
12/02/2020 23:47:20	120220	12022020	234720	234.43	12.154177	-57.194003	234.43	-0.210	-0.480	1.590	234.43	-1.90	2.00	 	 	 	 	 	 	 	 	 	 	 	 	 	 	 	 	 	 	1581551240	7.40	13.70
12/02/2020 23:47:21	120220	12022020	234721	234.24	12.154160	-57.194033	234.24	-0.340	-0.320	1.600	234.24	-1.60	2.00	 	 	 	 	 	 	 	 	 	 	 	 	 	 	 	 	 	 	1581551241	7.58	14.04
12/02/2020 23:47:22	120220	12022020	234722	234.10	12.154143	-57.194063	234.10	-0.310	-0.040	1.380	234.10	-1.40	1.60	 	 	 	 	 	 	 	 	 	 	 	 	 	 	 	 	 	 	1581551242	7.50	13.89
12/02/2020 23:47:23	120220	12022020	234723	234.15	12.154125	-57.194093	234.18	-0.240	0.130	0.850	234.19	-1.30	1.10	 	 	 	 	 	 	 	 	 	 	 	 	 	 	 	 	 	 	1581551243	7.31	13.54
12/02/2020 23:47:24	120220	12022020	234724	234.49	12.154105	-57.194122	234.47	-0.170	0.060	0.230	234.49	-1.40	0.50	 	 	 	 	 	 	 	 	 	 	 	 	 	 	 	 	 	 	1581551244	7.31	13.54
12/02/2020 23:47:25	120220	12022020	234725	234.76	12.154087	-57.194152	234.77	-0.040	-0.210	-0.070	234.82	-1.70	0.40	 	 	 	 	 	 	 	 	 	 	 	 	 	 	 	 	 	 	1581551245	7.42	13.74
12/02/2020 23:47:26	120220	12022020	234726	234.96	12.154068	-57.194183	234.93	0.140	-0.530	0.210	234.96	-2.00	0.80	 	 	 	 	 	 	 	 	 	 	 	 	 	 	 	 	 	 	1581551246	7.55	13.98
12/02/2020 23:47:27	120220	12022020	234727	234.83	12.154053	-57.194215	234.80	0.270	-0.620	0.940	234.83	-2.00	1.60	 	 	 	 	 	 	 	 	 	 	 	 	 	 	 	 	 	 	1581551247	7.67	14.20
12/02/2020 23:47:28	120220	12022020	234728	234.59	12.154040	-57.194247	234.57	0.240	-0.290	1.660	234.59	-1.50	2.20	 	 	 	 	 	 	 	 	 	 	 	 	 	 	 	 	 	 	1581551248	7.61	14.09
12/02/2020 23:47:29	120220	12022020	234729	234.37	12.154027	-57.194277	234.35	0.100	0.210	2.000	234.37	-1.10	2.40	 	 	 	 	 	 	 	 	 	 	 	 	 	 	 	 	 	 	1581551249	7.25	13.43
12/02/2020 23:47:30	120220	12022020	234730	234.11	12.154012	-57.194307	234.10	0.060	0.350	2.010	234.11	-1.10	2.30	 	 	 	 	 	 	 	 	 	 	 	 	 	 	 	 	 	 	1581551250	6.96	12.89
12/02/2020 23:47:31	120220	12022020	234731	233.90	12.153993	-57.194337	233.89	0.150	0.080	1.700	233.90	-1.40	2.00	 	 	 	 	 	 	 	 	 	 	 	 	 	 	 	 	 	 	1581551251	7.15	13.24
12/02/2020 23:47:32	120220	12022020	234732	233.88	12.153973	-57.194367	233.87	0.170	-0.310	1.220	233.88	-1.80	1.50	 	 	 	 	 	 	 	 	 	 	 	 	 	 	 	 	 	 	1581551252	7.50	13.89
12/02/2020 23:47:33	120220	12022020	234733	234.05	12.153953	-57.194397	234.04	-0.020	-0.720	0.750	234.05	-2.30	1.00	 	 	 	 	 	 	 	 	 	 	 	 	 	 	 	 	 	 	1581551253	7.57	14.02
12/02/2020 23:47:34	120220	12022020	234734	234.27	12.153935	-57.194427	234.25	-0.250	-1.220	0.450	234.27	-2.80	0.80	 	 	 	 	 	 	 	 	 	 	 	 	 	 	 	 	 	 	1581551254	7.47	13.83
12/02/2020 23:47:35	120220	12022020	234735	234.41	12.153917	-57.194458	234.38	-0.320	-1.580	0.340	234.41	-3.00	0.70	 	 	 	 	 	 	 	 	 	 	 	 	 	 	 	 	 	 	1581551255	7.62	14.11
12/02/2020 23:47:36	120220	12022020	234736	234.53	12.153900	-57.194490	234.50	-0.230	-1.360	0.350	234.53	-2.50	0.80	 	 	 	 	 	 	 	 	 	 	 	 	 	 	 	 	 	 	1581551256	7.80	14.45
12/02/2020 23:47:37	120220	12022020	234737	234.63	12.153883	-57.194518	234.60	-0.100	-0.470	0.510	234.63	-1.50	1.00	 	 	 	 	 	 	 	 	 	 	 	 	 	 	 	 	 	 	1581551257	7.55	13.98
12/02/2020 23:47:38	120220	12022020	234738	234.62	12.153867	-57.194547	234.60	-0.060	0.560	0.800	234.62	-0.60	1.30	 	 	 	 	 	 	 	 	 	 	 	 	 	 	 	 	 	 	1581551258	7.07	13.09
12/02/2020 23:47:39	120220	12022020	234739	234.40	12.153852	-57.194578	234.40	-0.080	1.080	1.240	234.40	-0.30	1.80	 	 	 	 	 	 	 	 	 	 	 	 	 	 	 	 	 	 	1581551259	6.90	12.78
12/02/2020 23:47:40	120220	12022020	234740	234.01	12.153835	-57.194612	234.03	-0.100	1.040	1.730	234.01	-0.40	2.20	 	 	 	 	 	 	 	 	 	 	 	 	 	 	 	 	 	 	1581551260	7.35	13.61
12/02/2020 23:47:41	120220	12022020	234741	233.70	12.153820	-57.194643	233.70	-0.090	0.880	1.930	233.70	-0.60	2.30	 	 	 	 	 	 	 	 	 	 	 	 	 	 	 	 	 	 	1581551261	7.86	14.56
12/02/2020 23:47:42	120220	12022020	234742	233.58	12.153803	-57.194675	233.58	0.020	0.520	1.630	233.58	-1.10	1.90	 	 	 	 	 	 	 	 	 	 	 	 	 	 	 	 	 	 	1581551262	7.69	14.24
12/02/2020 23:47:43	120220	12022020	234743	233.58	12.153783	-57.194703	233.57	0.250	-0.340	1.030	233.58	-2.10	1.20	 	 	 	 	 	 	 	 	 	 	 	 	 	 	 	 	 	 	1581551263	7.34	13.59
12/02/2020 23:47:44	120220	12022020	234744	233.70	12.153763	-57.194733	233.67	0.440	-1.470	0.340	233.70	-3.20	0.60	 	 	 	 	 	 	 	 	 	 	 	 	 	 	 	 	 	 	1581551264	7.51	13.91
12/02/2020 23:47:45	120220	12022020	234745	233.97	12.153742	-57.194763	233.92	0.360	-2.200	-0.140	233.97	-3.70	0.20	 	 	 	 	 	 	 	 	 	 	 	 	 	 	 	 	 	 	1581551265	7.86	14.56
12/02/2020 23:47:46	120220	12022020	234746	234.28	12.153725	-57.194793	234.23	0.050	-2.090	-0.190	234.28	-3.30	0.30	 	 	 	 	 	 	 	 	 	 	 	 	 	 	 	 	 	 	1581551266	7.73	14.32
12/02/2020 23:47:47	120220	12022020	234747	234.41	12.153710	-57.194822	234.36	-0.250	-1.330	0.160	234.41	-2.40	0.80	 	 	 	 	 	 	 	 	 	 	 	 	 	 	 	 	 	 	1581551267	7.21	13.35
12/02/2020 23:47:48	120220	12022020	234748	234.16	12.153695	-57.194852	234.12	-0.380	-0.400	0.820	234.16	-1.50	1.50	 	 	 	 	 	 	 	 	 	 	 	 	 	 	 	 	 	 	1581551268	6.96	12.89
12/02/2020 23:47:49	120220	12022020	234749	233.80	12.153678	-57.194883	233.77	-0.390	0.490	1.410	233.80	-0.70	2.00	 	 	 	 	 	 	 	 	 	 	 	 	 	 	 	 	 	 	1581551269	7.18	13.30
12/02/2020 23:47:50	120220	12022020	234750	233.59	12.153663	-57.194915	233.57	-0.390	1.140	1.700	233.59	-0.10	2.10	 	 	 	 	 	 	 	 	 	 	 	 	 	 	 	 	 	 	1581551270	7.43	13.76
12/02/2020 23:47:51	120220	12022020	234751	233.46	12.153645	-57.194947	233.45	-0.340	1.350	1.800	233.46	-0.10	2.20	 	 	 	 	 	 	 	 	 	 	 	 	 	 	 	 	 	 	1581551271	7.52	13.93
12/02/2020 23:47:52	120220	12022020	234752	233.24	12.153628	-57.194978	233.23	-0.140	1.060	1.870	233.24	-0.50	2.30	 	 	 	 	 	 	 	 	 	 	 	 	 	 	 	 	 	 	1581551272	7.63	14.13
12/02/2020 23:47:53	120220	12022020	234753	232.99	12.153610	-57.195010	233.00	0.170	0.440	1.840	232.99	-1.20	2.20	 	 	 	 	 	 	 	 	 	 	 	 	 	 	 	 	 	 	1581551273	7.77	14.39
12/02/2020 23:47:54	120220	12022020	234754	232.91	12.153592	-57.195042	232.92	0.450	-0.310	1.580	232.91	-1.90	1.80	 	 	 	 	 	 	 	 	 	 	 	 	 	 	 	 	 	 	1581551274	7.79	14.43
12/02/2020 23:47:55	120220	12022020	234755	233.18	12.153573	-57.195072	233.17	0.570	-0.940	1.000	233.18	-2.50	1.10	 	 	 	 	 	 	 	 	 	 	 	 	 	 	 	 	 	 	1581551275	7.66	14.19
12/02/2020 23:47:56	120220	12022020	234756	233.81	12.153553	-57.195098	233.81	0.530	-1.310	0.140	233.81	-2.80	0.30	 	 	 	 	 	 	 	 	 	 	 	 	 	 	 	 	 	 	1581551276	7.40	13.70
12/02/2020 23:47:57	120220	12022020	234757	234.40	12.153535	-57.195127	234.36	0.340	-1.510	-0.440	234.40	-3.00	-0.10	 	 	 	 	 	 	 	 	 	 	 	 	 	 	 	 	 	 	1581551277	7.13	13.20
12/02/2020 23:47:58	120220	12022020	234758	234.55	12.153517	-57.195157	234.51	0.050	-1.590	-0.300	234.55	-2.90	0.30	 	 	 	 	 	 	 	 	 	 	 	 	 	 	 	 	 	 	1581551278	7.13	13.20
12/02/2020 23:47:59	120220	12022020	234759	234.24	12.153500	-57.195188	234.19	-0.300	-1.290	0.410	234.24	-2.50	1.10	 	 	 	 	 	 	 	 	 	 	 	 	 	 	 	 	 	 	1581551279	7.42	13.74
12/02/2020 23:48:00	120220	12022020	234800	233.71	12.153485	-57.195218	233.69	-0.600	-0.460	1.200	233.71	-1.50	1.80	 	 	 	 	 	 	 	 	 	 	 	 	 	 	 	 	 	 	1581551280	7.53	13.95
12/02/2020 23:48:01	120220	12022020	234801	233.33	12.153472	-57.195250	233.32	-0.720	0.620	1.720	233.33	-0.50	2.20	1015.70	26.40	26.90	21.10	21.30	-1.0	73.0	71.0	402.0	25.7	199.00	7.10	67.00	10.80	17	10773.0	27.4	27.4	1581551281	7.34	13.59
12/02/2020 23:48:02	120220	12022020	234802	233.19	12.153455	-57.195280	233.19	-0.560	1.310	1.860	233.19	-0.10	2.30	 	 	 	 	 	 	 	 	 	 	 	 	 	 	 	 	 	 	1581551282	7.10	13.15
12/02/2020 23:48:03	120220	12022020	234803	233.21	12.153437	-57.195310	233.23	-0.160	1.160	1.770	233.21	-0.50	2.10	 	 	 	 	 	 	 	 	 	 	 	 	 	 	 	 	 	 	1581551283	7.21	13.35
12/02/2020 23:48:04	120220	12022020	234804	233.26	12.153417	-57.195343	233.28	0.310	0.330	1.610	233.26	-1.40	2.00	 	 	 	 	 	 	 	 	 	 	 	 	 	 	 	 	 	 	1581551284	7.72	14.30
12/02/2020 23:48:05	120220	12022020	234805	233.29	12.153398	-57.195377	233.31	0.590	-0.520	1.410	233.29	-2.10	1.70	 	 	 	 	 	 	 	 	 	 	 	 	 	 	 	 	 	 	1581551285	8.19	15.17
12/02/2020 23:48:06	120220	12022020	234806	233.37	12.153380	-57.195407	233.38	0.550	-0.810	1.150	233.37	-2.20	1.50	 	 	 	 	 	 	 	 	 	 	 	 	 	 	 	 	 	 	1581551286	8.12	15.04
12/02/2020 23:48:07	120220	12022020	234807	233.58	12.153363	-57.195433	233.58	0.310	-0.630	0.870	233.58	-2.00	1.20	 	 	 	 	 	 	 	 	 	 	 	 	 	 	 	 	 	 	1581551287	7.44	13.78
12/02/2020 23:48:08	120220	12022020	234808	233.76	12.153347	-57.195462	233.75	0.090	-0.520	0.720	233.76	-1.90	1.10	 	 	 	 	 	 	 	 	 	 	 	 	 	 	 	 	 	 	1581551288	6.83	12.65
12/02/2020 23:48:09	120220	12022020	234809	233.68	12.153330	-57.195492	233.66	0.000	-0.610	0.810	233.68	-2.00	1.30	 	 	 	 	 	 	 	 	 	 	 	 	 	 	 	 	 	 	1581551289	6.90	12.78
12/02/2020 23:48:10	120220	12022020	234810	233.41	12.153313	-57.195523	233.40	0.000	-0.570	1.000	233.41	-1.90	1.50	 	 	 	 	 	 	 	 	 	 	 	 	 	 	 	 	 	 	1581551290	7.29	13.50
12/02/2020 23:48:11	120220	12022020	234811	233.25	12.153297	-57.195552	233.23	-0.030	-0.290	1.060	233.25	-1.60	1.40	 	 	 	 	 	 	 	 	 	 	 	 	 	 	 	 	 	 	1581551291	7.38	13.67
12/02/2020 23:48:12	120220	12022020	234812	233.34	12.153280	-57.195580	233.32	-0.100	0.020	0.910	233.34	-1.30	1.30	 	 	 	 	 	 	 	 	 	 	 	 	 	 	 	 	 	 	1581551292	7.18	13.30
12/02/2020 23:48:13	120220	12022020	234813	233.48	12.153262	-57.195610	233.48	-0.090	0.040	0.760	233.50	-1.50	1.20	 	 	 	 	 	 	 	 	 	 	 	 	 	 	 	 	 	 	1581551293	7.09	13.13
12/02/2020 23:48:14	120220	12022020	234814	233.48	12.153243	-57.195642	233.45	0.030	-0.310	0.830	233.48	-1.90	1.30	 	 	 	 	 	 	 	 	 	 	 	 	 	 	 	 	 	 	1581551294	7.29	13.50
12/02/2020 23:48:15	120220	12022020	234815	233.37	12.153225	-57.195673	233.32	0.190	-0.750	1.120	233.33	-2.30	1.60	 	 	 	 	 	 	 	 	 	 	 	 	 	 	 	 	 	 	1581551295	7.71	14.28
12/02/2020 23:48:16	120220	12022020	234816	233.20	12.153207	-57.195707	233.20	0.200	-0.960	1.390	233.20	-2.40	1.90	 	 	 	 	 	 	 	 	 	 	 	 	 	 	 	 	 	 	1581551296	7.94	14.70
12/02/2020 23:48:17	120220	12022020	234817	233.10	12.153190	-57.195738	233.10	0.030	-0.840	1.520	233.10	-2.10	2.00	 	 	 	 	 	 	 	 	 	 	 	 	 	 	 	 	 	 	1581551297	7.84	14.52
12/02/2020 23:48:18	120220	12022020	234818	232.98	12.153173	-57.195768	232.99	-0.230	-0.440	1.590	232.98	-1.70	2.00	 	 	 	 	 	 	 	 	 	 	 	 	 	 	 	 	 	 	1581551298	7.63	14.13
12/02/2020 23:48:19	120220	12022020	234819	232.83	12.153157	-57.195798	232.84	-0.450	0.120	1.620	232.83	-1.10	2.00	 	 	 	 	 	 	 	 	 	 	 	 	 	 	 	 	 	 	1581551299	7.42	13.74
12/02/2020 23:48:20	120220	12022020	234820	232.70	12.153140	-57.195828	232.70	-0.490	0.600	1.600	232.70	-0.70	2.00	 	 	 	 	 	 	 	 	 	 	 	 	 	 	 	 	 	 	1581551300	7.26	13.45
12/02/2020 23:48:21	120220	12022020	234821	232.65	12.153123	-57.195858	232.66	-0.310	0.840	1.460	232.65	-0.60	1.80	 	 	 	 	 	 	 	 	 	 	 	 	 	 	 	 	 	 	1581551301	7.24	13.41
12/02/2020 23:48:22	120220	12022020	234822	232.69	12.153105	-57.195887	232.69	-0.000	0.790	1.170	232.69	-0.70	1.40	 	 	 	 	 	 	 	 	 	 	 	 	 	 	 	 	 	 	1581551302	7.30	13.52
12/02/2020 23:48:23	120220	12022020	234823	232.86	12.153085	-57.195917	232.85	0.280	0.500	0.720	232.86	-1.10	1.00	 	 	 	 	 	 	 	 	 	 	 	 	 	 	 	 	 	 	1581551303	7.36	13.63
12/02/2020 23:48:24	120220	12022020	234824	233.22	12.153067	-57.195945	233.19	0.470	-0.050	0.280	233.22	-1.70	0.60	 	 	 	 	 	 	 	 	 	 	 	 	 	 	 	 	 	 	1581551304	7.32	13.56
12/02/2020 23:48:25	120220	12022020	234825	233.60	12.153048	-57.195973	233.56	0.630	-0.830	0.040	233.60	-2.50	0.40	 	 	 	 	 	 	 	 	 	 	 	 	 	 	 	 	 	 	1581551305	7.27	13.46
12/02/2020 23:48:26	120220	12022020	234826	233.86	12.153030	-57.196003	233.82	0.730	-1.620	0.100	233.86	-3.20	0.60	 	 	 	 	 	 	 	 	 	 	 	 	 	 	 	 	 	 	1581551306	7.37	13.65
12/02/2020 23:48:27	120220	12022020	234827	233.92	12.153012	-57.196035	233.89	0.660	-2.020	0.430	233.92	-3.40	1.00	 	 	 	 	 	 	 	 	 	 	 	 	 	 	 	 	 	 	1581551307	7.53	13.95
12/02/2020 23:48:28	120220	12022020	234828	233.75	12.152995	-57.196065	233.72	0.350	-1.860	1.000	233.75	-3.10	1.60	 	 	 	 	 	 	 	 	 	 	 	 	 	 	 	 	 	 	1581551308	7.50	13.89
12/02/2020 23:48:29	120220	12022020	234829	233.30	12.152980	-57.196097	233.27	-0.120	-1.290	1.710	233.30	-2.40	2.30	 	 	 	 	 	 	 	 	 	 	 	 	 	 	 	 	 	 	1581551309	7.39	13.69
12/02/2020 23:48:30	120220	12022020	234830	232.74	12.152965	-57.196130	232.73	-0.600	-0.490	2.300	232.74	-1.60	2.80	 	 	 	 	 	 	 	 	 	 	 	 	 	 	 	 	 	 	1581551310	7.46	13.82
12/02/2020 23:48:31	120220	12022020	234831	232.37	12.152950	-57.196162	232.38	-1.000	0.500	2.560	232.37	-0.60	3.00	 	 	 	 	 	 	 	 	 	 	 	 	 	 	 	 	 	 	1581551311	7.65	14.17
12/02/2020 23:48:32	120220	12022020	234832	232.30	12.152935	-57.196193	232.31	-1.170	1.390	2.490	232.30	0.20	2.80	 	 	 	 	 	 	 	 	 	 	 	 	 	 	 	 	 	 	1581551312	7.61	14.09
12/02/2020 23:48:33	120220	12022020	234833	232.58	12.152918	-57.196225	232.60	-1.000	1.790	1.960	232.58	0.40	2.10	 	 	 	 	 	 	 	 	 	 	 	 	 	 	 	 	 	 	1581551313	7.47	13.83
12/02/2020 23:48:34	120220	12022020	234834	233.22	12.152898	-57.196255	233.22	-0.460	1.570	1.020	233.22	-0.10	1.10	 	 	 	 	 	 	 	 	 	 	 	 	 	 	 	 	 	 	1581551314	7.47	13.83
12/02/2020 23:48:35	120220	12022020	234835	234.04	12.152877	-57.196283	234.00	0.300	0.790	-0.030	234.04	-0.90	0.10	 	 	 	 	 	 	 	 	 	 	 	 	 	 	 	 	 	 	1581551315	7.55	13.98
12/02/2020 23:48:36	120220	12022020	234836	234.72	12.152855	-57.196310	234.67	0.980	-0.220	-0.810	234.72	-2.00	-0.50	 	 	 	 	 	 	 	 	 	 	 	 	 	 	 	 	 	 	1581551316	7.60	14.08
12/02/2020 23:48:37	120220	12022020	234837	234.99	12.152833	-57.196338	234.93	1.310	-1.300	-0.940	234.99	-3.00	-0.40	 	 	 	 	 	 	 	 	 	 	 	 	 	 	 	 	 	 	1581551317	7.51	13.91
12/02/2020 23:48:38	120220	12022020	234838	234.74	12.152815	-57.196368	234.68	1.170	-2.170	-0.200	234.74	-3.70	0.60	 	 	 	 	 	 	 	 	 	 	 	 	 	 	 	 	 	 	1581551318	7.42	13.74
12/02/2020 23:48:39	120220	12022020	234839	234.13	12.152802	-57.196402	234.11	0.640	-2.440	1.140	234.13	-3.80	2.00	 	 	 	 	 	 	 	 	 	 	 	 	 	 	 	 	 	 	1581551319	7.47	13.83
12/02/2020 23:48:40	120220	12022020	234840	233.46	12.152792	-57.196435	233.49	-0.080	-2.000	2.460	233.46	-3.10	3.20	 	 	 	 	 	 	 	 	 	 	 	 	 	 	 	 	 	 	1581551320	7.51	13.91
12/02/2020 23:48:41	120220	12022020	234841	232.94	12.152782	-57.196468	232.97	-0.670	-1.090	3.300	232.94	-2.10	3.80	 	 	 	 	 	 	 	 	 	 	 	 	 	 	 	 	 	 	1581551321	7.55	13.98
12/02/2020 23:48:42	120220	12022020	234842	232.74	12.152770	-57.196502	232.78	-0.900	0.060	3.490	232.74	-1.00	3.80	 	 	 	 	 	 	 	 	 	 	 	 	 	 	 	 	 	 	1581551322	7.51	13.91
12/02/2020 23:48:43	120220	12022020	234843	232.96	12.152753	-57.196532	232.98	-0.750	1.140	3.040	232.96	0.00	3.20	 	 	 	 	 	 	 	 	 	 	 	 	 	 	 	 	 	 	1581551323	7.43	13.76
12/02/2020 23:48:44	120220	12022020	234844	233.44	12.152735	-57.196560	233.45	-0.400	1.730	2.080	233.44	0.40	2.10	 	 	 	 	 	 	 	 	 	 	 	 	 	 	 	 	 	 	1581551324	7.26	13.45
12/02/2020 23:48:45	120220	12022020	234845	233.93	12.152712	-57.196588	233.92	-0.070	1.580	0.980	233.93	-0.00	1.10	 	 	 	 	 	 	 	 	 	 	 	 	 	 	 	 	 	 	1581551325	7.32	13.56
12/02/2020 23:48:46	120220	12022020	234846	234.23	12.152688	-57.196617	234.21	0.110	0.740	0.190	234.23	-1.00	0.50	 	 	 	 	 	 	 	 	 	 	 	 	 	 	 	 	 	 	1581551326	7.66	14.19
12/02/2020 23:48:47	120220	12022020	234847	234.38	12.152667	-57.196647	234.33	0.200	-0.390	-0.110	234.38	-2.20	0.30	 	 	 	 	 	 	 	 	 	 	 	 	 	 	 	 	 	 	1581551327	7.88	14.59
12/02/2020 23:48:48	120220	12022020	234848	234.38	12.152647	-57.196677	234.33	0.350	-1.450	-0.070	234.38	-3.10	0.40	 	 	 	 	 	 	 	 	 	 	 	 	 	 	 	 	 	 	1581551328	7.84	14.52
12/02/2020 23:48:49	120220	12022020	234849	234.19	12.152630	-57.196708	234.14	0.520	-2.140	0.320	234.19	-3.60	0.90	 	 	 	 	 	 	 	 	 	 	 	 	 	 	 	 	 	 	1581551329	7.67	14.20
12/02/2020 23:48:50	120220	12022020	234850	233.87	12.152615	-57.196740	233.83	0.490	-2.140	0.860	233.87	-3.30	1.50	 	 	 	 	 	 	 	 	 	 	 	 	 	 	 	 	 	 	1581551330	7.55	13.98
12/02/2020 23:48:51	120220	12022020	234851	233.64	12.152602	-57.196770	233.56	0.160	-1.370	1.400	233.59	-2.40	2.00	 	 	 	 	 	 	 	 	 	 	 	 	 	 	 	 	 	 	1581551331	7.34	13.59
12/02/2020 23:48:52	120220	12022020	234852	233.32	12.152588	-57.196800	233.30	-0.230	-0.200	1.920	233.32	-1.20	2.50	 	 	 	 	 	 	 	 	 	 	 	 	 	 	 	 	 	 	1581551332	7.02	13.00
12/02/2020 23:48:53	120220	12022020	234853	233.16	12.152575	-57.196830	233.17	-0.470	0.870	2.230	233.16	-0.30	2.60	 	 	 	 	 	 	 	 	 	 	 	 	 	 	 	 	 	 	1581551333	6.92	12.82
12/02/2020 23:48:54	120220	12022020	234854	233.41	12.152558	-57.196860	233.43	-0.520	1.550	1.990	233.41	0.20	2.20	 	 	 	 	 	 	 	 	 	 	 	 	 	 	 	 	 	 	1581551334	7.08	13.11
12/02/2020 23:48:55	120220	12022020	234855	233.94	12.152540	-57.196888	233.96	-0.400	1.640	1.370	233.94	0.10	1.60	 	 	 	 	 	 	 	 	 	 	 	 	 	 	 	 	 	 	1581551335	7.20	13.33
12/02/2020 23:48:56	120220	12022020	234856	234.38	12.152520	-57.196918	234.37	-0.060	0.990	0.680	234.38	-0.80	0.90	 	 	 	 	 	 	 	 	 	 	 	 	 	 	 	 	 	 	1581551336	7.28	13.48
12/02/2020 23:48:57	120220	12022020	234857	234.60	12.152497	-57.196947	234.57	0.410	-0.280	0.130	234.60	-2.20	0.40	 	 	 	 	 	 	 	 	 	 	 	 	 	 	 	 	 	 	1581551337	7.54	13.96
12/02/2020 23:48:58	120220	12022020	234858	234.63	12.152477	-57.196978	234.57	0.780	-1.680	-0.010	234.63	-3.40	0.50	 	 	 	 	 	 	 	 	 	 	 	 	 	 	 	 	 	 	1581551338	7.91	14.65
12/02/2020 23:48:59	120220	12022020	234859	234.42	12.152458	-57.197010	234.36	0.780	-2.470	0.300	234.42	-3.90	0.90	 	 	 	 	 	 	 	 	 	 	 	 	 	 	 	 	 	 	1581551339	8.04	14.89
12/02/2020 23:49:00	120220	12022020	234900	234.08	12.152443	-57.197040	234.03	0.380	-2.300	0.950	234.08	-3.40	1.60	 	 	 	 	 	 	 	 	 	 	 	 	 	 	 	 	 	 	1581551340	7.72	14.30
12/02/2020 23:49:01	120220	12022020	234901	233.77	12.152432	-57.197072	233.74	-0.180	-1.430	1.660	233.77	-2.40	2.20	1015.70	26.40	27.30	21.10	21.60	-1.0	72.0	71.0	401.0	25.7	195.00	6.90	63.00	10.60	17	11421.0	27.4	27.4	1581551341	7.22	13.37
12/02/2020 23:49:02	120220	12022020	234902	233.63	12.152420	-57.197103	233.62	-0.590	-0.280	2.070	233.63	-1.30	2.50	 	 	 	 	 	 	 	 	 	 	 	 	 	 	 	 	 	 	1581551342	7.03	13.02
12/02/2020 23:49:03	120220	12022020	234903	233.71	12.152407	-57.197133	233.74	-0.700	0.860	2.010	233.75	-0.20	2.30	 	 	 	 	 	 	 	 	 	 	 	 	 	 	 	 	 	 	1581551343	7.08	13.11
12/02/2020 23:49:04	120220	12022020	234904	234.03	12.152388	-57.197162	234.03	-0.520	1.590	1.620	234.03	0.30	1.90	 	 	 	 	 	 	 	 	 	 	 	 	 	 	 	 	 	 	1581551344	7.08	13.11
12/02/2020 23:49:05	120220	12022020	234905	234.25	12.152368	-57.197192	234.27	-0.220	1.590	1.070	234.30	0.00	1.30	 	 	 	 	 	 	 	 	 	 	 	 	 	 	 	 	 	 	1581551345	7.19	13.32
12/02/2020 23:49:06	120220	12022020	234906	234.48	12.152347	-57.197222	234.46	0.060	1.070	0.530	234.48	-0.60	0.80	 	 	 	 	 	 	 	 	 	 	 	 	 	 	 	 	 	 	1581551346	7.60	14.08
12/02/2020 23:49:07	120220	12022020	234907	234.60	12.152327	-57.197250	234.58	0.240	0.350	0.120	234.60	-1.30	0.40	 	 	 	 	 	 	 	 	 	 	 	 	 	 	 	 	 	 	1581551347	7.74	14.33
12/02/2020 23:49:08	120220	12022020	234908	234.65	12.152308	-57.197278	234.62	0.390	-0.530	-0.090	234.65	-2.30	0.30	 	 	 	 	 	 	 	 	 	 	 	 	 	 	 	 	 	 	1581551348	7.47	13.83
12/02/2020 23:49:09	120220	12022020	234909	234.58	12.152290	-57.197308	234.54	0.550	-1.600	-0.040	234.58	-3.30	0.40	 	 	 	 	 	 	 	 	 	 	 	 	 	 	 	 	 	 	1581551349	7.30	13.52
12/02/2020 23:49:10	120220	12022020	234910	234.45	12.152272	-57.197340	234.42	0.600	-2.400	0.270	234.45	-3.90	0.80	 	 	 	 	 	 	 	 	 	 	 	 	 	 	 	 	 	 	1581551350	7.50	13.89
12/02/2020 23:49:11	120220	12022020	234911	234.36	12.152257	-57.197370	234.34	0.410	-2.400	0.720	234.36	-3.60	1.30	 	 	 	 	 	 	 	 	 	 	 	 	 	 	 	 	 	 	1581551351	7.61	14.09
12/02/2020 23:49:12	120220	12022020	234912	234.25	12.152242	-57.197400	234.23	0.050	-1.610	1.150	234.25	-2.60	1.70	 	 	 	 	 	 	 	 	 	 	 	 	 	 	 	 	 	 	1581551352	7.31	13.54
12/02/2020 23:49:13	120220	12022020	234913	234.10	12.152228	-57.197432	234.08	-0.310	-0.470	1.590	234.10	-1.50	2.10	 	 	 	 	 	 	 	 	 	 	 	 	 	 	 	 	 	 	1581551353	7.02	13.00
12/02/2020 23:49:14	120220	12022020	234914	233.97	12.152215	-57.197463	233.94	-0.610	0.610	1.980	233.97	-0.50	2.50	 	 	 	 	 	 	 	 	 	 	 	 	 	 	 	 	 	 	1581551354	7.08	13.11
12/02/2020 23:49:15	120220	12022020	234915	233.86	12.152200	-57.197495	233.85	-0.800	1.290	2.100	233.86	0.00	2.40	 	 	 	 	 	 	 	 	 	 	 	 	 	 	 	 	 	 	1581551355	7.31	13.54
12/02/2020 23:49:16	120220	12022020	234916	233.83	12.152183	-57.197527	233.83	-0.770	1.630	1.840	233.83	0.30	2.10	 	 	 	 	 	 	 	 	 	 	 	 	 	 	 	 	 	 	1581551356	7.60	14.08
12/02/2020 23:49:17	120220	12022020	234917	233.98	12.152165	-57.197555	233.96	-0.430	1.650	1.230	233.98	0.20	1.40	 	 	 	 	 	 	 	 	 	 	 	 	 	 	 	 	 	 	1581551357	7.62	14.11
12/02/2020 23:49:18	120220	12022020	234918	234.32	12.152143	-57.197583	234.29	0.130	1.160	0.410	234.32	-0.50	0.60	 	 	 	 	 	 	 	 	 	 	 	 	 	 	 	 	 	 	1581551358	7.38	13.67
12/02/2020 23:49:19	120220	12022020	234919	234.72	12.152122	-57.197610	234.68	0.710	0.020	-0.170	234.72	-1.80	0.20	 	 	 	 	 	 	 	 	 	 	 	 	 	 	 	 	 	 	1581551359	7.30	13.52
12/02/2020 23:49:20	120220	12022020	234920	234.94	12.152102	-57.197640	234.88	1.060	-1.440	-0.170	234.94	-3.20	0.40	 	 	 	 	 	 	 	 	 	 	 	 	 	 	 	 	 	 	1581551360	7.50	13.89
12/02/2020 23:49:21	120220	12022020	234921	234.86	12.152083	-57.197673	234.81	1.040	-2.530	0.430	234.86	-4.10	1.10	 	 	 	 	 	 	 	 	 	 	 	 	 	 	 	 	 	 	1581551361	7.72	14.30
12/02/2020 23:49:22	120220	12022020	234922	234.50	12.152070	-57.197705	234.49	0.670	-2.780	1.340	234.50	-4.00	2.10	 	 	 	 	 	 	 	 	 	 	 	 	 	 	 	 	 	 	1581551362	7.68	14.22
12/02/2020 23:49:23	120220	12022020	234923	233.99	12.152060	-57.197737	234.01	0.150	-2.120	2.290	233.99	-3.10	2.90	 	 	 	 	 	 	 	 	 	 	 	 	 	 	 	 	 	 	1581551363	7.42	13.74
12/02/2020 23:49:24	120220	12022020	234924	233.61	12.152048	-57.197768	233.66	-0.370	-0.830	2.930	233.61	-1.70	3.40	 	 	 	 	 	 	 	 	 	 	 	 	 	 	 	 	 	 	1581551364	7.19	13.32
12/02/2020 23:49:25	120220	12022020	234925	233.54	12.152037	-57.197798	233.58	-0.770	0.590	3.030	233.54	-0.40	3.30	 	 	 	 	 	 	 	 	 	 	 	 	 	 	 	 	 	 	1581551365	7.07	13.09
12/02/2020 23:49:26	120220	12022020	234926	233.77	12.152020	-57.197828	233.80	-0.950	1.590	2.540	233.77	0.40	2.70	 	 	 	 	 	 	 	 	 	 	 	 	 	 	 	 	 	 	1581551366	6.99	12.95
12/02/2020 23:49:27	120220	12022020	234927	234.09	12.152000	-57.197857	234.18	-0.870	1.780	1.630	234.18	0.20	1.70	 	 	 	 	 	 	 	 	 	 	 	 	 	 	 	 	 	 	1581551367	7.12	13.19
12/02/2020 23:49:28	120220	12022020	234928	234.49	12.151977	-57.197887	234.48	-0.540	1.130	0.710	234.49	-0.60	0.90	 	 	 	 	 	 	 	 	 	 	 	 	 	 	 	 	 	 	1581551368	7.50	13.89
12/02/2020 23:49:29	120220	12022020	234929	234.70	12.151955	-57.197917	234.68	-0.010	0.200	-0.030	234.70	-1.40	0.20	 	 	 	 	 	 	 	 	 	 	 	 	 	 	 	 	 	 	1581551369	7.99	14.80
12/02/2020 23:49:30	120220	12022020	234930	234.90	12.151933	-57.197945	234.87	0.520	-0.460	-0.560	234.90	-2.00	-0.20	 	 	 	 	 	 	 	 	 	 	 	 	 	 	 	 	 	 	1581551370	8.01	14.83
12/02/2020 23:49:31	120220	12022020	234931	235.11	12.151915	-57.197972	235.07	0.850	-0.820	-0.760	235.11	-2.30	-0.30	 	 	 	 	 	 	 	 	 	 	 	 	 	 	 	 	 	 	1581551371	7.47	13.83
12/02/2020 23:49:32	120220	12022020	234932	235.26	12.151898	-57.198000	235.21	0.830	-1.110	-0.520	235.26	-2.60	0.10	 	 	 	 	 	 	 	 	 	 	 	 	 	 	 	 	 	 	1581551372	6.98	12.93
12/02/2020 23:49:33	120220	12022020	234933	235.16	12.151883	-57.198032	235.13	0.510	-1.410	0.270	235.16	-2.90	1.00	 	 	 	 	 	 	 	 	 	 	 	 	 	 	 	 	 	 	1581551373	6.91	12.80
12/02/2020 23:49:34	120220	12022020	234934	234.79	12.151872	-57.198065	234.77	0.050	-1.480	1.430	234.79	-2.80	2.20	 	 	 	 	 	 	 	 	 	 	 	 	 	 	 	 	 	 	1581551374	7.28	13.48
12/02/2020 23:49:35	120220	12022020	234935	234.31	12.151860	-57.198098	234.32	-0.340	-1.040	2.500	234.31	-2.20	3.10	 	 	 	 	 	 	 	 	 	 	 	 	 	 	 	 	 	 	1581551375	7.61	14.09
12/02/2020 23:49:36	120220	12022020	234936	233.86	12.151850	-57.198132	233.88	-0.530	-0.140	3.060	233.86	-1.20	3.50	 	 	 	 	 	 	 	 	 	 	 	 	 	 	 	 	 	 	1581551376	7.58	14.04
12/02/2020 23:49:37	120220	12022020	234937	233.52	12.151835	-57.198162	233.54	-0.530	0.700	2.980	233.52	-0.50	3.20	 	 	 	 	 	 	 	 	 	 	 	 	 	 	 	 	 	 	1581551377	7.19	13.32
12/02/2020 23:49:38	120220	12022020	234938	233.42	12.151817	-57.198190	233.44	-0.340	0.940	2.290	233.42	-0.50	2.40	 	 	 	 	 	 	 	 	 	 	 	 	 	 	 	 	 	 	1581551378	6.97	12.91
12/02/2020 23:49:39	120220	12022020	234939	233.67	12.151795	-57.198218	233.68	-0.030	0.540	1.180	233.67	-1.10	1.20	 	 	 	 	 	 	 	 	 	 	 	 	 	 	 	 	 	 	1581551379	7.27	13.46
12/02/2020 23:49:40	120220	12022020	234940	234.19	12.151772	-57.198247	234.19	0.230	-0.090	0.080	234.19	-1.70	0.20	 	 	 	 	 	 	 	 	 	 	 	 	 	 	 	 	 	 	1581551380	7.69	14.24
12/02/2020 23:49:41	120220	12022020	234941	234.71	12.151752	-57.198275	234.80	0.300	-0.510	-0.620	234.83	-2.00	-0.30	 	 	 	 	 	 	 	 	 	 	 	 	 	 	 	 	 	 	1581551381	7.82	14.48
12/02/2020 23:49:42	120220	12022020	234942	235.31	12.151733	-57.198303	235.28	0.220	-0.660	-0.740	235.31	-2.10	-0.20	 	 	 	 	 	 	 	 	 	 	 	 	 	 	 	 	 	 	1581551382	7.44	13.78
12/02/2020 23:49:43	120220	12022020	234943	235.36	12.151718	-57.198332	235.34	0.130	-0.720	-0.230	235.36	-2.10	0.50	 	 	 	 	 	 	 	 	 	 	 	 	 	 	 	 	 	 	1581551383	7.07	13.09
12/02/2020 23:49:44	120220	12022020	234944	234.98	12.151703	-57.198363	234.97	0.080	-0.740	0.720	234.98	-2.10	1.40	 	 	 	 	 	 	 	 	 	 	 	 	 	 	 	 	 	 	1581551384	7.08	13.11
12/02/2020 23:49:45	120220	12022020	234945	234.50	12.151690	-57.198397	234.49	0.030	-0.530	1.580	234.50	-1.80	2.20	 	 	 	 	 	 	 	 	 	 	 	 	 	 	 	 	 	 	1581551385	7.33	13.58
12/02/2020 23:49:46	120220	12022020	234946	234.25	12.151677	-57.198427	234.23	-0.090	-0.110	1.970	234.25	-1.40	2.40	 	 	 	 	 	 	 	 	 	 	 	 	 	 	 	 	 	 	1581551386	7.35	13.61
12/02/2020 23:49:47	120220	12022020	234947	234.22	12.151662	-57.198457	234.20	-0.160	0.160	1.920	234.22	-1.20	2.20	 	 	 	 	 	 	 	 	 	 	 	 	 	 	 	 	 	 	1581551387	7.07	13.09
12/02/2020 23:49:48	120220	12022020	234948	234.26	12.151643	-57.198485	234.24	-0.080	0.080	1.600	234.26	-1.40	1.90	 	 	 	 	 	 	 	 	 	 	 	 	 	 	 	 	 	 	1581551388	7.03	13.02
12/02/2020 23:49:49	120220	12022020	234949	234.31	12.151625	-57.198515	234.29	0.040	-0.260	1.220	234.31	-1.80	1.50	 	 	 	 	 	 	 	 	 	 	 	 	 	 	 	 	 	 	1581551389	7.27	13.46
12/02/2020 23:49:50	120220	12022020	234950	234.35	12.151607	-57.198545	234.32	0.080	-0.560	0.990	234.35	-2.00	1.40	 	 	 	 	 	 	 	 	 	 	 	 	 	 	 	 	 	 	1581551390	7.51	13.91
12/02/2020 23:49:51	120220	12022020	234951	234.31	12.151590	-57.198575	234.28	0.050	-0.570	1.010	234.31	-1.90	1.50	 	 	 	 	 	 	 	 	 	 	 	 	 	 	 	 	 	 	1581551391	7.52	13.93
12/02/2020 23:49:52	120220	12022020	234952	234.18	12.151577	-57.198607	234.14	0.020	-0.330	1.150	234.18	-1.60	1.60	 	 	 	 	 	 	 	 	 	 	 	 	 	 	 	 	 	 	1581551392	7.32	13.56
12/02/2020 23:49:53	120220	12022020	234953	234.07	12.151562	-57.198637	234.02	0.010	-0.060	1.170	234.05	-1.40	1.50	 	 	 	 	 	 	 	 	 	 	 	 	 	 	 	 	 	 	1581551393	7.13	13.20
12/02/2020 23:49:54	120220	12022020	234954	234.13	12.151545	-57.198665	234.10	0.070	0.080	0.820	234.13	-1.30	1.00	 	 	 	 	 	 	 	 	 	 	 	 	 	 	 	 	 	 	1581551394	7.09	13.13
12/02/2020 23:49:55	120220	12022020	234955	234.35	12.151525	-57.198693	234.39	0.170	0.020	0.200	234.43	-1.40	0.40	 	 	 	 	 	 	 	 	 	 	 	 	 	 	 	 	 	 	1581551395	7.12	13.19
12/02/2020 23:49:56	120220	12022020	234956	234.83	12.151505	-57.198722	234.79	0.220	-0.230	-0.300	234.83	-1.70	0.10	 	 	 	 	 	 	 	 	 	 	 	 	 	 	 	 	 	 	1581551396	7.22	13.37
12/02/2020 23:49:57	120220	12022020	234957	235.16	12.151487	-57.198750	235.11	0.130	-0.510	-0.300	235.16	-2.00	0.20	 	 	 	 	 	 	 	 	 	 	 	 	 	 	 	 	 	 	1581551397	7.36	13.63
12/02/2020 23:49:58	120220	12022020	234958	235.29	12.151470	-57.198780	235.24	-0.080	-0.670	0.120	235.29	-2.10	0.70	 	 	 	 	 	 	 	 	 	 	 	 	 	 	 	 	 	 	1581551398	7.38	13.67
12/02/2020 23:49:59	120220	12022020	234959	235.21	12.151455	-57.198812	235.18	-0.280	-0.670	0.790	235.21	-2.00	1.40	 	 	 	 	 	 	 	 	 	 	 	 	 	 	 	 	 	 	1581551399	7.34	13.59
12/02/2020 23:50:00	120220	12022020	235000	234.88	12.151440	-57.198843	234.85	-0.370	-0.510	1.550	234.88	-1.80	2.20	 	 	 	 	 	 	 	 	 	 	 	 	 	 	 	 	 	 	1581551400	7.31	13.54
12/02/2020 23:50:01	120220	12022020	235001	234.27	12.151427	-57.198875	234.24	-0.360	-0.310	2.250	234.27	-1.60	2.80	1015.70	26.70	30.40	21.10	22.70	-1.0	71.0	63.0	402.0	25.7	193.00	7.00	63.00	10.70	17	11034.0	27.4	27.4	1581551401	7.31	13.54
12/02/2020 23:50:02	120220	12022020	235002	233.61	12.151412	-57.198907	233.59	-0.270	-0.170	2.570	233.61	-1.50	3.00	 	 	 	 	 	 	 	 	 	 	 	 	 	 	 	 	 	 	1581551402	7.39	13.69
12/02/2020 23:50:03	120220	12022020	235003	233.19	12.151395	-57.198937	233.16	-0.140	-0.040	2.410	233.19	-1.40	2.60	 	 	 	 	 	 	 	 	 	 	 	 	 	 	 	 	 	 	1581551403	7.49	13.87
12/02/2020 23:50:04	120220	12022020	235004	233.18	12.151377	-57.198967	233.15	-0.040	0.130	1.800	233.18	-1.20	1.90	 	 	 	 	 	 	 	 	 	 	 	 	 	 	 	 	 	 	1581551404	7.43	13.76
12/02/2020 23:50:05	120220	12022020	235005	233.59	12.151358	-57.198993	233.56	0.060	0.170	0.880	233.59	-1.30	1.00	 	 	 	 	 	 	 	 	 	 	 	 	 	 	 	 	 	 	1581551405	7.21	13.35
12/02/2020 23:50:06	120220	12022020	235006	234.29	12.151338	-57.199022	234.25	0.190	-0.060	-0.080	234.29	-1.60	0.10	 	 	 	 	 	 	 	 	 	 	 	 	 	 	 	 	 	 	1581551406	7.11	13.17
12/02/2020 23:50:07	120220	12022020	235007	234.97	12.151320	-57.199050	234.92	0.320	-0.440	-0.740	234.97	-1.90	-0.50	 	 	 	 	 	 	 	 	 	 	 	 	 	 	 	 	 	 	1581551407	7.26	13.45
12/02/2020 23:50:08	120220	12022020	235008	235.43	12.151300	-57.199080	235.38	0.370	-0.580	-0.950	235.43	-1.90	-0.50	 	 	 	 	 	 	 	 	 	 	 	 	 	 	 	 	 	 	1581551408	7.44	13.78
12/02/2020 23:50:09	120220	12022020	235009	235.55	12.151283	-57.199108	235.50	0.250	-0.310	-0.630	235.55	-1.60	-0.00	 	 	 	 	 	 	 	 	 	 	 	 	 	 	 	 	 	 	1581551409	7.29	13.50
12/02/2020 23:50:10	120220	12022020	235010	235.30	12.151268	-57.199137	235.26	-0.020	0.000	0.120	235.30	-1.40	0.80	 	 	 	 	 	 	 	 	 	 	 	 	 	 	 	 	 	 	1581551410	6.92	12.82
12/02/2020 23:50:11	120220	12022020	235011	234.73	12.151255	-57.199167	234.70	-0.260	-0.040	1.110	234.73	-1.50	1.80	 	 	 	 	 	 	 	 	 	 	 	 	 	 	 	 	 	 	1581551411	6.82	12.63
12/02/2020 23:50:12	120220	12022020	235012	234.03	12.151240	-57.199200	234.02	-0.320	-0.450	2.040	234.03	-2.00	2.70	 	 	 	 	 	 	 	 	 	 	 	 	 	 	 	 	 	 	1581551412	7.24	13.41
12/02/2020 23:50:13	120220	12022020	235013	233.44	12.151223	-57.199233	233.44	-0.220	-0.910	2.510	233.44	-2.40	2.90	 	 	 	 	 	 	 	 	 	 	 	 	 	 	 	 	 	 	1581551413	7.74	14.33
12/02/2020 23:50:14	120220	12022020	235014	233.17	12.151207	-57.199265	233.17	-0.090	-1.040	2.370	233.17	-2.40	2.60	 	 	 	 	 	 	 	 	 	 	 	 	 	 	 	 	 	 	1581551414	7.89	14.61
12/02/2020 23:50:15	120220	12022020	235015	233.24	12.151190	-57.199295	233.24	-0.060	-0.810	1.810	233.24	-2.10	2.00	 	 	 	 	 	 	 	 	 	 	 	 	 	 	 	 	 	 	1581551415	7.58	14.04
12/02/2020 23:50:16	120220	12022020	235016	233.55	12.151173	-57.199323	233.53	-0.120	-0.360	1.090	233.55	-1.60	1.30	 	 	 	 	 	 	 	 	 	 	 	 	 	 	 	 	 	 	1581551416	7.19	13.32
12/02/2020 23:50:17	120220	12022020	235017	233.94	12.151155	-57.199350	233.91	-0.200	0.170	0.450	233.94	-1.00	0.70	 	 	 	 	 	 	 	 	 	 	 	 	 	 	 	 	 	 	1581551417	7.01	12.98
12/02/2020 23:50:18	120220	12022020	235018	234.35	12.151137	-57.199377	234.31	-0.210	0.670	-0.020	234.35	-0.60	0.30	 	 	 	 	 	 	 	 	 	 	 	 	 	 	 	 	 	 	1581551418	6.98	12.93
12/02/2020 23:50:19	120220	12022020	235019	234.63	12.151117	-57.199405	234.64	-0.110	0.820	-0.240	234.67	-0.70	0.20	 	 	 	 	 	 	 	 	 	 	 	 	 	 	 	 	 	 	1581551419	6.96	12.89
12/02/2020 23:50:20	120220	12022020	235020	234.71	12.151098	-57.199433	234.68	0.080	0.440	-0.070	234.71	-1.20	0.50	 	 	 	 	 	 	 	 	 	 	 	 	 	 	 	 	 	 	1581551420	7.08	13.11
12/02/2020 23:50:21	120220	12022020	235021	234.39	12.151080	-57.199465	234.36	0.280	-0.260	0.430	234.39	-1.90	1.10	 	 	 	 	 	 	 	 	 	 	 	 	 	 	 	 	 	 	1581551421	7.46	13.82
12/02/2020 23:50:22	120220	12022020	235022	233.91	12.151063	-57.199498	233.89	0.320	-0.830	1.100	233.91	-2.30	1.70	 	 	 	 	 	 	 	 	 	 	 	 	 	 	 	 	 	 	1581551422	7.72	14.30
12/02/2020 23:50:23	120220	12022020	235023	233.60	12.151050	-57.199528	233.58	0.160	-1.000	1.610	233.60	-2.40	2.10	 	 	 	 	 	 	 	 	 	 	 	 	 	 	 	 	 	 	1581551423	7.64	14.15
12/02/2020 23:50:24	120220	12022020	235024	233.57	12.151035	-57.199558	233.55	-0.060	-0.830	1.660	233.57	-2.10	2.00	 	 	 	 	 	 	 	 	 	 	 	 	 	 	 	 	 	 	1581551424	7.28	13.48
12/02/2020 23:50:25	120220	12022020	235025	233.74	12.151018	-57.199585	233.72	-0.130	-0.610	1.310	233.74	-2.00	1.60	 	 	 	 	 	 	 	 	 	 	 	 	 	 	 	 	 	 	1581551425	6.91	12.80
12/02/2020 23:50:26	120220	12022020	235026	233.90	12.150998	-57.199613	233.87	-0.060	-0.530	0.890	233.90	-1.90	1.20	 	 	 	 	 	 	 	 	 	 	 	 	 	 	 	 	 	 	1581551426	6.87	12.72
12/02/2020 23:50:27	120220	12022020	235027	233.96	12.150978	-57.199642	233.93	-0.020	-0.510	0.670	233.96	-1.90	1.10	 	 	 	 	 	 	 	 	 	 	 	 	 	 	 	 	 	 	1581551427	7.18	13.30
12/02/2020 23:50:28	120220	12022020	235028	233.93	12.150960	-57.199672	233.90	-0.130	-0.370	0.760	233.93	-1.70	1.20	 	 	 	 	 	 	 	 	 	 	 	 	 	 	 	 	 	 	1581551428	7.44	13.78
12/02/2020 23:50:29	120220	12022020	235029	233.82	12.150945	-57.199703	233.80	-0.330	-0.070	0.990	233.82	-1.30	1.50	 	 	 	 	 	 	 	 	 	 	 	 	 	 	 	 	 	 	1581551429	7.47	13.83
12/02/2020 23:50:30	120220	12022020	235030	233.71	12.150930	-57.199733	233.70	-0.420	0.290	1.180	233.71	-1.00	1.60	 	 	 	 	 	 	 	 	 	 	 	 	 	 	 	 	 	 	1581551430	7.36	13.63
12/02/2020 23:50:31	120220	12022020	235031	233.74	12.150913	-57.199763	233.75	-0.300	0.590	1.090	233.76	-0.80	1.40	 	 	 	 	 	 	 	 	 	 	 	 	 	 	 	 	 	 	1581551431	7.28	13.48
12/02/2020 23:50:32	120220	12022020	235032	233.94	12.150895	-57.199792	233.92	-0.020	0.550	0.730	233.94	-1.00	1.00	 	 	 	 	 	 	 	 	 	 	 	 	 	 	 	 	 	 	1581551432	7.12	13.19
12/02/2020 23:50:33	120220	12022020	235033	234.12	12.150875	-57.199820	234.09	0.280	-0.040	0.310	234.12	-1.70	0.60	 	 	 	 	 	 	 	 	 	 	 	 	 	 	 	 	 	 	1581551433	7.13	13.20
12/02/2020 23:50:34	120220	12022020	235034	234.22	12.150855	-57.199850	234.20	0.460	-0.810	0.100	234.22	-2.40	0.50	 	 	 	 	 	 	 	 	 	 	 	 	 	 	 	 	 	 	1581551434	7.51	13.91
12/02/2020 23:50:35	120220	12022020	235035	234.25	12.150837	-57.199882	234.22	0.420	-1.130	0.180	234.25	-2.40	0.70	 	 	 	 	 	 	 	 	 	 	 	 	 	 	 	 	 	 	1581551435	7.77	14.39
12/02/2020 23:50:36	120220	12022020	235036	234.24	12.150822	-57.199908	234.21	0.150	-0.700	0.470	234.24	-1.90	1.00	 	 	 	 	 	 	 	 	 	 	 	 	 	 	 	 	 	 	1581551436	7.49	13.87
12/02/2020 23:50:37	120220	12022020	235037	234.19	12.150808	-57.199937	234.17	-0.220	-0.050	0.820	234.19	-1.30	1.30	 	 	 	 	 	 	 	 	 	 	 	 	 	 	 	 	 	 	1581551437	6.83	12.65
12/02/2020 23:50:38	120220	12022020	235038	234.09	12.150793	-57.199967	234.07	-0.400	0.180	1.090	234.09	-1.30	1.50	 	 	 	 	 	 	 	 	 	 	 	 	 	 	 	 	 	 	1581551438	6.59	12.20
12/02/2020 23:50:39	120220	12022020	235039	234.00	12.150777	-57.199998	233.97	-0.240	-0.080	1.130	234.00	-1.60	1.50	 	 	 	 	 	 	 	 	 	 	 	 	 	 	 	 	 	 	1581551439	7.02	13.00
12/02/2020 23:50:40	120220	12022020	235040	234.13	12.150757	-57.200028	234.11	0.070	-0.500	0.880	234.13	-2.00	1.20	 	 	 	 	 	 	 	 	 	 	 	 	 	 	 	 	 	 	1581551440	7.52	13.93
12/02/2020 23:50:41	120220	12022020	235041	234.38	12.150737	-57.200058	234.36	0.200	-0.760	0.570	234.38	-2.20	0.90	 	 	 	 	 	 	 	 	 	 	 	 	 	 	 	 	 	 	1581551441	7.70	14.26
12/02/2020 23:50:42	120220	12022020	235042	234.50	12.150718	-57.200087	234.48	0.060	-0.790	0.500	234.50	-2.10	1.00	 	 	 	 	 	 	 	 	 	 	 	 	 	 	 	 	 	 	1581551442	7.54	13.96
12/02/2020 23:50:43	120220	12022020	235043	234.41	12.150702	-57.200117	234.35	-0.140	-0.600	0.740	234.37	-1.90	1.20	 	 	 	 	 	 	 	 	 	 	 	 	 	 	 	 	 	 	1581551443	7.36	13.63
12/02/2020 23:50:44	120220	12022020	235044	234.15	12.150687	-57.200148	234.14	-0.190	-0.250	0.990	234.15	-1.50	1.40	 	 	 	 	 	 	 	 	 	 	 	 	 	 	 	 	 	 	1581551444	7.28	13.48
12/02/2020 23:50:45	120220	12022020	235045	234.09	12.150670	-57.200177	234.08	-0.120	0.140	1.000	234.09	-1.20	1.40	 	 	 	 	 	 	 	 	 	 	 	 	 	 	 	 	 	 	1581551445	7.24	13.41
12/02/2020 23:50:46	120220	12022020	235046	234.15	12.150653	-57.200207	234.14	-0.100	0.350	0.890	234.15	-1.00	1.30	 	 	 	 	 	 	 	 	 	 	 	 	 	 	 	 	 	 	1581551446	7.20	13.33
12/02/2020 23:50:47	120220	12022020	235047	234.16	12.150637	-57.200238	234.14	-0.150	0.310	0.920	234.16	-1.10	1.30	 	 	 	 	 	 	 	 	 	 	 	 	 	 	 	 	 	 	1581551447	7.29	13.50
12/02/2020 23:50:48	120220	12022020	235048	234.05	12.150620	-57.200268	234.03	-0.130	0.140	1.010	234.05	-1.30	1.40	 	 	 	 	 	 	 	 	 	 	 	 	 	 	 	 	 	 	1581551448	7.45	13.80
12/02/2020 23:50:49	120220	12022020	235049	234.00	12.150603	-57.200298	234.00	0.030	-0.020	0.990	234.00	-1.40	1.30	 	 	 	 	 	 	 	 	 	 	 	 	 	 	 	 	 	 	1581551449	7.46	13.82
12/02/2020 23:50:50	120220	12022020	235050	234.19	12.150585	-57.200328	234.19	0.200	-0.160	0.760	234.19	-1.60	1.10	 	 	 	 	 	 	 	 	 	 	 	 	 	 	 	 	 	 	1581551450	7.34	13.59
12/02/2020 23:50:51	120220	12022020	235051	234.46	12.150567	-57.200355	234.47	0.250	-0.400	0.390	234.46	-1.90	0.70	 	 	 	 	 	 	 	 	 	 	 	 	 	 	 	 	 	 	1581551451	7.16	13.26
12/02/2020 23:50:52	120220	12022020	235052	234.65	12.150547	-57.200385	234.64	0.200	-0.790	0.120	234.65	-2.30	0.50	 	 	 	 	 	 	 	 	 	 	 	 	 	 	 	 	 	 	1581551452	7.15	13.24
12/02/2020 23:50:53	120220	12022020	235053	234.63	12.150528	-57.200415	234.62	0.160	-1.210	0.220	234.63	-2.70	0.70	 	 	 	 	 	 	 	 	 	 	 	 	 	 	 	 	 	 	1581551453	7.31	13.54
12/02/2020 23:50:54	120220	12022020	235054	234.42	12.150512	-57.200445	234.41	0.160	-1.270	0.630	234.42	-2.50	1.20	 	 	 	 	 	 	 	 	 	 	 	 	 	 	 	 	 	 	1581551454	7.56	14.00
12/02/2020 23:50:55	120220	12022020	235055	234.22	12.150497	-57.200475	234.20	0.100	-0.750	1.110	234.22	-1.90	1.70	 	 	 	 	 	 	 	 	 	 	 	 	 	 	 	 	 	 	1581551455	7.55	13.98
12/02/2020 23:50:56	120220	12022020	235056	234.07	12.150482	-57.200505	234.06	-0.090	-0.030	1.560	234.07	-1.20	2.10	 	 	 	 	 	 	 	 	 	 	 	 	 	 	 	 	 	 	1581551456	7.17	13.28
12/02/2020 23:50:57	120220	12022020	235057	233.81	12.150467	-57.200537	233.79	-0.290	0.380	1.890	233.81	-1.00	2.40	 	 	 	 	 	 	 	 	 	 	 	 	 	 	 	 	 	 	1581551457	6.99	12.95
12/02/2020 23:50:58	120220	12022020	235058	233.50	12.150452	-57.200568	233.50	-0.340	0.420	1.990	233.50	-1.00	2.30	 	 	 	 	 	 	 	 	 	 	 	 	 	 	 	 	 	 	1581551458	7.28	13.48
12/02/2020 23:50:59	120220	12022020	235059	233.44	12.150435	-57.200600	233.45	-0.210	0.390	1.740	233.44	-1.00	2.00	 	 	 	 	 	 	 	 	 	 	 	 	 	 	 	 	 	 	1581551459	7.67	14.20
12/02/2020 23:51:00	120220	12022020	235100	233.77	12.150417	-57.200630	233.76	0.010	0.360	1.070	233.77	-1.10	1.20	 	 	 	 	 	 	 	 	 	 	 	 	 	 	 	 	 	 	1581551460	7.63	14.13
12/02/2020 23:51:01	120220	12022020	235101	234.38	12.150397	-57.200657	234.38	0.150	0.140	0.190	234.38	-1.40	0.30	1015.80	26.60	31.40	21.00	22.30	-1.0	71.0	58.0	402.0	25.7	195.00	6.20	64.00	9.80	17	11806.0	27.4	27.4	1581551461	7.34	13.59
12/02/2020 23:51:02	120220	12022020	235102	234.97	12.150375	-57.200685	234.96	0.180	-0.350	-0.430	234.97	-1.90	-0.10	 	 	 	 	 	 	 	 	 	 	 	 	 	 	 	 	 	 	1581551462	7.27	13.46
12/02/2020 23:51:03	120220	12022020	235103	235.37	12.150355	-57.200715	235.36	0.190	-0.950	-0.530	235.37	-2.50	-0.00	 	 	 	 	 	 	 	 	 	 	 	 	 	 	 	 	 	 	1581551463	7.39	13.69
12/02/2020 23:51:04	120220	12022020	235104	235.42	12.150338	-57.200745	235.43	0.220	-1.300	-0.090	235.42	-2.70	0.50	 	 	 	 	 	 	 	 	 	 	 	 	 	 	 	 	 	 	1581551464	7.51	13.91
12/02/2020 23:51:05	120220	12022020	235105	235.07	12.150323	-57.200775	235.08	0.230	-1.140	0.750	235.07	-2.40	1.50	 	 	 	 	 	 	 	 	 	 	 	 	 	 	 	 	 	 	1581551465	7.45	13.80
12/02/2020 23:51:06	120220	12022020	235106	234.52	12.150312	-57.200807	234.53	0.140	-0.570	1.640	234.52	-1.70	2.30	 	 	 	 	 	 	 	 	 	 	 	 	 	 	 	 	 	 	1581551466	7.22	13.37
12/02/2020 23:51:07	120220	12022020	235107	234.13	12.150298	-57.200838	234.07	-0.060	-0.010	2.220	234.05	-1.30	2.70	 	 	 	 	 	 	 	 	 	 	 	 	 	 	 	 	 	 	1581551467	7.01	12.98
12/02/2020 23:51:08	120220	12022020	235108	233.86	12.150285	-57.200870	233.90	-0.250	0.260	2.290	233.86	-1.10	2.60	 	 	 	 	 	 	 	 	 	 	 	 	 	 	 	 	 	 	1581551468	7.13	13.20
12/02/2020 23:51:09	120220	12022020	235109	234.05	12.150268	-57.200902	234.09	-0.270	0.280	1.820	234.05	-1.10	2.00	 	 	 	 	 	 	 	 	 	 	 	 	 	 	 	 	 	 	1581551469	7.41	13.72
12/02/2020 23:51:10	120220	12022020	235110	234.52	12.150250	-57.200932	234.55	-0.120	0.180	1.020	234.52	-1.30	1.20	 	 	 	 	 	 	 	 	 	 	 	 	 	 	 	 	 	 	1581551470	7.54	13.96
12/02/2020 23:51:11	120220	12022020	235111	235.03	12.150230	-57.200960	235.04	0.050	-0.050	0.330	235.03	-1.50	0.60	 	 	 	 	 	 	 	 	 	 	 	 	 	 	 	 	 	 	1581551471	7.51	13.91
12/02/2020 23:51:12	120220	12022020	235112	235.35	12.150210	-57.200990	235.35	0.120	-0.400	-0.060	235.35	-1.90	0.30	 	 	 	 	 	 	 	 	 	 	 	 	 	 	 	 	 	 	1581551472	7.47	13.83
12/02/2020 23:51:13	120220	12022020	235113	235.42	12.150192	-57.201020	235.43	0.110	-0.760	-0.180	235.42	-2.20	0.30	 	 	 	 	 	 	 	 	 	 	 	 	 	 	 	 	 	 	1581551473	7.49	13.87
12/02/2020 23:51:14	120220	12022020	235114	235.33	12.150173	-57.201050	235.34	0.090	-0.860	0.040	235.33	-2.20	0.60	 	 	 	 	 	 	 	 	 	 	 	 	 	 	 	 	 	 	1581551474	7.52	13.93
12/02/2020 23:51:15	120220	12022020	235115	235.16	12.150158	-57.201080	235.18	0.020	-0.480	0.500	235.16	-1.70	1.10	 	 	 	 	 	 	 	 	 	 	 	 	 	 	 	 	 	 	1581551475	7.42	13.74
12/02/2020 23:51:16	120220	12022020	235116	235.01	12.150145	-57.201108	235.03	-0.130	0.160	1.010	235.01	-1.00	1.50	 	 	 	 	 	 	 	 	 	 	 	 	 	 	 	 	 	 	1581551476	7.05	13.06
12/02/2020 23:51:17	120220	12022020	235117	234.91	12.150132	-57.201138	234.93	-0.250	0.590	1.340	234.91	-0.80	1.80	 	 	 	 	 	 	 	 	 	 	 	 	 	 	 	 	 	 	1581551477	6.78	12.56
12/02/2020 23:51:18	120220	12022020	235118	234.86	12.150117	-57.201168	234.88	-0.180	0.550	1.410	234.86	-0.90	1.80	 	 	 	 	 	 	 	 	 	 	 	 	 	 	 	 	 	 	1581551478	6.92	12.82
12/02/2020 23:51:19	120220	12022020	235119	234.89	12.150102	-57.201200	234.92	0.090	0.130	1.250	234.90	-1.50	1.60	 	 	 	 	 	 	 	 	 	 	 	 	 	 	 	 	 	 	1581551479	7.26	13.45
12/02/2020 23:51:20	120220	12022020	235120	234.92	12.150083	-57.201232	234.93	0.360	-0.550	0.990	234.92	-2.20	1.30	 	 	 	 	 	 	 	 	 	 	 	 	 	 	 	 	 	 	1581551480	7.48	13.85
12/02/2020 23:51:21	120220	12022020	235121	234.80	12.150065	-57.201263	234.76	0.460	-1.290	0.820	234.76	-2.90	1.20	 	 	 	 	 	 	 	 	 	 	 	 	 	 	 	 	 	 	1581551481	7.60	14.08
12/02/2020 23:51:22	120220	12022020	235122	234.46	12.150048	-57.201293	234.45	0.380	-1.690	0.800	234.46	-3.00	1.20	 	 	 	 	 	 	 	 	 	 	 	 	 	 	 	 	 	 	1581551482	7.70	14.26
12/02/2020 23:51:23	120220	12022020	235123	234.24	12.150032	-57.201323	234.24	0.180	-1.330	0.780	234.24	-2.40	1.20	 	 	 	 	 	 	 	 	 	 	 	 	 	 	 	 	 	 	1581551483	7.63	14.13
12/02/2020 23:51:24	120220	12022020	235124	234.25	12.150015	-57.201352	234.25	-0.100	-0.400	0.680	234.25	-1.50	1.00	 	 	 	 	 	 	 	 	 	 	 	 	 	 	 	 	 	 	1581551484	7.18	13.30
12/02/2020 23:51:25	120220	12022020	235125	234.42	12.150000	-57.201380	234.43	-0.400	0.430	0.610	234.42	-0.80	1.00	 	 	 	 	 	 	 	 	 	 	 	 	 	 	 	 	 	 	1581551485	6.72	12.45
12/02/2020 23:51:26	120220	12022020	235126	234.59	12.149983	-57.201410	234.59	-0.640	0.700	0.730	234.59	-0.70	1.20	 	 	 	 	 	 	 	 	 	 	 	 	 	 	 	 	 	 	1581551486	6.84	12.67
12/02/2020 23:51:27	120220	12022020	235127	234.70	12.149967	-57.201443	234.69	-0.680	0.560	0.940	234.70	-0.90	1.40	 	 	 	 	 	 	 	 	 	 	 	 	 	 	 	 	 	 	1581551487	7.37	13.65
12/02/2020 23:51:28	120220	12022020	235128	234.78	12.149950	-57.201475	234.77	-0.480	0.400	0.960	234.78	-1.00	1.30	 	 	 	 	 	 	 	 	 	 	 	 	 	 	 	 	 	 	1581551488	7.78	14.41
12/02/2020 23:51:29	120220	12022020	235129	234.79	12.149933	-57.201503	234.78	-0.100	0.380	0.880	234.79	-1.00	1.20	 	 	 	 	 	 	 	 	 	 	 	 	 	 	 	 	 	 	1581551489	7.63	14.13
12/02/2020 23:51:30	120220	12022020	235130	234.66	12.149915	-57.201532	234.64	0.310	0.290	0.830	234.66	-1.20	1.20	 	 	 	 	 	 	 	 	 	 	 	 	 	 	 	 	 	 	1581551490	7.20	13.33
12/02/2020 23:51:31	120220	12022020	235131	234.56	12.149898	-57.201558	234.54	0.610	-0.080	0.820	234.56	-1.70	1.30	 	 	 	 	 	 	 	 	 	 	 	 	 	 	 	 	 	 	1581551491	6.93	12.83
12/02/2020 23:51:32	120220	12022020	235132	234.49	12.149882	-57.201588	234.49	0.680	-0.770	1.000	234.49	-2.40	1.50	 	 	 	 	 	 	 	 	 	 	 	 	 	 	 	 	 	 	1581551492	6.99	12.95
12/02/2020 23:51:33	120220	12022020	235133	234.28	12.149867	-57.201622	234.20	0.570	-1.590	1.460	234.20	-3.20	2.00	 	 	 	 	 	 	 	 	 	 	 	 	 	 	 	 	 	 	1581551493	7.27	13.46
12/02/2020 23:51:34	120220	12022020	235134	233.68	12.149852	-57.201655	233.68	0.390	-2.020	1.970	233.68	-3.40	2.50	 	 	 	 	 	 	 	 	 	 	 	 	 	 	 	 	 	 	1581551494	7.66	14.19
12/02/2020 23:51:35	120220	12022020	235135	233.29	12.149838	-57.201687	233.31	0.150	-1.580	2.150	233.29	-2.70	2.50	 	 	 	 	 	 	 	 	 	 	 	 	 	 	 	 	 	 	1581551495	7.78	14.41
12/02/2020 23:51:36	120220	12022020	235136	233.29	12.149823	-57.201715	233.31	-0.150	-0.540	1.830	233.29	-1.60	2.00	 	 	 	 	 	 	 	 	 	 	 	 	 	 	 	 	 	 	1581551496	7.28	13.48
12/02/2020 23:51:37	120220	12022020	235137	233.65	12.149805	-57.201742	233.65	-0.490	0.390	1.240	233.65	-0.80	1.50	 	 	 	 	 	 	 	 	 	 	 	 	 	 	 	 	 	 	1581551497	6.74	12.48
12/02/2020 23:51:38	120220	12022020	235138	234.06	12.149787	-57.201770	234.06	-0.730	0.770	0.830	234.06	-0.60	1.20	 	 	 	 	 	 	 	 	 	 	 	 	 	 	 	 	 	 	1581551498	6.83	12.65
12/02/2020 23:51:39	120220	12022020	235139	234.26	12.149767	-57.201802	234.27	-0.700	0.730	0.760	234.26	-0.70	1.20	 	 	 	 	 	 	 	 	 	 	 	 	 	 	 	 	 	 	1581551499	7.36	13.63
12/02/2020 23:51:40	120220	12022020	235140	234.28	12.149750	-57.201833	234.29	-0.430	0.660	0.840	234.28	-0.70	1.20	 	 	 	 	 	 	 	 	 	 	 	 	 	 	 	 	 	 	1581551500	7.76	14.37
12/02/2020 23:51:41	120220	12022020	235141	234.32	12.149733	-57.201862	234.33	-0.100	0.670	0.770	234.32	-0.80	1.10	 	 	 	 	 	 	 	 	 	 	 	 	 	 	 	 	 	 	1581551501	7.63	14.13
12/02/2020 23:51:42	120220	12022020	235142	234.44	12.149717	-57.201890	234.44	0.150	0.400	0.650	234.44	-1.20	1.00	 	 	 	 	 	 	 	 	 	 	 	 	 	 	 	 	 	 	1581551502	7.15	13.24
12/02/2020 23:51:43	120220	12022020	235143	234.55	12.149698	-57.201920	234.55	0.370	-0.310	0.640	234.55	-2.00	1.10	 	 	 	 	 	 	 	 	 	 	 	 	 	 	 	 	 	 	1581551503	7.01	12.98
12/02/2020 23:51:44	120220	12022020	235144	234.50	12.149682	-57.201950	234.50	0.640	-1.090	0.750	234.50	-2.60	1.20	 	 	 	 	 	 	 	 	 	 	 	 	 	 	 	 	 	 	1581551504	7.25	13.43
12/02/2020 23:51:45	120220	12022020	235145	234.23	12.149665	-57.201980	234.23	0.790	-1.460	0.970	234.23	-2.90	1.50	 	 	 	 	 	 	 	 	 	 	 	 	 	 	 	 	 	 	1581551505	7.42	13.74
12/02/2020 23:51:46	120220	12022020	235146	233.81	12.149648	-57.202008	233.82	0.650	-1.390	1.270	233.81	-2.70	1.80	 	 	 	 	 	 	 	 	 	 	 	 	 	 	 	 	 	 	1581551506	7.20	13.33
12/02/2020 23:51:47	120220	12022020	235147	233.50	12.149633	-57.202038	233.52	0.180	-0.980	1.460	233.50	-2.20	1.90	 	 	 	 	 	 	 	 	 	 	 	 	 	 	 	 	 	 	1581551507	7.02	13.00
12/02/2020 23:51:48	120220	12022020	235148	233.49	12.149620	-57.202068	233.50	-0.400	-0.390	1.440	233.49	-1.60	1.80	 	 	 	 	 	 	 	 	 	 	 	 	 	 	 	 	 	 	1581551508	7.00	12.96
12/02/2020 23:51:49	120220	12022020	235149	233.66	12.149605	-57.202098	233.66	-0.710	0.090	1.260	233.66	-1.20	1.60	 	 	 	 	 	 	 	 	 	 	 	 	 	 	 	 	 	 	1581551509	7.01	12.98
12/02/2020 23:51:50	120220	12022020	235150	233.86	12.149587	-57.202128	233.87	-0.600	0.210	1.030	233.86	-1.20	1.40	 	 	 	 	 	 	 	 	 	 	 	 	 	 	 	 	 	 	1581551510	7.18	13.30
12/02/2020 23:51:51	120220	12022020	235151	234.05	12.149567	-57.202160	234.07	-0.320	0.050	0.800	234.05	-1.40	1.10	 	 	 	 	 	 	 	 	 	 	 	 	 	 	 	 	 	 	1581551511	7.52	13.93
12/02/2020 23:51:52	120220	12022020	235152	234.21	12.149548	-57.202192	234.21	-0.180	-0.130	0.670	234.21	-1.50	1.10	 	 	 	 	 	 	 	 	 	 	 	 	 	 	 	 	 	 	1581551512	7.75	14.35
12/02/2020 23:51:53	120220	12022020	235153	234.24	12.149532	-57.202222	234.24	-0.210	-0.140	0.670	234.24	-1.50	1.10	 	 	 	 	 	 	 	 	 	 	 	 	 	 	 	 	 	 	1581551513	7.72	14.30
12/02/2020 23:51:54	120220	12022020	235154	234.15	12.149517	-57.202252	234.14	-0.190	0.060	0.770	234.15	-1.30	1.20	 	 	 	 	 	 	 	 	 	 	 	 	 	 	 	 	 	 	1581551514	7.48	13.85
12/02/2020 23:51:55	120220	12022020	235155	233.95	12.149502	-57.202282	233.96	-0.000	0.260	0.970	233.95	-1.10	1.40	 	 	 	 	 	 	 	 	 	 	 	 	 	 	 	 	 	 	1581551515	7.15	13.24
12/02/2020 23:51:56	120220	12022020	235156	233.80	12.149485	-57.202310	233.81	0.270	0.260	1.200	233.80	-1.20	1.70	 	 	 	 	 	 	 	 	 	 	 	 	 	 	 	 	 	 	1581551516	7.02	13.00
12/02/2020 23:51:57	120220	12022020	235157	233.68	12.149470	-57.202340	233.68	0.480	0.090	1.350	233.68	-1.40	1.80	 	 	 	 	 	 	 	 	 	 	 	 	 	 	 	 	 	 	1581551517	7.11	13.17
12/02/2020 23:51:58	120220	12022020	235158	233.58	12.149453	-57.202370	233.57	0.540	-0.010	1.310	233.58	-1.40	1.70	 	 	 	 	 	 	 	 	 	 	 	 	 	 	 	 	 	 	1581551518	7.20	13.33
12/02/2020 23:51:59	120220	12022020	235159	233.55	12.149437	-57.202397	233.55	0.490	-0.120	1.100	233.55	-1.60	1.40	 	 	 	 	 	 	 	 	 	 	 	 	 	 	 	 	 	 	1581551519	7.03	13.02
12/02/2020 23:52:00	120220	12022020	235200	233.64	12.149418	-57.202425	233.64	0.410	-0.570	0.790	233.64	-2.20	1.10	 	 	 	 	 	 	 	 	 	 	 	 	 	 	 	 	 	 	1581551520	6.81	12.61
12/02/2020 23:52:01	120220	12022020	235201	233.69	12.149398	-57.202453	233.69	0.320	-1.380	0.650	233.69	-3.10	1.10	1015.70	26.60	28.70	21.60	21.80	-1.0	74.0	66.0	403.0	25.7	206.00	5.20	69.00	8.70	17	10900.0	27.4	27.4	1581551521	7.07	13.09
12/02/2020 23:52:02	120220	12022020	235202	233.54	12.149380	-57.202487	233.54	0.100	-2.110	0.940	233.54	-3.60	1.50	 	 	 	 	 	 	 	 	 	 	 	 	 	 	 	 	 	 	1581551522	7.58	14.04
12/02/2020 23:52:03	120220	12022020	235203	233.20	12.149363	-57.202520	233.22	-0.250	-2.250	1.540	233.20	-3.50	2.20	 	 	 	 	 	 	 	 	 	 	 	 	 	 	 	 	 	 	1581551523	7.95	14.72
12/02/2020 23:52:04	120220	12022020	235204	232.76	12.149350	-57.202555	232.80	-0.630	-1.480	2.230	232.76	-2.40	2.80	 	 	 	 	 	 	 	 	 	 	 	 	 	 	 	 	 	 	1581551524	7.96	14.74
12/02/2020 23:52:05	120220	12022020	235205	232.48	12.149338	-57.202587	232.51	-0.870	-0.010	2.620	232.48	-0.90	3.00	 	 	 	 	 	 	 	 	 	 	 	 	 	 	 	 	 	 	1581551525	7.66	14.19
12/02/2020 23:52:06	120220	12022020	235206	232.52	12.149325	-57.202615	232.56	-0.850	1.450	2.510	232.52	0.40	2.80	 	 	 	 	 	 	 	 	 	 	 	 	 	 	 	 	 	 	1581551526	7.16	13.26
12/02/2020 23:52:07	120220	12022020	235207	232.75	12.149308	-57.202643	232.76	-0.520	2.080	1.980	232.75	0.60	2.20	 	 	 	 	 	 	 	 	 	 	 	 	 	 	 	 	 	 	1581551527	6.82	12.63
12/02/2020 23:52:08	120220	12022020	235208	233.01	12.149287	-57.202673	233.01	0.000	1.700	1.250	233.01	0.10	1.40	 	 	 	 	 	 	 	 	 	 	 	 	 	 	 	 	 	 	1581551528	7.17	13.28
12/02/2020 23:52:09	120220	12022020	235209	233.30	12.149263	-57.202702	233.29	0.490	0.930	0.580	233.30	-0.70	0.80	 	 	 	 	 	 	 	 	 	 	 	 	 	 	 	 	 	 	1581551529	7.81	14.46
12/02/2020 23:52:10	120220	12022020	235210	233.65	12.149242	-57.202730	233.64	0.780	0.220	0.090	233.65	-1.40	0.40	 	 	 	 	 	 	 	 	 	 	 	 	 	 	 	 	 	 	1581551530	7.84	14.52
12/02/2020 23:52:11	120220	12022020	235211	233.91	12.149225	-57.202757	233.89	0.820	-0.500	0.060	233.91	-2.20	0.60	 	 	 	 	 	 	 	 	 	 	 	 	 	 	 	 	 	 	1581551531	7.29	13.50
12/02/2020 23:52:12	120220	12022020	235212	233.89	12.149208	-57.202787	233.88	0.700	-1.390	0.510	233.89	-3.10	1.10	 	 	 	 	 	 	 	 	 	 	 	 	 	 	 	 	 	 	1581551532	6.91	12.80
12/02/2020 23:52:13	120220	12022020	235213	233.61	12.149193	-57.202818	233.62	0.500	-2.240	1.140	233.61	-3.80	1.70	 	 	 	 	 	 	 	 	 	 	 	 	 	 	 	 	 	 	1581551533	7.14	13.22
12/02/2020 23:52:14	120220	12022020	235214	233.27	12.149178	-57.202850	233.30	0.230	-2.570	1.610	233.27	-3.90	2.10	 	 	 	 	 	 	 	 	 	 	 	 	 	 	 	 	 	 	1581551534	7.54	13.96
12/02/2020 23:52:15	120220	12022020	235215	233.11	12.149163	-57.202882	233.13	-0.090	-2.170	1.790	233.11	-3.30	2.20	 	 	 	 	 	 	 	 	 	 	 	 	 	 	 	 	 	 	1581551535	7.56	14.00
12/02/2020 23:52:16	120220	12022020	235216	233.22	12.149147	-57.202912	233.24	-0.420	-1.150	1.740	233.22	-2.20	2.10	 	 	 	 	 	 	 	 	 	 	 	 	 	 	 	 	 	 	1581551536	7.36	13.63
12/02/2020 23:52:17	120220	12022020	235217	233.41	12.149132	-57.202940	233.41	-0.720	0.030	1.630	233.41	-1.00	2.00	 	 	 	 	 	 	 	 	 	 	 	 	 	 	 	 	 	 	1581551537	7.14	13.22
12/02/2020 23:52:18	120220	12022020	235218	233.40	12.149113	-57.202972	233.39	-0.870	0.930	1.650	233.40	-0.30	2.10	 	 	 	 	 	 	 	 	 	 	 	 	 	 	 	 	 	 	1581551538	7.13	13.20
12/02/2020 23:52:19	120220	12022020	235219	233.22	12.149095	-57.203003	233.21	-0.810	1.360	1.640	233.22	0.00	2.00	 	 	 	 	 	 	 	 	 	 	 	 	 	 	 	 	 	 	1581551539	7.44	13.78
12/02/2020 23:52:20	120220	12022020	235220	233.03	12.149077	-57.203035	233.03	-0.500	1.500	1.420	233.03	0.10	1.70	 	 	 	 	 	 	 	 	 	 	 	 	 	 	 	 	 	 	1581551540	7.80	14.45
12/02/2020 23:52:21	120220	12022020	235221	233.00	12.149058	-57.203065	232.99	-0.060	1.490	0.940	233.00	0.00	1.20	 	 	 	 	 	 	 	 	 	 	 	 	 	 	 	 	 	 	1581551541	7.82	14.48
12/02/2020 23:52:22	120220	12022020	235222	233.18	12.149038	-57.203092	233.17	0.380	1.070	0.350	233.18	-0.60	0.60	 	 	 	 	 	 	 	 	 	 	 	 	 	 	 	 	 	 	1581551542	7.45	13.80
12/02/2020 23:52:23	120220	12022020	235223	233.37	12.149018	-57.203122	233.39	0.710	0.120	-0.090	233.41	-1.70	0.30	 	 	 	 	 	 	 	 	 	 	 	 	 	 	 	 	 	 	1581551543	7.25	13.43
12/02/2020 23:52:24	120220	12022020	235224	233.60	12.149000	-57.203152	233.60	0.870	-1.000	-0.170	233.60	-2.70	0.30	 	 	 	 	 	 	 	 	 	 	 	 	 	 	 	 	 	 	1581551544	7.40	13.70
12/02/2020 23:52:25	120220	12022020	235225	233.73	12.148983	-57.203180	233.76	0.840	-1.750	-0.000	233.76	-3.30	0.50	 	 	 	 	 	 	 	 	 	 	 	 	 	 	 	 	 	 	1581551545	7.47	13.83
12/02/2020 23:52:26	120220	12022020	235226	233.91	12.148968	-57.203210	233.93	0.630	-1.970	0.370	233.91	-3.40	0.90	 	 	 	 	 	 	 	 	 	 	 	 	 	 	 	 	 	 	1581551546	7.21	13.35
12/02/2020 23:52:27	120220	12022020	235227	233.92	12.148953	-57.203238	233.94	0.310	-1.930	0.960	233.92	-3.30	1.60	 	 	 	 	 	 	 	 	 	 	 	 	 	 	 	 	 	 	1581551547	6.92	12.82
12/02/2020 23:52:28	120220	12022020	235228	233.58	12.148938	-57.203272	233.60	-0.010	-1.770	1.670	233.58	-3.00	2.30	 	 	 	 	 	 	 	 	 	 	 	 	 	 	 	 	 	 	1581551548	7.04	13.04
12/02/2020 23:52:29	120220	12022020	235229	232.95	12.148922	-57.203303	232.99	-0.350	-1.340	2.370	232.95	-2.50	3.00	 	 	 	 	 	 	 	 	 	 	 	 	 	 	 	 	 	 	1581551549	7.49	13.87
12/02/2020 23:52:30	120220	12022020	235230	232.37	12.148907	-57.203337	232.41	-0.730	-0.510	2.810	232.37	-1.60	3.30	 	 	 	 	 	 	 	 	 	 	 	 	 	 	 	 	 	 	1581551550	7.81	14.46
12/02/2020 23:52:31	120220	12022020	235231	232.06	12.148890	-57.203368	232.10	-1.080	0.510	2.810	232.06	-0.60	3.10	 	 	 	 	 	 	 	 	 	 	 	 	 	 	 	 	 	 	1581551551	7.78	14.41
12/02/2020 23:52:32	120220	12022020	235232	232.02	12.148873	-57.203400	232.05	-1.180	1.350	2.440	232.02	0.10	2.70	 	 	 	 	 	 	 	 	 	 	 	 	 	 	 	 	 	 	1581551552	7.60	14.08
12/02/2020 23:52:33	120220	12022020	235233	232.19	12.148855	-57.203432	232.21	-0.850	1.780	1.880	232.19	0.40	2.10	 	 	 	 	 	 	 	 	 	 	 	 	 	 	 	 	 	 	1581551553	7.54	13.96
12/02/2020 23:52:34	120220	12022020	235234	232.59	12.148835	-57.203460	232.59	-0.160	1.780	1.160	232.59	0.30	1.30	 	 	 	 	 	 	 	 	 	 	 	 	 	 	 	 	 	 	1581551554	7.59	14.06
12/02/2020 23:52:35	120220	12022020	235235	233.15	12.148815	-57.203488	233.13	0.610	1.380	0.420	233.15	-0.30	0.60	 	 	 	 	 	 	 	 	 	 	 	 	 	 	 	 	 	 	1581551555	7.48	13.85
12/02/2020 23:52:36	120220	12022020	235236	233.63	12.148795	-57.203515	233.60	1.180	0.440	-0.080	233.63	-1.40	0.20	 	 	 	 	 	 	 	 	 	 	 	 	 	 	 	 	 	 	1581551556	7.27	13.46
12/02/2020 23:52:37	120220	12022020	235237	233.83	12.148775	-57.203543	233.81	1.380	-0.920	-0.220	233.83	-2.80	0.20	 	 	 	 	 	 	 	 	 	 	 	 	 	 	 	 	 	 	1581551557	7.28	13.48
12/02/2020 23:52:38	120220	12022020	235238	233.80	12.148755	-57.203573	233.78	1.200	-2.120	0.000	233.80	-3.80	0.60	 	 	 	 	 	 	 	 	 	 	 	 	 	 	 	 	 	 	1581551558	7.50	13.89
12/02/2020 23:52:39	120220	12022020	235239	233.52	12.148738	-57.203603	233.52	0.690	-2.730	0.610	233.52	-4.20	1.30	 	 	 	 	 	 	 	 	 	 	 	 	 	 	 	 	 	 	1581551559	7.51	13.91
12/02/2020 23:52:40	120220	12022020	235240	233.09	12.148725	-57.203635	233.11	0.030	-2.680	1.450	233.09	-3.90	2.10	 	 	 	 	 	 	 	 	 	 	 	 	 	 	 	 	 	 	1581551560	7.33	13.58
12/02/2020 23:52:41	120220	12022020	235241	232.74	12.148713	-57.203668	232.77	-0.560	-1.980	2.240	232.74	-3.00	2.80	 	 	 	 	 	 	 	 	 	 	 	 	 	 	 	 	 	 	1581551561	7.36	13.63
12/02/2020 23:52:42	120220	12022020	235242	232.58	12.148700	-57.203702	232.61	-0.930	-0.810	2.710	232.58	-1.80	3.20	 	 	 	 	 	 	 	 	 	 	 	 	 	 	 	 	 	 	1581551562	7.47	13.83
12/02/2020 23:52:43	120220	12022020	235243	232.45	12.148687	-57.203733	232.50	-0.980	0.430	2.950	232.45	-0.60	3.40	 	 	 	 	 	 	 	 	 	 	 	 	 	 	 	 	 	 	1581551563	7.41	13.72
12/02/2020 23:52:44	120220	12022020	235244	232.25	12.148670	-57.203765	232.31	-0.760	1.320	3.000	232.25	0.10	3.30	 	 	 	 	 	 	 	 	 	 	 	 	 	 	 	 	 	 	1581551564	7.41	13.72
12/02/2020 23:52:45	120220	12022020	235245	232.26	12.148650	-57.203795	232.31	-0.440	1.710	2.470	232.26	0.40	2.60	 	 	 	 	 	 	 	 	 	 	 	 	 	 	 	 	 	 	1581551565	7.62	14.11
12/02/2020 23:52:46	120220	12022020	235246	232.63	12.148627	-57.203823	232.66	-0.170	1.650	1.400	232.63	0.10	1.40	 	 	 	 	 	 	 	 	 	 	 	 	 	 	 	 	 	 	1581551566	7.76	14.37
12/02/2020 23:52:47	120220	12022020	235247	233.15	12.148603	-57.203850	233.15	0.080	1.170	0.340	233.15	-0.50	0.50	 	 	 	 	 	 	 	 	 	 	 	 	 	 	 	 	 	 	1581551567	7.69	14.24
12/02/2020 23:52:48	120220	12022020	235248	233.61	12.148582	-57.203878	233.62	0.410	0.260	-0.370	233.61	-1.50	-0.10	 	 	 	 	 	 	 	 	 	 	 	 	 	 	 	 	 	 	1581551568	7.56	14.00
12/02/2020 23:52:49	120220	12022020	235249	233.88	12.148562	-57.203908	233.91	0.790	-1.000	-0.580	233.92	-2.80	-0.10	 	 	 	 	 	 	 	 	 	 	 	 	 	 	 	 	 	 	1581551569	7.53	13.95
12/02/2020 23:52:50	120220	12022020	235250	234.01	12.148543	-57.203940	234.00	0.970	-2.100	-0.140	234.01	-3.70	0.60	 	 	 	 	 	 	 	 	 	 	 	 	 	 	 	 	 	 	1581551570	7.74	14.33
12/02/2020 23:52:51	120220	12022020	235251	233.75	12.148530	-57.203973	233.77	0.720	-2.480	0.970	233.75	-3.80	1.80	 	 	 	 	 	 	 	 	 	 	 	 	 	 	 	 	 	 	1581551571	7.77	14.39
12/02/2020 23:52:52	120220	12022020	235252	232.98	12.148520	-57.204007	233.03	0.150	-2.080	2.480	232.98	-3.20	3.40	 	 	 	 	 	 	 	 	 	 	 	 	 	 	 	 	 	 	1581551572	7.51	13.91
12/02/2020 23:52:53	120220	12022020	235253	231.99	12.148510	-57.204042	232.06	-0.410	-1.140	3.860	231.99	-2.10	4.60	 	 	 	 	 	 	 	 	 	 	 	 	 	 	 	 	 	 	1581551573	7.41	13.72
12/02/2020 23:52:54	120220	12022020	235254	231.38	12.148500	-57.204075	231.48	-0.710	0.060	4.450	231.38	-0.90	4.80	 	 	 	 	 	 	 	 	 	 	 	 	 	 	 	 	 	 	1581551574	7.53	13.95
12/02/2020 23:52:55	120220	12022020	235255	231.49	12.148487	-57.204105	231.59	-0.640	1.150	4.030	231.49	-0.00	4.10	 	 	 	 	 	 	 	 	 	 	 	 	 	 	 	 	 	 	1581551575	7.42	13.74
12/02/2020 23:52:56	120220	12022020	235256	232.06	12.148467	-57.204133	232.13	-0.290	1.540	2.810	232.06	0.10	2.70	 	 	 	 	 	 	 	 	 	 	 	 	 	 	 	 	 	 	1581551576	7.11	13.17
12/02/2020 23:52:57	120220	12022020	235257	232.68	12.148442	-57.204160	232.72	0.190	1.100	1.330	232.68	-0.50	1.30	 	 	 	 	 	 	 	 	 	 	 	 	 	 	 	 	 	 	1581551577	7.28	13.48
12/02/2020 23:52:58	120220	12022020	235258	233.19	12.148415	-57.204187	233.20	0.540	0.390	0.210	233.19	-1.20	0.40	 	 	 	 	 	 	 	 	 	 	 	 	 	 	 	 	 	 	1581551578	7.89	14.61
12/02/2020 23:52:59	120220	12022020	235259	233.49	12.148393	-57.204215	233.49	0.540	-0.260	-0.090	233.49	-1.90	0.40	 	 	 	 	 	 	 	 	 	 	 	 	 	 	 	 	 	 	1581551579	7.96	14.74
12/02/2020 23:53:00	120220	12022020	235300	233.48	12.148377	-57.204245	233.49	0.260	-0.890	0.340	233.48	-2.50	1.00	 	 	 	 	 	 	 	 	 	 	 	 	 	 	 	 	 	 	1581551580	7.48	13.85
12/02/2020 23:53:01	120220	12022020	235301	233.25	12.148363	-57.204277	233.17	0.010	-1.520	1.180	233.16	-3.10	1.90	1015.60	26.30	26.90	21.10	21.10	-1.0	73.0	70.0	404.0	25.7	208.00	7.70	72.00	11.20	17	11508.0	27.4	27.4	1581551581	7.31	13.54
12/02/2020 23:53:02	120220	12022020	235302	232.61	12.148350	-57.204312	232.63	-0.030	-1.910	2.060	232.61	-3.30	2.70	 	 	 	 	 	 	 	 	 	 	 	 	 	 	 	 	 	 	1581551582	7.56	14.00
12/02/2020 23:53:03	120220	12022020	235303	232.06	12.148337	-57.204343	232.10	0.050	-1.720	2.610	232.06	-2.90	3.10	 	 	 	 	 	 	 	 	 	 	 	 	 	 	 	 	 	 	1581551583	7.73	14.32
12/02/2020 23:53:04	120220	12022020	235304	231.69	12.148322	-57.204375	231.73	0.040	-0.950	2.750	231.69	-2.00	3.10	 	 	 	 	 	 	 	 	 	 	 	 	 	 	 	 	 	 	1581551584	7.50	13.89
12/02/2020 23:53:05	120220	12022020	235305	231.53	12.148305	-57.204403	231.56	-0.140	0.050	2.580	231.53	-1.00	2.90	 	 	 	 	 	 	 	 	 	 	 	 	 	 	 	 	 	 	1581551585	7.17	13.28
12/02/2020 23:53:06	120220	12022020	235306	231.63	12.148287	-57.204430	231.65	-0.390	0.920	2.080	231.63	-0.30	2.30	 	 	 	 	 	 	 	 	 	 	 	 	 	 	 	 	 	 	1581551586	7.03	13.02
12/02/2020 23:53:07	120220	12022020	235307	232.01	12.148267	-57.204458	232.01	-0.570	1.430	1.290	232.01	0.10	1.50	 	 	 	 	 	 	 	 	 	 	 	 	 	 	 	 	 	 	1581551587	7.11	13.17
12/02/2020 23:53:08	120220	12022020	235308	232.42	12.148247	-57.204487	232.40	-0.460	1.310	0.610	232.42	-0.30	0.90	 	 	 	 	 	 	 	 	 	 	 	 	 	 	 	 	 	 	1581551588	7.18	13.30
12/02/2020 23:53:09	120220	12022020	235309	232.63	12.148225	-57.204517	232.60	-0.070	0.480	0.350	232.63	-1.30	0.80	 	 	 	 	 	 	 	 	 	 	 	 	 	 	 	 	 	 	1581551589	7.39	13.69
12/02/2020 23:53:10	120220	12022020	235310	232.63	12.148207	-57.204548	232.60	0.350	-0.570	0.440	232.63	-2.20	0.90	 	 	 	 	 	 	 	 	 	 	 	 	 	 	 	 	 	 	1581551590	7.80	14.45
12/02/2020 23:53:11	120220	12022020	235311	232.55	12.148188	-57.204578	232.52	0.540	-1.150	0.640	232.55	-2.60	1.10	 	 	 	 	 	 	 	 	 	 	 	 	 	 	 	 	 	 	1581551591	7.91	14.65
12/02/2020 23:53:12	120220	12022020	235312	232.53	12.148173	-57.204607	232.50	0.500	-1.100	0.770	232.53	-2.40	1.20	 	 	 	 	 	 	 	 	 	 	 	 	 	 	 	 	 	 	1581551592	7.45	13.80
12/02/2020 23:53:13	120220	12022020	235313	232.54	12.148158	-57.204633	232.52	0.390	-0.830	0.850	232.54	-2.10	1.30	 	 	 	 	 	 	 	 	 	 	 	 	 	 	 	 	 	 	1581551593	6.83	12.65
12/02/2020 23:53:14	120220	12022020	235314	232.50	12.148142	-57.204663	232.47	0.290	-0.750	0.990	232.50	-2.10	1.50	 	 	 	 	 	 	 	 	 	 	 	 	 	 	 	 	 	 	1581551594	6.62	12.26
12/02/2020 23:53:15	120220	12022020	235315	232.39	12.148123	-57.204693	232.32	0.120	-0.830	1.250	232.35	-2.20	1.80	 	 	 	 	 	 	 	 	 	 	 	 	 	 	 	 	 	 	1581551595	7.04	13.04
12/02/2020 23:53:16	120220	12022020	235316	232.11	12.148108	-57.204725	232.09	-0.140	-0.780	1.640	232.11	-2.10	2.20	 	 	 	 	 	 	 	 	 	 	 	 	 	 	 	 	 	 	1581551596	7.51	13.91
12/02/2020 23:53:17	120220	12022020	235317	231.70	12.148092	-57.204758	231.68	-0.390	-0.480	2.090	231.70	-1.70	2.60	 	 	 	 	 	 	 	 	 	 	 	 	 	 	 	 	 	 	1581551597	7.68	14.22
12/02/2020 23:53:18	120220	12022020	235318	231.26	12.148077	-57.204790	231.26	-0.510	-0.050	2.300	231.26	-1.30	2.70	 	 	 	 	 	 	 	 	 	 	 	 	 	 	 	 	 	 	1581551598	7.61	14.09
12/02/2020 23:53:19	120220	12022020	235319	231.01	12.148058	-57.204820	231.01	-0.530	0.370	2.120	231.01	-0.90	2.40	 	 	 	 	 	 	 	 	 	 	 	 	 	 	 	 	 	 	1581551599	7.51	13.91
12/02/2020 23:53:20	120220	12022020	235320	231.07	12.148040	-57.204848	231.06	-0.490	0.620	1.700	231.07	-0.70	1.90	 	 	 	 	 	 	 	 	 	 	 	 	 	 	 	 	 	 	1581551600	7.38	13.67
12/02/2020 23:53:21	120220	12022020	235321	231.46	12.148020	-57.204877	231.45	-0.350	0.680	1.150	231.46	-0.70	1.40	 	 	 	 	 	 	 	 	 	 	 	 	 	 	 	 	 	 	1581551601	7.32	13.56
12/02/2020 23:53:22	120220	12022020	235322	232.11	12.148002	-57.204905	232.08	-0.040	0.610	0.480	232.11	-0.90	0.70	 	 	 	 	 	 	 	 	 	 	 	 	 	 	 	 	 	 	1581551602	7.29	13.50
12/02/2020 23:53:23	120220	12022020	235323	232.66	12.147982	-57.204932	232.62	0.390	0.200	-0.000	232.66	-1.40	0.40	 	 	 	 	 	 	 	 	 	 	 	 	 	 	 	 	 	 	1581551603	7.10	13.15
12/02/2020 23:53:24	120220	12022020	235324	232.87	12.147962	-57.204960	232.83	0.710	-0.530	0.070	232.87	-2.10	0.60	 	 	 	 	 	 	 	 	 	 	 	 	 	 	 	 	 	 	1581551604	7.16	13.26
12/02/2020 23:53:25	120220	12022020	235325	232.71	12.147945	-57.204990	232.66	0.720	-1.170	0.590	232.71	-2.70	1.20	 	 	 	 	 	 	 	 	 	 	 	 	 	 	 	 	 	 	1581551605	7.42	13.74
12/02/2020 23:53:26	120220	12022020	235326	232.20	12.147930	-57.205022	232.17	0.490	-1.430	1.370	232.20	-2.80	2.00	 	 	 	 	 	 	 	 	 	 	 	 	 	 	 	 	 	 	1581551606	7.45	13.80
12/02/2020 23:53:27	120220	12022020	235327	231.59	12.147917	-57.205053	231.59	0.180	-1.260	2.120	231.59	-2.50	2.70	 	 	 	 	 	 	 	 	 	 	 	 	 	 	 	 	 	 	1581551607	7.35	13.61
12/02/2020 23:53:28	120220	12022020	235328	231.16	12.147903	-57.205083	231.17	-0.090	-0.810	2.460	231.16	-2.00	2.90	 	 	 	 	 	 	 	 	 	 	 	 	 	 	 	 	 	 	1581551608	7.24	13.41
12/02/2020 23:53:29	120220	12022020	235329	230.95	12.147885	-57.205113	230.97	-0.300	-0.470	2.370	230.95	-1.80	2.70	 	 	 	 	 	 	 	 	 	 	 	 	 	 	 	 	 	 	1581551609	7.09	13.13
12/02/2020 23:53:30	120220	12022020	235330	230.90	12.147865	-57.205143	230.92	-0.470	-0.360	2.030	230.90	-1.70	2.30	 	 	 	 	 	 	 	 	 	 	 	 	 	 	 	 	 	 	1581551610	7.25	13.43
12/02/2020 23:53:31	120220	12022020	235331	231.03	12.147845	-57.205173	231.04	-0.570	-0.240	1.570	231.03	-1.50	1.80	 	 	 	 	 	 	 	 	 	 	 	 	 	 	 	 	 	 	1581551611	7.62	14.11
12/02/2020 23:53:32	120220	12022020	235332	231.31	12.147825	-57.205202	231.30	-0.600	0.140	1.120	231.31	-1.00	1.40	 	 	 	 	 	 	 	 	 	 	 	 	 	 	 	 	 	 	1581551612	7.74	14.33
12/02/2020 23:53:33	120220	12022020	235333	231.70	12.147807	-57.205230	231.70	-0.540	0.750	0.750	231.70	-0.50	1.10	 	 	 	 	 	 	 	 	 	 	 	 	 	 	 	 	 	 	1581551613	7.48	13.85
12/02/2020 23:53:34	120220	12022020	235334	232.08	12.147790	-57.205258	232.06	-0.300	1.140	0.500	232.08	-0.20	0.90	 	 	 	 	 	 	 	 	 	 	 	 	 	 	 	 	 	 	1581551614	7.06	13.08
12/02/2020 23:53:35	120220	12022020	235335	232.21	12.147773	-57.205287	232.19	0.180	0.940	0.450	232.21	-0.60	0.90	 	 	 	 	 	 	 	 	 	 	 	 	 	 	 	 	 	 	1581551615	6.90	12.78
12/02/2020 23:53:36	120220	12022020	235336	232.06	12.147755	-57.205317	232.04	0.710	0.240	0.590	232.06	-1.40	1.00	 	 	 	 	 	 	 	 	 	 	 	 	 	 	 	 	 	 	1581551616	7.18	13.30
12/02/2020 23:53:37	120220	12022020	235337	231.89	12.147737	-57.205347	231.87	0.950	-0.550	0.610	231.89	-2.20	1.00	 	 	 	 	 	 	 	 	 	 	 	 	 	 	 	 	 	 	1581551617	7.49	13.87
12/02/2020 23:53:38	120220	12022020	235338	231.76	12.147717	-57.205375	231.75	0.780	-1.250	0.600	231.76	-2.80	1.10	 	 	 	 	 	 	 	 	 	 	 	 	 	 	 	 	 	 	1581551618	7.41	13.72
12/02/2020 23:53:39	120220	12022020	235339	231.63	12.147700	-57.205405	231.58	0.380	-1.780	0.780	231.59	-3.20	1.30	 	 	 	 	 	 	 	 	 	 	 	 	 	 	 	 	 	 	1581551619	7.26	13.45
12/02/2020 23:53:40	120220	12022020	235340	231.37	12.147682	-57.205435	231.37	0.020	-1.900	1.110	231.37	-3.20	1.60	 	 	 	 	 	 	 	 	 	 	 	 	 	 	 	 	 	 	1581551620	7.37	13.65
12/02/2020 23:53:41	120220	12022020	235341	231.27	12.147665	-57.205465	231.28	-0.290	-1.360	1.410	231.27	-2.40	1.90	 	 	 	 	 	 	 	 	 	 	 	 	 	 	 	 	 	 	1581551621	7.43	13.76
12/02/2020 23:53:42	120220	12022020	235342	231.36	12.147650	-57.205493	231.37	-0.600	-0.350	1.570	231.36	-1.40	2.00	 	 	 	 	 	 	 	 	 	 	 	 	 	 	 	 	 	 	1581551622	7.20	13.33
12/02/2020 23:53:43	120220	12022020	235343	231.42	12.147635	-57.205523	231.43	-0.830	0.500	1.620	231.42	-0.70	2.00	 	 	 	 	 	 	 	 	 	 	 	 	 	 	 	 	 	 	1581551623	6.92	12.82
12/02/2020 23:53:44	120220	12022020	235344	231.30	12.147617	-57.205553	231.29	-0.810	0.750	1.570	231.30	-0.70	1.90	 	 	 	 	 	 	 	 	 	 	 	 	 	 	 	 	 	 	1581551624	7.04	13.04
12/02/2020 23:53:45	120220	12022020	235345	231.19	12.147597	-57.205585	231.17	-0.530	0.560	1.350	231.19	-0.90	1.60	 	 	 	 	 	 	 	 	 	 	 	 	 	 	 	 	 	 	1581551625	7.59	14.06
12/02/2020 23:53:46	120220	12022020	235346	231.29	12.147575	-57.205615	231.26	-0.140	0.370	0.810	231.29	-1.10	1.00	 	 	 	 	 	 	 	 	 	 	 	 	 	 	 	 	 	 	1581551626	7.92	14.67
12/02/2020 23:53:47	120220	12022020	235347	231.48	12.147555	-57.205642	231.45	0.200	0.100	0.260	231.48	-1.40	0.60	 	 	 	 	 	 	 	 	 	 	 	 	 	 	 	 	 	 	1581551627	7.68	14.22
12/02/2020 23:53:48	120220	12022020	235348	231.56	12.147535	-57.205672	231.53	0.380	-0.360	0.160	231.56	-1.90	0.70	 	 	 	 	 	 	 	 	 	 	 	 	 	 	 	 	 	 	1581551628	7.45	13.80
12/02/2020 23:53:49	120220	12022020	235349	231.48	12.147517	-57.205702	231.45	0.370	-0.680	0.590	231.48	-2.00	1.20	 	 	 	 	 	 	 	 	 	 	 	 	 	 	 	 	 	 	1581551629	7.54	13.96
12/02/2020 23:53:50	120220	12022020	235350	231.29	12.147503	-57.205733	231.27	0.230	-0.460	1.310	231.29	-1.70	1.90	 	 	 	 	 	 	 	 	 	 	 	 	 	 	 	 	 	 	1581551630	7.52	13.93
12/02/2020 23:53:51	120220	12022020	235351	231.05	12.147490	-57.205760	231.05	0.090	0.090	1.860	231.05	-1.10	2.40	 	 	 	 	 	 	 	 	 	 	 	 	 	 	 	 	 	 	1581551631	7.08	13.11
12/02/2020 23:53:52	120220	12022020	235352	230.90	12.147473	-57.205788	230.90	0.070	0.350	1.880	230.90	-1.10	2.20	 	 	 	 	 	 	 	 	 	 	 	 	 	 	 	 	 	 	1581551632	6.65	12.32
12/02/2020 23:53:53	120220	12022020	235353	230.98	12.147455	-57.205817	230.98	0.150	0.020	1.410	230.98	-1.60	1.60	 	 	 	 	 	 	 	 	 	 	 	 	 	 	 	 	 	 	1581551633	6.73	12.46
12/02/2020 23:53:54	120220	12022020	235354	231.14	12.147433	-57.205845	231.14	0.260	-0.740	0.870	231.14	-2.40	1.20	 	 	 	 	 	 	 	 	 	 	 	 	 	 	 	 	 	 	1581551634	7.20	13.33
12/02/2020 23:53:55	120220	12022020	235355	231.21	12.147412	-57.205875	231.20	0.280	-1.530	0.530	231.21	-3.10	0.90	 	 	 	 	 	 	 	 	 	 	 	 	 	 	 	 	 	 	1581551635	7.65	14.17
12/02/2020 23:53:56	120220	12022020	235356	231.20	12.147390	-57.205905	231.19	0.160	-1.920	0.450	231.20	-3.30	0.90	 	 	 	 	 	 	 	 	 	 	 	 	 	 	 	 	 	 	1581551636	7.86	14.56
12/02/2020 23:53:57	120220	12022020	235357	231.14	12.147372	-57.205935	231.14	-0.120	-1.660	0.660	231.14	-2.80	1.20	 	 	 	 	 	 	 	 	 	 	 	 	 	 	 	 	 	 	1581551637	7.79	14.43
12/02/2020 23:53:58	120220	12022020	235358	230.99	12.147355	-57.205965	231.00	-0.520	-0.820	1.120	230.99	-1.80	1.70	 	 	 	 	 	 	 	 	 	 	 	 	 	 	 	 	 	 	1581551638	7.52	13.93
12/02/2020 23:53:59	120220	12022020	235359	230.77	12.147340	-57.205995	230.79	-0.880	0.290	1.640	230.77	-0.80	2.20	 	 	 	 	 	 	 	 	 	 	 	 	 	 	 	 	 	 	1581551639	7.27	13.46
12/02/2020 23:54:00	120220	12022020	235400	230.54	12.147325	-57.206027	230.56	-0.990	1.200	2.040	230.54	0.00	2.50	 	 	 	 	 	 	 	 	 	 	 	 	 	 	 	 	 	 	1581551640	7.19	13.32
12/02/2020 23:54:01	120220	12022020	235401	230.33	12.147308	-57.206058	230.36	-0.700	1.630	2.110	230.33	0.30	2.50	1015.70	26.30	26.60	20.90	20.80	-1.0	72.0	70.0	403.0	25.7	203.00	7.70	67.00	11.30	17	10460.0	27.4	27.4	1581551641	7.31	13.54
12/02/2020 23:54:02	120220	12022020	235402	230.31	12.147290	-57.206087	230.33	-0.090	1.600	1.760	230.31	0.10	2.00	 	 	 	 	 	 	 	 	 	 	 	 	 	 	 	 	 	 	1581551642	7.52	13.93
12/02/2020 23:54:03	120220	12022020	235403	230.51	12.147268	-57.206115	230.59	0.590	1.170	1.060	230.58	-0.50	1.20	 	 	 	 	 	 	 	 	 	 	 	 	 	 	 	 	 	 	1581551643	7.48	13.85
12/02/2020 23:54:04	120220	12022020	235404	230.95	12.147247	-57.206140	230.95	1.060	0.250	0.310	230.95	-1.50	0.50	 	 	 	 	 	 	 	 	 	 	 	 	 	 	 	 	 	 	1581551644	7.31	13.54
12/02/2020 23:54:05	120220	12022020	235405	231.27	12.147223	-57.206167	231.33	1.140	-0.990	-0.120	231.35	-2.80	0.30	 	 	 	 	 	 	 	 	 	 	 	 	 	 	 	 	 	 	1581551645	7.30	13.52
12/02/2020 23:54:06	120220	12022020	235406	231.65	12.147205	-57.206197	231.64	0.900	-2.160	-0.010	231.65	-3.80	0.50	 	 	 	 	 	 	 	 	 	 	 	 	 	 	 	 	 	 	1581551646	7.43	13.76
12/02/2020 23:54:07	120220	12022020	235407	231.67	12.147187	-57.206227	231.67	0.500	-2.790	0.570	231.67	-4.20	1.30	 	 	 	 	 	 	 	 	 	 	 	 	 	 	 	 	 	 	1581551647	7.51	13.91
12/02/2020 23:54:08	120220	12022020	235408	231.36	12.147170	-57.206258	231.38	0.070	-2.680	1.430	231.36	-3.80	2.10	 	 	 	 	 	 	 	 	 	 	 	 	 	 	 	 	 	 	1581551648	7.48	13.85
12/02/2020 23:54:09	120220	12022020	235409	230.92	12.147155	-57.206290	230.96	-0.410	-1.880	2.240	230.92	-2.90	2.90	 	 	 	 	 	 	 	 	 	 	 	 	 	 	 	 	 	 	1581551649	7.40	13.70
12/02/2020 23:54:10	120220	12022020	235410	230.53	12.147140	-57.206320	230.60	-0.930	-0.630	2.760	230.53	-1.60	3.20	 	 	 	 	 	 	 	 	 	 	 	 	 	 	 	 	 	 	1581551650	7.39	13.69
12/02/2020 23:54:11	120220	12022020	235411	230.38	12.147125	-57.206352	230.46	-1.300	0.750	2.830	230.38	-0.20	3.20	 	 	 	 	 	 	 	 	 	 	 	 	 	 	 	 	 	 	1581551651	7.41	13.72
12/02/2020 23:54:12	120220	12022020	235412	230.50	12.147108	-57.206382	230.57	-1.260	1.850	2.480	230.50	0.70	2.70	 	 	 	 	 	 	 	 	 	 	 	 	 	 	 	 	 	 	1581551652	7.41	13.72
12/02/2020 23:54:13	120220	12022020	235413	230.76	12.147088	-57.206412	230.79	-0.720	2.260	1.860	230.76	0.80	2.00	 	 	 	 	 	 	 	 	 	 	 	 	 	 	 	 	 	 	1581551653	7.36	13.63
12/02/2020 23:54:14	120220	12022020	235414	231.10	12.147067	-57.206442	231.13	0.080	1.870	1.150	231.10	0.20	1.30	 	 	 	 	 	 	 	 	 	 	 	 	 	 	 	 	 	 	1581551654	7.53	13.95
12/02/2020 23:54:15	120220	12022020	235415	231.54	12.147043	-57.206470	231.55	0.760	0.920	0.450	231.54	-0.80	0.70	 	 	 	 	 	 	 	 	 	 	 	 	 	 	 	 	 	 	1581551655	7.78	14.41
12/02/2020 23:54:16	120220	12022020	235416	231.97	12.147020	-57.206497	231.97	1.090	-0.180	-0.090	231.97	-1.90	0.20	 	 	 	 	 	 	 	 	 	 	 	 	 	 	 	 	 	 	1581551656	7.80	14.45
12/02/2020 23:54:17	120220	12022020	235417	232.27	12.147000	-57.206523	232.26	1.100	-1.170	-0.300	232.27	-2.90	0.10	 	 	 	 	 	 	 	 	 	 	 	 	 	 	 	 	 	 	1581551657	7.53	13.95
12/02/2020 23:54:18	120220	12022020	235418	232.40	12.146982	-57.206552	232.39	0.900	-2.020	-0.170	232.40	-3.60	0.40	 	 	 	 	 	 	 	 	 	 	 	 	 	 	 	 	 	 	1581551658	7.21	13.35
12/02/2020 23:54:19	120220	12022020	235419	232.40	12.146963	-57.206582	232.39	0.520	-2.510	0.290	232.40	-3.90	0.90	 	 	 	 	 	 	 	 	 	 	 	 	 	 	 	 	 	 	1581551659	7.22	13.37
12/02/2020 23:54:20	120220	12022020	235420	232.25	12.146947	-57.206612	232.26	-0.050	-2.340	1.050	232.25	-3.50	1.80	 	 	 	 	 	 	 	 	 	 	 	 	 	 	 	 	 	 	1581551660	7.33	13.58
12/02/2020 23:54:21	120220	12022020	235421	231.91	12.146935	-57.206643	231.93	-0.610	-1.520	2.030	231.91	-2.50	2.80	 	 	 	 	 	 	 	 	 	 	 	 	 	 	 	 	 	 	1581551661	7.32	13.56
12/02/2020 23:54:22	120220	12022020	235422	231.43	12.146923	-57.206677	231.47	-0.880	-0.360	2.900	231.43	-1.40	3.50	 	 	 	 	 	 	 	 	 	 	 	 	 	 	 	 	 	 	1581551662	7.31	13.54
12/02/2020 23:54:23	120220	12022020	235423	231.20	12.146908	-57.206708	231.27	-0.750	0.770	3.160	231.20	-0.30	3.50	 	 	 	 	 	 	 	 	 	 	 	 	 	 	 	 	 	 	1581551663	7.44	13.78
12/02/2020 23:54:24	120220	12022020	235424	231.39	12.146890	-57.206738	231.44	-0.410	1.450	2.690	231.39	0.10	2.80	 	 	 	 	 	 	 	 	 	 	 	 	 	 	 	 	 	 	1581551664	7.45	13.80
12/02/2020 23:54:25	120220	12022020	235425	231.75	12.146868	-57.206768	231.77	-0.080	1.380	1.790	231.75	-0.20	1.90	 	 	 	 	 	 	 	 	 	 	 	 	 	 	 	 	 	 	1581551665	7.48	13.85
12/02/2020 23:54:26	120220	12022020	235426	232.08	12.146843	-57.206797	232.08	0.120	0.720	0.880	232.08	-1.00	1.10	 	 	 	 	 	 	 	 	 	 	 	 	 	 	 	 	 	 	1581551666	7.78	14.41
12/02/2020 23:54:27	120220	12022020	235427	232.35	12.146820	-57.206827	232.34	0.230	-0.100	0.260	232.35	-1.70	0.50	 	 	 	 	 	 	 	 	 	 	 	 	 	 	 	 	 	 	1581551667	8.05	14.91
12/02/2020 23:54:28	120220	12022020	235428	232.60	12.146800	-57.206857	232.58	0.300	-0.570	-0.100	232.60	-2.00	0.20	 	 	 	 	 	 	 	 	 	 	 	 	 	 	 	 	 	 	1581551668	7.99	14.80
12/02/2020 23:54:29	120220	12022020	235429	232.93	12.146782	-57.206883	232.91	0.340	-0.550	-0.400	232.93	-1.90	-0.10	 	 	 	 	 	 	 	 	 	 	 	 	 	 	 	 	 	 	1581551669	7.51	13.91
12/02/2020 23:54:30	120220	12022020	235430	233.27	12.146765	-57.206910	233.26	0.320	-0.410	-0.540	233.27	-1.80	-0.10	 	 	 	 	 	 	 	 	 	 	 	 	 	 	 	 	 	 	1581551670	6.94	12.85
12/02/2020 23:54:31	120220	12022020	235431	233.39	12.146748	-57.206937	233.39	0.310	-0.530	-0.160	233.39	-2.00	0.50	 	 	 	 	 	 	 	 	 	 	 	 	 	 	 	 	 	 	1581551671	6.68	12.37
12/02/2020 23:54:32	120220	12022020	235432	233.23	12.146732	-57.206968	233.26	0.300	-0.810	0.720	233.23	-2.30	1.50	 	 	 	 	 	 	 	 	 	 	 	 	 	 	 	 	 	 	1581551672	6.98	12.93
12/02/2020 23:54:33	120220	12022020	235433	232.92	12.146718	-57.207002	232.95	0.250	-0.990	1.730	232.92	-2.40	2.40	 	 	 	 	 	 	 	 	 	 	 	 	 	 	 	 	 	 	1581551673	7.41	13.72
12/02/2020 23:54:34	120220	12022020	235434	232.49	12.146703	-57.207033	232.54	0.170	-0.990	2.510	232.49	-2.30	3.10	 	 	 	 	 	 	 	 	 	 	 	 	 	 	 	 	 	 	1581551674	7.57	14.02
12/02/2020 23:54:35	120220	12022020	235435	232.05	12.146687	-57.207067	232.11	0.030	-0.770	2.900	232.05	-2.00	3.30	 	 	 	 	 	 	 	 	 	 	 	 	 	 	 	 	 	 	1581551675	7.63	14.13
12/02/2020 23:54:36	120220	12022020	235436	231.91	12.146670	-57.207097	231.95	-0.240	-0.350	2.720	231.91	-1.60	2.90	 	 	 	 	 	 	 	 	 	 	 	 	 	 	 	 	 	 	1581551676	7.60	14.08
12/02/2020 23:54:37	120220	12022020	235437	232.19	12.146652	-57.207127	232.20	-0.580	0.060	2.030	232.19	-1.20	2.10	 	 	 	 	 	 	 	 	 	 	 	 	 	 	 	 	 	 	1581551677	7.46	13.82
12/02/2020 23:54:38	120220	12022020	235438	232.65	12.146633	-57.207155	232.66	-0.740	0.260	1.090	232.65	-1.10	1.20	 	 	 	 	 	 	 	 	 	 	 	 	 	 	 	 	 	 	1581551678	7.36	13.63
12/02/2020 23:54:39	120220	12022020	235439	233.02	12.146612	-57.207185	233.01	-0.530	0.150	0.200	233.02	-1.30	0.40	 	 	 	 	 	 	 	 	 	 	 	 	 	 	 	 	 	 	1581551679	7.45	13.80
12/02/2020 23:54:40	120220	12022020	235440	233.27	12.146588	-57.207213	233.24	-0.000	0.000	-0.360	233.27	-1.40	-0.00	 	 	 	 	 	 	 	 	 	 	 	 	 	 	 	 	 	 	1581551680	7.72	14.30
12/02/2020 23:54:41	120220	12022020	235441	233.46	12.146567	-57.207242	233.48	0.430	0.110	-0.470	233.50	-1.20	0.00	 	 	 	 	 	 	 	 	 	 	 	 	 	 	 	 	 	 	1581551681	7.78	14.41
12/02/2020 23:54:42	120220	12022020	235442	233.59	12.146550	-57.207270	233.58	0.490	0.210	-0.060	233.59	-1.20	0.60	 	 	 	 	 	 	 	 	 	 	 	 	 	 	 	 	 	 	1581551682	7.38	13.67
12/02/2020 23:54:43	120220	12022020	235443	233.35	12.146535	-57.207300	233.34	0.290	0.020	0.800	233.35	-1.50	1.50	 	 	 	 	 	 	 	 	 	 	 	 	 	 	 	 	 	 	1581551683	7.11	13.17
12/02/2020 23:54:44	120220	12022020	235444	232.88	12.146522	-57.207335	232.87	0.110	-0.320	1.720	232.88	-1.80	2.40	 	 	 	 	 	 	 	 	 	 	 	 	 	 	 	 	 	 	1581551684	7.38	13.67
12/02/2020 23:54:45	120220	12022020	235445	232.50	12.146508	-57.207367	232.49	0.080	-0.400	2.240	232.50	-1.80	2.70	 	 	 	 	 	 	 	 	 	 	 	 	 	 	 	 	 	 	1581551685	7.72	14.30
12/02/2020 23:54:46	120220	12022020	235446	232.36	12.146493	-57.207397	232.36	0.130	-0.250	2.190	232.36	-1.60	2.50	 	 	 	 	 	 	 	 	 	 	 	 	 	 	 	 	 	 	1581551686	7.48	13.85
12/02/2020 23:54:47	120220	12022020	235447	232.40	12.146475	-57.207425	232.39	0.140	-0.280	1.740	232.40	-1.80	2.00	 	 	 	 	 	 	 	 	 	 	 	 	 	 	 	 	 	 	1581551687	7.01	12.98
12/02/2020 23:54:48	120220	12022020	235448	232.57	12.146457	-57.207453	232.55	0.120	-0.680	1.170	232.57	-2.20	1.40	 	 	 	 	 	 	 	 	 	 	 	 	 	 	 	 	 	 	1581551688	7.00	12.96
12/02/2020 23:54:49	120220	12022020	235449	232.74	12.146435	-57.207483	232.73	0.120	-1.180	0.720	232.74	-2.70	1.10	 	 	 	 	 	 	 	 	 	 	 	 	 	 	 	 	 	 	1581551689	7.41	13.72
12/02/2020 23:54:50	120220	12022020	235450	232.74	12.146415	-57.207513	232.71	0.130	-1.410	0.550	232.74	-2.80	1.00	 	 	 	 	 	 	 	 	 	 	 	 	 	 	 	 	 	 	1581551690	7.70	14.26
12/02/2020 23:54:51	120220	12022020	235451	232.59	12.146395	-57.207543	232.57	-0.000	-1.160	0.670	232.59	-2.40	1.20	 	 	 	 	 	 	 	 	 	 	 	 	 	 	 	 	 	 	1581551691	7.70	14.26
12/02/2020 23:54:52	120220	12022020	235452	232.53	12.146378	-57.207573	232.51	-0.350	-0.510	0.850	232.53	-1.60	1.30	 	 	 	 	 	 	 	 	 	 	 	 	 	 	 	 	 	 	1581551692	7.52	13.93
12/02/2020 23:54:53	120220	12022020	235453	232.67	12.146362	-57.207602	232.70	-0.740	0.290	0.920	232.72	-0.90	1.30	 	 	 	 	 	 	 	 	 	 	 	 	 	 	 	 	 	 	1581551693	7.31	13.54
12/02/2020 23:54:54	120220	12022020	235454	232.99	12.146345	-57.207632	232.98	-0.850	0.870	0.910	232.99	-0.40	1.30	 	 	 	 	 	 	 	 	 	 	 	 	 	 	 	 	 	 	1581551694	7.18	13.30
12/02/2020 23:54:55	120220	12022020	235455	233.13	12.146328	-57.207663	233.13	-0.530	0.960	0.870	233.15	-0.50	1.30	 	 	 	 	 	 	 	 	 	 	 	 	 	 	 	 	 	 	1581551695	7.28	13.48
12/02/2020 23:54:56	120220	12022020	235456	233.22	12.146308	-57.207695	233.20	0.010	0.630	0.820	233.22	-0.90	1.20	 	 	 	 	 	 	 	 	 	 	 	 	 	 	 	 	 	 	1581551696	7.60	14.08
12/02/2020 23:54:57	120220	12022020	235457	233.30	12.146290	-57.207727	233.27	0.440	0.210	0.790	233.30	-1.30	1.20	 	 	 	 	 	 	 	 	 	 	 	 	 	 	 	 	 	 	1581551697	7.85	14.54
12/02/2020 23:54:58	120220	12022020	235458	233.40	12.146272	-57.207755	233.38	0.590	-0.080	0.800	233.40	-1.60	1.30	 	 	 	 	 	 	 	 	 	 	 	 	 	 	 	 	 	 	1581551698	7.72	14.30
12/02/2020 23:54:59	120220	12022020	235459	233.38	12.146255	-57.207783	233.36	0.520	-0.340	1.080	233.38	-1.80	1.60	 	 	 	 	 	 	 	 	 	 	 	 	 	 	 	 	 	 	1581551699	7.31	13.54
12/02/2020 23:55:00	120220	12022020	235500	233.05	12.146240	-57.207815	233.05	0.370	-0.700	1.540	233.05	-2.20	2.10	 	 	 	 	 	 	 	 	 	 	 	 	 	 	 	 	 	 	1581551700	7.06	13.08
12/02/2020 23:55:01	120220	12022020	235501	232.56	12.146223	-57.207845	232.57	0.230	-0.990	1.830	232.56	-2.40	2.30	1015.70	26.30	26.60	21.10	21.00	-1.0	72.0	71.0	402.0	25.7	210.00	7.60	72.00	11.10	17	10905.0	27.4	27.4	1581551701	7.20	13.33
12/02/2020 23:55:02	120220	12022020	235502	232.28	12.146208	-57.207875	232.30	0.120	-1.040	1.650	232.28	-2.40	1.90	 	 	 	 	 	 	 	 	 	 	 	 	 	 	 	 	 	 	1581551702	7.35	13.61
12/02/2020 23:55:03	120220	12022020	235503	232.47	12.146190	-57.207905	232.47	0.040	-0.880	1.050	232.47	-2.20	1.30	 	 	 	 	 	 	 	 	 	 	 	 	 	 	 	 	 	 	1581551703	7.28	13.48
12/02/2020 23:55:04	120220	12022020	235504	232.89	12.146173	-57.207933	232.88	-0.070	-0.690	0.490	232.89	-2.00	0.80	 	 	 	 	 	 	 	 	 	 	 	 	 	 	 	 	 	 	1581551704	7.13	13.20
12/02/2020 23:55:05	120220	12022020	235505	233.34	12.146155	-57.207963	233.33	-0.170	-0.570	0.260	233.34	-1.90	0.70	 	 	 	 	 	 	 	 	 	 	 	 	 	 	 	 	 	 	1581551705	7.22	13.37
12/02/2020 23:55:06	120220	12022020	235506	233.65	12.146137	-57.207993	233.63	-0.240	-0.450	0.410	233.65	-1.80	1.00	 	 	 	 	 	 	 	 	 	 	 	 	 	 	 	 	 	 	1581551706	7.45	13.80
12/02/2020 23:55:07	120220	12022020	235507	233.71	12.146118	-57.208025	233.70	-0.270	-0.270	0.800	233.71	-1.60	1.40	 	 	 	 	 	 	 	 	 	 	 	 	 	 	 	 	 	 	1581551707	7.59	14.06
12/02/2020 23:55:08	120220	12022020	235508	233.58	12.146103	-57.208057	233.57	-0.320	0.020	1.240	233.58	-1.30	1.80	 	 	 	 	 	 	 	 	 	 	 	 	 	 	 	 	 	 	1581551708	7.64	14.15
12/02/2020 23:55:09	120220	12022020	235509	233.41	12.146087	-57.208088	233.42	-0.370	0.330	1.610	233.41	-1.00	2.10	 	 	 	 	 	 	 	 	 	 	 	 	 	 	 	 	 	 	1581551709	7.56	14.00
12/02/2020 23:55:10	120220	12022020	235510	233.24	12.146072	-57.208120	233.25	-0.310	0.600	1.780	233.24	-0.70	2.20	 	 	 	 	 	 	 	 	 	 	 	 	 	 	 	 	 	 	1581551710	7.48	13.85
12/02/2020 23:55:11	120220	12022020	235511	233.11	12.146053	-57.208148	233.10	-0.120	0.780	1.620	233.11	-0.60	1.90	 	 	 	 	 	 	 	 	 	 	 	 	 	 	 	 	 	 	1581551711	7.37	13.65
12/02/2020 23:55:12	120220	12022020	235512	233.06	12.146035	-57.208177	233.04	0.090	0.690	1.250	233.06	-0.90	1.60	 	 	 	 	 	 	 	 	 	 	 	 	 	 	 	 	 	 	1581551712	7.20	13.33
12/02/2020 23:55:13	120220	12022020	235513	232.96	12.146017	-57.208205	232.94	0.250	0.130	0.910	232.96	-1.60	1.30	 	 	 	 	 	 	 	 	 	 	 	 	 	 	 	 	 	 	1581551713	7.11	13.17
12/02/2020 23:55:14	120220	12022020	235514	232.77	12.145997	-57.208235	232.75	0.340	-0.820	0.750	232.77	-2.50	1.20	 	 	 	 	 	 	 	 	 	 	 	 	 	 	 	 	 	 	1581551714	7.32	13.56
12/02/2020 23:55:15	120220	12022020	235515	232.62	12.145978	-57.208267	232.61	0.360	-1.650	0.840	232.62	-3.20	1.30	 	 	 	 	 	 	 	 	 	 	 	 	 	 	 	 	 	 	1581551715	7.66	14.19
12/02/2020 23:55:16	120220	12022020	235516	232.57	12.145963	-57.208298	232.57	0.310	-1.800	1.060	232.57	-3.10	1.50	 	 	 	 	 	 	 	 	 	 	 	 	 	 	 	 	 	 	1581551716	7.75	14.35
12/02/2020 23:55:17	120220	12022020	235517	232.69	12.145950	-57.208328	232.69	0.220	-1.190	1.110	232.69	-2.30	1.50	 	 	 	 	 	 	 	 	 	 	 	 	 	 	 	 	 	 	1581551717	7.39	13.69
12/02/2020 23:55:18	120220	12022020	235518	232.95	12.145935	-57.208355	232.95	0.070	-0.350	0.950	232.95	-1.50	1.30	 	 	 	 	 	 	 	 	 	 	 	 	 	 	 	 	 	 	1581551718	6.82	12.63
12/02/2020 23:55:19	120220	12022020	235519	233.19	12.145917	-57.208383	233.19	-0.120	0.070	0.820	233.19	-1.40	1.30	 	 	 	 	 	 	 	 	 	 	 	 	 	 	 	 	 	 	1581551719	6.61	12.24
12/02/2020 23:55:20	120220	12022020	235520	233.14	12.145898	-57.208415	233.14	-0.280	-0.160	0.970	233.14	-1.70	1.50	 	 	 	 	 	 	 	 	 	 	 	 	 	 	 	 	 	 	1581551720	7.08	13.11
12/02/2020 23:55:21	120220	12022020	235521	232.85	12.145880	-57.208450	232.86	-0.340	-0.410	1.330	232.85	-1.80	1.90	 	 	 	 	 	 	 	 	 	 	 	 	 	 	 	 	 	 	1581551721	7.94	14.70
12/02/2020 23:55:22	120220	12022020	235522	232.62	12.145862	-57.208482	232.64	-0.380	0.040	1.610	232.62	-1.10	2.10	 	 	 	 	 	 	 	 	 	 	 	 	 	 	 	 	 	 	1581551722	8.30	15.37
12/02/2020 23:55:23	120220	12022020	235523	232.60	12.145847	-57.208510	232.63	-0.460	0.980	1.600	232.60	-0.20	2.00	 	 	 	 	 	 	 	 	 	 	 	 	 	 	 	 	 	 	1581551723	7.66	14.19
12/02/2020 23:55:24	120220	12022020	235524	232.75	12.145830	-57.208535	232.76	-0.470	1.490	1.320	232.75	0.00	1.60	 	 	 	 	 	 	 	 	 	 	 	 	 	 	 	 	 	 	1581551724	6.79	12.58
12/02/2020 23:55:25	120220	12022020	235525	232.98	12.145812	-57.208563	232.99	-0.220	1.060	0.940	232.98	-0.70	1.30	 	 	 	 	 	 	 	 	 	 	 	 	 	 	 	 	 	 	1581551725	6.66	12.33
12/02/2020 23:55:26	120220	12022020	235526	233.20	12.145790	-57.208595	233.20	0.250	-0.190	0.700	233.20	-2.10	1.10	 	 	 	 	 	 	 	 	 	 	 	 	 	 	 	 	 	 	1581551726	7.18	13.30
12/02/2020 23:55:27	120220	12022020	235527	233.27	12.145772	-57.208627	233.27	0.720	-1.580	0.790	233.27	-3.30	1.30	 	 	 	 	 	 	 	 	 	 	 	 	 	 	 	 	 	 	1581551727	7.79	14.43
12/02/2020 23:55:28	120220	12022020	235528	233.14	12.145755	-57.208658	233.13	0.930	-2.280	1.020	233.14	-3.70	1.50	 	 	 	 	 	 	 	 	 	 	 	 	 	 	 	 	 	 	1581551728	8.01	14.83
12/02/2020 23:55:29	120220	12022020	235529	232.88	12.145740	-57.208687	232.87	0.770	-1.980	1.300	232.88	-3.10	1.80	 	 	 	 	 	 	 	 	 	 	 	 	 	 	 	 	 	 	1581551729	7.59	14.06
12/02/2020 23:55:30	120220	12022020	235530	232.60	12.145725	-57.208715	232.60	0.310	-1.160	1.560	232.60	-2.30	2.00	 	 	 	 	 	 	 	 	 	 	 	 	 	 	 	 	 	 	1581551730	6.92	12.82
12/02/2020 23:55:31	120220	12022020	235531	232.53	12.145710	-57.208745	232.54	-0.280	-0.310	1.610	232.54	-1.50	2.00	 	 	 	 	 	 	 	 	 	 	 	 	 	 	 	 	 	 	1581551731	6.72	12.45
12/02/2020 23:55:32	120220	12022020	235532	232.71	12.145693	-57.208775	232.71	-0.770	0.270	1.510	232.71	-1.00	1.90	 	 	 	 	 	 	 	 	 	 	 	 	 	 	 	 	 	 	1581551732	6.99	12.95
12/02/2020 23:55:33	120220	12022020	235533	233.03	12.145675	-57.208807	233.01	-1.030	0.620	1.450	233.03	-0.70	1.90	 	 	 	 	 	 	 	 	 	 	 	 	 	 	 	 	 	 	1581551733	7.42	13.74
12/02/2020 23:55:34	120220	12022020	235534	233.42	12.145658	-57.208838	233.41	-1.020	0.840	1.380	233.42	-0.50	1.80	 	 	 	 	 	 	 	 	 	 	 	 	 	 	 	 	 	 	1581551734	7.71	14.28
12/02/2020 23:55:35	120220	12022020	235535	233.86	12.145640	-57.208868	233.85	-0.750	0.930	1.150	233.86	-0.50	1.40	 	 	 	 	 	 	 	 	 	 	 	 	 	 	 	 	 	 	1581551735	7.70	14.26
12/02/2020 23:55:36	120220	12022020	235536	234.20	12.145622	-57.208898	234.19	-0.220	0.680	0.670	234.20	-0.90	0.90	 	 	 	 	 	 	 	 	 	 	 	 	 	 	 	 	 	 	1581551736	7.44	13.78
12/02/2020 23:55:37	120220	12022020	235537	234.26	12.145602	-57.208927	234.24	0.480	0.020	0.180	234.26	-1.60	0.50	 	 	 	 	 	 	 	 	 	 	 	 	 	 	 	 	 	 	1581551737	7.33	13.58
12/02/2020 23:55:38	120220	12022020	235538	234.03	12.145580	-57.208953	234.00	0.980	-0.610	0.060	234.03	-2.10	0.60	 	 	 	 	 	 	 	 	 	 	 	 	 	 	 	 	 	 	1581551738	7.48	13.85
12/02/2020 23:55:39	120220	12022020	235539	233.66	12.145563	-57.208982	233.64	0.960	-0.870	0.400	233.66	-2.30	1.00	 	 	 	 	 	 	 	 	 	 	 	 	 	 	 	 	 	 	1581551739	7.38	13.67
12/02/2020 23:55:40	120220	12022020	235540	233.29	12.145550	-57.209012	233.27	0.480	-0.870	1.030	233.29	-2.30	1.70	 	 	 	 	 	 	 	 	 	 	 	 	 	 	 	 	 	 	1581551740	6.98	12.93
12/02/2020 23:55:41	120220	12022020	235541	232.98	12.145538	-57.209043	233.01	-0.020	-0.800	1.660	232.98	-2.20	2.20	 	 	 	 	 	 	 	 	 	 	 	 	 	 	 	 	 	 	1581551741	6.93	12.83
12/02/2020 23:55:42	120220	12022020	235542	233.00	12.145527	-57.209077	233.03	-0.220	-0.590	1.850	233.00	-1.90	2.20	 	 	 	 	 	 	 	 	 	 	 	 	 	 	 	 	 	 	1581551742	7.24	13.41
12/02/2020 23:55:43	120220	12022020	235543	233.32	12.145510	-57.209105	233.45	-0.150	-0.310	1.360	233.42	-1.70	1.50	 	 	 	 	 	 	 	 	 	 	 	 	 	 	 	 	 	 	1581551743	7.30	13.52
12/02/2020 23:55:44	120220	12022020	235544	233.94	12.145492	-57.209133	233.95	-0.070	-0.360	0.710	233.94	-1.90	1.00	 	 	 	 	 	 	 	 	 	 	 	 	 	 	 	 	 	 	1581551744	7.06	13.08
12/02/2020 23:55:45	120220	12022020	235545	234.17	12.145472	-57.209165	234.16	-0.110	-0.720	0.530	234.19	-2.30	1.00	 	 	 	 	 	 	 	 	 	 	 	 	 	 	 	 	 	 	1581551745	7.30	13.52
12/02/2020 23:55:46	120220	12022020	235546	233.94	12.145453	-57.209197	233.91	-0.240	-1.010	0.870	233.94	-2.40	1.50	 	 	 	 	 	 	 	 	 	 	 	 	 	 	 	 	 	 	1581551746	7.71	14.28
12/02/2020 23:55:47	120220	12022020	235547	233.35	12.145437	-57.209228	233.34	-0.350	-0.800	1.420	233.35	-2.00	2.00	 	 	 	 	 	 	 	 	 	 	 	 	 	 	 	 	 	 	1581551747	7.86	14.56
12/02/2020 23:55:48	120220	12022020	235548	232.88	12.145423	-57.209258	232.88	-0.410	0.030	1.880	232.88	-1.10	2.40	 	 	 	 	 	 	 	 	 	 	 	 	 	 	 	 	 	 	1581551748	7.63	14.13
12/02/2020 23:55:49	120220	12022020	235549	232.83	12.145408	-57.209287	232.84	-0.410	0.950	1.950	232.83	-0.30	2.30	 	 	 	 	 	 	 	 	 	 	 	 	 	 	 	 	 	 	1581551749	7.11	13.17
12/02/2020 23:55:50	120220	12022020	235550	232.99	12.145393	-57.209317	232.99	-0.320	1.250	1.780	232.99	-0.30	2.20	 	 	 	 	 	 	 	 	 	 	 	 	 	 	 	 	 	 	1581551750	6.72	12.45
12/02/2020 23:55:51	120220	12022020	235551	233.08	12.145375	-57.209347	233.07	-0.090	0.770	1.680	233.08	-0.90	2.10	 	 	 	 	 	 	 	 	 	 	 	 	 	 	 	 	 	 	1581551751	6.98	12.93
12/02/2020 23:55:52	120220	12022020	235552	233.04	12.145358	-57.209378	233.03	0.250	0.100	1.700	233.04	-1.50	2.10	 	 	 	 	 	 	 	 	 	 	 	 	 	 	 	 	 	 	1581551752	7.56	14.00
12/02/2020 23:55:53	120220	12022020	235553	232.99	12.145342	-57.209408	232.99	0.560	-0.230	1.570	232.99	-1.70	1.90	 	 	 	 	 	 	 	 	 	 	 	 	 	 	 	 	 	 	1581551753	7.65	14.17
12/02/2020 23:55:54	120220	12022020	235554	233.08	12.145325	-57.209433	233.07	0.740	-0.280	1.050	233.08	-1.70	1.30	 	 	 	 	 	 	 	 	 	 	 	 	 	 	 	 	 	 	1581551754	7.10	13.15
12/02/2020 23:55:55	120220	12022020	235555	233.22	12.145307	-57.209460	233.19	0.800	-0.590	0.420	233.22	-2.20	0.70	 	 	 	 	 	 	 	 	 	 	 	 	 	 	 	 	 	 	1581551755	6.52	12.08
12/02/2020 23:55:56	120220	12022020	235556	233.24	12.145287	-57.209488	233.20	0.780	-1.440	0.160	233.24	-3.20	0.60	 	 	 	 	 	 	 	 	 	 	 	 	 	 	 	 	 	 	1581551756	6.62	12.26
12/02/2020 23:55:57	120220	12022020	235557	233.07	12.145268	-57.209518	233.04	0.590	-2.260	0.420	233.07	-3.80	1.00	 	 	 	 	 	 	 	 	 	 	 	 	 	 	 	 	 	 	1581551757	7.36	13.63
12/02/2020 23:55:58	120220	12022020	235558	232.68	12.145252	-57.209552	232.66	0.160	-2.330	1.160	232.68	-3.50	1.90	 	 	 	 	 	 	 	 	 	 	 	 	 	 	 	 	 	 	1581551758	7.87	14.58
12/02/2020 23:55:59	120220	12022020	235559	232.14	12.145238	-57.209583	232.17	-0.470	-1.420	2.140	232.14	-2.40	2.80	 	 	 	 	 	 	 	 	 	 	 	 	 	 	 	 	 	 	1581551759	7.76	14.37
12/02/2020 23:56:00	120220	12022020	235600	231.75	12.145228	-57.209615	231.78	-1.100	0.090	2.770	231.75	-0.80	3.30	 	 	 	 	 	 	 	 	 	 	 	 	 	 	 	 	 	 	1581551760	7.39	13.69
12/02/2020 23:56:01	120220	12022020	235601	231.74	12.145215	-57.209647	231.76	-1.420	1.460	2.830	231.74	0.30	3.20	1015.70	26.30	26.40	20.90	20.90	-1.0	72.0	71.0	402.0	25.7	206.00	7.30	70.00	10.80	17	12307.0	27.4	27.4	1581551761	7.06	13.08
12/02/2020 23:56:02	120220	12022020	235602	232.08	12.145200	-57.209675	232.08	-1.170	2.050	2.280	232.08	0.60	2.40	 	 	 	 	 	 	 	 	 	 	 	 	 	 	 	 	 	 	1581551762	6.97	12.91
12/02/2020 23:56:03	120220	12022020	235603	232.53	12.145177	-57.209705	232.50	-0.440	1.680	1.300	232.53	-0.00	1.40	 	 	 	 	 	 	 	 	 	 	 	 	 	 	 	 	 	 	1581551763	7.21	13.35
12/02/2020 23:56:04	120220	12022020	235604	232.96	12.145153	-57.209733	232.91	0.350	0.690	0.420	232.96	-1.10	0.70	 	 	 	 	 	 	 	 	 	 	 	 	 	 	 	 	 	 	1581551764	7.71	14.28
12/02/2020 23:56:05	120220	12022020	235605	233.25	12.145132	-57.209762	233.20	0.830	-0.320	-0.020	233.25	-2.00	0.40	 	 	 	 	 	 	 	 	 	 	 	 	 	 	 	 	 	 	1581551765	7.97	14.76
12/02/2020 23:56:06	120220	12022020	235606	233.33	12.145113	-57.209790	233.27	0.940	-0.980	-0.060	233.33	-2.50	0.40	 	 	 	 	 	 	 	 	 	 	 	 	 	 	 	 	 	 	1581551766	7.62	14.11
12/02/2020 23:56:07	120220	12022020	235607	233.28	12.145098	-57.209817	233.20	0.830	-1.230	0.150	233.26	-2.60	0.70	 	 	 	 	 	 	 	 	 	 	 	 	 	 	 	 	 	 	1581551767	7.08	13.11
12/02/2020 23:56:08	120220	12022020	235608	233.13	12.145082	-57.209843	233.08	0.660	-1.230	0.580	233.13	-2.60	1.20	 	 	 	 	 	 	 	 	 	 	 	 	 	 	 	 	 	 	1581551768	6.70	12.41
12/02/2020 23:56:09	120220	12022020	235609	232.86	12.145068	-57.209873	232.83	0.430	-1.260	1.250	232.86	-2.70	1.90	 	 	 	 	 	 	 	 	 	 	 	 	 	 	 	 	 	 	1581551769	6.62	12.26
12/02/2020 23:56:10	120220	12022020	235610	232.49	12.145053	-57.209907	232.48	0.070	-1.250	2.040	232.49	-2.60	2.70	 	 	 	 	 	 	 	 	 	 	 	 	 	 	 	 	 	 	1581551770	7.00	12.96
12/02/2020 23:56:11	120220	12022020	235611	232.08	12.145040	-57.209940	232.09	-0.400	-0.980	2.750	232.08	-2.20	3.30	 	 	 	 	 	 	 	 	 	 	 	 	 	 	 	 	 	 	1581551771	7.51	13.91
12/02/2020 23:56:12	120220	12022020	235612	231.81	12.145028	-57.209973	231.83	-0.770	-0.250	2.980	231.81	-1.30	3.30	 	 	 	 	 	 	 	 	 	 	 	 	 	 	 	 	 	 	1581551772	7.72	14.30
12/02/2020 23:56:13	120220	12022020	235613	231.96	12.145013	-57.210002	231.97	-0.860	0.740	2.490	231.96	-0.40	2.60	 	 	 	 	 	 	 	 	 	 	 	 	 	 	 	 	 	 	1581551773	7.44	13.78
12/02/2020 23:56:14	120220	12022020	235614	232.48	12.144993	-57.210028	232.46	-0.610	1.260	1.370	232.48	-0.20	1.40	 	 	 	 	 	 	 	 	 	 	 	 	 	 	 	 	 	 	1581551774	6.87	12.72
12/02/2020 23:56:15	120220	12022020	235615	232.98	12.144970	-57.210055	232.95	-0.120	0.820	0.210	232.98	-0.90	0.40	 	 	 	 	 	 	 	 	 	 	 	 	 	 	 	 	 	 	1581551775	6.84	12.67
12/02/2020 23:56:16	120220	12022020	235616	233.29	12.144947	-57.210083	233.22	0.350	-0.220	-0.480	233.29	-1.90	-0.10	 	 	 	 	 	 	 	 	 	 	 	 	 	 	 	 	 	 	1581551776	7.54	13.96
12/02/2020 23:56:17	120220	12022020	235617	233.41	12.144925	-57.210113	233.35	0.510	-0.970	-0.560	233.41	-2.50	-0.00	 	 	 	 	 	 	 	 	 	 	 	 	 	 	 	 	 	 	1581551777	8.09	14.98
12/02/2020 23:56:18	120220	12022020	235618	233.38	12.144910	-57.210143	233.32	0.320	-0.930	-0.050	233.38	-2.20	0.60	 	 	 	 	 	 	 	 	 	 	 	 	 	 	 	 	 	 	1581551778	7.81	14.46
12/02/2020 23:56:19	120220	12022020	235619	233.32	12.144898	-57.210172	233.31	0.030	-0.280	0.700	233.32	-1.40	1.30	 	 	 	 	 	 	 	 	 	 	 	 	 	 	 	 	 	 	1581551779	7.09	13.13
12/02/2020 23:56:20	120220	12022020	235620	233.38	12.144887	-57.210200	233.37	-0.090	0.330	1.200	233.38	-1.00	1.70	 	 	 	 	 	 	 	 	 	 	 	 	 	 	 	 	 	 	1581551780	6.57	12.17
12/02/2020 23:56:21	120220	12022020	235621	233.43	12.144870	-57.210228	233.41	0.070	0.260	1.350	233.43	-1.40	1.80	 	 	 	 	 	 	 	 	 	 	 	 	 	 	 	 	 	 	1581551781	6.49	12.02
12/02/2020 23:56:22	120220	12022020	235622	233.35	12.144852	-57.210260	233.33	0.320	-0.500	1.350	233.35	-2.20	1.80	 	 	 	 	 	 	 	 	 	 	 	 	 	 	 	 	 	 	1581551782	6.97	12.91
12/02/2020 23:56:23	120220	12022020	235623	233.03	12.144832	-57.210292	233.00	0.380	-1.290	1.470	233.03	-2.80	2.00	 	 	 	 	 	 	 	 	 	 	 	 	 	 	 	 	 	 	1581551783	7.72	14.30
12/02/2020 23:56:24	120220	12022020	235624	232.64	12.144815	-57.210323	232.62	0.130	-1.350	1.650	232.64	-2.60	2.10	 	 	 	 	 	 	 	 	 	 	 	 	 	 	 	 	 	 	1581551784	8.01	14.83
12/02/2020 23:56:25	120220	12022020	235625	232.54	12.144802	-57.210353	232.53	-0.270	-0.510	1.610	232.54	-1.60	2.00	 	 	 	 	 	 	 	 	 	 	 	 	 	 	 	 	 	 	1581551785	7.57	14.02
12/02/2020 23:56:26	120220	12022020	235626	232.71	12.144788	-57.210380	232.70	-0.460	0.440	1.310	232.71	-0.80	1.60	 	 	 	 	 	 	 	 	 	 	 	 	 	 	 	 	 	 	1581551786	6.75	12.50
12/02/2020 23:56:27	120220	12022020	235627	233.00	12.144772	-57.210407	232.97	-0.290	0.680	0.840	233.00	-0.80	1.10	 	 	 	 	 	 	 	 	 	 	 	 	 	 	 	 	 	 	1581551787	6.41	11.87
12/02/2020 23:56:28	120220	12022020	235628	233.41	12.144750	-57.210437	233.36	0.040	0.190	0.380	233.41	-1.40	0.70	 	 	 	 	 	 	 	 	 	 	 	 	 	 	 	 	 	 	1581551788	6.97	12.91
12/02/2020 23:56:29	120220	12022020	235629	233.77	12.144730	-57.210468	233.70	0.250	-0.470	0.170	233.77	-2.00	0.60	 	 	 	 	 	 	 	 	 	 	 	 	 	 	 	 	 	 	1581551789	7.69	14.24
12/02/2020 23:56:30	120220	12022020	235630	233.94	12.144712	-57.210498	233.87	0.220	-0.760	0.310	233.94	-2.10	0.80	 	 	 	 	 	 	 	 	 	 	 	 	 	 	 	 	 	 	1581551790	7.91	14.65
12/02/2020 23:56:31	120220	12022020	235631	233.97	12.144697	-57.210528	233.90	0.050	-0.520	0.580	233.97	-1.80	1.10	 	 	 	 	 	 	 	 	 	 	 	 	 	 	 	 	 	 	1581551791	7.60	14.08
12/02/2020 23:56:32	120220	12022020	235632	233.82	12.144682	-57.210557	233.76	-0.130	-0.040	0.900	233.82	-1.30	1.40	 	 	 	 	 	 	 	 	 	 	 	 	 	 	 	 	 	 	1581551792	7.08	13.11
12/02/2020 23:56:33	120220	12022020	235633	233.60	12.144667	-57.210585	233.50	-0.160	0.180	1.170	233.55	-1.20	1.70	 	 	 	 	 	 	 	 	 	 	 	 	 	 	 	 	 	 	1581551793	6.75	12.50
12/02/2020 23:56:34	120220	12022020	235634	233.32	12.144650	-57.210615	233.27	-0.020	0.050	1.360	233.32	-1.40	1.80	 	 	 	 	 	 	 	 	 	 	 	 	 	 	 	 	 	 	1581551794	6.94	12.85
12/02/2020 23:56:35	120220	12022020	235635	233.19	12.144633	-57.210647	233.14	0.190	-0.230	1.500	233.17	-1.70	1.90	 	 	 	 	 	 	 	 	 	 	 	 	 	 	 	 	 	 	1581551795	7.29	13.50
12/02/2020 23:56:36	120220	12022020	235636	233.11	12.144617	-57.210677	233.09	0.300	-0.470	1.470	233.11	-1.90	1.80	 	 	 	 	 	 	 	 	 	 	 	 	 	 	 	 	 	 	1581551796	7.44	13.78
12/02/2020 23:56:37	120220	12022020	235637	233.11	12.144600	-57.210707	233.10	0.220	-0.650	1.190	233.11	-2.10	1.50	 	 	 	 	 	 	 	 	 	 	 	 	 	 	 	 	 	 	1581551797	7.36	13.63
12/02/2020 23:56:38	120220	12022020	235638	233.23	12.144582	-57.210735	233.21	0.050	-0.680	0.800	233.23	-2.10	1.10	 	 	 	 	 	 	 	 	 	 	 	 	 	 	 	 	 	 	1581551798	7.32	13.56
12/02/2020 23:56:39	120220	12022020	235639	233.43	12.144563	-57.210763	233.40	-0.110	-0.620	0.500	233.43	-2.00	0.90	 	 	 	 	 	 	 	 	 	 	 	 	 	 	 	 	 	 	1581551799	7.23	13.39
12/02/2020 23:56:40	120220	12022020	235640	233.56	12.144545	-57.210793	233.52	-0.180	-0.570	0.390	233.56	-2.00	0.80	 	 	 	 	 	 	 	 	 	 	 	 	 	 	 	 	 	 	1581551800	7.20	13.33
12/02/2020 23:56:41	120220	12022020	235641	233.49	12.144527	-57.210823	233.45	-0.180	-0.500	0.580	233.49	-1.90	1.10	 	 	 	 	 	 	 	 	 	 	 	 	 	 	 	 	 	 	1581551801	7.35	13.61
12/02/2020 23:56:42	120220	12022020	235642	233.30	12.144512	-57.210855	233.27	-0.180	-0.250	0.930	233.30	-1.50	1.50	 	 	 	 	 	 	 	 	 	 	 	 	 	 	 	 	 	 	1581551802	7.47	13.83
12/02/2020 23:56:43	120220	12022020	235643	233.03	12.144497	-57.210887	233.03	-0.190	0.130	1.350	233.03	-1.20	1.90	 	 	 	 	 	 	 	 	 	 	 	 	 	 	 	 	 	 	1581551803	7.40	13.70
12/02/2020 23:56:44	120220	12022020	235644	232.88	12.144483	-57.210917	232.90	-0.160	0.470	1.620	232.88	-0.90	2.00	 	 	 	 	 	 	 	 	 	 	 	 	 	 	 	 	 	 	1581551804	7.29	13.50
12/02/2020 23:56:45	120220	12022020	235645	233.00	12.144467	-57.210947	233.01	-0.040	0.590	1.550	233.00	-0.90	1.90	 	 	 	 	 	 	 	 	 	 	 	 	 	 	 	 	 	 	1581551805	7.25	13.43
12/02/2020 23:56:46	120220	12022020	235646	233.19	12.144450	-57.210977	233.19	0.160	0.340	1.260	233.19	-1.20	1.50	 	 	 	 	 	 	 	 	 	 	 	 	 	 	 	 	 	 	1581551806	7.19	13.32
12/02/2020 23:56:47	120220	12022020	235647	233.40	12.144430	-57.211005	233.40	0.370	-0.140	0.750	233.40	-1.70	1.00	 	 	 	 	 	 	 	 	 	 	 	 	 	 	 	 	 	 	1581551807	7.30	13.52
12/02/2020 23:56:48	120220	12022020	235648	233.54	12.144408	-57.211033	233.50	0.410	-0.580	0.370	233.54	-2.10	0.80	 	 	 	 	 	 	 	 	 	 	 	 	 	 	 	 	 	 	1581551808	7.42	13.74
12/02/2020 23:56:49	120220	12022020	235649	233.44	12.144390	-57.211062	233.42	0.230	-0.950	0.510	233.44	-2.50	1.10	 	 	 	 	 	 	 	 	 	 	 	 	 	 	 	 	 	 	1581551809	7.34	13.59
12/02/2020 23:56:50	120220	12022020	235650	233.13	12.144373	-57.211093	233.11	-0.040	-1.190	1.090	233.13	-2.60	1.70	 	 	 	 	 	 	 	 	 	 	 	 	 	 	 	 	 	 	1581551810	7.31	13.54
12/02/2020 23:56:51	120220	12022020	235651	232.66	12.144360	-57.211125	232.66	-0.230	-1.150	1.800	232.66	-2.50	2.40	 	 	 	 	 	 	 	 	 	 	 	 	 	 	 	 	 	 	1581551811	7.41	13.72
12/02/2020 23:56:52	120220	12022020	235652	232.23	12.144348	-57.211158	232.25	-0.280	-0.820	2.240	232.23	-2.10	2.70	 	 	 	 	 	 	 	 	 	 	 	 	 	 	 	 	 	 	1581551812	7.49	13.87
12/02/2020 23:56:53	120220	12022020	235653	232.14	12.144332	-57.211188	232.17	-0.180	-0.370	2.030	232.14	-1.60	2.30	 	 	 	 	 	 	 	 	 	 	 	 	 	 	 	 	 	 	1581551813	7.39	13.69
12/02/2020 23:56:54	120220	12022020	235654	232.46	12.144313	-57.211217	232.50	-0.010	-0.030	1.330	232.46	-1.40	1.50	 	 	 	 	 	 	 	 	 	 	 	 	 	 	 	 	 	 	1581551814	7.21	13.35
12/02/2020 23:56:55	120220	12022020	235655	232.97	12.144292	-57.211243	232.99	0.050	0.090	0.600	232.97	-1.30	0.90	 	 	 	 	 	 	 	 	 	 	 	 	 	 	 	 	 	 	1581551815	7.24	13.41
12/02/2020 23:56:56	120220	12022020	235656	233.29	12.144270	-57.211273	233.29	-0.070	0.070	0.300	233.29	-1.30	0.70	 	 	 	 	 	 	 	 	 	 	 	 	 	 	 	 	 	 	1581551816	7.48	13.85
12/02/2020 23:56:57	120220	12022020	235657	233.35	12.144252	-57.211303	233.35	-0.280	0.180	0.370	233.35	-1.10	0.90	 	 	 	 	 	 	 	 	 	 	 	 	 	 	 	 	 	 	1581551817	7.64	14.15
12/02/2020 23:56:58	120220	12022020	235658	233.35	12.144235	-57.211332	233.33	-0.360	0.600	0.590	233.35	-0.70	1.10	 	 	 	 	 	 	 	 	 	 	 	 	 	 	 	 	 	 	1581551818	7.52	13.93
12/02/2020 23:56:59	120220	12022020	235659	233.37	12.144220	-57.211360	233.35	-0.270	0.950	0.830	233.37	-0.50	1.30	 	 	 	 	 	 	 	 	 	 	 	 	 	 	 	 	 	 	1581551819	7.10	13.15
12/02/2020 23:57:00	120220	12022020	235700	233.36	12.144203	-57.211390	233.34	-0.100	0.550	1.120	233.36	-1.20	1.60	 	 	 	 	 	 	 	 	 	 	 	 	 	 	 	 	 	 	1581551820	6.80	12.59
12/02/2020 23:57:01	120220	12022020	235701	233.15	12.144187	-57.211423	233.13	0.150	-0.680	1.490	233.15	-2.50	2.00	1015.70	26.30	26.50	20.80	20.80	-1.0	71.0	71.0	401.0	25.7	204.00	7.50	69.00	11.00	17	11221.0	27.4	27.4	1581551821	7.17	13.28
12/02/2020 23:57:02	120220	12022020	235702	232.73	12.144170	-57.211458	232.73	0.440	-1.910	1.810	232.73	-3.50	2.30	 	 	 	 	 	 	 	 	 	 	 	 	 	 	 	 	 	 	1581551822	7.95	14.72
12/02/2020 23:57:03	120220	12022020	235703	232.35	12.144153	-57.211488	232.36	0.620	-2.110	1.940	232.35	-3.30	2.30	 	 	 	 	 	 	 	 	 	 	 	 	 	 	 	 	 	 	1581551823	8.23	15.24
12/02/2020 23:57:04	120220	12022020	235704	232.23	12.144137	-57.211515	232.24	0.530	-1.270	1.750	232.23	-2.30	2.00	 	 	 	 	 	 	 	 	 	 	 	 	 	 	 	 	 	 	1581551824	7.50	13.89
12/02/2020 23:57:05	120220	12022020	235705	232.43	12.144122	-57.211540	232.43	0.180	-0.220	1.250	232.43	-1.40	1.50	 	 	 	 	 	 	 	 	 	 	 	 	 	 	 	 	 	 	1581551825	6.54	12.11
12/02/2020 23:57:06	120220	12022020	235706	232.93	12.144103	-57.211568	232.93	-0.250	0.330	0.660	232.93	-1.00	0.90	 	 	 	 	 	 	 	 	 	 	 	 	 	 	 	 	 	 	1581551826	6.37	11.80
12/02/2020 23:57:07	120220	12022020	235707	233.50	12.144083	-57.211597	233.49	-0.560	0.360	0.260	233.50	-1.10	0.60	 	 	 	 	 	 	 	 	 	 	 	 	 	 	 	 	 	 	1581551827	6.97	12.91
12/02/2020 23:57:08	120220	12022020	235708	233.91	12.144062	-57.211628	233.89	-0.620	0.100	0.190	233.91	-1.40	0.60	 	 	 	 	 	 	 	 	 	 	 	 	 	 	 	 	 	 	1581551828	7.61	14.09
12/02/2020 23:57:09	120220	12022020	235709	234.00	12.144043	-57.211660	233.97	-0.500	-0.080	0.360	234.00	-1.50	0.90	 	 	 	 	 	 	 	 	 	 	 	 	 	 	 	 	 	 	1581551829	7.91	14.65
12/02/2020 23:57:10	120220	12022020	235710	233.75	12.144027	-57.211692	233.72	-0.290	0.070	0.750	233.75	-1.20	1.30	 	 	 	 	 	 	 	 	 	 	 	 	 	 	 	 	 	 	1581551830	7.85	14.54
12/02/2020 23:57:11	120220	12022020	235711	233.36	12.144012	-57.211720	233.34	-0.090	0.400	1.150	233.36	-0.90	1.70	 	 	 	 	 	 	 	 	 	 	 	 	 	 	 	 	 	 	1581551831	7.45	13.80
12/02/2020 23:57:12	120220	12022020	235712	232.99	12.143995	-57.211750	232.99	0.050	0.490	1.400	232.99	-1.00	1.80	 	 	 	 	 	 	 	 	 	 	 	 	 	 	 	 	 	 	1581551832	7.05	13.06
12/02/2020 23:57:13	120220	12022020	235713	232.75	12.143978	-57.211780	232.76	0.190	0.050	1.440	232.75	-1.60	1.80	 	 	 	 	 	 	 	 	 	 	 	 	 	 	 	 	 	 	1581551833	6.97	12.91
12/02/2020 23:57:14	120220	12022020	235714	232.60	12.143962	-57.211810	232.60	0.350	-0.730	1.370	232.60	-2.40	1.70	 	 	 	 	 	 	 	 	 	 	 	 	 	 	 	 	 	 	1581551834	7.27	13.46
12/02/2020 23:57:15	120220	12022020	235715	232.46	12.143943	-57.211842	232.46	0.490	-1.340	1.200	232.46	-2.80	1.50	 	 	 	 	 	 	 	 	 	 	 	 	 	 	 	 	 	 	1581551835	7.63	14.13
12/02/2020 23:57:16	120220	12022020	235716	232.55	12.143925	-57.211870	232.54	0.470	-1.420	0.850	232.55	-2.70	1.10	 	 	 	 	 	 	 	 	 	 	 	 	 	 	 	 	 	 	1581551836	7.62	14.11
12/02/2020 23:57:17	120220	12022020	235717	232.82	12.143907	-57.211898	232.80	0.200	-1.050	0.470	232.82	-2.30	0.80	 	 	 	 	 	 	 	 	 	 	 	 	 	 	 	 	 	 	1581551837	7.25	13.43
12/02/2020 23:57:18	120220	12022020	235718	233.15	12.143890	-57.211927	233.12	-0.180	-0.450	0.140	233.15	-1.60	0.50	 	 	 	 	 	 	 	 	 	 	 	 	 	 	 	 	 	 	1581551838	6.98	12.93
12/02/2020 23:57:19	120220	12022020	235719	233.55	12.143873	-57.211953	233.50	-0.470	0.240	-0.070	233.55	-1.00	0.30	 	 	 	 	 	 	 	 	 	 	 	 	 	 	 	 	 	 	1581551839	6.97	12.91
12/02/2020 23:57:20	120220	12022020	235720	233.81	12.143855	-57.211983	233.75	-0.500	0.700	0.080	233.81	-0.70	0.60	 	 	 	 	 	 	 	 	 	 	 	 	 	 	 	 	 	 	1581551840	6.97	12.91
12/02/2020 23:57:21	120220	12022020	235721	233.77	12.143838	-57.212013	233.73	-0.270	0.660	0.590	233.77	-0.90	1.20	 	 	 	 	 	 	 	 	 	 	 	 	 	 	 	 	 	 	1581551841	7.13	13.20
12/02/2020 23:57:22	120220	12022020	235722	233.51	12.143820	-57.212045	233.49	0.020	0.290	1.310	233.51	-1.30	2.00	 	 	 	 	 	 	 	 	 	 	 	 	 	 	 	 	 	 	1581551842	7.51	13.91
12/02/2020 23:57:23	120220	12022020	235723	233.15	12.143803	-57.212078	233.04	0.190	-0.160	2.000	233.05	-1.70	2.60	 	 	 	 	 	 	 	 	 	 	 	 	 	 	 	 	 	 	1581551843	7.76	14.37
12/02/2020 23:57:24	120220	12022020	235724	232.46	12.143787	-57.212110	232.47	0.230	-0.620	2.380	232.46	-2.20	2.80	 	 	 	 	 	 	 	 	 	 	 	 	 	 	 	 	 	 	1581551844	7.68	14.22
12/02/2020 23:57:25	120220	12022020	235725	232.10	12.143772	-57.212142	232.07	0.190	-0.930	2.220	232.05	-2.40	2.50	 	 	 	 	 	 	 	 	 	 	 	 	 	 	 	 	 	 	1581551845	7.63	14.13
12/02/2020 23:57:26	120220	12022020	235726	232.03	12.143753	-57.212170	232.05	0.160	-0.850	1.570	232.03	-2.20	1.70	 	 	 	 	 	 	 	 	 	 	 	 	 	 	 	 	 	 	1581551846	7.50	13.89
12/02/2020 23:57:27	120220	12022020	235727	232.35	12.143735	-57.212195	232.34	0.120	-0.490	0.690	232.35	-1.80	0.90	 	 	 	 	 	 	 	 	 	 	 	 	 	 	 	 	 	 	1581551847	7.11	13.17
12/02/2020 23:57:28	120220	12022020	235728	232.88	12.143715	-57.212222	232.85	-0.020	-0.220	0.040	232.88	-1.60	0.30	 	 	 	 	 	 	 	 	 	 	 	 	 	 	 	 	 	 	1581551848	6.82	12.63
12/02/2020 23:57:29	120220	12022020	235729	233.49	12.143697	-57.212250	233.45	-0.250	-0.170	-0.240	233.49	-1.60	0.20	 	 	 	 	 	 	 	 	 	 	 	 	 	 	 	 	 	 	1581551849	6.94	12.85
12/02/2020 23:57:30	120220	12022020	235730	233.92	12.143680	-57.212282	233.89	-0.340	-0.230	-0.140	233.92	-1.60	0.40	 	 	 	 	 	 	 	 	 	 	 	 	 	 	 	 	 	 	1581551850	7.24	13.41
12/02/2020 23:57:31	120220	12022020	235731	233.93	12.143662	-57.212312	233.90	-0.160	-0.220	0.260	233.93	-1.60	0.80	 	 	 	 	 	 	 	 	 	 	 	 	 	 	 	 	 	 	1581551851	7.46	13.82
12/02/2020 23:57:32	120220	12022020	235732	233.61	12.143645	-57.212342	233.58	0.160	-0.130	0.760	233.61	-1.50	1.30	 	 	 	 	 	 	 	 	 	 	 	 	 	 	 	 	 	 	1581551852	7.44	13.78
12/02/2020 23:57:33	120220	12022020	235733	233.10	12.143627	-57.212372	233.07	0.290	-0.080	1.240	233.10	-1.50	1.80	 	 	 	 	 	 	 	 	 	 	 	 	 	 	 	 	 	 	1581551853	7.35	13.61
12/02/2020 23:57:34	120220	12022020	235734	232.58	12.143610	-57.212402	232.56	0.140	-0.130	1.640	232.58	-1.60	2.10	 	 	 	 	 	 	 	 	 	 	 	 	 	 	 	 	 	 	1581551854	7.35	13.61
12/02/2020 23:57:35	120220	12022020	235735	232.36	12.143595	-57.212433	232.36	-0.120	-0.160	1.750	232.36	-1.50	2.10	 	 	 	 	 	 	 	 	 	 	 	 	 	 	 	 	 	 	1581551855	7.46	13.82
12/02/2020 23:57:36	120220	12022020	235736	232.53	12.143578	-57.212463	232.52	-0.230	-0.070	1.400	232.53	-1.40	1.60	 	 	 	 	 	 	 	 	 	 	 	 	 	 	 	 	 	 	1581551856	7.44	13.78
12/02/2020 23:57:37	120220	12022020	235737	233.01	12.143562	-57.212492	232.99	-0.090	-0.060	0.730	233.01	-1.50	0.90	 	 	 	 	 	 	 	 	 	 	 	 	 	 	 	 	 	 	1581551857	7.20	13.33
12/02/2020 23:57:38	120220	12022020	235738	233.60	12.143542	-57.212520	233.58	0.120	-0.350	0.110	233.60	-1.90	0.40	 	 	 	 	 	 	 	 	 	 	 	 	 	 	 	 	 	 	1581551858	7.09	13.13
12/02/2020 23:57:39	120220	12022020	235739	233.92	12.143522	-57.212550	233.90	0.230	-0.820	0.000	233.92	-2.30	0.50	 	 	 	 	 	 	 	 	 	 	 	 	 	 	 	 	 	 	1581551859	7.32	13.56
12/02/2020 23:57:40	120220	12022020	235740	233.94	12.143505	-57.212580	233.91	0.140	-1.020	0.330	233.94	-2.40	0.90	 	 	 	 	 	 	 	 	 	 	 	 	 	 	 	 	 	 	1581551860	7.60	14.08
12/02/2020 23:57:41	120220	12022020	235741	233.79	12.143488	-57.212610	233.76	-0.030	-0.710	0.810	233.79	-1.90	1.40	 	 	 	 	 	 	 	 	 	 	 	 	 	 	 	 	 	 	1581551861	7.53	13.95
12/02/2020 23:57:42	120220	12022020	235742	233.53	12.143473	-57.212640	233.50	-0.120	-0.120	1.280	233.53	-1.30	1.80	 	 	 	 	 	 	 	 	 	 	 	 	 	 	 	 	 	 	1581551862	7.18	13.30
12/02/2020 23:57:43	120220	12022020	235743	233.27	12.143458	-57.212670	233.27	-0.120	0.330	1.620	233.27	-1.00	2.10	 	 	 	 	 	 	 	 	 	 	 	 	 	 	 	 	 	 	1581551863	6.98	12.93
12/02/2020 23:57:44	120220	12022020	235744	233.14	12.143443	-57.212700	233.15	-0.090	0.430	1.680	233.14	-1.00	2.10	 	 	 	 	 	 	 	 	 	 	 	 	 	 	 	 	 	 	1581551864	7.10	13.15
12/02/2020 23:57:45	120220	12022020	235745	233.13	12.143427	-57.212732	233.15	-0.040	0.220	1.530	233.13	-1.30	1.80	 	 	 	 	 	 	 	 	 	 	 	 	 	 	 	 	 	 	1581551865	7.37	13.65
12/02/2020 23:57:46	120220	12022020	235746	233.21	12.143408	-57.212762	233.22	0.090	-0.130	1.210	233.21	-1.70	1.50	 	 	 	 	 	 	 	 	 	 	 	 	 	 	 	 	 	 	1581551866	7.54	13.96
12/02/2020 23:57:47	120220	12022020	235747	233.32	12.143388	-57.212792	233.32	0.280	-0.460	0.750	233.32	-1.90	1.00	 	 	 	 	 	 	 	 	 	 	 	 	 	 	 	 	 	 	1581551867	7.54	13.96
12/02/2020 23:57:48	120220	12022020	235748	233.49	12.143368	-57.212818	233.48	0.350	-0.600	0.250	233.49	-2.00	0.50	 	 	 	 	 	 	 	 	 	 	 	 	 	 	 	 	 	 	1581551868	7.46	13.82
12/02/2020 23:57:49	120220	12022020	235749	233.81	12.143350	-57.212847	233.79	0.170	-0.640	-0.090	233.81	-2.10	0.30	 	 	 	 	 	 	 	 	 	 	 	 	 	 	 	 	 	 	1581551869	7.25	13.43
12/02/2020 23:57:50	120220	12022020	235750	234.13	12.143332	-57.212875	234.10	-0.130	-0.790	0.060	234.13	-2.30	0.60	 	 	 	 	 	 	 	 	 	 	 	 	 	 	 	 	 	 	1581551870	7.10	13.15
12/02/2020 23:57:51	120220	12022020	235751	234.19	12.143317	-57.212908	234.15	-0.300	-0.970	0.700	234.19	-2.40	1.40	 	 	 	 	 	 	 	 	 	 	 	 	 	 	 	 	 	 	1581551871	7.30	13.52
12/02/2020 23:57:52	120220	12022020	235752	234.00	12.143302	-57.212942	233.97	-0.290	-0.760	1.530	234.00	-2.00	2.20	 	 	 	 	 	 	 	 	 	 	 	 	 	 	 	 	 	 	1581551872	7.65	14.17
12/02/2020 23:57:53	120220	12022020	235753	233.64	12.143288	-57.212972	233.63	-0.200	-0.140	2.230	233.64	-1.30	2.80	 	 	 	 	 	 	 	 	 	 	 	 	 	 	 	 	 	 	1581551873	7.59	14.06
12/02/2020 23:57:54	120220	12022020	235754	233.28	12.143273	-57.213002	233.26	-0.150	0.550	2.470	233.28	-0.70	2.80	 	 	 	 	 	 	 	 	 	 	 	 	 	 	 	 	 	 	1581551874	7.27	13.46
12/02/2020 23:57:55	120220	12022020	235755	233.02	12.143257	-57.213032	233.01	-0.110	0.760	2.250	233.02	-0.70	2.50	 	 	 	 	 	 	 	 	 	 	 	 	 	 	 	 	 	 	1581551875	7.04	13.04
12/02/2020 23:57:56	120220	12022020	235756	232.91	12.143238	-57.213062	232.90	-0.020	0.390	1.790	232.91	-1.20	2.00	 	 	 	 	 	 	 	 	 	 	 	 	 	 	 	 	 	 	1581551876	7.22	13.37
12/02/2020 23:57:57	120220	12022020	235757	232.98	12.143218	-57.213092	232.95	0.100	-0.200	1.240	232.98	-1.80	1.40	 	 	 	 	 	 	 	 	 	 	 	 	 	 	 	 	 	 	1581551877	7.62	14.11
12/02/2020 23:57:58	120220	12022020	235758	233.31	12.143198	-57.213122	233.27	0.210	-0.690	0.590	233.31	-2.20	0.80	 	 	 	 	 	 	 	 	 	 	 	 	 	 	 	 	 	 	1581551878	7.73	14.32
12/02/2020 23:57:59	120220	12022020	235759	233.85	12.143178	-57.213150	233.81	0.240	-0.920	-0.050	233.85	-2.30	0.20	 	 	 	 	 	 	 	 	 	 	 	 	 	 	 	 	 	 	1581551879	7.56	14.00
12/02/2020 23:58:00	120220	12022020	235800	234.45	12.143160	-57.213177	234.42	0.170	-0.790	-0.420	234.45	-2.10	-0.00	 	 	 	 	 	 	 	 	 	 	 	 	 	 	 	 	 	 	1581551880	7.31	13.54
12/02/2020 23:58:01	120220	12022020	235801	234.85	12.143143	-57.213205	234.90	0.030	-0.430	-0.360	234.93	-1.70	0.20	1015.70	26.30	26.40	20.80	20.80	-1.0	71.0	71.0	399.0	25.7	207.00	8.10	72.00	11.50	17	10850.0	27.4	27.4	1581551881	7.01	12.98
12/02/2020 23:58:02	120220	12022020	235802	235.13	12.143127	-57.213233	235.12	-0.050	-0.110	0.120	235.13	-1.50	0.80	 	 	 	 	 	 	 	 	 	 	 	 	 	 	 	 	 	 	1581551882	6.87	12.72
12/02/2020 23:58:03	120220	12022020	235803	234.85	12.143112	-57.213265	234.85	0.010	-0.030	0.990	234.85	-1.50	1.70	 	 	 	 	 	 	 	 	 	 	 	 	 	 	 	 	 	 	1581551883	6.97	12.91
12/02/2020 23:58:04	120220	12022020	235804	234.13	12.143098	-57.213298	234.14	0.120	-0.200	1.950	234.13	-1.70	2.60	 	 	 	 	 	 	 	 	 	 	 	 	 	 	 	 	 	 	1581551884	7.30	13.52
12/02/2020 23:58:05	120220	12022020	235805	233.43	12.143083	-57.213332	233.45	0.120	-0.380	2.520	233.43	-1.80	2.90	 	 	 	 	 	 	 	 	 	 	 	 	 	 	 	 	 	 	1581551885	7.72	14.30
12/02/2020 23:58:06	120220	12022020	235806	233.19	12.143067	-57.213363	233.21	-0.010	-0.380	2.360	233.19	-1.80	2.60	 	 	 	 	 	 	 	 	 	 	 	 	 	 	 	 	 	 	1581551886	7.83	14.50
12/02/2020 23:58:07	120220	12022020	235807	233.31	12.143050	-57.213393	233.33	-0.140	-0.330	1.650	233.31	-1.70	1.80	 	 	 	 	 	 	 	 	 	 	 	 	 	 	 	 	 	 	1581551887	7.52	13.93
12/02/2020 23:58:08	120220	12022020	235808	233.59	12.143030	-57.213422	233.59	-0.170	-0.390	0.740	233.59	-1.80	0.90	 	 	 	 	 	 	 	 	 	 	 	 	 	 	 	 	 	 	1581551888	7.31	13.54
12/02/2020 23:58:09	120220	12022020	235809	234.12	12.143010	-57.213450	234.10	-0.190	-0.460	-0.070	234.12	-1.80	0.20	 	 	 	 	 	 	 	 	 	 	 	 	 	 	 	 	 	 	1581551889	7.39	13.69
12/02/2020 23:58:10	120220	12022020	235810	234.87	12.142992	-57.213480	234.83	-0.320	-0.280	-0.530	234.87	-1.60	-0.20	 	 	 	 	 	 	 	 	 	 	 	 	 	 	 	 	 	 	1581551890	7.47	13.83
12/02/2020 23:58:11	120220	12022020	235811	235.54	12.142975	-57.213508	235.49	-0.450	0.110	-0.590	235.54	-1.20	-0.10	 	 	 	 	 	 	 	 	 	 	 	 	 	 	 	 	 	 	1581551891	7.23	13.39
12/02/2020 23:58:12	120220	12022020	235812	235.91	12.142960	-57.213537	235.86	-0.320	0.440	-0.330	235.91	-0.90	0.20	 	 	 	 	 	 	 	 	 	 	 	 	 	 	 	 	 	 	1581551892	6.94	12.85
12/02/2020 23:58:13	120220	12022020	235813	235.97	12.142943	-57.213565	235.91	0.130	0.390	0.030	235.94	-1.10	0.60	 	 	 	 	 	 	 	 	 	 	 	 	 	 	 	 	 	 	1581551893	6.89	12.76
12/02/2020 23:58:14	120220	12022020	235814	235.61	12.142927	-57.213597	235.59	0.660	-0.120	0.530	235.61	-1.80	1.20	 	 	 	 	 	 	 	 	 	 	 	 	 	 	 	 	 	 	1581551894	7.13	13.20
12/02/2020 23:58:15	120220	12022020	235815	234.99	12.142910	-57.213630	234.81	0.930	-0.830	1.390	234.81	-2.40	2.10	 	 	 	 	 	 	 	 	 	 	 	 	 	 	 	 	 	 	1581551895	7.55	13.98
12/02/2020 23:58:16	120220	12022020	235816	233.86	12.142895	-57.213665	233.89	0.730	-1.300	2.380	233.86	-2.70	3.00	 	 	 	 	 	 	 	 	 	 	 	 	 	 	 	 	 	 	1581551896	7.87	14.58
12/02/2020 23:58:17	120220	12022020	235817	233.31	12.142885	-57.213698	233.35	0.130	-1.210	2.950	233.31	-2.50	3.40	 	 	 	 	 	 	 	 	 	 	 	 	 	 	 	 	 	 	1581551897	7.95	14.72
12/02/2020 23:58:18	120220	12022020	235818	233.33	12.142873	-57.213732	233.38	-0.510	-0.680	2.810	233.33	-1.90	3.00	 	 	 	 	 	 	 	 	 	 	 	 	 	 	 	 	 	 	1581551898	7.70	14.26
12/02/2020 23:58:19	120220	12022020	235819	233.79	12.142858	-57.213762	233.81	-0.820	-0.120	1.970	233.79	-1.40	2.00	 	 	 	 	 	 	 	 	 	 	 	 	 	 	 	 	 	 	1581551899	7.26	13.45
12/02/2020 23:58:20	120220	12022020	235820	234.31	12.142838	-57.213788	234.31	-0.710	0.120	0.860	234.31	-1.30	1.00	 	 	 	 	 	 	 	 	 	 	 	 	 	 	 	 	 	 	1581551900	7.01	12.98
12/02/2020 23:58:21	120220	12022020	235821	234.74	12.142817	-57.213817	234.73	-0.400	0.090	-0.040	234.74	-1.30	0.20	 	 	 	 	 	 	 	 	 	 	 	 	 	 	 	 	 	 	1581551901	7.29	13.50
12/02/2020 23:58:22	120220	12022020	235822	235.04	12.142795	-57.213845	235.02	-0.120	0.130	-0.530	235.04	-1.20	-0.20	 	 	 	 	 	 	 	 	 	 	 	 	 	 	 	 	 	 	1581551902	7.63	14.13
12/02/2020 23:58:23	120220	12022020	235823	235.26	12.142777	-57.213873	235.24	0.070	0.330	-0.640	235.26	-1.00	-0.20	 	 	 	 	 	 	 	 	 	 	 	 	 	 	 	 	 	 	1581551903	7.52	13.93
12/02/2020 23:58:24	120220	12022020	235824	235.27	12.142758	-57.213902	235.26	0.280	0.320	-0.330	235.27	-1.20	0.30	 	 	 	 	 	 	 	 	 	 	 	 	 	 	 	 	 	 	1581551904	7.12	13.19
12/02/2020 23:58:25	120220	12022020	235825	234.85	12.142743	-57.213933	234.85	0.530	-0.220	0.560	234.85	-1.80	1.40	 	 	 	 	 	 	 	 	 	 	 	 	 	 	 	 	 	 	1581551905	7.06	13.08
12/02/2020 23:58:26	120220	12022020	235826	234.19	12.142730	-57.213968	234.20	0.610	-0.760	1.720	234.19	-2.20	2.50	 	 	 	 	 	 	 	 	 	 	 	 	 	 	 	 	 	 	1581551906	7.62	14.11
12/02/2020 23:58:27	120220	12022020	235827	233.75	12.142718	-57.214002	233.79	0.400	-0.650	2.590	233.75	-1.90	3.10	 	 	 	 	 	 	 	 	 	 	 	 	 	 	 	 	 	 	1581551907	7.98	14.78
12/02/2020 23:58:28	120220	12022020	235828	233.65	12.142708	-57.214033	233.69	0.060	-0.150	2.830	233.65	-1.40	3.10	 	 	 	 	 	 	 	 	 	 	 	 	 	 	 	 	 	 	1581551908	7.52	13.93
12/02/2020 23:58:29	120220	12022020	235829	233.81	12.142695	-57.214062	233.83	-0.120	-0.030	2.330	233.81	-1.50	2.40	 	 	 	 	 	 	 	 	 	 	 	 	 	 	 	 	 	 	1581551909	6.92	12.82
12/02/2020 23:58:30	120220	12022020	235830	234.05	12.142673	-57.214092	234.05	-0.110	-0.630	1.340	234.05	-2.30	1.40	 	 	 	 	 	 	 	 	 	 	 	 	 	 	 	 	 	 	1581551910	6.92	12.82
12/02/2020 23:58:31	120220	12022020	235831	234.25	12.142650	-57.214122	234.22	-0.100	-1.500	0.350	234.25	-3.10	0.50	 	 	 	 	 	 	 	 	 	 	 	 	 	 	 	 	 	 	1581551911	7.64	14.15
12/02/2020 23:58:32	120220	12022020	235832	234.31	12.142627	-57.214152	234.26	-0.240	-1.790	-0.250	234.31	-3.10	0.10	 	 	 	 	 	 	 	 	 	 	 	 	 	 	 	 	 	 	1581551912	8.22	15.22
12/02/2020 23:58:33	120220	12022020	235833	234.21	12.142608	-57.214180	234.16	-0.480	-1.120	-0.370	234.21	-2.20	0.10	 	 	 	 	 	 	 	 	 	 	 	 	 	 	 	 	 	 	1581551913	7.96	14.74
12/02/2020 23:58:34	120220	12022020	235834	234.08	12.142593	-57.214208	234.02	-0.640	0.060	-0.160	234.08	-1.00	0.40	 	 	 	 	 	 	 	 	 	 	 	 	 	 	 	 	 	 	1581551914	7.22	13.37
12/02/2020 23:58:35	120220	12022020	235835	234.01	12.142580	-57.214238	233.95	-0.560	1.110	0.230	234.01	-0.00	0.80	 	 	 	 	 	 	 	 	 	 	 	 	 	 	 	 	 	 	1581551915	6.81	12.61
12/02/2020 23:58:36	120220	12022020	235836	234.10	12.142567	-57.214270	234.07	-0.230	1.690	0.650	234.10	0.40	1.20	 	 	 	 	 	 	 	 	 	 	 	 	 	 	 	 	 	 	1581551916	6.97	12.91
12/02/2020 23:58:37	120220	12022020	235837	234.33	12.142552	-57.214302	234.39	0.220	1.600	0.950	234.39	-0.00	1.40	 	 	 	 	 	 	 	 	 	 	 	 	 	 	 	 	 	 	1581551917	7.24	13.41
12/02/2020 23:58:38	120220	12022020	235838	234.58	12.142535	-57.214335	234.57	0.610	0.680	1.160	234.58	-1.20	1.60	 	 	 	 	 	 	 	 	 	 	 	 	 	 	 	 	 	 	1581551918	7.43	13.76
12/02/2020 23:58:39	120220	12022020	235839	234.44	12.142518	-57.214368	234.43	0.840	-0.750	1.320	234.44	-2.60	1.80	 	 	 	 	 	 	 	 	 	 	 	 	 	 	 	 	 	 	1581551919	7.77	14.39
12/02/2020 23:58:40	120220	12022020	235840	234.13	12.142500	-57.214400	234.11	0.770	-1.840	1.360	234.13	-3.40	1.70	 	 	 	 	 	 	 	 	 	 	 	 	 	 	 	 	 	 	1581551920	8.11	15.02
12/02/2020 23:58:41	120220	12022020	235841	233.91	12.142482	-57.214430	233.89	0.420	-2.020	1.190	233.91	-3.30	1.50	 	 	 	 	 	 	 	 	 	 	 	 	 	 	 	 	 	 	1581551921	7.89	14.61
12/02/2020 23:58:42	120220	12022020	235842	233.88	12.142467	-57.214457	233.84	-0.040	-1.490	0.830	233.88	-2.60	1.10	 	 	 	 	 	 	 	 	 	 	 	 	 	 	 	 	 	 	1581551922	7.14	13.22
12/02/2020 23:58:43	120220	12022020	235843	234.00	12.142448	-57.214482	233.95	-0.390	-0.790	0.440	234.00	-2.00	0.80	 	 	 	 	 	 	 	 	 	 	 	 	 	 	 	 	 	 	1581551923	6.60	12.22
12/02/2020 23:58:44	120220	12022020	235844	234.19	12.142430	-57.214510	234.14	-0.540	-0.290	0.270	234.19	-1.60	0.70	 	 	 	 	 	 	 	 	 	 	 	 	 	 	 	 	 	 	1581551924	6.68	12.37
12/02/2020 23:58:45	120220	12022020	235845	234.26	12.142413	-57.214542	234.22	-0.520	-0.070	0.530	234.26	-1.40	1.10	 	 	 	 	 	 	 	 	 	 	 	 	 	 	 	 	 	 	1581551925	7.12	13.19
12/02/2020 23:58:46	120220	12022020	235846	234.02	12.142397	-57.214575	233.98	-0.420	0.040	1.150	234.02	-1.30	1.80	 	 	 	 	 	 	 	 	 	 	 	 	 	 	 	 	 	 	1581551926	7.61	14.09
12/02/2020 23:58:47	120220	12022020	235847	233.48	12.142383	-57.214610	233.45	-0.290	0.200	1.820	233.48	-1.10	2.40	 	 	 	 	 	 	 	 	 	 	 	 	 	 	 	 	 	 	1581551927	7.90	14.63
12/02/2020 23:58:48	120220	12022020	235848	232.96	12.142368	-57.214643	232.95	-0.090	0.420	2.180	232.96	-0.90	2.60	 	 	 	 	 	 	 	 	 	 	 	 	 	 	 	 	 	 	1581551928	7.91	14.65
12/02/2020 23:58:49	120220	12022020	235849	232.85	12.142353	-57.214675	232.84	0.170	0.620	2.030	232.85	-0.80	2.30	 	 	 	 	 	 	 	 	 	 	 	 	 	 	 	 	 	 	1581551929	7.70	14.26
12/02/2020 23:58:50	120220	12022020	235850	233.18	12.142337	-57.214703	233.18	0.400	0.590	1.390	233.18	-0.90	1.50	 	 	 	 	 	 	 	 	 	 	 	 	 	 	 	 	 	 	1581551930	7.40	13.70
12/02/2020 23:58:51	120220	12022020	235851	233.80	12.142317	-57.214732	233.78	0.470	0.260	0.490	233.80	-1.30	0.60	 	 	 	 	 	 	 	 	 	 	 	 	 	 	 	 	 	 	1581551931	7.22	13.37
12/02/2020 23:58:52	120220	12022020	235852	234.46	12.142295	-57.214758	234.41	0.390	-0.310	-0.320	234.46	-1.90	-0.10	 	 	 	 	 	 	 	 	 	 	 	 	 	 	 	 	 	 	1581551932	7.24	13.41
12/02/2020 23:58:53	120220	12022020	235853	234.89	12.142273	-57.214785	234.84	0.260	-0.910	-0.690	234.89	-2.50	-0.20	 	 	 	 	 	 	 	 	 	 	 	 	 	 	 	 	 	 	1581551933	7.32	13.56
12/02/2020 23:58:54	120220	12022020	235854	235.00	12.142255	-57.214813	234.96	0.100	-1.330	-0.410	235.00	-2.80	0.20	 	 	 	 	 	 	 	 	 	 	 	 	 	 	 	 	 	 	1581551934	7.35	13.61
12/02/2020 23:58:55	120220	12022020	235855	234.75	12.142238	-57.214843	234.73	-0.070	-1.380	0.420	234.75	-2.70	1.20	 	 	 	 	 	 	 	 	 	 	 	 	 	 	 	 	 	 	1581551935	7.31	13.54
12/02/2020 23:58:56	120220	12022020	235856	234.13	12.142227	-57.214877	234.10	-0.130	-1.110	1.610	234.13	-2.40	2.40	 	 	 	 	 	 	 	 	 	 	 	 	 	 	 	 	 	 	1581551936	7.21	13.35
12/02/2020 23:58:57	120220	12022020	235857	233.33	12.142215	-57.214910	233.33	-0.070	-0.610	2.710	233.33	-1.80	3.40	 	 	 	 	 	 	 	 	 	 	 	 	 	 	 	 	 	 	1581551937	7.33	13.58
12/02/2020 23:58:58	120220	12022020	235858	232.87	12.142202	-57.214942	232.86	-0.000	-0.000	3.170	232.87	-1.20	3.60	 	 	 	 	 	 	 	 	 	 	 	 	 	 	 	 	 	 	1581551938	7.47	13.83
12/02/2020 23:58:59	120220	12022020	235859	232.90	12.142188	-57.214973	232.88	0.030	0.380	2.890	232.90	-1.00	3.10	 	 	 	 	 	 	 	 	 	 	 	 	 	 	 	 	 	 	1581551939	7.38	13.67
12/02/2020 23:59:00	120220	12022020	235900	233.29	12.142170	-57.215005	233.28	0.030	0.420	2.070	233.29	-1.00	2.10	 	 	 	 	 	 	 	 	 	 	 	 	 	 	 	 	 	 	1581551940	7.39	13.69
12/02/2020 23:59:01	120220	12022020	235901	233.88	12.142150	-57.215033	233.87	0.030	0.300	0.960	233.88	-1.20	1.00	1015.80	26.30	26.40	20.70	20.70	-1.0	71.0	71.0	397.0	25.7	204.00	8.10	71.00	11.60	17	11394.0	27.4	27.4	1581551941	7.57	14.02
12/02/2020 23:59:02	120220	12022020	235902	234.46	12.142128	-57.215062	234.41	-0.010	0.060	-0.040	234.46	-1.40	0.10	 	 	 	 	 	 	 	 	 	 	 	 	 	 	 	 	 	 	1581551942	7.56	14.00
12/02/2020 23:59:03	120220	12022020	235903	234.83	12.142107	-57.215090	234.88	-0.120	-0.240	-0.620	234.91	-1.70	-0.30	 	 	 	 	 	 	 	 	 	 	 	 	 	 	 	 	 	 	1581551943	7.51	13.91
12/02/2020 23:59:04	120220	12022020	235904	235.19	12.142088	-57.215118	235.17	-0.220	-0.500	-0.790	235.19	-1.90	-0.30	 	 	 	 	 	 	 	 	 	 	 	 	 	 	 	 	 	 	1581551944	7.45	13.80
12/02/2020 23:59:05	120220	12022020	235905	235.19	12.142070	-57.215148	235.12	-0.220	-0.620	-0.500	235.15	-2.00	0.10	 	 	 	 	 	 	 	 	 	 	 	 	 	 	 	 	 	 	1581551945	7.33	13.58
12/02/2020 23:59:06	120220	12022020	235906	234.75	12.142055	-57.215178	234.75	-0.100	-0.650	0.240	234.75	-2.00	1.00	 	 	 	 	 	 	 	 	 	 	 	 	 	 	 	 	 	 	1581551946	7.22	13.37
12/02/2020 23:59:07	120220	12022020	235907	234.19	12.142040	-57.215210	234.20	0.050	-0.610	1.210	234.19	-2.00	1.90	 	 	 	 	 	 	 	 	 	 	 	 	 	 	 	 	 	 	1581551947	7.22	13.37
12/02/2020 23:59:08	120220	12022020	235908	233.67	12.142027	-57.215242	233.69	0.170	-0.430	2.080	233.67	-1.70	2.70	 	 	 	 	 	 	 	 	 	 	 	 	 	 	 	 	 	 	1581551948	7.39	13.69
12/02/2020 23:59:09	120220	12022020	235909	233.37	12.142013	-57.215275	233.39	0.240	-0.140	2.570	233.37	-1.40	3.00	 	 	 	 	 	 	 	 	 	 	 	 	 	 	 	 	 	 	1581551949	7.42	13.74
12/02/2020 23:59:10	120220	12022020	235910	233.35	12.142000	-57.215305	233.39	0.240	0.220	2.530	233.35	-1.10	2.80	 	 	 	 	 	 	 	 	 	 	 	 	 	 	 	 	 	 	1581551950	7.38	13.67
12/02/2020 23:59:11	120220	12022020	235911	233.65	12.141983	-57.215333	233.68	0.180	0.440	1.940	233.65	-1.00	2.10	 	 	 	 	 	 	 	 	 	 	 	 	 	 	 	 	 	 	1581551951	7.17	13.28
12/02/2020 23:59:12	120220	12022020	235912	234.13	12.141965	-57.215362	234.12	0.130	0.210	1.060	234.13	-1.40	1.20	 	 	 	 	 	 	 	 	 	 	 	 	 	 	 	 	 	 	1581551952	7.03	13.02
12/02/2020 23:59:13	120220	12022020	235913	234.50	12.141945	-57.215392	234.46	0.090	-0.430	0.240	234.50	-2.00	0.50	 	 	 	 	 	 	 	 	 	 	 	 	 	 	 	 	 	 	1581551953	7.27	13.46
12/02/2020 23:59:14	120220	12022020	235914	234.63	12.141925	-57.215422	234.59	0.030	-1.020	-0.190	234.63	-2.50	0.20	 	 	 	 	 	 	 	 	 	 	 	 	 	 	 	 	 	 	1581551954	7.65	14.17
12/02/2020 23:59:15	120220	12022020	235915	234.55	12.141907	-57.215452	234.50	-0.110	-1.190	-0.150	234.55	-2.50	0.40	 	 	 	 	 	 	 	 	 	 	 	 	 	 	 	 	 	 	1581551955	7.73	14.32
12/02/2020 23:59:16	120220	12022020	235916	234.30	12.141890	-57.215483	234.26	-0.290	-0.940	0.270	234.30	-2.20	0.90	 	 	 	 	 	 	 	 	 	 	 	 	 	 	 	 	 	 	1581551956	7.46	13.82
12/02/2020 23:59:17	120220	12022020	235917	234.00	12.141877	-57.215513	233.97	-0.390	-0.520	0.840	234.00	-1.80	1.40	 	 	 	 	 	 	 	 	 	 	 	 	 	 	 	 	 	 	1581551957	7.21	13.35
12/02/2020 23:59:18	120220	12022020	235918	233.79	12.141862	-57.215545	233.76	-0.330	-0.070	1.280	233.79	-1.30	1.80	 	 	 	 	 	 	 	 	 	 	 	 	 	 	 	 	 	 	1581551958	7.24	13.41
12/02/2020 23:59:19	120220	12022020	235919	233.77	12.141845	-57.215575	233.76	-0.140	0.310	1.400	233.77	-1.00	1.80	 	 	 	 	 	 	 	 	 	 	 	 	 	 	 	 	 	 	1581551959	7.32	13.56
12/02/2020 23:59:20	120220	12022020	235920	233.92	12.141828	-57.215605	233.91	0.050	0.530	1.220	233.92	-0.80	1.50	 	 	 	 	 	 	 	 	 	 	 	 	 	 	 	 	 	 	1581551960	7.34	13.59
12/02/2020 23:59:21	120220	12022020	235921	234.13	12.141810	-57.215633	234.12	0.120	0.490	0.890	234.13	-1.00	1.20	 	 	 	 	 	 	 	 	 	 	 	 	 	 	 	 	 	 	1581551961	7.31	13.54
12/02/2020 23:59:22	120220	12022020	235922	234.30	12.141792	-57.215663	234.29	0.070	0.230	0.700	234.30	-1.30	1.10	 	 	 	 	 	 	 	 	 	 	 	 	 	 	 	 	 	 	1581551962	7.36	13.63
12/02/2020 23:59:23	120220	12022020	235923	234.32	12.141775	-57.215695	234.31	0.060	-0.120	0.830	234.32	-1.60	1.30	 	 	 	 	 	 	 	 	 	 	 	 	 	 	 	 	 	 	1581551963	7.38	13.67
12/02/2020 23:59:24	120220	12022020	235924	234.17	12.141760	-57.215727	234.16	0.190	-0.550	1.190	234.17	-2.10	1.70	 	 	 	 	 	 	 	 	 	 	 	 	 	 	 	 	 	 	1581551964	7.37	13.65
12/02/2020 23:59:25	120220	12022020	235925	234.00	12.141745	-57.215758	234.02	0.360	-0.940	1.520	234.00	-2.40	2.00	 	 	 	 	 	 	 	 	 	 	 	 	 	 	 	 	 	 	1581551965	7.47	13.83
12/02/2020 23:59:26	120220	12022020	235926	233.93	12.141730	-57.215790	233.94	0.370	-1.010	1.590	233.93	-2.30	1.90	 	 	 	 	 	 	 	 	 	 	 	 	 	 	 	 	 	 	1581551966	7.55	13.98
12/02/2020 23:59:27	120220	12022020	235927	233.88	12.141713	-57.215818	233.88	0.170	-0.780	1.330	233.88	-2.00	1.60	 	 	 	 	 	 	 	 	 	 	 	 	 	 	 	 	 	 	1581551967	7.38	13.67
12/02/2020 23:59:28	120220	12022020	235928	233.89	12.141695	-57.215847	233.88	-0.090	-0.440	0.880	233.89	-1.70	1.10	 	 	 	 	 	 	 	 	 	 	 	 	 	 	 	 	 	 	1581551968	7.13	13.20
12/02/2020 23:59:29	120220	12022020	235929	233.97	12.141677	-57.215875	233.96	-0.280	-0.200	0.370	233.99	-1.50	0.70	 	 	 	 	 	 	 	 	 	 	 	 	 	 	 	 	 	 	1581551969	7.05	13.06
12/02/2020 23:59:30	120220	12022020	235930	234.13	12.141657	-57.215903	234.07	-0.410	-0.180	0.080	234.13	-1.60	0.50	 	 	 	 	 	 	 	 	 	 	 	 	 	 	 	 	 	 	1581551970	7.21	13.35
12/02/2020 23:59:31	120220	12022020	235931	234.27	12.141638	-57.215935	234.22	-0.470	-0.300	0.170	234.27	-1.70	0.70	 	 	 	 	 	 	 	 	 	 	 	 	 	 	 	 	 	 	1581551971	7.45	13.80
12/02/2020 23:59:32	120220	12022020	235932	234.35	12.141622	-57.215967	234.31	-0.400	-0.350	0.520	234.35	-1.70	1.10	 	 	 	 	 	 	 	 	 	 	 	 	 	 	 	 	 	 	1581551972	7.68	14.22
12/02/2020 23:59:33	120220	12022020	235933	234.25	12.141608	-57.216000	234.22	-0.170	-0.220	1.070	234.25	-1.50	1.70	 	 	 	 	 	 	 	 	 	 	 	 	 	 	 	 	 	 	1581551973	7.71	14.28
12/02/2020 23:59:34	120220	12022020	235934	233.87	12.141593	-57.216032	233.85	0.130	0.060	1.730	233.87	-1.20	2.30	 	 	 	 	 	 	 	 	 	 	 	 	 	 	 	 	 	 	1581551974	7.60	14.08
12/02/2020 23:59:35	120220	12022020	235935	233.48	12.141578	-57.216063	233.47	0.300	0.440	2.110	233.48	-0.80	2.50	 	 	 	 	 	 	 	 	 	 	 	 	 	 	 	 	 	 	1581551975	7.46	13.82
12/02/2020 23:59:36	120220	12022020	235936	233.43	12.141563	-57.216092	233.42	0.250	0.710	1.870	233.43	-0.70	2.10	 	 	 	 	 	 	 	 	 	 	 	 	 	 	 	 	 	 	1581551976	7.23	13.39
12/02/2020 23:59:37	120220	12022020	235937	233.68	12.141545	-57.216120	233.65	0.120	0.580	1.250	233.68	-1.00	1.40	 	 	 	 	 	 	 	 	 	 	 	 	 	 	 	 	 	 	1581551977	7.00	12.96
12/02/2020 23:59:38	120220	12022020	235938	233.99	12.141525	-57.216148	233.96	0.140	-0.080	0.590	233.99	-1.80	0.80	 	 	 	 	 	 	 	 	 	 	 	 	 	 	 	 	 	 	1581551978	7.05	13.06
12/02/2020 23:59:39	120220	12022020	235939	234.15	12.141505	-57.216180	234.11	0.270	-1.090	0.220	234.15	-2.80	0.60	 	 	 	 	 	 	 	 	 	 	 	 	 	 	 	 	 	 	1581551979	7.40	13.70
12/02/2020 23:59:40	120220	12022020	235940	234.12	12.141487	-57.216212	234.10	0.310	-1.950	0.260	234.12	-3.40	0.70	 	 	 	 	 	 	 	 	 	 	 	 	 	 	 	 	 	 	1581551980	7.79	14.43
12/02/2020 23:59:41	120220	12022020	235941	234.08	12.141470	-57.216243	234.05	0.090	-2.010	0.520	234.08	-3.20	1.00	 	 	 	 	 	 	 	 	 	 	 	 	 	 	 	 	 	 	1581551981	7.94	14.70
12/02/2020 23:59:42	120220	12022020	235942	233.99	12.141455	-57.216272	233.97	-0.280	-1.280	0.790	233.99	-2.30	1.30	 	 	 	 	 	 	 	 	 	 	 	 	 	 	 	 	 	 	1581551982	7.52	13.93
12/02/2020 23:59:43	120220	12022020	235943	233.80	12.141440	-57.216302	233.78	-0.520	-0.370	1.130	233.80	-1.50	1.70	 	 	 	 	 	 	 	 	 	 	 	 	 	 	 	 	 	 	1581551983	6.99	12.95
12/02/2020 23:59:44	120220	12022020	235944	233.57	12.141423	-57.216333	233.55	-0.540	0.290	1.580	233.57	-0.90	2.10	 	 	 	 	 	 	 	 	 	 	 	 	 	 	 	 	 	 	1581551984	6.99	12.95
12/02/2020 23:59:45	120220	12022020	235945	233.42	12.141408	-57.216365	233.41	-0.410	0.790	1.890	233.42	-0.40	2.30	 	 	 	 	 	 	 	 	 	 	 	 	 	 	 	 	 	 	1581551985	7.45	13.80
12/02/2020 23:59:46	120220	12022020	235946	233.44	12.141392	-57.216397	233.43	-0.240	1.230	1.890	233.44	-0.10	2.20	 	 	 	 	 	 	 	 	 	 	 	 	 	 	 	 	 	 	1581551986	7.68	14.22
12/02/2020 23:59:47	120220	12022020	235947	233.59	12.141375	-57.216427	233.58	-0.040	1.330	1.640	233.59	-0.10	1.90	 	 	 	 	 	 	 	 	 	 	 	 	 	 	 	 	 	 	1581551987	7.47	13.83
12/02/2020 23:59:48	120220	12022020	235948	233.79	12.141357	-57.216457	233.75	0.260	0.810	1.100	233.79	-0.90	1.30	 	 	 	 	 	 	 	 	 	 	 	 	 	 	 	 	 	 	1581551988	7.29	13.50
12/02/2020 23:59:49	120220	12022020	235949	233.92	12.141335	-57.216487	233.86	0.550	-0.250	0.570	233.92	-2.00	0.90	 	 	 	 	 	 	 	 	 	 	 	 	 	 	 	 	 	 	1581551989	7.46	13.82
12/02/2020 23:59:50	120220	12022020	235950	233.90	12.141317	-57.216518	233.84	0.620	-1.330	0.380	233.90	-2.90	0.80	 	 	 	 	 	 	 	 	 	 	 	 	 	 	 	 	 	 	1581551990	7.78	14.41
12/02/2020 23:59:51	120220	12022020	235951	233.76	12.141298	-57.216548	233.71	0.400	-1.850	0.470	233.76	-3.20	0.90	 	 	 	 	 	 	 	 	 	 	 	 	 	 	 	 	 	 	1581551991	7.85	14.54
12/02/2020 23:59:52	120220	12022020	235952	233.63	12.141283	-57.216578	233.57	0.020	-1.760	0.690	233.63	-3.00	1.20	 	 	 	 	 	 	 	 	 	 	 	 	 	 	 	 	 	 	1581551992	7.48	13.85
12/02/2020 23:59:53	120220	12022020	235953	233.57	12.141268	-57.216608	233.51	-0.260	-1.370	0.970	233.56	-2.60	1.40	 	 	 	 	 	 	 	 	 	 	 	 	 	 	 	 	 	 	1581551993	7.09	13.13
12/02/2020 23:59:54	120220	12022020	235954	233.59	12.141253	-57.216638	233.55	-0.320	-0.890	1.100	233.59	-2.10	1.50	 	 	 	 	 	 	 	 	 	 	 	 	 	 	 	 	 	 	1581551994	7.10	13.15
12/02/2020 23:59:55	120220	12022020	235955	233.63	12.141235	-57.216670	233.61	-0.230	-0.340	1.060	233.65	-1.50	1.40	 	 	 	 	 	 	 	 	 	 	 	 	 	 	 	 	 	 	1581551995	7.36	13.63
12/02/2020 23:59:56	120220	12022020	235956	233.73	12.141217	-57.216700	233.68	-0.130	0.310	0.900	233.73	-0.80	1.20	 	 	 	 	 	 	 	 	 	 	 	 	 	 	 	 	 	 	1581551996	7.50	13.89
12/02/2020 23:59:57	120220	12022020	235957	233.81	12.141198	-57.216728	233.76	-0.160	0.940	0.760	233.81	-0.30	1.20	 	 	 	 	 	 	 	 	 	 	 	 	 	 	 	 	 	 	1581551997	7.48	13.85
12/02/2020 23:59:58	120220	12022020	235958	233.90	12.141182	-57.216758	233.85	-0.300	1.280	0.800	233.90	-0.10	1.30	 	 	 	 	 	 	 	 	 	 	 	 	 	 	 	 	 	 	1581551998	7.39	13.69
12/02/2020 23:59:59	120220	12022020	235959	233.92	12.141165	-57.216792	233.88	-0.340	1.110	1.070	233.92	-0.40	1.60	 	 	 	 	 	 	 	 	 	 	 	 	 	 	 	 	 	 	1581551999	7.38	13.67
